﻿_id	﻿cod_depto	departamento	cod_mun	municipio	cod_estacion	estacion	cod_mes	mes	fecha	hora	cod_parametro	parametro	Valor
1	7	Sololá	701	Sololá	3	Barraneche	1	Enero	2023-01-01T00:00:00	2024-11-06T00:00:00	2	Temperatura media	10.8
2	7	Sololá	701	Sololá	3	Barraneche	1	Enero	2023-01-01T00:00:00	2024-11-06T00:00:00	4	Temperatura máxima	11.3
3	7	Sololá	701	Sololá	3	Barraneche	1	Enero	2023-01-01T00:00:00	2024-11-06T00:00:00	3	Temperatura mínima	10.6
4	7	Sololá	701	Sololá	3	Barraneche	1	Enero	2023-01-01T00:00:00	2024-11-06T00:00:00	5	Humedad	65
5	7	Sololá	701	Sololá	3	Barraneche	1	Enero	2023-01-01T00:00:00	2024-11-06T00:00:00	6	Velocidad del viento	3.2
6	7	Sololá	701	Sololá	3	Barraneche	1	Enero	2023-01-01T00:00:00	2024-11-06T00:00:00	7	Dirección del viento	3.22
7	7	Sololá	701	Sololá	3	Barraneche	1	Enero	2023-01-01T00:00:00	2024-11-06T00:00:00	1	Precipitación	0
8	7	Sololá	701	Sololá	3	Barraneche	1	Enero	2023-01-01T00:00:00	2024-11-06T00:00:00	8	Radiación solar	0
9	7	Sololá	701	Sololá	3	Barraneche	1	Enero	2023-01-01T00:00:00	2024-11-06T01:00:00	2	Temperatura media	9.9
10	7	Sololá	701	Sololá	3	Barraneche	1	Enero	2023-01-01T00:00:00	2024-11-06T01:00:00	4	Temperatura máxima	10.8
11	7	Sololá	701	Sololá	3	Barraneche	1	Enero	2023-01-01T00:00:00	2024-11-06T01:00:00	3	Temperatura mínima	9.9
12	7	Sololá	701	Sololá	3	Barraneche	1	Enero	2023-01-01T00:00:00	2024-11-06T01:00:00	5	Humedad	66
13	7	Sololá	701	Sololá	3	Barraneche	1	Enero	2023-01-01T00:00:00	2024-11-06T01:00:00	6	Velocidad del viento	4.8
14	7	Sololá	701	Sololá	3	Barraneche	1	Enero	2023-01-01T00:00:00	2024-11-06T01:00:00	7	Dirección del viento	4.83
15	7	Sololá	701	Sololá	3	Barraneche	1	Enero	2023-01-01T00:00:00	2024-11-06T01:00:00	1	Precipitación	0
16	7	Sololá	701	Sololá	3	Barraneche	1	Enero	2023-01-01T00:00:00	2024-11-06T01:00:00	8	Radiación solar	0
17	7	Sololá	701	Sololá	3	Barraneche	1	Enero	2023-01-01T00:00:00	2024-11-06T02:00:00	2	Temperatura media	9.9
18	7	Sololá	701	Sololá	3	Barraneche	1	Enero	2023-01-01T00:00:00	2024-11-06T02:00:00	4	Temperatura máxima	10.7
19	7	Sololá	701	Sololá	3	Barraneche	1	Enero	2023-01-01T00:00:00	2024-11-06T02:00:00	3	Temperatura mínima	9.8
20	7	Sololá	701	Sololá	3	Barraneche	1	Enero	2023-01-01T00:00:00	2024-11-06T02:00:00	5	Humedad	67
21	7	Sololá	701	Sololá	3	Barraneche	1	Enero	2023-01-01T00:00:00	2024-11-06T02:00:00	6	Velocidad del viento	8
22	7	Sololá	701	Sololá	3	Barraneche	1	Enero	2023-01-01T00:00:00	2024-11-06T02:00:00	7	Dirección del viento	8.05
23	7	Sololá	701	Sololá	3	Barraneche	1	Enero	2023-01-01T00:00:00	2024-11-06T02:00:00	1	Precipitación	0
24	7	Sololá	701	Sololá	3	Barraneche	1	Enero	2023-01-01T00:00:00	2024-11-06T02:00:00	8	Radiación solar	0
25	7	Sololá	701	Sololá	3	Barraneche	1	Enero	2023-01-01T00:00:00	2024-11-06T03:00:00	2	Temperatura media	9.6
26	7	Sololá	701	Sololá	3	Barraneche	1	Enero	2023-01-01T00:00:00	2024-11-06T03:00:00	4	Temperatura máxima	9.9
27	7	Sololá	701	Sololá	3	Barraneche	1	Enero	2023-01-01T00:00:00	2024-11-06T03:00:00	3	Temperatura mínima	9.6
28	7	Sololá	701	Sololá	3	Barraneche	1	Enero	2023-01-01T00:00:00	2024-11-06T03:00:00	5	Humedad	68
29	7	Sololá	701	Sololá	3	Barraneche	1	Enero	2023-01-01T00:00:00	2024-11-06T03:00:00	6	Velocidad del viento	4.8
30	7	Sololá	701	Sololá	3	Barraneche	1	Enero	2023-01-01T00:00:00	2024-11-06T03:00:00	7	Dirección del viento	4.83
31	7	Sololá	701	Sololá	3	Barraneche	1	Enero	2023-01-01T00:00:00	2024-11-06T03:00:00	1	Precipitación	0
32	7	Sololá	701	Sololá	3	Barraneche	1	Enero	2023-01-01T00:00:00	2024-11-06T03:00:00	8	Radiación solar	0
33	7	Sololá	701	Sololá	3	Barraneche	1	Enero	2023-01-01T00:00:00	2024-11-06T04:00:00	2	Temperatura media	9.7
34	7	Sololá	701	Sololá	3	Barraneche	1	Enero	2023-01-01T00:00:00	2024-11-06T04:00:00	4	Temperatura máxima	10.2
35	7	Sololá	701	Sololá	3	Barraneche	1	Enero	2023-01-01T00:00:00	2024-11-06T04:00:00	3	Temperatura mínima	9.1
36	7	Sololá	701	Sololá	3	Barraneche	1	Enero	2023-01-01T00:00:00	2024-11-06T04:00:00	5	Humedad	69
37	7	Sololá	701	Sololá	3	Barraneche	1	Enero	2023-01-01T00:00:00	2024-11-06T04:00:00	6	Velocidad del viento	4.8
38	7	Sololá	701	Sololá	3	Barraneche	1	Enero	2023-01-01T00:00:00	2024-11-06T04:00:00	7	Dirección del viento	4.83
39	7	Sololá	701	Sololá	3	Barraneche	1	Enero	2023-01-01T00:00:00	2024-11-06T04:00:00	1	Precipitación	0
40	7	Sololá	701	Sololá	3	Barraneche	1	Enero	2023-01-01T00:00:00	2024-11-06T04:00:00	8	Radiación solar	0
41	7	Sololá	701	Sololá	3	Barraneche	1	Enero	2023-01-01T00:00:00	2024-11-06T05:00:00	2	Temperatura media	10.3
42	7	Sololá	701	Sololá	3	Barraneche	1	Enero	2023-01-01T00:00:00	2024-11-06T05:00:00	4	Temperatura máxima	10.3
43	7	Sololá	701	Sololá	3	Barraneche	1	Enero	2023-01-01T00:00:00	2024-11-06T05:00:00	3	Temperatura mínima	9.2
44	7	Sololá	701	Sololá	3	Barraneche	1	Enero	2023-01-01T00:00:00	2024-11-06T05:00:00	5	Humedad	68
45	7	Sololá	701	Sololá	3	Barraneche	1	Enero	2023-01-01T00:00:00	2024-11-06T05:00:00	6	Velocidad del viento	3.2
46	7	Sololá	701	Sololá	3	Barraneche	1	Enero	2023-01-01T00:00:00	2024-11-06T05:00:00	7	Dirección del viento	3.22
47	7	Sololá	701	Sololá	3	Barraneche	1	Enero	2023-01-01T00:00:00	2024-11-06T05:00:00	1	Precipitación	0
48	7	Sololá	701	Sololá	3	Barraneche	1	Enero	2023-01-01T00:00:00	2024-11-06T05:00:00	8	Radiación solar	0
49	7	Sololá	701	Sololá	3	Barraneche	1	Enero	2023-01-01T00:00:00	2024-11-06T06:00:00	2	Temperatura media	9.9
50	7	Sololá	701	Sololá	3	Barraneche	1	Enero	2023-01-01T00:00:00	2024-11-06T06:00:00	4	Temperatura máxima	10.7
51	7	Sololá	701	Sololá	3	Barraneche	1	Enero	2023-01-01T00:00:00	2024-11-06T06:00:00	3	Temperatura mínima	9.9
52	7	Sololá	701	Sololá	3	Barraneche	1	Enero	2023-01-01T00:00:00	2024-11-06T06:00:00	5	Humedad	67
53	7	Sololá	701	Sololá	3	Barraneche	1	Enero	2023-01-01T00:00:00	2024-11-06T06:00:00	6	Velocidad del viento	6.4
54	7	Sololá	701	Sololá	3	Barraneche	1	Enero	2023-01-01T00:00:00	2024-11-06T06:00:00	7	Dirección del viento	6.44
55	7	Sololá	701	Sololá	3	Barraneche	1	Enero	2023-01-01T00:00:00	2024-11-06T06:00:00	1	Precipitación	0
56	7	Sololá	701	Sololá	3	Barraneche	1	Enero	2023-01-01T00:00:00	2024-11-06T06:00:00	8	Radiación solar	0
57	7	Sololá	701	Sololá	3	Barraneche	1	Enero	2023-01-01T00:00:00	2024-11-06T07:00:00	2	Temperatura media	10.1
58	7	Sololá	701	Sololá	3	Barraneche	1	Enero	2023-01-01T00:00:00	2024-11-06T07:00:00	4	Temperatura máxima	10.1
59	7	Sololá	701	Sololá	3	Barraneche	1	Enero	2023-01-01T00:00:00	2024-11-06T07:00:00	3	Temperatura mínima	8.9
60	7	Sololá	701	Sololá	3	Barraneche	1	Enero	2023-01-01T00:00:00	2024-11-06T07:00:00	5	Humedad	67
61	7	Sololá	701	Sololá	3	Barraneche	1	Enero	2023-01-01T00:00:00	2024-11-06T07:00:00	6	Velocidad del viento	4.8
62	7	Sololá	701	Sololá	3	Barraneche	1	Enero	2023-01-01T00:00:00	2024-11-06T07:00:00	7	Dirección del viento	4.83
63	7	Sololá	701	Sololá	3	Barraneche	1	Enero	2023-01-01T00:00:00	2024-11-06T07:00:00	1	Precipitación	0
64	7	Sololá	701	Sololá	3	Barraneche	1	Enero	2023-01-01T00:00:00	2024-11-06T07:00:00	8	Radiación solar	8
65	7	Sololá	701	Sololá	3	Barraneche	1	Enero	2023-01-01T00:00:00	2024-11-06T08:00:00	2	Temperatura media	13.1
66	7	Sololá	701	Sololá	3	Barraneche	1	Enero	2023-01-01T00:00:00	2024-11-06T08:00:00	4	Temperatura máxima	13.1
67	7	Sololá	701	Sololá	3	Barraneche	1	Enero	2023-01-01T00:00:00	2024-11-06T08:00:00	3	Temperatura mínima	9.8
68	7	Sololá	701	Sololá	3	Barraneche	1	Enero	2023-01-01T00:00:00	2024-11-06T08:00:00	5	Humedad	62
69	7	Sololá	701	Sololá	3	Barraneche	1	Enero	2023-01-01T00:00:00	2024-11-06T08:00:00	6	Velocidad del viento	1.6
70	7	Sololá	701	Sololá	3	Barraneche	1	Enero	2023-01-01T00:00:00	2024-11-06T08:00:00	7	Dirección del viento	1.61
71	7	Sololá	701	Sololá	3	Barraneche	1	Enero	2023-01-01T00:00:00	2024-11-06T08:00:00	1	Precipitación	0
72	7	Sololá	701	Sololá	3	Barraneche	1	Enero	2023-01-01T00:00:00	2024-11-06T08:00:00	8	Radiación solar	133
73	7	Sololá	701	Sololá	3	Barraneche	1	Enero	2023-01-01T00:00:00	2024-11-06T09:00:00	2	Temperatura media	16.2
74	7	Sololá	701	Sololá	3	Barraneche	1	Enero	2023-01-01T00:00:00	2024-11-06T09:00:00	4	Temperatura máxima	16.2
75	7	Sololá	701	Sololá	3	Barraneche	1	Enero	2023-01-01T00:00:00	2024-11-06T09:00:00	3	Temperatura mínima	13.1
76	7	Sololá	701	Sololá	3	Barraneche	1	Enero	2023-01-01T00:00:00	2024-11-06T09:00:00	5	Humedad	56
77	7	Sololá	701	Sololá	3	Barraneche	1	Enero	2023-01-01T00:00:00	2024-11-06T09:00:00	6	Velocidad del viento	3.2
78	7	Sololá	701	Sololá	3	Barraneche	1	Enero	2023-01-01T00:00:00	2024-11-06T09:00:00	7	Dirección del viento	3.22
79	7	Sololá	701	Sololá	3	Barraneche	1	Enero	2023-01-01T00:00:00	2024-11-06T09:00:00	1	Precipitación	0
80	7	Sololá	701	Sololá	3	Barraneche	1	Enero	2023-01-01T00:00:00	2024-11-06T09:00:00	8	Radiación solar	378
81	7	Sololá	701	Sololá	3	Barraneche	1	Enero	2023-01-01T00:00:00	2024-11-06T10:00:00	2	Temperatura media	16.3
82	7	Sololá	701	Sololá	3	Barraneche	1	Enero	2023-01-01T00:00:00	2024-11-06T10:00:00	4	Temperatura máxima	16.9
83	7	Sololá	701	Sololá	3	Barraneche	1	Enero	2023-01-01T00:00:00	2024-11-06T10:00:00	3	Temperatura mínima	15.5
84	7	Sololá	701	Sololá	3	Barraneche	1	Enero	2023-01-01T00:00:00	2024-11-06T10:00:00	5	Humedad	52
85	7	Sololá	701	Sololá	3	Barraneche	1	Enero	2023-01-01T00:00:00	2024-11-06T10:00:00	6	Velocidad del viento	11.3
86	7	Sololá	701	Sololá	3	Barraneche	1	Enero	2023-01-01T00:00:00	2024-11-06T10:00:00	7	Dirección del viento	11.27
87	7	Sololá	701	Sololá	3	Barraneche	1	Enero	2023-01-01T00:00:00	2024-11-06T10:00:00	1	Precipitación	0
88	7	Sololá	701	Sololá	3	Barraneche	1	Enero	2023-01-01T00:00:00	2024-11-06T10:00:00	8	Radiación solar	329
89	7	Sololá	701	Sololá	3	Barraneche	1	Enero	2023-01-01T00:00:00	2024-11-06T11:00:00	2	Temperatura media	16.4
90	7	Sololá	701	Sololá	3	Barraneche	1	Enero	2023-01-01T00:00:00	2024-11-06T11:00:00	4	Temperatura máxima	16.7
91	7	Sololá	701	Sololá	3	Barraneche	1	Enero	2023-01-01T00:00:00	2024-11-06T11:00:00	3	Temperatura mínima	16
92	7	Sololá	701	Sololá	3	Barraneche	1	Enero	2023-01-01T00:00:00	2024-11-06T11:00:00	5	Humedad	58
93	7	Sololá	701	Sololá	3	Barraneche	1	Enero	2023-01-01T00:00:00	2024-11-06T11:00:00	6	Velocidad del viento	9.7
94	7	Sololá	701	Sololá	3	Barraneche	1	Enero	2023-01-01T00:00:00	2024-11-06T11:00:00	7	Dirección del viento	9.66
95	7	Sololá	701	Sololá	3	Barraneche	1	Enero	2023-01-01T00:00:00	2024-11-06T11:00:00	1	Precipitación	0
96	7	Sololá	701	Sololá	3	Barraneche	1	Enero	2023-01-01T00:00:00	2024-11-06T11:00:00	8	Radiación solar	214
97	7	Sololá	701	Sololá	3	Barraneche	1	Enero	2023-01-01T00:00:00	2024-11-06T12:00:00	2	Temperatura media	17.9
98	7	Sololá	701	Sololá	3	Barraneche	1	Enero	2023-01-01T00:00:00	2024-11-06T12:00:00	4	Temperatura máxima	17.9
99	7	Sololá	701	Sololá	3	Barraneche	1	Enero	2023-01-01T00:00:00	2024-11-06T12:00:00	3	Temperatura mínima	16.4
100	7	Sololá	701	Sololá	3	Barraneche	1	Enero	2023-01-01T00:00:00	2024-11-06T12:00:00	5	Humedad	54
101	7	Sololá	701	Sololá	3	Barraneche	1	Enero	2023-01-01T00:00:00	2024-11-06T12:00:00	6	Velocidad del viento	12.9
102	7	Sololá	701	Sololá	3	Barraneche	1	Enero	2023-01-01T00:00:00	2024-11-06T12:00:00	7	Dirección del viento	12.87
103	7	Sololá	701	Sololá	3	Barraneche	1	Enero	2023-01-01T00:00:00	2024-11-06T12:00:00	1	Precipitación	0
104	7	Sololá	701	Sololá	3	Barraneche	1	Enero	2023-01-01T00:00:00	2024-11-06T12:00:00	8	Radiación solar	927
105	7	Sololá	701	Sololá	3	Barraneche	1	Enero	2023-01-01T00:00:00	2024-11-06T13:00:00	2	Temperatura media	18.6
106	7	Sololá	701	Sololá	3	Barraneche	1	Enero	2023-01-01T00:00:00	2024-11-06T13:00:00	4	Temperatura máxima	18.7
107	7	Sololá	701	Sololá	3	Barraneche	1	Enero	2023-01-01T00:00:00	2024-11-06T13:00:00	3	Temperatura mínima	17.7
108	7	Sololá	701	Sololá	3	Barraneche	1	Enero	2023-01-01T00:00:00	2024-11-06T13:00:00	5	Humedad	53
109	7	Sololá	701	Sololá	3	Barraneche	1	Enero	2023-01-01T00:00:00	2024-11-06T13:00:00	6	Velocidad del viento	12.9
110	7	Sololá	701	Sololá	3	Barraneche	1	Enero	2023-01-01T00:00:00	2024-11-06T13:00:00	7	Dirección del viento	12.87
111	7	Sololá	701	Sololá	3	Barraneche	1	Enero	2023-01-01T00:00:00	2024-11-06T13:00:00	1	Precipitación	0
112	7	Sololá	701	Sololá	3	Barraneche	1	Enero	2023-01-01T00:00:00	2024-11-06T13:00:00	8	Radiación solar	912
113	7	Sololá	701	Sololá	3	Barraneche	1	Enero	2023-01-01T00:00:00	2024-11-06T14:00:00	2	Temperatura media	18.3
114	7	Sololá	701	Sololá	3	Barraneche	1	Enero	2023-01-01T00:00:00	2024-11-06T14:00:00	4	Temperatura máxima	19
115	7	Sololá	701	Sololá	3	Barraneche	1	Enero	2023-01-01T00:00:00	2024-11-06T14:00:00	3	Temperatura mínima	18.1
116	7	Sololá	701	Sololá	3	Barraneche	1	Enero	2023-01-01T00:00:00	2024-11-06T14:00:00	5	Humedad	58
117	7	Sololá	701	Sololá	3	Barraneche	1	Enero	2023-01-01T00:00:00	2024-11-06T14:00:00	6	Velocidad del viento	14.5
118	7	Sololá	701	Sololá	3	Barraneche	1	Enero	2023-01-01T00:00:00	2024-11-06T14:00:00	7	Dirección del viento	14.48
119	7	Sololá	701	Sololá	3	Barraneche	1	Enero	2023-01-01T00:00:00	2024-11-06T14:00:00	1	Precipitación	0
120	7	Sololá	701	Sololá	3	Barraneche	1	Enero	2023-01-01T00:00:00	2024-11-06T14:00:00	8	Radiación solar	809
121	7	Sololá	701	Sololá	3	Barraneche	1	Enero	2023-01-01T00:00:00	2024-11-06T15:00:00	2	Temperatura media	17.4
122	7	Sololá	701	Sololá	3	Barraneche	1	Enero	2023-01-01T00:00:00	2024-11-06T15:00:00	4	Temperatura máxima	18.9
123	7	Sololá	701	Sololá	3	Barraneche	1	Enero	2023-01-01T00:00:00	2024-11-06T15:00:00	3	Temperatura mínima	17.4
124	7	Sololá	701	Sololá	3	Barraneche	1	Enero	2023-01-01T00:00:00	2024-11-06T15:00:00	5	Humedad	62
125	7	Sololá	701	Sololá	3	Barraneche	1	Enero	2023-01-01T00:00:00	2024-11-06T15:00:00	6	Velocidad del viento	14.5
126	7	Sololá	701	Sololá	3	Barraneche	1	Enero	2023-01-01T00:00:00	2024-11-06T15:00:00	7	Dirección del viento	14.48
127	7	Sololá	701	Sololá	3	Barraneche	1	Enero	2023-01-01T00:00:00	2024-11-06T15:00:00	1	Precipitación	0
128	7	Sololá	701	Sololá	3	Barraneche	1	Enero	2023-01-01T00:00:00	2024-11-06T15:00:00	8	Radiación solar	692
129	7	Sololá	701	Sololá	3	Barraneche	1	Enero	2023-01-01T00:00:00	2024-11-06T16:00:00	2	Temperatura media	16.4
130	7	Sololá	701	Sololá	3	Barraneche	1	Enero	2023-01-01T00:00:00	2024-11-06T16:00:00	4	Temperatura máxima	17.8
131	7	Sololá	701	Sololá	3	Barraneche	1	Enero	2023-01-01T00:00:00	2024-11-06T16:00:00	3	Temperatura mínima	16.2
132	7	Sololá	701	Sololá	3	Barraneche	1	Enero	2023-01-01T00:00:00	2024-11-06T16:00:00	5	Humedad	68
133	7	Sololá	701	Sololá	3	Barraneche	1	Enero	2023-01-01T00:00:00	2024-11-06T16:00:00	6	Velocidad del viento	14.5
134	7	Sololá	701	Sololá	3	Barraneche	1	Enero	2023-01-01T00:00:00	2024-11-06T16:00:00	7	Dirección del viento	14.48
135	7	Sololá	701	Sololá	3	Barraneche	1	Enero	2023-01-01T00:00:00	2024-11-06T16:00:00	1	Precipitación	0
136	7	Sololá	701	Sololá	3	Barraneche	1	Enero	2023-01-01T00:00:00	2024-11-06T16:00:00	8	Radiación solar	393
137	7	Sololá	701	Sololá	3	Barraneche	1	Enero	2023-01-01T00:00:00	2024-11-06T17:00:00	2	Temperatura media	15.6
138	7	Sololá	701	Sololá	3	Barraneche	1	Enero	2023-01-01T00:00:00	2024-11-06T17:00:00	4	Temperatura máxima	16.4
139	7	Sololá	701	Sololá	3	Barraneche	1	Enero	2023-01-01T00:00:00	2024-11-06T17:00:00	3	Temperatura mínima	15.4
140	7	Sololá	701	Sololá	3	Barraneche	1	Enero	2023-01-01T00:00:00	2024-11-06T17:00:00	5	Humedad	70
141	7	Sololá	701	Sololá	3	Barraneche	1	Enero	2023-01-01T00:00:00	2024-11-06T17:00:00	6	Velocidad del viento	11.3
142	7	Sololá	701	Sololá	3	Barraneche	1	Enero	2023-01-01T00:00:00	2024-11-06T17:00:00	7	Dirección del viento	11.27
143	7	Sololá	701	Sololá	3	Barraneche	1	Enero	2023-01-01T00:00:00	2024-11-06T17:00:00	1	Precipitación	0
144	7	Sololá	701	Sololá	3	Barraneche	1	Enero	2023-01-01T00:00:00	2024-11-06T17:00:00	8	Radiación solar	161
145	7	Sololá	701	Sololá	3	Barraneche	1	Enero	2023-01-01T00:00:00	2024-11-06T18:00:00	2	Temperatura media	14.4
146	7	Sololá	701	Sololá	3	Barraneche	1	Enero	2023-01-01T00:00:00	2024-11-06T18:00:00	4	Temperatura máxima	15.7
147	7	Sololá	701	Sololá	3	Barraneche	1	Enero	2023-01-01T00:00:00	2024-11-06T18:00:00	3	Temperatura mínima	14.4
148	7	Sololá	701	Sololá	3	Barraneche	1	Enero	2023-01-01T00:00:00	2024-11-06T18:00:00	5	Humedad	71
149	7	Sololá	701	Sololá	3	Barraneche	1	Enero	2023-01-01T00:00:00	2024-11-06T18:00:00	6	Velocidad del viento	6.4
150	7	Sololá	701	Sololá	3	Barraneche	1	Enero	2023-01-01T00:00:00	2024-11-06T18:00:00	7	Dirección del viento	6.44
151	7	Sololá	701	Sololá	3	Barraneche	1	Enero	2023-01-01T00:00:00	2024-11-06T18:00:00	1	Precipitación	0
152	7	Sololá	701	Sololá	3	Barraneche	1	Enero	2023-01-01T00:00:00	2024-11-06T18:00:00	8	Radiación solar	27
153	7	Sololá	701	Sololá	3	Barraneche	1	Enero	2023-01-01T00:00:00	2024-11-06T19:00:00	2	Temperatura media	13.2
154	7	Sololá	701	Sololá	3	Barraneche	1	Enero	2023-01-01T00:00:00	2024-11-06T19:00:00	4	Temperatura máxima	14.4
155	7	Sololá	701	Sololá	3	Barraneche	1	Enero	2023-01-01T00:00:00	2024-11-06T19:00:00	3	Temperatura mínima	13.1
156	7	Sololá	701	Sololá	3	Barraneche	1	Enero	2023-01-01T00:00:00	2024-11-06T19:00:00	5	Humedad	66
157	7	Sololá	701	Sololá	3	Barraneche	1	Enero	2023-01-01T00:00:00	2024-11-06T19:00:00	6	Velocidad del viento	3.2
158	7	Sololá	701	Sololá	3	Barraneche	1	Enero	2023-01-01T00:00:00	2024-11-06T19:00:00	7	Dirección del viento	3.22
159	7	Sololá	701	Sololá	3	Barraneche	1	Enero	2023-01-01T00:00:00	2024-11-06T19:00:00	1	Precipitación	0
160	7	Sololá	701	Sololá	3	Barraneche	1	Enero	2023-01-01T00:00:00	2024-11-06T19:00:00	8	Radiación solar	0
161	7	Sololá	701	Sololá	3	Barraneche	1	Enero	2023-01-01T00:00:00	2024-11-06T20:00:00	2	Temperatura media	13.2
162	7	Sololá	701	Sololá	3	Barraneche	1	Enero	2023-01-01T00:00:00	2024-11-06T20:00:00	4	Temperatura máxima	13.3
163	7	Sololá	701	Sololá	3	Barraneche	1	Enero	2023-01-01T00:00:00	2024-11-06T20:00:00	3	Temperatura mínima	13.1
164	7	Sololá	701	Sololá	3	Barraneche	1	Enero	2023-01-01T00:00:00	2024-11-06T20:00:00	5	Humedad	64
165	7	Sololá	701	Sololá	3	Barraneche	1	Enero	2023-01-01T00:00:00	2024-11-06T20:00:00	6	Velocidad del viento	3.2
166	7	Sololá	701	Sololá	3	Barraneche	1	Enero	2023-01-01T00:00:00	2024-11-06T20:00:00	7	Dirección del viento	3.22
167	7	Sololá	701	Sololá	3	Barraneche	1	Enero	2023-01-01T00:00:00	2024-11-06T20:00:00	1	Precipitación	0
168	7	Sololá	701	Sololá	3	Barraneche	1	Enero	2023-01-01T00:00:00	2024-11-06T20:00:00	8	Radiación solar	0
169	7	Sololá	701	Sololá	3	Barraneche	1	Enero	2023-01-01T00:00:00	2024-11-06T21:00:00	2	Temperatura media	12.5
170	7	Sololá	701	Sololá	3	Barraneche	1	Enero	2023-01-01T00:00:00	2024-11-06T21:00:00	4	Temperatura máxima	13.6
171	7	Sololá	701	Sololá	3	Barraneche	1	Enero	2023-01-01T00:00:00	2024-11-06T21:00:00	3	Temperatura mínima	12.4
172	7	Sololá	701	Sololá	3	Barraneche	1	Enero	2023-01-01T00:00:00	2024-11-06T21:00:00	5	Humedad	64
173	7	Sololá	701	Sololá	3	Barraneche	1	Enero	2023-01-01T00:00:00	2024-11-06T21:00:00	6	Velocidad del viento	3.2
174	7	Sololá	701	Sololá	3	Barraneche	1	Enero	2023-01-01T00:00:00	2024-11-06T21:00:00	7	Dirección del viento	3.22
175	7	Sololá	701	Sololá	3	Barraneche	1	Enero	2023-01-01T00:00:00	2024-11-06T21:00:00	1	Precipitación	0
176	7	Sololá	701	Sololá	3	Barraneche	1	Enero	2023-01-01T00:00:00	2024-11-06T21:00:00	8	Radiación solar	0
177	7	Sololá	701	Sololá	3	Barraneche	1	Enero	2023-01-01T00:00:00	2024-11-06T22:00:00	2	Temperatura media	9.9
178	7	Sololá	701	Sololá	3	Barraneche	1	Enero	2023-01-01T00:00:00	2024-11-06T22:00:00	4	Temperatura máxima	12.5
179	7	Sololá	701	Sololá	3	Barraneche	1	Enero	2023-01-01T00:00:00	2024-11-06T22:00:00	3	Temperatura mínima	9.8
180	7	Sololá	701	Sololá	3	Barraneche	1	Enero	2023-01-01T00:00:00	2024-11-06T22:00:00	5	Humedad	67
181	7	Sololá	701	Sololá	3	Barraneche	1	Enero	2023-01-01T00:00:00	2024-11-06T22:00:00	6	Velocidad del viento	3.2
182	7	Sololá	701	Sololá	3	Barraneche	1	Enero	2023-01-01T00:00:00	2024-11-06T22:00:00	7	Dirección del viento	3.22
183	7	Sololá	701	Sololá	3	Barraneche	1	Enero	2023-01-01T00:00:00	2024-11-06T22:00:00	1	Precipitación	0
184	7	Sololá	701	Sololá	3	Barraneche	1	Enero	2023-01-01T00:00:00	2024-11-06T22:00:00	8	Radiación solar	0
185	7	Sololá	701	Sololá	3	Barraneche	1	Enero	2023-01-01T00:00:00	2024-11-06T23:00:00	2	Temperatura media	9.4
186	7	Sololá	701	Sololá	3	Barraneche	1	Enero	2023-01-01T00:00:00	2024-11-06T23:00:00	4	Temperatura máxima	10.1
187	7	Sololá	701	Sololá	3	Barraneche	1	Enero	2023-01-01T00:00:00	2024-11-06T23:00:00	3	Temperatura mínima	9.2
188	7	Sololá	701	Sololá	3	Barraneche	1	Enero	2023-01-01T00:00:00	2024-11-06T23:00:00	5	Humedad	68
189	7	Sololá	701	Sololá	3	Barraneche	1	Enero	2023-01-01T00:00:00	2024-11-06T23:00:00	6	Velocidad del viento	4.8
190	7	Sololá	701	Sololá	3	Barraneche	1	Enero	2023-01-01T00:00:00	2024-11-06T23:00:00	7	Dirección del viento	4.83
191	7	Sololá	701	Sololá	3	Barraneche	1	Enero	2023-01-01T00:00:00	2024-11-06T23:00:00	1	Precipitación	0
192	7	Sololá	701	Sololá	3	Barraneche	1	Enero	2023-01-01T00:00:00	2024-11-06T23:00:00	8	Radiación solar	0
193	7	Sololá	701	Sololá	3	Barraneche	1	Enero	2023-02-01T00:00:00	2024-11-06T00:00:00	2	Temperatura media	8.8
194	7	Sololá	701	Sololá	3	Barraneche	1	Enero	2023-02-01T00:00:00	2024-11-06T00:00:00	4	Temperatura máxima	9.6
195	7	Sololá	701	Sololá	3	Barraneche	1	Enero	2023-02-01T00:00:00	2024-11-06T00:00:00	3	Temperatura mínima	8.8
196	7	Sololá	701	Sololá	3	Barraneche	1	Enero	2023-02-01T00:00:00	2024-11-06T00:00:00	5	Humedad	68
197	7	Sololá	701	Sololá	3	Barraneche	1	Enero	2023-02-01T00:00:00	2024-11-06T00:00:00	6	Velocidad del viento	4.8
198	7	Sololá	701	Sololá	3	Barraneche	1	Enero	2023-02-01T00:00:00	2024-11-06T00:00:00	7	Dirección del viento	4.83
199	7	Sololá	701	Sololá	3	Barraneche	1	Enero	2023-02-01T00:00:00	2024-11-06T00:00:00	1	Precipitación	0
200	7	Sololá	701	Sololá	3	Barraneche	1	Enero	2023-02-01T00:00:00	2024-11-06T00:00:00	8	Radiación solar	0
201	7	Sololá	701	Sololá	3	Barraneche	1	Enero	2023-02-01T00:00:00	2024-11-06T01:00:00	2	Temperatura media	8.6
202	7	Sololá	701	Sololá	3	Barraneche	1	Enero	2023-02-01T00:00:00	2024-11-06T01:00:00	4	Temperatura máxima	9.1
203	7	Sololá	701	Sololá	3	Barraneche	1	Enero	2023-02-01T00:00:00	2024-11-06T01:00:00	3	Temperatura mínima	8.6
204	7	Sololá	701	Sololá	3	Barraneche	1	Enero	2023-02-01T00:00:00	2024-11-06T01:00:00	5	Humedad	69
205	7	Sololá	701	Sololá	3	Barraneche	1	Enero	2023-02-01T00:00:00	2024-11-06T01:00:00	6	Velocidad del viento	6.4
206	7	Sololá	701	Sololá	3	Barraneche	1	Enero	2023-02-01T00:00:00	2024-11-06T01:00:00	7	Dirección del viento	6.44
207	7	Sololá	701	Sololá	3	Barraneche	1	Enero	2023-02-01T00:00:00	2024-11-06T01:00:00	1	Precipitación	0
208	7	Sololá	701	Sololá	3	Barraneche	1	Enero	2023-02-01T00:00:00	2024-11-06T01:00:00	8	Radiación solar	0
209	7	Sololá	701	Sololá	3	Barraneche	1	Enero	2023-02-01T00:00:00	2024-11-06T02:00:00	2	Temperatura media	9
210	7	Sololá	701	Sololá	3	Barraneche	1	Enero	2023-02-01T00:00:00	2024-11-06T02:00:00	4	Temperatura máxima	9
211	7	Sololá	701	Sololá	3	Barraneche	1	Enero	2023-02-01T00:00:00	2024-11-06T02:00:00	3	Temperatura mínima	8.6
212	7	Sololá	701	Sololá	3	Barraneche	1	Enero	2023-02-01T00:00:00	2024-11-06T02:00:00	5	Humedad	69
213	7	Sololá	701	Sololá	3	Barraneche	1	Enero	2023-02-01T00:00:00	2024-11-06T02:00:00	6	Velocidad del viento	6.4
214	7	Sololá	701	Sololá	3	Barraneche	1	Enero	2023-02-01T00:00:00	2024-11-06T02:00:00	7	Dirección del viento	6.44
215	7	Sololá	701	Sololá	3	Barraneche	1	Enero	2023-02-01T00:00:00	2024-11-06T02:00:00	1	Precipitación	0
216	7	Sololá	701	Sololá	3	Barraneche	1	Enero	2023-02-01T00:00:00	2024-11-06T02:00:00	8	Radiación solar	0
217	7	Sololá	701	Sololá	3	Barraneche	1	Enero	2023-02-01T00:00:00	2024-11-06T03:00:00	2	Temperatura media	9
218	7	Sololá	701	Sololá	3	Barraneche	1	Enero	2023-02-01T00:00:00	2024-11-06T03:00:00	4	Temperatura máxima	9.8
219	7	Sololá	701	Sololá	3	Barraneche	1	Enero	2023-02-01T00:00:00	2024-11-06T03:00:00	3	Temperatura mínima	8.9
220	7	Sololá	701	Sololá	3	Barraneche	1	Enero	2023-02-01T00:00:00	2024-11-06T03:00:00	5	Humedad	68
221	7	Sololá	701	Sololá	3	Barraneche	1	Enero	2023-02-01T00:00:00	2024-11-06T03:00:00	6	Velocidad del viento	8
222	7	Sololá	701	Sololá	3	Barraneche	1	Enero	2023-02-01T00:00:00	2024-11-06T03:00:00	7	Dirección del viento	8.05
223	7	Sololá	701	Sololá	3	Barraneche	1	Enero	2023-02-01T00:00:00	2024-11-06T03:00:00	1	Precipitación	0
224	7	Sololá	701	Sololá	3	Barraneche	1	Enero	2023-02-01T00:00:00	2024-11-06T03:00:00	8	Radiación solar	0
225	7	Sololá	701	Sololá	3	Barraneche	1	Enero	2023-02-01T00:00:00	2024-11-06T04:00:00	2	Temperatura media	9.2
226	7	Sololá	701	Sololá	3	Barraneche	1	Enero	2023-02-01T00:00:00	2024-11-06T04:00:00	4	Temperatura máxima	9.2
227	7	Sololá	701	Sololá	3	Barraneche	1	Enero	2023-02-01T00:00:00	2024-11-06T04:00:00	3	Temperatura mínima	8.8
228	7	Sololá	701	Sololá	3	Barraneche	1	Enero	2023-02-01T00:00:00	2024-11-06T04:00:00	5	Humedad	68
229	7	Sololá	701	Sololá	3	Barraneche	1	Enero	2023-02-01T00:00:00	2024-11-06T04:00:00	6	Velocidad del viento	8
230	7	Sololá	701	Sololá	3	Barraneche	1	Enero	2023-02-01T00:00:00	2024-11-06T04:00:00	7	Dirección del viento	8.05
231	7	Sololá	701	Sololá	3	Barraneche	1	Enero	2023-02-01T00:00:00	2024-11-06T04:00:00	1	Precipitación	0
232	7	Sololá	701	Sololá	3	Barraneche	1	Enero	2023-02-01T00:00:00	2024-11-06T04:00:00	8	Radiación solar	0
233	7	Sololá	701	Sololá	3	Barraneche	1	Enero	2023-02-01T00:00:00	2024-11-06T05:00:00	2	Temperatura media	9
234	7	Sololá	701	Sololá	3	Barraneche	1	Enero	2023-02-01T00:00:00	2024-11-06T05:00:00	4	Temperatura máxima	9.3
235	7	Sololá	701	Sololá	3	Barraneche	1	Enero	2023-02-01T00:00:00	2024-11-06T05:00:00	3	Temperatura mínima	9
236	7	Sololá	701	Sololá	3	Barraneche	1	Enero	2023-02-01T00:00:00	2024-11-06T05:00:00	5	Humedad	68
237	7	Sololá	701	Sololá	3	Barraneche	1	Enero	2023-02-01T00:00:00	2024-11-06T05:00:00	6	Velocidad del viento	9.7
238	7	Sololá	701	Sololá	3	Barraneche	1	Enero	2023-02-01T00:00:00	2024-11-06T05:00:00	7	Dirección del viento	9.66
239	7	Sololá	701	Sololá	3	Barraneche	1	Enero	2023-02-01T00:00:00	2024-11-06T05:00:00	1	Precipitación	0
240	7	Sololá	701	Sololá	3	Barraneche	1	Enero	2023-02-01T00:00:00	2024-11-06T05:00:00	8	Radiación solar	0
241	7	Sololá	701	Sololá	3	Barraneche	1	Enero	2023-02-01T00:00:00	2024-11-06T06:00:00	2	Temperatura media	9.2
242	7	Sololá	701	Sololá	3	Barraneche	1	Enero	2023-02-01T00:00:00	2024-11-06T06:00:00	4	Temperatura máxima	9.2
243	7	Sololá	701	Sololá	3	Barraneche	1	Enero	2023-02-01T00:00:00	2024-11-06T06:00:00	3	Temperatura mínima	8.5
244	7	Sololá	701	Sololá	3	Barraneche	1	Enero	2023-02-01T00:00:00	2024-11-06T06:00:00	5	Humedad	67
245	7	Sololá	701	Sololá	3	Barraneche	1	Enero	2023-02-01T00:00:00	2024-11-06T06:00:00	6	Velocidad del viento	8
246	7	Sololá	701	Sololá	3	Barraneche	1	Enero	2023-02-01T00:00:00	2024-11-06T06:00:00	7	Dirección del viento	8.05
247	7	Sololá	701	Sololá	3	Barraneche	1	Enero	2023-02-01T00:00:00	2024-11-06T06:00:00	1	Precipitación	0
248	7	Sololá	701	Sololá	3	Barraneche	1	Enero	2023-02-01T00:00:00	2024-11-06T06:00:00	8	Radiación solar	0
249	7	Sololá	701	Sololá	3	Barraneche	1	Enero	2023-02-01T00:00:00	2024-11-06T07:00:00	2	Temperatura media	8.9
250	7	Sololá	701	Sololá	3	Barraneche	1	Enero	2023-02-01T00:00:00	2024-11-06T07:00:00	4	Temperatura máxima	9.3
251	7	Sololá	701	Sololá	3	Barraneche	1	Enero	2023-02-01T00:00:00	2024-11-06T07:00:00	3	Temperatura mínima	8.6
252	7	Sololá	701	Sololá	3	Barraneche	1	Enero	2023-02-01T00:00:00	2024-11-06T07:00:00	5	Humedad	66
253	7	Sololá	701	Sololá	3	Barraneche	1	Enero	2023-02-01T00:00:00	2024-11-06T07:00:00	6	Velocidad del viento	8
254	7	Sololá	701	Sololá	3	Barraneche	1	Enero	2023-02-01T00:00:00	2024-11-06T07:00:00	7	Dirección del viento	8.05
255	7	Sololá	701	Sololá	3	Barraneche	1	Enero	2023-02-01T00:00:00	2024-11-06T07:00:00	1	Precipitación	0
256	7	Sololá	701	Sololá	3	Barraneche	1	Enero	2023-02-01T00:00:00	2024-11-06T07:00:00	8	Radiación solar	7
257	7	Sololá	701	Sololá	3	Barraneche	1	Enero	2023-02-01T00:00:00	2024-11-06T08:00:00	2	Temperatura media	12.7
258	7	Sololá	701	Sololá	3	Barraneche	1	Enero	2023-02-01T00:00:00	2024-11-06T08:00:00	4	Temperatura máxima	12.7
259	7	Sololá	701	Sololá	3	Barraneche	1	Enero	2023-02-01T00:00:00	2024-11-06T08:00:00	3	Temperatura mínima	8.8
260	7	Sololá	701	Sololá	3	Barraneche	1	Enero	2023-02-01T00:00:00	2024-11-06T08:00:00	5	Humedad	61
261	7	Sololá	701	Sololá	3	Barraneche	1	Enero	2023-02-01T00:00:00	2024-11-06T08:00:00	6	Velocidad del viento	6.4
262	7	Sololá	701	Sololá	3	Barraneche	1	Enero	2023-02-01T00:00:00	2024-11-06T08:00:00	7	Dirección del viento	6.44
263	7	Sololá	701	Sololá	3	Barraneche	1	Enero	2023-02-01T00:00:00	2024-11-06T08:00:00	1	Precipitación	0
264	7	Sololá	701	Sololá	3	Barraneche	1	Enero	2023-02-01T00:00:00	2024-11-06T08:00:00	8	Radiación solar	169
265	7	Sololá	701	Sololá	3	Barraneche	1	Enero	2023-02-01T00:00:00	2024-11-06T09:00:00	2	Temperatura media	16.1
266	7	Sololá	701	Sololá	3	Barraneche	1	Enero	2023-02-01T00:00:00	2024-11-06T09:00:00	4	Temperatura máxima	16.1
267	7	Sololá	701	Sololá	3	Barraneche	1	Enero	2023-02-01T00:00:00	2024-11-06T09:00:00	3	Temperatura mínima	12.7
268	7	Sololá	701	Sololá	3	Barraneche	1	Enero	2023-02-01T00:00:00	2024-11-06T09:00:00	5	Humedad	50
269	7	Sololá	701	Sololá	3	Barraneche	1	Enero	2023-02-01T00:00:00	2024-11-06T09:00:00	6	Velocidad del viento	4.8
270	7	Sololá	701	Sololá	3	Barraneche	1	Enero	2023-02-01T00:00:00	2024-11-06T09:00:00	7	Dirección del viento	4.83
271	7	Sololá	701	Sololá	3	Barraneche	1	Enero	2023-02-01T00:00:00	2024-11-06T09:00:00	1	Precipitación	0
272	7	Sololá	701	Sololá	3	Barraneche	1	Enero	2023-02-01T00:00:00	2024-11-06T09:00:00	8	Radiación solar	452
273	7	Sololá	701	Sololá	3	Barraneche	1	Enero	2023-02-01T00:00:00	2024-11-06T10:00:00	2	Temperatura media	15.6
274	7	Sololá	701	Sololá	3	Barraneche	1	Enero	2023-02-01T00:00:00	2024-11-06T10:00:00	4	Temperatura máxima	16.1
275	7	Sololá	701	Sololá	3	Barraneche	1	Enero	2023-02-01T00:00:00	2024-11-06T10:00:00	3	Temperatura mínima	15.3
276	7	Sololá	701	Sololá	3	Barraneche	1	Enero	2023-02-01T00:00:00	2024-11-06T10:00:00	5	Humedad	57
277	7	Sololá	701	Sololá	3	Barraneche	1	Enero	2023-02-01T00:00:00	2024-11-06T10:00:00	6	Velocidad del viento	11.3
278	7	Sololá	701	Sololá	3	Barraneche	1	Enero	2023-02-01T00:00:00	2024-11-06T10:00:00	7	Dirección del viento	11.27
279	7	Sololá	701	Sololá	3	Barraneche	1	Enero	2023-02-01T00:00:00	2024-11-06T10:00:00	1	Precipitación	0
280	7	Sololá	701	Sololá	3	Barraneche	1	Enero	2023-02-01T00:00:00	2024-11-06T10:00:00	8	Radiación solar	537
281	7	Sololá	701	Sololá	3	Barraneche	1	Enero	2023-02-01T00:00:00	2024-11-06T11:00:00	2	Temperatura media	15.8
282	7	Sololá	701	Sololá	3	Barraneche	1	Enero	2023-02-01T00:00:00	2024-11-06T11:00:00	4	Temperatura máxima	15.8
283	7	Sololá	701	Sololá	3	Barraneche	1	Enero	2023-02-01T00:00:00	2024-11-06T11:00:00	3	Temperatura mínima	15.2
284	7	Sololá	701	Sololá	3	Barraneche	1	Enero	2023-02-01T00:00:00	2024-11-06T11:00:00	5	Humedad	56
285	7	Sololá	701	Sololá	3	Barraneche	1	Enero	2023-02-01T00:00:00	2024-11-06T11:00:00	6	Velocidad del viento	8
286	7	Sololá	701	Sololá	3	Barraneche	1	Enero	2023-02-01T00:00:00	2024-11-06T11:00:00	7	Dirección del viento	8.05
287	7	Sololá	701	Sololá	3	Barraneche	1	Enero	2023-02-01T00:00:00	2024-11-06T11:00:00	1	Precipitación	0
288	7	Sololá	701	Sololá	3	Barraneche	1	Enero	2023-02-01T00:00:00	2024-11-06T11:00:00	8	Radiación solar	405
289	7	Sololá	701	Sololá	3	Barraneche	1	Enero	2023-02-01T00:00:00	2024-11-06T12:00:00	2	Temperatura media	17.7
290	7	Sololá	701	Sololá	3	Barraneche	1	Enero	2023-02-01T00:00:00	2024-11-06T12:00:00	4	Temperatura máxima	17.7
291	7	Sololá	701	Sololá	3	Barraneche	1	Enero	2023-02-01T00:00:00	2024-11-06T12:00:00	3	Temperatura mínima	15.8
292	7	Sololá	701	Sololá	3	Barraneche	1	Enero	2023-02-01T00:00:00	2024-11-06T12:00:00	5	Humedad	42
293	7	Sololá	701	Sololá	3	Barraneche	1	Enero	2023-02-01T00:00:00	2024-11-06T12:00:00	6	Velocidad del viento	6.4
294	7	Sololá	701	Sololá	3	Barraneche	1	Enero	2023-02-01T00:00:00	2024-11-06T12:00:00	7	Dirección del viento	6.44
295	7	Sololá	701	Sololá	3	Barraneche	1	Enero	2023-02-01T00:00:00	2024-11-06T12:00:00	1	Precipitación	0
296	7	Sololá	701	Sololá	3	Barraneche	1	Enero	2023-02-01T00:00:00	2024-11-06T12:00:00	8	Radiación solar	492
297	7	Sololá	701	Sololá	3	Barraneche	1	Enero	2023-02-01T00:00:00	2024-11-06T13:00:00	2	Temperatura media	17.4
298	7	Sololá	701	Sololá	3	Barraneche	1	Enero	2023-02-01T00:00:00	2024-11-06T13:00:00	4	Temperatura máxima	18.2
299	7	Sololá	701	Sololá	3	Barraneche	1	Enero	2023-02-01T00:00:00	2024-11-06T13:00:00	3	Temperatura mínima	17.1
300	7	Sololá	701	Sololá	3	Barraneche	1	Enero	2023-02-01T00:00:00	2024-11-06T13:00:00	5	Humedad	55
301	7	Sololá	701	Sololá	3	Barraneche	1	Enero	2023-02-01T00:00:00	2024-11-06T13:00:00	6	Velocidad del viento	14.5
302	7	Sololá	701	Sololá	3	Barraneche	1	Enero	2023-02-01T00:00:00	2024-11-06T13:00:00	7	Dirección del viento	14.48
303	7	Sololá	701	Sololá	3	Barraneche	1	Enero	2023-02-01T00:00:00	2024-11-06T13:00:00	1	Precipitación	0
304	7	Sololá	701	Sololá	3	Barraneche	1	Enero	2023-02-01T00:00:00	2024-11-06T13:00:00	8	Radiación solar	766
305	7	Sololá	701	Sololá	3	Barraneche	1	Enero	2023-02-01T00:00:00	2024-11-06T14:00:00	2	Temperatura media	17.2
306	7	Sololá	701	Sololá	3	Barraneche	1	Enero	2023-02-01T00:00:00	2024-11-06T14:00:00	4	Temperatura máxima	17.9
307	7	Sololá	701	Sololá	3	Barraneche	1	Enero	2023-02-01T00:00:00	2024-11-06T14:00:00	3	Temperatura mínima	17.2
308	7	Sololá	701	Sololá	3	Barraneche	1	Enero	2023-02-01T00:00:00	2024-11-06T14:00:00	5	Humedad	60
309	7	Sololá	701	Sololá	3	Barraneche	1	Enero	2023-02-01T00:00:00	2024-11-06T14:00:00	6	Velocidad del viento	14.5
310	7	Sololá	701	Sololá	3	Barraneche	1	Enero	2023-02-01T00:00:00	2024-11-06T14:00:00	7	Dirección del viento	14.48
311	7	Sololá	701	Sololá	3	Barraneche	1	Enero	2023-02-01T00:00:00	2024-11-06T14:00:00	1	Precipitación	0
312	7	Sololá	701	Sololá	3	Barraneche	1	Enero	2023-02-01T00:00:00	2024-11-06T14:00:00	8	Radiación solar	753
313	7	Sololá	701	Sololá	3	Barraneche	1	Enero	2023-02-01T00:00:00	2024-11-06T15:00:00	2	Temperatura media	16.7
314	7	Sololá	701	Sololá	3	Barraneche	1	Enero	2023-02-01T00:00:00	2024-11-06T15:00:00	4	Temperatura máxima	17.2
315	7	Sololá	701	Sololá	3	Barraneche	1	Enero	2023-02-01T00:00:00	2024-11-06T15:00:00	3	Temperatura mínima	16.4
316	7	Sololá	701	Sololá	3	Barraneche	1	Enero	2023-02-01T00:00:00	2024-11-06T15:00:00	5	Humedad	63
317	7	Sololá	701	Sololá	3	Barraneche	1	Enero	2023-02-01T00:00:00	2024-11-06T15:00:00	6	Velocidad del viento	16.1
318	7	Sololá	701	Sololá	3	Barraneche	1	Enero	2023-02-01T00:00:00	2024-11-06T15:00:00	7	Dirección del viento	16.09
319	7	Sololá	701	Sololá	3	Barraneche	1	Enero	2023-02-01T00:00:00	2024-11-06T15:00:00	1	Precipitación	0
320	7	Sololá	701	Sololá	3	Barraneche	1	Enero	2023-02-01T00:00:00	2024-11-06T15:00:00	8	Radiación solar	636
321	7	Sololá	701	Sololá	3	Barraneche	1	Enero	2023-02-01T00:00:00	2024-11-06T16:00:00	2	Temperatura media	15.8
322	7	Sololá	701	Sololá	3	Barraneche	1	Enero	2023-02-01T00:00:00	2024-11-06T16:00:00	4	Temperatura máxima	16.7
323	7	Sololá	701	Sololá	3	Barraneche	1	Enero	2023-02-01T00:00:00	2024-11-06T16:00:00	3	Temperatura mínima	15.7
324	7	Sololá	701	Sololá	3	Barraneche	1	Enero	2023-02-01T00:00:00	2024-11-06T16:00:00	5	Humedad	67
325	7	Sololá	701	Sololá	3	Barraneche	1	Enero	2023-02-01T00:00:00	2024-11-06T16:00:00	6	Velocidad del viento	14.5
326	7	Sololá	701	Sololá	3	Barraneche	1	Enero	2023-02-01T00:00:00	2024-11-06T16:00:00	7	Dirección del viento	14.48
327	7	Sololá	701	Sololá	3	Barraneche	1	Enero	2023-02-01T00:00:00	2024-11-06T16:00:00	1	Precipitación	0
328	7	Sololá	701	Sololá	3	Barraneche	1	Enero	2023-02-01T00:00:00	2024-11-06T16:00:00	8	Radiación solar	471
329	7	Sololá	701	Sololá	3	Barraneche	1	Enero	2023-02-01T00:00:00	2024-11-06T17:00:00	2	Temperatura media	14.2
330	7	Sololá	701	Sololá	3	Barraneche	1	Enero	2023-02-01T00:00:00	2024-11-06T17:00:00	4	Temperatura máxima	15.8
331	7	Sololá	701	Sololá	3	Barraneche	1	Enero	2023-02-01T00:00:00	2024-11-06T17:00:00	3	Temperatura mínima	14.2
332	7	Sololá	701	Sololá	3	Barraneche	1	Enero	2023-02-01T00:00:00	2024-11-06T17:00:00	5	Humedad	73
333	7	Sololá	701	Sololá	3	Barraneche	1	Enero	2023-02-01T00:00:00	2024-11-06T17:00:00	6	Velocidad del viento	8
334	7	Sololá	701	Sololá	3	Barraneche	1	Enero	2023-02-01T00:00:00	2024-11-06T17:00:00	7	Dirección del viento	8.05
335	7	Sololá	701	Sololá	3	Barraneche	1	Enero	2023-02-01T00:00:00	2024-11-06T17:00:00	1	Precipitación	0
336	7	Sololá	701	Sololá	3	Barraneche	1	Enero	2023-02-01T00:00:00	2024-11-06T17:00:00	8	Radiación solar	125
337	7	Sololá	701	Sololá	3	Barraneche	1	Enero	2023-02-01T00:00:00	2024-11-06T18:00:00	2	Temperatura media	13.4
338	7	Sololá	701	Sololá	3	Barraneche	1	Enero	2023-02-01T00:00:00	2024-11-06T18:00:00	4	Temperatura máxima	14.2
339	7	Sololá	701	Sololá	3	Barraneche	1	Enero	2023-02-01T00:00:00	2024-11-06T18:00:00	3	Temperatura mínima	13.4
340	7	Sololá	701	Sololá	3	Barraneche	1	Enero	2023-02-01T00:00:00	2024-11-06T18:00:00	5	Humedad	74
341	7	Sololá	701	Sololá	3	Barraneche	1	Enero	2023-02-01T00:00:00	2024-11-06T18:00:00	6	Velocidad del viento	4.8
342	7	Sololá	701	Sololá	3	Barraneche	1	Enero	2023-02-01T00:00:00	2024-11-06T18:00:00	7	Dirección del viento	4.83
343	7	Sololá	701	Sololá	3	Barraneche	1	Enero	2023-02-01T00:00:00	2024-11-06T18:00:00	1	Precipitación	0
344	7	Sololá	701	Sololá	3	Barraneche	1	Enero	2023-02-01T00:00:00	2024-11-06T18:00:00	8	Radiación solar	20
345	7	Sololá	701	Sololá	3	Barraneche	1	Enero	2023-02-01T00:00:00	2024-11-06T19:00:00	2	Temperatura media	10.8
346	7	Sololá	701	Sololá	3	Barraneche	1	Enero	2023-02-01T00:00:00	2024-11-06T19:00:00	4	Temperatura máxima	13.6
347	7	Sololá	701	Sololá	3	Barraneche	1	Enero	2023-02-01T00:00:00	2024-11-06T19:00:00	3	Temperatura mínima	10.8
348	7	Sololá	701	Sololá	3	Barraneche	1	Enero	2023-02-01T00:00:00	2024-11-06T19:00:00	5	Humedad	68
349	7	Sololá	701	Sololá	3	Barraneche	1	Enero	2023-02-01T00:00:00	2024-11-06T19:00:00	6	Velocidad del viento	3.2
350	7	Sololá	701	Sololá	3	Barraneche	1	Enero	2023-02-01T00:00:00	2024-11-06T19:00:00	7	Dirección del viento	3.22
351	7	Sololá	701	Sololá	3	Barraneche	1	Enero	2023-02-01T00:00:00	2024-11-06T19:00:00	1	Precipitación	0
352	7	Sololá	701	Sololá	3	Barraneche	1	Enero	2023-02-01T00:00:00	2024-11-06T19:00:00	8	Radiación solar	0
353	7	Sololá	701	Sololá	3	Barraneche	1	Enero	2023-02-01T00:00:00	2024-11-06T20:00:00	2	Temperatura media	10
354	7	Sololá	701	Sololá	3	Barraneche	1	Enero	2023-02-01T00:00:00	2024-11-06T20:00:00	4	Temperatura máxima	10.8
355	7	Sololá	701	Sololá	3	Barraneche	1	Enero	2023-02-01T00:00:00	2024-11-06T20:00:00	3	Temperatura mínima	9.9
356	7	Sololá	701	Sololá	3	Barraneche	1	Enero	2023-02-01T00:00:00	2024-11-06T20:00:00	5	Humedad	67
357	7	Sololá	701	Sololá	3	Barraneche	1	Enero	2023-02-01T00:00:00	2024-11-06T20:00:00	6	Velocidad del viento	6.4
358	7	Sololá	701	Sololá	3	Barraneche	1	Enero	2023-02-01T00:00:00	2024-11-06T20:00:00	7	Dirección del viento	6.44
359	7	Sololá	701	Sololá	3	Barraneche	1	Enero	2023-02-01T00:00:00	2024-11-06T20:00:00	1	Precipitación	0
360	7	Sololá	701	Sololá	3	Barraneche	1	Enero	2023-02-01T00:00:00	2024-11-06T20:00:00	8	Radiación solar	0
361	7	Sololá	701	Sololá	3	Barraneche	1	Enero	2023-02-01T00:00:00	2024-11-06T21:00:00	2	Temperatura media	10
362	7	Sololá	701	Sololá	3	Barraneche	1	Enero	2023-02-01T00:00:00	2024-11-06T21:00:00	4	Temperatura máxima	10.3
363	7	Sololá	701	Sololá	3	Barraneche	1	Enero	2023-02-01T00:00:00	2024-11-06T21:00:00	3	Temperatura mínima	9.9
364	7	Sololá	701	Sololá	3	Barraneche	1	Enero	2023-02-01T00:00:00	2024-11-06T21:00:00	5	Humedad	67
365	7	Sololá	701	Sololá	3	Barraneche	1	Enero	2023-02-01T00:00:00	2024-11-06T21:00:00	6	Velocidad del viento	6.4
366	7	Sololá	701	Sololá	3	Barraneche	1	Enero	2023-02-01T00:00:00	2024-11-06T21:00:00	7	Dirección del viento	6.44
367	7	Sololá	701	Sololá	3	Barraneche	1	Enero	2023-02-01T00:00:00	2024-11-06T21:00:00	1	Precipitación	0
368	7	Sololá	701	Sololá	3	Barraneche	1	Enero	2023-02-01T00:00:00	2024-11-06T21:00:00	8	Radiación solar	0
369	7	Sololá	701	Sololá	3	Barraneche	1	Enero	2023-02-01T00:00:00	2024-11-06T22:00:00	2	Temperatura media	9.6
370	7	Sololá	701	Sololá	3	Barraneche	1	Enero	2023-02-01T00:00:00	2024-11-06T22:00:00	4	Temperatura máxima	10
371	7	Sololá	701	Sololá	3	Barraneche	1	Enero	2023-02-01T00:00:00	2024-11-06T22:00:00	3	Temperatura mínima	9.3
372	7	Sololá	701	Sololá	3	Barraneche	1	Enero	2023-02-01T00:00:00	2024-11-06T22:00:00	5	Humedad	62
373	7	Sololá	701	Sololá	3	Barraneche	1	Enero	2023-02-01T00:00:00	2024-11-06T22:00:00	6	Velocidad del viento	6.4
374	7	Sololá	701	Sololá	3	Barraneche	1	Enero	2023-02-01T00:00:00	2024-11-06T22:00:00	7	Dirección del viento	6.44
375	7	Sololá	701	Sololá	3	Barraneche	1	Enero	2023-02-01T00:00:00	2024-11-06T22:00:00	1	Precipitación	0
376	7	Sololá	701	Sololá	3	Barraneche	1	Enero	2023-02-01T00:00:00	2024-11-06T22:00:00	8	Radiación solar	0
377	7	Sololá	701	Sololá	3	Barraneche	1	Enero	2023-02-01T00:00:00	2024-11-06T23:00:00	2	Temperatura media	9
378	7	Sololá	701	Sololá	3	Barraneche	1	Enero	2023-02-01T00:00:00	2024-11-06T23:00:00	4	Temperatura máxima	9.7
379	7	Sololá	701	Sololá	3	Barraneche	1	Enero	2023-02-01T00:00:00	2024-11-06T23:00:00	3	Temperatura mínima	8.8
380	7	Sololá	701	Sololá	3	Barraneche	1	Enero	2023-02-01T00:00:00	2024-11-06T23:00:00	5	Humedad	60
381	7	Sololá	701	Sololá	3	Barraneche	1	Enero	2023-02-01T00:00:00	2024-11-06T23:00:00	6	Velocidad del viento	8
382	7	Sololá	701	Sololá	3	Barraneche	1	Enero	2023-02-01T00:00:00	2024-11-06T23:00:00	7	Dirección del viento	8.05
383	7	Sololá	701	Sololá	3	Barraneche	1	Enero	2023-02-01T00:00:00	2024-11-06T23:00:00	1	Precipitación	0
384	7	Sololá	701	Sololá	3	Barraneche	1	Enero	2023-02-01T00:00:00	2024-11-06T23:00:00	8	Radiación solar	0
385	7	Sololá	701	Sololá	3	Barraneche	1	Enero	2023-03-01T00:00:00	2024-11-06T00:00:00	2	Temperatura media	9.4
386	7	Sololá	701	Sololá	3	Barraneche	1	Enero	2023-03-01T00:00:00	2024-11-06T00:00:00	4	Temperatura máxima	9.7
387	7	Sololá	701	Sololá	3	Barraneche	1	Enero	2023-03-01T00:00:00	2024-11-06T00:00:00	3	Temperatura mínima	8.9
388	7	Sololá	701	Sololá	3	Barraneche	1	Enero	2023-03-01T00:00:00	2024-11-06T00:00:00	5	Humedad	62
389	7	Sololá	701	Sololá	3	Barraneche	1	Enero	2023-03-01T00:00:00	2024-11-06T00:00:00	6	Velocidad del viento	8
390	7	Sololá	701	Sololá	3	Barraneche	1	Enero	2023-03-01T00:00:00	2024-11-06T00:00:00	7	Dirección del viento	8.05
391	7	Sololá	701	Sololá	3	Barraneche	1	Enero	2023-03-01T00:00:00	2024-11-06T00:00:00	1	Precipitación	0
392	7	Sololá	701	Sololá	3	Barraneche	1	Enero	2023-03-01T00:00:00	2024-11-06T00:00:00	8	Radiación solar	0
393	7	Sololá	701	Sololá	3	Barraneche	1	Enero	2023-03-01T00:00:00	2024-11-06T01:00:00	2	Temperatura media	8.9
394	7	Sololá	701	Sololá	3	Barraneche	1	Enero	2023-03-01T00:00:00	2024-11-06T01:00:00	4	Temperatura máxima	9.4
395	7	Sololá	701	Sololá	3	Barraneche	1	Enero	2023-03-01T00:00:00	2024-11-06T01:00:00	3	Temperatura mínima	8.7
396	7	Sololá	701	Sololá	3	Barraneche	1	Enero	2023-03-01T00:00:00	2024-11-06T01:00:00	5	Humedad	65
397	7	Sololá	701	Sololá	3	Barraneche	1	Enero	2023-03-01T00:00:00	2024-11-06T01:00:00	6	Velocidad del viento	6.4
398	7	Sololá	701	Sololá	3	Barraneche	1	Enero	2023-03-01T00:00:00	2024-11-06T01:00:00	7	Dirección del viento	6.44
399	7	Sololá	701	Sololá	3	Barraneche	1	Enero	2023-03-01T00:00:00	2024-11-06T01:00:00	1	Precipitación	0
400	7	Sololá	701	Sololá	3	Barraneche	1	Enero	2023-03-01T00:00:00	2024-11-06T01:00:00	8	Radiación solar	0
401	7	Sololá	701	Sololá	3	Barraneche	1	Enero	2023-03-01T00:00:00	2024-11-06T02:00:00	2	Temperatura media	9.8
402	7	Sololá	701	Sololá	3	Barraneche	1	Enero	2023-03-01T00:00:00	2024-11-06T02:00:00	4	Temperatura máxima	10
403	7	Sololá	701	Sololá	3	Barraneche	1	Enero	2023-03-01T00:00:00	2024-11-06T02:00:00	3	Temperatura mínima	8.8
404	7	Sololá	701	Sololá	3	Barraneche	1	Enero	2023-03-01T00:00:00	2024-11-06T02:00:00	5	Humedad	61
405	7	Sololá	701	Sololá	3	Barraneche	1	Enero	2023-03-01T00:00:00	2024-11-06T02:00:00	6	Velocidad del viento	8
406	7	Sololá	701	Sololá	3	Barraneche	1	Enero	2023-03-01T00:00:00	2024-11-06T02:00:00	7	Dirección del viento	8.05
407	7	Sololá	701	Sololá	3	Barraneche	1	Enero	2023-03-01T00:00:00	2024-11-06T02:00:00	1	Precipitación	0
408	7	Sololá	701	Sololá	3	Barraneche	1	Enero	2023-03-01T00:00:00	2024-11-06T02:00:00	8	Radiación solar	0
409	7	Sololá	701	Sololá	3	Barraneche	1	Enero	2023-03-01T00:00:00	2024-11-06T03:00:00	2	Temperatura media	8.9
410	7	Sololá	701	Sololá	3	Barraneche	1	Enero	2023-03-01T00:00:00	2024-11-06T03:00:00	4	Temperatura máxima	9.8
411	7	Sololá	701	Sololá	3	Barraneche	1	Enero	2023-03-01T00:00:00	2024-11-06T03:00:00	3	Temperatura mínima	8.9
412	7	Sololá	701	Sololá	3	Barraneche	1	Enero	2023-03-01T00:00:00	2024-11-06T03:00:00	5	Humedad	64
413	7	Sololá	701	Sololá	3	Barraneche	1	Enero	2023-03-01T00:00:00	2024-11-06T03:00:00	6	Velocidad del viento	6.4
414	7	Sololá	701	Sololá	3	Barraneche	1	Enero	2023-03-01T00:00:00	2024-11-06T03:00:00	7	Dirección del viento	6.44
415	7	Sololá	701	Sololá	3	Barraneche	1	Enero	2023-03-01T00:00:00	2024-11-06T03:00:00	1	Precipitación	0
416	7	Sololá	701	Sololá	3	Barraneche	1	Enero	2023-03-01T00:00:00	2024-11-06T03:00:00	8	Radiación solar	0
417	7	Sololá	701	Sololá	3	Barraneche	1	Enero	2023-03-01T00:00:00	2024-11-06T04:00:00	2	Temperatura media	8.8
418	7	Sololá	701	Sololá	3	Barraneche	1	Enero	2023-03-01T00:00:00	2024-11-06T04:00:00	4	Temperatura máxima	9
419	7	Sololá	701	Sololá	3	Barraneche	1	Enero	2023-03-01T00:00:00	2024-11-06T04:00:00	3	Temperatura mínima	8.4
420	7	Sololá	701	Sololá	3	Barraneche	1	Enero	2023-03-01T00:00:00	2024-11-06T04:00:00	5	Humedad	64
421	7	Sololá	701	Sololá	3	Barraneche	1	Enero	2023-03-01T00:00:00	2024-11-06T04:00:00	6	Velocidad del viento	8
422	7	Sololá	701	Sololá	3	Barraneche	1	Enero	2023-03-01T00:00:00	2024-11-06T04:00:00	7	Dirección del viento	8.05
423	7	Sololá	701	Sololá	3	Barraneche	1	Enero	2023-03-01T00:00:00	2024-11-06T04:00:00	1	Precipitación	0
424	7	Sololá	701	Sololá	3	Barraneche	1	Enero	2023-03-01T00:00:00	2024-11-06T04:00:00	8	Radiación solar	0
425	7	Sololá	701	Sololá	3	Barraneche	1	Enero	2023-03-01T00:00:00	2024-11-06T05:00:00	2	Temperatura media	8.3
426	7	Sololá	701	Sololá	3	Barraneche	1	Enero	2023-03-01T00:00:00	2024-11-06T05:00:00	4	Temperatura máxima	9.1
427	7	Sololá	701	Sololá	3	Barraneche	1	Enero	2023-03-01T00:00:00	2024-11-06T05:00:00	3	Temperatura mínima	8.3
428	7	Sololá	701	Sololá	3	Barraneche	1	Enero	2023-03-01T00:00:00	2024-11-06T05:00:00	5	Humedad	63
429	7	Sololá	701	Sololá	3	Barraneche	1	Enero	2023-03-01T00:00:00	2024-11-06T05:00:00	6	Velocidad del viento	8
430	7	Sololá	701	Sololá	3	Barraneche	1	Enero	2023-03-01T00:00:00	2024-11-06T05:00:00	7	Dirección del viento	8.05
431	7	Sololá	701	Sololá	3	Barraneche	1	Enero	2023-03-01T00:00:00	2024-11-06T05:00:00	1	Precipitación	0
432	7	Sololá	701	Sololá	3	Barraneche	1	Enero	2023-03-01T00:00:00	2024-11-06T05:00:00	8	Radiación solar	0
433	7	Sololá	701	Sololá	3	Barraneche	1	Enero	2023-03-01T00:00:00	2024-11-06T06:00:00	2	Temperatura media	8
434	7	Sololá	701	Sololá	3	Barraneche	1	Enero	2023-03-01T00:00:00	2024-11-06T06:00:00	4	Temperatura máxima	8.6
435	7	Sololá	701	Sololá	3	Barraneche	1	Enero	2023-03-01T00:00:00	2024-11-06T06:00:00	3	Temperatura mínima	7.6
436	7	Sololá	701	Sololá	3	Barraneche	1	Enero	2023-03-01T00:00:00	2024-11-06T06:00:00	5	Humedad	64
437	7	Sololá	701	Sololá	3	Barraneche	1	Enero	2023-03-01T00:00:00	2024-11-06T06:00:00	6	Velocidad del viento	8
438	7	Sololá	701	Sololá	3	Barraneche	1	Enero	2023-03-01T00:00:00	2024-11-06T06:00:00	7	Dirección del viento	8.05
439	7	Sololá	701	Sololá	3	Barraneche	1	Enero	2023-03-01T00:00:00	2024-11-06T06:00:00	1	Precipitación	0
440	7	Sololá	701	Sololá	3	Barraneche	1	Enero	2023-03-01T00:00:00	2024-11-06T06:00:00	8	Radiación solar	0
441	7	Sololá	701	Sololá	3	Barraneche	1	Enero	2023-03-01T00:00:00	2024-11-06T07:00:00	2	Temperatura media	9.2
442	7	Sololá	701	Sololá	3	Barraneche	1	Enero	2023-03-01T00:00:00	2024-11-06T07:00:00	4	Temperatura máxima	9.4
443	7	Sololá	701	Sololá	3	Barraneche	1	Enero	2023-03-01T00:00:00	2024-11-06T07:00:00	3	Temperatura mínima	8
444	7	Sololá	701	Sololá	3	Barraneche	1	Enero	2023-03-01T00:00:00	2024-11-06T07:00:00	5	Humedad	64
445	7	Sololá	701	Sololá	3	Barraneche	1	Enero	2023-03-01T00:00:00	2024-11-06T07:00:00	6	Velocidad del viento	6.4
446	7	Sololá	701	Sololá	3	Barraneche	1	Enero	2023-03-01T00:00:00	2024-11-06T07:00:00	7	Dirección del viento	6.44
447	7	Sololá	701	Sololá	3	Barraneche	1	Enero	2023-03-01T00:00:00	2024-11-06T07:00:00	1	Precipitación	0
448	7	Sololá	701	Sololá	3	Barraneche	1	Enero	2023-03-01T00:00:00	2024-11-06T07:00:00	8	Radiación solar	7
449	7	Sololá	701	Sololá	3	Barraneche	1	Enero	2023-03-01T00:00:00	2024-11-06T08:00:00	2	Temperatura media	13.6
450	7	Sololá	701	Sololá	3	Barraneche	1	Enero	2023-03-01T00:00:00	2024-11-06T08:00:00	4	Temperatura máxima	13.6
451	7	Sololá	701	Sololá	3	Barraneche	1	Enero	2023-03-01T00:00:00	2024-11-06T08:00:00	3	Temperatura mínima	9.1
452	7	Sololá	701	Sololá	3	Barraneche	1	Enero	2023-03-01T00:00:00	2024-11-06T08:00:00	5	Humedad	56
453	7	Sololá	701	Sololá	3	Barraneche	1	Enero	2023-03-01T00:00:00	2024-11-06T08:00:00	6	Velocidad del viento	6.4
454	7	Sololá	701	Sololá	3	Barraneche	1	Enero	2023-03-01T00:00:00	2024-11-06T08:00:00	7	Dirección del viento	6.44
455	7	Sololá	701	Sololá	3	Barraneche	1	Enero	2023-03-01T00:00:00	2024-11-06T08:00:00	1	Precipitación	0
456	7	Sololá	701	Sololá	3	Barraneche	1	Enero	2023-03-01T00:00:00	2024-11-06T08:00:00	8	Radiación solar	143
457	7	Sololá	701	Sololá	3	Barraneche	1	Enero	2023-03-01T00:00:00	2024-11-06T09:00:00	2	Temperatura media	15.8
458	7	Sololá	701	Sololá	3	Barraneche	1	Enero	2023-03-01T00:00:00	2024-11-06T09:00:00	4	Temperatura máxima	15.8
459	7	Sololá	701	Sololá	3	Barraneche	1	Enero	2023-03-01T00:00:00	2024-11-06T09:00:00	3	Temperatura mínima	13.7
460	7	Sololá	701	Sololá	3	Barraneche	1	Enero	2023-03-01T00:00:00	2024-11-06T09:00:00	5	Humedad	50
461	7	Sololá	701	Sololá	3	Barraneche	1	Enero	2023-03-01T00:00:00	2024-11-06T09:00:00	6	Velocidad del viento	4.8
462	7	Sololá	701	Sololá	3	Barraneche	1	Enero	2023-03-01T00:00:00	2024-11-06T09:00:00	7	Dirección del viento	4.83
463	7	Sololá	701	Sololá	3	Barraneche	1	Enero	2023-03-01T00:00:00	2024-11-06T09:00:00	1	Precipitación	0
464	7	Sololá	701	Sololá	3	Barraneche	1	Enero	2023-03-01T00:00:00	2024-11-06T09:00:00	8	Radiación solar	274
465	7	Sololá	701	Sololá	3	Barraneche	1	Enero	2023-03-01T00:00:00	2024-11-06T10:00:00	2	Temperatura media	18.4
466	7	Sololá	701	Sololá	3	Barraneche	1	Enero	2023-03-01T00:00:00	2024-11-06T10:00:00	4	Temperatura máxima	18.4
467	7	Sololá	701	Sololá	3	Barraneche	1	Enero	2023-03-01T00:00:00	2024-11-06T10:00:00	3	Temperatura mínima	15.9
468	7	Sololá	701	Sololá	3	Barraneche	1	Enero	2023-03-01T00:00:00	2024-11-06T10:00:00	5	Humedad	40
469	7	Sololá	701	Sololá	3	Barraneche	1	Enero	2023-03-01T00:00:00	2024-11-06T10:00:00	6	Velocidad del viento	4.8
470	7	Sololá	701	Sololá	3	Barraneche	1	Enero	2023-03-01T00:00:00	2024-11-06T10:00:00	7	Dirección del viento	4.83
471	7	Sololá	701	Sololá	3	Barraneche	1	Enero	2023-03-01T00:00:00	2024-11-06T10:00:00	1	Precipitación	0
472	7	Sololá	701	Sololá	3	Barraneche	1	Enero	2023-03-01T00:00:00	2024-11-06T10:00:00	8	Radiación solar	601
473	7	Sololá	701	Sololá	3	Barraneche	1	Enero	2023-03-01T00:00:00	2024-11-06T11:00:00	2	Temperatura media	17.1
474	7	Sololá	701	Sololá	3	Barraneche	1	Enero	2023-03-01T00:00:00	2024-11-06T11:00:00	4	Temperatura máxima	18.6
475	7	Sololá	701	Sololá	3	Barraneche	1	Enero	2023-03-01T00:00:00	2024-11-06T11:00:00	3	Temperatura mínima	17.1
476	7	Sololá	701	Sololá	3	Barraneche	1	Enero	2023-03-01T00:00:00	2024-11-06T11:00:00	5	Humedad	47
477	7	Sololá	701	Sololá	3	Barraneche	1	Enero	2023-03-01T00:00:00	2024-11-06T11:00:00	6	Velocidad del viento	11.3
478	7	Sololá	701	Sololá	3	Barraneche	1	Enero	2023-03-01T00:00:00	2024-11-06T11:00:00	7	Dirección del viento	11.27
479	7	Sololá	701	Sololá	3	Barraneche	1	Enero	2023-03-01T00:00:00	2024-11-06T11:00:00	1	Precipitación	0
480	7	Sololá	701	Sololá	3	Barraneche	1	Enero	2023-03-01T00:00:00	2024-11-06T11:00:00	8	Radiación solar	621
481	7	Sololá	701	Sololá	3	Barraneche	1	Enero	2023-03-01T00:00:00	2024-11-06T12:00:00	2	Temperatura media	17.7
482	7	Sololá	701	Sololá	3	Barraneche	1	Enero	2023-03-01T00:00:00	2024-11-06T12:00:00	4	Temperatura máxima	17.8
483	7	Sololá	701	Sololá	3	Barraneche	1	Enero	2023-03-01T00:00:00	2024-11-06T12:00:00	3	Temperatura mínima	17
484	7	Sololá	701	Sololá	3	Barraneche	1	Enero	2023-03-01T00:00:00	2024-11-06T12:00:00	5	Humedad	44
485	7	Sololá	701	Sololá	3	Barraneche	1	Enero	2023-03-01T00:00:00	2024-11-06T12:00:00	6	Velocidad del viento	11.3
486	7	Sololá	701	Sololá	3	Barraneche	1	Enero	2023-03-01T00:00:00	2024-11-06T12:00:00	7	Dirección del viento	11.27
487	7	Sololá	701	Sololá	3	Barraneche	1	Enero	2023-03-01T00:00:00	2024-11-06T12:00:00	1	Precipitación	0
488	7	Sololá	701	Sololá	3	Barraneche	1	Enero	2023-03-01T00:00:00	2024-11-06T12:00:00	8	Radiación solar	712
489	7	Sololá	701	Sololá	3	Barraneche	1	Enero	2023-03-01T00:00:00	2024-11-06T13:00:00	2	Temperatura media	16.7
490	7	Sololá	701	Sololá	3	Barraneche	1	Enero	2023-03-01T00:00:00	2024-11-06T13:00:00	4	Temperatura máxima	17.7
491	7	Sololá	701	Sololá	3	Barraneche	1	Enero	2023-03-01T00:00:00	2024-11-06T13:00:00	3	Temperatura mínima	16.6
492	7	Sololá	701	Sololá	3	Barraneche	1	Enero	2023-03-01T00:00:00	2024-11-06T13:00:00	5	Humedad	48
493	7	Sololá	701	Sololá	3	Barraneche	1	Enero	2023-03-01T00:00:00	2024-11-06T13:00:00	6	Velocidad del viento	9.7
494	7	Sololá	701	Sololá	3	Barraneche	1	Enero	2023-03-01T00:00:00	2024-11-06T13:00:00	7	Dirección del viento	9.66
495	7	Sololá	701	Sololá	3	Barraneche	1	Enero	2023-03-01T00:00:00	2024-11-06T13:00:00	1	Precipitación	0
496	7	Sololá	701	Sololá	3	Barraneche	1	Enero	2023-03-01T00:00:00	2024-11-06T13:00:00	8	Radiación solar	455
497	7	Sololá	701	Sololá	3	Barraneche	1	Enero	2023-03-01T00:00:00	2024-11-06T14:00:00	2	Temperatura media	18.8
498	7	Sololá	701	Sololá	3	Barraneche	1	Enero	2023-03-01T00:00:00	2024-11-06T14:00:00	4	Temperatura máxima	19.1
499	7	Sololá	701	Sololá	3	Barraneche	1	Enero	2023-03-01T00:00:00	2024-11-06T14:00:00	3	Temperatura mínima	16.7
500	7	Sololá	701	Sololá	3	Barraneche	1	Enero	2023-03-01T00:00:00	2024-11-06T14:00:00	5	Humedad	43
501	7	Sololá	701	Sololá	3	Barraneche	1	Enero	2023-03-01T00:00:00	2024-11-06T14:00:00	6	Velocidad del viento	6.4
502	7	Sololá	701	Sololá	3	Barraneche	1	Enero	2023-03-01T00:00:00	2024-11-06T14:00:00	7	Dirección del viento	6.44
503	7	Sololá	701	Sololá	3	Barraneche	1	Enero	2023-03-01T00:00:00	2024-11-06T14:00:00	1	Precipitación	0
504	7	Sololá	701	Sololá	3	Barraneche	1	Enero	2023-03-01T00:00:00	2024-11-06T14:00:00	8	Radiación solar	735
505	7	Sololá	701	Sololá	3	Barraneche	1	Enero	2023-03-01T00:00:00	2024-11-06T15:00:00	2	Temperatura media	18
506	7	Sololá	701	Sololá	3	Barraneche	1	Enero	2023-03-01T00:00:00	2024-11-06T15:00:00	4	Temperatura máxima	19.3
507	7	Sololá	701	Sololá	3	Barraneche	1	Enero	2023-03-01T00:00:00	2024-11-06T15:00:00	3	Temperatura mínima	17.9
508	7	Sololá	701	Sololá	3	Barraneche	1	Enero	2023-03-01T00:00:00	2024-11-06T15:00:00	5	Humedad	50
509	7	Sololá	701	Sololá	3	Barraneche	1	Enero	2023-03-01T00:00:00	2024-11-06T15:00:00	6	Velocidad del viento	11.3
510	7	Sololá	701	Sololá	3	Barraneche	1	Enero	2023-03-01T00:00:00	2024-11-06T15:00:00	7	Dirección del viento	11.27
511	7	Sololá	701	Sololá	3	Barraneche	1	Enero	2023-03-01T00:00:00	2024-11-06T15:00:00	1	Precipitación	0
512	7	Sololá	701	Sololá	3	Barraneche	1	Enero	2023-03-01T00:00:00	2024-11-06T15:00:00	8	Radiación solar	587
513	7	Sololá	701	Sololá	3	Barraneche	1	Enero	2023-03-01T00:00:00	2024-11-06T16:00:00	2	Temperatura media	17.6
514	7	Sololá	701	Sololá	3	Barraneche	1	Enero	2023-03-01T00:00:00	2024-11-06T16:00:00	4	Temperatura máxima	18.3
515	7	Sololá	701	Sololá	3	Barraneche	1	Enero	2023-03-01T00:00:00	2024-11-06T16:00:00	3	Temperatura mínima	17.4
516	7	Sololá	701	Sololá	3	Barraneche	1	Enero	2023-03-01T00:00:00	2024-11-06T16:00:00	5	Humedad	51
517	7	Sololá	701	Sololá	3	Barraneche	1	Enero	2023-03-01T00:00:00	2024-11-06T16:00:00	6	Velocidad del viento	9.7
518	7	Sololá	701	Sololá	3	Barraneche	1	Enero	2023-03-01T00:00:00	2024-11-06T16:00:00	7	Dirección del viento	9.66
519	7	Sololá	701	Sololá	3	Barraneche	1	Enero	2023-03-01T00:00:00	2024-11-06T16:00:00	1	Precipitación	0
520	7	Sololá	701	Sololá	3	Barraneche	1	Enero	2023-03-01T00:00:00	2024-11-06T16:00:00	8	Radiación solar	368
521	7	Sololá	701	Sololá	3	Barraneche	1	Enero	2023-03-01T00:00:00	2024-11-06T17:00:00	2	Temperatura media	14.7
522	7	Sololá	701	Sololá	3	Barraneche	1	Enero	2023-03-01T00:00:00	2024-11-06T17:00:00	4	Temperatura máxima	17.7
523	7	Sololá	701	Sololá	3	Barraneche	1	Enero	2023-03-01T00:00:00	2024-11-06T17:00:00	3	Temperatura mínima	14.7
524	7	Sololá	701	Sololá	3	Barraneche	1	Enero	2023-03-01T00:00:00	2024-11-06T17:00:00	5	Humedad	70
525	7	Sololá	701	Sololá	3	Barraneche	1	Enero	2023-03-01T00:00:00	2024-11-06T17:00:00	6	Velocidad del viento	11.3
526	7	Sololá	701	Sololá	3	Barraneche	1	Enero	2023-03-01T00:00:00	2024-11-06T17:00:00	7	Dirección del viento	11.27
527	7	Sololá	701	Sololá	3	Barraneche	1	Enero	2023-03-01T00:00:00	2024-11-06T17:00:00	1	Precipitación	0
528	7	Sololá	701	Sololá	3	Barraneche	1	Enero	2023-03-01T00:00:00	2024-11-06T17:00:00	8	Radiación solar	203
529	7	Sololá	701	Sololá	3	Barraneche	1	Enero	2023-03-01T00:00:00	2024-11-06T18:00:00	2	Temperatura media	14.1
530	7	Sololá	701	Sololá	3	Barraneche	1	Enero	2023-03-01T00:00:00	2024-11-06T18:00:00	4	Temperatura máxima	14.7
531	7	Sololá	701	Sololá	3	Barraneche	1	Enero	2023-03-01T00:00:00	2024-11-06T18:00:00	3	Temperatura mínima	13.9
532	7	Sololá	701	Sololá	3	Barraneche	1	Enero	2023-03-01T00:00:00	2024-11-06T18:00:00	5	Humedad	72
533	7	Sololá	701	Sololá	3	Barraneche	1	Enero	2023-03-01T00:00:00	2024-11-06T18:00:00	6	Velocidad del viento	4.8
534	7	Sololá	701	Sololá	3	Barraneche	1	Enero	2023-03-01T00:00:00	2024-11-06T18:00:00	7	Dirección del viento	4.83
535	7	Sololá	701	Sololá	3	Barraneche	1	Enero	2023-03-01T00:00:00	2024-11-06T18:00:00	1	Precipitación	0
536	7	Sololá	701	Sololá	3	Barraneche	1	Enero	2023-03-01T00:00:00	2024-11-06T18:00:00	8	Radiación solar	16
537	7	Sololá	701	Sololá	3	Barraneche	1	Enero	2023-03-01T00:00:00	2024-11-06T19:00:00	2	Temperatura media	13.7
538	7	Sololá	701	Sololá	3	Barraneche	1	Enero	2023-03-01T00:00:00	2024-11-06T19:00:00	4	Temperatura máxima	14.1
539	7	Sololá	701	Sololá	3	Barraneche	1	Enero	2023-03-01T00:00:00	2024-11-06T19:00:00	3	Temperatura mínima	13.7
540	7	Sololá	701	Sololá	3	Barraneche	1	Enero	2023-03-01T00:00:00	2024-11-06T19:00:00	5	Humedad	74
541	7	Sololá	701	Sololá	3	Barraneche	1	Enero	2023-03-01T00:00:00	2024-11-06T19:00:00	6	Velocidad del viento	1.6
542	7	Sololá	701	Sololá	3	Barraneche	1	Enero	2023-03-01T00:00:00	2024-11-06T19:00:00	7	Dirección del viento	1.61
543	7	Sololá	701	Sololá	3	Barraneche	1	Enero	2023-03-01T00:00:00	2024-11-06T19:00:00	1	Precipitación	0
544	7	Sololá	701	Sololá	3	Barraneche	1	Enero	2023-03-01T00:00:00	2024-11-06T19:00:00	8	Radiación solar	0
545	7	Sololá	701	Sololá	3	Barraneche	1	Enero	2023-03-01T00:00:00	2024-11-06T20:00:00	2	Temperatura media	11.6
546	7	Sololá	701	Sololá	3	Barraneche	1	Enero	2023-03-01T00:00:00	2024-11-06T20:00:00	4	Temperatura máxima	13.7
547	7	Sololá	701	Sololá	3	Barraneche	1	Enero	2023-03-01T00:00:00	2024-11-06T20:00:00	3	Temperatura mínima	11.5
548	7	Sololá	701	Sololá	3	Barraneche	1	Enero	2023-03-01T00:00:00	2024-11-06T20:00:00	5	Humedad	72
549	7	Sololá	701	Sololá	3	Barraneche	1	Enero	2023-03-01T00:00:00	2024-11-06T20:00:00	6	Velocidad del viento	3.2
550	7	Sololá	701	Sololá	3	Barraneche	1	Enero	2023-03-01T00:00:00	2024-11-06T20:00:00	7	Dirección del viento	3.22
551	7	Sololá	701	Sololá	3	Barraneche	1	Enero	2023-03-01T00:00:00	2024-11-06T20:00:00	1	Precipitación	0
552	7	Sololá	701	Sololá	3	Barraneche	1	Enero	2023-03-01T00:00:00	2024-11-06T20:00:00	8	Radiación solar	0
553	7	Sololá	701	Sololá	3	Barraneche	1	Enero	2023-03-01T00:00:00	2024-11-06T21:00:00	2	Temperatura media	13.6
554	7	Sololá	701	Sololá	3	Barraneche	1	Enero	2023-03-01T00:00:00	2024-11-06T21:00:00	4	Temperatura máxima	13.8
555	7	Sololá	701	Sololá	3	Barraneche	1	Enero	2023-03-01T00:00:00	2024-11-06T21:00:00	3	Temperatura mínima	11.6
556	7	Sololá	701	Sololá	3	Barraneche	1	Enero	2023-03-01T00:00:00	2024-11-06T21:00:00	5	Humedad	65
557	7	Sololá	701	Sololá	3	Barraneche	1	Enero	2023-03-01T00:00:00	2024-11-06T21:00:00	6	Velocidad del viento	4.8
558	7	Sololá	701	Sololá	3	Barraneche	1	Enero	2023-03-01T00:00:00	2024-11-06T21:00:00	7	Dirección del viento	4.83
559	7	Sololá	701	Sololá	3	Barraneche	1	Enero	2023-03-01T00:00:00	2024-11-06T21:00:00	1	Precipitación	0
560	7	Sololá	701	Sololá	3	Barraneche	1	Enero	2023-03-01T00:00:00	2024-11-06T21:00:00	8	Radiación solar	0
561	7	Sololá	701	Sololá	3	Barraneche	1	Enero	2023-03-01T00:00:00	2024-11-06T22:00:00	2	Temperatura media	10.7
562	7	Sololá	701	Sololá	3	Barraneche	1	Enero	2023-03-01T00:00:00	2024-11-06T22:00:00	4	Temperatura máxima	13.6
563	7	Sololá	701	Sololá	3	Barraneche	1	Enero	2023-03-01T00:00:00	2024-11-06T22:00:00	3	Temperatura mínima	10.6
564	7	Sololá	701	Sololá	3	Barraneche	1	Enero	2023-03-01T00:00:00	2024-11-06T22:00:00	5	Humedad	70
565	7	Sololá	701	Sololá	3	Barraneche	1	Enero	2023-03-01T00:00:00	2024-11-06T22:00:00	6	Velocidad del viento	3.2
566	7	Sololá	701	Sololá	3	Barraneche	1	Enero	2023-03-01T00:00:00	2024-11-06T22:00:00	7	Dirección del viento	3.22
567	7	Sololá	701	Sololá	3	Barraneche	1	Enero	2023-03-01T00:00:00	2024-11-06T22:00:00	1	Precipitación	0
568	7	Sololá	701	Sololá	3	Barraneche	1	Enero	2023-03-01T00:00:00	2024-11-06T22:00:00	8	Radiación solar	0
569	7	Sololá	701	Sololá	3	Barraneche	1	Enero	2023-03-01T00:00:00	2024-11-06T23:00:00	2	Temperatura media	9.9
570	7	Sololá	701	Sololá	3	Barraneche	1	Enero	2023-03-01T00:00:00	2024-11-06T23:00:00	4	Temperatura máxima	10.7
571	7	Sololá	701	Sololá	3	Barraneche	1	Enero	2023-03-01T00:00:00	2024-11-06T23:00:00	3	Temperatura mínima	9.9
572	7	Sololá	701	Sololá	3	Barraneche	1	Enero	2023-03-01T00:00:00	2024-11-06T23:00:00	5	Humedad	71
573	7	Sololá	701	Sololá	3	Barraneche	1	Enero	2023-03-01T00:00:00	2024-11-06T23:00:00	6	Velocidad del viento	4.8
574	7	Sololá	701	Sololá	3	Barraneche	1	Enero	2023-03-01T00:00:00	2024-11-06T23:00:00	7	Dirección del viento	4.83
575	7	Sololá	701	Sololá	3	Barraneche	1	Enero	2023-03-01T00:00:00	2024-11-06T23:00:00	1	Precipitación	0
576	7	Sololá	701	Sololá	3	Barraneche	1	Enero	2023-03-01T00:00:00	2024-11-06T23:00:00	8	Radiación solar	0
577	7	Sololá	701	Sololá	3	Barraneche	1	Enero	2023-04-01T00:00:00	2024-11-06T00:00:00	2	Temperatura media	9.2
578	7	Sololá	701	Sololá	3	Barraneche	1	Enero	2023-04-01T00:00:00	2024-11-06T00:00:00	4	Temperatura máxima	9.9
579	7	Sololá	701	Sololá	3	Barraneche	1	Enero	2023-04-01T00:00:00	2024-11-06T00:00:00	3	Temperatura mínima	9.2
580	7	Sololá	701	Sololá	3	Barraneche	1	Enero	2023-04-01T00:00:00	2024-11-06T00:00:00	5	Humedad	72
581	7	Sololá	701	Sololá	3	Barraneche	1	Enero	2023-04-01T00:00:00	2024-11-06T00:00:00	6	Velocidad del viento	4.8
582	7	Sololá	701	Sololá	3	Barraneche	1	Enero	2023-04-01T00:00:00	2024-11-06T00:00:00	7	Dirección del viento	4.83
583	7	Sololá	701	Sololá	3	Barraneche	1	Enero	2023-04-01T00:00:00	2024-11-06T00:00:00	1	Precipitación	0
584	7	Sololá	701	Sololá	3	Barraneche	1	Enero	2023-04-01T00:00:00	2024-11-06T00:00:00	8	Radiación solar	0
585	7	Sololá	701	Sololá	3	Barraneche	1	Enero	2023-04-01T00:00:00	2024-11-06T01:00:00	2	Temperatura media	8.4
586	7	Sololá	701	Sololá	3	Barraneche	1	Enero	2023-04-01T00:00:00	2024-11-06T01:00:00	4	Temperatura máxima	9.2
587	7	Sololá	701	Sololá	3	Barraneche	1	Enero	2023-04-01T00:00:00	2024-11-06T01:00:00	3	Temperatura mínima	8.4
588	7	Sololá	701	Sololá	3	Barraneche	1	Enero	2023-04-01T00:00:00	2024-11-06T01:00:00	5	Humedad	72
589	7	Sololá	701	Sololá	3	Barraneche	1	Enero	2023-04-01T00:00:00	2024-11-06T01:00:00	6	Velocidad del viento	6.4
590	7	Sololá	701	Sololá	3	Barraneche	1	Enero	2023-04-01T00:00:00	2024-11-06T01:00:00	7	Dirección del viento	6.44
591	7	Sololá	701	Sololá	3	Barraneche	1	Enero	2023-04-01T00:00:00	2024-11-06T01:00:00	1	Precipitación	0
592	7	Sololá	701	Sololá	3	Barraneche	1	Enero	2023-04-01T00:00:00	2024-11-06T01:00:00	8	Radiación solar	0
593	7	Sololá	701	Sololá	3	Barraneche	1	Enero	2023-04-01T00:00:00	2024-11-06T02:00:00	2	Temperatura media	8.4
594	7	Sololá	701	Sololá	3	Barraneche	1	Enero	2023-04-01T00:00:00	2024-11-06T02:00:00	4	Temperatura máxima	8.7
595	7	Sololá	701	Sololá	3	Barraneche	1	Enero	2023-04-01T00:00:00	2024-11-06T02:00:00	3	Temperatura mínima	8.3
596	7	Sololá	701	Sololá	3	Barraneche	1	Enero	2023-04-01T00:00:00	2024-11-06T02:00:00	5	Humedad	68
597	7	Sololá	701	Sololá	3	Barraneche	1	Enero	2023-04-01T00:00:00	2024-11-06T02:00:00	6	Velocidad del viento	6.4
598	7	Sololá	701	Sololá	3	Barraneche	1	Enero	2023-04-01T00:00:00	2024-11-06T02:00:00	7	Dirección del viento	6.44
599	7	Sololá	701	Sololá	3	Barraneche	1	Enero	2023-04-01T00:00:00	2024-11-06T02:00:00	1	Precipitación	0
600	7	Sololá	701	Sololá	3	Barraneche	1	Enero	2023-04-01T00:00:00	2024-11-06T02:00:00	8	Radiación solar	0
601	7	Sololá	701	Sololá	3	Barraneche	1	Enero	2023-04-01T00:00:00	2024-11-06T03:00:00	2	Temperatura media	7.7
602	7	Sololá	701	Sololá	3	Barraneche	1	Enero	2023-04-01T00:00:00	2024-11-06T03:00:00	4	Temperatura máxima	8.4
603	7	Sololá	701	Sololá	3	Barraneche	1	Enero	2023-04-01T00:00:00	2024-11-06T03:00:00	3	Temperatura mínima	7.6
604	7	Sololá	701	Sololá	3	Barraneche	1	Enero	2023-04-01T00:00:00	2024-11-06T03:00:00	5	Humedad	65
605	7	Sololá	701	Sololá	3	Barraneche	1	Enero	2023-04-01T00:00:00	2024-11-06T03:00:00	6	Velocidad del viento	6.4
606	7	Sololá	701	Sololá	3	Barraneche	1	Enero	2023-04-01T00:00:00	2024-11-06T03:00:00	7	Dirección del viento	6.44
607	7	Sololá	701	Sololá	3	Barraneche	1	Enero	2023-04-01T00:00:00	2024-11-06T03:00:00	1	Precipitación	0
608	7	Sololá	701	Sololá	3	Barraneche	1	Enero	2023-04-01T00:00:00	2024-11-06T03:00:00	8	Radiación solar	0
609	7	Sololá	701	Sololá	3	Barraneche	1	Enero	2023-04-01T00:00:00	2024-11-06T04:00:00	2	Temperatura media	7.5
610	7	Sololá	701	Sololá	3	Barraneche	1	Enero	2023-04-01T00:00:00	2024-11-06T04:00:00	4	Temperatura máxima	8.1
611	7	Sololá	701	Sololá	3	Barraneche	1	Enero	2023-04-01T00:00:00	2024-11-06T04:00:00	3	Temperatura mínima	7.4
612	7	Sololá	701	Sololá	3	Barraneche	1	Enero	2023-04-01T00:00:00	2024-11-06T04:00:00	5	Humedad	60
613	7	Sololá	701	Sololá	3	Barraneche	1	Enero	2023-04-01T00:00:00	2024-11-06T04:00:00	6	Velocidad del viento	8
614	7	Sololá	701	Sololá	3	Barraneche	1	Enero	2023-04-01T00:00:00	2024-11-06T04:00:00	7	Dirección del viento	8.05
615	7	Sololá	701	Sololá	3	Barraneche	1	Enero	2023-04-01T00:00:00	2024-11-06T04:00:00	1	Precipitación	0
616	7	Sololá	701	Sololá	3	Barraneche	1	Enero	2023-04-01T00:00:00	2024-11-06T04:00:00	8	Radiación solar	0
617	7	Sololá	701	Sololá	3	Barraneche	1	Enero	2023-04-01T00:00:00	2024-11-06T05:00:00	2	Temperatura media	7.3
618	7	Sololá	701	Sololá	3	Barraneche	1	Enero	2023-04-01T00:00:00	2024-11-06T05:00:00	4	Temperatura máxima	7.5
619	7	Sololá	701	Sololá	3	Barraneche	1	Enero	2023-04-01T00:00:00	2024-11-06T05:00:00	3	Temperatura mínima	6.8
620	7	Sololá	701	Sololá	3	Barraneche	1	Enero	2023-04-01T00:00:00	2024-11-06T05:00:00	5	Humedad	57
621	7	Sololá	701	Sololá	3	Barraneche	1	Enero	2023-04-01T00:00:00	2024-11-06T05:00:00	6	Velocidad del viento	8
622	7	Sololá	701	Sololá	3	Barraneche	1	Enero	2023-04-01T00:00:00	2024-11-06T05:00:00	7	Dirección del viento	8.05
623	7	Sololá	701	Sololá	3	Barraneche	1	Enero	2023-04-01T00:00:00	2024-11-06T05:00:00	1	Precipitación	0
624	7	Sololá	701	Sololá	3	Barraneche	1	Enero	2023-04-01T00:00:00	2024-11-06T05:00:00	8	Radiación solar	0
625	7	Sololá	701	Sololá	3	Barraneche	1	Enero	2023-04-01T00:00:00	2024-11-06T06:00:00	2	Temperatura media	6.7
626	7	Sololá	701	Sololá	3	Barraneche	1	Enero	2023-04-01T00:00:00	2024-11-06T06:00:00	4	Temperatura máxima	7.3
627	7	Sololá	701	Sololá	3	Barraneche	1	Enero	2023-04-01T00:00:00	2024-11-06T06:00:00	3	Temperatura mínima	6.3
628	7	Sololá	701	Sololá	3	Barraneche	1	Enero	2023-04-01T00:00:00	2024-11-06T06:00:00	5	Humedad	61
629	7	Sololá	701	Sololá	3	Barraneche	1	Enero	2023-04-01T00:00:00	2024-11-06T06:00:00	6	Velocidad del viento	9.7
630	7	Sololá	701	Sololá	3	Barraneche	1	Enero	2023-04-01T00:00:00	2024-11-06T06:00:00	7	Dirección del viento	9.66
631	7	Sololá	701	Sololá	3	Barraneche	1	Enero	2023-04-01T00:00:00	2024-11-06T06:00:00	1	Precipitación	0
632	7	Sololá	701	Sololá	3	Barraneche	1	Enero	2023-04-01T00:00:00	2024-11-06T06:00:00	8	Radiación solar	0
633	7	Sololá	701	Sololá	3	Barraneche	1	Enero	2023-04-01T00:00:00	2024-11-06T07:00:00	2	Temperatura media	6.7
634	7	Sololá	701	Sololá	3	Barraneche	1	Enero	2023-04-01T00:00:00	2024-11-06T07:00:00	4	Temperatura máxima	6.7
635	7	Sololá	701	Sololá	3	Barraneche	1	Enero	2023-04-01T00:00:00	2024-11-06T07:00:00	3	Temperatura mínima	6.2
636	7	Sololá	701	Sololá	3	Barraneche	1	Enero	2023-04-01T00:00:00	2024-11-06T07:00:00	5	Humedad	61
637	7	Sololá	701	Sololá	3	Barraneche	1	Enero	2023-04-01T00:00:00	2024-11-06T07:00:00	6	Velocidad del viento	8
638	7	Sololá	701	Sololá	3	Barraneche	1	Enero	2023-04-01T00:00:00	2024-11-06T07:00:00	7	Dirección del viento	8.05
639	7	Sololá	701	Sololá	3	Barraneche	1	Enero	2023-04-01T00:00:00	2024-11-06T07:00:00	1	Precipitación	0
640	7	Sololá	701	Sololá	3	Barraneche	1	Enero	2023-04-01T00:00:00	2024-11-06T07:00:00	8	Radiación solar	6
641	7	Sololá	701	Sololá	3	Barraneche	1	Enero	2023-04-01T00:00:00	2024-11-06T08:00:00	2	Temperatura media	10.9
642	7	Sololá	701	Sololá	3	Barraneche	1	Enero	2023-04-01T00:00:00	2024-11-06T08:00:00	4	Temperatura máxima	10.9
643	7	Sololá	701	Sololá	3	Barraneche	1	Enero	2023-04-01T00:00:00	2024-11-06T08:00:00	3	Temperatura mínima	6.6
644	7	Sololá	701	Sololá	3	Barraneche	1	Enero	2023-04-01T00:00:00	2024-11-06T08:00:00	5	Humedad	55
645	7	Sololá	701	Sololá	3	Barraneche	1	Enero	2023-04-01T00:00:00	2024-11-06T08:00:00	6	Velocidad del viento	6.4
646	7	Sololá	701	Sololá	3	Barraneche	1	Enero	2023-04-01T00:00:00	2024-11-06T08:00:00	7	Dirección del viento	6.44
647	7	Sololá	701	Sololá	3	Barraneche	1	Enero	2023-04-01T00:00:00	2024-11-06T08:00:00	1	Precipitación	0
648	7	Sololá	701	Sololá	3	Barraneche	1	Enero	2023-04-01T00:00:00	2024-11-06T08:00:00	8	Radiación solar	154
649	7	Sololá	701	Sololá	3	Barraneche	1	Enero	2023-04-01T00:00:00	2024-11-06T09:00:00	2	Temperatura media	14.6
650	7	Sololá	701	Sololá	3	Barraneche	1	Enero	2023-04-01T00:00:00	2024-11-06T09:00:00	4	Temperatura máxima	14.6
651	7	Sololá	701	Sololá	3	Barraneche	1	Enero	2023-04-01T00:00:00	2024-11-06T09:00:00	3	Temperatura mínima	11
652	7	Sololá	701	Sololá	3	Barraneche	1	Enero	2023-04-01T00:00:00	2024-11-06T09:00:00	5	Humedad	52
653	7	Sololá	701	Sololá	3	Barraneche	1	Enero	2023-04-01T00:00:00	2024-11-06T09:00:00	6	Velocidad del viento	4.8
654	7	Sololá	701	Sololá	3	Barraneche	1	Enero	2023-04-01T00:00:00	2024-11-06T09:00:00	7	Dirección del viento	4.83
655	7	Sololá	701	Sololá	3	Barraneche	1	Enero	2023-04-01T00:00:00	2024-11-06T09:00:00	1	Precipitación	0
656	7	Sololá	701	Sololá	3	Barraneche	1	Enero	2023-04-01T00:00:00	2024-11-06T09:00:00	8	Radiación solar	396
657	7	Sololá	701	Sololá	3	Barraneche	1	Enero	2023-04-01T00:00:00	2024-11-06T10:00:00	2	Temperatura media	17.3
658	7	Sololá	701	Sololá	3	Barraneche	1	Enero	2023-04-01T00:00:00	2024-11-06T10:00:00	4	Temperatura máxima	17.4
659	7	Sololá	701	Sololá	3	Barraneche	1	Enero	2023-04-01T00:00:00	2024-11-06T10:00:00	3	Temperatura mínima	14.6
660	7	Sololá	701	Sololá	3	Barraneche	1	Enero	2023-04-01T00:00:00	2024-11-06T10:00:00	5	Humedad	28
661	7	Sololá	701	Sololá	3	Barraneche	1	Enero	2023-04-01T00:00:00	2024-11-06T10:00:00	6	Velocidad del viento	6.4
662	7	Sololá	701	Sololá	3	Barraneche	1	Enero	2023-04-01T00:00:00	2024-11-06T10:00:00	7	Dirección del viento	6.44
663	7	Sololá	701	Sololá	3	Barraneche	1	Enero	2023-04-01T00:00:00	2024-11-06T10:00:00	1	Precipitación	0
664	7	Sololá	701	Sololá	3	Barraneche	1	Enero	2023-04-01T00:00:00	2024-11-06T10:00:00	8	Radiación solar	601
665	7	Sololá	701	Sololá	3	Barraneche	1	Enero	2023-04-01T00:00:00	2024-11-06T11:00:00	2	Temperatura media	18.2
666	7	Sololá	701	Sololá	3	Barraneche	1	Enero	2023-04-01T00:00:00	2024-11-06T11:00:00	4	Temperatura máxima	18.3
667	7	Sololá	701	Sololá	3	Barraneche	1	Enero	2023-04-01T00:00:00	2024-11-06T11:00:00	3	Temperatura mínima	17.2
668	7	Sololá	701	Sololá	3	Barraneche	1	Enero	2023-04-01T00:00:00	2024-11-06T11:00:00	5	Humedad	31
669	7	Sololá	701	Sololá	3	Barraneche	1	Enero	2023-04-01T00:00:00	2024-11-06T11:00:00	6	Velocidad del viento	11.3
670	7	Sololá	701	Sololá	3	Barraneche	1	Enero	2023-04-01T00:00:00	2024-11-06T11:00:00	7	Dirección del viento	11.27
671	7	Sololá	701	Sololá	3	Barraneche	1	Enero	2023-04-01T00:00:00	2024-11-06T11:00:00	1	Precipitación	0
672	7	Sololá	701	Sololá	3	Barraneche	1	Enero	2023-04-01T00:00:00	2024-11-06T11:00:00	8	Radiación solar	750
673	7	Sololá	701	Sololá	3	Barraneche	1	Enero	2023-04-01T00:00:00	2024-11-06T12:00:00	2	Temperatura media	18.7
674	7	Sololá	701	Sololá	3	Barraneche	1	Enero	2023-04-01T00:00:00	2024-11-06T12:00:00	4	Temperatura máxima	19.1
675	7	Sololá	701	Sololá	3	Barraneche	1	Enero	2023-04-01T00:00:00	2024-11-06T12:00:00	3	Temperatura mínima	18.1
676	7	Sololá	701	Sololá	3	Barraneche	1	Enero	2023-04-01T00:00:00	2024-11-06T12:00:00	5	Humedad	37
677	7	Sololá	701	Sololá	3	Barraneche	1	Enero	2023-04-01T00:00:00	2024-11-06T12:00:00	6	Velocidad del viento	12.9
678	7	Sololá	701	Sololá	3	Barraneche	1	Enero	2023-04-01T00:00:00	2024-11-06T12:00:00	7	Dirección del viento	12.87
679	7	Sololá	701	Sololá	3	Barraneche	1	Enero	2023-04-01T00:00:00	2024-11-06T12:00:00	1	Precipitación	0
680	7	Sololá	701	Sololá	3	Barraneche	1	Enero	2023-04-01T00:00:00	2024-11-06T12:00:00	8	Radiación solar	825
681	7	Sololá	701	Sololá	3	Barraneche	1	Enero	2023-04-01T00:00:00	2024-11-06T13:00:00	2	Temperatura media	18.9
682	7	Sololá	701	Sololá	3	Barraneche	1	Enero	2023-04-01T00:00:00	2024-11-06T13:00:00	4	Temperatura máxima	19.2
683	7	Sololá	701	Sololá	3	Barraneche	1	Enero	2023-04-01T00:00:00	2024-11-06T13:00:00	3	Temperatura mínima	18.4
684	7	Sololá	701	Sololá	3	Barraneche	1	Enero	2023-04-01T00:00:00	2024-11-06T13:00:00	5	Humedad	31
685	7	Sololá	701	Sololá	3	Barraneche	1	Enero	2023-04-01T00:00:00	2024-11-06T13:00:00	6	Velocidad del viento	14.5
686	7	Sololá	701	Sololá	3	Barraneche	1	Enero	2023-04-01T00:00:00	2024-11-06T13:00:00	7	Dirección del viento	14.48
687	7	Sololá	701	Sololá	3	Barraneche	1	Enero	2023-04-01T00:00:00	2024-11-06T13:00:00	1	Precipitación	0
688	7	Sololá	701	Sololá	3	Barraneche	1	Enero	2023-04-01T00:00:00	2024-11-06T13:00:00	8	Radiación solar	830
689	7	Sololá	701	Sololá	3	Barraneche	1	Enero	2023-04-01T00:00:00	2024-11-06T14:00:00	2	Temperatura media	19.7
690	7	Sololá	701	Sololá	3	Barraneche	1	Enero	2023-04-01T00:00:00	2024-11-06T14:00:00	4	Temperatura máxima	19.8
691	7	Sololá	701	Sololá	3	Barraneche	1	Enero	2023-04-01T00:00:00	2024-11-06T14:00:00	3	Temperatura mínima	18.8
692	7	Sololá	701	Sololá	3	Barraneche	1	Enero	2023-04-01T00:00:00	2024-11-06T14:00:00	5	Humedad	30
693	7	Sololá	701	Sololá	3	Barraneche	1	Enero	2023-04-01T00:00:00	2024-11-06T14:00:00	6	Velocidad del viento	12.9
694	7	Sololá	701	Sololá	3	Barraneche	1	Enero	2023-04-01T00:00:00	2024-11-06T14:00:00	7	Dirección del viento	12.87
695	7	Sololá	701	Sololá	3	Barraneche	1	Enero	2023-04-01T00:00:00	2024-11-06T14:00:00	1	Precipitación	0
696	7	Sololá	701	Sololá	3	Barraneche	1	Enero	2023-04-01T00:00:00	2024-11-06T14:00:00	8	Radiación solar	767
697	7	Sololá	701	Sololá	3	Barraneche	1	Enero	2023-04-01T00:00:00	2024-11-06T15:00:00	2	Temperatura media	19.3
698	7	Sololá	701	Sololá	3	Barraneche	1	Enero	2023-04-01T00:00:00	2024-11-06T15:00:00	4	Temperatura máxima	20
699	7	Sololá	701	Sololá	3	Barraneche	1	Enero	2023-04-01T00:00:00	2024-11-06T15:00:00	3	Temperatura mínima	19.2
700	7	Sololá	701	Sololá	3	Barraneche	1	Enero	2023-04-01T00:00:00	2024-11-06T15:00:00	5	Humedad	32
701	7	Sololá	701	Sololá	3	Barraneche	1	Enero	2023-04-01T00:00:00	2024-11-06T15:00:00	6	Velocidad del viento	14.5
702	7	Sololá	701	Sololá	3	Barraneche	1	Enero	2023-04-01T00:00:00	2024-11-06T15:00:00	7	Dirección del viento	14.48
703	7	Sololá	701	Sololá	3	Barraneche	1	Enero	2023-04-01T00:00:00	2024-11-06T15:00:00	1	Precipitación	0
704	7	Sololá	701	Sololá	3	Barraneche	1	Enero	2023-04-01T00:00:00	2024-11-06T15:00:00	8	Radiación solar	637
705	7	Sololá	701	Sololá	3	Barraneche	1	Enero	2023-04-01T00:00:00	2024-11-06T16:00:00	2	Temperatura media	18.5
706	7	Sololá	701	Sololá	3	Barraneche	1	Enero	2023-04-01T00:00:00	2024-11-06T16:00:00	4	Temperatura máxima	19.4
707	7	Sololá	701	Sololá	3	Barraneche	1	Enero	2023-04-01T00:00:00	2024-11-06T16:00:00	3	Temperatura mínima	18.4
708	7	Sololá	701	Sololá	3	Barraneche	1	Enero	2023-04-01T00:00:00	2024-11-06T16:00:00	5	Humedad	38
709	7	Sololá	701	Sololá	3	Barraneche	1	Enero	2023-04-01T00:00:00	2024-11-06T16:00:00	6	Velocidad del viento	12.9
710	7	Sololá	701	Sololá	3	Barraneche	1	Enero	2023-04-01T00:00:00	2024-11-06T16:00:00	7	Dirección del viento	12.87
711	7	Sololá	701	Sololá	3	Barraneche	1	Enero	2023-04-01T00:00:00	2024-11-06T16:00:00	1	Precipitación	0
712	7	Sololá	701	Sololá	3	Barraneche	1	Enero	2023-04-01T00:00:00	2024-11-06T16:00:00	8	Radiación solar	446
713	7	Sololá	701	Sololá	3	Barraneche	1	Enero	2023-04-01T00:00:00	2024-11-06T17:00:00	2	Temperatura media	17.2
714	7	Sololá	701	Sololá	3	Barraneche	1	Enero	2023-04-01T00:00:00	2024-11-06T17:00:00	4	Temperatura máxima	18.6
715	7	Sololá	701	Sololá	3	Barraneche	1	Enero	2023-04-01T00:00:00	2024-11-06T17:00:00	3	Temperatura mínima	17.2
716	7	Sololá	701	Sololá	3	Barraneche	1	Enero	2023-04-01T00:00:00	2024-11-06T17:00:00	5	Humedad	41
717	7	Sololá	701	Sololá	3	Barraneche	1	Enero	2023-04-01T00:00:00	2024-11-06T17:00:00	6	Velocidad del viento	12.9
718	7	Sololá	701	Sololá	3	Barraneche	1	Enero	2023-04-01T00:00:00	2024-11-06T17:00:00	7	Dirección del viento	12.87
719	7	Sololá	701	Sololá	3	Barraneche	1	Enero	2023-04-01T00:00:00	2024-11-06T17:00:00	1	Precipitación	0
720	7	Sololá	701	Sololá	3	Barraneche	1	Enero	2023-04-01T00:00:00	2024-11-06T17:00:00	8	Radiación solar	218
721	7	Sololá	701	Sololá	3	Barraneche	1	Enero	2023-04-01T00:00:00	2024-11-06T18:00:00	2	Temperatura media	14.4
722	7	Sololá	701	Sololá	3	Barraneche	1	Enero	2023-04-01T00:00:00	2024-11-06T18:00:00	4	Temperatura máxima	17.2
723	7	Sololá	701	Sololá	3	Barraneche	1	Enero	2023-04-01T00:00:00	2024-11-06T18:00:00	3	Temperatura mínima	14.4
724	7	Sololá	701	Sololá	3	Barraneche	1	Enero	2023-04-01T00:00:00	2024-11-06T18:00:00	5	Humedad	48
725	7	Sololá	701	Sololá	3	Barraneche	1	Enero	2023-04-01T00:00:00	2024-11-06T18:00:00	6	Velocidad del viento	11.3
726	7	Sololá	701	Sololá	3	Barraneche	1	Enero	2023-04-01T00:00:00	2024-11-06T18:00:00	7	Dirección del viento	11.27
727	7	Sololá	701	Sololá	3	Barraneche	1	Enero	2023-04-01T00:00:00	2024-11-06T18:00:00	1	Precipitación	0
728	7	Sololá	701	Sololá	3	Barraneche	1	Enero	2023-04-01T00:00:00	2024-11-06T18:00:00	8	Radiación solar	28
729	7	Sololá	701	Sololá	3	Barraneche	1	Enero	2023-04-01T00:00:00	2024-11-06T19:00:00	2	Temperatura media	13.4
730	7	Sololá	701	Sololá	3	Barraneche	1	Enero	2023-04-01T00:00:00	2024-11-06T19:00:00	4	Temperatura máxima	14.4
731	7	Sololá	701	Sololá	3	Barraneche	1	Enero	2023-04-01T00:00:00	2024-11-06T19:00:00	3	Temperatura mínima	13.3
732	7	Sololá	701	Sololá	3	Barraneche	1	Enero	2023-04-01T00:00:00	2024-11-06T19:00:00	5	Humedad	46
733	7	Sololá	701	Sololá	3	Barraneche	1	Enero	2023-04-01T00:00:00	2024-11-06T19:00:00	6	Velocidad del viento	11.3
734	7	Sololá	701	Sololá	3	Barraneche	1	Enero	2023-04-01T00:00:00	2024-11-06T19:00:00	7	Dirección del viento	11.27
735	7	Sololá	701	Sololá	3	Barraneche	1	Enero	2023-04-01T00:00:00	2024-11-06T19:00:00	1	Precipitación	0
736	7	Sololá	701	Sololá	3	Barraneche	1	Enero	2023-04-01T00:00:00	2024-11-06T19:00:00	8	Radiación solar	0
737	7	Sololá	701	Sololá	3	Barraneche	1	Enero	2023-04-01T00:00:00	2024-11-06T20:00:00	2	Temperatura media	13.2
738	7	Sololá	701	Sololá	3	Barraneche	1	Enero	2023-04-01T00:00:00	2024-11-06T20:00:00	4	Temperatura máxima	13.4
739	7	Sololá	701	Sololá	3	Barraneche	1	Enero	2023-04-01T00:00:00	2024-11-06T20:00:00	3	Temperatura mínima	13
740	7	Sololá	701	Sololá	3	Barraneche	1	Enero	2023-04-01T00:00:00	2024-11-06T20:00:00	5	Humedad	44
741	7	Sololá	701	Sololá	3	Barraneche	1	Enero	2023-04-01T00:00:00	2024-11-06T20:00:00	6	Velocidad del viento	11.3
742	7	Sololá	701	Sololá	3	Barraneche	1	Enero	2023-04-01T00:00:00	2024-11-06T20:00:00	7	Dirección del viento	11.27
743	7	Sololá	701	Sololá	3	Barraneche	1	Enero	2023-04-01T00:00:00	2024-11-06T20:00:00	1	Precipitación	0
744	7	Sololá	701	Sololá	3	Barraneche	1	Enero	2023-04-01T00:00:00	2024-11-06T20:00:00	8	Radiación solar	0
745	7	Sololá	701	Sololá	3	Barraneche	1	Enero	2023-04-01T00:00:00	2024-11-06T21:00:00	2	Temperatura media	13
746	7	Sololá	701	Sololá	3	Barraneche	1	Enero	2023-04-01T00:00:00	2024-11-06T21:00:00	4	Temperatura máxima	13.2
747	7	Sololá	701	Sololá	3	Barraneche	1	Enero	2023-04-01T00:00:00	2024-11-06T21:00:00	3	Temperatura mínima	12.6
748	7	Sololá	701	Sololá	3	Barraneche	1	Enero	2023-04-01T00:00:00	2024-11-06T21:00:00	5	Humedad	42
749	7	Sololá	701	Sololá	3	Barraneche	1	Enero	2023-04-01T00:00:00	2024-11-06T21:00:00	6	Velocidad del viento	6.4
750	7	Sololá	701	Sololá	3	Barraneche	1	Enero	2023-04-01T00:00:00	2024-11-06T21:00:00	7	Dirección del viento	6.44
751	7	Sololá	701	Sololá	3	Barraneche	1	Enero	2023-04-01T00:00:00	2024-11-06T21:00:00	1	Precipitación	0
752	7	Sololá	701	Sololá	3	Barraneche	1	Enero	2023-04-01T00:00:00	2024-11-06T21:00:00	8	Radiación solar	0
753	7	Sololá	701	Sololá	3	Barraneche	1	Enero	2023-04-01T00:00:00	2024-11-06T22:00:00	2	Temperatura media	12.2
754	7	Sololá	701	Sololá	3	Barraneche	1	Enero	2023-04-01T00:00:00	2024-11-06T22:00:00	4	Temperatura máxima	13
755	7	Sololá	701	Sololá	3	Barraneche	1	Enero	2023-04-01T00:00:00	2024-11-06T22:00:00	3	Temperatura mínima	12.1
756	7	Sololá	701	Sololá	3	Barraneche	1	Enero	2023-04-01T00:00:00	2024-11-06T22:00:00	5	Humedad	41
757	7	Sololá	701	Sololá	3	Barraneche	1	Enero	2023-04-01T00:00:00	2024-11-06T22:00:00	6	Velocidad del viento	6.4
758	7	Sololá	701	Sololá	3	Barraneche	1	Enero	2023-04-01T00:00:00	2024-11-06T22:00:00	7	Dirección del viento	6.44
759	7	Sololá	701	Sololá	3	Barraneche	1	Enero	2023-04-01T00:00:00	2024-11-06T22:00:00	1	Precipitación	0
760	7	Sololá	701	Sololá	3	Barraneche	1	Enero	2023-04-01T00:00:00	2024-11-06T22:00:00	8	Radiación solar	0
761	7	Sololá	701	Sololá	3	Barraneche	1	Enero	2023-04-01T00:00:00	2024-11-06T23:00:00	2	Temperatura media	11.8
762	7	Sololá	701	Sololá	3	Barraneche	1	Enero	2023-04-01T00:00:00	2024-11-06T23:00:00	4	Temperatura máxima	12.9
763	7	Sololá	701	Sololá	3	Barraneche	1	Enero	2023-04-01T00:00:00	2024-11-06T23:00:00	3	Temperatura mínima	11.8
764	7	Sololá	701	Sololá	3	Barraneche	1	Enero	2023-04-01T00:00:00	2024-11-06T23:00:00	5	Humedad	40
765	7	Sololá	701	Sololá	3	Barraneche	1	Enero	2023-04-01T00:00:00	2024-11-06T23:00:00	6	Velocidad del viento	12.9
766	7	Sololá	701	Sololá	3	Barraneche	1	Enero	2023-04-01T00:00:00	2024-11-06T23:00:00	7	Dirección del viento	12.87
767	7	Sololá	701	Sololá	3	Barraneche	1	Enero	2023-04-01T00:00:00	2024-11-06T23:00:00	1	Precipitación	0
768	7	Sololá	701	Sololá	3	Barraneche	1	Enero	2023-04-01T00:00:00	2024-11-06T23:00:00	8	Radiación solar	0
769	7	Sololá	701	Sololá	3	Barraneche	1	Enero	2023-05-01T00:00:00	2024-11-06T00:00:00	2	Temperatura media	10.8
770	7	Sololá	701	Sololá	3	Barraneche	1	Enero	2023-05-01T00:00:00	2024-11-06T00:00:00	4	Temperatura máxima	12.3
771	7	Sololá	701	Sololá	3	Barraneche	1	Enero	2023-05-01T00:00:00	2024-11-06T00:00:00	3	Temperatura mínima	10.8
772	7	Sololá	701	Sololá	3	Barraneche	1	Enero	2023-05-01T00:00:00	2024-11-06T00:00:00	5	Humedad	37
773	7	Sololá	701	Sololá	3	Barraneche	1	Enero	2023-05-01T00:00:00	2024-11-06T00:00:00	6	Velocidad del viento	8
774	7	Sololá	701	Sololá	3	Barraneche	1	Enero	2023-05-01T00:00:00	2024-11-06T00:00:00	7	Dirección del viento	8.05
775	7	Sololá	701	Sololá	3	Barraneche	1	Enero	2023-05-01T00:00:00	2024-11-06T00:00:00	1	Precipitación	0
776	7	Sololá	701	Sololá	3	Barraneche	1	Enero	2023-05-01T00:00:00	2024-11-06T00:00:00	8	Radiación solar	0
777	7	Sololá	701	Sololá	3	Barraneche	1	Enero	2023-05-01T00:00:00	2024-11-06T01:00:00	2	Temperatura media	12.3
778	7	Sololá	701	Sololá	3	Barraneche	1	Enero	2023-05-01T00:00:00	2024-11-06T01:00:00	4	Temperatura máxima	12.3
779	7	Sololá	701	Sololá	3	Barraneche	1	Enero	2023-05-01T00:00:00	2024-11-06T01:00:00	3	Temperatura mínima	10.7
780	7	Sololá	701	Sololá	3	Barraneche	1	Enero	2023-05-01T00:00:00	2024-11-06T01:00:00	5	Humedad	45
781	7	Sololá	701	Sololá	3	Barraneche	1	Enero	2023-05-01T00:00:00	2024-11-06T01:00:00	6	Velocidad del viento	8
782	7	Sololá	701	Sololá	3	Barraneche	1	Enero	2023-05-01T00:00:00	2024-11-06T01:00:00	7	Dirección del viento	8.05
783	7	Sololá	701	Sololá	3	Barraneche	1	Enero	2023-05-01T00:00:00	2024-11-06T01:00:00	1	Precipitación	0
784	7	Sololá	701	Sololá	3	Barraneche	1	Enero	2023-05-01T00:00:00	2024-11-06T01:00:00	8	Radiación solar	0
785	7	Sololá	701	Sololá	3	Barraneche	1	Enero	2023-05-01T00:00:00	2024-11-06T02:00:00	2	Temperatura media	12.8
786	7	Sololá	701	Sololá	3	Barraneche	1	Enero	2023-05-01T00:00:00	2024-11-06T02:00:00	4	Temperatura máxima	12.9
787	7	Sololá	701	Sololá	3	Barraneche	1	Enero	2023-05-01T00:00:00	2024-11-06T02:00:00	3	Temperatura mínima	12.3
788	7	Sololá	701	Sololá	3	Barraneche	1	Enero	2023-05-01T00:00:00	2024-11-06T02:00:00	5	Humedad	58
789	7	Sololá	701	Sololá	3	Barraneche	1	Enero	2023-05-01T00:00:00	2024-11-06T02:00:00	6	Velocidad del viento	9.7
790	7	Sololá	701	Sololá	3	Barraneche	1	Enero	2023-05-01T00:00:00	2024-11-06T02:00:00	7	Dirección del viento	9.66
791	7	Sololá	701	Sololá	3	Barraneche	1	Enero	2023-05-01T00:00:00	2024-11-06T02:00:00	1	Precipitación	0
792	7	Sololá	701	Sololá	3	Barraneche	1	Enero	2023-05-01T00:00:00	2024-11-06T02:00:00	8	Radiación solar	0
793	7	Sololá	701	Sololá	3	Barraneche	1	Enero	2023-05-01T00:00:00	2024-11-06T03:00:00	2	Temperatura media	12.8
794	7	Sololá	701	Sololá	3	Barraneche	1	Enero	2023-05-01T00:00:00	2024-11-06T03:00:00	4	Temperatura máxima	12.8
795	7	Sololá	701	Sololá	3	Barraneche	1	Enero	2023-05-01T00:00:00	2024-11-06T03:00:00	3	Temperatura mínima	12.2
796	7	Sololá	701	Sololá	3	Barraneche	1	Enero	2023-05-01T00:00:00	2024-11-06T03:00:00	5	Humedad	56
797	7	Sololá	701	Sololá	3	Barraneche	1	Enero	2023-05-01T00:00:00	2024-11-06T03:00:00	6	Velocidad del viento	11.3
798	7	Sololá	701	Sololá	3	Barraneche	1	Enero	2023-05-01T00:00:00	2024-11-06T03:00:00	7	Dirección del viento	11.27
799	7	Sololá	701	Sololá	3	Barraneche	1	Enero	2023-05-01T00:00:00	2024-11-06T03:00:00	1	Precipitación	0
800	7	Sololá	701	Sololá	3	Barraneche	1	Enero	2023-05-01T00:00:00	2024-11-06T03:00:00	8	Radiación solar	0
801	7	Sololá	701	Sololá	3	Barraneche	1	Enero	2023-05-01T00:00:00	2024-11-06T04:00:00	2	Temperatura media	12.6
802	7	Sololá	701	Sololá	3	Barraneche	1	Enero	2023-05-01T00:00:00	2024-11-06T04:00:00	4	Temperatura máxima	12.9
803	7	Sololá	701	Sololá	3	Barraneche	1	Enero	2023-05-01T00:00:00	2024-11-06T04:00:00	3	Temperatura mínima	12.6
804	7	Sololá	701	Sololá	3	Barraneche	1	Enero	2023-05-01T00:00:00	2024-11-06T04:00:00	5	Humedad	50
805	7	Sololá	701	Sololá	3	Barraneche	1	Enero	2023-05-01T00:00:00	2024-11-06T04:00:00	6	Velocidad del viento	14.5
806	7	Sololá	701	Sololá	3	Barraneche	1	Enero	2023-05-01T00:00:00	2024-11-06T04:00:00	7	Dirección del viento	14.48
807	7	Sololá	701	Sololá	3	Barraneche	1	Enero	2023-05-01T00:00:00	2024-11-06T04:00:00	1	Precipitación	0
808	7	Sololá	701	Sololá	3	Barraneche	1	Enero	2023-05-01T00:00:00	2024-11-06T04:00:00	8	Radiación solar	0
809	7	Sololá	701	Sololá	3	Barraneche	1	Enero	2023-05-01T00:00:00	2024-11-06T05:00:00	2	Temperatura media	12.3
810	7	Sololá	701	Sololá	3	Barraneche	1	Enero	2023-05-01T00:00:00	2024-11-06T05:00:00	4	Temperatura máxima	12.6
811	7	Sololá	701	Sololá	3	Barraneche	1	Enero	2023-05-01T00:00:00	2024-11-06T05:00:00	3	Temperatura mínima	12.3
812	7	Sololá	701	Sololá	3	Barraneche	1	Enero	2023-05-01T00:00:00	2024-11-06T05:00:00	5	Humedad	59
813	7	Sololá	701	Sololá	3	Barraneche	1	Enero	2023-05-01T00:00:00	2024-11-06T05:00:00	6	Velocidad del viento	24.1
814	7	Sololá	701	Sololá	3	Barraneche	1	Enero	2023-05-01T00:00:00	2024-11-06T05:00:00	7	Dirección del viento	24.14
815	7	Sololá	701	Sololá	3	Barraneche	1	Enero	2023-05-01T00:00:00	2024-11-06T05:00:00	1	Precipitación	0
816	7	Sololá	701	Sololá	3	Barraneche	1	Enero	2023-05-01T00:00:00	2024-11-06T05:00:00	8	Radiación solar	0
817	7	Sololá	701	Sololá	3	Barraneche	1	Enero	2023-05-01T00:00:00	2024-11-06T06:00:00	2	Temperatura media	12.1
818	7	Sololá	701	Sololá	3	Barraneche	1	Enero	2023-05-01T00:00:00	2024-11-06T06:00:00	4	Temperatura máxima	12.3
819	7	Sololá	701	Sololá	3	Barraneche	1	Enero	2023-05-01T00:00:00	2024-11-06T06:00:00	3	Temperatura mínima	12.1
820	7	Sololá	701	Sololá	3	Barraneche	1	Enero	2023-05-01T00:00:00	2024-11-06T06:00:00	5	Humedad	61
821	7	Sololá	701	Sololá	3	Barraneche	1	Enero	2023-05-01T00:00:00	2024-11-06T06:00:00	6	Velocidad del viento	29
822	7	Sololá	701	Sololá	3	Barraneche	1	Enero	2023-05-01T00:00:00	2024-11-06T06:00:00	7	Dirección del viento	28.97
823	7	Sololá	701	Sololá	3	Barraneche	1	Enero	2023-05-01T00:00:00	2024-11-06T06:00:00	1	Precipitación	0
824	7	Sololá	701	Sololá	3	Barraneche	1	Enero	2023-05-01T00:00:00	2024-11-06T06:00:00	8	Radiación solar	0
825	7	Sololá	701	Sololá	3	Barraneche	1	Enero	2023-05-01T00:00:00	2024-11-06T07:00:00	2	Temperatura media	12.2
826	7	Sololá	701	Sololá	3	Barraneche	1	Enero	2023-05-01T00:00:00	2024-11-06T07:00:00	4	Temperatura máxima	12.3
827	7	Sololá	701	Sololá	3	Barraneche	1	Enero	2023-05-01T00:00:00	2024-11-06T07:00:00	3	Temperatura mínima	11.8
828	7	Sololá	701	Sololá	3	Barraneche	1	Enero	2023-05-01T00:00:00	2024-11-06T07:00:00	5	Humedad	64
829	7	Sololá	701	Sololá	3	Barraneche	1	Enero	2023-05-01T00:00:00	2024-11-06T07:00:00	6	Velocidad del viento	25.7
830	7	Sololá	701	Sololá	3	Barraneche	1	Enero	2023-05-01T00:00:00	2024-11-06T07:00:00	7	Dirección del viento	25.75
831	7	Sololá	701	Sololá	3	Barraneche	1	Enero	2023-05-01T00:00:00	2024-11-06T07:00:00	1	Precipitación	0
832	7	Sololá	701	Sololá	3	Barraneche	1	Enero	2023-05-01T00:00:00	2024-11-06T07:00:00	8	Radiación solar	8
833	7	Sololá	701	Sololá	3	Barraneche	1	Enero	2023-05-01T00:00:00	2024-11-06T08:00:00	2	Temperatura media	12.5
834	7	Sololá	701	Sololá	3	Barraneche	1	Enero	2023-05-01T00:00:00	2024-11-06T08:00:00	4	Temperatura máxima	12.8
835	7	Sololá	701	Sololá	3	Barraneche	1	Enero	2023-05-01T00:00:00	2024-11-06T08:00:00	3	Temperatura mínima	12.1
836	7	Sololá	701	Sololá	3	Barraneche	1	Enero	2023-05-01T00:00:00	2024-11-06T08:00:00	5	Humedad	65
837	7	Sololá	701	Sololá	3	Barraneche	1	Enero	2023-05-01T00:00:00	2024-11-06T08:00:00	6	Velocidad del viento	20.9
838	7	Sololá	701	Sololá	3	Barraneche	1	Enero	2023-05-01T00:00:00	2024-11-06T08:00:00	7	Dirección del viento	20.92
839	7	Sololá	701	Sololá	3	Barraneche	1	Enero	2023-05-01T00:00:00	2024-11-06T08:00:00	1	Precipitación	0
840	7	Sololá	701	Sololá	3	Barraneche	1	Enero	2023-05-01T00:00:00	2024-11-06T08:00:00	8	Radiación solar	127
841	7	Sololá	701	Sololá	3	Barraneche	1	Enero	2023-05-01T00:00:00	2024-11-06T09:00:00	2	Temperatura media	12.6
842	7	Sololá	701	Sololá	3	Barraneche	1	Enero	2023-05-01T00:00:00	2024-11-06T09:00:00	4	Temperatura máxima	12.7
843	7	Sololá	701	Sololá	3	Barraneche	1	Enero	2023-05-01T00:00:00	2024-11-06T09:00:00	3	Temperatura mínima	11.7
844	7	Sololá	701	Sololá	3	Barraneche	1	Enero	2023-05-01T00:00:00	2024-11-06T09:00:00	5	Humedad	58
845	7	Sololá	701	Sololá	3	Barraneche	1	Enero	2023-05-01T00:00:00	2024-11-06T09:00:00	6	Velocidad del viento	22.5
846	7	Sololá	701	Sololá	3	Barraneche	1	Enero	2023-05-01T00:00:00	2024-11-06T09:00:00	7	Dirección del viento	22.53
847	7	Sololá	701	Sololá	3	Barraneche	1	Enero	2023-05-01T00:00:00	2024-11-06T09:00:00	1	Precipitación	0
848	7	Sololá	701	Sololá	3	Barraneche	1	Enero	2023-05-01T00:00:00	2024-11-06T09:00:00	8	Radiación solar	264
849	7	Sololá	701	Sololá	3	Barraneche	1	Enero	2023-05-01T00:00:00	2024-11-06T10:00:00	2	Temperatura media	13.8
850	7	Sololá	701	Sololá	3	Barraneche	1	Enero	2023-05-01T00:00:00	2024-11-06T10:00:00	4	Temperatura máxima	14.2
851	7	Sololá	701	Sololá	3	Barraneche	1	Enero	2023-05-01T00:00:00	2024-11-06T10:00:00	3	Temperatura mínima	12.5
852	7	Sololá	701	Sololá	3	Barraneche	1	Enero	2023-05-01T00:00:00	2024-11-06T10:00:00	5	Humedad	49
853	7	Sololá	701	Sololá	3	Barraneche	1	Enero	2023-05-01T00:00:00	2024-11-06T10:00:00	6	Velocidad del viento	24.1
854	7	Sololá	701	Sololá	3	Barraneche	1	Enero	2023-05-01T00:00:00	2024-11-06T10:00:00	7	Dirección del viento	24.14
855	7	Sololá	701	Sololá	3	Barraneche	1	Enero	2023-05-01T00:00:00	2024-11-06T10:00:00	1	Precipitación	0
856	7	Sololá	701	Sololá	3	Barraneche	1	Enero	2023-05-01T00:00:00	2024-11-06T10:00:00	8	Radiación solar	611
857	7	Sololá	701	Sololá	3	Barraneche	1	Enero	2023-05-01T00:00:00	2024-11-06T11:00:00	2	Temperatura media	14.7
858	7	Sololá	701	Sololá	3	Barraneche	1	Enero	2023-05-01T00:00:00	2024-11-06T11:00:00	4	Temperatura máxima	14.8
859	7	Sololá	701	Sololá	3	Barraneche	1	Enero	2023-05-01T00:00:00	2024-11-06T11:00:00	3	Temperatura mínima	13.7
860	7	Sololá	701	Sololá	3	Barraneche	1	Enero	2023-05-01T00:00:00	2024-11-06T11:00:00	5	Humedad	49
861	7	Sololá	701	Sololá	3	Barraneche	1	Enero	2023-05-01T00:00:00	2024-11-06T11:00:00	6	Velocidad del viento	24.1
862	7	Sololá	701	Sololá	3	Barraneche	1	Enero	2023-05-01T00:00:00	2024-11-06T11:00:00	7	Dirección del viento	24.14
863	7	Sololá	701	Sololá	3	Barraneche	1	Enero	2023-05-01T00:00:00	2024-11-06T11:00:00	1	Precipitación	0
864	7	Sololá	701	Sololá	3	Barraneche	1	Enero	2023-05-01T00:00:00	2024-11-06T11:00:00	8	Radiación solar	756
865	7	Sololá	701	Sololá	3	Barraneche	1	Enero	2023-05-01T00:00:00	2024-11-06T12:00:00	2	Temperatura media	14.7
866	7	Sololá	701	Sololá	3	Barraneche	1	Enero	2023-05-01T00:00:00	2024-11-06T12:00:00	4	Temperatura máxima	15.2
867	7	Sololá	701	Sololá	3	Barraneche	1	Enero	2023-05-01T00:00:00	2024-11-06T12:00:00	3	Temperatura mínima	14
868	7	Sololá	701	Sololá	3	Barraneche	1	Enero	2023-05-01T00:00:00	2024-11-06T12:00:00	5	Humedad	48
869	7	Sololá	701	Sololá	3	Barraneche	1	Enero	2023-05-01T00:00:00	2024-11-06T12:00:00	6	Velocidad del viento	17.7
870	7	Sololá	701	Sololá	3	Barraneche	1	Enero	2023-05-01T00:00:00	2024-11-06T12:00:00	7	Dirección del viento	17.7
871	7	Sololá	701	Sololá	3	Barraneche	1	Enero	2023-05-01T00:00:00	2024-11-06T12:00:00	1	Precipitación	0
872	7	Sololá	701	Sololá	3	Barraneche	1	Enero	2023-05-01T00:00:00	2024-11-06T12:00:00	8	Radiación solar	822
873	7	Sololá	701	Sololá	3	Barraneche	1	Enero	2023-05-01T00:00:00	2024-11-06T13:00:00	2	Temperatura media	14.5
874	7	Sololá	701	Sololá	3	Barraneche	1	Enero	2023-05-01T00:00:00	2024-11-06T13:00:00	4	Temperatura máxima	14.8
875	7	Sololá	701	Sololá	3	Barraneche	1	Enero	2023-05-01T00:00:00	2024-11-06T13:00:00	3	Temperatura mínima	14.1
876	7	Sololá	701	Sololá	3	Barraneche	1	Enero	2023-05-01T00:00:00	2024-11-06T13:00:00	5	Humedad	52
877	7	Sololá	701	Sololá	3	Barraneche	1	Enero	2023-05-01T00:00:00	2024-11-06T13:00:00	6	Velocidad del viento	12.9
878	7	Sololá	701	Sololá	3	Barraneche	1	Enero	2023-05-01T00:00:00	2024-11-06T13:00:00	7	Dirección del viento	12.87
879	7	Sololá	701	Sololá	3	Barraneche	1	Enero	2023-05-01T00:00:00	2024-11-06T13:00:00	1	Precipitación	0
880	7	Sololá	701	Sololá	3	Barraneche	1	Enero	2023-05-01T00:00:00	2024-11-06T13:00:00	8	Radiación solar	331
881	7	Sololá	701	Sololá	3	Barraneche	1	Enero	2023-05-01T00:00:00	2024-11-06T14:00:00	2	Temperatura media	14.4
882	7	Sololá	701	Sololá	3	Barraneche	1	Enero	2023-05-01T00:00:00	2024-11-06T14:00:00	4	Temperatura máxima	15.2
883	7	Sololá	701	Sololá	3	Barraneche	1	Enero	2023-05-01T00:00:00	2024-11-06T14:00:00	3	Temperatura mínima	14.3
884	7	Sololá	701	Sololá	3	Barraneche	1	Enero	2023-05-01T00:00:00	2024-11-06T14:00:00	5	Humedad	53
885	7	Sololá	701	Sololá	3	Barraneche	1	Enero	2023-05-01T00:00:00	2024-11-06T14:00:00	6	Velocidad del viento	6.4
886	7	Sololá	701	Sololá	3	Barraneche	1	Enero	2023-05-01T00:00:00	2024-11-06T14:00:00	7	Dirección del viento	6.44
887	7	Sololá	701	Sololá	3	Barraneche	1	Enero	2023-05-01T00:00:00	2024-11-06T14:00:00	1	Precipitación	0
888	7	Sololá	701	Sololá	3	Barraneche	1	Enero	2023-05-01T00:00:00	2024-11-06T14:00:00	8	Radiación solar	294
889	7	Sololá	701	Sololá	3	Barraneche	1	Enero	2023-05-01T00:00:00	2024-11-06T15:00:00	2	Temperatura media	13.8
890	7	Sololá	701	Sololá	3	Barraneche	1	Enero	2023-05-01T00:00:00	2024-11-06T15:00:00	4	Temperatura máxima	14.4
891	7	Sololá	701	Sololá	3	Barraneche	1	Enero	2023-05-01T00:00:00	2024-11-06T15:00:00	3	Temperatura mínima	13.5
892	7	Sololá	701	Sololá	3	Barraneche	1	Enero	2023-05-01T00:00:00	2024-11-06T15:00:00	5	Humedad	56
893	7	Sololá	701	Sololá	3	Barraneche	1	Enero	2023-05-01T00:00:00	2024-11-06T15:00:00	6	Velocidad del viento	9.7
894	7	Sololá	701	Sololá	3	Barraneche	1	Enero	2023-05-01T00:00:00	2024-11-06T15:00:00	7	Dirección del viento	9.66
895	7	Sololá	701	Sololá	3	Barraneche	1	Enero	2023-05-01T00:00:00	2024-11-06T15:00:00	1	Precipitación	0
896	7	Sololá	701	Sololá	3	Barraneche	1	Enero	2023-05-01T00:00:00	2024-11-06T15:00:00	8	Radiación solar	186
897	7	Sololá	701	Sololá	3	Barraneche	1	Enero	2023-05-01T00:00:00	2024-11-06T16:00:00	2	Temperatura media	12.3
898	7	Sololá	701	Sololá	3	Barraneche	1	Enero	2023-05-01T00:00:00	2024-11-06T16:00:00	4	Temperatura máxima	13.9
899	7	Sololá	701	Sololá	3	Barraneche	1	Enero	2023-05-01T00:00:00	2024-11-06T16:00:00	3	Temperatura mínima	12.3
900	7	Sololá	701	Sololá	3	Barraneche	1	Enero	2023-05-01T00:00:00	2024-11-06T16:00:00	5	Humedad	64
901	7	Sololá	701	Sololá	3	Barraneche	1	Enero	2023-05-01T00:00:00	2024-11-06T16:00:00	6	Velocidad del viento	8
902	7	Sololá	701	Sololá	3	Barraneche	1	Enero	2023-05-01T00:00:00	2024-11-06T16:00:00	7	Dirección del viento	8.05
903	7	Sololá	701	Sololá	3	Barraneche	1	Enero	2023-05-01T00:00:00	2024-11-06T16:00:00	1	Precipitación	0
904	7	Sololá	701	Sololá	3	Barraneche	1	Enero	2023-05-01T00:00:00	2024-11-06T16:00:00	8	Radiación solar	134
905	7	Sololá	701	Sololá	3	Barraneche	1	Enero	2023-05-01T00:00:00	2024-11-06T17:00:00	2	Temperatura media	11.2
906	7	Sololá	701	Sololá	3	Barraneche	1	Enero	2023-05-01T00:00:00	2024-11-06T17:00:00	4	Temperatura máxima	12.3
907	7	Sololá	701	Sololá	3	Barraneche	1	Enero	2023-05-01T00:00:00	2024-11-06T17:00:00	3	Temperatura mínima	11.2
908	7	Sololá	701	Sololá	3	Barraneche	1	Enero	2023-05-01T00:00:00	2024-11-06T17:00:00	5	Humedad	70
909	7	Sololá	701	Sololá	3	Barraneche	1	Enero	2023-05-01T00:00:00	2024-11-06T17:00:00	6	Velocidad del viento	6.4
910	7	Sololá	701	Sololá	3	Barraneche	1	Enero	2023-05-01T00:00:00	2024-11-06T17:00:00	7	Dirección del viento	6.44
911	7	Sololá	701	Sololá	3	Barraneche	1	Enero	2023-05-01T00:00:00	2024-11-06T17:00:00	1	Precipitación	0
912	7	Sololá	701	Sololá	3	Barraneche	1	Enero	2023-05-01T00:00:00	2024-11-06T17:00:00	8	Radiación solar	27
913	7	Sololá	701	Sololá	3	Barraneche	1	Enero	2023-05-01T00:00:00	2024-11-06T18:00:00	2	Temperatura media	10.4
914	7	Sololá	701	Sololá	3	Barraneche	1	Enero	2023-05-01T00:00:00	2024-11-06T18:00:00	4	Temperatura máxima	11.2
915	7	Sololá	701	Sololá	3	Barraneche	1	Enero	2023-05-01T00:00:00	2024-11-06T18:00:00	3	Temperatura mínima	10.4
916	7	Sololá	701	Sololá	3	Barraneche	1	Enero	2023-05-01T00:00:00	2024-11-06T18:00:00	5	Humedad	66
917	7	Sololá	701	Sololá	3	Barraneche	1	Enero	2023-05-01T00:00:00	2024-11-06T18:00:00	6	Velocidad del viento	6.4
918	7	Sololá	701	Sololá	3	Barraneche	1	Enero	2023-05-01T00:00:00	2024-11-06T18:00:00	7	Dirección del viento	6.44
919	7	Sololá	701	Sololá	3	Barraneche	1	Enero	2023-05-01T00:00:00	2024-11-06T18:00:00	1	Precipitación	0.2
920	7	Sololá	701	Sololá	3	Barraneche	1	Enero	2023-05-01T00:00:00	2024-11-06T18:00:00	8	Radiación solar	7
921	7	Sololá	701	Sololá	3	Barraneche	1	Enero	2023-05-01T00:00:00	2024-11-06T19:00:00	2	Temperatura media	10.4
922	7	Sololá	701	Sololá	3	Barraneche	1	Enero	2023-05-01T00:00:00	2024-11-06T19:00:00	4	Temperatura máxima	10.5
923	7	Sololá	701	Sololá	3	Barraneche	1	Enero	2023-05-01T00:00:00	2024-11-06T19:00:00	3	Temperatura mínima	10.3
924	7	Sololá	701	Sololá	3	Barraneche	1	Enero	2023-05-01T00:00:00	2024-11-06T19:00:00	5	Humedad	69
925	7	Sololá	701	Sololá	3	Barraneche	1	Enero	2023-05-01T00:00:00	2024-11-06T19:00:00	6	Velocidad del viento	16.1
926	7	Sololá	701	Sololá	3	Barraneche	1	Enero	2023-05-01T00:00:00	2024-11-06T19:00:00	7	Dirección del viento	16.09
927	7	Sololá	701	Sololá	3	Barraneche	1	Enero	2023-05-01T00:00:00	2024-11-06T19:00:00	1	Precipitación	0
928	7	Sololá	701	Sololá	3	Barraneche	1	Enero	2023-05-01T00:00:00	2024-11-06T19:00:00	8	Radiación solar	0
929	7	Sololá	701	Sololá	3	Barraneche	1	Enero	2023-05-01T00:00:00	2024-11-06T20:00:00	2	Temperatura media	10.2
930	7	Sololá	701	Sololá	3	Barraneche	1	Enero	2023-05-01T00:00:00	2024-11-06T20:00:00	4	Temperatura máxima	10.6
931	7	Sololá	701	Sololá	3	Barraneche	1	Enero	2023-05-01T00:00:00	2024-11-06T20:00:00	3	Temperatura mínima	10.2
932	7	Sololá	701	Sololá	3	Barraneche	1	Enero	2023-05-01T00:00:00	2024-11-06T20:00:00	5	Humedad	68
933	7	Sololá	701	Sololá	3	Barraneche	1	Enero	2023-05-01T00:00:00	2024-11-06T20:00:00	6	Velocidad del viento	20.9
934	7	Sololá	701	Sololá	3	Barraneche	1	Enero	2023-05-01T00:00:00	2024-11-06T20:00:00	7	Dirección del viento	20.92
935	7	Sololá	701	Sololá	3	Barraneche	1	Enero	2023-05-01T00:00:00	2024-11-06T20:00:00	1	Precipitación	0
936	7	Sololá	701	Sololá	3	Barraneche	1	Enero	2023-05-01T00:00:00	2024-11-06T20:00:00	8	Radiación solar	0
937	7	Sololá	701	Sololá	3	Barraneche	1	Enero	2023-05-01T00:00:00	2024-11-06T21:00:00	2	Temperatura media	10.3
938	7	Sololá	701	Sololá	3	Barraneche	1	Enero	2023-05-01T00:00:00	2024-11-06T21:00:00	4	Temperatura máxima	10.4
939	7	Sololá	701	Sololá	3	Barraneche	1	Enero	2023-05-01T00:00:00	2024-11-06T21:00:00	3	Temperatura mínima	9.8
940	7	Sololá	701	Sololá	3	Barraneche	1	Enero	2023-05-01T00:00:00	2024-11-06T21:00:00	5	Humedad	63
941	7	Sololá	701	Sololá	3	Barraneche	1	Enero	2023-05-01T00:00:00	2024-11-06T21:00:00	6	Velocidad del viento	32.2
942	7	Sololá	701	Sololá	3	Barraneche	1	Enero	2023-05-01T00:00:00	2024-11-06T21:00:00	7	Dirección del viento	32.19
943	7	Sololá	701	Sololá	3	Barraneche	1	Enero	2023-05-01T00:00:00	2024-11-06T21:00:00	1	Precipitación	0.2
944	7	Sololá	701	Sololá	3	Barraneche	1	Enero	2023-05-01T00:00:00	2024-11-06T21:00:00	8	Radiación solar	0
945	7	Sololá	701	Sololá	3	Barraneche	1	Enero	2023-05-01T00:00:00	2024-11-06T22:00:00	2	Temperatura media	10.3
946	7	Sololá	701	Sololá	3	Barraneche	1	Enero	2023-05-01T00:00:00	2024-11-06T22:00:00	4	Temperatura máxima	10.7
947	7	Sololá	701	Sololá	3	Barraneche	1	Enero	2023-05-01T00:00:00	2024-11-06T22:00:00	3	Temperatura mínima	10.1
948	7	Sololá	701	Sololá	3	Barraneche	1	Enero	2023-05-01T00:00:00	2024-11-06T22:00:00	5	Humedad	58
949	7	Sololá	701	Sololá	3	Barraneche	1	Enero	2023-05-01T00:00:00	2024-11-06T22:00:00	6	Velocidad del viento	32.2
950	7	Sololá	701	Sololá	3	Barraneche	1	Enero	2023-05-01T00:00:00	2024-11-06T22:00:00	7	Dirección del viento	32.19
951	7	Sololá	701	Sololá	3	Barraneche	1	Enero	2023-05-01T00:00:00	2024-11-06T22:00:00	1	Precipitación	0
952	7	Sololá	701	Sololá	3	Barraneche	1	Enero	2023-05-01T00:00:00	2024-11-06T22:00:00	8	Radiación solar	0
953	7	Sololá	701	Sololá	3	Barraneche	1	Enero	2023-05-01T00:00:00	2024-11-06T23:00:00	2	Temperatura media	10.3
954	7	Sololá	701	Sololá	3	Barraneche	1	Enero	2023-05-01T00:00:00	2024-11-06T23:00:00	4	Temperatura máxima	10.6
955	7	Sololá	701	Sololá	3	Barraneche	1	Enero	2023-05-01T00:00:00	2024-11-06T23:00:00	3	Temperatura mínima	10.2
956	7	Sololá	701	Sololá	3	Barraneche	1	Enero	2023-05-01T00:00:00	2024-11-06T23:00:00	5	Humedad	53
957	7	Sololá	701	Sololá	3	Barraneche	1	Enero	2023-05-01T00:00:00	2024-11-06T23:00:00	6	Velocidad del viento	24.1
958	7	Sololá	701	Sololá	3	Barraneche	1	Enero	2023-05-01T00:00:00	2024-11-06T23:00:00	7	Dirección del viento	24.14
959	7	Sololá	701	Sololá	3	Barraneche	1	Enero	2023-05-01T00:00:00	2024-11-06T23:00:00	1	Precipitación	0
960	7	Sololá	701	Sololá	3	Barraneche	1	Enero	2023-05-01T00:00:00	2024-11-06T23:00:00	8	Radiación solar	0
961	7	Sololá	701	Sololá	3	Barraneche	1	Enero	2023-06-01T00:00:00	2024-11-06T00:00:00	2	Temperatura media	10.2
962	7	Sololá	701	Sololá	3	Barraneche	1	Enero	2023-06-01T00:00:00	2024-11-06T00:00:00	4	Temperatura máxima	10.6
963	7	Sololá	701	Sololá	3	Barraneche	1	Enero	2023-06-01T00:00:00	2024-11-06T00:00:00	3	Temperatura mínima	10.2
964	7	Sololá	701	Sololá	3	Barraneche	1	Enero	2023-06-01T00:00:00	2024-11-06T00:00:00	5	Humedad	52
965	7	Sololá	701	Sololá	3	Barraneche	1	Enero	2023-06-01T00:00:00	2024-11-06T00:00:00	6	Velocidad del viento	22.5
966	7	Sololá	701	Sololá	3	Barraneche	1	Enero	2023-06-01T00:00:00	2024-11-06T00:00:00	7	Dirección del viento	22.53
967	7	Sololá	701	Sololá	3	Barraneche	1	Enero	2023-06-01T00:00:00	2024-11-06T00:00:00	1	Precipitación	0
968	7	Sololá	701	Sololá	3	Barraneche	1	Enero	2023-06-01T00:00:00	2024-11-06T00:00:00	8	Radiación solar	0
969	7	Sololá	701	Sololá	3	Barraneche	1	Enero	2023-06-01T00:00:00	2024-11-06T01:00:00	2	Temperatura media	10.2
970	7	Sololá	701	Sololá	3	Barraneche	1	Enero	2023-06-01T00:00:00	2024-11-06T01:00:00	4	Temperatura máxima	10.3
971	7	Sololá	701	Sololá	3	Barraneche	1	Enero	2023-06-01T00:00:00	2024-11-06T01:00:00	3	Temperatura mínima	10
972	7	Sololá	701	Sololá	3	Barraneche	1	Enero	2023-06-01T00:00:00	2024-11-06T01:00:00	5	Humedad	50
973	7	Sololá	701	Sololá	3	Barraneche	1	Enero	2023-06-01T00:00:00	2024-11-06T01:00:00	6	Velocidad del viento	22.5
974	7	Sololá	701	Sololá	3	Barraneche	1	Enero	2023-06-01T00:00:00	2024-11-06T01:00:00	7	Dirección del viento	22.53
975	7	Sololá	701	Sololá	3	Barraneche	1	Enero	2023-06-01T00:00:00	2024-11-06T01:00:00	1	Precipitación	0
976	7	Sololá	701	Sololá	3	Barraneche	1	Enero	2023-06-01T00:00:00	2024-11-06T01:00:00	8	Radiación solar	0
977	7	Sololá	701	Sololá	3	Barraneche	1	Enero	2023-06-01T00:00:00	2024-11-06T02:00:00	2	Temperatura media	9.9
978	7	Sololá	701	Sololá	3	Barraneche	1	Enero	2023-06-01T00:00:00	2024-11-06T02:00:00	4	Temperatura máxima	10.3
979	7	Sololá	701	Sololá	3	Barraneche	1	Enero	2023-06-01T00:00:00	2024-11-06T02:00:00	3	Temperatura mínima	9.8
980	7	Sololá	701	Sololá	3	Barraneche	1	Enero	2023-06-01T00:00:00	2024-11-06T02:00:00	5	Humedad	46
981	7	Sololá	701	Sololá	3	Barraneche	1	Enero	2023-06-01T00:00:00	2024-11-06T02:00:00	6	Velocidad del viento	19.3
982	7	Sololá	701	Sololá	3	Barraneche	1	Enero	2023-06-01T00:00:00	2024-11-06T02:00:00	7	Dirección del viento	19.31
983	7	Sololá	701	Sololá	3	Barraneche	1	Enero	2023-06-01T00:00:00	2024-11-06T02:00:00	1	Precipitación	0
984	7	Sololá	701	Sololá	3	Barraneche	1	Enero	2023-06-01T00:00:00	2024-11-06T02:00:00	8	Radiación solar	0
985	7	Sololá	701	Sololá	3	Barraneche	1	Enero	2023-06-01T00:00:00	2024-11-06T03:00:00	2	Temperatura media	10.2
986	7	Sololá	701	Sololá	3	Barraneche	1	Enero	2023-06-01T00:00:00	2024-11-06T03:00:00	4	Temperatura máxima	10.3
987	7	Sololá	701	Sololá	3	Barraneche	1	Enero	2023-06-01T00:00:00	2024-11-06T03:00:00	3	Temperatura mínima	9.8
988	7	Sololá	701	Sololá	3	Barraneche	1	Enero	2023-06-01T00:00:00	2024-11-06T03:00:00	5	Humedad	45
989	7	Sololá	701	Sololá	3	Barraneche	1	Enero	2023-06-01T00:00:00	2024-11-06T03:00:00	6	Velocidad del viento	25.7
990	7	Sololá	701	Sololá	3	Barraneche	1	Enero	2023-06-01T00:00:00	2024-11-06T03:00:00	7	Dirección del viento	25.75
991	7	Sololá	701	Sololá	3	Barraneche	1	Enero	2023-06-01T00:00:00	2024-11-06T03:00:00	1	Precipitación	0
992	7	Sololá	701	Sololá	3	Barraneche	1	Enero	2023-06-01T00:00:00	2024-11-06T03:00:00	8	Radiación solar	0
993	7	Sololá	701	Sololá	3	Barraneche	1	Enero	2023-06-01T00:00:00	2024-11-06T04:00:00	2	Temperatura media	10.2
994	7	Sololá	701	Sololá	3	Barraneche	1	Enero	2023-06-01T00:00:00	2024-11-06T04:00:00	4	Temperatura máxima	10.4
995	7	Sololá	701	Sololá	3	Barraneche	1	Enero	2023-06-01T00:00:00	2024-11-06T04:00:00	3	Temperatura mínima	10.1
996	7	Sololá	701	Sololá	3	Barraneche	1	Enero	2023-06-01T00:00:00	2024-11-06T04:00:00	5	Humedad	45
997	7	Sololá	701	Sololá	3	Barraneche	1	Enero	2023-06-01T00:00:00	2024-11-06T04:00:00	6	Velocidad del viento	19.3
998	7	Sololá	701	Sololá	3	Barraneche	1	Enero	2023-06-01T00:00:00	2024-11-06T04:00:00	7	Dirección del viento	19.31
999	7	Sololá	701	Sololá	3	Barraneche	1	Enero	2023-06-01T00:00:00	2024-11-06T04:00:00	1	Precipitación	0
1000	7	Sololá	701	Sololá	3	Barraneche	1	Enero	2023-06-01T00:00:00	2024-11-06T04:00:00	8	Radiación solar	0
1001	7	Sololá	701	Sololá	3	Barraneche	1	Enero	2023-06-01T00:00:00	2024-11-06T05:00:00	2	Temperatura media	9.8
1002	7	Sololá	701	Sololá	3	Barraneche	1	Enero	2023-06-01T00:00:00	2024-11-06T05:00:00	4	Temperatura máxima	10.3
1003	7	Sololá	701	Sololá	3	Barraneche	1	Enero	2023-06-01T00:00:00	2024-11-06T05:00:00	3	Temperatura mínima	9.8
1004	7	Sololá	701	Sololá	3	Barraneche	1	Enero	2023-06-01T00:00:00	2024-11-06T05:00:00	5	Humedad	44
1005	7	Sololá	701	Sololá	3	Barraneche	1	Enero	2023-06-01T00:00:00	2024-11-06T05:00:00	6	Velocidad del viento	29
1006	7	Sololá	701	Sololá	3	Barraneche	1	Enero	2023-06-01T00:00:00	2024-11-06T05:00:00	7	Dirección del viento	28.97
1007	7	Sololá	701	Sololá	3	Barraneche	1	Enero	2023-06-01T00:00:00	2024-11-06T05:00:00	1	Precipitación	0
1008	7	Sololá	701	Sololá	3	Barraneche	1	Enero	2023-06-01T00:00:00	2024-11-06T05:00:00	8	Radiación solar	0
1009	7	Sololá	701	Sololá	3	Barraneche	1	Enero	2023-06-01T00:00:00	2024-11-06T06:00:00	2	Temperatura media	9.6
1010	7	Sololá	701	Sololá	3	Barraneche	1	Enero	2023-06-01T00:00:00	2024-11-06T06:00:00	4	Temperatura máxima	10.1
1011	7	Sololá	701	Sololá	3	Barraneche	1	Enero	2023-06-01T00:00:00	2024-11-06T06:00:00	3	Temperatura mínima	9.6
1012	7	Sololá	701	Sololá	3	Barraneche	1	Enero	2023-06-01T00:00:00	2024-11-06T06:00:00	5	Humedad	48
1013	7	Sololá	701	Sololá	3	Barraneche	1	Enero	2023-06-01T00:00:00	2024-11-06T06:00:00	6	Velocidad del viento	32.2
1014	7	Sololá	701	Sololá	3	Barraneche	1	Enero	2023-06-01T00:00:00	2024-11-06T06:00:00	7	Dirección del viento	32.19
1015	7	Sololá	701	Sololá	3	Barraneche	1	Enero	2023-06-01T00:00:00	2024-11-06T06:00:00	1	Precipitación	0
1016	7	Sololá	701	Sololá	3	Barraneche	1	Enero	2023-06-01T00:00:00	2024-11-06T06:00:00	8	Radiación solar	0
1017	7	Sololá	701	Sololá	3	Barraneche	1	Enero	2023-06-01T00:00:00	2024-11-06T07:00:00	2	Temperatura media	9.6
1018	7	Sololá	701	Sololá	3	Barraneche	1	Enero	2023-06-01T00:00:00	2024-11-06T07:00:00	4	Temperatura máxima	10
1019	7	Sololá	701	Sololá	3	Barraneche	1	Enero	2023-06-01T00:00:00	2024-11-06T07:00:00	3	Temperatura mínima	9.5
1020	7	Sololá	701	Sololá	3	Barraneche	1	Enero	2023-06-01T00:00:00	2024-11-06T07:00:00	5	Humedad	48
1021	7	Sololá	701	Sololá	3	Barraneche	1	Enero	2023-06-01T00:00:00	2024-11-06T07:00:00	6	Velocidad del viento	29
1022	7	Sololá	701	Sololá	3	Barraneche	1	Enero	2023-06-01T00:00:00	2024-11-06T07:00:00	7	Dirección del viento	28.97
1023	7	Sololá	701	Sololá	3	Barraneche	1	Enero	2023-06-01T00:00:00	2024-11-06T07:00:00	1	Precipitación	0
1024	7	Sololá	701	Sololá	3	Barraneche	1	Enero	2023-06-01T00:00:00	2024-11-06T07:00:00	8	Radiación solar	5
1025	7	Sololá	701	Sololá	3	Barraneche	1	Enero	2023-06-01T00:00:00	2024-11-06T08:00:00	2	Temperatura media	11.5
1026	7	Sololá	701	Sololá	3	Barraneche	1	Enero	2023-06-01T00:00:00	2024-11-06T08:00:00	4	Temperatura máxima	11.5
1027	7	Sololá	701	Sololá	3	Barraneche	1	Enero	2023-06-01T00:00:00	2024-11-06T08:00:00	3	Temperatura mínima	9.6
1028	7	Sololá	701	Sololá	3	Barraneche	1	Enero	2023-06-01T00:00:00	2024-11-06T08:00:00	5	Humedad	40
1029	7	Sololá	701	Sololá	3	Barraneche	1	Enero	2023-06-01T00:00:00	2024-11-06T08:00:00	6	Velocidad del viento	22.5
1030	7	Sololá	701	Sololá	3	Barraneche	1	Enero	2023-06-01T00:00:00	2024-11-06T08:00:00	7	Dirección del viento	22.53
1031	7	Sololá	701	Sololá	3	Barraneche	1	Enero	2023-06-01T00:00:00	2024-11-06T08:00:00	1	Precipitación	0
1032	7	Sololá	701	Sololá	3	Barraneche	1	Enero	2023-06-01T00:00:00	2024-11-06T08:00:00	8	Radiación solar	152
1033	7	Sololá	701	Sololá	3	Barraneche	1	Enero	2023-06-01T00:00:00	2024-11-06T09:00:00	2	Temperatura media	12.7
1034	7	Sololá	701	Sololá	3	Barraneche	1	Enero	2023-06-01T00:00:00	2024-11-06T09:00:00	4	Temperatura máxima	12.7
1035	7	Sololá	701	Sololá	3	Barraneche	1	Enero	2023-06-01T00:00:00	2024-11-06T09:00:00	3	Temperatura mínima	11.4
1036	7	Sololá	701	Sololá	3	Barraneche	1	Enero	2023-06-01T00:00:00	2024-11-06T09:00:00	5	Humedad	39
1037	7	Sololá	701	Sololá	3	Barraneche	1	Enero	2023-06-01T00:00:00	2024-11-06T09:00:00	6	Velocidad del viento	24.1
1038	7	Sololá	701	Sololá	3	Barraneche	1	Enero	2023-06-01T00:00:00	2024-11-06T09:00:00	7	Dirección del viento	24.14
1039	7	Sololá	701	Sololá	3	Barraneche	1	Enero	2023-06-01T00:00:00	2024-11-06T09:00:00	1	Precipitación	0
1040	7	Sololá	701	Sololá	3	Barraneche	1	Enero	2023-06-01T00:00:00	2024-11-06T09:00:00	8	Radiación solar	401
1041	7	Sololá	701	Sololá	3	Barraneche	1	Enero	2023-06-01T00:00:00	2024-11-06T10:00:00	2	Temperatura media	13.6
1042	7	Sololá	701	Sololá	3	Barraneche	1	Enero	2023-06-01T00:00:00	2024-11-06T10:00:00	4	Temperatura máxima	13.6
1043	7	Sololá	701	Sololá	3	Barraneche	1	Enero	2023-06-01T00:00:00	2024-11-06T10:00:00	3	Temperatura mínima	12.7
1044	7	Sololá	701	Sololá	3	Barraneche	1	Enero	2023-06-01T00:00:00	2024-11-06T10:00:00	5	Humedad	49
1045	7	Sololá	701	Sololá	3	Barraneche	1	Enero	2023-06-01T00:00:00	2024-11-06T10:00:00	6	Velocidad del viento	20.9
1046	7	Sololá	701	Sololá	3	Barraneche	1	Enero	2023-06-01T00:00:00	2024-11-06T10:00:00	7	Dirección del viento	20.92
1047	7	Sololá	701	Sololá	3	Barraneche	1	Enero	2023-06-01T00:00:00	2024-11-06T10:00:00	1	Precipitación	0
1048	7	Sololá	701	Sololá	3	Barraneche	1	Enero	2023-06-01T00:00:00	2024-11-06T10:00:00	8	Radiación solar	604
1049	7	Sololá	701	Sololá	3	Barraneche	1	Enero	2023-06-01T00:00:00	2024-11-06T11:00:00	2	Temperatura media	14.6
1050	7	Sololá	701	Sololá	3	Barraneche	1	Enero	2023-06-01T00:00:00	2024-11-06T11:00:00	4	Temperatura máxima	15.2
1051	7	Sololá	701	Sololá	3	Barraneche	1	Enero	2023-06-01T00:00:00	2024-11-06T11:00:00	3	Temperatura mínima	13.4
1052	7	Sololá	701	Sololá	3	Barraneche	1	Enero	2023-06-01T00:00:00	2024-11-06T11:00:00	5	Humedad	50
1053	7	Sololá	701	Sololá	3	Barraneche	1	Enero	2023-06-01T00:00:00	2024-11-06T11:00:00	6	Velocidad del viento	19.3
1054	7	Sololá	701	Sololá	3	Barraneche	1	Enero	2023-06-01T00:00:00	2024-11-06T11:00:00	7	Dirección del viento	19.31
1055	7	Sololá	701	Sololá	3	Barraneche	1	Enero	2023-06-01T00:00:00	2024-11-06T11:00:00	1	Precipitación	0
1056	7	Sololá	701	Sololá	3	Barraneche	1	Enero	2023-06-01T00:00:00	2024-11-06T11:00:00	8	Radiación solar	756
1057	7	Sololá	701	Sololá	3	Barraneche	1	Enero	2023-06-01T00:00:00	2024-11-06T12:00:00	2	Temperatura media	15.8
1058	7	Sololá	701	Sololá	3	Barraneche	1	Enero	2023-06-01T00:00:00	2024-11-06T12:00:00	4	Temperatura máxima	15.8
1059	7	Sololá	701	Sololá	3	Barraneche	1	Enero	2023-06-01T00:00:00	2024-11-06T12:00:00	3	Temperatura mínima	14.2
1060	7	Sololá	701	Sololá	3	Barraneche	1	Enero	2023-06-01T00:00:00	2024-11-06T12:00:00	5	Humedad	45
1061	7	Sololá	701	Sololá	3	Barraneche	1	Enero	2023-06-01T00:00:00	2024-11-06T12:00:00	6	Velocidad del viento	20.9
1062	7	Sololá	701	Sololá	3	Barraneche	1	Enero	2023-06-01T00:00:00	2024-11-06T12:00:00	7	Dirección del viento	20.92
1063	7	Sololá	701	Sololá	3	Barraneche	1	Enero	2023-06-01T00:00:00	2024-11-06T12:00:00	1	Precipitación	0
1064	7	Sololá	701	Sololá	3	Barraneche	1	Enero	2023-06-01T00:00:00	2024-11-06T12:00:00	8	Radiación solar	841
1065	7	Sololá	701	Sololá	3	Barraneche	1	Enero	2023-06-01T00:00:00	2024-11-06T13:00:00	2	Temperatura media	15.7
1066	7	Sololá	701	Sololá	3	Barraneche	1	Enero	2023-06-01T00:00:00	2024-11-06T13:00:00	4	Temperatura máxima	16.3
1067	7	Sololá	701	Sololá	3	Barraneche	1	Enero	2023-06-01T00:00:00	2024-11-06T13:00:00	3	Temperatura mínima	15.2
1068	7	Sololá	701	Sololá	3	Barraneche	1	Enero	2023-06-01T00:00:00	2024-11-06T13:00:00	5	Humedad	42
1069	7	Sololá	701	Sololá	3	Barraneche	1	Enero	2023-06-01T00:00:00	2024-11-06T13:00:00	6	Velocidad del viento	19.3
1070	7	Sololá	701	Sololá	3	Barraneche	1	Enero	2023-06-01T00:00:00	2024-11-06T13:00:00	7	Dirección del viento	19.31
1071	7	Sololá	701	Sololá	3	Barraneche	1	Enero	2023-06-01T00:00:00	2024-11-06T13:00:00	1	Precipitación	0
1072	7	Sololá	701	Sololá	3	Barraneche	1	Enero	2023-06-01T00:00:00	2024-11-06T13:00:00	8	Radiación solar	848
1073	7	Sololá	701	Sololá	3	Barraneche	1	Enero	2023-06-01T00:00:00	2024-11-06T14:00:00	2	Temperatura media	16.4
1074	7	Sololá	701	Sololá	3	Barraneche	1	Enero	2023-06-01T00:00:00	2024-11-06T14:00:00	4	Temperatura máxima	16.7
1075	7	Sololá	701	Sololá	3	Barraneche	1	Enero	2023-06-01T00:00:00	2024-11-06T14:00:00	3	Temperatura mínima	15.7
1076	7	Sololá	701	Sololá	3	Barraneche	1	Enero	2023-06-01T00:00:00	2024-11-06T14:00:00	5	Humedad	43
1077	7	Sololá	701	Sololá	3	Barraneche	1	Enero	2023-06-01T00:00:00	2024-11-06T14:00:00	6	Velocidad del viento	19.3
1078	7	Sololá	701	Sololá	3	Barraneche	1	Enero	2023-06-01T00:00:00	2024-11-06T14:00:00	7	Dirección del viento	19.31
1079	7	Sololá	701	Sololá	3	Barraneche	1	Enero	2023-06-01T00:00:00	2024-11-06T14:00:00	1	Precipitación	0
1080	7	Sololá	701	Sololá	3	Barraneche	1	Enero	2023-06-01T00:00:00	2024-11-06T14:00:00	8	Radiación solar	782
1081	7	Sololá	701	Sololá	3	Barraneche	1	Enero	2023-06-01T00:00:00	2024-11-06T15:00:00	2	Temperatura media	15.8
1082	7	Sololá	701	Sololá	3	Barraneche	1	Enero	2023-06-01T00:00:00	2024-11-06T15:00:00	4	Temperatura máxima	17.3
1083	7	Sololá	701	Sololá	3	Barraneche	1	Enero	2023-06-01T00:00:00	2024-11-06T15:00:00	3	Temperatura mínima	15.8
1084	7	Sololá	701	Sololá	3	Barraneche	1	Enero	2023-06-01T00:00:00	2024-11-06T15:00:00	5	Humedad	47
1085	7	Sololá	701	Sololá	3	Barraneche	1	Enero	2023-06-01T00:00:00	2024-11-06T15:00:00	6	Velocidad del viento	14.5
1086	7	Sololá	701	Sololá	3	Barraneche	1	Enero	2023-06-01T00:00:00	2024-11-06T15:00:00	7	Dirección del viento	14.48
1087	7	Sololá	701	Sololá	3	Barraneche	1	Enero	2023-06-01T00:00:00	2024-11-06T15:00:00	1	Precipitación	0
1088	7	Sololá	701	Sololá	3	Barraneche	1	Enero	2023-06-01T00:00:00	2024-11-06T15:00:00	8	Radiación solar	642
1089	7	Sololá	701	Sololá	3	Barraneche	1	Enero	2023-06-01T00:00:00	2024-11-06T16:00:00	2	Temperatura media	14.8
1090	7	Sololá	701	Sololá	3	Barraneche	1	Enero	2023-06-01T00:00:00	2024-11-06T16:00:00	4	Temperatura máxima	16.1
1091	7	Sololá	701	Sololá	3	Barraneche	1	Enero	2023-06-01T00:00:00	2024-11-06T16:00:00	3	Temperatura mínima	14.8
1092	7	Sololá	701	Sololá	3	Barraneche	1	Enero	2023-06-01T00:00:00	2024-11-06T16:00:00	5	Humedad	52
1093	7	Sololá	701	Sololá	3	Barraneche	1	Enero	2023-06-01T00:00:00	2024-11-06T16:00:00	6	Velocidad del viento	16.1
1094	7	Sololá	701	Sololá	3	Barraneche	1	Enero	2023-06-01T00:00:00	2024-11-06T16:00:00	7	Dirección del viento	16.09
1095	7	Sololá	701	Sololá	3	Barraneche	1	Enero	2023-06-01T00:00:00	2024-11-06T16:00:00	1	Precipitación	0
1096	7	Sololá	701	Sololá	3	Barraneche	1	Enero	2023-06-01T00:00:00	2024-11-06T16:00:00	8	Radiación solar	438
1097	7	Sololá	701	Sololá	3	Barraneche	1	Enero	2023-06-01T00:00:00	2024-11-06T17:00:00	2	Temperatura media	13.2
1098	7	Sololá	701	Sololá	3	Barraneche	1	Enero	2023-06-01T00:00:00	2024-11-06T17:00:00	4	Temperatura máxima	14.7
1099	7	Sololá	701	Sololá	3	Barraneche	1	Enero	2023-06-01T00:00:00	2024-11-06T17:00:00	3	Temperatura mínima	13.1
1100	7	Sololá	701	Sololá	3	Barraneche	1	Enero	2023-06-01T00:00:00	2024-11-06T17:00:00	5	Humedad	58
1101	7	Sololá	701	Sololá	3	Barraneche	1	Enero	2023-06-01T00:00:00	2024-11-06T17:00:00	6	Velocidad del viento	17.7
1102	7	Sololá	701	Sololá	3	Barraneche	1	Enero	2023-06-01T00:00:00	2024-11-06T17:00:00	7	Dirección del viento	17.7
1103	7	Sololá	701	Sololá	3	Barraneche	1	Enero	2023-06-01T00:00:00	2024-11-06T17:00:00	1	Precipitación	0
1104	7	Sololá	701	Sololá	3	Barraneche	1	Enero	2023-06-01T00:00:00	2024-11-06T17:00:00	8	Radiación solar	240
1105	7	Sololá	701	Sololá	3	Barraneche	1	Enero	2023-06-01T00:00:00	2024-11-06T18:00:00	2	Temperatura media	11.5
1106	7	Sololá	701	Sololá	3	Barraneche	1	Enero	2023-06-01T00:00:00	2024-11-06T18:00:00	4	Temperatura máxima	13.2
1107	7	Sololá	701	Sololá	3	Barraneche	1	Enero	2023-06-01T00:00:00	2024-11-06T18:00:00	3	Temperatura mínima	11.5
1108	7	Sololá	701	Sololá	3	Barraneche	1	Enero	2023-06-01T00:00:00	2024-11-06T18:00:00	5	Humedad	61
1109	7	Sololá	701	Sololá	3	Barraneche	1	Enero	2023-06-01T00:00:00	2024-11-06T18:00:00	6	Velocidad del viento	14.5
1110	7	Sololá	701	Sololá	3	Barraneche	1	Enero	2023-06-01T00:00:00	2024-11-06T18:00:00	7	Dirección del viento	14.48
1111	7	Sololá	701	Sololá	3	Barraneche	1	Enero	2023-06-01T00:00:00	2024-11-06T18:00:00	1	Precipitación	0
1112	7	Sololá	701	Sololá	3	Barraneche	1	Enero	2023-06-01T00:00:00	2024-11-06T18:00:00	8	Radiación solar	38
1113	7	Sololá	701	Sololá	3	Barraneche	1	Enero	2023-06-01T00:00:00	2024-11-06T19:00:00	2	Temperatura media	11.8
1114	7	Sololá	701	Sololá	3	Barraneche	1	Enero	2023-06-01T00:00:00	2024-11-06T19:00:00	4	Temperatura máxima	11.9
1115	7	Sololá	701	Sololá	3	Barraneche	1	Enero	2023-06-01T00:00:00	2024-11-06T19:00:00	3	Temperatura mínima	11.3
1116	7	Sololá	701	Sololá	3	Barraneche	1	Enero	2023-06-01T00:00:00	2024-11-06T19:00:00	5	Humedad	58
1117	7	Sololá	701	Sololá	3	Barraneche	1	Enero	2023-06-01T00:00:00	2024-11-06T19:00:00	6	Velocidad del viento	12.9
1118	7	Sololá	701	Sololá	3	Barraneche	1	Enero	2023-06-01T00:00:00	2024-11-06T19:00:00	7	Dirección del viento	12.87
1119	7	Sololá	701	Sololá	3	Barraneche	1	Enero	2023-06-01T00:00:00	2024-11-06T19:00:00	1	Precipitación	0
1120	7	Sololá	701	Sololá	3	Barraneche	1	Enero	2023-06-01T00:00:00	2024-11-06T19:00:00	8	Radiación solar	0
1121	7	Sololá	701	Sololá	3	Barraneche	1	Enero	2023-06-01T00:00:00	2024-11-06T20:00:00	2	Temperatura media	11.2
1122	7	Sololá	701	Sololá	3	Barraneche	1	Enero	2023-06-01T00:00:00	2024-11-06T20:00:00	4	Temperatura máxima	11.8
1123	7	Sololá	701	Sololá	3	Barraneche	1	Enero	2023-06-01T00:00:00	2024-11-06T20:00:00	3	Temperatura mínima	11.1
1124	7	Sololá	701	Sololá	3	Barraneche	1	Enero	2023-06-01T00:00:00	2024-11-06T20:00:00	5	Humedad	60
1125	7	Sololá	701	Sololá	3	Barraneche	1	Enero	2023-06-01T00:00:00	2024-11-06T20:00:00	6	Velocidad del viento	4.8
1126	7	Sololá	701	Sololá	3	Barraneche	1	Enero	2023-06-01T00:00:00	2024-11-06T20:00:00	7	Dirección del viento	4.83
1127	7	Sololá	701	Sololá	3	Barraneche	1	Enero	2023-06-01T00:00:00	2024-11-06T20:00:00	1	Precipitación	0
1128	7	Sololá	701	Sololá	3	Barraneche	1	Enero	2023-06-01T00:00:00	2024-11-06T20:00:00	8	Radiación solar	0
1129	7	Sololá	701	Sololá	3	Barraneche	1	Enero	2023-06-01T00:00:00	2024-11-06T21:00:00	2	Temperatura media	10.8
1130	7	Sololá	701	Sololá	3	Barraneche	1	Enero	2023-06-01T00:00:00	2024-11-06T21:00:00	4	Temperatura máxima	11.3
1131	7	Sololá	701	Sololá	3	Barraneche	1	Enero	2023-06-01T00:00:00	2024-11-06T21:00:00	3	Temperatura mínima	10.8
1132	7	Sololá	701	Sololá	3	Barraneche	1	Enero	2023-06-01T00:00:00	2024-11-06T21:00:00	5	Humedad	64
1133	7	Sololá	701	Sololá	3	Barraneche	1	Enero	2023-06-01T00:00:00	2024-11-06T21:00:00	6	Velocidad del viento	8
1134	7	Sololá	701	Sololá	3	Barraneche	1	Enero	2023-06-01T00:00:00	2024-11-06T21:00:00	7	Dirección del viento	8.05
1135	7	Sololá	701	Sololá	3	Barraneche	1	Enero	2023-06-01T00:00:00	2024-11-06T21:00:00	1	Precipitación	0
1136	7	Sololá	701	Sololá	3	Barraneche	1	Enero	2023-06-01T00:00:00	2024-11-06T21:00:00	8	Radiación solar	0
1137	7	Sololá	701	Sololá	3	Barraneche	1	Enero	2023-06-01T00:00:00	2024-11-06T22:00:00	2	Temperatura media	10.8
1138	7	Sololá	701	Sololá	3	Barraneche	1	Enero	2023-06-01T00:00:00	2024-11-06T22:00:00	4	Temperatura máxima	11.1
1139	7	Sololá	701	Sololá	3	Barraneche	1	Enero	2023-06-01T00:00:00	2024-11-06T22:00:00	3	Temperatura mínima	10.8
1140	7	Sololá	701	Sololá	3	Barraneche	1	Enero	2023-06-01T00:00:00	2024-11-06T22:00:00	5	Humedad	64
1141	7	Sololá	701	Sololá	3	Barraneche	1	Enero	2023-06-01T00:00:00	2024-11-06T22:00:00	6	Velocidad del viento	17.7
1142	7	Sololá	701	Sololá	3	Barraneche	1	Enero	2023-06-01T00:00:00	2024-11-06T22:00:00	7	Dirección del viento	17.7
1143	7	Sololá	701	Sololá	3	Barraneche	1	Enero	2023-06-01T00:00:00	2024-11-06T22:00:00	1	Precipitación	0
1144	7	Sololá	701	Sololá	3	Barraneche	1	Enero	2023-06-01T00:00:00	2024-11-06T22:00:00	8	Radiación solar	0
1145	7	Sololá	701	Sololá	3	Barraneche	1	Enero	2023-06-01T00:00:00	2024-11-06T23:00:00	2	Temperatura media	11.1
1146	7	Sololá	701	Sololá	3	Barraneche	1	Enero	2023-06-01T00:00:00	2024-11-06T23:00:00	4	Temperatura máxima	11.3
1147	7	Sololá	701	Sololá	3	Barraneche	1	Enero	2023-06-01T00:00:00	2024-11-06T23:00:00	3	Temperatura mínima	10.8
1148	7	Sololá	701	Sololá	3	Barraneche	1	Enero	2023-06-01T00:00:00	2024-11-06T23:00:00	5	Humedad	64
1149	7	Sololá	701	Sololá	3	Barraneche	1	Enero	2023-06-01T00:00:00	2024-11-06T23:00:00	6	Velocidad del viento	14.5
1150	7	Sololá	701	Sololá	3	Barraneche	1	Enero	2023-06-01T00:00:00	2024-11-06T23:00:00	7	Dirección del viento	14.48
1151	7	Sololá	701	Sololá	3	Barraneche	1	Enero	2023-06-01T00:00:00	2024-11-06T23:00:00	1	Precipitación	0
1152	7	Sololá	701	Sololá	3	Barraneche	1	Enero	2023-06-01T00:00:00	2024-11-06T23:00:00	8	Radiación solar	0
1153	7	Sololá	701	Sololá	3	Barraneche	1	Enero	2023-07-01T00:00:00	2024-11-06T00:00:00	2	Temperatura media	10.6
1154	7	Sololá	701	Sololá	3	Barraneche	1	Enero	2023-07-01T00:00:00	2024-11-06T00:00:00	4	Temperatura máxima	11.1
1155	7	Sololá	701	Sololá	3	Barraneche	1	Enero	2023-07-01T00:00:00	2024-11-06T00:00:00	3	Temperatura mínima	10.6
1156	7	Sololá	701	Sololá	3	Barraneche	1	Enero	2023-07-01T00:00:00	2024-11-06T00:00:00	5	Humedad	66
1157	7	Sololá	701	Sololá	3	Barraneche	1	Enero	2023-07-01T00:00:00	2024-11-06T00:00:00	6	Velocidad del viento	17.7
1158	7	Sololá	701	Sololá	3	Barraneche	1	Enero	2023-07-01T00:00:00	2024-11-06T00:00:00	7	Dirección del viento	17.7
1159	7	Sololá	701	Sololá	3	Barraneche	1	Enero	2023-07-01T00:00:00	2024-11-06T00:00:00	1	Precipitación	0
1160	7	Sololá	701	Sololá	3	Barraneche	1	Enero	2023-07-01T00:00:00	2024-11-06T00:00:00	8	Radiación solar	0
1161	7	Sololá	701	Sololá	3	Barraneche	1	Enero	2023-07-01T00:00:00	2024-11-06T01:00:00	2	Temperatura media	10.8
1162	7	Sololá	701	Sololá	3	Barraneche	1	Enero	2023-07-01T00:00:00	2024-11-06T01:00:00	4	Temperatura máxima	11.1
1163	7	Sololá	701	Sololá	3	Barraneche	1	Enero	2023-07-01T00:00:00	2024-11-06T01:00:00	3	Temperatura mínima	10.6
1164	7	Sololá	701	Sololá	3	Barraneche	1	Enero	2023-07-01T00:00:00	2024-11-06T01:00:00	5	Humedad	64
1165	7	Sololá	701	Sololá	3	Barraneche	1	Enero	2023-07-01T00:00:00	2024-11-06T01:00:00	6	Velocidad del viento	22.5
1166	7	Sololá	701	Sololá	3	Barraneche	1	Enero	2023-07-01T00:00:00	2024-11-06T01:00:00	7	Dirección del viento	22.53
1167	7	Sololá	701	Sololá	3	Barraneche	1	Enero	2023-07-01T00:00:00	2024-11-06T01:00:00	1	Precipitación	0
1168	7	Sololá	701	Sololá	3	Barraneche	1	Enero	2023-07-01T00:00:00	2024-11-06T01:00:00	8	Radiación solar	0
1169	7	Sololá	701	Sololá	3	Barraneche	1	Enero	2023-07-01T00:00:00	2024-11-06T02:00:00	2	Temperatura media	11.1
1170	7	Sololá	701	Sololá	3	Barraneche	1	Enero	2023-07-01T00:00:00	2024-11-06T02:00:00	4	Temperatura máxima	11.4
1171	7	Sololá	701	Sololá	3	Barraneche	1	Enero	2023-07-01T00:00:00	2024-11-06T02:00:00	3	Temperatura mínima	10.8
1172	7	Sololá	701	Sololá	3	Barraneche	1	Enero	2023-07-01T00:00:00	2024-11-06T02:00:00	5	Humedad	65
1173	7	Sololá	701	Sololá	3	Barraneche	1	Enero	2023-07-01T00:00:00	2024-11-06T02:00:00	6	Velocidad del viento	22.5
1174	7	Sololá	701	Sololá	3	Barraneche	1	Enero	2023-07-01T00:00:00	2024-11-06T02:00:00	7	Dirección del viento	22.53
1175	7	Sololá	701	Sololá	3	Barraneche	1	Enero	2023-07-01T00:00:00	2024-11-06T02:00:00	1	Precipitación	0
1176	7	Sololá	701	Sololá	3	Barraneche	1	Enero	2023-07-01T00:00:00	2024-11-06T02:00:00	8	Radiación solar	0
1177	7	Sololá	701	Sololá	3	Barraneche	1	Enero	2023-07-01T00:00:00	2024-11-06T03:00:00	2	Temperatura media	11.6
1178	7	Sololá	701	Sololá	3	Barraneche	1	Enero	2023-07-01T00:00:00	2024-11-06T03:00:00	4	Temperatura máxima	11.6
1179	7	Sololá	701	Sololá	3	Barraneche	1	Enero	2023-07-01T00:00:00	2024-11-06T03:00:00	3	Temperatura mínima	10.9
1180	7	Sololá	701	Sololá	3	Barraneche	1	Enero	2023-07-01T00:00:00	2024-11-06T03:00:00	5	Humedad	62
1181	7	Sololá	701	Sololá	3	Barraneche	1	Enero	2023-07-01T00:00:00	2024-11-06T03:00:00	6	Velocidad del viento	22.5
1182	7	Sololá	701	Sololá	3	Barraneche	1	Enero	2023-07-01T00:00:00	2024-11-06T03:00:00	7	Dirección del viento	22.53
1183	7	Sololá	701	Sololá	3	Barraneche	1	Enero	2023-07-01T00:00:00	2024-11-06T03:00:00	1	Precipitación	0
1184	7	Sololá	701	Sololá	3	Barraneche	1	Enero	2023-07-01T00:00:00	2024-11-06T03:00:00	8	Radiación solar	0
1185	7	Sololá	701	Sololá	3	Barraneche	1	Enero	2023-07-01T00:00:00	2024-11-06T04:00:00	2	Temperatura media	11.2
1186	7	Sololá	701	Sololá	3	Barraneche	1	Enero	2023-07-01T00:00:00	2024-11-06T04:00:00	4	Temperatura máxima	11.6
1187	7	Sololá	701	Sololá	3	Barraneche	1	Enero	2023-07-01T00:00:00	2024-11-06T04:00:00	3	Temperatura mínima	11.2
1188	7	Sololá	701	Sololá	3	Barraneche	1	Enero	2023-07-01T00:00:00	2024-11-06T04:00:00	5	Humedad	63
1189	7	Sololá	701	Sololá	3	Barraneche	1	Enero	2023-07-01T00:00:00	2024-11-06T04:00:00	6	Velocidad del viento	25.7
1190	7	Sololá	701	Sololá	3	Barraneche	1	Enero	2023-07-01T00:00:00	2024-11-06T04:00:00	7	Dirección del viento	25.75
1191	7	Sololá	701	Sololá	3	Barraneche	1	Enero	2023-07-01T00:00:00	2024-11-06T04:00:00	1	Precipitación	0
1192	7	Sololá	701	Sololá	3	Barraneche	1	Enero	2023-07-01T00:00:00	2024-11-06T04:00:00	8	Radiación solar	0
1193	7	Sololá	701	Sololá	3	Barraneche	1	Enero	2023-07-01T00:00:00	2024-11-06T05:00:00	2	Temperatura media	11.4
1194	7	Sololá	701	Sololá	3	Barraneche	1	Enero	2023-07-01T00:00:00	2024-11-06T05:00:00	4	Temperatura máxima	11.6
1195	7	Sololá	701	Sololá	3	Barraneche	1	Enero	2023-07-01T00:00:00	2024-11-06T05:00:00	3	Temperatura mínima	11.2
1196	7	Sololá	701	Sololá	3	Barraneche	1	Enero	2023-07-01T00:00:00	2024-11-06T05:00:00	5	Humedad	61
1197	7	Sololá	701	Sololá	3	Barraneche	1	Enero	2023-07-01T00:00:00	2024-11-06T05:00:00	6	Velocidad del viento	24.1
1198	7	Sololá	701	Sololá	3	Barraneche	1	Enero	2023-07-01T00:00:00	2024-11-06T05:00:00	7	Dirección del viento	24.14
1199	7	Sololá	701	Sololá	3	Barraneche	1	Enero	2023-07-01T00:00:00	2024-11-06T05:00:00	1	Precipitación	0
1200	7	Sololá	701	Sololá	3	Barraneche	1	Enero	2023-07-01T00:00:00	2024-11-06T05:00:00	8	Radiación solar	0
1201	7	Sololá	701	Sololá	3	Barraneche	1	Enero	2023-07-01T00:00:00	2024-11-06T06:00:00	2	Temperatura media	11.1
1202	7	Sololá	701	Sololá	3	Barraneche	1	Enero	2023-07-01T00:00:00	2024-11-06T06:00:00	4	Temperatura máxima	11.4
1203	7	Sololá	701	Sololá	3	Barraneche	1	Enero	2023-07-01T00:00:00	2024-11-06T06:00:00	3	Temperatura mínima	10.9
1204	7	Sololá	701	Sololá	3	Barraneche	1	Enero	2023-07-01T00:00:00	2024-11-06T06:00:00	5	Humedad	62
1205	7	Sololá	701	Sololá	3	Barraneche	1	Enero	2023-07-01T00:00:00	2024-11-06T06:00:00	6	Velocidad del viento	16.1
1206	7	Sololá	701	Sololá	3	Barraneche	1	Enero	2023-07-01T00:00:00	2024-11-06T06:00:00	7	Dirección del viento	16.09
1207	7	Sololá	701	Sololá	3	Barraneche	1	Enero	2023-07-01T00:00:00	2024-11-06T06:00:00	1	Precipitación	0
1208	7	Sololá	701	Sololá	3	Barraneche	1	Enero	2023-07-01T00:00:00	2024-11-06T06:00:00	8	Radiación solar	0
1209	7	Sololá	701	Sololá	3	Barraneche	1	Enero	2023-07-01T00:00:00	2024-11-06T07:00:00	2	Temperatura media	11.2
1210	7	Sololá	701	Sololá	3	Barraneche	1	Enero	2023-07-01T00:00:00	2024-11-06T07:00:00	4	Temperatura máxima	11.3
1211	7	Sololá	701	Sololá	3	Barraneche	1	Enero	2023-07-01T00:00:00	2024-11-06T07:00:00	3	Temperatura mínima	10.8
1212	7	Sololá	701	Sololá	3	Barraneche	1	Enero	2023-07-01T00:00:00	2024-11-06T07:00:00	5	Humedad	61
1213	7	Sololá	701	Sololá	3	Barraneche	1	Enero	2023-07-01T00:00:00	2024-11-06T07:00:00	6	Velocidad del viento	11.3
1214	7	Sololá	701	Sololá	3	Barraneche	1	Enero	2023-07-01T00:00:00	2024-11-06T07:00:00	7	Dirección del viento	11.27
1215	7	Sololá	701	Sololá	3	Barraneche	1	Enero	2023-07-01T00:00:00	2024-11-06T07:00:00	1	Precipitación	0
1216	7	Sololá	701	Sololá	3	Barraneche	1	Enero	2023-07-01T00:00:00	2024-11-06T07:00:00	8	Radiación solar	9
1217	7	Sololá	701	Sololá	3	Barraneche	1	Enero	2023-07-01T00:00:00	2024-11-06T08:00:00	2	Temperatura media	12.6
1218	7	Sololá	701	Sololá	3	Barraneche	1	Enero	2023-07-01T00:00:00	2024-11-06T08:00:00	4	Temperatura máxima	12.9
1219	7	Sololá	701	Sololá	3	Barraneche	1	Enero	2023-07-01T00:00:00	2024-11-06T08:00:00	3	Temperatura mínima	11.2
1220	7	Sololá	701	Sololá	3	Barraneche	1	Enero	2023-07-01T00:00:00	2024-11-06T08:00:00	5	Humedad	57
1221	7	Sololá	701	Sololá	3	Barraneche	1	Enero	2023-07-01T00:00:00	2024-11-06T08:00:00	6	Velocidad del viento	11.3
1222	7	Sololá	701	Sololá	3	Barraneche	1	Enero	2023-07-01T00:00:00	2024-11-06T08:00:00	7	Dirección del viento	11.27
1223	7	Sololá	701	Sololá	3	Barraneche	1	Enero	2023-07-01T00:00:00	2024-11-06T08:00:00	1	Precipitación	0
1224	7	Sololá	701	Sololá	3	Barraneche	1	Enero	2023-07-01T00:00:00	2024-11-06T08:00:00	8	Radiación solar	150
1225	7	Sololá	701	Sololá	3	Barraneche	1	Enero	2023-07-01T00:00:00	2024-11-06T09:00:00	2	Temperatura media	14
1226	7	Sololá	701	Sololá	3	Barraneche	1	Enero	2023-07-01T00:00:00	2024-11-06T09:00:00	4	Temperatura máxima	14
1227	7	Sololá	701	Sololá	3	Barraneche	1	Enero	2023-07-01T00:00:00	2024-11-06T09:00:00	3	Temperatura mínima	12.7
1228	7	Sololá	701	Sololá	3	Barraneche	1	Enero	2023-07-01T00:00:00	2024-11-06T09:00:00	5	Humedad	52
1229	7	Sololá	701	Sololá	3	Barraneche	1	Enero	2023-07-01T00:00:00	2024-11-06T09:00:00	6	Velocidad del viento	17.7
1230	7	Sololá	701	Sololá	3	Barraneche	1	Enero	2023-07-01T00:00:00	2024-11-06T09:00:00	7	Dirección del viento	17.7
1231	7	Sololá	701	Sololá	3	Barraneche	1	Enero	2023-07-01T00:00:00	2024-11-06T09:00:00	1	Precipitación	0
1232	7	Sololá	701	Sololá	3	Barraneche	1	Enero	2023-07-01T00:00:00	2024-11-06T09:00:00	8	Radiación solar	338
1233	7	Sololá	701	Sololá	3	Barraneche	1	Enero	2023-07-01T00:00:00	2024-11-06T10:00:00	2	Temperatura media	15.2
1234	7	Sololá	701	Sololá	3	Barraneche	1	Enero	2023-07-01T00:00:00	2024-11-06T10:00:00	4	Temperatura máxima	15.4
1235	7	Sololá	701	Sololá	3	Barraneche	1	Enero	2023-07-01T00:00:00	2024-11-06T10:00:00	3	Temperatura mínima	14
1236	7	Sololá	701	Sololá	3	Barraneche	1	Enero	2023-07-01T00:00:00	2024-11-06T10:00:00	5	Humedad	51
1237	7	Sololá	701	Sololá	3	Barraneche	1	Enero	2023-07-01T00:00:00	2024-11-06T10:00:00	6	Velocidad del viento	19.3
1238	7	Sololá	701	Sololá	3	Barraneche	1	Enero	2023-07-01T00:00:00	2024-11-06T10:00:00	7	Dirección del viento	19.31
1239	7	Sololá	701	Sololá	3	Barraneche	1	Enero	2023-07-01T00:00:00	2024-11-06T10:00:00	1	Precipitación	0
1240	7	Sololá	701	Sololá	3	Barraneche	1	Enero	2023-07-01T00:00:00	2024-11-06T10:00:00	8	Radiación solar	561
1241	7	Sololá	701	Sololá	3	Barraneche	1	Enero	2023-07-01T00:00:00	2024-11-06T11:00:00	2	Temperatura media	16.6
1242	7	Sololá	701	Sololá	3	Barraneche	1	Enero	2023-07-01T00:00:00	2024-11-06T11:00:00	4	Temperatura máxima	16.6
1243	7	Sololá	701	Sololá	3	Barraneche	1	Enero	2023-07-01T00:00:00	2024-11-06T11:00:00	3	Temperatura mínima	14.7
1244	7	Sololá	701	Sololá	3	Barraneche	1	Enero	2023-07-01T00:00:00	2024-11-06T11:00:00	5	Humedad	49
1245	7	Sololá	701	Sololá	3	Barraneche	1	Enero	2023-07-01T00:00:00	2024-11-06T11:00:00	6	Velocidad del viento	16.1
1246	7	Sololá	701	Sololá	3	Barraneche	1	Enero	2023-07-01T00:00:00	2024-11-06T11:00:00	7	Dirección del viento	16.09
1247	7	Sololá	701	Sololá	3	Barraneche	1	Enero	2023-07-01T00:00:00	2024-11-06T11:00:00	1	Precipitación	0
1248	7	Sololá	701	Sololá	3	Barraneche	1	Enero	2023-07-01T00:00:00	2024-11-06T11:00:00	8	Radiación solar	672
1249	7	Sololá	701	Sololá	3	Barraneche	1	Enero	2023-07-01T00:00:00	2024-11-06T12:00:00	2	Temperatura media	15.8
1250	7	Sololá	701	Sololá	3	Barraneche	1	Enero	2023-07-01T00:00:00	2024-11-06T12:00:00	4	Temperatura máxima	16.7
1251	7	Sololá	701	Sololá	3	Barraneche	1	Enero	2023-07-01T00:00:00	2024-11-06T12:00:00	3	Temperatura mínima	15.4
1252	7	Sololá	701	Sololá	3	Barraneche	1	Enero	2023-07-01T00:00:00	2024-11-06T12:00:00	5	Humedad	50
1253	7	Sololá	701	Sololá	3	Barraneche	1	Enero	2023-07-01T00:00:00	2024-11-06T12:00:00	6	Velocidad del viento	14.5
1254	7	Sololá	701	Sololá	3	Barraneche	1	Enero	2023-07-01T00:00:00	2024-11-06T12:00:00	7	Dirección del viento	14.48
1255	7	Sololá	701	Sololá	3	Barraneche	1	Enero	2023-07-01T00:00:00	2024-11-06T12:00:00	1	Precipitación	0
1256	7	Sololá	701	Sololá	3	Barraneche	1	Enero	2023-07-01T00:00:00	2024-11-06T12:00:00	8	Radiación solar	515
1257	7	Sololá	701	Sololá	3	Barraneche	1	Enero	2023-07-01T00:00:00	2024-11-06T13:00:00	2	Temperatura media	15.7
1258	7	Sololá	701	Sololá	3	Barraneche	1	Enero	2023-07-01T00:00:00	2024-11-06T13:00:00	4	Temperatura máxima	16.7
1259	7	Sololá	701	Sololá	3	Barraneche	1	Enero	2023-07-01T00:00:00	2024-11-06T13:00:00	3	Temperatura mínima	15.5
1260	7	Sololá	701	Sololá	3	Barraneche	1	Enero	2023-07-01T00:00:00	2024-11-06T13:00:00	5	Humedad	52
1261	7	Sololá	701	Sololá	3	Barraneche	1	Enero	2023-07-01T00:00:00	2024-11-06T13:00:00	6	Velocidad del viento	9.7
1262	7	Sololá	701	Sololá	3	Barraneche	1	Enero	2023-07-01T00:00:00	2024-11-06T13:00:00	7	Dirección del viento	9.66
1263	7	Sololá	701	Sololá	3	Barraneche	1	Enero	2023-07-01T00:00:00	2024-11-06T13:00:00	1	Precipitación	0
1264	7	Sololá	701	Sololá	3	Barraneche	1	Enero	2023-07-01T00:00:00	2024-11-06T13:00:00	8	Radiación solar	416
1265	7	Sololá	701	Sololá	3	Barraneche	1	Enero	2023-07-01T00:00:00	2024-11-06T14:00:00	2	Temperatura media	14.7
1266	7	Sololá	701	Sololá	3	Barraneche	1	Enero	2023-07-01T00:00:00	2024-11-06T14:00:00	4	Temperatura máxima	15.8
1267	7	Sololá	701	Sololá	3	Barraneche	1	Enero	2023-07-01T00:00:00	2024-11-06T14:00:00	3	Temperatura mínima	14.6
1268	7	Sololá	701	Sololá	3	Barraneche	1	Enero	2023-07-01T00:00:00	2024-11-06T14:00:00	5	Humedad	57
1269	7	Sololá	701	Sololá	3	Barraneche	1	Enero	2023-07-01T00:00:00	2024-11-06T14:00:00	6	Velocidad del viento	11.3
1270	7	Sololá	701	Sololá	3	Barraneche	1	Enero	2023-07-01T00:00:00	2024-11-06T14:00:00	7	Dirección del viento	11.27
1271	7	Sololá	701	Sololá	3	Barraneche	1	Enero	2023-07-01T00:00:00	2024-11-06T14:00:00	1	Precipitación	0
1272	7	Sololá	701	Sololá	3	Barraneche	1	Enero	2023-07-01T00:00:00	2024-11-06T14:00:00	8	Radiación solar	289
1273	7	Sololá	701	Sololá	3	Barraneche	1	Enero	2023-07-01T00:00:00	2024-11-06T15:00:00	2	Temperatura media	14.5
1274	7	Sololá	701	Sololá	3	Barraneche	1	Enero	2023-07-01T00:00:00	2024-11-06T15:00:00	4	Temperatura máxima	14.7
1275	7	Sololá	701	Sololá	3	Barraneche	1	Enero	2023-07-01T00:00:00	2024-11-06T15:00:00	3	Temperatura mínima	13.6
1276	7	Sololá	701	Sololá	3	Barraneche	1	Enero	2023-07-01T00:00:00	2024-11-06T15:00:00	5	Humedad	58
1277	7	Sololá	701	Sololá	3	Barraneche	1	Enero	2023-07-01T00:00:00	2024-11-06T15:00:00	6	Velocidad del viento	12.9
1278	7	Sololá	701	Sololá	3	Barraneche	1	Enero	2023-07-01T00:00:00	2024-11-06T15:00:00	7	Dirección del viento	12.87
1279	7	Sololá	701	Sololá	3	Barraneche	1	Enero	2023-07-01T00:00:00	2024-11-06T15:00:00	1	Precipitación	0
1280	7	Sololá	701	Sololá	3	Barraneche	1	Enero	2023-07-01T00:00:00	2024-11-06T15:00:00	8	Radiación solar	252
1281	7	Sololá	701	Sololá	3	Barraneche	1	Enero	2023-07-01T00:00:00	2024-11-06T16:00:00	2	Temperatura media	13.9
1282	7	Sololá	701	Sololá	3	Barraneche	1	Enero	2023-07-01T00:00:00	2024-11-06T16:00:00	4	Temperatura máxima	15.1
1283	7	Sololá	701	Sololá	3	Barraneche	1	Enero	2023-07-01T00:00:00	2024-11-06T16:00:00	3	Temperatura mínima	13.7
1284	7	Sololá	701	Sololá	3	Barraneche	1	Enero	2023-07-01T00:00:00	2024-11-06T16:00:00	5	Humedad	58
1285	7	Sololá	701	Sololá	3	Barraneche	1	Enero	2023-07-01T00:00:00	2024-11-06T16:00:00	6	Velocidad del viento	19.3
1286	7	Sololá	701	Sololá	3	Barraneche	1	Enero	2023-07-01T00:00:00	2024-11-06T16:00:00	7	Dirección del viento	19.31
1287	7	Sololá	701	Sololá	3	Barraneche	1	Enero	2023-07-01T00:00:00	2024-11-06T16:00:00	1	Precipitación	0
1288	7	Sololá	701	Sololá	3	Barraneche	1	Enero	2023-07-01T00:00:00	2024-11-06T16:00:00	8	Radiación solar	416
1289	7	Sololá	701	Sololá	3	Barraneche	1	Enero	2023-07-01T00:00:00	2024-11-06T17:00:00	2	Temperatura media	13.1
1290	7	Sololá	701	Sololá	3	Barraneche	1	Enero	2023-07-01T00:00:00	2024-11-06T17:00:00	4	Temperatura máxima	13.9
1291	7	Sololá	701	Sololá	3	Barraneche	1	Enero	2023-07-01T00:00:00	2024-11-06T17:00:00	3	Temperatura mínima	12.6
1292	7	Sololá	701	Sololá	3	Barraneche	1	Enero	2023-07-01T00:00:00	2024-11-06T17:00:00	5	Humedad	59
1293	7	Sololá	701	Sololá	3	Barraneche	1	Enero	2023-07-01T00:00:00	2024-11-06T17:00:00	6	Velocidad del viento	16.1
1294	7	Sololá	701	Sololá	3	Barraneche	1	Enero	2023-07-01T00:00:00	2024-11-06T17:00:00	7	Dirección del viento	16.09
1295	7	Sololá	701	Sololá	3	Barraneche	1	Enero	2023-07-01T00:00:00	2024-11-06T17:00:00	1	Precipitación	0
1296	7	Sololá	701	Sololá	3	Barraneche	1	Enero	2023-07-01T00:00:00	2024-11-06T17:00:00	8	Radiación solar	142
1297	7	Sololá	701	Sololá	3	Barraneche	1	Enero	2023-07-01T00:00:00	2024-11-06T18:00:00	2	Temperatura media	12.5
1298	7	Sololá	701	Sololá	3	Barraneche	1	Enero	2023-07-01T00:00:00	2024-11-06T18:00:00	4	Temperatura máxima	13.1
1299	7	Sololá	701	Sololá	3	Barraneche	1	Enero	2023-07-01T00:00:00	2024-11-06T18:00:00	3	Temperatura mínima	12.4
1300	7	Sololá	701	Sololá	3	Barraneche	1	Enero	2023-07-01T00:00:00	2024-11-06T18:00:00	5	Humedad	62
1301	7	Sololá	701	Sololá	3	Barraneche	1	Enero	2023-07-01T00:00:00	2024-11-06T18:00:00	6	Velocidad del viento	14.5
1302	7	Sololá	701	Sololá	3	Barraneche	1	Enero	2023-07-01T00:00:00	2024-11-06T18:00:00	7	Dirección del viento	14.48
1303	7	Sololá	701	Sololá	3	Barraneche	1	Enero	2023-07-01T00:00:00	2024-11-06T18:00:00	1	Precipitación	0
1304	7	Sololá	701	Sololá	3	Barraneche	1	Enero	2023-07-01T00:00:00	2024-11-06T18:00:00	8	Radiación solar	25
1305	7	Sololá	701	Sololá	3	Barraneche	1	Enero	2023-07-01T00:00:00	2024-11-06T19:00:00	2	Temperatura media	12.4
1306	7	Sololá	701	Sololá	3	Barraneche	1	Enero	2023-07-01T00:00:00	2024-11-06T19:00:00	4	Temperatura máxima	12.6
1307	7	Sololá	701	Sololá	3	Barraneche	1	Enero	2023-07-01T00:00:00	2024-11-06T19:00:00	3	Temperatura mínima	12.3
1308	7	Sololá	701	Sololá	3	Barraneche	1	Enero	2023-07-01T00:00:00	2024-11-06T19:00:00	5	Humedad	62
1309	7	Sololá	701	Sololá	3	Barraneche	1	Enero	2023-07-01T00:00:00	2024-11-06T19:00:00	6	Velocidad del viento	9.7
1310	7	Sololá	701	Sololá	3	Barraneche	1	Enero	2023-07-01T00:00:00	2024-11-06T19:00:00	7	Dirección del viento	9.66
1311	7	Sololá	701	Sololá	3	Barraneche	1	Enero	2023-07-01T00:00:00	2024-11-06T19:00:00	1	Precipitación	0
1312	7	Sololá	701	Sololá	3	Barraneche	1	Enero	2023-07-01T00:00:00	2024-11-06T19:00:00	8	Radiación solar	0
1313	7	Sololá	701	Sololá	3	Barraneche	1	Enero	2023-07-01T00:00:00	2024-11-06T20:00:00	2	Temperatura media	11.8
1314	7	Sololá	701	Sololá	3	Barraneche	1	Enero	2023-07-01T00:00:00	2024-11-06T20:00:00	4	Temperatura máxima	12.6
1315	7	Sololá	701	Sololá	3	Barraneche	1	Enero	2023-07-01T00:00:00	2024-11-06T20:00:00	3	Temperatura mínima	11.8
1316	7	Sololá	701	Sololá	3	Barraneche	1	Enero	2023-07-01T00:00:00	2024-11-06T20:00:00	5	Humedad	62
1317	7	Sololá	701	Sololá	3	Barraneche	1	Enero	2023-07-01T00:00:00	2024-11-06T20:00:00	6	Velocidad del viento	16.1
1318	7	Sololá	701	Sololá	3	Barraneche	1	Enero	2023-07-01T00:00:00	2024-11-06T20:00:00	7	Dirección del viento	16.09
1319	7	Sololá	701	Sololá	3	Barraneche	1	Enero	2023-07-01T00:00:00	2024-11-06T20:00:00	1	Precipitación	0
1320	7	Sololá	701	Sololá	3	Barraneche	1	Enero	2023-07-01T00:00:00	2024-11-06T20:00:00	8	Radiación solar	0
1321	7	Sololá	701	Sololá	3	Barraneche	1	Enero	2023-07-01T00:00:00	2024-11-06T21:00:00	2	Temperatura media	11.4
1322	7	Sololá	701	Sololá	3	Barraneche	1	Enero	2023-07-01T00:00:00	2024-11-06T21:00:00	4	Temperatura máxima	11.9
1323	7	Sololá	701	Sololá	3	Barraneche	1	Enero	2023-07-01T00:00:00	2024-11-06T21:00:00	3	Temperatura mínima	11.4
1324	7	Sololá	701	Sololá	3	Barraneche	1	Enero	2023-07-01T00:00:00	2024-11-06T21:00:00	5	Humedad	62
1325	7	Sololá	701	Sololá	3	Barraneche	1	Enero	2023-07-01T00:00:00	2024-11-06T21:00:00	6	Velocidad del viento	11.3
1326	7	Sololá	701	Sololá	3	Barraneche	1	Enero	2023-07-01T00:00:00	2024-11-06T21:00:00	7	Dirección del viento	11.27
1327	7	Sololá	701	Sololá	3	Barraneche	1	Enero	2023-07-01T00:00:00	2024-11-06T21:00:00	1	Precipitación	0
1328	7	Sololá	701	Sololá	3	Barraneche	1	Enero	2023-07-01T00:00:00	2024-11-06T21:00:00	8	Radiación solar	0
1329	7	Sololá	701	Sololá	3	Barraneche	1	Enero	2023-07-01T00:00:00	2024-11-06T22:00:00	2	Temperatura media	11.2
1330	7	Sololá	701	Sololá	3	Barraneche	1	Enero	2023-07-01T00:00:00	2024-11-06T22:00:00	4	Temperatura máxima	11.4
1331	7	Sololá	701	Sololá	3	Barraneche	1	Enero	2023-07-01T00:00:00	2024-11-06T22:00:00	3	Temperatura mínima	11.1
1332	7	Sololá	701	Sololá	3	Barraneche	1	Enero	2023-07-01T00:00:00	2024-11-06T22:00:00	5	Humedad	63
1333	7	Sololá	701	Sololá	3	Barraneche	1	Enero	2023-07-01T00:00:00	2024-11-06T22:00:00	6	Velocidad del viento	8
1334	7	Sololá	701	Sololá	3	Barraneche	1	Enero	2023-07-01T00:00:00	2024-11-06T22:00:00	7	Dirección del viento	8.05
1335	7	Sololá	701	Sololá	3	Barraneche	1	Enero	2023-07-01T00:00:00	2024-11-06T22:00:00	1	Precipitación	0
1336	7	Sololá	701	Sololá	3	Barraneche	1	Enero	2023-07-01T00:00:00	2024-11-06T22:00:00	8	Radiación solar	0
1337	7	Sololá	701	Sololá	3	Barraneche	1	Enero	2023-07-01T00:00:00	2024-11-06T23:00:00	2	Temperatura media	11.4
1338	7	Sololá	701	Sololá	3	Barraneche	1	Enero	2023-07-01T00:00:00	2024-11-06T23:00:00	4	Temperatura máxima	11.4
1339	7	Sololá	701	Sololá	3	Barraneche	1	Enero	2023-07-01T00:00:00	2024-11-06T23:00:00	3	Temperatura mínima	11.2
1340	7	Sololá	701	Sololá	3	Barraneche	1	Enero	2023-07-01T00:00:00	2024-11-06T23:00:00	5	Humedad	63
1341	7	Sololá	701	Sololá	3	Barraneche	1	Enero	2023-07-01T00:00:00	2024-11-06T23:00:00	6	Velocidad del viento	8
1342	7	Sololá	701	Sololá	3	Barraneche	1	Enero	2023-07-01T00:00:00	2024-11-06T23:00:00	7	Dirección del viento	8.05
1343	7	Sololá	701	Sololá	3	Barraneche	1	Enero	2023-07-01T00:00:00	2024-11-06T23:00:00	1	Precipitación	0
1344	7	Sololá	701	Sololá	3	Barraneche	1	Enero	2023-07-01T00:00:00	2024-11-06T23:00:00	8	Radiación solar	0
1345	7	Sololá	701	Sololá	3	Barraneche	1	Enero	2023-08-01T00:00:00	2024-11-06T00:00:00	2	Temperatura media	11.7
1346	7	Sololá	701	Sololá	3	Barraneche	1	Enero	2023-08-01T00:00:00	2024-11-06T00:00:00	4	Temperatura máxima	11.8
1347	7	Sololá	701	Sololá	3	Barraneche	1	Enero	2023-08-01T00:00:00	2024-11-06T00:00:00	3	Temperatura mínima	11.4
1348	7	Sololá	701	Sololá	3	Barraneche	1	Enero	2023-08-01T00:00:00	2024-11-06T00:00:00	5	Humedad	63
1349	7	Sololá	701	Sololá	3	Barraneche	1	Enero	2023-08-01T00:00:00	2024-11-06T00:00:00	6	Velocidad del viento	6.4
1350	7	Sololá	701	Sololá	3	Barraneche	1	Enero	2023-08-01T00:00:00	2024-11-06T00:00:00	7	Dirección del viento	6.44
1351	7	Sololá	701	Sololá	3	Barraneche	1	Enero	2023-08-01T00:00:00	2024-11-06T00:00:00	1	Precipitación	0
1352	7	Sololá	701	Sololá	3	Barraneche	1	Enero	2023-08-01T00:00:00	2024-11-06T00:00:00	8	Radiación solar	0
1353	7	Sololá	701	Sololá	3	Barraneche	1	Enero	2023-08-01T00:00:00	2024-11-06T01:00:00	2	Temperatura media	11.9
1354	7	Sololá	701	Sololá	3	Barraneche	1	Enero	2023-08-01T00:00:00	2024-11-06T01:00:00	4	Temperatura máxima	11.9
1355	7	Sololá	701	Sololá	3	Barraneche	1	Enero	2023-08-01T00:00:00	2024-11-06T01:00:00	3	Temperatura mínima	11.4
1356	7	Sololá	701	Sololá	3	Barraneche	1	Enero	2023-08-01T00:00:00	2024-11-06T01:00:00	5	Humedad	62
1357	7	Sololá	701	Sololá	3	Barraneche	1	Enero	2023-08-01T00:00:00	2024-11-06T01:00:00	6	Velocidad del viento	9.7
1358	7	Sololá	701	Sololá	3	Barraneche	1	Enero	2023-08-01T00:00:00	2024-11-06T01:00:00	7	Dirección del viento	9.66
1359	7	Sololá	701	Sololá	3	Barraneche	1	Enero	2023-08-01T00:00:00	2024-11-06T01:00:00	1	Precipitación	0
1360	7	Sololá	701	Sololá	3	Barraneche	1	Enero	2023-08-01T00:00:00	2024-11-06T01:00:00	8	Radiación solar	0
1361	7	Sololá	701	Sololá	3	Barraneche	1	Enero	2023-08-01T00:00:00	2024-11-06T02:00:00	2	Temperatura media	12.2
1362	7	Sololá	701	Sololá	3	Barraneche	1	Enero	2023-08-01T00:00:00	2024-11-06T02:00:00	4	Temperatura máxima	12.2
1363	7	Sololá	701	Sololá	3	Barraneche	1	Enero	2023-08-01T00:00:00	2024-11-06T02:00:00	3	Temperatura mínima	11.9
1364	7	Sololá	701	Sololá	3	Barraneche	1	Enero	2023-08-01T00:00:00	2024-11-06T02:00:00	5	Humedad	60
1365	7	Sololá	701	Sololá	3	Barraneche	1	Enero	2023-08-01T00:00:00	2024-11-06T02:00:00	6	Velocidad del viento	12.9
1366	7	Sololá	701	Sololá	3	Barraneche	1	Enero	2023-08-01T00:00:00	2024-11-06T02:00:00	7	Dirección del viento	12.87
1367	7	Sololá	701	Sololá	3	Barraneche	1	Enero	2023-08-01T00:00:00	2024-11-06T02:00:00	1	Precipitación	0
1368	7	Sololá	701	Sololá	3	Barraneche	1	Enero	2023-08-01T00:00:00	2024-11-06T02:00:00	8	Radiación solar	0
1369	7	Sololá	701	Sololá	3	Barraneche	1	Enero	2023-08-01T00:00:00	2024-11-06T03:00:00	2	Temperatura media	11.6
1370	7	Sololá	701	Sololá	3	Barraneche	1	Enero	2023-08-01T00:00:00	2024-11-06T03:00:00	4	Temperatura máxima	12.2
1371	7	Sololá	701	Sololá	3	Barraneche	1	Enero	2023-08-01T00:00:00	2024-11-06T03:00:00	3	Temperatura mínima	11.4
1372	7	Sololá	701	Sololá	3	Barraneche	1	Enero	2023-08-01T00:00:00	2024-11-06T03:00:00	5	Humedad	64
1373	7	Sololá	701	Sololá	3	Barraneche	1	Enero	2023-08-01T00:00:00	2024-11-06T03:00:00	6	Velocidad del viento	14.5
1374	7	Sololá	701	Sololá	3	Barraneche	1	Enero	2023-08-01T00:00:00	2024-11-06T03:00:00	7	Dirección del viento	14.48
1375	7	Sololá	701	Sololá	3	Barraneche	1	Enero	2023-08-01T00:00:00	2024-11-06T03:00:00	1	Precipitación	0
1376	7	Sololá	701	Sololá	3	Barraneche	1	Enero	2023-08-01T00:00:00	2024-11-06T03:00:00	8	Radiación solar	0
1377	7	Sololá	701	Sololá	3	Barraneche	1	Enero	2023-08-01T00:00:00	2024-11-06T04:00:00	2	Temperatura media	11.6
1378	7	Sololá	701	Sololá	3	Barraneche	1	Enero	2023-08-01T00:00:00	2024-11-06T04:00:00	4	Temperatura máxima	11.8
1379	7	Sololá	701	Sololá	3	Barraneche	1	Enero	2023-08-01T00:00:00	2024-11-06T04:00:00	3	Temperatura mínima	11.3
1380	7	Sololá	701	Sololá	3	Barraneche	1	Enero	2023-08-01T00:00:00	2024-11-06T04:00:00	5	Humedad	63
1381	7	Sololá	701	Sololá	3	Barraneche	1	Enero	2023-08-01T00:00:00	2024-11-06T04:00:00	6	Velocidad del viento	12.9
1382	7	Sololá	701	Sololá	3	Barraneche	1	Enero	2023-08-01T00:00:00	2024-11-06T04:00:00	7	Dirección del viento	12.87
1383	7	Sololá	701	Sololá	3	Barraneche	1	Enero	2023-08-01T00:00:00	2024-11-06T04:00:00	1	Precipitación	0
1384	7	Sololá	701	Sololá	3	Barraneche	1	Enero	2023-08-01T00:00:00	2024-11-06T04:00:00	8	Radiación solar	0
1385	7	Sololá	701	Sololá	3	Barraneche	1	Enero	2023-08-01T00:00:00	2024-11-06T05:00:00	2	Temperatura media	11.5
1386	7	Sololá	701	Sololá	3	Barraneche	1	Enero	2023-08-01T00:00:00	2024-11-06T05:00:00	4	Temperatura máxima	11.9
1387	7	Sololá	701	Sololá	3	Barraneche	1	Enero	2023-08-01T00:00:00	2024-11-06T05:00:00	3	Temperatura mínima	11.4
1388	7	Sololá	701	Sololá	3	Barraneche	1	Enero	2023-08-01T00:00:00	2024-11-06T05:00:00	5	Humedad	63
1389	7	Sololá	701	Sololá	3	Barraneche	1	Enero	2023-08-01T00:00:00	2024-11-06T05:00:00	6	Velocidad del viento	11.3
1390	7	Sololá	701	Sololá	3	Barraneche	1	Enero	2023-08-01T00:00:00	2024-11-06T05:00:00	7	Dirección del viento	11.27
1391	7	Sololá	701	Sololá	3	Barraneche	1	Enero	2023-08-01T00:00:00	2024-11-06T05:00:00	1	Precipitación	0
1392	7	Sololá	701	Sololá	3	Barraneche	1	Enero	2023-08-01T00:00:00	2024-11-06T05:00:00	8	Radiación solar	0
1393	7	Sololá	701	Sololá	3	Barraneche	1	Enero	2023-08-01T00:00:00	2024-11-06T06:00:00	2	Temperatura media	11.3
1394	7	Sololá	701	Sololá	3	Barraneche	1	Enero	2023-08-01T00:00:00	2024-11-06T06:00:00	4	Temperatura máxima	11.4
1395	7	Sololá	701	Sololá	3	Barraneche	1	Enero	2023-08-01T00:00:00	2024-11-06T06:00:00	3	Temperatura mínima	10.2
1396	7	Sololá	701	Sololá	3	Barraneche	1	Enero	2023-08-01T00:00:00	2024-11-06T06:00:00	5	Humedad	65
1397	7	Sololá	701	Sololá	3	Barraneche	1	Enero	2023-08-01T00:00:00	2024-11-06T06:00:00	6	Velocidad del viento	6.4
1398	7	Sololá	701	Sololá	3	Barraneche	1	Enero	2023-08-01T00:00:00	2024-11-06T06:00:00	7	Dirección del viento	6.44
1399	7	Sololá	701	Sololá	3	Barraneche	1	Enero	2023-08-01T00:00:00	2024-11-06T06:00:00	1	Precipitación	0
1400	7	Sololá	701	Sololá	3	Barraneche	1	Enero	2023-08-01T00:00:00	2024-11-06T06:00:00	8	Radiación solar	0
1401	7	Sololá	701	Sololá	3	Barraneche	1	Enero	2023-08-01T00:00:00	2024-11-06T07:00:00	2	Temperatura media	10.5
1402	7	Sololá	701	Sololá	3	Barraneche	1	Enero	2023-08-01T00:00:00	2024-11-06T07:00:00	4	Temperatura máxima	11.6
1403	7	Sololá	701	Sololá	3	Barraneche	1	Enero	2023-08-01T00:00:00	2024-11-06T07:00:00	3	Temperatura mínima	10.5
1404	7	Sololá	701	Sololá	3	Barraneche	1	Enero	2023-08-01T00:00:00	2024-11-06T07:00:00	5	Humedad	66
1405	7	Sololá	701	Sololá	3	Barraneche	1	Enero	2023-08-01T00:00:00	2024-11-06T07:00:00	6	Velocidad del viento	9.7
1406	7	Sololá	701	Sololá	3	Barraneche	1	Enero	2023-08-01T00:00:00	2024-11-06T07:00:00	7	Dirección del viento	9.66
1407	7	Sololá	701	Sololá	3	Barraneche	1	Enero	2023-08-01T00:00:00	2024-11-06T07:00:00	1	Precipitación	0
1408	7	Sololá	701	Sololá	3	Barraneche	1	Enero	2023-08-01T00:00:00	2024-11-06T07:00:00	8	Radiación solar	5
1409	7	Sololá	701	Sololá	3	Barraneche	1	Enero	2023-08-01T00:00:00	2024-11-06T08:00:00	2	Temperatura media	13
1410	7	Sololá	701	Sololá	3	Barraneche	1	Enero	2023-08-01T00:00:00	2024-11-06T08:00:00	4	Temperatura máxima	13
1411	7	Sololá	701	Sololá	3	Barraneche	1	Enero	2023-08-01T00:00:00	2024-11-06T08:00:00	3	Temperatura mínima	10.2
1412	7	Sololá	701	Sololá	3	Barraneche	1	Enero	2023-08-01T00:00:00	2024-11-06T08:00:00	5	Humedad	61
1413	7	Sololá	701	Sololá	3	Barraneche	1	Enero	2023-08-01T00:00:00	2024-11-06T08:00:00	6	Velocidad del viento	3.2
1414	7	Sololá	701	Sololá	3	Barraneche	1	Enero	2023-08-01T00:00:00	2024-11-06T08:00:00	7	Dirección del viento	3.22
1415	7	Sololá	701	Sololá	3	Barraneche	1	Enero	2023-08-01T00:00:00	2024-11-06T08:00:00	1	Precipitación	0
1416	7	Sololá	701	Sololá	3	Barraneche	1	Enero	2023-08-01T00:00:00	2024-11-06T08:00:00	8	Radiación solar	142
1417	7	Sololá	701	Sololá	3	Barraneche	1	Enero	2023-08-01T00:00:00	2024-11-06T09:00:00	2	Temperatura media	15.7
1418	7	Sololá	701	Sololá	3	Barraneche	1	Enero	2023-08-01T00:00:00	2024-11-06T09:00:00	4	Temperatura máxima	15.7
1419	7	Sololá	701	Sololá	3	Barraneche	1	Enero	2023-08-01T00:00:00	2024-11-06T09:00:00	3	Temperatura mínima	12.8
1420	7	Sololá	701	Sololá	3	Barraneche	1	Enero	2023-08-01T00:00:00	2024-11-06T09:00:00	5	Humedad	56
1421	7	Sololá	701	Sololá	3	Barraneche	1	Enero	2023-08-01T00:00:00	2024-11-06T09:00:00	6	Velocidad del viento	3.2
1422	7	Sololá	701	Sololá	3	Barraneche	1	Enero	2023-08-01T00:00:00	2024-11-06T09:00:00	7	Dirección del viento	3.22
1423	7	Sololá	701	Sololá	3	Barraneche	1	Enero	2023-08-01T00:00:00	2024-11-06T09:00:00	1	Precipitación	0
1424	7	Sololá	701	Sololá	3	Barraneche	1	Enero	2023-08-01T00:00:00	2024-11-06T09:00:00	8	Radiación solar	380
1425	7	Sololá	701	Sololá	3	Barraneche	1	Enero	2023-08-01T00:00:00	2024-11-06T10:00:00	2	Temperatura media	15.8
1426	7	Sololá	701	Sololá	3	Barraneche	1	Enero	2023-08-01T00:00:00	2024-11-06T10:00:00	4	Temperatura máxima	15.8
1427	7	Sololá	701	Sololá	3	Barraneche	1	Enero	2023-08-01T00:00:00	2024-11-06T10:00:00	3	Temperatura mínima	15.3
1428	7	Sololá	701	Sololá	3	Barraneche	1	Enero	2023-08-01T00:00:00	2024-11-06T10:00:00	5	Humedad	54
1429	7	Sololá	701	Sololá	3	Barraneche	1	Enero	2023-08-01T00:00:00	2024-11-06T10:00:00	6	Velocidad del viento	16.1
1430	7	Sololá	701	Sololá	3	Barraneche	1	Enero	2023-08-01T00:00:00	2024-11-06T10:00:00	7	Dirección del viento	16.09
1431	7	Sololá	701	Sololá	3	Barraneche	1	Enero	2023-08-01T00:00:00	2024-11-06T10:00:00	1	Precipitación	0
1432	7	Sololá	701	Sololá	3	Barraneche	1	Enero	2023-08-01T00:00:00	2024-11-06T10:00:00	8	Radiación solar	593
1433	7	Sololá	701	Sololá	3	Barraneche	1	Enero	2023-08-01T00:00:00	2024-11-06T11:00:00	2	Temperatura media	17.6
1434	7	Sololá	701	Sololá	3	Barraneche	1	Enero	2023-08-01T00:00:00	2024-11-06T11:00:00	4	Temperatura máxima	17.7
1435	7	Sololá	701	Sololá	3	Barraneche	1	Enero	2023-08-01T00:00:00	2024-11-06T11:00:00	3	Temperatura mínima	15.9
1436	7	Sololá	701	Sololá	3	Barraneche	1	Enero	2023-08-01T00:00:00	2024-11-06T11:00:00	5	Humedad	47
1437	7	Sololá	701	Sololá	3	Barraneche	1	Enero	2023-08-01T00:00:00	2024-11-06T11:00:00	6	Velocidad del viento	11.3
1438	7	Sololá	701	Sololá	3	Barraneche	1	Enero	2023-08-01T00:00:00	2024-11-06T11:00:00	7	Dirección del viento	11.27
1439	7	Sololá	701	Sololá	3	Barraneche	1	Enero	2023-08-01T00:00:00	2024-11-06T11:00:00	1	Precipitación	0
1440	7	Sololá	701	Sololá	3	Barraneche	1	Enero	2023-08-01T00:00:00	2024-11-06T11:00:00	8	Radiación solar	816
1441	7	Sololá	701	Sololá	3	Barraneche	1	Enero	2023-08-01T00:00:00	2024-11-06T12:00:00	2	Temperatura media	18.2
1442	7	Sololá	701	Sololá	3	Barraneche	1	Enero	2023-08-01T00:00:00	2024-11-06T12:00:00	4	Temperatura máxima	18.3
1443	7	Sololá	701	Sololá	3	Barraneche	1	Enero	2023-08-01T00:00:00	2024-11-06T12:00:00	3	Temperatura mínima	17.4
1444	7	Sololá	701	Sololá	3	Barraneche	1	Enero	2023-08-01T00:00:00	2024-11-06T12:00:00	5	Humedad	45
1445	7	Sololá	701	Sololá	3	Barraneche	1	Enero	2023-08-01T00:00:00	2024-11-06T12:00:00	6	Velocidad del viento	11.3
1446	7	Sololá	701	Sololá	3	Barraneche	1	Enero	2023-08-01T00:00:00	2024-11-06T12:00:00	7	Dirección del viento	11.27
1447	7	Sololá	701	Sololá	3	Barraneche	1	Enero	2023-08-01T00:00:00	2024-11-06T12:00:00	1	Precipitación	0
1448	7	Sololá	701	Sololá	3	Barraneche	1	Enero	2023-08-01T00:00:00	2024-11-06T12:00:00	8	Radiación solar	914
1449	7	Sololá	701	Sololá	3	Barraneche	1	Enero	2023-08-01T00:00:00	2024-11-06T13:00:00	2	Temperatura media	17.5
1450	7	Sololá	701	Sololá	3	Barraneche	1	Enero	2023-08-01T00:00:00	2024-11-06T13:00:00	4	Temperatura máxima	18.9
1451	7	Sololá	701	Sololá	3	Barraneche	1	Enero	2023-08-01T00:00:00	2024-11-06T13:00:00	3	Temperatura mínima	17.4
1452	7	Sololá	701	Sololá	3	Barraneche	1	Enero	2023-08-01T00:00:00	2024-11-06T13:00:00	5	Humedad	49
1453	7	Sololá	701	Sololá	3	Barraneche	1	Enero	2023-08-01T00:00:00	2024-11-06T13:00:00	6	Velocidad del viento	12.9
1454	7	Sololá	701	Sololá	3	Barraneche	1	Enero	2023-08-01T00:00:00	2024-11-06T13:00:00	7	Dirección del viento	12.87
1455	7	Sololá	701	Sololá	3	Barraneche	1	Enero	2023-08-01T00:00:00	2024-11-06T13:00:00	1	Precipitación	0
1456	7	Sololá	701	Sololá	3	Barraneche	1	Enero	2023-08-01T00:00:00	2024-11-06T13:00:00	8	Radiación solar	844
1457	7	Sololá	701	Sololá	3	Barraneche	1	Enero	2023-08-01T00:00:00	2024-11-06T14:00:00	2	Temperatura media	18.3
1458	7	Sololá	701	Sololá	3	Barraneche	1	Enero	2023-08-01T00:00:00	2024-11-06T14:00:00	4	Temperatura máxima	18.7
1459	7	Sololá	701	Sololá	3	Barraneche	1	Enero	2023-08-01T00:00:00	2024-11-06T14:00:00	3	Temperatura mínima	17.5
1460	7	Sololá	701	Sololá	3	Barraneche	1	Enero	2023-08-01T00:00:00	2024-11-06T14:00:00	5	Humedad	54
1461	7	Sololá	701	Sololá	3	Barraneche	1	Enero	2023-08-01T00:00:00	2024-11-06T14:00:00	6	Velocidad del viento	14.5
1462	7	Sololá	701	Sololá	3	Barraneche	1	Enero	2023-08-01T00:00:00	2024-11-06T14:00:00	7	Dirección del viento	14.48
1463	7	Sololá	701	Sololá	3	Barraneche	1	Enero	2023-08-01T00:00:00	2024-11-06T14:00:00	1	Precipitación	0
1464	7	Sololá	701	Sololá	3	Barraneche	1	Enero	2023-08-01T00:00:00	2024-11-06T14:00:00	8	Radiación solar	886
1465	7	Sololá	701	Sololá	3	Barraneche	1	Enero	2023-08-01T00:00:00	2024-11-06T15:00:00	2	Temperatura media	16.7
1466	7	Sololá	701	Sololá	3	Barraneche	1	Enero	2023-08-01T00:00:00	2024-11-06T15:00:00	4	Temperatura máxima	18.3
1467	7	Sololá	701	Sololá	3	Barraneche	1	Enero	2023-08-01T00:00:00	2024-11-06T15:00:00	3	Temperatura mínima	16.6
1468	7	Sololá	701	Sololá	3	Barraneche	1	Enero	2023-08-01T00:00:00	2024-11-06T15:00:00	5	Humedad	53
1469	7	Sololá	701	Sololá	3	Barraneche	1	Enero	2023-08-01T00:00:00	2024-11-06T15:00:00	6	Velocidad del viento	14.5
1470	7	Sololá	701	Sololá	3	Barraneche	1	Enero	2023-08-01T00:00:00	2024-11-06T15:00:00	7	Dirección del viento	14.48
1471	7	Sololá	701	Sololá	3	Barraneche	1	Enero	2023-08-01T00:00:00	2024-11-06T15:00:00	1	Precipitación	0
1472	7	Sololá	701	Sololá	3	Barraneche	1	Enero	2023-08-01T00:00:00	2024-11-06T15:00:00	8	Radiación solar	410
1473	7	Sololá	701	Sololá	3	Barraneche	1	Enero	2023-08-01T00:00:00	2024-11-06T16:00:00	2	Temperatura media	14.6
1474	7	Sololá	701	Sololá	3	Barraneche	1	Enero	2023-08-01T00:00:00	2024-11-06T16:00:00	4	Temperatura máxima	16.7
1475	7	Sololá	701	Sololá	3	Barraneche	1	Enero	2023-08-01T00:00:00	2024-11-06T16:00:00	3	Temperatura mínima	14.6
1476	7	Sololá	701	Sololá	3	Barraneche	1	Enero	2023-08-01T00:00:00	2024-11-06T16:00:00	5	Humedad	71
1477	7	Sololá	701	Sololá	3	Barraneche	1	Enero	2023-08-01T00:00:00	2024-11-06T16:00:00	6	Velocidad del viento	8
1478	7	Sololá	701	Sololá	3	Barraneche	1	Enero	2023-08-01T00:00:00	2024-11-06T16:00:00	7	Dirección del viento	8.05
1479	7	Sololá	701	Sololá	3	Barraneche	1	Enero	2023-08-01T00:00:00	2024-11-06T16:00:00	1	Precipitación	0
1480	7	Sololá	701	Sololá	3	Barraneche	1	Enero	2023-08-01T00:00:00	2024-11-06T16:00:00	8	Radiación solar	88
1481	7	Sololá	701	Sololá	3	Barraneche	1	Enero	2023-08-01T00:00:00	2024-11-06T17:00:00	2	Temperatura media	14.3
1482	7	Sololá	701	Sololá	3	Barraneche	1	Enero	2023-08-01T00:00:00	2024-11-06T17:00:00	4	Temperatura máxima	14.7
1483	7	Sololá	701	Sololá	3	Barraneche	1	Enero	2023-08-01T00:00:00	2024-11-06T17:00:00	3	Temperatura mínima	14.3
1484	7	Sololá	701	Sololá	3	Barraneche	1	Enero	2023-08-01T00:00:00	2024-11-06T17:00:00	5	Humedad	67
1485	7	Sololá	701	Sololá	3	Barraneche	1	Enero	2023-08-01T00:00:00	2024-11-06T17:00:00	6	Velocidad del viento	8
1486	7	Sololá	701	Sololá	3	Barraneche	1	Enero	2023-08-01T00:00:00	2024-11-06T17:00:00	7	Dirección del viento	8.05
1487	7	Sololá	701	Sololá	3	Barraneche	1	Enero	2023-08-01T00:00:00	2024-11-06T17:00:00	1	Precipitación	0
1488	7	Sololá	701	Sololá	3	Barraneche	1	Enero	2023-08-01T00:00:00	2024-11-06T17:00:00	8	Radiación solar	97
1489	7	Sololá	701	Sololá	3	Barraneche	1	Enero	2023-08-01T00:00:00	2024-11-06T18:00:00	2	Temperatura media	13.8
1490	7	Sololá	701	Sololá	3	Barraneche	1	Enero	2023-08-01T00:00:00	2024-11-06T18:00:00	4	Temperatura máxima	14.5
1491	7	Sololá	701	Sololá	3	Barraneche	1	Enero	2023-08-01T00:00:00	2024-11-06T18:00:00	3	Temperatura mínima	13.8
1492	7	Sololá	701	Sololá	3	Barraneche	1	Enero	2023-08-01T00:00:00	2024-11-06T18:00:00	5	Humedad	64
1493	7	Sololá	701	Sololá	3	Barraneche	1	Enero	2023-08-01T00:00:00	2024-11-06T18:00:00	6	Velocidad del viento	8
1494	7	Sololá	701	Sololá	3	Barraneche	1	Enero	2023-08-01T00:00:00	2024-11-06T18:00:00	7	Dirección del viento	8.05
1495	7	Sololá	701	Sololá	3	Barraneche	1	Enero	2023-08-01T00:00:00	2024-11-06T18:00:00	1	Precipitación	0
1496	7	Sololá	701	Sololá	3	Barraneche	1	Enero	2023-08-01T00:00:00	2024-11-06T18:00:00	8	Radiación solar	11
1497	7	Sololá	701	Sololá	3	Barraneche	1	Enero	2023-08-01T00:00:00	2024-11-06T19:00:00	2	Temperatura media	12.9
1498	7	Sololá	701	Sololá	3	Barraneche	1	Enero	2023-08-01T00:00:00	2024-11-06T19:00:00	4	Temperatura máxima	13.8
1499	7	Sololá	701	Sololá	3	Barraneche	1	Enero	2023-08-01T00:00:00	2024-11-06T19:00:00	3	Temperatura mínima	12.9
1500	7	Sololá	701	Sololá	3	Barraneche	1	Enero	2023-08-01T00:00:00	2024-11-06T19:00:00	5	Humedad	65
1501	7	Sololá	701	Sololá	3	Barraneche	1	Enero	2023-08-01T00:00:00	2024-11-06T19:00:00	6	Velocidad del viento	4.8
1502	7	Sololá	701	Sololá	3	Barraneche	1	Enero	2023-08-01T00:00:00	2024-11-06T19:00:00	7	Dirección del viento	4.83
1503	7	Sololá	701	Sololá	3	Barraneche	1	Enero	2023-08-01T00:00:00	2024-11-06T19:00:00	1	Precipitación	0
1504	7	Sololá	701	Sololá	3	Barraneche	1	Enero	2023-08-01T00:00:00	2024-11-06T19:00:00	8	Radiación solar	0
1505	7	Sololá	701	Sololá	3	Barraneche	1	Enero	2023-08-01T00:00:00	2024-11-06T20:00:00	2	Temperatura media	12.6
1506	7	Sololá	701	Sololá	3	Barraneche	1	Enero	2023-08-01T00:00:00	2024-11-06T20:00:00	4	Temperatura máxima	13.1
1507	7	Sololá	701	Sololá	3	Barraneche	1	Enero	2023-08-01T00:00:00	2024-11-06T20:00:00	3	Temperatura mínima	12.6
1508	7	Sololá	701	Sololá	3	Barraneche	1	Enero	2023-08-01T00:00:00	2024-11-06T20:00:00	5	Humedad	64
1509	7	Sololá	701	Sololá	3	Barraneche	1	Enero	2023-08-01T00:00:00	2024-11-06T20:00:00	6	Velocidad del viento	4.8
1510	7	Sololá	701	Sololá	3	Barraneche	1	Enero	2023-08-01T00:00:00	2024-11-06T20:00:00	7	Dirección del viento	4.83
1511	7	Sololá	701	Sololá	3	Barraneche	1	Enero	2023-08-01T00:00:00	2024-11-06T20:00:00	1	Precipitación	0
1512	7	Sololá	701	Sololá	3	Barraneche	1	Enero	2023-08-01T00:00:00	2024-11-06T20:00:00	8	Radiación solar	0
1513	7	Sololá	701	Sololá	3	Barraneche	1	Enero	2023-08-01T00:00:00	2024-11-06T21:00:00	2	Temperatura media	12.8
1514	7	Sololá	701	Sololá	3	Barraneche	1	Enero	2023-08-01T00:00:00	2024-11-06T21:00:00	4	Temperatura máxima	12.8
1515	7	Sololá	701	Sololá	3	Barraneche	1	Enero	2023-08-01T00:00:00	2024-11-06T21:00:00	3	Temperatura mínima	12.4
1516	7	Sololá	701	Sololá	3	Barraneche	1	Enero	2023-08-01T00:00:00	2024-11-06T21:00:00	5	Humedad	65
1517	7	Sololá	701	Sololá	3	Barraneche	1	Enero	2023-08-01T00:00:00	2024-11-06T21:00:00	6	Velocidad del viento	6.4
1518	7	Sololá	701	Sololá	3	Barraneche	1	Enero	2023-08-01T00:00:00	2024-11-06T21:00:00	7	Dirección del viento	6.44
1519	7	Sololá	701	Sololá	3	Barraneche	1	Enero	2023-08-01T00:00:00	2024-11-06T21:00:00	1	Precipitación	0
1520	7	Sololá	701	Sololá	3	Barraneche	1	Enero	2023-08-01T00:00:00	2024-11-06T21:00:00	8	Radiación solar	0
1521	7	Sololá	701	Sololá	3	Barraneche	1	Enero	2023-08-01T00:00:00	2024-11-06T22:00:00	2	Temperatura media	12.6
1522	7	Sololá	701	Sololá	3	Barraneche	1	Enero	2023-08-01T00:00:00	2024-11-06T22:00:00	4	Temperatura máxima	12.9
1523	7	Sololá	701	Sololá	3	Barraneche	1	Enero	2023-08-01T00:00:00	2024-11-06T22:00:00	3	Temperatura mínima	12.6
1524	7	Sololá	701	Sololá	3	Barraneche	1	Enero	2023-08-01T00:00:00	2024-11-06T22:00:00	5	Humedad	62
1525	7	Sololá	701	Sololá	3	Barraneche	1	Enero	2023-08-01T00:00:00	2024-11-06T22:00:00	6	Velocidad del viento	9.7
1526	7	Sololá	701	Sololá	3	Barraneche	1	Enero	2023-08-01T00:00:00	2024-11-06T22:00:00	7	Dirección del viento	9.66
1527	7	Sololá	701	Sololá	3	Barraneche	1	Enero	2023-08-01T00:00:00	2024-11-06T22:00:00	1	Precipitación	0
1528	7	Sololá	701	Sololá	3	Barraneche	1	Enero	2023-08-01T00:00:00	2024-11-06T22:00:00	8	Radiación solar	0
1529	7	Sololá	701	Sololá	3	Barraneche	1	Enero	2023-08-01T00:00:00	2024-11-06T23:00:00	2	Temperatura media	12.4
1530	7	Sololá	701	Sololá	3	Barraneche	1	Enero	2023-08-01T00:00:00	2024-11-06T23:00:00	4	Temperatura máxima	12.7
1531	7	Sololá	701	Sololá	3	Barraneche	1	Enero	2023-08-01T00:00:00	2024-11-06T23:00:00	3	Temperatura mínima	12.3
1532	7	Sololá	701	Sololá	3	Barraneche	1	Enero	2023-08-01T00:00:00	2024-11-06T23:00:00	5	Humedad	60
1533	7	Sololá	701	Sololá	3	Barraneche	1	Enero	2023-08-01T00:00:00	2024-11-06T23:00:00	6	Velocidad del viento	9.7
1534	7	Sololá	701	Sololá	3	Barraneche	1	Enero	2023-08-01T00:00:00	2024-11-06T23:00:00	7	Dirección del viento	9.66
1535	7	Sololá	701	Sololá	3	Barraneche	1	Enero	2023-08-01T00:00:00	2024-11-06T23:00:00	1	Precipitación	0
1536	7	Sololá	701	Sololá	3	Barraneche	1	Enero	2023-08-01T00:00:00	2024-11-06T23:00:00	8	Radiación solar	0
1537	7	Sololá	701	Sololá	3	Barraneche	1	Enero	2023-09-01T00:00:00	2024-11-06T00:00:00	2	Temperatura media	11.8
1538	7	Sololá	701	Sololá	3	Barraneche	1	Enero	2023-09-01T00:00:00	2024-11-06T00:00:00	4	Temperatura máxima	12.5
1539	7	Sololá	701	Sololá	3	Barraneche	1	Enero	2023-09-01T00:00:00	2024-11-06T00:00:00	3	Temperatura mínima	11.8
1540	7	Sololá	701	Sololá	3	Barraneche	1	Enero	2023-09-01T00:00:00	2024-11-06T00:00:00	5	Humedad	61
1541	7	Sololá	701	Sololá	3	Barraneche	1	Enero	2023-09-01T00:00:00	2024-11-06T00:00:00	6	Velocidad del viento	8
1542	7	Sololá	701	Sololá	3	Barraneche	1	Enero	2023-09-01T00:00:00	2024-11-06T00:00:00	7	Dirección del viento	8.05
1543	7	Sololá	701	Sololá	3	Barraneche	1	Enero	2023-09-01T00:00:00	2024-11-06T00:00:00	1	Precipitación	0
1544	7	Sololá	701	Sololá	3	Barraneche	1	Enero	2023-09-01T00:00:00	2024-11-06T00:00:00	8	Radiación solar	0
1545	7	Sololá	701	Sololá	3	Barraneche	1	Enero	2023-09-01T00:00:00	2024-11-06T01:00:00	2	Temperatura media	11.6
1546	7	Sololá	701	Sololá	3	Barraneche	1	Enero	2023-09-01T00:00:00	2024-11-06T01:00:00	4	Temperatura máxima	12.1
1547	7	Sololá	701	Sololá	3	Barraneche	1	Enero	2023-09-01T00:00:00	2024-11-06T01:00:00	3	Temperatura mínima	11.6
1548	7	Sololá	701	Sololá	3	Barraneche	1	Enero	2023-09-01T00:00:00	2024-11-06T01:00:00	5	Humedad	63
1549	7	Sololá	701	Sololá	3	Barraneche	1	Enero	2023-09-01T00:00:00	2024-11-06T01:00:00	6	Velocidad del viento	6.4
1550	7	Sololá	701	Sololá	3	Barraneche	1	Enero	2023-09-01T00:00:00	2024-11-06T01:00:00	7	Dirección del viento	6.44
1551	7	Sololá	701	Sololá	3	Barraneche	1	Enero	2023-09-01T00:00:00	2024-11-06T01:00:00	1	Precipitación	0
1552	7	Sololá	701	Sololá	3	Barraneche	1	Enero	2023-09-01T00:00:00	2024-11-06T01:00:00	8	Radiación solar	0
1553	7	Sololá	701	Sololá	3	Barraneche	1	Enero	2023-09-01T00:00:00	2024-11-06T02:00:00	2	Temperatura media	10.1
1554	7	Sololá	701	Sololá	3	Barraneche	1	Enero	2023-09-01T00:00:00	2024-11-06T02:00:00	4	Temperatura máxima	11.7
1555	7	Sololá	701	Sololá	3	Barraneche	1	Enero	2023-09-01T00:00:00	2024-11-06T02:00:00	3	Temperatura mínima	10.1
1556	7	Sololá	701	Sololá	3	Barraneche	1	Enero	2023-09-01T00:00:00	2024-11-06T02:00:00	5	Humedad	65
1557	7	Sololá	701	Sololá	3	Barraneche	1	Enero	2023-09-01T00:00:00	2024-11-06T02:00:00	6	Velocidad del viento	6.4
1558	7	Sololá	701	Sololá	3	Barraneche	1	Enero	2023-09-01T00:00:00	2024-11-06T02:00:00	7	Dirección del viento	6.44
1559	7	Sololá	701	Sololá	3	Barraneche	1	Enero	2023-09-01T00:00:00	2024-11-06T02:00:00	1	Precipitación	0
1560	7	Sololá	701	Sololá	3	Barraneche	1	Enero	2023-09-01T00:00:00	2024-11-06T02:00:00	8	Radiación solar	0
1561	7	Sololá	701	Sololá	3	Barraneche	1	Enero	2023-09-01T00:00:00	2024-11-06T03:00:00	2	Temperatura media	9.2
1562	7	Sololá	701	Sololá	3	Barraneche	1	Enero	2023-09-01T00:00:00	2024-11-06T03:00:00	4	Temperatura máxima	10.8
1563	7	Sololá	701	Sololá	3	Barraneche	1	Enero	2023-09-01T00:00:00	2024-11-06T03:00:00	3	Temperatura mínima	9.2
1564	7	Sololá	701	Sololá	3	Barraneche	1	Enero	2023-09-01T00:00:00	2024-11-06T03:00:00	5	Humedad	67
1565	7	Sololá	701	Sololá	3	Barraneche	1	Enero	2023-09-01T00:00:00	2024-11-06T03:00:00	6	Velocidad del viento	4.8
1566	7	Sololá	701	Sololá	3	Barraneche	1	Enero	2023-09-01T00:00:00	2024-11-06T03:00:00	7	Dirección del viento	4.83
1567	7	Sololá	701	Sololá	3	Barraneche	1	Enero	2023-09-01T00:00:00	2024-11-06T03:00:00	1	Precipitación	0
1568	7	Sololá	701	Sololá	3	Barraneche	1	Enero	2023-09-01T00:00:00	2024-11-06T03:00:00	8	Radiación solar	0
1569	7	Sololá	701	Sololá	3	Barraneche	1	Enero	2023-09-01T00:00:00	2024-11-06T04:00:00	2	Temperatura media	8.8
1570	7	Sololá	701	Sololá	3	Barraneche	1	Enero	2023-09-01T00:00:00	2024-11-06T04:00:00	4	Temperatura máxima	9.4
1571	7	Sololá	701	Sololá	3	Barraneche	1	Enero	2023-09-01T00:00:00	2024-11-06T04:00:00	3	Temperatura mínima	8.6
1572	7	Sololá	701	Sololá	3	Barraneche	1	Enero	2023-09-01T00:00:00	2024-11-06T04:00:00	5	Humedad	67
1573	7	Sololá	701	Sololá	3	Barraneche	1	Enero	2023-09-01T00:00:00	2024-11-06T04:00:00	6	Velocidad del viento	4.8
1574	7	Sololá	701	Sololá	3	Barraneche	1	Enero	2023-09-01T00:00:00	2024-11-06T04:00:00	7	Dirección del viento	4.83
1575	7	Sololá	701	Sololá	3	Barraneche	1	Enero	2023-09-01T00:00:00	2024-11-06T04:00:00	1	Precipitación	0
1576	7	Sololá	701	Sololá	3	Barraneche	1	Enero	2023-09-01T00:00:00	2024-11-06T04:00:00	8	Radiación solar	0
1577	7	Sololá	701	Sololá	3	Barraneche	1	Enero	2023-09-01T00:00:00	2024-11-06T05:00:00	2	Temperatura media	8.5
1578	7	Sololá	701	Sololá	3	Barraneche	1	Enero	2023-09-01T00:00:00	2024-11-06T05:00:00	4	Temperatura máxima	8.8
1579	7	Sololá	701	Sololá	3	Barraneche	1	Enero	2023-09-01T00:00:00	2024-11-06T05:00:00	3	Temperatura mínima	8.1
1580	7	Sololá	701	Sololá	3	Barraneche	1	Enero	2023-09-01T00:00:00	2024-11-06T05:00:00	5	Humedad	67
1581	7	Sololá	701	Sololá	3	Barraneche	1	Enero	2023-09-01T00:00:00	2024-11-06T05:00:00	6	Velocidad del viento	3.2
1582	7	Sololá	701	Sololá	3	Barraneche	1	Enero	2023-09-01T00:00:00	2024-11-06T05:00:00	7	Dirección del viento	3.22
1583	7	Sololá	701	Sololá	3	Barraneche	1	Enero	2023-09-01T00:00:00	2024-11-06T05:00:00	1	Precipitación	0
1584	7	Sololá	701	Sololá	3	Barraneche	1	Enero	2023-09-01T00:00:00	2024-11-06T05:00:00	8	Radiación solar	0
1585	7	Sololá	701	Sololá	3	Barraneche	1	Enero	2023-09-01T00:00:00	2024-11-06T06:00:00	2	Temperatura media	8.8
1586	7	Sololá	701	Sololá	3	Barraneche	1	Enero	2023-09-01T00:00:00	2024-11-06T06:00:00	4	Temperatura máxima	8.8
1587	7	Sololá	701	Sololá	3	Barraneche	1	Enero	2023-09-01T00:00:00	2024-11-06T06:00:00	3	Temperatura mínima	8.1
1588	7	Sololá	701	Sololá	3	Barraneche	1	Enero	2023-09-01T00:00:00	2024-11-06T06:00:00	5	Humedad	66
1589	7	Sololá	701	Sololá	3	Barraneche	1	Enero	2023-09-01T00:00:00	2024-11-06T06:00:00	6	Velocidad del viento	4.8
1590	7	Sololá	701	Sololá	3	Barraneche	1	Enero	2023-09-01T00:00:00	2024-11-06T06:00:00	7	Dirección del viento	4.83
1591	7	Sololá	701	Sololá	3	Barraneche	1	Enero	2023-09-01T00:00:00	2024-11-06T06:00:00	1	Precipitación	0
1592	7	Sololá	701	Sololá	3	Barraneche	1	Enero	2023-09-01T00:00:00	2024-11-06T06:00:00	8	Radiación solar	0
1593	7	Sololá	701	Sololá	3	Barraneche	1	Enero	2023-09-01T00:00:00	2024-11-06T07:00:00	2	Temperatura media	9.1
1594	7	Sololá	701	Sololá	3	Barraneche	1	Enero	2023-09-01T00:00:00	2024-11-06T07:00:00	4	Temperatura máxima	9.4
1595	7	Sololá	701	Sololá	3	Barraneche	1	Enero	2023-09-01T00:00:00	2024-11-06T07:00:00	3	Temperatura mínima	8.8
1596	7	Sololá	701	Sololá	3	Barraneche	1	Enero	2023-09-01T00:00:00	2024-11-06T07:00:00	5	Humedad	66
1597	7	Sololá	701	Sololá	3	Barraneche	1	Enero	2023-09-01T00:00:00	2024-11-06T07:00:00	6	Velocidad del viento	6.4
1598	7	Sololá	701	Sololá	3	Barraneche	1	Enero	2023-09-01T00:00:00	2024-11-06T07:00:00	7	Dirección del viento	6.44
1599	7	Sololá	701	Sololá	3	Barraneche	1	Enero	2023-09-01T00:00:00	2024-11-06T07:00:00	1	Precipitación	0
1600	7	Sololá	701	Sololá	3	Barraneche	1	Enero	2023-09-01T00:00:00	2024-11-06T07:00:00	8	Radiación solar	5
1601	7	Sololá	701	Sololá	3	Barraneche	1	Enero	2023-09-01T00:00:00	2024-11-06T08:00:00	2	Temperatura media	13.3
1602	7	Sololá	701	Sololá	3	Barraneche	1	Enero	2023-09-01T00:00:00	2024-11-06T08:00:00	4	Temperatura máxima	13.3
1603	7	Sololá	701	Sololá	3	Barraneche	1	Enero	2023-09-01T00:00:00	2024-11-06T08:00:00	3	Temperatura mínima	8.9
1604	7	Sololá	701	Sololá	3	Barraneche	1	Enero	2023-09-01T00:00:00	2024-11-06T08:00:00	5	Humedad	58
1605	7	Sololá	701	Sololá	3	Barraneche	1	Enero	2023-09-01T00:00:00	2024-11-06T08:00:00	6	Velocidad del viento	3.2
1606	7	Sololá	701	Sololá	3	Barraneche	1	Enero	2023-09-01T00:00:00	2024-11-06T08:00:00	7	Dirección del viento	3.22
1607	7	Sololá	701	Sololá	3	Barraneche	1	Enero	2023-09-01T00:00:00	2024-11-06T08:00:00	1	Precipitación	0
1608	7	Sololá	701	Sololá	3	Barraneche	1	Enero	2023-09-01T00:00:00	2024-11-06T08:00:00	8	Radiación solar	139
1609	7	Sololá	701	Sololá	3	Barraneche	1	Enero	2023-09-01T00:00:00	2024-11-06T09:00:00	2	Temperatura media	15.3
1610	7	Sololá	701	Sololá	3	Barraneche	1	Enero	2023-09-01T00:00:00	2024-11-06T09:00:00	4	Temperatura máxima	15.4
1611	7	Sololá	701	Sololá	3	Barraneche	1	Enero	2023-09-01T00:00:00	2024-11-06T09:00:00	3	Temperatura mínima	13.2
1612	7	Sololá	701	Sololá	3	Barraneche	1	Enero	2023-09-01T00:00:00	2024-11-06T09:00:00	5	Humedad	53
1613	7	Sololá	701	Sololá	3	Barraneche	1	Enero	2023-09-01T00:00:00	2024-11-06T09:00:00	6	Velocidad del viento	9.7
1614	7	Sololá	701	Sololá	3	Barraneche	1	Enero	2023-09-01T00:00:00	2024-11-06T09:00:00	7	Dirección del viento	9.66
1615	7	Sololá	701	Sololá	3	Barraneche	1	Enero	2023-09-01T00:00:00	2024-11-06T09:00:00	1	Precipitación	0
1616	7	Sololá	701	Sololá	3	Barraneche	1	Enero	2023-09-01T00:00:00	2024-11-06T09:00:00	8	Radiación solar	383
1617	7	Sololá	701	Sololá	3	Barraneche	1	Enero	2023-09-01T00:00:00	2024-11-06T10:00:00	2	Temperatura media	16.7
1618	7	Sololá	701	Sololá	3	Barraneche	1	Enero	2023-09-01T00:00:00	2024-11-06T10:00:00	4	Temperatura máxima	16.8
1619	7	Sololá	701	Sololá	3	Barraneche	1	Enero	2023-09-01T00:00:00	2024-11-06T10:00:00	3	Temperatura mínima	15.2
1620	7	Sololá	701	Sololá	3	Barraneche	1	Enero	2023-09-01T00:00:00	2024-11-06T10:00:00	5	Humedad	50
1621	7	Sololá	701	Sololá	3	Barraneche	1	Enero	2023-09-01T00:00:00	2024-11-06T10:00:00	6	Velocidad del viento	11.3
1622	7	Sololá	701	Sololá	3	Barraneche	1	Enero	2023-09-01T00:00:00	2024-11-06T10:00:00	7	Dirección del viento	11.27
1623	7	Sololá	701	Sololá	3	Barraneche	1	Enero	2023-09-01T00:00:00	2024-11-06T10:00:00	1	Precipitación	0
1624	7	Sololá	701	Sololá	3	Barraneche	1	Enero	2023-09-01T00:00:00	2024-11-06T10:00:00	8	Radiación solar	592
1625	7	Sololá	701	Sololá	3	Barraneche	1	Enero	2023-09-01T00:00:00	2024-11-06T11:00:00	2	Temperatura media	16.9
1626	7	Sololá	701	Sololá	3	Barraneche	1	Enero	2023-09-01T00:00:00	2024-11-06T11:00:00	4	Temperatura máxima	17.2
1627	7	Sololá	701	Sololá	3	Barraneche	1	Enero	2023-09-01T00:00:00	2024-11-06T11:00:00	3	Temperatura mínima	16.4
1628	7	Sololá	701	Sololá	3	Barraneche	1	Enero	2023-09-01T00:00:00	2024-11-06T11:00:00	5	Humedad	47
1629	7	Sololá	701	Sololá	3	Barraneche	1	Enero	2023-09-01T00:00:00	2024-11-06T11:00:00	6	Velocidad del viento	14.5
1630	7	Sololá	701	Sololá	3	Barraneche	1	Enero	2023-09-01T00:00:00	2024-11-06T11:00:00	7	Dirección del viento	14.48
1631	7	Sololá	701	Sololá	3	Barraneche	1	Enero	2023-09-01T00:00:00	2024-11-06T11:00:00	1	Precipitación	0
1632	7	Sololá	701	Sololá	3	Barraneche	1	Enero	2023-09-01T00:00:00	2024-11-06T11:00:00	8	Radiación solar	670
1633	7	Sololá	701	Sololá	3	Barraneche	1	Enero	2023-09-01T00:00:00	2024-11-06T12:00:00	2	Temperatura media	17.5
1634	7	Sololá	701	Sololá	3	Barraneche	1	Enero	2023-09-01T00:00:00	2024-11-06T12:00:00	4	Temperatura máxima	18.1
1635	7	Sololá	701	Sololá	3	Barraneche	1	Enero	2023-09-01T00:00:00	2024-11-06T12:00:00	3	Temperatura mínima	16.9
1636	7	Sololá	701	Sololá	3	Barraneche	1	Enero	2023-09-01T00:00:00	2024-11-06T12:00:00	5	Humedad	42
1637	7	Sololá	701	Sololá	3	Barraneche	1	Enero	2023-09-01T00:00:00	2024-11-06T12:00:00	6	Velocidad del viento	16.1
1638	7	Sololá	701	Sololá	3	Barraneche	1	Enero	2023-09-01T00:00:00	2024-11-06T12:00:00	7	Dirección del viento	16.09
1639	7	Sololá	701	Sololá	3	Barraneche	1	Enero	2023-09-01T00:00:00	2024-11-06T12:00:00	1	Precipitación	0
1640	7	Sololá	701	Sololá	3	Barraneche	1	Enero	2023-09-01T00:00:00	2024-11-06T12:00:00	8	Radiación solar	744
1641	7	Sololá	701	Sololá	3	Barraneche	1	Enero	2023-09-01T00:00:00	2024-11-06T13:00:00	2	Temperatura media	17.7
1642	7	Sololá	701	Sololá	3	Barraneche	1	Enero	2023-09-01T00:00:00	2024-11-06T13:00:00	4	Temperatura máxima	17.9
1643	7	Sololá	701	Sololá	3	Barraneche	1	Enero	2023-09-01T00:00:00	2024-11-06T13:00:00	3	Temperatura mínima	17.2
1644	7	Sololá	701	Sololá	3	Barraneche	1	Enero	2023-09-01T00:00:00	2024-11-06T13:00:00	5	Humedad	48
1645	7	Sololá	701	Sololá	3	Barraneche	1	Enero	2023-09-01T00:00:00	2024-11-06T13:00:00	6	Velocidad del viento	19.3
1646	7	Sololá	701	Sololá	3	Barraneche	1	Enero	2023-09-01T00:00:00	2024-11-06T13:00:00	7	Dirección del viento	19.31
1647	7	Sololá	701	Sololá	3	Barraneche	1	Enero	2023-09-01T00:00:00	2024-11-06T13:00:00	1	Precipitación	0
1648	7	Sololá	701	Sololá	3	Barraneche	1	Enero	2023-09-01T00:00:00	2024-11-06T13:00:00	8	Radiación solar	857
1649	7	Sololá	701	Sololá	3	Barraneche	1	Enero	2023-09-01T00:00:00	2024-11-06T14:00:00	2	Temperatura media	16.8
1650	7	Sololá	701	Sololá	3	Barraneche	1	Enero	2023-09-01T00:00:00	2024-11-06T14:00:00	4	Temperatura máxima	18.3
1651	7	Sololá	701	Sololá	3	Barraneche	1	Enero	2023-09-01T00:00:00	2024-11-06T14:00:00	3	Temperatura mínima	16.8
1652	7	Sololá	701	Sololá	3	Barraneche	1	Enero	2023-09-01T00:00:00	2024-11-06T14:00:00	5	Humedad	51
1653	7	Sololá	701	Sololá	3	Barraneche	1	Enero	2023-09-01T00:00:00	2024-11-06T14:00:00	6	Velocidad del viento	14.5
1654	7	Sololá	701	Sololá	3	Barraneche	1	Enero	2023-09-01T00:00:00	2024-11-06T14:00:00	7	Dirección del viento	14.48
1655	7	Sololá	701	Sololá	3	Barraneche	1	Enero	2023-09-01T00:00:00	2024-11-06T14:00:00	1	Precipitación	0
1656	7	Sololá	701	Sololá	3	Barraneche	1	Enero	2023-09-01T00:00:00	2024-11-06T14:00:00	8	Radiación solar	267
1657	7	Sololá	701	Sololá	3	Barraneche	1	Enero	2023-09-01T00:00:00	2024-11-06T15:00:00	2	Temperatura media	17.1
1658	7	Sololá	701	Sololá	3	Barraneche	1	Enero	2023-09-01T00:00:00	2024-11-06T15:00:00	4	Temperatura máxima	17.9
1659	7	Sololá	701	Sololá	3	Barraneche	1	Enero	2023-09-01T00:00:00	2024-11-06T15:00:00	3	Temperatura mínima	16.8
1660	7	Sololá	701	Sololá	3	Barraneche	1	Enero	2023-09-01T00:00:00	2024-11-06T15:00:00	5	Humedad	51
1661	7	Sololá	701	Sololá	3	Barraneche	1	Enero	2023-09-01T00:00:00	2024-11-06T15:00:00	6	Velocidad del viento	12.9
1662	7	Sololá	701	Sololá	3	Barraneche	1	Enero	2023-09-01T00:00:00	2024-11-06T15:00:00	7	Dirección del viento	12.87
1663	7	Sololá	701	Sololá	3	Barraneche	1	Enero	2023-09-01T00:00:00	2024-11-06T15:00:00	1	Precipitación	0
1664	7	Sololá	701	Sololá	3	Barraneche	1	Enero	2023-09-01T00:00:00	2024-11-06T15:00:00	8	Radiación solar	365
1665	7	Sololá	701	Sololá	3	Barraneche	1	Enero	2023-09-01T00:00:00	2024-11-06T16:00:00	2	Temperatura media	16.9
1666	7	Sololá	701	Sololá	3	Barraneche	1	Enero	2023-09-01T00:00:00	2024-11-06T16:00:00	4	Temperatura máxima	17.7
1667	7	Sololá	701	Sololá	3	Barraneche	1	Enero	2023-09-01T00:00:00	2024-11-06T16:00:00	3	Temperatura mínima	16.8
1668	7	Sololá	701	Sololá	3	Barraneche	1	Enero	2023-09-01T00:00:00	2024-11-06T16:00:00	5	Humedad	52
1669	7	Sololá	701	Sololá	3	Barraneche	1	Enero	2023-09-01T00:00:00	2024-11-06T16:00:00	6	Velocidad del viento	12.9
1670	7	Sololá	701	Sololá	3	Barraneche	1	Enero	2023-09-01T00:00:00	2024-11-06T16:00:00	7	Dirección del viento	12.87
1671	7	Sololá	701	Sololá	3	Barraneche	1	Enero	2023-09-01T00:00:00	2024-11-06T16:00:00	1	Precipitación	0
1672	7	Sololá	701	Sololá	3	Barraneche	1	Enero	2023-09-01T00:00:00	2024-11-06T16:00:00	8	Radiación solar	448
1673	7	Sololá	701	Sololá	3	Barraneche	1	Enero	2023-09-01T00:00:00	2024-11-06T17:00:00	2	Temperatura media	15.9
1674	7	Sololá	701	Sololá	3	Barraneche	1	Enero	2023-09-01T00:00:00	2024-11-06T17:00:00	4	Temperatura máxima	16.8
1675	7	Sololá	701	Sololá	3	Barraneche	1	Enero	2023-09-01T00:00:00	2024-11-06T17:00:00	3	Temperatura mínima	15.8
1676	7	Sololá	701	Sololá	3	Barraneche	1	Enero	2023-09-01T00:00:00	2024-11-06T17:00:00	5	Humedad	56
1677	7	Sololá	701	Sololá	3	Barraneche	1	Enero	2023-09-01T00:00:00	2024-11-06T17:00:00	6	Velocidad del viento	11.3
1678	7	Sololá	701	Sololá	3	Barraneche	1	Enero	2023-09-01T00:00:00	2024-11-06T17:00:00	7	Dirección del viento	11.27
1679	7	Sololá	701	Sololá	3	Barraneche	1	Enero	2023-09-01T00:00:00	2024-11-06T17:00:00	1	Precipitación	0
1680	7	Sololá	701	Sololá	3	Barraneche	1	Enero	2023-09-01T00:00:00	2024-11-06T17:00:00	8	Radiación solar	243
1681	7	Sololá	701	Sololá	3	Barraneche	1	Enero	2023-09-01T00:00:00	2024-11-06T18:00:00	2	Temperatura media	13.9
1682	7	Sololá	701	Sololá	3	Barraneche	1	Enero	2023-09-01T00:00:00	2024-11-06T18:00:00	4	Temperatura máxima	15.9
1683	7	Sololá	701	Sololá	3	Barraneche	1	Enero	2023-09-01T00:00:00	2024-11-06T18:00:00	3	Temperatura mínima	13.9
1684	7	Sololá	701	Sololá	3	Barraneche	1	Enero	2023-09-01T00:00:00	2024-11-06T18:00:00	5	Humedad	62
1685	7	Sololá	701	Sololá	3	Barraneche	1	Enero	2023-09-01T00:00:00	2024-11-06T18:00:00	6	Velocidad del viento	6.4
1686	7	Sololá	701	Sololá	3	Barraneche	1	Enero	2023-09-01T00:00:00	2024-11-06T18:00:00	7	Dirección del viento	6.44
1687	7	Sololá	701	Sololá	3	Barraneche	1	Enero	2023-09-01T00:00:00	2024-11-06T18:00:00	1	Precipitación	0
1688	7	Sololá	701	Sololá	3	Barraneche	1	Enero	2023-09-01T00:00:00	2024-11-06T18:00:00	8	Radiación solar	41
1689	7	Sololá	701	Sololá	3	Barraneche	1	Enero	2023-09-01T00:00:00	2024-11-06T19:00:00	2	Temperatura media	13.1
1690	7	Sololá	701	Sololá	3	Barraneche	1	Enero	2023-09-01T00:00:00	2024-11-06T19:00:00	4	Temperatura máxima	13.9
1691	7	Sololá	701	Sololá	3	Barraneche	1	Enero	2023-09-01T00:00:00	2024-11-06T19:00:00	3	Temperatura mínima	13.1
1692	7	Sololá	701	Sololá	3	Barraneche	1	Enero	2023-09-01T00:00:00	2024-11-06T19:00:00	5	Humedad	65
1693	7	Sololá	701	Sololá	3	Barraneche	1	Enero	2023-09-01T00:00:00	2024-11-06T19:00:00	6	Velocidad del viento	4.8
1694	7	Sololá	701	Sololá	3	Barraneche	1	Enero	2023-09-01T00:00:00	2024-11-06T19:00:00	7	Dirección del viento	4.83
1695	7	Sololá	701	Sololá	3	Barraneche	1	Enero	2023-09-01T00:00:00	2024-11-06T19:00:00	1	Precipitación	0
1696	7	Sololá	701	Sololá	3	Barraneche	1	Enero	2023-09-01T00:00:00	2024-11-06T19:00:00	8	Radiación solar	0
1697	7	Sololá	701	Sololá	3	Barraneche	1	Enero	2023-09-01T00:00:00	2024-11-06T20:00:00	2	Temperatura media	13.1
1698	7	Sololá	701	Sololá	3	Barraneche	1	Enero	2023-09-01T00:00:00	2024-11-06T20:00:00	4	Temperatura máxima	13.1
1699	7	Sololá	701	Sololá	3	Barraneche	1	Enero	2023-09-01T00:00:00	2024-11-06T20:00:00	3	Temperatura mínima	12.7
1700	7	Sololá	701	Sololá	3	Barraneche	1	Enero	2023-09-01T00:00:00	2024-11-06T20:00:00	5	Humedad	63
1701	7	Sololá	701	Sololá	3	Barraneche	1	Enero	2023-09-01T00:00:00	2024-11-06T20:00:00	6	Velocidad del viento	8
1702	7	Sololá	701	Sololá	3	Barraneche	1	Enero	2023-09-01T00:00:00	2024-11-06T20:00:00	7	Dirección del viento	8.05
1703	7	Sololá	701	Sololá	3	Barraneche	1	Enero	2023-09-01T00:00:00	2024-11-06T20:00:00	1	Precipitación	0
1704	7	Sololá	701	Sololá	3	Barraneche	1	Enero	2023-09-01T00:00:00	2024-11-06T20:00:00	8	Radiación solar	0
1705	7	Sololá	701	Sololá	3	Barraneche	1	Enero	2023-09-01T00:00:00	2024-11-06T21:00:00	2	Temperatura media	12.7
1706	7	Sololá	701	Sololá	3	Barraneche	1	Enero	2023-09-01T00:00:00	2024-11-06T21:00:00	4	Temperatura máxima	13.1
1707	7	Sololá	701	Sololá	3	Barraneche	1	Enero	2023-09-01T00:00:00	2024-11-06T21:00:00	3	Temperatura mínima	12.7
1708	7	Sololá	701	Sololá	3	Barraneche	1	Enero	2023-09-01T00:00:00	2024-11-06T21:00:00	5	Humedad	64
1709	7	Sololá	701	Sololá	3	Barraneche	1	Enero	2023-09-01T00:00:00	2024-11-06T21:00:00	6	Velocidad del viento	6.4
1710	7	Sololá	701	Sololá	3	Barraneche	1	Enero	2023-09-01T00:00:00	2024-11-06T21:00:00	7	Dirección del viento	6.44
1711	7	Sololá	701	Sololá	3	Barraneche	1	Enero	2023-09-01T00:00:00	2024-11-06T21:00:00	1	Precipitación	0
1712	7	Sololá	701	Sololá	3	Barraneche	1	Enero	2023-09-01T00:00:00	2024-11-06T21:00:00	8	Radiación solar	0
1713	7	Sololá	701	Sololá	3	Barraneche	1	Enero	2023-09-01T00:00:00	2024-11-06T22:00:00	2	Temperatura media	12.7
1714	7	Sololá	701	Sololá	3	Barraneche	1	Enero	2023-09-01T00:00:00	2024-11-06T22:00:00	4	Temperatura máxima	12.8
1715	7	Sololá	701	Sololá	3	Barraneche	1	Enero	2023-09-01T00:00:00	2024-11-06T22:00:00	3	Temperatura mínima	12.6
1716	7	Sololá	701	Sololá	3	Barraneche	1	Enero	2023-09-01T00:00:00	2024-11-06T22:00:00	5	Humedad	64
1717	7	Sololá	701	Sololá	3	Barraneche	1	Enero	2023-09-01T00:00:00	2024-11-06T22:00:00	6	Velocidad del viento	4.8
1718	7	Sololá	701	Sololá	3	Barraneche	1	Enero	2023-09-01T00:00:00	2024-11-06T22:00:00	7	Dirección del viento	4.83
1719	7	Sololá	701	Sololá	3	Barraneche	1	Enero	2023-09-01T00:00:00	2024-11-06T22:00:00	1	Precipitación	0
1720	7	Sololá	701	Sololá	3	Barraneche	1	Enero	2023-09-01T00:00:00	2024-11-06T22:00:00	8	Radiación solar	0
1721	7	Sololá	701	Sololá	3	Barraneche	1	Enero	2023-09-01T00:00:00	2024-11-06T23:00:00	2	Temperatura media	12.3
1722	7	Sololá	701	Sololá	3	Barraneche	1	Enero	2023-09-01T00:00:00	2024-11-06T23:00:00	4	Temperatura máxima	12.8
1723	7	Sololá	701	Sololá	3	Barraneche	1	Enero	2023-09-01T00:00:00	2024-11-06T23:00:00	3	Temperatura mínima	12.3
1724	7	Sololá	701	Sololá	3	Barraneche	1	Enero	2023-09-01T00:00:00	2024-11-06T23:00:00	5	Humedad	66
1725	7	Sololá	701	Sololá	3	Barraneche	1	Enero	2023-09-01T00:00:00	2024-11-06T23:00:00	6	Velocidad del viento	11.3
1726	7	Sololá	701	Sololá	3	Barraneche	1	Enero	2023-09-01T00:00:00	2024-11-06T23:00:00	7	Dirección del viento	11.27
1727	7	Sololá	701	Sololá	3	Barraneche	1	Enero	2023-09-01T00:00:00	2024-11-06T23:00:00	1	Precipitación	0
1728	7	Sololá	701	Sololá	3	Barraneche	1	Enero	2023-09-01T00:00:00	2024-11-06T23:00:00	8	Radiación solar	0
1729	7	Sololá	701	Sololá	3	Barraneche	1	Enero	2023-10-01T00:00:00	2024-11-06T00:00:00	2	Temperatura media	11.8
1730	7	Sololá	701	Sololá	3	Barraneche	1	Enero	2023-10-01T00:00:00	2024-11-06T00:00:00	4	Temperatura máxima	12.3
1731	7	Sololá	701	Sololá	3	Barraneche	1	Enero	2023-10-01T00:00:00	2024-11-06T00:00:00	3	Temperatura mínima	11.8
1732	7	Sololá	701	Sololá	3	Barraneche	1	Enero	2023-10-01T00:00:00	2024-11-06T00:00:00	5	Humedad	65
1733	7	Sololá	701	Sololá	3	Barraneche	1	Enero	2023-10-01T00:00:00	2024-11-06T00:00:00	6	Velocidad del viento	9.7
1734	7	Sololá	701	Sololá	3	Barraneche	1	Enero	2023-10-01T00:00:00	2024-11-06T00:00:00	7	Dirección del viento	9.66
1735	7	Sololá	701	Sololá	3	Barraneche	1	Enero	2023-10-01T00:00:00	2024-11-06T00:00:00	1	Precipitación	0
1736	7	Sololá	701	Sololá	3	Barraneche	1	Enero	2023-10-01T00:00:00	2024-11-06T00:00:00	8	Radiación solar	0
1737	7	Sololá	701	Sololá	3	Barraneche	1	Enero	2023-10-01T00:00:00	2024-11-06T01:00:00	2	Temperatura media	10.8
1738	7	Sololá	701	Sololá	3	Barraneche	1	Enero	2023-10-01T00:00:00	2024-11-06T01:00:00	4	Temperatura máxima	12.1
1739	7	Sololá	701	Sololá	3	Barraneche	1	Enero	2023-10-01T00:00:00	2024-11-06T01:00:00	3	Temperatura mínima	10.8
1740	7	Sololá	701	Sololá	3	Barraneche	1	Enero	2023-10-01T00:00:00	2024-11-06T01:00:00	5	Humedad	68
1741	7	Sololá	701	Sololá	3	Barraneche	1	Enero	2023-10-01T00:00:00	2024-11-06T01:00:00	6	Velocidad del viento	4.8
1742	7	Sololá	701	Sololá	3	Barraneche	1	Enero	2023-10-01T00:00:00	2024-11-06T01:00:00	7	Dirección del viento	4.83
1743	7	Sololá	701	Sololá	3	Barraneche	1	Enero	2023-10-01T00:00:00	2024-11-06T01:00:00	1	Precipitación	0
1744	7	Sololá	701	Sololá	3	Barraneche	1	Enero	2023-10-01T00:00:00	2024-11-06T01:00:00	8	Radiación solar	0
1745	7	Sololá	701	Sololá	3	Barraneche	1	Enero	2023-10-01T00:00:00	2024-11-06T02:00:00	2	Temperatura media	9.7
1746	7	Sololá	701	Sololá	3	Barraneche	1	Enero	2023-10-01T00:00:00	2024-11-06T02:00:00	4	Temperatura máxima	10.8
1747	7	Sololá	701	Sololá	3	Barraneche	1	Enero	2023-10-01T00:00:00	2024-11-06T02:00:00	3	Temperatura mínima	9.7
1748	7	Sololá	701	Sololá	3	Barraneche	1	Enero	2023-10-01T00:00:00	2024-11-06T02:00:00	5	Humedad	68
1749	7	Sololá	701	Sololá	3	Barraneche	1	Enero	2023-10-01T00:00:00	2024-11-06T02:00:00	6	Velocidad del viento	3.2
1750	7	Sololá	701	Sololá	3	Barraneche	1	Enero	2023-10-01T00:00:00	2024-11-06T02:00:00	7	Dirección del viento	3.22
1751	7	Sololá	701	Sololá	3	Barraneche	1	Enero	2023-10-01T00:00:00	2024-11-06T02:00:00	1	Precipitación	0
1752	7	Sololá	701	Sololá	3	Barraneche	1	Enero	2023-10-01T00:00:00	2024-11-06T02:00:00	8	Radiación solar	0
1753	7	Sololá	701	Sololá	3	Barraneche	1	Enero	2023-10-01T00:00:00	2024-11-06T03:00:00	2	Temperatura media	8.9
1754	7	Sololá	701	Sololá	3	Barraneche	1	Enero	2023-10-01T00:00:00	2024-11-06T03:00:00	4	Temperatura máxima	10.2
1755	7	Sololá	701	Sololá	3	Barraneche	1	Enero	2023-10-01T00:00:00	2024-11-06T03:00:00	3	Temperatura mínima	8.9
1756	7	Sololá	701	Sololá	3	Barraneche	1	Enero	2023-10-01T00:00:00	2024-11-06T03:00:00	5	Humedad	69
1757	7	Sololá	701	Sololá	3	Barraneche	1	Enero	2023-10-01T00:00:00	2024-11-06T03:00:00	6	Velocidad del viento	3.2
1758	7	Sololá	701	Sololá	3	Barraneche	1	Enero	2023-10-01T00:00:00	2024-11-06T03:00:00	7	Dirección del viento	3.22
1759	7	Sololá	701	Sololá	3	Barraneche	1	Enero	2023-10-01T00:00:00	2024-11-06T03:00:00	1	Precipitación	0
1760	7	Sololá	701	Sololá	3	Barraneche	1	Enero	2023-10-01T00:00:00	2024-11-06T03:00:00	8	Radiación solar	0
1761	7	Sololá	701	Sololá	3	Barraneche	1	Enero	2023-10-01T00:00:00	2024-11-06T04:00:00	2	Temperatura media	9.1
1762	7	Sololá	701	Sololá	3	Barraneche	1	Enero	2023-10-01T00:00:00	2024-11-06T04:00:00	4	Temperatura máxima	9.3
1763	7	Sololá	701	Sololá	3	Barraneche	1	Enero	2023-10-01T00:00:00	2024-11-06T04:00:00	3	Temperatura mínima	8.6
1764	7	Sololá	701	Sololá	3	Barraneche	1	Enero	2023-10-01T00:00:00	2024-11-06T04:00:00	5	Humedad	67
1765	7	Sololá	701	Sololá	3	Barraneche	1	Enero	2023-10-01T00:00:00	2024-11-06T04:00:00	6	Velocidad del viento	4.8
1766	7	Sololá	701	Sololá	3	Barraneche	1	Enero	2023-10-01T00:00:00	2024-11-06T04:00:00	7	Dirección del viento	4.83
1767	7	Sololá	701	Sololá	3	Barraneche	1	Enero	2023-10-01T00:00:00	2024-11-06T04:00:00	1	Precipitación	0
1768	7	Sololá	701	Sololá	3	Barraneche	1	Enero	2023-10-01T00:00:00	2024-11-06T04:00:00	8	Radiación solar	0
1769	7	Sololá	701	Sololá	3	Barraneche	1	Enero	2023-10-01T00:00:00	2024-11-06T05:00:00	2	Temperatura media	9.1
1770	7	Sololá	701	Sololá	3	Barraneche	1	Enero	2023-10-01T00:00:00	2024-11-06T05:00:00	4	Temperatura máxima	9.3
1771	7	Sololá	701	Sololá	3	Barraneche	1	Enero	2023-10-01T00:00:00	2024-11-06T05:00:00	3	Temperatura mínima	8.6
1772	7	Sololá	701	Sololá	3	Barraneche	1	Enero	2023-10-01T00:00:00	2024-11-06T05:00:00	5	Humedad	68
1773	7	Sololá	701	Sololá	3	Barraneche	1	Enero	2023-10-01T00:00:00	2024-11-06T05:00:00	6	Velocidad del viento	3.2
1774	7	Sololá	701	Sololá	3	Barraneche	1	Enero	2023-10-01T00:00:00	2024-11-06T05:00:00	7	Dirección del viento	3.22
1775	7	Sololá	701	Sololá	3	Barraneche	1	Enero	2023-10-01T00:00:00	2024-11-06T05:00:00	1	Precipitación	0
1776	7	Sololá	701	Sololá	3	Barraneche	1	Enero	2023-10-01T00:00:00	2024-11-06T05:00:00	8	Radiación solar	0
1777	7	Sololá	701	Sololá	3	Barraneche	1	Enero	2023-10-01T00:00:00	2024-11-06T06:00:00	2	Temperatura media	10.1
1778	7	Sololá	701	Sololá	3	Barraneche	1	Enero	2023-10-01T00:00:00	2024-11-06T06:00:00	4	Temperatura máxima	10.9
1779	7	Sololá	701	Sololá	3	Barraneche	1	Enero	2023-10-01T00:00:00	2024-11-06T06:00:00	3	Temperatura mínima	9
1780	7	Sololá	701	Sololá	3	Barraneche	1	Enero	2023-10-01T00:00:00	2024-11-06T06:00:00	5	Humedad	63
1781	7	Sololá	701	Sololá	3	Barraneche	1	Enero	2023-10-01T00:00:00	2024-11-06T06:00:00	6	Velocidad del viento	6.4
1782	7	Sololá	701	Sololá	3	Barraneche	1	Enero	2023-10-01T00:00:00	2024-11-06T06:00:00	7	Dirección del viento	6.44
1783	7	Sololá	701	Sololá	3	Barraneche	1	Enero	2023-10-01T00:00:00	2024-11-06T06:00:00	1	Precipitación	0
1784	7	Sololá	701	Sololá	3	Barraneche	1	Enero	2023-10-01T00:00:00	2024-11-06T06:00:00	8	Radiación solar	0
1785	7	Sololá	701	Sololá	3	Barraneche	1	Enero	2023-10-01T00:00:00	2024-11-06T07:00:00	2	Temperatura media	9.4
1786	7	Sololá	701	Sololá	3	Barraneche	1	Enero	2023-10-01T00:00:00	2024-11-06T07:00:00	4	Temperatura máxima	10.1
1787	7	Sololá	701	Sololá	3	Barraneche	1	Enero	2023-10-01T00:00:00	2024-11-06T07:00:00	3	Temperatura mínima	9.1
1788	7	Sololá	701	Sololá	3	Barraneche	1	Enero	2023-10-01T00:00:00	2024-11-06T07:00:00	5	Humedad	67
1789	7	Sololá	701	Sololá	3	Barraneche	1	Enero	2023-10-01T00:00:00	2024-11-06T07:00:00	6	Velocidad del viento	6.4
1790	7	Sololá	701	Sololá	3	Barraneche	1	Enero	2023-10-01T00:00:00	2024-11-06T07:00:00	7	Dirección del viento	6.44
1791	7	Sololá	701	Sololá	3	Barraneche	1	Enero	2023-10-01T00:00:00	2024-11-06T07:00:00	1	Precipitación	0
1792	7	Sololá	701	Sololá	3	Barraneche	1	Enero	2023-10-01T00:00:00	2024-11-06T07:00:00	8	Radiación solar	5
1793	7	Sololá	701	Sololá	3	Barraneche	1	Enero	2023-10-01T00:00:00	2024-11-06T08:00:00	2	Temperatura media	13.8
1794	7	Sololá	701	Sololá	3	Barraneche	1	Enero	2023-10-01T00:00:00	2024-11-06T08:00:00	4	Temperatura máxima	13.8
1795	7	Sololá	701	Sololá	3	Barraneche	1	Enero	2023-10-01T00:00:00	2024-11-06T08:00:00	3	Temperatura mínima	9.4
1796	7	Sololá	701	Sololá	3	Barraneche	1	Enero	2023-10-01T00:00:00	2024-11-06T08:00:00	5	Humedad	57
1797	7	Sololá	701	Sololá	3	Barraneche	1	Enero	2023-10-01T00:00:00	2024-11-06T08:00:00	6	Velocidad del viento	3.2
1798	7	Sololá	701	Sololá	3	Barraneche	1	Enero	2023-10-01T00:00:00	2024-11-06T08:00:00	7	Dirección del viento	3.22
1799	7	Sololá	701	Sololá	3	Barraneche	1	Enero	2023-10-01T00:00:00	2024-11-06T08:00:00	1	Precipitación	0
1800	7	Sololá	701	Sololá	3	Barraneche	1	Enero	2023-10-01T00:00:00	2024-11-06T08:00:00	8	Radiación solar	137
1801	7	Sololá	701	Sololá	3	Barraneche	1	Enero	2023-10-01T00:00:00	2024-11-06T09:00:00	2	Temperatura media	16.2
1802	7	Sololá	701	Sololá	3	Barraneche	1	Enero	2023-10-01T00:00:00	2024-11-06T09:00:00	4	Temperatura máxima	16.2
1803	7	Sololá	701	Sololá	3	Barraneche	1	Enero	2023-10-01T00:00:00	2024-11-06T09:00:00	3	Temperatura mínima	13.8
1804	7	Sololá	701	Sololá	3	Barraneche	1	Enero	2023-10-01T00:00:00	2024-11-06T09:00:00	5	Humedad	52
1805	7	Sololá	701	Sololá	3	Barraneche	1	Enero	2023-10-01T00:00:00	2024-11-06T09:00:00	6	Velocidad del viento	4.8
1806	7	Sololá	701	Sololá	3	Barraneche	1	Enero	2023-10-01T00:00:00	2024-11-06T09:00:00	7	Dirección del viento	4.83
1807	7	Sololá	701	Sololá	3	Barraneche	1	Enero	2023-10-01T00:00:00	2024-11-06T09:00:00	1	Precipitación	0
1808	7	Sololá	701	Sololá	3	Barraneche	1	Enero	2023-10-01T00:00:00	2024-11-06T09:00:00	8	Radiación solar	376
1809	7	Sololá	701	Sololá	3	Barraneche	1	Enero	2023-10-01T00:00:00	2024-11-06T10:00:00	2	Temperatura media	17.3
1810	7	Sololá	701	Sololá	3	Barraneche	1	Enero	2023-10-01T00:00:00	2024-11-06T10:00:00	4	Temperatura máxima	17.3
1811	7	Sololá	701	Sololá	3	Barraneche	1	Enero	2023-10-01T00:00:00	2024-11-06T10:00:00	3	Temperatura mínima	16.2
1812	7	Sololá	701	Sololá	3	Barraneche	1	Enero	2023-10-01T00:00:00	2024-11-06T10:00:00	5	Humedad	48
1813	7	Sololá	701	Sololá	3	Barraneche	1	Enero	2023-10-01T00:00:00	2024-11-06T10:00:00	6	Velocidad del viento	8
1814	7	Sololá	701	Sololá	3	Barraneche	1	Enero	2023-10-01T00:00:00	2024-11-06T10:00:00	7	Dirección del viento	8.05
1815	7	Sololá	701	Sololá	3	Barraneche	1	Enero	2023-10-01T00:00:00	2024-11-06T10:00:00	1	Precipitación	0
1816	7	Sololá	701	Sololá	3	Barraneche	1	Enero	2023-10-01T00:00:00	2024-11-06T10:00:00	8	Radiación solar	574
1817	7	Sololá	701	Sololá	3	Barraneche	1	Enero	2023-10-01T00:00:00	2024-11-06T11:00:00	2	Temperatura media	17.9
1818	7	Sololá	701	Sololá	3	Barraneche	1	Enero	2023-10-01T00:00:00	2024-11-06T11:00:00	4	Temperatura máxima	17.9
1819	7	Sololá	701	Sololá	3	Barraneche	1	Enero	2023-10-01T00:00:00	2024-11-06T11:00:00	3	Temperatura mínima	17.2
1820	7	Sololá	701	Sololá	3	Barraneche	1	Enero	2023-10-01T00:00:00	2024-11-06T11:00:00	5	Humedad	47
1821	7	Sololá	701	Sololá	3	Barraneche	1	Enero	2023-10-01T00:00:00	2024-11-06T11:00:00	6	Velocidad del viento	16.1
1822	7	Sololá	701	Sololá	3	Barraneche	1	Enero	2023-10-01T00:00:00	2024-11-06T11:00:00	7	Dirección del viento	16.09
1823	7	Sololá	701	Sololá	3	Barraneche	1	Enero	2023-10-01T00:00:00	2024-11-06T11:00:00	1	Precipitación	0
1824	7	Sololá	701	Sololá	3	Barraneche	1	Enero	2023-10-01T00:00:00	2024-11-06T11:00:00	8	Radiación solar	748
1825	7	Sololá	701	Sololá	3	Barraneche	1	Enero	2023-10-01T00:00:00	2024-11-06T12:00:00	2	Temperatura media	18.2
1826	7	Sololá	701	Sololá	3	Barraneche	1	Enero	2023-10-01T00:00:00	2024-11-06T12:00:00	4	Temperatura máxima	18.3
1827	7	Sololá	701	Sololá	3	Barraneche	1	Enero	2023-10-01T00:00:00	2024-11-06T12:00:00	3	Temperatura mínima	17.3
1828	7	Sololá	701	Sololá	3	Barraneche	1	Enero	2023-10-01T00:00:00	2024-11-06T12:00:00	5	Humedad	46
1829	7	Sololá	701	Sololá	3	Barraneche	1	Enero	2023-10-01T00:00:00	2024-11-06T12:00:00	6	Velocidad del viento	17.7
1830	7	Sololá	701	Sololá	3	Barraneche	1	Enero	2023-10-01T00:00:00	2024-11-06T12:00:00	7	Dirección del viento	17.7
1831	7	Sololá	701	Sololá	3	Barraneche	1	Enero	2023-10-01T00:00:00	2024-11-06T12:00:00	1	Precipitación	0
1832	7	Sololá	701	Sololá	3	Barraneche	1	Enero	2023-10-01T00:00:00	2024-11-06T12:00:00	8	Radiación solar	753
1833	7	Sololá	701	Sololá	3	Barraneche	1	Enero	2023-10-01T00:00:00	2024-11-06T13:00:00	2	Temperatura media	17.3
1834	7	Sololá	701	Sololá	3	Barraneche	1	Enero	2023-10-01T00:00:00	2024-11-06T13:00:00	4	Temperatura máxima	18.8
1835	7	Sololá	701	Sololá	3	Barraneche	1	Enero	2023-10-01T00:00:00	2024-11-06T13:00:00	3	Temperatura mínima	17.2
1836	7	Sololá	701	Sololá	3	Barraneche	1	Enero	2023-10-01T00:00:00	2024-11-06T13:00:00	5	Humedad	48
1837	7	Sololá	701	Sololá	3	Barraneche	1	Enero	2023-10-01T00:00:00	2024-11-06T13:00:00	6	Velocidad del viento	16.1
1838	7	Sololá	701	Sololá	3	Barraneche	1	Enero	2023-10-01T00:00:00	2024-11-06T13:00:00	7	Dirección del viento	16.09
1839	7	Sololá	701	Sololá	3	Barraneche	1	Enero	2023-10-01T00:00:00	2024-11-06T13:00:00	1	Precipitación	0
1840	7	Sololá	701	Sololá	3	Barraneche	1	Enero	2023-10-01T00:00:00	2024-11-06T13:00:00	8	Radiación solar	527
1841	7	Sololá	701	Sololá	3	Barraneche	1	Enero	2023-10-01T00:00:00	2024-11-06T14:00:00	2	Temperatura media	17.2
1842	7	Sololá	701	Sololá	3	Barraneche	1	Enero	2023-10-01T00:00:00	2024-11-06T14:00:00	4	Temperatura máxima	17.9
1843	7	Sololá	701	Sololá	3	Barraneche	1	Enero	2023-10-01T00:00:00	2024-11-06T14:00:00	3	Temperatura mínima	17
1844	7	Sololá	701	Sololá	3	Barraneche	1	Enero	2023-10-01T00:00:00	2024-11-06T14:00:00	5	Humedad	53
1845	7	Sololá	701	Sololá	3	Barraneche	1	Enero	2023-10-01T00:00:00	2024-11-06T14:00:00	6	Velocidad del viento	12.9
1846	7	Sololá	701	Sololá	3	Barraneche	1	Enero	2023-10-01T00:00:00	2024-11-06T14:00:00	7	Dirección del viento	12.87
1847	7	Sololá	701	Sololá	3	Barraneche	1	Enero	2023-10-01T00:00:00	2024-11-06T14:00:00	1	Precipitación	0
1848	7	Sololá	701	Sololá	3	Barraneche	1	Enero	2023-10-01T00:00:00	2024-11-06T14:00:00	8	Radiación solar	225
1849	7	Sololá	701	Sololá	3	Barraneche	1	Enero	2023-10-01T00:00:00	2024-11-06T15:00:00	2	Temperatura media	15.7
1850	7	Sololá	701	Sololá	3	Barraneche	1	Enero	2023-10-01T00:00:00	2024-11-06T15:00:00	4	Temperatura máxima	18
1851	7	Sololá	701	Sololá	3	Barraneche	1	Enero	2023-10-01T00:00:00	2024-11-06T15:00:00	3	Temperatura mínima	15.7
1852	7	Sololá	701	Sololá	3	Barraneche	1	Enero	2023-10-01T00:00:00	2024-11-06T15:00:00	5	Humedad	56
1853	7	Sololá	701	Sololá	3	Barraneche	1	Enero	2023-10-01T00:00:00	2024-11-06T15:00:00	6	Velocidad del viento	16.1
1854	7	Sololá	701	Sololá	3	Barraneche	1	Enero	2023-10-01T00:00:00	2024-11-06T15:00:00	7	Dirección del viento	16.09
1855	7	Sololá	701	Sololá	3	Barraneche	1	Enero	2023-10-01T00:00:00	2024-11-06T15:00:00	1	Precipitación	0
1856	7	Sololá	701	Sololá	3	Barraneche	1	Enero	2023-10-01T00:00:00	2024-11-06T15:00:00	8	Radiación solar	229
1857	7	Sololá	701	Sololá	3	Barraneche	1	Enero	2023-10-01T00:00:00	2024-11-06T16:00:00	2	Temperatura media	15.5
1858	7	Sololá	701	Sololá	3	Barraneche	1	Enero	2023-10-01T00:00:00	2024-11-06T16:00:00	4	Temperatura máxima	16.1
1859	7	Sololá	701	Sololá	3	Barraneche	1	Enero	2023-10-01T00:00:00	2024-11-06T16:00:00	3	Temperatura mínima	15.1
1860	7	Sololá	701	Sololá	3	Barraneche	1	Enero	2023-10-01T00:00:00	2024-11-06T16:00:00	5	Humedad	57
1861	7	Sololá	701	Sololá	3	Barraneche	1	Enero	2023-10-01T00:00:00	2024-11-06T16:00:00	6	Velocidad del viento	14.5
1862	7	Sololá	701	Sololá	3	Barraneche	1	Enero	2023-10-01T00:00:00	2024-11-06T16:00:00	7	Dirección del viento	14.48
1863	7	Sololá	701	Sololá	3	Barraneche	1	Enero	2023-10-01T00:00:00	2024-11-06T16:00:00	1	Precipitación	0
1864	7	Sololá	701	Sololá	3	Barraneche	1	Enero	2023-10-01T00:00:00	2024-11-06T16:00:00	8	Radiación solar	168
1865	7	Sololá	701	Sololá	3	Barraneche	1	Enero	2023-10-01T00:00:00	2024-11-06T17:00:00	2	Temperatura media	14.2
1866	7	Sololá	701	Sololá	3	Barraneche	1	Enero	2023-10-01T00:00:00	2024-11-06T17:00:00	4	Temperatura máxima	16.1
1867	7	Sololá	701	Sololá	3	Barraneche	1	Enero	2023-10-01T00:00:00	2024-11-06T17:00:00	3	Temperatura mínima	14.2
1868	7	Sololá	701	Sololá	3	Barraneche	1	Enero	2023-10-01T00:00:00	2024-11-06T17:00:00	5	Humedad	61
1869	7	Sololá	701	Sololá	3	Barraneche	1	Enero	2023-10-01T00:00:00	2024-11-06T17:00:00	6	Velocidad del viento	16.1
1870	7	Sololá	701	Sololá	3	Barraneche	1	Enero	2023-10-01T00:00:00	2024-11-06T17:00:00	7	Dirección del viento	16.09
1871	7	Sololá	701	Sololá	3	Barraneche	1	Enero	2023-10-01T00:00:00	2024-11-06T17:00:00	1	Precipitación	0
1872	7	Sololá	701	Sololá	3	Barraneche	1	Enero	2023-10-01T00:00:00	2024-11-06T17:00:00	8	Radiación solar	195
1873	7	Sololá	701	Sololá	3	Barraneche	1	Enero	2023-10-01T00:00:00	2024-11-06T18:00:00	2	Temperatura media	13.4
1874	7	Sololá	701	Sololá	3	Barraneche	1	Enero	2023-10-01T00:00:00	2024-11-06T18:00:00	4	Temperatura máxima	14.2
1875	7	Sololá	701	Sololá	3	Barraneche	1	Enero	2023-10-01T00:00:00	2024-11-06T18:00:00	3	Temperatura mínima	13.4
1876	7	Sololá	701	Sololá	3	Barraneche	1	Enero	2023-10-01T00:00:00	2024-11-06T18:00:00	5	Humedad	64
1877	7	Sololá	701	Sololá	3	Barraneche	1	Enero	2023-10-01T00:00:00	2024-11-06T18:00:00	6	Velocidad del viento	14.5
1878	7	Sololá	701	Sololá	3	Barraneche	1	Enero	2023-10-01T00:00:00	2024-11-06T18:00:00	7	Dirección del viento	14.48
1879	7	Sololá	701	Sololá	3	Barraneche	1	Enero	2023-10-01T00:00:00	2024-11-06T18:00:00	1	Precipitación	0
1880	7	Sololá	701	Sololá	3	Barraneche	1	Enero	2023-10-01T00:00:00	2024-11-06T18:00:00	8	Radiación solar	13
1881	7	Sololá	701	Sololá	3	Barraneche	1	Enero	2023-10-01T00:00:00	2024-11-06T19:00:00	2	Temperatura media	13
1882	7	Sololá	701	Sololá	3	Barraneche	1	Enero	2023-10-01T00:00:00	2024-11-06T19:00:00	4	Temperatura máxima	13.4
1883	7	Sololá	701	Sololá	3	Barraneche	1	Enero	2023-10-01T00:00:00	2024-11-06T19:00:00	3	Temperatura mínima	13
1884	7	Sololá	701	Sololá	3	Barraneche	1	Enero	2023-10-01T00:00:00	2024-11-06T19:00:00	5	Humedad	65
1885	7	Sololá	701	Sololá	3	Barraneche	1	Enero	2023-10-01T00:00:00	2024-11-06T19:00:00	6	Velocidad del viento	16.1
1886	7	Sololá	701	Sololá	3	Barraneche	1	Enero	2023-10-01T00:00:00	2024-11-06T19:00:00	7	Dirección del viento	16.09
1887	7	Sololá	701	Sololá	3	Barraneche	1	Enero	2023-10-01T00:00:00	2024-11-06T19:00:00	1	Precipitación	0
1888	7	Sololá	701	Sololá	3	Barraneche	1	Enero	2023-10-01T00:00:00	2024-11-06T19:00:00	8	Radiación solar	0
1889	7	Sololá	701	Sololá	3	Barraneche	1	Enero	2023-10-01T00:00:00	2024-11-06T20:00:00	2	Temperatura media	12.8
1890	7	Sololá	701	Sololá	3	Barraneche	1	Enero	2023-10-01T00:00:00	2024-11-06T20:00:00	4	Temperatura máxima	13
1891	7	Sololá	701	Sololá	3	Barraneche	1	Enero	2023-10-01T00:00:00	2024-11-06T20:00:00	3	Temperatura mínima	12.7
1892	7	Sololá	701	Sololá	3	Barraneche	1	Enero	2023-10-01T00:00:00	2024-11-06T20:00:00	5	Humedad	64
1893	7	Sololá	701	Sololá	3	Barraneche	1	Enero	2023-10-01T00:00:00	2024-11-06T20:00:00	6	Velocidad del viento	14.5
1894	7	Sololá	701	Sololá	3	Barraneche	1	Enero	2023-10-01T00:00:00	2024-11-06T20:00:00	7	Dirección del viento	14.48
1895	7	Sololá	701	Sololá	3	Barraneche	1	Enero	2023-10-01T00:00:00	2024-11-06T20:00:00	1	Precipitación	0
1896	7	Sololá	701	Sololá	3	Barraneche	1	Enero	2023-10-01T00:00:00	2024-11-06T20:00:00	8	Radiación solar	0
1897	7	Sololá	701	Sololá	3	Barraneche	1	Enero	2023-10-01T00:00:00	2024-11-06T21:00:00	2	Temperatura media	12.6
1898	7	Sololá	701	Sololá	3	Barraneche	1	Enero	2023-10-01T00:00:00	2024-11-06T21:00:00	4	Temperatura máxima	12.9
1899	7	Sololá	701	Sololá	3	Barraneche	1	Enero	2023-10-01T00:00:00	2024-11-06T21:00:00	3	Temperatura mínima	12.6
1900	7	Sololá	701	Sololá	3	Barraneche	1	Enero	2023-10-01T00:00:00	2024-11-06T21:00:00	5	Humedad	63
1901	7	Sololá	701	Sololá	3	Barraneche	1	Enero	2023-10-01T00:00:00	2024-11-06T21:00:00	6	Velocidad del viento	12.9
1902	7	Sololá	701	Sololá	3	Barraneche	1	Enero	2023-10-01T00:00:00	2024-11-06T21:00:00	7	Dirección del viento	12.87
1903	7	Sololá	701	Sololá	3	Barraneche	1	Enero	2023-10-01T00:00:00	2024-11-06T21:00:00	1	Precipitación	0
1904	7	Sololá	701	Sololá	3	Barraneche	1	Enero	2023-10-01T00:00:00	2024-11-06T21:00:00	8	Radiación solar	0
1905	7	Sololá	701	Sololá	3	Barraneche	1	Enero	2023-10-01T00:00:00	2024-11-06T22:00:00	2	Temperatura media	12.6
1906	7	Sololá	701	Sololá	3	Barraneche	1	Enero	2023-10-01T00:00:00	2024-11-06T22:00:00	4	Temperatura máxima	12.7
1907	7	Sololá	701	Sololá	3	Barraneche	1	Enero	2023-10-01T00:00:00	2024-11-06T22:00:00	3	Temperatura mínima	12.4
1908	7	Sololá	701	Sololá	3	Barraneche	1	Enero	2023-10-01T00:00:00	2024-11-06T22:00:00	5	Humedad	63
1909	7	Sololá	701	Sololá	3	Barraneche	1	Enero	2023-10-01T00:00:00	2024-11-06T22:00:00	6	Velocidad del viento	19.3
1910	7	Sololá	701	Sololá	3	Barraneche	1	Enero	2023-10-01T00:00:00	2024-11-06T22:00:00	7	Dirección del viento	19.31
1911	7	Sololá	701	Sololá	3	Barraneche	1	Enero	2023-10-01T00:00:00	2024-11-06T22:00:00	1	Precipitación	0
1912	7	Sololá	701	Sololá	3	Barraneche	1	Enero	2023-10-01T00:00:00	2024-11-06T22:00:00	8	Radiación solar	0
1913	7	Sololá	701	Sololá	3	Barraneche	1	Enero	2023-10-01T00:00:00	2024-11-06T23:00:00	2	Temperatura media	12.7
1914	7	Sololá	701	Sololá	3	Barraneche	1	Enero	2023-10-01T00:00:00	2024-11-06T23:00:00	4	Temperatura máxima	12.9
1915	7	Sololá	701	Sololá	3	Barraneche	1	Enero	2023-10-01T00:00:00	2024-11-06T23:00:00	3	Temperatura mínima	12.2
1916	7	Sololá	701	Sololá	3	Barraneche	1	Enero	2023-10-01T00:00:00	2024-11-06T23:00:00	5	Humedad	62
1917	7	Sololá	701	Sololá	3	Barraneche	1	Enero	2023-10-01T00:00:00	2024-11-06T23:00:00	6	Velocidad del viento	19.3
1918	7	Sololá	701	Sololá	3	Barraneche	1	Enero	2023-10-01T00:00:00	2024-11-06T23:00:00	7	Dirección del viento	19.31
1919	7	Sololá	701	Sololá	3	Barraneche	1	Enero	2023-10-01T00:00:00	2024-11-06T23:00:00	1	Precipitación	0
1920	7	Sololá	701	Sololá	3	Barraneche	1	Enero	2023-10-01T00:00:00	2024-11-06T23:00:00	8	Radiación solar	0
1921	7	Sololá	701	Sololá	3	Barraneche	1	Enero	2023-11-01T00:00:00	2024-11-06T00:00:00	2	Temperatura media	12.4
1922	7	Sololá	701	Sololá	3	Barraneche	1	Enero	2023-11-01T00:00:00	2024-11-06T00:00:00	4	Temperatura máxima	12.8
1923	7	Sololá	701	Sololá	3	Barraneche	1	Enero	2023-11-01T00:00:00	2024-11-06T00:00:00	3	Temperatura mínima	12.3
1924	7	Sololá	701	Sololá	3	Barraneche	1	Enero	2023-11-01T00:00:00	2024-11-06T00:00:00	5	Humedad	65
1925	7	Sololá	701	Sololá	3	Barraneche	1	Enero	2023-11-01T00:00:00	2024-11-06T00:00:00	6	Velocidad del viento	14.5
1926	7	Sololá	701	Sololá	3	Barraneche	1	Enero	2023-11-01T00:00:00	2024-11-06T00:00:00	7	Dirección del viento	14.48
1927	7	Sololá	701	Sololá	3	Barraneche	1	Enero	2023-11-01T00:00:00	2024-11-06T00:00:00	1	Precipitación	0
1928	7	Sololá	701	Sololá	3	Barraneche	1	Enero	2023-11-01T00:00:00	2024-11-06T00:00:00	8	Radiación solar	0
1929	7	Sololá	701	Sololá	3	Barraneche	1	Enero	2023-11-01T00:00:00	2024-11-06T01:00:00	2	Temperatura media	12.4
1930	7	Sololá	701	Sololá	3	Barraneche	1	Enero	2023-11-01T00:00:00	2024-11-06T01:00:00	4	Temperatura máxima	12.4
1931	7	Sololá	701	Sololá	3	Barraneche	1	Enero	2023-11-01T00:00:00	2024-11-06T01:00:00	3	Temperatura mínima	12
1932	7	Sololá	701	Sololá	3	Barraneche	1	Enero	2023-11-01T00:00:00	2024-11-06T01:00:00	5	Humedad	63
1933	7	Sololá	701	Sololá	3	Barraneche	1	Enero	2023-11-01T00:00:00	2024-11-06T01:00:00	6	Velocidad del viento	16.1
1934	7	Sololá	701	Sololá	3	Barraneche	1	Enero	2023-11-01T00:00:00	2024-11-06T01:00:00	7	Dirección del viento	16.09
1935	7	Sololá	701	Sololá	3	Barraneche	1	Enero	2023-11-01T00:00:00	2024-11-06T01:00:00	1	Precipitación	0
1936	7	Sololá	701	Sololá	3	Barraneche	1	Enero	2023-11-01T00:00:00	2024-11-06T01:00:00	8	Radiación solar	0
1937	7	Sololá	701	Sololá	3	Barraneche	1	Enero	2023-11-01T00:00:00	2024-11-06T02:00:00	2	Temperatura media	12.5
1938	7	Sololá	701	Sololá	3	Barraneche	1	Enero	2023-11-01T00:00:00	2024-11-06T02:00:00	4	Temperatura máxima	12.6
1939	7	Sololá	701	Sololá	3	Barraneche	1	Enero	2023-11-01T00:00:00	2024-11-06T02:00:00	3	Temperatura mínima	12.1
1940	7	Sololá	701	Sololá	3	Barraneche	1	Enero	2023-11-01T00:00:00	2024-11-06T02:00:00	5	Humedad	64
1941	7	Sololá	701	Sololá	3	Barraneche	1	Enero	2023-11-01T00:00:00	2024-11-06T02:00:00	6	Velocidad del viento	12.9
1942	7	Sololá	701	Sololá	3	Barraneche	1	Enero	2023-11-01T00:00:00	2024-11-06T02:00:00	7	Dirección del viento	12.87
1943	7	Sololá	701	Sololá	3	Barraneche	1	Enero	2023-11-01T00:00:00	2024-11-06T02:00:00	1	Precipitación	0
1944	7	Sololá	701	Sololá	3	Barraneche	1	Enero	2023-11-01T00:00:00	2024-11-06T02:00:00	8	Radiación solar	0
1945	7	Sololá	701	Sololá	3	Barraneche	1	Enero	2023-11-01T00:00:00	2024-11-06T03:00:00	2	Temperatura media	12.2
1946	7	Sololá	701	Sololá	3	Barraneche	1	Enero	2023-11-01T00:00:00	2024-11-06T03:00:00	4	Temperatura máxima	12.5
1947	7	Sololá	701	Sololá	3	Barraneche	1	Enero	2023-11-01T00:00:00	2024-11-06T03:00:00	3	Temperatura mínima	11.8
1948	7	Sololá	701	Sololá	3	Barraneche	1	Enero	2023-11-01T00:00:00	2024-11-06T03:00:00	5	Humedad	66
1949	7	Sololá	701	Sololá	3	Barraneche	1	Enero	2023-11-01T00:00:00	2024-11-06T03:00:00	6	Velocidad del viento	12.9
1950	7	Sololá	701	Sololá	3	Barraneche	1	Enero	2023-11-01T00:00:00	2024-11-06T03:00:00	7	Dirección del viento	12.87
1951	7	Sololá	701	Sololá	3	Barraneche	1	Enero	2023-11-01T00:00:00	2024-11-06T03:00:00	1	Precipitación	0
1952	7	Sololá	701	Sololá	3	Barraneche	1	Enero	2023-11-01T00:00:00	2024-11-06T03:00:00	8	Radiación solar	0
1953	7	Sololá	701	Sololá	3	Barraneche	1	Enero	2023-11-01T00:00:00	2024-11-06T04:00:00	2	Temperatura media	11.7
1954	7	Sololá	701	Sololá	3	Barraneche	1	Enero	2023-11-01T00:00:00	2024-11-06T04:00:00	4	Temperatura máxima	12.2
1955	7	Sololá	701	Sololá	3	Barraneche	1	Enero	2023-11-01T00:00:00	2024-11-06T04:00:00	3	Temperatura mínima	11.6
1956	7	Sololá	701	Sololá	3	Barraneche	1	Enero	2023-11-01T00:00:00	2024-11-06T04:00:00	5	Humedad	68
1957	7	Sololá	701	Sololá	3	Barraneche	1	Enero	2023-11-01T00:00:00	2024-11-06T04:00:00	6	Velocidad del viento	6.4
1958	7	Sololá	701	Sololá	3	Barraneche	1	Enero	2023-11-01T00:00:00	2024-11-06T04:00:00	7	Dirección del viento	6.44
1959	7	Sololá	701	Sololá	3	Barraneche	1	Enero	2023-11-01T00:00:00	2024-11-06T04:00:00	1	Precipitación	0
1960	7	Sololá	701	Sololá	3	Barraneche	1	Enero	2023-11-01T00:00:00	2024-11-06T04:00:00	8	Radiación solar	0
1961	7	Sololá	701	Sololá	3	Barraneche	1	Enero	2023-11-01T00:00:00	2024-11-06T05:00:00	2	Temperatura media	11.2
1962	7	Sololá	701	Sololá	3	Barraneche	1	Enero	2023-11-01T00:00:00	2024-11-06T05:00:00	4	Temperatura máxima	11.9
1963	7	Sololá	701	Sololá	3	Barraneche	1	Enero	2023-11-01T00:00:00	2024-11-06T05:00:00	3	Temperatura mínima	11.1
1964	7	Sololá	701	Sololá	3	Barraneche	1	Enero	2023-11-01T00:00:00	2024-11-06T05:00:00	5	Humedad	69
1965	7	Sololá	701	Sololá	3	Barraneche	1	Enero	2023-11-01T00:00:00	2024-11-06T05:00:00	6	Velocidad del viento	4.8
1966	7	Sololá	701	Sololá	3	Barraneche	1	Enero	2023-11-01T00:00:00	2024-11-06T05:00:00	7	Dirección del viento	4.83
1967	7	Sololá	701	Sololá	3	Barraneche	1	Enero	2023-11-01T00:00:00	2024-11-06T05:00:00	1	Precipitación	0
1968	7	Sololá	701	Sololá	3	Barraneche	1	Enero	2023-11-01T00:00:00	2024-11-06T05:00:00	8	Radiación solar	0
1969	7	Sololá	701	Sololá	3	Barraneche	1	Enero	2023-11-01T00:00:00	2024-11-06T06:00:00	2	Temperatura media	11.8
1970	7	Sololá	701	Sololá	3	Barraneche	1	Enero	2023-11-01T00:00:00	2024-11-06T06:00:00	4	Temperatura máxima	11.8
1971	7	Sololá	701	Sololá	3	Barraneche	1	Enero	2023-11-01T00:00:00	2024-11-06T06:00:00	3	Temperatura mínima	11.2
1972	7	Sololá	701	Sololá	3	Barraneche	1	Enero	2023-11-01T00:00:00	2024-11-06T06:00:00	5	Humedad	66
1973	7	Sololá	701	Sololá	3	Barraneche	1	Enero	2023-11-01T00:00:00	2024-11-06T06:00:00	6	Velocidad del viento	11.3
1974	7	Sololá	701	Sololá	3	Barraneche	1	Enero	2023-11-01T00:00:00	2024-11-06T06:00:00	7	Dirección del viento	11.27
1975	7	Sololá	701	Sololá	3	Barraneche	1	Enero	2023-11-01T00:00:00	2024-11-06T06:00:00	1	Precipitación	0
1976	7	Sololá	701	Sololá	3	Barraneche	1	Enero	2023-11-01T00:00:00	2024-11-06T06:00:00	8	Radiación solar	0
1977	7	Sololá	701	Sololá	3	Barraneche	1	Enero	2023-11-01T00:00:00	2024-11-06T07:00:00	2	Temperatura media	11.8
1978	7	Sololá	701	Sololá	3	Barraneche	1	Enero	2023-11-01T00:00:00	2024-11-06T07:00:00	4	Temperatura máxima	11.8
1979	7	Sololá	701	Sololá	3	Barraneche	1	Enero	2023-11-01T00:00:00	2024-11-06T07:00:00	3	Temperatura mínima	11.4
1980	7	Sololá	701	Sololá	3	Barraneche	1	Enero	2023-11-01T00:00:00	2024-11-06T07:00:00	5	Humedad	65
1981	7	Sololá	701	Sololá	3	Barraneche	1	Enero	2023-11-01T00:00:00	2024-11-06T07:00:00	6	Velocidad del viento	8
1982	7	Sololá	701	Sololá	3	Barraneche	1	Enero	2023-11-01T00:00:00	2024-11-06T07:00:00	7	Dirección del viento	8.05
1983	7	Sololá	701	Sololá	3	Barraneche	1	Enero	2023-11-01T00:00:00	2024-11-06T07:00:00	1	Precipitación	0
1984	7	Sololá	701	Sololá	3	Barraneche	1	Enero	2023-11-01T00:00:00	2024-11-06T07:00:00	8	Radiación solar	9
1985	7	Sololá	701	Sololá	3	Barraneche	1	Enero	2023-11-01T00:00:00	2024-11-06T08:00:00	2	Temperatura media	13.1
1986	7	Sololá	701	Sololá	3	Barraneche	1	Enero	2023-11-01T00:00:00	2024-11-06T08:00:00	4	Temperatura máxima	13.2
1987	7	Sololá	701	Sololá	3	Barraneche	1	Enero	2023-11-01T00:00:00	2024-11-06T08:00:00	3	Temperatura mínima	11.6
1988	7	Sololá	701	Sololá	3	Barraneche	1	Enero	2023-11-01T00:00:00	2024-11-06T08:00:00	5	Humedad	62
1989	7	Sololá	701	Sololá	3	Barraneche	1	Enero	2023-11-01T00:00:00	2024-11-06T08:00:00	6	Velocidad del viento	12.9
1990	7	Sololá	701	Sololá	3	Barraneche	1	Enero	2023-11-01T00:00:00	2024-11-06T08:00:00	7	Dirección del viento	12.87
1991	7	Sololá	701	Sololá	3	Barraneche	1	Enero	2023-11-01T00:00:00	2024-11-06T08:00:00	1	Precipitación	0
1992	7	Sololá	701	Sololá	3	Barraneche	1	Enero	2023-11-01T00:00:00	2024-11-06T08:00:00	8	Radiación solar	147
1993	7	Sololá	701	Sololá	3	Barraneche	1	Enero	2023-11-01T00:00:00	2024-11-06T09:00:00	2	Temperatura media	14.1
1994	7	Sololá	701	Sololá	3	Barraneche	1	Enero	2023-11-01T00:00:00	2024-11-06T09:00:00	4	Temperatura máxima	14.2
1995	7	Sololá	701	Sololá	3	Barraneche	1	Enero	2023-11-01T00:00:00	2024-11-06T09:00:00	3	Temperatura mínima	13.1
1996	7	Sololá	701	Sololá	3	Barraneche	1	Enero	2023-11-01T00:00:00	2024-11-06T09:00:00	5	Humedad	59
1997	7	Sololá	701	Sololá	3	Barraneche	1	Enero	2023-11-01T00:00:00	2024-11-06T09:00:00	6	Velocidad del viento	17.7
1998	7	Sololá	701	Sololá	3	Barraneche	1	Enero	2023-11-01T00:00:00	2024-11-06T09:00:00	7	Dirección del viento	17.7
1999	7	Sololá	701	Sololá	3	Barraneche	1	Enero	2023-11-01T00:00:00	2024-11-06T09:00:00	1	Precipitación	0
2000	7	Sololá	701	Sololá	3	Barraneche	1	Enero	2023-11-01T00:00:00	2024-11-06T09:00:00	8	Radiación solar	396
2001	7	Sololá	701	Sololá	3	Barraneche	1	Enero	2023-11-01T00:00:00	2024-11-06T10:00:00	2	Temperatura media	15.2
2002	7	Sololá	701	Sololá	3	Barraneche	1	Enero	2023-11-01T00:00:00	2024-11-06T10:00:00	4	Temperatura máxima	15.4
2003	7	Sololá	701	Sololá	3	Barraneche	1	Enero	2023-11-01T00:00:00	2024-11-06T10:00:00	3	Temperatura mínima	14.1
2004	7	Sololá	701	Sololá	3	Barraneche	1	Enero	2023-11-01T00:00:00	2024-11-06T10:00:00	5	Humedad	56
2005	7	Sololá	701	Sololá	3	Barraneche	1	Enero	2023-11-01T00:00:00	2024-11-06T10:00:00	6	Velocidad del viento	16.1
2006	7	Sololá	701	Sololá	3	Barraneche	1	Enero	2023-11-01T00:00:00	2024-11-06T10:00:00	7	Dirección del viento	16.09
2007	7	Sololá	701	Sololá	3	Barraneche	1	Enero	2023-11-01T00:00:00	2024-11-06T10:00:00	1	Precipitación	0
2008	7	Sololá	701	Sololá	3	Barraneche	1	Enero	2023-11-01T00:00:00	2024-11-06T10:00:00	8	Radiación solar	578
2009	7	Sololá	701	Sololá	3	Barraneche	1	Enero	2023-11-01T00:00:00	2024-11-06T11:00:00	2	Temperatura media	16
2010	7	Sololá	701	Sololá	3	Barraneche	1	Enero	2023-11-01T00:00:00	2024-11-06T11:00:00	4	Temperatura máxima	16.1
2011	7	Sololá	701	Sololá	3	Barraneche	1	Enero	2023-11-01T00:00:00	2024-11-06T11:00:00	3	Temperatura mínima	15
2012	7	Sololá	701	Sololá	3	Barraneche	1	Enero	2023-11-01T00:00:00	2024-11-06T11:00:00	5	Humedad	53
2013	7	Sololá	701	Sololá	3	Barraneche	1	Enero	2023-11-01T00:00:00	2024-11-06T11:00:00	6	Velocidad del viento	17.7
2014	7	Sololá	701	Sololá	3	Barraneche	1	Enero	2023-11-01T00:00:00	2024-11-06T11:00:00	7	Dirección del viento	17.7
2015	7	Sololá	701	Sololá	3	Barraneche	1	Enero	2023-11-01T00:00:00	2024-11-06T11:00:00	1	Precipitación	0
2016	7	Sololá	701	Sololá	3	Barraneche	1	Enero	2023-11-01T00:00:00	2024-11-06T11:00:00	8	Radiación solar	735
2017	7	Sololá	701	Sololá	3	Barraneche	1	Enero	2023-11-01T00:00:00	2024-11-06T12:00:00	2	Temperatura media	16.7
2018	7	Sololá	701	Sololá	3	Barraneche	1	Enero	2023-11-01T00:00:00	2024-11-06T12:00:00	4	Temperatura máxima	17
2019	7	Sololá	701	Sololá	3	Barraneche	1	Enero	2023-11-01T00:00:00	2024-11-06T12:00:00	3	Temperatura mínima	15.8
2020	7	Sololá	701	Sololá	3	Barraneche	1	Enero	2023-11-01T00:00:00	2024-11-06T12:00:00	5	Humedad	52
2021	7	Sololá	701	Sololá	3	Barraneche	1	Enero	2023-11-01T00:00:00	2024-11-06T12:00:00	6	Velocidad del viento	20.9
2022	7	Sololá	701	Sololá	3	Barraneche	1	Enero	2023-11-01T00:00:00	2024-11-06T12:00:00	7	Dirección del viento	20.92
2023	7	Sololá	701	Sololá	3	Barraneche	1	Enero	2023-11-01T00:00:00	2024-11-06T12:00:00	1	Precipitación	0
2024	7	Sololá	701	Sololá	3	Barraneche	1	Enero	2023-11-01T00:00:00	2024-11-06T12:00:00	8	Radiación solar	834
2025	7	Sololá	701	Sololá	3	Barraneche	1	Enero	2023-11-01T00:00:00	2024-11-06T13:00:00	2	Temperatura media	17.2
2026	7	Sololá	701	Sololá	3	Barraneche	1	Enero	2023-11-01T00:00:00	2024-11-06T13:00:00	4	Temperatura máxima	17.2
2027	7	Sololá	701	Sololá	3	Barraneche	1	Enero	2023-11-01T00:00:00	2024-11-06T13:00:00	3	Temperatura mínima	16.3
2028	7	Sololá	701	Sololá	3	Barraneche	1	Enero	2023-11-01T00:00:00	2024-11-06T13:00:00	5	Humedad	50
2029	7	Sololá	701	Sololá	3	Barraneche	1	Enero	2023-11-01T00:00:00	2024-11-06T13:00:00	6	Velocidad del viento	19.3
2030	7	Sololá	701	Sololá	3	Barraneche	1	Enero	2023-11-01T00:00:00	2024-11-06T13:00:00	7	Dirección del viento	19.31
2031	7	Sololá	701	Sololá	3	Barraneche	1	Enero	2023-11-01T00:00:00	2024-11-06T13:00:00	1	Precipitación	0
2032	7	Sololá	701	Sololá	3	Barraneche	1	Enero	2023-11-01T00:00:00	2024-11-06T13:00:00	8	Radiación solar	742
2033	7	Sololá	701	Sololá	3	Barraneche	1	Enero	2023-11-01T00:00:00	2024-11-06T14:00:00	2	Temperatura media	17.4
2034	7	Sololá	701	Sololá	3	Barraneche	1	Enero	2023-11-01T00:00:00	2024-11-06T14:00:00	4	Temperatura máxima	17.7
2035	7	Sololá	701	Sololá	3	Barraneche	1	Enero	2023-11-01T00:00:00	2024-11-06T14:00:00	3	Temperatura mínima	16.1
2036	7	Sololá	701	Sololá	3	Barraneche	1	Enero	2023-11-01T00:00:00	2024-11-06T14:00:00	5	Humedad	50
2037	7	Sololá	701	Sololá	3	Barraneche	1	Enero	2023-11-01T00:00:00	2024-11-06T14:00:00	6	Velocidad del viento	17.7
2038	7	Sololá	701	Sololá	3	Barraneche	1	Enero	2023-11-01T00:00:00	2024-11-06T14:00:00	7	Dirección del viento	17.7
2039	7	Sololá	701	Sololá	3	Barraneche	1	Enero	2023-11-01T00:00:00	2024-11-06T14:00:00	1	Precipitación	0
2040	7	Sololá	701	Sololá	3	Barraneche	1	Enero	2023-11-01T00:00:00	2024-11-06T14:00:00	8	Radiación solar	592
2041	7	Sololá	701	Sololá	3	Barraneche	1	Enero	2023-11-01T00:00:00	2024-11-06T15:00:00	2	Temperatura media	16.8
2042	7	Sololá	701	Sololá	3	Barraneche	1	Enero	2023-11-01T00:00:00	2024-11-06T15:00:00	4	Temperatura máxima	17.6
2043	7	Sololá	701	Sololá	3	Barraneche	1	Enero	2023-11-01T00:00:00	2024-11-06T15:00:00	3	Temperatura mínima	16.4
2044	7	Sololá	701	Sololá	3	Barraneche	1	Enero	2023-11-01T00:00:00	2024-11-06T15:00:00	5	Humedad	50
2045	7	Sololá	701	Sololá	3	Barraneche	1	Enero	2023-11-01T00:00:00	2024-11-06T15:00:00	6	Velocidad del viento	16.1
2046	7	Sololá	701	Sololá	3	Barraneche	1	Enero	2023-11-01T00:00:00	2024-11-06T15:00:00	7	Dirección del viento	16.09
2047	7	Sololá	701	Sololá	3	Barraneche	1	Enero	2023-11-01T00:00:00	2024-11-06T15:00:00	1	Precipitación	0
2048	7	Sololá	701	Sololá	3	Barraneche	1	Enero	2023-11-01T00:00:00	2024-11-06T15:00:00	8	Radiación solar	303
2049	7	Sololá	701	Sololá	3	Barraneche	1	Enero	2023-11-01T00:00:00	2024-11-06T16:00:00	2	Temperatura media	15.7
2050	7	Sololá	701	Sololá	3	Barraneche	1	Enero	2023-11-01T00:00:00	2024-11-06T16:00:00	4	Temperatura máxima	16.9
2051	7	Sololá	701	Sololá	3	Barraneche	1	Enero	2023-11-01T00:00:00	2024-11-06T16:00:00	3	Temperatura mínima	15.7
2052	7	Sololá	701	Sololá	3	Barraneche	1	Enero	2023-11-01T00:00:00	2024-11-06T16:00:00	5	Humedad	56
2053	7	Sololá	701	Sololá	3	Barraneche	1	Enero	2023-11-01T00:00:00	2024-11-06T16:00:00	6	Velocidad del viento	14.5
2054	7	Sololá	701	Sololá	3	Barraneche	1	Enero	2023-11-01T00:00:00	2024-11-06T16:00:00	7	Dirección del viento	14.48
2055	7	Sololá	701	Sololá	3	Barraneche	1	Enero	2023-11-01T00:00:00	2024-11-06T16:00:00	1	Precipitación	0
2056	7	Sololá	701	Sololá	3	Barraneche	1	Enero	2023-11-01T00:00:00	2024-11-06T16:00:00	8	Radiación solar	236
2057	7	Sololá	701	Sololá	3	Barraneche	1	Enero	2023-11-01T00:00:00	2024-11-06T17:00:00	2	Temperatura media	15.3
2058	7	Sololá	701	Sololá	3	Barraneche	1	Enero	2023-11-01T00:00:00	2024-11-06T17:00:00	4	Temperatura máxima	15.8
2059	7	Sololá	701	Sololá	3	Barraneche	1	Enero	2023-11-01T00:00:00	2024-11-06T17:00:00	3	Temperatura mínima	15.1
2060	7	Sololá	701	Sololá	3	Barraneche	1	Enero	2023-11-01T00:00:00	2024-11-06T17:00:00	5	Humedad	57
2061	7	Sololá	701	Sololá	3	Barraneche	1	Enero	2023-11-01T00:00:00	2024-11-06T17:00:00	6	Velocidad del viento	9.7
2062	7	Sololá	701	Sololá	3	Barraneche	1	Enero	2023-11-01T00:00:00	2024-11-06T17:00:00	7	Dirección del viento	9.66
2063	7	Sololá	701	Sololá	3	Barraneche	1	Enero	2023-11-01T00:00:00	2024-11-06T17:00:00	1	Precipitación	0
2064	7	Sololá	701	Sololá	3	Barraneche	1	Enero	2023-11-01T00:00:00	2024-11-06T17:00:00	8	Radiación solar	180
2065	7	Sololá	701	Sololá	3	Barraneche	1	Enero	2023-11-01T00:00:00	2024-11-06T18:00:00	2	Temperatura media	13.4
2066	7	Sololá	701	Sololá	3	Barraneche	1	Enero	2023-11-01T00:00:00	2024-11-06T18:00:00	4	Temperatura máxima	15.3
2067	7	Sololá	701	Sololá	3	Barraneche	1	Enero	2023-11-01T00:00:00	2024-11-06T18:00:00	3	Temperatura mínima	13.4
2068	7	Sololá	701	Sololá	3	Barraneche	1	Enero	2023-11-01T00:00:00	2024-11-06T18:00:00	5	Humedad	63
2069	7	Sololá	701	Sololá	3	Barraneche	1	Enero	2023-11-01T00:00:00	2024-11-06T18:00:00	6	Velocidad del viento	8
2070	7	Sololá	701	Sololá	3	Barraneche	1	Enero	2023-11-01T00:00:00	2024-11-06T18:00:00	7	Dirección del viento	8.05
2071	7	Sololá	701	Sololá	3	Barraneche	1	Enero	2023-11-01T00:00:00	2024-11-06T18:00:00	1	Precipitación	0
2072	7	Sololá	701	Sololá	3	Barraneche	1	Enero	2023-11-01T00:00:00	2024-11-06T18:00:00	8	Radiación solar	38
2073	7	Sololá	701	Sololá	3	Barraneche	1	Enero	2023-11-01T00:00:00	2024-11-06T19:00:00	2	Temperatura media	12.7
2074	7	Sololá	701	Sololá	3	Barraneche	1	Enero	2023-11-01T00:00:00	2024-11-06T19:00:00	4	Temperatura máxima	13.4
2075	7	Sololá	701	Sololá	3	Barraneche	1	Enero	2023-11-01T00:00:00	2024-11-06T19:00:00	3	Temperatura mínima	12.7
2076	7	Sololá	701	Sololá	3	Barraneche	1	Enero	2023-11-01T00:00:00	2024-11-06T19:00:00	5	Humedad	63
2077	7	Sololá	701	Sololá	3	Barraneche	1	Enero	2023-11-01T00:00:00	2024-11-06T19:00:00	6	Velocidad del viento	4.8
2078	7	Sololá	701	Sololá	3	Barraneche	1	Enero	2023-11-01T00:00:00	2024-11-06T19:00:00	7	Dirección del viento	4.83
2079	7	Sololá	701	Sololá	3	Barraneche	1	Enero	2023-11-01T00:00:00	2024-11-06T19:00:00	1	Precipitación	0
2080	7	Sololá	701	Sololá	3	Barraneche	1	Enero	2023-11-01T00:00:00	2024-11-06T19:00:00	8	Radiación solar	0
2081	7	Sololá	701	Sololá	3	Barraneche	1	Enero	2023-11-01T00:00:00	2024-11-06T20:00:00	2	Temperatura media	12.9
2082	7	Sololá	701	Sololá	3	Barraneche	1	Enero	2023-11-01T00:00:00	2024-11-06T20:00:00	4	Temperatura máxima	12.9
2083	7	Sololá	701	Sololá	3	Barraneche	1	Enero	2023-11-01T00:00:00	2024-11-06T20:00:00	3	Temperatura mínima	12.6
2084	7	Sololá	701	Sololá	3	Barraneche	1	Enero	2023-11-01T00:00:00	2024-11-06T20:00:00	5	Humedad	64
2085	7	Sololá	701	Sololá	3	Barraneche	1	Enero	2023-11-01T00:00:00	2024-11-06T20:00:00	6	Velocidad del viento	8
2086	7	Sololá	701	Sololá	3	Barraneche	1	Enero	2023-11-01T00:00:00	2024-11-06T20:00:00	7	Dirección del viento	8.05
2087	7	Sololá	701	Sololá	3	Barraneche	1	Enero	2023-11-01T00:00:00	2024-11-06T20:00:00	1	Precipitación	0
2088	7	Sololá	701	Sololá	3	Barraneche	1	Enero	2023-11-01T00:00:00	2024-11-06T20:00:00	8	Radiación solar	0
2089	7	Sololá	701	Sololá	3	Barraneche	1	Enero	2023-11-01T00:00:00	2024-11-06T21:00:00	2	Temperatura media	12.6
2090	7	Sololá	701	Sololá	3	Barraneche	1	Enero	2023-11-01T00:00:00	2024-11-06T21:00:00	4	Temperatura máxima	13.1
2091	7	Sololá	701	Sololá	3	Barraneche	1	Enero	2023-11-01T00:00:00	2024-11-06T21:00:00	3	Temperatura mínima	12.6
2092	7	Sololá	701	Sololá	3	Barraneche	1	Enero	2023-11-01T00:00:00	2024-11-06T21:00:00	5	Humedad	63
2093	7	Sololá	701	Sololá	3	Barraneche	1	Enero	2023-11-01T00:00:00	2024-11-06T21:00:00	6	Velocidad del viento	8
2094	7	Sololá	701	Sololá	3	Barraneche	1	Enero	2023-11-01T00:00:00	2024-11-06T21:00:00	7	Dirección del viento	8.05
2095	7	Sololá	701	Sololá	3	Barraneche	1	Enero	2023-11-01T00:00:00	2024-11-06T21:00:00	1	Precipitación	0
2096	7	Sololá	701	Sololá	3	Barraneche	1	Enero	2023-11-01T00:00:00	2024-11-06T21:00:00	8	Radiación solar	0
2097	7	Sololá	701	Sololá	3	Barraneche	1	Enero	2023-11-01T00:00:00	2024-11-06T22:00:00	2	Temperatura media	11
2098	7	Sololá	701	Sololá	3	Barraneche	1	Enero	2023-11-01T00:00:00	2024-11-06T22:00:00	4	Temperatura máxima	12.6
2099	7	Sololá	701	Sololá	3	Barraneche	1	Enero	2023-11-01T00:00:00	2024-11-06T22:00:00	3	Temperatura mínima	10.9
2100	7	Sololá	701	Sololá	3	Barraneche	1	Enero	2023-11-01T00:00:00	2024-11-06T22:00:00	5	Humedad	67
2101	7	Sololá	701	Sololá	3	Barraneche	1	Enero	2023-11-01T00:00:00	2024-11-06T22:00:00	6	Velocidad del viento	4.8
2102	7	Sololá	701	Sololá	3	Barraneche	1	Enero	2023-11-01T00:00:00	2024-11-06T22:00:00	7	Dirección del viento	4.83
2103	7	Sololá	701	Sololá	3	Barraneche	1	Enero	2023-11-01T00:00:00	2024-11-06T22:00:00	1	Precipitación	0
2104	7	Sololá	701	Sololá	3	Barraneche	1	Enero	2023-11-01T00:00:00	2024-11-06T22:00:00	8	Radiación solar	0
2105	7	Sololá	701	Sololá	3	Barraneche	1	Enero	2023-11-01T00:00:00	2024-11-06T23:00:00	2	Temperatura media	11.7
2106	7	Sololá	701	Sololá	3	Barraneche	1	Enero	2023-11-01T00:00:00	2024-11-06T23:00:00	4	Temperatura máxima	12.2
2107	7	Sololá	701	Sololá	3	Barraneche	1	Enero	2023-11-01T00:00:00	2024-11-06T23:00:00	3	Temperatura mínima	11
2108	7	Sololá	701	Sololá	3	Barraneche	1	Enero	2023-11-01T00:00:00	2024-11-06T23:00:00	5	Humedad	64
2109	7	Sololá	701	Sololá	3	Barraneche	1	Enero	2023-11-01T00:00:00	2024-11-06T23:00:00	6	Velocidad del viento	4.8
2110	7	Sololá	701	Sololá	3	Barraneche	1	Enero	2023-11-01T00:00:00	2024-11-06T23:00:00	7	Dirección del viento	4.83
2111	7	Sololá	701	Sololá	3	Barraneche	1	Enero	2023-11-01T00:00:00	2024-11-06T23:00:00	1	Precipitación	0
2112	7	Sololá	701	Sololá	3	Barraneche	1	Enero	2023-11-01T00:00:00	2024-11-06T23:00:00	8	Radiación solar	0
2113	7	Sololá	701	Sololá	3	Barraneche	1	Enero	2023-12-01T00:00:00	2024-11-06T00:00:00	2	Temperatura media	9.8
2114	7	Sololá	701	Sololá	3	Barraneche	1	Enero	2023-12-01T00:00:00	2024-11-06T00:00:00	4	Temperatura máxima	11.7
2115	7	Sololá	701	Sololá	3	Barraneche	1	Enero	2023-12-01T00:00:00	2024-11-06T00:00:00	3	Temperatura mínima	9.5
2116	7	Sololá	701	Sololá	3	Barraneche	1	Enero	2023-12-01T00:00:00	2024-11-06T00:00:00	5	Humedad	69
2117	7	Sololá	701	Sololá	3	Barraneche	1	Enero	2023-12-01T00:00:00	2024-11-06T00:00:00	6	Velocidad del viento	3.2
2118	7	Sololá	701	Sololá	3	Barraneche	1	Enero	2023-12-01T00:00:00	2024-11-06T00:00:00	7	Dirección del viento	3.22
2119	7	Sololá	701	Sololá	3	Barraneche	1	Enero	2023-12-01T00:00:00	2024-11-06T00:00:00	1	Precipitación	0
2120	7	Sololá	701	Sololá	3	Barraneche	1	Enero	2023-12-01T00:00:00	2024-11-06T00:00:00	8	Radiación solar	0
2121	7	Sololá	701	Sololá	3	Barraneche	1	Enero	2023-12-01T00:00:00	2024-11-06T01:00:00	2	Temperatura media	9.1
2122	7	Sololá	701	Sololá	3	Barraneche	1	Enero	2023-12-01T00:00:00	2024-11-06T01:00:00	4	Temperatura máxima	10.7
2123	7	Sololá	701	Sololá	3	Barraneche	1	Enero	2023-12-01T00:00:00	2024-11-06T01:00:00	3	Temperatura mínima	9.1
2124	7	Sololá	701	Sololá	3	Barraneche	1	Enero	2023-12-01T00:00:00	2024-11-06T01:00:00	5	Humedad	70
2125	7	Sololá	701	Sololá	3	Barraneche	1	Enero	2023-12-01T00:00:00	2024-11-06T01:00:00	6	Velocidad del viento	3.2
2126	7	Sololá	701	Sololá	3	Barraneche	1	Enero	2023-12-01T00:00:00	2024-11-06T01:00:00	7	Dirección del viento	3.22
2127	7	Sololá	701	Sololá	3	Barraneche	1	Enero	2023-12-01T00:00:00	2024-11-06T01:00:00	1	Precipitación	0
2128	7	Sololá	701	Sololá	3	Barraneche	1	Enero	2023-12-01T00:00:00	2024-11-06T01:00:00	8	Radiación solar	0
2129	7	Sololá	701	Sololá	3	Barraneche	1	Enero	2023-12-01T00:00:00	2024-11-06T02:00:00	2	Temperatura media	8.7
2130	7	Sololá	701	Sololá	3	Barraneche	1	Enero	2023-12-01T00:00:00	2024-11-06T02:00:00	4	Temperatura máxima	9.2
2131	7	Sololá	701	Sololá	3	Barraneche	1	Enero	2023-12-01T00:00:00	2024-11-06T02:00:00	3	Temperatura mínima	8.4
2132	7	Sololá	701	Sololá	3	Barraneche	1	Enero	2023-12-01T00:00:00	2024-11-06T02:00:00	5	Humedad	71
2133	7	Sololá	701	Sololá	3	Barraneche	1	Enero	2023-12-01T00:00:00	2024-11-06T02:00:00	6	Velocidad del viento	3.2
2134	7	Sololá	701	Sololá	3	Barraneche	1	Enero	2023-12-01T00:00:00	2024-11-06T02:00:00	7	Dirección del viento	3.22
2135	7	Sololá	701	Sololá	3	Barraneche	1	Enero	2023-12-01T00:00:00	2024-11-06T02:00:00	1	Precipitación	0
2136	7	Sololá	701	Sololá	3	Barraneche	1	Enero	2023-12-01T00:00:00	2024-11-06T02:00:00	8	Radiación solar	0
2137	7	Sololá	701	Sololá	3	Barraneche	1	Enero	2023-12-01T00:00:00	2024-11-06T03:00:00	2	Temperatura media	8.4
2138	7	Sololá	701	Sololá	3	Barraneche	1	Enero	2023-12-01T00:00:00	2024-11-06T03:00:00	4	Temperatura máxima	8.8
2139	7	Sololá	701	Sololá	3	Barraneche	1	Enero	2023-12-01T00:00:00	2024-11-06T03:00:00	3	Temperatura mínima	8.2
2140	7	Sololá	701	Sololá	3	Barraneche	1	Enero	2023-12-01T00:00:00	2024-11-06T03:00:00	5	Humedad	70
2141	7	Sololá	701	Sololá	3	Barraneche	1	Enero	2023-12-01T00:00:00	2024-11-06T03:00:00	6	Velocidad del viento	4.8
2142	7	Sololá	701	Sololá	3	Barraneche	1	Enero	2023-12-01T00:00:00	2024-11-06T03:00:00	7	Dirección del viento	4.83
2143	7	Sololá	701	Sololá	3	Barraneche	1	Enero	2023-12-01T00:00:00	2024-11-06T03:00:00	1	Precipitación	0
2144	7	Sololá	701	Sololá	3	Barraneche	1	Enero	2023-12-01T00:00:00	2024-11-06T03:00:00	8	Radiación solar	0
2145	7	Sololá	701	Sololá	3	Barraneche	1	Enero	2023-12-01T00:00:00	2024-11-06T04:00:00	2	Temperatura media	8.7
2146	7	Sololá	701	Sololá	3	Barraneche	1	Enero	2023-12-01T00:00:00	2024-11-06T04:00:00	4	Temperatura máxima	8.7
2147	7	Sololá	701	Sololá	3	Barraneche	1	Enero	2023-12-01T00:00:00	2024-11-06T04:00:00	3	Temperatura mínima	8.2
2148	7	Sololá	701	Sololá	3	Barraneche	1	Enero	2023-12-01T00:00:00	2024-11-06T04:00:00	5	Humedad	68
2149	7	Sololá	701	Sololá	3	Barraneche	1	Enero	2023-12-01T00:00:00	2024-11-06T04:00:00	6	Velocidad del viento	4.8
2150	7	Sololá	701	Sololá	3	Barraneche	1	Enero	2023-12-01T00:00:00	2024-11-06T04:00:00	7	Dirección del viento	4.83
2151	7	Sololá	701	Sololá	3	Barraneche	1	Enero	2023-12-01T00:00:00	2024-11-06T04:00:00	1	Precipitación	0
2152	7	Sololá	701	Sololá	3	Barraneche	1	Enero	2023-12-01T00:00:00	2024-11-06T04:00:00	8	Radiación solar	0
2153	7	Sololá	701	Sololá	3	Barraneche	1	Enero	2023-12-01T00:00:00	2024-11-06T05:00:00	2	Temperatura media	8.3
2154	7	Sololá	701	Sololá	3	Barraneche	1	Enero	2023-12-01T00:00:00	2024-11-06T05:00:00	4	Temperatura máxima	8.8
2155	7	Sololá	701	Sololá	3	Barraneche	1	Enero	2023-12-01T00:00:00	2024-11-06T05:00:00	3	Temperatura mínima	8.1
2156	7	Sololá	701	Sololá	3	Barraneche	1	Enero	2023-12-01T00:00:00	2024-11-06T05:00:00	5	Humedad	68
2157	7	Sololá	701	Sololá	3	Barraneche	1	Enero	2023-12-01T00:00:00	2024-11-06T05:00:00	6	Velocidad del viento	4.8
2158	7	Sololá	701	Sololá	3	Barraneche	1	Enero	2023-12-01T00:00:00	2024-11-06T05:00:00	7	Dirección del viento	4.83
2159	7	Sololá	701	Sololá	3	Barraneche	1	Enero	2023-12-01T00:00:00	2024-11-06T05:00:00	1	Precipitación	0
2160	7	Sololá	701	Sololá	3	Barraneche	1	Enero	2023-12-01T00:00:00	2024-11-06T05:00:00	8	Radiación solar	0
2161	7	Sololá	701	Sololá	3	Barraneche	1	Enero	2023-12-01T00:00:00	2024-11-06T06:00:00	2	Temperatura media	7.8
2162	7	Sololá	701	Sololá	3	Barraneche	1	Enero	2023-12-01T00:00:00	2024-11-06T06:00:00	4	Temperatura máxima	8.3
2163	7	Sololá	701	Sololá	3	Barraneche	1	Enero	2023-12-01T00:00:00	2024-11-06T06:00:00	3	Temperatura mínima	7.8
2164	7	Sololá	701	Sololá	3	Barraneche	1	Enero	2023-12-01T00:00:00	2024-11-06T06:00:00	5	Humedad	69
2165	7	Sololá	701	Sololá	3	Barraneche	1	Enero	2023-12-01T00:00:00	2024-11-06T06:00:00	6	Velocidad del viento	6.4
2166	7	Sololá	701	Sololá	3	Barraneche	1	Enero	2023-12-01T00:00:00	2024-11-06T06:00:00	7	Dirección del viento	6.44
2167	7	Sololá	701	Sololá	3	Barraneche	1	Enero	2023-12-01T00:00:00	2024-11-06T06:00:00	1	Precipitación	0
2168	7	Sololá	701	Sololá	3	Barraneche	1	Enero	2023-12-01T00:00:00	2024-11-06T06:00:00	8	Radiación solar	0
2169	7	Sololá	701	Sololá	3	Barraneche	1	Enero	2023-12-01T00:00:00	2024-11-06T07:00:00	2	Temperatura media	8.2
2170	7	Sololá	701	Sololá	3	Barraneche	1	Enero	2023-12-01T00:00:00	2024-11-06T07:00:00	4	Temperatura máxima	8.2
2171	7	Sololá	701	Sololá	3	Barraneche	1	Enero	2023-12-01T00:00:00	2024-11-06T07:00:00	3	Temperatura mínima	7.6
2172	7	Sololá	701	Sololá	3	Barraneche	1	Enero	2023-12-01T00:00:00	2024-11-06T07:00:00	5	Humedad	68
2173	7	Sololá	701	Sololá	3	Barraneche	1	Enero	2023-12-01T00:00:00	2024-11-06T07:00:00	6	Velocidad del viento	6.4
2174	7	Sololá	701	Sololá	3	Barraneche	1	Enero	2023-12-01T00:00:00	2024-11-06T07:00:00	7	Dirección del viento	6.44
2175	7	Sololá	701	Sololá	3	Barraneche	1	Enero	2023-12-01T00:00:00	2024-11-06T07:00:00	1	Precipitación	0
2176	7	Sololá	701	Sololá	3	Barraneche	1	Enero	2023-12-01T00:00:00	2024-11-06T07:00:00	8	Radiación solar	5
2177	7	Sololá	701	Sololá	3	Barraneche	1	Enero	2023-12-01T00:00:00	2024-11-06T08:00:00	2	Temperatura media	11.3
2178	7	Sololá	701	Sololá	3	Barraneche	1	Enero	2023-12-01T00:00:00	2024-11-06T08:00:00	4	Temperatura máxima	11.3
2179	7	Sololá	701	Sololá	3	Barraneche	1	Enero	2023-12-01T00:00:00	2024-11-06T08:00:00	3	Temperatura mínima	8.1
2180	7	Sololá	701	Sololá	3	Barraneche	1	Enero	2023-12-01T00:00:00	2024-11-06T08:00:00	5	Humedad	64
2181	7	Sololá	701	Sololá	3	Barraneche	1	Enero	2023-12-01T00:00:00	2024-11-06T08:00:00	6	Velocidad del viento	6.4
2182	7	Sololá	701	Sololá	3	Barraneche	1	Enero	2023-12-01T00:00:00	2024-11-06T08:00:00	7	Dirección del viento	6.44
2183	7	Sololá	701	Sololá	3	Barraneche	1	Enero	2023-12-01T00:00:00	2024-11-06T08:00:00	1	Precipitación	0
2184	7	Sololá	701	Sololá	3	Barraneche	1	Enero	2023-12-01T00:00:00	2024-11-06T08:00:00	8	Radiación solar	138
2185	7	Sololá	701	Sololá	3	Barraneche	1	Enero	2023-12-01T00:00:00	2024-11-06T09:00:00	2	Temperatura media	14.2
2186	7	Sololá	701	Sololá	3	Barraneche	1	Enero	2023-12-01T00:00:00	2024-11-06T09:00:00	4	Temperatura máxima	14.2
2187	7	Sololá	701	Sololá	3	Barraneche	1	Enero	2023-12-01T00:00:00	2024-11-06T09:00:00	3	Temperatura mínima	11.3
2188	7	Sololá	701	Sololá	3	Barraneche	1	Enero	2023-12-01T00:00:00	2024-11-06T09:00:00	5	Humedad	58
2189	7	Sololá	701	Sololá	3	Barraneche	1	Enero	2023-12-01T00:00:00	2024-11-06T09:00:00	6	Velocidad del viento	3.2
2190	7	Sololá	701	Sololá	3	Barraneche	1	Enero	2023-12-01T00:00:00	2024-11-06T09:00:00	7	Dirección del viento	3.22
2191	7	Sololá	701	Sololá	3	Barraneche	1	Enero	2023-12-01T00:00:00	2024-11-06T09:00:00	1	Precipitación	0
2192	7	Sololá	701	Sololá	3	Barraneche	1	Enero	2023-12-01T00:00:00	2024-11-06T09:00:00	8	Radiación solar	375
2193	7	Sololá	701	Sololá	3	Barraneche	1	Enero	2023-12-01T00:00:00	2024-11-06T10:00:00	2	Temperatura media	17.1
2194	7	Sololá	701	Sololá	3	Barraneche	1	Enero	2023-12-01T00:00:00	2024-11-06T10:00:00	4	Temperatura máxima	17.1
2195	7	Sololá	701	Sololá	3	Barraneche	1	Enero	2023-12-01T00:00:00	2024-11-06T10:00:00	3	Temperatura mínima	14.2
2196	7	Sololá	701	Sololá	3	Barraneche	1	Enero	2023-12-01T00:00:00	2024-11-06T10:00:00	5	Humedad	43
2197	7	Sololá	701	Sololá	3	Barraneche	1	Enero	2023-12-01T00:00:00	2024-11-06T10:00:00	6	Velocidad del viento	6.4
2198	7	Sololá	701	Sololá	3	Barraneche	1	Enero	2023-12-01T00:00:00	2024-11-06T10:00:00	7	Dirección del viento	6.44
2199	7	Sololá	701	Sololá	3	Barraneche	1	Enero	2023-12-01T00:00:00	2024-11-06T10:00:00	1	Precipitación	0
2200	7	Sololá	701	Sololá	3	Barraneche	1	Enero	2023-12-01T00:00:00	2024-11-06T10:00:00	8	Radiación solar	582
2201	7	Sololá	701	Sololá	3	Barraneche	1	Enero	2023-12-01T00:00:00	2024-11-06T11:00:00	2	Temperatura media	18.8
2202	7	Sololá	701	Sololá	3	Barraneche	1	Enero	2023-12-01T00:00:00	2024-11-06T11:00:00	4	Temperatura máxima	18.8
2203	7	Sololá	701	Sololá	3	Barraneche	1	Enero	2023-12-01T00:00:00	2024-11-06T11:00:00	3	Temperatura mínima	17.2
2204	7	Sololá	701	Sololá	3	Barraneche	1	Enero	2023-12-01T00:00:00	2024-11-06T11:00:00	5	Humedad	40
2205	7	Sololá	701	Sololá	3	Barraneche	1	Enero	2023-12-01T00:00:00	2024-11-06T11:00:00	6	Velocidad del viento	9.7
2206	7	Sololá	701	Sololá	3	Barraneche	1	Enero	2023-12-01T00:00:00	2024-11-06T11:00:00	7	Dirección del viento	9.66
2207	7	Sololá	701	Sololá	3	Barraneche	1	Enero	2023-12-01T00:00:00	2024-11-06T11:00:00	1	Precipitación	0
2208	7	Sololá	701	Sololá	3	Barraneche	1	Enero	2023-12-01T00:00:00	2024-11-06T11:00:00	8	Radiación solar	735
2209	7	Sololá	701	Sololá	3	Barraneche	1	Enero	2023-12-01T00:00:00	2024-11-06T12:00:00	2	Temperatura media	19.1
2210	7	Sololá	701	Sololá	3	Barraneche	1	Enero	2023-12-01T00:00:00	2024-11-06T12:00:00	4	Temperatura máxima	19.7
2211	7	Sololá	701	Sololá	3	Barraneche	1	Enero	2023-12-01T00:00:00	2024-11-06T12:00:00	3	Temperatura mínima	18.7
2212	7	Sololá	701	Sololá	3	Barraneche	1	Enero	2023-12-01T00:00:00	2024-11-06T12:00:00	5	Humedad	41
2213	7	Sololá	701	Sololá	3	Barraneche	1	Enero	2023-12-01T00:00:00	2024-11-06T12:00:00	6	Velocidad del viento	8
2214	7	Sololá	701	Sololá	3	Barraneche	1	Enero	2023-12-01T00:00:00	2024-11-06T12:00:00	7	Dirección del viento	8.05
2215	7	Sololá	701	Sololá	3	Barraneche	1	Enero	2023-12-01T00:00:00	2024-11-06T12:00:00	1	Precipitación	0
2216	7	Sololá	701	Sololá	3	Barraneche	1	Enero	2023-12-01T00:00:00	2024-11-06T12:00:00	8	Radiación solar	827
2217	7	Sololá	701	Sololá	3	Barraneche	1	Enero	2023-12-01T00:00:00	2024-11-06T13:00:00	2	Temperatura media	18.5
2218	7	Sololá	701	Sololá	3	Barraneche	1	Enero	2023-12-01T00:00:00	2024-11-06T13:00:00	4	Temperatura máxima	20.1
2219	7	Sololá	701	Sololá	3	Barraneche	1	Enero	2023-12-01T00:00:00	2024-11-06T13:00:00	3	Temperatura mínima	18.5
2220	7	Sololá	701	Sololá	3	Barraneche	1	Enero	2023-12-01T00:00:00	2024-11-06T13:00:00	5	Humedad	52
2221	7	Sololá	701	Sololá	3	Barraneche	1	Enero	2023-12-01T00:00:00	2024-11-06T13:00:00	6	Velocidad del viento	9.7
2222	7	Sololá	701	Sololá	3	Barraneche	1	Enero	2023-12-01T00:00:00	2024-11-06T13:00:00	7	Dirección del viento	9.66
2223	7	Sololá	701	Sololá	3	Barraneche	1	Enero	2023-12-01T00:00:00	2024-11-06T13:00:00	1	Precipitación	0
2224	7	Sololá	701	Sololá	3	Barraneche	1	Enero	2023-12-01T00:00:00	2024-11-06T13:00:00	8	Radiación solar	851
2225	7	Sololá	701	Sololá	3	Barraneche	1	Enero	2023-12-01T00:00:00	2024-11-06T14:00:00	2	Temperatura media	16.7
2226	7	Sololá	701	Sololá	3	Barraneche	1	Enero	2023-12-01T00:00:00	2024-11-06T14:00:00	4	Temperatura máxima	18.5
2227	7	Sololá	701	Sololá	3	Barraneche	1	Enero	2023-12-01T00:00:00	2024-11-06T14:00:00	3	Temperatura mínima	16.4
2228	7	Sololá	701	Sololá	3	Barraneche	1	Enero	2023-12-01T00:00:00	2024-11-06T14:00:00	5	Humedad	62
2229	7	Sololá	701	Sololá	3	Barraneche	1	Enero	2023-12-01T00:00:00	2024-11-06T14:00:00	6	Velocidad del viento	14.5
2230	7	Sololá	701	Sololá	3	Barraneche	1	Enero	2023-12-01T00:00:00	2024-11-06T14:00:00	7	Dirección del viento	14.48
2231	7	Sololá	701	Sololá	3	Barraneche	1	Enero	2023-12-01T00:00:00	2024-11-06T14:00:00	1	Precipitación	0
2232	7	Sololá	701	Sololá	3	Barraneche	1	Enero	2023-12-01T00:00:00	2024-11-06T14:00:00	8	Radiación solar	367
2233	7	Sololá	701	Sololá	3	Barraneche	1	Enero	2023-12-01T00:00:00	2024-11-06T15:00:00	2	Temperatura media	15.7
2234	7	Sololá	701	Sololá	3	Barraneche	1	Enero	2023-12-01T00:00:00	2024-11-06T15:00:00	4	Temperatura máxima	17.6
2235	7	Sololá	701	Sololá	3	Barraneche	1	Enero	2023-12-01T00:00:00	2024-11-06T15:00:00	3	Temperatura mínima	15.6
2236	7	Sololá	701	Sololá	3	Barraneche	1	Enero	2023-12-01T00:00:00	2024-11-06T15:00:00	5	Humedad	66
2237	7	Sololá	701	Sololá	3	Barraneche	1	Enero	2023-12-01T00:00:00	2024-11-06T15:00:00	6	Velocidad del viento	12.9
2238	7	Sololá	701	Sololá	3	Barraneche	1	Enero	2023-12-01T00:00:00	2024-11-06T15:00:00	7	Dirección del viento	12.87
2239	7	Sololá	701	Sololá	3	Barraneche	1	Enero	2023-12-01T00:00:00	2024-11-06T15:00:00	1	Precipitación	0
2240	7	Sololá	701	Sololá	3	Barraneche	1	Enero	2023-12-01T00:00:00	2024-11-06T15:00:00	8	Radiación solar	507
2241	7	Sololá	701	Sololá	3	Barraneche	1	Enero	2023-12-01T00:00:00	2024-11-06T16:00:00	2	Temperatura media	15.4
2242	7	Sololá	701	Sololá	3	Barraneche	1	Enero	2023-12-01T00:00:00	2024-11-06T16:00:00	4	Temperatura máxima	16.3
2243	7	Sololá	701	Sololá	3	Barraneche	1	Enero	2023-12-01T00:00:00	2024-11-06T16:00:00	3	Temperatura mínima	15.4
2244	7	Sololá	701	Sololá	3	Barraneche	1	Enero	2023-12-01T00:00:00	2024-11-06T16:00:00	5	Humedad	69
2245	7	Sololá	701	Sololá	3	Barraneche	1	Enero	2023-12-01T00:00:00	2024-11-06T16:00:00	6	Velocidad del viento	11.3
2246	7	Sololá	701	Sololá	3	Barraneche	1	Enero	2023-12-01T00:00:00	2024-11-06T16:00:00	7	Dirección del viento	11.27
2247	7	Sololá	701	Sololá	3	Barraneche	1	Enero	2023-12-01T00:00:00	2024-11-06T16:00:00	1	Precipitación	0
2248	7	Sololá	701	Sololá	3	Barraneche	1	Enero	2023-12-01T00:00:00	2024-11-06T16:00:00	8	Radiación solar	356
2249	7	Sololá	701	Sololá	3	Barraneche	1	Enero	2023-12-01T00:00:00	2024-11-06T17:00:00	2	Temperatura media	14.9
2250	7	Sololá	701	Sololá	3	Barraneche	1	Enero	2023-12-01T00:00:00	2024-11-06T17:00:00	4	Temperatura máxima	15.5
2251	7	Sololá	701	Sololá	3	Barraneche	1	Enero	2023-12-01T00:00:00	2024-11-06T17:00:00	3	Temperatura mínima	14.7
2252	7	Sololá	701	Sololá	3	Barraneche	1	Enero	2023-12-01T00:00:00	2024-11-06T17:00:00	5	Humedad	71
2253	7	Sololá	701	Sololá	3	Barraneche	1	Enero	2023-12-01T00:00:00	2024-11-06T17:00:00	6	Velocidad del viento	6.4
2254	7	Sololá	701	Sololá	3	Barraneche	1	Enero	2023-12-01T00:00:00	2024-11-06T17:00:00	7	Dirección del viento	6.44
2255	7	Sololá	701	Sololá	3	Barraneche	1	Enero	2023-12-01T00:00:00	2024-11-06T17:00:00	1	Precipitación	0
2256	7	Sololá	701	Sololá	3	Barraneche	1	Enero	2023-12-01T00:00:00	2024-11-06T17:00:00	8	Radiación solar	98
2257	7	Sololá	701	Sololá	3	Barraneche	1	Enero	2023-12-01T00:00:00	2024-11-06T18:00:00	2	Temperatura media	13.6
2258	7	Sololá	701	Sololá	3	Barraneche	1	Enero	2023-12-01T00:00:00	2024-11-06T18:00:00	4	Temperatura máxima	14.9
2259	7	Sololá	701	Sololá	3	Barraneche	1	Enero	2023-12-01T00:00:00	2024-11-06T18:00:00	3	Temperatura mínima	13.6
2260	7	Sololá	701	Sololá	3	Barraneche	1	Enero	2023-12-01T00:00:00	2024-11-06T18:00:00	5	Humedad	75
2261	7	Sololá	701	Sololá	3	Barraneche	1	Enero	2023-12-01T00:00:00	2024-11-06T18:00:00	6	Velocidad del viento	3.2
2262	7	Sololá	701	Sololá	3	Barraneche	1	Enero	2023-12-01T00:00:00	2024-11-06T18:00:00	7	Dirección del viento	3.22
2263	7	Sololá	701	Sololá	3	Barraneche	1	Enero	2023-12-01T00:00:00	2024-11-06T18:00:00	1	Precipitación	0
2264	7	Sololá	701	Sololá	3	Barraneche	1	Enero	2023-12-01T00:00:00	2024-11-06T18:00:00	8	Radiación solar	18
2265	7	Sololá	701	Sololá	3	Barraneche	1	Enero	2023-12-01T00:00:00	2024-11-06T19:00:00	2	Temperatura media	14.1
2266	7	Sololá	701	Sololá	3	Barraneche	1	Enero	2023-12-01T00:00:00	2024-11-06T19:00:00	4	Temperatura máxima	14.1
2267	7	Sololá	701	Sololá	3	Barraneche	1	Enero	2023-12-01T00:00:00	2024-11-06T19:00:00	3	Temperatura mínima	13.1
2268	7	Sololá	701	Sololá	3	Barraneche	1	Enero	2023-12-01T00:00:00	2024-11-06T19:00:00	5	Humedad	66
2269	7	Sololá	701	Sololá	3	Barraneche	1	Enero	2023-12-01T00:00:00	2024-11-06T19:00:00	6	Velocidad del viento	3.2
2270	7	Sololá	701	Sololá	3	Barraneche	1	Enero	2023-12-01T00:00:00	2024-11-06T19:00:00	7	Dirección del viento	3.22
2271	7	Sololá	701	Sololá	3	Barraneche	1	Enero	2023-12-01T00:00:00	2024-11-06T19:00:00	1	Precipitación	0
2272	7	Sololá	701	Sololá	3	Barraneche	1	Enero	2023-12-01T00:00:00	2024-11-06T19:00:00	8	Radiación solar	0
2273	7	Sololá	701	Sololá	3	Barraneche	1	Enero	2023-12-01T00:00:00	2024-11-06T20:00:00	2	Temperatura media	12.8
2274	7	Sololá	701	Sololá	3	Barraneche	1	Enero	2023-12-01T00:00:00	2024-11-06T20:00:00	4	Temperatura máxima	14.1
2275	7	Sololá	701	Sololá	3	Barraneche	1	Enero	2023-12-01T00:00:00	2024-11-06T20:00:00	3	Temperatura mínima	12.8
2276	7	Sololá	701	Sololá	3	Barraneche	1	Enero	2023-12-01T00:00:00	2024-11-06T20:00:00	5	Humedad	68
2277	7	Sololá	701	Sololá	3	Barraneche	1	Enero	2023-12-01T00:00:00	2024-11-06T20:00:00	6	Velocidad del viento	3.2
2278	7	Sololá	701	Sololá	3	Barraneche	1	Enero	2023-12-01T00:00:00	2024-11-06T20:00:00	7	Dirección del viento	3.22
2279	7	Sololá	701	Sololá	3	Barraneche	1	Enero	2023-12-01T00:00:00	2024-11-06T20:00:00	1	Precipitación	0
2280	7	Sololá	701	Sololá	3	Barraneche	1	Enero	2023-12-01T00:00:00	2024-11-06T20:00:00	8	Radiación solar	0
2281	7	Sololá	701	Sololá	3	Barraneche	1	Enero	2023-12-01T00:00:00	2024-11-06T21:00:00	2	Temperatura media	13.3
2282	7	Sololá	701	Sololá	3	Barraneche	1	Enero	2023-12-01T00:00:00	2024-11-06T21:00:00	4	Temperatura máxima	13.3
2283	7	Sololá	701	Sololá	3	Barraneche	1	Enero	2023-12-01T00:00:00	2024-11-06T21:00:00	3	Temperatura mínima	12.6
2284	7	Sololá	701	Sololá	3	Barraneche	1	Enero	2023-12-01T00:00:00	2024-11-06T21:00:00	5	Humedad	64
2285	7	Sololá	701	Sololá	3	Barraneche	1	Enero	2023-12-01T00:00:00	2024-11-06T21:00:00	6	Velocidad del viento	4.8
2286	7	Sololá	701	Sololá	3	Barraneche	1	Enero	2023-12-01T00:00:00	2024-11-06T21:00:00	7	Dirección del viento	4.83
2287	7	Sololá	701	Sololá	3	Barraneche	1	Enero	2023-12-01T00:00:00	2024-11-06T21:00:00	1	Precipitación	0
2288	7	Sololá	701	Sololá	3	Barraneche	1	Enero	2023-12-01T00:00:00	2024-11-06T21:00:00	8	Radiación solar	0
2289	7	Sololá	701	Sololá	3	Barraneche	1	Enero	2023-12-01T00:00:00	2024-11-06T22:00:00	2	Temperatura media	12.8
2290	7	Sololá	701	Sololá	3	Barraneche	1	Enero	2023-12-01T00:00:00	2024-11-06T22:00:00	4	Temperatura máxima	13.3
2291	7	Sololá	701	Sololá	3	Barraneche	1	Enero	2023-12-01T00:00:00	2024-11-06T22:00:00	3	Temperatura mínima	12.8
2292	7	Sololá	701	Sololá	3	Barraneche	1	Enero	2023-12-01T00:00:00	2024-11-06T22:00:00	5	Humedad	64
2293	7	Sololá	701	Sololá	3	Barraneche	1	Enero	2023-12-01T00:00:00	2024-11-06T22:00:00	6	Velocidad del viento	9.7
2294	7	Sololá	701	Sololá	3	Barraneche	1	Enero	2023-12-01T00:00:00	2024-11-06T22:00:00	7	Dirección del viento	9.66
2295	7	Sololá	701	Sololá	3	Barraneche	1	Enero	2023-12-01T00:00:00	2024-11-06T22:00:00	1	Precipitación	0
2296	7	Sololá	701	Sololá	3	Barraneche	1	Enero	2023-12-01T00:00:00	2024-11-06T22:00:00	8	Radiación solar	0
2297	7	Sololá	701	Sololá	3	Barraneche	1	Enero	2023-12-01T00:00:00	2024-11-06T23:00:00	2	Temperatura media	12.6
2298	7	Sololá	701	Sololá	3	Barraneche	1	Enero	2023-12-01T00:00:00	2024-11-06T23:00:00	4	Temperatura máxima	12.8
2299	7	Sololá	701	Sololá	3	Barraneche	1	Enero	2023-12-01T00:00:00	2024-11-06T23:00:00	3	Temperatura mínima	12.5
2300	7	Sololá	701	Sololá	3	Barraneche	1	Enero	2023-12-01T00:00:00	2024-11-06T23:00:00	5	Humedad	64
2301	7	Sololá	701	Sololá	3	Barraneche	1	Enero	2023-12-01T00:00:00	2024-11-06T23:00:00	6	Velocidad del viento	12.9
2302	7	Sololá	701	Sololá	3	Barraneche	1	Enero	2023-12-01T00:00:00	2024-11-06T23:00:00	7	Dirección del viento	12.87
2303	7	Sololá	701	Sololá	3	Barraneche	1	Enero	2023-12-01T00:00:00	2024-11-06T23:00:00	1	Precipitación	0
2304	7	Sololá	701	Sololá	3	Barraneche	1	Enero	2023-12-01T00:00:00	2024-11-06T23:00:00	8	Radiación solar	0
2305	7	Sololá	701	Sololá	3	Barraneche	1	Enero	2023-01-13T00:00:00	2024-11-06T00:00:00	2	Temperatura media	12.4
2306	7	Sololá	701	Sololá	3	Barraneche	1	Enero	2023-01-13T00:00:00	2024-11-06T00:00:00	4	Temperatura máxima	12.7
2307	7	Sololá	701	Sololá	3	Barraneche	1	Enero	2023-01-13T00:00:00	2024-11-06T00:00:00	3	Temperatura mínima	12.3
2308	7	Sololá	701	Sololá	3	Barraneche	1	Enero	2023-01-13T00:00:00	2024-11-06T00:00:00	5	Humedad	64
2309	7	Sololá	701	Sololá	3	Barraneche	1	Enero	2023-01-13T00:00:00	2024-11-06T00:00:00	6	Velocidad del viento	11.3
2310	7	Sololá	701	Sololá	3	Barraneche	1	Enero	2023-01-13T00:00:00	2024-11-06T00:00:00	7	Dirección del viento	11.27
2311	7	Sololá	701	Sololá	3	Barraneche	1	Enero	2023-01-13T00:00:00	2024-11-06T00:00:00	1	Precipitación	0
2312	7	Sololá	701	Sololá	3	Barraneche	1	Enero	2023-01-13T00:00:00	2024-11-06T00:00:00	8	Radiación solar	0
2313	7	Sololá	701	Sololá	3	Barraneche	1	Enero	2023-01-13T00:00:00	2024-11-06T01:00:00	2	Temperatura media	12.1
2314	7	Sololá	701	Sololá	3	Barraneche	1	Enero	2023-01-13T00:00:00	2024-11-06T01:00:00	4	Temperatura máxima	12.5
2315	7	Sololá	701	Sololá	3	Barraneche	1	Enero	2023-01-13T00:00:00	2024-11-06T01:00:00	3	Temperatura mínima	12.1
2316	7	Sololá	701	Sololá	3	Barraneche	1	Enero	2023-01-13T00:00:00	2024-11-06T01:00:00	5	Humedad	62
2317	7	Sololá	701	Sololá	3	Barraneche	1	Enero	2023-01-13T00:00:00	2024-11-06T01:00:00	6	Velocidad del viento	12.9
2318	7	Sololá	701	Sololá	3	Barraneche	1	Enero	2023-01-13T00:00:00	2024-11-06T01:00:00	7	Dirección del viento	12.87
2319	7	Sololá	701	Sololá	3	Barraneche	1	Enero	2023-01-13T00:00:00	2024-11-06T01:00:00	1	Precipitación	0
2320	7	Sololá	701	Sololá	3	Barraneche	1	Enero	2023-01-13T00:00:00	2024-11-06T01:00:00	8	Radiación solar	0
2321	7	Sololá	701	Sololá	3	Barraneche	1	Enero	2023-01-13T00:00:00	2024-11-06T02:00:00	2	Temperatura media	12.4
2322	7	Sololá	701	Sololá	3	Barraneche	1	Enero	2023-01-13T00:00:00	2024-11-06T02:00:00	4	Temperatura máxima	12.5
2323	7	Sololá	701	Sololá	3	Barraneche	1	Enero	2023-01-13T00:00:00	2024-11-06T02:00:00	3	Temperatura mínima	11.9
2324	7	Sololá	701	Sololá	3	Barraneche	1	Enero	2023-01-13T00:00:00	2024-11-06T02:00:00	5	Humedad	54
2325	7	Sololá	701	Sololá	3	Barraneche	1	Enero	2023-01-13T00:00:00	2024-11-06T02:00:00	6	Velocidad del viento	9.7
2326	7	Sololá	701	Sololá	3	Barraneche	1	Enero	2023-01-13T00:00:00	2024-11-06T02:00:00	7	Dirección del viento	9.66
2327	7	Sololá	701	Sololá	3	Barraneche	1	Enero	2023-01-13T00:00:00	2024-11-06T02:00:00	1	Precipitación	0
2328	7	Sololá	701	Sololá	3	Barraneche	1	Enero	2023-01-13T00:00:00	2024-11-06T02:00:00	8	Radiación solar	0
2329	7	Sololá	701	Sololá	3	Barraneche	1	Enero	2023-01-13T00:00:00	2024-11-06T03:00:00	2	Temperatura media	12.2
2330	7	Sololá	701	Sololá	3	Barraneche	1	Enero	2023-01-13T00:00:00	2024-11-06T03:00:00	4	Temperatura máxima	12.6
2331	7	Sololá	701	Sololá	3	Barraneche	1	Enero	2023-01-13T00:00:00	2024-11-06T03:00:00	3	Temperatura mínima	12.2
2332	7	Sololá	701	Sololá	3	Barraneche	1	Enero	2023-01-13T00:00:00	2024-11-06T03:00:00	5	Humedad	52
2333	7	Sololá	701	Sololá	3	Barraneche	1	Enero	2023-01-13T00:00:00	2024-11-06T03:00:00	6	Velocidad del viento	11.3
2334	7	Sololá	701	Sololá	3	Barraneche	1	Enero	2023-01-13T00:00:00	2024-11-06T03:00:00	7	Dirección del viento	11.27
2335	7	Sololá	701	Sololá	3	Barraneche	1	Enero	2023-01-13T00:00:00	2024-11-06T03:00:00	1	Precipitación	0
2336	7	Sololá	701	Sololá	3	Barraneche	1	Enero	2023-01-13T00:00:00	2024-11-06T03:00:00	8	Radiación solar	0
2337	7	Sololá	701	Sololá	3	Barraneche	1	Enero	2023-01-13T00:00:00	2024-11-06T04:00:00	2	Temperatura media	11.5
2338	7	Sololá	701	Sololá	3	Barraneche	1	Enero	2023-01-13T00:00:00	2024-11-06T04:00:00	4	Temperatura máxima	12.3
2339	7	Sololá	701	Sololá	3	Barraneche	1	Enero	2023-01-13T00:00:00	2024-11-06T04:00:00	3	Temperatura mínima	11.4
2340	7	Sololá	701	Sololá	3	Barraneche	1	Enero	2023-01-13T00:00:00	2024-11-06T04:00:00	5	Humedad	59
2341	7	Sololá	701	Sololá	3	Barraneche	1	Enero	2023-01-13T00:00:00	2024-11-06T04:00:00	6	Velocidad del viento	12.9
2342	7	Sololá	701	Sololá	3	Barraneche	1	Enero	2023-01-13T00:00:00	2024-11-06T04:00:00	7	Dirección del viento	12.87
2343	7	Sololá	701	Sololá	3	Barraneche	1	Enero	2023-01-13T00:00:00	2024-11-06T04:00:00	1	Precipitación	0
2344	7	Sololá	701	Sololá	3	Barraneche	1	Enero	2023-01-13T00:00:00	2024-11-06T04:00:00	8	Radiación solar	0
2345	7	Sololá	701	Sololá	3	Barraneche	1	Enero	2023-01-13T00:00:00	2024-11-06T05:00:00	2	Temperatura media	11.7
2346	7	Sololá	701	Sololá	3	Barraneche	1	Enero	2023-01-13T00:00:00	2024-11-06T05:00:00	4	Temperatura máxima	11.7
2347	7	Sololá	701	Sololá	3	Barraneche	1	Enero	2023-01-13T00:00:00	2024-11-06T05:00:00	3	Temperatura mínima	11.1
2348	7	Sololá	701	Sololá	3	Barraneche	1	Enero	2023-01-13T00:00:00	2024-11-06T05:00:00	5	Humedad	57
2349	7	Sololá	701	Sololá	3	Barraneche	1	Enero	2023-01-13T00:00:00	2024-11-06T05:00:00	6	Velocidad del viento	17.7
2350	7	Sololá	701	Sololá	3	Barraneche	1	Enero	2023-01-13T00:00:00	2024-11-06T05:00:00	7	Dirección del viento	17.7
2351	7	Sololá	701	Sololá	3	Barraneche	1	Enero	2023-01-13T00:00:00	2024-11-06T05:00:00	1	Precipitación	0
2352	7	Sololá	701	Sololá	3	Barraneche	1	Enero	2023-01-13T00:00:00	2024-11-06T05:00:00	8	Radiación solar	0
2353	7	Sololá	701	Sololá	3	Barraneche	1	Enero	2023-01-13T00:00:00	2024-11-06T06:00:00	2	Temperatura media	10.9
2354	7	Sololá	701	Sololá	3	Barraneche	1	Enero	2023-01-13T00:00:00	2024-11-06T06:00:00	4	Temperatura máxima	11.7
2355	7	Sololá	701	Sololá	3	Barraneche	1	Enero	2023-01-13T00:00:00	2024-11-06T06:00:00	3	Temperatura mínima	10.8
2356	7	Sololá	701	Sololá	3	Barraneche	1	Enero	2023-01-13T00:00:00	2024-11-06T06:00:00	5	Humedad	62
2357	7	Sololá	701	Sololá	3	Barraneche	1	Enero	2023-01-13T00:00:00	2024-11-06T06:00:00	6	Velocidad del viento	16.1
2358	7	Sololá	701	Sololá	3	Barraneche	1	Enero	2023-01-13T00:00:00	2024-11-06T06:00:00	7	Dirección del viento	16.09
2359	7	Sololá	701	Sololá	3	Barraneche	1	Enero	2023-01-13T00:00:00	2024-11-06T06:00:00	1	Precipitación	0
2360	7	Sololá	701	Sololá	3	Barraneche	1	Enero	2023-01-13T00:00:00	2024-11-06T06:00:00	8	Radiación solar	0
2361	7	Sololá	701	Sololá	3	Barraneche	1	Enero	2023-01-13T00:00:00	2024-11-06T07:00:00	2	Temperatura media	11.2
2362	7	Sololá	701	Sololá	3	Barraneche	1	Enero	2023-01-13T00:00:00	2024-11-06T07:00:00	4	Temperatura máxima	11.2
2363	7	Sololá	701	Sololá	3	Barraneche	1	Enero	2023-01-13T00:00:00	2024-11-06T07:00:00	3	Temperatura mínima	10.9
2364	7	Sololá	701	Sololá	3	Barraneche	1	Enero	2023-01-13T00:00:00	2024-11-06T07:00:00	5	Humedad	62
2365	7	Sololá	701	Sololá	3	Barraneche	1	Enero	2023-01-13T00:00:00	2024-11-06T07:00:00	6	Velocidad del viento	22.5
2366	7	Sololá	701	Sololá	3	Barraneche	1	Enero	2023-01-13T00:00:00	2024-11-06T07:00:00	7	Dirección del viento	22.53
2367	7	Sololá	701	Sololá	3	Barraneche	1	Enero	2023-01-13T00:00:00	2024-11-06T07:00:00	1	Precipitación	0
2368	7	Sololá	701	Sololá	3	Barraneche	1	Enero	2023-01-13T00:00:00	2024-11-06T07:00:00	8	Radiación solar	5
2369	7	Sololá	701	Sololá	3	Barraneche	1	Enero	2023-01-13T00:00:00	2024-11-06T08:00:00	2	Temperatura media	12.3
2370	7	Sololá	701	Sololá	3	Barraneche	1	Enero	2023-01-13T00:00:00	2024-11-06T08:00:00	4	Temperatura máxima	12.3
2371	7	Sololá	701	Sololá	3	Barraneche	1	Enero	2023-01-13T00:00:00	2024-11-06T08:00:00	3	Temperatura mínima	11.2
2372	7	Sololá	701	Sololá	3	Barraneche	1	Enero	2023-01-13T00:00:00	2024-11-06T08:00:00	5	Humedad	62
2373	7	Sololá	701	Sololá	3	Barraneche	1	Enero	2023-01-13T00:00:00	2024-11-06T08:00:00	6	Velocidad del viento	29
2374	7	Sololá	701	Sololá	3	Barraneche	1	Enero	2023-01-13T00:00:00	2024-11-06T08:00:00	7	Dirección del viento	28.97
2375	7	Sololá	701	Sololá	3	Barraneche	1	Enero	2023-01-13T00:00:00	2024-11-06T08:00:00	1	Precipitación	0
2376	7	Sololá	701	Sololá	3	Barraneche	1	Enero	2023-01-13T00:00:00	2024-11-06T08:00:00	8	Radiación solar	142
2377	7	Sololá	701	Sololá	3	Barraneche	1	Enero	2023-01-13T00:00:00	2024-11-06T09:00:00	2	Temperatura media	13.1
2378	7	Sololá	701	Sololá	3	Barraneche	1	Enero	2023-01-13T00:00:00	2024-11-06T09:00:00	4	Temperatura máxima	13.1
2379	7	Sololá	701	Sololá	3	Barraneche	1	Enero	2023-01-13T00:00:00	2024-11-06T09:00:00	3	Temperatura mínima	12.3
2380	7	Sololá	701	Sololá	3	Barraneche	1	Enero	2023-01-13T00:00:00	2024-11-06T09:00:00	5	Humedad	60
2381	7	Sololá	701	Sololá	3	Barraneche	1	Enero	2023-01-13T00:00:00	2024-11-06T09:00:00	6	Velocidad del viento	30.6
2382	7	Sololá	701	Sololá	3	Barraneche	1	Enero	2023-01-13T00:00:00	2024-11-06T09:00:00	7	Dirección del viento	30.58
2383	7	Sololá	701	Sololá	3	Barraneche	1	Enero	2023-01-13T00:00:00	2024-11-06T09:00:00	1	Precipitación	0
2384	7	Sololá	701	Sololá	3	Barraneche	1	Enero	2023-01-13T00:00:00	2024-11-06T09:00:00	8	Radiación solar	393
2385	7	Sololá	701	Sololá	3	Barraneche	1	Enero	2023-01-13T00:00:00	2024-11-06T10:00:00	2	Temperatura media	13.6
2386	7	Sololá	701	Sololá	3	Barraneche	1	Enero	2023-01-13T00:00:00	2024-11-06T10:00:00	4	Temperatura máxima	14.3
2387	7	Sololá	701	Sololá	3	Barraneche	1	Enero	2023-01-13T00:00:00	2024-11-06T10:00:00	3	Temperatura mínima	13.1
2388	7	Sololá	701	Sololá	3	Barraneche	1	Enero	2023-01-13T00:00:00	2024-11-06T10:00:00	5	Humedad	63
2389	7	Sololá	701	Sololá	3	Barraneche	1	Enero	2023-01-13T00:00:00	2024-11-06T10:00:00	6	Velocidad del viento	30.6
2390	7	Sololá	701	Sololá	3	Barraneche	1	Enero	2023-01-13T00:00:00	2024-11-06T10:00:00	7	Dirección del viento	30.58
2391	7	Sololá	701	Sololá	3	Barraneche	1	Enero	2023-01-13T00:00:00	2024-11-06T10:00:00	1	Precipitación	0
2392	7	Sololá	701	Sololá	3	Barraneche	1	Enero	2023-01-13T00:00:00	2024-11-06T10:00:00	8	Radiación solar	604
2393	7	Sololá	701	Sololá	3	Barraneche	1	Enero	2023-01-13T00:00:00	2024-11-06T11:00:00	2	Temperatura media	13.2
2394	7	Sololá	701	Sololá	3	Barraneche	1	Enero	2023-01-13T00:00:00	2024-11-06T11:00:00	4	Temperatura máxima	13.8
2395	7	Sololá	701	Sololá	3	Barraneche	1	Enero	2023-01-13T00:00:00	2024-11-06T11:00:00	3	Temperatura mínima	13
2396	7	Sololá	701	Sololá	3	Barraneche	1	Enero	2023-01-13T00:00:00	2024-11-06T11:00:00	5	Humedad	64
2397	7	Sololá	701	Sololá	3	Barraneche	1	Enero	2023-01-13T00:00:00	2024-11-06T11:00:00	6	Velocidad del viento	29
2398	7	Sololá	701	Sololá	3	Barraneche	1	Enero	2023-01-13T00:00:00	2024-11-06T11:00:00	7	Dirección del viento	28.97
2399	7	Sololá	701	Sololá	3	Barraneche	1	Enero	2023-01-13T00:00:00	2024-11-06T11:00:00	1	Precipitación	0
2400	7	Sololá	701	Sololá	3	Barraneche	1	Enero	2023-01-13T00:00:00	2024-11-06T11:00:00	8	Radiación solar	761
2401	7	Sololá	701	Sololá	3	Barraneche	1	Enero	2023-01-13T00:00:00	2024-11-06T12:00:00	2	Temperatura media	13.9
2402	7	Sololá	701	Sololá	3	Barraneche	1	Enero	2023-01-13T00:00:00	2024-11-06T12:00:00	4	Temperatura máxima	14.2
2403	7	Sololá	701	Sololá	3	Barraneche	1	Enero	2023-01-13T00:00:00	2024-11-06T12:00:00	3	Temperatura mínima	12.7
2404	7	Sololá	701	Sololá	3	Barraneche	1	Enero	2023-01-13T00:00:00	2024-11-06T12:00:00	5	Humedad	59
2405	7	Sololá	701	Sololá	3	Barraneche	1	Enero	2023-01-13T00:00:00	2024-11-06T12:00:00	6	Velocidad del viento	30.6
2406	7	Sololá	701	Sololá	3	Barraneche	1	Enero	2023-01-13T00:00:00	2024-11-06T12:00:00	7	Dirección del viento	30.58
2407	7	Sololá	701	Sololá	3	Barraneche	1	Enero	2023-01-13T00:00:00	2024-11-06T12:00:00	1	Precipitación	0
2408	7	Sololá	701	Sololá	3	Barraneche	1	Enero	2023-01-13T00:00:00	2024-11-06T12:00:00	8	Radiación solar	868
2409	7	Sololá	701	Sololá	3	Barraneche	1	Enero	2023-01-13T00:00:00	2024-11-06T13:00:00	2	Temperatura media	15.1
2410	7	Sololá	701	Sololá	3	Barraneche	1	Enero	2023-01-13T00:00:00	2024-11-06T13:00:00	4	Temperatura máxima	15.3
2411	7	Sololá	701	Sololá	3	Barraneche	1	Enero	2023-01-13T00:00:00	2024-11-06T13:00:00	3	Temperatura mínima	13.6
2412	7	Sololá	701	Sololá	3	Barraneche	1	Enero	2023-01-13T00:00:00	2024-11-06T13:00:00	5	Humedad	56
2413	7	Sololá	701	Sololá	3	Barraneche	1	Enero	2023-01-13T00:00:00	2024-11-06T13:00:00	6	Velocidad del viento	27.4
2414	7	Sololá	701	Sololá	3	Barraneche	1	Enero	2023-01-13T00:00:00	2024-11-06T13:00:00	7	Dirección del viento	27.36
2415	7	Sololá	701	Sololá	3	Barraneche	1	Enero	2023-01-13T00:00:00	2024-11-06T13:00:00	1	Precipitación	0
2416	7	Sololá	701	Sololá	3	Barraneche	1	Enero	2023-01-13T00:00:00	2024-11-06T13:00:00	8	Radiación solar	868
2417	7	Sololá	701	Sololá	3	Barraneche	1	Enero	2023-01-13T00:00:00	2024-11-06T14:00:00	2	Temperatura media	15.4
2418	7	Sololá	701	Sololá	3	Barraneche	1	Enero	2023-01-13T00:00:00	2024-11-06T14:00:00	4	Temperatura máxima	15.6
2419	7	Sololá	701	Sololá	3	Barraneche	1	Enero	2023-01-13T00:00:00	2024-11-06T14:00:00	3	Temperatura mínima	14.6
2420	7	Sololá	701	Sololá	3	Barraneche	1	Enero	2023-01-13T00:00:00	2024-11-06T14:00:00	5	Humedad	52
2421	7	Sololá	701	Sololá	3	Barraneche	1	Enero	2023-01-13T00:00:00	2024-11-06T14:00:00	6	Velocidad del viento	24.1
2422	7	Sololá	701	Sololá	3	Barraneche	1	Enero	2023-01-13T00:00:00	2024-11-06T14:00:00	7	Dirección del viento	24.14
2423	7	Sololá	701	Sololá	3	Barraneche	1	Enero	2023-01-13T00:00:00	2024-11-06T14:00:00	1	Precipitación	0
2424	7	Sololá	701	Sololá	3	Barraneche	1	Enero	2023-01-13T00:00:00	2024-11-06T14:00:00	8	Radiación solar	823
2425	7	Sololá	701	Sololá	3	Barraneche	1	Enero	2023-01-13T00:00:00	2024-11-06T15:00:00	2	Temperatura media	15.5
2426	7	Sololá	701	Sololá	3	Barraneche	1	Enero	2023-01-13T00:00:00	2024-11-06T15:00:00	4	Temperatura máxima	16.1
2427	7	Sololá	701	Sololá	3	Barraneche	1	Enero	2023-01-13T00:00:00	2024-11-06T15:00:00	3	Temperatura mínima	15.2
2428	7	Sololá	701	Sololá	3	Barraneche	1	Enero	2023-01-13T00:00:00	2024-11-06T15:00:00	5	Humedad	53
2429	7	Sololá	701	Sololá	3	Barraneche	1	Enero	2023-01-13T00:00:00	2024-11-06T15:00:00	6	Velocidad del viento	19.3
2430	7	Sololá	701	Sololá	3	Barraneche	1	Enero	2023-01-13T00:00:00	2024-11-06T15:00:00	7	Dirección del viento	19.31
2431	7	Sololá	701	Sololá	3	Barraneche	1	Enero	2023-01-13T00:00:00	2024-11-06T15:00:00	1	Precipitación	0
2432	7	Sololá	701	Sololá	3	Barraneche	1	Enero	2023-01-13T00:00:00	2024-11-06T15:00:00	8	Radiación solar	688
2433	7	Sololá	701	Sololá	3	Barraneche	1	Enero	2023-01-13T00:00:00	2024-11-06T16:00:00	2	Temperatura media	13.8
2434	7	Sololá	701	Sololá	3	Barraneche	1	Enero	2023-01-13T00:00:00	2024-11-06T16:00:00	4	Temperatura máxima	15.5
2435	7	Sololá	701	Sololá	3	Barraneche	1	Enero	2023-01-13T00:00:00	2024-11-06T16:00:00	3	Temperatura mínima	13.8
2436	7	Sololá	701	Sololá	3	Barraneche	1	Enero	2023-01-13T00:00:00	2024-11-06T16:00:00	5	Humedad	58
2437	7	Sololá	701	Sololá	3	Barraneche	1	Enero	2023-01-13T00:00:00	2024-11-06T16:00:00	6	Velocidad del viento	16.1
2438	7	Sololá	701	Sololá	3	Barraneche	1	Enero	2023-01-13T00:00:00	2024-11-06T16:00:00	7	Dirección del viento	16.09
2439	7	Sololá	701	Sololá	3	Barraneche	1	Enero	2023-01-13T00:00:00	2024-11-06T16:00:00	1	Precipitación	0
2440	7	Sololá	701	Sololá	3	Barraneche	1	Enero	2023-01-13T00:00:00	2024-11-06T16:00:00	8	Radiación solar	222
2441	7	Sololá	701	Sololá	3	Barraneche	1	Enero	2023-01-13T00:00:00	2024-11-06T17:00:00	2	Temperatura media	11.6
2442	7	Sololá	701	Sololá	3	Barraneche	1	Enero	2023-01-13T00:00:00	2024-11-06T17:00:00	4	Temperatura máxima	13.8
2443	7	Sololá	701	Sololá	3	Barraneche	1	Enero	2023-01-13T00:00:00	2024-11-06T17:00:00	3	Temperatura mínima	11.6
2444	7	Sololá	701	Sololá	3	Barraneche	1	Enero	2023-01-13T00:00:00	2024-11-06T17:00:00	5	Humedad	68
2445	7	Sololá	701	Sololá	3	Barraneche	1	Enero	2023-01-13T00:00:00	2024-11-06T17:00:00	6	Velocidad del viento	14.5
2446	7	Sololá	701	Sololá	3	Barraneche	1	Enero	2023-01-13T00:00:00	2024-11-06T17:00:00	7	Dirección del viento	14.48
2447	7	Sololá	701	Sololá	3	Barraneche	1	Enero	2023-01-13T00:00:00	2024-11-06T17:00:00	1	Precipitación	0
2448	7	Sololá	701	Sololá	3	Barraneche	1	Enero	2023-01-13T00:00:00	2024-11-06T17:00:00	8	Radiación solar	74
2449	7	Sololá	701	Sololá	3	Barraneche	1	Enero	2023-01-13T00:00:00	2024-11-06T18:00:00	2	Temperatura media	11.3
2450	7	Sololá	701	Sololá	3	Barraneche	1	Enero	2023-01-13T00:00:00	2024-11-06T18:00:00	4	Temperatura máxima	11.6
2451	7	Sololá	701	Sololá	3	Barraneche	1	Enero	2023-01-13T00:00:00	2024-11-06T18:00:00	3	Temperatura mínima	11.3
2452	7	Sololá	701	Sololá	3	Barraneche	1	Enero	2023-01-13T00:00:00	2024-11-06T18:00:00	5	Humedad	67
2453	7	Sololá	701	Sololá	3	Barraneche	1	Enero	2023-01-13T00:00:00	2024-11-06T18:00:00	6	Velocidad del viento	20.9
2454	7	Sololá	701	Sololá	3	Barraneche	1	Enero	2023-01-13T00:00:00	2024-11-06T18:00:00	7	Dirección del viento	20.92
2455	7	Sololá	701	Sololá	3	Barraneche	1	Enero	2023-01-13T00:00:00	2024-11-06T18:00:00	1	Precipitación	0
2456	7	Sololá	701	Sololá	3	Barraneche	1	Enero	2023-01-13T00:00:00	2024-11-06T18:00:00	8	Radiación solar	19
2457	7	Sololá	701	Sololá	3	Barraneche	1	Enero	2023-01-13T00:00:00	2024-11-06T19:00:00	2	Temperatura media	11.3
2458	7	Sololá	701	Sololá	3	Barraneche	1	Enero	2023-01-13T00:00:00	2024-11-06T19:00:00	4	Temperatura máxima	11.4
2459	7	Sololá	701	Sololá	3	Barraneche	1	Enero	2023-01-13T00:00:00	2024-11-06T19:00:00	3	Temperatura mínima	10.9
2460	7	Sololá	701	Sololá	3	Barraneche	1	Enero	2023-01-13T00:00:00	2024-11-06T19:00:00	5	Humedad	64
2461	7	Sololá	701	Sololá	3	Barraneche	1	Enero	2023-01-13T00:00:00	2024-11-06T19:00:00	6	Velocidad del viento	30.6
2462	7	Sololá	701	Sololá	3	Barraneche	1	Enero	2023-01-13T00:00:00	2024-11-06T19:00:00	7	Dirección del viento	30.58
2463	7	Sololá	701	Sololá	3	Barraneche	1	Enero	2023-01-13T00:00:00	2024-11-06T19:00:00	1	Precipitación	0
2464	7	Sololá	701	Sololá	3	Barraneche	1	Enero	2023-01-13T00:00:00	2024-11-06T19:00:00	8	Radiación solar	0
2465	7	Sololá	701	Sololá	3	Barraneche	1	Enero	2023-01-13T00:00:00	2024-11-06T20:00:00	2	Temperatura media	11.1
2466	7	Sololá	701	Sololá	3	Barraneche	1	Enero	2023-01-13T00:00:00	2024-11-06T20:00:00	4	Temperatura máxima	11.4
2467	7	Sololá	701	Sololá	3	Barraneche	1	Enero	2023-01-13T00:00:00	2024-11-06T20:00:00	3	Temperatura mínima	11.1
2468	7	Sololá	701	Sololá	3	Barraneche	1	Enero	2023-01-13T00:00:00	2024-11-06T20:00:00	5	Humedad	66
2469	7	Sololá	701	Sololá	3	Barraneche	1	Enero	2023-01-13T00:00:00	2024-11-06T20:00:00	6	Velocidad del viento	37
2470	7	Sololá	701	Sololá	3	Barraneche	1	Enero	2023-01-13T00:00:00	2024-11-06T20:00:00	7	Dirección del viento	37.01
2471	7	Sololá	701	Sololá	3	Barraneche	1	Enero	2023-01-13T00:00:00	2024-11-06T20:00:00	1	Precipitación	0
2472	7	Sololá	701	Sololá	3	Barraneche	1	Enero	2023-01-13T00:00:00	2024-11-06T20:00:00	8	Radiación solar	0
2473	7	Sololá	701	Sololá	3	Barraneche	1	Enero	2023-01-13T00:00:00	2024-11-06T21:00:00	2	Temperatura media	10.3
2474	7	Sololá	701	Sololá	3	Barraneche	1	Enero	2023-01-13T00:00:00	2024-11-06T21:00:00	4	Temperatura máxima	11.1
2475	7	Sololá	701	Sololá	3	Barraneche	1	Enero	2023-01-13T00:00:00	2024-11-06T21:00:00	3	Temperatura mínima	10.2
2476	7	Sololá	701	Sololá	3	Barraneche	1	Enero	2023-01-13T00:00:00	2024-11-06T21:00:00	5	Humedad	66
2477	7	Sololá	701	Sololá	3	Barraneche	1	Enero	2023-01-13T00:00:00	2024-11-06T21:00:00	6	Velocidad del viento	33.8
2478	7	Sololá	701	Sololá	3	Barraneche	1	Enero	2023-01-13T00:00:00	2024-11-06T21:00:00	7	Dirección del viento	33.8
2479	7	Sololá	701	Sololá	3	Barraneche	1	Enero	2023-01-13T00:00:00	2024-11-06T21:00:00	1	Precipitación	0
2480	7	Sololá	701	Sololá	3	Barraneche	1	Enero	2023-01-13T00:00:00	2024-11-06T21:00:00	8	Radiación solar	0
2481	7	Sololá	701	Sololá	3	Barraneche	1	Enero	2023-01-13T00:00:00	2024-11-06T22:00:00	2	Temperatura media	10.1
2482	7	Sololá	701	Sololá	3	Barraneche	1	Enero	2023-01-13T00:00:00	2024-11-06T22:00:00	4	Temperatura máxima	10.3
2483	7	Sololá	701	Sololá	3	Barraneche	1	Enero	2023-01-13T00:00:00	2024-11-06T22:00:00	3	Temperatura mínima	10.1
2484	7	Sololá	701	Sololá	3	Barraneche	1	Enero	2023-01-13T00:00:00	2024-11-06T22:00:00	5	Humedad	66
2485	7	Sololá	701	Sololá	3	Barraneche	1	Enero	2023-01-13T00:00:00	2024-11-06T22:00:00	6	Velocidad del viento	35.4
2486	7	Sololá	701	Sololá	3	Barraneche	1	Enero	2023-01-13T00:00:00	2024-11-06T22:00:00	7	Dirección del viento	35.41
2487	7	Sololá	701	Sololá	3	Barraneche	1	Enero	2023-01-13T00:00:00	2024-11-06T22:00:00	1	Precipitación	0
2488	7	Sololá	701	Sololá	3	Barraneche	1	Enero	2023-01-13T00:00:00	2024-11-06T22:00:00	8	Radiación solar	0
2489	7	Sololá	701	Sololá	3	Barraneche	1	Enero	2023-01-13T00:00:00	2024-11-06T23:00:00	2	Temperatura media	10.3
2490	7	Sololá	701	Sololá	3	Barraneche	1	Enero	2023-01-13T00:00:00	2024-11-06T23:00:00	4	Temperatura máxima	10.6
2491	7	Sololá	701	Sololá	3	Barraneche	1	Enero	2023-01-13T00:00:00	2024-11-06T23:00:00	3	Temperatura mínima	10.1
2492	7	Sololá	701	Sololá	3	Barraneche	1	Enero	2023-01-13T00:00:00	2024-11-06T23:00:00	5	Humedad	64
2493	7	Sololá	701	Sololá	3	Barraneche	1	Enero	2023-01-13T00:00:00	2024-11-06T23:00:00	6	Velocidad del viento	32.2
2494	7	Sololá	701	Sololá	3	Barraneche	1	Enero	2023-01-13T00:00:00	2024-11-06T23:00:00	7	Dirección del viento	32.19
2495	7	Sololá	701	Sololá	3	Barraneche	1	Enero	2023-01-13T00:00:00	2024-11-06T23:00:00	1	Precipitación	0
2496	7	Sololá	701	Sololá	3	Barraneche	1	Enero	2023-01-13T00:00:00	2024-11-06T23:00:00	8	Radiación solar	0
2497	7	Sololá	701	Sololá	3	Barraneche	1	Enero	2023-01-14T00:00:00	2024-11-06T00:00:00	2	Temperatura media	10.4
2498	7	Sololá	701	Sololá	3	Barraneche	1	Enero	2023-01-14T00:00:00	2024-11-06T00:00:00	4	Temperatura máxima	10.9
2499	7	Sololá	701	Sololá	3	Barraneche	1	Enero	2023-01-14T00:00:00	2024-11-06T00:00:00	3	Temperatura mínima	10.3
2500	7	Sololá	701	Sololá	3	Barraneche	1	Enero	2023-01-14T00:00:00	2024-11-06T00:00:00	5	Humedad	64
2501	7	Sololá	701	Sololá	3	Barraneche	1	Enero	2023-01-14T00:00:00	2024-11-06T00:00:00	6	Velocidad del viento	32.2
2502	7	Sololá	701	Sololá	3	Barraneche	1	Enero	2023-01-14T00:00:00	2024-11-06T00:00:00	7	Dirección del viento	32.19
2503	7	Sololá	701	Sololá	3	Barraneche	1	Enero	2023-01-14T00:00:00	2024-11-06T00:00:00	1	Precipitación	0
2504	7	Sololá	701	Sololá	3	Barraneche	1	Enero	2023-01-14T00:00:00	2024-11-06T00:00:00	8	Radiación solar	0
2505	7	Sololá	701	Sololá	3	Barraneche	1	Enero	2023-01-14T00:00:00	2024-11-06T01:00:00	2	Temperatura media	10.3
2506	7	Sololá	701	Sololá	3	Barraneche	1	Enero	2023-01-14T00:00:00	2024-11-06T01:00:00	4	Temperatura máxima	10.4
2507	7	Sololá	701	Sololá	3	Barraneche	1	Enero	2023-01-14T00:00:00	2024-11-06T01:00:00	3	Temperatura mínima	10.1
2508	7	Sololá	701	Sololá	3	Barraneche	1	Enero	2023-01-14T00:00:00	2024-11-06T01:00:00	5	Humedad	65
2509	7	Sololá	701	Sololá	3	Barraneche	1	Enero	2023-01-14T00:00:00	2024-11-06T01:00:00	6	Velocidad del viento	33.8
2510	7	Sololá	701	Sololá	3	Barraneche	1	Enero	2023-01-14T00:00:00	2024-11-06T01:00:00	7	Dirección del viento	33.8
2511	7	Sololá	701	Sololá	3	Barraneche	1	Enero	2023-01-14T00:00:00	2024-11-06T01:00:00	1	Precipitación	0
2512	7	Sololá	701	Sololá	3	Barraneche	1	Enero	2023-01-14T00:00:00	2024-11-06T01:00:00	8	Radiación solar	0
2513	7	Sololá	701	Sololá	3	Barraneche	1	Enero	2023-01-14T00:00:00	2024-11-06T02:00:00	2	Temperatura media	9.9
2514	7	Sololá	701	Sololá	3	Barraneche	1	Enero	2023-01-14T00:00:00	2024-11-06T02:00:00	4	Temperatura máxima	10.3
2515	7	Sololá	701	Sololá	3	Barraneche	1	Enero	2023-01-14T00:00:00	2024-11-06T02:00:00	3	Temperatura mínima	9.8
2516	7	Sololá	701	Sololá	3	Barraneche	1	Enero	2023-01-14T00:00:00	2024-11-06T02:00:00	5	Humedad	65
2517	7	Sololá	701	Sololá	3	Barraneche	1	Enero	2023-01-14T00:00:00	2024-11-06T02:00:00	6	Velocidad del viento	32.2
2518	7	Sololá	701	Sololá	3	Barraneche	1	Enero	2023-01-14T00:00:00	2024-11-06T02:00:00	7	Dirección del viento	32.19
2519	7	Sololá	701	Sololá	3	Barraneche	1	Enero	2023-01-14T00:00:00	2024-11-06T02:00:00	1	Precipitación	0
2520	7	Sololá	701	Sololá	3	Barraneche	1	Enero	2023-01-14T00:00:00	2024-11-06T02:00:00	8	Radiación solar	0
2521	7	Sololá	701	Sololá	3	Barraneche	1	Enero	2023-01-14T00:00:00	2024-11-06T03:00:00	2	Temperatura media	9.9
2522	7	Sololá	701	Sololá	3	Barraneche	1	Enero	2023-01-14T00:00:00	2024-11-06T03:00:00	4	Temperatura máxima	10.1
2523	7	Sololá	701	Sololá	3	Barraneche	1	Enero	2023-01-14T00:00:00	2024-11-06T03:00:00	3	Temperatura mínima	9.8
2524	7	Sololá	701	Sololá	3	Barraneche	1	Enero	2023-01-14T00:00:00	2024-11-06T03:00:00	5	Humedad	62
2525	7	Sololá	701	Sololá	3	Barraneche	1	Enero	2023-01-14T00:00:00	2024-11-06T03:00:00	6	Velocidad del viento	35.4
2526	7	Sololá	701	Sololá	3	Barraneche	1	Enero	2023-01-14T00:00:00	2024-11-06T03:00:00	7	Dirección del viento	35.41
2527	7	Sololá	701	Sololá	3	Barraneche	1	Enero	2023-01-14T00:00:00	2024-11-06T03:00:00	1	Precipitación	0
2528	7	Sololá	701	Sololá	3	Barraneche	1	Enero	2023-01-14T00:00:00	2024-11-06T03:00:00	8	Radiación solar	0
2529	7	Sololá	701	Sololá	3	Barraneche	1	Enero	2023-01-14T00:00:00	2024-11-06T04:00:00	2	Temperatura media	9.8
2530	7	Sololá	701	Sololá	3	Barraneche	1	Enero	2023-01-14T00:00:00	2024-11-06T04:00:00	4	Temperatura máxima	9.9
2531	7	Sololá	701	Sololá	3	Barraneche	1	Enero	2023-01-14T00:00:00	2024-11-06T04:00:00	3	Temperatura mínima	9.5
2532	7	Sololá	701	Sololá	3	Barraneche	1	Enero	2023-01-14T00:00:00	2024-11-06T04:00:00	5	Humedad	64
2533	7	Sololá	701	Sololá	3	Barraneche	1	Enero	2023-01-14T00:00:00	2024-11-06T04:00:00	6	Velocidad del viento	35.4
2534	7	Sololá	701	Sololá	3	Barraneche	1	Enero	2023-01-14T00:00:00	2024-11-06T04:00:00	7	Dirección del viento	35.41
2535	7	Sololá	701	Sololá	3	Barraneche	1	Enero	2023-01-14T00:00:00	2024-11-06T04:00:00	1	Precipitación	0
2536	7	Sololá	701	Sololá	3	Barraneche	1	Enero	2023-01-14T00:00:00	2024-11-06T04:00:00	8	Radiación solar	0
2537	7	Sololá	701	Sololá	3	Barraneche	1	Enero	2023-01-14T00:00:00	2024-11-06T05:00:00	2	Temperatura media	9.9
2538	7	Sololá	701	Sololá	3	Barraneche	1	Enero	2023-01-14T00:00:00	2024-11-06T05:00:00	4	Temperatura máxima	9.9
2539	7	Sololá	701	Sololá	3	Barraneche	1	Enero	2023-01-14T00:00:00	2024-11-06T05:00:00	3	Temperatura mínima	9.7
2540	7	Sololá	701	Sololá	3	Barraneche	1	Enero	2023-01-14T00:00:00	2024-11-06T05:00:00	5	Humedad	64
2541	7	Sololá	701	Sololá	3	Barraneche	1	Enero	2023-01-14T00:00:00	2024-11-06T05:00:00	6	Velocidad del viento	30.6
2542	7	Sololá	701	Sololá	3	Barraneche	1	Enero	2023-01-14T00:00:00	2024-11-06T05:00:00	7	Dirección del viento	30.58
2543	7	Sololá	701	Sololá	3	Barraneche	1	Enero	2023-01-14T00:00:00	2024-11-06T05:00:00	1	Precipitación	0
2544	7	Sololá	701	Sololá	3	Barraneche	1	Enero	2023-01-14T00:00:00	2024-11-06T05:00:00	8	Radiación solar	0
2545	7	Sololá	701	Sololá	3	Barraneche	1	Enero	2023-01-14T00:00:00	2024-11-06T06:00:00	2	Temperatura media	9.9
2546	7	Sololá	701	Sololá	3	Barraneche	1	Enero	2023-01-14T00:00:00	2024-11-06T06:00:00	4	Temperatura máxima	10.1
2547	7	Sololá	701	Sololá	3	Barraneche	1	Enero	2023-01-14T00:00:00	2024-11-06T06:00:00	3	Temperatura mínima	9.8
2548	7	Sololá	701	Sololá	3	Barraneche	1	Enero	2023-01-14T00:00:00	2024-11-06T06:00:00	5	Humedad	64
2549	7	Sololá	701	Sololá	3	Barraneche	1	Enero	2023-01-14T00:00:00	2024-11-06T06:00:00	6	Velocidad del viento	24.1
2550	7	Sololá	701	Sololá	3	Barraneche	1	Enero	2023-01-14T00:00:00	2024-11-06T06:00:00	7	Dirección del viento	24.14
2551	7	Sololá	701	Sololá	3	Barraneche	1	Enero	2023-01-14T00:00:00	2024-11-06T06:00:00	1	Precipitación	0
2552	7	Sololá	701	Sololá	3	Barraneche	1	Enero	2023-01-14T00:00:00	2024-11-06T06:00:00	8	Radiación solar	0
2553	7	Sololá	701	Sololá	3	Barraneche	1	Enero	2023-01-14T00:00:00	2024-11-06T07:00:00	2	Temperatura media	9.4
2554	7	Sololá	701	Sololá	3	Barraneche	1	Enero	2023-01-14T00:00:00	2024-11-06T07:00:00	4	Temperatura máxima	10
2555	7	Sololá	701	Sololá	3	Barraneche	1	Enero	2023-01-14T00:00:00	2024-11-06T07:00:00	3	Temperatura mínima	9.4
2556	7	Sololá	701	Sololá	3	Barraneche	1	Enero	2023-01-14T00:00:00	2024-11-06T07:00:00	5	Humedad	65
2557	7	Sololá	701	Sololá	3	Barraneche	1	Enero	2023-01-14T00:00:00	2024-11-06T07:00:00	6	Velocidad del viento	22.5
2558	7	Sololá	701	Sololá	3	Barraneche	1	Enero	2023-01-14T00:00:00	2024-11-06T07:00:00	7	Dirección del viento	22.53
2559	7	Sololá	701	Sololá	3	Barraneche	1	Enero	2023-01-14T00:00:00	2024-11-06T07:00:00	1	Precipitación	0
2560	7	Sololá	701	Sololá	3	Barraneche	1	Enero	2023-01-14T00:00:00	2024-11-06T07:00:00	8	Radiación solar	5
2561	7	Sololá	701	Sololá	3	Barraneche	1	Enero	2023-01-14T00:00:00	2024-11-06T08:00:00	2	Temperatura media	11.7
2562	7	Sololá	701	Sololá	3	Barraneche	1	Enero	2023-01-14T00:00:00	2024-11-06T08:00:00	4	Temperatura máxima	11.7
2563	7	Sololá	701	Sololá	3	Barraneche	1	Enero	2023-01-14T00:00:00	2024-11-06T08:00:00	3	Temperatura mínima	9.4
2564	7	Sololá	701	Sololá	3	Barraneche	1	Enero	2023-01-14T00:00:00	2024-11-06T08:00:00	5	Humedad	57
2565	7	Sololá	701	Sololá	3	Barraneche	1	Enero	2023-01-14T00:00:00	2024-11-06T08:00:00	6	Velocidad del viento	19.3
2566	7	Sololá	701	Sololá	3	Barraneche	1	Enero	2023-01-14T00:00:00	2024-11-06T08:00:00	7	Dirección del viento	19.31
2567	7	Sololá	701	Sololá	3	Barraneche	1	Enero	2023-01-14T00:00:00	2024-11-06T08:00:00	1	Precipitación	0
2568	7	Sololá	701	Sololá	3	Barraneche	1	Enero	2023-01-14T00:00:00	2024-11-06T08:00:00	8	Radiación solar	143
2569	7	Sololá	701	Sololá	3	Barraneche	1	Enero	2023-01-14T00:00:00	2024-11-06T09:00:00	2	Temperatura media	13.9
2570	7	Sololá	701	Sololá	3	Barraneche	1	Enero	2023-01-14T00:00:00	2024-11-06T09:00:00	4	Temperatura máxima	13.9
2571	7	Sololá	701	Sololá	3	Barraneche	1	Enero	2023-01-14T00:00:00	2024-11-06T09:00:00	3	Temperatura mínima	11.6
2572	7	Sololá	701	Sololá	3	Barraneche	1	Enero	2023-01-14T00:00:00	2024-11-06T09:00:00	5	Humedad	50
2573	7	Sololá	701	Sololá	3	Barraneche	1	Enero	2023-01-14T00:00:00	2024-11-06T09:00:00	6	Velocidad del viento	12.9
2574	7	Sololá	701	Sololá	3	Barraneche	1	Enero	2023-01-14T00:00:00	2024-11-06T09:00:00	7	Dirección del viento	12.87
2575	7	Sololá	701	Sololá	3	Barraneche	1	Enero	2023-01-14T00:00:00	2024-11-06T09:00:00	1	Precipitación	0
2576	7	Sololá	701	Sololá	3	Barraneche	1	Enero	2023-01-14T00:00:00	2024-11-06T09:00:00	8	Radiación solar	393
2577	7	Sololá	701	Sololá	3	Barraneche	1	Enero	2023-01-14T00:00:00	2024-11-06T10:00:00	2	Temperatura media	14.9
2578	7	Sololá	701	Sololá	3	Barraneche	1	Enero	2023-01-14T00:00:00	2024-11-06T10:00:00	4	Temperatura máxima	15.3
2579	7	Sololá	701	Sololá	3	Barraneche	1	Enero	2023-01-14T00:00:00	2024-11-06T10:00:00	3	Temperatura mínima	13.8
2580	7	Sololá	701	Sololá	3	Barraneche	1	Enero	2023-01-14T00:00:00	2024-11-06T10:00:00	5	Humedad	46
2581	7	Sololá	701	Sololá	3	Barraneche	1	Enero	2023-01-14T00:00:00	2024-11-06T10:00:00	6	Velocidad del viento	16.1
2582	7	Sololá	701	Sololá	3	Barraneche	1	Enero	2023-01-14T00:00:00	2024-11-06T10:00:00	7	Dirección del viento	16.09
2583	7	Sololá	701	Sololá	3	Barraneche	1	Enero	2023-01-14T00:00:00	2024-11-06T10:00:00	1	Precipitación	0
2584	7	Sololá	701	Sololá	3	Barraneche	1	Enero	2023-01-14T00:00:00	2024-11-06T10:00:00	8	Radiación solar	603
2585	7	Sololá	701	Sololá	3	Barraneche	1	Enero	2023-01-14T00:00:00	2024-11-06T11:00:00	2	Temperatura media	16.1
2586	7	Sololá	701	Sololá	3	Barraneche	1	Enero	2023-01-14T00:00:00	2024-11-06T11:00:00	4	Temperatura máxima	16.1
2587	7	Sololá	701	Sololá	3	Barraneche	1	Enero	2023-01-14T00:00:00	2024-11-06T11:00:00	3	Temperatura mínima	14.9
2588	7	Sololá	701	Sololá	3	Barraneche	1	Enero	2023-01-14T00:00:00	2024-11-06T11:00:00	5	Humedad	31
2589	7	Sololá	701	Sololá	3	Barraneche	1	Enero	2023-01-14T00:00:00	2024-11-06T11:00:00	6	Velocidad del viento	19.3
2590	7	Sololá	701	Sololá	3	Barraneche	1	Enero	2023-01-14T00:00:00	2024-11-06T11:00:00	7	Dirección del viento	19.31
2591	7	Sololá	701	Sololá	3	Barraneche	1	Enero	2023-01-14T00:00:00	2024-11-06T11:00:00	1	Precipitación	0
2592	7	Sololá	701	Sololá	3	Barraneche	1	Enero	2023-01-14T00:00:00	2024-11-06T11:00:00	8	Radiación solar	760
2593	7	Sololá	701	Sololá	3	Barraneche	1	Enero	2023-01-14T00:00:00	2024-11-06T12:00:00	2	Temperatura media	16.7
2594	7	Sololá	701	Sololá	3	Barraneche	1	Enero	2023-01-14T00:00:00	2024-11-06T12:00:00	4	Temperatura máxima	17.5
2595	7	Sololá	701	Sololá	3	Barraneche	1	Enero	2023-01-14T00:00:00	2024-11-06T12:00:00	3	Temperatura mínima	16.1
2596	7	Sololá	701	Sololá	3	Barraneche	1	Enero	2023-01-14T00:00:00	2024-11-06T12:00:00	5	Humedad	26
2597	7	Sololá	701	Sololá	3	Barraneche	1	Enero	2023-01-14T00:00:00	2024-11-06T12:00:00	6	Velocidad del viento	19.3
2598	7	Sololá	701	Sololá	3	Barraneche	1	Enero	2023-01-14T00:00:00	2024-11-06T12:00:00	7	Dirección del viento	19.31
2599	7	Sololá	701	Sololá	3	Barraneche	1	Enero	2023-01-14T00:00:00	2024-11-06T12:00:00	1	Precipitación	0
2600	7	Sololá	701	Sololá	3	Barraneche	1	Enero	2023-01-14T00:00:00	2024-11-06T12:00:00	8	Radiación solar	854
2601	7	Sololá	701	Sololá	3	Barraneche	1	Enero	2023-01-14T00:00:00	2024-11-06T13:00:00	2	Temperatura media	17.1
2602	7	Sololá	701	Sololá	3	Barraneche	1	Enero	2023-01-14T00:00:00	2024-11-06T13:00:00	4	Temperatura máxima	17.7
2603	7	Sololá	701	Sololá	3	Barraneche	1	Enero	2023-01-14T00:00:00	2024-11-06T13:00:00	3	Temperatura mínima	16.7
2604	7	Sololá	701	Sololá	3	Barraneche	1	Enero	2023-01-14T00:00:00	2024-11-06T13:00:00	5	Humedad	27
2605	7	Sololá	701	Sololá	3	Barraneche	1	Enero	2023-01-14T00:00:00	2024-11-06T13:00:00	6	Velocidad del viento	19.3
2606	7	Sololá	701	Sololá	3	Barraneche	1	Enero	2023-01-14T00:00:00	2024-11-06T13:00:00	7	Dirección del viento	19.31
2607	7	Sololá	701	Sololá	3	Barraneche	1	Enero	2023-01-14T00:00:00	2024-11-06T13:00:00	1	Precipitación	0
2608	7	Sololá	701	Sololá	3	Barraneche	1	Enero	2023-01-14T00:00:00	2024-11-06T13:00:00	8	Radiación solar	867
2609	7	Sololá	701	Sololá	3	Barraneche	1	Enero	2023-01-14T00:00:00	2024-11-06T14:00:00	2	Temperatura media	17.2
2610	7	Sololá	701	Sololá	3	Barraneche	1	Enero	2023-01-14T00:00:00	2024-11-06T14:00:00	4	Temperatura máxima	17.4
2611	7	Sololá	701	Sololá	3	Barraneche	1	Enero	2023-01-14T00:00:00	2024-11-06T14:00:00	3	Temperatura mínima	16.8
2612	7	Sololá	701	Sololá	3	Barraneche	1	Enero	2023-01-14T00:00:00	2024-11-06T14:00:00	5	Humedad	35
2613	7	Sololá	701	Sololá	3	Barraneche	1	Enero	2023-01-14T00:00:00	2024-11-06T14:00:00	6	Velocidad del viento	19.3
2614	7	Sololá	701	Sololá	3	Barraneche	1	Enero	2023-01-14T00:00:00	2024-11-06T14:00:00	7	Dirección del viento	19.31
2615	7	Sololá	701	Sololá	3	Barraneche	1	Enero	2023-01-14T00:00:00	2024-11-06T14:00:00	1	Precipitación	0
2616	7	Sololá	701	Sololá	3	Barraneche	1	Enero	2023-01-14T00:00:00	2024-11-06T14:00:00	8	Radiación solar	802
2617	7	Sololá	701	Sololá	3	Barraneche	1	Enero	2023-01-14T00:00:00	2024-11-06T15:00:00	2	Temperatura media	16.7
2618	7	Sololá	701	Sololá	3	Barraneche	1	Enero	2023-01-14T00:00:00	2024-11-06T15:00:00	4	Temperatura máxima	17.4
2619	7	Sololá	701	Sololá	3	Barraneche	1	Enero	2023-01-14T00:00:00	2024-11-06T15:00:00	3	Temperatura mínima	16.6
2620	7	Sololá	701	Sololá	3	Barraneche	1	Enero	2023-01-14T00:00:00	2024-11-06T15:00:00	5	Humedad	36
2621	7	Sololá	701	Sololá	3	Barraneche	1	Enero	2023-01-14T00:00:00	2024-11-06T15:00:00	6	Velocidad del viento	16.1
2622	7	Sololá	701	Sololá	3	Barraneche	1	Enero	2023-01-14T00:00:00	2024-11-06T15:00:00	7	Dirección del viento	16.09
2623	7	Sololá	701	Sololá	3	Barraneche	1	Enero	2023-01-14T00:00:00	2024-11-06T15:00:00	1	Precipitación	0
2624	7	Sololá	701	Sololá	3	Barraneche	1	Enero	2023-01-14T00:00:00	2024-11-06T15:00:00	8	Radiación solar	664
2625	7	Sololá	701	Sololá	3	Barraneche	1	Enero	2023-01-14T00:00:00	2024-11-06T16:00:00	2	Temperatura media	16.2
2626	7	Sololá	701	Sololá	3	Barraneche	1	Enero	2023-01-14T00:00:00	2024-11-06T16:00:00	4	Temperatura máxima	16.7
2627	7	Sololá	701	Sololá	3	Barraneche	1	Enero	2023-01-14T00:00:00	2024-11-06T16:00:00	3	Temperatura mínima	16.2
2628	7	Sololá	701	Sololá	3	Barraneche	1	Enero	2023-01-14T00:00:00	2024-11-06T16:00:00	5	Humedad	35
2629	7	Sololá	701	Sololá	3	Barraneche	1	Enero	2023-01-14T00:00:00	2024-11-06T16:00:00	6	Velocidad del viento	14.5
2630	7	Sololá	701	Sololá	3	Barraneche	1	Enero	2023-01-14T00:00:00	2024-11-06T16:00:00	7	Dirección del viento	14.48
2631	7	Sololá	701	Sololá	3	Barraneche	1	Enero	2023-01-14T00:00:00	2024-11-06T16:00:00	1	Precipitación	0
2632	7	Sololá	701	Sololá	3	Barraneche	1	Enero	2023-01-14T00:00:00	2024-11-06T16:00:00	8	Radiación solar	477
2633	7	Sololá	701	Sololá	3	Barraneche	1	Enero	2023-01-14T00:00:00	2024-11-06T17:00:00	2	Temperatura media	15.2
2634	7	Sololá	701	Sololá	3	Barraneche	1	Enero	2023-01-14T00:00:00	2024-11-06T17:00:00	4	Temperatura máxima	16.3
2635	7	Sololá	701	Sololá	3	Barraneche	1	Enero	2023-01-14T00:00:00	2024-11-06T17:00:00	3	Temperatura mínima	15.2
2636	7	Sololá	701	Sololá	3	Barraneche	1	Enero	2023-01-14T00:00:00	2024-11-06T17:00:00	5	Humedad	44
2637	7	Sololá	701	Sololá	3	Barraneche	1	Enero	2023-01-14T00:00:00	2024-11-06T17:00:00	6	Velocidad del viento	11.3
2638	7	Sololá	701	Sololá	3	Barraneche	1	Enero	2023-01-14T00:00:00	2024-11-06T17:00:00	7	Dirección del viento	11.27
2639	7	Sololá	701	Sololá	3	Barraneche	1	Enero	2023-01-14T00:00:00	2024-11-06T17:00:00	1	Precipitación	0
2640	7	Sololá	701	Sololá	3	Barraneche	1	Enero	2023-01-14T00:00:00	2024-11-06T17:00:00	8	Radiación solar	254
2641	7	Sololá	701	Sololá	3	Barraneche	1	Enero	2023-01-14T00:00:00	2024-11-06T18:00:00	2	Temperatura media	12.5
2642	7	Sololá	701	Sololá	3	Barraneche	1	Enero	2023-01-14T00:00:00	2024-11-06T18:00:00	4	Temperatura máxima	15.2
2643	7	Sololá	701	Sololá	3	Barraneche	1	Enero	2023-01-14T00:00:00	2024-11-06T18:00:00	3	Temperatura mínima	12.5
2644	7	Sololá	701	Sololá	3	Barraneche	1	Enero	2023-01-14T00:00:00	2024-11-06T18:00:00	5	Humedad	49
2645	7	Sololá	701	Sololá	3	Barraneche	1	Enero	2023-01-14T00:00:00	2024-11-06T18:00:00	6	Velocidad del viento	6.4
2646	7	Sololá	701	Sololá	3	Barraneche	1	Enero	2023-01-14T00:00:00	2024-11-06T18:00:00	7	Dirección del viento	6.44
2647	7	Sololá	701	Sololá	3	Barraneche	1	Enero	2023-01-14T00:00:00	2024-11-06T18:00:00	1	Precipitación	0
2648	7	Sololá	701	Sololá	3	Barraneche	1	Enero	2023-01-14T00:00:00	2024-11-06T18:00:00	8	Radiación solar	39
2649	7	Sololá	701	Sololá	3	Barraneche	1	Enero	2023-01-14T00:00:00	2024-11-06T19:00:00	2	Temperatura media	9.7
2650	7	Sololá	701	Sololá	3	Barraneche	1	Enero	2023-01-14T00:00:00	2024-11-06T19:00:00	4	Temperatura máxima	12.5
2651	7	Sololá	701	Sololá	3	Barraneche	1	Enero	2023-01-14T00:00:00	2024-11-06T19:00:00	3	Temperatura mínima	9.6
2652	7	Sololá	701	Sololá	3	Barraneche	1	Enero	2023-01-14T00:00:00	2024-11-06T19:00:00	5	Humedad	31
2653	7	Sololá	701	Sololá	3	Barraneche	1	Enero	2023-01-14T00:00:00	2024-11-06T19:00:00	6	Velocidad del viento	6.4
2654	7	Sololá	701	Sololá	3	Barraneche	1	Enero	2023-01-14T00:00:00	2024-11-06T19:00:00	7	Dirección del viento	6.44
2655	7	Sololá	701	Sololá	3	Barraneche	1	Enero	2023-01-14T00:00:00	2024-11-06T19:00:00	1	Precipitación	0
2656	7	Sololá	701	Sololá	3	Barraneche	1	Enero	2023-01-14T00:00:00	2024-11-06T19:00:00	8	Radiación solar	0
2657	7	Sololá	701	Sololá	3	Barraneche	1	Enero	2023-01-14T00:00:00	2024-11-06T20:00:00	2	Temperatura media	11.9
2658	7	Sololá	701	Sololá	3	Barraneche	1	Enero	2023-01-14T00:00:00	2024-11-06T20:00:00	4	Temperatura máxima	11.9
2659	7	Sololá	701	Sololá	3	Barraneche	1	Enero	2023-01-14T00:00:00	2024-11-06T20:00:00	3	Temperatura mínima	9.7
2660	7	Sololá	701	Sololá	3	Barraneche	1	Enero	2023-01-14T00:00:00	2024-11-06T20:00:00	5	Humedad	16
2661	7	Sololá	701	Sololá	3	Barraneche	1	Enero	2023-01-14T00:00:00	2024-11-06T20:00:00	6	Velocidad del viento	8
2662	7	Sololá	701	Sololá	3	Barraneche	1	Enero	2023-01-14T00:00:00	2024-11-06T20:00:00	7	Dirección del viento	8.05
2663	7	Sololá	701	Sololá	3	Barraneche	1	Enero	2023-01-14T00:00:00	2024-11-06T20:00:00	1	Precipitación	0
2664	7	Sololá	701	Sololá	3	Barraneche	1	Enero	2023-01-14T00:00:00	2024-11-06T20:00:00	8	Radiación solar	0
2665	7	Sololá	701	Sololá	3	Barraneche	1	Enero	2023-01-14T00:00:00	2024-11-06T21:00:00	2	Temperatura media	9.9
2666	7	Sololá	701	Sololá	3	Barraneche	1	Enero	2023-01-14T00:00:00	2024-11-06T21:00:00	4	Temperatura máxima	11.9
2667	7	Sololá	701	Sololá	3	Barraneche	1	Enero	2023-01-14T00:00:00	2024-11-06T21:00:00	3	Temperatura mínima	9.9
2668	7	Sololá	701	Sololá	3	Barraneche	1	Enero	2023-01-14T00:00:00	2024-11-06T21:00:00	5	Humedad	21
2669	7	Sololá	701	Sololá	3	Barraneche	1	Enero	2023-01-14T00:00:00	2024-11-06T21:00:00	6	Velocidad del viento	3.2
2670	7	Sololá	701	Sololá	3	Barraneche	1	Enero	2023-01-14T00:00:00	2024-11-06T21:00:00	7	Dirección del viento	3.22
2671	7	Sololá	701	Sololá	3	Barraneche	1	Enero	2023-01-14T00:00:00	2024-11-06T21:00:00	1	Precipitación	0
2672	7	Sololá	701	Sololá	3	Barraneche	1	Enero	2023-01-14T00:00:00	2024-11-06T21:00:00	8	Radiación solar	0
2673	7	Sololá	701	Sololá	3	Barraneche	1	Enero	2023-01-14T00:00:00	2024-11-06T22:00:00	2	Temperatura media	9.3
2674	7	Sololá	701	Sololá	3	Barraneche	1	Enero	2023-01-14T00:00:00	2024-11-06T22:00:00	4	Temperatura máxima	10.8
2675	7	Sololá	701	Sololá	3	Barraneche	1	Enero	2023-01-14T00:00:00	2024-11-06T22:00:00	3	Temperatura mínima	9.1
2676	7	Sololá	701	Sololá	3	Barraneche	1	Enero	2023-01-14T00:00:00	2024-11-06T22:00:00	5	Humedad	26
2677	7	Sololá	701	Sololá	3	Barraneche	1	Enero	2023-01-14T00:00:00	2024-11-06T22:00:00	6	Velocidad del viento	3.2
2678	7	Sololá	701	Sololá	3	Barraneche	1	Enero	2023-01-14T00:00:00	2024-11-06T22:00:00	7	Dirección del viento	3.22
2679	7	Sololá	701	Sololá	3	Barraneche	1	Enero	2023-01-14T00:00:00	2024-11-06T22:00:00	1	Precipitación	0
2680	7	Sololá	701	Sololá	3	Barraneche	1	Enero	2023-01-14T00:00:00	2024-11-06T22:00:00	8	Radiación solar	0
2681	7	Sololá	701	Sololá	3	Barraneche	1	Enero	2023-01-14T00:00:00	2024-11-06T23:00:00	2	Temperatura media	9
2682	7	Sololá	701	Sololá	3	Barraneche	1	Enero	2023-01-14T00:00:00	2024-11-06T23:00:00	4	Temperatura máxima	9.3
2683	7	Sololá	701	Sololá	3	Barraneche	1	Enero	2023-01-14T00:00:00	2024-11-06T23:00:00	3	Temperatura mínima	8.7
2684	7	Sololá	701	Sololá	3	Barraneche	1	Enero	2023-01-14T00:00:00	2024-11-06T23:00:00	5	Humedad	24
2685	7	Sololá	701	Sololá	3	Barraneche	1	Enero	2023-01-14T00:00:00	2024-11-06T23:00:00	6	Velocidad del viento	4.8
2686	7	Sololá	701	Sololá	3	Barraneche	1	Enero	2023-01-14T00:00:00	2024-11-06T23:00:00	7	Dirección del viento	4.83
2687	7	Sololá	701	Sololá	3	Barraneche	1	Enero	2023-01-14T00:00:00	2024-11-06T23:00:00	1	Precipitación	0
2688	7	Sololá	701	Sololá	3	Barraneche	1	Enero	2023-01-14T00:00:00	2024-11-06T23:00:00	8	Radiación solar	0
2689	7	Sololá	701	Sololá	3	Barraneche	1	Enero	2023-01-15T00:00:00	2024-11-06T00:00:00	2	Temperatura media	8.7
2690	7	Sololá	701	Sololá	3	Barraneche	1	Enero	2023-01-15T00:00:00	2024-11-06T00:00:00	4	Temperatura máxima	9.2
2691	7	Sololá	701	Sololá	3	Barraneche	1	Enero	2023-01-15T00:00:00	2024-11-06T00:00:00	3	Temperatura mínima	8.5
2692	7	Sololá	701	Sololá	3	Barraneche	1	Enero	2023-01-15T00:00:00	2024-11-06T00:00:00	5	Humedad	36
2693	7	Sololá	701	Sololá	3	Barraneche	1	Enero	2023-01-15T00:00:00	2024-11-06T00:00:00	6	Velocidad del viento	8
2694	7	Sololá	701	Sololá	3	Barraneche	1	Enero	2023-01-15T00:00:00	2024-11-06T00:00:00	7	Dirección del viento	8.05
2695	7	Sololá	701	Sololá	3	Barraneche	1	Enero	2023-01-15T00:00:00	2024-11-06T00:00:00	1	Precipitación	0
2696	7	Sololá	701	Sololá	3	Barraneche	1	Enero	2023-01-15T00:00:00	2024-11-06T00:00:00	8	Radiación solar	0
2697	7	Sololá	701	Sololá	3	Barraneche	1	Enero	2023-01-15T00:00:00	2024-11-06T01:00:00	2	Temperatura media	8.8
2698	7	Sololá	701	Sololá	3	Barraneche	1	Enero	2023-01-15T00:00:00	2024-11-06T01:00:00	4	Temperatura máxima	9.3
2699	7	Sololá	701	Sololá	3	Barraneche	1	Enero	2023-01-15T00:00:00	2024-11-06T01:00:00	3	Temperatura mínima	8.8
2700	7	Sololá	701	Sololá	3	Barraneche	1	Enero	2023-01-15T00:00:00	2024-11-06T01:00:00	5	Humedad	44
2701	7	Sololá	701	Sololá	3	Barraneche	1	Enero	2023-01-15T00:00:00	2024-11-06T01:00:00	6	Velocidad del viento	9.7
2702	7	Sololá	701	Sololá	3	Barraneche	1	Enero	2023-01-15T00:00:00	2024-11-06T01:00:00	7	Dirección del viento	9.66
2703	7	Sololá	701	Sololá	3	Barraneche	1	Enero	2023-01-15T00:00:00	2024-11-06T01:00:00	1	Precipitación	0
2704	7	Sololá	701	Sololá	3	Barraneche	1	Enero	2023-01-15T00:00:00	2024-11-06T01:00:00	8	Radiación solar	0
2705	7	Sololá	701	Sololá	3	Barraneche	1	Enero	2023-01-15T00:00:00	2024-11-06T02:00:00	2	Temperatura media	8.1
2706	7	Sololá	701	Sololá	3	Barraneche	1	Enero	2023-01-15T00:00:00	2024-11-06T02:00:00	4	Temperatura máxima	9.3
2707	7	Sololá	701	Sololá	3	Barraneche	1	Enero	2023-01-15T00:00:00	2024-11-06T02:00:00	3	Temperatura mínima	8.1
2708	7	Sololá	701	Sololá	3	Barraneche	1	Enero	2023-01-15T00:00:00	2024-11-06T02:00:00	5	Humedad	50
2709	7	Sololá	701	Sololá	3	Barraneche	1	Enero	2023-01-15T00:00:00	2024-11-06T02:00:00	6	Velocidad del viento	8
2710	7	Sololá	701	Sololá	3	Barraneche	1	Enero	2023-01-15T00:00:00	2024-11-06T02:00:00	7	Dirección del viento	8.05
2711	7	Sololá	701	Sololá	3	Barraneche	1	Enero	2023-01-15T00:00:00	2024-11-06T02:00:00	1	Precipitación	0
2712	7	Sololá	701	Sololá	3	Barraneche	1	Enero	2023-01-15T00:00:00	2024-11-06T02:00:00	8	Radiación solar	0
2713	7	Sololá	701	Sololá	3	Barraneche	1	Enero	2023-01-15T00:00:00	2024-11-06T03:00:00	2	Temperatura media	8.4
2714	7	Sololá	701	Sololá	3	Barraneche	1	Enero	2023-01-15T00:00:00	2024-11-06T03:00:00	4	Temperatura máxima	8.4
2715	7	Sololá	701	Sololá	3	Barraneche	1	Enero	2023-01-15T00:00:00	2024-11-06T03:00:00	3	Temperatura mínima	7.8
2716	7	Sololá	701	Sololá	3	Barraneche	1	Enero	2023-01-15T00:00:00	2024-11-06T03:00:00	5	Humedad	49
2717	7	Sololá	701	Sololá	3	Barraneche	1	Enero	2023-01-15T00:00:00	2024-11-06T03:00:00	6	Velocidad del viento	8
2718	7	Sololá	701	Sololá	3	Barraneche	1	Enero	2023-01-15T00:00:00	2024-11-06T03:00:00	7	Dirección del viento	8.05
2719	7	Sololá	701	Sololá	3	Barraneche	1	Enero	2023-01-15T00:00:00	2024-11-06T03:00:00	1	Precipitación	0
2720	7	Sololá	701	Sololá	3	Barraneche	1	Enero	2023-01-15T00:00:00	2024-11-06T03:00:00	8	Radiación solar	0
2721	7	Sololá	701	Sololá	3	Barraneche	1	Enero	2023-01-15T00:00:00	2024-11-06T04:00:00	2	Temperatura media	8.2
2722	7	Sololá	701	Sololá	3	Barraneche	1	Enero	2023-01-15T00:00:00	2024-11-06T04:00:00	4	Temperatura máxima	8.6
2723	7	Sololá	701	Sololá	3	Barraneche	1	Enero	2023-01-15T00:00:00	2024-11-06T04:00:00	3	Temperatura mínima	7.8
2724	7	Sololá	701	Sololá	3	Barraneche	1	Enero	2023-01-15T00:00:00	2024-11-06T04:00:00	5	Humedad	50
2725	7	Sololá	701	Sololá	3	Barraneche	1	Enero	2023-01-15T00:00:00	2024-11-06T04:00:00	6	Velocidad del viento	6.4
2726	7	Sololá	701	Sololá	3	Barraneche	1	Enero	2023-01-15T00:00:00	2024-11-06T04:00:00	7	Dirección del viento	6.44
2727	7	Sololá	701	Sololá	3	Barraneche	1	Enero	2023-01-15T00:00:00	2024-11-06T04:00:00	1	Precipitación	0
2728	7	Sololá	701	Sololá	3	Barraneche	1	Enero	2023-01-15T00:00:00	2024-11-06T04:00:00	8	Radiación solar	0
2729	7	Sololá	701	Sololá	3	Barraneche	1	Enero	2023-01-15T00:00:00	2024-11-06T05:00:00	2	Temperatura media	7.3
2730	7	Sololá	701	Sololá	3	Barraneche	1	Enero	2023-01-15T00:00:00	2024-11-06T05:00:00	4	Temperatura máxima	8.2
2731	7	Sololá	701	Sololá	3	Barraneche	1	Enero	2023-01-15T00:00:00	2024-11-06T05:00:00	3	Temperatura mínima	7.3
2732	7	Sololá	701	Sololá	3	Barraneche	1	Enero	2023-01-15T00:00:00	2024-11-06T05:00:00	5	Humedad	53
2733	7	Sololá	701	Sololá	3	Barraneche	1	Enero	2023-01-15T00:00:00	2024-11-06T05:00:00	6	Velocidad del viento	6.4
2734	7	Sololá	701	Sololá	3	Barraneche	1	Enero	2023-01-15T00:00:00	2024-11-06T05:00:00	7	Dirección del viento	6.44
2735	7	Sololá	701	Sololá	3	Barraneche	1	Enero	2023-01-15T00:00:00	2024-11-06T05:00:00	1	Precipitación	0
2736	7	Sololá	701	Sololá	3	Barraneche	1	Enero	2023-01-15T00:00:00	2024-11-06T05:00:00	8	Radiación solar	0
2737	7	Sololá	701	Sololá	3	Barraneche	1	Enero	2023-01-15T00:00:00	2024-11-06T06:00:00	2	Temperatura media	7.4
2738	7	Sololá	701	Sololá	3	Barraneche	1	Enero	2023-01-15T00:00:00	2024-11-06T06:00:00	4	Temperatura máxima	7.8
2739	7	Sololá	701	Sololá	3	Barraneche	1	Enero	2023-01-15T00:00:00	2024-11-06T06:00:00	3	Temperatura mínima	7.2
2740	7	Sololá	701	Sololá	3	Barraneche	1	Enero	2023-01-15T00:00:00	2024-11-06T06:00:00	5	Humedad	55
2741	7	Sololá	701	Sololá	3	Barraneche	1	Enero	2023-01-15T00:00:00	2024-11-06T06:00:00	6	Velocidad del viento	4.8
2742	7	Sololá	701	Sololá	3	Barraneche	1	Enero	2023-01-15T00:00:00	2024-11-06T06:00:00	7	Dirección del viento	4.83
2743	7	Sololá	701	Sololá	3	Barraneche	1	Enero	2023-01-15T00:00:00	2024-11-06T06:00:00	1	Precipitación	0
2744	7	Sololá	701	Sololá	3	Barraneche	1	Enero	2023-01-15T00:00:00	2024-11-06T06:00:00	8	Radiación solar	0
2745	7	Sololá	701	Sololá	3	Barraneche	1	Enero	2023-01-15T00:00:00	2024-11-06T07:00:00	2	Temperatura media	8.5
2746	7	Sololá	701	Sololá	3	Barraneche	1	Enero	2023-01-15T00:00:00	2024-11-06T07:00:00	4	Temperatura máxima	8.7
2747	7	Sololá	701	Sololá	3	Barraneche	1	Enero	2023-01-15T00:00:00	2024-11-06T07:00:00	3	Temperatura mínima	7.3
2748	7	Sololá	701	Sololá	3	Barraneche	1	Enero	2023-01-15T00:00:00	2024-11-06T07:00:00	5	Humedad	52
2749	7	Sololá	701	Sololá	3	Barraneche	1	Enero	2023-01-15T00:00:00	2024-11-06T07:00:00	6	Velocidad del viento	8
2750	7	Sololá	701	Sololá	3	Barraneche	1	Enero	2023-01-15T00:00:00	2024-11-06T07:00:00	7	Dirección del viento	8.05
2751	7	Sololá	701	Sololá	3	Barraneche	1	Enero	2023-01-15T00:00:00	2024-11-06T07:00:00	1	Precipitación	0
2752	7	Sololá	701	Sololá	3	Barraneche	1	Enero	2023-01-15T00:00:00	2024-11-06T07:00:00	8	Radiación solar	5
2753	7	Sololá	701	Sololá	3	Barraneche	1	Enero	2023-01-15T00:00:00	2024-11-06T08:00:00	2	Temperatura media	12.3
2754	7	Sololá	701	Sololá	3	Barraneche	1	Enero	2023-01-15T00:00:00	2024-11-06T08:00:00	4	Temperatura máxima	12.3
2755	7	Sololá	701	Sololá	3	Barraneche	1	Enero	2023-01-15T00:00:00	2024-11-06T08:00:00	3	Temperatura mínima	8
2756	7	Sololá	701	Sololá	3	Barraneche	1	Enero	2023-01-15T00:00:00	2024-11-06T08:00:00	5	Humedad	46
2757	7	Sololá	701	Sololá	3	Barraneche	1	Enero	2023-01-15T00:00:00	2024-11-06T08:00:00	6	Velocidad del viento	9.7
2758	7	Sololá	701	Sololá	3	Barraneche	1	Enero	2023-01-15T00:00:00	2024-11-06T08:00:00	7	Dirección del viento	9.66
2759	7	Sololá	701	Sololá	3	Barraneche	1	Enero	2023-01-15T00:00:00	2024-11-06T08:00:00	1	Precipitación	0
2760	7	Sololá	701	Sololá	3	Barraneche	1	Enero	2023-01-15T00:00:00	2024-11-06T08:00:00	8	Radiación solar	141
2761	7	Sololá	701	Sololá	3	Barraneche	1	Enero	2023-01-15T00:00:00	2024-11-06T09:00:00	2	Temperatura media	16.2
2762	7	Sololá	701	Sololá	3	Barraneche	1	Enero	2023-01-15T00:00:00	2024-11-06T09:00:00	4	Temperatura máxima	16.3
2763	7	Sololá	701	Sololá	3	Barraneche	1	Enero	2023-01-15T00:00:00	2024-11-06T09:00:00	3	Temperatura mínima	12.3
2764	7	Sololá	701	Sololá	3	Barraneche	1	Enero	2023-01-15T00:00:00	2024-11-06T09:00:00	5	Humedad	34
2765	7	Sololá	701	Sololá	3	Barraneche	1	Enero	2023-01-15T00:00:00	2024-11-06T09:00:00	6	Velocidad del viento	4.8
2766	7	Sololá	701	Sololá	3	Barraneche	1	Enero	2023-01-15T00:00:00	2024-11-06T09:00:00	7	Dirección del viento	4.83
2767	7	Sololá	701	Sololá	3	Barraneche	1	Enero	2023-01-15T00:00:00	2024-11-06T09:00:00	1	Precipitación	0
2768	7	Sololá	701	Sololá	3	Barraneche	1	Enero	2023-01-15T00:00:00	2024-11-06T09:00:00	8	Radiación solar	391
2769	7	Sololá	701	Sololá	3	Barraneche	1	Enero	2023-01-15T00:00:00	2024-11-06T10:00:00	2	Temperatura media	17.6
2770	7	Sololá	701	Sololá	3	Barraneche	1	Enero	2023-01-15T00:00:00	2024-11-06T10:00:00	4	Temperatura máxima	17.7
2771	7	Sololá	701	Sololá	3	Barraneche	1	Enero	2023-01-15T00:00:00	2024-11-06T10:00:00	3	Temperatura mínima	16.2
2772	7	Sololá	701	Sololá	3	Barraneche	1	Enero	2023-01-15T00:00:00	2024-11-06T10:00:00	5	Humedad	24
2773	7	Sololá	701	Sololá	3	Barraneche	1	Enero	2023-01-15T00:00:00	2024-11-06T10:00:00	6	Velocidad del viento	6.4
2774	7	Sololá	701	Sololá	3	Barraneche	1	Enero	2023-01-15T00:00:00	2024-11-06T10:00:00	7	Dirección del viento	6.44
2775	7	Sololá	701	Sololá	3	Barraneche	1	Enero	2023-01-15T00:00:00	2024-11-06T10:00:00	1	Precipitación	0
2776	7	Sololá	701	Sololá	3	Barraneche	1	Enero	2023-01-15T00:00:00	2024-11-06T10:00:00	8	Radiación solar	607
2777	7	Sololá	701	Sololá	3	Barraneche	1	Enero	2023-01-15T00:00:00	2024-11-06T11:00:00	2	Temperatura media	18.3
2778	7	Sololá	701	Sololá	3	Barraneche	1	Enero	2023-01-15T00:00:00	2024-11-06T11:00:00	4	Temperatura máxima	18.3
2779	7	Sololá	701	Sololá	3	Barraneche	1	Enero	2023-01-15T00:00:00	2024-11-06T11:00:00	3	Temperatura mínima	17.4
2780	7	Sololá	701	Sololá	3	Barraneche	1	Enero	2023-01-15T00:00:00	2024-11-06T11:00:00	5	Humedad	25
2781	7	Sololá	701	Sololá	3	Barraneche	1	Enero	2023-01-15T00:00:00	2024-11-06T11:00:00	6	Velocidad del viento	9.7
2782	7	Sololá	701	Sololá	3	Barraneche	1	Enero	2023-01-15T00:00:00	2024-11-06T11:00:00	7	Dirección del viento	9.66
2783	7	Sololá	701	Sololá	3	Barraneche	1	Enero	2023-01-15T00:00:00	2024-11-06T11:00:00	1	Precipitación	0
2784	7	Sololá	701	Sololá	3	Barraneche	1	Enero	2023-01-15T00:00:00	2024-11-06T11:00:00	8	Radiación solar	762
2785	7	Sololá	701	Sololá	3	Barraneche	1	Enero	2023-01-15T00:00:00	2024-11-06T12:00:00	2	Temperatura media	18.4
2786	7	Sololá	701	Sololá	3	Barraneche	1	Enero	2023-01-15T00:00:00	2024-11-06T12:00:00	4	Temperatura máxima	18.7
2787	7	Sololá	701	Sololá	3	Barraneche	1	Enero	2023-01-15T00:00:00	2024-11-06T12:00:00	3	Temperatura mínima	18.2
2788	7	Sololá	701	Sololá	3	Barraneche	1	Enero	2023-01-15T00:00:00	2024-11-06T12:00:00	5	Humedad	24
2789	7	Sololá	701	Sololá	3	Barraneche	1	Enero	2023-01-15T00:00:00	2024-11-06T12:00:00	6	Velocidad del viento	12.9
2790	7	Sololá	701	Sololá	3	Barraneche	1	Enero	2023-01-15T00:00:00	2024-11-06T12:00:00	7	Dirección del viento	12.87
2791	7	Sololá	701	Sololá	3	Barraneche	1	Enero	2023-01-15T00:00:00	2024-11-06T12:00:00	1	Precipitación	0
2792	7	Sololá	701	Sololá	3	Barraneche	1	Enero	2023-01-15T00:00:00	2024-11-06T12:00:00	8	Radiación solar	848
2793	7	Sololá	701	Sololá	3	Barraneche	1	Enero	2023-01-15T00:00:00	2024-11-06T13:00:00	2	Temperatura media	17.1
2794	7	Sololá	701	Sololá	3	Barraneche	1	Enero	2023-01-15T00:00:00	2024-11-06T13:00:00	4	Temperatura máxima	18.4
2795	7	Sololá	701	Sololá	3	Barraneche	1	Enero	2023-01-15T00:00:00	2024-11-06T13:00:00	3	Temperatura mínima	17.1
2796	7	Sololá	701	Sololá	3	Barraneche	1	Enero	2023-01-15T00:00:00	2024-11-06T13:00:00	5	Humedad	39
2797	7	Sololá	701	Sololá	3	Barraneche	1	Enero	2023-01-15T00:00:00	2024-11-06T13:00:00	6	Velocidad del viento	16.1
2798	7	Sololá	701	Sololá	3	Barraneche	1	Enero	2023-01-15T00:00:00	2024-11-06T13:00:00	7	Dirección del viento	16.09
2799	7	Sololá	701	Sololá	3	Barraneche	1	Enero	2023-01-15T00:00:00	2024-11-06T13:00:00	1	Precipitación	0
2800	7	Sololá	701	Sololá	3	Barraneche	1	Enero	2023-01-15T00:00:00	2024-11-06T13:00:00	8	Radiación solar	860
2801	7	Sololá	701	Sololá	3	Barraneche	1	Enero	2023-01-15T00:00:00	2024-11-06T14:00:00	2	Temperatura media	16.1
2802	7	Sololá	701	Sololá	3	Barraneche	1	Enero	2023-01-15T00:00:00	2024-11-06T14:00:00	4	Temperatura máxima	17.2
2803	7	Sololá	701	Sololá	3	Barraneche	1	Enero	2023-01-15T00:00:00	2024-11-06T14:00:00	3	Temperatura mínima	16.1
2804	7	Sololá	701	Sololá	3	Barraneche	1	Enero	2023-01-15T00:00:00	2024-11-06T14:00:00	5	Humedad	55
2805	7	Sololá	701	Sololá	3	Barraneche	1	Enero	2023-01-15T00:00:00	2024-11-06T14:00:00	6	Velocidad del viento	14.5
2806	7	Sololá	701	Sololá	3	Barraneche	1	Enero	2023-01-15T00:00:00	2024-11-06T14:00:00	7	Dirección del viento	14.48
2807	7	Sololá	701	Sololá	3	Barraneche	1	Enero	2023-01-15T00:00:00	2024-11-06T14:00:00	1	Precipitación	0
2808	7	Sololá	701	Sololá	3	Barraneche	1	Enero	2023-01-15T00:00:00	2024-11-06T14:00:00	8	Radiación solar	797
2809	7	Sololá	701	Sololá	3	Barraneche	1	Enero	2023-01-15T00:00:00	2024-11-06T15:00:00	2	Temperatura media	15.4
2810	7	Sololá	701	Sololá	3	Barraneche	1	Enero	2023-01-15T00:00:00	2024-11-06T15:00:00	4	Temperatura máxima	16.2
2811	7	Sololá	701	Sololá	3	Barraneche	1	Enero	2023-01-15T00:00:00	2024-11-06T15:00:00	3	Temperatura mínima	15.3
2812	7	Sololá	701	Sololá	3	Barraneche	1	Enero	2023-01-15T00:00:00	2024-11-06T15:00:00	5	Humedad	61
2813	7	Sololá	701	Sololá	3	Barraneche	1	Enero	2023-01-15T00:00:00	2024-11-06T15:00:00	6	Velocidad del viento	12.9
2814	7	Sololá	701	Sololá	3	Barraneche	1	Enero	2023-01-15T00:00:00	2024-11-06T15:00:00	7	Dirección del viento	12.87
2815	7	Sololá	701	Sololá	3	Barraneche	1	Enero	2023-01-15T00:00:00	2024-11-06T15:00:00	1	Precipitación	0
2816	7	Sololá	701	Sololá	3	Barraneche	1	Enero	2023-01-15T00:00:00	2024-11-06T15:00:00	8	Radiación solar	690
2817	7	Sololá	701	Sololá	3	Barraneche	1	Enero	2023-01-15T00:00:00	2024-11-06T16:00:00	2	Temperatura media	13.9
2818	7	Sololá	701	Sololá	3	Barraneche	1	Enero	2023-01-15T00:00:00	2024-11-06T16:00:00	4	Temperatura máxima	15.6
2819	7	Sololá	701	Sololá	3	Barraneche	1	Enero	2023-01-15T00:00:00	2024-11-06T16:00:00	3	Temperatura mínima	13.9
2820	7	Sololá	701	Sololá	3	Barraneche	1	Enero	2023-01-15T00:00:00	2024-11-06T16:00:00	5	Humedad	66
2821	7	Sololá	701	Sololá	3	Barraneche	1	Enero	2023-01-15T00:00:00	2024-11-06T16:00:00	6	Velocidad del viento	11.3
2822	7	Sololá	701	Sololá	3	Barraneche	1	Enero	2023-01-15T00:00:00	2024-11-06T16:00:00	7	Dirección del viento	11.27
2823	7	Sololá	701	Sololá	3	Barraneche	1	Enero	2023-01-15T00:00:00	2024-11-06T16:00:00	1	Precipitación	0
2824	7	Sololá	701	Sololá	3	Barraneche	1	Enero	2023-01-15T00:00:00	2024-11-06T16:00:00	8	Radiación solar	295
2825	7	Sololá	701	Sololá	3	Barraneche	1	Enero	2023-01-15T00:00:00	2024-11-06T17:00:00	2	Temperatura media	12.8
2826	7	Sololá	701	Sololá	3	Barraneche	1	Enero	2023-01-15T00:00:00	2024-11-06T17:00:00	4	Temperatura máxima	13.9
2827	7	Sololá	701	Sololá	3	Barraneche	1	Enero	2023-01-15T00:00:00	2024-11-06T17:00:00	3	Temperatura mínima	12.8
2828	7	Sololá	701	Sololá	3	Barraneche	1	Enero	2023-01-15T00:00:00	2024-11-06T17:00:00	5	Humedad	70
2829	7	Sololá	701	Sololá	3	Barraneche	1	Enero	2023-01-15T00:00:00	2024-11-06T17:00:00	6	Velocidad del viento	8
2830	7	Sololá	701	Sololá	3	Barraneche	1	Enero	2023-01-15T00:00:00	2024-11-06T17:00:00	7	Dirección del viento	8.05
2831	7	Sololá	701	Sololá	3	Barraneche	1	Enero	2023-01-15T00:00:00	2024-11-06T17:00:00	1	Precipitación	0
2832	7	Sololá	701	Sololá	3	Barraneche	1	Enero	2023-01-15T00:00:00	2024-11-06T17:00:00	8	Radiación solar	92
2833	7	Sololá	701	Sololá	3	Barraneche	1	Enero	2023-01-15T00:00:00	2024-11-06T18:00:00	2	Temperatura media	12.6
2834	7	Sololá	701	Sololá	3	Barraneche	1	Enero	2023-01-15T00:00:00	2024-11-06T18:00:00	4	Temperatura máxima	12.8
2835	7	Sololá	701	Sololá	3	Barraneche	1	Enero	2023-01-15T00:00:00	2024-11-06T18:00:00	3	Temperatura mínima	12.5
2836	7	Sololá	701	Sololá	3	Barraneche	1	Enero	2023-01-15T00:00:00	2024-11-06T18:00:00	5	Humedad	71
2837	7	Sololá	701	Sololá	3	Barraneche	1	Enero	2023-01-15T00:00:00	2024-11-06T18:00:00	6	Velocidad del viento	3.2
2838	7	Sololá	701	Sololá	3	Barraneche	1	Enero	2023-01-15T00:00:00	2024-11-06T18:00:00	7	Dirección del viento	3.22
2839	7	Sololá	701	Sololá	3	Barraneche	1	Enero	2023-01-15T00:00:00	2024-11-06T18:00:00	1	Precipitación	0
2840	7	Sololá	701	Sololá	3	Barraneche	1	Enero	2023-01-15T00:00:00	2024-11-06T18:00:00	8	Radiación solar	13
2841	7	Sololá	701	Sololá	3	Barraneche	1	Enero	2023-01-15T00:00:00	2024-11-06T19:00:00	2	Temperatura media	11.7
2842	7	Sololá	701	Sololá	3	Barraneche	1	Enero	2023-01-15T00:00:00	2024-11-06T19:00:00	4	Temperatura máxima	12.6
2843	7	Sololá	701	Sololá	3	Barraneche	1	Enero	2023-01-15T00:00:00	2024-11-06T19:00:00	3	Temperatura mínima	11.7
2844	7	Sololá	701	Sololá	3	Barraneche	1	Enero	2023-01-15T00:00:00	2024-11-06T19:00:00	5	Humedad	70
2845	7	Sololá	701	Sololá	3	Barraneche	1	Enero	2023-01-15T00:00:00	2024-11-06T19:00:00	6	Velocidad del viento	1.6
2846	7	Sololá	701	Sololá	3	Barraneche	1	Enero	2023-01-15T00:00:00	2024-11-06T19:00:00	7	Dirección del viento	1.61
2847	7	Sololá	701	Sololá	3	Barraneche	1	Enero	2023-01-15T00:00:00	2024-11-06T19:00:00	1	Precipitación	0
2848	7	Sololá	701	Sololá	3	Barraneche	1	Enero	2023-01-15T00:00:00	2024-11-06T19:00:00	8	Radiación solar	0
2849	7	Sololá	701	Sololá	3	Barraneche	1	Enero	2023-01-15T00:00:00	2024-11-06T20:00:00	2	Temperatura media	11.4
2850	7	Sololá	701	Sololá	3	Barraneche	1	Enero	2023-01-15T00:00:00	2024-11-06T20:00:00	4	Temperatura máxima	11.7
2851	7	Sololá	701	Sololá	3	Barraneche	1	Enero	2023-01-15T00:00:00	2024-11-06T20:00:00	3	Temperatura mínima	11.3
2852	7	Sololá	701	Sololá	3	Barraneche	1	Enero	2023-01-15T00:00:00	2024-11-06T20:00:00	5	Humedad	66
2853	7	Sololá	701	Sololá	3	Barraneche	1	Enero	2023-01-15T00:00:00	2024-11-06T20:00:00	6	Velocidad del viento	4.8
2854	7	Sololá	701	Sololá	3	Barraneche	1	Enero	2023-01-15T00:00:00	2024-11-06T20:00:00	7	Dirección del viento	4.83
2855	7	Sololá	701	Sololá	3	Barraneche	1	Enero	2023-01-15T00:00:00	2024-11-06T20:00:00	1	Precipitación	0
2856	7	Sololá	701	Sololá	3	Barraneche	1	Enero	2023-01-15T00:00:00	2024-11-06T20:00:00	8	Radiación solar	0
2857	7	Sololá	701	Sololá	3	Barraneche	1	Enero	2023-01-15T00:00:00	2024-11-06T21:00:00	2	Temperatura media	9.4
2858	7	Sololá	701	Sololá	3	Barraneche	1	Enero	2023-01-15T00:00:00	2024-11-06T21:00:00	4	Temperatura máxima	11.4
2859	7	Sololá	701	Sololá	3	Barraneche	1	Enero	2023-01-15T00:00:00	2024-11-06T21:00:00	3	Temperatura mínima	9.4
2860	7	Sololá	701	Sololá	3	Barraneche	1	Enero	2023-01-15T00:00:00	2024-11-06T21:00:00	5	Humedad	69
2861	7	Sololá	701	Sololá	3	Barraneche	1	Enero	2023-01-15T00:00:00	2024-11-06T21:00:00	6	Velocidad del viento	6.4
2862	7	Sololá	701	Sololá	3	Barraneche	1	Enero	2023-01-15T00:00:00	2024-11-06T21:00:00	7	Dirección del viento	6.44
2863	7	Sololá	701	Sololá	3	Barraneche	1	Enero	2023-01-15T00:00:00	2024-11-06T21:00:00	1	Precipitación	0
2864	7	Sololá	701	Sololá	3	Barraneche	1	Enero	2023-01-15T00:00:00	2024-11-06T21:00:00	8	Radiación solar	0
2865	7	Sololá	701	Sololá	3	Barraneche	1	Enero	2023-01-15T00:00:00	2024-11-06T22:00:00	2	Temperatura media	9
2866	7	Sololá	701	Sololá	3	Barraneche	1	Enero	2023-01-15T00:00:00	2024-11-06T22:00:00	4	Temperatura máxima	9.4
2867	7	Sololá	701	Sololá	3	Barraneche	1	Enero	2023-01-15T00:00:00	2024-11-06T22:00:00	3	Temperatura mínima	8.9
2868	7	Sololá	701	Sololá	3	Barraneche	1	Enero	2023-01-15T00:00:00	2024-11-06T22:00:00	5	Humedad	69
2869	7	Sololá	701	Sololá	3	Barraneche	1	Enero	2023-01-15T00:00:00	2024-11-06T22:00:00	6	Velocidad del viento	6.4
2870	7	Sololá	701	Sololá	3	Barraneche	1	Enero	2023-01-15T00:00:00	2024-11-06T22:00:00	7	Dirección del viento	6.44
2871	7	Sololá	701	Sololá	3	Barraneche	1	Enero	2023-01-15T00:00:00	2024-11-06T22:00:00	1	Precipitación	0
2872	7	Sololá	701	Sololá	3	Barraneche	1	Enero	2023-01-15T00:00:00	2024-11-06T22:00:00	8	Radiación solar	0
2873	7	Sololá	701	Sololá	3	Barraneche	1	Enero	2023-01-15T00:00:00	2024-11-06T23:00:00	2	Temperatura media	9.6
2874	7	Sololá	701	Sololá	3	Barraneche	1	Enero	2023-01-15T00:00:00	2024-11-06T23:00:00	4	Temperatura máxima	9.6
2875	7	Sololá	701	Sololá	3	Barraneche	1	Enero	2023-01-15T00:00:00	2024-11-06T23:00:00	3	Temperatura mínima	8.8
2876	7	Sololá	701	Sololá	3	Barraneche	1	Enero	2023-01-15T00:00:00	2024-11-06T23:00:00	5	Humedad	70
2877	7	Sololá	701	Sololá	3	Barraneche	1	Enero	2023-01-15T00:00:00	2024-11-06T23:00:00	6	Velocidad del viento	4.8
2878	7	Sololá	701	Sololá	3	Barraneche	1	Enero	2023-01-15T00:00:00	2024-11-06T23:00:00	7	Dirección del viento	4.83
2879	7	Sololá	701	Sololá	3	Barraneche	1	Enero	2023-01-15T00:00:00	2024-11-06T23:00:00	1	Precipitación	0
2880	7	Sololá	701	Sololá	3	Barraneche	1	Enero	2023-01-15T00:00:00	2024-11-06T23:00:00	8	Radiación solar	0
2881	7	Sololá	701	Sololá	3	Barraneche	1	Enero	2023-01-16T00:00:00	2024-11-06T00:00:00	2	Temperatura media	11
2882	7	Sololá	701	Sololá	3	Barraneche	1	Enero	2023-01-16T00:00:00	2024-11-06T00:00:00	4	Temperatura máxima	11
2883	7	Sololá	701	Sololá	3	Barraneche	1	Enero	2023-01-16T00:00:00	2024-11-06T00:00:00	3	Temperatura mínima	9.6
2884	7	Sololá	701	Sololá	3	Barraneche	1	Enero	2023-01-16T00:00:00	2024-11-06T00:00:00	5	Humedad	70
2885	7	Sololá	701	Sololá	3	Barraneche	1	Enero	2023-01-16T00:00:00	2024-11-06T00:00:00	6	Velocidad del viento	3.2
2886	7	Sololá	701	Sololá	3	Barraneche	1	Enero	2023-01-16T00:00:00	2024-11-06T00:00:00	7	Dirección del viento	3.22
2887	7	Sololá	701	Sololá	3	Barraneche	1	Enero	2023-01-16T00:00:00	2024-11-06T00:00:00	1	Precipitación	0
2888	7	Sololá	701	Sololá	3	Barraneche	1	Enero	2023-01-16T00:00:00	2024-11-06T00:00:00	8	Radiación solar	0
2889	7	Sololá	701	Sololá	3	Barraneche	1	Enero	2023-01-16T00:00:00	2024-11-06T01:00:00	2	Temperatura media	10.8
2890	7	Sololá	701	Sololá	3	Barraneche	1	Enero	2023-01-16T00:00:00	2024-11-06T01:00:00	4	Temperatura máxima	11.5
2891	7	Sololá	701	Sololá	3	Barraneche	1	Enero	2023-01-16T00:00:00	2024-11-06T01:00:00	3	Temperatura mínima	10.8
2892	7	Sololá	701	Sololá	3	Barraneche	1	Enero	2023-01-16T00:00:00	2024-11-06T01:00:00	5	Humedad	68
2893	7	Sololá	701	Sololá	3	Barraneche	1	Enero	2023-01-16T00:00:00	2024-11-06T01:00:00	6	Velocidad del viento	4.8
2894	7	Sololá	701	Sololá	3	Barraneche	1	Enero	2023-01-16T00:00:00	2024-11-06T01:00:00	7	Dirección del viento	4.83
2895	7	Sololá	701	Sololá	3	Barraneche	1	Enero	2023-01-16T00:00:00	2024-11-06T01:00:00	1	Precipitación	0
2896	7	Sololá	701	Sololá	3	Barraneche	1	Enero	2023-01-16T00:00:00	2024-11-06T01:00:00	8	Radiación solar	0
2897	7	Sololá	701	Sololá	3	Barraneche	1	Enero	2023-01-16T00:00:00	2024-11-06T02:00:00	2	Temperatura media	8.4
2898	7	Sololá	701	Sololá	3	Barraneche	1	Enero	2023-01-16T00:00:00	2024-11-06T02:00:00	4	Temperatura máxima	10.8
2899	7	Sololá	701	Sololá	3	Barraneche	1	Enero	2023-01-16T00:00:00	2024-11-06T02:00:00	3	Temperatura mínima	8.3
2900	7	Sololá	701	Sololá	3	Barraneche	1	Enero	2023-01-16T00:00:00	2024-11-06T02:00:00	5	Humedad	70
2901	7	Sololá	701	Sololá	3	Barraneche	1	Enero	2023-01-16T00:00:00	2024-11-06T02:00:00	6	Velocidad del viento	4.8
2902	7	Sololá	701	Sololá	3	Barraneche	1	Enero	2023-01-16T00:00:00	2024-11-06T02:00:00	7	Dirección del viento	4.83
2903	7	Sololá	701	Sololá	3	Barraneche	1	Enero	2023-01-16T00:00:00	2024-11-06T02:00:00	1	Precipitación	0
2904	7	Sololá	701	Sololá	3	Barraneche	1	Enero	2023-01-16T00:00:00	2024-11-06T02:00:00	8	Radiación solar	0
2905	7	Sololá	701	Sololá	3	Barraneche	1	Enero	2023-01-16T00:00:00	2024-11-06T03:00:00	2	Temperatura media	7.5
2906	7	Sololá	701	Sololá	3	Barraneche	1	Enero	2023-01-16T00:00:00	2024-11-06T03:00:00	4	Temperatura máxima	8.4
2907	7	Sololá	701	Sololá	3	Barraneche	1	Enero	2023-01-16T00:00:00	2024-11-06T03:00:00	3	Temperatura mínima	7.4
2908	7	Sololá	701	Sololá	3	Barraneche	1	Enero	2023-01-16T00:00:00	2024-11-06T03:00:00	5	Humedad	71
2909	7	Sololá	701	Sololá	3	Barraneche	1	Enero	2023-01-16T00:00:00	2024-11-06T03:00:00	6	Velocidad del viento	6.4
2910	7	Sololá	701	Sololá	3	Barraneche	1	Enero	2023-01-16T00:00:00	2024-11-06T03:00:00	7	Dirección del viento	6.44
2911	7	Sololá	701	Sololá	3	Barraneche	1	Enero	2023-01-16T00:00:00	2024-11-06T03:00:00	1	Precipitación	0
2912	7	Sololá	701	Sololá	3	Barraneche	1	Enero	2023-01-16T00:00:00	2024-11-06T03:00:00	8	Radiación solar	0
2913	7	Sololá	701	Sololá	3	Barraneche	1	Enero	2023-01-16T00:00:00	2024-11-06T04:00:00	2	Temperatura media	6.9
2914	7	Sololá	701	Sololá	3	Barraneche	1	Enero	2023-01-16T00:00:00	2024-11-06T04:00:00	4	Temperatura máxima	7.6
2915	7	Sololá	701	Sololá	3	Barraneche	1	Enero	2023-01-16T00:00:00	2024-11-06T04:00:00	3	Temperatura mínima	6.9
2916	7	Sololá	701	Sololá	3	Barraneche	1	Enero	2023-01-16T00:00:00	2024-11-06T04:00:00	5	Humedad	70
2917	7	Sololá	701	Sololá	3	Barraneche	1	Enero	2023-01-16T00:00:00	2024-11-06T04:00:00	6	Velocidad del viento	8
2918	7	Sololá	701	Sololá	3	Barraneche	1	Enero	2023-01-16T00:00:00	2024-11-06T04:00:00	7	Dirección del viento	8.05
2919	7	Sololá	701	Sololá	3	Barraneche	1	Enero	2023-01-16T00:00:00	2024-11-06T04:00:00	1	Precipitación	0
2920	7	Sololá	701	Sololá	3	Barraneche	1	Enero	2023-01-16T00:00:00	2024-11-06T04:00:00	8	Radiación solar	0
2921	7	Sololá	701	Sololá	3	Barraneche	1	Enero	2023-01-16T00:00:00	2024-11-06T05:00:00	2	Temperatura media	6.7
2922	7	Sololá	701	Sololá	3	Barraneche	1	Enero	2023-01-16T00:00:00	2024-11-06T05:00:00	4	Temperatura máxima	7.1
2923	7	Sololá	701	Sololá	3	Barraneche	1	Enero	2023-01-16T00:00:00	2024-11-06T05:00:00	3	Temperatura mínima	6.6
2924	7	Sololá	701	Sololá	3	Barraneche	1	Enero	2023-01-16T00:00:00	2024-11-06T05:00:00	5	Humedad	65
2925	7	Sololá	701	Sololá	3	Barraneche	1	Enero	2023-01-16T00:00:00	2024-11-06T05:00:00	6	Velocidad del viento	8
2926	7	Sololá	701	Sololá	3	Barraneche	1	Enero	2023-01-16T00:00:00	2024-11-06T05:00:00	7	Dirección del viento	8.05
2927	7	Sololá	701	Sololá	3	Barraneche	1	Enero	2023-01-16T00:00:00	2024-11-06T05:00:00	1	Precipitación	0
2928	7	Sololá	701	Sololá	3	Barraneche	1	Enero	2023-01-16T00:00:00	2024-11-06T05:00:00	8	Radiación solar	0
2929	7	Sololá	701	Sololá	3	Barraneche	1	Enero	2023-01-16T00:00:00	2024-11-06T06:00:00	2	Temperatura media	5.6
2930	7	Sololá	701	Sololá	3	Barraneche	1	Enero	2023-01-16T00:00:00	2024-11-06T06:00:00	4	Temperatura máxima	6.7
2931	7	Sololá	701	Sololá	3	Barraneche	1	Enero	2023-01-16T00:00:00	2024-11-06T06:00:00	3	Temperatura mínima	5.6
2932	7	Sololá	701	Sololá	3	Barraneche	1	Enero	2023-01-16T00:00:00	2024-11-06T06:00:00	5	Humedad	63
2933	7	Sololá	701	Sololá	3	Barraneche	1	Enero	2023-01-16T00:00:00	2024-11-06T06:00:00	6	Velocidad del viento	8
2934	7	Sololá	701	Sololá	3	Barraneche	1	Enero	2023-01-16T00:00:00	2024-11-06T06:00:00	7	Dirección del viento	8.05
2935	7	Sololá	701	Sololá	3	Barraneche	1	Enero	2023-01-16T00:00:00	2024-11-06T06:00:00	1	Precipitación	0
2936	7	Sololá	701	Sololá	3	Barraneche	1	Enero	2023-01-16T00:00:00	2024-11-06T06:00:00	8	Radiación solar	0
2937	7	Sololá	701	Sololá	3	Barraneche	1	Enero	2023-01-16T00:00:00	2024-11-06T07:00:00	2	Temperatura media	5.8
2938	7	Sololá	701	Sololá	3	Barraneche	1	Enero	2023-01-16T00:00:00	2024-11-06T07:00:00	4	Temperatura máxima	5.9
2939	7	Sololá	701	Sololá	3	Barraneche	1	Enero	2023-01-16T00:00:00	2024-11-06T07:00:00	3	Temperatura mínima	5.3
2940	7	Sololá	701	Sololá	3	Barraneche	1	Enero	2023-01-16T00:00:00	2024-11-06T07:00:00	5	Humedad	60
2941	7	Sololá	701	Sololá	3	Barraneche	1	Enero	2023-01-16T00:00:00	2024-11-06T07:00:00	6	Velocidad del viento	9.7
2942	7	Sololá	701	Sololá	3	Barraneche	1	Enero	2023-01-16T00:00:00	2024-11-06T07:00:00	7	Dirección del viento	9.66
2943	7	Sololá	701	Sololá	3	Barraneche	1	Enero	2023-01-16T00:00:00	2024-11-06T07:00:00	1	Precipitación	0
2944	7	Sololá	701	Sololá	3	Barraneche	1	Enero	2023-01-16T00:00:00	2024-11-06T07:00:00	8	Radiación solar	7
2945	7	Sololá	701	Sololá	3	Barraneche	1	Enero	2023-01-16T00:00:00	2024-11-06T08:00:00	2	Temperatura media	10.1
2946	7	Sololá	701	Sololá	3	Barraneche	1	Enero	2023-01-16T00:00:00	2024-11-06T08:00:00	4	Temperatura máxima	10.1
2947	7	Sololá	701	Sololá	3	Barraneche	1	Enero	2023-01-16T00:00:00	2024-11-06T08:00:00	3	Temperatura mínima	5.8
2948	7	Sololá	701	Sololá	3	Barraneche	1	Enero	2023-01-16T00:00:00	2024-11-06T08:00:00	5	Humedad	55
2949	7	Sololá	701	Sololá	3	Barraneche	1	Enero	2023-01-16T00:00:00	2024-11-06T08:00:00	6	Velocidad del viento	6.4
2950	7	Sololá	701	Sololá	3	Barraneche	1	Enero	2023-01-16T00:00:00	2024-11-06T08:00:00	7	Dirección del viento	6.44
2951	7	Sololá	701	Sololá	3	Barraneche	1	Enero	2023-01-16T00:00:00	2024-11-06T08:00:00	1	Precipitación	0
2952	7	Sololá	701	Sololá	3	Barraneche	1	Enero	2023-01-16T00:00:00	2024-11-06T08:00:00	8	Radiación solar	141
2953	7	Sololá	701	Sololá	3	Barraneche	1	Enero	2023-01-16T00:00:00	2024-11-06T09:00:00	2	Temperatura media	14.1
2954	7	Sololá	701	Sololá	3	Barraneche	1	Enero	2023-01-16T00:00:00	2024-11-06T09:00:00	4	Temperatura máxima	14.1
2955	7	Sololá	701	Sololá	3	Barraneche	1	Enero	2023-01-16T00:00:00	2024-11-06T09:00:00	3	Temperatura mínima	10.1
2956	7	Sololá	701	Sololá	3	Barraneche	1	Enero	2023-01-16T00:00:00	2024-11-06T09:00:00	5	Humedad	50
2957	7	Sololá	701	Sololá	3	Barraneche	1	Enero	2023-01-16T00:00:00	2024-11-06T09:00:00	6	Velocidad del viento	3.2
2958	7	Sololá	701	Sololá	3	Barraneche	1	Enero	2023-01-16T00:00:00	2024-11-06T09:00:00	7	Dirección del viento	3.22
2959	7	Sololá	701	Sololá	3	Barraneche	1	Enero	2023-01-16T00:00:00	2024-11-06T09:00:00	1	Precipitación	0
2960	7	Sololá	701	Sololá	3	Barraneche	1	Enero	2023-01-16T00:00:00	2024-11-06T09:00:00	8	Radiación solar	394
2961	7	Sololá	701	Sololá	3	Barraneche	1	Enero	2023-01-16T00:00:00	2024-11-06T10:00:00	2	Temperatura media	16.1
2962	7	Sololá	701	Sololá	3	Barraneche	1	Enero	2023-01-16T00:00:00	2024-11-06T10:00:00	4	Temperatura máxima	16.2
2963	7	Sololá	701	Sololá	3	Barraneche	1	Enero	2023-01-16T00:00:00	2024-11-06T10:00:00	3	Temperatura mínima	14.1
2964	7	Sololá	701	Sololá	3	Barraneche	1	Enero	2023-01-16T00:00:00	2024-11-06T10:00:00	5	Humedad	49
2965	7	Sololá	701	Sololá	3	Barraneche	1	Enero	2023-01-16T00:00:00	2024-11-06T10:00:00	6	Velocidad del viento	3.2
2966	7	Sololá	701	Sololá	3	Barraneche	1	Enero	2023-01-16T00:00:00	2024-11-06T10:00:00	7	Dirección del viento	3.22
2967	7	Sololá	701	Sololá	3	Barraneche	1	Enero	2023-01-16T00:00:00	2024-11-06T10:00:00	1	Precipitación	0
2968	7	Sololá	701	Sololá	3	Barraneche	1	Enero	2023-01-16T00:00:00	2024-11-06T10:00:00	8	Radiación solar	597
2969	7	Sololá	701	Sololá	3	Barraneche	1	Enero	2023-01-16T00:00:00	2024-11-06T11:00:00	2	Temperatura media	17.1
2970	7	Sololá	701	Sololá	3	Barraneche	1	Enero	2023-01-16T00:00:00	2024-11-06T11:00:00	4	Temperatura máxima	17.2
2971	7	Sololá	701	Sololá	3	Barraneche	1	Enero	2023-01-16T00:00:00	2024-11-06T11:00:00	3	Temperatura mínima	16.1
2972	7	Sololá	701	Sololá	3	Barraneche	1	Enero	2023-01-16T00:00:00	2024-11-06T11:00:00	5	Humedad	52
2973	7	Sololá	701	Sololá	3	Barraneche	1	Enero	2023-01-16T00:00:00	2024-11-06T11:00:00	6	Velocidad del viento	9.7
2974	7	Sololá	701	Sololá	3	Barraneche	1	Enero	2023-01-16T00:00:00	2024-11-06T11:00:00	7	Dirección del viento	9.66
2975	7	Sololá	701	Sololá	3	Barraneche	1	Enero	2023-01-16T00:00:00	2024-11-06T11:00:00	1	Precipitación	0
2976	7	Sololá	701	Sololá	3	Barraneche	1	Enero	2023-01-16T00:00:00	2024-11-06T11:00:00	8	Radiación solar	738
2977	7	Sololá	701	Sololá	3	Barraneche	1	Enero	2023-01-16T00:00:00	2024-11-06T12:00:00	2	Temperatura media	17.5
2978	7	Sololá	701	Sololá	3	Barraneche	1	Enero	2023-01-16T00:00:00	2024-11-06T12:00:00	4	Temperatura máxima	17.8
2979	7	Sololá	701	Sololá	3	Barraneche	1	Enero	2023-01-16T00:00:00	2024-11-06T12:00:00	3	Temperatura mínima	17
2980	7	Sololá	701	Sololá	3	Barraneche	1	Enero	2023-01-16T00:00:00	2024-11-06T12:00:00	5	Humedad	49
2981	7	Sololá	701	Sololá	3	Barraneche	1	Enero	2023-01-16T00:00:00	2024-11-06T12:00:00	6	Velocidad del viento	12.9
2982	7	Sololá	701	Sololá	3	Barraneche	1	Enero	2023-01-16T00:00:00	2024-11-06T12:00:00	7	Dirección del viento	12.87
2983	7	Sololá	701	Sololá	3	Barraneche	1	Enero	2023-01-16T00:00:00	2024-11-06T12:00:00	1	Precipitación	0
2984	7	Sololá	701	Sololá	3	Barraneche	1	Enero	2023-01-16T00:00:00	2024-11-06T12:00:00	8	Radiación solar	814
2985	7	Sololá	701	Sololá	3	Barraneche	1	Enero	2023-01-16T00:00:00	2024-11-06T13:00:00	2	Temperatura media	17.9
2986	7	Sololá	701	Sololá	3	Barraneche	1	Enero	2023-01-16T00:00:00	2024-11-06T13:00:00	4	Temperatura máxima	17.9
2987	7	Sololá	701	Sololá	3	Barraneche	1	Enero	2023-01-16T00:00:00	2024-11-06T13:00:00	3	Temperatura mínima	17.3
2988	7	Sololá	701	Sololá	3	Barraneche	1	Enero	2023-01-16T00:00:00	2024-11-06T13:00:00	5	Humedad	48
2989	7	Sololá	701	Sololá	3	Barraneche	1	Enero	2023-01-16T00:00:00	2024-11-06T13:00:00	6	Velocidad del viento	12.9
2990	7	Sololá	701	Sololá	3	Barraneche	1	Enero	2023-01-16T00:00:00	2024-11-06T13:00:00	7	Dirección del viento	12.87
2991	7	Sololá	701	Sololá	3	Barraneche	1	Enero	2023-01-16T00:00:00	2024-11-06T13:00:00	1	Precipitación	0
2992	7	Sololá	701	Sololá	3	Barraneche	1	Enero	2023-01-16T00:00:00	2024-11-06T13:00:00	8	Radiación solar	828
2993	7	Sololá	701	Sololá	3	Barraneche	1	Enero	2023-01-16T00:00:00	2024-11-06T14:00:00	2	Temperatura media	17.1
2994	7	Sololá	701	Sololá	3	Barraneche	1	Enero	2023-01-16T00:00:00	2024-11-06T14:00:00	4	Temperatura máxima	17.9
2995	7	Sololá	701	Sololá	3	Barraneche	1	Enero	2023-01-16T00:00:00	2024-11-06T14:00:00	3	Temperatura mínima	17.1
2996	7	Sololá	701	Sololá	3	Barraneche	1	Enero	2023-01-16T00:00:00	2024-11-06T14:00:00	5	Humedad	59
2997	7	Sololá	701	Sololá	3	Barraneche	1	Enero	2023-01-16T00:00:00	2024-11-06T14:00:00	6	Velocidad del viento	11.3
2998	7	Sololá	701	Sololá	3	Barraneche	1	Enero	2023-01-16T00:00:00	2024-11-06T14:00:00	7	Dirección del viento	11.27
2999	7	Sololá	701	Sololá	3	Barraneche	1	Enero	2023-01-16T00:00:00	2024-11-06T14:00:00	1	Precipitación	0
3000	7	Sololá	701	Sololá	3	Barraneche	1	Enero	2023-01-16T00:00:00	2024-11-06T14:00:00	8	Radiación solar	775
3001	7	Sololá	701	Sololá	3	Barraneche	1	Enero	2023-01-16T00:00:00	2024-11-06T15:00:00	2	Temperatura media	16.3
3002	7	Sololá	701	Sololá	3	Barraneche	1	Enero	2023-01-16T00:00:00	2024-11-06T15:00:00	4	Temperatura máxima	17.1
3003	7	Sololá	701	Sololá	3	Barraneche	1	Enero	2023-01-16T00:00:00	2024-11-06T15:00:00	3	Temperatura mínima	16.3
3004	7	Sololá	701	Sololá	3	Barraneche	1	Enero	2023-01-16T00:00:00	2024-11-06T15:00:00	5	Humedad	63
3005	7	Sololá	701	Sololá	3	Barraneche	1	Enero	2023-01-16T00:00:00	2024-11-06T15:00:00	6	Velocidad del viento	12.9
3006	7	Sololá	701	Sololá	3	Barraneche	1	Enero	2023-01-16T00:00:00	2024-11-06T15:00:00	7	Dirección del viento	12.87
3007	7	Sololá	701	Sololá	3	Barraneche	1	Enero	2023-01-16T00:00:00	2024-11-06T15:00:00	1	Precipitación	0
3008	7	Sololá	701	Sololá	3	Barraneche	1	Enero	2023-01-16T00:00:00	2024-11-06T15:00:00	8	Radiación solar	654
3009	7	Sololá	701	Sololá	3	Barraneche	1	Enero	2023-01-16T00:00:00	2024-11-06T16:00:00	2	Temperatura media	15.3
3010	7	Sololá	701	Sololá	3	Barraneche	1	Enero	2023-01-16T00:00:00	2024-11-06T16:00:00	4	Temperatura máxima	16.3
3011	7	Sololá	701	Sololá	3	Barraneche	1	Enero	2023-01-16T00:00:00	2024-11-06T16:00:00	3	Temperatura mínima	15.3
3012	7	Sololá	701	Sololá	3	Barraneche	1	Enero	2023-01-16T00:00:00	2024-11-06T16:00:00	5	Humedad	66
3013	7	Sololá	701	Sololá	3	Barraneche	1	Enero	2023-01-16T00:00:00	2024-11-06T16:00:00	6	Velocidad del viento	11.3
3014	7	Sololá	701	Sololá	3	Barraneche	1	Enero	2023-01-16T00:00:00	2024-11-06T16:00:00	7	Dirección del viento	11.27
3015	7	Sololá	701	Sololá	3	Barraneche	1	Enero	2023-01-16T00:00:00	2024-11-06T16:00:00	1	Precipitación	0
3016	7	Sololá	701	Sololá	3	Barraneche	1	Enero	2023-01-16T00:00:00	2024-11-06T16:00:00	8	Radiación solar	484
3017	7	Sololá	701	Sololá	3	Barraneche	1	Enero	2023-01-16T00:00:00	2024-11-06T17:00:00	2	Temperatura media	14.2
3018	7	Sololá	701	Sololá	3	Barraneche	1	Enero	2023-01-16T00:00:00	2024-11-06T17:00:00	4	Temperatura máxima	15.3
3019	7	Sololá	701	Sololá	3	Barraneche	1	Enero	2023-01-16T00:00:00	2024-11-06T17:00:00	3	Temperatura mínima	14.2
3020	7	Sololá	701	Sololá	3	Barraneche	1	Enero	2023-01-16T00:00:00	2024-11-06T17:00:00	5	Humedad	70
3021	7	Sololá	701	Sololá	3	Barraneche	1	Enero	2023-01-16T00:00:00	2024-11-06T17:00:00	6	Velocidad del viento	8
3022	7	Sololá	701	Sololá	3	Barraneche	1	Enero	2023-01-16T00:00:00	2024-11-06T17:00:00	7	Dirección del viento	8.05
3023	7	Sololá	701	Sololá	3	Barraneche	1	Enero	2023-01-16T00:00:00	2024-11-06T17:00:00	1	Precipitación	0
3024	7	Sololá	701	Sololá	3	Barraneche	1	Enero	2023-01-16T00:00:00	2024-11-06T17:00:00	8	Radiación solar	135
3025	7	Sololá	701	Sololá	3	Barraneche	1	Enero	2023-01-16T00:00:00	2024-11-06T18:00:00	2	Temperatura media	13.3
3026	7	Sololá	701	Sololá	3	Barraneche	1	Enero	2023-01-16T00:00:00	2024-11-06T18:00:00	4	Temperatura máxima	14.2
3027	7	Sololá	701	Sololá	3	Barraneche	1	Enero	2023-01-16T00:00:00	2024-11-06T18:00:00	3	Temperatura mínima	13.3
3028	7	Sololá	701	Sololá	3	Barraneche	1	Enero	2023-01-16T00:00:00	2024-11-06T18:00:00	5	Humedad	74
3029	7	Sololá	701	Sololá	3	Barraneche	1	Enero	2023-01-16T00:00:00	2024-11-06T18:00:00	6	Velocidad del viento	4.8
3030	7	Sololá	701	Sololá	3	Barraneche	1	Enero	2023-01-16T00:00:00	2024-11-06T18:00:00	7	Dirección del viento	4.83
3031	7	Sololá	701	Sololá	3	Barraneche	1	Enero	2023-01-16T00:00:00	2024-11-06T18:00:00	1	Precipitación	0
3032	7	Sololá	701	Sololá	3	Barraneche	1	Enero	2023-01-16T00:00:00	2024-11-06T18:00:00	8	Radiación solar	27
3033	7	Sololá	701	Sololá	3	Barraneche	1	Enero	2023-01-16T00:00:00	2024-11-06T19:00:00	2	Temperatura media	12.8
3034	7	Sololá	701	Sololá	3	Barraneche	1	Enero	2023-01-16T00:00:00	2024-11-06T19:00:00	4	Temperatura máxima	13.3
3035	7	Sololá	701	Sololá	3	Barraneche	1	Enero	2023-01-16T00:00:00	2024-11-06T19:00:00	3	Temperatura mínima	12.8
3036	7	Sololá	701	Sololá	3	Barraneche	1	Enero	2023-01-16T00:00:00	2024-11-06T19:00:00	5	Humedad	81
3037	7	Sololá	701	Sololá	3	Barraneche	1	Enero	2023-01-16T00:00:00	2024-11-06T19:00:00	6	Velocidad del viento	4.8
3038	7	Sololá	701	Sololá	3	Barraneche	1	Enero	2023-01-16T00:00:00	2024-11-06T19:00:00	7	Dirección del viento	4.83
3039	7	Sololá	701	Sololá	3	Barraneche	1	Enero	2023-01-16T00:00:00	2024-11-06T19:00:00	1	Precipitación	0
3040	7	Sololá	701	Sololá	3	Barraneche	1	Enero	2023-01-16T00:00:00	2024-11-06T19:00:00	8	Radiación solar	0
3041	7	Sololá	701	Sololá	3	Barraneche	1	Enero	2023-01-16T00:00:00	2024-11-06T20:00:00	2	Temperatura media	12.7
3042	7	Sololá	701	Sololá	3	Barraneche	1	Enero	2023-01-16T00:00:00	2024-11-06T20:00:00	4	Temperatura máxima	12.8
3043	7	Sololá	701	Sololá	3	Barraneche	1	Enero	2023-01-16T00:00:00	2024-11-06T20:00:00	3	Temperatura mínima	12.5
3044	7	Sololá	701	Sololá	3	Barraneche	1	Enero	2023-01-16T00:00:00	2024-11-06T20:00:00	5	Humedad	81
3045	7	Sololá	701	Sololá	3	Barraneche	1	Enero	2023-01-16T00:00:00	2024-11-06T20:00:00	6	Velocidad del viento	3.2
3046	7	Sololá	701	Sololá	3	Barraneche	1	Enero	2023-01-16T00:00:00	2024-11-06T20:00:00	7	Dirección del viento	3.22
3047	7	Sololá	701	Sololá	3	Barraneche	1	Enero	2023-01-16T00:00:00	2024-11-06T20:00:00	1	Precipitación	0
3048	7	Sololá	701	Sololá	3	Barraneche	1	Enero	2023-01-16T00:00:00	2024-11-06T20:00:00	8	Radiación solar	0
3049	7	Sololá	701	Sololá	3	Barraneche	1	Enero	2023-01-16T00:00:00	2024-11-06T21:00:00	2	Temperatura media	11.3
3050	7	Sololá	701	Sololá	3	Barraneche	1	Enero	2023-01-16T00:00:00	2024-11-06T21:00:00	4	Temperatura máxima	12.8
3051	7	Sololá	701	Sololá	3	Barraneche	1	Enero	2023-01-16T00:00:00	2024-11-06T21:00:00	3	Temperatura mínima	11.3
3052	7	Sololá	701	Sololá	3	Barraneche	1	Enero	2023-01-16T00:00:00	2024-11-06T21:00:00	5	Humedad	72
3053	7	Sololá	701	Sololá	3	Barraneche	1	Enero	2023-01-16T00:00:00	2024-11-06T21:00:00	6	Velocidad del viento	1.6
3054	7	Sololá	701	Sololá	3	Barraneche	1	Enero	2023-01-16T00:00:00	2024-11-06T21:00:00	7	Dirección del viento	1.61
3055	7	Sololá	701	Sololá	3	Barraneche	1	Enero	2023-01-16T00:00:00	2024-11-06T21:00:00	1	Precipitación	0
3056	7	Sololá	701	Sololá	3	Barraneche	1	Enero	2023-01-16T00:00:00	2024-11-06T21:00:00	8	Radiación solar	0
3057	7	Sololá	701	Sololá	3	Barraneche	1	Enero	2023-01-16T00:00:00	2024-11-06T22:00:00	2	Temperatura media	10.4
3058	7	Sololá	701	Sololá	3	Barraneche	1	Enero	2023-01-16T00:00:00	2024-11-06T22:00:00	4	Temperatura máxima	11.3
3059	7	Sololá	701	Sololá	3	Barraneche	1	Enero	2023-01-16T00:00:00	2024-11-06T22:00:00	3	Temperatura mínima	10.4
3060	7	Sololá	701	Sololá	3	Barraneche	1	Enero	2023-01-16T00:00:00	2024-11-06T22:00:00	5	Humedad	71
3061	7	Sololá	701	Sololá	3	Barraneche	1	Enero	2023-01-16T00:00:00	2024-11-06T22:00:00	6	Velocidad del viento	4.8
3062	7	Sololá	701	Sololá	3	Barraneche	1	Enero	2023-01-16T00:00:00	2024-11-06T22:00:00	7	Dirección del viento	4.83
3063	7	Sololá	701	Sololá	3	Barraneche	1	Enero	2023-01-16T00:00:00	2024-11-06T22:00:00	1	Precipitación	0
3064	7	Sololá	701	Sololá	3	Barraneche	1	Enero	2023-01-16T00:00:00	2024-11-06T22:00:00	8	Radiación solar	0
3065	7	Sololá	701	Sololá	3	Barraneche	1	Enero	2023-01-16T00:00:00	2024-11-06T23:00:00	2	Temperatura media	10.3
3066	7	Sololá	701	Sololá	3	Barraneche	1	Enero	2023-01-16T00:00:00	2024-11-06T23:00:00	4	Temperatura máxima	10.8
3067	7	Sololá	701	Sololá	3	Barraneche	1	Enero	2023-01-16T00:00:00	2024-11-06T23:00:00	3	Temperatura mínima	10.2
3068	7	Sololá	701	Sololá	3	Barraneche	1	Enero	2023-01-16T00:00:00	2024-11-06T23:00:00	5	Humedad	69
3069	7	Sololá	701	Sololá	3	Barraneche	1	Enero	2023-01-16T00:00:00	2024-11-06T23:00:00	6	Velocidad del viento	6.4
3070	7	Sololá	701	Sololá	3	Barraneche	1	Enero	2023-01-16T00:00:00	2024-11-06T23:00:00	7	Dirección del viento	6.44
3071	7	Sololá	701	Sololá	3	Barraneche	1	Enero	2023-01-16T00:00:00	2024-11-06T23:00:00	1	Precipitación	0
3072	7	Sololá	701	Sololá	3	Barraneche	1	Enero	2023-01-16T00:00:00	2024-11-06T23:00:00	8	Radiación solar	0
3073	7	Sololá	701	Sololá	3	Barraneche	1	Enero	2023-01-17T00:00:00	2024-11-06T00:00:00	2	Temperatura media	9.1
3074	7	Sololá	701	Sololá	3	Barraneche	1	Enero	2023-01-17T00:00:00	2024-11-06T00:00:00	4	Temperatura máxima	10.4
3075	7	Sololá	701	Sololá	3	Barraneche	1	Enero	2023-01-17T00:00:00	2024-11-06T00:00:00	3	Temperatura mínima	9.1
3076	7	Sololá	701	Sololá	3	Barraneche	1	Enero	2023-01-17T00:00:00	2024-11-06T00:00:00	5	Humedad	73
3077	7	Sololá	701	Sololá	3	Barraneche	1	Enero	2023-01-17T00:00:00	2024-11-06T00:00:00	6	Velocidad del viento	3.2
3078	7	Sololá	701	Sololá	3	Barraneche	1	Enero	2023-01-17T00:00:00	2024-11-06T00:00:00	7	Dirección del viento	3.22
3079	7	Sololá	701	Sololá	3	Barraneche	1	Enero	2023-01-17T00:00:00	2024-11-06T00:00:00	1	Precipitación	0
3080	7	Sololá	701	Sololá	3	Barraneche	1	Enero	2023-01-17T00:00:00	2024-11-06T00:00:00	8	Radiación solar	0
3081	7	Sololá	701	Sololá	3	Barraneche	1	Enero	2023-01-17T00:00:00	2024-11-06T01:00:00	2	Temperatura media	8.1
3082	7	Sololá	701	Sololá	3	Barraneche	1	Enero	2023-01-17T00:00:00	2024-11-06T01:00:00	4	Temperatura máxima	9
3083	7	Sololá	701	Sololá	3	Barraneche	1	Enero	2023-01-17T00:00:00	2024-11-06T01:00:00	3	Temperatura mínima	8.1
3084	7	Sololá	701	Sololá	3	Barraneche	1	Enero	2023-01-17T00:00:00	2024-11-06T01:00:00	5	Humedad	70
3085	7	Sololá	701	Sololá	3	Barraneche	1	Enero	2023-01-17T00:00:00	2024-11-06T01:00:00	6	Velocidad del viento	4.8
3086	7	Sololá	701	Sololá	3	Barraneche	1	Enero	2023-01-17T00:00:00	2024-11-06T01:00:00	7	Dirección del viento	4.83
3087	7	Sololá	701	Sololá	3	Barraneche	1	Enero	2023-01-17T00:00:00	2024-11-06T01:00:00	1	Precipitación	0
3088	7	Sololá	701	Sololá	3	Barraneche	1	Enero	2023-01-17T00:00:00	2024-11-06T01:00:00	8	Radiación solar	0
3089	7	Sololá	701	Sololá	3	Barraneche	1	Enero	2023-01-17T00:00:00	2024-11-06T02:00:00	2	Temperatura media	8.3
3090	7	Sololá	701	Sololá	3	Barraneche	1	Enero	2023-01-17T00:00:00	2024-11-06T02:00:00	4	Temperatura máxima	8.3
3091	7	Sololá	701	Sololá	3	Barraneche	1	Enero	2023-01-17T00:00:00	2024-11-06T02:00:00	3	Temperatura mínima	7.7
3092	7	Sololá	701	Sololá	3	Barraneche	1	Enero	2023-01-17T00:00:00	2024-11-06T02:00:00	5	Humedad	68
3093	7	Sololá	701	Sololá	3	Barraneche	1	Enero	2023-01-17T00:00:00	2024-11-06T02:00:00	6	Velocidad del viento	6.4
3094	7	Sololá	701	Sololá	3	Barraneche	1	Enero	2023-01-17T00:00:00	2024-11-06T02:00:00	7	Dirección del viento	6.44
3095	7	Sololá	701	Sololá	3	Barraneche	1	Enero	2023-01-17T00:00:00	2024-11-06T02:00:00	1	Precipitación	0
3096	7	Sololá	701	Sololá	3	Barraneche	1	Enero	2023-01-17T00:00:00	2024-11-06T02:00:00	8	Radiación solar	0
3097	7	Sololá	701	Sololá	3	Barraneche	1	Enero	2023-01-17T00:00:00	2024-11-06T03:00:00	2	Temperatura media	7.9
3098	7	Sololá	701	Sololá	3	Barraneche	1	Enero	2023-01-17T00:00:00	2024-11-06T03:00:00	4	Temperatura máxima	8.6
3099	7	Sololá	701	Sololá	3	Barraneche	1	Enero	2023-01-17T00:00:00	2024-11-06T03:00:00	3	Temperatura mínima	7.4
3100	7	Sololá	701	Sololá	3	Barraneche	1	Enero	2023-01-17T00:00:00	2024-11-06T03:00:00	5	Humedad	67
3101	7	Sololá	701	Sololá	3	Barraneche	1	Enero	2023-01-17T00:00:00	2024-11-06T03:00:00	6	Velocidad del viento	8
3102	7	Sololá	701	Sololá	3	Barraneche	1	Enero	2023-01-17T00:00:00	2024-11-06T03:00:00	7	Dirección del viento	8.05
3103	7	Sololá	701	Sololá	3	Barraneche	1	Enero	2023-01-17T00:00:00	2024-11-06T03:00:00	1	Precipitación	0
3104	7	Sololá	701	Sololá	3	Barraneche	1	Enero	2023-01-17T00:00:00	2024-11-06T03:00:00	8	Radiación solar	0
3105	7	Sololá	701	Sololá	3	Barraneche	1	Enero	2023-01-17T00:00:00	2024-11-06T04:00:00	2	Temperatura media	6.7
3106	7	Sololá	701	Sololá	3	Barraneche	1	Enero	2023-01-17T00:00:00	2024-11-06T04:00:00	4	Temperatura máxima	8.3
3107	7	Sololá	701	Sololá	3	Barraneche	1	Enero	2023-01-17T00:00:00	2024-11-06T04:00:00	3	Temperatura mínima	6.4
3108	7	Sololá	701	Sololá	3	Barraneche	1	Enero	2023-01-17T00:00:00	2024-11-06T04:00:00	5	Humedad	66
3109	7	Sololá	701	Sololá	3	Barraneche	1	Enero	2023-01-17T00:00:00	2024-11-06T04:00:00	6	Velocidad del viento	8
3110	7	Sololá	701	Sololá	3	Barraneche	1	Enero	2023-01-17T00:00:00	2024-11-06T04:00:00	7	Dirección del viento	8.05
3111	7	Sololá	701	Sololá	3	Barraneche	1	Enero	2023-01-17T00:00:00	2024-11-06T04:00:00	1	Precipitación	0
3112	7	Sololá	701	Sololá	3	Barraneche	1	Enero	2023-01-17T00:00:00	2024-11-06T04:00:00	8	Radiación solar	0
3113	7	Sololá	701	Sololá	3	Barraneche	1	Enero	2023-01-17T00:00:00	2024-11-06T05:00:00	2	Temperatura media	8.2
3114	7	Sololá	701	Sololá	3	Barraneche	1	Enero	2023-01-17T00:00:00	2024-11-06T05:00:00	4	Temperatura máxima	8.2
3115	7	Sololá	701	Sololá	3	Barraneche	1	Enero	2023-01-17T00:00:00	2024-11-06T05:00:00	3	Temperatura mínima	6.7
3116	7	Sololá	701	Sololá	3	Barraneche	1	Enero	2023-01-17T00:00:00	2024-11-06T05:00:00	5	Humedad	60
3117	7	Sololá	701	Sololá	3	Barraneche	1	Enero	2023-01-17T00:00:00	2024-11-06T05:00:00	6	Velocidad del viento	8
3118	7	Sololá	701	Sololá	3	Barraneche	1	Enero	2023-01-17T00:00:00	2024-11-06T05:00:00	7	Dirección del viento	8.05
3119	7	Sololá	701	Sololá	3	Barraneche	1	Enero	2023-01-17T00:00:00	2024-11-06T05:00:00	1	Precipitación	0
3120	7	Sololá	701	Sololá	3	Barraneche	1	Enero	2023-01-17T00:00:00	2024-11-06T05:00:00	8	Radiación solar	0
3121	7	Sololá	701	Sololá	3	Barraneche	1	Enero	2023-01-17T00:00:00	2024-11-06T06:00:00	2	Temperatura media	8.6
3122	7	Sololá	701	Sololá	3	Barraneche	1	Enero	2023-01-17T00:00:00	2024-11-06T06:00:00	4	Temperatura máxima	8.6
3123	7	Sololá	701	Sololá	3	Barraneche	1	Enero	2023-01-17T00:00:00	2024-11-06T06:00:00	3	Temperatura mínima	8.1
3124	7	Sololá	701	Sololá	3	Barraneche	1	Enero	2023-01-17T00:00:00	2024-11-06T06:00:00	5	Humedad	57
3125	7	Sololá	701	Sololá	3	Barraneche	1	Enero	2023-01-17T00:00:00	2024-11-06T06:00:00	6	Velocidad del viento	8
3126	7	Sololá	701	Sololá	3	Barraneche	1	Enero	2023-01-17T00:00:00	2024-11-06T06:00:00	7	Dirección del viento	8.05
3127	7	Sololá	701	Sololá	3	Barraneche	1	Enero	2023-01-17T00:00:00	2024-11-06T06:00:00	1	Precipitación	0
3128	7	Sololá	701	Sololá	3	Barraneche	1	Enero	2023-01-17T00:00:00	2024-11-06T06:00:00	8	Radiación solar	0
3129	7	Sololá	701	Sololá	3	Barraneche	1	Enero	2023-01-17T00:00:00	2024-11-06T07:00:00	2	Temperatura media	8.8
3130	7	Sololá	701	Sololá	3	Barraneche	1	Enero	2023-01-17T00:00:00	2024-11-06T07:00:00	4	Temperatura máxima	8.9
3131	7	Sololá	701	Sololá	3	Barraneche	1	Enero	2023-01-17T00:00:00	2024-11-06T07:00:00	3	Temperatura mínima	8.5
3132	7	Sololá	701	Sololá	3	Barraneche	1	Enero	2023-01-17T00:00:00	2024-11-06T07:00:00	5	Humedad	57
3133	7	Sololá	701	Sololá	3	Barraneche	1	Enero	2023-01-17T00:00:00	2024-11-06T07:00:00	6	Velocidad del viento	8
3134	7	Sololá	701	Sololá	3	Barraneche	1	Enero	2023-01-17T00:00:00	2024-11-06T07:00:00	7	Dirección del viento	8.05
3135	7	Sololá	701	Sololá	3	Barraneche	1	Enero	2023-01-17T00:00:00	2024-11-06T07:00:00	1	Precipitación	0
3136	7	Sololá	701	Sololá	3	Barraneche	1	Enero	2023-01-17T00:00:00	2024-11-06T07:00:00	8	Radiación solar	6
3137	7	Sololá	701	Sololá	3	Barraneche	1	Enero	2023-01-17T00:00:00	2024-11-06T08:00:00	2	Temperatura media	12.6
3138	7	Sololá	701	Sololá	3	Barraneche	1	Enero	2023-01-17T00:00:00	2024-11-06T08:00:00	4	Temperatura máxima	12.6
3139	7	Sololá	701	Sololá	3	Barraneche	1	Enero	2023-01-17T00:00:00	2024-11-06T08:00:00	3	Temperatura mínima	8.7
3140	7	Sololá	701	Sololá	3	Barraneche	1	Enero	2023-01-17T00:00:00	2024-11-06T08:00:00	5	Humedad	55
3141	7	Sololá	701	Sololá	3	Barraneche	1	Enero	2023-01-17T00:00:00	2024-11-06T08:00:00	6	Velocidad del viento	6.4
3142	7	Sololá	701	Sololá	3	Barraneche	1	Enero	2023-01-17T00:00:00	2024-11-06T08:00:00	7	Dirección del viento	6.44
3143	7	Sololá	701	Sololá	3	Barraneche	1	Enero	2023-01-17T00:00:00	2024-11-06T08:00:00	1	Precipitación	0
3144	7	Sololá	701	Sololá	3	Barraneche	1	Enero	2023-01-17T00:00:00	2024-11-06T08:00:00	8	Radiación solar	135
3145	7	Sololá	701	Sololá	3	Barraneche	1	Enero	2023-01-17T00:00:00	2024-11-06T09:00:00	2	Temperatura media	16.1
3146	7	Sololá	701	Sololá	3	Barraneche	1	Enero	2023-01-17T00:00:00	2024-11-06T09:00:00	4	Temperatura máxima	16.1
3147	7	Sololá	701	Sololá	3	Barraneche	1	Enero	2023-01-17T00:00:00	2024-11-06T09:00:00	3	Temperatura mínima	12.6
3148	7	Sololá	701	Sololá	3	Barraneche	1	Enero	2023-01-17T00:00:00	2024-11-06T09:00:00	5	Humedad	49
3149	7	Sololá	701	Sololá	3	Barraneche	1	Enero	2023-01-17T00:00:00	2024-11-06T09:00:00	6	Velocidad del viento	4.8
3150	7	Sololá	701	Sololá	3	Barraneche	1	Enero	2023-01-17T00:00:00	2024-11-06T09:00:00	7	Dirección del viento	4.83
3151	7	Sololá	701	Sololá	3	Barraneche	1	Enero	2023-01-17T00:00:00	2024-11-06T09:00:00	1	Precipitación	0
3152	7	Sololá	701	Sololá	3	Barraneche	1	Enero	2023-01-17T00:00:00	2024-11-06T09:00:00	8	Radiación solar	378
3153	7	Sololá	701	Sololá	3	Barraneche	1	Enero	2023-01-17T00:00:00	2024-11-06T10:00:00	2	Temperatura media	17.3
3154	7	Sololá	701	Sololá	3	Barraneche	1	Enero	2023-01-17T00:00:00	2024-11-06T10:00:00	4	Temperatura máxima	17.3
3155	7	Sololá	701	Sololá	3	Barraneche	1	Enero	2023-01-17T00:00:00	2024-11-06T10:00:00	3	Temperatura mínima	16.1
3156	7	Sololá	701	Sololá	3	Barraneche	1	Enero	2023-01-17T00:00:00	2024-11-06T10:00:00	5	Humedad	46
3157	7	Sololá	701	Sololá	3	Barraneche	1	Enero	2023-01-17T00:00:00	2024-11-06T10:00:00	6	Velocidad del viento	8
3158	7	Sololá	701	Sololá	3	Barraneche	1	Enero	2023-01-17T00:00:00	2024-11-06T10:00:00	7	Dirección del viento	8.05
3159	7	Sololá	701	Sololá	3	Barraneche	1	Enero	2023-01-17T00:00:00	2024-11-06T10:00:00	1	Precipitación	0
3160	7	Sololá	701	Sololá	3	Barraneche	1	Enero	2023-01-17T00:00:00	2024-11-06T10:00:00	8	Radiación solar	573
3161	7	Sololá	701	Sololá	3	Barraneche	1	Enero	2023-01-17T00:00:00	2024-11-06T11:00:00	2	Temperatura media	17.7
3162	7	Sololá	701	Sololá	3	Barraneche	1	Enero	2023-01-17T00:00:00	2024-11-06T11:00:00	4	Temperatura máxima	18.1
3163	7	Sololá	701	Sololá	3	Barraneche	1	Enero	2023-01-17T00:00:00	2024-11-06T11:00:00	3	Temperatura mínima	17.2
3164	7	Sololá	701	Sololá	3	Barraneche	1	Enero	2023-01-17T00:00:00	2024-11-06T11:00:00	5	Humedad	50
3165	7	Sololá	701	Sololá	3	Barraneche	1	Enero	2023-01-17T00:00:00	2024-11-06T11:00:00	6	Velocidad del viento	9.7
3166	7	Sololá	701	Sololá	3	Barraneche	1	Enero	2023-01-17T00:00:00	2024-11-06T11:00:00	7	Dirección del viento	9.66
3167	7	Sololá	701	Sololá	3	Barraneche	1	Enero	2023-01-17T00:00:00	2024-11-06T11:00:00	1	Precipitación	0
3168	7	Sololá	701	Sololá	3	Barraneche	1	Enero	2023-01-17T00:00:00	2024-11-06T11:00:00	8	Radiación solar	734
3169	7	Sololá	701	Sololá	3	Barraneche	1	Enero	2023-01-17T00:00:00	2024-11-06T12:00:00	2	Temperatura media	17.2
3170	7	Sololá	701	Sololá	3	Barraneche	1	Enero	2023-01-17T00:00:00	2024-11-06T12:00:00	4	Temperatura máxima	17.7
3171	7	Sololá	701	Sololá	3	Barraneche	1	Enero	2023-01-17T00:00:00	2024-11-06T12:00:00	3	Temperatura mínima	17.2
3172	7	Sololá	701	Sololá	3	Barraneche	1	Enero	2023-01-17T00:00:00	2024-11-06T12:00:00	5	Humedad	49
3173	7	Sololá	701	Sololá	3	Barraneche	1	Enero	2023-01-17T00:00:00	2024-11-06T12:00:00	6	Velocidad del viento	14.5
3174	7	Sololá	701	Sololá	3	Barraneche	1	Enero	2023-01-17T00:00:00	2024-11-06T12:00:00	7	Dirección del viento	14.48
3175	7	Sololá	701	Sololá	3	Barraneche	1	Enero	2023-01-17T00:00:00	2024-11-06T12:00:00	1	Precipitación	0
3176	7	Sololá	701	Sololá	3	Barraneche	1	Enero	2023-01-17T00:00:00	2024-11-06T12:00:00	8	Radiación solar	811
3177	7	Sololá	701	Sololá	3	Barraneche	1	Enero	2023-01-17T00:00:00	2024-11-06T13:00:00	2	Temperatura media	16.7
3178	7	Sololá	701	Sololá	3	Barraneche	1	Enero	2023-01-17T00:00:00	2024-11-06T13:00:00	4	Temperatura máxima	17.5
3179	7	Sololá	701	Sololá	3	Barraneche	1	Enero	2023-01-17T00:00:00	2024-11-06T13:00:00	3	Temperatura mínima	16.7
3180	7	Sololá	701	Sololá	3	Barraneche	1	Enero	2023-01-17T00:00:00	2024-11-06T13:00:00	5	Humedad	60
3181	7	Sololá	701	Sololá	3	Barraneche	1	Enero	2023-01-17T00:00:00	2024-11-06T13:00:00	6	Velocidad del viento	14.5
3182	7	Sololá	701	Sololá	3	Barraneche	1	Enero	2023-01-17T00:00:00	2024-11-06T13:00:00	7	Dirección del viento	14.48
3183	7	Sololá	701	Sololá	3	Barraneche	1	Enero	2023-01-17T00:00:00	2024-11-06T13:00:00	1	Precipitación	0
3184	7	Sololá	701	Sololá	3	Barraneche	1	Enero	2023-01-17T00:00:00	2024-11-06T13:00:00	8	Radiación solar	829
3185	7	Sololá	701	Sololá	3	Barraneche	1	Enero	2023-01-17T00:00:00	2024-11-06T14:00:00	2	Temperatura media	16.2
3186	7	Sololá	701	Sololá	3	Barraneche	1	Enero	2023-01-17T00:00:00	2024-11-06T14:00:00	4	Temperatura máxima	16.7
3187	7	Sololá	701	Sololá	3	Barraneche	1	Enero	2023-01-17T00:00:00	2024-11-06T14:00:00	3	Temperatura mínima	15.9
3188	7	Sololá	701	Sololá	3	Barraneche	1	Enero	2023-01-17T00:00:00	2024-11-06T14:00:00	5	Humedad	63
3189	7	Sololá	701	Sololá	3	Barraneche	1	Enero	2023-01-17T00:00:00	2024-11-06T14:00:00	6	Velocidad del viento	14.5
3190	7	Sololá	701	Sololá	3	Barraneche	1	Enero	2023-01-17T00:00:00	2024-11-06T14:00:00	7	Dirección del viento	14.48
3191	7	Sololá	701	Sololá	3	Barraneche	1	Enero	2023-01-17T00:00:00	2024-11-06T14:00:00	1	Precipitación	0
3192	7	Sololá	701	Sololá	3	Barraneche	1	Enero	2023-01-17T00:00:00	2024-11-06T14:00:00	8	Radiación solar	790
3193	7	Sololá	701	Sololá	3	Barraneche	1	Enero	2023-01-17T00:00:00	2024-11-06T15:00:00	2	Temperatura media	15.2
3194	7	Sololá	701	Sololá	3	Barraneche	1	Enero	2023-01-17T00:00:00	2024-11-06T15:00:00	4	Temperatura máxima	16.3
3195	7	Sololá	701	Sololá	3	Barraneche	1	Enero	2023-01-17T00:00:00	2024-11-06T15:00:00	3	Temperatura mínima	15.1
3196	7	Sololá	701	Sololá	3	Barraneche	1	Enero	2023-01-17T00:00:00	2024-11-06T15:00:00	5	Humedad	66
3197	7	Sololá	701	Sololá	3	Barraneche	1	Enero	2023-01-17T00:00:00	2024-11-06T15:00:00	6	Velocidad del viento	11.3
3198	7	Sololá	701	Sololá	3	Barraneche	1	Enero	2023-01-17T00:00:00	2024-11-06T15:00:00	7	Dirección del viento	11.27
3199	7	Sololá	701	Sololá	3	Barraneche	1	Enero	2023-01-17T00:00:00	2024-11-06T15:00:00	1	Precipitación	0
3200	7	Sololá	701	Sololá	3	Barraneche	1	Enero	2023-01-17T00:00:00	2024-11-06T15:00:00	8	Radiación solar	510
3201	7	Sololá	701	Sololá	3	Barraneche	1	Enero	2023-01-17T00:00:00	2024-11-06T16:00:00	2	Temperatura media	13.6
3202	7	Sololá	701	Sololá	3	Barraneche	1	Enero	2023-01-17T00:00:00	2024-11-06T16:00:00	4	Temperatura máxima	15.3
3203	7	Sololá	701	Sololá	3	Barraneche	1	Enero	2023-01-17T00:00:00	2024-11-06T16:00:00	3	Temperatura mínima	13.6
3204	7	Sololá	701	Sololá	3	Barraneche	1	Enero	2023-01-17T00:00:00	2024-11-06T16:00:00	5	Humedad	73
3205	7	Sololá	701	Sololá	3	Barraneche	1	Enero	2023-01-17T00:00:00	2024-11-06T16:00:00	6	Velocidad del viento	11.3
3206	7	Sololá	701	Sololá	3	Barraneche	1	Enero	2023-01-17T00:00:00	2024-11-06T16:00:00	7	Dirección del viento	11.27
3207	7	Sololá	701	Sololá	3	Barraneche	1	Enero	2023-01-17T00:00:00	2024-11-06T16:00:00	1	Precipitación	0
3208	7	Sololá	701	Sololá	3	Barraneche	1	Enero	2023-01-17T00:00:00	2024-11-06T16:00:00	8	Radiación solar	152
3209	7	Sololá	701	Sololá	3	Barraneche	1	Enero	2023-01-17T00:00:00	2024-11-06T17:00:00	2	Temperatura media	13.6
3210	7	Sololá	701	Sololá	3	Barraneche	1	Enero	2023-01-17T00:00:00	2024-11-06T17:00:00	4	Temperatura máxima	13.8
3211	7	Sololá	701	Sololá	3	Barraneche	1	Enero	2023-01-17T00:00:00	2024-11-06T17:00:00	3	Temperatura mínima	13.4
3212	7	Sololá	701	Sololá	3	Barraneche	1	Enero	2023-01-17T00:00:00	2024-11-06T17:00:00	5	Humedad	72
3213	7	Sololá	701	Sololá	3	Barraneche	1	Enero	2023-01-17T00:00:00	2024-11-06T17:00:00	6	Velocidad del viento	8
3214	7	Sololá	701	Sololá	3	Barraneche	1	Enero	2023-01-17T00:00:00	2024-11-06T17:00:00	7	Dirección del viento	8.05
3215	7	Sololá	701	Sololá	3	Barraneche	1	Enero	2023-01-17T00:00:00	2024-11-06T17:00:00	1	Precipitación	0
3216	7	Sololá	701	Sololá	3	Barraneche	1	Enero	2023-01-17T00:00:00	2024-11-06T17:00:00	8	Radiación solar	124
3217	7	Sololá	701	Sololá	3	Barraneche	1	Enero	2023-01-17T00:00:00	2024-11-06T18:00:00	2	Temperatura media	12.6
3218	7	Sololá	701	Sololá	3	Barraneche	1	Enero	2023-01-17T00:00:00	2024-11-06T18:00:00	4	Temperatura máxima	13.6
3219	7	Sololá	701	Sololá	3	Barraneche	1	Enero	2023-01-17T00:00:00	2024-11-06T18:00:00	3	Temperatura mínima	12.6
3220	7	Sololá	701	Sololá	3	Barraneche	1	Enero	2023-01-17T00:00:00	2024-11-06T18:00:00	5	Humedad	81
3221	7	Sololá	701	Sololá	3	Barraneche	1	Enero	2023-01-17T00:00:00	2024-11-06T18:00:00	6	Velocidad del viento	8
3222	7	Sololá	701	Sololá	3	Barraneche	1	Enero	2023-01-17T00:00:00	2024-11-06T18:00:00	7	Dirección del viento	8.05
3223	7	Sololá	701	Sololá	3	Barraneche	1	Enero	2023-01-17T00:00:00	2024-11-06T18:00:00	1	Precipitación	0
3224	7	Sololá	701	Sololá	3	Barraneche	1	Enero	2023-01-17T00:00:00	2024-11-06T18:00:00	8	Radiación solar	9
3225	7	Sololá	701	Sololá	3	Barraneche	1	Enero	2023-01-17T00:00:00	2024-11-06T19:00:00	2	Temperatura media	12.4
3226	7	Sololá	701	Sololá	3	Barraneche	1	Enero	2023-01-17T00:00:00	2024-11-06T19:00:00	4	Temperatura máxima	12.7
3227	7	Sololá	701	Sololá	3	Barraneche	1	Enero	2023-01-17T00:00:00	2024-11-06T19:00:00	3	Temperatura mínima	12.4
3228	7	Sololá	701	Sololá	3	Barraneche	1	Enero	2023-01-17T00:00:00	2024-11-06T19:00:00	5	Humedad	79
3229	7	Sololá	701	Sololá	3	Barraneche	1	Enero	2023-01-17T00:00:00	2024-11-06T19:00:00	6	Velocidad del viento	3.2
3230	7	Sololá	701	Sololá	3	Barraneche	1	Enero	2023-01-17T00:00:00	2024-11-06T19:00:00	7	Dirección del viento	3.22
3231	7	Sololá	701	Sololá	3	Barraneche	1	Enero	2023-01-17T00:00:00	2024-11-06T19:00:00	1	Precipitación	0
3232	7	Sololá	701	Sololá	3	Barraneche	1	Enero	2023-01-17T00:00:00	2024-11-06T19:00:00	8	Radiación solar	0
3233	7	Sololá	701	Sololá	3	Barraneche	1	Enero	2023-01-17T00:00:00	2024-11-06T20:00:00	2	Temperatura media	11.4
3234	7	Sololá	701	Sololá	3	Barraneche	1	Enero	2023-01-17T00:00:00	2024-11-06T20:00:00	4	Temperatura máxima	12.5
3235	7	Sololá	701	Sololá	3	Barraneche	1	Enero	2023-01-17T00:00:00	2024-11-06T20:00:00	3	Temperatura mínima	11.4
3236	7	Sololá	701	Sololá	3	Barraneche	1	Enero	2023-01-17T00:00:00	2024-11-06T20:00:00	5	Humedad	67
3237	7	Sololá	701	Sololá	3	Barraneche	1	Enero	2023-01-17T00:00:00	2024-11-06T20:00:00	6	Velocidad del viento	3.2
3238	7	Sololá	701	Sololá	3	Barraneche	1	Enero	2023-01-17T00:00:00	2024-11-06T20:00:00	7	Dirección del viento	3.22
3239	7	Sololá	701	Sololá	3	Barraneche	1	Enero	2023-01-17T00:00:00	2024-11-06T20:00:00	1	Precipitación	0
3240	7	Sololá	701	Sololá	3	Barraneche	1	Enero	2023-01-17T00:00:00	2024-11-06T20:00:00	8	Radiación solar	0
3241	7	Sololá	701	Sololá	3	Barraneche	1	Enero	2023-01-17T00:00:00	2024-11-06T21:00:00	2	Temperatura media	9.8
3242	7	Sololá	701	Sololá	3	Barraneche	1	Enero	2023-01-17T00:00:00	2024-11-06T21:00:00	4	Temperatura máxima	11.4
3243	7	Sololá	701	Sololá	3	Barraneche	1	Enero	2023-01-17T00:00:00	2024-11-06T21:00:00	3	Temperatura mínima	9.8
3244	7	Sololá	701	Sololá	3	Barraneche	1	Enero	2023-01-17T00:00:00	2024-11-06T21:00:00	5	Humedad	59
3245	7	Sololá	701	Sololá	3	Barraneche	1	Enero	2023-01-17T00:00:00	2024-11-06T21:00:00	6	Velocidad del viento	6.4
3246	7	Sololá	701	Sololá	3	Barraneche	1	Enero	2023-01-17T00:00:00	2024-11-06T21:00:00	7	Dirección del viento	6.44
3247	7	Sololá	701	Sololá	3	Barraneche	1	Enero	2023-01-17T00:00:00	2024-11-06T21:00:00	1	Precipitación	0
3248	7	Sololá	701	Sololá	3	Barraneche	1	Enero	2023-01-17T00:00:00	2024-11-06T21:00:00	8	Radiación solar	0
3249	7	Sololá	701	Sololá	3	Barraneche	1	Enero	2023-01-17T00:00:00	2024-11-06T22:00:00	2	Temperatura media	9.5
3250	7	Sololá	701	Sololá	3	Barraneche	1	Enero	2023-01-17T00:00:00	2024-11-06T22:00:00	4	Temperatura máxima	9.8
3251	7	Sololá	701	Sololá	3	Barraneche	1	Enero	2023-01-17T00:00:00	2024-11-06T22:00:00	3	Temperatura mínima	9.1
3252	7	Sololá	701	Sololá	3	Barraneche	1	Enero	2023-01-17T00:00:00	2024-11-06T22:00:00	5	Humedad	58
3253	7	Sololá	701	Sololá	3	Barraneche	1	Enero	2023-01-17T00:00:00	2024-11-06T22:00:00	6	Velocidad del viento	6.4
3254	7	Sololá	701	Sololá	3	Barraneche	1	Enero	2023-01-17T00:00:00	2024-11-06T22:00:00	7	Dirección del viento	6.44
3255	7	Sololá	701	Sololá	3	Barraneche	1	Enero	2023-01-17T00:00:00	2024-11-06T22:00:00	1	Precipitación	0
3256	7	Sololá	701	Sololá	3	Barraneche	1	Enero	2023-01-17T00:00:00	2024-11-06T22:00:00	8	Radiación solar	0
3257	7	Sololá	701	Sololá	3	Barraneche	1	Enero	2023-01-17T00:00:00	2024-11-06T23:00:00	2	Temperatura media	7.9
3258	7	Sololá	701	Sololá	3	Barraneche	1	Enero	2023-01-17T00:00:00	2024-11-06T23:00:00	4	Temperatura máxima	9.6
3259	7	Sololá	701	Sololá	3	Barraneche	1	Enero	2023-01-17T00:00:00	2024-11-06T23:00:00	3	Temperatura mínima	7.9
3260	7	Sololá	701	Sololá	3	Barraneche	1	Enero	2023-01-17T00:00:00	2024-11-06T23:00:00	5	Humedad	65
3261	7	Sololá	701	Sololá	3	Barraneche	1	Enero	2023-01-17T00:00:00	2024-11-06T23:00:00	6	Velocidad del viento	4.8
3262	7	Sololá	701	Sololá	3	Barraneche	1	Enero	2023-01-17T00:00:00	2024-11-06T23:00:00	7	Dirección del viento	4.83
3263	7	Sololá	701	Sololá	3	Barraneche	1	Enero	2023-01-17T00:00:00	2024-11-06T23:00:00	1	Precipitación	0
3264	7	Sololá	701	Sololá	3	Barraneche	1	Enero	2023-01-17T00:00:00	2024-11-06T23:00:00	8	Radiación solar	0
3265	7	Sololá	701	Sololá	3	Barraneche	1	Enero	2023-01-18T00:00:00	2024-11-06T00:00:00	2	Temperatura media	7.8
3266	7	Sololá	701	Sololá	3	Barraneche	1	Enero	2023-01-18T00:00:00	2024-11-06T00:00:00	4	Temperatura máxima	8.2
3267	7	Sololá	701	Sololá	3	Barraneche	1	Enero	2023-01-18T00:00:00	2024-11-06T00:00:00	3	Temperatura mínima	7.6
3268	7	Sololá	701	Sololá	3	Barraneche	1	Enero	2023-01-18T00:00:00	2024-11-06T00:00:00	5	Humedad	68
3269	7	Sololá	701	Sololá	3	Barraneche	1	Enero	2023-01-18T00:00:00	2024-11-06T00:00:00	6	Velocidad del viento	8
3270	7	Sololá	701	Sololá	3	Barraneche	1	Enero	2023-01-18T00:00:00	2024-11-06T00:00:00	7	Dirección del viento	8.05
3271	7	Sololá	701	Sololá	3	Barraneche	1	Enero	2023-01-18T00:00:00	2024-11-06T00:00:00	1	Precipitación	0
3272	7	Sololá	701	Sololá	3	Barraneche	1	Enero	2023-01-18T00:00:00	2024-11-06T00:00:00	8	Radiación solar	0
3273	7	Sololá	701	Sololá	3	Barraneche	1	Enero	2023-01-18T00:00:00	2024-11-06T01:00:00	2	Temperatura media	8.5
3274	7	Sololá	701	Sololá	3	Barraneche	1	Enero	2023-01-18T00:00:00	2024-11-06T01:00:00	4	Temperatura máxima	8.6
3275	7	Sololá	701	Sololá	3	Barraneche	1	Enero	2023-01-18T00:00:00	2024-11-06T01:00:00	3	Temperatura mínima	7.2
3276	7	Sololá	701	Sololá	3	Barraneche	1	Enero	2023-01-18T00:00:00	2024-11-06T01:00:00	5	Humedad	64
3277	7	Sololá	701	Sololá	3	Barraneche	1	Enero	2023-01-18T00:00:00	2024-11-06T01:00:00	6	Velocidad del viento	8
3278	7	Sololá	701	Sololá	3	Barraneche	1	Enero	2023-01-18T00:00:00	2024-11-06T01:00:00	7	Dirección del viento	8.05
3279	7	Sololá	701	Sololá	3	Barraneche	1	Enero	2023-01-18T00:00:00	2024-11-06T01:00:00	1	Precipitación	0
3280	7	Sololá	701	Sololá	3	Barraneche	1	Enero	2023-01-18T00:00:00	2024-11-06T01:00:00	8	Radiación solar	0
3281	7	Sololá	701	Sololá	3	Barraneche	1	Enero	2023-01-18T00:00:00	2024-11-06T02:00:00	2	Temperatura media	7.2
3282	7	Sololá	701	Sololá	3	Barraneche	1	Enero	2023-01-18T00:00:00	2024-11-06T02:00:00	4	Temperatura máxima	8.4
3283	7	Sololá	701	Sololá	3	Barraneche	1	Enero	2023-01-18T00:00:00	2024-11-06T02:00:00	3	Temperatura mínima	7.2
3284	7	Sololá	701	Sololá	3	Barraneche	1	Enero	2023-01-18T00:00:00	2024-11-06T02:00:00	5	Humedad	64
3285	7	Sololá	701	Sololá	3	Barraneche	1	Enero	2023-01-18T00:00:00	2024-11-06T02:00:00	6	Velocidad del viento	9.7
3286	7	Sololá	701	Sololá	3	Barraneche	1	Enero	2023-01-18T00:00:00	2024-11-06T02:00:00	7	Dirección del viento	9.66
3287	7	Sololá	701	Sololá	3	Barraneche	1	Enero	2023-01-18T00:00:00	2024-11-06T02:00:00	1	Precipitación	0
3288	7	Sololá	701	Sololá	3	Barraneche	1	Enero	2023-01-18T00:00:00	2024-11-06T02:00:00	8	Radiación solar	0
3289	7	Sololá	701	Sololá	3	Barraneche	1	Enero	2023-01-18T00:00:00	2024-11-06T03:00:00	2	Temperatura media	6.7
3290	7	Sololá	701	Sololá	3	Barraneche	1	Enero	2023-01-18T00:00:00	2024-11-06T03:00:00	4	Temperatura máxima	7.2
3291	7	Sololá	701	Sololá	3	Barraneche	1	Enero	2023-01-18T00:00:00	2024-11-06T03:00:00	3	Temperatura mínima	6.6
3292	7	Sololá	701	Sololá	3	Barraneche	1	Enero	2023-01-18T00:00:00	2024-11-06T03:00:00	5	Humedad	57
3293	7	Sololá	701	Sololá	3	Barraneche	1	Enero	2023-01-18T00:00:00	2024-11-06T03:00:00	6	Velocidad del viento	8
3294	7	Sololá	701	Sololá	3	Barraneche	1	Enero	2023-01-18T00:00:00	2024-11-06T03:00:00	7	Dirección del viento	8.05
3295	7	Sololá	701	Sololá	3	Barraneche	1	Enero	2023-01-18T00:00:00	2024-11-06T03:00:00	1	Precipitación	0
3296	7	Sololá	701	Sololá	3	Barraneche	1	Enero	2023-01-18T00:00:00	2024-11-06T03:00:00	8	Radiación solar	0
3297	7	Sololá	701	Sololá	3	Barraneche	1	Enero	2023-01-18T00:00:00	2024-11-06T04:00:00	2	Temperatura media	6.7
3298	7	Sololá	701	Sololá	3	Barraneche	1	Enero	2023-01-18T00:00:00	2024-11-06T04:00:00	4	Temperatura máxima	7.4
3299	7	Sololá	701	Sololá	3	Barraneche	1	Enero	2023-01-18T00:00:00	2024-11-06T04:00:00	3	Temperatura mínima	6.2
3300	7	Sololá	701	Sololá	3	Barraneche	1	Enero	2023-01-18T00:00:00	2024-11-06T04:00:00	5	Humedad	61
3301	7	Sololá	701	Sololá	3	Barraneche	1	Enero	2023-01-18T00:00:00	2024-11-06T04:00:00	6	Velocidad del viento	4.8
3302	7	Sololá	701	Sololá	3	Barraneche	1	Enero	2023-01-18T00:00:00	2024-11-06T04:00:00	7	Dirección del viento	4.83
3303	7	Sololá	701	Sololá	3	Barraneche	1	Enero	2023-01-18T00:00:00	2024-11-06T04:00:00	1	Precipitación	0
3304	7	Sololá	701	Sololá	3	Barraneche	1	Enero	2023-01-18T00:00:00	2024-11-06T04:00:00	8	Radiación solar	0
3305	7	Sololá	701	Sololá	3	Barraneche	1	Enero	2023-01-18T00:00:00	2024-11-06T05:00:00	2	Temperatura media	6.7
3306	7	Sololá	701	Sololá	3	Barraneche	1	Enero	2023-01-18T00:00:00	2024-11-06T05:00:00	4	Temperatura máxima	7.2
3307	7	Sololá	701	Sololá	3	Barraneche	1	Enero	2023-01-18T00:00:00	2024-11-06T05:00:00	3	Temperatura mínima	6.6
3308	7	Sololá	701	Sololá	3	Barraneche	1	Enero	2023-01-18T00:00:00	2024-11-06T05:00:00	5	Humedad	64
3309	7	Sololá	701	Sololá	3	Barraneche	1	Enero	2023-01-18T00:00:00	2024-11-06T05:00:00	6	Velocidad del viento	8
3310	7	Sololá	701	Sololá	3	Barraneche	1	Enero	2023-01-18T00:00:00	2024-11-06T05:00:00	7	Dirección del viento	8.05
3311	7	Sololá	701	Sololá	3	Barraneche	1	Enero	2023-01-18T00:00:00	2024-11-06T05:00:00	1	Precipitación	0
3312	7	Sololá	701	Sololá	3	Barraneche	1	Enero	2023-01-18T00:00:00	2024-11-06T05:00:00	8	Radiación solar	0
3313	7	Sololá	701	Sololá	3	Barraneche	1	Enero	2023-01-18T00:00:00	2024-11-06T06:00:00	2	Temperatura media	6.8
3314	7	Sololá	701	Sololá	3	Barraneche	1	Enero	2023-01-18T00:00:00	2024-11-06T06:00:00	4	Temperatura máxima	7.1
3315	7	Sololá	701	Sololá	3	Barraneche	1	Enero	2023-01-18T00:00:00	2024-11-06T06:00:00	3	Temperatura mínima	6.5
3316	7	Sololá	701	Sololá	3	Barraneche	1	Enero	2023-01-18T00:00:00	2024-11-06T06:00:00	5	Humedad	64
3317	7	Sololá	701	Sololá	3	Barraneche	1	Enero	2023-01-18T00:00:00	2024-11-06T06:00:00	6	Velocidad del viento	6.4
3318	7	Sololá	701	Sololá	3	Barraneche	1	Enero	2023-01-18T00:00:00	2024-11-06T06:00:00	7	Dirección del viento	6.44
3319	7	Sololá	701	Sololá	3	Barraneche	1	Enero	2023-01-18T00:00:00	2024-11-06T06:00:00	1	Precipitación	0
3320	7	Sololá	701	Sololá	3	Barraneche	1	Enero	2023-01-18T00:00:00	2024-11-06T06:00:00	8	Radiación solar	0
3321	7	Sololá	701	Sololá	3	Barraneche	1	Enero	2023-01-18T00:00:00	2024-11-06T07:00:00	2	Temperatura media	6.9
3322	7	Sololá	701	Sololá	3	Barraneche	1	Enero	2023-01-18T00:00:00	2024-11-06T07:00:00	4	Temperatura máxima	7.1
3323	7	Sololá	701	Sololá	3	Barraneche	1	Enero	2023-01-18T00:00:00	2024-11-06T07:00:00	3	Temperatura mínima	6.5
3324	7	Sololá	701	Sololá	3	Barraneche	1	Enero	2023-01-18T00:00:00	2024-11-06T07:00:00	5	Humedad	53
3325	7	Sololá	701	Sololá	3	Barraneche	1	Enero	2023-01-18T00:00:00	2024-11-06T07:00:00	6	Velocidad del viento	4.8
3326	7	Sololá	701	Sololá	3	Barraneche	1	Enero	2023-01-18T00:00:00	2024-11-06T07:00:00	7	Dirección del viento	4.83
3327	7	Sololá	701	Sololá	3	Barraneche	1	Enero	2023-01-18T00:00:00	2024-11-06T07:00:00	1	Precipitación	0
3328	7	Sololá	701	Sololá	3	Barraneche	1	Enero	2023-01-18T00:00:00	2024-11-06T07:00:00	8	Radiación solar	6
3329	7	Sololá	701	Sololá	3	Barraneche	1	Enero	2023-01-18T00:00:00	2024-11-06T08:00:00	2	Temperatura media	10.2
3330	7	Sololá	701	Sololá	3	Barraneche	1	Enero	2023-01-18T00:00:00	2024-11-06T08:00:00	4	Temperatura máxima	10.2
3331	7	Sololá	701	Sololá	3	Barraneche	1	Enero	2023-01-18T00:00:00	2024-11-06T08:00:00	3	Temperatura mínima	6.4
3332	7	Sololá	701	Sololá	3	Barraneche	1	Enero	2023-01-18T00:00:00	2024-11-06T08:00:00	5	Humedad	50
3333	7	Sololá	701	Sololá	3	Barraneche	1	Enero	2023-01-18T00:00:00	2024-11-06T08:00:00	6	Velocidad del viento	6.4
3334	7	Sololá	701	Sololá	3	Barraneche	1	Enero	2023-01-18T00:00:00	2024-11-06T08:00:00	7	Dirección del viento	6.44
3335	7	Sololá	701	Sololá	3	Barraneche	1	Enero	2023-01-18T00:00:00	2024-11-06T08:00:00	1	Precipitación	0
3336	7	Sololá	701	Sololá	3	Barraneche	1	Enero	2023-01-18T00:00:00	2024-11-06T08:00:00	8	Radiación solar	141
3337	7	Sololá	701	Sololá	3	Barraneche	1	Enero	2023-01-18T00:00:00	2024-11-06T09:00:00	2	Temperatura media	14.2
3338	7	Sololá	701	Sololá	3	Barraneche	1	Enero	2023-01-18T00:00:00	2024-11-06T09:00:00	4	Temperatura máxima	14.2
3339	7	Sololá	701	Sololá	3	Barraneche	1	Enero	2023-01-18T00:00:00	2024-11-06T09:00:00	3	Temperatura mínima	10.2
3340	7	Sololá	701	Sololá	3	Barraneche	1	Enero	2023-01-18T00:00:00	2024-11-06T09:00:00	5	Humedad	48
3341	7	Sololá	701	Sololá	3	Barraneche	1	Enero	2023-01-18T00:00:00	2024-11-06T09:00:00	6	Velocidad del viento	4.8
3342	7	Sololá	701	Sololá	3	Barraneche	1	Enero	2023-01-18T00:00:00	2024-11-06T09:00:00	7	Dirección del viento	4.83
3343	7	Sololá	701	Sololá	3	Barraneche	1	Enero	2023-01-18T00:00:00	2024-11-06T09:00:00	1	Precipitación	0
3344	7	Sololá	701	Sololá	3	Barraneche	1	Enero	2023-01-18T00:00:00	2024-11-06T09:00:00	8	Radiación solar	390
3345	7	Sololá	701	Sololá	3	Barraneche	1	Enero	2023-01-18T00:00:00	2024-11-06T10:00:00	2	Temperatura media	16.2
3346	7	Sololá	701	Sololá	3	Barraneche	1	Enero	2023-01-18T00:00:00	2024-11-06T10:00:00	4	Temperatura máxima	16.2
3347	7	Sololá	701	Sololá	3	Barraneche	1	Enero	2023-01-18T00:00:00	2024-11-06T10:00:00	3	Temperatura mínima	14.2
3348	7	Sololá	701	Sololá	3	Barraneche	1	Enero	2023-01-18T00:00:00	2024-11-06T10:00:00	5	Humedad	46
3349	7	Sololá	701	Sololá	3	Barraneche	1	Enero	2023-01-18T00:00:00	2024-11-06T10:00:00	6	Velocidad del viento	4.8
3350	7	Sololá	701	Sololá	3	Barraneche	1	Enero	2023-01-18T00:00:00	2024-11-06T10:00:00	7	Dirección del viento	4.83
3351	7	Sololá	701	Sololá	3	Barraneche	1	Enero	2023-01-18T00:00:00	2024-11-06T10:00:00	1	Precipitación	0
3352	7	Sololá	701	Sololá	3	Barraneche	1	Enero	2023-01-18T00:00:00	2024-11-06T10:00:00	8	Radiación solar	600
3353	7	Sololá	701	Sololá	3	Barraneche	1	Enero	2023-01-18T00:00:00	2024-11-06T11:00:00	2	Temperatura media	16.1
3354	7	Sololá	701	Sololá	3	Barraneche	1	Enero	2023-01-18T00:00:00	2024-11-06T11:00:00	4	Temperatura máxima	16.2
3355	7	Sololá	701	Sololá	3	Barraneche	1	Enero	2023-01-18T00:00:00	2024-11-06T11:00:00	3	Temperatura mínima	16
3356	7	Sololá	701	Sololá	3	Barraneche	1	Enero	2023-01-18T00:00:00	2024-11-06T11:00:00	5	Humedad	57
3357	7	Sololá	701	Sololá	3	Barraneche	1	Enero	2023-01-18T00:00:00	2024-11-06T11:00:00	6	Velocidad del viento	11.3
3358	7	Sololá	701	Sololá	3	Barraneche	1	Enero	2023-01-18T00:00:00	2024-11-06T11:00:00	7	Dirección del viento	11.27
3359	7	Sololá	701	Sololá	3	Barraneche	1	Enero	2023-01-18T00:00:00	2024-11-06T11:00:00	1	Precipitación	0
3360	7	Sololá	701	Sololá	3	Barraneche	1	Enero	2023-01-18T00:00:00	2024-11-06T11:00:00	8	Radiación solar	749
3361	7	Sololá	701	Sololá	3	Barraneche	1	Enero	2023-01-18T00:00:00	2024-11-06T12:00:00	2	Temperatura media	15.9
3362	7	Sololá	701	Sololá	3	Barraneche	1	Enero	2023-01-18T00:00:00	2024-11-06T12:00:00	4	Temperatura máxima	16.2
3363	7	Sololá	701	Sololá	3	Barraneche	1	Enero	2023-01-18T00:00:00	2024-11-06T12:00:00	3	Temperatura mínima	15.8
3364	7	Sololá	701	Sololá	3	Barraneche	1	Enero	2023-01-18T00:00:00	2024-11-06T12:00:00	5	Humedad	58
3365	7	Sololá	701	Sololá	3	Barraneche	1	Enero	2023-01-18T00:00:00	2024-11-06T12:00:00	6	Velocidad del viento	12.9
3366	7	Sololá	701	Sololá	3	Barraneche	1	Enero	2023-01-18T00:00:00	2024-11-06T12:00:00	7	Dirección del viento	12.87
3367	7	Sololá	701	Sololá	3	Barraneche	1	Enero	2023-01-18T00:00:00	2024-11-06T12:00:00	1	Precipitación	0
3368	7	Sololá	701	Sololá	3	Barraneche	1	Enero	2023-01-18T00:00:00	2024-11-06T12:00:00	8	Radiación solar	822
3369	7	Sololá	701	Sololá	3	Barraneche	1	Enero	2023-01-18T00:00:00	2024-11-06T13:00:00	2	Temperatura media	15.9
3370	7	Sololá	701	Sololá	3	Barraneche	1	Enero	2023-01-18T00:00:00	2024-11-06T13:00:00	4	Temperatura máxima	16.2
3371	7	Sololá	701	Sololá	3	Barraneche	1	Enero	2023-01-18T00:00:00	2024-11-06T13:00:00	3	Temperatura mínima	15.6
3372	7	Sololá	701	Sololá	3	Barraneche	1	Enero	2023-01-18T00:00:00	2024-11-06T13:00:00	5	Humedad	61
3373	7	Sololá	701	Sololá	3	Barraneche	1	Enero	2023-01-18T00:00:00	2024-11-06T13:00:00	6	Velocidad del viento	14.5
3374	7	Sololá	701	Sololá	3	Barraneche	1	Enero	2023-01-18T00:00:00	2024-11-06T13:00:00	7	Dirección del viento	14.48
3375	7	Sololá	701	Sololá	3	Barraneche	1	Enero	2023-01-18T00:00:00	2024-11-06T13:00:00	1	Precipitación	0
3376	7	Sololá	701	Sololá	3	Barraneche	1	Enero	2023-01-18T00:00:00	2024-11-06T13:00:00	8	Radiación solar	849
3377	7	Sololá	701	Sololá	3	Barraneche	1	Enero	2023-01-18T00:00:00	2024-11-06T14:00:00	2	Temperatura media	16.4
3378	7	Sololá	701	Sololá	3	Barraneche	1	Enero	2023-01-18T00:00:00	2024-11-06T14:00:00	4	Temperatura máxima	16.4
3379	7	Sololá	701	Sololá	3	Barraneche	1	Enero	2023-01-18T00:00:00	2024-11-06T14:00:00	3	Temperatura mínima	15.9
3380	7	Sololá	701	Sololá	3	Barraneche	1	Enero	2023-01-18T00:00:00	2024-11-06T14:00:00	5	Humedad	62
3381	7	Sololá	701	Sololá	3	Barraneche	1	Enero	2023-01-18T00:00:00	2024-11-06T14:00:00	6	Velocidad del viento	12.9
3382	7	Sololá	701	Sololá	3	Barraneche	1	Enero	2023-01-18T00:00:00	2024-11-06T14:00:00	7	Dirección del viento	12.87
3383	7	Sololá	701	Sololá	3	Barraneche	1	Enero	2023-01-18T00:00:00	2024-11-06T14:00:00	1	Precipitación	0
3384	7	Sololá	701	Sololá	3	Barraneche	1	Enero	2023-01-18T00:00:00	2024-11-06T14:00:00	8	Radiación solar	817
3385	7	Sololá	701	Sololá	3	Barraneche	1	Enero	2023-01-18T00:00:00	2024-11-06T15:00:00	2	Temperatura media	14.9
3386	7	Sololá	701	Sololá	3	Barraneche	1	Enero	2023-01-18T00:00:00	2024-11-06T15:00:00	4	Temperatura máxima	16.7
3387	7	Sololá	701	Sololá	3	Barraneche	1	Enero	2023-01-18T00:00:00	2024-11-06T15:00:00	3	Temperatura mínima	14.9
3388	7	Sololá	701	Sololá	3	Barraneche	1	Enero	2023-01-18T00:00:00	2024-11-06T15:00:00	5	Humedad	68
3389	7	Sololá	701	Sololá	3	Barraneche	1	Enero	2023-01-18T00:00:00	2024-11-06T15:00:00	6	Velocidad del viento	12.9
3390	7	Sololá	701	Sololá	3	Barraneche	1	Enero	2023-01-18T00:00:00	2024-11-06T15:00:00	7	Dirección del viento	12.87
3391	7	Sololá	701	Sololá	3	Barraneche	1	Enero	2023-01-18T00:00:00	2024-11-06T15:00:00	1	Precipitación	0
3392	7	Sololá	701	Sololá	3	Barraneche	1	Enero	2023-01-18T00:00:00	2024-11-06T15:00:00	8	Radiación solar	567
3393	7	Sololá	701	Sololá	3	Barraneche	1	Enero	2023-01-18T00:00:00	2024-11-06T16:00:00	2	Temperatura media	14.2
3394	7	Sololá	701	Sololá	3	Barraneche	1	Enero	2023-01-18T00:00:00	2024-11-06T16:00:00	4	Temperatura máxima	14.9
3395	7	Sololá	701	Sololá	3	Barraneche	1	Enero	2023-01-18T00:00:00	2024-11-06T16:00:00	3	Temperatura mínima	14.1
3396	7	Sololá	701	Sololá	3	Barraneche	1	Enero	2023-01-18T00:00:00	2024-11-06T16:00:00	5	Humedad	70
3397	7	Sololá	701	Sololá	3	Barraneche	1	Enero	2023-01-18T00:00:00	2024-11-06T16:00:00	6	Velocidad del viento	9.7
3398	7	Sololá	701	Sololá	3	Barraneche	1	Enero	2023-01-18T00:00:00	2024-11-06T16:00:00	7	Dirección del viento	9.66
3399	7	Sololá	701	Sololá	3	Barraneche	1	Enero	2023-01-18T00:00:00	2024-11-06T16:00:00	1	Precipitación	0
3400	7	Sololá	701	Sololá	3	Barraneche	1	Enero	2023-01-18T00:00:00	2024-11-06T16:00:00	8	Radiación solar	253
3401	7	Sololá	701	Sololá	3	Barraneche	1	Enero	2023-01-18T00:00:00	2024-11-06T17:00:00	2	Temperatura media	13.2
3402	7	Sololá	701	Sololá	3	Barraneche	1	Enero	2023-01-18T00:00:00	2024-11-06T17:00:00	4	Temperatura máxima	14.2
3403	7	Sololá	701	Sololá	3	Barraneche	1	Enero	2023-01-18T00:00:00	2024-11-06T17:00:00	3	Temperatura mínima	13.1
3404	7	Sololá	701	Sololá	3	Barraneche	1	Enero	2023-01-18T00:00:00	2024-11-06T17:00:00	5	Humedad	74
3405	7	Sololá	701	Sololá	3	Barraneche	1	Enero	2023-01-18T00:00:00	2024-11-06T17:00:00	6	Velocidad del viento	8
3406	7	Sololá	701	Sololá	3	Barraneche	1	Enero	2023-01-18T00:00:00	2024-11-06T17:00:00	7	Dirección del viento	8.05
3407	7	Sololá	701	Sololá	3	Barraneche	1	Enero	2023-01-18T00:00:00	2024-11-06T17:00:00	1	Precipitación	0
3408	7	Sololá	701	Sololá	3	Barraneche	1	Enero	2023-01-18T00:00:00	2024-11-06T17:00:00	8	Radiación solar	139
3409	7	Sololá	701	Sololá	3	Barraneche	1	Enero	2023-01-18T00:00:00	2024-11-06T18:00:00	2	Temperatura media	12.9
3410	7	Sololá	701	Sololá	3	Barraneche	1	Enero	2023-01-18T00:00:00	2024-11-06T18:00:00	4	Temperatura máxima	13.2
3411	7	Sololá	701	Sololá	3	Barraneche	1	Enero	2023-01-18T00:00:00	2024-11-06T18:00:00	3	Temperatura mínima	12.8
3412	7	Sololá	701	Sololá	3	Barraneche	1	Enero	2023-01-18T00:00:00	2024-11-06T18:00:00	5	Humedad	75
3413	7	Sololá	701	Sololá	3	Barraneche	1	Enero	2023-01-18T00:00:00	2024-11-06T18:00:00	6	Velocidad del viento	4.8
3414	7	Sololá	701	Sololá	3	Barraneche	1	Enero	2023-01-18T00:00:00	2024-11-06T18:00:00	7	Dirección del viento	4.83
3415	7	Sololá	701	Sololá	3	Barraneche	1	Enero	2023-01-18T00:00:00	2024-11-06T18:00:00	1	Precipitación	0
3416	7	Sololá	701	Sololá	3	Barraneche	1	Enero	2023-01-18T00:00:00	2024-11-06T18:00:00	8	Radiación solar	26
3417	7	Sololá	701	Sololá	3	Barraneche	1	Enero	2023-01-18T00:00:00	2024-11-06T19:00:00	2	Temperatura media	12.2
3418	7	Sololá	701	Sololá	3	Barraneche	1	Enero	2023-01-18T00:00:00	2024-11-06T19:00:00	4	Temperatura máxima	12.9
3419	7	Sololá	701	Sololá	3	Barraneche	1	Enero	2023-01-18T00:00:00	2024-11-06T19:00:00	3	Temperatura mínima	12.2
3420	7	Sololá	701	Sololá	3	Barraneche	1	Enero	2023-01-18T00:00:00	2024-11-06T19:00:00	5	Humedad	85
3421	7	Sololá	701	Sololá	3	Barraneche	1	Enero	2023-01-18T00:00:00	2024-11-06T19:00:00	6	Velocidad del viento	4.8
3422	7	Sololá	701	Sololá	3	Barraneche	1	Enero	2023-01-18T00:00:00	2024-11-06T19:00:00	7	Dirección del viento	4.83
3423	7	Sololá	701	Sololá	3	Barraneche	1	Enero	2023-01-18T00:00:00	2024-11-06T19:00:00	1	Precipitación	0
3424	7	Sololá	701	Sololá	3	Barraneche	1	Enero	2023-01-18T00:00:00	2024-11-06T19:00:00	8	Radiación solar	0
3425	7	Sololá	701	Sololá	3	Barraneche	1	Enero	2023-01-18T00:00:00	2024-11-06T20:00:00	2	Temperatura media	12.2
3426	7	Sololá	701	Sololá	3	Barraneche	1	Enero	2023-01-18T00:00:00	2024-11-06T20:00:00	4	Temperatura máxima	12.3
3427	7	Sololá	701	Sololá	3	Barraneche	1	Enero	2023-01-18T00:00:00	2024-11-06T20:00:00	3	Temperatura mínima	12.1
3428	7	Sololá	701	Sololá	3	Barraneche	1	Enero	2023-01-18T00:00:00	2024-11-06T20:00:00	5	Humedad	84
3429	7	Sololá	701	Sololá	3	Barraneche	1	Enero	2023-01-18T00:00:00	2024-11-06T20:00:00	6	Velocidad del viento	3.2
3430	7	Sololá	701	Sololá	3	Barraneche	1	Enero	2023-01-18T00:00:00	2024-11-06T20:00:00	7	Dirección del viento	3.22
3431	7	Sololá	701	Sololá	3	Barraneche	1	Enero	2023-01-18T00:00:00	2024-11-06T20:00:00	1	Precipitación	0
3432	7	Sololá	701	Sololá	3	Barraneche	1	Enero	2023-01-18T00:00:00	2024-11-06T20:00:00	8	Radiación solar	0
3433	7	Sololá	701	Sololá	3	Barraneche	1	Enero	2023-01-18T00:00:00	2024-11-06T21:00:00	2	Temperatura media	11.9
3434	7	Sololá	701	Sololá	3	Barraneche	1	Enero	2023-01-18T00:00:00	2024-11-06T21:00:00	4	Temperatura máxima	12.2
3435	7	Sololá	701	Sololá	3	Barraneche	1	Enero	2023-01-18T00:00:00	2024-11-06T21:00:00	3	Temperatura mínima	11.9
3436	7	Sololá	701	Sololá	3	Barraneche	1	Enero	2023-01-18T00:00:00	2024-11-06T21:00:00	5	Humedad	82
3437	7	Sololá	701	Sololá	3	Barraneche	1	Enero	2023-01-18T00:00:00	2024-11-06T21:00:00	6	Velocidad del viento	3.2
3438	7	Sololá	701	Sololá	3	Barraneche	1	Enero	2023-01-18T00:00:00	2024-11-06T21:00:00	7	Dirección del viento	3.22
3439	7	Sololá	701	Sololá	3	Barraneche	1	Enero	2023-01-18T00:00:00	2024-11-06T21:00:00	1	Precipitación	0
3440	7	Sololá	701	Sololá	3	Barraneche	1	Enero	2023-01-18T00:00:00	2024-11-06T21:00:00	8	Radiación solar	0
3441	7	Sololá	701	Sololá	3	Barraneche	1	Enero	2023-01-18T00:00:00	2024-11-06T22:00:00	2	Temperatura media	9.8
3442	7	Sololá	701	Sololá	3	Barraneche	1	Enero	2023-01-18T00:00:00	2024-11-06T22:00:00	4	Temperatura máxima	11.9
3443	7	Sololá	701	Sololá	3	Barraneche	1	Enero	2023-01-18T00:00:00	2024-11-06T22:00:00	3	Temperatura mínima	9.8
3444	7	Sololá	701	Sololá	3	Barraneche	1	Enero	2023-01-18T00:00:00	2024-11-06T22:00:00	5	Humedad	70
3445	7	Sololá	701	Sololá	3	Barraneche	1	Enero	2023-01-18T00:00:00	2024-11-06T22:00:00	6	Velocidad del viento	4.8
3446	7	Sololá	701	Sololá	3	Barraneche	1	Enero	2023-01-18T00:00:00	2024-11-06T22:00:00	7	Dirección del viento	4.83
3447	7	Sololá	701	Sololá	3	Barraneche	1	Enero	2023-01-18T00:00:00	2024-11-06T22:00:00	1	Precipitación	0
3448	7	Sololá	701	Sololá	3	Barraneche	1	Enero	2023-01-18T00:00:00	2024-11-06T22:00:00	8	Radiación solar	0
3449	7	Sololá	701	Sololá	3	Barraneche	1	Enero	2023-01-18T00:00:00	2024-11-06T23:00:00	2	Temperatura media	8.9
3450	7	Sololá	701	Sololá	3	Barraneche	1	Enero	2023-01-18T00:00:00	2024-11-06T23:00:00	4	Temperatura máxima	9.8
3451	7	Sololá	701	Sololá	3	Barraneche	1	Enero	2023-01-18T00:00:00	2024-11-06T23:00:00	3	Temperatura mínima	8.8
3452	7	Sololá	701	Sololá	3	Barraneche	1	Enero	2023-01-18T00:00:00	2024-11-06T23:00:00	5	Humedad	68
3453	7	Sololá	701	Sololá	3	Barraneche	1	Enero	2023-01-18T00:00:00	2024-11-06T23:00:00	6	Velocidad del viento	8
3454	7	Sololá	701	Sololá	3	Barraneche	1	Enero	2023-01-18T00:00:00	2024-11-06T23:00:00	7	Dirección del viento	8.05
3455	7	Sololá	701	Sololá	3	Barraneche	1	Enero	2023-01-18T00:00:00	2024-11-06T23:00:00	1	Precipitación	0
3456	7	Sololá	701	Sololá	3	Barraneche	1	Enero	2023-01-18T00:00:00	2024-11-06T23:00:00	8	Radiación solar	0
3457	7	Sololá	701	Sololá	3	Barraneche	1	Enero	2023-01-19T00:00:00	2024-11-06T00:00:00	2	Temperatura media	8.8
3458	7	Sololá	701	Sololá	3	Barraneche	1	Enero	2023-01-19T00:00:00	2024-11-06T00:00:00	4	Temperatura máxima	9.1
3459	7	Sololá	701	Sololá	3	Barraneche	1	Enero	2023-01-19T00:00:00	2024-11-06T00:00:00	3	Temperatura mínima	8.7
3460	7	Sololá	701	Sololá	3	Barraneche	1	Enero	2023-01-19T00:00:00	2024-11-06T00:00:00	5	Humedad	67
3461	7	Sololá	701	Sololá	3	Barraneche	1	Enero	2023-01-19T00:00:00	2024-11-06T00:00:00	6	Velocidad del viento	8
3462	7	Sololá	701	Sololá	3	Barraneche	1	Enero	2023-01-19T00:00:00	2024-11-06T00:00:00	7	Dirección del viento	8.05
3463	7	Sololá	701	Sololá	3	Barraneche	1	Enero	2023-01-19T00:00:00	2024-11-06T00:00:00	1	Precipitación	0
3464	7	Sololá	701	Sololá	3	Barraneche	1	Enero	2023-01-19T00:00:00	2024-11-06T00:00:00	8	Radiación solar	0
3465	7	Sololá	701	Sololá	3	Barraneche	1	Enero	2023-01-19T00:00:00	2024-11-06T01:00:00	2	Temperatura media	8.6
3466	7	Sololá	701	Sololá	3	Barraneche	1	Enero	2023-01-19T00:00:00	2024-11-06T01:00:00	4	Temperatura máxima	8.9
3467	7	Sololá	701	Sololá	3	Barraneche	1	Enero	2023-01-19T00:00:00	2024-11-06T01:00:00	3	Temperatura mínima	8.3
3468	7	Sololá	701	Sololá	3	Barraneche	1	Enero	2023-01-19T00:00:00	2024-11-06T01:00:00	5	Humedad	61
3469	7	Sololá	701	Sololá	3	Barraneche	1	Enero	2023-01-19T00:00:00	2024-11-06T01:00:00	6	Velocidad del viento	8
3470	7	Sololá	701	Sololá	3	Barraneche	1	Enero	2023-01-19T00:00:00	2024-11-06T01:00:00	7	Dirección del viento	8.05
3471	7	Sololá	701	Sololá	3	Barraneche	1	Enero	2023-01-19T00:00:00	2024-11-06T01:00:00	1	Precipitación	0
3472	7	Sololá	701	Sololá	3	Barraneche	1	Enero	2023-01-19T00:00:00	2024-11-06T01:00:00	8	Radiación solar	0
3473	7	Sololá	701	Sololá	3	Barraneche	1	Enero	2023-01-19T00:00:00	2024-11-06T02:00:00	2	Temperatura media	8.7
3474	7	Sololá	701	Sololá	3	Barraneche	1	Enero	2023-01-19T00:00:00	2024-11-06T02:00:00	4	Temperatura máxima	9.1
3475	7	Sololá	701	Sololá	3	Barraneche	1	Enero	2023-01-19T00:00:00	2024-11-06T02:00:00	3	Temperatura mínima	8.5
3476	7	Sololá	701	Sololá	3	Barraneche	1	Enero	2023-01-19T00:00:00	2024-11-06T02:00:00	5	Humedad	56
3477	7	Sololá	701	Sololá	3	Barraneche	1	Enero	2023-01-19T00:00:00	2024-11-06T02:00:00	6	Velocidad del viento	11.3
3478	7	Sololá	701	Sololá	3	Barraneche	1	Enero	2023-01-19T00:00:00	2024-11-06T02:00:00	7	Dirección del viento	11.27
3479	7	Sololá	701	Sololá	3	Barraneche	1	Enero	2023-01-19T00:00:00	2024-11-06T02:00:00	1	Precipitación	0
3480	7	Sololá	701	Sololá	3	Barraneche	1	Enero	2023-01-19T00:00:00	2024-11-06T02:00:00	8	Radiación solar	0
3481	7	Sololá	701	Sololá	3	Barraneche	1	Enero	2023-01-19T00:00:00	2024-11-06T03:00:00	2	Temperatura media	8.8
3482	7	Sololá	701	Sololá	3	Barraneche	1	Enero	2023-01-19T00:00:00	2024-11-06T03:00:00	4	Temperatura máxima	8.8
3483	7	Sololá	701	Sololá	3	Barraneche	1	Enero	2023-01-19T00:00:00	2024-11-06T03:00:00	3	Temperatura mínima	8.2
3484	7	Sololá	701	Sololá	3	Barraneche	1	Enero	2023-01-19T00:00:00	2024-11-06T03:00:00	5	Humedad	47
3485	7	Sololá	701	Sololá	3	Barraneche	1	Enero	2023-01-19T00:00:00	2024-11-06T03:00:00	6	Velocidad del viento	12.9
3486	7	Sololá	701	Sololá	3	Barraneche	1	Enero	2023-01-19T00:00:00	2024-11-06T03:00:00	7	Dirección del viento	12.87
3487	7	Sololá	701	Sololá	3	Barraneche	1	Enero	2023-01-19T00:00:00	2024-11-06T03:00:00	1	Precipitación	0
3488	7	Sololá	701	Sololá	3	Barraneche	1	Enero	2023-01-19T00:00:00	2024-11-06T03:00:00	8	Radiación solar	0
3489	7	Sololá	701	Sololá	3	Barraneche	1	Enero	2023-01-19T00:00:00	2024-11-06T04:00:00	2	Temperatura media	8.6
3490	7	Sololá	701	Sololá	3	Barraneche	1	Enero	2023-01-19T00:00:00	2024-11-06T04:00:00	4	Temperatura máxima	8.9
3491	7	Sololá	701	Sololá	3	Barraneche	1	Enero	2023-01-19T00:00:00	2024-11-06T04:00:00	3	Temperatura mínima	8.2
3492	7	Sololá	701	Sololá	3	Barraneche	1	Enero	2023-01-19T00:00:00	2024-11-06T04:00:00	5	Humedad	37
3493	7	Sololá	701	Sololá	3	Barraneche	1	Enero	2023-01-19T00:00:00	2024-11-06T04:00:00	6	Velocidad del viento	16.1
3494	7	Sololá	701	Sololá	3	Barraneche	1	Enero	2023-01-19T00:00:00	2024-11-06T04:00:00	7	Dirección del viento	16.09
3495	7	Sololá	701	Sololá	3	Barraneche	1	Enero	2023-01-19T00:00:00	2024-11-06T04:00:00	1	Precipitación	0
3496	7	Sololá	701	Sololá	3	Barraneche	1	Enero	2023-01-19T00:00:00	2024-11-06T04:00:00	8	Radiación solar	0
3497	7	Sololá	701	Sololá	3	Barraneche	1	Enero	2023-01-19T00:00:00	2024-11-06T05:00:00	2	Temperatura media	8.2
3498	7	Sololá	701	Sololá	3	Barraneche	1	Enero	2023-01-19T00:00:00	2024-11-06T05:00:00	4	Temperatura máxima	8.7
3499	7	Sololá	701	Sololá	3	Barraneche	1	Enero	2023-01-19T00:00:00	2024-11-06T05:00:00	3	Temperatura mínima	7.9
3500	7	Sololá	701	Sololá	3	Barraneche	1	Enero	2023-01-19T00:00:00	2024-11-06T05:00:00	5	Humedad	33
3501	7	Sololá	701	Sololá	3	Barraneche	1	Enero	2023-01-19T00:00:00	2024-11-06T05:00:00	6	Velocidad del viento	16.1
3502	7	Sololá	701	Sololá	3	Barraneche	1	Enero	2023-01-19T00:00:00	2024-11-06T05:00:00	7	Dirección del viento	16.09
3503	7	Sololá	701	Sololá	3	Barraneche	1	Enero	2023-01-19T00:00:00	2024-11-06T05:00:00	1	Precipitación	0
3504	7	Sololá	701	Sololá	3	Barraneche	1	Enero	2023-01-19T00:00:00	2024-11-06T05:00:00	8	Radiación solar	0
3505	7	Sololá	701	Sololá	3	Barraneche	1	Enero	2023-01-19T00:00:00	2024-11-06T06:00:00	2	Temperatura media	7.6
3506	7	Sololá	701	Sololá	3	Barraneche	1	Enero	2023-01-19T00:00:00	2024-11-06T06:00:00	4	Temperatura máxima	8.2
3507	7	Sololá	701	Sololá	3	Barraneche	1	Enero	2023-01-19T00:00:00	2024-11-06T06:00:00	3	Temperatura mínima	7.4
3508	7	Sololá	701	Sololá	3	Barraneche	1	Enero	2023-01-19T00:00:00	2024-11-06T06:00:00	5	Humedad	32
3509	7	Sololá	701	Sololá	3	Barraneche	1	Enero	2023-01-19T00:00:00	2024-11-06T06:00:00	6	Velocidad del viento	14.5
3510	7	Sololá	701	Sololá	3	Barraneche	1	Enero	2023-01-19T00:00:00	2024-11-06T06:00:00	7	Dirección del viento	14.48
3511	7	Sololá	701	Sololá	3	Barraneche	1	Enero	2023-01-19T00:00:00	2024-11-06T06:00:00	1	Precipitación	0
3512	7	Sololá	701	Sololá	3	Barraneche	1	Enero	2023-01-19T00:00:00	2024-11-06T06:00:00	8	Radiación solar	0
3513	7	Sololá	701	Sololá	3	Barraneche	1	Enero	2023-01-19T00:00:00	2024-11-06T07:00:00	2	Temperatura media	7.4
3514	7	Sololá	701	Sololá	3	Barraneche	1	Enero	2023-01-19T00:00:00	2024-11-06T07:00:00	4	Temperatura máxima	7.9
3515	7	Sololá	701	Sololá	3	Barraneche	1	Enero	2023-01-19T00:00:00	2024-11-06T07:00:00	3	Temperatura mínima	7.2
3516	7	Sololá	701	Sololá	3	Barraneche	1	Enero	2023-01-19T00:00:00	2024-11-06T07:00:00	5	Humedad	33
3517	7	Sololá	701	Sololá	3	Barraneche	1	Enero	2023-01-19T00:00:00	2024-11-06T07:00:00	6	Velocidad del viento	14.5
3518	7	Sololá	701	Sololá	3	Barraneche	1	Enero	2023-01-19T00:00:00	2024-11-06T07:00:00	7	Dirección del viento	14.48
3519	7	Sololá	701	Sololá	3	Barraneche	1	Enero	2023-01-19T00:00:00	2024-11-06T07:00:00	1	Precipitación	0
3520	7	Sololá	701	Sololá	3	Barraneche	1	Enero	2023-01-19T00:00:00	2024-11-06T07:00:00	8	Radiación solar	5
3521	7	Sololá	701	Sololá	3	Barraneche	1	Enero	2023-01-19T00:00:00	2024-11-06T08:00:00	2	Temperatura media	10.9
3522	7	Sololá	701	Sololá	3	Barraneche	1	Enero	2023-01-19T00:00:00	2024-11-06T08:00:00	4	Temperatura máxima	10.9
3523	7	Sololá	701	Sololá	3	Barraneche	1	Enero	2023-01-19T00:00:00	2024-11-06T08:00:00	3	Temperatura mínima	7.4
3524	7	Sololá	701	Sololá	3	Barraneche	1	Enero	2023-01-19T00:00:00	2024-11-06T08:00:00	5	Humedad	28
3525	7	Sololá	701	Sololá	3	Barraneche	1	Enero	2023-01-19T00:00:00	2024-11-06T08:00:00	6	Velocidad del viento	11.3
3526	7	Sololá	701	Sololá	3	Barraneche	1	Enero	2023-01-19T00:00:00	2024-11-06T08:00:00	7	Dirección del viento	11.27
3527	7	Sololá	701	Sololá	3	Barraneche	1	Enero	2023-01-19T00:00:00	2024-11-06T08:00:00	1	Precipitación	0
3528	7	Sololá	701	Sololá	3	Barraneche	1	Enero	2023-01-19T00:00:00	2024-11-06T08:00:00	8	Radiación solar	147
3529	7	Sololá	701	Sololá	3	Barraneche	1	Enero	2023-01-19T00:00:00	2024-11-06T09:00:00	2	Temperatura media	14.9
3530	7	Sololá	701	Sololá	3	Barraneche	1	Enero	2023-01-19T00:00:00	2024-11-06T09:00:00	4	Temperatura máxima	14.9
3531	7	Sololá	701	Sololá	3	Barraneche	1	Enero	2023-01-19T00:00:00	2024-11-06T09:00:00	3	Temperatura mínima	10.9
3532	7	Sololá	701	Sololá	3	Barraneche	1	Enero	2023-01-19T00:00:00	2024-11-06T09:00:00	5	Humedad	13
3533	7	Sololá	701	Sololá	3	Barraneche	1	Enero	2023-01-19T00:00:00	2024-11-06T09:00:00	6	Velocidad del viento	4.8
3534	7	Sololá	701	Sololá	3	Barraneche	1	Enero	2023-01-19T00:00:00	2024-11-06T09:00:00	7	Dirección del viento	4.83
3535	7	Sololá	701	Sololá	3	Barraneche	1	Enero	2023-01-19T00:00:00	2024-11-06T09:00:00	1	Precipitación	0
3536	7	Sololá	701	Sololá	3	Barraneche	1	Enero	2023-01-19T00:00:00	2024-11-06T09:00:00	8	Radiación solar	408
3537	7	Sololá	701	Sololá	3	Barraneche	1	Enero	2023-01-19T00:00:00	2024-11-06T10:00:00	2	Temperatura media	16.8
3538	7	Sololá	701	Sololá	3	Barraneche	1	Enero	2023-01-19T00:00:00	2024-11-06T10:00:00	4	Temperatura máxima	16.8
3539	7	Sololá	701	Sololá	3	Barraneche	1	Enero	2023-01-19T00:00:00	2024-11-06T10:00:00	3	Temperatura mínima	14.9
3540	7	Sololá	701	Sololá	3	Barraneche	1	Enero	2023-01-19T00:00:00	2024-11-06T10:00:00	5	Humedad	11
3541	7	Sololá	701	Sololá	3	Barraneche	1	Enero	2023-01-19T00:00:00	2024-11-06T10:00:00	6	Velocidad del viento	4.8
3542	7	Sololá	701	Sololá	3	Barraneche	1	Enero	2023-01-19T00:00:00	2024-11-06T10:00:00	7	Dirección del viento	4.83
3543	7	Sololá	701	Sololá	3	Barraneche	1	Enero	2023-01-19T00:00:00	2024-11-06T10:00:00	1	Precipitación	0
3544	7	Sololá	701	Sololá	3	Barraneche	1	Enero	2023-01-19T00:00:00	2024-11-06T10:00:00	8	Radiación solar	617
3545	7	Sololá	701	Sololá	3	Barraneche	1	Enero	2023-01-19T00:00:00	2024-11-06T11:00:00	2	Temperatura media	16.7
3546	7	Sololá	701	Sololá	3	Barraneche	1	Enero	2023-01-19T00:00:00	2024-11-06T11:00:00	4	Temperatura máxima	17.2
3547	7	Sololá	701	Sololá	3	Barraneche	1	Enero	2023-01-19T00:00:00	2024-11-06T11:00:00	3	Temperatura mínima	16.6
3548	7	Sololá	701	Sololá	3	Barraneche	1	Enero	2023-01-19T00:00:00	2024-11-06T11:00:00	5	Humedad	14
3549	7	Sololá	701	Sololá	3	Barraneche	1	Enero	2023-01-19T00:00:00	2024-11-06T11:00:00	6	Velocidad del viento	9.7
3550	7	Sololá	701	Sololá	3	Barraneche	1	Enero	2023-01-19T00:00:00	2024-11-06T11:00:00	7	Dirección del viento	9.66
3551	7	Sololá	701	Sololá	3	Barraneche	1	Enero	2023-01-19T00:00:00	2024-11-06T11:00:00	1	Precipitación	0
3552	7	Sololá	701	Sololá	3	Barraneche	1	Enero	2023-01-19T00:00:00	2024-11-06T11:00:00	8	Radiación solar	768
3553	7	Sololá	701	Sololá	3	Barraneche	1	Enero	2023-01-19T00:00:00	2024-11-06T12:00:00	2	Temperatura media	16.7
3554	7	Sololá	701	Sololá	3	Barraneche	1	Enero	2023-01-19T00:00:00	2024-11-06T12:00:00	4	Temperatura máxima	17.2
3555	7	Sololá	701	Sololá	3	Barraneche	1	Enero	2023-01-19T00:00:00	2024-11-06T12:00:00	3	Temperatura mínima	16.4
3556	7	Sololá	701	Sololá	3	Barraneche	1	Enero	2023-01-19T00:00:00	2024-11-06T12:00:00	5	Humedad	33
3557	7	Sololá	701	Sololá	3	Barraneche	1	Enero	2023-01-19T00:00:00	2024-11-06T12:00:00	6	Velocidad del viento	14.5
3558	7	Sololá	701	Sololá	3	Barraneche	1	Enero	2023-01-19T00:00:00	2024-11-06T12:00:00	7	Dirección del viento	14.48
3559	7	Sololá	701	Sololá	3	Barraneche	1	Enero	2023-01-19T00:00:00	2024-11-06T12:00:00	1	Precipitación	0
3560	7	Sololá	701	Sololá	3	Barraneche	1	Enero	2023-01-19T00:00:00	2024-11-06T12:00:00	8	Radiación solar	849
3561	7	Sololá	701	Sololá	3	Barraneche	1	Enero	2023-01-19T00:00:00	2024-11-06T13:00:00	2	Temperatura media	16.8
3562	7	Sololá	701	Sololá	3	Barraneche	1	Enero	2023-01-19T00:00:00	2024-11-06T13:00:00	4	Temperatura máxima	17.3
3563	7	Sololá	701	Sololá	3	Barraneche	1	Enero	2023-01-19T00:00:00	2024-11-06T13:00:00	3	Temperatura mínima	16.6
3564	7	Sololá	701	Sololá	3	Barraneche	1	Enero	2023-01-19T00:00:00	2024-11-06T13:00:00	5	Humedad	39
3565	7	Sololá	701	Sololá	3	Barraneche	1	Enero	2023-01-19T00:00:00	2024-11-06T13:00:00	6	Velocidad del viento	16.1
3566	7	Sololá	701	Sololá	3	Barraneche	1	Enero	2023-01-19T00:00:00	2024-11-06T13:00:00	7	Dirección del viento	16.09
3567	7	Sololá	701	Sololá	3	Barraneche	1	Enero	2023-01-19T00:00:00	2024-11-06T13:00:00	1	Precipitación	0
3568	7	Sololá	701	Sololá	3	Barraneche	1	Enero	2023-01-19T00:00:00	2024-11-06T13:00:00	8	Radiación solar	868
3569	7	Sololá	701	Sololá	3	Barraneche	1	Enero	2023-01-19T00:00:00	2024-11-06T14:00:00	2	Temperatura media	16.1
3570	7	Sololá	701	Sololá	3	Barraneche	1	Enero	2023-01-19T00:00:00	2024-11-06T14:00:00	4	Temperatura máxima	17
3571	7	Sololá	701	Sololá	3	Barraneche	1	Enero	2023-01-19T00:00:00	2024-11-06T14:00:00	3	Temperatura mínima	16.1
3572	7	Sololá	701	Sololá	3	Barraneche	1	Enero	2023-01-19T00:00:00	2024-11-06T14:00:00	5	Humedad	51
3573	7	Sololá	701	Sololá	3	Barraneche	1	Enero	2023-01-19T00:00:00	2024-11-06T14:00:00	6	Velocidad del viento	14.5
3574	7	Sololá	701	Sololá	3	Barraneche	1	Enero	2023-01-19T00:00:00	2024-11-06T14:00:00	7	Dirección del viento	14.48
3575	7	Sololá	701	Sololá	3	Barraneche	1	Enero	2023-01-19T00:00:00	2024-11-06T14:00:00	1	Precipitación	0
3576	7	Sololá	701	Sololá	3	Barraneche	1	Enero	2023-01-19T00:00:00	2024-11-06T14:00:00	8	Radiación solar	804
3577	7	Sololá	701	Sololá	3	Barraneche	1	Enero	2023-01-19T00:00:00	2024-11-06T15:00:00	2	Temperatura media	15.6
3578	7	Sololá	701	Sololá	3	Barraneche	1	Enero	2023-01-19T00:00:00	2024-11-06T15:00:00	4	Temperatura máxima	16.2
3579	7	Sololá	701	Sololá	3	Barraneche	1	Enero	2023-01-19T00:00:00	2024-11-06T15:00:00	3	Temperatura mínima	15.3
3580	7	Sololá	701	Sololá	3	Barraneche	1	Enero	2023-01-19T00:00:00	2024-11-06T15:00:00	5	Humedad	59
3581	7	Sololá	701	Sololá	3	Barraneche	1	Enero	2023-01-19T00:00:00	2024-11-06T15:00:00	6	Velocidad del viento	12.9
3582	7	Sololá	701	Sololá	3	Barraneche	1	Enero	2023-01-19T00:00:00	2024-11-06T15:00:00	7	Dirección del viento	12.87
3583	7	Sololá	701	Sololá	3	Barraneche	1	Enero	2023-01-19T00:00:00	2024-11-06T15:00:00	1	Precipitación	0
3584	7	Sololá	701	Sololá	3	Barraneche	1	Enero	2023-01-19T00:00:00	2024-11-06T15:00:00	8	Radiación solar	662
3585	7	Sololá	701	Sololá	3	Barraneche	1	Enero	2023-01-19T00:00:00	2024-11-06T16:00:00	2	Temperatura media	14.8
3586	7	Sololá	701	Sololá	3	Barraneche	1	Enero	2023-01-19T00:00:00	2024-11-06T16:00:00	4	Temperatura máxima	15.6
3587	7	Sololá	701	Sololá	3	Barraneche	1	Enero	2023-01-19T00:00:00	2024-11-06T16:00:00	3	Temperatura mínima	14.7
3588	7	Sololá	701	Sololá	3	Barraneche	1	Enero	2023-01-19T00:00:00	2024-11-06T16:00:00	5	Humedad	64
3589	7	Sololá	701	Sololá	3	Barraneche	1	Enero	2023-01-19T00:00:00	2024-11-06T16:00:00	6	Velocidad del viento	11.3
3590	7	Sololá	701	Sololá	3	Barraneche	1	Enero	2023-01-19T00:00:00	2024-11-06T16:00:00	7	Dirección del viento	11.27
3591	7	Sololá	701	Sololá	3	Barraneche	1	Enero	2023-01-19T00:00:00	2024-11-06T16:00:00	1	Precipitación	0
3592	7	Sololá	701	Sololá	3	Barraneche	1	Enero	2023-01-19T00:00:00	2024-11-06T16:00:00	8	Radiación solar	465
3593	7	Sololá	701	Sololá	3	Barraneche	1	Enero	2023-01-19T00:00:00	2024-11-06T17:00:00	2	Temperatura media	14.2
3594	7	Sololá	701	Sololá	3	Barraneche	1	Enero	2023-01-19T00:00:00	2024-11-06T17:00:00	4	Temperatura máxima	15.1
3595	7	Sololá	701	Sololá	3	Barraneche	1	Enero	2023-01-19T00:00:00	2024-11-06T17:00:00	3	Temperatura mínima	14.2
3596	7	Sololá	701	Sololá	3	Barraneche	1	Enero	2023-01-19T00:00:00	2024-11-06T17:00:00	5	Humedad	67
3597	7	Sololá	701	Sololá	3	Barraneche	1	Enero	2023-01-19T00:00:00	2024-11-06T17:00:00	6	Velocidad del viento	9.7
3598	7	Sololá	701	Sololá	3	Barraneche	1	Enero	2023-01-19T00:00:00	2024-11-06T17:00:00	7	Dirección del viento	9.66
3599	7	Sololá	701	Sololá	3	Barraneche	1	Enero	2023-01-19T00:00:00	2024-11-06T17:00:00	1	Precipitación	0
3600	7	Sololá	701	Sololá	3	Barraneche	1	Enero	2023-01-19T00:00:00	2024-11-06T17:00:00	8	Radiación solar	248
3601	7	Sololá	701	Sololá	3	Barraneche	1	Enero	2023-01-19T00:00:00	2024-11-06T18:00:00	2	Temperatura media	11.6
3602	7	Sololá	701	Sololá	3	Barraneche	1	Enero	2023-01-19T00:00:00	2024-11-06T18:00:00	4	Temperatura máxima	14.4
3603	7	Sololá	701	Sololá	3	Barraneche	1	Enero	2023-01-19T00:00:00	2024-11-06T18:00:00	3	Temperatura mínima	11.6
3604	7	Sololá	701	Sololá	3	Barraneche	1	Enero	2023-01-19T00:00:00	2024-11-06T18:00:00	5	Humedad	61
3605	7	Sololá	701	Sololá	3	Barraneche	1	Enero	2023-01-19T00:00:00	2024-11-06T18:00:00	6	Velocidad del viento	3.2
3606	7	Sololá	701	Sololá	3	Barraneche	1	Enero	2023-01-19T00:00:00	2024-11-06T18:00:00	7	Dirección del viento	3.22
3607	7	Sololá	701	Sololá	3	Barraneche	1	Enero	2023-01-19T00:00:00	2024-11-06T18:00:00	1	Precipitación	0
3608	7	Sololá	701	Sololá	3	Barraneche	1	Enero	2023-01-19T00:00:00	2024-11-06T18:00:00	8	Radiación solar	47
3609	7	Sololá	701	Sololá	3	Barraneche	1	Enero	2023-01-19T00:00:00	2024-11-06T19:00:00	2	Temperatura media	9.2
3610	7	Sololá	701	Sololá	3	Barraneche	1	Enero	2023-01-19T00:00:00	2024-11-06T19:00:00	4	Temperatura máxima	11.6
3611	7	Sololá	701	Sololá	3	Barraneche	1	Enero	2023-01-19T00:00:00	2024-11-06T19:00:00	3	Temperatura mínima	8.8
3612	7	Sololá	701	Sololá	3	Barraneche	1	Enero	2023-01-19T00:00:00	2024-11-06T19:00:00	5	Humedad	52
3613	7	Sololá	701	Sololá	3	Barraneche	1	Enero	2023-01-19T00:00:00	2024-11-06T19:00:00	6	Velocidad del viento	6.4
3614	7	Sololá	701	Sololá	3	Barraneche	1	Enero	2023-01-19T00:00:00	2024-11-06T19:00:00	7	Dirección del viento	6.44
3615	7	Sololá	701	Sololá	3	Barraneche	1	Enero	2023-01-19T00:00:00	2024-11-06T19:00:00	1	Precipitación	0
3616	7	Sololá	701	Sololá	3	Barraneche	1	Enero	2023-01-19T00:00:00	2024-11-06T19:00:00	8	Radiación solar	0
3617	7	Sololá	701	Sololá	3	Barraneche	1	Enero	2023-01-19T00:00:00	2024-11-06T20:00:00	2	Temperatura media	13.3
3618	7	Sololá	701	Sololá	3	Barraneche	1	Enero	2023-01-19T00:00:00	2024-11-06T20:00:00	4	Temperatura máxima	13.7
3619	7	Sololá	701	Sololá	3	Barraneche	1	Enero	2023-01-19T00:00:00	2024-11-06T20:00:00	3	Temperatura mínima	9.2
3620	7	Sololá	701	Sololá	3	Barraneche	1	Enero	2023-01-19T00:00:00	2024-11-06T20:00:00	5	Humedad	43
3621	7	Sololá	701	Sololá	3	Barraneche	1	Enero	2023-01-19T00:00:00	2024-11-06T20:00:00	6	Velocidad del viento	9.7
3622	7	Sololá	701	Sololá	3	Barraneche	1	Enero	2023-01-19T00:00:00	2024-11-06T20:00:00	7	Dirección del viento	9.66
3623	7	Sololá	701	Sololá	3	Barraneche	1	Enero	2023-01-19T00:00:00	2024-11-06T20:00:00	1	Precipitación	0
3624	7	Sololá	701	Sololá	3	Barraneche	1	Enero	2023-01-19T00:00:00	2024-11-06T20:00:00	8	Radiación solar	0
3625	7	Sololá	701	Sololá	3	Barraneche	1	Enero	2023-01-19T00:00:00	2024-11-06T21:00:00	2	Temperatura media	12.7
3626	7	Sololá	701	Sololá	3	Barraneche	1	Enero	2023-01-19T00:00:00	2024-11-06T21:00:00	4	Temperatura máxima	13.5
3627	7	Sololá	701	Sololá	3	Barraneche	1	Enero	2023-01-19T00:00:00	2024-11-06T21:00:00	3	Temperatura mínima	12.7
3628	7	Sololá	701	Sololá	3	Barraneche	1	Enero	2023-01-19T00:00:00	2024-11-06T21:00:00	5	Humedad	55
3629	7	Sololá	701	Sololá	3	Barraneche	1	Enero	2023-01-19T00:00:00	2024-11-06T21:00:00	6	Velocidad del viento	16.1
3630	7	Sololá	701	Sololá	3	Barraneche	1	Enero	2023-01-19T00:00:00	2024-11-06T21:00:00	7	Dirección del viento	16.09
3631	7	Sololá	701	Sololá	3	Barraneche	1	Enero	2023-01-19T00:00:00	2024-11-06T21:00:00	1	Precipitación	0
3632	7	Sololá	701	Sololá	3	Barraneche	1	Enero	2023-01-19T00:00:00	2024-11-06T21:00:00	8	Radiación solar	0
3633	7	Sololá	701	Sololá	3	Barraneche	1	Enero	2023-01-19T00:00:00	2024-11-06T22:00:00	2	Temperatura media	11.9
3634	7	Sololá	701	Sololá	3	Barraneche	1	Enero	2023-01-19T00:00:00	2024-11-06T22:00:00	4	Temperatura máxima	12.8
3635	7	Sololá	701	Sololá	3	Barraneche	1	Enero	2023-01-19T00:00:00	2024-11-06T22:00:00	3	Temperatura mínima	11.8
3636	7	Sololá	701	Sololá	3	Barraneche	1	Enero	2023-01-19T00:00:00	2024-11-06T22:00:00	5	Humedad	51
3637	7	Sololá	701	Sololá	3	Barraneche	1	Enero	2023-01-19T00:00:00	2024-11-06T22:00:00	6	Velocidad del viento	16.1
3638	7	Sololá	701	Sololá	3	Barraneche	1	Enero	2023-01-19T00:00:00	2024-11-06T22:00:00	7	Dirección del viento	16.09
3639	7	Sololá	701	Sololá	3	Barraneche	1	Enero	2023-01-19T00:00:00	2024-11-06T22:00:00	1	Precipitación	0
3640	7	Sololá	701	Sololá	3	Barraneche	1	Enero	2023-01-19T00:00:00	2024-11-06T22:00:00	8	Radiación solar	0
3641	7	Sololá	701	Sololá	3	Barraneche	1	Enero	2023-01-19T00:00:00	2024-11-06T23:00:00	2	Temperatura media	9.7
3642	7	Sololá	701	Sololá	3	Barraneche	1	Enero	2023-01-19T00:00:00	2024-11-06T23:00:00	4	Temperatura máxima	12.3
3643	7	Sololá	701	Sololá	3	Barraneche	1	Enero	2023-01-19T00:00:00	2024-11-06T23:00:00	3	Temperatura mínima	9.4
3644	7	Sololá	701	Sololá	3	Barraneche	1	Enero	2023-01-19T00:00:00	2024-11-06T23:00:00	5	Humedad	48
3645	7	Sololá	701	Sololá	3	Barraneche	1	Enero	2023-01-19T00:00:00	2024-11-06T23:00:00	6	Velocidad del viento	4.8
3646	7	Sololá	701	Sololá	3	Barraneche	1	Enero	2023-01-19T00:00:00	2024-11-06T23:00:00	7	Dirección del viento	4.83
3647	7	Sololá	701	Sololá	3	Barraneche	1	Enero	2023-01-19T00:00:00	2024-11-06T23:00:00	1	Precipitación	0
3648	7	Sololá	701	Sololá	3	Barraneche	1	Enero	2023-01-19T00:00:00	2024-11-06T23:00:00	8	Radiación solar	0
3649	7	Sololá	701	Sololá	3	Barraneche	1	Enero	2023-01-20T00:00:00	2024-11-06T00:00:00	2	Temperatura media	9.1
3650	7	Sololá	701	Sololá	3	Barraneche	1	Enero	2023-01-20T00:00:00	2024-11-06T00:00:00	4	Temperatura máxima	9.8
3651	7	Sololá	701	Sololá	3	Barraneche	1	Enero	2023-01-20T00:00:00	2024-11-06T00:00:00	3	Temperatura mínima	8.5
3652	7	Sololá	701	Sololá	3	Barraneche	1	Enero	2023-01-20T00:00:00	2024-11-06T00:00:00	5	Humedad	46
3653	7	Sololá	701	Sololá	3	Barraneche	1	Enero	2023-01-20T00:00:00	2024-11-06T00:00:00	6	Velocidad del viento	4.8
3654	7	Sololá	701	Sololá	3	Barraneche	1	Enero	2023-01-20T00:00:00	2024-11-06T00:00:00	7	Dirección del viento	4.83
3655	7	Sololá	701	Sololá	3	Barraneche	1	Enero	2023-01-20T00:00:00	2024-11-06T00:00:00	1	Precipitación	0
3656	7	Sololá	701	Sololá	3	Barraneche	1	Enero	2023-01-20T00:00:00	2024-11-06T00:00:00	8	Radiación solar	0
3657	7	Sololá	701	Sololá	3	Barraneche	1	Enero	2023-01-20T00:00:00	2024-11-06T01:00:00	2	Temperatura media	8.5
3658	7	Sololá	701	Sololá	3	Barraneche	1	Enero	2023-01-20T00:00:00	2024-11-06T01:00:00	4	Temperatura máxima	9.1
3659	7	Sololá	701	Sololá	3	Barraneche	1	Enero	2023-01-20T00:00:00	2024-11-06T01:00:00	3	Temperatura mínima	8
3660	7	Sololá	701	Sololá	3	Barraneche	1	Enero	2023-01-20T00:00:00	2024-11-06T01:00:00	5	Humedad	50
3661	7	Sololá	701	Sololá	3	Barraneche	1	Enero	2023-01-20T00:00:00	2024-11-06T01:00:00	6	Velocidad del viento	6.4
3662	7	Sololá	701	Sololá	3	Barraneche	1	Enero	2023-01-20T00:00:00	2024-11-06T01:00:00	7	Dirección del viento	6.44
3663	7	Sololá	701	Sololá	3	Barraneche	1	Enero	2023-01-20T00:00:00	2024-11-06T01:00:00	1	Precipitación	0
3664	7	Sololá	701	Sololá	3	Barraneche	1	Enero	2023-01-20T00:00:00	2024-11-06T01:00:00	8	Radiación solar	0
3665	7	Sololá	701	Sololá	3	Barraneche	1	Enero	2023-01-20T00:00:00	2024-11-06T02:00:00	2	Temperatura media	8.1
3666	7	Sololá	701	Sololá	3	Barraneche	1	Enero	2023-01-20T00:00:00	2024-11-06T02:00:00	4	Temperatura máxima	8.5
3667	7	Sololá	701	Sololá	3	Barraneche	1	Enero	2023-01-20T00:00:00	2024-11-06T02:00:00	3	Temperatura mínima	7.7
3668	7	Sololá	701	Sololá	3	Barraneche	1	Enero	2023-01-20T00:00:00	2024-11-06T02:00:00	5	Humedad	45
3669	7	Sololá	701	Sololá	3	Barraneche	1	Enero	2023-01-20T00:00:00	2024-11-06T02:00:00	6	Velocidad del viento	8
3670	7	Sololá	701	Sololá	3	Barraneche	1	Enero	2023-01-20T00:00:00	2024-11-06T02:00:00	7	Dirección del viento	8.05
3671	7	Sololá	701	Sololá	3	Barraneche	1	Enero	2023-01-20T00:00:00	2024-11-06T02:00:00	1	Precipitación	0
3672	7	Sololá	701	Sololá	3	Barraneche	1	Enero	2023-01-20T00:00:00	2024-11-06T02:00:00	8	Radiación solar	0
3673	7	Sololá	701	Sololá	3	Barraneche	1	Enero	2023-01-20T00:00:00	2024-11-06T03:00:00	2	Temperatura media	8.2
3674	7	Sololá	701	Sololá	3	Barraneche	1	Enero	2023-01-20T00:00:00	2024-11-06T03:00:00	4	Temperatura máxima	8.6
3675	7	Sololá	701	Sololá	3	Barraneche	1	Enero	2023-01-20T00:00:00	2024-11-06T03:00:00	3	Temperatura mínima	8
3676	7	Sololá	701	Sololá	3	Barraneche	1	Enero	2023-01-20T00:00:00	2024-11-06T03:00:00	5	Humedad	38
3677	7	Sololá	701	Sololá	3	Barraneche	1	Enero	2023-01-20T00:00:00	2024-11-06T03:00:00	6	Velocidad del viento	6.4
3678	7	Sololá	701	Sololá	3	Barraneche	1	Enero	2023-01-20T00:00:00	2024-11-06T03:00:00	7	Dirección del viento	6.44
3679	7	Sololá	701	Sololá	3	Barraneche	1	Enero	2023-01-20T00:00:00	2024-11-06T03:00:00	1	Precipitación	0
3680	7	Sololá	701	Sololá	3	Barraneche	1	Enero	2023-01-20T00:00:00	2024-11-06T03:00:00	8	Radiación solar	0
3681	7	Sololá	701	Sololá	3	Barraneche	1	Enero	2023-01-20T00:00:00	2024-11-06T04:00:00	2	Temperatura media	7.9
3682	7	Sololá	701	Sololá	3	Barraneche	1	Enero	2023-01-20T00:00:00	2024-11-06T04:00:00	4	Temperatura máxima	8.8
3683	7	Sololá	701	Sololá	3	Barraneche	1	Enero	2023-01-20T00:00:00	2024-11-06T04:00:00	3	Temperatura mínima	7.7
3684	7	Sololá	701	Sololá	3	Barraneche	1	Enero	2023-01-20T00:00:00	2024-11-06T04:00:00	5	Humedad	38
3685	7	Sololá	701	Sololá	3	Barraneche	1	Enero	2023-01-20T00:00:00	2024-11-06T04:00:00	6	Velocidad del viento	8
3686	7	Sololá	701	Sololá	3	Barraneche	1	Enero	2023-01-20T00:00:00	2024-11-06T04:00:00	7	Dirección del viento	8.05
3687	7	Sololá	701	Sololá	3	Barraneche	1	Enero	2023-01-20T00:00:00	2024-11-06T04:00:00	1	Precipitación	0
3688	7	Sololá	701	Sololá	3	Barraneche	1	Enero	2023-01-20T00:00:00	2024-11-06T04:00:00	8	Radiación solar	0
3689	7	Sololá	701	Sololá	3	Barraneche	1	Enero	2023-01-20T00:00:00	2024-11-06T05:00:00	2	Temperatura media	8.6
3690	7	Sololá	701	Sololá	3	Barraneche	1	Enero	2023-01-20T00:00:00	2024-11-06T05:00:00	4	Temperatura máxima	8.8
3691	7	Sololá	701	Sololá	3	Barraneche	1	Enero	2023-01-20T00:00:00	2024-11-06T05:00:00	3	Temperatura mínima	7.8
3692	7	Sololá	701	Sololá	3	Barraneche	1	Enero	2023-01-20T00:00:00	2024-11-06T05:00:00	5	Humedad	40
3693	7	Sololá	701	Sololá	3	Barraneche	1	Enero	2023-01-20T00:00:00	2024-11-06T05:00:00	6	Velocidad del viento	6.4
3694	7	Sololá	701	Sololá	3	Barraneche	1	Enero	2023-01-20T00:00:00	2024-11-06T05:00:00	7	Dirección del viento	6.44
3695	7	Sololá	701	Sololá	3	Barraneche	1	Enero	2023-01-20T00:00:00	2024-11-06T05:00:00	1	Precipitación	0
3696	7	Sololá	701	Sololá	3	Barraneche	1	Enero	2023-01-20T00:00:00	2024-11-06T05:00:00	8	Radiación solar	0
3697	7	Sololá	701	Sololá	3	Barraneche	1	Enero	2023-01-20T00:00:00	2024-11-06T06:00:00	2	Temperatura media	8.7
3698	7	Sololá	701	Sololá	3	Barraneche	1	Enero	2023-01-20T00:00:00	2024-11-06T06:00:00	4	Temperatura máxima	9.8
3699	7	Sololá	701	Sololá	3	Barraneche	1	Enero	2023-01-20T00:00:00	2024-11-06T06:00:00	3	Temperatura mínima	8.5
3700	7	Sololá	701	Sololá	3	Barraneche	1	Enero	2023-01-20T00:00:00	2024-11-06T06:00:00	5	Humedad	43
3701	7	Sololá	701	Sololá	3	Barraneche	1	Enero	2023-01-20T00:00:00	2024-11-06T06:00:00	6	Velocidad del viento	9.7
3702	7	Sololá	701	Sololá	3	Barraneche	1	Enero	2023-01-20T00:00:00	2024-11-06T06:00:00	7	Dirección del viento	9.66
3703	7	Sololá	701	Sololá	3	Barraneche	1	Enero	2023-01-20T00:00:00	2024-11-06T06:00:00	1	Precipitación	0
3704	7	Sololá	701	Sololá	3	Barraneche	1	Enero	2023-01-20T00:00:00	2024-11-06T06:00:00	8	Radiación solar	0
3705	7	Sololá	701	Sololá	3	Barraneche	1	Enero	2023-01-20T00:00:00	2024-11-06T07:00:00	2	Temperatura media	9.8
3706	7	Sololá	701	Sololá	3	Barraneche	1	Enero	2023-01-20T00:00:00	2024-11-06T07:00:00	4	Temperatura máxima	10.1
3707	7	Sololá	701	Sololá	3	Barraneche	1	Enero	2023-01-20T00:00:00	2024-11-06T07:00:00	3	Temperatura mínima	8.2
3708	7	Sololá	701	Sololá	3	Barraneche	1	Enero	2023-01-20T00:00:00	2024-11-06T07:00:00	5	Humedad	47
3709	7	Sololá	701	Sololá	3	Barraneche	1	Enero	2023-01-20T00:00:00	2024-11-06T07:00:00	6	Velocidad del viento	4.8
3710	7	Sololá	701	Sololá	3	Barraneche	1	Enero	2023-01-20T00:00:00	2024-11-06T07:00:00	7	Dirección del viento	4.83
3711	7	Sololá	701	Sololá	3	Barraneche	1	Enero	2023-01-20T00:00:00	2024-11-06T07:00:00	1	Precipitación	0
3712	7	Sololá	701	Sololá	3	Barraneche	1	Enero	2023-01-20T00:00:00	2024-11-06T07:00:00	8	Radiación solar	5
3713	7	Sololá	701	Sololá	3	Barraneche	1	Enero	2023-01-20T00:00:00	2024-11-06T08:00:00	2	Temperatura media	14.7
3714	7	Sololá	701	Sololá	3	Barraneche	1	Enero	2023-01-20T00:00:00	2024-11-06T08:00:00	4	Temperatura máxima	14.7
3715	7	Sololá	701	Sololá	3	Barraneche	1	Enero	2023-01-20T00:00:00	2024-11-06T08:00:00	3	Temperatura mínima	9.8
3716	7	Sololá	701	Sololá	3	Barraneche	1	Enero	2023-01-20T00:00:00	2024-11-06T08:00:00	5	Humedad	41
3717	7	Sololá	701	Sololá	3	Barraneche	1	Enero	2023-01-20T00:00:00	2024-11-06T08:00:00	6	Velocidad del viento	6.4
3718	7	Sololá	701	Sololá	3	Barraneche	1	Enero	2023-01-20T00:00:00	2024-11-06T08:00:00	7	Dirección del viento	6.44
3719	7	Sololá	701	Sololá	3	Barraneche	1	Enero	2023-01-20T00:00:00	2024-11-06T08:00:00	1	Precipitación	0
3720	7	Sololá	701	Sololá	3	Barraneche	1	Enero	2023-01-20T00:00:00	2024-11-06T08:00:00	8	Radiación solar	137
3721	7	Sololá	701	Sololá	3	Barraneche	1	Enero	2023-01-20T00:00:00	2024-11-06T09:00:00	2	Temperatura media	15.9
3722	7	Sololá	701	Sololá	3	Barraneche	1	Enero	2023-01-20T00:00:00	2024-11-06T09:00:00	4	Temperatura máxima	15.9
3723	7	Sololá	701	Sololá	3	Barraneche	1	Enero	2023-01-20T00:00:00	2024-11-06T09:00:00	3	Temperatura mínima	14.7
3724	7	Sololá	701	Sololá	3	Barraneche	1	Enero	2023-01-20T00:00:00	2024-11-06T09:00:00	5	Humedad	31
3725	7	Sololá	701	Sololá	3	Barraneche	1	Enero	2023-01-20T00:00:00	2024-11-06T09:00:00	6	Velocidad del viento	11.3
3726	7	Sololá	701	Sololá	3	Barraneche	1	Enero	2023-01-20T00:00:00	2024-11-06T09:00:00	7	Dirección del viento	11.27
3727	7	Sololá	701	Sololá	3	Barraneche	1	Enero	2023-01-20T00:00:00	2024-11-06T09:00:00	1	Precipitación	0
3728	7	Sololá	701	Sololá	3	Barraneche	1	Enero	2023-01-20T00:00:00	2024-11-06T09:00:00	8	Radiación solar	392
3729	7	Sololá	701	Sololá	3	Barraneche	1	Enero	2023-01-20T00:00:00	2024-11-06T10:00:00	2	Temperatura media	16.5
3730	7	Sololá	701	Sololá	3	Barraneche	1	Enero	2023-01-20T00:00:00	2024-11-06T10:00:00	4	Temperatura máxima	16.8
3731	7	Sololá	701	Sololá	3	Barraneche	1	Enero	2023-01-20T00:00:00	2024-11-06T10:00:00	3	Temperatura mínima	15.8
3732	7	Sololá	701	Sololá	3	Barraneche	1	Enero	2023-01-20T00:00:00	2024-11-06T10:00:00	5	Humedad	38
3733	7	Sololá	701	Sololá	3	Barraneche	1	Enero	2023-01-20T00:00:00	2024-11-06T10:00:00	6	Velocidad del viento	11.3
3734	7	Sololá	701	Sololá	3	Barraneche	1	Enero	2023-01-20T00:00:00	2024-11-06T10:00:00	7	Dirección del viento	11.27
3735	7	Sololá	701	Sololá	3	Barraneche	1	Enero	2023-01-20T00:00:00	2024-11-06T10:00:00	1	Precipitación	0
3736	7	Sololá	701	Sololá	3	Barraneche	1	Enero	2023-01-20T00:00:00	2024-11-06T10:00:00	8	Radiación solar	598
3737	7	Sololá	701	Sololá	3	Barraneche	1	Enero	2023-01-20T00:00:00	2024-11-06T11:00:00	2	Temperatura media	17.3
3738	7	Sololá	701	Sololá	3	Barraneche	1	Enero	2023-01-20T00:00:00	2024-11-06T11:00:00	4	Temperatura máxima	17.6
3739	7	Sololá	701	Sololá	3	Barraneche	1	Enero	2023-01-20T00:00:00	2024-11-06T11:00:00	3	Temperatura mínima	16.4
3740	7	Sololá	701	Sololá	3	Barraneche	1	Enero	2023-01-20T00:00:00	2024-11-06T11:00:00	5	Humedad	39
3741	7	Sololá	701	Sololá	3	Barraneche	1	Enero	2023-01-20T00:00:00	2024-11-06T11:00:00	6	Velocidad del viento	9.7
3742	7	Sololá	701	Sololá	3	Barraneche	1	Enero	2023-01-20T00:00:00	2024-11-06T11:00:00	7	Dirección del viento	9.66
3743	7	Sololá	701	Sololá	3	Barraneche	1	Enero	2023-01-20T00:00:00	2024-11-06T11:00:00	1	Precipitación	0
3744	7	Sololá	701	Sololá	3	Barraneche	1	Enero	2023-01-20T00:00:00	2024-11-06T11:00:00	8	Radiación solar	750
3745	7	Sololá	701	Sololá	3	Barraneche	1	Enero	2023-01-20T00:00:00	2024-11-06T12:00:00	2	Temperatura media	17.8
3746	7	Sololá	701	Sololá	3	Barraneche	1	Enero	2023-01-20T00:00:00	2024-11-06T12:00:00	4	Temperatura máxima	18.3
3747	7	Sololá	701	Sololá	3	Barraneche	1	Enero	2023-01-20T00:00:00	2024-11-06T12:00:00	3	Temperatura mínima	17.3
3748	7	Sololá	701	Sololá	3	Barraneche	1	Enero	2023-01-20T00:00:00	2024-11-06T12:00:00	5	Humedad	39
3749	7	Sololá	701	Sololá	3	Barraneche	1	Enero	2023-01-20T00:00:00	2024-11-06T12:00:00	6	Velocidad del viento	9.7
3750	7	Sololá	701	Sololá	3	Barraneche	1	Enero	2023-01-20T00:00:00	2024-11-06T12:00:00	7	Dirección del viento	9.66
3751	7	Sololá	701	Sololá	3	Barraneche	1	Enero	2023-01-20T00:00:00	2024-11-06T12:00:00	1	Precipitación	0
3752	7	Sololá	701	Sololá	3	Barraneche	1	Enero	2023-01-20T00:00:00	2024-11-06T12:00:00	8	Radiación solar	839
3753	7	Sololá	701	Sololá	3	Barraneche	1	Enero	2023-01-20T00:00:00	2024-11-06T13:00:00	2	Temperatura media	18.6
3754	7	Sololá	701	Sololá	3	Barraneche	1	Enero	2023-01-20T00:00:00	2024-11-06T13:00:00	4	Temperatura máxima	18.8
3755	7	Sololá	701	Sololá	3	Barraneche	1	Enero	2023-01-20T00:00:00	2024-11-06T13:00:00	3	Temperatura mínima	17.9
3756	7	Sololá	701	Sololá	3	Barraneche	1	Enero	2023-01-20T00:00:00	2024-11-06T13:00:00	5	Humedad	33
3757	7	Sololá	701	Sololá	3	Barraneche	1	Enero	2023-01-20T00:00:00	2024-11-06T13:00:00	6	Velocidad del viento	12.9
3758	7	Sololá	701	Sololá	3	Barraneche	1	Enero	2023-01-20T00:00:00	2024-11-06T13:00:00	7	Dirección del viento	12.87
3759	7	Sololá	701	Sololá	3	Barraneche	1	Enero	2023-01-20T00:00:00	2024-11-06T13:00:00	1	Precipitación	0
3760	7	Sololá	701	Sololá	3	Barraneche	1	Enero	2023-01-20T00:00:00	2024-11-06T13:00:00	8	Radiación solar	858
3761	7	Sololá	701	Sololá	3	Barraneche	1	Enero	2023-01-20T00:00:00	2024-11-06T14:00:00	2	Temperatura media	19
3762	7	Sololá	701	Sololá	3	Barraneche	1	Enero	2023-01-20T00:00:00	2024-11-06T14:00:00	4	Temperatura máxima	19.2
3763	7	Sololá	701	Sololá	3	Barraneche	1	Enero	2023-01-20T00:00:00	2024-11-06T14:00:00	3	Temperatura mínima	18.3
3764	7	Sololá	701	Sololá	3	Barraneche	1	Enero	2023-01-20T00:00:00	2024-11-06T14:00:00	5	Humedad	29
3765	7	Sololá	701	Sololá	3	Barraneche	1	Enero	2023-01-20T00:00:00	2024-11-06T14:00:00	6	Velocidad del viento	12.9
3766	7	Sololá	701	Sololá	3	Barraneche	1	Enero	2023-01-20T00:00:00	2024-11-06T14:00:00	7	Dirección del viento	12.87
3767	7	Sololá	701	Sololá	3	Barraneche	1	Enero	2023-01-20T00:00:00	2024-11-06T14:00:00	1	Precipitación	0
3768	7	Sololá	701	Sololá	3	Barraneche	1	Enero	2023-01-20T00:00:00	2024-11-06T14:00:00	8	Radiación solar	799
3769	7	Sololá	701	Sololá	3	Barraneche	1	Enero	2023-01-20T00:00:00	2024-11-06T15:00:00	2	Temperatura media	17.4
3770	7	Sololá	701	Sololá	3	Barraneche	1	Enero	2023-01-20T00:00:00	2024-11-06T15:00:00	4	Temperatura máxima	19
3771	7	Sololá	701	Sololá	3	Barraneche	1	Enero	2023-01-20T00:00:00	2024-11-06T15:00:00	3	Temperatura mínima	17.3
3772	7	Sololá	701	Sololá	3	Barraneche	1	Enero	2023-01-20T00:00:00	2024-11-06T15:00:00	5	Humedad	55
3773	7	Sololá	701	Sololá	3	Barraneche	1	Enero	2023-01-20T00:00:00	2024-11-06T15:00:00	6	Velocidad del viento	11.3
3774	7	Sololá	701	Sololá	3	Barraneche	1	Enero	2023-01-20T00:00:00	2024-11-06T15:00:00	7	Dirección del viento	11.27
3775	7	Sololá	701	Sololá	3	Barraneche	1	Enero	2023-01-20T00:00:00	2024-11-06T15:00:00	1	Precipitación	0
3776	7	Sololá	701	Sololá	3	Barraneche	1	Enero	2023-01-20T00:00:00	2024-11-06T15:00:00	8	Radiación solar	678
3777	7	Sololá	701	Sololá	3	Barraneche	1	Enero	2023-01-20T00:00:00	2024-11-06T16:00:00	2	Temperatura media	17.4
3778	7	Sololá	701	Sololá	3	Barraneche	1	Enero	2023-01-20T00:00:00	2024-11-06T16:00:00	4	Temperatura máxima	17.5
3779	7	Sololá	701	Sololá	3	Barraneche	1	Enero	2023-01-20T00:00:00	2024-11-06T16:00:00	3	Temperatura mínima	16.7
3780	7	Sololá	701	Sololá	3	Barraneche	1	Enero	2023-01-20T00:00:00	2024-11-06T16:00:00	5	Humedad	41
3781	7	Sololá	701	Sololá	3	Barraneche	1	Enero	2023-01-20T00:00:00	2024-11-06T16:00:00	6	Velocidad del viento	11.3
3782	7	Sololá	701	Sololá	3	Barraneche	1	Enero	2023-01-20T00:00:00	2024-11-06T16:00:00	7	Dirección del viento	11.27
3783	7	Sololá	701	Sololá	3	Barraneche	1	Enero	2023-01-20T00:00:00	2024-11-06T16:00:00	1	Precipitación	0
3784	7	Sololá	701	Sololá	3	Barraneche	1	Enero	2023-01-20T00:00:00	2024-11-06T16:00:00	8	Radiación solar	498
3785	7	Sololá	701	Sololá	3	Barraneche	1	Enero	2023-01-20T00:00:00	2024-11-06T17:00:00	2	Temperatura media	16
3786	7	Sololá	701	Sololá	3	Barraneche	1	Enero	2023-01-20T00:00:00	2024-11-06T17:00:00	4	Temperatura máxima	18
3787	7	Sololá	701	Sololá	3	Barraneche	1	Enero	2023-01-20T00:00:00	2024-11-06T17:00:00	3	Temperatura mínima	15.7
3788	7	Sololá	701	Sololá	3	Barraneche	1	Enero	2023-01-20T00:00:00	2024-11-06T17:00:00	5	Humedad	62
3789	7	Sololá	701	Sololá	3	Barraneche	1	Enero	2023-01-20T00:00:00	2024-11-06T17:00:00	6	Velocidad del viento	8
3790	7	Sololá	701	Sololá	3	Barraneche	1	Enero	2023-01-20T00:00:00	2024-11-06T17:00:00	7	Dirección del viento	8.05
3791	7	Sololá	701	Sololá	3	Barraneche	1	Enero	2023-01-20T00:00:00	2024-11-06T17:00:00	1	Precipitación	0
3792	7	Sololá	701	Sololá	3	Barraneche	1	Enero	2023-01-20T00:00:00	2024-11-06T17:00:00	8	Radiación solar	239
3793	7	Sololá	701	Sololá	3	Barraneche	1	Enero	2023-01-20T00:00:00	2024-11-06T18:00:00	2	Temperatura media	14.1
3794	7	Sololá	701	Sololá	3	Barraneche	1	Enero	2023-01-20T00:00:00	2024-11-06T18:00:00	4	Temperatura máxima	15.9
3795	7	Sololá	701	Sololá	3	Barraneche	1	Enero	2023-01-20T00:00:00	2024-11-06T18:00:00	3	Temperatura mínima	14.1
3796	7	Sololá	701	Sololá	3	Barraneche	1	Enero	2023-01-20T00:00:00	2024-11-06T18:00:00	5	Humedad	52
3797	7	Sololá	701	Sololá	3	Barraneche	1	Enero	2023-01-20T00:00:00	2024-11-06T18:00:00	6	Velocidad del viento	8
3798	7	Sololá	701	Sololá	3	Barraneche	1	Enero	2023-01-20T00:00:00	2024-11-06T18:00:00	7	Dirección del viento	8.05
3799	7	Sololá	701	Sololá	3	Barraneche	1	Enero	2023-01-20T00:00:00	2024-11-06T18:00:00	1	Precipitación	0
3800	7	Sololá	701	Sololá	3	Barraneche	1	Enero	2023-01-20T00:00:00	2024-11-06T18:00:00	8	Radiación solar	45
3801	7	Sololá	701	Sololá	3	Barraneche	1	Enero	2023-01-20T00:00:00	2024-11-06T19:00:00	2	Temperatura media	13.4
3802	7	Sololá	701	Sololá	3	Barraneche	1	Enero	2023-01-20T00:00:00	2024-11-06T19:00:00	4	Temperatura máxima	14.1
3803	7	Sololá	701	Sololá	3	Barraneche	1	Enero	2023-01-20T00:00:00	2024-11-06T19:00:00	3	Temperatura mínima	13.4
3804	7	Sololá	701	Sololá	3	Barraneche	1	Enero	2023-01-20T00:00:00	2024-11-06T19:00:00	5	Humedad	53
3805	7	Sololá	701	Sololá	3	Barraneche	1	Enero	2023-01-20T00:00:00	2024-11-06T19:00:00	6	Velocidad del viento	4.8
3806	7	Sololá	701	Sololá	3	Barraneche	1	Enero	2023-01-20T00:00:00	2024-11-06T19:00:00	7	Dirección del viento	4.83
3807	7	Sololá	701	Sololá	3	Barraneche	1	Enero	2023-01-20T00:00:00	2024-11-06T19:00:00	1	Precipitación	0
3808	7	Sololá	701	Sololá	3	Barraneche	1	Enero	2023-01-20T00:00:00	2024-11-06T19:00:00	8	Radiación solar	0
3809	7	Sololá	701	Sololá	3	Barraneche	1	Enero	2023-01-20T00:00:00	2024-11-06T20:00:00	2	Temperatura media	13.3
3810	7	Sololá	701	Sololá	3	Barraneche	1	Enero	2023-01-20T00:00:00	2024-11-06T20:00:00	4	Temperatura máxima	13.5
3811	7	Sololá	701	Sololá	3	Barraneche	1	Enero	2023-01-20T00:00:00	2024-11-06T20:00:00	3	Temperatura mínima	13.2
3812	7	Sololá	701	Sololá	3	Barraneche	1	Enero	2023-01-20T00:00:00	2024-11-06T20:00:00	5	Humedad	60
3813	7	Sololá	701	Sololá	3	Barraneche	1	Enero	2023-01-20T00:00:00	2024-11-06T20:00:00	6	Velocidad del viento	16.1
3814	7	Sololá	701	Sololá	3	Barraneche	1	Enero	2023-01-20T00:00:00	2024-11-06T20:00:00	7	Dirección del viento	16.09
3815	7	Sololá	701	Sololá	3	Barraneche	1	Enero	2023-01-20T00:00:00	2024-11-06T20:00:00	1	Precipitación	0
3816	7	Sololá	701	Sololá	3	Barraneche	1	Enero	2023-01-20T00:00:00	2024-11-06T20:00:00	8	Radiación solar	0
3817	7	Sololá	701	Sololá	3	Barraneche	1	Enero	2023-01-20T00:00:00	2024-11-06T21:00:00	2	Temperatura media	13.1
3818	7	Sololá	701	Sololá	3	Barraneche	1	Enero	2023-01-20T00:00:00	2024-11-06T21:00:00	4	Temperatura máxima	13.3
3819	7	Sololá	701	Sololá	3	Barraneche	1	Enero	2023-01-20T00:00:00	2024-11-06T21:00:00	3	Temperatura mínima	13.1
3820	7	Sololá	701	Sololá	3	Barraneche	1	Enero	2023-01-20T00:00:00	2024-11-06T21:00:00	5	Humedad	60
3821	7	Sololá	701	Sololá	3	Barraneche	1	Enero	2023-01-20T00:00:00	2024-11-06T21:00:00	6	Velocidad del viento	12.9
3822	7	Sololá	701	Sololá	3	Barraneche	1	Enero	2023-01-20T00:00:00	2024-11-06T21:00:00	7	Dirección del viento	12.87
3823	7	Sololá	701	Sololá	3	Barraneche	1	Enero	2023-01-20T00:00:00	2024-11-06T21:00:00	1	Precipitación	0
3824	7	Sololá	701	Sololá	3	Barraneche	1	Enero	2023-01-20T00:00:00	2024-11-06T21:00:00	8	Radiación solar	0
3825	7	Sololá	701	Sololá	3	Barraneche	1	Enero	2023-01-20T00:00:00	2024-11-06T22:00:00	2	Temperatura media	12.9
3826	7	Sololá	701	Sololá	3	Barraneche	1	Enero	2023-01-20T00:00:00	2024-11-06T22:00:00	4	Temperatura máxima	13.2
3827	7	Sololá	701	Sololá	3	Barraneche	1	Enero	2023-01-20T00:00:00	2024-11-06T22:00:00	3	Temperatura mínima	12.9
3828	7	Sololá	701	Sololá	3	Barraneche	1	Enero	2023-01-20T00:00:00	2024-11-06T22:00:00	5	Humedad	60
3829	7	Sololá	701	Sololá	3	Barraneche	1	Enero	2023-01-20T00:00:00	2024-11-06T22:00:00	6	Velocidad del viento	9.7
3830	7	Sololá	701	Sololá	3	Barraneche	1	Enero	2023-01-20T00:00:00	2024-11-06T22:00:00	7	Dirección del viento	9.66
3831	7	Sololá	701	Sololá	3	Barraneche	1	Enero	2023-01-20T00:00:00	2024-11-06T22:00:00	1	Precipitación	0
3832	7	Sololá	701	Sololá	3	Barraneche	1	Enero	2023-01-20T00:00:00	2024-11-06T22:00:00	8	Radiación solar	0
3833	7	Sololá	701	Sololá	3	Barraneche	1	Enero	2023-01-20T00:00:00	2024-11-06T23:00:00	2	Temperatura media	12.7
3834	7	Sololá	701	Sololá	3	Barraneche	1	Enero	2023-01-20T00:00:00	2024-11-06T23:00:00	4	Temperatura máxima	13.1
3835	7	Sololá	701	Sololá	3	Barraneche	1	Enero	2023-01-20T00:00:00	2024-11-06T23:00:00	3	Temperatura mínima	12.7
3836	7	Sololá	701	Sololá	3	Barraneche	1	Enero	2023-01-20T00:00:00	2024-11-06T23:00:00	5	Humedad	60
3837	7	Sololá	701	Sololá	3	Barraneche	1	Enero	2023-01-20T00:00:00	2024-11-06T23:00:00	6	Velocidad del viento	8
3838	7	Sololá	701	Sololá	3	Barraneche	1	Enero	2023-01-20T00:00:00	2024-11-06T23:00:00	7	Dirección del viento	8.05
3839	7	Sololá	701	Sololá	3	Barraneche	1	Enero	2023-01-20T00:00:00	2024-11-06T23:00:00	1	Precipitación	0
3840	7	Sololá	701	Sololá	3	Barraneche	1	Enero	2023-01-20T00:00:00	2024-11-06T23:00:00	8	Radiación solar	0
3841	7	Sololá	701	Sololá	3	Barraneche	1	Enero	2023-01-21T00:00:00	2024-11-06T00:00:00	2	Temperatura media	11.9
3842	7	Sololá	701	Sololá	3	Barraneche	1	Enero	2023-01-21T00:00:00	2024-11-06T00:00:00	4	Temperatura máxima	12.8
3843	7	Sololá	701	Sololá	3	Barraneche	1	Enero	2023-01-21T00:00:00	2024-11-06T00:00:00	3	Temperatura mínima	11.9
3844	7	Sololá	701	Sololá	3	Barraneche	1	Enero	2023-01-21T00:00:00	2024-11-06T00:00:00	5	Humedad	60
3845	7	Sololá	701	Sololá	3	Barraneche	1	Enero	2023-01-21T00:00:00	2024-11-06T00:00:00	6	Velocidad del viento	6.4
3846	7	Sololá	701	Sololá	3	Barraneche	1	Enero	2023-01-21T00:00:00	2024-11-06T00:00:00	7	Dirección del viento	6.44
3847	7	Sololá	701	Sololá	3	Barraneche	1	Enero	2023-01-21T00:00:00	2024-11-06T00:00:00	1	Precipitación	0
3848	7	Sololá	701	Sololá	3	Barraneche	1	Enero	2023-01-21T00:00:00	2024-11-06T00:00:00	8	Radiación solar	0
3849	7	Sololá	701	Sololá	3	Barraneche	1	Enero	2023-01-21T00:00:00	2024-11-06T01:00:00	2	Temperatura media	10.1
3850	7	Sololá	701	Sololá	3	Barraneche	1	Enero	2023-01-21T00:00:00	2024-11-06T01:00:00	4	Temperatura máxima	12.4
3851	7	Sololá	701	Sololá	3	Barraneche	1	Enero	2023-01-21T00:00:00	2024-11-06T01:00:00	3	Temperatura mínima	10.1
3852	7	Sololá	701	Sololá	3	Barraneche	1	Enero	2023-01-21T00:00:00	2024-11-06T01:00:00	5	Humedad	65
3853	7	Sololá	701	Sololá	3	Barraneche	1	Enero	2023-01-21T00:00:00	2024-11-06T01:00:00	6	Velocidad del viento	3.2
3854	7	Sololá	701	Sololá	3	Barraneche	1	Enero	2023-01-21T00:00:00	2024-11-06T01:00:00	7	Dirección del viento	3.22
3855	7	Sololá	701	Sololá	3	Barraneche	1	Enero	2023-01-21T00:00:00	2024-11-06T01:00:00	1	Precipitación	0
3856	7	Sololá	701	Sololá	3	Barraneche	1	Enero	2023-01-21T00:00:00	2024-11-06T01:00:00	8	Radiación solar	0
3857	7	Sololá	701	Sololá	3	Barraneche	1	Enero	2023-01-21T00:00:00	2024-11-06T02:00:00	2	Temperatura media	9.6
3858	7	Sololá	701	Sololá	3	Barraneche	1	Enero	2023-01-21T00:00:00	2024-11-06T02:00:00	4	Temperatura máxima	10.2
3859	7	Sololá	701	Sololá	3	Barraneche	1	Enero	2023-01-21T00:00:00	2024-11-06T02:00:00	3	Temperatura mínima	9.4
3860	7	Sololá	701	Sololá	3	Barraneche	1	Enero	2023-01-21T00:00:00	2024-11-06T02:00:00	5	Humedad	65
3861	7	Sololá	701	Sololá	3	Barraneche	1	Enero	2023-01-21T00:00:00	2024-11-06T02:00:00	6	Velocidad del viento	3.2
3862	7	Sololá	701	Sololá	3	Barraneche	1	Enero	2023-01-21T00:00:00	2024-11-06T02:00:00	7	Dirección del viento	3.22
3863	7	Sololá	701	Sololá	3	Barraneche	1	Enero	2023-01-21T00:00:00	2024-11-06T02:00:00	1	Precipitación	0
3864	7	Sololá	701	Sololá	3	Barraneche	1	Enero	2023-01-21T00:00:00	2024-11-06T02:00:00	8	Radiación solar	0
3865	7	Sololá	701	Sololá	3	Barraneche	1	Enero	2023-01-21T00:00:00	2024-11-06T03:00:00	2	Temperatura media	9.4
3866	7	Sololá	701	Sololá	3	Barraneche	1	Enero	2023-01-21T00:00:00	2024-11-06T03:00:00	4	Temperatura máxima	10.1
3867	7	Sololá	701	Sololá	3	Barraneche	1	Enero	2023-01-21T00:00:00	2024-11-06T03:00:00	3	Temperatura mínima	9.3
3868	7	Sololá	701	Sololá	3	Barraneche	1	Enero	2023-01-21T00:00:00	2024-11-06T03:00:00	5	Humedad	66
3869	7	Sololá	701	Sololá	3	Barraneche	1	Enero	2023-01-21T00:00:00	2024-11-06T03:00:00	6	Velocidad del viento	3.2
3870	7	Sololá	701	Sololá	3	Barraneche	1	Enero	2023-01-21T00:00:00	2024-11-06T03:00:00	7	Dirección del viento	3.22
3871	7	Sololá	701	Sololá	3	Barraneche	1	Enero	2023-01-21T00:00:00	2024-11-06T03:00:00	1	Precipitación	0
3872	7	Sololá	701	Sololá	3	Barraneche	1	Enero	2023-01-21T00:00:00	2024-11-06T03:00:00	8	Radiación solar	0
3873	7	Sololá	701	Sololá	3	Barraneche	1	Enero	2023-01-21T00:00:00	2024-11-06T04:00:00	2	Temperatura media	9.7
3874	7	Sololá	701	Sololá	3	Barraneche	1	Enero	2023-01-21T00:00:00	2024-11-06T04:00:00	4	Temperatura máxima	10.2
3875	7	Sololá	701	Sololá	3	Barraneche	1	Enero	2023-01-21T00:00:00	2024-11-06T04:00:00	3	Temperatura mínima	9.3
3876	7	Sololá	701	Sololá	3	Barraneche	1	Enero	2023-01-21T00:00:00	2024-11-06T04:00:00	5	Humedad	65
3877	7	Sololá	701	Sololá	3	Barraneche	1	Enero	2023-01-21T00:00:00	2024-11-06T04:00:00	6	Velocidad del viento	6.4
3878	7	Sololá	701	Sololá	3	Barraneche	1	Enero	2023-01-21T00:00:00	2024-11-06T04:00:00	7	Dirección del viento	6.44
3879	7	Sololá	701	Sololá	3	Barraneche	1	Enero	2023-01-21T00:00:00	2024-11-06T04:00:00	1	Precipitación	0
3880	7	Sololá	701	Sololá	3	Barraneche	1	Enero	2023-01-21T00:00:00	2024-11-06T04:00:00	8	Radiación solar	0
3881	7	Sololá	701	Sololá	3	Barraneche	1	Enero	2023-01-21T00:00:00	2024-11-06T05:00:00	2	Temperatura media	9.8
3882	7	Sololá	701	Sololá	3	Barraneche	1	Enero	2023-01-21T00:00:00	2024-11-06T05:00:00	4	Temperatura máxima	10.2
3883	7	Sololá	701	Sololá	3	Barraneche	1	Enero	2023-01-21T00:00:00	2024-11-06T05:00:00	3	Temperatura mínima	9.7
3884	7	Sololá	701	Sololá	3	Barraneche	1	Enero	2023-01-21T00:00:00	2024-11-06T05:00:00	5	Humedad	63
3885	7	Sololá	701	Sololá	3	Barraneche	1	Enero	2023-01-21T00:00:00	2024-11-06T05:00:00	6	Velocidad del viento	8
3886	7	Sololá	701	Sololá	3	Barraneche	1	Enero	2023-01-21T00:00:00	2024-11-06T05:00:00	7	Dirección del viento	8.05
3887	7	Sololá	701	Sololá	3	Barraneche	1	Enero	2023-01-21T00:00:00	2024-11-06T05:00:00	1	Precipitación	0
3888	7	Sololá	701	Sololá	3	Barraneche	1	Enero	2023-01-21T00:00:00	2024-11-06T05:00:00	8	Radiación solar	0
3889	7	Sololá	701	Sololá	3	Barraneche	1	Enero	2023-01-21T00:00:00	2024-11-06T06:00:00	2	Temperatura media	8.3
3890	7	Sololá	701	Sololá	3	Barraneche	1	Enero	2023-01-21T00:00:00	2024-11-06T06:00:00	4	Temperatura máxima	9.8
3891	7	Sololá	701	Sololá	3	Barraneche	1	Enero	2023-01-21T00:00:00	2024-11-06T06:00:00	3	Temperatura mínima	8.1
3892	7	Sololá	701	Sololá	3	Barraneche	1	Enero	2023-01-21T00:00:00	2024-11-06T06:00:00	5	Humedad	69
3893	7	Sololá	701	Sololá	3	Barraneche	1	Enero	2023-01-21T00:00:00	2024-11-06T06:00:00	6	Velocidad del viento	4.8
3894	7	Sololá	701	Sololá	3	Barraneche	1	Enero	2023-01-21T00:00:00	2024-11-06T06:00:00	7	Dirección del viento	4.83
3895	7	Sololá	701	Sololá	3	Barraneche	1	Enero	2023-01-21T00:00:00	2024-11-06T06:00:00	1	Precipitación	0
3896	7	Sololá	701	Sololá	3	Barraneche	1	Enero	2023-01-21T00:00:00	2024-11-06T06:00:00	8	Radiación solar	0
3897	7	Sololá	701	Sololá	3	Barraneche	1	Enero	2023-01-21T00:00:00	2024-11-06T07:00:00	2	Temperatura media	8.8
3898	7	Sololá	701	Sololá	3	Barraneche	1	Enero	2023-01-21T00:00:00	2024-11-06T07:00:00	4	Temperatura máxima	8.8
3899	7	Sololá	701	Sololá	3	Barraneche	1	Enero	2023-01-21T00:00:00	2024-11-06T07:00:00	3	Temperatura mínima	8.2
3900	7	Sololá	701	Sololá	3	Barraneche	1	Enero	2023-01-21T00:00:00	2024-11-06T07:00:00	5	Humedad	68
3901	7	Sololá	701	Sololá	3	Barraneche	1	Enero	2023-01-21T00:00:00	2024-11-06T07:00:00	6	Velocidad del viento	6.4
3902	7	Sololá	701	Sololá	3	Barraneche	1	Enero	2023-01-21T00:00:00	2024-11-06T07:00:00	7	Dirección del viento	6.44
3903	7	Sololá	701	Sololá	3	Barraneche	1	Enero	2023-01-21T00:00:00	2024-11-06T07:00:00	1	Precipitación	0
3904	7	Sololá	701	Sololá	3	Barraneche	1	Enero	2023-01-21T00:00:00	2024-11-06T07:00:00	8	Radiación solar	5
3905	7	Sololá	701	Sololá	3	Barraneche	1	Enero	2023-01-21T00:00:00	2024-11-06T08:00:00	2	Temperatura media	11.7
3906	7	Sololá	701	Sololá	3	Barraneche	1	Enero	2023-01-21T00:00:00	2024-11-06T08:00:00	4	Temperatura máxima	11.7
3907	7	Sololá	701	Sololá	3	Barraneche	1	Enero	2023-01-21T00:00:00	2024-11-06T08:00:00	3	Temperatura mínima	8.7
3908	7	Sololá	701	Sololá	3	Barraneche	1	Enero	2023-01-21T00:00:00	2024-11-06T08:00:00	5	Humedad	64
3909	7	Sololá	701	Sololá	3	Barraneche	1	Enero	2023-01-21T00:00:00	2024-11-06T08:00:00	6	Velocidad del viento	4.8
3910	7	Sololá	701	Sololá	3	Barraneche	1	Enero	2023-01-21T00:00:00	2024-11-06T08:00:00	7	Dirección del viento	4.83
3911	7	Sololá	701	Sololá	3	Barraneche	1	Enero	2023-01-21T00:00:00	2024-11-06T08:00:00	1	Precipitación	0
3912	7	Sololá	701	Sololá	3	Barraneche	1	Enero	2023-01-21T00:00:00	2024-11-06T08:00:00	8	Radiación solar	139
3913	7	Sololá	701	Sololá	3	Barraneche	1	Enero	2023-01-21T00:00:00	2024-11-06T09:00:00	2	Temperatura media	15.2
3914	7	Sololá	701	Sololá	3	Barraneche	1	Enero	2023-01-21T00:00:00	2024-11-06T09:00:00	4	Temperatura máxima	15.2
3915	7	Sololá	701	Sololá	3	Barraneche	1	Enero	2023-01-21T00:00:00	2024-11-06T09:00:00	3	Temperatura mínima	11.6
3916	7	Sololá	701	Sololá	3	Barraneche	1	Enero	2023-01-21T00:00:00	2024-11-06T09:00:00	5	Humedad	55
3917	7	Sololá	701	Sololá	3	Barraneche	1	Enero	2023-01-21T00:00:00	2024-11-06T09:00:00	6	Velocidad del viento	3.2
3918	7	Sololá	701	Sololá	3	Barraneche	1	Enero	2023-01-21T00:00:00	2024-11-06T09:00:00	7	Dirección del viento	3.22
3919	7	Sololá	701	Sololá	3	Barraneche	1	Enero	2023-01-21T00:00:00	2024-11-06T09:00:00	1	Precipitación	0
3920	7	Sololá	701	Sololá	3	Barraneche	1	Enero	2023-01-21T00:00:00	2024-11-06T09:00:00	8	Radiación solar	392
3921	7	Sololá	701	Sololá	3	Barraneche	1	Enero	2023-01-21T00:00:00	2024-11-06T10:00:00	2	Temperatura media	17.6
3922	7	Sololá	701	Sololá	3	Barraneche	1	Enero	2023-01-21T00:00:00	2024-11-06T10:00:00	4	Temperatura máxima	17.6
3923	7	Sololá	701	Sololá	3	Barraneche	1	Enero	2023-01-21T00:00:00	2024-11-06T10:00:00	3	Temperatura mínima	15.2
3924	7	Sololá	701	Sololá	3	Barraneche	1	Enero	2023-01-21T00:00:00	2024-11-06T10:00:00	5	Humedad	43
3925	7	Sololá	701	Sololá	3	Barraneche	1	Enero	2023-01-21T00:00:00	2024-11-06T10:00:00	6	Velocidad del viento	8
3926	7	Sololá	701	Sololá	3	Barraneche	1	Enero	2023-01-21T00:00:00	2024-11-06T10:00:00	7	Dirección del viento	8.05
3927	7	Sololá	701	Sololá	3	Barraneche	1	Enero	2023-01-21T00:00:00	2024-11-06T10:00:00	1	Precipitación	0
3928	7	Sololá	701	Sololá	3	Barraneche	1	Enero	2023-01-21T00:00:00	2024-11-06T10:00:00	8	Radiación solar	604
3929	7	Sololá	701	Sololá	3	Barraneche	1	Enero	2023-01-21T00:00:00	2024-11-06T11:00:00	2	Temperatura media	18.4
3930	7	Sololá	701	Sololá	3	Barraneche	1	Enero	2023-01-21T00:00:00	2024-11-06T11:00:00	4	Temperatura máxima	18.7
3931	7	Sololá	701	Sololá	3	Barraneche	1	Enero	2023-01-21T00:00:00	2024-11-06T11:00:00	3	Temperatura mínima	17.6
3932	7	Sololá	701	Sololá	3	Barraneche	1	Enero	2023-01-21T00:00:00	2024-11-06T11:00:00	5	Humedad	44
3933	7	Sololá	701	Sololá	3	Barraneche	1	Enero	2023-01-21T00:00:00	2024-11-06T11:00:00	6	Velocidad del viento	9.7
3934	7	Sololá	701	Sololá	3	Barraneche	1	Enero	2023-01-21T00:00:00	2024-11-06T11:00:00	7	Dirección del viento	9.66
3935	7	Sololá	701	Sololá	3	Barraneche	1	Enero	2023-01-21T00:00:00	2024-11-06T11:00:00	1	Precipitación	0
3936	7	Sololá	701	Sololá	3	Barraneche	1	Enero	2023-01-21T00:00:00	2024-11-06T11:00:00	8	Radiación solar	762
3937	7	Sololá	701	Sololá	3	Barraneche	1	Enero	2023-01-21T00:00:00	2024-11-06T12:00:00	2	Temperatura media	18.2
3938	7	Sololá	701	Sololá	3	Barraneche	1	Enero	2023-01-21T00:00:00	2024-11-06T12:00:00	4	Temperatura máxima	18.8
3939	7	Sololá	701	Sololá	3	Barraneche	1	Enero	2023-01-21T00:00:00	2024-11-06T12:00:00	3	Temperatura mínima	18.1
3940	7	Sololá	701	Sololá	3	Barraneche	1	Enero	2023-01-21T00:00:00	2024-11-06T12:00:00	5	Humedad	43
3941	7	Sololá	701	Sololá	3	Barraneche	1	Enero	2023-01-21T00:00:00	2024-11-06T12:00:00	6	Velocidad del viento	14.5
3942	7	Sololá	701	Sololá	3	Barraneche	1	Enero	2023-01-21T00:00:00	2024-11-06T12:00:00	7	Dirección del viento	14.48
3943	7	Sololá	701	Sololá	3	Barraneche	1	Enero	2023-01-21T00:00:00	2024-11-06T12:00:00	1	Precipitación	0
3944	7	Sololá	701	Sololá	3	Barraneche	1	Enero	2023-01-21T00:00:00	2024-11-06T12:00:00	8	Radiación solar	843
3945	7	Sololá	701	Sololá	3	Barraneche	1	Enero	2023-01-21T00:00:00	2024-11-06T13:00:00	2	Temperatura media	17.3
3946	7	Sololá	701	Sololá	3	Barraneche	1	Enero	2023-01-21T00:00:00	2024-11-06T13:00:00	4	Temperatura máxima	18.7
3947	7	Sololá	701	Sololá	3	Barraneche	1	Enero	2023-01-21T00:00:00	2024-11-06T13:00:00	3	Temperatura mínima	17.3
3948	7	Sololá	701	Sololá	3	Barraneche	1	Enero	2023-01-21T00:00:00	2024-11-06T13:00:00	5	Humedad	56
3949	7	Sololá	701	Sololá	3	Barraneche	1	Enero	2023-01-21T00:00:00	2024-11-06T13:00:00	6	Velocidad del viento	14.5
3950	7	Sololá	701	Sololá	3	Barraneche	1	Enero	2023-01-21T00:00:00	2024-11-06T13:00:00	7	Dirección del viento	14.48
3951	7	Sololá	701	Sololá	3	Barraneche	1	Enero	2023-01-21T00:00:00	2024-11-06T13:00:00	1	Precipitación	0
3952	7	Sololá	701	Sololá	3	Barraneche	1	Enero	2023-01-21T00:00:00	2024-11-06T13:00:00	8	Radiación solar	860
3953	7	Sololá	701	Sololá	3	Barraneche	1	Enero	2023-01-21T00:00:00	2024-11-06T14:00:00	2	Temperatura media	17
3954	7	Sololá	701	Sololá	3	Barraneche	1	Enero	2023-01-21T00:00:00	2024-11-06T14:00:00	4	Temperatura máxima	17.6
3955	7	Sololá	701	Sololá	3	Barraneche	1	Enero	2023-01-21T00:00:00	2024-11-06T14:00:00	3	Temperatura mínima	16.7
3956	7	Sololá	701	Sololá	3	Barraneche	1	Enero	2023-01-21T00:00:00	2024-11-06T14:00:00	5	Humedad	57
3957	7	Sololá	701	Sololá	3	Barraneche	1	Enero	2023-01-21T00:00:00	2024-11-06T14:00:00	6	Velocidad del viento	12.9
3958	7	Sololá	701	Sololá	3	Barraneche	1	Enero	2023-01-21T00:00:00	2024-11-06T14:00:00	7	Dirección del viento	12.87
3959	7	Sololá	701	Sololá	3	Barraneche	1	Enero	2023-01-21T00:00:00	2024-11-06T14:00:00	1	Precipitación	0
3960	7	Sololá	701	Sololá	3	Barraneche	1	Enero	2023-01-21T00:00:00	2024-11-06T14:00:00	8	Radiación solar	839
3961	7	Sololá	701	Sololá	3	Barraneche	1	Enero	2023-01-21T00:00:00	2024-11-06T15:00:00	2	Temperatura media	16.3
3962	7	Sololá	701	Sololá	3	Barraneche	1	Enero	2023-01-21T00:00:00	2024-11-06T15:00:00	4	Temperatura máxima	17.2
3963	7	Sololá	701	Sololá	3	Barraneche	1	Enero	2023-01-21T00:00:00	2024-11-06T15:00:00	3	Temperatura mínima	16.1
3964	7	Sololá	701	Sololá	3	Barraneche	1	Enero	2023-01-21T00:00:00	2024-11-06T15:00:00	5	Humedad	59
3965	7	Sololá	701	Sololá	3	Barraneche	1	Enero	2023-01-21T00:00:00	2024-11-06T15:00:00	6	Velocidad del viento	12.9
3966	7	Sololá	701	Sololá	3	Barraneche	1	Enero	2023-01-21T00:00:00	2024-11-06T15:00:00	7	Dirección del viento	12.87
3967	7	Sololá	701	Sololá	3	Barraneche	1	Enero	2023-01-21T00:00:00	2024-11-06T15:00:00	1	Precipitación	0
3968	7	Sololá	701	Sololá	3	Barraneche	1	Enero	2023-01-21T00:00:00	2024-11-06T15:00:00	8	Radiación solar	735
3969	7	Sololá	701	Sololá	3	Barraneche	1	Enero	2023-01-21T00:00:00	2024-11-06T16:00:00	2	Temperatura media	15.9
3970	7	Sololá	701	Sololá	3	Barraneche	1	Enero	2023-01-21T00:00:00	2024-11-06T16:00:00	4	Temperatura máxima	16.4
3971	7	Sololá	701	Sololá	3	Barraneche	1	Enero	2023-01-21T00:00:00	2024-11-06T16:00:00	3	Temperatura mínima	15.9
3972	7	Sololá	701	Sololá	3	Barraneche	1	Enero	2023-01-21T00:00:00	2024-11-06T16:00:00	5	Humedad	62
3973	7	Sololá	701	Sololá	3	Barraneche	1	Enero	2023-01-21T00:00:00	2024-11-06T16:00:00	6	Velocidad del viento	11.3
3974	7	Sololá	701	Sololá	3	Barraneche	1	Enero	2023-01-21T00:00:00	2024-11-06T16:00:00	7	Dirección del viento	11.27
3975	7	Sololá	701	Sololá	3	Barraneche	1	Enero	2023-01-21T00:00:00	2024-11-06T16:00:00	1	Precipitación	0
3976	7	Sololá	701	Sololá	3	Barraneche	1	Enero	2023-01-21T00:00:00	2024-11-06T16:00:00	8	Radiación solar	472
3977	7	Sololá	701	Sololá	3	Barraneche	1	Enero	2023-01-21T00:00:00	2024-11-06T17:00:00	2	Temperatura media	14.4
3978	7	Sololá	701	Sololá	3	Barraneche	1	Enero	2023-01-21T00:00:00	2024-11-06T17:00:00	4	Temperatura máxima	15.9
3979	7	Sololá	701	Sololá	3	Barraneche	1	Enero	2023-01-21T00:00:00	2024-11-06T17:00:00	3	Temperatura mínima	14.4
3980	7	Sololá	701	Sololá	3	Barraneche	1	Enero	2023-01-21T00:00:00	2024-11-06T17:00:00	5	Humedad	70
3981	7	Sololá	701	Sololá	3	Barraneche	1	Enero	2023-01-21T00:00:00	2024-11-06T17:00:00	6	Velocidad del viento	11.3
3982	7	Sololá	701	Sololá	3	Barraneche	1	Enero	2023-01-21T00:00:00	2024-11-06T17:00:00	7	Dirección del viento	11.27
3983	7	Sololá	701	Sololá	3	Barraneche	1	Enero	2023-01-21T00:00:00	2024-11-06T17:00:00	1	Precipitación	0
3984	7	Sololá	701	Sololá	3	Barraneche	1	Enero	2023-01-21T00:00:00	2024-11-06T17:00:00	8	Radiación solar	253
3985	7	Sololá	701	Sololá	3	Barraneche	1	Enero	2023-01-21T00:00:00	2024-11-06T18:00:00	2	Temperatura media	13.4
3986	7	Sololá	701	Sololá	3	Barraneche	1	Enero	2023-01-21T00:00:00	2024-11-06T18:00:00	4	Temperatura máxima	14.4
3987	7	Sololá	701	Sololá	3	Barraneche	1	Enero	2023-01-21T00:00:00	2024-11-06T18:00:00	3	Temperatura mínima	13.4
3988	7	Sololá	701	Sololá	3	Barraneche	1	Enero	2023-01-21T00:00:00	2024-11-06T18:00:00	5	Humedad	72
3989	7	Sololá	701	Sololá	3	Barraneche	1	Enero	2023-01-21T00:00:00	2024-11-06T18:00:00	6	Velocidad del viento	6.4
3990	7	Sololá	701	Sololá	3	Barraneche	1	Enero	2023-01-21T00:00:00	2024-11-06T18:00:00	7	Dirección del viento	6.44
3991	7	Sololá	701	Sololá	3	Barraneche	1	Enero	2023-01-21T00:00:00	2024-11-06T18:00:00	1	Precipitación	0
3992	7	Sololá	701	Sololá	3	Barraneche	1	Enero	2023-01-21T00:00:00	2024-11-06T18:00:00	8	Radiación solar	44
3993	7	Sololá	701	Sololá	3	Barraneche	1	Enero	2023-01-21T00:00:00	2024-11-06T19:00:00	2	Temperatura media	12.6
3994	7	Sololá	701	Sololá	3	Barraneche	1	Enero	2023-01-21T00:00:00	2024-11-06T19:00:00	4	Temperatura máxima	13.5
3995	7	Sololá	701	Sololá	3	Barraneche	1	Enero	2023-01-21T00:00:00	2024-11-06T19:00:00	3	Temperatura mínima	12.6
3996	7	Sololá	701	Sololá	3	Barraneche	1	Enero	2023-01-21T00:00:00	2024-11-06T19:00:00	5	Humedad	77
3997	7	Sololá	701	Sololá	3	Barraneche	1	Enero	2023-01-21T00:00:00	2024-11-06T19:00:00	6	Velocidad del viento	4.8
3998	7	Sololá	701	Sololá	3	Barraneche	1	Enero	2023-01-21T00:00:00	2024-11-06T19:00:00	7	Dirección del viento	4.83
3999	7	Sololá	701	Sololá	3	Barraneche	1	Enero	2023-01-21T00:00:00	2024-11-06T19:00:00	1	Precipitación	0
4000	7	Sololá	701	Sololá	3	Barraneche	1	Enero	2023-01-21T00:00:00	2024-11-06T19:00:00	8	Radiación solar	0
4001	7	Sololá	701	Sololá	3	Barraneche	1	Enero	2023-01-21T00:00:00	2024-11-06T20:00:00	2	Temperatura media	11
4002	7	Sololá	701	Sololá	3	Barraneche	1	Enero	2023-01-21T00:00:00	2024-11-06T20:00:00	4	Temperatura máxima	12.7
4003	7	Sololá	701	Sololá	3	Barraneche	1	Enero	2023-01-21T00:00:00	2024-11-06T20:00:00	3	Temperatura mínima	10.9
4004	7	Sololá	701	Sololá	3	Barraneche	1	Enero	2023-01-21T00:00:00	2024-11-06T20:00:00	5	Humedad	67
4005	7	Sololá	701	Sololá	3	Barraneche	1	Enero	2023-01-21T00:00:00	2024-11-06T20:00:00	6	Velocidad del viento	3.2
4006	7	Sololá	701	Sololá	3	Barraneche	1	Enero	2023-01-21T00:00:00	2024-11-06T20:00:00	7	Dirección del viento	3.22
4007	7	Sololá	701	Sololá	3	Barraneche	1	Enero	2023-01-21T00:00:00	2024-11-06T20:00:00	1	Precipitación	0
4008	7	Sololá	701	Sololá	3	Barraneche	1	Enero	2023-01-21T00:00:00	2024-11-06T20:00:00	8	Radiación solar	0
4009	7	Sololá	701	Sololá	3	Barraneche	1	Enero	2023-01-21T00:00:00	2024-11-06T21:00:00	2	Temperatura media	9.3
4010	7	Sololá	701	Sololá	3	Barraneche	1	Enero	2023-01-21T00:00:00	2024-11-06T21:00:00	4	Temperatura máxima	10.9
4011	7	Sololá	701	Sololá	3	Barraneche	1	Enero	2023-01-21T00:00:00	2024-11-06T21:00:00	3	Temperatura mínima	9.3
4012	7	Sololá	701	Sololá	3	Barraneche	1	Enero	2023-01-21T00:00:00	2024-11-06T21:00:00	5	Humedad	65
4013	7	Sololá	701	Sololá	3	Barraneche	1	Enero	2023-01-21T00:00:00	2024-11-06T21:00:00	6	Velocidad del viento	6.4
4014	7	Sololá	701	Sololá	3	Barraneche	1	Enero	2023-01-21T00:00:00	2024-11-06T21:00:00	7	Dirección del viento	6.44
4015	7	Sololá	701	Sololá	3	Barraneche	1	Enero	2023-01-21T00:00:00	2024-11-06T21:00:00	1	Precipitación	0
4016	7	Sololá	701	Sololá	3	Barraneche	1	Enero	2023-01-21T00:00:00	2024-11-06T21:00:00	8	Radiación solar	0
4017	7	Sololá	701	Sololá	3	Barraneche	1	Enero	2023-01-21T00:00:00	2024-11-06T22:00:00	2	Temperatura media	10.3
4018	7	Sololá	701	Sololá	3	Barraneche	1	Enero	2023-01-21T00:00:00	2024-11-06T22:00:00	4	Temperatura máxima	10.3
4019	7	Sololá	701	Sololá	3	Barraneche	1	Enero	2023-01-21T00:00:00	2024-11-06T22:00:00	3	Temperatura mínima	9.3
4020	7	Sololá	701	Sololá	3	Barraneche	1	Enero	2023-01-21T00:00:00	2024-11-06T22:00:00	5	Humedad	67
4021	7	Sololá	701	Sololá	3	Barraneche	1	Enero	2023-01-21T00:00:00	2024-11-06T22:00:00	6	Velocidad del viento	8
4022	7	Sololá	701	Sololá	3	Barraneche	1	Enero	2023-01-21T00:00:00	2024-11-06T22:00:00	7	Dirección del viento	8.05
4023	7	Sololá	701	Sololá	3	Barraneche	1	Enero	2023-01-21T00:00:00	2024-11-06T22:00:00	1	Precipitación	0
4024	7	Sololá	701	Sololá	3	Barraneche	1	Enero	2023-01-21T00:00:00	2024-11-06T22:00:00	8	Radiación solar	0
4025	7	Sololá	701	Sololá	3	Barraneche	1	Enero	2023-01-21T00:00:00	2024-11-06T23:00:00	2	Temperatura media	9.6
4026	7	Sololá	701	Sololá	3	Barraneche	1	Enero	2023-01-21T00:00:00	2024-11-06T23:00:00	4	Temperatura máxima	10.4
4027	7	Sololá	701	Sololá	3	Barraneche	1	Enero	2023-01-21T00:00:00	2024-11-06T23:00:00	3	Temperatura mínima	9.5
4028	7	Sololá	701	Sololá	3	Barraneche	1	Enero	2023-01-21T00:00:00	2024-11-06T23:00:00	5	Humedad	56
4029	7	Sololá	701	Sololá	3	Barraneche	1	Enero	2023-01-21T00:00:00	2024-11-06T23:00:00	6	Velocidad del viento	11.3
4030	7	Sololá	701	Sololá	3	Barraneche	1	Enero	2023-01-21T00:00:00	2024-11-06T23:00:00	7	Dirección del viento	11.27
4031	7	Sololá	701	Sololá	3	Barraneche	1	Enero	2023-01-21T00:00:00	2024-11-06T23:00:00	1	Precipitación	0
4032	7	Sololá	701	Sololá	3	Barraneche	1	Enero	2023-01-21T00:00:00	2024-11-06T23:00:00	8	Radiación solar	0
4033	7	Sololá	701	Sololá	3	Barraneche	1	Enero	2023-01-22T00:00:00	2024-11-06T00:00:00	2	Temperatura media	8.4
4034	7	Sololá	701	Sololá	3	Barraneche	1	Enero	2023-01-22T00:00:00	2024-11-06T00:00:00	4	Temperatura máxima	9.6
4035	7	Sololá	701	Sololá	3	Barraneche	1	Enero	2023-01-22T00:00:00	2024-11-06T00:00:00	3	Temperatura mínima	8.3
4036	7	Sololá	701	Sololá	3	Barraneche	1	Enero	2023-01-22T00:00:00	2024-11-06T00:00:00	5	Humedad	62
4037	7	Sololá	701	Sololá	3	Barraneche	1	Enero	2023-01-22T00:00:00	2024-11-06T00:00:00	6	Velocidad del viento	9.7
4038	7	Sololá	701	Sololá	3	Barraneche	1	Enero	2023-01-22T00:00:00	2024-11-06T00:00:00	7	Dirección del viento	9.66
4039	7	Sololá	701	Sololá	3	Barraneche	1	Enero	2023-01-22T00:00:00	2024-11-06T00:00:00	1	Precipitación	0
4040	7	Sololá	701	Sololá	3	Barraneche	1	Enero	2023-01-22T00:00:00	2024-11-06T00:00:00	8	Radiación solar	0
4041	7	Sololá	701	Sololá	3	Barraneche	1	Enero	2023-01-22T00:00:00	2024-11-06T01:00:00	2	Temperatura media	8.8
4042	7	Sololá	701	Sololá	3	Barraneche	1	Enero	2023-01-22T00:00:00	2024-11-06T01:00:00	4	Temperatura máxima	9.7
4043	7	Sololá	701	Sololá	3	Barraneche	1	Enero	2023-01-22T00:00:00	2024-11-06T01:00:00	3	Temperatura mínima	8.4
4044	7	Sololá	701	Sololá	3	Barraneche	1	Enero	2023-01-22T00:00:00	2024-11-06T01:00:00	5	Humedad	62
4045	7	Sololá	701	Sololá	3	Barraneche	1	Enero	2023-01-22T00:00:00	2024-11-06T01:00:00	6	Velocidad del viento	9.7
4046	7	Sololá	701	Sololá	3	Barraneche	1	Enero	2023-01-22T00:00:00	2024-11-06T01:00:00	7	Dirección del viento	9.66
4047	7	Sololá	701	Sololá	3	Barraneche	1	Enero	2023-01-22T00:00:00	2024-11-06T01:00:00	1	Precipitación	0
4048	7	Sololá	701	Sololá	3	Barraneche	1	Enero	2023-01-22T00:00:00	2024-11-06T01:00:00	8	Radiación solar	0
4049	7	Sololá	701	Sololá	3	Barraneche	1	Enero	2023-01-22T00:00:00	2024-11-06T02:00:00	2	Temperatura media	7.8
4050	7	Sololá	701	Sololá	3	Barraneche	1	Enero	2023-01-22T00:00:00	2024-11-06T02:00:00	4	Temperatura máxima	8.8
4051	7	Sololá	701	Sololá	3	Barraneche	1	Enero	2023-01-22T00:00:00	2024-11-06T02:00:00	3	Temperatura mínima	7.8
4052	7	Sololá	701	Sololá	3	Barraneche	1	Enero	2023-01-22T00:00:00	2024-11-06T02:00:00	5	Humedad	62
4053	7	Sololá	701	Sololá	3	Barraneche	1	Enero	2023-01-22T00:00:00	2024-11-06T02:00:00	6	Velocidad del viento	9.7
4054	7	Sololá	701	Sololá	3	Barraneche	1	Enero	2023-01-22T00:00:00	2024-11-06T02:00:00	7	Dirección del viento	9.66
4055	7	Sololá	701	Sololá	3	Barraneche	1	Enero	2023-01-22T00:00:00	2024-11-06T02:00:00	1	Precipitación	0
4056	7	Sololá	701	Sololá	3	Barraneche	1	Enero	2023-01-22T00:00:00	2024-11-06T02:00:00	8	Radiación solar	0
4057	7	Sololá	701	Sololá	3	Barraneche	1	Enero	2023-01-22T00:00:00	2024-11-06T03:00:00	2	Temperatura media	7.3
4058	7	Sololá	701	Sololá	3	Barraneche	1	Enero	2023-01-22T00:00:00	2024-11-06T03:00:00	4	Temperatura máxima	8.1
4059	7	Sololá	701	Sololá	3	Barraneche	1	Enero	2023-01-22T00:00:00	2024-11-06T03:00:00	3	Temperatura mínima	7.3
4060	7	Sololá	701	Sololá	3	Barraneche	1	Enero	2023-01-22T00:00:00	2024-11-06T03:00:00	5	Humedad	59
4061	7	Sololá	701	Sololá	3	Barraneche	1	Enero	2023-01-22T00:00:00	2024-11-06T03:00:00	6	Velocidad del viento	9.7
4062	7	Sololá	701	Sololá	3	Barraneche	1	Enero	2023-01-22T00:00:00	2024-11-06T03:00:00	7	Dirección del viento	9.66
4063	7	Sololá	701	Sololá	3	Barraneche	1	Enero	2023-01-22T00:00:00	2024-11-06T03:00:00	1	Precipitación	0
4064	7	Sololá	701	Sololá	3	Barraneche	1	Enero	2023-01-22T00:00:00	2024-11-06T03:00:00	8	Radiación solar	0
4065	7	Sololá	701	Sololá	3	Barraneche	1	Enero	2023-01-22T00:00:00	2024-11-06T04:00:00	2	Temperatura media	7
4066	7	Sololá	701	Sololá	3	Barraneche	1	Enero	2023-01-22T00:00:00	2024-11-06T04:00:00	4	Temperatura máxima	7.5
4067	7	Sololá	701	Sololá	3	Barraneche	1	Enero	2023-01-22T00:00:00	2024-11-06T04:00:00	3	Temperatura mínima	6.6
4068	7	Sololá	701	Sololá	3	Barraneche	1	Enero	2023-01-22T00:00:00	2024-11-06T04:00:00	5	Humedad	59
4069	7	Sololá	701	Sololá	3	Barraneche	1	Enero	2023-01-22T00:00:00	2024-11-06T04:00:00	6	Velocidad del viento	8
4070	7	Sololá	701	Sololá	3	Barraneche	1	Enero	2023-01-22T00:00:00	2024-11-06T04:00:00	7	Dirección del viento	8.05
4071	7	Sololá	701	Sololá	3	Barraneche	1	Enero	2023-01-22T00:00:00	2024-11-06T04:00:00	1	Precipitación	0
4072	7	Sololá	701	Sololá	3	Barraneche	1	Enero	2023-01-22T00:00:00	2024-11-06T04:00:00	8	Radiación solar	0
4073	7	Sololá	701	Sololá	3	Barraneche	1	Enero	2023-01-22T00:00:00	2024-11-06T05:00:00	2	Temperatura media	6.4
4074	7	Sololá	701	Sololá	3	Barraneche	1	Enero	2023-01-22T00:00:00	2024-11-06T05:00:00	4	Temperatura máxima	7
4075	7	Sololá	701	Sololá	3	Barraneche	1	Enero	2023-01-22T00:00:00	2024-11-06T05:00:00	3	Temperatura mínima	6.3
4076	7	Sololá	701	Sololá	3	Barraneche	1	Enero	2023-01-22T00:00:00	2024-11-06T05:00:00	5	Humedad	53
4077	7	Sololá	701	Sololá	3	Barraneche	1	Enero	2023-01-22T00:00:00	2024-11-06T05:00:00	6	Velocidad del viento	9.7
4078	7	Sololá	701	Sololá	3	Barraneche	1	Enero	2023-01-22T00:00:00	2024-11-06T05:00:00	7	Dirección del viento	9.66
4079	7	Sololá	701	Sololá	3	Barraneche	1	Enero	2023-01-22T00:00:00	2024-11-06T05:00:00	1	Precipitación	0
4080	7	Sololá	701	Sololá	3	Barraneche	1	Enero	2023-01-22T00:00:00	2024-11-06T05:00:00	8	Radiación solar	0
4081	7	Sololá	701	Sololá	3	Barraneche	1	Enero	2023-01-22T00:00:00	2024-11-06T06:00:00	2	Temperatura media	5.4
4082	7	Sololá	701	Sololá	3	Barraneche	1	Enero	2023-01-22T00:00:00	2024-11-06T06:00:00	4	Temperatura máxima	6.7
4083	7	Sololá	701	Sololá	3	Barraneche	1	Enero	2023-01-22T00:00:00	2024-11-06T06:00:00	3	Temperatura mínima	5.4
4084	7	Sololá	701	Sololá	3	Barraneche	1	Enero	2023-01-22T00:00:00	2024-11-06T06:00:00	5	Humedad	51
4085	7	Sololá	701	Sololá	3	Barraneche	1	Enero	2023-01-22T00:00:00	2024-11-06T06:00:00	6	Velocidad del viento	8
4086	7	Sololá	701	Sololá	3	Barraneche	1	Enero	2023-01-22T00:00:00	2024-11-06T06:00:00	7	Dirección del viento	8.05
4087	7	Sololá	701	Sololá	3	Barraneche	1	Enero	2023-01-22T00:00:00	2024-11-06T06:00:00	1	Precipitación	0
4088	7	Sololá	701	Sololá	3	Barraneche	1	Enero	2023-01-22T00:00:00	2024-11-06T06:00:00	8	Radiación solar	0
4089	7	Sololá	701	Sololá	3	Barraneche	1	Enero	2023-01-22T00:00:00	2024-11-06T07:00:00	2	Temperatura media	5.5
4090	7	Sololá	701	Sololá	3	Barraneche	1	Enero	2023-01-22T00:00:00	2024-11-06T07:00:00	4	Temperatura máxima	5.9
4091	7	Sololá	701	Sololá	3	Barraneche	1	Enero	2023-01-22T00:00:00	2024-11-06T07:00:00	3	Temperatura mínima	4.8
4092	7	Sololá	701	Sololá	3	Barraneche	1	Enero	2023-01-22T00:00:00	2024-11-06T07:00:00	5	Humedad	51
4093	7	Sololá	701	Sololá	3	Barraneche	1	Enero	2023-01-22T00:00:00	2024-11-06T07:00:00	6	Velocidad del viento	9.7
4094	7	Sololá	701	Sololá	3	Barraneche	1	Enero	2023-01-22T00:00:00	2024-11-06T07:00:00	7	Dirección del viento	9.66
4095	7	Sololá	701	Sololá	3	Barraneche	1	Enero	2023-01-22T00:00:00	2024-11-06T07:00:00	1	Precipitación	0
4096	7	Sololá	701	Sololá	3	Barraneche	1	Enero	2023-01-22T00:00:00	2024-11-06T07:00:00	8	Radiación solar	5
4097	7	Sololá	701	Sololá	3	Barraneche	1	Enero	2023-01-22T00:00:00	2024-11-06T08:00:00	2	Temperatura media	9.9
4098	7	Sololá	701	Sololá	3	Barraneche	1	Enero	2023-01-22T00:00:00	2024-11-06T08:00:00	4	Temperatura máxima	10
4099	7	Sololá	701	Sololá	3	Barraneche	1	Enero	2023-01-22T00:00:00	2024-11-06T08:00:00	3	Temperatura mínima	5.4
4100	7	Sololá	701	Sololá	3	Barraneche	1	Enero	2023-01-22T00:00:00	2024-11-06T08:00:00	5	Humedad	50
4101	7	Sololá	701	Sololá	3	Barraneche	1	Enero	2023-01-22T00:00:00	2024-11-06T08:00:00	6	Velocidad del viento	8
4102	7	Sololá	701	Sololá	3	Barraneche	1	Enero	2023-01-22T00:00:00	2024-11-06T08:00:00	7	Dirección del viento	8.05
4103	7	Sololá	701	Sololá	3	Barraneche	1	Enero	2023-01-22T00:00:00	2024-11-06T08:00:00	1	Precipitación	0
4104	7	Sololá	701	Sololá	3	Barraneche	1	Enero	2023-01-22T00:00:00	2024-11-06T08:00:00	8	Radiación solar	144
4105	7	Sololá	701	Sololá	3	Barraneche	1	Enero	2023-01-22T00:00:00	2024-11-06T09:00:00	2	Temperatura media	14.1
4106	7	Sololá	701	Sololá	3	Barraneche	1	Enero	2023-01-22T00:00:00	2024-11-06T09:00:00	4	Temperatura máxima	14.1
4107	7	Sololá	701	Sololá	3	Barraneche	1	Enero	2023-01-22T00:00:00	2024-11-06T09:00:00	3	Temperatura mínima	9.9
4108	7	Sololá	701	Sololá	3	Barraneche	1	Enero	2023-01-22T00:00:00	2024-11-06T09:00:00	5	Humedad	37
4109	7	Sololá	701	Sololá	3	Barraneche	1	Enero	2023-01-22T00:00:00	2024-11-06T09:00:00	6	Velocidad del viento	4.8
4110	7	Sololá	701	Sololá	3	Barraneche	1	Enero	2023-01-22T00:00:00	2024-11-06T09:00:00	7	Dirección del viento	4.83
4111	7	Sololá	701	Sololá	3	Barraneche	1	Enero	2023-01-22T00:00:00	2024-11-06T09:00:00	1	Precipitación	0
4112	7	Sololá	701	Sololá	3	Barraneche	1	Enero	2023-01-22T00:00:00	2024-11-06T09:00:00	8	Radiación solar	406
4113	7	Sololá	701	Sololá	3	Barraneche	1	Enero	2023-01-22T00:00:00	2024-11-06T10:00:00	2	Temperatura media	16.3
4114	7	Sololá	701	Sololá	3	Barraneche	1	Enero	2023-01-22T00:00:00	2024-11-06T10:00:00	4	Temperatura máxima	16.3
4115	7	Sololá	701	Sololá	3	Barraneche	1	Enero	2023-01-22T00:00:00	2024-11-06T10:00:00	3	Temperatura mínima	14.1
4116	7	Sololá	701	Sololá	3	Barraneche	1	Enero	2023-01-22T00:00:00	2024-11-06T10:00:00	5	Humedad	35
4117	7	Sololá	701	Sololá	3	Barraneche	1	Enero	2023-01-22T00:00:00	2024-11-06T10:00:00	6	Velocidad del viento	6.4
4118	7	Sololá	701	Sololá	3	Barraneche	1	Enero	2023-01-22T00:00:00	2024-11-06T10:00:00	7	Dirección del viento	6.44
4119	7	Sololá	701	Sololá	3	Barraneche	1	Enero	2023-01-22T00:00:00	2024-11-06T10:00:00	1	Precipitación	0
4120	7	Sololá	701	Sololá	3	Barraneche	1	Enero	2023-01-22T00:00:00	2024-11-06T10:00:00	8	Radiación solar	624
4121	7	Sololá	701	Sololá	3	Barraneche	1	Enero	2023-01-22T00:00:00	2024-11-06T11:00:00	2	Temperatura media	15.9
4122	7	Sololá	701	Sololá	3	Barraneche	1	Enero	2023-01-22T00:00:00	2024-11-06T11:00:00	4	Temperatura máxima	16.4
4123	7	Sololá	701	Sololá	3	Barraneche	1	Enero	2023-01-22T00:00:00	2024-11-06T11:00:00	3	Temperatura mínima	15.9
4124	7	Sololá	701	Sololá	3	Barraneche	1	Enero	2023-01-22T00:00:00	2024-11-06T11:00:00	5	Humedad	22
4125	7	Sololá	701	Sololá	3	Barraneche	1	Enero	2023-01-22T00:00:00	2024-11-06T11:00:00	6	Velocidad del viento	12.9
4126	7	Sololá	701	Sololá	3	Barraneche	1	Enero	2023-01-22T00:00:00	2024-11-06T11:00:00	7	Dirección del viento	12.87
4127	7	Sololá	701	Sololá	3	Barraneche	1	Enero	2023-01-22T00:00:00	2024-11-06T11:00:00	1	Precipitación	0
4128	7	Sololá	701	Sololá	3	Barraneche	1	Enero	2023-01-22T00:00:00	2024-11-06T11:00:00	8	Radiación solar	786
4129	7	Sololá	701	Sololá	3	Barraneche	1	Enero	2023-01-22T00:00:00	2024-11-06T12:00:00	2	Temperatura media	16.9
4130	7	Sololá	701	Sololá	3	Barraneche	1	Enero	2023-01-22T00:00:00	2024-11-06T12:00:00	4	Temperatura máxima	16.9
4131	7	Sololá	701	Sololá	3	Barraneche	1	Enero	2023-01-22T00:00:00	2024-11-06T12:00:00	3	Temperatura mínima	15.9
4132	7	Sololá	701	Sololá	3	Barraneche	1	Enero	2023-01-22T00:00:00	2024-11-06T12:00:00	5	Humedad	14
4133	7	Sololá	701	Sololá	3	Barraneche	1	Enero	2023-01-22T00:00:00	2024-11-06T12:00:00	6	Velocidad del viento	12.9
4134	7	Sololá	701	Sololá	3	Barraneche	1	Enero	2023-01-22T00:00:00	2024-11-06T12:00:00	7	Dirección del viento	12.87
4135	7	Sololá	701	Sololá	3	Barraneche	1	Enero	2023-01-22T00:00:00	2024-11-06T12:00:00	1	Precipitación	0
4136	7	Sololá	701	Sololá	3	Barraneche	1	Enero	2023-01-22T00:00:00	2024-11-06T12:00:00	8	Radiación solar	877
4137	7	Sololá	701	Sololá	3	Barraneche	1	Enero	2023-01-22T00:00:00	2024-11-06T13:00:00	2	Temperatura media	17.1
4138	7	Sololá	701	Sololá	3	Barraneche	1	Enero	2023-01-22T00:00:00	2024-11-06T13:00:00	4	Temperatura máxima	17.4
4139	7	Sololá	701	Sololá	3	Barraneche	1	Enero	2023-01-22T00:00:00	2024-11-06T13:00:00	3	Temperatura mínima	16.9
4140	7	Sololá	701	Sololá	3	Barraneche	1	Enero	2023-01-22T00:00:00	2024-11-06T13:00:00	5	Humedad	26
4141	7	Sololá	701	Sololá	3	Barraneche	1	Enero	2023-01-22T00:00:00	2024-11-06T13:00:00	6	Velocidad del viento	14.5
4142	7	Sololá	701	Sololá	3	Barraneche	1	Enero	2023-01-22T00:00:00	2024-11-06T13:00:00	7	Dirección del viento	14.48
4143	7	Sololá	701	Sololá	3	Barraneche	1	Enero	2023-01-22T00:00:00	2024-11-06T13:00:00	1	Precipitación	0
4144	7	Sololá	701	Sololá	3	Barraneche	1	Enero	2023-01-22T00:00:00	2024-11-06T13:00:00	8	Radiación solar	893
4145	7	Sololá	701	Sololá	3	Barraneche	1	Enero	2023-01-22T00:00:00	2024-11-06T14:00:00	2	Temperatura media	16.7
4146	7	Sololá	701	Sololá	3	Barraneche	1	Enero	2023-01-22T00:00:00	2024-11-06T14:00:00	4	Temperatura máxima	17.2
4147	7	Sololá	701	Sololá	3	Barraneche	1	Enero	2023-01-22T00:00:00	2024-11-06T14:00:00	3	Temperatura mínima	16.7
4148	7	Sololá	701	Sololá	3	Barraneche	1	Enero	2023-01-22T00:00:00	2024-11-06T14:00:00	5	Humedad	48
4149	7	Sololá	701	Sololá	3	Barraneche	1	Enero	2023-01-22T00:00:00	2024-11-06T14:00:00	6	Velocidad del viento	14.5
4150	7	Sololá	701	Sololá	3	Barraneche	1	Enero	2023-01-22T00:00:00	2024-11-06T14:00:00	7	Dirección del viento	14.48
4151	7	Sololá	701	Sololá	3	Barraneche	1	Enero	2023-01-22T00:00:00	2024-11-06T14:00:00	1	Precipitación	0
4152	7	Sololá	701	Sololá	3	Barraneche	1	Enero	2023-01-22T00:00:00	2024-11-06T14:00:00	8	Radiación solar	823
4153	7	Sololá	701	Sololá	3	Barraneche	1	Enero	2023-01-22T00:00:00	2024-11-06T15:00:00	2	Temperatura media	15.8
4154	7	Sololá	701	Sololá	3	Barraneche	1	Enero	2023-01-22T00:00:00	2024-11-06T15:00:00	4	Temperatura máxima	16.8
4155	7	Sololá	701	Sololá	3	Barraneche	1	Enero	2023-01-22T00:00:00	2024-11-06T15:00:00	3	Temperatura mínima	15.7
4156	7	Sololá	701	Sololá	3	Barraneche	1	Enero	2023-01-22T00:00:00	2024-11-06T15:00:00	5	Humedad	56
4157	7	Sololá	701	Sololá	3	Barraneche	1	Enero	2023-01-22T00:00:00	2024-11-06T15:00:00	6	Velocidad del viento	14.5
4158	7	Sololá	701	Sololá	3	Barraneche	1	Enero	2023-01-22T00:00:00	2024-11-06T15:00:00	7	Dirección del viento	14.48
4159	7	Sololá	701	Sololá	3	Barraneche	1	Enero	2023-01-22T00:00:00	2024-11-06T15:00:00	1	Precipitación	0
4160	7	Sololá	701	Sololá	3	Barraneche	1	Enero	2023-01-22T00:00:00	2024-11-06T15:00:00	8	Radiación solar	695
4161	7	Sololá	701	Sololá	3	Barraneche	1	Enero	2023-01-22T00:00:00	2024-11-06T16:00:00	2	Temperatura media	15.1
4162	7	Sololá	701	Sololá	3	Barraneche	1	Enero	2023-01-22T00:00:00	2024-11-06T16:00:00	4	Temperatura máxima	15.8
4163	7	Sololá	701	Sololá	3	Barraneche	1	Enero	2023-01-22T00:00:00	2024-11-06T16:00:00	3	Temperatura mínima	14.9
4164	7	Sololá	701	Sololá	3	Barraneche	1	Enero	2023-01-22T00:00:00	2024-11-06T16:00:00	5	Humedad	63
4165	7	Sololá	701	Sololá	3	Barraneche	1	Enero	2023-01-22T00:00:00	2024-11-06T16:00:00	6	Velocidad del viento	12.9
4166	7	Sololá	701	Sololá	3	Barraneche	1	Enero	2023-01-22T00:00:00	2024-11-06T16:00:00	7	Dirección del viento	12.87
4167	7	Sololá	701	Sololá	3	Barraneche	1	Enero	2023-01-22T00:00:00	2024-11-06T16:00:00	1	Precipitación	0
4168	7	Sololá	701	Sololá	3	Barraneche	1	Enero	2023-01-22T00:00:00	2024-11-06T16:00:00	8	Radiación solar	485
4169	7	Sololá	701	Sololá	3	Barraneche	1	Enero	2023-01-22T00:00:00	2024-11-06T17:00:00	2	Temperatura media	14
4170	7	Sololá	701	Sololá	3	Barraneche	1	Enero	2023-01-22T00:00:00	2024-11-06T17:00:00	4	Temperatura máxima	15.1
4171	7	Sololá	701	Sololá	3	Barraneche	1	Enero	2023-01-22T00:00:00	2024-11-06T17:00:00	3	Temperatura mínima	14
4172	7	Sololá	701	Sololá	3	Barraneche	1	Enero	2023-01-22T00:00:00	2024-11-06T17:00:00	5	Humedad	68
4173	7	Sololá	701	Sololá	3	Barraneche	1	Enero	2023-01-22T00:00:00	2024-11-06T17:00:00	6	Velocidad del viento	9.7
4174	7	Sololá	701	Sololá	3	Barraneche	1	Enero	2023-01-22T00:00:00	2024-11-06T17:00:00	7	Dirección del viento	9.66
4175	7	Sololá	701	Sololá	3	Barraneche	1	Enero	2023-01-22T00:00:00	2024-11-06T17:00:00	1	Precipitación	0
4176	7	Sololá	701	Sololá	3	Barraneche	1	Enero	2023-01-22T00:00:00	2024-11-06T17:00:00	8	Radiación solar	242
4177	7	Sololá	701	Sololá	3	Barraneche	1	Enero	2023-01-22T00:00:00	2024-11-06T18:00:00	2	Temperatura media	12.9
4178	7	Sololá	701	Sololá	3	Barraneche	1	Enero	2023-01-22T00:00:00	2024-11-06T18:00:00	4	Temperatura máxima	14
4179	7	Sololá	701	Sololá	3	Barraneche	1	Enero	2023-01-22T00:00:00	2024-11-06T18:00:00	3	Temperatura mínima	12.9
4180	7	Sololá	701	Sololá	3	Barraneche	1	Enero	2023-01-22T00:00:00	2024-11-06T18:00:00	5	Humedad	72
4181	7	Sololá	701	Sololá	3	Barraneche	1	Enero	2023-01-22T00:00:00	2024-11-06T18:00:00	6	Velocidad del viento	6.4
4182	7	Sololá	701	Sololá	3	Barraneche	1	Enero	2023-01-22T00:00:00	2024-11-06T18:00:00	7	Dirección del viento	6.44
4183	7	Sololá	701	Sololá	3	Barraneche	1	Enero	2023-01-22T00:00:00	2024-11-06T18:00:00	1	Precipitación	0
4184	7	Sololá	701	Sololá	3	Barraneche	1	Enero	2023-01-22T00:00:00	2024-11-06T18:00:00	8	Radiación solar	38
4185	7	Sololá	701	Sololá	3	Barraneche	1	Enero	2023-01-22T00:00:00	2024-11-06T19:00:00	2	Temperatura media	12.7
4186	7	Sololá	701	Sololá	3	Barraneche	1	Enero	2023-01-22T00:00:00	2024-11-06T19:00:00	4	Temperatura máxima	12.9
4187	7	Sololá	701	Sololá	3	Barraneche	1	Enero	2023-01-22T00:00:00	2024-11-06T19:00:00	3	Temperatura mínima	12.7
4188	7	Sololá	701	Sololá	3	Barraneche	1	Enero	2023-01-22T00:00:00	2024-11-06T19:00:00	5	Humedad	71
4189	7	Sololá	701	Sololá	3	Barraneche	1	Enero	2023-01-22T00:00:00	2024-11-06T19:00:00	6	Velocidad del viento	3.2
4190	7	Sololá	701	Sololá	3	Barraneche	1	Enero	2023-01-22T00:00:00	2024-11-06T19:00:00	7	Dirección del viento	3.22
4191	7	Sololá	701	Sololá	3	Barraneche	1	Enero	2023-01-22T00:00:00	2024-11-06T19:00:00	1	Precipitación	0
4192	7	Sololá	701	Sololá	3	Barraneche	1	Enero	2023-01-22T00:00:00	2024-11-06T19:00:00	8	Radiación solar	0
4193	7	Sololá	701	Sololá	3	Barraneche	1	Enero	2023-01-22T00:00:00	2024-11-06T20:00:00	2	Temperatura media	11.1
4194	7	Sololá	701	Sololá	3	Barraneche	1	Enero	2023-01-22T00:00:00	2024-11-06T20:00:00	4	Temperatura máxima	12.7
4195	7	Sololá	701	Sololá	3	Barraneche	1	Enero	2023-01-22T00:00:00	2024-11-06T20:00:00	3	Temperatura mínima	11
4196	7	Sololá	701	Sololá	3	Barraneche	1	Enero	2023-01-22T00:00:00	2024-11-06T20:00:00	5	Humedad	69
4197	7	Sololá	701	Sololá	3	Barraneche	1	Enero	2023-01-22T00:00:00	2024-11-06T20:00:00	6	Velocidad del viento	3.2
4198	7	Sololá	701	Sololá	3	Barraneche	1	Enero	2023-01-22T00:00:00	2024-11-06T20:00:00	7	Dirección del viento	3.22
4199	7	Sololá	701	Sololá	3	Barraneche	1	Enero	2023-01-22T00:00:00	2024-11-06T20:00:00	1	Precipitación	0
4200	7	Sololá	701	Sololá	3	Barraneche	1	Enero	2023-01-22T00:00:00	2024-11-06T20:00:00	8	Radiación solar	0
4201	7	Sololá	701	Sololá	3	Barraneche	1	Enero	2023-01-22T00:00:00	2024-11-06T21:00:00	2	Temperatura media	12.7
4202	7	Sololá	701	Sololá	3	Barraneche	1	Enero	2023-01-22T00:00:00	2024-11-06T21:00:00	4	Temperatura máxima	12.7
4203	7	Sololá	701	Sololá	3	Barraneche	1	Enero	2023-01-22T00:00:00	2024-11-06T21:00:00	3	Temperatura mínima	10.9
4204	7	Sololá	701	Sololá	3	Barraneche	1	Enero	2023-01-22T00:00:00	2024-11-06T21:00:00	5	Humedad	64
4205	7	Sololá	701	Sololá	3	Barraneche	1	Enero	2023-01-22T00:00:00	2024-11-06T21:00:00	6	Velocidad del viento	4.8
4206	7	Sololá	701	Sololá	3	Barraneche	1	Enero	2023-01-22T00:00:00	2024-11-06T21:00:00	7	Dirección del viento	4.83
4207	7	Sololá	701	Sololá	3	Barraneche	1	Enero	2023-01-22T00:00:00	2024-11-06T21:00:00	1	Precipitación	0
4208	7	Sololá	701	Sololá	3	Barraneche	1	Enero	2023-01-22T00:00:00	2024-11-06T21:00:00	8	Radiación solar	0
4209	7	Sololá	701	Sololá	3	Barraneche	1	Enero	2023-01-22T00:00:00	2024-11-06T22:00:00	2	Temperatura media	12.3
4210	7	Sololá	701	Sololá	3	Barraneche	1	Enero	2023-01-22T00:00:00	2024-11-06T22:00:00	4	Temperatura máxima	12.8
4211	7	Sololá	701	Sololá	3	Barraneche	1	Enero	2023-01-22T00:00:00	2024-11-06T22:00:00	3	Temperatura mínima	12.3
4212	7	Sololá	701	Sololá	3	Barraneche	1	Enero	2023-01-22T00:00:00	2024-11-06T22:00:00	5	Humedad	63
4213	7	Sololá	701	Sololá	3	Barraneche	1	Enero	2023-01-22T00:00:00	2024-11-06T22:00:00	6	Velocidad del viento	4.8
4214	7	Sololá	701	Sololá	3	Barraneche	1	Enero	2023-01-22T00:00:00	2024-11-06T22:00:00	7	Dirección del viento	4.83
4215	7	Sololá	701	Sololá	3	Barraneche	1	Enero	2023-01-22T00:00:00	2024-11-06T22:00:00	1	Precipitación	0
4216	7	Sololá	701	Sololá	3	Barraneche	1	Enero	2023-01-22T00:00:00	2024-11-06T22:00:00	8	Radiación solar	0
4217	7	Sololá	701	Sololá	3	Barraneche	1	Enero	2023-01-22T00:00:00	2024-11-06T23:00:00	2	Temperatura media	11.2
4218	7	Sololá	701	Sololá	3	Barraneche	1	Enero	2023-01-22T00:00:00	2024-11-06T23:00:00	4	Temperatura máxima	12.3
4219	7	Sololá	701	Sololá	3	Barraneche	1	Enero	2023-01-22T00:00:00	2024-11-06T23:00:00	3	Temperatura mínima	11.2
4220	7	Sololá	701	Sololá	3	Barraneche	1	Enero	2023-01-22T00:00:00	2024-11-06T23:00:00	5	Humedad	62
4221	7	Sololá	701	Sololá	3	Barraneche	1	Enero	2023-01-22T00:00:00	2024-11-06T23:00:00	6	Velocidad del viento	4.8
4222	7	Sololá	701	Sololá	3	Barraneche	1	Enero	2023-01-22T00:00:00	2024-11-06T23:00:00	7	Dirección del viento	4.83
4223	7	Sololá	701	Sololá	3	Barraneche	1	Enero	2023-01-22T00:00:00	2024-11-06T23:00:00	1	Precipitación	0
4224	7	Sololá	701	Sololá	3	Barraneche	1	Enero	2023-01-22T00:00:00	2024-11-06T23:00:00	8	Radiación solar	0
4225	7	Sololá	701	Sololá	3	Barraneche	1	Enero	2023-01-23T00:00:00	2024-11-06T00:00:00	2	Temperatura media	10.1
4226	7	Sololá	701	Sololá	3	Barraneche	1	Enero	2023-01-23T00:00:00	2024-11-06T00:00:00	4	Temperatura máxima	11.5
4227	7	Sololá	701	Sololá	3	Barraneche	1	Enero	2023-01-23T00:00:00	2024-11-06T00:00:00	3	Temperatura mínima	10
4228	7	Sololá	701	Sololá	3	Barraneche	1	Enero	2023-01-23T00:00:00	2024-11-06T00:00:00	5	Humedad	66
4229	7	Sololá	701	Sololá	3	Barraneche	1	Enero	2023-01-23T00:00:00	2024-11-06T00:00:00	6	Velocidad del viento	3.2
4230	7	Sololá	701	Sololá	3	Barraneche	1	Enero	2023-01-23T00:00:00	2024-11-06T00:00:00	7	Dirección del viento	3.22
4231	7	Sololá	701	Sololá	3	Barraneche	1	Enero	2023-01-23T00:00:00	2024-11-06T00:00:00	1	Precipitación	0
4232	7	Sololá	701	Sololá	3	Barraneche	1	Enero	2023-01-23T00:00:00	2024-11-06T00:00:00	8	Radiación solar	0
4233	7	Sololá	701	Sololá	3	Barraneche	1	Enero	2023-01-23T00:00:00	2024-11-06T01:00:00	2	Temperatura media	9.2
4234	7	Sololá	701	Sololá	3	Barraneche	1	Enero	2023-01-23T00:00:00	2024-11-06T01:00:00	4	Temperatura máxima	10.7
4235	7	Sololá	701	Sololá	3	Barraneche	1	Enero	2023-01-23T00:00:00	2024-11-06T01:00:00	3	Temperatura mínima	9.2
4236	7	Sololá	701	Sololá	3	Barraneche	1	Enero	2023-01-23T00:00:00	2024-11-06T01:00:00	5	Humedad	66
4237	7	Sololá	701	Sololá	3	Barraneche	1	Enero	2023-01-23T00:00:00	2024-11-06T01:00:00	6	Velocidad del viento	6.4
4238	7	Sololá	701	Sololá	3	Barraneche	1	Enero	2023-01-23T00:00:00	2024-11-06T01:00:00	7	Dirección del viento	6.44
4239	7	Sololá	701	Sololá	3	Barraneche	1	Enero	2023-01-23T00:00:00	2024-11-06T01:00:00	1	Precipitación	0
4240	7	Sololá	701	Sololá	3	Barraneche	1	Enero	2023-01-23T00:00:00	2024-11-06T01:00:00	8	Radiación solar	0
4241	7	Sololá	701	Sololá	3	Barraneche	1	Enero	2023-01-23T00:00:00	2024-11-06T02:00:00	2	Temperatura media	10.1
4242	7	Sololá	701	Sololá	3	Barraneche	1	Enero	2023-01-23T00:00:00	2024-11-06T02:00:00	4	Temperatura máxima	10.5
4243	7	Sololá	701	Sololá	3	Barraneche	1	Enero	2023-01-23T00:00:00	2024-11-06T02:00:00	3	Temperatura mínima	9.2
4244	7	Sololá	701	Sololá	3	Barraneche	1	Enero	2023-01-23T00:00:00	2024-11-06T02:00:00	5	Humedad	62
4245	7	Sololá	701	Sololá	3	Barraneche	1	Enero	2023-01-23T00:00:00	2024-11-06T02:00:00	6	Velocidad del viento	8
4246	7	Sololá	701	Sololá	3	Barraneche	1	Enero	2023-01-23T00:00:00	2024-11-06T02:00:00	7	Dirección del viento	8.05
4247	7	Sololá	701	Sololá	3	Barraneche	1	Enero	2023-01-23T00:00:00	2024-11-06T02:00:00	1	Precipitación	0
4248	7	Sololá	701	Sololá	3	Barraneche	1	Enero	2023-01-23T00:00:00	2024-11-06T02:00:00	8	Radiación solar	0
4249	7	Sololá	701	Sololá	3	Barraneche	1	Enero	2023-01-23T00:00:00	2024-11-06T03:00:00	2	Temperatura media	10.6
4250	7	Sololá	701	Sololá	3	Barraneche	1	Enero	2023-01-23T00:00:00	2024-11-06T03:00:00	4	Temperatura máxima	10.6
4251	7	Sololá	701	Sololá	3	Barraneche	1	Enero	2023-01-23T00:00:00	2024-11-06T03:00:00	3	Temperatura mínima	9.9
4252	7	Sololá	701	Sololá	3	Barraneche	1	Enero	2023-01-23T00:00:00	2024-11-06T03:00:00	5	Humedad	60
4253	7	Sololá	701	Sololá	3	Barraneche	1	Enero	2023-01-23T00:00:00	2024-11-06T03:00:00	6	Velocidad del viento	8
4254	7	Sololá	701	Sololá	3	Barraneche	1	Enero	2023-01-23T00:00:00	2024-11-06T03:00:00	7	Dirección del viento	8.05
4255	7	Sololá	701	Sololá	3	Barraneche	1	Enero	2023-01-23T00:00:00	2024-11-06T03:00:00	1	Precipitación	0
4256	7	Sololá	701	Sololá	3	Barraneche	1	Enero	2023-01-23T00:00:00	2024-11-06T03:00:00	8	Radiación solar	0
4257	7	Sololá	701	Sololá	3	Barraneche	1	Enero	2023-01-23T00:00:00	2024-11-06T04:00:00	2	Temperatura media	10.6
4258	7	Sololá	701	Sololá	3	Barraneche	1	Enero	2023-01-23T00:00:00	2024-11-06T04:00:00	4	Temperatura máxima	10.7
4259	7	Sololá	701	Sololá	3	Barraneche	1	Enero	2023-01-23T00:00:00	2024-11-06T04:00:00	3	Temperatura mínima	10.4
4260	7	Sololá	701	Sololá	3	Barraneche	1	Enero	2023-01-23T00:00:00	2024-11-06T04:00:00	5	Humedad	56
4261	7	Sololá	701	Sololá	3	Barraneche	1	Enero	2023-01-23T00:00:00	2024-11-06T04:00:00	6	Velocidad del viento	9.7
4262	7	Sololá	701	Sololá	3	Barraneche	1	Enero	2023-01-23T00:00:00	2024-11-06T04:00:00	7	Dirección del viento	9.66
4263	7	Sololá	701	Sololá	3	Barraneche	1	Enero	2023-01-23T00:00:00	2024-11-06T04:00:00	1	Precipitación	0
4264	7	Sololá	701	Sololá	3	Barraneche	1	Enero	2023-01-23T00:00:00	2024-11-06T04:00:00	8	Radiación solar	0
4265	7	Sololá	701	Sololá	3	Barraneche	1	Enero	2023-01-23T00:00:00	2024-11-06T05:00:00	2	Temperatura media	10.5
4266	7	Sololá	701	Sololá	3	Barraneche	1	Enero	2023-01-23T00:00:00	2024-11-06T05:00:00	4	Temperatura máxima	10.8
4267	7	Sololá	701	Sololá	3	Barraneche	1	Enero	2023-01-23T00:00:00	2024-11-06T05:00:00	3	Temperatura mínima	10.3
4268	7	Sololá	701	Sololá	3	Barraneche	1	Enero	2023-01-23T00:00:00	2024-11-06T05:00:00	5	Humedad	54
4269	7	Sololá	701	Sololá	3	Barraneche	1	Enero	2023-01-23T00:00:00	2024-11-06T05:00:00	6	Velocidad del viento	9.7
4270	7	Sololá	701	Sololá	3	Barraneche	1	Enero	2023-01-23T00:00:00	2024-11-06T05:00:00	7	Dirección del viento	9.66
4271	7	Sololá	701	Sololá	3	Barraneche	1	Enero	2023-01-23T00:00:00	2024-11-06T05:00:00	1	Precipitación	0
4272	7	Sololá	701	Sololá	3	Barraneche	1	Enero	2023-01-23T00:00:00	2024-11-06T05:00:00	8	Radiación solar	0
4273	7	Sololá	701	Sololá	3	Barraneche	1	Enero	2023-01-23T00:00:00	2024-11-06T06:00:00	2	Temperatura media	10.9
4274	7	Sololá	701	Sololá	3	Barraneche	1	Enero	2023-01-23T00:00:00	2024-11-06T06:00:00	4	Temperatura máxima	11.1
4275	7	Sololá	701	Sololá	3	Barraneche	1	Enero	2023-01-23T00:00:00	2024-11-06T06:00:00	3	Temperatura mínima	10.4
4276	7	Sololá	701	Sololá	3	Barraneche	1	Enero	2023-01-23T00:00:00	2024-11-06T06:00:00	5	Humedad	55
4277	7	Sololá	701	Sololá	3	Barraneche	1	Enero	2023-01-23T00:00:00	2024-11-06T06:00:00	6	Velocidad del viento	9.7
4278	7	Sololá	701	Sololá	3	Barraneche	1	Enero	2023-01-23T00:00:00	2024-11-06T06:00:00	7	Dirección del viento	9.66
4279	7	Sololá	701	Sololá	3	Barraneche	1	Enero	2023-01-23T00:00:00	2024-11-06T06:00:00	1	Precipitación	0
4280	7	Sololá	701	Sololá	3	Barraneche	1	Enero	2023-01-23T00:00:00	2024-11-06T06:00:00	8	Radiación solar	0
4281	7	Sololá	701	Sololá	3	Barraneche	1	Enero	2023-01-23T00:00:00	2024-11-06T07:00:00	2	Temperatura media	10.9
4282	7	Sololá	701	Sololá	3	Barraneche	1	Enero	2023-01-23T00:00:00	2024-11-06T07:00:00	4	Temperatura máxima	10.9
4283	7	Sololá	701	Sololá	3	Barraneche	1	Enero	2023-01-23T00:00:00	2024-11-06T07:00:00	3	Temperatura mínima	10.4
4284	7	Sololá	701	Sololá	3	Barraneche	1	Enero	2023-01-23T00:00:00	2024-11-06T07:00:00	5	Humedad	54
4285	7	Sololá	701	Sololá	3	Barraneche	1	Enero	2023-01-23T00:00:00	2024-11-06T07:00:00	6	Velocidad del viento	9.7
4286	7	Sololá	701	Sololá	3	Barraneche	1	Enero	2023-01-23T00:00:00	2024-11-06T07:00:00	7	Dirección del viento	9.66
4287	7	Sololá	701	Sololá	3	Barraneche	1	Enero	2023-01-23T00:00:00	2024-11-06T07:00:00	1	Precipitación	0
4288	7	Sololá	701	Sololá	3	Barraneche	1	Enero	2023-01-23T00:00:00	2024-11-06T07:00:00	8	Radiación solar	5
4289	7	Sololá	701	Sololá	3	Barraneche	1	Enero	2023-01-23T00:00:00	2024-11-06T08:00:00	2	Temperatura media	13.1
4290	7	Sololá	701	Sololá	3	Barraneche	1	Enero	2023-01-23T00:00:00	2024-11-06T08:00:00	4	Temperatura máxima	13.1
4291	7	Sololá	701	Sololá	3	Barraneche	1	Enero	2023-01-23T00:00:00	2024-11-06T08:00:00	3	Temperatura mínima	10.8
4292	7	Sololá	701	Sololá	3	Barraneche	1	Enero	2023-01-23T00:00:00	2024-11-06T08:00:00	5	Humedad	47
4293	7	Sololá	701	Sololá	3	Barraneche	1	Enero	2023-01-23T00:00:00	2024-11-06T08:00:00	6	Velocidad del viento	14.5
4294	7	Sololá	701	Sololá	3	Barraneche	1	Enero	2023-01-23T00:00:00	2024-11-06T08:00:00	7	Dirección del viento	14.48
4295	7	Sololá	701	Sololá	3	Barraneche	1	Enero	2023-01-23T00:00:00	2024-11-06T08:00:00	1	Precipitación	0
4296	7	Sololá	701	Sololá	3	Barraneche	1	Enero	2023-01-23T00:00:00	2024-11-06T08:00:00	8	Radiación solar	145
4297	7	Sololá	701	Sololá	3	Barraneche	1	Enero	2023-01-23T00:00:00	2024-11-06T09:00:00	2	Temperatura media	14.4
4298	7	Sololá	701	Sololá	3	Barraneche	1	Enero	2023-01-23T00:00:00	2024-11-06T09:00:00	4	Temperatura máxima	14.4
4299	7	Sololá	701	Sololá	3	Barraneche	1	Enero	2023-01-23T00:00:00	2024-11-06T09:00:00	3	Temperatura mínima	13.1
4300	7	Sololá	701	Sololá	3	Barraneche	1	Enero	2023-01-23T00:00:00	2024-11-06T09:00:00	5	Humedad	43
4301	7	Sololá	701	Sololá	3	Barraneche	1	Enero	2023-01-23T00:00:00	2024-11-06T09:00:00	6	Velocidad del viento	12.9
4302	7	Sololá	701	Sololá	3	Barraneche	1	Enero	2023-01-23T00:00:00	2024-11-06T09:00:00	7	Dirección del viento	12.87
4303	7	Sololá	701	Sololá	3	Barraneche	1	Enero	2023-01-23T00:00:00	2024-11-06T09:00:00	1	Precipitación	0
4304	7	Sololá	701	Sololá	3	Barraneche	1	Enero	2023-01-23T00:00:00	2024-11-06T09:00:00	8	Radiación solar	403
4305	7	Sololá	701	Sololá	3	Barraneche	1	Enero	2023-01-23T00:00:00	2024-11-06T10:00:00	2	Temperatura media	16.2
4306	7	Sololá	701	Sololá	3	Barraneche	1	Enero	2023-01-23T00:00:00	2024-11-06T10:00:00	4	Temperatura máxima	16.2
4307	7	Sololá	701	Sololá	3	Barraneche	1	Enero	2023-01-23T00:00:00	2024-11-06T10:00:00	3	Temperatura mínima	14.4
4308	7	Sololá	701	Sololá	3	Barraneche	1	Enero	2023-01-23T00:00:00	2024-11-06T10:00:00	5	Humedad	33
4309	7	Sololá	701	Sololá	3	Barraneche	1	Enero	2023-01-23T00:00:00	2024-11-06T10:00:00	6	Velocidad del viento	12.9
4310	7	Sololá	701	Sololá	3	Barraneche	1	Enero	2023-01-23T00:00:00	2024-11-06T10:00:00	7	Dirección del viento	12.87
4311	7	Sololá	701	Sololá	3	Barraneche	1	Enero	2023-01-23T00:00:00	2024-11-06T10:00:00	1	Precipitación	0
4312	7	Sololá	701	Sololá	3	Barraneche	1	Enero	2023-01-23T00:00:00	2024-11-06T10:00:00	8	Radiación solar	617
4313	7	Sololá	701	Sololá	3	Barraneche	1	Enero	2023-01-23T00:00:00	2024-11-06T11:00:00	2	Temperatura media	16.2
4314	7	Sololá	701	Sololá	3	Barraneche	1	Enero	2023-01-23T00:00:00	2024-11-06T11:00:00	4	Temperatura máxima	16.7
4315	7	Sololá	701	Sololá	3	Barraneche	1	Enero	2023-01-23T00:00:00	2024-11-06T11:00:00	3	Temperatura mínima	15.9
4316	7	Sololá	701	Sololá	3	Barraneche	1	Enero	2023-01-23T00:00:00	2024-11-06T11:00:00	5	Humedad	39
4317	7	Sololá	701	Sololá	3	Barraneche	1	Enero	2023-01-23T00:00:00	2024-11-06T11:00:00	6	Velocidad del viento	17.7
4318	7	Sololá	701	Sololá	3	Barraneche	1	Enero	2023-01-23T00:00:00	2024-11-06T11:00:00	7	Dirección del viento	17.7
4319	7	Sololá	701	Sololá	3	Barraneche	1	Enero	2023-01-23T00:00:00	2024-11-06T11:00:00	1	Precipitación	0
4320	7	Sololá	701	Sololá	3	Barraneche	1	Enero	2023-01-23T00:00:00	2024-11-06T11:00:00	8	Radiación solar	779
4321	7	Sololá	701	Sololá	3	Barraneche	1	Enero	2023-01-23T00:00:00	2024-11-06T12:00:00	2	Temperatura media	17.2
4322	7	Sololá	701	Sololá	3	Barraneche	1	Enero	2023-01-23T00:00:00	2024-11-06T12:00:00	4	Temperatura máxima	17.3
4323	7	Sololá	701	Sololá	3	Barraneche	1	Enero	2023-01-23T00:00:00	2024-11-06T12:00:00	3	Temperatura mínima	16.2
4324	7	Sololá	701	Sololá	3	Barraneche	1	Enero	2023-01-23T00:00:00	2024-11-06T12:00:00	5	Humedad	33
4325	7	Sololá	701	Sololá	3	Barraneche	1	Enero	2023-01-23T00:00:00	2024-11-06T12:00:00	6	Velocidad del viento	16.1
4326	7	Sololá	701	Sololá	3	Barraneche	1	Enero	2023-01-23T00:00:00	2024-11-06T12:00:00	7	Dirección del viento	16.09
4327	7	Sololá	701	Sololá	3	Barraneche	1	Enero	2023-01-23T00:00:00	2024-11-06T12:00:00	1	Precipitación	0
4328	7	Sololá	701	Sololá	3	Barraneche	1	Enero	2023-01-23T00:00:00	2024-11-06T12:00:00	8	Radiación solar	859
4329	7	Sololá	701	Sololá	3	Barraneche	1	Enero	2023-01-23T00:00:00	2024-11-06T13:00:00	2	Temperatura media	17.7
4330	7	Sololá	701	Sololá	3	Barraneche	1	Enero	2023-01-23T00:00:00	2024-11-06T13:00:00	4	Temperatura máxima	17.9
4331	7	Sololá	701	Sololá	3	Barraneche	1	Enero	2023-01-23T00:00:00	2024-11-06T13:00:00	3	Temperatura mínima	17.1
4332	7	Sololá	701	Sololá	3	Barraneche	1	Enero	2023-01-23T00:00:00	2024-11-06T13:00:00	5	Humedad	39
4333	7	Sololá	701	Sololá	3	Barraneche	1	Enero	2023-01-23T00:00:00	2024-11-06T13:00:00	6	Velocidad del viento	17.7
4334	7	Sololá	701	Sololá	3	Barraneche	1	Enero	2023-01-23T00:00:00	2024-11-06T13:00:00	7	Dirección del viento	17.7
4335	7	Sololá	701	Sololá	3	Barraneche	1	Enero	2023-01-23T00:00:00	2024-11-06T13:00:00	1	Precipitación	0
4336	7	Sololá	701	Sololá	3	Barraneche	1	Enero	2023-01-23T00:00:00	2024-11-06T13:00:00	8	Radiación solar	880
4337	7	Sololá	701	Sololá	3	Barraneche	1	Enero	2023-01-23T00:00:00	2024-11-06T14:00:00	2	Temperatura media	17.9
4338	7	Sololá	701	Sololá	3	Barraneche	1	Enero	2023-01-23T00:00:00	2024-11-06T14:00:00	4	Temperatura máxima	18.1
4339	7	Sololá	701	Sololá	3	Barraneche	1	Enero	2023-01-23T00:00:00	2024-11-06T14:00:00	3	Temperatura mínima	17.3
4340	7	Sololá	701	Sololá	3	Barraneche	1	Enero	2023-01-23T00:00:00	2024-11-06T14:00:00	5	Humedad	38
4341	7	Sololá	701	Sololá	3	Barraneche	1	Enero	2023-01-23T00:00:00	2024-11-06T14:00:00	6	Velocidad del viento	17.7
4342	7	Sololá	701	Sololá	3	Barraneche	1	Enero	2023-01-23T00:00:00	2024-11-06T14:00:00	7	Dirección del viento	17.7
4343	7	Sololá	701	Sololá	3	Barraneche	1	Enero	2023-01-23T00:00:00	2024-11-06T14:00:00	1	Precipitación	0
4344	7	Sololá	701	Sololá	3	Barraneche	1	Enero	2023-01-23T00:00:00	2024-11-06T14:00:00	8	Radiación solar	836
4345	7	Sololá	701	Sololá	3	Barraneche	1	Enero	2023-01-23T00:00:00	2024-11-06T15:00:00	2	Temperatura media	17.6
4346	7	Sololá	701	Sololá	3	Barraneche	1	Enero	2023-01-23T00:00:00	2024-11-06T15:00:00	4	Temperatura máxima	17.9
4347	7	Sololá	701	Sololá	3	Barraneche	1	Enero	2023-01-23T00:00:00	2024-11-06T15:00:00	3	Temperatura mínima	16.8
4348	7	Sololá	701	Sololá	3	Barraneche	1	Enero	2023-01-23T00:00:00	2024-11-06T15:00:00	5	Humedad	42
4349	7	Sololá	701	Sololá	3	Barraneche	1	Enero	2023-01-23T00:00:00	2024-11-06T15:00:00	6	Velocidad del viento	16.1
4350	7	Sololá	701	Sololá	3	Barraneche	1	Enero	2023-01-23T00:00:00	2024-11-06T15:00:00	7	Dirección del viento	16.09
4351	7	Sololá	701	Sololá	3	Barraneche	1	Enero	2023-01-23T00:00:00	2024-11-06T15:00:00	1	Precipitación	0
4352	7	Sololá	701	Sololá	3	Barraneche	1	Enero	2023-01-23T00:00:00	2024-11-06T15:00:00	8	Radiación solar	704
4353	7	Sololá	701	Sololá	3	Barraneche	1	Enero	2023-01-23T00:00:00	2024-11-06T16:00:00	2	Temperatura media	17
4354	7	Sololá	701	Sololá	3	Barraneche	1	Enero	2023-01-23T00:00:00	2024-11-06T16:00:00	4	Temperatura máxima	17.8
4355	7	Sololá	701	Sololá	3	Barraneche	1	Enero	2023-01-23T00:00:00	2024-11-06T16:00:00	3	Temperatura mínima	16.6
4356	7	Sololá	701	Sololá	3	Barraneche	1	Enero	2023-01-23T00:00:00	2024-11-06T16:00:00	5	Humedad	40
4357	7	Sololá	701	Sololá	3	Barraneche	1	Enero	2023-01-23T00:00:00	2024-11-06T16:00:00	6	Velocidad del viento	14.5
4358	7	Sololá	701	Sololá	3	Barraneche	1	Enero	2023-01-23T00:00:00	2024-11-06T16:00:00	7	Dirección del viento	14.48
4359	7	Sololá	701	Sololá	3	Barraneche	1	Enero	2023-01-23T00:00:00	2024-11-06T16:00:00	1	Precipitación	0
4360	7	Sololá	701	Sololá	3	Barraneche	1	Enero	2023-01-23T00:00:00	2024-11-06T16:00:00	8	Radiación solar	516
4361	7	Sololá	701	Sololá	3	Barraneche	1	Enero	2023-01-23T00:00:00	2024-11-06T17:00:00	2	Temperatura media	16.2
4362	7	Sololá	701	Sololá	3	Barraneche	1	Enero	2023-01-23T00:00:00	2024-11-06T17:00:00	4	Temperatura máxima	17.2
4363	7	Sololá	701	Sololá	3	Barraneche	1	Enero	2023-01-23T00:00:00	2024-11-06T17:00:00	3	Temperatura mínima	16
4364	7	Sololá	701	Sololá	3	Barraneche	1	Enero	2023-01-23T00:00:00	2024-11-06T17:00:00	5	Humedad	47
4365	7	Sololá	701	Sololá	3	Barraneche	1	Enero	2023-01-23T00:00:00	2024-11-06T17:00:00	6	Velocidad del viento	12.9
4366	7	Sololá	701	Sololá	3	Barraneche	1	Enero	2023-01-23T00:00:00	2024-11-06T17:00:00	7	Dirección del viento	12.87
4367	7	Sololá	701	Sololá	3	Barraneche	1	Enero	2023-01-23T00:00:00	2024-11-06T17:00:00	1	Precipitación	0
4368	7	Sololá	701	Sololá	3	Barraneche	1	Enero	2023-01-23T00:00:00	2024-11-06T17:00:00	8	Radiación solar	267
4369	7	Sololá	701	Sololá	3	Barraneche	1	Enero	2023-01-23T00:00:00	2024-11-06T18:00:00	2	Temperatura media	13.8
4370	7	Sololá	701	Sololá	3	Barraneche	1	Enero	2023-01-23T00:00:00	2024-11-06T18:00:00	4	Temperatura máxima	16.2
4371	7	Sololá	701	Sololá	3	Barraneche	1	Enero	2023-01-23T00:00:00	2024-11-06T18:00:00	3	Temperatura mínima	13.8
4372	7	Sololá	701	Sololá	3	Barraneche	1	Enero	2023-01-23T00:00:00	2024-11-06T18:00:00	5	Humedad	57
4373	7	Sololá	701	Sololá	3	Barraneche	1	Enero	2023-01-23T00:00:00	2024-11-06T18:00:00	6	Velocidad del viento	9.7
4374	7	Sololá	701	Sololá	3	Barraneche	1	Enero	2023-01-23T00:00:00	2024-11-06T18:00:00	7	Dirección del viento	9.66
4375	7	Sololá	701	Sololá	3	Barraneche	1	Enero	2023-01-23T00:00:00	2024-11-06T18:00:00	1	Precipitación	0
4376	7	Sololá	701	Sololá	3	Barraneche	1	Enero	2023-01-23T00:00:00	2024-11-06T18:00:00	8	Radiación solar	53
4377	7	Sololá	701	Sololá	3	Barraneche	1	Enero	2023-01-23T00:00:00	2024-11-06T19:00:00	2	Temperatura media	12.8
4378	7	Sololá	701	Sololá	3	Barraneche	1	Enero	2023-01-23T00:00:00	2024-11-06T19:00:00	4	Temperatura máxima	13.8
4379	7	Sololá	701	Sololá	3	Barraneche	1	Enero	2023-01-23T00:00:00	2024-11-06T19:00:00	3	Temperatura mínima	12.8
4380	7	Sololá	701	Sololá	3	Barraneche	1	Enero	2023-01-23T00:00:00	2024-11-06T19:00:00	5	Humedad	60
4381	7	Sololá	701	Sololá	3	Barraneche	1	Enero	2023-01-23T00:00:00	2024-11-06T19:00:00	6	Velocidad del viento	8
4382	7	Sololá	701	Sololá	3	Barraneche	1	Enero	2023-01-23T00:00:00	2024-11-06T19:00:00	7	Dirección del viento	8.05
4383	7	Sololá	701	Sololá	3	Barraneche	1	Enero	2023-01-23T00:00:00	2024-11-06T19:00:00	1	Precipitación	0
4384	7	Sololá	701	Sololá	3	Barraneche	1	Enero	2023-01-23T00:00:00	2024-11-06T19:00:00	8	Radiación solar	0
4385	7	Sololá	701	Sololá	3	Barraneche	1	Enero	2023-01-23T00:00:00	2024-11-06T20:00:00	2	Temperatura media	12.4
4386	7	Sololá	701	Sololá	3	Barraneche	1	Enero	2023-01-23T00:00:00	2024-11-06T20:00:00	4	Temperatura máxima	12.8
4387	7	Sololá	701	Sololá	3	Barraneche	1	Enero	2023-01-23T00:00:00	2024-11-06T20:00:00	3	Temperatura mínima	12.4
4388	7	Sololá	701	Sololá	3	Barraneche	1	Enero	2023-01-23T00:00:00	2024-11-06T20:00:00	5	Humedad	59
4389	7	Sololá	701	Sololá	3	Barraneche	1	Enero	2023-01-23T00:00:00	2024-11-06T20:00:00	6	Velocidad del viento	11.3
4390	7	Sololá	701	Sololá	3	Barraneche	1	Enero	2023-01-23T00:00:00	2024-11-06T20:00:00	7	Dirección del viento	11.27
4391	7	Sololá	701	Sololá	3	Barraneche	1	Enero	2023-01-23T00:00:00	2024-11-06T20:00:00	1	Precipitación	0
4392	7	Sololá	701	Sololá	3	Barraneche	1	Enero	2023-01-23T00:00:00	2024-11-06T20:00:00	8	Radiación solar	0
4393	7	Sololá	701	Sololá	3	Barraneche	1	Enero	2023-01-23T00:00:00	2024-11-06T21:00:00	2	Temperatura media	11.7
4394	7	Sololá	701	Sololá	3	Barraneche	1	Enero	2023-01-23T00:00:00	2024-11-06T21:00:00	4	Temperatura máxima	12.4
4395	7	Sololá	701	Sololá	3	Barraneche	1	Enero	2023-01-23T00:00:00	2024-11-06T21:00:00	3	Temperatura mínima	11.7
4396	7	Sololá	701	Sololá	3	Barraneche	1	Enero	2023-01-23T00:00:00	2024-11-06T21:00:00	5	Humedad	59
4397	7	Sololá	701	Sololá	3	Barraneche	1	Enero	2023-01-23T00:00:00	2024-11-06T21:00:00	6	Velocidad del viento	12.9
4398	7	Sololá	701	Sololá	3	Barraneche	1	Enero	2023-01-23T00:00:00	2024-11-06T21:00:00	7	Dirección del viento	12.87
4399	7	Sololá	701	Sololá	3	Barraneche	1	Enero	2023-01-23T00:00:00	2024-11-06T21:00:00	1	Precipitación	0
4400	7	Sololá	701	Sololá	3	Barraneche	1	Enero	2023-01-23T00:00:00	2024-11-06T21:00:00	8	Radiación solar	0
4401	7	Sololá	701	Sololá	3	Barraneche	1	Enero	2023-01-23T00:00:00	2024-11-06T22:00:00	2	Temperatura media	11.6
4402	7	Sololá	701	Sololá	3	Barraneche	1	Enero	2023-01-23T00:00:00	2024-11-06T22:00:00	4	Temperatura máxima	11.9
4403	7	Sololá	701	Sololá	3	Barraneche	1	Enero	2023-01-23T00:00:00	2024-11-06T22:00:00	3	Temperatura mínima	11.6
4404	7	Sololá	701	Sololá	3	Barraneche	1	Enero	2023-01-23T00:00:00	2024-11-06T22:00:00	5	Humedad	59
4405	7	Sololá	701	Sololá	3	Barraneche	1	Enero	2023-01-23T00:00:00	2024-11-06T22:00:00	6	Velocidad del viento	11.3
4406	7	Sololá	701	Sololá	3	Barraneche	1	Enero	2023-01-23T00:00:00	2024-11-06T22:00:00	7	Dirección del viento	11.27
4407	7	Sololá	701	Sololá	3	Barraneche	1	Enero	2023-01-23T00:00:00	2024-11-06T22:00:00	1	Precipitación	0
4408	7	Sololá	701	Sololá	3	Barraneche	1	Enero	2023-01-23T00:00:00	2024-11-06T22:00:00	8	Radiación solar	0
4409	7	Sololá	701	Sololá	3	Barraneche	1	Enero	2023-01-23T00:00:00	2024-11-06T23:00:00	2	Temperatura media	11
4410	7	Sololá	701	Sololá	3	Barraneche	1	Enero	2023-01-23T00:00:00	2024-11-06T23:00:00	4	Temperatura máxima	11.7
4411	7	Sololá	701	Sololá	3	Barraneche	1	Enero	2023-01-23T00:00:00	2024-11-06T23:00:00	3	Temperatura mínima	11
4412	7	Sololá	701	Sololá	3	Barraneche	1	Enero	2023-01-23T00:00:00	2024-11-06T23:00:00	5	Humedad	55
4413	7	Sololá	701	Sololá	3	Barraneche	1	Enero	2023-01-23T00:00:00	2024-11-06T23:00:00	6	Velocidad del viento	11.3
4414	7	Sololá	701	Sololá	3	Barraneche	1	Enero	2023-01-23T00:00:00	2024-11-06T23:00:00	7	Dirección del viento	11.27
4415	7	Sololá	701	Sololá	3	Barraneche	1	Enero	2023-01-23T00:00:00	2024-11-06T23:00:00	1	Precipitación	0
4416	7	Sololá	701	Sololá	3	Barraneche	1	Enero	2023-01-23T00:00:00	2024-11-06T23:00:00	8	Radiación solar	0
4417	7	Sololá	701	Sololá	3	Barraneche	1	Enero	2023-01-24T00:00:00	2024-11-06T00:00:00	2	Temperatura media	11
4418	7	Sololá	701	Sololá	3	Barraneche	1	Enero	2023-01-24T00:00:00	2024-11-06T00:00:00	4	Temperatura máxima	11.1
4419	7	Sololá	701	Sololá	3	Barraneche	1	Enero	2023-01-24T00:00:00	2024-11-06T00:00:00	3	Temperatura mínima	10.8
4420	7	Sololá	701	Sololá	3	Barraneche	1	Enero	2023-01-24T00:00:00	2024-11-06T00:00:00	5	Humedad	50
4421	7	Sololá	701	Sololá	3	Barraneche	1	Enero	2023-01-24T00:00:00	2024-11-06T00:00:00	6	Velocidad del viento	12.9
4422	7	Sololá	701	Sololá	3	Barraneche	1	Enero	2023-01-24T00:00:00	2024-11-06T00:00:00	7	Dirección del viento	12.87
4423	7	Sololá	701	Sololá	3	Barraneche	1	Enero	2023-01-24T00:00:00	2024-11-06T00:00:00	1	Precipitación	0
4424	7	Sololá	701	Sololá	3	Barraneche	1	Enero	2023-01-24T00:00:00	2024-11-06T00:00:00	8	Radiación solar	0
4425	7	Sololá	701	Sololá	3	Barraneche	1	Enero	2023-01-24T00:00:00	2024-11-06T01:00:00	2	Temperatura media	10.9
4426	7	Sololá	701	Sololá	3	Barraneche	1	Enero	2023-01-24T00:00:00	2024-11-06T01:00:00	4	Temperatura máxima	11.2
4427	7	Sololá	701	Sololá	3	Barraneche	1	Enero	2023-01-24T00:00:00	2024-11-06T01:00:00	3	Temperatura mínima	10.8
4428	7	Sololá	701	Sololá	3	Barraneche	1	Enero	2023-01-24T00:00:00	2024-11-06T01:00:00	5	Humedad	27
4429	7	Sololá	701	Sololá	3	Barraneche	1	Enero	2023-01-24T00:00:00	2024-11-06T01:00:00	6	Velocidad del viento	14.5
4430	7	Sololá	701	Sololá	3	Barraneche	1	Enero	2023-01-24T00:00:00	2024-11-06T01:00:00	7	Dirección del viento	14.48
4431	7	Sololá	701	Sololá	3	Barraneche	1	Enero	2023-01-24T00:00:00	2024-11-06T01:00:00	1	Precipitación	0
4432	7	Sololá	701	Sololá	3	Barraneche	1	Enero	2023-01-24T00:00:00	2024-11-06T01:00:00	8	Radiación solar	0
4433	7	Sololá	701	Sololá	3	Barraneche	1	Enero	2023-01-24T00:00:00	2024-11-06T02:00:00	2	Temperatura media	9.8
4434	7	Sololá	701	Sololá	3	Barraneche	1	Enero	2023-01-24T00:00:00	2024-11-06T02:00:00	4	Temperatura máxima	11
4435	7	Sololá	701	Sololá	3	Barraneche	1	Enero	2023-01-24T00:00:00	2024-11-06T02:00:00	3	Temperatura mínima	9.8
4436	7	Sololá	701	Sololá	3	Barraneche	1	Enero	2023-01-24T00:00:00	2024-11-06T02:00:00	5	Humedad	30
4437	7	Sololá	701	Sololá	3	Barraneche	1	Enero	2023-01-24T00:00:00	2024-11-06T02:00:00	6	Velocidad del viento	14.5
4438	7	Sololá	701	Sololá	3	Barraneche	1	Enero	2023-01-24T00:00:00	2024-11-06T02:00:00	7	Dirección del viento	14.48
4439	7	Sololá	701	Sololá	3	Barraneche	1	Enero	2023-01-24T00:00:00	2024-11-06T02:00:00	1	Precipitación	0
4440	7	Sololá	701	Sololá	3	Barraneche	1	Enero	2023-01-24T00:00:00	2024-11-06T02:00:00	8	Radiación solar	0
4441	7	Sololá	701	Sololá	3	Barraneche	1	Enero	2023-01-24T00:00:00	2024-11-06T03:00:00	2	Temperatura media	9.2
4442	7	Sololá	701	Sololá	3	Barraneche	1	Enero	2023-01-24T00:00:00	2024-11-06T03:00:00	4	Temperatura máxima	10.2
4443	7	Sololá	701	Sololá	3	Barraneche	1	Enero	2023-01-24T00:00:00	2024-11-06T03:00:00	3	Temperatura mínima	9.1
4444	7	Sololá	701	Sololá	3	Barraneche	1	Enero	2023-01-24T00:00:00	2024-11-06T03:00:00	5	Humedad	28
4445	7	Sololá	701	Sololá	3	Barraneche	1	Enero	2023-01-24T00:00:00	2024-11-06T03:00:00	6	Velocidad del viento	11.3
4446	7	Sololá	701	Sololá	3	Barraneche	1	Enero	2023-01-24T00:00:00	2024-11-06T03:00:00	7	Dirección del viento	11.27
4447	7	Sololá	701	Sololá	3	Barraneche	1	Enero	2023-01-24T00:00:00	2024-11-06T03:00:00	1	Precipitación	0
4448	7	Sololá	701	Sololá	3	Barraneche	1	Enero	2023-01-24T00:00:00	2024-11-06T03:00:00	8	Radiación solar	0
4449	7	Sololá	701	Sololá	3	Barraneche	1	Enero	2023-01-24T00:00:00	2024-11-06T04:00:00	2	Temperatura media	9.4
4450	7	Sololá	701	Sololá	3	Barraneche	1	Enero	2023-01-24T00:00:00	2024-11-06T04:00:00	4	Temperatura máxima	9.6
4451	7	Sololá	701	Sololá	3	Barraneche	1	Enero	2023-01-24T00:00:00	2024-11-06T04:00:00	3	Temperatura mínima	9.2
4452	7	Sololá	701	Sololá	3	Barraneche	1	Enero	2023-01-24T00:00:00	2024-11-06T04:00:00	5	Humedad	27
4453	7	Sololá	701	Sololá	3	Barraneche	1	Enero	2023-01-24T00:00:00	2024-11-06T04:00:00	6	Velocidad del viento	11.3
4454	7	Sololá	701	Sololá	3	Barraneche	1	Enero	2023-01-24T00:00:00	2024-11-06T04:00:00	7	Dirección del viento	11.27
4455	7	Sololá	701	Sololá	3	Barraneche	1	Enero	2023-01-24T00:00:00	2024-11-06T04:00:00	1	Precipitación	0
4456	7	Sololá	701	Sololá	3	Barraneche	1	Enero	2023-01-24T00:00:00	2024-11-06T04:00:00	8	Radiación solar	0
4457	7	Sololá	701	Sololá	3	Barraneche	1	Enero	2023-01-24T00:00:00	2024-11-06T05:00:00	2	Temperatura media	10.6
4458	7	Sololá	701	Sololá	3	Barraneche	1	Enero	2023-01-24T00:00:00	2024-11-06T05:00:00	4	Temperatura máxima	10.7
4459	7	Sololá	701	Sololá	3	Barraneche	1	Enero	2023-01-24T00:00:00	2024-11-06T05:00:00	3	Temperatura mínima	9.1
4460	7	Sololá	701	Sololá	3	Barraneche	1	Enero	2023-01-24T00:00:00	2024-11-06T05:00:00	5	Humedad	27
4461	7	Sololá	701	Sololá	3	Barraneche	1	Enero	2023-01-24T00:00:00	2024-11-06T05:00:00	6	Velocidad del viento	9.7
4462	7	Sololá	701	Sololá	3	Barraneche	1	Enero	2023-01-24T00:00:00	2024-11-06T05:00:00	7	Dirección del viento	9.66
4463	7	Sololá	701	Sololá	3	Barraneche	1	Enero	2023-01-24T00:00:00	2024-11-06T05:00:00	1	Precipitación	0
4464	7	Sololá	701	Sololá	3	Barraneche	1	Enero	2023-01-24T00:00:00	2024-11-06T05:00:00	8	Radiación solar	0
4465	7	Sololá	701	Sololá	3	Barraneche	1	Enero	2023-01-24T00:00:00	2024-11-06T06:00:00	2	Temperatura media	10.8
4466	7	Sololá	701	Sololá	3	Barraneche	1	Enero	2023-01-24T00:00:00	2024-11-06T06:00:00	4	Temperatura máxima	10.9
4467	7	Sololá	701	Sololá	3	Barraneche	1	Enero	2023-01-24T00:00:00	2024-11-06T06:00:00	3	Temperatura mínima	10.6
4468	7	Sololá	701	Sololá	3	Barraneche	1	Enero	2023-01-24T00:00:00	2024-11-06T06:00:00	5	Humedad	39
4469	7	Sololá	701	Sololá	3	Barraneche	1	Enero	2023-01-24T00:00:00	2024-11-06T06:00:00	6	Velocidad del viento	14.5
4470	7	Sololá	701	Sololá	3	Barraneche	1	Enero	2023-01-24T00:00:00	2024-11-06T06:00:00	7	Dirección del viento	14.48
4471	7	Sololá	701	Sololá	3	Barraneche	1	Enero	2023-01-24T00:00:00	2024-11-06T06:00:00	1	Precipitación	0
4472	7	Sololá	701	Sololá	3	Barraneche	1	Enero	2023-01-24T00:00:00	2024-11-06T06:00:00	8	Radiación solar	0
4473	7	Sololá	701	Sololá	3	Barraneche	1	Enero	2023-01-24T00:00:00	2024-11-06T07:00:00	2	Temperatura media	11.3
4474	7	Sololá	701	Sololá	3	Barraneche	1	Enero	2023-01-24T00:00:00	2024-11-06T07:00:00	4	Temperatura máxima	11.5
4475	7	Sololá	701	Sololá	3	Barraneche	1	Enero	2023-01-24T00:00:00	2024-11-06T07:00:00	3	Temperatura mínima	10.7
4476	7	Sololá	701	Sololá	3	Barraneche	1	Enero	2023-01-24T00:00:00	2024-11-06T07:00:00	5	Humedad	31
4477	7	Sololá	701	Sololá	3	Barraneche	1	Enero	2023-01-24T00:00:00	2024-11-06T07:00:00	6	Velocidad del viento	11.3
4478	7	Sololá	701	Sololá	3	Barraneche	1	Enero	2023-01-24T00:00:00	2024-11-06T07:00:00	7	Dirección del viento	11.27
4479	7	Sololá	701	Sololá	3	Barraneche	1	Enero	2023-01-24T00:00:00	2024-11-06T07:00:00	1	Precipitación	0
4480	7	Sololá	701	Sololá	3	Barraneche	1	Enero	2023-01-24T00:00:00	2024-11-06T07:00:00	8	Radiación solar	5
4481	7	Sololá	701	Sololá	3	Barraneche	1	Enero	2023-01-24T00:00:00	2024-11-06T08:00:00	2	Temperatura media	14
4482	7	Sololá	701	Sololá	3	Barraneche	1	Enero	2023-01-24T00:00:00	2024-11-06T08:00:00	4	Temperatura máxima	14
4483	7	Sololá	701	Sololá	3	Barraneche	1	Enero	2023-01-24T00:00:00	2024-11-06T08:00:00	3	Temperatura mínima	11.1
4484	7	Sololá	701	Sololá	3	Barraneche	1	Enero	2023-01-24T00:00:00	2024-11-06T08:00:00	5	Humedad	25
4485	7	Sololá	701	Sololá	3	Barraneche	1	Enero	2023-01-24T00:00:00	2024-11-06T08:00:00	6	Velocidad del viento	9.7
4486	7	Sololá	701	Sololá	3	Barraneche	1	Enero	2023-01-24T00:00:00	2024-11-06T08:00:00	7	Dirección del viento	9.66
4487	7	Sololá	701	Sololá	3	Barraneche	1	Enero	2023-01-24T00:00:00	2024-11-06T08:00:00	1	Precipitación	0
4488	7	Sololá	701	Sololá	3	Barraneche	1	Enero	2023-01-24T00:00:00	2024-11-06T08:00:00	8	Radiación solar	146
4489	7	Sololá	701	Sololá	3	Barraneche	1	Enero	2023-01-24T00:00:00	2024-11-06T09:00:00	2	Temperatura media	16.4
4490	7	Sololá	701	Sololá	3	Barraneche	1	Enero	2023-01-24T00:00:00	2024-11-06T09:00:00	4	Temperatura máxima	16.4
4491	7	Sololá	701	Sololá	3	Barraneche	1	Enero	2023-01-24T00:00:00	2024-11-06T09:00:00	3	Temperatura mínima	14
4492	7	Sololá	701	Sololá	3	Barraneche	1	Enero	2023-01-24T00:00:00	2024-11-06T09:00:00	5	Humedad	19
4493	7	Sololá	701	Sololá	3	Barraneche	1	Enero	2023-01-24T00:00:00	2024-11-06T09:00:00	6	Velocidad del viento	9.7
4494	7	Sololá	701	Sololá	3	Barraneche	1	Enero	2023-01-24T00:00:00	2024-11-06T09:00:00	7	Dirección del viento	9.66
4495	7	Sololá	701	Sololá	3	Barraneche	1	Enero	2023-01-24T00:00:00	2024-11-06T09:00:00	1	Precipitación	0
4496	7	Sololá	701	Sololá	3	Barraneche	1	Enero	2023-01-24T00:00:00	2024-11-06T09:00:00	8	Radiación solar	408
4497	7	Sololá	701	Sololá	3	Barraneche	1	Enero	2023-01-24T00:00:00	2024-11-06T10:00:00	2	Temperatura media	17.9
4498	7	Sololá	701	Sololá	3	Barraneche	1	Enero	2023-01-24T00:00:00	2024-11-06T10:00:00	4	Temperatura máxima	18.2
4499	7	Sololá	701	Sololá	3	Barraneche	1	Enero	2023-01-24T00:00:00	2024-11-06T10:00:00	3	Temperatura mínima	16.4
4500	7	Sololá	701	Sololá	3	Barraneche	1	Enero	2023-01-24T00:00:00	2024-11-06T10:00:00	5	Humedad	13
4501	7	Sololá	701	Sololá	3	Barraneche	1	Enero	2023-01-24T00:00:00	2024-11-06T10:00:00	6	Velocidad del viento	8
4502	7	Sololá	701	Sololá	3	Barraneche	1	Enero	2023-01-24T00:00:00	2024-11-06T10:00:00	7	Dirección del viento	8.05
4503	7	Sololá	701	Sololá	3	Barraneche	1	Enero	2023-01-24T00:00:00	2024-11-06T10:00:00	1	Precipitación	0
4504	7	Sololá	701	Sololá	3	Barraneche	1	Enero	2023-01-24T00:00:00	2024-11-06T10:00:00	8	Radiación solar	623
4505	7	Sololá	701	Sololá	3	Barraneche	1	Enero	2023-01-24T00:00:00	2024-11-06T11:00:00	2	Temperatura media	18.8
4506	7	Sololá	701	Sololá	3	Barraneche	1	Enero	2023-01-24T00:00:00	2024-11-06T11:00:00	4	Temperatura máxima	18.8
4507	7	Sololá	701	Sololá	3	Barraneche	1	Enero	2023-01-24T00:00:00	2024-11-06T11:00:00	3	Temperatura mínima	17.9
4508	7	Sololá	701	Sololá	3	Barraneche	1	Enero	2023-01-24T00:00:00	2024-11-06T11:00:00	5	Humedad	15
4509	7	Sololá	701	Sololá	3	Barraneche	1	Enero	2023-01-24T00:00:00	2024-11-06T11:00:00	6	Velocidad del viento	11.3
4510	7	Sololá	701	Sololá	3	Barraneche	1	Enero	2023-01-24T00:00:00	2024-11-06T11:00:00	7	Dirección del viento	11.27
4511	7	Sololá	701	Sololá	3	Barraneche	1	Enero	2023-01-24T00:00:00	2024-11-06T11:00:00	1	Precipitación	0
4512	7	Sololá	701	Sololá	3	Barraneche	1	Enero	2023-01-24T00:00:00	2024-11-06T11:00:00	8	Radiación solar	790
4513	7	Sololá	701	Sololá	3	Barraneche	1	Enero	2023-01-24T00:00:00	2024-11-06T12:00:00	2	Temperatura media	18.6
4514	7	Sololá	701	Sololá	3	Barraneche	1	Enero	2023-01-24T00:00:00	2024-11-06T12:00:00	4	Temperatura máxima	19.2
4515	7	Sololá	701	Sololá	3	Barraneche	1	Enero	2023-01-24T00:00:00	2024-11-06T12:00:00	3	Temperatura mínima	18.6
4516	7	Sololá	701	Sololá	3	Barraneche	1	Enero	2023-01-24T00:00:00	2024-11-06T12:00:00	5	Humedad	28
4517	7	Sololá	701	Sololá	3	Barraneche	1	Enero	2023-01-24T00:00:00	2024-11-06T12:00:00	6	Velocidad del viento	12.9
4518	7	Sololá	701	Sololá	3	Barraneche	1	Enero	2023-01-24T00:00:00	2024-11-06T12:00:00	7	Dirección del viento	12.87
4519	7	Sololá	701	Sololá	3	Barraneche	1	Enero	2023-01-24T00:00:00	2024-11-06T12:00:00	1	Precipitación	0
4520	7	Sololá	701	Sololá	3	Barraneche	1	Enero	2023-01-24T00:00:00	2024-11-06T12:00:00	8	Radiación solar	872
4521	7	Sololá	701	Sololá	3	Barraneche	1	Enero	2023-01-24T00:00:00	2024-11-06T13:00:00	2	Temperatura media	18.8
4522	7	Sololá	701	Sololá	3	Barraneche	1	Enero	2023-01-24T00:00:00	2024-11-06T13:00:00	4	Temperatura máxima	18.9
4523	7	Sololá	701	Sololá	3	Barraneche	1	Enero	2023-01-24T00:00:00	2024-11-06T13:00:00	3	Temperatura mínima	18.4
4524	7	Sololá	701	Sololá	3	Barraneche	1	Enero	2023-01-24T00:00:00	2024-11-06T13:00:00	5	Humedad	28
4525	7	Sololá	701	Sololá	3	Barraneche	1	Enero	2023-01-24T00:00:00	2024-11-06T13:00:00	6	Velocidad del viento	14.5
4526	7	Sololá	701	Sololá	3	Barraneche	1	Enero	2023-01-24T00:00:00	2024-11-06T13:00:00	7	Dirección del viento	14.48
4527	7	Sololá	701	Sololá	3	Barraneche	1	Enero	2023-01-24T00:00:00	2024-11-06T13:00:00	1	Precipitación	0
4528	7	Sololá	701	Sololá	3	Barraneche	1	Enero	2023-01-24T00:00:00	2024-11-06T13:00:00	8	Radiación solar	884
4529	7	Sololá	701	Sololá	3	Barraneche	1	Enero	2023-01-24T00:00:00	2024-11-06T14:00:00	2	Temperatura media	18.3
4530	7	Sololá	701	Sololá	3	Barraneche	1	Enero	2023-01-24T00:00:00	2024-11-06T14:00:00	4	Temperatura máxima	19.2
4531	7	Sololá	701	Sololá	3	Barraneche	1	Enero	2023-01-24T00:00:00	2024-11-06T14:00:00	3	Temperatura mínima	18.3
4532	7	Sololá	701	Sololá	3	Barraneche	1	Enero	2023-01-24T00:00:00	2024-11-06T14:00:00	5	Humedad	38
4533	7	Sololá	701	Sololá	3	Barraneche	1	Enero	2023-01-24T00:00:00	2024-11-06T14:00:00	6	Velocidad del viento	14.5
4534	7	Sololá	701	Sololá	3	Barraneche	1	Enero	2023-01-24T00:00:00	2024-11-06T14:00:00	7	Dirección del viento	14.48
4535	7	Sololá	701	Sololá	3	Barraneche	1	Enero	2023-01-24T00:00:00	2024-11-06T14:00:00	1	Precipitación	0
4536	7	Sololá	701	Sololá	3	Barraneche	1	Enero	2023-01-24T00:00:00	2024-11-06T14:00:00	8	Radiación solar	832
4537	7	Sololá	701	Sololá	3	Barraneche	1	Enero	2023-01-24T00:00:00	2024-11-06T15:00:00	2	Temperatura media	17.1
4538	7	Sololá	701	Sololá	3	Barraneche	1	Enero	2023-01-24T00:00:00	2024-11-06T15:00:00	4	Temperatura máxima	18.3
4539	7	Sololá	701	Sololá	3	Barraneche	1	Enero	2023-01-24T00:00:00	2024-11-06T15:00:00	3	Temperatura mínima	17.1
4540	7	Sololá	701	Sololá	3	Barraneche	1	Enero	2023-01-24T00:00:00	2024-11-06T15:00:00	5	Humedad	55
4541	7	Sololá	701	Sololá	3	Barraneche	1	Enero	2023-01-24T00:00:00	2024-11-06T15:00:00	6	Velocidad del viento	16.1
4542	7	Sololá	701	Sololá	3	Barraneche	1	Enero	2023-01-24T00:00:00	2024-11-06T15:00:00	7	Dirección del viento	16.09
4543	7	Sololá	701	Sololá	3	Barraneche	1	Enero	2023-01-24T00:00:00	2024-11-06T15:00:00	1	Precipitación	0
4544	7	Sololá	701	Sololá	3	Barraneche	1	Enero	2023-01-24T00:00:00	2024-11-06T15:00:00	8	Radiación solar	689
4545	7	Sololá	701	Sololá	3	Barraneche	1	Enero	2023-01-24T00:00:00	2024-11-06T16:00:00	2	Temperatura media	15.1
4546	7	Sololá	701	Sololá	3	Barraneche	1	Enero	2023-01-24T00:00:00	2024-11-06T16:00:00	4	Temperatura máxima	17.1
4547	7	Sololá	701	Sololá	3	Barraneche	1	Enero	2023-01-24T00:00:00	2024-11-06T16:00:00	3	Temperatura mínima	15.1
4548	7	Sololá	701	Sololá	3	Barraneche	1	Enero	2023-01-24T00:00:00	2024-11-06T16:00:00	5	Humedad	65
4549	7	Sololá	701	Sololá	3	Barraneche	1	Enero	2023-01-24T00:00:00	2024-11-06T16:00:00	6	Velocidad del viento	14.5
4550	7	Sololá	701	Sololá	3	Barraneche	1	Enero	2023-01-24T00:00:00	2024-11-06T16:00:00	7	Dirección del viento	14.48
4551	7	Sololá	701	Sololá	3	Barraneche	1	Enero	2023-01-24T00:00:00	2024-11-06T16:00:00	1	Precipitación	0
4552	7	Sololá	701	Sololá	3	Barraneche	1	Enero	2023-01-24T00:00:00	2024-11-06T16:00:00	8	Radiación solar	506
4553	7	Sololá	701	Sololá	3	Barraneche	1	Enero	2023-01-24T00:00:00	2024-11-06T17:00:00	2	Temperatura media	13.8
4554	7	Sololá	701	Sololá	3	Barraneche	1	Enero	2023-01-24T00:00:00	2024-11-06T17:00:00	4	Temperatura máxima	15.2
4555	7	Sololá	701	Sololá	3	Barraneche	1	Enero	2023-01-24T00:00:00	2024-11-06T17:00:00	3	Temperatura mínima	13.8
4556	7	Sololá	701	Sololá	3	Barraneche	1	Enero	2023-01-24T00:00:00	2024-11-06T17:00:00	5	Humedad	69
4557	7	Sololá	701	Sololá	3	Barraneche	1	Enero	2023-01-24T00:00:00	2024-11-06T17:00:00	6	Velocidad del viento	9.7
4558	7	Sololá	701	Sololá	3	Barraneche	1	Enero	2023-01-24T00:00:00	2024-11-06T17:00:00	7	Dirección del viento	9.66
4559	7	Sololá	701	Sololá	3	Barraneche	1	Enero	2023-01-24T00:00:00	2024-11-06T17:00:00	1	Precipitación	0
4560	7	Sololá	701	Sololá	3	Barraneche	1	Enero	2023-01-24T00:00:00	2024-11-06T17:00:00	8	Radiación solar	161
4561	7	Sololá	701	Sololá	3	Barraneche	1	Enero	2023-01-24T00:00:00	2024-11-06T18:00:00	2	Temperatura media	13
4562	7	Sololá	701	Sololá	3	Barraneche	1	Enero	2023-01-24T00:00:00	2024-11-06T18:00:00	4	Temperatura máxima	13.8
4563	7	Sololá	701	Sololá	3	Barraneche	1	Enero	2023-01-24T00:00:00	2024-11-06T18:00:00	3	Temperatura mínima	13
4564	7	Sololá	701	Sololá	3	Barraneche	1	Enero	2023-01-24T00:00:00	2024-11-06T18:00:00	5	Humedad	71
4565	7	Sololá	701	Sololá	3	Barraneche	1	Enero	2023-01-24T00:00:00	2024-11-06T18:00:00	6	Velocidad del viento	4.8
4566	7	Sololá	701	Sololá	3	Barraneche	1	Enero	2023-01-24T00:00:00	2024-11-06T18:00:00	7	Dirección del viento	4.83
4567	7	Sololá	701	Sololá	3	Barraneche	1	Enero	2023-01-24T00:00:00	2024-11-06T18:00:00	1	Precipitación	0
4568	7	Sololá	701	Sololá	3	Barraneche	1	Enero	2023-01-24T00:00:00	2024-11-06T18:00:00	8	Radiación solar	32
4569	7	Sololá	701	Sololá	3	Barraneche	1	Enero	2023-01-24T00:00:00	2024-11-06T19:00:00	2	Temperatura media	10.3
4570	7	Sololá	701	Sololá	3	Barraneche	1	Enero	2023-01-24T00:00:00	2024-11-06T19:00:00	4	Temperatura máxima	13
4571	7	Sololá	701	Sololá	3	Barraneche	1	Enero	2023-01-24T00:00:00	2024-11-06T19:00:00	3	Temperatura mínima	10.3
4572	7	Sololá	701	Sololá	3	Barraneche	1	Enero	2023-01-24T00:00:00	2024-11-06T19:00:00	5	Humedad	53
4573	7	Sololá	701	Sololá	3	Barraneche	1	Enero	2023-01-24T00:00:00	2024-11-06T19:00:00	6	Velocidad del viento	3.2
4574	7	Sololá	701	Sololá	3	Barraneche	1	Enero	2023-01-24T00:00:00	2024-11-06T19:00:00	7	Dirección del viento	3.22
4575	7	Sololá	701	Sololá	3	Barraneche	1	Enero	2023-01-24T00:00:00	2024-11-06T19:00:00	1	Precipitación	0
4576	7	Sololá	701	Sololá	3	Barraneche	1	Enero	2023-01-24T00:00:00	2024-11-06T19:00:00	8	Radiación solar	0
4577	7	Sololá	701	Sololá	3	Barraneche	1	Enero	2023-01-24T00:00:00	2024-11-06T20:00:00	2	Temperatura media	8.5
4578	7	Sololá	701	Sololá	3	Barraneche	1	Enero	2023-01-24T00:00:00	2024-11-06T20:00:00	4	Temperatura máxima	10.4
4579	7	Sololá	701	Sololá	3	Barraneche	1	Enero	2023-01-24T00:00:00	2024-11-06T20:00:00	3	Temperatura mínima	8.4
4580	7	Sololá	701	Sololá	3	Barraneche	1	Enero	2023-01-24T00:00:00	2024-11-06T20:00:00	5	Humedad	54
4581	7	Sololá	701	Sololá	3	Barraneche	1	Enero	2023-01-24T00:00:00	2024-11-06T20:00:00	6	Velocidad del viento	8
4582	7	Sololá	701	Sololá	3	Barraneche	1	Enero	2023-01-24T00:00:00	2024-11-06T20:00:00	7	Dirección del viento	8.05
4583	7	Sololá	701	Sololá	3	Barraneche	1	Enero	2023-01-24T00:00:00	2024-11-06T20:00:00	1	Precipitación	0
4584	7	Sololá	701	Sololá	3	Barraneche	1	Enero	2023-01-24T00:00:00	2024-11-06T20:00:00	8	Radiación solar	0
4585	7	Sololá	701	Sololá	3	Barraneche	1	Enero	2023-01-24T00:00:00	2024-11-06T21:00:00	2	Temperatura media	9.1
4586	7	Sololá	701	Sololá	3	Barraneche	1	Enero	2023-01-24T00:00:00	2024-11-06T21:00:00	4	Temperatura máxima	9.2
4587	7	Sololá	701	Sololá	3	Barraneche	1	Enero	2023-01-24T00:00:00	2024-11-06T21:00:00	3	Temperatura mínima	8.4
4588	7	Sololá	701	Sololá	3	Barraneche	1	Enero	2023-01-24T00:00:00	2024-11-06T21:00:00	5	Humedad	44
4589	7	Sololá	701	Sololá	3	Barraneche	1	Enero	2023-01-24T00:00:00	2024-11-06T21:00:00	6	Velocidad del viento	8
4590	7	Sololá	701	Sololá	3	Barraneche	1	Enero	2023-01-24T00:00:00	2024-11-06T21:00:00	7	Dirección del viento	8.05
4591	7	Sololá	701	Sololá	3	Barraneche	1	Enero	2023-01-24T00:00:00	2024-11-06T21:00:00	1	Precipitación	0
4592	7	Sololá	701	Sololá	3	Barraneche	1	Enero	2023-01-24T00:00:00	2024-11-06T21:00:00	8	Radiación solar	0
4593	7	Sololá	701	Sololá	3	Barraneche	1	Enero	2023-01-24T00:00:00	2024-11-06T22:00:00	2	Temperatura media	8.4
4594	7	Sololá	701	Sololá	3	Barraneche	1	Enero	2023-01-24T00:00:00	2024-11-06T22:00:00	4	Temperatura máxima	9.1
4595	7	Sololá	701	Sololá	3	Barraneche	1	Enero	2023-01-24T00:00:00	2024-11-06T22:00:00	3	Temperatura mínima	8.4
4596	7	Sololá	701	Sololá	3	Barraneche	1	Enero	2023-01-24T00:00:00	2024-11-06T22:00:00	5	Humedad	47
4597	7	Sololá	701	Sololá	3	Barraneche	1	Enero	2023-01-24T00:00:00	2024-11-06T22:00:00	6	Velocidad del viento	6.4
4598	7	Sololá	701	Sololá	3	Barraneche	1	Enero	2023-01-24T00:00:00	2024-11-06T22:00:00	7	Dirección del viento	6.44
4599	7	Sololá	701	Sololá	3	Barraneche	1	Enero	2023-01-24T00:00:00	2024-11-06T22:00:00	1	Precipitación	0
4600	7	Sololá	701	Sololá	3	Barraneche	1	Enero	2023-01-24T00:00:00	2024-11-06T22:00:00	8	Radiación solar	0
4601	7	Sololá	701	Sololá	3	Barraneche	1	Enero	2023-01-24T00:00:00	2024-11-06T23:00:00	2	Temperatura media	8.4
4602	7	Sololá	701	Sololá	3	Barraneche	1	Enero	2023-01-24T00:00:00	2024-11-06T23:00:00	4	Temperatura máxima	8.8
4603	7	Sololá	701	Sololá	3	Barraneche	1	Enero	2023-01-24T00:00:00	2024-11-06T23:00:00	3	Temperatura mínima	8.4
4604	7	Sololá	701	Sololá	3	Barraneche	1	Enero	2023-01-24T00:00:00	2024-11-06T23:00:00	5	Humedad	53
4605	7	Sololá	701	Sololá	3	Barraneche	1	Enero	2023-01-24T00:00:00	2024-11-06T23:00:00	6	Velocidad del viento	8
4606	7	Sololá	701	Sololá	3	Barraneche	1	Enero	2023-01-24T00:00:00	2024-11-06T23:00:00	7	Dirección del viento	8.05
4607	7	Sololá	701	Sololá	3	Barraneche	1	Enero	2023-01-24T00:00:00	2024-11-06T23:00:00	1	Precipitación	0
4608	7	Sololá	701	Sololá	3	Barraneche	1	Enero	2023-01-24T00:00:00	2024-11-06T23:00:00	8	Radiación solar	0
4609	7	Sololá	701	Sololá	3	Barraneche	1	Enero	2023-01-25T00:00:00	2024-11-06T00:00:00	2	Temperatura media	8.2
4610	7	Sololá	701	Sololá	3	Barraneche	1	Enero	2023-01-25T00:00:00	2024-11-06T00:00:00	4	Temperatura máxima	8.6
4611	7	Sololá	701	Sololá	3	Barraneche	1	Enero	2023-01-25T00:00:00	2024-11-06T00:00:00	3	Temperatura mínima	7.9
4612	7	Sololá	701	Sololá	3	Barraneche	1	Enero	2023-01-25T00:00:00	2024-11-06T00:00:00	5	Humedad	58
4613	7	Sololá	701	Sololá	3	Barraneche	1	Enero	2023-01-25T00:00:00	2024-11-06T00:00:00	6	Velocidad del viento	9.7
4614	7	Sololá	701	Sololá	3	Barraneche	1	Enero	2023-01-25T00:00:00	2024-11-06T00:00:00	7	Dirección del viento	9.66
4615	7	Sololá	701	Sololá	3	Barraneche	1	Enero	2023-01-25T00:00:00	2024-11-06T00:00:00	1	Precipitación	0
4616	7	Sololá	701	Sololá	3	Barraneche	1	Enero	2023-01-25T00:00:00	2024-11-06T00:00:00	8	Radiación solar	0
4617	7	Sololá	701	Sololá	3	Barraneche	1	Enero	2023-01-25T00:00:00	2024-11-06T01:00:00	2	Temperatura media	7.9
4618	7	Sololá	701	Sololá	3	Barraneche	1	Enero	2023-01-25T00:00:00	2024-11-06T01:00:00	4	Temperatura máxima	8.3
4619	7	Sololá	701	Sololá	3	Barraneche	1	Enero	2023-01-25T00:00:00	2024-11-06T01:00:00	3	Temperatura mínima	7.8
4620	7	Sololá	701	Sololá	3	Barraneche	1	Enero	2023-01-25T00:00:00	2024-11-06T01:00:00	5	Humedad	64
4621	7	Sololá	701	Sololá	3	Barraneche	1	Enero	2023-01-25T00:00:00	2024-11-06T01:00:00	6	Velocidad del viento	8
4622	7	Sololá	701	Sololá	3	Barraneche	1	Enero	2023-01-25T00:00:00	2024-11-06T01:00:00	7	Dirección del viento	8.05
4623	7	Sololá	701	Sololá	3	Barraneche	1	Enero	2023-01-25T00:00:00	2024-11-06T01:00:00	1	Precipitación	0
4624	7	Sololá	701	Sololá	3	Barraneche	1	Enero	2023-01-25T00:00:00	2024-11-06T01:00:00	8	Radiación solar	0
4625	7	Sololá	701	Sololá	3	Barraneche	1	Enero	2023-01-25T00:00:00	2024-11-06T02:00:00	2	Temperatura media	8.3
4626	7	Sololá	701	Sololá	3	Barraneche	1	Enero	2023-01-25T00:00:00	2024-11-06T02:00:00	4	Temperatura máxima	8.3
4627	7	Sololá	701	Sololá	3	Barraneche	1	Enero	2023-01-25T00:00:00	2024-11-06T02:00:00	3	Temperatura mínima	7.9
4628	7	Sololá	701	Sololá	3	Barraneche	1	Enero	2023-01-25T00:00:00	2024-11-06T02:00:00	5	Humedad	65
4629	7	Sololá	701	Sololá	3	Barraneche	1	Enero	2023-01-25T00:00:00	2024-11-06T02:00:00	6	Velocidad del viento	9.7
4630	7	Sololá	701	Sololá	3	Barraneche	1	Enero	2023-01-25T00:00:00	2024-11-06T02:00:00	7	Dirección del viento	9.66
4631	7	Sololá	701	Sololá	3	Barraneche	1	Enero	2023-01-25T00:00:00	2024-11-06T02:00:00	1	Precipitación	0
4632	7	Sololá	701	Sololá	3	Barraneche	1	Enero	2023-01-25T00:00:00	2024-11-06T02:00:00	8	Radiación solar	0
4633	7	Sololá	701	Sololá	3	Barraneche	1	Enero	2023-01-25T00:00:00	2024-11-06T03:00:00	2	Temperatura media	8
4634	7	Sololá	701	Sololá	3	Barraneche	1	Enero	2023-01-25T00:00:00	2024-11-06T03:00:00	4	Temperatura máxima	8.3
4635	7	Sololá	701	Sololá	3	Barraneche	1	Enero	2023-01-25T00:00:00	2024-11-06T03:00:00	3	Temperatura mínima	7.8
4636	7	Sololá	701	Sololá	3	Barraneche	1	Enero	2023-01-25T00:00:00	2024-11-06T03:00:00	5	Humedad	65
4637	7	Sololá	701	Sololá	3	Barraneche	1	Enero	2023-01-25T00:00:00	2024-11-06T03:00:00	6	Velocidad del viento	9.7
4638	7	Sololá	701	Sololá	3	Barraneche	1	Enero	2023-01-25T00:00:00	2024-11-06T03:00:00	7	Dirección del viento	9.66
4639	7	Sololá	701	Sololá	3	Barraneche	1	Enero	2023-01-25T00:00:00	2024-11-06T03:00:00	1	Precipitación	0
4640	7	Sololá	701	Sololá	3	Barraneche	1	Enero	2023-01-25T00:00:00	2024-11-06T03:00:00	8	Radiación solar	0
4641	7	Sololá	701	Sololá	3	Barraneche	1	Enero	2023-01-25T00:00:00	2024-11-06T04:00:00	2	Temperatura media	7.4
4642	7	Sololá	701	Sololá	3	Barraneche	1	Enero	2023-01-25T00:00:00	2024-11-06T04:00:00	4	Temperatura máxima	8
4643	7	Sololá	701	Sololá	3	Barraneche	1	Enero	2023-01-25T00:00:00	2024-11-06T04:00:00	3	Temperatura mínima	7.3
4644	7	Sololá	701	Sololá	3	Barraneche	1	Enero	2023-01-25T00:00:00	2024-11-06T04:00:00	5	Humedad	67
4645	7	Sololá	701	Sololá	3	Barraneche	1	Enero	2023-01-25T00:00:00	2024-11-06T04:00:00	6	Velocidad del viento	8
4646	7	Sololá	701	Sololá	3	Barraneche	1	Enero	2023-01-25T00:00:00	2024-11-06T04:00:00	7	Dirección del viento	8.05
4647	7	Sololá	701	Sololá	3	Barraneche	1	Enero	2023-01-25T00:00:00	2024-11-06T04:00:00	1	Precipitación	0
4648	7	Sololá	701	Sololá	3	Barraneche	1	Enero	2023-01-25T00:00:00	2024-11-06T04:00:00	8	Radiación solar	0
4649	7	Sololá	701	Sololá	3	Barraneche	1	Enero	2023-01-25T00:00:00	2024-11-06T05:00:00	2	Temperatura media	7.2
4650	7	Sololá	701	Sololá	3	Barraneche	1	Enero	2023-01-25T00:00:00	2024-11-06T05:00:00	4	Temperatura máxima	7.7
4651	7	Sololá	701	Sololá	3	Barraneche	1	Enero	2023-01-25T00:00:00	2024-11-06T05:00:00	3	Temperatura mínima	7.1
4652	7	Sololá	701	Sololá	3	Barraneche	1	Enero	2023-01-25T00:00:00	2024-11-06T05:00:00	5	Humedad	62
4653	7	Sololá	701	Sololá	3	Barraneche	1	Enero	2023-01-25T00:00:00	2024-11-06T05:00:00	6	Velocidad del viento	6.4
4654	7	Sololá	701	Sololá	3	Barraneche	1	Enero	2023-01-25T00:00:00	2024-11-06T05:00:00	7	Dirección del viento	6.44
4655	7	Sololá	701	Sololá	3	Barraneche	1	Enero	2023-01-25T00:00:00	2024-11-06T05:00:00	1	Precipitación	0
4656	7	Sololá	701	Sololá	3	Barraneche	1	Enero	2023-01-25T00:00:00	2024-11-06T05:00:00	8	Radiación solar	0
4657	7	Sololá	701	Sololá	3	Barraneche	1	Enero	2023-01-25T00:00:00	2024-11-06T06:00:00	2	Temperatura media	7.1
4658	7	Sololá	701	Sololá	3	Barraneche	1	Enero	2023-01-25T00:00:00	2024-11-06T06:00:00	4	Temperatura máxima	7.3
4659	7	Sololá	701	Sololá	3	Barraneche	1	Enero	2023-01-25T00:00:00	2024-11-06T06:00:00	3	Temperatura mínima	6.7
4660	7	Sololá	701	Sololá	3	Barraneche	1	Enero	2023-01-25T00:00:00	2024-11-06T06:00:00	5	Humedad	61
4661	7	Sololá	701	Sololá	3	Barraneche	1	Enero	2023-01-25T00:00:00	2024-11-06T06:00:00	6	Velocidad del viento	9.7
4662	7	Sololá	701	Sololá	3	Barraneche	1	Enero	2023-01-25T00:00:00	2024-11-06T06:00:00	7	Dirección del viento	9.66
4663	7	Sololá	701	Sololá	3	Barraneche	1	Enero	2023-01-25T00:00:00	2024-11-06T06:00:00	1	Precipitación	0
4664	7	Sololá	701	Sololá	3	Barraneche	1	Enero	2023-01-25T00:00:00	2024-11-06T06:00:00	8	Radiación solar	0
4665	7	Sololá	701	Sololá	3	Barraneche	1	Enero	2023-01-25T00:00:00	2024-11-06T07:00:00	2	Temperatura media	6.9
4666	7	Sololá	701	Sololá	3	Barraneche	1	Enero	2023-01-25T00:00:00	2024-11-06T07:00:00	4	Temperatura máxima	7.3
4667	7	Sololá	701	Sololá	3	Barraneche	1	Enero	2023-01-25T00:00:00	2024-11-06T07:00:00	3	Temperatura mínima	6.4
4668	7	Sololá	701	Sololá	3	Barraneche	1	Enero	2023-01-25T00:00:00	2024-11-06T07:00:00	5	Humedad	61
4669	7	Sololá	701	Sololá	3	Barraneche	1	Enero	2023-01-25T00:00:00	2024-11-06T07:00:00	6	Velocidad del viento	8
4670	7	Sololá	701	Sololá	3	Barraneche	1	Enero	2023-01-25T00:00:00	2024-11-06T07:00:00	7	Dirección del viento	8.05
4671	7	Sololá	701	Sololá	3	Barraneche	1	Enero	2023-01-25T00:00:00	2024-11-06T07:00:00	1	Precipitación	0
4672	7	Sololá	701	Sololá	3	Barraneche	1	Enero	2023-01-25T00:00:00	2024-11-06T07:00:00	8	Radiación solar	5
4673	7	Sololá	701	Sololá	3	Barraneche	1	Enero	2023-01-25T00:00:00	2024-11-06T08:00:00	2	Temperatura media	11.2
4674	7	Sololá	701	Sololá	3	Barraneche	1	Enero	2023-01-25T00:00:00	2024-11-06T08:00:00	4	Temperatura máxima	11.2
4675	7	Sololá	701	Sololá	3	Barraneche	1	Enero	2023-01-25T00:00:00	2024-11-06T08:00:00	3	Temperatura mínima	6.8
4676	7	Sololá	701	Sololá	3	Barraneche	1	Enero	2023-01-25T00:00:00	2024-11-06T08:00:00	5	Humedad	58
4677	7	Sololá	701	Sololá	3	Barraneche	1	Enero	2023-01-25T00:00:00	2024-11-06T08:00:00	6	Velocidad del viento	6.4
4678	7	Sololá	701	Sololá	3	Barraneche	1	Enero	2023-01-25T00:00:00	2024-11-06T08:00:00	7	Dirección del viento	6.44
4679	7	Sololá	701	Sololá	3	Barraneche	1	Enero	2023-01-25T00:00:00	2024-11-06T08:00:00	1	Precipitación	0
4680	7	Sololá	701	Sololá	3	Barraneche	1	Enero	2023-01-25T00:00:00	2024-11-06T08:00:00	8	Radiación solar	145
4681	7	Sololá	701	Sololá	3	Barraneche	1	Enero	2023-01-25T00:00:00	2024-11-06T09:00:00	2	Temperatura media	14.5
4682	7	Sololá	701	Sololá	3	Barraneche	1	Enero	2023-01-25T00:00:00	2024-11-06T09:00:00	4	Temperatura máxima	14.6
4683	7	Sololá	701	Sololá	3	Barraneche	1	Enero	2023-01-25T00:00:00	2024-11-06T09:00:00	3	Temperatura mínima	11.2
4684	7	Sololá	701	Sololá	3	Barraneche	1	Enero	2023-01-25T00:00:00	2024-11-06T09:00:00	5	Humedad	50
4685	7	Sololá	701	Sololá	3	Barraneche	1	Enero	2023-01-25T00:00:00	2024-11-06T09:00:00	6	Velocidad del viento	4.8
4686	7	Sololá	701	Sololá	3	Barraneche	1	Enero	2023-01-25T00:00:00	2024-11-06T09:00:00	7	Dirección del viento	4.83
4687	7	Sololá	701	Sololá	3	Barraneche	1	Enero	2023-01-25T00:00:00	2024-11-06T09:00:00	1	Precipitación	0
4688	7	Sololá	701	Sololá	3	Barraneche	1	Enero	2023-01-25T00:00:00	2024-11-06T09:00:00	8	Radiación solar	402
4689	7	Sololá	701	Sololá	3	Barraneche	1	Enero	2023-01-25T00:00:00	2024-11-06T10:00:00	2	Temperatura media	16.7
4690	7	Sololá	701	Sololá	3	Barraneche	1	Enero	2023-01-25T00:00:00	2024-11-06T10:00:00	4	Temperatura máxima	16.8
4691	7	Sololá	701	Sololá	3	Barraneche	1	Enero	2023-01-25T00:00:00	2024-11-06T10:00:00	3	Temperatura mínima	14.6
4692	7	Sololá	701	Sololá	3	Barraneche	1	Enero	2023-01-25T00:00:00	2024-11-06T10:00:00	5	Humedad	43
4693	7	Sololá	701	Sololá	3	Barraneche	1	Enero	2023-01-25T00:00:00	2024-11-06T10:00:00	6	Velocidad del viento	6.4
4694	7	Sololá	701	Sololá	3	Barraneche	1	Enero	2023-01-25T00:00:00	2024-11-06T10:00:00	7	Dirección del viento	6.44
4695	7	Sololá	701	Sololá	3	Barraneche	1	Enero	2023-01-25T00:00:00	2024-11-06T10:00:00	1	Precipitación	0
4696	7	Sololá	701	Sololá	3	Barraneche	1	Enero	2023-01-25T00:00:00	2024-11-06T10:00:00	8	Radiación solar	614
4697	7	Sololá	701	Sololá	3	Barraneche	1	Enero	2023-01-25T00:00:00	2024-11-06T11:00:00	2	Temperatura media	17.4
4698	7	Sololá	701	Sololá	3	Barraneche	1	Enero	2023-01-25T00:00:00	2024-11-06T11:00:00	4	Temperatura máxima	17.8
4699	7	Sololá	701	Sololá	3	Barraneche	1	Enero	2023-01-25T00:00:00	2024-11-06T11:00:00	3	Temperatura mínima	16.7
4700	7	Sololá	701	Sololá	3	Barraneche	1	Enero	2023-01-25T00:00:00	2024-11-06T11:00:00	5	Humedad	47
4701	7	Sololá	701	Sololá	3	Barraneche	1	Enero	2023-01-25T00:00:00	2024-11-06T11:00:00	6	Velocidad del viento	8
4702	7	Sololá	701	Sololá	3	Barraneche	1	Enero	2023-01-25T00:00:00	2024-11-06T11:00:00	7	Dirección del viento	8.05
4703	7	Sololá	701	Sololá	3	Barraneche	1	Enero	2023-01-25T00:00:00	2024-11-06T11:00:00	1	Precipitación	0
4704	7	Sololá	701	Sololá	3	Barraneche	1	Enero	2023-01-25T00:00:00	2024-11-06T11:00:00	8	Radiación solar	761
4705	7	Sololá	701	Sololá	3	Barraneche	1	Enero	2023-01-25T00:00:00	2024-11-06T12:00:00	2	Temperatura media	18.1
4706	7	Sololá	701	Sololá	3	Barraneche	1	Enero	2023-01-25T00:00:00	2024-11-06T12:00:00	4	Temperatura máxima	18.1
4707	7	Sololá	701	Sololá	3	Barraneche	1	Enero	2023-01-25T00:00:00	2024-11-06T12:00:00	3	Temperatura mínima	17.2
4708	7	Sololá	701	Sololá	3	Barraneche	1	Enero	2023-01-25T00:00:00	2024-11-06T12:00:00	5	Humedad	43
4709	7	Sololá	701	Sololá	3	Barraneche	1	Enero	2023-01-25T00:00:00	2024-11-06T12:00:00	6	Velocidad del viento	12.9
4710	7	Sololá	701	Sololá	3	Barraneche	1	Enero	2023-01-25T00:00:00	2024-11-06T12:00:00	7	Dirección del viento	12.87
4711	7	Sololá	701	Sololá	3	Barraneche	1	Enero	2023-01-25T00:00:00	2024-11-06T12:00:00	1	Precipitación	0
4712	7	Sololá	701	Sololá	3	Barraneche	1	Enero	2023-01-25T00:00:00	2024-11-06T12:00:00	8	Radiación solar	850
4713	7	Sololá	701	Sololá	3	Barraneche	1	Enero	2023-01-25T00:00:00	2024-11-06T13:00:00	2	Temperatura media	17.6
4714	7	Sololá	701	Sololá	3	Barraneche	1	Enero	2023-01-25T00:00:00	2024-11-06T13:00:00	4	Temperatura máxima	18.1
4715	7	Sololá	701	Sololá	3	Barraneche	1	Enero	2023-01-25T00:00:00	2024-11-06T13:00:00	3	Temperatura mínima	17.4
4716	7	Sololá	701	Sololá	3	Barraneche	1	Enero	2023-01-25T00:00:00	2024-11-06T13:00:00	5	Humedad	53
4717	7	Sololá	701	Sololá	3	Barraneche	1	Enero	2023-01-25T00:00:00	2024-11-06T13:00:00	6	Velocidad del viento	14.5
4718	7	Sololá	701	Sololá	3	Barraneche	1	Enero	2023-01-25T00:00:00	2024-11-06T13:00:00	7	Dirección del viento	14.48
4719	7	Sololá	701	Sololá	3	Barraneche	1	Enero	2023-01-25T00:00:00	2024-11-06T13:00:00	1	Precipitación	0
4720	7	Sololá	701	Sololá	3	Barraneche	1	Enero	2023-01-25T00:00:00	2024-11-06T13:00:00	8	Radiación solar	868
4721	7	Sololá	701	Sololá	3	Barraneche	1	Enero	2023-01-25T00:00:00	2024-11-06T14:00:00	2	Temperatura media	18.1
4722	7	Sololá	701	Sololá	3	Barraneche	1	Enero	2023-01-25T00:00:00	2024-11-06T14:00:00	4	Temperatura máxima	18.2
4723	7	Sololá	701	Sololá	3	Barraneche	1	Enero	2023-01-25T00:00:00	2024-11-06T14:00:00	3	Temperatura mínima	17.6
4724	7	Sololá	701	Sololá	3	Barraneche	1	Enero	2023-01-25T00:00:00	2024-11-06T14:00:00	5	Humedad	54
4725	7	Sololá	701	Sololá	3	Barraneche	1	Enero	2023-01-25T00:00:00	2024-11-06T14:00:00	6	Velocidad del viento	12.9
4726	7	Sololá	701	Sololá	3	Barraneche	1	Enero	2023-01-25T00:00:00	2024-11-06T14:00:00	7	Dirección del viento	12.87
4727	7	Sololá	701	Sololá	3	Barraneche	1	Enero	2023-01-25T00:00:00	2024-11-06T14:00:00	1	Precipitación	0
4728	7	Sololá	701	Sololá	3	Barraneche	1	Enero	2023-01-25T00:00:00	2024-11-06T14:00:00	8	Radiación solar	828
4729	7	Sololá	701	Sololá	3	Barraneche	1	Enero	2023-01-25T00:00:00	2024-11-06T15:00:00	2	Temperatura media	18.3
4730	7	Sololá	701	Sololá	3	Barraneche	1	Enero	2023-01-25T00:00:00	2024-11-06T15:00:00	4	Temperatura máxima	18.4
4731	7	Sololá	701	Sololá	3	Barraneche	1	Enero	2023-01-25T00:00:00	2024-11-06T15:00:00	3	Temperatura mínima	17.8
4732	7	Sololá	701	Sololá	3	Barraneche	1	Enero	2023-01-25T00:00:00	2024-11-06T15:00:00	5	Humedad	53
4733	7	Sololá	701	Sololá	3	Barraneche	1	Enero	2023-01-25T00:00:00	2024-11-06T15:00:00	6	Velocidad del viento	12.9
4734	7	Sololá	701	Sololá	3	Barraneche	1	Enero	2023-01-25T00:00:00	2024-11-06T15:00:00	7	Dirección del viento	12.87
4735	7	Sololá	701	Sololá	3	Barraneche	1	Enero	2023-01-25T00:00:00	2024-11-06T15:00:00	1	Precipitación	0
4736	7	Sololá	701	Sololá	3	Barraneche	1	Enero	2023-01-25T00:00:00	2024-11-06T15:00:00	8	Radiación solar	734
4737	7	Sololá	701	Sololá	3	Barraneche	1	Enero	2023-01-25T00:00:00	2024-11-06T16:00:00	2	Temperatura media	17.6
4738	7	Sololá	701	Sololá	3	Barraneche	1	Enero	2023-01-25T00:00:00	2024-11-06T16:00:00	4	Temperatura máxima	18.4
4739	7	Sololá	701	Sololá	3	Barraneche	1	Enero	2023-01-25T00:00:00	2024-11-06T16:00:00	3	Temperatura mínima	17.5
4740	7	Sololá	701	Sololá	3	Barraneche	1	Enero	2023-01-25T00:00:00	2024-11-06T16:00:00	5	Humedad	60
4741	7	Sololá	701	Sololá	3	Barraneche	1	Enero	2023-01-25T00:00:00	2024-11-06T16:00:00	6	Velocidad del viento	12.9
4742	7	Sololá	701	Sololá	3	Barraneche	1	Enero	2023-01-25T00:00:00	2024-11-06T16:00:00	7	Dirección del viento	12.87
4743	7	Sololá	701	Sololá	3	Barraneche	1	Enero	2023-01-25T00:00:00	2024-11-06T16:00:00	1	Precipitación	0
4744	7	Sololá	701	Sololá	3	Barraneche	1	Enero	2023-01-25T00:00:00	2024-11-06T16:00:00	8	Radiación solar	572
4745	7	Sololá	701	Sololá	3	Barraneche	1	Enero	2023-01-25T00:00:00	2024-11-06T17:00:00	2	Temperatura media	16.2
4746	7	Sololá	701	Sololá	3	Barraneche	1	Enero	2023-01-25T00:00:00	2024-11-06T17:00:00	4	Temperatura máxima	17.5
4747	7	Sololá	701	Sololá	3	Barraneche	1	Enero	2023-01-25T00:00:00	2024-11-06T17:00:00	3	Temperatura mínima	16.2
4748	7	Sololá	701	Sololá	3	Barraneche	1	Enero	2023-01-25T00:00:00	2024-11-06T17:00:00	5	Humedad	68
4749	7	Sololá	701	Sololá	3	Barraneche	1	Enero	2023-01-25T00:00:00	2024-11-06T17:00:00	6	Velocidad del viento	11.3
4750	7	Sololá	701	Sololá	3	Barraneche	1	Enero	2023-01-25T00:00:00	2024-11-06T17:00:00	7	Dirección del viento	11.27
4751	7	Sololá	701	Sololá	3	Barraneche	1	Enero	2023-01-25T00:00:00	2024-11-06T17:00:00	1	Precipitación	0
4752	7	Sololá	701	Sololá	3	Barraneche	1	Enero	2023-01-25T00:00:00	2024-11-06T17:00:00	8	Radiación solar	214
4753	7	Sololá	701	Sololá	3	Barraneche	1	Enero	2023-01-25T00:00:00	2024-11-06T18:00:00	2	Temperatura media	15.8
4754	7	Sololá	701	Sololá	3	Barraneche	1	Enero	2023-01-25T00:00:00	2024-11-06T18:00:00	4	Temperatura máxima	16.4
4755	7	Sololá	701	Sololá	3	Barraneche	1	Enero	2023-01-25T00:00:00	2024-11-06T18:00:00	3	Temperatura mínima	15.6
4756	7	Sololá	701	Sololá	3	Barraneche	1	Enero	2023-01-25T00:00:00	2024-11-06T18:00:00	5	Humedad	41
4757	7	Sololá	701	Sololá	3	Barraneche	1	Enero	2023-01-25T00:00:00	2024-11-06T18:00:00	6	Velocidad del viento	9.7
4758	7	Sololá	701	Sololá	3	Barraneche	1	Enero	2023-01-25T00:00:00	2024-11-06T18:00:00	7	Dirección del viento	9.66
4759	7	Sololá	701	Sololá	3	Barraneche	1	Enero	2023-01-25T00:00:00	2024-11-06T18:00:00	1	Precipitación	0
4760	7	Sololá	701	Sololá	3	Barraneche	1	Enero	2023-01-25T00:00:00	2024-11-06T18:00:00	8	Radiación solar	45
4761	7	Sololá	701	Sololá	3	Barraneche	1	Enero	2023-01-25T00:00:00	2024-11-06T19:00:00	2	Temperatura media	14.4
4762	7	Sololá	701	Sololá	3	Barraneche	1	Enero	2023-01-25T00:00:00	2024-11-06T19:00:00	4	Temperatura máxima	15.8
4763	7	Sololá	701	Sololá	3	Barraneche	1	Enero	2023-01-25T00:00:00	2024-11-06T19:00:00	3	Temperatura mínima	14.4
4764	7	Sololá	701	Sololá	3	Barraneche	1	Enero	2023-01-25T00:00:00	2024-11-06T19:00:00	5	Humedad	33
4765	7	Sololá	701	Sololá	3	Barraneche	1	Enero	2023-01-25T00:00:00	2024-11-06T19:00:00	6	Velocidad del viento	9.7
4766	7	Sololá	701	Sololá	3	Barraneche	1	Enero	2023-01-25T00:00:00	2024-11-06T19:00:00	7	Dirección del viento	9.66
4767	7	Sololá	701	Sololá	3	Barraneche	1	Enero	2023-01-25T00:00:00	2024-11-06T19:00:00	1	Precipitación	0
4768	7	Sololá	701	Sololá	3	Barraneche	1	Enero	2023-01-25T00:00:00	2024-11-06T19:00:00	8	Radiación solar	0
4769	7	Sololá	701	Sololá	3	Barraneche	1	Enero	2023-01-25T00:00:00	2024-11-06T20:00:00	2	Temperatura media	13.7
4770	7	Sololá	701	Sololá	3	Barraneche	1	Enero	2023-01-25T00:00:00	2024-11-06T20:00:00	4	Temperatura máxima	14.6
4771	7	Sololá	701	Sololá	3	Barraneche	1	Enero	2023-01-25T00:00:00	2024-11-06T20:00:00	3	Temperatura mínima	13.7
4772	7	Sololá	701	Sololá	3	Barraneche	1	Enero	2023-01-25T00:00:00	2024-11-06T20:00:00	5	Humedad	39
4773	7	Sololá	701	Sololá	3	Barraneche	1	Enero	2023-01-25T00:00:00	2024-11-06T20:00:00	6	Velocidad del viento	14.5
4774	7	Sololá	701	Sololá	3	Barraneche	1	Enero	2023-01-25T00:00:00	2024-11-06T20:00:00	7	Dirección del viento	14.48
4775	7	Sololá	701	Sololá	3	Barraneche	1	Enero	2023-01-25T00:00:00	2024-11-06T20:00:00	1	Precipitación	0
4776	7	Sololá	701	Sololá	3	Barraneche	1	Enero	2023-01-25T00:00:00	2024-11-06T20:00:00	8	Radiación solar	0
4777	7	Sololá	701	Sololá	3	Barraneche	1	Enero	2023-01-25T00:00:00	2024-11-06T21:00:00	2	Temperatura media	13.1
4778	7	Sololá	701	Sololá	3	Barraneche	1	Enero	2023-01-25T00:00:00	2024-11-06T21:00:00	4	Temperatura máxima	13.9
4779	7	Sololá	701	Sololá	3	Barraneche	1	Enero	2023-01-25T00:00:00	2024-11-06T21:00:00	3	Temperatura mínima	13.1
4780	7	Sololá	701	Sololá	3	Barraneche	1	Enero	2023-01-25T00:00:00	2024-11-06T21:00:00	5	Humedad	40
4781	7	Sololá	701	Sololá	3	Barraneche	1	Enero	2023-01-25T00:00:00	2024-11-06T21:00:00	6	Velocidad del viento	11.3
4782	7	Sololá	701	Sololá	3	Barraneche	1	Enero	2023-01-25T00:00:00	2024-11-06T21:00:00	7	Dirección del viento	11.27
4783	7	Sololá	701	Sololá	3	Barraneche	1	Enero	2023-01-25T00:00:00	2024-11-06T21:00:00	1	Precipitación	0
4784	7	Sololá	701	Sololá	3	Barraneche	1	Enero	2023-01-25T00:00:00	2024-11-06T21:00:00	8	Radiación solar	0
4785	7	Sololá	701	Sololá	3	Barraneche	1	Enero	2023-01-25T00:00:00	2024-11-06T22:00:00	2	Temperatura media	12.9
4786	7	Sololá	701	Sololá	3	Barraneche	1	Enero	2023-01-25T00:00:00	2024-11-06T22:00:00	4	Temperatura máxima	13.1
4787	7	Sololá	701	Sololá	3	Barraneche	1	Enero	2023-01-25T00:00:00	2024-11-06T22:00:00	3	Temperatura mínima	12.4
4788	7	Sololá	701	Sololá	3	Barraneche	1	Enero	2023-01-25T00:00:00	2024-11-06T22:00:00	5	Humedad	42
4789	7	Sololá	701	Sololá	3	Barraneche	1	Enero	2023-01-25T00:00:00	2024-11-06T22:00:00	6	Velocidad del viento	6.4
4790	7	Sololá	701	Sololá	3	Barraneche	1	Enero	2023-01-25T00:00:00	2024-11-06T22:00:00	7	Dirección del viento	6.44
4791	7	Sololá	701	Sololá	3	Barraneche	1	Enero	2023-01-25T00:00:00	2024-11-06T22:00:00	1	Precipitación	0
4792	7	Sololá	701	Sololá	3	Barraneche	1	Enero	2023-01-25T00:00:00	2024-11-06T22:00:00	8	Radiación solar	0
4793	7	Sololá	701	Sololá	3	Barraneche	1	Enero	2023-01-25T00:00:00	2024-11-06T23:00:00	2	Temperatura media	12.3
4794	7	Sololá	701	Sololá	3	Barraneche	1	Enero	2023-01-25T00:00:00	2024-11-06T23:00:00	4	Temperatura máxima	12.9
4795	7	Sololá	701	Sololá	3	Barraneche	1	Enero	2023-01-25T00:00:00	2024-11-06T23:00:00	3	Temperatura mínima	12.3
4796	7	Sololá	701	Sololá	3	Barraneche	1	Enero	2023-01-25T00:00:00	2024-11-06T23:00:00	5	Humedad	55
4797	7	Sololá	701	Sololá	3	Barraneche	1	Enero	2023-01-25T00:00:00	2024-11-06T23:00:00	6	Velocidad del viento	11.3
4798	7	Sololá	701	Sololá	3	Barraneche	1	Enero	2023-01-25T00:00:00	2024-11-06T23:00:00	7	Dirección del viento	11.27
4799	7	Sololá	701	Sololá	3	Barraneche	1	Enero	2023-01-25T00:00:00	2024-11-06T23:00:00	1	Precipitación	0
4800	7	Sololá	701	Sololá	3	Barraneche	1	Enero	2023-01-25T00:00:00	2024-11-06T23:00:00	8	Radiación solar	0
4801	7	Sololá	701	Sololá	3	Barraneche	1	Enero	2023-01-26T00:00:00	2024-11-06T00:00:00	2	Temperatura media	11.8
4802	7	Sololá	701	Sololá	3	Barraneche	1	Enero	2023-01-26T00:00:00	2024-11-06T00:00:00	4	Temperatura máxima	12.3
4803	7	Sololá	701	Sololá	3	Barraneche	1	Enero	2023-01-26T00:00:00	2024-11-06T00:00:00	3	Temperatura mínima	11.8
4804	7	Sololá	701	Sololá	3	Barraneche	1	Enero	2023-01-26T00:00:00	2024-11-06T00:00:00	5	Humedad	61
4805	7	Sololá	701	Sololá	3	Barraneche	1	Enero	2023-01-26T00:00:00	2024-11-06T00:00:00	6	Velocidad del viento	11.3
4806	7	Sololá	701	Sololá	3	Barraneche	1	Enero	2023-01-26T00:00:00	2024-11-06T00:00:00	7	Dirección del viento	11.27
4807	7	Sololá	701	Sololá	3	Barraneche	1	Enero	2023-01-26T00:00:00	2024-11-06T00:00:00	1	Precipitación	0
4808	7	Sololá	701	Sololá	3	Barraneche	1	Enero	2023-01-26T00:00:00	2024-11-06T00:00:00	8	Radiación solar	0
4809	7	Sololá	701	Sololá	3	Barraneche	1	Enero	2023-01-26T00:00:00	2024-11-06T01:00:00	2	Temperatura media	11.8
4810	7	Sololá	701	Sololá	3	Barraneche	1	Enero	2023-01-26T00:00:00	2024-11-06T01:00:00	4	Temperatura máxima	11.9
4811	7	Sololá	701	Sololá	3	Barraneche	1	Enero	2023-01-26T00:00:00	2024-11-06T01:00:00	3	Temperatura mínima	11.6
4812	7	Sololá	701	Sololá	3	Barraneche	1	Enero	2023-01-26T00:00:00	2024-11-06T01:00:00	5	Humedad	58
4813	7	Sololá	701	Sololá	3	Barraneche	1	Enero	2023-01-26T00:00:00	2024-11-06T01:00:00	6	Velocidad del viento	14.5
4814	7	Sololá	701	Sololá	3	Barraneche	1	Enero	2023-01-26T00:00:00	2024-11-06T01:00:00	7	Dirección del viento	14.48
4815	7	Sololá	701	Sololá	3	Barraneche	1	Enero	2023-01-26T00:00:00	2024-11-06T01:00:00	1	Precipitación	0
4816	7	Sololá	701	Sololá	3	Barraneche	1	Enero	2023-01-26T00:00:00	2024-11-06T01:00:00	8	Radiación solar	0
4817	7	Sololá	701	Sololá	3	Barraneche	1	Enero	2023-01-26T00:00:00	2024-11-06T02:00:00	2	Temperatura media	11.8
4818	7	Sololá	701	Sololá	3	Barraneche	1	Enero	2023-01-26T00:00:00	2024-11-06T02:00:00	4	Temperatura máxima	11.9
4819	7	Sololá	701	Sololá	3	Barraneche	1	Enero	2023-01-26T00:00:00	2024-11-06T02:00:00	3	Temperatura mínima	11.6
4820	7	Sololá	701	Sololá	3	Barraneche	1	Enero	2023-01-26T00:00:00	2024-11-06T02:00:00	5	Humedad	60
4821	7	Sololá	701	Sololá	3	Barraneche	1	Enero	2023-01-26T00:00:00	2024-11-06T02:00:00	6	Velocidad del viento	17.7
4822	7	Sololá	701	Sololá	3	Barraneche	1	Enero	2023-01-26T00:00:00	2024-11-06T02:00:00	7	Dirección del viento	17.7
4823	7	Sololá	701	Sololá	3	Barraneche	1	Enero	2023-01-26T00:00:00	2024-11-06T02:00:00	1	Precipitación	0
4824	7	Sololá	701	Sololá	3	Barraneche	1	Enero	2023-01-26T00:00:00	2024-11-06T02:00:00	8	Radiación solar	0
4825	7	Sololá	701	Sololá	3	Barraneche	1	Enero	2023-01-26T00:00:00	2024-11-06T03:00:00	2	Temperatura media	11.7
4826	7	Sololá	701	Sololá	3	Barraneche	1	Enero	2023-01-26T00:00:00	2024-11-06T03:00:00	4	Temperatura máxima	11.9
4827	7	Sololá	701	Sololá	3	Barraneche	1	Enero	2023-01-26T00:00:00	2024-11-06T03:00:00	3	Temperatura mínima	11.6
4828	7	Sololá	701	Sololá	3	Barraneche	1	Enero	2023-01-26T00:00:00	2024-11-06T03:00:00	5	Humedad	60
4829	7	Sololá	701	Sololá	3	Barraneche	1	Enero	2023-01-26T00:00:00	2024-11-06T03:00:00	6	Velocidad del viento	20.9
4830	7	Sololá	701	Sololá	3	Barraneche	1	Enero	2023-01-26T00:00:00	2024-11-06T03:00:00	7	Dirección del viento	20.92
4831	7	Sololá	701	Sololá	3	Barraneche	1	Enero	2023-01-26T00:00:00	2024-11-06T03:00:00	1	Precipitación	0
4832	7	Sololá	701	Sololá	3	Barraneche	1	Enero	2023-01-26T00:00:00	2024-11-06T03:00:00	8	Radiación solar	0
4833	7	Sololá	701	Sololá	3	Barraneche	1	Enero	2023-01-26T00:00:00	2024-11-06T04:00:00	2	Temperatura media	11.7
4834	7	Sololá	701	Sololá	3	Barraneche	1	Enero	2023-01-26T00:00:00	2024-11-06T04:00:00	4	Temperatura máxima	12.1
4835	7	Sololá	701	Sololá	3	Barraneche	1	Enero	2023-01-26T00:00:00	2024-11-06T04:00:00	3	Temperatura mínima	11.7
4836	7	Sololá	701	Sololá	3	Barraneche	1	Enero	2023-01-26T00:00:00	2024-11-06T04:00:00	5	Humedad	61
4837	7	Sololá	701	Sololá	3	Barraneche	1	Enero	2023-01-26T00:00:00	2024-11-06T04:00:00	6	Velocidad del viento	19.3
4838	7	Sololá	701	Sololá	3	Barraneche	1	Enero	2023-01-26T00:00:00	2024-11-06T04:00:00	7	Dirección del viento	19.31
4839	7	Sololá	701	Sololá	3	Barraneche	1	Enero	2023-01-26T00:00:00	2024-11-06T04:00:00	1	Precipitación	0
4840	7	Sololá	701	Sololá	3	Barraneche	1	Enero	2023-01-26T00:00:00	2024-11-06T04:00:00	8	Radiación solar	0
4841	7	Sololá	701	Sololá	3	Barraneche	1	Enero	2023-01-26T00:00:00	2024-11-06T05:00:00	2	Temperatura media	11.9
4842	7	Sololá	701	Sololá	3	Barraneche	1	Enero	2023-01-26T00:00:00	2024-11-06T05:00:00	4	Temperatura máxima	12
4843	7	Sololá	701	Sololá	3	Barraneche	1	Enero	2023-01-26T00:00:00	2024-11-06T05:00:00	3	Temperatura mínima	11.5
4844	7	Sololá	701	Sololá	3	Barraneche	1	Enero	2023-01-26T00:00:00	2024-11-06T05:00:00	5	Humedad	62
4845	7	Sololá	701	Sololá	3	Barraneche	1	Enero	2023-01-26T00:00:00	2024-11-06T05:00:00	6	Velocidad del viento	20.9
4846	7	Sololá	701	Sololá	3	Barraneche	1	Enero	2023-01-26T00:00:00	2024-11-06T05:00:00	7	Dirección del viento	20.92
4847	7	Sololá	701	Sololá	3	Barraneche	1	Enero	2023-01-26T00:00:00	2024-11-06T05:00:00	1	Precipitación	0
4848	7	Sololá	701	Sololá	3	Barraneche	1	Enero	2023-01-26T00:00:00	2024-11-06T05:00:00	8	Radiación solar	0
4849	7	Sololá	701	Sololá	3	Barraneche	1	Enero	2023-01-26T00:00:00	2024-11-06T06:00:00	2	Temperatura media	12
4850	7	Sololá	701	Sololá	3	Barraneche	1	Enero	2023-01-26T00:00:00	2024-11-06T06:00:00	4	Temperatura máxima	12.1
4851	7	Sololá	701	Sololá	3	Barraneche	1	Enero	2023-01-26T00:00:00	2024-11-06T06:00:00	3	Temperatura mínima	11.8
4852	7	Sololá	701	Sololá	3	Barraneche	1	Enero	2023-01-26T00:00:00	2024-11-06T06:00:00	5	Humedad	61
4853	7	Sololá	701	Sololá	3	Barraneche	1	Enero	2023-01-26T00:00:00	2024-11-06T06:00:00	6	Velocidad del viento	22.5
4854	7	Sololá	701	Sololá	3	Barraneche	1	Enero	2023-01-26T00:00:00	2024-11-06T06:00:00	7	Dirección del viento	22.53
4855	7	Sololá	701	Sololá	3	Barraneche	1	Enero	2023-01-26T00:00:00	2024-11-06T06:00:00	1	Precipitación	0
4856	7	Sololá	701	Sololá	3	Barraneche	1	Enero	2023-01-26T00:00:00	2024-11-06T06:00:00	8	Radiación solar	0
4857	7	Sololá	701	Sololá	3	Barraneche	1	Enero	2023-01-26T00:00:00	2024-11-06T07:00:00	2	Temperatura media	12.3
4858	7	Sololá	701	Sololá	3	Barraneche	1	Enero	2023-01-26T00:00:00	2024-11-06T07:00:00	4	Temperatura máxima	12.3
4859	7	Sololá	701	Sololá	3	Barraneche	1	Enero	2023-01-26T00:00:00	2024-11-06T07:00:00	3	Temperatura mínima	11.9
4860	7	Sololá	701	Sololá	3	Barraneche	1	Enero	2023-01-26T00:00:00	2024-11-06T07:00:00	5	Humedad	60
4861	7	Sololá	701	Sololá	3	Barraneche	1	Enero	2023-01-26T00:00:00	2024-11-06T07:00:00	6	Velocidad del viento	19.3
4862	7	Sololá	701	Sololá	3	Barraneche	1	Enero	2023-01-26T00:00:00	2024-11-06T07:00:00	7	Dirección del viento	19.31
4863	7	Sololá	701	Sololá	3	Barraneche	1	Enero	2023-01-26T00:00:00	2024-11-06T07:00:00	1	Precipitación	0
4864	7	Sololá	701	Sololá	3	Barraneche	1	Enero	2023-01-26T00:00:00	2024-11-06T07:00:00	8	Radiación solar	5
4865	7	Sololá	701	Sololá	3	Barraneche	1	Enero	2023-01-26T00:00:00	2024-11-06T08:00:00	2	Temperatura media	13.7
4866	7	Sololá	701	Sololá	3	Barraneche	1	Enero	2023-01-26T00:00:00	2024-11-06T08:00:00	4	Temperatura máxima	13.7
4867	7	Sololá	701	Sololá	3	Barraneche	1	Enero	2023-01-26T00:00:00	2024-11-06T08:00:00	3	Temperatura mínima	12.2
4868	7	Sololá	701	Sololá	3	Barraneche	1	Enero	2023-01-26T00:00:00	2024-11-06T08:00:00	5	Humedad	57
4869	7	Sololá	701	Sololá	3	Barraneche	1	Enero	2023-01-26T00:00:00	2024-11-06T08:00:00	6	Velocidad del viento	19.3
4870	7	Sololá	701	Sololá	3	Barraneche	1	Enero	2023-01-26T00:00:00	2024-11-06T08:00:00	7	Dirección del viento	19.31
4871	7	Sololá	701	Sololá	3	Barraneche	1	Enero	2023-01-26T00:00:00	2024-11-06T08:00:00	1	Precipitación	0
4872	7	Sololá	701	Sololá	3	Barraneche	1	Enero	2023-01-26T00:00:00	2024-11-06T08:00:00	8	Radiación solar	145
4873	7	Sololá	701	Sololá	3	Barraneche	1	Enero	2023-01-26T00:00:00	2024-11-06T09:00:00	2	Temperatura media	15.2
4874	7	Sololá	701	Sololá	3	Barraneche	1	Enero	2023-01-26T00:00:00	2024-11-06T09:00:00	4	Temperatura máxima	15.2
4875	7	Sololá	701	Sololá	3	Barraneche	1	Enero	2023-01-26T00:00:00	2024-11-06T09:00:00	3	Temperatura mínima	13.7
4876	7	Sololá	701	Sololá	3	Barraneche	1	Enero	2023-01-26T00:00:00	2024-11-06T09:00:00	5	Humedad	53
4877	7	Sololá	701	Sololá	3	Barraneche	1	Enero	2023-01-26T00:00:00	2024-11-06T09:00:00	6	Velocidad del viento	17.7
4878	7	Sololá	701	Sololá	3	Barraneche	1	Enero	2023-01-26T00:00:00	2024-11-06T09:00:00	7	Dirección del viento	17.7
4879	7	Sololá	701	Sololá	3	Barraneche	1	Enero	2023-01-26T00:00:00	2024-11-06T09:00:00	1	Precipitación	0
4880	7	Sololá	701	Sololá	3	Barraneche	1	Enero	2023-01-26T00:00:00	2024-11-06T09:00:00	8	Radiación solar	399
4881	7	Sololá	701	Sololá	3	Barraneche	1	Enero	2023-01-26T00:00:00	2024-11-06T10:00:00	2	Temperatura media	16.3
4882	7	Sololá	701	Sololá	3	Barraneche	1	Enero	2023-01-26T00:00:00	2024-11-06T10:00:00	4	Temperatura máxima	16.3
4883	7	Sololá	701	Sololá	3	Barraneche	1	Enero	2023-01-26T00:00:00	2024-11-06T10:00:00	3	Temperatura mínima	14.7
4884	7	Sololá	701	Sololá	3	Barraneche	1	Enero	2023-01-26T00:00:00	2024-11-06T10:00:00	5	Humedad	49
4885	7	Sololá	701	Sololá	3	Barraneche	1	Enero	2023-01-26T00:00:00	2024-11-06T10:00:00	6	Velocidad del viento	19.3
4886	7	Sololá	701	Sololá	3	Barraneche	1	Enero	2023-01-26T00:00:00	2024-11-06T10:00:00	7	Dirección del viento	19.31
4887	7	Sololá	701	Sololá	3	Barraneche	1	Enero	2023-01-26T00:00:00	2024-11-06T10:00:00	1	Precipitación	0
4888	7	Sololá	701	Sololá	3	Barraneche	1	Enero	2023-01-26T00:00:00	2024-11-06T10:00:00	8	Radiación solar	613
4889	7	Sololá	701	Sololá	3	Barraneche	1	Enero	2023-01-26T00:00:00	2024-11-06T11:00:00	2	Temperatura media	17.3
4890	7	Sololá	701	Sololá	3	Barraneche	1	Enero	2023-01-26T00:00:00	2024-11-06T11:00:00	4	Temperatura máxima	17.3
4891	7	Sololá	701	Sololá	3	Barraneche	1	Enero	2023-01-26T00:00:00	2024-11-06T11:00:00	3	Temperatura mínima	16.1
4892	7	Sololá	701	Sololá	3	Barraneche	1	Enero	2023-01-26T00:00:00	2024-11-06T11:00:00	5	Humedad	46
4893	7	Sololá	701	Sololá	3	Barraneche	1	Enero	2023-01-26T00:00:00	2024-11-06T11:00:00	6	Velocidad del viento	19.3
4894	7	Sololá	701	Sololá	3	Barraneche	1	Enero	2023-01-26T00:00:00	2024-11-06T11:00:00	7	Dirección del viento	19.31
4895	7	Sololá	701	Sololá	3	Barraneche	1	Enero	2023-01-26T00:00:00	2024-11-06T11:00:00	1	Precipitación	0
4896	7	Sololá	701	Sololá	3	Barraneche	1	Enero	2023-01-26T00:00:00	2024-11-06T11:00:00	8	Radiación solar	774
4897	7	Sololá	701	Sololá	3	Barraneche	1	Enero	2023-01-26T00:00:00	2024-11-06T12:00:00	2	Temperatura media	17.7
4898	7	Sololá	701	Sololá	3	Barraneche	1	Enero	2023-01-26T00:00:00	2024-11-06T12:00:00	4	Temperatura máxima	18
4899	7	Sololá	701	Sololá	3	Barraneche	1	Enero	2023-01-26T00:00:00	2024-11-06T12:00:00	3	Temperatura mínima	17.3
4900	7	Sololá	701	Sololá	3	Barraneche	1	Enero	2023-01-26T00:00:00	2024-11-06T12:00:00	5	Humedad	46
4901	7	Sololá	701	Sololá	3	Barraneche	1	Enero	2023-01-26T00:00:00	2024-11-06T12:00:00	6	Velocidad del viento	19.3
4902	7	Sololá	701	Sololá	3	Barraneche	1	Enero	2023-01-26T00:00:00	2024-11-06T12:00:00	7	Dirección del viento	19.31
4903	7	Sololá	701	Sololá	3	Barraneche	1	Enero	2023-01-26T00:00:00	2024-11-06T12:00:00	1	Precipitación	0
4904	7	Sololá	701	Sololá	3	Barraneche	1	Enero	2023-01-26T00:00:00	2024-11-06T12:00:00	8	Radiación solar	864
4905	7	Sololá	701	Sololá	3	Barraneche	1	Enero	2023-01-26T00:00:00	2024-11-06T13:00:00	2	Temperatura media	17.4
4906	7	Sololá	701	Sololá	3	Barraneche	1	Enero	2023-01-26T00:00:00	2024-11-06T13:00:00	4	Temperatura máxima	18
4907	7	Sololá	701	Sololá	3	Barraneche	1	Enero	2023-01-26T00:00:00	2024-11-06T13:00:00	3	Temperatura mínima	16.8
4908	7	Sololá	701	Sololá	3	Barraneche	1	Enero	2023-01-26T00:00:00	2024-11-06T13:00:00	5	Humedad	49
4909	7	Sololá	701	Sololá	3	Barraneche	1	Enero	2023-01-26T00:00:00	2024-11-06T13:00:00	6	Velocidad del viento	22.5
4910	7	Sololá	701	Sololá	3	Barraneche	1	Enero	2023-01-26T00:00:00	2024-11-06T13:00:00	7	Dirección del viento	22.53
4911	7	Sololá	701	Sololá	3	Barraneche	1	Enero	2023-01-26T00:00:00	2024-11-06T13:00:00	1	Precipitación	0
4912	7	Sololá	701	Sololá	3	Barraneche	1	Enero	2023-01-26T00:00:00	2024-11-06T13:00:00	8	Radiación solar	875
4913	7	Sololá	701	Sololá	3	Barraneche	1	Enero	2023-01-26T00:00:00	2024-11-06T14:00:00	2	Temperatura media	16.8
4914	7	Sololá	701	Sololá	3	Barraneche	1	Enero	2023-01-26T00:00:00	2024-11-06T14:00:00	4	Temperatura máxima	18.2
4915	7	Sololá	701	Sololá	3	Barraneche	1	Enero	2023-01-26T00:00:00	2024-11-06T14:00:00	3	Temperatura mínima	16.7
4916	7	Sololá	701	Sololá	3	Barraneche	1	Enero	2023-01-26T00:00:00	2024-11-06T14:00:00	5	Humedad	50
4917	7	Sololá	701	Sololá	3	Barraneche	1	Enero	2023-01-26T00:00:00	2024-11-06T14:00:00	6	Velocidad del viento	20.9
4918	7	Sololá	701	Sololá	3	Barraneche	1	Enero	2023-01-26T00:00:00	2024-11-06T14:00:00	7	Dirección del viento	20.92
4919	7	Sololá	701	Sololá	3	Barraneche	1	Enero	2023-01-26T00:00:00	2024-11-06T14:00:00	1	Precipitación	0
4920	7	Sololá	701	Sololá	3	Barraneche	1	Enero	2023-01-26T00:00:00	2024-11-06T14:00:00	8	Radiación solar	825
4921	7	Sololá	701	Sololá	3	Barraneche	1	Enero	2023-01-26T00:00:00	2024-11-06T15:00:00	2	Temperatura media	16.6
4922	7	Sololá	701	Sololá	3	Barraneche	1	Enero	2023-01-26T00:00:00	2024-11-06T15:00:00	4	Temperatura máxima	17.6
4923	7	Sololá	701	Sololá	3	Barraneche	1	Enero	2023-01-26T00:00:00	2024-11-06T15:00:00	3	Temperatura mínima	16.6
4924	7	Sololá	701	Sololá	3	Barraneche	1	Enero	2023-01-26T00:00:00	2024-11-06T15:00:00	5	Humedad	48
4925	7	Sololá	701	Sololá	3	Barraneche	1	Enero	2023-01-26T00:00:00	2024-11-06T15:00:00	6	Velocidad del viento	19.3
4926	7	Sololá	701	Sololá	3	Barraneche	1	Enero	2023-01-26T00:00:00	2024-11-06T15:00:00	7	Dirección del viento	19.31
4927	7	Sololá	701	Sololá	3	Barraneche	1	Enero	2023-01-26T00:00:00	2024-11-06T15:00:00	1	Precipitación	0
4928	7	Sololá	701	Sololá	3	Barraneche	1	Enero	2023-01-26T00:00:00	2024-11-06T15:00:00	8	Radiación solar	678
4929	7	Sololá	701	Sololá	3	Barraneche	1	Enero	2023-01-26T00:00:00	2024-11-06T16:00:00	2	Temperatura media	15.6
4930	7	Sololá	701	Sololá	3	Barraneche	1	Enero	2023-01-26T00:00:00	2024-11-06T16:00:00	4	Temperatura máxima	17.1
4931	7	Sololá	701	Sololá	3	Barraneche	1	Enero	2023-01-26T00:00:00	2024-11-06T16:00:00	3	Temperatura mínima	15.6
4932	7	Sololá	701	Sololá	3	Barraneche	1	Enero	2023-01-26T00:00:00	2024-11-06T16:00:00	5	Humedad	52
4933	7	Sololá	701	Sololá	3	Barraneche	1	Enero	2023-01-26T00:00:00	2024-11-06T16:00:00	6	Velocidad del viento	20.9
4934	7	Sololá	701	Sololá	3	Barraneche	1	Enero	2023-01-26T00:00:00	2024-11-06T16:00:00	7	Dirección del viento	20.92
4935	7	Sololá	701	Sololá	3	Barraneche	1	Enero	2023-01-26T00:00:00	2024-11-06T16:00:00	1	Precipitación	0
4936	7	Sololá	701	Sololá	3	Barraneche	1	Enero	2023-01-26T00:00:00	2024-11-06T16:00:00	8	Radiación solar	456
4937	7	Sololá	701	Sololá	3	Barraneche	1	Enero	2023-01-26T00:00:00	2024-11-06T17:00:00	2	Temperatura media	13.8
4938	7	Sololá	701	Sololá	3	Barraneche	1	Enero	2023-01-26T00:00:00	2024-11-06T17:00:00	4	Temperatura máxima	15.7
4939	7	Sololá	701	Sololá	3	Barraneche	1	Enero	2023-01-26T00:00:00	2024-11-06T17:00:00	3	Temperatura mínima	13.8
4940	7	Sololá	701	Sololá	3	Barraneche	1	Enero	2023-01-26T00:00:00	2024-11-06T17:00:00	5	Humedad	56
4941	7	Sololá	701	Sololá	3	Barraneche	1	Enero	2023-01-26T00:00:00	2024-11-06T17:00:00	6	Velocidad del viento	22.5
4942	7	Sololá	701	Sololá	3	Barraneche	1	Enero	2023-01-26T00:00:00	2024-11-06T17:00:00	7	Dirección del viento	22.53
4943	7	Sololá	701	Sololá	3	Barraneche	1	Enero	2023-01-26T00:00:00	2024-11-06T17:00:00	1	Precipitación	0
4944	7	Sololá	701	Sololá	3	Barraneche	1	Enero	2023-01-26T00:00:00	2024-11-06T17:00:00	8	Radiación solar	232
4945	7	Sololá	701	Sololá	3	Barraneche	1	Enero	2023-01-26T00:00:00	2024-11-06T18:00:00	2	Temperatura media	12.3
4946	7	Sololá	701	Sololá	3	Barraneche	1	Enero	2023-01-26T00:00:00	2024-11-06T18:00:00	4	Temperatura máxima	13.8
4947	7	Sololá	701	Sololá	3	Barraneche	1	Enero	2023-01-26T00:00:00	2024-11-06T18:00:00	3	Temperatura mínima	12.3
4948	7	Sololá	701	Sololá	3	Barraneche	1	Enero	2023-01-26T00:00:00	2024-11-06T18:00:00	5	Humedad	59
4949	7	Sololá	701	Sololá	3	Barraneche	1	Enero	2023-01-26T00:00:00	2024-11-06T18:00:00	6	Velocidad del viento	20.9
4950	7	Sololá	701	Sololá	3	Barraneche	1	Enero	2023-01-26T00:00:00	2024-11-06T18:00:00	7	Dirección del viento	20.92
4951	7	Sololá	701	Sololá	3	Barraneche	1	Enero	2023-01-26T00:00:00	2024-11-06T18:00:00	1	Precipitación	0
4952	7	Sololá	701	Sololá	3	Barraneche	1	Enero	2023-01-26T00:00:00	2024-11-06T18:00:00	8	Radiación solar	22
4953	7	Sololá	701	Sololá	3	Barraneche	1	Enero	2023-01-26T00:00:00	2024-11-06T19:00:00	2	Temperatura media	12.2
4954	7	Sololá	701	Sololá	3	Barraneche	1	Enero	2023-01-26T00:00:00	2024-11-06T19:00:00	4	Temperatura máxima	12.4
4955	7	Sololá	701	Sololá	3	Barraneche	1	Enero	2023-01-26T00:00:00	2024-11-06T19:00:00	3	Temperatura mínima	12.1
4956	7	Sololá	701	Sololá	3	Barraneche	1	Enero	2023-01-26T00:00:00	2024-11-06T19:00:00	5	Humedad	58
4957	7	Sololá	701	Sololá	3	Barraneche	1	Enero	2023-01-26T00:00:00	2024-11-06T19:00:00	6	Velocidad del viento	20.9
4958	7	Sololá	701	Sololá	3	Barraneche	1	Enero	2023-01-26T00:00:00	2024-11-06T19:00:00	7	Dirección del viento	20.92
4959	7	Sololá	701	Sololá	3	Barraneche	1	Enero	2023-01-26T00:00:00	2024-11-06T19:00:00	1	Precipitación	0
4960	7	Sololá	701	Sololá	3	Barraneche	1	Enero	2023-01-26T00:00:00	2024-11-06T19:00:00	8	Radiación solar	0
4961	7	Sololá	701	Sololá	3	Barraneche	1	Enero	2023-01-26T00:00:00	2024-11-06T20:00:00	2	Temperatura media	12.1
4962	7	Sololá	701	Sololá	3	Barraneche	1	Enero	2023-01-26T00:00:00	2024-11-06T20:00:00	4	Temperatura máxima	12.2
4963	7	Sololá	701	Sololá	3	Barraneche	1	Enero	2023-01-26T00:00:00	2024-11-06T20:00:00	3	Temperatura mínima	11.9
4964	7	Sololá	701	Sololá	3	Barraneche	1	Enero	2023-01-26T00:00:00	2024-11-06T20:00:00	5	Humedad	57
4965	7	Sololá	701	Sololá	3	Barraneche	1	Enero	2023-01-26T00:00:00	2024-11-06T20:00:00	6	Velocidad del viento	24.1
4966	7	Sololá	701	Sololá	3	Barraneche	1	Enero	2023-01-26T00:00:00	2024-11-06T20:00:00	7	Dirección del viento	24.14
4967	7	Sololá	701	Sololá	3	Barraneche	1	Enero	2023-01-26T00:00:00	2024-11-06T20:00:00	1	Precipitación	0
4968	7	Sololá	701	Sololá	3	Barraneche	1	Enero	2023-01-26T00:00:00	2024-11-06T20:00:00	8	Radiación solar	0
4969	7	Sololá	701	Sololá	3	Barraneche	1	Enero	2023-01-26T00:00:00	2024-11-06T21:00:00	2	Temperatura media	12.1
4970	7	Sololá	701	Sololá	3	Barraneche	1	Enero	2023-01-26T00:00:00	2024-11-06T21:00:00	4	Temperatura máxima	12.4
4971	7	Sololá	701	Sololá	3	Barraneche	1	Enero	2023-01-26T00:00:00	2024-11-06T21:00:00	3	Temperatura mínima	11.9
4972	7	Sololá	701	Sololá	3	Barraneche	1	Enero	2023-01-26T00:00:00	2024-11-06T21:00:00	5	Humedad	56
4973	7	Sololá	701	Sololá	3	Barraneche	1	Enero	2023-01-26T00:00:00	2024-11-06T21:00:00	6	Velocidad del viento	24.1
4974	7	Sololá	701	Sololá	3	Barraneche	1	Enero	2023-01-26T00:00:00	2024-11-06T21:00:00	7	Dirección del viento	24.14
4975	7	Sololá	701	Sololá	3	Barraneche	1	Enero	2023-01-26T00:00:00	2024-11-06T21:00:00	1	Precipitación	0
4976	7	Sololá	701	Sololá	3	Barraneche	1	Enero	2023-01-26T00:00:00	2024-11-06T21:00:00	8	Radiación solar	0
4977	7	Sololá	701	Sololá	3	Barraneche	1	Enero	2023-01-26T00:00:00	2024-11-06T22:00:00	2	Temperatura media	11.4
4978	7	Sololá	701	Sololá	3	Barraneche	1	Enero	2023-01-26T00:00:00	2024-11-06T22:00:00	4	Temperatura máxima	12.2
4979	7	Sololá	701	Sololá	3	Barraneche	1	Enero	2023-01-26T00:00:00	2024-11-06T22:00:00	3	Temperatura mínima	11.4
4980	7	Sololá	701	Sololá	3	Barraneche	1	Enero	2023-01-26T00:00:00	2024-11-06T22:00:00	5	Humedad	61
4981	7	Sololá	701	Sololá	3	Barraneche	1	Enero	2023-01-26T00:00:00	2024-11-06T22:00:00	6	Velocidad del viento	29
4982	7	Sololá	701	Sololá	3	Barraneche	1	Enero	2023-01-26T00:00:00	2024-11-06T22:00:00	7	Dirección del viento	28.97
4983	7	Sololá	701	Sololá	3	Barraneche	1	Enero	2023-01-26T00:00:00	2024-11-06T22:00:00	1	Precipitación	0
4984	7	Sololá	701	Sololá	3	Barraneche	1	Enero	2023-01-26T00:00:00	2024-11-06T22:00:00	8	Radiación solar	0
4985	7	Sololá	701	Sololá	3	Barraneche	1	Enero	2023-01-26T00:00:00	2024-11-06T23:00:00	2	Temperatura media	11.9
4986	7	Sololá	701	Sololá	3	Barraneche	1	Enero	2023-01-26T00:00:00	2024-11-06T23:00:00	4	Temperatura máxima	11.9
4987	7	Sololá	701	Sololá	3	Barraneche	1	Enero	2023-01-26T00:00:00	2024-11-06T23:00:00	3	Temperatura mínima	11.3
4988	7	Sololá	701	Sololá	3	Barraneche	1	Enero	2023-01-26T00:00:00	2024-11-06T23:00:00	5	Humedad	60
4989	7	Sololá	701	Sololá	3	Barraneche	1	Enero	2023-01-26T00:00:00	2024-11-06T23:00:00	6	Velocidad del viento	29
4990	7	Sololá	701	Sololá	3	Barraneche	1	Enero	2023-01-26T00:00:00	2024-11-06T23:00:00	7	Dirección del viento	28.97
4991	7	Sololá	701	Sololá	3	Barraneche	1	Enero	2023-01-26T00:00:00	2024-11-06T23:00:00	1	Precipitación	0
4992	7	Sololá	701	Sololá	3	Barraneche	1	Enero	2023-01-26T00:00:00	2024-11-06T23:00:00	8	Radiación solar	0
4993	7	Sololá	701	Sololá	3	Barraneche	1	Enero	2023-01-27T00:00:00	2024-11-06T00:00:00	2	Temperatura media	12.2
4994	7	Sololá	701	Sololá	3	Barraneche	1	Enero	2023-01-27T00:00:00	2024-11-06T00:00:00	4	Temperatura máxima	12.7
4995	7	Sololá	701	Sololá	3	Barraneche	1	Enero	2023-01-27T00:00:00	2024-11-06T00:00:00	3	Temperatura mínima	11.9
4996	7	Sololá	701	Sololá	3	Barraneche	1	Enero	2023-01-27T00:00:00	2024-11-06T00:00:00	5	Humedad	59
4997	7	Sololá	701	Sololá	3	Barraneche	1	Enero	2023-01-27T00:00:00	2024-11-06T00:00:00	6	Velocidad del viento	32.2
4998	7	Sololá	701	Sololá	3	Barraneche	1	Enero	2023-01-27T00:00:00	2024-11-06T00:00:00	7	Dirección del viento	32.19
4999	7	Sololá	701	Sololá	3	Barraneche	1	Enero	2023-01-27T00:00:00	2024-11-06T00:00:00	1	Precipitación	0
5000	7	Sololá	701	Sololá	3	Barraneche	1	Enero	2023-01-27T00:00:00	2024-11-06T00:00:00	8	Radiación solar	0
5001	7	Sololá	701	Sololá	3	Barraneche	1	Enero	2023-01-27T00:00:00	2024-11-06T01:00:00	2	Temperatura media	12.8
5002	7	Sololá	701	Sololá	3	Barraneche	1	Enero	2023-01-27T00:00:00	2024-11-06T01:00:00	4	Temperatura máxima	12.8
5003	7	Sololá	701	Sololá	3	Barraneche	1	Enero	2023-01-27T00:00:00	2024-11-06T01:00:00	3	Temperatura mínima	11.6
5004	7	Sololá	701	Sololá	3	Barraneche	1	Enero	2023-01-27T00:00:00	2024-11-06T01:00:00	5	Humedad	57
5005	7	Sololá	701	Sololá	3	Barraneche	1	Enero	2023-01-27T00:00:00	2024-11-06T01:00:00	6	Velocidad del viento	33.8
5006	7	Sololá	701	Sololá	3	Barraneche	1	Enero	2023-01-27T00:00:00	2024-11-06T01:00:00	7	Dirección del viento	33.8
5007	7	Sololá	701	Sololá	3	Barraneche	1	Enero	2023-01-27T00:00:00	2024-11-06T01:00:00	1	Precipitación	0
5008	7	Sololá	701	Sololá	3	Barraneche	1	Enero	2023-01-27T00:00:00	2024-11-06T01:00:00	8	Radiación solar	0
5009	7	Sololá	701	Sololá	3	Barraneche	1	Enero	2023-01-27T00:00:00	2024-11-06T02:00:00	2	Temperatura media	12.1
5010	7	Sololá	701	Sololá	3	Barraneche	1	Enero	2023-01-27T00:00:00	2024-11-06T02:00:00	4	Temperatura máxima	12.8
5011	7	Sololá	701	Sololá	3	Barraneche	1	Enero	2023-01-27T00:00:00	2024-11-06T02:00:00	3	Temperatura mínima	12.1
5012	7	Sololá	701	Sololá	3	Barraneche	1	Enero	2023-01-27T00:00:00	2024-11-06T02:00:00	5	Humedad	65
5013	7	Sololá	701	Sololá	3	Barraneche	1	Enero	2023-01-27T00:00:00	2024-11-06T02:00:00	6	Velocidad del viento	33.8
5014	7	Sololá	701	Sololá	3	Barraneche	1	Enero	2023-01-27T00:00:00	2024-11-06T02:00:00	7	Dirección del viento	33.8
5015	7	Sololá	701	Sololá	3	Barraneche	1	Enero	2023-01-27T00:00:00	2024-11-06T02:00:00	1	Precipitación	0
5016	7	Sololá	701	Sololá	3	Barraneche	1	Enero	2023-01-27T00:00:00	2024-11-06T02:00:00	8	Radiación solar	0
5017	7	Sololá	701	Sololá	3	Barraneche	1	Enero	2023-01-27T00:00:00	2024-11-06T03:00:00	2	Temperatura media	11.9
5018	7	Sololá	701	Sololá	3	Barraneche	1	Enero	2023-01-27T00:00:00	2024-11-06T03:00:00	4	Temperatura máxima	12.3
5019	7	Sololá	701	Sololá	3	Barraneche	1	Enero	2023-01-27T00:00:00	2024-11-06T03:00:00	3	Temperatura mínima	11.8
5020	7	Sololá	701	Sololá	3	Barraneche	1	Enero	2023-01-27T00:00:00	2024-11-06T03:00:00	5	Humedad	66
5021	7	Sololá	701	Sololá	3	Barraneche	1	Enero	2023-01-27T00:00:00	2024-11-06T03:00:00	6	Velocidad del viento	35.4
5022	7	Sololá	701	Sololá	3	Barraneche	1	Enero	2023-01-27T00:00:00	2024-11-06T03:00:00	7	Dirección del viento	35.41
5023	7	Sololá	701	Sololá	3	Barraneche	1	Enero	2023-01-27T00:00:00	2024-11-06T03:00:00	1	Precipitación	0
5024	7	Sololá	701	Sololá	3	Barraneche	1	Enero	2023-01-27T00:00:00	2024-11-06T03:00:00	8	Radiación solar	0
5025	7	Sololá	701	Sololá	3	Barraneche	1	Enero	2023-01-27T00:00:00	2024-11-06T04:00:00	2	Temperatura media	12.1
5026	7	Sololá	701	Sololá	3	Barraneche	1	Enero	2023-01-27T00:00:00	2024-11-06T04:00:00	4	Temperatura máxima	12.3
5027	7	Sololá	701	Sololá	3	Barraneche	1	Enero	2023-01-27T00:00:00	2024-11-06T04:00:00	3	Temperatura mínima	11.9
5028	7	Sololá	701	Sololá	3	Barraneche	1	Enero	2023-01-27T00:00:00	2024-11-06T04:00:00	5	Humedad	65
5029	7	Sololá	701	Sololá	3	Barraneche	1	Enero	2023-01-27T00:00:00	2024-11-06T04:00:00	6	Velocidad del viento	37
5030	7	Sololá	701	Sololá	3	Barraneche	1	Enero	2023-01-27T00:00:00	2024-11-06T04:00:00	7	Dirección del viento	37.01
5031	7	Sololá	701	Sololá	3	Barraneche	1	Enero	2023-01-27T00:00:00	2024-11-06T04:00:00	1	Precipitación	0
5032	7	Sololá	701	Sololá	3	Barraneche	1	Enero	2023-01-27T00:00:00	2024-11-06T04:00:00	8	Radiación solar	0
5033	7	Sololá	701	Sololá	3	Barraneche	1	Enero	2023-01-27T00:00:00	2024-11-06T05:00:00	2	Temperatura media	11.9
5034	7	Sololá	701	Sololá	3	Barraneche	1	Enero	2023-01-27T00:00:00	2024-11-06T05:00:00	4	Temperatura máxima	12.2
5035	7	Sololá	701	Sololá	3	Barraneche	1	Enero	2023-01-27T00:00:00	2024-11-06T05:00:00	3	Temperatura mínima	11.4
5036	7	Sololá	701	Sololá	3	Barraneche	1	Enero	2023-01-27T00:00:00	2024-11-06T05:00:00	5	Humedad	66
5037	7	Sololá	701	Sololá	3	Barraneche	1	Enero	2023-01-27T00:00:00	2024-11-06T05:00:00	6	Velocidad del viento	32.2
5038	7	Sololá	701	Sololá	3	Barraneche	1	Enero	2023-01-27T00:00:00	2024-11-06T05:00:00	7	Dirección del viento	32.19
5039	7	Sololá	701	Sololá	3	Barraneche	1	Enero	2023-01-27T00:00:00	2024-11-06T05:00:00	1	Precipitación	0
5040	7	Sololá	701	Sololá	3	Barraneche	1	Enero	2023-01-27T00:00:00	2024-11-06T05:00:00	8	Radiación solar	0
5041	7	Sololá	701	Sololá	3	Barraneche	1	Enero	2023-01-27T00:00:00	2024-11-06T06:00:00	2	Temperatura media	12
5042	7	Sololá	701	Sololá	3	Barraneche	1	Enero	2023-01-27T00:00:00	2024-11-06T06:00:00	4	Temperatura máxima	12.1
5043	7	Sololá	701	Sololá	3	Barraneche	1	Enero	2023-01-27T00:00:00	2024-11-06T06:00:00	3	Temperatura mínima	11.7
5044	7	Sololá	701	Sololá	3	Barraneche	1	Enero	2023-01-27T00:00:00	2024-11-06T06:00:00	5	Humedad	65
5045	7	Sololá	701	Sololá	3	Barraneche	1	Enero	2023-01-27T00:00:00	2024-11-06T06:00:00	6	Velocidad del viento	32.2
5046	7	Sololá	701	Sololá	3	Barraneche	1	Enero	2023-01-27T00:00:00	2024-11-06T06:00:00	7	Dirección del viento	32.19
5047	7	Sololá	701	Sololá	3	Barraneche	1	Enero	2023-01-27T00:00:00	2024-11-06T06:00:00	1	Precipitación	0
5048	7	Sololá	701	Sololá	3	Barraneche	1	Enero	2023-01-27T00:00:00	2024-11-06T06:00:00	8	Radiación solar	0
5049	7	Sololá	701	Sololá	3	Barraneche	1	Enero	2023-01-27T00:00:00	2024-11-06T07:00:00	2	Temperatura media	12.6
5050	7	Sololá	701	Sololá	3	Barraneche	1	Enero	2023-01-27T00:00:00	2024-11-06T07:00:00	4	Temperatura máxima	12.7
5051	7	Sololá	701	Sololá	3	Barraneche	1	Enero	2023-01-27T00:00:00	2024-11-06T07:00:00	3	Temperatura mínima	11.8
5052	7	Sololá	701	Sololá	3	Barraneche	1	Enero	2023-01-27T00:00:00	2024-11-06T07:00:00	5	Humedad	61
5053	7	Sololá	701	Sololá	3	Barraneche	1	Enero	2023-01-27T00:00:00	2024-11-06T07:00:00	6	Velocidad del viento	33.8
5054	7	Sololá	701	Sololá	3	Barraneche	1	Enero	2023-01-27T00:00:00	2024-11-06T07:00:00	7	Dirección del viento	33.8
5055	7	Sololá	701	Sololá	3	Barraneche	1	Enero	2023-01-27T00:00:00	2024-11-06T07:00:00	1	Precipitación	0
5056	7	Sololá	701	Sololá	3	Barraneche	1	Enero	2023-01-27T00:00:00	2024-11-06T07:00:00	8	Radiación solar	9
5057	7	Sololá	701	Sololá	3	Barraneche	1	Enero	2023-01-27T00:00:00	2024-11-06T08:00:00	2	Temperatura media	13.3
5058	7	Sololá	701	Sololá	3	Barraneche	1	Enero	2023-01-27T00:00:00	2024-11-06T08:00:00	4	Temperatura máxima	13.3
5059	7	Sololá	701	Sololá	3	Barraneche	1	Enero	2023-01-27T00:00:00	2024-11-06T08:00:00	3	Temperatura mínima	12.3
5060	7	Sololá	701	Sololá	3	Barraneche	1	Enero	2023-01-27T00:00:00	2024-11-06T08:00:00	5	Humedad	58
5061	7	Sololá	701	Sololá	3	Barraneche	1	Enero	2023-01-27T00:00:00	2024-11-06T08:00:00	6	Velocidad del viento	30.6
5062	7	Sololá	701	Sololá	3	Barraneche	1	Enero	2023-01-27T00:00:00	2024-11-06T08:00:00	7	Dirección del viento	30.58
5063	7	Sololá	701	Sololá	3	Barraneche	1	Enero	2023-01-27T00:00:00	2024-11-06T08:00:00	1	Precipitación	0
5064	7	Sololá	701	Sololá	3	Barraneche	1	Enero	2023-01-27T00:00:00	2024-11-06T08:00:00	8	Radiación solar	116
5065	7	Sololá	701	Sololá	3	Barraneche	1	Enero	2023-01-27T00:00:00	2024-11-06T09:00:00	2	Temperatura media	14.3
5066	7	Sololá	701	Sololá	3	Barraneche	1	Enero	2023-01-27T00:00:00	2024-11-06T09:00:00	4	Temperatura máxima	14.3
5067	7	Sololá	701	Sololá	3	Barraneche	1	Enero	2023-01-27T00:00:00	2024-11-06T09:00:00	3	Temperatura mínima	13.3
5068	7	Sololá	701	Sololá	3	Barraneche	1	Enero	2023-01-27T00:00:00	2024-11-06T09:00:00	5	Humedad	59
5069	7	Sololá	701	Sololá	3	Barraneche	1	Enero	2023-01-27T00:00:00	2024-11-06T09:00:00	6	Velocidad del viento	30.6
5070	7	Sololá	701	Sololá	3	Barraneche	1	Enero	2023-01-27T00:00:00	2024-11-06T09:00:00	7	Dirección del viento	30.58
5071	7	Sololá	701	Sololá	3	Barraneche	1	Enero	2023-01-27T00:00:00	2024-11-06T09:00:00	1	Precipitación	0
5072	7	Sololá	701	Sololá	3	Barraneche	1	Enero	2023-01-27T00:00:00	2024-11-06T09:00:00	8	Radiación solar	408
5073	7	Sololá	701	Sololá	3	Barraneche	1	Enero	2023-01-27T00:00:00	2024-11-06T10:00:00	2	Temperatura media	14.4
5074	7	Sololá	701	Sololá	3	Barraneche	1	Enero	2023-01-27T00:00:00	2024-11-06T10:00:00	4	Temperatura máxima	14.9
5075	7	Sololá	701	Sololá	3	Barraneche	1	Enero	2023-01-27T00:00:00	2024-11-06T10:00:00	3	Temperatura mínima	14.1
5076	7	Sololá	701	Sololá	3	Barraneche	1	Enero	2023-01-27T00:00:00	2024-11-06T10:00:00	5	Humedad	60
5077	7	Sololá	701	Sololá	3	Barraneche	1	Enero	2023-01-27T00:00:00	2024-11-06T10:00:00	6	Velocidad del viento	29
5078	7	Sololá	701	Sololá	3	Barraneche	1	Enero	2023-01-27T00:00:00	2024-11-06T10:00:00	7	Dirección del viento	28.97
5079	7	Sololá	701	Sololá	3	Barraneche	1	Enero	2023-01-27T00:00:00	2024-11-06T10:00:00	1	Precipitación	0
5080	7	Sololá	701	Sololá	3	Barraneche	1	Enero	2023-01-27T00:00:00	2024-11-06T10:00:00	8	Radiación solar	617
5081	7	Sololá	701	Sololá	3	Barraneche	1	Enero	2023-01-27T00:00:00	2024-11-06T11:00:00	2	Temperatura media	15.2
5082	7	Sololá	701	Sololá	3	Barraneche	1	Enero	2023-01-27T00:00:00	2024-11-06T11:00:00	4	Temperatura máxima	15.3
5083	7	Sololá	701	Sololá	3	Barraneche	1	Enero	2023-01-27T00:00:00	2024-11-06T11:00:00	3	Temperatura mínima	14.3
5084	7	Sololá	701	Sololá	3	Barraneche	1	Enero	2023-01-27T00:00:00	2024-11-06T11:00:00	5	Humedad	58
5085	7	Sololá	701	Sololá	3	Barraneche	1	Enero	2023-01-27T00:00:00	2024-11-06T11:00:00	6	Velocidad del viento	29
5086	7	Sololá	701	Sololá	3	Barraneche	1	Enero	2023-01-27T00:00:00	2024-11-06T11:00:00	7	Dirección del viento	28.97
5087	7	Sololá	701	Sololá	3	Barraneche	1	Enero	2023-01-27T00:00:00	2024-11-06T11:00:00	1	Precipitación	0
5088	7	Sololá	701	Sololá	3	Barraneche	1	Enero	2023-01-27T00:00:00	2024-11-06T11:00:00	8	Radiación solar	798
5089	7	Sololá	701	Sololá	3	Barraneche	1	Enero	2023-01-27T00:00:00	2024-11-06T12:00:00	2	Temperatura media	14.5
5090	7	Sololá	701	Sololá	3	Barraneche	1	Enero	2023-01-27T00:00:00	2024-11-06T12:00:00	4	Temperatura máxima	15.6
5091	7	Sololá	701	Sololá	3	Barraneche	1	Enero	2023-01-27T00:00:00	2024-11-06T12:00:00	3	Temperatura mínima	14.3
5092	7	Sololá	701	Sololá	3	Barraneche	1	Enero	2023-01-27T00:00:00	2024-11-06T12:00:00	5	Humedad	59
5093	7	Sololá	701	Sololá	3	Barraneche	1	Enero	2023-01-27T00:00:00	2024-11-06T12:00:00	6	Velocidad del viento	29
5094	7	Sololá	701	Sololá	3	Barraneche	1	Enero	2023-01-27T00:00:00	2024-11-06T12:00:00	7	Dirección del viento	28.97
5095	7	Sololá	701	Sololá	3	Barraneche	1	Enero	2023-01-27T00:00:00	2024-11-06T12:00:00	1	Precipitación	0
5096	7	Sololá	701	Sololá	3	Barraneche	1	Enero	2023-01-27T00:00:00	2024-11-06T12:00:00	8	Radiación solar	673
5097	7	Sololá	701	Sololá	3	Barraneche	1	Enero	2023-01-27T00:00:00	2024-11-06T13:00:00	2	Temperatura media	14.3
5098	7	Sololá	701	Sololá	3	Barraneche	1	Enero	2023-01-27T00:00:00	2024-11-06T13:00:00	4	Temperatura máxima	14.5
5099	7	Sololá	701	Sololá	3	Barraneche	1	Enero	2023-01-27T00:00:00	2024-11-06T13:00:00	3	Temperatura mínima	13.6
5100	7	Sololá	701	Sololá	3	Barraneche	1	Enero	2023-01-27T00:00:00	2024-11-06T13:00:00	5	Humedad	60
5101	7	Sololá	701	Sololá	3	Barraneche	1	Enero	2023-01-27T00:00:00	2024-11-06T13:00:00	6	Velocidad del viento	16.1
5102	7	Sololá	701	Sololá	3	Barraneche	1	Enero	2023-01-27T00:00:00	2024-11-06T13:00:00	7	Dirección del viento	16.09
5103	7	Sololá	701	Sololá	3	Barraneche	1	Enero	2023-01-27T00:00:00	2024-11-06T13:00:00	1	Precipitación	0
5104	7	Sololá	701	Sololá	3	Barraneche	1	Enero	2023-01-27T00:00:00	2024-11-06T13:00:00	8	Radiación solar	180
5105	7	Sololá	701	Sololá	3	Barraneche	1	Enero	2023-01-27T00:00:00	2024-11-06T14:00:00	2	Temperatura media	14.6
5106	7	Sololá	701	Sololá	3	Barraneche	1	Enero	2023-01-27T00:00:00	2024-11-06T14:00:00	4	Temperatura máxima	14.6
5107	7	Sololá	701	Sololá	3	Barraneche	1	Enero	2023-01-27T00:00:00	2024-11-06T14:00:00	3	Temperatura mínima	13.8
5108	7	Sololá	701	Sololá	3	Barraneche	1	Enero	2023-01-27T00:00:00	2024-11-06T14:00:00	5	Humedad	59
5109	7	Sololá	701	Sololá	3	Barraneche	1	Enero	2023-01-27T00:00:00	2024-11-06T14:00:00	6	Velocidad del viento	19.3
5110	7	Sololá	701	Sololá	3	Barraneche	1	Enero	2023-01-27T00:00:00	2024-11-06T14:00:00	7	Dirección del viento	19.31
5111	7	Sololá	701	Sololá	3	Barraneche	1	Enero	2023-01-27T00:00:00	2024-11-06T14:00:00	1	Precipitación	0
5112	7	Sololá	701	Sololá	3	Barraneche	1	Enero	2023-01-27T00:00:00	2024-11-06T14:00:00	8	Radiación solar	204
5113	7	Sololá	701	Sololá	3	Barraneche	1	Enero	2023-01-27T00:00:00	2024-11-06T15:00:00	2	Temperatura media	14.2
5114	7	Sololá	701	Sololá	3	Barraneche	1	Enero	2023-01-27T00:00:00	2024-11-06T15:00:00	4	Temperatura máxima	14.8
5115	7	Sololá	701	Sololá	3	Barraneche	1	Enero	2023-01-27T00:00:00	2024-11-06T15:00:00	3	Temperatura mínima	14.1
5116	7	Sololá	701	Sololá	3	Barraneche	1	Enero	2023-01-27T00:00:00	2024-11-06T15:00:00	5	Humedad	61
5117	7	Sololá	701	Sololá	3	Barraneche	1	Enero	2023-01-27T00:00:00	2024-11-06T15:00:00	6	Velocidad del viento	22.5
5118	7	Sololá	701	Sololá	3	Barraneche	1	Enero	2023-01-27T00:00:00	2024-11-06T15:00:00	7	Dirección del viento	22.53
5119	7	Sololá	701	Sololá	3	Barraneche	1	Enero	2023-01-27T00:00:00	2024-11-06T15:00:00	1	Precipitación	0
5120	7	Sololá	701	Sololá	3	Barraneche	1	Enero	2023-01-27T00:00:00	2024-11-06T15:00:00	8	Radiación solar	187
5121	7	Sololá	701	Sololá	3	Barraneche	1	Enero	2023-01-27T00:00:00	2024-11-06T16:00:00	2	Temperatura media	13.8
5122	7	Sololá	701	Sololá	3	Barraneche	1	Enero	2023-01-27T00:00:00	2024-11-06T16:00:00	4	Temperatura máxima	14.5
5123	7	Sololá	701	Sololá	3	Barraneche	1	Enero	2023-01-27T00:00:00	2024-11-06T16:00:00	3	Temperatura mínima	13.7
5124	7	Sololá	701	Sololá	3	Barraneche	1	Enero	2023-01-27T00:00:00	2024-11-06T16:00:00	5	Humedad	61
5125	7	Sololá	701	Sololá	3	Barraneche	1	Enero	2023-01-27T00:00:00	2024-11-06T16:00:00	6	Velocidad del viento	25.7
5126	7	Sololá	701	Sololá	3	Barraneche	1	Enero	2023-01-27T00:00:00	2024-11-06T16:00:00	7	Dirección del viento	25.75
5127	7	Sololá	701	Sololá	3	Barraneche	1	Enero	2023-01-27T00:00:00	2024-11-06T16:00:00	1	Precipitación	0
5128	7	Sololá	701	Sololá	3	Barraneche	1	Enero	2023-01-27T00:00:00	2024-11-06T16:00:00	8	Radiación solar	329
5129	7	Sololá	701	Sololá	3	Barraneche	1	Enero	2023-01-27T00:00:00	2024-11-06T17:00:00	2	Temperatura media	13.7
5130	7	Sololá	701	Sololá	3	Barraneche	1	Enero	2023-01-27T00:00:00	2024-11-06T17:00:00	4	Temperatura máxima	13.8
5131	7	Sololá	701	Sololá	3	Barraneche	1	Enero	2023-01-27T00:00:00	2024-11-06T17:00:00	3	Temperatura mínima	13.3
5132	7	Sololá	701	Sololá	3	Barraneche	1	Enero	2023-01-27T00:00:00	2024-11-06T17:00:00	5	Humedad	62
5133	7	Sololá	701	Sololá	3	Barraneche	1	Enero	2023-01-27T00:00:00	2024-11-06T17:00:00	6	Velocidad del viento	16.1
5134	7	Sololá	701	Sololá	3	Barraneche	1	Enero	2023-01-27T00:00:00	2024-11-06T17:00:00	7	Dirección del viento	16.09
5135	7	Sololá	701	Sololá	3	Barraneche	1	Enero	2023-01-27T00:00:00	2024-11-06T17:00:00	1	Precipitación	0
5136	7	Sololá	701	Sololá	3	Barraneche	1	Enero	2023-01-27T00:00:00	2024-11-06T17:00:00	8	Radiación solar	53
5137	7	Sololá	701	Sololá	3	Barraneche	1	Enero	2023-01-27T00:00:00	2024-11-06T18:00:00	2	Temperatura media	12.7
5138	7	Sololá	701	Sololá	3	Barraneche	1	Enero	2023-01-27T00:00:00	2024-11-06T18:00:00	4	Temperatura máxima	13.7
5139	7	Sololá	701	Sololá	3	Barraneche	1	Enero	2023-01-27T00:00:00	2024-11-06T18:00:00	3	Temperatura mínima	12.7
5140	7	Sololá	701	Sololá	3	Barraneche	1	Enero	2023-01-27T00:00:00	2024-11-06T18:00:00	5	Humedad	66
5141	7	Sololá	701	Sololá	3	Barraneche	1	Enero	2023-01-27T00:00:00	2024-11-06T18:00:00	6	Velocidad del viento	12.9
5142	7	Sololá	701	Sololá	3	Barraneche	1	Enero	2023-01-27T00:00:00	2024-11-06T18:00:00	7	Dirección del viento	12.87
5143	7	Sololá	701	Sololá	3	Barraneche	1	Enero	2023-01-27T00:00:00	2024-11-06T18:00:00	1	Precipitación	0
5144	7	Sololá	701	Sololá	3	Barraneche	1	Enero	2023-01-27T00:00:00	2024-11-06T18:00:00	8	Radiación solar	19
5145	7	Sololá	701	Sololá	3	Barraneche	1	Enero	2023-01-27T00:00:00	2024-11-06T19:00:00	2	Temperatura media	12.3
5146	7	Sololá	701	Sololá	3	Barraneche	1	Enero	2023-01-27T00:00:00	2024-11-06T19:00:00	4	Temperatura máxima	12.8
5147	7	Sololá	701	Sololá	3	Barraneche	1	Enero	2023-01-27T00:00:00	2024-11-06T19:00:00	3	Temperatura mínima	12.3
5148	7	Sololá	701	Sololá	3	Barraneche	1	Enero	2023-01-27T00:00:00	2024-11-06T19:00:00	5	Humedad	68
5149	7	Sololá	701	Sololá	3	Barraneche	1	Enero	2023-01-27T00:00:00	2024-11-06T19:00:00	6	Velocidad del viento	12.9
5150	7	Sololá	701	Sololá	3	Barraneche	1	Enero	2023-01-27T00:00:00	2024-11-06T19:00:00	7	Dirección del viento	12.87
5151	7	Sololá	701	Sololá	3	Barraneche	1	Enero	2023-01-27T00:00:00	2024-11-06T19:00:00	1	Precipitación	0
5152	7	Sololá	701	Sololá	3	Barraneche	1	Enero	2023-01-27T00:00:00	2024-11-06T19:00:00	8	Radiación solar	0
5153	7	Sololá	701	Sololá	3	Barraneche	1	Enero	2023-01-27T00:00:00	2024-11-06T20:00:00	2	Temperatura media	11.8
5154	7	Sololá	701	Sololá	3	Barraneche	1	Enero	2023-01-27T00:00:00	2024-11-06T20:00:00	4	Temperatura máxima	12.4
5155	7	Sololá	701	Sololá	3	Barraneche	1	Enero	2023-01-27T00:00:00	2024-11-06T20:00:00	3	Temperatura mínima	11.8
5156	7	Sololá	701	Sololá	3	Barraneche	1	Enero	2023-01-27T00:00:00	2024-11-06T20:00:00	5	Humedad	68
5157	7	Sololá	701	Sololá	3	Barraneche	1	Enero	2023-01-27T00:00:00	2024-11-06T20:00:00	6	Velocidad del viento	16.1
5158	7	Sololá	701	Sololá	3	Barraneche	1	Enero	2023-01-27T00:00:00	2024-11-06T20:00:00	7	Dirección del viento	16.09
5159	7	Sololá	701	Sololá	3	Barraneche	1	Enero	2023-01-27T00:00:00	2024-11-06T20:00:00	1	Precipitación	0
5160	7	Sololá	701	Sololá	3	Barraneche	1	Enero	2023-01-27T00:00:00	2024-11-06T20:00:00	8	Radiación solar	0
5161	7	Sololá	701	Sololá	3	Barraneche	1	Enero	2023-01-27T00:00:00	2024-11-06T21:00:00	2	Temperatura media	12.2
5162	7	Sololá	701	Sololá	3	Barraneche	1	Enero	2023-01-27T00:00:00	2024-11-06T21:00:00	4	Temperatura máxima	12.4
5163	7	Sololá	701	Sololá	3	Barraneche	1	Enero	2023-01-27T00:00:00	2024-11-06T21:00:00	3	Temperatura mínima	11.8
5164	7	Sololá	701	Sololá	3	Barraneche	1	Enero	2023-01-27T00:00:00	2024-11-06T21:00:00	5	Humedad	65
5165	7	Sololá	701	Sololá	3	Barraneche	1	Enero	2023-01-27T00:00:00	2024-11-06T21:00:00	6	Velocidad del viento	22.5
5166	7	Sololá	701	Sololá	3	Barraneche	1	Enero	2023-01-27T00:00:00	2024-11-06T21:00:00	7	Dirección del viento	22.53
5167	7	Sololá	701	Sololá	3	Barraneche	1	Enero	2023-01-27T00:00:00	2024-11-06T21:00:00	1	Precipitación	0
5168	7	Sololá	701	Sololá	3	Barraneche	1	Enero	2023-01-27T00:00:00	2024-11-06T21:00:00	8	Radiación solar	0
5169	7	Sololá	701	Sololá	3	Barraneche	1	Enero	2023-01-27T00:00:00	2024-11-06T22:00:00	2	Temperatura media	11.5
5170	7	Sololá	701	Sololá	3	Barraneche	1	Enero	2023-01-27T00:00:00	2024-11-06T22:00:00	4	Temperatura máxima	12.3
5171	7	Sololá	701	Sololá	3	Barraneche	1	Enero	2023-01-27T00:00:00	2024-11-06T22:00:00	3	Temperatura mínima	11.4
5172	7	Sololá	701	Sololá	3	Barraneche	1	Enero	2023-01-27T00:00:00	2024-11-06T22:00:00	5	Humedad	58
5173	7	Sololá	701	Sololá	3	Barraneche	1	Enero	2023-01-27T00:00:00	2024-11-06T22:00:00	6	Velocidad del viento	25.7
5174	7	Sololá	701	Sololá	3	Barraneche	1	Enero	2023-01-27T00:00:00	2024-11-06T22:00:00	7	Dirección del viento	25.75
5175	7	Sololá	701	Sololá	3	Barraneche	1	Enero	2023-01-27T00:00:00	2024-11-06T22:00:00	1	Precipitación	0
5176	7	Sololá	701	Sololá	3	Barraneche	1	Enero	2023-01-27T00:00:00	2024-11-06T22:00:00	8	Radiación solar	0
5177	7	Sololá	701	Sololá	3	Barraneche	1	Enero	2023-01-27T00:00:00	2024-11-06T23:00:00	2	Temperatura media	11.2
5178	7	Sololá	701	Sololá	3	Barraneche	1	Enero	2023-01-27T00:00:00	2024-11-06T23:00:00	4	Temperatura máxima	11.6
5179	7	Sololá	701	Sololá	3	Barraneche	1	Enero	2023-01-27T00:00:00	2024-11-06T23:00:00	3	Temperatura mínima	11.1
5180	7	Sololá	701	Sololá	3	Barraneche	1	Enero	2023-01-27T00:00:00	2024-11-06T23:00:00	5	Humedad	34
5181	7	Sololá	701	Sololá	3	Barraneche	1	Enero	2023-01-27T00:00:00	2024-11-06T23:00:00	6	Velocidad del viento	29
5182	7	Sololá	701	Sololá	3	Barraneche	1	Enero	2023-01-27T00:00:00	2024-11-06T23:00:00	7	Dirección del viento	28.97
5183	7	Sololá	701	Sololá	3	Barraneche	1	Enero	2023-01-27T00:00:00	2024-11-06T23:00:00	1	Precipitación	0
5184	7	Sololá	701	Sololá	3	Barraneche	1	Enero	2023-01-27T00:00:00	2024-11-06T23:00:00	8	Radiación solar	0
5185	7	Sololá	701	Sololá	3	Barraneche	1	Enero	2023-01-28T00:00:00	2024-11-06T00:00:00	2	Temperatura media	11.6
5186	7	Sololá	701	Sololá	3	Barraneche	1	Enero	2023-01-28T00:00:00	2024-11-06T00:00:00	4	Temperatura máxima	11.9
5187	7	Sololá	701	Sololá	3	Barraneche	1	Enero	2023-01-28T00:00:00	2024-11-06T00:00:00	3	Temperatura mínima	10.9
5188	7	Sololá	701	Sololá	3	Barraneche	1	Enero	2023-01-28T00:00:00	2024-11-06T00:00:00	5	Humedad	23
5189	7	Sololá	701	Sololá	3	Barraneche	1	Enero	2023-01-28T00:00:00	2024-11-06T00:00:00	6	Velocidad del viento	19.3
5190	7	Sololá	701	Sololá	3	Barraneche	1	Enero	2023-01-28T00:00:00	2024-11-06T00:00:00	7	Dirección del viento	19.31
5191	7	Sololá	701	Sololá	3	Barraneche	1	Enero	2023-01-28T00:00:00	2024-11-06T00:00:00	1	Precipitación	0
5192	7	Sololá	701	Sololá	3	Barraneche	1	Enero	2023-01-28T00:00:00	2024-11-06T00:00:00	8	Radiación solar	0
5193	7	Sololá	701	Sololá	3	Barraneche	1	Enero	2023-01-28T00:00:00	2024-11-06T01:00:00	2	Temperatura media	10.8
5194	7	Sololá	701	Sololá	3	Barraneche	1	Enero	2023-01-28T00:00:00	2024-11-06T01:00:00	4	Temperatura máxima	11.8
5195	7	Sololá	701	Sololá	3	Barraneche	1	Enero	2023-01-28T00:00:00	2024-11-06T01:00:00	3	Temperatura mínima	10.8
5196	7	Sololá	701	Sololá	3	Barraneche	1	Enero	2023-01-28T00:00:00	2024-11-06T01:00:00	5	Humedad	24
5197	7	Sololá	701	Sololá	3	Barraneche	1	Enero	2023-01-28T00:00:00	2024-11-06T01:00:00	6	Velocidad del viento	25.7
5198	7	Sololá	701	Sololá	3	Barraneche	1	Enero	2023-01-28T00:00:00	2024-11-06T01:00:00	7	Dirección del viento	25.75
5199	7	Sololá	701	Sololá	3	Barraneche	1	Enero	2023-01-28T00:00:00	2024-11-06T01:00:00	1	Precipitación	0
5200	7	Sololá	701	Sololá	3	Barraneche	1	Enero	2023-01-28T00:00:00	2024-11-06T01:00:00	8	Radiación solar	0
5201	7	Sololá	701	Sololá	3	Barraneche	1	Enero	2023-01-28T00:00:00	2024-11-06T02:00:00	2	Temperatura media	11
5202	7	Sololá	701	Sololá	3	Barraneche	1	Enero	2023-01-28T00:00:00	2024-11-06T02:00:00	4	Temperatura máxima	11.3
5203	7	Sololá	701	Sololá	3	Barraneche	1	Enero	2023-01-28T00:00:00	2024-11-06T02:00:00	3	Temperatura mínima	10.7
5204	7	Sololá	701	Sololá	3	Barraneche	1	Enero	2023-01-28T00:00:00	2024-11-06T02:00:00	5	Humedad	45
5205	7	Sololá	701	Sololá	3	Barraneche	1	Enero	2023-01-28T00:00:00	2024-11-06T02:00:00	6	Velocidad del viento	22.5
5206	7	Sololá	701	Sololá	3	Barraneche	1	Enero	2023-01-28T00:00:00	2024-11-06T02:00:00	7	Dirección del viento	22.53
5207	7	Sololá	701	Sololá	3	Barraneche	1	Enero	2023-01-28T00:00:00	2024-11-06T02:00:00	1	Precipitación	0
5208	7	Sololá	701	Sololá	3	Barraneche	1	Enero	2023-01-28T00:00:00	2024-11-06T02:00:00	8	Radiación solar	0
5209	7	Sololá	701	Sololá	3	Barraneche	1	Enero	2023-01-28T00:00:00	2024-11-06T03:00:00	2	Temperatura media	11.4
5210	7	Sololá	701	Sololá	3	Barraneche	1	Enero	2023-01-28T00:00:00	2024-11-06T03:00:00	4	Temperatura máxima	11.8
5211	7	Sololá	701	Sololá	3	Barraneche	1	Enero	2023-01-28T00:00:00	2024-11-06T03:00:00	3	Temperatura mínima	10.9
5212	7	Sololá	701	Sololá	3	Barraneche	1	Enero	2023-01-28T00:00:00	2024-11-06T03:00:00	5	Humedad	45
5213	7	Sololá	701	Sololá	3	Barraneche	1	Enero	2023-01-28T00:00:00	2024-11-06T03:00:00	6	Velocidad del viento	24.1
5214	7	Sololá	701	Sololá	3	Barraneche	1	Enero	2023-01-28T00:00:00	2024-11-06T03:00:00	7	Dirección del viento	24.14
5215	7	Sololá	701	Sololá	3	Barraneche	1	Enero	2023-01-28T00:00:00	2024-11-06T03:00:00	1	Precipitación	0
5216	7	Sololá	701	Sololá	3	Barraneche	1	Enero	2023-01-28T00:00:00	2024-11-06T03:00:00	8	Radiación solar	0
5217	7	Sololá	701	Sololá	3	Barraneche	1	Enero	2023-01-28T00:00:00	2024-11-06T04:00:00	2	Temperatura media	10.4
5218	7	Sololá	701	Sololá	3	Barraneche	1	Enero	2023-01-28T00:00:00	2024-11-06T04:00:00	4	Temperatura máxima	11.6
5219	7	Sololá	701	Sololá	3	Barraneche	1	Enero	2023-01-28T00:00:00	2024-11-06T04:00:00	3	Temperatura mínima	10.4
5220	7	Sololá	701	Sololá	3	Barraneche	1	Enero	2023-01-28T00:00:00	2024-11-06T04:00:00	5	Humedad	62
5221	7	Sololá	701	Sololá	3	Barraneche	1	Enero	2023-01-28T00:00:00	2024-11-06T04:00:00	6	Velocidad del viento	27.4
5222	7	Sololá	701	Sololá	3	Barraneche	1	Enero	2023-01-28T00:00:00	2024-11-06T04:00:00	7	Dirección del viento	27.36
5223	7	Sololá	701	Sololá	3	Barraneche	1	Enero	2023-01-28T00:00:00	2024-11-06T04:00:00	1	Precipitación	0
5224	7	Sololá	701	Sololá	3	Barraneche	1	Enero	2023-01-28T00:00:00	2024-11-06T04:00:00	8	Radiación solar	0
5225	7	Sololá	701	Sololá	3	Barraneche	1	Enero	2023-01-28T00:00:00	2024-11-06T05:00:00	2	Temperatura media	10.3
5226	7	Sololá	701	Sololá	3	Barraneche	1	Enero	2023-01-28T00:00:00	2024-11-06T05:00:00	4	Temperatura máxima	10.5
5227	7	Sololá	701	Sololá	3	Barraneche	1	Enero	2023-01-28T00:00:00	2024-11-06T05:00:00	3	Temperatura mínima	10
5228	7	Sololá	701	Sololá	3	Barraneche	1	Enero	2023-01-28T00:00:00	2024-11-06T05:00:00	5	Humedad	70
5229	7	Sololá	701	Sololá	3	Barraneche	1	Enero	2023-01-28T00:00:00	2024-11-06T05:00:00	6	Velocidad del viento	35.4
5230	7	Sololá	701	Sololá	3	Barraneche	1	Enero	2023-01-28T00:00:00	2024-11-06T05:00:00	7	Dirección del viento	35.41
5231	7	Sololá	701	Sololá	3	Barraneche	1	Enero	2023-01-28T00:00:00	2024-11-06T05:00:00	1	Precipitación	0
5232	7	Sololá	701	Sololá	3	Barraneche	1	Enero	2023-01-28T00:00:00	2024-11-06T05:00:00	8	Radiación solar	0
5233	7	Sololá	701	Sololá	3	Barraneche	1	Enero	2023-01-28T00:00:00	2024-11-06T06:00:00	2	Temperatura media	11.1
5234	7	Sololá	701	Sololá	3	Barraneche	1	Enero	2023-01-28T00:00:00	2024-11-06T06:00:00	4	Temperatura máxima	11.2
5235	7	Sololá	701	Sololá	3	Barraneche	1	Enero	2023-01-28T00:00:00	2024-11-06T06:00:00	3	Temperatura mínima	10.2
5236	7	Sololá	701	Sololá	3	Barraneche	1	Enero	2023-01-28T00:00:00	2024-11-06T06:00:00	5	Humedad	65
5237	7	Sololá	701	Sololá	3	Barraneche	1	Enero	2023-01-28T00:00:00	2024-11-06T06:00:00	6	Velocidad del viento	32.2
5238	7	Sololá	701	Sololá	3	Barraneche	1	Enero	2023-01-28T00:00:00	2024-11-06T06:00:00	7	Dirección del viento	32.19
5239	7	Sololá	701	Sololá	3	Barraneche	1	Enero	2023-01-28T00:00:00	2024-11-06T06:00:00	1	Precipitación	0
5240	7	Sololá	701	Sololá	3	Barraneche	1	Enero	2023-01-28T00:00:00	2024-11-06T06:00:00	8	Radiación solar	0
5241	7	Sololá	701	Sololá	3	Barraneche	1	Enero	2023-01-28T00:00:00	2024-11-06T07:00:00	2	Temperatura media	11.1
5242	7	Sololá	701	Sololá	3	Barraneche	1	Enero	2023-01-28T00:00:00	2024-11-06T07:00:00	4	Temperatura máxima	11.4
5243	7	Sololá	701	Sololá	3	Barraneche	1	Enero	2023-01-28T00:00:00	2024-11-06T07:00:00	3	Temperatura mínima	10.9
5244	7	Sololá	701	Sololá	3	Barraneche	1	Enero	2023-01-28T00:00:00	2024-11-06T07:00:00	5	Humedad	65
5245	7	Sololá	701	Sololá	3	Barraneche	1	Enero	2023-01-28T00:00:00	2024-11-06T07:00:00	6	Velocidad del viento	30.6
5246	7	Sololá	701	Sololá	3	Barraneche	1	Enero	2023-01-28T00:00:00	2024-11-06T07:00:00	7	Dirección del viento	30.58
5247	7	Sololá	701	Sololá	3	Barraneche	1	Enero	2023-01-28T00:00:00	2024-11-06T07:00:00	1	Precipitación	0
5248	7	Sololá	701	Sololá	3	Barraneche	1	Enero	2023-01-28T00:00:00	2024-11-06T07:00:00	8	Radiación solar	5
5249	7	Sololá	701	Sololá	3	Barraneche	1	Enero	2023-01-28T00:00:00	2024-11-06T08:00:00	2	Temperatura media	12.8
5250	7	Sololá	701	Sololá	3	Barraneche	1	Enero	2023-01-28T00:00:00	2024-11-06T08:00:00	4	Temperatura máxima	12.9
5251	7	Sololá	701	Sololá	3	Barraneche	1	Enero	2023-01-28T00:00:00	2024-11-06T08:00:00	3	Temperatura mínima	11.1
5252	7	Sololá	701	Sololá	3	Barraneche	1	Enero	2023-01-28T00:00:00	2024-11-06T08:00:00	5	Humedad	62
5253	7	Sololá	701	Sololá	3	Barraneche	1	Enero	2023-01-28T00:00:00	2024-11-06T08:00:00	6	Velocidad del viento	32.2
5254	7	Sololá	701	Sololá	3	Barraneche	1	Enero	2023-01-28T00:00:00	2024-11-06T08:00:00	7	Dirección del viento	32.19
5255	7	Sololá	701	Sololá	3	Barraneche	1	Enero	2023-01-28T00:00:00	2024-11-06T08:00:00	1	Precipitación	0
5256	7	Sololá	701	Sololá	3	Barraneche	1	Enero	2023-01-28T00:00:00	2024-11-06T08:00:00	8	Radiación solar	149
5257	7	Sololá	701	Sololá	3	Barraneche	1	Enero	2023-01-28T00:00:00	2024-11-06T09:00:00	2	Temperatura media	13.7
5258	7	Sololá	701	Sololá	3	Barraneche	1	Enero	2023-01-28T00:00:00	2024-11-06T09:00:00	4	Temperatura máxima	13.8
5259	7	Sololá	701	Sololá	3	Barraneche	1	Enero	2023-01-28T00:00:00	2024-11-06T09:00:00	3	Temperatura mínima	12.8
5260	7	Sololá	701	Sololá	3	Barraneche	1	Enero	2023-01-28T00:00:00	2024-11-06T09:00:00	5	Humedad	58
5261	7	Sololá	701	Sololá	3	Barraneche	1	Enero	2023-01-28T00:00:00	2024-11-06T09:00:00	6	Velocidad del viento	32.2
5262	7	Sololá	701	Sololá	3	Barraneche	1	Enero	2023-01-28T00:00:00	2024-11-06T09:00:00	7	Dirección del viento	32.19
5263	7	Sololá	701	Sololá	3	Barraneche	1	Enero	2023-01-28T00:00:00	2024-11-06T09:00:00	1	Precipitación	0
5264	7	Sololá	701	Sololá	3	Barraneche	1	Enero	2023-01-28T00:00:00	2024-11-06T09:00:00	8	Radiación solar	414
5265	7	Sololá	701	Sololá	3	Barraneche	1	Enero	2023-01-28T00:00:00	2024-11-06T10:00:00	2	Temperatura media	15.4
5266	7	Sololá	701	Sololá	3	Barraneche	1	Enero	2023-01-28T00:00:00	2024-11-06T10:00:00	4	Temperatura máxima	15.7
5267	7	Sololá	701	Sololá	3	Barraneche	1	Enero	2023-01-28T00:00:00	2024-11-06T10:00:00	3	Temperatura mínima	13.4
5268	7	Sololá	701	Sololá	3	Barraneche	1	Enero	2023-01-28T00:00:00	2024-11-06T10:00:00	5	Humedad	26
5269	7	Sololá	701	Sololá	3	Barraneche	1	Enero	2023-01-28T00:00:00	2024-11-06T10:00:00	6	Velocidad del viento	27.4
5270	7	Sololá	701	Sololá	3	Barraneche	1	Enero	2023-01-28T00:00:00	2024-11-06T10:00:00	7	Dirección del viento	27.36
5271	7	Sololá	701	Sololá	3	Barraneche	1	Enero	2023-01-28T00:00:00	2024-11-06T10:00:00	1	Precipitación	0
5272	7	Sololá	701	Sololá	3	Barraneche	1	Enero	2023-01-28T00:00:00	2024-11-06T10:00:00	8	Radiación solar	635
5273	7	Sololá	701	Sololá	3	Barraneche	1	Enero	2023-01-28T00:00:00	2024-11-06T11:00:00	2	Temperatura media	16.8
5274	7	Sololá	701	Sololá	3	Barraneche	1	Enero	2023-01-28T00:00:00	2024-11-06T11:00:00	4	Temperatura máxima	17.4
5275	7	Sololá	701	Sololá	3	Barraneche	1	Enero	2023-01-28T00:00:00	2024-11-06T11:00:00	3	Temperatura mínima	15.4
5276	7	Sololá	701	Sololá	3	Barraneche	1	Enero	2023-01-28T00:00:00	2024-11-06T11:00:00	5	Humedad	21
5277	7	Sololá	701	Sololá	3	Barraneche	1	Enero	2023-01-28T00:00:00	2024-11-06T11:00:00	6	Velocidad del viento	20.9
5278	7	Sololá	701	Sololá	3	Barraneche	1	Enero	2023-01-28T00:00:00	2024-11-06T11:00:00	7	Dirección del viento	20.92
5279	7	Sololá	701	Sololá	3	Barraneche	1	Enero	2023-01-28T00:00:00	2024-11-06T11:00:00	1	Precipitación	0
5280	7	Sololá	701	Sololá	3	Barraneche	1	Enero	2023-01-28T00:00:00	2024-11-06T11:00:00	8	Radiación solar	800
5281	7	Sololá	701	Sololá	3	Barraneche	1	Enero	2023-01-28T00:00:00	2024-11-06T12:00:00	2	Temperatura media	17.3
5282	7	Sololá	701	Sololá	3	Barraneche	1	Enero	2023-01-28T00:00:00	2024-11-06T12:00:00	4	Temperatura máxima	18.2
5283	7	Sololá	701	Sololá	3	Barraneche	1	Enero	2023-01-28T00:00:00	2024-11-06T12:00:00	3	Temperatura mínima	16.6
5284	7	Sololá	701	Sololá	3	Barraneche	1	Enero	2023-01-28T00:00:00	2024-11-06T12:00:00	5	Humedad	24
5285	7	Sololá	701	Sololá	3	Barraneche	1	Enero	2023-01-28T00:00:00	2024-11-06T12:00:00	6	Velocidad del viento	16.1
5286	7	Sololá	701	Sololá	3	Barraneche	1	Enero	2023-01-28T00:00:00	2024-11-06T12:00:00	7	Dirección del viento	16.09
5287	7	Sololá	701	Sololá	3	Barraneche	1	Enero	2023-01-28T00:00:00	2024-11-06T12:00:00	1	Precipitación	0
5288	7	Sololá	701	Sololá	3	Barraneche	1	Enero	2023-01-28T00:00:00	2024-11-06T12:00:00	8	Radiación solar	890
5289	7	Sololá	701	Sololá	3	Barraneche	1	Enero	2023-01-28T00:00:00	2024-11-06T13:00:00	2	Temperatura media	17.3
5290	7	Sololá	701	Sololá	3	Barraneche	1	Enero	2023-01-28T00:00:00	2024-11-06T13:00:00	4	Temperatura máxima	17.9
5291	7	Sololá	701	Sololá	3	Barraneche	1	Enero	2023-01-28T00:00:00	2024-11-06T13:00:00	3	Temperatura mínima	16.9
5292	7	Sololá	701	Sololá	3	Barraneche	1	Enero	2023-01-28T00:00:00	2024-11-06T13:00:00	5	Humedad	26
5293	7	Sololá	701	Sololá	3	Barraneche	1	Enero	2023-01-28T00:00:00	2024-11-06T13:00:00	6	Velocidad del viento	16.1
5294	7	Sololá	701	Sololá	3	Barraneche	1	Enero	2023-01-28T00:00:00	2024-11-06T13:00:00	7	Dirección del viento	16.09
5295	7	Sololá	701	Sololá	3	Barraneche	1	Enero	2023-01-28T00:00:00	2024-11-06T13:00:00	1	Precipitación	0
5296	7	Sololá	701	Sololá	3	Barraneche	1	Enero	2023-01-28T00:00:00	2024-11-06T13:00:00	8	Radiación solar	904
5297	7	Sololá	701	Sololá	3	Barraneche	1	Enero	2023-01-28T00:00:00	2024-11-06T14:00:00	2	Temperatura media	18.1
5298	7	Sololá	701	Sololá	3	Barraneche	1	Enero	2023-01-28T00:00:00	2024-11-06T14:00:00	4	Temperatura máxima	18.6
5299	7	Sololá	701	Sololá	3	Barraneche	1	Enero	2023-01-28T00:00:00	2024-11-06T14:00:00	3	Temperatura mínima	17.2
5300	7	Sololá	701	Sololá	3	Barraneche	1	Enero	2023-01-28T00:00:00	2024-11-06T14:00:00	5	Humedad	24
5301	7	Sololá	701	Sololá	3	Barraneche	1	Enero	2023-01-28T00:00:00	2024-11-06T14:00:00	6	Velocidad del viento	14.5
5302	7	Sololá	701	Sololá	3	Barraneche	1	Enero	2023-01-28T00:00:00	2024-11-06T14:00:00	7	Dirección del viento	14.48
5303	7	Sololá	701	Sololá	3	Barraneche	1	Enero	2023-01-28T00:00:00	2024-11-06T14:00:00	1	Precipitación	0
5304	7	Sololá	701	Sololá	3	Barraneche	1	Enero	2023-01-28T00:00:00	2024-11-06T14:00:00	8	Radiación solar	845
5305	7	Sololá	701	Sololá	3	Barraneche	1	Enero	2023-01-28T00:00:00	2024-11-06T15:00:00	2	Temperatura media	18.2
5306	7	Sololá	701	Sololá	3	Barraneche	1	Enero	2023-01-28T00:00:00	2024-11-06T15:00:00	4	Temperatura máxima	18.5
5307	7	Sololá	701	Sololá	3	Barraneche	1	Enero	2023-01-28T00:00:00	2024-11-06T15:00:00	3	Temperatura mínima	17.9
5308	7	Sololá	701	Sololá	3	Barraneche	1	Enero	2023-01-28T00:00:00	2024-11-06T15:00:00	5	Humedad	25
5309	7	Sololá	701	Sololá	3	Barraneche	1	Enero	2023-01-28T00:00:00	2024-11-06T15:00:00	6	Velocidad del viento	12.9
5310	7	Sololá	701	Sololá	3	Barraneche	1	Enero	2023-01-28T00:00:00	2024-11-06T15:00:00	7	Dirección del viento	12.87
5311	7	Sololá	701	Sololá	3	Barraneche	1	Enero	2023-01-28T00:00:00	2024-11-06T15:00:00	1	Precipitación	0
5312	7	Sololá	701	Sololá	3	Barraneche	1	Enero	2023-01-28T00:00:00	2024-11-06T15:00:00	8	Radiación solar	711
5313	7	Sololá	701	Sololá	3	Barraneche	1	Enero	2023-01-28T00:00:00	2024-11-06T16:00:00	2	Temperatura media	16.8
5314	7	Sololá	701	Sololá	3	Barraneche	1	Enero	2023-01-28T00:00:00	2024-11-06T16:00:00	4	Temperatura máxima	18.3
5315	7	Sololá	701	Sololá	3	Barraneche	1	Enero	2023-01-28T00:00:00	2024-11-06T16:00:00	3	Temperatura mínima	16.8
5316	7	Sololá	701	Sololá	3	Barraneche	1	Enero	2023-01-28T00:00:00	2024-11-06T16:00:00	5	Humedad	31
5317	7	Sololá	701	Sololá	3	Barraneche	1	Enero	2023-01-28T00:00:00	2024-11-06T16:00:00	6	Velocidad del viento	14.5
5318	7	Sololá	701	Sololá	3	Barraneche	1	Enero	2023-01-28T00:00:00	2024-11-06T16:00:00	7	Dirección del viento	14.48
5319	7	Sololá	701	Sololá	3	Barraneche	1	Enero	2023-01-28T00:00:00	2024-11-06T16:00:00	1	Precipitación	0
5320	7	Sololá	701	Sololá	3	Barraneche	1	Enero	2023-01-28T00:00:00	2024-11-06T16:00:00	8	Radiación solar	520
5321	7	Sololá	701	Sololá	3	Barraneche	1	Enero	2023-01-28T00:00:00	2024-11-06T17:00:00	2	Temperatura media	15.7
5322	7	Sololá	701	Sololá	3	Barraneche	1	Enero	2023-01-28T00:00:00	2024-11-06T17:00:00	4	Temperatura máxima	16.8
5323	7	Sololá	701	Sololá	3	Barraneche	1	Enero	2023-01-28T00:00:00	2024-11-06T17:00:00	3	Temperatura mínima	15.7
5324	7	Sololá	701	Sololá	3	Barraneche	1	Enero	2023-01-28T00:00:00	2024-11-06T17:00:00	5	Humedad	39
5325	7	Sololá	701	Sololá	3	Barraneche	1	Enero	2023-01-28T00:00:00	2024-11-06T17:00:00	6	Velocidad del viento	14.5
5326	7	Sololá	701	Sololá	3	Barraneche	1	Enero	2023-01-28T00:00:00	2024-11-06T17:00:00	7	Dirección del viento	14.48
5327	7	Sololá	701	Sololá	3	Barraneche	1	Enero	2023-01-28T00:00:00	2024-11-06T17:00:00	1	Precipitación	0
5328	7	Sololá	701	Sololá	3	Barraneche	1	Enero	2023-01-28T00:00:00	2024-11-06T17:00:00	8	Radiación solar	297
5329	7	Sololá	701	Sololá	3	Barraneche	1	Enero	2023-01-28T00:00:00	2024-11-06T18:00:00	2	Temperatura media	13.2
5330	7	Sololá	701	Sololá	3	Barraneche	1	Enero	2023-01-28T00:00:00	2024-11-06T18:00:00	4	Temperatura máxima	15.7
5331	7	Sololá	701	Sololá	3	Barraneche	1	Enero	2023-01-28T00:00:00	2024-11-06T18:00:00	3	Temperatura mínima	13.2
5332	7	Sololá	701	Sololá	3	Barraneche	1	Enero	2023-01-28T00:00:00	2024-11-06T18:00:00	5	Humedad	42
5333	7	Sololá	701	Sololá	3	Barraneche	1	Enero	2023-01-28T00:00:00	2024-11-06T18:00:00	6	Velocidad del viento	20.9
5334	7	Sololá	701	Sololá	3	Barraneche	1	Enero	2023-01-28T00:00:00	2024-11-06T18:00:00	7	Dirección del viento	20.92
5335	7	Sololá	701	Sololá	3	Barraneche	1	Enero	2023-01-28T00:00:00	2024-11-06T18:00:00	1	Precipitación	0
5336	7	Sololá	701	Sololá	3	Barraneche	1	Enero	2023-01-28T00:00:00	2024-11-06T18:00:00	8	Radiación solar	60
5337	7	Sololá	701	Sololá	3	Barraneche	1	Enero	2023-01-28T00:00:00	2024-11-06T19:00:00	2	Temperatura media	12
5338	7	Sololá	701	Sololá	3	Barraneche	1	Enero	2023-01-28T00:00:00	2024-11-06T19:00:00	4	Temperatura máxima	13.2
5339	7	Sololá	701	Sololá	3	Barraneche	1	Enero	2023-01-28T00:00:00	2024-11-06T19:00:00	3	Temperatura mínima	11.9
5340	7	Sololá	701	Sololá	3	Barraneche	1	Enero	2023-01-28T00:00:00	2024-11-06T19:00:00	5	Humedad	52
5341	7	Sololá	701	Sololá	3	Barraneche	1	Enero	2023-01-28T00:00:00	2024-11-06T19:00:00	6	Velocidad del viento	20.9
5342	7	Sololá	701	Sololá	3	Barraneche	1	Enero	2023-01-28T00:00:00	2024-11-06T19:00:00	7	Dirección del viento	20.92
5343	7	Sololá	701	Sololá	3	Barraneche	1	Enero	2023-01-28T00:00:00	2024-11-06T19:00:00	1	Precipitación	0
5344	7	Sololá	701	Sololá	3	Barraneche	1	Enero	2023-01-28T00:00:00	2024-11-06T19:00:00	8	Radiación solar	0
5345	7	Sololá	701	Sololá	3	Barraneche	1	Enero	2023-01-28T00:00:00	2024-11-06T20:00:00	2	Temperatura media	12.9
5346	7	Sololá	701	Sololá	3	Barraneche	1	Enero	2023-01-28T00:00:00	2024-11-06T20:00:00	4	Temperatura máxima	12.9
5347	7	Sololá	701	Sololá	3	Barraneche	1	Enero	2023-01-28T00:00:00	2024-11-06T20:00:00	3	Temperatura mínima	12
5348	7	Sololá	701	Sololá	3	Barraneche	1	Enero	2023-01-28T00:00:00	2024-11-06T20:00:00	5	Humedad	41
5349	7	Sololá	701	Sololá	3	Barraneche	1	Enero	2023-01-28T00:00:00	2024-11-06T20:00:00	6	Velocidad del viento	17.7
5350	7	Sololá	701	Sololá	3	Barraneche	1	Enero	2023-01-28T00:00:00	2024-11-06T20:00:00	7	Dirección del viento	17.7
5351	7	Sololá	701	Sololá	3	Barraneche	1	Enero	2023-01-28T00:00:00	2024-11-06T20:00:00	1	Precipitación	0
5352	7	Sololá	701	Sololá	3	Barraneche	1	Enero	2023-01-28T00:00:00	2024-11-06T20:00:00	8	Radiación solar	0
5353	7	Sololá	701	Sololá	3	Barraneche	1	Enero	2023-01-28T00:00:00	2024-11-06T21:00:00	2	Temperatura media	12.8
5354	7	Sololá	701	Sololá	3	Barraneche	1	Enero	2023-01-28T00:00:00	2024-11-06T21:00:00	4	Temperatura máxima	13.2
5355	7	Sololá	701	Sololá	3	Barraneche	1	Enero	2023-01-28T00:00:00	2024-11-06T21:00:00	3	Temperatura mínima	11.6
5356	7	Sololá	701	Sololá	3	Barraneche	1	Enero	2023-01-28T00:00:00	2024-11-06T21:00:00	5	Humedad	30
5357	7	Sololá	701	Sololá	3	Barraneche	1	Enero	2023-01-28T00:00:00	2024-11-06T21:00:00	6	Velocidad del viento	24.1
5358	7	Sololá	701	Sololá	3	Barraneche	1	Enero	2023-01-28T00:00:00	2024-11-06T21:00:00	7	Dirección del viento	24.14
5359	7	Sololá	701	Sololá	3	Barraneche	1	Enero	2023-01-28T00:00:00	2024-11-06T21:00:00	1	Precipitación	0
5360	7	Sololá	701	Sololá	3	Barraneche	1	Enero	2023-01-28T00:00:00	2024-11-06T21:00:00	8	Radiación solar	0
5361	7	Sololá	701	Sololá	3	Barraneche	1	Enero	2023-01-28T00:00:00	2024-11-06T22:00:00	2	Temperatura media	12.3
5362	7	Sololá	701	Sololá	3	Barraneche	1	Enero	2023-01-28T00:00:00	2024-11-06T22:00:00	4	Temperatura máxima	12.8
5363	7	Sololá	701	Sololá	3	Barraneche	1	Enero	2023-01-28T00:00:00	2024-11-06T22:00:00	3	Temperatura mínima	11.6
5364	7	Sololá	701	Sololá	3	Barraneche	1	Enero	2023-01-28T00:00:00	2024-11-06T22:00:00	5	Humedad	38
5365	7	Sololá	701	Sololá	3	Barraneche	1	Enero	2023-01-28T00:00:00	2024-11-06T22:00:00	6	Velocidad del viento	25.7
5366	7	Sololá	701	Sololá	3	Barraneche	1	Enero	2023-01-28T00:00:00	2024-11-06T22:00:00	7	Dirección del viento	25.75
5367	7	Sololá	701	Sololá	3	Barraneche	1	Enero	2023-01-28T00:00:00	2024-11-06T22:00:00	1	Precipitación	0
5368	7	Sololá	701	Sololá	3	Barraneche	1	Enero	2023-01-28T00:00:00	2024-11-06T22:00:00	8	Radiación solar	0
5369	7	Sololá	701	Sololá	3	Barraneche	1	Enero	2023-01-28T00:00:00	2024-11-06T23:00:00	2	Temperatura media	12.4
5370	7	Sololá	701	Sololá	3	Barraneche	1	Enero	2023-01-28T00:00:00	2024-11-06T23:00:00	4	Temperatura máxima	12.7
5371	7	Sololá	701	Sololá	3	Barraneche	1	Enero	2023-01-28T00:00:00	2024-11-06T23:00:00	3	Temperatura mínima	12
5372	7	Sololá	701	Sololá	3	Barraneche	1	Enero	2023-01-28T00:00:00	2024-11-06T23:00:00	5	Humedad	23
5373	7	Sololá	701	Sololá	3	Barraneche	1	Enero	2023-01-28T00:00:00	2024-11-06T23:00:00	6	Velocidad del viento	14.5
5374	7	Sololá	701	Sololá	3	Barraneche	1	Enero	2023-01-28T00:00:00	2024-11-06T23:00:00	7	Dirección del viento	14.48
5375	7	Sololá	701	Sololá	3	Barraneche	1	Enero	2023-01-28T00:00:00	2024-11-06T23:00:00	1	Precipitación	0
5376	7	Sololá	701	Sololá	3	Barraneche	1	Enero	2023-01-28T00:00:00	2024-11-06T23:00:00	8	Radiación solar	0
5377	7	Sololá	701	Sololá	3	Barraneche	1	Enero	2023-01-29T00:00:00	2024-11-06T00:00:00	2	Temperatura media	13.1
5378	7	Sololá	701	Sololá	3	Barraneche	1	Enero	2023-01-29T00:00:00	2024-11-06T00:00:00	4	Temperatura máxima	13.6
5379	7	Sololá	701	Sololá	3	Barraneche	1	Enero	2023-01-29T00:00:00	2024-11-06T00:00:00	3	Temperatura mínima	12.3
5380	7	Sololá	701	Sololá	3	Barraneche	1	Enero	2023-01-29T00:00:00	2024-11-06T00:00:00	5	Humedad	4
5381	7	Sololá	701	Sololá	3	Barraneche	1	Enero	2023-01-29T00:00:00	2024-11-06T00:00:00	6	Velocidad del viento	24.1
5382	7	Sololá	701	Sololá	3	Barraneche	1	Enero	2023-01-29T00:00:00	2024-11-06T00:00:00	7	Dirección del viento	24.14
5383	7	Sololá	701	Sololá	3	Barraneche	1	Enero	2023-01-29T00:00:00	2024-11-06T00:00:00	1	Precipitación	0
5384	7	Sololá	701	Sololá	3	Barraneche	1	Enero	2023-01-29T00:00:00	2024-11-06T00:00:00	8	Radiación solar	0
5385	7	Sololá	701	Sololá	3	Barraneche	1	Enero	2023-01-29T00:00:00	2024-11-06T01:00:00	2	Temperatura media	13.7
5386	7	Sololá	701	Sololá	3	Barraneche	1	Enero	2023-01-29T00:00:00	2024-11-06T01:00:00	4	Temperatura máxima	14.2
5387	7	Sololá	701	Sololá	3	Barraneche	1	Enero	2023-01-29T00:00:00	2024-11-06T01:00:00	3	Temperatura mínima	12.7
5388	7	Sololá	701	Sololá	3	Barraneche	1	Enero	2023-01-29T00:00:00	2024-11-06T01:00:00	5	Humedad	6
5389	7	Sololá	701	Sololá	3	Barraneche	1	Enero	2023-01-29T00:00:00	2024-11-06T01:00:00	6	Velocidad del viento	20.9
5390	7	Sololá	701	Sololá	3	Barraneche	1	Enero	2023-01-29T00:00:00	2024-11-06T01:00:00	7	Dirección del viento	20.92
5391	7	Sololá	701	Sololá	3	Barraneche	1	Enero	2023-01-29T00:00:00	2024-11-06T01:00:00	1	Precipitación	0
5392	7	Sololá	701	Sololá	3	Barraneche	1	Enero	2023-01-29T00:00:00	2024-11-06T01:00:00	8	Radiación solar	0
5393	7	Sololá	701	Sololá	3	Barraneche	1	Enero	2023-01-29T00:00:00	2024-11-06T02:00:00	2	Temperatura media	9.8
5394	7	Sololá	701	Sololá	3	Barraneche	1	Enero	2023-01-29T00:00:00	2024-11-06T02:00:00	4	Temperatura máxima	13.7
5395	7	Sololá	701	Sololá	3	Barraneche	1	Enero	2023-01-29T00:00:00	2024-11-06T02:00:00	3	Temperatura mínima	9.8
5396	7	Sololá	701	Sololá	3	Barraneche	1	Enero	2023-01-29T00:00:00	2024-11-06T02:00:00	5	Humedad	19
5397	7	Sololá	701	Sololá	3	Barraneche	1	Enero	2023-01-29T00:00:00	2024-11-06T02:00:00	6	Velocidad del viento	8
5398	7	Sololá	701	Sololá	3	Barraneche	1	Enero	2023-01-29T00:00:00	2024-11-06T02:00:00	7	Dirección del viento	8.05
5399	7	Sololá	701	Sololá	3	Barraneche	1	Enero	2023-01-29T00:00:00	2024-11-06T02:00:00	1	Precipitación	0
5400	7	Sololá	701	Sololá	3	Barraneche	1	Enero	2023-01-29T00:00:00	2024-11-06T02:00:00	8	Radiación solar	0
5401	7	Sololá	701	Sololá	3	Barraneche	1	Enero	2023-01-29T00:00:00	2024-11-06T03:00:00	2	Temperatura media	8.8
5402	7	Sololá	701	Sololá	3	Barraneche	1	Enero	2023-01-29T00:00:00	2024-11-06T03:00:00	4	Temperatura máxima	9.8
5403	7	Sololá	701	Sololá	3	Barraneche	1	Enero	2023-01-29T00:00:00	2024-11-06T03:00:00	3	Temperatura mínima	8.4
5404	7	Sololá	701	Sololá	3	Barraneche	1	Enero	2023-01-29T00:00:00	2024-11-06T03:00:00	5	Humedad	23
5405	7	Sololá	701	Sololá	3	Barraneche	1	Enero	2023-01-29T00:00:00	2024-11-06T03:00:00	6	Velocidad del viento	4.8
5406	7	Sololá	701	Sololá	3	Barraneche	1	Enero	2023-01-29T00:00:00	2024-11-06T03:00:00	7	Dirección del viento	4.83
5407	7	Sololá	701	Sololá	3	Barraneche	1	Enero	2023-01-29T00:00:00	2024-11-06T03:00:00	1	Precipitación	0
5408	7	Sololá	701	Sololá	3	Barraneche	1	Enero	2023-01-29T00:00:00	2024-11-06T03:00:00	8	Radiación solar	0
5409	7	Sololá	701	Sololá	3	Barraneche	1	Enero	2023-01-29T00:00:00	2024-11-06T04:00:00	2	Temperatura media	8.1
5410	7	Sololá	701	Sololá	3	Barraneche	1	Enero	2023-01-29T00:00:00	2024-11-06T04:00:00	4	Temperatura máxima	8.9
5411	7	Sololá	701	Sololá	3	Barraneche	1	Enero	2023-01-29T00:00:00	2024-11-06T04:00:00	3	Temperatura mínima	7.6
5412	7	Sololá	701	Sololá	3	Barraneche	1	Enero	2023-01-29T00:00:00	2024-11-06T04:00:00	5	Humedad	27
5413	7	Sololá	701	Sololá	3	Barraneche	1	Enero	2023-01-29T00:00:00	2024-11-06T04:00:00	6	Velocidad del viento	4.8
5414	7	Sololá	701	Sololá	3	Barraneche	1	Enero	2023-01-29T00:00:00	2024-11-06T04:00:00	7	Dirección del viento	4.83
5415	7	Sololá	701	Sololá	3	Barraneche	1	Enero	2023-01-29T00:00:00	2024-11-06T04:00:00	1	Precipitación	0
5416	7	Sololá	701	Sololá	3	Barraneche	1	Enero	2023-01-29T00:00:00	2024-11-06T04:00:00	8	Radiación solar	0
5417	7	Sololá	701	Sololá	3	Barraneche	1	Enero	2023-01-29T00:00:00	2024-11-06T05:00:00	2	Temperatura media	7.3
5418	7	Sololá	701	Sololá	3	Barraneche	1	Enero	2023-01-29T00:00:00	2024-11-06T05:00:00	4	Temperatura máxima	8.1
5419	7	Sololá	701	Sololá	3	Barraneche	1	Enero	2023-01-29T00:00:00	2024-11-06T05:00:00	3	Temperatura mínima	7.1
5420	7	Sololá	701	Sololá	3	Barraneche	1	Enero	2023-01-29T00:00:00	2024-11-06T05:00:00	5	Humedad	26
5421	7	Sololá	701	Sololá	3	Barraneche	1	Enero	2023-01-29T00:00:00	2024-11-06T05:00:00	6	Velocidad del viento	6.4
5422	7	Sololá	701	Sololá	3	Barraneche	1	Enero	2023-01-29T00:00:00	2024-11-06T05:00:00	7	Dirección del viento	6.44
5423	7	Sololá	701	Sololá	3	Barraneche	1	Enero	2023-01-29T00:00:00	2024-11-06T05:00:00	1	Precipitación	0
5424	7	Sololá	701	Sololá	3	Barraneche	1	Enero	2023-01-29T00:00:00	2024-11-06T05:00:00	8	Radiación solar	0
5425	7	Sololá	701	Sololá	3	Barraneche	1	Enero	2023-01-29T00:00:00	2024-11-06T06:00:00	2	Temperatura media	6.2
5426	7	Sololá	701	Sololá	3	Barraneche	1	Enero	2023-01-29T00:00:00	2024-11-06T06:00:00	4	Temperatura máxima	8.2
5427	7	Sololá	701	Sololá	3	Barraneche	1	Enero	2023-01-29T00:00:00	2024-11-06T06:00:00	3	Temperatura mínima	6
5428	7	Sololá	701	Sololá	3	Barraneche	1	Enero	2023-01-29T00:00:00	2024-11-06T06:00:00	5	Humedad	31
5429	7	Sololá	701	Sololá	3	Barraneche	1	Enero	2023-01-29T00:00:00	2024-11-06T06:00:00	6	Velocidad del viento	6.4
5430	7	Sololá	701	Sololá	3	Barraneche	1	Enero	2023-01-29T00:00:00	2024-11-06T06:00:00	7	Dirección del viento	6.44
5431	7	Sololá	701	Sololá	3	Barraneche	1	Enero	2023-01-29T00:00:00	2024-11-06T06:00:00	1	Precipitación	0
5432	7	Sololá	701	Sololá	3	Barraneche	1	Enero	2023-01-29T00:00:00	2024-11-06T06:00:00	8	Radiación solar	0
5433	7	Sololá	701	Sololá	3	Barraneche	1	Enero	2023-01-29T00:00:00	2024-11-06T07:00:00	2	Temperatura media	6.8
5434	7	Sololá	701	Sololá	3	Barraneche	1	Enero	2023-01-29T00:00:00	2024-11-06T07:00:00	4	Temperatura máxima	7.2
5435	7	Sololá	701	Sololá	3	Barraneche	1	Enero	2023-01-29T00:00:00	2024-11-06T07:00:00	3	Temperatura mínima	5.9
5436	7	Sololá	701	Sololá	3	Barraneche	1	Enero	2023-01-29T00:00:00	2024-11-06T07:00:00	5	Humedad	28
5437	7	Sololá	701	Sololá	3	Barraneche	1	Enero	2023-01-29T00:00:00	2024-11-06T07:00:00	6	Velocidad del viento	6.4
5438	7	Sololá	701	Sololá	3	Barraneche	1	Enero	2023-01-29T00:00:00	2024-11-06T07:00:00	7	Dirección del viento	6.44
5439	7	Sololá	701	Sololá	3	Barraneche	1	Enero	2023-01-29T00:00:00	2024-11-06T07:00:00	1	Precipitación	0
5440	7	Sololá	701	Sololá	3	Barraneche	1	Enero	2023-01-29T00:00:00	2024-11-06T07:00:00	8	Radiación solar	5
5441	7	Sololá	701	Sololá	3	Barraneche	1	Enero	2023-01-29T00:00:00	2024-11-06T08:00:00	2	Temperatura media	12.9
5442	7	Sololá	701	Sololá	3	Barraneche	1	Enero	2023-01-29T00:00:00	2024-11-06T08:00:00	4	Temperatura máxima	13.2
5443	7	Sololá	701	Sololá	3	Barraneche	1	Enero	2023-01-29T00:00:00	2024-11-06T08:00:00	3	Temperatura mínima	6.8
5444	7	Sololá	701	Sololá	3	Barraneche	1	Enero	2023-01-29T00:00:00	2024-11-06T08:00:00	5	Humedad	19
5445	7	Sololá	701	Sololá	3	Barraneche	1	Enero	2023-01-29T00:00:00	2024-11-06T08:00:00	6	Velocidad del viento	4.8
5446	7	Sololá	701	Sololá	3	Barraneche	1	Enero	2023-01-29T00:00:00	2024-11-06T08:00:00	7	Dirección del viento	4.83
5447	7	Sololá	701	Sololá	3	Barraneche	1	Enero	2023-01-29T00:00:00	2024-11-06T08:00:00	1	Precipitación	0
5448	7	Sololá	701	Sololá	3	Barraneche	1	Enero	2023-01-29T00:00:00	2024-11-06T08:00:00	8	Radiación solar	157
5449	7	Sololá	701	Sololá	3	Barraneche	1	Enero	2023-01-29T00:00:00	2024-11-06T09:00:00	2	Temperatura media	16.5
5450	7	Sololá	701	Sololá	3	Barraneche	1	Enero	2023-01-29T00:00:00	2024-11-06T09:00:00	4	Temperatura máxima	16.5
5451	7	Sololá	701	Sololá	3	Barraneche	1	Enero	2023-01-29T00:00:00	2024-11-06T09:00:00	3	Temperatura mínima	12.9
5452	7	Sololá	701	Sololá	3	Barraneche	1	Enero	2023-01-29T00:00:00	2024-11-06T09:00:00	5	Humedad	10
5453	7	Sololá	701	Sololá	3	Barraneche	1	Enero	2023-01-29T00:00:00	2024-11-06T09:00:00	6	Velocidad del viento	9.7
5454	7	Sololá	701	Sololá	3	Barraneche	1	Enero	2023-01-29T00:00:00	2024-11-06T09:00:00	7	Dirección del viento	9.66
5455	7	Sololá	701	Sololá	3	Barraneche	1	Enero	2023-01-29T00:00:00	2024-11-06T09:00:00	1	Precipitación	0
5456	7	Sololá	701	Sololá	3	Barraneche	1	Enero	2023-01-29T00:00:00	2024-11-06T09:00:00	8	Radiación solar	426
5457	7	Sololá	701	Sololá	3	Barraneche	1	Enero	2023-01-29T00:00:00	2024-11-06T10:00:00	2	Temperatura media	17.6
5458	7	Sololá	701	Sololá	3	Barraneche	1	Enero	2023-01-29T00:00:00	2024-11-06T10:00:00	4	Temperatura máxima	17.6
5459	7	Sololá	701	Sololá	3	Barraneche	1	Enero	2023-01-29T00:00:00	2024-11-06T10:00:00	3	Temperatura mínima	16.4
5460	7	Sololá	701	Sololá	3	Barraneche	1	Enero	2023-01-29T00:00:00	2024-11-06T10:00:00	5	Humedad	11
5461	7	Sololá	701	Sololá	3	Barraneche	1	Enero	2023-01-29T00:00:00	2024-11-06T10:00:00	6	Velocidad del viento	11.3
5462	7	Sololá	701	Sololá	3	Barraneche	1	Enero	2023-01-29T00:00:00	2024-11-06T10:00:00	7	Dirección del viento	11.27
5463	7	Sololá	701	Sololá	3	Barraneche	1	Enero	2023-01-29T00:00:00	2024-11-06T10:00:00	1	Precipitación	0
5464	7	Sololá	701	Sololá	3	Barraneche	1	Enero	2023-01-29T00:00:00	2024-11-06T10:00:00	8	Radiación solar	642
5465	7	Sololá	701	Sololá	3	Barraneche	1	Enero	2023-01-29T00:00:00	2024-11-06T11:00:00	2	Temperatura media	18.6
5466	7	Sololá	701	Sololá	3	Barraneche	1	Enero	2023-01-29T00:00:00	2024-11-06T11:00:00	4	Temperatura máxima	18.7
5467	7	Sololá	701	Sololá	3	Barraneche	1	Enero	2023-01-29T00:00:00	2024-11-06T11:00:00	3	Temperatura mínima	17.3
5468	7	Sololá	701	Sololá	3	Barraneche	1	Enero	2023-01-29T00:00:00	2024-11-06T11:00:00	5	Humedad	11
5469	7	Sololá	701	Sololá	3	Barraneche	1	Enero	2023-01-29T00:00:00	2024-11-06T11:00:00	6	Velocidad del viento	8
5470	7	Sololá	701	Sololá	3	Barraneche	1	Enero	2023-01-29T00:00:00	2024-11-06T11:00:00	7	Dirección del viento	8.05
5471	7	Sololá	701	Sololá	3	Barraneche	1	Enero	2023-01-29T00:00:00	2024-11-06T11:00:00	1	Precipitación	0
5472	7	Sololá	701	Sololá	3	Barraneche	1	Enero	2023-01-29T00:00:00	2024-11-06T11:00:00	8	Radiación solar	806
5473	7	Sololá	701	Sololá	3	Barraneche	1	Enero	2023-01-29T00:00:00	2024-11-06T12:00:00	2	Temperatura media	18.6
5474	7	Sololá	701	Sololá	3	Barraneche	1	Enero	2023-01-29T00:00:00	2024-11-06T12:00:00	4	Temperatura máxima	18.9
5475	7	Sololá	701	Sololá	3	Barraneche	1	Enero	2023-01-29T00:00:00	2024-11-06T12:00:00	3	Temperatura mínima	18.3
5476	7	Sololá	701	Sololá	3	Barraneche	1	Enero	2023-01-29T00:00:00	2024-11-06T12:00:00	5	Humedad	19
5477	7	Sololá	701	Sololá	3	Barraneche	1	Enero	2023-01-29T00:00:00	2024-11-06T12:00:00	6	Velocidad del viento	11.3
5478	7	Sololá	701	Sololá	3	Barraneche	1	Enero	2023-01-29T00:00:00	2024-11-06T12:00:00	7	Dirección del viento	11.27
5479	7	Sololá	701	Sololá	3	Barraneche	1	Enero	2023-01-29T00:00:00	2024-11-06T12:00:00	1	Precipitación	0
5480	7	Sololá	701	Sololá	3	Barraneche	1	Enero	2023-01-29T00:00:00	2024-11-06T12:00:00	8	Radiación solar	903
5481	7	Sololá	701	Sololá	3	Barraneche	1	Enero	2023-01-29T00:00:00	2024-11-06T13:00:00	2	Temperatura media	19.2
5482	7	Sololá	701	Sololá	3	Barraneche	1	Enero	2023-01-29T00:00:00	2024-11-06T13:00:00	4	Temperatura máxima	19.8
5483	7	Sololá	701	Sololá	3	Barraneche	1	Enero	2023-01-29T00:00:00	2024-11-06T13:00:00	3	Temperatura mínima	18.2
5484	7	Sololá	701	Sololá	3	Barraneche	1	Enero	2023-01-29T00:00:00	2024-11-06T13:00:00	5	Humedad	19
5485	7	Sololá	701	Sololá	3	Barraneche	1	Enero	2023-01-29T00:00:00	2024-11-06T13:00:00	6	Velocidad del viento	11.3
5486	7	Sololá	701	Sololá	3	Barraneche	1	Enero	2023-01-29T00:00:00	2024-11-06T13:00:00	7	Dirección del viento	11.27
5487	7	Sololá	701	Sololá	3	Barraneche	1	Enero	2023-01-29T00:00:00	2024-11-06T13:00:00	1	Precipitación	0
5488	7	Sololá	701	Sololá	3	Barraneche	1	Enero	2023-01-29T00:00:00	2024-11-06T13:00:00	8	Radiación solar	919
5489	7	Sololá	701	Sololá	3	Barraneche	1	Enero	2023-01-29T00:00:00	2024-11-06T14:00:00	2	Temperatura media	19.7
5490	7	Sololá	701	Sololá	3	Barraneche	1	Enero	2023-01-29T00:00:00	2024-11-06T14:00:00	4	Temperatura máxima	20.1
5491	7	Sololá	701	Sololá	3	Barraneche	1	Enero	2023-01-29T00:00:00	2024-11-06T14:00:00	3	Temperatura mínima	18.8
5492	7	Sololá	701	Sololá	3	Barraneche	1	Enero	2023-01-29T00:00:00	2024-11-06T14:00:00	5	Humedad	17
5493	7	Sololá	701	Sololá	3	Barraneche	1	Enero	2023-01-29T00:00:00	2024-11-06T14:00:00	6	Velocidad del viento	9.7
5494	7	Sololá	701	Sololá	3	Barraneche	1	Enero	2023-01-29T00:00:00	2024-11-06T14:00:00	7	Dirección del viento	9.66
5495	7	Sololá	701	Sololá	3	Barraneche	1	Enero	2023-01-29T00:00:00	2024-11-06T14:00:00	1	Precipitación	0
5496	7	Sololá	701	Sololá	3	Barraneche	1	Enero	2023-01-29T00:00:00	2024-11-06T14:00:00	8	Radiación solar	860
5497	7	Sololá	701	Sololá	3	Barraneche	1	Enero	2023-01-29T00:00:00	2024-11-06T15:00:00	2	Temperatura media	18.1
5498	7	Sololá	701	Sololá	3	Barraneche	1	Enero	2023-01-29T00:00:00	2024-11-06T15:00:00	4	Temperatura máxima	20.1
5499	7	Sololá	701	Sololá	3	Barraneche	1	Enero	2023-01-29T00:00:00	2024-11-06T15:00:00	3	Temperatura mínima	18.1
5500	7	Sololá	701	Sololá	3	Barraneche	1	Enero	2023-01-29T00:00:00	2024-11-06T15:00:00	5	Humedad	43
5501	7	Sololá	701	Sololá	3	Barraneche	1	Enero	2023-01-29T00:00:00	2024-11-06T15:00:00	6	Velocidad del viento	12.9
5502	7	Sololá	701	Sololá	3	Barraneche	1	Enero	2023-01-29T00:00:00	2024-11-06T15:00:00	7	Dirección del viento	12.87
5503	7	Sololá	701	Sololá	3	Barraneche	1	Enero	2023-01-29T00:00:00	2024-11-06T15:00:00	1	Precipitación	0
5504	7	Sololá	701	Sololá	3	Barraneche	1	Enero	2023-01-29T00:00:00	2024-11-06T15:00:00	8	Radiación solar	718
5505	7	Sololá	701	Sololá	3	Barraneche	1	Enero	2023-01-29T00:00:00	2024-11-06T16:00:00	2	Temperatura media	17.1
5506	7	Sololá	701	Sololá	3	Barraneche	1	Enero	2023-01-29T00:00:00	2024-11-06T16:00:00	4	Temperatura máxima	18.1
5507	7	Sololá	701	Sololá	3	Barraneche	1	Enero	2023-01-29T00:00:00	2024-11-06T16:00:00	3	Temperatura mínima	17.1
5508	7	Sololá	701	Sololá	3	Barraneche	1	Enero	2023-01-29T00:00:00	2024-11-06T16:00:00	5	Humedad	49
5509	7	Sololá	701	Sololá	3	Barraneche	1	Enero	2023-01-29T00:00:00	2024-11-06T16:00:00	6	Velocidad del viento	14.5
5510	7	Sololá	701	Sololá	3	Barraneche	1	Enero	2023-01-29T00:00:00	2024-11-06T16:00:00	7	Dirección del viento	14.48
5511	7	Sololá	701	Sololá	3	Barraneche	1	Enero	2023-01-29T00:00:00	2024-11-06T16:00:00	1	Precipitación	0
5512	7	Sololá	701	Sololá	3	Barraneche	1	Enero	2023-01-29T00:00:00	2024-11-06T16:00:00	8	Radiación solar	514
5513	7	Sololá	701	Sololá	3	Barraneche	1	Enero	2023-01-29T00:00:00	2024-11-06T17:00:00	2	Temperatura media	16.2
5514	7	Sololá	701	Sololá	3	Barraneche	1	Enero	2023-01-29T00:00:00	2024-11-06T17:00:00	4	Temperatura máxima	17.1
5515	7	Sololá	701	Sololá	3	Barraneche	1	Enero	2023-01-29T00:00:00	2024-11-06T17:00:00	3	Temperatura mínima	16.2
5516	7	Sololá	701	Sololá	3	Barraneche	1	Enero	2023-01-29T00:00:00	2024-11-06T17:00:00	5	Humedad	54
5517	7	Sololá	701	Sololá	3	Barraneche	1	Enero	2023-01-29T00:00:00	2024-11-06T17:00:00	6	Velocidad del viento	9.7
5518	7	Sololá	701	Sololá	3	Barraneche	1	Enero	2023-01-29T00:00:00	2024-11-06T17:00:00	7	Dirección del viento	9.66
5519	7	Sololá	701	Sololá	3	Barraneche	1	Enero	2023-01-29T00:00:00	2024-11-06T17:00:00	1	Precipitación	0
5520	7	Sololá	701	Sololá	3	Barraneche	1	Enero	2023-01-29T00:00:00	2024-11-06T17:00:00	8	Radiación solar	283
5521	7	Sololá	701	Sololá	3	Barraneche	1	Enero	2023-01-29T00:00:00	2024-11-06T18:00:00	2	Temperatura media	14.3
5522	7	Sololá	701	Sololá	3	Barraneche	1	Enero	2023-01-29T00:00:00	2024-11-06T18:00:00	4	Temperatura máxima	16.6
5523	7	Sololá	701	Sololá	3	Barraneche	1	Enero	2023-01-29T00:00:00	2024-11-06T18:00:00	3	Temperatura mínima	14.3
5524	7	Sololá	701	Sololá	3	Barraneche	1	Enero	2023-01-29T00:00:00	2024-11-06T18:00:00	5	Humedad	47
5525	7	Sololá	701	Sololá	3	Barraneche	1	Enero	2023-01-29T00:00:00	2024-11-06T18:00:00	6	Velocidad del viento	9.7
5526	7	Sololá	701	Sololá	3	Barraneche	1	Enero	2023-01-29T00:00:00	2024-11-06T18:00:00	7	Dirección del viento	9.66
5527	7	Sololá	701	Sololá	3	Barraneche	1	Enero	2023-01-29T00:00:00	2024-11-06T18:00:00	1	Precipitación	0
5528	7	Sololá	701	Sololá	3	Barraneche	1	Enero	2023-01-29T00:00:00	2024-11-06T18:00:00	8	Radiación solar	61
5529	7	Sololá	701	Sololá	3	Barraneche	1	Enero	2023-01-29T00:00:00	2024-11-06T19:00:00	2	Temperatura media	11.9
5530	7	Sololá	701	Sololá	3	Barraneche	1	Enero	2023-01-29T00:00:00	2024-11-06T19:00:00	4	Temperatura máxima	14.3
5531	7	Sololá	701	Sololá	3	Barraneche	1	Enero	2023-01-29T00:00:00	2024-11-06T19:00:00	3	Temperatura mínima	11.9
5532	7	Sololá	701	Sololá	3	Barraneche	1	Enero	2023-01-29T00:00:00	2024-11-06T19:00:00	5	Humedad	53
5533	7	Sololá	701	Sololá	3	Barraneche	1	Enero	2023-01-29T00:00:00	2024-11-06T19:00:00	6	Velocidad del viento	8
5534	7	Sololá	701	Sololá	3	Barraneche	1	Enero	2023-01-29T00:00:00	2024-11-06T19:00:00	7	Dirección del viento	8.05
5535	7	Sololá	701	Sololá	3	Barraneche	1	Enero	2023-01-29T00:00:00	2024-11-06T19:00:00	1	Precipitación	0
5536	7	Sololá	701	Sololá	3	Barraneche	1	Enero	2023-01-29T00:00:00	2024-11-06T19:00:00	8	Radiación solar	0
5537	7	Sololá	701	Sololá	3	Barraneche	1	Enero	2023-01-29T00:00:00	2024-11-06T20:00:00	2	Temperatura media	9.8
5538	7	Sololá	701	Sololá	3	Barraneche	1	Enero	2023-01-29T00:00:00	2024-11-06T20:00:00	4	Temperatura máxima	11.9
5539	7	Sololá	701	Sololá	3	Barraneche	1	Enero	2023-01-29T00:00:00	2024-11-06T20:00:00	3	Temperatura mínima	9.7
5540	7	Sololá	701	Sololá	3	Barraneche	1	Enero	2023-01-29T00:00:00	2024-11-06T20:00:00	5	Humedad	48
5541	7	Sololá	701	Sololá	3	Barraneche	1	Enero	2023-01-29T00:00:00	2024-11-06T20:00:00	6	Velocidad del viento	4.8
5542	7	Sololá	701	Sololá	3	Barraneche	1	Enero	2023-01-29T00:00:00	2024-11-06T20:00:00	7	Dirección del viento	4.83
5543	7	Sololá	701	Sololá	3	Barraneche	1	Enero	2023-01-29T00:00:00	2024-11-06T20:00:00	1	Precipitación	0
5544	7	Sololá	701	Sololá	3	Barraneche	1	Enero	2023-01-29T00:00:00	2024-11-06T20:00:00	8	Radiación solar	0
5545	7	Sololá	701	Sololá	3	Barraneche	1	Enero	2023-01-29T00:00:00	2024-11-06T21:00:00	2	Temperatura media	8.7
5546	7	Sololá	701	Sololá	3	Barraneche	1	Enero	2023-01-29T00:00:00	2024-11-06T21:00:00	4	Temperatura máxima	9.8
5547	7	Sololá	701	Sololá	3	Barraneche	1	Enero	2023-01-29T00:00:00	2024-11-06T21:00:00	3	Temperatura mínima	8.4
5548	7	Sololá	701	Sololá	3	Barraneche	1	Enero	2023-01-29T00:00:00	2024-11-06T21:00:00	5	Humedad	41
5549	7	Sololá	701	Sololá	3	Barraneche	1	Enero	2023-01-29T00:00:00	2024-11-06T21:00:00	6	Velocidad del viento	6.4
5550	7	Sololá	701	Sololá	3	Barraneche	1	Enero	2023-01-29T00:00:00	2024-11-06T21:00:00	7	Dirección del viento	6.44
5551	7	Sololá	701	Sololá	3	Barraneche	1	Enero	2023-01-29T00:00:00	2024-11-06T21:00:00	1	Precipitación	0
5552	7	Sololá	701	Sololá	3	Barraneche	1	Enero	2023-01-29T00:00:00	2024-11-06T21:00:00	8	Radiación solar	0
5553	7	Sololá	701	Sololá	3	Barraneche	1	Enero	2023-01-29T00:00:00	2024-11-06T22:00:00	2	Temperatura media	8.2
5554	7	Sololá	701	Sololá	3	Barraneche	1	Enero	2023-01-29T00:00:00	2024-11-06T22:00:00	4	Temperatura máxima	8.7
5555	7	Sololá	701	Sololá	3	Barraneche	1	Enero	2023-01-29T00:00:00	2024-11-06T22:00:00	3	Temperatura mínima	7.7
5556	7	Sololá	701	Sololá	3	Barraneche	1	Enero	2023-01-29T00:00:00	2024-11-06T22:00:00	5	Humedad	35
5557	7	Sololá	701	Sololá	3	Barraneche	1	Enero	2023-01-29T00:00:00	2024-11-06T22:00:00	6	Velocidad del viento	6.4
5558	7	Sololá	701	Sololá	3	Barraneche	1	Enero	2023-01-29T00:00:00	2024-11-06T22:00:00	7	Dirección del viento	6.44
5559	7	Sololá	701	Sololá	3	Barraneche	1	Enero	2023-01-29T00:00:00	2024-11-06T22:00:00	1	Precipitación	0
5560	7	Sololá	701	Sololá	3	Barraneche	1	Enero	2023-01-29T00:00:00	2024-11-06T22:00:00	8	Radiación solar	0
5561	7	Sololá	701	Sololá	3	Barraneche	1	Enero	2023-01-29T00:00:00	2024-11-06T23:00:00	2	Temperatura media	8.6
5562	7	Sololá	701	Sololá	3	Barraneche	1	Enero	2023-01-29T00:00:00	2024-11-06T23:00:00	4	Temperatura máxima	8.6
5563	7	Sololá	701	Sololá	3	Barraneche	1	Enero	2023-01-29T00:00:00	2024-11-06T23:00:00	3	Temperatura mínima	8.1
5564	7	Sololá	701	Sololá	3	Barraneche	1	Enero	2023-01-29T00:00:00	2024-11-06T23:00:00	5	Humedad	38
5565	7	Sololá	701	Sololá	3	Barraneche	1	Enero	2023-01-29T00:00:00	2024-11-06T23:00:00	6	Velocidad del viento	8
5566	7	Sololá	701	Sololá	3	Barraneche	1	Enero	2023-01-29T00:00:00	2024-11-06T23:00:00	7	Dirección del viento	8.05
5567	7	Sololá	701	Sololá	3	Barraneche	1	Enero	2023-01-29T00:00:00	2024-11-06T23:00:00	1	Precipitación	0
5568	7	Sololá	701	Sololá	3	Barraneche	1	Enero	2023-01-29T00:00:00	2024-11-06T23:00:00	8	Radiación solar	0
5569	7	Sololá	701	Sololá	3	Barraneche	1	Enero	2023-01-30T00:00:00	2024-11-06T00:00:00	2	Temperatura media	8.7
5570	7	Sololá	701	Sololá	3	Barraneche	1	Enero	2023-01-30T00:00:00	2024-11-06T00:00:00	4	Temperatura máxima	9
5571	7	Sololá	701	Sololá	3	Barraneche	1	Enero	2023-01-30T00:00:00	2024-11-06T00:00:00	3	Temperatura mínima	8.4
5572	7	Sololá	701	Sololá	3	Barraneche	1	Enero	2023-01-30T00:00:00	2024-11-06T00:00:00	5	Humedad	42
5573	7	Sololá	701	Sololá	3	Barraneche	1	Enero	2023-01-30T00:00:00	2024-11-06T00:00:00	6	Velocidad del viento	8
5574	7	Sololá	701	Sololá	3	Barraneche	1	Enero	2023-01-30T00:00:00	2024-11-06T00:00:00	7	Dirección del viento	8.05
5575	7	Sololá	701	Sololá	3	Barraneche	1	Enero	2023-01-30T00:00:00	2024-11-06T00:00:00	1	Precipitación	0
5576	7	Sololá	701	Sololá	3	Barraneche	1	Enero	2023-01-30T00:00:00	2024-11-06T00:00:00	8	Radiación solar	0
5577	7	Sololá	701	Sololá	3	Barraneche	1	Enero	2023-01-30T00:00:00	2024-11-06T01:00:00	2	Temperatura media	8.1
5578	7	Sololá	701	Sololá	3	Barraneche	1	Enero	2023-01-30T00:00:00	2024-11-06T01:00:00	4	Temperatura máxima	9.2
5579	7	Sololá	701	Sololá	3	Barraneche	1	Enero	2023-01-30T00:00:00	2024-11-06T01:00:00	3	Temperatura mínima	8.1
5580	7	Sololá	701	Sololá	3	Barraneche	1	Enero	2023-01-30T00:00:00	2024-11-06T01:00:00	5	Humedad	43
5581	7	Sololá	701	Sololá	3	Barraneche	1	Enero	2023-01-30T00:00:00	2024-11-06T01:00:00	6	Velocidad del viento	8
5582	7	Sololá	701	Sololá	3	Barraneche	1	Enero	2023-01-30T00:00:00	2024-11-06T01:00:00	7	Dirección del viento	8.05
5583	7	Sololá	701	Sololá	3	Barraneche	1	Enero	2023-01-30T00:00:00	2024-11-06T01:00:00	1	Precipitación	0
5584	7	Sololá	701	Sololá	3	Barraneche	1	Enero	2023-01-30T00:00:00	2024-11-06T01:00:00	8	Radiación solar	0
5585	7	Sololá	701	Sololá	3	Barraneche	1	Enero	2023-01-30T00:00:00	2024-11-06T02:00:00	2	Temperatura media	8.3
5586	7	Sololá	701	Sololá	3	Barraneche	1	Enero	2023-01-30T00:00:00	2024-11-06T02:00:00	4	Temperatura máxima	8.4
5587	7	Sololá	701	Sololá	3	Barraneche	1	Enero	2023-01-30T00:00:00	2024-11-06T02:00:00	3	Temperatura mínima	7.8
5588	7	Sololá	701	Sololá	3	Barraneche	1	Enero	2023-01-30T00:00:00	2024-11-06T02:00:00	5	Humedad	42
5589	7	Sololá	701	Sololá	3	Barraneche	1	Enero	2023-01-30T00:00:00	2024-11-06T02:00:00	6	Velocidad del viento	9.7
5590	7	Sololá	701	Sololá	3	Barraneche	1	Enero	2023-01-30T00:00:00	2024-11-06T02:00:00	7	Dirección del viento	9.66
5591	7	Sololá	701	Sololá	3	Barraneche	1	Enero	2023-01-30T00:00:00	2024-11-06T02:00:00	1	Precipitación	0
5592	7	Sololá	701	Sololá	3	Barraneche	1	Enero	2023-01-30T00:00:00	2024-11-06T02:00:00	8	Radiación solar	0
5593	7	Sololá	701	Sololá	3	Barraneche	1	Enero	2023-01-30T00:00:00	2024-11-06T03:00:00	2	Temperatura media	8.6
5594	7	Sololá	701	Sololá	3	Barraneche	1	Enero	2023-01-30T00:00:00	2024-11-06T03:00:00	4	Temperatura máxima	8.6
5595	7	Sololá	701	Sololá	3	Barraneche	1	Enero	2023-01-30T00:00:00	2024-11-06T03:00:00	3	Temperatura mínima	8
5596	7	Sololá	701	Sololá	3	Barraneche	1	Enero	2023-01-30T00:00:00	2024-11-06T03:00:00	5	Humedad	41
5597	7	Sololá	701	Sololá	3	Barraneche	1	Enero	2023-01-30T00:00:00	2024-11-06T03:00:00	6	Velocidad del viento	11.3
5598	7	Sololá	701	Sololá	3	Barraneche	1	Enero	2023-01-30T00:00:00	2024-11-06T03:00:00	7	Dirección del viento	11.27
5599	7	Sololá	701	Sololá	3	Barraneche	1	Enero	2023-01-30T00:00:00	2024-11-06T03:00:00	1	Precipitación	0
5600	7	Sololá	701	Sololá	3	Barraneche	1	Enero	2023-01-30T00:00:00	2024-11-06T03:00:00	8	Radiación solar	0
5601	7	Sololá	701	Sololá	3	Barraneche	1	Enero	2023-01-30T00:00:00	2024-11-06T04:00:00	2	Temperatura media	8.1
5602	7	Sololá	701	Sololá	3	Barraneche	1	Enero	2023-01-30T00:00:00	2024-11-06T04:00:00	4	Temperatura máxima	8.7
5603	7	Sololá	701	Sololá	3	Barraneche	1	Enero	2023-01-30T00:00:00	2024-11-06T04:00:00	3	Temperatura mínima	7.9
5604	7	Sololá	701	Sololá	3	Barraneche	1	Enero	2023-01-30T00:00:00	2024-11-06T04:00:00	5	Humedad	43
5605	7	Sololá	701	Sololá	3	Barraneche	1	Enero	2023-01-30T00:00:00	2024-11-06T04:00:00	6	Velocidad del viento	9.7
5606	7	Sololá	701	Sololá	3	Barraneche	1	Enero	2023-01-30T00:00:00	2024-11-06T04:00:00	7	Dirección del viento	9.66
5607	7	Sololá	701	Sololá	3	Barraneche	1	Enero	2023-01-30T00:00:00	2024-11-06T04:00:00	1	Precipitación	0
5608	7	Sololá	701	Sololá	3	Barraneche	1	Enero	2023-01-30T00:00:00	2024-11-06T04:00:00	8	Radiación solar	0
5609	7	Sololá	701	Sololá	3	Barraneche	1	Enero	2023-01-30T00:00:00	2024-11-06T05:00:00	2	Temperatura media	7.8
5610	7	Sololá	701	Sololá	3	Barraneche	1	Enero	2023-01-30T00:00:00	2024-11-06T05:00:00	4	Temperatura máxima	8.3
5611	7	Sololá	701	Sololá	3	Barraneche	1	Enero	2023-01-30T00:00:00	2024-11-06T05:00:00	3	Temperatura mínima	7.6
5612	7	Sololá	701	Sololá	3	Barraneche	1	Enero	2023-01-30T00:00:00	2024-11-06T05:00:00	5	Humedad	39
5613	7	Sololá	701	Sololá	3	Barraneche	1	Enero	2023-01-30T00:00:00	2024-11-06T05:00:00	6	Velocidad del viento	11.3
5614	7	Sololá	701	Sololá	3	Barraneche	1	Enero	2023-01-30T00:00:00	2024-11-06T05:00:00	7	Dirección del viento	11.27
5615	7	Sololá	701	Sololá	3	Barraneche	1	Enero	2023-01-30T00:00:00	2024-11-06T05:00:00	1	Precipitación	0
5616	7	Sololá	701	Sololá	3	Barraneche	1	Enero	2023-01-30T00:00:00	2024-11-06T05:00:00	8	Radiación solar	0
5617	7	Sololá	701	Sololá	3	Barraneche	1	Enero	2023-01-30T00:00:00	2024-11-06T06:00:00	2	Temperatura media	7.7
5618	7	Sololá	701	Sololá	3	Barraneche	1	Enero	2023-01-30T00:00:00	2024-11-06T06:00:00	4	Temperatura máxima	7.9
5619	7	Sololá	701	Sololá	3	Barraneche	1	Enero	2023-01-30T00:00:00	2024-11-06T06:00:00	3	Temperatura mínima	7.4
5620	7	Sololá	701	Sololá	3	Barraneche	1	Enero	2023-01-30T00:00:00	2024-11-06T06:00:00	5	Humedad	39
5621	7	Sololá	701	Sololá	3	Barraneche	1	Enero	2023-01-30T00:00:00	2024-11-06T06:00:00	6	Velocidad del viento	12.9
5622	7	Sololá	701	Sololá	3	Barraneche	1	Enero	2023-01-30T00:00:00	2024-11-06T06:00:00	7	Dirección del viento	12.87
5623	7	Sololá	701	Sololá	3	Barraneche	1	Enero	2023-01-30T00:00:00	2024-11-06T06:00:00	1	Precipitación	0
5624	7	Sololá	701	Sololá	3	Barraneche	1	Enero	2023-01-30T00:00:00	2024-11-06T06:00:00	8	Radiación solar	0
5625	7	Sololá	701	Sololá	3	Barraneche	1	Enero	2023-01-30T00:00:00	2024-11-06T07:00:00	2	Temperatura media	7.4
5626	7	Sololá	701	Sololá	3	Barraneche	1	Enero	2023-01-30T00:00:00	2024-11-06T07:00:00	4	Temperatura máxima	7.7
5627	7	Sololá	701	Sololá	3	Barraneche	1	Enero	2023-01-30T00:00:00	2024-11-06T07:00:00	3	Temperatura mínima	6.9
5628	7	Sololá	701	Sololá	3	Barraneche	1	Enero	2023-01-30T00:00:00	2024-11-06T07:00:00	5	Humedad	39
5629	7	Sololá	701	Sololá	3	Barraneche	1	Enero	2023-01-30T00:00:00	2024-11-06T07:00:00	6	Velocidad del viento	9.7
5630	7	Sololá	701	Sololá	3	Barraneche	1	Enero	2023-01-30T00:00:00	2024-11-06T07:00:00	7	Dirección del viento	9.66
5631	7	Sololá	701	Sololá	3	Barraneche	1	Enero	2023-01-30T00:00:00	2024-11-06T07:00:00	1	Precipitación	0
5632	7	Sololá	701	Sololá	3	Barraneche	1	Enero	2023-01-30T00:00:00	2024-11-06T07:00:00	8	Radiación solar	5
5633	7	Sololá	701	Sololá	3	Barraneche	1	Enero	2023-01-30T00:00:00	2024-11-06T08:00:00	2	Temperatura media	11.3
5634	7	Sololá	701	Sololá	3	Barraneche	1	Enero	2023-01-30T00:00:00	2024-11-06T08:00:00	4	Temperatura máxima	11.3
5635	7	Sololá	701	Sololá	3	Barraneche	1	Enero	2023-01-30T00:00:00	2024-11-06T08:00:00	3	Temperatura mínima	7
5636	7	Sololá	701	Sololá	3	Barraneche	1	Enero	2023-01-30T00:00:00	2024-11-06T08:00:00	5	Humedad	43
5637	7	Sololá	701	Sololá	3	Barraneche	1	Enero	2023-01-30T00:00:00	2024-11-06T08:00:00	6	Velocidad del viento	8
5638	7	Sololá	701	Sololá	3	Barraneche	1	Enero	2023-01-30T00:00:00	2024-11-06T08:00:00	7	Dirección del viento	8.05
5639	7	Sololá	701	Sololá	3	Barraneche	1	Enero	2023-01-30T00:00:00	2024-11-06T08:00:00	1	Precipitación	0
5640	7	Sololá	701	Sololá	3	Barraneche	1	Enero	2023-01-30T00:00:00	2024-11-06T08:00:00	8	Radiación solar	155
5641	7	Sololá	701	Sololá	3	Barraneche	1	Enero	2023-01-30T00:00:00	2024-11-06T09:00:00	2	Temperatura media	15.2
5642	7	Sololá	701	Sololá	3	Barraneche	1	Enero	2023-01-30T00:00:00	2024-11-06T09:00:00	4	Temperatura máxima	15.2
5643	7	Sololá	701	Sololá	3	Barraneche	1	Enero	2023-01-30T00:00:00	2024-11-06T09:00:00	3	Temperatura mínima	11.3
5644	7	Sololá	701	Sololá	3	Barraneche	1	Enero	2023-01-30T00:00:00	2024-11-06T09:00:00	5	Humedad	37
5645	7	Sololá	701	Sololá	3	Barraneche	1	Enero	2023-01-30T00:00:00	2024-11-06T09:00:00	6	Velocidad del viento	4.8
5646	7	Sololá	701	Sololá	3	Barraneche	1	Enero	2023-01-30T00:00:00	2024-11-06T09:00:00	7	Dirección del viento	4.83
5647	7	Sololá	701	Sololá	3	Barraneche	1	Enero	2023-01-30T00:00:00	2024-11-06T09:00:00	1	Precipitación	0
5648	7	Sololá	701	Sololá	3	Barraneche	1	Enero	2023-01-30T00:00:00	2024-11-06T09:00:00	8	Radiación solar	419
5649	7	Sololá	701	Sololá	3	Barraneche	1	Enero	2023-01-30T00:00:00	2024-11-06T10:00:00	2	Temperatura media	17.6
5650	7	Sololá	701	Sololá	3	Barraneche	1	Enero	2023-01-30T00:00:00	2024-11-06T10:00:00	4	Temperatura máxima	17.6
5651	7	Sololá	701	Sololá	3	Barraneche	1	Enero	2023-01-30T00:00:00	2024-11-06T10:00:00	3	Temperatura mínima	15.2
5652	7	Sololá	701	Sololá	3	Barraneche	1	Enero	2023-01-30T00:00:00	2024-11-06T10:00:00	5	Humedad	32
5653	7	Sololá	701	Sololá	3	Barraneche	1	Enero	2023-01-30T00:00:00	2024-11-06T10:00:00	6	Velocidad del viento	3.2
5654	7	Sololá	701	Sololá	3	Barraneche	1	Enero	2023-01-30T00:00:00	2024-11-06T10:00:00	7	Dirección del viento	3.22
5655	7	Sololá	701	Sololá	3	Barraneche	1	Enero	2023-01-30T00:00:00	2024-11-06T10:00:00	1	Precipitación	0
5656	7	Sololá	701	Sololá	3	Barraneche	1	Enero	2023-01-30T00:00:00	2024-11-06T10:00:00	8	Radiación solar	630
5657	7	Sololá	701	Sololá	3	Barraneche	1	Enero	2023-01-30T00:00:00	2024-11-06T11:00:00	2	Temperatura media	20.7
5658	7	Sololá	701	Sololá	3	Barraneche	1	Enero	2023-01-30T00:00:00	2024-11-06T11:00:00	4	Temperatura máxima	20.7
5659	7	Sololá	701	Sololá	3	Barraneche	1	Enero	2023-01-30T00:00:00	2024-11-06T11:00:00	3	Temperatura mínima	17.6
5660	7	Sololá	701	Sololá	3	Barraneche	1	Enero	2023-01-30T00:00:00	2024-11-06T11:00:00	5	Humedad	8
5661	7	Sololá	701	Sololá	3	Barraneche	1	Enero	2023-01-30T00:00:00	2024-11-06T11:00:00	6	Velocidad del viento	12.9
5662	7	Sololá	701	Sololá	3	Barraneche	1	Enero	2023-01-30T00:00:00	2024-11-06T11:00:00	7	Dirección del viento	12.87
5663	7	Sololá	701	Sololá	3	Barraneche	1	Enero	2023-01-30T00:00:00	2024-11-06T11:00:00	1	Precipitación	0
5664	7	Sololá	701	Sololá	3	Barraneche	1	Enero	2023-01-30T00:00:00	2024-11-06T11:00:00	8	Radiación solar	798
5665	7	Sololá	701	Sololá	3	Barraneche	1	Enero	2023-01-30T00:00:00	2024-11-06T12:00:00	2	Temperatura media	21.3
5666	7	Sololá	701	Sololá	3	Barraneche	1	Enero	2023-01-30T00:00:00	2024-11-06T12:00:00	4	Temperatura máxima	21.3
5667	7	Sololá	701	Sololá	3	Barraneche	1	Enero	2023-01-30T00:00:00	2024-11-06T12:00:00	3	Temperatura mínima	20.7
5668	7	Sololá	701	Sololá	3	Barraneche	1	Enero	2023-01-30T00:00:00	2024-11-06T12:00:00	5	Humedad	12
5669	7	Sololá	701	Sololá	3	Barraneche	1	Enero	2023-01-30T00:00:00	2024-11-06T12:00:00	6	Velocidad del viento	16.1
5670	7	Sololá	701	Sololá	3	Barraneche	1	Enero	2023-01-30T00:00:00	2024-11-06T12:00:00	7	Dirección del viento	16.09
5671	7	Sololá	701	Sololá	3	Barraneche	1	Enero	2023-01-30T00:00:00	2024-11-06T12:00:00	1	Precipitación	0
5672	7	Sololá	701	Sololá	3	Barraneche	1	Enero	2023-01-30T00:00:00	2024-11-06T12:00:00	8	Radiación solar	906
5673	7	Sololá	701	Sololá	3	Barraneche	1	Enero	2023-01-30T00:00:00	2024-11-06T13:00:00	2	Temperatura media	20.8
5674	7	Sololá	701	Sololá	3	Barraneche	1	Enero	2023-01-30T00:00:00	2024-11-06T13:00:00	4	Temperatura máxima	21.7
5675	7	Sololá	701	Sololá	3	Barraneche	1	Enero	2023-01-30T00:00:00	2024-11-06T13:00:00	3	Temperatura mínima	20.8
5676	7	Sololá	701	Sololá	3	Barraneche	1	Enero	2023-01-30T00:00:00	2024-11-06T13:00:00	5	Humedad	16
5677	7	Sololá	701	Sololá	3	Barraneche	1	Enero	2023-01-30T00:00:00	2024-11-06T13:00:00	6	Velocidad del viento	16.1
5678	7	Sololá	701	Sololá	3	Barraneche	1	Enero	2023-01-30T00:00:00	2024-11-06T13:00:00	7	Dirección del viento	16.09
5679	7	Sololá	701	Sololá	3	Barraneche	1	Enero	2023-01-30T00:00:00	2024-11-06T13:00:00	1	Precipitación	0
5680	7	Sololá	701	Sololá	3	Barraneche	1	Enero	2023-01-30T00:00:00	2024-11-06T13:00:00	8	Radiación solar	919
5681	7	Sololá	701	Sololá	3	Barraneche	1	Enero	2023-01-30T00:00:00	2024-11-06T14:00:00	2	Temperatura media	21.1
5682	7	Sololá	701	Sololá	3	Barraneche	1	Enero	2023-01-30T00:00:00	2024-11-06T14:00:00	4	Temperatura máxima	21.7
5683	7	Sololá	701	Sololá	3	Barraneche	1	Enero	2023-01-30T00:00:00	2024-11-06T14:00:00	3	Temperatura mínima	20.7
5684	7	Sololá	701	Sololá	3	Barraneche	1	Enero	2023-01-30T00:00:00	2024-11-06T14:00:00	5	Humedad	11
5685	7	Sololá	701	Sololá	3	Barraneche	1	Enero	2023-01-30T00:00:00	2024-11-06T14:00:00	6	Velocidad del viento	16.1
5686	7	Sololá	701	Sololá	3	Barraneche	1	Enero	2023-01-30T00:00:00	2024-11-06T14:00:00	7	Dirección del viento	16.09
5687	7	Sololá	701	Sololá	3	Barraneche	1	Enero	2023-01-30T00:00:00	2024-11-06T14:00:00	1	Precipitación	0
5688	7	Sololá	701	Sololá	3	Barraneche	1	Enero	2023-01-30T00:00:00	2024-11-06T14:00:00	8	Radiación solar	861
5689	7	Sololá	701	Sololá	3	Barraneche	1	Enero	2023-01-30T00:00:00	2024-11-06T15:00:00	2	Temperatura media	20.8
5690	7	Sololá	701	Sololá	3	Barraneche	1	Enero	2023-01-30T00:00:00	2024-11-06T15:00:00	4	Temperatura máxima	21.4
5691	7	Sololá	701	Sololá	3	Barraneche	1	Enero	2023-01-30T00:00:00	2024-11-06T15:00:00	3	Temperatura mínima	20.8
5692	7	Sololá	701	Sololá	3	Barraneche	1	Enero	2023-01-30T00:00:00	2024-11-06T15:00:00	5	Humedad	9
5693	7	Sololá	701	Sololá	3	Barraneche	1	Enero	2023-01-30T00:00:00	2024-11-06T15:00:00	6	Velocidad del viento	16.1
5694	7	Sololá	701	Sololá	3	Barraneche	1	Enero	2023-01-30T00:00:00	2024-11-06T15:00:00	7	Dirección del viento	16.09
5695	7	Sololá	701	Sololá	3	Barraneche	1	Enero	2023-01-30T00:00:00	2024-11-06T15:00:00	1	Precipitación	0
5696	7	Sololá	701	Sololá	3	Barraneche	1	Enero	2023-01-30T00:00:00	2024-11-06T15:00:00	8	Radiación solar	734
5697	7	Sololá	701	Sololá	3	Barraneche	1	Enero	2023-01-30T00:00:00	2024-11-06T16:00:00	2	Temperatura media	17.5
5698	7	Sololá	701	Sololá	3	Barraneche	1	Enero	2023-01-30T00:00:00	2024-11-06T16:00:00	4	Temperatura máxima	20.9
5699	7	Sololá	701	Sololá	3	Barraneche	1	Enero	2023-01-30T00:00:00	2024-11-06T16:00:00	3	Temperatura mínima	17.5
5700	7	Sololá	701	Sololá	3	Barraneche	1	Enero	2023-01-30T00:00:00	2024-11-06T16:00:00	5	Humedad	52
5701	7	Sololá	701	Sololá	3	Barraneche	1	Enero	2023-01-30T00:00:00	2024-11-06T16:00:00	6	Velocidad del viento	12.9
5702	7	Sololá	701	Sololá	3	Barraneche	1	Enero	2023-01-30T00:00:00	2024-11-06T16:00:00	7	Dirección del viento	12.87
5703	7	Sololá	701	Sololá	3	Barraneche	1	Enero	2023-01-30T00:00:00	2024-11-06T16:00:00	1	Precipitación	0
5704	7	Sololá	701	Sololá	3	Barraneche	1	Enero	2023-01-30T00:00:00	2024-11-06T16:00:00	8	Radiación solar	526
5705	7	Sololá	701	Sololá	3	Barraneche	1	Enero	2023-01-30T00:00:00	2024-11-06T17:00:00	2	Temperatura media	16.6
5706	7	Sololá	701	Sololá	3	Barraneche	1	Enero	2023-01-30T00:00:00	2024-11-06T17:00:00	4	Temperatura máxima	17.6
5707	7	Sololá	701	Sololá	3	Barraneche	1	Enero	2023-01-30T00:00:00	2024-11-06T17:00:00	3	Temperatura mínima	16.4
5708	7	Sololá	701	Sololá	3	Barraneche	1	Enero	2023-01-30T00:00:00	2024-11-06T17:00:00	5	Humedad	57
5709	7	Sololá	701	Sololá	3	Barraneche	1	Enero	2023-01-30T00:00:00	2024-11-06T17:00:00	6	Velocidad del viento	14.5
5710	7	Sololá	701	Sololá	3	Barraneche	1	Enero	2023-01-30T00:00:00	2024-11-06T17:00:00	7	Dirección del viento	14.48
5711	7	Sololá	701	Sololá	3	Barraneche	1	Enero	2023-01-30T00:00:00	2024-11-06T17:00:00	1	Precipitación	0
5712	7	Sololá	701	Sololá	3	Barraneche	1	Enero	2023-01-30T00:00:00	2024-11-06T17:00:00	8	Radiación solar	287
5713	7	Sololá	701	Sololá	3	Barraneche	1	Enero	2023-01-30T00:00:00	2024-11-06T18:00:00	2	Temperatura media	15.2
5714	7	Sololá	701	Sololá	3	Barraneche	1	Enero	2023-01-30T00:00:00	2024-11-06T18:00:00	4	Temperatura máxima	17.2
5715	7	Sololá	701	Sololá	3	Barraneche	1	Enero	2023-01-30T00:00:00	2024-11-06T18:00:00	3	Temperatura mínima	15.2
5716	7	Sololá	701	Sololá	3	Barraneche	1	Enero	2023-01-30T00:00:00	2024-11-06T18:00:00	5	Humedad	48
5717	7	Sololá	701	Sololá	3	Barraneche	1	Enero	2023-01-30T00:00:00	2024-11-06T18:00:00	6	Velocidad del viento	8
5718	7	Sololá	701	Sololá	3	Barraneche	1	Enero	2023-01-30T00:00:00	2024-11-06T18:00:00	7	Dirección del viento	8.05
5719	7	Sololá	701	Sololá	3	Barraneche	1	Enero	2023-01-30T00:00:00	2024-11-06T18:00:00	1	Precipitación	0
5720	7	Sololá	701	Sololá	3	Barraneche	1	Enero	2023-01-30T00:00:00	2024-11-06T18:00:00	8	Radiación solar	62
5721	7	Sololá	701	Sololá	3	Barraneche	1	Enero	2023-01-30T00:00:00	2024-11-06T19:00:00	2	Temperatura media	13.9
5722	7	Sololá	701	Sololá	3	Barraneche	1	Enero	2023-01-30T00:00:00	2024-11-06T19:00:00	4	Temperatura máxima	15.2
5723	7	Sololá	701	Sololá	3	Barraneche	1	Enero	2023-01-30T00:00:00	2024-11-06T19:00:00	3	Temperatura mínima	13.9
5724	7	Sololá	701	Sololá	3	Barraneche	1	Enero	2023-01-30T00:00:00	2024-11-06T19:00:00	5	Humedad	53
5725	7	Sololá	701	Sololá	3	Barraneche	1	Enero	2023-01-30T00:00:00	2024-11-06T19:00:00	6	Velocidad del viento	8
5726	7	Sololá	701	Sololá	3	Barraneche	1	Enero	2023-01-30T00:00:00	2024-11-06T19:00:00	7	Dirección del viento	8.05
5727	7	Sololá	701	Sololá	3	Barraneche	1	Enero	2023-01-30T00:00:00	2024-11-06T19:00:00	1	Precipitación	0
5728	7	Sololá	701	Sololá	3	Barraneche	1	Enero	2023-01-30T00:00:00	2024-11-06T19:00:00	8	Radiación solar	0
5729	7	Sololá	701	Sololá	3	Barraneche	1	Enero	2023-01-30T00:00:00	2024-11-06T20:00:00	2	Temperatura media	13
5730	7	Sololá	701	Sololá	3	Barraneche	1	Enero	2023-01-30T00:00:00	2024-11-06T20:00:00	4	Temperatura máxima	13.9
5731	7	Sololá	701	Sololá	3	Barraneche	1	Enero	2023-01-30T00:00:00	2024-11-06T20:00:00	3	Temperatura mínima	13
5732	7	Sololá	701	Sololá	3	Barraneche	1	Enero	2023-01-30T00:00:00	2024-11-06T20:00:00	5	Humedad	60
5733	7	Sololá	701	Sololá	3	Barraneche	1	Enero	2023-01-30T00:00:00	2024-11-06T20:00:00	6	Velocidad del viento	9.7
5734	7	Sololá	701	Sololá	3	Barraneche	1	Enero	2023-01-30T00:00:00	2024-11-06T20:00:00	7	Dirección del viento	9.66
5735	7	Sololá	701	Sololá	3	Barraneche	1	Enero	2023-01-30T00:00:00	2024-11-06T20:00:00	1	Precipitación	0
5736	7	Sololá	701	Sololá	3	Barraneche	1	Enero	2023-01-30T00:00:00	2024-11-06T20:00:00	8	Radiación solar	0
5737	7	Sololá	701	Sololá	3	Barraneche	1	Enero	2023-01-30T00:00:00	2024-11-06T21:00:00	2	Temperatura media	12.7
5738	7	Sololá	701	Sololá	3	Barraneche	1	Enero	2023-01-30T00:00:00	2024-11-06T21:00:00	4	Temperatura máxima	13
5739	7	Sololá	701	Sololá	3	Barraneche	1	Enero	2023-01-30T00:00:00	2024-11-06T21:00:00	3	Temperatura mínima	12.7
5740	7	Sololá	701	Sololá	3	Barraneche	1	Enero	2023-01-30T00:00:00	2024-11-06T21:00:00	5	Humedad	55
5741	7	Sololá	701	Sololá	3	Barraneche	1	Enero	2023-01-30T00:00:00	2024-11-06T21:00:00	6	Velocidad del viento	11.3
5742	7	Sololá	701	Sololá	3	Barraneche	1	Enero	2023-01-30T00:00:00	2024-11-06T21:00:00	7	Dirección del viento	11.27
5743	7	Sololá	701	Sololá	3	Barraneche	1	Enero	2023-01-30T00:00:00	2024-11-06T21:00:00	1	Precipitación	0
5744	7	Sololá	701	Sololá	3	Barraneche	1	Enero	2023-01-30T00:00:00	2024-11-06T21:00:00	8	Radiación solar	0
5745	7	Sololá	701	Sololá	3	Barraneche	1	Enero	2023-01-30T00:00:00	2024-11-06T22:00:00	2	Temperatura media	12.1
5746	7	Sololá	701	Sololá	3	Barraneche	1	Enero	2023-01-30T00:00:00	2024-11-06T22:00:00	4	Temperatura máxima	12.7
5747	7	Sololá	701	Sololá	3	Barraneche	1	Enero	2023-01-30T00:00:00	2024-11-06T22:00:00	3	Temperatura mínima	11.7
5748	7	Sololá	701	Sololá	3	Barraneche	1	Enero	2023-01-30T00:00:00	2024-11-06T22:00:00	5	Humedad	57
5749	7	Sololá	701	Sololá	3	Barraneche	1	Enero	2023-01-30T00:00:00	2024-11-06T22:00:00	6	Velocidad del viento	11.3
5750	7	Sololá	701	Sololá	3	Barraneche	1	Enero	2023-01-30T00:00:00	2024-11-06T22:00:00	7	Dirección del viento	11.27
5751	7	Sololá	701	Sololá	3	Barraneche	1	Enero	2023-01-30T00:00:00	2024-11-06T22:00:00	1	Precipitación	0
5752	7	Sololá	701	Sololá	3	Barraneche	1	Enero	2023-01-30T00:00:00	2024-11-06T22:00:00	8	Radiación solar	0
5753	7	Sololá	701	Sololá	3	Barraneche	1	Enero	2023-01-30T00:00:00	2024-11-06T23:00:00	2	Temperatura media	10.3
5754	7	Sololá	701	Sololá	3	Barraneche	1	Enero	2023-01-30T00:00:00	2024-11-06T23:00:00	4	Temperatura máxima	12.2
5755	7	Sololá	701	Sololá	3	Barraneche	1	Enero	2023-01-30T00:00:00	2024-11-06T23:00:00	3	Temperatura mínima	10.3
5756	7	Sololá	701	Sololá	3	Barraneche	1	Enero	2023-01-30T00:00:00	2024-11-06T23:00:00	5	Humedad	59
5757	7	Sololá	701	Sololá	3	Barraneche	1	Enero	2023-01-30T00:00:00	2024-11-06T23:00:00	6	Velocidad del viento	6.4
5758	7	Sololá	701	Sololá	3	Barraneche	1	Enero	2023-01-30T00:00:00	2024-11-06T23:00:00	7	Dirección del viento	6.44
5759	7	Sololá	701	Sololá	3	Barraneche	1	Enero	2023-01-30T00:00:00	2024-11-06T23:00:00	1	Precipitación	0
5760	7	Sololá	701	Sololá	3	Barraneche	1	Enero	2023-01-30T00:00:00	2024-11-06T23:00:00	8	Radiación solar	0
5761	7	Sololá	701	Sololá	3	Barraneche	1	Enero	2023-01-31T00:00:00	2024-11-06T00:00:00	2	Temperatura media	9.4
5762	7	Sololá	701	Sololá	3	Barraneche	1	Enero	2023-01-31T00:00:00	2024-11-06T00:00:00	4	Temperatura máxima	11.5
5763	7	Sololá	701	Sololá	3	Barraneche	1	Enero	2023-01-31T00:00:00	2024-11-06T00:00:00	3	Temperatura mínima	9.4
5764	7	Sololá	701	Sololá	3	Barraneche	1	Enero	2023-01-31T00:00:00	2024-11-06T00:00:00	5	Humedad	60
5765	7	Sololá	701	Sololá	3	Barraneche	1	Enero	2023-01-31T00:00:00	2024-11-06T00:00:00	6	Velocidad del viento	11.3
5766	7	Sololá	701	Sololá	3	Barraneche	1	Enero	2023-01-31T00:00:00	2024-11-06T00:00:00	7	Dirección del viento	11.27
5767	7	Sololá	701	Sololá	3	Barraneche	1	Enero	2023-01-31T00:00:00	2024-11-06T00:00:00	1	Precipitación	0
5768	7	Sololá	701	Sololá	3	Barraneche	1	Enero	2023-01-31T00:00:00	2024-11-06T00:00:00	8	Radiación solar	0
5769	7	Sololá	701	Sololá	3	Barraneche	1	Enero	2023-01-31T00:00:00	2024-11-06T01:00:00	2	Temperatura media	7.5
5770	7	Sololá	701	Sololá	3	Barraneche	1	Enero	2023-01-31T00:00:00	2024-11-06T01:00:00	4	Temperatura máxima	9.4
5771	7	Sololá	701	Sololá	3	Barraneche	1	Enero	2023-01-31T00:00:00	2024-11-06T01:00:00	3	Temperatura mínima	7.4
5772	7	Sololá	701	Sololá	3	Barraneche	1	Enero	2023-01-31T00:00:00	2024-11-06T01:00:00	5	Humedad	58
5773	7	Sololá	701	Sololá	3	Barraneche	1	Enero	2023-01-31T00:00:00	2024-11-06T01:00:00	6	Velocidad del viento	4.8
5774	7	Sololá	701	Sololá	3	Barraneche	1	Enero	2023-01-31T00:00:00	2024-11-06T01:00:00	7	Dirección del viento	4.83
5775	7	Sololá	701	Sololá	3	Barraneche	1	Enero	2023-01-31T00:00:00	2024-11-06T01:00:00	1	Precipitación	0
5776	7	Sololá	701	Sololá	3	Barraneche	1	Enero	2023-01-31T00:00:00	2024-11-06T01:00:00	8	Radiación solar	0
5777	7	Sololá	701	Sololá	3	Barraneche	1	Enero	2023-01-31T00:00:00	2024-11-06T02:00:00	2	Temperatura media	7.8
5778	7	Sololá	701	Sololá	3	Barraneche	1	Enero	2023-01-31T00:00:00	2024-11-06T02:00:00	4	Temperatura máxima	7.8
5779	7	Sololá	701	Sololá	3	Barraneche	1	Enero	2023-01-31T00:00:00	2024-11-06T02:00:00	3	Temperatura mínima	6.9
5780	7	Sololá	701	Sololá	3	Barraneche	1	Enero	2023-01-31T00:00:00	2024-11-06T02:00:00	5	Humedad	54
5781	7	Sololá	701	Sololá	3	Barraneche	1	Enero	2023-01-31T00:00:00	2024-11-06T02:00:00	6	Velocidad del viento	8
5782	7	Sololá	701	Sololá	3	Barraneche	1	Enero	2023-01-31T00:00:00	2024-11-06T02:00:00	7	Dirección del viento	8.05
5783	7	Sololá	701	Sololá	3	Barraneche	1	Enero	2023-01-31T00:00:00	2024-11-06T02:00:00	1	Precipitación	0
5784	7	Sololá	701	Sololá	3	Barraneche	1	Enero	2023-01-31T00:00:00	2024-11-06T02:00:00	8	Radiación solar	0
5785	7	Sololá	701	Sololá	3	Barraneche	1	Enero	2023-01-31T00:00:00	2024-11-06T03:00:00	2	Temperatura media	9.3
5786	7	Sololá	701	Sololá	3	Barraneche	1	Enero	2023-01-31T00:00:00	2024-11-06T03:00:00	4	Temperatura máxima	9.4
5787	7	Sololá	701	Sololá	3	Barraneche	1	Enero	2023-01-31T00:00:00	2024-11-06T03:00:00	3	Temperatura mínima	7.8
5788	7	Sololá	701	Sololá	3	Barraneche	1	Enero	2023-01-31T00:00:00	2024-11-06T03:00:00	5	Humedad	60
5789	7	Sololá	701	Sololá	3	Barraneche	1	Enero	2023-01-31T00:00:00	2024-11-06T03:00:00	6	Velocidad del viento	8
5790	7	Sololá	701	Sololá	3	Barraneche	1	Enero	2023-01-31T00:00:00	2024-11-06T03:00:00	7	Dirección del viento	8.05
5791	7	Sololá	701	Sololá	3	Barraneche	1	Enero	2023-01-31T00:00:00	2024-11-06T03:00:00	1	Precipitación	0
5792	7	Sololá	701	Sololá	3	Barraneche	1	Enero	2023-01-31T00:00:00	2024-11-06T03:00:00	8	Radiación solar	0
5793	7	Sololá	701	Sololá	3	Barraneche	1	Enero	2023-01-31T00:00:00	2024-11-06T04:00:00	2	Temperatura media	9.3
5794	7	Sololá	701	Sololá	3	Barraneche	1	Enero	2023-01-31T00:00:00	2024-11-06T04:00:00	4	Temperatura máxima	9.6
5795	7	Sololá	701	Sololá	3	Barraneche	1	Enero	2023-01-31T00:00:00	2024-11-06T04:00:00	3	Temperatura mínima	8.7
5796	7	Sololá	701	Sololá	3	Barraneche	1	Enero	2023-01-31T00:00:00	2024-11-06T04:00:00	5	Humedad	64
5797	7	Sololá	701	Sololá	3	Barraneche	1	Enero	2023-01-31T00:00:00	2024-11-06T04:00:00	6	Velocidad del viento	8
5798	7	Sololá	701	Sololá	3	Barraneche	1	Enero	2023-01-31T00:00:00	2024-11-06T04:00:00	7	Dirección del viento	8.05
5799	7	Sololá	701	Sololá	3	Barraneche	1	Enero	2023-01-31T00:00:00	2024-11-06T04:00:00	1	Precipitación	0
5800	7	Sololá	701	Sololá	3	Barraneche	1	Enero	2023-01-31T00:00:00	2024-11-06T04:00:00	8	Radiación solar	0
5801	7	Sololá	701	Sololá	3	Barraneche	1	Enero	2023-01-31T00:00:00	2024-11-06T05:00:00	2	Temperatura media	9.9
5802	7	Sololá	701	Sololá	3	Barraneche	1	Enero	2023-01-31T00:00:00	2024-11-06T05:00:00	4	Temperatura máxima	10
5803	7	Sololá	701	Sololá	3	Barraneche	1	Enero	2023-01-31T00:00:00	2024-11-06T05:00:00	3	Temperatura mínima	9.3
5804	7	Sololá	701	Sololá	3	Barraneche	1	Enero	2023-01-31T00:00:00	2024-11-06T05:00:00	5	Humedad	62
5805	7	Sololá	701	Sololá	3	Barraneche	1	Enero	2023-01-31T00:00:00	2024-11-06T05:00:00	6	Velocidad del viento	9.7
5806	7	Sololá	701	Sololá	3	Barraneche	1	Enero	2023-01-31T00:00:00	2024-11-06T05:00:00	7	Dirección del viento	9.66
5807	7	Sololá	701	Sololá	3	Barraneche	1	Enero	2023-01-31T00:00:00	2024-11-06T05:00:00	1	Precipitación	0
5808	7	Sololá	701	Sololá	3	Barraneche	1	Enero	2023-01-31T00:00:00	2024-11-06T05:00:00	8	Radiación solar	0
5809	7	Sololá	701	Sololá	3	Barraneche	1	Enero	2023-01-31T00:00:00	2024-11-06T06:00:00	2	Temperatura media	7.9
5810	7	Sololá	701	Sololá	3	Barraneche	1	Enero	2023-01-31T00:00:00	2024-11-06T06:00:00	4	Temperatura máxima	9.9
5811	7	Sololá	701	Sololá	3	Barraneche	1	Enero	2023-01-31T00:00:00	2024-11-06T06:00:00	3	Temperatura mínima	7.9
5812	7	Sololá	701	Sololá	3	Barraneche	1	Enero	2023-01-31T00:00:00	2024-11-06T06:00:00	5	Humedad	58
5813	7	Sololá	701	Sololá	3	Barraneche	1	Enero	2023-01-31T00:00:00	2024-11-06T06:00:00	6	Velocidad del viento	8
5814	7	Sololá	701	Sololá	3	Barraneche	1	Enero	2023-01-31T00:00:00	2024-11-06T06:00:00	7	Dirección del viento	8.05
5815	7	Sololá	701	Sololá	3	Barraneche	1	Enero	2023-01-31T00:00:00	2024-11-06T06:00:00	1	Precipitación	0
5816	7	Sololá	701	Sololá	3	Barraneche	1	Enero	2023-01-31T00:00:00	2024-11-06T06:00:00	8	Radiación solar	0
5817	7	Sololá	701	Sololá	3	Barraneche	1	Enero	2023-01-31T00:00:00	2024-11-06T07:00:00	2	Temperatura media	6.3
5818	7	Sololá	701	Sololá	3	Barraneche	1	Enero	2023-01-31T00:00:00	2024-11-06T07:00:00	4	Temperatura máxima	7.9
5819	7	Sololá	701	Sololá	3	Barraneche	1	Enero	2023-01-31T00:00:00	2024-11-06T07:00:00	3	Temperatura mínima	6.3
5820	7	Sololá	701	Sololá	3	Barraneche	1	Enero	2023-01-31T00:00:00	2024-11-06T07:00:00	5	Humedad	57
5821	7	Sololá	701	Sololá	3	Barraneche	1	Enero	2023-01-31T00:00:00	2024-11-06T07:00:00	6	Velocidad del viento	6.4
5822	7	Sololá	701	Sololá	3	Barraneche	1	Enero	2023-01-31T00:00:00	2024-11-06T07:00:00	7	Dirección del viento	6.44
5823	7	Sololá	701	Sololá	3	Barraneche	1	Enero	2023-01-31T00:00:00	2024-11-06T07:00:00	1	Precipitación	0
5824	7	Sololá	701	Sololá	3	Barraneche	1	Enero	2023-01-31T00:00:00	2024-11-06T07:00:00	8	Radiación solar	5
5825	7	Sololá	701	Sololá	3	Barraneche	1	Enero	2023-01-31T00:00:00	2024-11-06T08:00:00	2	Temperatura media	10.8
5826	7	Sololá	701	Sololá	3	Barraneche	1	Enero	2023-01-31T00:00:00	2024-11-06T08:00:00	4	Temperatura máxima	10.8
5827	7	Sololá	701	Sololá	3	Barraneche	1	Enero	2023-01-31T00:00:00	2024-11-06T08:00:00	3	Temperatura mínima	5.9
5828	7	Sololá	701	Sololá	3	Barraneche	1	Enero	2023-01-31T00:00:00	2024-11-06T08:00:00	5	Humedad	51
5829	7	Sololá	701	Sololá	3	Barraneche	1	Enero	2023-01-31T00:00:00	2024-11-06T08:00:00	6	Velocidad del viento	4.8
5830	7	Sololá	701	Sololá	3	Barraneche	1	Enero	2023-01-31T00:00:00	2024-11-06T08:00:00	7	Dirección del viento	4.83
5831	7	Sololá	701	Sololá	3	Barraneche	1	Enero	2023-01-31T00:00:00	2024-11-06T08:00:00	1	Precipitación	0
5832	7	Sololá	701	Sololá	3	Barraneche	1	Enero	2023-01-31T00:00:00	2024-11-06T08:00:00	8	Radiación solar	154
5833	7	Sololá	701	Sololá	3	Barraneche	1	Enero	2023-01-31T00:00:00	2024-11-06T09:00:00	2	Temperatura media	14.6
5834	7	Sololá	701	Sololá	3	Barraneche	1	Enero	2023-01-31T00:00:00	2024-11-06T09:00:00	4	Temperatura máxima	14.6
5835	7	Sololá	701	Sololá	3	Barraneche	1	Enero	2023-01-31T00:00:00	2024-11-06T09:00:00	3	Temperatura mínima	10.9
5836	7	Sololá	701	Sololá	3	Barraneche	1	Enero	2023-01-31T00:00:00	2024-11-06T09:00:00	5	Humedad	42
5837	7	Sololá	701	Sololá	3	Barraneche	1	Enero	2023-01-31T00:00:00	2024-11-06T09:00:00	6	Velocidad del viento	3.2
5838	7	Sololá	701	Sololá	3	Barraneche	1	Enero	2023-01-31T00:00:00	2024-11-06T09:00:00	7	Dirección del viento	3.22
5839	7	Sololá	701	Sololá	3	Barraneche	1	Enero	2023-01-31T00:00:00	2024-11-06T09:00:00	1	Precipitación	0
5840	7	Sololá	701	Sololá	3	Barraneche	1	Enero	2023-01-31T00:00:00	2024-11-06T09:00:00	8	Radiación solar	419
5841	7	Sololá	701	Sololá	3	Barraneche	1	Enero	2023-01-31T00:00:00	2024-11-06T10:00:00	2	Temperatura media	18.1
5842	7	Sololá	701	Sololá	3	Barraneche	1	Enero	2023-01-31T00:00:00	2024-11-06T10:00:00	4	Temperatura máxima	18.2
5843	7	Sololá	701	Sololá	3	Barraneche	1	Enero	2023-01-31T00:00:00	2024-11-06T10:00:00	3	Temperatura mínima	14.6
5844	7	Sololá	701	Sololá	3	Barraneche	1	Enero	2023-01-31T00:00:00	2024-11-06T10:00:00	5	Humedad	17
5845	7	Sololá	701	Sololá	3	Barraneche	1	Enero	2023-01-31T00:00:00	2024-11-06T10:00:00	6	Velocidad del viento	8
5846	7	Sololá	701	Sololá	3	Barraneche	1	Enero	2023-01-31T00:00:00	2024-11-06T10:00:00	7	Dirección del viento	8.05
5847	7	Sololá	701	Sololá	3	Barraneche	1	Enero	2023-01-31T00:00:00	2024-11-06T10:00:00	1	Precipitación	0
5848	7	Sololá	701	Sololá	3	Barraneche	1	Enero	2023-01-31T00:00:00	2024-11-06T10:00:00	8	Radiación solar	644
5849	7	Sololá	701	Sololá	3	Barraneche	1	Enero	2023-01-31T00:00:00	2024-11-06T11:00:00	2	Temperatura media	18.4
5850	7	Sololá	701	Sololá	3	Barraneche	1	Enero	2023-01-31T00:00:00	2024-11-06T11:00:00	4	Temperatura máxima	18.6
5851	7	Sololá	701	Sololá	3	Barraneche	1	Enero	2023-01-31T00:00:00	2024-11-06T11:00:00	3	Temperatura mínima	17.7
5852	7	Sololá	701	Sololá	3	Barraneche	1	Enero	2023-01-31T00:00:00	2024-11-06T11:00:00	5	Humedad	19
5853	7	Sololá	701	Sololá	3	Barraneche	1	Enero	2023-01-31T00:00:00	2024-11-06T11:00:00	6	Velocidad del viento	9.7
5854	7	Sololá	701	Sololá	3	Barraneche	1	Enero	2023-01-31T00:00:00	2024-11-06T11:00:00	7	Dirección del viento	9.66
5855	7	Sololá	701	Sololá	3	Barraneche	1	Enero	2023-01-31T00:00:00	2024-11-06T11:00:00	1	Precipitación	0
5856	7	Sololá	701	Sololá	3	Barraneche	1	Enero	2023-01-31T00:00:00	2024-11-06T11:00:00	8	Radiación solar	808
5857	7	Sololá	701	Sololá	3	Barraneche	1	Enero	2023-01-31T00:00:00	2024-11-06T12:00:00	2	Temperatura media	19.9
5858	7	Sololá	701	Sololá	3	Barraneche	1	Enero	2023-01-31T00:00:00	2024-11-06T12:00:00	4	Temperatura máxima	19.9
5859	7	Sololá	701	Sololá	3	Barraneche	1	Enero	2023-01-31T00:00:00	2024-11-06T12:00:00	3	Temperatura mínima	18.3
5860	7	Sololá	701	Sololá	3	Barraneche	1	Enero	2023-01-31T00:00:00	2024-11-06T12:00:00	5	Humedad	20
5861	7	Sololá	701	Sololá	3	Barraneche	1	Enero	2023-01-31T00:00:00	2024-11-06T12:00:00	6	Velocidad del viento	11.3
5862	7	Sololá	701	Sololá	3	Barraneche	1	Enero	2023-01-31T00:00:00	2024-11-06T12:00:00	7	Dirección del viento	11.27
5863	7	Sololá	701	Sololá	3	Barraneche	1	Enero	2023-01-31T00:00:00	2024-11-06T12:00:00	1	Precipitación	0
5864	7	Sololá	701	Sololá	3	Barraneche	1	Enero	2023-01-31T00:00:00	2024-11-06T12:00:00	8	Radiación solar	899
5865	7	Sololá	701	Sololá	3	Barraneche	1	Enero	2023-01-31T00:00:00	2024-11-06T13:00:00	2	Temperatura media	21.1
5866	7	Sololá	701	Sololá	3	Barraneche	1	Enero	2023-01-31T00:00:00	2024-11-06T13:00:00	4	Temperatura máxima	21.1
5867	7	Sololá	701	Sololá	3	Barraneche	1	Enero	2023-01-31T00:00:00	2024-11-06T13:00:00	3	Temperatura mínima	19.9
5868	7	Sololá	701	Sololá	3	Barraneche	1	Enero	2023-01-31T00:00:00	2024-11-06T13:00:00	5	Humedad	20
5869	7	Sololá	701	Sololá	3	Barraneche	1	Enero	2023-01-31T00:00:00	2024-11-06T13:00:00	6	Velocidad del viento	8
5870	7	Sololá	701	Sololá	3	Barraneche	1	Enero	2023-01-31T00:00:00	2024-11-06T13:00:00	7	Dirección del viento	8.05
5871	7	Sololá	701	Sololá	3	Barraneche	1	Enero	2023-01-31T00:00:00	2024-11-06T13:00:00	1	Precipitación	0
5872	7	Sololá	701	Sololá	3	Barraneche	1	Enero	2023-01-31T00:00:00	2024-11-06T13:00:00	8	Radiación solar	912
5873	7	Sololá	701	Sololá	3	Barraneche	1	Enero	2023-01-31T00:00:00	2024-11-06T14:00:00	2	Temperatura media	20.7
5874	7	Sololá	701	Sololá	3	Barraneche	1	Enero	2023-01-31T00:00:00	2024-11-06T14:00:00	4	Temperatura máxima	21.1
5875	7	Sololá	701	Sololá	3	Barraneche	1	Enero	2023-01-31T00:00:00	2024-11-06T14:00:00	3	Temperatura mínima	20
5876	7	Sololá	701	Sololá	3	Barraneche	1	Enero	2023-01-31T00:00:00	2024-11-06T14:00:00	5	Humedad	24
5877	7	Sololá	701	Sololá	3	Barraneche	1	Enero	2023-01-31T00:00:00	2024-11-06T14:00:00	6	Velocidad del viento	12.9
5878	7	Sololá	701	Sololá	3	Barraneche	1	Enero	2023-01-31T00:00:00	2024-11-06T14:00:00	7	Dirección del viento	12.87
5879	7	Sololá	701	Sololá	3	Barraneche	1	Enero	2023-01-31T00:00:00	2024-11-06T14:00:00	1	Precipitación	0
5880	7	Sololá	701	Sololá	3	Barraneche	1	Enero	2023-01-31T00:00:00	2024-11-06T14:00:00	8	Radiación solar	856
5881	7	Sololá	701	Sololá	3	Barraneche	1	Enero	2023-01-31T00:00:00	2024-11-06T15:00:00	2	Temperatura media	19.9
5882	7	Sololá	701	Sololá	3	Barraneche	1	Enero	2023-01-31T00:00:00	2024-11-06T15:00:00	4	Temperatura máxima	20.8
5883	7	Sololá	701	Sololá	3	Barraneche	1	Enero	2023-01-31T00:00:00	2024-11-06T15:00:00	3	Temperatura mínima	19.9
5884	7	Sololá	701	Sololá	3	Barraneche	1	Enero	2023-01-31T00:00:00	2024-11-06T15:00:00	5	Humedad	32
5885	7	Sololá	701	Sololá	3	Barraneche	1	Enero	2023-01-31T00:00:00	2024-11-06T15:00:00	6	Velocidad del viento	12.9
5886	7	Sololá	701	Sololá	3	Barraneche	1	Enero	2023-01-31T00:00:00	2024-11-06T15:00:00	7	Dirección del viento	12.87
5887	7	Sololá	701	Sololá	3	Barraneche	1	Enero	2023-01-31T00:00:00	2024-11-06T15:00:00	1	Precipitación	0
5888	7	Sololá	701	Sololá	3	Barraneche	1	Enero	2023-01-31T00:00:00	2024-11-06T15:00:00	8	Radiación solar	725
5889	7	Sololá	701	Sololá	3	Barraneche	1	Enero	2023-01-31T00:00:00	2024-11-06T16:00:00	2	Temperatura media	17.9
5890	7	Sololá	701	Sololá	3	Barraneche	1	Enero	2023-01-31T00:00:00	2024-11-06T16:00:00	4	Temperatura máxima	19.9
5891	7	Sololá	701	Sololá	3	Barraneche	1	Enero	2023-01-31T00:00:00	2024-11-06T16:00:00	3	Temperatura mínima	17.8
5892	7	Sololá	701	Sololá	3	Barraneche	1	Enero	2023-01-31T00:00:00	2024-11-06T16:00:00	5	Humedad	51
5893	7	Sololá	701	Sololá	3	Barraneche	1	Enero	2023-01-31T00:00:00	2024-11-06T16:00:00	6	Velocidad del viento	14.5
5894	7	Sololá	701	Sololá	3	Barraneche	1	Enero	2023-01-31T00:00:00	2024-11-06T16:00:00	7	Dirección del viento	14.48
5895	7	Sololá	701	Sololá	3	Barraneche	1	Enero	2023-01-31T00:00:00	2024-11-06T16:00:00	1	Precipitación	0
5896	7	Sololá	701	Sololá	3	Barraneche	1	Enero	2023-01-31T00:00:00	2024-11-06T16:00:00	8	Radiación solar	517
5897	7	Sololá	701	Sololá	3	Barraneche	1	Enero	2023-01-31T00:00:00	2024-11-06T17:00:00	2	Temperatura media	17.7
5898	7	Sololá	701	Sololá	3	Barraneche	1	Enero	2023-01-31T00:00:00	2024-11-06T17:00:00	4	Temperatura máxima	18.3
5899	7	Sololá	701	Sololá	3	Barraneche	1	Enero	2023-01-31T00:00:00	2024-11-06T17:00:00	3	Temperatura mínima	17.7
5900	7	Sololá	701	Sololá	3	Barraneche	1	Enero	2023-01-31T00:00:00	2024-11-06T17:00:00	5	Humedad	26
5901	7	Sololá	701	Sololá	3	Barraneche	1	Enero	2023-01-31T00:00:00	2024-11-06T17:00:00	6	Velocidad del viento	12.9
5902	7	Sololá	701	Sololá	3	Barraneche	1	Enero	2023-01-31T00:00:00	2024-11-06T17:00:00	7	Dirección del viento	12.87
5903	7	Sololá	701	Sololá	3	Barraneche	1	Enero	2023-01-31T00:00:00	2024-11-06T17:00:00	1	Precipitación	0
5904	7	Sololá	701	Sololá	3	Barraneche	1	Enero	2023-01-31T00:00:00	2024-11-06T17:00:00	8	Radiación solar	289
5905	7	Sololá	701	Sololá	3	Barraneche	1	Enero	2023-01-31T00:00:00	2024-11-06T18:00:00	2	Temperatura media	15.3
5906	7	Sololá	701	Sololá	3	Barraneche	1	Enero	2023-01-31T00:00:00	2024-11-06T18:00:00	4	Temperatura máxima	17.7
5907	7	Sololá	701	Sololá	3	Barraneche	1	Enero	2023-01-31T00:00:00	2024-11-06T18:00:00	3	Temperatura mínima	15.3
5908	7	Sololá	701	Sololá	3	Barraneche	1	Enero	2023-01-31T00:00:00	2024-11-06T18:00:00	5	Humedad	33
5909	7	Sololá	701	Sololá	3	Barraneche	1	Enero	2023-01-31T00:00:00	2024-11-06T18:00:00	6	Velocidad del viento	14.5
5910	7	Sololá	701	Sololá	3	Barraneche	1	Enero	2023-01-31T00:00:00	2024-11-06T18:00:00	7	Dirección del viento	14.48
5911	7	Sololá	701	Sololá	3	Barraneche	1	Enero	2023-01-31T00:00:00	2024-11-06T18:00:00	1	Precipitación	0
5912	7	Sololá	701	Sololá	3	Barraneche	1	Enero	2023-01-31T00:00:00	2024-11-06T18:00:00	8	Radiación solar	65
5913	7	Sololá	701	Sololá	3	Barraneche	1	Enero	2023-01-31T00:00:00	2024-11-06T19:00:00	2	Temperatura media	14.4
5914	7	Sololá	701	Sololá	3	Barraneche	1	Enero	2023-01-31T00:00:00	2024-11-06T19:00:00	4	Temperatura máxima	15.3
5915	7	Sololá	701	Sololá	3	Barraneche	1	Enero	2023-01-31T00:00:00	2024-11-06T19:00:00	3	Temperatura mínima	14.4
5916	7	Sololá	701	Sololá	3	Barraneche	1	Enero	2023-01-31T00:00:00	2024-11-06T19:00:00	5	Humedad	48
5917	7	Sololá	701	Sololá	3	Barraneche	1	Enero	2023-01-31T00:00:00	2024-11-06T19:00:00	6	Velocidad del viento	16.1
5918	7	Sololá	701	Sololá	3	Barraneche	1	Enero	2023-01-31T00:00:00	2024-11-06T19:00:00	7	Dirección del viento	16.09
5919	7	Sololá	701	Sololá	3	Barraneche	1	Enero	2023-01-31T00:00:00	2024-11-06T19:00:00	1	Precipitación	0
5920	7	Sololá	701	Sololá	3	Barraneche	1	Enero	2023-01-31T00:00:00	2024-11-06T19:00:00	8	Radiación solar	0
5921	7	Sololá	701	Sololá	3	Barraneche	1	Enero	2023-01-31T00:00:00	2024-11-06T20:00:00	2	Temperatura media	13.6
5922	7	Sololá	701	Sololá	3	Barraneche	1	Enero	2023-01-31T00:00:00	2024-11-06T20:00:00	4	Temperatura máxima	14.4
5923	7	Sololá	701	Sololá	3	Barraneche	1	Enero	2023-01-31T00:00:00	2024-11-06T20:00:00	3	Temperatura mínima	13.6
5924	7	Sololá	701	Sololá	3	Barraneche	1	Enero	2023-01-31T00:00:00	2024-11-06T20:00:00	5	Humedad	40
5925	7	Sololá	701	Sololá	3	Barraneche	1	Enero	2023-01-31T00:00:00	2024-11-06T20:00:00	6	Velocidad del viento	9.7
5926	7	Sololá	701	Sololá	3	Barraneche	1	Enero	2023-01-31T00:00:00	2024-11-06T20:00:00	7	Dirección del viento	9.66
5927	7	Sololá	701	Sololá	3	Barraneche	1	Enero	2023-01-31T00:00:00	2024-11-06T20:00:00	1	Precipitación	0
5928	7	Sololá	701	Sololá	3	Barraneche	1	Enero	2023-01-31T00:00:00	2024-11-06T20:00:00	8	Radiación solar	0
5929	7	Sololá	701	Sololá	3	Barraneche	1	Enero	2023-01-31T00:00:00	2024-11-06T21:00:00	2	Temperatura media	13.7
5930	7	Sololá	701	Sololá	3	Barraneche	1	Enero	2023-01-31T00:00:00	2024-11-06T21:00:00	4	Temperatura máxima	13.8
5931	7	Sololá	701	Sololá	3	Barraneche	1	Enero	2023-01-31T00:00:00	2024-11-06T21:00:00	3	Temperatura mínima	12.7
5932	7	Sololá	701	Sololá	3	Barraneche	1	Enero	2023-01-31T00:00:00	2024-11-06T21:00:00	5	Humedad	41
5933	7	Sololá	701	Sololá	3	Barraneche	1	Enero	2023-01-31T00:00:00	2024-11-06T21:00:00	6	Velocidad del viento	6.4
5934	7	Sololá	701	Sololá	3	Barraneche	1	Enero	2023-01-31T00:00:00	2024-11-06T21:00:00	7	Dirección del viento	6.44
5935	7	Sololá	701	Sololá	3	Barraneche	1	Enero	2023-01-31T00:00:00	2024-11-06T21:00:00	1	Precipitación	0
5936	7	Sololá	701	Sololá	3	Barraneche	1	Enero	2023-01-31T00:00:00	2024-11-06T21:00:00	8	Radiación solar	0
5937	7	Sololá	701	Sololá	3	Barraneche	1	Enero	2023-01-31T00:00:00	2024-11-06T22:00:00	2	Temperatura media	11
5938	7	Sololá	701	Sololá	3	Barraneche	1	Enero	2023-01-31T00:00:00	2024-11-06T22:00:00	4	Temperatura máxima	13.7
5939	7	Sololá	701	Sololá	3	Barraneche	1	Enero	2023-01-31T00:00:00	2024-11-06T22:00:00	3	Temperatura mínima	11
5940	7	Sololá	701	Sololá	3	Barraneche	1	Enero	2023-01-31T00:00:00	2024-11-06T22:00:00	5	Humedad	35
5941	7	Sololá	701	Sololá	3	Barraneche	1	Enero	2023-01-31T00:00:00	2024-11-06T22:00:00	6	Velocidad del viento	4.8
5942	7	Sololá	701	Sololá	3	Barraneche	1	Enero	2023-01-31T00:00:00	2024-11-06T22:00:00	7	Dirección del viento	4.83
5943	7	Sololá	701	Sololá	3	Barraneche	1	Enero	2023-01-31T00:00:00	2024-11-06T22:00:00	1	Precipitación	0
5944	7	Sololá	701	Sololá	3	Barraneche	1	Enero	2023-01-31T00:00:00	2024-11-06T22:00:00	8	Radiación solar	0
5945	7	Sololá	701	Sololá	3	Barraneche	1	Enero	2023-01-31T00:00:00	2024-11-06T23:00:00	2	Temperatura media	11
5946	7	Sololá	701	Sololá	3	Barraneche	1	Enero	2023-01-31T00:00:00	2024-11-06T23:00:00	4	Temperatura máxima	11.2
5947	7	Sololá	701	Sololá	3	Barraneche	1	Enero	2023-01-31T00:00:00	2024-11-06T23:00:00	3	Temperatura mínima	10.4
5948	7	Sololá	701	Sololá	3	Barraneche	1	Enero	2023-01-31T00:00:00	2024-11-06T23:00:00	5	Humedad	31
5949	7	Sololá	701	Sololá	3	Barraneche	1	Enero	2023-01-31T00:00:00	2024-11-06T23:00:00	6	Velocidad del viento	4.8
5950	7	Sololá	701	Sololá	3	Barraneche	1	Enero	2023-01-31T00:00:00	2024-11-06T23:00:00	7	Dirección del viento	4.83
5951	7	Sololá	701	Sololá	3	Barraneche	1	Enero	2023-01-31T00:00:00	2024-11-06T23:00:00	1	Precipitación	0
5952	7	Sololá	701	Sololá	3	Barraneche	1	Enero	2023-01-31T00:00:00	2024-11-06T23:00:00	8	Radiación solar	0
5953	7	Sololá	701	Sololá	3	Barraneche	2	Febrero	2023-01-02T00:00:00	2024-11-06T00:00:00	2	Temperatura media	8.9
5954	7	Sololá	701	Sololá	3	Barraneche	2	Febrero	2023-01-02T00:00:00	2024-11-06T00:00:00	4	Temperatura máxima	11
5955	7	Sololá	701	Sololá	3	Barraneche	2	Febrero	2023-01-02T00:00:00	2024-11-06T00:00:00	3	Temperatura mínima	8.8
5956	7	Sololá	701	Sololá	3	Barraneche	2	Febrero	2023-01-02T00:00:00	2024-11-06T00:00:00	5	Humedad	29
5957	7	Sololá	701	Sololá	3	Barraneche	2	Febrero	2023-01-02T00:00:00	2024-11-06T00:00:00	6	Velocidad del viento	6.4
5958	7	Sololá	701	Sololá	3	Barraneche	2	Febrero	2023-01-02T00:00:00	2024-11-06T00:00:00	7	Dirección del viento	6.44
5959	7	Sololá	701	Sololá	3	Barraneche	2	Febrero	2023-01-02T00:00:00	2024-11-06T00:00:00	1	Precipitación	0
5960	7	Sololá	701	Sololá	3	Barraneche	2	Febrero	2023-01-02T00:00:00	2024-11-06T00:00:00	8	Radiación solar	0
5961	7	Sololá	701	Sololá	3	Barraneche	2	Febrero	2023-01-02T00:00:00	2024-11-06T01:00:00	2	Temperatura media	8.6
5962	7	Sololá	701	Sololá	3	Barraneche	2	Febrero	2023-01-02T00:00:00	2024-11-06T01:00:00	4	Temperatura máxima	9.3
5963	7	Sololá	701	Sololá	3	Barraneche	2	Febrero	2023-01-02T00:00:00	2024-11-06T01:00:00	3	Temperatura mínima	8.6
5964	7	Sololá	701	Sololá	3	Barraneche	2	Febrero	2023-01-02T00:00:00	2024-11-06T01:00:00	5	Humedad	31
5965	7	Sololá	701	Sololá	3	Barraneche	2	Febrero	2023-01-02T00:00:00	2024-11-06T01:00:00	6	Velocidad del viento	6.4
5966	7	Sololá	701	Sololá	3	Barraneche	2	Febrero	2023-01-02T00:00:00	2024-11-06T01:00:00	7	Dirección del viento	6.44
5967	7	Sololá	701	Sololá	3	Barraneche	2	Febrero	2023-01-02T00:00:00	2024-11-06T01:00:00	1	Precipitación	0
5968	7	Sololá	701	Sololá	3	Barraneche	2	Febrero	2023-01-02T00:00:00	2024-11-06T01:00:00	8	Radiación solar	0
5969	7	Sololá	701	Sololá	3	Barraneche	2	Febrero	2023-01-02T00:00:00	2024-11-06T02:00:00	2	Temperatura media	8.8
5970	7	Sololá	701	Sololá	3	Barraneche	2	Febrero	2023-01-02T00:00:00	2024-11-06T02:00:00	4	Temperatura máxima	8.8
5971	7	Sololá	701	Sololá	3	Barraneche	2	Febrero	2023-01-02T00:00:00	2024-11-06T02:00:00	3	Temperatura mínima	8.2
5972	7	Sololá	701	Sololá	3	Barraneche	2	Febrero	2023-01-02T00:00:00	2024-11-06T02:00:00	5	Humedad	35
5973	7	Sololá	701	Sololá	3	Barraneche	2	Febrero	2023-01-02T00:00:00	2024-11-06T02:00:00	6	Velocidad del viento	6.4
5974	7	Sololá	701	Sololá	3	Barraneche	2	Febrero	2023-01-02T00:00:00	2024-11-06T02:00:00	7	Dirección del viento	6.44
5975	7	Sololá	701	Sololá	3	Barraneche	2	Febrero	2023-01-02T00:00:00	2024-11-06T02:00:00	1	Precipitación	0
5976	7	Sololá	701	Sololá	3	Barraneche	2	Febrero	2023-01-02T00:00:00	2024-11-06T02:00:00	8	Radiación solar	0
5977	7	Sololá	701	Sololá	3	Barraneche	2	Febrero	2023-01-02T00:00:00	2024-11-06T03:00:00	2	Temperatura media	7.3
5978	7	Sololá	701	Sololá	3	Barraneche	2	Febrero	2023-01-02T00:00:00	2024-11-06T03:00:00	4	Temperatura máxima	8.8
5979	7	Sololá	701	Sololá	3	Barraneche	2	Febrero	2023-01-02T00:00:00	2024-11-06T03:00:00	3	Temperatura mínima	7.3
5980	7	Sololá	701	Sololá	3	Barraneche	2	Febrero	2023-01-02T00:00:00	2024-11-06T03:00:00	5	Humedad	42
5981	7	Sololá	701	Sololá	3	Barraneche	2	Febrero	2023-01-02T00:00:00	2024-11-06T03:00:00	6	Velocidad del viento	6.4
5982	7	Sololá	701	Sololá	3	Barraneche	2	Febrero	2023-01-02T00:00:00	2024-11-06T03:00:00	7	Dirección del viento	6.44
5983	7	Sololá	701	Sololá	3	Barraneche	2	Febrero	2023-01-02T00:00:00	2024-11-06T03:00:00	1	Precipitación	0
5984	7	Sololá	701	Sololá	3	Barraneche	2	Febrero	2023-01-02T00:00:00	2024-11-06T03:00:00	8	Radiación solar	0
5985	7	Sololá	701	Sololá	3	Barraneche	2	Febrero	2023-01-02T00:00:00	2024-11-06T04:00:00	2	Temperatura media	7.4
5986	7	Sololá	701	Sololá	3	Barraneche	2	Febrero	2023-01-02T00:00:00	2024-11-06T04:00:00	4	Temperatura máxima	7.6
5987	7	Sololá	701	Sololá	3	Barraneche	2	Febrero	2023-01-02T00:00:00	2024-11-06T04:00:00	3	Temperatura mínima	7.2
5988	7	Sololá	701	Sololá	3	Barraneche	2	Febrero	2023-01-02T00:00:00	2024-11-06T04:00:00	5	Humedad	48
5989	7	Sololá	701	Sololá	3	Barraneche	2	Febrero	2023-01-02T00:00:00	2024-11-06T04:00:00	6	Velocidad del viento	6.4
5990	7	Sololá	701	Sololá	3	Barraneche	2	Febrero	2023-01-02T00:00:00	2024-11-06T04:00:00	7	Dirección del viento	6.44
5991	7	Sololá	701	Sololá	3	Barraneche	2	Febrero	2023-01-02T00:00:00	2024-11-06T04:00:00	1	Precipitación	0
5992	7	Sololá	701	Sololá	3	Barraneche	2	Febrero	2023-01-02T00:00:00	2024-11-06T04:00:00	8	Radiación solar	0
5993	7	Sololá	701	Sololá	3	Barraneche	2	Febrero	2023-01-02T00:00:00	2024-11-06T05:00:00	2	Temperatura media	7.4
5994	7	Sololá	701	Sololá	3	Barraneche	2	Febrero	2023-01-02T00:00:00	2024-11-06T05:00:00	4	Temperatura máxima	7.7
5995	7	Sololá	701	Sololá	3	Barraneche	2	Febrero	2023-01-02T00:00:00	2024-11-06T05:00:00	3	Temperatura mínima	6.8
5996	7	Sololá	701	Sololá	3	Barraneche	2	Febrero	2023-01-02T00:00:00	2024-11-06T05:00:00	5	Humedad	49
5997	7	Sololá	701	Sololá	3	Barraneche	2	Febrero	2023-01-02T00:00:00	2024-11-06T05:00:00	6	Velocidad del viento	4.8
5998	7	Sololá	701	Sololá	3	Barraneche	2	Febrero	2023-01-02T00:00:00	2024-11-06T05:00:00	7	Dirección del viento	4.83
5999	7	Sololá	701	Sololá	3	Barraneche	2	Febrero	2023-01-02T00:00:00	2024-11-06T05:00:00	1	Precipitación	0
6000	7	Sololá	701	Sololá	3	Barraneche	2	Febrero	2023-01-02T00:00:00	2024-11-06T05:00:00	8	Radiación solar	0
6001	7	Sololá	701	Sololá	3	Barraneche	2	Febrero	2023-01-02T00:00:00	2024-11-06T06:00:00	2	Temperatura media	8.2
6002	7	Sololá	701	Sololá	3	Barraneche	2	Febrero	2023-01-02T00:00:00	2024-11-06T06:00:00	4	Temperatura máxima	8.2
6003	7	Sololá	701	Sololá	3	Barraneche	2	Febrero	2023-01-02T00:00:00	2024-11-06T06:00:00	3	Temperatura mínima	7.2
6004	7	Sololá	701	Sololá	3	Barraneche	2	Febrero	2023-01-02T00:00:00	2024-11-06T06:00:00	5	Humedad	52
6005	7	Sololá	701	Sololá	3	Barraneche	2	Febrero	2023-01-02T00:00:00	2024-11-06T06:00:00	6	Velocidad del viento	6.4
6006	7	Sololá	701	Sololá	3	Barraneche	2	Febrero	2023-01-02T00:00:00	2024-11-06T06:00:00	7	Dirección del viento	6.44
6007	7	Sololá	701	Sololá	3	Barraneche	2	Febrero	2023-01-02T00:00:00	2024-11-06T06:00:00	1	Precipitación	0
6008	7	Sololá	701	Sololá	3	Barraneche	2	Febrero	2023-01-02T00:00:00	2024-11-06T06:00:00	8	Radiación solar	0
6009	7	Sololá	701	Sololá	3	Barraneche	2	Febrero	2023-01-02T00:00:00	2024-11-06T07:00:00	2	Temperatura media	9.1
6010	7	Sololá	701	Sololá	3	Barraneche	2	Febrero	2023-01-02T00:00:00	2024-11-06T07:00:00	4	Temperatura máxima	9.3
6011	7	Sololá	701	Sololá	3	Barraneche	2	Febrero	2023-01-02T00:00:00	2024-11-06T07:00:00	3	Temperatura mínima	8.1
6012	7	Sololá	701	Sololá	3	Barraneche	2	Febrero	2023-01-02T00:00:00	2024-11-06T07:00:00	5	Humedad	54
6013	7	Sololá	701	Sololá	3	Barraneche	2	Febrero	2023-01-02T00:00:00	2024-11-06T07:00:00	6	Velocidad del viento	4.8
6014	7	Sololá	701	Sololá	3	Barraneche	2	Febrero	2023-01-02T00:00:00	2024-11-06T07:00:00	7	Dirección del viento	4.83
6015	7	Sololá	701	Sololá	3	Barraneche	2	Febrero	2023-01-02T00:00:00	2024-11-06T07:00:00	1	Precipitación	0
6016	7	Sololá	701	Sololá	3	Barraneche	2	Febrero	2023-01-02T00:00:00	2024-11-06T07:00:00	8	Radiación solar	5
6017	7	Sololá	701	Sololá	3	Barraneche	2	Febrero	2023-01-02T00:00:00	2024-11-06T08:00:00	2	Temperatura media	12.6
6018	7	Sololá	701	Sololá	3	Barraneche	2	Febrero	2023-01-02T00:00:00	2024-11-06T08:00:00	4	Temperatura máxima	12.6
6019	7	Sololá	701	Sololá	3	Barraneche	2	Febrero	2023-01-02T00:00:00	2024-11-06T08:00:00	3	Temperatura mínima	8.9
6020	7	Sololá	701	Sololá	3	Barraneche	2	Febrero	2023-01-02T00:00:00	2024-11-06T08:00:00	5	Humedad	49
6021	7	Sololá	701	Sololá	3	Barraneche	2	Febrero	2023-01-02T00:00:00	2024-11-06T08:00:00	6	Velocidad del viento	4.8
6022	7	Sololá	701	Sololá	3	Barraneche	2	Febrero	2023-01-02T00:00:00	2024-11-06T08:00:00	7	Dirección del viento	4.83
6023	7	Sololá	701	Sololá	3	Barraneche	2	Febrero	2023-01-02T00:00:00	2024-11-06T08:00:00	1	Precipitación	0
6024	7	Sololá	701	Sololá	3	Barraneche	2	Febrero	2023-01-02T00:00:00	2024-11-06T08:00:00	8	Radiación solar	154
6025	7	Sololá	701	Sololá	3	Barraneche	2	Febrero	2023-01-02T00:00:00	2024-11-06T09:00:00	2	Temperatura media	15.9
6026	7	Sololá	701	Sololá	3	Barraneche	2	Febrero	2023-01-02T00:00:00	2024-11-06T09:00:00	4	Temperatura máxima	16.2
6027	7	Sololá	701	Sololá	3	Barraneche	2	Febrero	2023-01-02T00:00:00	2024-11-06T09:00:00	3	Temperatura mínima	12.6
6028	7	Sololá	701	Sololá	3	Barraneche	2	Febrero	2023-01-02T00:00:00	2024-11-06T09:00:00	5	Humedad	38
6029	7	Sololá	701	Sololá	3	Barraneche	2	Febrero	2023-01-02T00:00:00	2024-11-06T09:00:00	6	Velocidad del viento	4.8
6030	7	Sololá	701	Sololá	3	Barraneche	2	Febrero	2023-01-02T00:00:00	2024-11-06T09:00:00	7	Dirección del viento	4.83
6031	7	Sololá	701	Sololá	3	Barraneche	2	Febrero	2023-01-02T00:00:00	2024-11-06T09:00:00	1	Precipitación	0
6032	7	Sololá	701	Sololá	3	Barraneche	2	Febrero	2023-01-02T00:00:00	2024-11-06T09:00:00	8	Radiación solar	417
6033	7	Sololá	701	Sololá	3	Barraneche	2	Febrero	2023-01-02T00:00:00	2024-11-06T10:00:00	2	Temperatura media	16.9
6034	7	Sololá	701	Sololá	3	Barraneche	2	Febrero	2023-01-02T00:00:00	2024-11-06T10:00:00	4	Temperatura máxima	17
6035	7	Sololá	701	Sololá	3	Barraneche	2	Febrero	2023-01-02T00:00:00	2024-11-06T10:00:00	3	Temperatura mínima	15.9
6036	7	Sololá	701	Sololá	3	Barraneche	2	Febrero	2023-01-02T00:00:00	2024-11-06T10:00:00	5	Humedad	35
6037	7	Sololá	701	Sololá	3	Barraneche	2	Febrero	2023-01-02T00:00:00	2024-11-06T10:00:00	6	Velocidad del viento	11.3
6038	7	Sololá	701	Sololá	3	Barraneche	2	Febrero	2023-01-02T00:00:00	2024-11-06T10:00:00	7	Dirección del viento	11.27
6039	7	Sololá	701	Sololá	3	Barraneche	2	Febrero	2023-01-02T00:00:00	2024-11-06T10:00:00	1	Precipitación	0
6040	7	Sololá	701	Sololá	3	Barraneche	2	Febrero	2023-01-02T00:00:00	2024-11-06T10:00:00	8	Radiación solar	636
6041	7	Sololá	701	Sololá	3	Barraneche	2	Febrero	2023-01-02T00:00:00	2024-11-06T11:00:00	2	Temperatura media	18.2
6042	7	Sololá	701	Sololá	3	Barraneche	2	Febrero	2023-01-02T00:00:00	2024-11-06T11:00:00	4	Temperatura máxima	19
6043	7	Sololá	701	Sololá	3	Barraneche	2	Febrero	2023-01-02T00:00:00	2024-11-06T11:00:00	3	Temperatura mínima	16.9
6044	7	Sololá	701	Sololá	3	Barraneche	2	Febrero	2023-01-02T00:00:00	2024-11-06T11:00:00	5	Humedad	35
6045	7	Sololá	701	Sololá	3	Barraneche	2	Febrero	2023-01-02T00:00:00	2024-11-06T11:00:00	6	Velocidad del viento	11.3
6046	7	Sololá	701	Sololá	3	Barraneche	2	Febrero	2023-01-02T00:00:00	2024-11-06T11:00:00	7	Dirección del viento	11.27
6047	7	Sololá	701	Sololá	3	Barraneche	2	Febrero	2023-01-02T00:00:00	2024-11-06T11:00:00	1	Precipitación	0
6048	7	Sololá	701	Sololá	3	Barraneche	2	Febrero	2023-01-02T00:00:00	2024-11-06T11:00:00	8	Radiación solar	799
6049	7	Sololá	701	Sololá	3	Barraneche	2	Febrero	2023-01-02T00:00:00	2024-11-06T12:00:00	2	Temperatura media	18.8
6050	7	Sololá	701	Sololá	3	Barraneche	2	Febrero	2023-01-02T00:00:00	2024-11-06T12:00:00	4	Temperatura máxima	19.1
6051	7	Sololá	701	Sololá	3	Barraneche	2	Febrero	2023-01-02T00:00:00	2024-11-06T12:00:00	3	Temperatura mínima	18.1
6052	7	Sololá	701	Sololá	3	Barraneche	2	Febrero	2023-01-02T00:00:00	2024-11-06T12:00:00	5	Humedad	32
6053	7	Sololá	701	Sololá	3	Barraneche	2	Febrero	2023-01-02T00:00:00	2024-11-06T12:00:00	6	Velocidad del viento	11.3
6054	7	Sololá	701	Sololá	3	Barraneche	2	Febrero	2023-01-02T00:00:00	2024-11-06T12:00:00	7	Dirección del viento	11.27
6055	7	Sololá	701	Sololá	3	Barraneche	2	Febrero	2023-01-02T00:00:00	2024-11-06T12:00:00	1	Precipitación	0
6056	7	Sololá	701	Sololá	3	Barraneche	2	Febrero	2023-01-02T00:00:00	2024-11-06T12:00:00	8	Radiación solar	894
6057	7	Sololá	701	Sololá	3	Barraneche	2	Febrero	2023-01-02T00:00:00	2024-11-06T13:00:00	2	Temperatura media	19.8
6058	7	Sololá	701	Sololá	3	Barraneche	2	Febrero	2023-01-02T00:00:00	2024-11-06T13:00:00	4	Temperatura máxima	19.8
6059	7	Sololá	701	Sololá	3	Barraneche	2	Febrero	2023-01-02T00:00:00	2024-11-06T13:00:00	3	Temperatura mínima	18.7
6060	7	Sololá	701	Sololá	3	Barraneche	2	Febrero	2023-01-02T00:00:00	2024-11-06T13:00:00	5	Humedad	32
6061	7	Sololá	701	Sololá	3	Barraneche	2	Febrero	2023-01-02T00:00:00	2024-11-06T13:00:00	6	Velocidad del viento	14.5
6062	7	Sololá	701	Sololá	3	Barraneche	2	Febrero	2023-01-02T00:00:00	2024-11-06T13:00:00	7	Dirección del viento	14.48
6063	7	Sololá	701	Sololá	3	Barraneche	2	Febrero	2023-01-02T00:00:00	2024-11-06T13:00:00	1	Precipitación	0
6064	7	Sololá	701	Sololá	3	Barraneche	2	Febrero	2023-01-02T00:00:00	2024-11-06T13:00:00	8	Radiación solar	916
6065	7	Sololá	701	Sololá	3	Barraneche	2	Febrero	2023-01-02T00:00:00	2024-11-06T14:00:00	2	Temperatura media	19.7
6066	7	Sololá	701	Sololá	3	Barraneche	2	Febrero	2023-01-02T00:00:00	2024-11-06T14:00:00	4	Temperatura máxima	19.9
6067	7	Sololá	701	Sololá	3	Barraneche	2	Febrero	2023-01-02T00:00:00	2024-11-06T14:00:00	3	Temperatura mínima	19
6068	7	Sololá	701	Sololá	3	Barraneche	2	Febrero	2023-01-02T00:00:00	2024-11-06T14:00:00	5	Humedad	29
6069	7	Sololá	701	Sololá	3	Barraneche	2	Febrero	2023-01-02T00:00:00	2024-11-06T14:00:00	6	Velocidad del viento	14.5
6070	7	Sololá	701	Sololá	3	Barraneche	2	Febrero	2023-01-02T00:00:00	2024-11-06T14:00:00	7	Dirección del viento	14.48
6071	7	Sololá	701	Sololá	3	Barraneche	2	Febrero	2023-01-02T00:00:00	2024-11-06T14:00:00	1	Precipitación	0
6072	7	Sololá	701	Sololá	3	Barraneche	2	Febrero	2023-01-02T00:00:00	2024-11-06T14:00:00	8	Radiación solar	857
6073	7	Sololá	701	Sololá	3	Barraneche	2	Febrero	2023-01-02T00:00:00	2024-11-06T15:00:00	2	Temperatura media	19.3
6074	7	Sololá	701	Sololá	3	Barraneche	2	Febrero	2023-01-02T00:00:00	2024-11-06T15:00:00	4	Temperatura máxima	20.2
6075	7	Sololá	701	Sololá	3	Barraneche	2	Febrero	2023-01-02T00:00:00	2024-11-06T15:00:00	3	Temperatura mínima	19.3
6076	7	Sololá	701	Sololá	3	Barraneche	2	Febrero	2023-01-02T00:00:00	2024-11-06T15:00:00	5	Humedad	31
6077	7	Sololá	701	Sololá	3	Barraneche	2	Febrero	2023-01-02T00:00:00	2024-11-06T15:00:00	6	Velocidad del viento	12.9
6078	7	Sololá	701	Sololá	3	Barraneche	2	Febrero	2023-01-02T00:00:00	2024-11-06T15:00:00	7	Dirección del viento	12.87
6079	7	Sololá	701	Sololá	3	Barraneche	2	Febrero	2023-01-02T00:00:00	2024-11-06T15:00:00	1	Precipitación	0
6080	7	Sololá	701	Sololá	3	Barraneche	2	Febrero	2023-01-02T00:00:00	2024-11-06T15:00:00	8	Radiación solar	727
6081	7	Sololá	701	Sololá	3	Barraneche	2	Febrero	2023-01-02T00:00:00	2024-11-06T16:00:00	2	Temperatura media	18.3
6082	7	Sololá	701	Sololá	3	Barraneche	2	Febrero	2023-01-02T00:00:00	2024-11-06T16:00:00	4	Temperatura máxima	19.8
6083	7	Sololá	701	Sololá	3	Barraneche	2	Febrero	2023-01-02T00:00:00	2024-11-06T16:00:00	3	Temperatura mínima	18.3
6084	7	Sololá	701	Sololá	3	Barraneche	2	Febrero	2023-01-02T00:00:00	2024-11-06T16:00:00	5	Humedad	38
6085	7	Sololá	701	Sololá	3	Barraneche	2	Febrero	2023-01-02T00:00:00	2024-11-06T16:00:00	6	Velocidad del viento	12.9
6086	7	Sololá	701	Sololá	3	Barraneche	2	Febrero	2023-01-02T00:00:00	2024-11-06T16:00:00	7	Dirección del viento	12.87
6087	7	Sololá	701	Sololá	3	Barraneche	2	Febrero	2023-01-02T00:00:00	2024-11-06T16:00:00	1	Precipitación	0
6088	7	Sololá	701	Sololá	3	Barraneche	2	Febrero	2023-01-02T00:00:00	2024-11-06T16:00:00	8	Radiación solar	485
6089	7	Sololá	701	Sololá	3	Barraneche	2	Febrero	2023-01-02T00:00:00	2024-11-06T17:00:00	2	Temperatura media	17.4
6090	7	Sololá	701	Sololá	3	Barraneche	2	Febrero	2023-01-02T00:00:00	2024-11-06T17:00:00	4	Temperatura máxima	18.3
6091	7	Sololá	701	Sololá	3	Barraneche	2	Febrero	2023-01-02T00:00:00	2024-11-06T17:00:00	3	Temperatura mínima	17.3
6092	7	Sololá	701	Sololá	3	Barraneche	2	Febrero	2023-01-02T00:00:00	2024-11-06T17:00:00	5	Humedad	43
6093	7	Sololá	701	Sololá	3	Barraneche	2	Febrero	2023-01-02T00:00:00	2024-11-06T17:00:00	6	Velocidad del viento	11.3
6094	7	Sololá	701	Sololá	3	Barraneche	2	Febrero	2023-01-02T00:00:00	2024-11-06T17:00:00	7	Dirección del viento	11.27
6095	7	Sololá	701	Sololá	3	Barraneche	2	Febrero	2023-01-02T00:00:00	2024-11-06T17:00:00	1	Precipitación	0
6096	7	Sololá	701	Sololá	3	Barraneche	2	Febrero	2023-01-02T00:00:00	2024-11-06T17:00:00	8	Radiación solar	217
6097	7	Sololá	701	Sololá	3	Barraneche	2	Febrero	2023-01-02T00:00:00	2024-11-06T18:00:00	2	Temperatura media	14.8
6098	7	Sololá	701	Sololá	3	Barraneche	2	Febrero	2023-01-02T00:00:00	2024-11-06T18:00:00	4	Temperatura máxima	17.4
6099	7	Sololá	701	Sololá	3	Barraneche	2	Febrero	2023-01-02T00:00:00	2024-11-06T18:00:00	3	Temperatura mínima	14.8
6100	7	Sololá	701	Sololá	3	Barraneche	2	Febrero	2023-01-02T00:00:00	2024-11-06T18:00:00	5	Humedad	57
6101	7	Sololá	701	Sololá	3	Barraneche	2	Febrero	2023-01-02T00:00:00	2024-11-06T18:00:00	6	Velocidad del viento	12.9
6102	7	Sololá	701	Sololá	3	Barraneche	2	Febrero	2023-01-02T00:00:00	2024-11-06T18:00:00	7	Dirección del viento	12.87
6103	7	Sololá	701	Sololá	3	Barraneche	2	Febrero	2023-01-02T00:00:00	2024-11-06T18:00:00	1	Precipitación	0
6104	7	Sololá	701	Sololá	3	Barraneche	2	Febrero	2023-01-02T00:00:00	2024-11-06T18:00:00	8	Radiación solar	61
6105	7	Sololá	701	Sololá	3	Barraneche	2	Febrero	2023-01-02T00:00:00	2024-11-06T19:00:00	2	Temperatura media	13.4
6106	7	Sololá	701	Sololá	3	Barraneche	2	Febrero	2023-01-02T00:00:00	2024-11-06T19:00:00	4	Temperatura máxima	14.7
6107	7	Sololá	701	Sololá	3	Barraneche	2	Febrero	2023-01-02T00:00:00	2024-11-06T19:00:00	3	Temperatura mínima	13.4
6108	7	Sololá	701	Sololá	3	Barraneche	2	Febrero	2023-01-02T00:00:00	2024-11-06T19:00:00	5	Humedad	60
6109	7	Sololá	701	Sololá	3	Barraneche	2	Febrero	2023-01-02T00:00:00	2024-11-06T19:00:00	6	Velocidad del viento	12.9
6110	7	Sololá	701	Sololá	3	Barraneche	2	Febrero	2023-01-02T00:00:00	2024-11-06T19:00:00	7	Dirección del viento	12.87
6111	7	Sololá	701	Sololá	3	Barraneche	2	Febrero	2023-01-02T00:00:00	2024-11-06T19:00:00	1	Precipitación	0
6112	7	Sololá	701	Sololá	3	Barraneche	2	Febrero	2023-01-02T00:00:00	2024-11-06T19:00:00	8	Radiación solar	0
6113	7	Sololá	701	Sololá	3	Barraneche	2	Febrero	2023-01-02T00:00:00	2024-11-06T20:00:00	2	Temperatura media	12.9
6114	7	Sololá	701	Sololá	3	Barraneche	2	Febrero	2023-01-02T00:00:00	2024-11-06T20:00:00	4	Temperatura máxima	13.5
6115	7	Sololá	701	Sololá	3	Barraneche	2	Febrero	2023-01-02T00:00:00	2024-11-06T20:00:00	3	Temperatura mínima	12.9
6116	7	Sololá	701	Sololá	3	Barraneche	2	Febrero	2023-01-02T00:00:00	2024-11-06T20:00:00	5	Humedad	55
6117	7	Sololá	701	Sololá	3	Barraneche	2	Febrero	2023-01-02T00:00:00	2024-11-06T20:00:00	6	Velocidad del viento	9.7
6118	7	Sololá	701	Sololá	3	Barraneche	2	Febrero	2023-01-02T00:00:00	2024-11-06T20:00:00	7	Dirección del viento	9.66
6119	7	Sololá	701	Sololá	3	Barraneche	2	Febrero	2023-01-02T00:00:00	2024-11-06T20:00:00	1	Precipitación	0
6120	7	Sololá	701	Sololá	3	Barraneche	2	Febrero	2023-01-02T00:00:00	2024-11-06T20:00:00	8	Radiación solar	0
6121	7	Sololá	701	Sololá	3	Barraneche	2	Febrero	2023-01-02T00:00:00	2024-11-06T21:00:00	2	Temperatura media	12.3
6122	7	Sololá	701	Sololá	3	Barraneche	2	Febrero	2023-01-02T00:00:00	2024-11-06T21:00:00	4	Temperatura máxima	12.9
6123	7	Sololá	701	Sololá	3	Barraneche	2	Febrero	2023-01-02T00:00:00	2024-11-06T21:00:00	3	Temperatura mínima	12.3
6124	7	Sololá	701	Sololá	3	Barraneche	2	Febrero	2023-01-02T00:00:00	2024-11-06T21:00:00	5	Humedad	56
6125	7	Sololá	701	Sololá	3	Barraneche	2	Febrero	2023-01-02T00:00:00	2024-11-06T21:00:00	6	Velocidad del viento	9.7
6126	7	Sololá	701	Sololá	3	Barraneche	2	Febrero	2023-01-02T00:00:00	2024-11-06T21:00:00	7	Dirección del viento	9.66
6127	7	Sololá	701	Sololá	3	Barraneche	2	Febrero	2023-01-02T00:00:00	2024-11-06T21:00:00	1	Precipitación	0
6128	7	Sololá	701	Sololá	3	Barraneche	2	Febrero	2023-01-02T00:00:00	2024-11-06T21:00:00	8	Radiación solar	0
6129	7	Sololá	701	Sololá	3	Barraneche	2	Febrero	2023-01-02T00:00:00	2024-11-06T22:00:00	2	Temperatura media	12.1
6130	7	Sololá	701	Sololá	3	Barraneche	2	Febrero	2023-01-02T00:00:00	2024-11-06T22:00:00	4	Temperatura máxima	12.4
6131	7	Sololá	701	Sololá	3	Barraneche	2	Febrero	2023-01-02T00:00:00	2024-11-06T22:00:00	3	Temperatura mínima	12
6132	7	Sololá	701	Sololá	3	Barraneche	2	Febrero	2023-01-02T00:00:00	2024-11-06T22:00:00	5	Humedad	53
6133	7	Sololá	701	Sololá	3	Barraneche	2	Febrero	2023-01-02T00:00:00	2024-11-06T22:00:00	6	Velocidad del viento	11.3
6134	7	Sololá	701	Sololá	3	Barraneche	2	Febrero	2023-01-02T00:00:00	2024-11-06T22:00:00	7	Dirección del viento	11.27
6135	7	Sololá	701	Sololá	3	Barraneche	2	Febrero	2023-01-02T00:00:00	2024-11-06T22:00:00	1	Precipitación	0
6136	7	Sololá	701	Sololá	3	Barraneche	2	Febrero	2023-01-02T00:00:00	2024-11-06T22:00:00	8	Radiación solar	0
6137	7	Sololá	701	Sololá	3	Barraneche	2	Febrero	2023-01-02T00:00:00	2024-11-06T23:00:00	2	Temperatura media	11.7
6138	7	Sololá	701	Sololá	3	Barraneche	2	Febrero	2023-01-02T00:00:00	2024-11-06T23:00:00	4	Temperatura máxima	12.2
6139	7	Sololá	701	Sololá	3	Barraneche	2	Febrero	2023-01-02T00:00:00	2024-11-06T23:00:00	3	Temperatura mínima	11.3
6140	7	Sololá	701	Sololá	3	Barraneche	2	Febrero	2023-01-02T00:00:00	2024-11-06T23:00:00	5	Humedad	54
6141	7	Sololá	701	Sololá	3	Barraneche	2	Febrero	2023-01-02T00:00:00	2024-11-06T23:00:00	6	Velocidad del viento	6.4
6142	7	Sololá	701	Sololá	3	Barraneche	2	Febrero	2023-01-02T00:00:00	2024-11-06T23:00:00	7	Dirección del viento	6.44
6143	7	Sololá	701	Sololá	3	Barraneche	2	Febrero	2023-01-02T00:00:00	2024-11-06T23:00:00	1	Precipitación	0
6144	7	Sololá	701	Sololá	3	Barraneche	2	Febrero	2023-01-02T00:00:00	2024-11-06T23:00:00	8	Radiación solar	0
6145	7	Sololá	701	Sololá	3	Barraneche	2	Febrero	2023-02-02T00:00:00	2024-11-06T00:00:00	2	Temperatura media	11.5
6146	7	Sololá	701	Sololá	3	Barraneche	2	Febrero	2023-02-02T00:00:00	2024-11-06T00:00:00	4	Temperatura máxima	11.9
6147	7	Sololá	701	Sololá	3	Barraneche	2	Febrero	2023-02-02T00:00:00	2024-11-06T00:00:00	3	Temperatura mínima	11.4
6148	7	Sololá	701	Sololá	3	Barraneche	2	Febrero	2023-02-02T00:00:00	2024-11-06T00:00:00	5	Humedad	52
6149	7	Sololá	701	Sololá	3	Barraneche	2	Febrero	2023-02-02T00:00:00	2024-11-06T00:00:00	6	Velocidad del viento	12.9
6150	7	Sololá	701	Sololá	3	Barraneche	2	Febrero	2023-02-02T00:00:00	2024-11-06T00:00:00	7	Dirección del viento	12.87
6151	7	Sololá	701	Sololá	3	Barraneche	2	Febrero	2023-02-02T00:00:00	2024-11-06T00:00:00	1	Precipitación	0
6152	7	Sololá	701	Sololá	3	Barraneche	2	Febrero	2023-02-02T00:00:00	2024-11-06T00:00:00	8	Radiación solar	0
6153	7	Sololá	701	Sololá	3	Barraneche	2	Febrero	2023-02-02T00:00:00	2024-11-06T01:00:00	2	Temperatura media	9.3
6154	7	Sololá	701	Sololá	3	Barraneche	2	Febrero	2023-02-02T00:00:00	2024-11-06T01:00:00	4	Temperatura máxima	11.5
6155	7	Sololá	701	Sololá	3	Barraneche	2	Febrero	2023-02-02T00:00:00	2024-11-06T01:00:00	3	Temperatura mínima	9.3
6156	7	Sololá	701	Sololá	3	Barraneche	2	Febrero	2023-02-02T00:00:00	2024-11-06T01:00:00	5	Humedad	40
6157	7	Sololá	701	Sololá	3	Barraneche	2	Febrero	2023-02-02T00:00:00	2024-11-06T01:00:00	6	Velocidad del viento	9.7
6158	7	Sololá	701	Sololá	3	Barraneche	2	Febrero	2023-02-02T00:00:00	2024-11-06T01:00:00	7	Dirección del viento	9.66
6159	7	Sololá	701	Sololá	3	Barraneche	2	Febrero	2023-02-02T00:00:00	2024-11-06T01:00:00	1	Precipitación	0
6160	7	Sololá	701	Sololá	3	Barraneche	2	Febrero	2023-02-02T00:00:00	2024-11-06T01:00:00	8	Radiación solar	0
6161	7	Sololá	701	Sololá	3	Barraneche	2	Febrero	2023-02-02T00:00:00	2024-11-06T02:00:00	2	Temperatura media	8.6
6162	7	Sololá	701	Sololá	3	Barraneche	2	Febrero	2023-02-02T00:00:00	2024-11-06T02:00:00	4	Temperatura máxima	9.8
6163	7	Sololá	701	Sololá	3	Barraneche	2	Febrero	2023-02-02T00:00:00	2024-11-06T02:00:00	3	Temperatura mínima	8.6
6164	7	Sololá	701	Sololá	3	Barraneche	2	Febrero	2023-02-02T00:00:00	2024-11-06T02:00:00	5	Humedad	35
6165	7	Sololá	701	Sololá	3	Barraneche	2	Febrero	2023-02-02T00:00:00	2024-11-06T02:00:00	6	Velocidad del viento	4.8
6166	7	Sololá	701	Sololá	3	Barraneche	2	Febrero	2023-02-02T00:00:00	2024-11-06T02:00:00	7	Dirección del viento	4.83
6167	7	Sololá	701	Sololá	3	Barraneche	2	Febrero	2023-02-02T00:00:00	2024-11-06T02:00:00	1	Precipitación	0
6168	7	Sololá	701	Sololá	3	Barraneche	2	Febrero	2023-02-02T00:00:00	2024-11-06T02:00:00	8	Radiación solar	0
6169	7	Sololá	701	Sololá	3	Barraneche	2	Febrero	2023-02-02T00:00:00	2024-11-06T03:00:00	2	Temperatura media	7.7
6170	7	Sololá	701	Sololá	3	Barraneche	2	Febrero	2023-02-02T00:00:00	2024-11-06T03:00:00	4	Temperatura máxima	8.6
6171	7	Sololá	701	Sololá	3	Barraneche	2	Febrero	2023-02-02T00:00:00	2024-11-06T03:00:00	3	Temperatura mínima	7.3
6172	7	Sololá	701	Sololá	3	Barraneche	2	Febrero	2023-02-02T00:00:00	2024-11-06T03:00:00	5	Humedad	33
6173	7	Sololá	701	Sololá	3	Barraneche	2	Febrero	2023-02-02T00:00:00	2024-11-06T03:00:00	6	Velocidad del viento	3.2
6174	7	Sololá	701	Sololá	3	Barraneche	2	Febrero	2023-02-02T00:00:00	2024-11-06T03:00:00	7	Dirección del viento	3.22
6175	7	Sololá	701	Sololá	3	Barraneche	2	Febrero	2023-02-02T00:00:00	2024-11-06T03:00:00	1	Precipitación	0
6176	7	Sololá	701	Sololá	3	Barraneche	2	Febrero	2023-02-02T00:00:00	2024-11-06T03:00:00	8	Radiación solar	0
6177	7	Sololá	701	Sololá	3	Barraneche	2	Febrero	2023-02-02T00:00:00	2024-11-06T04:00:00	2	Temperatura media	7.8
6178	7	Sololá	701	Sololá	3	Barraneche	2	Febrero	2023-02-02T00:00:00	2024-11-06T04:00:00	4	Temperatura máxima	7.9
6179	7	Sololá	701	Sololá	3	Barraneche	2	Febrero	2023-02-02T00:00:00	2024-11-06T04:00:00	3	Temperatura mínima	7.5
6180	7	Sololá	701	Sololá	3	Barraneche	2	Febrero	2023-02-02T00:00:00	2024-11-06T04:00:00	5	Humedad	34
6181	7	Sololá	701	Sololá	3	Barraneche	2	Febrero	2023-02-02T00:00:00	2024-11-06T04:00:00	6	Velocidad del viento	1.6
6182	7	Sololá	701	Sololá	3	Barraneche	2	Febrero	2023-02-02T00:00:00	2024-11-06T04:00:00	7	Dirección del viento	1.61
6183	7	Sololá	701	Sololá	3	Barraneche	2	Febrero	2023-02-02T00:00:00	2024-11-06T04:00:00	1	Precipitación	0
6184	7	Sololá	701	Sololá	3	Barraneche	2	Febrero	2023-02-02T00:00:00	2024-11-06T04:00:00	8	Radiación solar	0
6185	7	Sololá	701	Sololá	3	Barraneche	2	Febrero	2023-02-02T00:00:00	2024-11-06T05:00:00	2	Temperatura media	8.7
6186	7	Sololá	701	Sololá	3	Barraneche	2	Febrero	2023-02-02T00:00:00	2024-11-06T05:00:00	4	Temperatura máxima	8.7
6187	7	Sololá	701	Sololá	3	Barraneche	2	Febrero	2023-02-02T00:00:00	2024-11-06T05:00:00	3	Temperatura mínima	7.7
6188	7	Sololá	701	Sololá	3	Barraneche	2	Febrero	2023-02-02T00:00:00	2024-11-06T05:00:00	5	Humedad	33
6189	7	Sololá	701	Sololá	3	Barraneche	2	Febrero	2023-02-02T00:00:00	2024-11-06T05:00:00	6	Velocidad del viento	3.2
6190	7	Sololá	701	Sololá	3	Barraneche	2	Febrero	2023-02-02T00:00:00	2024-11-06T05:00:00	7	Dirección del viento	3.22
6191	7	Sololá	701	Sololá	3	Barraneche	2	Febrero	2023-02-02T00:00:00	2024-11-06T05:00:00	1	Precipitación	0
6192	7	Sololá	701	Sololá	3	Barraneche	2	Febrero	2023-02-02T00:00:00	2024-11-06T05:00:00	8	Radiación solar	0
6193	7	Sololá	701	Sololá	3	Barraneche	2	Febrero	2023-02-02T00:00:00	2024-11-06T06:00:00	2	Temperatura media	7.9
6194	7	Sololá	701	Sololá	3	Barraneche	2	Febrero	2023-02-02T00:00:00	2024-11-06T06:00:00	4	Temperatura máxima	9
6195	7	Sololá	701	Sololá	3	Barraneche	2	Febrero	2023-02-02T00:00:00	2024-11-06T06:00:00	3	Temperatura mínima	7.9
6196	7	Sololá	701	Sololá	3	Barraneche	2	Febrero	2023-02-02T00:00:00	2024-11-06T06:00:00	5	Humedad	33
6197	7	Sololá	701	Sololá	3	Barraneche	2	Febrero	2023-02-02T00:00:00	2024-11-06T06:00:00	6	Velocidad del viento	1.6
6198	7	Sololá	701	Sololá	3	Barraneche	2	Febrero	2023-02-02T00:00:00	2024-11-06T06:00:00	7	Dirección del viento	1.61
6199	7	Sololá	701	Sololá	3	Barraneche	2	Febrero	2023-02-02T00:00:00	2024-11-06T06:00:00	1	Precipitación	0
6200	7	Sololá	701	Sololá	3	Barraneche	2	Febrero	2023-02-02T00:00:00	2024-11-06T06:00:00	8	Radiación solar	0
6201	7	Sololá	701	Sololá	3	Barraneche	2	Febrero	2023-02-02T00:00:00	2024-11-06T07:00:00	2	Temperatura media	7.1
6202	7	Sololá	701	Sololá	3	Barraneche	2	Febrero	2023-02-02T00:00:00	2024-11-06T07:00:00	4	Temperatura máxima	7.9
6203	7	Sololá	701	Sololá	3	Barraneche	2	Febrero	2023-02-02T00:00:00	2024-11-06T07:00:00	3	Temperatura mínima	6.5
6204	7	Sololá	701	Sololá	3	Barraneche	2	Febrero	2023-02-02T00:00:00	2024-11-06T07:00:00	5	Humedad	32
6205	7	Sololá	701	Sololá	3	Barraneche	2	Febrero	2023-02-02T00:00:00	2024-11-06T07:00:00	6	Velocidad del viento	4.8
6206	7	Sololá	701	Sololá	3	Barraneche	2	Febrero	2023-02-02T00:00:00	2024-11-06T07:00:00	7	Dirección del viento	4.83
6207	7	Sololá	701	Sololá	3	Barraneche	2	Febrero	2023-02-02T00:00:00	2024-11-06T07:00:00	1	Precipitación	0
6208	7	Sololá	701	Sololá	3	Barraneche	2	Febrero	2023-02-02T00:00:00	2024-11-06T07:00:00	8	Radiación solar	5
6209	7	Sololá	701	Sololá	3	Barraneche	2	Febrero	2023-02-02T00:00:00	2024-11-06T08:00:00	2	Temperatura media	11.7
6210	7	Sololá	701	Sololá	3	Barraneche	2	Febrero	2023-02-02T00:00:00	2024-11-06T08:00:00	4	Temperatura máxima	11.7
6211	7	Sololá	701	Sololá	3	Barraneche	2	Febrero	2023-02-02T00:00:00	2024-11-06T08:00:00	3	Temperatura mínima	7.1
6212	7	Sololá	701	Sololá	3	Barraneche	2	Febrero	2023-02-02T00:00:00	2024-11-06T08:00:00	5	Humedad	29
6213	7	Sololá	701	Sololá	3	Barraneche	2	Febrero	2023-02-02T00:00:00	2024-11-06T08:00:00	6	Velocidad del viento	3.2
6214	7	Sololá	701	Sololá	3	Barraneche	2	Febrero	2023-02-02T00:00:00	2024-11-06T08:00:00	7	Dirección del viento	3.22
6215	7	Sololá	701	Sololá	3	Barraneche	2	Febrero	2023-02-02T00:00:00	2024-11-06T08:00:00	1	Precipitación	0
6216	7	Sololá	701	Sololá	3	Barraneche	2	Febrero	2023-02-02T00:00:00	2024-11-06T08:00:00	8	Radiación solar	157
6217	7	Sololá	701	Sololá	3	Barraneche	2	Febrero	2023-02-02T00:00:00	2024-11-06T09:00:00	2	Temperatura media	15.4
6218	7	Sololá	701	Sololá	3	Barraneche	2	Febrero	2023-02-02T00:00:00	2024-11-06T09:00:00	4	Temperatura máxima	15.4
6219	7	Sololá	701	Sololá	3	Barraneche	2	Febrero	2023-02-02T00:00:00	2024-11-06T09:00:00	3	Temperatura mínima	11.8
6220	7	Sololá	701	Sololá	3	Barraneche	2	Febrero	2023-02-02T00:00:00	2024-11-06T09:00:00	5	Humedad	28
6221	7	Sololá	701	Sololá	3	Barraneche	2	Febrero	2023-02-02T00:00:00	2024-11-06T09:00:00	6	Velocidad del viento	3.2
6222	7	Sololá	701	Sololá	3	Barraneche	2	Febrero	2023-02-02T00:00:00	2024-11-06T09:00:00	7	Dirección del viento	3.22
6223	7	Sololá	701	Sololá	3	Barraneche	2	Febrero	2023-02-02T00:00:00	2024-11-06T09:00:00	1	Precipitación	0
6224	7	Sololá	701	Sololá	3	Barraneche	2	Febrero	2023-02-02T00:00:00	2024-11-06T09:00:00	8	Radiación solar	425
6225	7	Sololá	701	Sololá	3	Barraneche	2	Febrero	2023-02-02T00:00:00	2024-11-06T10:00:00	2	Temperatura media	17.3
6226	7	Sololá	701	Sololá	3	Barraneche	2	Febrero	2023-02-02T00:00:00	2024-11-06T10:00:00	4	Temperatura máxima	17.3
6227	7	Sololá	701	Sololá	3	Barraneche	2	Febrero	2023-02-02T00:00:00	2024-11-06T10:00:00	3	Temperatura mínima	15.4
6228	7	Sololá	701	Sololá	3	Barraneche	2	Febrero	2023-02-02T00:00:00	2024-11-06T10:00:00	5	Humedad	21
6229	7	Sololá	701	Sololá	3	Barraneche	2	Febrero	2023-02-02T00:00:00	2024-11-06T10:00:00	6	Velocidad del viento	16.1
6230	7	Sololá	701	Sololá	3	Barraneche	2	Febrero	2023-02-02T00:00:00	2024-11-06T10:00:00	7	Dirección del viento	16.09
6231	7	Sololá	701	Sololá	3	Barraneche	2	Febrero	2023-02-02T00:00:00	2024-11-06T10:00:00	1	Precipitación	0
6232	7	Sololá	701	Sololá	3	Barraneche	2	Febrero	2023-02-02T00:00:00	2024-11-06T10:00:00	8	Radiación solar	650
6233	7	Sololá	701	Sololá	3	Barraneche	2	Febrero	2023-02-02T00:00:00	2024-11-06T11:00:00	2	Temperatura media	17.5
6234	7	Sololá	701	Sololá	3	Barraneche	2	Febrero	2023-02-02T00:00:00	2024-11-06T11:00:00	4	Temperatura máxima	18
6235	7	Sololá	701	Sololá	3	Barraneche	2	Febrero	2023-02-02T00:00:00	2024-11-06T11:00:00	3	Temperatura mínima	17.1
6236	7	Sololá	701	Sololá	3	Barraneche	2	Febrero	2023-02-02T00:00:00	2024-11-06T11:00:00	5	Humedad	28
6237	7	Sololá	701	Sololá	3	Barraneche	2	Febrero	2023-02-02T00:00:00	2024-11-06T11:00:00	6	Velocidad del viento	9.7
6238	7	Sololá	701	Sololá	3	Barraneche	2	Febrero	2023-02-02T00:00:00	2024-11-06T11:00:00	7	Dirección del viento	9.66
6239	7	Sololá	701	Sololá	3	Barraneche	2	Febrero	2023-02-02T00:00:00	2024-11-06T11:00:00	1	Precipitación	0
6240	7	Sololá	701	Sololá	3	Barraneche	2	Febrero	2023-02-02T00:00:00	2024-11-06T11:00:00	8	Radiación solar	808
6241	7	Sololá	701	Sololá	3	Barraneche	2	Febrero	2023-02-02T00:00:00	2024-11-06T12:00:00	2	Temperatura media	18.7
6242	7	Sololá	701	Sololá	3	Barraneche	2	Febrero	2023-02-02T00:00:00	2024-11-06T12:00:00	4	Temperatura máxima	18.7
6243	7	Sololá	701	Sololá	3	Barraneche	2	Febrero	2023-02-02T00:00:00	2024-11-06T12:00:00	3	Temperatura mínima	17.4
6244	7	Sololá	701	Sololá	3	Barraneche	2	Febrero	2023-02-02T00:00:00	2024-11-06T12:00:00	5	Humedad	27
6245	7	Sololá	701	Sololá	3	Barraneche	2	Febrero	2023-02-02T00:00:00	2024-11-06T12:00:00	6	Velocidad del viento	11.3
6246	7	Sololá	701	Sololá	3	Barraneche	2	Febrero	2023-02-02T00:00:00	2024-11-06T12:00:00	7	Dirección del viento	11.27
6247	7	Sololá	701	Sololá	3	Barraneche	2	Febrero	2023-02-02T00:00:00	2024-11-06T12:00:00	1	Precipitación	0
6248	7	Sololá	701	Sololá	3	Barraneche	2	Febrero	2023-02-02T00:00:00	2024-11-06T12:00:00	8	Radiación solar	896
6249	7	Sololá	701	Sololá	3	Barraneche	2	Febrero	2023-02-02T00:00:00	2024-11-06T13:00:00	2	Temperatura media	19.3
6250	7	Sololá	701	Sololá	3	Barraneche	2	Febrero	2023-02-02T00:00:00	2024-11-06T13:00:00	4	Temperatura máxima	19.4
6251	7	Sololá	701	Sololá	3	Barraneche	2	Febrero	2023-02-02T00:00:00	2024-11-06T13:00:00	3	Temperatura mínima	18.7
6252	7	Sololá	701	Sololá	3	Barraneche	2	Febrero	2023-02-02T00:00:00	2024-11-06T13:00:00	5	Humedad	25
6253	7	Sololá	701	Sololá	3	Barraneche	2	Febrero	2023-02-02T00:00:00	2024-11-06T13:00:00	6	Velocidad del viento	11.3
6254	7	Sololá	701	Sololá	3	Barraneche	2	Febrero	2023-02-02T00:00:00	2024-11-06T13:00:00	7	Dirección del viento	11.27
6255	7	Sololá	701	Sololá	3	Barraneche	2	Febrero	2023-02-02T00:00:00	2024-11-06T13:00:00	1	Precipitación	0
6256	7	Sololá	701	Sololá	3	Barraneche	2	Febrero	2023-02-02T00:00:00	2024-11-06T13:00:00	8	Radiación solar	905
6257	7	Sololá	701	Sololá	3	Barraneche	2	Febrero	2023-02-02T00:00:00	2024-11-06T14:00:00	2	Temperatura media	19.4
6258	7	Sololá	701	Sololá	3	Barraneche	2	Febrero	2023-02-02T00:00:00	2024-11-06T14:00:00	4	Temperatura máxima	19.7
6259	7	Sololá	701	Sololá	3	Barraneche	2	Febrero	2023-02-02T00:00:00	2024-11-06T14:00:00	3	Temperatura mínima	19.2
6260	7	Sololá	701	Sololá	3	Barraneche	2	Febrero	2023-02-02T00:00:00	2024-11-06T14:00:00	5	Humedad	27
6261	7	Sololá	701	Sololá	3	Barraneche	2	Febrero	2023-02-02T00:00:00	2024-11-06T14:00:00	6	Velocidad del viento	14.5
6262	7	Sololá	701	Sololá	3	Barraneche	2	Febrero	2023-02-02T00:00:00	2024-11-06T14:00:00	7	Dirección del viento	14.48
6263	7	Sololá	701	Sololá	3	Barraneche	2	Febrero	2023-02-02T00:00:00	2024-11-06T14:00:00	1	Precipitación	0
6264	7	Sololá	701	Sololá	3	Barraneche	2	Febrero	2023-02-02T00:00:00	2024-11-06T14:00:00	8	Radiación solar	846
6265	7	Sololá	701	Sololá	3	Barraneche	2	Febrero	2023-02-02T00:00:00	2024-11-06T15:00:00	2	Temperatura media	19.2
6266	7	Sololá	701	Sololá	3	Barraneche	2	Febrero	2023-02-02T00:00:00	2024-11-06T15:00:00	4	Temperatura máxima	19.6
6267	7	Sololá	701	Sololá	3	Barraneche	2	Febrero	2023-02-02T00:00:00	2024-11-06T15:00:00	3	Temperatura mínima	19.1
6268	7	Sololá	701	Sololá	3	Barraneche	2	Febrero	2023-02-02T00:00:00	2024-11-06T15:00:00	5	Humedad	36
6269	7	Sololá	701	Sololá	3	Barraneche	2	Febrero	2023-02-02T00:00:00	2024-11-06T15:00:00	6	Velocidad del viento	12.9
6270	7	Sololá	701	Sololá	3	Barraneche	2	Febrero	2023-02-02T00:00:00	2024-11-06T15:00:00	7	Dirección del viento	12.87
6271	7	Sololá	701	Sololá	3	Barraneche	2	Febrero	2023-02-02T00:00:00	2024-11-06T15:00:00	1	Precipitación	0
6272	7	Sololá	701	Sololá	3	Barraneche	2	Febrero	2023-02-02T00:00:00	2024-11-06T15:00:00	8	Radiación solar	714
6273	7	Sololá	701	Sololá	3	Barraneche	2	Febrero	2023-02-02T00:00:00	2024-11-06T16:00:00	2	Temperatura media	18.7
6274	7	Sololá	701	Sololá	3	Barraneche	2	Febrero	2023-02-02T00:00:00	2024-11-06T16:00:00	4	Temperatura máxima	19.4
6275	7	Sololá	701	Sololá	3	Barraneche	2	Febrero	2023-02-02T00:00:00	2024-11-06T16:00:00	3	Temperatura mínima	18.7
6276	7	Sololá	701	Sololá	3	Barraneche	2	Febrero	2023-02-02T00:00:00	2024-11-06T16:00:00	5	Humedad	24
6277	7	Sololá	701	Sololá	3	Barraneche	2	Febrero	2023-02-02T00:00:00	2024-11-06T16:00:00	6	Velocidad del viento	12.9
6278	7	Sololá	701	Sololá	3	Barraneche	2	Febrero	2023-02-02T00:00:00	2024-11-06T16:00:00	7	Dirección del viento	12.87
6279	7	Sololá	701	Sololá	3	Barraneche	2	Febrero	2023-02-02T00:00:00	2024-11-06T16:00:00	1	Precipitación	0
6280	7	Sololá	701	Sololá	3	Barraneche	2	Febrero	2023-02-02T00:00:00	2024-11-06T16:00:00	8	Radiación solar	531
6281	7	Sololá	701	Sololá	3	Barraneche	2	Febrero	2023-02-02T00:00:00	2024-11-06T17:00:00	2	Temperatura media	17.8
6282	7	Sololá	701	Sololá	3	Barraneche	2	Febrero	2023-02-02T00:00:00	2024-11-06T17:00:00	4	Temperatura máxima	18.9
6283	7	Sololá	701	Sololá	3	Barraneche	2	Febrero	2023-02-02T00:00:00	2024-11-06T17:00:00	3	Temperatura mínima	17.8
6284	7	Sololá	701	Sololá	3	Barraneche	2	Febrero	2023-02-02T00:00:00	2024-11-06T17:00:00	5	Humedad	13
6285	7	Sololá	701	Sololá	3	Barraneche	2	Febrero	2023-02-02T00:00:00	2024-11-06T17:00:00	6	Velocidad del viento	11.3
6286	7	Sololá	701	Sololá	3	Barraneche	2	Febrero	2023-02-02T00:00:00	2024-11-06T17:00:00	7	Dirección del viento	11.27
6287	7	Sololá	701	Sololá	3	Barraneche	2	Febrero	2023-02-02T00:00:00	2024-11-06T17:00:00	1	Precipitación	0
6288	7	Sololá	701	Sololá	3	Barraneche	2	Febrero	2023-02-02T00:00:00	2024-11-06T17:00:00	8	Radiación solar	307
6289	7	Sololá	701	Sololá	3	Barraneche	2	Febrero	2023-02-02T00:00:00	2024-11-06T18:00:00	2	Temperatura media	15.2
6290	7	Sololá	701	Sololá	3	Barraneche	2	Febrero	2023-02-02T00:00:00	2024-11-06T18:00:00	4	Temperatura máxima	17.8
6291	7	Sololá	701	Sololá	3	Barraneche	2	Febrero	2023-02-02T00:00:00	2024-11-06T18:00:00	3	Temperatura mínima	15.2
6292	7	Sololá	701	Sololá	3	Barraneche	2	Febrero	2023-02-02T00:00:00	2024-11-06T18:00:00	5	Humedad	33
6293	7	Sololá	701	Sololá	3	Barraneche	2	Febrero	2023-02-02T00:00:00	2024-11-06T18:00:00	6	Velocidad del viento	9.7
6294	7	Sololá	701	Sololá	3	Barraneche	2	Febrero	2023-02-02T00:00:00	2024-11-06T18:00:00	7	Dirección del viento	9.66
6295	7	Sololá	701	Sololá	3	Barraneche	2	Febrero	2023-02-02T00:00:00	2024-11-06T18:00:00	1	Precipitación	0
6296	7	Sololá	701	Sololá	3	Barraneche	2	Febrero	2023-02-02T00:00:00	2024-11-06T18:00:00	8	Radiación solar	72
6297	7	Sololá	701	Sololá	3	Barraneche	2	Febrero	2023-02-02T00:00:00	2024-11-06T19:00:00	2	Temperatura media	13.8
6298	7	Sololá	701	Sololá	3	Barraneche	2	Febrero	2023-02-02T00:00:00	2024-11-06T19:00:00	4	Temperatura máxima	15.2
6299	7	Sololá	701	Sololá	3	Barraneche	2	Febrero	2023-02-02T00:00:00	2024-11-06T19:00:00	3	Temperatura mínima	13.8
6300	7	Sololá	701	Sololá	3	Barraneche	2	Febrero	2023-02-02T00:00:00	2024-11-06T19:00:00	5	Humedad	53
6301	7	Sololá	701	Sololá	3	Barraneche	2	Febrero	2023-02-02T00:00:00	2024-11-06T19:00:00	6	Velocidad del viento	8
6302	7	Sololá	701	Sololá	3	Barraneche	2	Febrero	2023-02-02T00:00:00	2024-11-06T19:00:00	7	Dirección del viento	8.05
6303	7	Sololá	701	Sololá	3	Barraneche	2	Febrero	2023-02-02T00:00:00	2024-11-06T19:00:00	1	Precipitación	0
6304	7	Sololá	701	Sololá	3	Barraneche	2	Febrero	2023-02-02T00:00:00	2024-11-06T19:00:00	8	Radiación solar	0
6305	7	Sololá	701	Sololá	3	Barraneche	2	Febrero	2023-02-02T00:00:00	2024-11-06T20:00:00	2	Temperatura media	12.4
6306	7	Sololá	701	Sololá	3	Barraneche	2	Febrero	2023-02-02T00:00:00	2024-11-06T20:00:00	4	Temperatura máxima	13.8
6307	7	Sololá	701	Sololá	3	Barraneche	2	Febrero	2023-02-02T00:00:00	2024-11-06T20:00:00	3	Temperatura mínima	12.4
6308	7	Sololá	701	Sololá	3	Barraneche	2	Febrero	2023-02-02T00:00:00	2024-11-06T20:00:00	5	Humedad	48
6309	7	Sololá	701	Sololá	3	Barraneche	2	Febrero	2023-02-02T00:00:00	2024-11-06T20:00:00	6	Velocidad del viento	11.3
6310	7	Sololá	701	Sololá	3	Barraneche	2	Febrero	2023-02-02T00:00:00	2024-11-06T20:00:00	7	Dirección del viento	11.27
6311	7	Sololá	701	Sololá	3	Barraneche	2	Febrero	2023-02-02T00:00:00	2024-11-06T20:00:00	1	Precipitación	0
6312	7	Sololá	701	Sololá	3	Barraneche	2	Febrero	2023-02-02T00:00:00	2024-11-06T20:00:00	8	Radiación solar	0
6313	7	Sololá	701	Sololá	3	Barraneche	2	Febrero	2023-02-02T00:00:00	2024-11-06T21:00:00	2	Temperatura media	11.8
6314	7	Sololá	701	Sololá	3	Barraneche	2	Febrero	2023-02-02T00:00:00	2024-11-06T21:00:00	4	Temperatura máxima	12.4
6315	7	Sololá	701	Sololá	3	Barraneche	2	Febrero	2023-02-02T00:00:00	2024-11-06T21:00:00	3	Temperatura mínima	10.3
6316	7	Sololá	701	Sololá	3	Barraneche	2	Febrero	2023-02-02T00:00:00	2024-11-06T21:00:00	5	Humedad	54
6317	7	Sololá	701	Sololá	3	Barraneche	2	Febrero	2023-02-02T00:00:00	2024-11-06T21:00:00	6	Velocidad del viento	6.4
6318	7	Sololá	701	Sololá	3	Barraneche	2	Febrero	2023-02-02T00:00:00	2024-11-06T21:00:00	7	Dirección del viento	6.44
6319	7	Sololá	701	Sololá	3	Barraneche	2	Febrero	2023-02-02T00:00:00	2024-11-06T21:00:00	1	Precipitación	0
6320	7	Sololá	701	Sololá	3	Barraneche	2	Febrero	2023-02-02T00:00:00	2024-11-06T21:00:00	8	Radiación solar	0
6321	7	Sololá	701	Sololá	3	Barraneche	2	Febrero	2023-02-02T00:00:00	2024-11-06T22:00:00	2	Temperatura media	11.5
6322	7	Sololá	701	Sololá	3	Barraneche	2	Febrero	2023-02-02T00:00:00	2024-11-06T22:00:00	4	Temperatura máxima	12.1
6323	7	Sololá	701	Sololá	3	Barraneche	2	Febrero	2023-02-02T00:00:00	2024-11-06T22:00:00	3	Temperatura mínima	11.1
6324	7	Sololá	701	Sololá	3	Barraneche	2	Febrero	2023-02-02T00:00:00	2024-11-06T22:00:00	5	Humedad	58
6325	7	Sololá	701	Sololá	3	Barraneche	2	Febrero	2023-02-02T00:00:00	2024-11-06T22:00:00	6	Velocidad del viento	12.9
6326	7	Sololá	701	Sololá	3	Barraneche	2	Febrero	2023-02-02T00:00:00	2024-11-06T22:00:00	7	Dirección del viento	12.87
6327	7	Sololá	701	Sololá	3	Barraneche	2	Febrero	2023-02-02T00:00:00	2024-11-06T22:00:00	1	Precipitación	0
6328	7	Sololá	701	Sololá	3	Barraneche	2	Febrero	2023-02-02T00:00:00	2024-11-06T22:00:00	8	Radiación solar	0
6329	7	Sololá	701	Sololá	3	Barraneche	2	Febrero	2023-02-02T00:00:00	2024-11-06T23:00:00	2	Temperatura media	11.1
6330	7	Sololá	701	Sololá	3	Barraneche	2	Febrero	2023-02-02T00:00:00	2024-11-06T23:00:00	4	Temperatura máxima	11.5
6331	7	Sololá	701	Sololá	3	Barraneche	2	Febrero	2023-02-02T00:00:00	2024-11-06T23:00:00	3	Temperatura mínima	10.9
6332	7	Sololá	701	Sololá	3	Barraneche	2	Febrero	2023-02-02T00:00:00	2024-11-06T23:00:00	5	Humedad	58
6333	7	Sololá	701	Sololá	3	Barraneche	2	Febrero	2023-02-02T00:00:00	2024-11-06T23:00:00	6	Velocidad del viento	14.5
6334	7	Sololá	701	Sololá	3	Barraneche	2	Febrero	2023-02-02T00:00:00	2024-11-06T23:00:00	7	Dirección del viento	14.48
6335	7	Sololá	701	Sololá	3	Barraneche	2	Febrero	2023-02-02T00:00:00	2024-11-06T23:00:00	1	Precipitación	0
6336	7	Sololá	701	Sololá	3	Barraneche	2	Febrero	2023-02-02T00:00:00	2024-11-06T23:00:00	8	Radiación solar	0
6337	7	Sololá	701	Sololá	3	Barraneche	2	Febrero	2023-03-02T00:00:00	2024-11-06T00:00:00	2	Temperatura media	9.2
6338	7	Sololá	701	Sololá	3	Barraneche	2	Febrero	2023-03-02T00:00:00	2024-11-06T00:00:00	4	Temperatura máxima	11.2
6339	7	Sololá	701	Sololá	3	Barraneche	2	Febrero	2023-03-02T00:00:00	2024-11-06T00:00:00	3	Temperatura mínima	9.2
6340	7	Sololá	701	Sololá	3	Barraneche	2	Febrero	2023-03-02T00:00:00	2024-11-06T00:00:00	5	Humedad	57
6341	7	Sololá	701	Sololá	3	Barraneche	2	Febrero	2023-03-02T00:00:00	2024-11-06T00:00:00	6	Velocidad del viento	12.9
6342	7	Sololá	701	Sololá	3	Barraneche	2	Febrero	2023-03-02T00:00:00	2024-11-06T00:00:00	7	Dirección del viento	12.87
6343	7	Sololá	701	Sololá	3	Barraneche	2	Febrero	2023-03-02T00:00:00	2024-11-06T00:00:00	1	Precipitación	0
6344	7	Sololá	701	Sololá	3	Barraneche	2	Febrero	2023-03-02T00:00:00	2024-11-06T00:00:00	8	Radiación solar	0
6345	7	Sololá	701	Sololá	3	Barraneche	2	Febrero	2023-03-02T00:00:00	2024-11-06T01:00:00	2	Temperatura media	8.9
6346	7	Sololá	701	Sololá	3	Barraneche	2	Febrero	2023-03-02T00:00:00	2024-11-06T01:00:00	4	Temperatura máxima	9.7
6347	7	Sololá	701	Sololá	3	Barraneche	2	Febrero	2023-03-02T00:00:00	2024-11-06T01:00:00	3	Temperatura mínima	8.7
6348	7	Sololá	701	Sololá	3	Barraneche	2	Febrero	2023-03-02T00:00:00	2024-11-06T01:00:00	5	Humedad	55
6349	7	Sololá	701	Sololá	3	Barraneche	2	Febrero	2023-03-02T00:00:00	2024-11-06T01:00:00	6	Velocidad del viento	4.8
6350	7	Sololá	701	Sololá	3	Barraneche	2	Febrero	2023-03-02T00:00:00	2024-11-06T01:00:00	7	Dirección del viento	4.83
6351	7	Sololá	701	Sololá	3	Barraneche	2	Febrero	2023-03-02T00:00:00	2024-11-06T01:00:00	1	Precipitación	0
6352	7	Sololá	701	Sololá	3	Barraneche	2	Febrero	2023-03-02T00:00:00	2024-11-06T01:00:00	8	Radiación solar	0
6353	7	Sololá	701	Sololá	3	Barraneche	2	Febrero	2023-03-02T00:00:00	2024-11-06T02:00:00	2	Temperatura media	9.9
6354	7	Sololá	701	Sololá	3	Barraneche	2	Febrero	2023-03-02T00:00:00	2024-11-06T02:00:00	4	Temperatura máxima	10.6
6355	7	Sololá	701	Sololá	3	Barraneche	2	Febrero	2023-03-02T00:00:00	2024-11-06T02:00:00	3	Temperatura mínima	8.4
6356	7	Sololá	701	Sololá	3	Barraneche	2	Febrero	2023-03-02T00:00:00	2024-11-06T02:00:00	5	Humedad	54
6357	7	Sololá	701	Sololá	3	Barraneche	2	Febrero	2023-03-02T00:00:00	2024-11-06T02:00:00	6	Velocidad del viento	11.3
6358	7	Sololá	701	Sololá	3	Barraneche	2	Febrero	2023-03-02T00:00:00	2024-11-06T02:00:00	7	Dirección del viento	11.27
6359	7	Sololá	701	Sololá	3	Barraneche	2	Febrero	2023-03-02T00:00:00	2024-11-06T02:00:00	1	Precipitación	0
6360	7	Sololá	701	Sololá	3	Barraneche	2	Febrero	2023-03-02T00:00:00	2024-11-06T02:00:00	8	Radiación solar	0
6361	7	Sololá	701	Sololá	3	Barraneche	2	Febrero	2023-03-02T00:00:00	2024-11-06T03:00:00	2	Temperatura media	10.3
6362	7	Sololá	701	Sololá	3	Barraneche	2	Febrero	2023-03-02T00:00:00	2024-11-06T03:00:00	4	Temperatura máxima	10.3
6363	7	Sololá	701	Sololá	3	Barraneche	2	Febrero	2023-03-02T00:00:00	2024-11-06T03:00:00	3	Temperatura mínima	9.9
6364	7	Sololá	701	Sololá	3	Barraneche	2	Febrero	2023-03-02T00:00:00	2024-11-06T03:00:00	5	Humedad	49
6365	7	Sololá	701	Sololá	3	Barraneche	2	Febrero	2023-03-02T00:00:00	2024-11-06T03:00:00	6	Velocidad del viento	16.1
6366	7	Sololá	701	Sololá	3	Barraneche	2	Febrero	2023-03-02T00:00:00	2024-11-06T03:00:00	7	Dirección del viento	16.09
6367	7	Sololá	701	Sololá	3	Barraneche	2	Febrero	2023-03-02T00:00:00	2024-11-06T03:00:00	1	Precipitación	0
6368	7	Sololá	701	Sololá	3	Barraneche	2	Febrero	2023-03-02T00:00:00	2024-11-06T03:00:00	8	Radiación solar	0
6369	7	Sololá	701	Sololá	3	Barraneche	2	Febrero	2023-03-02T00:00:00	2024-11-06T04:00:00	2	Temperatura media	9.4
6370	7	Sololá	701	Sololá	3	Barraneche	2	Febrero	2023-03-02T00:00:00	2024-11-06T04:00:00	4	Temperatura máxima	10.3
6371	7	Sololá	701	Sololá	3	Barraneche	2	Febrero	2023-03-02T00:00:00	2024-11-06T04:00:00	3	Temperatura mínima	9.4
6372	7	Sololá	701	Sololá	3	Barraneche	2	Febrero	2023-03-02T00:00:00	2024-11-06T04:00:00	5	Humedad	58
6373	7	Sololá	701	Sololá	3	Barraneche	2	Febrero	2023-03-02T00:00:00	2024-11-06T04:00:00	6	Velocidad del viento	17.7
6374	7	Sololá	701	Sololá	3	Barraneche	2	Febrero	2023-03-02T00:00:00	2024-11-06T04:00:00	7	Dirección del viento	17.7
6375	7	Sololá	701	Sololá	3	Barraneche	2	Febrero	2023-03-02T00:00:00	2024-11-06T04:00:00	1	Precipitación	0
6376	7	Sololá	701	Sololá	3	Barraneche	2	Febrero	2023-03-02T00:00:00	2024-11-06T04:00:00	8	Radiación solar	0
6377	7	Sololá	701	Sololá	3	Barraneche	2	Febrero	2023-03-02T00:00:00	2024-11-06T05:00:00	2	Temperatura media	9.6
6378	7	Sololá	701	Sololá	3	Barraneche	2	Febrero	2023-03-02T00:00:00	2024-11-06T05:00:00	4	Temperatura máxima	9.7
6379	7	Sololá	701	Sololá	3	Barraneche	2	Febrero	2023-03-02T00:00:00	2024-11-06T05:00:00	3	Temperatura mínima	9.1
6380	7	Sololá	701	Sololá	3	Barraneche	2	Febrero	2023-03-02T00:00:00	2024-11-06T05:00:00	5	Humedad	56
6381	7	Sololá	701	Sololá	3	Barraneche	2	Febrero	2023-03-02T00:00:00	2024-11-06T05:00:00	6	Velocidad del viento	19.3
6382	7	Sololá	701	Sololá	3	Barraneche	2	Febrero	2023-03-02T00:00:00	2024-11-06T05:00:00	7	Dirección del viento	19.31
6383	7	Sololá	701	Sololá	3	Barraneche	2	Febrero	2023-03-02T00:00:00	2024-11-06T05:00:00	1	Precipitación	0
6384	7	Sololá	701	Sololá	3	Barraneche	2	Febrero	2023-03-02T00:00:00	2024-11-06T05:00:00	8	Radiación solar	0
6385	7	Sololá	701	Sololá	3	Barraneche	2	Febrero	2023-03-02T00:00:00	2024-11-06T06:00:00	2	Temperatura media	10.4
6386	7	Sololá	701	Sololá	3	Barraneche	2	Febrero	2023-03-02T00:00:00	2024-11-06T06:00:00	4	Temperatura máxima	10.4
6387	7	Sololá	701	Sololá	3	Barraneche	2	Febrero	2023-03-02T00:00:00	2024-11-06T06:00:00	3	Temperatura mínima	9.7
6388	7	Sololá	701	Sololá	3	Barraneche	2	Febrero	2023-03-02T00:00:00	2024-11-06T06:00:00	5	Humedad	57
6389	7	Sololá	701	Sololá	3	Barraneche	2	Febrero	2023-03-02T00:00:00	2024-11-06T06:00:00	6	Velocidad del viento	25.7
6390	7	Sololá	701	Sololá	3	Barraneche	2	Febrero	2023-03-02T00:00:00	2024-11-06T06:00:00	7	Dirección del viento	25.75
6391	7	Sololá	701	Sololá	3	Barraneche	2	Febrero	2023-03-02T00:00:00	2024-11-06T06:00:00	1	Precipitación	0
6392	7	Sololá	701	Sololá	3	Barraneche	2	Febrero	2023-03-02T00:00:00	2024-11-06T06:00:00	8	Radiación solar	0
6393	7	Sololá	701	Sololá	3	Barraneche	2	Febrero	2023-03-02T00:00:00	2024-11-06T07:00:00	2	Temperatura media	10.3
6394	7	Sololá	701	Sololá	3	Barraneche	2	Febrero	2023-03-02T00:00:00	2024-11-06T07:00:00	4	Temperatura máxima	10.5
6395	7	Sololá	701	Sololá	3	Barraneche	2	Febrero	2023-03-02T00:00:00	2024-11-06T07:00:00	3	Temperatura mínima	10.2
6396	7	Sololá	701	Sololá	3	Barraneche	2	Febrero	2023-03-02T00:00:00	2024-11-06T07:00:00	5	Humedad	56
6397	7	Sololá	701	Sololá	3	Barraneche	2	Febrero	2023-03-02T00:00:00	2024-11-06T07:00:00	6	Velocidad del viento	22.5
6398	7	Sololá	701	Sololá	3	Barraneche	2	Febrero	2023-03-02T00:00:00	2024-11-06T07:00:00	7	Dirección del viento	22.53
6399	7	Sololá	701	Sololá	3	Barraneche	2	Febrero	2023-03-02T00:00:00	2024-11-06T07:00:00	1	Precipitación	0
6400	7	Sololá	701	Sololá	3	Barraneche	2	Febrero	2023-03-02T00:00:00	2024-11-06T07:00:00	8	Radiación solar	5
6401	7	Sololá	701	Sololá	3	Barraneche	2	Febrero	2023-03-02T00:00:00	2024-11-06T08:00:00	2	Temperatura media	13.1
6402	7	Sololá	701	Sololá	3	Barraneche	2	Febrero	2023-03-02T00:00:00	2024-11-06T08:00:00	4	Temperatura máxima	13.1
6403	7	Sololá	701	Sololá	3	Barraneche	2	Febrero	2023-03-02T00:00:00	2024-11-06T08:00:00	3	Temperatura mínima	10.3
6404	7	Sololá	701	Sololá	3	Barraneche	2	Febrero	2023-03-02T00:00:00	2024-11-06T08:00:00	5	Humedad	50
6405	7	Sololá	701	Sololá	3	Barraneche	2	Febrero	2023-03-02T00:00:00	2024-11-06T08:00:00	6	Velocidad del viento	25.7
6406	7	Sololá	701	Sololá	3	Barraneche	2	Febrero	2023-03-02T00:00:00	2024-11-06T08:00:00	7	Dirección del viento	25.75
6407	7	Sololá	701	Sololá	3	Barraneche	2	Febrero	2023-03-02T00:00:00	2024-11-06T08:00:00	1	Precipitación	0
6408	7	Sololá	701	Sololá	3	Barraneche	2	Febrero	2023-03-02T00:00:00	2024-11-06T08:00:00	8	Radiación solar	159
6409	7	Sololá	701	Sololá	3	Barraneche	2	Febrero	2023-03-02T00:00:00	2024-11-06T09:00:00	2	Temperatura media	13.7
6410	7	Sololá	701	Sololá	3	Barraneche	2	Febrero	2023-03-02T00:00:00	2024-11-06T09:00:00	4	Temperatura máxima	14.1
6411	7	Sololá	701	Sololá	3	Barraneche	2	Febrero	2023-03-02T00:00:00	2024-11-06T09:00:00	3	Temperatura mínima	13.1
6412	7	Sololá	701	Sololá	3	Barraneche	2	Febrero	2023-03-02T00:00:00	2024-11-06T09:00:00	5	Humedad	52
6413	7	Sololá	701	Sololá	3	Barraneche	2	Febrero	2023-03-02T00:00:00	2024-11-06T09:00:00	6	Velocidad del viento	29
6414	7	Sololá	701	Sololá	3	Barraneche	2	Febrero	2023-03-02T00:00:00	2024-11-06T09:00:00	7	Dirección del viento	28.97
6415	7	Sololá	701	Sololá	3	Barraneche	2	Febrero	2023-03-02T00:00:00	2024-11-06T09:00:00	1	Precipitación	0
6416	7	Sololá	701	Sololá	3	Barraneche	2	Febrero	2023-03-02T00:00:00	2024-11-06T09:00:00	8	Radiación solar	427
6417	7	Sololá	701	Sololá	3	Barraneche	2	Febrero	2023-03-02T00:00:00	2024-11-06T10:00:00	2	Temperatura media	14.2
6418	7	Sololá	701	Sololá	3	Barraneche	2	Febrero	2023-03-02T00:00:00	2024-11-06T10:00:00	4	Temperatura máxima	14.4
6419	7	Sololá	701	Sololá	3	Barraneche	2	Febrero	2023-03-02T00:00:00	2024-11-06T10:00:00	3	Temperatura mínima	13.5
6420	7	Sololá	701	Sololá	3	Barraneche	2	Febrero	2023-03-02T00:00:00	2024-11-06T10:00:00	5	Humedad	53
6421	7	Sololá	701	Sololá	3	Barraneche	2	Febrero	2023-03-02T00:00:00	2024-11-06T10:00:00	6	Velocidad del viento	35.4
6422	7	Sololá	701	Sololá	3	Barraneche	2	Febrero	2023-03-02T00:00:00	2024-11-06T10:00:00	7	Dirección del viento	35.41
6423	7	Sololá	701	Sololá	3	Barraneche	2	Febrero	2023-03-02T00:00:00	2024-11-06T10:00:00	1	Precipitación	0
6424	7	Sololá	701	Sololá	3	Barraneche	2	Febrero	2023-03-02T00:00:00	2024-11-06T10:00:00	8	Radiación solar	652
6425	7	Sololá	701	Sololá	3	Barraneche	2	Febrero	2023-03-02T00:00:00	2024-11-06T11:00:00	2	Temperatura media	14.1
6426	7	Sololá	701	Sololá	3	Barraneche	2	Febrero	2023-03-02T00:00:00	2024-11-06T11:00:00	4	Temperatura máxima	14.4
6427	7	Sololá	701	Sololá	3	Barraneche	2	Febrero	2023-03-02T00:00:00	2024-11-06T11:00:00	3	Temperatura mínima	13.7
6428	7	Sololá	701	Sololá	3	Barraneche	2	Febrero	2023-03-02T00:00:00	2024-11-06T11:00:00	5	Humedad	56
6429	7	Sololá	701	Sololá	3	Barraneche	2	Febrero	2023-03-02T00:00:00	2024-11-06T11:00:00	6	Velocidad del viento	37
6430	7	Sololá	701	Sololá	3	Barraneche	2	Febrero	2023-03-02T00:00:00	2024-11-06T11:00:00	7	Dirección del viento	37.01
6431	7	Sololá	701	Sololá	3	Barraneche	2	Febrero	2023-03-02T00:00:00	2024-11-06T11:00:00	1	Precipitación	0
6432	7	Sololá	701	Sololá	3	Barraneche	2	Febrero	2023-03-02T00:00:00	2024-11-06T11:00:00	8	Radiación solar	818
6433	7	Sololá	701	Sololá	3	Barraneche	2	Febrero	2023-03-02T00:00:00	2024-11-06T12:00:00	2	Temperatura media	13.8
6434	7	Sololá	701	Sololá	3	Barraneche	2	Febrero	2023-03-02T00:00:00	2024-11-06T12:00:00	4	Temperatura máxima	14.3
6435	7	Sololá	701	Sololá	3	Barraneche	2	Febrero	2023-03-02T00:00:00	2024-11-06T12:00:00	3	Temperatura mínima	13.4
6436	7	Sololá	701	Sololá	3	Barraneche	2	Febrero	2023-03-02T00:00:00	2024-11-06T12:00:00	5	Humedad	59
6437	7	Sololá	701	Sololá	3	Barraneche	2	Febrero	2023-03-02T00:00:00	2024-11-06T12:00:00	6	Velocidad del viento	35.4
6438	7	Sololá	701	Sololá	3	Barraneche	2	Febrero	2023-03-02T00:00:00	2024-11-06T12:00:00	7	Dirección del viento	35.41
6439	7	Sololá	701	Sololá	3	Barraneche	2	Febrero	2023-03-02T00:00:00	2024-11-06T12:00:00	1	Precipitación	0
6440	7	Sololá	701	Sololá	3	Barraneche	2	Febrero	2023-03-02T00:00:00	2024-11-06T12:00:00	8	Radiación solar	921
6441	7	Sololá	701	Sololá	3	Barraneche	2	Febrero	2023-03-02T00:00:00	2024-11-06T13:00:00	2	Temperatura media	13.2
6442	7	Sololá	701	Sololá	3	Barraneche	2	Febrero	2023-03-02T00:00:00	2024-11-06T13:00:00	4	Temperatura máxima	14
6443	7	Sololá	701	Sololá	3	Barraneche	2	Febrero	2023-03-02T00:00:00	2024-11-06T13:00:00	3	Temperatura mínima	12.4
6444	7	Sololá	701	Sololá	3	Barraneche	2	Febrero	2023-03-02T00:00:00	2024-11-06T13:00:00	5	Humedad	62
6445	7	Sololá	701	Sololá	3	Barraneche	2	Febrero	2023-03-02T00:00:00	2024-11-06T13:00:00	6	Velocidad del viento	33.8
6446	7	Sololá	701	Sololá	3	Barraneche	2	Febrero	2023-03-02T00:00:00	2024-11-06T13:00:00	7	Dirección del viento	33.8
6447	7	Sololá	701	Sololá	3	Barraneche	2	Febrero	2023-03-02T00:00:00	2024-11-06T13:00:00	1	Precipitación	0
6448	7	Sololá	701	Sololá	3	Barraneche	2	Febrero	2023-03-02T00:00:00	2024-11-06T13:00:00	8	Radiación solar	942
6449	7	Sololá	701	Sololá	3	Barraneche	2	Febrero	2023-03-02T00:00:00	2024-11-06T14:00:00	2	Temperatura media	11.4
6450	7	Sololá	701	Sololá	3	Barraneche	2	Febrero	2023-03-02T00:00:00	2024-11-06T14:00:00	4	Temperatura máxima	13.3
6451	7	Sololá	701	Sololá	3	Barraneche	2	Febrero	2023-03-02T00:00:00	2024-11-06T14:00:00	3	Temperatura mínima	11.4
6452	7	Sololá	701	Sololá	3	Barraneche	2	Febrero	2023-03-02T00:00:00	2024-11-06T14:00:00	5	Humedad	68
6453	7	Sololá	701	Sololá	3	Barraneche	2	Febrero	2023-03-02T00:00:00	2024-11-06T14:00:00	6	Velocidad del viento	11.3
6454	7	Sololá	701	Sololá	3	Barraneche	2	Febrero	2023-03-02T00:00:00	2024-11-06T14:00:00	7	Dirección del viento	11.27
6455	7	Sololá	701	Sololá	3	Barraneche	2	Febrero	2023-03-02T00:00:00	2024-11-06T14:00:00	1	Precipitación	0
6456	7	Sololá	701	Sololá	3	Barraneche	2	Febrero	2023-03-02T00:00:00	2024-11-06T14:00:00	8	Radiación solar	143
6457	7	Sololá	701	Sololá	3	Barraneche	2	Febrero	2023-03-02T00:00:00	2024-11-06T15:00:00	2	Temperatura media	10.3
6458	7	Sololá	701	Sololá	3	Barraneche	2	Febrero	2023-03-02T00:00:00	2024-11-06T15:00:00	4	Temperatura máxima	11.4
6459	7	Sololá	701	Sololá	3	Barraneche	2	Febrero	2023-03-02T00:00:00	2024-11-06T15:00:00	3	Temperatura mínima	10.2
6460	7	Sololá	701	Sololá	3	Barraneche	2	Febrero	2023-03-02T00:00:00	2024-11-06T15:00:00	5	Humedad	70
6461	7	Sololá	701	Sololá	3	Barraneche	2	Febrero	2023-03-02T00:00:00	2024-11-06T15:00:00	6	Velocidad del viento	11.3
6462	7	Sololá	701	Sololá	3	Barraneche	2	Febrero	2023-03-02T00:00:00	2024-11-06T15:00:00	7	Dirección del viento	11.27
6463	7	Sololá	701	Sololá	3	Barraneche	2	Febrero	2023-03-02T00:00:00	2024-11-06T15:00:00	1	Precipitación	0
6464	7	Sololá	701	Sololá	3	Barraneche	2	Febrero	2023-03-02T00:00:00	2024-11-06T15:00:00	8	Radiación solar	48
6465	7	Sololá	701	Sololá	3	Barraneche	2	Febrero	2023-03-02T00:00:00	2024-11-06T16:00:00	2	Temperatura media	11.6
6466	7	Sololá	701	Sololá	3	Barraneche	2	Febrero	2023-03-02T00:00:00	2024-11-06T16:00:00	4	Temperatura máxima	11.7
6467	7	Sololá	701	Sololá	3	Barraneche	2	Febrero	2023-03-02T00:00:00	2024-11-06T16:00:00	3	Temperatura mínima	10.3
6468	7	Sololá	701	Sololá	3	Barraneche	2	Febrero	2023-03-02T00:00:00	2024-11-06T16:00:00	5	Humedad	64
6469	7	Sololá	701	Sololá	3	Barraneche	2	Febrero	2023-03-02T00:00:00	2024-11-06T16:00:00	6	Velocidad del viento	22.5
6470	7	Sololá	701	Sololá	3	Barraneche	2	Febrero	2023-03-02T00:00:00	2024-11-06T16:00:00	7	Dirección del viento	22.53
6471	7	Sololá	701	Sololá	3	Barraneche	2	Febrero	2023-03-02T00:00:00	2024-11-06T16:00:00	1	Precipitación	0
6472	7	Sololá	701	Sololá	3	Barraneche	2	Febrero	2023-03-02T00:00:00	2024-11-06T16:00:00	8	Radiación solar	206
6473	7	Sololá	701	Sololá	3	Barraneche	2	Febrero	2023-03-02T00:00:00	2024-11-06T17:00:00	2	Temperatura media	11.2
6474	7	Sololá	701	Sololá	3	Barraneche	2	Febrero	2023-03-02T00:00:00	2024-11-06T17:00:00	4	Temperatura máxima	11.9
6475	7	Sololá	701	Sololá	3	Barraneche	2	Febrero	2023-03-02T00:00:00	2024-11-06T17:00:00	3	Temperatura mínima	11.2
6476	7	Sololá	701	Sololá	3	Barraneche	2	Febrero	2023-03-02T00:00:00	2024-11-06T17:00:00	5	Humedad	62
6477	7	Sololá	701	Sololá	3	Barraneche	2	Febrero	2023-03-02T00:00:00	2024-11-06T17:00:00	6	Velocidad del viento	32.2
6478	7	Sololá	701	Sololá	3	Barraneche	2	Febrero	2023-03-02T00:00:00	2024-11-06T17:00:00	7	Dirección del viento	32.19
6479	7	Sololá	701	Sololá	3	Barraneche	2	Febrero	2023-03-02T00:00:00	2024-11-06T17:00:00	1	Precipitación	0
6480	7	Sololá	701	Sololá	3	Barraneche	2	Febrero	2023-03-02T00:00:00	2024-11-06T17:00:00	8	Radiación solar	148
6481	7	Sololá	701	Sololá	3	Barraneche	2	Febrero	2023-03-02T00:00:00	2024-11-06T18:00:00	2	Temperatura media	10.5
6482	7	Sololá	701	Sololá	3	Barraneche	2	Febrero	2023-03-02T00:00:00	2024-11-06T18:00:00	4	Temperatura máxima	11.2
6483	7	Sololá	701	Sololá	3	Barraneche	2	Febrero	2023-03-02T00:00:00	2024-11-06T18:00:00	3	Temperatura mínima	10.4
6484	7	Sololá	701	Sololá	3	Barraneche	2	Febrero	2023-03-02T00:00:00	2024-11-06T18:00:00	5	Humedad	66
6485	7	Sololá	701	Sololá	3	Barraneche	2	Febrero	2023-03-02T00:00:00	2024-11-06T18:00:00	6	Velocidad del viento	35.4
6486	7	Sololá	701	Sololá	3	Barraneche	2	Febrero	2023-03-02T00:00:00	2024-11-06T18:00:00	7	Dirección del viento	35.41
6487	7	Sololá	701	Sololá	3	Barraneche	2	Febrero	2023-03-02T00:00:00	2024-11-06T18:00:00	1	Precipitación	0
6488	7	Sololá	701	Sololá	3	Barraneche	2	Febrero	2023-03-02T00:00:00	2024-11-06T18:00:00	8	Radiación solar	21
6489	7	Sololá	701	Sololá	3	Barraneche	2	Febrero	2023-03-02T00:00:00	2024-11-06T19:00:00	2	Temperatura media	10.7
6490	7	Sololá	701	Sololá	3	Barraneche	2	Febrero	2023-03-02T00:00:00	2024-11-06T19:00:00	4	Temperatura máxima	10.8
6491	7	Sololá	701	Sololá	3	Barraneche	2	Febrero	2023-03-02T00:00:00	2024-11-06T19:00:00	3	Temperatura mínima	10.2
6492	7	Sololá	701	Sololá	3	Barraneche	2	Febrero	2023-03-02T00:00:00	2024-11-06T19:00:00	5	Humedad	65
6493	7	Sololá	701	Sololá	3	Barraneche	2	Febrero	2023-03-02T00:00:00	2024-11-06T19:00:00	6	Velocidad del viento	29
6494	7	Sololá	701	Sololá	3	Barraneche	2	Febrero	2023-03-02T00:00:00	2024-11-06T19:00:00	7	Dirección del viento	28.97
6495	7	Sololá	701	Sololá	3	Barraneche	2	Febrero	2023-03-02T00:00:00	2024-11-06T19:00:00	1	Precipitación	0
6496	7	Sololá	701	Sololá	3	Barraneche	2	Febrero	2023-03-02T00:00:00	2024-11-06T19:00:00	8	Radiación solar	0
6497	7	Sololá	701	Sololá	3	Barraneche	2	Febrero	2023-03-02T00:00:00	2024-11-06T20:00:00	2	Temperatura media	10.7
6498	7	Sololá	701	Sololá	3	Barraneche	2	Febrero	2023-03-02T00:00:00	2024-11-06T20:00:00	4	Temperatura máxima	10.7
6499	7	Sololá	701	Sololá	3	Barraneche	2	Febrero	2023-03-02T00:00:00	2024-11-06T20:00:00	3	Temperatura mínima	10.3
6500	7	Sololá	701	Sololá	3	Barraneche	2	Febrero	2023-03-02T00:00:00	2024-11-06T20:00:00	5	Humedad	64
6501	7	Sololá	701	Sololá	3	Barraneche	2	Febrero	2023-03-02T00:00:00	2024-11-06T20:00:00	6	Velocidad del viento	32.2
6502	7	Sololá	701	Sololá	3	Barraneche	2	Febrero	2023-03-02T00:00:00	2024-11-06T20:00:00	7	Dirección del viento	32.19
6503	7	Sololá	701	Sololá	3	Barraneche	2	Febrero	2023-03-02T00:00:00	2024-11-06T20:00:00	1	Precipitación	0
6504	7	Sololá	701	Sololá	3	Barraneche	2	Febrero	2023-03-02T00:00:00	2024-11-06T20:00:00	8	Radiación solar	0
6505	7	Sololá	701	Sololá	3	Barraneche	2	Febrero	2023-03-02T00:00:00	2024-11-06T21:00:00	2	Temperatura media	10.8
6506	7	Sololá	701	Sololá	3	Barraneche	2	Febrero	2023-03-02T00:00:00	2024-11-06T21:00:00	4	Temperatura máxima	11.3
6507	7	Sololá	701	Sololá	3	Barraneche	2	Febrero	2023-03-02T00:00:00	2024-11-06T21:00:00	3	Temperatura mínima	10.5
6508	7	Sololá	701	Sololá	3	Barraneche	2	Febrero	2023-03-02T00:00:00	2024-11-06T21:00:00	5	Humedad	62
6509	7	Sololá	701	Sololá	3	Barraneche	2	Febrero	2023-03-02T00:00:00	2024-11-06T21:00:00	6	Velocidad del viento	30.6
6510	7	Sololá	701	Sololá	3	Barraneche	2	Febrero	2023-03-02T00:00:00	2024-11-06T21:00:00	7	Dirección del viento	30.58
6511	7	Sololá	701	Sololá	3	Barraneche	2	Febrero	2023-03-02T00:00:00	2024-11-06T21:00:00	1	Precipitación	0
6512	7	Sololá	701	Sololá	3	Barraneche	2	Febrero	2023-03-02T00:00:00	2024-11-06T21:00:00	8	Radiación solar	0
6513	7	Sololá	701	Sololá	3	Barraneche	2	Febrero	2023-03-02T00:00:00	2024-11-06T22:00:00	2	Temperatura media	10.5
6514	7	Sololá	701	Sololá	3	Barraneche	2	Febrero	2023-03-02T00:00:00	2024-11-06T22:00:00	4	Temperatura máxima	10.9
6515	7	Sololá	701	Sololá	3	Barraneche	2	Febrero	2023-03-02T00:00:00	2024-11-06T22:00:00	3	Temperatura mínima	10.5
6516	7	Sololá	701	Sololá	3	Barraneche	2	Febrero	2023-03-02T00:00:00	2024-11-06T22:00:00	5	Humedad	66
6517	7	Sololá	701	Sololá	3	Barraneche	2	Febrero	2023-03-02T00:00:00	2024-11-06T22:00:00	6	Velocidad del viento	32.2
6518	7	Sololá	701	Sololá	3	Barraneche	2	Febrero	2023-03-02T00:00:00	2024-11-06T22:00:00	7	Dirección del viento	32.19
6519	7	Sololá	701	Sololá	3	Barraneche	2	Febrero	2023-03-02T00:00:00	2024-11-06T22:00:00	1	Precipitación	0
6520	7	Sololá	701	Sololá	3	Barraneche	2	Febrero	2023-03-02T00:00:00	2024-11-06T22:00:00	8	Radiación solar	0
6521	7	Sololá	701	Sololá	3	Barraneche	2	Febrero	2023-03-02T00:00:00	2024-11-06T23:00:00	2	Temperatura media	9.8
6522	7	Sololá	701	Sololá	3	Barraneche	2	Febrero	2023-03-02T00:00:00	2024-11-06T23:00:00	4	Temperatura máxima	10.6
6523	7	Sololá	701	Sololá	3	Barraneche	2	Febrero	2023-03-02T00:00:00	2024-11-06T23:00:00	3	Temperatura mínima	9.8
6524	7	Sololá	701	Sololá	3	Barraneche	2	Febrero	2023-03-02T00:00:00	2024-11-06T23:00:00	5	Humedad	72
6525	7	Sololá	701	Sololá	3	Barraneche	2	Febrero	2023-03-02T00:00:00	2024-11-06T23:00:00	6	Velocidad del viento	30.6
6526	7	Sololá	701	Sololá	3	Barraneche	2	Febrero	2023-03-02T00:00:00	2024-11-06T23:00:00	7	Dirección del viento	30.58
6527	7	Sololá	701	Sololá	3	Barraneche	2	Febrero	2023-03-02T00:00:00	2024-11-06T23:00:00	1	Precipitación	0
6528	7	Sololá	701	Sololá	3	Barraneche	2	Febrero	2023-03-02T00:00:00	2024-11-06T23:00:00	8	Radiación solar	0
6529	7	Sololá	701	Sololá	3	Barraneche	2	Febrero	2023-04-02T00:00:00	2024-11-06T00:00:00	2	Temperatura media	10.7
6530	7	Sololá	701	Sololá	3	Barraneche	2	Febrero	2023-04-02T00:00:00	2024-11-06T00:00:00	4	Temperatura máxima	10.8
6531	7	Sololá	701	Sololá	3	Barraneche	2	Febrero	2023-04-02T00:00:00	2024-11-06T00:00:00	3	Temperatura mínima	9.8
6532	7	Sololá	701	Sololá	3	Barraneche	2	Febrero	2023-04-02T00:00:00	2024-11-06T00:00:00	5	Humedad	69
6533	7	Sololá	701	Sololá	3	Barraneche	2	Febrero	2023-04-02T00:00:00	2024-11-06T00:00:00	6	Velocidad del viento	25.7
6534	7	Sololá	701	Sololá	3	Barraneche	2	Febrero	2023-04-02T00:00:00	2024-11-06T00:00:00	7	Dirección del viento	25.75
6535	7	Sololá	701	Sololá	3	Barraneche	2	Febrero	2023-04-02T00:00:00	2024-11-06T00:00:00	1	Precipitación	0.2
6536	7	Sololá	701	Sololá	3	Barraneche	2	Febrero	2023-04-02T00:00:00	2024-11-06T00:00:00	8	Radiación solar	0
6537	7	Sololá	701	Sololá	3	Barraneche	2	Febrero	2023-04-02T00:00:00	2024-11-06T01:00:00	2	Temperatura media	10.7
6538	7	Sololá	701	Sololá	3	Barraneche	2	Febrero	2023-04-02T00:00:00	2024-11-06T01:00:00	4	Temperatura máxima	10.8
6539	7	Sololá	701	Sololá	3	Barraneche	2	Febrero	2023-04-02T00:00:00	2024-11-06T01:00:00	3	Temperatura mínima	10.6
6540	7	Sololá	701	Sololá	3	Barraneche	2	Febrero	2023-04-02T00:00:00	2024-11-06T01:00:00	5	Humedad	70
6541	7	Sololá	701	Sololá	3	Barraneche	2	Febrero	2023-04-02T00:00:00	2024-11-06T01:00:00	6	Velocidad del viento	27.4
6542	7	Sololá	701	Sololá	3	Barraneche	2	Febrero	2023-04-02T00:00:00	2024-11-06T01:00:00	7	Dirección del viento	27.36
6543	7	Sololá	701	Sololá	3	Barraneche	2	Febrero	2023-04-02T00:00:00	2024-11-06T01:00:00	1	Precipitación	0.4
6544	7	Sololá	701	Sololá	3	Barraneche	2	Febrero	2023-04-02T00:00:00	2024-11-06T01:00:00	8	Radiación solar	0
6545	7	Sololá	701	Sololá	3	Barraneche	2	Febrero	2023-04-02T00:00:00	2024-11-06T02:00:00	2	Temperatura media	10.9
6546	7	Sololá	701	Sololá	3	Barraneche	2	Febrero	2023-04-02T00:00:00	2024-11-06T02:00:00	4	Temperatura máxima	11.2
6547	7	Sololá	701	Sololá	3	Barraneche	2	Febrero	2023-04-02T00:00:00	2024-11-06T02:00:00	3	Temperatura mínima	10.7
6548	7	Sololá	701	Sololá	3	Barraneche	2	Febrero	2023-04-02T00:00:00	2024-11-06T02:00:00	5	Humedad	68
6549	7	Sololá	701	Sololá	3	Barraneche	2	Febrero	2023-04-02T00:00:00	2024-11-06T02:00:00	6	Velocidad del viento	29
6550	7	Sololá	701	Sololá	3	Barraneche	2	Febrero	2023-04-02T00:00:00	2024-11-06T02:00:00	7	Dirección del viento	28.97
6551	7	Sololá	701	Sololá	3	Barraneche	2	Febrero	2023-04-02T00:00:00	2024-11-06T02:00:00	1	Precipitación	0.2
6552	7	Sololá	701	Sololá	3	Barraneche	2	Febrero	2023-04-02T00:00:00	2024-11-06T02:00:00	8	Radiación solar	0
6553	7	Sololá	701	Sololá	3	Barraneche	2	Febrero	2023-04-02T00:00:00	2024-11-06T03:00:00	2	Temperatura media	10.4
6554	7	Sololá	701	Sololá	3	Barraneche	2	Febrero	2023-04-02T00:00:00	2024-11-06T03:00:00	4	Temperatura máxima	11
6555	7	Sololá	701	Sololá	3	Barraneche	2	Febrero	2023-04-02T00:00:00	2024-11-06T03:00:00	3	Temperatura mínima	10.3
6556	7	Sololá	701	Sololá	3	Barraneche	2	Febrero	2023-04-02T00:00:00	2024-11-06T03:00:00	5	Humedad	70
6557	7	Sololá	701	Sololá	3	Barraneche	2	Febrero	2023-04-02T00:00:00	2024-11-06T03:00:00	6	Velocidad del viento	20.9
6558	7	Sololá	701	Sololá	3	Barraneche	2	Febrero	2023-04-02T00:00:00	2024-11-06T03:00:00	7	Dirección del viento	20.92
6559	7	Sololá	701	Sololá	3	Barraneche	2	Febrero	2023-04-02T00:00:00	2024-11-06T03:00:00	1	Precipitación	0
6560	7	Sololá	701	Sololá	3	Barraneche	2	Febrero	2023-04-02T00:00:00	2024-11-06T03:00:00	8	Radiación solar	0
6561	7	Sololá	701	Sololá	3	Barraneche	2	Febrero	2023-04-02T00:00:00	2024-11-06T04:00:00	2	Temperatura media	10.4
6562	7	Sololá	701	Sololá	3	Barraneche	2	Febrero	2023-04-02T00:00:00	2024-11-06T04:00:00	4	Temperatura máxima	10.7
6563	7	Sololá	701	Sololá	3	Barraneche	2	Febrero	2023-04-02T00:00:00	2024-11-06T04:00:00	3	Temperatura mínima	10.4
6564	7	Sololá	701	Sololá	3	Barraneche	2	Febrero	2023-04-02T00:00:00	2024-11-06T04:00:00	5	Humedad	69
6565	7	Sololá	701	Sololá	3	Barraneche	2	Febrero	2023-04-02T00:00:00	2024-11-06T04:00:00	6	Velocidad del viento	20.9
6566	7	Sololá	701	Sololá	3	Barraneche	2	Febrero	2023-04-02T00:00:00	2024-11-06T04:00:00	7	Dirección del viento	20.92
6567	7	Sololá	701	Sololá	3	Barraneche	2	Febrero	2023-04-02T00:00:00	2024-11-06T04:00:00	1	Precipitación	0
6568	7	Sololá	701	Sololá	3	Barraneche	2	Febrero	2023-04-02T00:00:00	2024-11-06T04:00:00	8	Radiación solar	0
6569	7	Sololá	701	Sololá	3	Barraneche	2	Febrero	2023-04-02T00:00:00	2024-11-06T05:00:00	2	Temperatura media	10.2
6570	7	Sololá	701	Sololá	3	Barraneche	2	Febrero	2023-04-02T00:00:00	2024-11-06T05:00:00	4	Temperatura máxima	10.6
6571	7	Sololá	701	Sololá	3	Barraneche	2	Febrero	2023-04-02T00:00:00	2024-11-06T05:00:00	3	Temperatura mínima	10.2
6572	7	Sololá	701	Sololá	3	Barraneche	2	Febrero	2023-04-02T00:00:00	2024-11-06T05:00:00	5	Humedad	70
6573	7	Sololá	701	Sololá	3	Barraneche	2	Febrero	2023-04-02T00:00:00	2024-11-06T05:00:00	6	Velocidad del viento	29
6574	7	Sololá	701	Sololá	3	Barraneche	2	Febrero	2023-04-02T00:00:00	2024-11-06T05:00:00	7	Dirección del viento	28.97
6575	7	Sololá	701	Sololá	3	Barraneche	2	Febrero	2023-04-02T00:00:00	2024-11-06T05:00:00	1	Precipitación	0.2
6576	7	Sololá	701	Sololá	3	Barraneche	2	Febrero	2023-04-02T00:00:00	2024-11-06T05:00:00	8	Radiación solar	0
6577	7	Sololá	701	Sololá	3	Barraneche	2	Febrero	2023-04-02T00:00:00	2024-11-06T06:00:00	2	Temperatura media	9.9
6578	7	Sololá	701	Sololá	3	Barraneche	2	Febrero	2023-04-02T00:00:00	2024-11-06T06:00:00	4	Temperatura máxima	10.3
6579	7	Sololá	701	Sololá	3	Barraneche	2	Febrero	2023-04-02T00:00:00	2024-11-06T06:00:00	3	Temperatura mínima	9.9
6580	7	Sololá	701	Sololá	3	Barraneche	2	Febrero	2023-04-02T00:00:00	2024-11-06T06:00:00	5	Humedad	71
6581	7	Sololá	701	Sololá	3	Barraneche	2	Febrero	2023-04-02T00:00:00	2024-11-06T06:00:00	6	Velocidad del viento	30.6
6582	7	Sololá	701	Sololá	3	Barraneche	2	Febrero	2023-04-02T00:00:00	2024-11-06T06:00:00	7	Dirección del viento	30.58
6583	7	Sololá	701	Sololá	3	Barraneche	2	Febrero	2023-04-02T00:00:00	2024-11-06T06:00:00	1	Precipitación	0.2
6584	7	Sololá	701	Sololá	3	Barraneche	2	Febrero	2023-04-02T00:00:00	2024-11-06T06:00:00	8	Radiación solar	0
6585	7	Sololá	701	Sololá	3	Barraneche	2	Febrero	2023-04-02T00:00:00	2024-11-06T07:00:00	2	Temperatura media	10.1
6586	7	Sololá	701	Sololá	3	Barraneche	2	Febrero	2023-04-02T00:00:00	2024-11-06T07:00:00	4	Temperatura máxima	10.1
6587	7	Sololá	701	Sololá	3	Barraneche	2	Febrero	2023-04-02T00:00:00	2024-11-06T07:00:00	3	Temperatura mínima	9.9
6588	7	Sololá	701	Sololá	3	Barraneche	2	Febrero	2023-04-02T00:00:00	2024-11-06T07:00:00	5	Humedad	70
6589	7	Sololá	701	Sololá	3	Barraneche	2	Febrero	2023-04-02T00:00:00	2024-11-06T07:00:00	6	Velocidad del viento	27.4
6590	7	Sololá	701	Sololá	3	Barraneche	2	Febrero	2023-04-02T00:00:00	2024-11-06T07:00:00	7	Dirección del viento	27.36
6591	7	Sololá	701	Sololá	3	Barraneche	2	Febrero	2023-04-02T00:00:00	2024-11-06T07:00:00	1	Precipitación	0
6592	7	Sololá	701	Sololá	3	Barraneche	2	Febrero	2023-04-02T00:00:00	2024-11-06T07:00:00	8	Radiación solar	8
6593	7	Sololá	701	Sololá	3	Barraneche	2	Febrero	2023-04-02T00:00:00	2024-11-06T08:00:00	2	Temperatura media	10.6
6594	7	Sololá	701	Sololá	3	Barraneche	2	Febrero	2023-04-02T00:00:00	2024-11-06T08:00:00	4	Temperatura máxima	10.6
6595	7	Sololá	701	Sololá	3	Barraneche	2	Febrero	2023-04-02T00:00:00	2024-11-06T08:00:00	3	Temperatura mínima	10
6596	7	Sololá	701	Sololá	3	Barraneche	2	Febrero	2023-04-02T00:00:00	2024-11-06T08:00:00	5	Humedad	64
6597	7	Sololá	701	Sololá	3	Barraneche	2	Febrero	2023-04-02T00:00:00	2024-11-06T08:00:00	6	Velocidad del viento	30.6
6598	7	Sololá	701	Sololá	3	Barraneche	2	Febrero	2023-04-02T00:00:00	2024-11-06T08:00:00	7	Dirección del viento	30.58
6599	7	Sololá	701	Sololá	3	Barraneche	2	Febrero	2023-04-02T00:00:00	2024-11-06T08:00:00	1	Precipitación	0
6600	7	Sololá	701	Sololá	3	Barraneche	2	Febrero	2023-04-02T00:00:00	2024-11-06T08:00:00	8	Radiación solar	161
6601	7	Sololá	701	Sololá	3	Barraneche	2	Febrero	2023-04-02T00:00:00	2024-11-06T09:00:00	2	Temperatura media	11.2
6602	7	Sololá	701	Sololá	3	Barraneche	2	Febrero	2023-04-02T00:00:00	2024-11-06T09:00:00	4	Temperatura máxima	11.2
6603	7	Sololá	701	Sololá	3	Barraneche	2	Febrero	2023-04-02T00:00:00	2024-11-06T09:00:00	3	Temperatura mínima	10.6
6604	7	Sololá	701	Sololá	3	Barraneche	2	Febrero	2023-04-02T00:00:00	2024-11-06T09:00:00	5	Humedad	61
6605	7	Sololá	701	Sololá	3	Barraneche	2	Febrero	2023-04-02T00:00:00	2024-11-06T09:00:00	6	Velocidad del viento	37
6606	7	Sololá	701	Sololá	3	Barraneche	2	Febrero	2023-04-02T00:00:00	2024-11-06T09:00:00	7	Dirección del viento	37.01
6607	7	Sololá	701	Sololá	3	Barraneche	2	Febrero	2023-04-02T00:00:00	2024-11-06T09:00:00	1	Precipitación	0
6608	7	Sololá	701	Sololá	3	Barraneche	2	Febrero	2023-04-02T00:00:00	2024-11-06T09:00:00	8	Radiación solar	434
6609	7	Sololá	701	Sololá	3	Barraneche	2	Febrero	2023-04-02T00:00:00	2024-11-06T10:00:00	2	Temperatura media	12.4
6610	7	Sololá	701	Sololá	3	Barraneche	2	Febrero	2023-04-02T00:00:00	2024-11-06T10:00:00	4	Temperatura máxima	12.4
6611	7	Sololá	701	Sololá	3	Barraneche	2	Febrero	2023-04-02T00:00:00	2024-11-06T10:00:00	3	Temperatura mínima	11.1
6612	7	Sololá	701	Sololá	3	Barraneche	2	Febrero	2023-04-02T00:00:00	2024-11-06T10:00:00	5	Humedad	58
6613	7	Sololá	701	Sololá	3	Barraneche	2	Febrero	2023-04-02T00:00:00	2024-11-06T10:00:00	6	Velocidad del viento	38.6
6614	7	Sololá	701	Sololá	3	Barraneche	2	Febrero	2023-04-02T00:00:00	2024-11-06T10:00:00	7	Dirección del viento	38.62
6615	7	Sololá	701	Sololá	3	Barraneche	2	Febrero	2023-04-02T00:00:00	2024-11-06T10:00:00	1	Precipitación	0
6616	7	Sololá	701	Sololá	3	Barraneche	2	Febrero	2023-04-02T00:00:00	2024-11-06T10:00:00	8	Radiación solar	654
6617	7	Sololá	701	Sololá	3	Barraneche	2	Febrero	2023-04-02T00:00:00	2024-11-06T11:00:00	2	Temperatura media	14.2
6618	7	Sololá	701	Sololá	3	Barraneche	2	Febrero	2023-04-02T00:00:00	2024-11-06T11:00:00	4	Temperatura máxima	14.2
6619	7	Sololá	701	Sololá	3	Barraneche	2	Febrero	2023-04-02T00:00:00	2024-11-06T11:00:00	3	Temperatura mínima	12.4
6620	7	Sololá	701	Sololá	3	Barraneche	2	Febrero	2023-04-02T00:00:00	2024-11-06T11:00:00	5	Humedad	58
6621	7	Sololá	701	Sololá	3	Barraneche	2	Febrero	2023-04-02T00:00:00	2024-11-06T11:00:00	6	Velocidad del viento	32.2
6622	7	Sololá	701	Sololá	3	Barraneche	2	Febrero	2023-04-02T00:00:00	2024-11-06T11:00:00	7	Dirección del viento	32.19
6623	7	Sololá	701	Sololá	3	Barraneche	2	Febrero	2023-04-02T00:00:00	2024-11-06T11:00:00	1	Precipitación	0
6624	7	Sololá	701	Sololá	3	Barraneche	2	Febrero	2023-04-02T00:00:00	2024-11-06T11:00:00	8	Radiación solar	829
6625	7	Sololá	701	Sololá	3	Barraneche	2	Febrero	2023-04-02T00:00:00	2024-11-06T12:00:00	2	Temperatura media	14.2
6626	7	Sololá	701	Sololá	3	Barraneche	2	Febrero	2023-04-02T00:00:00	2024-11-06T12:00:00	4	Temperatura máxima	14.9
6627	7	Sololá	701	Sololá	3	Barraneche	2	Febrero	2023-04-02T00:00:00	2024-11-06T12:00:00	3	Temperatura mínima	13.5
6628	7	Sololá	701	Sololá	3	Barraneche	2	Febrero	2023-04-02T00:00:00	2024-11-06T12:00:00	5	Humedad	57
6629	7	Sololá	701	Sololá	3	Barraneche	2	Febrero	2023-04-02T00:00:00	2024-11-06T12:00:00	6	Velocidad del viento	32.2
6630	7	Sololá	701	Sololá	3	Barraneche	2	Febrero	2023-04-02T00:00:00	2024-11-06T12:00:00	7	Dirección del viento	32.19
6631	7	Sololá	701	Sololá	3	Barraneche	2	Febrero	2023-04-02T00:00:00	2024-11-06T12:00:00	1	Precipitación	0
6632	7	Sololá	701	Sololá	3	Barraneche	2	Febrero	2023-04-02T00:00:00	2024-11-06T12:00:00	8	Radiación solar	947
6633	7	Sololá	701	Sololá	3	Barraneche	2	Febrero	2023-04-02T00:00:00	2024-11-06T13:00:00	2	Temperatura media	15.7
6634	7	Sololá	701	Sololá	3	Barraneche	2	Febrero	2023-04-02T00:00:00	2024-11-06T13:00:00	4	Temperatura máxima	15.7
6635	7	Sololá	701	Sololá	3	Barraneche	2	Febrero	2023-04-02T00:00:00	2024-11-06T13:00:00	3	Temperatura mínima	13.7
6636	7	Sololá	701	Sololá	3	Barraneche	2	Febrero	2023-04-02T00:00:00	2024-11-06T13:00:00	5	Humedad	54
6637	7	Sololá	701	Sololá	3	Barraneche	2	Febrero	2023-04-02T00:00:00	2024-11-06T13:00:00	6	Velocidad del viento	30.6
6638	7	Sololá	701	Sololá	3	Barraneche	2	Febrero	2023-04-02T00:00:00	2024-11-06T13:00:00	7	Dirección del viento	30.58
6639	7	Sololá	701	Sololá	3	Barraneche	2	Febrero	2023-04-02T00:00:00	2024-11-06T13:00:00	1	Precipitación	0
6640	7	Sololá	701	Sololá	3	Barraneche	2	Febrero	2023-04-02T00:00:00	2024-11-06T13:00:00	8	Radiación solar	956
6641	7	Sololá	701	Sololá	3	Barraneche	2	Febrero	2023-04-02T00:00:00	2024-11-06T14:00:00	2	Temperatura media	15.9
6642	7	Sololá	701	Sololá	3	Barraneche	2	Febrero	2023-04-02T00:00:00	2024-11-06T14:00:00	4	Temperatura máxima	16.5
6643	7	Sololá	701	Sololá	3	Barraneche	2	Febrero	2023-04-02T00:00:00	2024-11-06T14:00:00	3	Temperatura mínima	15.2
6644	7	Sololá	701	Sololá	3	Barraneche	2	Febrero	2023-04-02T00:00:00	2024-11-06T14:00:00	5	Humedad	54
6645	7	Sololá	701	Sololá	3	Barraneche	2	Febrero	2023-04-02T00:00:00	2024-11-06T14:00:00	6	Velocidad del viento	25.7
6646	7	Sololá	701	Sololá	3	Barraneche	2	Febrero	2023-04-02T00:00:00	2024-11-06T14:00:00	7	Dirección del viento	25.75
6647	7	Sololá	701	Sololá	3	Barraneche	2	Febrero	2023-04-02T00:00:00	2024-11-06T14:00:00	1	Precipitación	0
6648	7	Sololá	701	Sololá	3	Barraneche	2	Febrero	2023-04-02T00:00:00	2024-11-06T14:00:00	8	Radiación solar	896
6649	7	Sololá	701	Sololá	3	Barraneche	2	Febrero	2023-04-02T00:00:00	2024-11-06T15:00:00	2	Temperatura media	16.4
6650	7	Sololá	701	Sololá	3	Barraneche	2	Febrero	2023-04-02T00:00:00	2024-11-06T15:00:00	4	Temperatura máxima	16.6
6651	7	Sololá	701	Sololá	3	Barraneche	2	Febrero	2023-04-02T00:00:00	2024-11-06T15:00:00	3	Temperatura mínima	15.5
6652	7	Sololá	701	Sololá	3	Barraneche	2	Febrero	2023-04-02T00:00:00	2024-11-06T15:00:00	5	Humedad	52
6653	7	Sololá	701	Sololá	3	Barraneche	2	Febrero	2023-04-02T00:00:00	2024-11-06T15:00:00	6	Velocidad del viento	24.1
6654	7	Sololá	701	Sololá	3	Barraneche	2	Febrero	2023-04-02T00:00:00	2024-11-06T15:00:00	7	Dirección del viento	24.14
6655	7	Sololá	701	Sololá	3	Barraneche	2	Febrero	2023-04-02T00:00:00	2024-11-06T15:00:00	1	Precipitación	0
6656	7	Sololá	701	Sololá	3	Barraneche	2	Febrero	2023-04-02T00:00:00	2024-11-06T15:00:00	8	Radiación solar	757
6657	7	Sololá	701	Sololá	3	Barraneche	2	Febrero	2023-04-02T00:00:00	2024-11-06T16:00:00	2	Temperatura media	15.4
6658	7	Sololá	701	Sololá	3	Barraneche	2	Febrero	2023-04-02T00:00:00	2024-11-06T16:00:00	4	Temperatura máxima	16.4
6659	7	Sololá	701	Sololá	3	Barraneche	2	Febrero	2023-04-02T00:00:00	2024-11-06T16:00:00	3	Temperatura mínima	15.3
6660	7	Sololá	701	Sololá	3	Barraneche	2	Febrero	2023-04-02T00:00:00	2024-11-06T16:00:00	5	Humedad	55
6661	7	Sololá	701	Sololá	3	Barraneche	2	Febrero	2023-04-02T00:00:00	2024-11-06T16:00:00	6	Velocidad del viento	20.9
6662	7	Sololá	701	Sololá	3	Barraneche	2	Febrero	2023-04-02T00:00:00	2024-11-06T16:00:00	7	Dirección del viento	20.92
6663	7	Sololá	701	Sololá	3	Barraneche	2	Febrero	2023-04-02T00:00:00	2024-11-06T16:00:00	1	Precipitación	0
6664	7	Sololá	701	Sololá	3	Barraneche	2	Febrero	2023-04-02T00:00:00	2024-11-06T16:00:00	8	Radiación solar	577
6665	7	Sololá	701	Sololá	3	Barraneche	2	Febrero	2023-04-02T00:00:00	2024-11-06T17:00:00	2	Temperatura media	14.7
6666	7	Sololá	701	Sololá	3	Barraneche	2	Febrero	2023-04-02T00:00:00	2024-11-06T17:00:00	4	Temperatura máxima	15.5
6667	7	Sololá	701	Sololá	3	Barraneche	2	Febrero	2023-04-02T00:00:00	2024-11-06T17:00:00	3	Temperatura mínima	14.6
6668	7	Sololá	701	Sololá	3	Barraneche	2	Febrero	2023-04-02T00:00:00	2024-11-06T17:00:00	5	Humedad	56
6669	7	Sololá	701	Sololá	3	Barraneche	2	Febrero	2023-04-02T00:00:00	2024-11-06T17:00:00	6	Velocidad del viento	22.5
6670	7	Sololá	701	Sololá	3	Barraneche	2	Febrero	2023-04-02T00:00:00	2024-11-06T17:00:00	7	Dirección del viento	22.53
6671	7	Sololá	701	Sololá	3	Barraneche	2	Febrero	2023-04-02T00:00:00	2024-11-06T17:00:00	1	Precipitación	0
6672	7	Sololá	701	Sololá	3	Barraneche	2	Febrero	2023-04-02T00:00:00	2024-11-06T17:00:00	8	Radiación solar	336
6673	7	Sololá	701	Sololá	3	Barraneche	2	Febrero	2023-04-02T00:00:00	2024-11-06T18:00:00	2	Temperatura media	12.6
6674	7	Sololá	701	Sololá	3	Barraneche	2	Febrero	2023-04-02T00:00:00	2024-11-06T18:00:00	4	Temperatura máxima	14.7
6675	7	Sololá	701	Sololá	3	Barraneche	2	Febrero	2023-04-02T00:00:00	2024-11-06T18:00:00	3	Temperatura mínima	12.5
6676	7	Sololá	701	Sololá	3	Barraneche	2	Febrero	2023-04-02T00:00:00	2024-11-06T18:00:00	5	Humedad	63
6677	7	Sololá	701	Sololá	3	Barraneche	2	Febrero	2023-04-02T00:00:00	2024-11-06T18:00:00	6	Velocidad del viento	22.5
6678	7	Sololá	701	Sololá	3	Barraneche	2	Febrero	2023-04-02T00:00:00	2024-11-06T18:00:00	7	Dirección del viento	22.53
6679	7	Sololá	701	Sololá	3	Barraneche	2	Febrero	2023-04-02T00:00:00	2024-11-06T18:00:00	1	Precipitación	0
6680	7	Sololá	701	Sololá	3	Barraneche	2	Febrero	2023-04-02T00:00:00	2024-11-06T18:00:00	8	Radiación solar	80
6681	7	Sololá	701	Sololá	3	Barraneche	2	Febrero	2023-04-02T00:00:00	2024-11-06T19:00:00	2	Temperatura media	11.8
6682	7	Sololá	701	Sololá	3	Barraneche	2	Febrero	2023-04-02T00:00:00	2024-11-06T19:00:00	4	Temperatura máxima	12.6
6683	7	Sololá	701	Sololá	3	Barraneche	2	Febrero	2023-04-02T00:00:00	2024-11-06T19:00:00	3	Temperatura mínima	11.8
6684	7	Sololá	701	Sololá	3	Barraneche	2	Febrero	2023-04-02T00:00:00	2024-11-06T19:00:00	5	Humedad	68
6685	7	Sololá	701	Sololá	3	Barraneche	2	Febrero	2023-04-02T00:00:00	2024-11-06T19:00:00	6	Velocidad del viento	24.1
6686	7	Sololá	701	Sololá	3	Barraneche	2	Febrero	2023-04-02T00:00:00	2024-11-06T19:00:00	7	Dirección del viento	24.14
6687	7	Sololá	701	Sololá	3	Barraneche	2	Febrero	2023-04-02T00:00:00	2024-11-06T19:00:00	1	Precipitación	0
6688	7	Sololá	701	Sololá	3	Barraneche	2	Febrero	2023-04-02T00:00:00	2024-11-06T19:00:00	8	Radiación solar	0
6689	7	Sololá	701	Sololá	3	Barraneche	2	Febrero	2023-04-02T00:00:00	2024-11-06T20:00:00	2	Temperatura media	11.8
6690	7	Sololá	701	Sololá	3	Barraneche	2	Febrero	2023-04-02T00:00:00	2024-11-06T20:00:00	4	Temperatura máxima	12.1
6691	7	Sololá	701	Sololá	3	Barraneche	2	Febrero	2023-04-02T00:00:00	2024-11-06T20:00:00	3	Temperatura mínima	11.6
6692	7	Sololá	701	Sololá	3	Barraneche	2	Febrero	2023-04-02T00:00:00	2024-11-06T20:00:00	5	Humedad	65
6693	7	Sololá	701	Sololá	3	Barraneche	2	Febrero	2023-04-02T00:00:00	2024-11-06T20:00:00	6	Velocidad del viento	22.5
6694	7	Sololá	701	Sololá	3	Barraneche	2	Febrero	2023-04-02T00:00:00	2024-11-06T20:00:00	7	Dirección del viento	22.53
6695	7	Sololá	701	Sololá	3	Barraneche	2	Febrero	2023-04-02T00:00:00	2024-11-06T20:00:00	1	Precipitación	0
6696	7	Sololá	701	Sololá	3	Barraneche	2	Febrero	2023-04-02T00:00:00	2024-11-06T20:00:00	8	Radiación solar	0
6697	7	Sololá	701	Sololá	3	Barraneche	2	Febrero	2023-04-02T00:00:00	2024-11-06T21:00:00	2	Temperatura media	11.7
6698	7	Sololá	701	Sololá	3	Barraneche	2	Febrero	2023-04-02T00:00:00	2024-11-06T21:00:00	4	Temperatura máxima	11.8
6699	7	Sololá	701	Sololá	3	Barraneche	2	Febrero	2023-04-02T00:00:00	2024-11-06T21:00:00	3	Temperatura mínima	11.4
6700	7	Sololá	701	Sololá	3	Barraneche	2	Febrero	2023-04-02T00:00:00	2024-11-06T21:00:00	5	Humedad	63
6701	7	Sololá	701	Sololá	3	Barraneche	2	Febrero	2023-04-02T00:00:00	2024-11-06T21:00:00	6	Velocidad del viento	24.1
6702	7	Sololá	701	Sololá	3	Barraneche	2	Febrero	2023-04-02T00:00:00	2024-11-06T21:00:00	7	Dirección del viento	24.14
6703	7	Sololá	701	Sololá	3	Barraneche	2	Febrero	2023-04-02T00:00:00	2024-11-06T21:00:00	1	Precipitación	0
6704	7	Sololá	701	Sololá	3	Barraneche	2	Febrero	2023-04-02T00:00:00	2024-11-06T21:00:00	8	Radiación solar	0
6705	7	Sololá	701	Sololá	3	Barraneche	2	Febrero	2023-04-02T00:00:00	2024-11-06T22:00:00	2	Temperatura media	11.7
6706	7	Sololá	701	Sololá	3	Barraneche	2	Febrero	2023-04-02T00:00:00	2024-11-06T22:00:00	4	Temperatura máxima	11.9
6707	7	Sololá	701	Sololá	3	Barraneche	2	Febrero	2023-04-02T00:00:00	2024-11-06T22:00:00	3	Temperatura mínima	11.5
6708	7	Sololá	701	Sololá	3	Barraneche	2	Febrero	2023-04-02T00:00:00	2024-11-06T22:00:00	5	Humedad	62
6709	7	Sololá	701	Sololá	3	Barraneche	2	Febrero	2023-04-02T00:00:00	2024-11-06T22:00:00	6	Velocidad del viento	24.1
6710	7	Sololá	701	Sololá	3	Barraneche	2	Febrero	2023-04-02T00:00:00	2024-11-06T22:00:00	7	Dirección del viento	24.14
6711	7	Sololá	701	Sololá	3	Barraneche	2	Febrero	2023-04-02T00:00:00	2024-11-06T22:00:00	1	Precipitación	0
6712	7	Sololá	701	Sololá	3	Barraneche	2	Febrero	2023-04-02T00:00:00	2024-11-06T22:00:00	8	Radiación solar	0
6713	7	Sololá	701	Sololá	3	Barraneche	2	Febrero	2023-04-02T00:00:00	2024-11-06T23:00:00	2	Temperatura media	11.5
6714	7	Sololá	701	Sololá	3	Barraneche	2	Febrero	2023-04-02T00:00:00	2024-11-06T23:00:00	4	Temperatura máxima	11.9
6715	7	Sololá	701	Sololá	3	Barraneche	2	Febrero	2023-04-02T00:00:00	2024-11-06T23:00:00	3	Temperatura mínima	11.3
6716	7	Sololá	701	Sololá	3	Barraneche	2	Febrero	2023-04-02T00:00:00	2024-11-06T23:00:00	5	Humedad	63
6717	7	Sololá	701	Sololá	3	Barraneche	2	Febrero	2023-04-02T00:00:00	2024-11-06T23:00:00	6	Velocidad del viento	27.4
6718	7	Sololá	701	Sololá	3	Barraneche	2	Febrero	2023-04-02T00:00:00	2024-11-06T23:00:00	7	Dirección del viento	27.36
6719	7	Sololá	701	Sololá	3	Barraneche	2	Febrero	2023-04-02T00:00:00	2024-11-06T23:00:00	1	Precipitación	0
6720	7	Sololá	701	Sololá	3	Barraneche	2	Febrero	2023-04-02T00:00:00	2024-11-06T23:00:00	8	Radiación solar	0
6721	7	Sololá	701	Sololá	3	Barraneche	2	Febrero	2023-05-02T00:00:00	2024-11-06T00:00:00	2	Temperatura media	11.5
6722	7	Sololá	701	Sololá	3	Barraneche	2	Febrero	2023-05-02T00:00:00	2024-11-06T00:00:00	4	Temperatura máxima	11.7
6723	7	Sololá	701	Sololá	3	Barraneche	2	Febrero	2023-05-02T00:00:00	2024-11-06T00:00:00	3	Temperatura mínima	11.3
6724	7	Sololá	701	Sololá	3	Barraneche	2	Febrero	2023-05-02T00:00:00	2024-11-06T00:00:00	5	Humedad	65
6725	7	Sololá	701	Sololá	3	Barraneche	2	Febrero	2023-05-02T00:00:00	2024-11-06T00:00:00	6	Velocidad del viento	29
6726	7	Sololá	701	Sololá	3	Barraneche	2	Febrero	2023-05-02T00:00:00	2024-11-06T00:00:00	7	Dirección del viento	28.97
6727	7	Sololá	701	Sololá	3	Barraneche	2	Febrero	2023-05-02T00:00:00	2024-11-06T00:00:00	1	Precipitación	0
6728	7	Sololá	701	Sololá	3	Barraneche	2	Febrero	2023-05-02T00:00:00	2024-11-06T00:00:00	8	Radiación solar	0
6729	7	Sololá	701	Sololá	3	Barraneche	2	Febrero	2023-05-02T00:00:00	2024-11-06T01:00:00	2	Temperatura media	11.9
6730	7	Sololá	701	Sololá	3	Barraneche	2	Febrero	2023-05-02T00:00:00	2024-11-06T01:00:00	4	Temperatura máxima	12.1
6731	7	Sololá	701	Sololá	3	Barraneche	2	Febrero	2023-05-02T00:00:00	2024-11-06T01:00:00	3	Temperatura mínima	11.5
6732	7	Sololá	701	Sololá	3	Barraneche	2	Febrero	2023-05-02T00:00:00	2024-11-06T01:00:00	5	Humedad	61
6733	7	Sololá	701	Sololá	3	Barraneche	2	Febrero	2023-05-02T00:00:00	2024-11-06T01:00:00	6	Velocidad del viento	29
6734	7	Sololá	701	Sololá	3	Barraneche	2	Febrero	2023-05-02T00:00:00	2024-11-06T01:00:00	7	Dirección del viento	28.97
6735	7	Sololá	701	Sololá	3	Barraneche	2	Febrero	2023-05-02T00:00:00	2024-11-06T01:00:00	1	Precipitación	0
6736	7	Sololá	701	Sololá	3	Barraneche	2	Febrero	2023-05-02T00:00:00	2024-11-06T01:00:00	8	Radiación solar	0
6737	7	Sololá	701	Sololá	3	Barraneche	2	Febrero	2023-05-02T00:00:00	2024-11-06T02:00:00	2	Temperatura media	11.9
6738	7	Sololá	701	Sololá	3	Barraneche	2	Febrero	2023-05-02T00:00:00	2024-11-06T02:00:00	4	Temperatura máxima	12.1
6739	7	Sololá	701	Sololá	3	Barraneche	2	Febrero	2023-05-02T00:00:00	2024-11-06T02:00:00	3	Temperatura mínima	11.7
6740	7	Sololá	701	Sololá	3	Barraneche	2	Febrero	2023-05-02T00:00:00	2024-11-06T02:00:00	5	Humedad	63
6741	7	Sololá	701	Sololá	3	Barraneche	2	Febrero	2023-05-02T00:00:00	2024-11-06T02:00:00	6	Velocidad del viento	29
6742	7	Sololá	701	Sololá	3	Barraneche	2	Febrero	2023-05-02T00:00:00	2024-11-06T02:00:00	7	Dirección del viento	28.97
6743	7	Sololá	701	Sololá	3	Barraneche	2	Febrero	2023-05-02T00:00:00	2024-11-06T02:00:00	1	Precipitación	0
6744	7	Sololá	701	Sololá	3	Barraneche	2	Febrero	2023-05-02T00:00:00	2024-11-06T02:00:00	8	Radiación solar	0
6745	7	Sololá	701	Sololá	3	Barraneche	2	Febrero	2023-05-02T00:00:00	2024-11-06T03:00:00	2	Temperatura media	11.7
6746	7	Sololá	701	Sololá	3	Barraneche	2	Febrero	2023-05-02T00:00:00	2024-11-06T03:00:00	4	Temperatura máxima	11.9
6747	7	Sololá	701	Sololá	3	Barraneche	2	Febrero	2023-05-02T00:00:00	2024-11-06T03:00:00	3	Temperatura mínima	11.5
6748	7	Sololá	701	Sololá	3	Barraneche	2	Febrero	2023-05-02T00:00:00	2024-11-06T03:00:00	5	Humedad	66
6749	7	Sololá	701	Sololá	3	Barraneche	2	Febrero	2023-05-02T00:00:00	2024-11-06T03:00:00	6	Velocidad del viento	29
6750	7	Sololá	701	Sololá	3	Barraneche	2	Febrero	2023-05-02T00:00:00	2024-11-06T03:00:00	7	Dirección del viento	28.97
6751	7	Sololá	701	Sololá	3	Barraneche	2	Febrero	2023-05-02T00:00:00	2024-11-06T03:00:00	1	Precipitación	0
6752	7	Sololá	701	Sololá	3	Barraneche	2	Febrero	2023-05-02T00:00:00	2024-11-06T03:00:00	8	Radiación solar	0
6753	7	Sololá	701	Sololá	3	Barraneche	2	Febrero	2023-05-02T00:00:00	2024-11-06T04:00:00	2	Temperatura media	11.6
6754	7	Sololá	701	Sololá	3	Barraneche	2	Febrero	2023-05-02T00:00:00	2024-11-06T04:00:00	4	Temperatura máxima	11.8
6755	7	Sololá	701	Sololá	3	Barraneche	2	Febrero	2023-05-02T00:00:00	2024-11-06T04:00:00	3	Temperatura mínima	11.6
6756	7	Sololá	701	Sololá	3	Barraneche	2	Febrero	2023-05-02T00:00:00	2024-11-06T04:00:00	5	Humedad	66
6757	7	Sololá	701	Sololá	3	Barraneche	2	Febrero	2023-05-02T00:00:00	2024-11-06T04:00:00	6	Velocidad del viento	30.6
6758	7	Sololá	701	Sololá	3	Barraneche	2	Febrero	2023-05-02T00:00:00	2024-11-06T04:00:00	7	Dirección del viento	30.58
6759	7	Sololá	701	Sololá	3	Barraneche	2	Febrero	2023-05-02T00:00:00	2024-11-06T04:00:00	1	Precipitación	0
6760	7	Sololá	701	Sololá	3	Barraneche	2	Febrero	2023-05-02T00:00:00	2024-11-06T04:00:00	8	Radiación solar	0
6761	7	Sololá	701	Sololá	3	Barraneche	2	Febrero	2023-05-02T00:00:00	2024-11-06T05:00:00	2	Temperatura media	11.4
6762	7	Sololá	701	Sololá	3	Barraneche	2	Febrero	2023-05-02T00:00:00	2024-11-06T05:00:00	4	Temperatura máxima	11.8
6763	7	Sololá	701	Sololá	3	Barraneche	2	Febrero	2023-05-02T00:00:00	2024-11-06T05:00:00	3	Temperatura mínima	11.3
6764	7	Sololá	701	Sololá	3	Barraneche	2	Febrero	2023-05-02T00:00:00	2024-11-06T05:00:00	5	Humedad	66
6765	7	Sololá	701	Sololá	3	Barraneche	2	Febrero	2023-05-02T00:00:00	2024-11-06T05:00:00	6	Velocidad del viento	30.6
6766	7	Sololá	701	Sololá	3	Barraneche	2	Febrero	2023-05-02T00:00:00	2024-11-06T05:00:00	7	Dirección del viento	30.58
6767	7	Sololá	701	Sololá	3	Barraneche	2	Febrero	2023-05-02T00:00:00	2024-11-06T05:00:00	1	Precipitación	0
6768	7	Sololá	701	Sololá	3	Barraneche	2	Febrero	2023-05-02T00:00:00	2024-11-06T05:00:00	8	Radiación solar	0
6769	7	Sololá	701	Sololá	3	Barraneche	2	Febrero	2023-05-02T00:00:00	2024-11-06T06:00:00	2	Temperatura media	10.7
6770	7	Sololá	701	Sololá	3	Barraneche	2	Febrero	2023-05-02T00:00:00	2024-11-06T06:00:00	4	Temperatura máxima	11.6
6771	7	Sololá	701	Sololá	3	Barraneche	2	Febrero	2023-05-02T00:00:00	2024-11-06T06:00:00	3	Temperatura mínima	10.7
6772	7	Sololá	701	Sololá	3	Barraneche	2	Febrero	2023-05-02T00:00:00	2024-11-06T06:00:00	5	Humedad	68
6773	7	Sololá	701	Sololá	3	Barraneche	2	Febrero	2023-05-02T00:00:00	2024-11-06T06:00:00	6	Velocidad del viento	19.3
6774	7	Sololá	701	Sololá	3	Barraneche	2	Febrero	2023-05-02T00:00:00	2024-11-06T06:00:00	7	Dirección del viento	19.31
6775	7	Sololá	701	Sololá	3	Barraneche	2	Febrero	2023-05-02T00:00:00	2024-11-06T06:00:00	1	Precipitación	0
6776	7	Sololá	701	Sololá	3	Barraneche	2	Febrero	2023-05-02T00:00:00	2024-11-06T06:00:00	8	Radiación solar	0
6777	7	Sololá	701	Sololá	3	Barraneche	2	Febrero	2023-05-02T00:00:00	2024-11-06T07:00:00	2	Temperatura media	10.8
6778	7	Sololá	701	Sololá	3	Barraneche	2	Febrero	2023-05-02T00:00:00	2024-11-06T07:00:00	4	Temperatura máxima	10.8
6779	7	Sololá	701	Sololá	3	Barraneche	2	Febrero	2023-05-02T00:00:00	2024-11-06T07:00:00	3	Temperatura mínima	10.4
6780	7	Sololá	701	Sololá	3	Barraneche	2	Febrero	2023-05-02T00:00:00	2024-11-06T07:00:00	5	Humedad	67
6781	7	Sololá	701	Sololá	3	Barraneche	2	Febrero	2023-05-02T00:00:00	2024-11-06T07:00:00	6	Velocidad del viento	22.5
6782	7	Sololá	701	Sololá	3	Barraneche	2	Febrero	2023-05-02T00:00:00	2024-11-06T07:00:00	7	Dirección del viento	22.53
6783	7	Sololá	701	Sololá	3	Barraneche	2	Febrero	2023-05-02T00:00:00	2024-11-06T07:00:00	1	Precipitación	0
6784	7	Sololá	701	Sololá	3	Barraneche	2	Febrero	2023-05-02T00:00:00	2024-11-06T07:00:00	8	Radiación solar	5
6785	7	Sololá	701	Sololá	3	Barraneche	2	Febrero	2023-05-02T00:00:00	2024-11-06T08:00:00	2	Temperatura media	11.8
6786	7	Sololá	701	Sololá	3	Barraneche	2	Febrero	2023-05-02T00:00:00	2024-11-06T08:00:00	4	Temperatura máxima	11.8
6787	7	Sololá	701	Sololá	3	Barraneche	2	Febrero	2023-05-02T00:00:00	2024-11-06T08:00:00	3	Temperatura mínima	10.6
6788	7	Sololá	701	Sololá	3	Barraneche	2	Febrero	2023-05-02T00:00:00	2024-11-06T08:00:00	5	Humedad	62
6789	7	Sololá	701	Sololá	3	Barraneche	2	Febrero	2023-05-02T00:00:00	2024-11-06T08:00:00	6	Velocidad del viento	22.5
6790	7	Sololá	701	Sololá	3	Barraneche	2	Febrero	2023-05-02T00:00:00	2024-11-06T08:00:00	7	Dirección del viento	22.53
6791	7	Sololá	701	Sololá	3	Barraneche	2	Febrero	2023-05-02T00:00:00	2024-11-06T08:00:00	1	Precipitación	0
6792	7	Sololá	701	Sololá	3	Barraneche	2	Febrero	2023-05-02T00:00:00	2024-11-06T08:00:00	8	Radiación solar	161
6793	7	Sololá	701	Sololá	3	Barraneche	2	Febrero	2023-05-02T00:00:00	2024-11-06T09:00:00	2	Temperatura media	13
6794	7	Sololá	701	Sololá	3	Barraneche	2	Febrero	2023-05-02T00:00:00	2024-11-06T09:00:00	4	Temperatura máxima	13
6795	7	Sololá	701	Sololá	3	Barraneche	2	Febrero	2023-05-02T00:00:00	2024-11-06T09:00:00	3	Temperatura mínima	11.8
6796	7	Sololá	701	Sololá	3	Barraneche	2	Febrero	2023-05-02T00:00:00	2024-11-06T09:00:00	5	Humedad	58
6797	7	Sololá	701	Sololá	3	Barraneche	2	Febrero	2023-05-02T00:00:00	2024-11-06T09:00:00	6	Velocidad del viento	24.1
6798	7	Sololá	701	Sololá	3	Barraneche	2	Febrero	2023-05-02T00:00:00	2024-11-06T09:00:00	7	Dirección del viento	24.14
6799	7	Sololá	701	Sololá	3	Barraneche	2	Febrero	2023-05-02T00:00:00	2024-11-06T09:00:00	1	Precipitación	0
6800	7	Sololá	701	Sololá	3	Barraneche	2	Febrero	2023-05-02T00:00:00	2024-11-06T09:00:00	8	Radiación solar	428
6801	7	Sololá	701	Sololá	3	Barraneche	2	Febrero	2023-05-02T00:00:00	2024-11-06T10:00:00	2	Temperatura media	13.9
6802	7	Sololá	701	Sololá	3	Barraneche	2	Febrero	2023-05-02T00:00:00	2024-11-06T10:00:00	4	Temperatura máxima	14.1
6803	7	Sololá	701	Sololá	3	Barraneche	2	Febrero	2023-05-02T00:00:00	2024-11-06T10:00:00	3	Temperatura mínima	13
6804	7	Sololá	701	Sololá	3	Barraneche	2	Febrero	2023-05-02T00:00:00	2024-11-06T10:00:00	5	Humedad	53
6805	7	Sololá	701	Sololá	3	Barraneche	2	Febrero	2023-05-02T00:00:00	2024-11-06T10:00:00	6	Velocidad del viento	24.1
6806	7	Sololá	701	Sololá	3	Barraneche	2	Febrero	2023-05-02T00:00:00	2024-11-06T10:00:00	7	Dirección del viento	24.14
6807	7	Sololá	701	Sololá	3	Barraneche	2	Febrero	2023-05-02T00:00:00	2024-11-06T10:00:00	1	Precipitación	0
6808	7	Sololá	701	Sololá	3	Barraneche	2	Febrero	2023-05-02T00:00:00	2024-11-06T10:00:00	8	Radiación solar	654
6809	7	Sololá	701	Sololá	3	Barraneche	2	Febrero	2023-05-02T00:00:00	2024-11-06T11:00:00	2	Temperatura media	16.1
6810	7	Sololá	701	Sololá	3	Barraneche	2	Febrero	2023-05-02T00:00:00	2024-11-06T11:00:00	4	Temperatura máxima	16.1
6811	7	Sololá	701	Sololá	3	Barraneche	2	Febrero	2023-05-02T00:00:00	2024-11-06T11:00:00	3	Temperatura mínima	13.7
6812	7	Sololá	701	Sololá	3	Barraneche	2	Febrero	2023-05-02T00:00:00	2024-11-06T11:00:00	5	Humedad	40
6813	7	Sololá	701	Sololá	3	Barraneche	2	Febrero	2023-05-02T00:00:00	2024-11-06T11:00:00	6	Velocidad del viento	20.9
6814	7	Sololá	701	Sololá	3	Barraneche	2	Febrero	2023-05-02T00:00:00	2024-11-06T11:00:00	7	Dirección del viento	20.92
6815	7	Sololá	701	Sololá	3	Barraneche	2	Febrero	2023-05-02T00:00:00	2024-11-06T11:00:00	1	Precipitación	0
6816	7	Sololá	701	Sololá	3	Barraneche	2	Febrero	2023-05-02T00:00:00	2024-11-06T11:00:00	8	Radiación solar	820
6817	7	Sololá	701	Sololá	3	Barraneche	2	Febrero	2023-05-02T00:00:00	2024-11-06T12:00:00	2	Temperatura media	17.1
6818	7	Sololá	701	Sololá	3	Barraneche	2	Febrero	2023-05-02T00:00:00	2024-11-06T12:00:00	4	Temperatura máxima	17.3
6819	7	Sololá	701	Sololá	3	Barraneche	2	Febrero	2023-05-02T00:00:00	2024-11-06T12:00:00	3	Temperatura mínima	15.6
6820	7	Sololá	701	Sololá	3	Barraneche	2	Febrero	2023-05-02T00:00:00	2024-11-06T12:00:00	5	Humedad	34
6821	7	Sololá	701	Sololá	3	Barraneche	2	Febrero	2023-05-02T00:00:00	2024-11-06T12:00:00	6	Velocidad del viento	17.7
6822	7	Sololá	701	Sololá	3	Barraneche	2	Febrero	2023-05-02T00:00:00	2024-11-06T12:00:00	7	Dirección del viento	17.7
6823	7	Sololá	701	Sololá	3	Barraneche	2	Febrero	2023-05-02T00:00:00	2024-11-06T12:00:00	1	Precipitación	0
6824	7	Sololá	701	Sololá	3	Barraneche	2	Febrero	2023-05-02T00:00:00	2024-11-06T12:00:00	8	Radiación solar	918
6825	7	Sololá	701	Sololá	3	Barraneche	2	Febrero	2023-05-02T00:00:00	2024-11-06T13:00:00	2	Temperatura media	17.4
6826	7	Sololá	701	Sololá	3	Barraneche	2	Febrero	2023-05-02T00:00:00	2024-11-06T13:00:00	4	Temperatura máxima	17.6
6827	7	Sololá	701	Sololá	3	Barraneche	2	Febrero	2023-05-02T00:00:00	2024-11-06T13:00:00	3	Temperatura mínima	16.7
6828	7	Sololá	701	Sololá	3	Barraneche	2	Febrero	2023-05-02T00:00:00	2024-11-06T13:00:00	5	Humedad	33
6829	7	Sololá	701	Sololá	3	Barraneche	2	Febrero	2023-05-02T00:00:00	2024-11-06T13:00:00	6	Velocidad del viento	19.3
6830	7	Sololá	701	Sololá	3	Barraneche	2	Febrero	2023-05-02T00:00:00	2024-11-06T13:00:00	7	Dirección del viento	19.31
6831	7	Sololá	701	Sololá	3	Barraneche	2	Febrero	2023-05-02T00:00:00	2024-11-06T13:00:00	1	Precipitación	0
6832	7	Sololá	701	Sololá	3	Barraneche	2	Febrero	2023-05-02T00:00:00	2024-11-06T13:00:00	8	Radiación solar	941
6833	7	Sololá	701	Sololá	3	Barraneche	2	Febrero	2023-05-02T00:00:00	2024-11-06T14:00:00	2	Temperatura media	17.7
6834	7	Sololá	701	Sololá	3	Barraneche	2	Febrero	2023-05-02T00:00:00	2024-11-06T14:00:00	4	Temperatura máxima	17.8
6835	7	Sololá	701	Sololá	3	Barraneche	2	Febrero	2023-05-02T00:00:00	2024-11-06T14:00:00	3	Temperatura mínima	17.2
6836	7	Sololá	701	Sololá	3	Barraneche	2	Febrero	2023-05-02T00:00:00	2024-11-06T14:00:00	5	Humedad	29
6837	7	Sololá	701	Sololá	3	Barraneche	2	Febrero	2023-05-02T00:00:00	2024-11-06T14:00:00	6	Velocidad del viento	17.7
6838	7	Sololá	701	Sololá	3	Barraneche	2	Febrero	2023-05-02T00:00:00	2024-11-06T14:00:00	7	Dirección del viento	17.7
6839	7	Sololá	701	Sololá	3	Barraneche	2	Febrero	2023-05-02T00:00:00	2024-11-06T14:00:00	1	Precipitación	0
6840	7	Sololá	701	Sololá	3	Barraneche	2	Febrero	2023-05-02T00:00:00	2024-11-06T14:00:00	8	Radiación solar	885
6841	7	Sololá	701	Sololá	3	Barraneche	2	Febrero	2023-05-02T00:00:00	2024-11-06T15:00:00	2	Temperatura media	17.3
6842	7	Sololá	701	Sololá	3	Barraneche	2	Febrero	2023-05-02T00:00:00	2024-11-06T15:00:00	4	Temperatura máxima	17.8
6843	7	Sololá	701	Sololá	3	Barraneche	2	Febrero	2023-05-02T00:00:00	2024-11-06T15:00:00	3	Temperatura mínima	16.9
6844	7	Sololá	701	Sololá	3	Barraneche	2	Febrero	2023-05-02T00:00:00	2024-11-06T15:00:00	5	Humedad	33
6845	7	Sololá	701	Sololá	3	Barraneche	2	Febrero	2023-05-02T00:00:00	2024-11-06T15:00:00	6	Velocidad del viento	17.7
6846	7	Sololá	701	Sololá	3	Barraneche	2	Febrero	2023-05-02T00:00:00	2024-11-06T15:00:00	7	Dirección del viento	17.7
6847	7	Sololá	701	Sololá	3	Barraneche	2	Febrero	2023-05-02T00:00:00	2024-11-06T15:00:00	1	Precipitación	0
6848	7	Sololá	701	Sololá	3	Barraneche	2	Febrero	2023-05-02T00:00:00	2024-11-06T15:00:00	8	Radiación solar	753
6849	7	Sololá	701	Sololá	3	Barraneche	2	Febrero	2023-05-02T00:00:00	2024-11-06T16:00:00	2	Temperatura media	17.1
6850	7	Sololá	701	Sololá	3	Barraneche	2	Febrero	2023-05-02T00:00:00	2024-11-06T16:00:00	4	Temperatura máxima	17.7
6851	7	Sololá	701	Sololá	3	Barraneche	2	Febrero	2023-05-02T00:00:00	2024-11-06T16:00:00	3	Temperatura mínima	17
6852	7	Sololá	701	Sololá	3	Barraneche	2	Febrero	2023-05-02T00:00:00	2024-11-06T16:00:00	5	Humedad	38
6853	7	Sololá	701	Sololá	3	Barraneche	2	Febrero	2023-05-02T00:00:00	2024-11-06T16:00:00	6	Velocidad del viento	11.3
6854	7	Sololá	701	Sololá	3	Barraneche	2	Febrero	2023-05-02T00:00:00	2024-11-06T16:00:00	7	Dirección del viento	11.27
6855	7	Sololá	701	Sololá	3	Barraneche	2	Febrero	2023-05-02T00:00:00	2024-11-06T16:00:00	1	Precipitación	0
6856	7	Sololá	701	Sololá	3	Barraneche	2	Febrero	2023-05-02T00:00:00	2024-11-06T16:00:00	8	Radiación solar	557
6857	7	Sololá	701	Sololá	3	Barraneche	2	Febrero	2023-05-02T00:00:00	2024-11-06T17:00:00	2	Temperatura media	15.4
6858	7	Sololá	701	Sololá	3	Barraneche	2	Febrero	2023-05-02T00:00:00	2024-11-06T17:00:00	4	Temperatura máxima	17.2
6859	7	Sololá	701	Sololá	3	Barraneche	2	Febrero	2023-05-02T00:00:00	2024-11-06T17:00:00	3	Temperatura mínima	15.4
6860	7	Sololá	701	Sololá	3	Barraneche	2	Febrero	2023-05-02T00:00:00	2024-11-06T17:00:00	5	Humedad	48
6861	7	Sololá	701	Sololá	3	Barraneche	2	Febrero	2023-05-02T00:00:00	2024-11-06T17:00:00	6	Velocidad del viento	11.3
6862	7	Sololá	701	Sololá	3	Barraneche	2	Febrero	2023-05-02T00:00:00	2024-11-06T17:00:00	7	Dirección del viento	11.27
6863	7	Sololá	701	Sololá	3	Barraneche	2	Febrero	2023-05-02T00:00:00	2024-11-06T17:00:00	1	Precipitación	0
6864	7	Sololá	701	Sololá	3	Barraneche	2	Febrero	2023-05-02T00:00:00	2024-11-06T17:00:00	8	Radiación solar	323
6865	7	Sololá	701	Sololá	3	Barraneche	2	Febrero	2023-05-02T00:00:00	2024-11-06T18:00:00	2	Temperatura media	13
6866	7	Sololá	701	Sololá	3	Barraneche	2	Febrero	2023-05-02T00:00:00	2024-11-06T18:00:00	4	Temperatura máxima	15.4
6867	7	Sololá	701	Sololá	3	Barraneche	2	Febrero	2023-05-02T00:00:00	2024-11-06T18:00:00	3	Temperatura mínima	12.9
6868	7	Sololá	701	Sololá	3	Barraneche	2	Febrero	2023-05-02T00:00:00	2024-11-06T18:00:00	5	Humedad	59
6869	7	Sololá	701	Sololá	3	Barraneche	2	Febrero	2023-05-02T00:00:00	2024-11-06T18:00:00	6	Velocidad del viento	16.1
6870	7	Sololá	701	Sololá	3	Barraneche	2	Febrero	2023-05-02T00:00:00	2024-11-06T18:00:00	7	Dirección del viento	16.09
6871	7	Sololá	701	Sololá	3	Barraneche	2	Febrero	2023-05-02T00:00:00	2024-11-06T18:00:00	1	Precipitación	0
6872	7	Sololá	701	Sololá	3	Barraneche	2	Febrero	2023-05-02T00:00:00	2024-11-06T18:00:00	8	Radiación solar	79
6873	7	Sololá	701	Sololá	3	Barraneche	2	Febrero	2023-05-02T00:00:00	2024-11-06T19:00:00	2	Temperatura media	12.1
6874	7	Sololá	701	Sololá	3	Barraneche	2	Febrero	2023-05-02T00:00:00	2024-11-06T19:00:00	4	Temperatura máxima	13
6875	7	Sololá	701	Sololá	3	Barraneche	2	Febrero	2023-05-02T00:00:00	2024-11-06T19:00:00	3	Temperatura mínima	12.1
6876	7	Sololá	701	Sololá	3	Barraneche	2	Febrero	2023-05-02T00:00:00	2024-11-06T19:00:00	5	Humedad	59
6877	7	Sololá	701	Sololá	3	Barraneche	2	Febrero	2023-05-02T00:00:00	2024-11-06T19:00:00	6	Velocidad del viento	12.9
6878	7	Sololá	701	Sololá	3	Barraneche	2	Febrero	2023-05-02T00:00:00	2024-11-06T19:00:00	7	Dirección del viento	12.87
6879	7	Sololá	701	Sololá	3	Barraneche	2	Febrero	2023-05-02T00:00:00	2024-11-06T19:00:00	1	Precipitación	0
6880	7	Sololá	701	Sololá	3	Barraneche	2	Febrero	2023-05-02T00:00:00	2024-11-06T19:00:00	8	Radiación solar	0
6881	7	Sololá	701	Sololá	3	Barraneche	2	Febrero	2023-05-02T00:00:00	2024-11-06T20:00:00	2	Temperatura media	11.3
6882	7	Sololá	701	Sololá	3	Barraneche	2	Febrero	2023-05-02T00:00:00	2024-11-06T20:00:00	4	Temperatura máxima	12.1
6883	7	Sololá	701	Sololá	3	Barraneche	2	Febrero	2023-05-02T00:00:00	2024-11-06T20:00:00	3	Temperatura mínima	11.3
6884	7	Sololá	701	Sololá	3	Barraneche	2	Febrero	2023-05-02T00:00:00	2024-11-06T20:00:00	5	Humedad	60
6885	7	Sololá	701	Sololá	3	Barraneche	2	Febrero	2023-05-02T00:00:00	2024-11-06T20:00:00	6	Velocidad del viento	9.7
6886	7	Sololá	701	Sololá	3	Barraneche	2	Febrero	2023-05-02T00:00:00	2024-11-06T20:00:00	7	Dirección del viento	9.66
6887	7	Sololá	701	Sololá	3	Barraneche	2	Febrero	2023-05-02T00:00:00	2024-11-06T20:00:00	1	Precipitación	0
6888	7	Sololá	701	Sololá	3	Barraneche	2	Febrero	2023-05-02T00:00:00	2024-11-06T20:00:00	8	Radiación solar	0
6889	7	Sololá	701	Sololá	3	Barraneche	2	Febrero	2023-05-02T00:00:00	2024-11-06T21:00:00	2	Temperatura media	10.9
6890	7	Sololá	701	Sololá	3	Barraneche	2	Febrero	2023-05-02T00:00:00	2024-11-06T21:00:00	4	Temperatura máxima	11.3
6891	7	Sololá	701	Sololá	3	Barraneche	2	Febrero	2023-05-02T00:00:00	2024-11-06T21:00:00	3	Temperatura mínima	10.9
6892	7	Sololá	701	Sololá	3	Barraneche	2	Febrero	2023-05-02T00:00:00	2024-11-06T21:00:00	5	Humedad	58
6893	7	Sololá	701	Sololá	3	Barraneche	2	Febrero	2023-05-02T00:00:00	2024-11-06T21:00:00	6	Velocidad del viento	14.5
6894	7	Sololá	701	Sololá	3	Barraneche	2	Febrero	2023-05-02T00:00:00	2024-11-06T21:00:00	7	Dirección del viento	14.48
6895	7	Sololá	701	Sololá	3	Barraneche	2	Febrero	2023-05-02T00:00:00	2024-11-06T21:00:00	1	Precipitación	0
6896	7	Sololá	701	Sololá	3	Barraneche	2	Febrero	2023-05-02T00:00:00	2024-11-06T21:00:00	8	Radiación solar	0
6897	7	Sololá	701	Sololá	3	Barraneche	2	Febrero	2023-05-02T00:00:00	2024-11-06T22:00:00	2	Temperatura media	10.7
6898	7	Sololá	701	Sololá	3	Barraneche	2	Febrero	2023-05-02T00:00:00	2024-11-06T22:00:00	4	Temperatura máxima	10.9
6899	7	Sololá	701	Sololá	3	Barraneche	2	Febrero	2023-05-02T00:00:00	2024-11-06T22:00:00	3	Temperatura mínima	10.7
6900	7	Sololá	701	Sololá	3	Barraneche	2	Febrero	2023-05-02T00:00:00	2024-11-06T22:00:00	5	Humedad	58
6901	7	Sololá	701	Sololá	3	Barraneche	2	Febrero	2023-05-02T00:00:00	2024-11-06T22:00:00	6	Velocidad del viento	14.5
6902	7	Sololá	701	Sololá	3	Barraneche	2	Febrero	2023-05-02T00:00:00	2024-11-06T22:00:00	7	Dirección del viento	14.48
6903	7	Sololá	701	Sololá	3	Barraneche	2	Febrero	2023-05-02T00:00:00	2024-11-06T22:00:00	1	Precipitación	0
6904	7	Sololá	701	Sololá	3	Barraneche	2	Febrero	2023-05-02T00:00:00	2024-11-06T22:00:00	8	Radiación solar	0
6905	7	Sololá	701	Sololá	3	Barraneche	2	Febrero	2023-05-02T00:00:00	2024-11-06T23:00:00	2	Temperatura media	10.3
6906	7	Sololá	701	Sololá	3	Barraneche	2	Febrero	2023-05-02T00:00:00	2024-11-06T23:00:00	4	Temperatura máxima	10.7
6907	7	Sololá	701	Sololá	3	Barraneche	2	Febrero	2023-05-02T00:00:00	2024-11-06T23:00:00	3	Temperatura mínima	10.1
6908	7	Sololá	701	Sololá	3	Barraneche	2	Febrero	2023-05-02T00:00:00	2024-11-06T23:00:00	5	Humedad	57
6909	7	Sololá	701	Sololá	3	Barraneche	2	Febrero	2023-05-02T00:00:00	2024-11-06T23:00:00	6	Velocidad del viento	19.3
6910	7	Sololá	701	Sololá	3	Barraneche	2	Febrero	2023-05-02T00:00:00	2024-11-06T23:00:00	7	Dirección del viento	19.31
6911	7	Sololá	701	Sololá	3	Barraneche	2	Febrero	2023-05-02T00:00:00	2024-11-06T23:00:00	1	Precipitación	0
6912	7	Sololá	701	Sololá	3	Barraneche	2	Febrero	2023-05-02T00:00:00	2024-11-06T23:00:00	8	Radiación solar	0
6913	7	Sololá	701	Sololá	3	Barraneche	2	Febrero	2023-06-02T00:00:00	2024-11-06T00:00:00	2	Temperatura media	10.3
6914	7	Sololá	701	Sololá	3	Barraneche	2	Febrero	2023-06-02T00:00:00	2024-11-06T00:00:00	4	Temperatura máxima	10.3
6915	7	Sololá	701	Sololá	3	Barraneche	2	Febrero	2023-06-02T00:00:00	2024-11-06T00:00:00	3	Temperatura mínima	10
6916	7	Sololá	701	Sololá	3	Barraneche	2	Febrero	2023-06-02T00:00:00	2024-11-06T00:00:00	5	Humedad	59
6917	7	Sololá	701	Sololá	3	Barraneche	2	Febrero	2023-06-02T00:00:00	2024-11-06T00:00:00	6	Velocidad del viento	19.3
6918	7	Sololá	701	Sololá	3	Barraneche	2	Febrero	2023-06-02T00:00:00	2024-11-06T00:00:00	7	Dirección del viento	19.31
6919	7	Sololá	701	Sololá	3	Barraneche	2	Febrero	2023-06-02T00:00:00	2024-11-06T00:00:00	1	Precipitación	0
6920	7	Sololá	701	Sololá	3	Barraneche	2	Febrero	2023-06-02T00:00:00	2024-11-06T00:00:00	8	Radiación solar	0
6921	7	Sololá	701	Sololá	3	Barraneche	2	Febrero	2023-06-02T00:00:00	2024-11-06T01:00:00	2	Temperatura media	10.2
6922	7	Sololá	701	Sololá	3	Barraneche	2	Febrero	2023-06-02T00:00:00	2024-11-06T01:00:00	4	Temperatura máxima	10.3
6923	7	Sololá	701	Sololá	3	Barraneche	2	Febrero	2023-06-02T00:00:00	2024-11-06T01:00:00	3	Temperatura mínima	9.8
6924	7	Sololá	701	Sololá	3	Barraneche	2	Febrero	2023-06-02T00:00:00	2024-11-06T01:00:00	5	Humedad	62
6925	7	Sololá	701	Sololá	3	Barraneche	2	Febrero	2023-06-02T00:00:00	2024-11-06T01:00:00	6	Velocidad del viento	20.9
6926	7	Sololá	701	Sololá	3	Barraneche	2	Febrero	2023-06-02T00:00:00	2024-11-06T01:00:00	7	Dirección del viento	20.92
6927	7	Sololá	701	Sololá	3	Barraneche	2	Febrero	2023-06-02T00:00:00	2024-11-06T01:00:00	1	Precipitación	0
6928	7	Sololá	701	Sololá	3	Barraneche	2	Febrero	2023-06-02T00:00:00	2024-11-06T01:00:00	8	Radiación solar	0
6929	7	Sololá	701	Sololá	3	Barraneche	2	Febrero	2023-06-02T00:00:00	2024-11-06T02:00:00	2	Temperatura media	10.2
6930	7	Sololá	701	Sololá	3	Barraneche	2	Febrero	2023-06-02T00:00:00	2024-11-06T02:00:00	4	Temperatura máxima	10.3
6931	7	Sololá	701	Sololá	3	Barraneche	2	Febrero	2023-06-02T00:00:00	2024-11-06T02:00:00	3	Temperatura mínima	10.1
6932	7	Sololá	701	Sololá	3	Barraneche	2	Febrero	2023-06-02T00:00:00	2024-11-06T02:00:00	5	Humedad	60
6933	7	Sololá	701	Sololá	3	Barraneche	2	Febrero	2023-06-02T00:00:00	2024-11-06T02:00:00	6	Velocidad del viento	19.3
6934	7	Sololá	701	Sololá	3	Barraneche	2	Febrero	2023-06-02T00:00:00	2024-11-06T02:00:00	7	Dirección del viento	19.31
6935	7	Sololá	701	Sololá	3	Barraneche	2	Febrero	2023-06-02T00:00:00	2024-11-06T02:00:00	1	Precipitación	0
6936	7	Sololá	701	Sololá	3	Barraneche	2	Febrero	2023-06-02T00:00:00	2024-11-06T02:00:00	8	Radiación solar	0
6937	7	Sololá	701	Sololá	3	Barraneche	2	Febrero	2023-06-02T00:00:00	2024-11-06T03:00:00	2	Temperatura media	10.3
6938	7	Sololá	701	Sololá	3	Barraneche	2	Febrero	2023-06-02T00:00:00	2024-11-06T03:00:00	4	Temperatura máxima	10.4
6939	7	Sololá	701	Sololá	3	Barraneche	2	Febrero	2023-06-02T00:00:00	2024-11-06T03:00:00	3	Temperatura mínima	10.1
6940	7	Sololá	701	Sololá	3	Barraneche	2	Febrero	2023-06-02T00:00:00	2024-11-06T03:00:00	5	Humedad	61
6941	7	Sololá	701	Sololá	3	Barraneche	2	Febrero	2023-06-02T00:00:00	2024-11-06T03:00:00	6	Velocidad del viento	17.7
6942	7	Sololá	701	Sololá	3	Barraneche	2	Febrero	2023-06-02T00:00:00	2024-11-06T03:00:00	7	Dirección del viento	17.7
6943	7	Sololá	701	Sololá	3	Barraneche	2	Febrero	2023-06-02T00:00:00	2024-11-06T03:00:00	1	Precipitación	0
6944	7	Sololá	701	Sololá	3	Barraneche	2	Febrero	2023-06-02T00:00:00	2024-11-06T03:00:00	8	Radiación solar	0
6945	7	Sololá	701	Sololá	3	Barraneche	2	Febrero	2023-06-02T00:00:00	2024-11-06T04:00:00	2	Temperatura media	10.3
6946	7	Sololá	701	Sololá	3	Barraneche	2	Febrero	2023-06-02T00:00:00	2024-11-06T04:00:00	4	Temperatura máxima	10.6
6947	7	Sololá	701	Sololá	3	Barraneche	2	Febrero	2023-06-02T00:00:00	2024-11-06T04:00:00	3	Temperatura mínima	10
6948	7	Sololá	701	Sololá	3	Barraneche	2	Febrero	2023-06-02T00:00:00	2024-11-06T04:00:00	5	Humedad	60
6949	7	Sololá	701	Sololá	3	Barraneche	2	Febrero	2023-06-02T00:00:00	2024-11-06T04:00:00	6	Velocidad del viento	19.3
6950	7	Sololá	701	Sololá	3	Barraneche	2	Febrero	2023-06-02T00:00:00	2024-11-06T04:00:00	7	Dirección del viento	19.31
6951	7	Sololá	701	Sololá	3	Barraneche	2	Febrero	2023-06-02T00:00:00	2024-11-06T04:00:00	1	Precipitación	0
6952	7	Sololá	701	Sololá	3	Barraneche	2	Febrero	2023-06-02T00:00:00	2024-11-06T04:00:00	8	Radiación solar	0
6953	7	Sololá	701	Sololá	3	Barraneche	2	Febrero	2023-06-02T00:00:00	2024-11-06T05:00:00	2	Temperatura media	9.7
6954	7	Sololá	701	Sololá	3	Barraneche	2	Febrero	2023-06-02T00:00:00	2024-11-06T05:00:00	4	Temperatura máxima	10.4
6955	7	Sololá	701	Sololá	3	Barraneche	2	Febrero	2023-06-02T00:00:00	2024-11-06T05:00:00	3	Temperatura mínima	9.7
6956	7	Sololá	701	Sololá	3	Barraneche	2	Febrero	2023-06-02T00:00:00	2024-11-06T05:00:00	5	Humedad	59
6957	7	Sololá	701	Sololá	3	Barraneche	2	Febrero	2023-06-02T00:00:00	2024-11-06T05:00:00	6	Velocidad del viento	19.3
6958	7	Sololá	701	Sololá	3	Barraneche	2	Febrero	2023-06-02T00:00:00	2024-11-06T05:00:00	7	Dirección del viento	19.31
6959	7	Sololá	701	Sololá	3	Barraneche	2	Febrero	2023-06-02T00:00:00	2024-11-06T05:00:00	1	Precipitación	0
6960	7	Sololá	701	Sololá	3	Barraneche	2	Febrero	2023-06-02T00:00:00	2024-11-06T05:00:00	8	Radiación solar	0
6961	7	Sololá	701	Sololá	3	Barraneche	2	Febrero	2023-06-02T00:00:00	2024-11-06T06:00:00	2	Temperatura media	9.9
6962	7	Sololá	701	Sololá	3	Barraneche	2	Febrero	2023-06-02T00:00:00	2024-11-06T06:00:00	4	Temperatura máxima	10.2
6963	7	Sololá	701	Sololá	3	Barraneche	2	Febrero	2023-06-02T00:00:00	2024-11-06T06:00:00	3	Temperatura mínima	9.6
6964	7	Sololá	701	Sololá	3	Barraneche	2	Febrero	2023-06-02T00:00:00	2024-11-06T06:00:00	5	Humedad	46
6965	7	Sololá	701	Sololá	3	Barraneche	2	Febrero	2023-06-02T00:00:00	2024-11-06T06:00:00	6	Velocidad del viento	19.3
6966	7	Sololá	701	Sololá	3	Barraneche	2	Febrero	2023-06-02T00:00:00	2024-11-06T06:00:00	7	Dirección del viento	19.31
6967	7	Sololá	701	Sololá	3	Barraneche	2	Febrero	2023-06-02T00:00:00	2024-11-06T06:00:00	1	Precipitación	0
6968	7	Sololá	701	Sololá	3	Barraneche	2	Febrero	2023-06-02T00:00:00	2024-11-06T06:00:00	8	Radiación solar	0
6969	7	Sololá	701	Sololá	3	Barraneche	2	Febrero	2023-06-02T00:00:00	2024-11-06T07:00:00	2	Temperatura media	10.3
6970	7	Sololá	701	Sololá	3	Barraneche	2	Febrero	2023-06-02T00:00:00	2024-11-06T07:00:00	4	Temperatura máxima	10.3
6971	7	Sololá	701	Sololá	3	Barraneche	2	Febrero	2023-06-02T00:00:00	2024-11-06T07:00:00	3	Temperatura mínima	9.5
6972	7	Sololá	701	Sololá	3	Barraneche	2	Febrero	2023-06-02T00:00:00	2024-11-06T07:00:00	5	Humedad	37
6973	7	Sololá	701	Sololá	3	Barraneche	2	Febrero	2023-06-02T00:00:00	2024-11-06T07:00:00	6	Velocidad del viento	17.7
6974	7	Sololá	701	Sololá	3	Barraneche	2	Febrero	2023-06-02T00:00:00	2024-11-06T07:00:00	7	Dirección del viento	17.7
6975	7	Sololá	701	Sololá	3	Barraneche	2	Febrero	2023-06-02T00:00:00	2024-11-06T07:00:00	1	Precipitación	0
6976	7	Sololá	701	Sololá	3	Barraneche	2	Febrero	2023-06-02T00:00:00	2024-11-06T07:00:00	8	Radiación solar	5
6977	7	Sololá	701	Sololá	3	Barraneche	2	Febrero	2023-06-02T00:00:00	2024-11-06T08:00:00	2	Temperatura media	10.4
6978	7	Sololá	701	Sololá	3	Barraneche	2	Febrero	2023-06-02T00:00:00	2024-11-06T08:00:00	4	Temperatura máxima	10.9
6979	7	Sololá	701	Sololá	3	Barraneche	2	Febrero	2023-06-02T00:00:00	2024-11-06T08:00:00	3	Temperatura mínima	10
6980	7	Sololá	701	Sololá	3	Barraneche	2	Febrero	2023-06-02T00:00:00	2024-11-06T08:00:00	5	Humedad	60
6981	7	Sololá	701	Sololá	3	Barraneche	2	Febrero	2023-06-02T00:00:00	2024-11-06T08:00:00	6	Velocidad del viento	20.9
6982	7	Sololá	701	Sololá	3	Barraneche	2	Febrero	2023-06-02T00:00:00	2024-11-06T08:00:00	7	Dirección del viento	20.92
6983	7	Sololá	701	Sololá	3	Barraneche	2	Febrero	2023-06-02T00:00:00	2024-11-06T08:00:00	1	Precipitación	0
6984	7	Sololá	701	Sololá	3	Barraneche	2	Febrero	2023-06-02T00:00:00	2024-11-06T08:00:00	8	Radiación solar	161
6985	7	Sololá	701	Sololá	3	Barraneche	2	Febrero	2023-06-02T00:00:00	2024-11-06T09:00:00	2	Temperatura media	13.2
6986	7	Sololá	701	Sololá	3	Barraneche	2	Febrero	2023-06-02T00:00:00	2024-11-06T09:00:00	4	Temperatura máxima	13.4
6987	7	Sololá	701	Sololá	3	Barraneche	2	Febrero	2023-06-02T00:00:00	2024-11-06T09:00:00	3	Temperatura mínima	10.4
6988	7	Sololá	701	Sololá	3	Barraneche	2	Febrero	2023-06-02T00:00:00	2024-11-06T09:00:00	5	Humedad	51
6989	7	Sololá	701	Sololá	3	Barraneche	2	Febrero	2023-06-02T00:00:00	2024-11-06T09:00:00	6	Velocidad del viento	19.3
6990	7	Sololá	701	Sololá	3	Barraneche	2	Febrero	2023-06-02T00:00:00	2024-11-06T09:00:00	7	Dirección del viento	19.31
6991	7	Sololá	701	Sololá	3	Barraneche	2	Febrero	2023-06-02T00:00:00	2024-11-06T09:00:00	1	Precipitación	0
6992	7	Sololá	701	Sololá	3	Barraneche	2	Febrero	2023-06-02T00:00:00	2024-11-06T09:00:00	8	Radiación solar	430
6993	7	Sololá	701	Sololá	3	Barraneche	2	Febrero	2023-06-02T00:00:00	2024-11-06T10:00:00	2	Temperatura media	15.6
6994	7	Sololá	701	Sololá	3	Barraneche	2	Febrero	2023-06-02T00:00:00	2024-11-06T10:00:00	4	Temperatura máxima	15.7
6995	7	Sololá	701	Sololá	3	Barraneche	2	Febrero	2023-06-02T00:00:00	2024-11-06T10:00:00	3	Temperatura mínima	13.1
6996	7	Sololá	701	Sololá	3	Barraneche	2	Febrero	2023-06-02T00:00:00	2024-11-06T10:00:00	5	Humedad	41
6997	7	Sololá	701	Sololá	3	Barraneche	2	Febrero	2023-06-02T00:00:00	2024-11-06T10:00:00	6	Velocidad del viento	14.5
6998	7	Sololá	701	Sololá	3	Barraneche	2	Febrero	2023-06-02T00:00:00	2024-11-06T10:00:00	7	Dirección del viento	14.48
6999	7	Sololá	701	Sololá	3	Barraneche	2	Febrero	2023-06-02T00:00:00	2024-11-06T10:00:00	1	Precipitación	0
7000	7	Sololá	701	Sololá	3	Barraneche	2	Febrero	2023-06-02T00:00:00	2024-11-06T10:00:00	8	Radiación solar	653
7001	7	Sololá	701	Sololá	3	Barraneche	2	Febrero	2023-06-02T00:00:00	2024-11-06T11:00:00	2	Temperatura media	16.9
7002	7	Sololá	701	Sololá	3	Barraneche	2	Febrero	2023-06-02T00:00:00	2024-11-06T11:00:00	4	Temperatura máxima	17.1
7003	7	Sololá	701	Sololá	3	Barraneche	2	Febrero	2023-06-02T00:00:00	2024-11-06T11:00:00	3	Temperatura mínima	15.5
7004	7	Sololá	701	Sololá	3	Barraneche	2	Febrero	2023-06-02T00:00:00	2024-11-06T11:00:00	5	Humedad	34
7005	7	Sololá	701	Sololá	3	Barraneche	2	Febrero	2023-06-02T00:00:00	2024-11-06T11:00:00	6	Velocidad del viento	14.5
7006	7	Sololá	701	Sololá	3	Barraneche	2	Febrero	2023-06-02T00:00:00	2024-11-06T11:00:00	7	Dirección del viento	14.48
7007	7	Sololá	701	Sololá	3	Barraneche	2	Febrero	2023-06-02T00:00:00	2024-11-06T11:00:00	1	Precipitación	0
7008	7	Sololá	701	Sololá	3	Barraneche	2	Febrero	2023-06-02T00:00:00	2024-11-06T11:00:00	8	Radiación solar	816
7009	7	Sololá	701	Sololá	3	Barraneche	2	Febrero	2023-06-02T00:00:00	2024-11-06T12:00:00	2	Temperatura media	18.3
7010	7	Sololá	701	Sololá	3	Barraneche	2	Febrero	2023-06-02T00:00:00	2024-11-06T12:00:00	4	Temperatura máxima	18.3
7011	7	Sololá	701	Sololá	3	Barraneche	2	Febrero	2023-06-02T00:00:00	2024-11-06T12:00:00	3	Temperatura mínima	16.9
7012	7	Sololá	701	Sololá	3	Barraneche	2	Febrero	2023-06-02T00:00:00	2024-11-06T12:00:00	5	Humedad	26
7013	7	Sololá	701	Sololá	3	Barraneche	2	Febrero	2023-06-02T00:00:00	2024-11-06T12:00:00	6	Velocidad del viento	11.3
7014	7	Sololá	701	Sololá	3	Barraneche	2	Febrero	2023-06-02T00:00:00	2024-11-06T12:00:00	7	Dirección del viento	11.27
7015	7	Sololá	701	Sololá	3	Barraneche	2	Febrero	2023-06-02T00:00:00	2024-11-06T12:00:00	1	Precipitación	0
7016	7	Sololá	701	Sololá	3	Barraneche	2	Febrero	2023-06-02T00:00:00	2024-11-06T12:00:00	8	Radiación solar	918
7017	7	Sololá	701	Sololá	3	Barraneche	2	Febrero	2023-06-02T00:00:00	2024-11-06T13:00:00	2	Temperatura media	17.9
7018	7	Sololá	701	Sololá	3	Barraneche	2	Febrero	2023-06-02T00:00:00	2024-11-06T13:00:00	4	Temperatura máxima	18.8
7019	7	Sololá	701	Sololá	3	Barraneche	2	Febrero	2023-06-02T00:00:00	2024-11-06T13:00:00	3	Temperatura mínima	17.5
7020	7	Sololá	701	Sololá	3	Barraneche	2	Febrero	2023-06-02T00:00:00	2024-11-06T13:00:00	5	Humedad	36
7021	7	Sololá	701	Sololá	3	Barraneche	2	Febrero	2023-06-02T00:00:00	2024-11-06T13:00:00	6	Velocidad del viento	12.9
7022	7	Sololá	701	Sololá	3	Barraneche	2	Febrero	2023-06-02T00:00:00	2024-11-06T13:00:00	7	Dirección del viento	12.87
7023	7	Sololá	701	Sololá	3	Barraneche	2	Febrero	2023-06-02T00:00:00	2024-11-06T13:00:00	1	Precipitación	0
7024	7	Sololá	701	Sololá	3	Barraneche	2	Febrero	2023-06-02T00:00:00	2024-11-06T13:00:00	8	Radiación solar	933
7025	7	Sololá	701	Sololá	3	Barraneche	2	Febrero	2023-06-02T00:00:00	2024-11-06T14:00:00	2	Temperatura media	17.3
7026	7	Sololá	701	Sololá	3	Barraneche	2	Febrero	2023-06-02T00:00:00	2024-11-06T14:00:00	4	Temperatura máxima	18.1
7027	7	Sololá	701	Sololá	3	Barraneche	2	Febrero	2023-06-02T00:00:00	2024-11-06T14:00:00	3	Temperatura mínima	17.3
7028	7	Sololá	701	Sololá	3	Barraneche	2	Febrero	2023-06-02T00:00:00	2024-11-06T14:00:00	5	Humedad	39
7029	7	Sololá	701	Sololá	3	Barraneche	2	Febrero	2023-06-02T00:00:00	2024-11-06T14:00:00	6	Velocidad del viento	12.9
7030	7	Sololá	701	Sololá	3	Barraneche	2	Febrero	2023-06-02T00:00:00	2024-11-06T14:00:00	7	Dirección del viento	12.87
7031	7	Sololá	701	Sololá	3	Barraneche	2	Febrero	2023-06-02T00:00:00	2024-11-06T14:00:00	1	Precipitación	0
7032	7	Sololá	701	Sololá	3	Barraneche	2	Febrero	2023-06-02T00:00:00	2024-11-06T14:00:00	8	Radiación solar	884
7033	7	Sololá	701	Sololá	3	Barraneche	2	Febrero	2023-06-02T00:00:00	2024-11-06T15:00:00	2	Temperatura media	18
7034	7	Sololá	701	Sololá	3	Barraneche	2	Febrero	2023-06-02T00:00:00	2024-11-06T15:00:00	4	Temperatura máxima	18
7035	7	Sololá	701	Sololá	3	Barraneche	2	Febrero	2023-06-02T00:00:00	2024-11-06T15:00:00	3	Temperatura mínima	17.1
7036	7	Sololá	701	Sololá	3	Barraneche	2	Febrero	2023-06-02T00:00:00	2024-11-06T15:00:00	5	Humedad	39
7037	7	Sololá	701	Sololá	3	Barraneche	2	Febrero	2023-06-02T00:00:00	2024-11-06T15:00:00	6	Velocidad del viento	12.9
7038	7	Sololá	701	Sololá	3	Barraneche	2	Febrero	2023-06-02T00:00:00	2024-11-06T15:00:00	7	Dirección del viento	12.87
7039	7	Sololá	701	Sololá	3	Barraneche	2	Febrero	2023-06-02T00:00:00	2024-11-06T15:00:00	1	Precipitación	0
7040	7	Sololá	701	Sololá	3	Barraneche	2	Febrero	2023-06-02T00:00:00	2024-11-06T15:00:00	8	Radiación solar	761
7041	7	Sololá	701	Sololá	3	Barraneche	2	Febrero	2023-06-02T00:00:00	2024-11-06T16:00:00	2	Temperatura media	16.2
7042	7	Sololá	701	Sololá	3	Barraneche	2	Febrero	2023-06-02T00:00:00	2024-11-06T16:00:00	4	Temperatura máxima	18.4
7043	7	Sololá	701	Sololá	3	Barraneche	2	Febrero	2023-06-02T00:00:00	2024-11-06T16:00:00	3	Temperatura mínima	16.2
7044	7	Sololá	701	Sololá	3	Barraneche	2	Febrero	2023-06-02T00:00:00	2024-11-06T16:00:00	5	Humedad	44
7045	7	Sololá	701	Sololá	3	Barraneche	2	Febrero	2023-06-02T00:00:00	2024-11-06T16:00:00	6	Velocidad del viento	12.9
7046	7	Sololá	701	Sololá	3	Barraneche	2	Febrero	2023-06-02T00:00:00	2024-11-06T16:00:00	7	Dirección del viento	12.87
7047	7	Sololá	701	Sololá	3	Barraneche	2	Febrero	2023-06-02T00:00:00	2024-11-06T16:00:00	1	Precipitación	0
7048	7	Sololá	701	Sololá	3	Barraneche	2	Febrero	2023-06-02T00:00:00	2024-11-06T16:00:00	8	Radiación solar	570
7049	7	Sololá	701	Sololá	3	Barraneche	2	Febrero	2023-06-02T00:00:00	2024-11-06T17:00:00	2	Temperatura media	14.6
7050	7	Sololá	701	Sololá	3	Barraneche	2	Febrero	2023-06-02T00:00:00	2024-11-06T17:00:00	4	Temperatura máxima	16.3
7051	7	Sololá	701	Sololá	3	Barraneche	2	Febrero	2023-06-02T00:00:00	2024-11-06T17:00:00	3	Temperatura mínima	14.6
7052	7	Sololá	701	Sololá	3	Barraneche	2	Febrero	2023-06-02T00:00:00	2024-11-06T17:00:00	5	Humedad	51
7053	7	Sololá	701	Sololá	3	Barraneche	2	Febrero	2023-06-02T00:00:00	2024-11-06T17:00:00	6	Velocidad del viento	16.1
7054	7	Sololá	701	Sololá	3	Barraneche	2	Febrero	2023-06-02T00:00:00	2024-11-06T17:00:00	7	Dirección del viento	16.09
7055	7	Sololá	701	Sololá	3	Barraneche	2	Febrero	2023-06-02T00:00:00	2024-11-06T17:00:00	1	Precipitación	0
7056	7	Sololá	701	Sololá	3	Barraneche	2	Febrero	2023-06-02T00:00:00	2024-11-06T17:00:00	8	Radiación solar	316
7057	7	Sololá	701	Sololá	3	Barraneche	2	Febrero	2023-06-02T00:00:00	2024-11-06T18:00:00	2	Temperatura media	12.3
7058	7	Sololá	701	Sololá	3	Barraneche	2	Febrero	2023-06-02T00:00:00	2024-11-06T18:00:00	4	Temperatura máxima	14.6
7059	7	Sololá	701	Sololá	3	Barraneche	2	Febrero	2023-06-02T00:00:00	2024-11-06T18:00:00	3	Temperatura mínima	12.3
7060	7	Sololá	701	Sololá	3	Barraneche	2	Febrero	2023-06-02T00:00:00	2024-11-06T18:00:00	5	Humedad	58
7061	7	Sololá	701	Sololá	3	Barraneche	2	Febrero	2023-06-02T00:00:00	2024-11-06T18:00:00	6	Velocidad del viento	14.5
7062	7	Sololá	701	Sololá	3	Barraneche	2	Febrero	2023-06-02T00:00:00	2024-11-06T18:00:00	7	Dirección del viento	14.48
7063	7	Sololá	701	Sololá	3	Barraneche	2	Febrero	2023-06-02T00:00:00	2024-11-06T18:00:00	1	Precipitación	0
7064	7	Sololá	701	Sololá	3	Barraneche	2	Febrero	2023-06-02T00:00:00	2024-11-06T18:00:00	8	Radiación solar	76
7065	7	Sololá	701	Sololá	3	Barraneche	2	Febrero	2023-06-02T00:00:00	2024-11-06T19:00:00	2	Temperatura media	11.2
7066	7	Sololá	701	Sololá	3	Barraneche	2	Febrero	2023-06-02T00:00:00	2024-11-06T19:00:00	4	Temperatura máxima	12.3
7067	7	Sololá	701	Sololá	3	Barraneche	2	Febrero	2023-06-02T00:00:00	2024-11-06T19:00:00	3	Temperatura mínima	11.2
7068	7	Sololá	701	Sololá	3	Barraneche	2	Febrero	2023-06-02T00:00:00	2024-11-06T19:00:00	5	Humedad	60
7069	7	Sololá	701	Sololá	3	Barraneche	2	Febrero	2023-06-02T00:00:00	2024-11-06T19:00:00	6	Velocidad del viento	12.9
7070	7	Sololá	701	Sololá	3	Barraneche	2	Febrero	2023-06-02T00:00:00	2024-11-06T19:00:00	7	Dirección del viento	12.87
7071	7	Sololá	701	Sololá	3	Barraneche	2	Febrero	2023-06-02T00:00:00	2024-11-06T19:00:00	1	Precipitación	0
7072	7	Sololá	701	Sololá	3	Barraneche	2	Febrero	2023-06-02T00:00:00	2024-11-06T19:00:00	8	Radiación solar	0
7073	7	Sololá	701	Sololá	3	Barraneche	2	Febrero	2023-06-02T00:00:00	2024-11-06T20:00:00	2	Temperatura media	10.7
7074	7	Sololá	701	Sololá	3	Barraneche	2	Febrero	2023-06-02T00:00:00	2024-11-06T20:00:00	4	Temperatura máxima	11.2
7075	7	Sololá	701	Sololá	3	Barraneche	2	Febrero	2023-06-02T00:00:00	2024-11-06T20:00:00	3	Temperatura mínima	10.7
7076	7	Sololá	701	Sololá	3	Barraneche	2	Febrero	2023-06-02T00:00:00	2024-11-06T20:00:00	5	Humedad	59
7077	7	Sololá	701	Sololá	3	Barraneche	2	Febrero	2023-06-02T00:00:00	2024-11-06T20:00:00	6	Velocidad del viento	11.3
7078	7	Sololá	701	Sololá	3	Barraneche	2	Febrero	2023-06-02T00:00:00	2024-11-06T20:00:00	7	Dirección del viento	11.27
7079	7	Sololá	701	Sololá	3	Barraneche	2	Febrero	2023-06-02T00:00:00	2024-11-06T20:00:00	1	Precipitación	0
7080	7	Sololá	701	Sololá	3	Barraneche	2	Febrero	2023-06-02T00:00:00	2024-11-06T20:00:00	8	Radiación solar	0
7081	7	Sololá	701	Sololá	3	Barraneche	2	Febrero	2023-06-02T00:00:00	2024-11-06T21:00:00	2	Temperatura media	10.4
7082	7	Sololá	701	Sololá	3	Barraneche	2	Febrero	2023-06-02T00:00:00	2024-11-06T21:00:00	4	Temperatura máxima	10.8
7083	7	Sololá	701	Sololá	3	Barraneche	2	Febrero	2023-06-02T00:00:00	2024-11-06T21:00:00	3	Temperatura mínima	10.3
7084	7	Sololá	701	Sololá	3	Barraneche	2	Febrero	2023-06-02T00:00:00	2024-11-06T21:00:00	5	Humedad	58
7085	7	Sololá	701	Sololá	3	Barraneche	2	Febrero	2023-06-02T00:00:00	2024-11-06T21:00:00	6	Velocidad del viento	11.3
7086	7	Sololá	701	Sololá	3	Barraneche	2	Febrero	2023-06-02T00:00:00	2024-11-06T21:00:00	7	Dirección del viento	11.27
7087	7	Sololá	701	Sololá	3	Barraneche	2	Febrero	2023-06-02T00:00:00	2024-11-06T21:00:00	1	Precipitación	0
7088	7	Sololá	701	Sololá	3	Barraneche	2	Febrero	2023-06-02T00:00:00	2024-11-06T21:00:00	8	Radiación solar	0
7089	7	Sololá	701	Sololá	3	Barraneche	2	Febrero	2023-06-02T00:00:00	2024-11-06T22:00:00	2	Temperatura media	9.7
7090	7	Sololá	701	Sololá	3	Barraneche	2	Febrero	2023-06-02T00:00:00	2024-11-06T22:00:00	4	Temperatura máxima	10.4
7091	7	Sololá	701	Sololá	3	Barraneche	2	Febrero	2023-06-02T00:00:00	2024-11-06T22:00:00	3	Temperatura mínima	9.7
7092	7	Sololá	701	Sololá	3	Barraneche	2	Febrero	2023-06-02T00:00:00	2024-11-06T22:00:00	5	Humedad	59
7093	7	Sololá	701	Sololá	3	Barraneche	2	Febrero	2023-06-02T00:00:00	2024-11-06T22:00:00	6	Velocidad del viento	11.3
7094	7	Sololá	701	Sololá	3	Barraneche	2	Febrero	2023-06-02T00:00:00	2024-11-06T22:00:00	7	Dirección del viento	11.27
7095	7	Sololá	701	Sololá	3	Barraneche	2	Febrero	2023-06-02T00:00:00	2024-11-06T22:00:00	1	Precipitación	0
7096	7	Sololá	701	Sololá	3	Barraneche	2	Febrero	2023-06-02T00:00:00	2024-11-06T22:00:00	8	Radiación solar	0
7097	7	Sololá	701	Sololá	3	Barraneche	2	Febrero	2023-06-02T00:00:00	2024-11-06T23:00:00	2	Temperatura media	8.9
7098	7	Sololá	701	Sololá	3	Barraneche	2	Febrero	2023-06-02T00:00:00	2024-11-06T23:00:00	4	Temperatura máxima	10
7099	7	Sololá	701	Sololá	3	Barraneche	2	Febrero	2023-06-02T00:00:00	2024-11-06T23:00:00	3	Temperatura mínima	8.9
7100	7	Sololá	701	Sololá	3	Barraneche	2	Febrero	2023-06-02T00:00:00	2024-11-06T23:00:00	5	Humedad	56
7101	7	Sololá	701	Sololá	3	Barraneche	2	Febrero	2023-06-02T00:00:00	2024-11-06T23:00:00	6	Velocidad del viento	8
7102	7	Sololá	701	Sololá	3	Barraneche	2	Febrero	2023-06-02T00:00:00	2024-11-06T23:00:00	7	Dirección del viento	8.05
7103	7	Sololá	701	Sololá	3	Barraneche	2	Febrero	2023-06-02T00:00:00	2024-11-06T23:00:00	1	Precipitación	0
7104	7	Sololá	701	Sololá	3	Barraneche	2	Febrero	2023-06-02T00:00:00	2024-11-06T23:00:00	8	Radiación solar	0
7105	7	Sololá	701	Sololá	3	Barraneche	2	Febrero	2023-07-02T00:00:00	2024-11-06T00:00:00	2	Temperatura media	8.2
7106	7	Sololá	701	Sololá	3	Barraneche	2	Febrero	2023-07-02T00:00:00	2024-11-06T00:00:00	4	Temperatura máxima	9.3
7107	7	Sololá	701	Sololá	3	Barraneche	2	Febrero	2023-07-02T00:00:00	2024-11-06T00:00:00	3	Temperatura mínima	8.1
7108	7	Sololá	701	Sololá	3	Barraneche	2	Febrero	2023-07-02T00:00:00	2024-11-06T00:00:00	5	Humedad	50
7109	7	Sololá	701	Sololá	3	Barraneche	2	Febrero	2023-07-02T00:00:00	2024-11-06T00:00:00	6	Velocidad del viento	6.4
7110	7	Sololá	701	Sololá	3	Barraneche	2	Febrero	2023-07-02T00:00:00	2024-11-06T00:00:00	7	Dirección del viento	6.44
7111	7	Sololá	701	Sololá	3	Barraneche	2	Febrero	2023-07-02T00:00:00	2024-11-06T00:00:00	1	Precipitación	0
7112	7	Sololá	701	Sololá	3	Barraneche	2	Febrero	2023-07-02T00:00:00	2024-11-06T00:00:00	8	Radiación solar	0
7113	7	Sololá	701	Sololá	3	Barraneche	2	Febrero	2023-07-02T00:00:00	2024-11-06T01:00:00	2	Temperatura media	8.3
7114	7	Sololá	701	Sololá	3	Barraneche	2	Febrero	2023-07-02T00:00:00	2024-11-06T01:00:00	4	Temperatura máxima	8.4
7115	7	Sololá	701	Sololá	3	Barraneche	2	Febrero	2023-07-02T00:00:00	2024-11-06T01:00:00	3	Temperatura mínima	7.2
7116	7	Sololá	701	Sololá	3	Barraneche	2	Febrero	2023-07-02T00:00:00	2024-11-06T01:00:00	5	Humedad	52
7117	7	Sololá	701	Sololá	3	Barraneche	2	Febrero	2023-07-02T00:00:00	2024-11-06T01:00:00	6	Velocidad del viento	8
7118	7	Sololá	701	Sololá	3	Barraneche	2	Febrero	2023-07-02T00:00:00	2024-11-06T01:00:00	7	Dirección del viento	8.05
7119	7	Sololá	701	Sololá	3	Barraneche	2	Febrero	2023-07-02T00:00:00	2024-11-06T01:00:00	1	Precipitación	0
7120	7	Sololá	701	Sololá	3	Barraneche	2	Febrero	2023-07-02T00:00:00	2024-11-06T01:00:00	8	Radiación solar	0
7121	7	Sololá	701	Sololá	3	Barraneche	2	Febrero	2023-07-02T00:00:00	2024-11-06T02:00:00	2	Temperatura media	6
7122	7	Sololá	701	Sololá	3	Barraneche	2	Febrero	2023-07-02T00:00:00	2024-11-06T02:00:00	4	Temperatura máxima	8.9
7123	7	Sololá	701	Sololá	3	Barraneche	2	Febrero	2023-07-02T00:00:00	2024-11-06T02:00:00	3	Temperatura mínima	5.9
7124	7	Sololá	701	Sololá	3	Barraneche	2	Febrero	2023-07-02T00:00:00	2024-11-06T02:00:00	5	Humedad	56
7125	7	Sololá	701	Sololá	3	Barraneche	2	Febrero	2023-07-02T00:00:00	2024-11-06T02:00:00	6	Velocidad del viento	4.8
7126	7	Sololá	701	Sololá	3	Barraneche	2	Febrero	2023-07-02T00:00:00	2024-11-06T02:00:00	7	Dirección del viento	4.83
7127	7	Sololá	701	Sololá	3	Barraneche	2	Febrero	2023-07-02T00:00:00	2024-11-06T02:00:00	1	Precipitación	0
7128	7	Sololá	701	Sololá	3	Barraneche	2	Febrero	2023-07-02T00:00:00	2024-11-06T02:00:00	8	Radiación solar	0
7129	7	Sololá	701	Sololá	3	Barraneche	2	Febrero	2023-07-02T00:00:00	2024-11-06T03:00:00	2	Temperatura media	6.4
7130	7	Sololá	701	Sololá	3	Barraneche	2	Febrero	2023-07-02T00:00:00	2024-11-06T03:00:00	4	Temperatura máxima	6.6
7131	7	Sololá	701	Sololá	3	Barraneche	2	Febrero	2023-07-02T00:00:00	2024-11-06T03:00:00	3	Temperatura mínima	6
7132	7	Sololá	701	Sololá	3	Barraneche	2	Febrero	2023-07-02T00:00:00	2024-11-06T03:00:00	5	Humedad	55
7133	7	Sololá	701	Sololá	3	Barraneche	2	Febrero	2023-07-02T00:00:00	2024-11-06T03:00:00	6	Velocidad del viento	4.8
7134	7	Sololá	701	Sololá	3	Barraneche	2	Febrero	2023-07-02T00:00:00	2024-11-06T03:00:00	7	Dirección del viento	4.83
7135	7	Sololá	701	Sololá	3	Barraneche	2	Febrero	2023-07-02T00:00:00	2024-11-06T03:00:00	1	Precipitación	0
7136	7	Sololá	701	Sololá	3	Barraneche	2	Febrero	2023-07-02T00:00:00	2024-11-06T03:00:00	8	Radiación solar	0
7137	7	Sololá	701	Sololá	3	Barraneche	2	Febrero	2023-07-02T00:00:00	2024-11-06T04:00:00	2	Temperatura media	7.7
7138	7	Sololá	701	Sololá	3	Barraneche	2	Febrero	2023-07-02T00:00:00	2024-11-06T04:00:00	4	Temperatura máxima	8.1
7139	7	Sololá	701	Sololá	3	Barraneche	2	Febrero	2023-07-02T00:00:00	2024-11-06T04:00:00	3	Temperatura mínima	5.7
7140	7	Sololá	701	Sololá	3	Barraneche	2	Febrero	2023-07-02T00:00:00	2024-11-06T04:00:00	5	Humedad	54
7141	7	Sololá	701	Sololá	3	Barraneche	2	Febrero	2023-07-02T00:00:00	2024-11-06T04:00:00	6	Velocidad del viento	6.4
7142	7	Sololá	701	Sololá	3	Barraneche	2	Febrero	2023-07-02T00:00:00	2024-11-06T04:00:00	7	Dirección del viento	6.44
7143	7	Sololá	701	Sololá	3	Barraneche	2	Febrero	2023-07-02T00:00:00	2024-11-06T04:00:00	1	Precipitación	0
7144	7	Sololá	701	Sololá	3	Barraneche	2	Febrero	2023-07-02T00:00:00	2024-11-06T04:00:00	8	Radiación solar	0
7145	7	Sololá	701	Sololá	3	Barraneche	2	Febrero	2023-07-02T00:00:00	2024-11-06T05:00:00	2	Temperatura media	5.3
7146	7	Sololá	701	Sololá	3	Barraneche	2	Febrero	2023-07-02T00:00:00	2024-11-06T05:00:00	4	Temperatura máxima	7.7
7147	7	Sololá	701	Sololá	3	Barraneche	2	Febrero	2023-07-02T00:00:00	2024-11-06T05:00:00	3	Temperatura mínima	4.7
7148	7	Sololá	701	Sololá	3	Barraneche	2	Febrero	2023-07-02T00:00:00	2024-11-06T05:00:00	5	Humedad	53
7149	7	Sololá	701	Sololá	3	Barraneche	2	Febrero	2023-07-02T00:00:00	2024-11-06T05:00:00	6	Velocidad del viento	4.8
7150	7	Sololá	701	Sololá	3	Barraneche	2	Febrero	2023-07-02T00:00:00	2024-11-06T05:00:00	7	Dirección del viento	4.83
7151	7	Sololá	701	Sololá	3	Barraneche	2	Febrero	2023-07-02T00:00:00	2024-11-06T05:00:00	1	Precipitación	0
7152	7	Sololá	701	Sololá	3	Barraneche	2	Febrero	2023-07-02T00:00:00	2024-11-06T05:00:00	8	Radiación solar	0
7153	7	Sololá	701	Sololá	3	Barraneche	2	Febrero	2023-07-02T00:00:00	2024-11-06T06:00:00	2	Temperatura media	5.9
7154	7	Sololá	701	Sololá	3	Barraneche	2	Febrero	2023-07-02T00:00:00	2024-11-06T06:00:00	4	Temperatura máxima	6.1
7155	7	Sololá	701	Sololá	3	Barraneche	2	Febrero	2023-07-02T00:00:00	2024-11-06T06:00:00	3	Temperatura mínima	5.2
7156	7	Sololá	701	Sololá	3	Barraneche	2	Febrero	2023-07-02T00:00:00	2024-11-06T06:00:00	5	Humedad	47
7157	7	Sololá	701	Sololá	3	Barraneche	2	Febrero	2023-07-02T00:00:00	2024-11-06T06:00:00	6	Velocidad del viento	8
7158	7	Sololá	701	Sololá	3	Barraneche	2	Febrero	2023-07-02T00:00:00	2024-11-06T06:00:00	7	Dirección del viento	8.05
7159	7	Sololá	701	Sololá	3	Barraneche	2	Febrero	2023-07-02T00:00:00	2024-11-06T06:00:00	1	Precipitación	0
7160	7	Sololá	701	Sololá	3	Barraneche	2	Febrero	2023-07-02T00:00:00	2024-11-06T06:00:00	8	Radiación solar	0
7161	7	Sololá	701	Sololá	3	Barraneche	2	Febrero	2023-07-02T00:00:00	2024-11-06T07:00:00	2	Temperatura media	6.3
7162	7	Sololá	701	Sololá	3	Barraneche	2	Febrero	2023-07-02T00:00:00	2024-11-06T07:00:00	4	Temperatura máxima	6.3
7163	7	Sololá	701	Sololá	3	Barraneche	2	Febrero	2023-07-02T00:00:00	2024-11-06T07:00:00	3	Temperatura mínima	5.3
7164	7	Sololá	701	Sololá	3	Barraneche	2	Febrero	2023-07-02T00:00:00	2024-11-06T07:00:00	5	Humedad	43
7165	7	Sololá	701	Sololá	3	Barraneche	2	Febrero	2023-07-02T00:00:00	2024-11-06T07:00:00	6	Velocidad del viento	6.4
7166	7	Sololá	701	Sololá	3	Barraneche	2	Febrero	2023-07-02T00:00:00	2024-11-06T07:00:00	7	Dirección del viento	6.44
7167	7	Sololá	701	Sololá	3	Barraneche	2	Febrero	2023-07-02T00:00:00	2024-11-06T07:00:00	1	Precipitación	0
7168	7	Sololá	701	Sololá	3	Barraneche	2	Febrero	2023-07-02T00:00:00	2024-11-06T07:00:00	8	Radiación solar	5
7169	7	Sololá	701	Sololá	3	Barraneche	2	Febrero	2023-07-02T00:00:00	2024-11-06T08:00:00	2	Temperatura media	10.6
7170	7	Sololá	701	Sololá	3	Barraneche	2	Febrero	2023-07-02T00:00:00	2024-11-06T08:00:00	4	Temperatura máxima	10.6
7171	7	Sololá	701	Sololá	3	Barraneche	2	Febrero	2023-07-02T00:00:00	2024-11-06T08:00:00	3	Temperatura mínima	6.3
7172	7	Sololá	701	Sololá	3	Barraneche	2	Febrero	2023-07-02T00:00:00	2024-11-06T08:00:00	5	Humedad	40
7173	7	Sololá	701	Sololá	3	Barraneche	2	Febrero	2023-07-02T00:00:00	2024-11-06T08:00:00	6	Velocidad del viento	4.8
7174	7	Sololá	701	Sololá	3	Barraneche	2	Febrero	2023-07-02T00:00:00	2024-11-06T08:00:00	7	Dirección del viento	4.83
7175	7	Sololá	701	Sololá	3	Barraneche	2	Febrero	2023-07-02T00:00:00	2024-11-06T08:00:00	1	Precipitación	0
7176	7	Sololá	701	Sololá	3	Barraneche	2	Febrero	2023-07-02T00:00:00	2024-11-06T08:00:00	8	Radiación solar	163
7177	7	Sololá	701	Sololá	3	Barraneche	2	Febrero	2023-07-02T00:00:00	2024-11-06T09:00:00	2	Temperatura media	15.2
7178	7	Sololá	701	Sololá	3	Barraneche	2	Febrero	2023-07-02T00:00:00	2024-11-06T09:00:00	4	Temperatura máxima	15.2
7179	7	Sololá	701	Sololá	3	Barraneche	2	Febrero	2023-07-02T00:00:00	2024-11-06T09:00:00	3	Temperatura mínima	10.6
7180	7	Sololá	701	Sololá	3	Barraneche	2	Febrero	2023-07-02T00:00:00	2024-11-06T09:00:00	5	Humedad	28
7181	7	Sololá	701	Sololá	3	Barraneche	2	Febrero	2023-07-02T00:00:00	2024-11-06T09:00:00	6	Velocidad del viento	3.2
7182	7	Sololá	701	Sololá	3	Barraneche	2	Febrero	2023-07-02T00:00:00	2024-11-06T09:00:00	7	Dirección del viento	3.22
7183	7	Sololá	701	Sololá	3	Barraneche	2	Febrero	2023-07-02T00:00:00	2024-11-06T09:00:00	1	Precipitación	0
7184	7	Sololá	701	Sololá	3	Barraneche	2	Febrero	2023-07-02T00:00:00	2024-11-06T09:00:00	8	Radiación solar	437
7185	7	Sololá	701	Sololá	3	Barraneche	2	Febrero	2023-07-02T00:00:00	2024-11-06T10:00:00	2	Temperatura media	17.9
7186	7	Sololá	701	Sololá	3	Barraneche	2	Febrero	2023-07-02T00:00:00	2024-11-06T10:00:00	4	Temperatura máxima	17.9
7187	7	Sololá	701	Sololá	3	Barraneche	2	Febrero	2023-07-02T00:00:00	2024-11-06T10:00:00	3	Temperatura mínima	15.2
7188	7	Sololá	701	Sololá	3	Barraneche	2	Febrero	2023-07-02T00:00:00	2024-11-06T10:00:00	5	Humedad	15
7189	7	Sololá	701	Sololá	3	Barraneche	2	Febrero	2023-07-02T00:00:00	2024-11-06T10:00:00	6	Velocidad del viento	6.4
7190	7	Sololá	701	Sololá	3	Barraneche	2	Febrero	2023-07-02T00:00:00	2024-11-06T10:00:00	7	Dirección del viento	6.44
7191	7	Sololá	701	Sololá	3	Barraneche	2	Febrero	2023-07-02T00:00:00	2024-11-06T10:00:00	1	Precipitación	0
7192	7	Sololá	701	Sololá	3	Barraneche	2	Febrero	2023-07-02T00:00:00	2024-11-06T10:00:00	8	Radiación solar	653
7193	7	Sololá	701	Sololá	3	Barraneche	2	Febrero	2023-07-02T00:00:00	2024-11-06T11:00:00	2	Temperatura media	18.2
7194	7	Sololá	701	Sololá	3	Barraneche	2	Febrero	2023-07-02T00:00:00	2024-11-06T11:00:00	4	Temperatura máxima	18.6
7195	7	Sololá	701	Sololá	3	Barraneche	2	Febrero	2023-07-02T00:00:00	2024-11-06T11:00:00	3	Temperatura mínima	17.8
7196	7	Sololá	701	Sololá	3	Barraneche	2	Febrero	2023-07-02T00:00:00	2024-11-06T11:00:00	5	Humedad	32
7197	7	Sololá	701	Sololá	3	Barraneche	2	Febrero	2023-07-02T00:00:00	2024-11-06T11:00:00	6	Velocidad del viento	9.7
7198	7	Sololá	701	Sololá	3	Barraneche	2	Febrero	2023-07-02T00:00:00	2024-11-06T11:00:00	7	Dirección del viento	9.66
7199	7	Sololá	701	Sololá	3	Barraneche	2	Febrero	2023-07-02T00:00:00	2024-11-06T11:00:00	1	Precipitación	0
7200	7	Sololá	701	Sololá	3	Barraneche	2	Febrero	2023-07-02T00:00:00	2024-11-06T11:00:00	8	Radiación solar	823
7201	7	Sololá	701	Sololá	3	Barraneche	2	Febrero	2023-07-02T00:00:00	2024-11-06T12:00:00	2	Temperatura media	18
7202	7	Sololá	701	Sololá	3	Barraneche	2	Febrero	2023-07-02T00:00:00	2024-11-06T12:00:00	4	Temperatura máxima	18.3
7203	7	Sololá	701	Sololá	3	Barraneche	2	Febrero	2023-07-02T00:00:00	2024-11-06T12:00:00	3	Temperatura mínima	17.7
7204	7	Sololá	701	Sololá	3	Barraneche	2	Febrero	2023-07-02T00:00:00	2024-11-06T12:00:00	5	Humedad	29
7205	7	Sololá	701	Sololá	3	Barraneche	2	Febrero	2023-07-02T00:00:00	2024-11-06T12:00:00	6	Velocidad del viento	14.5
7206	7	Sololá	701	Sololá	3	Barraneche	2	Febrero	2023-07-02T00:00:00	2024-11-06T12:00:00	7	Dirección del viento	14.48
7207	7	Sololá	701	Sololá	3	Barraneche	2	Febrero	2023-07-02T00:00:00	2024-11-06T12:00:00	1	Precipitación	0
7208	7	Sololá	701	Sololá	3	Barraneche	2	Febrero	2023-07-02T00:00:00	2024-11-06T12:00:00	8	Radiación solar	916
7209	7	Sololá	701	Sololá	3	Barraneche	2	Febrero	2023-07-02T00:00:00	2024-11-06T13:00:00	2	Temperatura media	18.8
7210	7	Sololá	701	Sololá	3	Barraneche	2	Febrero	2023-07-02T00:00:00	2024-11-06T13:00:00	4	Temperatura máxima	19.1
7211	7	Sololá	701	Sololá	3	Barraneche	2	Febrero	2023-07-02T00:00:00	2024-11-06T13:00:00	3	Temperatura mínima	17.9
7212	7	Sololá	701	Sololá	3	Barraneche	2	Febrero	2023-07-02T00:00:00	2024-11-06T13:00:00	5	Humedad	23
7213	7	Sololá	701	Sololá	3	Barraneche	2	Febrero	2023-07-02T00:00:00	2024-11-06T13:00:00	6	Velocidad del viento	12.9
7214	7	Sololá	701	Sololá	3	Barraneche	2	Febrero	2023-07-02T00:00:00	2024-11-06T13:00:00	7	Dirección del viento	12.87
7215	7	Sololá	701	Sololá	3	Barraneche	2	Febrero	2023-07-02T00:00:00	2024-11-06T13:00:00	1	Precipitación	0
7216	7	Sololá	701	Sololá	3	Barraneche	2	Febrero	2023-07-02T00:00:00	2024-11-06T13:00:00	8	Radiación solar	943
7217	7	Sololá	701	Sololá	3	Barraneche	2	Febrero	2023-07-02T00:00:00	2024-11-06T14:00:00	2	Temperatura media	18.7
7218	7	Sololá	701	Sololá	3	Barraneche	2	Febrero	2023-07-02T00:00:00	2024-11-06T14:00:00	4	Temperatura máxima	19.1
7219	7	Sololá	701	Sololá	3	Barraneche	2	Febrero	2023-07-02T00:00:00	2024-11-06T14:00:00	3	Temperatura mínima	18.4
7220	7	Sololá	701	Sololá	3	Barraneche	2	Febrero	2023-07-02T00:00:00	2024-11-06T14:00:00	5	Humedad	35
7221	7	Sololá	701	Sololá	3	Barraneche	2	Febrero	2023-07-02T00:00:00	2024-11-06T14:00:00	6	Velocidad del viento	16.1
7222	7	Sololá	701	Sololá	3	Barraneche	2	Febrero	2023-07-02T00:00:00	2024-11-06T14:00:00	7	Dirección del viento	16.09
7223	7	Sololá	701	Sololá	3	Barraneche	2	Febrero	2023-07-02T00:00:00	2024-11-06T14:00:00	1	Precipitación	0
7224	7	Sololá	701	Sololá	3	Barraneche	2	Febrero	2023-07-02T00:00:00	2024-11-06T14:00:00	8	Radiación solar	878
7225	7	Sololá	701	Sololá	3	Barraneche	2	Febrero	2023-07-02T00:00:00	2024-11-06T15:00:00	2	Temperatura media	16.6
7226	7	Sololá	701	Sololá	3	Barraneche	2	Febrero	2023-07-02T00:00:00	2024-11-06T15:00:00	4	Temperatura máxima	18.7
7227	7	Sololá	701	Sololá	3	Barraneche	2	Febrero	2023-07-02T00:00:00	2024-11-06T15:00:00	3	Temperatura mínima	16.6
7228	7	Sololá	701	Sololá	3	Barraneche	2	Febrero	2023-07-02T00:00:00	2024-11-06T15:00:00	5	Humedad	50
7229	7	Sololá	701	Sololá	3	Barraneche	2	Febrero	2023-07-02T00:00:00	2024-11-06T15:00:00	6	Velocidad del viento	16.1
7230	7	Sololá	701	Sololá	3	Barraneche	2	Febrero	2023-07-02T00:00:00	2024-11-06T15:00:00	7	Dirección del viento	16.09
7231	7	Sololá	701	Sololá	3	Barraneche	2	Febrero	2023-07-02T00:00:00	2024-11-06T15:00:00	1	Precipitación	0
7232	7	Sololá	701	Sololá	3	Barraneche	2	Febrero	2023-07-02T00:00:00	2024-11-06T15:00:00	8	Radiación solar	585
7233	7	Sololá	701	Sololá	3	Barraneche	2	Febrero	2023-07-02T00:00:00	2024-11-06T16:00:00	2	Temperatura media	15.7
7234	7	Sololá	701	Sololá	3	Barraneche	2	Febrero	2023-07-02T00:00:00	2024-11-06T16:00:00	4	Temperatura máxima	16.9
7235	7	Sololá	701	Sololá	3	Barraneche	2	Febrero	2023-07-02T00:00:00	2024-11-06T16:00:00	3	Temperatura mínima	15.7
7236	7	Sololá	701	Sololá	3	Barraneche	2	Febrero	2023-07-02T00:00:00	2024-11-06T16:00:00	5	Humedad	58
7237	7	Sololá	701	Sololá	3	Barraneche	2	Febrero	2023-07-02T00:00:00	2024-11-06T16:00:00	6	Velocidad del viento	12.9
7238	7	Sololá	701	Sololá	3	Barraneche	2	Febrero	2023-07-02T00:00:00	2024-11-06T16:00:00	7	Dirección del viento	12.87
7239	7	Sololá	701	Sololá	3	Barraneche	2	Febrero	2023-07-02T00:00:00	2024-11-06T16:00:00	1	Precipitación	0
7240	7	Sololá	701	Sololá	3	Barraneche	2	Febrero	2023-07-02T00:00:00	2024-11-06T16:00:00	8	Radiación solar	306
7241	7	Sololá	701	Sololá	3	Barraneche	2	Febrero	2023-07-02T00:00:00	2024-11-06T17:00:00	2	Temperatura media	14.9
7242	7	Sololá	701	Sololá	3	Barraneche	2	Febrero	2023-07-02T00:00:00	2024-11-06T17:00:00	4	Temperatura máxima	15.8
7243	7	Sololá	701	Sololá	3	Barraneche	2	Febrero	2023-07-02T00:00:00	2024-11-06T17:00:00	3	Temperatura mínima	14.8
7244	7	Sololá	701	Sololá	3	Barraneche	2	Febrero	2023-07-02T00:00:00	2024-11-06T17:00:00	5	Humedad	62
7245	7	Sololá	701	Sololá	3	Barraneche	2	Febrero	2023-07-02T00:00:00	2024-11-06T17:00:00	6	Velocidad del viento	9.7
7246	7	Sololá	701	Sololá	3	Barraneche	2	Febrero	2023-07-02T00:00:00	2024-11-06T17:00:00	7	Dirección del viento	9.66
7247	7	Sololá	701	Sololá	3	Barraneche	2	Febrero	2023-07-02T00:00:00	2024-11-06T17:00:00	1	Precipitación	0
7248	7	Sololá	701	Sololá	3	Barraneche	2	Febrero	2023-07-02T00:00:00	2024-11-06T17:00:00	8	Radiación solar	175
7249	7	Sololá	701	Sololá	3	Barraneche	2	Febrero	2023-07-02T00:00:00	2024-11-06T18:00:00	2	Temperatura media	13.4
7250	7	Sololá	701	Sololá	3	Barraneche	2	Febrero	2023-07-02T00:00:00	2024-11-06T18:00:00	4	Temperatura máxima	14.9
7251	7	Sololá	701	Sololá	3	Barraneche	2	Febrero	2023-07-02T00:00:00	2024-11-06T18:00:00	3	Temperatura mínima	13.3
7252	7	Sololá	701	Sololá	3	Barraneche	2	Febrero	2023-07-02T00:00:00	2024-11-06T18:00:00	5	Humedad	70
7253	7	Sololá	701	Sololá	3	Barraneche	2	Febrero	2023-07-02T00:00:00	2024-11-06T18:00:00	6	Velocidad del viento	6.4
7254	7	Sololá	701	Sololá	3	Barraneche	2	Febrero	2023-07-02T00:00:00	2024-11-06T18:00:00	7	Dirección del viento	6.44
7255	7	Sololá	701	Sololá	3	Barraneche	2	Febrero	2023-07-02T00:00:00	2024-11-06T18:00:00	1	Precipitación	0
7256	7	Sololá	701	Sololá	3	Barraneche	2	Febrero	2023-07-02T00:00:00	2024-11-06T18:00:00	8	Radiación solar	45
7257	7	Sololá	701	Sololá	3	Barraneche	2	Febrero	2023-07-02T00:00:00	2024-11-06T19:00:00	2	Temperatura media	12.4
7258	7	Sololá	701	Sololá	3	Barraneche	2	Febrero	2023-07-02T00:00:00	2024-11-06T19:00:00	4	Temperatura máxima	13.4
7259	7	Sololá	701	Sololá	3	Barraneche	2	Febrero	2023-07-02T00:00:00	2024-11-06T19:00:00	3	Temperatura mínima	12.4
7260	7	Sololá	701	Sololá	3	Barraneche	2	Febrero	2023-07-02T00:00:00	2024-11-06T19:00:00	5	Humedad	62
7261	7	Sololá	701	Sololá	3	Barraneche	2	Febrero	2023-07-02T00:00:00	2024-11-06T19:00:00	6	Velocidad del viento	1.6
7262	7	Sololá	701	Sololá	3	Barraneche	2	Febrero	2023-07-02T00:00:00	2024-11-06T19:00:00	7	Dirección del viento	1.61
7263	7	Sololá	701	Sololá	3	Barraneche	2	Febrero	2023-07-02T00:00:00	2024-11-06T19:00:00	1	Precipitación	0
7264	7	Sololá	701	Sololá	3	Barraneche	2	Febrero	2023-07-02T00:00:00	2024-11-06T19:00:00	8	Radiación solar	0
7265	7	Sololá	701	Sololá	3	Barraneche	2	Febrero	2023-07-02T00:00:00	2024-11-06T20:00:00	2	Temperatura media	10.5
7266	7	Sololá	701	Sololá	3	Barraneche	2	Febrero	2023-07-02T00:00:00	2024-11-06T20:00:00	4	Temperatura máxima	12.4
7267	7	Sololá	701	Sololá	3	Barraneche	2	Febrero	2023-07-02T00:00:00	2024-11-06T20:00:00	3	Temperatura mínima	10.4
7268	7	Sololá	701	Sololá	3	Barraneche	2	Febrero	2023-07-02T00:00:00	2024-11-06T20:00:00	5	Humedad	61
7269	7	Sololá	701	Sololá	3	Barraneche	2	Febrero	2023-07-02T00:00:00	2024-11-06T20:00:00	6	Velocidad del viento	8
7270	7	Sololá	701	Sololá	3	Barraneche	2	Febrero	2023-07-02T00:00:00	2024-11-06T20:00:00	7	Dirección del viento	8.05
7271	7	Sololá	701	Sololá	3	Barraneche	2	Febrero	2023-07-02T00:00:00	2024-11-06T20:00:00	1	Precipitación	0
7272	7	Sololá	701	Sololá	3	Barraneche	2	Febrero	2023-07-02T00:00:00	2024-11-06T20:00:00	8	Radiación solar	0
7273	7	Sololá	701	Sololá	3	Barraneche	2	Febrero	2023-07-02T00:00:00	2024-11-06T21:00:00	2	Temperatura media	10.1
7274	7	Sololá	701	Sololá	3	Barraneche	2	Febrero	2023-07-02T00:00:00	2024-11-06T21:00:00	4	Temperatura máxima	10.9
7275	7	Sololá	701	Sololá	3	Barraneche	2	Febrero	2023-07-02T00:00:00	2024-11-06T21:00:00	3	Temperatura mínima	9.8
7276	7	Sololá	701	Sololá	3	Barraneche	2	Febrero	2023-07-02T00:00:00	2024-11-06T21:00:00	5	Humedad	65
7277	7	Sololá	701	Sololá	3	Barraneche	2	Febrero	2023-07-02T00:00:00	2024-11-06T21:00:00	6	Velocidad del viento	6.4
7278	7	Sololá	701	Sololá	3	Barraneche	2	Febrero	2023-07-02T00:00:00	2024-11-06T21:00:00	7	Dirección del viento	6.44
7279	7	Sololá	701	Sololá	3	Barraneche	2	Febrero	2023-07-02T00:00:00	2024-11-06T21:00:00	1	Precipitación	0
7280	7	Sololá	701	Sololá	3	Barraneche	2	Febrero	2023-07-02T00:00:00	2024-11-06T21:00:00	8	Radiación solar	0
7281	7	Sololá	701	Sololá	3	Barraneche	2	Febrero	2023-07-02T00:00:00	2024-11-06T22:00:00	2	Temperatura media	10.8
7282	7	Sololá	701	Sololá	3	Barraneche	2	Febrero	2023-07-02T00:00:00	2024-11-06T22:00:00	4	Temperatura máxima	10.8
7283	7	Sololá	701	Sololá	3	Barraneche	2	Febrero	2023-07-02T00:00:00	2024-11-06T22:00:00	3	Temperatura mínima	10
7284	7	Sololá	701	Sololá	3	Barraneche	2	Febrero	2023-07-02T00:00:00	2024-11-06T22:00:00	5	Humedad	59
7285	7	Sololá	701	Sololá	3	Barraneche	2	Febrero	2023-07-02T00:00:00	2024-11-06T22:00:00	6	Velocidad del viento	8
7286	7	Sololá	701	Sololá	3	Barraneche	2	Febrero	2023-07-02T00:00:00	2024-11-06T22:00:00	7	Dirección del viento	8.05
7287	7	Sololá	701	Sololá	3	Barraneche	2	Febrero	2023-07-02T00:00:00	2024-11-06T22:00:00	1	Precipitación	0
7288	7	Sololá	701	Sololá	3	Barraneche	2	Febrero	2023-07-02T00:00:00	2024-11-06T22:00:00	8	Radiación solar	0
7289	7	Sololá	701	Sololá	3	Barraneche	2	Febrero	2023-07-02T00:00:00	2024-11-06T23:00:00	2	Temperatura media	9.3
7290	7	Sololá	701	Sololá	3	Barraneche	2	Febrero	2023-07-02T00:00:00	2024-11-06T23:00:00	4	Temperatura máxima	11.2
7291	7	Sololá	701	Sololá	3	Barraneche	2	Febrero	2023-07-02T00:00:00	2024-11-06T23:00:00	3	Temperatura mínima	9.3
7292	7	Sololá	701	Sololá	3	Barraneche	2	Febrero	2023-07-02T00:00:00	2024-11-06T23:00:00	5	Humedad	51
7293	7	Sololá	701	Sololá	3	Barraneche	2	Febrero	2023-07-02T00:00:00	2024-11-06T23:00:00	6	Velocidad del viento	8
7294	7	Sololá	701	Sololá	3	Barraneche	2	Febrero	2023-07-02T00:00:00	2024-11-06T23:00:00	7	Dirección del viento	8.05
7295	7	Sololá	701	Sololá	3	Barraneche	2	Febrero	2023-07-02T00:00:00	2024-11-06T23:00:00	1	Precipitación	0
7296	7	Sololá	701	Sololá	3	Barraneche	2	Febrero	2023-07-02T00:00:00	2024-11-06T23:00:00	8	Radiación solar	0
7297	7	Sololá	701	Sololá	3	Barraneche	2	Febrero	2023-08-02T00:00:00	2024-11-06T00:00:00	2	Temperatura media	9.3
7298	7	Sololá	701	Sololá	3	Barraneche	2	Febrero	2023-08-02T00:00:00	2024-11-06T00:00:00	4	Temperatura máxima	9.5
7299	7	Sololá	701	Sololá	3	Barraneche	2	Febrero	2023-08-02T00:00:00	2024-11-06T00:00:00	3	Temperatura mínima	9.1
7300	7	Sololá	701	Sololá	3	Barraneche	2	Febrero	2023-08-02T00:00:00	2024-11-06T00:00:00	5	Humedad	50
7301	7	Sololá	701	Sololá	3	Barraneche	2	Febrero	2023-08-02T00:00:00	2024-11-06T00:00:00	6	Velocidad del viento	8
7302	7	Sololá	701	Sololá	3	Barraneche	2	Febrero	2023-08-02T00:00:00	2024-11-06T00:00:00	7	Dirección del viento	8.05
7303	7	Sololá	701	Sololá	3	Barraneche	2	Febrero	2023-08-02T00:00:00	2024-11-06T00:00:00	1	Precipitación	0
7304	7	Sololá	701	Sololá	3	Barraneche	2	Febrero	2023-08-02T00:00:00	2024-11-06T00:00:00	8	Radiación solar	0
7305	7	Sololá	701	Sololá	3	Barraneche	2	Febrero	2023-08-02T00:00:00	2024-11-06T01:00:00	2	Temperatura media	8.8
7306	7	Sololá	701	Sololá	3	Barraneche	2	Febrero	2023-08-02T00:00:00	2024-11-06T01:00:00	4	Temperatura máxima	9.7
7307	7	Sololá	701	Sololá	3	Barraneche	2	Febrero	2023-08-02T00:00:00	2024-11-06T01:00:00	3	Temperatura mínima	8.3
7308	7	Sololá	701	Sololá	3	Barraneche	2	Febrero	2023-08-02T00:00:00	2024-11-06T01:00:00	5	Humedad	53
7309	7	Sololá	701	Sololá	3	Barraneche	2	Febrero	2023-08-02T00:00:00	2024-11-06T01:00:00	6	Velocidad del viento	6.4
7310	7	Sololá	701	Sololá	3	Barraneche	2	Febrero	2023-08-02T00:00:00	2024-11-06T01:00:00	7	Dirección del viento	6.44
7311	7	Sololá	701	Sololá	3	Barraneche	2	Febrero	2023-08-02T00:00:00	2024-11-06T01:00:00	1	Precipitación	0
7312	7	Sololá	701	Sololá	3	Barraneche	2	Febrero	2023-08-02T00:00:00	2024-11-06T01:00:00	8	Radiación solar	0
7313	7	Sololá	701	Sololá	3	Barraneche	2	Febrero	2023-08-02T00:00:00	2024-11-06T02:00:00	2	Temperatura media	8.7
7314	7	Sololá	701	Sololá	3	Barraneche	2	Febrero	2023-08-02T00:00:00	2024-11-06T02:00:00	4	Temperatura máxima	9
7315	7	Sololá	701	Sololá	3	Barraneche	2	Febrero	2023-08-02T00:00:00	2024-11-06T02:00:00	3	Temperatura mínima	8.6
7316	7	Sololá	701	Sololá	3	Barraneche	2	Febrero	2023-08-02T00:00:00	2024-11-06T02:00:00	5	Humedad	54
7317	7	Sololá	701	Sololá	3	Barraneche	2	Febrero	2023-08-02T00:00:00	2024-11-06T02:00:00	6	Velocidad del viento	8
7318	7	Sololá	701	Sololá	3	Barraneche	2	Febrero	2023-08-02T00:00:00	2024-11-06T02:00:00	7	Dirección del viento	8.05
7319	7	Sololá	701	Sololá	3	Barraneche	2	Febrero	2023-08-02T00:00:00	2024-11-06T02:00:00	1	Precipitación	0
7320	7	Sololá	701	Sololá	3	Barraneche	2	Febrero	2023-08-02T00:00:00	2024-11-06T02:00:00	8	Radiación solar	0
7321	7	Sololá	701	Sololá	3	Barraneche	2	Febrero	2023-08-02T00:00:00	2024-11-06T03:00:00	2	Temperatura media	8.4
7322	7	Sololá	701	Sololá	3	Barraneche	2	Febrero	2023-08-02T00:00:00	2024-11-06T03:00:00	4	Temperatura máxima	8.8
7323	7	Sololá	701	Sololá	3	Barraneche	2	Febrero	2023-08-02T00:00:00	2024-11-06T03:00:00	3	Temperatura mínima	8.3
7324	7	Sololá	701	Sololá	3	Barraneche	2	Febrero	2023-08-02T00:00:00	2024-11-06T03:00:00	5	Humedad	58
7325	7	Sololá	701	Sololá	3	Barraneche	2	Febrero	2023-08-02T00:00:00	2024-11-06T03:00:00	6	Velocidad del viento	6.4
7326	7	Sololá	701	Sololá	3	Barraneche	2	Febrero	2023-08-02T00:00:00	2024-11-06T03:00:00	7	Dirección del viento	6.44
7327	7	Sololá	701	Sololá	3	Barraneche	2	Febrero	2023-08-02T00:00:00	2024-11-06T03:00:00	1	Precipitación	0
7328	7	Sololá	701	Sololá	3	Barraneche	2	Febrero	2023-08-02T00:00:00	2024-11-06T03:00:00	8	Radiación solar	0
7329	7	Sololá	701	Sololá	3	Barraneche	2	Febrero	2023-08-02T00:00:00	2024-11-06T04:00:00	2	Temperatura media	7.9
7330	7	Sololá	701	Sololá	3	Barraneche	2	Febrero	2023-08-02T00:00:00	2024-11-06T04:00:00	4	Temperatura máxima	8.4
7331	7	Sololá	701	Sololá	3	Barraneche	2	Febrero	2023-08-02T00:00:00	2024-11-06T04:00:00	3	Temperatura mínima	7.9
7332	7	Sololá	701	Sololá	3	Barraneche	2	Febrero	2023-08-02T00:00:00	2024-11-06T04:00:00	5	Humedad	61
7333	7	Sololá	701	Sololá	3	Barraneche	2	Febrero	2023-08-02T00:00:00	2024-11-06T04:00:00	6	Velocidad del viento	6.4
7334	7	Sololá	701	Sololá	3	Barraneche	2	Febrero	2023-08-02T00:00:00	2024-11-06T04:00:00	7	Dirección del viento	6.44
7335	7	Sololá	701	Sololá	3	Barraneche	2	Febrero	2023-08-02T00:00:00	2024-11-06T04:00:00	1	Precipitación	0
7336	7	Sololá	701	Sololá	3	Barraneche	2	Febrero	2023-08-02T00:00:00	2024-11-06T04:00:00	8	Radiación solar	0
7337	7	Sololá	701	Sololá	3	Barraneche	2	Febrero	2023-08-02T00:00:00	2024-11-06T05:00:00	2	Temperatura media	7.9
7338	7	Sololá	701	Sololá	3	Barraneche	2	Febrero	2023-08-02T00:00:00	2024-11-06T05:00:00	4	Temperatura máxima	8.4
7339	7	Sololá	701	Sololá	3	Barraneche	2	Febrero	2023-08-02T00:00:00	2024-11-06T05:00:00	3	Temperatura mínima	7.7
7340	7	Sololá	701	Sololá	3	Barraneche	2	Febrero	2023-08-02T00:00:00	2024-11-06T05:00:00	5	Humedad	58
7341	7	Sololá	701	Sololá	3	Barraneche	2	Febrero	2023-08-02T00:00:00	2024-11-06T05:00:00	6	Velocidad del viento	8
7342	7	Sololá	701	Sololá	3	Barraneche	2	Febrero	2023-08-02T00:00:00	2024-11-06T05:00:00	7	Dirección del viento	8.05
7343	7	Sololá	701	Sololá	3	Barraneche	2	Febrero	2023-08-02T00:00:00	2024-11-06T05:00:00	1	Precipitación	0
7344	7	Sololá	701	Sololá	3	Barraneche	2	Febrero	2023-08-02T00:00:00	2024-11-06T05:00:00	8	Radiación solar	0
7345	7	Sololá	701	Sololá	3	Barraneche	2	Febrero	2023-08-02T00:00:00	2024-11-06T06:00:00	2	Temperatura media	7.4
7346	7	Sololá	701	Sololá	3	Barraneche	2	Febrero	2023-08-02T00:00:00	2024-11-06T06:00:00	4	Temperatura máxima	8.2
7347	7	Sololá	701	Sololá	3	Barraneche	2	Febrero	2023-08-02T00:00:00	2024-11-06T06:00:00	3	Temperatura mínima	7.4
7348	7	Sololá	701	Sololá	3	Barraneche	2	Febrero	2023-08-02T00:00:00	2024-11-06T06:00:00	5	Humedad	53
7349	7	Sololá	701	Sololá	3	Barraneche	2	Febrero	2023-08-02T00:00:00	2024-11-06T06:00:00	6	Velocidad del viento	6.4
7350	7	Sololá	701	Sololá	3	Barraneche	2	Febrero	2023-08-02T00:00:00	2024-11-06T06:00:00	7	Dirección del viento	6.44
7351	7	Sololá	701	Sololá	3	Barraneche	2	Febrero	2023-08-02T00:00:00	2024-11-06T06:00:00	1	Precipitación	0
7352	7	Sololá	701	Sololá	3	Barraneche	2	Febrero	2023-08-02T00:00:00	2024-11-06T06:00:00	8	Radiación solar	0
7353	7	Sololá	701	Sololá	3	Barraneche	2	Febrero	2023-08-02T00:00:00	2024-11-06T07:00:00	2	Temperatura media	8.3
7354	7	Sololá	701	Sololá	3	Barraneche	2	Febrero	2023-08-02T00:00:00	2024-11-06T07:00:00	4	Temperatura máxima	8.4
7355	7	Sololá	701	Sololá	3	Barraneche	2	Febrero	2023-08-02T00:00:00	2024-11-06T07:00:00	3	Temperatura mínima	7.2
7356	7	Sololá	701	Sololá	3	Barraneche	2	Febrero	2023-08-02T00:00:00	2024-11-06T07:00:00	5	Humedad	47
7357	7	Sololá	701	Sololá	3	Barraneche	2	Febrero	2023-08-02T00:00:00	2024-11-06T07:00:00	6	Velocidad del viento	6.4
7358	7	Sololá	701	Sololá	3	Barraneche	2	Febrero	2023-08-02T00:00:00	2024-11-06T07:00:00	7	Dirección del viento	6.44
7359	7	Sololá	701	Sololá	3	Barraneche	2	Febrero	2023-08-02T00:00:00	2024-11-06T07:00:00	1	Precipitación	0
7360	7	Sololá	701	Sololá	3	Barraneche	2	Febrero	2023-08-02T00:00:00	2024-11-06T07:00:00	8	Radiación solar	5
7361	7	Sololá	701	Sololá	3	Barraneche	2	Febrero	2023-08-02T00:00:00	2024-11-06T08:00:00	2	Temperatura media	13
7362	7	Sololá	701	Sololá	3	Barraneche	2	Febrero	2023-08-02T00:00:00	2024-11-06T08:00:00	4	Temperatura máxima	13.1
7363	7	Sololá	701	Sololá	3	Barraneche	2	Febrero	2023-08-02T00:00:00	2024-11-06T08:00:00	3	Temperatura mínima	8.2
7364	7	Sololá	701	Sololá	3	Barraneche	2	Febrero	2023-08-02T00:00:00	2024-11-06T08:00:00	5	Humedad	40
7365	7	Sololá	701	Sololá	3	Barraneche	2	Febrero	2023-08-02T00:00:00	2024-11-06T08:00:00	6	Velocidad del viento	4.8
7366	7	Sololá	701	Sololá	3	Barraneche	2	Febrero	2023-08-02T00:00:00	2024-11-06T08:00:00	7	Dirección del viento	4.83
7367	7	Sololá	701	Sololá	3	Barraneche	2	Febrero	2023-08-02T00:00:00	2024-11-06T08:00:00	1	Precipitación	0
7368	7	Sololá	701	Sololá	3	Barraneche	2	Febrero	2023-08-02T00:00:00	2024-11-06T08:00:00	8	Radiación solar	164
7369	7	Sololá	701	Sololá	3	Barraneche	2	Febrero	2023-08-02T00:00:00	2024-11-06T09:00:00	2	Temperatura media	16.6
7370	7	Sololá	701	Sololá	3	Barraneche	2	Febrero	2023-08-02T00:00:00	2024-11-06T09:00:00	4	Temperatura máxima	16.6
7371	7	Sololá	701	Sololá	3	Barraneche	2	Febrero	2023-08-02T00:00:00	2024-11-06T09:00:00	3	Temperatura mínima	12.7
7372	7	Sololá	701	Sololá	3	Barraneche	2	Febrero	2023-08-02T00:00:00	2024-11-06T09:00:00	5	Humedad	32
7373	7	Sololá	701	Sololá	3	Barraneche	2	Febrero	2023-08-02T00:00:00	2024-11-06T09:00:00	6	Velocidad del viento	3.2
7374	7	Sololá	701	Sololá	3	Barraneche	2	Febrero	2023-08-02T00:00:00	2024-11-06T09:00:00	7	Dirección del viento	3.22
7375	7	Sololá	701	Sololá	3	Barraneche	2	Febrero	2023-08-02T00:00:00	2024-11-06T09:00:00	1	Precipitación	0
7376	7	Sololá	701	Sololá	3	Barraneche	2	Febrero	2023-08-02T00:00:00	2024-11-06T09:00:00	8	Radiación solar	431
7377	7	Sololá	701	Sololá	3	Barraneche	2	Febrero	2023-08-02T00:00:00	2024-11-06T10:00:00	2	Temperatura media	19.4
7378	7	Sololá	701	Sololá	3	Barraneche	2	Febrero	2023-08-02T00:00:00	2024-11-06T10:00:00	4	Temperatura máxima	19.4
7379	7	Sololá	701	Sololá	3	Barraneche	2	Febrero	2023-08-02T00:00:00	2024-11-06T10:00:00	3	Temperatura mínima	16.6
7380	7	Sololá	701	Sololá	3	Barraneche	2	Febrero	2023-08-02T00:00:00	2024-11-06T10:00:00	5	Humedad	25
7381	7	Sololá	701	Sololá	3	Barraneche	2	Febrero	2023-08-02T00:00:00	2024-11-06T10:00:00	6	Velocidad del viento	4.8
7382	7	Sololá	701	Sololá	3	Barraneche	2	Febrero	2023-08-02T00:00:00	2024-11-06T10:00:00	7	Dirección del viento	4.83
7383	7	Sololá	701	Sololá	3	Barraneche	2	Febrero	2023-08-02T00:00:00	2024-11-06T10:00:00	1	Precipitación	0
7384	7	Sololá	701	Sololá	3	Barraneche	2	Febrero	2023-08-02T00:00:00	2024-11-06T10:00:00	8	Radiación solar	653
7385	7	Sololá	701	Sololá	3	Barraneche	2	Febrero	2023-08-02T00:00:00	2024-11-06T11:00:00	2	Temperatura media	18.9
7386	7	Sololá	701	Sololá	3	Barraneche	2	Febrero	2023-08-02T00:00:00	2024-11-06T11:00:00	4	Temperatura máxima	19.5
7387	7	Sololá	701	Sololá	3	Barraneche	2	Febrero	2023-08-02T00:00:00	2024-11-06T11:00:00	3	Temperatura mínima	18.9
7388	7	Sololá	701	Sololá	3	Barraneche	2	Febrero	2023-08-02T00:00:00	2024-11-06T11:00:00	5	Humedad	21
7389	7	Sololá	701	Sololá	3	Barraneche	2	Febrero	2023-08-02T00:00:00	2024-11-06T11:00:00	6	Velocidad del viento	11.3
7390	7	Sololá	701	Sololá	3	Barraneche	2	Febrero	2023-08-02T00:00:00	2024-11-06T11:00:00	7	Dirección del viento	11.27
7391	7	Sololá	701	Sololá	3	Barraneche	2	Febrero	2023-08-02T00:00:00	2024-11-06T11:00:00	1	Precipitación	0
7392	7	Sololá	701	Sololá	3	Barraneche	2	Febrero	2023-08-02T00:00:00	2024-11-06T11:00:00	8	Radiación solar	823
7393	7	Sololá	701	Sololá	3	Barraneche	2	Febrero	2023-08-02T00:00:00	2024-11-06T12:00:00	2	Temperatura media	18.6
7394	7	Sololá	701	Sololá	3	Barraneche	2	Febrero	2023-08-02T00:00:00	2024-11-06T12:00:00	4	Temperatura máxima	19.3
7395	7	Sololá	701	Sololá	3	Barraneche	2	Febrero	2023-08-02T00:00:00	2024-11-06T12:00:00	3	Temperatura mínima	18.6
7396	7	Sololá	701	Sololá	3	Barraneche	2	Febrero	2023-08-02T00:00:00	2024-11-06T12:00:00	5	Humedad	29
7397	7	Sololá	701	Sololá	3	Barraneche	2	Febrero	2023-08-02T00:00:00	2024-11-06T12:00:00	6	Velocidad del viento	14.5
7398	7	Sololá	701	Sololá	3	Barraneche	2	Febrero	2023-08-02T00:00:00	2024-11-06T12:00:00	7	Dirección del viento	14.48
7399	7	Sololá	701	Sololá	3	Barraneche	2	Febrero	2023-08-02T00:00:00	2024-11-06T12:00:00	1	Precipitación	0
7400	7	Sololá	701	Sololá	3	Barraneche	2	Febrero	2023-08-02T00:00:00	2024-11-06T12:00:00	8	Radiación solar	917
7401	7	Sololá	701	Sololá	3	Barraneche	2	Febrero	2023-08-02T00:00:00	2024-11-06T13:00:00	2	Temperatura media	19.2
7402	7	Sololá	701	Sololá	3	Barraneche	2	Febrero	2023-08-02T00:00:00	2024-11-06T13:00:00	4	Temperatura máxima	20.9
7403	7	Sololá	701	Sololá	3	Barraneche	2	Febrero	2023-08-02T00:00:00	2024-11-06T13:00:00	3	Temperatura mínima	18.6
7404	7	Sololá	701	Sololá	3	Barraneche	2	Febrero	2023-08-02T00:00:00	2024-11-06T13:00:00	5	Humedad	32
7405	7	Sololá	701	Sololá	3	Barraneche	2	Febrero	2023-08-02T00:00:00	2024-11-06T13:00:00	6	Velocidad del viento	9.7
7406	7	Sololá	701	Sololá	3	Barraneche	2	Febrero	2023-08-02T00:00:00	2024-11-06T13:00:00	7	Dirección del viento	9.66
7407	7	Sololá	701	Sololá	3	Barraneche	2	Febrero	2023-08-02T00:00:00	2024-11-06T13:00:00	1	Precipitación	0
7408	7	Sololá	701	Sololá	3	Barraneche	2	Febrero	2023-08-02T00:00:00	2024-11-06T13:00:00	8	Radiación solar	954
7409	7	Sololá	701	Sololá	3	Barraneche	2	Febrero	2023-08-02T00:00:00	2024-11-06T14:00:00	2	Temperatura media	18.8
7410	7	Sololá	701	Sololá	3	Barraneche	2	Febrero	2023-08-02T00:00:00	2024-11-06T14:00:00	4	Temperatura máxima	19.6
7411	7	Sololá	701	Sololá	3	Barraneche	2	Febrero	2023-08-02T00:00:00	2024-11-06T14:00:00	3	Temperatura mínima	18.8
7412	7	Sololá	701	Sololá	3	Barraneche	2	Febrero	2023-08-02T00:00:00	2024-11-06T14:00:00	5	Humedad	36
7413	7	Sololá	701	Sololá	3	Barraneche	2	Febrero	2023-08-02T00:00:00	2024-11-06T14:00:00	6	Velocidad del viento	14.5
7414	7	Sololá	701	Sololá	3	Barraneche	2	Febrero	2023-08-02T00:00:00	2024-11-06T14:00:00	7	Dirección del viento	14.48
7415	7	Sololá	701	Sololá	3	Barraneche	2	Febrero	2023-08-02T00:00:00	2024-11-06T14:00:00	1	Precipitación	0
7416	7	Sololá	701	Sololá	3	Barraneche	2	Febrero	2023-08-02T00:00:00	2024-11-06T14:00:00	8	Radiación solar	923
7417	7	Sololá	701	Sololá	3	Barraneche	2	Febrero	2023-08-02T00:00:00	2024-11-06T15:00:00	2	Temperatura media	18.4
7418	7	Sololá	701	Sololá	3	Barraneche	2	Febrero	2023-08-02T00:00:00	2024-11-06T15:00:00	4	Temperatura máxima	19.7
7419	7	Sololá	701	Sololá	3	Barraneche	2	Febrero	2023-08-02T00:00:00	2024-11-06T15:00:00	3	Temperatura mínima	18.4
7420	7	Sololá	701	Sololá	3	Barraneche	2	Febrero	2023-08-02T00:00:00	2024-11-06T15:00:00	5	Humedad	47
7421	7	Sololá	701	Sololá	3	Barraneche	2	Febrero	2023-08-02T00:00:00	2024-11-06T15:00:00	6	Velocidad del viento	14.5
7422	7	Sololá	701	Sololá	3	Barraneche	2	Febrero	2023-08-02T00:00:00	2024-11-06T15:00:00	7	Dirección del viento	14.48
7423	7	Sololá	701	Sololá	3	Barraneche	2	Febrero	2023-08-02T00:00:00	2024-11-06T15:00:00	1	Precipitación	0
7424	7	Sololá	701	Sololá	3	Barraneche	2	Febrero	2023-08-02T00:00:00	2024-11-06T15:00:00	8	Radiación solar	901
7425	7	Sololá	701	Sololá	3	Barraneche	2	Febrero	2023-08-02T00:00:00	2024-11-06T16:00:00	2	Temperatura media	18
7426	7	Sololá	701	Sololá	3	Barraneche	2	Febrero	2023-08-02T00:00:00	2024-11-06T16:00:00	4	Temperatura máxima	18.3
7427	7	Sololá	701	Sololá	3	Barraneche	2	Febrero	2023-08-02T00:00:00	2024-11-06T16:00:00	3	Temperatura mínima	17.4
7428	7	Sololá	701	Sololá	3	Barraneche	2	Febrero	2023-08-02T00:00:00	2024-11-06T16:00:00	5	Humedad	55
7429	7	Sololá	701	Sololá	3	Barraneche	2	Febrero	2023-08-02T00:00:00	2024-11-06T16:00:00	6	Velocidad del viento	12.9
7430	7	Sololá	701	Sololá	3	Barraneche	2	Febrero	2023-08-02T00:00:00	2024-11-06T16:00:00	7	Dirección del viento	12.87
7431	7	Sololá	701	Sololá	3	Barraneche	2	Febrero	2023-08-02T00:00:00	2024-11-06T16:00:00	1	Precipitación	0
7432	7	Sololá	701	Sololá	3	Barraneche	2	Febrero	2023-08-02T00:00:00	2024-11-06T16:00:00	8	Radiación solar	599
7433	7	Sololá	701	Sololá	3	Barraneche	2	Febrero	2023-08-02T00:00:00	2024-11-06T17:00:00	2	Temperatura media	15.9
7434	7	Sololá	701	Sololá	3	Barraneche	2	Febrero	2023-08-02T00:00:00	2024-11-06T17:00:00	4	Temperatura máxima	18.1
7435	7	Sololá	701	Sololá	3	Barraneche	2	Febrero	2023-08-02T00:00:00	2024-11-06T17:00:00	3	Temperatura mínima	15.8
7436	7	Sololá	701	Sololá	3	Barraneche	2	Febrero	2023-08-02T00:00:00	2024-11-06T17:00:00	5	Humedad	66
7437	7	Sololá	701	Sololá	3	Barraneche	2	Febrero	2023-08-02T00:00:00	2024-11-06T17:00:00	6	Velocidad del viento	11.3
7438	7	Sololá	701	Sololá	3	Barraneche	2	Febrero	2023-08-02T00:00:00	2024-11-06T17:00:00	7	Dirección del viento	11.27
7439	7	Sololá	701	Sololá	3	Barraneche	2	Febrero	2023-08-02T00:00:00	2024-11-06T17:00:00	1	Precipitación	0
7440	7	Sololá	701	Sololá	3	Barraneche	2	Febrero	2023-08-02T00:00:00	2024-11-06T17:00:00	8	Radiación solar	249
7441	7	Sololá	701	Sololá	3	Barraneche	2	Febrero	2023-08-02T00:00:00	2024-11-06T18:00:00	2	Temperatura media	15.8
7442	7	Sololá	701	Sololá	3	Barraneche	2	Febrero	2023-08-02T00:00:00	2024-11-06T18:00:00	4	Temperatura máxima	16.1
7443	7	Sololá	701	Sololá	3	Barraneche	2	Febrero	2023-08-02T00:00:00	2024-11-06T18:00:00	3	Temperatura mínima	15.8
7444	7	Sololá	701	Sololá	3	Barraneche	2	Febrero	2023-08-02T00:00:00	2024-11-06T18:00:00	5	Humedad	55
7445	7	Sololá	701	Sololá	3	Barraneche	2	Febrero	2023-08-02T00:00:00	2024-11-06T18:00:00	6	Velocidad del viento	4.8
7446	7	Sololá	701	Sololá	3	Barraneche	2	Febrero	2023-08-02T00:00:00	2024-11-06T18:00:00	7	Dirección del viento	4.83
7447	7	Sololá	701	Sololá	3	Barraneche	2	Febrero	2023-08-02T00:00:00	2024-11-06T18:00:00	1	Precipitación	0
7448	7	Sololá	701	Sololá	3	Barraneche	2	Febrero	2023-08-02T00:00:00	2024-11-06T18:00:00	8	Radiación solar	33
7449	7	Sololá	701	Sololá	3	Barraneche	2	Febrero	2023-08-02T00:00:00	2024-11-06T19:00:00	2	Temperatura media	13.2
7450	7	Sololá	701	Sololá	3	Barraneche	2	Febrero	2023-08-02T00:00:00	2024-11-06T19:00:00	4	Temperatura máxima	15.8
7451	7	Sololá	701	Sololá	3	Barraneche	2	Febrero	2023-08-02T00:00:00	2024-11-06T19:00:00	3	Temperatura mínima	13.2
7452	7	Sololá	701	Sololá	3	Barraneche	2	Febrero	2023-08-02T00:00:00	2024-11-06T19:00:00	5	Humedad	57
7453	7	Sololá	701	Sololá	3	Barraneche	2	Febrero	2023-08-02T00:00:00	2024-11-06T19:00:00	6	Velocidad del viento	6.4
7454	7	Sololá	701	Sololá	3	Barraneche	2	Febrero	2023-08-02T00:00:00	2024-11-06T19:00:00	7	Dirección del viento	6.44
7455	7	Sololá	701	Sololá	3	Barraneche	2	Febrero	2023-08-02T00:00:00	2024-11-06T19:00:00	1	Precipitación	0
7456	7	Sololá	701	Sololá	3	Barraneche	2	Febrero	2023-08-02T00:00:00	2024-11-06T19:00:00	8	Radiación solar	0
7457	7	Sololá	701	Sololá	3	Barraneche	2	Febrero	2023-08-02T00:00:00	2024-11-06T20:00:00	2	Temperatura media	12.7
7458	7	Sololá	701	Sololá	3	Barraneche	2	Febrero	2023-08-02T00:00:00	2024-11-06T20:00:00	4	Temperatura máxima	13.4
7459	7	Sololá	701	Sololá	3	Barraneche	2	Febrero	2023-08-02T00:00:00	2024-11-06T20:00:00	3	Temperatura mínima	12.7
7460	7	Sololá	701	Sololá	3	Barraneche	2	Febrero	2023-08-02T00:00:00	2024-11-06T20:00:00	5	Humedad	65
7461	7	Sololá	701	Sololá	3	Barraneche	2	Febrero	2023-08-02T00:00:00	2024-11-06T20:00:00	6	Velocidad del viento	3.2
7462	7	Sololá	701	Sololá	3	Barraneche	2	Febrero	2023-08-02T00:00:00	2024-11-06T20:00:00	7	Dirección del viento	3.22
7463	7	Sololá	701	Sololá	3	Barraneche	2	Febrero	2023-08-02T00:00:00	2024-11-06T20:00:00	1	Precipitación	0
7464	7	Sololá	701	Sololá	3	Barraneche	2	Febrero	2023-08-02T00:00:00	2024-11-06T20:00:00	8	Radiación solar	0
7465	7	Sololá	701	Sololá	3	Barraneche	2	Febrero	2023-08-02T00:00:00	2024-11-06T21:00:00	2	Temperatura media	13.9
7466	7	Sololá	701	Sololá	3	Barraneche	2	Febrero	2023-08-02T00:00:00	2024-11-06T21:00:00	4	Temperatura máxima	14.1
7467	7	Sololá	701	Sololá	3	Barraneche	2	Febrero	2023-08-02T00:00:00	2024-11-06T21:00:00	3	Temperatura mínima	12.7
7468	7	Sololá	701	Sololá	3	Barraneche	2	Febrero	2023-08-02T00:00:00	2024-11-06T21:00:00	5	Humedad	63
7469	7	Sololá	701	Sololá	3	Barraneche	2	Febrero	2023-08-02T00:00:00	2024-11-06T21:00:00	6	Velocidad del viento	3.2
7470	7	Sololá	701	Sololá	3	Barraneche	2	Febrero	2023-08-02T00:00:00	2024-11-06T21:00:00	7	Dirección del viento	3.22
7471	7	Sololá	701	Sololá	3	Barraneche	2	Febrero	2023-08-02T00:00:00	2024-11-06T21:00:00	1	Precipitación	0
7472	7	Sololá	701	Sololá	3	Barraneche	2	Febrero	2023-08-02T00:00:00	2024-11-06T21:00:00	8	Radiación solar	0
7473	7	Sololá	701	Sololá	3	Barraneche	2	Febrero	2023-08-02T00:00:00	2024-11-06T22:00:00	2	Temperatura media	13.8
7474	7	Sololá	701	Sololá	3	Barraneche	2	Febrero	2023-08-02T00:00:00	2024-11-06T22:00:00	4	Temperatura máxima	14.1
7475	7	Sololá	701	Sololá	3	Barraneche	2	Febrero	2023-08-02T00:00:00	2024-11-06T22:00:00	3	Temperatura mínima	13.8
7476	7	Sololá	701	Sololá	3	Barraneche	2	Febrero	2023-08-02T00:00:00	2024-11-06T22:00:00	5	Humedad	64
7477	7	Sololá	701	Sololá	3	Barraneche	2	Febrero	2023-08-02T00:00:00	2024-11-06T22:00:00	6	Velocidad del viento	8
7478	7	Sololá	701	Sololá	3	Barraneche	2	Febrero	2023-08-02T00:00:00	2024-11-06T22:00:00	7	Dirección del viento	8.05
7479	7	Sololá	701	Sololá	3	Barraneche	2	Febrero	2023-08-02T00:00:00	2024-11-06T22:00:00	1	Precipitación	0
7480	7	Sololá	701	Sololá	3	Barraneche	2	Febrero	2023-08-02T00:00:00	2024-11-06T22:00:00	8	Radiación solar	0
7481	7	Sololá	701	Sololá	3	Barraneche	2	Febrero	2023-08-02T00:00:00	2024-11-06T23:00:00	2	Temperatura media	13.4
7482	7	Sololá	701	Sololá	3	Barraneche	2	Febrero	2023-08-02T00:00:00	2024-11-06T23:00:00	4	Temperatura máxima	13.9
7483	7	Sololá	701	Sololá	3	Barraneche	2	Febrero	2023-08-02T00:00:00	2024-11-06T23:00:00	3	Temperatura mínima	13.4
7484	7	Sololá	701	Sololá	3	Barraneche	2	Febrero	2023-08-02T00:00:00	2024-11-06T23:00:00	5	Humedad	62
7485	7	Sololá	701	Sololá	3	Barraneche	2	Febrero	2023-08-02T00:00:00	2024-11-06T23:00:00	6	Velocidad del viento	11.3
7486	7	Sololá	701	Sololá	3	Barraneche	2	Febrero	2023-08-02T00:00:00	2024-11-06T23:00:00	7	Dirección del viento	11.27
7487	7	Sololá	701	Sololá	3	Barraneche	2	Febrero	2023-08-02T00:00:00	2024-11-06T23:00:00	1	Precipitación	0
7488	7	Sololá	701	Sololá	3	Barraneche	2	Febrero	2023-08-02T00:00:00	2024-11-06T23:00:00	8	Radiación solar	0
7489	7	Sololá	701	Sololá	3	Barraneche	2	Febrero	2023-09-02T00:00:00	2024-11-06T00:00:00	2	Temperatura media	11.8
7490	7	Sololá	701	Sololá	3	Barraneche	2	Febrero	2023-09-02T00:00:00	2024-11-06T00:00:00	4	Temperatura máxima	13.4
7491	7	Sololá	701	Sololá	3	Barraneche	2	Febrero	2023-09-02T00:00:00	2024-11-06T00:00:00	3	Temperatura mínima	11.8
7492	7	Sololá	701	Sololá	3	Barraneche	2	Febrero	2023-09-02T00:00:00	2024-11-06T00:00:00	5	Humedad	64
7493	7	Sololá	701	Sololá	3	Barraneche	2	Febrero	2023-09-02T00:00:00	2024-11-06T00:00:00	6	Velocidad del viento	4.8
7494	7	Sololá	701	Sololá	3	Barraneche	2	Febrero	2023-09-02T00:00:00	2024-11-06T00:00:00	7	Dirección del viento	4.83
7495	7	Sololá	701	Sololá	3	Barraneche	2	Febrero	2023-09-02T00:00:00	2024-11-06T00:00:00	1	Precipitación	0
7496	7	Sololá	701	Sololá	3	Barraneche	2	Febrero	2023-09-02T00:00:00	2024-11-06T00:00:00	8	Radiación solar	0
7497	7	Sololá	701	Sololá	3	Barraneche	2	Febrero	2023-09-02T00:00:00	2024-11-06T01:00:00	2	Temperatura media	11.2
7498	7	Sololá	701	Sololá	3	Barraneche	2	Febrero	2023-09-02T00:00:00	2024-11-06T01:00:00	4	Temperatura máxima	11.8
7499	7	Sololá	701	Sololá	3	Barraneche	2	Febrero	2023-09-02T00:00:00	2024-11-06T01:00:00	3	Temperatura mínima	10.9
7500	7	Sololá	701	Sololá	3	Barraneche	2	Febrero	2023-09-02T00:00:00	2024-11-06T01:00:00	5	Humedad	63
7501	7	Sololá	701	Sololá	3	Barraneche	2	Febrero	2023-09-02T00:00:00	2024-11-06T01:00:00	6	Velocidad del viento	6.4
7502	7	Sololá	701	Sololá	3	Barraneche	2	Febrero	2023-09-02T00:00:00	2024-11-06T01:00:00	7	Dirección del viento	6.44
7503	7	Sololá	701	Sololá	3	Barraneche	2	Febrero	2023-09-02T00:00:00	2024-11-06T01:00:00	1	Precipitación	0
7504	7	Sololá	701	Sololá	3	Barraneche	2	Febrero	2023-09-02T00:00:00	2024-11-06T01:00:00	8	Radiación solar	0
7505	7	Sololá	701	Sololá	3	Barraneche	2	Febrero	2023-09-02T00:00:00	2024-11-06T02:00:00	2	Temperatura media	12.3
7506	7	Sololá	701	Sololá	3	Barraneche	2	Febrero	2023-09-02T00:00:00	2024-11-06T02:00:00	4	Temperatura máxima	12.3
7507	7	Sololá	701	Sololá	3	Barraneche	2	Febrero	2023-09-02T00:00:00	2024-11-06T02:00:00	3	Temperatura mínima	11.2
7508	7	Sololá	701	Sololá	3	Barraneche	2	Febrero	2023-09-02T00:00:00	2024-11-06T02:00:00	5	Humedad	60
7509	7	Sololá	701	Sololá	3	Barraneche	2	Febrero	2023-09-02T00:00:00	2024-11-06T02:00:00	6	Velocidad del viento	6.4
7510	7	Sololá	701	Sololá	3	Barraneche	2	Febrero	2023-09-02T00:00:00	2024-11-06T02:00:00	7	Dirección del viento	6.44
7511	7	Sololá	701	Sololá	3	Barraneche	2	Febrero	2023-09-02T00:00:00	2024-11-06T02:00:00	1	Precipitación	0
7512	7	Sololá	701	Sololá	3	Barraneche	2	Febrero	2023-09-02T00:00:00	2024-11-06T02:00:00	8	Radiación solar	0
7513	7	Sololá	701	Sololá	3	Barraneche	2	Febrero	2023-09-02T00:00:00	2024-11-06T03:00:00	2	Temperatura media	11.6
7514	7	Sololá	701	Sololá	3	Barraneche	2	Febrero	2023-09-02T00:00:00	2024-11-06T03:00:00	4	Temperatura máxima	12.4
7515	7	Sololá	701	Sololá	3	Barraneche	2	Febrero	2023-09-02T00:00:00	2024-11-06T03:00:00	3	Temperatura mínima	11.6
7516	7	Sololá	701	Sololá	3	Barraneche	2	Febrero	2023-09-02T00:00:00	2024-11-06T03:00:00	5	Humedad	59
7517	7	Sololá	701	Sololá	3	Barraneche	2	Febrero	2023-09-02T00:00:00	2024-11-06T03:00:00	6	Velocidad del viento	6.4
7518	7	Sololá	701	Sololá	3	Barraneche	2	Febrero	2023-09-02T00:00:00	2024-11-06T03:00:00	7	Dirección del viento	6.44
7519	7	Sololá	701	Sololá	3	Barraneche	2	Febrero	2023-09-02T00:00:00	2024-11-06T03:00:00	1	Precipitación	0
7520	7	Sololá	701	Sololá	3	Barraneche	2	Febrero	2023-09-02T00:00:00	2024-11-06T03:00:00	8	Radiación solar	0
7521	7	Sololá	701	Sololá	3	Barraneche	2	Febrero	2023-09-02T00:00:00	2024-11-06T04:00:00	2	Temperatura media	11.8
7522	7	Sololá	701	Sololá	3	Barraneche	2	Febrero	2023-09-02T00:00:00	2024-11-06T04:00:00	4	Temperatura máxima	12.3
7523	7	Sololá	701	Sololá	3	Barraneche	2	Febrero	2023-09-02T00:00:00	2024-11-06T04:00:00	3	Temperatura mínima	11.3
7524	7	Sololá	701	Sololá	3	Barraneche	2	Febrero	2023-09-02T00:00:00	2024-11-06T04:00:00	5	Humedad	56
7525	7	Sololá	701	Sololá	3	Barraneche	2	Febrero	2023-09-02T00:00:00	2024-11-06T04:00:00	6	Velocidad del viento	8
7526	7	Sololá	701	Sololá	3	Barraneche	2	Febrero	2023-09-02T00:00:00	2024-11-06T04:00:00	7	Dirección del viento	8.05
7527	7	Sololá	701	Sololá	3	Barraneche	2	Febrero	2023-09-02T00:00:00	2024-11-06T04:00:00	1	Precipitación	0
7528	7	Sololá	701	Sololá	3	Barraneche	2	Febrero	2023-09-02T00:00:00	2024-11-06T04:00:00	8	Radiación solar	0
7529	7	Sololá	701	Sololá	3	Barraneche	2	Febrero	2023-09-02T00:00:00	2024-11-06T05:00:00	2	Temperatura media	10.5
7530	7	Sololá	701	Sololá	3	Barraneche	2	Febrero	2023-09-02T00:00:00	2024-11-06T05:00:00	4	Temperatura máxima	11.8
7531	7	Sololá	701	Sololá	3	Barraneche	2	Febrero	2023-09-02T00:00:00	2024-11-06T05:00:00	3	Temperatura mínima	10.5
7532	7	Sololá	701	Sololá	3	Barraneche	2	Febrero	2023-09-02T00:00:00	2024-11-06T05:00:00	5	Humedad	58
7533	7	Sololá	701	Sololá	3	Barraneche	2	Febrero	2023-09-02T00:00:00	2024-11-06T05:00:00	6	Velocidad del viento	8
7534	7	Sololá	701	Sololá	3	Barraneche	2	Febrero	2023-09-02T00:00:00	2024-11-06T05:00:00	7	Dirección del viento	8.05
7535	7	Sololá	701	Sololá	3	Barraneche	2	Febrero	2023-09-02T00:00:00	2024-11-06T05:00:00	1	Precipitación	0
7536	7	Sololá	701	Sololá	3	Barraneche	2	Febrero	2023-09-02T00:00:00	2024-11-06T05:00:00	8	Radiación solar	0
7537	7	Sololá	701	Sololá	3	Barraneche	2	Febrero	2023-09-02T00:00:00	2024-11-06T06:00:00	2	Temperatura media	10.1
7538	7	Sololá	701	Sololá	3	Barraneche	2	Febrero	2023-09-02T00:00:00	2024-11-06T06:00:00	4	Temperatura máxima	10.7
7539	7	Sololá	701	Sololá	3	Barraneche	2	Febrero	2023-09-02T00:00:00	2024-11-06T06:00:00	3	Temperatura mínima	10
7540	7	Sololá	701	Sololá	3	Barraneche	2	Febrero	2023-09-02T00:00:00	2024-11-06T06:00:00	5	Humedad	54
7541	7	Sololá	701	Sololá	3	Barraneche	2	Febrero	2023-09-02T00:00:00	2024-11-06T06:00:00	6	Velocidad del viento	8
7542	7	Sololá	701	Sololá	3	Barraneche	2	Febrero	2023-09-02T00:00:00	2024-11-06T06:00:00	7	Dirección del viento	8.05
7543	7	Sololá	701	Sololá	3	Barraneche	2	Febrero	2023-09-02T00:00:00	2024-11-06T06:00:00	1	Precipitación	0
7544	7	Sololá	701	Sololá	3	Barraneche	2	Febrero	2023-09-02T00:00:00	2024-11-06T06:00:00	8	Radiación solar	0
7545	7	Sololá	701	Sololá	3	Barraneche	2	Febrero	2023-09-02T00:00:00	2024-11-06T07:00:00	2	Temperatura media	9.9
7546	7	Sololá	701	Sololá	3	Barraneche	2	Febrero	2023-09-02T00:00:00	2024-11-06T07:00:00	4	Temperatura máxima	10.4
7547	7	Sololá	701	Sololá	3	Barraneche	2	Febrero	2023-09-02T00:00:00	2024-11-06T07:00:00	3	Temperatura mínima	9.4
7548	7	Sololá	701	Sololá	3	Barraneche	2	Febrero	2023-09-02T00:00:00	2024-11-06T07:00:00	5	Humedad	51
7549	7	Sololá	701	Sololá	3	Barraneche	2	Febrero	2023-09-02T00:00:00	2024-11-06T07:00:00	6	Velocidad del viento	6.4
7550	7	Sololá	701	Sololá	3	Barraneche	2	Febrero	2023-09-02T00:00:00	2024-11-06T07:00:00	7	Dirección del viento	6.44
7551	7	Sololá	701	Sololá	3	Barraneche	2	Febrero	2023-09-02T00:00:00	2024-11-06T07:00:00	1	Precipitación	0
7552	7	Sololá	701	Sololá	3	Barraneche	2	Febrero	2023-09-02T00:00:00	2024-11-06T07:00:00	8	Radiación solar	7
7553	7	Sololá	701	Sololá	3	Barraneche	2	Febrero	2023-09-02T00:00:00	2024-11-06T08:00:00	2	Temperatura media	15.4
7554	7	Sololá	701	Sololá	3	Barraneche	2	Febrero	2023-09-02T00:00:00	2024-11-06T08:00:00	4	Temperatura máxima	15.4
7555	7	Sololá	701	Sololá	3	Barraneche	2	Febrero	2023-09-02T00:00:00	2024-11-06T08:00:00	3	Temperatura mínima	9.9
7556	7	Sololá	701	Sololá	3	Barraneche	2	Febrero	2023-09-02T00:00:00	2024-11-06T08:00:00	5	Humedad	31
7557	7	Sololá	701	Sololá	3	Barraneche	2	Febrero	2023-09-02T00:00:00	2024-11-06T08:00:00	6	Velocidad del viento	6.4
7558	7	Sololá	701	Sololá	3	Barraneche	2	Febrero	2023-09-02T00:00:00	2024-11-06T08:00:00	7	Dirección del viento	6.44
7559	7	Sololá	701	Sololá	3	Barraneche	2	Febrero	2023-09-02T00:00:00	2024-11-06T08:00:00	1	Precipitación	0
7560	7	Sololá	701	Sololá	3	Barraneche	2	Febrero	2023-09-02T00:00:00	2024-11-06T08:00:00	8	Radiación solar	167
7561	7	Sololá	701	Sololá	3	Barraneche	2	Febrero	2023-09-02T00:00:00	2024-11-06T09:00:00	2	Temperatura media	16.9
7562	7	Sololá	701	Sololá	3	Barraneche	2	Febrero	2023-09-02T00:00:00	2024-11-06T09:00:00	4	Temperatura máxima	17.2
7563	7	Sololá	701	Sololá	3	Barraneche	2	Febrero	2023-09-02T00:00:00	2024-11-06T09:00:00	3	Temperatura mínima	15.4
7564	7	Sololá	701	Sololá	3	Barraneche	2	Febrero	2023-09-02T00:00:00	2024-11-06T09:00:00	5	Humedad	25
7565	7	Sololá	701	Sololá	3	Barraneche	2	Febrero	2023-09-02T00:00:00	2024-11-06T09:00:00	6	Velocidad del viento	8
7566	7	Sololá	701	Sololá	3	Barraneche	2	Febrero	2023-09-02T00:00:00	2024-11-06T09:00:00	7	Dirección del viento	8.05
7567	7	Sololá	701	Sololá	3	Barraneche	2	Febrero	2023-09-02T00:00:00	2024-11-06T09:00:00	1	Precipitación	0
7568	7	Sololá	701	Sololá	3	Barraneche	2	Febrero	2023-09-02T00:00:00	2024-11-06T09:00:00	8	Radiación solar	445
7569	7	Sololá	701	Sololá	3	Barraneche	2	Febrero	2023-09-02T00:00:00	2024-11-06T10:00:00	2	Temperatura media	17.1
7570	7	Sololá	701	Sololá	3	Barraneche	2	Febrero	2023-09-02T00:00:00	2024-11-06T10:00:00	4	Temperatura máxima	17.7
7571	7	Sololá	701	Sololá	3	Barraneche	2	Febrero	2023-09-02T00:00:00	2024-11-06T10:00:00	3	Temperatura mínima	16.9
7572	7	Sololá	701	Sololá	3	Barraneche	2	Febrero	2023-09-02T00:00:00	2024-11-06T10:00:00	5	Humedad	24
7573	7	Sololá	701	Sololá	3	Barraneche	2	Febrero	2023-09-02T00:00:00	2024-11-06T10:00:00	6	Velocidad del viento	9.7
7574	7	Sololá	701	Sololá	3	Barraneche	2	Febrero	2023-09-02T00:00:00	2024-11-06T10:00:00	7	Dirección del viento	9.66
7575	7	Sololá	701	Sololá	3	Barraneche	2	Febrero	2023-09-02T00:00:00	2024-11-06T10:00:00	1	Precipitación	0
7576	7	Sololá	701	Sololá	3	Barraneche	2	Febrero	2023-09-02T00:00:00	2024-11-06T10:00:00	8	Radiación solar	677
7577	7	Sololá	701	Sololá	3	Barraneche	2	Febrero	2023-09-02T00:00:00	2024-11-06T11:00:00	2	Temperatura media	17.9
7578	7	Sololá	701	Sololá	3	Barraneche	2	Febrero	2023-09-02T00:00:00	2024-11-06T11:00:00	4	Temperatura máxima	18.2
7579	7	Sololá	701	Sololá	3	Barraneche	2	Febrero	2023-09-02T00:00:00	2024-11-06T11:00:00	3	Temperatura mínima	17.1
7580	7	Sololá	701	Sololá	3	Barraneche	2	Febrero	2023-09-02T00:00:00	2024-11-06T11:00:00	5	Humedad	33
7581	7	Sololá	701	Sololá	3	Barraneche	2	Febrero	2023-09-02T00:00:00	2024-11-06T11:00:00	6	Velocidad del viento	12.9
7582	7	Sololá	701	Sololá	3	Barraneche	2	Febrero	2023-09-02T00:00:00	2024-11-06T11:00:00	7	Dirección del viento	12.87
7583	7	Sololá	701	Sololá	3	Barraneche	2	Febrero	2023-09-02T00:00:00	2024-11-06T11:00:00	1	Precipitación	0
7584	7	Sololá	701	Sololá	3	Barraneche	2	Febrero	2023-09-02T00:00:00	2024-11-06T11:00:00	8	Radiación solar	839
7585	7	Sololá	701	Sololá	3	Barraneche	2	Febrero	2023-09-02T00:00:00	2024-11-06T12:00:00	2	Temperatura media	18.2
7586	7	Sololá	701	Sololá	3	Barraneche	2	Febrero	2023-09-02T00:00:00	2024-11-06T12:00:00	4	Temperatura máxima	19.1
7587	7	Sololá	701	Sololá	3	Barraneche	2	Febrero	2023-09-02T00:00:00	2024-11-06T12:00:00	3	Temperatura mínima	17.8
7588	7	Sololá	701	Sololá	3	Barraneche	2	Febrero	2023-09-02T00:00:00	2024-11-06T12:00:00	5	Humedad	30
7589	7	Sololá	701	Sololá	3	Barraneche	2	Febrero	2023-09-02T00:00:00	2024-11-06T12:00:00	6	Velocidad del viento	19.3
7590	7	Sololá	701	Sololá	3	Barraneche	2	Febrero	2023-09-02T00:00:00	2024-11-06T12:00:00	7	Dirección del viento	19.31
7591	7	Sololá	701	Sololá	3	Barraneche	2	Febrero	2023-09-02T00:00:00	2024-11-06T12:00:00	1	Precipitación	0
7592	7	Sololá	701	Sololá	3	Barraneche	2	Febrero	2023-09-02T00:00:00	2024-11-06T12:00:00	8	Radiación solar	931
7593	7	Sololá	701	Sololá	3	Barraneche	2	Febrero	2023-09-02T00:00:00	2024-11-06T13:00:00	2	Temperatura media	19.1
7594	7	Sololá	701	Sololá	3	Barraneche	2	Febrero	2023-09-02T00:00:00	2024-11-06T13:00:00	4	Temperatura máxima	19.7
7595	7	Sololá	701	Sololá	3	Barraneche	2	Febrero	2023-09-02T00:00:00	2024-11-06T13:00:00	3	Temperatura mínima	18.2
7596	7	Sololá	701	Sololá	3	Barraneche	2	Febrero	2023-09-02T00:00:00	2024-11-06T13:00:00	5	Humedad	24
7597	7	Sololá	701	Sololá	3	Barraneche	2	Febrero	2023-09-02T00:00:00	2024-11-06T13:00:00	6	Velocidad del viento	16.1
7598	7	Sololá	701	Sololá	3	Barraneche	2	Febrero	2023-09-02T00:00:00	2024-11-06T13:00:00	7	Dirección del viento	16.09
7599	7	Sololá	701	Sololá	3	Barraneche	2	Febrero	2023-09-02T00:00:00	2024-11-06T13:00:00	1	Precipitación	0
7600	7	Sololá	701	Sololá	3	Barraneche	2	Febrero	2023-09-02T00:00:00	2024-11-06T13:00:00	8	Radiación solar	960
7601	7	Sololá	701	Sololá	3	Barraneche	2	Febrero	2023-09-02T00:00:00	2024-11-06T14:00:00	2	Temperatura media	19.7
7602	7	Sololá	701	Sololá	3	Barraneche	2	Febrero	2023-09-02T00:00:00	2024-11-06T14:00:00	4	Temperatura máxima	20.1
7603	7	Sololá	701	Sololá	3	Barraneche	2	Febrero	2023-09-02T00:00:00	2024-11-06T14:00:00	3	Temperatura mínima	19.1
7604	7	Sololá	701	Sololá	3	Barraneche	2	Febrero	2023-09-02T00:00:00	2024-11-06T14:00:00	5	Humedad	27
7605	7	Sololá	701	Sololá	3	Barraneche	2	Febrero	2023-09-02T00:00:00	2024-11-06T14:00:00	6	Velocidad del viento	17.7
7606	7	Sololá	701	Sololá	3	Barraneche	2	Febrero	2023-09-02T00:00:00	2024-11-06T14:00:00	7	Dirección del viento	17.7
7607	7	Sololá	701	Sololá	3	Barraneche	2	Febrero	2023-09-02T00:00:00	2024-11-06T14:00:00	1	Precipitación	0
7608	7	Sololá	701	Sololá	3	Barraneche	2	Febrero	2023-09-02T00:00:00	2024-11-06T14:00:00	8	Radiación solar	905
7609	7	Sololá	701	Sololá	3	Barraneche	2	Febrero	2023-09-02T00:00:00	2024-11-06T15:00:00	2	Temperatura media	19.1
7610	7	Sololá	701	Sololá	3	Barraneche	2	Febrero	2023-09-02T00:00:00	2024-11-06T15:00:00	4	Temperatura máxima	19.8
7611	7	Sololá	701	Sololá	3	Barraneche	2	Febrero	2023-09-02T00:00:00	2024-11-06T15:00:00	3	Temperatura mínima	18.7
7612	7	Sololá	701	Sololá	3	Barraneche	2	Febrero	2023-09-02T00:00:00	2024-11-06T15:00:00	5	Humedad	33
7613	7	Sololá	701	Sololá	3	Barraneche	2	Febrero	2023-09-02T00:00:00	2024-11-06T15:00:00	6	Velocidad del viento	17.7
7614	7	Sololá	701	Sololá	3	Barraneche	2	Febrero	2023-09-02T00:00:00	2024-11-06T15:00:00	7	Dirección del viento	17.7
7615	7	Sololá	701	Sololá	3	Barraneche	2	Febrero	2023-09-02T00:00:00	2024-11-06T15:00:00	1	Precipitación	0
7616	7	Sololá	701	Sololá	3	Barraneche	2	Febrero	2023-09-02T00:00:00	2024-11-06T15:00:00	8	Radiación solar	775
7617	7	Sololá	701	Sololá	3	Barraneche	2	Febrero	2023-09-02T00:00:00	2024-11-06T16:00:00	2	Temperatura media	18.2
7618	7	Sololá	701	Sololá	3	Barraneche	2	Febrero	2023-09-02T00:00:00	2024-11-06T16:00:00	4	Temperatura máxima	19.2
7619	7	Sololá	701	Sololá	3	Barraneche	2	Febrero	2023-09-02T00:00:00	2024-11-06T16:00:00	3	Temperatura mínima	18.1
7620	7	Sololá	701	Sololá	3	Barraneche	2	Febrero	2023-09-02T00:00:00	2024-11-06T16:00:00	5	Humedad	36
7621	7	Sololá	701	Sololá	3	Barraneche	2	Febrero	2023-09-02T00:00:00	2024-11-06T16:00:00	6	Velocidad del viento	17.7
7622	7	Sololá	701	Sololá	3	Barraneche	2	Febrero	2023-09-02T00:00:00	2024-11-06T16:00:00	7	Dirección del viento	17.7
7623	7	Sololá	701	Sololá	3	Barraneche	2	Febrero	2023-09-02T00:00:00	2024-11-06T16:00:00	1	Precipitación	0
7624	7	Sololá	701	Sololá	3	Barraneche	2	Febrero	2023-09-02T00:00:00	2024-11-06T16:00:00	8	Radiación solar	590
7625	7	Sololá	701	Sololá	3	Barraneche	2	Febrero	2023-09-02T00:00:00	2024-11-06T17:00:00	2	Temperatura media	16.7
7626	7	Sololá	701	Sololá	3	Barraneche	2	Febrero	2023-09-02T00:00:00	2024-11-06T17:00:00	4	Temperatura máxima	18.4
7627	7	Sololá	701	Sololá	3	Barraneche	2	Febrero	2023-09-02T00:00:00	2024-11-06T17:00:00	3	Temperatura mínima	16.7
7628	7	Sololá	701	Sololá	3	Barraneche	2	Febrero	2023-09-02T00:00:00	2024-11-06T17:00:00	5	Humedad	41
7629	7	Sololá	701	Sololá	3	Barraneche	2	Febrero	2023-09-02T00:00:00	2024-11-06T17:00:00	6	Velocidad del viento	14.5
7630	7	Sololá	701	Sololá	3	Barraneche	2	Febrero	2023-09-02T00:00:00	2024-11-06T17:00:00	7	Dirección del viento	14.48
7631	7	Sololá	701	Sololá	3	Barraneche	2	Febrero	2023-09-02T00:00:00	2024-11-06T17:00:00	1	Precipitación	0
7632	7	Sololá	701	Sololá	3	Barraneche	2	Febrero	2023-09-02T00:00:00	2024-11-06T17:00:00	8	Radiación solar	335
7633	7	Sololá	701	Sololá	3	Barraneche	2	Febrero	2023-09-02T00:00:00	2024-11-06T18:00:00	2	Temperatura media	14.8
7634	7	Sololá	701	Sololá	3	Barraneche	2	Febrero	2023-09-02T00:00:00	2024-11-06T18:00:00	4	Temperatura máxima	16.7
7635	7	Sololá	701	Sololá	3	Barraneche	2	Febrero	2023-09-02T00:00:00	2024-11-06T18:00:00	3	Temperatura mínima	14.8
7636	7	Sololá	701	Sololá	3	Barraneche	2	Febrero	2023-09-02T00:00:00	2024-11-06T18:00:00	5	Humedad	42
7637	7	Sololá	701	Sololá	3	Barraneche	2	Febrero	2023-09-02T00:00:00	2024-11-06T18:00:00	6	Velocidad del viento	12.9
7638	7	Sololá	701	Sololá	3	Barraneche	2	Febrero	2023-09-02T00:00:00	2024-11-06T18:00:00	7	Dirección del viento	12.87
7639	7	Sololá	701	Sololá	3	Barraneche	2	Febrero	2023-09-02T00:00:00	2024-11-06T18:00:00	1	Precipitación	0
7640	7	Sololá	701	Sololá	3	Barraneche	2	Febrero	2023-09-02T00:00:00	2024-11-06T18:00:00	8	Radiación solar	81
7641	7	Sololá	701	Sololá	3	Barraneche	2	Febrero	2023-09-02T00:00:00	2024-11-06T19:00:00	2	Temperatura media	13.4
7642	7	Sololá	701	Sololá	3	Barraneche	2	Febrero	2023-09-02T00:00:00	2024-11-06T19:00:00	4	Temperatura máxima	14.8
7643	7	Sololá	701	Sololá	3	Barraneche	2	Febrero	2023-09-02T00:00:00	2024-11-06T19:00:00	3	Temperatura mínima	13.4
7644	7	Sololá	701	Sololá	3	Barraneche	2	Febrero	2023-09-02T00:00:00	2024-11-06T19:00:00	5	Humedad	44
7645	7	Sololá	701	Sololá	3	Barraneche	2	Febrero	2023-09-02T00:00:00	2024-11-06T19:00:00	6	Velocidad del viento	9.7
7646	7	Sololá	701	Sololá	3	Barraneche	2	Febrero	2023-09-02T00:00:00	2024-11-06T19:00:00	7	Dirección del viento	9.66
7647	7	Sololá	701	Sololá	3	Barraneche	2	Febrero	2023-09-02T00:00:00	2024-11-06T19:00:00	1	Precipitación	0
7648	7	Sololá	701	Sololá	3	Barraneche	2	Febrero	2023-09-02T00:00:00	2024-11-06T19:00:00	8	Radiación solar	0
7649	7	Sololá	701	Sololá	3	Barraneche	2	Febrero	2023-09-02T00:00:00	2024-11-06T20:00:00	2	Temperatura media	13.1
7650	7	Sololá	701	Sololá	3	Barraneche	2	Febrero	2023-09-02T00:00:00	2024-11-06T20:00:00	4	Temperatura máxima	13.5
7651	7	Sololá	701	Sololá	3	Barraneche	2	Febrero	2023-09-02T00:00:00	2024-11-06T20:00:00	3	Temperatura mínima	12.9
7652	7	Sololá	701	Sololá	3	Barraneche	2	Febrero	2023-09-02T00:00:00	2024-11-06T20:00:00	5	Humedad	53
7653	7	Sololá	701	Sololá	3	Barraneche	2	Febrero	2023-09-02T00:00:00	2024-11-06T20:00:00	6	Velocidad del viento	4.8
7654	7	Sololá	701	Sololá	3	Barraneche	2	Febrero	2023-09-02T00:00:00	2024-11-06T20:00:00	7	Dirección del viento	4.83
7655	7	Sololá	701	Sololá	3	Barraneche	2	Febrero	2023-09-02T00:00:00	2024-11-06T20:00:00	1	Precipitación	0
7656	7	Sololá	701	Sololá	3	Barraneche	2	Febrero	2023-09-02T00:00:00	2024-11-06T20:00:00	8	Radiación solar	0
7657	7	Sololá	701	Sololá	3	Barraneche	2	Febrero	2023-09-02T00:00:00	2024-11-06T21:00:00	2	Temperatura media	12.5
7658	7	Sololá	701	Sololá	3	Barraneche	2	Febrero	2023-09-02T00:00:00	2024-11-06T21:00:00	4	Temperatura máxima	13.1
7659	7	Sololá	701	Sololá	3	Barraneche	2	Febrero	2023-09-02T00:00:00	2024-11-06T21:00:00	3	Temperatura mínima	12.3
7660	7	Sololá	701	Sololá	3	Barraneche	2	Febrero	2023-09-02T00:00:00	2024-11-06T21:00:00	5	Humedad	59
7661	7	Sololá	701	Sololá	3	Barraneche	2	Febrero	2023-09-02T00:00:00	2024-11-06T21:00:00	6	Velocidad del viento	9.7
7662	7	Sololá	701	Sololá	3	Barraneche	2	Febrero	2023-09-02T00:00:00	2024-11-06T21:00:00	7	Dirección del viento	9.66
7663	7	Sololá	701	Sololá	3	Barraneche	2	Febrero	2023-09-02T00:00:00	2024-11-06T21:00:00	1	Precipitación	0
7664	7	Sololá	701	Sololá	3	Barraneche	2	Febrero	2023-09-02T00:00:00	2024-11-06T21:00:00	8	Radiación solar	0
7665	7	Sololá	701	Sololá	3	Barraneche	2	Febrero	2023-09-02T00:00:00	2024-11-06T22:00:00	2	Temperatura media	12.7
7666	7	Sololá	701	Sololá	3	Barraneche	2	Febrero	2023-09-02T00:00:00	2024-11-06T22:00:00	4	Temperatura máxima	12.8
7667	7	Sololá	701	Sololá	3	Barraneche	2	Febrero	2023-09-02T00:00:00	2024-11-06T22:00:00	3	Temperatura mínima	12.4
7668	7	Sololá	701	Sololá	3	Barraneche	2	Febrero	2023-09-02T00:00:00	2024-11-06T22:00:00	5	Humedad	53
7669	7	Sololá	701	Sololá	3	Barraneche	2	Febrero	2023-09-02T00:00:00	2024-11-06T22:00:00	6	Velocidad del viento	8
7670	7	Sololá	701	Sololá	3	Barraneche	2	Febrero	2023-09-02T00:00:00	2024-11-06T22:00:00	7	Dirección del viento	8.05
7671	7	Sololá	701	Sololá	3	Barraneche	2	Febrero	2023-09-02T00:00:00	2024-11-06T22:00:00	1	Precipitación	0
7672	7	Sololá	701	Sololá	3	Barraneche	2	Febrero	2023-09-02T00:00:00	2024-11-06T22:00:00	8	Radiación solar	0
7673	7	Sololá	701	Sololá	3	Barraneche	2	Febrero	2023-09-02T00:00:00	2024-11-06T23:00:00	2	Temperatura media	12.4
7674	7	Sololá	701	Sololá	3	Barraneche	2	Febrero	2023-09-02T00:00:00	2024-11-06T23:00:00	4	Temperatura máxima	13
7675	7	Sololá	701	Sololá	3	Barraneche	2	Febrero	2023-09-02T00:00:00	2024-11-06T23:00:00	3	Temperatura mínima	12.3
7676	7	Sololá	701	Sololá	3	Barraneche	2	Febrero	2023-09-02T00:00:00	2024-11-06T23:00:00	5	Humedad	62
7677	7	Sololá	701	Sololá	3	Barraneche	2	Febrero	2023-09-02T00:00:00	2024-11-06T23:00:00	6	Velocidad del viento	16.1
7678	7	Sololá	701	Sololá	3	Barraneche	2	Febrero	2023-09-02T00:00:00	2024-11-06T23:00:00	7	Dirección del viento	16.09
7679	7	Sololá	701	Sololá	3	Barraneche	2	Febrero	2023-09-02T00:00:00	2024-11-06T23:00:00	1	Precipitación	0
7680	7	Sololá	701	Sololá	3	Barraneche	2	Febrero	2023-09-02T00:00:00	2024-11-06T23:00:00	8	Radiación solar	0
7681	7	Sololá	701	Sololá	3	Barraneche	2	Febrero	2023-10-02T00:00:00	2024-11-06T00:00:00	2	Temperatura media	12.4
7682	7	Sololá	701	Sololá	3	Barraneche	2	Febrero	2023-10-02T00:00:00	2024-11-06T00:00:00	4	Temperatura máxima	12.5
7683	7	Sololá	701	Sololá	3	Barraneche	2	Febrero	2023-10-02T00:00:00	2024-11-06T00:00:00	3	Temperatura mínima	12.2
7684	7	Sololá	701	Sololá	3	Barraneche	2	Febrero	2023-10-02T00:00:00	2024-11-06T00:00:00	5	Humedad	57
7685	7	Sololá	701	Sololá	3	Barraneche	2	Febrero	2023-10-02T00:00:00	2024-11-06T00:00:00	6	Velocidad del viento	20.9
7686	7	Sololá	701	Sololá	3	Barraneche	2	Febrero	2023-10-02T00:00:00	2024-11-06T00:00:00	7	Dirección del viento	20.92
7687	7	Sololá	701	Sololá	3	Barraneche	2	Febrero	2023-10-02T00:00:00	2024-11-06T00:00:00	1	Precipitación	0
7688	7	Sololá	701	Sololá	3	Barraneche	2	Febrero	2023-10-02T00:00:00	2024-11-06T00:00:00	8	Radiación solar	0
7689	7	Sololá	701	Sololá	3	Barraneche	2	Febrero	2023-10-02T00:00:00	2024-11-06T01:00:00	2	Temperatura media	11.3
7690	7	Sololá	701	Sololá	3	Barraneche	2	Febrero	2023-10-02T00:00:00	2024-11-06T01:00:00	4	Temperatura máxima	12.6
7691	7	Sololá	701	Sololá	3	Barraneche	2	Febrero	2023-10-02T00:00:00	2024-11-06T01:00:00	3	Temperatura mínima	11.2
7692	7	Sololá	701	Sololá	3	Barraneche	2	Febrero	2023-10-02T00:00:00	2024-11-06T01:00:00	5	Humedad	59
7693	7	Sololá	701	Sololá	3	Barraneche	2	Febrero	2023-10-02T00:00:00	2024-11-06T01:00:00	6	Velocidad del viento	8
7694	7	Sololá	701	Sololá	3	Barraneche	2	Febrero	2023-10-02T00:00:00	2024-11-06T01:00:00	7	Dirección del viento	8.05
7695	7	Sololá	701	Sololá	3	Barraneche	2	Febrero	2023-10-02T00:00:00	2024-11-06T01:00:00	1	Precipitación	0
7696	7	Sololá	701	Sololá	3	Barraneche	2	Febrero	2023-10-02T00:00:00	2024-11-06T01:00:00	8	Radiación solar	0
7697	7	Sololá	701	Sololá	3	Barraneche	2	Febrero	2023-10-02T00:00:00	2024-11-06T02:00:00	2	Temperatura media	9.6
7698	7	Sololá	701	Sololá	3	Barraneche	2	Febrero	2023-10-02T00:00:00	2024-11-06T02:00:00	4	Temperatura máxima	11.9
7699	7	Sololá	701	Sololá	3	Barraneche	2	Febrero	2023-10-02T00:00:00	2024-11-06T02:00:00	3	Temperatura mínima	9.6
7700	7	Sololá	701	Sololá	3	Barraneche	2	Febrero	2023-10-02T00:00:00	2024-11-06T02:00:00	5	Humedad	61
7701	7	Sololá	701	Sololá	3	Barraneche	2	Febrero	2023-10-02T00:00:00	2024-11-06T02:00:00	6	Velocidad del viento	6.4
7702	7	Sololá	701	Sololá	3	Barraneche	2	Febrero	2023-10-02T00:00:00	2024-11-06T02:00:00	7	Dirección del viento	6.44
7703	7	Sololá	701	Sololá	3	Barraneche	2	Febrero	2023-10-02T00:00:00	2024-11-06T02:00:00	1	Precipitación	0
7704	7	Sololá	701	Sololá	3	Barraneche	2	Febrero	2023-10-02T00:00:00	2024-11-06T02:00:00	8	Radiación solar	0
7705	7	Sololá	701	Sololá	3	Barraneche	2	Febrero	2023-10-02T00:00:00	2024-11-06T03:00:00	2	Temperatura media	9.6
7706	7	Sololá	701	Sololá	3	Barraneche	2	Febrero	2023-10-02T00:00:00	2024-11-06T03:00:00	4	Temperatura máxima	9.7
7707	7	Sololá	701	Sololá	3	Barraneche	2	Febrero	2023-10-02T00:00:00	2024-11-06T03:00:00	3	Temperatura mínima	8.3
7708	7	Sololá	701	Sololá	3	Barraneche	2	Febrero	2023-10-02T00:00:00	2024-11-06T03:00:00	5	Humedad	58
7709	7	Sololá	701	Sololá	3	Barraneche	2	Febrero	2023-10-02T00:00:00	2024-11-06T03:00:00	6	Velocidad del viento	6.4
7710	7	Sololá	701	Sololá	3	Barraneche	2	Febrero	2023-10-02T00:00:00	2024-11-06T03:00:00	7	Dirección del viento	6.44
7711	7	Sololá	701	Sololá	3	Barraneche	2	Febrero	2023-10-02T00:00:00	2024-11-06T03:00:00	1	Precipitación	0
7712	7	Sololá	701	Sololá	3	Barraneche	2	Febrero	2023-10-02T00:00:00	2024-11-06T03:00:00	8	Radiación solar	0
7713	7	Sololá	701	Sololá	3	Barraneche	2	Febrero	2023-10-02T00:00:00	2024-11-06T04:00:00	2	Temperatura media	9.2
7714	7	Sololá	701	Sololá	3	Barraneche	2	Febrero	2023-10-02T00:00:00	2024-11-06T04:00:00	4	Temperatura máxima	10.9
7715	7	Sololá	701	Sololá	3	Barraneche	2	Febrero	2023-10-02T00:00:00	2024-11-06T04:00:00	3	Temperatura mínima	8.9
7716	7	Sololá	701	Sololá	3	Barraneche	2	Febrero	2023-10-02T00:00:00	2024-11-06T04:00:00	5	Humedad	59
7717	7	Sololá	701	Sololá	3	Barraneche	2	Febrero	2023-10-02T00:00:00	2024-11-06T04:00:00	6	Velocidad del viento	8
7718	7	Sololá	701	Sololá	3	Barraneche	2	Febrero	2023-10-02T00:00:00	2024-11-06T04:00:00	7	Dirección del viento	8.05
7719	7	Sololá	701	Sololá	3	Barraneche	2	Febrero	2023-10-02T00:00:00	2024-11-06T04:00:00	1	Precipitación	0
7720	7	Sololá	701	Sololá	3	Barraneche	2	Febrero	2023-10-02T00:00:00	2024-11-06T04:00:00	8	Radiación solar	0
7721	7	Sololá	701	Sololá	3	Barraneche	2	Febrero	2023-10-02T00:00:00	2024-11-06T05:00:00	2	Temperatura media	9.3
7722	7	Sololá	701	Sololá	3	Barraneche	2	Febrero	2023-10-02T00:00:00	2024-11-06T05:00:00	4	Temperatura máxima	9.4
7723	7	Sololá	701	Sololá	3	Barraneche	2	Febrero	2023-10-02T00:00:00	2024-11-06T05:00:00	3	Temperatura mínima	8.6
7724	7	Sololá	701	Sololá	3	Barraneche	2	Febrero	2023-10-02T00:00:00	2024-11-06T05:00:00	5	Humedad	59
7725	7	Sololá	701	Sololá	3	Barraneche	2	Febrero	2023-10-02T00:00:00	2024-11-06T05:00:00	6	Velocidad del viento	6.4
7726	7	Sololá	701	Sololá	3	Barraneche	2	Febrero	2023-10-02T00:00:00	2024-11-06T05:00:00	7	Dirección del viento	6.44
7727	7	Sololá	701	Sololá	3	Barraneche	2	Febrero	2023-10-02T00:00:00	2024-11-06T05:00:00	1	Precipitación	0
7728	7	Sololá	701	Sololá	3	Barraneche	2	Febrero	2023-10-02T00:00:00	2024-11-06T05:00:00	8	Radiación solar	0
7729	7	Sololá	701	Sololá	3	Barraneche	2	Febrero	2023-10-02T00:00:00	2024-11-06T06:00:00	2	Temperatura media	8.9
7730	7	Sololá	701	Sololá	3	Barraneche	2	Febrero	2023-10-02T00:00:00	2024-11-06T06:00:00	4	Temperatura máxima	9.7
7731	7	Sololá	701	Sololá	3	Barraneche	2	Febrero	2023-10-02T00:00:00	2024-11-06T06:00:00	3	Temperatura mínima	8.9
7732	7	Sololá	701	Sololá	3	Barraneche	2	Febrero	2023-10-02T00:00:00	2024-11-06T06:00:00	5	Humedad	56
7733	7	Sololá	701	Sololá	3	Barraneche	2	Febrero	2023-10-02T00:00:00	2024-11-06T06:00:00	6	Velocidad del viento	8
7734	7	Sololá	701	Sololá	3	Barraneche	2	Febrero	2023-10-02T00:00:00	2024-11-06T06:00:00	7	Dirección del viento	8.05
7735	7	Sololá	701	Sololá	3	Barraneche	2	Febrero	2023-10-02T00:00:00	2024-11-06T06:00:00	1	Precipitación	0
7736	7	Sololá	701	Sololá	3	Barraneche	2	Febrero	2023-10-02T00:00:00	2024-11-06T06:00:00	8	Radiación solar	0
7737	7	Sololá	701	Sololá	3	Barraneche	2	Febrero	2023-10-02T00:00:00	2024-11-06T07:00:00	2	Temperatura media	8.3
7738	7	Sololá	701	Sololá	3	Barraneche	2	Febrero	2023-10-02T00:00:00	2024-11-06T07:00:00	4	Temperatura máxima	9
7739	7	Sololá	701	Sololá	3	Barraneche	2	Febrero	2023-10-02T00:00:00	2024-11-06T07:00:00	3	Temperatura mínima	8.2
7740	7	Sololá	701	Sololá	3	Barraneche	2	Febrero	2023-10-02T00:00:00	2024-11-06T07:00:00	5	Humedad	52
7741	7	Sololá	701	Sololá	3	Barraneche	2	Febrero	2023-10-02T00:00:00	2024-11-06T07:00:00	6	Velocidad del viento	6.4
7742	7	Sololá	701	Sololá	3	Barraneche	2	Febrero	2023-10-02T00:00:00	2024-11-06T07:00:00	7	Dirección del viento	6.44
7743	7	Sololá	701	Sololá	3	Barraneche	2	Febrero	2023-10-02T00:00:00	2024-11-06T07:00:00	1	Precipitación	0
7744	7	Sololá	701	Sololá	3	Barraneche	2	Febrero	2023-10-02T00:00:00	2024-11-06T07:00:00	8	Radiación solar	6
7745	7	Sololá	701	Sololá	3	Barraneche	2	Febrero	2023-10-02T00:00:00	2024-11-06T08:00:00	2	Temperatura media	12.4
7746	7	Sololá	701	Sololá	3	Barraneche	2	Febrero	2023-10-02T00:00:00	2024-11-06T08:00:00	4	Temperatura máxima	12.4
7747	7	Sololá	701	Sololá	3	Barraneche	2	Febrero	2023-10-02T00:00:00	2024-11-06T08:00:00	3	Temperatura mínima	8.1
7748	7	Sololá	701	Sololá	3	Barraneche	2	Febrero	2023-10-02T00:00:00	2024-11-06T08:00:00	5	Humedad	45
7749	7	Sololá	701	Sololá	3	Barraneche	2	Febrero	2023-10-02T00:00:00	2024-11-06T08:00:00	6	Velocidad del viento	3.2
7750	7	Sololá	701	Sololá	3	Barraneche	2	Febrero	2023-10-02T00:00:00	2024-11-06T08:00:00	7	Dirección del viento	3.22
7751	7	Sololá	701	Sololá	3	Barraneche	2	Febrero	2023-10-02T00:00:00	2024-11-06T08:00:00	1	Precipitación	0
7752	7	Sololá	701	Sololá	3	Barraneche	2	Febrero	2023-10-02T00:00:00	2024-11-06T08:00:00	8	Radiación solar	173
7753	7	Sololá	701	Sololá	3	Barraneche	2	Febrero	2023-10-02T00:00:00	2024-11-06T09:00:00	2	Temperatura media	15.5
7754	7	Sololá	701	Sololá	3	Barraneche	2	Febrero	2023-10-02T00:00:00	2024-11-06T09:00:00	4	Temperatura máxima	15.5
7755	7	Sololá	701	Sololá	3	Barraneche	2	Febrero	2023-10-02T00:00:00	2024-11-06T09:00:00	3	Temperatura mínima	12.4
7756	7	Sololá	701	Sololá	3	Barraneche	2	Febrero	2023-10-02T00:00:00	2024-11-06T09:00:00	5	Humedad	37
7757	7	Sololá	701	Sololá	3	Barraneche	2	Febrero	2023-10-02T00:00:00	2024-11-06T09:00:00	6	Velocidad del viento	3.2
7758	7	Sololá	701	Sololá	3	Barraneche	2	Febrero	2023-10-02T00:00:00	2024-11-06T09:00:00	7	Dirección del viento	3.22
7759	7	Sololá	701	Sololá	3	Barraneche	2	Febrero	2023-10-02T00:00:00	2024-11-06T09:00:00	1	Precipitación	0
7760	7	Sololá	701	Sololá	3	Barraneche	2	Febrero	2023-10-02T00:00:00	2024-11-06T09:00:00	8	Radiación solar	451
7761	7	Sololá	701	Sololá	3	Barraneche	2	Febrero	2023-10-02T00:00:00	2024-11-06T10:00:00	2	Temperatura media	18.4
7762	7	Sololá	701	Sololá	3	Barraneche	2	Febrero	2023-10-02T00:00:00	2024-11-06T10:00:00	4	Temperatura máxima	18.4
7763	7	Sololá	701	Sololá	3	Barraneche	2	Febrero	2023-10-02T00:00:00	2024-11-06T10:00:00	3	Temperatura mínima	15.6
7764	7	Sololá	701	Sololá	3	Barraneche	2	Febrero	2023-10-02T00:00:00	2024-11-06T10:00:00	5	Humedad	23
7765	7	Sololá	701	Sololá	3	Barraneche	2	Febrero	2023-10-02T00:00:00	2024-11-06T10:00:00	6	Velocidad del viento	4.8
7766	7	Sololá	701	Sololá	3	Barraneche	2	Febrero	2023-10-02T00:00:00	2024-11-06T10:00:00	7	Dirección del viento	4.83
7767	7	Sololá	701	Sololá	3	Barraneche	2	Febrero	2023-10-02T00:00:00	2024-11-06T10:00:00	1	Precipitación	0
7768	7	Sololá	701	Sololá	3	Barraneche	2	Febrero	2023-10-02T00:00:00	2024-11-06T10:00:00	8	Radiación solar	681
7769	7	Sololá	701	Sololá	3	Barraneche	2	Febrero	2023-10-02T00:00:00	2024-11-06T11:00:00	2	Temperatura media	18.7
7770	7	Sololá	701	Sololá	3	Barraneche	2	Febrero	2023-10-02T00:00:00	2024-11-06T11:00:00	4	Temperatura máxima	18.9
7771	7	Sololá	701	Sololá	3	Barraneche	2	Febrero	2023-10-02T00:00:00	2024-11-06T11:00:00	3	Temperatura mínima	18.3
7772	7	Sololá	701	Sololá	3	Barraneche	2	Febrero	2023-10-02T00:00:00	2024-11-06T11:00:00	5	Humedad	26
7773	7	Sololá	701	Sololá	3	Barraneche	2	Febrero	2023-10-02T00:00:00	2024-11-06T11:00:00	6	Velocidad del viento	12.9
7774	7	Sololá	701	Sololá	3	Barraneche	2	Febrero	2023-10-02T00:00:00	2024-11-06T11:00:00	7	Dirección del viento	12.87
7775	7	Sololá	701	Sololá	3	Barraneche	2	Febrero	2023-10-02T00:00:00	2024-11-06T11:00:00	1	Precipitación	0
7776	7	Sololá	701	Sololá	3	Barraneche	2	Febrero	2023-10-02T00:00:00	2024-11-06T11:00:00	8	Radiación solar	846
7777	7	Sololá	701	Sololá	3	Barraneche	2	Febrero	2023-10-02T00:00:00	2024-11-06T12:00:00	2	Temperatura media	19.3
7778	7	Sololá	701	Sololá	3	Barraneche	2	Febrero	2023-10-02T00:00:00	2024-11-06T12:00:00	4	Temperatura máxima	19.3
7779	7	Sololá	701	Sololá	3	Barraneche	2	Febrero	2023-10-02T00:00:00	2024-11-06T12:00:00	3	Temperatura mínima	18.3
7780	7	Sololá	701	Sololá	3	Barraneche	2	Febrero	2023-10-02T00:00:00	2024-11-06T12:00:00	5	Humedad	33
7781	7	Sololá	701	Sololá	3	Barraneche	2	Febrero	2023-10-02T00:00:00	2024-11-06T12:00:00	6	Velocidad del viento	16.1
7782	7	Sololá	701	Sololá	3	Barraneche	2	Febrero	2023-10-02T00:00:00	2024-11-06T12:00:00	7	Dirección del viento	16.09
7783	7	Sololá	701	Sololá	3	Barraneche	2	Febrero	2023-10-02T00:00:00	2024-11-06T12:00:00	1	Precipitación	0
7784	7	Sololá	701	Sololá	3	Barraneche	2	Febrero	2023-10-02T00:00:00	2024-11-06T12:00:00	8	Radiación solar	937
7785	7	Sololá	701	Sololá	3	Barraneche	2	Febrero	2023-10-02T00:00:00	2024-11-06T13:00:00	2	Temperatura media	19.3
7786	7	Sololá	701	Sololá	3	Barraneche	2	Febrero	2023-10-02T00:00:00	2024-11-06T13:00:00	4	Temperatura máxima	20.1
7787	7	Sololá	701	Sololá	3	Barraneche	2	Febrero	2023-10-02T00:00:00	2024-11-06T13:00:00	3	Temperatura mínima	19
7788	7	Sololá	701	Sololá	3	Barraneche	2	Febrero	2023-10-02T00:00:00	2024-11-06T13:00:00	5	Humedad	28
7789	7	Sololá	701	Sololá	3	Barraneche	2	Febrero	2023-10-02T00:00:00	2024-11-06T13:00:00	6	Velocidad del viento	11.3
7790	7	Sololá	701	Sololá	3	Barraneche	2	Febrero	2023-10-02T00:00:00	2024-11-06T13:00:00	7	Dirección del viento	11.27
7791	7	Sololá	701	Sololá	3	Barraneche	2	Febrero	2023-10-02T00:00:00	2024-11-06T13:00:00	1	Precipitación	0
7792	7	Sololá	701	Sololá	3	Barraneche	2	Febrero	2023-10-02T00:00:00	2024-11-06T13:00:00	8	Radiación solar	954
7793	7	Sololá	701	Sololá	3	Barraneche	2	Febrero	2023-10-02T00:00:00	2024-11-06T14:00:00	2	Temperatura media	19.6
7794	7	Sololá	701	Sololá	3	Barraneche	2	Febrero	2023-10-02T00:00:00	2024-11-06T14:00:00	4	Temperatura máxima	20.2
7795	7	Sololá	701	Sololá	3	Barraneche	2	Febrero	2023-10-02T00:00:00	2024-11-06T14:00:00	3	Temperatura mínima	18.9
7796	7	Sololá	701	Sololá	3	Barraneche	2	Febrero	2023-10-02T00:00:00	2024-11-06T14:00:00	5	Humedad	37
7797	7	Sololá	701	Sololá	3	Barraneche	2	Febrero	2023-10-02T00:00:00	2024-11-06T14:00:00	6	Velocidad del viento	12.9
7798	7	Sololá	701	Sololá	3	Barraneche	2	Febrero	2023-10-02T00:00:00	2024-11-06T14:00:00	7	Dirección del viento	12.87
7799	7	Sololá	701	Sololá	3	Barraneche	2	Febrero	2023-10-02T00:00:00	2024-11-06T14:00:00	1	Precipitación	0
7800	7	Sololá	701	Sololá	3	Barraneche	2	Febrero	2023-10-02T00:00:00	2024-11-06T14:00:00	8	Radiación solar	915
7801	7	Sololá	701	Sololá	3	Barraneche	2	Febrero	2023-10-02T00:00:00	2024-11-06T15:00:00	2	Temperatura media	18.2
7802	7	Sololá	701	Sololá	3	Barraneche	2	Febrero	2023-10-02T00:00:00	2024-11-06T15:00:00	4	Temperatura máxima	19.6
7803	7	Sololá	701	Sololá	3	Barraneche	2	Febrero	2023-10-02T00:00:00	2024-11-06T15:00:00	3	Temperatura mínima	17.9
7804	7	Sololá	701	Sololá	3	Barraneche	2	Febrero	2023-10-02T00:00:00	2024-11-06T15:00:00	5	Humedad	56
7805	7	Sololá	701	Sololá	3	Barraneche	2	Febrero	2023-10-02T00:00:00	2024-11-06T15:00:00	6	Velocidad del viento	17.7
7806	7	Sololá	701	Sololá	3	Barraneche	2	Febrero	2023-10-02T00:00:00	2024-11-06T15:00:00	7	Dirección del viento	17.7
7807	7	Sololá	701	Sololá	3	Barraneche	2	Febrero	2023-10-02T00:00:00	2024-11-06T15:00:00	1	Precipitación	0
7808	7	Sololá	701	Sololá	3	Barraneche	2	Febrero	2023-10-02T00:00:00	2024-11-06T15:00:00	8	Radiación solar	840
7809	7	Sololá	701	Sololá	3	Barraneche	2	Febrero	2023-10-02T00:00:00	2024-11-06T16:00:00	2	Temperatura media	18.8
7810	7	Sololá	701	Sololá	3	Barraneche	2	Febrero	2023-10-02T00:00:00	2024-11-06T16:00:00	4	Temperatura máxima	18.8
7811	7	Sololá	701	Sololá	3	Barraneche	2	Febrero	2023-10-02T00:00:00	2024-11-06T16:00:00	3	Temperatura mínima	17.9
7812	7	Sololá	701	Sololá	3	Barraneche	2	Febrero	2023-10-02T00:00:00	2024-11-06T16:00:00	5	Humedad	41
7813	7	Sololá	701	Sololá	3	Barraneche	2	Febrero	2023-10-02T00:00:00	2024-11-06T16:00:00	6	Velocidad del viento	12.9
7814	7	Sololá	701	Sololá	3	Barraneche	2	Febrero	2023-10-02T00:00:00	2024-11-06T16:00:00	7	Dirección del viento	12.87
7815	7	Sololá	701	Sololá	3	Barraneche	2	Febrero	2023-10-02T00:00:00	2024-11-06T16:00:00	1	Precipitación	0
7816	7	Sololá	701	Sololá	3	Barraneche	2	Febrero	2023-10-02T00:00:00	2024-11-06T16:00:00	8	Radiación solar	432
7817	7	Sololá	701	Sololá	3	Barraneche	2	Febrero	2023-10-02T00:00:00	2024-11-06T17:00:00	2	Temperatura media	17.1
7818	7	Sololá	701	Sololá	3	Barraneche	2	Febrero	2023-10-02T00:00:00	2024-11-06T17:00:00	4	Temperatura máxima	18.8
7819	7	Sololá	701	Sololá	3	Barraneche	2	Febrero	2023-10-02T00:00:00	2024-11-06T17:00:00	3	Temperatura mínima	17
7820	7	Sololá	701	Sololá	3	Barraneche	2	Febrero	2023-10-02T00:00:00	2024-11-06T17:00:00	5	Humedad	49
7821	7	Sololá	701	Sololá	3	Barraneche	2	Febrero	2023-10-02T00:00:00	2024-11-06T17:00:00	6	Velocidad del viento	14.5
7822	7	Sololá	701	Sololá	3	Barraneche	2	Febrero	2023-10-02T00:00:00	2024-11-06T17:00:00	7	Dirección del viento	14.48
7823	7	Sololá	701	Sololá	3	Barraneche	2	Febrero	2023-10-02T00:00:00	2024-11-06T17:00:00	1	Precipitación	0
7824	7	Sololá	701	Sololá	3	Barraneche	2	Febrero	2023-10-02T00:00:00	2024-11-06T17:00:00	8	Radiación solar	344
7825	7	Sololá	701	Sololá	3	Barraneche	2	Febrero	2023-10-02T00:00:00	2024-11-06T18:00:00	2	Temperatura media	15.4
7826	7	Sololá	701	Sololá	3	Barraneche	2	Febrero	2023-10-02T00:00:00	2024-11-06T18:00:00	4	Temperatura máxima	17.1
7827	7	Sololá	701	Sololá	3	Barraneche	2	Febrero	2023-10-02T00:00:00	2024-11-06T18:00:00	3	Temperatura mínima	15.4
7828	7	Sololá	701	Sololá	3	Barraneche	2	Febrero	2023-10-02T00:00:00	2024-11-06T18:00:00	5	Humedad	55
7829	7	Sololá	701	Sololá	3	Barraneche	2	Febrero	2023-10-02T00:00:00	2024-11-06T18:00:00	6	Velocidad del viento	8
7830	7	Sololá	701	Sololá	3	Barraneche	2	Febrero	2023-10-02T00:00:00	2024-11-06T18:00:00	7	Dirección del viento	8.05
7831	7	Sololá	701	Sololá	3	Barraneche	2	Febrero	2023-10-02T00:00:00	2024-11-06T18:00:00	1	Precipitación	0
7832	7	Sololá	701	Sololá	3	Barraneche	2	Febrero	2023-10-02T00:00:00	2024-11-06T18:00:00	8	Radiación solar	87
7833	7	Sololá	701	Sololá	3	Barraneche	2	Febrero	2023-10-02T00:00:00	2024-11-06T19:00:00	2	Temperatura media	14.3
7834	7	Sololá	701	Sololá	3	Barraneche	2	Febrero	2023-10-02T00:00:00	2024-11-06T19:00:00	4	Temperatura máxima	15.4
7835	7	Sololá	701	Sololá	3	Barraneche	2	Febrero	2023-10-02T00:00:00	2024-11-06T19:00:00	3	Temperatura mínima	14.3
7836	7	Sololá	701	Sololá	3	Barraneche	2	Febrero	2023-10-02T00:00:00	2024-11-06T19:00:00	5	Humedad	60
7837	7	Sololá	701	Sololá	3	Barraneche	2	Febrero	2023-10-02T00:00:00	2024-11-06T19:00:00	6	Velocidad del viento	6.4
7838	7	Sololá	701	Sololá	3	Barraneche	2	Febrero	2023-10-02T00:00:00	2024-11-06T19:00:00	7	Dirección del viento	6.44
7839	7	Sololá	701	Sololá	3	Barraneche	2	Febrero	2023-10-02T00:00:00	2024-11-06T19:00:00	1	Precipitación	0
7840	7	Sololá	701	Sololá	3	Barraneche	2	Febrero	2023-10-02T00:00:00	2024-11-06T19:00:00	8	Radiación solar	0
7841	7	Sololá	701	Sololá	3	Barraneche	2	Febrero	2023-10-02T00:00:00	2024-11-06T20:00:00	2	Temperatura media	13.5
7842	7	Sololá	701	Sololá	3	Barraneche	2	Febrero	2023-10-02T00:00:00	2024-11-06T20:00:00	4	Temperatura máxima	14.3
7843	7	Sololá	701	Sololá	3	Barraneche	2	Febrero	2023-10-02T00:00:00	2024-11-06T20:00:00	3	Temperatura mínima	13.5
7844	7	Sololá	701	Sololá	3	Barraneche	2	Febrero	2023-10-02T00:00:00	2024-11-06T20:00:00	5	Humedad	58
7845	7	Sololá	701	Sololá	3	Barraneche	2	Febrero	2023-10-02T00:00:00	2024-11-06T20:00:00	6	Velocidad del viento	8
7846	7	Sololá	701	Sololá	3	Barraneche	2	Febrero	2023-10-02T00:00:00	2024-11-06T20:00:00	7	Dirección del viento	8.05
7847	7	Sololá	701	Sololá	3	Barraneche	2	Febrero	2023-10-02T00:00:00	2024-11-06T20:00:00	1	Precipitación	0
7848	7	Sololá	701	Sololá	3	Barraneche	2	Febrero	2023-10-02T00:00:00	2024-11-06T20:00:00	8	Radiación solar	0
7849	7	Sololá	701	Sololá	3	Barraneche	2	Febrero	2023-10-02T00:00:00	2024-11-06T21:00:00	2	Temperatura media	13.1
7850	7	Sololá	701	Sololá	3	Barraneche	2	Febrero	2023-10-02T00:00:00	2024-11-06T21:00:00	4	Temperatura máxima	13.5
7851	7	Sololá	701	Sololá	3	Barraneche	2	Febrero	2023-10-02T00:00:00	2024-11-06T21:00:00	3	Temperatura mínima	13
7852	7	Sololá	701	Sololá	3	Barraneche	2	Febrero	2023-10-02T00:00:00	2024-11-06T21:00:00	5	Humedad	57
7853	7	Sololá	701	Sololá	3	Barraneche	2	Febrero	2023-10-02T00:00:00	2024-11-06T21:00:00	6	Velocidad del viento	11.3
7854	7	Sololá	701	Sololá	3	Barraneche	2	Febrero	2023-10-02T00:00:00	2024-11-06T21:00:00	7	Dirección del viento	11.27
7855	7	Sololá	701	Sololá	3	Barraneche	2	Febrero	2023-10-02T00:00:00	2024-11-06T21:00:00	1	Precipitación	0
7856	7	Sololá	701	Sololá	3	Barraneche	2	Febrero	2023-10-02T00:00:00	2024-11-06T21:00:00	8	Radiación solar	0
7857	7	Sololá	701	Sololá	3	Barraneche	2	Febrero	2023-10-02T00:00:00	2024-11-06T22:00:00	2	Temperatura media	12.4
7858	7	Sololá	701	Sololá	3	Barraneche	2	Febrero	2023-10-02T00:00:00	2024-11-06T22:00:00	4	Temperatura máxima	13.1
7859	7	Sololá	701	Sololá	3	Barraneche	2	Febrero	2023-10-02T00:00:00	2024-11-06T22:00:00	3	Temperatura mínima	12.4
7860	7	Sololá	701	Sololá	3	Barraneche	2	Febrero	2023-10-02T00:00:00	2024-11-06T22:00:00	5	Humedad	59
7861	7	Sololá	701	Sololá	3	Barraneche	2	Febrero	2023-10-02T00:00:00	2024-11-06T22:00:00	6	Velocidad del viento	16.1
7862	7	Sololá	701	Sololá	3	Barraneche	2	Febrero	2023-10-02T00:00:00	2024-11-06T22:00:00	7	Dirección del viento	16.09
7863	7	Sololá	701	Sololá	3	Barraneche	2	Febrero	2023-10-02T00:00:00	2024-11-06T22:00:00	1	Precipitación	0
7864	7	Sololá	701	Sololá	3	Barraneche	2	Febrero	2023-10-02T00:00:00	2024-11-06T22:00:00	8	Radiación solar	0
7865	7	Sololá	701	Sololá	3	Barraneche	2	Febrero	2023-10-02T00:00:00	2024-11-06T23:00:00	2	Temperatura media	12.1
7866	7	Sololá	701	Sololá	3	Barraneche	2	Febrero	2023-10-02T00:00:00	2024-11-06T23:00:00	4	Temperatura máxima	12.4
7867	7	Sololá	701	Sololá	3	Barraneche	2	Febrero	2023-10-02T00:00:00	2024-11-06T23:00:00	3	Temperatura mínima	12
7868	7	Sololá	701	Sololá	3	Barraneche	2	Febrero	2023-10-02T00:00:00	2024-11-06T23:00:00	5	Humedad	59
7869	7	Sololá	701	Sololá	3	Barraneche	2	Febrero	2023-10-02T00:00:00	2024-11-06T23:00:00	6	Velocidad del viento	12.9
7870	7	Sololá	701	Sololá	3	Barraneche	2	Febrero	2023-10-02T00:00:00	2024-11-06T23:00:00	7	Dirección del viento	12.87
7871	7	Sololá	701	Sololá	3	Barraneche	2	Febrero	2023-10-02T00:00:00	2024-11-06T23:00:00	1	Precipitación	0
7872	7	Sololá	701	Sololá	3	Barraneche	2	Febrero	2023-10-02T00:00:00	2024-11-06T23:00:00	8	Radiación solar	0
7873	7	Sololá	701	Sololá	3	Barraneche	2	Febrero	2023-11-02T00:00:00	2024-11-06T00:00:00	2	Temperatura media	12.3
7874	7	Sololá	701	Sololá	3	Barraneche	2	Febrero	2023-11-02T00:00:00	2024-11-06T00:00:00	4	Temperatura máxima	12.4
7875	7	Sololá	701	Sololá	3	Barraneche	2	Febrero	2023-11-02T00:00:00	2024-11-06T00:00:00	3	Temperatura mínima	12.1
7876	7	Sololá	701	Sololá	3	Barraneche	2	Febrero	2023-11-02T00:00:00	2024-11-06T00:00:00	5	Humedad	57
7877	7	Sololá	701	Sololá	3	Barraneche	2	Febrero	2023-11-02T00:00:00	2024-11-06T00:00:00	6	Velocidad del viento	14.5
7878	7	Sololá	701	Sololá	3	Barraneche	2	Febrero	2023-11-02T00:00:00	2024-11-06T00:00:00	7	Dirección del viento	14.48
7879	7	Sololá	701	Sololá	3	Barraneche	2	Febrero	2023-11-02T00:00:00	2024-11-06T00:00:00	1	Precipitación	0
7880	7	Sololá	701	Sololá	3	Barraneche	2	Febrero	2023-11-02T00:00:00	2024-11-06T00:00:00	8	Radiación solar	0
7881	7	Sololá	701	Sololá	3	Barraneche	2	Febrero	2023-11-02T00:00:00	2024-11-06T01:00:00	2	Temperatura media	12.2
7882	7	Sololá	701	Sololá	3	Barraneche	2	Febrero	2023-11-02T00:00:00	2024-11-06T01:00:00	4	Temperatura máxima	12.3
7883	7	Sololá	701	Sololá	3	Barraneche	2	Febrero	2023-11-02T00:00:00	2024-11-06T01:00:00	3	Temperatura mínima	12.1
7884	7	Sololá	701	Sololá	3	Barraneche	2	Febrero	2023-11-02T00:00:00	2024-11-06T01:00:00	5	Humedad	57
7885	7	Sololá	701	Sololá	3	Barraneche	2	Febrero	2023-11-02T00:00:00	2024-11-06T01:00:00	6	Velocidad del viento	20.9
7886	7	Sololá	701	Sololá	3	Barraneche	2	Febrero	2023-11-02T00:00:00	2024-11-06T01:00:00	7	Dirección del viento	20.92
7887	7	Sololá	701	Sololá	3	Barraneche	2	Febrero	2023-11-02T00:00:00	2024-11-06T01:00:00	1	Precipitación	0
7888	7	Sololá	701	Sololá	3	Barraneche	2	Febrero	2023-11-02T00:00:00	2024-11-06T01:00:00	8	Radiación solar	0
7889	7	Sololá	701	Sololá	3	Barraneche	2	Febrero	2023-11-02T00:00:00	2024-11-06T02:00:00	2	Temperatura media	12.7
7890	7	Sololá	701	Sololá	3	Barraneche	2	Febrero	2023-11-02T00:00:00	2024-11-06T02:00:00	4	Temperatura máxima	12.9
7891	7	Sololá	701	Sololá	3	Barraneche	2	Febrero	2023-11-02T00:00:00	2024-11-06T02:00:00	3	Temperatura mínima	12.2
7892	7	Sololá	701	Sololá	3	Barraneche	2	Febrero	2023-11-02T00:00:00	2024-11-06T02:00:00	5	Humedad	52
7893	7	Sololá	701	Sololá	3	Barraneche	2	Febrero	2023-11-02T00:00:00	2024-11-06T02:00:00	6	Velocidad del viento	17.7
7894	7	Sololá	701	Sololá	3	Barraneche	2	Febrero	2023-11-02T00:00:00	2024-11-06T02:00:00	7	Dirección del viento	17.7
7895	7	Sololá	701	Sololá	3	Barraneche	2	Febrero	2023-11-02T00:00:00	2024-11-06T02:00:00	1	Precipitación	0
7896	7	Sololá	701	Sololá	3	Barraneche	2	Febrero	2023-11-02T00:00:00	2024-11-06T02:00:00	8	Radiación solar	0
7897	7	Sololá	701	Sololá	3	Barraneche	2	Febrero	2023-11-02T00:00:00	2024-11-06T03:00:00	2	Temperatura media	12.3
7898	7	Sololá	701	Sololá	3	Barraneche	2	Febrero	2023-11-02T00:00:00	2024-11-06T03:00:00	4	Temperatura máxima	12.9
7899	7	Sololá	701	Sololá	3	Barraneche	2	Febrero	2023-11-02T00:00:00	2024-11-06T03:00:00	3	Temperatura mínima	12.3
7900	7	Sololá	701	Sololá	3	Barraneche	2	Febrero	2023-11-02T00:00:00	2024-11-06T03:00:00	5	Humedad	49
7901	7	Sololá	701	Sololá	3	Barraneche	2	Febrero	2023-11-02T00:00:00	2024-11-06T03:00:00	6	Velocidad del viento	14.5
7902	7	Sololá	701	Sololá	3	Barraneche	2	Febrero	2023-11-02T00:00:00	2024-11-06T03:00:00	7	Dirección del viento	14.48
7903	7	Sololá	701	Sololá	3	Barraneche	2	Febrero	2023-11-02T00:00:00	2024-11-06T03:00:00	1	Precipitación	0
7904	7	Sololá	701	Sololá	3	Barraneche	2	Febrero	2023-11-02T00:00:00	2024-11-06T03:00:00	8	Radiación solar	0
7905	7	Sololá	701	Sololá	3	Barraneche	2	Febrero	2023-11-02T00:00:00	2024-11-06T04:00:00	2	Temperatura media	12.3
7906	7	Sololá	701	Sololá	3	Barraneche	2	Febrero	2023-11-02T00:00:00	2024-11-06T04:00:00	4	Temperatura máxima	12.4
7907	7	Sololá	701	Sololá	3	Barraneche	2	Febrero	2023-11-02T00:00:00	2024-11-06T04:00:00	3	Temperatura mínima	12.1
7908	7	Sololá	701	Sololá	3	Barraneche	2	Febrero	2023-11-02T00:00:00	2024-11-06T04:00:00	5	Humedad	41
7909	7	Sololá	701	Sololá	3	Barraneche	2	Febrero	2023-11-02T00:00:00	2024-11-06T04:00:00	6	Velocidad del viento	16.1
7910	7	Sololá	701	Sololá	3	Barraneche	2	Febrero	2023-11-02T00:00:00	2024-11-06T04:00:00	7	Dirección del viento	16.09
7911	7	Sololá	701	Sololá	3	Barraneche	2	Febrero	2023-11-02T00:00:00	2024-11-06T04:00:00	1	Precipitación	0
7912	7	Sololá	701	Sololá	3	Barraneche	2	Febrero	2023-11-02T00:00:00	2024-11-06T04:00:00	8	Radiación solar	0
7913	7	Sololá	701	Sololá	3	Barraneche	2	Febrero	2023-11-02T00:00:00	2024-11-06T05:00:00	2	Temperatura media	12.1
7914	7	Sololá	701	Sololá	3	Barraneche	2	Febrero	2023-11-02T00:00:00	2024-11-06T05:00:00	4	Temperatura máxima	12.3
7915	7	Sololá	701	Sololá	3	Barraneche	2	Febrero	2023-11-02T00:00:00	2024-11-06T05:00:00	3	Temperatura mínima	11.9
7916	7	Sololá	701	Sololá	3	Barraneche	2	Febrero	2023-11-02T00:00:00	2024-11-06T05:00:00	5	Humedad	39
7917	7	Sololá	701	Sololá	3	Barraneche	2	Febrero	2023-11-02T00:00:00	2024-11-06T05:00:00	6	Velocidad del viento	19.3
7918	7	Sololá	701	Sololá	3	Barraneche	2	Febrero	2023-11-02T00:00:00	2024-11-06T05:00:00	7	Dirección del viento	19.31
7919	7	Sololá	701	Sololá	3	Barraneche	2	Febrero	2023-11-02T00:00:00	2024-11-06T05:00:00	1	Precipitación	0
7920	7	Sololá	701	Sololá	3	Barraneche	2	Febrero	2023-11-02T00:00:00	2024-11-06T05:00:00	8	Radiación solar	0
7921	7	Sololá	701	Sololá	3	Barraneche	2	Febrero	2023-11-02T00:00:00	2024-11-06T06:00:00	2	Temperatura media	12.7
7922	7	Sololá	701	Sololá	3	Barraneche	2	Febrero	2023-11-02T00:00:00	2024-11-06T06:00:00	4	Temperatura máxima	12.7
7923	7	Sololá	701	Sololá	3	Barraneche	2	Febrero	2023-11-02T00:00:00	2024-11-06T06:00:00	3	Temperatura mínima	12.1
7924	7	Sololá	701	Sololá	3	Barraneche	2	Febrero	2023-11-02T00:00:00	2024-11-06T06:00:00	5	Humedad	39
7925	7	Sololá	701	Sololá	3	Barraneche	2	Febrero	2023-11-02T00:00:00	2024-11-06T06:00:00	6	Velocidad del viento	25.7
7926	7	Sololá	701	Sololá	3	Barraneche	2	Febrero	2023-11-02T00:00:00	2024-11-06T06:00:00	7	Dirección del viento	25.75
7927	7	Sololá	701	Sololá	3	Barraneche	2	Febrero	2023-11-02T00:00:00	2024-11-06T06:00:00	1	Precipitación	0
7928	7	Sololá	701	Sololá	3	Barraneche	2	Febrero	2023-11-02T00:00:00	2024-11-06T06:00:00	8	Radiación solar	0
7929	7	Sololá	701	Sololá	3	Barraneche	2	Febrero	2023-11-02T00:00:00	2024-11-06T07:00:00	2	Temperatura media	12.8
7930	7	Sololá	701	Sololá	3	Barraneche	2	Febrero	2023-11-02T00:00:00	2024-11-06T07:00:00	4	Temperatura máxima	13
7931	7	Sololá	701	Sololá	3	Barraneche	2	Febrero	2023-11-02T00:00:00	2024-11-06T07:00:00	3	Temperatura mínima	12.6
7932	7	Sololá	701	Sololá	3	Barraneche	2	Febrero	2023-11-02T00:00:00	2024-11-06T07:00:00	5	Humedad	33
7933	7	Sololá	701	Sololá	3	Barraneche	2	Febrero	2023-11-02T00:00:00	2024-11-06T07:00:00	6	Velocidad del viento	24.1
7934	7	Sololá	701	Sololá	3	Barraneche	2	Febrero	2023-11-02T00:00:00	2024-11-06T07:00:00	7	Dirección del viento	24.14
7935	7	Sololá	701	Sololá	3	Barraneche	2	Febrero	2023-11-02T00:00:00	2024-11-06T07:00:00	1	Precipitación	0
7936	7	Sololá	701	Sololá	3	Barraneche	2	Febrero	2023-11-02T00:00:00	2024-11-06T07:00:00	8	Radiación solar	6
7937	7	Sololá	701	Sololá	3	Barraneche	2	Febrero	2023-11-02T00:00:00	2024-11-06T08:00:00	2	Temperatura media	14.2
7938	7	Sololá	701	Sololá	3	Barraneche	2	Febrero	2023-11-02T00:00:00	2024-11-06T08:00:00	4	Temperatura máxima	14.2
7939	7	Sololá	701	Sololá	3	Barraneche	2	Febrero	2023-11-02T00:00:00	2024-11-06T08:00:00	3	Temperatura mínima	12.8
7940	7	Sololá	701	Sololá	3	Barraneche	2	Febrero	2023-11-02T00:00:00	2024-11-06T08:00:00	5	Humedad	25
7941	7	Sololá	701	Sololá	3	Barraneche	2	Febrero	2023-11-02T00:00:00	2024-11-06T08:00:00	6	Velocidad del viento	22.5
7942	7	Sololá	701	Sololá	3	Barraneche	2	Febrero	2023-11-02T00:00:00	2024-11-06T08:00:00	7	Dirección del viento	22.53
7943	7	Sololá	701	Sololá	3	Barraneche	2	Febrero	2023-11-02T00:00:00	2024-11-06T08:00:00	1	Precipitación	0
7944	7	Sololá	701	Sololá	3	Barraneche	2	Febrero	2023-11-02T00:00:00	2024-11-06T08:00:00	8	Radiación solar	181
7945	7	Sololá	701	Sololá	3	Barraneche	2	Febrero	2023-11-02T00:00:00	2024-11-06T09:00:00	2	Temperatura media	15.6
7946	7	Sololá	701	Sololá	3	Barraneche	2	Febrero	2023-11-02T00:00:00	2024-11-06T09:00:00	4	Temperatura máxima	15.6
7947	7	Sololá	701	Sololá	3	Barraneche	2	Febrero	2023-11-02T00:00:00	2024-11-06T09:00:00	3	Temperatura mínima	14.2
7948	7	Sololá	701	Sololá	3	Barraneche	2	Febrero	2023-11-02T00:00:00	2024-11-06T09:00:00	5	Humedad	22
7949	7	Sololá	701	Sololá	3	Barraneche	2	Febrero	2023-11-02T00:00:00	2024-11-06T09:00:00	6	Velocidad del viento	24.1
7950	7	Sololá	701	Sololá	3	Barraneche	2	Febrero	2023-11-02T00:00:00	2024-11-06T09:00:00	7	Dirección del viento	24.14
7951	7	Sololá	701	Sololá	3	Barraneche	2	Febrero	2023-11-02T00:00:00	2024-11-06T09:00:00	1	Precipitación	0
7952	7	Sololá	701	Sololá	3	Barraneche	2	Febrero	2023-11-02T00:00:00	2024-11-06T09:00:00	8	Radiación solar	467
7953	7	Sololá	701	Sololá	3	Barraneche	2	Febrero	2023-11-02T00:00:00	2024-11-06T10:00:00	2	Temperatura media	16.3
7954	7	Sololá	701	Sololá	3	Barraneche	2	Febrero	2023-11-02T00:00:00	2024-11-06T10:00:00	4	Temperatura máxima	16.4
7955	7	Sololá	701	Sololá	3	Barraneche	2	Febrero	2023-11-02T00:00:00	2024-11-06T10:00:00	3	Temperatura mínima	15.4
7956	7	Sololá	701	Sololá	3	Barraneche	2	Febrero	2023-11-02T00:00:00	2024-11-06T10:00:00	5	Humedad	27
7957	7	Sololá	701	Sololá	3	Barraneche	2	Febrero	2023-11-02T00:00:00	2024-11-06T10:00:00	6	Velocidad del viento	30.6
7958	7	Sololá	701	Sololá	3	Barraneche	2	Febrero	2023-11-02T00:00:00	2024-11-06T10:00:00	7	Dirección del viento	30.58
7959	7	Sololá	701	Sololá	3	Barraneche	2	Febrero	2023-11-02T00:00:00	2024-11-06T10:00:00	1	Precipitación	0
7960	7	Sololá	701	Sololá	3	Barraneche	2	Febrero	2023-11-02T00:00:00	2024-11-06T10:00:00	8	Radiación solar	695
7961	7	Sololá	701	Sololá	3	Barraneche	2	Febrero	2023-11-02T00:00:00	2024-11-06T11:00:00	2	Temperatura media	17.2
7962	7	Sololá	701	Sololá	3	Barraneche	2	Febrero	2023-11-02T00:00:00	2024-11-06T11:00:00	4	Temperatura máxima	17.2
7963	7	Sololá	701	Sololá	3	Barraneche	2	Febrero	2023-11-02T00:00:00	2024-11-06T11:00:00	3	Temperatura mínima	16.3
7964	7	Sololá	701	Sololá	3	Barraneche	2	Febrero	2023-11-02T00:00:00	2024-11-06T11:00:00	5	Humedad	36
7965	7	Sololá	701	Sololá	3	Barraneche	2	Febrero	2023-11-02T00:00:00	2024-11-06T11:00:00	6	Velocidad del viento	25.7
7966	7	Sololá	701	Sololá	3	Barraneche	2	Febrero	2023-11-02T00:00:00	2024-11-06T11:00:00	7	Dirección del viento	25.75
7967	7	Sololá	701	Sololá	3	Barraneche	2	Febrero	2023-11-02T00:00:00	2024-11-06T11:00:00	1	Precipitación	0
7968	7	Sololá	701	Sololá	3	Barraneche	2	Febrero	2023-11-02T00:00:00	2024-11-06T11:00:00	8	Radiación solar	865
7969	7	Sololá	701	Sololá	3	Barraneche	2	Febrero	2023-11-02T00:00:00	2024-11-06T12:00:00	2	Temperatura media	17
7970	7	Sololá	701	Sololá	3	Barraneche	2	Febrero	2023-11-02T00:00:00	2024-11-06T12:00:00	4	Temperatura máxima	17.4
7971	7	Sololá	701	Sololá	3	Barraneche	2	Febrero	2023-11-02T00:00:00	2024-11-06T12:00:00	3	Temperatura mínima	16.1
7972	7	Sololá	701	Sololá	3	Barraneche	2	Febrero	2023-11-02T00:00:00	2024-11-06T12:00:00	5	Humedad	30
7973	7	Sololá	701	Sololá	3	Barraneche	2	Febrero	2023-11-02T00:00:00	2024-11-06T12:00:00	6	Velocidad del viento	30.6
7974	7	Sololá	701	Sololá	3	Barraneche	2	Febrero	2023-11-02T00:00:00	2024-11-06T12:00:00	7	Dirección del viento	30.58
7975	7	Sololá	701	Sololá	3	Barraneche	2	Febrero	2023-11-02T00:00:00	2024-11-06T12:00:00	1	Precipitación	0
7976	7	Sololá	701	Sololá	3	Barraneche	2	Febrero	2023-11-02T00:00:00	2024-11-06T12:00:00	8	Radiación solar	960
7977	7	Sololá	701	Sololá	3	Barraneche	2	Febrero	2023-11-02T00:00:00	2024-11-06T13:00:00	2	Temperatura media	17.9
7978	7	Sololá	701	Sololá	3	Barraneche	2	Febrero	2023-11-02T00:00:00	2024-11-06T13:00:00	4	Temperatura máxima	18.1
7979	7	Sololá	701	Sololá	3	Barraneche	2	Febrero	2023-11-02T00:00:00	2024-11-06T13:00:00	3	Temperatura mínima	16.9
7980	7	Sololá	701	Sololá	3	Barraneche	2	Febrero	2023-11-02T00:00:00	2024-11-06T13:00:00	5	Humedad	36
7981	7	Sololá	701	Sololá	3	Barraneche	2	Febrero	2023-11-02T00:00:00	2024-11-06T13:00:00	6	Velocidad del viento	24.1
7982	7	Sololá	701	Sololá	3	Barraneche	2	Febrero	2023-11-02T00:00:00	2024-11-06T13:00:00	7	Dirección del viento	24.14
7983	7	Sololá	701	Sololá	3	Barraneche	2	Febrero	2023-11-02T00:00:00	2024-11-06T13:00:00	1	Precipitación	0
7984	7	Sololá	701	Sololá	3	Barraneche	2	Febrero	2023-11-02T00:00:00	2024-11-06T13:00:00	8	Radiación solar	970
7985	7	Sololá	701	Sololá	3	Barraneche	2	Febrero	2023-11-02T00:00:00	2024-11-06T14:00:00	2	Temperatura media	17.6
7986	7	Sololá	701	Sololá	3	Barraneche	2	Febrero	2023-11-02T00:00:00	2024-11-06T14:00:00	4	Temperatura máxima	18.5
7987	7	Sololá	701	Sololá	3	Barraneche	2	Febrero	2023-11-02T00:00:00	2024-11-06T14:00:00	3	Temperatura mínima	17.6
7988	7	Sololá	701	Sololá	3	Barraneche	2	Febrero	2023-11-02T00:00:00	2024-11-06T14:00:00	5	Humedad	38
7989	7	Sololá	701	Sololá	3	Barraneche	2	Febrero	2023-11-02T00:00:00	2024-11-06T14:00:00	6	Velocidad del viento	17.7
7990	7	Sololá	701	Sololá	3	Barraneche	2	Febrero	2023-11-02T00:00:00	2024-11-06T14:00:00	7	Dirección del viento	17.7
7991	7	Sololá	701	Sololá	3	Barraneche	2	Febrero	2023-11-02T00:00:00	2024-11-06T14:00:00	1	Precipitación	0
7992	7	Sololá	701	Sololá	3	Barraneche	2	Febrero	2023-11-02T00:00:00	2024-11-06T14:00:00	8	Radiación solar	904
7993	7	Sololá	701	Sololá	3	Barraneche	2	Febrero	2023-11-02T00:00:00	2024-11-06T15:00:00	2	Temperatura media	16.7
7994	7	Sololá	701	Sololá	3	Barraneche	2	Febrero	2023-11-02T00:00:00	2024-11-06T15:00:00	4	Temperatura máxima	17.7
7995	7	Sololá	701	Sololá	3	Barraneche	2	Febrero	2023-11-02T00:00:00	2024-11-06T15:00:00	3	Temperatura mínima	16.7
7996	7	Sololá	701	Sololá	3	Barraneche	2	Febrero	2023-11-02T00:00:00	2024-11-06T15:00:00	5	Humedad	41
7997	7	Sololá	701	Sololá	3	Barraneche	2	Febrero	2023-11-02T00:00:00	2024-11-06T15:00:00	6	Velocidad del viento	19.3
7998	7	Sololá	701	Sololá	3	Barraneche	2	Febrero	2023-11-02T00:00:00	2024-11-06T15:00:00	7	Dirección del viento	19.31
7999	7	Sololá	701	Sololá	3	Barraneche	2	Febrero	2023-11-02T00:00:00	2024-11-06T15:00:00	1	Precipitación	0
8000	7	Sololá	701	Sololá	3	Barraneche	2	Febrero	2023-11-02T00:00:00	2024-11-06T15:00:00	8	Radiación solar	770
8001	7	Sololá	701	Sololá	3	Barraneche	2	Febrero	2023-11-02T00:00:00	2024-11-06T16:00:00	2	Temperatura media	16.5
8002	7	Sololá	701	Sololá	3	Barraneche	2	Febrero	2023-11-02T00:00:00	2024-11-06T16:00:00	4	Temperatura máxima	16.9
8003	7	Sololá	701	Sololá	3	Barraneche	2	Febrero	2023-11-02T00:00:00	2024-11-06T16:00:00	3	Temperatura mínima	16.2
8004	7	Sololá	701	Sololá	3	Barraneche	2	Febrero	2023-11-02T00:00:00	2024-11-06T16:00:00	5	Humedad	42
8005	7	Sololá	701	Sololá	3	Barraneche	2	Febrero	2023-11-02T00:00:00	2024-11-06T16:00:00	6	Velocidad del viento	19.3
8006	7	Sololá	701	Sololá	3	Barraneche	2	Febrero	2023-11-02T00:00:00	2024-11-06T16:00:00	7	Dirección del viento	19.31
8007	7	Sololá	701	Sololá	3	Barraneche	2	Febrero	2023-11-02T00:00:00	2024-11-06T16:00:00	1	Precipitación	0
8008	7	Sololá	701	Sololá	3	Barraneche	2	Febrero	2023-11-02T00:00:00	2024-11-06T16:00:00	8	Radiación solar	579
8009	7	Sololá	701	Sololá	3	Barraneche	2	Febrero	2023-11-02T00:00:00	2024-11-06T17:00:00	2	Temperatura media	15.3
8010	7	Sololá	701	Sololá	3	Barraneche	2	Febrero	2023-11-02T00:00:00	2024-11-06T17:00:00	4	Temperatura máxima	16.6
8011	7	Sololá	701	Sololá	3	Barraneche	2	Febrero	2023-11-02T00:00:00	2024-11-06T17:00:00	3	Temperatura mínima	15.1
8012	7	Sololá	701	Sololá	3	Barraneche	2	Febrero	2023-11-02T00:00:00	2024-11-06T17:00:00	5	Humedad	46
8013	7	Sololá	701	Sololá	3	Barraneche	2	Febrero	2023-11-02T00:00:00	2024-11-06T17:00:00	6	Velocidad del viento	16.1
8014	7	Sololá	701	Sololá	3	Barraneche	2	Febrero	2023-11-02T00:00:00	2024-11-06T17:00:00	7	Dirección del viento	16.09
8015	7	Sololá	701	Sololá	3	Barraneche	2	Febrero	2023-11-02T00:00:00	2024-11-06T17:00:00	1	Precipitación	0
8016	7	Sololá	701	Sololá	3	Barraneche	2	Febrero	2023-11-02T00:00:00	2024-11-06T17:00:00	8	Radiación solar	349
8017	7	Sololá	701	Sololá	3	Barraneche	2	Febrero	2023-11-02T00:00:00	2024-11-06T18:00:00	2	Temperatura media	13.3
8018	7	Sololá	701	Sololá	3	Barraneche	2	Febrero	2023-11-02T00:00:00	2024-11-06T18:00:00	4	Temperatura máxima	15.3
8019	7	Sololá	701	Sololá	3	Barraneche	2	Febrero	2023-11-02T00:00:00	2024-11-06T18:00:00	3	Temperatura mínima	13.3
8020	7	Sololá	701	Sololá	3	Barraneche	2	Febrero	2023-11-02T00:00:00	2024-11-06T18:00:00	5	Humedad	56
8021	7	Sololá	701	Sololá	3	Barraneche	2	Febrero	2023-11-02T00:00:00	2024-11-06T18:00:00	6	Velocidad del viento	20.9
8022	7	Sololá	701	Sololá	3	Barraneche	2	Febrero	2023-11-02T00:00:00	2024-11-06T18:00:00	7	Dirección del viento	20.92
8023	7	Sololá	701	Sololá	3	Barraneche	2	Febrero	2023-11-02T00:00:00	2024-11-06T18:00:00	1	Precipitación	0
8024	7	Sololá	701	Sololá	3	Barraneche	2	Febrero	2023-11-02T00:00:00	2024-11-06T18:00:00	8	Radiación solar	76
8025	7	Sololá	701	Sololá	3	Barraneche	2	Febrero	2023-11-02T00:00:00	2024-11-06T19:00:00	2	Temperatura media	12.2
8026	7	Sololá	701	Sololá	3	Barraneche	2	Febrero	2023-11-02T00:00:00	2024-11-06T19:00:00	4	Temperatura máxima	13.3
8027	7	Sololá	701	Sololá	3	Barraneche	2	Febrero	2023-11-02T00:00:00	2024-11-06T19:00:00	3	Temperatura mínima	12.2
8028	7	Sololá	701	Sololá	3	Barraneche	2	Febrero	2023-11-02T00:00:00	2024-11-06T19:00:00	5	Humedad	64
8029	7	Sololá	701	Sololá	3	Barraneche	2	Febrero	2023-11-02T00:00:00	2024-11-06T19:00:00	6	Velocidad del viento	25.7
8030	7	Sololá	701	Sololá	3	Barraneche	2	Febrero	2023-11-02T00:00:00	2024-11-06T19:00:00	7	Dirección del viento	25.75
8031	7	Sololá	701	Sololá	3	Barraneche	2	Febrero	2023-11-02T00:00:00	2024-11-06T19:00:00	1	Precipitación	0
8032	7	Sololá	701	Sololá	3	Barraneche	2	Febrero	2023-11-02T00:00:00	2024-11-06T19:00:00	8	Radiación solar	0
8033	7	Sololá	701	Sololá	3	Barraneche	2	Febrero	2023-11-02T00:00:00	2024-11-06T20:00:00	2	Temperatura media	11.7
8034	7	Sololá	701	Sololá	3	Barraneche	2	Febrero	2023-11-02T00:00:00	2024-11-06T20:00:00	4	Temperatura máxima	12.2
8035	7	Sololá	701	Sololá	3	Barraneche	2	Febrero	2023-11-02T00:00:00	2024-11-06T20:00:00	3	Temperatura mínima	11.3
8036	7	Sololá	701	Sololá	3	Barraneche	2	Febrero	2023-11-02T00:00:00	2024-11-06T20:00:00	5	Humedad	69
8037	7	Sololá	701	Sololá	3	Barraneche	2	Febrero	2023-11-02T00:00:00	2024-11-06T20:00:00	6	Velocidad del viento	33.8
8038	7	Sololá	701	Sololá	3	Barraneche	2	Febrero	2023-11-02T00:00:00	2024-11-06T20:00:00	7	Dirección del viento	33.8
8039	7	Sololá	701	Sololá	3	Barraneche	2	Febrero	2023-11-02T00:00:00	2024-11-06T20:00:00	1	Precipitación	0
8040	7	Sololá	701	Sololá	3	Barraneche	2	Febrero	2023-11-02T00:00:00	2024-11-06T20:00:00	8	Radiación solar	0
8041	7	Sololá	701	Sololá	3	Barraneche	2	Febrero	2023-11-02T00:00:00	2024-11-06T21:00:00	2	Temperatura media	11.6
8042	7	Sololá	701	Sololá	3	Barraneche	2	Febrero	2023-11-02T00:00:00	2024-11-06T21:00:00	4	Temperatura máxima	11.9
8043	7	Sololá	701	Sololá	3	Barraneche	2	Febrero	2023-11-02T00:00:00	2024-11-06T21:00:00	3	Temperatura mínima	11.6
8044	7	Sololá	701	Sololá	3	Barraneche	2	Febrero	2023-11-02T00:00:00	2024-11-06T21:00:00	5	Humedad	71
8045	7	Sololá	701	Sololá	3	Barraneche	2	Febrero	2023-11-02T00:00:00	2024-11-06T21:00:00	6	Velocidad del viento	32.2
8046	7	Sololá	701	Sololá	3	Barraneche	2	Febrero	2023-11-02T00:00:00	2024-11-06T21:00:00	7	Dirección del viento	32.19
8047	7	Sololá	701	Sololá	3	Barraneche	2	Febrero	2023-11-02T00:00:00	2024-11-06T21:00:00	1	Precipitación	0
8048	7	Sololá	701	Sololá	3	Barraneche	2	Febrero	2023-11-02T00:00:00	2024-11-06T21:00:00	8	Radiación solar	0
8049	7	Sololá	701	Sololá	3	Barraneche	2	Febrero	2023-11-02T00:00:00	2024-11-06T22:00:00	2	Temperatura media	11.8
8050	7	Sololá	701	Sololá	3	Barraneche	2	Febrero	2023-11-02T00:00:00	2024-11-06T22:00:00	4	Temperatura máxima	11.9
8051	7	Sololá	701	Sololá	3	Barraneche	2	Febrero	2023-11-02T00:00:00	2024-11-06T22:00:00	3	Temperatura mínima	11.6
8052	7	Sololá	701	Sololá	3	Barraneche	2	Febrero	2023-11-02T00:00:00	2024-11-06T22:00:00	5	Humedad	69
8053	7	Sololá	701	Sololá	3	Barraneche	2	Febrero	2023-11-02T00:00:00	2024-11-06T22:00:00	6	Velocidad del viento	37
8054	7	Sololá	701	Sololá	3	Barraneche	2	Febrero	2023-11-02T00:00:00	2024-11-06T22:00:00	7	Dirección del viento	37.01
8055	7	Sololá	701	Sololá	3	Barraneche	2	Febrero	2023-11-02T00:00:00	2024-11-06T22:00:00	1	Precipitación	0
8056	7	Sololá	701	Sololá	3	Barraneche	2	Febrero	2023-11-02T00:00:00	2024-11-06T22:00:00	8	Radiación solar	0
8057	7	Sololá	701	Sololá	3	Barraneche	2	Febrero	2023-11-02T00:00:00	2024-11-06T23:00:00	2	Temperatura media	11.5
8058	7	Sololá	701	Sololá	3	Barraneche	2	Febrero	2023-11-02T00:00:00	2024-11-06T23:00:00	4	Temperatura máxima	11.8
8059	7	Sololá	701	Sololá	3	Barraneche	2	Febrero	2023-11-02T00:00:00	2024-11-06T23:00:00	3	Temperatura mínima	11.3
8060	7	Sololá	701	Sololá	3	Barraneche	2	Febrero	2023-11-02T00:00:00	2024-11-06T23:00:00	5	Humedad	69
8061	7	Sololá	701	Sololá	3	Barraneche	2	Febrero	2023-11-02T00:00:00	2024-11-06T23:00:00	6	Velocidad del viento	38.6
8062	7	Sololá	701	Sololá	3	Barraneche	2	Febrero	2023-11-02T00:00:00	2024-11-06T23:00:00	7	Dirección del viento	38.62
8063	7	Sololá	701	Sololá	3	Barraneche	2	Febrero	2023-11-02T00:00:00	2024-11-06T23:00:00	1	Precipitación	0
8064	7	Sololá	701	Sololá	3	Barraneche	2	Febrero	2023-11-02T00:00:00	2024-11-06T23:00:00	8	Radiación solar	0
8065	7	Sololá	701	Sololá	3	Barraneche	2	Febrero	2023-12-02T00:00:00	2024-11-06T00:00:00	2	Temperatura media	10.9
8066	7	Sololá	701	Sololá	3	Barraneche	2	Febrero	2023-12-02T00:00:00	2024-11-06T00:00:00	4	Temperatura máxima	11.5
8067	7	Sololá	701	Sololá	3	Barraneche	2	Febrero	2023-12-02T00:00:00	2024-11-06T00:00:00	3	Temperatura mínima	10.9
8068	7	Sololá	701	Sololá	3	Barraneche	2	Febrero	2023-12-02T00:00:00	2024-11-06T00:00:00	5	Humedad	71
8069	7	Sololá	701	Sololá	3	Barraneche	2	Febrero	2023-12-02T00:00:00	2024-11-06T00:00:00	6	Velocidad del viento	40.2
8070	7	Sololá	701	Sololá	3	Barraneche	2	Febrero	2023-12-02T00:00:00	2024-11-06T00:00:00	7	Dirección del viento	40.23
8071	7	Sololá	701	Sololá	3	Barraneche	2	Febrero	2023-12-02T00:00:00	2024-11-06T00:00:00	1	Precipitación	0
8072	7	Sololá	701	Sololá	3	Barraneche	2	Febrero	2023-12-02T00:00:00	2024-11-06T00:00:00	8	Radiación solar	0
8073	7	Sololá	701	Sololá	3	Barraneche	2	Febrero	2023-12-02T00:00:00	2024-11-06T01:00:00	2	Temperatura media	10.7
8074	7	Sololá	701	Sololá	3	Barraneche	2	Febrero	2023-12-02T00:00:00	2024-11-06T01:00:00	4	Temperatura máxima	10.9
8075	7	Sololá	701	Sololá	3	Barraneche	2	Febrero	2023-12-02T00:00:00	2024-11-06T01:00:00	3	Temperatura mínima	10.6
8076	7	Sololá	701	Sololá	3	Barraneche	2	Febrero	2023-12-02T00:00:00	2024-11-06T01:00:00	5	Humedad	70
8077	7	Sololá	701	Sololá	3	Barraneche	2	Febrero	2023-12-02T00:00:00	2024-11-06T01:00:00	6	Velocidad del viento	37
8078	7	Sololá	701	Sololá	3	Barraneche	2	Febrero	2023-12-02T00:00:00	2024-11-06T01:00:00	7	Dirección del viento	37.01
8079	7	Sololá	701	Sololá	3	Barraneche	2	Febrero	2023-12-02T00:00:00	2024-11-06T01:00:00	1	Precipitación	0
8080	7	Sololá	701	Sololá	3	Barraneche	2	Febrero	2023-12-02T00:00:00	2024-11-06T01:00:00	8	Radiación solar	0
8081	7	Sololá	701	Sololá	3	Barraneche	2	Febrero	2023-12-02T00:00:00	2024-11-06T02:00:00	2	Temperatura media	10.4
8082	7	Sololá	701	Sololá	3	Barraneche	2	Febrero	2023-12-02T00:00:00	2024-11-06T02:00:00	4	Temperatura máxima	10.7
8083	7	Sololá	701	Sololá	3	Barraneche	2	Febrero	2023-12-02T00:00:00	2024-11-06T02:00:00	3	Temperatura mínima	10.4
8084	7	Sololá	701	Sololá	3	Barraneche	2	Febrero	2023-12-02T00:00:00	2024-11-06T02:00:00	5	Humedad	69
8085	7	Sololá	701	Sololá	3	Barraneche	2	Febrero	2023-12-02T00:00:00	2024-11-06T02:00:00	6	Velocidad del viento	33.8
8086	7	Sololá	701	Sololá	3	Barraneche	2	Febrero	2023-12-02T00:00:00	2024-11-06T02:00:00	7	Dirección del viento	33.8
8087	7	Sololá	701	Sololá	3	Barraneche	2	Febrero	2023-12-02T00:00:00	2024-11-06T02:00:00	1	Precipitación	0
8088	7	Sololá	701	Sololá	3	Barraneche	2	Febrero	2023-12-02T00:00:00	2024-11-06T02:00:00	8	Radiación solar	0
8089	7	Sololá	701	Sololá	3	Barraneche	2	Febrero	2023-12-02T00:00:00	2024-11-06T03:00:00	2	Temperatura media	10.4
8090	7	Sololá	701	Sololá	3	Barraneche	2	Febrero	2023-12-02T00:00:00	2024-11-06T03:00:00	4	Temperatura máxima	10.8
8091	7	Sololá	701	Sololá	3	Barraneche	2	Febrero	2023-12-02T00:00:00	2024-11-06T03:00:00	3	Temperatura mínima	10.2
8092	7	Sololá	701	Sololá	3	Barraneche	2	Febrero	2023-12-02T00:00:00	2024-11-06T03:00:00	5	Humedad	67
8093	7	Sololá	701	Sololá	3	Barraneche	2	Febrero	2023-12-02T00:00:00	2024-11-06T03:00:00	6	Velocidad del viento	30.6
8094	7	Sololá	701	Sololá	3	Barraneche	2	Febrero	2023-12-02T00:00:00	2024-11-06T03:00:00	7	Dirección del viento	30.58
8095	7	Sololá	701	Sololá	3	Barraneche	2	Febrero	2023-12-02T00:00:00	2024-11-06T03:00:00	1	Precipitación	0
8096	7	Sololá	701	Sololá	3	Barraneche	2	Febrero	2023-12-02T00:00:00	2024-11-06T03:00:00	8	Radiación solar	0
8097	7	Sololá	701	Sololá	3	Barraneche	2	Febrero	2023-12-02T00:00:00	2024-11-06T04:00:00	2	Temperatura media	10.8
8098	7	Sololá	701	Sololá	3	Barraneche	2	Febrero	2023-12-02T00:00:00	2024-11-06T04:00:00	4	Temperatura máxima	11.2
8099	7	Sololá	701	Sololá	3	Barraneche	2	Febrero	2023-12-02T00:00:00	2024-11-06T04:00:00	3	Temperatura mínima	10.3
8100	7	Sololá	701	Sololá	3	Barraneche	2	Febrero	2023-12-02T00:00:00	2024-11-06T04:00:00	5	Humedad	63
8101	7	Sololá	701	Sololá	3	Barraneche	2	Febrero	2023-12-02T00:00:00	2024-11-06T04:00:00	6	Velocidad del viento	30.6
8102	7	Sololá	701	Sololá	3	Barraneche	2	Febrero	2023-12-02T00:00:00	2024-11-06T04:00:00	7	Dirección del viento	30.58
8103	7	Sololá	701	Sololá	3	Barraneche	2	Febrero	2023-12-02T00:00:00	2024-11-06T04:00:00	1	Precipitación	0
8104	7	Sololá	701	Sololá	3	Barraneche	2	Febrero	2023-12-02T00:00:00	2024-11-06T04:00:00	8	Radiación solar	0
8105	7	Sololá	701	Sololá	3	Barraneche	2	Febrero	2023-12-02T00:00:00	2024-11-06T05:00:00	2	Temperatura media	11
8106	7	Sololá	701	Sololá	3	Barraneche	2	Febrero	2023-12-02T00:00:00	2024-11-06T05:00:00	4	Temperatura máxima	11.2
8107	7	Sololá	701	Sololá	3	Barraneche	2	Febrero	2023-12-02T00:00:00	2024-11-06T05:00:00	3	Temperatura mínima	10.5
8108	7	Sololá	701	Sololá	3	Barraneche	2	Febrero	2023-12-02T00:00:00	2024-11-06T05:00:00	5	Humedad	60
8109	7	Sololá	701	Sololá	3	Barraneche	2	Febrero	2023-12-02T00:00:00	2024-11-06T05:00:00	6	Velocidad del viento	32.2
8110	7	Sololá	701	Sololá	3	Barraneche	2	Febrero	2023-12-02T00:00:00	2024-11-06T05:00:00	7	Dirección del viento	32.19
8111	7	Sololá	701	Sololá	3	Barraneche	2	Febrero	2023-12-02T00:00:00	2024-11-06T05:00:00	1	Precipitación	0
8112	7	Sololá	701	Sololá	3	Barraneche	2	Febrero	2023-12-02T00:00:00	2024-11-06T05:00:00	8	Radiación solar	0
8113	7	Sololá	701	Sololá	3	Barraneche	2	Febrero	2023-12-02T00:00:00	2024-11-06T06:00:00	2	Temperatura media	11.2
8114	7	Sololá	701	Sololá	3	Barraneche	2	Febrero	2023-12-02T00:00:00	2024-11-06T06:00:00	4	Temperatura máxima	11.3
8115	7	Sololá	701	Sololá	3	Barraneche	2	Febrero	2023-12-02T00:00:00	2024-11-06T06:00:00	3	Temperatura mínima	10.9
8116	7	Sololá	701	Sololá	3	Barraneche	2	Febrero	2023-12-02T00:00:00	2024-11-06T06:00:00	5	Humedad	58
8117	7	Sololá	701	Sololá	3	Barraneche	2	Febrero	2023-12-02T00:00:00	2024-11-06T06:00:00	6	Velocidad del viento	32.2
8118	7	Sololá	701	Sololá	3	Barraneche	2	Febrero	2023-12-02T00:00:00	2024-11-06T06:00:00	7	Dirección del viento	32.19
8119	7	Sololá	701	Sololá	3	Barraneche	2	Febrero	2023-12-02T00:00:00	2024-11-06T06:00:00	1	Precipitación	0
8120	7	Sololá	701	Sololá	3	Barraneche	2	Febrero	2023-12-02T00:00:00	2024-11-06T06:00:00	8	Radiación solar	0
8121	7	Sololá	701	Sololá	3	Barraneche	2	Febrero	2023-12-02T00:00:00	2024-11-06T07:00:00	2	Temperatura media	11.3
8122	7	Sololá	701	Sololá	3	Barraneche	2	Febrero	2023-12-02T00:00:00	2024-11-06T07:00:00	4	Temperatura máxima	11.4
8123	7	Sololá	701	Sololá	3	Barraneche	2	Febrero	2023-12-02T00:00:00	2024-11-06T07:00:00	3	Temperatura mínima	10.9
8124	7	Sololá	701	Sololá	3	Barraneche	2	Febrero	2023-12-02T00:00:00	2024-11-06T07:00:00	5	Humedad	58
8125	7	Sololá	701	Sololá	3	Barraneche	2	Febrero	2023-12-02T00:00:00	2024-11-06T07:00:00	6	Velocidad del viento	32.2
8126	7	Sololá	701	Sololá	3	Barraneche	2	Febrero	2023-12-02T00:00:00	2024-11-06T07:00:00	7	Dirección del viento	32.19
8127	7	Sololá	701	Sololá	3	Barraneche	2	Febrero	2023-12-02T00:00:00	2024-11-06T07:00:00	1	Precipitación	0
8128	7	Sololá	701	Sololá	3	Barraneche	2	Febrero	2023-12-02T00:00:00	2024-11-06T07:00:00	8	Radiación solar	6
8129	7	Sololá	701	Sololá	3	Barraneche	2	Febrero	2023-12-02T00:00:00	2024-11-06T08:00:00	2	Temperatura media	13.1
8130	7	Sololá	701	Sololá	3	Barraneche	2	Febrero	2023-12-02T00:00:00	2024-11-06T08:00:00	4	Temperatura máxima	13.1
8131	7	Sololá	701	Sololá	3	Barraneche	2	Febrero	2023-12-02T00:00:00	2024-11-06T08:00:00	3	Temperatura mínima	11.3
8132	7	Sololá	701	Sololá	3	Barraneche	2	Febrero	2023-12-02T00:00:00	2024-11-06T08:00:00	5	Humedad	53
8133	7	Sololá	701	Sololá	3	Barraneche	2	Febrero	2023-12-02T00:00:00	2024-11-06T08:00:00	6	Velocidad del viento	32.2
8134	7	Sololá	701	Sololá	3	Barraneche	2	Febrero	2023-12-02T00:00:00	2024-11-06T08:00:00	7	Dirección del viento	32.19
8135	7	Sololá	701	Sololá	3	Barraneche	2	Febrero	2023-12-02T00:00:00	2024-11-06T08:00:00	1	Precipitación	0
8136	7	Sololá	701	Sololá	3	Barraneche	2	Febrero	2023-12-02T00:00:00	2024-11-06T08:00:00	8	Radiación solar	173
8137	7	Sololá	701	Sololá	3	Barraneche	2	Febrero	2023-12-02T00:00:00	2024-11-06T09:00:00	2	Temperatura media	13.8
8138	7	Sololá	701	Sololá	3	Barraneche	2	Febrero	2023-12-02T00:00:00	2024-11-06T09:00:00	4	Temperatura máxima	13.9
8139	7	Sololá	701	Sololá	3	Barraneche	2	Febrero	2023-12-02T00:00:00	2024-11-06T09:00:00	3	Temperatura mínima	13.1
8140	7	Sololá	701	Sololá	3	Barraneche	2	Febrero	2023-12-02T00:00:00	2024-11-06T09:00:00	5	Humedad	52
8141	7	Sololá	701	Sololá	3	Barraneche	2	Febrero	2023-12-02T00:00:00	2024-11-06T09:00:00	6	Velocidad del viento	30.6
8142	7	Sololá	701	Sololá	3	Barraneche	2	Febrero	2023-12-02T00:00:00	2024-11-06T09:00:00	7	Dirección del viento	30.58
8143	7	Sololá	701	Sololá	3	Barraneche	2	Febrero	2023-12-02T00:00:00	2024-11-06T09:00:00	1	Precipitación	0
8144	7	Sololá	701	Sololá	3	Barraneche	2	Febrero	2023-12-02T00:00:00	2024-11-06T09:00:00	8	Radiación solar	450
8145	7	Sololá	701	Sololá	3	Barraneche	2	Febrero	2023-12-02T00:00:00	2024-11-06T10:00:00	2	Temperatura media	14.9
8146	7	Sololá	701	Sololá	3	Barraneche	2	Febrero	2023-12-02T00:00:00	2024-11-06T10:00:00	4	Temperatura máxima	15.1
8147	7	Sololá	701	Sololá	3	Barraneche	2	Febrero	2023-12-02T00:00:00	2024-11-06T10:00:00	3	Temperatura mínima	13.8
8148	7	Sololá	701	Sololá	3	Barraneche	2	Febrero	2023-12-02T00:00:00	2024-11-06T10:00:00	5	Humedad	49
8149	7	Sololá	701	Sololá	3	Barraneche	2	Febrero	2023-12-02T00:00:00	2024-11-06T10:00:00	6	Velocidad del viento	27.4
8150	7	Sololá	701	Sololá	3	Barraneche	2	Febrero	2023-12-02T00:00:00	2024-11-06T10:00:00	7	Dirección del viento	27.36
8151	7	Sololá	701	Sololá	3	Barraneche	2	Febrero	2023-12-02T00:00:00	2024-11-06T10:00:00	1	Precipitación	0
8152	7	Sololá	701	Sololá	3	Barraneche	2	Febrero	2023-12-02T00:00:00	2024-11-06T10:00:00	8	Radiación solar	676
8153	7	Sololá	701	Sololá	3	Barraneche	2	Febrero	2023-12-02T00:00:00	2024-11-06T11:00:00	2	Temperatura media	16.3
8154	7	Sololá	701	Sololá	3	Barraneche	2	Febrero	2023-12-02T00:00:00	2024-11-06T11:00:00	4	Temperatura máxima	16.3
8155	7	Sololá	701	Sololá	3	Barraneche	2	Febrero	2023-12-02T00:00:00	2024-11-06T11:00:00	3	Temperatura mínima	14.9
8156	7	Sololá	701	Sololá	3	Barraneche	2	Febrero	2023-12-02T00:00:00	2024-11-06T11:00:00	5	Humedad	45
8157	7	Sololá	701	Sololá	3	Barraneche	2	Febrero	2023-12-02T00:00:00	2024-11-06T11:00:00	6	Velocidad del viento	22.5
8158	7	Sololá	701	Sololá	3	Barraneche	2	Febrero	2023-12-02T00:00:00	2024-11-06T11:00:00	7	Dirección del viento	22.53
8159	7	Sololá	701	Sololá	3	Barraneche	2	Febrero	2023-12-02T00:00:00	2024-11-06T11:00:00	1	Precipitación	0
8160	7	Sololá	701	Sololá	3	Barraneche	2	Febrero	2023-12-02T00:00:00	2024-11-06T11:00:00	8	Radiación solar	847
8161	7	Sololá	701	Sololá	3	Barraneche	2	Febrero	2023-12-02T00:00:00	2024-11-06T12:00:00	2	Temperatura media	17.5
8162	7	Sololá	701	Sololá	3	Barraneche	2	Febrero	2023-12-02T00:00:00	2024-11-06T12:00:00	4	Temperatura máxima	17.6
8163	7	Sololá	701	Sololá	3	Barraneche	2	Febrero	2023-12-02T00:00:00	2024-11-06T12:00:00	3	Temperatura mínima	16.3
8164	7	Sololá	701	Sololá	3	Barraneche	2	Febrero	2023-12-02T00:00:00	2024-11-06T12:00:00	5	Humedad	42
8165	7	Sololá	701	Sololá	3	Barraneche	2	Febrero	2023-12-02T00:00:00	2024-11-06T12:00:00	6	Velocidad del viento	22.5
8166	7	Sololá	701	Sololá	3	Barraneche	2	Febrero	2023-12-02T00:00:00	2024-11-06T12:00:00	7	Dirección del viento	22.53
8167	7	Sololá	701	Sololá	3	Barraneche	2	Febrero	2023-12-02T00:00:00	2024-11-06T12:00:00	1	Precipitación	0
8168	7	Sololá	701	Sololá	3	Barraneche	2	Febrero	2023-12-02T00:00:00	2024-11-06T12:00:00	8	Radiación solar	945
8169	7	Sololá	701	Sololá	3	Barraneche	2	Febrero	2023-12-02T00:00:00	2024-11-06T13:00:00	2	Temperatura media	19.1
8170	7	Sololá	701	Sololá	3	Barraneche	2	Febrero	2023-12-02T00:00:00	2024-11-06T13:00:00	4	Temperatura máxima	19.1
8171	7	Sololá	701	Sololá	3	Barraneche	2	Febrero	2023-12-02T00:00:00	2024-11-06T13:00:00	3	Temperatura mínima	17.5
8172	7	Sololá	701	Sololá	3	Barraneche	2	Febrero	2023-12-02T00:00:00	2024-11-06T13:00:00	5	Humedad	40
8173	7	Sololá	701	Sololá	3	Barraneche	2	Febrero	2023-12-02T00:00:00	2024-11-06T13:00:00	6	Velocidad del viento	19.3
8174	7	Sololá	701	Sololá	3	Barraneche	2	Febrero	2023-12-02T00:00:00	2024-11-06T13:00:00	7	Dirección del viento	19.31
8175	7	Sololá	701	Sololá	3	Barraneche	2	Febrero	2023-12-02T00:00:00	2024-11-06T13:00:00	1	Precipitación	0
8176	7	Sololá	701	Sololá	3	Barraneche	2	Febrero	2023-12-02T00:00:00	2024-11-06T13:00:00	8	Radiación solar	966
8177	7	Sololá	701	Sololá	3	Barraneche	2	Febrero	2023-12-02T00:00:00	2024-11-06T14:00:00	2	Temperatura media	19.1
8178	7	Sololá	701	Sololá	3	Barraneche	2	Febrero	2023-12-02T00:00:00	2024-11-06T14:00:00	4	Temperatura máxima	19.2
8179	7	Sololá	701	Sololá	3	Barraneche	2	Febrero	2023-12-02T00:00:00	2024-11-06T14:00:00	3	Temperatura mínima	18.3
8180	7	Sololá	701	Sololá	3	Barraneche	2	Febrero	2023-12-02T00:00:00	2024-11-06T14:00:00	5	Humedad	38
8181	7	Sololá	701	Sololá	3	Barraneche	2	Febrero	2023-12-02T00:00:00	2024-11-06T14:00:00	6	Velocidad del viento	19.3
8182	7	Sololá	701	Sololá	3	Barraneche	2	Febrero	2023-12-02T00:00:00	2024-11-06T14:00:00	7	Dirección del viento	19.31
8183	7	Sololá	701	Sololá	3	Barraneche	2	Febrero	2023-12-02T00:00:00	2024-11-06T14:00:00	1	Precipitación	0
8184	7	Sololá	701	Sololá	3	Barraneche	2	Febrero	2023-12-02T00:00:00	2024-11-06T14:00:00	8	Radiación solar	911
8185	7	Sololá	701	Sololá	3	Barraneche	2	Febrero	2023-12-02T00:00:00	2024-11-06T15:00:00	2	Temperatura media	18.8
8186	7	Sololá	701	Sololá	3	Barraneche	2	Febrero	2023-12-02T00:00:00	2024-11-06T15:00:00	4	Temperatura máxima	19.1
8187	7	Sololá	701	Sololá	3	Barraneche	2	Febrero	2023-12-02T00:00:00	2024-11-06T15:00:00	3	Temperatura mínima	18.1
8188	7	Sololá	701	Sololá	3	Barraneche	2	Febrero	2023-12-02T00:00:00	2024-11-06T15:00:00	5	Humedad	39
8189	7	Sololá	701	Sololá	3	Barraneche	2	Febrero	2023-12-02T00:00:00	2024-11-06T15:00:00	6	Velocidad del viento	19.3
8190	7	Sololá	701	Sololá	3	Barraneche	2	Febrero	2023-12-02T00:00:00	2024-11-06T15:00:00	7	Dirección del viento	19.31
8191	7	Sololá	701	Sololá	3	Barraneche	2	Febrero	2023-12-02T00:00:00	2024-11-06T15:00:00	1	Precipitación	0
8192	7	Sololá	701	Sololá	3	Barraneche	2	Febrero	2023-12-02T00:00:00	2024-11-06T15:00:00	8	Radiación solar	777
8193	7	Sololá	701	Sololá	3	Barraneche	2	Febrero	2023-12-02T00:00:00	2024-11-06T16:00:00	2	Temperatura media	17.2
8194	7	Sololá	701	Sololá	3	Barraneche	2	Febrero	2023-12-02T00:00:00	2024-11-06T16:00:00	4	Temperatura máxima	18.8
8195	7	Sololá	701	Sololá	3	Barraneche	2	Febrero	2023-12-02T00:00:00	2024-11-06T16:00:00	3	Temperatura mínima	16.8
8196	7	Sololá	701	Sololá	3	Barraneche	2	Febrero	2023-12-02T00:00:00	2024-11-06T16:00:00	5	Humedad	46
8197	7	Sololá	701	Sololá	3	Barraneche	2	Febrero	2023-12-02T00:00:00	2024-11-06T16:00:00	6	Velocidad del viento	17.7
8198	7	Sololá	701	Sololá	3	Barraneche	2	Febrero	2023-12-02T00:00:00	2024-11-06T16:00:00	7	Dirección del viento	17.7
8199	7	Sololá	701	Sololá	3	Barraneche	2	Febrero	2023-12-02T00:00:00	2024-11-06T16:00:00	1	Precipitación	0
8200	7	Sololá	701	Sololá	3	Barraneche	2	Febrero	2023-12-02T00:00:00	2024-11-06T16:00:00	8	Radiación solar	586
8201	7	Sololá	701	Sololá	3	Barraneche	2	Febrero	2023-12-02T00:00:00	2024-11-06T17:00:00	2	Temperatura media	15.8
8202	7	Sololá	701	Sololá	3	Barraneche	2	Febrero	2023-12-02T00:00:00	2024-11-06T17:00:00	4	Temperatura máxima	17.4
8203	7	Sololá	701	Sololá	3	Barraneche	2	Febrero	2023-12-02T00:00:00	2024-11-06T17:00:00	3	Temperatura mínima	15.8
8204	7	Sololá	701	Sololá	3	Barraneche	2	Febrero	2023-12-02T00:00:00	2024-11-06T17:00:00	5	Humedad	49
8205	7	Sololá	701	Sololá	3	Barraneche	2	Febrero	2023-12-02T00:00:00	2024-11-06T17:00:00	6	Velocidad del viento	12.9
8206	7	Sololá	701	Sololá	3	Barraneche	2	Febrero	2023-12-02T00:00:00	2024-11-06T17:00:00	7	Dirección del viento	12.87
8207	7	Sololá	701	Sololá	3	Barraneche	2	Febrero	2023-12-02T00:00:00	2024-11-06T17:00:00	1	Precipitación	0
8208	7	Sololá	701	Sololá	3	Barraneche	2	Febrero	2023-12-02T00:00:00	2024-11-06T17:00:00	8	Radiación solar	345
8209	7	Sololá	701	Sololá	3	Barraneche	2	Febrero	2023-12-02T00:00:00	2024-11-06T18:00:00	2	Temperatura media	13.6
8210	7	Sololá	701	Sololá	3	Barraneche	2	Febrero	2023-12-02T00:00:00	2024-11-06T18:00:00	4	Temperatura máxima	15.9
8211	7	Sololá	701	Sololá	3	Barraneche	2	Febrero	2023-12-02T00:00:00	2024-11-06T18:00:00	3	Temperatura mínima	13.6
8212	7	Sololá	701	Sololá	3	Barraneche	2	Febrero	2023-12-02T00:00:00	2024-11-06T18:00:00	5	Humedad	57
8213	7	Sololá	701	Sololá	3	Barraneche	2	Febrero	2023-12-02T00:00:00	2024-11-06T18:00:00	6	Velocidad del viento	16.1
8214	7	Sololá	701	Sololá	3	Barraneche	2	Febrero	2023-12-02T00:00:00	2024-11-06T18:00:00	7	Dirección del viento	16.09
8215	7	Sololá	701	Sololá	3	Barraneche	2	Febrero	2023-12-02T00:00:00	2024-11-06T18:00:00	1	Precipitación	0
8216	7	Sololá	701	Sololá	3	Barraneche	2	Febrero	2023-12-02T00:00:00	2024-11-06T18:00:00	8	Radiación solar	87
8217	7	Sololá	701	Sololá	3	Barraneche	2	Febrero	2023-12-02T00:00:00	2024-11-06T19:00:00	2	Temperatura media	12.7
8218	7	Sololá	701	Sololá	3	Barraneche	2	Febrero	2023-12-02T00:00:00	2024-11-06T19:00:00	4	Temperatura máxima	13.6
8219	7	Sololá	701	Sololá	3	Barraneche	2	Febrero	2023-12-02T00:00:00	2024-11-06T19:00:00	3	Temperatura mínima	12.5
8220	7	Sololá	701	Sololá	3	Barraneche	2	Febrero	2023-12-02T00:00:00	2024-11-06T19:00:00	5	Humedad	54
8221	7	Sololá	701	Sololá	3	Barraneche	2	Febrero	2023-12-02T00:00:00	2024-11-06T19:00:00	6	Velocidad del viento	16.1
8222	7	Sololá	701	Sololá	3	Barraneche	2	Febrero	2023-12-02T00:00:00	2024-11-06T19:00:00	7	Dirección del viento	16.09
8223	7	Sololá	701	Sololá	3	Barraneche	2	Febrero	2023-12-02T00:00:00	2024-11-06T19:00:00	1	Precipitación	0
8224	7	Sololá	701	Sololá	3	Barraneche	2	Febrero	2023-12-02T00:00:00	2024-11-06T19:00:00	8	Radiación solar	0
8225	7	Sololá	701	Sololá	3	Barraneche	2	Febrero	2023-12-02T00:00:00	2024-11-06T20:00:00	2	Temperatura media	12.3
8226	7	Sololá	701	Sololá	3	Barraneche	2	Febrero	2023-12-02T00:00:00	2024-11-06T20:00:00	4	Temperatura máxima	12.7
8227	7	Sololá	701	Sololá	3	Barraneche	2	Febrero	2023-12-02T00:00:00	2024-11-06T20:00:00	3	Temperatura mínima	12.3
8228	7	Sololá	701	Sololá	3	Barraneche	2	Febrero	2023-12-02T00:00:00	2024-11-06T20:00:00	5	Humedad	51
8229	7	Sololá	701	Sololá	3	Barraneche	2	Febrero	2023-12-02T00:00:00	2024-11-06T20:00:00	6	Velocidad del viento	17.7
8230	7	Sololá	701	Sololá	3	Barraneche	2	Febrero	2023-12-02T00:00:00	2024-11-06T20:00:00	7	Dirección del viento	17.7
8231	7	Sololá	701	Sololá	3	Barraneche	2	Febrero	2023-12-02T00:00:00	2024-11-06T20:00:00	1	Precipitación	0
8232	7	Sololá	701	Sololá	3	Barraneche	2	Febrero	2023-12-02T00:00:00	2024-11-06T20:00:00	8	Radiación solar	0
8233	7	Sololá	701	Sololá	3	Barraneche	2	Febrero	2023-12-02T00:00:00	2024-11-06T21:00:00	2	Temperatura media	12.8
8234	7	Sololá	701	Sololá	3	Barraneche	2	Febrero	2023-12-02T00:00:00	2024-11-06T21:00:00	4	Temperatura máxima	12.9
8235	7	Sololá	701	Sololá	3	Barraneche	2	Febrero	2023-12-02T00:00:00	2024-11-06T21:00:00	3	Temperatura mínima	12.1
8236	7	Sololá	701	Sololá	3	Barraneche	2	Febrero	2023-12-02T00:00:00	2024-11-06T21:00:00	5	Humedad	57
8237	7	Sololá	701	Sololá	3	Barraneche	2	Febrero	2023-12-02T00:00:00	2024-11-06T21:00:00	6	Velocidad del viento	33.8
8238	7	Sololá	701	Sololá	3	Barraneche	2	Febrero	2023-12-02T00:00:00	2024-11-06T21:00:00	7	Dirección del viento	33.8
8239	7	Sololá	701	Sololá	3	Barraneche	2	Febrero	2023-12-02T00:00:00	2024-11-06T21:00:00	1	Precipitación	0
8240	7	Sololá	701	Sololá	3	Barraneche	2	Febrero	2023-12-02T00:00:00	2024-11-06T21:00:00	8	Radiación solar	0
8241	7	Sololá	701	Sololá	3	Barraneche	2	Febrero	2023-12-02T00:00:00	2024-11-06T22:00:00	2	Temperatura media	11.9
8242	7	Sololá	701	Sololá	3	Barraneche	2	Febrero	2023-12-02T00:00:00	2024-11-06T22:00:00	4	Temperatura máxima	12.9
8243	7	Sololá	701	Sololá	3	Barraneche	2	Febrero	2023-12-02T00:00:00	2024-11-06T22:00:00	3	Temperatura mínima	11.9
8244	7	Sololá	701	Sololá	3	Barraneche	2	Febrero	2023-12-02T00:00:00	2024-11-06T22:00:00	5	Humedad	60
8245	7	Sololá	701	Sololá	3	Barraneche	2	Febrero	2023-12-02T00:00:00	2024-11-06T22:00:00	6	Velocidad del viento	29
8246	7	Sololá	701	Sololá	3	Barraneche	2	Febrero	2023-12-02T00:00:00	2024-11-06T22:00:00	7	Dirección del viento	28.97
8247	7	Sololá	701	Sololá	3	Barraneche	2	Febrero	2023-12-02T00:00:00	2024-11-06T22:00:00	1	Precipitación	0
8248	7	Sololá	701	Sololá	3	Barraneche	2	Febrero	2023-12-02T00:00:00	2024-11-06T22:00:00	8	Radiación solar	0
8249	7	Sololá	701	Sololá	3	Barraneche	2	Febrero	2023-12-02T00:00:00	2024-11-06T23:00:00	2	Temperatura media	11.4
8250	7	Sololá	701	Sololá	3	Barraneche	2	Febrero	2023-12-02T00:00:00	2024-11-06T23:00:00	4	Temperatura máxima	12
8251	7	Sololá	701	Sololá	3	Barraneche	2	Febrero	2023-12-02T00:00:00	2024-11-06T23:00:00	3	Temperatura mínima	11
8252	7	Sololá	701	Sololá	3	Barraneche	2	Febrero	2023-12-02T00:00:00	2024-11-06T23:00:00	5	Humedad	62
8253	7	Sololá	701	Sololá	3	Barraneche	2	Febrero	2023-12-02T00:00:00	2024-11-06T23:00:00	6	Velocidad del viento	27.4
8254	7	Sololá	701	Sololá	3	Barraneche	2	Febrero	2023-12-02T00:00:00	2024-11-06T23:00:00	7	Dirección del viento	27.36
8255	7	Sololá	701	Sololá	3	Barraneche	2	Febrero	2023-12-02T00:00:00	2024-11-06T23:00:00	1	Precipitación	0
8256	7	Sololá	701	Sololá	3	Barraneche	2	Febrero	2023-12-02T00:00:00	2024-11-06T23:00:00	8	Radiación solar	0
8257	7	Sololá	701	Sololá	3	Barraneche	2	Febrero	2023-02-13T00:00:00	2024-11-06T00:00:00	2	Temperatura media	11.3
8258	7	Sololá	701	Sololá	3	Barraneche	2	Febrero	2023-02-13T00:00:00	2024-11-06T00:00:00	4	Temperatura máxima	11.7
8259	7	Sololá	701	Sololá	3	Barraneche	2	Febrero	2023-02-13T00:00:00	2024-11-06T00:00:00	3	Temperatura mínima	11.1
8260	7	Sololá	701	Sololá	3	Barraneche	2	Febrero	2023-02-13T00:00:00	2024-11-06T00:00:00	5	Humedad	60
8261	7	Sololá	701	Sololá	3	Barraneche	2	Febrero	2023-02-13T00:00:00	2024-11-06T00:00:00	6	Velocidad del viento	25.7
8262	7	Sololá	701	Sololá	3	Barraneche	2	Febrero	2023-02-13T00:00:00	2024-11-06T00:00:00	7	Dirección del viento	25.75
8263	7	Sololá	701	Sololá	3	Barraneche	2	Febrero	2023-02-13T00:00:00	2024-11-06T00:00:00	1	Precipitación	0
8264	7	Sololá	701	Sololá	3	Barraneche	2	Febrero	2023-02-13T00:00:00	2024-11-06T00:00:00	8	Radiación solar	0
8265	7	Sololá	701	Sololá	3	Barraneche	2	Febrero	2023-02-13T00:00:00	2024-11-06T01:00:00	2	Temperatura media	11.2
8266	7	Sololá	701	Sololá	3	Barraneche	2	Febrero	2023-02-13T00:00:00	2024-11-06T01:00:00	4	Temperatura máxima	11.8
8267	7	Sololá	701	Sololá	3	Barraneche	2	Febrero	2023-02-13T00:00:00	2024-11-06T01:00:00	3	Temperatura mínima	11.2
8268	7	Sololá	701	Sololá	3	Barraneche	2	Febrero	2023-02-13T00:00:00	2024-11-06T01:00:00	5	Humedad	62
8269	7	Sololá	701	Sololá	3	Barraneche	2	Febrero	2023-02-13T00:00:00	2024-11-06T01:00:00	6	Velocidad del viento	16.1
8270	7	Sololá	701	Sololá	3	Barraneche	2	Febrero	2023-02-13T00:00:00	2024-11-06T01:00:00	7	Dirección del viento	16.09
8271	7	Sololá	701	Sololá	3	Barraneche	2	Febrero	2023-02-13T00:00:00	2024-11-06T01:00:00	1	Precipitación	0
8272	7	Sololá	701	Sololá	3	Barraneche	2	Febrero	2023-02-13T00:00:00	2024-11-06T01:00:00	8	Radiación solar	0
8273	7	Sololá	701	Sololá	3	Barraneche	2	Febrero	2023-02-13T00:00:00	2024-11-06T02:00:00	2	Temperatura media	10.9
8274	7	Sololá	701	Sololá	3	Barraneche	2	Febrero	2023-02-13T00:00:00	2024-11-06T02:00:00	4	Temperatura máxima	11.3
8275	7	Sololá	701	Sololá	3	Barraneche	2	Febrero	2023-02-13T00:00:00	2024-11-06T02:00:00	3	Temperatura mínima	10.9
8276	7	Sololá	701	Sololá	3	Barraneche	2	Febrero	2023-02-13T00:00:00	2024-11-06T02:00:00	5	Humedad	63
8277	7	Sololá	701	Sololá	3	Barraneche	2	Febrero	2023-02-13T00:00:00	2024-11-06T02:00:00	6	Velocidad del viento	11.3
8278	7	Sololá	701	Sololá	3	Barraneche	2	Febrero	2023-02-13T00:00:00	2024-11-06T02:00:00	7	Dirección del viento	11.27
8279	7	Sololá	701	Sololá	3	Barraneche	2	Febrero	2023-02-13T00:00:00	2024-11-06T02:00:00	1	Precipitación	0
8280	7	Sololá	701	Sololá	3	Barraneche	2	Febrero	2023-02-13T00:00:00	2024-11-06T02:00:00	8	Radiación solar	0
8281	7	Sololá	701	Sololá	3	Barraneche	2	Febrero	2023-02-13T00:00:00	2024-11-06T03:00:00	2	Temperatura media	10.8
8282	7	Sololá	701	Sololá	3	Barraneche	2	Febrero	2023-02-13T00:00:00	2024-11-06T03:00:00	4	Temperatura máxima	11.2
8283	7	Sololá	701	Sololá	3	Barraneche	2	Febrero	2023-02-13T00:00:00	2024-11-06T03:00:00	3	Temperatura mínima	10.7
8284	7	Sololá	701	Sololá	3	Barraneche	2	Febrero	2023-02-13T00:00:00	2024-11-06T03:00:00	5	Humedad	65
8285	7	Sololá	701	Sololá	3	Barraneche	2	Febrero	2023-02-13T00:00:00	2024-11-06T03:00:00	6	Velocidad del viento	17.7
8286	7	Sololá	701	Sololá	3	Barraneche	2	Febrero	2023-02-13T00:00:00	2024-11-06T03:00:00	7	Dirección del viento	17.7
8287	7	Sololá	701	Sololá	3	Barraneche	2	Febrero	2023-02-13T00:00:00	2024-11-06T03:00:00	1	Precipitación	0
8288	7	Sololá	701	Sololá	3	Barraneche	2	Febrero	2023-02-13T00:00:00	2024-11-06T03:00:00	8	Radiación solar	0
8289	7	Sololá	701	Sololá	3	Barraneche	2	Febrero	2023-02-13T00:00:00	2024-11-06T04:00:00	2	Temperatura media	11.3
8290	7	Sololá	701	Sololá	3	Barraneche	2	Febrero	2023-02-13T00:00:00	2024-11-06T04:00:00	4	Temperatura máxima	11.3
8291	7	Sololá	701	Sololá	3	Barraneche	2	Febrero	2023-02-13T00:00:00	2024-11-06T04:00:00	3	Temperatura mínima	10.7
8292	7	Sololá	701	Sololá	3	Barraneche	2	Febrero	2023-02-13T00:00:00	2024-11-06T04:00:00	5	Humedad	63
8293	7	Sololá	701	Sololá	3	Barraneche	2	Febrero	2023-02-13T00:00:00	2024-11-06T04:00:00	6	Velocidad del viento	17.7
8294	7	Sololá	701	Sololá	3	Barraneche	2	Febrero	2023-02-13T00:00:00	2024-11-06T04:00:00	7	Dirección del viento	17.7
8295	7	Sololá	701	Sololá	3	Barraneche	2	Febrero	2023-02-13T00:00:00	2024-11-06T04:00:00	1	Precipitación	0
8296	7	Sololá	701	Sololá	3	Barraneche	2	Febrero	2023-02-13T00:00:00	2024-11-06T04:00:00	8	Radiación solar	0
8297	7	Sololá	701	Sololá	3	Barraneche	2	Febrero	2023-02-13T00:00:00	2024-11-06T05:00:00	2	Temperatura media	10.8
8298	7	Sololá	701	Sololá	3	Barraneche	2	Febrero	2023-02-13T00:00:00	2024-11-06T05:00:00	4	Temperatura máxima	11.3
8299	7	Sololá	701	Sololá	3	Barraneche	2	Febrero	2023-02-13T00:00:00	2024-11-06T05:00:00	3	Temperatura mínima	10.8
8300	7	Sololá	701	Sololá	3	Barraneche	2	Febrero	2023-02-13T00:00:00	2024-11-06T05:00:00	5	Humedad	64
8301	7	Sololá	701	Sololá	3	Barraneche	2	Febrero	2023-02-13T00:00:00	2024-11-06T05:00:00	6	Velocidad del viento	20.9
8302	7	Sololá	701	Sololá	3	Barraneche	2	Febrero	2023-02-13T00:00:00	2024-11-06T05:00:00	7	Dirección del viento	20.92
8303	7	Sololá	701	Sololá	3	Barraneche	2	Febrero	2023-02-13T00:00:00	2024-11-06T05:00:00	1	Precipitación	0
8304	7	Sololá	701	Sololá	3	Barraneche	2	Febrero	2023-02-13T00:00:00	2024-11-06T05:00:00	8	Radiación solar	0
8305	7	Sololá	701	Sololá	3	Barraneche	2	Febrero	2023-02-13T00:00:00	2024-11-06T06:00:00	2	Temperatura media	10.3
8306	7	Sololá	701	Sololá	3	Barraneche	2	Febrero	2023-02-13T00:00:00	2024-11-06T06:00:00	4	Temperatura máxima	11.1
8307	7	Sololá	701	Sololá	3	Barraneche	2	Febrero	2023-02-13T00:00:00	2024-11-06T06:00:00	3	Temperatura mínima	10.3
8308	7	Sololá	701	Sololá	3	Barraneche	2	Febrero	2023-02-13T00:00:00	2024-11-06T06:00:00	5	Humedad	67
8309	7	Sololá	701	Sololá	3	Barraneche	2	Febrero	2023-02-13T00:00:00	2024-11-06T06:00:00	6	Velocidad del viento	22.5
8310	7	Sololá	701	Sololá	3	Barraneche	2	Febrero	2023-02-13T00:00:00	2024-11-06T06:00:00	7	Dirección del viento	22.53
8311	7	Sololá	701	Sololá	3	Barraneche	2	Febrero	2023-02-13T00:00:00	2024-11-06T06:00:00	1	Precipitación	0
8312	7	Sololá	701	Sololá	3	Barraneche	2	Febrero	2023-02-13T00:00:00	2024-11-06T06:00:00	8	Radiación solar	0
8313	7	Sololá	701	Sololá	3	Barraneche	2	Febrero	2023-02-13T00:00:00	2024-11-06T07:00:00	2	Temperatura media	10.3
8314	7	Sololá	701	Sololá	3	Barraneche	2	Febrero	2023-02-13T00:00:00	2024-11-06T07:00:00	4	Temperatura máxima	10.6
8315	7	Sololá	701	Sololá	3	Barraneche	2	Febrero	2023-02-13T00:00:00	2024-11-06T07:00:00	3	Temperatura mínima	10.3
8316	7	Sololá	701	Sololá	3	Barraneche	2	Febrero	2023-02-13T00:00:00	2024-11-06T07:00:00	5	Humedad	68
8317	7	Sololá	701	Sololá	3	Barraneche	2	Febrero	2023-02-13T00:00:00	2024-11-06T07:00:00	6	Velocidad del viento	20.9
8318	7	Sololá	701	Sololá	3	Barraneche	2	Febrero	2023-02-13T00:00:00	2024-11-06T07:00:00	7	Dirección del viento	20.92
8319	7	Sololá	701	Sololá	3	Barraneche	2	Febrero	2023-02-13T00:00:00	2024-11-06T07:00:00	1	Precipitación	0
8320	7	Sololá	701	Sololá	3	Barraneche	2	Febrero	2023-02-13T00:00:00	2024-11-06T07:00:00	8	Radiación solar	6
8321	7	Sololá	701	Sololá	3	Barraneche	2	Febrero	2023-02-13T00:00:00	2024-11-06T08:00:00	2	Temperatura media	11.7
8322	7	Sololá	701	Sololá	3	Barraneche	2	Febrero	2023-02-13T00:00:00	2024-11-06T08:00:00	4	Temperatura máxima	11.7
8323	7	Sololá	701	Sololá	3	Barraneche	2	Febrero	2023-02-13T00:00:00	2024-11-06T08:00:00	3	Temperatura mínima	10.2
8324	7	Sololá	701	Sololá	3	Barraneche	2	Febrero	2023-02-13T00:00:00	2024-11-06T08:00:00	5	Humedad	63
8325	7	Sololá	701	Sololá	3	Barraneche	2	Febrero	2023-02-13T00:00:00	2024-11-06T08:00:00	6	Velocidad del viento	17.7
8326	7	Sololá	701	Sololá	3	Barraneche	2	Febrero	2023-02-13T00:00:00	2024-11-06T08:00:00	7	Dirección del viento	17.7
8327	7	Sololá	701	Sololá	3	Barraneche	2	Febrero	2023-02-13T00:00:00	2024-11-06T08:00:00	1	Precipitación	0
8328	7	Sololá	701	Sololá	3	Barraneche	2	Febrero	2023-02-13T00:00:00	2024-11-06T08:00:00	8	Radiación solar	171
8329	7	Sololá	701	Sololá	3	Barraneche	2	Febrero	2023-02-13T00:00:00	2024-11-06T09:00:00	2	Temperatura media	12.8
8330	7	Sololá	701	Sololá	3	Barraneche	2	Febrero	2023-02-13T00:00:00	2024-11-06T09:00:00	4	Temperatura máxima	12.8
8331	7	Sololá	701	Sololá	3	Barraneche	2	Febrero	2023-02-13T00:00:00	2024-11-06T09:00:00	3	Temperatura mínima	11.6
8332	7	Sololá	701	Sololá	3	Barraneche	2	Febrero	2023-02-13T00:00:00	2024-11-06T09:00:00	5	Humedad	61
8333	7	Sololá	701	Sololá	3	Barraneche	2	Febrero	2023-02-13T00:00:00	2024-11-06T09:00:00	6	Velocidad del viento	19.3
8334	7	Sololá	701	Sololá	3	Barraneche	2	Febrero	2023-02-13T00:00:00	2024-11-06T09:00:00	7	Dirección del viento	19.31
8335	7	Sololá	701	Sololá	3	Barraneche	2	Febrero	2023-02-13T00:00:00	2024-11-06T09:00:00	1	Precipitación	0
8336	7	Sololá	701	Sololá	3	Barraneche	2	Febrero	2023-02-13T00:00:00	2024-11-06T09:00:00	8	Radiación solar	465
8337	7	Sololá	701	Sololá	3	Barraneche	2	Febrero	2023-02-13T00:00:00	2024-11-06T10:00:00	2	Temperatura media	14.2
8338	7	Sololá	701	Sololá	3	Barraneche	2	Febrero	2023-02-13T00:00:00	2024-11-06T10:00:00	4	Temperatura máxima	14.3
8339	7	Sololá	701	Sololá	3	Barraneche	2	Febrero	2023-02-13T00:00:00	2024-11-06T10:00:00	3	Temperatura mínima	12.6
8340	7	Sololá	701	Sololá	3	Barraneche	2	Febrero	2023-02-13T00:00:00	2024-11-06T10:00:00	5	Humedad	53
8341	7	Sololá	701	Sololá	3	Barraneche	2	Febrero	2023-02-13T00:00:00	2024-11-06T10:00:00	6	Velocidad del viento	19.3
8342	7	Sololá	701	Sololá	3	Barraneche	2	Febrero	2023-02-13T00:00:00	2024-11-06T10:00:00	7	Dirección del viento	19.31
8343	7	Sololá	701	Sololá	3	Barraneche	2	Febrero	2023-02-13T00:00:00	2024-11-06T10:00:00	1	Precipitación	0
8344	7	Sololá	701	Sololá	3	Barraneche	2	Febrero	2023-02-13T00:00:00	2024-11-06T10:00:00	8	Radiación solar	687
8345	7	Sololá	701	Sololá	3	Barraneche	2	Febrero	2023-02-13T00:00:00	2024-11-06T11:00:00	2	Temperatura media	15.9
8346	7	Sololá	701	Sololá	3	Barraneche	2	Febrero	2023-02-13T00:00:00	2024-11-06T11:00:00	4	Temperatura máxima	15.9
8347	7	Sololá	701	Sololá	3	Barraneche	2	Febrero	2023-02-13T00:00:00	2024-11-06T11:00:00	3	Temperatura mínima	14
8348	7	Sololá	701	Sololá	3	Barraneche	2	Febrero	2023-02-13T00:00:00	2024-11-06T11:00:00	5	Humedad	49
8349	7	Sololá	701	Sololá	3	Barraneche	2	Febrero	2023-02-13T00:00:00	2024-11-06T11:00:00	6	Velocidad del viento	16.1
8350	7	Sololá	701	Sololá	3	Barraneche	2	Febrero	2023-02-13T00:00:00	2024-11-06T11:00:00	7	Dirección del viento	16.09
8351	7	Sololá	701	Sololá	3	Barraneche	2	Febrero	2023-02-13T00:00:00	2024-11-06T11:00:00	1	Precipitación	0
8352	7	Sololá	701	Sololá	3	Barraneche	2	Febrero	2023-02-13T00:00:00	2024-11-06T11:00:00	8	Radiación solar	855
8353	7	Sololá	701	Sololá	3	Barraneche	2	Febrero	2023-02-13T00:00:00	2024-11-06T12:00:00	2	Temperatura media	17.2
8354	7	Sololá	701	Sololá	3	Barraneche	2	Febrero	2023-02-13T00:00:00	2024-11-06T12:00:00	4	Temperatura máxima	17.2
8355	7	Sololá	701	Sololá	3	Barraneche	2	Febrero	2023-02-13T00:00:00	2024-11-06T12:00:00	3	Temperatura mínima	15.4
8356	7	Sololá	701	Sololá	3	Barraneche	2	Febrero	2023-02-13T00:00:00	2024-11-06T12:00:00	5	Humedad	46
8357	7	Sololá	701	Sololá	3	Barraneche	2	Febrero	2023-02-13T00:00:00	2024-11-06T12:00:00	6	Velocidad del viento	17.7
8358	7	Sololá	701	Sololá	3	Barraneche	2	Febrero	2023-02-13T00:00:00	2024-11-06T12:00:00	7	Dirección del viento	17.7
8359	7	Sololá	701	Sololá	3	Barraneche	2	Febrero	2023-02-13T00:00:00	2024-11-06T12:00:00	1	Precipitación	0
8360	7	Sololá	701	Sololá	3	Barraneche	2	Febrero	2023-02-13T00:00:00	2024-11-06T12:00:00	8	Radiación solar	967
8361	7	Sololá	701	Sololá	3	Barraneche	2	Febrero	2023-02-13T00:00:00	2024-11-06T13:00:00	2	Temperatura media	17.1
8362	7	Sololá	701	Sololá	3	Barraneche	2	Febrero	2023-02-13T00:00:00	2024-11-06T13:00:00	4	Temperatura máxima	17.6
8363	7	Sololá	701	Sololá	3	Barraneche	2	Febrero	2023-02-13T00:00:00	2024-11-06T13:00:00	3	Temperatura mínima	17.1
8364	7	Sololá	701	Sololá	3	Barraneche	2	Febrero	2023-02-13T00:00:00	2024-11-06T13:00:00	5	Humedad	43
8365	7	Sololá	701	Sololá	3	Barraneche	2	Febrero	2023-02-13T00:00:00	2024-11-06T13:00:00	6	Velocidad del viento	11.3
8366	7	Sololá	701	Sololá	3	Barraneche	2	Febrero	2023-02-13T00:00:00	2024-11-06T13:00:00	7	Dirección del viento	11.27
8367	7	Sololá	701	Sololá	3	Barraneche	2	Febrero	2023-02-13T00:00:00	2024-11-06T13:00:00	1	Precipitación	0
8368	7	Sololá	701	Sololá	3	Barraneche	2	Febrero	2023-02-13T00:00:00	2024-11-06T13:00:00	8	Radiación solar	1010
8369	7	Sololá	701	Sololá	3	Barraneche	2	Febrero	2023-02-13T00:00:00	2024-11-06T14:00:00	2	Temperatura media	18.2
8370	7	Sololá	701	Sololá	3	Barraneche	2	Febrero	2023-02-13T00:00:00	2024-11-06T14:00:00	4	Temperatura máxima	18.2
8371	7	Sololá	701	Sololá	3	Barraneche	2	Febrero	2023-02-13T00:00:00	2024-11-06T14:00:00	3	Temperatura mínima	17.1
8372	7	Sololá	701	Sololá	3	Barraneche	2	Febrero	2023-02-13T00:00:00	2024-11-06T14:00:00	5	Humedad	38
8373	7	Sololá	701	Sololá	3	Barraneche	2	Febrero	2023-02-13T00:00:00	2024-11-06T14:00:00	6	Velocidad del viento	16.1
8374	7	Sololá	701	Sololá	3	Barraneche	2	Febrero	2023-02-13T00:00:00	2024-11-06T14:00:00	7	Dirección del viento	16.09
8375	7	Sololá	701	Sololá	3	Barraneche	2	Febrero	2023-02-13T00:00:00	2024-11-06T14:00:00	1	Precipitación	0
8376	7	Sololá	701	Sololá	3	Barraneche	2	Febrero	2023-02-13T00:00:00	2024-11-06T14:00:00	8	Radiación solar	955
8377	7	Sololá	701	Sololá	3	Barraneche	2	Febrero	2023-02-13T00:00:00	2024-11-06T15:00:00	2	Temperatura media	18.6
8378	7	Sololá	701	Sololá	3	Barraneche	2	Febrero	2023-02-13T00:00:00	2024-11-06T15:00:00	4	Temperatura máxima	19.1
8379	7	Sololá	701	Sololá	3	Barraneche	2	Febrero	2023-02-13T00:00:00	2024-11-06T15:00:00	3	Temperatura mínima	17.9
8380	7	Sololá	701	Sololá	3	Barraneche	2	Febrero	2023-02-13T00:00:00	2024-11-06T15:00:00	5	Humedad	37
8381	7	Sololá	701	Sololá	3	Barraneche	2	Febrero	2023-02-13T00:00:00	2024-11-06T15:00:00	6	Velocidad del viento	9.7
8382	7	Sololá	701	Sololá	3	Barraneche	2	Febrero	2023-02-13T00:00:00	2024-11-06T15:00:00	7	Dirección del viento	9.66
8383	7	Sololá	701	Sololá	3	Barraneche	2	Febrero	2023-02-13T00:00:00	2024-11-06T15:00:00	1	Precipitación	0
8384	7	Sololá	701	Sololá	3	Barraneche	2	Febrero	2023-02-13T00:00:00	2024-11-06T15:00:00	8	Radiación solar	834
8385	7	Sololá	701	Sololá	3	Barraneche	2	Febrero	2023-02-13T00:00:00	2024-11-06T16:00:00	2	Temperatura media	17.9
8386	7	Sololá	701	Sololá	3	Barraneche	2	Febrero	2023-02-13T00:00:00	2024-11-06T16:00:00	4	Temperatura máxima	18.6
8387	7	Sololá	701	Sololá	3	Barraneche	2	Febrero	2023-02-13T00:00:00	2024-11-06T16:00:00	3	Temperatura mínima	17.7
8388	7	Sololá	701	Sololá	3	Barraneche	2	Febrero	2023-02-13T00:00:00	2024-11-06T16:00:00	5	Humedad	36
8389	7	Sololá	701	Sololá	3	Barraneche	2	Febrero	2023-02-13T00:00:00	2024-11-06T16:00:00	6	Velocidad del viento	9.7
8390	7	Sololá	701	Sololá	3	Barraneche	2	Febrero	2023-02-13T00:00:00	2024-11-06T16:00:00	7	Dirección del viento	9.66
8391	7	Sololá	701	Sololá	3	Barraneche	2	Febrero	2023-02-13T00:00:00	2024-11-06T16:00:00	1	Precipitación	0
8392	7	Sololá	701	Sololá	3	Barraneche	2	Febrero	2023-02-13T00:00:00	2024-11-06T16:00:00	8	Radiación solar	597
8393	7	Sololá	701	Sololá	3	Barraneche	2	Febrero	2023-02-13T00:00:00	2024-11-06T17:00:00	2	Temperatura media	16.7
8394	7	Sololá	701	Sololá	3	Barraneche	2	Febrero	2023-02-13T00:00:00	2024-11-06T17:00:00	4	Temperatura máxima	18.1
8395	7	Sololá	701	Sololá	3	Barraneche	2	Febrero	2023-02-13T00:00:00	2024-11-06T17:00:00	3	Temperatura mínima	16.7
8396	7	Sololá	701	Sololá	3	Barraneche	2	Febrero	2023-02-13T00:00:00	2024-11-06T17:00:00	5	Humedad	46
8397	7	Sololá	701	Sololá	3	Barraneche	2	Febrero	2023-02-13T00:00:00	2024-11-06T17:00:00	6	Velocidad del viento	11.3
8398	7	Sololá	701	Sololá	3	Barraneche	2	Febrero	2023-02-13T00:00:00	2024-11-06T17:00:00	7	Dirección del viento	11.27
8399	7	Sololá	701	Sololá	3	Barraneche	2	Febrero	2023-02-13T00:00:00	2024-11-06T17:00:00	1	Precipitación	0
8400	7	Sololá	701	Sololá	3	Barraneche	2	Febrero	2023-02-13T00:00:00	2024-11-06T17:00:00	8	Radiación solar	349
8401	7	Sololá	701	Sololá	3	Barraneche	2	Febrero	2023-02-13T00:00:00	2024-11-06T18:00:00	2	Temperatura media	14
8402	7	Sololá	701	Sololá	3	Barraneche	2	Febrero	2023-02-13T00:00:00	2024-11-06T18:00:00	4	Temperatura máxima	16.7
8403	7	Sololá	701	Sololá	3	Barraneche	2	Febrero	2023-02-13T00:00:00	2024-11-06T18:00:00	3	Temperatura mínima	14
8404	7	Sololá	701	Sololá	3	Barraneche	2	Febrero	2023-02-13T00:00:00	2024-11-06T18:00:00	5	Humedad	56
8405	7	Sololá	701	Sololá	3	Barraneche	2	Febrero	2023-02-13T00:00:00	2024-11-06T18:00:00	6	Velocidad del viento	11.3
8406	7	Sololá	701	Sololá	3	Barraneche	2	Febrero	2023-02-13T00:00:00	2024-11-06T18:00:00	7	Dirección del viento	11.27
8407	7	Sololá	701	Sololá	3	Barraneche	2	Febrero	2023-02-13T00:00:00	2024-11-06T18:00:00	1	Precipitación	0
8408	7	Sololá	701	Sololá	3	Barraneche	2	Febrero	2023-02-13T00:00:00	2024-11-06T18:00:00	8	Radiación solar	88
8409	7	Sololá	701	Sololá	3	Barraneche	2	Febrero	2023-02-13T00:00:00	2024-11-06T19:00:00	2	Temperatura media	12.4
8410	7	Sololá	701	Sololá	3	Barraneche	2	Febrero	2023-02-13T00:00:00	2024-11-06T19:00:00	4	Temperatura máxima	14
8411	7	Sololá	701	Sololá	3	Barraneche	2	Febrero	2023-02-13T00:00:00	2024-11-06T19:00:00	3	Temperatura mínima	12.4
8412	7	Sololá	701	Sololá	3	Barraneche	2	Febrero	2023-02-13T00:00:00	2024-11-06T19:00:00	5	Humedad	60
8413	7	Sololá	701	Sololá	3	Barraneche	2	Febrero	2023-02-13T00:00:00	2024-11-06T19:00:00	6	Velocidad del viento	4.8
8414	7	Sololá	701	Sololá	3	Barraneche	2	Febrero	2023-02-13T00:00:00	2024-11-06T19:00:00	7	Dirección del viento	4.83
8415	7	Sololá	701	Sololá	3	Barraneche	2	Febrero	2023-02-13T00:00:00	2024-11-06T19:00:00	1	Precipitación	0
8416	7	Sololá	701	Sololá	3	Barraneche	2	Febrero	2023-02-13T00:00:00	2024-11-06T19:00:00	8	Radiación solar	0
8417	7	Sololá	701	Sololá	3	Barraneche	2	Febrero	2023-02-13T00:00:00	2024-11-06T20:00:00	2	Temperatura media	11.7
8418	7	Sololá	701	Sololá	3	Barraneche	2	Febrero	2023-02-13T00:00:00	2024-11-06T20:00:00	4	Temperatura máxima	12.4
8419	7	Sololá	701	Sololá	3	Barraneche	2	Febrero	2023-02-13T00:00:00	2024-11-06T20:00:00	3	Temperatura mínima	11.3
8420	7	Sololá	701	Sololá	3	Barraneche	2	Febrero	2023-02-13T00:00:00	2024-11-06T20:00:00	5	Humedad	63
8421	7	Sololá	701	Sololá	3	Barraneche	2	Febrero	2023-02-13T00:00:00	2024-11-06T20:00:00	6	Velocidad del viento	4.8
8422	7	Sololá	701	Sololá	3	Barraneche	2	Febrero	2023-02-13T00:00:00	2024-11-06T20:00:00	7	Dirección del viento	4.83
8423	7	Sololá	701	Sololá	3	Barraneche	2	Febrero	2023-02-13T00:00:00	2024-11-06T20:00:00	1	Precipitación	0
8424	7	Sololá	701	Sololá	3	Barraneche	2	Febrero	2023-02-13T00:00:00	2024-11-06T20:00:00	8	Radiación solar	0
8425	7	Sololá	701	Sololá	3	Barraneche	2	Febrero	2023-02-13T00:00:00	2024-11-06T21:00:00	2	Temperatura media	11.9
8426	7	Sololá	701	Sololá	3	Barraneche	2	Febrero	2023-02-13T00:00:00	2024-11-06T21:00:00	4	Temperatura máxima	12.1
8427	7	Sololá	701	Sololá	3	Barraneche	2	Febrero	2023-02-13T00:00:00	2024-11-06T21:00:00	3	Temperatura mínima	11.7
8428	7	Sololá	701	Sololá	3	Barraneche	2	Febrero	2023-02-13T00:00:00	2024-11-06T21:00:00	5	Humedad	54
8429	7	Sololá	701	Sololá	3	Barraneche	2	Febrero	2023-02-13T00:00:00	2024-11-06T21:00:00	6	Velocidad del viento	8
8430	7	Sololá	701	Sololá	3	Barraneche	2	Febrero	2023-02-13T00:00:00	2024-11-06T21:00:00	7	Dirección del viento	8.05
8431	7	Sololá	701	Sololá	3	Barraneche	2	Febrero	2023-02-13T00:00:00	2024-11-06T21:00:00	1	Precipitación	0
8432	7	Sololá	701	Sololá	3	Barraneche	2	Febrero	2023-02-13T00:00:00	2024-11-06T21:00:00	8	Radiación solar	0
8433	7	Sololá	701	Sololá	3	Barraneche	2	Febrero	2023-02-13T00:00:00	2024-11-06T22:00:00	2	Temperatura media	9.9
8434	7	Sololá	701	Sololá	3	Barraneche	2	Febrero	2023-02-13T00:00:00	2024-11-06T22:00:00	4	Temperatura máxima	11.9
8435	7	Sololá	701	Sololá	3	Barraneche	2	Febrero	2023-02-13T00:00:00	2024-11-06T22:00:00	3	Temperatura mínima	9.9
8436	7	Sololá	701	Sololá	3	Barraneche	2	Febrero	2023-02-13T00:00:00	2024-11-06T22:00:00	5	Humedad	54
8437	7	Sololá	701	Sololá	3	Barraneche	2	Febrero	2023-02-13T00:00:00	2024-11-06T22:00:00	6	Velocidad del viento	6.4
8438	7	Sololá	701	Sololá	3	Barraneche	2	Febrero	2023-02-13T00:00:00	2024-11-06T22:00:00	7	Dirección del viento	6.44
8439	7	Sololá	701	Sololá	3	Barraneche	2	Febrero	2023-02-13T00:00:00	2024-11-06T22:00:00	1	Precipitación	0
8440	7	Sololá	701	Sololá	3	Barraneche	2	Febrero	2023-02-13T00:00:00	2024-11-06T22:00:00	8	Radiación solar	0
8441	7	Sololá	701	Sololá	3	Barraneche	2	Febrero	2023-02-13T00:00:00	2024-11-06T23:00:00	2	Temperatura media	8.7
8442	7	Sololá	701	Sololá	3	Barraneche	2	Febrero	2023-02-13T00:00:00	2024-11-06T23:00:00	4	Temperatura máxima	9.9
8443	7	Sololá	701	Sololá	3	Barraneche	2	Febrero	2023-02-13T00:00:00	2024-11-06T23:00:00	3	Temperatura mínima	8.7
8444	7	Sololá	701	Sololá	3	Barraneche	2	Febrero	2023-02-13T00:00:00	2024-11-06T23:00:00	5	Humedad	56
8445	7	Sololá	701	Sololá	3	Barraneche	2	Febrero	2023-02-13T00:00:00	2024-11-06T23:00:00	6	Velocidad del viento	4.8
8446	7	Sololá	701	Sololá	3	Barraneche	2	Febrero	2023-02-13T00:00:00	2024-11-06T23:00:00	7	Dirección del viento	4.83
8447	7	Sololá	701	Sololá	3	Barraneche	2	Febrero	2023-02-13T00:00:00	2024-11-06T23:00:00	1	Precipitación	0
8448	7	Sololá	701	Sololá	3	Barraneche	2	Febrero	2023-02-13T00:00:00	2024-11-06T23:00:00	8	Radiación solar	0
8449	7	Sololá	701	Sololá	3	Barraneche	2	Febrero	2023-02-14T00:00:00	2024-11-06T00:00:00	2	Temperatura media	8.7
8450	7	Sololá	701	Sololá	3	Barraneche	2	Febrero	2023-02-14T00:00:00	2024-11-06T00:00:00	4	Temperatura máxima	8.9
8451	7	Sololá	701	Sololá	3	Barraneche	2	Febrero	2023-02-14T00:00:00	2024-11-06T00:00:00	3	Temperatura mínima	8.5
8452	7	Sololá	701	Sololá	3	Barraneche	2	Febrero	2023-02-14T00:00:00	2024-11-06T00:00:00	5	Humedad	57
8453	7	Sololá	701	Sololá	3	Barraneche	2	Febrero	2023-02-14T00:00:00	2024-11-06T00:00:00	6	Velocidad del viento	8
8454	7	Sololá	701	Sololá	3	Barraneche	2	Febrero	2023-02-14T00:00:00	2024-11-06T00:00:00	7	Dirección del viento	8.05
8455	7	Sololá	701	Sololá	3	Barraneche	2	Febrero	2023-02-14T00:00:00	2024-11-06T00:00:00	1	Precipitación	0
8456	7	Sololá	701	Sololá	3	Barraneche	2	Febrero	2023-02-14T00:00:00	2024-11-06T00:00:00	8	Radiación solar	0
8457	7	Sololá	701	Sololá	3	Barraneche	2	Febrero	2023-02-14T00:00:00	2024-11-06T01:00:00	2	Temperatura media	8.9
8458	7	Sololá	701	Sololá	3	Barraneche	2	Febrero	2023-02-14T00:00:00	2024-11-06T01:00:00	4	Temperatura máxima	8.9
8459	7	Sololá	701	Sololá	3	Barraneche	2	Febrero	2023-02-14T00:00:00	2024-11-06T01:00:00	3	Temperatura mínima	8.2
8460	7	Sololá	701	Sololá	3	Barraneche	2	Febrero	2023-02-14T00:00:00	2024-11-06T01:00:00	5	Humedad	56
8461	7	Sololá	701	Sololá	3	Barraneche	2	Febrero	2023-02-14T00:00:00	2024-11-06T01:00:00	6	Velocidad del viento	8
8462	7	Sololá	701	Sololá	3	Barraneche	2	Febrero	2023-02-14T00:00:00	2024-11-06T01:00:00	7	Dirección del viento	8.05
8463	7	Sololá	701	Sololá	3	Barraneche	2	Febrero	2023-02-14T00:00:00	2024-11-06T01:00:00	1	Precipitación	0
8464	7	Sololá	701	Sololá	3	Barraneche	2	Febrero	2023-02-14T00:00:00	2024-11-06T01:00:00	8	Radiación solar	0
8465	7	Sololá	701	Sololá	3	Barraneche	2	Febrero	2023-02-14T00:00:00	2024-11-06T02:00:00	2	Temperatura media	8.7
8466	7	Sololá	701	Sololá	3	Barraneche	2	Febrero	2023-02-14T00:00:00	2024-11-06T02:00:00	4	Temperatura máxima	8.9
8467	7	Sololá	701	Sololá	3	Barraneche	2	Febrero	2023-02-14T00:00:00	2024-11-06T02:00:00	3	Temperatura mínima	8.6
8468	7	Sololá	701	Sololá	3	Barraneche	2	Febrero	2023-02-14T00:00:00	2024-11-06T02:00:00	5	Humedad	61
8469	7	Sololá	701	Sololá	3	Barraneche	2	Febrero	2023-02-14T00:00:00	2024-11-06T02:00:00	6	Velocidad del viento	8
8470	7	Sololá	701	Sololá	3	Barraneche	2	Febrero	2023-02-14T00:00:00	2024-11-06T02:00:00	7	Dirección del viento	8.05
8471	7	Sololá	701	Sololá	3	Barraneche	2	Febrero	2023-02-14T00:00:00	2024-11-06T02:00:00	1	Precipitación	0
8472	7	Sololá	701	Sololá	3	Barraneche	2	Febrero	2023-02-14T00:00:00	2024-11-06T02:00:00	8	Radiación solar	0
8473	7	Sololá	701	Sololá	3	Barraneche	2	Febrero	2023-02-14T00:00:00	2024-11-06T03:00:00	2	Temperatura media	8.2
8474	7	Sololá	701	Sololá	3	Barraneche	2	Febrero	2023-02-14T00:00:00	2024-11-06T03:00:00	4	Temperatura máxima	9
8475	7	Sololá	701	Sololá	3	Barraneche	2	Febrero	2023-02-14T00:00:00	2024-11-06T03:00:00	3	Temperatura mínima	8.2
8476	7	Sololá	701	Sololá	3	Barraneche	2	Febrero	2023-02-14T00:00:00	2024-11-06T03:00:00	5	Humedad	62
8477	7	Sololá	701	Sololá	3	Barraneche	2	Febrero	2023-02-14T00:00:00	2024-11-06T03:00:00	6	Velocidad del viento	8
8478	7	Sololá	701	Sololá	3	Barraneche	2	Febrero	2023-02-14T00:00:00	2024-11-06T03:00:00	7	Dirección del viento	8.05
8479	7	Sololá	701	Sololá	3	Barraneche	2	Febrero	2023-02-14T00:00:00	2024-11-06T03:00:00	1	Precipitación	0
8480	7	Sololá	701	Sololá	3	Barraneche	2	Febrero	2023-02-14T00:00:00	2024-11-06T03:00:00	8	Radiación solar	0
8481	7	Sololá	701	Sololá	3	Barraneche	2	Febrero	2023-02-14T00:00:00	2024-11-06T04:00:00	2	Temperatura media	8.2
8482	7	Sololá	701	Sololá	3	Barraneche	2	Febrero	2023-02-14T00:00:00	2024-11-06T04:00:00	4	Temperatura máxima	8.6
8483	7	Sololá	701	Sololá	3	Barraneche	2	Febrero	2023-02-14T00:00:00	2024-11-06T04:00:00	3	Temperatura mínima	8.2
8484	7	Sololá	701	Sololá	3	Barraneche	2	Febrero	2023-02-14T00:00:00	2024-11-06T04:00:00	5	Humedad	64
8485	7	Sololá	701	Sololá	3	Barraneche	2	Febrero	2023-02-14T00:00:00	2024-11-06T04:00:00	6	Velocidad del viento	8
8486	7	Sololá	701	Sololá	3	Barraneche	2	Febrero	2023-02-14T00:00:00	2024-11-06T04:00:00	7	Dirección del viento	8.05
8487	7	Sololá	701	Sololá	3	Barraneche	2	Febrero	2023-02-14T00:00:00	2024-11-06T04:00:00	1	Precipitación	0
8488	7	Sololá	701	Sololá	3	Barraneche	2	Febrero	2023-02-14T00:00:00	2024-11-06T04:00:00	8	Radiación solar	0
8489	7	Sololá	701	Sololá	3	Barraneche	2	Febrero	2023-02-14T00:00:00	2024-11-06T05:00:00	2	Temperatura media	7.6
8490	7	Sololá	701	Sololá	3	Barraneche	2	Febrero	2023-02-14T00:00:00	2024-11-06T05:00:00	4	Temperatura máxima	8.5
8491	7	Sololá	701	Sololá	3	Barraneche	2	Febrero	2023-02-14T00:00:00	2024-11-06T05:00:00	3	Temperatura mínima	7.5
8492	7	Sololá	701	Sololá	3	Barraneche	2	Febrero	2023-02-14T00:00:00	2024-11-06T05:00:00	5	Humedad	64
8493	7	Sololá	701	Sololá	3	Barraneche	2	Febrero	2023-02-14T00:00:00	2024-11-06T05:00:00	6	Velocidad del viento	8
8494	7	Sololá	701	Sololá	3	Barraneche	2	Febrero	2023-02-14T00:00:00	2024-11-06T05:00:00	7	Dirección del viento	8.05
8495	7	Sololá	701	Sololá	3	Barraneche	2	Febrero	2023-02-14T00:00:00	2024-11-06T05:00:00	1	Precipitación	0
8496	7	Sololá	701	Sololá	3	Barraneche	2	Febrero	2023-02-14T00:00:00	2024-11-06T05:00:00	8	Radiación solar	0
8497	7	Sololá	701	Sololá	3	Barraneche	2	Febrero	2023-02-14T00:00:00	2024-11-06T06:00:00	2	Temperatura media	7.4
8498	7	Sololá	701	Sololá	3	Barraneche	2	Febrero	2023-02-14T00:00:00	2024-11-06T06:00:00	4	Temperatura máxima	7.9
8499	7	Sololá	701	Sololá	3	Barraneche	2	Febrero	2023-02-14T00:00:00	2024-11-06T06:00:00	3	Temperatura mínima	7.4
8500	7	Sololá	701	Sololá	3	Barraneche	2	Febrero	2023-02-14T00:00:00	2024-11-06T06:00:00	5	Humedad	65
8501	7	Sololá	701	Sololá	3	Barraneche	2	Febrero	2023-02-14T00:00:00	2024-11-06T06:00:00	6	Velocidad del viento	8
8502	7	Sololá	701	Sololá	3	Barraneche	2	Febrero	2023-02-14T00:00:00	2024-11-06T06:00:00	7	Dirección del viento	8.05
8503	7	Sololá	701	Sololá	3	Barraneche	2	Febrero	2023-02-14T00:00:00	2024-11-06T06:00:00	1	Precipitación	0
8504	7	Sololá	701	Sololá	3	Barraneche	2	Febrero	2023-02-14T00:00:00	2024-11-06T06:00:00	8	Radiación solar	0
8505	7	Sololá	701	Sololá	3	Barraneche	2	Febrero	2023-02-14T00:00:00	2024-11-06T07:00:00	2	Temperatura media	8.4
8506	7	Sololá	701	Sololá	3	Barraneche	2	Febrero	2023-02-14T00:00:00	2024-11-06T07:00:00	4	Temperatura máxima	8.5
8507	7	Sololá	701	Sololá	3	Barraneche	2	Febrero	2023-02-14T00:00:00	2024-11-06T07:00:00	3	Temperatura mínima	7.4
8508	7	Sololá	701	Sololá	3	Barraneche	2	Febrero	2023-02-14T00:00:00	2024-11-06T07:00:00	5	Humedad	61
8509	7	Sololá	701	Sololá	3	Barraneche	2	Febrero	2023-02-14T00:00:00	2024-11-06T07:00:00	6	Velocidad del viento	9.7
8510	7	Sololá	701	Sololá	3	Barraneche	2	Febrero	2023-02-14T00:00:00	2024-11-06T07:00:00	7	Dirección del viento	9.66
8511	7	Sololá	701	Sololá	3	Barraneche	2	Febrero	2023-02-14T00:00:00	2024-11-06T07:00:00	1	Precipitación	0
8512	7	Sololá	701	Sololá	3	Barraneche	2	Febrero	2023-02-14T00:00:00	2024-11-06T07:00:00	8	Radiación solar	6
8513	7	Sololá	701	Sololá	3	Barraneche	2	Febrero	2023-02-14T00:00:00	2024-11-06T08:00:00	2	Temperatura media	12.3
8514	7	Sololá	701	Sololá	3	Barraneche	2	Febrero	2023-02-14T00:00:00	2024-11-06T08:00:00	4	Temperatura máxima	12.4
8515	7	Sololá	701	Sololá	3	Barraneche	2	Febrero	2023-02-14T00:00:00	2024-11-06T08:00:00	3	Temperatura mínima	8.2
8516	7	Sololá	701	Sololá	3	Barraneche	2	Febrero	2023-02-14T00:00:00	2024-11-06T08:00:00	5	Humedad	56
8517	7	Sololá	701	Sololá	3	Barraneche	2	Febrero	2023-02-14T00:00:00	2024-11-06T08:00:00	6	Velocidad del viento	6.4
8518	7	Sololá	701	Sololá	3	Barraneche	2	Febrero	2023-02-14T00:00:00	2024-11-06T08:00:00	7	Dirección del viento	6.44
8519	7	Sololá	701	Sololá	3	Barraneche	2	Febrero	2023-02-14T00:00:00	2024-11-06T08:00:00	1	Precipitación	0
8520	7	Sololá	701	Sololá	3	Barraneche	2	Febrero	2023-02-14T00:00:00	2024-11-06T08:00:00	8	Radiación solar	176
8521	7	Sololá	701	Sololá	3	Barraneche	2	Febrero	2023-02-14T00:00:00	2024-11-06T09:00:00	2	Temperatura media	15.3
8522	7	Sololá	701	Sololá	3	Barraneche	2	Febrero	2023-02-14T00:00:00	2024-11-06T09:00:00	4	Temperatura máxima	15.3
8523	7	Sololá	701	Sololá	3	Barraneche	2	Febrero	2023-02-14T00:00:00	2024-11-06T09:00:00	3	Temperatura mínima	12.3
8524	7	Sololá	701	Sololá	3	Barraneche	2	Febrero	2023-02-14T00:00:00	2024-11-06T09:00:00	5	Humedad	48
8525	7	Sololá	701	Sololá	3	Barraneche	2	Febrero	2023-02-14T00:00:00	2024-11-06T09:00:00	6	Velocidad del viento	4.8
8526	7	Sololá	701	Sololá	3	Barraneche	2	Febrero	2023-02-14T00:00:00	2024-11-06T09:00:00	7	Dirección del viento	4.83
8527	7	Sololá	701	Sololá	3	Barraneche	2	Febrero	2023-02-14T00:00:00	2024-11-06T09:00:00	1	Precipitación	0
8528	7	Sololá	701	Sololá	3	Barraneche	2	Febrero	2023-02-14T00:00:00	2024-11-06T09:00:00	8	Radiación solar	460
8529	7	Sololá	701	Sololá	3	Barraneche	2	Febrero	2023-02-14T00:00:00	2024-11-06T10:00:00	2	Temperatura media	16.2
8530	7	Sololá	701	Sololá	3	Barraneche	2	Febrero	2023-02-14T00:00:00	2024-11-06T10:00:00	4	Temperatura máxima	16.3
8531	7	Sololá	701	Sololá	3	Barraneche	2	Febrero	2023-02-14T00:00:00	2024-11-06T10:00:00	3	Temperatura mínima	15.3
8532	7	Sololá	701	Sololá	3	Barraneche	2	Febrero	2023-02-14T00:00:00	2024-11-06T10:00:00	5	Humedad	48
8533	7	Sololá	701	Sololá	3	Barraneche	2	Febrero	2023-02-14T00:00:00	2024-11-06T10:00:00	6	Velocidad del viento	6.4
8534	7	Sololá	701	Sololá	3	Barraneche	2	Febrero	2023-02-14T00:00:00	2024-11-06T10:00:00	7	Dirección del viento	6.44
8535	7	Sololá	701	Sololá	3	Barraneche	2	Febrero	2023-02-14T00:00:00	2024-11-06T10:00:00	1	Precipitación	0
8536	7	Sololá	701	Sololá	3	Barraneche	2	Febrero	2023-02-14T00:00:00	2024-11-06T10:00:00	8	Radiación solar	686
8537	7	Sololá	701	Sololá	3	Barraneche	2	Febrero	2023-02-14T00:00:00	2024-11-06T11:00:00	2	Temperatura media	16.7
8538	7	Sololá	701	Sololá	3	Barraneche	2	Febrero	2023-02-14T00:00:00	2024-11-06T11:00:00	4	Temperatura máxima	16.9
8539	7	Sololá	701	Sololá	3	Barraneche	2	Febrero	2023-02-14T00:00:00	2024-11-06T11:00:00	3	Temperatura mínima	16.2
8540	7	Sololá	701	Sololá	3	Barraneche	2	Febrero	2023-02-14T00:00:00	2024-11-06T11:00:00	5	Humedad	47
8541	7	Sololá	701	Sololá	3	Barraneche	2	Febrero	2023-02-14T00:00:00	2024-11-06T11:00:00	6	Velocidad del viento	11.3
8542	7	Sololá	701	Sololá	3	Barraneche	2	Febrero	2023-02-14T00:00:00	2024-11-06T11:00:00	7	Dirección del viento	11.27
8543	7	Sololá	701	Sololá	3	Barraneche	2	Febrero	2023-02-14T00:00:00	2024-11-06T11:00:00	1	Precipitación	0
8544	7	Sololá	701	Sololá	3	Barraneche	2	Febrero	2023-02-14T00:00:00	2024-11-06T11:00:00	8	Radiación solar	857
8545	7	Sololá	701	Sololá	3	Barraneche	2	Febrero	2023-02-14T00:00:00	2024-11-06T12:00:00	2	Temperatura media	17.6
8546	7	Sololá	701	Sololá	3	Barraneche	2	Febrero	2023-02-14T00:00:00	2024-11-06T12:00:00	4	Temperatura máxima	17.7
8547	7	Sololá	701	Sololá	3	Barraneche	2	Febrero	2023-02-14T00:00:00	2024-11-06T12:00:00	3	Temperatura mínima	16.5
8548	7	Sololá	701	Sololá	3	Barraneche	2	Febrero	2023-02-14T00:00:00	2024-11-06T12:00:00	5	Humedad	41
8549	7	Sololá	701	Sololá	3	Barraneche	2	Febrero	2023-02-14T00:00:00	2024-11-06T12:00:00	6	Velocidad del viento	11.3
8550	7	Sololá	701	Sololá	3	Barraneche	2	Febrero	2023-02-14T00:00:00	2024-11-06T12:00:00	7	Dirección del viento	11.27
8551	7	Sololá	701	Sololá	3	Barraneche	2	Febrero	2023-02-14T00:00:00	2024-11-06T12:00:00	1	Precipitación	0
8552	7	Sololá	701	Sololá	3	Barraneche	2	Febrero	2023-02-14T00:00:00	2024-11-06T12:00:00	8	Radiación solar	958
8553	7	Sololá	701	Sololá	3	Barraneche	2	Febrero	2023-02-14T00:00:00	2024-11-06T13:00:00	2	Temperatura media	18.2
8554	7	Sololá	701	Sololá	3	Barraneche	2	Febrero	2023-02-14T00:00:00	2024-11-06T13:00:00	4	Temperatura máxima	18.3
8555	7	Sololá	701	Sololá	3	Barraneche	2	Febrero	2023-02-14T00:00:00	2024-11-06T13:00:00	3	Temperatura mínima	17.6
8556	7	Sololá	701	Sololá	3	Barraneche	2	Febrero	2023-02-14T00:00:00	2024-11-06T13:00:00	5	Humedad	44
8557	7	Sololá	701	Sololá	3	Barraneche	2	Febrero	2023-02-14T00:00:00	2024-11-06T13:00:00	6	Velocidad del viento	12.9
8558	7	Sololá	701	Sololá	3	Barraneche	2	Febrero	2023-02-14T00:00:00	2024-11-06T13:00:00	7	Dirección del viento	12.87
8559	7	Sololá	701	Sololá	3	Barraneche	2	Febrero	2023-02-14T00:00:00	2024-11-06T13:00:00	1	Precipitación	0
8560	7	Sololá	701	Sololá	3	Barraneche	2	Febrero	2023-02-14T00:00:00	2024-11-06T13:00:00	8	Radiación solar	978
8561	7	Sololá	701	Sololá	3	Barraneche	2	Febrero	2023-02-14T00:00:00	2024-11-06T14:00:00	2	Temperatura media	18
8562	7	Sololá	701	Sololá	3	Barraneche	2	Febrero	2023-02-14T00:00:00	2024-11-06T14:00:00	4	Temperatura máxima	18.4
8563	7	Sololá	701	Sololá	3	Barraneche	2	Febrero	2023-02-14T00:00:00	2024-11-06T14:00:00	3	Temperatura mínima	17.9
8564	7	Sololá	701	Sololá	3	Barraneche	2	Febrero	2023-02-14T00:00:00	2024-11-06T14:00:00	5	Humedad	48
8565	7	Sololá	701	Sololá	3	Barraneche	2	Febrero	2023-02-14T00:00:00	2024-11-06T14:00:00	6	Velocidad del viento	14.5
8566	7	Sololá	701	Sololá	3	Barraneche	2	Febrero	2023-02-14T00:00:00	2024-11-06T14:00:00	7	Dirección del viento	14.48
8567	7	Sololá	701	Sololá	3	Barraneche	2	Febrero	2023-02-14T00:00:00	2024-11-06T14:00:00	1	Precipitación	0
8568	7	Sololá	701	Sololá	3	Barraneche	2	Febrero	2023-02-14T00:00:00	2024-11-06T14:00:00	8	Radiación solar	911
8569	7	Sololá	701	Sololá	3	Barraneche	2	Febrero	2023-02-14T00:00:00	2024-11-06T15:00:00	2	Temperatura media	17.4
8570	7	Sololá	701	Sololá	3	Barraneche	2	Febrero	2023-02-14T00:00:00	2024-11-06T15:00:00	4	Temperatura máxima	18.3
8571	7	Sololá	701	Sololá	3	Barraneche	2	Febrero	2023-02-14T00:00:00	2024-11-06T15:00:00	3	Temperatura mínima	17.4
8572	7	Sololá	701	Sololá	3	Barraneche	2	Febrero	2023-02-14T00:00:00	2024-11-06T15:00:00	5	Humedad	57
8573	7	Sololá	701	Sololá	3	Barraneche	2	Febrero	2023-02-14T00:00:00	2024-11-06T15:00:00	6	Velocidad del viento	14.5
8574	7	Sololá	701	Sololá	3	Barraneche	2	Febrero	2023-02-14T00:00:00	2024-11-06T15:00:00	7	Dirección del viento	14.48
8575	7	Sololá	701	Sololá	3	Barraneche	2	Febrero	2023-02-14T00:00:00	2024-11-06T15:00:00	1	Precipitación	0
8576	7	Sololá	701	Sololá	3	Barraneche	2	Febrero	2023-02-14T00:00:00	2024-11-06T15:00:00	8	Radiación solar	777
8577	7	Sololá	701	Sololá	3	Barraneche	2	Febrero	2023-02-14T00:00:00	2024-11-06T16:00:00	2	Temperatura media	16.9
8578	7	Sololá	701	Sololá	3	Barraneche	2	Febrero	2023-02-14T00:00:00	2024-11-06T16:00:00	4	Temperatura máxima	17.5
8579	7	Sololá	701	Sololá	3	Barraneche	2	Febrero	2023-02-14T00:00:00	2024-11-06T16:00:00	3	Temperatura mínima	16.6
8580	7	Sololá	701	Sololá	3	Barraneche	2	Febrero	2023-02-14T00:00:00	2024-11-06T16:00:00	5	Humedad	61
8581	7	Sololá	701	Sololá	3	Barraneche	2	Febrero	2023-02-14T00:00:00	2024-11-06T16:00:00	6	Velocidad del viento	12.9
8582	7	Sololá	701	Sololá	3	Barraneche	2	Febrero	2023-02-14T00:00:00	2024-11-06T16:00:00	7	Dirección del viento	12.87
8583	7	Sololá	701	Sololá	3	Barraneche	2	Febrero	2023-02-14T00:00:00	2024-11-06T16:00:00	1	Precipitación	0
8584	7	Sololá	701	Sololá	3	Barraneche	2	Febrero	2023-02-14T00:00:00	2024-11-06T16:00:00	8	Radiación solar	582
8585	7	Sololá	701	Sololá	3	Barraneche	2	Febrero	2023-02-14T00:00:00	2024-11-06T17:00:00	2	Temperatura media	16.5
8586	7	Sololá	701	Sololá	3	Barraneche	2	Febrero	2023-02-14T00:00:00	2024-11-06T17:00:00	4	Temperatura máxima	16.9
8587	7	Sololá	701	Sololá	3	Barraneche	2	Febrero	2023-02-14T00:00:00	2024-11-06T17:00:00	3	Temperatura mínima	16.4
8588	7	Sololá	701	Sololá	3	Barraneche	2	Febrero	2023-02-14T00:00:00	2024-11-06T17:00:00	5	Humedad	64
8589	7	Sololá	701	Sololá	3	Barraneche	2	Febrero	2023-02-14T00:00:00	2024-11-06T17:00:00	6	Velocidad del viento	9.7
8590	7	Sololá	701	Sololá	3	Barraneche	2	Febrero	2023-02-14T00:00:00	2024-11-06T17:00:00	7	Dirección del viento	9.66
8591	7	Sololá	701	Sololá	3	Barraneche	2	Febrero	2023-02-14T00:00:00	2024-11-06T17:00:00	1	Precipitación	0
8592	7	Sololá	701	Sololá	3	Barraneche	2	Febrero	2023-02-14T00:00:00	2024-11-06T17:00:00	8	Radiación solar	338
8593	7	Sololá	701	Sololá	3	Barraneche	2	Febrero	2023-02-14T00:00:00	2024-11-06T18:00:00	2	Temperatura media	14.8
8594	7	Sololá	701	Sololá	3	Barraneche	2	Febrero	2023-02-14T00:00:00	2024-11-06T18:00:00	4	Temperatura máxima	16.6
8595	7	Sololá	701	Sololá	3	Barraneche	2	Febrero	2023-02-14T00:00:00	2024-11-06T18:00:00	3	Temperatura mínima	14.8
8596	7	Sololá	701	Sololá	3	Barraneche	2	Febrero	2023-02-14T00:00:00	2024-11-06T18:00:00	5	Humedad	70
8597	7	Sololá	701	Sololá	3	Barraneche	2	Febrero	2023-02-14T00:00:00	2024-11-06T18:00:00	6	Velocidad del viento	4.8
8598	7	Sololá	701	Sololá	3	Barraneche	2	Febrero	2023-02-14T00:00:00	2024-11-06T18:00:00	7	Dirección del viento	4.83
8599	7	Sololá	701	Sololá	3	Barraneche	2	Febrero	2023-02-14T00:00:00	2024-11-06T18:00:00	1	Precipitación	0
8600	7	Sololá	701	Sololá	3	Barraneche	2	Febrero	2023-02-14T00:00:00	2024-11-06T18:00:00	8	Radiación solar	88
8601	7	Sololá	701	Sololá	3	Barraneche	2	Febrero	2023-02-14T00:00:00	2024-11-06T19:00:00	2	Temperatura media	11.9
8602	7	Sololá	701	Sololá	3	Barraneche	2	Febrero	2023-02-14T00:00:00	2024-11-06T19:00:00	4	Temperatura máxima	14.7
8603	7	Sololá	701	Sololá	3	Barraneche	2	Febrero	2023-02-14T00:00:00	2024-11-06T19:00:00	3	Temperatura mínima	11.9
8604	7	Sololá	701	Sololá	3	Barraneche	2	Febrero	2023-02-14T00:00:00	2024-11-06T19:00:00	5	Humedad	58
8605	7	Sololá	701	Sololá	3	Barraneche	2	Febrero	2023-02-14T00:00:00	2024-11-06T19:00:00	6	Velocidad del viento	3.2
8606	7	Sololá	701	Sololá	3	Barraneche	2	Febrero	2023-02-14T00:00:00	2024-11-06T19:00:00	7	Dirección del viento	3.22
8607	7	Sololá	701	Sololá	3	Barraneche	2	Febrero	2023-02-14T00:00:00	2024-11-06T19:00:00	1	Precipitación	0
8608	7	Sololá	701	Sololá	3	Barraneche	2	Febrero	2023-02-14T00:00:00	2024-11-06T19:00:00	8	Radiación solar	0
8609	7	Sololá	701	Sololá	3	Barraneche	2	Febrero	2023-02-14T00:00:00	2024-11-06T20:00:00	2	Temperatura media	10.2
8610	7	Sololá	701	Sololá	3	Barraneche	2	Febrero	2023-02-14T00:00:00	2024-11-06T20:00:00	4	Temperatura máxima	11.9
8611	7	Sololá	701	Sololá	3	Barraneche	2	Febrero	2023-02-14T00:00:00	2024-11-06T20:00:00	3	Temperatura mínima	10.2
8612	7	Sololá	701	Sololá	3	Barraneche	2	Febrero	2023-02-14T00:00:00	2024-11-06T20:00:00	5	Humedad	52
8613	7	Sololá	701	Sololá	3	Barraneche	2	Febrero	2023-02-14T00:00:00	2024-11-06T20:00:00	6	Velocidad del viento	6.4
8614	7	Sololá	701	Sololá	3	Barraneche	2	Febrero	2023-02-14T00:00:00	2024-11-06T20:00:00	7	Dirección del viento	6.44
8615	7	Sololá	701	Sololá	3	Barraneche	2	Febrero	2023-02-14T00:00:00	2024-11-06T20:00:00	1	Precipitación	0
8616	7	Sololá	701	Sololá	3	Barraneche	2	Febrero	2023-02-14T00:00:00	2024-11-06T20:00:00	8	Radiación solar	0
8617	7	Sololá	701	Sololá	3	Barraneche	2	Febrero	2023-02-14T00:00:00	2024-11-06T21:00:00	2	Temperatura media	9.9
8618	7	Sololá	701	Sololá	3	Barraneche	2	Febrero	2023-02-14T00:00:00	2024-11-06T21:00:00	4	Temperatura máxima	10.3
8619	7	Sololá	701	Sololá	3	Barraneche	2	Febrero	2023-02-14T00:00:00	2024-11-06T21:00:00	3	Temperatura mínima	9.8
8620	7	Sololá	701	Sololá	3	Barraneche	2	Febrero	2023-02-14T00:00:00	2024-11-06T21:00:00	5	Humedad	40
8621	7	Sololá	701	Sololá	3	Barraneche	2	Febrero	2023-02-14T00:00:00	2024-11-06T21:00:00	6	Velocidad del viento	8
8622	7	Sololá	701	Sololá	3	Barraneche	2	Febrero	2023-02-14T00:00:00	2024-11-06T21:00:00	7	Dirección del viento	8.05
8623	7	Sololá	701	Sololá	3	Barraneche	2	Febrero	2023-02-14T00:00:00	2024-11-06T21:00:00	1	Precipitación	0
8624	7	Sololá	701	Sololá	3	Barraneche	2	Febrero	2023-02-14T00:00:00	2024-11-06T21:00:00	8	Radiación solar	0
8625	7	Sololá	701	Sololá	3	Barraneche	2	Febrero	2023-02-14T00:00:00	2024-11-06T22:00:00	2	Temperatura media	9.9
8626	7	Sololá	701	Sololá	3	Barraneche	2	Febrero	2023-02-14T00:00:00	2024-11-06T22:00:00	4	Temperatura máxima	10.2
8627	7	Sololá	701	Sololá	3	Barraneche	2	Febrero	2023-02-14T00:00:00	2024-11-06T22:00:00	3	Temperatura mínima	9.8
8628	7	Sololá	701	Sololá	3	Barraneche	2	Febrero	2023-02-14T00:00:00	2024-11-06T22:00:00	5	Humedad	47
8629	7	Sololá	701	Sololá	3	Barraneche	2	Febrero	2023-02-14T00:00:00	2024-11-06T22:00:00	6	Velocidad del viento	8
8630	7	Sololá	701	Sololá	3	Barraneche	2	Febrero	2023-02-14T00:00:00	2024-11-06T22:00:00	7	Dirección del viento	8.05
8631	7	Sololá	701	Sololá	3	Barraneche	2	Febrero	2023-02-14T00:00:00	2024-11-06T22:00:00	1	Precipitación	0
8632	7	Sololá	701	Sololá	3	Barraneche	2	Febrero	2023-02-14T00:00:00	2024-11-06T22:00:00	8	Radiación solar	0
8633	7	Sololá	701	Sololá	3	Barraneche	2	Febrero	2023-02-14T00:00:00	2024-11-06T23:00:00	2	Temperatura media	9.6
8634	7	Sololá	701	Sololá	3	Barraneche	2	Febrero	2023-02-14T00:00:00	2024-11-06T23:00:00	4	Temperatura máxima	10.3
8635	7	Sololá	701	Sololá	3	Barraneche	2	Febrero	2023-02-14T00:00:00	2024-11-06T23:00:00	3	Temperatura mínima	9.6
8636	7	Sololá	701	Sololá	3	Barraneche	2	Febrero	2023-02-14T00:00:00	2024-11-06T23:00:00	5	Humedad	52
8637	7	Sololá	701	Sololá	3	Barraneche	2	Febrero	2023-02-14T00:00:00	2024-11-06T23:00:00	6	Velocidad del viento	8
8638	7	Sololá	701	Sololá	3	Barraneche	2	Febrero	2023-02-14T00:00:00	2024-11-06T23:00:00	7	Dirección del viento	8.05
8639	7	Sololá	701	Sololá	3	Barraneche	2	Febrero	2023-02-14T00:00:00	2024-11-06T23:00:00	1	Precipitación	0
8640	7	Sololá	701	Sololá	3	Barraneche	2	Febrero	2023-02-14T00:00:00	2024-11-06T23:00:00	8	Radiación solar	0
8641	7	Sololá	701	Sololá	3	Barraneche	2	Febrero	2023-02-15T00:00:00	2024-11-06T00:00:00	2	Temperatura media	9.7
8642	7	Sololá	701	Sololá	3	Barraneche	2	Febrero	2023-02-15T00:00:00	2024-11-06T00:00:00	4	Temperatura máxima	10.3
8643	7	Sololá	701	Sololá	3	Barraneche	2	Febrero	2023-02-15T00:00:00	2024-11-06T00:00:00	3	Temperatura mínima	9.3
8644	7	Sololá	701	Sololá	3	Barraneche	2	Febrero	2023-02-15T00:00:00	2024-11-06T00:00:00	5	Humedad	57
8645	7	Sololá	701	Sololá	3	Barraneche	2	Febrero	2023-02-15T00:00:00	2024-11-06T00:00:00	6	Velocidad del viento	9.7
8646	7	Sololá	701	Sololá	3	Barraneche	2	Febrero	2023-02-15T00:00:00	2024-11-06T00:00:00	7	Dirección del viento	9.66
8647	7	Sololá	701	Sololá	3	Barraneche	2	Febrero	2023-02-15T00:00:00	2024-11-06T00:00:00	1	Precipitación	0
8648	7	Sololá	701	Sololá	3	Barraneche	2	Febrero	2023-02-15T00:00:00	2024-11-06T00:00:00	8	Radiación solar	0
8649	7	Sololá	701	Sololá	3	Barraneche	2	Febrero	2023-02-15T00:00:00	2024-11-06T01:00:00	2	Temperatura media	8.8
8650	7	Sololá	701	Sololá	3	Barraneche	2	Febrero	2023-02-15T00:00:00	2024-11-06T01:00:00	4	Temperatura máxima	9.8
8651	7	Sololá	701	Sololá	3	Barraneche	2	Febrero	2023-02-15T00:00:00	2024-11-06T01:00:00	3	Temperatura mínima	8.8
8652	7	Sololá	701	Sololá	3	Barraneche	2	Febrero	2023-02-15T00:00:00	2024-11-06T01:00:00	5	Humedad	49
8653	7	Sololá	701	Sololá	3	Barraneche	2	Febrero	2023-02-15T00:00:00	2024-11-06T01:00:00	6	Velocidad del viento	9.7
8654	7	Sololá	701	Sololá	3	Barraneche	2	Febrero	2023-02-15T00:00:00	2024-11-06T01:00:00	7	Dirección del viento	9.66
8655	7	Sololá	701	Sololá	3	Barraneche	2	Febrero	2023-02-15T00:00:00	2024-11-06T01:00:00	1	Precipitación	0
8656	7	Sololá	701	Sololá	3	Barraneche	2	Febrero	2023-02-15T00:00:00	2024-11-06T01:00:00	8	Radiación solar	0
8657	7	Sololá	701	Sololá	3	Barraneche	2	Febrero	2023-02-15T00:00:00	2024-11-06T02:00:00	2	Temperatura media	7.7
8658	7	Sololá	701	Sololá	3	Barraneche	2	Febrero	2023-02-15T00:00:00	2024-11-06T02:00:00	4	Temperatura máxima	9
8659	7	Sololá	701	Sololá	3	Barraneche	2	Febrero	2023-02-15T00:00:00	2024-11-06T02:00:00	3	Temperatura mínima	7.7
8660	7	Sololá	701	Sololá	3	Barraneche	2	Febrero	2023-02-15T00:00:00	2024-11-06T02:00:00	5	Humedad	41
8661	7	Sololá	701	Sololá	3	Barraneche	2	Febrero	2023-02-15T00:00:00	2024-11-06T02:00:00	6	Velocidad del viento	9.7
8662	7	Sololá	701	Sololá	3	Barraneche	2	Febrero	2023-02-15T00:00:00	2024-11-06T02:00:00	7	Dirección del viento	9.66
8663	7	Sololá	701	Sololá	3	Barraneche	2	Febrero	2023-02-15T00:00:00	2024-11-06T02:00:00	1	Precipitación	0
8664	7	Sololá	701	Sololá	3	Barraneche	2	Febrero	2023-02-15T00:00:00	2024-11-06T02:00:00	8	Radiación solar	0
8665	7	Sololá	701	Sololá	3	Barraneche	2	Febrero	2023-02-15T00:00:00	2024-11-06T03:00:00	2	Temperatura media	7.6
8666	7	Sololá	701	Sololá	3	Barraneche	2	Febrero	2023-02-15T00:00:00	2024-11-06T03:00:00	4	Temperatura máxima	8.3
8667	7	Sololá	701	Sololá	3	Barraneche	2	Febrero	2023-02-15T00:00:00	2024-11-06T03:00:00	3	Temperatura mínima	7.5
8668	7	Sololá	701	Sololá	3	Barraneche	2	Febrero	2023-02-15T00:00:00	2024-11-06T03:00:00	5	Humedad	38
8669	7	Sololá	701	Sololá	3	Barraneche	2	Febrero	2023-02-15T00:00:00	2024-11-06T03:00:00	6	Velocidad del viento	9.7
8670	7	Sololá	701	Sololá	3	Barraneche	2	Febrero	2023-02-15T00:00:00	2024-11-06T03:00:00	7	Dirección del viento	9.66
8671	7	Sololá	701	Sololá	3	Barraneche	2	Febrero	2023-02-15T00:00:00	2024-11-06T03:00:00	1	Precipitación	0
8672	7	Sololá	701	Sololá	3	Barraneche	2	Febrero	2023-02-15T00:00:00	2024-11-06T03:00:00	8	Radiación solar	0
8673	7	Sololá	701	Sololá	3	Barraneche	2	Febrero	2023-02-15T00:00:00	2024-11-06T04:00:00	2	Temperatura media	7.5
8674	7	Sololá	701	Sololá	3	Barraneche	2	Febrero	2023-02-15T00:00:00	2024-11-06T04:00:00	4	Temperatura máxima	7.9
8675	7	Sololá	701	Sololá	3	Barraneche	2	Febrero	2023-02-15T00:00:00	2024-11-06T04:00:00	3	Temperatura mínima	7.2
8676	7	Sololá	701	Sololá	3	Barraneche	2	Febrero	2023-02-15T00:00:00	2024-11-06T04:00:00	5	Humedad	42
8677	7	Sololá	701	Sololá	3	Barraneche	2	Febrero	2023-02-15T00:00:00	2024-11-06T04:00:00	6	Velocidad del viento	9.7
8678	7	Sololá	701	Sololá	3	Barraneche	2	Febrero	2023-02-15T00:00:00	2024-11-06T04:00:00	7	Dirección del viento	9.66
8679	7	Sololá	701	Sololá	3	Barraneche	2	Febrero	2023-02-15T00:00:00	2024-11-06T04:00:00	1	Precipitación	0
8680	7	Sololá	701	Sololá	3	Barraneche	2	Febrero	2023-02-15T00:00:00	2024-11-06T04:00:00	8	Radiación solar	0
8681	7	Sololá	701	Sololá	3	Barraneche	2	Febrero	2023-02-15T00:00:00	2024-11-06T05:00:00	2	Temperatura media	6.5
8682	7	Sololá	701	Sololá	3	Barraneche	2	Febrero	2023-02-15T00:00:00	2024-11-06T05:00:00	4	Temperatura máxima	7.6
8683	7	Sololá	701	Sololá	3	Barraneche	2	Febrero	2023-02-15T00:00:00	2024-11-06T05:00:00	3	Temperatura mínima	6.4
8684	7	Sololá	701	Sololá	3	Barraneche	2	Febrero	2023-02-15T00:00:00	2024-11-06T05:00:00	5	Humedad	43
8685	7	Sololá	701	Sololá	3	Barraneche	2	Febrero	2023-02-15T00:00:00	2024-11-06T05:00:00	6	Velocidad del viento	9.7
8686	7	Sololá	701	Sololá	3	Barraneche	2	Febrero	2023-02-15T00:00:00	2024-11-06T05:00:00	7	Dirección del viento	9.66
8687	7	Sololá	701	Sololá	3	Barraneche	2	Febrero	2023-02-15T00:00:00	2024-11-06T05:00:00	1	Precipitación	0
8688	7	Sololá	701	Sololá	3	Barraneche	2	Febrero	2023-02-15T00:00:00	2024-11-06T05:00:00	8	Radiación solar	0
8689	7	Sololá	701	Sololá	3	Barraneche	2	Febrero	2023-02-15T00:00:00	2024-11-06T06:00:00	2	Temperatura media	6.2
8690	7	Sololá	701	Sololá	3	Barraneche	2	Febrero	2023-02-15T00:00:00	2024-11-06T06:00:00	4	Temperatura máxima	6.7
8691	7	Sololá	701	Sololá	3	Barraneche	2	Febrero	2023-02-15T00:00:00	2024-11-06T06:00:00	3	Temperatura mínima	6
8692	7	Sololá	701	Sololá	3	Barraneche	2	Febrero	2023-02-15T00:00:00	2024-11-06T06:00:00	5	Humedad	42
8693	7	Sololá	701	Sololá	3	Barraneche	2	Febrero	2023-02-15T00:00:00	2024-11-06T06:00:00	6	Velocidad del viento	9.7
8694	7	Sololá	701	Sololá	3	Barraneche	2	Febrero	2023-02-15T00:00:00	2024-11-06T06:00:00	7	Dirección del viento	9.66
8695	7	Sololá	701	Sololá	3	Barraneche	2	Febrero	2023-02-15T00:00:00	2024-11-06T06:00:00	1	Precipitación	0
8696	7	Sololá	701	Sololá	3	Barraneche	2	Febrero	2023-02-15T00:00:00	2024-11-06T06:00:00	8	Radiación solar	0
8697	7	Sololá	701	Sololá	3	Barraneche	2	Febrero	2023-02-15T00:00:00	2024-11-06T07:00:00	2	Temperatura media	6
8698	7	Sololá	701	Sololá	3	Barraneche	2	Febrero	2023-02-15T00:00:00	2024-11-06T07:00:00	4	Temperatura máxima	6.7
8699	7	Sololá	701	Sololá	3	Barraneche	2	Febrero	2023-02-15T00:00:00	2024-11-06T07:00:00	3	Temperatura mínima	5.9
8700	7	Sololá	701	Sololá	3	Barraneche	2	Febrero	2023-02-15T00:00:00	2024-11-06T07:00:00	5	Humedad	37
8701	7	Sololá	701	Sololá	3	Barraneche	2	Febrero	2023-02-15T00:00:00	2024-11-06T07:00:00	6	Velocidad del viento	9.7
8702	7	Sololá	701	Sololá	3	Barraneche	2	Febrero	2023-02-15T00:00:00	2024-11-06T07:00:00	7	Dirección del viento	9.66
8703	7	Sololá	701	Sololá	3	Barraneche	2	Febrero	2023-02-15T00:00:00	2024-11-06T07:00:00	1	Precipitación	0
8704	7	Sololá	701	Sololá	3	Barraneche	2	Febrero	2023-02-15T00:00:00	2024-11-06T07:00:00	8	Radiación solar	8
8705	7	Sololá	701	Sololá	3	Barraneche	2	Febrero	2023-02-15T00:00:00	2024-11-06T08:00:00	2	Temperatura media	12.1
8706	7	Sololá	701	Sololá	3	Barraneche	2	Febrero	2023-02-15T00:00:00	2024-11-06T08:00:00	4	Temperatura máxima	12.1
8707	7	Sololá	701	Sololá	3	Barraneche	2	Febrero	2023-02-15T00:00:00	2024-11-06T08:00:00	3	Temperatura mínima	6
8708	7	Sololá	701	Sololá	3	Barraneche	2	Febrero	2023-02-15T00:00:00	2024-11-06T08:00:00	5	Humedad	32
8709	7	Sololá	701	Sololá	3	Barraneche	2	Febrero	2023-02-15T00:00:00	2024-11-06T08:00:00	6	Velocidad del viento	4.8
8710	7	Sololá	701	Sololá	3	Barraneche	2	Febrero	2023-02-15T00:00:00	2024-11-06T08:00:00	7	Dirección del viento	4.83
8711	7	Sololá	701	Sololá	3	Barraneche	2	Febrero	2023-02-15T00:00:00	2024-11-06T08:00:00	1	Precipitación	0
8712	7	Sololá	701	Sololá	3	Barraneche	2	Febrero	2023-02-15T00:00:00	2024-11-06T08:00:00	8	Radiación solar	185
8713	7	Sololá	701	Sololá	3	Barraneche	2	Febrero	2023-02-15T00:00:00	2024-11-06T09:00:00	2	Temperatura media	16.4
8714	7	Sololá	701	Sololá	3	Barraneche	2	Febrero	2023-02-15T00:00:00	2024-11-06T09:00:00	4	Temperatura máxima	16.5
8715	7	Sololá	701	Sololá	3	Barraneche	2	Febrero	2023-02-15T00:00:00	2024-11-06T09:00:00	3	Temperatura mínima	12.2
8716	7	Sololá	701	Sololá	3	Barraneche	2	Febrero	2023-02-15T00:00:00	2024-11-06T09:00:00	5	Humedad	44
8717	7	Sololá	701	Sololá	3	Barraneche	2	Febrero	2023-02-15T00:00:00	2024-11-06T09:00:00	6	Velocidad del viento	3.2
8718	7	Sololá	701	Sololá	3	Barraneche	2	Febrero	2023-02-15T00:00:00	2024-11-06T09:00:00	7	Dirección del viento	3.22
8719	7	Sololá	701	Sololá	3	Barraneche	2	Febrero	2023-02-15T00:00:00	2024-11-06T09:00:00	1	Precipitación	0
8720	7	Sololá	701	Sololá	3	Barraneche	2	Febrero	2023-02-15T00:00:00	2024-11-06T09:00:00	8	Radiación solar	474
8721	7	Sololá	701	Sololá	3	Barraneche	2	Febrero	2023-02-15T00:00:00	2024-11-06T10:00:00	2	Temperatura media	18.8
8722	7	Sololá	701	Sololá	3	Barraneche	2	Febrero	2023-02-15T00:00:00	2024-11-06T10:00:00	4	Temperatura máxima	18.8
8723	7	Sololá	701	Sololá	3	Barraneche	2	Febrero	2023-02-15T00:00:00	2024-11-06T10:00:00	3	Temperatura mínima	16.4
8724	7	Sololá	701	Sololá	3	Barraneche	2	Febrero	2023-02-15T00:00:00	2024-11-06T10:00:00	5	Humedad	36
8725	7	Sololá	701	Sololá	3	Barraneche	2	Febrero	2023-02-15T00:00:00	2024-11-06T10:00:00	6	Velocidad del viento	4.8
8726	7	Sololá	701	Sololá	3	Barraneche	2	Febrero	2023-02-15T00:00:00	2024-11-06T10:00:00	7	Dirección del viento	4.83
8727	7	Sololá	701	Sololá	3	Barraneche	2	Febrero	2023-02-15T00:00:00	2024-11-06T10:00:00	1	Precipitación	0
8728	7	Sololá	701	Sololá	3	Barraneche	2	Febrero	2023-02-15T00:00:00	2024-11-06T10:00:00	8	Radiación solar	697
8729	7	Sololá	701	Sololá	3	Barraneche	2	Febrero	2023-02-15T00:00:00	2024-11-06T11:00:00	2	Temperatura media	19.2
8730	7	Sololá	701	Sololá	3	Barraneche	2	Febrero	2023-02-15T00:00:00	2024-11-06T11:00:00	4	Temperatura máxima	19.2
8731	7	Sololá	701	Sololá	3	Barraneche	2	Febrero	2023-02-15T00:00:00	2024-11-06T11:00:00	3	Temperatura mínima	18.7
8732	7	Sololá	701	Sololá	3	Barraneche	2	Febrero	2023-02-15T00:00:00	2024-11-06T11:00:00	5	Humedad	44
8733	7	Sololá	701	Sololá	3	Barraneche	2	Febrero	2023-02-15T00:00:00	2024-11-06T11:00:00	6	Velocidad del viento	9.7
8734	7	Sololá	701	Sololá	3	Barraneche	2	Febrero	2023-02-15T00:00:00	2024-11-06T11:00:00	7	Dirección del viento	9.66
8735	7	Sololá	701	Sololá	3	Barraneche	2	Febrero	2023-02-15T00:00:00	2024-11-06T11:00:00	1	Precipitación	0
8736	7	Sololá	701	Sololá	3	Barraneche	2	Febrero	2023-02-15T00:00:00	2024-11-06T11:00:00	8	Radiación solar	872
8737	7	Sololá	701	Sololá	3	Barraneche	2	Febrero	2023-02-15T00:00:00	2024-11-06T12:00:00	2	Temperatura media	19.3
8738	7	Sololá	701	Sololá	3	Barraneche	2	Febrero	2023-02-15T00:00:00	2024-11-06T12:00:00	4	Temperatura máxima	19.5
8739	7	Sololá	701	Sololá	3	Barraneche	2	Febrero	2023-02-15T00:00:00	2024-11-06T12:00:00	3	Temperatura mínima	19.1
8740	7	Sololá	701	Sololá	3	Barraneche	2	Febrero	2023-02-15T00:00:00	2024-11-06T12:00:00	5	Humedad	43
8741	7	Sololá	701	Sololá	3	Barraneche	2	Febrero	2023-02-15T00:00:00	2024-11-06T12:00:00	6	Velocidad del viento	12.9
8742	7	Sololá	701	Sololá	3	Barraneche	2	Febrero	2023-02-15T00:00:00	2024-11-06T12:00:00	7	Dirección del viento	12.87
8743	7	Sololá	701	Sololá	3	Barraneche	2	Febrero	2023-02-15T00:00:00	2024-11-06T12:00:00	1	Precipitación	0
8744	7	Sololá	701	Sololá	3	Barraneche	2	Febrero	2023-02-15T00:00:00	2024-11-06T12:00:00	8	Radiación solar	971
8745	7	Sololá	701	Sololá	3	Barraneche	2	Febrero	2023-02-15T00:00:00	2024-11-06T13:00:00	2	Temperatura media	19.2
8746	7	Sololá	701	Sololá	3	Barraneche	2	Febrero	2023-02-15T00:00:00	2024-11-06T13:00:00	4	Temperatura máxima	19.8
8747	7	Sololá	701	Sololá	3	Barraneche	2	Febrero	2023-02-15T00:00:00	2024-11-06T13:00:00	3	Temperatura mínima	18.9
8748	7	Sololá	701	Sololá	3	Barraneche	2	Febrero	2023-02-15T00:00:00	2024-11-06T13:00:00	5	Humedad	47
8749	7	Sololá	701	Sololá	3	Barraneche	2	Febrero	2023-02-15T00:00:00	2024-11-06T13:00:00	6	Velocidad del viento	12.9
8750	7	Sololá	701	Sololá	3	Barraneche	2	Febrero	2023-02-15T00:00:00	2024-11-06T13:00:00	7	Dirección del viento	12.87
8751	7	Sololá	701	Sololá	3	Barraneche	2	Febrero	2023-02-15T00:00:00	2024-11-06T13:00:00	1	Precipitación	0
8752	7	Sololá	701	Sololá	3	Barraneche	2	Febrero	2023-02-15T00:00:00	2024-11-06T13:00:00	8	Radiación solar	993
8753	7	Sololá	701	Sololá	3	Barraneche	2	Febrero	2023-02-15T00:00:00	2024-11-06T14:00:00	2	Temperatura media	18.1
8754	7	Sololá	701	Sololá	3	Barraneche	2	Febrero	2023-02-15T00:00:00	2024-11-06T14:00:00	4	Temperatura máxima	19.2
8755	7	Sololá	701	Sololá	3	Barraneche	2	Febrero	2023-02-15T00:00:00	2024-11-06T14:00:00	3	Temperatura mínima	17.9
8756	7	Sololá	701	Sololá	3	Barraneche	2	Febrero	2023-02-15T00:00:00	2024-11-06T14:00:00	5	Humedad	55
8757	7	Sololá	701	Sololá	3	Barraneche	2	Febrero	2023-02-15T00:00:00	2024-11-06T14:00:00	6	Velocidad del viento	14.5
8758	7	Sololá	701	Sololá	3	Barraneche	2	Febrero	2023-02-15T00:00:00	2024-11-06T14:00:00	7	Dirección del viento	14.48
8759	7	Sololá	701	Sololá	3	Barraneche	2	Febrero	2023-02-15T00:00:00	2024-11-06T14:00:00	1	Precipitación	0
8760	7	Sololá	701	Sololá	3	Barraneche	2	Febrero	2023-02-15T00:00:00	2024-11-06T14:00:00	8	Radiación solar	920
8761	7	Sololá	701	Sololá	3	Barraneche	2	Febrero	2023-02-15T00:00:00	2024-11-06T15:00:00	2	Temperatura media	17.5
8762	7	Sololá	701	Sololá	3	Barraneche	2	Febrero	2023-02-15T00:00:00	2024-11-06T15:00:00	4	Temperatura máxima	18.1
8763	7	Sololá	701	Sololá	3	Barraneche	2	Febrero	2023-02-15T00:00:00	2024-11-06T15:00:00	3	Temperatura mínima	17.3
8764	7	Sololá	701	Sololá	3	Barraneche	2	Febrero	2023-02-15T00:00:00	2024-11-06T15:00:00	5	Humedad	61
8765	7	Sololá	701	Sololá	3	Barraneche	2	Febrero	2023-02-15T00:00:00	2024-11-06T15:00:00	6	Velocidad del viento	12.9
8766	7	Sololá	701	Sololá	3	Barraneche	2	Febrero	2023-02-15T00:00:00	2024-11-06T15:00:00	7	Dirección del viento	12.87
8767	7	Sololá	701	Sololá	3	Barraneche	2	Febrero	2023-02-15T00:00:00	2024-11-06T15:00:00	1	Precipitación	0
8768	7	Sololá	701	Sololá	3	Barraneche	2	Febrero	2023-02-15T00:00:00	2024-11-06T15:00:00	8	Radiación solar	772
8769	7	Sololá	701	Sololá	3	Barraneche	2	Febrero	2023-02-15T00:00:00	2024-11-06T16:00:00	2	Temperatura media	17.4
8770	7	Sololá	701	Sololá	3	Barraneche	2	Febrero	2023-02-15T00:00:00	2024-11-06T16:00:00	4	Temperatura máxima	17.6
8771	7	Sololá	701	Sololá	3	Barraneche	2	Febrero	2023-02-15T00:00:00	2024-11-06T16:00:00	3	Temperatura mínima	17.1
8772	7	Sololá	701	Sololá	3	Barraneche	2	Febrero	2023-02-15T00:00:00	2024-11-06T16:00:00	5	Humedad	64
8773	7	Sololá	701	Sololá	3	Barraneche	2	Febrero	2023-02-15T00:00:00	2024-11-06T16:00:00	6	Velocidad del viento	11.3
8774	7	Sololá	701	Sololá	3	Barraneche	2	Febrero	2023-02-15T00:00:00	2024-11-06T16:00:00	7	Dirección del viento	11.27
8775	7	Sololá	701	Sololá	3	Barraneche	2	Febrero	2023-02-15T00:00:00	2024-11-06T16:00:00	1	Precipitación	0
8776	7	Sololá	701	Sololá	3	Barraneche	2	Febrero	2023-02-15T00:00:00	2024-11-06T16:00:00	8	Radiación solar	565
8777	7	Sololá	701	Sololá	3	Barraneche	2	Febrero	2023-02-15T00:00:00	2024-11-06T17:00:00	2	Temperatura media	16.6
8778	7	Sololá	701	Sololá	3	Barraneche	2	Febrero	2023-02-15T00:00:00	2024-11-06T17:00:00	4	Temperatura máxima	17.4
8779	7	Sololá	701	Sololá	3	Barraneche	2	Febrero	2023-02-15T00:00:00	2024-11-06T17:00:00	3	Temperatura mínima	16.6
8780	7	Sololá	701	Sololá	3	Barraneche	2	Febrero	2023-02-15T00:00:00	2024-11-06T17:00:00	5	Humedad	66
8781	7	Sololá	701	Sololá	3	Barraneche	2	Febrero	2023-02-15T00:00:00	2024-11-06T17:00:00	6	Velocidad del viento	8
8782	7	Sololá	701	Sololá	3	Barraneche	2	Febrero	2023-02-15T00:00:00	2024-11-06T17:00:00	7	Dirección del viento	8.05
8783	7	Sololá	701	Sololá	3	Barraneche	2	Febrero	2023-02-15T00:00:00	2024-11-06T17:00:00	1	Precipitación	0
8784	7	Sololá	701	Sololá	3	Barraneche	2	Febrero	2023-02-15T00:00:00	2024-11-06T17:00:00	8	Radiación solar	306
8785	7	Sololá	701	Sololá	3	Barraneche	2	Febrero	2023-02-15T00:00:00	2024-11-06T18:00:00	2	Temperatura media	15.2
8786	7	Sololá	701	Sololá	3	Barraneche	2	Febrero	2023-02-15T00:00:00	2024-11-06T18:00:00	4	Temperatura máxima	16.6
8787	7	Sololá	701	Sololá	3	Barraneche	2	Febrero	2023-02-15T00:00:00	2024-11-06T18:00:00	3	Temperatura mínima	15.2
8788	7	Sololá	701	Sololá	3	Barraneche	2	Febrero	2023-02-15T00:00:00	2024-11-06T18:00:00	5	Humedad	71
8789	7	Sololá	701	Sololá	3	Barraneche	2	Febrero	2023-02-15T00:00:00	2024-11-06T18:00:00	6	Velocidad del viento	4.8
8790	7	Sololá	701	Sololá	3	Barraneche	2	Febrero	2023-02-15T00:00:00	2024-11-06T18:00:00	7	Dirección del viento	4.83
8791	7	Sololá	701	Sololá	3	Barraneche	2	Febrero	2023-02-15T00:00:00	2024-11-06T18:00:00	1	Precipitación	0
8792	7	Sololá	701	Sololá	3	Barraneche	2	Febrero	2023-02-15T00:00:00	2024-11-06T18:00:00	8	Radiación solar	79
8793	7	Sololá	701	Sololá	3	Barraneche	2	Febrero	2023-02-15T00:00:00	2024-11-06T19:00:00	2	Temperatura media	12.1
8794	7	Sololá	701	Sololá	3	Barraneche	2	Febrero	2023-02-15T00:00:00	2024-11-06T19:00:00	4	Temperatura máxima	15.2
8795	7	Sololá	701	Sololá	3	Barraneche	2	Febrero	2023-02-15T00:00:00	2024-11-06T19:00:00	3	Temperatura mínima	12.1
8796	7	Sololá	701	Sololá	3	Barraneche	2	Febrero	2023-02-15T00:00:00	2024-11-06T19:00:00	5	Humedad	60
8797	7	Sololá	701	Sololá	3	Barraneche	2	Febrero	2023-02-15T00:00:00	2024-11-06T19:00:00	6	Velocidad del viento	3.2
8798	7	Sololá	701	Sololá	3	Barraneche	2	Febrero	2023-02-15T00:00:00	2024-11-06T19:00:00	7	Dirección del viento	3.22
8799	7	Sololá	701	Sololá	3	Barraneche	2	Febrero	2023-02-15T00:00:00	2024-11-06T19:00:00	1	Precipitación	0
8800	7	Sololá	701	Sololá	3	Barraneche	2	Febrero	2023-02-15T00:00:00	2024-11-06T19:00:00	8	Radiación solar	0
8801	7	Sololá	701	Sololá	3	Barraneche	2	Febrero	2023-02-15T00:00:00	2024-11-06T20:00:00	2	Temperatura media	10.2
8802	7	Sololá	701	Sololá	3	Barraneche	2	Febrero	2023-02-15T00:00:00	2024-11-06T20:00:00	4	Temperatura máxima	12.1
8803	7	Sololá	701	Sololá	3	Barraneche	2	Febrero	2023-02-15T00:00:00	2024-11-06T20:00:00	3	Temperatura mínima	10.2
8804	7	Sololá	701	Sololá	3	Barraneche	2	Febrero	2023-02-15T00:00:00	2024-11-06T20:00:00	5	Humedad	57
8805	7	Sololá	701	Sololá	3	Barraneche	2	Febrero	2023-02-15T00:00:00	2024-11-06T20:00:00	6	Velocidad del viento	6.4
8806	7	Sololá	701	Sololá	3	Barraneche	2	Febrero	2023-02-15T00:00:00	2024-11-06T20:00:00	7	Dirección del viento	6.44
8807	7	Sololá	701	Sololá	3	Barraneche	2	Febrero	2023-02-15T00:00:00	2024-11-06T20:00:00	1	Precipitación	0
8808	7	Sololá	701	Sololá	3	Barraneche	2	Febrero	2023-02-15T00:00:00	2024-11-06T20:00:00	8	Radiación solar	0
8809	7	Sololá	701	Sololá	3	Barraneche	2	Febrero	2023-02-15T00:00:00	2024-11-06T21:00:00	2	Temperatura media	9.2
8810	7	Sololá	701	Sololá	3	Barraneche	2	Febrero	2023-02-15T00:00:00	2024-11-06T21:00:00	4	Temperatura máxima	10.2
8811	7	Sololá	701	Sololá	3	Barraneche	2	Febrero	2023-02-15T00:00:00	2024-11-06T21:00:00	3	Temperatura mínima	9.2
8812	7	Sololá	701	Sololá	3	Barraneche	2	Febrero	2023-02-15T00:00:00	2024-11-06T21:00:00	5	Humedad	45
8813	7	Sololá	701	Sololá	3	Barraneche	2	Febrero	2023-02-15T00:00:00	2024-11-06T21:00:00	6	Velocidad del viento	6.4
8814	7	Sololá	701	Sololá	3	Barraneche	2	Febrero	2023-02-15T00:00:00	2024-11-06T21:00:00	7	Dirección del viento	6.44
8815	7	Sololá	701	Sololá	3	Barraneche	2	Febrero	2023-02-15T00:00:00	2024-11-06T21:00:00	1	Precipitación	0
8816	7	Sololá	701	Sololá	3	Barraneche	2	Febrero	2023-02-15T00:00:00	2024-11-06T21:00:00	8	Radiación solar	0
8817	7	Sololá	701	Sololá	3	Barraneche	2	Febrero	2023-02-15T00:00:00	2024-11-06T22:00:00	2	Temperatura media	9.7
8818	7	Sololá	701	Sololá	3	Barraneche	2	Febrero	2023-02-15T00:00:00	2024-11-06T22:00:00	4	Temperatura máxima	9.9
8819	7	Sololá	701	Sololá	3	Barraneche	2	Febrero	2023-02-15T00:00:00	2024-11-06T22:00:00	3	Temperatura mínima	9.2
8820	7	Sololá	701	Sololá	3	Barraneche	2	Febrero	2023-02-15T00:00:00	2024-11-06T22:00:00	5	Humedad	32
8821	7	Sololá	701	Sololá	3	Barraneche	2	Febrero	2023-02-15T00:00:00	2024-11-06T22:00:00	6	Velocidad del viento	9.7
8822	7	Sololá	701	Sololá	3	Barraneche	2	Febrero	2023-02-15T00:00:00	2024-11-06T22:00:00	7	Dirección del viento	9.66
8823	7	Sololá	701	Sololá	3	Barraneche	2	Febrero	2023-02-15T00:00:00	2024-11-06T22:00:00	1	Precipitación	0
8824	7	Sololá	701	Sololá	3	Barraneche	2	Febrero	2023-02-15T00:00:00	2024-11-06T22:00:00	8	Radiación solar	0
8825	7	Sololá	701	Sololá	3	Barraneche	2	Febrero	2023-02-15T00:00:00	2024-11-06T23:00:00	2	Temperatura media	10.1
8826	7	Sololá	701	Sololá	3	Barraneche	2	Febrero	2023-02-15T00:00:00	2024-11-06T23:00:00	4	Temperatura máxima	10.3
8827	7	Sololá	701	Sololá	3	Barraneche	2	Febrero	2023-02-15T00:00:00	2024-11-06T23:00:00	3	Temperatura mínima	9.4
8828	7	Sololá	701	Sololá	3	Barraneche	2	Febrero	2023-02-15T00:00:00	2024-11-06T23:00:00	5	Humedad	23
8829	7	Sololá	701	Sololá	3	Barraneche	2	Febrero	2023-02-15T00:00:00	2024-11-06T23:00:00	6	Velocidad del viento	9.7
8830	7	Sololá	701	Sololá	3	Barraneche	2	Febrero	2023-02-15T00:00:00	2024-11-06T23:00:00	7	Dirección del viento	9.66
8831	7	Sololá	701	Sololá	3	Barraneche	2	Febrero	2023-02-15T00:00:00	2024-11-06T23:00:00	1	Precipitación	0
8832	7	Sololá	701	Sololá	3	Barraneche	2	Febrero	2023-02-15T00:00:00	2024-11-06T23:00:00	8	Radiación solar	0
8833	7	Sololá	701	Sololá	3	Barraneche	2	Febrero	2023-02-16T00:00:00	2024-11-06T00:00:00	2	Temperatura media	10.5
8834	7	Sololá	701	Sololá	3	Barraneche	2	Febrero	2023-02-16T00:00:00	2024-11-06T00:00:00	4	Temperatura máxima	10.5
8835	7	Sololá	701	Sololá	3	Barraneche	2	Febrero	2023-02-16T00:00:00	2024-11-06T00:00:00	3	Temperatura mínima	9.7
8836	7	Sololá	701	Sololá	3	Barraneche	2	Febrero	2023-02-16T00:00:00	2024-11-06T00:00:00	5	Humedad	16
8837	7	Sololá	701	Sololá	3	Barraneche	2	Febrero	2023-02-16T00:00:00	2024-11-06T00:00:00	6	Velocidad del viento	9.7
8838	7	Sololá	701	Sololá	3	Barraneche	2	Febrero	2023-02-16T00:00:00	2024-11-06T00:00:00	7	Dirección del viento	9.66
8839	7	Sololá	701	Sololá	3	Barraneche	2	Febrero	2023-02-16T00:00:00	2024-11-06T00:00:00	1	Precipitación	0
8840	7	Sololá	701	Sololá	3	Barraneche	2	Febrero	2023-02-16T00:00:00	2024-11-06T00:00:00	8	Radiación solar	0
8841	7	Sololá	701	Sololá	3	Barraneche	2	Febrero	2023-02-16T00:00:00	2024-11-06T01:00:00	2	Temperatura media	10
8842	7	Sololá	701	Sololá	3	Barraneche	2	Febrero	2023-02-16T00:00:00	2024-11-06T01:00:00	4	Temperatura máxima	11.9
8843	7	Sololá	701	Sololá	3	Barraneche	2	Febrero	2023-02-16T00:00:00	2024-11-06T01:00:00	3	Temperatura mínima	9.8
8844	7	Sololá	701	Sololá	3	Barraneche	2	Febrero	2023-02-16T00:00:00	2024-11-06T01:00:00	5	Humedad	15
8845	7	Sololá	701	Sololá	3	Barraneche	2	Febrero	2023-02-16T00:00:00	2024-11-06T01:00:00	6	Velocidad del viento	11.3
8846	7	Sololá	701	Sololá	3	Barraneche	2	Febrero	2023-02-16T00:00:00	2024-11-06T01:00:00	7	Dirección del viento	11.27
8847	7	Sololá	701	Sololá	3	Barraneche	2	Febrero	2023-02-16T00:00:00	2024-11-06T01:00:00	1	Precipitación	0
8848	7	Sololá	701	Sololá	3	Barraneche	2	Febrero	2023-02-16T00:00:00	2024-11-06T01:00:00	8	Radiación solar	0
8849	7	Sololá	701	Sololá	3	Barraneche	2	Febrero	2023-02-16T00:00:00	2024-11-06T02:00:00	2	Temperatura media	8.7
8850	7	Sololá	701	Sololá	3	Barraneche	2	Febrero	2023-02-16T00:00:00	2024-11-06T02:00:00	4	Temperatura máxima	10.1
8851	7	Sololá	701	Sololá	3	Barraneche	2	Febrero	2023-02-16T00:00:00	2024-11-06T02:00:00	3	Temperatura mínima	8.7
8852	7	Sololá	701	Sololá	3	Barraneche	2	Febrero	2023-02-16T00:00:00	2024-11-06T02:00:00	5	Humedad	21
8853	7	Sololá	701	Sololá	3	Barraneche	2	Febrero	2023-02-16T00:00:00	2024-11-06T02:00:00	6	Velocidad del viento	6.4
8854	7	Sololá	701	Sololá	3	Barraneche	2	Febrero	2023-02-16T00:00:00	2024-11-06T02:00:00	7	Dirección del viento	6.44
8855	7	Sololá	701	Sololá	3	Barraneche	2	Febrero	2023-02-16T00:00:00	2024-11-06T02:00:00	1	Precipitación	0
8856	7	Sololá	701	Sololá	3	Barraneche	2	Febrero	2023-02-16T00:00:00	2024-11-06T02:00:00	8	Radiación solar	0
8857	7	Sololá	701	Sololá	3	Barraneche	2	Febrero	2023-02-16T00:00:00	2024-11-06T03:00:00	2	Temperatura media	10.1
8858	7	Sololá	701	Sololá	3	Barraneche	2	Febrero	2023-02-16T00:00:00	2024-11-06T03:00:00	4	Temperatura máxima	10.2
8859	7	Sololá	701	Sololá	3	Barraneche	2	Febrero	2023-02-16T00:00:00	2024-11-06T03:00:00	3	Temperatura mínima	8.1
8860	7	Sololá	701	Sololá	3	Barraneche	2	Febrero	2023-02-16T00:00:00	2024-11-06T03:00:00	5	Humedad	15
8861	7	Sololá	701	Sololá	3	Barraneche	2	Febrero	2023-02-16T00:00:00	2024-11-06T03:00:00	6	Velocidad del viento	9.7
8862	7	Sololá	701	Sololá	3	Barraneche	2	Febrero	2023-02-16T00:00:00	2024-11-06T03:00:00	7	Dirección del viento	9.66
8863	7	Sololá	701	Sololá	3	Barraneche	2	Febrero	2023-02-16T00:00:00	2024-11-06T03:00:00	1	Precipitación	0
8864	7	Sololá	701	Sololá	3	Barraneche	2	Febrero	2023-02-16T00:00:00	2024-11-06T03:00:00	8	Radiación solar	0
8865	7	Sololá	701	Sololá	3	Barraneche	2	Febrero	2023-02-16T00:00:00	2024-11-06T04:00:00	2	Temperatura media	9.6
8866	7	Sololá	701	Sololá	3	Barraneche	2	Febrero	2023-02-16T00:00:00	2024-11-06T04:00:00	4	Temperatura máxima	10.2
8867	7	Sololá	701	Sololá	3	Barraneche	2	Febrero	2023-02-16T00:00:00	2024-11-06T04:00:00	3	Temperatura mínima	9
8868	7	Sololá	701	Sololá	3	Barraneche	2	Febrero	2023-02-16T00:00:00	2024-11-06T04:00:00	5	Humedad	18
8869	7	Sololá	701	Sololá	3	Barraneche	2	Febrero	2023-02-16T00:00:00	2024-11-06T04:00:00	6	Velocidad del viento	8
8870	7	Sololá	701	Sololá	3	Barraneche	2	Febrero	2023-02-16T00:00:00	2024-11-06T04:00:00	7	Dirección del viento	8.05
8871	7	Sololá	701	Sololá	3	Barraneche	2	Febrero	2023-02-16T00:00:00	2024-11-06T04:00:00	1	Precipitación	0
8872	7	Sololá	701	Sololá	3	Barraneche	2	Febrero	2023-02-16T00:00:00	2024-11-06T04:00:00	8	Radiación solar	0
8873	7	Sololá	701	Sololá	3	Barraneche	2	Febrero	2023-02-16T00:00:00	2024-11-06T05:00:00	2	Temperatura media	8.6
8874	7	Sololá	701	Sololá	3	Barraneche	2	Febrero	2023-02-16T00:00:00	2024-11-06T05:00:00	4	Temperatura máxima	9.6
8875	7	Sololá	701	Sololá	3	Barraneche	2	Febrero	2023-02-16T00:00:00	2024-11-06T05:00:00	3	Temperatura mínima	8
8876	7	Sololá	701	Sololá	3	Barraneche	2	Febrero	2023-02-16T00:00:00	2024-11-06T05:00:00	5	Humedad	20
8877	7	Sololá	701	Sololá	3	Barraneche	2	Febrero	2023-02-16T00:00:00	2024-11-06T05:00:00	6	Velocidad del viento	8
8878	7	Sololá	701	Sololá	3	Barraneche	2	Febrero	2023-02-16T00:00:00	2024-11-06T05:00:00	7	Dirección del viento	8.05
8879	7	Sololá	701	Sololá	3	Barraneche	2	Febrero	2023-02-16T00:00:00	2024-11-06T05:00:00	1	Precipitación	0
8880	7	Sololá	701	Sololá	3	Barraneche	2	Febrero	2023-02-16T00:00:00	2024-11-06T05:00:00	8	Radiación solar	0
8881	7	Sololá	701	Sololá	3	Barraneche	2	Febrero	2023-02-16T00:00:00	2024-11-06T06:00:00	2	Temperatura media	9.2
8882	7	Sololá	701	Sololá	3	Barraneche	2	Febrero	2023-02-16T00:00:00	2024-11-06T06:00:00	4	Temperatura máxima	9.4
8883	7	Sololá	701	Sololá	3	Barraneche	2	Febrero	2023-02-16T00:00:00	2024-11-06T06:00:00	3	Temperatura mínima	8.2
8884	7	Sololá	701	Sololá	3	Barraneche	2	Febrero	2023-02-16T00:00:00	2024-11-06T06:00:00	5	Humedad	21
8885	7	Sololá	701	Sololá	3	Barraneche	2	Febrero	2023-02-16T00:00:00	2024-11-06T06:00:00	6	Velocidad del viento	6.4
8886	7	Sololá	701	Sololá	3	Barraneche	2	Febrero	2023-02-16T00:00:00	2024-11-06T06:00:00	7	Dirección del viento	6.44
8887	7	Sololá	701	Sololá	3	Barraneche	2	Febrero	2023-02-16T00:00:00	2024-11-06T06:00:00	1	Precipitación	0
8888	7	Sololá	701	Sololá	3	Barraneche	2	Febrero	2023-02-16T00:00:00	2024-11-06T06:00:00	8	Radiación solar	0
8889	7	Sololá	701	Sololá	3	Barraneche	2	Febrero	2023-02-16T00:00:00	2024-11-06T07:00:00	2	Temperatura media	10.8
8890	7	Sololá	701	Sololá	3	Barraneche	2	Febrero	2023-02-16T00:00:00	2024-11-06T07:00:00	4	Temperatura máxima	11.2
8891	7	Sololá	701	Sololá	3	Barraneche	2	Febrero	2023-02-16T00:00:00	2024-11-06T07:00:00	3	Temperatura mínima	9.1
8892	7	Sololá	701	Sololá	3	Barraneche	2	Febrero	2023-02-16T00:00:00	2024-11-06T07:00:00	5	Humedad	18
8893	7	Sololá	701	Sololá	3	Barraneche	2	Febrero	2023-02-16T00:00:00	2024-11-06T07:00:00	6	Velocidad del viento	9.7
8894	7	Sololá	701	Sololá	3	Barraneche	2	Febrero	2023-02-16T00:00:00	2024-11-06T07:00:00	7	Dirección del viento	9.66
8895	7	Sololá	701	Sololá	3	Barraneche	2	Febrero	2023-02-16T00:00:00	2024-11-06T07:00:00	1	Precipitación	0
8896	7	Sololá	701	Sololá	3	Barraneche	2	Febrero	2023-02-16T00:00:00	2024-11-06T07:00:00	8	Radiación solar	7
8897	7	Sololá	701	Sololá	3	Barraneche	2	Febrero	2023-02-16T00:00:00	2024-11-06T08:00:00	2	Temperatura media	15.5
8898	7	Sololá	701	Sololá	3	Barraneche	2	Febrero	2023-02-16T00:00:00	2024-11-06T08:00:00	4	Temperatura máxima	15.5
8899	7	Sololá	701	Sololá	3	Barraneche	2	Febrero	2023-02-16T00:00:00	2024-11-06T08:00:00	3	Temperatura mínima	10.7
8900	7	Sololá	701	Sololá	3	Barraneche	2	Febrero	2023-02-16T00:00:00	2024-11-06T08:00:00	5	Humedad	13
8901	7	Sololá	701	Sololá	3	Barraneche	2	Febrero	2023-02-16T00:00:00	2024-11-06T08:00:00	6	Velocidad del viento	9.7
8902	7	Sololá	701	Sololá	3	Barraneche	2	Febrero	2023-02-16T00:00:00	2024-11-06T08:00:00	7	Dirección del viento	9.66
8903	7	Sololá	701	Sololá	3	Barraneche	2	Febrero	2023-02-16T00:00:00	2024-11-06T08:00:00	1	Precipitación	0
8904	7	Sololá	701	Sololá	3	Barraneche	2	Febrero	2023-02-16T00:00:00	2024-11-06T08:00:00	8	Radiación solar	196
8905	7	Sololá	701	Sololá	3	Barraneche	2	Febrero	2023-02-16T00:00:00	2024-11-06T09:00:00	2	Temperatura media	15.4
8906	7	Sololá	701	Sololá	3	Barraneche	2	Febrero	2023-02-16T00:00:00	2024-11-06T09:00:00	4	Temperatura máxima	17.7
8907	7	Sololá	701	Sololá	3	Barraneche	2	Febrero	2023-02-16T00:00:00	2024-11-06T09:00:00	3	Temperatura mínima	15.4
8908	7	Sololá	701	Sololá	3	Barraneche	2	Febrero	2023-02-16T00:00:00	2024-11-06T09:00:00	5	Humedad	34
8909	7	Sololá	701	Sololá	3	Barraneche	2	Febrero	2023-02-16T00:00:00	2024-11-06T09:00:00	6	Velocidad del viento	6.4
8910	7	Sololá	701	Sololá	3	Barraneche	2	Febrero	2023-02-16T00:00:00	2024-11-06T09:00:00	7	Dirección del viento	6.44
8911	7	Sololá	701	Sololá	3	Barraneche	2	Febrero	2023-02-16T00:00:00	2024-11-06T09:00:00	1	Precipitación	0
8912	7	Sololá	701	Sololá	3	Barraneche	2	Febrero	2023-02-16T00:00:00	2024-11-06T09:00:00	8	Radiación solar	480
8913	7	Sololá	701	Sololá	3	Barraneche	2	Febrero	2023-02-16T00:00:00	2024-11-06T10:00:00	2	Temperatura media	19.9
8914	7	Sololá	701	Sololá	3	Barraneche	2	Febrero	2023-02-16T00:00:00	2024-11-06T10:00:00	4	Temperatura máxima	19.9
8915	7	Sololá	701	Sololá	3	Barraneche	2	Febrero	2023-02-16T00:00:00	2024-11-06T10:00:00	3	Temperatura mínima	15.4
8916	7	Sololá	701	Sololá	3	Barraneche	2	Febrero	2023-02-16T00:00:00	2024-11-06T10:00:00	5	Humedad	29
8917	7	Sololá	701	Sololá	3	Barraneche	2	Febrero	2023-02-16T00:00:00	2024-11-06T10:00:00	6	Velocidad del viento	4.8
8918	7	Sololá	701	Sololá	3	Barraneche	2	Febrero	2023-02-16T00:00:00	2024-11-06T10:00:00	7	Dirección del viento	4.83
8919	7	Sololá	701	Sololá	3	Barraneche	2	Febrero	2023-02-16T00:00:00	2024-11-06T10:00:00	1	Precipitación	0
8920	7	Sololá	701	Sololá	3	Barraneche	2	Febrero	2023-02-16T00:00:00	2024-11-06T10:00:00	8	Radiación solar	707
8921	7	Sololá	701	Sololá	3	Barraneche	2	Febrero	2023-02-16T00:00:00	2024-11-06T11:00:00	2	Temperatura media	21.1
8922	7	Sololá	701	Sololá	3	Barraneche	2	Febrero	2023-02-16T00:00:00	2024-11-06T11:00:00	4	Temperatura máxima	21.3
8923	7	Sololá	701	Sololá	3	Barraneche	2	Febrero	2023-02-16T00:00:00	2024-11-06T11:00:00	3	Temperatura mínima	19.9
8924	7	Sololá	701	Sololá	3	Barraneche	2	Febrero	2023-02-16T00:00:00	2024-11-06T11:00:00	5	Humedad	17
8925	7	Sololá	701	Sololá	3	Barraneche	2	Febrero	2023-02-16T00:00:00	2024-11-06T11:00:00	6	Velocidad del viento	12.9
8926	7	Sololá	701	Sololá	3	Barraneche	2	Febrero	2023-02-16T00:00:00	2024-11-06T11:00:00	7	Dirección del viento	12.87
8927	7	Sololá	701	Sololá	3	Barraneche	2	Febrero	2023-02-16T00:00:00	2024-11-06T11:00:00	1	Precipitación	0
8928	7	Sololá	701	Sololá	3	Barraneche	2	Febrero	2023-02-16T00:00:00	2024-11-06T11:00:00	8	Radiación solar	878
8929	7	Sololá	701	Sololá	3	Barraneche	2	Febrero	2023-02-16T00:00:00	2024-11-06T12:00:00	2	Temperatura media	19.9
8930	7	Sololá	701	Sololá	3	Barraneche	2	Febrero	2023-02-16T00:00:00	2024-11-06T12:00:00	4	Temperatura máxima	21.3
8931	7	Sololá	701	Sololá	3	Barraneche	2	Febrero	2023-02-16T00:00:00	2024-11-06T12:00:00	3	Temperatura mínima	19.8
8932	7	Sololá	701	Sololá	3	Barraneche	2	Febrero	2023-02-16T00:00:00	2024-11-06T12:00:00	5	Humedad	39
8933	7	Sololá	701	Sololá	3	Barraneche	2	Febrero	2023-02-16T00:00:00	2024-11-06T12:00:00	6	Velocidad del viento	16.1
8934	7	Sololá	701	Sololá	3	Barraneche	2	Febrero	2023-02-16T00:00:00	2024-11-06T12:00:00	7	Dirección del viento	16.09
8935	7	Sololá	701	Sololá	3	Barraneche	2	Febrero	2023-02-16T00:00:00	2024-11-06T12:00:00	1	Precipitación	0
8936	7	Sololá	701	Sololá	3	Barraneche	2	Febrero	2023-02-16T00:00:00	2024-11-06T12:00:00	8	Radiación solar	964
8937	7	Sololá	701	Sololá	3	Barraneche	2	Febrero	2023-02-16T00:00:00	2024-11-06T13:00:00	2	Temperatura media	19.7
8938	7	Sololá	701	Sololá	3	Barraneche	2	Febrero	2023-02-16T00:00:00	2024-11-06T13:00:00	4	Temperatura máxima	20
8939	7	Sololá	701	Sololá	3	Barraneche	2	Febrero	2023-02-16T00:00:00	2024-11-06T13:00:00	3	Temperatura mínima	19.3
8940	7	Sololá	701	Sololá	3	Barraneche	2	Febrero	2023-02-16T00:00:00	2024-11-06T13:00:00	5	Humedad	42
8941	7	Sololá	701	Sololá	3	Barraneche	2	Febrero	2023-02-16T00:00:00	2024-11-06T13:00:00	6	Velocidad del viento	14.5
8942	7	Sololá	701	Sololá	3	Barraneche	2	Febrero	2023-02-16T00:00:00	2024-11-06T13:00:00	7	Dirección del viento	14.48
8943	7	Sololá	701	Sololá	3	Barraneche	2	Febrero	2023-02-16T00:00:00	2024-11-06T13:00:00	1	Precipitación	0
8944	7	Sololá	701	Sololá	3	Barraneche	2	Febrero	2023-02-16T00:00:00	2024-11-06T13:00:00	8	Radiación solar	975
8945	7	Sololá	701	Sololá	3	Barraneche	2	Febrero	2023-02-16T00:00:00	2024-11-06T14:00:00	2	Temperatura media	18.9
8946	7	Sololá	701	Sololá	3	Barraneche	2	Febrero	2023-02-16T00:00:00	2024-11-06T14:00:00	4	Temperatura máxima	19.7
8947	7	Sololá	701	Sololá	3	Barraneche	2	Febrero	2023-02-16T00:00:00	2024-11-06T14:00:00	3	Temperatura mínima	18.4
8948	7	Sololá	701	Sololá	3	Barraneche	2	Febrero	2023-02-16T00:00:00	2024-11-06T14:00:00	5	Humedad	55
8949	7	Sololá	701	Sololá	3	Barraneche	2	Febrero	2023-02-16T00:00:00	2024-11-06T14:00:00	6	Velocidad del viento	16.1
8950	7	Sololá	701	Sololá	3	Barraneche	2	Febrero	2023-02-16T00:00:00	2024-11-06T14:00:00	7	Dirección del viento	16.09
8951	7	Sololá	701	Sololá	3	Barraneche	2	Febrero	2023-02-16T00:00:00	2024-11-06T14:00:00	1	Precipitación	0
8952	7	Sololá	701	Sololá	3	Barraneche	2	Febrero	2023-02-16T00:00:00	2024-11-06T14:00:00	8	Radiación solar	905
8953	7	Sololá	701	Sololá	3	Barraneche	2	Febrero	2023-02-16T00:00:00	2024-11-06T15:00:00	2	Temperatura media	19.3
8954	7	Sololá	701	Sololá	3	Barraneche	2	Febrero	2023-02-16T00:00:00	2024-11-06T15:00:00	4	Temperatura máxima	19.4
8955	7	Sololá	701	Sololá	3	Barraneche	2	Febrero	2023-02-16T00:00:00	2024-11-06T15:00:00	3	Temperatura mínima	17.9
8956	7	Sololá	701	Sololá	3	Barraneche	2	Febrero	2023-02-16T00:00:00	2024-11-06T15:00:00	5	Humedad	49
8957	7	Sololá	701	Sololá	3	Barraneche	2	Febrero	2023-02-16T00:00:00	2024-11-06T15:00:00	6	Velocidad del viento	11.3
8958	7	Sololá	701	Sololá	3	Barraneche	2	Febrero	2023-02-16T00:00:00	2024-11-06T15:00:00	7	Dirección del viento	11.27
8959	7	Sololá	701	Sololá	3	Barraneche	2	Febrero	2023-02-16T00:00:00	2024-11-06T15:00:00	1	Precipitación	0
8960	7	Sololá	701	Sololá	3	Barraneche	2	Febrero	2023-02-16T00:00:00	2024-11-06T15:00:00	8	Radiación solar	759
8961	7	Sololá	701	Sololá	3	Barraneche	2	Febrero	2023-02-16T00:00:00	2024-11-06T16:00:00	2	Temperatura media	17.9
8962	7	Sololá	701	Sololá	3	Barraneche	2	Febrero	2023-02-16T00:00:00	2024-11-06T16:00:00	4	Temperatura máxima	19.8
8963	7	Sololá	701	Sololá	3	Barraneche	2	Febrero	2023-02-16T00:00:00	2024-11-06T16:00:00	3	Temperatura mínima	17.9
8964	7	Sololá	701	Sololá	3	Barraneche	2	Febrero	2023-02-16T00:00:00	2024-11-06T16:00:00	5	Humedad	55
8965	7	Sololá	701	Sololá	3	Barraneche	2	Febrero	2023-02-16T00:00:00	2024-11-06T16:00:00	6	Velocidad del viento	9.7
8966	7	Sololá	701	Sololá	3	Barraneche	2	Febrero	2023-02-16T00:00:00	2024-11-06T16:00:00	7	Dirección del viento	9.66
8967	7	Sololá	701	Sololá	3	Barraneche	2	Febrero	2023-02-16T00:00:00	2024-11-06T16:00:00	1	Precipitación	0
8968	7	Sololá	701	Sololá	3	Barraneche	2	Febrero	2023-02-16T00:00:00	2024-11-06T16:00:00	8	Radiación solar	561
8969	7	Sololá	701	Sololá	3	Barraneche	2	Febrero	2023-02-16T00:00:00	2024-11-06T17:00:00	2	Temperatura media	15.3
8970	7	Sololá	701	Sololá	3	Barraneche	2	Febrero	2023-02-16T00:00:00	2024-11-06T17:00:00	4	Temperatura máxima	17.9
8971	7	Sololá	701	Sololá	3	Barraneche	2	Febrero	2023-02-16T00:00:00	2024-11-06T17:00:00	3	Temperatura mínima	15.1
8972	7	Sololá	701	Sololá	3	Barraneche	2	Febrero	2023-02-16T00:00:00	2024-11-06T17:00:00	5	Humedad	69
8973	7	Sololá	701	Sololá	3	Barraneche	2	Febrero	2023-02-16T00:00:00	2024-11-06T17:00:00	6	Velocidad del viento	6.4
8974	7	Sololá	701	Sololá	3	Barraneche	2	Febrero	2023-02-16T00:00:00	2024-11-06T17:00:00	7	Dirección del viento	6.44
8975	7	Sololá	701	Sololá	3	Barraneche	2	Febrero	2023-02-16T00:00:00	2024-11-06T17:00:00	1	Precipitación	0
8976	7	Sololá	701	Sololá	3	Barraneche	2	Febrero	2023-02-16T00:00:00	2024-11-06T17:00:00	8	Radiación solar	296
8977	7	Sololá	701	Sololá	3	Barraneche	2	Febrero	2023-02-16T00:00:00	2024-11-06T18:00:00	2	Temperatura media	13.7
8978	7	Sololá	701	Sololá	3	Barraneche	2	Febrero	2023-02-16T00:00:00	2024-11-06T18:00:00	4	Temperatura máxima	15.3
8979	7	Sololá	701	Sololá	3	Barraneche	2	Febrero	2023-02-16T00:00:00	2024-11-06T18:00:00	3	Temperatura mínima	13.7
8980	7	Sololá	701	Sololá	3	Barraneche	2	Febrero	2023-02-16T00:00:00	2024-11-06T18:00:00	5	Humedad	66
8981	7	Sololá	701	Sololá	3	Barraneche	2	Febrero	2023-02-16T00:00:00	2024-11-06T18:00:00	6	Velocidad del viento	3.2
8982	7	Sololá	701	Sololá	3	Barraneche	2	Febrero	2023-02-16T00:00:00	2024-11-06T18:00:00	7	Dirección del viento	3.22
8983	7	Sololá	701	Sololá	3	Barraneche	2	Febrero	2023-02-16T00:00:00	2024-11-06T18:00:00	1	Precipitación	0
8984	7	Sololá	701	Sololá	3	Barraneche	2	Febrero	2023-02-16T00:00:00	2024-11-06T18:00:00	8	Radiación solar	82
8985	7	Sololá	701	Sololá	3	Barraneche	2	Febrero	2023-02-16T00:00:00	2024-11-06T19:00:00	2	Temperatura media	12.3
8986	7	Sololá	701	Sololá	3	Barraneche	2	Febrero	2023-02-16T00:00:00	2024-11-06T19:00:00	4	Temperatura máxima	13.7
8987	7	Sololá	701	Sololá	3	Barraneche	2	Febrero	2023-02-16T00:00:00	2024-11-06T19:00:00	3	Temperatura mínima	12.3
8988	7	Sololá	701	Sololá	3	Barraneche	2	Febrero	2023-02-16T00:00:00	2024-11-06T19:00:00	5	Humedad	38
8989	7	Sololá	701	Sololá	3	Barraneche	2	Febrero	2023-02-16T00:00:00	2024-11-06T19:00:00	6	Velocidad del viento	4.8
8990	7	Sololá	701	Sololá	3	Barraneche	2	Febrero	2023-02-16T00:00:00	2024-11-06T19:00:00	7	Dirección del viento	4.83
8991	7	Sololá	701	Sololá	3	Barraneche	2	Febrero	2023-02-16T00:00:00	2024-11-06T19:00:00	1	Precipitación	0
8992	7	Sololá	701	Sololá	3	Barraneche	2	Febrero	2023-02-16T00:00:00	2024-11-06T19:00:00	8	Radiación solar	0
8993	7	Sololá	701	Sololá	3	Barraneche	2	Febrero	2023-02-16T00:00:00	2024-11-06T20:00:00	2	Temperatura media	12.8
8994	7	Sololá	701	Sololá	3	Barraneche	2	Febrero	2023-02-16T00:00:00	2024-11-06T20:00:00	4	Temperatura máxima	12.8
8995	7	Sololá	701	Sololá	3	Barraneche	2	Febrero	2023-02-16T00:00:00	2024-11-06T20:00:00	3	Temperatura mínima	12.2
8996	7	Sololá	701	Sololá	3	Barraneche	2	Febrero	2023-02-16T00:00:00	2024-11-06T20:00:00	5	Humedad	48
8997	7	Sololá	701	Sololá	3	Barraneche	2	Febrero	2023-02-16T00:00:00	2024-11-06T20:00:00	6	Velocidad del viento	8
8998	7	Sololá	701	Sololá	3	Barraneche	2	Febrero	2023-02-16T00:00:00	2024-11-06T20:00:00	7	Dirección del viento	8.05
8999	7	Sololá	701	Sololá	3	Barraneche	2	Febrero	2023-02-16T00:00:00	2024-11-06T20:00:00	1	Precipitación	0
9000	7	Sololá	701	Sololá	3	Barraneche	2	Febrero	2023-02-16T00:00:00	2024-11-06T20:00:00	8	Radiación solar	0
9001	7	Sololá	701	Sololá	3	Barraneche	2	Febrero	2023-02-16T00:00:00	2024-11-06T21:00:00	2	Temperatura media	14.9
9002	7	Sololá	701	Sololá	3	Barraneche	2	Febrero	2023-02-16T00:00:00	2024-11-06T21:00:00	4	Temperatura máxima	15.1
9003	7	Sololá	701	Sololá	3	Barraneche	2	Febrero	2023-02-16T00:00:00	2024-11-06T21:00:00	3	Temperatura mínima	12.8
9004	7	Sololá	701	Sololá	3	Barraneche	2	Febrero	2023-02-16T00:00:00	2024-11-06T21:00:00	5	Humedad	58
9005	7	Sololá	701	Sololá	3	Barraneche	2	Febrero	2023-02-16T00:00:00	2024-11-06T21:00:00	6	Velocidad del viento	12.9
9006	7	Sololá	701	Sololá	3	Barraneche	2	Febrero	2023-02-16T00:00:00	2024-11-06T21:00:00	7	Dirección del viento	12.87
9007	7	Sololá	701	Sololá	3	Barraneche	2	Febrero	2023-02-16T00:00:00	2024-11-06T21:00:00	1	Precipitación	0
9008	7	Sololá	701	Sololá	3	Barraneche	2	Febrero	2023-02-16T00:00:00	2024-11-06T21:00:00	8	Radiación solar	0
9009	7	Sololá	701	Sololá	3	Barraneche	2	Febrero	2023-02-16T00:00:00	2024-11-06T22:00:00	2	Temperatura media	13.1
9010	7	Sololá	701	Sololá	3	Barraneche	2	Febrero	2023-02-16T00:00:00	2024-11-06T22:00:00	4	Temperatura máxima	15
9011	7	Sololá	701	Sololá	3	Barraneche	2	Febrero	2023-02-16T00:00:00	2024-11-06T22:00:00	3	Temperatura mínima	13
9012	7	Sololá	701	Sololá	3	Barraneche	2	Febrero	2023-02-16T00:00:00	2024-11-06T22:00:00	5	Humedad	58
9013	7	Sololá	701	Sololá	3	Barraneche	2	Febrero	2023-02-16T00:00:00	2024-11-06T22:00:00	6	Velocidad del viento	12.9
9014	7	Sololá	701	Sololá	3	Barraneche	2	Febrero	2023-02-16T00:00:00	2024-11-06T22:00:00	7	Dirección del viento	12.87
9015	7	Sololá	701	Sololá	3	Barraneche	2	Febrero	2023-02-16T00:00:00	2024-11-06T22:00:00	1	Precipitación	0
9016	7	Sololá	701	Sololá	3	Barraneche	2	Febrero	2023-02-16T00:00:00	2024-11-06T22:00:00	8	Radiación solar	0
9017	7	Sololá	701	Sololá	3	Barraneche	2	Febrero	2023-02-16T00:00:00	2024-11-06T23:00:00	2	Temperatura media	11.1
9018	7	Sololá	701	Sololá	3	Barraneche	2	Febrero	2023-02-16T00:00:00	2024-11-06T23:00:00	4	Temperatura máxima	13.1
9019	7	Sololá	701	Sololá	3	Barraneche	2	Febrero	2023-02-16T00:00:00	2024-11-06T23:00:00	3	Temperatura mínima	11
9020	7	Sololá	701	Sololá	3	Barraneche	2	Febrero	2023-02-16T00:00:00	2024-11-06T23:00:00	5	Humedad	46
9021	7	Sololá	701	Sololá	3	Barraneche	2	Febrero	2023-02-16T00:00:00	2024-11-06T23:00:00	6	Velocidad del viento	6.4
9022	7	Sololá	701	Sololá	3	Barraneche	2	Febrero	2023-02-16T00:00:00	2024-11-06T23:00:00	7	Dirección del viento	6.44
9023	7	Sololá	701	Sololá	3	Barraneche	2	Febrero	2023-02-16T00:00:00	2024-11-06T23:00:00	1	Precipitación	0
9024	7	Sololá	701	Sololá	3	Barraneche	2	Febrero	2023-02-16T00:00:00	2024-11-06T23:00:00	8	Radiación solar	0
9025	7	Sololá	701	Sololá	3	Barraneche	2	Febrero	2023-02-17T00:00:00	2024-11-06T00:00:00	2	Temperatura media	8.9
9026	7	Sololá	701	Sololá	3	Barraneche	2	Febrero	2023-02-17T00:00:00	2024-11-06T00:00:00	4	Temperatura máxima	11.1
9027	7	Sololá	701	Sololá	3	Barraneche	2	Febrero	2023-02-17T00:00:00	2024-11-06T00:00:00	3	Temperatura mínima	8.9
9028	7	Sololá	701	Sololá	3	Barraneche	2	Febrero	2023-02-17T00:00:00	2024-11-06T00:00:00	5	Humedad	43
9029	7	Sololá	701	Sololá	3	Barraneche	2	Febrero	2023-02-17T00:00:00	2024-11-06T00:00:00	6	Velocidad del viento	4.8
9030	7	Sololá	701	Sololá	3	Barraneche	2	Febrero	2023-02-17T00:00:00	2024-11-06T00:00:00	7	Dirección del viento	4.83
9031	7	Sololá	701	Sololá	3	Barraneche	2	Febrero	2023-02-17T00:00:00	2024-11-06T00:00:00	1	Precipitación	0
9032	7	Sololá	701	Sololá	3	Barraneche	2	Febrero	2023-02-17T00:00:00	2024-11-06T00:00:00	8	Radiación solar	0
9033	7	Sololá	701	Sololá	3	Barraneche	2	Febrero	2023-02-17T00:00:00	2024-11-06T01:00:00	2	Temperatura media	7.8
9034	7	Sololá	701	Sololá	3	Barraneche	2	Febrero	2023-02-17T00:00:00	2024-11-06T01:00:00	4	Temperatura máxima	8.9
9035	7	Sololá	701	Sololá	3	Barraneche	2	Febrero	2023-02-17T00:00:00	2024-11-06T01:00:00	3	Temperatura mínima	7.7
9036	7	Sololá	701	Sololá	3	Barraneche	2	Febrero	2023-02-17T00:00:00	2024-11-06T01:00:00	5	Humedad	38
9037	7	Sololá	701	Sololá	3	Barraneche	2	Febrero	2023-02-17T00:00:00	2024-11-06T01:00:00	6	Velocidad del viento	6.4
9038	7	Sololá	701	Sololá	3	Barraneche	2	Febrero	2023-02-17T00:00:00	2024-11-06T01:00:00	7	Dirección del viento	6.44
9039	7	Sololá	701	Sololá	3	Barraneche	2	Febrero	2023-02-17T00:00:00	2024-11-06T01:00:00	1	Precipitación	0
9040	7	Sololá	701	Sololá	3	Barraneche	2	Febrero	2023-02-17T00:00:00	2024-11-06T01:00:00	8	Radiación solar	0
9041	7	Sololá	701	Sololá	3	Barraneche	2	Febrero	2023-02-17T00:00:00	2024-11-06T02:00:00	2	Temperatura media	7.9
9042	7	Sololá	701	Sololá	3	Barraneche	2	Febrero	2023-02-17T00:00:00	2024-11-06T02:00:00	4	Temperatura máxima	8.7
9043	7	Sololá	701	Sololá	3	Barraneche	2	Febrero	2023-02-17T00:00:00	2024-11-06T02:00:00	3	Temperatura mínima	7.6
9044	7	Sololá	701	Sololá	3	Barraneche	2	Febrero	2023-02-17T00:00:00	2024-11-06T02:00:00	5	Humedad	38
9045	7	Sololá	701	Sololá	3	Barraneche	2	Febrero	2023-02-17T00:00:00	2024-11-06T02:00:00	6	Velocidad del viento	4.8
9046	7	Sololá	701	Sololá	3	Barraneche	2	Febrero	2023-02-17T00:00:00	2024-11-06T02:00:00	7	Dirección del viento	4.83
9047	7	Sololá	701	Sololá	3	Barraneche	2	Febrero	2023-02-17T00:00:00	2024-11-06T02:00:00	1	Precipitación	0
9048	7	Sololá	701	Sololá	3	Barraneche	2	Febrero	2023-02-17T00:00:00	2024-11-06T02:00:00	8	Radiación solar	0
9049	7	Sololá	701	Sololá	3	Barraneche	2	Febrero	2023-02-17T00:00:00	2024-11-06T03:00:00	2	Temperatura media	6.8
9050	7	Sololá	701	Sololá	3	Barraneche	2	Febrero	2023-02-17T00:00:00	2024-11-06T03:00:00	4	Temperatura máxima	7.9
9051	7	Sololá	701	Sololá	3	Barraneche	2	Febrero	2023-02-17T00:00:00	2024-11-06T03:00:00	3	Temperatura mínima	6.7
9052	7	Sololá	701	Sololá	3	Barraneche	2	Febrero	2023-02-17T00:00:00	2024-11-06T03:00:00	5	Humedad	38
9053	7	Sololá	701	Sololá	3	Barraneche	2	Febrero	2023-02-17T00:00:00	2024-11-06T03:00:00	6	Velocidad del viento	6.4
9054	7	Sololá	701	Sololá	3	Barraneche	2	Febrero	2023-02-17T00:00:00	2024-11-06T03:00:00	7	Dirección del viento	6.44
9055	7	Sololá	701	Sololá	3	Barraneche	2	Febrero	2023-02-17T00:00:00	2024-11-06T03:00:00	1	Precipitación	0
9056	7	Sololá	701	Sololá	3	Barraneche	2	Febrero	2023-02-17T00:00:00	2024-11-06T03:00:00	8	Radiación solar	0
9057	7	Sololá	701	Sololá	3	Barraneche	2	Febrero	2023-02-17T00:00:00	2024-11-06T04:00:00	2	Temperatura media	7.3
9058	7	Sololá	701	Sololá	3	Barraneche	2	Febrero	2023-02-17T00:00:00	2024-11-06T04:00:00	4	Temperatura máxima	7.3
9059	7	Sololá	701	Sololá	3	Barraneche	2	Febrero	2023-02-17T00:00:00	2024-11-06T04:00:00	3	Temperatura mínima	6.7
9060	7	Sololá	701	Sololá	3	Barraneche	2	Febrero	2023-02-17T00:00:00	2024-11-06T04:00:00	5	Humedad	42
9061	7	Sololá	701	Sololá	3	Barraneche	2	Febrero	2023-02-17T00:00:00	2024-11-06T04:00:00	6	Velocidad del viento	4.8
9062	7	Sololá	701	Sololá	3	Barraneche	2	Febrero	2023-02-17T00:00:00	2024-11-06T04:00:00	7	Dirección del viento	4.83
9063	7	Sololá	701	Sololá	3	Barraneche	2	Febrero	2023-02-17T00:00:00	2024-11-06T04:00:00	1	Precipitación	0
9064	7	Sololá	701	Sololá	3	Barraneche	2	Febrero	2023-02-17T00:00:00	2024-11-06T04:00:00	8	Radiación solar	0
9065	7	Sololá	701	Sololá	3	Barraneche	2	Febrero	2023-02-17T00:00:00	2024-11-06T05:00:00	2	Temperatura media	8.1
9066	7	Sololá	701	Sololá	3	Barraneche	2	Febrero	2023-02-17T00:00:00	2024-11-06T05:00:00	4	Temperatura máxima	8.3
9067	7	Sololá	701	Sololá	3	Barraneche	2	Febrero	2023-02-17T00:00:00	2024-11-06T05:00:00	3	Temperatura mínima	7.2
9068	7	Sololá	701	Sololá	3	Barraneche	2	Febrero	2023-02-17T00:00:00	2024-11-06T05:00:00	5	Humedad	31
9069	7	Sololá	701	Sololá	3	Barraneche	2	Febrero	2023-02-17T00:00:00	2024-11-06T05:00:00	6	Velocidad del viento	3.2
9070	7	Sololá	701	Sololá	3	Barraneche	2	Febrero	2023-02-17T00:00:00	2024-11-06T05:00:00	7	Dirección del viento	3.22
9071	7	Sololá	701	Sololá	3	Barraneche	2	Febrero	2023-02-17T00:00:00	2024-11-06T05:00:00	1	Precipitación	0
9072	7	Sololá	701	Sololá	3	Barraneche	2	Febrero	2023-02-17T00:00:00	2024-11-06T05:00:00	8	Radiación solar	0
9073	7	Sololá	701	Sololá	3	Barraneche	2	Febrero	2023-02-17T00:00:00	2024-11-06T06:00:00	2	Temperatura media	12.4
9074	7	Sololá	701	Sololá	3	Barraneche	2	Febrero	2023-02-17T00:00:00	2024-11-06T06:00:00	4	Temperatura máxima	12.4
9075	7	Sololá	701	Sololá	3	Barraneche	2	Febrero	2023-02-17T00:00:00	2024-11-06T06:00:00	3	Temperatura mínima	7.4
9076	7	Sololá	701	Sololá	3	Barraneche	2	Febrero	2023-02-17T00:00:00	2024-11-06T06:00:00	5	Humedad	10
9077	7	Sololá	701	Sololá	3	Barraneche	2	Febrero	2023-02-17T00:00:00	2024-11-06T06:00:00	6	Velocidad del viento	3.2
9078	7	Sololá	701	Sololá	3	Barraneche	2	Febrero	2023-02-17T00:00:00	2024-11-06T06:00:00	7	Dirección del viento	3.22
9079	7	Sololá	701	Sololá	3	Barraneche	2	Febrero	2023-02-17T00:00:00	2024-11-06T06:00:00	1	Precipitación	0
9080	7	Sololá	701	Sololá	3	Barraneche	2	Febrero	2023-02-17T00:00:00	2024-11-06T06:00:00	8	Radiación solar	0
9081	7	Sololá	701	Sololá	3	Barraneche	2	Febrero	2023-02-17T00:00:00	2024-11-06T07:00:00	2	Temperatura media	14.8
9082	7	Sololá	701	Sololá	3	Barraneche	2	Febrero	2023-02-17T00:00:00	2024-11-06T07:00:00	4	Temperatura máxima	15.5
9083	7	Sololá	701	Sololá	3	Barraneche	2	Febrero	2023-02-17T00:00:00	2024-11-06T07:00:00	3	Temperatura mínima	12.5
9084	7	Sololá	701	Sololá	3	Barraneche	2	Febrero	2023-02-17T00:00:00	2024-11-06T07:00:00	5	Humedad	8
9085	7	Sololá	701	Sololá	3	Barraneche	2	Febrero	2023-02-17T00:00:00	2024-11-06T07:00:00	6	Velocidad del viento	11.3
9086	7	Sololá	701	Sololá	3	Barraneche	2	Febrero	2023-02-17T00:00:00	2024-11-06T07:00:00	7	Dirección del viento	11.27
9087	7	Sololá	701	Sololá	3	Barraneche	2	Febrero	2023-02-17T00:00:00	2024-11-06T07:00:00	1	Precipitación	0
9088	7	Sololá	701	Sololá	3	Barraneche	2	Febrero	2023-02-17T00:00:00	2024-11-06T07:00:00	8	Radiación solar	7
9089	7	Sololá	701	Sololá	3	Barraneche	2	Febrero	2023-02-17T00:00:00	2024-11-06T08:00:00	2	Temperatura media	17.9
9090	7	Sololá	701	Sololá	3	Barraneche	2	Febrero	2023-02-17T00:00:00	2024-11-06T08:00:00	4	Temperatura máxima	17.9
9091	7	Sololá	701	Sololá	3	Barraneche	2	Febrero	2023-02-17T00:00:00	2024-11-06T08:00:00	3	Temperatura mínima	14.6
9092	7	Sololá	701	Sololá	3	Barraneche	2	Febrero	2023-02-17T00:00:00	2024-11-06T08:00:00	5	Humedad	4
9093	7	Sololá	701	Sololá	3	Barraneche	2	Febrero	2023-02-17T00:00:00	2024-11-06T08:00:00	6	Velocidad del viento	14.5
9094	7	Sololá	701	Sololá	3	Barraneche	2	Febrero	2023-02-17T00:00:00	2024-11-06T08:00:00	7	Dirección del viento	14.48
9095	7	Sololá	701	Sololá	3	Barraneche	2	Febrero	2023-02-17T00:00:00	2024-11-06T08:00:00	1	Precipitación	0
9096	7	Sololá	701	Sololá	3	Barraneche	2	Febrero	2023-02-17T00:00:00	2024-11-06T08:00:00	8	Radiación solar	194
9097	7	Sololá	701	Sololá	3	Barraneche	2	Febrero	2023-02-17T00:00:00	2024-11-06T09:00:00	2	Temperatura media	18.4
9098	7	Sololá	701	Sololá	3	Barraneche	2	Febrero	2023-02-17T00:00:00	2024-11-06T09:00:00	4	Temperatura máxima	18.6
9099	7	Sololá	701	Sololá	3	Barraneche	2	Febrero	2023-02-17T00:00:00	2024-11-06T09:00:00	3	Temperatura mínima	17.9
9100	7	Sololá	701	Sololá	3	Barraneche	2	Febrero	2023-02-17T00:00:00	2024-11-06T09:00:00	5	Humedad	7
9101	7	Sololá	701	Sololá	3	Barraneche	2	Febrero	2023-02-17T00:00:00	2024-11-06T09:00:00	6	Velocidad del viento	17.7
9102	7	Sololá	701	Sololá	3	Barraneche	2	Febrero	2023-02-17T00:00:00	2024-11-06T09:00:00	7	Dirección del viento	17.7
9103	7	Sololá	701	Sololá	3	Barraneche	2	Febrero	2023-02-17T00:00:00	2024-11-06T09:00:00	1	Precipitación	0
9104	7	Sololá	701	Sololá	3	Barraneche	2	Febrero	2023-02-17T00:00:00	2024-11-06T09:00:00	8	Radiación solar	487
9105	7	Sololá	701	Sololá	3	Barraneche	2	Febrero	2023-02-17T00:00:00	2024-11-06T10:00:00	2	Temperatura media	18.3
9106	7	Sololá	701	Sololá	3	Barraneche	2	Febrero	2023-02-17T00:00:00	2024-11-06T10:00:00	4	Temperatura máxima	18.9
9107	7	Sololá	701	Sololá	3	Barraneche	2	Febrero	2023-02-17T00:00:00	2024-11-06T10:00:00	3	Temperatura mínima	18.3
9108	7	Sololá	701	Sololá	3	Barraneche	2	Febrero	2023-02-17T00:00:00	2024-11-06T10:00:00	5	Humedad	17
9109	7	Sololá	701	Sololá	3	Barraneche	2	Febrero	2023-02-17T00:00:00	2024-11-06T10:00:00	6	Velocidad del viento	20.9
9110	7	Sololá	701	Sololá	3	Barraneche	2	Febrero	2023-02-17T00:00:00	2024-11-06T10:00:00	7	Dirección del viento	20.92
9111	7	Sololá	701	Sololá	3	Barraneche	2	Febrero	2023-02-17T00:00:00	2024-11-06T10:00:00	1	Precipitación	0
9112	7	Sololá	701	Sololá	3	Barraneche	2	Febrero	2023-02-17T00:00:00	2024-11-06T10:00:00	8	Radiación solar	717
9113	7	Sololá	701	Sololá	3	Barraneche	2	Febrero	2023-02-17T00:00:00	2024-11-06T11:00:00	2	Temperatura media	18.1
9114	7	Sololá	701	Sololá	3	Barraneche	2	Febrero	2023-02-17T00:00:00	2024-11-06T11:00:00	4	Temperatura máxima	18.8
9115	7	Sololá	701	Sololá	3	Barraneche	2	Febrero	2023-02-17T00:00:00	2024-11-06T11:00:00	3	Temperatura mínima	18
9116	7	Sololá	701	Sololá	3	Barraneche	2	Febrero	2023-02-17T00:00:00	2024-11-06T11:00:00	5	Humedad	31
9117	7	Sololá	701	Sololá	3	Barraneche	2	Febrero	2023-02-17T00:00:00	2024-11-06T11:00:00	6	Velocidad del viento	19.3
9118	7	Sololá	701	Sololá	3	Barraneche	2	Febrero	2023-02-17T00:00:00	2024-11-06T11:00:00	7	Dirección del viento	19.31
9119	7	Sololá	701	Sololá	3	Barraneche	2	Febrero	2023-02-17T00:00:00	2024-11-06T11:00:00	1	Precipitación	0
9120	7	Sololá	701	Sololá	3	Barraneche	2	Febrero	2023-02-17T00:00:00	2024-11-06T11:00:00	8	Radiación solar	881
9121	7	Sololá	701	Sololá	3	Barraneche	2	Febrero	2023-02-17T00:00:00	2024-11-06T12:00:00	2	Temperatura media	18.3
9122	7	Sololá	701	Sololá	3	Barraneche	2	Febrero	2023-02-17T00:00:00	2024-11-06T12:00:00	4	Temperatura máxima	18.9
9123	7	Sololá	701	Sololá	3	Barraneche	2	Febrero	2023-02-17T00:00:00	2024-11-06T12:00:00	3	Temperatura mínima	17.9
9124	7	Sololá	701	Sololá	3	Barraneche	2	Febrero	2023-02-17T00:00:00	2024-11-06T12:00:00	5	Humedad	38
9125	7	Sololá	701	Sololá	3	Barraneche	2	Febrero	2023-02-17T00:00:00	2024-11-06T12:00:00	6	Velocidad del viento	14.5
9126	7	Sololá	701	Sololá	3	Barraneche	2	Febrero	2023-02-17T00:00:00	2024-11-06T12:00:00	7	Dirección del viento	14.48
9127	7	Sololá	701	Sololá	3	Barraneche	2	Febrero	2023-02-17T00:00:00	2024-11-06T12:00:00	1	Precipitación	0
9128	7	Sololá	701	Sololá	3	Barraneche	2	Febrero	2023-02-17T00:00:00	2024-11-06T12:00:00	8	Radiación solar	967
9129	7	Sololá	701	Sololá	3	Barraneche	2	Febrero	2023-02-17T00:00:00	2024-11-06T13:00:00	2	Temperatura media	18.4
9130	7	Sololá	701	Sololá	3	Barraneche	2	Febrero	2023-02-17T00:00:00	2024-11-06T13:00:00	4	Temperatura máxima	18.7
9131	7	Sololá	701	Sololá	3	Barraneche	2	Febrero	2023-02-17T00:00:00	2024-11-06T13:00:00	3	Temperatura mínima	17.9
9132	7	Sololá	701	Sololá	3	Barraneche	2	Febrero	2023-02-17T00:00:00	2024-11-06T13:00:00	5	Humedad	35
9133	7	Sololá	701	Sololá	3	Barraneche	2	Febrero	2023-02-17T00:00:00	2024-11-06T13:00:00	6	Velocidad del viento	16.1
9134	7	Sololá	701	Sololá	3	Barraneche	2	Febrero	2023-02-17T00:00:00	2024-11-06T13:00:00	7	Dirección del viento	16.09
9135	7	Sololá	701	Sololá	3	Barraneche	2	Febrero	2023-02-17T00:00:00	2024-11-06T13:00:00	1	Precipitación	0
9136	7	Sololá	701	Sololá	3	Barraneche	2	Febrero	2023-02-17T00:00:00	2024-11-06T13:00:00	8	Radiación solar	978
9137	7	Sololá	701	Sololá	3	Barraneche	2	Febrero	2023-02-17T00:00:00	2024-11-06T14:00:00	2	Temperatura media	17.5
9138	7	Sololá	701	Sololá	3	Barraneche	2	Febrero	2023-02-17T00:00:00	2024-11-06T14:00:00	4	Temperatura máxima	18.7
9139	7	Sololá	701	Sololá	3	Barraneche	2	Febrero	2023-02-17T00:00:00	2024-11-06T14:00:00	3	Temperatura mínima	17.5
9140	7	Sololá	701	Sololá	3	Barraneche	2	Febrero	2023-02-17T00:00:00	2024-11-06T14:00:00	5	Humedad	39
9141	7	Sololá	701	Sololá	3	Barraneche	2	Febrero	2023-02-17T00:00:00	2024-11-06T14:00:00	6	Velocidad del viento	20.9
9142	7	Sololá	701	Sololá	3	Barraneche	2	Febrero	2023-02-17T00:00:00	2024-11-06T14:00:00	7	Dirección del viento	20.92
9143	7	Sololá	701	Sololá	3	Barraneche	2	Febrero	2023-02-17T00:00:00	2024-11-06T14:00:00	1	Precipitación	0
9144	7	Sololá	701	Sololá	3	Barraneche	2	Febrero	2023-02-17T00:00:00	2024-11-06T14:00:00	8	Radiación solar	946
9145	7	Sololá	701	Sololá	3	Barraneche	2	Febrero	2023-02-17T00:00:00	2024-11-06T15:00:00	2	Temperatura media	16.7
9146	7	Sololá	701	Sololá	3	Barraneche	2	Febrero	2023-02-17T00:00:00	2024-11-06T15:00:00	4	Temperatura máxima	17.6
9147	7	Sololá	701	Sololá	3	Barraneche	2	Febrero	2023-02-17T00:00:00	2024-11-06T15:00:00	3	Temperatura mínima	16.3
9148	7	Sololá	701	Sololá	3	Barraneche	2	Febrero	2023-02-17T00:00:00	2024-11-06T15:00:00	5	Humedad	42
9149	7	Sololá	701	Sololá	3	Barraneche	2	Febrero	2023-02-17T00:00:00	2024-11-06T15:00:00	6	Velocidad del viento	22.5
9150	7	Sololá	701	Sololá	3	Barraneche	2	Febrero	2023-02-17T00:00:00	2024-11-06T15:00:00	7	Dirección del viento	22.53
9151	7	Sololá	701	Sololá	3	Barraneche	2	Febrero	2023-02-17T00:00:00	2024-11-06T15:00:00	1	Precipitación	0
9152	7	Sololá	701	Sololá	3	Barraneche	2	Febrero	2023-02-17T00:00:00	2024-11-06T15:00:00	8	Radiación solar	710
9153	7	Sololá	701	Sololá	3	Barraneche	2	Febrero	2023-02-17T00:00:00	2024-11-06T16:00:00	2	Temperatura media	15.7
9154	7	Sololá	701	Sololá	3	Barraneche	2	Febrero	2023-02-17T00:00:00	2024-11-06T16:00:00	4	Temperatura máxima	16.8
9155	7	Sololá	701	Sololá	3	Barraneche	2	Febrero	2023-02-17T00:00:00	2024-11-06T16:00:00	3	Temperatura mínima	15.3
9156	7	Sololá	701	Sololá	3	Barraneche	2	Febrero	2023-02-17T00:00:00	2024-11-06T16:00:00	5	Humedad	44
9157	7	Sololá	701	Sololá	3	Barraneche	2	Febrero	2023-02-17T00:00:00	2024-11-06T16:00:00	6	Velocidad del viento	27.4
9158	7	Sololá	701	Sololá	3	Barraneche	2	Febrero	2023-02-17T00:00:00	2024-11-06T16:00:00	7	Dirección del viento	27.36
9159	7	Sololá	701	Sololá	3	Barraneche	2	Febrero	2023-02-17T00:00:00	2024-11-06T16:00:00	1	Precipitación	0
9160	7	Sololá	701	Sololá	3	Barraneche	2	Febrero	2023-02-17T00:00:00	2024-11-06T16:00:00	8	Radiación solar	559
9161	7	Sololá	701	Sololá	3	Barraneche	2	Febrero	2023-02-17T00:00:00	2024-11-06T17:00:00	2	Temperatura media	14.7
9162	7	Sololá	701	Sololá	3	Barraneche	2	Febrero	2023-02-17T00:00:00	2024-11-06T17:00:00	4	Temperatura máxima	16.4
9163	7	Sololá	701	Sololá	3	Barraneche	2	Febrero	2023-02-17T00:00:00	2024-11-06T17:00:00	3	Temperatura mínima	14.7
9164	7	Sololá	701	Sololá	3	Barraneche	2	Febrero	2023-02-17T00:00:00	2024-11-06T17:00:00	5	Humedad	48
9165	7	Sololá	701	Sololá	3	Barraneche	2	Febrero	2023-02-17T00:00:00	2024-11-06T17:00:00	6	Velocidad del viento	20.9
9166	7	Sololá	701	Sololá	3	Barraneche	2	Febrero	2023-02-17T00:00:00	2024-11-06T17:00:00	7	Dirección del viento	20.92
9167	7	Sololá	701	Sololá	3	Barraneche	2	Febrero	2023-02-17T00:00:00	2024-11-06T17:00:00	1	Precipitación	0
9168	7	Sololá	701	Sololá	3	Barraneche	2	Febrero	2023-02-17T00:00:00	2024-11-06T17:00:00	8	Radiación solar	303
9169	7	Sololá	701	Sololá	3	Barraneche	2	Febrero	2023-02-17T00:00:00	2024-11-06T18:00:00	2	Temperatura media	12.9
9170	7	Sololá	701	Sololá	3	Barraneche	2	Febrero	2023-02-17T00:00:00	2024-11-06T18:00:00	4	Temperatura máxima	14.8
9171	7	Sololá	701	Sololá	3	Barraneche	2	Febrero	2023-02-17T00:00:00	2024-11-06T18:00:00	3	Temperatura mínima	12.9
9172	7	Sololá	701	Sololá	3	Barraneche	2	Febrero	2023-02-17T00:00:00	2024-11-06T18:00:00	5	Humedad	56
9173	7	Sololá	701	Sololá	3	Barraneche	2	Febrero	2023-02-17T00:00:00	2024-11-06T18:00:00	6	Velocidad del viento	22.5
9174	7	Sololá	701	Sololá	3	Barraneche	2	Febrero	2023-02-17T00:00:00	2024-11-06T18:00:00	7	Dirección del viento	22.53
9175	7	Sololá	701	Sololá	3	Barraneche	2	Febrero	2023-02-17T00:00:00	2024-11-06T18:00:00	1	Precipitación	0
9176	7	Sololá	701	Sololá	3	Barraneche	2	Febrero	2023-02-17T00:00:00	2024-11-06T18:00:00	8	Radiación solar	51
9177	7	Sololá	701	Sololá	3	Barraneche	2	Febrero	2023-02-17T00:00:00	2024-11-06T19:00:00	2	Temperatura media	12
9178	7	Sololá	701	Sololá	3	Barraneche	2	Febrero	2023-02-17T00:00:00	2024-11-06T19:00:00	4	Temperatura máxima	12.9
9179	7	Sololá	701	Sololá	3	Barraneche	2	Febrero	2023-02-17T00:00:00	2024-11-06T19:00:00	3	Temperatura mínima	11.9
9180	7	Sololá	701	Sololá	3	Barraneche	2	Febrero	2023-02-17T00:00:00	2024-11-06T19:00:00	5	Humedad	57
9181	7	Sololá	701	Sololá	3	Barraneche	2	Febrero	2023-02-17T00:00:00	2024-11-06T19:00:00	6	Velocidad del viento	30.6
9182	7	Sololá	701	Sololá	3	Barraneche	2	Febrero	2023-02-17T00:00:00	2024-11-06T19:00:00	7	Dirección del viento	30.58
9183	7	Sololá	701	Sololá	3	Barraneche	2	Febrero	2023-02-17T00:00:00	2024-11-06T19:00:00	1	Precipitación	0
9184	7	Sololá	701	Sololá	3	Barraneche	2	Febrero	2023-02-17T00:00:00	2024-11-06T19:00:00	8	Radiación solar	0
9185	7	Sololá	701	Sololá	3	Barraneche	2	Febrero	2023-02-17T00:00:00	2024-11-06T20:00:00	2	Temperatura media	11.9
9186	7	Sololá	701	Sololá	3	Barraneche	2	Febrero	2023-02-17T00:00:00	2024-11-06T20:00:00	4	Temperatura máxima	12.2
9187	7	Sololá	701	Sololá	3	Barraneche	2	Febrero	2023-02-17T00:00:00	2024-11-06T20:00:00	3	Temperatura mínima	11.9
9188	7	Sololá	701	Sololá	3	Barraneche	2	Febrero	2023-02-17T00:00:00	2024-11-06T20:00:00	5	Humedad	62
9189	7	Sololá	701	Sololá	3	Barraneche	2	Febrero	2023-02-17T00:00:00	2024-11-06T20:00:00	6	Velocidad del viento	37
9190	7	Sololá	701	Sololá	3	Barraneche	2	Febrero	2023-02-17T00:00:00	2024-11-06T20:00:00	7	Dirección del viento	37.01
9191	7	Sololá	701	Sololá	3	Barraneche	2	Febrero	2023-02-17T00:00:00	2024-11-06T20:00:00	1	Precipitación	0
9192	7	Sololá	701	Sololá	3	Barraneche	2	Febrero	2023-02-17T00:00:00	2024-11-06T20:00:00	8	Radiación solar	0
9193	7	Sololá	701	Sololá	3	Barraneche	2	Febrero	2023-02-17T00:00:00	2024-11-06T21:00:00	2	Temperatura media	11.9
9194	7	Sololá	701	Sololá	3	Barraneche	2	Febrero	2023-02-17T00:00:00	2024-11-06T21:00:00	4	Temperatura máxima	12
9195	7	Sololá	701	Sololá	3	Barraneche	2	Febrero	2023-02-17T00:00:00	2024-11-06T21:00:00	3	Temperatura mínima	11.7
9196	7	Sololá	701	Sololá	3	Barraneche	2	Febrero	2023-02-17T00:00:00	2024-11-06T21:00:00	5	Humedad	60
9197	7	Sololá	701	Sololá	3	Barraneche	2	Febrero	2023-02-17T00:00:00	2024-11-06T21:00:00	6	Velocidad del viento	41.8
9198	7	Sololá	701	Sololá	3	Barraneche	2	Febrero	2023-02-17T00:00:00	2024-11-06T21:00:00	7	Dirección del viento	41.84
9199	7	Sololá	701	Sololá	3	Barraneche	2	Febrero	2023-02-17T00:00:00	2024-11-06T21:00:00	1	Precipitación	0
9200	7	Sololá	701	Sololá	3	Barraneche	2	Febrero	2023-02-17T00:00:00	2024-11-06T21:00:00	8	Radiación solar	0
9201	7	Sololá	701	Sololá	3	Barraneche	2	Febrero	2023-02-17T00:00:00	2024-11-06T22:00:00	2	Temperatura media	12.1
9202	7	Sololá	701	Sololá	3	Barraneche	2	Febrero	2023-02-17T00:00:00	2024-11-06T22:00:00	4	Temperatura máxima	12.2
9203	7	Sololá	701	Sololá	3	Barraneche	2	Febrero	2023-02-17T00:00:00	2024-11-06T22:00:00	3	Temperatura mínima	11.9
9204	7	Sololá	701	Sololá	3	Barraneche	2	Febrero	2023-02-17T00:00:00	2024-11-06T22:00:00	5	Humedad	63
9205	7	Sololá	701	Sololá	3	Barraneche	2	Febrero	2023-02-17T00:00:00	2024-11-06T22:00:00	6	Velocidad del viento	41.8
9206	7	Sololá	701	Sololá	3	Barraneche	2	Febrero	2023-02-17T00:00:00	2024-11-06T22:00:00	7	Dirección del viento	41.84
9207	7	Sololá	701	Sololá	3	Barraneche	2	Febrero	2023-02-17T00:00:00	2024-11-06T22:00:00	1	Precipitación	0
9208	7	Sololá	701	Sololá	3	Barraneche	2	Febrero	2023-02-17T00:00:00	2024-11-06T22:00:00	8	Radiación solar	0
9209	7	Sololá	701	Sololá	3	Barraneche	2	Febrero	2023-02-17T00:00:00	2024-11-06T23:00:00	2	Temperatura media	12.2
9210	7	Sololá	701	Sololá	3	Barraneche	2	Febrero	2023-02-17T00:00:00	2024-11-06T23:00:00	4	Temperatura máxima	12.2
9211	7	Sololá	701	Sololá	3	Barraneche	2	Febrero	2023-02-17T00:00:00	2024-11-06T23:00:00	3	Temperatura mínima	11.8
9212	7	Sololá	701	Sololá	3	Barraneche	2	Febrero	2023-02-17T00:00:00	2024-11-06T23:00:00	5	Humedad	63
9213	7	Sololá	701	Sololá	3	Barraneche	2	Febrero	2023-02-17T00:00:00	2024-11-06T23:00:00	6	Velocidad del viento	41.8
9214	7	Sololá	701	Sololá	3	Barraneche	2	Febrero	2023-02-17T00:00:00	2024-11-06T23:00:00	7	Dirección del viento	41.84
9215	7	Sololá	701	Sololá	3	Barraneche	2	Febrero	2023-02-17T00:00:00	2024-11-06T23:00:00	1	Precipitación	0
9216	7	Sololá	701	Sololá	3	Barraneche	2	Febrero	2023-02-17T00:00:00	2024-11-06T23:00:00	8	Radiación solar	0
9217	7	Sololá	701	Sololá	3	Barraneche	2	Febrero	2023-02-18T00:00:00	2024-11-06T00:00:00	2	Temperatura media	12.1
9218	7	Sololá	701	Sololá	3	Barraneche	2	Febrero	2023-02-18T00:00:00	2024-11-06T00:00:00	4	Temperatura máxima	12.3
9219	7	Sololá	701	Sololá	3	Barraneche	2	Febrero	2023-02-18T00:00:00	2024-11-06T00:00:00	3	Temperatura mínima	11.7
9220	7	Sololá	701	Sololá	3	Barraneche	2	Febrero	2023-02-18T00:00:00	2024-11-06T00:00:00	5	Humedad	65
9221	7	Sololá	701	Sololá	3	Barraneche	2	Febrero	2023-02-18T00:00:00	2024-11-06T00:00:00	6	Velocidad del viento	46.7
9222	7	Sololá	701	Sololá	3	Barraneche	2	Febrero	2023-02-18T00:00:00	2024-11-06T00:00:00	7	Dirección del viento	46.67
9223	7	Sololá	701	Sololá	3	Barraneche	2	Febrero	2023-02-18T00:00:00	2024-11-06T00:00:00	1	Precipitación	0
9224	7	Sololá	701	Sololá	3	Barraneche	2	Febrero	2023-02-18T00:00:00	2024-11-06T00:00:00	8	Radiación solar	0
9225	7	Sololá	701	Sololá	3	Barraneche	2	Febrero	2023-02-18T00:00:00	2024-11-06T01:00:00	2	Temperatura media	12.1
9226	7	Sololá	701	Sololá	3	Barraneche	2	Febrero	2023-02-18T00:00:00	2024-11-06T01:00:00	4	Temperatura máxima	12.2
9227	7	Sololá	701	Sololá	3	Barraneche	2	Febrero	2023-02-18T00:00:00	2024-11-06T01:00:00	3	Temperatura mínima	12
9228	7	Sololá	701	Sololá	3	Barraneche	2	Febrero	2023-02-18T00:00:00	2024-11-06T01:00:00	5	Humedad	66
9229	7	Sololá	701	Sololá	3	Barraneche	2	Febrero	2023-02-18T00:00:00	2024-11-06T01:00:00	6	Velocidad del viento	45.1
9230	7	Sololá	701	Sololá	3	Barraneche	2	Febrero	2023-02-18T00:00:00	2024-11-06T01:00:00	7	Dirección del viento	45.06
9231	7	Sololá	701	Sololá	3	Barraneche	2	Febrero	2023-02-18T00:00:00	2024-11-06T01:00:00	1	Precipitación	0
9232	7	Sololá	701	Sololá	3	Barraneche	2	Febrero	2023-02-18T00:00:00	2024-11-06T01:00:00	8	Radiación solar	0
9233	7	Sololá	701	Sololá	3	Barraneche	2	Febrero	2023-02-18T00:00:00	2024-11-06T02:00:00	2	Temperatura media	11.7
9234	7	Sololá	701	Sololá	3	Barraneche	2	Febrero	2023-02-18T00:00:00	2024-11-06T02:00:00	4	Temperatura máxima	12.2
9235	7	Sololá	701	Sololá	3	Barraneche	2	Febrero	2023-02-18T00:00:00	2024-11-06T02:00:00	3	Temperatura mínima	11.7
9236	7	Sololá	701	Sololá	3	Barraneche	2	Febrero	2023-02-18T00:00:00	2024-11-06T02:00:00	5	Humedad	70
9237	7	Sololá	701	Sololá	3	Barraneche	2	Febrero	2023-02-18T00:00:00	2024-11-06T02:00:00	6	Velocidad del viento	40.2
9238	7	Sololá	701	Sololá	3	Barraneche	2	Febrero	2023-02-18T00:00:00	2024-11-06T02:00:00	7	Dirección del viento	40.23
9239	7	Sololá	701	Sololá	3	Barraneche	2	Febrero	2023-02-18T00:00:00	2024-11-06T02:00:00	1	Precipitación	0.4
9240	7	Sololá	701	Sololá	3	Barraneche	2	Febrero	2023-02-18T00:00:00	2024-11-06T02:00:00	8	Radiación solar	0
9241	7	Sololá	701	Sololá	3	Barraneche	2	Febrero	2023-02-18T00:00:00	2024-11-06T03:00:00	2	Temperatura media	11.3
9242	7	Sololá	701	Sololá	3	Barraneche	2	Febrero	2023-02-18T00:00:00	2024-11-06T03:00:00	4	Temperatura máxima	11.7
9243	7	Sololá	701	Sololá	3	Barraneche	2	Febrero	2023-02-18T00:00:00	2024-11-06T03:00:00	3	Temperatura mínima	10.9
9244	7	Sololá	701	Sololá	3	Barraneche	2	Febrero	2023-02-18T00:00:00	2024-11-06T03:00:00	5	Humedad	67
9245	7	Sololá	701	Sololá	3	Barraneche	2	Febrero	2023-02-18T00:00:00	2024-11-06T03:00:00	6	Velocidad del viento	35.4
9246	7	Sololá	701	Sololá	3	Barraneche	2	Febrero	2023-02-18T00:00:00	2024-11-06T03:00:00	7	Dirección del viento	35.41
9247	7	Sololá	701	Sololá	3	Barraneche	2	Febrero	2023-02-18T00:00:00	2024-11-06T03:00:00	1	Precipitación	0
9248	7	Sololá	701	Sololá	3	Barraneche	2	Febrero	2023-02-18T00:00:00	2024-11-06T03:00:00	8	Radiación solar	0
9249	7	Sololá	701	Sololá	3	Barraneche	2	Febrero	2023-02-18T00:00:00	2024-11-06T04:00:00	2	Temperatura media	10.4
9250	7	Sololá	701	Sololá	3	Barraneche	2	Febrero	2023-02-18T00:00:00	2024-11-06T04:00:00	4	Temperatura máxima	11.4
9251	7	Sololá	701	Sololá	3	Barraneche	2	Febrero	2023-02-18T00:00:00	2024-11-06T04:00:00	3	Temperatura mínima	10.3
9252	7	Sololá	701	Sololá	3	Barraneche	2	Febrero	2023-02-18T00:00:00	2024-11-06T04:00:00	5	Humedad	64
9253	7	Sololá	701	Sololá	3	Barraneche	2	Febrero	2023-02-18T00:00:00	2024-11-06T04:00:00	6	Velocidad del viento	41.8
9254	7	Sololá	701	Sololá	3	Barraneche	2	Febrero	2023-02-18T00:00:00	2024-11-06T04:00:00	7	Dirección del viento	41.84
9255	7	Sololá	701	Sololá	3	Barraneche	2	Febrero	2023-02-18T00:00:00	2024-11-06T04:00:00	1	Precipitación	0
9256	7	Sololá	701	Sololá	3	Barraneche	2	Febrero	2023-02-18T00:00:00	2024-11-06T04:00:00	8	Radiación solar	0
9257	7	Sololá	701	Sololá	3	Barraneche	2	Febrero	2023-02-18T00:00:00	2024-11-06T05:00:00	2	Temperatura media	10.2
9258	7	Sololá	701	Sololá	3	Barraneche	2	Febrero	2023-02-18T00:00:00	2024-11-06T05:00:00	4	Temperatura máxima	10.4
9259	7	Sololá	701	Sololá	3	Barraneche	2	Febrero	2023-02-18T00:00:00	2024-11-06T05:00:00	3	Temperatura mínima	10.1
9260	7	Sololá	701	Sololá	3	Barraneche	2	Febrero	2023-02-18T00:00:00	2024-11-06T05:00:00	5	Humedad	61
9261	7	Sololá	701	Sololá	3	Barraneche	2	Febrero	2023-02-18T00:00:00	2024-11-06T05:00:00	6	Velocidad del viento	41.8
9262	7	Sololá	701	Sololá	3	Barraneche	2	Febrero	2023-02-18T00:00:00	2024-11-06T05:00:00	7	Dirección del viento	41.84
9263	7	Sololá	701	Sololá	3	Barraneche	2	Febrero	2023-02-18T00:00:00	2024-11-06T05:00:00	1	Precipitación	0
9264	7	Sololá	701	Sololá	3	Barraneche	2	Febrero	2023-02-18T00:00:00	2024-11-06T05:00:00	8	Radiación solar	0
9265	7	Sololá	701	Sololá	3	Barraneche	2	Febrero	2023-02-18T00:00:00	2024-11-06T06:00:00	2	Temperatura media	9.9
9266	7	Sololá	701	Sololá	3	Barraneche	2	Febrero	2023-02-18T00:00:00	2024-11-06T06:00:00	4	Temperatura máxima	10.3
9267	7	Sololá	701	Sololá	3	Barraneche	2	Febrero	2023-02-18T00:00:00	2024-11-06T06:00:00	3	Temperatura mínima	9.9
9268	7	Sololá	701	Sololá	3	Barraneche	2	Febrero	2023-02-18T00:00:00	2024-11-06T06:00:00	5	Humedad	61
9269	7	Sololá	701	Sololá	3	Barraneche	2	Febrero	2023-02-18T00:00:00	2024-11-06T06:00:00	6	Velocidad del viento	41.8
9270	7	Sololá	701	Sololá	3	Barraneche	2	Febrero	2023-02-18T00:00:00	2024-11-06T06:00:00	7	Dirección del viento	41.84
9271	7	Sololá	701	Sololá	3	Barraneche	2	Febrero	2023-02-18T00:00:00	2024-11-06T06:00:00	1	Precipitación	0
9272	7	Sololá	701	Sololá	3	Barraneche	2	Febrero	2023-02-18T00:00:00	2024-11-06T06:00:00	8	Radiación solar	0
9273	7	Sololá	701	Sololá	3	Barraneche	2	Febrero	2023-02-18T00:00:00	2024-11-06T07:00:00	2	Temperatura media	10.1
9274	7	Sololá	701	Sololá	3	Barraneche	2	Febrero	2023-02-18T00:00:00	2024-11-06T07:00:00	4	Temperatura máxima	11.1
9275	7	Sololá	701	Sololá	3	Barraneche	2	Febrero	2023-02-18T00:00:00	2024-11-06T07:00:00	3	Temperatura mínima	9.8
9276	7	Sololá	701	Sololá	3	Barraneche	2	Febrero	2023-02-18T00:00:00	2024-11-06T07:00:00	5	Humedad	56
9277	7	Sololá	701	Sololá	3	Barraneche	2	Febrero	2023-02-18T00:00:00	2024-11-06T07:00:00	6	Velocidad del viento	43.5
9278	7	Sololá	701	Sololá	3	Barraneche	2	Febrero	2023-02-18T00:00:00	2024-11-06T07:00:00	7	Dirección del viento	43.45
9279	7	Sololá	701	Sololá	3	Barraneche	2	Febrero	2023-02-18T00:00:00	2024-11-06T07:00:00	1	Precipitación	0
9280	7	Sololá	701	Sololá	3	Barraneche	2	Febrero	2023-02-18T00:00:00	2024-11-06T07:00:00	8	Radiación solar	7
9281	7	Sololá	701	Sololá	3	Barraneche	2	Febrero	2023-02-18T00:00:00	2024-11-06T08:00:00	2	Temperatura media	11.5
9282	7	Sololá	701	Sololá	3	Barraneche	2	Febrero	2023-02-18T00:00:00	2024-11-06T08:00:00	4	Temperatura máxima	11.9
9283	7	Sololá	701	Sololá	3	Barraneche	2	Febrero	2023-02-18T00:00:00	2024-11-06T08:00:00	3	Temperatura mínima	10.1
9284	7	Sololá	701	Sololá	3	Barraneche	2	Febrero	2023-02-18T00:00:00	2024-11-06T08:00:00	5	Humedad	51
9285	7	Sololá	701	Sololá	3	Barraneche	2	Febrero	2023-02-18T00:00:00	2024-11-06T08:00:00	6	Velocidad del viento	43.5
9286	7	Sololá	701	Sololá	3	Barraneche	2	Febrero	2023-02-18T00:00:00	2024-11-06T08:00:00	7	Dirección del viento	43.45
9287	7	Sololá	701	Sololá	3	Barraneche	2	Febrero	2023-02-18T00:00:00	2024-11-06T08:00:00	1	Precipitación	0
9288	7	Sololá	701	Sololá	3	Barraneche	2	Febrero	2023-02-18T00:00:00	2024-11-06T08:00:00	8	Radiación solar	188
9289	7	Sololá	701	Sololá	3	Barraneche	2	Febrero	2023-02-18T00:00:00	2024-11-06T09:00:00	2	Temperatura media	12.9
9290	7	Sololá	701	Sololá	3	Barraneche	2	Febrero	2023-02-18T00:00:00	2024-11-06T09:00:00	4	Temperatura máxima	12.9
9291	7	Sololá	701	Sololá	3	Barraneche	2	Febrero	2023-02-18T00:00:00	2024-11-06T09:00:00	3	Temperatura mínima	11.5
9292	7	Sololá	701	Sololá	3	Barraneche	2	Febrero	2023-02-18T00:00:00	2024-11-06T09:00:00	5	Humedad	56
9293	7	Sololá	701	Sololá	3	Barraneche	2	Febrero	2023-02-18T00:00:00	2024-11-06T09:00:00	6	Velocidad del viento	40.2
9294	7	Sololá	701	Sololá	3	Barraneche	2	Febrero	2023-02-18T00:00:00	2024-11-06T09:00:00	7	Dirección del viento	40.23
9295	7	Sololá	701	Sololá	3	Barraneche	2	Febrero	2023-02-18T00:00:00	2024-11-06T09:00:00	1	Precipitación	0
9296	7	Sololá	701	Sololá	3	Barraneche	2	Febrero	2023-02-18T00:00:00	2024-11-06T09:00:00	8	Radiación solar	482
9297	7	Sololá	701	Sololá	3	Barraneche	2	Febrero	2023-02-18T00:00:00	2024-11-06T10:00:00	2	Temperatura media	13.4
9298	7	Sololá	701	Sololá	3	Barraneche	2	Febrero	2023-02-18T00:00:00	2024-11-06T10:00:00	4	Temperatura máxima	13.5
9299	7	Sololá	701	Sololá	3	Barraneche	2	Febrero	2023-02-18T00:00:00	2024-11-06T10:00:00	3	Temperatura mínima	12.8
9300	7	Sololá	701	Sololá	3	Barraneche	2	Febrero	2023-02-18T00:00:00	2024-11-06T10:00:00	5	Humedad	58
9301	7	Sololá	701	Sololá	3	Barraneche	2	Febrero	2023-02-18T00:00:00	2024-11-06T10:00:00	6	Velocidad del viento	40.2
9302	7	Sololá	701	Sololá	3	Barraneche	2	Febrero	2023-02-18T00:00:00	2024-11-06T10:00:00	7	Dirección del viento	40.23
9303	7	Sololá	701	Sololá	3	Barraneche	2	Febrero	2023-02-18T00:00:00	2024-11-06T10:00:00	1	Precipitación	0
9304	7	Sololá	701	Sololá	3	Barraneche	2	Febrero	2023-02-18T00:00:00	2024-11-06T10:00:00	8	Radiación solar	716
9305	7	Sololá	701	Sololá	3	Barraneche	2	Febrero	2023-02-18T00:00:00	2024-11-06T11:00:00	2	Temperatura media	15.1
9306	7	Sololá	701	Sololá	3	Barraneche	2	Febrero	2023-02-18T00:00:00	2024-11-06T11:00:00	4	Temperatura máxima	15.1
9307	7	Sololá	701	Sololá	3	Barraneche	2	Febrero	2023-02-18T00:00:00	2024-11-06T11:00:00	3	Temperatura mínima	13.4
9308	7	Sololá	701	Sololá	3	Barraneche	2	Febrero	2023-02-18T00:00:00	2024-11-06T11:00:00	5	Humedad	54
9309	7	Sololá	701	Sololá	3	Barraneche	2	Febrero	2023-02-18T00:00:00	2024-11-06T11:00:00	6	Velocidad del viento	38.6
9310	7	Sololá	701	Sololá	3	Barraneche	2	Febrero	2023-02-18T00:00:00	2024-11-06T11:00:00	7	Dirección del viento	38.62
9311	7	Sololá	701	Sololá	3	Barraneche	2	Febrero	2023-02-18T00:00:00	2024-11-06T11:00:00	1	Precipitación	0
9312	7	Sololá	701	Sololá	3	Barraneche	2	Febrero	2023-02-18T00:00:00	2024-11-06T11:00:00	8	Radiación solar	891
9313	7	Sololá	701	Sololá	3	Barraneche	2	Febrero	2023-02-18T00:00:00	2024-11-06T12:00:00	2	Temperatura media	15.3
9314	7	Sololá	701	Sololá	3	Barraneche	2	Febrero	2023-02-18T00:00:00	2024-11-06T12:00:00	4	Temperatura máxima	15.4
9315	7	Sololá	701	Sololá	3	Barraneche	2	Febrero	2023-02-18T00:00:00	2024-11-06T12:00:00	3	Temperatura mínima	14.3
9316	7	Sololá	701	Sololá	3	Barraneche	2	Febrero	2023-02-18T00:00:00	2024-11-06T12:00:00	5	Humedad	55
9317	7	Sololá	701	Sololá	3	Barraneche	2	Febrero	2023-02-18T00:00:00	2024-11-06T12:00:00	6	Velocidad del viento	38.6
9318	7	Sololá	701	Sololá	3	Barraneche	2	Febrero	2023-02-18T00:00:00	2024-11-06T12:00:00	7	Dirección del viento	38.62
9319	7	Sololá	701	Sololá	3	Barraneche	2	Febrero	2023-02-18T00:00:00	2024-11-06T12:00:00	1	Precipitación	0
9320	7	Sololá	701	Sololá	3	Barraneche	2	Febrero	2023-02-18T00:00:00	2024-11-06T12:00:00	8	Radiación solar	997
9321	7	Sololá	701	Sololá	3	Barraneche	2	Febrero	2023-02-18T00:00:00	2024-11-06T13:00:00	2	Temperatura media	15
9322	7	Sololá	701	Sololá	3	Barraneche	2	Febrero	2023-02-18T00:00:00	2024-11-06T13:00:00	4	Temperatura máxima	15.8
9323	7	Sololá	701	Sololá	3	Barraneche	2	Febrero	2023-02-18T00:00:00	2024-11-06T13:00:00	3	Temperatura mínima	14.8
9324	7	Sololá	701	Sololá	3	Barraneche	2	Febrero	2023-02-18T00:00:00	2024-11-06T13:00:00	5	Humedad	55
9325	7	Sololá	701	Sololá	3	Barraneche	2	Febrero	2023-02-18T00:00:00	2024-11-06T13:00:00	6	Velocidad del viento	35.4
9326	7	Sololá	701	Sololá	3	Barraneche	2	Febrero	2023-02-18T00:00:00	2024-11-06T13:00:00	7	Dirección del viento	35.41
9327	7	Sololá	701	Sololá	3	Barraneche	2	Febrero	2023-02-18T00:00:00	2024-11-06T13:00:00	1	Precipitación	0
9328	7	Sololá	701	Sololá	3	Barraneche	2	Febrero	2023-02-18T00:00:00	2024-11-06T13:00:00	8	Radiación solar	1019
9329	7	Sololá	701	Sololá	3	Barraneche	2	Febrero	2023-02-18T00:00:00	2024-11-06T14:00:00	2	Temperatura media	14.6
9330	7	Sololá	701	Sololá	3	Barraneche	2	Febrero	2023-02-18T00:00:00	2024-11-06T14:00:00	4	Temperatura máxima	15.7
9331	7	Sololá	701	Sololá	3	Barraneche	2	Febrero	2023-02-18T00:00:00	2024-11-06T14:00:00	3	Temperatura mínima	14.1
9332	7	Sololá	701	Sololá	3	Barraneche	2	Febrero	2023-02-18T00:00:00	2024-11-06T14:00:00	5	Humedad	57
9333	7	Sololá	701	Sololá	3	Barraneche	2	Febrero	2023-02-18T00:00:00	2024-11-06T14:00:00	6	Velocidad del viento	37
9334	7	Sololá	701	Sololá	3	Barraneche	2	Febrero	2023-02-18T00:00:00	2024-11-06T14:00:00	7	Dirección del viento	37.01
9335	7	Sololá	701	Sololá	3	Barraneche	2	Febrero	2023-02-18T00:00:00	2024-11-06T14:00:00	1	Precipitación	0
9336	7	Sololá	701	Sololá	3	Barraneche	2	Febrero	2023-02-18T00:00:00	2024-11-06T14:00:00	8	Radiación solar	981
9337	7	Sololá	701	Sololá	3	Barraneche	2	Febrero	2023-02-18T00:00:00	2024-11-06T15:00:00	2	Temperatura media	14.6
9338	7	Sololá	701	Sololá	3	Barraneche	2	Febrero	2023-02-18T00:00:00	2024-11-06T15:00:00	4	Temperatura máxima	14.9
9339	7	Sololá	701	Sololá	3	Barraneche	2	Febrero	2023-02-18T00:00:00	2024-11-06T15:00:00	3	Temperatura mínima	14
9340	7	Sololá	701	Sololá	3	Barraneche	2	Febrero	2023-02-18T00:00:00	2024-11-06T15:00:00	5	Humedad	57
9341	7	Sololá	701	Sololá	3	Barraneche	2	Febrero	2023-02-18T00:00:00	2024-11-06T15:00:00	6	Velocidad del viento	32.2
9342	7	Sololá	701	Sololá	3	Barraneche	2	Febrero	2023-02-18T00:00:00	2024-11-06T15:00:00	7	Dirección del viento	32.19
9343	7	Sololá	701	Sololá	3	Barraneche	2	Febrero	2023-02-18T00:00:00	2024-11-06T15:00:00	1	Precipitación	0
9344	7	Sololá	701	Sololá	3	Barraneche	2	Febrero	2023-02-18T00:00:00	2024-11-06T15:00:00	8	Radiación solar	887
9345	7	Sololá	701	Sololá	3	Barraneche	2	Febrero	2023-02-18T00:00:00	2024-11-06T16:00:00	2	Temperatura media	12.8
9346	7	Sololá	701	Sololá	3	Barraneche	2	Febrero	2023-02-18T00:00:00	2024-11-06T16:00:00	4	Temperatura máxima	14.6
9347	7	Sololá	701	Sololá	3	Barraneche	2	Febrero	2023-02-18T00:00:00	2024-11-06T16:00:00	3	Temperatura mínima	12.6
9348	7	Sololá	701	Sololá	3	Barraneche	2	Febrero	2023-02-18T00:00:00	2024-11-06T16:00:00	5	Humedad	61
9349	7	Sololá	701	Sololá	3	Barraneche	2	Febrero	2023-02-18T00:00:00	2024-11-06T16:00:00	6	Velocidad del viento	24.1
9350	7	Sololá	701	Sololá	3	Barraneche	2	Febrero	2023-02-18T00:00:00	2024-11-06T16:00:00	7	Dirección del viento	24.14
9351	7	Sololá	701	Sololá	3	Barraneche	2	Febrero	2023-02-18T00:00:00	2024-11-06T16:00:00	1	Precipitación	0
9352	7	Sololá	701	Sololá	3	Barraneche	2	Febrero	2023-02-18T00:00:00	2024-11-06T16:00:00	8	Radiación solar	278
9353	7	Sololá	701	Sololá	3	Barraneche	2	Febrero	2023-02-18T00:00:00	2024-11-06T17:00:00	2	Temperatura media	11.8
9354	7	Sololá	701	Sololá	3	Barraneche	2	Febrero	2023-02-18T00:00:00	2024-11-06T17:00:00	4	Temperatura máxima	12.8
9355	7	Sololá	701	Sololá	3	Barraneche	2	Febrero	2023-02-18T00:00:00	2024-11-06T17:00:00	3	Temperatura mínima	11.2
9356	7	Sololá	701	Sololá	3	Barraneche	2	Febrero	2023-02-18T00:00:00	2024-11-06T17:00:00	5	Humedad	61
9357	7	Sololá	701	Sololá	3	Barraneche	2	Febrero	2023-02-18T00:00:00	2024-11-06T17:00:00	6	Velocidad del viento	22.5
9358	7	Sololá	701	Sololá	3	Barraneche	2	Febrero	2023-02-18T00:00:00	2024-11-06T17:00:00	7	Dirección del viento	22.53
9359	7	Sololá	701	Sololá	3	Barraneche	2	Febrero	2023-02-18T00:00:00	2024-11-06T17:00:00	1	Precipitación	0
9360	7	Sololá	701	Sololá	3	Barraneche	2	Febrero	2023-02-18T00:00:00	2024-11-06T17:00:00	8	Radiación solar	107
9361	7	Sololá	701	Sololá	3	Barraneche	2	Febrero	2023-02-18T00:00:00	2024-11-06T18:00:00	2	Temperatura media	11.2
9362	7	Sololá	701	Sololá	3	Barraneche	2	Febrero	2023-02-18T00:00:00	2024-11-06T18:00:00	4	Temperatura máxima	12.4
9363	7	Sololá	701	Sololá	3	Barraneche	2	Febrero	2023-02-18T00:00:00	2024-11-06T18:00:00	3	Temperatura mínima	11.2
9364	7	Sololá	701	Sololá	3	Barraneche	2	Febrero	2023-02-18T00:00:00	2024-11-06T18:00:00	5	Humedad	61
9365	7	Sololá	701	Sololá	3	Barraneche	2	Febrero	2023-02-18T00:00:00	2024-11-06T18:00:00	6	Velocidad del viento	27.4
9366	7	Sololá	701	Sololá	3	Barraneche	2	Febrero	2023-02-18T00:00:00	2024-11-06T18:00:00	7	Dirección del viento	27.36
9367	7	Sololá	701	Sololá	3	Barraneche	2	Febrero	2023-02-18T00:00:00	2024-11-06T18:00:00	1	Precipitación	0
9368	7	Sololá	701	Sololá	3	Barraneche	2	Febrero	2023-02-18T00:00:00	2024-11-06T18:00:00	8	Radiación solar	89
9369	7	Sololá	701	Sololá	3	Barraneche	2	Febrero	2023-02-18T00:00:00	2024-11-06T19:00:00	2	Temperatura media	11.1
9370	7	Sololá	701	Sololá	3	Barraneche	2	Febrero	2023-02-18T00:00:00	2024-11-06T19:00:00	4	Temperatura máxima	11.7
9371	7	Sololá	701	Sololá	3	Barraneche	2	Febrero	2023-02-18T00:00:00	2024-11-06T19:00:00	3	Temperatura mínima	10.9
9372	7	Sololá	701	Sololá	3	Barraneche	2	Febrero	2023-02-18T00:00:00	2024-11-06T19:00:00	5	Humedad	52
9373	7	Sololá	701	Sololá	3	Barraneche	2	Febrero	2023-02-18T00:00:00	2024-11-06T19:00:00	6	Velocidad del viento	30.6
9374	7	Sololá	701	Sololá	3	Barraneche	2	Febrero	2023-02-18T00:00:00	2024-11-06T19:00:00	7	Dirección del viento	30.58
9375	7	Sololá	701	Sololá	3	Barraneche	2	Febrero	2023-02-18T00:00:00	2024-11-06T19:00:00	1	Precipitación	0
9376	7	Sololá	701	Sololá	3	Barraneche	2	Febrero	2023-02-18T00:00:00	2024-11-06T19:00:00	8	Radiación solar	0
9377	7	Sololá	701	Sololá	3	Barraneche	2	Febrero	2023-02-18T00:00:00	2024-11-06T20:00:00	2	Temperatura media	10.9
9378	7	Sololá	701	Sololá	3	Barraneche	2	Febrero	2023-02-18T00:00:00	2024-11-06T20:00:00	4	Temperatura máxima	11.3
9379	7	Sololá	701	Sololá	3	Barraneche	2	Febrero	2023-02-18T00:00:00	2024-11-06T20:00:00	3	Temperatura mínima	10.7
9380	7	Sololá	701	Sololá	3	Barraneche	2	Febrero	2023-02-18T00:00:00	2024-11-06T20:00:00	5	Humedad	62
9381	7	Sololá	701	Sololá	3	Barraneche	2	Febrero	2023-02-18T00:00:00	2024-11-06T20:00:00	6	Velocidad del viento	35.4
9382	7	Sololá	701	Sololá	3	Barraneche	2	Febrero	2023-02-18T00:00:00	2024-11-06T20:00:00	7	Dirección del viento	35.41
9383	7	Sololá	701	Sololá	3	Barraneche	2	Febrero	2023-02-18T00:00:00	2024-11-06T20:00:00	1	Precipitación	0
9384	7	Sololá	701	Sololá	3	Barraneche	2	Febrero	2023-02-18T00:00:00	2024-11-06T20:00:00	8	Radiación solar	0
9385	7	Sololá	701	Sololá	3	Barraneche	2	Febrero	2023-02-18T00:00:00	2024-11-06T21:00:00	2	Temperatura media	11.2
9386	7	Sololá	701	Sololá	3	Barraneche	2	Febrero	2023-02-18T00:00:00	2024-11-06T21:00:00	4	Temperatura máxima	11.3
9387	7	Sololá	701	Sololá	3	Barraneche	2	Febrero	2023-02-18T00:00:00	2024-11-06T21:00:00	3	Temperatura mínima	10.8
9388	7	Sololá	701	Sololá	3	Barraneche	2	Febrero	2023-02-18T00:00:00	2024-11-06T21:00:00	5	Humedad	62
9389	7	Sololá	701	Sololá	3	Barraneche	2	Febrero	2023-02-18T00:00:00	2024-11-06T21:00:00	6	Velocidad del viento	27.4
9390	7	Sololá	701	Sololá	3	Barraneche	2	Febrero	2023-02-18T00:00:00	2024-11-06T21:00:00	7	Dirección del viento	27.36
9391	7	Sololá	701	Sololá	3	Barraneche	2	Febrero	2023-02-18T00:00:00	2024-11-06T21:00:00	1	Precipitación	0
9392	7	Sololá	701	Sololá	3	Barraneche	2	Febrero	2023-02-18T00:00:00	2024-11-06T21:00:00	8	Radiación solar	0
9393	7	Sololá	701	Sololá	3	Barraneche	2	Febrero	2023-02-18T00:00:00	2024-11-06T22:00:00	2	Temperatura media	10.6
9394	7	Sololá	701	Sololá	3	Barraneche	2	Febrero	2023-02-18T00:00:00	2024-11-06T22:00:00	4	Temperatura máxima	11.4
9395	7	Sololá	701	Sololá	3	Barraneche	2	Febrero	2023-02-18T00:00:00	2024-11-06T22:00:00	3	Temperatura mínima	10.4
9396	7	Sololá	701	Sololá	3	Barraneche	2	Febrero	2023-02-18T00:00:00	2024-11-06T22:00:00	5	Humedad	67
9397	7	Sololá	701	Sololá	3	Barraneche	2	Febrero	2023-02-18T00:00:00	2024-11-06T22:00:00	6	Velocidad del viento	32.2
9398	7	Sololá	701	Sololá	3	Barraneche	2	Febrero	2023-02-18T00:00:00	2024-11-06T22:00:00	7	Dirección del viento	32.19
9399	7	Sololá	701	Sololá	3	Barraneche	2	Febrero	2023-02-18T00:00:00	2024-11-06T22:00:00	1	Precipitación	0
9400	7	Sololá	701	Sololá	3	Barraneche	2	Febrero	2023-02-18T00:00:00	2024-11-06T22:00:00	8	Radiación solar	0
9401	7	Sololá	701	Sololá	3	Barraneche	2	Febrero	2023-02-18T00:00:00	2024-11-06T23:00:00	2	Temperatura media	10.3
9402	7	Sololá	701	Sololá	3	Barraneche	2	Febrero	2023-02-18T00:00:00	2024-11-06T23:00:00	4	Temperatura máxima	10.8
9403	7	Sololá	701	Sololá	3	Barraneche	2	Febrero	2023-02-18T00:00:00	2024-11-06T23:00:00	3	Temperatura mínima	10.2
9404	7	Sololá	701	Sololá	3	Barraneche	2	Febrero	2023-02-18T00:00:00	2024-11-06T23:00:00	5	Humedad	70
9405	7	Sololá	701	Sololá	3	Barraneche	2	Febrero	2023-02-18T00:00:00	2024-11-06T23:00:00	6	Velocidad del viento	35.4
9406	7	Sololá	701	Sololá	3	Barraneche	2	Febrero	2023-02-18T00:00:00	2024-11-06T23:00:00	7	Dirección del viento	35.41
9407	7	Sololá	701	Sololá	3	Barraneche	2	Febrero	2023-02-18T00:00:00	2024-11-06T23:00:00	1	Precipitación	0
9408	7	Sololá	701	Sololá	3	Barraneche	2	Febrero	2023-02-18T00:00:00	2024-11-06T23:00:00	8	Radiación solar	0
9409	7	Sololá	701	Sololá	3	Barraneche	2	Febrero	2023-02-19T00:00:00	2024-11-06T00:00:00	2	Temperatura media	10.7
9410	7	Sololá	701	Sololá	3	Barraneche	2	Febrero	2023-02-19T00:00:00	2024-11-06T00:00:00	4	Temperatura máxima	10.7
9411	7	Sololá	701	Sololá	3	Barraneche	2	Febrero	2023-02-19T00:00:00	2024-11-06T00:00:00	3	Temperatura mínima	10.2
9412	7	Sololá	701	Sololá	3	Barraneche	2	Febrero	2023-02-19T00:00:00	2024-11-06T00:00:00	5	Humedad	67
9413	7	Sololá	701	Sololá	3	Barraneche	2	Febrero	2023-02-19T00:00:00	2024-11-06T00:00:00	6	Velocidad del viento	32.2
9414	7	Sololá	701	Sololá	3	Barraneche	2	Febrero	2023-02-19T00:00:00	2024-11-06T00:00:00	7	Dirección del viento	32.19
9415	7	Sololá	701	Sololá	3	Barraneche	2	Febrero	2023-02-19T00:00:00	2024-11-06T00:00:00	1	Precipitación	0
9416	7	Sololá	701	Sololá	3	Barraneche	2	Febrero	2023-02-19T00:00:00	2024-11-06T00:00:00	8	Radiación solar	0
9417	7	Sololá	701	Sololá	3	Barraneche	2	Febrero	2023-02-19T00:00:00	2024-11-06T01:00:00	2	Temperatura media	10.3
9418	7	Sololá	701	Sololá	3	Barraneche	2	Febrero	2023-02-19T00:00:00	2024-11-06T01:00:00	4	Temperatura máxima	11.2
9419	7	Sololá	701	Sololá	3	Barraneche	2	Febrero	2023-02-19T00:00:00	2024-11-06T01:00:00	3	Temperatura mínima	10.3
9420	7	Sololá	701	Sololá	3	Barraneche	2	Febrero	2023-02-19T00:00:00	2024-11-06T01:00:00	5	Humedad	69
9421	7	Sololá	701	Sololá	3	Barraneche	2	Febrero	2023-02-19T00:00:00	2024-11-06T01:00:00	6	Velocidad del viento	29
9422	7	Sololá	701	Sololá	3	Barraneche	2	Febrero	2023-02-19T00:00:00	2024-11-06T01:00:00	7	Dirección del viento	28.97
9423	7	Sololá	701	Sololá	3	Barraneche	2	Febrero	2023-02-19T00:00:00	2024-11-06T01:00:00	1	Precipitación	0
9424	7	Sololá	701	Sololá	3	Barraneche	2	Febrero	2023-02-19T00:00:00	2024-11-06T01:00:00	8	Radiación solar	0
9425	7	Sololá	701	Sololá	3	Barraneche	2	Febrero	2023-02-19T00:00:00	2024-11-06T02:00:00	2	Temperatura media	10.8
9426	7	Sololá	701	Sololá	3	Barraneche	2	Febrero	2023-02-19T00:00:00	2024-11-06T02:00:00	4	Temperatura máxima	10.8
9427	7	Sololá	701	Sololá	3	Barraneche	2	Febrero	2023-02-19T00:00:00	2024-11-06T02:00:00	3	Temperatura mínima	10.2
9428	7	Sololá	701	Sololá	3	Barraneche	2	Febrero	2023-02-19T00:00:00	2024-11-06T02:00:00	5	Humedad	65
9429	7	Sololá	701	Sololá	3	Barraneche	2	Febrero	2023-02-19T00:00:00	2024-11-06T02:00:00	6	Velocidad del viento	20.9
9430	7	Sololá	701	Sololá	3	Barraneche	2	Febrero	2023-02-19T00:00:00	2024-11-06T02:00:00	7	Dirección del viento	20.92
9431	7	Sololá	701	Sololá	3	Barraneche	2	Febrero	2023-02-19T00:00:00	2024-11-06T02:00:00	1	Precipitación	0
9432	7	Sololá	701	Sololá	3	Barraneche	2	Febrero	2023-02-19T00:00:00	2024-11-06T02:00:00	8	Radiación solar	0
9433	7	Sololá	701	Sololá	3	Barraneche	2	Febrero	2023-02-19T00:00:00	2024-11-06T03:00:00	2	Temperatura media	10.3
9434	7	Sololá	701	Sololá	3	Barraneche	2	Febrero	2023-02-19T00:00:00	2024-11-06T03:00:00	4	Temperatura máxima	10.9
9435	7	Sololá	701	Sololá	3	Barraneche	2	Febrero	2023-02-19T00:00:00	2024-11-06T03:00:00	3	Temperatura mínima	10.2
9436	7	Sololá	701	Sololá	3	Barraneche	2	Febrero	2023-02-19T00:00:00	2024-11-06T03:00:00	5	Humedad	69
9437	7	Sololá	701	Sololá	3	Barraneche	2	Febrero	2023-02-19T00:00:00	2024-11-06T03:00:00	6	Velocidad del viento	14.5
9438	7	Sololá	701	Sololá	3	Barraneche	2	Febrero	2023-02-19T00:00:00	2024-11-06T03:00:00	7	Dirección del viento	14.48
9439	7	Sololá	701	Sololá	3	Barraneche	2	Febrero	2023-02-19T00:00:00	2024-11-06T03:00:00	1	Precipitación	0
9440	7	Sololá	701	Sololá	3	Barraneche	2	Febrero	2023-02-19T00:00:00	2024-11-06T03:00:00	8	Radiación solar	0
9441	7	Sololá	701	Sololá	3	Barraneche	2	Febrero	2023-02-19T00:00:00	2024-11-06T04:00:00	2	Temperatura media	10.1
9442	7	Sololá	701	Sololá	3	Barraneche	2	Febrero	2023-02-19T00:00:00	2024-11-06T04:00:00	4	Temperatura máxima	10.3
9443	7	Sololá	701	Sololá	3	Barraneche	2	Febrero	2023-02-19T00:00:00	2024-11-06T04:00:00	3	Temperatura mínima	9.8
9444	7	Sololá	701	Sololá	3	Barraneche	2	Febrero	2023-02-19T00:00:00	2024-11-06T04:00:00	5	Humedad	69
9445	7	Sololá	701	Sololá	3	Barraneche	2	Febrero	2023-02-19T00:00:00	2024-11-06T04:00:00	6	Velocidad del viento	14.5
9446	7	Sololá	701	Sololá	3	Barraneche	2	Febrero	2023-02-19T00:00:00	2024-11-06T04:00:00	7	Dirección del viento	14.48
9447	7	Sololá	701	Sololá	3	Barraneche	2	Febrero	2023-02-19T00:00:00	2024-11-06T04:00:00	1	Precipitación	0
9448	7	Sololá	701	Sololá	3	Barraneche	2	Febrero	2023-02-19T00:00:00	2024-11-06T04:00:00	8	Radiación solar	0
9449	7	Sololá	701	Sololá	3	Barraneche	2	Febrero	2023-02-19T00:00:00	2024-11-06T05:00:00	2	Temperatura media	9.8
9450	7	Sololá	701	Sololá	3	Barraneche	2	Febrero	2023-02-19T00:00:00	2024-11-06T05:00:00	4	Temperatura máxima	10.1
9451	7	Sololá	701	Sololá	3	Barraneche	2	Febrero	2023-02-19T00:00:00	2024-11-06T05:00:00	3	Temperatura mínima	9.7
9452	7	Sololá	701	Sololá	3	Barraneche	2	Febrero	2023-02-19T00:00:00	2024-11-06T05:00:00	5	Humedad	70
9453	7	Sololá	701	Sololá	3	Barraneche	2	Febrero	2023-02-19T00:00:00	2024-11-06T05:00:00	6	Velocidad del viento	16.1
9454	7	Sololá	701	Sololá	3	Barraneche	2	Febrero	2023-02-19T00:00:00	2024-11-06T05:00:00	7	Dirección del viento	16.09
9455	7	Sololá	701	Sololá	3	Barraneche	2	Febrero	2023-02-19T00:00:00	2024-11-06T05:00:00	1	Precipitación	0
9456	7	Sololá	701	Sololá	3	Barraneche	2	Febrero	2023-02-19T00:00:00	2024-11-06T05:00:00	8	Radiación solar	0
9457	7	Sololá	701	Sololá	3	Barraneche	2	Febrero	2023-02-19T00:00:00	2024-11-06T06:00:00	2	Temperatura media	10.2
9458	7	Sololá	701	Sololá	3	Barraneche	2	Febrero	2023-02-19T00:00:00	2024-11-06T06:00:00	4	Temperatura máxima	10.2
9459	7	Sololá	701	Sololá	3	Barraneche	2	Febrero	2023-02-19T00:00:00	2024-11-06T06:00:00	3	Temperatura mínima	9.7
9460	7	Sololá	701	Sololá	3	Barraneche	2	Febrero	2023-02-19T00:00:00	2024-11-06T06:00:00	5	Humedad	68
9461	7	Sololá	701	Sololá	3	Barraneche	2	Febrero	2023-02-19T00:00:00	2024-11-06T06:00:00	6	Velocidad del viento	17.7
9462	7	Sololá	701	Sololá	3	Barraneche	2	Febrero	2023-02-19T00:00:00	2024-11-06T06:00:00	7	Dirección del viento	17.7
9463	7	Sololá	701	Sololá	3	Barraneche	2	Febrero	2023-02-19T00:00:00	2024-11-06T06:00:00	1	Precipitación	0
9464	7	Sololá	701	Sololá	3	Barraneche	2	Febrero	2023-02-19T00:00:00	2024-11-06T06:00:00	8	Radiación solar	0
9465	7	Sololá	701	Sololá	3	Barraneche	2	Febrero	2023-02-19T00:00:00	2024-11-06T07:00:00	2	Temperatura media	10.3
9466	7	Sololá	701	Sololá	3	Barraneche	2	Febrero	2023-02-19T00:00:00	2024-11-06T07:00:00	4	Temperatura máxima	10.9
9467	7	Sololá	701	Sololá	3	Barraneche	2	Febrero	2023-02-19T00:00:00	2024-11-06T07:00:00	3	Temperatura mínima	10.2
9468	7	Sololá	701	Sololá	3	Barraneche	2	Febrero	2023-02-19T00:00:00	2024-11-06T07:00:00	5	Humedad	67
9469	7	Sololá	701	Sololá	3	Barraneche	2	Febrero	2023-02-19T00:00:00	2024-11-06T07:00:00	6	Velocidad del viento	25.7
9470	7	Sololá	701	Sololá	3	Barraneche	2	Febrero	2023-02-19T00:00:00	2024-11-06T07:00:00	7	Dirección del viento	25.75
9471	7	Sololá	701	Sololá	3	Barraneche	2	Febrero	2023-02-19T00:00:00	2024-11-06T07:00:00	1	Precipitación	0
9472	7	Sololá	701	Sololá	3	Barraneche	2	Febrero	2023-02-19T00:00:00	2024-11-06T07:00:00	8	Radiación solar	8
9473	7	Sololá	701	Sololá	3	Barraneche	2	Febrero	2023-02-19T00:00:00	2024-11-06T08:00:00	2	Temperatura media	11.2
9474	7	Sololá	701	Sololá	3	Barraneche	2	Febrero	2023-02-19T00:00:00	2024-11-06T08:00:00	4	Temperatura máxima	11.3
9475	7	Sololá	701	Sololá	3	Barraneche	2	Febrero	2023-02-19T00:00:00	2024-11-06T08:00:00	3	Temperatura mínima	10
9476	7	Sololá	701	Sololá	3	Barraneche	2	Febrero	2023-02-19T00:00:00	2024-11-06T08:00:00	5	Humedad	64
9477	7	Sololá	701	Sololá	3	Barraneche	2	Febrero	2023-02-19T00:00:00	2024-11-06T08:00:00	6	Velocidad del viento	30.6
9478	7	Sololá	701	Sololá	3	Barraneche	2	Febrero	2023-02-19T00:00:00	2024-11-06T08:00:00	7	Dirección del viento	30.58
9479	7	Sololá	701	Sololá	3	Barraneche	2	Febrero	2023-02-19T00:00:00	2024-11-06T08:00:00	1	Precipitación	0
9480	7	Sololá	701	Sololá	3	Barraneche	2	Febrero	2023-02-19T00:00:00	2024-11-06T08:00:00	8	Radiación solar	211
9481	7	Sololá	701	Sololá	3	Barraneche	2	Febrero	2023-02-19T00:00:00	2024-11-06T09:00:00	2	Temperatura media	12.3
9482	7	Sololá	701	Sololá	3	Barraneche	2	Febrero	2023-02-19T00:00:00	2024-11-06T09:00:00	4	Temperatura máxima	12.6
9483	7	Sololá	701	Sololá	3	Barraneche	2	Febrero	2023-02-19T00:00:00	2024-11-06T09:00:00	3	Temperatura mínima	11.2
9484	7	Sololá	701	Sololá	3	Barraneche	2	Febrero	2023-02-19T00:00:00	2024-11-06T09:00:00	5	Humedad	64
9485	7	Sololá	701	Sololá	3	Barraneche	2	Febrero	2023-02-19T00:00:00	2024-11-06T09:00:00	6	Velocidad del viento	33.8
9486	7	Sololá	701	Sololá	3	Barraneche	2	Febrero	2023-02-19T00:00:00	2024-11-06T09:00:00	7	Dirección del viento	33.8
9487	7	Sololá	701	Sololá	3	Barraneche	2	Febrero	2023-02-19T00:00:00	2024-11-06T09:00:00	1	Precipitación	0
9488	7	Sololá	701	Sololá	3	Barraneche	2	Febrero	2023-02-19T00:00:00	2024-11-06T09:00:00	8	Radiación solar	489
9489	7	Sololá	701	Sololá	3	Barraneche	2	Febrero	2023-02-19T00:00:00	2024-11-06T10:00:00	2	Temperatura media	12.2
9490	7	Sololá	701	Sololá	3	Barraneche	2	Febrero	2023-02-19T00:00:00	2024-11-06T10:00:00	4	Temperatura máxima	12.9
9491	7	Sololá	701	Sololá	3	Barraneche	2	Febrero	2023-02-19T00:00:00	2024-11-06T10:00:00	3	Temperatura mínima	11.9
9492	7	Sololá	701	Sololá	3	Barraneche	2	Febrero	2023-02-19T00:00:00	2024-11-06T10:00:00	5	Humedad	63
9493	7	Sololá	701	Sololá	3	Barraneche	2	Febrero	2023-02-19T00:00:00	2024-11-06T10:00:00	6	Velocidad del viento	30.6
9494	7	Sololá	701	Sololá	3	Barraneche	2	Febrero	2023-02-19T00:00:00	2024-11-06T10:00:00	7	Dirección del viento	30.58
9495	7	Sololá	701	Sololá	3	Barraneche	2	Febrero	2023-02-19T00:00:00	2024-11-06T10:00:00	1	Precipitación	0
9496	7	Sololá	701	Sololá	3	Barraneche	2	Febrero	2023-02-19T00:00:00	2024-11-06T10:00:00	8	Radiación solar	611
9497	7	Sololá	701	Sololá	3	Barraneche	2	Febrero	2023-02-19T00:00:00	2024-11-06T11:00:00	2	Temperatura media	13.6
9498	7	Sololá	701	Sololá	3	Barraneche	2	Febrero	2023-02-19T00:00:00	2024-11-06T11:00:00	4	Temperatura máxima	13.6
9499	7	Sololá	701	Sololá	3	Barraneche	2	Febrero	2023-02-19T00:00:00	2024-11-06T11:00:00	3	Temperatura mínima	11.6
9500	7	Sololá	701	Sololá	3	Barraneche	2	Febrero	2023-02-19T00:00:00	2024-11-06T11:00:00	5	Humedad	60
9501	7	Sololá	701	Sololá	3	Barraneche	2	Febrero	2023-02-19T00:00:00	2024-11-06T11:00:00	6	Velocidad del viento	20.9
9502	7	Sololá	701	Sololá	3	Barraneche	2	Febrero	2023-02-19T00:00:00	2024-11-06T11:00:00	7	Dirección del viento	20.92
9503	7	Sololá	701	Sololá	3	Barraneche	2	Febrero	2023-02-19T00:00:00	2024-11-06T11:00:00	1	Precipitación	0
9504	7	Sololá	701	Sololá	3	Barraneche	2	Febrero	2023-02-19T00:00:00	2024-11-06T11:00:00	8	Radiación solar	805
9505	7	Sololá	701	Sololá	3	Barraneche	2	Febrero	2023-02-19T00:00:00	2024-11-06T12:00:00	2	Temperatura media	12.7
9506	7	Sololá	701	Sololá	3	Barraneche	2	Febrero	2023-02-19T00:00:00	2024-11-06T12:00:00	4	Temperatura máxima	14.7
9507	7	Sololá	701	Sololá	3	Barraneche	2	Febrero	2023-02-19T00:00:00	2024-11-06T12:00:00	3	Temperatura mínima	12.4
9508	7	Sololá	701	Sololá	3	Barraneche	2	Febrero	2023-02-19T00:00:00	2024-11-06T12:00:00	5	Humedad	62
9509	7	Sololá	701	Sololá	3	Barraneche	2	Febrero	2023-02-19T00:00:00	2024-11-06T12:00:00	6	Velocidad del viento	27.4
9510	7	Sololá	701	Sololá	3	Barraneche	2	Febrero	2023-02-19T00:00:00	2024-11-06T12:00:00	7	Dirección del viento	27.36
9511	7	Sololá	701	Sololá	3	Barraneche	2	Febrero	2023-02-19T00:00:00	2024-11-06T12:00:00	1	Precipitación	0
9512	7	Sololá	701	Sololá	3	Barraneche	2	Febrero	2023-02-19T00:00:00	2024-11-06T12:00:00	8	Radiación solar	1016
9513	7	Sololá	701	Sololá	3	Barraneche	2	Febrero	2023-02-19T00:00:00	2024-11-06T13:00:00	2	Temperatura media	13.4
9514	7	Sololá	701	Sololá	3	Barraneche	2	Febrero	2023-02-19T00:00:00	2024-11-06T13:00:00	4	Temperatura máxima	13.5
9515	7	Sololá	701	Sololá	3	Barraneche	2	Febrero	2023-02-19T00:00:00	2024-11-06T13:00:00	3	Temperatura mínima	12.1
9516	7	Sololá	701	Sololá	3	Barraneche	2	Febrero	2023-02-19T00:00:00	2024-11-06T13:00:00	5	Humedad	61
9517	7	Sololá	701	Sololá	3	Barraneche	2	Febrero	2023-02-19T00:00:00	2024-11-06T13:00:00	6	Velocidad del viento	29
9518	7	Sololá	701	Sololá	3	Barraneche	2	Febrero	2023-02-19T00:00:00	2024-11-06T13:00:00	7	Dirección del viento	28.97
9519	7	Sololá	701	Sololá	3	Barraneche	2	Febrero	2023-02-19T00:00:00	2024-11-06T13:00:00	1	Precipitación	0
9520	7	Sololá	701	Sololá	3	Barraneche	2	Febrero	2023-02-19T00:00:00	2024-11-06T13:00:00	8	Radiación solar	839
9521	7	Sololá	701	Sololá	3	Barraneche	2	Febrero	2023-02-19T00:00:00	2024-11-06T14:00:00	2	Temperatura media	14.6
9522	7	Sololá	701	Sololá	3	Barraneche	2	Febrero	2023-02-19T00:00:00	2024-11-06T14:00:00	4	Temperatura máxima	14.8
9523	7	Sololá	701	Sololá	3	Barraneche	2	Febrero	2023-02-19T00:00:00	2024-11-06T14:00:00	3	Temperatura mínima	12.8
9524	7	Sololá	701	Sololá	3	Barraneche	2	Febrero	2023-02-19T00:00:00	2024-11-06T14:00:00	5	Humedad	58
9525	7	Sololá	701	Sololá	3	Barraneche	2	Febrero	2023-02-19T00:00:00	2024-11-06T14:00:00	6	Velocidad del viento	27.4
9526	7	Sololá	701	Sololá	3	Barraneche	2	Febrero	2023-02-19T00:00:00	2024-11-06T14:00:00	7	Dirección del viento	27.36
9527	7	Sololá	701	Sololá	3	Barraneche	2	Febrero	2023-02-19T00:00:00	2024-11-06T14:00:00	1	Precipitación	0
9528	7	Sololá	701	Sololá	3	Barraneche	2	Febrero	2023-02-19T00:00:00	2024-11-06T14:00:00	8	Radiación solar	962
9529	7	Sololá	701	Sololá	3	Barraneche	2	Febrero	2023-02-19T00:00:00	2024-11-06T15:00:00	2	Temperatura media	15.2
9530	7	Sololá	701	Sololá	3	Barraneche	2	Febrero	2023-02-19T00:00:00	2024-11-06T15:00:00	4	Temperatura máxima	15.6
9531	7	Sololá	701	Sololá	3	Barraneche	2	Febrero	2023-02-19T00:00:00	2024-11-06T15:00:00	3	Temperatura mínima	14.3
9532	7	Sololá	701	Sololá	3	Barraneche	2	Febrero	2023-02-19T00:00:00	2024-11-06T15:00:00	5	Humedad	55
9533	7	Sololá	701	Sololá	3	Barraneche	2	Febrero	2023-02-19T00:00:00	2024-11-06T15:00:00	6	Velocidad del viento	25.7
9534	7	Sololá	701	Sololá	3	Barraneche	2	Febrero	2023-02-19T00:00:00	2024-11-06T15:00:00	7	Dirección del viento	25.75
9535	7	Sololá	701	Sololá	3	Barraneche	2	Febrero	2023-02-19T00:00:00	2024-11-06T15:00:00	1	Precipitación	0
9536	7	Sololá	701	Sololá	3	Barraneche	2	Febrero	2023-02-19T00:00:00	2024-11-06T15:00:00	8	Radiación solar	818
9537	7	Sololá	701	Sololá	3	Barraneche	2	Febrero	2023-02-19T00:00:00	2024-11-06T16:00:00	2	Temperatura media	15.3
9538	7	Sololá	701	Sololá	3	Barraneche	2	Febrero	2023-02-19T00:00:00	2024-11-06T16:00:00	4	Temperatura máxima	15.7
9539	7	Sololá	701	Sololá	3	Barraneche	2	Febrero	2023-02-19T00:00:00	2024-11-06T16:00:00	3	Temperatura mínima	14.9
9540	7	Sololá	701	Sololá	3	Barraneche	2	Febrero	2023-02-19T00:00:00	2024-11-06T16:00:00	5	Humedad	53
9541	7	Sololá	701	Sololá	3	Barraneche	2	Febrero	2023-02-19T00:00:00	2024-11-06T16:00:00	6	Velocidad del viento	25.7
9542	7	Sololá	701	Sololá	3	Barraneche	2	Febrero	2023-02-19T00:00:00	2024-11-06T16:00:00	7	Dirección del viento	25.75
9543	7	Sololá	701	Sololá	3	Barraneche	2	Febrero	2023-02-19T00:00:00	2024-11-06T16:00:00	1	Precipitación	0
9544	7	Sololá	701	Sololá	3	Barraneche	2	Febrero	2023-02-19T00:00:00	2024-11-06T16:00:00	8	Radiación solar	619
9545	7	Sololá	701	Sololá	3	Barraneche	2	Febrero	2023-02-19T00:00:00	2024-11-06T17:00:00	2	Temperatura media	14.1
9546	7	Sololá	701	Sololá	3	Barraneche	2	Febrero	2023-02-19T00:00:00	2024-11-06T17:00:00	4	Temperatura máxima	15.4
9547	7	Sololá	701	Sololá	3	Barraneche	2	Febrero	2023-02-19T00:00:00	2024-11-06T17:00:00	3	Temperatura mínima	14.1
9548	7	Sololá	701	Sololá	3	Barraneche	2	Febrero	2023-02-19T00:00:00	2024-11-06T17:00:00	5	Humedad	57
9549	7	Sololá	701	Sololá	3	Barraneche	2	Febrero	2023-02-19T00:00:00	2024-11-06T17:00:00	6	Velocidad del viento	30.6
9550	7	Sololá	701	Sololá	3	Barraneche	2	Febrero	2023-02-19T00:00:00	2024-11-06T17:00:00	7	Dirección del viento	30.58
9551	7	Sololá	701	Sololá	3	Barraneche	2	Febrero	2023-02-19T00:00:00	2024-11-06T17:00:00	1	Precipitación	0
9552	7	Sololá	701	Sololá	3	Barraneche	2	Febrero	2023-02-19T00:00:00	2024-11-06T17:00:00	8	Radiación solar	378
9553	7	Sololá	701	Sololá	3	Barraneche	2	Febrero	2023-02-19T00:00:00	2024-11-06T18:00:00	2	Temperatura media	12.3
9554	7	Sololá	701	Sololá	3	Barraneche	2	Febrero	2023-02-19T00:00:00	2024-11-06T18:00:00	4	Temperatura máxima	14.1
9555	7	Sololá	701	Sololá	3	Barraneche	2	Febrero	2023-02-19T00:00:00	2024-11-06T18:00:00	3	Temperatura mínima	12.3
9556	7	Sololá	701	Sololá	3	Barraneche	2	Febrero	2023-02-19T00:00:00	2024-11-06T18:00:00	5	Humedad	62
9557	7	Sololá	701	Sololá	3	Barraneche	2	Febrero	2023-02-19T00:00:00	2024-11-06T18:00:00	6	Velocidad del viento	29
9558	7	Sololá	701	Sololá	3	Barraneche	2	Febrero	2023-02-19T00:00:00	2024-11-06T18:00:00	7	Dirección del viento	28.97
9559	7	Sololá	701	Sololá	3	Barraneche	2	Febrero	2023-02-19T00:00:00	2024-11-06T18:00:00	1	Precipitación	0
9560	7	Sololá	701	Sololá	3	Barraneche	2	Febrero	2023-02-19T00:00:00	2024-11-06T18:00:00	8	Radiación solar	104
9561	7	Sololá	701	Sololá	3	Barraneche	2	Febrero	2023-02-19T00:00:00	2024-11-06T19:00:00	2	Temperatura media	11.7
9562	7	Sololá	701	Sololá	3	Barraneche	2	Febrero	2023-02-19T00:00:00	2024-11-06T19:00:00	4	Temperatura máxima	12.3
9563	7	Sololá	701	Sololá	3	Barraneche	2	Febrero	2023-02-19T00:00:00	2024-11-06T19:00:00	3	Temperatura mínima	11.7
9564	7	Sololá	701	Sololá	3	Barraneche	2	Febrero	2023-02-19T00:00:00	2024-11-06T19:00:00	5	Humedad	62
9565	7	Sololá	701	Sololá	3	Barraneche	2	Febrero	2023-02-19T00:00:00	2024-11-06T19:00:00	6	Velocidad del viento	38.6
9566	7	Sololá	701	Sololá	3	Barraneche	2	Febrero	2023-02-19T00:00:00	2024-11-06T19:00:00	7	Dirección del viento	38.62
9567	7	Sololá	701	Sololá	3	Barraneche	2	Febrero	2023-02-19T00:00:00	2024-11-06T19:00:00	1	Precipitación	0
9568	7	Sololá	701	Sololá	3	Barraneche	2	Febrero	2023-02-19T00:00:00	2024-11-06T19:00:00	8	Radiación solar	0
9569	7	Sololá	701	Sololá	3	Barraneche	2	Febrero	2023-02-19T00:00:00	2024-11-06T20:00:00	2	Temperatura media	11.4
9570	7	Sololá	701	Sololá	3	Barraneche	2	Febrero	2023-02-19T00:00:00	2024-11-06T20:00:00	4	Temperatura máxima	11.8
9571	7	Sololá	701	Sololá	3	Barraneche	2	Febrero	2023-02-19T00:00:00	2024-11-06T20:00:00	3	Temperatura mínima	11.3
9572	7	Sololá	701	Sololá	3	Barraneche	2	Febrero	2023-02-19T00:00:00	2024-11-06T20:00:00	5	Humedad	61
9573	7	Sololá	701	Sololá	3	Barraneche	2	Febrero	2023-02-19T00:00:00	2024-11-06T20:00:00	6	Velocidad del viento	38.6
9574	7	Sololá	701	Sololá	3	Barraneche	2	Febrero	2023-02-19T00:00:00	2024-11-06T20:00:00	7	Dirección del viento	38.62
9575	7	Sololá	701	Sololá	3	Barraneche	2	Febrero	2023-02-19T00:00:00	2024-11-06T20:00:00	1	Precipitación	0
9576	7	Sololá	701	Sololá	3	Barraneche	2	Febrero	2023-02-19T00:00:00	2024-11-06T20:00:00	8	Radiación solar	0
9577	7	Sololá	701	Sololá	3	Barraneche	2	Febrero	2023-02-19T00:00:00	2024-11-06T21:00:00	2	Temperatura media	11.1
9578	7	Sololá	701	Sololá	3	Barraneche	2	Febrero	2023-02-19T00:00:00	2024-11-06T21:00:00	4	Temperatura máxima	11.4
9579	7	Sololá	701	Sololá	3	Barraneche	2	Febrero	2023-02-19T00:00:00	2024-11-06T21:00:00	3	Temperatura mínima	11
9580	7	Sololá	701	Sololá	3	Barraneche	2	Febrero	2023-02-19T00:00:00	2024-11-06T21:00:00	5	Humedad	60
9581	7	Sololá	701	Sololá	3	Barraneche	2	Febrero	2023-02-19T00:00:00	2024-11-06T21:00:00	6	Velocidad del viento	32.2
9582	7	Sololá	701	Sololá	3	Barraneche	2	Febrero	2023-02-19T00:00:00	2024-11-06T21:00:00	7	Dirección del viento	32.19
9583	7	Sololá	701	Sololá	3	Barraneche	2	Febrero	2023-02-19T00:00:00	2024-11-06T21:00:00	1	Precipitación	0
9584	7	Sololá	701	Sololá	3	Barraneche	2	Febrero	2023-02-19T00:00:00	2024-11-06T21:00:00	8	Radiación solar	0
9585	7	Sololá	701	Sololá	3	Barraneche	2	Febrero	2023-02-19T00:00:00	2024-11-06T22:00:00	2	Temperatura media	10.7
9586	7	Sololá	701	Sololá	3	Barraneche	2	Febrero	2023-02-19T00:00:00	2024-11-06T22:00:00	4	Temperatura máxima	11.1
9587	7	Sololá	701	Sololá	3	Barraneche	2	Febrero	2023-02-19T00:00:00	2024-11-06T22:00:00	3	Temperatura mínima	10.6
9588	7	Sololá	701	Sololá	3	Barraneche	2	Febrero	2023-02-19T00:00:00	2024-11-06T22:00:00	5	Humedad	60
9589	7	Sololá	701	Sololá	3	Barraneche	2	Febrero	2023-02-19T00:00:00	2024-11-06T22:00:00	6	Velocidad del viento	25.7
9590	7	Sololá	701	Sololá	3	Barraneche	2	Febrero	2023-02-19T00:00:00	2024-11-06T22:00:00	7	Dirección del viento	25.75
9591	7	Sololá	701	Sololá	3	Barraneche	2	Febrero	2023-02-19T00:00:00	2024-11-06T22:00:00	1	Precipitación	0
9592	7	Sololá	701	Sololá	3	Barraneche	2	Febrero	2023-02-19T00:00:00	2024-11-06T22:00:00	8	Radiación solar	0
9593	7	Sololá	701	Sololá	3	Barraneche	2	Febrero	2023-02-19T00:00:00	2024-11-06T23:00:00	2	Temperatura media	10.7
9594	7	Sololá	701	Sololá	3	Barraneche	2	Febrero	2023-02-19T00:00:00	2024-11-06T23:00:00	4	Temperatura máxima	10.8
9595	7	Sololá	701	Sololá	3	Barraneche	2	Febrero	2023-02-19T00:00:00	2024-11-06T23:00:00	3	Temperatura mínima	10.4
9596	7	Sololá	701	Sololá	3	Barraneche	2	Febrero	2023-02-19T00:00:00	2024-11-06T23:00:00	5	Humedad	57
9597	7	Sololá	701	Sololá	3	Barraneche	2	Febrero	2023-02-19T00:00:00	2024-11-06T23:00:00	6	Velocidad del viento	30.6
9598	7	Sololá	701	Sololá	3	Barraneche	2	Febrero	2023-02-19T00:00:00	2024-11-06T23:00:00	7	Dirección del viento	30.58
9599	7	Sololá	701	Sololá	3	Barraneche	2	Febrero	2023-02-19T00:00:00	2024-11-06T23:00:00	1	Precipitación	0
9600	7	Sololá	701	Sololá	3	Barraneche	2	Febrero	2023-02-19T00:00:00	2024-11-06T23:00:00	8	Radiación solar	0
9601	7	Sololá	701	Sololá	3	Barraneche	2	Febrero	2023-02-20T00:00:00	2024-11-06T00:00:00	2	Temperatura media	10.5
9602	7	Sololá	701	Sololá	3	Barraneche	2	Febrero	2023-02-20T00:00:00	2024-11-06T00:00:00	4	Temperatura máxima	11
9603	7	Sololá	701	Sololá	3	Barraneche	2	Febrero	2023-02-20T00:00:00	2024-11-06T00:00:00	3	Temperatura mínima	10.4
9604	7	Sololá	701	Sololá	3	Barraneche	2	Febrero	2023-02-20T00:00:00	2024-11-06T00:00:00	5	Humedad	56
9605	7	Sololá	701	Sololá	3	Barraneche	2	Febrero	2023-02-20T00:00:00	2024-11-06T00:00:00	6	Velocidad del viento	32.2
9606	7	Sololá	701	Sololá	3	Barraneche	2	Febrero	2023-02-20T00:00:00	2024-11-06T00:00:00	7	Dirección del viento	32.19
9607	7	Sololá	701	Sololá	3	Barraneche	2	Febrero	2023-02-20T00:00:00	2024-11-06T00:00:00	1	Precipitación	0
9608	7	Sololá	701	Sololá	3	Barraneche	2	Febrero	2023-02-20T00:00:00	2024-11-06T00:00:00	8	Radiación solar	0
9609	7	Sololá	701	Sololá	3	Barraneche	2	Febrero	2023-02-20T00:00:00	2024-11-06T01:00:00	2	Temperatura media	10.3
9610	7	Sololá	701	Sololá	3	Barraneche	2	Febrero	2023-02-20T00:00:00	2024-11-06T01:00:00	4	Temperatura máxima	10.6
9611	7	Sololá	701	Sololá	3	Barraneche	2	Febrero	2023-02-20T00:00:00	2024-11-06T01:00:00	3	Temperatura mínima	10.3
9612	7	Sololá	701	Sololá	3	Barraneche	2	Febrero	2023-02-20T00:00:00	2024-11-06T01:00:00	5	Humedad	59
9613	7	Sololá	701	Sololá	3	Barraneche	2	Febrero	2023-02-20T00:00:00	2024-11-06T01:00:00	6	Velocidad del viento	37
9614	7	Sololá	701	Sololá	3	Barraneche	2	Febrero	2023-02-20T00:00:00	2024-11-06T01:00:00	7	Dirección del viento	37.01
9615	7	Sololá	701	Sololá	3	Barraneche	2	Febrero	2023-02-20T00:00:00	2024-11-06T01:00:00	1	Precipitación	0
9616	7	Sololá	701	Sololá	3	Barraneche	2	Febrero	2023-02-20T00:00:00	2024-11-06T01:00:00	8	Radiación solar	0
9617	7	Sololá	701	Sololá	3	Barraneche	2	Febrero	2023-02-20T00:00:00	2024-11-06T02:00:00	2	Temperatura media	10.1
9618	7	Sololá	701	Sololá	3	Barraneche	2	Febrero	2023-02-20T00:00:00	2024-11-06T02:00:00	4	Temperatura máxima	10.3
9619	7	Sololá	701	Sololá	3	Barraneche	2	Febrero	2023-02-20T00:00:00	2024-11-06T02:00:00	3	Temperatura mínima	9.9
9620	7	Sololá	701	Sololá	3	Barraneche	2	Febrero	2023-02-20T00:00:00	2024-11-06T02:00:00	5	Humedad	60
9621	7	Sololá	701	Sololá	3	Barraneche	2	Febrero	2023-02-20T00:00:00	2024-11-06T02:00:00	6	Velocidad del viento	35.4
9622	7	Sololá	701	Sololá	3	Barraneche	2	Febrero	2023-02-20T00:00:00	2024-11-06T02:00:00	7	Dirección del viento	35.41
9623	7	Sololá	701	Sololá	3	Barraneche	2	Febrero	2023-02-20T00:00:00	2024-11-06T02:00:00	1	Precipitación	0
9624	7	Sololá	701	Sololá	3	Barraneche	2	Febrero	2023-02-20T00:00:00	2024-11-06T02:00:00	8	Radiación solar	0
9625	7	Sololá	701	Sololá	3	Barraneche	2	Febrero	2023-02-20T00:00:00	2024-11-06T03:00:00	2	Temperatura media	9.9
9626	7	Sololá	701	Sololá	3	Barraneche	2	Febrero	2023-02-20T00:00:00	2024-11-06T03:00:00	4	Temperatura máxima	10.3
9627	7	Sololá	701	Sololá	3	Barraneche	2	Febrero	2023-02-20T00:00:00	2024-11-06T03:00:00	3	Temperatura mínima	9.9
9628	7	Sololá	701	Sololá	3	Barraneche	2	Febrero	2023-02-20T00:00:00	2024-11-06T03:00:00	5	Humedad	61
9629	7	Sololá	701	Sololá	3	Barraneche	2	Febrero	2023-02-20T00:00:00	2024-11-06T03:00:00	6	Velocidad del viento	38.6
9630	7	Sololá	701	Sololá	3	Barraneche	2	Febrero	2023-02-20T00:00:00	2024-11-06T03:00:00	7	Dirección del viento	38.62
9631	7	Sololá	701	Sololá	3	Barraneche	2	Febrero	2023-02-20T00:00:00	2024-11-06T03:00:00	1	Precipitación	0
9632	7	Sololá	701	Sololá	3	Barraneche	2	Febrero	2023-02-20T00:00:00	2024-11-06T03:00:00	8	Radiación solar	0
9633	7	Sololá	701	Sololá	3	Barraneche	2	Febrero	2023-02-20T00:00:00	2024-11-06T04:00:00	2	Temperatura media	9.9
9634	7	Sololá	701	Sololá	3	Barraneche	2	Febrero	2023-02-20T00:00:00	2024-11-06T04:00:00	4	Temperatura máxima	10.4
9635	7	Sololá	701	Sololá	3	Barraneche	2	Febrero	2023-02-20T00:00:00	2024-11-06T04:00:00	3	Temperatura mínima	9.8
9636	7	Sololá	701	Sololá	3	Barraneche	2	Febrero	2023-02-20T00:00:00	2024-11-06T04:00:00	5	Humedad	61
9637	7	Sololá	701	Sololá	3	Barraneche	2	Febrero	2023-02-20T00:00:00	2024-11-06T04:00:00	6	Velocidad del viento	33.8
9638	7	Sololá	701	Sololá	3	Barraneche	2	Febrero	2023-02-20T00:00:00	2024-11-06T04:00:00	7	Dirección del viento	33.8
9639	7	Sololá	701	Sololá	3	Barraneche	2	Febrero	2023-02-20T00:00:00	2024-11-06T04:00:00	1	Precipitación	0
9640	7	Sololá	701	Sololá	3	Barraneche	2	Febrero	2023-02-20T00:00:00	2024-11-06T04:00:00	8	Radiación solar	0
9641	7	Sololá	701	Sololá	3	Barraneche	2	Febrero	2023-02-20T00:00:00	2024-11-06T05:00:00	2	Temperatura media	10.1
9642	7	Sololá	701	Sololá	3	Barraneche	2	Febrero	2023-02-20T00:00:00	2024-11-06T05:00:00	4	Temperatura máxima	10.1
9643	7	Sololá	701	Sololá	3	Barraneche	2	Febrero	2023-02-20T00:00:00	2024-11-06T05:00:00	3	Temperatura mínima	9.8
9644	7	Sololá	701	Sololá	3	Barraneche	2	Febrero	2023-02-20T00:00:00	2024-11-06T05:00:00	5	Humedad	62
9645	7	Sololá	701	Sololá	3	Barraneche	2	Febrero	2023-02-20T00:00:00	2024-11-06T05:00:00	6	Velocidad del viento	40.2
9646	7	Sololá	701	Sololá	3	Barraneche	2	Febrero	2023-02-20T00:00:00	2024-11-06T05:00:00	7	Dirección del viento	40.23
9647	7	Sololá	701	Sololá	3	Barraneche	2	Febrero	2023-02-20T00:00:00	2024-11-06T05:00:00	1	Precipitación	0
9648	7	Sololá	701	Sololá	3	Barraneche	2	Febrero	2023-02-20T00:00:00	2024-11-06T05:00:00	8	Radiación solar	0
9649	7	Sololá	701	Sololá	3	Barraneche	2	Febrero	2023-02-20T00:00:00	2024-11-06T06:00:00	2	Temperatura media	9.9
9650	7	Sololá	701	Sololá	3	Barraneche	2	Febrero	2023-02-20T00:00:00	2024-11-06T06:00:00	4	Temperatura máxima	10.2
9651	7	Sololá	701	Sololá	3	Barraneche	2	Febrero	2023-02-20T00:00:00	2024-11-06T06:00:00	3	Temperatura mínima	9.8
9652	7	Sololá	701	Sololá	3	Barraneche	2	Febrero	2023-02-20T00:00:00	2024-11-06T06:00:00	5	Humedad	62
9653	7	Sololá	701	Sololá	3	Barraneche	2	Febrero	2023-02-20T00:00:00	2024-11-06T06:00:00	6	Velocidad del viento	27.4
9654	7	Sololá	701	Sololá	3	Barraneche	2	Febrero	2023-02-20T00:00:00	2024-11-06T06:00:00	7	Dirección del viento	27.36
9655	7	Sololá	701	Sololá	3	Barraneche	2	Febrero	2023-02-20T00:00:00	2024-11-06T06:00:00	1	Precipitación	0
9656	7	Sololá	701	Sololá	3	Barraneche	2	Febrero	2023-02-20T00:00:00	2024-11-06T06:00:00	8	Radiación solar	0
9657	7	Sololá	701	Sololá	3	Barraneche	2	Febrero	2023-02-20T00:00:00	2024-11-06T07:00:00	2	Temperatura media	9.8
9658	7	Sololá	701	Sololá	3	Barraneche	2	Febrero	2023-02-20T00:00:00	2024-11-06T07:00:00	4	Temperatura máxima	10.4
9659	7	Sololá	701	Sololá	3	Barraneche	2	Febrero	2023-02-20T00:00:00	2024-11-06T07:00:00	3	Temperatura mínima	9.8
9660	7	Sololá	701	Sololá	3	Barraneche	2	Febrero	2023-02-20T00:00:00	2024-11-06T07:00:00	5	Humedad	61
9661	7	Sololá	701	Sololá	3	Barraneche	2	Febrero	2023-02-20T00:00:00	2024-11-06T07:00:00	6	Velocidad del viento	25.7
9662	7	Sololá	701	Sololá	3	Barraneche	2	Febrero	2023-02-20T00:00:00	2024-11-06T07:00:00	7	Dirección del viento	25.75
9663	7	Sololá	701	Sololá	3	Barraneche	2	Febrero	2023-02-20T00:00:00	2024-11-06T07:00:00	1	Precipitación	0
9664	7	Sololá	701	Sololá	3	Barraneche	2	Febrero	2023-02-20T00:00:00	2024-11-06T07:00:00	8	Radiación solar	8
9665	7	Sololá	701	Sololá	3	Barraneche	2	Febrero	2023-02-20T00:00:00	2024-11-06T08:00:00	2	Temperatura media	11.6
9666	7	Sololá	701	Sololá	3	Barraneche	2	Febrero	2023-02-20T00:00:00	2024-11-06T08:00:00	4	Temperatura máxima	11.6
9667	7	Sololá	701	Sololá	3	Barraneche	2	Febrero	2023-02-20T00:00:00	2024-11-06T08:00:00	3	Temperatura mínima	9.8
9668	7	Sololá	701	Sololá	3	Barraneche	2	Febrero	2023-02-20T00:00:00	2024-11-06T08:00:00	5	Humedad	51
9669	7	Sololá	701	Sololá	3	Barraneche	2	Febrero	2023-02-20T00:00:00	2024-11-06T08:00:00	6	Velocidad del viento	27.4
9670	7	Sololá	701	Sololá	3	Barraneche	2	Febrero	2023-02-20T00:00:00	2024-11-06T08:00:00	7	Dirección del viento	27.36
9671	7	Sololá	701	Sololá	3	Barraneche	2	Febrero	2023-02-20T00:00:00	2024-11-06T08:00:00	1	Precipitación	0
9672	7	Sololá	701	Sololá	3	Barraneche	2	Febrero	2023-02-20T00:00:00	2024-11-06T08:00:00	8	Radiación solar	195
9673	7	Sololá	701	Sololá	3	Barraneche	2	Febrero	2023-02-20T00:00:00	2024-11-06T09:00:00	2	Temperatura media	14.4
9674	7	Sololá	701	Sololá	3	Barraneche	2	Febrero	2023-02-20T00:00:00	2024-11-06T09:00:00	4	Temperatura máxima	14.4
9675	7	Sololá	701	Sololá	3	Barraneche	2	Febrero	2023-02-20T00:00:00	2024-11-06T09:00:00	3	Temperatura mínima	11.5
9676	7	Sololá	701	Sololá	3	Barraneche	2	Febrero	2023-02-20T00:00:00	2024-11-06T09:00:00	5	Humedad	30
9677	7	Sololá	701	Sololá	3	Barraneche	2	Febrero	2023-02-20T00:00:00	2024-11-06T09:00:00	6	Velocidad del viento	25.7
9678	7	Sololá	701	Sololá	3	Barraneche	2	Febrero	2023-02-20T00:00:00	2024-11-06T09:00:00	7	Dirección del viento	25.75
9679	7	Sololá	701	Sololá	3	Barraneche	2	Febrero	2023-02-20T00:00:00	2024-11-06T09:00:00	1	Precipitación	0
9680	7	Sololá	701	Sololá	3	Barraneche	2	Febrero	2023-02-20T00:00:00	2024-11-06T09:00:00	8	Radiación solar	487
9681	7	Sololá	701	Sololá	3	Barraneche	2	Febrero	2023-02-20T00:00:00	2024-11-06T10:00:00	2	Temperatura media	14.2
9682	7	Sololá	701	Sololá	3	Barraneche	2	Febrero	2023-02-20T00:00:00	2024-11-06T10:00:00	4	Temperatura máxima	14.8
9683	7	Sololá	701	Sololá	3	Barraneche	2	Febrero	2023-02-20T00:00:00	2024-11-06T10:00:00	3	Temperatura mínima	13.6
9684	7	Sololá	701	Sololá	3	Barraneche	2	Febrero	2023-02-20T00:00:00	2024-11-06T10:00:00	5	Humedad	49
9685	7	Sololá	701	Sololá	3	Barraneche	2	Febrero	2023-02-20T00:00:00	2024-11-06T10:00:00	6	Velocidad del viento	27.4
9686	7	Sololá	701	Sololá	3	Barraneche	2	Febrero	2023-02-20T00:00:00	2024-11-06T10:00:00	7	Dirección del viento	27.36
9687	7	Sololá	701	Sololá	3	Barraneche	2	Febrero	2023-02-20T00:00:00	2024-11-06T10:00:00	1	Precipitación	0
9688	7	Sololá	701	Sololá	3	Barraneche	2	Febrero	2023-02-20T00:00:00	2024-11-06T10:00:00	8	Radiación solar	718
9689	7	Sololá	701	Sololá	3	Barraneche	2	Febrero	2023-02-20T00:00:00	2024-11-06T11:00:00	2	Temperatura media	15.6
9690	7	Sololá	701	Sololá	3	Barraneche	2	Febrero	2023-02-20T00:00:00	2024-11-06T11:00:00	4	Temperatura máxima	15.6
9691	7	Sololá	701	Sololá	3	Barraneche	2	Febrero	2023-02-20T00:00:00	2024-11-06T11:00:00	3	Temperatura mínima	14.2
9692	7	Sololá	701	Sololá	3	Barraneche	2	Febrero	2023-02-20T00:00:00	2024-11-06T11:00:00	5	Humedad	42
9693	7	Sololá	701	Sololá	3	Barraneche	2	Febrero	2023-02-20T00:00:00	2024-11-06T11:00:00	6	Velocidad del viento	22.5
9694	7	Sololá	701	Sololá	3	Barraneche	2	Febrero	2023-02-20T00:00:00	2024-11-06T11:00:00	7	Dirección del viento	22.53
9695	7	Sololá	701	Sololá	3	Barraneche	2	Febrero	2023-02-20T00:00:00	2024-11-06T11:00:00	1	Precipitación	0
9696	7	Sololá	701	Sololá	3	Barraneche	2	Febrero	2023-02-20T00:00:00	2024-11-06T11:00:00	8	Radiación solar	886
9697	7	Sololá	701	Sololá	3	Barraneche	2	Febrero	2023-02-20T00:00:00	2024-11-06T12:00:00	2	Temperatura media	16.4
9698	7	Sololá	701	Sololá	3	Barraneche	2	Febrero	2023-02-20T00:00:00	2024-11-06T12:00:00	4	Temperatura máxima	17.4
9699	7	Sololá	701	Sololá	3	Barraneche	2	Febrero	2023-02-20T00:00:00	2024-11-06T12:00:00	3	Temperatura mínima	15.6
9700	7	Sololá	701	Sololá	3	Barraneche	2	Febrero	2023-02-20T00:00:00	2024-11-06T12:00:00	5	Humedad	38
9701	7	Sololá	701	Sololá	3	Barraneche	2	Febrero	2023-02-20T00:00:00	2024-11-06T12:00:00	6	Velocidad del viento	19.3
9702	7	Sololá	701	Sololá	3	Barraneche	2	Febrero	2023-02-20T00:00:00	2024-11-06T12:00:00	7	Dirección del viento	19.31
9703	7	Sololá	701	Sololá	3	Barraneche	2	Febrero	2023-02-20T00:00:00	2024-11-06T12:00:00	1	Precipitación	0
9704	7	Sololá	701	Sololá	3	Barraneche	2	Febrero	2023-02-20T00:00:00	2024-11-06T12:00:00	8	Radiación solar	987
9705	7	Sololá	701	Sololá	3	Barraneche	2	Febrero	2023-02-20T00:00:00	2024-11-06T13:00:00	2	Temperatura media	17.2
9706	7	Sololá	701	Sololá	3	Barraneche	2	Febrero	2023-02-20T00:00:00	2024-11-06T13:00:00	4	Temperatura máxima	17.7
9707	7	Sololá	701	Sololá	3	Barraneche	2	Febrero	2023-02-20T00:00:00	2024-11-06T13:00:00	3	Temperatura mínima	16.3
9708	7	Sololá	701	Sololá	3	Barraneche	2	Febrero	2023-02-20T00:00:00	2024-11-06T13:00:00	5	Humedad	36
9709	7	Sololá	701	Sololá	3	Barraneche	2	Febrero	2023-02-20T00:00:00	2024-11-06T13:00:00	6	Velocidad del viento	16.1
9710	7	Sololá	701	Sololá	3	Barraneche	2	Febrero	2023-02-20T00:00:00	2024-11-06T13:00:00	7	Dirección del viento	16.09
9711	7	Sololá	701	Sololá	3	Barraneche	2	Febrero	2023-02-20T00:00:00	2024-11-06T13:00:00	1	Precipitación	0
9712	7	Sololá	701	Sololá	3	Barraneche	2	Febrero	2023-02-20T00:00:00	2024-11-06T13:00:00	8	Radiación solar	1008
9713	7	Sololá	701	Sololá	3	Barraneche	2	Febrero	2023-02-20T00:00:00	2024-11-06T14:00:00	2	Temperatura media	17.2
9714	7	Sololá	701	Sololá	3	Barraneche	2	Febrero	2023-02-20T00:00:00	2024-11-06T14:00:00	4	Temperatura máxima	17.5
9715	7	Sololá	701	Sololá	3	Barraneche	2	Febrero	2023-02-20T00:00:00	2024-11-06T14:00:00	3	Temperatura mínima	16.4
9716	7	Sololá	701	Sololá	3	Barraneche	2	Febrero	2023-02-20T00:00:00	2024-11-06T14:00:00	5	Humedad	42
9717	7	Sololá	701	Sololá	3	Barraneche	2	Febrero	2023-02-20T00:00:00	2024-11-06T14:00:00	6	Velocidad del viento	17.7
9718	7	Sololá	701	Sololá	3	Barraneche	2	Febrero	2023-02-20T00:00:00	2024-11-06T14:00:00	7	Dirección del viento	17.7
9719	7	Sololá	701	Sololá	3	Barraneche	2	Febrero	2023-02-20T00:00:00	2024-11-06T14:00:00	1	Precipitación	0
9720	7	Sololá	701	Sololá	3	Barraneche	2	Febrero	2023-02-20T00:00:00	2024-11-06T14:00:00	8	Radiación solar	941
9721	7	Sololá	701	Sololá	3	Barraneche	2	Febrero	2023-02-20T00:00:00	2024-11-06T15:00:00	2	Temperatura media	16.4
9722	7	Sololá	701	Sololá	3	Barraneche	2	Febrero	2023-02-20T00:00:00	2024-11-06T15:00:00	4	Temperatura máxima	17.3
9723	7	Sololá	701	Sololá	3	Barraneche	2	Febrero	2023-02-20T00:00:00	2024-11-06T15:00:00	3	Temperatura mínima	16.1
9724	7	Sololá	701	Sololá	3	Barraneche	2	Febrero	2023-02-20T00:00:00	2024-11-06T15:00:00	5	Humedad	42
9725	7	Sololá	701	Sololá	3	Barraneche	2	Febrero	2023-02-20T00:00:00	2024-11-06T15:00:00	6	Velocidad del viento	17.7
9726	7	Sololá	701	Sololá	3	Barraneche	2	Febrero	2023-02-20T00:00:00	2024-11-06T15:00:00	7	Dirección del viento	17.7
9727	7	Sololá	701	Sololá	3	Barraneche	2	Febrero	2023-02-20T00:00:00	2024-11-06T15:00:00	1	Precipitación	0
9728	7	Sololá	701	Sololá	3	Barraneche	2	Febrero	2023-02-20T00:00:00	2024-11-06T15:00:00	8	Radiación solar	813
9729	7	Sololá	701	Sololá	3	Barraneche	2	Febrero	2023-02-20T00:00:00	2024-11-06T16:00:00	2	Temperatura media	15.8
9730	7	Sololá	701	Sololá	3	Barraneche	2	Febrero	2023-02-20T00:00:00	2024-11-06T16:00:00	4	Temperatura máxima	16.8
9731	7	Sololá	701	Sololá	3	Barraneche	2	Febrero	2023-02-20T00:00:00	2024-11-06T16:00:00	3	Temperatura mínima	15.8
9732	7	Sololá	701	Sololá	3	Barraneche	2	Febrero	2023-02-20T00:00:00	2024-11-06T16:00:00	5	Humedad	40
9733	7	Sololá	701	Sololá	3	Barraneche	2	Febrero	2023-02-20T00:00:00	2024-11-06T16:00:00	6	Velocidad del viento	17.7
9734	7	Sololá	701	Sololá	3	Barraneche	2	Febrero	2023-02-20T00:00:00	2024-11-06T16:00:00	7	Dirección del viento	17.7
9735	7	Sololá	701	Sololá	3	Barraneche	2	Febrero	2023-02-20T00:00:00	2024-11-06T16:00:00	1	Precipitación	0
9736	7	Sololá	701	Sololá	3	Barraneche	2	Febrero	2023-02-20T00:00:00	2024-11-06T16:00:00	8	Radiación solar	600
9737	7	Sololá	701	Sololá	3	Barraneche	2	Febrero	2023-02-20T00:00:00	2024-11-06T17:00:00	2	Temperatura media	15.1
9738	7	Sololá	701	Sololá	3	Barraneche	2	Febrero	2023-02-20T00:00:00	2024-11-06T17:00:00	4	Temperatura máxima	16.1
9739	7	Sololá	701	Sololá	3	Barraneche	2	Febrero	2023-02-20T00:00:00	2024-11-06T17:00:00	3	Temperatura mínima	14.9
9740	7	Sololá	701	Sololá	3	Barraneche	2	Febrero	2023-02-20T00:00:00	2024-11-06T17:00:00	5	Humedad	46
9741	7	Sololá	701	Sololá	3	Barraneche	2	Febrero	2023-02-20T00:00:00	2024-11-06T17:00:00	6	Velocidad del viento	17.7
9742	7	Sololá	701	Sololá	3	Barraneche	2	Febrero	2023-02-20T00:00:00	2024-11-06T17:00:00	7	Dirección del viento	17.7
9743	7	Sololá	701	Sololá	3	Barraneche	2	Febrero	2023-02-20T00:00:00	2024-11-06T17:00:00	1	Precipitación	0
9744	7	Sololá	701	Sololá	3	Barraneche	2	Febrero	2023-02-20T00:00:00	2024-11-06T17:00:00	8	Radiación solar	353
9745	7	Sololá	701	Sololá	3	Barraneche	2	Febrero	2023-02-20T00:00:00	2024-11-06T18:00:00	2	Temperatura media	12.8
9746	7	Sololá	701	Sololá	3	Barraneche	2	Febrero	2023-02-20T00:00:00	2024-11-06T18:00:00	4	Temperatura máxima	15.1
9747	7	Sololá	701	Sololá	3	Barraneche	2	Febrero	2023-02-20T00:00:00	2024-11-06T18:00:00	3	Temperatura mínima	12.8
9748	7	Sololá	701	Sololá	3	Barraneche	2	Febrero	2023-02-20T00:00:00	2024-11-06T18:00:00	5	Humedad	56
9749	7	Sololá	701	Sololá	3	Barraneche	2	Febrero	2023-02-20T00:00:00	2024-11-06T18:00:00	6	Velocidad del viento	17.7
9750	7	Sololá	701	Sololá	3	Barraneche	2	Febrero	2023-02-20T00:00:00	2024-11-06T18:00:00	7	Dirección del viento	17.7
9751	7	Sololá	701	Sololá	3	Barraneche	2	Febrero	2023-02-20T00:00:00	2024-11-06T18:00:00	1	Precipitación	0
9752	7	Sololá	701	Sololá	3	Barraneche	2	Febrero	2023-02-20T00:00:00	2024-11-06T18:00:00	8	Radiación solar	100
9753	7	Sololá	701	Sololá	3	Barraneche	2	Febrero	2023-02-20T00:00:00	2024-11-06T19:00:00	2	Temperatura media	11.8
9754	7	Sololá	701	Sololá	3	Barraneche	2	Febrero	2023-02-20T00:00:00	2024-11-06T19:00:00	4	Temperatura máxima	12.8
9755	7	Sololá	701	Sololá	3	Barraneche	2	Febrero	2023-02-20T00:00:00	2024-11-06T19:00:00	3	Temperatura mínima	11.7
9756	7	Sololá	701	Sololá	3	Barraneche	2	Febrero	2023-02-20T00:00:00	2024-11-06T19:00:00	5	Humedad	57
9757	7	Sololá	701	Sololá	3	Barraneche	2	Febrero	2023-02-20T00:00:00	2024-11-06T19:00:00	6	Velocidad del viento	16.1
9758	7	Sololá	701	Sololá	3	Barraneche	2	Febrero	2023-02-20T00:00:00	2024-11-06T19:00:00	7	Dirección del viento	16.09
9759	7	Sololá	701	Sololá	3	Barraneche	2	Febrero	2023-02-20T00:00:00	2024-11-06T19:00:00	1	Precipitación	0
9760	7	Sololá	701	Sololá	3	Barraneche	2	Febrero	2023-02-20T00:00:00	2024-11-06T19:00:00	8	Radiación solar	0
9761	7	Sololá	701	Sololá	3	Barraneche	2	Febrero	2023-02-20T00:00:00	2024-11-06T20:00:00	2	Temperatura media	11.3
9762	7	Sololá	701	Sololá	3	Barraneche	2	Febrero	2023-02-20T00:00:00	2024-11-06T20:00:00	4	Temperatura máxima	11.9
9763	7	Sololá	701	Sololá	3	Barraneche	2	Febrero	2023-02-20T00:00:00	2024-11-06T20:00:00	3	Temperatura mínima	11.3
9764	7	Sololá	701	Sololá	3	Barraneche	2	Febrero	2023-02-20T00:00:00	2024-11-06T20:00:00	5	Humedad	53
9765	7	Sololá	701	Sololá	3	Barraneche	2	Febrero	2023-02-20T00:00:00	2024-11-06T20:00:00	6	Velocidad del viento	9.7
9766	7	Sololá	701	Sololá	3	Barraneche	2	Febrero	2023-02-20T00:00:00	2024-11-06T20:00:00	7	Dirección del viento	9.66
9767	7	Sololá	701	Sololá	3	Barraneche	2	Febrero	2023-02-20T00:00:00	2024-11-06T20:00:00	1	Precipitación	0
9768	7	Sololá	701	Sololá	3	Barraneche	2	Febrero	2023-02-20T00:00:00	2024-11-06T20:00:00	8	Radiación solar	0
9769	7	Sololá	701	Sololá	3	Barraneche	2	Febrero	2023-02-20T00:00:00	2024-11-06T21:00:00	2	Temperatura media	10.1
9770	7	Sololá	701	Sololá	3	Barraneche	2	Febrero	2023-02-20T00:00:00	2024-11-06T21:00:00	4	Temperatura máxima	11.5
9771	7	Sololá	701	Sololá	3	Barraneche	2	Febrero	2023-02-20T00:00:00	2024-11-06T21:00:00	3	Temperatura mínima	10.1
9772	7	Sololá	701	Sololá	3	Barraneche	2	Febrero	2023-02-20T00:00:00	2024-11-06T21:00:00	5	Humedad	57
9773	7	Sololá	701	Sololá	3	Barraneche	2	Febrero	2023-02-20T00:00:00	2024-11-06T21:00:00	6	Velocidad del viento	6.4
9774	7	Sololá	701	Sololá	3	Barraneche	2	Febrero	2023-02-20T00:00:00	2024-11-06T21:00:00	7	Dirección del viento	6.44
9775	7	Sololá	701	Sololá	3	Barraneche	2	Febrero	2023-02-20T00:00:00	2024-11-06T21:00:00	1	Precipitación	0
9776	7	Sololá	701	Sololá	3	Barraneche	2	Febrero	2023-02-20T00:00:00	2024-11-06T21:00:00	8	Radiación solar	0
9777	7	Sololá	701	Sololá	3	Barraneche	2	Febrero	2023-02-20T00:00:00	2024-11-06T22:00:00	2	Temperatura media	9
9778	7	Sololá	701	Sololá	3	Barraneche	2	Febrero	2023-02-20T00:00:00	2024-11-06T22:00:00	4	Temperatura máxima	10.1
9779	7	Sololá	701	Sololá	3	Barraneche	2	Febrero	2023-02-20T00:00:00	2024-11-06T22:00:00	3	Temperatura mínima	9
9780	7	Sololá	701	Sololá	3	Barraneche	2	Febrero	2023-02-20T00:00:00	2024-11-06T22:00:00	5	Humedad	55
9781	7	Sololá	701	Sololá	3	Barraneche	2	Febrero	2023-02-20T00:00:00	2024-11-06T22:00:00	6	Velocidad del viento	4.8
9782	7	Sololá	701	Sololá	3	Barraneche	2	Febrero	2023-02-20T00:00:00	2024-11-06T22:00:00	7	Dirección del viento	4.83
9783	7	Sololá	701	Sololá	3	Barraneche	2	Febrero	2023-02-20T00:00:00	2024-11-06T22:00:00	1	Precipitación	0
9784	7	Sololá	701	Sololá	3	Barraneche	2	Febrero	2023-02-20T00:00:00	2024-11-06T22:00:00	8	Radiación solar	0
9785	7	Sololá	701	Sololá	3	Barraneche	2	Febrero	2023-02-20T00:00:00	2024-11-06T23:00:00	2	Temperatura media	9.3
9786	7	Sololá	701	Sololá	3	Barraneche	2	Febrero	2023-02-20T00:00:00	2024-11-06T23:00:00	4	Temperatura máxima	9.4
9787	7	Sololá	701	Sololá	3	Barraneche	2	Febrero	2023-02-20T00:00:00	2024-11-06T23:00:00	3	Temperatura mínima	8.7
9788	7	Sololá	701	Sololá	3	Barraneche	2	Febrero	2023-02-20T00:00:00	2024-11-06T23:00:00	5	Humedad	58
9789	7	Sololá	701	Sololá	3	Barraneche	2	Febrero	2023-02-20T00:00:00	2024-11-06T23:00:00	6	Velocidad del viento	4.8
9790	7	Sololá	701	Sololá	3	Barraneche	2	Febrero	2023-02-20T00:00:00	2024-11-06T23:00:00	7	Dirección del viento	4.83
9791	7	Sololá	701	Sololá	3	Barraneche	2	Febrero	2023-02-20T00:00:00	2024-11-06T23:00:00	1	Precipitación	0
9792	7	Sololá	701	Sololá	3	Barraneche	2	Febrero	2023-02-20T00:00:00	2024-11-06T23:00:00	8	Radiación solar	0
9793	7	Sololá	701	Sololá	3	Barraneche	2	Febrero	2023-02-21T00:00:00	2024-11-06T00:00:00	2	Temperatura media	9
9794	7	Sololá	701	Sololá	3	Barraneche	2	Febrero	2023-02-21T00:00:00	2024-11-06T00:00:00	4	Temperatura máxima	9.4
9795	7	Sololá	701	Sololá	3	Barraneche	2	Febrero	2023-02-21T00:00:00	2024-11-06T00:00:00	3	Temperatura mínima	8.5
9796	7	Sololá	701	Sololá	3	Barraneche	2	Febrero	2023-02-21T00:00:00	2024-11-06T00:00:00	5	Humedad	61
9797	7	Sololá	701	Sololá	3	Barraneche	2	Febrero	2023-02-21T00:00:00	2024-11-06T00:00:00	6	Velocidad del viento	3.2
9798	7	Sololá	701	Sololá	3	Barraneche	2	Febrero	2023-02-21T00:00:00	2024-11-06T00:00:00	7	Dirección del viento	3.22
9799	7	Sololá	701	Sololá	3	Barraneche	2	Febrero	2023-02-21T00:00:00	2024-11-06T00:00:00	1	Precipitación	0
9800	7	Sololá	701	Sololá	3	Barraneche	2	Febrero	2023-02-21T00:00:00	2024-11-06T00:00:00	8	Radiación solar	0
9801	7	Sololá	701	Sololá	3	Barraneche	2	Febrero	2023-02-21T00:00:00	2024-11-06T01:00:00	2	Temperatura media	9.9
9802	7	Sololá	701	Sololá	3	Barraneche	2	Febrero	2023-02-21T00:00:00	2024-11-06T01:00:00	4	Temperatura máxima	9.9
9803	7	Sololá	701	Sololá	3	Barraneche	2	Febrero	2023-02-21T00:00:00	2024-11-06T01:00:00	3	Temperatura mínima	8.8
9804	7	Sololá	701	Sololá	3	Barraneche	2	Febrero	2023-02-21T00:00:00	2024-11-06T01:00:00	5	Humedad	59
9805	7	Sololá	701	Sololá	3	Barraneche	2	Febrero	2023-02-21T00:00:00	2024-11-06T01:00:00	6	Velocidad del viento	6.4
9806	7	Sololá	701	Sololá	3	Barraneche	2	Febrero	2023-02-21T00:00:00	2024-11-06T01:00:00	7	Dirección del viento	6.44
9807	7	Sololá	701	Sololá	3	Barraneche	2	Febrero	2023-02-21T00:00:00	2024-11-06T01:00:00	1	Precipitación	0
9808	7	Sololá	701	Sololá	3	Barraneche	2	Febrero	2023-02-21T00:00:00	2024-11-06T01:00:00	8	Radiación solar	0
9809	7	Sololá	701	Sololá	3	Barraneche	2	Febrero	2023-02-21T00:00:00	2024-11-06T02:00:00	2	Temperatura media	9.4
9810	7	Sololá	701	Sololá	3	Barraneche	2	Febrero	2023-02-21T00:00:00	2024-11-06T02:00:00	4	Temperatura máxima	10.3
9811	7	Sololá	701	Sololá	3	Barraneche	2	Febrero	2023-02-21T00:00:00	2024-11-06T02:00:00	3	Temperatura mínima	9.2
9812	7	Sololá	701	Sololá	3	Barraneche	2	Febrero	2023-02-21T00:00:00	2024-11-06T02:00:00	5	Humedad	64
9813	7	Sololá	701	Sololá	3	Barraneche	2	Febrero	2023-02-21T00:00:00	2024-11-06T02:00:00	6	Velocidad del viento	8
9814	7	Sololá	701	Sololá	3	Barraneche	2	Febrero	2023-02-21T00:00:00	2024-11-06T02:00:00	7	Dirección del viento	8.05
9815	7	Sololá	701	Sololá	3	Barraneche	2	Febrero	2023-02-21T00:00:00	2024-11-06T02:00:00	1	Precipitación	0
9816	7	Sololá	701	Sololá	3	Barraneche	2	Febrero	2023-02-21T00:00:00	2024-11-06T02:00:00	8	Radiación solar	0
9817	7	Sololá	701	Sololá	3	Barraneche	2	Febrero	2023-02-21T00:00:00	2024-11-06T03:00:00	2	Temperatura media	9.4
9818	7	Sololá	701	Sololá	3	Barraneche	2	Febrero	2023-02-21T00:00:00	2024-11-06T03:00:00	4	Temperatura máxima	9.8
9819	7	Sololá	701	Sololá	3	Barraneche	2	Febrero	2023-02-21T00:00:00	2024-11-06T03:00:00	3	Temperatura mínima	9.3
9820	7	Sololá	701	Sololá	3	Barraneche	2	Febrero	2023-02-21T00:00:00	2024-11-06T03:00:00	5	Humedad	64
9821	7	Sololá	701	Sololá	3	Barraneche	2	Febrero	2023-02-21T00:00:00	2024-11-06T03:00:00	6	Velocidad del viento	8
9822	7	Sololá	701	Sololá	3	Barraneche	2	Febrero	2023-02-21T00:00:00	2024-11-06T03:00:00	7	Dirección del viento	8.05
9823	7	Sololá	701	Sololá	3	Barraneche	2	Febrero	2023-02-21T00:00:00	2024-11-06T03:00:00	1	Precipitación	0
9824	7	Sololá	701	Sololá	3	Barraneche	2	Febrero	2023-02-21T00:00:00	2024-11-06T03:00:00	8	Radiación solar	0
9825	7	Sololá	701	Sololá	3	Barraneche	2	Febrero	2023-02-21T00:00:00	2024-11-06T04:00:00	2	Temperatura media	9.6
9826	7	Sololá	701	Sololá	3	Barraneche	2	Febrero	2023-02-21T00:00:00	2024-11-06T04:00:00	4	Temperatura máxima	9.6
9827	7	Sololá	701	Sololá	3	Barraneche	2	Febrero	2023-02-21T00:00:00	2024-11-06T04:00:00	3	Temperatura mínima	9
9828	7	Sololá	701	Sololá	3	Barraneche	2	Febrero	2023-02-21T00:00:00	2024-11-06T04:00:00	5	Humedad	66
9829	7	Sololá	701	Sololá	3	Barraneche	2	Febrero	2023-02-21T00:00:00	2024-11-06T04:00:00	6	Velocidad del viento	6.4
9830	7	Sololá	701	Sololá	3	Barraneche	2	Febrero	2023-02-21T00:00:00	2024-11-06T04:00:00	7	Dirección del viento	6.44
9831	7	Sololá	701	Sololá	3	Barraneche	2	Febrero	2023-02-21T00:00:00	2024-11-06T04:00:00	1	Precipitación	0
9832	7	Sololá	701	Sololá	3	Barraneche	2	Febrero	2023-02-21T00:00:00	2024-11-06T04:00:00	8	Radiación solar	0
9833	7	Sololá	701	Sololá	3	Barraneche	2	Febrero	2023-02-21T00:00:00	2024-11-06T05:00:00	2	Temperatura media	9.7
9834	7	Sololá	701	Sololá	3	Barraneche	2	Febrero	2023-02-21T00:00:00	2024-11-06T05:00:00	4	Temperatura máxima	9.7
9835	7	Sololá	701	Sololá	3	Barraneche	2	Febrero	2023-02-21T00:00:00	2024-11-06T05:00:00	3	Temperatura mínima	9.1
9836	7	Sololá	701	Sololá	3	Barraneche	2	Febrero	2023-02-21T00:00:00	2024-11-06T05:00:00	5	Humedad	67
9837	7	Sololá	701	Sololá	3	Barraneche	2	Febrero	2023-02-21T00:00:00	2024-11-06T05:00:00	6	Velocidad del viento	9.7
9838	7	Sololá	701	Sololá	3	Barraneche	2	Febrero	2023-02-21T00:00:00	2024-11-06T05:00:00	7	Dirección del viento	9.66
9839	7	Sololá	701	Sololá	3	Barraneche	2	Febrero	2023-02-21T00:00:00	2024-11-06T05:00:00	1	Precipitación	0
9840	7	Sololá	701	Sololá	3	Barraneche	2	Febrero	2023-02-21T00:00:00	2024-11-06T05:00:00	8	Radiación solar	0
9841	7	Sololá	701	Sololá	3	Barraneche	2	Febrero	2023-02-21T00:00:00	2024-11-06T06:00:00	2	Temperatura media	9.2
9842	7	Sololá	701	Sololá	3	Barraneche	2	Febrero	2023-02-21T00:00:00	2024-11-06T06:00:00	4	Temperatura máxima	9.7
9843	7	Sololá	701	Sololá	3	Barraneche	2	Febrero	2023-02-21T00:00:00	2024-11-06T06:00:00	3	Temperatura mínima	9.1
9844	7	Sololá	701	Sololá	3	Barraneche	2	Febrero	2023-02-21T00:00:00	2024-11-06T06:00:00	5	Humedad	68
9845	7	Sololá	701	Sololá	3	Barraneche	2	Febrero	2023-02-21T00:00:00	2024-11-06T06:00:00	6	Velocidad del viento	9.7
9846	7	Sololá	701	Sololá	3	Barraneche	2	Febrero	2023-02-21T00:00:00	2024-11-06T06:00:00	7	Dirección del viento	9.66
9847	7	Sololá	701	Sololá	3	Barraneche	2	Febrero	2023-02-21T00:00:00	2024-11-06T06:00:00	1	Precipitación	0
9848	7	Sololá	701	Sololá	3	Barraneche	2	Febrero	2023-02-21T00:00:00	2024-11-06T06:00:00	8	Radiación solar	0
9849	7	Sololá	701	Sololá	3	Barraneche	2	Febrero	2023-02-21T00:00:00	2024-11-06T07:00:00	2	Temperatura media	8.8
9850	7	Sololá	701	Sololá	3	Barraneche	2	Febrero	2023-02-21T00:00:00	2024-11-06T07:00:00	4	Temperatura máxima	9.3
9851	7	Sololá	701	Sololá	3	Barraneche	2	Febrero	2023-02-21T00:00:00	2024-11-06T07:00:00	3	Temperatura mínima	8.8
9852	7	Sololá	701	Sololá	3	Barraneche	2	Febrero	2023-02-21T00:00:00	2024-11-06T07:00:00	5	Humedad	69
9853	7	Sololá	701	Sololá	3	Barraneche	2	Febrero	2023-02-21T00:00:00	2024-11-06T07:00:00	6	Velocidad del viento	8
9854	7	Sololá	701	Sololá	3	Barraneche	2	Febrero	2023-02-21T00:00:00	2024-11-06T07:00:00	7	Dirección del viento	8.05
9855	7	Sololá	701	Sololá	3	Barraneche	2	Febrero	2023-02-21T00:00:00	2024-11-06T07:00:00	1	Precipitación	0
9856	7	Sololá	701	Sololá	3	Barraneche	2	Febrero	2023-02-21T00:00:00	2024-11-06T07:00:00	8	Radiación solar	12
9857	7	Sololá	701	Sololá	3	Barraneche	2	Febrero	2023-02-21T00:00:00	2024-11-06T08:00:00	2	Temperatura media	12.8
9858	7	Sololá	701	Sololá	3	Barraneche	2	Febrero	2023-02-21T00:00:00	2024-11-06T08:00:00	4	Temperatura máxima	12.8
9859	7	Sololá	701	Sololá	3	Barraneche	2	Febrero	2023-02-21T00:00:00	2024-11-06T08:00:00	3	Temperatura mínima	8.7
9860	7	Sololá	701	Sololá	3	Barraneche	2	Febrero	2023-02-21T00:00:00	2024-11-06T08:00:00	5	Humedad	60
9861	7	Sololá	701	Sololá	3	Barraneche	2	Febrero	2023-02-21T00:00:00	2024-11-06T08:00:00	6	Velocidad del viento	4.8
9862	7	Sololá	701	Sololá	3	Barraneche	2	Febrero	2023-02-21T00:00:00	2024-11-06T08:00:00	7	Dirección del viento	4.83
9863	7	Sololá	701	Sololá	3	Barraneche	2	Febrero	2023-02-21T00:00:00	2024-11-06T08:00:00	1	Precipitación	0
9864	7	Sololá	701	Sololá	3	Barraneche	2	Febrero	2023-02-21T00:00:00	2024-11-06T08:00:00	8	Radiación solar	178
9865	7	Sololá	701	Sololá	3	Barraneche	2	Febrero	2023-02-21T00:00:00	2024-11-06T09:00:00	2	Temperatura media	15.9
9866	7	Sololá	701	Sololá	3	Barraneche	2	Febrero	2023-02-21T00:00:00	2024-11-06T09:00:00	4	Temperatura máxima	15.9
9867	7	Sololá	701	Sololá	3	Barraneche	2	Febrero	2023-02-21T00:00:00	2024-11-06T09:00:00	3	Temperatura mínima	12.8
9868	7	Sololá	701	Sololá	3	Barraneche	2	Febrero	2023-02-21T00:00:00	2024-11-06T09:00:00	5	Humedad	52
9869	7	Sololá	701	Sololá	3	Barraneche	2	Febrero	2023-02-21T00:00:00	2024-11-06T09:00:00	6	Velocidad del viento	3.2
9870	7	Sololá	701	Sololá	3	Barraneche	2	Febrero	2023-02-21T00:00:00	2024-11-06T09:00:00	7	Dirección del viento	3.22
9871	7	Sololá	701	Sololá	3	Barraneche	2	Febrero	2023-02-21T00:00:00	2024-11-06T09:00:00	1	Precipitación	0
9872	7	Sololá	701	Sololá	3	Barraneche	2	Febrero	2023-02-21T00:00:00	2024-11-06T09:00:00	8	Radiación solar	411
9873	7	Sololá	701	Sololá	3	Barraneche	2	Febrero	2023-02-21T00:00:00	2024-11-06T10:00:00	2	Temperatura media	16.6
9874	7	Sololá	701	Sololá	3	Barraneche	2	Febrero	2023-02-21T00:00:00	2024-11-06T10:00:00	4	Temperatura máxima	16.6
9875	7	Sololá	701	Sololá	3	Barraneche	2	Febrero	2023-02-21T00:00:00	2024-11-06T10:00:00	3	Temperatura mínima	15.7
9876	7	Sololá	701	Sololá	3	Barraneche	2	Febrero	2023-02-21T00:00:00	2024-11-06T10:00:00	5	Humedad	51
9877	7	Sololá	701	Sololá	3	Barraneche	2	Febrero	2023-02-21T00:00:00	2024-11-06T10:00:00	6	Velocidad del viento	4.8
9878	7	Sololá	701	Sololá	3	Barraneche	2	Febrero	2023-02-21T00:00:00	2024-11-06T10:00:00	7	Dirección del viento	4.83
9879	7	Sololá	701	Sololá	3	Barraneche	2	Febrero	2023-02-21T00:00:00	2024-11-06T10:00:00	1	Precipitación	0
9880	7	Sololá	701	Sololá	3	Barraneche	2	Febrero	2023-02-21T00:00:00	2024-11-06T10:00:00	8	Radiación solar	472
9881	7	Sololá	701	Sololá	3	Barraneche	2	Febrero	2023-02-21T00:00:00	2024-11-06T11:00:00	2	Temperatura media	17.9
9882	7	Sololá	701	Sololá	3	Barraneche	2	Febrero	2023-02-21T00:00:00	2024-11-06T11:00:00	4	Temperatura máxima	18.1
9883	7	Sololá	701	Sololá	3	Barraneche	2	Febrero	2023-02-21T00:00:00	2024-11-06T11:00:00	3	Temperatura mínima	16.6
9884	7	Sololá	701	Sololá	3	Barraneche	2	Febrero	2023-02-21T00:00:00	2024-11-06T11:00:00	5	Humedad	45
9885	7	Sololá	701	Sololá	3	Barraneche	2	Febrero	2023-02-21T00:00:00	2024-11-06T11:00:00	6	Velocidad del viento	8
9886	7	Sololá	701	Sololá	3	Barraneche	2	Febrero	2023-02-21T00:00:00	2024-11-06T11:00:00	7	Dirección del viento	8.05
9887	7	Sololá	701	Sololá	3	Barraneche	2	Febrero	2023-02-21T00:00:00	2024-11-06T11:00:00	1	Precipitación	0
9888	7	Sololá	701	Sololá	3	Barraneche	2	Febrero	2023-02-21T00:00:00	2024-11-06T11:00:00	8	Radiación solar	906
9889	7	Sololá	701	Sololá	3	Barraneche	2	Febrero	2023-02-21T00:00:00	2024-11-06T12:00:00	2	Temperatura media	19.3
9890	7	Sololá	701	Sololá	3	Barraneche	2	Febrero	2023-02-21T00:00:00	2024-11-06T12:00:00	4	Temperatura máxima	19.3
9891	7	Sololá	701	Sololá	3	Barraneche	2	Febrero	2023-02-21T00:00:00	2024-11-06T12:00:00	3	Temperatura mínima	17.3
9892	7	Sololá	701	Sololá	3	Barraneche	2	Febrero	2023-02-21T00:00:00	2024-11-06T12:00:00	5	Humedad	36
9893	7	Sololá	701	Sololá	3	Barraneche	2	Febrero	2023-02-21T00:00:00	2024-11-06T12:00:00	6	Velocidad del viento	8
9894	7	Sololá	701	Sololá	3	Barraneche	2	Febrero	2023-02-21T00:00:00	2024-11-06T12:00:00	7	Dirección del viento	8.05
9895	7	Sololá	701	Sololá	3	Barraneche	2	Febrero	2023-02-21T00:00:00	2024-11-06T12:00:00	1	Precipitación	0
9896	7	Sololá	701	Sololá	3	Barraneche	2	Febrero	2023-02-21T00:00:00	2024-11-06T12:00:00	8	Radiación solar	897
9897	7	Sololá	701	Sololá	3	Barraneche	2	Febrero	2023-02-21T00:00:00	2024-11-06T13:00:00	2	Temperatura media	18.9
9898	7	Sololá	701	Sololá	3	Barraneche	2	Febrero	2023-02-21T00:00:00	2024-11-06T13:00:00	4	Temperatura máxima	19.5
9899	7	Sololá	701	Sololá	3	Barraneche	2	Febrero	2023-02-21T00:00:00	2024-11-06T13:00:00	3	Temperatura mínima	18.4
9900	7	Sololá	701	Sololá	3	Barraneche	2	Febrero	2023-02-21T00:00:00	2024-11-06T13:00:00	5	Humedad	41
9901	7	Sololá	701	Sololá	3	Barraneche	2	Febrero	2023-02-21T00:00:00	2024-11-06T13:00:00	6	Velocidad del viento	12.9
9902	7	Sololá	701	Sololá	3	Barraneche	2	Febrero	2023-02-21T00:00:00	2024-11-06T13:00:00	7	Dirección del viento	12.87
9903	7	Sololá	701	Sololá	3	Barraneche	2	Febrero	2023-02-21T00:00:00	2024-11-06T13:00:00	1	Precipitación	0
9904	7	Sololá	701	Sololá	3	Barraneche	2	Febrero	2023-02-21T00:00:00	2024-11-06T13:00:00	8	Radiación solar	1066
9905	7	Sololá	701	Sololá	3	Barraneche	2	Febrero	2023-02-21T00:00:00	2024-11-06T14:00:00	2	Temperatura media	18.4
9906	7	Sololá	701	Sololá	3	Barraneche	2	Febrero	2023-02-21T00:00:00	2024-11-06T14:00:00	4	Temperatura máxima	19.3
9907	7	Sololá	701	Sololá	3	Barraneche	2	Febrero	2023-02-21T00:00:00	2024-11-06T14:00:00	3	Temperatura mínima	18.3
9908	7	Sololá	701	Sololá	3	Barraneche	2	Febrero	2023-02-21T00:00:00	2024-11-06T14:00:00	5	Humedad	47
9909	7	Sololá	701	Sololá	3	Barraneche	2	Febrero	2023-02-21T00:00:00	2024-11-06T14:00:00	6	Velocidad del viento	14.5
9910	7	Sololá	701	Sololá	3	Barraneche	2	Febrero	2023-02-21T00:00:00	2024-11-06T14:00:00	7	Dirección del viento	14.48
9911	7	Sololá	701	Sololá	3	Barraneche	2	Febrero	2023-02-21T00:00:00	2024-11-06T14:00:00	1	Precipitación	0
9912	7	Sololá	701	Sololá	3	Barraneche	2	Febrero	2023-02-21T00:00:00	2024-11-06T14:00:00	8	Radiación solar	992
9913	7	Sololá	701	Sololá	3	Barraneche	2	Febrero	2023-02-21T00:00:00	2024-11-06T15:00:00	2	Temperatura media	17.7
9914	7	Sololá	701	Sololá	3	Barraneche	2	Febrero	2023-02-21T00:00:00	2024-11-06T15:00:00	4	Temperatura máxima	18.4
9915	7	Sololá	701	Sololá	3	Barraneche	2	Febrero	2023-02-21T00:00:00	2024-11-06T15:00:00	3	Temperatura mínima	17.4
9916	7	Sololá	701	Sololá	3	Barraneche	2	Febrero	2023-02-21T00:00:00	2024-11-06T15:00:00	5	Humedad	54
9917	7	Sololá	701	Sololá	3	Barraneche	2	Febrero	2023-02-21T00:00:00	2024-11-06T15:00:00	6	Velocidad del viento	16.1
9918	7	Sololá	701	Sololá	3	Barraneche	2	Febrero	2023-02-21T00:00:00	2024-11-06T15:00:00	7	Dirección del viento	16.09
9919	7	Sololá	701	Sololá	3	Barraneche	2	Febrero	2023-02-21T00:00:00	2024-11-06T15:00:00	1	Precipitación	0
9920	7	Sololá	701	Sololá	3	Barraneche	2	Febrero	2023-02-21T00:00:00	2024-11-06T15:00:00	8	Radiación solar	832
9921	7	Sololá	701	Sololá	3	Barraneche	2	Febrero	2023-02-21T00:00:00	2024-11-06T16:00:00	2	Temperatura media	17.6
9922	7	Sololá	701	Sololá	3	Barraneche	2	Febrero	2023-02-21T00:00:00	2024-11-06T16:00:00	4	Temperatura máxima	17.8
9923	7	Sololá	701	Sololá	3	Barraneche	2	Febrero	2023-02-21T00:00:00	2024-11-06T16:00:00	3	Temperatura mínima	17.2
9924	7	Sololá	701	Sololá	3	Barraneche	2	Febrero	2023-02-21T00:00:00	2024-11-06T16:00:00	5	Humedad	56
9925	7	Sololá	701	Sololá	3	Barraneche	2	Febrero	2023-02-21T00:00:00	2024-11-06T16:00:00	6	Velocidad del viento	12.9
9926	7	Sololá	701	Sololá	3	Barraneche	2	Febrero	2023-02-21T00:00:00	2024-11-06T16:00:00	7	Dirección del viento	12.87
9927	7	Sololá	701	Sololá	3	Barraneche	2	Febrero	2023-02-21T00:00:00	2024-11-06T16:00:00	1	Precipitación	0
9928	7	Sololá	701	Sololá	3	Barraneche	2	Febrero	2023-02-21T00:00:00	2024-11-06T16:00:00	8	Radiación solar	609
9929	7	Sololá	701	Sololá	3	Barraneche	2	Febrero	2023-02-21T00:00:00	2024-11-06T17:00:00	2	Temperatura media	16.2
9930	7	Sololá	701	Sololá	3	Barraneche	2	Febrero	2023-02-21T00:00:00	2024-11-06T17:00:00	4	Temperatura máxima	17.6
9931	7	Sololá	701	Sololá	3	Barraneche	2	Febrero	2023-02-21T00:00:00	2024-11-06T17:00:00	3	Temperatura mínima	16.2
9932	7	Sololá	701	Sololá	3	Barraneche	2	Febrero	2023-02-21T00:00:00	2024-11-06T17:00:00	5	Humedad	60
9933	7	Sololá	701	Sololá	3	Barraneche	2	Febrero	2023-02-21T00:00:00	2024-11-06T17:00:00	6	Velocidad del viento	11.3
9934	7	Sololá	701	Sololá	3	Barraneche	2	Febrero	2023-02-21T00:00:00	2024-11-06T17:00:00	7	Dirección del viento	11.27
9935	7	Sololá	701	Sololá	3	Barraneche	2	Febrero	2023-02-21T00:00:00	2024-11-06T17:00:00	1	Precipitación	0
9936	7	Sololá	701	Sololá	3	Barraneche	2	Febrero	2023-02-21T00:00:00	2024-11-06T17:00:00	8	Radiación solar	347
9937	7	Sololá	701	Sololá	3	Barraneche	2	Febrero	2023-02-21T00:00:00	2024-11-06T18:00:00	2	Temperatura media	14.2
9938	7	Sololá	701	Sololá	3	Barraneche	2	Febrero	2023-02-21T00:00:00	2024-11-06T18:00:00	4	Temperatura máxima	16.2
9939	7	Sololá	701	Sololá	3	Barraneche	2	Febrero	2023-02-21T00:00:00	2024-11-06T18:00:00	3	Temperatura mínima	14.2
9940	7	Sololá	701	Sololá	3	Barraneche	2	Febrero	2023-02-21T00:00:00	2024-11-06T18:00:00	5	Humedad	71
9941	7	Sololá	701	Sololá	3	Barraneche	2	Febrero	2023-02-21T00:00:00	2024-11-06T18:00:00	6	Velocidad del viento	8
9942	7	Sololá	701	Sololá	3	Barraneche	2	Febrero	2023-02-21T00:00:00	2024-11-06T18:00:00	7	Dirección del viento	8.05
9943	7	Sololá	701	Sololá	3	Barraneche	2	Febrero	2023-02-21T00:00:00	2024-11-06T18:00:00	1	Precipitación	0
9944	7	Sololá	701	Sololá	3	Barraneche	2	Febrero	2023-02-21T00:00:00	2024-11-06T18:00:00	8	Radiación solar	82
9945	7	Sololá	701	Sololá	3	Barraneche	2	Febrero	2023-02-21T00:00:00	2024-11-06T19:00:00	2	Temperatura media	13.7
9946	7	Sololá	701	Sololá	3	Barraneche	2	Febrero	2023-02-21T00:00:00	2024-11-06T19:00:00	4	Temperatura máxima	14.2
9947	7	Sololá	701	Sololá	3	Barraneche	2	Febrero	2023-02-21T00:00:00	2024-11-06T19:00:00	3	Temperatura mínima	13.7
9948	7	Sololá	701	Sololá	3	Barraneche	2	Febrero	2023-02-21T00:00:00	2024-11-06T19:00:00	5	Humedad	72
9949	7	Sololá	701	Sololá	3	Barraneche	2	Febrero	2023-02-21T00:00:00	2024-11-06T19:00:00	6	Velocidad del viento	1.6
9950	7	Sololá	701	Sololá	3	Barraneche	2	Febrero	2023-02-21T00:00:00	2024-11-06T19:00:00	7	Dirección del viento	1.61
9951	7	Sololá	701	Sololá	3	Barraneche	2	Febrero	2023-02-21T00:00:00	2024-11-06T19:00:00	1	Precipitación	0
9952	7	Sololá	701	Sololá	3	Barraneche	2	Febrero	2023-02-21T00:00:00	2024-11-06T19:00:00	8	Radiación solar	0
9953	7	Sololá	701	Sololá	3	Barraneche	2	Febrero	2023-02-21T00:00:00	2024-11-06T20:00:00	2	Temperatura media	11.7
9954	7	Sololá	701	Sololá	3	Barraneche	2	Febrero	2023-02-21T00:00:00	2024-11-06T20:00:00	4	Temperatura máxima	13.8
9955	7	Sololá	701	Sololá	3	Barraneche	2	Febrero	2023-02-21T00:00:00	2024-11-06T20:00:00	3	Temperatura mínima	11.7
9956	7	Sololá	701	Sololá	3	Barraneche	2	Febrero	2023-02-21T00:00:00	2024-11-06T20:00:00	5	Humedad	68
9957	7	Sololá	701	Sololá	3	Barraneche	2	Febrero	2023-02-21T00:00:00	2024-11-06T20:00:00	6	Velocidad del viento	4.8
9958	7	Sololá	701	Sololá	3	Barraneche	2	Febrero	2023-02-21T00:00:00	2024-11-06T20:00:00	7	Dirección del viento	4.83
9959	7	Sololá	701	Sololá	3	Barraneche	2	Febrero	2023-02-21T00:00:00	2024-11-06T20:00:00	1	Precipitación	0
9960	7	Sololá	701	Sololá	3	Barraneche	2	Febrero	2023-02-21T00:00:00	2024-11-06T20:00:00	8	Radiación solar	0
9961	7	Sololá	701	Sololá	3	Barraneche	2	Febrero	2023-02-21T00:00:00	2024-11-06T21:00:00	2	Temperatura media	11
9962	7	Sololá	701	Sololá	3	Barraneche	2	Febrero	2023-02-21T00:00:00	2024-11-06T21:00:00	4	Temperatura máxima	11.8
9963	7	Sololá	701	Sololá	3	Barraneche	2	Febrero	2023-02-21T00:00:00	2024-11-06T21:00:00	3	Temperatura mínima	11
9964	7	Sololá	701	Sololá	3	Barraneche	2	Febrero	2023-02-21T00:00:00	2024-11-06T21:00:00	5	Humedad	67
9965	7	Sololá	701	Sololá	3	Barraneche	2	Febrero	2023-02-21T00:00:00	2024-11-06T21:00:00	6	Velocidad del viento	4.8
9966	7	Sololá	701	Sololá	3	Barraneche	2	Febrero	2023-02-21T00:00:00	2024-11-06T21:00:00	7	Dirección del viento	4.83
9967	7	Sololá	701	Sololá	3	Barraneche	2	Febrero	2023-02-21T00:00:00	2024-11-06T21:00:00	1	Precipitación	0
9968	7	Sololá	701	Sololá	3	Barraneche	2	Febrero	2023-02-21T00:00:00	2024-11-06T21:00:00	8	Radiación solar	0
9969	7	Sololá	701	Sololá	3	Barraneche	2	Febrero	2023-02-21T00:00:00	2024-11-06T22:00:00	2	Temperatura media	10.9
9970	7	Sololá	701	Sololá	3	Barraneche	2	Febrero	2023-02-21T00:00:00	2024-11-06T22:00:00	4	Temperatura máxima	11.2
9971	7	Sololá	701	Sololá	3	Barraneche	2	Febrero	2023-02-21T00:00:00	2024-11-06T22:00:00	3	Temperatura mínima	10.8
9972	7	Sololá	701	Sololá	3	Barraneche	2	Febrero	2023-02-21T00:00:00	2024-11-06T22:00:00	5	Humedad	66
9973	7	Sololá	701	Sololá	3	Barraneche	2	Febrero	2023-02-21T00:00:00	2024-11-06T22:00:00	6	Velocidad del viento	4.8
9974	7	Sololá	701	Sololá	3	Barraneche	2	Febrero	2023-02-21T00:00:00	2024-11-06T22:00:00	7	Dirección del viento	4.83
9975	7	Sololá	701	Sololá	3	Barraneche	2	Febrero	2023-02-21T00:00:00	2024-11-06T22:00:00	1	Precipitación	0
9976	7	Sololá	701	Sololá	3	Barraneche	2	Febrero	2023-02-21T00:00:00	2024-11-06T22:00:00	8	Radiación solar	0
9977	7	Sololá	701	Sololá	3	Barraneche	2	Febrero	2023-02-21T00:00:00	2024-11-06T23:00:00	2	Temperatura media	10.8
9978	7	Sololá	701	Sololá	3	Barraneche	2	Febrero	2023-02-21T00:00:00	2024-11-06T23:00:00	4	Temperatura máxima	10.9
9979	7	Sololá	701	Sololá	3	Barraneche	2	Febrero	2023-02-21T00:00:00	2024-11-06T23:00:00	3	Temperatura mínima	10.6
9980	7	Sololá	701	Sololá	3	Barraneche	2	Febrero	2023-02-21T00:00:00	2024-11-06T23:00:00	5	Humedad	68
9981	7	Sololá	701	Sololá	3	Barraneche	2	Febrero	2023-02-21T00:00:00	2024-11-06T23:00:00	6	Velocidad del viento	6.4
9982	7	Sololá	701	Sololá	3	Barraneche	2	Febrero	2023-02-21T00:00:00	2024-11-06T23:00:00	7	Dirección del viento	6.44
9983	7	Sololá	701	Sololá	3	Barraneche	2	Febrero	2023-02-21T00:00:00	2024-11-06T23:00:00	1	Precipitación	0
9984	7	Sololá	701	Sololá	3	Barraneche	2	Febrero	2023-02-21T00:00:00	2024-11-06T23:00:00	8	Radiación solar	0
9985	7	Sololá	701	Sololá	3	Barraneche	2	Febrero	2023-02-22T00:00:00	2024-11-06T00:00:00	2	Temperatura media	11.3
9986	7	Sololá	701	Sololá	3	Barraneche	2	Febrero	2023-02-22T00:00:00	2024-11-06T00:00:00	4	Temperatura máxima	11.3
9987	7	Sololá	701	Sololá	3	Barraneche	2	Febrero	2023-02-22T00:00:00	2024-11-06T00:00:00	3	Temperatura mínima	10.7
9988	7	Sololá	701	Sololá	3	Barraneche	2	Febrero	2023-02-22T00:00:00	2024-11-06T00:00:00	5	Humedad	70
9989	7	Sololá	701	Sololá	3	Barraneche	2	Febrero	2023-02-22T00:00:00	2024-11-06T00:00:00	6	Velocidad del viento	4.8
9990	7	Sololá	701	Sololá	3	Barraneche	2	Febrero	2023-02-22T00:00:00	2024-11-06T00:00:00	7	Dirección del viento	4.83
9991	7	Sololá	701	Sololá	3	Barraneche	2	Febrero	2023-02-22T00:00:00	2024-11-06T00:00:00	1	Precipitación	0
9992	7	Sololá	701	Sololá	3	Barraneche	2	Febrero	2023-02-22T00:00:00	2024-11-06T00:00:00	8	Radiación solar	0
9993	7	Sololá	701	Sololá	3	Barraneche	2	Febrero	2023-02-22T00:00:00	2024-11-06T01:00:00	2	Temperatura media	11.3
9994	7	Sololá	701	Sololá	3	Barraneche	2	Febrero	2023-02-22T00:00:00	2024-11-06T01:00:00	4	Temperatura máxima	11.8
9995	7	Sololá	701	Sololá	3	Barraneche	2	Febrero	2023-02-22T00:00:00	2024-11-06T01:00:00	3	Temperatura mínima	11.3
9996	7	Sololá	701	Sololá	3	Barraneche	2	Febrero	2023-02-22T00:00:00	2024-11-06T01:00:00	5	Humedad	71
9997	7	Sololá	701	Sololá	3	Barraneche	2	Febrero	2023-02-22T00:00:00	2024-11-06T01:00:00	6	Velocidad del viento	3.2
9998	7	Sololá	701	Sololá	3	Barraneche	2	Febrero	2023-02-22T00:00:00	2024-11-06T01:00:00	7	Dirección del viento	3.22
9999	7	Sololá	701	Sololá	3	Barraneche	2	Febrero	2023-02-22T00:00:00	2024-11-06T01:00:00	1	Precipitación	0
10000	7	Sololá	701	Sololá	3	Barraneche	2	Febrero	2023-02-22T00:00:00	2024-11-06T01:00:00	8	Radiación solar	0
10001	7	Sololá	701	Sololá	3	Barraneche	2	Febrero	2023-02-22T00:00:00	2024-11-06T02:00:00	2	Temperatura media	11.2
10002	7	Sololá	701	Sololá	3	Barraneche	2	Febrero	2023-02-22T00:00:00	2024-11-06T02:00:00	4	Temperatura máxima	11.3
10003	7	Sololá	701	Sololá	3	Barraneche	2	Febrero	2023-02-22T00:00:00	2024-11-06T02:00:00	3	Temperatura mínima	10.9
10004	7	Sololá	701	Sololá	3	Barraneche	2	Febrero	2023-02-22T00:00:00	2024-11-06T02:00:00	5	Humedad	73
10005	7	Sololá	701	Sololá	3	Barraneche	2	Febrero	2023-02-22T00:00:00	2024-11-06T02:00:00	6	Velocidad del viento	4.8
10006	7	Sololá	701	Sololá	3	Barraneche	2	Febrero	2023-02-22T00:00:00	2024-11-06T02:00:00	7	Dirección del viento	4.83
10007	7	Sololá	701	Sololá	3	Barraneche	2	Febrero	2023-02-22T00:00:00	2024-11-06T02:00:00	1	Precipitación	0
10008	7	Sololá	701	Sololá	3	Barraneche	2	Febrero	2023-02-22T00:00:00	2024-11-06T02:00:00	8	Radiación solar	0
10009	7	Sololá	701	Sololá	3	Barraneche	2	Febrero	2023-02-22T00:00:00	2024-11-06T03:00:00	2	Temperatura media	11
10010	7	Sololá	701	Sololá	3	Barraneche	2	Febrero	2023-02-22T00:00:00	2024-11-06T03:00:00	4	Temperatura máxima	11.9
10011	7	Sololá	701	Sololá	3	Barraneche	2	Febrero	2023-02-22T00:00:00	2024-11-06T03:00:00	3	Temperatura mínima	11
10012	7	Sololá	701	Sololá	3	Barraneche	2	Febrero	2023-02-22T00:00:00	2024-11-06T03:00:00	5	Humedad	71
10013	7	Sololá	701	Sololá	3	Barraneche	2	Febrero	2023-02-22T00:00:00	2024-11-06T03:00:00	6	Velocidad del viento	1.6
10014	7	Sololá	701	Sololá	3	Barraneche	2	Febrero	2023-02-22T00:00:00	2024-11-06T03:00:00	7	Dirección del viento	1.61
10015	7	Sololá	701	Sololá	3	Barraneche	2	Febrero	2023-02-22T00:00:00	2024-11-06T03:00:00	1	Precipitación	0
10016	7	Sololá	701	Sololá	3	Barraneche	2	Febrero	2023-02-22T00:00:00	2024-11-06T03:00:00	8	Radiación solar	0
10017	7	Sololá	701	Sololá	3	Barraneche	2	Febrero	2023-02-22T00:00:00	2024-11-06T04:00:00	2	Temperatura media	11
10018	7	Sololá	701	Sololá	3	Barraneche	2	Febrero	2023-02-22T00:00:00	2024-11-06T04:00:00	4	Temperatura máxima	11.3
10019	7	Sololá	701	Sololá	3	Barraneche	2	Febrero	2023-02-22T00:00:00	2024-11-06T04:00:00	3	Temperatura mínima	11
10020	7	Sololá	701	Sololá	3	Barraneche	2	Febrero	2023-02-22T00:00:00	2024-11-06T04:00:00	5	Humedad	71
10021	7	Sololá	701	Sololá	3	Barraneche	2	Febrero	2023-02-22T00:00:00	2024-11-06T04:00:00	6	Velocidad del viento	1.6
10022	7	Sololá	701	Sololá	3	Barraneche	2	Febrero	2023-02-22T00:00:00	2024-11-06T04:00:00	7	Dirección del viento	1.61
10023	7	Sololá	701	Sololá	3	Barraneche	2	Febrero	2023-02-22T00:00:00	2024-11-06T04:00:00	1	Precipitación	0
10024	7	Sololá	701	Sololá	3	Barraneche	2	Febrero	2023-02-22T00:00:00	2024-11-06T04:00:00	8	Radiación solar	0
10025	7	Sololá	701	Sololá	3	Barraneche	2	Febrero	2023-02-22T00:00:00	2024-11-06T05:00:00	2	Temperatura media	10.6
10026	7	Sololá	701	Sololá	3	Barraneche	2	Febrero	2023-02-22T00:00:00	2024-11-06T05:00:00	4	Temperatura máxima	11
10027	7	Sololá	701	Sololá	3	Barraneche	2	Febrero	2023-02-22T00:00:00	2024-11-06T05:00:00	3	Temperatura mínima	10.3
10028	7	Sololá	701	Sololá	3	Barraneche	2	Febrero	2023-02-22T00:00:00	2024-11-06T05:00:00	5	Humedad	73
10029	7	Sololá	701	Sololá	3	Barraneche	2	Febrero	2023-02-22T00:00:00	2024-11-06T05:00:00	6	Velocidad del viento	1.6
10030	7	Sololá	701	Sololá	3	Barraneche	2	Febrero	2023-02-22T00:00:00	2024-11-06T05:00:00	7	Dirección del viento	1.61
10031	7	Sololá	701	Sololá	3	Barraneche	2	Febrero	2023-02-22T00:00:00	2024-11-06T05:00:00	1	Precipitación	0
10032	7	Sololá	701	Sololá	3	Barraneche	2	Febrero	2023-02-22T00:00:00	2024-11-06T05:00:00	8	Radiación solar	0
10033	7	Sololá	701	Sololá	3	Barraneche	2	Febrero	2023-02-22T00:00:00	2024-11-06T06:00:00	2	Temperatura media	10.8
10034	7	Sololá	701	Sololá	3	Barraneche	2	Febrero	2023-02-22T00:00:00	2024-11-06T06:00:00	4	Temperatura máxima	11.1
10035	7	Sololá	701	Sololá	3	Barraneche	2	Febrero	2023-02-22T00:00:00	2024-11-06T06:00:00	3	Temperatura mínima	10.6
10036	7	Sololá	701	Sololá	3	Barraneche	2	Febrero	2023-02-22T00:00:00	2024-11-06T06:00:00	5	Humedad	73
10037	7	Sololá	701	Sololá	3	Barraneche	2	Febrero	2023-02-22T00:00:00	2024-11-06T06:00:00	6	Velocidad del viento	1.6
10038	7	Sololá	701	Sololá	3	Barraneche	2	Febrero	2023-02-22T00:00:00	2024-11-06T06:00:00	7	Dirección del viento	1.61
10039	7	Sololá	701	Sololá	3	Barraneche	2	Febrero	2023-02-22T00:00:00	2024-11-06T06:00:00	1	Precipitación	0
10040	7	Sololá	701	Sololá	3	Barraneche	2	Febrero	2023-02-22T00:00:00	2024-11-06T06:00:00	8	Radiación solar	0
10041	7	Sololá	701	Sololá	3	Barraneche	2	Febrero	2023-02-22T00:00:00	2024-11-06T07:00:00	2	Temperatura media	11.3
10042	7	Sololá	701	Sololá	3	Barraneche	2	Febrero	2023-02-22T00:00:00	2024-11-06T07:00:00	4	Temperatura máxima	11.3
10043	7	Sololá	701	Sololá	3	Barraneche	2	Febrero	2023-02-22T00:00:00	2024-11-06T07:00:00	3	Temperatura mínima	10.4
10044	7	Sololá	701	Sololá	3	Barraneche	2	Febrero	2023-02-22T00:00:00	2024-11-06T07:00:00	5	Humedad	72
10045	7	Sololá	701	Sololá	3	Barraneche	2	Febrero	2023-02-22T00:00:00	2024-11-06T07:00:00	6	Velocidad del viento	1.6
10046	7	Sololá	701	Sololá	3	Barraneche	2	Febrero	2023-02-22T00:00:00	2024-11-06T07:00:00	7	Dirección del viento	1.61
10047	7	Sololá	701	Sololá	3	Barraneche	2	Febrero	2023-02-22T00:00:00	2024-11-06T07:00:00	1	Precipitación	0
10048	7	Sololá	701	Sololá	3	Barraneche	2	Febrero	2023-02-22T00:00:00	2024-11-06T07:00:00	8	Radiación solar	28
10049	7	Sololá	701	Sololá	3	Barraneche	2	Febrero	2023-02-22T00:00:00	2024-11-06T08:00:00	2	Temperatura media	14
10050	7	Sololá	701	Sololá	3	Barraneche	2	Febrero	2023-02-22T00:00:00	2024-11-06T08:00:00	4	Temperatura máxima	14.1
10051	7	Sololá	701	Sololá	3	Barraneche	2	Febrero	2023-02-22T00:00:00	2024-11-06T08:00:00	3	Temperatura mínima	11.3
10052	7	Sololá	701	Sololá	3	Barraneche	2	Febrero	2023-02-22T00:00:00	2024-11-06T08:00:00	5	Humedad	65
10053	7	Sololá	701	Sololá	3	Barraneche	2	Febrero	2023-02-22T00:00:00	2024-11-06T08:00:00	6	Velocidad del viento	1.6
10054	7	Sololá	701	Sololá	3	Barraneche	2	Febrero	2023-02-22T00:00:00	2024-11-06T08:00:00	7	Dirección del viento	1.61
10055	7	Sololá	701	Sololá	3	Barraneche	2	Febrero	2023-02-22T00:00:00	2024-11-06T08:00:00	1	Precipitación	0
10056	7	Sololá	701	Sololá	3	Barraneche	2	Febrero	2023-02-22T00:00:00	2024-11-06T08:00:00	8	Radiación solar	170
10057	7	Sololá	701	Sololá	3	Barraneche	2	Febrero	2023-02-22T00:00:00	2024-11-06T09:00:00	2	Temperatura media	14.9
10058	7	Sololá	701	Sololá	3	Barraneche	2	Febrero	2023-02-22T00:00:00	2024-11-06T09:00:00	4	Temperatura máxima	14.9
10059	7	Sololá	701	Sololá	3	Barraneche	2	Febrero	2023-02-22T00:00:00	2024-11-06T09:00:00	3	Temperatura mínima	13.6
10060	7	Sololá	701	Sololá	3	Barraneche	2	Febrero	2023-02-22T00:00:00	2024-11-06T09:00:00	5	Humedad	55
10061	7	Sololá	701	Sololá	3	Barraneche	2	Febrero	2023-02-22T00:00:00	2024-11-06T09:00:00	6	Velocidad del viento	4.8
10062	7	Sololá	701	Sololá	3	Barraneche	2	Febrero	2023-02-22T00:00:00	2024-11-06T09:00:00	7	Dirección del viento	4.83
10063	7	Sololá	701	Sololá	3	Barraneche	2	Febrero	2023-02-22T00:00:00	2024-11-06T09:00:00	1	Precipitación	0
10064	7	Sololá	701	Sololá	3	Barraneche	2	Febrero	2023-02-22T00:00:00	2024-11-06T09:00:00	8	Radiación solar	421
10065	7	Sololá	701	Sololá	3	Barraneche	2	Febrero	2023-02-22T00:00:00	2024-11-06T10:00:00	2	Temperatura media	15.7
10066	7	Sololá	701	Sololá	3	Barraneche	2	Febrero	2023-02-22T00:00:00	2024-11-06T10:00:00	4	Temperatura máxima	15.8
10067	7	Sololá	701	Sololá	3	Barraneche	2	Febrero	2023-02-22T00:00:00	2024-11-06T10:00:00	3	Temperatura mínima	14.9
10068	7	Sololá	701	Sololá	3	Barraneche	2	Febrero	2023-02-22T00:00:00	2024-11-06T10:00:00	5	Humedad	52
10069	7	Sololá	701	Sololá	3	Barraneche	2	Febrero	2023-02-22T00:00:00	2024-11-06T10:00:00	6	Velocidad del viento	6.4
10070	7	Sololá	701	Sololá	3	Barraneche	2	Febrero	2023-02-22T00:00:00	2024-11-06T10:00:00	7	Dirección del viento	6.44
10071	7	Sololá	701	Sololá	3	Barraneche	2	Febrero	2023-02-22T00:00:00	2024-11-06T10:00:00	1	Precipitación	0
10072	7	Sololá	701	Sololá	3	Barraneche	2	Febrero	2023-02-22T00:00:00	2024-11-06T10:00:00	8	Radiación solar	585
10073	7	Sololá	701	Sololá	3	Barraneche	2	Febrero	2023-02-22T00:00:00	2024-11-06T11:00:00	2	Temperatura media	17.4
10074	7	Sololá	701	Sololá	3	Barraneche	2	Febrero	2023-02-22T00:00:00	2024-11-06T11:00:00	4	Temperatura máxima	17.6
10075	7	Sololá	701	Sololá	3	Barraneche	2	Febrero	2023-02-22T00:00:00	2024-11-06T11:00:00	3	Temperatura mínima	15.7
10076	7	Sololá	701	Sololá	3	Barraneche	2	Febrero	2023-02-22T00:00:00	2024-11-06T11:00:00	5	Humedad	46
10077	7	Sololá	701	Sololá	3	Barraneche	2	Febrero	2023-02-22T00:00:00	2024-11-06T11:00:00	6	Velocidad del viento	9.7
10078	7	Sololá	701	Sololá	3	Barraneche	2	Febrero	2023-02-22T00:00:00	2024-11-06T11:00:00	7	Dirección del viento	9.66
10079	7	Sololá	701	Sololá	3	Barraneche	2	Febrero	2023-02-22T00:00:00	2024-11-06T11:00:00	1	Precipitación	0
10080	7	Sololá	701	Sololá	3	Barraneche	2	Febrero	2023-02-22T00:00:00	2024-11-06T11:00:00	8	Radiación solar	875
10081	7	Sololá	701	Sololá	3	Barraneche	2	Febrero	2023-02-22T00:00:00	2024-11-06T12:00:00	2	Temperatura media	17.6
10082	7	Sololá	701	Sololá	3	Barraneche	2	Febrero	2023-02-22T00:00:00	2024-11-06T12:00:00	4	Temperatura máxima	17.9
10083	7	Sololá	701	Sololá	3	Barraneche	2	Febrero	2023-02-22T00:00:00	2024-11-06T12:00:00	3	Temperatura mínima	17.3
10084	7	Sololá	701	Sololá	3	Barraneche	2	Febrero	2023-02-22T00:00:00	2024-11-06T12:00:00	5	Humedad	47
10085	7	Sololá	701	Sololá	3	Barraneche	2	Febrero	2023-02-22T00:00:00	2024-11-06T12:00:00	6	Velocidad del viento	12.9
10086	7	Sololá	701	Sololá	3	Barraneche	2	Febrero	2023-02-22T00:00:00	2024-11-06T12:00:00	7	Dirección del viento	12.87
10087	7	Sololá	701	Sololá	3	Barraneche	2	Febrero	2023-02-22T00:00:00	2024-11-06T12:00:00	1	Precipitación	0
10088	7	Sololá	701	Sololá	3	Barraneche	2	Febrero	2023-02-22T00:00:00	2024-11-06T12:00:00	8	Radiación solar	1049
10089	7	Sololá	701	Sololá	3	Barraneche	2	Febrero	2023-02-22T00:00:00	2024-11-06T13:00:00	2	Temperatura media	17.9
10090	7	Sololá	701	Sololá	3	Barraneche	2	Febrero	2023-02-22T00:00:00	2024-11-06T13:00:00	4	Temperatura máxima	18.3
10091	7	Sololá	701	Sololá	3	Barraneche	2	Febrero	2023-02-22T00:00:00	2024-11-06T13:00:00	3	Temperatura mínima	17.6
10092	7	Sololá	701	Sololá	3	Barraneche	2	Febrero	2023-02-22T00:00:00	2024-11-06T13:00:00	5	Humedad	48
10093	7	Sololá	701	Sololá	3	Barraneche	2	Febrero	2023-02-22T00:00:00	2024-11-06T13:00:00	6	Velocidad del viento	12.9
10094	7	Sololá	701	Sololá	3	Barraneche	2	Febrero	2023-02-22T00:00:00	2024-11-06T13:00:00	7	Dirección del viento	12.87
10095	7	Sololá	701	Sololá	3	Barraneche	2	Febrero	2023-02-22T00:00:00	2024-11-06T13:00:00	1	Precipitación	0
10096	7	Sololá	701	Sololá	3	Barraneche	2	Febrero	2023-02-22T00:00:00	2024-11-06T13:00:00	8	Radiación solar	1026
10097	7	Sololá	701	Sololá	3	Barraneche	2	Febrero	2023-02-22T00:00:00	2024-11-06T14:00:00	2	Temperatura media	17.7
10098	7	Sololá	701	Sololá	3	Barraneche	2	Febrero	2023-02-22T00:00:00	2024-11-06T14:00:00	4	Temperatura máxima	18.7
10099	7	Sololá	701	Sololá	3	Barraneche	2	Febrero	2023-02-22T00:00:00	2024-11-06T14:00:00	3	Temperatura mínima	17.7
10100	7	Sololá	701	Sololá	3	Barraneche	2	Febrero	2023-02-22T00:00:00	2024-11-06T14:00:00	5	Humedad	54
10101	7	Sololá	701	Sololá	3	Barraneche	2	Febrero	2023-02-22T00:00:00	2024-11-06T14:00:00	6	Velocidad del viento	14.5
10102	7	Sololá	701	Sololá	3	Barraneche	2	Febrero	2023-02-22T00:00:00	2024-11-06T14:00:00	7	Dirección del viento	14.48
10103	7	Sololá	701	Sololá	3	Barraneche	2	Febrero	2023-02-22T00:00:00	2024-11-06T14:00:00	1	Precipitación	0
10104	7	Sololá	701	Sololá	3	Barraneche	2	Febrero	2023-02-22T00:00:00	2024-11-06T14:00:00	8	Radiación solar	991
10105	7	Sololá	701	Sololá	3	Barraneche	2	Febrero	2023-02-22T00:00:00	2024-11-06T15:00:00	2	Temperatura media	17.7
10106	7	Sololá	701	Sololá	3	Barraneche	2	Febrero	2023-02-22T00:00:00	2024-11-06T15:00:00	4	Temperatura máxima	18
10107	7	Sololá	701	Sololá	3	Barraneche	2	Febrero	2023-02-22T00:00:00	2024-11-06T15:00:00	3	Temperatura mínima	17.4
10108	7	Sololá	701	Sololá	3	Barraneche	2	Febrero	2023-02-22T00:00:00	2024-11-06T15:00:00	5	Humedad	56
10109	7	Sololá	701	Sololá	3	Barraneche	2	Febrero	2023-02-22T00:00:00	2024-11-06T15:00:00	6	Velocidad del viento	16.1
10110	7	Sololá	701	Sololá	3	Barraneche	2	Febrero	2023-02-22T00:00:00	2024-11-06T15:00:00	7	Dirección del viento	16.09
10111	7	Sololá	701	Sololá	3	Barraneche	2	Febrero	2023-02-22T00:00:00	2024-11-06T15:00:00	1	Precipitación	0
10112	7	Sololá	701	Sololá	3	Barraneche	2	Febrero	2023-02-22T00:00:00	2024-11-06T15:00:00	8	Radiación solar	896
10113	7	Sololá	701	Sololá	3	Barraneche	2	Febrero	2023-02-22T00:00:00	2024-11-06T16:00:00	2	Temperatura media	15.9
10114	7	Sololá	701	Sololá	3	Barraneche	2	Febrero	2023-02-22T00:00:00	2024-11-06T16:00:00	4	Temperatura máxima	17.9
10115	7	Sololá	701	Sololá	3	Barraneche	2	Febrero	2023-02-22T00:00:00	2024-11-06T16:00:00	3	Temperatura mínima	15.8
10116	7	Sololá	701	Sololá	3	Barraneche	2	Febrero	2023-02-22T00:00:00	2024-11-06T16:00:00	5	Humedad	63
10117	7	Sololá	701	Sololá	3	Barraneche	2	Febrero	2023-02-22T00:00:00	2024-11-06T16:00:00	6	Velocidad del viento	14.5
10118	7	Sololá	701	Sololá	3	Barraneche	2	Febrero	2023-02-22T00:00:00	2024-11-06T16:00:00	7	Dirección del viento	14.48
10119	7	Sololá	701	Sololá	3	Barraneche	2	Febrero	2023-02-22T00:00:00	2024-11-06T16:00:00	1	Precipitación	0
10120	7	Sololá	701	Sololá	3	Barraneche	2	Febrero	2023-02-22T00:00:00	2024-11-06T16:00:00	8	Radiación solar	664
10121	7	Sololá	701	Sololá	3	Barraneche	2	Febrero	2023-02-22T00:00:00	2024-11-06T17:00:00	2	Temperatura media	14.7
10122	7	Sololá	701	Sololá	3	Barraneche	2	Febrero	2023-02-22T00:00:00	2024-11-06T17:00:00	4	Temperatura máxima	15.9
10123	7	Sololá	701	Sololá	3	Barraneche	2	Febrero	2023-02-22T00:00:00	2024-11-06T17:00:00	3	Temperatura mínima	14.7
10124	7	Sololá	701	Sololá	3	Barraneche	2	Febrero	2023-02-22T00:00:00	2024-11-06T17:00:00	5	Humedad	67
10125	7	Sololá	701	Sololá	3	Barraneche	2	Febrero	2023-02-22T00:00:00	2024-11-06T17:00:00	6	Velocidad del viento	11.3
10126	7	Sololá	701	Sololá	3	Barraneche	2	Febrero	2023-02-22T00:00:00	2024-11-06T17:00:00	7	Dirección del viento	11.27
10127	7	Sololá	701	Sololá	3	Barraneche	2	Febrero	2023-02-22T00:00:00	2024-11-06T17:00:00	1	Precipitación	0
10128	7	Sololá	701	Sololá	3	Barraneche	2	Febrero	2023-02-22T00:00:00	2024-11-06T17:00:00	8	Radiación solar	232
10129	7	Sololá	701	Sololá	3	Barraneche	2	Febrero	2023-02-22T00:00:00	2024-11-06T18:00:00	2	Temperatura media	14
10130	7	Sololá	701	Sololá	3	Barraneche	2	Febrero	2023-02-22T00:00:00	2024-11-06T18:00:00	4	Temperatura máxima	14.7
10131	7	Sololá	701	Sololá	3	Barraneche	2	Febrero	2023-02-22T00:00:00	2024-11-06T18:00:00	3	Temperatura mínima	14
10132	7	Sololá	701	Sololá	3	Barraneche	2	Febrero	2023-02-22T00:00:00	2024-11-06T18:00:00	5	Humedad	70
10133	7	Sololá	701	Sololá	3	Barraneche	2	Febrero	2023-02-22T00:00:00	2024-11-06T18:00:00	6	Velocidad del viento	6.4
10134	7	Sololá	701	Sololá	3	Barraneche	2	Febrero	2023-02-22T00:00:00	2024-11-06T18:00:00	7	Dirección del viento	6.44
10135	7	Sololá	701	Sololá	3	Barraneche	2	Febrero	2023-02-22T00:00:00	2024-11-06T18:00:00	1	Precipitación	0
10136	7	Sololá	701	Sololá	3	Barraneche	2	Febrero	2023-02-22T00:00:00	2024-11-06T18:00:00	8	Radiación solar	64
10137	7	Sololá	701	Sololá	3	Barraneche	2	Febrero	2023-02-22T00:00:00	2024-11-06T19:00:00	2	Temperatura media	13.2
10138	7	Sololá	701	Sololá	3	Barraneche	2	Febrero	2023-02-22T00:00:00	2024-11-06T19:00:00	4	Temperatura máxima	14
10139	7	Sololá	701	Sololá	3	Barraneche	2	Febrero	2023-02-22T00:00:00	2024-11-06T19:00:00	3	Temperatura mínima	13.2
10140	7	Sololá	701	Sololá	3	Barraneche	2	Febrero	2023-02-22T00:00:00	2024-11-06T19:00:00	5	Humedad	70
10141	7	Sololá	701	Sololá	3	Barraneche	2	Febrero	2023-02-22T00:00:00	2024-11-06T19:00:00	6	Velocidad del viento	3.2
10142	7	Sololá	701	Sololá	3	Barraneche	2	Febrero	2023-02-22T00:00:00	2024-11-06T19:00:00	7	Dirección del viento	3.22
10143	7	Sololá	701	Sololá	3	Barraneche	2	Febrero	2023-02-22T00:00:00	2024-11-06T19:00:00	1	Precipitación	0
10144	7	Sololá	701	Sololá	3	Barraneche	2	Febrero	2023-02-22T00:00:00	2024-11-06T19:00:00	8	Radiación solar	0
10145	7	Sololá	701	Sololá	3	Barraneche	2	Febrero	2023-02-22T00:00:00	2024-11-06T20:00:00	2	Temperatura media	12.5
10146	7	Sololá	701	Sololá	3	Barraneche	2	Febrero	2023-02-22T00:00:00	2024-11-06T20:00:00	4	Temperatura máxima	13.2
10147	7	Sololá	701	Sololá	3	Barraneche	2	Febrero	2023-02-22T00:00:00	2024-11-06T20:00:00	3	Temperatura mínima	12.4
10148	7	Sololá	701	Sololá	3	Barraneche	2	Febrero	2023-02-22T00:00:00	2024-11-06T20:00:00	5	Humedad	69
10149	7	Sololá	701	Sololá	3	Barraneche	2	Febrero	2023-02-22T00:00:00	2024-11-06T20:00:00	6	Velocidad del viento	6.4
10150	7	Sololá	701	Sololá	3	Barraneche	2	Febrero	2023-02-22T00:00:00	2024-11-06T20:00:00	7	Dirección del viento	6.44
10151	7	Sololá	701	Sololá	3	Barraneche	2	Febrero	2023-02-22T00:00:00	2024-11-06T20:00:00	1	Precipitación	0
10152	7	Sololá	701	Sololá	3	Barraneche	2	Febrero	2023-02-22T00:00:00	2024-11-06T20:00:00	8	Radiación solar	0
10153	7	Sololá	701	Sololá	3	Barraneche	2	Febrero	2023-02-22T00:00:00	2024-11-06T21:00:00	2	Temperatura media	10.9
10154	7	Sololá	701	Sololá	3	Barraneche	2	Febrero	2023-02-22T00:00:00	2024-11-06T21:00:00	4	Temperatura máxima	12.5
10155	7	Sololá	701	Sololá	3	Barraneche	2	Febrero	2023-02-22T00:00:00	2024-11-06T21:00:00	3	Temperatura mínima	10.9
10156	7	Sololá	701	Sololá	3	Barraneche	2	Febrero	2023-02-22T00:00:00	2024-11-06T21:00:00	5	Humedad	67
10157	7	Sololá	701	Sololá	3	Barraneche	2	Febrero	2023-02-22T00:00:00	2024-11-06T21:00:00	6	Velocidad del viento	3.2
10158	7	Sololá	701	Sololá	3	Barraneche	2	Febrero	2023-02-22T00:00:00	2024-11-06T21:00:00	7	Dirección del viento	3.22
10159	7	Sololá	701	Sololá	3	Barraneche	2	Febrero	2023-02-22T00:00:00	2024-11-06T21:00:00	1	Precipitación	0
10160	7	Sololá	701	Sololá	3	Barraneche	2	Febrero	2023-02-22T00:00:00	2024-11-06T21:00:00	8	Radiación solar	0
10161	7	Sololá	701	Sololá	3	Barraneche	2	Febrero	2023-02-22T00:00:00	2024-11-06T22:00:00	2	Temperatura media	11.2
10162	7	Sololá	701	Sololá	3	Barraneche	2	Febrero	2023-02-22T00:00:00	2024-11-06T22:00:00	4	Temperatura máxima	11.3
10163	7	Sololá	701	Sololá	3	Barraneche	2	Febrero	2023-02-22T00:00:00	2024-11-06T22:00:00	3	Temperatura mínima	10.9
10164	7	Sololá	701	Sololá	3	Barraneche	2	Febrero	2023-02-22T00:00:00	2024-11-06T22:00:00	5	Humedad	67
10165	7	Sololá	701	Sololá	3	Barraneche	2	Febrero	2023-02-22T00:00:00	2024-11-06T22:00:00	6	Velocidad del viento	4.8
10166	7	Sololá	701	Sololá	3	Barraneche	2	Febrero	2023-02-22T00:00:00	2024-11-06T22:00:00	7	Dirección del viento	4.83
10167	7	Sololá	701	Sololá	3	Barraneche	2	Febrero	2023-02-22T00:00:00	2024-11-06T22:00:00	1	Precipitación	0
10168	7	Sololá	701	Sololá	3	Barraneche	2	Febrero	2023-02-22T00:00:00	2024-11-06T22:00:00	8	Radiación solar	0
10169	7	Sololá	701	Sololá	3	Barraneche	2	Febrero	2023-02-22T00:00:00	2024-11-06T23:00:00	2	Temperatura media	11
10170	7	Sololá	701	Sololá	3	Barraneche	2	Febrero	2023-02-22T00:00:00	2024-11-06T23:00:00	4	Temperatura máxima	11.7
10171	7	Sololá	701	Sololá	3	Barraneche	2	Febrero	2023-02-22T00:00:00	2024-11-06T23:00:00	3	Temperatura mínima	10.9
10172	7	Sololá	701	Sololá	3	Barraneche	2	Febrero	2023-02-22T00:00:00	2024-11-06T23:00:00	5	Humedad	69
10173	7	Sololá	701	Sololá	3	Barraneche	2	Febrero	2023-02-22T00:00:00	2024-11-06T23:00:00	6	Velocidad del viento	3.2
10174	7	Sololá	701	Sololá	3	Barraneche	2	Febrero	2023-02-22T00:00:00	2024-11-06T23:00:00	7	Dirección del viento	3.22
10175	7	Sololá	701	Sololá	3	Barraneche	2	Febrero	2023-02-22T00:00:00	2024-11-06T23:00:00	1	Precipitación	0
10176	7	Sololá	701	Sololá	3	Barraneche	2	Febrero	2023-02-22T00:00:00	2024-11-06T23:00:00	8	Radiación solar	0
10177	7	Sololá	701	Sololá	3	Barraneche	2	Febrero	2023-02-23T00:00:00	2024-11-06T00:00:00	2	Temperatura media	10.6
10178	7	Sololá	701	Sololá	3	Barraneche	2	Febrero	2023-02-23T00:00:00	2024-11-06T00:00:00	4	Temperatura máxima	11.6
10179	7	Sololá	701	Sololá	3	Barraneche	2	Febrero	2023-02-23T00:00:00	2024-11-06T00:00:00	3	Temperatura mínima	10.6
10180	7	Sololá	701	Sololá	3	Barraneche	2	Febrero	2023-02-23T00:00:00	2024-11-06T00:00:00	5	Humedad	70
10181	7	Sololá	701	Sololá	3	Barraneche	2	Febrero	2023-02-23T00:00:00	2024-11-06T00:00:00	6	Velocidad del viento	1.6
10182	7	Sololá	701	Sololá	3	Barraneche	2	Febrero	2023-02-23T00:00:00	2024-11-06T00:00:00	7	Dirección del viento	1.61
10183	7	Sololá	701	Sololá	3	Barraneche	2	Febrero	2023-02-23T00:00:00	2024-11-06T00:00:00	1	Precipitación	0
10184	7	Sololá	701	Sololá	3	Barraneche	2	Febrero	2023-02-23T00:00:00	2024-11-06T00:00:00	8	Radiación solar	0
10185	7	Sololá	701	Sololá	3	Barraneche	2	Febrero	2023-02-23T00:00:00	2024-11-06T01:00:00	2	Temperatura media	10.8
10186	7	Sololá	701	Sololá	3	Barraneche	2	Febrero	2023-02-23T00:00:00	2024-11-06T01:00:00	4	Temperatura máxima	10.8
10187	7	Sololá	701	Sololá	3	Barraneche	2	Febrero	2023-02-23T00:00:00	2024-11-06T01:00:00	3	Temperatura mínima	10.6
10188	7	Sololá	701	Sololá	3	Barraneche	2	Febrero	2023-02-23T00:00:00	2024-11-06T01:00:00	5	Humedad	70
10189	7	Sololá	701	Sololá	3	Barraneche	2	Febrero	2023-02-23T00:00:00	2024-11-06T01:00:00	6	Velocidad del viento	1.6
10190	7	Sololá	701	Sololá	3	Barraneche	2	Febrero	2023-02-23T00:00:00	2024-11-06T01:00:00	7	Dirección del viento	1.61
10191	7	Sololá	701	Sololá	3	Barraneche	2	Febrero	2023-02-23T00:00:00	2024-11-06T01:00:00	1	Precipitación	0
10192	7	Sololá	701	Sololá	3	Barraneche	2	Febrero	2023-02-23T00:00:00	2024-11-06T01:00:00	8	Radiación solar	0
10193	7	Sololá	701	Sololá	3	Barraneche	2	Febrero	2023-02-23T00:00:00	2024-11-06T02:00:00	2	Temperatura media	10.9
10194	7	Sololá	701	Sololá	3	Barraneche	2	Febrero	2023-02-23T00:00:00	2024-11-06T02:00:00	4	Temperatura máxima	11.1
10195	7	Sololá	701	Sololá	3	Barraneche	2	Febrero	2023-02-23T00:00:00	2024-11-06T02:00:00	3	Temperatura mínima	10.7
10196	7	Sololá	701	Sololá	3	Barraneche	2	Febrero	2023-02-23T00:00:00	2024-11-06T02:00:00	5	Humedad	71
10197	7	Sololá	701	Sololá	3	Barraneche	2	Febrero	2023-02-23T00:00:00	2024-11-06T02:00:00	6	Velocidad del viento	1.6
10198	7	Sololá	701	Sololá	3	Barraneche	2	Febrero	2023-02-23T00:00:00	2024-11-06T02:00:00	7	Dirección del viento	1.61
10199	7	Sololá	701	Sololá	3	Barraneche	2	Febrero	2023-02-23T00:00:00	2024-11-06T02:00:00	1	Precipitación	0
10200	7	Sololá	701	Sololá	3	Barraneche	2	Febrero	2023-02-23T00:00:00	2024-11-06T02:00:00	8	Radiación solar	0
10201	7	Sololá	701	Sololá	3	Barraneche	2	Febrero	2023-02-23T00:00:00	2024-11-06T03:00:00	2	Temperatura media	10.4
10202	7	Sololá	701	Sololá	3	Barraneche	2	Febrero	2023-02-23T00:00:00	2024-11-06T03:00:00	4	Temperatura máxima	11
10203	7	Sololá	701	Sololá	3	Barraneche	2	Febrero	2023-02-23T00:00:00	2024-11-06T03:00:00	3	Temperatura mínima	10.4
10204	7	Sololá	701	Sololá	3	Barraneche	2	Febrero	2023-02-23T00:00:00	2024-11-06T03:00:00	5	Humedad	67
10205	7	Sololá	701	Sololá	3	Barraneche	2	Febrero	2023-02-23T00:00:00	2024-11-06T03:00:00	6	Velocidad del viento	4.8
10206	7	Sololá	701	Sololá	3	Barraneche	2	Febrero	2023-02-23T00:00:00	2024-11-06T03:00:00	7	Dirección del viento	4.83
10207	7	Sololá	701	Sololá	3	Barraneche	2	Febrero	2023-02-23T00:00:00	2024-11-06T03:00:00	1	Precipitación	0
10208	7	Sololá	701	Sololá	3	Barraneche	2	Febrero	2023-02-23T00:00:00	2024-11-06T03:00:00	8	Radiación solar	0
10209	7	Sololá	701	Sololá	3	Barraneche	2	Febrero	2023-02-23T00:00:00	2024-11-06T04:00:00	2	Temperatura media	8.9
10210	7	Sololá	701	Sololá	3	Barraneche	2	Febrero	2023-02-23T00:00:00	2024-11-06T04:00:00	4	Temperatura máxima	10.4
10211	7	Sololá	701	Sololá	3	Barraneche	2	Febrero	2023-02-23T00:00:00	2024-11-06T04:00:00	3	Temperatura mínima	8.8
10212	7	Sololá	701	Sololá	3	Barraneche	2	Febrero	2023-02-23T00:00:00	2024-11-06T04:00:00	5	Humedad	68
10213	7	Sololá	701	Sololá	3	Barraneche	2	Febrero	2023-02-23T00:00:00	2024-11-06T04:00:00	6	Velocidad del viento	4.8
10214	7	Sololá	701	Sololá	3	Barraneche	2	Febrero	2023-02-23T00:00:00	2024-11-06T04:00:00	7	Dirección del viento	4.83
10215	7	Sololá	701	Sololá	3	Barraneche	2	Febrero	2023-02-23T00:00:00	2024-11-06T04:00:00	1	Precipitación	0
10216	7	Sololá	701	Sololá	3	Barraneche	2	Febrero	2023-02-23T00:00:00	2024-11-06T04:00:00	8	Radiación solar	0
10217	7	Sololá	701	Sololá	3	Barraneche	2	Febrero	2023-02-23T00:00:00	2024-11-06T05:00:00	2	Temperatura media	8.7
10218	7	Sololá	701	Sololá	3	Barraneche	2	Febrero	2023-02-23T00:00:00	2024-11-06T05:00:00	4	Temperatura máxima	9.1
10219	7	Sololá	701	Sololá	3	Barraneche	2	Febrero	2023-02-23T00:00:00	2024-11-06T05:00:00	3	Temperatura mínima	8.5
10220	7	Sololá	701	Sololá	3	Barraneche	2	Febrero	2023-02-23T00:00:00	2024-11-06T05:00:00	5	Humedad	66
10221	7	Sololá	701	Sololá	3	Barraneche	2	Febrero	2023-02-23T00:00:00	2024-11-06T05:00:00	6	Velocidad del viento	8
10222	7	Sololá	701	Sololá	3	Barraneche	2	Febrero	2023-02-23T00:00:00	2024-11-06T05:00:00	7	Dirección del viento	8.05
10223	7	Sololá	701	Sololá	3	Barraneche	2	Febrero	2023-02-23T00:00:00	2024-11-06T05:00:00	1	Precipitación	0
10224	7	Sololá	701	Sololá	3	Barraneche	2	Febrero	2023-02-23T00:00:00	2024-11-06T05:00:00	8	Radiación solar	0
10225	7	Sololá	701	Sololá	3	Barraneche	2	Febrero	2023-02-23T00:00:00	2024-11-06T06:00:00	2	Temperatura media	7.8
10226	7	Sololá	701	Sololá	3	Barraneche	2	Febrero	2023-02-23T00:00:00	2024-11-06T06:00:00	4	Temperatura máxima	8.7
10227	7	Sololá	701	Sololá	3	Barraneche	2	Febrero	2023-02-23T00:00:00	2024-11-06T06:00:00	3	Temperatura mínima	7.8
10228	7	Sololá	701	Sololá	3	Barraneche	2	Febrero	2023-02-23T00:00:00	2024-11-06T06:00:00	5	Humedad	64
10229	7	Sololá	701	Sololá	3	Barraneche	2	Febrero	2023-02-23T00:00:00	2024-11-06T06:00:00	6	Velocidad del viento	6.4
10230	7	Sololá	701	Sololá	3	Barraneche	2	Febrero	2023-02-23T00:00:00	2024-11-06T06:00:00	7	Dirección del viento	6.44
10231	7	Sololá	701	Sololá	3	Barraneche	2	Febrero	2023-02-23T00:00:00	2024-11-06T06:00:00	1	Precipitación	0
10232	7	Sololá	701	Sololá	3	Barraneche	2	Febrero	2023-02-23T00:00:00	2024-11-06T06:00:00	8	Radiación solar	0
10233	7	Sololá	701	Sololá	3	Barraneche	2	Febrero	2023-02-23T00:00:00	2024-11-06T07:00:00	2	Temperatura media	6.4
10234	7	Sololá	701	Sololá	3	Barraneche	2	Febrero	2023-02-23T00:00:00	2024-11-06T07:00:00	4	Temperatura máxima	7.8
10235	7	Sololá	701	Sololá	3	Barraneche	2	Febrero	2023-02-23T00:00:00	2024-11-06T07:00:00	3	Temperatura mínima	6.4
10236	7	Sololá	701	Sololá	3	Barraneche	2	Febrero	2023-02-23T00:00:00	2024-11-06T07:00:00	5	Humedad	64
10237	7	Sololá	701	Sololá	3	Barraneche	2	Febrero	2023-02-23T00:00:00	2024-11-06T07:00:00	6	Velocidad del viento	6.4
10238	7	Sololá	701	Sololá	3	Barraneche	2	Febrero	2023-02-23T00:00:00	2024-11-06T07:00:00	7	Dirección del viento	6.44
10239	7	Sololá	701	Sololá	3	Barraneche	2	Febrero	2023-02-23T00:00:00	2024-11-06T07:00:00	1	Precipitación	0
10240	7	Sololá	701	Sololá	3	Barraneche	2	Febrero	2023-02-23T00:00:00	2024-11-06T07:00:00	8	Radiación solar	9
10241	7	Sololá	701	Sololá	3	Barraneche	2	Febrero	2023-02-23T00:00:00	2024-11-06T08:00:00	2	Temperatura media	10.7
10242	7	Sololá	701	Sololá	3	Barraneche	2	Febrero	2023-02-23T00:00:00	2024-11-06T08:00:00	4	Temperatura máxima	10.7
10243	7	Sololá	701	Sololá	3	Barraneche	2	Febrero	2023-02-23T00:00:00	2024-11-06T08:00:00	3	Temperatura mínima	6.4
10244	7	Sololá	701	Sololá	3	Barraneche	2	Febrero	2023-02-23T00:00:00	2024-11-06T08:00:00	5	Humedad	66
10245	7	Sololá	701	Sololá	3	Barraneche	2	Febrero	2023-02-23T00:00:00	2024-11-06T08:00:00	6	Velocidad del viento	3.2
10246	7	Sololá	701	Sololá	3	Barraneche	2	Febrero	2023-02-23T00:00:00	2024-11-06T08:00:00	7	Dirección del viento	3.22
10247	7	Sololá	701	Sololá	3	Barraneche	2	Febrero	2023-02-23T00:00:00	2024-11-06T08:00:00	1	Precipitación	0
10248	7	Sololá	701	Sololá	3	Barraneche	2	Febrero	2023-02-23T00:00:00	2024-11-06T08:00:00	8	Radiación solar	190
10249	7	Sololá	701	Sololá	3	Barraneche	2	Febrero	2023-02-23T00:00:00	2024-11-06T09:00:00	2	Temperatura media	13.6
10250	7	Sololá	701	Sololá	3	Barraneche	2	Febrero	2023-02-23T00:00:00	2024-11-06T09:00:00	4	Temperatura máxima	13.6
10251	7	Sololá	701	Sololá	3	Barraneche	2	Febrero	2023-02-23T00:00:00	2024-11-06T09:00:00	3	Temperatura mínima	10.7
10252	7	Sololá	701	Sololá	3	Barraneche	2	Febrero	2023-02-23T00:00:00	2024-11-06T09:00:00	5	Humedad	60
10253	7	Sololá	701	Sololá	3	Barraneche	2	Febrero	2023-02-23T00:00:00	2024-11-06T09:00:00	6	Velocidad del viento	3.2
10254	7	Sololá	701	Sololá	3	Barraneche	2	Febrero	2023-02-23T00:00:00	2024-11-06T09:00:00	7	Dirección del viento	3.22
10255	7	Sololá	701	Sololá	3	Barraneche	2	Febrero	2023-02-23T00:00:00	2024-11-06T09:00:00	1	Precipitación	0
10256	7	Sololá	701	Sololá	3	Barraneche	2	Febrero	2023-02-23T00:00:00	2024-11-06T09:00:00	8	Radiación solar	460
10257	7	Sololá	701	Sololá	3	Barraneche	2	Febrero	2023-02-23T00:00:00	2024-11-06T10:00:00	2	Temperatura media	16
10258	7	Sololá	701	Sololá	3	Barraneche	2	Febrero	2023-02-23T00:00:00	2024-11-06T10:00:00	4	Temperatura máxima	16.1
10259	7	Sololá	701	Sololá	3	Barraneche	2	Febrero	2023-02-23T00:00:00	2024-11-06T10:00:00	3	Temperatura mínima	13.6
10260	7	Sololá	701	Sololá	3	Barraneche	2	Febrero	2023-02-23T00:00:00	2024-11-06T10:00:00	5	Humedad	44
10261	7	Sololá	701	Sololá	3	Barraneche	2	Febrero	2023-02-23T00:00:00	2024-11-06T10:00:00	6	Velocidad del viento	8
10262	7	Sololá	701	Sololá	3	Barraneche	2	Febrero	2023-02-23T00:00:00	2024-11-06T10:00:00	7	Dirección del viento	8.05
10263	7	Sololá	701	Sololá	3	Barraneche	2	Febrero	2023-02-23T00:00:00	2024-11-06T10:00:00	1	Precipitación	0
10264	7	Sololá	701	Sololá	3	Barraneche	2	Febrero	2023-02-23T00:00:00	2024-11-06T10:00:00	8	Radiación solar	694
10265	7	Sololá	701	Sololá	3	Barraneche	2	Febrero	2023-02-23T00:00:00	2024-11-06T11:00:00	2	Temperatura media	16.8
10266	7	Sololá	701	Sololá	3	Barraneche	2	Febrero	2023-02-23T00:00:00	2024-11-06T11:00:00	4	Temperatura máxima	17.1
10267	7	Sololá	701	Sololá	3	Barraneche	2	Febrero	2023-02-23T00:00:00	2024-11-06T11:00:00	3	Temperatura mínima	15.9
10268	7	Sololá	701	Sololá	3	Barraneche	2	Febrero	2023-02-23T00:00:00	2024-11-06T11:00:00	5	Humedad	41
10269	7	Sololá	701	Sololá	3	Barraneche	2	Febrero	2023-02-23T00:00:00	2024-11-06T11:00:00	6	Velocidad del viento	8
10270	7	Sololá	701	Sololá	3	Barraneche	2	Febrero	2023-02-23T00:00:00	2024-11-06T11:00:00	7	Dirección del viento	8.05
10271	7	Sololá	701	Sololá	3	Barraneche	2	Febrero	2023-02-23T00:00:00	2024-11-06T11:00:00	1	Precipitación	0
10272	7	Sololá	701	Sololá	3	Barraneche	2	Febrero	2023-02-23T00:00:00	2024-11-06T11:00:00	8	Radiación solar	872
10273	7	Sololá	701	Sololá	3	Barraneche	2	Febrero	2023-02-23T00:00:00	2024-11-06T12:00:00	2	Temperatura media	19.2
10274	7	Sololá	701	Sololá	3	Barraneche	2	Febrero	2023-02-23T00:00:00	2024-11-06T12:00:00	4	Temperatura máxima	19.2
10275	7	Sololá	701	Sololá	3	Barraneche	2	Febrero	2023-02-23T00:00:00	2024-11-06T12:00:00	3	Temperatura mínima	16.9
10276	7	Sololá	701	Sololá	3	Barraneche	2	Febrero	2023-02-23T00:00:00	2024-11-06T12:00:00	5	Humedad	31
10277	7	Sololá	701	Sololá	3	Barraneche	2	Febrero	2023-02-23T00:00:00	2024-11-06T12:00:00	6	Velocidad del viento	11.3
10278	7	Sololá	701	Sololá	3	Barraneche	2	Febrero	2023-02-23T00:00:00	2024-11-06T12:00:00	7	Dirección del viento	11.27
10279	7	Sololá	701	Sololá	3	Barraneche	2	Febrero	2023-02-23T00:00:00	2024-11-06T12:00:00	1	Precipitación	0
10280	7	Sololá	701	Sololá	3	Barraneche	2	Febrero	2023-02-23T00:00:00	2024-11-06T12:00:00	8	Radiación solar	958
10281	7	Sololá	701	Sololá	3	Barraneche	2	Febrero	2023-02-23T00:00:00	2024-11-06T13:00:00	2	Temperatura media	19.4
10282	7	Sololá	701	Sololá	3	Barraneche	2	Febrero	2023-02-23T00:00:00	2024-11-06T13:00:00	4	Temperatura máxima	19.6
10283	7	Sololá	701	Sololá	3	Barraneche	2	Febrero	2023-02-23T00:00:00	2024-11-06T13:00:00	3	Temperatura mínima	18.8
10284	7	Sololá	701	Sololá	3	Barraneche	2	Febrero	2023-02-23T00:00:00	2024-11-06T13:00:00	5	Humedad	28
10285	7	Sololá	701	Sololá	3	Barraneche	2	Febrero	2023-02-23T00:00:00	2024-11-06T13:00:00	6	Velocidad del viento	14.5
10286	7	Sololá	701	Sololá	3	Barraneche	2	Febrero	2023-02-23T00:00:00	2024-11-06T13:00:00	7	Dirección del viento	14.48
10287	7	Sololá	701	Sololá	3	Barraneche	2	Febrero	2023-02-23T00:00:00	2024-11-06T13:00:00	1	Precipitación	0
10288	7	Sololá	701	Sololá	3	Barraneche	2	Febrero	2023-02-23T00:00:00	2024-11-06T13:00:00	8	Radiación solar	984
10289	7	Sololá	701	Sololá	3	Barraneche	2	Febrero	2023-02-23T00:00:00	2024-11-06T14:00:00	2	Temperatura media	20.1
10290	7	Sololá	701	Sololá	3	Barraneche	2	Febrero	2023-02-23T00:00:00	2024-11-06T14:00:00	4	Temperatura máxima	20.1
10291	7	Sololá	701	Sololá	3	Barraneche	2	Febrero	2023-02-23T00:00:00	2024-11-06T14:00:00	3	Temperatura mínima	19.2
10292	7	Sololá	701	Sololá	3	Barraneche	2	Febrero	2023-02-23T00:00:00	2024-11-06T14:00:00	5	Humedad	11
10293	7	Sololá	701	Sololá	3	Barraneche	2	Febrero	2023-02-23T00:00:00	2024-11-06T14:00:00	6	Velocidad del viento	14.5
10294	7	Sololá	701	Sololá	3	Barraneche	2	Febrero	2023-02-23T00:00:00	2024-11-06T14:00:00	7	Dirección del viento	14.48
10295	7	Sololá	701	Sololá	3	Barraneche	2	Febrero	2023-02-23T00:00:00	2024-11-06T14:00:00	1	Precipitación	0
10296	7	Sololá	701	Sololá	3	Barraneche	2	Febrero	2023-02-23T00:00:00	2024-11-06T14:00:00	8	Radiación solar	937
10297	7	Sololá	701	Sololá	3	Barraneche	2	Febrero	2023-02-23T00:00:00	2024-11-06T15:00:00	2	Temperatura media	16.2
10298	7	Sololá	701	Sololá	3	Barraneche	2	Febrero	2023-02-23T00:00:00	2024-11-06T15:00:00	4	Temperatura máxima	20.1
10299	7	Sololá	701	Sololá	3	Barraneche	2	Febrero	2023-02-23T00:00:00	2024-11-06T15:00:00	3	Temperatura mínima	16.2
10300	7	Sololá	701	Sololá	3	Barraneche	2	Febrero	2023-02-23T00:00:00	2024-11-06T15:00:00	5	Humedad	61
10301	7	Sololá	701	Sololá	3	Barraneche	2	Febrero	2023-02-23T00:00:00	2024-11-06T15:00:00	6	Velocidad del viento	16.1
10302	7	Sololá	701	Sololá	3	Barraneche	2	Febrero	2023-02-23T00:00:00	2024-11-06T15:00:00	7	Dirección del viento	16.09
10303	7	Sololá	701	Sololá	3	Barraneche	2	Febrero	2023-02-23T00:00:00	2024-11-06T15:00:00	1	Precipitación	0
10304	7	Sololá	701	Sololá	3	Barraneche	2	Febrero	2023-02-23T00:00:00	2024-11-06T15:00:00	8	Radiación solar	773
10305	7	Sololá	701	Sololá	3	Barraneche	2	Febrero	2023-02-23T00:00:00	2024-11-06T16:00:00	2	Temperatura media	15.8
10306	7	Sololá	701	Sololá	3	Barraneche	2	Febrero	2023-02-23T00:00:00	2024-11-06T16:00:00	4	Temperatura máxima	16.3
10307	7	Sololá	701	Sololá	3	Barraneche	2	Febrero	2023-02-23T00:00:00	2024-11-06T16:00:00	3	Temperatura mínima	15.6
10308	7	Sololá	701	Sololá	3	Barraneche	2	Febrero	2023-02-23T00:00:00	2024-11-06T16:00:00	5	Humedad	63
10309	7	Sololá	701	Sololá	3	Barraneche	2	Febrero	2023-02-23T00:00:00	2024-11-06T16:00:00	6	Velocidad del viento	14.5
10310	7	Sololá	701	Sololá	3	Barraneche	2	Febrero	2023-02-23T00:00:00	2024-11-06T16:00:00	7	Dirección del viento	14.48
10311	7	Sololá	701	Sololá	3	Barraneche	2	Febrero	2023-02-23T00:00:00	2024-11-06T16:00:00	1	Precipitación	0
10312	7	Sololá	701	Sololá	3	Barraneche	2	Febrero	2023-02-23T00:00:00	2024-11-06T16:00:00	8	Radiación solar	606
10313	7	Sololá	701	Sololá	3	Barraneche	2	Febrero	2023-02-23T00:00:00	2024-11-06T17:00:00	2	Temperatura media	14.9
10314	7	Sololá	701	Sololá	3	Barraneche	2	Febrero	2023-02-23T00:00:00	2024-11-06T17:00:00	4	Temperatura máxima	15.9
10315	7	Sololá	701	Sololá	3	Barraneche	2	Febrero	2023-02-23T00:00:00	2024-11-06T17:00:00	3	Temperatura mínima	14.9
10316	7	Sololá	701	Sololá	3	Barraneche	2	Febrero	2023-02-23T00:00:00	2024-11-06T17:00:00	5	Humedad	66
10317	7	Sololá	701	Sololá	3	Barraneche	2	Febrero	2023-02-23T00:00:00	2024-11-06T17:00:00	6	Velocidad del viento	11.3
10318	7	Sololá	701	Sololá	3	Barraneche	2	Febrero	2023-02-23T00:00:00	2024-11-06T17:00:00	7	Dirección del viento	11.27
10319	7	Sololá	701	Sololá	3	Barraneche	2	Febrero	2023-02-23T00:00:00	2024-11-06T17:00:00	1	Precipitación	0
10320	7	Sololá	701	Sololá	3	Barraneche	2	Febrero	2023-02-23T00:00:00	2024-11-06T17:00:00	8	Radiación solar	390
10321	7	Sololá	701	Sololá	3	Barraneche	2	Febrero	2023-02-23T00:00:00	2024-11-06T18:00:00	2	Temperatura media	13.6
10322	7	Sololá	701	Sololá	3	Barraneche	2	Febrero	2023-02-23T00:00:00	2024-11-06T18:00:00	4	Temperatura máxima	14.9
10323	7	Sololá	701	Sololá	3	Barraneche	2	Febrero	2023-02-23T00:00:00	2024-11-06T18:00:00	3	Temperatura mínima	13.5
10324	7	Sololá	701	Sololá	3	Barraneche	2	Febrero	2023-02-23T00:00:00	2024-11-06T18:00:00	5	Humedad	70
10325	7	Sololá	701	Sololá	3	Barraneche	2	Febrero	2023-02-23T00:00:00	2024-11-06T18:00:00	6	Velocidad del viento	9.7
10326	7	Sololá	701	Sololá	3	Barraneche	2	Febrero	2023-02-23T00:00:00	2024-11-06T18:00:00	7	Dirección del viento	9.66
10327	7	Sololá	701	Sololá	3	Barraneche	2	Febrero	2023-02-23T00:00:00	2024-11-06T18:00:00	1	Precipitación	0
10328	7	Sololá	701	Sololá	3	Barraneche	2	Febrero	2023-02-23T00:00:00	2024-11-06T18:00:00	8	Radiación solar	84
10329	7	Sololá	701	Sololá	3	Barraneche	2	Febrero	2023-02-23T00:00:00	2024-11-06T19:00:00	2	Temperatura media	11.2
10330	7	Sololá	701	Sololá	3	Barraneche	2	Febrero	2023-02-23T00:00:00	2024-11-06T19:00:00	4	Temperatura máxima	13.6
10331	7	Sololá	701	Sololá	3	Barraneche	2	Febrero	2023-02-23T00:00:00	2024-11-06T19:00:00	3	Temperatura mínima	11.2
10332	7	Sololá	701	Sololá	3	Barraneche	2	Febrero	2023-02-23T00:00:00	2024-11-06T19:00:00	5	Humedad	55
10333	7	Sololá	701	Sololá	3	Barraneche	2	Febrero	2023-02-23T00:00:00	2024-11-06T19:00:00	6	Velocidad del viento	4.8
10334	7	Sololá	701	Sololá	3	Barraneche	2	Febrero	2023-02-23T00:00:00	2024-11-06T19:00:00	7	Dirección del viento	4.83
10335	7	Sololá	701	Sololá	3	Barraneche	2	Febrero	2023-02-23T00:00:00	2024-11-06T19:00:00	1	Precipitación	0
10336	7	Sololá	701	Sololá	3	Barraneche	2	Febrero	2023-02-23T00:00:00	2024-11-06T19:00:00	8	Radiación solar	0
10337	7	Sololá	701	Sololá	3	Barraneche	2	Febrero	2023-02-23T00:00:00	2024-11-06T20:00:00	2	Temperatura media	11.3
10338	7	Sololá	701	Sololá	3	Barraneche	2	Febrero	2023-02-23T00:00:00	2024-11-06T20:00:00	4	Temperatura máxima	11.3
10339	7	Sololá	701	Sololá	3	Barraneche	2	Febrero	2023-02-23T00:00:00	2024-11-06T20:00:00	3	Temperatura mínima	10.3
10340	7	Sololá	701	Sololá	3	Barraneche	2	Febrero	2023-02-23T00:00:00	2024-11-06T20:00:00	5	Humedad	52
10341	7	Sololá	701	Sololá	3	Barraneche	2	Febrero	2023-02-23T00:00:00	2024-11-06T20:00:00	6	Velocidad del viento	6.4
10342	7	Sololá	701	Sololá	3	Barraneche	2	Febrero	2023-02-23T00:00:00	2024-11-06T20:00:00	7	Dirección del viento	6.44
10343	7	Sololá	701	Sololá	3	Barraneche	2	Febrero	2023-02-23T00:00:00	2024-11-06T20:00:00	1	Precipitación	0
10344	7	Sololá	701	Sololá	3	Barraneche	2	Febrero	2023-02-23T00:00:00	2024-11-06T20:00:00	8	Radiación solar	0
10345	7	Sololá	701	Sololá	3	Barraneche	2	Febrero	2023-02-23T00:00:00	2024-11-06T21:00:00	2	Temperatura media	11.8
10346	7	Sololá	701	Sololá	3	Barraneche	2	Febrero	2023-02-23T00:00:00	2024-11-06T21:00:00	4	Temperatura máxima	11.9
10347	7	Sololá	701	Sololá	3	Barraneche	2	Febrero	2023-02-23T00:00:00	2024-11-06T21:00:00	3	Temperatura mínima	11.3
10348	7	Sololá	701	Sololá	3	Barraneche	2	Febrero	2023-02-23T00:00:00	2024-11-06T21:00:00	5	Humedad	59
10349	7	Sololá	701	Sololá	3	Barraneche	2	Febrero	2023-02-23T00:00:00	2024-11-06T21:00:00	6	Velocidad del viento	6.4
10350	7	Sololá	701	Sololá	3	Barraneche	2	Febrero	2023-02-23T00:00:00	2024-11-06T21:00:00	7	Dirección del viento	6.44
10351	7	Sololá	701	Sololá	3	Barraneche	2	Febrero	2023-02-23T00:00:00	2024-11-06T21:00:00	1	Precipitación	0
10352	7	Sololá	701	Sololá	3	Barraneche	2	Febrero	2023-02-23T00:00:00	2024-11-06T21:00:00	8	Radiación solar	0
10353	7	Sololá	701	Sololá	3	Barraneche	2	Febrero	2023-02-23T00:00:00	2024-11-06T22:00:00	2	Temperatura media	12.6
10354	7	Sololá	701	Sololá	3	Barraneche	2	Febrero	2023-02-23T00:00:00	2024-11-06T22:00:00	4	Temperatura máxima	12.7
10355	7	Sololá	701	Sololá	3	Barraneche	2	Febrero	2023-02-23T00:00:00	2024-11-06T22:00:00	3	Temperatura mínima	11.8
10356	7	Sololá	701	Sololá	3	Barraneche	2	Febrero	2023-02-23T00:00:00	2024-11-06T22:00:00	5	Humedad	56
10357	7	Sololá	701	Sololá	3	Barraneche	2	Febrero	2023-02-23T00:00:00	2024-11-06T22:00:00	6	Velocidad del viento	9.7
10358	7	Sololá	701	Sololá	3	Barraneche	2	Febrero	2023-02-23T00:00:00	2024-11-06T22:00:00	7	Dirección del viento	9.66
10359	7	Sololá	701	Sololá	3	Barraneche	2	Febrero	2023-02-23T00:00:00	2024-11-06T22:00:00	1	Precipitación	0
10360	7	Sololá	701	Sololá	3	Barraneche	2	Febrero	2023-02-23T00:00:00	2024-11-06T22:00:00	8	Radiación solar	0
10361	7	Sololá	701	Sololá	3	Barraneche	2	Febrero	2023-02-23T00:00:00	2024-11-06T23:00:00	2	Temperatura media	11.2
10362	7	Sololá	701	Sololá	3	Barraneche	2	Febrero	2023-02-23T00:00:00	2024-11-06T23:00:00	4	Temperatura máxima	12.6
10363	7	Sololá	701	Sololá	3	Barraneche	2	Febrero	2023-02-23T00:00:00	2024-11-06T23:00:00	3	Temperatura mínima	10.8
10364	7	Sololá	701	Sololá	3	Barraneche	2	Febrero	2023-02-23T00:00:00	2024-11-06T23:00:00	5	Humedad	62
10365	7	Sololá	701	Sololá	3	Barraneche	2	Febrero	2023-02-23T00:00:00	2024-11-06T23:00:00	6	Velocidad del viento	6.4
10366	7	Sololá	701	Sololá	3	Barraneche	2	Febrero	2023-02-23T00:00:00	2024-11-06T23:00:00	7	Dirección del viento	6.44
10367	7	Sololá	701	Sololá	3	Barraneche	2	Febrero	2023-02-23T00:00:00	2024-11-06T23:00:00	1	Precipitación	0
10368	7	Sololá	701	Sololá	3	Barraneche	2	Febrero	2023-02-23T00:00:00	2024-11-06T23:00:00	8	Radiación solar	0
10369	7	Sololá	701	Sololá	3	Barraneche	2	Febrero	2023-02-24T00:00:00	2024-11-06T00:00:00	2	Temperatura media	11.2
10370	7	Sololá	701	Sololá	3	Barraneche	2	Febrero	2023-02-24T00:00:00	2024-11-06T00:00:00	4	Temperatura máxima	11.3
10371	7	Sololá	701	Sololá	3	Barraneche	2	Febrero	2023-02-24T00:00:00	2024-11-06T00:00:00	3	Temperatura mínima	11
10372	7	Sololá	701	Sololá	3	Barraneche	2	Febrero	2023-02-24T00:00:00	2024-11-06T00:00:00	5	Humedad	63
10373	7	Sololá	701	Sololá	3	Barraneche	2	Febrero	2023-02-24T00:00:00	2024-11-06T00:00:00	6	Velocidad del viento	9.7
10374	7	Sololá	701	Sololá	3	Barraneche	2	Febrero	2023-02-24T00:00:00	2024-11-06T00:00:00	7	Dirección del viento	9.66
10375	7	Sololá	701	Sololá	3	Barraneche	2	Febrero	2023-02-24T00:00:00	2024-11-06T00:00:00	1	Precipitación	0
10376	7	Sololá	701	Sololá	3	Barraneche	2	Febrero	2023-02-24T00:00:00	2024-11-06T00:00:00	8	Radiación solar	0
10377	7	Sololá	701	Sololá	3	Barraneche	2	Febrero	2023-02-24T00:00:00	2024-11-06T01:00:00	2	Temperatura media	10.8
10378	7	Sololá	701	Sololá	3	Barraneche	2	Febrero	2023-02-24T00:00:00	2024-11-06T01:00:00	4	Temperatura máxima	11.7
10379	7	Sololá	701	Sololá	3	Barraneche	2	Febrero	2023-02-24T00:00:00	2024-11-06T01:00:00	3	Temperatura mínima	10.8
10380	7	Sololá	701	Sololá	3	Barraneche	2	Febrero	2023-02-24T00:00:00	2024-11-06T01:00:00	5	Humedad	54
10381	7	Sololá	701	Sololá	3	Barraneche	2	Febrero	2023-02-24T00:00:00	2024-11-06T01:00:00	6	Velocidad del viento	8
10382	7	Sololá	701	Sololá	3	Barraneche	2	Febrero	2023-02-24T00:00:00	2024-11-06T01:00:00	7	Dirección del viento	8.05
10383	7	Sololá	701	Sololá	3	Barraneche	2	Febrero	2023-02-24T00:00:00	2024-11-06T01:00:00	1	Precipitación	0
10384	7	Sololá	701	Sololá	3	Barraneche	2	Febrero	2023-02-24T00:00:00	2024-11-06T01:00:00	8	Radiación solar	0
10385	7	Sololá	701	Sololá	3	Barraneche	2	Febrero	2023-02-24T00:00:00	2024-11-06T02:00:00	2	Temperatura media	8.9
10386	7	Sololá	701	Sololá	3	Barraneche	2	Febrero	2023-02-24T00:00:00	2024-11-06T02:00:00	4	Temperatura máxima	10.8
10387	7	Sololá	701	Sololá	3	Barraneche	2	Febrero	2023-02-24T00:00:00	2024-11-06T02:00:00	3	Temperatura mínima	8.9
10388	7	Sololá	701	Sololá	3	Barraneche	2	Febrero	2023-02-24T00:00:00	2024-11-06T02:00:00	5	Humedad	51
10389	7	Sololá	701	Sololá	3	Barraneche	2	Febrero	2023-02-24T00:00:00	2024-11-06T02:00:00	6	Velocidad del viento	4.8
10390	7	Sololá	701	Sololá	3	Barraneche	2	Febrero	2023-02-24T00:00:00	2024-11-06T02:00:00	7	Dirección del viento	4.83
10391	7	Sololá	701	Sololá	3	Barraneche	2	Febrero	2023-02-24T00:00:00	2024-11-06T02:00:00	1	Precipitación	0
10392	7	Sololá	701	Sololá	3	Barraneche	2	Febrero	2023-02-24T00:00:00	2024-11-06T02:00:00	8	Radiación solar	0
10393	7	Sololá	701	Sololá	3	Barraneche	2	Febrero	2023-02-24T00:00:00	2024-11-06T03:00:00	2	Temperatura media	7.4
10394	7	Sololá	701	Sololá	3	Barraneche	2	Febrero	2023-02-24T00:00:00	2024-11-06T03:00:00	4	Temperatura máxima	8.9
10395	7	Sololá	701	Sololá	3	Barraneche	2	Febrero	2023-02-24T00:00:00	2024-11-06T03:00:00	3	Temperatura mínima	7.4
10396	7	Sololá	701	Sololá	3	Barraneche	2	Febrero	2023-02-24T00:00:00	2024-11-06T03:00:00	5	Humedad	53
10397	7	Sololá	701	Sololá	3	Barraneche	2	Febrero	2023-02-24T00:00:00	2024-11-06T03:00:00	6	Velocidad del viento	3.2
10398	7	Sololá	701	Sololá	3	Barraneche	2	Febrero	2023-02-24T00:00:00	2024-11-06T03:00:00	7	Dirección del viento	3.22
10399	7	Sololá	701	Sololá	3	Barraneche	2	Febrero	2023-02-24T00:00:00	2024-11-06T03:00:00	1	Precipitación	0
10400	7	Sololá	701	Sololá	3	Barraneche	2	Febrero	2023-02-24T00:00:00	2024-11-06T03:00:00	8	Radiación solar	0
10401	7	Sololá	701	Sololá	3	Barraneche	2	Febrero	2023-02-24T00:00:00	2024-11-06T04:00:00	2	Temperatura media	7.3
10402	7	Sololá	701	Sololá	3	Barraneche	2	Febrero	2023-02-24T00:00:00	2024-11-06T04:00:00	4	Temperatura máxima	7.5
10403	7	Sololá	701	Sololá	3	Barraneche	2	Febrero	2023-02-24T00:00:00	2024-11-06T04:00:00	3	Temperatura mínima	6.8
10404	7	Sololá	701	Sololá	3	Barraneche	2	Febrero	2023-02-24T00:00:00	2024-11-06T04:00:00	5	Humedad	47
10405	7	Sololá	701	Sololá	3	Barraneche	2	Febrero	2023-02-24T00:00:00	2024-11-06T04:00:00	6	Velocidad del viento	4.8
10406	7	Sololá	701	Sololá	3	Barraneche	2	Febrero	2023-02-24T00:00:00	2024-11-06T04:00:00	7	Dirección del viento	4.83
10407	7	Sololá	701	Sololá	3	Barraneche	2	Febrero	2023-02-24T00:00:00	2024-11-06T04:00:00	1	Precipitación	0
10408	7	Sololá	701	Sololá	3	Barraneche	2	Febrero	2023-02-24T00:00:00	2024-11-06T04:00:00	8	Radiación solar	0
10409	7	Sololá	701	Sololá	3	Barraneche	2	Febrero	2023-02-24T00:00:00	2024-11-06T05:00:00	2	Temperatura media	8.4
10410	7	Sololá	701	Sololá	3	Barraneche	2	Febrero	2023-02-24T00:00:00	2024-11-06T05:00:00	4	Temperatura máxima	8.4
10411	7	Sololá	701	Sololá	3	Barraneche	2	Febrero	2023-02-24T00:00:00	2024-11-06T05:00:00	3	Temperatura mínima	7.3
10412	7	Sololá	701	Sololá	3	Barraneche	2	Febrero	2023-02-24T00:00:00	2024-11-06T05:00:00	5	Humedad	40
10413	7	Sololá	701	Sololá	3	Barraneche	2	Febrero	2023-02-24T00:00:00	2024-11-06T05:00:00	6	Velocidad del viento	3.2
10414	7	Sololá	701	Sololá	3	Barraneche	2	Febrero	2023-02-24T00:00:00	2024-11-06T05:00:00	7	Dirección del viento	3.22
10415	7	Sololá	701	Sololá	3	Barraneche	2	Febrero	2023-02-24T00:00:00	2024-11-06T05:00:00	1	Precipitación	0
10416	7	Sololá	701	Sololá	3	Barraneche	2	Febrero	2023-02-24T00:00:00	2024-11-06T05:00:00	8	Radiación solar	0
10417	7	Sololá	701	Sololá	3	Barraneche	2	Febrero	2023-02-24T00:00:00	2024-11-06T06:00:00	2	Temperatura media	10.4
10418	7	Sololá	701	Sololá	3	Barraneche	2	Febrero	2023-02-24T00:00:00	2024-11-06T06:00:00	4	Temperatura máxima	10.6
10419	7	Sololá	701	Sololá	3	Barraneche	2	Febrero	2023-02-24T00:00:00	2024-11-06T06:00:00	3	Temperatura mínima	7.7
10420	7	Sololá	701	Sololá	3	Barraneche	2	Febrero	2023-02-24T00:00:00	2024-11-06T06:00:00	5	Humedad	38
10421	7	Sololá	701	Sololá	3	Barraneche	2	Febrero	2023-02-24T00:00:00	2024-11-06T06:00:00	6	Velocidad del viento	6.4
10422	7	Sololá	701	Sololá	3	Barraneche	2	Febrero	2023-02-24T00:00:00	2024-11-06T06:00:00	7	Dirección del viento	6.44
10423	7	Sololá	701	Sololá	3	Barraneche	2	Febrero	2023-02-24T00:00:00	2024-11-06T06:00:00	1	Precipitación	0
10424	7	Sololá	701	Sololá	3	Barraneche	2	Febrero	2023-02-24T00:00:00	2024-11-06T06:00:00	8	Radiación solar	0
10425	7	Sololá	701	Sololá	3	Barraneche	2	Febrero	2023-02-24T00:00:00	2024-11-06T07:00:00	2	Temperatura media	9.6
10426	7	Sololá	701	Sololá	3	Barraneche	2	Febrero	2023-02-24T00:00:00	2024-11-06T07:00:00	4	Temperatura máxima	12.3
10427	7	Sololá	701	Sololá	3	Barraneche	2	Febrero	2023-02-24T00:00:00	2024-11-06T07:00:00	3	Temperatura mínima	9.4
10428	7	Sololá	701	Sololá	3	Barraneche	2	Febrero	2023-02-24T00:00:00	2024-11-06T07:00:00	5	Humedad	33
10429	7	Sololá	701	Sololá	3	Barraneche	2	Febrero	2023-02-24T00:00:00	2024-11-06T07:00:00	6	Velocidad del viento	9.7
10430	7	Sololá	701	Sololá	3	Barraneche	2	Febrero	2023-02-24T00:00:00	2024-11-06T07:00:00	7	Dirección del viento	9.66
10431	7	Sololá	701	Sololá	3	Barraneche	2	Febrero	2023-02-24T00:00:00	2024-11-06T07:00:00	1	Precipitación	0
10432	7	Sololá	701	Sololá	3	Barraneche	2	Febrero	2023-02-24T00:00:00	2024-11-06T07:00:00	8	Radiación solar	8
10433	7	Sololá	701	Sololá	3	Barraneche	2	Febrero	2023-02-24T00:00:00	2024-11-06T08:00:00	2	Temperatura media	12.8
10434	7	Sololá	701	Sololá	3	Barraneche	2	Febrero	2023-02-24T00:00:00	2024-11-06T08:00:00	4	Temperatura máxima	12.8
10435	7	Sololá	701	Sololá	3	Barraneche	2	Febrero	2023-02-24T00:00:00	2024-11-06T08:00:00	3	Temperatura mínima	8.9
10436	7	Sololá	701	Sololá	3	Barraneche	2	Febrero	2023-02-24T00:00:00	2024-11-06T08:00:00	5	Humedad	31
10437	7	Sololá	701	Sololá	3	Barraneche	2	Febrero	2023-02-24T00:00:00	2024-11-06T08:00:00	6	Velocidad del viento	4.8
10438	7	Sololá	701	Sololá	3	Barraneche	2	Febrero	2023-02-24T00:00:00	2024-11-06T08:00:00	7	Dirección del viento	4.83
10439	7	Sololá	701	Sololá	3	Barraneche	2	Febrero	2023-02-24T00:00:00	2024-11-06T08:00:00	1	Precipitación	0
10440	7	Sololá	701	Sololá	3	Barraneche	2	Febrero	2023-02-24T00:00:00	2024-11-06T08:00:00	8	Radiación solar	200
10441	7	Sololá	701	Sololá	3	Barraneche	2	Febrero	2023-02-24T00:00:00	2024-11-06T09:00:00	2	Temperatura media	16.2
10442	7	Sololá	701	Sololá	3	Barraneche	2	Febrero	2023-02-24T00:00:00	2024-11-06T09:00:00	4	Temperatura máxima	16.3
10443	7	Sololá	701	Sololá	3	Barraneche	2	Febrero	2023-02-24T00:00:00	2024-11-06T09:00:00	3	Temperatura mínima	12.8
10444	7	Sololá	701	Sololá	3	Barraneche	2	Febrero	2023-02-24T00:00:00	2024-11-06T09:00:00	5	Humedad	23
10445	7	Sololá	701	Sololá	3	Barraneche	2	Febrero	2023-02-24T00:00:00	2024-11-06T09:00:00	6	Velocidad del viento	6.4
10446	7	Sololá	701	Sololá	3	Barraneche	2	Febrero	2023-02-24T00:00:00	2024-11-06T09:00:00	7	Dirección del viento	6.44
10447	7	Sololá	701	Sololá	3	Barraneche	2	Febrero	2023-02-24T00:00:00	2024-11-06T09:00:00	1	Precipitación	0
10448	7	Sololá	701	Sololá	3	Barraneche	2	Febrero	2023-02-24T00:00:00	2024-11-06T09:00:00	8	Radiación solar	482
10449	7	Sololá	701	Sololá	3	Barraneche	2	Febrero	2023-02-24T00:00:00	2024-11-06T10:00:00	2	Temperatura media	17.9
10450	7	Sololá	701	Sololá	3	Barraneche	2	Febrero	2023-02-24T00:00:00	2024-11-06T10:00:00	4	Temperatura máxima	17.9
10451	7	Sololá	701	Sololá	3	Barraneche	2	Febrero	2023-02-24T00:00:00	2024-11-06T10:00:00	3	Temperatura mínima	16.2
10452	7	Sololá	701	Sololá	3	Barraneche	2	Febrero	2023-02-24T00:00:00	2024-11-06T10:00:00	5	Humedad	25
10453	7	Sololá	701	Sololá	3	Barraneche	2	Febrero	2023-02-24T00:00:00	2024-11-06T10:00:00	6	Velocidad del viento	6.4
10454	7	Sololá	701	Sololá	3	Barraneche	2	Febrero	2023-02-24T00:00:00	2024-11-06T10:00:00	7	Dirección del viento	6.44
10455	7	Sololá	701	Sololá	3	Barraneche	2	Febrero	2023-02-24T00:00:00	2024-11-06T10:00:00	1	Precipitación	0
10456	7	Sololá	701	Sololá	3	Barraneche	2	Febrero	2023-02-24T00:00:00	2024-11-06T10:00:00	8	Radiación solar	708
10457	7	Sololá	701	Sololá	3	Barraneche	2	Febrero	2023-02-24T00:00:00	2024-11-06T11:00:00	2	Temperatura media	19.7
10458	7	Sololá	701	Sololá	3	Barraneche	2	Febrero	2023-02-24T00:00:00	2024-11-06T11:00:00	4	Temperatura máxima	19.7
10459	7	Sololá	701	Sololá	3	Barraneche	2	Febrero	2023-02-24T00:00:00	2024-11-06T11:00:00	3	Temperatura mínima	17.9
10460	7	Sololá	701	Sololá	3	Barraneche	2	Febrero	2023-02-24T00:00:00	2024-11-06T11:00:00	5	Humedad	24
10461	7	Sololá	701	Sololá	3	Barraneche	2	Febrero	2023-02-24T00:00:00	2024-11-06T11:00:00	6	Velocidad del viento	8
10462	7	Sololá	701	Sololá	3	Barraneche	2	Febrero	2023-02-24T00:00:00	2024-11-06T11:00:00	7	Dirección del viento	8.05
10463	7	Sololá	701	Sololá	3	Barraneche	2	Febrero	2023-02-24T00:00:00	2024-11-06T11:00:00	1	Precipitación	0
10464	7	Sololá	701	Sololá	3	Barraneche	2	Febrero	2023-02-24T00:00:00	2024-11-06T11:00:00	8	Radiación solar	872
10465	7	Sololá	701	Sololá	3	Barraneche	2	Febrero	2023-02-24T00:00:00	2024-11-06T12:00:00	2	Temperatura media	19.2
10466	7	Sololá	701	Sololá	3	Barraneche	2	Febrero	2023-02-24T00:00:00	2024-11-06T12:00:00	4	Temperatura máxima	20.1
10467	7	Sololá	701	Sololá	3	Barraneche	2	Febrero	2023-02-24T00:00:00	2024-11-06T12:00:00	3	Temperatura mínima	19
10468	7	Sololá	701	Sololá	3	Barraneche	2	Febrero	2023-02-24T00:00:00	2024-11-06T12:00:00	5	Humedad	31
10469	7	Sololá	701	Sololá	3	Barraneche	2	Febrero	2023-02-24T00:00:00	2024-11-06T12:00:00	6	Velocidad del viento	12.9
10470	7	Sololá	701	Sololá	3	Barraneche	2	Febrero	2023-02-24T00:00:00	2024-11-06T12:00:00	7	Dirección del viento	12.87
10471	7	Sololá	701	Sololá	3	Barraneche	2	Febrero	2023-02-24T00:00:00	2024-11-06T12:00:00	1	Precipitación	0
10472	7	Sololá	701	Sololá	3	Barraneche	2	Febrero	2023-02-24T00:00:00	2024-11-06T12:00:00	8	Radiación solar	963
10473	7	Sololá	701	Sololá	3	Barraneche	2	Febrero	2023-02-24T00:00:00	2024-11-06T13:00:00	2	Temperatura media	19.2
10474	7	Sololá	701	Sololá	3	Barraneche	2	Febrero	2023-02-24T00:00:00	2024-11-06T13:00:00	4	Temperatura máxima	19.7
10475	7	Sololá	701	Sololá	3	Barraneche	2	Febrero	2023-02-24T00:00:00	2024-11-06T13:00:00	3	Temperatura mínima	19.1
10476	7	Sololá	701	Sololá	3	Barraneche	2	Febrero	2023-02-24T00:00:00	2024-11-06T13:00:00	5	Humedad	38
10477	7	Sololá	701	Sololá	3	Barraneche	2	Febrero	2023-02-24T00:00:00	2024-11-06T13:00:00	6	Velocidad del viento	14.5
10478	7	Sololá	701	Sololá	3	Barraneche	2	Febrero	2023-02-24T00:00:00	2024-11-06T13:00:00	7	Dirección del viento	14.48
10479	7	Sololá	701	Sololá	3	Barraneche	2	Febrero	2023-02-24T00:00:00	2024-11-06T13:00:00	1	Precipitación	0
10480	7	Sololá	701	Sololá	3	Barraneche	2	Febrero	2023-02-24T00:00:00	2024-11-06T13:00:00	8	Radiación solar	978
10481	7	Sololá	701	Sololá	3	Barraneche	2	Febrero	2023-02-24T00:00:00	2024-11-06T14:00:00	2	Temperatura media	18.4
10482	7	Sololá	701	Sololá	3	Barraneche	2	Febrero	2023-02-24T00:00:00	2024-11-06T14:00:00	4	Temperatura máxima	19.3
10483	7	Sololá	701	Sololá	3	Barraneche	2	Febrero	2023-02-24T00:00:00	2024-11-06T14:00:00	3	Temperatura mínima	18.3
10484	7	Sololá	701	Sololá	3	Barraneche	2	Febrero	2023-02-24T00:00:00	2024-11-06T14:00:00	5	Humedad	49
10485	7	Sololá	701	Sololá	3	Barraneche	2	Febrero	2023-02-24T00:00:00	2024-11-06T14:00:00	6	Velocidad del viento	14.5
10486	7	Sololá	701	Sololá	3	Barraneche	2	Febrero	2023-02-24T00:00:00	2024-11-06T14:00:00	7	Dirección del viento	14.48
10487	7	Sololá	701	Sololá	3	Barraneche	2	Febrero	2023-02-24T00:00:00	2024-11-06T14:00:00	1	Precipitación	0
10488	7	Sololá	701	Sololá	3	Barraneche	2	Febrero	2023-02-24T00:00:00	2024-11-06T14:00:00	8	Radiación solar	916
10489	7	Sololá	701	Sololá	3	Barraneche	2	Febrero	2023-02-24T00:00:00	2024-11-06T15:00:00	2	Temperatura media	17.9
10490	7	Sololá	701	Sololá	3	Barraneche	2	Febrero	2023-02-24T00:00:00	2024-11-06T15:00:00	4	Temperatura máxima	18.6
10491	7	Sololá	701	Sololá	3	Barraneche	2	Febrero	2023-02-24T00:00:00	2024-11-06T15:00:00	3	Temperatura mínima	17.8
10492	7	Sololá	701	Sololá	3	Barraneche	2	Febrero	2023-02-24T00:00:00	2024-11-06T15:00:00	5	Humedad	55
10493	7	Sololá	701	Sololá	3	Barraneche	2	Febrero	2023-02-24T00:00:00	2024-11-06T15:00:00	6	Velocidad del viento	14.5
10494	7	Sololá	701	Sololá	3	Barraneche	2	Febrero	2023-02-24T00:00:00	2024-11-06T15:00:00	7	Dirección del viento	14.48
10495	7	Sololá	701	Sololá	3	Barraneche	2	Febrero	2023-02-24T00:00:00	2024-11-06T15:00:00	1	Precipitación	0
10496	7	Sololá	701	Sololá	3	Barraneche	2	Febrero	2023-02-24T00:00:00	2024-11-06T15:00:00	8	Radiación solar	778
10497	7	Sololá	701	Sololá	3	Barraneche	2	Febrero	2023-02-24T00:00:00	2024-11-06T16:00:00	2	Temperatura media	17.3
10498	7	Sololá	701	Sololá	3	Barraneche	2	Febrero	2023-02-24T00:00:00	2024-11-06T16:00:00	4	Temperatura máxima	18.3
10499	7	Sololá	701	Sololá	3	Barraneche	2	Febrero	2023-02-24T00:00:00	2024-11-06T16:00:00	3	Temperatura mínima	17.3
10500	7	Sololá	701	Sololá	3	Barraneche	2	Febrero	2023-02-24T00:00:00	2024-11-06T16:00:00	5	Humedad	60
10501	7	Sololá	701	Sololá	3	Barraneche	2	Febrero	2023-02-24T00:00:00	2024-11-06T16:00:00	6	Velocidad del viento	12.9
10502	7	Sololá	701	Sololá	3	Barraneche	2	Febrero	2023-02-24T00:00:00	2024-11-06T16:00:00	7	Dirección del viento	12.87
10503	7	Sololá	701	Sololá	3	Barraneche	2	Febrero	2023-02-24T00:00:00	2024-11-06T16:00:00	1	Precipitación	0
10504	7	Sololá	701	Sololá	3	Barraneche	2	Febrero	2023-02-24T00:00:00	2024-11-06T16:00:00	8	Radiación solar	577
10505	7	Sololá	701	Sololá	3	Barraneche	2	Febrero	2023-02-24T00:00:00	2024-11-06T17:00:00	2	Temperatura media	16.3
10506	7	Sololá	701	Sololá	3	Barraneche	2	Febrero	2023-02-24T00:00:00	2024-11-06T17:00:00	4	Temperatura máxima	17.3
10507	7	Sololá	701	Sololá	3	Barraneche	2	Febrero	2023-02-24T00:00:00	2024-11-06T17:00:00	3	Temperatura mínima	16.3
10508	7	Sololá	701	Sololá	3	Barraneche	2	Febrero	2023-02-24T00:00:00	2024-11-06T17:00:00	5	Humedad	65
10509	7	Sololá	701	Sololá	3	Barraneche	2	Febrero	2023-02-24T00:00:00	2024-11-06T17:00:00	6	Velocidad del viento	11.3
10510	7	Sololá	701	Sololá	3	Barraneche	2	Febrero	2023-02-24T00:00:00	2024-11-06T17:00:00	7	Dirección del viento	11.27
10511	7	Sololá	701	Sololá	3	Barraneche	2	Febrero	2023-02-24T00:00:00	2024-11-06T17:00:00	1	Precipitación	0
10512	7	Sololá	701	Sololá	3	Barraneche	2	Febrero	2023-02-24T00:00:00	2024-11-06T17:00:00	8	Radiación solar	330
10513	7	Sololá	701	Sololá	3	Barraneche	2	Febrero	2023-02-24T00:00:00	2024-11-06T18:00:00	2	Temperatura media	15.2
10514	7	Sololá	701	Sololá	3	Barraneche	2	Febrero	2023-02-24T00:00:00	2024-11-06T18:00:00	4	Temperatura máxima	16.3
10515	7	Sololá	701	Sololá	3	Barraneche	2	Febrero	2023-02-24T00:00:00	2024-11-06T18:00:00	3	Temperatura mínima	15.2
10516	7	Sololá	701	Sololá	3	Barraneche	2	Febrero	2023-02-24T00:00:00	2024-11-06T18:00:00	5	Humedad	68
10517	7	Sololá	701	Sololá	3	Barraneche	2	Febrero	2023-02-24T00:00:00	2024-11-06T18:00:00	6	Velocidad del viento	6.4
10518	7	Sololá	701	Sololá	3	Barraneche	2	Febrero	2023-02-24T00:00:00	2024-11-06T18:00:00	7	Dirección del viento	6.44
10519	7	Sololá	701	Sololá	3	Barraneche	2	Febrero	2023-02-24T00:00:00	2024-11-06T18:00:00	1	Precipitación	0
10520	7	Sololá	701	Sololá	3	Barraneche	2	Febrero	2023-02-24T00:00:00	2024-11-06T18:00:00	8	Radiación solar	86
10521	7	Sololá	701	Sololá	3	Barraneche	2	Febrero	2023-02-24T00:00:00	2024-11-06T19:00:00	2	Temperatura media	15.1
10522	7	Sololá	701	Sololá	3	Barraneche	2	Febrero	2023-02-24T00:00:00	2024-11-06T19:00:00	4	Temperatura máxima	15.3
10523	7	Sololá	701	Sololá	3	Barraneche	2	Febrero	2023-02-24T00:00:00	2024-11-06T19:00:00	3	Temperatura mínima	14.4
10524	7	Sololá	701	Sololá	3	Barraneche	2	Febrero	2023-02-24T00:00:00	2024-11-06T19:00:00	5	Humedad	47
10525	7	Sololá	701	Sololá	3	Barraneche	2	Febrero	2023-02-24T00:00:00	2024-11-06T19:00:00	6	Velocidad del viento	3.2
10526	7	Sololá	701	Sololá	3	Barraneche	2	Febrero	2023-02-24T00:00:00	2024-11-06T19:00:00	7	Dirección del viento	3.22
10527	7	Sololá	701	Sololá	3	Barraneche	2	Febrero	2023-02-24T00:00:00	2024-11-06T19:00:00	1	Precipitación	0
10528	7	Sololá	701	Sololá	3	Barraneche	2	Febrero	2023-02-24T00:00:00	2024-11-06T19:00:00	8	Radiación solar	0
10529	7	Sololá	701	Sololá	3	Barraneche	2	Febrero	2023-02-24T00:00:00	2024-11-06T20:00:00	2	Temperatura media	14.3
10530	7	Sololá	701	Sololá	3	Barraneche	2	Febrero	2023-02-24T00:00:00	2024-11-06T20:00:00	4	Temperatura máxima	15.3
10531	7	Sololá	701	Sololá	3	Barraneche	2	Febrero	2023-02-24T00:00:00	2024-11-06T20:00:00	3	Temperatura mínima	14.2
10532	7	Sololá	701	Sololá	3	Barraneche	2	Febrero	2023-02-24T00:00:00	2024-11-06T20:00:00	5	Humedad	56
10533	7	Sololá	701	Sololá	3	Barraneche	2	Febrero	2023-02-24T00:00:00	2024-11-06T20:00:00	6	Velocidad del viento	8
10534	7	Sololá	701	Sololá	3	Barraneche	2	Febrero	2023-02-24T00:00:00	2024-11-06T20:00:00	7	Dirección del viento	8.05
10535	7	Sololá	701	Sololá	3	Barraneche	2	Febrero	2023-02-24T00:00:00	2024-11-06T20:00:00	1	Precipitación	0
10536	7	Sololá	701	Sololá	3	Barraneche	2	Febrero	2023-02-24T00:00:00	2024-11-06T20:00:00	8	Radiación solar	0
10537	7	Sololá	701	Sololá	3	Barraneche	2	Febrero	2023-02-24T00:00:00	2024-11-06T21:00:00	2	Temperatura media	11.6
10538	7	Sololá	701	Sololá	3	Barraneche	2	Febrero	2023-02-24T00:00:00	2024-11-06T21:00:00	4	Temperatura máxima	14.2
10539	7	Sololá	701	Sololá	3	Barraneche	2	Febrero	2023-02-24T00:00:00	2024-11-06T21:00:00	3	Temperatura mínima	11.6
10540	7	Sololá	701	Sololá	3	Barraneche	2	Febrero	2023-02-24T00:00:00	2024-11-06T21:00:00	5	Humedad	58
10541	7	Sololá	701	Sololá	3	Barraneche	2	Febrero	2023-02-24T00:00:00	2024-11-06T21:00:00	6	Velocidad del viento	8
10542	7	Sololá	701	Sololá	3	Barraneche	2	Febrero	2023-02-24T00:00:00	2024-11-06T21:00:00	7	Dirección del viento	8.05
10543	7	Sololá	701	Sololá	3	Barraneche	2	Febrero	2023-02-24T00:00:00	2024-11-06T21:00:00	1	Precipitación	0
10544	7	Sololá	701	Sololá	3	Barraneche	2	Febrero	2023-02-24T00:00:00	2024-11-06T21:00:00	8	Radiación solar	0
10545	7	Sololá	701	Sololá	3	Barraneche	2	Febrero	2023-02-24T00:00:00	2024-11-06T22:00:00	2	Temperatura media	10.5
10546	7	Sololá	701	Sololá	3	Barraneche	2	Febrero	2023-02-24T00:00:00	2024-11-06T22:00:00	4	Temperatura máxima	11.6
10547	7	Sololá	701	Sololá	3	Barraneche	2	Febrero	2023-02-24T00:00:00	2024-11-06T22:00:00	3	Temperatura mínima	10.3
10548	7	Sololá	701	Sololá	3	Barraneche	2	Febrero	2023-02-24T00:00:00	2024-11-06T22:00:00	5	Humedad	58
10549	7	Sololá	701	Sololá	3	Barraneche	2	Febrero	2023-02-24T00:00:00	2024-11-06T22:00:00	6	Velocidad del viento	6.4
10550	7	Sololá	701	Sololá	3	Barraneche	2	Febrero	2023-02-24T00:00:00	2024-11-06T22:00:00	7	Dirección del viento	6.44
10551	7	Sololá	701	Sololá	3	Barraneche	2	Febrero	2023-02-24T00:00:00	2024-11-06T22:00:00	1	Precipitación	0
10552	7	Sololá	701	Sololá	3	Barraneche	2	Febrero	2023-02-24T00:00:00	2024-11-06T22:00:00	8	Radiación solar	0
10553	7	Sololá	701	Sololá	3	Barraneche	2	Febrero	2023-02-24T00:00:00	2024-11-06T23:00:00	2	Temperatura media	9.7
10554	7	Sololá	701	Sololá	3	Barraneche	2	Febrero	2023-02-24T00:00:00	2024-11-06T23:00:00	4	Temperatura máxima	10.7
10555	7	Sololá	701	Sololá	3	Barraneche	2	Febrero	2023-02-24T00:00:00	2024-11-06T23:00:00	3	Temperatura mínima	9.7
10556	7	Sololá	701	Sololá	3	Barraneche	2	Febrero	2023-02-24T00:00:00	2024-11-06T23:00:00	5	Humedad	55
10557	7	Sololá	701	Sololá	3	Barraneche	2	Febrero	2023-02-24T00:00:00	2024-11-06T23:00:00	6	Velocidad del viento	6.4
10558	7	Sololá	701	Sololá	3	Barraneche	2	Febrero	2023-02-24T00:00:00	2024-11-06T23:00:00	7	Dirección del viento	6.44
10559	7	Sololá	701	Sololá	3	Barraneche	2	Febrero	2023-02-24T00:00:00	2024-11-06T23:00:00	1	Precipitación	0
10560	7	Sololá	701	Sololá	3	Barraneche	2	Febrero	2023-02-24T00:00:00	2024-11-06T23:00:00	8	Radiación solar	0
10561	7	Sololá	701	Sololá	3	Barraneche	2	Febrero	2023-02-25T00:00:00	2024-11-06T00:00:00	2	Temperatura media	10.1
10562	7	Sololá	701	Sololá	3	Barraneche	2	Febrero	2023-02-25T00:00:00	2024-11-06T00:00:00	4	Temperatura máxima	10.1
10563	7	Sololá	701	Sololá	3	Barraneche	2	Febrero	2023-02-25T00:00:00	2024-11-06T00:00:00	3	Temperatura mínima	9.1
10564	7	Sololá	701	Sololá	3	Barraneche	2	Febrero	2023-02-25T00:00:00	2024-11-06T00:00:00	5	Humedad	44
10565	7	Sololá	701	Sololá	3	Barraneche	2	Febrero	2023-02-25T00:00:00	2024-11-06T00:00:00	6	Velocidad del viento	6.4
10566	7	Sololá	701	Sololá	3	Barraneche	2	Febrero	2023-02-25T00:00:00	2024-11-06T00:00:00	7	Dirección del viento	6.44
10567	7	Sololá	701	Sololá	3	Barraneche	2	Febrero	2023-02-25T00:00:00	2024-11-06T00:00:00	1	Precipitación	0
10568	7	Sololá	701	Sololá	3	Barraneche	2	Febrero	2023-02-25T00:00:00	2024-11-06T00:00:00	8	Radiación solar	0
10569	7	Sololá	701	Sololá	3	Barraneche	2	Febrero	2023-02-25T00:00:00	2024-11-06T01:00:00	2	Temperatura media	10.9
10570	7	Sololá	701	Sololá	3	Barraneche	2	Febrero	2023-02-25T00:00:00	2024-11-06T01:00:00	4	Temperatura máxima	11.2
10571	7	Sololá	701	Sololá	3	Barraneche	2	Febrero	2023-02-25T00:00:00	2024-11-06T01:00:00	3	Temperatura mínima	9.9
10572	7	Sololá	701	Sololá	3	Barraneche	2	Febrero	2023-02-25T00:00:00	2024-11-06T01:00:00	5	Humedad	38
10573	7	Sololá	701	Sololá	3	Barraneche	2	Febrero	2023-02-25T00:00:00	2024-11-06T01:00:00	6	Velocidad del viento	8
10574	7	Sololá	701	Sololá	3	Barraneche	2	Febrero	2023-02-25T00:00:00	2024-11-06T01:00:00	7	Dirección del viento	8.05
10575	7	Sololá	701	Sololá	3	Barraneche	2	Febrero	2023-02-25T00:00:00	2024-11-06T01:00:00	1	Precipitación	0
10576	7	Sololá	701	Sololá	3	Barraneche	2	Febrero	2023-02-25T00:00:00	2024-11-06T01:00:00	8	Radiación solar	0
10577	7	Sololá	701	Sololá	3	Barraneche	2	Febrero	2023-02-25T00:00:00	2024-11-06T02:00:00	2	Temperatura media	9.8
10578	7	Sololá	701	Sololá	3	Barraneche	2	Febrero	2023-02-25T00:00:00	2024-11-06T02:00:00	4	Temperatura máxima	11.1
10579	7	Sololá	701	Sololá	3	Barraneche	2	Febrero	2023-02-25T00:00:00	2024-11-06T02:00:00	3	Temperatura mínima	9.8
10580	7	Sololá	701	Sololá	3	Barraneche	2	Febrero	2023-02-25T00:00:00	2024-11-06T02:00:00	5	Humedad	36
10581	7	Sololá	701	Sololá	3	Barraneche	2	Febrero	2023-02-25T00:00:00	2024-11-06T02:00:00	6	Velocidad del viento	6.4
10582	7	Sololá	701	Sololá	3	Barraneche	2	Febrero	2023-02-25T00:00:00	2024-11-06T02:00:00	7	Dirección del viento	6.44
10583	7	Sololá	701	Sololá	3	Barraneche	2	Febrero	2023-02-25T00:00:00	2024-11-06T02:00:00	1	Precipitación	0
10584	7	Sololá	701	Sololá	3	Barraneche	2	Febrero	2023-02-25T00:00:00	2024-11-06T02:00:00	8	Radiación solar	0
10585	7	Sololá	701	Sololá	3	Barraneche	2	Febrero	2023-02-25T00:00:00	2024-11-06T03:00:00	2	Temperatura media	8.4
10586	7	Sololá	701	Sololá	3	Barraneche	2	Febrero	2023-02-25T00:00:00	2024-11-06T03:00:00	4	Temperatura máxima	9.9
10587	7	Sololá	701	Sololá	3	Barraneche	2	Febrero	2023-02-25T00:00:00	2024-11-06T03:00:00	3	Temperatura mínima	8.3
10588	7	Sololá	701	Sololá	3	Barraneche	2	Febrero	2023-02-25T00:00:00	2024-11-06T03:00:00	5	Humedad	39
10589	7	Sololá	701	Sololá	3	Barraneche	2	Febrero	2023-02-25T00:00:00	2024-11-06T03:00:00	6	Velocidad del viento	4.8
10590	7	Sololá	701	Sololá	3	Barraneche	2	Febrero	2023-02-25T00:00:00	2024-11-06T03:00:00	7	Dirección del viento	4.83
10591	7	Sololá	701	Sololá	3	Barraneche	2	Febrero	2023-02-25T00:00:00	2024-11-06T03:00:00	1	Precipitación	0
10592	7	Sololá	701	Sololá	3	Barraneche	2	Febrero	2023-02-25T00:00:00	2024-11-06T03:00:00	8	Radiación solar	0
10593	7	Sololá	701	Sololá	3	Barraneche	2	Febrero	2023-02-25T00:00:00	2024-11-06T04:00:00	2	Temperatura media	8.7
10594	7	Sololá	701	Sololá	3	Barraneche	2	Febrero	2023-02-25T00:00:00	2024-11-06T04:00:00	4	Temperatura máxima	8.8
10595	7	Sololá	701	Sololá	3	Barraneche	2	Febrero	2023-02-25T00:00:00	2024-11-06T04:00:00	3	Temperatura mínima	8.2
10596	7	Sololá	701	Sololá	3	Barraneche	2	Febrero	2023-02-25T00:00:00	2024-11-06T04:00:00	5	Humedad	36
10597	7	Sololá	701	Sololá	3	Barraneche	2	Febrero	2023-02-25T00:00:00	2024-11-06T04:00:00	6	Velocidad del viento	6.4
10598	7	Sololá	701	Sololá	3	Barraneche	2	Febrero	2023-02-25T00:00:00	2024-11-06T04:00:00	7	Dirección del viento	6.44
10599	7	Sololá	701	Sololá	3	Barraneche	2	Febrero	2023-02-25T00:00:00	2024-11-06T04:00:00	1	Precipitación	0
10600	7	Sololá	701	Sololá	3	Barraneche	2	Febrero	2023-02-25T00:00:00	2024-11-06T04:00:00	8	Radiación solar	0
10601	7	Sololá	701	Sololá	3	Barraneche	2	Febrero	2023-02-25T00:00:00	2024-11-06T05:00:00	2	Temperatura media	8.9
10602	7	Sololá	701	Sololá	3	Barraneche	2	Febrero	2023-02-25T00:00:00	2024-11-06T05:00:00	4	Temperatura máxima	9.1
10603	7	Sololá	701	Sololá	3	Barraneche	2	Febrero	2023-02-25T00:00:00	2024-11-06T05:00:00	3	Temperatura mínima	8.3
10604	7	Sololá	701	Sololá	3	Barraneche	2	Febrero	2023-02-25T00:00:00	2024-11-06T05:00:00	5	Humedad	35
10605	7	Sololá	701	Sololá	3	Barraneche	2	Febrero	2023-02-25T00:00:00	2024-11-06T05:00:00	6	Velocidad del viento	6.4
10606	7	Sololá	701	Sololá	3	Barraneche	2	Febrero	2023-02-25T00:00:00	2024-11-06T05:00:00	7	Dirección del viento	6.44
10607	7	Sololá	701	Sololá	3	Barraneche	2	Febrero	2023-02-25T00:00:00	2024-11-06T05:00:00	1	Precipitación	0
10608	7	Sololá	701	Sololá	3	Barraneche	2	Febrero	2023-02-25T00:00:00	2024-11-06T05:00:00	8	Radiación solar	0
10609	7	Sololá	701	Sololá	3	Barraneche	2	Febrero	2023-02-25T00:00:00	2024-11-06T06:00:00	2	Temperatura media	8.6
10610	7	Sololá	701	Sololá	3	Barraneche	2	Febrero	2023-02-25T00:00:00	2024-11-06T06:00:00	4	Temperatura máxima	9.6
10611	7	Sololá	701	Sololá	3	Barraneche	2	Febrero	2023-02-25T00:00:00	2024-11-06T06:00:00	3	Temperatura mínima	8.3
10612	7	Sololá	701	Sololá	3	Barraneche	2	Febrero	2023-02-25T00:00:00	2024-11-06T06:00:00	5	Humedad	31
10613	7	Sololá	701	Sololá	3	Barraneche	2	Febrero	2023-02-25T00:00:00	2024-11-06T06:00:00	6	Velocidad del viento	4.8
10614	7	Sololá	701	Sololá	3	Barraneche	2	Febrero	2023-02-25T00:00:00	2024-11-06T06:00:00	7	Dirección del viento	4.83
10615	7	Sololá	701	Sololá	3	Barraneche	2	Febrero	2023-02-25T00:00:00	2024-11-06T06:00:00	1	Precipitación	0
10616	7	Sololá	701	Sololá	3	Barraneche	2	Febrero	2023-02-25T00:00:00	2024-11-06T06:00:00	8	Radiación solar	0
10617	7	Sololá	701	Sololá	3	Barraneche	2	Febrero	2023-02-25T00:00:00	2024-11-06T07:00:00	2	Temperatura media	8.7
10618	7	Sololá	701	Sololá	3	Barraneche	2	Febrero	2023-02-25T00:00:00	2024-11-06T07:00:00	4	Temperatura máxima	9
10619	7	Sololá	701	Sololá	3	Barraneche	2	Febrero	2023-02-25T00:00:00	2024-11-06T07:00:00	3	Temperatura mínima	8.1
10620	7	Sololá	701	Sololá	3	Barraneche	2	Febrero	2023-02-25T00:00:00	2024-11-06T07:00:00	5	Humedad	33
10621	7	Sololá	701	Sololá	3	Barraneche	2	Febrero	2023-02-25T00:00:00	2024-11-06T07:00:00	6	Velocidad del viento	4.8
10622	7	Sololá	701	Sololá	3	Barraneche	2	Febrero	2023-02-25T00:00:00	2024-11-06T07:00:00	7	Dirección del viento	4.83
10623	7	Sololá	701	Sololá	3	Barraneche	2	Febrero	2023-02-25T00:00:00	2024-11-06T07:00:00	1	Precipitación	0
10624	7	Sololá	701	Sololá	3	Barraneche	2	Febrero	2023-02-25T00:00:00	2024-11-06T07:00:00	8	Radiación solar	8
10625	7	Sololá	701	Sololá	3	Barraneche	2	Febrero	2023-02-25T00:00:00	2024-11-06T08:00:00	2	Temperatura media	14.2
10626	7	Sololá	701	Sololá	3	Barraneche	2	Febrero	2023-02-25T00:00:00	2024-11-06T08:00:00	4	Temperatura máxima	14.2
10627	7	Sololá	701	Sololá	3	Barraneche	2	Febrero	2023-02-25T00:00:00	2024-11-06T08:00:00	3	Temperatura mínima	8.3
10628	7	Sololá	701	Sololá	3	Barraneche	2	Febrero	2023-02-25T00:00:00	2024-11-06T08:00:00	5	Humedad	24
10629	7	Sololá	701	Sololá	3	Barraneche	2	Febrero	2023-02-25T00:00:00	2024-11-06T08:00:00	6	Velocidad del viento	4.8
10630	7	Sololá	701	Sololá	3	Barraneche	2	Febrero	2023-02-25T00:00:00	2024-11-06T08:00:00	7	Dirección del viento	4.83
10631	7	Sololá	701	Sololá	3	Barraneche	2	Febrero	2023-02-25T00:00:00	2024-11-06T08:00:00	1	Precipitación	0
10632	7	Sololá	701	Sololá	3	Barraneche	2	Febrero	2023-02-25T00:00:00	2024-11-06T08:00:00	8	Radiación solar	201
10633	7	Sololá	701	Sololá	3	Barraneche	2	Febrero	2023-02-25T00:00:00	2024-11-06T09:00:00	2	Temperatura media	18.3
10634	7	Sololá	701	Sololá	3	Barraneche	2	Febrero	2023-02-25T00:00:00	2024-11-06T09:00:00	4	Temperatura máxima	18.3
10635	7	Sololá	701	Sololá	3	Barraneche	2	Febrero	2023-02-25T00:00:00	2024-11-06T09:00:00	3	Temperatura mínima	14.2
10636	7	Sololá	701	Sololá	3	Barraneche	2	Febrero	2023-02-25T00:00:00	2024-11-06T09:00:00	5	Humedad	16
10637	7	Sololá	701	Sololá	3	Barraneche	2	Febrero	2023-02-25T00:00:00	2024-11-06T09:00:00	6	Velocidad del viento	3.2
10638	7	Sololá	701	Sololá	3	Barraneche	2	Febrero	2023-02-25T00:00:00	2024-11-06T09:00:00	7	Dirección del viento	3.22
10639	7	Sololá	701	Sololá	3	Barraneche	2	Febrero	2023-02-25T00:00:00	2024-11-06T09:00:00	1	Precipitación	0
10640	7	Sololá	701	Sololá	3	Barraneche	2	Febrero	2023-02-25T00:00:00	2024-11-06T09:00:00	8	Radiación solar	486
10641	7	Sololá	701	Sololá	3	Barraneche	2	Febrero	2023-02-25T00:00:00	2024-11-06T10:00:00	2	Temperatura media	18.7
10642	7	Sololá	701	Sololá	3	Barraneche	2	Febrero	2023-02-25T00:00:00	2024-11-06T10:00:00	4	Temperatura máxima	19.3
10643	7	Sololá	701	Sololá	3	Barraneche	2	Febrero	2023-02-25T00:00:00	2024-11-06T10:00:00	3	Temperatura mínima	18.3
10644	7	Sololá	701	Sololá	3	Barraneche	2	Febrero	2023-02-25T00:00:00	2024-11-06T10:00:00	5	Humedad	20
10645	7	Sololá	701	Sololá	3	Barraneche	2	Febrero	2023-02-25T00:00:00	2024-11-06T10:00:00	6	Velocidad del viento	6.4
10646	7	Sololá	701	Sololá	3	Barraneche	2	Febrero	2023-02-25T00:00:00	2024-11-06T10:00:00	7	Dirección del viento	6.44
10647	7	Sololá	701	Sololá	3	Barraneche	2	Febrero	2023-02-25T00:00:00	2024-11-06T10:00:00	1	Precipitación	0
10648	7	Sololá	701	Sololá	3	Barraneche	2	Febrero	2023-02-25T00:00:00	2024-11-06T10:00:00	8	Radiación solar	715
10649	7	Sololá	701	Sololá	3	Barraneche	2	Febrero	2023-02-25T00:00:00	2024-11-06T11:00:00	2	Temperatura media	19.7
10650	7	Sololá	701	Sololá	3	Barraneche	2	Febrero	2023-02-25T00:00:00	2024-11-06T11:00:00	4	Temperatura máxima	19.8
10651	7	Sololá	701	Sololá	3	Barraneche	2	Febrero	2023-02-25T00:00:00	2024-11-06T11:00:00	3	Temperatura mínima	18.7
10652	7	Sololá	701	Sololá	3	Barraneche	2	Febrero	2023-02-25T00:00:00	2024-11-06T11:00:00	5	Humedad	17
10653	7	Sololá	701	Sololá	3	Barraneche	2	Febrero	2023-02-25T00:00:00	2024-11-06T11:00:00	6	Velocidad del viento	11.3
10654	7	Sololá	701	Sololá	3	Barraneche	2	Febrero	2023-02-25T00:00:00	2024-11-06T11:00:00	7	Dirección del viento	11.27
10655	7	Sololá	701	Sololá	3	Barraneche	2	Febrero	2023-02-25T00:00:00	2024-11-06T11:00:00	1	Precipitación	0
10656	7	Sololá	701	Sololá	3	Barraneche	2	Febrero	2023-02-25T00:00:00	2024-11-06T11:00:00	8	Radiación solar	887
10657	7	Sololá	701	Sololá	3	Barraneche	2	Febrero	2023-02-25T00:00:00	2024-11-06T12:00:00	2	Temperatura media	21.1
10658	7	Sololá	701	Sololá	3	Barraneche	2	Febrero	2023-02-25T00:00:00	2024-11-06T12:00:00	4	Temperatura máxima	21.4
10659	7	Sololá	701	Sololá	3	Barraneche	2	Febrero	2023-02-25T00:00:00	2024-11-06T12:00:00	3	Temperatura mínima	19.7
10660	7	Sololá	701	Sololá	3	Barraneche	2	Febrero	2023-02-25T00:00:00	2024-11-06T12:00:00	5	Humedad	16
10661	7	Sololá	701	Sololá	3	Barraneche	2	Febrero	2023-02-25T00:00:00	2024-11-06T12:00:00	6	Velocidad del viento	11.3
10662	7	Sololá	701	Sololá	3	Barraneche	2	Febrero	2023-02-25T00:00:00	2024-11-06T12:00:00	7	Dirección del viento	11.27
10663	7	Sololá	701	Sololá	3	Barraneche	2	Febrero	2023-02-25T00:00:00	2024-11-06T12:00:00	1	Precipitación	0
10664	7	Sololá	701	Sololá	3	Barraneche	2	Febrero	2023-02-25T00:00:00	2024-11-06T12:00:00	8	Radiación solar	988
10665	7	Sololá	701	Sololá	3	Barraneche	2	Febrero	2023-02-25T00:00:00	2024-11-06T13:00:00	2	Temperatura media	21.8
10666	7	Sololá	701	Sololá	3	Barraneche	2	Febrero	2023-02-25T00:00:00	2024-11-06T13:00:00	4	Temperatura máxima	21.8
10667	7	Sololá	701	Sololá	3	Barraneche	2	Febrero	2023-02-25T00:00:00	2024-11-06T13:00:00	3	Temperatura mínima	21.1
10668	7	Sololá	701	Sololá	3	Barraneche	2	Febrero	2023-02-25T00:00:00	2024-11-06T13:00:00	5	Humedad	14
10669	7	Sololá	701	Sololá	3	Barraneche	2	Febrero	2023-02-25T00:00:00	2024-11-06T13:00:00	6	Velocidad del viento	12.9
10670	7	Sololá	701	Sololá	3	Barraneche	2	Febrero	2023-02-25T00:00:00	2024-11-06T13:00:00	7	Dirección del viento	12.87
10671	7	Sololá	701	Sololá	3	Barraneche	2	Febrero	2023-02-25T00:00:00	2024-11-06T13:00:00	1	Precipitación	0
10672	7	Sololá	701	Sololá	3	Barraneche	2	Febrero	2023-02-25T00:00:00	2024-11-06T13:00:00	8	Radiación solar	1005
10673	7	Sololá	701	Sololá	3	Barraneche	2	Febrero	2023-02-25T00:00:00	2024-11-06T14:00:00	2	Temperatura media	21.8
10674	7	Sololá	701	Sololá	3	Barraneche	2	Febrero	2023-02-25T00:00:00	2024-11-06T14:00:00	4	Temperatura máxima	22.1
10675	7	Sololá	701	Sololá	3	Barraneche	2	Febrero	2023-02-25T00:00:00	2024-11-06T14:00:00	3	Temperatura mínima	21.4
10676	7	Sololá	701	Sololá	3	Barraneche	2	Febrero	2023-02-25T00:00:00	2024-11-06T14:00:00	5	Humedad	18
10677	7	Sololá	701	Sololá	3	Barraneche	2	Febrero	2023-02-25T00:00:00	2024-11-06T14:00:00	6	Velocidad del viento	11.3
10678	7	Sololá	701	Sololá	3	Barraneche	2	Febrero	2023-02-25T00:00:00	2024-11-06T14:00:00	7	Dirección del viento	11.27
10679	7	Sololá	701	Sololá	3	Barraneche	2	Febrero	2023-02-25T00:00:00	2024-11-06T14:00:00	1	Precipitación	0
10680	7	Sololá	701	Sololá	3	Barraneche	2	Febrero	2023-02-25T00:00:00	2024-11-06T14:00:00	8	Radiación solar	945
10681	7	Sololá	701	Sololá	3	Barraneche	2	Febrero	2023-02-25T00:00:00	2024-11-06T15:00:00	2	Temperatura media	21.5
10682	7	Sololá	701	Sololá	3	Barraneche	2	Febrero	2023-02-25T00:00:00	2024-11-06T15:00:00	4	Temperatura máxima	22.3
10683	7	Sololá	701	Sololá	3	Barraneche	2	Febrero	2023-02-25T00:00:00	2024-11-06T15:00:00	3	Temperatura mínima	21.1
10684	7	Sololá	701	Sololá	3	Barraneche	2	Febrero	2023-02-25T00:00:00	2024-11-06T15:00:00	5	Humedad	20
10685	7	Sololá	701	Sololá	3	Barraneche	2	Febrero	2023-02-25T00:00:00	2024-11-06T15:00:00	6	Velocidad del viento	16.1
10686	7	Sololá	701	Sololá	3	Barraneche	2	Febrero	2023-02-25T00:00:00	2024-11-06T15:00:00	7	Dirección del viento	16.09
10687	7	Sololá	701	Sololá	3	Barraneche	2	Febrero	2023-02-25T00:00:00	2024-11-06T15:00:00	1	Precipitación	0
10688	7	Sololá	701	Sololá	3	Barraneche	2	Febrero	2023-02-25T00:00:00	2024-11-06T15:00:00	8	Radiación solar	811
10689	7	Sololá	701	Sololá	3	Barraneche	2	Febrero	2023-02-25T00:00:00	2024-11-06T16:00:00	2	Temperatura media	20.5
10690	7	Sololá	701	Sololá	3	Barraneche	2	Febrero	2023-02-25T00:00:00	2024-11-06T16:00:00	4	Temperatura máxima	21.4
10691	7	Sololá	701	Sololá	3	Barraneche	2	Febrero	2023-02-25T00:00:00	2024-11-06T16:00:00	3	Temperatura mínima	20.5
10692	7	Sololá	701	Sololá	3	Barraneche	2	Febrero	2023-02-25T00:00:00	2024-11-06T16:00:00	5	Humedad	18
10693	7	Sololá	701	Sololá	3	Barraneche	2	Febrero	2023-02-25T00:00:00	2024-11-06T16:00:00	6	Velocidad del viento	14.5
10694	7	Sololá	701	Sololá	3	Barraneche	2	Febrero	2023-02-25T00:00:00	2024-11-06T16:00:00	7	Dirección del viento	14.48
10695	7	Sololá	701	Sololá	3	Barraneche	2	Febrero	2023-02-25T00:00:00	2024-11-06T16:00:00	1	Precipitación	0
10696	7	Sololá	701	Sololá	3	Barraneche	2	Febrero	2023-02-25T00:00:00	2024-11-06T16:00:00	8	Radiación solar	608
10697	7	Sololá	701	Sololá	3	Barraneche	2	Febrero	2023-02-25T00:00:00	2024-11-06T17:00:00	2	Temperatura media	19.4
10698	7	Sololá	701	Sololá	3	Barraneche	2	Febrero	2023-02-25T00:00:00	2024-11-06T17:00:00	4	Temperatura máxima	20.7
10699	7	Sololá	701	Sololá	3	Barraneche	2	Febrero	2023-02-25T00:00:00	2024-11-06T17:00:00	3	Temperatura mínima	19.4
10700	7	Sololá	701	Sololá	3	Barraneche	2	Febrero	2023-02-25T00:00:00	2024-11-06T17:00:00	5	Humedad	33
10701	7	Sololá	701	Sololá	3	Barraneche	2	Febrero	2023-02-25T00:00:00	2024-11-06T17:00:00	6	Velocidad del viento	11.3
10702	7	Sololá	701	Sololá	3	Barraneche	2	Febrero	2023-02-25T00:00:00	2024-11-06T17:00:00	7	Dirección del viento	11.27
10703	7	Sololá	701	Sololá	3	Barraneche	2	Febrero	2023-02-25T00:00:00	2024-11-06T17:00:00	1	Precipitación	0
10704	7	Sololá	701	Sololá	3	Barraneche	2	Febrero	2023-02-25T00:00:00	2024-11-06T17:00:00	8	Radiación solar	367
10705	7	Sololá	701	Sololá	3	Barraneche	2	Febrero	2023-02-25T00:00:00	2024-11-06T18:00:00	2	Temperatura media	16.5
10706	7	Sololá	701	Sololá	3	Barraneche	2	Febrero	2023-02-25T00:00:00	2024-11-06T18:00:00	4	Temperatura máxima	19.4
10707	7	Sololá	701	Sololá	3	Barraneche	2	Febrero	2023-02-25T00:00:00	2024-11-06T18:00:00	3	Temperatura mínima	16.5
10708	7	Sololá	701	Sololá	3	Barraneche	2	Febrero	2023-02-25T00:00:00	2024-11-06T18:00:00	5	Humedad	50
10709	7	Sololá	701	Sololá	3	Barraneche	2	Febrero	2023-02-25T00:00:00	2024-11-06T18:00:00	6	Velocidad del viento	14.5
10710	7	Sololá	701	Sololá	3	Barraneche	2	Febrero	2023-02-25T00:00:00	2024-11-06T18:00:00	7	Dirección del viento	14.48
10711	7	Sololá	701	Sololá	3	Barraneche	2	Febrero	2023-02-25T00:00:00	2024-11-06T18:00:00	1	Precipitación	0
10712	7	Sololá	701	Sololá	3	Barraneche	2	Febrero	2023-02-25T00:00:00	2024-11-06T18:00:00	8	Radiación solar	99
10713	7	Sololá	701	Sololá	3	Barraneche	2	Febrero	2023-02-25T00:00:00	2024-11-06T19:00:00	2	Temperatura media	14.6
10714	7	Sololá	701	Sololá	3	Barraneche	2	Febrero	2023-02-25T00:00:00	2024-11-06T19:00:00	4	Temperatura máxima	16.5
10715	7	Sololá	701	Sololá	3	Barraneche	2	Febrero	2023-02-25T00:00:00	2024-11-06T19:00:00	3	Temperatura mínima	14.6
10716	7	Sololá	701	Sololá	3	Barraneche	2	Febrero	2023-02-25T00:00:00	2024-11-06T19:00:00	5	Humedad	58
10717	7	Sololá	701	Sololá	3	Barraneche	2	Febrero	2023-02-25T00:00:00	2024-11-06T19:00:00	6	Velocidad del viento	11.3
10718	7	Sololá	701	Sololá	3	Barraneche	2	Febrero	2023-02-25T00:00:00	2024-11-06T19:00:00	7	Dirección del viento	11.27
10719	7	Sololá	701	Sololá	3	Barraneche	2	Febrero	2023-02-25T00:00:00	2024-11-06T19:00:00	1	Precipitación	0
10720	7	Sololá	701	Sololá	3	Barraneche	2	Febrero	2023-02-25T00:00:00	2024-11-06T19:00:00	8	Radiación solar	0
10721	7	Sololá	701	Sololá	3	Barraneche	2	Febrero	2023-02-25T00:00:00	2024-11-06T20:00:00	2	Temperatura media	13.7
10722	7	Sololá	701	Sololá	3	Barraneche	2	Febrero	2023-02-25T00:00:00	2024-11-06T20:00:00	4	Temperatura máxima	14.6
10723	7	Sololá	701	Sololá	3	Barraneche	2	Febrero	2023-02-25T00:00:00	2024-11-06T20:00:00	3	Temperatura mínima	13.7
10724	7	Sololá	701	Sololá	3	Barraneche	2	Febrero	2023-02-25T00:00:00	2024-11-06T20:00:00	5	Humedad	58
10725	7	Sololá	701	Sololá	3	Barraneche	2	Febrero	2023-02-25T00:00:00	2024-11-06T20:00:00	6	Velocidad del viento	17.7
10726	7	Sololá	701	Sololá	3	Barraneche	2	Febrero	2023-02-25T00:00:00	2024-11-06T20:00:00	7	Dirección del viento	17.7
10727	7	Sololá	701	Sololá	3	Barraneche	2	Febrero	2023-02-25T00:00:00	2024-11-06T20:00:00	1	Precipitación	0
10728	7	Sololá	701	Sololá	3	Barraneche	2	Febrero	2023-02-25T00:00:00	2024-11-06T20:00:00	8	Radiación solar	0
10729	7	Sololá	701	Sololá	3	Barraneche	2	Febrero	2023-02-25T00:00:00	2024-11-06T21:00:00	2	Temperatura media	12.9
10730	7	Sololá	701	Sololá	3	Barraneche	2	Febrero	2023-02-25T00:00:00	2024-11-06T21:00:00	4	Temperatura máxima	13.8
10731	7	Sololá	701	Sololá	3	Barraneche	2	Febrero	2023-02-25T00:00:00	2024-11-06T21:00:00	3	Temperatura mínima	12.9
10732	7	Sololá	701	Sololá	3	Barraneche	2	Febrero	2023-02-25T00:00:00	2024-11-06T21:00:00	5	Humedad	57
10733	7	Sololá	701	Sololá	3	Barraneche	2	Febrero	2023-02-25T00:00:00	2024-11-06T21:00:00	6	Velocidad del viento	12.9
10734	7	Sololá	701	Sololá	3	Barraneche	2	Febrero	2023-02-25T00:00:00	2024-11-06T21:00:00	7	Dirección del viento	12.87
10735	7	Sololá	701	Sololá	3	Barraneche	2	Febrero	2023-02-25T00:00:00	2024-11-06T21:00:00	1	Precipitación	0
10736	7	Sololá	701	Sololá	3	Barraneche	2	Febrero	2023-02-25T00:00:00	2024-11-06T21:00:00	8	Radiación solar	0
10737	7	Sololá	701	Sololá	3	Barraneche	2	Febrero	2023-02-25T00:00:00	2024-11-06T22:00:00	2	Temperatura media	10.8
10738	7	Sololá	701	Sololá	3	Barraneche	2	Febrero	2023-02-25T00:00:00	2024-11-06T22:00:00	4	Temperatura máxima	13
10739	7	Sololá	701	Sololá	3	Barraneche	2	Febrero	2023-02-25T00:00:00	2024-11-06T22:00:00	3	Temperatura mínima	10.8
10740	7	Sololá	701	Sololá	3	Barraneche	2	Febrero	2023-02-25T00:00:00	2024-11-06T22:00:00	5	Humedad	48
10741	7	Sololá	701	Sololá	3	Barraneche	2	Febrero	2023-02-25T00:00:00	2024-11-06T22:00:00	6	Velocidad del viento	12.9
10742	7	Sololá	701	Sololá	3	Barraneche	2	Febrero	2023-02-25T00:00:00	2024-11-06T22:00:00	7	Dirección del viento	12.87
10743	7	Sololá	701	Sololá	3	Barraneche	2	Febrero	2023-02-25T00:00:00	2024-11-06T22:00:00	1	Precipitación	0
10744	7	Sololá	701	Sololá	3	Barraneche	2	Febrero	2023-02-25T00:00:00	2024-11-06T22:00:00	8	Radiación solar	0
10745	7	Sololá	701	Sololá	3	Barraneche	2	Febrero	2023-02-25T00:00:00	2024-11-06T23:00:00	2	Temperatura media	9.9
10746	7	Sololá	701	Sololá	3	Barraneche	2	Febrero	2023-02-25T00:00:00	2024-11-06T23:00:00	4	Temperatura máxima	12.3
10747	7	Sololá	701	Sololá	3	Barraneche	2	Febrero	2023-02-25T00:00:00	2024-11-06T23:00:00	3	Temperatura mínima	9.9
10748	7	Sololá	701	Sololá	3	Barraneche	2	Febrero	2023-02-25T00:00:00	2024-11-06T23:00:00	5	Humedad	34
10749	7	Sololá	701	Sololá	3	Barraneche	2	Febrero	2023-02-25T00:00:00	2024-11-06T23:00:00	6	Velocidad del viento	8
10750	7	Sololá	701	Sololá	3	Barraneche	2	Febrero	2023-02-25T00:00:00	2024-11-06T23:00:00	7	Dirección del viento	8.05
10751	7	Sololá	701	Sololá	3	Barraneche	2	Febrero	2023-02-25T00:00:00	2024-11-06T23:00:00	1	Precipitación	0
10752	7	Sololá	701	Sololá	3	Barraneche	2	Febrero	2023-02-25T00:00:00	2024-11-06T23:00:00	8	Radiación solar	0
10753	7	Sololá	701	Sololá	3	Barraneche	2	Febrero	2023-02-26T00:00:00	2024-11-06T00:00:00	2	Temperatura media	8.8
10754	7	Sololá	701	Sololá	3	Barraneche	2	Febrero	2023-02-26T00:00:00	2024-11-06T00:00:00	4	Temperatura máxima	9.8
10755	7	Sololá	701	Sololá	3	Barraneche	2	Febrero	2023-02-26T00:00:00	2024-11-06T00:00:00	3	Temperatura mínima	8.7
10756	7	Sololá	701	Sololá	3	Barraneche	2	Febrero	2023-02-26T00:00:00	2024-11-06T00:00:00	5	Humedad	30
10757	7	Sololá	701	Sololá	3	Barraneche	2	Febrero	2023-02-26T00:00:00	2024-11-06T00:00:00	6	Velocidad del viento	4.8
10758	7	Sololá	701	Sololá	3	Barraneche	2	Febrero	2023-02-26T00:00:00	2024-11-06T00:00:00	7	Dirección del viento	4.83
10759	7	Sololá	701	Sololá	3	Barraneche	2	Febrero	2023-02-26T00:00:00	2024-11-06T00:00:00	1	Precipitación	0
10760	7	Sololá	701	Sololá	3	Barraneche	2	Febrero	2023-02-26T00:00:00	2024-11-06T00:00:00	8	Radiación solar	0
10761	7	Sololá	701	Sololá	3	Barraneche	2	Febrero	2023-02-26T00:00:00	2024-11-06T01:00:00	2	Temperatura media	7.7
10762	7	Sololá	701	Sololá	3	Barraneche	2	Febrero	2023-02-26T00:00:00	2024-11-06T01:00:00	4	Temperatura máxima	9
10763	7	Sololá	701	Sololá	3	Barraneche	2	Febrero	2023-02-26T00:00:00	2024-11-06T01:00:00	3	Temperatura mínima	7.6
10764	7	Sololá	701	Sololá	3	Barraneche	2	Febrero	2023-02-26T00:00:00	2024-11-06T01:00:00	5	Humedad	33
10765	7	Sololá	701	Sololá	3	Barraneche	2	Febrero	2023-02-26T00:00:00	2024-11-06T01:00:00	6	Velocidad del viento	4.8
10766	7	Sololá	701	Sololá	3	Barraneche	2	Febrero	2023-02-26T00:00:00	2024-11-06T01:00:00	7	Dirección del viento	4.83
10767	7	Sololá	701	Sololá	3	Barraneche	2	Febrero	2023-02-26T00:00:00	2024-11-06T01:00:00	1	Precipitación	0
10768	7	Sololá	701	Sololá	3	Barraneche	2	Febrero	2023-02-26T00:00:00	2024-11-06T01:00:00	8	Radiación solar	0
10769	7	Sololá	701	Sololá	3	Barraneche	2	Febrero	2023-02-26T00:00:00	2024-11-06T02:00:00	2	Temperatura media	7.4
10770	7	Sololá	701	Sololá	3	Barraneche	2	Febrero	2023-02-26T00:00:00	2024-11-06T02:00:00	4	Temperatura máxima	7.9
10771	7	Sololá	701	Sololá	3	Barraneche	2	Febrero	2023-02-26T00:00:00	2024-11-06T02:00:00	3	Temperatura mínima	7.4
10772	7	Sololá	701	Sololá	3	Barraneche	2	Febrero	2023-02-26T00:00:00	2024-11-06T02:00:00	5	Humedad	34
10773	7	Sololá	701	Sololá	3	Barraneche	2	Febrero	2023-02-26T00:00:00	2024-11-06T02:00:00	6	Velocidad del viento	8
10774	7	Sololá	701	Sololá	3	Barraneche	2	Febrero	2023-02-26T00:00:00	2024-11-06T02:00:00	7	Dirección del viento	8.05
10775	7	Sololá	701	Sololá	3	Barraneche	2	Febrero	2023-02-26T00:00:00	2024-11-06T02:00:00	1	Precipitación	0
10776	7	Sololá	701	Sololá	3	Barraneche	2	Febrero	2023-02-26T00:00:00	2024-11-06T02:00:00	8	Radiación solar	0
10777	7	Sololá	701	Sololá	3	Barraneche	2	Febrero	2023-02-26T00:00:00	2024-11-06T03:00:00	2	Temperatura media	7.1
10778	7	Sololá	701	Sololá	3	Barraneche	2	Febrero	2023-02-26T00:00:00	2024-11-06T03:00:00	4	Temperatura máxima	7.7
10779	7	Sololá	701	Sololá	3	Barraneche	2	Febrero	2023-02-26T00:00:00	2024-11-06T03:00:00	3	Temperatura mínima	6.9
10780	7	Sololá	701	Sololá	3	Barraneche	2	Febrero	2023-02-26T00:00:00	2024-11-06T03:00:00	5	Humedad	34
10781	7	Sololá	701	Sololá	3	Barraneche	2	Febrero	2023-02-26T00:00:00	2024-11-06T03:00:00	6	Velocidad del viento	6.4
10782	7	Sololá	701	Sololá	3	Barraneche	2	Febrero	2023-02-26T00:00:00	2024-11-06T03:00:00	7	Dirección del viento	6.44
10783	7	Sololá	701	Sololá	3	Barraneche	2	Febrero	2023-02-26T00:00:00	2024-11-06T03:00:00	1	Precipitación	0
10784	7	Sololá	701	Sololá	3	Barraneche	2	Febrero	2023-02-26T00:00:00	2024-11-06T03:00:00	8	Radiación solar	0
10785	7	Sololá	701	Sololá	3	Barraneche	2	Febrero	2023-02-26T00:00:00	2024-11-06T04:00:00	2	Temperatura media	6.4
10786	7	Sololá	701	Sololá	3	Barraneche	2	Febrero	2023-02-26T00:00:00	2024-11-06T04:00:00	4	Temperatura máxima	7.3
10787	7	Sololá	701	Sololá	3	Barraneche	2	Febrero	2023-02-26T00:00:00	2024-11-06T04:00:00	3	Temperatura mínima	6.2
10788	7	Sololá	701	Sololá	3	Barraneche	2	Febrero	2023-02-26T00:00:00	2024-11-06T04:00:00	5	Humedad	35
10789	7	Sololá	701	Sololá	3	Barraneche	2	Febrero	2023-02-26T00:00:00	2024-11-06T04:00:00	6	Velocidad del viento	6.4
10790	7	Sololá	701	Sololá	3	Barraneche	2	Febrero	2023-02-26T00:00:00	2024-11-06T04:00:00	7	Dirección del viento	6.44
10791	7	Sololá	701	Sololá	3	Barraneche	2	Febrero	2023-02-26T00:00:00	2024-11-06T04:00:00	1	Precipitación	0
10792	7	Sololá	701	Sololá	3	Barraneche	2	Febrero	2023-02-26T00:00:00	2024-11-06T04:00:00	8	Radiación solar	0
10793	7	Sololá	701	Sololá	3	Barraneche	2	Febrero	2023-02-26T00:00:00	2024-11-06T05:00:00	2	Temperatura media	7.2
10794	7	Sololá	701	Sololá	3	Barraneche	2	Febrero	2023-02-26T00:00:00	2024-11-06T05:00:00	4	Temperatura máxima	7.2
10795	7	Sololá	701	Sololá	3	Barraneche	2	Febrero	2023-02-26T00:00:00	2024-11-06T05:00:00	3	Temperatura mínima	6.1
10796	7	Sololá	701	Sololá	3	Barraneche	2	Febrero	2023-02-26T00:00:00	2024-11-06T05:00:00	5	Humedad	32
10797	7	Sololá	701	Sololá	3	Barraneche	2	Febrero	2023-02-26T00:00:00	2024-11-06T05:00:00	6	Velocidad del viento	8
10798	7	Sololá	701	Sololá	3	Barraneche	2	Febrero	2023-02-26T00:00:00	2024-11-06T05:00:00	7	Dirección del viento	8.05
10799	7	Sololá	701	Sololá	3	Barraneche	2	Febrero	2023-02-26T00:00:00	2024-11-06T05:00:00	1	Precipitación	0
10800	7	Sololá	701	Sololá	3	Barraneche	2	Febrero	2023-02-26T00:00:00	2024-11-06T05:00:00	8	Radiación solar	0
10801	7	Sololá	701	Sololá	3	Barraneche	2	Febrero	2023-02-26T00:00:00	2024-11-06T06:00:00	2	Temperatura media	6.1
10802	7	Sololá	701	Sololá	3	Barraneche	2	Febrero	2023-02-26T00:00:00	2024-11-06T06:00:00	4	Temperatura máxima	7.2
10803	7	Sololá	701	Sololá	3	Barraneche	2	Febrero	2023-02-26T00:00:00	2024-11-06T06:00:00	3	Temperatura mínima	5.9
10804	7	Sololá	701	Sololá	3	Barraneche	2	Febrero	2023-02-26T00:00:00	2024-11-06T06:00:00	5	Humedad	36
10805	7	Sololá	701	Sololá	3	Barraneche	2	Febrero	2023-02-26T00:00:00	2024-11-06T06:00:00	6	Velocidad del viento	8
10806	7	Sololá	701	Sololá	3	Barraneche	2	Febrero	2023-02-26T00:00:00	2024-11-06T06:00:00	7	Dirección del viento	8.05
10807	7	Sololá	701	Sololá	3	Barraneche	2	Febrero	2023-02-26T00:00:00	2024-11-06T06:00:00	1	Precipitación	0
10808	7	Sololá	701	Sololá	3	Barraneche	2	Febrero	2023-02-26T00:00:00	2024-11-06T06:00:00	8	Radiación solar	0
10809	7	Sololá	701	Sololá	3	Barraneche	2	Febrero	2023-02-26T00:00:00	2024-11-06T07:00:00	2	Temperatura media	5.8
10810	7	Sololá	701	Sololá	3	Barraneche	2	Febrero	2023-02-26T00:00:00	2024-11-06T07:00:00	4	Temperatura máxima	6.3
10811	7	Sololá	701	Sololá	3	Barraneche	2	Febrero	2023-02-26T00:00:00	2024-11-06T07:00:00	3	Temperatura mínima	5.6
10812	7	Sololá	701	Sololá	3	Barraneche	2	Febrero	2023-02-26T00:00:00	2024-11-06T07:00:00	5	Humedad	38
10813	7	Sololá	701	Sololá	3	Barraneche	2	Febrero	2023-02-26T00:00:00	2024-11-06T07:00:00	6	Velocidad del viento	8
10814	7	Sololá	701	Sololá	3	Barraneche	2	Febrero	2023-02-26T00:00:00	2024-11-06T07:00:00	7	Dirección del viento	8.05
10815	7	Sololá	701	Sololá	3	Barraneche	2	Febrero	2023-02-26T00:00:00	2024-11-06T07:00:00	1	Precipitación	0
10816	7	Sololá	701	Sololá	3	Barraneche	2	Febrero	2023-02-26T00:00:00	2024-11-06T07:00:00	8	Radiación solar	8
10817	7	Sololá	701	Sololá	3	Barraneche	2	Febrero	2023-02-26T00:00:00	2024-11-06T08:00:00	2	Temperatura media	11.3
10818	7	Sololá	701	Sololá	3	Barraneche	2	Febrero	2023-02-26T00:00:00	2024-11-06T08:00:00	4	Temperatura máxima	11.3
10819	7	Sololá	701	Sololá	3	Barraneche	2	Febrero	2023-02-26T00:00:00	2024-11-06T08:00:00	3	Temperatura mínima	5.4
10820	7	Sololá	701	Sololá	3	Barraneche	2	Febrero	2023-02-26T00:00:00	2024-11-06T08:00:00	5	Humedad	31
10821	7	Sololá	701	Sololá	3	Barraneche	2	Febrero	2023-02-26T00:00:00	2024-11-06T08:00:00	6	Velocidad del viento	4.8
10822	7	Sololá	701	Sololá	3	Barraneche	2	Febrero	2023-02-26T00:00:00	2024-11-06T08:00:00	7	Dirección del viento	4.83
10823	7	Sololá	701	Sololá	3	Barraneche	2	Febrero	2023-02-26T00:00:00	2024-11-06T08:00:00	1	Precipitación	0
10824	7	Sololá	701	Sololá	3	Barraneche	2	Febrero	2023-02-26T00:00:00	2024-11-06T08:00:00	8	Radiación solar	213
10825	7	Sololá	701	Sololá	3	Barraneche	2	Febrero	2023-02-26T00:00:00	2024-11-06T09:00:00	2	Temperatura media	15.7
10826	7	Sololá	701	Sololá	3	Barraneche	2	Febrero	2023-02-26T00:00:00	2024-11-06T09:00:00	4	Temperatura máxima	15.8
10827	7	Sololá	701	Sololá	3	Barraneche	2	Febrero	2023-02-26T00:00:00	2024-11-06T09:00:00	3	Temperatura mínima	11.3
10828	7	Sololá	701	Sololá	3	Barraneche	2	Febrero	2023-02-26T00:00:00	2024-11-06T09:00:00	5	Humedad	26
10829	7	Sololá	701	Sololá	3	Barraneche	2	Febrero	2023-02-26T00:00:00	2024-11-06T09:00:00	6	Velocidad del viento	1.6
10830	7	Sololá	701	Sololá	3	Barraneche	2	Febrero	2023-02-26T00:00:00	2024-11-06T09:00:00	7	Dirección del viento	1.61
10831	7	Sololá	701	Sololá	3	Barraneche	2	Febrero	2023-02-26T00:00:00	2024-11-06T09:00:00	1	Precipitación	0
10832	7	Sololá	701	Sololá	3	Barraneche	2	Febrero	2023-02-26T00:00:00	2024-11-06T09:00:00	8	Radiación solar	500
10833	7	Sololá	701	Sololá	3	Barraneche	2	Febrero	2023-02-26T00:00:00	2024-11-06T10:00:00	2	Temperatura media	19.4
10834	7	Sololá	701	Sololá	3	Barraneche	2	Febrero	2023-02-26T00:00:00	2024-11-06T10:00:00	4	Temperatura máxima	19.4
10835	7	Sololá	701	Sololá	3	Barraneche	2	Febrero	2023-02-26T00:00:00	2024-11-06T10:00:00	3	Temperatura mínima	15.7
10836	7	Sololá	701	Sololá	3	Barraneche	2	Febrero	2023-02-26T00:00:00	2024-11-06T10:00:00	5	Humedad	12
10837	7	Sololá	701	Sololá	3	Barraneche	2	Febrero	2023-02-26T00:00:00	2024-11-06T10:00:00	6	Velocidad del viento	6.4
10838	7	Sololá	701	Sololá	3	Barraneche	2	Febrero	2023-02-26T00:00:00	2024-11-06T10:00:00	7	Dirección del viento	6.44
10839	7	Sololá	701	Sololá	3	Barraneche	2	Febrero	2023-02-26T00:00:00	2024-11-06T10:00:00	1	Precipitación	0
10840	7	Sololá	701	Sololá	3	Barraneche	2	Febrero	2023-02-26T00:00:00	2024-11-06T10:00:00	8	Radiación solar	729
10841	7	Sololá	701	Sololá	3	Barraneche	2	Febrero	2023-02-26T00:00:00	2024-11-06T11:00:00	2	Temperatura media	18.7
10842	7	Sololá	701	Sololá	3	Barraneche	2	Febrero	2023-02-26T00:00:00	2024-11-06T11:00:00	4	Temperatura máxima	19.8
10843	7	Sololá	701	Sololá	3	Barraneche	2	Febrero	2023-02-26T00:00:00	2024-11-06T11:00:00	3	Temperatura mínima	18.4
10844	7	Sololá	701	Sololá	3	Barraneche	2	Febrero	2023-02-26T00:00:00	2024-11-06T11:00:00	5	Humedad	18
10845	7	Sololá	701	Sololá	3	Barraneche	2	Febrero	2023-02-26T00:00:00	2024-11-06T11:00:00	6	Velocidad del viento	9.7
10846	7	Sololá	701	Sololá	3	Barraneche	2	Febrero	2023-02-26T00:00:00	2024-11-06T11:00:00	7	Dirección del viento	9.66
10847	7	Sololá	701	Sololá	3	Barraneche	2	Febrero	2023-02-26T00:00:00	2024-11-06T11:00:00	1	Precipitación	0
10848	7	Sololá	701	Sololá	3	Barraneche	2	Febrero	2023-02-26T00:00:00	2024-11-06T11:00:00	8	Radiación solar	901
10849	7	Sololá	701	Sololá	3	Barraneche	2	Febrero	2023-02-26T00:00:00	2024-11-06T12:00:00	2	Temperatura media	19.3
10850	7	Sololá	701	Sololá	3	Barraneche	2	Febrero	2023-02-26T00:00:00	2024-11-06T12:00:00	4	Temperatura máxima	19.4
10851	7	Sololá	701	Sololá	3	Barraneche	2	Febrero	2023-02-26T00:00:00	2024-11-06T12:00:00	3	Temperatura mínima	18.6
10852	7	Sololá	701	Sololá	3	Barraneche	2	Febrero	2023-02-26T00:00:00	2024-11-06T12:00:00	5	Humedad	20
10853	7	Sololá	701	Sololá	3	Barraneche	2	Febrero	2023-02-26T00:00:00	2024-11-06T12:00:00	6	Velocidad del viento	12.9
10854	7	Sololá	701	Sololá	3	Barraneche	2	Febrero	2023-02-26T00:00:00	2024-11-06T12:00:00	7	Dirección del viento	12.87
10855	7	Sololá	701	Sololá	3	Barraneche	2	Febrero	2023-02-26T00:00:00	2024-11-06T12:00:00	1	Precipitación	0
10856	7	Sololá	701	Sololá	3	Barraneche	2	Febrero	2023-02-26T00:00:00	2024-11-06T12:00:00	8	Radiación solar	992
10857	7	Sololá	701	Sololá	3	Barraneche	2	Febrero	2023-02-26T00:00:00	2024-11-06T13:00:00	2	Temperatura media	20.2
10858	7	Sololá	701	Sololá	3	Barraneche	2	Febrero	2023-02-26T00:00:00	2024-11-06T13:00:00	4	Temperatura máxima	20.6
10859	7	Sololá	701	Sololá	3	Barraneche	2	Febrero	2023-02-26T00:00:00	2024-11-06T13:00:00	3	Temperatura mínima	19.3
10860	7	Sololá	701	Sololá	3	Barraneche	2	Febrero	2023-02-26T00:00:00	2024-11-06T13:00:00	5	Humedad	21
10861	7	Sololá	701	Sololá	3	Barraneche	2	Febrero	2023-02-26T00:00:00	2024-11-06T13:00:00	6	Velocidad del viento	12.9
10862	7	Sololá	701	Sololá	3	Barraneche	2	Febrero	2023-02-26T00:00:00	2024-11-06T13:00:00	7	Dirección del viento	12.87
10863	7	Sololá	701	Sololá	3	Barraneche	2	Febrero	2023-02-26T00:00:00	2024-11-06T13:00:00	1	Precipitación	0
10864	7	Sololá	701	Sololá	3	Barraneche	2	Febrero	2023-02-26T00:00:00	2024-11-06T13:00:00	8	Radiación solar	1013
10865	7	Sololá	701	Sololá	3	Barraneche	2	Febrero	2023-02-26T00:00:00	2024-11-06T14:00:00	2	Temperatura media	20.4
10866	7	Sololá	701	Sololá	3	Barraneche	2	Febrero	2023-02-26T00:00:00	2024-11-06T14:00:00	4	Temperatura máxima	20.7
10867	7	Sololá	701	Sololá	3	Barraneche	2	Febrero	2023-02-26T00:00:00	2024-11-06T14:00:00	3	Temperatura mínima	19.9
10868	7	Sololá	701	Sololá	3	Barraneche	2	Febrero	2023-02-26T00:00:00	2024-11-06T14:00:00	5	Humedad	38
10869	7	Sololá	701	Sololá	3	Barraneche	2	Febrero	2023-02-26T00:00:00	2024-11-06T14:00:00	6	Velocidad del viento	12.9
10870	7	Sololá	701	Sololá	3	Barraneche	2	Febrero	2023-02-26T00:00:00	2024-11-06T14:00:00	7	Dirección del viento	12.87
10871	7	Sololá	701	Sololá	3	Barraneche	2	Febrero	2023-02-26T00:00:00	2024-11-06T14:00:00	1	Precipitación	0
10872	7	Sololá	701	Sololá	3	Barraneche	2	Febrero	2023-02-26T00:00:00	2024-11-06T14:00:00	8	Radiación solar	942
10873	7	Sololá	701	Sololá	3	Barraneche	2	Febrero	2023-02-26T00:00:00	2024-11-06T15:00:00	2	Temperatura media	18.3
10874	7	Sololá	701	Sololá	3	Barraneche	2	Febrero	2023-02-26T00:00:00	2024-11-06T15:00:00	4	Temperatura máxima	20.3
10875	7	Sololá	701	Sololá	3	Barraneche	2	Febrero	2023-02-26T00:00:00	2024-11-06T15:00:00	3	Temperatura mínima	18.3
10876	7	Sololá	701	Sololá	3	Barraneche	2	Febrero	2023-02-26T00:00:00	2024-11-06T15:00:00	5	Humedad	52
10877	7	Sololá	701	Sololá	3	Barraneche	2	Febrero	2023-02-26T00:00:00	2024-11-06T15:00:00	6	Velocidad del viento	16.1
10878	7	Sololá	701	Sololá	3	Barraneche	2	Febrero	2023-02-26T00:00:00	2024-11-06T15:00:00	7	Dirección del viento	16.09
10879	7	Sololá	701	Sololá	3	Barraneche	2	Febrero	2023-02-26T00:00:00	2024-11-06T15:00:00	1	Precipitación	0
10880	7	Sololá	701	Sololá	3	Barraneche	2	Febrero	2023-02-26T00:00:00	2024-11-06T15:00:00	8	Radiación solar	799
10881	7	Sololá	701	Sololá	3	Barraneche	2	Febrero	2023-02-26T00:00:00	2024-11-06T16:00:00	2	Temperatura media	17.3
10882	7	Sololá	701	Sololá	3	Barraneche	2	Febrero	2023-02-26T00:00:00	2024-11-06T16:00:00	4	Temperatura máxima	18.4
10883	7	Sololá	701	Sololá	3	Barraneche	2	Febrero	2023-02-26T00:00:00	2024-11-06T16:00:00	3	Temperatura mínima	17.3
10884	7	Sololá	701	Sololá	3	Barraneche	2	Febrero	2023-02-26T00:00:00	2024-11-06T16:00:00	5	Humedad	59
10885	7	Sololá	701	Sololá	3	Barraneche	2	Febrero	2023-02-26T00:00:00	2024-11-06T16:00:00	6	Velocidad del viento	14.5
10886	7	Sololá	701	Sololá	3	Barraneche	2	Febrero	2023-02-26T00:00:00	2024-11-06T16:00:00	7	Dirección del viento	14.48
10887	7	Sololá	701	Sololá	3	Barraneche	2	Febrero	2023-02-26T00:00:00	2024-11-06T16:00:00	1	Precipitación	0
10888	7	Sololá	701	Sololá	3	Barraneche	2	Febrero	2023-02-26T00:00:00	2024-11-06T16:00:00	8	Radiación solar	595
10889	7	Sololá	701	Sololá	3	Barraneche	2	Febrero	2023-02-26T00:00:00	2024-11-06T17:00:00	2	Temperatura media	15.8
10890	7	Sololá	701	Sololá	3	Barraneche	2	Febrero	2023-02-26T00:00:00	2024-11-06T17:00:00	4	Temperatura máxima	17.3
10891	7	Sololá	701	Sololá	3	Barraneche	2	Febrero	2023-02-26T00:00:00	2024-11-06T17:00:00	3	Temperatura mínima	15.7
10892	7	Sololá	701	Sololá	3	Barraneche	2	Febrero	2023-02-26T00:00:00	2024-11-06T17:00:00	5	Humedad	65
10893	7	Sololá	701	Sololá	3	Barraneche	2	Febrero	2023-02-26T00:00:00	2024-11-06T17:00:00	6	Velocidad del viento	16.1
10894	7	Sololá	701	Sololá	3	Barraneche	2	Febrero	2023-02-26T00:00:00	2024-11-06T17:00:00	7	Dirección del viento	16.09
10895	7	Sololá	701	Sololá	3	Barraneche	2	Febrero	2023-02-26T00:00:00	2024-11-06T17:00:00	1	Precipitación	0
10896	7	Sololá	701	Sololá	3	Barraneche	2	Febrero	2023-02-26T00:00:00	2024-11-06T17:00:00	8	Radiación solar	369
10897	7	Sololá	701	Sololá	3	Barraneche	2	Febrero	2023-02-26T00:00:00	2024-11-06T18:00:00	2	Temperatura media	14.2
10898	7	Sololá	701	Sololá	3	Barraneche	2	Febrero	2023-02-26T00:00:00	2024-11-06T18:00:00	4	Temperatura máxima	15.8
10899	7	Sololá	701	Sololá	3	Barraneche	2	Febrero	2023-02-26T00:00:00	2024-11-06T18:00:00	3	Temperatura mínima	14.2
10900	7	Sololá	701	Sololá	3	Barraneche	2	Febrero	2023-02-26T00:00:00	2024-11-06T18:00:00	5	Humedad	69
10901	7	Sololá	701	Sololá	3	Barraneche	2	Febrero	2023-02-26T00:00:00	2024-11-06T18:00:00	6	Velocidad del viento	9.7
10902	7	Sololá	701	Sololá	3	Barraneche	2	Febrero	2023-02-26T00:00:00	2024-11-06T18:00:00	7	Dirección del viento	9.66
10903	7	Sololá	701	Sololá	3	Barraneche	2	Febrero	2023-02-26T00:00:00	2024-11-06T18:00:00	1	Precipitación	0
10904	7	Sololá	701	Sololá	3	Barraneche	2	Febrero	2023-02-26T00:00:00	2024-11-06T18:00:00	8	Radiación solar	86
10905	7	Sololá	701	Sololá	3	Barraneche	2	Febrero	2023-02-26T00:00:00	2024-11-06T19:00:00	2	Temperatura media	11.3
10906	7	Sololá	701	Sololá	3	Barraneche	2	Febrero	2023-02-26T00:00:00	2024-11-06T19:00:00	4	Temperatura máxima	14.2
10907	7	Sololá	701	Sololá	3	Barraneche	2	Febrero	2023-02-26T00:00:00	2024-11-06T19:00:00	3	Temperatura mínima	11.3
10908	7	Sololá	701	Sololá	3	Barraneche	2	Febrero	2023-02-26T00:00:00	2024-11-06T19:00:00	5	Humedad	60
10909	7	Sololá	701	Sololá	3	Barraneche	2	Febrero	2023-02-26T00:00:00	2024-11-06T19:00:00	6	Velocidad del viento	3.2
10910	7	Sololá	701	Sololá	3	Barraneche	2	Febrero	2023-02-26T00:00:00	2024-11-06T19:00:00	7	Dirección del viento	3.22
10911	7	Sololá	701	Sololá	3	Barraneche	2	Febrero	2023-02-26T00:00:00	2024-11-06T19:00:00	1	Precipitación	0
10912	7	Sololá	701	Sololá	3	Barraneche	2	Febrero	2023-02-26T00:00:00	2024-11-06T19:00:00	8	Radiación solar	0
10913	7	Sololá	701	Sololá	3	Barraneche	2	Febrero	2023-02-26T00:00:00	2024-11-06T20:00:00	2	Temperatura media	10.7
10914	7	Sololá	701	Sololá	3	Barraneche	2	Febrero	2023-02-26T00:00:00	2024-11-06T20:00:00	4	Temperatura máxima	11.4
10915	7	Sololá	701	Sololá	3	Barraneche	2	Febrero	2023-02-26T00:00:00	2024-11-06T20:00:00	3	Temperatura mínima	10.6
10916	7	Sololá	701	Sololá	3	Barraneche	2	Febrero	2023-02-26T00:00:00	2024-11-06T20:00:00	5	Humedad	63
10917	7	Sololá	701	Sololá	3	Barraneche	2	Febrero	2023-02-26T00:00:00	2024-11-06T20:00:00	6	Velocidad del viento	4.8
10918	7	Sololá	701	Sololá	3	Barraneche	2	Febrero	2023-02-26T00:00:00	2024-11-06T20:00:00	7	Dirección del viento	4.83
10919	7	Sololá	701	Sololá	3	Barraneche	2	Febrero	2023-02-26T00:00:00	2024-11-06T20:00:00	1	Precipitación	0
10920	7	Sololá	701	Sololá	3	Barraneche	2	Febrero	2023-02-26T00:00:00	2024-11-06T20:00:00	8	Radiación solar	0
10921	7	Sololá	701	Sololá	3	Barraneche	2	Febrero	2023-02-26T00:00:00	2024-11-06T21:00:00	2	Temperatura media	9.4
10922	7	Sololá	701	Sololá	3	Barraneche	2	Febrero	2023-02-26T00:00:00	2024-11-06T21:00:00	4	Temperatura máxima	10.8
10923	7	Sololá	701	Sololá	3	Barraneche	2	Febrero	2023-02-26T00:00:00	2024-11-06T21:00:00	3	Temperatura mínima	9.4
10924	7	Sololá	701	Sololá	3	Barraneche	2	Febrero	2023-02-26T00:00:00	2024-11-06T21:00:00	5	Humedad	51
10925	7	Sololá	701	Sololá	3	Barraneche	2	Febrero	2023-02-26T00:00:00	2024-11-06T21:00:00	6	Velocidad del viento	6.4
10926	7	Sololá	701	Sololá	3	Barraneche	2	Febrero	2023-02-26T00:00:00	2024-11-06T21:00:00	7	Dirección del viento	6.44
10927	7	Sololá	701	Sololá	3	Barraneche	2	Febrero	2023-02-26T00:00:00	2024-11-06T21:00:00	1	Precipitación	0
10928	7	Sololá	701	Sololá	3	Barraneche	2	Febrero	2023-02-26T00:00:00	2024-11-06T21:00:00	8	Radiación solar	0
10929	7	Sololá	701	Sololá	3	Barraneche	2	Febrero	2023-02-26T00:00:00	2024-11-06T22:00:00	2	Temperatura media	8.2
10930	7	Sololá	701	Sololá	3	Barraneche	2	Febrero	2023-02-26T00:00:00	2024-11-06T22:00:00	4	Temperatura máxima	9.6
10931	7	Sololá	701	Sololá	3	Barraneche	2	Febrero	2023-02-26T00:00:00	2024-11-06T22:00:00	3	Temperatura mínima	8.2
10932	7	Sololá	701	Sololá	3	Barraneche	2	Febrero	2023-02-26T00:00:00	2024-11-06T22:00:00	5	Humedad	44
10933	7	Sololá	701	Sololá	3	Barraneche	2	Febrero	2023-02-26T00:00:00	2024-11-06T22:00:00	6	Velocidad del viento	8
10934	7	Sololá	701	Sololá	3	Barraneche	2	Febrero	2023-02-26T00:00:00	2024-11-06T22:00:00	7	Dirección del viento	8.05
10935	7	Sololá	701	Sololá	3	Barraneche	2	Febrero	2023-02-26T00:00:00	2024-11-06T22:00:00	1	Precipitación	0
10936	7	Sololá	701	Sololá	3	Barraneche	2	Febrero	2023-02-26T00:00:00	2024-11-06T22:00:00	8	Radiación solar	0
10937	7	Sololá	701	Sololá	3	Barraneche	2	Febrero	2023-02-26T00:00:00	2024-11-06T23:00:00	2	Temperatura media	7.4
10938	7	Sololá	701	Sololá	3	Barraneche	2	Febrero	2023-02-26T00:00:00	2024-11-06T23:00:00	4	Temperatura máxima	8.2
10939	7	Sololá	701	Sololá	3	Barraneche	2	Febrero	2023-02-26T00:00:00	2024-11-06T23:00:00	3	Temperatura mínima	7.2
10940	7	Sololá	701	Sololá	3	Barraneche	2	Febrero	2023-02-26T00:00:00	2024-11-06T23:00:00	5	Humedad	40
10941	7	Sololá	701	Sololá	3	Barraneche	2	Febrero	2023-02-26T00:00:00	2024-11-06T23:00:00	6	Velocidad del viento	9.7
10942	7	Sololá	701	Sololá	3	Barraneche	2	Febrero	2023-02-26T00:00:00	2024-11-06T23:00:00	7	Dirección del viento	9.66
10943	7	Sololá	701	Sololá	3	Barraneche	2	Febrero	2023-02-26T00:00:00	2024-11-06T23:00:00	1	Precipitación	0
10944	7	Sololá	701	Sololá	3	Barraneche	2	Febrero	2023-02-26T00:00:00	2024-11-06T23:00:00	8	Radiación solar	0
10945	7	Sololá	701	Sololá	3	Barraneche	2	Febrero	2023-02-27T00:00:00	2024-11-06T00:00:00	2	Temperatura media	7.3
10946	7	Sololá	701	Sololá	3	Barraneche	2	Febrero	2023-02-27T00:00:00	2024-11-06T00:00:00	4	Temperatura máxima	7.8
10947	7	Sololá	701	Sololá	3	Barraneche	2	Febrero	2023-02-27T00:00:00	2024-11-06T00:00:00	3	Temperatura mínima	7.1
10948	7	Sololá	701	Sololá	3	Barraneche	2	Febrero	2023-02-27T00:00:00	2024-11-06T00:00:00	5	Humedad	46
10949	7	Sololá	701	Sololá	3	Barraneche	2	Febrero	2023-02-27T00:00:00	2024-11-06T00:00:00	6	Velocidad del viento	9.7
10950	7	Sololá	701	Sololá	3	Barraneche	2	Febrero	2023-02-27T00:00:00	2024-11-06T00:00:00	7	Dirección del viento	9.66
10951	7	Sololá	701	Sololá	3	Barraneche	2	Febrero	2023-02-27T00:00:00	2024-11-06T00:00:00	1	Precipitación	0
10952	7	Sololá	701	Sololá	3	Barraneche	2	Febrero	2023-02-27T00:00:00	2024-11-06T00:00:00	8	Radiación solar	0
10953	7	Sololá	701	Sololá	3	Barraneche	2	Febrero	2023-02-27T00:00:00	2024-11-06T01:00:00	2	Temperatura media	6.8
10954	7	Sololá	701	Sololá	3	Barraneche	2	Febrero	2023-02-27T00:00:00	2024-11-06T01:00:00	4	Temperatura máxima	7.3
10955	7	Sololá	701	Sololá	3	Barraneche	2	Febrero	2023-02-27T00:00:00	2024-11-06T01:00:00	3	Temperatura mínima	6.8
10956	7	Sololá	701	Sololá	3	Barraneche	2	Febrero	2023-02-27T00:00:00	2024-11-06T01:00:00	5	Humedad	48
10957	7	Sololá	701	Sololá	3	Barraneche	2	Febrero	2023-02-27T00:00:00	2024-11-06T01:00:00	6	Velocidad del viento	9.7
10958	7	Sololá	701	Sololá	3	Barraneche	2	Febrero	2023-02-27T00:00:00	2024-11-06T01:00:00	7	Dirección del viento	9.66
10959	7	Sololá	701	Sololá	3	Barraneche	2	Febrero	2023-02-27T00:00:00	2024-11-06T01:00:00	1	Precipitación	0
10960	7	Sololá	701	Sololá	3	Barraneche	2	Febrero	2023-02-27T00:00:00	2024-11-06T01:00:00	8	Radiación solar	0
10961	7	Sololá	701	Sololá	3	Barraneche	2	Febrero	2023-02-27T00:00:00	2024-11-06T02:00:00	2	Temperatura media	7.2
10962	7	Sololá	701	Sololá	3	Barraneche	2	Febrero	2023-02-27T00:00:00	2024-11-06T02:00:00	4	Temperatura máxima	7.6
10963	7	Sololá	701	Sololá	3	Barraneche	2	Febrero	2023-02-27T00:00:00	2024-11-06T02:00:00	3	Temperatura mínima	6.5
10964	7	Sololá	701	Sololá	3	Barraneche	2	Febrero	2023-02-27T00:00:00	2024-11-06T02:00:00	5	Humedad	51
10965	7	Sololá	701	Sololá	3	Barraneche	2	Febrero	2023-02-27T00:00:00	2024-11-06T02:00:00	6	Velocidad del viento	8
10966	7	Sololá	701	Sololá	3	Barraneche	2	Febrero	2023-02-27T00:00:00	2024-11-06T02:00:00	7	Dirección del viento	8.05
10967	7	Sololá	701	Sololá	3	Barraneche	2	Febrero	2023-02-27T00:00:00	2024-11-06T02:00:00	1	Precipitación	0
10968	7	Sololá	701	Sololá	3	Barraneche	2	Febrero	2023-02-27T00:00:00	2024-11-06T02:00:00	8	Radiación solar	0
10969	7	Sololá	701	Sololá	3	Barraneche	2	Febrero	2023-02-27T00:00:00	2024-11-06T03:00:00	2	Temperatura media	6.9
10970	7	Sololá	701	Sololá	3	Barraneche	2	Febrero	2023-02-27T00:00:00	2024-11-06T03:00:00	4	Temperatura máxima	7.5
10971	7	Sololá	701	Sololá	3	Barraneche	2	Febrero	2023-02-27T00:00:00	2024-11-06T03:00:00	3	Temperatura mínima	6.8
10972	7	Sololá	701	Sololá	3	Barraneche	2	Febrero	2023-02-27T00:00:00	2024-11-06T03:00:00	5	Humedad	49
10973	7	Sololá	701	Sololá	3	Barraneche	2	Febrero	2023-02-27T00:00:00	2024-11-06T03:00:00	6	Velocidad del viento	8
10974	7	Sololá	701	Sololá	3	Barraneche	2	Febrero	2023-02-27T00:00:00	2024-11-06T03:00:00	7	Dirección del viento	8.05
10975	7	Sololá	701	Sololá	3	Barraneche	2	Febrero	2023-02-27T00:00:00	2024-11-06T03:00:00	1	Precipitación	0
10976	7	Sololá	701	Sololá	3	Barraneche	2	Febrero	2023-02-27T00:00:00	2024-11-06T03:00:00	8	Radiación solar	0
10977	7	Sololá	701	Sololá	3	Barraneche	2	Febrero	2023-02-27T00:00:00	2024-11-06T04:00:00	2	Temperatura media	6.7
10978	7	Sololá	701	Sololá	3	Barraneche	2	Febrero	2023-02-27T00:00:00	2024-11-06T04:00:00	4	Temperatura máxima	7.4
10979	7	Sololá	701	Sololá	3	Barraneche	2	Febrero	2023-02-27T00:00:00	2024-11-06T04:00:00	3	Temperatura mínima	6.3
10980	7	Sololá	701	Sololá	3	Barraneche	2	Febrero	2023-02-27T00:00:00	2024-11-06T04:00:00	5	Humedad	53
10981	7	Sololá	701	Sololá	3	Barraneche	2	Febrero	2023-02-27T00:00:00	2024-11-06T04:00:00	6	Velocidad del viento	9.7
10982	7	Sololá	701	Sololá	3	Barraneche	2	Febrero	2023-02-27T00:00:00	2024-11-06T04:00:00	7	Dirección del viento	9.66
10983	7	Sololá	701	Sololá	3	Barraneche	2	Febrero	2023-02-27T00:00:00	2024-11-06T04:00:00	1	Precipitación	0
10984	7	Sololá	701	Sololá	3	Barraneche	2	Febrero	2023-02-27T00:00:00	2024-11-06T04:00:00	8	Radiación solar	0
10985	7	Sololá	701	Sololá	3	Barraneche	2	Febrero	2023-02-27T00:00:00	2024-11-06T05:00:00	2	Temperatura media	6.6
10986	7	Sololá	701	Sololá	3	Barraneche	2	Febrero	2023-02-27T00:00:00	2024-11-06T05:00:00	4	Temperatura máxima	6.8
10987	7	Sololá	701	Sololá	3	Barraneche	2	Febrero	2023-02-27T00:00:00	2024-11-06T05:00:00	3	Temperatura mínima	6.4
10988	7	Sololá	701	Sololá	3	Barraneche	2	Febrero	2023-02-27T00:00:00	2024-11-06T05:00:00	5	Humedad	58
10989	7	Sololá	701	Sololá	3	Barraneche	2	Febrero	2023-02-27T00:00:00	2024-11-06T05:00:00	6	Velocidad del viento	11.3
10990	7	Sololá	701	Sololá	3	Barraneche	2	Febrero	2023-02-27T00:00:00	2024-11-06T05:00:00	7	Dirección del viento	11.27
10991	7	Sololá	701	Sololá	3	Barraneche	2	Febrero	2023-02-27T00:00:00	2024-11-06T05:00:00	1	Precipitación	0
10992	7	Sololá	701	Sololá	3	Barraneche	2	Febrero	2023-02-27T00:00:00	2024-11-06T05:00:00	8	Radiación solar	0
10993	7	Sololá	701	Sololá	3	Barraneche	2	Febrero	2023-02-27T00:00:00	2024-11-06T06:00:00	2	Temperatura media	6
10994	7	Sololá	701	Sololá	3	Barraneche	2	Febrero	2023-02-27T00:00:00	2024-11-06T06:00:00	4	Temperatura máxima	6.8
10995	7	Sololá	701	Sololá	3	Barraneche	2	Febrero	2023-02-27T00:00:00	2024-11-06T06:00:00	3	Temperatura mínima	5.8
10996	7	Sololá	701	Sololá	3	Barraneche	2	Febrero	2023-02-27T00:00:00	2024-11-06T06:00:00	5	Humedad	53
10997	7	Sololá	701	Sololá	3	Barraneche	2	Febrero	2023-02-27T00:00:00	2024-11-06T06:00:00	6	Velocidad del viento	11.3
10998	7	Sololá	701	Sololá	3	Barraneche	2	Febrero	2023-02-27T00:00:00	2024-11-06T06:00:00	7	Dirección del viento	11.27
10999	7	Sololá	701	Sololá	3	Barraneche	2	Febrero	2023-02-27T00:00:00	2024-11-06T06:00:00	1	Precipitación	0
11000	7	Sololá	701	Sololá	3	Barraneche	2	Febrero	2023-02-27T00:00:00	2024-11-06T06:00:00	8	Radiación solar	0
11001	7	Sololá	701	Sololá	3	Barraneche	2	Febrero	2023-02-27T00:00:00	2024-11-06T07:00:00	2	Temperatura media	6.6
11002	7	Sololá	701	Sololá	3	Barraneche	2	Febrero	2023-02-27T00:00:00	2024-11-06T07:00:00	4	Temperatura máxima	6.6
11003	7	Sololá	701	Sololá	3	Barraneche	2	Febrero	2023-02-27T00:00:00	2024-11-06T07:00:00	3	Temperatura mínima	5.7
11004	7	Sololá	701	Sololá	3	Barraneche	2	Febrero	2023-02-27T00:00:00	2024-11-06T07:00:00	5	Humedad	54
11005	7	Sololá	701	Sololá	3	Barraneche	2	Febrero	2023-02-27T00:00:00	2024-11-06T07:00:00	6	Velocidad del viento	11.3
11006	7	Sololá	701	Sololá	3	Barraneche	2	Febrero	2023-02-27T00:00:00	2024-11-06T07:00:00	7	Dirección del viento	11.27
11007	7	Sololá	701	Sololá	3	Barraneche	2	Febrero	2023-02-27T00:00:00	2024-11-06T07:00:00	1	Precipitación	0
11008	7	Sololá	701	Sololá	3	Barraneche	2	Febrero	2023-02-27T00:00:00	2024-11-06T07:00:00	8	Radiación solar	10
11009	7	Sololá	701	Sololá	3	Barraneche	2	Febrero	2023-02-27T00:00:00	2024-11-06T08:00:00	2	Temperatura media	10.8
11010	7	Sololá	701	Sololá	3	Barraneche	2	Febrero	2023-02-27T00:00:00	2024-11-06T08:00:00	4	Temperatura máxima	10.8
11011	7	Sololá	701	Sololá	3	Barraneche	2	Febrero	2023-02-27T00:00:00	2024-11-06T08:00:00	3	Temperatura mínima	6.6
11012	7	Sololá	701	Sololá	3	Barraneche	2	Febrero	2023-02-27T00:00:00	2024-11-06T08:00:00	5	Humedad	59
11013	7	Sololá	701	Sololá	3	Barraneche	2	Febrero	2023-02-27T00:00:00	2024-11-06T08:00:00	6	Velocidad del viento	8
11014	7	Sololá	701	Sololá	3	Barraneche	2	Febrero	2023-02-27T00:00:00	2024-11-06T08:00:00	7	Dirección del viento	8.05
11015	7	Sololá	701	Sololá	3	Barraneche	2	Febrero	2023-02-27T00:00:00	2024-11-06T08:00:00	1	Precipitación	0
11016	7	Sololá	701	Sololá	3	Barraneche	2	Febrero	2023-02-27T00:00:00	2024-11-06T08:00:00	8	Radiación solar	207
11017	7	Sololá	701	Sololá	3	Barraneche	2	Febrero	2023-02-27T00:00:00	2024-11-06T09:00:00	2	Temperatura media	13.8
11018	7	Sololá	701	Sololá	3	Barraneche	2	Febrero	2023-02-27T00:00:00	2024-11-06T09:00:00	4	Temperatura máxima	13.9
11019	7	Sololá	701	Sololá	3	Barraneche	2	Febrero	2023-02-27T00:00:00	2024-11-06T09:00:00	3	Temperatura mínima	10.8
11020	7	Sololá	701	Sololá	3	Barraneche	2	Febrero	2023-02-27T00:00:00	2024-11-06T09:00:00	5	Humedad	50
11021	7	Sololá	701	Sololá	3	Barraneche	2	Febrero	2023-02-27T00:00:00	2024-11-06T09:00:00	6	Velocidad del viento	4.8
11022	7	Sololá	701	Sololá	3	Barraneche	2	Febrero	2023-02-27T00:00:00	2024-11-06T09:00:00	7	Dirección del viento	4.83
11023	7	Sololá	701	Sololá	3	Barraneche	2	Febrero	2023-02-27T00:00:00	2024-11-06T09:00:00	1	Precipitación	0
11024	7	Sololá	701	Sololá	3	Barraneche	2	Febrero	2023-02-27T00:00:00	2024-11-06T09:00:00	8	Radiación solar	496
11025	7	Sololá	701	Sololá	3	Barraneche	2	Febrero	2023-02-27T00:00:00	2024-11-06T10:00:00	2	Temperatura media	16.9
11026	7	Sololá	701	Sololá	3	Barraneche	2	Febrero	2023-02-27T00:00:00	2024-11-06T10:00:00	4	Temperatura máxima	16.9
11027	7	Sololá	701	Sololá	3	Barraneche	2	Febrero	2023-02-27T00:00:00	2024-11-06T10:00:00	3	Temperatura mínima	13.8
11028	7	Sololá	701	Sololá	3	Barraneche	2	Febrero	2023-02-27T00:00:00	2024-11-06T10:00:00	5	Humedad	34
11029	7	Sololá	701	Sololá	3	Barraneche	2	Febrero	2023-02-27T00:00:00	2024-11-06T10:00:00	6	Velocidad del viento	4.8
11030	7	Sololá	701	Sololá	3	Barraneche	2	Febrero	2023-02-27T00:00:00	2024-11-06T10:00:00	7	Dirección del viento	4.83
11031	7	Sololá	701	Sololá	3	Barraneche	2	Febrero	2023-02-27T00:00:00	2024-11-06T10:00:00	1	Precipitación	0
11032	7	Sololá	701	Sololá	3	Barraneche	2	Febrero	2023-02-27T00:00:00	2024-11-06T10:00:00	8	Radiación solar	719
11033	7	Sololá	701	Sololá	3	Barraneche	2	Febrero	2023-02-27T00:00:00	2024-11-06T11:00:00	2	Temperatura media	17.9
11034	7	Sololá	701	Sololá	3	Barraneche	2	Febrero	2023-02-27T00:00:00	2024-11-06T11:00:00	4	Temperatura máxima	18.2
11035	7	Sololá	701	Sololá	3	Barraneche	2	Febrero	2023-02-27T00:00:00	2024-11-06T11:00:00	3	Temperatura mínima	16.9
11036	7	Sololá	701	Sololá	3	Barraneche	2	Febrero	2023-02-27T00:00:00	2024-11-06T11:00:00	5	Humedad	29
11037	7	Sololá	701	Sololá	3	Barraneche	2	Febrero	2023-02-27T00:00:00	2024-11-06T11:00:00	6	Velocidad del viento	8
11038	7	Sololá	701	Sololá	3	Barraneche	2	Febrero	2023-02-27T00:00:00	2024-11-06T11:00:00	7	Dirección del viento	8.05
11039	7	Sololá	701	Sololá	3	Barraneche	2	Febrero	2023-02-27T00:00:00	2024-11-06T11:00:00	1	Precipitación	0
11040	7	Sololá	701	Sololá	3	Barraneche	2	Febrero	2023-02-27T00:00:00	2024-11-06T11:00:00	8	Radiación solar	898
11041	7	Sololá	701	Sololá	3	Barraneche	2	Febrero	2023-02-27T00:00:00	2024-11-06T12:00:00	2	Temperatura media	18.4
11042	7	Sololá	701	Sololá	3	Barraneche	2	Febrero	2023-02-27T00:00:00	2024-11-06T12:00:00	4	Temperatura máxima	18.4
11043	7	Sololá	701	Sololá	3	Barraneche	2	Febrero	2023-02-27T00:00:00	2024-11-06T12:00:00	3	Temperatura mínima	17.9
11044	7	Sololá	701	Sololá	3	Barraneche	2	Febrero	2023-02-27T00:00:00	2024-11-06T12:00:00	5	Humedad	34
11045	7	Sololá	701	Sololá	3	Barraneche	2	Febrero	2023-02-27T00:00:00	2024-11-06T12:00:00	6	Velocidad del viento	12.9
11046	7	Sololá	701	Sololá	3	Barraneche	2	Febrero	2023-02-27T00:00:00	2024-11-06T12:00:00	7	Dirección del viento	12.87
11047	7	Sololá	701	Sololá	3	Barraneche	2	Febrero	2023-02-27T00:00:00	2024-11-06T12:00:00	1	Precipitación	0
11048	7	Sololá	701	Sololá	3	Barraneche	2	Febrero	2023-02-27T00:00:00	2024-11-06T12:00:00	8	Radiación solar	984
11049	7	Sololá	701	Sololá	3	Barraneche	2	Febrero	2023-02-27T00:00:00	2024-11-06T13:00:00	2	Temperatura media	18.4
11050	7	Sololá	701	Sololá	3	Barraneche	2	Febrero	2023-02-27T00:00:00	2024-11-06T13:00:00	4	Temperatura máxima	18.8
11051	7	Sololá	701	Sololá	3	Barraneche	2	Febrero	2023-02-27T00:00:00	2024-11-06T13:00:00	3	Temperatura mínima	18.3
11052	7	Sololá	701	Sololá	3	Barraneche	2	Febrero	2023-02-27T00:00:00	2024-11-06T13:00:00	5	Humedad	43
11053	7	Sololá	701	Sololá	3	Barraneche	2	Febrero	2023-02-27T00:00:00	2024-11-06T13:00:00	6	Velocidad del viento	12.9
11054	7	Sololá	701	Sololá	3	Barraneche	2	Febrero	2023-02-27T00:00:00	2024-11-06T13:00:00	7	Dirección del viento	12.87
11055	7	Sololá	701	Sololá	3	Barraneche	2	Febrero	2023-02-27T00:00:00	2024-11-06T13:00:00	1	Precipitación	0
11056	7	Sololá	701	Sololá	3	Barraneche	2	Febrero	2023-02-27T00:00:00	2024-11-06T13:00:00	8	Radiación solar	1004
11057	7	Sololá	701	Sololá	3	Barraneche	2	Febrero	2023-02-27T00:00:00	2024-11-06T14:00:00	2	Temperatura media	17.7
11058	7	Sololá	701	Sololá	3	Barraneche	2	Febrero	2023-02-27T00:00:00	2024-11-06T14:00:00	4	Temperatura máxima	18.4
11059	7	Sololá	701	Sololá	3	Barraneche	2	Febrero	2023-02-27T00:00:00	2024-11-06T14:00:00	3	Temperatura mínima	17.7
11060	7	Sololá	701	Sololá	3	Barraneche	2	Febrero	2023-02-27T00:00:00	2024-11-06T14:00:00	5	Humedad	54
11061	7	Sololá	701	Sololá	3	Barraneche	2	Febrero	2023-02-27T00:00:00	2024-11-06T14:00:00	6	Velocidad del viento	14.5
11062	7	Sololá	701	Sololá	3	Barraneche	2	Febrero	2023-02-27T00:00:00	2024-11-06T14:00:00	7	Dirección del viento	14.48
11063	7	Sololá	701	Sololá	3	Barraneche	2	Febrero	2023-02-27T00:00:00	2024-11-06T14:00:00	1	Precipitación	0
11064	7	Sololá	701	Sololá	3	Barraneche	2	Febrero	2023-02-27T00:00:00	2024-11-06T14:00:00	8	Radiación solar	936
11065	7	Sololá	701	Sololá	3	Barraneche	2	Febrero	2023-02-27T00:00:00	2024-11-06T15:00:00	2	Temperatura media	16.9
11066	7	Sololá	701	Sololá	3	Barraneche	2	Febrero	2023-02-27T00:00:00	2024-11-06T15:00:00	4	Temperatura máxima	17.8
11067	7	Sololá	701	Sololá	3	Barraneche	2	Febrero	2023-02-27T00:00:00	2024-11-06T15:00:00	3	Temperatura mínima	16.9
11068	7	Sololá	701	Sololá	3	Barraneche	2	Febrero	2023-02-27T00:00:00	2024-11-06T15:00:00	5	Humedad	61
11069	7	Sololá	701	Sololá	3	Barraneche	2	Febrero	2023-02-27T00:00:00	2024-11-06T15:00:00	6	Velocidad del viento	14.5
11070	7	Sololá	701	Sololá	3	Barraneche	2	Febrero	2023-02-27T00:00:00	2024-11-06T15:00:00	7	Dirección del viento	14.48
11071	7	Sololá	701	Sololá	3	Barraneche	2	Febrero	2023-02-27T00:00:00	2024-11-06T15:00:00	1	Precipitación	0
11072	7	Sololá	701	Sololá	3	Barraneche	2	Febrero	2023-02-27T00:00:00	2024-11-06T15:00:00	8	Radiación solar	774
11073	7	Sololá	701	Sololá	3	Barraneche	2	Febrero	2023-02-27T00:00:00	2024-11-06T16:00:00	2	Temperatura media	16.7
11074	7	Sololá	701	Sololá	3	Barraneche	2	Febrero	2023-02-27T00:00:00	2024-11-06T16:00:00	4	Temperatura máxima	17.1
11075	7	Sololá	701	Sololá	3	Barraneche	2	Febrero	2023-02-27T00:00:00	2024-11-06T16:00:00	3	Temperatura mínima	16.6
11076	7	Sololá	701	Sololá	3	Barraneche	2	Febrero	2023-02-27T00:00:00	2024-11-06T16:00:00	5	Humedad	63
11077	7	Sololá	701	Sololá	3	Barraneche	2	Febrero	2023-02-27T00:00:00	2024-11-06T16:00:00	6	Velocidad del viento	14.5
11078	7	Sololá	701	Sololá	3	Barraneche	2	Febrero	2023-02-27T00:00:00	2024-11-06T16:00:00	7	Dirección del viento	14.48
11079	7	Sololá	701	Sololá	3	Barraneche	2	Febrero	2023-02-27T00:00:00	2024-11-06T16:00:00	1	Precipitación	0
11080	7	Sololá	701	Sololá	3	Barraneche	2	Febrero	2023-02-27T00:00:00	2024-11-06T16:00:00	8	Radiación solar	617
11081	7	Sololá	701	Sololá	3	Barraneche	2	Febrero	2023-02-27T00:00:00	2024-11-06T17:00:00	2	Temperatura media	14.4
11082	7	Sololá	701	Sololá	3	Barraneche	2	Febrero	2023-02-27T00:00:00	2024-11-06T17:00:00	4	Temperatura máxima	16.7
11083	7	Sololá	701	Sololá	3	Barraneche	2	Febrero	2023-02-27T00:00:00	2024-11-06T17:00:00	3	Temperatura mínima	14.4
11084	7	Sololá	701	Sololá	3	Barraneche	2	Febrero	2023-02-27T00:00:00	2024-11-06T17:00:00	5	Humedad	70
11085	7	Sololá	701	Sololá	3	Barraneche	2	Febrero	2023-02-27T00:00:00	2024-11-06T17:00:00	6	Velocidad del viento	11.3
11086	7	Sololá	701	Sololá	3	Barraneche	2	Febrero	2023-02-27T00:00:00	2024-11-06T17:00:00	7	Dirección del viento	11.27
11087	7	Sololá	701	Sololá	3	Barraneche	2	Febrero	2023-02-27T00:00:00	2024-11-06T17:00:00	1	Precipitación	0
11088	7	Sololá	701	Sololá	3	Barraneche	2	Febrero	2023-02-27T00:00:00	2024-11-06T17:00:00	8	Radiación solar	137
11089	7	Sololá	701	Sololá	3	Barraneche	2	Febrero	2023-02-27T00:00:00	2024-11-06T18:00:00	2	Temperatura media	13.7
11090	7	Sololá	701	Sololá	3	Barraneche	2	Febrero	2023-02-27T00:00:00	2024-11-06T18:00:00	4	Temperatura máxima	14.4
11091	7	Sololá	701	Sololá	3	Barraneche	2	Febrero	2023-02-27T00:00:00	2024-11-06T18:00:00	3	Temperatura mínima	13.7
11092	7	Sololá	701	Sololá	3	Barraneche	2	Febrero	2023-02-27T00:00:00	2024-11-06T18:00:00	5	Humedad	72
11093	7	Sololá	701	Sololá	3	Barraneche	2	Febrero	2023-02-27T00:00:00	2024-11-06T18:00:00	6	Velocidad del viento	8
11094	7	Sololá	701	Sololá	3	Barraneche	2	Febrero	2023-02-27T00:00:00	2024-11-06T18:00:00	7	Dirección del viento	8.05
11095	7	Sololá	701	Sololá	3	Barraneche	2	Febrero	2023-02-27T00:00:00	2024-11-06T18:00:00	1	Precipitación	0
11096	7	Sololá	701	Sololá	3	Barraneche	2	Febrero	2023-02-27T00:00:00	2024-11-06T18:00:00	8	Radiación solar	20
11097	7	Sololá	701	Sololá	3	Barraneche	2	Febrero	2023-02-27T00:00:00	2024-11-06T19:00:00	2	Temperatura media	14.3
11098	7	Sololá	701	Sololá	3	Barraneche	2	Febrero	2023-02-27T00:00:00	2024-11-06T19:00:00	4	Temperatura máxima	14.3
11099	7	Sololá	701	Sololá	3	Barraneche	2	Febrero	2023-02-27T00:00:00	2024-11-06T19:00:00	3	Temperatura mínima	13.6
11100	7	Sololá	701	Sololá	3	Barraneche	2	Febrero	2023-02-27T00:00:00	2024-11-06T19:00:00	5	Humedad	68
11101	7	Sololá	701	Sololá	3	Barraneche	2	Febrero	2023-02-27T00:00:00	2024-11-06T19:00:00	6	Velocidad del viento	3.2
11102	7	Sololá	701	Sololá	3	Barraneche	2	Febrero	2023-02-27T00:00:00	2024-11-06T19:00:00	7	Dirección del viento	3.22
11103	7	Sololá	701	Sololá	3	Barraneche	2	Febrero	2023-02-27T00:00:00	2024-11-06T19:00:00	1	Precipitación	0
11104	7	Sololá	701	Sololá	3	Barraneche	2	Febrero	2023-02-27T00:00:00	2024-11-06T19:00:00	8	Radiación solar	0
11105	7	Sololá	701	Sololá	3	Barraneche	2	Febrero	2023-02-27T00:00:00	2024-11-06T20:00:00	2	Temperatura media	11.6
11106	7	Sololá	701	Sololá	3	Barraneche	2	Febrero	2023-02-27T00:00:00	2024-11-06T20:00:00	4	Temperatura máxima	14.3
11107	7	Sololá	701	Sololá	3	Barraneche	2	Febrero	2023-02-27T00:00:00	2024-11-06T20:00:00	3	Temperatura mínima	11.6
11108	7	Sololá	701	Sololá	3	Barraneche	2	Febrero	2023-02-27T00:00:00	2024-11-06T20:00:00	5	Humedad	68
11109	7	Sololá	701	Sololá	3	Barraneche	2	Febrero	2023-02-27T00:00:00	2024-11-06T20:00:00	6	Velocidad del viento	4.8
11110	7	Sololá	701	Sololá	3	Barraneche	2	Febrero	2023-02-27T00:00:00	2024-11-06T20:00:00	7	Dirección del viento	4.83
11111	7	Sololá	701	Sololá	3	Barraneche	2	Febrero	2023-02-27T00:00:00	2024-11-06T20:00:00	1	Precipitación	0
11112	7	Sololá	701	Sololá	3	Barraneche	2	Febrero	2023-02-27T00:00:00	2024-11-06T20:00:00	8	Radiación solar	0
11113	7	Sololá	701	Sololá	3	Barraneche	2	Febrero	2023-02-27T00:00:00	2024-11-06T21:00:00	2	Temperatura media	10.5
11114	7	Sololá	701	Sololá	3	Barraneche	2	Febrero	2023-02-27T00:00:00	2024-11-06T21:00:00	4	Temperatura máxima	11.6
11115	7	Sololá	701	Sololá	3	Barraneche	2	Febrero	2023-02-27T00:00:00	2024-11-06T21:00:00	3	Temperatura mínima	10.4
11116	7	Sololá	701	Sololá	3	Barraneche	2	Febrero	2023-02-27T00:00:00	2024-11-06T21:00:00	5	Humedad	65
11117	7	Sololá	701	Sololá	3	Barraneche	2	Febrero	2023-02-27T00:00:00	2024-11-06T21:00:00	6	Velocidad del viento	6.4
11118	7	Sololá	701	Sololá	3	Barraneche	2	Febrero	2023-02-27T00:00:00	2024-11-06T21:00:00	7	Dirección del viento	6.44
11119	7	Sololá	701	Sololá	3	Barraneche	2	Febrero	2023-02-27T00:00:00	2024-11-06T21:00:00	1	Precipitación	0
11120	7	Sololá	701	Sololá	3	Barraneche	2	Febrero	2023-02-27T00:00:00	2024-11-06T21:00:00	8	Radiación solar	0
11121	7	Sololá	701	Sololá	3	Barraneche	2	Febrero	2023-02-27T00:00:00	2024-11-06T22:00:00	2	Temperatura media	9.7
11122	7	Sololá	701	Sololá	3	Barraneche	2	Febrero	2023-02-27T00:00:00	2024-11-06T22:00:00	4	Temperatura máxima	10.5
11123	7	Sololá	701	Sololá	3	Barraneche	2	Febrero	2023-02-27T00:00:00	2024-11-06T22:00:00	3	Temperatura mínima	9.7
11124	7	Sololá	701	Sololá	3	Barraneche	2	Febrero	2023-02-27T00:00:00	2024-11-06T22:00:00	5	Humedad	63
11125	7	Sololá	701	Sololá	3	Barraneche	2	Febrero	2023-02-27T00:00:00	2024-11-06T22:00:00	6	Velocidad del viento	6.4
11126	7	Sololá	701	Sololá	3	Barraneche	2	Febrero	2023-02-27T00:00:00	2024-11-06T22:00:00	7	Dirección del viento	6.44
11127	7	Sololá	701	Sololá	3	Barraneche	2	Febrero	2023-02-27T00:00:00	2024-11-06T22:00:00	1	Precipitación	0
11128	7	Sololá	701	Sololá	3	Barraneche	2	Febrero	2023-02-27T00:00:00	2024-11-06T22:00:00	8	Radiación solar	0
11129	7	Sololá	701	Sololá	3	Barraneche	2	Febrero	2023-02-27T00:00:00	2024-11-06T23:00:00	2	Temperatura media	9.2
11130	7	Sololá	701	Sololá	3	Barraneche	2	Febrero	2023-02-27T00:00:00	2024-11-06T23:00:00	4	Temperatura máxima	9.8
11131	7	Sololá	701	Sololá	3	Barraneche	2	Febrero	2023-02-27T00:00:00	2024-11-06T23:00:00	3	Temperatura mínima	9.2
11132	7	Sololá	701	Sololá	3	Barraneche	2	Febrero	2023-02-27T00:00:00	2024-11-06T23:00:00	5	Humedad	56
11133	7	Sololá	701	Sololá	3	Barraneche	2	Febrero	2023-02-27T00:00:00	2024-11-06T23:00:00	6	Velocidad del viento	8
11134	7	Sololá	701	Sololá	3	Barraneche	2	Febrero	2023-02-27T00:00:00	2024-11-06T23:00:00	7	Dirección del viento	8.05
11135	7	Sololá	701	Sololá	3	Barraneche	2	Febrero	2023-02-27T00:00:00	2024-11-06T23:00:00	1	Precipitación	0
11136	7	Sololá	701	Sololá	3	Barraneche	2	Febrero	2023-02-27T00:00:00	2024-11-06T23:00:00	8	Radiación solar	0
11137	7	Sololá	701	Sololá	3	Barraneche	2	Febrero	2023-02-28T00:00:00	2024-11-06T00:00:00	2	Temperatura media	9
11138	7	Sololá	701	Sololá	3	Barraneche	2	Febrero	2023-02-28T00:00:00	2024-11-06T00:00:00	4	Temperatura máxima	9.2
11139	7	Sololá	701	Sololá	3	Barraneche	2	Febrero	2023-02-28T00:00:00	2024-11-06T00:00:00	3	Temperatura mínima	8.9
11140	7	Sololá	701	Sololá	3	Barraneche	2	Febrero	2023-02-28T00:00:00	2024-11-06T00:00:00	5	Humedad	57
11141	7	Sololá	701	Sololá	3	Barraneche	2	Febrero	2023-02-28T00:00:00	2024-11-06T00:00:00	6	Velocidad del viento	8
11142	7	Sololá	701	Sololá	3	Barraneche	2	Febrero	2023-02-28T00:00:00	2024-11-06T00:00:00	7	Dirección del viento	8.05
11143	7	Sololá	701	Sololá	3	Barraneche	2	Febrero	2023-02-28T00:00:00	2024-11-06T00:00:00	1	Precipitación	0
11144	7	Sololá	701	Sololá	3	Barraneche	2	Febrero	2023-02-28T00:00:00	2024-11-06T00:00:00	8	Radiación solar	0
11145	7	Sololá	701	Sololá	3	Barraneche	2	Febrero	2023-02-28T00:00:00	2024-11-06T01:00:00	2	Temperatura media	8.9
11146	7	Sololá	701	Sololá	3	Barraneche	2	Febrero	2023-02-28T00:00:00	2024-11-06T01:00:00	4	Temperatura máxima	9.6
11147	7	Sololá	701	Sololá	3	Barraneche	2	Febrero	2023-02-28T00:00:00	2024-11-06T01:00:00	3	Temperatura mínima	8.8
11148	7	Sololá	701	Sololá	3	Barraneche	2	Febrero	2023-02-28T00:00:00	2024-11-06T01:00:00	5	Humedad	55
11149	7	Sololá	701	Sololá	3	Barraneche	2	Febrero	2023-02-28T00:00:00	2024-11-06T01:00:00	6	Velocidad del viento	8
11150	7	Sololá	701	Sololá	3	Barraneche	2	Febrero	2023-02-28T00:00:00	2024-11-06T01:00:00	7	Dirección del viento	8.05
11151	7	Sololá	701	Sololá	3	Barraneche	2	Febrero	2023-02-28T00:00:00	2024-11-06T01:00:00	1	Precipitación	0
11152	7	Sololá	701	Sololá	3	Barraneche	2	Febrero	2023-02-28T00:00:00	2024-11-06T01:00:00	8	Radiación solar	0
11153	7	Sololá	701	Sololá	3	Barraneche	2	Febrero	2023-02-28T00:00:00	2024-11-06T02:00:00	2	Temperatura media	9.2
11154	7	Sololá	701	Sololá	3	Barraneche	2	Febrero	2023-02-28T00:00:00	2024-11-06T02:00:00	4	Temperatura máxima	9.3
11155	7	Sololá	701	Sololá	3	Barraneche	2	Febrero	2023-02-28T00:00:00	2024-11-06T02:00:00	3	Temperatura mínima	8.8
11156	7	Sololá	701	Sololá	3	Barraneche	2	Febrero	2023-02-28T00:00:00	2024-11-06T02:00:00	5	Humedad	54
11157	7	Sololá	701	Sololá	3	Barraneche	2	Febrero	2023-02-28T00:00:00	2024-11-06T02:00:00	6	Velocidad del viento	9.7
11158	7	Sololá	701	Sololá	3	Barraneche	2	Febrero	2023-02-28T00:00:00	2024-11-06T02:00:00	7	Dirección del viento	9.66
11159	7	Sololá	701	Sololá	3	Barraneche	2	Febrero	2023-02-28T00:00:00	2024-11-06T02:00:00	1	Precipitación	0
11160	7	Sololá	701	Sololá	3	Barraneche	2	Febrero	2023-02-28T00:00:00	2024-11-06T02:00:00	8	Radiación solar	0
11161	7	Sololá	701	Sololá	3	Barraneche	2	Febrero	2023-02-28T00:00:00	2024-11-06T03:00:00	2	Temperatura media	9.2
11162	7	Sololá	701	Sololá	3	Barraneche	2	Febrero	2023-02-28T00:00:00	2024-11-06T03:00:00	4	Temperatura máxima	9.2
11163	7	Sololá	701	Sololá	3	Barraneche	2	Febrero	2023-02-28T00:00:00	2024-11-06T03:00:00	3	Temperatura mínima	8.7
11164	7	Sololá	701	Sololá	3	Barraneche	2	Febrero	2023-02-28T00:00:00	2024-11-06T03:00:00	5	Humedad	44
11165	7	Sololá	701	Sololá	3	Barraneche	2	Febrero	2023-02-28T00:00:00	2024-11-06T03:00:00	6	Velocidad del viento	11.3
11166	7	Sololá	701	Sololá	3	Barraneche	2	Febrero	2023-02-28T00:00:00	2024-11-06T03:00:00	7	Dirección del viento	11.27
11167	7	Sololá	701	Sololá	3	Barraneche	2	Febrero	2023-02-28T00:00:00	2024-11-06T03:00:00	1	Precipitación	0
11168	7	Sololá	701	Sololá	3	Barraneche	2	Febrero	2023-02-28T00:00:00	2024-11-06T03:00:00	8	Radiación solar	0
11169	7	Sololá	701	Sololá	3	Barraneche	2	Febrero	2023-02-28T00:00:00	2024-11-06T04:00:00	2	Temperatura media	7.7
11170	7	Sololá	701	Sololá	3	Barraneche	2	Febrero	2023-02-28T00:00:00	2024-11-06T04:00:00	4	Temperatura máxima	9.2
11171	7	Sololá	701	Sololá	3	Barraneche	2	Febrero	2023-02-28T00:00:00	2024-11-06T04:00:00	3	Temperatura mínima	7.2
11172	7	Sololá	701	Sololá	3	Barraneche	2	Febrero	2023-02-28T00:00:00	2024-11-06T04:00:00	5	Humedad	38
11173	7	Sololá	701	Sololá	3	Barraneche	2	Febrero	2023-02-28T00:00:00	2024-11-06T04:00:00	6	Velocidad del viento	11.3
11174	7	Sololá	701	Sololá	3	Barraneche	2	Febrero	2023-02-28T00:00:00	2024-11-06T04:00:00	7	Dirección del viento	11.27
11175	7	Sololá	701	Sololá	3	Barraneche	2	Febrero	2023-02-28T00:00:00	2024-11-06T04:00:00	1	Precipitación	0
11176	7	Sololá	701	Sololá	3	Barraneche	2	Febrero	2023-02-28T00:00:00	2024-11-06T04:00:00	8	Radiación solar	0
11177	7	Sololá	701	Sololá	3	Barraneche	2	Febrero	2023-02-28T00:00:00	2024-11-06T05:00:00	2	Temperatura media	7.1
11178	7	Sololá	701	Sololá	3	Barraneche	2	Febrero	2023-02-28T00:00:00	2024-11-06T05:00:00	4	Temperatura máxima	7.7
11179	7	Sololá	701	Sololá	3	Barraneche	2	Febrero	2023-02-28T00:00:00	2024-11-06T05:00:00	3	Temperatura mínima	6.8
11180	7	Sololá	701	Sololá	3	Barraneche	2	Febrero	2023-02-28T00:00:00	2024-11-06T05:00:00	5	Humedad	35
11181	7	Sololá	701	Sololá	3	Barraneche	2	Febrero	2023-02-28T00:00:00	2024-11-06T05:00:00	6	Velocidad del viento	9.7
11182	7	Sololá	701	Sololá	3	Barraneche	2	Febrero	2023-02-28T00:00:00	2024-11-06T05:00:00	7	Dirección del viento	9.66
11183	7	Sololá	701	Sololá	3	Barraneche	2	Febrero	2023-02-28T00:00:00	2024-11-06T05:00:00	1	Precipitación	0
11184	7	Sololá	701	Sololá	3	Barraneche	2	Febrero	2023-02-28T00:00:00	2024-11-06T05:00:00	8	Radiación solar	0
11185	7	Sololá	701	Sololá	3	Barraneche	2	Febrero	2023-02-28T00:00:00	2024-11-06T06:00:00	2	Temperatura media	7.6
11186	7	Sololá	701	Sololá	3	Barraneche	2	Febrero	2023-02-28T00:00:00	2024-11-06T06:00:00	4	Temperatura máxima	7.7
11187	7	Sololá	701	Sololá	3	Barraneche	2	Febrero	2023-02-28T00:00:00	2024-11-06T06:00:00	3	Temperatura mínima	7
11188	7	Sololá	701	Sololá	3	Barraneche	2	Febrero	2023-02-28T00:00:00	2024-11-06T06:00:00	5	Humedad	31
11189	7	Sololá	701	Sololá	3	Barraneche	2	Febrero	2023-02-28T00:00:00	2024-11-06T06:00:00	6	Velocidad del viento	11.3
11190	7	Sololá	701	Sololá	3	Barraneche	2	Febrero	2023-02-28T00:00:00	2024-11-06T06:00:00	7	Dirección del viento	11.27
11191	7	Sololá	701	Sololá	3	Barraneche	2	Febrero	2023-02-28T00:00:00	2024-11-06T06:00:00	1	Precipitación	0
11192	7	Sololá	701	Sololá	3	Barraneche	2	Febrero	2023-02-28T00:00:00	2024-11-06T06:00:00	8	Radiación solar	0
11193	7	Sololá	701	Sololá	3	Barraneche	2	Febrero	2023-02-28T00:00:00	2024-11-06T07:00:00	2	Temperatura media	7.4
11194	7	Sololá	701	Sololá	3	Barraneche	2	Febrero	2023-02-28T00:00:00	2024-11-06T07:00:00	4	Temperatura máxima	7.8
11195	7	Sololá	701	Sololá	3	Barraneche	2	Febrero	2023-02-28T00:00:00	2024-11-06T07:00:00	3	Temperatura mínima	7.1
11196	7	Sololá	701	Sololá	3	Barraneche	2	Febrero	2023-02-28T00:00:00	2024-11-06T07:00:00	5	Humedad	37
11197	7	Sololá	701	Sololá	3	Barraneche	2	Febrero	2023-02-28T00:00:00	2024-11-06T07:00:00	6	Velocidad del viento	11.3
11198	7	Sololá	701	Sololá	3	Barraneche	2	Febrero	2023-02-28T00:00:00	2024-11-06T07:00:00	7	Dirección del viento	11.27
11199	7	Sololá	701	Sololá	3	Barraneche	2	Febrero	2023-02-28T00:00:00	2024-11-06T07:00:00	1	Precipitación	0
11200	7	Sololá	701	Sololá	3	Barraneche	2	Febrero	2023-02-28T00:00:00	2024-11-06T07:00:00	8	Radiación solar	9
11201	7	Sololá	701	Sololá	3	Barraneche	2	Febrero	2023-02-28T00:00:00	2024-11-06T08:00:00	2	Temperatura media	12.4
11202	7	Sololá	701	Sololá	3	Barraneche	2	Febrero	2023-02-28T00:00:00	2024-11-06T08:00:00	4	Temperatura máxima	12.5
11203	7	Sololá	701	Sololá	3	Barraneche	2	Febrero	2023-02-28T00:00:00	2024-11-06T08:00:00	3	Temperatura mínima	7.4
11204	7	Sololá	701	Sololá	3	Barraneche	2	Febrero	2023-02-28T00:00:00	2024-11-06T08:00:00	5	Humedad	37
11205	7	Sololá	701	Sololá	3	Barraneche	2	Febrero	2023-02-28T00:00:00	2024-11-06T08:00:00	6	Velocidad del viento	6.4
11206	7	Sololá	701	Sololá	3	Barraneche	2	Febrero	2023-02-28T00:00:00	2024-11-06T08:00:00	7	Dirección del viento	6.44
11207	7	Sololá	701	Sololá	3	Barraneche	2	Febrero	2023-02-28T00:00:00	2024-11-06T08:00:00	1	Precipitación	0
11208	7	Sololá	701	Sololá	3	Barraneche	2	Febrero	2023-02-28T00:00:00	2024-11-06T08:00:00	8	Radiación solar	215
11209	7	Sololá	701	Sololá	3	Barraneche	2	Febrero	2023-02-28T00:00:00	2024-11-06T09:00:00	2	Temperatura media	16.1
11210	7	Sololá	701	Sololá	3	Barraneche	2	Febrero	2023-02-28T00:00:00	2024-11-06T09:00:00	4	Temperatura máxima	16.1
11211	7	Sololá	701	Sololá	3	Barraneche	2	Febrero	2023-02-28T00:00:00	2024-11-06T09:00:00	3	Temperatura mínima	12.5
11212	7	Sololá	701	Sololá	3	Barraneche	2	Febrero	2023-02-28T00:00:00	2024-11-06T09:00:00	5	Humedad	33
11213	7	Sololá	701	Sololá	3	Barraneche	2	Febrero	2023-02-28T00:00:00	2024-11-06T09:00:00	6	Velocidad del viento	4.8
11214	7	Sololá	701	Sololá	3	Barraneche	2	Febrero	2023-02-28T00:00:00	2024-11-06T09:00:00	7	Dirección del viento	4.83
11215	7	Sololá	701	Sololá	3	Barraneche	2	Febrero	2023-02-28T00:00:00	2024-11-06T09:00:00	1	Precipitación	0
11216	7	Sololá	701	Sololá	3	Barraneche	2	Febrero	2023-02-28T00:00:00	2024-11-06T09:00:00	8	Radiación solar	500
11217	7	Sololá	701	Sololá	3	Barraneche	2	Febrero	2023-02-28T00:00:00	2024-11-06T10:00:00	2	Temperatura media	18.8
11218	7	Sololá	701	Sololá	3	Barraneche	2	Febrero	2023-02-28T00:00:00	2024-11-06T10:00:00	4	Temperatura máxima	18.8
11219	7	Sololá	701	Sololá	3	Barraneche	2	Febrero	2023-02-28T00:00:00	2024-11-06T10:00:00	3	Temperatura mínima	16.1
11220	7	Sololá	701	Sololá	3	Barraneche	2	Febrero	2023-02-28T00:00:00	2024-11-06T10:00:00	5	Humedad	30
11221	7	Sololá	701	Sololá	3	Barraneche	2	Febrero	2023-02-28T00:00:00	2024-11-06T10:00:00	6	Velocidad del viento	4.8
11222	7	Sololá	701	Sololá	3	Barraneche	2	Febrero	2023-02-28T00:00:00	2024-11-06T10:00:00	7	Dirección del viento	4.83
11223	7	Sololá	701	Sololá	3	Barraneche	2	Febrero	2023-02-28T00:00:00	2024-11-06T10:00:00	1	Precipitación	0
11224	7	Sololá	701	Sololá	3	Barraneche	2	Febrero	2023-02-28T00:00:00	2024-11-06T10:00:00	8	Radiación solar	726
11225	7	Sololá	701	Sololá	3	Barraneche	2	Febrero	2023-02-28T00:00:00	2024-11-06T11:00:00	2	Temperatura media	18.3
11226	7	Sololá	701	Sololá	3	Barraneche	2	Febrero	2023-02-28T00:00:00	2024-11-06T11:00:00	4	Temperatura máxima	18.8
11227	7	Sololá	701	Sololá	3	Barraneche	2	Febrero	2023-02-28T00:00:00	2024-11-06T11:00:00	3	Temperatura mínima	18.2
11228	7	Sololá	701	Sololá	3	Barraneche	2	Febrero	2023-02-28T00:00:00	2024-11-06T11:00:00	5	Humedad	44
11229	7	Sololá	701	Sololá	3	Barraneche	2	Febrero	2023-02-28T00:00:00	2024-11-06T11:00:00	6	Velocidad del viento	12.9
11230	7	Sololá	701	Sololá	3	Barraneche	2	Febrero	2023-02-28T00:00:00	2024-11-06T11:00:00	7	Dirección del viento	12.87
11231	7	Sololá	701	Sololá	3	Barraneche	2	Febrero	2023-02-28T00:00:00	2024-11-06T11:00:00	1	Precipitación	0
11232	7	Sololá	701	Sololá	3	Barraneche	2	Febrero	2023-02-28T00:00:00	2024-11-06T11:00:00	8	Radiación solar	882
11233	7	Sololá	701	Sololá	3	Barraneche	2	Febrero	2023-02-28T00:00:00	2024-11-06T12:00:00	2	Temperatura media	18.9
11234	7	Sololá	701	Sololá	3	Barraneche	2	Febrero	2023-02-28T00:00:00	2024-11-06T12:00:00	4	Temperatura máxima	19
11235	7	Sololá	701	Sololá	3	Barraneche	2	Febrero	2023-02-28T00:00:00	2024-11-06T12:00:00	3	Temperatura mínima	18.2
11236	7	Sololá	701	Sololá	3	Barraneche	2	Febrero	2023-02-28T00:00:00	2024-11-06T12:00:00	5	Humedad	46
11237	7	Sololá	701	Sololá	3	Barraneche	2	Febrero	2023-02-28T00:00:00	2024-11-06T12:00:00	6	Velocidad del viento	12.9
11238	7	Sololá	701	Sololá	3	Barraneche	2	Febrero	2023-02-28T00:00:00	2024-11-06T12:00:00	7	Dirección del viento	12.87
11239	7	Sololá	701	Sololá	3	Barraneche	2	Febrero	2023-02-28T00:00:00	2024-11-06T12:00:00	1	Precipitación	0
11240	7	Sololá	701	Sololá	3	Barraneche	2	Febrero	2023-02-28T00:00:00	2024-11-06T12:00:00	8	Radiación solar	971
11241	7	Sololá	701	Sololá	3	Barraneche	2	Febrero	2023-02-28T00:00:00	2024-11-06T13:00:00	2	Temperatura media	19.2
11242	7	Sololá	701	Sololá	3	Barraneche	2	Febrero	2023-02-28T00:00:00	2024-11-06T13:00:00	4	Temperatura máxima	19.4
11243	7	Sololá	701	Sololá	3	Barraneche	2	Febrero	2023-02-28T00:00:00	2024-11-06T13:00:00	3	Temperatura mínima	18.8
11244	7	Sololá	701	Sololá	3	Barraneche	2	Febrero	2023-02-28T00:00:00	2024-11-06T13:00:00	5	Humedad	50
11245	7	Sololá	701	Sololá	3	Barraneche	2	Febrero	2023-02-28T00:00:00	2024-11-06T13:00:00	6	Velocidad del viento	12.9
11246	7	Sololá	701	Sololá	3	Barraneche	2	Febrero	2023-02-28T00:00:00	2024-11-06T13:00:00	7	Dirección del viento	12.87
11247	7	Sololá	701	Sololá	3	Barraneche	2	Febrero	2023-02-28T00:00:00	2024-11-06T13:00:00	1	Precipitación	0
11248	7	Sololá	701	Sololá	3	Barraneche	2	Febrero	2023-02-28T00:00:00	2024-11-06T13:00:00	8	Radiación solar	987
11249	7	Sololá	701	Sololá	3	Barraneche	2	Febrero	2023-02-28T00:00:00	2024-11-06T14:00:00	2	Temperatura media	19.3
11250	7	Sololá	701	Sololá	3	Barraneche	2	Febrero	2023-02-28T00:00:00	2024-11-06T14:00:00	4	Temperatura máxima	19.7
11251	7	Sololá	701	Sololá	3	Barraneche	2	Febrero	2023-02-28T00:00:00	2024-11-06T14:00:00	3	Temperatura mínima	19
11252	7	Sololá	701	Sololá	3	Barraneche	2	Febrero	2023-02-28T00:00:00	2024-11-06T14:00:00	5	Humedad	52
11253	7	Sololá	701	Sololá	3	Barraneche	2	Febrero	2023-02-28T00:00:00	2024-11-06T14:00:00	6	Velocidad del viento	14.5
11254	7	Sololá	701	Sololá	3	Barraneche	2	Febrero	2023-02-28T00:00:00	2024-11-06T14:00:00	7	Dirección del viento	14.48
11255	7	Sololá	701	Sololá	3	Barraneche	2	Febrero	2023-02-28T00:00:00	2024-11-06T14:00:00	1	Precipitación	0
11256	7	Sololá	701	Sololá	3	Barraneche	2	Febrero	2023-02-28T00:00:00	2024-11-06T14:00:00	8	Radiación solar	916
11257	7	Sololá	701	Sololá	3	Barraneche	2	Febrero	2023-02-28T00:00:00	2024-11-06T15:00:00	2	Temperatura media	18.8
11258	7	Sololá	701	Sololá	3	Barraneche	2	Febrero	2023-02-28T00:00:00	2024-11-06T15:00:00	4	Temperatura máxima	19.6
11259	7	Sololá	701	Sololá	3	Barraneche	2	Febrero	2023-02-28T00:00:00	2024-11-06T15:00:00	3	Temperatura mínima	18.8
11260	7	Sololá	701	Sololá	3	Barraneche	2	Febrero	2023-02-28T00:00:00	2024-11-06T15:00:00	5	Humedad	56
11261	7	Sololá	701	Sololá	3	Barraneche	2	Febrero	2023-02-28T00:00:00	2024-11-06T15:00:00	6	Velocidad del viento	14.5
11262	7	Sololá	701	Sololá	3	Barraneche	2	Febrero	2023-02-28T00:00:00	2024-11-06T15:00:00	7	Dirección del viento	14.48
11263	7	Sololá	701	Sololá	3	Barraneche	2	Febrero	2023-02-28T00:00:00	2024-11-06T15:00:00	1	Precipitación	0
11264	7	Sololá	701	Sololá	3	Barraneche	2	Febrero	2023-02-28T00:00:00	2024-11-06T15:00:00	8	Radiación solar	770
11265	7	Sololá	701	Sololá	3	Barraneche	2	Febrero	2023-02-28T00:00:00	2024-11-06T16:00:00	2	Temperatura media	17.2
11266	7	Sololá	701	Sololá	3	Barraneche	2	Febrero	2023-02-28T00:00:00	2024-11-06T16:00:00	4	Temperatura máxima	19
11267	7	Sololá	701	Sololá	3	Barraneche	2	Febrero	2023-02-28T00:00:00	2024-11-06T16:00:00	3	Temperatura mínima	17.2
11268	7	Sololá	701	Sololá	3	Barraneche	2	Febrero	2023-02-28T00:00:00	2024-11-06T16:00:00	5	Humedad	65
11269	7	Sololá	701	Sololá	3	Barraneche	2	Febrero	2023-02-28T00:00:00	2024-11-06T16:00:00	6	Velocidad del viento	11.3
11270	7	Sololá	701	Sololá	3	Barraneche	2	Febrero	2023-02-28T00:00:00	2024-11-06T16:00:00	7	Dirección del viento	11.27
11271	7	Sololá	701	Sololá	3	Barraneche	2	Febrero	2023-02-28T00:00:00	2024-11-06T16:00:00	1	Precipitación	0
11272	7	Sololá	701	Sololá	3	Barraneche	2	Febrero	2023-02-28T00:00:00	2024-11-06T16:00:00	8	Radiación solar	533
11273	7	Sololá	701	Sololá	3	Barraneche	2	Febrero	2023-02-28T00:00:00	2024-11-06T17:00:00	2	Temperatura media	16.5
11274	7	Sololá	701	Sololá	3	Barraneche	2	Febrero	2023-02-28T00:00:00	2024-11-06T17:00:00	4	Temperatura máxima	17.2
11275	7	Sololá	701	Sololá	3	Barraneche	2	Febrero	2023-02-28T00:00:00	2024-11-06T17:00:00	3	Temperatura mínima	16.3
11276	7	Sololá	701	Sololá	3	Barraneche	2	Febrero	2023-02-28T00:00:00	2024-11-06T17:00:00	5	Humedad	68
11277	7	Sololá	701	Sololá	3	Barraneche	2	Febrero	2023-02-28T00:00:00	2024-11-06T17:00:00	6	Velocidad del viento	8
11278	7	Sololá	701	Sololá	3	Barraneche	2	Febrero	2023-02-28T00:00:00	2024-11-06T17:00:00	7	Dirección del viento	8.05
11279	7	Sololá	701	Sololá	3	Barraneche	2	Febrero	2023-02-28T00:00:00	2024-11-06T17:00:00	1	Precipitación	0
11280	7	Sololá	701	Sololá	3	Barraneche	2	Febrero	2023-02-28T00:00:00	2024-11-06T17:00:00	8	Radiación solar	197
11281	7	Sololá	701	Sololá	3	Barraneche	2	Febrero	2023-02-28T00:00:00	2024-11-06T18:00:00	2	Temperatura media	15.1
11282	7	Sololá	701	Sololá	3	Barraneche	2	Febrero	2023-02-28T00:00:00	2024-11-06T18:00:00	4	Temperatura máxima	16.5
11283	7	Sololá	701	Sololá	3	Barraneche	2	Febrero	2023-02-28T00:00:00	2024-11-06T18:00:00	3	Temperatura mínima	15.1
11284	7	Sololá	701	Sololá	3	Barraneche	2	Febrero	2023-02-28T00:00:00	2024-11-06T18:00:00	5	Humedad	72
11285	7	Sololá	701	Sololá	3	Barraneche	2	Febrero	2023-02-28T00:00:00	2024-11-06T18:00:00	6	Velocidad del viento	8
11286	7	Sololá	701	Sololá	3	Barraneche	2	Febrero	2023-02-28T00:00:00	2024-11-06T18:00:00	7	Dirección del viento	8.05
11287	7	Sololá	701	Sololá	3	Barraneche	2	Febrero	2023-02-28T00:00:00	2024-11-06T18:00:00	1	Precipitación	0
11288	7	Sololá	701	Sololá	3	Barraneche	2	Febrero	2023-02-28T00:00:00	2024-11-06T18:00:00	8	Radiación solar	65
11289	7	Sololá	701	Sololá	3	Barraneche	2	Febrero	2023-02-28T00:00:00	2024-11-06T19:00:00	2	Temperatura media	12.8
11290	7	Sololá	701	Sololá	3	Barraneche	2	Febrero	2023-02-28T00:00:00	2024-11-06T19:00:00	4	Temperatura máxima	15.1
11291	7	Sololá	701	Sololá	3	Barraneche	2	Febrero	2023-02-28T00:00:00	2024-11-06T19:00:00	3	Temperatura mínima	12.8
11292	7	Sololá	701	Sololá	3	Barraneche	2	Febrero	2023-02-28T00:00:00	2024-11-06T19:00:00	5	Humedad	60
11293	7	Sololá	701	Sololá	3	Barraneche	2	Febrero	2023-02-28T00:00:00	2024-11-06T19:00:00	6	Velocidad del viento	4.8
11294	7	Sololá	701	Sololá	3	Barraneche	2	Febrero	2023-02-28T00:00:00	2024-11-06T19:00:00	7	Dirección del viento	4.83
11295	7	Sololá	701	Sololá	3	Barraneche	2	Febrero	2023-02-28T00:00:00	2024-11-06T19:00:00	1	Precipitación	0
11296	7	Sololá	701	Sololá	3	Barraneche	2	Febrero	2023-02-28T00:00:00	2024-11-06T19:00:00	8	Radiación solar	0
11297	7	Sololá	701	Sololá	3	Barraneche	2	Febrero	2023-02-28T00:00:00	2024-11-06T20:00:00	2	Temperatura media	11.2
11298	7	Sololá	701	Sololá	3	Barraneche	2	Febrero	2023-02-28T00:00:00	2024-11-06T20:00:00	4	Temperatura máxima	12.8
11299	7	Sololá	701	Sololá	3	Barraneche	2	Febrero	2023-02-28T00:00:00	2024-11-06T20:00:00	3	Temperatura mínima	11.2
11300	7	Sololá	701	Sololá	3	Barraneche	2	Febrero	2023-02-28T00:00:00	2024-11-06T20:00:00	5	Humedad	48
11301	7	Sololá	701	Sololá	3	Barraneche	2	Febrero	2023-02-28T00:00:00	2024-11-06T20:00:00	6	Velocidad del viento	8
11302	7	Sololá	701	Sololá	3	Barraneche	2	Febrero	2023-02-28T00:00:00	2024-11-06T20:00:00	7	Dirección del viento	8.05
11303	7	Sololá	701	Sololá	3	Barraneche	2	Febrero	2023-02-28T00:00:00	2024-11-06T20:00:00	1	Precipitación	0
11304	7	Sololá	701	Sololá	3	Barraneche	2	Febrero	2023-02-28T00:00:00	2024-11-06T20:00:00	8	Radiación solar	0
11305	7	Sololá	701	Sololá	3	Barraneche	2	Febrero	2023-02-28T00:00:00	2024-11-06T21:00:00	2	Temperatura media	10.2
11306	7	Sololá	701	Sololá	3	Barraneche	2	Febrero	2023-02-28T00:00:00	2024-11-06T21:00:00	4	Temperatura máxima	11.2
11307	7	Sololá	701	Sololá	3	Barraneche	2	Febrero	2023-02-28T00:00:00	2024-11-06T21:00:00	3	Temperatura mínima	10.2
11308	7	Sololá	701	Sololá	3	Barraneche	2	Febrero	2023-02-28T00:00:00	2024-11-06T21:00:00	5	Humedad	37
11309	7	Sololá	701	Sololá	3	Barraneche	2	Febrero	2023-02-28T00:00:00	2024-11-06T21:00:00	6	Velocidad del viento	9.7
11310	7	Sololá	701	Sololá	3	Barraneche	2	Febrero	2023-02-28T00:00:00	2024-11-06T21:00:00	7	Dirección del viento	9.66
11311	7	Sololá	701	Sololá	3	Barraneche	2	Febrero	2023-02-28T00:00:00	2024-11-06T21:00:00	1	Precipitación	0
11312	7	Sololá	701	Sololá	3	Barraneche	2	Febrero	2023-02-28T00:00:00	2024-11-06T21:00:00	8	Radiación solar	0
11313	7	Sololá	701	Sololá	3	Barraneche	2	Febrero	2023-02-28T00:00:00	2024-11-06T22:00:00	2	Temperatura media	10.1
11314	7	Sololá	701	Sololá	3	Barraneche	2	Febrero	2023-02-28T00:00:00	2024-11-06T22:00:00	4	Temperatura máxima	10.4
11315	7	Sololá	701	Sololá	3	Barraneche	2	Febrero	2023-02-28T00:00:00	2024-11-06T22:00:00	3	Temperatura mínima	10.1
11316	7	Sololá	701	Sololá	3	Barraneche	2	Febrero	2023-02-28T00:00:00	2024-11-06T22:00:00	5	Humedad	33
11317	7	Sololá	701	Sololá	3	Barraneche	2	Febrero	2023-02-28T00:00:00	2024-11-06T22:00:00	6	Velocidad del viento	9.7
11318	7	Sololá	701	Sololá	3	Barraneche	2	Febrero	2023-02-28T00:00:00	2024-11-06T22:00:00	7	Dirección del viento	9.66
11319	7	Sololá	701	Sololá	3	Barraneche	2	Febrero	2023-02-28T00:00:00	2024-11-06T22:00:00	1	Precipitación	0
11320	7	Sololá	701	Sololá	3	Barraneche	2	Febrero	2023-02-28T00:00:00	2024-11-06T22:00:00	8	Radiación solar	0
11321	7	Sololá	701	Sololá	3	Barraneche	2	Febrero	2023-02-28T00:00:00	2024-11-06T23:00:00	2	Temperatura media	10.4
11322	7	Sololá	701	Sololá	3	Barraneche	2	Febrero	2023-02-28T00:00:00	2024-11-06T23:00:00	4	Temperatura máxima	10.4
11323	7	Sololá	701	Sololá	3	Barraneche	2	Febrero	2023-02-28T00:00:00	2024-11-06T23:00:00	3	Temperatura mínima	9.7
11324	7	Sololá	701	Sololá	3	Barraneche	2	Febrero	2023-02-28T00:00:00	2024-11-06T23:00:00	5	Humedad	28
11325	7	Sololá	701	Sololá	3	Barraneche	2	Febrero	2023-02-28T00:00:00	2024-11-06T23:00:00	6	Velocidad del viento	9.7
11326	7	Sololá	701	Sololá	3	Barraneche	2	Febrero	2023-02-28T00:00:00	2024-11-06T23:00:00	7	Dirección del viento	9.66
11327	7	Sololá	701	Sololá	3	Barraneche	2	Febrero	2023-02-28T00:00:00	2024-11-06T23:00:00	1	Precipitación	0
11328	7	Sololá	701	Sololá	3	Barraneche	2	Febrero	2023-02-28T00:00:00	2024-11-06T23:00:00	8	Radiación solar	0
11329	7	Sololá	701	Sololá	3	Barraneche	3	Marzo	2023-01-03T00:00:00	2024-11-06T00:00:00	2	Temperatura media	11.1
11330	7	Sololá	701	Sololá	3	Barraneche	3	Marzo	2023-01-03T00:00:00	2024-11-06T00:00:00	4	Temperatura máxima	11.1
11331	7	Sololá	701	Sololá	3	Barraneche	3	Marzo	2023-01-03T00:00:00	2024-11-06T00:00:00	3	Temperatura mínima	10.3
11332	7	Sololá	701	Sololá	3	Barraneche	3	Marzo	2023-01-03T00:00:00	2024-11-06T00:00:00	5	Humedad	23
11333	7	Sololá	701	Sololá	3	Barraneche	3	Marzo	2023-01-03T00:00:00	2024-11-06T00:00:00	6	Velocidad del viento	11.3
11334	7	Sololá	701	Sololá	3	Barraneche	3	Marzo	2023-01-03T00:00:00	2024-11-06T00:00:00	7	Dirección del viento	11.27
11335	7	Sololá	701	Sololá	3	Barraneche	3	Marzo	2023-01-03T00:00:00	2024-11-06T00:00:00	1	Precipitación	0
11336	7	Sololá	701	Sololá	3	Barraneche	3	Marzo	2023-01-03T00:00:00	2024-11-06T00:00:00	8	Radiación solar	0
11337	7	Sololá	701	Sololá	3	Barraneche	3	Marzo	2023-01-03T00:00:00	2024-11-06T01:00:00	2	Temperatura media	10.4
11338	7	Sololá	701	Sololá	3	Barraneche	3	Marzo	2023-01-03T00:00:00	2024-11-06T01:00:00	4	Temperatura máxima	11.6
11339	7	Sololá	701	Sololá	3	Barraneche	3	Marzo	2023-01-03T00:00:00	2024-11-06T01:00:00	3	Temperatura mínima	10.3
11340	7	Sololá	701	Sololá	3	Barraneche	3	Marzo	2023-01-03T00:00:00	2024-11-06T01:00:00	5	Humedad	29
11341	7	Sololá	701	Sololá	3	Barraneche	3	Marzo	2023-01-03T00:00:00	2024-11-06T01:00:00	6	Velocidad del viento	12.9
11342	7	Sololá	701	Sololá	3	Barraneche	3	Marzo	2023-01-03T00:00:00	2024-11-06T01:00:00	7	Dirección del viento	12.87
11343	7	Sololá	701	Sololá	3	Barraneche	3	Marzo	2023-01-03T00:00:00	2024-11-06T01:00:00	1	Precipitación	0
11344	7	Sololá	701	Sololá	3	Barraneche	3	Marzo	2023-01-03T00:00:00	2024-11-06T01:00:00	8	Radiación solar	0
11345	7	Sololá	701	Sololá	3	Barraneche	3	Marzo	2023-01-03T00:00:00	2024-11-06T02:00:00	2	Temperatura media	9.6
11346	7	Sololá	701	Sololá	3	Barraneche	3	Marzo	2023-01-03T00:00:00	2024-11-06T02:00:00	4	Temperatura máxima	10.6
11347	7	Sololá	701	Sololá	3	Barraneche	3	Marzo	2023-01-03T00:00:00	2024-11-06T02:00:00	3	Temperatura mínima	9.3
11348	7	Sololá	701	Sololá	3	Barraneche	3	Marzo	2023-01-03T00:00:00	2024-11-06T02:00:00	5	Humedad	32
11349	7	Sololá	701	Sololá	3	Barraneche	3	Marzo	2023-01-03T00:00:00	2024-11-06T02:00:00	6	Velocidad del viento	12.9
11350	7	Sololá	701	Sololá	3	Barraneche	3	Marzo	2023-01-03T00:00:00	2024-11-06T02:00:00	7	Dirección del viento	12.87
11351	7	Sololá	701	Sololá	3	Barraneche	3	Marzo	2023-01-03T00:00:00	2024-11-06T02:00:00	1	Precipitación	0
11352	7	Sololá	701	Sololá	3	Barraneche	3	Marzo	2023-01-03T00:00:00	2024-11-06T02:00:00	8	Radiación solar	0
11353	7	Sololá	701	Sololá	3	Barraneche	3	Marzo	2023-01-03T00:00:00	2024-11-06T03:00:00	2	Temperatura media	9.6
11354	7	Sololá	701	Sololá	3	Barraneche	3	Marzo	2023-01-03T00:00:00	2024-11-06T03:00:00	4	Temperatura máxima	9.9
11355	7	Sololá	701	Sololá	3	Barraneche	3	Marzo	2023-01-03T00:00:00	2024-11-06T03:00:00	3	Temperatura mínima	9.2
11356	7	Sololá	701	Sololá	3	Barraneche	3	Marzo	2023-01-03T00:00:00	2024-11-06T03:00:00	5	Humedad	38
11357	7	Sololá	701	Sololá	3	Barraneche	3	Marzo	2023-01-03T00:00:00	2024-11-06T03:00:00	6	Velocidad del viento	12.9
11358	7	Sololá	701	Sololá	3	Barraneche	3	Marzo	2023-01-03T00:00:00	2024-11-06T03:00:00	7	Dirección del viento	12.87
11359	7	Sololá	701	Sololá	3	Barraneche	3	Marzo	2023-01-03T00:00:00	2024-11-06T03:00:00	1	Precipitación	0
11360	7	Sololá	701	Sololá	3	Barraneche	3	Marzo	2023-01-03T00:00:00	2024-11-06T03:00:00	8	Radiación solar	0
11361	7	Sololá	701	Sololá	3	Barraneche	3	Marzo	2023-01-03T00:00:00	2024-11-06T04:00:00	2	Temperatura media	8.6
11362	7	Sololá	701	Sololá	3	Barraneche	3	Marzo	2023-01-03T00:00:00	2024-11-06T04:00:00	4	Temperatura máxima	9.6
11363	7	Sololá	701	Sololá	3	Barraneche	3	Marzo	2023-01-03T00:00:00	2024-11-06T04:00:00	3	Temperatura mínima	8.2
11364	7	Sololá	701	Sololá	3	Barraneche	3	Marzo	2023-01-03T00:00:00	2024-11-06T04:00:00	5	Humedad	37
11365	7	Sololá	701	Sololá	3	Barraneche	3	Marzo	2023-01-03T00:00:00	2024-11-06T04:00:00	6	Velocidad del viento	12.9
11366	7	Sololá	701	Sololá	3	Barraneche	3	Marzo	2023-01-03T00:00:00	2024-11-06T04:00:00	7	Dirección del viento	12.87
11367	7	Sololá	701	Sololá	3	Barraneche	3	Marzo	2023-01-03T00:00:00	2024-11-06T04:00:00	1	Precipitación	0
11368	7	Sololá	701	Sololá	3	Barraneche	3	Marzo	2023-01-03T00:00:00	2024-11-06T04:00:00	8	Radiación solar	0
11369	7	Sololá	701	Sololá	3	Barraneche	3	Marzo	2023-01-03T00:00:00	2024-11-06T05:00:00	2	Temperatura media	7.9
11370	7	Sololá	701	Sololá	3	Barraneche	3	Marzo	2023-01-03T00:00:00	2024-11-06T05:00:00	4	Temperatura máxima	8.7
11371	7	Sololá	701	Sololá	3	Barraneche	3	Marzo	2023-01-03T00:00:00	2024-11-06T05:00:00	3	Temperatura mínima	7.6
11372	7	Sololá	701	Sololá	3	Barraneche	3	Marzo	2023-01-03T00:00:00	2024-11-06T05:00:00	5	Humedad	31
11373	7	Sololá	701	Sololá	3	Barraneche	3	Marzo	2023-01-03T00:00:00	2024-11-06T05:00:00	6	Velocidad del viento	11.3
11374	7	Sololá	701	Sololá	3	Barraneche	3	Marzo	2023-01-03T00:00:00	2024-11-06T05:00:00	7	Dirección del viento	11.27
11375	7	Sololá	701	Sololá	3	Barraneche	3	Marzo	2023-01-03T00:00:00	2024-11-06T05:00:00	1	Precipitación	0
11376	7	Sololá	701	Sololá	3	Barraneche	3	Marzo	2023-01-03T00:00:00	2024-11-06T05:00:00	8	Radiación solar	0
11377	7	Sololá	701	Sololá	3	Barraneche	3	Marzo	2023-01-03T00:00:00	2024-11-06T06:00:00	2	Temperatura media	7.8
11378	7	Sololá	701	Sololá	3	Barraneche	3	Marzo	2023-01-03T00:00:00	2024-11-06T06:00:00	4	Temperatura máxima	8.4
11379	7	Sololá	701	Sololá	3	Barraneche	3	Marzo	2023-01-03T00:00:00	2024-11-06T06:00:00	3	Temperatura mínima	7.6
11380	7	Sololá	701	Sololá	3	Barraneche	3	Marzo	2023-01-03T00:00:00	2024-11-06T06:00:00	5	Humedad	28
11381	7	Sololá	701	Sololá	3	Barraneche	3	Marzo	2023-01-03T00:00:00	2024-11-06T06:00:00	6	Velocidad del viento	9.7
11382	7	Sololá	701	Sololá	3	Barraneche	3	Marzo	2023-01-03T00:00:00	2024-11-06T06:00:00	7	Dirección del viento	9.66
11383	7	Sololá	701	Sololá	3	Barraneche	3	Marzo	2023-01-03T00:00:00	2024-11-06T06:00:00	1	Precipitación	0
11384	7	Sololá	701	Sololá	3	Barraneche	3	Marzo	2023-01-03T00:00:00	2024-11-06T06:00:00	8	Radiación solar	0
11385	7	Sololá	701	Sololá	3	Barraneche	3	Marzo	2023-01-03T00:00:00	2024-11-06T07:00:00	2	Temperatura media	8.8
11386	7	Sololá	701	Sololá	3	Barraneche	3	Marzo	2023-01-03T00:00:00	2024-11-06T07:00:00	4	Temperatura máxima	8.9
11387	7	Sololá	701	Sololá	3	Barraneche	3	Marzo	2023-01-03T00:00:00	2024-11-06T07:00:00	3	Temperatura mínima	7.1
11388	7	Sololá	701	Sololá	3	Barraneche	3	Marzo	2023-01-03T00:00:00	2024-11-06T07:00:00	5	Humedad	27
11389	7	Sololá	701	Sololá	3	Barraneche	3	Marzo	2023-01-03T00:00:00	2024-11-06T07:00:00	6	Velocidad del viento	9.7
11390	7	Sololá	701	Sololá	3	Barraneche	3	Marzo	2023-01-03T00:00:00	2024-11-06T07:00:00	7	Dirección del viento	9.66
11391	7	Sololá	701	Sololá	3	Barraneche	3	Marzo	2023-01-03T00:00:00	2024-11-06T07:00:00	1	Precipitación	0
11392	7	Sololá	701	Sololá	3	Barraneche	3	Marzo	2023-01-03T00:00:00	2024-11-06T07:00:00	8	Radiación solar	8
11393	7	Sololá	701	Sololá	3	Barraneche	3	Marzo	2023-01-03T00:00:00	2024-11-06T08:00:00	2	Temperatura media	15.9
11394	7	Sololá	701	Sololá	3	Barraneche	3	Marzo	2023-01-03T00:00:00	2024-11-06T08:00:00	4	Temperatura máxima	15.9
11395	7	Sololá	701	Sololá	3	Barraneche	3	Marzo	2023-01-03T00:00:00	2024-11-06T08:00:00	3	Temperatura mínima	8.8
11396	7	Sololá	701	Sololá	3	Barraneche	3	Marzo	2023-01-03T00:00:00	2024-11-06T08:00:00	5	Humedad	13
11397	7	Sololá	701	Sololá	3	Barraneche	3	Marzo	2023-01-03T00:00:00	2024-11-06T08:00:00	6	Velocidad del viento	6.4
11398	7	Sololá	701	Sololá	3	Barraneche	3	Marzo	2023-01-03T00:00:00	2024-11-06T08:00:00	7	Dirección del viento	6.44
11399	7	Sololá	701	Sololá	3	Barraneche	3	Marzo	2023-01-03T00:00:00	2024-11-06T08:00:00	1	Precipitación	0
11400	7	Sololá	701	Sololá	3	Barraneche	3	Marzo	2023-01-03T00:00:00	2024-11-06T08:00:00	8	Radiación solar	220
11401	7	Sololá	701	Sololá	3	Barraneche	3	Marzo	2023-01-03T00:00:00	2024-11-06T09:00:00	2	Temperatura media	21
11402	7	Sololá	701	Sololá	3	Barraneche	3	Marzo	2023-01-03T00:00:00	2024-11-06T09:00:00	4	Temperatura máxima	21.1
11403	7	Sololá	701	Sololá	3	Barraneche	3	Marzo	2023-01-03T00:00:00	2024-11-06T09:00:00	3	Temperatura mínima	15.9
11404	7	Sololá	701	Sololá	3	Barraneche	3	Marzo	2023-01-03T00:00:00	2024-11-06T09:00:00	5	Humedad	5
11405	7	Sololá	701	Sololá	3	Barraneche	3	Marzo	2023-01-03T00:00:00	2024-11-06T09:00:00	6	Velocidad del viento	4.8
11406	7	Sololá	701	Sololá	3	Barraneche	3	Marzo	2023-01-03T00:00:00	2024-11-06T09:00:00	7	Dirección del viento	4.83
11407	7	Sololá	701	Sololá	3	Barraneche	3	Marzo	2023-01-03T00:00:00	2024-11-06T09:00:00	1	Precipitación	0
11408	7	Sololá	701	Sololá	3	Barraneche	3	Marzo	2023-01-03T00:00:00	2024-11-06T09:00:00	8	Radiación solar	513
11409	7	Sololá	701	Sololá	3	Barraneche	3	Marzo	2023-01-03T00:00:00	2024-11-06T10:00:00	2	Temperatura media	19.8
11410	7	Sololá	701	Sololá	3	Barraneche	3	Marzo	2023-01-03T00:00:00	2024-11-06T10:00:00	4	Temperatura máxima	21.3
11411	7	Sololá	701	Sololá	3	Barraneche	3	Marzo	2023-01-03T00:00:00	2024-11-06T10:00:00	3	Temperatura mínima	19.4
11412	7	Sololá	701	Sololá	3	Barraneche	3	Marzo	2023-01-03T00:00:00	2024-11-06T10:00:00	5	Humedad	25
11413	7	Sololá	701	Sololá	3	Barraneche	3	Marzo	2023-01-03T00:00:00	2024-11-06T10:00:00	6	Velocidad del viento	11.3
11414	7	Sololá	701	Sololá	3	Barraneche	3	Marzo	2023-01-03T00:00:00	2024-11-06T10:00:00	7	Dirección del viento	11.27
11415	7	Sololá	701	Sololá	3	Barraneche	3	Marzo	2023-01-03T00:00:00	2024-11-06T10:00:00	1	Precipitación	0
11416	7	Sololá	701	Sololá	3	Barraneche	3	Marzo	2023-01-03T00:00:00	2024-11-06T10:00:00	8	Radiación solar	735
11417	7	Sololá	701	Sololá	3	Barraneche	3	Marzo	2023-01-03T00:00:00	2024-11-06T11:00:00	2	Temperatura media	21.1
11418	7	Sololá	701	Sololá	3	Barraneche	3	Marzo	2023-01-03T00:00:00	2024-11-06T11:00:00	4	Temperatura máxima	21.3
11419	7	Sololá	701	Sololá	3	Barraneche	3	Marzo	2023-01-03T00:00:00	2024-11-06T11:00:00	3	Temperatura mínima	19.7
11420	7	Sololá	701	Sololá	3	Barraneche	3	Marzo	2023-01-03T00:00:00	2024-11-06T11:00:00	5	Humedad	22
11421	7	Sololá	701	Sololá	3	Barraneche	3	Marzo	2023-01-03T00:00:00	2024-11-06T11:00:00	6	Velocidad del viento	14.5
11422	7	Sololá	701	Sololá	3	Barraneche	3	Marzo	2023-01-03T00:00:00	2024-11-06T11:00:00	7	Dirección del viento	14.48
11423	7	Sololá	701	Sololá	3	Barraneche	3	Marzo	2023-01-03T00:00:00	2024-11-06T11:00:00	1	Precipitación	0
11424	7	Sololá	701	Sololá	3	Barraneche	3	Marzo	2023-01-03T00:00:00	2024-11-06T11:00:00	8	Radiación solar	894
11425	7	Sololá	701	Sololá	3	Barraneche	3	Marzo	2023-01-03T00:00:00	2024-11-06T12:00:00	2	Temperatura media	20.2
11426	7	Sololá	701	Sololá	3	Barraneche	3	Marzo	2023-01-03T00:00:00	2024-11-06T12:00:00	4	Temperatura máxima	21.2
11427	7	Sololá	701	Sololá	3	Barraneche	3	Marzo	2023-01-03T00:00:00	2024-11-06T12:00:00	3	Temperatura mínima	20.2
11428	7	Sololá	701	Sololá	3	Barraneche	3	Marzo	2023-01-03T00:00:00	2024-11-06T12:00:00	5	Humedad	38
11429	7	Sololá	701	Sololá	3	Barraneche	3	Marzo	2023-01-03T00:00:00	2024-11-06T12:00:00	6	Velocidad del viento	17.7
11430	7	Sololá	701	Sololá	3	Barraneche	3	Marzo	2023-01-03T00:00:00	2024-11-06T12:00:00	7	Dirección del viento	17.7
11431	7	Sololá	701	Sololá	3	Barraneche	3	Marzo	2023-01-03T00:00:00	2024-11-06T12:00:00	1	Precipitación	0
11432	7	Sololá	701	Sololá	3	Barraneche	3	Marzo	2023-01-03T00:00:00	2024-11-06T12:00:00	8	Radiación solar	982
11433	7	Sololá	701	Sololá	3	Barraneche	3	Marzo	2023-01-03T00:00:00	2024-11-06T13:00:00	2	Temperatura media	19.2
11434	7	Sololá	701	Sololá	3	Barraneche	3	Marzo	2023-01-03T00:00:00	2024-11-06T13:00:00	4	Temperatura máxima	20.2
11435	7	Sololá	701	Sololá	3	Barraneche	3	Marzo	2023-01-03T00:00:00	2024-11-06T13:00:00	3	Temperatura mínima	18.9
11436	7	Sololá	701	Sololá	3	Barraneche	3	Marzo	2023-01-03T00:00:00	2024-11-06T13:00:00	5	Humedad	51
11437	7	Sololá	701	Sololá	3	Barraneche	3	Marzo	2023-01-03T00:00:00	2024-11-06T13:00:00	6	Velocidad del viento	16.1
11438	7	Sololá	701	Sololá	3	Barraneche	3	Marzo	2023-01-03T00:00:00	2024-11-06T13:00:00	7	Dirección del viento	16.09
11439	7	Sololá	701	Sololá	3	Barraneche	3	Marzo	2023-01-03T00:00:00	2024-11-06T13:00:00	1	Precipitación	0
11440	7	Sololá	701	Sololá	3	Barraneche	3	Marzo	2023-01-03T00:00:00	2024-11-06T13:00:00	8	Radiación solar	992
11441	7	Sololá	701	Sololá	3	Barraneche	3	Marzo	2023-01-03T00:00:00	2024-11-06T14:00:00	2	Temperatura media	18.6
11442	7	Sololá	701	Sololá	3	Barraneche	3	Marzo	2023-01-03T00:00:00	2024-11-06T14:00:00	4	Temperatura máxima	19.5
11443	7	Sololá	701	Sololá	3	Barraneche	3	Marzo	2023-01-03T00:00:00	2024-11-06T14:00:00	3	Temperatura mínima	18.6
11444	7	Sololá	701	Sololá	3	Barraneche	3	Marzo	2023-01-03T00:00:00	2024-11-06T14:00:00	5	Humedad	56
11445	7	Sololá	701	Sololá	3	Barraneche	3	Marzo	2023-01-03T00:00:00	2024-11-06T14:00:00	6	Velocidad del viento	14.5
11446	7	Sololá	701	Sololá	3	Barraneche	3	Marzo	2023-01-03T00:00:00	2024-11-06T14:00:00	7	Dirección del viento	14.48
11447	7	Sololá	701	Sololá	3	Barraneche	3	Marzo	2023-01-03T00:00:00	2024-11-06T14:00:00	1	Precipitación	0
11448	7	Sololá	701	Sololá	3	Barraneche	3	Marzo	2023-01-03T00:00:00	2024-11-06T14:00:00	8	Radiación solar	899
11449	7	Sololá	701	Sololá	3	Barraneche	3	Marzo	2023-01-03T00:00:00	2024-11-06T15:00:00	2	Temperatura media	18.3
11450	7	Sololá	701	Sololá	3	Barraneche	3	Marzo	2023-01-03T00:00:00	2024-11-06T15:00:00	4	Temperatura máxima	18.8
11451	7	Sololá	701	Sololá	3	Barraneche	3	Marzo	2023-01-03T00:00:00	2024-11-06T15:00:00	3	Temperatura mínima	18.1
11452	7	Sololá	701	Sololá	3	Barraneche	3	Marzo	2023-01-03T00:00:00	2024-11-06T15:00:00	5	Humedad	59
11453	7	Sololá	701	Sololá	3	Barraneche	3	Marzo	2023-01-03T00:00:00	2024-11-06T15:00:00	6	Velocidad del viento	12.9
11454	7	Sololá	701	Sololá	3	Barraneche	3	Marzo	2023-01-03T00:00:00	2024-11-06T15:00:00	7	Dirección del viento	12.87
11455	7	Sololá	701	Sololá	3	Barraneche	3	Marzo	2023-01-03T00:00:00	2024-11-06T15:00:00	1	Precipitación	0
11456	7	Sololá	701	Sololá	3	Barraneche	3	Marzo	2023-01-03T00:00:00	2024-11-06T15:00:00	8	Radiación solar	783
11457	7	Sololá	701	Sololá	3	Barraneche	3	Marzo	2023-01-03T00:00:00	2024-11-06T16:00:00	2	Temperatura media	17.8
11458	7	Sololá	701	Sololá	3	Barraneche	3	Marzo	2023-01-03T00:00:00	2024-11-06T16:00:00	4	Temperatura máxima	18.3
11459	7	Sololá	701	Sololá	3	Barraneche	3	Marzo	2023-01-03T00:00:00	2024-11-06T16:00:00	3	Temperatura mínima	17.5
11460	7	Sololá	701	Sololá	3	Barraneche	3	Marzo	2023-01-03T00:00:00	2024-11-06T16:00:00	5	Humedad	62
11461	7	Sololá	701	Sololá	3	Barraneche	3	Marzo	2023-01-03T00:00:00	2024-11-06T16:00:00	6	Velocidad del viento	11.3
11462	7	Sololá	701	Sololá	3	Barraneche	3	Marzo	2023-01-03T00:00:00	2024-11-06T16:00:00	7	Dirección del viento	11.27
11463	7	Sololá	701	Sololá	3	Barraneche	3	Marzo	2023-01-03T00:00:00	2024-11-06T16:00:00	1	Precipitación	0
11464	7	Sololá	701	Sololá	3	Barraneche	3	Marzo	2023-01-03T00:00:00	2024-11-06T16:00:00	8	Radiación solar	568
11465	7	Sololá	701	Sololá	3	Barraneche	3	Marzo	2023-01-03T00:00:00	2024-11-06T17:00:00	2	Temperatura media	15.9
11466	7	Sololá	701	Sololá	3	Barraneche	3	Marzo	2023-01-03T00:00:00	2024-11-06T17:00:00	4	Temperatura máxima	18.1
11467	7	Sololá	701	Sololá	3	Barraneche	3	Marzo	2023-01-03T00:00:00	2024-11-06T17:00:00	3	Temperatura mínima	15.9
11468	7	Sololá	701	Sololá	3	Barraneche	3	Marzo	2023-01-03T00:00:00	2024-11-06T17:00:00	5	Humedad	69
11469	7	Sololá	701	Sololá	3	Barraneche	3	Marzo	2023-01-03T00:00:00	2024-11-06T17:00:00	6	Velocidad del viento	9.7
11470	7	Sololá	701	Sololá	3	Barraneche	3	Marzo	2023-01-03T00:00:00	2024-11-06T17:00:00	7	Dirección del viento	9.66
11471	7	Sololá	701	Sololá	3	Barraneche	3	Marzo	2023-01-03T00:00:00	2024-11-06T17:00:00	1	Precipitación	0
11472	7	Sololá	701	Sololá	3	Barraneche	3	Marzo	2023-01-03T00:00:00	2024-11-06T17:00:00	8	Radiación solar	270
11473	7	Sololá	701	Sololá	3	Barraneche	3	Marzo	2023-01-03T00:00:00	2024-11-06T18:00:00	2	Temperatura media	15
11474	7	Sololá	701	Sololá	3	Barraneche	3	Marzo	2023-01-03T00:00:00	2024-11-06T18:00:00	4	Temperatura máxima	15.9
11475	7	Sololá	701	Sololá	3	Barraneche	3	Marzo	2023-01-03T00:00:00	2024-11-06T18:00:00	3	Temperatura mínima	15
11476	7	Sololá	701	Sololá	3	Barraneche	3	Marzo	2023-01-03T00:00:00	2024-11-06T18:00:00	5	Humedad	70
11477	7	Sololá	701	Sololá	3	Barraneche	3	Marzo	2023-01-03T00:00:00	2024-11-06T18:00:00	6	Velocidad del viento	8
11478	7	Sololá	701	Sololá	3	Barraneche	3	Marzo	2023-01-03T00:00:00	2024-11-06T18:00:00	7	Dirección del viento	8.05
11479	7	Sololá	701	Sololá	3	Barraneche	3	Marzo	2023-01-03T00:00:00	2024-11-06T18:00:00	1	Precipitación	0
11480	7	Sololá	701	Sololá	3	Barraneche	3	Marzo	2023-01-03T00:00:00	2024-11-06T18:00:00	8	Radiación solar	43
11481	7	Sololá	701	Sololá	3	Barraneche	3	Marzo	2023-01-03T00:00:00	2024-11-06T19:00:00	2	Temperatura media	13.2
11482	7	Sololá	701	Sololá	3	Barraneche	3	Marzo	2023-01-03T00:00:00	2024-11-06T19:00:00	4	Temperatura máxima	15.1
11483	7	Sololá	701	Sololá	3	Barraneche	3	Marzo	2023-01-03T00:00:00	2024-11-06T19:00:00	3	Temperatura mínima	13.1
11484	7	Sololá	701	Sololá	3	Barraneche	3	Marzo	2023-01-03T00:00:00	2024-11-06T19:00:00	5	Humedad	60
11485	7	Sololá	701	Sololá	3	Barraneche	3	Marzo	2023-01-03T00:00:00	2024-11-06T19:00:00	6	Velocidad del viento	3.2
11486	7	Sololá	701	Sololá	3	Barraneche	3	Marzo	2023-01-03T00:00:00	2024-11-06T19:00:00	7	Dirección del viento	3.22
11487	7	Sololá	701	Sololá	3	Barraneche	3	Marzo	2023-01-03T00:00:00	2024-11-06T19:00:00	1	Precipitación	0
11488	7	Sololá	701	Sololá	3	Barraneche	3	Marzo	2023-01-03T00:00:00	2024-11-06T19:00:00	8	Radiación solar	0
11489	7	Sololá	701	Sololá	3	Barraneche	3	Marzo	2023-01-03T00:00:00	2024-11-06T20:00:00	2	Temperatura media	12.2
11490	7	Sololá	701	Sololá	3	Barraneche	3	Marzo	2023-01-03T00:00:00	2024-11-06T20:00:00	4	Temperatura máxima	13.1
11491	7	Sololá	701	Sololá	3	Barraneche	3	Marzo	2023-01-03T00:00:00	2024-11-06T20:00:00	3	Temperatura mínima	11.8
11492	7	Sololá	701	Sololá	3	Barraneche	3	Marzo	2023-01-03T00:00:00	2024-11-06T20:00:00	5	Humedad	57
11493	7	Sololá	701	Sololá	3	Barraneche	3	Marzo	2023-01-03T00:00:00	2024-11-06T20:00:00	6	Velocidad del viento	6.4
11494	7	Sololá	701	Sololá	3	Barraneche	3	Marzo	2023-01-03T00:00:00	2024-11-06T20:00:00	7	Dirección del viento	6.44
11495	7	Sololá	701	Sololá	3	Barraneche	3	Marzo	2023-01-03T00:00:00	2024-11-06T20:00:00	1	Precipitación	0
11496	7	Sololá	701	Sololá	3	Barraneche	3	Marzo	2023-01-03T00:00:00	2024-11-06T20:00:00	8	Radiación solar	0
11497	7	Sololá	701	Sololá	3	Barraneche	3	Marzo	2023-01-03T00:00:00	2024-11-06T21:00:00	2	Temperatura media	10.8
11498	7	Sololá	701	Sololá	3	Barraneche	3	Marzo	2023-01-03T00:00:00	2024-11-06T21:00:00	4	Temperatura máxima	12.4
11499	7	Sololá	701	Sololá	3	Barraneche	3	Marzo	2023-01-03T00:00:00	2024-11-06T21:00:00	3	Temperatura mínima	10.7
11500	7	Sololá	701	Sololá	3	Barraneche	3	Marzo	2023-01-03T00:00:00	2024-11-06T21:00:00	5	Humedad	63
11501	7	Sololá	701	Sololá	3	Barraneche	3	Marzo	2023-01-03T00:00:00	2024-11-06T21:00:00	6	Velocidad del viento	4.8
11502	7	Sololá	701	Sololá	3	Barraneche	3	Marzo	2023-01-03T00:00:00	2024-11-06T21:00:00	7	Dirección del viento	4.83
11503	7	Sololá	701	Sololá	3	Barraneche	3	Marzo	2023-01-03T00:00:00	2024-11-06T21:00:00	1	Precipitación	0
11504	7	Sololá	701	Sololá	3	Barraneche	3	Marzo	2023-01-03T00:00:00	2024-11-06T21:00:00	8	Radiación solar	0
11505	7	Sololá	701	Sololá	3	Barraneche	3	Marzo	2023-01-03T00:00:00	2024-11-06T22:00:00	2	Temperatura media	12.3
11506	7	Sololá	701	Sololá	3	Barraneche	3	Marzo	2023-01-03T00:00:00	2024-11-06T22:00:00	4	Temperatura máxima	12.3
11507	7	Sololá	701	Sololá	3	Barraneche	3	Marzo	2023-01-03T00:00:00	2024-11-06T22:00:00	3	Temperatura mínima	10.7
11508	7	Sololá	701	Sololá	3	Barraneche	3	Marzo	2023-01-03T00:00:00	2024-11-06T22:00:00	5	Humedad	58
11509	7	Sololá	701	Sololá	3	Barraneche	3	Marzo	2023-01-03T00:00:00	2024-11-06T22:00:00	6	Velocidad del viento	8
11510	7	Sololá	701	Sololá	3	Barraneche	3	Marzo	2023-01-03T00:00:00	2024-11-06T22:00:00	7	Dirección del viento	8.05
11511	7	Sololá	701	Sololá	3	Barraneche	3	Marzo	2023-01-03T00:00:00	2024-11-06T22:00:00	1	Precipitación	0
11512	7	Sololá	701	Sololá	3	Barraneche	3	Marzo	2023-01-03T00:00:00	2024-11-06T22:00:00	8	Radiación solar	0
11513	7	Sololá	701	Sololá	3	Barraneche	3	Marzo	2023-01-03T00:00:00	2024-11-06T23:00:00	2	Temperatura media	12.5
11514	7	Sololá	701	Sololá	3	Barraneche	3	Marzo	2023-01-03T00:00:00	2024-11-06T23:00:00	4	Temperatura máxima	12.8
11515	7	Sololá	701	Sololá	3	Barraneche	3	Marzo	2023-01-03T00:00:00	2024-11-06T23:00:00	3	Temperatura mínima	12.2
11516	7	Sololá	701	Sololá	3	Barraneche	3	Marzo	2023-01-03T00:00:00	2024-11-06T23:00:00	5	Humedad	53
11517	7	Sololá	701	Sololá	3	Barraneche	3	Marzo	2023-01-03T00:00:00	2024-11-06T23:00:00	6	Velocidad del viento	9.7
11518	7	Sololá	701	Sololá	3	Barraneche	3	Marzo	2023-01-03T00:00:00	2024-11-06T23:00:00	7	Dirección del viento	9.66
11519	7	Sololá	701	Sololá	3	Barraneche	3	Marzo	2023-01-03T00:00:00	2024-11-06T23:00:00	1	Precipitación	0
11520	7	Sololá	701	Sololá	3	Barraneche	3	Marzo	2023-01-03T00:00:00	2024-11-06T23:00:00	8	Radiación solar	0
11521	7	Sololá	701	Sololá	3	Barraneche	3	Marzo	2023-02-03T00:00:00	2024-11-06T00:00:00	2	Temperatura media	11.8
11522	7	Sololá	701	Sololá	3	Barraneche	3	Marzo	2023-02-03T00:00:00	2024-11-06T00:00:00	4	Temperatura máxima	12.5
11523	7	Sololá	701	Sololá	3	Barraneche	3	Marzo	2023-02-03T00:00:00	2024-11-06T00:00:00	3	Temperatura mínima	11.7
11524	7	Sololá	701	Sololá	3	Barraneche	3	Marzo	2023-02-03T00:00:00	2024-11-06T00:00:00	5	Humedad	59
11525	7	Sololá	701	Sololá	3	Barraneche	3	Marzo	2023-02-03T00:00:00	2024-11-06T00:00:00	6	Velocidad del viento	11.3
11526	7	Sololá	701	Sololá	3	Barraneche	3	Marzo	2023-02-03T00:00:00	2024-11-06T00:00:00	7	Dirección del viento	11.27
11527	7	Sololá	701	Sololá	3	Barraneche	3	Marzo	2023-02-03T00:00:00	2024-11-06T00:00:00	1	Precipitación	0
11528	7	Sololá	701	Sololá	3	Barraneche	3	Marzo	2023-02-03T00:00:00	2024-11-06T00:00:00	8	Radiación solar	0
11529	7	Sololá	701	Sololá	3	Barraneche	3	Marzo	2023-02-03T00:00:00	2024-11-06T01:00:00	2	Temperatura media	11.5
11530	7	Sololá	701	Sololá	3	Barraneche	3	Marzo	2023-02-03T00:00:00	2024-11-06T01:00:00	4	Temperatura máxima	12.1
11531	7	Sololá	701	Sololá	3	Barraneche	3	Marzo	2023-02-03T00:00:00	2024-11-06T01:00:00	3	Temperatura mínima	11.4
11532	7	Sololá	701	Sololá	3	Barraneche	3	Marzo	2023-02-03T00:00:00	2024-11-06T01:00:00	5	Humedad	61
11533	7	Sololá	701	Sololá	3	Barraneche	3	Marzo	2023-02-03T00:00:00	2024-11-06T01:00:00	6	Velocidad del viento	9.7
11534	7	Sololá	701	Sololá	3	Barraneche	3	Marzo	2023-02-03T00:00:00	2024-11-06T01:00:00	7	Dirección del viento	9.66
11535	7	Sololá	701	Sololá	3	Barraneche	3	Marzo	2023-02-03T00:00:00	2024-11-06T01:00:00	1	Precipitación	0
11536	7	Sololá	701	Sololá	3	Barraneche	3	Marzo	2023-02-03T00:00:00	2024-11-06T01:00:00	8	Radiación solar	0
11537	7	Sololá	701	Sololá	3	Barraneche	3	Marzo	2023-02-03T00:00:00	2024-11-06T02:00:00	2	Temperatura media	10.6
11538	7	Sololá	701	Sololá	3	Barraneche	3	Marzo	2023-02-03T00:00:00	2024-11-06T02:00:00	4	Temperatura máxima	11.5
11539	7	Sololá	701	Sololá	3	Barraneche	3	Marzo	2023-02-03T00:00:00	2024-11-06T02:00:00	3	Temperatura mínima	10.4
11540	7	Sololá	701	Sololá	3	Barraneche	3	Marzo	2023-02-03T00:00:00	2024-11-06T02:00:00	5	Humedad	67
11541	7	Sololá	701	Sololá	3	Barraneche	3	Marzo	2023-02-03T00:00:00	2024-11-06T02:00:00	6	Velocidad del viento	4.8
11542	7	Sololá	701	Sololá	3	Barraneche	3	Marzo	2023-02-03T00:00:00	2024-11-06T02:00:00	7	Dirección del viento	4.83
11543	7	Sololá	701	Sololá	3	Barraneche	3	Marzo	2023-02-03T00:00:00	2024-11-06T02:00:00	1	Precipitación	0
11544	7	Sololá	701	Sololá	3	Barraneche	3	Marzo	2023-02-03T00:00:00	2024-11-06T02:00:00	8	Radiación solar	0
11545	7	Sololá	701	Sololá	3	Barraneche	3	Marzo	2023-02-03T00:00:00	2024-11-06T03:00:00	2	Temperatura media	9.9
11546	7	Sololá	701	Sololá	3	Barraneche	3	Marzo	2023-02-03T00:00:00	2024-11-06T03:00:00	4	Temperatura máxima	10.6
11547	7	Sololá	701	Sololá	3	Barraneche	3	Marzo	2023-02-03T00:00:00	2024-11-06T03:00:00	3	Temperatura mínima	9.9
11548	7	Sololá	701	Sololá	3	Barraneche	3	Marzo	2023-02-03T00:00:00	2024-11-06T03:00:00	5	Humedad	70
11549	7	Sololá	701	Sololá	3	Barraneche	3	Marzo	2023-02-03T00:00:00	2024-11-06T03:00:00	6	Velocidad del viento	6.4
11550	7	Sololá	701	Sololá	3	Barraneche	3	Marzo	2023-02-03T00:00:00	2024-11-06T03:00:00	7	Dirección del viento	6.44
11551	7	Sololá	701	Sololá	3	Barraneche	3	Marzo	2023-02-03T00:00:00	2024-11-06T03:00:00	1	Precipitación	0
11552	7	Sololá	701	Sololá	3	Barraneche	3	Marzo	2023-02-03T00:00:00	2024-11-06T03:00:00	8	Radiación solar	0
11553	7	Sololá	701	Sololá	3	Barraneche	3	Marzo	2023-02-03T00:00:00	2024-11-06T04:00:00	2	Temperatura media	10.1
11554	7	Sololá	701	Sololá	3	Barraneche	3	Marzo	2023-02-03T00:00:00	2024-11-06T04:00:00	4	Temperatura máxima	10.7
11555	7	Sololá	701	Sololá	3	Barraneche	3	Marzo	2023-02-03T00:00:00	2024-11-06T04:00:00	3	Temperatura mínima	9.9
11556	7	Sololá	701	Sololá	3	Barraneche	3	Marzo	2023-02-03T00:00:00	2024-11-06T04:00:00	5	Humedad	57
11557	7	Sololá	701	Sololá	3	Barraneche	3	Marzo	2023-02-03T00:00:00	2024-11-06T04:00:00	6	Velocidad del viento	11.3
11558	7	Sololá	701	Sololá	3	Barraneche	3	Marzo	2023-02-03T00:00:00	2024-11-06T04:00:00	7	Dirección del viento	11.27
11559	7	Sololá	701	Sololá	3	Barraneche	3	Marzo	2023-02-03T00:00:00	2024-11-06T04:00:00	1	Precipitación	0
11560	7	Sololá	701	Sololá	3	Barraneche	3	Marzo	2023-02-03T00:00:00	2024-11-06T04:00:00	8	Radiación solar	0
11561	7	Sololá	701	Sololá	3	Barraneche	3	Marzo	2023-02-03T00:00:00	2024-11-06T05:00:00	2	Temperatura media	8.3
11562	7	Sololá	701	Sololá	3	Barraneche	3	Marzo	2023-02-03T00:00:00	2024-11-06T05:00:00	4	Temperatura máxima	10.2
11563	7	Sololá	701	Sololá	3	Barraneche	3	Marzo	2023-02-03T00:00:00	2024-11-06T05:00:00	3	Temperatura mínima	8.3
11564	7	Sololá	701	Sololá	3	Barraneche	3	Marzo	2023-02-03T00:00:00	2024-11-06T05:00:00	5	Humedad	51
11565	7	Sololá	701	Sololá	3	Barraneche	3	Marzo	2023-02-03T00:00:00	2024-11-06T05:00:00	6	Velocidad del viento	9.7
11566	7	Sololá	701	Sololá	3	Barraneche	3	Marzo	2023-02-03T00:00:00	2024-11-06T05:00:00	7	Dirección del viento	9.66
11567	7	Sololá	701	Sololá	3	Barraneche	3	Marzo	2023-02-03T00:00:00	2024-11-06T05:00:00	1	Precipitación	0
11568	7	Sololá	701	Sololá	3	Barraneche	3	Marzo	2023-02-03T00:00:00	2024-11-06T05:00:00	8	Radiación solar	0
11569	7	Sololá	701	Sololá	3	Barraneche	3	Marzo	2023-02-03T00:00:00	2024-11-06T06:00:00	2	Temperatura media	7.8
11570	7	Sololá	701	Sololá	3	Barraneche	3	Marzo	2023-02-03T00:00:00	2024-11-06T06:00:00	4	Temperatura máxima	8.3
11571	7	Sololá	701	Sololá	3	Barraneche	3	Marzo	2023-02-03T00:00:00	2024-11-06T06:00:00	3	Temperatura mínima	7.8
11572	7	Sololá	701	Sololá	3	Barraneche	3	Marzo	2023-02-03T00:00:00	2024-11-06T06:00:00	5	Humedad	53
11573	7	Sololá	701	Sololá	3	Barraneche	3	Marzo	2023-02-03T00:00:00	2024-11-06T06:00:00	6	Velocidad del viento	8
11574	7	Sololá	701	Sololá	3	Barraneche	3	Marzo	2023-02-03T00:00:00	2024-11-06T06:00:00	7	Dirección del viento	8.05
11575	7	Sololá	701	Sololá	3	Barraneche	3	Marzo	2023-02-03T00:00:00	2024-11-06T06:00:00	1	Precipitación	0
11576	7	Sololá	701	Sololá	3	Barraneche	3	Marzo	2023-02-03T00:00:00	2024-11-06T06:00:00	8	Radiación solar	0
11577	7	Sololá	701	Sololá	3	Barraneche	3	Marzo	2023-02-03T00:00:00	2024-11-06T07:00:00	2	Temperatura media	8.3
11578	7	Sololá	701	Sololá	3	Barraneche	3	Marzo	2023-02-03T00:00:00	2024-11-06T07:00:00	4	Temperatura máxima	8.3
11579	7	Sololá	701	Sololá	3	Barraneche	3	Marzo	2023-02-03T00:00:00	2024-11-06T07:00:00	3	Temperatura mínima	7.6
11580	7	Sololá	701	Sololá	3	Barraneche	3	Marzo	2023-02-03T00:00:00	2024-11-06T07:00:00	5	Humedad	54
11581	7	Sololá	701	Sololá	3	Barraneche	3	Marzo	2023-02-03T00:00:00	2024-11-06T07:00:00	6	Velocidad del viento	6.4
11582	7	Sololá	701	Sololá	3	Barraneche	3	Marzo	2023-02-03T00:00:00	2024-11-06T07:00:00	7	Dirección del viento	6.44
11583	7	Sololá	701	Sololá	3	Barraneche	3	Marzo	2023-02-03T00:00:00	2024-11-06T07:00:00	1	Precipitación	0
11584	7	Sololá	701	Sololá	3	Barraneche	3	Marzo	2023-02-03T00:00:00	2024-11-06T07:00:00	8	Radiación solar	14
11585	7	Sololá	701	Sololá	3	Barraneche	3	Marzo	2023-02-03T00:00:00	2024-11-06T08:00:00	2	Temperatura media	12.1
11586	7	Sololá	701	Sololá	3	Barraneche	3	Marzo	2023-02-03T00:00:00	2024-11-06T08:00:00	4	Temperatura máxima	12.1
11587	7	Sololá	701	Sololá	3	Barraneche	3	Marzo	2023-02-03T00:00:00	2024-11-06T08:00:00	3	Temperatura mínima	8.3
11588	7	Sololá	701	Sololá	3	Barraneche	3	Marzo	2023-02-03T00:00:00	2024-11-06T08:00:00	5	Humedad	56
11589	7	Sololá	701	Sololá	3	Barraneche	3	Marzo	2023-02-03T00:00:00	2024-11-06T08:00:00	6	Velocidad del viento	6.4
11590	7	Sololá	701	Sololá	3	Barraneche	3	Marzo	2023-02-03T00:00:00	2024-11-06T08:00:00	7	Dirección del viento	6.44
11591	7	Sololá	701	Sololá	3	Barraneche	3	Marzo	2023-02-03T00:00:00	2024-11-06T08:00:00	1	Precipitación	0
11592	7	Sololá	701	Sololá	3	Barraneche	3	Marzo	2023-02-03T00:00:00	2024-11-06T08:00:00	8	Radiación solar	214
11593	7	Sololá	701	Sololá	3	Barraneche	3	Marzo	2023-02-03T00:00:00	2024-11-06T09:00:00	2	Temperatura media	15.6
11594	7	Sololá	701	Sololá	3	Barraneche	3	Marzo	2023-02-03T00:00:00	2024-11-06T09:00:00	4	Temperatura máxima	15.6
11595	7	Sololá	701	Sololá	3	Barraneche	3	Marzo	2023-02-03T00:00:00	2024-11-06T09:00:00	3	Temperatura mínima	12.1
11596	7	Sololá	701	Sololá	3	Barraneche	3	Marzo	2023-02-03T00:00:00	2024-11-06T09:00:00	5	Humedad	49
11597	7	Sololá	701	Sololá	3	Barraneche	3	Marzo	2023-02-03T00:00:00	2024-11-06T09:00:00	6	Velocidad del viento	3.2
11598	7	Sololá	701	Sololá	3	Barraneche	3	Marzo	2023-02-03T00:00:00	2024-11-06T09:00:00	7	Dirección del viento	3.22
11599	7	Sololá	701	Sololá	3	Barraneche	3	Marzo	2023-02-03T00:00:00	2024-11-06T09:00:00	1	Precipitación	0
11600	7	Sololá	701	Sololá	3	Barraneche	3	Marzo	2023-02-03T00:00:00	2024-11-06T09:00:00	8	Radiación solar	483
11601	7	Sololá	701	Sololá	3	Barraneche	3	Marzo	2023-02-03T00:00:00	2024-11-06T10:00:00	2	Temperatura media	17.4
11602	7	Sololá	701	Sololá	3	Barraneche	3	Marzo	2023-02-03T00:00:00	2024-11-06T10:00:00	4	Temperatura máxima	17.4
11603	7	Sololá	701	Sololá	3	Barraneche	3	Marzo	2023-02-03T00:00:00	2024-11-06T10:00:00	3	Temperatura mínima	15.6
11604	7	Sololá	701	Sololá	3	Barraneche	3	Marzo	2023-02-03T00:00:00	2024-11-06T10:00:00	5	Humedad	18
11605	7	Sololá	701	Sololá	3	Barraneche	3	Marzo	2023-02-03T00:00:00	2024-11-06T10:00:00	6	Velocidad del viento	8
11606	7	Sololá	701	Sololá	3	Barraneche	3	Marzo	2023-02-03T00:00:00	2024-11-06T10:00:00	7	Dirección del viento	8.05
11607	7	Sololá	701	Sololá	3	Barraneche	3	Marzo	2023-02-03T00:00:00	2024-11-06T10:00:00	1	Precipitación	0
11608	7	Sololá	701	Sololá	3	Barraneche	3	Marzo	2023-02-03T00:00:00	2024-11-06T10:00:00	8	Radiación solar	734
11609	7	Sololá	701	Sololá	3	Barraneche	3	Marzo	2023-02-03T00:00:00	2024-11-06T11:00:00	2	Temperatura media	17.8
11610	7	Sololá	701	Sololá	3	Barraneche	3	Marzo	2023-02-03T00:00:00	2024-11-06T11:00:00	4	Temperatura máxima	18
11611	7	Sololá	701	Sololá	3	Barraneche	3	Marzo	2023-02-03T00:00:00	2024-11-06T11:00:00	3	Temperatura mínima	17.4
11612	7	Sololá	701	Sololá	3	Barraneche	3	Marzo	2023-02-03T00:00:00	2024-11-06T11:00:00	5	Humedad	25
11613	7	Sololá	701	Sololá	3	Barraneche	3	Marzo	2023-02-03T00:00:00	2024-11-06T11:00:00	6	Velocidad del viento	11.3
11614	7	Sololá	701	Sololá	3	Barraneche	3	Marzo	2023-02-03T00:00:00	2024-11-06T11:00:00	7	Dirección del viento	11.27
11615	7	Sololá	701	Sololá	3	Barraneche	3	Marzo	2023-02-03T00:00:00	2024-11-06T11:00:00	1	Precipitación	0
11616	7	Sololá	701	Sololá	3	Barraneche	3	Marzo	2023-02-03T00:00:00	2024-11-06T11:00:00	8	Radiación solar	893
11617	7	Sololá	701	Sololá	3	Barraneche	3	Marzo	2023-02-03T00:00:00	2024-11-06T12:00:00	2	Temperatura media	19.3
11618	7	Sololá	701	Sololá	3	Barraneche	3	Marzo	2023-02-03T00:00:00	2024-11-06T12:00:00	4	Temperatura máxima	19.3
11619	7	Sololá	701	Sololá	3	Barraneche	3	Marzo	2023-02-03T00:00:00	2024-11-06T12:00:00	3	Temperatura mínima	17.8
11620	7	Sololá	701	Sololá	3	Barraneche	3	Marzo	2023-02-03T00:00:00	2024-11-06T12:00:00	5	Humedad	30
11621	7	Sololá	701	Sololá	3	Barraneche	3	Marzo	2023-02-03T00:00:00	2024-11-06T12:00:00	6	Velocidad del viento	11.3
11622	7	Sololá	701	Sololá	3	Barraneche	3	Marzo	2023-02-03T00:00:00	2024-11-06T12:00:00	7	Dirección del viento	11.27
11623	7	Sololá	701	Sololá	3	Barraneche	3	Marzo	2023-02-03T00:00:00	2024-11-06T12:00:00	1	Precipitación	0
11624	7	Sololá	701	Sololá	3	Barraneche	3	Marzo	2023-02-03T00:00:00	2024-11-06T12:00:00	8	Radiación solar	987
11625	7	Sololá	701	Sololá	3	Barraneche	3	Marzo	2023-02-03T00:00:00	2024-11-06T13:00:00	2	Temperatura media	18.6
11626	7	Sololá	701	Sololá	3	Barraneche	3	Marzo	2023-02-03T00:00:00	2024-11-06T13:00:00	4	Temperatura máxima	19.4
11627	7	Sololá	701	Sololá	3	Barraneche	3	Marzo	2023-02-03T00:00:00	2024-11-06T13:00:00	3	Temperatura mínima	18.2
11628	7	Sololá	701	Sololá	3	Barraneche	3	Marzo	2023-02-03T00:00:00	2024-11-06T13:00:00	5	Humedad	34
11629	7	Sololá	701	Sololá	3	Barraneche	3	Marzo	2023-02-03T00:00:00	2024-11-06T13:00:00	6	Velocidad del viento	16.1
11630	7	Sololá	701	Sololá	3	Barraneche	3	Marzo	2023-02-03T00:00:00	2024-11-06T13:00:00	7	Dirección del viento	16.09
11631	7	Sololá	701	Sololá	3	Barraneche	3	Marzo	2023-02-03T00:00:00	2024-11-06T13:00:00	1	Precipitación	0
11632	7	Sololá	701	Sololá	3	Barraneche	3	Marzo	2023-02-03T00:00:00	2024-11-06T13:00:00	8	Radiación solar	997
11633	7	Sololá	701	Sololá	3	Barraneche	3	Marzo	2023-02-03T00:00:00	2024-11-06T14:00:00	2	Temperatura media	17.7
11634	7	Sololá	701	Sololá	3	Barraneche	3	Marzo	2023-02-03T00:00:00	2024-11-06T14:00:00	4	Temperatura máxima	18.8
11635	7	Sololá	701	Sololá	3	Barraneche	3	Marzo	2023-02-03T00:00:00	2024-11-06T14:00:00	3	Temperatura mínima	17.7
11636	7	Sololá	701	Sololá	3	Barraneche	3	Marzo	2023-02-03T00:00:00	2024-11-06T14:00:00	5	Humedad	54
11637	7	Sololá	701	Sololá	3	Barraneche	3	Marzo	2023-02-03T00:00:00	2024-11-06T14:00:00	6	Velocidad del viento	16.1
11638	7	Sololá	701	Sololá	3	Barraneche	3	Marzo	2023-02-03T00:00:00	2024-11-06T14:00:00	7	Dirección del viento	16.09
11639	7	Sololá	701	Sololá	3	Barraneche	3	Marzo	2023-02-03T00:00:00	2024-11-06T14:00:00	1	Precipitación	0
11640	7	Sololá	701	Sololá	3	Barraneche	3	Marzo	2023-02-03T00:00:00	2024-11-06T14:00:00	8	Radiación solar	920
11641	7	Sololá	701	Sololá	3	Barraneche	3	Marzo	2023-02-03T00:00:00	2024-11-06T15:00:00	2	Temperatura media	17.3
11642	7	Sololá	701	Sololá	3	Barraneche	3	Marzo	2023-02-03T00:00:00	2024-11-06T15:00:00	4	Temperatura máxima	17.7
11643	7	Sololá	701	Sololá	3	Barraneche	3	Marzo	2023-02-03T00:00:00	2024-11-06T15:00:00	3	Temperatura mínima	17.1
11644	7	Sololá	701	Sololá	3	Barraneche	3	Marzo	2023-02-03T00:00:00	2024-11-06T15:00:00	5	Humedad	58
11645	7	Sololá	701	Sololá	3	Barraneche	3	Marzo	2023-02-03T00:00:00	2024-11-06T15:00:00	6	Velocidad del viento	14.5
11646	7	Sololá	701	Sololá	3	Barraneche	3	Marzo	2023-02-03T00:00:00	2024-11-06T15:00:00	7	Dirección del viento	14.48
11647	7	Sololá	701	Sololá	3	Barraneche	3	Marzo	2023-02-03T00:00:00	2024-11-06T15:00:00	1	Precipitación	0
11648	7	Sololá	701	Sololá	3	Barraneche	3	Marzo	2023-02-03T00:00:00	2024-11-06T15:00:00	8	Radiación solar	703
11649	7	Sololá	701	Sololá	3	Barraneche	3	Marzo	2023-02-03T00:00:00	2024-11-06T16:00:00	2	Temperatura media	16.7
11650	7	Sololá	701	Sololá	3	Barraneche	3	Marzo	2023-02-03T00:00:00	2024-11-06T16:00:00	4	Temperatura máxima	17.4
11651	7	Sololá	701	Sololá	3	Barraneche	3	Marzo	2023-02-03T00:00:00	2024-11-06T16:00:00	3	Temperatura mínima	16.7
11652	7	Sololá	701	Sololá	3	Barraneche	3	Marzo	2023-02-03T00:00:00	2024-11-06T16:00:00	5	Humedad	62
11653	7	Sololá	701	Sololá	3	Barraneche	3	Marzo	2023-02-03T00:00:00	2024-11-06T16:00:00	6	Velocidad del viento	12.9
11654	7	Sololá	701	Sololá	3	Barraneche	3	Marzo	2023-02-03T00:00:00	2024-11-06T16:00:00	7	Dirección del viento	12.87
11655	7	Sololá	701	Sololá	3	Barraneche	3	Marzo	2023-02-03T00:00:00	2024-11-06T16:00:00	1	Precipitación	0
11656	7	Sololá	701	Sololá	3	Barraneche	3	Marzo	2023-02-03T00:00:00	2024-11-06T16:00:00	8	Radiación solar	578
11657	7	Sololá	701	Sololá	3	Barraneche	3	Marzo	2023-02-03T00:00:00	2024-11-06T17:00:00	2	Temperatura media	14.7
11658	7	Sololá	701	Sololá	3	Barraneche	3	Marzo	2023-02-03T00:00:00	2024-11-06T17:00:00	4	Temperatura máxima	16.8
11659	7	Sololá	701	Sololá	3	Barraneche	3	Marzo	2023-02-03T00:00:00	2024-11-06T17:00:00	3	Temperatura mínima	14.7
11660	7	Sololá	701	Sololá	3	Barraneche	3	Marzo	2023-02-03T00:00:00	2024-11-06T17:00:00	5	Humedad	68
11661	7	Sololá	701	Sololá	3	Barraneche	3	Marzo	2023-02-03T00:00:00	2024-11-06T17:00:00	6	Velocidad del viento	12.9
11662	7	Sololá	701	Sololá	3	Barraneche	3	Marzo	2023-02-03T00:00:00	2024-11-06T17:00:00	7	Dirección del viento	12.87
11663	7	Sololá	701	Sololá	3	Barraneche	3	Marzo	2023-02-03T00:00:00	2024-11-06T17:00:00	1	Precipitación	0
11664	7	Sololá	701	Sololá	3	Barraneche	3	Marzo	2023-02-03T00:00:00	2024-11-06T17:00:00	8	Radiación solar	250
11665	7	Sololá	701	Sololá	3	Barraneche	3	Marzo	2023-02-03T00:00:00	2024-11-06T18:00:00	2	Temperatura media	14.2
11666	7	Sololá	701	Sololá	3	Barraneche	3	Marzo	2023-02-03T00:00:00	2024-11-06T18:00:00	4	Temperatura máxima	14.7
11667	7	Sololá	701	Sololá	3	Barraneche	3	Marzo	2023-02-03T00:00:00	2024-11-06T18:00:00	3	Temperatura mínima	14.2
11668	7	Sololá	701	Sololá	3	Barraneche	3	Marzo	2023-02-03T00:00:00	2024-11-06T18:00:00	5	Humedad	70
11669	7	Sololá	701	Sololá	3	Barraneche	3	Marzo	2023-02-03T00:00:00	2024-11-06T18:00:00	6	Velocidad del viento	6.4
11670	7	Sololá	701	Sololá	3	Barraneche	3	Marzo	2023-02-03T00:00:00	2024-11-06T18:00:00	7	Dirección del viento	6.44
11671	7	Sololá	701	Sololá	3	Barraneche	3	Marzo	2023-02-03T00:00:00	2024-11-06T18:00:00	1	Precipitación	0
11672	7	Sololá	701	Sololá	3	Barraneche	3	Marzo	2023-02-03T00:00:00	2024-11-06T18:00:00	8	Radiación solar	44
11673	7	Sololá	701	Sololá	3	Barraneche	3	Marzo	2023-02-03T00:00:00	2024-11-06T19:00:00	2	Temperatura media	13.1
11674	7	Sololá	701	Sololá	3	Barraneche	3	Marzo	2023-02-03T00:00:00	2024-11-06T19:00:00	4	Temperatura máxima	14.2
11675	7	Sololá	701	Sololá	3	Barraneche	3	Marzo	2023-02-03T00:00:00	2024-11-06T19:00:00	3	Temperatura mínima	13.1
11676	7	Sololá	701	Sololá	3	Barraneche	3	Marzo	2023-02-03T00:00:00	2024-11-06T19:00:00	5	Humedad	66
11677	7	Sololá	701	Sololá	3	Barraneche	3	Marzo	2023-02-03T00:00:00	2024-11-06T19:00:00	6	Velocidad del viento	3.2
11678	7	Sololá	701	Sololá	3	Barraneche	3	Marzo	2023-02-03T00:00:00	2024-11-06T19:00:00	7	Dirección del viento	3.22
11679	7	Sololá	701	Sololá	3	Barraneche	3	Marzo	2023-02-03T00:00:00	2024-11-06T19:00:00	1	Precipitación	0
11680	7	Sololá	701	Sololá	3	Barraneche	3	Marzo	2023-02-03T00:00:00	2024-11-06T19:00:00	8	Radiación solar	0
11681	7	Sololá	701	Sololá	3	Barraneche	3	Marzo	2023-02-03T00:00:00	2024-11-06T20:00:00	2	Temperatura media	10.9
11682	7	Sololá	701	Sololá	3	Barraneche	3	Marzo	2023-02-03T00:00:00	2024-11-06T20:00:00	4	Temperatura máxima	13
11683	7	Sololá	701	Sololá	3	Barraneche	3	Marzo	2023-02-03T00:00:00	2024-11-06T20:00:00	3	Temperatura mínima	10.9
11684	7	Sololá	701	Sololá	3	Barraneche	3	Marzo	2023-02-03T00:00:00	2024-11-06T20:00:00	5	Humedad	67
11685	7	Sololá	701	Sololá	3	Barraneche	3	Marzo	2023-02-03T00:00:00	2024-11-06T20:00:00	6	Velocidad del viento	4.8
11686	7	Sololá	701	Sololá	3	Barraneche	3	Marzo	2023-02-03T00:00:00	2024-11-06T20:00:00	7	Dirección del viento	4.83
11687	7	Sololá	701	Sololá	3	Barraneche	3	Marzo	2023-02-03T00:00:00	2024-11-06T20:00:00	1	Precipitación	0
11688	7	Sololá	701	Sololá	3	Barraneche	3	Marzo	2023-02-03T00:00:00	2024-11-06T20:00:00	8	Radiación solar	0
11689	7	Sololá	701	Sololá	3	Barraneche	3	Marzo	2023-02-03T00:00:00	2024-11-06T21:00:00	2	Temperatura media	10.4
11690	7	Sololá	701	Sololá	3	Barraneche	3	Marzo	2023-02-03T00:00:00	2024-11-06T21:00:00	4	Temperatura máxima	11.3
11691	7	Sololá	701	Sololá	3	Barraneche	3	Marzo	2023-02-03T00:00:00	2024-11-06T21:00:00	3	Temperatura mínima	10.2
11692	7	Sololá	701	Sololá	3	Barraneche	3	Marzo	2023-02-03T00:00:00	2024-11-06T21:00:00	5	Humedad	61
11693	7	Sololá	701	Sololá	3	Barraneche	3	Marzo	2023-02-03T00:00:00	2024-11-06T21:00:00	6	Velocidad del viento	6.4
11694	7	Sololá	701	Sololá	3	Barraneche	3	Marzo	2023-02-03T00:00:00	2024-11-06T21:00:00	7	Dirección del viento	6.44
11695	7	Sololá	701	Sololá	3	Barraneche	3	Marzo	2023-02-03T00:00:00	2024-11-06T21:00:00	1	Precipitación	0
11696	7	Sololá	701	Sololá	3	Barraneche	3	Marzo	2023-02-03T00:00:00	2024-11-06T21:00:00	8	Radiación solar	0
11697	7	Sololá	701	Sololá	3	Barraneche	3	Marzo	2023-02-03T00:00:00	2024-11-06T22:00:00	2	Temperatura media	9.8
11698	7	Sololá	701	Sololá	3	Barraneche	3	Marzo	2023-02-03T00:00:00	2024-11-06T22:00:00	4	Temperatura máxima	10.8
11699	7	Sololá	701	Sololá	3	Barraneche	3	Marzo	2023-02-03T00:00:00	2024-11-06T22:00:00	3	Temperatura mínima	9.6
11700	7	Sololá	701	Sololá	3	Barraneche	3	Marzo	2023-02-03T00:00:00	2024-11-06T22:00:00	5	Humedad	31
11701	7	Sololá	701	Sololá	3	Barraneche	3	Marzo	2023-02-03T00:00:00	2024-11-06T22:00:00	6	Velocidad del viento	9.7
11702	7	Sololá	701	Sololá	3	Barraneche	3	Marzo	2023-02-03T00:00:00	2024-11-06T22:00:00	7	Dirección del viento	9.66
11703	7	Sololá	701	Sololá	3	Barraneche	3	Marzo	2023-02-03T00:00:00	2024-11-06T22:00:00	1	Precipitación	0
11704	7	Sololá	701	Sololá	3	Barraneche	3	Marzo	2023-02-03T00:00:00	2024-11-06T22:00:00	8	Radiación solar	0
11705	7	Sololá	701	Sololá	3	Barraneche	3	Marzo	2023-02-03T00:00:00	2024-11-06T23:00:00	2	Temperatura media	9.8
11706	7	Sololá	701	Sololá	3	Barraneche	3	Marzo	2023-02-03T00:00:00	2024-11-06T23:00:00	4	Temperatura máxima	9.9
11707	7	Sololá	701	Sololá	3	Barraneche	3	Marzo	2023-02-03T00:00:00	2024-11-06T23:00:00	3	Temperatura mínima	9.3
11708	7	Sololá	701	Sololá	3	Barraneche	3	Marzo	2023-02-03T00:00:00	2024-11-06T23:00:00	5	Humedad	22
11709	7	Sololá	701	Sololá	3	Barraneche	3	Marzo	2023-02-03T00:00:00	2024-11-06T23:00:00	6	Velocidad del viento	12.9
11710	7	Sololá	701	Sololá	3	Barraneche	3	Marzo	2023-02-03T00:00:00	2024-11-06T23:00:00	7	Dirección del viento	12.87
11711	7	Sololá	701	Sololá	3	Barraneche	3	Marzo	2023-02-03T00:00:00	2024-11-06T23:00:00	1	Precipitación	0
11712	7	Sololá	701	Sololá	3	Barraneche	3	Marzo	2023-02-03T00:00:00	2024-11-06T23:00:00	8	Radiación solar	0
11713	7	Sololá	701	Sololá	3	Barraneche	3	Marzo	2023-03-03T00:00:00	2024-11-06T00:00:00	2	Temperatura media	9.2
11714	7	Sololá	701	Sololá	3	Barraneche	3	Marzo	2023-03-03T00:00:00	2024-11-06T00:00:00	4	Temperatura máxima	10.5
11715	7	Sololá	701	Sololá	3	Barraneche	3	Marzo	2023-03-03T00:00:00	2024-11-06T00:00:00	3	Temperatura mínima	8.7
11716	7	Sololá	701	Sololá	3	Barraneche	3	Marzo	2023-03-03T00:00:00	2024-11-06T00:00:00	5	Humedad	23
11717	7	Sololá	701	Sololá	3	Barraneche	3	Marzo	2023-03-03T00:00:00	2024-11-06T00:00:00	6	Velocidad del viento	12.9
11718	7	Sololá	701	Sololá	3	Barraneche	3	Marzo	2023-03-03T00:00:00	2024-11-06T00:00:00	7	Dirección del viento	12.87
11719	7	Sololá	701	Sololá	3	Barraneche	3	Marzo	2023-03-03T00:00:00	2024-11-06T00:00:00	1	Precipitación	0
11720	7	Sololá	701	Sololá	3	Barraneche	3	Marzo	2023-03-03T00:00:00	2024-11-06T00:00:00	8	Radiación solar	0
11721	7	Sololá	701	Sololá	3	Barraneche	3	Marzo	2023-03-03T00:00:00	2024-11-06T01:00:00	2	Temperatura media	8.2
11722	7	Sololá	701	Sololá	3	Barraneche	3	Marzo	2023-03-03T00:00:00	2024-11-06T01:00:00	4	Temperatura máxima	9.4
11723	7	Sololá	701	Sololá	3	Barraneche	3	Marzo	2023-03-03T00:00:00	2024-11-06T01:00:00	3	Temperatura mínima	8.2
11724	7	Sololá	701	Sololá	3	Barraneche	3	Marzo	2023-03-03T00:00:00	2024-11-06T01:00:00	5	Humedad	24
11725	7	Sololá	701	Sololá	3	Barraneche	3	Marzo	2023-03-03T00:00:00	2024-11-06T01:00:00	6	Velocidad del viento	12.9
11726	7	Sololá	701	Sololá	3	Barraneche	3	Marzo	2023-03-03T00:00:00	2024-11-06T01:00:00	7	Dirección del viento	12.87
11727	7	Sololá	701	Sololá	3	Barraneche	3	Marzo	2023-03-03T00:00:00	2024-11-06T01:00:00	1	Precipitación	0
11728	7	Sololá	701	Sololá	3	Barraneche	3	Marzo	2023-03-03T00:00:00	2024-11-06T01:00:00	8	Radiación solar	0
11729	7	Sololá	701	Sololá	3	Barraneche	3	Marzo	2023-03-03T00:00:00	2024-11-06T02:00:00	2	Temperatura media	12.9
11730	7	Sololá	701	Sololá	3	Barraneche	3	Marzo	2023-03-03T00:00:00	2024-11-06T02:00:00	4	Temperatura máxima	12.9
11731	7	Sololá	701	Sololá	3	Barraneche	3	Marzo	2023-03-03T00:00:00	2024-11-06T02:00:00	3	Temperatura mínima	8.2
11732	7	Sololá	701	Sololá	3	Barraneche	3	Marzo	2023-03-03T00:00:00	2024-11-06T02:00:00	5	Humedad	20
11733	7	Sololá	701	Sololá	3	Barraneche	3	Marzo	2023-03-03T00:00:00	2024-11-06T02:00:00	6	Velocidad del viento	8
11734	7	Sololá	701	Sololá	3	Barraneche	3	Marzo	2023-03-03T00:00:00	2024-11-06T02:00:00	7	Dirección del viento	8.05
11735	7	Sololá	701	Sololá	3	Barraneche	3	Marzo	2023-03-03T00:00:00	2024-11-06T02:00:00	1	Precipitación	0
11736	7	Sololá	701	Sololá	3	Barraneche	3	Marzo	2023-03-03T00:00:00	2024-11-06T02:00:00	8	Radiación solar	0
11737	7	Sololá	701	Sololá	3	Barraneche	3	Marzo	2023-03-03T00:00:00	2024-11-06T03:00:00	2	Temperatura media	14.1
11738	7	Sololá	701	Sololá	3	Barraneche	3	Marzo	2023-03-03T00:00:00	2024-11-06T03:00:00	4	Temperatura máxima	14.6
11739	7	Sololá	701	Sololá	3	Barraneche	3	Marzo	2023-03-03T00:00:00	2024-11-06T03:00:00	3	Temperatura mínima	12.9
11740	7	Sololá	701	Sololá	3	Barraneche	3	Marzo	2023-03-03T00:00:00	2024-11-06T03:00:00	5	Humedad	29
11741	7	Sololá	701	Sololá	3	Barraneche	3	Marzo	2023-03-03T00:00:00	2024-11-06T03:00:00	6	Velocidad del viento	8
11742	7	Sololá	701	Sololá	3	Barraneche	3	Marzo	2023-03-03T00:00:00	2024-11-06T03:00:00	7	Dirección del viento	8.05
11743	7	Sololá	701	Sololá	3	Barraneche	3	Marzo	2023-03-03T00:00:00	2024-11-06T03:00:00	1	Precipitación	0
11744	7	Sololá	701	Sololá	3	Barraneche	3	Marzo	2023-03-03T00:00:00	2024-11-06T03:00:00	8	Radiación solar	0
11745	7	Sololá	701	Sololá	3	Barraneche	3	Marzo	2023-03-03T00:00:00	2024-11-06T04:00:00	2	Temperatura media	11.6
11746	7	Sololá	701	Sololá	3	Barraneche	3	Marzo	2023-03-03T00:00:00	2024-11-06T04:00:00	4	Temperatura máxima	14.4
11747	7	Sololá	701	Sololá	3	Barraneche	3	Marzo	2023-03-03T00:00:00	2024-11-06T04:00:00	3	Temperatura mínima	11.6
11748	7	Sololá	701	Sololá	3	Barraneche	3	Marzo	2023-03-03T00:00:00	2024-11-06T04:00:00	5	Humedad	37
11749	7	Sololá	701	Sololá	3	Barraneche	3	Marzo	2023-03-03T00:00:00	2024-11-06T04:00:00	6	Velocidad del viento	3.2
11750	7	Sololá	701	Sololá	3	Barraneche	3	Marzo	2023-03-03T00:00:00	2024-11-06T04:00:00	7	Dirección del viento	3.22
11751	7	Sololá	701	Sololá	3	Barraneche	3	Marzo	2023-03-03T00:00:00	2024-11-06T04:00:00	1	Precipitación	0
11752	7	Sololá	701	Sololá	3	Barraneche	3	Marzo	2023-03-03T00:00:00	2024-11-06T04:00:00	8	Radiación solar	0
11753	7	Sololá	701	Sololá	3	Barraneche	3	Marzo	2023-03-03T00:00:00	2024-11-06T05:00:00	2	Temperatura media	14.4
11754	7	Sololá	701	Sololá	3	Barraneche	3	Marzo	2023-03-03T00:00:00	2024-11-06T05:00:00	4	Temperatura máxima	14.4
11755	7	Sololá	701	Sololá	3	Barraneche	3	Marzo	2023-03-03T00:00:00	2024-11-06T05:00:00	3	Temperatura mínima	11.3
11756	7	Sololá	701	Sololá	3	Barraneche	3	Marzo	2023-03-03T00:00:00	2024-11-06T05:00:00	5	Humedad	31
11757	7	Sololá	701	Sololá	3	Barraneche	3	Marzo	2023-03-03T00:00:00	2024-11-06T05:00:00	6	Velocidad del viento	4.8
11758	7	Sololá	701	Sololá	3	Barraneche	3	Marzo	2023-03-03T00:00:00	2024-11-06T05:00:00	7	Dirección del viento	4.83
11759	7	Sololá	701	Sololá	3	Barraneche	3	Marzo	2023-03-03T00:00:00	2024-11-06T05:00:00	1	Precipitación	0
11760	7	Sololá	701	Sololá	3	Barraneche	3	Marzo	2023-03-03T00:00:00	2024-11-06T05:00:00	8	Radiación solar	0
11761	7	Sololá	701	Sololá	3	Barraneche	3	Marzo	2023-03-03T00:00:00	2024-11-06T06:00:00	2	Temperatura media	14.6
11762	7	Sololá	701	Sololá	3	Barraneche	3	Marzo	2023-03-03T00:00:00	2024-11-06T06:00:00	4	Temperatura máxima	14.8
11763	7	Sololá	701	Sololá	3	Barraneche	3	Marzo	2023-03-03T00:00:00	2024-11-06T06:00:00	3	Temperatura mínima	14.3
11764	7	Sololá	701	Sololá	3	Barraneche	3	Marzo	2023-03-03T00:00:00	2024-11-06T06:00:00	5	Humedad	33
11765	7	Sololá	701	Sololá	3	Barraneche	3	Marzo	2023-03-03T00:00:00	2024-11-06T06:00:00	6	Velocidad del viento	9.7
11766	7	Sololá	701	Sololá	3	Barraneche	3	Marzo	2023-03-03T00:00:00	2024-11-06T06:00:00	7	Dirección del viento	9.66
11767	7	Sololá	701	Sololá	3	Barraneche	3	Marzo	2023-03-03T00:00:00	2024-11-06T06:00:00	1	Precipitación	0
11768	7	Sololá	701	Sololá	3	Barraneche	3	Marzo	2023-03-03T00:00:00	2024-11-06T06:00:00	8	Radiación solar	0
11769	7	Sololá	701	Sololá	3	Barraneche	3	Marzo	2023-03-03T00:00:00	2024-11-06T07:00:00	2	Temperatura media	14.7
11770	7	Sololá	701	Sololá	3	Barraneche	3	Marzo	2023-03-03T00:00:00	2024-11-06T07:00:00	4	Temperatura máxima	14.9
11771	7	Sololá	701	Sololá	3	Barraneche	3	Marzo	2023-03-03T00:00:00	2024-11-06T07:00:00	3	Temperatura mínima	14.5
11772	7	Sololá	701	Sololá	3	Barraneche	3	Marzo	2023-03-03T00:00:00	2024-11-06T07:00:00	5	Humedad	33
11773	7	Sololá	701	Sololá	3	Barraneche	3	Marzo	2023-03-03T00:00:00	2024-11-06T07:00:00	6	Velocidad del viento	12.9
11774	7	Sololá	701	Sololá	3	Barraneche	3	Marzo	2023-03-03T00:00:00	2024-11-06T07:00:00	7	Dirección del viento	12.87
11775	7	Sololá	701	Sololá	3	Barraneche	3	Marzo	2023-03-03T00:00:00	2024-11-06T07:00:00	1	Precipitación	0
11776	7	Sololá	701	Sololá	3	Barraneche	3	Marzo	2023-03-03T00:00:00	2024-11-06T07:00:00	8	Radiación solar	9
11777	7	Sololá	701	Sololá	3	Barraneche	3	Marzo	2023-03-03T00:00:00	2024-11-06T08:00:00	2	Temperatura media	16.7
11778	7	Sololá	701	Sololá	3	Barraneche	3	Marzo	2023-03-03T00:00:00	2024-11-06T08:00:00	4	Temperatura máxima	16.7
11779	7	Sololá	701	Sololá	3	Barraneche	3	Marzo	2023-03-03T00:00:00	2024-11-06T08:00:00	3	Temperatura mínima	14.6
11780	7	Sololá	701	Sololá	3	Barraneche	3	Marzo	2023-03-03T00:00:00	2024-11-06T08:00:00	5	Humedad	30
11781	7	Sololá	701	Sololá	3	Barraneche	3	Marzo	2023-03-03T00:00:00	2024-11-06T08:00:00	6	Velocidad del viento	8
11782	7	Sololá	701	Sololá	3	Barraneche	3	Marzo	2023-03-03T00:00:00	2024-11-06T08:00:00	7	Dirección del viento	8.05
11783	7	Sololá	701	Sololá	3	Barraneche	3	Marzo	2023-03-03T00:00:00	2024-11-06T08:00:00	1	Precipitación	0
11784	7	Sololá	701	Sololá	3	Barraneche	3	Marzo	2023-03-03T00:00:00	2024-11-06T08:00:00	8	Radiación solar	218
11785	7	Sololá	701	Sololá	3	Barraneche	3	Marzo	2023-03-03T00:00:00	2024-11-06T09:00:00	2	Temperatura media	17.6
11786	7	Sololá	701	Sololá	3	Barraneche	3	Marzo	2023-03-03T00:00:00	2024-11-06T09:00:00	4	Temperatura máxima	17.6
11787	7	Sololá	701	Sololá	3	Barraneche	3	Marzo	2023-03-03T00:00:00	2024-11-06T09:00:00	3	Temperatura mínima	16.6
11788	7	Sololá	701	Sololá	3	Barraneche	3	Marzo	2023-03-03T00:00:00	2024-11-06T09:00:00	5	Humedad	27
11789	7	Sololá	701	Sololá	3	Barraneche	3	Marzo	2023-03-03T00:00:00	2024-11-06T09:00:00	6	Velocidad del viento	11.3
11790	7	Sololá	701	Sololá	3	Barraneche	3	Marzo	2023-03-03T00:00:00	2024-11-06T09:00:00	7	Dirección del viento	11.27
11791	7	Sololá	701	Sololá	3	Barraneche	3	Marzo	2023-03-03T00:00:00	2024-11-06T09:00:00	1	Precipitación	0
11792	7	Sololá	701	Sololá	3	Barraneche	3	Marzo	2023-03-03T00:00:00	2024-11-06T09:00:00	8	Radiación solar	501
11793	7	Sololá	701	Sololá	3	Barraneche	3	Marzo	2023-03-03T00:00:00	2024-11-06T10:00:00	2	Temperatura media	19.1
11794	7	Sololá	701	Sololá	3	Barraneche	3	Marzo	2023-03-03T00:00:00	2024-11-06T10:00:00	4	Temperatura máxima	19.4
11795	7	Sololá	701	Sololá	3	Barraneche	3	Marzo	2023-03-03T00:00:00	2024-11-06T10:00:00	3	Temperatura mínima	17.6
11796	7	Sololá	701	Sololá	3	Barraneche	3	Marzo	2023-03-03T00:00:00	2024-11-06T10:00:00	5	Humedad	23
11797	7	Sololá	701	Sololá	3	Barraneche	3	Marzo	2023-03-03T00:00:00	2024-11-06T10:00:00	6	Velocidad del viento	14.5
11798	7	Sololá	701	Sololá	3	Barraneche	3	Marzo	2023-03-03T00:00:00	2024-11-06T10:00:00	7	Dirección del viento	14.48
11799	7	Sololá	701	Sololá	3	Barraneche	3	Marzo	2023-03-03T00:00:00	2024-11-06T10:00:00	1	Precipitación	0
11800	7	Sololá	701	Sololá	3	Barraneche	3	Marzo	2023-03-03T00:00:00	2024-11-06T10:00:00	8	Radiación solar	728
11801	7	Sololá	701	Sololá	3	Barraneche	3	Marzo	2023-03-03T00:00:00	2024-11-06T11:00:00	2	Temperatura media	19.6
11802	7	Sololá	701	Sololá	3	Barraneche	3	Marzo	2023-03-03T00:00:00	2024-11-06T11:00:00	4	Temperatura máxima	19.9
11803	7	Sololá	701	Sololá	3	Barraneche	3	Marzo	2023-03-03T00:00:00	2024-11-06T11:00:00	3	Temperatura mínima	18.9
11804	7	Sololá	701	Sololá	3	Barraneche	3	Marzo	2023-03-03T00:00:00	2024-11-06T11:00:00	5	Humedad	21
11805	7	Sololá	701	Sololá	3	Barraneche	3	Marzo	2023-03-03T00:00:00	2024-11-06T11:00:00	6	Velocidad del viento	16.1
11806	7	Sololá	701	Sololá	3	Barraneche	3	Marzo	2023-03-03T00:00:00	2024-11-06T11:00:00	7	Dirección del viento	16.09
11807	7	Sololá	701	Sololá	3	Barraneche	3	Marzo	2023-03-03T00:00:00	2024-11-06T11:00:00	1	Precipitación	0
11808	7	Sololá	701	Sololá	3	Barraneche	3	Marzo	2023-03-03T00:00:00	2024-11-06T11:00:00	8	Radiación solar	901
11809	7	Sololá	701	Sololá	3	Barraneche	3	Marzo	2023-03-03T00:00:00	2024-11-06T12:00:00	2	Temperatura media	20.2
11810	7	Sololá	701	Sololá	3	Barraneche	3	Marzo	2023-03-03T00:00:00	2024-11-06T12:00:00	4	Temperatura máxima	20.4
11811	7	Sololá	701	Sololá	3	Barraneche	3	Marzo	2023-03-03T00:00:00	2024-11-06T12:00:00	3	Temperatura mínima	19.4
11812	7	Sololá	701	Sololá	3	Barraneche	3	Marzo	2023-03-03T00:00:00	2024-11-06T12:00:00	5	Humedad	23
11813	7	Sololá	701	Sololá	3	Barraneche	3	Marzo	2023-03-03T00:00:00	2024-11-06T12:00:00	6	Velocidad del viento	14.5
11814	7	Sololá	701	Sololá	3	Barraneche	3	Marzo	2023-03-03T00:00:00	2024-11-06T12:00:00	7	Dirección del viento	14.48
11815	7	Sololá	701	Sololá	3	Barraneche	3	Marzo	2023-03-03T00:00:00	2024-11-06T12:00:00	1	Precipitación	0
11816	7	Sololá	701	Sololá	3	Barraneche	3	Marzo	2023-03-03T00:00:00	2024-11-06T12:00:00	8	Radiación solar	997
11817	7	Sololá	701	Sololá	3	Barraneche	3	Marzo	2023-03-03T00:00:00	2024-11-06T13:00:00	2	Temperatura media	19.2
11818	7	Sololá	701	Sololá	3	Barraneche	3	Marzo	2023-03-03T00:00:00	2024-11-06T13:00:00	4	Temperatura máxima	21.1
11819	7	Sololá	701	Sololá	3	Barraneche	3	Marzo	2023-03-03T00:00:00	2024-11-06T13:00:00	3	Temperatura mínima	19.2
11820	7	Sololá	701	Sololá	3	Barraneche	3	Marzo	2023-03-03T00:00:00	2024-11-06T13:00:00	5	Humedad	42
11821	7	Sololá	701	Sololá	3	Barraneche	3	Marzo	2023-03-03T00:00:00	2024-11-06T13:00:00	6	Velocidad del viento	12.9
11822	7	Sololá	701	Sololá	3	Barraneche	3	Marzo	2023-03-03T00:00:00	2024-11-06T13:00:00	7	Dirección del viento	12.87
11823	7	Sololá	701	Sololá	3	Barraneche	3	Marzo	2023-03-03T00:00:00	2024-11-06T13:00:00	1	Precipitación	0
11824	7	Sololá	701	Sololá	3	Barraneche	3	Marzo	2023-03-03T00:00:00	2024-11-06T13:00:00	8	Radiación solar	1006
11825	7	Sololá	701	Sololá	3	Barraneche	3	Marzo	2023-03-03T00:00:00	2024-11-06T14:00:00	2	Temperatura media	19.2
11826	7	Sololá	701	Sololá	3	Barraneche	3	Marzo	2023-03-03T00:00:00	2024-11-06T14:00:00	4	Temperatura máxima	19.4
11827	7	Sololá	701	Sololá	3	Barraneche	3	Marzo	2023-03-03T00:00:00	2024-11-06T14:00:00	3	Temperatura mínima	18.8
11828	7	Sololá	701	Sololá	3	Barraneche	3	Marzo	2023-03-03T00:00:00	2024-11-06T14:00:00	5	Humedad	47
11829	7	Sololá	701	Sololá	3	Barraneche	3	Marzo	2023-03-03T00:00:00	2024-11-06T14:00:00	6	Velocidad del viento	16.1
11830	7	Sololá	701	Sololá	3	Barraneche	3	Marzo	2023-03-03T00:00:00	2024-11-06T14:00:00	7	Dirección del viento	16.09
11831	7	Sololá	701	Sololá	3	Barraneche	3	Marzo	2023-03-03T00:00:00	2024-11-06T14:00:00	1	Precipitación	0
11832	7	Sololá	701	Sololá	3	Barraneche	3	Marzo	2023-03-03T00:00:00	2024-11-06T14:00:00	8	Radiación solar	930
11833	7	Sololá	701	Sololá	3	Barraneche	3	Marzo	2023-03-03T00:00:00	2024-11-06T15:00:00	2	Temperatura media	18
11834	7	Sololá	701	Sololá	3	Barraneche	3	Marzo	2023-03-03T00:00:00	2024-11-06T15:00:00	4	Temperatura máxima	19.4
11835	7	Sololá	701	Sololá	3	Barraneche	3	Marzo	2023-03-03T00:00:00	2024-11-06T15:00:00	3	Temperatura mínima	17.9
11836	7	Sololá	701	Sololá	3	Barraneche	3	Marzo	2023-03-03T00:00:00	2024-11-06T15:00:00	5	Humedad	53
11837	7	Sololá	701	Sololá	3	Barraneche	3	Marzo	2023-03-03T00:00:00	2024-11-06T15:00:00	6	Velocidad del viento	14.5
11838	7	Sololá	701	Sololá	3	Barraneche	3	Marzo	2023-03-03T00:00:00	2024-11-06T15:00:00	7	Dirección del viento	14.48
11839	7	Sololá	701	Sololá	3	Barraneche	3	Marzo	2023-03-03T00:00:00	2024-11-06T15:00:00	1	Precipitación	0
11840	7	Sololá	701	Sololá	3	Barraneche	3	Marzo	2023-03-03T00:00:00	2024-11-06T15:00:00	8	Radiación solar	784
11841	7	Sololá	701	Sololá	3	Barraneche	3	Marzo	2023-03-03T00:00:00	2024-11-06T16:00:00	2	Temperatura media	17.3
11842	7	Sololá	701	Sololá	3	Barraneche	3	Marzo	2023-03-03T00:00:00	2024-11-06T16:00:00	4	Temperatura máxima	18
11843	7	Sololá	701	Sololá	3	Barraneche	3	Marzo	2023-03-03T00:00:00	2024-11-06T16:00:00	3	Temperatura mínima	17
11844	7	Sololá	701	Sololá	3	Barraneche	3	Marzo	2023-03-03T00:00:00	2024-11-06T16:00:00	5	Humedad	59
11845	7	Sololá	701	Sololá	3	Barraneche	3	Marzo	2023-03-03T00:00:00	2024-11-06T16:00:00	6	Velocidad del viento	12.9
11846	7	Sololá	701	Sololá	3	Barraneche	3	Marzo	2023-03-03T00:00:00	2024-11-06T16:00:00	7	Dirección del viento	12.87
11847	7	Sololá	701	Sololá	3	Barraneche	3	Marzo	2023-03-03T00:00:00	2024-11-06T16:00:00	1	Precipitación	0
11848	7	Sololá	701	Sololá	3	Barraneche	3	Marzo	2023-03-03T00:00:00	2024-11-06T16:00:00	8	Radiación solar	582
11849	7	Sololá	701	Sololá	3	Barraneche	3	Marzo	2023-03-03T00:00:00	2024-11-06T17:00:00	2	Temperatura media	15.9
11850	7	Sololá	701	Sololá	3	Barraneche	3	Marzo	2023-03-03T00:00:00	2024-11-06T17:00:00	4	Temperatura máxima	17.3
11851	7	Sololá	701	Sololá	3	Barraneche	3	Marzo	2023-03-03T00:00:00	2024-11-06T17:00:00	3	Temperatura mínima	15.9
11852	7	Sololá	701	Sololá	3	Barraneche	3	Marzo	2023-03-03T00:00:00	2024-11-06T17:00:00	5	Humedad	65
11853	7	Sololá	701	Sololá	3	Barraneche	3	Marzo	2023-03-03T00:00:00	2024-11-06T17:00:00	6	Velocidad del viento	11.3
11854	7	Sololá	701	Sololá	3	Barraneche	3	Marzo	2023-03-03T00:00:00	2024-11-06T17:00:00	7	Dirección del viento	11.27
11855	7	Sololá	701	Sololá	3	Barraneche	3	Marzo	2023-03-03T00:00:00	2024-11-06T17:00:00	1	Precipitación	0
11856	7	Sololá	701	Sololá	3	Barraneche	3	Marzo	2023-03-03T00:00:00	2024-11-06T17:00:00	8	Radiación solar	334
11857	7	Sololá	701	Sololá	3	Barraneche	3	Marzo	2023-03-03T00:00:00	2024-11-06T18:00:00	2	Temperatura media	14.1
11858	7	Sololá	701	Sololá	3	Barraneche	3	Marzo	2023-03-03T00:00:00	2024-11-06T18:00:00	4	Temperatura máxima	16.1
11859	7	Sololá	701	Sololá	3	Barraneche	3	Marzo	2023-03-03T00:00:00	2024-11-06T18:00:00	3	Temperatura mínima	14.1
11860	7	Sololá	701	Sololá	3	Barraneche	3	Marzo	2023-03-03T00:00:00	2024-11-06T18:00:00	5	Humedad	71
11861	7	Sololá	701	Sololá	3	Barraneche	3	Marzo	2023-03-03T00:00:00	2024-11-06T18:00:00	6	Velocidad del viento	8
11862	7	Sololá	701	Sololá	3	Barraneche	3	Marzo	2023-03-03T00:00:00	2024-11-06T18:00:00	7	Dirección del viento	8.05
11863	7	Sololá	701	Sololá	3	Barraneche	3	Marzo	2023-03-03T00:00:00	2024-11-06T18:00:00	1	Precipitación	0
11864	7	Sololá	701	Sololá	3	Barraneche	3	Marzo	2023-03-03T00:00:00	2024-11-06T18:00:00	8	Radiación solar	78
11865	7	Sololá	701	Sololá	3	Barraneche	3	Marzo	2023-03-03T00:00:00	2024-11-06T19:00:00	2	Temperatura media	13.8
11866	7	Sololá	701	Sololá	3	Barraneche	3	Marzo	2023-03-03T00:00:00	2024-11-06T19:00:00	4	Temperatura máxima	14.1
11867	7	Sololá	701	Sololá	3	Barraneche	3	Marzo	2023-03-03T00:00:00	2024-11-06T19:00:00	3	Temperatura mínima	13.7
11868	7	Sololá	701	Sololá	3	Barraneche	3	Marzo	2023-03-03T00:00:00	2024-11-06T19:00:00	5	Humedad	72
11869	7	Sololá	701	Sololá	3	Barraneche	3	Marzo	2023-03-03T00:00:00	2024-11-06T19:00:00	6	Velocidad del viento	4.8
11870	7	Sololá	701	Sololá	3	Barraneche	3	Marzo	2023-03-03T00:00:00	2024-11-06T19:00:00	7	Dirección del viento	4.83
11871	7	Sololá	701	Sololá	3	Barraneche	3	Marzo	2023-03-03T00:00:00	2024-11-06T19:00:00	1	Precipitación	0
11872	7	Sololá	701	Sololá	3	Barraneche	3	Marzo	2023-03-03T00:00:00	2024-11-06T19:00:00	8	Radiación solar	0
11873	7	Sololá	701	Sololá	3	Barraneche	3	Marzo	2023-03-03T00:00:00	2024-11-06T20:00:00	2	Temperatura media	11.9
11874	7	Sololá	701	Sololá	3	Barraneche	3	Marzo	2023-03-03T00:00:00	2024-11-06T20:00:00	4	Temperatura máxima	13.8
11875	7	Sololá	701	Sololá	3	Barraneche	3	Marzo	2023-03-03T00:00:00	2024-11-06T20:00:00	3	Temperatura mínima	11.9
11876	7	Sololá	701	Sololá	3	Barraneche	3	Marzo	2023-03-03T00:00:00	2024-11-06T20:00:00	5	Humedad	63
11877	7	Sololá	701	Sololá	3	Barraneche	3	Marzo	2023-03-03T00:00:00	2024-11-06T20:00:00	6	Velocidad del viento	4.8
11878	7	Sololá	701	Sololá	3	Barraneche	3	Marzo	2023-03-03T00:00:00	2024-11-06T20:00:00	7	Dirección del viento	4.83
11879	7	Sololá	701	Sololá	3	Barraneche	3	Marzo	2023-03-03T00:00:00	2024-11-06T20:00:00	1	Precipitación	0
11880	7	Sololá	701	Sololá	3	Barraneche	3	Marzo	2023-03-03T00:00:00	2024-11-06T20:00:00	8	Radiación solar	0
11881	7	Sololá	701	Sololá	3	Barraneche	3	Marzo	2023-03-03T00:00:00	2024-11-06T21:00:00	2	Temperatura media	11.6
11882	7	Sololá	701	Sololá	3	Barraneche	3	Marzo	2023-03-03T00:00:00	2024-11-06T21:00:00	4	Temperatura máxima	12.1
11883	7	Sololá	701	Sololá	3	Barraneche	3	Marzo	2023-03-03T00:00:00	2024-11-06T21:00:00	3	Temperatura mínima	11.6
11884	7	Sololá	701	Sololá	3	Barraneche	3	Marzo	2023-03-03T00:00:00	2024-11-06T21:00:00	5	Humedad	66
11885	7	Sololá	701	Sololá	3	Barraneche	3	Marzo	2023-03-03T00:00:00	2024-11-06T21:00:00	6	Velocidad del viento	4.8
11886	7	Sololá	701	Sololá	3	Barraneche	3	Marzo	2023-03-03T00:00:00	2024-11-06T21:00:00	7	Dirección del viento	4.83
11887	7	Sololá	701	Sololá	3	Barraneche	3	Marzo	2023-03-03T00:00:00	2024-11-06T21:00:00	1	Precipitación	0
11888	7	Sololá	701	Sololá	3	Barraneche	3	Marzo	2023-03-03T00:00:00	2024-11-06T21:00:00	8	Radiación solar	0
11889	7	Sololá	701	Sololá	3	Barraneche	3	Marzo	2023-03-03T00:00:00	2024-11-06T22:00:00	2	Temperatura media	10.4
11890	7	Sololá	701	Sololá	3	Barraneche	3	Marzo	2023-03-03T00:00:00	2024-11-06T22:00:00	4	Temperatura máxima	11.6
11891	7	Sololá	701	Sololá	3	Barraneche	3	Marzo	2023-03-03T00:00:00	2024-11-06T22:00:00	3	Temperatura mínima	10.3
11892	7	Sololá	701	Sololá	3	Barraneche	3	Marzo	2023-03-03T00:00:00	2024-11-06T22:00:00	5	Humedad	68
11893	7	Sololá	701	Sololá	3	Barraneche	3	Marzo	2023-03-03T00:00:00	2024-11-06T22:00:00	6	Velocidad del viento	4.8
11894	7	Sololá	701	Sololá	3	Barraneche	3	Marzo	2023-03-03T00:00:00	2024-11-06T22:00:00	7	Dirección del viento	4.83
11895	7	Sololá	701	Sololá	3	Barraneche	3	Marzo	2023-03-03T00:00:00	2024-11-06T22:00:00	1	Precipitación	0
11896	7	Sololá	701	Sololá	3	Barraneche	3	Marzo	2023-03-03T00:00:00	2024-11-06T22:00:00	8	Radiación solar	0
11897	7	Sololá	701	Sololá	3	Barraneche	3	Marzo	2023-03-03T00:00:00	2024-11-06T23:00:00	2	Temperatura media	11.1
11898	7	Sololá	701	Sololá	3	Barraneche	3	Marzo	2023-03-03T00:00:00	2024-11-06T23:00:00	4	Temperatura máxima	11.1
11899	7	Sololá	701	Sololá	3	Barraneche	3	Marzo	2023-03-03T00:00:00	2024-11-06T23:00:00	3	Temperatura mínima	10.1
11900	7	Sololá	701	Sololá	3	Barraneche	3	Marzo	2023-03-03T00:00:00	2024-11-06T23:00:00	5	Humedad	60
11901	7	Sololá	701	Sololá	3	Barraneche	3	Marzo	2023-03-03T00:00:00	2024-11-06T23:00:00	6	Velocidad del viento	6.4
11902	7	Sololá	701	Sololá	3	Barraneche	3	Marzo	2023-03-03T00:00:00	2024-11-06T23:00:00	7	Dirección del viento	6.44
11903	7	Sololá	701	Sololá	3	Barraneche	3	Marzo	2023-03-03T00:00:00	2024-11-06T23:00:00	1	Precipitación	0
11904	7	Sololá	701	Sololá	3	Barraneche	3	Marzo	2023-03-03T00:00:00	2024-11-06T23:00:00	8	Radiación solar	0
11905	7	Sololá	701	Sololá	3	Barraneche	3	Marzo	2023-04-03T00:00:00	2024-11-06T00:00:00	2	Temperatura media	11
11906	7	Sololá	701	Sololá	3	Barraneche	3	Marzo	2023-04-03T00:00:00	2024-11-06T00:00:00	4	Temperatura máxima	11.7
11907	7	Sololá	701	Sololá	3	Barraneche	3	Marzo	2023-04-03T00:00:00	2024-11-06T00:00:00	3	Temperatura mínima	10.9
11908	7	Sololá	701	Sololá	3	Barraneche	3	Marzo	2023-04-03T00:00:00	2024-11-06T00:00:00	5	Humedad	57
11909	7	Sololá	701	Sololá	3	Barraneche	3	Marzo	2023-04-03T00:00:00	2024-11-06T00:00:00	6	Velocidad del viento	9.7
11910	7	Sololá	701	Sololá	3	Barraneche	3	Marzo	2023-04-03T00:00:00	2024-11-06T00:00:00	7	Dirección del viento	9.66
11911	7	Sololá	701	Sololá	3	Barraneche	3	Marzo	2023-04-03T00:00:00	2024-11-06T00:00:00	1	Precipitación	0
11912	7	Sololá	701	Sololá	3	Barraneche	3	Marzo	2023-04-03T00:00:00	2024-11-06T00:00:00	8	Radiación solar	0
11913	7	Sololá	701	Sololá	3	Barraneche	3	Marzo	2023-04-03T00:00:00	2024-11-06T01:00:00	2	Temperatura media	11.9
11914	7	Sololá	701	Sololá	3	Barraneche	3	Marzo	2023-04-03T00:00:00	2024-11-06T01:00:00	4	Temperatura máxima	12.8
11915	7	Sololá	701	Sololá	3	Barraneche	3	Marzo	2023-04-03T00:00:00	2024-11-06T01:00:00	3	Temperatura mínima	10.9
11916	7	Sololá	701	Sololá	3	Barraneche	3	Marzo	2023-04-03T00:00:00	2024-11-06T01:00:00	5	Humedad	53
11917	7	Sololá	701	Sololá	3	Barraneche	3	Marzo	2023-04-03T00:00:00	2024-11-06T01:00:00	6	Velocidad del viento	12.9
11918	7	Sololá	701	Sololá	3	Barraneche	3	Marzo	2023-04-03T00:00:00	2024-11-06T01:00:00	7	Dirección del viento	12.87
11919	7	Sololá	701	Sololá	3	Barraneche	3	Marzo	2023-04-03T00:00:00	2024-11-06T01:00:00	1	Precipitación	0
11920	7	Sololá	701	Sololá	3	Barraneche	3	Marzo	2023-04-03T00:00:00	2024-11-06T01:00:00	8	Radiación solar	0
11921	7	Sololá	701	Sololá	3	Barraneche	3	Marzo	2023-04-03T00:00:00	2024-11-06T02:00:00	2	Temperatura media	10.9
11922	7	Sololá	701	Sololá	3	Barraneche	3	Marzo	2023-04-03T00:00:00	2024-11-06T02:00:00	4	Temperatura máxima	11.9
11923	7	Sololá	701	Sololá	3	Barraneche	3	Marzo	2023-04-03T00:00:00	2024-11-06T02:00:00	3	Temperatura mínima	10.8
11924	7	Sololá	701	Sololá	3	Barraneche	3	Marzo	2023-04-03T00:00:00	2024-11-06T02:00:00	5	Humedad	56
11925	7	Sololá	701	Sololá	3	Barraneche	3	Marzo	2023-04-03T00:00:00	2024-11-06T02:00:00	6	Velocidad del viento	8
11926	7	Sololá	701	Sololá	3	Barraneche	3	Marzo	2023-04-03T00:00:00	2024-11-06T02:00:00	7	Dirección del viento	8.05
11927	7	Sololá	701	Sololá	3	Barraneche	3	Marzo	2023-04-03T00:00:00	2024-11-06T02:00:00	1	Precipitación	0
11928	7	Sololá	701	Sololá	3	Barraneche	3	Marzo	2023-04-03T00:00:00	2024-11-06T02:00:00	8	Radiación solar	0
11929	7	Sololá	701	Sololá	3	Barraneche	3	Marzo	2023-04-03T00:00:00	2024-11-06T03:00:00	2	Temperatura media	11
11930	7	Sololá	701	Sololá	3	Barraneche	3	Marzo	2023-04-03T00:00:00	2024-11-06T03:00:00	4	Temperatura máxima	11.1
11931	7	Sololá	701	Sololá	3	Barraneche	3	Marzo	2023-04-03T00:00:00	2024-11-06T03:00:00	3	Temperatura mínima	10.7
11932	7	Sololá	701	Sololá	3	Barraneche	3	Marzo	2023-04-03T00:00:00	2024-11-06T03:00:00	5	Humedad	55
11933	7	Sololá	701	Sololá	3	Barraneche	3	Marzo	2023-04-03T00:00:00	2024-11-06T03:00:00	6	Velocidad del viento	8
11934	7	Sololá	701	Sololá	3	Barraneche	3	Marzo	2023-04-03T00:00:00	2024-11-06T03:00:00	7	Dirección del viento	8.05
11935	7	Sololá	701	Sololá	3	Barraneche	3	Marzo	2023-04-03T00:00:00	2024-11-06T03:00:00	1	Precipitación	0
11936	7	Sololá	701	Sololá	3	Barraneche	3	Marzo	2023-04-03T00:00:00	2024-11-06T03:00:00	8	Radiación solar	0
11937	7	Sololá	701	Sololá	3	Barraneche	3	Marzo	2023-04-03T00:00:00	2024-11-06T04:00:00	2	Temperatura media	10.6
11938	7	Sololá	701	Sololá	3	Barraneche	3	Marzo	2023-04-03T00:00:00	2024-11-06T04:00:00	4	Temperatura máxima	11.5
11939	7	Sololá	701	Sololá	3	Barraneche	3	Marzo	2023-04-03T00:00:00	2024-11-06T04:00:00	3	Temperatura mínima	10.6
11940	7	Sololá	701	Sololá	3	Barraneche	3	Marzo	2023-04-03T00:00:00	2024-11-06T04:00:00	5	Humedad	52
11941	7	Sololá	701	Sololá	3	Barraneche	3	Marzo	2023-04-03T00:00:00	2024-11-06T04:00:00	6	Velocidad del viento	9.7
11942	7	Sololá	701	Sololá	3	Barraneche	3	Marzo	2023-04-03T00:00:00	2024-11-06T04:00:00	7	Dirección del viento	9.66
11943	7	Sololá	701	Sololá	3	Barraneche	3	Marzo	2023-04-03T00:00:00	2024-11-06T04:00:00	1	Precipitación	0
11944	7	Sololá	701	Sololá	3	Barraneche	3	Marzo	2023-04-03T00:00:00	2024-11-06T04:00:00	8	Radiación solar	0
11945	7	Sololá	701	Sololá	3	Barraneche	3	Marzo	2023-04-03T00:00:00	2024-11-06T05:00:00	2	Temperatura media	10.7
11946	7	Sololá	701	Sololá	3	Barraneche	3	Marzo	2023-04-03T00:00:00	2024-11-06T05:00:00	4	Temperatura máxima	10.9
11947	7	Sololá	701	Sololá	3	Barraneche	3	Marzo	2023-04-03T00:00:00	2024-11-06T05:00:00	3	Temperatura mínima	10.3
11948	7	Sololá	701	Sololá	3	Barraneche	3	Marzo	2023-04-03T00:00:00	2024-11-06T05:00:00	5	Humedad	51
11949	7	Sololá	701	Sololá	3	Barraneche	3	Marzo	2023-04-03T00:00:00	2024-11-06T05:00:00	6	Velocidad del viento	8
11950	7	Sololá	701	Sololá	3	Barraneche	3	Marzo	2023-04-03T00:00:00	2024-11-06T05:00:00	7	Dirección del viento	8.05
11951	7	Sololá	701	Sololá	3	Barraneche	3	Marzo	2023-04-03T00:00:00	2024-11-06T05:00:00	1	Precipitación	0
11952	7	Sololá	701	Sololá	3	Barraneche	3	Marzo	2023-04-03T00:00:00	2024-11-06T05:00:00	8	Radiación solar	0
11953	7	Sololá	701	Sololá	3	Barraneche	3	Marzo	2023-04-03T00:00:00	2024-11-06T06:00:00	2	Temperatura media	10
11954	7	Sololá	701	Sololá	3	Barraneche	3	Marzo	2023-04-03T00:00:00	2024-11-06T06:00:00	4	Temperatura máxima	10.7
11955	7	Sololá	701	Sololá	3	Barraneche	3	Marzo	2023-04-03T00:00:00	2024-11-06T06:00:00	3	Temperatura mínima	9.3
11956	7	Sololá	701	Sololá	3	Barraneche	3	Marzo	2023-04-03T00:00:00	2024-11-06T06:00:00	5	Humedad	53
11957	7	Sololá	701	Sololá	3	Barraneche	3	Marzo	2023-04-03T00:00:00	2024-11-06T06:00:00	6	Velocidad del viento	6.4
11958	7	Sololá	701	Sololá	3	Barraneche	3	Marzo	2023-04-03T00:00:00	2024-11-06T06:00:00	7	Dirección del viento	6.44
11959	7	Sololá	701	Sololá	3	Barraneche	3	Marzo	2023-04-03T00:00:00	2024-11-06T06:00:00	1	Precipitación	0
11960	7	Sololá	701	Sololá	3	Barraneche	3	Marzo	2023-04-03T00:00:00	2024-11-06T06:00:00	8	Radiación solar	0
11961	7	Sololá	701	Sololá	3	Barraneche	3	Marzo	2023-04-03T00:00:00	2024-11-06T07:00:00	2	Temperatura media	10.1
11962	7	Sololá	701	Sololá	3	Barraneche	3	Marzo	2023-04-03T00:00:00	2024-11-06T07:00:00	4	Temperatura máxima	10.2
11963	7	Sololá	701	Sololá	3	Barraneche	3	Marzo	2023-04-03T00:00:00	2024-11-06T07:00:00	3	Temperatura mínima	9.4
11964	7	Sololá	701	Sololá	3	Barraneche	3	Marzo	2023-04-03T00:00:00	2024-11-06T07:00:00	5	Humedad	54
11965	7	Sololá	701	Sololá	3	Barraneche	3	Marzo	2023-04-03T00:00:00	2024-11-06T07:00:00	6	Velocidad del viento	6.4
11966	7	Sololá	701	Sololá	3	Barraneche	3	Marzo	2023-04-03T00:00:00	2024-11-06T07:00:00	7	Dirección del viento	6.44
11967	7	Sololá	701	Sololá	3	Barraneche	3	Marzo	2023-04-03T00:00:00	2024-11-06T07:00:00	1	Precipitación	0
11968	7	Sololá	701	Sololá	3	Barraneche	3	Marzo	2023-04-03T00:00:00	2024-11-06T07:00:00	8	Radiación solar	12
11969	7	Sololá	701	Sololá	3	Barraneche	3	Marzo	2023-04-03T00:00:00	2024-11-06T08:00:00	2	Temperatura media	14.4
11970	7	Sololá	701	Sololá	3	Barraneche	3	Marzo	2023-04-03T00:00:00	2024-11-06T08:00:00	4	Temperatura máxima	14.4
11971	7	Sololá	701	Sololá	3	Barraneche	3	Marzo	2023-04-03T00:00:00	2024-11-06T08:00:00	3	Temperatura mínima	10.1
11972	7	Sololá	701	Sololá	3	Barraneche	3	Marzo	2023-04-03T00:00:00	2024-11-06T08:00:00	5	Humedad	47
11973	7	Sololá	701	Sololá	3	Barraneche	3	Marzo	2023-04-03T00:00:00	2024-11-06T08:00:00	6	Velocidad del viento	6.4
11974	7	Sololá	701	Sololá	3	Barraneche	3	Marzo	2023-04-03T00:00:00	2024-11-06T08:00:00	7	Dirección del viento	6.44
11975	7	Sololá	701	Sololá	3	Barraneche	3	Marzo	2023-04-03T00:00:00	2024-11-06T08:00:00	1	Precipitación	0
11976	7	Sololá	701	Sololá	3	Barraneche	3	Marzo	2023-04-03T00:00:00	2024-11-06T08:00:00	8	Radiación solar	210
11977	7	Sololá	701	Sololá	3	Barraneche	3	Marzo	2023-04-03T00:00:00	2024-11-06T09:00:00	2	Temperatura media	18.5
11978	7	Sololá	701	Sololá	3	Barraneche	3	Marzo	2023-04-03T00:00:00	2024-11-06T09:00:00	4	Temperatura máxima	18.5
11979	7	Sololá	701	Sololá	3	Barraneche	3	Marzo	2023-04-03T00:00:00	2024-11-06T09:00:00	3	Temperatura mínima	14.4
11980	7	Sololá	701	Sololá	3	Barraneche	3	Marzo	2023-04-03T00:00:00	2024-11-06T09:00:00	5	Humedad	38
11981	7	Sololá	701	Sololá	3	Barraneche	3	Marzo	2023-04-03T00:00:00	2024-11-06T09:00:00	6	Velocidad del viento	3.2
11982	7	Sololá	701	Sololá	3	Barraneche	3	Marzo	2023-04-03T00:00:00	2024-11-06T09:00:00	7	Dirección del viento	3.22
11983	7	Sololá	701	Sololá	3	Barraneche	3	Marzo	2023-04-03T00:00:00	2024-11-06T09:00:00	1	Precipitación	0
11984	7	Sololá	701	Sololá	3	Barraneche	3	Marzo	2023-04-03T00:00:00	2024-11-06T09:00:00	8	Radiación solar	482
11985	7	Sololá	701	Sololá	3	Barraneche	3	Marzo	2023-04-03T00:00:00	2024-11-06T10:00:00	2	Temperatura media	19.9
11986	7	Sololá	701	Sololá	3	Barraneche	3	Marzo	2023-04-03T00:00:00	2024-11-06T10:00:00	4	Temperatura máxima	19.9
11987	7	Sololá	701	Sololá	3	Barraneche	3	Marzo	2023-04-03T00:00:00	2024-11-06T10:00:00	3	Temperatura mínima	18.4
11988	7	Sololá	701	Sololá	3	Barraneche	3	Marzo	2023-04-03T00:00:00	2024-11-06T10:00:00	5	Humedad	26
11989	7	Sololá	701	Sololá	3	Barraneche	3	Marzo	2023-04-03T00:00:00	2024-11-06T10:00:00	6	Velocidad del viento	6.4
11990	7	Sololá	701	Sololá	3	Barraneche	3	Marzo	2023-04-03T00:00:00	2024-11-06T10:00:00	7	Dirección del viento	6.44
11991	7	Sololá	701	Sololá	3	Barraneche	3	Marzo	2023-04-03T00:00:00	2024-11-06T10:00:00	1	Precipitación	0
11992	7	Sololá	701	Sololá	3	Barraneche	3	Marzo	2023-04-03T00:00:00	2024-11-06T10:00:00	8	Radiación solar	705
11993	7	Sololá	701	Sololá	3	Barraneche	3	Marzo	2023-04-03T00:00:00	2024-11-06T11:00:00	2	Temperatura media	20.8
11994	7	Sololá	701	Sololá	3	Barraneche	3	Marzo	2023-04-03T00:00:00	2024-11-06T11:00:00	4	Temperatura máxima	20.9
11995	7	Sololá	701	Sololá	3	Barraneche	3	Marzo	2023-04-03T00:00:00	2024-11-06T11:00:00	3	Temperatura mínima	19.9
11996	7	Sololá	701	Sololá	3	Barraneche	3	Marzo	2023-04-03T00:00:00	2024-11-06T11:00:00	5	Humedad	32
11997	7	Sololá	701	Sololá	3	Barraneche	3	Marzo	2023-04-03T00:00:00	2024-11-06T11:00:00	6	Velocidad del viento	9.7
11998	7	Sololá	701	Sololá	3	Barraneche	3	Marzo	2023-04-03T00:00:00	2024-11-06T11:00:00	7	Dirección del viento	9.66
11999	7	Sololá	701	Sololá	3	Barraneche	3	Marzo	2023-04-03T00:00:00	2024-11-06T11:00:00	1	Precipitación	0
12000	7	Sololá	701	Sololá	3	Barraneche	3	Marzo	2023-04-03T00:00:00	2024-11-06T11:00:00	8	Radiación solar	877
12001	7	Sololá	701	Sololá	3	Barraneche	3	Marzo	2023-04-03T00:00:00	2024-11-06T12:00:00	2	Temperatura media	20.9
12002	7	Sololá	701	Sololá	3	Barraneche	3	Marzo	2023-04-03T00:00:00	2024-11-06T12:00:00	4	Temperatura máxima	20.9
12003	7	Sololá	701	Sololá	3	Barraneche	3	Marzo	2023-04-03T00:00:00	2024-11-06T12:00:00	3	Temperatura mínima	20.4
12004	7	Sololá	701	Sololá	3	Barraneche	3	Marzo	2023-04-03T00:00:00	2024-11-06T12:00:00	5	Humedad	33
12005	7	Sololá	701	Sololá	3	Barraneche	3	Marzo	2023-04-03T00:00:00	2024-11-06T12:00:00	6	Velocidad del viento	14.5
12006	7	Sololá	701	Sololá	3	Barraneche	3	Marzo	2023-04-03T00:00:00	2024-11-06T12:00:00	7	Dirección del viento	14.48
12007	7	Sololá	701	Sololá	3	Barraneche	3	Marzo	2023-04-03T00:00:00	2024-11-06T12:00:00	1	Precipitación	0
12008	7	Sololá	701	Sololá	3	Barraneche	3	Marzo	2023-04-03T00:00:00	2024-11-06T12:00:00	8	Radiación solar	987
12009	7	Sololá	701	Sololá	3	Barraneche	3	Marzo	2023-04-03T00:00:00	2024-11-06T13:00:00	2	Temperatura media	20.3
12010	7	Sololá	701	Sololá	3	Barraneche	3	Marzo	2023-04-03T00:00:00	2024-11-06T13:00:00	4	Temperatura máxima	21.3
12011	7	Sololá	701	Sololá	3	Barraneche	3	Marzo	2023-04-03T00:00:00	2024-11-06T13:00:00	3	Temperatura mínima	20.2
12012	7	Sololá	701	Sololá	3	Barraneche	3	Marzo	2023-04-03T00:00:00	2024-11-06T13:00:00	5	Humedad	47
12013	7	Sololá	701	Sololá	3	Barraneche	3	Marzo	2023-04-03T00:00:00	2024-11-06T13:00:00	6	Velocidad del viento	17.7
12014	7	Sololá	701	Sololá	3	Barraneche	3	Marzo	2023-04-03T00:00:00	2024-11-06T13:00:00	7	Dirección del viento	17.7
12015	7	Sololá	701	Sololá	3	Barraneche	3	Marzo	2023-04-03T00:00:00	2024-11-06T13:00:00	1	Precipitación	0
12016	7	Sololá	701	Sololá	3	Barraneche	3	Marzo	2023-04-03T00:00:00	2024-11-06T13:00:00	8	Radiación solar	1046
12017	7	Sololá	701	Sololá	3	Barraneche	3	Marzo	2023-04-03T00:00:00	2024-11-06T14:00:00	2	Temperatura media	18.9
12018	7	Sololá	701	Sololá	3	Barraneche	3	Marzo	2023-04-03T00:00:00	2024-11-06T14:00:00	4	Temperatura máxima	20.3
12019	7	Sololá	701	Sololá	3	Barraneche	3	Marzo	2023-04-03T00:00:00	2024-11-06T14:00:00	3	Temperatura mínima	18.9
12020	7	Sololá	701	Sololá	3	Barraneche	3	Marzo	2023-04-03T00:00:00	2024-11-06T14:00:00	5	Humedad	50
12021	7	Sololá	701	Sololá	3	Barraneche	3	Marzo	2023-04-03T00:00:00	2024-11-06T14:00:00	6	Velocidad del viento	16.1
12022	7	Sololá	701	Sololá	3	Barraneche	3	Marzo	2023-04-03T00:00:00	2024-11-06T14:00:00	7	Dirección del viento	16.09
12023	7	Sololá	701	Sololá	3	Barraneche	3	Marzo	2023-04-03T00:00:00	2024-11-06T14:00:00	1	Precipitación	0
12024	7	Sololá	701	Sololá	3	Barraneche	3	Marzo	2023-04-03T00:00:00	2024-11-06T14:00:00	8	Radiación solar	797
12025	7	Sololá	701	Sololá	3	Barraneche	3	Marzo	2023-04-03T00:00:00	2024-11-06T15:00:00	2	Temperatura media	18.1
12026	7	Sololá	701	Sololá	3	Barraneche	3	Marzo	2023-04-03T00:00:00	2024-11-06T15:00:00	4	Temperatura máxima	19.1
12027	7	Sololá	701	Sololá	3	Barraneche	3	Marzo	2023-04-03T00:00:00	2024-11-06T15:00:00	3	Temperatura mínima	17.8
12028	7	Sololá	701	Sololá	3	Barraneche	3	Marzo	2023-04-03T00:00:00	2024-11-06T15:00:00	5	Humedad	58
12029	7	Sololá	701	Sololá	3	Barraneche	3	Marzo	2023-04-03T00:00:00	2024-11-06T15:00:00	6	Velocidad del viento	11.3
12030	7	Sololá	701	Sololá	3	Barraneche	3	Marzo	2023-04-03T00:00:00	2024-11-06T15:00:00	7	Dirección del viento	11.27
12031	7	Sololá	701	Sololá	3	Barraneche	3	Marzo	2023-04-03T00:00:00	2024-11-06T15:00:00	1	Precipitación	0
12032	7	Sololá	701	Sololá	3	Barraneche	3	Marzo	2023-04-03T00:00:00	2024-11-06T15:00:00	8	Radiación solar	296
12033	7	Sololá	701	Sololá	3	Barraneche	3	Marzo	2023-04-03T00:00:00	2024-11-06T16:00:00	2	Temperatura media	17
12034	7	Sololá	701	Sololá	3	Barraneche	3	Marzo	2023-04-03T00:00:00	2024-11-06T16:00:00	4	Temperatura máxima	18.2
12035	7	Sololá	701	Sololá	3	Barraneche	3	Marzo	2023-04-03T00:00:00	2024-11-06T16:00:00	3	Temperatura mínima	16.9
12036	7	Sololá	701	Sololá	3	Barraneche	3	Marzo	2023-04-03T00:00:00	2024-11-06T16:00:00	5	Humedad	63
12037	7	Sololá	701	Sololá	3	Barraneche	3	Marzo	2023-04-03T00:00:00	2024-11-06T16:00:00	6	Velocidad del viento	12.9
12038	7	Sololá	701	Sololá	3	Barraneche	3	Marzo	2023-04-03T00:00:00	2024-11-06T16:00:00	7	Dirección del viento	12.87
12039	7	Sololá	701	Sololá	3	Barraneche	3	Marzo	2023-04-03T00:00:00	2024-11-06T16:00:00	1	Precipitación	0
12040	7	Sololá	701	Sololá	3	Barraneche	3	Marzo	2023-04-03T00:00:00	2024-11-06T16:00:00	8	Radiación solar	425
12041	7	Sololá	701	Sololá	3	Barraneche	3	Marzo	2023-04-03T00:00:00	2024-11-06T17:00:00	2	Temperatura media	16.7
12042	7	Sololá	701	Sololá	3	Barraneche	3	Marzo	2023-04-03T00:00:00	2024-11-06T17:00:00	4	Temperatura máxima	17
12043	7	Sololá	701	Sololá	3	Barraneche	3	Marzo	2023-04-03T00:00:00	2024-11-06T17:00:00	3	Temperatura mínima	16.7
12044	7	Sololá	701	Sololá	3	Barraneche	3	Marzo	2023-04-03T00:00:00	2024-11-06T17:00:00	5	Humedad	65
12045	7	Sololá	701	Sololá	3	Barraneche	3	Marzo	2023-04-03T00:00:00	2024-11-06T17:00:00	6	Velocidad del viento	6.4
12046	7	Sololá	701	Sololá	3	Barraneche	3	Marzo	2023-04-03T00:00:00	2024-11-06T17:00:00	7	Dirección del viento	6.44
12047	7	Sololá	701	Sololá	3	Barraneche	3	Marzo	2023-04-03T00:00:00	2024-11-06T17:00:00	1	Precipitación	0
12048	7	Sololá	701	Sololá	3	Barraneche	3	Marzo	2023-04-03T00:00:00	2024-11-06T17:00:00	8	Radiación solar	157
12049	7	Sololá	701	Sololá	3	Barraneche	3	Marzo	2023-04-03T00:00:00	2024-11-06T18:00:00	2	Temperatura media	15.3
12050	7	Sololá	701	Sololá	3	Barraneche	3	Marzo	2023-04-03T00:00:00	2024-11-06T18:00:00	4	Temperatura máxima	16.7
12051	7	Sololá	701	Sololá	3	Barraneche	3	Marzo	2023-04-03T00:00:00	2024-11-06T18:00:00	3	Temperatura mínima	15.3
12052	7	Sololá	701	Sololá	3	Barraneche	3	Marzo	2023-04-03T00:00:00	2024-11-06T18:00:00	5	Humedad	70
12053	7	Sololá	701	Sololá	3	Barraneche	3	Marzo	2023-04-03T00:00:00	2024-11-06T18:00:00	6	Velocidad del viento	4.8
12054	7	Sololá	701	Sololá	3	Barraneche	3	Marzo	2023-04-03T00:00:00	2024-11-06T18:00:00	7	Dirección del viento	4.83
12055	7	Sololá	701	Sololá	3	Barraneche	3	Marzo	2023-04-03T00:00:00	2024-11-06T18:00:00	1	Precipitación	0
12056	7	Sololá	701	Sololá	3	Barraneche	3	Marzo	2023-04-03T00:00:00	2024-11-06T18:00:00	8	Radiación solar	44
12057	7	Sololá	701	Sololá	3	Barraneche	3	Marzo	2023-04-03T00:00:00	2024-11-06T19:00:00	2	Temperatura media	14.2
12058	7	Sololá	701	Sololá	3	Barraneche	3	Marzo	2023-04-03T00:00:00	2024-11-06T19:00:00	4	Temperatura máxima	15.4
12059	7	Sololá	701	Sololá	3	Barraneche	3	Marzo	2023-04-03T00:00:00	2024-11-06T19:00:00	3	Temperatura mínima	14.1
12060	7	Sololá	701	Sololá	3	Barraneche	3	Marzo	2023-04-03T00:00:00	2024-11-06T19:00:00	5	Humedad	62
12061	7	Sololá	701	Sololá	3	Barraneche	3	Marzo	2023-04-03T00:00:00	2024-11-06T19:00:00	6	Velocidad del viento	3.2
12062	7	Sololá	701	Sololá	3	Barraneche	3	Marzo	2023-04-03T00:00:00	2024-11-06T19:00:00	7	Dirección del viento	3.22
12063	7	Sololá	701	Sololá	3	Barraneche	3	Marzo	2023-04-03T00:00:00	2024-11-06T19:00:00	1	Precipitación	0
12064	7	Sololá	701	Sololá	3	Barraneche	3	Marzo	2023-04-03T00:00:00	2024-11-06T19:00:00	8	Radiación solar	0
12065	7	Sololá	701	Sololá	3	Barraneche	3	Marzo	2023-04-03T00:00:00	2024-11-06T20:00:00	2	Temperatura media	14.8
12066	7	Sololá	701	Sololá	3	Barraneche	3	Marzo	2023-04-03T00:00:00	2024-11-06T20:00:00	4	Temperatura máxima	15.2
12067	7	Sololá	701	Sololá	3	Barraneche	3	Marzo	2023-04-03T00:00:00	2024-11-06T20:00:00	3	Temperatura mínima	14
12068	7	Sololá	701	Sololá	3	Barraneche	3	Marzo	2023-04-03T00:00:00	2024-11-06T20:00:00	5	Humedad	62
12069	7	Sololá	701	Sololá	3	Barraneche	3	Marzo	2023-04-03T00:00:00	2024-11-06T20:00:00	6	Velocidad del viento	6.4
12070	7	Sololá	701	Sololá	3	Barraneche	3	Marzo	2023-04-03T00:00:00	2024-11-06T20:00:00	7	Dirección del viento	6.44
12071	7	Sololá	701	Sololá	3	Barraneche	3	Marzo	2023-04-03T00:00:00	2024-11-06T20:00:00	1	Precipitación	0
12072	7	Sololá	701	Sololá	3	Barraneche	3	Marzo	2023-04-03T00:00:00	2024-11-06T20:00:00	8	Radiación solar	0
12073	7	Sololá	701	Sololá	3	Barraneche	3	Marzo	2023-04-03T00:00:00	2024-11-06T21:00:00	2	Temperatura media	15.4
12074	7	Sololá	701	Sololá	3	Barraneche	3	Marzo	2023-04-03T00:00:00	2024-11-06T21:00:00	4	Temperatura máxima	15.6
12075	7	Sololá	701	Sololá	3	Barraneche	3	Marzo	2023-04-03T00:00:00	2024-11-06T21:00:00	3	Temperatura mínima	14.7
12076	7	Sololá	701	Sololá	3	Barraneche	3	Marzo	2023-04-03T00:00:00	2024-11-06T21:00:00	5	Humedad	60
12077	7	Sololá	701	Sololá	3	Barraneche	3	Marzo	2023-04-03T00:00:00	2024-11-06T21:00:00	6	Velocidad del viento	4.8
12078	7	Sololá	701	Sololá	3	Barraneche	3	Marzo	2023-04-03T00:00:00	2024-11-06T21:00:00	7	Dirección del viento	4.83
12079	7	Sololá	701	Sololá	3	Barraneche	3	Marzo	2023-04-03T00:00:00	2024-11-06T21:00:00	1	Precipitación	0
12080	7	Sololá	701	Sololá	3	Barraneche	3	Marzo	2023-04-03T00:00:00	2024-11-06T21:00:00	8	Radiación solar	0
12081	7	Sololá	701	Sololá	3	Barraneche	3	Marzo	2023-04-03T00:00:00	2024-11-06T22:00:00	2	Temperatura media	14.9
12082	7	Sololá	701	Sololá	3	Barraneche	3	Marzo	2023-04-03T00:00:00	2024-11-06T22:00:00	4	Temperatura máxima	15.5
12083	7	Sololá	701	Sololá	3	Barraneche	3	Marzo	2023-04-03T00:00:00	2024-11-06T22:00:00	3	Temperatura mínima	14.9
12084	7	Sololá	701	Sololá	3	Barraneche	3	Marzo	2023-04-03T00:00:00	2024-11-06T22:00:00	5	Humedad	60
12085	7	Sololá	701	Sololá	3	Barraneche	3	Marzo	2023-04-03T00:00:00	2024-11-06T22:00:00	6	Velocidad del viento	3.2
12086	7	Sololá	701	Sololá	3	Barraneche	3	Marzo	2023-04-03T00:00:00	2024-11-06T22:00:00	7	Dirección del viento	3.22
12087	7	Sololá	701	Sololá	3	Barraneche	3	Marzo	2023-04-03T00:00:00	2024-11-06T22:00:00	1	Precipitación	0
12088	7	Sololá	701	Sololá	3	Barraneche	3	Marzo	2023-04-03T00:00:00	2024-11-06T22:00:00	8	Radiación solar	0
12089	7	Sololá	701	Sololá	3	Barraneche	3	Marzo	2023-04-03T00:00:00	2024-11-06T23:00:00	2	Temperatura media	14.1
12090	7	Sololá	701	Sololá	3	Barraneche	3	Marzo	2023-04-03T00:00:00	2024-11-06T23:00:00	4	Temperatura máxima	14.9
12091	7	Sololá	701	Sololá	3	Barraneche	3	Marzo	2023-04-03T00:00:00	2024-11-06T23:00:00	3	Temperatura mínima	14
12092	7	Sololá	701	Sololá	3	Barraneche	3	Marzo	2023-04-03T00:00:00	2024-11-06T23:00:00	5	Humedad	63
12093	7	Sololá	701	Sololá	3	Barraneche	3	Marzo	2023-04-03T00:00:00	2024-11-06T23:00:00	6	Velocidad del viento	8
12094	7	Sololá	701	Sololá	3	Barraneche	3	Marzo	2023-04-03T00:00:00	2024-11-06T23:00:00	7	Dirección del viento	8.05
12095	7	Sololá	701	Sololá	3	Barraneche	3	Marzo	2023-04-03T00:00:00	2024-11-06T23:00:00	1	Precipitación	0
12096	7	Sololá	701	Sololá	3	Barraneche	3	Marzo	2023-04-03T00:00:00	2024-11-06T23:00:00	8	Radiación solar	0
12097	7	Sololá	701	Sololá	3	Barraneche	3	Marzo	2023-05-03T00:00:00	2024-11-06T00:00:00	2	Temperatura media	12.3
12098	7	Sololá	701	Sololá	3	Barraneche	3	Marzo	2023-05-03T00:00:00	2024-11-06T00:00:00	4	Temperatura máxima	14.1
12099	7	Sololá	701	Sololá	3	Barraneche	3	Marzo	2023-05-03T00:00:00	2024-11-06T00:00:00	3	Temperatura mínima	11.8
12100	7	Sololá	701	Sololá	3	Barraneche	3	Marzo	2023-05-03T00:00:00	2024-11-06T00:00:00	5	Humedad	62
12101	7	Sololá	701	Sololá	3	Barraneche	3	Marzo	2023-05-03T00:00:00	2024-11-06T00:00:00	6	Velocidad del viento	4.8
12102	7	Sololá	701	Sololá	3	Barraneche	3	Marzo	2023-05-03T00:00:00	2024-11-06T00:00:00	7	Dirección del viento	4.83
12103	7	Sololá	701	Sololá	3	Barraneche	3	Marzo	2023-05-03T00:00:00	2024-11-06T00:00:00	1	Precipitación	0
12104	7	Sololá	701	Sololá	3	Barraneche	3	Marzo	2023-05-03T00:00:00	2024-11-06T00:00:00	8	Radiación solar	0
12105	7	Sololá	701	Sololá	3	Barraneche	3	Marzo	2023-05-03T00:00:00	2024-11-06T01:00:00	2	Temperatura media	11.6
12106	7	Sololá	701	Sololá	3	Barraneche	3	Marzo	2023-05-03T00:00:00	2024-11-06T01:00:00	4	Temperatura máxima	12.4
12107	7	Sololá	701	Sololá	3	Barraneche	3	Marzo	2023-05-03T00:00:00	2024-11-06T01:00:00	3	Temperatura mínima	11.6
12108	7	Sololá	701	Sololá	3	Barraneche	3	Marzo	2023-05-03T00:00:00	2024-11-06T01:00:00	5	Humedad	59
12109	7	Sololá	701	Sololá	3	Barraneche	3	Marzo	2023-05-03T00:00:00	2024-11-06T01:00:00	6	Velocidad del viento	8
12110	7	Sololá	701	Sololá	3	Barraneche	3	Marzo	2023-05-03T00:00:00	2024-11-06T01:00:00	7	Dirección del viento	8.05
12111	7	Sololá	701	Sololá	3	Barraneche	3	Marzo	2023-05-03T00:00:00	2024-11-06T01:00:00	1	Precipitación	0
12112	7	Sololá	701	Sololá	3	Barraneche	3	Marzo	2023-05-03T00:00:00	2024-11-06T01:00:00	8	Radiación solar	0
12113	7	Sololá	701	Sololá	3	Barraneche	3	Marzo	2023-05-03T00:00:00	2024-11-06T02:00:00	2	Temperatura media	11.7
12114	7	Sololá	701	Sololá	3	Barraneche	3	Marzo	2023-05-03T00:00:00	2024-11-06T02:00:00	4	Temperatura máxima	11.8
12115	7	Sololá	701	Sololá	3	Barraneche	3	Marzo	2023-05-03T00:00:00	2024-11-06T02:00:00	3	Temperatura mínima	11.4
12116	7	Sololá	701	Sololá	3	Barraneche	3	Marzo	2023-05-03T00:00:00	2024-11-06T02:00:00	5	Humedad	47
12117	7	Sololá	701	Sololá	3	Barraneche	3	Marzo	2023-05-03T00:00:00	2024-11-06T02:00:00	6	Velocidad del viento	9.7
12118	7	Sololá	701	Sololá	3	Barraneche	3	Marzo	2023-05-03T00:00:00	2024-11-06T02:00:00	7	Dirección del viento	9.66
12119	7	Sololá	701	Sololá	3	Barraneche	3	Marzo	2023-05-03T00:00:00	2024-11-06T02:00:00	1	Precipitación	0
12120	7	Sololá	701	Sololá	3	Barraneche	3	Marzo	2023-05-03T00:00:00	2024-11-06T02:00:00	8	Radiación solar	0
12121	7	Sololá	701	Sololá	3	Barraneche	3	Marzo	2023-05-03T00:00:00	2024-11-06T03:00:00	2	Temperatura media	9.9
12122	7	Sololá	701	Sololá	3	Barraneche	3	Marzo	2023-05-03T00:00:00	2024-11-06T03:00:00	4	Temperatura máxima	11.7
12123	7	Sololá	701	Sololá	3	Barraneche	3	Marzo	2023-05-03T00:00:00	2024-11-06T03:00:00	3	Temperatura mínima	9.9
12124	7	Sololá	701	Sololá	3	Barraneche	3	Marzo	2023-05-03T00:00:00	2024-11-06T03:00:00	5	Humedad	51
12125	7	Sololá	701	Sololá	3	Barraneche	3	Marzo	2023-05-03T00:00:00	2024-11-06T03:00:00	6	Velocidad del viento	4.8
12126	7	Sololá	701	Sololá	3	Barraneche	3	Marzo	2023-05-03T00:00:00	2024-11-06T03:00:00	7	Dirección del viento	4.83
12127	7	Sololá	701	Sololá	3	Barraneche	3	Marzo	2023-05-03T00:00:00	2024-11-06T03:00:00	1	Precipitación	0
12128	7	Sololá	701	Sololá	3	Barraneche	3	Marzo	2023-05-03T00:00:00	2024-11-06T03:00:00	8	Radiación solar	0
12129	7	Sololá	701	Sololá	3	Barraneche	3	Marzo	2023-05-03T00:00:00	2024-11-06T04:00:00	2	Temperatura media	9.8
12130	7	Sololá	701	Sololá	3	Barraneche	3	Marzo	2023-05-03T00:00:00	2024-11-06T04:00:00	4	Temperatura máxima	10.2
12131	7	Sololá	701	Sololá	3	Barraneche	3	Marzo	2023-05-03T00:00:00	2024-11-06T04:00:00	3	Temperatura mínima	9.7
12132	7	Sololá	701	Sololá	3	Barraneche	3	Marzo	2023-05-03T00:00:00	2024-11-06T04:00:00	5	Humedad	57
12133	7	Sololá	701	Sololá	3	Barraneche	3	Marzo	2023-05-03T00:00:00	2024-11-06T04:00:00	6	Velocidad del viento	6.4
12134	7	Sololá	701	Sololá	3	Barraneche	3	Marzo	2023-05-03T00:00:00	2024-11-06T04:00:00	7	Dirección del viento	6.44
12135	7	Sololá	701	Sololá	3	Barraneche	3	Marzo	2023-05-03T00:00:00	2024-11-06T04:00:00	1	Precipitación	0
12136	7	Sololá	701	Sololá	3	Barraneche	3	Marzo	2023-05-03T00:00:00	2024-11-06T04:00:00	8	Radiación solar	0
12137	7	Sololá	701	Sololá	3	Barraneche	3	Marzo	2023-05-03T00:00:00	2024-11-06T05:00:00	2	Temperatura media	9.8
12138	7	Sololá	701	Sololá	3	Barraneche	3	Marzo	2023-05-03T00:00:00	2024-11-06T05:00:00	4	Temperatura máxima	10.1
12139	7	Sololá	701	Sololá	3	Barraneche	3	Marzo	2023-05-03T00:00:00	2024-11-06T05:00:00	3	Temperatura mínima	9.5
12140	7	Sololá	701	Sololá	3	Barraneche	3	Marzo	2023-05-03T00:00:00	2024-11-06T05:00:00	5	Humedad	50
12141	7	Sololá	701	Sololá	3	Barraneche	3	Marzo	2023-05-03T00:00:00	2024-11-06T05:00:00	6	Velocidad del viento	6.4
12142	7	Sololá	701	Sololá	3	Barraneche	3	Marzo	2023-05-03T00:00:00	2024-11-06T05:00:00	7	Dirección del viento	6.44
12143	7	Sololá	701	Sololá	3	Barraneche	3	Marzo	2023-05-03T00:00:00	2024-11-06T05:00:00	1	Precipitación	0
12144	7	Sololá	701	Sololá	3	Barraneche	3	Marzo	2023-05-03T00:00:00	2024-11-06T05:00:00	8	Radiación solar	0
12145	7	Sololá	701	Sololá	3	Barraneche	3	Marzo	2023-05-03T00:00:00	2024-11-06T06:00:00	2	Temperatura media	9.2
12146	7	Sololá	701	Sololá	3	Barraneche	3	Marzo	2023-05-03T00:00:00	2024-11-06T06:00:00	4	Temperatura máxima	9.9
12147	7	Sololá	701	Sololá	3	Barraneche	3	Marzo	2023-05-03T00:00:00	2024-11-06T06:00:00	3	Temperatura mínima	8.8
12148	7	Sololá	701	Sololá	3	Barraneche	3	Marzo	2023-05-03T00:00:00	2024-11-06T06:00:00	5	Humedad	48
12149	7	Sololá	701	Sololá	3	Barraneche	3	Marzo	2023-05-03T00:00:00	2024-11-06T06:00:00	6	Velocidad del viento	6.4
12150	7	Sololá	701	Sololá	3	Barraneche	3	Marzo	2023-05-03T00:00:00	2024-11-06T06:00:00	7	Dirección del viento	6.44
12151	7	Sololá	701	Sololá	3	Barraneche	3	Marzo	2023-05-03T00:00:00	2024-11-06T06:00:00	1	Precipitación	0
12152	7	Sololá	701	Sololá	3	Barraneche	3	Marzo	2023-05-03T00:00:00	2024-11-06T06:00:00	8	Radiación solar	0
12153	7	Sololá	701	Sololá	3	Barraneche	3	Marzo	2023-05-03T00:00:00	2024-11-06T07:00:00	2	Temperatura media	9.1
12154	7	Sololá	701	Sololá	3	Barraneche	3	Marzo	2023-05-03T00:00:00	2024-11-06T07:00:00	4	Temperatura máxima	9.7
12155	7	Sololá	701	Sololá	3	Barraneche	3	Marzo	2023-05-03T00:00:00	2024-11-06T07:00:00	3	Temperatura mínima	9
12156	7	Sololá	701	Sololá	3	Barraneche	3	Marzo	2023-05-03T00:00:00	2024-11-06T07:00:00	5	Humedad	50
12157	7	Sololá	701	Sololá	3	Barraneche	3	Marzo	2023-05-03T00:00:00	2024-11-06T07:00:00	6	Velocidad del viento	8
12158	7	Sololá	701	Sololá	3	Barraneche	3	Marzo	2023-05-03T00:00:00	2024-11-06T07:00:00	7	Dirección del viento	8.05
12159	7	Sololá	701	Sololá	3	Barraneche	3	Marzo	2023-05-03T00:00:00	2024-11-06T07:00:00	1	Precipitación	0
12160	7	Sololá	701	Sololá	3	Barraneche	3	Marzo	2023-05-03T00:00:00	2024-11-06T07:00:00	8	Radiación solar	13
12161	7	Sololá	701	Sololá	3	Barraneche	3	Marzo	2023-05-03T00:00:00	2024-11-06T08:00:00	2	Temperatura media	14.7
12162	7	Sololá	701	Sololá	3	Barraneche	3	Marzo	2023-05-03T00:00:00	2024-11-06T08:00:00	4	Temperatura máxima	14.7
12163	7	Sololá	701	Sololá	3	Barraneche	3	Marzo	2023-05-03T00:00:00	2024-11-06T08:00:00	3	Temperatura mínima	9.1
12164	7	Sololá	701	Sololá	3	Barraneche	3	Marzo	2023-05-03T00:00:00	2024-11-06T08:00:00	5	Humedad	40
12165	7	Sololá	701	Sololá	3	Barraneche	3	Marzo	2023-05-03T00:00:00	2024-11-06T08:00:00	6	Velocidad del viento	4.8
12166	7	Sololá	701	Sololá	3	Barraneche	3	Marzo	2023-05-03T00:00:00	2024-11-06T08:00:00	7	Dirección del viento	4.83
12167	7	Sololá	701	Sololá	3	Barraneche	3	Marzo	2023-05-03T00:00:00	2024-11-06T08:00:00	1	Precipitación	0
12168	7	Sololá	701	Sololá	3	Barraneche	3	Marzo	2023-05-03T00:00:00	2024-11-06T08:00:00	8	Radiación solar	224
12169	7	Sololá	701	Sololá	3	Barraneche	3	Marzo	2023-05-03T00:00:00	2024-11-06T09:00:00	2	Temperatura media	19.9
12170	7	Sololá	701	Sololá	3	Barraneche	3	Marzo	2023-05-03T00:00:00	2024-11-06T09:00:00	4	Temperatura máxima	19.9
12171	7	Sololá	701	Sololá	3	Barraneche	3	Marzo	2023-05-03T00:00:00	2024-11-06T09:00:00	3	Temperatura mínima	14.7
12172	7	Sololá	701	Sololá	3	Barraneche	3	Marzo	2023-05-03T00:00:00	2024-11-06T09:00:00	5	Humedad	27
12173	7	Sololá	701	Sololá	3	Barraneche	3	Marzo	2023-05-03T00:00:00	2024-11-06T09:00:00	6	Velocidad del viento	3.2
12174	7	Sololá	701	Sololá	3	Barraneche	3	Marzo	2023-05-03T00:00:00	2024-11-06T09:00:00	7	Dirección del viento	3.22
12175	7	Sololá	701	Sololá	3	Barraneche	3	Marzo	2023-05-03T00:00:00	2024-11-06T09:00:00	1	Precipitación	0
12176	7	Sololá	701	Sololá	3	Barraneche	3	Marzo	2023-05-03T00:00:00	2024-11-06T09:00:00	8	Radiación solar	501
12177	7	Sololá	701	Sololá	3	Barraneche	3	Marzo	2023-05-03T00:00:00	2024-11-06T10:00:00	2	Temperatura media	21.1
12178	7	Sololá	701	Sololá	3	Barraneche	3	Marzo	2023-05-03T00:00:00	2024-11-06T10:00:00	4	Temperatura máxima	21.1
12179	7	Sololá	701	Sololá	3	Barraneche	3	Marzo	2023-05-03T00:00:00	2024-11-06T10:00:00	3	Temperatura mínima	19.8
12180	7	Sololá	701	Sololá	3	Barraneche	3	Marzo	2023-05-03T00:00:00	2024-11-06T10:00:00	5	Humedad	19
12181	7	Sololá	701	Sololá	3	Barraneche	3	Marzo	2023-05-03T00:00:00	2024-11-06T10:00:00	6	Velocidad del viento	8
12182	7	Sololá	701	Sololá	3	Barraneche	3	Marzo	2023-05-03T00:00:00	2024-11-06T10:00:00	7	Dirección del viento	8.05
12183	7	Sololá	701	Sololá	3	Barraneche	3	Marzo	2023-05-03T00:00:00	2024-11-06T10:00:00	1	Precipitación	0
12184	7	Sololá	701	Sololá	3	Barraneche	3	Marzo	2023-05-03T00:00:00	2024-11-06T10:00:00	8	Radiación solar	730
12185	7	Sololá	701	Sololá	3	Barraneche	3	Marzo	2023-05-03T00:00:00	2024-11-06T11:00:00	2	Temperatura media	21.1
12186	7	Sololá	701	Sololá	3	Barraneche	3	Marzo	2023-05-03T00:00:00	2024-11-06T11:00:00	4	Temperatura máxima	21.7
12187	7	Sololá	701	Sololá	3	Barraneche	3	Marzo	2023-05-03T00:00:00	2024-11-06T11:00:00	3	Temperatura mínima	20.9
12188	7	Sololá	701	Sololá	3	Barraneche	3	Marzo	2023-05-03T00:00:00	2024-11-06T11:00:00	5	Humedad	20
12189	7	Sololá	701	Sololá	3	Barraneche	3	Marzo	2023-05-03T00:00:00	2024-11-06T11:00:00	6	Velocidad del viento	9.7
12190	7	Sololá	701	Sololá	3	Barraneche	3	Marzo	2023-05-03T00:00:00	2024-11-06T11:00:00	7	Dirección del viento	9.66
12191	7	Sololá	701	Sololá	3	Barraneche	3	Marzo	2023-05-03T00:00:00	2024-11-06T11:00:00	1	Precipitación	0
12192	7	Sololá	701	Sololá	3	Barraneche	3	Marzo	2023-05-03T00:00:00	2024-11-06T11:00:00	8	Radiación solar	900
12193	7	Sololá	701	Sololá	3	Barraneche	3	Marzo	2023-05-03T00:00:00	2024-11-06T12:00:00	2	Temperatura media	21
12194	7	Sololá	701	Sololá	3	Barraneche	3	Marzo	2023-05-03T00:00:00	2024-11-06T12:00:00	4	Temperatura máxima	21.6
12195	7	Sololá	701	Sololá	3	Barraneche	3	Marzo	2023-05-03T00:00:00	2024-11-06T12:00:00	3	Temperatura mínima	20.4
12196	7	Sololá	701	Sololá	3	Barraneche	3	Marzo	2023-05-03T00:00:00	2024-11-06T12:00:00	5	Humedad	28
12197	7	Sololá	701	Sololá	3	Barraneche	3	Marzo	2023-05-03T00:00:00	2024-11-06T12:00:00	6	Velocidad del viento	9.7
12198	7	Sololá	701	Sololá	3	Barraneche	3	Marzo	2023-05-03T00:00:00	2024-11-06T12:00:00	7	Dirección del viento	9.66
12199	7	Sololá	701	Sololá	3	Barraneche	3	Marzo	2023-05-03T00:00:00	2024-11-06T12:00:00	1	Precipitación	0
12200	7	Sololá	701	Sololá	3	Barraneche	3	Marzo	2023-05-03T00:00:00	2024-11-06T12:00:00	8	Radiación solar	980
12201	7	Sololá	701	Sololá	3	Barraneche	3	Marzo	2023-05-03T00:00:00	2024-11-06T13:00:00	2	Temperatura media	19.3
12202	7	Sololá	701	Sololá	3	Barraneche	3	Marzo	2023-05-03T00:00:00	2024-11-06T13:00:00	4	Temperatura máxima	22
12203	7	Sololá	701	Sololá	3	Barraneche	3	Marzo	2023-05-03T00:00:00	2024-11-06T13:00:00	3	Temperatura mínima	19.3
12204	7	Sololá	701	Sololá	3	Barraneche	3	Marzo	2023-05-03T00:00:00	2024-11-06T13:00:00	5	Humedad	48
12205	7	Sololá	701	Sololá	3	Barraneche	3	Marzo	2023-05-03T00:00:00	2024-11-06T13:00:00	6	Velocidad del viento	11.3
12206	7	Sololá	701	Sololá	3	Barraneche	3	Marzo	2023-05-03T00:00:00	2024-11-06T13:00:00	7	Dirección del viento	11.27
12207	7	Sololá	701	Sololá	3	Barraneche	3	Marzo	2023-05-03T00:00:00	2024-11-06T13:00:00	1	Precipitación	0
12208	7	Sololá	701	Sololá	3	Barraneche	3	Marzo	2023-05-03T00:00:00	2024-11-06T13:00:00	8	Radiación solar	445
12209	7	Sololá	701	Sololá	3	Barraneche	3	Marzo	2023-05-03T00:00:00	2024-11-06T14:00:00	2	Temperatura media	19.8
12210	7	Sololá	701	Sololá	3	Barraneche	3	Marzo	2023-05-03T00:00:00	2024-11-06T14:00:00	4	Temperatura máxima	20.7
12211	7	Sololá	701	Sololá	3	Barraneche	3	Marzo	2023-05-03T00:00:00	2024-11-06T14:00:00	3	Temperatura mínima	19.2
12212	7	Sololá	701	Sololá	3	Barraneche	3	Marzo	2023-05-03T00:00:00	2024-11-06T14:00:00	5	Humedad	51
12213	7	Sololá	701	Sololá	3	Barraneche	3	Marzo	2023-05-03T00:00:00	2024-11-06T14:00:00	6	Velocidad del viento	12.9
12214	7	Sololá	701	Sololá	3	Barraneche	3	Marzo	2023-05-03T00:00:00	2024-11-06T14:00:00	7	Dirección del viento	12.87
12215	7	Sololá	701	Sololá	3	Barraneche	3	Marzo	2023-05-03T00:00:00	2024-11-06T14:00:00	1	Precipitación	0
12216	7	Sololá	701	Sololá	3	Barraneche	3	Marzo	2023-05-03T00:00:00	2024-11-06T14:00:00	8	Radiación solar	381
12217	7	Sololá	701	Sololá	3	Barraneche	3	Marzo	2023-05-03T00:00:00	2024-11-06T15:00:00	2	Temperatura media	18.9
12218	7	Sololá	701	Sololá	3	Barraneche	3	Marzo	2023-05-03T00:00:00	2024-11-06T15:00:00	4	Temperatura máxima	19.8
12219	7	Sololá	701	Sololá	3	Barraneche	3	Marzo	2023-05-03T00:00:00	2024-11-06T15:00:00	3	Temperatura mínima	18.6
12220	7	Sololá	701	Sololá	3	Barraneche	3	Marzo	2023-05-03T00:00:00	2024-11-06T15:00:00	5	Humedad	59
12221	7	Sololá	701	Sololá	3	Barraneche	3	Marzo	2023-05-03T00:00:00	2024-11-06T15:00:00	6	Velocidad del viento	14.5
12222	7	Sololá	701	Sololá	3	Barraneche	3	Marzo	2023-05-03T00:00:00	2024-11-06T15:00:00	7	Dirección del viento	14.48
12223	7	Sololá	701	Sololá	3	Barraneche	3	Marzo	2023-05-03T00:00:00	2024-11-06T15:00:00	1	Precipitación	0
12224	7	Sololá	701	Sololá	3	Barraneche	3	Marzo	2023-05-03T00:00:00	2024-11-06T15:00:00	8	Radiación solar	479
12225	7	Sololá	701	Sololá	3	Barraneche	3	Marzo	2023-05-03T00:00:00	2024-11-06T16:00:00	2	Temperatura media	17.7
12226	7	Sololá	701	Sololá	3	Barraneche	3	Marzo	2023-05-03T00:00:00	2024-11-06T16:00:00	4	Temperatura máxima	18.9
12227	7	Sololá	701	Sololá	3	Barraneche	3	Marzo	2023-05-03T00:00:00	2024-11-06T16:00:00	3	Temperatura mínima	17.7
12228	7	Sololá	701	Sololá	3	Barraneche	3	Marzo	2023-05-03T00:00:00	2024-11-06T16:00:00	5	Humedad	64
12229	7	Sololá	701	Sololá	3	Barraneche	3	Marzo	2023-05-03T00:00:00	2024-11-06T16:00:00	6	Velocidad del viento	14.5
12230	7	Sololá	701	Sololá	3	Barraneche	3	Marzo	2023-05-03T00:00:00	2024-11-06T16:00:00	7	Dirección del viento	14.48
12231	7	Sololá	701	Sololá	3	Barraneche	3	Marzo	2023-05-03T00:00:00	2024-11-06T16:00:00	1	Precipitación	0
12232	7	Sololá	701	Sololá	3	Barraneche	3	Marzo	2023-05-03T00:00:00	2024-11-06T16:00:00	8	Radiación solar	628
12233	7	Sololá	701	Sololá	3	Barraneche	3	Marzo	2023-05-03T00:00:00	2024-11-06T17:00:00	2	Temperatura media	16.9
12234	7	Sololá	701	Sololá	3	Barraneche	3	Marzo	2023-05-03T00:00:00	2024-11-06T17:00:00	4	Temperatura máxima	18
12235	7	Sololá	701	Sololá	3	Barraneche	3	Marzo	2023-05-03T00:00:00	2024-11-06T17:00:00	3	Temperatura mínima	16.8
12236	7	Sololá	701	Sololá	3	Barraneche	3	Marzo	2023-05-03T00:00:00	2024-11-06T17:00:00	5	Humedad	67
12237	7	Sololá	701	Sololá	3	Barraneche	3	Marzo	2023-05-03T00:00:00	2024-11-06T17:00:00	6	Velocidad del viento	11.3
12238	7	Sololá	701	Sololá	3	Barraneche	3	Marzo	2023-05-03T00:00:00	2024-11-06T17:00:00	7	Dirección del viento	11.27
12239	7	Sololá	701	Sololá	3	Barraneche	3	Marzo	2023-05-03T00:00:00	2024-11-06T17:00:00	1	Precipitación	0
12240	7	Sololá	701	Sololá	3	Barraneche	3	Marzo	2023-05-03T00:00:00	2024-11-06T17:00:00	8	Radiación solar	352
12241	7	Sololá	701	Sololá	3	Barraneche	3	Marzo	2023-05-03T00:00:00	2024-11-06T18:00:00	2	Temperatura media	15.3
12242	7	Sololá	701	Sololá	3	Barraneche	3	Marzo	2023-05-03T00:00:00	2024-11-06T18:00:00	4	Temperatura máxima	16.9
12243	7	Sololá	701	Sololá	3	Barraneche	3	Marzo	2023-05-03T00:00:00	2024-11-06T18:00:00	3	Temperatura mínima	15.3
12244	7	Sololá	701	Sololá	3	Barraneche	3	Marzo	2023-05-03T00:00:00	2024-11-06T18:00:00	5	Humedad	72
12245	7	Sololá	701	Sololá	3	Barraneche	3	Marzo	2023-05-03T00:00:00	2024-11-06T18:00:00	6	Velocidad del viento	9.7
12246	7	Sololá	701	Sololá	3	Barraneche	3	Marzo	2023-05-03T00:00:00	2024-11-06T18:00:00	7	Dirección del viento	9.66
12247	7	Sololá	701	Sololá	3	Barraneche	3	Marzo	2023-05-03T00:00:00	2024-11-06T18:00:00	1	Precipitación	0
12248	7	Sololá	701	Sololá	3	Barraneche	3	Marzo	2023-05-03T00:00:00	2024-11-06T18:00:00	8	Radiación solar	95
12249	7	Sololá	701	Sololá	3	Barraneche	3	Marzo	2023-05-03T00:00:00	2024-11-06T19:00:00	2	Temperatura media	14.6
12250	7	Sololá	701	Sololá	3	Barraneche	3	Marzo	2023-05-03T00:00:00	2024-11-06T19:00:00	4	Temperatura máxima	15.3
12251	7	Sololá	701	Sololá	3	Barraneche	3	Marzo	2023-05-03T00:00:00	2024-11-06T19:00:00	3	Temperatura mínima	14.5
12252	7	Sololá	701	Sololá	3	Barraneche	3	Marzo	2023-05-03T00:00:00	2024-11-06T19:00:00	5	Humedad	76
12253	7	Sololá	701	Sololá	3	Barraneche	3	Marzo	2023-05-03T00:00:00	2024-11-06T19:00:00	6	Velocidad del viento	6.4
12254	7	Sololá	701	Sololá	3	Barraneche	3	Marzo	2023-05-03T00:00:00	2024-11-06T19:00:00	7	Dirección del viento	6.44
12255	7	Sololá	701	Sololá	3	Barraneche	3	Marzo	2023-05-03T00:00:00	2024-11-06T19:00:00	1	Precipitación	0
12256	7	Sololá	701	Sololá	3	Barraneche	3	Marzo	2023-05-03T00:00:00	2024-11-06T19:00:00	8	Radiación solar	0
12257	7	Sololá	701	Sololá	3	Barraneche	3	Marzo	2023-05-03T00:00:00	2024-11-06T20:00:00	2	Temperatura media	14.9
12258	7	Sololá	701	Sololá	3	Barraneche	3	Marzo	2023-05-03T00:00:00	2024-11-06T20:00:00	4	Temperatura máxima	15.1
12259	7	Sololá	701	Sololá	3	Barraneche	3	Marzo	2023-05-03T00:00:00	2024-11-06T20:00:00	3	Temperatura mínima	14.3
12260	7	Sololá	701	Sololá	3	Barraneche	3	Marzo	2023-05-03T00:00:00	2024-11-06T20:00:00	5	Humedad	65
12261	7	Sololá	701	Sololá	3	Barraneche	3	Marzo	2023-05-03T00:00:00	2024-11-06T20:00:00	6	Velocidad del viento	6.4
12262	7	Sololá	701	Sololá	3	Barraneche	3	Marzo	2023-05-03T00:00:00	2024-11-06T20:00:00	7	Dirección del viento	6.44
12263	7	Sololá	701	Sololá	3	Barraneche	3	Marzo	2023-05-03T00:00:00	2024-11-06T20:00:00	1	Precipitación	0
12264	7	Sololá	701	Sololá	3	Barraneche	3	Marzo	2023-05-03T00:00:00	2024-11-06T20:00:00	8	Radiación solar	0
12265	7	Sololá	701	Sololá	3	Barraneche	3	Marzo	2023-05-03T00:00:00	2024-11-06T21:00:00	2	Temperatura media	14.3
12266	7	Sololá	701	Sololá	3	Barraneche	3	Marzo	2023-05-03T00:00:00	2024-11-06T21:00:00	4	Temperatura máxima	14.9
12267	7	Sololá	701	Sololá	3	Barraneche	3	Marzo	2023-05-03T00:00:00	2024-11-06T21:00:00	3	Temperatura mínima	14.2
12268	7	Sololá	701	Sololá	3	Barraneche	3	Marzo	2023-05-03T00:00:00	2024-11-06T21:00:00	5	Humedad	63
12269	7	Sololá	701	Sololá	3	Barraneche	3	Marzo	2023-05-03T00:00:00	2024-11-06T21:00:00	6	Velocidad del viento	6.4
12270	7	Sololá	701	Sololá	3	Barraneche	3	Marzo	2023-05-03T00:00:00	2024-11-06T21:00:00	7	Dirección del viento	6.44
12271	7	Sololá	701	Sololá	3	Barraneche	3	Marzo	2023-05-03T00:00:00	2024-11-06T21:00:00	1	Precipitación	0
12272	7	Sololá	701	Sololá	3	Barraneche	3	Marzo	2023-05-03T00:00:00	2024-11-06T21:00:00	8	Radiación solar	0
12273	7	Sololá	701	Sololá	3	Barraneche	3	Marzo	2023-05-03T00:00:00	2024-11-06T22:00:00	2	Temperatura media	13.6
12274	7	Sololá	701	Sololá	3	Barraneche	3	Marzo	2023-05-03T00:00:00	2024-11-06T22:00:00	4	Temperatura máxima	14.3
12275	7	Sololá	701	Sololá	3	Barraneche	3	Marzo	2023-05-03T00:00:00	2024-11-06T22:00:00	3	Temperatura mínima	13.6
12276	7	Sololá	701	Sololá	3	Barraneche	3	Marzo	2023-05-03T00:00:00	2024-11-06T22:00:00	5	Humedad	63
12277	7	Sololá	701	Sololá	3	Barraneche	3	Marzo	2023-05-03T00:00:00	2024-11-06T22:00:00	6	Velocidad del viento	6.4
12278	7	Sololá	701	Sololá	3	Barraneche	3	Marzo	2023-05-03T00:00:00	2024-11-06T22:00:00	7	Dirección del viento	6.44
12279	7	Sololá	701	Sololá	3	Barraneche	3	Marzo	2023-05-03T00:00:00	2024-11-06T22:00:00	1	Precipitación	0
12280	7	Sololá	701	Sololá	3	Barraneche	3	Marzo	2023-05-03T00:00:00	2024-11-06T22:00:00	8	Radiación solar	0
12281	7	Sololá	701	Sololá	3	Barraneche	3	Marzo	2023-05-03T00:00:00	2024-11-06T23:00:00	2	Temperatura media	12.8
12282	7	Sololá	701	Sololá	3	Barraneche	3	Marzo	2023-05-03T00:00:00	2024-11-06T23:00:00	4	Temperatura máxima	13.6
12283	7	Sololá	701	Sololá	3	Barraneche	3	Marzo	2023-05-03T00:00:00	2024-11-06T23:00:00	3	Temperatura mínima	12.6
12284	7	Sololá	701	Sololá	3	Barraneche	3	Marzo	2023-05-03T00:00:00	2024-11-06T23:00:00	5	Humedad	60
12285	7	Sololá	701	Sololá	3	Barraneche	3	Marzo	2023-05-03T00:00:00	2024-11-06T23:00:00	6	Velocidad del viento	6.4
12286	7	Sololá	701	Sololá	3	Barraneche	3	Marzo	2023-05-03T00:00:00	2024-11-06T23:00:00	7	Dirección del viento	6.44
12287	7	Sololá	701	Sololá	3	Barraneche	3	Marzo	2023-05-03T00:00:00	2024-11-06T23:00:00	1	Precipitación	0
12288	7	Sololá	701	Sololá	3	Barraneche	3	Marzo	2023-05-03T00:00:00	2024-11-06T23:00:00	8	Radiación solar	0
12289	7	Sololá	701	Sololá	3	Barraneche	3	Marzo	2023-06-03T00:00:00	2024-11-06T00:00:00	2	Temperatura media	12.5
12290	7	Sololá	701	Sololá	3	Barraneche	3	Marzo	2023-06-03T00:00:00	2024-11-06T00:00:00	4	Temperatura máxima	13.1
12291	7	Sololá	701	Sololá	3	Barraneche	3	Marzo	2023-06-03T00:00:00	2024-11-06T00:00:00	3	Temperatura mínima	12.4
12292	7	Sololá	701	Sololá	3	Barraneche	3	Marzo	2023-06-03T00:00:00	2024-11-06T00:00:00	5	Humedad	58
12293	7	Sololá	701	Sololá	3	Barraneche	3	Marzo	2023-06-03T00:00:00	2024-11-06T00:00:00	6	Velocidad del viento	11.3
12294	7	Sololá	701	Sololá	3	Barraneche	3	Marzo	2023-06-03T00:00:00	2024-11-06T00:00:00	7	Dirección del viento	11.27
12295	7	Sololá	701	Sololá	3	Barraneche	3	Marzo	2023-06-03T00:00:00	2024-11-06T00:00:00	1	Precipitación	0
12296	7	Sololá	701	Sololá	3	Barraneche	3	Marzo	2023-06-03T00:00:00	2024-11-06T00:00:00	8	Radiación solar	0
12297	7	Sololá	701	Sololá	3	Barraneche	3	Marzo	2023-06-03T00:00:00	2024-11-06T01:00:00	2	Temperatura media	12.4
12298	7	Sololá	701	Sololá	3	Barraneche	3	Marzo	2023-06-03T00:00:00	2024-11-06T01:00:00	4	Temperatura máxima	13
12299	7	Sololá	701	Sololá	3	Barraneche	3	Marzo	2023-06-03T00:00:00	2024-11-06T01:00:00	3	Temperatura mínima	11.7
12300	7	Sololá	701	Sololá	3	Barraneche	3	Marzo	2023-06-03T00:00:00	2024-11-06T01:00:00	5	Humedad	43
12301	7	Sololá	701	Sololá	3	Barraneche	3	Marzo	2023-06-03T00:00:00	2024-11-06T01:00:00	6	Velocidad del viento	9.7
12302	7	Sololá	701	Sololá	3	Barraneche	3	Marzo	2023-06-03T00:00:00	2024-11-06T01:00:00	7	Dirección del viento	9.66
12303	7	Sololá	701	Sololá	3	Barraneche	3	Marzo	2023-06-03T00:00:00	2024-11-06T01:00:00	1	Precipitación	0
12304	7	Sololá	701	Sololá	3	Barraneche	3	Marzo	2023-06-03T00:00:00	2024-11-06T01:00:00	8	Radiación solar	0
12305	7	Sololá	701	Sololá	3	Barraneche	3	Marzo	2023-06-03T00:00:00	2024-11-06T02:00:00	2	Temperatura media	9.3
12306	7	Sololá	701	Sololá	3	Barraneche	3	Marzo	2023-06-03T00:00:00	2024-11-06T02:00:00	4	Temperatura máxima	12.6
12307	7	Sololá	701	Sololá	3	Barraneche	3	Marzo	2023-06-03T00:00:00	2024-11-06T02:00:00	3	Temperatura mínima	9.3
12308	7	Sololá	701	Sololá	3	Barraneche	3	Marzo	2023-06-03T00:00:00	2024-11-06T02:00:00	5	Humedad	52
12309	7	Sololá	701	Sololá	3	Barraneche	3	Marzo	2023-06-03T00:00:00	2024-11-06T02:00:00	6	Velocidad del viento	6.4
12310	7	Sololá	701	Sololá	3	Barraneche	3	Marzo	2023-06-03T00:00:00	2024-11-06T02:00:00	7	Dirección del viento	6.44
12311	7	Sololá	701	Sololá	3	Barraneche	3	Marzo	2023-06-03T00:00:00	2024-11-06T02:00:00	1	Precipitación	0
12312	7	Sololá	701	Sololá	3	Barraneche	3	Marzo	2023-06-03T00:00:00	2024-11-06T02:00:00	8	Radiación solar	0
12313	7	Sololá	701	Sololá	3	Barraneche	3	Marzo	2023-06-03T00:00:00	2024-11-06T03:00:00	2	Temperatura media	9.2
12314	7	Sololá	701	Sololá	3	Barraneche	3	Marzo	2023-06-03T00:00:00	2024-11-06T03:00:00	4	Temperatura máxima	10.3
12315	7	Sololá	701	Sololá	3	Barraneche	3	Marzo	2023-06-03T00:00:00	2024-11-06T03:00:00	3	Temperatura mínima	8.8
12316	7	Sololá	701	Sololá	3	Barraneche	3	Marzo	2023-06-03T00:00:00	2024-11-06T03:00:00	5	Humedad	52
12317	7	Sololá	701	Sololá	3	Barraneche	3	Marzo	2023-06-03T00:00:00	2024-11-06T03:00:00	6	Velocidad del viento	8
12318	7	Sololá	701	Sololá	3	Barraneche	3	Marzo	2023-06-03T00:00:00	2024-11-06T03:00:00	7	Dirección del viento	8.05
12319	7	Sololá	701	Sololá	3	Barraneche	3	Marzo	2023-06-03T00:00:00	2024-11-06T03:00:00	1	Precipitación	0
12320	7	Sololá	701	Sololá	3	Barraneche	3	Marzo	2023-06-03T00:00:00	2024-11-06T03:00:00	8	Radiación solar	0
12321	7	Sololá	701	Sololá	3	Barraneche	3	Marzo	2023-06-03T00:00:00	2024-11-06T04:00:00	2	Temperatura media	8.4
12322	7	Sololá	701	Sololá	3	Barraneche	3	Marzo	2023-06-03T00:00:00	2024-11-06T04:00:00	4	Temperatura máxima	9.3
12323	7	Sololá	701	Sololá	3	Barraneche	3	Marzo	2023-06-03T00:00:00	2024-11-06T04:00:00	3	Temperatura mínima	8.1
12324	7	Sololá	701	Sololá	3	Barraneche	3	Marzo	2023-06-03T00:00:00	2024-11-06T04:00:00	5	Humedad	56
12325	7	Sololá	701	Sololá	3	Barraneche	3	Marzo	2023-06-03T00:00:00	2024-11-06T04:00:00	6	Velocidad del viento	8
12326	7	Sololá	701	Sololá	3	Barraneche	3	Marzo	2023-06-03T00:00:00	2024-11-06T04:00:00	7	Dirección del viento	8.05
12327	7	Sololá	701	Sololá	3	Barraneche	3	Marzo	2023-06-03T00:00:00	2024-11-06T04:00:00	1	Precipitación	0
12328	7	Sololá	701	Sololá	3	Barraneche	3	Marzo	2023-06-03T00:00:00	2024-11-06T04:00:00	8	Radiación solar	0
12329	7	Sololá	701	Sololá	3	Barraneche	3	Marzo	2023-06-03T00:00:00	2024-11-06T05:00:00	2	Temperatura media	8.1
12330	7	Sololá	701	Sololá	3	Barraneche	3	Marzo	2023-06-03T00:00:00	2024-11-06T05:00:00	4	Temperatura máxima	8.9
12331	7	Sololá	701	Sololá	3	Barraneche	3	Marzo	2023-06-03T00:00:00	2024-11-06T05:00:00	3	Temperatura mínima	8.1
12332	7	Sololá	701	Sololá	3	Barraneche	3	Marzo	2023-06-03T00:00:00	2024-11-06T05:00:00	5	Humedad	58
12333	7	Sololá	701	Sololá	3	Barraneche	3	Marzo	2023-06-03T00:00:00	2024-11-06T05:00:00	6	Velocidad del viento	8
12334	7	Sololá	701	Sololá	3	Barraneche	3	Marzo	2023-06-03T00:00:00	2024-11-06T05:00:00	7	Dirección del viento	8.05
12335	7	Sololá	701	Sololá	3	Barraneche	3	Marzo	2023-06-03T00:00:00	2024-11-06T05:00:00	1	Precipitación	0
12336	7	Sololá	701	Sololá	3	Barraneche	3	Marzo	2023-06-03T00:00:00	2024-11-06T05:00:00	8	Radiación solar	0
12337	7	Sololá	701	Sololá	3	Barraneche	3	Marzo	2023-06-03T00:00:00	2024-11-06T06:00:00	2	Temperatura media	8.6
12338	7	Sololá	701	Sololá	3	Barraneche	3	Marzo	2023-06-03T00:00:00	2024-11-06T06:00:00	4	Temperatura máxima	8.7
12339	7	Sololá	701	Sololá	3	Barraneche	3	Marzo	2023-06-03T00:00:00	2024-11-06T06:00:00	3	Temperatura mínima	7.9
12340	7	Sololá	701	Sololá	3	Barraneche	3	Marzo	2023-06-03T00:00:00	2024-11-06T06:00:00	5	Humedad	58
12341	7	Sololá	701	Sololá	3	Barraneche	3	Marzo	2023-06-03T00:00:00	2024-11-06T06:00:00	6	Velocidad del viento	8
12342	7	Sololá	701	Sololá	3	Barraneche	3	Marzo	2023-06-03T00:00:00	2024-11-06T06:00:00	7	Dirección del viento	8.05
12343	7	Sololá	701	Sololá	3	Barraneche	3	Marzo	2023-06-03T00:00:00	2024-11-06T06:00:00	1	Precipitación	0
12344	7	Sololá	701	Sololá	3	Barraneche	3	Marzo	2023-06-03T00:00:00	2024-11-06T06:00:00	8	Radiación solar	0
12345	7	Sololá	701	Sololá	3	Barraneche	3	Marzo	2023-06-03T00:00:00	2024-11-06T07:00:00	2	Temperatura media	9.1
12346	7	Sololá	701	Sololá	3	Barraneche	3	Marzo	2023-06-03T00:00:00	2024-11-06T07:00:00	4	Temperatura máxima	9.7
12347	7	Sololá	701	Sololá	3	Barraneche	3	Marzo	2023-06-03T00:00:00	2024-11-06T07:00:00	3	Temperatura mínima	8.3
12348	7	Sololá	701	Sololá	3	Barraneche	3	Marzo	2023-06-03T00:00:00	2024-11-06T07:00:00	5	Humedad	56
12349	7	Sololá	701	Sololá	3	Barraneche	3	Marzo	2023-06-03T00:00:00	2024-11-06T07:00:00	6	Velocidad del viento	8
12350	7	Sololá	701	Sololá	3	Barraneche	3	Marzo	2023-06-03T00:00:00	2024-11-06T07:00:00	7	Dirección del viento	8.05
12351	7	Sololá	701	Sololá	3	Barraneche	3	Marzo	2023-06-03T00:00:00	2024-11-06T07:00:00	1	Precipitación	0
12352	7	Sololá	701	Sololá	3	Barraneche	3	Marzo	2023-06-03T00:00:00	2024-11-06T07:00:00	8	Radiación solar	13
12353	7	Sololá	701	Sololá	3	Barraneche	3	Marzo	2023-06-03T00:00:00	2024-11-06T08:00:00	2	Temperatura media	13.8
12354	7	Sololá	701	Sololá	3	Barraneche	3	Marzo	2023-06-03T00:00:00	2024-11-06T08:00:00	4	Temperatura máxima	13.8
12355	7	Sololá	701	Sololá	3	Barraneche	3	Marzo	2023-06-03T00:00:00	2024-11-06T08:00:00	3	Temperatura mínima	9.1
12356	7	Sololá	701	Sololá	3	Barraneche	3	Marzo	2023-06-03T00:00:00	2024-11-06T08:00:00	5	Humedad	50
12357	7	Sololá	701	Sololá	3	Barraneche	3	Marzo	2023-06-03T00:00:00	2024-11-06T08:00:00	6	Velocidad del viento	6.4
12358	7	Sololá	701	Sololá	3	Barraneche	3	Marzo	2023-06-03T00:00:00	2024-11-06T08:00:00	7	Dirección del viento	6.44
12359	7	Sololá	701	Sololá	3	Barraneche	3	Marzo	2023-06-03T00:00:00	2024-11-06T08:00:00	1	Precipitación	0
12360	7	Sololá	701	Sololá	3	Barraneche	3	Marzo	2023-06-03T00:00:00	2024-11-06T08:00:00	8	Radiación solar	224
12361	7	Sololá	701	Sololá	3	Barraneche	3	Marzo	2023-06-03T00:00:00	2024-11-06T09:00:00	2	Temperatura media	16.9
12362	7	Sololá	701	Sololá	3	Barraneche	3	Marzo	2023-06-03T00:00:00	2024-11-06T09:00:00	4	Temperatura máxima	16.9
12363	7	Sololá	701	Sololá	3	Barraneche	3	Marzo	2023-06-03T00:00:00	2024-11-06T09:00:00	3	Temperatura mínima	13.8
12364	7	Sololá	701	Sololá	3	Barraneche	3	Marzo	2023-06-03T00:00:00	2024-11-06T09:00:00	5	Humedad	40
12365	7	Sololá	701	Sololá	3	Barraneche	3	Marzo	2023-06-03T00:00:00	2024-11-06T09:00:00	6	Velocidad del viento	3.2
12366	7	Sololá	701	Sololá	3	Barraneche	3	Marzo	2023-06-03T00:00:00	2024-11-06T09:00:00	7	Dirección del viento	3.22
12367	7	Sololá	701	Sololá	3	Barraneche	3	Marzo	2023-06-03T00:00:00	2024-11-06T09:00:00	1	Precipitación	0
12368	7	Sololá	701	Sololá	3	Barraneche	3	Marzo	2023-06-03T00:00:00	2024-11-06T09:00:00	8	Radiación solar	489
12369	7	Sololá	701	Sololá	3	Barraneche	3	Marzo	2023-06-03T00:00:00	2024-11-06T10:00:00	2	Temperatura media	18.6
12370	7	Sololá	701	Sololá	3	Barraneche	3	Marzo	2023-06-03T00:00:00	2024-11-06T10:00:00	4	Temperatura máxima	18.6
12371	7	Sololá	701	Sololá	3	Barraneche	3	Marzo	2023-06-03T00:00:00	2024-11-06T10:00:00	3	Temperatura mínima	16.8
12372	7	Sololá	701	Sololá	3	Barraneche	3	Marzo	2023-06-03T00:00:00	2024-11-06T10:00:00	5	Humedad	45
12373	7	Sololá	701	Sololá	3	Barraneche	3	Marzo	2023-06-03T00:00:00	2024-11-06T10:00:00	6	Velocidad del viento	8
12374	7	Sololá	701	Sololá	3	Barraneche	3	Marzo	2023-06-03T00:00:00	2024-11-06T10:00:00	7	Dirección del viento	8.05
12375	7	Sololá	701	Sololá	3	Barraneche	3	Marzo	2023-06-03T00:00:00	2024-11-06T10:00:00	1	Precipitación	0
12376	7	Sololá	701	Sololá	3	Barraneche	3	Marzo	2023-06-03T00:00:00	2024-11-06T10:00:00	8	Radiación solar	721
12377	7	Sololá	701	Sololá	3	Barraneche	3	Marzo	2023-06-03T00:00:00	2024-11-06T11:00:00	2	Temperatura media	20.9
12378	7	Sololá	701	Sololá	3	Barraneche	3	Marzo	2023-06-03T00:00:00	2024-11-06T11:00:00	4	Temperatura máxima	21.2
12379	7	Sololá	701	Sololá	3	Barraneche	3	Marzo	2023-06-03T00:00:00	2024-11-06T11:00:00	3	Temperatura mínima	18.6
12380	7	Sololá	701	Sololá	3	Barraneche	3	Marzo	2023-06-03T00:00:00	2024-11-06T11:00:00	5	Humedad	15
12381	7	Sololá	701	Sololá	3	Barraneche	3	Marzo	2023-06-03T00:00:00	2024-11-06T11:00:00	6	Velocidad del viento	11.3
12382	7	Sololá	701	Sololá	3	Barraneche	3	Marzo	2023-06-03T00:00:00	2024-11-06T11:00:00	7	Dirección del viento	11.27
12383	7	Sololá	701	Sololá	3	Barraneche	3	Marzo	2023-06-03T00:00:00	2024-11-06T11:00:00	1	Precipitación	0
12384	7	Sololá	701	Sololá	3	Barraneche	3	Marzo	2023-06-03T00:00:00	2024-11-06T11:00:00	8	Radiación solar	877
12385	7	Sololá	701	Sololá	3	Barraneche	3	Marzo	2023-06-03T00:00:00	2024-11-06T12:00:00	2	Temperatura media	20.9
12386	7	Sololá	701	Sololá	3	Barraneche	3	Marzo	2023-06-03T00:00:00	2024-11-06T12:00:00	4	Temperatura máxima	21.5
12387	7	Sololá	701	Sololá	3	Barraneche	3	Marzo	2023-06-03T00:00:00	2024-11-06T12:00:00	3	Temperatura mínima	20.7
12388	7	Sololá	701	Sololá	3	Barraneche	3	Marzo	2023-06-03T00:00:00	2024-11-06T12:00:00	5	Humedad	19
12389	7	Sololá	701	Sololá	3	Barraneche	3	Marzo	2023-06-03T00:00:00	2024-11-06T12:00:00	6	Velocidad del viento	16.1
12390	7	Sololá	701	Sololá	3	Barraneche	3	Marzo	2023-06-03T00:00:00	2024-11-06T12:00:00	7	Dirección del viento	16.09
12391	7	Sololá	701	Sololá	3	Barraneche	3	Marzo	2023-06-03T00:00:00	2024-11-06T12:00:00	1	Precipitación	0
12392	7	Sololá	701	Sololá	3	Barraneche	3	Marzo	2023-06-03T00:00:00	2024-11-06T12:00:00	8	Radiación solar	966
12393	7	Sololá	701	Sololá	3	Barraneche	3	Marzo	2023-06-03T00:00:00	2024-11-06T13:00:00	2	Temperatura media	21.8
12394	7	Sololá	701	Sololá	3	Barraneche	3	Marzo	2023-06-03T00:00:00	2024-11-06T13:00:00	4	Temperatura máxima	22.1
12395	7	Sololá	701	Sololá	3	Barraneche	3	Marzo	2023-06-03T00:00:00	2024-11-06T13:00:00	3	Temperatura mínima	20.8
12396	7	Sololá	701	Sololá	3	Barraneche	3	Marzo	2023-06-03T00:00:00	2024-11-06T13:00:00	5	Humedad	24
12397	7	Sololá	701	Sololá	3	Barraneche	3	Marzo	2023-06-03T00:00:00	2024-11-06T13:00:00	6	Velocidad del viento	14.5
12398	7	Sololá	701	Sololá	3	Barraneche	3	Marzo	2023-06-03T00:00:00	2024-11-06T13:00:00	7	Dirección del viento	14.48
12399	7	Sololá	701	Sololá	3	Barraneche	3	Marzo	2023-06-03T00:00:00	2024-11-06T13:00:00	1	Precipitación	0
12400	7	Sololá	701	Sololá	3	Barraneche	3	Marzo	2023-06-03T00:00:00	2024-11-06T13:00:00	8	Radiación solar	975
12401	7	Sololá	701	Sololá	3	Barraneche	3	Marzo	2023-06-03T00:00:00	2024-11-06T14:00:00	2	Temperatura media	20.2
12402	7	Sololá	701	Sololá	3	Barraneche	3	Marzo	2023-06-03T00:00:00	2024-11-06T14:00:00	4	Temperatura máxima	21.9
12403	7	Sololá	701	Sololá	3	Barraneche	3	Marzo	2023-06-03T00:00:00	2024-11-06T14:00:00	3	Temperatura mínima	19.9
12404	7	Sololá	701	Sololá	3	Barraneche	3	Marzo	2023-06-03T00:00:00	2024-11-06T14:00:00	5	Humedad	47
12405	7	Sololá	701	Sololá	3	Barraneche	3	Marzo	2023-06-03T00:00:00	2024-11-06T14:00:00	6	Velocidad del viento	17.7
12406	7	Sololá	701	Sololá	3	Barraneche	3	Marzo	2023-06-03T00:00:00	2024-11-06T14:00:00	7	Dirección del viento	17.7
12407	7	Sololá	701	Sololá	3	Barraneche	3	Marzo	2023-06-03T00:00:00	2024-11-06T14:00:00	1	Precipitación	0
12408	7	Sololá	701	Sololá	3	Barraneche	3	Marzo	2023-06-03T00:00:00	2024-11-06T14:00:00	8	Radiación solar	942
12409	7	Sololá	701	Sololá	3	Barraneche	3	Marzo	2023-06-03T00:00:00	2024-11-06T15:00:00	2	Temperatura media	18.8
12410	7	Sololá	701	Sololá	3	Barraneche	3	Marzo	2023-06-03T00:00:00	2024-11-06T15:00:00	4	Temperatura máxima	20.6
12411	7	Sololá	701	Sololá	3	Barraneche	3	Marzo	2023-06-03T00:00:00	2024-11-06T15:00:00	3	Temperatura mínima	18.8
12412	7	Sololá	701	Sololá	3	Barraneche	3	Marzo	2023-06-03T00:00:00	2024-11-06T15:00:00	5	Humedad	57
12413	7	Sololá	701	Sololá	3	Barraneche	3	Marzo	2023-06-03T00:00:00	2024-11-06T15:00:00	6	Velocidad del viento	17.7
12414	7	Sololá	701	Sololá	3	Barraneche	3	Marzo	2023-06-03T00:00:00	2024-11-06T15:00:00	7	Dirección del viento	17.7
12415	7	Sololá	701	Sololá	3	Barraneche	3	Marzo	2023-06-03T00:00:00	2024-11-06T15:00:00	1	Precipitación	0
12416	7	Sololá	701	Sololá	3	Barraneche	3	Marzo	2023-06-03T00:00:00	2024-11-06T15:00:00	8	Radiación solar	798
12417	7	Sololá	701	Sololá	3	Barraneche	3	Marzo	2023-06-03T00:00:00	2024-11-06T16:00:00	2	Temperatura media	18.1
12418	7	Sololá	701	Sololá	3	Barraneche	3	Marzo	2023-06-03T00:00:00	2024-11-06T16:00:00	4	Temperatura máxima	18.8
12419	7	Sololá	701	Sololá	3	Barraneche	3	Marzo	2023-06-03T00:00:00	2024-11-06T16:00:00	3	Temperatura mínima	18.1
12420	7	Sololá	701	Sololá	3	Barraneche	3	Marzo	2023-06-03T00:00:00	2024-11-06T16:00:00	5	Humedad	60
12421	7	Sololá	701	Sololá	3	Barraneche	3	Marzo	2023-06-03T00:00:00	2024-11-06T16:00:00	6	Velocidad del viento	16.1
12422	7	Sololá	701	Sololá	3	Barraneche	3	Marzo	2023-06-03T00:00:00	2024-11-06T16:00:00	7	Dirección del viento	16.09
12423	7	Sololá	701	Sololá	3	Barraneche	3	Marzo	2023-06-03T00:00:00	2024-11-06T16:00:00	1	Precipitación	0
12424	7	Sololá	701	Sololá	3	Barraneche	3	Marzo	2023-06-03T00:00:00	2024-11-06T16:00:00	8	Radiación solar	590
12425	7	Sololá	701	Sololá	3	Barraneche	3	Marzo	2023-06-03T00:00:00	2024-11-06T17:00:00	2	Temperatura media	16.4
12426	7	Sololá	701	Sololá	3	Barraneche	3	Marzo	2023-06-03T00:00:00	2024-11-06T17:00:00	4	Temperatura máxima	18.2
12427	7	Sololá	701	Sololá	3	Barraneche	3	Marzo	2023-06-03T00:00:00	2024-11-06T17:00:00	3	Temperatura mínima	16.4
12428	7	Sololá	701	Sololá	3	Barraneche	3	Marzo	2023-06-03T00:00:00	2024-11-06T17:00:00	5	Humedad	66
12429	7	Sololá	701	Sololá	3	Barraneche	3	Marzo	2023-06-03T00:00:00	2024-11-06T17:00:00	6	Velocidad del viento	14.5
12430	7	Sololá	701	Sololá	3	Barraneche	3	Marzo	2023-06-03T00:00:00	2024-11-06T17:00:00	7	Dirección del viento	14.48
12431	7	Sololá	701	Sololá	3	Barraneche	3	Marzo	2023-06-03T00:00:00	2024-11-06T17:00:00	1	Precipitación	0
12432	7	Sololá	701	Sololá	3	Barraneche	3	Marzo	2023-06-03T00:00:00	2024-11-06T17:00:00	8	Radiación solar	338
12433	7	Sololá	701	Sololá	3	Barraneche	3	Marzo	2023-06-03T00:00:00	2024-11-06T18:00:00	2	Temperatura media	15.2
12434	7	Sololá	701	Sololá	3	Barraneche	3	Marzo	2023-06-03T00:00:00	2024-11-06T18:00:00	4	Temperatura máxima	16.5
12435	7	Sololá	701	Sololá	3	Barraneche	3	Marzo	2023-06-03T00:00:00	2024-11-06T18:00:00	3	Temperatura mínima	15.2
12436	7	Sololá	701	Sololá	3	Barraneche	3	Marzo	2023-06-03T00:00:00	2024-11-06T18:00:00	5	Humedad	71
12437	7	Sololá	701	Sololá	3	Barraneche	3	Marzo	2023-06-03T00:00:00	2024-11-06T18:00:00	6	Velocidad del viento	11.3
12438	7	Sololá	701	Sololá	3	Barraneche	3	Marzo	2023-06-03T00:00:00	2024-11-06T18:00:00	7	Dirección del viento	11.27
12439	7	Sololá	701	Sololá	3	Barraneche	3	Marzo	2023-06-03T00:00:00	2024-11-06T18:00:00	1	Precipitación	0
12440	7	Sololá	701	Sololá	3	Barraneche	3	Marzo	2023-06-03T00:00:00	2024-11-06T18:00:00	8	Radiación solar	96
12441	7	Sololá	701	Sololá	3	Barraneche	3	Marzo	2023-06-03T00:00:00	2024-11-06T19:00:00	2	Temperatura media	15.4
12442	7	Sololá	701	Sololá	3	Barraneche	3	Marzo	2023-06-03T00:00:00	2024-11-06T19:00:00	4	Temperatura máxima	15.6
12443	7	Sololá	701	Sololá	3	Barraneche	3	Marzo	2023-06-03T00:00:00	2024-11-06T19:00:00	3	Temperatura mínima	14.6
12444	7	Sololá	701	Sololá	3	Barraneche	3	Marzo	2023-06-03T00:00:00	2024-11-06T19:00:00	5	Humedad	59
12445	7	Sololá	701	Sololá	3	Barraneche	3	Marzo	2023-06-03T00:00:00	2024-11-06T19:00:00	6	Velocidad del viento	6.4
12446	7	Sololá	701	Sololá	3	Barraneche	3	Marzo	2023-06-03T00:00:00	2024-11-06T19:00:00	7	Dirección del viento	6.44
12447	7	Sololá	701	Sololá	3	Barraneche	3	Marzo	2023-06-03T00:00:00	2024-11-06T19:00:00	1	Precipitación	0
12448	7	Sololá	701	Sololá	3	Barraneche	3	Marzo	2023-06-03T00:00:00	2024-11-06T19:00:00	8	Radiación solar	0
12449	7	Sololá	701	Sololá	3	Barraneche	3	Marzo	2023-06-03T00:00:00	2024-11-06T20:00:00	2	Temperatura media	14.3
12450	7	Sololá	701	Sololá	3	Barraneche	3	Marzo	2023-06-03T00:00:00	2024-11-06T20:00:00	4	Temperatura máxima	15.4
12451	7	Sololá	701	Sololá	3	Barraneche	3	Marzo	2023-06-03T00:00:00	2024-11-06T20:00:00	3	Temperatura mínima	14.3
12452	7	Sololá	701	Sololá	3	Barraneche	3	Marzo	2023-06-03T00:00:00	2024-11-06T20:00:00	5	Humedad	61
12453	7	Sololá	701	Sololá	3	Barraneche	3	Marzo	2023-06-03T00:00:00	2024-11-06T20:00:00	6	Velocidad del viento	4.8
12454	7	Sololá	701	Sololá	3	Barraneche	3	Marzo	2023-06-03T00:00:00	2024-11-06T20:00:00	7	Dirección del viento	4.83
12455	7	Sololá	701	Sololá	3	Barraneche	3	Marzo	2023-06-03T00:00:00	2024-11-06T20:00:00	1	Precipitación	0
12456	7	Sololá	701	Sololá	3	Barraneche	3	Marzo	2023-06-03T00:00:00	2024-11-06T20:00:00	8	Radiación solar	0
12457	7	Sololá	701	Sololá	3	Barraneche	3	Marzo	2023-06-03T00:00:00	2024-11-06T21:00:00	2	Temperatura media	12.8
12458	7	Sololá	701	Sololá	3	Barraneche	3	Marzo	2023-06-03T00:00:00	2024-11-06T21:00:00	4	Temperatura máxima	14.3
12459	7	Sololá	701	Sololá	3	Barraneche	3	Marzo	2023-06-03T00:00:00	2024-11-06T21:00:00	3	Temperatura mínima	12.8
12460	7	Sololá	701	Sololá	3	Barraneche	3	Marzo	2023-06-03T00:00:00	2024-11-06T21:00:00	5	Humedad	62
12461	7	Sololá	701	Sololá	3	Barraneche	3	Marzo	2023-06-03T00:00:00	2024-11-06T21:00:00	6	Velocidad del viento	9.7
12462	7	Sololá	701	Sololá	3	Barraneche	3	Marzo	2023-06-03T00:00:00	2024-11-06T21:00:00	7	Dirección del viento	9.66
12463	7	Sololá	701	Sololá	3	Barraneche	3	Marzo	2023-06-03T00:00:00	2024-11-06T21:00:00	1	Precipitación	0
12464	7	Sololá	701	Sololá	3	Barraneche	3	Marzo	2023-06-03T00:00:00	2024-11-06T21:00:00	8	Radiación solar	0
12465	7	Sololá	701	Sololá	3	Barraneche	3	Marzo	2023-06-03T00:00:00	2024-11-06T22:00:00	2	Temperatura media	10.3
12466	7	Sololá	701	Sololá	3	Barraneche	3	Marzo	2023-06-03T00:00:00	2024-11-06T22:00:00	4	Temperatura máxima	12.8
12467	7	Sololá	701	Sololá	3	Barraneche	3	Marzo	2023-06-03T00:00:00	2024-11-06T22:00:00	3	Temperatura mínima	10.3
12468	7	Sololá	701	Sololá	3	Barraneche	3	Marzo	2023-06-03T00:00:00	2024-11-06T22:00:00	5	Humedad	63
12469	7	Sololá	701	Sololá	3	Barraneche	3	Marzo	2023-06-03T00:00:00	2024-11-06T22:00:00	6	Velocidad del viento	4.8
12470	7	Sololá	701	Sololá	3	Barraneche	3	Marzo	2023-06-03T00:00:00	2024-11-06T22:00:00	7	Dirección del viento	4.83
12471	7	Sololá	701	Sololá	3	Barraneche	3	Marzo	2023-06-03T00:00:00	2024-11-06T22:00:00	1	Precipitación	0
12472	7	Sololá	701	Sololá	3	Barraneche	3	Marzo	2023-06-03T00:00:00	2024-11-06T22:00:00	8	Radiación solar	0
12473	7	Sololá	701	Sololá	3	Barraneche	3	Marzo	2023-06-03T00:00:00	2024-11-06T23:00:00	2	Temperatura media	9.3
12474	7	Sololá	701	Sololá	3	Barraneche	3	Marzo	2023-06-03T00:00:00	2024-11-06T23:00:00	4	Temperatura máxima	10.3
12475	7	Sololá	701	Sololá	3	Barraneche	3	Marzo	2023-06-03T00:00:00	2024-11-06T23:00:00	3	Temperatura mínima	9.3
12476	7	Sololá	701	Sololá	3	Barraneche	3	Marzo	2023-06-03T00:00:00	2024-11-06T23:00:00	5	Humedad	53
12477	7	Sololá	701	Sololá	3	Barraneche	3	Marzo	2023-06-03T00:00:00	2024-11-06T23:00:00	6	Velocidad del viento	8
12478	7	Sololá	701	Sololá	3	Barraneche	3	Marzo	2023-06-03T00:00:00	2024-11-06T23:00:00	7	Dirección del viento	8.05
12479	7	Sololá	701	Sololá	3	Barraneche	3	Marzo	2023-06-03T00:00:00	2024-11-06T23:00:00	1	Precipitación	0
12480	7	Sololá	701	Sololá	3	Barraneche	3	Marzo	2023-06-03T00:00:00	2024-11-06T23:00:00	8	Radiación solar	0
12481	7	Sololá	701	Sololá	3	Barraneche	3	Marzo	2023-07-03T00:00:00	2024-11-06T00:00:00	2	Temperatura media	8.7
12482	7	Sololá	701	Sololá	3	Barraneche	3	Marzo	2023-07-03T00:00:00	2024-11-06T00:00:00	4	Temperatura máxima	9.3
12483	7	Sololá	701	Sololá	3	Barraneche	3	Marzo	2023-07-03T00:00:00	2024-11-06T00:00:00	3	Temperatura mínima	8.7
12484	7	Sololá	701	Sololá	3	Barraneche	3	Marzo	2023-07-03T00:00:00	2024-11-06T00:00:00	5	Humedad	42
12485	7	Sololá	701	Sololá	3	Barraneche	3	Marzo	2023-07-03T00:00:00	2024-11-06T00:00:00	6	Velocidad del viento	9.7
12486	7	Sololá	701	Sololá	3	Barraneche	3	Marzo	2023-07-03T00:00:00	2024-11-06T00:00:00	7	Dirección del viento	9.66
12487	7	Sololá	701	Sololá	3	Barraneche	3	Marzo	2023-07-03T00:00:00	2024-11-06T00:00:00	1	Precipitación	0
12488	7	Sololá	701	Sololá	3	Barraneche	3	Marzo	2023-07-03T00:00:00	2024-11-06T00:00:00	8	Radiación solar	0
12489	7	Sololá	701	Sololá	3	Barraneche	3	Marzo	2023-07-03T00:00:00	2024-11-06T01:00:00	2	Temperatura media	8.2
12490	7	Sololá	701	Sololá	3	Barraneche	3	Marzo	2023-07-03T00:00:00	2024-11-06T01:00:00	4	Temperatura máxima	9
12491	7	Sololá	701	Sololá	3	Barraneche	3	Marzo	2023-07-03T00:00:00	2024-11-06T01:00:00	3	Temperatura mínima	7.6
12492	7	Sololá	701	Sololá	3	Barraneche	3	Marzo	2023-07-03T00:00:00	2024-11-06T01:00:00	5	Humedad	36
12493	7	Sololá	701	Sololá	3	Barraneche	3	Marzo	2023-07-03T00:00:00	2024-11-06T01:00:00	6	Velocidad del viento	6.4
12494	7	Sololá	701	Sololá	3	Barraneche	3	Marzo	2023-07-03T00:00:00	2024-11-06T01:00:00	7	Dirección del viento	6.44
12495	7	Sololá	701	Sololá	3	Barraneche	3	Marzo	2023-07-03T00:00:00	2024-11-06T01:00:00	1	Precipitación	0
12496	7	Sololá	701	Sololá	3	Barraneche	3	Marzo	2023-07-03T00:00:00	2024-11-06T01:00:00	8	Radiación solar	0
12497	7	Sololá	701	Sololá	3	Barraneche	3	Marzo	2023-07-03T00:00:00	2024-11-06T02:00:00	2	Temperatura media	8
12498	7	Sololá	701	Sololá	3	Barraneche	3	Marzo	2023-07-03T00:00:00	2024-11-06T02:00:00	4	Temperatura máxima	8.3
12499	7	Sololá	701	Sololá	3	Barraneche	3	Marzo	2023-07-03T00:00:00	2024-11-06T02:00:00	3	Temperatura mínima	7.7
12500	7	Sololá	701	Sololá	3	Barraneche	3	Marzo	2023-07-03T00:00:00	2024-11-06T02:00:00	5	Humedad	37
12501	7	Sololá	701	Sololá	3	Barraneche	3	Marzo	2023-07-03T00:00:00	2024-11-06T02:00:00	6	Velocidad del viento	9.7
12502	7	Sololá	701	Sololá	3	Barraneche	3	Marzo	2023-07-03T00:00:00	2024-11-06T02:00:00	7	Dirección del viento	9.66
12503	7	Sololá	701	Sololá	3	Barraneche	3	Marzo	2023-07-03T00:00:00	2024-11-06T02:00:00	1	Precipitación	0
12504	7	Sololá	701	Sololá	3	Barraneche	3	Marzo	2023-07-03T00:00:00	2024-11-06T02:00:00	8	Radiación solar	0
12505	7	Sololá	701	Sololá	3	Barraneche	3	Marzo	2023-07-03T00:00:00	2024-11-06T03:00:00	2	Temperatura media	7.3
12506	7	Sololá	701	Sololá	3	Barraneche	3	Marzo	2023-07-03T00:00:00	2024-11-06T03:00:00	4	Temperatura máxima	8
12507	7	Sololá	701	Sololá	3	Barraneche	3	Marzo	2023-07-03T00:00:00	2024-11-06T03:00:00	3	Temperatura mínima	7.2
12508	7	Sololá	701	Sololá	3	Barraneche	3	Marzo	2023-07-03T00:00:00	2024-11-06T03:00:00	5	Humedad	41
12509	7	Sololá	701	Sololá	3	Barraneche	3	Marzo	2023-07-03T00:00:00	2024-11-06T03:00:00	6	Velocidad del viento	9.7
12510	7	Sololá	701	Sololá	3	Barraneche	3	Marzo	2023-07-03T00:00:00	2024-11-06T03:00:00	7	Dirección del viento	9.66
12511	7	Sololá	701	Sololá	3	Barraneche	3	Marzo	2023-07-03T00:00:00	2024-11-06T03:00:00	1	Precipitación	0
12512	7	Sololá	701	Sololá	3	Barraneche	3	Marzo	2023-07-03T00:00:00	2024-11-06T03:00:00	8	Radiación solar	0
12513	7	Sololá	701	Sololá	3	Barraneche	3	Marzo	2023-07-03T00:00:00	2024-11-06T04:00:00	2	Temperatura media	7.2
12514	7	Sololá	701	Sololá	3	Barraneche	3	Marzo	2023-07-03T00:00:00	2024-11-06T04:00:00	4	Temperatura máxima	7.6
12515	7	Sololá	701	Sololá	3	Barraneche	3	Marzo	2023-07-03T00:00:00	2024-11-06T04:00:00	3	Temperatura mínima	6.9
12516	7	Sololá	701	Sololá	3	Barraneche	3	Marzo	2023-07-03T00:00:00	2024-11-06T04:00:00	5	Humedad	46
12517	7	Sololá	701	Sololá	3	Barraneche	3	Marzo	2023-07-03T00:00:00	2024-11-06T04:00:00	6	Velocidad del viento	8
12518	7	Sololá	701	Sololá	3	Barraneche	3	Marzo	2023-07-03T00:00:00	2024-11-06T04:00:00	7	Dirección del viento	8.05
12519	7	Sololá	701	Sololá	3	Barraneche	3	Marzo	2023-07-03T00:00:00	2024-11-06T04:00:00	1	Precipitación	0
12520	7	Sololá	701	Sololá	3	Barraneche	3	Marzo	2023-07-03T00:00:00	2024-11-06T04:00:00	8	Radiación solar	0
12521	7	Sololá	701	Sololá	3	Barraneche	3	Marzo	2023-07-03T00:00:00	2024-11-06T05:00:00	2	Temperatura media	8.9
12522	7	Sololá	701	Sololá	3	Barraneche	3	Marzo	2023-07-03T00:00:00	2024-11-06T05:00:00	4	Temperatura máxima	8.9
12523	7	Sololá	701	Sololá	3	Barraneche	3	Marzo	2023-07-03T00:00:00	2024-11-06T05:00:00	3	Temperatura mínima	7.2
12524	7	Sololá	701	Sololá	3	Barraneche	3	Marzo	2023-07-03T00:00:00	2024-11-06T05:00:00	5	Humedad	43
12525	7	Sololá	701	Sololá	3	Barraneche	3	Marzo	2023-07-03T00:00:00	2024-11-06T05:00:00	6	Velocidad del viento	8
12526	7	Sololá	701	Sololá	3	Barraneche	3	Marzo	2023-07-03T00:00:00	2024-11-06T05:00:00	7	Dirección del viento	8.05
12527	7	Sololá	701	Sololá	3	Barraneche	3	Marzo	2023-07-03T00:00:00	2024-11-06T05:00:00	1	Precipitación	0
12528	7	Sololá	701	Sololá	3	Barraneche	3	Marzo	2023-07-03T00:00:00	2024-11-06T05:00:00	8	Radiación solar	0
12529	7	Sololá	701	Sololá	3	Barraneche	3	Marzo	2023-07-03T00:00:00	2024-11-06T06:00:00	2	Temperatura media	8.6
12530	7	Sololá	701	Sololá	3	Barraneche	3	Marzo	2023-07-03T00:00:00	2024-11-06T06:00:00	4	Temperatura máxima	9
12531	7	Sololá	701	Sololá	3	Barraneche	3	Marzo	2023-07-03T00:00:00	2024-11-06T06:00:00	3	Temperatura mínima	8.5
12532	7	Sololá	701	Sololá	3	Barraneche	3	Marzo	2023-07-03T00:00:00	2024-11-06T06:00:00	5	Humedad	42
12533	7	Sololá	701	Sololá	3	Barraneche	3	Marzo	2023-07-03T00:00:00	2024-11-06T06:00:00	6	Velocidad del viento	6.4
12534	7	Sololá	701	Sololá	3	Barraneche	3	Marzo	2023-07-03T00:00:00	2024-11-06T06:00:00	7	Dirección del viento	6.44
12535	7	Sololá	701	Sololá	3	Barraneche	3	Marzo	2023-07-03T00:00:00	2024-11-06T06:00:00	1	Precipitación	0
12536	7	Sololá	701	Sololá	3	Barraneche	3	Marzo	2023-07-03T00:00:00	2024-11-06T06:00:00	8	Radiación solar	0
12537	7	Sololá	701	Sololá	3	Barraneche	3	Marzo	2023-07-03T00:00:00	2024-11-06T07:00:00	2	Temperatura media	10
12538	7	Sololá	701	Sololá	3	Barraneche	3	Marzo	2023-07-03T00:00:00	2024-11-06T07:00:00	4	Temperatura máxima	10
12539	7	Sololá	701	Sololá	3	Barraneche	3	Marzo	2023-07-03T00:00:00	2024-11-06T07:00:00	3	Temperatura mínima	8.4
12540	7	Sololá	701	Sololá	3	Barraneche	3	Marzo	2023-07-03T00:00:00	2024-11-06T07:00:00	5	Humedad	46
12541	7	Sololá	701	Sololá	3	Barraneche	3	Marzo	2023-07-03T00:00:00	2024-11-06T07:00:00	6	Velocidad del viento	9.7
12542	7	Sololá	701	Sololá	3	Barraneche	3	Marzo	2023-07-03T00:00:00	2024-11-06T07:00:00	7	Dirección del viento	9.66
12543	7	Sololá	701	Sololá	3	Barraneche	3	Marzo	2023-07-03T00:00:00	2024-11-06T07:00:00	1	Precipitación	0
12544	7	Sololá	701	Sololá	3	Barraneche	3	Marzo	2023-07-03T00:00:00	2024-11-06T07:00:00	8	Radiación solar	25
12545	7	Sololá	701	Sololá	3	Barraneche	3	Marzo	2023-07-03T00:00:00	2024-11-06T08:00:00	2	Temperatura media	12.1
12546	7	Sololá	701	Sololá	3	Barraneche	3	Marzo	2023-07-03T00:00:00	2024-11-06T08:00:00	4	Temperatura máxima	12.1
12547	7	Sololá	701	Sololá	3	Barraneche	3	Marzo	2023-07-03T00:00:00	2024-11-06T08:00:00	3	Temperatura mínima	10.1
12548	7	Sololá	701	Sololá	3	Barraneche	3	Marzo	2023-07-03T00:00:00	2024-11-06T08:00:00	5	Humedad	48
12549	7	Sololá	701	Sololá	3	Barraneche	3	Marzo	2023-07-03T00:00:00	2024-11-06T08:00:00	6	Velocidad del viento	4.8
12550	7	Sololá	701	Sololá	3	Barraneche	3	Marzo	2023-07-03T00:00:00	2024-11-06T08:00:00	7	Dirección del viento	4.83
12551	7	Sololá	701	Sololá	3	Barraneche	3	Marzo	2023-07-03T00:00:00	2024-11-06T08:00:00	1	Precipitación	0
12552	7	Sololá	701	Sololá	3	Barraneche	3	Marzo	2023-07-03T00:00:00	2024-11-06T08:00:00	8	Radiación solar	150
12553	7	Sololá	701	Sololá	3	Barraneche	3	Marzo	2023-07-03T00:00:00	2024-11-06T09:00:00	2	Temperatura media	14.1
12554	7	Sololá	701	Sololá	3	Barraneche	3	Marzo	2023-07-03T00:00:00	2024-11-06T09:00:00	4	Temperatura máxima	14.1
12555	7	Sololá	701	Sololá	3	Barraneche	3	Marzo	2023-07-03T00:00:00	2024-11-06T09:00:00	3	Temperatura mínima	12.1
12556	7	Sololá	701	Sololá	3	Barraneche	3	Marzo	2023-07-03T00:00:00	2024-11-06T09:00:00	5	Humedad	48
12557	7	Sololá	701	Sololá	3	Barraneche	3	Marzo	2023-07-03T00:00:00	2024-11-06T09:00:00	6	Velocidad del viento	1.6
12558	7	Sololá	701	Sololá	3	Barraneche	3	Marzo	2023-07-03T00:00:00	2024-11-06T09:00:00	7	Dirección del viento	1.61
12559	7	Sololá	701	Sololá	3	Barraneche	3	Marzo	2023-07-03T00:00:00	2024-11-06T09:00:00	1	Precipitación	0
12560	7	Sololá	701	Sololá	3	Barraneche	3	Marzo	2023-07-03T00:00:00	2024-11-06T09:00:00	8	Radiación solar	289
12561	7	Sololá	701	Sololá	3	Barraneche	3	Marzo	2023-07-03T00:00:00	2024-11-06T10:00:00	2	Temperatura media	16.2
12562	7	Sololá	701	Sololá	3	Barraneche	3	Marzo	2023-07-03T00:00:00	2024-11-06T10:00:00	4	Temperatura máxima	16.2
12563	7	Sololá	701	Sololá	3	Barraneche	3	Marzo	2023-07-03T00:00:00	2024-11-06T10:00:00	3	Temperatura mínima	14
12564	7	Sololá	701	Sololá	3	Barraneche	3	Marzo	2023-07-03T00:00:00	2024-11-06T10:00:00	5	Humedad	43
12565	7	Sololá	701	Sololá	3	Barraneche	3	Marzo	2023-07-03T00:00:00	2024-11-06T10:00:00	6	Velocidad del viento	4.8
12566	7	Sololá	701	Sololá	3	Barraneche	3	Marzo	2023-07-03T00:00:00	2024-11-06T10:00:00	7	Dirección del viento	4.83
12567	7	Sololá	701	Sololá	3	Barraneche	3	Marzo	2023-07-03T00:00:00	2024-11-06T10:00:00	1	Precipitación	0
12568	7	Sololá	701	Sololá	3	Barraneche	3	Marzo	2023-07-03T00:00:00	2024-11-06T10:00:00	8	Radiación solar	614
12569	7	Sololá	701	Sololá	3	Barraneche	3	Marzo	2023-07-03T00:00:00	2024-11-06T11:00:00	2	Temperatura media	16.6
12570	7	Sololá	701	Sololá	3	Barraneche	3	Marzo	2023-07-03T00:00:00	2024-11-06T11:00:00	4	Temperatura máxima	16.6
12571	7	Sololá	701	Sololá	3	Barraneche	3	Marzo	2023-07-03T00:00:00	2024-11-06T11:00:00	3	Temperatura mínima	15.7
12572	7	Sololá	701	Sololá	3	Barraneche	3	Marzo	2023-07-03T00:00:00	2024-11-06T11:00:00	5	Humedad	50
12573	7	Sololá	701	Sololá	3	Barraneche	3	Marzo	2023-07-03T00:00:00	2024-11-06T11:00:00	6	Velocidad del viento	9.7
12574	7	Sololá	701	Sololá	3	Barraneche	3	Marzo	2023-07-03T00:00:00	2024-11-06T11:00:00	7	Dirección del viento	9.66
12575	7	Sololá	701	Sololá	3	Barraneche	3	Marzo	2023-07-03T00:00:00	2024-11-06T11:00:00	1	Precipitación	0
12576	7	Sololá	701	Sololá	3	Barraneche	3	Marzo	2023-07-03T00:00:00	2024-11-06T11:00:00	8	Radiación solar	664
12577	7	Sololá	701	Sololá	3	Barraneche	3	Marzo	2023-07-03T00:00:00	2024-11-06T12:00:00	2	Temperatura media	16.8
12578	7	Sololá	701	Sololá	3	Barraneche	3	Marzo	2023-07-03T00:00:00	2024-11-06T12:00:00	4	Temperatura máxima	17.6
12579	7	Sololá	701	Sololá	3	Barraneche	3	Marzo	2023-07-03T00:00:00	2024-11-06T12:00:00	3	Temperatura mínima	16.6
12580	7	Sololá	701	Sololá	3	Barraneche	3	Marzo	2023-07-03T00:00:00	2024-11-06T12:00:00	5	Humedad	53
12581	7	Sololá	701	Sololá	3	Barraneche	3	Marzo	2023-07-03T00:00:00	2024-11-06T12:00:00	6	Velocidad del viento	14.5
12582	7	Sololá	701	Sololá	3	Barraneche	3	Marzo	2023-07-03T00:00:00	2024-11-06T12:00:00	7	Dirección del viento	14.48
12583	7	Sololá	701	Sololá	3	Barraneche	3	Marzo	2023-07-03T00:00:00	2024-11-06T12:00:00	1	Precipitación	0
12584	7	Sololá	701	Sololá	3	Barraneche	3	Marzo	2023-07-03T00:00:00	2024-11-06T12:00:00	8	Radiación solar	955
12585	7	Sololá	701	Sololá	3	Barraneche	3	Marzo	2023-07-03T00:00:00	2024-11-06T13:00:00	2	Temperatura media	16.9
12586	7	Sololá	701	Sololá	3	Barraneche	3	Marzo	2023-07-03T00:00:00	2024-11-06T13:00:00	4	Temperatura máxima	17.6
12587	7	Sololá	701	Sololá	3	Barraneche	3	Marzo	2023-07-03T00:00:00	2024-11-06T13:00:00	3	Temperatura mínima	16.2
12588	7	Sololá	701	Sololá	3	Barraneche	3	Marzo	2023-07-03T00:00:00	2024-11-06T13:00:00	5	Humedad	58
12589	7	Sololá	701	Sololá	3	Barraneche	3	Marzo	2023-07-03T00:00:00	2024-11-06T13:00:00	6	Velocidad del viento	9.7
12590	7	Sololá	701	Sololá	3	Barraneche	3	Marzo	2023-07-03T00:00:00	2024-11-06T13:00:00	7	Dirección del viento	9.66
12591	7	Sololá	701	Sololá	3	Barraneche	3	Marzo	2023-07-03T00:00:00	2024-11-06T13:00:00	1	Precipitación	0
12592	7	Sololá	701	Sololá	3	Barraneche	3	Marzo	2023-07-03T00:00:00	2024-11-06T13:00:00	8	Radiación solar	649
12593	7	Sololá	701	Sololá	3	Barraneche	3	Marzo	2023-07-03T00:00:00	2024-11-06T14:00:00	2	Temperatura media	16.6
12594	7	Sololá	701	Sololá	3	Barraneche	3	Marzo	2023-07-03T00:00:00	2024-11-06T14:00:00	4	Temperatura máxima	17.8
12595	7	Sololá	701	Sololá	3	Barraneche	3	Marzo	2023-07-03T00:00:00	2024-11-06T14:00:00	3	Temperatura mínima	16.6
12596	7	Sololá	701	Sololá	3	Barraneche	3	Marzo	2023-07-03T00:00:00	2024-11-06T14:00:00	5	Humedad	62
12597	7	Sololá	701	Sololá	3	Barraneche	3	Marzo	2023-07-03T00:00:00	2024-11-06T14:00:00	6	Velocidad del viento	12.9
12598	7	Sololá	701	Sololá	3	Barraneche	3	Marzo	2023-07-03T00:00:00	2024-11-06T14:00:00	7	Dirección del viento	12.87
12599	7	Sololá	701	Sololá	3	Barraneche	3	Marzo	2023-07-03T00:00:00	2024-11-06T14:00:00	1	Precipitación	0
12600	7	Sololá	701	Sololá	3	Barraneche	3	Marzo	2023-07-03T00:00:00	2024-11-06T14:00:00	8	Radiación solar	737
12601	7	Sololá	701	Sololá	3	Barraneche	3	Marzo	2023-07-03T00:00:00	2024-11-06T15:00:00	2	Temperatura media	16.7
12602	7	Sololá	701	Sololá	3	Barraneche	3	Marzo	2023-07-03T00:00:00	2024-11-06T15:00:00	4	Temperatura máxima	16.9
12603	7	Sololá	701	Sololá	3	Barraneche	3	Marzo	2023-07-03T00:00:00	2024-11-06T15:00:00	3	Temperatura mínima	16.3
12604	7	Sololá	701	Sololá	3	Barraneche	3	Marzo	2023-07-03T00:00:00	2024-11-06T15:00:00	5	Humedad	63
12605	7	Sololá	701	Sololá	3	Barraneche	3	Marzo	2023-07-03T00:00:00	2024-11-06T15:00:00	6	Velocidad del viento	12.9
12606	7	Sololá	701	Sololá	3	Barraneche	3	Marzo	2023-07-03T00:00:00	2024-11-06T15:00:00	7	Dirección del viento	12.87
12607	7	Sololá	701	Sololá	3	Barraneche	3	Marzo	2023-07-03T00:00:00	2024-11-06T15:00:00	1	Precipitación	0
12608	7	Sololá	701	Sololá	3	Barraneche	3	Marzo	2023-07-03T00:00:00	2024-11-06T15:00:00	8	Radiación solar	578
12609	7	Sololá	701	Sololá	3	Barraneche	3	Marzo	2023-07-03T00:00:00	2024-11-06T16:00:00	2	Temperatura media	14.8
12610	7	Sololá	701	Sololá	3	Barraneche	3	Marzo	2023-07-03T00:00:00	2024-11-06T16:00:00	4	Temperatura máxima	16.7
12611	7	Sololá	701	Sololá	3	Barraneche	3	Marzo	2023-07-03T00:00:00	2024-11-06T16:00:00	3	Temperatura mínima	14.8
12612	7	Sololá	701	Sololá	3	Barraneche	3	Marzo	2023-07-03T00:00:00	2024-11-06T16:00:00	5	Humedad	70
12613	7	Sololá	701	Sololá	3	Barraneche	3	Marzo	2023-07-03T00:00:00	2024-11-06T16:00:00	6	Velocidad del viento	11.3
12614	7	Sololá	701	Sololá	3	Barraneche	3	Marzo	2023-07-03T00:00:00	2024-11-06T16:00:00	7	Dirección del viento	11.27
12615	7	Sololá	701	Sololá	3	Barraneche	3	Marzo	2023-07-03T00:00:00	2024-11-06T16:00:00	1	Precipitación	0
12616	7	Sololá	701	Sololá	3	Barraneche	3	Marzo	2023-07-03T00:00:00	2024-11-06T16:00:00	8	Radiación solar	180
12617	7	Sololá	701	Sololá	3	Barraneche	3	Marzo	2023-07-03T00:00:00	2024-11-06T17:00:00	2	Temperatura media	14.6
12618	7	Sololá	701	Sololá	3	Barraneche	3	Marzo	2023-07-03T00:00:00	2024-11-06T17:00:00	4	Temperatura máxima	15.1
12619	7	Sololá	701	Sololá	3	Barraneche	3	Marzo	2023-07-03T00:00:00	2024-11-06T17:00:00	3	Temperatura mínima	14.5
12620	7	Sololá	701	Sololá	3	Barraneche	3	Marzo	2023-07-03T00:00:00	2024-11-06T17:00:00	5	Humedad	70
12621	7	Sololá	701	Sololá	3	Barraneche	3	Marzo	2023-07-03T00:00:00	2024-11-06T17:00:00	6	Velocidad del viento	6.4
12622	7	Sololá	701	Sololá	3	Barraneche	3	Marzo	2023-07-03T00:00:00	2024-11-06T17:00:00	7	Dirección del viento	6.44
12623	7	Sololá	701	Sololá	3	Barraneche	3	Marzo	2023-07-03T00:00:00	2024-11-06T17:00:00	1	Precipitación	0
12624	7	Sololá	701	Sololá	3	Barraneche	3	Marzo	2023-07-03T00:00:00	2024-11-06T17:00:00	8	Radiación solar	91
12625	7	Sololá	701	Sololá	3	Barraneche	3	Marzo	2023-07-03T00:00:00	2024-11-06T18:00:00	2	Temperatura media	14.1
12626	7	Sololá	701	Sololá	3	Barraneche	3	Marzo	2023-07-03T00:00:00	2024-11-06T18:00:00	4	Temperatura máxima	14.7
12627	7	Sololá	701	Sololá	3	Barraneche	3	Marzo	2023-07-03T00:00:00	2024-11-06T18:00:00	3	Temperatura mínima	14.1
12628	7	Sololá	701	Sololá	3	Barraneche	3	Marzo	2023-07-03T00:00:00	2024-11-06T18:00:00	5	Humedad	72
12629	7	Sololá	701	Sololá	3	Barraneche	3	Marzo	2023-07-03T00:00:00	2024-11-06T18:00:00	6	Velocidad del viento	8
12630	7	Sololá	701	Sololá	3	Barraneche	3	Marzo	2023-07-03T00:00:00	2024-11-06T18:00:00	7	Dirección del viento	8.05
12631	7	Sololá	701	Sololá	3	Barraneche	3	Marzo	2023-07-03T00:00:00	2024-11-06T18:00:00	1	Precipitación	0
12632	7	Sololá	701	Sololá	3	Barraneche	3	Marzo	2023-07-03T00:00:00	2024-11-06T18:00:00	8	Radiación solar	64
12633	7	Sololá	701	Sololá	3	Barraneche	3	Marzo	2023-07-03T00:00:00	2024-11-06T19:00:00	2	Temperatura media	13.8
12634	7	Sololá	701	Sololá	3	Barraneche	3	Marzo	2023-07-03T00:00:00	2024-11-06T19:00:00	4	Temperatura máxima	14.1
12635	7	Sololá	701	Sololá	3	Barraneche	3	Marzo	2023-07-03T00:00:00	2024-11-06T19:00:00	3	Temperatura mínima	13.8
12636	7	Sololá	701	Sololá	3	Barraneche	3	Marzo	2023-07-03T00:00:00	2024-11-06T19:00:00	5	Humedad	73
12637	7	Sololá	701	Sololá	3	Barraneche	3	Marzo	2023-07-03T00:00:00	2024-11-06T19:00:00	6	Velocidad del viento	3.2
12638	7	Sololá	701	Sololá	3	Barraneche	3	Marzo	2023-07-03T00:00:00	2024-11-06T19:00:00	7	Dirección del viento	3.22
12639	7	Sololá	701	Sololá	3	Barraneche	3	Marzo	2023-07-03T00:00:00	2024-11-06T19:00:00	1	Precipitación	0
12640	7	Sololá	701	Sololá	3	Barraneche	3	Marzo	2023-07-03T00:00:00	2024-11-06T19:00:00	8	Radiación solar	0
12641	7	Sololá	701	Sololá	3	Barraneche	3	Marzo	2023-07-03T00:00:00	2024-11-06T20:00:00	2	Temperatura media	13.6
12642	7	Sololá	701	Sololá	3	Barraneche	3	Marzo	2023-07-03T00:00:00	2024-11-06T20:00:00	4	Temperatura máxima	13.8
12643	7	Sololá	701	Sololá	3	Barraneche	3	Marzo	2023-07-03T00:00:00	2024-11-06T20:00:00	3	Temperatura mínima	13.1
12644	7	Sololá	701	Sololá	3	Barraneche	3	Marzo	2023-07-03T00:00:00	2024-11-06T20:00:00	5	Humedad	63
12645	7	Sololá	701	Sololá	3	Barraneche	3	Marzo	2023-07-03T00:00:00	2024-11-06T20:00:00	6	Velocidad del viento	3.2
12646	7	Sololá	701	Sololá	3	Barraneche	3	Marzo	2023-07-03T00:00:00	2024-11-06T20:00:00	7	Dirección del viento	3.22
12647	7	Sololá	701	Sololá	3	Barraneche	3	Marzo	2023-07-03T00:00:00	2024-11-06T20:00:00	1	Precipitación	0
12648	7	Sololá	701	Sololá	3	Barraneche	3	Marzo	2023-07-03T00:00:00	2024-11-06T20:00:00	8	Radiación solar	0
12649	7	Sololá	701	Sololá	3	Barraneche	3	Marzo	2023-07-03T00:00:00	2024-11-06T21:00:00	2	Temperatura media	13.3
12650	7	Sololá	701	Sololá	3	Barraneche	3	Marzo	2023-07-03T00:00:00	2024-11-06T21:00:00	4	Temperatura máxima	13.6
12651	7	Sololá	701	Sololá	3	Barraneche	3	Marzo	2023-07-03T00:00:00	2024-11-06T21:00:00	3	Temperatura mínima	13.3
12652	7	Sololá	701	Sololá	3	Barraneche	3	Marzo	2023-07-03T00:00:00	2024-11-06T21:00:00	5	Humedad	64
12653	7	Sololá	701	Sololá	3	Barraneche	3	Marzo	2023-07-03T00:00:00	2024-11-06T21:00:00	6	Velocidad del viento	9.7
12654	7	Sololá	701	Sololá	3	Barraneche	3	Marzo	2023-07-03T00:00:00	2024-11-06T21:00:00	7	Dirección del viento	9.66
12655	7	Sololá	701	Sololá	3	Barraneche	3	Marzo	2023-07-03T00:00:00	2024-11-06T21:00:00	1	Precipitación	0
12656	7	Sololá	701	Sololá	3	Barraneche	3	Marzo	2023-07-03T00:00:00	2024-11-06T21:00:00	8	Radiación solar	0
12657	7	Sololá	701	Sololá	3	Barraneche	3	Marzo	2023-07-03T00:00:00	2024-11-06T22:00:00	2	Temperatura media	13.2
12658	7	Sololá	701	Sololá	3	Barraneche	3	Marzo	2023-07-03T00:00:00	2024-11-06T22:00:00	4	Temperatura máxima	13.3
12659	7	Sololá	701	Sololá	3	Barraneche	3	Marzo	2023-07-03T00:00:00	2024-11-06T22:00:00	3	Temperatura mínima	12.9
12660	7	Sololá	701	Sololá	3	Barraneche	3	Marzo	2023-07-03T00:00:00	2024-11-06T22:00:00	5	Humedad	63
12661	7	Sololá	701	Sololá	3	Barraneche	3	Marzo	2023-07-03T00:00:00	2024-11-06T22:00:00	6	Velocidad del viento	4.8
12662	7	Sololá	701	Sololá	3	Barraneche	3	Marzo	2023-07-03T00:00:00	2024-11-06T22:00:00	7	Dirección del viento	4.83
12663	7	Sololá	701	Sololá	3	Barraneche	3	Marzo	2023-07-03T00:00:00	2024-11-06T22:00:00	1	Precipitación	0
12664	7	Sololá	701	Sololá	3	Barraneche	3	Marzo	2023-07-03T00:00:00	2024-11-06T22:00:00	8	Radiación solar	0
12665	7	Sololá	701	Sololá	3	Barraneche	3	Marzo	2023-07-03T00:00:00	2024-11-06T23:00:00	2	Temperatura media	11.1
12666	7	Sololá	701	Sololá	3	Barraneche	3	Marzo	2023-07-03T00:00:00	2024-11-06T23:00:00	4	Temperatura máxima	13.2
12667	7	Sololá	701	Sololá	3	Barraneche	3	Marzo	2023-07-03T00:00:00	2024-11-06T23:00:00	3	Temperatura mínima	11.1
12668	7	Sololá	701	Sololá	3	Barraneche	3	Marzo	2023-07-03T00:00:00	2024-11-06T23:00:00	5	Humedad	68
12669	7	Sololá	701	Sololá	3	Barraneche	3	Marzo	2023-07-03T00:00:00	2024-11-06T23:00:00	6	Velocidad del viento	3.2
12670	7	Sololá	701	Sololá	3	Barraneche	3	Marzo	2023-07-03T00:00:00	2024-11-06T23:00:00	7	Dirección del viento	3.22
12671	7	Sololá	701	Sololá	3	Barraneche	3	Marzo	2023-07-03T00:00:00	2024-11-06T23:00:00	1	Precipitación	0
12672	7	Sololá	701	Sololá	3	Barraneche	3	Marzo	2023-07-03T00:00:00	2024-11-06T23:00:00	8	Radiación solar	0
12673	7	Sololá	701	Sololá	3	Barraneche	3	Marzo	2023-08-03T00:00:00	2024-11-06T00:00:00	2	Temperatura media	10.5
12674	7	Sololá	701	Sololá	3	Barraneche	3	Marzo	2023-08-03T00:00:00	2024-11-06T00:00:00	4	Temperatura máxima	11.2
12675	7	Sololá	701	Sololá	3	Barraneche	3	Marzo	2023-08-03T00:00:00	2024-11-06T00:00:00	3	Temperatura mínima	10.5
12676	7	Sololá	701	Sololá	3	Barraneche	3	Marzo	2023-08-03T00:00:00	2024-11-06T00:00:00	5	Humedad	67
12677	7	Sololá	701	Sololá	3	Barraneche	3	Marzo	2023-08-03T00:00:00	2024-11-06T00:00:00	6	Velocidad del viento	4.8
12678	7	Sololá	701	Sololá	3	Barraneche	3	Marzo	2023-08-03T00:00:00	2024-11-06T00:00:00	7	Dirección del viento	4.83
12679	7	Sololá	701	Sololá	3	Barraneche	3	Marzo	2023-08-03T00:00:00	2024-11-06T00:00:00	1	Precipitación	0
12680	7	Sololá	701	Sololá	3	Barraneche	3	Marzo	2023-08-03T00:00:00	2024-11-06T00:00:00	8	Radiación solar	0
12681	7	Sololá	701	Sololá	3	Barraneche	3	Marzo	2023-08-03T00:00:00	2024-11-06T01:00:00	2	Temperatura media	9.9
12682	7	Sololá	701	Sololá	3	Barraneche	3	Marzo	2023-08-03T00:00:00	2024-11-06T01:00:00	4	Temperatura máxima	10.5
12683	7	Sololá	701	Sololá	3	Barraneche	3	Marzo	2023-08-03T00:00:00	2024-11-06T01:00:00	3	Temperatura mínima	9.8
12684	7	Sololá	701	Sololá	3	Barraneche	3	Marzo	2023-08-03T00:00:00	2024-11-06T01:00:00	5	Humedad	62
12685	7	Sololá	701	Sololá	3	Barraneche	3	Marzo	2023-08-03T00:00:00	2024-11-06T01:00:00	6	Velocidad del viento	4.8
12686	7	Sololá	701	Sololá	3	Barraneche	3	Marzo	2023-08-03T00:00:00	2024-11-06T01:00:00	7	Dirección del viento	4.83
12687	7	Sololá	701	Sololá	3	Barraneche	3	Marzo	2023-08-03T00:00:00	2024-11-06T01:00:00	1	Precipitación	0
12688	7	Sololá	701	Sololá	3	Barraneche	3	Marzo	2023-08-03T00:00:00	2024-11-06T01:00:00	8	Radiación solar	0
12689	7	Sololá	701	Sololá	3	Barraneche	3	Marzo	2023-08-03T00:00:00	2024-11-06T02:00:00	2	Temperatura media	10.9
12690	7	Sololá	701	Sololá	3	Barraneche	3	Marzo	2023-08-03T00:00:00	2024-11-06T02:00:00	4	Temperatura máxima	11
12691	7	Sololá	701	Sololá	3	Barraneche	3	Marzo	2023-08-03T00:00:00	2024-11-06T02:00:00	3	Temperatura mínima	9.9
12692	7	Sololá	701	Sololá	3	Barraneche	3	Marzo	2023-08-03T00:00:00	2024-11-06T02:00:00	5	Humedad	64
12693	7	Sololá	701	Sololá	3	Barraneche	3	Marzo	2023-08-03T00:00:00	2024-11-06T02:00:00	6	Velocidad del viento	6.4
12694	7	Sololá	701	Sololá	3	Barraneche	3	Marzo	2023-08-03T00:00:00	2024-11-06T02:00:00	7	Dirección del viento	6.44
12695	7	Sololá	701	Sololá	3	Barraneche	3	Marzo	2023-08-03T00:00:00	2024-11-06T02:00:00	1	Precipitación	0
12696	7	Sololá	701	Sololá	3	Barraneche	3	Marzo	2023-08-03T00:00:00	2024-11-06T02:00:00	8	Radiación solar	0
12697	7	Sololá	701	Sololá	3	Barraneche	3	Marzo	2023-08-03T00:00:00	2024-11-06T03:00:00	2	Temperatura media	9.6
12698	7	Sololá	701	Sololá	3	Barraneche	3	Marzo	2023-08-03T00:00:00	2024-11-06T03:00:00	4	Temperatura máxima	10.9
12699	7	Sololá	701	Sololá	3	Barraneche	3	Marzo	2023-08-03T00:00:00	2024-11-06T03:00:00	3	Temperatura mínima	9.6
12700	7	Sololá	701	Sololá	3	Barraneche	3	Marzo	2023-08-03T00:00:00	2024-11-06T03:00:00	5	Humedad	66
12701	7	Sololá	701	Sololá	3	Barraneche	3	Marzo	2023-08-03T00:00:00	2024-11-06T03:00:00	6	Velocidad del viento	4.8
12702	7	Sololá	701	Sololá	3	Barraneche	3	Marzo	2023-08-03T00:00:00	2024-11-06T03:00:00	7	Dirección del viento	4.83
12703	7	Sololá	701	Sololá	3	Barraneche	3	Marzo	2023-08-03T00:00:00	2024-11-06T03:00:00	1	Precipitación	0
12704	7	Sololá	701	Sololá	3	Barraneche	3	Marzo	2023-08-03T00:00:00	2024-11-06T03:00:00	8	Radiación solar	0
12705	7	Sololá	701	Sololá	3	Barraneche	3	Marzo	2023-08-03T00:00:00	2024-11-06T04:00:00	2	Temperatura media	8.9
12706	7	Sololá	701	Sololá	3	Barraneche	3	Marzo	2023-08-03T00:00:00	2024-11-06T04:00:00	4	Temperatura máxima	9.6
12707	7	Sololá	701	Sololá	3	Barraneche	3	Marzo	2023-08-03T00:00:00	2024-11-06T04:00:00	3	Temperatura mínima	8.7
12708	7	Sololá	701	Sololá	3	Barraneche	3	Marzo	2023-08-03T00:00:00	2024-11-06T04:00:00	5	Humedad	64
12709	7	Sololá	701	Sololá	3	Barraneche	3	Marzo	2023-08-03T00:00:00	2024-11-06T04:00:00	6	Velocidad del viento	8
12710	7	Sololá	701	Sololá	3	Barraneche	3	Marzo	2023-08-03T00:00:00	2024-11-06T04:00:00	7	Dirección del viento	8.05
12711	7	Sololá	701	Sololá	3	Barraneche	3	Marzo	2023-08-03T00:00:00	2024-11-06T04:00:00	1	Precipitación	0
12712	7	Sololá	701	Sololá	3	Barraneche	3	Marzo	2023-08-03T00:00:00	2024-11-06T04:00:00	8	Radiación solar	0
12713	7	Sololá	701	Sololá	3	Barraneche	3	Marzo	2023-08-03T00:00:00	2024-11-06T05:00:00	2	Temperatura media	8.9
12714	7	Sololá	701	Sololá	3	Barraneche	3	Marzo	2023-08-03T00:00:00	2024-11-06T05:00:00	4	Temperatura máxima	9.2
12715	7	Sololá	701	Sololá	3	Barraneche	3	Marzo	2023-08-03T00:00:00	2024-11-06T05:00:00	3	Temperatura mínima	8.6
12716	7	Sololá	701	Sololá	3	Barraneche	3	Marzo	2023-08-03T00:00:00	2024-11-06T05:00:00	5	Humedad	62
12717	7	Sololá	701	Sololá	3	Barraneche	3	Marzo	2023-08-03T00:00:00	2024-11-06T05:00:00	6	Velocidad del viento	8
12718	7	Sololá	701	Sololá	3	Barraneche	3	Marzo	2023-08-03T00:00:00	2024-11-06T05:00:00	7	Dirección del viento	8.05
12719	7	Sololá	701	Sololá	3	Barraneche	3	Marzo	2023-08-03T00:00:00	2024-11-06T05:00:00	1	Precipitación	0
12720	7	Sololá	701	Sololá	3	Barraneche	3	Marzo	2023-08-03T00:00:00	2024-11-06T05:00:00	8	Radiación solar	0
12721	7	Sololá	701	Sololá	3	Barraneche	3	Marzo	2023-08-03T00:00:00	2024-11-06T06:00:00	2	Temperatura media	8.8
12722	7	Sololá	701	Sololá	3	Barraneche	3	Marzo	2023-08-03T00:00:00	2024-11-06T06:00:00	4	Temperatura máxima	8.9
12723	7	Sololá	701	Sololá	3	Barraneche	3	Marzo	2023-08-03T00:00:00	2024-11-06T06:00:00	3	Temperatura mínima	8.3
12724	7	Sololá	701	Sololá	3	Barraneche	3	Marzo	2023-08-03T00:00:00	2024-11-06T06:00:00	5	Humedad	63
12725	7	Sololá	701	Sololá	3	Barraneche	3	Marzo	2023-08-03T00:00:00	2024-11-06T06:00:00	6	Velocidad del viento	8
12726	7	Sololá	701	Sololá	3	Barraneche	3	Marzo	2023-08-03T00:00:00	2024-11-06T06:00:00	7	Dirección del viento	8.05
12727	7	Sololá	701	Sololá	3	Barraneche	3	Marzo	2023-08-03T00:00:00	2024-11-06T06:00:00	1	Precipitación	0
12728	7	Sololá	701	Sololá	3	Barraneche	3	Marzo	2023-08-03T00:00:00	2024-11-06T06:00:00	8	Radiación solar	0
12729	7	Sololá	701	Sololá	3	Barraneche	3	Marzo	2023-08-03T00:00:00	2024-11-06T07:00:00	2	Temperatura media	8.6
12730	7	Sololá	701	Sololá	3	Barraneche	3	Marzo	2023-08-03T00:00:00	2024-11-06T07:00:00	4	Temperatura máxima	8.9
12731	7	Sololá	701	Sololá	3	Barraneche	3	Marzo	2023-08-03T00:00:00	2024-11-06T07:00:00	3	Temperatura mínima	8.5
12732	7	Sololá	701	Sololá	3	Barraneche	3	Marzo	2023-08-03T00:00:00	2024-11-06T07:00:00	5	Humedad	66
12733	7	Sololá	701	Sololá	3	Barraneche	3	Marzo	2023-08-03T00:00:00	2024-11-06T07:00:00	6	Velocidad del viento	6.4
12734	7	Sololá	701	Sololá	3	Barraneche	3	Marzo	2023-08-03T00:00:00	2024-11-06T07:00:00	7	Dirección del viento	6.44
12735	7	Sololá	701	Sololá	3	Barraneche	3	Marzo	2023-08-03T00:00:00	2024-11-06T07:00:00	1	Precipitación	0
12736	7	Sololá	701	Sololá	3	Barraneche	3	Marzo	2023-08-03T00:00:00	2024-11-06T07:00:00	8	Radiación solar	13
12737	7	Sololá	701	Sololá	3	Barraneche	3	Marzo	2023-08-03T00:00:00	2024-11-06T08:00:00	2	Temperatura media	12.7
12738	7	Sololá	701	Sololá	3	Barraneche	3	Marzo	2023-08-03T00:00:00	2024-11-06T08:00:00	4	Temperatura máxima	12.7
12739	7	Sololá	701	Sololá	3	Barraneche	3	Marzo	2023-08-03T00:00:00	2024-11-06T08:00:00	3	Temperatura mínima	8.4
12740	7	Sololá	701	Sololá	3	Barraneche	3	Marzo	2023-08-03T00:00:00	2024-11-06T08:00:00	5	Humedad	59
12741	7	Sololá	701	Sololá	3	Barraneche	3	Marzo	2023-08-03T00:00:00	2024-11-06T08:00:00	6	Velocidad del viento	3.2
12742	7	Sololá	701	Sololá	3	Barraneche	3	Marzo	2023-08-03T00:00:00	2024-11-06T08:00:00	7	Dirección del viento	3.22
12743	7	Sololá	701	Sololá	3	Barraneche	3	Marzo	2023-08-03T00:00:00	2024-11-06T08:00:00	1	Precipitación	0
12744	7	Sololá	701	Sololá	3	Barraneche	3	Marzo	2023-08-03T00:00:00	2024-11-06T08:00:00	8	Radiación solar	212
12745	7	Sololá	701	Sololá	3	Barraneche	3	Marzo	2023-08-03T00:00:00	2024-11-06T09:00:00	2	Temperatura media	14.3
12746	7	Sololá	701	Sololá	3	Barraneche	3	Marzo	2023-08-03T00:00:00	2024-11-06T09:00:00	4	Temperatura máxima	14.5
12747	7	Sololá	701	Sololá	3	Barraneche	3	Marzo	2023-08-03T00:00:00	2024-11-06T09:00:00	3	Temperatura mínima	12.7
12748	7	Sololá	701	Sololá	3	Barraneche	3	Marzo	2023-08-03T00:00:00	2024-11-06T09:00:00	5	Humedad	61
12749	7	Sololá	701	Sololá	3	Barraneche	3	Marzo	2023-08-03T00:00:00	2024-11-06T09:00:00	6	Velocidad del viento	6.4
12750	7	Sololá	701	Sololá	3	Barraneche	3	Marzo	2023-08-03T00:00:00	2024-11-06T09:00:00	7	Dirección del viento	6.44
12751	7	Sololá	701	Sololá	3	Barraneche	3	Marzo	2023-08-03T00:00:00	2024-11-06T09:00:00	1	Precipitación	0
12752	7	Sololá	701	Sololá	3	Barraneche	3	Marzo	2023-08-03T00:00:00	2024-11-06T09:00:00	8	Radiación solar	449
12753	7	Sololá	701	Sololá	3	Barraneche	3	Marzo	2023-08-03T00:00:00	2024-11-06T10:00:00	2	Temperatura media	15.7
12754	7	Sololá	701	Sololá	3	Barraneche	3	Marzo	2023-08-03T00:00:00	2024-11-06T10:00:00	4	Temperatura máxima	15.7
12755	7	Sololá	701	Sololá	3	Barraneche	3	Marzo	2023-08-03T00:00:00	2024-11-06T10:00:00	3	Temperatura mínima	14.3
12756	7	Sololá	701	Sololá	3	Barraneche	3	Marzo	2023-08-03T00:00:00	2024-11-06T10:00:00	5	Humedad	58
12757	7	Sololá	701	Sololá	3	Barraneche	3	Marzo	2023-08-03T00:00:00	2024-11-06T10:00:00	6	Velocidad del viento	8
12758	7	Sololá	701	Sololá	3	Barraneche	3	Marzo	2023-08-03T00:00:00	2024-11-06T10:00:00	7	Dirección del viento	8.05
12759	7	Sololá	701	Sololá	3	Barraneche	3	Marzo	2023-08-03T00:00:00	2024-11-06T10:00:00	1	Precipitación	0
12760	7	Sololá	701	Sololá	3	Barraneche	3	Marzo	2023-08-03T00:00:00	2024-11-06T10:00:00	8	Radiación solar	723
12761	7	Sololá	701	Sololá	3	Barraneche	3	Marzo	2023-08-03T00:00:00	2024-11-06T11:00:00	2	Temperatura media	15.3
12762	7	Sololá	701	Sololá	3	Barraneche	3	Marzo	2023-08-03T00:00:00	2024-11-06T11:00:00	4	Temperatura máxima	15.8
12763	7	Sololá	701	Sololá	3	Barraneche	3	Marzo	2023-08-03T00:00:00	2024-11-06T11:00:00	3	Temperatura mínima	15.1
12764	7	Sololá	701	Sololá	3	Barraneche	3	Marzo	2023-08-03T00:00:00	2024-11-06T11:00:00	5	Humedad	63
12765	7	Sololá	701	Sololá	3	Barraneche	3	Marzo	2023-08-03T00:00:00	2024-11-06T11:00:00	6	Velocidad del viento	11.3
12766	7	Sololá	701	Sololá	3	Barraneche	3	Marzo	2023-08-03T00:00:00	2024-11-06T11:00:00	7	Dirección del viento	11.27
12767	7	Sololá	701	Sololá	3	Barraneche	3	Marzo	2023-08-03T00:00:00	2024-11-06T11:00:00	1	Precipitación	0
12768	7	Sololá	701	Sololá	3	Barraneche	3	Marzo	2023-08-03T00:00:00	2024-11-06T11:00:00	8	Radiación solar	409
12769	7	Sololá	701	Sololá	3	Barraneche	3	Marzo	2023-08-03T00:00:00	2024-11-06T12:00:00	2	Temperatura media	15.7
12770	7	Sololá	701	Sololá	3	Barraneche	3	Marzo	2023-08-03T00:00:00	2024-11-06T12:00:00	4	Temperatura máxima	15.9
12771	7	Sololá	701	Sololá	3	Barraneche	3	Marzo	2023-08-03T00:00:00	2024-11-06T12:00:00	3	Temperatura mínima	14.9
12772	7	Sololá	701	Sololá	3	Barraneche	3	Marzo	2023-08-03T00:00:00	2024-11-06T12:00:00	5	Humedad	60
12773	7	Sololá	701	Sololá	3	Barraneche	3	Marzo	2023-08-03T00:00:00	2024-11-06T12:00:00	6	Velocidad del viento	11.3
12774	7	Sololá	701	Sololá	3	Barraneche	3	Marzo	2023-08-03T00:00:00	2024-11-06T12:00:00	7	Dirección del viento	11.27
12775	7	Sololá	701	Sololá	3	Barraneche	3	Marzo	2023-08-03T00:00:00	2024-11-06T12:00:00	1	Precipitación	0
12776	7	Sololá	701	Sololá	3	Barraneche	3	Marzo	2023-08-03T00:00:00	2024-11-06T12:00:00	8	Radiación solar	396
12777	7	Sololá	701	Sololá	3	Barraneche	3	Marzo	2023-08-03T00:00:00	2024-11-06T13:00:00	2	Temperatura media	15.8
12778	7	Sololá	701	Sololá	3	Barraneche	3	Marzo	2023-08-03T00:00:00	2024-11-06T13:00:00	4	Temperatura máxima	16.2
12779	7	Sololá	701	Sololá	3	Barraneche	3	Marzo	2023-08-03T00:00:00	2024-11-06T13:00:00	3	Temperatura mínima	15.6
12780	7	Sololá	701	Sololá	3	Barraneche	3	Marzo	2023-08-03T00:00:00	2024-11-06T13:00:00	5	Humedad	63
12781	7	Sololá	701	Sololá	3	Barraneche	3	Marzo	2023-08-03T00:00:00	2024-11-06T13:00:00	6	Velocidad del viento	12.9
12782	7	Sololá	701	Sololá	3	Barraneche	3	Marzo	2023-08-03T00:00:00	2024-11-06T13:00:00	7	Dirección del viento	12.87
12783	7	Sololá	701	Sololá	3	Barraneche	3	Marzo	2023-08-03T00:00:00	2024-11-06T13:00:00	1	Precipitación	0
12784	7	Sololá	701	Sololá	3	Barraneche	3	Marzo	2023-08-03T00:00:00	2024-11-06T13:00:00	8	Radiación solar	376
12785	7	Sololá	701	Sololá	3	Barraneche	3	Marzo	2023-08-03T00:00:00	2024-11-06T14:00:00	2	Temperatura media	14.8
12786	7	Sololá	701	Sololá	3	Barraneche	3	Marzo	2023-08-03T00:00:00	2024-11-06T14:00:00	4	Temperatura máxima	15.8
12787	7	Sololá	701	Sololá	3	Barraneche	3	Marzo	2023-08-03T00:00:00	2024-11-06T14:00:00	3	Temperatura mínima	14.8
12788	7	Sololá	701	Sololá	3	Barraneche	3	Marzo	2023-08-03T00:00:00	2024-11-06T14:00:00	5	Humedad	68
12789	7	Sololá	701	Sololá	3	Barraneche	3	Marzo	2023-08-03T00:00:00	2024-11-06T14:00:00	6	Velocidad del viento	12.9
12790	7	Sololá	701	Sololá	3	Barraneche	3	Marzo	2023-08-03T00:00:00	2024-11-06T14:00:00	7	Dirección del viento	12.87
12791	7	Sololá	701	Sololá	3	Barraneche	3	Marzo	2023-08-03T00:00:00	2024-11-06T14:00:00	1	Precipitación	0
12792	7	Sololá	701	Sololá	3	Barraneche	3	Marzo	2023-08-03T00:00:00	2024-11-06T14:00:00	8	Radiación solar	331
12793	7	Sololá	701	Sololá	3	Barraneche	3	Marzo	2023-08-03T00:00:00	2024-11-06T15:00:00	2	Temperatura media	14.4
12794	7	Sololá	701	Sololá	3	Barraneche	3	Marzo	2023-08-03T00:00:00	2024-11-06T15:00:00	4	Temperatura máxima	14.9
12795	7	Sololá	701	Sololá	3	Barraneche	3	Marzo	2023-08-03T00:00:00	2024-11-06T15:00:00	3	Temperatura mínima	14.3
12796	7	Sololá	701	Sololá	3	Barraneche	3	Marzo	2023-08-03T00:00:00	2024-11-06T15:00:00	5	Humedad	69
12797	7	Sololá	701	Sololá	3	Barraneche	3	Marzo	2023-08-03T00:00:00	2024-11-06T15:00:00	6	Velocidad del viento	11.3
12798	7	Sololá	701	Sololá	3	Barraneche	3	Marzo	2023-08-03T00:00:00	2024-11-06T15:00:00	7	Dirección del viento	11.27
12799	7	Sololá	701	Sololá	3	Barraneche	3	Marzo	2023-08-03T00:00:00	2024-11-06T15:00:00	1	Precipitación	0
12800	7	Sololá	701	Sololá	3	Barraneche	3	Marzo	2023-08-03T00:00:00	2024-11-06T15:00:00	8	Radiación solar	238
12801	7	Sololá	701	Sololá	3	Barraneche	3	Marzo	2023-08-03T00:00:00	2024-11-06T16:00:00	2	Temperatura media	14.8
12802	7	Sololá	701	Sololá	3	Barraneche	3	Marzo	2023-08-03T00:00:00	2024-11-06T16:00:00	4	Temperatura máxima	15.1
12803	7	Sololá	701	Sololá	3	Barraneche	3	Marzo	2023-08-03T00:00:00	2024-11-06T16:00:00	3	Temperatura mínima	14.2
12804	7	Sololá	701	Sololá	3	Barraneche	3	Marzo	2023-08-03T00:00:00	2024-11-06T16:00:00	5	Humedad	67
12805	7	Sololá	701	Sololá	3	Barraneche	3	Marzo	2023-08-03T00:00:00	2024-11-06T16:00:00	6	Velocidad del viento	9.7
12806	7	Sololá	701	Sololá	3	Barraneche	3	Marzo	2023-08-03T00:00:00	2024-11-06T16:00:00	7	Dirección del viento	9.66
12807	7	Sololá	701	Sololá	3	Barraneche	3	Marzo	2023-08-03T00:00:00	2024-11-06T16:00:00	1	Precipitación	0
12808	7	Sololá	701	Sololá	3	Barraneche	3	Marzo	2023-08-03T00:00:00	2024-11-06T16:00:00	8	Radiación solar	295
12809	7	Sololá	701	Sololá	3	Barraneche	3	Marzo	2023-08-03T00:00:00	2024-11-06T17:00:00	2	Temperatura media	13.8
12810	7	Sololá	701	Sololá	3	Barraneche	3	Marzo	2023-08-03T00:00:00	2024-11-06T17:00:00	4	Temperatura máxima	14.8
12811	7	Sololá	701	Sololá	3	Barraneche	3	Marzo	2023-08-03T00:00:00	2024-11-06T17:00:00	3	Temperatura mínima	13.7
12812	7	Sololá	701	Sololá	3	Barraneche	3	Marzo	2023-08-03T00:00:00	2024-11-06T17:00:00	5	Humedad	71
12813	7	Sololá	701	Sololá	3	Barraneche	3	Marzo	2023-08-03T00:00:00	2024-11-06T17:00:00	6	Velocidad del viento	6.4
12814	7	Sololá	701	Sololá	3	Barraneche	3	Marzo	2023-08-03T00:00:00	2024-11-06T17:00:00	7	Dirección del viento	6.44
12815	7	Sololá	701	Sololá	3	Barraneche	3	Marzo	2023-08-03T00:00:00	2024-11-06T17:00:00	1	Precipitación	0
12816	7	Sololá	701	Sololá	3	Barraneche	3	Marzo	2023-08-03T00:00:00	2024-11-06T17:00:00	8	Radiación solar	83
12817	7	Sololá	701	Sololá	3	Barraneche	3	Marzo	2023-08-03T00:00:00	2024-11-06T18:00:00	2	Temperatura media	13.5
12818	7	Sololá	701	Sololá	3	Barraneche	3	Marzo	2023-08-03T00:00:00	2024-11-06T18:00:00	4	Temperatura máxima	13.8
12819	7	Sololá	701	Sololá	3	Barraneche	3	Marzo	2023-08-03T00:00:00	2024-11-06T18:00:00	3	Temperatura mínima	13.5
12820	7	Sololá	701	Sololá	3	Barraneche	3	Marzo	2023-08-03T00:00:00	2024-11-06T18:00:00	5	Humedad	72
12821	7	Sololá	701	Sololá	3	Barraneche	3	Marzo	2023-08-03T00:00:00	2024-11-06T18:00:00	6	Velocidad del viento	4.8
12822	7	Sololá	701	Sololá	3	Barraneche	3	Marzo	2023-08-03T00:00:00	2024-11-06T18:00:00	7	Dirección del viento	4.83
12823	7	Sololá	701	Sololá	3	Barraneche	3	Marzo	2023-08-03T00:00:00	2024-11-06T18:00:00	1	Precipitación	0
12824	7	Sololá	701	Sololá	3	Barraneche	3	Marzo	2023-08-03T00:00:00	2024-11-06T18:00:00	8	Radiación solar	54
12825	7	Sololá	701	Sololá	3	Barraneche	3	Marzo	2023-08-03T00:00:00	2024-11-06T19:00:00	2	Temperatura media	12.8
12826	7	Sololá	701	Sololá	3	Barraneche	3	Marzo	2023-08-03T00:00:00	2024-11-06T19:00:00	4	Temperatura máxima	13.6
12827	7	Sololá	701	Sololá	3	Barraneche	3	Marzo	2023-08-03T00:00:00	2024-11-06T19:00:00	3	Temperatura mínima	12.8
12828	7	Sololá	701	Sololá	3	Barraneche	3	Marzo	2023-08-03T00:00:00	2024-11-06T19:00:00	5	Humedad	75
12829	7	Sololá	701	Sololá	3	Barraneche	3	Marzo	2023-08-03T00:00:00	2024-11-06T19:00:00	6	Velocidad del viento	3.2
12830	7	Sololá	701	Sololá	3	Barraneche	3	Marzo	2023-08-03T00:00:00	2024-11-06T19:00:00	7	Dirección del viento	3.22
12831	7	Sololá	701	Sololá	3	Barraneche	3	Marzo	2023-08-03T00:00:00	2024-11-06T19:00:00	1	Precipitación	0
12832	7	Sololá	701	Sololá	3	Barraneche	3	Marzo	2023-08-03T00:00:00	2024-11-06T19:00:00	8	Radiación solar	0
12833	7	Sololá	701	Sololá	3	Barraneche	3	Marzo	2023-08-03T00:00:00	2024-11-06T20:00:00	2	Temperatura media	11
12834	7	Sololá	701	Sololá	3	Barraneche	3	Marzo	2023-08-03T00:00:00	2024-11-06T20:00:00	4	Temperatura máxima	12.8
12835	7	Sololá	701	Sololá	3	Barraneche	3	Marzo	2023-08-03T00:00:00	2024-11-06T20:00:00	3	Temperatura mínima	11
12836	7	Sololá	701	Sololá	3	Barraneche	3	Marzo	2023-08-03T00:00:00	2024-11-06T20:00:00	5	Humedad	65
12837	7	Sololá	701	Sololá	3	Barraneche	3	Marzo	2023-08-03T00:00:00	2024-11-06T20:00:00	6	Velocidad del viento	4.8
12838	7	Sololá	701	Sololá	3	Barraneche	3	Marzo	2023-08-03T00:00:00	2024-11-06T20:00:00	7	Dirección del viento	4.83
12839	7	Sololá	701	Sololá	3	Barraneche	3	Marzo	2023-08-03T00:00:00	2024-11-06T20:00:00	1	Precipitación	0
12840	7	Sololá	701	Sololá	3	Barraneche	3	Marzo	2023-08-03T00:00:00	2024-11-06T20:00:00	8	Radiación solar	0
12841	7	Sololá	701	Sololá	3	Barraneche	3	Marzo	2023-08-03T00:00:00	2024-11-06T21:00:00	2	Temperatura media	10.3
12842	7	Sololá	701	Sololá	3	Barraneche	3	Marzo	2023-08-03T00:00:00	2024-11-06T21:00:00	4	Temperatura máxima	11.1
12843	7	Sololá	701	Sololá	3	Barraneche	3	Marzo	2023-08-03T00:00:00	2024-11-06T21:00:00	3	Temperatura mínima	10.2
12844	7	Sololá	701	Sololá	3	Barraneche	3	Marzo	2023-08-03T00:00:00	2024-11-06T21:00:00	5	Humedad	66
12845	7	Sololá	701	Sololá	3	Barraneche	3	Marzo	2023-08-03T00:00:00	2024-11-06T21:00:00	6	Velocidad del viento	6.4
12846	7	Sololá	701	Sololá	3	Barraneche	3	Marzo	2023-08-03T00:00:00	2024-11-06T21:00:00	7	Dirección del viento	6.44
12847	7	Sololá	701	Sololá	3	Barraneche	3	Marzo	2023-08-03T00:00:00	2024-11-06T21:00:00	1	Precipitación	0
12848	7	Sololá	701	Sololá	3	Barraneche	3	Marzo	2023-08-03T00:00:00	2024-11-06T21:00:00	8	Radiación solar	0
12849	7	Sololá	701	Sololá	3	Barraneche	3	Marzo	2023-08-03T00:00:00	2024-11-06T22:00:00	2	Temperatura media	10.9
12850	7	Sololá	701	Sololá	3	Barraneche	3	Marzo	2023-08-03T00:00:00	2024-11-06T22:00:00	4	Temperatura máxima	11
12851	7	Sololá	701	Sololá	3	Barraneche	3	Marzo	2023-08-03T00:00:00	2024-11-06T22:00:00	3	Temperatura mínima	10.2
12852	7	Sololá	701	Sololá	3	Barraneche	3	Marzo	2023-08-03T00:00:00	2024-11-06T22:00:00	5	Humedad	67
12853	7	Sololá	701	Sololá	3	Barraneche	3	Marzo	2023-08-03T00:00:00	2024-11-06T22:00:00	6	Velocidad del viento	4.8
12854	7	Sololá	701	Sololá	3	Barraneche	3	Marzo	2023-08-03T00:00:00	2024-11-06T22:00:00	7	Dirección del viento	4.83
12855	7	Sololá	701	Sololá	3	Barraneche	3	Marzo	2023-08-03T00:00:00	2024-11-06T22:00:00	1	Precipitación	0
12856	7	Sololá	701	Sololá	3	Barraneche	3	Marzo	2023-08-03T00:00:00	2024-11-06T22:00:00	8	Radiación solar	0
12857	7	Sololá	701	Sololá	3	Barraneche	3	Marzo	2023-08-03T00:00:00	2024-11-06T23:00:00	2	Temperatura media	10.1
12858	7	Sololá	701	Sololá	3	Barraneche	3	Marzo	2023-08-03T00:00:00	2024-11-06T23:00:00	4	Temperatura máxima	11.2
12859	7	Sololá	701	Sololá	3	Barraneche	3	Marzo	2023-08-03T00:00:00	2024-11-06T23:00:00	3	Temperatura mínima	10.1
12860	7	Sololá	701	Sololá	3	Barraneche	3	Marzo	2023-08-03T00:00:00	2024-11-06T23:00:00	5	Humedad	68
12861	7	Sololá	701	Sololá	3	Barraneche	3	Marzo	2023-08-03T00:00:00	2024-11-06T23:00:00	6	Velocidad del viento	1.6
12862	7	Sololá	701	Sololá	3	Barraneche	3	Marzo	2023-08-03T00:00:00	2024-11-06T23:00:00	7	Dirección del viento	1.61
12863	7	Sololá	701	Sololá	3	Barraneche	3	Marzo	2023-08-03T00:00:00	2024-11-06T23:00:00	1	Precipitación	0
12864	7	Sololá	701	Sololá	3	Barraneche	3	Marzo	2023-08-03T00:00:00	2024-11-06T23:00:00	8	Radiación solar	0
12865	7	Sololá	701	Sololá	3	Barraneche	3	Marzo	2023-09-03T00:00:00	2024-11-06T00:00:00	2	Temperatura media	9.1
12866	7	Sololá	701	Sololá	3	Barraneche	3	Marzo	2023-09-03T00:00:00	2024-11-06T00:00:00	4	Temperatura máxima	10.1
12867	7	Sololá	701	Sololá	3	Barraneche	3	Marzo	2023-09-03T00:00:00	2024-11-06T00:00:00	3	Temperatura mínima	9
12868	7	Sololá	701	Sololá	3	Barraneche	3	Marzo	2023-09-03T00:00:00	2024-11-06T00:00:00	5	Humedad	68
12869	7	Sololá	701	Sololá	3	Barraneche	3	Marzo	2023-09-03T00:00:00	2024-11-06T00:00:00	6	Velocidad del viento	4.8
12870	7	Sololá	701	Sololá	3	Barraneche	3	Marzo	2023-09-03T00:00:00	2024-11-06T00:00:00	7	Dirección del viento	4.83
12871	7	Sololá	701	Sololá	3	Barraneche	3	Marzo	2023-09-03T00:00:00	2024-11-06T00:00:00	1	Precipitación	0
12872	7	Sololá	701	Sololá	3	Barraneche	3	Marzo	2023-09-03T00:00:00	2024-11-06T00:00:00	8	Radiación solar	0
12873	7	Sololá	701	Sololá	3	Barraneche	3	Marzo	2023-09-03T00:00:00	2024-11-06T01:00:00	2	Temperatura media	9.3
12874	7	Sololá	701	Sololá	3	Barraneche	3	Marzo	2023-09-03T00:00:00	2024-11-06T01:00:00	4	Temperatura máxima	9.5
12875	7	Sololá	701	Sololá	3	Barraneche	3	Marzo	2023-09-03T00:00:00	2024-11-06T01:00:00	3	Temperatura mínima	8.8
12876	7	Sololá	701	Sololá	3	Barraneche	3	Marzo	2023-09-03T00:00:00	2024-11-06T01:00:00	5	Humedad	67
12877	7	Sololá	701	Sololá	3	Barraneche	3	Marzo	2023-09-03T00:00:00	2024-11-06T01:00:00	6	Velocidad del viento	6.4
12878	7	Sololá	701	Sololá	3	Barraneche	3	Marzo	2023-09-03T00:00:00	2024-11-06T01:00:00	7	Dirección del viento	6.44
12879	7	Sololá	701	Sololá	3	Barraneche	3	Marzo	2023-09-03T00:00:00	2024-11-06T01:00:00	1	Precipitación	0
12880	7	Sololá	701	Sololá	3	Barraneche	3	Marzo	2023-09-03T00:00:00	2024-11-06T01:00:00	8	Radiación solar	0
12881	7	Sololá	701	Sololá	3	Barraneche	3	Marzo	2023-09-03T00:00:00	2024-11-06T02:00:00	2	Temperatura media	10.2
12882	7	Sololá	701	Sololá	3	Barraneche	3	Marzo	2023-09-03T00:00:00	2024-11-06T02:00:00	4	Temperatura máxima	10.2
12883	7	Sololá	701	Sololá	3	Barraneche	3	Marzo	2023-09-03T00:00:00	2024-11-06T02:00:00	3	Temperatura mínima	9
12884	7	Sololá	701	Sololá	3	Barraneche	3	Marzo	2023-09-03T00:00:00	2024-11-06T02:00:00	5	Humedad	67
12885	7	Sololá	701	Sololá	3	Barraneche	3	Marzo	2023-09-03T00:00:00	2024-11-06T02:00:00	6	Velocidad del viento	6.4
12886	7	Sololá	701	Sololá	3	Barraneche	3	Marzo	2023-09-03T00:00:00	2024-11-06T02:00:00	7	Dirección del viento	6.44
12887	7	Sololá	701	Sololá	3	Barraneche	3	Marzo	2023-09-03T00:00:00	2024-11-06T02:00:00	1	Precipitación	0
12888	7	Sololá	701	Sololá	3	Barraneche	3	Marzo	2023-09-03T00:00:00	2024-11-06T02:00:00	8	Radiación solar	0
12889	7	Sololá	701	Sololá	3	Barraneche	3	Marzo	2023-09-03T00:00:00	2024-11-06T03:00:00	2	Temperatura media	9.8
12890	7	Sololá	701	Sololá	3	Barraneche	3	Marzo	2023-09-03T00:00:00	2024-11-06T03:00:00	4	Temperatura máxima	10.2
12891	7	Sololá	701	Sololá	3	Barraneche	3	Marzo	2023-09-03T00:00:00	2024-11-06T03:00:00	3	Temperatura mínima	9.4
12892	7	Sololá	701	Sololá	3	Barraneche	3	Marzo	2023-09-03T00:00:00	2024-11-06T03:00:00	5	Humedad	68
12893	7	Sololá	701	Sololá	3	Barraneche	3	Marzo	2023-09-03T00:00:00	2024-11-06T03:00:00	6	Velocidad del viento	4.8
12894	7	Sololá	701	Sololá	3	Barraneche	3	Marzo	2023-09-03T00:00:00	2024-11-06T03:00:00	7	Dirección del viento	4.83
12895	7	Sololá	701	Sololá	3	Barraneche	3	Marzo	2023-09-03T00:00:00	2024-11-06T03:00:00	1	Precipitación	0
12896	7	Sololá	701	Sololá	3	Barraneche	3	Marzo	2023-09-03T00:00:00	2024-11-06T03:00:00	8	Radiación solar	0
12897	7	Sololá	701	Sololá	3	Barraneche	3	Marzo	2023-09-03T00:00:00	2024-11-06T04:00:00	2	Temperatura media	8.8
12898	7	Sololá	701	Sololá	3	Barraneche	3	Marzo	2023-09-03T00:00:00	2024-11-06T04:00:00	4	Temperatura máxima	9.9
12899	7	Sololá	701	Sololá	3	Barraneche	3	Marzo	2023-09-03T00:00:00	2024-11-06T04:00:00	3	Temperatura mínima	8.8
12900	7	Sololá	701	Sololá	3	Barraneche	3	Marzo	2023-09-03T00:00:00	2024-11-06T04:00:00	5	Humedad	70
12901	7	Sololá	701	Sololá	3	Barraneche	3	Marzo	2023-09-03T00:00:00	2024-11-06T04:00:00	6	Velocidad del viento	3.2
12902	7	Sololá	701	Sololá	3	Barraneche	3	Marzo	2023-09-03T00:00:00	2024-11-06T04:00:00	7	Dirección del viento	3.22
12903	7	Sololá	701	Sololá	3	Barraneche	3	Marzo	2023-09-03T00:00:00	2024-11-06T04:00:00	1	Precipitación	0
12904	7	Sololá	701	Sololá	3	Barraneche	3	Marzo	2023-09-03T00:00:00	2024-11-06T04:00:00	8	Radiación solar	0
12905	7	Sololá	701	Sololá	3	Barraneche	3	Marzo	2023-09-03T00:00:00	2024-11-06T05:00:00	2	Temperatura media	8.2
12906	7	Sololá	701	Sololá	3	Barraneche	3	Marzo	2023-09-03T00:00:00	2024-11-06T05:00:00	4	Temperatura máxima	8.8
12907	7	Sololá	701	Sololá	3	Barraneche	3	Marzo	2023-09-03T00:00:00	2024-11-06T05:00:00	3	Temperatura mínima	8.2
12908	7	Sololá	701	Sololá	3	Barraneche	3	Marzo	2023-09-03T00:00:00	2024-11-06T05:00:00	5	Humedad	71
12909	7	Sololá	701	Sololá	3	Barraneche	3	Marzo	2023-09-03T00:00:00	2024-11-06T05:00:00	6	Velocidad del viento	4.8
12910	7	Sololá	701	Sololá	3	Barraneche	3	Marzo	2023-09-03T00:00:00	2024-11-06T05:00:00	7	Dirección del viento	4.83
12911	7	Sololá	701	Sololá	3	Barraneche	3	Marzo	2023-09-03T00:00:00	2024-11-06T05:00:00	1	Precipitación	0
12912	7	Sololá	701	Sololá	3	Barraneche	3	Marzo	2023-09-03T00:00:00	2024-11-06T05:00:00	8	Radiación solar	0
12913	7	Sololá	701	Sololá	3	Barraneche	3	Marzo	2023-09-03T00:00:00	2024-11-06T06:00:00	2	Temperatura media	7.9
12914	7	Sololá	701	Sololá	3	Barraneche	3	Marzo	2023-09-03T00:00:00	2024-11-06T06:00:00	4	Temperatura máxima	8.3
12915	7	Sololá	701	Sololá	3	Barraneche	3	Marzo	2023-09-03T00:00:00	2024-11-06T06:00:00	3	Temperatura mínima	7.9
12916	7	Sololá	701	Sololá	3	Barraneche	3	Marzo	2023-09-03T00:00:00	2024-11-06T06:00:00	5	Humedad	69
12917	7	Sololá	701	Sololá	3	Barraneche	3	Marzo	2023-09-03T00:00:00	2024-11-06T06:00:00	6	Velocidad del viento	6.4
12918	7	Sololá	701	Sololá	3	Barraneche	3	Marzo	2023-09-03T00:00:00	2024-11-06T06:00:00	7	Dirección del viento	6.44
12919	7	Sololá	701	Sololá	3	Barraneche	3	Marzo	2023-09-03T00:00:00	2024-11-06T06:00:00	1	Precipitación	0
12920	7	Sololá	701	Sololá	3	Barraneche	3	Marzo	2023-09-03T00:00:00	2024-11-06T06:00:00	8	Radiación solar	0
12921	7	Sololá	701	Sololá	3	Barraneche	3	Marzo	2023-09-03T00:00:00	2024-11-06T07:00:00	2	Temperatura media	8.7
12922	7	Sololá	701	Sololá	3	Barraneche	3	Marzo	2023-09-03T00:00:00	2024-11-06T07:00:00	4	Temperatura máxima	8.8
12923	7	Sololá	701	Sololá	3	Barraneche	3	Marzo	2023-09-03T00:00:00	2024-11-06T07:00:00	3	Temperatura mínima	7.7
12924	7	Sololá	701	Sololá	3	Barraneche	3	Marzo	2023-09-03T00:00:00	2024-11-06T07:00:00	5	Humedad	69
12925	7	Sololá	701	Sololá	3	Barraneche	3	Marzo	2023-09-03T00:00:00	2024-11-06T07:00:00	6	Velocidad del viento	8
12926	7	Sololá	701	Sololá	3	Barraneche	3	Marzo	2023-09-03T00:00:00	2024-11-06T07:00:00	7	Dirección del viento	8.05
12927	7	Sololá	701	Sololá	3	Barraneche	3	Marzo	2023-09-03T00:00:00	2024-11-06T07:00:00	1	Precipitación	0
12928	7	Sololá	701	Sololá	3	Barraneche	3	Marzo	2023-09-03T00:00:00	2024-11-06T07:00:00	8	Radiación solar	32
12929	7	Sololá	701	Sololá	3	Barraneche	3	Marzo	2023-09-03T00:00:00	2024-11-06T08:00:00	2	Temperatura media	12.4
12930	7	Sololá	701	Sololá	3	Barraneche	3	Marzo	2023-09-03T00:00:00	2024-11-06T08:00:00	4	Temperatura máxima	12.4
12931	7	Sololá	701	Sololá	3	Barraneche	3	Marzo	2023-09-03T00:00:00	2024-11-06T08:00:00	3	Temperatura mínima	8.8
12932	7	Sololá	701	Sololá	3	Barraneche	3	Marzo	2023-09-03T00:00:00	2024-11-06T08:00:00	5	Humedad	63
12933	7	Sololá	701	Sololá	3	Barraneche	3	Marzo	2023-09-03T00:00:00	2024-11-06T08:00:00	6	Velocidad del viento	3.2
12934	7	Sololá	701	Sololá	3	Barraneche	3	Marzo	2023-09-03T00:00:00	2024-11-06T08:00:00	7	Dirección del viento	3.22
12935	7	Sololá	701	Sololá	3	Barraneche	3	Marzo	2023-09-03T00:00:00	2024-11-06T08:00:00	1	Precipitación	0
12936	7	Sololá	701	Sololá	3	Barraneche	3	Marzo	2023-09-03T00:00:00	2024-11-06T08:00:00	8	Radiación solar	177
12937	7	Sololá	701	Sololá	3	Barraneche	3	Marzo	2023-09-03T00:00:00	2024-11-06T09:00:00	2	Temperatura media	14.8
12938	7	Sololá	701	Sololá	3	Barraneche	3	Marzo	2023-09-03T00:00:00	2024-11-06T09:00:00	4	Temperatura máxima	14.8
12939	7	Sololá	701	Sololá	3	Barraneche	3	Marzo	2023-09-03T00:00:00	2024-11-06T09:00:00	3	Temperatura mínima	12.4
12940	7	Sololá	701	Sololá	3	Barraneche	3	Marzo	2023-09-03T00:00:00	2024-11-06T09:00:00	5	Humedad	55
12941	7	Sololá	701	Sololá	3	Barraneche	3	Marzo	2023-09-03T00:00:00	2024-11-06T09:00:00	6	Velocidad del viento	3.2
12942	7	Sololá	701	Sololá	3	Barraneche	3	Marzo	2023-09-03T00:00:00	2024-11-06T09:00:00	7	Dirección del viento	3.22
12943	7	Sololá	701	Sololá	3	Barraneche	3	Marzo	2023-09-03T00:00:00	2024-11-06T09:00:00	1	Precipitación	0
12944	7	Sololá	701	Sololá	3	Barraneche	3	Marzo	2023-09-03T00:00:00	2024-11-06T09:00:00	8	Radiación solar	424
12945	7	Sololá	701	Sololá	3	Barraneche	3	Marzo	2023-09-03T00:00:00	2024-11-06T10:00:00	2	Temperatura media	15.8
12946	7	Sololá	701	Sololá	3	Barraneche	3	Marzo	2023-09-03T00:00:00	2024-11-06T10:00:00	4	Temperatura máxima	15.8
12947	7	Sololá	701	Sololá	3	Barraneche	3	Marzo	2023-09-03T00:00:00	2024-11-06T10:00:00	3	Temperatura mínima	14.7
12948	7	Sololá	701	Sololá	3	Barraneche	3	Marzo	2023-09-03T00:00:00	2024-11-06T10:00:00	5	Humedad	55
12949	7	Sololá	701	Sololá	3	Barraneche	3	Marzo	2023-09-03T00:00:00	2024-11-06T10:00:00	6	Velocidad del viento	4.8
12950	7	Sololá	701	Sololá	3	Barraneche	3	Marzo	2023-09-03T00:00:00	2024-11-06T10:00:00	7	Dirección del viento	4.83
12951	7	Sololá	701	Sololá	3	Barraneche	3	Marzo	2023-09-03T00:00:00	2024-11-06T10:00:00	1	Precipitación	0
12952	7	Sololá	701	Sololá	3	Barraneche	3	Marzo	2023-09-03T00:00:00	2024-11-06T10:00:00	8	Radiación solar	531
12953	7	Sololá	701	Sololá	3	Barraneche	3	Marzo	2023-09-03T00:00:00	2024-11-06T11:00:00	2	Temperatura media	16.4
12954	7	Sololá	701	Sololá	3	Barraneche	3	Marzo	2023-09-03T00:00:00	2024-11-06T11:00:00	4	Temperatura máxima	16.8
12955	7	Sololá	701	Sololá	3	Barraneche	3	Marzo	2023-09-03T00:00:00	2024-11-06T11:00:00	3	Temperatura mínima	15.2
12956	7	Sololá	701	Sololá	3	Barraneche	3	Marzo	2023-09-03T00:00:00	2024-11-06T11:00:00	5	Humedad	56
12957	7	Sololá	701	Sololá	3	Barraneche	3	Marzo	2023-09-03T00:00:00	2024-11-06T11:00:00	6	Velocidad del viento	8
12958	7	Sololá	701	Sololá	3	Barraneche	3	Marzo	2023-09-03T00:00:00	2024-11-06T11:00:00	7	Dirección del viento	8.05
12959	7	Sololá	701	Sololá	3	Barraneche	3	Marzo	2023-09-03T00:00:00	2024-11-06T11:00:00	1	Precipitación	0
12960	7	Sololá	701	Sololá	3	Barraneche	3	Marzo	2023-09-03T00:00:00	2024-11-06T11:00:00	8	Radiación solar	558
12961	7	Sololá	701	Sololá	3	Barraneche	3	Marzo	2023-09-03T00:00:00	2024-11-06T12:00:00	2	Temperatura media	17.7
12962	7	Sololá	701	Sololá	3	Barraneche	3	Marzo	2023-09-03T00:00:00	2024-11-06T12:00:00	4	Temperatura máxima	17.7
12963	7	Sololá	701	Sololá	3	Barraneche	3	Marzo	2023-09-03T00:00:00	2024-11-06T12:00:00	3	Temperatura mínima	16.4
12964	7	Sololá	701	Sololá	3	Barraneche	3	Marzo	2023-09-03T00:00:00	2024-11-06T12:00:00	5	Humedad	53
12965	7	Sololá	701	Sololá	3	Barraneche	3	Marzo	2023-09-03T00:00:00	2024-11-06T12:00:00	6	Velocidad del viento	11.3
12966	7	Sololá	701	Sololá	3	Barraneche	3	Marzo	2023-09-03T00:00:00	2024-11-06T12:00:00	7	Dirección del viento	11.27
12967	7	Sololá	701	Sololá	3	Barraneche	3	Marzo	2023-09-03T00:00:00	2024-11-06T12:00:00	1	Precipitación	0
12968	7	Sololá	701	Sololá	3	Barraneche	3	Marzo	2023-09-03T00:00:00	2024-11-06T12:00:00	8	Radiación solar	772
12969	7	Sololá	701	Sololá	3	Barraneche	3	Marzo	2023-09-03T00:00:00	2024-11-06T13:00:00	2	Temperatura media	17.3
12970	7	Sololá	701	Sololá	3	Barraneche	3	Marzo	2023-09-03T00:00:00	2024-11-06T13:00:00	4	Temperatura máxima	18.2
12971	7	Sololá	701	Sololá	3	Barraneche	3	Marzo	2023-09-03T00:00:00	2024-11-06T13:00:00	3	Temperatura mínima	17.3
12972	7	Sololá	701	Sololá	3	Barraneche	3	Marzo	2023-09-03T00:00:00	2024-11-06T13:00:00	5	Humedad	57
12973	7	Sololá	701	Sololá	3	Barraneche	3	Marzo	2023-09-03T00:00:00	2024-11-06T13:00:00	6	Velocidad del viento	14.5
12974	7	Sololá	701	Sololá	3	Barraneche	3	Marzo	2023-09-03T00:00:00	2024-11-06T13:00:00	7	Dirección del viento	14.48
12975	7	Sololá	701	Sololá	3	Barraneche	3	Marzo	2023-09-03T00:00:00	2024-11-06T13:00:00	1	Precipitación	0
12976	7	Sololá	701	Sololá	3	Barraneche	3	Marzo	2023-09-03T00:00:00	2024-11-06T13:00:00	8	Radiación solar	950
12977	7	Sololá	701	Sololá	3	Barraneche	3	Marzo	2023-09-03T00:00:00	2024-11-06T14:00:00	2	Temperatura media	16.5
12978	7	Sololá	701	Sololá	3	Barraneche	3	Marzo	2023-09-03T00:00:00	2024-11-06T14:00:00	4	Temperatura máxima	17.4
12979	7	Sololá	701	Sololá	3	Barraneche	3	Marzo	2023-09-03T00:00:00	2024-11-06T14:00:00	3	Temperatura mínima	16.3
12980	7	Sololá	701	Sololá	3	Barraneche	3	Marzo	2023-09-03T00:00:00	2024-11-06T14:00:00	5	Humedad	63
12981	7	Sololá	701	Sololá	3	Barraneche	3	Marzo	2023-09-03T00:00:00	2024-11-06T14:00:00	6	Velocidad del viento	14.5
12982	7	Sololá	701	Sololá	3	Barraneche	3	Marzo	2023-09-03T00:00:00	2024-11-06T14:00:00	7	Dirección del viento	14.48
12983	7	Sololá	701	Sololá	3	Barraneche	3	Marzo	2023-09-03T00:00:00	2024-11-06T14:00:00	1	Precipitación	0
12984	7	Sololá	701	Sololá	3	Barraneche	3	Marzo	2023-09-03T00:00:00	2024-11-06T14:00:00	8	Radiación solar	805
12985	7	Sololá	701	Sololá	3	Barraneche	3	Marzo	2023-09-03T00:00:00	2024-11-06T15:00:00	2	Temperatura media	16.5
12986	7	Sololá	701	Sololá	3	Barraneche	3	Marzo	2023-09-03T00:00:00	2024-11-06T15:00:00	4	Temperatura máxima	16.8
12987	7	Sololá	701	Sololá	3	Barraneche	3	Marzo	2023-09-03T00:00:00	2024-11-06T15:00:00	3	Temperatura mínima	16
12988	7	Sololá	701	Sololá	3	Barraneche	3	Marzo	2023-09-03T00:00:00	2024-11-06T15:00:00	5	Humedad	64
12989	7	Sololá	701	Sololá	3	Barraneche	3	Marzo	2023-09-03T00:00:00	2024-11-06T15:00:00	6	Velocidad del viento	11.3
12990	7	Sololá	701	Sololá	3	Barraneche	3	Marzo	2023-09-03T00:00:00	2024-11-06T15:00:00	7	Dirección del viento	11.27
12991	7	Sololá	701	Sololá	3	Barraneche	3	Marzo	2023-09-03T00:00:00	2024-11-06T15:00:00	1	Precipitación	0
12992	7	Sololá	701	Sololá	3	Barraneche	3	Marzo	2023-09-03T00:00:00	2024-11-06T15:00:00	8	Radiación solar	316
12993	7	Sololá	701	Sololá	3	Barraneche	3	Marzo	2023-09-03T00:00:00	2024-11-06T16:00:00	2	Temperatura media	15.6
12994	7	Sololá	701	Sololá	3	Barraneche	3	Marzo	2023-09-03T00:00:00	2024-11-06T16:00:00	4	Temperatura máxima	16.5
12995	7	Sololá	701	Sololá	3	Barraneche	3	Marzo	2023-09-03T00:00:00	2024-11-06T16:00:00	3	Temperatura mínima	15.6
12996	7	Sololá	701	Sololá	3	Barraneche	3	Marzo	2023-09-03T00:00:00	2024-11-06T16:00:00	5	Humedad	68
12997	7	Sololá	701	Sololá	3	Barraneche	3	Marzo	2023-09-03T00:00:00	2024-11-06T16:00:00	6	Velocidad del viento	11.3
12998	7	Sololá	701	Sololá	3	Barraneche	3	Marzo	2023-09-03T00:00:00	2024-11-06T16:00:00	7	Dirección del viento	11.27
12999	7	Sololá	701	Sololá	3	Barraneche	3	Marzo	2023-09-03T00:00:00	2024-11-06T16:00:00	1	Precipitación	0
13000	7	Sololá	701	Sololá	3	Barraneche	3	Marzo	2023-09-03T00:00:00	2024-11-06T16:00:00	8	Radiación solar	269
13001	7	Sololá	701	Sololá	3	Barraneche	3	Marzo	2023-09-03T00:00:00	2024-11-06T17:00:00	2	Temperatura media	14.6
13002	7	Sololá	701	Sololá	3	Barraneche	3	Marzo	2023-09-03T00:00:00	2024-11-06T17:00:00	4	Temperatura máxima	15.8
13003	7	Sololá	701	Sololá	3	Barraneche	3	Marzo	2023-09-03T00:00:00	2024-11-06T17:00:00	3	Temperatura mínima	14.6
13004	7	Sololá	701	Sololá	3	Barraneche	3	Marzo	2023-09-03T00:00:00	2024-11-06T17:00:00	5	Humedad	70
13005	7	Sololá	701	Sololá	3	Barraneche	3	Marzo	2023-09-03T00:00:00	2024-11-06T17:00:00	6	Velocidad del viento	11.3
13006	7	Sololá	701	Sololá	3	Barraneche	3	Marzo	2023-09-03T00:00:00	2024-11-06T17:00:00	7	Dirección del viento	11.27
13007	7	Sololá	701	Sololá	3	Barraneche	3	Marzo	2023-09-03T00:00:00	2024-11-06T17:00:00	1	Precipitación	0
13008	7	Sololá	701	Sololá	3	Barraneche	3	Marzo	2023-09-03T00:00:00	2024-11-06T17:00:00	8	Radiación solar	150
13009	7	Sololá	701	Sololá	3	Barraneche	3	Marzo	2023-09-03T00:00:00	2024-11-06T18:00:00	2	Temperatura media	14.1
13010	7	Sololá	701	Sololá	3	Barraneche	3	Marzo	2023-09-03T00:00:00	2024-11-06T18:00:00	4	Temperatura máxima	14.6
13011	7	Sololá	701	Sololá	3	Barraneche	3	Marzo	2023-09-03T00:00:00	2024-11-06T18:00:00	3	Temperatura mínima	14.1
13012	7	Sololá	701	Sololá	3	Barraneche	3	Marzo	2023-09-03T00:00:00	2024-11-06T18:00:00	5	Humedad	72
13013	7	Sololá	701	Sololá	3	Barraneche	3	Marzo	2023-09-03T00:00:00	2024-11-06T18:00:00	6	Velocidad del viento	8
13014	7	Sololá	701	Sololá	3	Barraneche	3	Marzo	2023-09-03T00:00:00	2024-11-06T18:00:00	7	Dirección del viento	8.05
13015	7	Sololá	701	Sololá	3	Barraneche	3	Marzo	2023-09-03T00:00:00	2024-11-06T18:00:00	1	Precipitación	0
13016	7	Sololá	701	Sololá	3	Barraneche	3	Marzo	2023-09-03T00:00:00	2024-11-06T18:00:00	8	Radiación solar	55
13017	7	Sololá	701	Sololá	3	Barraneche	3	Marzo	2023-09-03T00:00:00	2024-11-06T19:00:00	2	Temperatura media	13.6
13018	7	Sololá	701	Sololá	3	Barraneche	3	Marzo	2023-09-03T00:00:00	2024-11-06T19:00:00	4	Temperatura máxima	14.1
13019	7	Sololá	701	Sololá	3	Barraneche	3	Marzo	2023-09-03T00:00:00	2024-11-06T19:00:00	3	Temperatura mínima	13.6
13020	7	Sololá	701	Sololá	3	Barraneche	3	Marzo	2023-09-03T00:00:00	2024-11-06T19:00:00	5	Humedad	74
13021	7	Sololá	701	Sololá	3	Barraneche	3	Marzo	2023-09-03T00:00:00	2024-11-06T19:00:00	6	Velocidad del viento	4.8
13022	7	Sololá	701	Sololá	3	Barraneche	3	Marzo	2023-09-03T00:00:00	2024-11-06T19:00:00	7	Dirección del viento	4.83
13023	7	Sololá	701	Sololá	3	Barraneche	3	Marzo	2023-09-03T00:00:00	2024-11-06T19:00:00	1	Precipitación	0
13024	7	Sololá	701	Sololá	3	Barraneche	3	Marzo	2023-09-03T00:00:00	2024-11-06T19:00:00	8	Radiación solar	0
13025	7	Sololá	701	Sololá	3	Barraneche	3	Marzo	2023-09-03T00:00:00	2024-11-06T20:00:00	2	Temperatura media	13
13026	7	Sololá	701	Sololá	3	Barraneche	3	Marzo	2023-09-03T00:00:00	2024-11-06T20:00:00	4	Temperatura máxima	13.6
13027	7	Sololá	701	Sololá	3	Barraneche	3	Marzo	2023-09-03T00:00:00	2024-11-06T20:00:00	3	Temperatura mínima	12.8
13028	7	Sololá	701	Sololá	3	Barraneche	3	Marzo	2023-09-03T00:00:00	2024-11-06T20:00:00	5	Humedad	63
13029	7	Sololá	701	Sololá	3	Barraneche	3	Marzo	2023-09-03T00:00:00	2024-11-06T20:00:00	6	Velocidad del viento	3.2
13030	7	Sololá	701	Sololá	3	Barraneche	3	Marzo	2023-09-03T00:00:00	2024-11-06T20:00:00	7	Dirección del viento	3.22
13031	7	Sololá	701	Sololá	3	Barraneche	3	Marzo	2023-09-03T00:00:00	2024-11-06T20:00:00	1	Precipitación	0
13032	7	Sololá	701	Sololá	3	Barraneche	3	Marzo	2023-09-03T00:00:00	2024-11-06T20:00:00	8	Radiación solar	0
13033	7	Sololá	701	Sololá	3	Barraneche	3	Marzo	2023-09-03T00:00:00	2024-11-06T21:00:00	2	Temperatura media	12.8
13034	7	Sololá	701	Sololá	3	Barraneche	3	Marzo	2023-09-03T00:00:00	2024-11-06T21:00:00	4	Temperatura máxima	13.1
13035	7	Sololá	701	Sololá	3	Barraneche	3	Marzo	2023-09-03T00:00:00	2024-11-06T21:00:00	3	Temperatura mínima	12.7
13036	7	Sololá	701	Sololá	3	Barraneche	3	Marzo	2023-09-03T00:00:00	2024-11-06T21:00:00	5	Humedad	61
13037	7	Sololá	701	Sololá	3	Barraneche	3	Marzo	2023-09-03T00:00:00	2024-11-06T21:00:00	6	Velocidad del viento	4.8
13038	7	Sololá	701	Sololá	3	Barraneche	3	Marzo	2023-09-03T00:00:00	2024-11-06T21:00:00	7	Dirección del viento	4.83
13039	7	Sololá	701	Sololá	3	Barraneche	3	Marzo	2023-09-03T00:00:00	2024-11-06T21:00:00	1	Precipitación	0
13040	7	Sololá	701	Sololá	3	Barraneche	3	Marzo	2023-09-03T00:00:00	2024-11-06T21:00:00	8	Radiación solar	0
13041	7	Sololá	701	Sololá	3	Barraneche	3	Marzo	2023-09-03T00:00:00	2024-11-06T22:00:00	2	Temperatura media	10.5
13042	7	Sololá	701	Sololá	3	Barraneche	3	Marzo	2023-09-03T00:00:00	2024-11-06T22:00:00	4	Temperatura máxima	12.8
13043	7	Sololá	701	Sololá	3	Barraneche	3	Marzo	2023-09-03T00:00:00	2024-11-06T22:00:00	3	Temperatura mínima	10.5
13044	7	Sololá	701	Sololá	3	Barraneche	3	Marzo	2023-09-03T00:00:00	2024-11-06T22:00:00	5	Humedad	69
13045	7	Sololá	701	Sololá	3	Barraneche	3	Marzo	2023-09-03T00:00:00	2024-11-06T22:00:00	6	Velocidad del viento	4.8
13046	7	Sololá	701	Sololá	3	Barraneche	3	Marzo	2023-09-03T00:00:00	2024-11-06T22:00:00	7	Dirección del viento	4.83
13047	7	Sololá	701	Sololá	3	Barraneche	3	Marzo	2023-09-03T00:00:00	2024-11-06T22:00:00	1	Precipitación	0
13048	7	Sololá	701	Sololá	3	Barraneche	3	Marzo	2023-09-03T00:00:00	2024-11-06T22:00:00	8	Radiación solar	0
13049	7	Sololá	701	Sololá	3	Barraneche	3	Marzo	2023-09-03T00:00:00	2024-11-06T23:00:00	2	Temperatura media	9.3
13050	7	Sololá	701	Sololá	3	Barraneche	3	Marzo	2023-09-03T00:00:00	2024-11-06T23:00:00	4	Temperatura máxima	10.5
13051	7	Sololá	701	Sololá	3	Barraneche	3	Marzo	2023-09-03T00:00:00	2024-11-06T23:00:00	3	Temperatura mínima	9.3
13052	7	Sololá	701	Sololá	3	Barraneche	3	Marzo	2023-09-03T00:00:00	2024-11-06T23:00:00	5	Humedad	70
13053	7	Sololá	701	Sololá	3	Barraneche	3	Marzo	2023-09-03T00:00:00	2024-11-06T23:00:00	6	Velocidad del viento	4.8
13054	7	Sololá	701	Sololá	3	Barraneche	3	Marzo	2023-09-03T00:00:00	2024-11-06T23:00:00	7	Dirección del viento	4.83
13055	7	Sololá	701	Sololá	3	Barraneche	3	Marzo	2023-09-03T00:00:00	2024-11-06T23:00:00	1	Precipitación	0
13056	7	Sololá	701	Sololá	3	Barraneche	3	Marzo	2023-09-03T00:00:00	2024-11-06T23:00:00	8	Radiación solar	0
13057	7	Sololá	701	Sololá	3	Barraneche	3	Marzo	2023-10-03T00:00:00	2024-11-06T00:00:00	2	Temperatura media	9.1
13058	7	Sololá	701	Sololá	3	Barraneche	3	Marzo	2023-10-03T00:00:00	2024-11-06T00:00:00	4	Temperatura máxima	9.9
13059	7	Sololá	701	Sololá	3	Barraneche	3	Marzo	2023-10-03T00:00:00	2024-11-06T00:00:00	3	Temperatura mínima	9
13060	7	Sololá	701	Sololá	3	Barraneche	3	Marzo	2023-10-03T00:00:00	2024-11-06T00:00:00	5	Humedad	69
13061	7	Sololá	701	Sololá	3	Barraneche	3	Marzo	2023-10-03T00:00:00	2024-11-06T00:00:00	6	Velocidad del viento	6.4
13062	7	Sololá	701	Sololá	3	Barraneche	3	Marzo	2023-10-03T00:00:00	2024-11-06T00:00:00	7	Dirección del viento	6.44
13063	7	Sololá	701	Sololá	3	Barraneche	3	Marzo	2023-10-03T00:00:00	2024-11-06T00:00:00	1	Precipitación	0
13064	7	Sololá	701	Sololá	3	Barraneche	3	Marzo	2023-10-03T00:00:00	2024-11-06T00:00:00	8	Radiación solar	0
13065	7	Sololá	701	Sololá	3	Barraneche	3	Marzo	2023-10-03T00:00:00	2024-11-06T01:00:00	2	Temperatura media	8.7
13066	7	Sololá	701	Sololá	3	Barraneche	3	Marzo	2023-10-03T00:00:00	2024-11-06T01:00:00	4	Temperatura máxima	9.7
13067	7	Sololá	701	Sololá	3	Barraneche	3	Marzo	2023-10-03T00:00:00	2024-11-06T01:00:00	3	Temperatura mínima	8.7
13068	7	Sololá	701	Sololá	3	Barraneche	3	Marzo	2023-10-03T00:00:00	2024-11-06T01:00:00	5	Humedad	69
13069	7	Sololá	701	Sololá	3	Barraneche	3	Marzo	2023-10-03T00:00:00	2024-11-06T01:00:00	6	Velocidad del viento	6.4
13070	7	Sololá	701	Sololá	3	Barraneche	3	Marzo	2023-10-03T00:00:00	2024-11-06T01:00:00	7	Dirección del viento	6.44
13071	7	Sololá	701	Sololá	3	Barraneche	3	Marzo	2023-10-03T00:00:00	2024-11-06T01:00:00	1	Precipitación	0
13072	7	Sololá	701	Sololá	3	Barraneche	3	Marzo	2023-10-03T00:00:00	2024-11-06T01:00:00	8	Radiación solar	0
13073	7	Sololá	701	Sololá	3	Barraneche	3	Marzo	2023-10-03T00:00:00	2024-11-06T02:00:00	2	Temperatura media	8.4
13074	7	Sololá	701	Sololá	3	Barraneche	3	Marzo	2023-10-03T00:00:00	2024-11-06T02:00:00	4	Temperatura máxima	9.1
13075	7	Sololá	701	Sololá	3	Barraneche	3	Marzo	2023-10-03T00:00:00	2024-11-06T02:00:00	3	Temperatura mínima	8.4
13076	7	Sololá	701	Sololá	3	Barraneche	3	Marzo	2023-10-03T00:00:00	2024-11-06T02:00:00	5	Humedad	67
13077	7	Sololá	701	Sololá	3	Barraneche	3	Marzo	2023-10-03T00:00:00	2024-11-06T02:00:00	6	Velocidad del viento	8
13078	7	Sololá	701	Sololá	3	Barraneche	3	Marzo	2023-10-03T00:00:00	2024-11-06T02:00:00	7	Dirección del viento	8.05
13079	7	Sololá	701	Sololá	3	Barraneche	3	Marzo	2023-10-03T00:00:00	2024-11-06T02:00:00	1	Precipitación	0
13080	7	Sololá	701	Sololá	3	Barraneche	3	Marzo	2023-10-03T00:00:00	2024-11-06T02:00:00	8	Radiación solar	0
13081	7	Sololá	701	Sololá	3	Barraneche	3	Marzo	2023-10-03T00:00:00	2024-11-06T03:00:00	2	Temperatura media	8.2
13082	7	Sololá	701	Sololá	3	Barraneche	3	Marzo	2023-10-03T00:00:00	2024-11-06T03:00:00	4	Temperatura máxima	8.6
13083	7	Sololá	701	Sololá	3	Barraneche	3	Marzo	2023-10-03T00:00:00	2024-11-06T03:00:00	3	Temperatura mínima	8
13084	7	Sololá	701	Sololá	3	Barraneche	3	Marzo	2023-10-03T00:00:00	2024-11-06T03:00:00	5	Humedad	69
13085	7	Sololá	701	Sololá	3	Barraneche	3	Marzo	2023-10-03T00:00:00	2024-11-06T03:00:00	6	Velocidad del viento	8
13086	7	Sololá	701	Sololá	3	Barraneche	3	Marzo	2023-10-03T00:00:00	2024-11-06T03:00:00	7	Dirección del viento	8.05
13087	7	Sololá	701	Sololá	3	Barraneche	3	Marzo	2023-10-03T00:00:00	2024-11-06T03:00:00	1	Precipitación	0
13088	7	Sololá	701	Sololá	3	Barraneche	3	Marzo	2023-10-03T00:00:00	2024-11-06T03:00:00	8	Radiación solar	0
13089	7	Sololá	701	Sololá	3	Barraneche	3	Marzo	2023-10-03T00:00:00	2024-11-06T04:00:00	2	Temperatura media	7.8
13090	7	Sololá	701	Sololá	3	Barraneche	3	Marzo	2023-10-03T00:00:00	2024-11-06T04:00:00	4	Temperatura máxima	8.2
13091	7	Sololá	701	Sololá	3	Barraneche	3	Marzo	2023-10-03T00:00:00	2024-11-06T04:00:00	3	Temperatura mínima	7.7
13092	7	Sololá	701	Sololá	3	Barraneche	3	Marzo	2023-10-03T00:00:00	2024-11-06T04:00:00	5	Humedad	70
13093	7	Sololá	701	Sololá	3	Barraneche	3	Marzo	2023-10-03T00:00:00	2024-11-06T04:00:00	6	Velocidad del viento	6.4
13094	7	Sololá	701	Sololá	3	Barraneche	3	Marzo	2023-10-03T00:00:00	2024-11-06T04:00:00	7	Dirección del viento	6.44
13095	7	Sololá	701	Sololá	3	Barraneche	3	Marzo	2023-10-03T00:00:00	2024-11-06T04:00:00	1	Precipitación	0
13096	7	Sololá	701	Sololá	3	Barraneche	3	Marzo	2023-10-03T00:00:00	2024-11-06T04:00:00	8	Radiación solar	0
13097	7	Sololá	701	Sololá	3	Barraneche	3	Marzo	2023-10-03T00:00:00	2024-11-06T05:00:00	2	Temperatura media	7.8
13098	7	Sololá	701	Sololá	3	Barraneche	3	Marzo	2023-10-03T00:00:00	2024-11-06T05:00:00	4	Temperatura máxima	7.9
13099	7	Sololá	701	Sololá	3	Barraneche	3	Marzo	2023-10-03T00:00:00	2024-11-06T05:00:00	3	Temperatura mínima	7.3
13100	7	Sololá	701	Sololá	3	Barraneche	3	Marzo	2023-10-03T00:00:00	2024-11-06T05:00:00	5	Humedad	68
13101	7	Sololá	701	Sololá	3	Barraneche	3	Marzo	2023-10-03T00:00:00	2024-11-06T05:00:00	6	Velocidad del viento	8
13102	7	Sololá	701	Sololá	3	Barraneche	3	Marzo	2023-10-03T00:00:00	2024-11-06T05:00:00	7	Dirección del viento	8.05
13103	7	Sololá	701	Sololá	3	Barraneche	3	Marzo	2023-10-03T00:00:00	2024-11-06T05:00:00	1	Precipitación	0
13104	7	Sololá	701	Sololá	3	Barraneche	3	Marzo	2023-10-03T00:00:00	2024-11-06T05:00:00	8	Radiación solar	0
13105	7	Sololá	701	Sololá	3	Barraneche	3	Marzo	2023-10-03T00:00:00	2024-11-06T06:00:00	2	Temperatura media	7.4
13106	7	Sololá	701	Sololá	3	Barraneche	3	Marzo	2023-10-03T00:00:00	2024-11-06T06:00:00	4	Temperatura máxima	8.1
13107	7	Sololá	701	Sololá	3	Barraneche	3	Marzo	2023-10-03T00:00:00	2024-11-06T06:00:00	3	Temperatura mínima	7.4
13108	7	Sololá	701	Sololá	3	Barraneche	3	Marzo	2023-10-03T00:00:00	2024-11-06T06:00:00	5	Humedad	68
13109	7	Sololá	701	Sololá	3	Barraneche	3	Marzo	2023-10-03T00:00:00	2024-11-06T06:00:00	6	Velocidad del viento	8
13110	7	Sololá	701	Sololá	3	Barraneche	3	Marzo	2023-10-03T00:00:00	2024-11-06T06:00:00	7	Dirección del viento	8.05
13111	7	Sololá	701	Sololá	3	Barraneche	3	Marzo	2023-10-03T00:00:00	2024-11-06T06:00:00	1	Precipitación	0
13112	7	Sololá	701	Sololá	3	Barraneche	3	Marzo	2023-10-03T00:00:00	2024-11-06T06:00:00	8	Radiación solar	0
13113	7	Sololá	701	Sololá	3	Barraneche	3	Marzo	2023-10-03T00:00:00	2024-11-06T07:00:00	2	Temperatura media	7.9
13114	7	Sololá	701	Sololá	3	Barraneche	3	Marzo	2023-10-03T00:00:00	2024-11-06T07:00:00	4	Temperatura máxima	8
13115	7	Sololá	701	Sololá	3	Barraneche	3	Marzo	2023-10-03T00:00:00	2024-11-06T07:00:00	3	Temperatura mínima	7.1
13116	7	Sololá	701	Sololá	3	Barraneche	3	Marzo	2023-10-03T00:00:00	2024-11-06T07:00:00	5	Humedad	69
13117	7	Sololá	701	Sololá	3	Barraneche	3	Marzo	2023-10-03T00:00:00	2024-11-06T07:00:00	6	Velocidad del viento	6.4
13118	7	Sololá	701	Sololá	3	Barraneche	3	Marzo	2023-10-03T00:00:00	2024-11-06T07:00:00	7	Dirección del viento	6.44
13119	7	Sololá	701	Sololá	3	Barraneche	3	Marzo	2023-10-03T00:00:00	2024-11-06T07:00:00	1	Precipitación	0
13120	7	Sololá	701	Sololá	3	Barraneche	3	Marzo	2023-10-03T00:00:00	2024-11-06T07:00:00	8	Radiación solar	20
13121	7	Sololá	701	Sololá	3	Barraneche	3	Marzo	2023-10-03T00:00:00	2024-11-06T08:00:00	2	Temperatura media	11.1
13122	7	Sololá	701	Sololá	3	Barraneche	3	Marzo	2023-10-03T00:00:00	2024-11-06T08:00:00	4	Temperatura máxima	11.1
13123	7	Sololá	701	Sololá	3	Barraneche	3	Marzo	2023-10-03T00:00:00	2024-11-06T08:00:00	3	Temperatura mínima	7.9
13124	7	Sololá	701	Sololá	3	Barraneche	3	Marzo	2023-10-03T00:00:00	2024-11-06T08:00:00	5	Humedad	68
13125	7	Sololá	701	Sololá	3	Barraneche	3	Marzo	2023-10-03T00:00:00	2024-11-06T08:00:00	6	Velocidad del viento	4.8
13126	7	Sololá	701	Sololá	3	Barraneche	3	Marzo	2023-10-03T00:00:00	2024-11-06T08:00:00	7	Dirección del viento	4.83
13127	7	Sololá	701	Sololá	3	Barraneche	3	Marzo	2023-10-03T00:00:00	2024-11-06T08:00:00	1	Precipitación	0
13128	7	Sololá	701	Sololá	3	Barraneche	3	Marzo	2023-10-03T00:00:00	2024-11-06T08:00:00	8	Radiación solar	160
13129	7	Sololá	701	Sololá	3	Barraneche	3	Marzo	2023-10-03T00:00:00	2024-11-06T09:00:00	2	Temperatura media	14.2
13130	7	Sololá	701	Sololá	3	Barraneche	3	Marzo	2023-10-03T00:00:00	2024-11-06T09:00:00	4	Temperatura máxima	14.2
13131	7	Sololá	701	Sololá	3	Barraneche	3	Marzo	2023-10-03T00:00:00	2024-11-06T09:00:00	3	Temperatura mínima	11.1
13132	7	Sololá	701	Sololá	3	Barraneche	3	Marzo	2023-10-03T00:00:00	2024-11-06T09:00:00	5	Humedad	62
13133	7	Sololá	701	Sololá	3	Barraneche	3	Marzo	2023-10-03T00:00:00	2024-11-06T09:00:00	6	Velocidad del viento	4.8
13134	7	Sololá	701	Sololá	3	Barraneche	3	Marzo	2023-10-03T00:00:00	2024-11-06T09:00:00	7	Dirección del viento	4.83
13135	7	Sololá	701	Sololá	3	Barraneche	3	Marzo	2023-10-03T00:00:00	2024-11-06T09:00:00	1	Precipitación	0
13136	7	Sololá	701	Sololá	3	Barraneche	3	Marzo	2023-10-03T00:00:00	2024-11-06T09:00:00	8	Radiación solar	468
13137	7	Sololá	701	Sololá	3	Barraneche	3	Marzo	2023-10-03T00:00:00	2024-11-06T10:00:00	2	Temperatura media	13.3
13138	7	Sololá	701	Sololá	3	Barraneche	3	Marzo	2023-10-03T00:00:00	2024-11-06T10:00:00	4	Temperatura máxima	14.4
13139	7	Sololá	701	Sololá	3	Barraneche	3	Marzo	2023-10-03T00:00:00	2024-11-06T10:00:00	3	Temperatura mínima	12.9
13140	7	Sololá	701	Sololá	3	Barraneche	3	Marzo	2023-10-03T00:00:00	2024-11-06T10:00:00	5	Humedad	69
13141	7	Sololá	701	Sololá	3	Barraneche	3	Marzo	2023-10-03T00:00:00	2024-11-06T10:00:00	6	Velocidad del viento	12.9
13142	7	Sololá	701	Sololá	3	Barraneche	3	Marzo	2023-10-03T00:00:00	2024-11-06T10:00:00	7	Dirección del viento	12.87
13143	7	Sololá	701	Sololá	3	Barraneche	3	Marzo	2023-10-03T00:00:00	2024-11-06T10:00:00	1	Precipitación	0
13144	7	Sololá	701	Sololá	3	Barraneche	3	Marzo	2023-10-03T00:00:00	2024-11-06T10:00:00	8	Radiación solar	447
13145	7	Sololá	701	Sololá	3	Barraneche	3	Marzo	2023-10-03T00:00:00	2024-11-06T11:00:00	2	Temperatura media	13
13146	7	Sololá	701	Sololá	3	Barraneche	3	Marzo	2023-10-03T00:00:00	2024-11-06T11:00:00	4	Temperatura máxima	13.4
13147	7	Sololá	701	Sololá	3	Barraneche	3	Marzo	2023-10-03T00:00:00	2024-11-06T11:00:00	3	Temperatura mínima	12.8
13148	7	Sololá	701	Sololá	3	Barraneche	3	Marzo	2023-10-03T00:00:00	2024-11-06T11:00:00	5	Humedad	69
13149	7	Sololá	701	Sololá	3	Barraneche	3	Marzo	2023-10-03T00:00:00	2024-11-06T11:00:00	6	Velocidad del viento	8
13150	7	Sololá	701	Sololá	3	Barraneche	3	Marzo	2023-10-03T00:00:00	2024-11-06T11:00:00	7	Dirección del viento	8.05
13151	7	Sololá	701	Sololá	3	Barraneche	3	Marzo	2023-10-03T00:00:00	2024-11-06T11:00:00	1	Precipitación	0
13152	7	Sololá	701	Sololá	3	Barraneche	3	Marzo	2023-10-03T00:00:00	2024-11-06T11:00:00	8	Radiación solar	190
13153	7	Sololá	701	Sololá	3	Barraneche	3	Marzo	2023-10-03T00:00:00	2024-11-06T12:00:00	2	Temperatura media	11.9
13154	7	Sololá	701	Sololá	3	Barraneche	3	Marzo	2023-10-03T00:00:00	2024-11-06T12:00:00	4	Temperatura máxima	13.1
13155	7	Sololá	701	Sololá	3	Barraneche	3	Marzo	2023-10-03T00:00:00	2024-11-06T12:00:00	3	Temperatura mínima	11.8
13156	7	Sololá	701	Sololá	3	Barraneche	3	Marzo	2023-10-03T00:00:00	2024-11-06T12:00:00	5	Humedad	74
13157	7	Sololá	701	Sololá	3	Barraneche	3	Marzo	2023-10-03T00:00:00	2024-11-06T12:00:00	6	Velocidad del viento	8
13158	7	Sololá	701	Sololá	3	Barraneche	3	Marzo	2023-10-03T00:00:00	2024-11-06T12:00:00	7	Dirección del viento	8.05
13159	7	Sololá	701	Sololá	3	Barraneche	3	Marzo	2023-10-03T00:00:00	2024-11-06T12:00:00	1	Precipitación	0
13160	7	Sololá	701	Sololá	3	Barraneche	3	Marzo	2023-10-03T00:00:00	2024-11-06T12:00:00	8	Radiación solar	96
13161	7	Sololá	701	Sololá	3	Barraneche	3	Marzo	2023-10-03T00:00:00	2024-11-06T13:00:00	2	Temperatura media	13.1
13162	7	Sololá	701	Sololá	3	Barraneche	3	Marzo	2023-10-03T00:00:00	2024-11-06T13:00:00	4	Temperatura máxima	13.2
13163	7	Sololá	701	Sololá	3	Barraneche	3	Marzo	2023-10-03T00:00:00	2024-11-06T13:00:00	3	Temperatura mínima	11.9
13164	7	Sololá	701	Sololá	3	Barraneche	3	Marzo	2023-10-03T00:00:00	2024-11-06T13:00:00	5	Humedad	70
13165	7	Sololá	701	Sololá	3	Barraneche	3	Marzo	2023-10-03T00:00:00	2024-11-06T13:00:00	6	Velocidad del viento	3.2
13166	7	Sololá	701	Sololá	3	Barraneche	3	Marzo	2023-10-03T00:00:00	2024-11-06T13:00:00	7	Dirección del viento	3.22
13167	7	Sololá	701	Sololá	3	Barraneche	3	Marzo	2023-10-03T00:00:00	2024-11-06T13:00:00	1	Precipitación	0
13168	7	Sololá	701	Sololá	3	Barraneche	3	Marzo	2023-10-03T00:00:00	2024-11-06T13:00:00	8	Radiación solar	164
13169	7	Sololá	701	Sololá	3	Barraneche	3	Marzo	2023-10-03T00:00:00	2024-11-06T14:00:00	2	Temperatura media	14.3
13170	7	Sololá	701	Sololá	3	Barraneche	3	Marzo	2023-10-03T00:00:00	2024-11-06T14:00:00	4	Temperatura máxima	14.3
13171	7	Sololá	701	Sololá	3	Barraneche	3	Marzo	2023-10-03T00:00:00	2024-11-06T14:00:00	3	Temperatura mínima	12.5
13172	7	Sololá	701	Sololá	3	Barraneche	3	Marzo	2023-10-03T00:00:00	2024-11-06T14:00:00	5	Humedad	67
13173	7	Sololá	701	Sololá	3	Barraneche	3	Marzo	2023-10-03T00:00:00	2024-11-06T14:00:00	6	Velocidad del viento	4.8
13174	7	Sololá	701	Sololá	3	Barraneche	3	Marzo	2023-10-03T00:00:00	2024-11-06T14:00:00	7	Dirección del viento	4.83
13175	7	Sololá	701	Sololá	3	Barraneche	3	Marzo	2023-10-03T00:00:00	2024-11-06T14:00:00	1	Precipitación	0
13176	7	Sololá	701	Sololá	3	Barraneche	3	Marzo	2023-10-03T00:00:00	2024-11-06T14:00:00	8	Radiación solar	185
13177	7	Sololá	701	Sololá	3	Barraneche	3	Marzo	2023-10-03T00:00:00	2024-11-06T15:00:00	2	Temperatura media	14.8
13178	7	Sololá	701	Sololá	3	Barraneche	3	Marzo	2023-10-03T00:00:00	2024-11-06T15:00:00	4	Temperatura máxima	15.8
13179	7	Sololá	701	Sololá	3	Barraneche	3	Marzo	2023-10-03T00:00:00	2024-11-06T15:00:00	3	Temperatura mínima	14.3
13180	7	Sololá	701	Sololá	3	Barraneche	3	Marzo	2023-10-03T00:00:00	2024-11-06T15:00:00	5	Humedad	67
13181	7	Sololá	701	Sololá	3	Barraneche	3	Marzo	2023-10-03T00:00:00	2024-11-06T15:00:00	6	Velocidad del viento	6.4
13182	7	Sololá	701	Sololá	3	Barraneche	3	Marzo	2023-10-03T00:00:00	2024-11-06T15:00:00	7	Dirección del viento	6.44
13183	7	Sololá	701	Sololá	3	Barraneche	3	Marzo	2023-10-03T00:00:00	2024-11-06T15:00:00	1	Precipitación	0
13184	7	Sololá	701	Sololá	3	Barraneche	3	Marzo	2023-10-03T00:00:00	2024-11-06T15:00:00	8	Radiación solar	309
13185	7	Sololá	701	Sololá	3	Barraneche	3	Marzo	2023-10-03T00:00:00	2024-11-06T16:00:00	2	Temperatura media	14.3
13186	7	Sololá	701	Sololá	3	Barraneche	3	Marzo	2023-10-03T00:00:00	2024-11-06T16:00:00	4	Temperatura máxima	15.1
13187	7	Sololá	701	Sololá	3	Barraneche	3	Marzo	2023-10-03T00:00:00	2024-11-06T16:00:00	3	Temperatura mínima	14.1
13188	7	Sololá	701	Sololá	3	Barraneche	3	Marzo	2023-10-03T00:00:00	2024-11-06T16:00:00	5	Humedad	68
13189	7	Sololá	701	Sololá	3	Barraneche	3	Marzo	2023-10-03T00:00:00	2024-11-06T16:00:00	6	Velocidad del viento	9.7
13190	7	Sololá	701	Sololá	3	Barraneche	3	Marzo	2023-10-03T00:00:00	2024-11-06T16:00:00	7	Dirección del viento	9.66
13191	7	Sololá	701	Sololá	3	Barraneche	3	Marzo	2023-10-03T00:00:00	2024-11-06T16:00:00	1	Precipitación	0
13192	7	Sololá	701	Sololá	3	Barraneche	3	Marzo	2023-10-03T00:00:00	2024-11-06T16:00:00	8	Radiación solar	212
13193	7	Sololá	701	Sololá	3	Barraneche	3	Marzo	2023-10-03T00:00:00	2024-11-06T17:00:00	2	Temperatura media	14.1
13194	7	Sololá	701	Sololá	3	Barraneche	3	Marzo	2023-10-03T00:00:00	2024-11-06T17:00:00	4	Temperatura máxima	14.3
13195	7	Sololá	701	Sololá	3	Barraneche	3	Marzo	2023-10-03T00:00:00	2024-11-06T17:00:00	3	Temperatura mínima	14
13196	7	Sololá	701	Sololá	3	Barraneche	3	Marzo	2023-10-03T00:00:00	2024-11-06T17:00:00	5	Humedad	70
13197	7	Sololá	701	Sololá	3	Barraneche	3	Marzo	2023-10-03T00:00:00	2024-11-06T17:00:00	6	Velocidad del viento	6.4
13198	7	Sololá	701	Sololá	3	Barraneche	3	Marzo	2023-10-03T00:00:00	2024-11-06T17:00:00	7	Dirección del viento	6.44
13199	7	Sololá	701	Sololá	3	Barraneche	3	Marzo	2023-10-03T00:00:00	2024-11-06T17:00:00	1	Precipitación	0
13200	7	Sololá	701	Sololá	3	Barraneche	3	Marzo	2023-10-03T00:00:00	2024-11-06T17:00:00	8	Radiación solar	109
13201	7	Sololá	701	Sololá	3	Barraneche	3	Marzo	2023-10-03T00:00:00	2024-11-06T18:00:00	2	Temperatura media	13.4
13202	7	Sololá	701	Sololá	3	Barraneche	3	Marzo	2023-10-03T00:00:00	2024-11-06T18:00:00	4	Temperatura máxima	14.1
13203	7	Sololá	701	Sololá	3	Barraneche	3	Marzo	2023-10-03T00:00:00	2024-11-06T18:00:00	3	Temperatura mínima	13.4
13204	7	Sololá	701	Sololá	3	Barraneche	3	Marzo	2023-10-03T00:00:00	2024-11-06T18:00:00	5	Humedad	72
13205	7	Sololá	701	Sololá	3	Barraneche	3	Marzo	2023-10-03T00:00:00	2024-11-06T18:00:00	6	Velocidad del viento	4.8
13206	7	Sololá	701	Sololá	3	Barraneche	3	Marzo	2023-10-03T00:00:00	2024-11-06T18:00:00	7	Dirección del viento	4.83
13207	7	Sololá	701	Sololá	3	Barraneche	3	Marzo	2023-10-03T00:00:00	2024-11-06T18:00:00	1	Precipitación	0
13208	7	Sololá	701	Sololá	3	Barraneche	3	Marzo	2023-10-03T00:00:00	2024-11-06T18:00:00	8	Radiación solar	40
13209	7	Sololá	701	Sololá	3	Barraneche	3	Marzo	2023-10-03T00:00:00	2024-11-06T19:00:00	2	Temperatura media	13
13210	7	Sololá	701	Sololá	3	Barraneche	3	Marzo	2023-10-03T00:00:00	2024-11-06T19:00:00	4	Temperatura máxima	13.6
13211	7	Sololá	701	Sololá	3	Barraneche	3	Marzo	2023-10-03T00:00:00	2024-11-06T19:00:00	3	Temperatura mínima	13
13212	7	Sololá	701	Sololá	3	Barraneche	3	Marzo	2023-10-03T00:00:00	2024-11-06T19:00:00	5	Humedad	75
13213	7	Sololá	701	Sololá	3	Barraneche	3	Marzo	2023-10-03T00:00:00	2024-11-06T19:00:00	6	Velocidad del viento	1.6
13214	7	Sololá	701	Sololá	3	Barraneche	3	Marzo	2023-10-03T00:00:00	2024-11-06T19:00:00	7	Dirección del viento	1.61
13215	7	Sololá	701	Sololá	3	Barraneche	3	Marzo	2023-10-03T00:00:00	2024-11-06T19:00:00	1	Precipitación	0
13216	7	Sololá	701	Sololá	3	Barraneche	3	Marzo	2023-10-03T00:00:00	2024-11-06T19:00:00	8	Radiación solar	0
13217	7	Sololá	701	Sololá	3	Barraneche	3	Marzo	2023-10-03T00:00:00	2024-11-06T20:00:00	2	Temperatura media	12.6
13218	7	Sololá	701	Sololá	3	Barraneche	3	Marzo	2023-10-03T00:00:00	2024-11-06T20:00:00	4	Temperatura máxima	13
13219	7	Sololá	701	Sololá	3	Barraneche	3	Marzo	2023-10-03T00:00:00	2024-11-06T20:00:00	3	Temperatura mínima	12.6
13220	7	Sololá	701	Sololá	3	Barraneche	3	Marzo	2023-10-03T00:00:00	2024-11-06T20:00:00	5	Humedad	79
13221	7	Sololá	701	Sololá	3	Barraneche	3	Marzo	2023-10-03T00:00:00	2024-11-06T20:00:00	6	Velocidad del viento	1.6
13222	7	Sololá	701	Sololá	3	Barraneche	3	Marzo	2023-10-03T00:00:00	2024-11-06T20:00:00	7	Dirección del viento	1.61
13223	7	Sololá	701	Sololá	3	Barraneche	3	Marzo	2023-10-03T00:00:00	2024-11-06T20:00:00	1	Precipitación	0
13224	7	Sololá	701	Sololá	3	Barraneche	3	Marzo	2023-10-03T00:00:00	2024-11-06T20:00:00	8	Radiación solar	0
13225	7	Sololá	701	Sololá	3	Barraneche	3	Marzo	2023-10-03T00:00:00	2024-11-06T21:00:00	2	Temperatura media	13.6
13226	7	Sololá	701	Sololá	3	Barraneche	3	Marzo	2023-10-03T00:00:00	2024-11-06T21:00:00	4	Temperatura máxima	13.7
13227	7	Sololá	701	Sololá	3	Barraneche	3	Marzo	2023-10-03T00:00:00	2024-11-06T21:00:00	3	Temperatura mínima	12.4
13228	7	Sololá	701	Sololá	3	Barraneche	3	Marzo	2023-10-03T00:00:00	2024-11-06T21:00:00	5	Humedad	64
13229	7	Sololá	701	Sololá	3	Barraneche	3	Marzo	2023-10-03T00:00:00	2024-11-06T21:00:00	6	Velocidad del viento	6.4
13230	7	Sololá	701	Sololá	3	Barraneche	3	Marzo	2023-10-03T00:00:00	2024-11-06T21:00:00	7	Dirección del viento	6.44
13231	7	Sololá	701	Sololá	3	Barraneche	3	Marzo	2023-10-03T00:00:00	2024-11-06T21:00:00	1	Precipitación	0
13232	7	Sololá	701	Sololá	3	Barraneche	3	Marzo	2023-10-03T00:00:00	2024-11-06T21:00:00	8	Radiación solar	0
13233	7	Sololá	701	Sololá	3	Barraneche	3	Marzo	2023-10-03T00:00:00	2024-11-06T22:00:00	2	Temperatura media	13.1
13234	7	Sololá	701	Sololá	3	Barraneche	3	Marzo	2023-10-03T00:00:00	2024-11-06T22:00:00	4	Temperatura máxima	13.6
13235	7	Sololá	701	Sololá	3	Barraneche	3	Marzo	2023-10-03T00:00:00	2024-11-06T22:00:00	3	Temperatura mínima	13.1
13236	7	Sololá	701	Sololá	3	Barraneche	3	Marzo	2023-10-03T00:00:00	2024-11-06T22:00:00	5	Humedad	66
13237	7	Sololá	701	Sololá	3	Barraneche	3	Marzo	2023-10-03T00:00:00	2024-11-06T22:00:00	6	Velocidad del viento	8
13238	7	Sololá	701	Sololá	3	Barraneche	3	Marzo	2023-10-03T00:00:00	2024-11-06T22:00:00	7	Dirección del viento	8.05
13239	7	Sololá	701	Sololá	3	Barraneche	3	Marzo	2023-10-03T00:00:00	2024-11-06T22:00:00	1	Precipitación	0
13240	7	Sololá	701	Sololá	3	Barraneche	3	Marzo	2023-10-03T00:00:00	2024-11-06T22:00:00	8	Radiación solar	0
13241	7	Sololá	701	Sololá	3	Barraneche	3	Marzo	2023-10-03T00:00:00	2024-11-06T23:00:00	2	Temperatura media	10.7
13242	7	Sololá	701	Sololá	3	Barraneche	3	Marzo	2023-10-03T00:00:00	2024-11-06T23:00:00	4	Temperatura máxima	13
13243	7	Sololá	701	Sololá	3	Barraneche	3	Marzo	2023-10-03T00:00:00	2024-11-06T23:00:00	3	Temperatura mínima	10.7
13244	7	Sololá	701	Sololá	3	Barraneche	3	Marzo	2023-10-03T00:00:00	2024-11-06T23:00:00	5	Humedad	71
13245	7	Sololá	701	Sololá	3	Barraneche	3	Marzo	2023-10-03T00:00:00	2024-11-06T23:00:00	6	Velocidad del viento	3.2
13246	7	Sololá	701	Sololá	3	Barraneche	3	Marzo	2023-10-03T00:00:00	2024-11-06T23:00:00	7	Dirección del viento	3.22
13247	7	Sololá	701	Sololá	3	Barraneche	3	Marzo	2023-10-03T00:00:00	2024-11-06T23:00:00	1	Precipitación	0
13248	7	Sololá	701	Sololá	3	Barraneche	3	Marzo	2023-10-03T00:00:00	2024-11-06T23:00:00	8	Radiación solar	0
13249	7	Sololá	701	Sololá	3	Barraneche	3	Marzo	2023-11-03T00:00:00	2024-11-06T00:00:00	2	Temperatura media	10.4
13250	7	Sololá	701	Sololá	3	Barraneche	3	Marzo	2023-11-03T00:00:00	2024-11-06T00:00:00	4	Temperatura máxima	10.7
13251	7	Sololá	701	Sololá	3	Barraneche	3	Marzo	2023-11-03T00:00:00	2024-11-06T00:00:00	3	Temperatura mínima	10.4
13252	7	Sololá	701	Sololá	3	Barraneche	3	Marzo	2023-11-03T00:00:00	2024-11-06T00:00:00	5	Humedad	72
13253	7	Sololá	701	Sololá	3	Barraneche	3	Marzo	2023-11-03T00:00:00	2024-11-06T00:00:00	6	Velocidad del viento	3.2
13254	7	Sololá	701	Sololá	3	Barraneche	3	Marzo	2023-11-03T00:00:00	2024-11-06T00:00:00	7	Dirección del viento	3.22
13255	7	Sololá	701	Sololá	3	Barraneche	3	Marzo	2023-11-03T00:00:00	2024-11-06T00:00:00	1	Precipitación	0
13256	7	Sololá	701	Sololá	3	Barraneche	3	Marzo	2023-11-03T00:00:00	2024-11-06T00:00:00	8	Radiación solar	0
13257	7	Sololá	701	Sololá	3	Barraneche	3	Marzo	2023-11-03T00:00:00	2024-11-06T01:00:00	2	Temperatura media	10.3
13258	7	Sololá	701	Sololá	3	Barraneche	3	Marzo	2023-11-03T00:00:00	2024-11-06T01:00:00	4	Temperatura máxima	11
13259	7	Sololá	701	Sololá	3	Barraneche	3	Marzo	2023-11-03T00:00:00	2024-11-06T01:00:00	3	Temperatura mínima	10.2
13260	7	Sololá	701	Sololá	3	Barraneche	3	Marzo	2023-11-03T00:00:00	2024-11-06T01:00:00	5	Humedad	71
13261	7	Sololá	701	Sololá	3	Barraneche	3	Marzo	2023-11-03T00:00:00	2024-11-06T01:00:00	6	Velocidad del viento	3.2
13262	7	Sololá	701	Sololá	3	Barraneche	3	Marzo	2023-11-03T00:00:00	2024-11-06T01:00:00	7	Dirección del viento	3.22
13263	7	Sololá	701	Sololá	3	Barraneche	3	Marzo	2023-11-03T00:00:00	2024-11-06T01:00:00	1	Precipitación	0
13264	7	Sololá	701	Sololá	3	Barraneche	3	Marzo	2023-11-03T00:00:00	2024-11-06T01:00:00	8	Radiación solar	0
13265	7	Sololá	701	Sololá	3	Barraneche	3	Marzo	2023-11-03T00:00:00	2024-11-06T02:00:00	2	Temperatura media	9.2
13266	7	Sololá	701	Sololá	3	Barraneche	3	Marzo	2023-11-03T00:00:00	2024-11-06T02:00:00	4	Temperatura máxima	10.3
13267	7	Sololá	701	Sololá	3	Barraneche	3	Marzo	2023-11-03T00:00:00	2024-11-06T02:00:00	3	Temperatura mínima	9.2
13268	7	Sololá	701	Sololá	3	Barraneche	3	Marzo	2023-11-03T00:00:00	2024-11-06T02:00:00	5	Humedad	71
13269	7	Sololá	701	Sololá	3	Barraneche	3	Marzo	2023-11-03T00:00:00	2024-11-06T02:00:00	6	Velocidad del viento	4.8
13270	7	Sololá	701	Sololá	3	Barraneche	3	Marzo	2023-11-03T00:00:00	2024-11-06T02:00:00	7	Dirección del viento	4.83
13271	7	Sololá	701	Sololá	3	Barraneche	3	Marzo	2023-11-03T00:00:00	2024-11-06T02:00:00	1	Precipitación	0
13272	7	Sololá	701	Sololá	3	Barraneche	3	Marzo	2023-11-03T00:00:00	2024-11-06T02:00:00	8	Radiación solar	0
13273	7	Sololá	701	Sololá	3	Barraneche	3	Marzo	2023-11-03T00:00:00	2024-11-06T03:00:00	2	Temperatura media	9.7
13274	7	Sololá	701	Sololá	3	Barraneche	3	Marzo	2023-11-03T00:00:00	2024-11-06T03:00:00	4	Temperatura máxima	9.7
13275	7	Sololá	701	Sololá	3	Barraneche	3	Marzo	2023-11-03T00:00:00	2024-11-06T03:00:00	3	Temperatura mínima	8.8
13276	7	Sololá	701	Sololá	3	Barraneche	3	Marzo	2023-11-03T00:00:00	2024-11-06T03:00:00	5	Humedad	70
13277	7	Sololá	701	Sololá	3	Barraneche	3	Marzo	2023-11-03T00:00:00	2024-11-06T03:00:00	6	Velocidad del viento	6.4
13278	7	Sololá	701	Sololá	3	Barraneche	3	Marzo	2023-11-03T00:00:00	2024-11-06T03:00:00	7	Dirección del viento	6.44
13279	7	Sololá	701	Sololá	3	Barraneche	3	Marzo	2023-11-03T00:00:00	2024-11-06T03:00:00	1	Precipitación	0
13280	7	Sololá	701	Sololá	3	Barraneche	3	Marzo	2023-11-03T00:00:00	2024-11-06T03:00:00	8	Radiación solar	0
13281	7	Sololá	701	Sololá	3	Barraneche	3	Marzo	2023-11-03T00:00:00	2024-11-06T04:00:00	2	Temperatura media	8.8
13282	7	Sololá	701	Sololá	3	Barraneche	3	Marzo	2023-11-03T00:00:00	2024-11-06T04:00:00	4	Temperatura máxima	10
13283	7	Sololá	701	Sololá	3	Barraneche	3	Marzo	2023-11-03T00:00:00	2024-11-06T04:00:00	3	Temperatura mínima	8.8
13284	7	Sololá	701	Sololá	3	Barraneche	3	Marzo	2023-11-03T00:00:00	2024-11-06T04:00:00	5	Humedad	70
13285	7	Sololá	701	Sololá	3	Barraneche	3	Marzo	2023-11-03T00:00:00	2024-11-06T04:00:00	6	Velocidad del viento	4.8
13286	7	Sololá	701	Sololá	3	Barraneche	3	Marzo	2023-11-03T00:00:00	2024-11-06T04:00:00	7	Dirección del viento	4.83
13287	7	Sololá	701	Sololá	3	Barraneche	3	Marzo	2023-11-03T00:00:00	2024-11-06T04:00:00	1	Precipitación	0
13288	7	Sololá	701	Sololá	3	Barraneche	3	Marzo	2023-11-03T00:00:00	2024-11-06T04:00:00	8	Radiación solar	0
13289	7	Sololá	701	Sololá	3	Barraneche	3	Marzo	2023-11-03T00:00:00	2024-11-06T05:00:00	2	Temperatura media	9.2
13290	7	Sololá	701	Sololá	3	Barraneche	3	Marzo	2023-11-03T00:00:00	2024-11-06T05:00:00	4	Temperatura máxima	9.3
13291	7	Sololá	701	Sololá	3	Barraneche	3	Marzo	2023-11-03T00:00:00	2024-11-06T05:00:00	3	Temperatura mínima	8.6
13292	7	Sololá	701	Sololá	3	Barraneche	3	Marzo	2023-11-03T00:00:00	2024-11-06T05:00:00	5	Humedad	69
13293	7	Sololá	701	Sololá	3	Barraneche	3	Marzo	2023-11-03T00:00:00	2024-11-06T05:00:00	6	Velocidad del viento	8
13294	7	Sololá	701	Sololá	3	Barraneche	3	Marzo	2023-11-03T00:00:00	2024-11-06T05:00:00	7	Dirección del viento	8.05
13295	7	Sololá	701	Sololá	3	Barraneche	3	Marzo	2023-11-03T00:00:00	2024-11-06T05:00:00	1	Precipitación	0
13296	7	Sololá	701	Sololá	3	Barraneche	3	Marzo	2023-11-03T00:00:00	2024-11-06T05:00:00	8	Radiación solar	0
13297	7	Sololá	701	Sololá	3	Barraneche	3	Marzo	2023-11-03T00:00:00	2024-11-06T06:00:00	2	Temperatura media	8.3
13298	7	Sololá	701	Sololá	3	Barraneche	3	Marzo	2023-11-03T00:00:00	2024-11-06T06:00:00	4	Temperatura máxima	9.2
13299	7	Sololá	701	Sololá	3	Barraneche	3	Marzo	2023-11-03T00:00:00	2024-11-06T06:00:00	3	Temperatura mínima	8.3
13300	7	Sololá	701	Sololá	3	Barraneche	3	Marzo	2023-11-03T00:00:00	2024-11-06T06:00:00	5	Humedad	71
13301	7	Sololá	701	Sololá	3	Barraneche	3	Marzo	2023-11-03T00:00:00	2024-11-06T06:00:00	6	Velocidad del viento	4.8
13302	7	Sololá	701	Sololá	3	Barraneche	3	Marzo	2023-11-03T00:00:00	2024-11-06T06:00:00	7	Dirección del viento	4.83
13303	7	Sololá	701	Sololá	3	Barraneche	3	Marzo	2023-11-03T00:00:00	2024-11-06T06:00:00	1	Precipitación	0
13304	7	Sololá	701	Sololá	3	Barraneche	3	Marzo	2023-11-03T00:00:00	2024-11-06T06:00:00	8	Radiación solar	0
13305	7	Sololá	701	Sololá	3	Barraneche	3	Marzo	2023-11-03T00:00:00	2024-11-06T07:00:00	2	Temperatura media	8.8
13306	7	Sololá	701	Sololá	3	Barraneche	3	Marzo	2023-11-03T00:00:00	2024-11-06T07:00:00	4	Temperatura máxima	8.8
13307	7	Sololá	701	Sololá	3	Barraneche	3	Marzo	2023-11-03T00:00:00	2024-11-06T07:00:00	3	Temperatura mínima	7.9
13308	7	Sololá	701	Sololá	3	Barraneche	3	Marzo	2023-11-03T00:00:00	2024-11-06T07:00:00	5	Humedad	71
13309	7	Sololá	701	Sololá	3	Barraneche	3	Marzo	2023-11-03T00:00:00	2024-11-06T07:00:00	6	Velocidad del viento	6.4
13310	7	Sololá	701	Sololá	3	Barraneche	3	Marzo	2023-11-03T00:00:00	2024-11-06T07:00:00	7	Dirección del viento	6.44
13311	7	Sololá	701	Sololá	3	Barraneche	3	Marzo	2023-11-03T00:00:00	2024-11-06T07:00:00	1	Precipitación	0
13312	7	Sololá	701	Sololá	3	Barraneche	3	Marzo	2023-11-03T00:00:00	2024-11-06T07:00:00	8	Radiación solar	20
13313	7	Sololá	701	Sololá	3	Barraneche	3	Marzo	2023-11-03T00:00:00	2024-11-06T08:00:00	2	Temperatura media	12.6
13314	7	Sololá	701	Sololá	3	Barraneche	3	Marzo	2023-11-03T00:00:00	2024-11-06T08:00:00	4	Temperatura máxima	12.6
13315	7	Sololá	701	Sololá	3	Barraneche	3	Marzo	2023-11-03T00:00:00	2024-11-06T08:00:00	3	Temperatura mínima	8.8
13316	7	Sololá	701	Sololá	3	Barraneche	3	Marzo	2023-11-03T00:00:00	2024-11-06T08:00:00	5	Humedad	64
13317	7	Sololá	701	Sololá	3	Barraneche	3	Marzo	2023-11-03T00:00:00	2024-11-06T08:00:00	6	Velocidad del viento	3.2
13318	7	Sololá	701	Sololá	3	Barraneche	3	Marzo	2023-11-03T00:00:00	2024-11-06T08:00:00	7	Dirección del viento	3.22
13319	7	Sololá	701	Sololá	3	Barraneche	3	Marzo	2023-11-03T00:00:00	2024-11-06T08:00:00	1	Precipitación	0
13320	7	Sololá	701	Sololá	3	Barraneche	3	Marzo	2023-11-03T00:00:00	2024-11-06T08:00:00	8	Radiación solar	224
13321	7	Sololá	701	Sololá	3	Barraneche	3	Marzo	2023-11-03T00:00:00	2024-11-06T09:00:00	2	Temperatura media	15.2
13322	7	Sololá	701	Sololá	3	Barraneche	3	Marzo	2023-11-03T00:00:00	2024-11-06T09:00:00	4	Temperatura máxima	15.3
13323	7	Sololá	701	Sololá	3	Barraneche	3	Marzo	2023-11-03T00:00:00	2024-11-06T09:00:00	3	Temperatura mínima	12.6
13324	7	Sololá	701	Sololá	3	Barraneche	3	Marzo	2023-11-03T00:00:00	2024-11-06T09:00:00	5	Humedad	63
13325	7	Sololá	701	Sololá	3	Barraneche	3	Marzo	2023-11-03T00:00:00	2024-11-06T09:00:00	6	Velocidad del viento	4.8
13326	7	Sololá	701	Sololá	3	Barraneche	3	Marzo	2023-11-03T00:00:00	2024-11-06T09:00:00	7	Dirección del viento	4.83
13327	7	Sololá	701	Sololá	3	Barraneche	3	Marzo	2023-11-03T00:00:00	2024-11-06T09:00:00	1	Precipitación	0
13328	7	Sololá	701	Sololá	3	Barraneche	3	Marzo	2023-11-03T00:00:00	2024-11-06T09:00:00	8	Radiación solar	504
13329	7	Sololá	701	Sololá	3	Barraneche	3	Marzo	2023-11-03T00:00:00	2024-11-06T10:00:00	2	Temperatura media	13.8
13330	7	Sololá	701	Sololá	3	Barraneche	3	Marzo	2023-11-03T00:00:00	2024-11-06T10:00:00	4	Temperatura máxima	15.2
13331	7	Sololá	701	Sololá	3	Barraneche	3	Marzo	2023-11-03T00:00:00	2024-11-06T10:00:00	3	Temperatura mínima	13.3
13332	7	Sololá	701	Sololá	3	Barraneche	3	Marzo	2023-11-03T00:00:00	2024-11-06T10:00:00	5	Humedad	69
13333	7	Sololá	701	Sololá	3	Barraneche	3	Marzo	2023-11-03T00:00:00	2024-11-06T10:00:00	6	Velocidad del viento	9.7
13334	7	Sololá	701	Sololá	3	Barraneche	3	Marzo	2023-11-03T00:00:00	2024-11-06T10:00:00	7	Dirección del viento	9.66
13335	7	Sololá	701	Sololá	3	Barraneche	3	Marzo	2023-11-03T00:00:00	2024-11-06T10:00:00	1	Precipitación	0
13336	7	Sololá	701	Sololá	3	Barraneche	3	Marzo	2023-11-03T00:00:00	2024-11-06T10:00:00	8	Radiación solar	289
13337	7	Sololá	701	Sololá	3	Barraneche	3	Marzo	2023-11-03T00:00:00	2024-11-06T11:00:00	2	Temperatura media	16.5
13338	7	Sololá	701	Sololá	3	Barraneche	3	Marzo	2023-11-03T00:00:00	2024-11-06T11:00:00	4	Temperatura máxima	16.5
13339	7	Sololá	701	Sololá	3	Barraneche	3	Marzo	2023-11-03T00:00:00	2024-11-06T11:00:00	3	Temperatura mínima	13.7
13340	7	Sololá	701	Sololá	3	Barraneche	3	Marzo	2023-11-03T00:00:00	2024-11-06T11:00:00	5	Humedad	61
13341	7	Sololá	701	Sololá	3	Barraneche	3	Marzo	2023-11-03T00:00:00	2024-11-06T11:00:00	6	Velocidad del viento	6.4
13342	7	Sololá	701	Sololá	3	Barraneche	3	Marzo	2023-11-03T00:00:00	2024-11-06T11:00:00	7	Dirección del viento	6.44
13343	7	Sololá	701	Sololá	3	Barraneche	3	Marzo	2023-11-03T00:00:00	2024-11-06T11:00:00	1	Precipitación	0
13344	7	Sololá	701	Sololá	3	Barraneche	3	Marzo	2023-11-03T00:00:00	2024-11-06T11:00:00	8	Radiación solar	535
13345	7	Sololá	701	Sololá	3	Barraneche	3	Marzo	2023-11-03T00:00:00	2024-11-06T12:00:00	2	Temperatura media	15.3
13346	7	Sololá	701	Sololá	3	Barraneche	3	Marzo	2023-11-03T00:00:00	2024-11-06T12:00:00	4	Temperatura máxima	16.8
13347	7	Sololá	701	Sololá	3	Barraneche	3	Marzo	2023-11-03T00:00:00	2024-11-06T12:00:00	3	Temperatura mínima	15.1
13348	7	Sololá	701	Sololá	3	Barraneche	3	Marzo	2023-11-03T00:00:00	2024-11-06T12:00:00	5	Humedad	66
13349	7	Sololá	701	Sololá	3	Barraneche	3	Marzo	2023-11-03T00:00:00	2024-11-06T12:00:00	6	Velocidad del viento	12.9
13350	7	Sololá	701	Sololá	3	Barraneche	3	Marzo	2023-11-03T00:00:00	2024-11-06T12:00:00	7	Dirección del viento	12.87
13351	7	Sololá	701	Sololá	3	Barraneche	3	Marzo	2023-11-03T00:00:00	2024-11-06T12:00:00	1	Precipitación	0
13352	7	Sololá	701	Sololá	3	Barraneche	3	Marzo	2023-11-03T00:00:00	2024-11-06T12:00:00	8	Radiación solar	522
13353	7	Sololá	701	Sololá	3	Barraneche	3	Marzo	2023-11-03T00:00:00	2024-11-06T13:00:00	2	Temperatura media	13.9
13354	7	Sololá	701	Sololá	3	Barraneche	3	Marzo	2023-11-03T00:00:00	2024-11-06T13:00:00	4	Temperatura máxima	15.3
13355	7	Sololá	701	Sololá	3	Barraneche	3	Marzo	2023-11-03T00:00:00	2024-11-06T13:00:00	3	Temperatura mínima	13.9
13356	7	Sololá	701	Sololá	3	Barraneche	3	Marzo	2023-11-03T00:00:00	2024-11-06T13:00:00	5	Humedad	71
13357	7	Sololá	701	Sololá	3	Barraneche	3	Marzo	2023-11-03T00:00:00	2024-11-06T13:00:00	6	Velocidad del viento	12.9
13358	7	Sololá	701	Sololá	3	Barraneche	3	Marzo	2023-11-03T00:00:00	2024-11-06T13:00:00	7	Dirección del viento	12.87
13359	7	Sololá	701	Sololá	3	Barraneche	3	Marzo	2023-11-03T00:00:00	2024-11-06T13:00:00	1	Precipitación	0
13360	7	Sololá	701	Sololá	3	Barraneche	3	Marzo	2023-11-03T00:00:00	2024-11-06T13:00:00	8	Radiación solar	291
13361	7	Sololá	701	Sololá	3	Barraneche	3	Marzo	2023-11-03T00:00:00	2024-11-06T14:00:00	2	Temperatura media	14
13362	7	Sololá	701	Sololá	3	Barraneche	3	Marzo	2023-11-03T00:00:00	2024-11-06T14:00:00	4	Temperatura máxima	14.8
13363	7	Sololá	701	Sololá	3	Barraneche	3	Marzo	2023-11-03T00:00:00	2024-11-06T14:00:00	3	Temperatura mínima	13.9
13364	7	Sololá	701	Sololá	3	Barraneche	3	Marzo	2023-11-03T00:00:00	2024-11-06T14:00:00	5	Humedad	71
13365	7	Sololá	701	Sololá	3	Barraneche	3	Marzo	2023-11-03T00:00:00	2024-11-06T14:00:00	6	Velocidad del viento	9.7
13366	7	Sololá	701	Sololá	3	Barraneche	3	Marzo	2023-11-03T00:00:00	2024-11-06T14:00:00	7	Dirección del viento	9.66
13367	7	Sololá	701	Sololá	3	Barraneche	3	Marzo	2023-11-03T00:00:00	2024-11-06T14:00:00	1	Precipitación	0
13368	7	Sololá	701	Sololá	3	Barraneche	3	Marzo	2023-11-03T00:00:00	2024-11-06T14:00:00	8	Radiación solar	207
13369	7	Sololá	701	Sololá	3	Barraneche	3	Marzo	2023-11-03T00:00:00	2024-11-06T15:00:00	2	Temperatura media	13.9
13370	7	Sololá	701	Sololá	3	Barraneche	3	Marzo	2023-11-03T00:00:00	2024-11-06T15:00:00	4	Temperatura máxima	14.3
13371	7	Sololá	701	Sololá	3	Barraneche	3	Marzo	2023-11-03T00:00:00	2024-11-06T15:00:00	3	Temperatura mínima	13.8
13372	7	Sololá	701	Sololá	3	Barraneche	3	Marzo	2023-11-03T00:00:00	2024-11-06T15:00:00	5	Humedad	71
13373	7	Sololá	701	Sololá	3	Barraneche	3	Marzo	2023-11-03T00:00:00	2024-11-06T15:00:00	6	Velocidad del viento	8
13374	7	Sololá	701	Sololá	3	Barraneche	3	Marzo	2023-11-03T00:00:00	2024-11-06T15:00:00	7	Dirección del viento	8.05
13375	7	Sololá	701	Sololá	3	Barraneche	3	Marzo	2023-11-03T00:00:00	2024-11-06T15:00:00	1	Precipitación	0
13376	7	Sololá	701	Sololá	3	Barraneche	3	Marzo	2023-11-03T00:00:00	2024-11-06T15:00:00	8	Radiación solar	147
13377	7	Sololá	701	Sololá	3	Barraneche	3	Marzo	2023-11-03T00:00:00	2024-11-06T16:00:00	2	Temperatura media	13.8
13378	7	Sololá	701	Sololá	3	Barraneche	3	Marzo	2023-11-03T00:00:00	2024-11-06T16:00:00	4	Temperatura máxima	14.2
13379	7	Sololá	701	Sololá	3	Barraneche	3	Marzo	2023-11-03T00:00:00	2024-11-06T16:00:00	3	Temperatura mínima	13.7
13380	7	Sololá	701	Sololá	3	Barraneche	3	Marzo	2023-11-03T00:00:00	2024-11-06T16:00:00	5	Humedad	71
13381	7	Sololá	701	Sololá	3	Barraneche	3	Marzo	2023-11-03T00:00:00	2024-11-06T16:00:00	6	Velocidad del viento	9.7
13382	7	Sololá	701	Sololá	3	Barraneche	3	Marzo	2023-11-03T00:00:00	2024-11-06T16:00:00	7	Dirección del viento	9.66
13383	7	Sololá	701	Sololá	3	Barraneche	3	Marzo	2023-11-03T00:00:00	2024-11-06T16:00:00	1	Precipitación	0
13384	7	Sololá	701	Sololá	3	Barraneche	3	Marzo	2023-11-03T00:00:00	2024-11-06T16:00:00	8	Radiación solar	143
13385	7	Sololá	701	Sololá	3	Barraneche	3	Marzo	2023-11-03T00:00:00	2024-11-06T17:00:00	2	Temperatura media	14.1
13386	7	Sololá	701	Sololá	3	Barraneche	3	Marzo	2023-11-03T00:00:00	2024-11-06T17:00:00	4	Temperatura máxima	14.2
13387	7	Sololá	701	Sololá	3	Barraneche	3	Marzo	2023-11-03T00:00:00	2024-11-06T17:00:00	3	Temperatura mínima	13.8
13388	7	Sololá	701	Sololá	3	Barraneche	3	Marzo	2023-11-03T00:00:00	2024-11-06T17:00:00	5	Humedad	70
13389	7	Sololá	701	Sololá	3	Barraneche	3	Marzo	2023-11-03T00:00:00	2024-11-06T17:00:00	6	Velocidad del viento	6.4
13390	7	Sololá	701	Sololá	3	Barraneche	3	Marzo	2023-11-03T00:00:00	2024-11-06T17:00:00	7	Dirección del viento	6.44
13391	7	Sololá	701	Sololá	3	Barraneche	3	Marzo	2023-11-03T00:00:00	2024-11-06T17:00:00	1	Precipitación	0
13392	7	Sololá	701	Sololá	3	Barraneche	3	Marzo	2023-11-03T00:00:00	2024-11-06T17:00:00	8	Radiación solar	128
13393	7	Sololá	701	Sololá	3	Barraneche	3	Marzo	2023-11-03T00:00:00	2024-11-06T18:00:00	2	Temperatura media	13.9
13394	7	Sololá	701	Sololá	3	Barraneche	3	Marzo	2023-11-03T00:00:00	2024-11-06T18:00:00	4	Temperatura máxima	14.2
13395	7	Sololá	701	Sololá	3	Barraneche	3	Marzo	2023-11-03T00:00:00	2024-11-06T18:00:00	3	Temperatura mínima	13.8
13396	7	Sololá	701	Sololá	3	Barraneche	3	Marzo	2023-11-03T00:00:00	2024-11-06T18:00:00	5	Humedad	71
13397	7	Sololá	701	Sololá	3	Barraneche	3	Marzo	2023-11-03T00:00:00	2024-11-06T18:00:00	6	Velocidad del viento	4.8
13398	7	Sololá	701	Sololá	3	Barraneche	3	Marzo	2023-11-03T00:00:00	2024-11-06T18:00:00	7	Dirección del viento	4.83
13399	7	Sololá	701	Sololá	3	Barraneche	3	Marzo	2023-11-03T00:00:00	2024-11-06T18:00:00	1	Precipitación	0
13400	7	Sololá	701	Sololá	3	Barraneche	3	Marzo	2023-11-03T00:00:00	2024-11-06T18:00:00	8	Radiación solar	69
13401	7	Sololá	701	Sololá	3	Barraneche	3	Marzo	2023-11-03T00:00:00	2024-11-06T19:00:00	2	Temperatura media	13.2
13402	7	Sololá	701	Sololá	3	Barraneche	3	Marzo	2023-11-03T00:00:00	2024-11-06T19:00:00	4	Temperatura máxima	13.9
13403	7	Sololá	701	Sololá	3	Barraneche	3	Marzo	2023-11-03T00:00:00	2024-11-06T19:00:00	3	Temperatura mínima	13.2
13404	7	Sololá	701	Sololá	3	Barraneche	3	Marzo	2023-11-03T00:00:00	2024-11-06T19:00:00	5	Humedad	76
13405	7	Sololá	701	Sololá	3	Barraneche	3	Marzo	2023-11-03T00:00:00	2024-11-06T19:00:00	6	Velocidad del viento	4.8
13406	7	Sololá	701	Sololá	3	Barraneche	3	Marzo	2023-11-03T00:00:00	2024-11-06T19:00:00	7	Dirección del viento	4.83
13407	7	Sololá	701	Sololá	3	Barraneche	3	Marzo	2023-11-03T00:00:00	2024-11-06T19:00:00	1	Precipitación	0
13408	7	Sololá	701	Sololá	3	Barraneche	3	Marzo	2023-11-03T00:00:00	2024-11-06T19:00:00	8	Radiación solar	0
13409	7	Sololá	701	Sololá	3	Barraneche	3	Marzo	2023-11-03T00:00:00	2024-11-06T20:00:00	2	Temperatura media	12.9
13410	7	Sololá	701	Sololá	3	Barraneche	3	Marzo	2023-11-03T00:00:00	2024-11-06T20:00:00	4	Temperatura máxima	13.3
13411	7	Sololá	701	Sololá	3	Barraneche	3	Marzo	2023-11-03T00:00:00	2024-11-06T20:00:00	3	Temperatura mínima	12.9
13412	7	Sololá	701	Sololá	3	Barraneche	3	Marzo	2023-11-03T00:00:00	2024-11-06T20:00:00	5	Humedad	77
13413	7	Sololá	701	Sololá	3	Barraneche	3	Marzo	2023-11-03T00:00:00	2024-11-06T20:00:00	6	Velocidad del viento	1.6
13414	7	Sololá	701	Sololá	3	Barraneche	3	Marzo	2023-11-03T00:00:00	2024-11-06T20:00:00	7	Dirección del viento	1.61
13415	7	Sololá	701	Sololá	3	Barraneche	3	Marzo	2023-11-03T00:00:00	2024-11-06T20:00:00	1	Precipitación	0
13416	7	Sololá	701	Sololá	3	Barraneche	3	Marzo	2023-11-03T00:00:00	2024-11-06T20:00:00	8	Radiación solar	0
13417	7	Sololá	701	Sololá	3	Barraneche	3	Marzo	2023-11-03T00:00:00	2024-11-06T21:00:00	2	Temperatura media	12.7
13418	7	Sololá	701	Sololá	3	Barraneche	3	Marzo	2023-11-03T00:00:00	2024-11-06T21:00:00	4	Temperatura máxima	12.9
13419	7	Sololá	701	Sololá	3	Barraneche	3	Marzo	2023-11-03T00:00:00	2024-11-06T21:00:00	3	Temperatura mínima	12.7
13420	7	Sololá	701	Sololá	3	Barraneche	3	Marzo	2023-11-03T00:00:00	2024-11-06T21:00:00	5	Humedad	77
13421	7	Sololá	701	Sololá	3	Barraneche	3	Marzo	2023-11-03T00:00:00	2024-11-06T21:00:00	6	Velocidad del viento	1.6
13422	7	Sololá	701	Sololá	3	Barraneche	3	Marzo	2023-11-03T00:00:00	2024-11-06T21:00:00	7	Dirección del viento	1.61
13423	7	Sololá	701	Sololá	3	Barraneche	3	Marzo	2023-11-03T00:00:00	2024-11-06T21:00:00	1	Precipitación	0
13424	7	Sololá	701	Sololá	3	Barraneche	3	Marzo	2023-11-03T00:00:00	2024-11-06T21:00:00	8	Radiación solar	0
13425	7	Sololá	701	Sololá	3	Barraneche	3	Marzo	2023-11-03T00:00:00	2024-11-06T22:00:00	2	Temperatura media	12.7
13426	7	Sololá	701	Sololá	3	Barraneche	3	Marzo	2023-11-03T00:00:00	2024-11-06T22:00:00	4	Temperatura máxima	12.8
13427	7	Sololá	701	Sololá	3	Barraneche	3	Marzo	2023-11-03T00:00:00	2024-11-06T22:00:00	3	Temperatura mínima	12.6
13428	7	Sololá	701	Sololá	3	Barraneche	3	Marzo	2023-11-03T00:00:00	2024-11-06T22:00:00	5	Humedad	77
13429	7	Sololá	701	Sololá	3	Barraneche	3	Marzo	2023-11-03T00:00:00	2024-11-06T22:00:00	6	Velocidad del viento	1.6
13430	7	Sololá	701	Sololá	3	Barraneche	3	Marzo	2023-11-03T00:00:00	2024-11-06T22:00:00	7	Dirección del viento	1.61
13431	7	Sololá	701	Sololá	3	Barraneche	3	Marzo	2023-11-03T00:00:00	2024-11-06T22:00:00	1	Precipitación	0
13432	7	Sololá	701	Sololá	3	Barraneche	3	Marzo	2023-11-03T00:00:00	2024-11-06T22:00:00	8	Radiación solar	0
13433	7	Sololá	701	Sololá	3	Barraneche	3	Marzo	2023-11-03T00:00:00	2024-11-06T23:00:00	2	Temperatura media	12.3
13434	7	Sololá	701	Sololá	3	Barraneche	3	Marzo	2023-11-03T00:00:00	2024-11-06T23:00:00	4	Temperatura máxima	12.8
13435	7	Sololá	701	Sololá	3	Barraneche	3	Marzo	2023-11-03T00:00:00	2024-11-06T23:00:00	3	Temperatura mínima	12.3
13436	7	Sololá	701	Sololá	3	Barraneche	3	Marzo	2023-11-03T00:00:00	2024-11-06T23:00:00	5	Humedad	76
13437	7	Sololá	701	Sololá	3	Barraneche	3	Marzo	2023-11-03T00:00:00	2024-11-06T23:00:00	6	Velocidad del viento	1.6
13438	7	Sololá	701	Sololá	3	Barraneche	3	Marzo	2023-11-03T00:00:00	2024-11-06T23:00:00	7	Dirección del viento	1.61
13439	7	Sololá	701	Sololá	3	Barraneche	3	Marzo	2023-11-03T00:00:00	2024-11-06T23:00:00	1	Precipitación	0
13440	7	Sololá	701	Sololá	3	Barraneche	3	Marzo	2023-11-03T00:00:00	2024-11-06T23:00:00	8	Radiación solar	0
13441	7	Sololá	701	Sololá	3	Barraneche	3	Marzo	2023-12-03T00:00:00	2024-11-06T00:00:00	2	Temperatura media	12.3
13442	7	Sololá	701	Sololá	3	Barraneche	3	Marzo	2023-12-03T00:00:00	2024-11-06T00:00:00	4	Temperatura máxima	12.4
13443	7	Sololá	701	Sololá	3	Barraneche	3	Marzo	2023-12-03T00:00:00	2024-11-06T00:00:00	3	Temperatura mínima	12.3
13444	7	Sololá	701	Sololá	3	Barraneche	3	Marzo	2023-12-03T00:00:00	2024-11-06T00:00:00	5	Humedad	76
13445	7	Sololá	701	Sololá	3	Barraneche	3	Marzo	2023-12-03T00:00:00	2024-11-06T00:00:00	6	Velocidad del viento	1.6
13446	7	Sololá	701	Sololá	3	Barraneche	3	Marzo	2023-12-03T00:00:00	2024-11-06T00:00:00	7	Dirección del viento	1.61
13447	7	Sololá	701	Sololá	3	Barraneche	3	Marzo	2023-12-03T00:00:00	2024-11-06T00:00:00	1	Precipitación	0
13448	7	Sololá	701	Sololá	3	Barraneche	3	Marzo	2023-12-03T00:00:00	2024-11-06T00:00:00	8	Radiación solar	0
13449	7	Sololá	701	Sololá	3	Barraneche	3	Marzo	2023-12-03T00:00:00	2024-11-06T01:00:00	2	Temperatura media	11.9
13450	7	Sololá	701	Sololá	3	Barraneche	3	Marzo	2023-12-03T00:00:00	2024-11-06T01:00:00	4	Temperatura máxima	12.4
13451	7	Sololá	701	Sololá	3	Barraneche	3	Marzo	2023-12-03T00:00:00	2024-11-06T01:00:00	3	Temperatura mínima	11.9
13452	7	Sololá	701	Sololá	3	Barraneche	3	Marzo	2023-12-03T00:00:00	2024-11-06T01:00:00	5	Humedad	77
13453	7	Sololá	701	Sololá	3	Barraneche	3	Marzo	2023-12-03T00:00:00	2024-11-06T01:00:00	6	Velocidad del viento	1.6
13454	7	Sololá	701	Sololá	3	Barraneche	3	Marzo	2023-12-03T00:00:00	2024-11-06T01:00:00	7	Dirección del viento	1.61
13455	7	Sololá	701	Sololá	3	Barraneche	3	Marzo	2023-12-03T00:00:00	2024-11-06T01:00:00	1	Precipitación	0
13456	7	Sololá	701	Sololá	3	Barraneche	3	Marzo	2023-12-03T00:00:00	2024-11-06T01:00:00	8	Radiación solar	0
13457	7	Sololá	701	Sololá	3	Barraneche	3	Marzo	2023-12-03T00:00:00	2024-11-06T02:00:00	2	Temperatura media	11.7
13458	7	Sololá	701	Sololá	3	Barraneche	3	Marzo	2023-12-03T00:00:00	2024-11-06T02:00:00	4	Temperatura máxima	11.9
13459	7	Sololá	701	Sololá	3	Barraneche	3	Marzo	2023-12-03T00:00:00	2024-11-06T02:00:00	3	Temperatura mínima	11.6
13460	7	Sololá	701	Sololá	3	Barraneche	3	Marzo	2023-12-03T00:00:00	2024-11-06T02:00:00	5	Humedad	85
13461	7	Sololá	701	Sololá	3	Barraneche	3	Marzo	2023-12-03T00:00:00	2024-11-06T02:00:00	6	Velocidad del viento	3.2
13462	7	Sololá	701	Sololá	3	Barraneche	3	Marzo	2023-12-03T00:00:00	2024-11-06T02:00:00	7	Dirección del viento	3.22
13463	7	Sololá	701	Sololá	3	Barraneche	3	Marzo	2023-12-03T00:00:00	2024-11-06T02:00:00	1	Precipitación	0
13464	7	Sololá	701	Sololá	3	Barraneche	3	Marzo	2023-12-03T00:00:00	2024-11-06T02:00:00	8	Radiación solar	0
13465	7	Sololá	701	Sololá	3	Barraneche	3	Marzo	2023-12-03T00:00:00	2024-11-06T03:00:00	2	Temperatura media	11.8
13466	7	Sololá	701	Sololá	3	Barraneche	3	Marzo	2023-12-03T00:00:00	2024-11-06T03:00:00	4	Temperatura máxima	11.8
13467	7	Sololá	701	Sololá	3	Barraneche	3	Marzo	2023-12-03T00:00:00	2024-11-06T03:00:00	3	Temperatura mínima	11.6
13468	7	Sololá	701	Sololá	3	Barraneche	3	Marzo	2023-12-03T00:00:00	2024-11-06T03:00:00	5	Humedad	82
13469	7	Sololá	701	Sololá	3	Barraneche	3	Marzo	2023-12-03T00:00:00	2024-11-06T03:00:00	6	Velocidad del viento	1.6
13470	7	Sololá	701	Sololá	3	Barraneche	3	Marzo	2023-12-03T00:00:00	2024-11-06T03:00:00	7	Dirección del viento	1.61
13471	7	Sololá	701	Sololá	3	Barraneche	3	Marzo	2023-12-03T00:00:00	2024-11-06T03:00:00	1	Precipitación	0
13472	7	Sololá	701	Sololá	3	Barraneche	3	Marzo	2023-12-03T00:00:00	2024-11-06T03:00:00	8	Radiación solar	0
13473	7	Sololá	701	Sololá	3	Barraneche	3	Marzo	2023-12-03T00:00:00	2024-11-06T04:00:00	2	Temperatura media	11.8
13474	7	Sololá	701	Sololá	3	Barraneche	3	Marzo	2023-12-03T00:00:00	2024-11-06T04:00:00	4	Temperatura máxima	11.9
13475	7	Sololá	701	Sololá	3	Barraneche	3	Marzo	2023-12-03T00:00:00	2024-11-06T04:00:00	3	Temperatura mínima	11.8
13476	7	Sololá	701	Sololá	3	Barraneche	3	Marzo	2023-12-03T00:00:00	2024-11-06T04:00:00	5	Humedad	83
13477	7	Sololá	701	Sololá	3	Barraneche	3	Marzo	2023-12-03T00:00:00	2024-11-06T04:00:00	6	Velocidad del viento	0
13478	7	Sololá	701	Sololá	3	Barraneche	3	Marzo	2023-12-03T00:00:00	2024-11-06T04:00:00	7	Dirección del viento	0
13479	7	Sololá	701	Sololá	3	Barraneche	3	Marzo	2023-12-03T00:00:00	2024-11-06T04:00:00	1	Precipitación	0
13480	7	Sololá	701	Sololá	3	Barraneche	3	Marzo	2023-12-03T00:00:00	2024-11-06T04:00:00	8	Radiación solar	0
13481	7	Sololá	701	Sololá	3	Barraneche	3	Marzo	2023-12-03T00:00:00	2024-11-06T05:00:00	2	Temperatura media	11.7
13482	7	Sololá	701	Sololá	3	Barraneche	3	Marzo	2023-12-03T00:00:00	2024-11-06T05:00:00	4	Temperatura máxima	11.8
13483	7	Sololá	701	Sololá	3	Barraneche	3	Marzo	2023-12-03T00:00:00	2024-11-06T05:00:00	3	Temperatura mínima	11.7
13484	7	Sololá	701	Sololá	3	Barraneche	3	Marzo	2023-12-03T00:00:00	2024-11-06T05:00:00	5	Humedad	84
13485	7	Sololá	701	Sololá	3	Barraneche	3	Marzo	2023-12-03T00:00:00	2024-11-06T05:00:00	6	Velocidad del viento	0
13486	7	Sololá	701	Sololá	3	Barraneche	3	Marzo	2023-12-03T00:00:00	2024-11-06T05:00:00	7	Dirección del viento	0
13487	7	Sololá	701	Sololá	3	Barraneche	3	Marzo	2023-12-03T00:00:00	2024-11-06T05:00:00	1	Precipitación	0
13488	7	Sololá	701	Sololá	3	Barraneche	3	Marzo	2023-12-03T00:00:00	2024-11-06T05:00:00	8	Radiación solar	0
13489	7	Sololá	701	Sololá	3	Barraneche	3	Marzo	2023-12-03T00:00:00	2024-11-06T06:00:00	2	Temperatura media	11.7
13490	7	Sololá	701	Sololá	3	Barraneche	3	Marzo	2023-12-03T00:00:00	2024-11-06T06:00:00	4	Temperatura máxima	11.7
13491	7	Sololá	701	Sololá	3	Barraneche	3	Marzo	2023-12-03T00:00:00	2024-11-06T06:00:00	3	Temperatura mínima	11.5
13492	7	Sololá	701	Sololá	3	Barraneche	3	Marzo	2023-12-03T00:00:00	2024-11-06T06:00:00	5	Humedad	84
13493	7	Sololá	701	Sololá	3	Barraneche	3	Marzo	2023-12-03T00:00:00	2024-11-06T06:00:00	6	Velocidad del viento	0
13494	7	Sololá	701	Sololá	3	Barraneche	3	Marzo	2023-12-03T00:00:00	2024-11-06T06:00:00	7	Dirección del viento	0
13495	7	Sololá	701	Sololá	3	Barraneche	3	Marzo	2023-12-03T00:00:00	2024-11-06T06:00:00	1	Precipitación	0
13496	7	Sololá	701	Sololá	3	Barraneche	3	Marzo	2023-12-03T00:00:00	2024-11-06T06:00:00	8	Radiación solar	0
13497	7	Sololá	701	Sololá	3	Barraneche	3	Marzo	2023-12-03T00:00:00	2024-11-06T07:00:00	2	Temperatura media	11.7
13498	7	Sololá	701	Sololá	3	Barraneche	3	Marzo	2023-12-03T00:00:00	2024-11-06T07:00:00	4	Temperatura máxima	11.7
13499	7	Sololá	701	Sololá	3	Barraneche	3	Marzo	2023-12-03T00:00:00	2024-11-06T07:00:00	3	Temperatura mínima	11.4
13500	7	Sololá	701	Sololá	3	Barraneche	3	Marzo	2023-12-03T00:00:00	2024-11-06T07:00:00	5	Humedad	85
13501	7	Sololá	701	Sololá	3	Barraneche	3	Marzo	2023-12-03T00:00:00	2024-11-06T07:00:00	6	Velocidad del viento	0
13502	7	Sololá	701	Sololá	3	Barraneche	3	Marzo	2023-12-03T00:00:00	2024-11-06T07:00:00	7	Dirección del viento	0
13503	7	Sololá	701	Sololá	3	Barraneche	3	Marzo	2023-12-03T00:00:00	2024-11-06T07:00:00	1	Precipitación	0
13504	7	Sololá	701	Sololá	3	Barraneche	3	Marzo	2023-12-03T00:00:00	2024-11-06T07:00:00	8	Radiación solar	8
13505	7	Sololá	701	Sololá	3	Barraneche	3	Marzo	2023-12-03T00:00:00	2024-11-06T08:00:00	2	Temperatura media	12.1
13506	7	Sololá	701	Sololá	3	Barraneche	3	Marzo	2023-12-03T00:00:00	2024-11-06T08:00:00	4	Temperatura máxima	12.1
13507	7	Sololá	701	Sololá	3	Barraneche	3	Marzo	2023-12-03T00:00:00	2024-11-06T08:00:00	3	Temperatura mínima	11.6
13508	7	Sololá	701	Sololá	3	Barraneche	3	Marzo	2023-12-03T00:00:00	2024-11-06T08:00:00	5	Humedad	84
13509	7	Sololá	701	Sololá	3	Barraneche	3	Marzo	2023-12-03T00:00:00	2024-11-06T08:00:00	6	Velocidad del viento	3.2
13510	7	Sololá	701	Sololá	3	Barraneche	3	Marzo	2023-12-03T00:00:00	2024-11-06T08:00:00	7	Dirección del viento	3.22
13511	7	Sololá	701	Sololá	3	Barraneche	3	Marzo	2023-12-03T00:00:00	2024-11-06T08:00:00	1	Precipitación	0
13512	7	Sololá	701	Sololá	3	Barraneche	3	Marzo	2023-12-03T00:00:00	2024-11-06T08:00:00	8	Radiación solar	72
13513	7	Sololá	701	Sololá	3	Barraneche	3	Marzo	2023-12-03T00:00:00	2024-11-06T09:00:00	2	Temperatura media	11.9
13514	7	Sololá	701	Sololá	3	Barraneche	3	Marzo	2023-12-03T00:00:00	2024-11-06T09:00:00	4	Temperatura máxima	12.4
13515	7	Sololá	701	Sololá	3	Barraneche	3	Marzo	2023-12-03T00:00:00	2024-11-06T09:00:00	3	Temperatura mínima	11.7
13516	7	Sololá	701	Sololá	3	Barraneche	3	Marzo	2023-12-03T00:00:00	2024-11-06T09:00:00	5	Humedad	85
13517	7	Sololá	701	Sololá	3	Barraneche	3	Marzo	2023-12-03T00:00:00	2024-11-06T09:00:00	6	Velocidad del viento	4.8
13518	7	Sololá	701	Sololá	3	Barraneche	3	Marzo	2023-12-03T00:00:00	2024-11-06T09:00:00	7	Dirección del viento	4.83
13519	7	Sololá	701	Sololá	3	Barraneche	3	Marzo	2023-12-03T00:00:00	2024-11-06T09:00:00	1	Precipitación	0
13520	7	Sololá	701	Sololá	3	Barraneche	3	Marzo	2023-12-03T00:00:00	2024-11-06T09:00:00	8	Radiación solar	119
13521	7	Sololá	701	Sololá	3	Barraneche	3	Marzo	2023-12-03T00:00:00	2024-11-06T10:00:00	2	Temperatura media	12.9
13522	7	Sololá	701	Sololá	3	Barraneche	3	Marzo	2023-12-03T00:00:00	2024-11-06T10:00:00	4	Temperatura máxima	12.9
13523	7	Sololá	701	Sololá	3	Barraneche	3	Marzo	2023-12-03T00:00:00	2024-11-06T10:00:00	3	Temperatura mínima	11.9
13524	7	Sololá	701	Sololá	3	Barraneche	3	Marzo	2023-12-03T00:00:00	2024-11-06T10:00:00	5	Humedad	80
13525	7	Sololá	701	Sololá	3	Barraneche	3	Marzo	2023-12-03T00:00:00	2024-11-06T10:00:00	6	Velocidad del viento	6.4
13526	7	Sololá	701	Sololá	3	Barraneche	3	Marzo	2023-12-03T00:00:00	2024-11-06T10:00:00	7	Dirección del viento	6.44
13527	7	Sololá	701	Sololá	3	Barraneche	3	Marzo	2023-12-03T00:00:00	2024-11-06T10:00:00	1	Precipitación	0
13528	7	Sololá	701	Sololá	3	Barraneche	3	Marzo	2023-12-03T00:00:00	2024-11-06T10:00:00	8	Radiación solar	252
13529	7	Sololá	701	Sololá	3	Barraneche	3	Marzo	2023-12-03T00:00:00	2024-11-06T11:00:00	2	Temperatura media	14.5
13530	7	Sololá	701	Sololá	3	Barraneche	3	Marzo	2023-12-03T00:00:00	2024-11-06T11:00:00	4	Temperatura máxima	14.9
13531	7	Sololá	701	Sololá	3	Barraneche	3	Marzo	2023-12-03T00:00:00	2024-11-06T11:00:00	3	Temperatura mínima	12.9
13532	7	Sololá	701	Sololá	3	Barraneche	3	Marzo	2023-12-03T00:00:00	2024-11-06T11:00:00	5	Humedad	72
13533	7	Sololá	701	Sololá	3	Barraneche	3	Marzo	2023-12-03T00:00:00	2024-11-06T11:00:00	6	Velocidad del viento	8
13534	7	Sololá	701	Sololá	3	Barraneche	3	Marzo	2023-12-03T00:00:00	2024-11-06T11:00:00	7	Dirección del viento	8.05
13535	7	Sololá	701	Sololá	3	Barraneche	3	Marzo	2023-12-03T00:00:00	2024-11-06T11:00:00	1	Precipitación	0
13536	7	Sololá	701	Sololá	3	Barraneche	3	Marzo	2023-12-03T00:00:00	2024-11-06T11:00:00	8	Radiación solar	368
13537	7	Sololá	701	Sololá	3	Barraneche	3	Marzo	2023-12-03T00:00:00	2024-11-06T12:00:00	2	Temperatura media	13.1
13538	7	Sololá	701	Sololá	3	Barraneche	3	Marzo	2023-12-03T00:00:00	2024-11-06T12:00:00	4	Temperatura máxima	14.5
13539	7	Sololá	701	Sololá	3	Barraneche	3	Marzo	2023-12-03T00:00:00	2024-11-06T12:00:00	3	Temperatura mínima	13.1
13540	7	Sololá	701	Sololá	3	Barraneche	3	Marzo	2023-12-03T00:00:00	2024-11-06T12:00:00	5	Humedad	75
13541	7	Sololá	701	Sololá	3	Barraneche	3	Marzo	2023-12-03T00:00:00	2024-11-06T12:00:00	6	Velocidad del viento	9.7
13542	7	Sololá	701	Sololá	3	Barraneche	3	Marzo	2023-12-03T00:00:00	2024-11-06T12:00:00	7	Dirección del viento	9.66
13543	7	Sololá	701	Sololá	3	Barraneche	3	Marzo	2023-12-03T00:00:00	2024-11-06T12:00:00	1	Precipitación	0
13544	7	Sololá	701	Sololá	3	Barraneche	3	Marzo	2023-12-03T00:00:00	2024-11-06T12:00:00	8	Radiación solar	131
13545	7	Sololá	701	Sololá	3	Barraneche	3	Marzo	2023-12-03T00:00:00	2024-11-06T13:00:00	2	Temperatura media	12.7
13546	7	Sololá	701	Sololá	3	Barraneche	3	Marzo	2023-12-03T00:00:00	2024-11-06T13:00:00	4	Temperatura máxima	13.1
13547	7	Sololá	701	Sololá	3	Barraneche	3	Marzo	2023-12-03T00:00:00	2024-11-06T13:00:00	3	Temperatura mínima	12.6
13548	7	Sololá	701	Sololá	3	Barraneche	3	Marzo	2023-12-03T00:00:00	2024-11-06T13:00:00	5	Humedad	77
13549	7	Sololá	701	Sololá	3	Barraneche	3	Marzo	2023-12-03T00:00:00	2024-11-06T13:00:00	6	Velocidad del viento	6.4
13550	7	Sololá	701	Sololá	3	Barraneche	3	Marzo	2023-12-03T00:00:00	2024-11-06T13:00:00	7	Dirección del viento	6.44
13551	7	Sololá	701	Sololá	3	Barraneche	3	Marzo	2023-12-03T00:00:00	2024-11-06T13:00:00	1	Precipitación	0
13552	7	Sololá	701	Sololá	3	Barraneche	3	Marzo	2023-12-03T00:00:00	2024-11-06T13:00:00	8	Radiación solar	55
13553	7	Sololá	701	Sololá	3	Barraneche	3	Marzo	2023-12-03T00:00:00	2024-11-06T14:00:00	2	Temperatura media	13.1
13554	7	Sololá	701	Sololá	3	Barraneche	3	Marzo	2023-12-03T00:00:00	2024-11-06T14:00:00	4	Temperatura máxima	13.1
13555	7	Sololá	701	Sololá	3	Barraneche	3	Marzo	2023-12-03T00:00:00	2024-11-06T14:00:00	3	Temperatura mínima	12.7
13556	7	Sololá	701	Sololá	3	Barraneche	3	Marzo	2023-12-03T00:00:00	2024-11-06T14:00:00	5	Humedad	76
13557	7	Sololá	701	Sololá	3	Barraneche	3	Marzo	2023-12-03T00:00:00	2024-11-06T14:00:00	6	Velocidad del viento	3.2
13558	7	Sololá	701	Sololá	3	Barraneche	3	Marzo	2023-12-03T00:00:00	2024-11-06T14:00:00	7	Dirección del viento	3.22
13559	7	Sololá	701	Sololá	3	Barraneche	3	Marzo	2023-12-03T00:00:00	2024-11-06T14:00:00	1	Precipitación	0
13560	7	Sololá	701	Sololá	3	Barraneche	3	Marzo	2023-12-03T00:00:00	2024-11-06T14:00:00	8	Radiación solar	53
13561	7	Sololá	701	Sololá	3	Barraneche	3	Marzo	2023-12-03T00:00:00	2024-11-06T15:00:00	2	Temperatura media	13.6
13562	7	Sololá	701	Sololá	3	Barraneche	3	Marzo	2023-12-03T00:00:00	2024-11-06T15:00:00	4	Temperatura máxima	13.6
13563	7	Sololá	701	Sololá	3	Barraneche	3	Marzo	2023-12-03T00:00:00	2024-11-06T15:00:00	3	Temperatura mínima	13.1
13564	7	Sololá	701	Sololá	3	Barraneche	3	Marzo	2023-12-03T00:00:00	2024-11-06T15:00:00	5	Humedad	74
13565	7	Sololá	701	Sololá	3	Barraneche	3	Marzo	2023-12-03T00:00:00	2024-11-06T15:00:00	6	Velocidad del viento	3.2
13566	7	Sololá	701	Sololá	3	Barraneche	3	Marzo	2023-12-03T00:00:00	2024-11-06T15:00:00	7	Dirección del viento	3.22
13567	7	Sololá	701	Sololá	3	Barraneche	3	Marzo	2023-12-03T00:00:00	2024-11-06T15:00:00	1	Precipitación	0
13568	7	Sololá	701	Sololá	3	Barraneche	3	Marzo	2023-12-03T00:00:00	2024-11-06T15:00:00	8	Radiación solar	97
13569	7	Sololá	701	Sololá	3	Barraneche	3	Marzo	2023-12-03T00:00:00	2024-11-06T16:00:00	2	Temperatura media	13.1
13570	7	Sololá	701	Sololá	3	Barraneche	3	Marzo	2023-12-03T00:00:00	2024-11-06T16:00:00	4	Temperatura máxima	13.6
13571	7	Sololá	701	Sololá	3	Barraneche	3	Marzo	2023-12-03T00:00:00	2024-11-06T16:00:00	3	Temperatura mínima	13.1
13572	7	Sololá	701	Sololá	3	Barraneche	3	Marzo	2023-12-03T00:00:00	2024-11-06T16:00:00	5	Humedad	76
13573	7	Sololá	701	Sololá	3	Barraneche	3	Marzo	2023-12-03T00:00:00	2024-11-06T16:00:00	6	Velocidad del viento	4.8
13574	7	Sololá	701	Sololá	3	Barraneche	3	Marzo	2023-12-03T00:00:00	2024-11-06T16:00:00	7	Dirección del viento	4.83
13575	7	Sololá	701	Sololá	3	Barraneche	3	Marzo	2023-12-03T00:00:00	2024-11-06T16:00:00	1	Precipitación	0
13576	7	Sololá	701	Sololá	3	Barraneche	3	Marzo	2023-12-03T00:00:00	2024-11-06T16:00:00	8	Radiación solar	55
13577	7	Sololá	701	Sololá	3	Barraneche	3	Marzo	2023-12-03T00:00:00	2024-11-06T17:00:00	2	Temperatura media	12.8
13578	7	Sololá	701	Sololá	3	Barraneche	3	Marzo	2023-12-03T00:00:00	2024-11-06T17:00:00	4	Temperatura máxima	13.1
13579	7	Sololá	701	Sololá	3	Barraneche	3	Marzo	2023-12-03T00:00:00	2024-11-06T17:00:00	3	Temperatura mínima	12.8
13580	7	Sololá	701	Sololá	3	Barraneche	3	Marzo	2023-12-03T00:00:00	2024-11-06T17:00:00	5	Humedad	83
13581	7	Sololá	701	Sololá	3	Barraneche	3	Marzo	2023-12-03T00:00:00	2024-11-06T17:00:00	6	Velocidad del viento	3.2
13582	7	Sololá	701	Sololá	3	Barraneche	3	Marzo	2023-12-03T00:00:00	2024-11-06T17:00:00	7	Dirección del viento	3.22
13583	7	Sololá	701	Sololá	3	Barraneche	3	Marzo	2023-12-03T00:00:00	2024-11-06T17:00:00	1	Precipitación	0.2
13584	7	Sololá	701	Sololá	3	Barraneche	3	Marzo	2023-12-03T00:00:00	2024-11-06T17:00:00	8	Radiación solar	10
13585	7	Sololá	701	Sololá	3	Barraneche	3	Marzo	2023-12-03T00:00:00	2024-11-06T18:00:00	2	Temperatura media	12.8
13586	7	Sololá	701	Sololá	3	Barraneche	3	Marzo	2023-12-03T00:00:00	2024-11-06T18:00:00	4	Temperatura máxima	12.8
13587	7	Sololá	701	Sololá	3	Barraneche	3	Marzo	2023-12-03T00:00:00	2024-11-06T18:00:00	3	Temperatura mínima	12.7
13588	7	Sololá	701	Sololá	3	Barraneche	3	Marzo	2023-12-03T00:00:00	2024-11-06T18:00:00	5	Humedad	85
13589	7	Sololá	701	Sololá	3	Barraneche	3	Marzo	2023-12-03T00:00:00	2024-11-06T18:00:00	6	Velocidad del viento	1.6
13590	7	Sololá	701	Sololá	3	Barraneche	3	Marzo	2023-12-03T00:00:00	2024-11-06T18:00:00	7	Dirección del viento	1.61
13591	7	Sololá	701	Sololá	3	Barraneche	3	Marzo	2023-12-03T00:00:00	2024-11-06T18:00:00	1	Precipitación	0.2
13592	7	Sololá	701	Sololá	3	Barraneche	3	Marzo	2023-12-03T00:00:00	2024-11-06T18:00:00	8	Radiación solar	19
13593	7	Sololá	701	Sololá	3	Barraneche	3	Marzo	2023-12-03T00:00:00	2024-11-06T19:00:00	2	Temperatura media	12.8
13594	7	Sololá	701	Sololá	3	Barraneche	3	Marzo	2023-12-03T00:00:00	2024-11-06T19:00:00	4	Temperatura máxima	12.9
13595	7	Sololá	701	Sololá	3	Barraneche	3	Marzo	2023-12-03T00:00:00	2024-11-06T19:00:00	3	Temperatura mínima	12.7
13596	7	Sololá	701	Sololá	3	Barraneche	3	Marzo	2023-12-03T00:00:00	2024-11-06T19:00:00	5	Humedad	85
13597	7	Sololá	701	Sololá	3	Barraneche	3	Marzo	2023-12-03T00:00:00	2024-11-06T19:00:00	6	Velocidad del viento	1.6
13598	7	Sololá	701	Sololá	3	Barraneche	3	Marzo	2023-12-03T00:00:00	2024-11-06T19:00:00	7	Dirección del viento	1.61
13599	7	Sololá	701	Sololá	3	Barraneche	3	Marzo	2023-12-03T00:00:00	2024-11-06T19:00:00	1	Precipitación	0
13600	7	Sololá	701	Sololá	3	Barraneche	3	Marzo	2023-12-03T00:00:00	2024-11-06T19:00:00	8	Radiación solar	0
13601	7	Sololá	701	Sololá	3	Barraneche	3	Marzo	2023-12-03T00:00:00	2024-11-06T20:00:00	2	Temperatura media	12
13602	7	Sololá	701	Sololá	3	Barraneche	3	Marzo	2023-12-03T00:00:00	2024-11-06T20:00:00	4	Temperatura máxima	12.7
13603	7	Sololá	701	Sololá	3	Barraneche	3	Marzo	2023-12-03T00:00:00	2024-11-06T20:00:00	3	Temperatura mínima	11.9
13604	7	Sololá	701	Sololá	3	Barraneche	3	Marzo	2023-12-03T00:00:00	2024-11-06T20:00:00	5	Humedad	84
13605	7	Sololá	701	Sololá	3	Barraneche	3	Marzo	2023-12-03T00:00:00	2024-11-06T20:00:00	6	Velocidad del viento	1.6
13606	7	Sololá	701	Sololá	3	Barraneche	3	Marzo	2023-12-03T00:00:00	2024-11-06T20:00:00	7	Dirección del viento	1.61
13607	7	Sololá	701	Sololá	3	Barraneche	3	Marzo	2023-12-03T00:00:00	2024-11-06T20:00:00	1	Precipitación	0
13608	7	Sololá	701	Sololá	3	Barraneche	3	Marzo	2023-12-03T00:00:00	2024-11-06T20:00:00	8	Radiación solar	0
13609	7	Sololá	701	Sololá	3	Barraneche	3	Marzo	2023-12-03T00:00:00	2024-11-06T21:00:00	2	Temperatura media	12.3
13610	7	Sololá	701	Sololá	3	Barraneche	3	Marzo	2023-12-03T00:00:00	2024-11-06T21:00:00	4	Temperatura máxima	12.4
13611	7	Sololá	701	Sololá	3	Barraneche	3	Marzo	2023-12-03T00:00:00	2024-11-06T21:00:00	3	Temperatura mínima	11.9
13612	7	Sololá	701	Sololá	3	Barraneche	3	Marzo	2023-12-03T00:00:00	2024-11-06T21:00:00	5	Humedad	82
13613	7	Sololá	701	Sololá	3	Barraneche	3	Marzo	2023-12-03T00:00:00	2024-11-06T21:00:00	6	Velocidad del viento	3.2
13614	7	Sololá	701	Sololá	3	Barraneche	3	Marzo	2023-12-03T00:00:00	2024-11-06T21:00:00	7	Dirección del viento	3.22
13615	7	Sololá	701	Sololá	3	Barraneche	3	Marzo	2023-12-03T00:00:00	2024-11-06T21:00:00	1	Precipitación	0
13616	7	Sololá	701	Sololá	3	Barraneche	3	Marzo	2023-12-03T00:00:00	2024-11-06T21:00:00	8	Radiación solar	0
13617	7	Sololá	701	Sololá	3	Barraneche	3	Marzo	2023-12-03T00:00:00	2024-11-06T22:00:00	2	Temperatura media	11.4
13618	7	Sololá	701	Sololá	3	Barraneche	3	Marzo	2023-12-03T00:00:00	2024-11-06T22:00:00	4	Temperatura máxima	12.4
13619	7	Sololá	701	Sololá	3	Barraneche	3	Marzo	2023-12-03T00:00:00	2024-11-06T22:00:00	3	Temperatura mínima	11.4
13620	7	Sololá	701	Sololá	3	Barraneche	3	Marzo	2023-12-03T00:00:00	2024-11-06T22:00:00	5	Humedad	81
13621	7	Sololá	701	Sololá	3	Barraneche	3	Marzo	2023-12-03T00:00:00	2024-11-06T22:00:00	6	Velocidad del viento	3.2
13622	7	Sololá	701	Sololá	3	Barraneche	3	Marzo	2023-12-03T00:00:00	2024-11-06T22:00:00	7	Dirección del viento	3.22
13623	7	Sololá	701	Sololá	3	Barraneche	3	Marzo	2023-12-03T00:00:00	2024-11-06T22:00:00	1	Precipitación	0
13624	7	Sololá	701	Sololá	3	Barraneche	3	Marzo	2023-12-03T00:00:00	2024-11-06T22:00:00	8	Radiación solar	0
13625	7	Sololá	701	Sololá	3	Barraneche	3	Marzo	2023-12-03T00:00:00	2024-11-06T23:00:00	2	Temperatura media	11.4
13626	7	Sololá	701	Sololá	3	Barraneche	3	Marzo	2023-12-03T00:00:00	2024-11-06T23:00:00	4	Temperatura máxima	11.4
13627	7	Sololá	701	Sololá	3	Barraneche	3	Marzo	2023-12-03T00:00:00	2024-11-06T23:00:00	3	Temperatura mínima	10.9
13628	7	Sololá	701	Sololá	3	Barraneche	3	Marzo	2023-12-03T00:00:00	2024-11-06T23:00:00	5	Humedad	80
13629	7	Sololá	701	Sololá	3	Barraneche	3	Marzo	2023-12-03T00:00:00	2024-11-06T23:00:00	6	Velocidad del viento	3.2
13630	7	Sololá	701	Sololá	3	Barraneche	3	Marzo	2023-12-03T00:00:00	2024-11-06T23:00:00	7	Dirección del viento	3.22
13631	7	Sololá	701	Sololá	3	Barraneche	3	Marzo	2023-12-03T00:00:00	2024-11-06T23:00:00	1	Precipitación	0
13632	7	Sololá	701	Sololá	3	Barraneche	3	Marzo	2023-12-03T00:00:00	2024-11-06T23:00:00	8	Radiación solar	0
13633	7	Sololá	701	Sololá	3	Barraneche	3	Marzo	2023-03-13T00:00:00	2024-11-06T00:00:00	2	Temperatura media	11.7
13634	7	Sololá	701	Sololá	3	Barraneche	3	Marzo	2023-03-13T00:00:00	2024-11-06T00:00:00	4	Temperatura máxima	11.8
13635	7	Sololá	701	Sololá	3	Barraneche	3	Marzo	2023-03-13T00:00:00	2024-11-06T00:00:00	3	Temperatura mínima	11.4
13636	7	Sololá	701	Sololá	3	Barraneche	3	Marzo	2023-03-13T00:00:00	2024-11-06T00:00:00	5	Humedad	78
13637	7	Sololá	701	Sololá	3	Barraneche	3	Marzo	2023-03-13T00:00:00	2024-11-06T00:00:00	6	Velocidad del viento	1.6
13638	7	Sololá	701	Sololá	3	Barraneche	3	Marzo	2023-03-13T00:00:00	2024-11-06T00:00:00	7	Dirección del viento	1.61
13639	7	Sololá	701	Sololá	3	Barraneche	3	Marzo	2023-03-13T00:00:00	2024-11-06T00:00:00	1	Precipitación	0
13640	7	Sololá	701	Sololá	3	Barraneche	3	Marzo	2023-03-13T00:00:00	2024-11-06T00:00:00	8	Radiación solar	0
13641	7	Sololá	701	Sololá	3	Barraneche	3	Marzo	2023-03-13T00:00:00	2024-11-06T01:00:00	2	Temperatura media	10.5
13642	7	Sololá	701	Sololá	3	Barraneche	3	Marzo	2023-03-13T00:00:00	2024-11-06T01:00:00	4	Temperatura máxima	11.7
13643	7	Sololá	701	Sololá	3	Barraneche	3	Marzo	2023-03-13T00:00:00	2024-11-06T01:00:00	3	Temperatura mínima	10.5
13644	7	Sololá	701	Sololá	3	Barraneche	3	Marzo	2023-03-13T00:00:00	2024-11-06T01:00:00	5	Humedad	76
13645	7	Sololá	701	Sololá	3	Barraneche	3	Marzo	2023-03-13T00:00:00	2024-11-06T01:00:00	6	Velocidad del viento	4.8
13646	7	Sololá	701	Sololá	3	Barraneche	3	Marzo	2023-03-13T00:00:00	2024-11-06T01:00:00	7	Dirección del viento	4.83
13647	7	Sololá	701	Sololá	3	Barraneche	3	Marzo	2023-03-13T00:00:00	2024-11-06T01:00:00	1	Precipitación	0
13648	7	Sololá	701	Sololá	3	Barraneche	3	Marzo	2023-03-13T00:00:00	2024-11-06T01:00:00	8	Radiación solar	0
13649	7	Sololá	701	Sololá	3	Barraneche	3	Marzo	2023-03-13T00:00:00	2024-11-06T02:00:00	2	Temperatura media	9.4
13650	7	Sololá	701	Sololá	3	Barraneche	3	Marzo	2023-03-13T00:00:00	2024-11-06T02:00:00	4	Temperatura máxima	10.5
13651	7	Sololá	701	Sololá	3	Barraneche	3	Marzo	2023-03-13T00:00:00	2024-11-06T02:00:00	3	Temperatura mínima	9.3
13652	7	Sololá	701	Sololá	3	Barraneche	3	Marzo	2023-03-13T00:00:00	2024-11-06T02:00:00	5	Humedad	77
13653	7	Sololá	701	Sololá	3	Barraneche	3	Marzo	2023-03-13T00:00:00	2024-11-06T02:00:00	6	Velocidad del viento	4.8
13654	7	Sololá	701	Sololá	3	Barraneche	3	Marzo	2023-03-13T00:00:00	2024-11-06T02:00:00	7	Dirección del viento	4.83
13655	7	Sololá	701	Sololá	3	Barraneche	3	Marzo	2023-03-13T00:00:00	2024-11-06T02:00:00	1	Precipitación	0
13656	7	Sololá	701	Sololá	3	Barraneche	3	Marzo	2023-03-13T00:00:00	2024-11-06T02:00:00	8	Radiación solar	0
13657	7	Sololá	701	Sololá	3	Barraneche	3	Marzo	2023-03-13T00:00:00	2024-11-06T03:00:00	2	Temperatura media	9.6
13658	7	Sololá	701	Sololá	3	Barraneche	3	Marzo	2023-03-13T00:00:00	2024-11-06T03:00:00	4	Temperatura máxima	9.6
13659	7	Sololá	701	Sololá	3	Barraneche	3	Marzo	2023-03-13T00:00:00	2024-11-06T03:00:00	3	Temperatura mínima	9
13660	7	Sololá	701	Sololá	3	Barraneche	3	Marzo	2023-03-13T00:00:00	2024-11-06T03:00:00	5	Humedad	77
13661	7	Sololá	701	Sololá	3	Barraneche	3	Marzo	2023-03-13T00:00:00	2024-11-06T03:00:00	6	Velocidad del viento	6.4
13662	7	Sololá	701	Sololá	3	Barraneche	3	Marzo	2023-03-13T00:00:00	2024-11-06T03:00:00	7	Dirección del viento	6.44
13663	7	Sololá	701	Sololá	3	Barraneche	3	Marzo	2023-03-13T00:00:00	2024-11-06T03:00:00	1	Precipitación	0
13664	7	Sololá	701	Sololá	3	Barraneche	3	Marzo	2023-03-13T00:00:00	2024-11-06T03:00:00	8	Radiación solar	0
13665	7	Sololá	701	Sololá	3	Barraneche	3	Marzo	2023-03-13T00:00:00	2024-11-06T04:00:00	2	Temperatura media	9.3
13666	7	Sololá	701	Sololá	3	Barraneche	3	Marzo	2023-03-13T00:00:00	2024-11-06T04:00:00	4	Temperatura máxima	9.6
13667	7	Sololá	701	Sololá	3	Barraneche	3	Marzo	2023-03-13T00:00:00	2024-11-06T04:00:00	3	Temperatura mínima	8.9
13668	7	Sololá	701	Sololá	3	Barraneche	3	Marzo	2023-03-13T00:00:00	2024-11-06T04:00:00	5	Humedad	77
13669	7	Sololá	701	Sololá	3	Barraneche	3	Marzo	2023-03-13T00:00:00	2024-11-06T04:00:00	6	Velocidad del viento	3.2
13670	7	Sololá	701	Sololá	3	Barraneche	3	Marzo	2023-03-13T00:00:00	2024-11-06T04:00:00	7	Dirección del viento	3.22
13671	7	Sololá	701	Sololá	3	Barraneche	3	Marzo	2023-03-13T00:00:00	2024-11-06T04:00:00	1	Precipitación	0
13672	7	Sololá	701	Sololá	3	Barraneche	3	Marzo	2023-03-13T00:00:00	2024-11-06T04:00:00	8	Radiación solar	0
13673	7	Sololá	701	Sololá	3	Barraneche	3	Marzo	2023-03-13T00:00:00	2024-11-06T05:00:00	2	Temperatura media	9.1
13674	7	Sololá	701	Sololá	3	Barraneche	3	Marzo	2023-03-13T00:00:00	2024-11-06T05:00:00	4	Temperatura máxima	9.4
13675	7	Sololá	701	Sololá	3	Barraneche	3	Marzo	2023-03-13T00:00:00	2024-11-06T05:00:00	3	Temperatura mínima	8.8
13676	7	Sololá	701	Sololá	3	Barraneche	3	Marzo	2023-03-13T00:00:00	2024-11-06T05:00:00	5	Humedad	76
13677	7	Sololá	701	Sololá	3	Barraneche	3	Marzo	2023-03-13T00:00:00	2024-11-06T05:00:00	6	Velocidad del viento	4.8
13678	7	Sololá	701	Sololá	3	Barraneche	3	Marzo	2023-03-13T00:00:00	2024-11-06T05:00:00	7	Dirección del viento	4.83
13679	7	Sololá	701	Sololá	3	Barraneche	3	Marzo	2023-03-13T00:00:00	2024-11-06T05:00:00	1	Precipitación	0
13680	7	Sololá	701	Sololá	3	Barraneche	3	Marzo	2023-03-13T00:00:00	2024-11-06T05:00:00	8	Radiación solar	0
13681	7	Sololá	701	Sololá	3	Barraneche	3	Marzo	2023-03-13T00:00:00	2024-11-06T06:00:00	2	Temperatura media	9.1
13682	7	Sololá	701	Sololá	3	Barraneche	3	Marzo	2023-03-13T00:00:00	2024-11-06T06:00:00	4	Temperatura máxima	9.3
13683	7	Sololá	701	Sololá	3	Barraneche	3	Marzo	2023-03-13T00:00:00	2024-11-06T06:00:00	3	Temperatura mínima	8.8
13684	7	Sololá	701	Sololá	3	Barraneche	3	Marzo	2023-03-13T00:00:00	2024-11-06T06:00:00	5	Humedad	74
13685	7	Sololá	701	Sololá	3	Barraneche	3	Marzo	2023-03-13T00:00:00	2024-11-06T06:00:00	6	Velocidad del viento	6.4
13686	7	Sololá	701	Sololá	3	Barraneche	3	Marzo	2023-03-13T00:00:00	2024-11-06T06:00:00	7	Dirección del viento	6.44
13687	7	Sololá	701	Sololá	3	Barraneche	3	Marzo	2023-03-13T00:00:00	2024-11-06T06:00:00	1	Precipitación	0
13688	7	Sololá	701	Sololá	3	Barraneche	3	Marzo	2023-03-13T00:00:00	2024-11-06T06:00:00	8	Radiación solar	0
13689	7	Sololá	701	Sololá	3	Barraneche	3	Marzo	2023-03-13T00:00:00	2024-11-06T07:00:00	2	Temperatura media	9
13690	7	Sololá	701	Sololá	3	Barraneche	3	Marzo	2023-03-13T00:00:00	2024-11-06T07:00:00	4	Temperatura máxima	9.1
13691	7	Sololá	701	Sololá	3	Barraneche	3	Marzo	2023-03-13T00:00:00	2024-11-06T07:00:00	3	Temperatura mínima	8.7
13692	7	Sololá	701	Sololá	3	Barraneche	3	Marzo	2023-03-13T00:00:00	2024-11-06T07:00:00	5	Humedad	75
13693	7	Sololá	701	Sololá	3	Barraneche	3	Marzo	2023-03-13T00:00:00	2024-11-06T07:00:00	6	Velocidad del viento	6.4
13694	7	Sololá	701	Sololá	3	Barraneche	3	Marzo	2023-03-13T00:00:00	2024-11-06T07:00:00	7	Dirección del viento	6.44
13695	7	Sololá	701	Sololá	3	Barraneche	3	Marzo	2023-03-13T00:00:00	2024-11-06T07:00:00	1	Precipitación	0
13696	7	Sololá	701	Sololá	3	Barraneche	3	Marzo	2023-03-13T00:00:00	2024-11-06T07:00:00	8	Radiación solar	17
13697	7	Sololá	701	Sololá	3	Barraneche	3	Marzo	2023-03-13T00:00:00	2024-11-06T08:00:00	2	Temperatura media	13.3
13698	7	Sololá	701	Sololá	3	Barraneche	3	Marzo	2023-03-13T00:00:00	2024-11-06T08:00:00	4	Temperatura máxima	13.3
13699	7	Sololá	701	Sololá	3	Barraneche	3	Marzo	2023-03-13T00:00:00	2024-11-06T08:00:00	3	Temperatura mínima	9
13700	7	Sololá	701	Sololá	3	Barraneche	3	Marzo	2023-03-13T00:00:00	2024-11-06T08:00:00	5	Humedad	70
13701	7	Sololá	701	Sololá	3	Barraneche	3	Marzo	2023-03-13T00:00:00	2024-11-06T08:00:00	6	Velocidad del viento	4.8
13702	7	Sololá	701	Sololá	3	Barraneche	3	Marzo	2023-03-13T00:00:00	2024-11-06T08:00:00	7	Dirección del viento	4.83
13703	7	Sololá	701	Sololá	3	Barraneche	3	Marzo	2023-03-13T00:00:00	2024-11-06T08:00:00	1	Precipitación	0
13704	7	Sololá	701	Sololá	3	Barraneche	3	Marzo	2023-03-13T00:00:00	2024-11-06T08:00:00	8	Radiación solar	239
13705	7	Sololá	701	Sololá	3	Barraneche	3	Marzo	2023-03-13T00:00:00	2024-11-06T09:00:00	2	Temperatura media	15.7
13706	7	Sololá	701	Sololá	3	Barraneche	3	Marzo	2023-03-13T00:00:00	2024-11-06T09:00:00	4	Temperatura máxima	15.7
13707	7	Sololá	701	Sololá	3	Barraneche	3	Marzo	2023-03-13T00:00:00	2024-11-06T09:00:00	3	Temperatura mínima	13.3
13708	7	Sololá	701	Sololá	3	Barraneche	3	Marzo	2023-03-13T00:00:00	2024-11-06T09:00:00	5	Humedad	65
13709	7	Sololá	701	Sololá	3	Barraneche	3	Marzo	2023-03-13T00:00:00	2024-11-06T09:00:00	6	Velocidad del viento	3.2
13710	7	Sololá	701	Sololá	3	Barraneche	3	Marzo	2023-03-13T00:00:00	2024-11-06T09:00:00	7	Dirección del viento	3.22
13711	7	Sololá	701	Sololá	3	Barraneche	3	Marzo	2023-03-13T00:00:00	2024-11-06T09:00:00	1	Precipitación	0
13712	7	Sololá	701	Sololá	3	Barraneche	3	Marzo	2023-03-13T00:00:00	2024-11-06T09:00:00	8	Radiación solar	496
13713	7	Sololá	701	Sololá	3	Barraneche	3	Marzo	2023-03-13T00:00:00	2024-11-06T10:00:00	2	Temperatura media	16.8
13714	7	Sololá	701	Sololá	3	Barraneche	3	Marzo	2023-03-13T00:00:00	2024-11-06T10:00:00	4	Temperatura máxima	16.9
13715	7	Sololá	701	Sololá	3	Barraneche	3	Marzo	2023-03-13T00:00:00	2024-11-06T10:00:00	3	Temperatura mínima	15.7
13716	7	Sololá	701	Sololá	3	Barraneche	3	Marzo	2023-03-13T00:00:00	2024-11-06T10:00:00	5	Humedad	62
13717	7	Sololá	701	Sololá	3	Barraneche	3	Marzo	2023-03-13T00:00:00	2024-11-06T10:00:00	6	Velocidad del viento	9.7
13718	7	Sololá	701	Sololá	3	Barraneche	3	Marzo	2023-03-13T00:00:00	2024-11-06T10:00:00	7	Dirección del viento	9.66
13719	7	Sololá	701	Sololá	3	Barraneche	3	Marzo	2023-03-13T00:00:00	2024-11-06T10:00:00	1	Precipitación	0
13720	7	Sololá	701	Sololá	3	Barraneche	3	Marzo	2023-03-13T00:00:00	2024-11-06T10:00:00	8	Radiación solar	736
13721	7	Sololá	701	Sololá	3	Barraneche	3	Marzo	2023-03-13T00:00:00	2024-11-06T11:00:00	2	Temperatura media	17.6
13722	7	Sololá	701	Sololá	3	Barraneche	3	Marzo	2023-03-13T00:00:00	2024-11-06T11:00:00	4	Temperatura máxima	17.8
13723	7	Sololá	701	Sololá	3	Barraneche	3	Marzo	2023-03-13T00:00:00	2024-11-06T11:00:00	3	Temperatura mínima	16.8
13724	7	Sololá	701	Sololá	3	Barraneche	3	Marzo	2023-03-13T00:00:00	2024-11-06T11:00:00	5	Humedad	62
13725	7	Sololá	701	Sololá	3	Barraneche	3	Marzo	2023-03-13T00:00:00	2024-11-06T11:00:00	6	Velocidad del viento	11.3
13726	7	Sololá	701	Sololá	3	Barraneche	3	Marzo	2023-03-13T00:00:00	2024-11-06T11:00:00	7	Dirección del viento	11.27
13727	7	Sololá	701	Sololá	3	Barraneche	3	Marzo	2023-03-13T00:00:00	2024-11-06T11:00:00	1	Precipitación	0
13728	7	Sololá	701	Sololá	3	Barraneche	3	Marzo	2023-03-13T00:00:00	2024-11-06T11:00:00	8	Radiación solar	895
13729	7	Sololá	701	Sololá	3	Barraneche	3	Marzo	2023-03-13T00:00:00	2024-11-06T12:00:00	2	Temperatura media	17.3
13730	7	Sololá	701	Sololá	3	Barraneche	3	Marzo	2023-03-13T00:00:00	2024-11-06T12:00:00	4	Temperatura máxima	17.8
13731	7	Sololá	701	Sololá	3	Barraneche	3	Marzo	2023-03-13T00:00:00	2024-11-06T12:00:00	3	Temperatura mínima	16.8
13732	7	Sololá	701	Sololá	3	Barraneche	3	Marzo	2023-03-13T00:00:00	2024-11-06T12:00:00	5	Humedad	64
13733	7	Sololá	701	Sololá	3	Barraneche	3	Marzo	2023-03-13T00:00:00	2024-11-06T12:00:00	6	Velocidad del viento	12.9
13734	7	Sololá	701	Sololá	3	Barraneche	3	Marzo	2023-03-13T00:00:00	2024-11-06T12:00:00	7	Dirección del viento	12.87
13735	7	Sololá	701	Sololá	3	Barraneche	3	Marzo	2023-03-13T00:00:00	2024-11-06T12:00:00	1	Precipitación	0
13736	7	Sololá	701	Sololá	3	Barraneche	3	Marzo	2023-03-13T00:00:00	2024-11-06T12:00:00	8	Radiación solar	889
13737	7	Sololá	701	Sololá	3	Barraneche	3	Marzo	2023-03-13T00:00:00	2024-11-06T13:00:00	2	Temperatura media	16.8
13738	7	Sololá	701	Sololá	3	Barraneche	3	Marzo	2023-03-13T00:00:00	2024-11-06T13:00:00	4	Temperatura máxima	17.7
13739	7	Sololá	701	Sololá	3	Barraneche	3	Marzo	2023-03-13T00:00:00	2024-11-06T13:00:00	3	Temperatura mínima	16.3
13740	7	Sololá	701	Sololá	3	Barraneche	3	Marzo	2023-03-13T00:00:00	2024-11-06T13:00:00	5	Humedad	68
13741	7	Sololá	701	Sololá	3	Barraneche	3	Marzo	2023-03-13T00:00:00	2024-11-06T13:00:00	6	Velocidad del viento	14.5
13742	7	Sololá	701	Sololá	3	Barraneche	3	Marzo	2023-03-13T00:00:00	2024-11-06T13:00:00	7	Dirección del viento	14.48
13743	7	Sololá	701	Sololá	3	Barraneche	3	Marzo	2023-03-13T00:00:00	2024-11-06T13:00:00	1	Precipitación	0
13744	7	Sololá	701	Sololá	3	Barraneche	3	Marzo	2023-03-13T00:00:00	2024-11-06T13:00:00	8	Radiación solar	681
13745	7	Sololá	701	Sololá	3	Barraneche	3	Marzo	2023-03-13T00:00:00	2024-11-06T14:00:00	2	Temperatura media	16.1
13746	7	Sololá	701	Sololá	3	Barraneche	3	Marzo	2023-03-13T00:00:00	2024-11-06T14:00:00	4	Temperatura máxima	16.8
13747	7	Sololá	701	Sololá	3	Barraneche	3	Marzo	2023-03-13T00:00:00	2024-11-06T14:00:00	3	Temperatura mínima	16.1
13748	7	Sololá	701	Sololá	3	Barraneche	3	Marzo	2023-03-13T00:00:00	2024-11-06T14:00:00	5	Humedad	67
13749	7	Sololá	701	Sololá	3	Barraneche	3	Marzo	2023-03-13T00:00:00	2024-11-06T14:00:00	6	Velocidad del viento	11.3
13750	7	Sololá	701	Sololá	3	Barraneche	3	Marzo	2023-03-13T00:00:00	2024-11-06T14:00:00	7	Dirección del viento	11.27
13751	7	Sololá	701	Sololá	3	Barraneche	3	Marzo	2023-03-13T00:00:00	2024-11-06T14:00:00	1	Precipitación	0
13752	7	Sololá	701	Sololá	3	Barraneche	3	Marzo	2023-03-13T00:00:00	2024-11-06T14:00:00	8	Radiación solar	347
13753	7	Sololá	701	Sololá	3	Barraneche	3	Marzo	2023-03-13T00:00:00	2024-11-06T15:00:00	2	Temperatura media	14.3
13754	7	Sololá	701	Sololá	3	Barraneche	3	Marzo	2023-03-13T00:00:00	2024-11-06T15:00:00	4	Temperatura máxima	16.4
13755	7	Sololá	701	Sololá	3	Barraneche	3	Marzo	2023-03-13T00:00:00	2024-11-06T15:00:00	3	Temperatura mínima	14.3
13756	7	Sololá	701	Sololá	3	Barraneche	3	Marzo	2023-03-13T00:00:00	2024-11-06T15:00:00	5	Humedad	75
13757	7	Sololá	701	Sololá	3	Barraneche	3	Marzo	2023-03-13T00:00:00	2024-11-06T15:00:00	6	Velocidad del viento	11.3
13758	7	Sololá	701	Sololá	3	Barraneche	3	Marzo	2023-03-13T00:00:00	2024-11-06T15:00:00	7	Dirección del viento	11.27
13759	7	Sololá	701	Sololá	3	Barraneche	3	Marzo	2023-03-13T00:00:00	2024-11-06T15:00:00	1	Precipitación	0
13760	7	Sololá	701	Sololá	3	Barraneche	3	Marzo	2023-03-13T00:00:00	2024-11-06T15:00:00	8	Radiación solar	85
13761	7	Sololá	701	Sololá	3	Barraneche	3	Marzo	2023-03-13T00:00:00	2024-11-06T16:00:00	2	Temperatura media	14.2
13762	7	Sololá	701	Sololá	3	Barraneche	3	Marzo	2023-03-13T00:00:00	2024-11-06T16:00:00	4	Temperatura máxima	14.5
13763	7	Sololá	701	Sololá	3	Barraneche	3	Marzo	2023-03-13T00:00:00	2024-11-06T16:00:00	3	Temperatura mínima	14.1
13764	7	Sololá	701	Sololá	3	Barraneche	3	Marzo	2023-03-13T00:00:00	2024-11-06T16:00:00	5	Humedad	76
13765	7	Sololá	701	Sololá	3	Barraneche	3	Marzo	2023-03-13T00:00:00	2024-11-06T16:00:00	6	Velocidad del viento	8
13766	7	Sololá	701	Sololá	3	Barraneche	3	Marzo	2023-03-13T00:00:00	2024-11-06T16:00:00	7	Dirección del viento	8.05
13767	7	Sololá	701	Sololá	3	Barraneche	3	Marzo	2023-03-13T00:00:00	2024-11-06T16:00:00	1	Precipitación	0
13768	7	Sololá	701	Sololá	3	Barraneche	3	Marzo	2023-03-13T00:00:00	2024-11-06T16:00:00	8	Radiación solar	99
13769	7	Sololá	701	Sololá	3	Barraneche	3	Marzo	2023-03-13T00:00:00	2024-11-06T17:00:00	2	Temperatura media	14.5
13770	7	Sololá	701	Sololá	3	Barraneche	3	Marzo	2023-03-13T00:00:00	2024-11-06T17:00:00	4	Temperatura máxima	14.7
13771	7	Sololá	701	Sololá	3	Barraneche	3	Marzo	2023-03-13T00:00:00	2024-11-06T17:00:00	3	Temperatura mínima	14.2
13772	7	Sololá	701	Sololá	3	Barraneche	3	Marzo	2023-03-13T00:00:00	2024-11-06T17:00:00	5	Humedad	74
13773	7	Sololá	701	Sololá	3	Barraneche	3	Marzo	2023-03-13T00:00:00	2024-11-06T17:00:00	6	Velocidad del viento	6.4
13774	7	Sololá	701	Sololá	3	Barraneche	3	Marzo	2023-03-13T00:00:00	2024-11-06T17:00:00	7	Dirección del viento	6.44
13775	7	Sololá	701	Sololá	3	Barraneche	3	Marzo	2023-03-13T00:00:00	2024-11-06T17:00:00	1	Precipitación	0
13776	7	Sololá	701	Sololá	3	Barraneche	3	Marzo	2023-03-13T00:00:00	2024-11-06T17:00:00	8	Radiación solar	145
13777	7	Sololá	701	Sololá	3	Barraneche	3	Marzo	2023-03-13T00:00:00	2024-11-06T18:00:00	2	Temperatura media	13.8
13778	7	Sololá	701	Sololá	3	Barraneche	3	Marzo	2023-03-13T00:00:00	2024-11-06T18:00:00	4	Temperatura máxima	14.6
13779	7	Sololá	701	Sololá	3	Barraneche	3	Marzo	2023-03-13T00:00:00	2024-11-06T18:00:00	3	Temperatura mínima	13.8
13780	7	Sololá	701	Sololá	3	Barraneche	3	Marzo	2023-03-13T00:00:00	2024-11-06T18:00:00	5	Humedad	77
13781	7	Sololá	701	Sololá	3	Barraneche	3	Marzo	2023-03-13T00:00:00	2024-11-06T18:00:00	6	Velocidad del viento	6.4
13782	7	Sololá	701	Sololá	3	Barraneche	3	Marzo	2023-03-13T00:00:00	2024-11-06T18:00:00	7	Dirección del viento	6.44
13783	7	Sololá	701	Sololá	3	Barraneche	3	Marzo	2023-03-13T00:00:00	2024-11-06T18:00:00	1	Precipitación	0
13784	7	Sololá	701	Sololá	3	Barraneche	3	Marzo	2023-03-13T00:00:00	2024-11-06T18:00:00	8	Radiación solar	30
13785	7	Sololá	701	Sololá	3	Barraneche	3	Marzo	2023-03-13T00:00:00	2024-11-06T19:00:00	2	Temperatura media	13.7
13786	7	Sololá	701	Sololá	3	Barraneche	3	Marzo	2023-03-13T00:00:00	2024-11-06T19:00:00	4	Temperatura máxima	13.8
13787	7	Sololá	701	Sololá	3	Barraneche	3	Marzo	2023-03-13T00:00:00	2024-11-06T19:00:00	3	Temperatura mínima	13.6
13788	7	Sololá	701	Sololá	3	Barraneche	3	Marzo	2023-03-13T00:00:00	2024-11-06T19:00:00	5	Humedad	79
13789	7	Sololá	701	Sololá	3	Barraneche	3	Marzo	2023-03-13T00:00:00	2024-11-06T19:00:00	6	Velocidad del viento	3.2
13790	7	Sololá	701	Sololá	3	Barraneche	3	Marzo	2023-03-13T00:00:00	2024-11-06T19:00:00	7	Dirección del viento	3.22
13791	7	Sololá	701	Sololá	3	Barraneche	3	Marzo	2023-03-13T00:00:00	2024-11-06T19:00:00	1	Precipitación	0
13792	7	Sololá	701	Sololá	3	Barraneche	3	Marzo	2023-03-13T00:00:00	2024-11-06T19:00:00	8	Radiación solar	0
13793	7	Sololá	701	Sololá	3	Barraneche	3	Marzo	2023-03-13T00:00:00	2024-11-06T20:00:00	2	Temperatura media	13.6
13794	7	Sololá	701	Sololá	3	Barraneche	3	Marzo	2023-03-13T00:00:00	2024-11-06T20:00:00	4	Temperatura máxima	13.7
13795	7	Sololá	701	Sololá	3	Barraneche	3	Marzo	2023-03-13T00:00:00	2024-11-06T20:00:00	3	Temperatura mínima	13.4
13796	7	Sololá	701	Sololá	3	Barraneche	3	Marzo	2023-03-13T00:00:00	2024-11-06T20:00:00	5	Humedad	79
13797	7	Sololá	701	Sololá	3	Barraneche	3	Marzo	2023-03-13T00:00:00	2024-11-06T20:00:00	6	Velocidad del viento	3.2
13798	7	Sololá	701	Sololá	3	Barraneche	3	Marzo	2023-03-13T00:00:00	2024-11-06T20:00:00	7	Dirección del viento	3.22
13799	7	Sololá	701	Sololá	3	Barraneche	3	Marzo	2023-03-13T00:00:00	2024-11-06T20:00:00	1	Precipitación	0
13800	7	Sololá	701	Sololá	3	Barraneche	3	Marzo	2023-03-13T00:00:00	2024-11-06T20:00:00	8	Radiación solar	0
13801	7	Sololá	701	Sololá	3	Barraneche	3	Marzo	2023-03-13T00:00:00	2024-11-06T21:00:00	2	Temperatura media	12.7
13802	7	Sololá	701	Sololá	3	Barraneche	3	Marzo	2023-03-13T00:00:00	2024-11-06T21:00:00	4	Temperatura máxima	13.9
13803	7	Sololá	701	Sololá	3	Barraneche	3	Marzo	2023-03-13T00:00:00	2024-11-06T21:00:00	3	Temperatura mínima	12.7
13804	7	Sololá	701	Sololá	3	Barraneche	3	Marzo	2023-03-13T00:00:00	2024-11-06T21:00:00	5	Humedad	75
13805	7	Sololá	701	Sololá	3	Barraneche	3	Marzo	2023-03-13T00:00:00	2024-11-06T21:00:00	6	Velocidad del viento	4.8
13806	7	Sololá	701	Sololá	3	Barraneche	3	Marzo	2023-03-13T00:00:00	2024-11-06T21:00:00	7	Dirección del viento	4.83
13807	7	Sololá	701	Sololá	3	Barraneche	3	Marzo	2023-03-13T00:00:00	2024-11-06T21:00:00	1	Precipitación	0.2
13808	7	Sololá	701	Sololá	3	Barraneche	3	Marzo	2023-03-13T00:00:00	2024-11-06T21:00:00	8	Radiación solar	0
13809	7	Sololá	701	Sololá	3	Barraneche	3	Marzo	2023-03-13T00:00:00	2024-11-06T22:00:00	2	Temperatura media	11.5
13810	7	Sololá	701	Sololá	3	Barraneche	3	Marzo	2023-03-13T00:00:00	2024-11-06T22:00:00	4	Temperatura máxima	12.6
13811	7	Sololá	701	Sololá	3	Barraneche	3	Marzo	2023-03-13T00:00:00	2024-11-06T22:00:00	3	Temperatura mínima	11.5
13812	7	Sololá	701	Sololá	3	Barraneche	3	Marzo	2023-03-13T00:00:00	2024-11-06T22:00:00	5	Humedad	75
13813	7	Sololá	701	Sololá	3	Barraneche	3	Marzo	2023-03-13T00:00:00	2024-11-06T22:00:00	6	Velocidad del viento	4.8
13814	7	Sololá	701	Sololá	3	Barraneche	3	Marzo	2023-03-13T00:00:00	2024-11-06T22:00:00	7	Dirección del viento	4.83
13815	7	Sololá	701	Sololá	3	Barraneche	3	Marzo	2023-03-13T00:00:00	2024-11-06T22:00:00	1	Precipitación	0
13816	7	Sololá	701	Sololá	3	Barraneche	3	Marzo	2023-03-13T00:00:00	2024-11-06T22:00:00	8	Radiación solar	0
13817	7	Sololá	701	Sololá	3	Barraneche	3	Marzo	2023-03-13T00:00:00	2024-11-06T23:00:00	2	Temperatura media	10.8
13818	7	Sololá	701	Sololá	3	Barraneche	3	Marzo	2023-03-13T00:00:00	2024-11-06T23:00:00	4	Temperatura máxima	11.7
13819	7	Sololá	701	Sololá	3	Barraneche	3	Marzo	2023-03-13T00:00:00	2024-11-06T23:00:00	3	Temperatura mínima	10.8
13820	7	Sololá	701	Sololá	3	Barraneche	3	Marzo	2023-03-13T00:00:00	2024-11-06T23:00:00	5	Humedad	75
13821	7	Sololá	701	Sololá	3	Barraneche	3	Marzo	2023-03-13T00:00:00	2024-11-06T23:00:00	6	Velocidad del viento	6.4
13822	7	Sololá	701	Sololá	3	Barraneche	3	Marzo	2023-03-13T00:00:00	2024-11-06T23:00:00	7	Dirección del viento	6.44
13823	7	Sololá	701	Sololá	3	Barraneche	3	Marzo	2023-03-13T00:00:00	2024-11-06T23:00:00	1	Precipitación	0
13824	7	Sololá	701	Sololá	3	Barraneche	3	Marzo	2023-03-13T00:00:00	2024-11-06T23:00:00	8	Radiación solar	0
13825	7	Sololá	701	Sololá	3	Barraneche	3	Marzo	2023-03-14T00:00:00	2024-11-06T00:00:00	2	Temperatura media	10.7
13826	7	Sololá	701	Sololá	3	Barraneche	3	Marzo	2023-03-14T00:00:00	2024-11-06T00:00:00	4	Temperatura máxima	10.8
13827	7	Sololá	701	Sololá	3	Barraneche	3	Marzo	2023-03-14T00:00:00	2024-11-06T00:00:00	3	Temperatura mínima	10.5
13828	7	Sololá	701	Sololá	3	Barraneche	3	Marzo	2023-03-14T00:00:00	2024-11-06T00:00:00	5	Humedad	74
13829	7	Sololá	701	Sololá	3	Barraneche	3	Marzo	2023-03-14T00:00:00	2024-11-06T00:00:00	6	Velocidad del viento	8
13830	7	Sololá	701	Sololá	3	Barraneche	3	Marzo	2023-03-14T00:00:00	2024-11-06T00:00:00	7	Dirección del viento	8.05
13831	7	Sololá	701	Sololá	3	Barraneche	3	Marzo	2023-03-14T00:00:00	2024-11-06T00:00:00	1	Precipitación	0
13832	7	Sololá	701	Sololá	3	Barraneche	3	Marzo	2023-03-14T00:00:00	2024-11-06T00:00:00	8	Radiación solar	0
13833	7	Sololá	701	Sololá	3	Barraneche	3	Marzo	2023-03-14T00:00:00	2024-11-06T01:00:00	2	Temperatura media	10.3
13834	7	Sololá	701	Sololá	3	Barraneche	3	Marzo	2023-03-14T00:00:00	2024-11-06T01:00:00	4	Temperatura máxima	10.7
13835	7	Sololá	701	Sololá	3	Barraneche	3	Marzo	2023-03-14T00:00:00	2024-11-06T01:00:00	3	Temperatura mínima	10.2
13836	7	Sololá	701	Sololá	3	Barraneche	3	Marzo	2023-03-14T00:00:00	2024-11-06T01:00:00	5	Humedad	76
13837	7	Sololá	701	Sololá	3	Barraneche	3	Marzo	2023-03-14T00:00:00	2024-11-06T01:00:00	6	Velocidad del viento	6.4
13838	7	Sololá	701	Sololá	3	Barraneche	3	Marzo	2023-03-14T00:00:00	2024-11-06T01:00:00	7	Dirección del viento	6.44
13839	7	Sololá	701	Sololá	3	Barraneche	3	Marzo	2023-03-14T00:00:00	2024-11-06T01:00:00	1	Precipitación	0
13840	7	Sololá	701	Sololá	3	Barraneche	3	Marzo	2023-03-14T00:00:00	2024-11-06T01:00:00	8	Radiación solar	0
13841	7	Sololá	701	Sololá	3	Barraneche	3	Marzo	2023-03-14T00:00:00	2024-11-06T02:00:00	2	Temperatura media	11.3
13842	7	Sololá	701	Sololá	3	Barraneche	3	Marzo	2023-03-14T00:00:00	2024-11-06T02:00:00	4	Temperatura máxima	11.3
13843	7	Sololá	701	Sololá	3	Barraneche	3	Marzo	2023-03-14T00:00:00	2024-11-06T02:00:00	3	Temperatura mínima	10.2
13844	7	Sololá	701	Sololá	3	Barraneche	3	Marzo	2023-03-14T00:00:00	2024-11-06T02:00:00	5	Humedad	72
13845	7	Sololá	701	Sololá	3	Barraneche	3	Marzo	2023-03-14T00:00:00	2024-11-06T02:00:00	6	Velocidad del viento	6.4
13846	7	Sololá	701	Sololá	3	Barraneche	3	Marzo	2023-03-14T00:00:00	2024-11-06T02:00:00	7	Dirección del viento	6.44
13847	7	Sololá	701	Sololá	3	Barraneche	3	Marzo	2023-03-14T00:00:00	2024-11-06T02:00:00	1	Precipitación	0
13848	7	Sololá	701	Sololá	3	Barraneche	3	Marzo	2023-03-14T00:00:00	2024-11-06T02:00:00	8	Radiación solar	0
13849	7	Sololá	701	Sololá	3	Barraneche	3	Marzo	2023-03-14T00:00:00	2024-11-06T03:00:00	2	Temperatura media	11.6
13850	7	Sololá	701	Sololá	3	Barraneche	3	Marzo	2023-03-14T00:00:00	2024-11-06T03:00:00	4	Temperatura máxima	11.6
13851	7	Sololá	701	Sololá	3	Barraneche	3	Marzo	2023-03-14T00:00:00	2024-11-06T03:00:00	3	Temperatura mínima	11
13852	7	Sololá	701	Sololá	3	Barraneche	3	Marzo	2023-03-14T00:00:00	2024-11-06T03:00:00	5	Humedad	73
13853	7	Sololá	701	Sololá	3	Barraneche	3	Marzo	2023-03-14T00:00:00	2024-11-06T03:00:00	6	Velocidad del viento	6.4
13854	7	Sololá	701	Sololá	3	Barraneche	3	Marzo	2023-03-14T00:00:00	2024-11-06T03:00:00	7	Dirección del viento	6.44
13855	7	Sololá	701	Sololá	3	Barraneche	3	Marzo	2023-03-14T00:00:00	2024-11-06T03:00:00	1	Precipitación	0
13856	7	Sololá	701	Sololá	3	Barraneche	3	Marzo	2023-03-14T00:00:00	2024-11-06T03:00:00	8	Radiación solar	0
13857	7	Sololá	701	Sololá	3	Barraneche	3	Marzo	2023-03-14T00:00:00	2024-11-06T04:00:00	2	Temperatura media	12.2
13858	7	Sololá	701	Sololá	3	Barraneche	3	Marzo	2023-03-14T00:00:00	2024-11-06T04:00:00	4	Temperatura máxima	12.2
13859	7	Sololá	701	Sololá	3	Barraneche	3	Marzo	2023-03-14T00:00:00	2024-11-06T04:00:00	3	Temperatura mínima	11.3
13860	7	Sololá	701	Sololá	3	Barraneche	3	Marzo	2023-03-14T00:00:00	2024-11-06T04:00:00	5	Humedad	71
13861	7	Sololá	701	Sololá	3	Barraneche	3	Marzo	2023-03-14T00:00:00	2024-11-06T04:00:00	6	Velocidad del viento	6.4
13862	7	Sololá	701	Sololá	3	Barraneche	3	Marzo	2023-03-14T00:00:00	2024-11-06T04:00:00	7	Dirección del viento	6.44
13863	7	Sololá	701	Sololá	3	Barraneche	3	Marzo	2023-03-14T00:00:00	2024-11-06T04:00:00	1	Precipitación	0
13864	7	Sololá	701	Sololá	3	Barraneche	3	Marzo	2023-03-14T00:00:00	2024-11-06T04:00:00	8	Radiación solar	0
13865	7	Sololá	701	Sololá	3	Barraneche	3	Marzo	2023-03-14T00:00:00	2024-11-06T05:00:00	2	Temperatura media	12.4
13866	7	Sololá	701	Sololá	3	Barraneche	3	Marzo	2023-03-14T00:00:00	2024-11-06T05:00:00	4	Temperatura máxima	13.2
13867	7	Sololá	701	Sololá	3	Barraneche	3	Marzo	2023-03-14T00:00:00	2024-11-06T05:00:00	3	Temperatura mínima	12.2
13868	7	Sololá	701	Sololá	3	Barraneche	3	Marzo	2023-03-14T00:00:00	2024-11-06T05:00:00	5	Humedad	70
13869	7	Sololá	701	Sololá	3	Barraneche	3	Marzo	2023-03-14T00:00:00	2024-11-06T05:00:00	6	Velocidad del viento	8
13870	7	Sololá	701	Sololá	3	Barraneche	3	Marzo	2023-03-14T00:00:00	2024-11-06T05:00:00	7	Dirección del viento	8.05
13871	7	Sololá	701	Sololá	3	Barraneche	3	Marzo	2023-03-14T00:00:00	2024-11-06T05:00:00	1	Precipitación	0
13872	7	Sololá	701	Sololá	3	Barraneche	3	Marzo	2023-03-14T00:00:00	2024-11-06T05:00:00	8	Radiación solar	0
13873	7	Sololá	701	Sololá	3	Barraneche	3	Marzo	2023-03-14T00:00:00	2024-11-06T06:00:00	2	Temperatura media	11.1
13874	7	Sololá	701	Sololá	3	Barraneche	3	Marzo	2023-03-14T00:00:00	2024-11-06T06:00:00	4	Temperatura máxima	12.4
13875	7	Sololá	701	Sololá	3	Barraneche	3	Marzo	2023-03-14T00:00:00	2024-11-06T06:00:00	3	Temperatura mínima	11.1
13876	7	Sololá	701	Sololá	3	Barraneche	3	Marzo	2023-03-14T00:00:00	2024-11-06T06:00:00	5	Humedad	72
13877	7	Sololá	701	Sololá	3	Barraneche	3	Marzo	2023-03-14T00:00:00	2024-11-06T06:00:00	6	Velocidad del viento	6.4
13878	7	Sololá	701	Sololá	3	Barraneche	3	Marzo	2023-03-14T00:00:00	2024-11-06T06:00:00	7	Dirección del viento	6.44
13879	7	Sololá	701	Sololá	3	Barraneche	3	Marzo	2023-03-14T00:00:00	2024-11-06T06:00:00	1	Precipitación	0
13880	7	Sololá	701	Sololá	3	Barraneche	3	Marzo	2023-03-14T00:00:00	2024-11-06T06:00:00	8	Radiación solar	0
13881	7	Sololá	701	Sololá	3	Barraneche	3	Marzo	2023-03-14T00:00:00	2024-11-06T07:00:00	2	Temperatura media	11.6
13882	7	Sololá	701	Sololá	3	Barraneche	3	Marzo	2023-03-14T00:00:00	2024-11-06T07:00:00	4	Temperatura máxima	11.6
13883	7	Sololá	701	Sololá	3	Barraneche	3	Marzo	2023-03-14T00:00:00	2024-11-06T07:00:00	3	Temperatura mínima	10.9
13884	7	Sololá	701	Sololá	3	Barraneche	3	Marzo	2023-03-14T00:00:00	2024-11-06T07:00:00	5	Humedad	74
13885	7	Sololá	701	Sololá	3	Barraneche	3	Marzo	2023-03-14T00:00:00	2024-11-06T07:00:00	6	Velocidad del viento	3.2
13886	7	Sololá	701	Sololá	3	Barraneche	3	Marzo	2023-03-14T00:00:00	2024-11-06T07:00:00	7	Dirección del viento	3.22
13887	7	Sololá	701	Sololá	3	Barraneche	3	Marzo	2023-03-14T00:00:00	2024-11-06T07:00:00	1	Precipitación	0
13888	7	Sololá	701	Sololá	3	Barraneche	3	Marzo	2023-03-14T00:00:00	2024-11-06T07:00:00	8	Radiación solar	31
13889	7	Sololá	701	Sololá	3	Barraneche	3	Marzo	2023-03-14T00:00:00	2024-11-06T08:00:00	2	Temperatura media	14.5
13890	7	Sololá	701	Sololá	3	Barraneche	3	Marzo	2023-03-14T00:00:00	2024-11-06T08:00:00	4	Temperatura máxima	14.5
13891	7	Sololá	701	Sololá	3	Barraneche	3	Marzo	2023-03-14T00:00:00	2024-11-06T08:00:00	3	Temperatura mínima	11.6
13892	7	Sololá	701	Sololá	3	Barraneche	3	Marzo	2023-03-14T00:00:00	2024-11-06T08:00:00	5	Humedad	68
13893	7	Sololá	701	Sololá	3	Barraneche	3	Marzo	2023-03-14T00:00:00	2024-11-06T08:00:00	6	Velocidad del viento	1.6
13894	7	Sololá	701	Sololá	3	Barraneche	3	Marzo	2023-03-14T00:00:00	2024-11-06T08:00:00	7	Dirección del viento	1.61
13895	7	Sololá	701	Sololá	3	Barraneche	3	Marzo	2023-03-14T00:00:00	2024-11-06T08:00:00	1	Precipitación	0
13896	7	Sololá	701	Sololá	3	Barraneche	3	Marzo	2023-03-14T00:00:00	2024-11-06T08:00:00	8	Radiación solar	209
13897	7	Sololá	701	Sololá	3	Barraneche	3	Marzo	2023-03-14T00:00:00	2024-11-06T09:00:00	2	Temperatura media	16.8
13898	7	Sololá	701	Sololá	3	Barraneche	3	Marzo	2023-03-14T00:00:00	2024-11-06T09:00:00	4	Temperatura máxima	16.8
13899	7	Sololá	701	Sololá	3	Barraneche	3	Marzo	2023-03-14T00:00:00	2024-11-06T09:00:00	3	Temperatura mínima	14.4
13900	7	Sololá	701	Sololá	3	Barraneche	3	Marzo	2023-03-14T00:00:00	2024-11-06T09:00:00	5	Humedad	61
13901	7	Sololá	701	Sololá	3	Barraneche	3	Marzo	2023-03-14T00:00:00	2024-11-06T09:00:00	6	Velocidad del viento	3.2
13902	7	Sololá	701	Sololá	3	Barraneche	3	Marzo	2023-03-14T00:00:00	2024-11-06T09:00:00	7	Dirección del viento	3.22
13903	7	Sololá	701	Sololá	3	Barraneche	3	Marzo	2023-03-14T00:00:00	2024-11-06T09:00:00	1	Precipitación	0.2
13904	7	Sololá	701	Sololá	3	Barraneche	3	Marzo	2023-03-14T00:00:00	2024-11-06T09:00:00	8	Radiación solar	504
13905	7	Sololá	701	Sololá	3	Barraneche	3	Marzo	2023-03-14T00:00:00	2024-11-06T10:00:00	2	Temperatura media	18.3
13906	7	Sololá	701	Sololá	3	Barraneche	3	Marzo	2023-03-14T00:00:00	2024-11-06T10:00:00	4	Temperatura máxima	18.5
13907	7	Sololá	701	Sololá	3	Barraneche	3	Marzo	2023-03-14T00:00:00	2024-11-06T10:00:00	3	Temperatura mínima	16.8
13908	7	Sololá	701	Sololá	3	Barraneche	3	Marzo	2023-03-14T00:00:00	2024-11-06T10:00:00	5	Humedad	55
13909	7	Sololá	701	Sololá	3	Barraneche	3	Marzo	2023-03-14T00:00:00	2024-11-06T10:00:00	6	Velocidad del viento	6.4
13910	7	Sololá	701	Sololá	3	Barraneche	3	Marzo	2023-03-14T00:00:00	2024-11-06T10:00:00	7	Dirección del viento	6.44
13911	7	Sololá	701	Sololá	3	Barraneche	3	Marzo	2023-03-14T00:00:00	2024-11-06T10:00:00	1	Precipitación	0
13912	7	Sololá	701	Sololá	3	Barraneche	3	Marzo	2023-03-14T00:00:00	2024-11-06T10:00:00	8	Radiación solar	810
13913	7	Sololá	701	Sololá	3	Barraneche	3	Marzo	2023-03-14T00:00:00	2024-11-06T11:00:00	2	Temperatura media	18.6
13914	7	Sololá	701	Sololá	3	Barraneche	3	Marzo	2023-03-14T00:00:00	2024-11-06T11:00:00	4	Temperatura máxima	18.8
13915	7	Sololá	701	Sololá	3	Barraneche	3	Marzo	2023-03-14T00:00:00	2024-11-06T11:00:00	3	Temperatura mínima	18.1
13916	7	Sololá	701	Sololá	3	Barraneche	3	Marzo	2023-03-14T00:00:00	2024-11-06T11:00:00	5	Humedad	57
13917	7	Sololá	701	Sololá	3	Barraneche	3	Marzo	2023-03-14T00:00:00	2024-11-06T11:00:00	6	Velocidad del viento	8
13918	7	Sololá	701	Sololá	3	Barraneche	3	Marzo	2023-03-14T00:00:00	2024-11-06T11:00:00	7	Dirección del viento	8.05
13919	7	Sololá	701	Sololá	3	Barraneche	3	Marzo	2023-03-14T00:00:00	2024-11-06T11:00:00	1	Precipitación	0
13920	7	Sololá	701	Sololá	3	Barraneche	3	Marzo	2023-03-14T00:00:00	2024-11-06T11:00:00	8	Radiación solar	576
13921	7	Sololá	701	Sololá	3	Barraneche	3	Marzo	2023-03-14T00:00:00	2024-11-06T12:00:00	2	Temperatura media	19.2
13922	7	Sololá	701	Sololá	3	Barraneche	3	Marzo	2023-03-14T00:00:00	2024-11-06T12:00:00	4	Temperatura máxima	19.3
13923	7	Sololá	701	Sololá	3	Barraneche	3	Marzo	2023-03-14T00:00:00	2024-11-06T12:00:00	3	Temperatura mínima	18.5
13924	7	Sololá	701	Sololá	3	Barraneche	3	Marzo	2023-03-14T00:00:00	2024-11-06T12:00:00	5	Humedad	55
13925	7	Sololá	701	Sololá	3	Barraneche	3	Marzo	2023-03-14T00:00:00	2024-11-06T12:00:00	6	Velocidad del viento	9.7
13926	7	Sololá	701	Sololá	3	Barraneche	3	Marzo	2023-03-14T00:00:00	2024-11-06T12:00:00	7	Dirección del viento	9.66
13927	7	Sololá	701	Sololá	3	Barraneche	3	Marzo	2023-03-14T00:00:00	2024-11-06T12:00:00	1	Precipitación	0
13928	7	Sololá	701	Sololá	3	Barraneche	3	Marzo	2023-03-14T00:00:00	2024-11-06T12:00:00	8	Radiación solar	457
13929	7	Sololá	701	Sololá	3	Barraneche	3	Marzo	2023-03-14T00:00:00	2024-11-06T13:00:00	2	Temperatura media	17.4
13930	7	Sololá	701	Sololá	3	Barraneche	3	Marzo	2023-03-14T00:00:00	2024-11-06T13:00:00	4	Temperatura máxima	19.2
13931	7	Sololá	701	Sololá	3	Barraneche	3	Marzo	2023-03-14T00:00:00	2024-11-06T13:00:00	3	Temperatura mínima	17.3
13932	7	Sololá	701	Sololá	3	Barraneche	3	Marzo	2023-03-14T00:00:00	2024-11-06T13:00:00	5	Humedad	66
13933	7	Sololá	701	Sololá	3	Barraneche	3	Marzo	2023-03-14T00:00:00	2024-11-06T13:00:00	6	Velocidad del viento	11.3
13934	7	Sololá	701	Sololá	3	Barraneche	3	Marzo	2023-03-14T00:00:00	2024-11-06T13:00:00	7	Dirección del viento	11.27
13935	7	Sololá	701	Sololá	3	Barraneche	3	Marzo	2023-03-14T00:00:00	2024-11-06T13:00:00	1	Precipitación	0
13936	7	Sololá	701	Sololá	3	Barraneche	3	Marzo	2023-03-14T00:00:00	2024-11-06T13:00:00	8	Radiación solar	203
13937	7	Sololá	701	Sololá	3	Barraneche	3	Marzo	2023-03-14T00:00:00	2024-11-06T14:00:00	2	Temperatura media	15.9
13938	7	Sololá	701	Sololá	3	Barraneche	3	Marzo	2023-03-14T00:00:00	2024-11-06T14:00:00	4	Temperatura máxima	17.3
13939	7	Sololá	701	Sololá	3	Barraneche	3	Marzo	2023-03-14T00:00:00	2024-11-06T14:00:00	3	Temperatura mínima	15.8
13940	7	Sololá	701	Sololá	3	Barraneche	3	Marzo	2023-03-14T00:00:00	2024-11-06T14:00:00	5	Humedad	75
13941	7	Sololá	701	Sololá	3	Barraneche	3	Marzo	2023-03-14T00:00:00	2024-11-06T14:00:00	6	Velocidad del viento	9.7
13942	7	Sololá	701	Sololá	3	Barraneche	3	Marzo	2023-03-14T00:00:00	2024-11-06T14:00:00	7	Dirección del viento	9.66
13943	7	Sololá	701	Sololá	3	Barraneche	3	Marzo	2023-03-14T00:00:00	2024-11-06T14:00:00	1	Precipitación	0.8
13944	7	Sololá	701	Sololá	3	Barraneche	3	Marzo	2023-03-14T00:00:00	2024-11-06T14:00:00	8	Radiación solar	167
13945	7	Sololá	701	Sololá	3	Barraneche	3	Marzo	2023-03-14T00:00:00	2024-11-06T15:00:00	2	Temperatura media	15.7
13946	7	Sololá	701	Sololá	3	Barraneche	3	Marzo	2023-03-14T00:00:00	2024-11-06T15:00:00	4	Temperatura máxima	16.3
13947	7	Sololá	701	Sololá	3	Barraneche	3	Marzo	2023-03-14T00:00:00	2024-11-06T15:00:00	3	Temperatura mínima	15.7
13948	7	Sololá	701	Sololá	3	Barraneche	3	Marzo	2023-03-14T00:00:00	2024-11-06T15:00:00	5	Humedad	74
13949	7	Sololá	701	Sololá	3	Barraneche	3	Marzo	2023-03-14T00:00:00	2024-11-06T15:00:00	6	Velocidad del viento	6.4
13950	7	Sololá	701	Sololá	3	Barraneche	3	Marzo	2023-03-14T00:00:00	2024-11-06T15:00:00	7	Dirección del viento	6.44
13951	7	Sololá	701	Sololá	3	Barraneche	3	Marzo	2023-03-14T00:00:00	2024-11-06T15:00:00	1	Precipitación	0
13952	7	Sololá	701	Sololá	3	Barraneche	3	Marzo	2023-03-14T00:00:00	2024-11-06T15:00:00	8	Radiación solar	187
13953	7	Sololá	701	Sololá	3	Barraneche	3	Marzo	2023-03-14T00:00:00	2024-11-06T16:00:00	2	Temperatura media	14.8
13954	7	Sololá	701	Sololá	3	Barraneche	3	Marzo	2023-03-14T00:00:00	2024-11-06T16:00:00	4	Temperatura máxima	15.7
13955	7	Sololá	701	Sololá	3	Barraneche	3	Marzo	2023-03-14T00:00:00	2024-11-06T16:00:00	3	Temperatura mínima	14.7
13956	7	Sololá	701	Sololá	3	Barraneche	3	Marzo	2023-03-14T00:00:00	2024-11-06T16:00:00	5	Humedad	80
13957	7	Sololá	701	Sololá	3	Barraneche	3	Marzo	2023-03-14T00:00:00	2024-11-06T16:00:00	6	Velocidad del viento	6.4
13958	7	Sololá	701	Sololá	3	Barraneche	3	Marzo	2023-03-14T00:00:00	2024-11-06T16:00:00	7	Dirección del viento	6.44
13959	7	Sololá	701	Sololá	3	Barraneche	3	Marzo	2023-03-14T00:00:00	2024-11-06T16:00:00	1	Precipitación	1.4
13960	7	Sololá	701	Sololá	3	Barraneche	3	Marzo	2023-03-14T00:00:00	2024-11-06T16:00:00	8	Radiación solar	105
13961	7	Sololá	701	Sololá	3	Barraneche	3	Marzo	2023-03-14T00:00:00	2024-11-06T17:00:00	2	Temperatura media	15.4
13962	7	Sololá	701	Sololá	3	Barraneche	3	Marzo	2023-03-14T00:00:00	2024-11-06T17:00:00	4	Temperatura máxima	15.4
13963	7	Sololá	701	Sololá	3	Barraneche	3	Marzo	2023-03-14T00:00:00	2024-11-06T17:00:00	3	Temperatura mínima	14.4
13964	7	Sololá	701	Sololá	3	Barraneche	3	Marzo	2023-03-14T00:00:00	2024-11-06T17:00:00	5	Humedad	74
13965	7	Sololá	701	Sololá	3	Barraneche	3	Marzo	2023-03-14T00:00:00	2024-11-06T17:00:00	6	Velocidad del viento	3.2
13966	7	Sololá	701	Sololá	3	Barraneche	3	Marzo	2023-03-14T00:00:00	2024-11-06T17:00:00	7	Dirección del viento	3.22
13967	7	Sololá	701	Sololá	3	Barraneche	3	Marzo	2023-03-14T00:00:00	2024-11-06T17:00:00	1	Precipitación	3
13968	7	Sololá	701	Sololá	3	Barraneche	3	Marzo	2023-03-14T00:00:00	2024-11-06T17:00:00	8	Radiación solar	192
13969	7	Sololá	701	Sololá	3	Barraneche	3	Marzo	2023-03-14T00:00:00	2024-11-06T18:00:00	2	Temperatura media	13.9
13970	7	Sololá	701	Sololá	3	Barraneche	3	Marzo	2023-03-14T00:00:00	2024-11-06T18:00:00	4	Temperatura máxima	15.6
13971	7	Sololá	701	Sololá	3	Barraneche	3	Marzo	2023-03-14T00:00:00	2024-11-06T18:00:00	3	Temperatura mínima	13.9
13972	7	Sololá	701	Sololá	3	Barraneche	3	Marzo	2023-03-14T00:00:00	2024-11-06T18:00:00	5	Humedad	74
13973	7	Sololá	701	Sololá	3	Barraneche	3	Marzo	2023-03-14T00:00:00	2024-11-06T18:00:00	6	Velocidad del viento	4.8
13974	7	Sololá	701	Sololá	3	Barraneche	3	Marzo	2023-03-14T00:00:00	2024-11-06T18:00:00	7	Dirección del viento	4.83
13975	7	Sololá	701	Sololá	3	Barraneche	3	Marzo	2023-03-14T00:00:00	2024-11-06T18:00:00	1	Precipitación	0
13976	7	Sololá	701	Sololá	3	Barraneche	3	Marzo	2023-03-14T00:00:00	2024-11-06T18:00:00	8	Radiación solar	97
13977	7	Sololá	701	Sololá	3	Barraneche	3	Marzo	2023-03-14T00:00:00	2024-11-06T19:00:00	2	Temperatura media	12.7
13978	7	Sololá	701	Sololá	3	Barraneche	3	Marzo	2023-03-14T00:00:00	2024-11-06T19:00:00	4	Temperatura máxima	14
13979	7	Sololá	701	Sololá	3	Barraneche	3	Marzo	2023-03-14T00:00:00	2024-11-06T19:00:00	3	Temperatura mínima	12.7
13980	7	Sololá	701	Sololá	3	Barraneche	3	Marzo	2023-03-14T00:00:00	2024-11-06T19:00:00	5	Humedad	73
13981	7	Sololá	701	Sololá	3	Barraneche	3	Marzo	2023-03-14T00:00:00	2024-11-06T19:00:00	6	Velocidad del viento	6.4
13982	7	Sololá	701	Sololá	3	Barraneche	3	Marzo	2023-03-14T00:00:00	2024-11-06T19:00:00	7	Dirección del viento	6.44
13983	7	Sololá	701	Sololá	3	Barraneche	3	Marzo	2023-03-14T00:00:00	2024-11-06T19:00:00	1	Precipitación	0
13984	7	Sololá	701	Sololá	3	Barraneche	3	Marzo	2023-03-14T00:00:00	2024-11-06T19:00:00	8	Radiación solar	0
13985	7	Sololá	701	Sololá	3	Barraneche	3	Marzo	2023-03-14T00:00:00	2024-11-06T20:00:00	2	Temperatura media	11.7
13986	7	Sololá	701	Sololá	3	Barraneche	3	Marzo	2023-03-14T00:00:00	2024-11-06T20:00:00	4	Temperatura máxima	12.7
13987	7	Sololá	701	Sololá	3	Barraneche	3	Marzo	2023-03-14T00:00:00	2024-11-06T20:00:00	3	Temperatura mínima	11.7
13988	7	Sololá	701	Sololá	3	Barraneche	3	Marzo	2023-03-14T00:00:00	2024-11-06T20:00:00	5	Humedad	76
13989	7	Sololá	701	Sololá	3	Barraneche	3	Marzo	2023-03-14T00:00:00	2024-11-06T20:00:00	6	Velocidad del viento	4.8
13990	7	Sololá	701	Sololá	3	Barraneche	3	Marzo	2023-03-14T00:00:00	2024-11-06T20:00:00	7	Dirección del viento	4.83
13991	7	Sololá	701	Sololá	3	Barraneche	3	Marzo	2023-03-14T00:00:00	2024-11-06T20:00:00	1	Precipitación	0
13992	7	Sololá	701	Sololá	3	Barraneche	3	Marzo	2023-03-14T00:00:00	2024-11-06T20:00:00	8	Radiación solar	0
13993	7	Sololá	701	Sololá	3	Barraneche	3	Marzo	2023-03-14T00:00:00	2024-11-06T21:00:00	2	Temperatura media	11.6
13994	7	Sololá	701	Sololá	3	Barraneche	3	Marzo	2023-03-14T00:00:00	2024-11-06T21:00:00	4	Temperatura máxima	11.8
13995	7	Sololá	701	Sololá	3	Barraneche	3	Marzo	2023-03-14T00:00:00	2024-11-06T21:00:00	3	Temperatura mínima	11.3
13996	7	Sololá	701	Sololá	3	Barraneche	3	Marzo	2023-03-14T00:00:00	2024-11-06T21:00:00	5	Humedad	73
13997	7	Sololá	701	Sololá	3	Barraneche	3	Marzo	2023-03-14T00:00:00	2024-11-06T21:00:00	6	Velocidad del viento	8
13998	7	Sololá	701	Sololá	3	Barraneche	3	Marzo	2023-03-14T00:00:00	2024-11-06T21:00:00	7	Dirección del viento	8.05
13999	7	Sololá	701	Sololá	3	Barraneche	3	Marzo	2023-03-14T00:00:00	2024-11-06T21:00:00	1	Precipitación	0
14000	7	Sololá	701	Sololá	3	Barraneche	3	Marzo	2023-03-14T00:00:00	2024-11-06T21:00:00	8	Radiación solar	0
14001	7	Sololá	701	Sololá	3	Barraneche	3	Marzo	2023-03-14T00:00:00	2024-11-06T22:00:00	2	Temperatura media	11.6
14002	7	Sololá	701	Sololá	3	Barraneche	3	Marzo	2023-03-14T00:00:00	2024-11-06T22:00:00	4	Temperatura máxima	11.7
14003	7	Sololá	701	Sololá	3	Barraneche	3	Marzo	2023-03-14T00:00:00	2024-11-06T22:00:00	3	Temperatura mínima	11.2
14004	7	Sololá	701	Sololá	3	Barraneche	3	Marzo	2023-03-14T00:00:00	2024-11-06T22:00:00	5	Humedad	71
14005	7	Sololá	701	Sololá	3	Barraneche	3	Marzo	2023-03-14T00:00:00	2024-11-06T22:00:00	6	Velocidad del viento	8
14006	7	Sololá	701	Sololá	3	Barraneche	3	Marzo	2023-03-14T00:00:00	2024-11-06T22:00:00	7	Dirección del viento	8.05
14007	7	Sololá	701	Sololá	3	Barraneche	3	Marzo	2023-03-14T00:00:00	2024-11-06T22:00:00	1	Precipitación	0
14008	7	Sololá	701	Sololá	3	Barraneche	3	Marzo	2023-03-14T00:00:00	2024-11-06T22:00:00	8	Radiación solar	0
14009	7	Sololá	701	Sololá	3	Barraneche	3	Marzo	2023-03-14T00:00:00	2024-11-06T23:00:00	2	Temperatura media	10.8
14010	7	Sololá	701	Sololá	3	Barraneche	3	Marzo	2023-03-14T00:00:00	2024-11-06T23:00:00	4	Temperatura máxima	11.6
14011	7	Sololá	701	Sololá	3	Barraneche	3	Marzo	2023-03-14T00:00:00	2024-11-06T23:00:00	3	Temperatura mínima	10.8
14012	7	Sololá	701	Sololá	3	Barraneche	3	Marzo	2023-03-14T00:00:00	2024-11-06T23:00:00	5	Humedad	73
14013	7	Sololá	701	Sololá	3	Barraneche	3	Marzo	2023-03-14T00:00:00	2024-11-06T23:00:00	6	Velocidad del viento	8
14014	7	Sololá	701	Sololá	3	Barraneche	3	Marzo	2023-03-14T00:00:00	2024-11-06T23:00:00	7	Dirección del viento	8.05
14015	7	Sololá	701	Sololá	3	Barraneche	3	Marzo	2023-03-14T00:00:00	2024-11-06T23:00:00	1	Precipitación	0
14016	7	Sololá	701	Sololá	3	Barraneche	3	Marzo	2023-03-14T00:00:00	2024-11-06T23:00:00	8	Radiación solar	0
14017	7	Sololá	701	Sololá	3	Barraneche	3	Marzo	2023-03-15T00:00:00	2024-11-06T00:00:00	2	Temperatura media	10.4
14018	7	Sololá	701	Sololá	3	Barraneche	3	Marzo	2023-03-15T00:00:00	2024-11-06T00:00:00	4	Temperatura máxima	10.8
14019	7	Sololá	701	Sololá	3	Barraneche	3	Marzo	2023-03-15T00:00:00	2024-11-06T00:00:00	3	Temperatura mínima	10.3
14020	7	Sololá	701	Sololá	3	Barraneche	3	Marzo	2023-03-15T00:00:00	2024-11-06T00:00:00	5	Humedad	72
14021	7	Sololá	701	Sololá	3	Barraneche	3	Marzo	2023-03-15T00:00:00	2024-11-06T00:00:00	6	Velocidad del viento	9.7
14022	7	Sololá	701	Sololá	3	Barraneche	3	Marzo	2023-03-15T00:00:00	2024-11-06T00:00:00	7	Dirección del viento	9.66
14023	7	Sololá	701	Sololá	3	Barraneche	3	Marzo	2023-03-15T00:00:00	2024-11-06T00:00:00	1	Precipitación	0
14024	7	Sololá	701	Sololá	3	Barraneche	3	Marzo	2023-03-15T00:00:00	2024-11-06T00:00:00	8	Radiación solar	0
14025	7	Sololá	701	Sololá	3	Barraneche	3	Marzo	2023-03-15T00:00:00	2024-11-06T01:00:00	2	Temperatura media	10.7
14026	7	Sololá	701	Sololá	3	Barraneche	3	Marzo	2023-03-15T00:00:00	2024-11-06T01:00:00	4	Temperatura máxima	11.1
14027	7	Sololá	701	Sololá	3	Barraneche	3	Marzo	2023-03-15T00:00:00	2024-11-06T01:00:00	3	Temperatura mínima	10.3
14028	7	Sololá	701	Sololá	3	Barraneche	3	Marzo	2023-03-15T00:00:00	2024-11-06T01:00:00	5	Humedad	71
14029	7	Sololá	701	Sololá	3	Barraneche	3	Marzo	2023-03-15T00:00:00	2024-11-06T01:00:00	6	Velocidad del viento	9.7
14030	7	Sololá	701	Sololá	3	Barraneche	3	Marzo	2023-03-15T00:00:00	2024-11-06T01:00:00	7	Dirección del viento	9.66
14031	7	Sololá	701	Sololá	3	Barraneche	3	Marzo	2023-03-15T00:00:00	2024-11-06T01:00:00	1	Precipitación	0
14032	7	Sololá	701	Sololá	3	Barraneche	3	Marzo	2023-03-15T00:00:00	2024-11-06T01:00:00	8	Radiación solar	0
14033	7	Sololá	701	Sololá	3	Barraneche	3	Marzo	2023-03-15T00:00:00	2024-11-06T02:00:00	2	Temperatura media	10.2
14034	7	Sololá	701	Sololá	3	Barraneche	3	Marzo	2023-03-15T00:00:00	2024-11-06T02:00:00	4	Temperatura máxima	10.7
14035	7	Sololá	701	Sololá	3	Barraneche	3	Marzo	2023-03-15T00:00:00	2024-11-06T02:00:00	3	Temperatura mínima	10.1
14036	7	Sololá	701	Sololá	3	Barraneche	3	Marzo	2023-03-15T00:00:00	2024-11-06T02:00:00	5	Humedad	74
14037	7	Sololá	701	Sololá	3	Barraneche	3	Marzo	2023-03-15T00:00:00	2024-11-06T02:00:00	6	Velocidad del viento	11.3
14038	7	Sololá	701	Sololá	3	Barraneche	3	Marzo	2023-03-15T00:00:00	2024-11-06T02:00:00	7	Dirección del viento	11.27
14039	7	Sololá	701	Sololá	3	Barraneche	3	Marzo	2023-03-15T00:00:00	2024-11-06T02:00:00	1	Precipitación	0
14040	7	Sololá	701	Sololá	3	Barraneche	3	Marzo	2023-03-15T00:00:00	2024-11-06T02:00:00	8	Radiación solar	0
14041	7	Sololá	701	Sololá	3	Barraneche	3	Marzo	2023-03-15T00:00:00	2024-11-06T03:00:00	2	Temperatura media	10.4
14042	7	Sololá	701	Sololá	3	Barraneche	3	Marzo	2023-03-15T00:00:00	2024-11-06T03:00:00	4	Temperatura máxima	10.7
14043	7	Sololá	701	Sololá	3	Barraneche	3	Marzo	2023-03-15T00:00:00	2024-11-06T03:00:00	3	Temperatura mínima	10
14044	7	Sololá	701	Sololá	3	Barraneche	3	Marzo	2023-03-15T00:00:00	2024-11-06T03:00:00	5	Humedad	73
14045	7	Sololá	701	Sololá	3	Barraneche	3	Marzo	2023-03-15T00:00:00	2024-11-06T03:00:00	6	Velocidad del viento	8
14046	7	Sololá	701	Sololá	3	Barraneche	3	Marzo	2023-03-15T00:00:00	2024-11-06T03:00:00	7	Dirección del viento	8.05
14047	7	Sololá	701	Sololá	3	Barraneche	3	Marzo	2023-03-15T00:00:00	2024-11-06T03:00:00	1	Precipitación	0
14048	7	Sololá	701	Sololá	3	Barraneche	3	Marzo	2023-03-15T00:00:00	2024-11-06T03:00:00	8	Radiación solar	0
14049	7	Sololá	701	Sololá	3	Barraneche	3	Marzo	2023-03-15T00:00:00	2024-11-06T04:00:00	2	Temperatura media	9.6
14050	7	Sololá	701	Sololá	3	Barraneche	3	Marzo	2023-03-15T00:00:00	2024-11-06T04:00:00	4	Temperatura máxima	10.5
14051	7	Sololá	701	Sololá	3	Barraneche	3	Marzo	2023-03-15T00:00:00	2024-11-06T04:00:00	3	Temperatura mínima	9.6
14052	7	Sololá	701	Sololá	3	Barraneche	3	Marzo	2023-03-15T00:00:00	2024-11-06T04:00:00	5	Humedad	74
14053	7	Sololá	701	Sololá	3	Barraneche	3	Marzo	2023-03-15T00:00:00	2024-11-06T04:00:00	6	Velocidad del viento	6.4
14054	7	Sololá	701	Sololá	3	Barraneche	3	Marzo	2023-03-15T00:00:00	2024-11-06T04:00:00	7	Dirección del viento	6.44
14055	7	Sololá	701	Sololá	3	Barraneche	3	Marzo	2023-03-15T00:00:00	2024-11-06T04:00:00	1	Precipitación	0
14056	7	Sololá	701	Sololá	3	Barraneche	3	Marzo	2023-03-15T00:00:00	2024-11-06T04:00:00	8	Radiación solar	0
14057	7	Sololá	701	Sololá	3	Barraneche	3	Marzo	2023-03-15T00:00:00	2024-11-06T05:00:00	2	Temperatura media	10.3
14058	7	Sololá	701	Sololá	3	Barraneche	3	Marzo	2023-03-15T00:00:00	2024-11-06T05:00:00	4	Temperatura máxima	10.4
14059	7	Sololá	701	Sololá	3	Barraneche	3	Marzo	2023-03-15T00:00:00	2024-11-06T05:00:00	3	Temperatura mínima	9.6
14060	7	Sololá	701	Sololá	3	Barraneche	3	Marzo	2023-03-15T00:00:00	2024-11-06T05:00:00	5	Humedad	70
14061	7	Sololá	701	Sololá	3	Barraneche	3	Marzo	2023-03-15T00:00:00	2024-11-06T05:00:00	6	Velocidad del viento	9.7
14062	7	Sololá	701	Sololá	3	Barraneche	3	Marzo	2023-03-15T00:00:00	2024-11-06T05:00:00	7	Dirección del viento	9.66
14063	7	Sololá	701	Sololá	3	Barraneche	3	Marzo	2023-03-15T00:00:00	2024-11-06T05:00:00	1	Precipitación	0
14064	7	Sololá	701	Sololá	3	Barraneche	3	Marzo	2023-03-15T00:00:00	2024-11-06T05:00:00	8	Radiación solar	0
14065	7	Sololá	701	Sololá	3	Barraneche	3	Marzo	2023-03-15T00:00:00	2024-11-06T06:00:00	2	Temperatura media	10.1
14066	7	Sololá	701	Sololá	3	Barraneche	3	Marzo	2023-03-15T00:00:00	2024-11-06T06:00:00	4	Temperatura máxima	10.6
14067	7	Sololá	701	Sololá	3	Barraneche	3	Marzo	2023-03-15T00:00:00	2024-11-06T06:00:00	3	Temperatura mínima	9.7
14068	7	Sololá	701	Sololá	3	Barraneche	3	Marzo	2023-03-15T00:00:00	2024-11-06T06:00:00	5	Humedad	70
14069	7	Sololá	701	Sololá	3	Barraneche	3	Marzo	2023-03-15T00:00:00	2024-11-06T06:00:00	6	Velocidad del viento	8
14070	7	Sololá	701	Sololá	3	Barraneche	3	Marzo	2023-03-15T00:00:00	2024-11-06T06:00:00	7	Dirección del viento	8.05
14071	7	Sololá	701	Sololá	3	Barraneche	3	Marzo	2023-03-15T00:00:00	2024-11-06T06:00:00	1	Precipitación	0
14072	7	Sololá	701	Sololá	3	Barraneche	3	Marzo	2023-03-15T00:00:00	2024-11-06T06:00:00	8	Radiación solar	0
14073	7	Sololá	701	Sololá	3	Barraneche	3	Marzo	2023-03-15T00:00:00	2024-11-06T07:00:00	2	Temperatura media	12.8
14074	7	Sololá	701	Sololá	3	Barraneche	3	Marzo	2023-03-15T00:00:00	2024-11-06T07:00:00	4	Temperatura máxima	12.8
14075	7	Sololá	701	Sololá	3	Barraneche	3	Marzo	2023-03-15T00:00:00	2024-11-06T07:00:00	3	Temperatura mínima	10.1
14076	7	Sololá	701	Sololá	3	Barraneche	3	Marzo	2023-03-15T00:00:00	2024-11-06T07:00:00	5	Humedad	68
14077	7	Sololá	701	Sololá	3	Barraneche	3	Marzo	2023-03-15T00:00:00	2024-11-06T07:00:00	6	Velocidad del viento	11.3
14078	7	Sololá	701	Sololá	3	Barraneche	3	Marzo	2023-03-15T00:00:00	2024-11-06T07:00:00	7	Dirección del viento	11.27
14079	7	Sololá	701	Sololá	3	Barraneche	3	Marzo	2023-03-15T00:00:00	2024-11-06T07:00:00	1	Precipitación	0
14080	7	Sololá	701	Sololá	3	Barraneche	3	Marzo	2023-03-15T00:00:00	2024-11-06T07:00:00	8	Radiación solar	17
14081	7	Sololá	701	Sololá	3	Barraneche	3	Marzo	2023-03-15T00:00:00	2024-11-06T08:00:00	2	Temperatura media	14.1
14082	7	Sololá	701	Sololá	3	Barraneche	3	Marzo	2023-03-15T00:00:00	2024-11-06T08:00:00	4	Temperatura máxima	14.1
14083	7	Sololá	701	Sololá	3	Barraneche	3	Marzo	2023-03-15T00:00:00	2024-11-06T08:00:00	3	Temperatura mínima	12.7
14084	7	Sololá	701	Sololá	3	Barraneche	3	Marzo	2023-03-15T00:00:00	2024-11-06T08:00:00	5	Humedad	65
14085	7	Sololá	701	Sololá	3	Barraneche	3	Marzo	2023-03-15T00:00:00	2024-11-06T08:00:00	6	Velocidad del viento	8
14086	7	Sololá	701	Sololá	3	Barraneche	3	Marzo	2023-03-15T00:00:00	2024-11-06T08:00:00	7	Dirección del viento	8.05
14087	7	Sololá	701	Sololá	3	Barraneche	3	Marzo	2023-03-15T00:00:00	2024-11-06T08:00:00	1	Precipitación	0
14088	7	Sololá	701	Sololá	3	Barraneche	3	Marzo	2023-03-15T00:00:00	2024-11-06T08:00:00	8	Radiación solar	98
14089	7	Sololá	701	Sololá	3	Barraneche	3	Marzo	2023-03-15T00:00:00	2024-11-06T09:00:00	2	Temperatura media	15.6
14090	7	Sololá	701	Sololá	3	Barraneche	3	Marzo	2023-03-15T00:00:00	2024-11-06T09:00:00	4	Temperatura máxima	15.6
14091	7	Sololá	701	Sololá	3	Barraneche	3	Marzo	2023-03-15T00:00:00	2024-11-06T09:00:00	3	Temperatura mínima	14.1
14092	7	Sololá	701	Sololá	3	Barraneche	3	Marzo	2023-03-15T00:00:00	2024-11-06T09:00:00	5	Humedad	59
14093	7	Sololá	701	Sololá	3	Barraneche	3	Marzo	2023-03-15T00:00:00	2024-11-06T09:00:00	6	Velocidad del viento	6.4
14094	7	Sololá	701	Sololá	3	Barraneche	3	Marzo	2023-03-15T00:00:00	2024-11-06T09:00:00	7	Dirección del viento	6.44
14095	7	Sololá	701	Sololá	3	Barraneche	3	Marzo	2023-03-15T00:00:00	2024-11-06T09:00:00	1	Precipitación	0
14096	7	Sololá	701	Sololá	3	Barraneche	3	Marzo	2023-03-15T00:00:00	2024-11-06T09:00:00	8	Radiación solar	237
14097	7	Sololá	701	Sololá	3	Barraneche	3	Marzo	2023-03-15T00:00:00	2024-11-06T10:00:00	2	Temperatura media	16.2
14098	7	Sololá	701	Sololá	3	Barraneche	3	Marzo	2023-03-15T00:00:00	2024-11-06T10:00:00	4	Temperatura máxima	16.6
14099	7	Sololá	701	Sololá	3	Barraneche	3	Marzo	2023-03-15T00:00:00	2024-11-06T10:00:00	3	Temperatura mínima	15.6
14100	7	Sololá	701	Sololá	3	Barraneche	3	Marzo	2023-03-15T00:00:00	2024-11-06T10:00:00	5	Humedad	60
14101	7	Sololá	701	Sololá	3	Barraneche	3	Marzo	2023-03-15T00:00:00	2024-11-06T10:00:00	6	Velocidad del viento	12.9
14102	7	Sololá	701	Sololá	3	Barraneche	3	Marzo	2023-03-15T00:00:00	2024-11-06T10:00:00	7	Dirección del viento	12.87
14103	7	Sololá	701	Sololá	3	Barraneche	3	Marzo	2023-03-15T00:00:00	2024-11-06T10:00:00	1	Precipitación	0
14104	7	Sololá	701	Sololá	3	Barraneche	3	Marzo	2023-03-15T00:00:00	2024-11-06T10:00:00	8	Radiación solar	667
14105	7	Sololá	701	Sololá	3	Barraneche	3	Marzo	2023-03-15T00:00:00	2024-11-06T11:00:00	2	Temperatura media	17.7
14106	7	Sololá	701	Sololá	3	Barraneche	3	Marzo	2023-03-15T00:00:00	2024-11-06T11:00:00	4	Temperatura máxima	18.1
14107	7	Sololá	701	Sololá	3	Barraneche	3	Marzo	2023-03-15T00:00:00	2024-11-06T11:00:00	3	Temperatura mínima	16.2
14108	7	Sololá	701	Sololá	3	Barraneche	3	Marzo	2023-03-15T00:00:00	2024-11-06T11:00:00	5	Humedad	48
14109	7	Sololá	701	Sololá	3	Barraneche	3	Marzo	2023-03-15T00:00:00	2024-11-06T11:00:00	6	Velocidad del viento	11.3
14110	7	Sololá	701	Sololá	3	Barraneche	3	Marzo	2023-03-15T00:00:00	2024-11-06T11:00:00	7	Dirección del viento	11.27
14111	7	Sololá	701	Sololá	3	Barraneche	3	Marzo	2023-03-15T00:00:00	2024-11-06T11:00:00	1	Precipitación	0
14112	7	Sololá	701	Sololá	3	Barraneche	3	Marzo	2023-03-15T00:00:00	2024-11-06T11:00:00	8	Radiación solar	874
14113	7	Sololá	701	Sololá	3	Barraneche	3	Marzo	2023-03-15T00:00:00	2024-11-06T12:00:00	2	Temperatura media	19.2
14114	7	Sololá	701	Sololá	3	Barraneche	3	Marzo	2023-03-15T00:00:00	2024-11-06T12:00:00	4	Temperatura máxima	19.2
14115	7	Sololá	701	Sololá	3	Barraneche	3	Marzo	2023-03-15T00:00:00	2024-11-06T12:00:00	3	Temperatura mínima	17.4
14116	7	Sololá	701	Sololá	3	Barraneche	3	Marzo	2023-03-15T00:00:00	2024-11-06T12:00:00	5	Humedad	43
14117	7	Sololá	701	Sololá	3	Barraneche	3	Marzo	2023-03-15T00:00:00	2024-11-06T12:00:00	6	Velocidad del viento	14.5
14118	7	Sololá	701	Sololá	3	Barraneche	3	Marzo	2023-03-15T00:00:00	2024-11-06T12:00:00	7	Dirección del viento	14.48
14119	7	Sololá	701	Sololá	3	Barraneche	3	Marzo	2023-03-15T00:00:00	2024-11-06T12:00:00	1	Precipitación	0
14120	7	Sololá	701	Sololá	3	Barraneche	3	Marzo	2023-03-15T00:00:00	2024-11-06T12:00:00	8	Radiación solar	933
14121	7	Sololá	701	Sololá	3	Barraneche	3	Marzo	2023-03-15T00:00:00	2024-11-06T13:00:00	2	Temperatura media	20.3
14122	7	Sololá	701	Sololá	3	Barraneche	3	Marzo	2023-03-15T00:00:00	2024-11-06T13:00:00	4	Temperatura máxima	20.3
14123	7	Sololá	701	Sololá	3	Barraneche	3	Marzo	2023-03-15T00:00:00	2024-11-06T13:00:00	3	Temperatura mínima	18.7
14124	7	Sololá	701	Sololá	3	Barraneche	3	Marzo	2023-03-15T00:00:00	2024-11-06T13:00:00	5	Humedad	38
14125	7	Sololá	701	Sololá	3	Barraneche	3	Marzo	2023-03-15T00:00:00	2024-11-06T13:00:00	6	Velocidad del viento	16.1
14126	7	Sololá	701	Sololá	3	Barraneche	3	Marzo	2023-03-15T00:00:00	2024-11-06T13:00:00	7	Dirección del viento	16.09
14127	7	Sololá	701	Sololá	3	Barraneche	3	Marzo	2023-03-15T00:00:00	2024-11-06T13:00:00	1	Precipitación	0
14128	7	Sololá	701	Sololá	3	Barraneche	3	Marzo	2023-03-15T00:00:00	2024-11-06T13:00:00	8	Radiación solar	1077
14129	7	Sololá	701	Sololá	3	Barraneche	3	Marzo	2023-03-15T00:00:00	2024-11-06T14:00:00	2	Temperatura media	17.6
14130	7	Sololá	701	Sololá	3	Barraneche	3	Marzo	2023-03-15T00:00:00	2024-11-06T14:00:00	4	Temperatura máxima	20.3
14131	7	Sololá	701	Sololá	3	Barraneche	3	Marzo	2023-03-15T00:00:00	2024-11-06T14:00:00	3	Temperatura mínima	17.6
14132	7	Sololá	701	Sololá	3	Barraneche	3	Marzo	2023-03-15T00:00:00	2024-11-06T14:00:00	5	Humedad	63
14133	7	Sololá	701	Sololá	3	Barraneche	3	Marzo	2023-03-15T00:00:00	2024-11-06T14:00:00	6	Velocidad del viento	14.5
14134	7	Sololá	701	Sololá	3	Barraneche	3	Marzo	2023-03-15T00:00:00	2024-11-06T14:00:00	7	Dirección del viento	14.48
14135	7	Sololá	701	Sololá	3	Barraneche	3	Marzo	2023-03-15T00:00:00	2024-11-06T14:00:00	1	Precipitación	0
14136	7	Sololá	701	Sololá	3	Barraneche	3	Marzo	2023-03-15T00:00:00	2024-11-06T14:00:00	8	Radiación solar	257
14137	7	Sololá	701	Sololá	3	Barraneche	3	Marzo	2023-03-15T00:00:00	2024-11-06T15:00:00	2	Temperatura media	15
14138	7	Sololá	701	Sololá	3	Barraneche	3	Marzo	2023-03-15T00:00:00	2024-11-06T15:00:00	4	Temperatura máxima	17.5
14139	7	Sololá	701	Sololá	3	Barraneche	3	Marzo	2023-03-15T00:00:00	2024-11-06T15:00:00	3	Temperatura mínima	14.9
14140	7	Sololá	701	Sololá	3	Barraneche	3	Marzo	2023-03-15T00:00:00	2024-11-06T15:00:00	5	Humedad	73
14141	7	Sololá	701	Sololá	3	Barraneche	3	Marzo	2023-03-15T00:00:00	2024-11-06T15:00:00	6	Velocidad del viento	6.4
14142	7	Sololá	701	Sololá	3	Barraneche	3	Marzo	2023-03-15T00:00:00	2024-11-06T15:00:00	7	Dirección del viento	6.44
14143	7	Sololá	701	Sololá	3	Barraneche	3	Marzo	2023-03-15T00:00:00	2024-11-06T15:00:00	1	Precipitación	0.4
14144	7	Sololá	701	Sololá	3	Barraneche	3	Marzo	2023-03-15T00:00:00	2024-11-06T15:00:00	8	Radiación solar	99
14145	7	Sololá	701	Sololá	3	Barraneche	3	Marzo	2023-03-15T00:00:00	2024-11-06T16:00:00	2	Temperatura media	14.9
14146	7	Sololá	701	Sololá	3	Barraneche	3	Marzo	2023-03-15T00:00:00	2024-11-06T16:00:00	4	Temperatura máxima	15.2
14147	7	Sololá	701	Sololá	3	Barraneche	3	Marzo	2023-03-15T00:00:00	2024-11-06T16:00:00	3	Temperatura mínima	14.8
14148	7	Sololá	701	Sololá	3	Barraneche	3	Marzo	2023-03-15T00:00:00	2024-11-06T16:00:00	5	Humedad	66
14149	7	Sololá	701	Sololá	3	Barraneche	3	Marzo	2023-03-15T00:00:00	2024-11-06T16:00:00	6	Velocidad del viento	3.2
14150	7	Sololá	701	Sololá	3	Barraneche	3	Marzo	2023-03-15T00:00:00	2024-11-06T16:00:00	7	Dirección del viento	3.22
14151	7	Sololá	701	Sololá	3	Barraneche	3	Marzo	2023-03-15T00:00:00	2024-11-06T16:00:00	1	Precipitación	0
14152	7	Sololá	701	Sololá	3	Barraneche	3	Marzo	2023-03-15T00:00:00	2024-11-06T16:00:00	8	Radiación solar	150
14153	7	Sololá	701	Sololá	3	Barraneche	3	Marzo	2023-03-15T00:00:00	2024-11-06T17:00:00	2	Temperatura media	13.7
14154	7	Sololá	701	Sololá	3	Barraneche	3	Marzo	2023-03-15T00:00:00	2024-11-06T17:00:00	4	Temperatura máxima	15.1
14155	7	Sololá	701	Sololá	3	Barraneche	3	Marzo	2023-03-15T00:00:00	2024-11-06T17:00:00	3	Temperatura mínima	13.7
14156	7	Sololá	701	Sololá	3	Barraneche	3	Marzo	2023-03-15T00:00:00	2024-11-06T17:00:00	5	Humedad	73
14157	7	Sololá	701	Sololá	3	Barraneche	3	Marzo	2023-03-15T00:00:00	2024-11-06T17:00:00	6	Velocidad del viento	3.2
14158	7	Sololá	701	Sololá	3	Barraneche	3	Marzo	2023-03-15T00:00:00	2024-11-06T17:00:00	7	Dirección del viento	3.22
14159	7	Sololá	701	Sololá	3	Barraneche	3	Marzo	2023-03-15T00:00:00	2024-11-06T17:00:00	1	Precipitación	4.4
14160	7	Sololá	701	Sololá	3	Barraneche	3	Marzo	2023-03-15T00:00:00	2024-11-06T17:00:00	8	Radiación solar	25
14161	7	Sololá	701	Sololá	3	Barraneche	3	Marzo	2023-03-15T00:00:00	2024-11-06T18:00:00	2	Temperatura media	12.8
14162	7	Sololá	701	Sololá	3	Barraneche	3	Marzo	2023-03-15T00:00:00	2024-11-06T18:00:00	4	Temperatura máxima	13.7
14163	7	Sololá	701	Sololá	3	Barraneche	3	Marzo	2023-03-15T00:00:00	2024-11-06T18:00:00	3	Temperatura mínima	12.8
14164	7	Sololá	701	Sololá	3	Barraneche	3	Marzo	2023-03-15T00:00:00	2024-11-06T18:00:00	5	Humedad	77
14165	7	Sololá	701	Sololá	3	Barraneche	3	Marzo	2023-03-15T00:00:00	2024-11-06T18:00:00	6	Velocidad del viento	3.2
14166	7	Sololá	701	Sololá	3	Barraneche	3	Marzo	2023-03-15T00:00:00	2024-11-06T18:00:00	7	Dirección del viento	3.22
14167	7	Sololá	701	Sololá	3	Barraneche	3	Marzo	2023-03-15T00:00:00	2024-11-06T18:00:00	1	Precipitación	1.8
14168	7	Sololá	701	Sololá	3	Barraneche	3	Marzo	2023-03-15T00:00:00	2024-11-06T18:00:00	8	Radiación solar	20
14169	7	Sololá	701	Sololá	3	Barraneche	3	Marzo	2023-03-15T00:00:00	2024-11-06T19:00:00	2	Temperatura media	10.8
14170	7	Sololá	701	Sololá	3	Barraneche	3	Marzo	2023-03-15T00:00:00	2024-11-06T19:00:00	4	Temperatura máxima	12.8
14171	7	Sololá	701	Sololá	3	Barraneche	3	Marzo	2023-03-15T00:00:00	2024-11-06T19:00:00	3	Temperatura mínima	10.8
14172	7	Sololá	701	Sololá	3	Barraneche	3	Marzo	2023-03-15T00:00:00	2024-11-06T19:00:00	5	Humedad	72
14173	7	Sololá	701	Sololá	3	Barraneche	3	Marzo	2023-03-15T00:00:00	2024-11-06T19:00:00	6	Velocidad del viento	4.8
14174	7	Sololá	701	Sololá	3	Barraneche	3	Marzo	2023-03-15T00:00:00	2024-11-06T19:00:00	7	Dirección del viento	4.83
14175	7	Sololá	701	Sololá	3	Barraneche	3	Marzo	2023-03-15T00:00:00	2024-11-06T19:00:00	1	Precipitación	1.2
14176	7	Sololá	701	Sololá	3	Barraneche	3	Marzo	2023-03-15T00:00:00	2024-11-06T19:00:00	8	Radiación solar	0
14177	7	Sololá	701	Sololá	3	Barraneche	3	Marzo	2023-03-15T00:00:00	2024-11-06T20:00:00	2	Temperatura media	12.1
14178	7	Sololá	701	Sololá	3	Barraneche	3	Marzo	2023-03-15T00:00:00	2024-11-06T20:00:00	4	Temperatura máxima	12.1
14179	7	Sololá	701	Sololá	3	Barraneche	3	Marzo	2023-03-15T00:00:00	2024-11-06T20:00:00	3	Temperatura mínima	10.1
14180	7	Sololá	701	Sololá	3	Barraneche	3	Marzo	2023-03-15T00:00:00	2024-11-06T20:00:00	5	Humedad	67
14181	7	Sololá	701	Sololá	3	Barraneche	3	Marzo	2023-03-15T00:00:00	2024-11-06T20:00:00	6	Velocidad del viento	4.8
14182	7	Sololá	701	Sololá	3	Barraneche	3	Marzo	2023-03-15T00:00:00	2024-11-06T20:00:00	7	Dirección del viento	4.83
14183	7	Sololá	701	Sololá	3	Barraneche	3	Marzo	2023-03-15T00:00:00	2024-11-06T20:00:00	1	Precipitación	0
14184	7	Sololá	701	Sololá	3	Barraneche	3	Marzo	2023-03-15T00:00:00	2024-11-06T20:00:00	8	Radiación solar	0
14185	7	Sololá	701	Sololá	3	Barraneche	3	Marzo	2023-03-15T00:00:00	2024-11-06T21:00:00	2	Temperatura media	12.3
14186	7	Sololá	701	Sololá	3	Barraneche	3	Marzo	2023-03-15T00:00:00	2024-11-06T21:00:00	4	Temperatura máxima	12.4
14187	7	Sololá	701	Sololá	3	Barraneche	3	Marzo	2023-03-15T00:00:00	2024-11-06T21:00:00	3	Temperatura mínima	11.8
14188	7	Sololá	701	Sololá	3	Barraneche	3	Marzo	2023-03-15T00:00:00	2024-11-06T21:00:00	5	Humedad	67
14189	7	Sololá	701	Sololá	3	Barraneche	3	Marzo	2023-03-15T00:00:00	2024-11-06T21:00:00	6	Velocidad del viento	8
14190	7	Sololá	701	Sololá	3	Barraneche	3	Marzo	2023-03-15T00:00:00	2024-11-06T21:00:00	7	Dirección del viento	8.05
14191	7	Sololá	701	Sololá	3	Barraneche	3	Marzo	2023-03-15T00:00:00	2024-11-06T21:00:00	1	Precipitación	0
14192	7	Sololá	701	Sololá	3	Barraneche	3	Marzo	2023-03-15T00:00:00	2024-11-06T21:00:00	8	Radiación solar	0
14193	7	Sololá	701	Sololá	3	Barraneche	3	Marzo	2023-03-15T00:00:00	2024-11-06T22:00:00	2	Temperatura media	12.5
14194	7	Sololá	701	Sololá	3	Barraneche	3	Marzo	2023-03-15T00:00:00	2024-11-06T22:00:00	4	Temperatura máxima	12.7
14195	7	Sololá	701	Sololá	3	Barraneche	3	Marzo	2023-03-15T00:00:00	2024-11-06T22:00:00	3	Temperatura mínima	12.3
14196	7	Sololá	701	Sololá	3	Barraneche	3	Marzo	2023-03-15T00:00:00	2024-11-06T22:00:00	5	Humedad	64
14197	7	Sololá	701	Sololá	3	Barraneche	3	Marzo	2023-03-15T00:00:00	2024-11-06T22:00:00	6	Velocidad del viento	11.3
14198	7	Sololá	701	Sololá	3	Barraneche	3	Marzo	2023-03-15T00:00:00	2024-11-06T22:00:00	7	Dirección del viento	11.27
14199	7	Sololá	701	Sololá	3	Barraneche	3	Marzo	2023-03-15T00:00:00	2024-11-06T22:00:00	1	Precipitación	0
14200	7	Sololá	701	Sololá	3	Barraneche	3	Marzo	2023-03-15T00:00:00	2024-11-06T22:00:00	8	Radiación solar	0
14201	7	Sololá	701	Sololá	3	Barraneche	3	Marzo	2023-03-15T00:00:00	2024-11-06T23:00:00	2	Temperatura media	12.5
14202	7	Sololá	701	Sololá	3	Barraneche	3	Marzo	2023-03-15T00:00:00	2024-11-06T23:00:00	4	Temperatura máxima	12.6
14203	7	Sololá	701	Sololá	3	Barraneche	3	Marzo	2023-03-15T00:00:00	2024-11-06T23:00:00	3	Temperatura mínima	12.3
14204	7	Sololá	701	Sololá	3	Barraneche	3	Marzo	2023-03-15T00:00:00	2024-11-06T23:00:00	5	Humedad	62
14205	7	Sololá	701	Sololá	3	Barraneche	3	Marzo	2023-03-15T00:00:00	2024-11-06T23:00:00	6	Velocidad del viento	11.3
14206	7	Sololá	701	Sololá	3	Barraneche	3	Marzo	2023-03-15T00:00:00	2024-11-06T23:00:00	7	Dirección del viento	11.27
14207	7	Sololá	701	Sololá	3	Barraneche	3	Marzo	2023-03-15T00:00:00	2024-11-06T23:00:00	1	Precipitación	0
14208	7	Sololá	701	Sololá	3	Barraneche	3	Marzo	2023-03-15T00:00:00	2024-11-06T23:00:00	8	Radiación solar	0
14209	7	Sololá	701	Sololá	3	Barraneche	3	Marzo	2023-03-16T00:00:00	2024-11-06T00:00:00	2	Temperatura media	12
14210	7	Sololá	701	Sololá	3	Barraneche	3	Marzo	2023-03-16T00:00:00	2024-11-06T00:00:00	4	Temperatura máxima	12.6
14211	7	Sololá	701	Sololá	3	Barraneche	3	Marzo	2023-03-16T00:00:00	2024-11-06T00:00:00	3	Temperatura mínima	12
14212	7	Sololá	701	Sololá	3	Barraneche	3	Marzo	2023-03-16T00:00:00	2024-11-06T00:00:00	5	Humedad	63
14213	7	Sololá	701	Sololá	3	Barraneche	3	Marzo	2023-03-16T00:00:00	2024-11-06T00:00:00	6	Velocidad del viento	8
14214	7	Sololá	701	Sololá	3	Barraneche	3	Marzo	2023-03-16T00:00:00	2024-11-06T00:00:00	7	Dirección del viento	8.05
14215	7	Sololá	701	Sololá	3	Barraneche	3	Marzo	2023-03-16T00:00:00	2024-11-06T00:00:00	1	Precipitación	0
14216	7	Sololá	701	Sololá	3	Barraneche	3	Marzo	2023-03-16T00:00:00	2024-11-06T00:00:00	8	Radiación solar	0
14217	7	Sololá	701	Sololá	3	Barraneche	3	Marzo	2023-03-16T00:00:00	2024-11-06T01:00:00	2	Temperatura media	11.9
14218	7	Sololá	701	Sololá	3	Barraneche	3	Marzo	2023-03-16T00:00:00	2024-11-06T01:00:00	4	Temperatura máxima	12.4
14219	7	Sololá	701	Sololá	3	Barraneche	3	Marzo	2023-03-16T00:00:00	2024-11-06T01:00:00	3	Temperatura mínima	11.2
14220	7	Sololá	701	Sololá	3	Barraneche	3	Marzo	2023-03-16T00:00:00	2024-11-06T01:00:00	5	Humedad	64
14221	7	Sololá	701	Sololá	3	Barraneche	3	Marzo	2023-03-16T00:00:00	2024-11-06T01:00:00	6	Velocidad del viento	8
14222	7	Sololá	701	Sololá	3	Barraneche	3	Marzo	2023-03-16T00:00:00	2024-11-06T01:00:00	7	Dirección del viento	8.05
14223	7	Sololá	701	Sololá	3	Barraneche	3	Marzo	2023-03-16T00:00:00	2024-11-06T01:00:00	1	Precipitación	0
14224	7	Sololá	701	Sololá	3	Barraneche	3	Marzo	2023-03-16T00:00:00	2024-11-06T01:00:00	8	Radiación solar	0
14225	7	Sololá	701	Sololá	3	Barraneche	3	Marzo	2023-03-16T00:00:00	2024-11-06T02:00:00	2	Temperatura media	12
14226	7	Sololá	701	Sololá	3	Barraneche	3	Marzo	2023-03-16T00:00:00	2024-11-06T02:00:00	4	Temperatura máxima	12.1
14227	7	Sololá	701	Sololá	3	Barraneche	3	Marzo	2023-03-16T00:00:00	2024-11-06T02:00:00	3	Temperatura mínima	11.7
14228	7	Sololá	701	Sololá	3	Barraneche	3	Marzo	2023-03-16T00:00:00	2024-11-06T02:00:00	5	Humedad	62
14229	7	Sololá	701	Sololá	3	Barraneche	3	Marzo	2023-03-16T00:00:00	2024-11-06T02:00:00	6	Velocidad del viento	9.7
14230	7	Sololá	701	Sololá	3	Barraneche	3	Marzo	2023-03-16T00:00:00	2024-11-06T02:00:00	7	Dirección del viento	9.66
14231	7	Sololá	701	Sololá	3	Barraneche	3	Marzo	2023-03-16T00:00:00	2024-11-06T02:00:00	1	Precipitación	0
14232	7	Sololá	701	Sololá	3	Barraneche	3	Marzo	2023-03-16T00:00:00	2024-11-06T02:00:00	8	Radiación solar	0
14233	7	Sololá	701	Sololá	3	Barraneche	3	Marzo	2023-03-16T00:00:00	2024-11-06T03:00:00	2	Temperatura media	10.3
14234	7	Sololá	701	Sololá	3	Barraneche	3	Marzo	2023-03-16T00:00:00	2024-11-06T03:00:00	4	Temperatura máxima	12.2
14235	7	Sololá	701	Sololá	3	Barraneche	3	Marzo	2023-03-16T00:00:00	2024-11-06T03:00:00	3	Temperatura mínima	10.2
14236	7	Sololá	701	Sololá	3	Barraneche	3	Marzo	2023-03-16T00:00:00	2024-11-06T03:00:00	5	Humedad	65
14237	7	Sololá	701	Sololá	3	Barraneche	3	Marzo	2023-03-16T00:00:00	2024-11-06T03:00:00	6	Velocidad del viento	11.3
14238	7	Sololá	701	Sololá	3	Barraneche	3	Marzo	2023-03-16T00:00:00	2024-11-06T03:00:00	7	Dirección del viento	11.27
14239	7	Sololá	701	Sololá	3	Barraneche	3	Marzo	2023-03-16T00:00:00	2024-11-06T03:00:00	1	Precipitación	0
14240	7	Sololá	701	Sololá	3	Barraneche	3	Marzo	2023-03-16T00:00:00	2024-11-06T03:00:00	8	Radiación solar	0
14241	7	Sololá	701	Sololá	3	Barraneche	3	Marzo	2023-03-16T00:00:00	2024-11-06T04:00:00	2	Temperatura media	10.1
14242	7	Sololá	701	Sololá	3	Barraneche	3	Marzo	2023-03-16T00:00:00	2024-11-06T04:00:00	4	Temperatura máxima	10.9
14243	7	Sololá	701	Sololá	3	Barraneche	3	Marzo	2023-03-16T00:00:00	2024-11-06T04:00:00	3	Temperatura mínima	10.1
14244	7	Sololá	701	Sololá	3	Barraneche	3	Marzo	2023-03-16T00:00:00	2024-11-06T04:00:00	5	Humedad	65
14245	7	Sololá	701	Sololá	3	Barraneche	3	Marzo	2023-03-16T00:00:00	2024-11-06T04:00:00	6	Velocidad del viento	9.7
14246	7	Sololá	701	Sololá	3	Barraneche	3	Marzo	2023-03-16T00:00:00	2024-11-06T04:00:00	7	Dirección del viento	9.66
14247	7	Sololá	701	Sololá	3	Barraneche	3	Marzo	2023-03-16T00:00:00	2024-11-06T04:00:00	1	Precipitación	0
14248	7	Sololá	701	Sololá	3	Barraneche	3	Marzo	2023-03-16T00:00:00	2024-11-06T04:00:00	8	Radiación solar	0
14249	7	Sololá	701	Sololá	3	Barraneche	3	Marzo	2023-03-16T00:00:00	2024-11-06T05:00:00	2	Temperatura media	11.1
14250	7	Sololá	701	Sololá	3	Barraneche	3	Marzo	2023-03-16T00:00:00	2024-11-06T05:00:00	4	Temperatura máxima	11.2
14251	7	Sololá	701	Sololá	3	Barraneche	3	Marzo	2023-03-16T00:00:00	2024-11-06T05:00:00	3	Temperatura mínima	9.8
14252	7	Sololá	701	Sololá	3	Barraneche	3	Marzo	2023-03-16T00:00:00	2024-11-06T05:00:00	5	Humedad	66
14253	7	Sololá	701	Sololá	3	Barraneche	3	Marzo	2023-03-16T00:00:00	2024-11-06T05:00:00	6	Velocidad del viento	9.7
14254	7	Sololá	701	Sololá	3	Barraneche	3	Marzo	2023-03-16T00:00:00	2024-11-06T05:00:00	7	Dirección del viento	9.66
14255	7	Sololá	701	Sololá	3	Barraneche	3	Marzo	2023-03-16T00:00:00	2024-11-06T05:00:00	1	Precipitación	0
14256	7	Sololá	701	Sololá	3	Barraneche	3	Marzo	2023-03-16T00:00:00	2024-11-06T05:00:00	8	Radiación solar	0
14257	7	Sololá	701	Sololá	3	Barraneche	3	Marzo	2023-03-16T00:00:00	2024-11-06T06:00:00	2	Temperatura media	11.1
14258	7	Sololá	701	Sololá	3	Barraneche	3	Marzo	2023-03-16T00:00:00	2024-11-06T06:00:00	4	Temperatura máxima	11.1
14259	7	Sololá	701	Sololá	3	Barraneche	3	Marzo	2023-03-16T00:00:00	2024-11-06T06:00:00	3	Temperatura mínima	10.8
14260	7	Sololá	701	Sololá	3	Barraneche	3	Marzo	2023-03-16T00:00:00	2024-11-06T06:00:00	5	Humedad	65
14261	7	Sololá	701	Sololá	3	Barraneche	3	Marzo	2023-03-16T00:00:00	2024-11-06T06:00:00	6	Velocidad del viento	8
14262	7	Sololá	701	Sololá	3	Barraneche	3	Marzo	2023-03-16T00:00:00	2024-11-06T06:00:00	7	Dirección del viento	8.05
14263	7	Sololá	701	Sololá	3	Barraneche	3	Marzo	2023-03-16T00:00:00	2024-11-06T06:00:00	1	Precipitación	0
14264	7	Sololá	701	Sololá	3	Barraneche	3	Marzo	2023-03-16T00:00:00	2024-11-06T06:00:00	8	Radiación solar	0
14265	7	Sololá	701	Sololá	3	Barraneche	3	Marzo	2023-03-16T00:00:00	2024-11-06T07:00:00	2	Temperatura media	11.2
14266	7	Sololá	701	Sololá	3	Barraneche	3	Marzo	2023-03-16T00:00:00	2024-11-06T07:00:00	4	Temperatura máxima	11.2
14267	7	Sololá	701	Sololá	3	Barraneche	3	Marzo	2023-03-16T00:00:00	2024-11-06T07:00:00	3	Temperatura mínima	10.5
14268	7	Sololá	701	Sololá	3	Barraneche	3	Marzo	2023-03-16T00:00:00	2024-11-06T07:00:00	5	Humedad	65
14269	7	Sololá	701	Sololá	3	Barraneche	3	Marzo	2023-03-16T00:00:00	2024-11-06T07:00:00	6	Velocidad del viento	8
14270	7	Sololá	701	Sololá	3	Barraneche	3	Marzo	2023-03-16T00:00:00	2024-11-06T07:00:00	7	Dirección del viento	8.05
14271	7	Sololá	701	Sololá	3	Barraneche	3	Marzo	2023-03-16T00:00:00	2024-11-06T07:00:00	1	Precipitación	0
14272	7	Sololá	701	Sololá	3	Barraneche	3	Marzo	2023-03-16T00:00:00	2024-11-06T07:00:00	8	Radiación solar	18
14273	7	Sololá	701	Sololá	3	Barraneche	3	Marzo	2023-03-16T00:00:00	2024-11-06T08:00:00	2	Temperatura media	14.3
14274	7	Sololá	701	Sololá	3	Barraneche	3	Marzo	2023-03-16T00:00:00	2024-11-06T08:00:00	4	Temperatura máxima	14.3
14275	7	Sololá	701	Sololá	3	Barraneche	3	Marzo	2023-03-16T00:00:00	2024-11-06T08:00:00	3	Temperatura mínima	11.2
14276	7	Sololá	701	Sololá	3	Barraneche	3	Marzo	2023-03-16T00:00:00	2024-11-06T08:00:00	5	Humedad	58
14277	7	Sololá	701	Sololá	3	Barraneche	3	Marzo	2023-03-16T00:00:00	2024-11-06T08:00:00	6	Velocidad del viento	8
14278	7	Sololá	701	Sololá	3	Barraneche	3	Marzo	2023-03-16T00:00:00	2024-11-06T08:00:00	7	Dirección del viento	8.05
14279	7	Sololá	701	Sololá	3	Barraneche	3	Marzo	2023-03-16T00:00:00	2024-11-06T08:00:00	1	Precipitación	0
14280	7	Sololá	701	Sololá	3	Barraneche	3	Marzo	2023-03-16T00:00:00	2024-11-06T08:00:00	8	Radiación solar	258
14281	7	Sololá	701	Sololá	3	Barraneche	3	Marzo	2023-03-16T00:00:00	2024-11-06T09:00:00	2	Temperatura media	15.9
14282	7	Sololá	701	Sololá	3	Barraneche	3	Marzo	2023-03-16T00:00:00	2024-11-06T09:00:00	4	Temperatura máxima	16
14283	7	Sololá	701	Sololá	3	Barraneche	3	Marzo	2023-03-16T00:00:00	2024-11-06T09:00:00	3	Temperatura mínima	14.3
14284	7	Sololá	701	Sololá	3	Barraneche	3	Marzo	2023-03-16T00:00:00	2024-11-06T09:00:00	5	Humedad	55
14285	7	Sololá	701	Sololá	3	Barraneche	3	Marzo	2023-03-16T00:00:00	2024-11-06T09:00:00	6	Velocidad del viento	6.4
14286	7	Sololá	701	Sololá	3	Barraneche	3	Marzo	2023-03-16T00:00:00	2024-11-06T09:00:00	7	Dirección del viento	6.44
14287	7	Sololá	701	Sololá	3	Barraneche	3	Marzo	2023-03-16T00:00:00	2024-11-06T09:00:00	1	Precipitación	0
14288	7	Sololá	701	Sololá	3	Barraneche	3	Marzo	2023-03-16T00:00:00	2024-11-06T09:00:00	8	Radiación solar	536
14289	7	Sololá	701	Sololá	3	Barraneche	3	Marzo	2023-03-16T00:00:00	2024-11-06T10:00:00	2	Temperatura media	16.9
14290	7	Sololá	701	Sololá	3	Barraneche	3	Marzo	2023-03-16T00:00:00	2024-11-06T10:00:00	4	Temperatura máxima	17
14291	7	Sololá	701	Sololá	3	Barraneche	3	Marzo	2023-03-16T00:00:00	2024-11-06T10:00:00	3	Temperatura mínima	15.9
14292	7	Sololá	701	Sololá	3	Barraneche	3	Marzo	2023-03-16T00:00:00	2024-11-06T10:00:00	5	Humedad	49
14293	7	Sololá	701	Sololá	3	Barraneche	3	Marzo	2023-03-16T00:00:00	2024-11-06T10:00:00	6	Velocidad del viento	8
14294	7	Sololá	701	Sololá	3	Barraneche	3	Marzo	2023-03-16T00:00:00	2024-11-06T10:00:00	7	Dirección del viento	8.05
14295	7	Sololá	701	Sololá	3	Barraneche	3	Marzo	2023-03-16T00:00:00	2024-11-06T10:00:00	1	Precipitación	0
14296	7	Sololá	701	Sololá	3	Barraneche	3	Marzo	2023-03-16T00:00:00	2024-11-06T10:00:00	8	Radiación solar	777
14297	7	Sololá	701	Sololá	3	Barraneche	3	Marzo	2023-03-16T00:00:00	2024-11-06T11:00:00	2	Temperatura media	17
14298	7	Sololá	701	Sololá	3	Barraneche	3	Marzo	2023-03-16T00:00:00	2024-11-06T11:00:00	4	Temperatura máxima	17.1
14299	7	Sololá	701	Sololá	3	Barraneche	3	Marzo	2023-03-16T00:00:00	2024-11-06T11:00:00	3	Temperatura mínima	16.1
14300	7	Sololá	701	Sololá	3	Barraneche	3	Marzo	2023-03-16T00:00:00	2024-11-06T11:00:00	5	Humedad	54
14301	7	Sololá	701	Sololá	3	Barraneche	3	Marzo	2023-03-16T00:00:00	2024-11-06T11:00:00	6	Velocidad del viento	11.3
14302	7	Sololá	701	Sololá	3	Barraneche	3	Marzo	2023-03-16T00:00:00	2024-11-06T11:00:00	7	Dirección del viento	11.27
14303	7	Sololá	701	Sololá	3	Barraneche	3	Marzo	2023-03-16T00:00:00	2024-11-06T11:00:00	1	Precipitación	0
14304	7	Sololá	701	Sololá	3	Barraneche	3	Marzo	2023-03-16T00:00:00	2024-11-06T11:00:00	8	Radiación solar	782
14305	7	Sololá	701	Sololá	3	Barraneche	3	Marzo	2023-03-16T00:00:00	2024-11-06T12:00:00	2	Temperatura media	17.4
14306	7	Sololá	701	Sololá	3	Barraneche	3	Marzo	2023-03-16T00:00:00	2024-11-06T12:00:00	4	Temperatura máxima	17.4
14307	7	Sololá	701	Sololá	3	Barraneche	3	Marzo	2023-03-16T00:00:00	2024-11-06T12:00:00	3	Temperatura mínima	16.9
14308	7	Sololá	701	Sololá	3	Barraneche	3	Marzo	2023-03-16T00:00:00	2024-11-06T12:00:00	5	Humedad	55
14309	7	Sololá	701	Sololá	3	Barraneche	3	Marzo	2023-03-16T00:00:00	2024-11-06T12:00:00	6	Velocidad del viento	12.9
14310	7	Sololá	701	Sololá	3	Barraneche	3	Marzo	2023-03-16T00:00:00	2024-11-06T12:00:00	7	Dirección del viento	12.87
14311	7	Sololá	701	Sololá	3	Barraneche	3	Marzo	2023-03-16T00:00:00	2024-11-06T12:00:00	1	Precipitación	0
14312	7	Sololá	701	Sololá	3	Barraneche	3	Marzo	2023-03-16T00:00:00	2024-11-06T12:00:00	8	Radiación solar	774
14313	7	Sololá	701	Sololá	3	Barraneche	3	Marzo	2023-03-16T00:00:00	2024-11-06T13:00:00	2	Temperatura media	16.7
14314	7	Sololá	701	Sololá	3	Barraneche	3	Marzo	2023-03-16T00:00:00	2024-11-06T13:00:00	4	Temperatura máxima	17.4
14315	7	Sololá	701	Sololá	3	Barraneche	3	Marzo	2023-03-16T00:00:00	2024-11-06T13:00:00	3	Temperatura mínima	16.2
14316	7	Sololá	701	Sololá	3	Barraneche	3	Marzo	2023-03-16T00:00:00	2024-11-06T13:00:00	5	Humedad	65
14317	7	Sololá	701	Sololá	3	Barraneche	3	Marzo	2023-03-16T00:00:00	2024-11-06T13:00:00	6	Velocidad del viento	11.3
14318	7	Sololá	701	Sololá	3	Barraneche	3	Marzo	2023-03-16T00:00:00	2024-11-06T13:00:00	7	Dirección del viento	11.27
14319	7	Sololá	701	Sololá	3	Barraneche	3	Marzo	2023-03-16T00:00:00	2024-11-06T13:00:00	1	Precipitación	0
14320	7	Sololá	701	Sololá	3	Barraneche	3	Marzo	2023-03-16T00:00:00	2024-11-06T13:00:00	8	Radiación solar	538
14321	7	Sololá	701	Sololá	3	Barraneche	3	Marzo	2023-03-16T00:00:00	2024-11-06T14:00:00	2	Temperatura media	15.4
14322	7	Sololá	701	Sololá	3	Barraneche	3	Marzo	2023-03-16T00:00:00	2024-11-06T14:00:00	4	Temperatura máxima	16.9
14323	7	Sololá	701	Sololá	3	Barraneche	3	Marzo	2023-03-16T00:00:00	2024-11-06T14:00:00	3	Temperatura mínima	15.4
14324	7	Sololá	701	Sololá	3	Barraneche	3	Marzo	2023-03-16T00:00:00	2024-11-06T14:00:00	5	Humedad	68
14325	7	Sololá	701	Sololá	3	Barraneche	3	Marzo	2023-03-16T00:00:00	2024-11-06T14:00:00	6	Velocidad del viento	12.9
14326	7	Sololá	701	Sololá	3	Barraneche	3	Marzo	2023-03-16T00:00:00	2024-11-06T14:00:00	7	Dirección del viento	12.87
14327	7	Sololá	701	Sololá	3	Barraneche	3	Marzo	2023-03-16T00:00:00	2024-11-06T14:00:00	1	Precipitación	0
14328	7	Sololá	701	Sololá	3	Barraneche	3	Marzo	2023-03-16T00:00:00	2024-11-06T14:00:00	8	Radiación solar	412
14329	7	Sololá	701	Sololá	3	Barraneche	3	Marzo	2023-03-16T00:00:00	2024-11-06T15:00:00	2	Temperatura media	14.8
14330	7	Sololá	701	Sololá	3	Barraneche	3	Marzo	2023-03-16T00:00:00	2024-11-06T15:00:00	4	Temperatura máxima	15.4
14331	7	Sololá	701	Sololá	3	Barraneche	3	Marzo	2023-03-16T00:00:00	2024-11-06T15:00:00	3	Temperatura mínima	14.7
14332	7	Sololá	701	Sololá	3	Barraneche	3	Marzo	2023-03-16T00:00:00	2024-11-06T15:00:00	5	Humedad	71
14333	7	Sololá	701	Sololá	3	Barraneche	3	Marzo	2023-03-16T00:00:00	2024-11-06T15:00:00	6	Velocidad del viento	8
14334	7	Sololá	701	Sololá	3	Barraneche	3	Marzo	2023-03-16T00:00:00	2024-11-06T15:00:00	7	Dirección del viento	8.05
14335	7	Sololá	701	Sololá	3	Barraneche	3	Marzo	2023-03-16T00:00:00	2024-11-06T15:00:00	1	Precipitación	0
14336	7	Sololá	701	Sololá	3	Barraneche	3	Marzo	2023-03-16T00:00:00	2024-11-06T15:00:00	8	Radiación solar	115
14337	7	Sololá	701	Sololá	3	Barraneche	3	Marzo	2023-03-16T00:00:00	2024-11-06T16:00:00	2	Temperatura media	13.8
14338	7	Sololá	701	Sololá	3	Barraneche	3	Marzo	2023-03-16T00:00:00	2024-11-06T16:00:00	4	Temperatura máxima	14.8
14339	7	Sololá	701	Sololá	3	Barraneche	3	Marzo	2023-03-16T00:00:00	2024-11-06T16:00:00	3	Temperatura mínima	13.8
14340	7	Sololá	701	Sololá	3	Barraneche	3	Marzo	2023-03-16T00:00:00	2024-11-06T16:00:00	5	Humedad	69
14341	7	Sololá	701	Sololá	3	Barraneche	3	Marzo	2023-03-16T00:00:00	2024-11-06T16:00:00	6	Velocidad del viento	4.8
14342	7	Sololá	701	Sololá	3	Barraneche	3	Marzo	2023-03-16T00:00:00	2024-11-06T16:00:00	7	Dirección del viento	4.83
14343	7	Sololá	701	Sololá	3	Barraneche	3	Marzo	2023-03-16T00:00:00	2024-11-06T16:00:00	1	Precipitación	0.8
14344	7	Sololá	701	Sololá	3	Barraneche	3	Marzo	2023-03-16T00:00:00	2024-11-06T16:00:00	8	Radiación solar	35
14345	7	Sololá	701	Sololá	3	Barraneche	3	Marzo	2023-03-16T00:00:00	2024-11-06T17:00:00	2	Temperatura media	13.6
14346	7	Sololá	701	Sololá	3	Barraneche	3	Marzo	2023-03-16T00:00:00	2024-11-06T17:00:00	4	Temperatura máxima	13.9
14347	7	Sololá	701	Sololá	3	Barraneche	3	Marzo	2023-03-16T00:00:00	2024-11-06T17:00:00	3	Temperatura mínima	13.4
14348	7	Sololá	701	Sololá	3	Barraneche	3	Marzo	2023-03-16T00:00:00	2024-11-06T17:00:00	5	Humedad	69
14349	7	Sololá	701	Sololá	3	Barraneche	3	Marzo	2023-03-16T00:00:00	2024-11-06T17:00:00	6	Velocidad del viento	4.8
14350	7	Sololá	701	Sololá	3	Barraneche	3	Marzo	2023-03-16T00:00:00	2024-11-06T17:00:00	7	Dirección del viento	4.83
14351	7	Sololá	701	Sololá	3	Barraneche	3	Marzo	2023-03-16T00:00:00	2024-11-06T17:00:00	1	Precipitación	0
14352	7	Sololá	701	Sololá	3	Barraneche	3	Marzo	2023-03-16T00:00:00	2024-11-06T17:00:00	8	Radiación solar	64
14353	7	Sololá	701	Sololá	3	Barraneche	3	Marzo	2023-03-16T00:00:00	2024-11-06T18:00:00	2	Temperatura media	12.8
14354	7	Sololá	701	Sololá	3	Barraneche	3	Marzo	2023-03-16T00:00:00	2024-11-06T18:00:00	4	Temperatura máxima	13.8
14355	7	Sololá	701	Sololá	3	Barraneche	3	Marzo	2023-03-16T00:00:00	2024-11-06T18:00:00	3	Temperatura mínima	12.8
14356	7	Sololá	701	Sololá	3	Barraneche	3	Marzo	2023-03-16T00:00:00	2024-11-06T18:00:00	5	Humedad	70
14357	7	Sololá	701	Sololá	3	Barraneche	3	Marzo	2023-03-16T00:00:00	2024-11-06T18:00:00	6	Velocidad del viento	6.4
14358	7	Sololá	701	Sololá	3	Barraneche	3	Marzo	2023-03-16T00:00:00	2024-11-06T18:00:00	7	Dirección del viento	6.44
14359	7	Sololá	701	Sololá	3	Barraneche	3	Marzo	2023-03-16T00:00:00	2024-11-06T18:00:00	1	Precipitación	0
14360	7	Sololá	701	Sololá	3	Barraneche	3	Marzo	2023-03-16T00:00:00	2024-11-06T18:00:00	8	Radiación solar	21
14361	7	Sololá	701	Sololá	3	Barraneche	3	Marzo	2023-03-16T00:00:00	2024-11-06T19:00:00	2	Temperatura media	11.9
14362	7	Sololá	701	Sololá	3	Barraneche	3	Marzo	2023-03-16T00:00:00	2024-11-06T19:00:00	4	Temperatura máxima	12.8
14363	7	Sololá	701	Sololá	3	Barraneche	3	Marzo	2023-03-16T00:00:00	2024-11-06T19:00:00	3	Temperatura mínima	11.9
14364	7	Sololá	701	Sololá	3	Barraneche	3	Marzo	2023-03-16T00:00:00	2024-11-06T19:00:00	5	Humedad	69
14365	7	Sololá	701	Sololá	3	Barraneche	3	Marzo	2023-03-16T00:00:00	2024-11-06T19:00:00	6	Velocidad del viento	9.7
14366	7	Sololá	701	Sololá	3	Barraneche	3	Marzo	2023-03-16T00:00:00	2024-11-06T19:00:00	7	Dirección del viento	9.66
14367	7	Sololá	701	Sololá	3	Barraneche	3	Marzo	2023-03-16T00:00:00	2024-11-06T19:00:00	1	Precipitación	0
14368	7	Sololá	701	Sololá	3	Barraneche	3	Marzo	2023-03-16T00:00:00	2024-11-06T19:00:00	8	Radiación solar	0
14369	7	Sololá	701	Sololá	3	Barraneche	3	Marzo	2023-03-16T00:00:00	2024-11-06T20:00:00	2	Temperatura media	11.1
14370	7	Sololá	701	Sololá	3	Barraneche	3	Marzo	2023-03-16T00:00:00	2024-11-06T20:00:00	4	Temperatura máxima	11.9
14371	7	Sololá	701	Sololá	3	Barraneche	3	Marzo	2023-03-16T00:00:00	2024-11-06T20:00:00	3	Temperatura mínima	11.1
14372	7	Sololá	701	Sololá	3	Barraneche	3	Marzo	2023-03-16T00:00:00	2024-11-06T20:00:00	5	Humedad	70
14373	7	Sololá	701	Sololá	3	Barraneche	3	Marzo	2023-03-16T00:00:00	2024-11-06T20:00:00	6	Velocidad del viento	9.7
14374	7	Sololá	701	Sololá	3	Barraneche	3	Marzo	2023-03-16T00:00:00	2024-11-06T20:00:00	7	Dirección del viento	9.66
14375	7	Sololá	701	Sololá	3	Barraneche	3	Marzo	2023-03-16T00:00:00	2024-11-06T20:00:00	1	Precipitación	0
14376	7	Sololá	701	Sololá	3	Barraneche	3	Marzo	2023-03-16T00:00:00	2024-11-06T20:00:00	8	Radiación solar	0
14377	7	Sololá	701	Sololá	3	Barraneche	3	Marzo	2023-03-16T00:00:00	2024-11-06T21:00:00	2	Temperatura media	10.7
14378	7	Sololá	701	Sololá	3	Barraneche	3	Marzo	2023-03-16T00:00:00	2024-11-06T21:00:00	4	Temperatura máxima	11.2
14379	7	Sololá	701	Sololá	3	Barraneche	3	Marzo	2023-03-16T00:00:00	2024-11-06T21:00:00	3	Temperatura mínima	10.6
14380	7	Sololá	701	Sololá	3	Barraneche	3	Marzo	2023-03-16T00:00:00	2024-11-06T21:00:00	5	Humedad	70
14381	7	Sololá	701	Sololá	3	Barraneche	3	Marzo	2023-03-16T00:00:00	2024-11-06T21:00:00	6	Velocidad del viento	9.7
14382	7	Sololá	701	Sololá	3	Barraneche	3	Marzo	2023-03-16T00:00:00	2024-11-06T21:00:00	7	Dirección del viento	9.66
14383	7	Sololá	701	Sololá	3	Barraneche	3	Marzo	2023-03-16T00:00:00	2024-11-06T21:00:00	1	Precipitación	0
14384	7	Sololá	701	Sololá	3	Barraneche	3	Marzo	2023-03-16T00:00:00	2024-11-06T21:00:00	8	Radiación solar	0
14385	7	Sololá	701	Sololá	3	Barraneche	3	Marzo	2023-03-16T00:00:00	2024-11-06T22:00:00	2	Temperatura media	10.9
14386	7	Sololá	701	Sololá	3	Barraneche	3	Marzo	2023-03-16T00:00:00	2024-11-06T22:00:00	4	Temperatura máxima	11
14387	7	Sololá	701	Sololá	3	Barraneche	3	Marzo	2023-03-16T00:00:00	2024-11-06T22:00:00	3	Temperatura mínima	10.6
14388	7	Sololá	701	Sololá	3	Barraneche	3	Marzo	2023-03-16T00:00:00	2024-11-06T22:00:00	5	Humedad	71
14389	7	Sololá	701	Sololá	3	Barraneche	3	Marzo	2023-03-16T00:00:00	2024-11-06T22:00:00	6	Velocidad del viento	8
14390	7	Sololá	701	Sololá	3	Barraneche	3	Marzo	2023-03-16T00:00:00	2024-11-06T22:00:00	7	Dirección del viento	8.05
14391	7	Sololá	701	Sololá	3	Barraneche	3	Marzo	2023-03-16T00:00:00	2024-11-06T22:00:00	1	Precipitación	0
14392	7	Sololá	701	Sololá	3	Barraneche	3	Marzo	2023-03-16T00:00:00	2024-11-06T22:00:00	8	Radiación solar	0
14393	7	Sololá	701	Sololá	3	Barraneche	3	Marzo	2023-03-16T00:00:00	2024-11-06T23:00:00	2	Temperatura media	10.6
14394	7	Sololá	701	Sololá	3	Barraneche	3	Marzo	2023-03-16T00:00:00	2024-11-06T23:00:00	4	Temperatura máxima	10.8
14395	7	Sololá	701	Sololá	3	Barraneche	3	Marzo	2023-03-16T00:00:00	2024-11-06T23:00:00	3	Temperatura mínima	10
14396	7	Sololá	701	Sololá	3	Barraneche	3	Marzo	2023-03-16T00:00:00	2024-11-06T23:00:00	5	Humedad	72
14397	7	Sololá	701	Sololá	3	Barraneche	3	Marzo	2023-03-16T00:00:00	2024-11-06T23:00:00	6	Velocidad del viento	6.4
14398	7	Sololá	701	Sololá	3	Barraneche	3	Marzo	2023-03-16T00:00:00	2024-11-06T23:00:00	7	Dirección del viento	6.44
14399	7	Sololá	701	Sololá	3	Barraneche	3	Marzo	2023-03-16T00:00:00	2024-11-06T23:00:00	1	Precipitación	0
14400	7	Sololá	701	Sololá	3	Barraneche	3	Marzo	2023-03-16T00:00:00	2024-11-06T23:00:00	8	Radiación solar	0
14401	7	Sololá	701	Sololá	3	Barraneche	3	Marzo	2023-03-17T00:00:00	2024-11-06T00:00:00	2	Temperatura media	11.3
14402	7	Sololá	701	Sololá	3	Barraneche	3	Marzo	2023-03-17T00:00:00	2024-11-06T00:00:00	4	Temperatura máxima	11.3
14403	7	Sololá	701	Sololá	3	Barraneche	3	Marzo	2023-03-17T00:00:00	2024-11-06T00:00:00	3	Temperatura mínima	10.6
14404	7	Sololá	701	Sololá	3	Barraneche	3	Marzo	2023-03-17T00:00:00	2024-11-06T00:00:00	5	Humedad	71
14405	7	Sololá	701	Sololá	3	Barraneche	3	Marzo	2023-03-17T00:00:00	2024-11-06T00:00:00	6	Velocidad del viento	6.4
14406	7	Sololá	701	Sololá	3	Barraneche	3	Marzo	2023-03-17T00:00:00	2024-11-06T00:00:00	7	Dirección del viento	6.44
14407	7	Sololá	701	Sololá	3	Barraneche	3	Marzo	2023-03-17T00:00:00	2024-11-06T00:00:00	1	Precipitación	0
14408	7	Sololá	701	Sololá	3	Barraneche	3	Marzo	2023-03-17T00:00:00	2024-11-06T00:00:00	8	Radiación solar	0
14409	7	Sololá	701	Sololá	3	Barraneche	3	Marzo	2023-03-17T00:00:00	2024-11-06T01:00:00	2	Temperatura media	11.3
14410	7	Sololá	701	Sololá	3	Barraneche	3	Marzo	2023-03-17T00:00:00	2024-11-06T01:00:00	4	Temperatura máxima	11.9
14411	7	Sololá	701	Sololá	3	Barraneche	3	Marzo	2023-03-17T00:00:00	2024-11-06T01:00:00	3	Temperatura mínima	11.3
14412	7	Sololá	701	Sololá	3	Barraneche	3	Marzo	2023-03-17T00:00:00	2024-11-06T01:00:00	5	Humedad	72
14413	7	Sololá	701	Sololá	3	Barraneche	3	Marzo	2023-03-17T00:00:00	2024-11-06T01:00:00	6	Velocidad del viento	6.4
14414	7	Sololá	701	Sololá	3	Barraneche	3	Marzo	2023-03-17T00:00:00	2024-11-06T01:00:00	7	Dirección del viento	6.44
14415	7	Sololá	701	Sololá	3	Barraneche	3	Marzo	2023-03-17T00:00:00	2024-11-06T01:00:00	1	Precipitación	0
14416	7	Sololá	701	Sololá	3	Barraneche	3	Marzo	2023-03-17T00:00:00	2024-11-06T01:00:00	8	Radiación solar	0
14417	7	Sololá	701	Sololá	3	Barraneche	3	Marzo	2023-03-17T00:00:00	2024-11-06T02:00:00	2	Temperatura media	11.2
14418	7	Sololá	701	Sololá	3	Barraneche	3	Marzo	2023-03-17T00:00:00	2024-11-06T02:00:00	4	Temperatura máxima	11.3
14419	7	Sololá	701	Sololá	3	Barraneche	3	Marzo	2023-03-17T00:00:00	2024-11-06T02:00:00	3	Temperatura mínima	10.9
14420	7	Sololá	701	Sololá	3	Barraneche	3	Marzo	2023-03-17T00:00:00	2024-11-06T02:00:00	5	Humedad	71
14421	7	Sololá	701	Sololá	3	Barraneche	3	Marzo	2023-03-17T00:00:00	2024-11-06T02:00:00	6	Velocidad del viento	1.6
14422	7	Sololá	701	Sololá	3	Barraneche	3	Marzo	2023-03-17T00:00:00	2024-11-06T02:00:00	7	Dirección del viento	1.61
14423	7	Sololá	701	Sololá	3	Barraneche	3	Marzo	2023-03-17T00:00:00	2024-11-06T02:00:00	1	Precipitación	0
14424	7	Sololá	701	Sololá	3	Barraneche	3	Marzo	2023-03-17T00:00:00	2024-11-06T02:00:00	8	Radiación solar	0
14425	7	Sololá	701	Sololá	3	Barraneche	3	Marzo	2023-03-17T00:00:00	2024-11-06T03:00:00	2	Temperatura media	10.1
14426	7	Sololá	701	Sololá	3	Barraneche	3	Marzo	2023-03-17T00:00:00	2024-11-06T03:00:00	4	Temperatura máxima	11.2
14427	7	Sololá	701	Sololá	3	Barraneche	3	Marzo	2023-03-17T00:00:00	2024-11-06T03:00:00	3	Temperatura mínima	10.1
14428	7	Sololá	701	Sololá	3	Barraneche	3	Marzo	2023-03-17T00:00:00	2024-11-06T03:00:00	5	Humedad	69
14429	7	Sololá	701	Sololá	3	Barraneche	3	Marzo	2023-03-17T00:00:00	2024-11-06T03:00:00	6	Velocidad del viento	8
14430	7	Sololá	701	Sololá	3	Barraneche	3	Marzo	2023-03-17T00:00:00	2024-11-06T03:00:00	7	Dirección del viento	8.05
14431	7	Sololá	701	Sololá	3	Barraneche	3	Marzo	2023-03-17T00:00:00	2024-11-06T03:00:00	1	Precipitación	0
14432	7	Sololá	701	Sololá	3	Barraneche	3	Marzo	2023-03-17T00:00:00	2024-11-06T03:00:00	8	Radiación solar	0
14433	7	Sololá	701	Sololá	3	Barraneche	3	Marzo	2023-03-17T00:00:00	2024-11-06T04:00:00	2	Temperatura media	10.6
14434	7	Sololá	701	Sololá	3	Barraneche	3	Marzo	2023-03-17T00:00:00	2024-11-06T04:00:00	4	Temperatura máxima	10.6
14435	7	Sololá	701	Sololá	3	Barraneche	3	Marzo	2023-03-17T00:00:00	2024-11-06T04:00:00	3	Temperatura mínima	9.9
14436	7	Sololá	701	Sololá	3	Barraneche	3	Marzo	2023-03-17T00:00:00	2024-11-06T04:00:00	5	Humedad	69
14437	7	Sololá	701	Sololá	3	Barraneche	3	Marzo	2023-03-17T00:00:00	2024-11-06T04:00:00	6	Velocidad del viento	11.3
14438	7	Sololá	701	Sololá	3	Barraneche	3	Marzo	2023-03-17T00:00:00	2024-11-06T04:00:00	7	Dirección del viento	11.27
14439	7	Sololá	701	Sololá	3	Barraneche	3	Marzo	2023-03-17T00:00:00	2024-11-06T04:00:00	1	Precipitación	0
14440	7	Sololá	701	Sololá	3	Barraneche	3	Marzo	2023-03-17T00:00:00	2024-11-06T04:00:00	8	Radiación solar	0
14441	7	Sololá	701	Sololá	3	Barraneche	3	Marzo	2023-03-17T00:00:00	2024-11-06T05:00:00	2	Temperatura media	9.8
14442	7	Sololá	701	Sololá	3	Barraneche	3	Marzo	2023-03-17T00:00:00	2024-11-06T05:00:00	4	Temperatura máxima	10.6
14443	7	Sololá	701	Sololá	3	Barraneche	3	Marzo	2023-03-17T00:00:00	2024-11-06T05:00:00	3	Temperatura mínima	9.8
14444	7	Sololá	701	Sololá	3	Barraneche	3	Marzo	2023-03-17T00:00:00	2024-11-06T05:00:00	5	Humedad	69
14445	7	Sololá	701	Sololá	3	Barraneche	3	Marzo	2023-03-17T00:00:00	2024-11-06T05:00:00	6	Velocidad del viento	9.7
14446	7	Sololá	701	Sololá	3	Barraneche	3	Marzo	2023-03-17T00:00:00	2024-11-06T05:00:00	7	Dirección del viento	9.66
14447	7	Sololá	701	Sololá	3	Barraneche	3	Marzo	2023-03-17T00:00:00	2024-11-06T05:00:00	1	Precipitación	0
14448	7	Sololá	701	Sololá	3	Barraneche	3	Marzo	2023-03-17T00:00:00	2024-11-06T05:00:00	8	Radiación solar	0
14449	7	Sololá	701	Sololá	3	Barraneche	3	Marzo	2023-03-17T00:00:00	2024-11-06T06:00:00	2	Temperatura media	9.2
14450	7	Sololá	701	Sololá	3	Barraneche	3	Marzo	2023-03-17T00:00:00	2024-11-06T06:00:00	4	Temperatura máxima	9.8
14451	7	Sololá	701	Sololá	3	Barraneche	3	Marzo	2023-03-17T00:00:00	2024-11-06T06:00:00	3	Temperatura mínima	9.2
14452	7	Sololá	701	Sololá	3	Barraneche	3	Marzo	2023-03-17T00:00:00	2024-11-06T06:00:00	5	Humedad	70
14453	7	Sololá	701	Sololá	3	Barraneche	3	Marzo	2023-03-17T00:00:00	2024-11-06T06:00:00	6	Velocidad del viento	9.7
14454	7	Sololá	701	Sololá	3	Barraneche	3	Marzo	2023-03-17T00:00:00	2024-11-06T06:00:00	7	Dirección del viento	9.66
14455	7	Sololá	701	Sololá	3	Barraneche	3	Marzo	2023-03-17T00:00:00	2024-11-06T06:00:00	1	Precipitación	0
14456	7	Sololá	701	Sololá	3	Barraneche	3	Marzo	2023-03-17T00:00:00	2024-11-06T06:00:00	8	Radiación solar	0
14457	7	Sololá	701	Sololá	3	Barraneche	3	Marzo	2023-03-17T00:00:00	2024-11-06T07:00:00	2	Temperatura media	9.6
14458	7	Sololá	701	Sololá	3	Barraneche	3	Marzo	2023-03-17T00:00:00	2024-11-06T07:00:00	4	Temperatura máxima	9.7
14459	7	Sololá	701	Sololá	3	Barraneche	3	Marzo	2023-03-17T00:00:00	2024-11-06T07:00:00	3	Temperatura mínima	8.9
14460	7	Sololá	701	Sololá	3	Barraneche	3	Marzo	2023-03-17T00:00:00	2024-11-06T07:00:00	5	Humedad	70
14461	7	Sololá	701	Sololá	3	Barraneche	3	Marzo	2023-03-17T00:00:00	2024-11-06T07:00:00	6	Velocidad del viento	6.4
14462	7	Sololá	701	Sololá	3	Barraneche	3	Marzo	2023-03-17T00:00:00	2024-11-06T07:00:00	7	Dirección del viento	6.44
14463	7	Sololá	701	Sololá	3	Barraneche	3	Marzo	2023-03-17T00:00:00	2024-11-06T07:00:00	1	Precipitación	0
14464	7	Sololá	701	Sololá	3	Barraneche	3	Marzo	2023-03-17T00:00:00	2024-11-06T07:00:00	8	Radiación solar	23
14465	7	Sololá	701	Sololá	3	Barraneche	3	Marzo	2023-03-17T00:00:00	2024-11-06T08:00:00	2	Temperatura media	13.7
14466	7	Sololá	701	Sololá	3	Barraneche	3	Marzo	2023-03-17T00:00:00	2024-11-06T08:00:00	4	Temperatura máxima	13.7
14467	7	Sololá	701	Sololá	3	Barraneche	3	Marzo	2023-03-17T00:00:00	2024-11-06T08:00:00	3	Temperatura mínima	9.6
14468	7	Sololá	701	Sololá	3	Barraneche	3	Marzo	2023-03-17T00:00:00	2024-11-06T08:00:00	5	Humedad	60
14469	7	Sololá	701	Sololá	3	Barraneche	3	Marzo	2023-03-17T00:00:00	2024-11-06T08:00:00	6	Velocidad del viento	3.2
14470	7	Sololá	701	Sololá	3	Barraneche	3	Marzo	2023-03-17T00:00:00	2024-11-06T08:00:00	7	Dirección del viento	3.22
14471	7	Sololá	701	Sololá	3	Barraneche	3	Marzo	2023-03-17T00:00:00	2024-11-06T08:00:00	1	Precipitación	0
14472	7	Sololá	701	Sololá	3	Barraneche	3	Marzo	2023-03-17T00:00:00	2024-11-06T08:00:00	8	Radiación solar	263
14473	7	Sololá	701	Sololá	3	Barraneche	3	Marzo	2023-03-17T00:00:00	2024-11-06T09:00:00	2	Temperatura media	15.5
14474	7	Sololá	701	Sololá	3	Barraneche	3	Marzo	2023-03-17T00:00:00	2024-11-06T09:00:00	4	Temperatura máxima	15.9
14475	7	Sololá	701	Sololá	3	Barraneche	3	Marzo	2023-03-17T00:00:00	2024-11-06T09:00:00	3	Temperatura mínima	13.7
14476	7	Sololá	701	Sololá	3	Barraneche	3	Marzo	2023-03-17T00:00:00	2024-11-06T09:00:00	5	Humedad	56
14477	7	Sololá	701	Sololá	3	Barraneche	3	Marzo	2023-03-17T00:00:00	2024-11-06T09:00:00	6	Velocidad del viento	3.2
14478	7	Sololá	701	Sololá	3	Barraneche	3	Marzo	2023-03-17T00:00:00	2024-11-06T09:00:00	7	Dirección del viento	3.22
14479	7	Sololá	701	Sololá	3	Barraneche	3	Marzo	2023-03-17T00:00:00	2024-11-06T09:00:00	1	Precipitación	0
14480	7	Sololá	701	Sololá	3	Barraneche	3	Marzo	2023-03-17T00:00:00	2024-11-06T09:00:00	8	Radiación solar	400
14481	7	Sololá	701	Sololá	3	Barraneche	3	Marzo	2023-03-17T00:00:00	2024-11-06T10:00:00	2	Temperatura media	16.7
14482	7	Sololá	701	Sololá	3	Barraneche	3	Marzo	2023-03-17T00:00:00	2024-11-06T10:00:00	4	Temperatura máxima	17.1
14483	7	Sololá	701	Sololá	3	Barraneche	3	Marzo	2023-03-17T00:00:00	2024-11-06T10:00:00	3	Temperatura mínima	15.5
14484	7	Sololá	701	Sololá	3	Barraneche	3	Marzo	2023-03-17T00:00:00	2024-11-06T10:00:00	5	Humedad	61
14485	7	Sololá	701	Sololá	3	Barraneche	3	Marzo	2023-03-17T00:00:00	2024-11-06T10:00:00	6	Velocidad del viento	6.4
14486	7	Sololá	701	Sololá	3	Barraneche	3	Marzo	2023-03-17T00:00:00	2024-11-06T10:00:00	7	Dirección del viento	6.44
14487	7	Sololá	701	Sololá	3	Barraneche	3	Marzo	2023-03-17T00:00:00	2024-11-06T10:00:00	1	Precipitación	0
14488	7	Sololá	701	Sololá	3	Barraneche	3	Marzo	2023-03-17T00:00:00	2024-11-06T10:00:00	8	Radiación solar	749
14489	7	Sololá	701	Sololá	3	Barraneche	3	Marzo	2023-03-17T00:00:00	2024-11-06T11:00:00	2	Temperatura media	16.4
14490	7	Sololá	701	Sololá	3	Barraneche	3	Marzo	2023-03-17T00:00:00	2024-11-06T11:00:00	4	Temperatura máxima	16.7
14491	7	Sololá	701	Sololá	3	Barraneche	3	Marzo	2023-03-17T00:00:00	2024-11-06T11:00:00	3	Temperatura mínima	15.9
14492	7	Sololá	701	Sololá	3	Barraneche	3	Marzo	2023-03-17T00:00:00	2024-11-06T11:00:00	5	Humedad	61
14493	7	Sololá	701	Sololá	3	Barraneche	3	Marzo	2023-03-17T00:00:00	2024-11-06T11:00:00	6	Velocidad del viento	12.9
14494	7	Sololá	701	Sololá	3	Barraneche	3	Marzo	2023-03-17T00:00:00	2024-11-06T11:00:00	7	Dirección del viento	12.87
14495	7	Sololá	701	Sololá	3	Barraneche	3	Marzo	2023-03-17T00:00:00	2024-11-06T11:00:00	1	Precipitación	0
14496	7	Sololá	701	Sololá	3	Barraneche	3	Marzo	2023-03-17T00:00:00	2024-11-06T11:00:00	8	Radiación solar	889
14497	7	Sololá	701	Sololá	3	Barraneche	3	Marzo	2023-03-17T00:00:00	2024-11-06T12:00:00	2	Temperatura media	16.8
14498	7	Sololá	701	Sololá	3	Barraneche	3	Marzo	2023-03-17T00:00:00	2024-11-06T12:00:00	4	Temperatura máxima	17.1
14499	7	Sololá	701	Sololá	3	Barraneche	3	Marzo	2023-03-17T00:00:00	2024-11-06T12:00:00	3	Temperatura mínima	15.9
14500	7	Sololá	701	Sololá	3	Barraneche	3	Marzo	2023-03-17T00:00:00	2024-11-06T12:00:00	5	Humedad	64
14501	7	Sololá	701	Sololá	3	Barraneche	3	Marzo	2023-03-17T00:00:00	2024-11-06T12:00:00	6	Velocidad del viento	12.9
14502	7	Sololá	701	Sololá	3	Barraneche	3	Marzo	2023-03-17T00:00:00	2024-11-06T12:00:00	7	Dirección del viento	12.87
14503	7	Sololá	701	Sololá	3	Barraneche	3	Marzo	2023-03-17T00:00:00	2024-11-06T12:00:00	1	Precipitación	0
14504	7	Sololá	701	Sololá	3	Barraneche	3	Marzo	2023-03-17T00:00:00	2024-11-06T12:00:00	8	Radiación solar	475
14505	7	Sololá	701	Sololá	3	Barraneche	3	Marzo	2023-03-17T00:00:00	2024-11-06T13:00:00	2	Temperatura media	16.4
14506	7	Sololá	701	Sololá	3	Barraneche	3	Marzo	2023-03-17T00:00:00	2024-11-06T13:00:00	4	Temperatura máxima	16.9
14507	7	Sololá	701	Sololá	3	Barraneche	3	Marzo	2023-03-17T00:00:00	2024-11-06T13:00:00	3	Temperatura mínima	15.9
14508	7	Sololá	701	Sololá	3	Barraneche	3	Marzo	2023-03-17T00:00:00	2024-11-06T13:00:00	5	Humedad	65
14509	7	Sololá	701	Sololá	3	Barraneche	3	Marzo	2023-03-17T00:00:00	2024-11-06T13:00:00	6	Velocidad del viento	14.5
14510	7	Sololá	701	Sololá	3	Barraneche	3	Marzo	2023-03-17T00:00:00	2024-11-06T13:00:00	7	Dirección del viento	14.48
14511	7	Sololá	701	Sololá	3	Barraneche	3	Marzo	2023-03-17T00:00:00	2024-11-06T13:00:00	1	Precipitación	0
14512	7	Sololá	701	Sololá	3	Barraneche	3	Marzo	2023-03-17T00:00:00	2024-11-06T13:00:00	8	Radiación solar	359
14513	7	Sololá	701	Sololá	3	Barraneche	3	Marzo	2023-03-17T00:00:00	2024-11-06T14:00:00	2	Temperatura media	14.3
14514	7	Sololá	701	Sololá	3	Barraneche	3	Marzo	2023-03-17T00:00:00	2024-11-06T14:00:00	4	Temperatura máxima	16.4
14515	7	Sololá	701	Sololá	3	Barraneche	3	Marzo	2023-03-17T00:00:00	2024-11-06T14:00:00	3	Temperatura mínima	14.3
14516	7	Sololá	701	Sololá	3	Barraneche	3	Marzo	2023-03-17T00:00:00	2024-11-06T14:00:00	5	Humedad	72
14517	7	Sololá	701	Sololá	3	Barraneche	3	Marzo	2023-03-17T00:00:00	2024-11-06T14:00:00	6	Velocidad del viento	12.9
14518	7	Sololá	701	Sololá	3	Barraneche	3	Marzo	2023-03-17T00:00:00	2024-11-06T14:00:00	7	Dirección del viento	12.87
14519	7	Sololá	701	Sololá	3	Barraneche	3	Marzo	2023-03-17T00:00:00	2024-11-06T14:00:00	1	Precipitación	0
14520	7	Sololá	701	Sololá	3	Barraneche	3	Marzo	2023-03-17T00:00:00	2024-11-06T14:00:00	8	Radiación solar	197
14521	7	Sololá	701	Sololá	3	Barraneche	3	Marzo	2023-03-17T00:00:00	2024-11-06T15:00:00	2	Temperatura media	14.2
14522	7	Sololá	701	Sololá	3	Barraneche	3	Marzo	2023-03-17T00:00:00	2024-11-06T15:00:00	4	Temperatura máxima	14.3
14523	7	Sololá	701	Sololá	3	Barraneche	3	Marzo	2023-03-17T00:00:00	2024-11-06T15:00:00	3	Temperatura mínima	13.8
14524	7	Sololá	701	Sololá	3	Barraneche	3	Marzo	2023-03-17T00:00:00	2024-11-06T15:00:00	5	Humedad	76
14525	7	Sololá	701	Sololá	3	Barraneche	3	Marzo	2023-03-17T00:00:00	2024-11-06T15:00:00	6	Velocidad del viento	4.8
14526	7	Sololá	701	Sololá	3	Barraneche	3	Marzo	2023-03-17T00:00:00	2024-11-06T15:00:00	7	Dirección del viento	4.83
14527	7	Sololá	701	Sololá	3	Barraneche	3	Marzo	2023-03-17T00:00:00	2024-11-06T15:00:00	1	Precipitación	1.2
14528	7	Sololá	701	Sololá	3	Barraneche	3	Marzo	2023-03-17T00:00:00	2024-11-06T15:00:00	8	Radiación solar	142
14529	7	Sololá	701	Sololá	3	Barraneche	3	Marzo	2023-03-17T00:00:00	2024-11-06T16:00:00	2	Temperatura media	15.8
14530	7	Sololá	701	Sololá	3	Barraneche	3	Marzo	2023-03-17T00:00:00	2024-11-06T16:00:00	4	Temperatura máxima	16.3
14531	7	Sololá	701	Sololá	3	Barraneche	3	Marzo	2023-03-17T00:00:00	2024-11-06T16:00:00	3	Temperatura mínima	14.2
14532	7	Sololá	701	Sololá	3	Barraneche	3	Marzo	2023-03-17T00:00:00	2024-11-06T16:00:00	5	Humedad	66
14533	7	Sololá	701	Sololá	3	Barraneche	3	Marzo	2023-03-17T00:00:00	2024-11-06T16:00:00	6	Velocidad del viento	4.8
14534	7	Sololá	701	Sololá	3	Barraneche	3	Marzo	2023-03-17T00:00:00	2024-11-06T16:00:00	7	Dirección del viento	4.83
14535	7	Sololá	701	Sololá	3	Barraneche	3	Marzo	2023-03-17T00:00:00	2024-11-06T16:00:00	1	Precipitación	0
14536	7	Sololá	701	Sololá	3	Barraneche	3	Marzo	2023-03-17T00:00:00	2024-11-06T16:00:00	8	Radiación solar	418
14537	7	Sololá	701	Sololá	3	Barraneche	3	Marzo	2023-03-17T00:00:00	2024-11-06T17:00:00	2	Temperatura media	13.4
14538	7	Sololá	701	Sololá	3	Barraneche	3	Marzo	2023-03-17T00:00:00	2024-11-06T17:00:00	4	Temperatura máxima	15.8
14539	7	Sololá	701	Sololá	3	Barraneche	3	Marzo	2023-03-17T00:00:00	2024-11-06T17:00:00	3	Temperatura mínima	13.4
14540	7	Sololá	701	Sololá	3	Barraneche	3	Marzo	2023-03-17T00:00:00	2024-11-06T17:00:00	5	Humedad	70
14541	7	Sololá	701	Sololá	3	Barraneche	3	Marzo	2023-03-17T00:00:00	2024-11-06T17:00:00	6	Velocidad del viento	8
14542	7	Sololá	701	Sololá	3	Barraneche	3	Marzo	2023-03-17T00:00:00	2024-11-06T17:00:00	7	Dirección del viento	8.05
14543	7	Sololá	701	Sololá	3	Barraneche	3	Marzo	2023-03-17T00:00:00	2024-11-06T17:00:00	1	Precipitación	0
14544	7	Sololá	701	Sololá	3	Barraneche	3	Marzo	2023-03-17T00:00:00	2024-11-06T17:00:00	8	Radiación solar	122
14545	7	Sololá	701	Sololá	3	Barraneche	3	Marzo	2023-03-17T00:00:00	2024-11-06T18:00:00	2	Temperatura media	13.3
14546	7	Sololá	701	Sololá	3	Barraneche	3	Marzo	2023-03-17T00:00:00	2024-11-06T18:00:00	4	Temperatura máxima	13.4
14547	7	Sololá	701	Sololá	3	Barraneche	3	Marzo	2023-03-17T00:00:00	2024-11-06T18:00:00	3	Temperatura mínima	13.1
14548	7	Sololá	701	Sololá	3	Barraneche	3	Marzo	2023-03-17T00:00:00	2024-11-06T18:00:00	5	Humedad	71
14549	7	Sololá	701	Sololá	3	Barraneche	3	Marzo	2023-03-17T00:00:00	2024-11-06T18:00:00	6	Velocidad del viento	3.2
14550	7	Sololá	701	Sololá	3	Barraneche	3	Marzo	2023-03-17T00:00:00	2024-11-06T18:00:00	7	Dirección del viento	3.22
14551	7	Sololá	701	Sololá	3	Barraneche	3	Marzo	2023-03-17T00:00:00	2024-11-06T18:00:00	1	Precipitación	0
14552	7	Sololá	701	Sololá	3	Barraneche	3	Marzo	2023-03-17T00:00:00	2024-11-06T18:00:00	8	Radiación solar	30
14553	7	Sololá	701	Sololá	3	Barraneche	3	Marzo	2023-03-17T00:00:00	2024-11-06T19:00:00	2	Temperatura media	13.2
14554	7	Sololá	701	Sololá	3	Barraneche	3	Marzo	2023-03-17T00:00:00	2024-11-06T19:00:00	4	Temperatura máxima	13.4
14555	7	Sololá	701	Sololá	3	Barraneche	3	Marzo	2023-03-17T00:00:00	2024-11-06T19:00:00	3	Temperatura mínima	13.2
14556	7	Sololá	701	Sololá	3	Barraneche	3	Marzo	2023-03-17T00:00:00	2024-11-06T19:00:00	5	Humedad	71
14557	7	Sololá	701	Sololá	3	Barraneche	3	Marzo	2023-03-17T00:00:00	2024-11-06T19:00:00	6	Velocidad del viento	1.6
14558	7	Sololá	701	Sololá	3	Barraneche	3	Marzo	2023-03-17T00:00:00	2024-11-06T19:00:00	7	Dirección del viento	1.61
14559	7	Sololá	701	Sololá	3	Barraneche	3	Marzo	2023-03-17T00:00:00	2024-11-06T19:00:00	1	Precipitación	0
14560	7	Sololá	701	Sololá	3	Barraneche	3	Marzo	2023-03-17T00:00:00	2024-11-06T19:00:00	8	Radiación solar	0
14561	7	Sololá	701	Sololá	3	Barraneche	3	Marzo	2023-03-17T00:00:00	2024-11-06T20:00:00	2	Temperatura media	12.8
14562	7	Sololá	701	Sololá	3	Barraneche	3	Marzo	2023-03-17T00:00:00	2024-11-06T20:00:00	4	Temperatura máxima	13.2
14563	7	Sololá	701	Sololá	3	Barraneche	3	Marzo	2023-03-17T00:00:00	2024-11-06T20:00:00	3	Temperatura mínima	12.7
14564	7	Sololá	701	Sololá	3	Barraneche	3	Marzo	2023-03-17T00:00:00	2024-11-06T20:00:00	5	Humedad	74
14565	7	Sololá	701	Sololá	3	Barraneche	3	Marzo	2023-03-17T00:00:00	2024-11-06T20:00:00	6	Velocidad del viento	3.2
14566	7	Sololá	701	Sololá	3	Barraneche	3	Marzo	2023-03-17T00:00:00	2024-11-06T20:00:00	7	Dirección del viento	3.22
14567	7	Sololá	701	Sololá	3	Barraneche	3	Marzo	2023-03-17T00:00:00	2024-11-06T20:00:00	1	Precipitación	0
14568	7	Sololá	701	Sololá	3	Barraneche	3	Marzo	2023-03-17T00:00:00	2024-11-06T20:00:00	8	Radiación solar	0
14569	7	Sololá	701	Sololá	3	Barraneche	3	Marzo	2023-03-17T00:00:00	2024-11-06T21:00:00	2	Temperatura media	12.2
14570	7	Sololá	701	Sololá	3	Barraneche	3	Marzo	2023-03-17T00:00:00	2024-11-06T21:00:00	4	Temperatura máxima	13
14571	7	Sololá	701	Sololá	3	Barraneche	3	Marzo	2023-03-17T00:00:00	2024-11-06T21:00:00	3	Temperatura mínima	12.2
14572	7	Sololá	701	Sololá	3	Barraneche	3	Marzo	2023-03-17T00:00:00	2024-11-06T21:00:00	5	Humedad	75
14573	7	Sololá	701	Sololá	3	Barraneche	3	Marzo	2023-03-17T00:00:00	2024-11-06T21:00:00	6	Velocidad del viento	1.6
14574	7	Sololá	701	Sololá	3	Barraneche	3	Marzo	2023-03-17T00:00:00	2024-11-06T21:00:00	7	Dirección del viento	1.61
14575	7	Sololá	701	Sololá	3	Barraneche	3	Marzo	2023-03-17T00:00:00	2024-11-06T21:00:00	1	Precipitación	0
14576	7	Sololá	701	Sololá	3	Barraneche	3	Marzo	2023-03-17T00:00:00	2024-11-06T21:00:00	8	Radiación solar	0
14577	7	Sololá	701	Sololá	3	Barraneche	3	Marzo	2023-03-17T00:00:00	2024-11-06T22:00:00	2	Temperatura media	11.6
14578	7	Sololá	701	Sololá	3	Barraneche	3	Marzo	2023-03-17T00:00:00	2024-11-06T22:00:00	4	Temperatura máxima	12.2
14579	7	Sololá	701	Sololá	3	Barraneche	3	Marzo	2023-03-17T00:00:00	2024-11-06T22:00:00	3	Temperatura mínima	11.5
14580	7	Sololá	701	Sololá	3	Barraneche	3	Marzo	2023-03-17T00:00:00	2024-11-06T22:00:00	5	Humedad	74
14581	7	Sololá	701	Sololá	3	Barraneche	3	Marzo	2023-03-17T00:00:00	2024-11-06T22:00:00	6	Velocidad del viento	4.8
14582	7	Sololá	701	Sololá	3	Barraneche	3	Marzo	2023-03-17T00:00:00	2024-11-06T22:00:00	7	Dirección del viento	4.83
14583	7	Sololá	701	Sololá	3	Barraneche	3	Marzo	2023-03-17T00:00:00	2024-11-06T22:00:00	1	Precipitación	0
14584	7	Sololá	701	Sololá	3	Barraneche	3	Marzo	2023-03-17T00:00:00	2024-11-06T22:00:00	8	Radiación solar	0
14585	7	Sololá	701	Sololá	3	Barraneche	3	Marzo	2023-03-17T00:00:00	2024-11-06T23:00:00	2	Temperatura media	11
14586	7	Sololá	701	Sololá	3	Barraneche	3	Marzo	2023-03-17T00:00:00	2024-11-06T23:00:00	4	Temperatura máxima	11.7
14587	7	Sololá	701	Sololá	3	Barraneche	3	Marzo	2023-03-17T00:00:00	2024-11-06T23:00:00	3	Temperatura mínima	11
14588	7	Sololá	701	Sololá	3	Barraneche	3	Marzo	2023-03-17T00:00:00	2024-11-06T23:00:00	5	Humedad	75
14589	7	Sololá	701	Sololá	3	Barraneche	3	Marzo	2023-03-17T00:00:00	2024-11-06T23:00:00	6	Velocidad del viento	3.2
14590	7	Sololá	701	Sololá	3	Barraneche	3	Marzo	2023-03-17T00:00:00	2024-11-06T23:00:00	7	Dirección del viento	3.22
14591	7	Sololá	701	Sololá	3	Barraneche	3	Marzo	2023-03-17T00:00:00	2024-11-06T23:00:00	1	Precipitación	0
14592	7	Sololá	701	Sololá	3	Barraneche	3	Marzo	2023-03-17T00:00:00	2024-11-06T23:00:00	8	Radiación solar	0
14593	7	Sololá	701	Sololá	3	Barraneche	3	Marzo	2023-03-18T00:00:00	2024-11-06T00:00:00	2	Temperatura media	8.8
14594	7	Sololá	701	Sololá	3	Barraneche	3	Marzo	2023-03-18T00:00:00	2024-11-06T00:00:00	4	Temperatura máxima	11
14595	7	Sololá	701	Sololá	3	Barraneche	3	Marzo	2023-03-18T00:00:00	2024-11-06T00:00:00	3	Temperatura mínima	8.8
14596	7	Sololá	701	Sololá	3	Barraneche	3	Marzo	2023-03-18T00:00:00	2024-11-06T00:00:00	5	Humedad	59
14597	7	Sololá	701	Sololá	3	Barraneche	3	Marzo	2023-03-18T00:00:00	2024-11-06T00:00:00	6	Velocidad del viento	9.7
14598	7	Sololá	701	Sololá	3	Barraneche	3	Marzo	2023-03-18T00:00:00	2024-11-06T00:00:00	7	Dirección del viento	9.66
14599	7	Sololá	701	Sololá	3	Barraneche	3	Marzo	2023-03-18T00:00:00	2024-11-06T00:00:00	1	Precipitación	0
14600	7	Sololá	701	Sololá	3	Barraneche	3	Marzo	2023-03-18T00:00:00	2024-11-06T00:00:00	8	Radiación solar	0
14601	7	Sololá	701	Sololá	3	Barraneche	3	Marzo	2023-03-18T00:00:00	2024-11-06T01:00:00	2	Temperatura media	8.8
14602	7	Sololá	701	Sololá	3	Barraneche	3	Marzo	2023-03-18T00:00:00	2024-11-06T01:00:00	4	Temperatura máxima	9.1
14603	7	Sololá	701	Sololá	3	Barraneche	3	Marzo	2023-03-18T00:00:00	2024-11-06T01:00:00	3	Temperatura mínima	8.3
14604	7	Sololá	701	Sololá	3	Barraneche	3	Marzo	2023-03-18T00:00:00	2024-11-06T01:00:00	5	Humedad	60
14605	7	Sololá	701	Sololá	3	Barraneche	3	Marzo	2023-03-18T00:00:00	2024-11-06T01:00:00	6	Velocidad del viento	9.7
14606	7	Sololá	701	Sololá	3	Barraneche	3	Marzo	2023-03-18T00:00:00	2024-11-06T01:00:00	7	Dirección del viento	9.66
14607	7	Sololá	701	Sololá	3	Barraneche	3	Marzo	2023-03-18T00:00:00	2024-11-06T01:00:00	1	Precipitación	0
14608	7	Sololá	701	Sololá	3	Barraneche	3	Marzo	2023-03-18T00:00:00	2024-11-06T01:00:00	8	Radiación solar	0
14609	7	Sololá	701	Sololá	3	Barraneche	3	Marzo	2023-03-18T00:00:00	2024-11-06T02:00:00	2	Temperatura media	8.6
14610	7	Sololá	701	Sololá	3	Barraneche	3	Marzo	2023-03-18T00:00:00	2024-11-06T02:00:00	4	Temperatura máxima	8.8
14611	7	Sololá	701	Sololá	3	Barraneche	3	Marzo	2023-03-18T00:00:00	2024-11-06T02:00:00	3	Temperatura mínima	8.3
14612	7	Sololá	701	Sololá	3	Barraneche	3	Marzo	2023-03-18T00:00:00	2024-11-06T02:00:00	5	Humedad	61
14613	7	Sololá	701	Sololá	3	Barraneche	3	Marzo	2023-03-18T00:00:00	2024-11-06T02:00:00	6	Velocidad del viento	8
14614	7	Sololá	701	Sololá	3	Barraneche	3	Marzo	2023-03-18T00:00:00	2024-11-06T02:00:00	7	Dirección del viento	8.05
14615	7	Sololá	701	Sololá	3	Barraneche	3	Marzo	2023-03-18T00:00:00	2024-11-06T02:00:00	1	Precipitación	0
14616	7	Sololá	701	Sololá	3	Barraneche	3	Marzo	2023-03-18T00:00:00	2024-11-06T02:00:00	8	Radiación solar	0
14617	7	Sololá	701	Sololá	3	Barraneche	3	Marzo	2023-03-18T00:00:00	2024-11-06T03:00:00	2	Temperatura media	9.2
14618	7	Sololá	701	Sololá	3	Barraneche	3	Marzo	2023-03-18T00:00:00	2024-11-06T03:00:00	4	Temperatura máxima	9.2
14619	7	Sololá	701	Sololá	3	Barraneche	3	Marzo	2023-03-18T00:00:00	2024-11-06T03:00:00	3	Temperatura mínima	8.3
14620	7	Sololá	701	Sololá	3	Barraneche	3	Marzo	2023-03-18T00:00:00	2024-11-06T03:00:00	5	Humedad	54
14621	7	Sololá	701	Sololá	3	Barraneche	3	Marzo	2023-03-18T00:00:00	2024-11-06T03:00:00	6	Velocidad del viento	8
14622	7	Sololá	701	Sololá	3	Barraneche	3	Marzo	2023-03-18T00:00:00	2024-11-06T03:00:00	7	Dirección del viento	8.05
14623	7	Sololá	701	Sololá	3	Barraneche	3	Marzo	2023-03-18T00:00:00	2024-11-06T03:00:00	1	Precipitación	0
14624	7	Sololá	701	Sololá	3	Barraneche	3	Marzo	2023-03-18T00:00:00	2024-11-06T03:00:00	8	Radiación solar	0
14625	7	Sololá	701	Sololá	3	Barraneche	3	Marzo	2023-03-18T00:00:00	2024-11-06T04:00:00	2	Temperatura media	9.1
14626	7	Sololá	701	Sololá	3	Barraneche	3	Marzo	2023-03-18T00:00:00	2024-11-06T04:00:00	4	Temperatura máxima	9.3
14627	7	Sololá	701	Sololá	3	Barraneche	3	Marzo	2023-03-18T00:00:00	2024-11-06T04:00:00	3	Temperatura mínima	8.6
14628	7	Sololá	701	Sololá	3	Barraneche	3	Marzo	2023-03-18T00:00:00	2024-11-06T04:00:00	5	Humedad	55
14629	7	Sololá	701	Sololá	3	Barraneche	3	Marzo	2023-03-18T00:00:00	2024-11-06T04:00:00	6	Velocidad del viento	9.7
14630	7	Sololá	701	Sololá	3	Barraneche	3	Marzo	2023-03-18T00:00:00	2024-11-06T04:00:00	7	Dirección del viento	9.66
14631	7	Sololá	701	Sololá	3	Barraneche	3	Marzo	2023-03-18T00:00:00	2024-11-06T04:00:00	1	Precipitación	0
14632	7	Sololá	701	Sololá	3	Barraneche	3	Marzo	2023-03-18T00:00:00	2024-11-06T04:00:00	8	Radiación solar	0
14633	7	Sololá	701	Sololá	3	Barraneche	3	Marzo	2023-03-18T00:00:00	2024-11-06T05:00:00	2	Temperatura media	9
14634	7	Sololá	701	Sololá	3	Barraneche	3	Marzo	2023-03-18T00:00:00	2024-11-06T05:00:00	4	Temperatura máxima	9.1
14635	7	Sololá	701	Sololá	3	Barraneche	3	Marzo	2023-03-18T00:00:00	2024-11-06T05:00:00	3	Temperatura mínima	8.5
14636	7	Sololá	701	Sololá	3	Barraneche	3	Marzo	2023-03-18T00:00:00	2024-11-06T05:00:00	5	Humedad	54
14637	7	Sololá	701	Sololá	3	Barraneche	3	Marzo	2023-03-18T00:00:00	2024-11-06T05:00:00	6	Velocidad del viento	9.7
14638	7	Sololá	701	Sololá	3	Barraneche	3	Marzo	2023-03-18T00:00:00	2024-11-06T05:00:00	7	Dirección del viento	9.66
14639	7	Sololá	701	Sololá	3	Barraneche	3	Marzo	2023-03-18T00:00:00	2024-11-06T05:00:00	1	Precipitación	0
14640	7	Sololá	701	Sololá	3	Barraneche	3	Marzo	2023-03-18T00:00:00	2024-11-06T05:00:00	8	Radiación solar	0
14641	7	Sololá	701	Sololá	3	Barraneche	3	Marzo	2023-03-18T00:00:00	2024-11-06T06:00:00	2	Temperatura media	9.1
14642	7	Sololá	701	Sololá	3	Barraneche	3	Marzo	2023-03-18T00:00:00	2024-11-06T06:00:00	4	Temperatura máxima	9.2
14643	7	Sololá	701	Sololá	3	Barraneche	3	Marzo	2023-03-18T00:00:00	2024-11-06T06:00:00	3	Temperatura mínima	8.7
14644	7	Sololá	701	Sololá	3	Barraneche	3	Marzo	2023-03-18T00:00:00	2024-11-06T06:00:00	5	Humedad	49
14645	7	Sololá	701	Sololá	3	Barraneche	3	Marzo	2023-03-18T00:00:00	2024-11-06T06:00:00	6	Velocidad del viento	9.7
14646	7	Sololá	701	Sololá	3	Barraneche	3	Marzo	2023-03-18T00:00:00	2024-11-06T06:00:00	7	Dirección del viento	9.66
14647	7	Sololá	701	Sololá	3	Barraneche	3	Marzo	2023-03-18T00:00:00	2024-11-06T06:00:00	1	Precipitación	0
14648	7	Sololá	701	Sololá	3	Barraneche	3	Marzo	2023-03-18T00:00:00	2024-11-06T06:00:00	8	Radiación solar	0
14649	7	Sololá	701	Sololá	3	Barraneche	3	Marzo	2023-03-18T00:00:00	2024-11-06T07:00:00	2	Temperatura media	9.4
14650	7	Sololá	701	Sololá	3	Barraneche	3	Marzo	2023-03-18T00:00:00	2024-11-06T07:00:00	4	Temperatura máxima	9.4
14651	7	Sololá	701	Sololá	3	Barraneche	3	Marzo	2023-03-18T00:00:00	2024-11-06T07:00:00	3	Temperatura mínima	8.4
14652	7	Sololá	701	Sololá	3	Barraneche	3	Marzo	2023-03-18T00:00:00	2024-11-06T07:00:00	5	Humedad	52
14653	7	Sololá	701	Sololá	3	Barraneche	3	Marzo	2023-03-18T00:00:00	2024-11-06T07:00:00	6	Velocidad del viento	8
14654	7	Sololá	701	Sololá	3	Barraneche	3	Marzo	2023-03-18T00:00:00	2024-11-06T07:00:00	7	Dirección del viento	8.05
14655	7	Sololá	701	Sololá	3	Barraneche	3	Marzo	2023-03-18T00:00:00	2024-11-06T07:00:00	1	Precipitación	0
14656	7	Sololá	701	Sololá	3	Barraneche	3	Marzo	2023-03-18T00:00:00	2024-11-06T07:00:00	8	Radiación solar	15
14657	7	Sololá	701	Sololá	3	Barraneche	3	Marzo	2023-03-18T00:00:00	2024-11-06T08:00:00	2	Temperatura media	14.7
14658	7	Sololá	701	Sololá	3	Barraneche	3	Marzo	2023-03-18T00:00:00	2024-11-06T08:00:00	4	Temperatura máxima	14.7
14659	7	Sololá	701	Sololá	3	Barraneche	3	Marzo	2023-03-18T00:00:00	2024-11-06T08:00:00	3	Temperatura mínima	9.4
14660	7	Sololá	701	Sololá	3	Barraneche	3	Marzo	2023-03-18T00:00:00	2024-11-06T08:00:00	5	Humedad	42
14661	7	Sololá	701	Sololá	3	Barraneche	3	Marzo	2023-03-18T00:00:00	2024-11-06T08:00:00	6	Velocidad del viento	4.8
14662	7	Sololá	701	Sololá	3	Barraneche	3	Marzo	2023-03-18T00:00:00	2024-11-06T08:00:00	7	Dirección del viento	4.83
14663	7	Sololá	701	Sololá	3	Barraneche	3	Marzo	2023-03-18T00:00:00	2024-11-06T08:00:00	1	Precipitación	0
14664	7	Sololá	701	Sololá	3	Barraneche	3	Marzo	2023-03-18T00:00:00	2024-11-06T08:00:00	8	Radiación solar	269
14665	7	Sololá	701	Sololá	3	Barraneche	3	Marzo	2023-03-18T00:00:00	2024-11-06T09:00:00	2	Temperatura media	17.1
14666	7	Sololá	701	Sololá	3	Barraneche	3	Marzo	2023-03-18T00:00:00	2024-11-06T09:00:00	4	Temperatura máxima	17.1
14667	7	Sololá	701	Sololá	3	Barraneche	3	Marzo	2023-03-18T00:00:00	2024-11-06T09:00:00	3	Temperatura mínima	14.7
14668	7	Sololá	701	Sololá	3	Barraneche	3	Marzo	2023-03-18T00:00:00	2024-11-06T09:00:00	5	Humedad	42
14669	7	Sololá	701	Sololá	3	Barraneche	3	Marzo	2023-03-18T00:00:00	2024-11-06T09:00:00	6	Velocidad del viento	3.2
14670	7	Sololá	701	Sololá	3	Barraneche	3	Marzo	2023-03-18T00:00:00	2024-11-06T09:00:00	7	Dirección del viento	3.22
14671	7	Sololá	701	Sololá	3	Barraneche	3	Marzo	2023-03-18T00:00:00	2024-11-06T09:00:00	1	Precipitación	0
14672	7	Sololá	701	Sololá	3	Barraneche	3	Marzo	2023-03-18T00:00:00	2024-11-06T09:00:00	8	Radiación solar	531
14673	7	Sololá	701	Sololá	3	Barraneche	3	Marzo	2023-03-18T00:00:00	2024-11-06T10:00:00	2	Temperatura media	17.7
14674	7	Sololá	701	Sololá	3	Barraneche	3	Marzo	2023-03-18T00:00:00	2024-11-06T10:00:00	4	Temperatura máxima	17.7
14675	7	Sololá	701	Sololá	3	Barraneche	3	Marzo	2023-03-18T00:00:00	2024-11-06T10:00:00	3	Temperatura mínima	17.1
14676	7	Sololá	701	Sololá	3	Barraneche	3	Marzo	2023-03-18T00:00:00	2024-11-06T10:00:00	5	Humedad	40
14677	7	Sololá	701	Sololá	3	Barraneche	3	Marzo	2023-03-18T00:00:00	2024-11-06T10:00:00	6	Velocidad del viento	12.9
14678	7	Sololá	701	Sololá	3	Barraneche	3	Marzo	2023-03-18T00:00:00	2024-11-06T10:00:00	7	Dirección del viento	12.87
14679	7	Sololá	701	Sololá	3	Barraneche	3	Marzo	2023-03-18T00:00:00	2024-11-06T10:00:00	1	Precipitación	0
14680	7	Sololá	701	Sololá	3	Barraneche	3	Marzo	2023-03-18T00:00:00	2024-11-06T10:00:00	8	Radiación solar	761
14681	7	Sololá	701	Sololá	3	Barraneche	3	Marzo	2023-03-18T00:00:00	2024-11-06T11:00:00	2	Temperatura media	17.8
14682	7	Sololá	701	Sololá	3	Barraneche	3	Marzo	2023-03-18T00:00:00	2024-11-06T11:00:00	4	Temperatura máxima	18.1
14683	7	Sololá	701	Sololá	3	Barraneche	3	Marzo	2023-03-18T00:00:00	2024-11-06T11:00:00	3	Temperatura mínima	17.6
14684	7	Sololá	701	Sololá	3	Barraneche	3	Marzo	2023-03-18T00:00:00	2024-11-06T11:00:00	5	Humedad	50
14685	7	Sololá	701	Sololá	3	Barraneche	3	Marzo	2023-03-18T00:00:00	2024-11-06T11:00:00	6	Velocidad del viento	12.9
14686	7	Sololá	701	Sololá	3	Barraneche	3	Marzo	2023-03-18T00:00:00	2024-11-06T11:00:00	7	Dirección del viento	12.87
14687	7	Sololá	701	Sololá	3	Barraneche	3	Marzo	2023-03-18T00:00:00	2024-11-06T11:00:00	1	Precipitación	0
14688	7	Sololá	701	Sololá	3	Barraneche	3	Marzo	2023-03-18T00:00:00	2024-11-06T11:00:00	8	Radiación solar	937
14689	7	Sololá	701	Sololá	3	Barraneche	3	Marzo	2023-03-18T00:00:00	2024-11-06T12:00:00	2	Temperatura media	17.9
14690	7	Sololá	701	Sololá	3	Barraneche	3	Marzo	2023-03-18T00:00:00	2024-11-06T12:00:00	4	Temperatura máxima	18.2
14691	7	Sololá	701	Sololá	3	Barraneche	3	Marzo	2023-03-18T00:00:00	2024-11-06T12:00:00	3	Temperatura mínima	17.6
14692	7	Sololá	701	Sololá	3	Barraneche	3	Marzo	2023-03-18T00:00:00	2024-11-06T12:00:00	5	Humedad	54
14693	7	Sololá	701	Sololá	3	Barraneche	3	Marzo	2023-03-18T00:00:00	2024-11-06T12:00:00	6	Velocidad del viento	14.5
14694	7	Sololá	701	Sololá	3	Barraneche	3	Marzo	2023-03-18T00:00:00	2024-11-06T12:00:00	7	Dirección del viento	14.48
14695	7	Sololá	701	Sololá	3	Barraneche	3	Marzo	2023-03-18T00:00:00	2024-11-06T12:00:00	1	Precipitación	0
14696	7	Sololá	701	Sololá	3	Barraneche	3	Marzo	2023-03-18T00:00:00	2024-11-06T12:00:00	8	Radiación solar	1062
14697	7	Sololá	701	Sololá	3	Barraneche	3	Marzo	2023-03-18T00:00:00	2024-11-06T13:00:00	2	Temperatura media	16.4
14698	7	Sololá	701	Sololá	3	Barraneche	3	Marzo	2023-03-18T00:00:00	2024-11-06T13:00:00	4	Temperatura máxima	17.9
14699	7	Sololá	701	Sololá	3	Barraneche	3	Marzo	2023-03-18T00:00:00	2024-11-06T13:00:00	3	Temperatura mínima	16.4
14700	7	Sololá	701	Sololá	3	Barraneche	3	Marzo	2023-03-18T00:00:00	2024-11-06T13:00:00	5	Humedad	59
14701	7	Sololá	701	Sololá	3	Barraneche	3	Marzo	2023-03-18T00:00:00	2024-11-06T13:00:00	6	Velocidad del viento	12.9
14702	7	Sololá	701	Sololá	3	Barraneche	3	Marzo	2023-03-18T00:00:00	2024-11-06T13:00:00	7	Dirección del viento	12.87
14703	7	Sololá	701	Sololá	3	Barraneche	3	Marzo	2023-03-18T00:00:00	2024-11-06T13:00:00	1	Precipitación	0
14704	7	Sololá	701	Sololá	3	Barraneche	3	Marzo	2023-03-18T00:00:00	2024-11-06T13:00:00	8	Radiación solar	683
14705	7	Sololá	701	Sololá	3	Barraneche	3	Marzo	2023-03-18T00:00:00	2024-11-06T14:00:00	2	Temperatura media	15.9
14706	7	Sololá	701	Sololá	3	Barraneche	3	Marzo	2023-03-18T00:00:00	2024-11-06T14:00:00	4	Temperatura máxima	16.8
14707	7	Sololá	701	Sololá	3	Barraneche	3	Marzo	2023-03-18T00:00:00	2024-11-06T14:00:00	3	Temperatura mínima	15.8
14708	7	Sololá	701	Sololá	3	Barraneche	3	Marzo	2023-03-18T00:00:00	2024-11-06T14:00:00	5	Humedad	63
14709	7	Sololá	701	Sololá	3	Barraneche	3	Marzo	2023-03-18T00:00:00	2024-11-06T14:00:00	6	Velocidad del viento	12.9
14710	7	Sololá	701	Sololá	3	Barraneche	3	Marzo	2023-03-18T00:00:00	2024-11-06T14:00:00	7	Dirección del viento	12.87
14711	7	Sololá	701	Sololá	3	Barraneche	3	Marzo	2023-03-18T00:00:00	2024-11-06T14:00:00	1	Precipitación	0
14712	7	Sololá	701	Sololá	3	Barraneche	3	Marzo	2023-03-18T00:00:00	2024-11-06T14:00:00	8	Radiación solar	294
14713	7	Sololá	701	Sololá	3	Barraneche	3	Marzo	2023-03-18T00:00:00	2024-11-06T15:00:00	2	Temperatura media	15.4
14714	7	Sololá	701	Sololá	3	Barraneche	3	Marzo	2023-03-18T00:00:00	2024-11-06T15:00:00	4	Temperatura máxima	15.9
14715	7	Sololá	701	Sololá	3	Barraneche	3	Marzo	2023-03-18T00:00:00	2024-11-06T15:00:00	3	Temperatura mínima	15.2
14716	7	Sololá	701	Sololá	3	Barraneche	3	Marzo	2023-03-18T00:00:00	2024-11-06T15:00:00	5	Humedad	68
14717	7	Sololá	701	Sololá	3	Barraneche	3	Marzo	2023-03-18T00:00:00	2024-11-06T15:00:00	6	Velocidad del viento	9.7
14718	7	Sololá	701	Sololá	3	Barraneche	3	Marzo	2023-03-18T00:00:00	2024-11-06T15:00:00	7	Dirección del viento	9.66
14719	7	Sololá	701	Sololá	3	Barraneche	3	Marzo	2023-03-18T00:00:00	2024-11-06T15:00:00	1	Precipitación	0
14720	7	Sololá	701	Sololá	3	Barraneche	3	Marzo	2023-03-18T00:00:00	2024-11-06T15:00:00	8	Radiación solar	160
14721	7	Sololá	701	Sololá	3	Barraneche	3	Marzo	2023-03-18T00:00:00	2024-11-06T16:00:00	2	Temperatura media	15.6
14722	7	Sololá	701	Sololá	3	Barraneche	3	Marzo	2023-03-18T00:00:00	2024-11-06T16:00:00	4	Temperatura máxima	15.6
14723	7	Sololá	701	Sololá	3	Barraneche	3	Marzo	2023-03-18T00:00:00	2024-11-06T16:00:00	3	Temperatura mínima	14.9
14724	7	Sololá	701	Sololá	3	Barraneche	3	Marzo	2023-03-18T00:00:00	2024-11-06T16:00:00	5	Humedad	66
14725	7	Sololá	701	Sololá	3	Barraneche	3	Marzo	2023-03-18T00:00:00	2024-11-06T16:00:00	6	Velocidad del viento	6.4
14726	7	Sololá	701	Sololá	3	Barraneche	3	Marzo	2023-03-18T00:00:00	2024-11-06T16:00:00	7	Dirección del viento	6.44
14727	7	Sololá	701	Sololá	3	Barraneche	3	Marzo	2023-03-18T00:00:00	2024-11-06T16:00:00	1	Precipitación	0
14728	7	Sololá	701	Sololá	3	Barraneche	3	Marzo	2023-03-18T00:00:00	2024-11-06T16:00:00	8	Radiación solar	157
14729	7	Sololá	701	Sololá	3	Barraneche	3	Marzo	2023-03-18T00:00:00	2024-11-06T17:00:00	2	Temperatura media	14.5
14730	7	Sololá	701	Sololá	3	Barraneche	3	Marzo	2023-03-18T00:00:00	2024-11-06T17:00:00	4	Temperatura máxima	15.7
14731	7	Sololá	701	Sololá	3	Barraneche	3	Marzo	2023-03-18T00:00:00	2024-11-06T17:00:00	3	Temperatura mínima	14.5
14732	7	Sololá	701	Sololá	3	Barraneche	3	Marzo	2023-03-18T00:00:00	2024-11-06T17:00:00	5	Humedad	70
14733	7	Sololá	701	Sololá	3	Barraneche	3	Marzo	2023-03-18T00:00:00	2024-11-06T17:00:00	6	Velocidad del viento	8
14734	7	Sololá	701	Sololá	3	Barraneche	3	Marzo	2023-03-18T00:00:00	2024-11-06T17:00:00	7	Dirección del viento	8.05
14735	7	Sololá	701	Sololá	3	Barraneche	3	Marzo	2023-03-18T00:00:00	2024-11-06T17:00:00	1	Precipitación	0
14736	7	Sololá	701	Sololá	3	Barraneche	3	Marzo	2023-03-18T00:00:00	2024-11-06T17:00:00	8	Radiación solar	119
14737	7	Sololá	701	Sololá	3	Barraneche	3	Marzo	2023-03-18T00:00:00	2024-11-06T18:00:00	2	Temperatura media	14.1
14738	7	Sololá	701	Sololá	3	Barraneche	3	Marzo	2023-03-18T00:00:00	2024-11-06T18:00:00	4	Temperatura máxima	14.7
14739	7	Sololá	701	Sololá	3	Barraneche	3	Marzo	2023-03-18T00:00:00	2024-11-06T18:00:00	3	Temperatura mínima	14.1
14740	7	Sololá	701	Sololá	3	Barraneche	3	Marzo	2023-03-18T00:00:00	2024-11-06T18:00:00	5	Humedad	71
14741	7	Sololá	701	Sololá	3	Barraneche	3	Marzo	2023-03-18T00:00:00	2024-11-06T18:00:00	6	Velocidad del viento	6.4
14742	7	Sololá	701	Sololá	3	Barraneche	3	Marzo	2023-03-18T00:00:00	2024-11-06T18:00:00	7	Dirección del viento	6.44
14743	7	Sololá	701	Sololá	3	Barraneche	3	Marzo	2023-03-18T00:00:00	2024-11-06T18:00:00	1	Precipitación	0
14744	7	Sololá	701	Sololá	3	Barraneche	3	Marzo	2023-03-18T00:00:00	2024-11-06T18:00:00	8	Radiación solar	107
14745	7	Sololá	701	Sololá	3	Barraneche	3	Marzo	2023-03-18T00:00:00	2024-11-06T19:00:00	2	Temperatura media	13.4
14746	7	Sololá	701	Sololá	3	Barraneche	3	Marzo	2023-03-18T00:00:00	2024-11-06T19:00:00	4	Temperatura máxima	14.2
14747	7	Sololá	701	Sololá	3	Barraneche	3	Marzo	2023-03-18T00:00:00	2024-11-06T19:00:00	3	Temperatura mínima	13.4
14748	7	Sololá	701	Sololá	3	Barraneche	3	Marzo	2023-03-18T00:00:00	2024-11-06T19:00:00	5	Humedad	73
14749	7	Sololá	701	Sololá	3	Barraneche	3	Marzo	2023-03-18T00:00:00	2024-11-06T19:00:00	6	Velocidad del viento	3.2
14750	7	Sololá	701	Sololá	3	Barraneche	3	Marzo	2023-03-18T00:00:00	2024-11-06T19:00:00	7	Dirección del viento	3.22
14751	7	Sololá	701	Sololá	3	Barraneche	3	Marzo	2023-03-18T00:00:00	2024-11-06T19:00:00	1	Precipitación	0
14752	7	Sololá	701	Sololá	3	Barraneche	3	Marzo	2023-03-18T00:00:00	2024-11-06T19:00:00	8	Radiación solar	0
14753	7	Sololá	701	Sololá	3	Barraneche	3	Marzo	2023-03-18T00:00:00	2024-11-06T20:00:00	2	Temperatura media	13.1
14754	7	Sololá	701	Sololá	3	Barraneche	3	Marzo	2023-03-18T00:00:00	2024-11-06T20:00:00	4	Temperatura máxima	13.4
14755	7	Sololá	701	Sololá	3	Barraneche	3	Marzo	2023-03-18T00:00:00	2024-11-06T20:00:00	3	Temperatura mínima	13.1
14756	7	Sololá	701	Sololá	3	Barraneche	3	Marzo	2023-03-18T00:00:00	2024-11-06T20:00:00	5	Humedad	71
14757	7	Sololá	701	Sololá	3	Barraneche	3	Marzo	2023-03-18T00:00:00	2024-11-06T20:00:00	6	Velocidad del viento	3.2
14758	7	Sololá	701	Sololá	3	Barraneche	3	Marzo	2023-03-18T00:00:00	2024-11-06T20:00:00	7	Dirección del viento	3.22
14759	7	Sololá	701	Sololá	3	Barraneche	3	Marzo	2023-03-18T00:00:00	2024-11-06T20:00:00	1	Precipitación	0
14760	7	Sololá	701	Sololá	3	Barraneche	3	Marzo	2023-03-18T00:00:00	2024-11-06T20:00:00	8	Radiación solar	0
14761	7	Sololá	701	Sololá	3	Barraneche	3	Marzo	2023-03-18T00:00:00	2024-11-06T21:00:00	2	Temperatura media	11.9
14762	7	Sololá	701	Sololá	3	Barraneche	3	Marzo	2023-03-18T00:00:00	2024-11-06T21:00:00	4	Temperatura máxima	13.1
14763	7	Sololá	701	Sololá	3	Barraneche	3	Marzo	2023-03-18T00:00:00	2024-11-06T21:00:00	3	Temperatura mínima	11.9
14764	7	Sololá	701	Sololá	3	Barraneche	3	Marzo	2023-03-18T00:00:00	2024-11-06T21:00:00	5	Humedad	74
14765	7	Sololá	701	Sololá	3	Barraneche	3	Marzo	2023-03-18T00:00:00	2024-11-06T21:00:00	6	Velocidad del viento	3.2
14766	7	Sololá	701	Sololá	3	Barraneche	3	Marzo	2023-03-18T00:00:00	2024-11-06T21:00:00	7	Dirección del viento	3.22
14767	7	Sololá	701	Sololá	3	Barraneche	3	Marzo	2023-03-18T00:00:00	2024-11-06T21:00:00	1	Precipitación	0
14768	7	Sololá	701	Sololá	3	Barraneche	3	Marzo	2023-03-18T00:00:00	2024-11-06T21:00:00	8	Radiación solar	0
14769	7	Sololá	701	Sololá	3	Barraneche	3	Marzo	2023-03-18T00:00:00	2024-11-06T22:00:00	2	Temperatura media	11.5
14770	7	Sololá	701	Sololá	3	Barraneche	3	Marzo	2023-03-18T00:00:00	2024-11-06T22:00:00	4	Temperatura máxima	11.9
14771	7	Sololá	701	Sololá	3	Barraneche	3	Marzo	2023-03-18T00:00:00	2024-11-06T22:00:00	3	Temperatura mínima	11.5
14772	7	Sololá	701	Sololá	3	Barraneche	3	Marzo	2023-03-18T00:00:00	2024-11-06T22:00:00	5	Humedad	70
14773	7	Sololá	701	Sololá	3	Barraneche	3	Marzo	2023-03-18T00:00:00	2024-11-06T22:00:00	6	Velocidad del viento	4.8
14774	7	Sololá	701	Sololá	3	Barraneche	3	Marzo	2023-03-18T00:00:00	2024-11-06T22:00:00	7	Dirección del viento	4.83
14775	7	Sololá	701	Sololá	3	Barraneche	3	Marzo	2023-03-18T00:00:00	2024-11-06T22:00:00	1	Precipitación	0
14776	7	Sololá	701	Sololá	3	Barraneche	3	Marzo	2023-03-18T00:00:00	2024-11-06T22:00:00	8	Radiación solar	0
14777	7	Sololá	701	Sololá	3	Barraneche	3	Marzo	2023-03-18T00:00:00	2024-11-06T23:00:00	2	Temperatura media	11.8
14778	7	Sololá	701	Sololá	3	Barraneche	3	Marzo	2023-03-18T00:00:00	2024-11-06T23:00:00	4	Temperatura máxima	11.8
14779	7	Sololá	701	Sololá	3	Barraneche	3	Marzo	2023-03-18T00:00:00	2024-11-06T23:00:00	3	Temperatura mínima	11.2
14780	7	Sololá	701	Sololá	3	Barraneche	3	Marzo	2023-03-18T00:00:00	2024-11-06T23:00:00	5	Humedad	70
14781	7	Sololá	701	Sololá	3	Barraneche	3	Marzo	2023-03-18T00:00:00	2024-11-06T23:00:00	6	Velocidad del viento	3.2
14782	7	Sololá	701	Sololá	3	Barraneche	3	Marzo	2023-03-18T00:00:00	2024-11-06T23:00:00	7	Dirección del viento	3.22
14783	7	Sololá	701	Sololá	3	Barraneche	3	Marzo	2023-03-18T00:00:00	2024-11-06T23:00:00	1	Precipitación	0
14784	7	Sololá	701	Sololá	3	Barraneche	3	Marzo	2023-03-18T00:00:00	2024-11-06T23:00:00	8	Radiación solar	0
14785	7	Sololá	701	Sololá	3	Barraneche	3	Marzo	2023-03-19T00:00:00	2024-11-06T00:00:00	2	Temperatura media	11.3
14786	7	Sololá	701	Sololá	3	Barraneche	3	Marzo	2023-03-19T00:00:00	2024-11-06T00:00:00	4	Temperatura máxima	11.8
14787	7	Sololá	701	Sololá	3	Barraneche	3	Marzo	2023-03-19T00:00:00	2024-11-06T00:00:00	3	Temperatura mínima	11.3
14788	7	Sololá	701	Sololá	3	Barraneche	3	Marzo	2023-03-19T00:00:00	2024-11-06T00:00:00	5	Humedad	72
14789	7	Sololá	701	Sololá	3	Barraneche	3	Marzo	2023-03-19T00:00:00	2024-11-06T00:00:00	6	Velocidad del viento	3.2
14790	7	Sololá	701	Sololá	3	Barraneche	3	Marzo	2023-03-19T00:00:00	2024-11-06T00:00:00	7	Dirección del viento	3.22
14791	7	Sololá	701	Sololá	3	Barraneche	3	Marzo	2023-03-19T00:00:00	2024-11-06T00:00:00	1	Precipitación	0
14792	7	Sololá	701	Sololá	3	Barraneche	3	Marzo	2023-03-19T00:00:00	2024-11-06T00:00:00	8	Radiación solar	0
14793	7	Sololá	701	Sololá	3	Barraneche	3	Marzo	2023-03-19T00:00:00	2024-11-06T01:00:00	2	Temperatura media	11.1
14794	7	Sololá	701	Sololá	3	Barraneche	3	Marzo	2023-03-19T00:00:00	2024-11-06T01:00:00	4	Temperatura máxima	11.6
14795	7	Sololá	701	Sololá	3	Barraneche	3	Marzo	2023-03-19T00:00:00	2024-11-06T01:00:00	3	Temperatura mínima	11.1
14796	7	Sololá	701	Sololá	3	Barraneche	3	Marzo	2023-03-19T00:00:00	2024-11-06T01:00:00	5	Humedad	71
14797	7	Sololá	701	Sololá	3	Barraneche	3	Marzo	2023-03-19T00:00:00	2024-11-06T01:00:00	6	Velocidad del viento	3.2
14798	7	Sololá	701	Sololá	3	Barraneche	3	Marzo	2023-03-19T00:00:00	2024-11-06T01:00:00	7	Dirección del viento	3.22
14799	7	Sololá	701	Sololá	3	Barraneche	3	Marzo	2023-03-19T00:00:00	2024-11-06T01:00:00	1	Precipitación	0
14800	7	Sololá	701	Sololá	3	Barraneche	3	Marzo	2023-03-19T00:00:00	2024-11-06T01:00:00	8	Radiación solar	0
14801	7	Sololá	701	Sololá	3	Barraneche	3	Marzo	2023-03-19T00:00:00	2024-11-06T02:00:00	2	Temperatura media	11.8
14802	7	Sololá	701	Sololá	3	Barraneche	3	Marzo	2023-03-19T00:00:00	2024-11-06T02:00:00	4	Temperatura máxima	11.8
14803	7	Sololá	701	Sololá	3	Barraneche	3	Marzo	2023-03-19T00:00:00	2024-11-06T02:00:00	3	Temperatura mínima	10.9
14804	7	Sololá	701	Sololá	3	Barraneche	3	Marzo	2023-03-19T00:00:00	2024-11-06T02:00:00	5	Humedad	70
14805	7	Sololá	701	Sololá	3	Barraneche	3	Marzo	2023-03-19T00:00:00	2024-11-06T02:00:00	6	Velocidad del viento	3.2
14806	7	Sololá	701	Sololá	3	Barraneche	3	Marzo	2023-03-19T00:00:00	2024-11-06T02:00:00	7	Dirección del viento	3.22
14807	7	Sololá	701	Sololá	3	Barraneche	3	Marzo	2023-03-19T00:00:00	2024-11-06T02:00:00	1	Precipitación	0
14808	7	Sololá	701	Sololá	3	Barraneche	3	Marzo	2023-03-19T00:00:00	2024-11-06T02:00:00	8	Radiación solar	0
14809	7	Sololá	701	Sololá	3	Barraneche	3	Marzo	2023-03-19T00:00:00	2024-11-06T03:00:00	2	Temperatura media	11.7
14810	7	Sololá	701	Sololá	3	Barraneche	3	Marzo	2023-03-19T00:00:00	2024-11-06T03:00:00	4	Temperatura máxima	11.8
14811	7	Sololá	701	Sololá	3	Barraneche	3	Marzo	2023-03-19T00:00:00	2024-11-06T03:00:00	3	Temperatura mínima	11.7
14812	7	Sololá	701	Sololá	3	Barraneche	3	Marzo	2023-03-19T00:00:00	2024-11-06T03:00:00	5	Humedad	72
14813	7	Sololá	701	Sololá	3	Barraneche	3	Marzo	2023-03-19T00:00:00	2024-11-06T03:00:00	6	Velocidad del viento	1.6
14814	7	Sololá	701	Sololá	3	Barraneche	3	Marzo	2023-03-19T00:00:00	2024-11-06T03:00:00	7	Dirección del viento	1.61
14815	7	Sololá	701	Sololá	3	Barraneche	3	Marzo	2023-03-19T00:00:00	2024-11-06T03:00:00	1	Precipitación	0
14816	7	Sololá	701	Sololá	3	Barraneche	3	Marzo	2023-03-19T00:00:00	2024-11-06T03:00:00	8	Radiación solar	0
14817	7	Sololá	701	Sololá	3	Barraneche	3	Marzo	2023-03-19T00:00:00	2024-11-06T04:00:00	2	Temperatura media	11.6
14818	7	Sololá	701	Sololá	3	Barraneche	3	Marzo	2023-03-19T00:00:00	2024-11-06T04:00:00	4	Temperatura máxima	11.7
14819	7	Sololá	701	Sololá	3	Barraneche	3	Marzo	2023-03-19T00:00:00	2024-11-06T04:00:00	3	Temperatura mínima	11.3
14820	7	Sololá	701	Sololá	3	Barraneche	3	Marzo	2023-03-19T00:00:00	2024-11-06T04:00:00	5	Humedad	71
14821	7	Sololá	701	Sololá	3	Barraneche	3	Marzo	2023-03-19T00:00:00	2024-11-06T04:00:00	6	Velocidad del viento	3.2
14822	7	Sololá	701	Sololá	3	Barraneche	3	Marzo	2023-03-19T00:00:00	2024-11-06T04:00:00	7	Dirección del viento	3.22
14823	7	Sololá	701	Sololá	3	Barraneche	3	Marzo	2023-03-19T00:00:00	2024-11-06T04:00:00	1	Precipitación	0
14824	7	Sololá	701	Sololá	3	Barraneche	3	Marzo	2023-03-19T00:00:00	2024-11-06T04:00:00	8	Radiación solar	0
14825	7	Sololá	701	Sololá	3	Barraneche	3	Marzo	2023-03-19T00:00:00	2024-11-06T05:00:00	2	Temperatura media	11.7
14826	7	Sololá	701	Sololá	3	Barraneche	3	Marzo	2023-03-19T00:00:00	2024-11-06T05:00:00	4	Temperatura máxima	11.7
14827	7	Sololá	701	Sololá	3	Barraneche	3	Marzo	2023-03-19T00:00:00	2024-11-06T05:00:00	3	Temperatura mínima	11.2
14828	7	Sololá	701	Sololá	3	Barraneche	3	Marzo	2023-03-19T00:00:00	2024-11-06T05:00:00	5	Humedad	70
14829	7	Sololá	701	Sololá	3	Barraneche	3	Marzo	2023-03-19T00:00:00	2024-11-06T05:00:00	6	Velocidad del viento	4.8
14830	7	Sololá	701	Sololá	3	Barraneche	3	Marzo	2023-03-19T00:00:00	2024-11-06T05:00:00	7	Dirección del viento	4.83
14831	7	Sololá	701	Sololá	3	Barraneche	3	Marzo	2023-03-19T00:00:00	2024-11-06T05:00:00	1	Precipitación	0
14832	7	Sololá	701	Sololá	3	Barraneche	3	Marzo	2023-03-19T00:00:00	2024-11-06T05:00:00	8	Radiación solar	0
14833	7	Sololá	701	Sololá	3	Barraneche	3	Marzo	2023-03-19T00:00:00	2024-11-06T06:00:00	2	Temperatura media	10.6
14834	7	Sololá	701	Sololá	3	Barraneche	3	Marzo	2023-03-19T00:00:00	2024-11-06T06:00:00	4	Temperatura máxima	11.7
14835	7	Sololá	701	Sololá	3	Barraneche	3	Marzo	2023-03-19T00:00:00	2024-11-06T06:00:00	3	Temperatura mínima	10.6
14836	7	Sololá	701	Sololá	3	Barraneche	3	Marzo	2023-03-19T00:00:00	2024-11-06T06:00:00	5	Humedad	68
14837	7	Sololá	701	Sololá	3	Barraneche	3	Marzo	2023-03-19T00:00:00	2024-11-06T06:00:00	6	Velocidad del viento	4.8
14838	7	Sololá	701	Sololá	3	Barraneche	3	Marzo	2023-03-19T00:00:00	2024-11-06T06:00:00	7	Dirección del viento	4.83
14839	7	Sololá	701	Sololá	3	Barraneche	3	Marzo	2023-03-19T00:00:00	2024-11-06T06:00:00	1	Precipitación	0
14840	7	Sololá	701	Sololá	3	Barraneche	3	Marzo	2023-03-19T00:00:00	2024-11-06T06:00:00	8	Radiación solar	0
14841	7	Sololá	701	Sololá	3	Barraneche	3	Marzo	2023-03-19T00:00:00	2024-11-06T07:00:00	2	Temperatura media	11
14842	7	Sololá	701	Sololá	3	Barraneche	3	Marzo	2023-03-19T00:00:00	2024-11-06T07:00:00	4	Temperatura máxima	11
14843	7	Sololá	701	Sololá	3	Barraneche	3	Marzo	2023-03-19T00:00:00	2024-11-06T07:00:00	3	Temperatura mínima	10
14844	7	Sololá	701	Sololá	3	Barraneche	3	Marzo	2023-03-19T00:00:00	2024-11-06T07:00:00	5	Humedad	66
14845	7	Sololá	701	Sololá	3	Barraneche	3	Marzo	2023-03-19T00:00:00	2024-11-06T07:00:00	6	Velocidad del viento	6.4
14846	7	Sololá	701	Sololá	3	Barraneche	3	Marzo	2023-03-19T00:00:00	2024-11-06T07:00:00	7	Dirección del viento	6.44
14847	7	Sololá	701	Sololá	3	Barraneche	3	Marzo	2023-03-19T00:00:00	2024-11-06T07:00:00	1	Precipitación	0
14848	7	Sololá	701	Sololá	3	Barraneche	3	Marzo	2023-03-19T00:00:00	2024-11-06T07:00:00	8	Radiación solar	18
14849	7	Sololá	701	Sololá	3	Barraneche	3	Marzo	2023-03-19T00:00:00	2024-11-06T08:00:00	2	Temperatura media	14.9
14850	7	Sololá	701	Sololá	3	Barraneche	3	Marzo	2023-03-19T00:00:00	2024-11-06T08:00:00	4	Temperatura máxima	14.9
14851	7	Sololá	701	Sololá	3	Barraneche	3	Marzo	2023-03-19T00:00:00	2024-11-06T08:00:00	3	Temperatura mínima	11
14852	7	Sololá	701	Sololá	3	Barraneche	3	Marzo	2023-03-19T00:00:00	2024-11-06T08:00:00	5	Humedad	58
14853	7	Sololá	701	Sololá	3	Barraneche	3	Marzo	2023-03-19T00:00:00	2024-11-06T08:00:00	6	Velocidad del viento	3.2
14854	7	Sololá	701	Sololá	3	Barraneche	3	Marzo	2023-03-19T00:00:00	2024-11-06T08:00:00	7	Dirección del viento	3.22
14855	7	Sololá	701	Sololá	3	Barraneche	3	Marzo	2023-03-19T00:00:00	2024-11-06T08:00:00	1	Precipitación	0
14856	7	Sololá	701	Sololá	3	Barraneche	3	Marzo	2023-03-19T00:00:00	2024-11-06T08:00:00	8	Radiación solar	268
14857	7	Sololá	701	Sololá	3	Barraneche	3	Marzo	2023-03-19T00:00:00	2024-11-06T09:00:00	2	Temperatura media	16.6
14858	7	Sololá	701	Sololá	3	Barraneche	3	Marzo	2023-03-19T00:00:00	2024-11-06T09:00:00	4	Temperatura máxima	16.7
14859	7	Sololá	701	Sololá	3	Barraneche	3	Marzo	2023-03-19T00:00:00	2024-11-06T09:00:00	3	Temperatura mínima	14.9
14860	7	Sololá	701	Sololá	3	Barraneche	3	Marzo	2023-03-19T00:00:00	2024-11-06T09:00:00	5	Humedad	57
14861	7	Sololá	701	Sololá	3	Barraneche	3	Marzo	2023-03-19T00:00:00	2024-11-06T09:00:00	6	Velocidad del viento	6.4
14862	7	Sololá	701	Sololá	3	Barraneche	3	Marzo	2023-03-19T00:00:00	2024-11-06T09:00:00	7	Dirección del viento	6.44
14863	7	Sololá	701	Sololá	3	Barraneche	3	Marzo	2023-03-19T00:00:00	2024-11-06T09:00:00	1	Precipitación	0
14864	7	Sololá	701	Sololá	3	Barraneche	3	Marzo	2023-03-19T00:00:00	2024-11-06T09:00:00	8	Radiación solar	528
14865	7	Sololá	701	Sololá	3	Barraneche	3	Marzo	2023-03-19T00:00:00	2024-11-06T10:00:00	2	Temperatura media	16.8
14866	7	Sololá	701	Sololá	3	Barraneche	3	Marzo	2023-03-19T00:00:00	2024-11-06T10:00:00	4	Temperatura máxima	16.9
14867	7	Sololá	701	Sololá	3	Barraneche	3	Marzo	2023-03-19T00:00:00	2024-11-06T10:00:00	3	Temperatura mínima	16.1
14868	7	Sololá	701	Sololá	3	Barraneche	3	Marzo	2023-03-19T00:00:00	2024-11-06T10:00:00	5	Humedad	62
14869	7	Sololá	701	Sololá	3	Barraneche	3	Marzo	2023-03-19T00:00:00	2024-11-06T10:00:00	6	Velocidad del viento	11.3
14870	7	Sololá	701	Sololá	3	Barraneche	3	Marzo	2023-03-19T00:00:00	2024-11-06T10:00:00	7	Dirección del viento	11.27
14871	7	Sololá	701	Sololá	3	Barraneche	3	Marzo	2023-03-19T00:00:00	2024-11-06T10:00:00	1	Precipitación	0
14872	7	Sololá	701	Sololá	3	Barraneche	3	Marzo	2023-03-19T00:00:00	2024-11-06T10:00:00	8	Radiación solar	551
14873	7	Sololá	701	Sololá	3	Barraneche	3	Marzo	2023-03-19T00:00:00	2024-11-06T11:00:00	2	Temperatura media	16.8
14874	7	Sololá	701	Sololá	3	Barraneche	3	Marzo	2023-03-19T00:00:00	2024-11-06T11:00:00	4	Temperatura máxima	17.2
14875	7	Sololá	701	Sololá	3	Barraneche	3	Marzo	2023-03-19T00:00:00	2024-11-06T11:00:00	3	Temperatura mínima	16
14876	7	Sololá	701	Sololá	3	Barraneche	3	Marzo	2023-03-19T00:00:00	2024-11-06T11:00:00	5	Humedad	57
14877	7	Sololá	701	Sololá	3	Barraneche	3	Marzo	2023-03-19T00:00:00	2024-11-06T11:00:00	6	Velocidad del viento	9.7
14878	7	Sololá	701	Sololá	3	Barraneche	3	Marzo	2023-03-19T00:00:00	2024-11-06T11:00:00	7	Dirección del viento	9.66
14879	7	Sololá	701	Sololá	3	Barraneche	3	Marzo	2023-03-19T00:00:00	2024-11-06T11:00:00	1	Precipitación	0
14880	7	Sololá	701	Sololá	3	Barraneche	3	Marzo	2023-03-19T00:00:00	2024-11-06T11:00:00	8	Radiación solar	384
14881	7	Sololá	701	Sololá	3	Barraneche	3	Marzo	2023-03-19T00:00:00	2024-11-06T12:00:00	2	Temperatura media	15.8
14882	7	Sololá	701	Sololá	3	Barraneche	3	Marzo	2023-03-19T00:00:00	2024-11-06T12:00:00	4	Temperatura máxima	17.1
14883	7	Sololá	701	Sololá	3	Barraneche	3	Marzo	2023-03-19T00:00:00	2024-11-06T12:00:00	3	Temperatura mínima	15.8
14884	7	Sololá	701	Sololá	3	Barraneche	3	Marzo	2023-03-19T00:00:00	2024-11-06T12:00:00	5	Humedad	58
14885	7	Sololá	701	Sololá	3	Barraneche	3	Marzo	2023-03-19T00:00:00	2024-11-06T12:00:00	6	Velocidad del viento	9.7
14886	7	Sololá	701	Sololá	3	Barraneche	3	Marzo	2023-03-19T00:00:00	2024-11-06T12:00:00	7	Dirección del viento	9.66
14887	7	Sololá	701	Sololá	3	Barraneche	3	Marzo	2023-03-19T00:00:00	2024-11-06T12:00:00	1	Precipitación	0
14888	7	Sololá	701	Sololá	3	Barraneche	3	Marzo	2023-03-19T00:00:00	2024-11-06T12:00:00	8	Radiación solar	228
14889	7	Sololá	701	Sololá	3	Barraneche	3	Marzo	2023-03-19T00:00:00	2024-11-06T13:00:00	2	Temperatura media	15.4
14890	7	Sololá	701	Sololá	3	Barraneche	3	Marzo	2023-03-19T00:00:00	2024-11-06T13:00:00	4	Temperatura máxima	16.2
14891	7	Sololá	701	Sololá	3	Barraneche	3	Marzo	2023-03-19T00:00:00	2024-11-06T13:00:00	3	Temperatura mínima	15.4
14892	7	Sololá	701	Sololá	3	Barraneche	3	Marzo	2023-03-19T00:00:00	2024-11-06T13:00:00	5	Humedad	68
14893	7	Sololá	701	Sololá	3	Barraneche	3	Marzo	2023-03-19T00:00:00	2024-11-06T13:00:00	6	Velocidad del viento	8
14894	7	Sololá	701	Sololá	3	Barraneche	3	Marzo	2023-03-19T00:00:00	2024-11-06T13:00:00	7	Dirección del viento	8.05
14895	7	Sololá	701	Sololá	3	Barraneche	3	Marzo	2023-03-19T00:00:00	2024-11-06T13:00:00	1	Precipitación	0
14896	7	Sololá	701	Sololá	3	Barraneche	3	Marzo	2023-03-19T00:00:00	2024-11-06T13:00:00	8	Radiación solar	203
14897	7	Sololá	701	Sololá	3	Barraneche	3	Marzo	2023-03-19T00:00:00	2024-11-06T14:00:00	2	Temperatura media	15.2
14898	7	Sololá	701	Sololá	3	Barraneche	3	Marzo	2023-03-19T00:00:00	2024-11-06T14:00:00	4	Temperatura máxima	15.4
14899	7	Sololá	701	Sololá	3	Barraneche	3	Marzo	2023-03-19T00:00:00	2024-11-06T14:00:00	3	Temperatura mínima	14.3
14900	7	Sololá	701	Sololá	3	Barraneche	3	Marzo	2023-03-19T00:00:00	2024-11-06T14:00:00	5	Humedad	70
14901	7	Sololá	701	Sololá	3	Barraneche	3	Marzo	2023-03-19T00:00:00	2024-11-06T14:00:00	6	Velocidad del viento	3.2
14902	7	Sololá	701	Sololá	3	Barraneche	3	Marzo	2023-03-19T00:00:00	2024-11-06T14:00:00	7	Dirección del viento	3.22
14903	7	Sololá	701	Sololá	3	Barraneche	3	Marzo	2023-03-19T00:00:00	2024-11-06T14:00:00	1	Precipitación	1.8
14904	7	Sololá	701	Sololá	3	Barraneche	3	Marzo	2023-03-19T00:00:00	2024-11-06T14:00:00	8	Radiación solar	181
14905	7	Sololá	701	Sololá	3	Barraneche	3	Marzo	2023-03-19T00:00:00	2024-11-06T15:00:00	2	Temperatura media	15
14906	7	Sololá	701	Sololá	3	Barraneche	3	Marzo	2023-03-19T00:00:00	2024-11-06T15:00:00	4	Temperatura máxima	15.4
14907	7	Sololá	701	Sololá	3	Barraneche	3	Marzo	2023-03-19T00:00:00	2024-11-06T15:00:00	3	Temperatura mínima	15
14908	7	Sololá	701	Sololá	3	Barraneche	3	Marzo	2023-03-19T00:00:00	2024-11-06T15:00:00	5	Humedad	68
14909	7	Sololá	701	Sololá	3	Barraneche	3	Marzo	2023-03-19T00:00:00	2024-11-06T15:00:00	6	Velocidad del viento	3.2
14910	7	Sololá	701	Sololá	3	Barraneche	3	Marzo	2023-03-19T00:00:00	2024-11-06T15:00:00	7	Dirección del viento	3.22
14911	7	Sololá	701	Sololá	3	Barraneche	3	Marzo	2023-03-19T00:00:00	2024-11-06T15:00:00	1	Precipitación	0
14912	7	Sololá	701	Sololá	3	Barraneche	3	Marzo	2023-03-19T00:00:00	2024-11-06T15:00:00	8	Radiación solar	162
14913	7	Sololá	701	Sololá	3	Barraneche	3	Marzo	2023-03-19T00:00:00	2024-11-06T16:00:00	2	Temperatura media	14
14914	7	Sololá	701	Sololá	3	Barraneche	3	Marzo	2023-03-19T00:00:00	2024-11-06T16:00:00	4	Temperatura máxima	15
14915	7	Sololá	701	Sololá	3	Barraneche	3	Marzo	2023-03-19T00:00:00	2024-11-06T16:00:00	3	Temperatura mínima	14
14916	7	Sololá	701	Sololá	3	Barraneche	3	Marzo	2023-03-19T00:00:00	2024-11-06T16:00:00	5	Humedad	73
14917	7	Sololá	701	Sololá	3	Barraneche	3	Marzo	2023-03-19T00:00:00	2024-11-06T16:00:00	6	Velocidad del viento	3.2
14918	7	Sololá	701	Sololá	3	Barraneche	3	Marzo	2023-03-19T00:00:00	2024-11-06T16:00:00	7	Dirección del viento	3.22
14919	7	Sololá	701	Sololá	3	Barraneche	3	Marzo	2023-03-19T00:00:00	2024-11-06T16:00:00	1	Precipitación	1
14920	7	Sololá	701	Sololá	3	Barraneche	3	Marzo	2023-03-19T00:00:00	2024-11-06T16:00:00	8	Radiación solar	68
14921	7	Sololá	701	Sololá	3	Barraneche	3	Marzo	2023-03-19T00:00:00	2024-11-06T17:00:00	2	Temperatura media	13.7
14922	7	Sololá	701	Sololá	3	Barraneche	3	Marzo	2023-03-19T00:00:00	2024-11-06T17:00:00	4	Temperatura máxima	14.2
14923	7	Sololá	701	Sololá	3	Barraneche	3	Marzo	2023-03-19T00:00:00	2024-11-06T17:00:00	3	Temperatura mínima	13.7
14924	7	Sololá	701	Sololá	3	Barraneche	3	Marzo	2023-03-19T00:00:00	2024-11-06T17:00:00	5	Humedad	82
14925	7	Sololá	701	Sololá	3	Barraneche	3	Marzo	2023-03-19T00:00:00	2024-11-06T17:00:00	6	Velocidad del viento	3.2
14926	7	Sololá	701	Sololá	3	Barraneche	3	Marzo	2023-03-19T00:00:00	2024-11-06T17:00:00	7	Dirección del viento	3.22
14927	7	Sololá	701	Sololá	3	Barraneche	3	Marzo	2023-03-19T00:00:00	2024-11-06T17:00:00	1	Precipitación	0
14928	7	Sololá	701	Sololá	3	Barraneche	3	Marzo	2023-03-19T00:00:00	2024-11-06T17:00:00	8	Radiación solar	26
14929	7	Sololá	701	Sololá	3	Barraneche	3	Marzo	2023-03-19T00:00:00	2024-11-06T18:00:00	2	Temperatura media	13.1
14930	7	Sololá	701	Sololá	3	Barraneche	3	Marzo	2023-03-19T00:00:00	2024-11-06T18:00:00	4	Temperatura máxima	13.7
14931	7	Sololá	701	Sololá	3	Barraneche	3	Marzo	2023-03-19T00:00:00	2024-11-06T18:00:00	3	Temperatura mínima	13.1
14932	7	Sololá	701	Sololá	3	Barraneche	3	Marzo	2023-03-19T00:00:00	2024-11-06T18:00:00	5	Humedad	85
14933	7	Sololá	701	Sololá	3	Barraneche	3	Marzo	2023-03-19T00:00:00	2024-11-06T18:00:00	6	Velocidad del viento	4.8
14934	7	Sololá	701	Sololá	3	Barraneche	3	Marzo	2023-03-19T00:00:00	2024-11-06T18:00:00	7	Dirección del viento	4.83
14935	7	Sololá	701	Sololá	3	Barraneche	3	Marzo	2023-03-19T00:00:00	2024-11-06T18:00:00	1	Precipitación	0.4
14936	7	Sololá	701	Sololá	3	Barraneche	3	Marzo	2023-03-19T00:00:00	2024-11-06T18:00:00	8	Radiación solar	10
14937	7	Sololá	701	Sololá	3	Barraneche	3	Marzo	2023-03-19T00:00:00	2024-11-06T19:00:00	2	Temperatura media	12.8
14938	7	Sololá	701	Sololá	3	Barraneche	3	Marzo	2023-03-19T00:00:00	2024-11-06T19:00:00	4	Temperatura máxima	13.1
14939	7	Sololá	701	Sololá	3	Barraneche	3	Marzo	2023-03-19T00:00:00	2024-11-06T19:00:00	3	Temperatura mínima	12.8
14940	7	Sololá	701	Sololá	3	Barraneche	3	Marzo	2023-03-19T00:00:00	2024-11-06T19:00:00	5	Humedad	85
14941	7	Sololá	701	Sololá	3	Barraneche	3	Marzo	2023-03-19T00:00:00	2024-11-06T19:00:00	6	Velocidad del viento	1.6
14942	7	Sololá	701	Sololá	3	Barraneche	3	Marzo	2023-03-19T00:00:00	2024-11-06T19:00:00	7	Dirección del viento	1.61
14943	7	Sololá	701	Sololá	3	Barraneche	3	Marzo	2023-03-19T00:00:00	2024-11-06T19:00:00	1	Precipitación	0
14944	7	Sololá	701	Sololá	3	Barraneche	3	Marzo	2023-03-19T00:00:00	2024-11-06T19:00:00	8	Radiación solar	0
14945	7	Sololá	701	Sololá	3	Barraneche	3	Marzo	2023-03-19T00:00:00	2024-11-06T20:00:00	2	Temperatura media	12.3
14946	7	Sololá	701	Sololá	3	Barraneche	3	Marzo	2023-03-19T00:00:00	2024-11-06T20:00:00	4	Temperatura máxima	12.8
14947	7	Sololá	701	Sololá	3	Barraneche	3	Marzo	2023-03-19T00:00:00	2024-11-06T20:00:00	3	Temperatura mínima	12.3
14948	7	Sololá	701	Sololá	3	Barraneche	3	Marzo	2023-03-19T00:00:00	2024-11-06T20:00:00	5	Humedad	75
14949	7	Sololá	701	Sololá	3	Barraneche	3	Marzo	2023-03-19T00:00:00	2024-11-06T20:00:00	6	Velocidad del viento	4.8
14950	7	Sololá	701	Sololá	3	Barraneche	3	Marzo	2023-03-19T00:00:00	2024-11-06T20:00:00	7	Dirección del viento	4.83
14951	7	Sololá	701	Sololá	3	Barraneche	3	Marzo	2023-03-19T00:00:00	2024-11-06T20:00:00	1	Precipitación	0
14952	7	Sololá	701	Sololá	3	Barraneche	3	Marzo	2023-03-19T00:00:00	2024-11-06T20:00:00	8	Radiación solar	0
14953	7	Sololá	701	Sololá	3	Barraneche	3	Marzo	2023-03-19T00:00:00	2024-11-06T21:00:00	2	Temperatura media	11.6
14954	7	Sololá	701	Sololá	3	Barraneche	3	Marzo	2023-03-19T00:00:00	2024-11-06T21:00:00	4	Temperatura máxima	12.3
14955	7	Sololá	701	Sololá	3	Barraneche	3	Marzo	2023-03-19T00:00:00	2024-11-06T21:00:00	3	Temperatura mínima	11.5
14956	7	Sololá	701	Sololá	3	Barraneche	3	Marzo	2023-03-19T00:00:00	2024-11-06T21:00:00	5	Humedad	77
14957	7	Sololá	701	Sololá	3	Barraneche	3	Marzo	2023-03-19T00:00:00	2024-11-06T21:00:00	6	Velocidad del viento	3.2
14958	7	Sololá	701	Sololá	3	Barraneche	3	Marzo	2023-03-19T00:00:00	2024-11-06T21:00:00	7	Dirección del viento	3.22
14959	7	Sololá	701	Sololá	3	Barraneche	3	Marzo	2023-03-19T00:00:00	2024-11-06T21:00:00	1	Precipitación	0
14960	7	Sololá	701	Sololá	3	Barraneche	3	Marzo	2023-03-19T00:00:00	2024-11-06T21:00:00	8	Radiación solar	0
14961	7	Sololá	701	Sololá	3	Barraneche	3	Marzo	2023-03-19T00:00:00	2024-11-06T22:00:00	2	Temperatura media	13.1
14962	7	Sololá	701	Sololá	3	Barraneche	3	Marzo	2023-03-19T00:00:00	2024-11-06T22:00:00	4	Temperatura máxima	13.1
14963	7	Sololá	701	Sololá	3	Barraneche	3	Marzo	2023-03-19T00:00:00	2024-11-06T22:00:00	3	Temperatura mínima	11.5
14964	7	Sololá	701	Sololá	3	Barraneche	3	Marzo	2023-03-19T00:00:00	2024-11-06T22:00:00	5	Humedad	71
14965	7	Sololá	701	Sololá	3	Barraneche	3	Marzo	2023-03-19T00:00:00	2024-11-06T22:00:00	6	Velocidad del viento	6.4
14966	7	Sololá	701	Sololá	3	Barraneche	3	Marzo	2023-03-19T00:00:00	2024-11-06T22:00:00	7	Dirección del viento	6.44
14967	7	Sololá	701	Sololá	3	Barraneche	3	Marzo	2023-03-19T00:00:00	2024-11-06T22:00:00	1	Precipitación	0.2
14968	7	Sololá	701	Sololá	3	Barraneche	3	Marzo	2023-03-19T00:00:00	2024-11-06T22:00:00	8	Radiación solar	0
14969	7	Sololá	701	Sololá	3	Barraneche	3	Marzo	2023-03-19T00:00:00	2024-11-06T23:00:00	2	Temperatura media	12.9
14970	7	Sololá	701	Sololá	3	Barraneche	3	Marzo	2023-03-19T00:00:00	2024-11-06T23:00:00	4	Temperatura máxima	13.4
14971	7	Sololá	701	Sololá	3	Barraneche	3	Marzo	2023-03-19T00:00:00	2024-11-06T23:00:00	3	Temperatura mínima	12.9
14972	7	Sololá	701	Sololá	3	Barraneche	3	Marzo	2023-03-19T00:00:00	2024-11-06T23:00:00	5	Humedad	71
14973	7	Sololá	701	Sololá	3	Barraneche	3	Marzo	2023-03-19T00:00:00	2024-11-06T23:00:00	6	Velocidad del viento	16.1
14974	7	Sololá	701	Sololá	3	Barraneche	3	Marzo	2023-03-19T00:00:00	2024-11-06T23:00:00	7	Dirección del viento	16.09
14975	7	Sololá	701	Sololá	3	Barraneche	3	Marzo	2023-03-19T00:00:00	2024-11-06T23:00:00	1	Precipitación	0
14976	7	Sololá	701	Sololá	3	Barraneche	3	Marzo	2023-03-19T00:00:00	2024-11-06T23:00:00	8	Radiación solar	0
14977	7	Sololá	701	Sololá	3	Barraneche	3	Marzo	2023-03-20T00:00:00	2024-11-06T00:00:00	2	Temperatura media	13
14978	7	Sololá	701	Sololá	3	Barraneche	3	Marzo	2023-03-20T00:00:00	2024-11-06T00:00:00	4	Temperatura máxima	13.2
14979	7	Sololá	701	Sololá	3	Barraneche	3	Marzo	2023-03-20T00:00:00	2024-11-06T00:00:00	3	Temperatura mínima	12.8
14980	7	Sololá	701	Sololá	3	Barraneche	3	Marzo	2023-03-20T00:00:00	2024-11-06T00:00:00	5	Humedad	69
14981	7	Sololá	701	Sololá	3	Barraneche	3	Marzo	2023-03-20T00:00:00	2024-11-06T00:00:00	6	Velocidad del viento	12.9
14982	7	Sololá	701	Sololá	3	Barraneche	3	Marzo	2023-03-20T00:00:00	2024-11-06T00:00:00	7	Dirección del viento	12.87
14983	7	Sololá	701	Sololá	3	Barraneche	3	Marzo	2023-03-20T00:00:00	2024-11-06T00:00:00	1	Precipitación	0
14984	7	Sololá	701	Sololá	3	Barraneche	3	Marzo	2023-03-20T00:00:00	2024-11-06T00:00:00	8	Radiación solar	0
14985	7	Sololá	701	Sololá	3	Barraneche	3	Marzo	2023-03-20T00:00:00	2024-11-06T01:00:00	2	Temperatura media	12.2
14986	7	Sololá	701	Sololá	3	Barraneche	3	Marzo	2023-03-20T00:00:00	2024-11-06T01:00:00	4	Temperatura máxima	13.2
14987	7	Sololá	701	Sololá	3	Barraneche	3	Marzo	2023-03-20T00:00:00	2024-11-06T01:00:00	3	Temperatura mínima	11.6
14988	7	Sololá	701	Sololá	3	Barraneche	3	Marzo	2023-03-20T00:00:00	2024-11-06T01:00:00	5	Humedad	71
14989	7	Sololá	701	Sololá	3	Barraneche	3	Marzo	2023-03-20T00:00:00	2024-11-06T01:00:00	6	Velocidad del viento	6.4
14990	7	Sololá	701	Sololá	3	Barraneche	3	Marzo	2023-03-20T00:00:00	2024-11-06T01:00:00	7	Dirección del viento	6.44
14991	7	Sololá	701	Sololá	3	Barraneche	3	Marzo	2023-03-20T00:00:00	2024-11-06T01:00:00	1	Precipitación	0
14992	7	Sololá	701	Sololá	3	Barraneche	3	Marzo	2023-03-20T00:00:00	2024-11-06T01:00:00	8	Radiación solar	0
14993	7	Sololá	701	Sololá	3	Barraneche	3	Marzo	2023-03-20T00:00:00	2024-11-06T02:00:00	2	Temperatura media	12.6
14994	7	Sololá	701	Sololá	3	Barraneche	3	Marzo	2023-03-20T00:00:00	2024-11-06T02:00:00	4	Temperatura máxima	12.9
14995	7	Sololá	701	Sololá	3	Barraneche	3	Marzo	2023-03-20T00:00:00	2024-11-06T02:00:00	3	Temperatura mínima	12.3
14996	7	Sololá	701	Sololá	3	Barraneche	3	Marzo	2023-03-20T00:00:00	2024-11-06T02:00:00	5	Humedad	72
14997	7	Sololá	701	Sololá	3	Barraneche	3	Marzo	2023-03-20T00:00:00	2024-11-06T02:00:00	6	Velocidad del viento	14.5
14998	7	Sololá	701	Sololá	3	Barraneche	3	Marzo	2023-03-20T00:00:00	2024-11-06T02:00:00	7	Dirección del viento	14.48
14999	7	Sololá	701	Sololá	3	Barraneche	3	Marzo	2023-03-20T00:00:00	2024-11-06T02:00:00	1	Precipitación	0
15000	7	Sololá	701	Sololá	3	Barraneche	3	Marzo	2023-03-20T00:00:00	2024-11-06T02:00:00	8	Radiación solar	0
15001	7	Sololá	701	Sololá	3	Barraneche	3	Marzo	2023-03-20T00:00:00	2024-11-06T03:00:00	2	Temperatura media	12.4
15002	7	Sololá	701	Sololá	3	Barraneche	3	Marzo	2023-03-20T00:00:00	2024-11-06T03:00:00	4	Temperatura máxima	12.6
15003	7	Sololá	701	Sololá	3	Barraneche	3	Marzo	2023-03-20T00:00:00	2024-11-06T03:00:00	3	Temperatura mínima	12.2
15004	7	Sololá	701	Sololá	3	Barraneche	3	Marzo	2023-03-20T00:00:00	2024-11-06T03:00:00	5	Humedad	70
15005	7	Sololá	701	Sololá	3	Barraneche	3	Marzo	2023-03-20T00:00:00	2024-11-06T03:00:00	6	Velocidad del viento	14.5
15006	7	Sololá	701	Sololá	3	Barraneche	3	Marzo	2023-03-20T00:00:00	2024-11-06T03:00:00	7	Dirección del viento	14.48
15007	7	Sololá	701	Sololá	3	Barraneche	3	Marzo	2023-03-20T00:00:00	2024-11-06T03:00:00	1	Precipitación	0
15008	7	Sololá	701	Sololá	3	Barraneche	3	Marzo	2023-03-20T00:00:00	2024-11-06T03:00:00	8	Radiación solar	0
15009	7	Sololá	701	Sololá	3	Barraneche	3	Marzo	2023-03-20T00:00:00	2024-11-06T04:00:00	2	Temperatura media	12.7
15010	7	Sololá	701	Sololá	3	Barraneche	3	Marzo	2023-03-20T00:00:00	2024-11-06T04:00:00	4	Temperatura máxima	13.1
15011	7	Sololá	701	Sololá	3	Barraneche	3	Marzo	2023-03-20T00:00:00	2024-11-06T04:00:00	3	Temperatura mínima	12.2
15012	7	Sololá	701	Sololá	3	Barraneche	3	Marzo	2023-03-20T00:00:00	2024-11-06T04:00:00	5	Humedad	67
15013	7	Sololá	701	Sololá	3	Barraneche	3	Marzo	2023-03-20T00:00:00	2024-11-06T04:00:00	6	Velocidad del viento	20.9
15014	7	Sololá	701	Sololá	3	Barraneche	3	Marzo	2023-03-20T00:00:00	2024-11-06T04:00:00	7	Dirección del viento	20.92
15015	7	Sololá	701	Sololá	3	Barraneche	3	Marzo	2023-03-20T00:00:00	2024-11-06T04:00:00	1	Precipitación	0
15016	7	Sololá	701	Sololá	3	Barraneche	3	Marzo	2023-03-20T00:00:00	2024-11-06T04:00:00	8	Radiación solar	0
15017	7	Sololá	701	Sololá	3	Barraneche	3	Marzo	2023-03-20T00:00:00	2024-11-06T05:00:00	2	Temperatura media	12.6
15018	7	Sololá	701	Sololá	3	Barraneche	3	Marzo	2023-03-20T00:00:00	2024-11-06T05:00:00	4	Temperatura máxima	12.7
15019	7	Sololá	701	Sololá	3	Barraneche	3	Marzo	2023-03-20T00:00:00	2024-11-06T05:00:00	3	Temperatura mínima	12.4
15020	7	Sololá	701	Sololá	3	Barraneche	3	Marzo	2023-03-20T00:00:00	2024-11-06T05:00:00	5	Humedad	68
15021	7	Sololá	701	Sololá	3	Barraneche	3	Marzo	2023-03-20T00:00:00	2024-11-06T05:00:00	6	Velocidad del viento	27.4
15022	7	Sololá	701	Sololá	3	Barraneche	3	Marzo	2023-03-20T00:00:00	2024-11-06T05:00:00	7	Dirección del viento	27.36
15023	7	Sololá	701	Sololá	3	Barraneche	3	Marzo	2023-03-20T00:00:00	2024-11-06T05:00:00	1	Precipitación	0
15024	7	Sololá	701	Sololá	3	Barraneche	3	Marzo	2023-03-20T00:00:00	2024-11-06T05:00:00	8	Radiación solar	0
15025	7	Sololá	701	Sololá	3	Barraneche	3	Marzo	2023-03-20T00:00:00	2024-11-06T06:00:00	2	Temperatura media	12.4
15026	7	Sololá	701	Sololá	3	Barraneche	3	Marzo	2023-03-20T00:00:00	2024-11-06T06:00:00	4	Temperatura máxima	12.7
15027	7	Sololá	701	Sololá	3	Barraneche	3	Marzo	2023-03-20T00:00:00	2024-11-06T06:00:00	3	Temperatura mínima	12.3
15028	7	Sololá	701	Sololá	3	Barraneche	3	Marzo	2023-03-20T00:00:00	2024-11-06T06:00:00	5	Humedad	68
15029	7	Sololá	701	Sololá	3	Barraneche	3	Marzo	2023-03-20T00:00:00	2024-11-06T06:00:00	6	Velocidad del viento	27.4
15030	7	Sololá	701	Sololá	3	Barraneche	3	Marzo	2023-03-20T00:00:00	2024-11-06T06:00:00	7	Dirección del viento	27.36
15031	7	Sololá	701	Sololá	3	Barraneche	3	Marzo	2023-03-20T00:00:00	2024-11-06T06:00:00	1	Precipitación	0
15032	7	Sololá	701	Sololá	3	Barraneche	3	Marzo	2023-03-20T00:00:00	2024-11-06T06:00:00	8	Radiación solar	0
15033	7	Sololá	701	Sololá	3	Barraneche	3	Marzo	2023-03-20T00:00:00	2024-11-06T07:00:00	2	Temperatura media	12.8
15034	7	Sololá	701	Sololá	3	Barraneche	3	Marzo	2023-03-20T00:00:00	2024-11-06T07:00:00	4	Temperatura máxima	12.8
15035	7	Sololá	701	Sololá	3	Barraneche	3	Marzo	2023-03-20T00:00:00	2024-11-06T07:00:00	3	Temperatura mínima	12.2
15036	7	Sololá	701	Sololá	3	Barraneche	3	Marzo	2023-03-20T00:00:00	2024-11-06T07:00:00	5	Humedad	66
15037	7	Sololá	701	Sololá	3	Barraneche	3	Marzo	2023-03-20T00:00:00	2024-11-06T07:00:00	6	Velocidad del viento	27.4
15038	7	Sololá	701	Sololá	3	Barraneche	3	Marzo	2023-03-20T00:00:00	2024-11-06T07:00:00	7	Dirección del viento	27.36
15039	7	Sololá	701	Sololá	3	Barraneche	3	Marzo	2023-03-20T00:00:00	2024-11-06T07:00:00	1	Precipitación	0
15040	7	Sololá	701	Sololá	3	Barraneche	3	Marzo	2023-03-20T00:00:00	2024-11-06T07:00:00	8	Radiación solar	13
15041	7	Sololá	701	Sololá	3	Barraneche	3	Marzo	2023-03-20T00:00:00	2024-11-06T08:00:00	2	Temperatura media	12.9
15042	7	Sololá	701	Sololá	3	Barraneche	3	Marzo	2023-03-20T00:00:00	2024-11-06T08:00:00	4	Temperatura máxima	13.2
15043	7	Sololá	701	Sololá	3	Barraneche	3	Marzo	2023-03-20T00:00:00	2024-11-06T08:00:00	3	Temperatura mínima	12.8
15044	7	Sololá	701	Sololá	3	Barraneche	3	Marzo	2023-03-20T00:00:00	2024-11-06T08:00:00	5	Humedad	69
15045	7	Sololá	701	Sololá	3	Barraneche	3	Marzo	2023-03-20T00:00:00	2024-11-06T08:00:00	6	Velocidad del viento	33.8
15046	7	Sololá	701	Sololá	3	Barraneche	3	Marzo	2023-03-20T00:00:00	2024-11-06T08:00:00	7	Dirección del viento	33.8
15047	7	Sololá	701	Sololá	3	Barraneche	3	Marzo	2023-03-20T00:00:00	2024-11-06T08:00:00	1	Precipitación	0
15048	7	Sololá	701	Sololá	3	Barraneche	3	Marzo	2023-03-20T00:00:00	2024-11-06T08:00:00	8	Radiación solar	290
15049	7	Sololá	701	Sololá	3	Barraneche	3	Marzo	2023-03-20T00:00:00	2024-11-06T09:00:00	2	Temperatura media	14.1
15050	7	Sololá	701	Sololá	3	Barraneche	3	Marzo	2023-03-20T00:00:00	2024-11-06T09:00:00	4	Temperatura máxima	14.1
15051	7	Sololá	701	Sololá	3	Barraneche	3	Marzo	2023-03-20T00:00:00	2024-11-06T09:00:00	3	Temperatura mínima	12.8
15052	7	Sololá	701	Sololá	3	Barraneche	3	Marzo	2023-03-20T00:00:00	2024-11-06T09:00:00	5	Humedad	66
15053	7	Sololá	701	Sololá	3	Barraneche	3	Marzo	2023-03-20T00:00:00	2024-11-06T09:00:00	6	Velocidad del viento	30.6
15054	7	Sololá	701	Sololá	3	Barraneche	3	Marzo	2023-03-20T00:00:00	2024-11-06T09:00:00	7	Dirección del viento	30.58
15055	7	Sololá	701	Sololá	3	Barraneche	3	Marzo	2023-03-20T00:00:00	2024-11-06T09:00:00	1	Precipitación	0
15056	7	Sololá	701	Sololá	3	Barraneche	3	Marzo	2023-03-20T00:00:00	2024-11-06T09:00:00	8	Radiación solar	550
15057	7	Sololá	701	Sololá	3	Barraneche	3	Marzo	2023-03-20T00:00:00	2024-11-06T10:00:00	2	Temperatura media	15.1
15058	7	Sololá	701	Sololá	3	Barraneche	3	Marzo	2023-03-20T00:00:00	2024-11-06T10:00:00	4	Temperatura máxima	15.1
15059	7	Sololá	701	Sololá	3	Barraneche	3	Marzo	2023-03-20T00:00:00	2024-11-06T10:00:00	3	Temperatura mínima	13.9
15060	7	Sololá	701	Sololá	3	Barraneche	3	Marzo	2023-03-20T00:00:00	2024-11-06T10:00:00	5	Humedad	64
15061	7	Sololá	701	Sololá	3	Barraneche	3	Marzo	2023-03-20T00:00:00	2024-11-06T10:00:00	6	Velocidad del viento	29
15062	7	Sololá	701	Sololá	3	Barraneche	3	Marzo	2023-03-20T00:00:00	2024-11-06T10:00:00	7	Dirección del viento	28.97
15063	7	Sololá	701	Sololá	3	Barraneche	3	Marzo	2023-03-20T00:00:00	2024-11-06T10:00:00	1	Precipitación	0
15064	7	Sololá	701	Sololá	3	Barraneche	3	Marzo	2023-03-20T00:00:00	2024-11-06T10:00:00	8	Radiación solar	773
15065	7	Sololá	701	Sololá	3	Barraneche	3	Marzo	2023-03-20T00:00:00	2024-11-06T11:00:00	2	Temperatura media	16
15066	7	Sololá	701	Sololá	3	Barraneche	3	Marzo	2023-03-20T00:00:00	2024-11-06T11:00:00	4	Temperatura máxima	16
15067	7	Sololá	701	Sololá	3	Barraneche	3	Marzo	2023-03-20T00:00:00	2024-11-06T11:00:00	3	Temperatura mínima	14.6
15068	7	Sololá	701	Sololá	3	Barraneche	3	Marzo	2023-03-20T00:00:00	2024-11-06T11:00:00	5	Humedad	62
15069	7	Sololá	701	Sololá	3	Barraneche	3	Marzo	2023-03-20T00:00:00	2024-11-06T11:00:00	6	Velocidad del viento	25.7
15070	7	Sololá	701	Sololá	3	Barraneche	3	Marzo	2023-03-20T00:00:00	2024-11-06T11:00:00	7	Dirección del viento	25.75
15071	7	Sololá	701	Sololá	3	Barraneche	3	Marzo	2023-03-20T00:00:00	2024-11-06T11:00:00	1	Precipitación	0
15072	7	Sololá	701	Sololá	3	Barraneche	3	Marzo	2023-03-20T00:00:00	2024-11-06T11:00:00	8	Radiación solar	941
15073	7	Sololá	701	Sololá	3	Barraneche	3	Marzo	2023-03-20T00:00:00	2024-11-06T12:00:00	2	Temperatura media	17.4
15074	7	Sololá	701	Sololá	3	Barraneche	3	Marzo	2023-03-20T00:00:00	2024-11-06T12:00:00	4	Temperatura máxima	17.4
15075	7	Sololá	701	Sololá	3	Barraneche	3	Marzo	2023-03-20T00:00:00	2024-11-06T12:00:00	3	Temperatura mínima	16.1
15076	7	Sololá	701	Sololá	3	Barraneche	3	Marzo	2023-03-20T00:00:00	2024-11-06T12:00:00	5	Humedad	58
15077	7	Sololá	701	Sololá	3	Barraneche	3	Marzo	2023-03-20T00:00:00	2024-11-06T12:00:00	6	Velocidad del viento	19.3
15078	7	Sololá	701	Sololá	3	Barraneche	3	Marzo	2023-03-20T00:00:00	2024-11-06T12:00:00	7	Dirección del viento	19.31
15079	7	Sololá	701	Sololá	3	Barraneche	3	Marzo	2023-03-20T00:00:00	2024-11-06T12:00:00	1	Precipitación	0
15080	7	Sololá	701	Sololá	3	Barraneche	3	Marzo	2023-03-20T00:00:00	2024-11-06T12:00:00	8	Radiación solar	1033
15081	7	Sololá	701	Sololá	3	Barraneche	3	Marzo	2023-03-20T00:00:00	2024-11-06T13:00:00	2	Temperatura media	18.2
15082	7	Sololá	701	Sololá	3	Barraneche	3	Marzo	2023-03-20T00:00:00	2024-11-06T13:00:00	4	Temperatura máxima	18.5
15083	7	Sololá	701	Sololá	3	Barraneche	3	Marzo	2023-03-20T00:00:00	2024-11-06T13:00:00	3	Temperatura mínima	17.2
15084	7	Sololá	701	Sololá	3	Barraneche	3	Marzo	2023-03-20T00:00:00	2024-11-06T13:00:00	5	Humedad	55
15085	7	Sololá	701	Sololá	3	Barraneche	3	Marzo	2023-03-20T00:00:00	2024-11-06T13:00:00	6	Velocidad del viento	19.3
15086	7	Sololá	701	Sololá	3	Barraneche	3	Marzo	2023-03-20T00:00:00	2024-11-06T13:00:00	7	Dirección del viento	19.31
15087	7	Sololá	701	Sololá	3	Barraneche	3	Marzo	2023-03-20T00:00:00	2024-11-06T13:00:00	1	Precipitación	0
15088	7	Sololá	701	Sololá	3	Barraneche	3	Marzo	2023-03-20T00:00:00	2024-11-06T13:00:00	8	Radiación solar	1105
15089	7	Sololá	701	Sololá	3	Barraneche	3	Marzo	2023-03-20T00:00:00	2024-11-06T14:00:00	2	Temperatura media	17.7
15090	7	Sololá	701	Sololá	3	Barraneche	3	Marzo	2023-03-20T00:00:00	2024-11-06T14:00:00	4	Temperatura máxima	19
15091	7	Sololá	701	Sololá	3	Barraneche	3	Marzo	2023-03-20T00:00:00	2024-11-06T14:00:00	3	Temperatura mínima	16.8
15092	7	Sololá	701	Sololá	3	Barraneche	3	Marzo	2023-03-20T00:00:00	2024-11-06T14:00:00	5	Humedad	56
15093	7	Sololá	701	Sololá	3	Barraneche	3	Marzo	2023-03-20T00:00:00	2024-11-06T14:00:00	6	Velocidad del viento	22.5
15094	7	Sololá	701	Sololá	3	Barraneche	3	Marzo	2023-03-20T00:00:00	2024-11-06T14:00:00	7	Dirección del viento	22.53
15095	7	Sololá	701	Sololá	3	Barraneche	3	Marzo	2023-03-20T00:00:00	2024-11-06T14:00:00	1	Precipitación	0
15096	7	Sololá	701	Sololá	3	Barraneche	3	Marzo	2023-03-20T00:00:00	2024-11-06T14:00:00	8	Radiación solar	978
15097	7	Sololá	701	Sololá	3	Barraneche	3	Marzo	2023-03-20T00:00:00	2024-11-06T15:00:00	2	Temperatura media	17.7
15098	7	Sololá	701	Sololá	3	Barraneche	3	Marzo	2023-03-20T00:00:00	2024-11-06T15:00:00	4	Temperatura máxima	19.4
15099	7	Sololá	701	Sololá	3	Barraneche	3	Marzo	2023-03-20T00:00:00	2024-11-06T15:00:00	3	Temperatura mínima	17.2
15100	7	Sololá	701	Sololá	3	Barraneche	3	Marzo	2023-03-20T00:00:00	2024-11-06T15:00:00	5	Humedad	55
15101	7	Sololá	701	Sololá	3	Barraneche	3	Marzo	2023-03-20T00:00:00	2024-11-06T15:00:00	6	Velocidad del viento	17.7
15102	7	Sololá	701	Sololá	3	Barraneche	3	Marzo	2023-03-20T00:00:00	2024-11-06T15:00:00	7	Dirección del viento	17.7
15103	7	Sololá	701	Sololá	3	Barraneche	3	Marzo	2023-03-20T00:00:00	2024-11-06T15:00:00	1	Precipitación	0
15104	7	Sololá	701	Sololá	3	Barraneche	3	Marzo	2023-03-20T00:00:00	2024-11-06T15:00:00	8	Radiación solar	752
15105	7	Sololá	701	Sololá	3	Barraneche	3	Marzo	2023-03-20T00:00:00	2024-11-06T16:00:00	2	Temperatura media	15.4
15106	7	Sololá	701	Sololá	3	Barraneche	3	Marzo	2023-03-20T00:00:00	2024-11-06T16:00:00	4	Temperatura máxima	17.9
15107	7	Sololá	701	Sololá	3	Barraneche	3	Marzo	2023-03-20T00:00:00	2024-11-06T16:00:00	3	Temperatura mínima	15.4
15108	7	Sololá	701	Sololá	3	Barraneche	3	Marzo	2023-03-20T00:00:00	2024-11-06T16:00:00	5	Humedad	63
15109	7	Sololá	701	Sololá	3	Barraneche	3	Marzo	2023-03-20T00:00:00	2024-11-06T16:00:00	6	Velocidad del viento	19.3
15110	7	Sololá	701	Sololá	3	Barraneche	3	Marzo	2023-03-20T00:00:00	2024-11-06T16:00:00	7	Dirección del viento	19.31
15111	7	Sololá	701	Sololá	3	Barraneche	3	Marzo	2023-03-20T00:00:00	2024-11-06T16:00:00	1	Precipitación	0
15112	7	Sololá	701	Sololá	3	Barraneche	3	Marzo	2023-03-20T00:00:00	2024-11-06T16:00:00	8	Radiación solar	161
15113	7	Sololá	701	Sololá	3	Barraneche	3	Marzo	2023-03-20T00:00:00	2024-11-06T17:00:00	2	Temperatura media	14.4
15114	7	Sololá	701	Sololá	3	Barraneche	3	Marzo	2023-03-20T00:00:00	2024-11-06T17:00:00	4	Temperatura máxima	15.4
15115	7	Sololá	701	Sololá	3	Barraneche	3	Marzo	2023-03-20T00:00:00	2024-11-06T17:00:00	3	Temperatura mínima	14.4
15116	7	Sololá	701	Sololá	3	Barraneche	3	Marzo	2023-03-20T00:00:00	2024-11-06T17:00:00	5	Humedad	65
15117	7	Sololá	701	Sololá	3	Barraneche	3	Marzo	2023-03-20T00:00:00	2024-11-06T17:00:00	6	Velocidad del viento	12.9
15118	7	Sololá	701	Sololá	3	Barraneche	3	Marzo	2023-03-20T00:00:00	2024-11-06T17:00:00	7	Dirección del viento	12.87
15119	7	Sololá	701	Sololá	3	Barraneche	3	Marzo	2023-03-20T00:00:00	2024-11-06T17:00:00	1	Precipitación	0
15120	7	Sololá	701	Sololá	3	Barraneche	3	Marzo	2023-03-20T00:00:00	2024-11-06T17:00:00	8	Radiación solar	24
15121	7	Sololá	701	Sololá	3	Barraneche	3	Marzo	2023-03-20T00:00:00	2024-11-06T18:00:00	2	Temperatura media	14.2
15122	7	Sololá	701	Sololá	3	Barraneche	3	Marzo	2023-03-20T00:00:00	2024-11-06T18:00:00	4	Temperatura máxima	14.5
15123	7	Sololá	701	Sololá	3	Barraneche	3	Marzo	2023-03-20T00:00:00	2024-11-06T18:00:00	3	Temperatura mínima	14.2
15124	7	Sololá	701	Sololá	3	Barraneche	3	Marzo	2023-03-20T00:00:00	2024-11-06T18:00:00	5	Humedad	64
15125	7	Sololá	701	Sololá	3	Barraneche	3	Marzo	2023-03-20T00:00:00	2024-11-06T18:00:00	6	Velocidad del viento	9.7
15126	7	Sololá	701	Sololá	3	Barraneche	3	Marzo	2023-03-20T00:00:00	2024-11-06T18:00:00	7	Dirección del viento	9.66
15127	7	Sololá	701	Sololá	3	Barraneche	3	Marzo	2023-03-20T00:00:00	2024-11-06T18:00:00	1	Precipitación	0
15128	7	Sololá	701	Sololá	3	Barraneche	3	Marzo	2023-03-20T00:00:00	2024-11-06T18:00:00	8	Radiación solar	10
15129	7	Sololá	701	Sololá	3	Barraneche	3	Marzo	2023-03-20T00:00:00	2024-11-06T19:00:00	2	Temperatura media	13.4
15130	7	Sololá	701	Sololá	3	Barraneche	3	Marzo	2023-03-20T00:00:00	2024-11-06T19:00:00	4	Temperatura máxima	14.2
15131	7	Sololá	701	Sololá	3	Barraneche	3	Marzo	2023-03-20T00:00:00	2024-11-06T19:00:00	3	Temperatura mínima	13.4
15132	7	Sololá	701	Sololá	3	Barraneche	3	Marzo	2023-03-20T00:00:00	2024-11-06T19:00:00	5	Humedad	65
15133	7	Sololá	701	Sololá	3	Barraneche	3	Marzo	2023-03-20T00:00:00	2024-11-06T19:00:00	6	Velocidad del viento	11.3
15134	7	Sololá	701	Sololá	3	Barraneche	3	Marzo	2023-03-20T00:00:00	2024-11-06T19:00:00	7	Dirección del viento	11.27
15135	7	Sololá	701	Sololá	3	Barraneche	3	Marzo	2023-03-20T00:00:00	2024-11-06T19:00:00	1	Precipitación	0
15136	7	Sololá	701	Sololá	3	Barraneche	3	Marzo	2023-03-20T00:00:00	2024-11-06T19:00:00	8	Radiación solar	0
15137	7	Sololá	701	Sololá	3	Barraneche	3	Marzo	2023-03-20T00:00:00	2024-11-06T20:00:00	2	Temperatura media	12.9
15138	7	Sololá	701	Sololá	3	Barraneche	3	Marzo	2023-03-20T00:00:00	2024-11-06T20:00:00	4	Temperatura máxima	13.6
15139	7	Sololá	701	Sololá	3	Barraneche	3	Marzo	2023-03-20T00:00:00	2024-11-06T20:00:00	3	Temperatura mínima	12.9
15140	7	Sololá	701	Sololá	3	Barraneche	3	Marzo	2023-03-20T00:00:00	2024-11-06T20:00:00	5	Humedad	67
15141	7	Sololá	701	Sololá	3	Barraneche	3	Marzo	2023-03-20T00:00:00	2024-11-06T20:00:00	6	Velocidad del viento	11.3
15142	7	Sololá	701	Sololá	3	Barraneche	3	Marzo	2023-03-20T00:00:00	2024-11-06T20:00:00	7	Dirección del viento	11.27
15143	7	Sololá	701	Sololá	3	Barraneche	3	Marzo	2023-03-20T00:00:00	2024-11-06T20:00:00	1	Precipitación	0
15144	7	Sololá	701	Sololá	3	Barraneche	3	Marzo	2023-03-20T00:00:00	2024-11-06T20:00:00	8	Radiación solar	0
15145	7	Sololá	701	Sololá	3	Barraneche	3	Marzo	2023-03-20T00:00:00	2024-11-06T21:00:00	2	Temperatura media	13.1
15146	7	Sololá	701	Sololá	3	Barraneche	3	Marzo	2023-03-20T00:00:00	2024-11-06T21:00:00	4	Temperatura máxima	13.1
15147	7	Sololá	701	Sololá	3	Barraneche	3	Marzo	2023-03-20T00:00:00	2024-11-06T21:00:00	3	Temperatura mínima	12.8
15148	7	Sololá	701	Sololá	3	Barraneche	3	Marzo	2023-03-20T00:00:00	2024-11-06T21:00:00	5	Humedad	66
15149	7	Sololá	701	Sololá	3	Barraneche	3	Marzo	2023-03-20T00:00:00	2024-11-06T21:00:00	6	Velocidad del viento	14.5
15150	7	Sololá	701	Sololá	3	Barraneche	3	Marzo	2023-03-20T00:00:00	2024-11-06T21:00:00	7	Dirección del viento	14.48
15151	7	Sololá	701	Sololá	3	Barraneche	3	Marzo	2023-03-20T00:00:00	2024-11-06T21:00:00	1	Precipitación	0
15152	7	Sololá	701	Sololá	3	Barraneche	3	Marzo	2023-03-20T00:00:00	2024-11-06T21:00:00	8	Radiación solar	0
15153	7	Sololá	701	Sololá	3	Barraneche	3	Marzo	2023-03-20T00:00:00	2024-11-06T22:00:00	2	Temperatura media	12.9
15154	7	Sololá	701	Sololá	3	Barraneche	3	Marzo	2023-03-20T00:00:00	2024-11-06T22:00:00	4	Temperatura máxima	13.2
15155	7	Sololá	701	Sololá	3	Barraneche	3	Marzo	2023-03-20T00:00:00	2024-11-06T22:00:00	3	Temperatura mínima	12.8
15156	7	Sololá	701	Sololá	3	Barraneche	3	Marzo	2023-03-20T00:00:00	2024-11-06T22:00:00	5	Humedad	68
15157	7	Sololá	701	Sololá	3	Barraneche	3	Marzo	2023-03-20T00:00:00	2024-11-06T22:00:00	6	Velocidad del viento	16.1
15158	7	Sololá	701	Sololá	3	Barraneche	3	Marzo	2023-03-20T00:00:00	2024-11-06T22:00:00	7	Dirección del viento	16.09
15159	7	Sololá	701	Sololá	3	Barraneche	3	Marzo	2023-03-20T00:00:00	2024-11-06T22:00:00	1	Precipitación	0
15160	7	Sololá	701	Sololá	3	Barraneche	3	Marzo	2023-03-20T00:00:00	2024-11-06T22:00:00	8	Radiación solar	0
15161	7	Sololá	701	Sololá	3	Barraneche	3	Marzo	2023-03-20T00:00:00	2024-11-06T23:00:00	2	Temperatura media	13.4
15162	7	Sololá	701	Sololá	3	Barraneche	3	Marzo	2023-03-20T00:00:00	2024-11-06T23:00:00	4	Temperatura máxima	13.4
15163	7	Sololá	701	Sololá	3	Barraneche	3	Marzo	2023-03-20T00:00:00	2024-11-06T23:00:00	3	Temperatura mínima	12.8
15164	7	Sololá	701	Sololá	3	Barraneche	3	Marzo	2023-03-20T00:00:00	2024-11-06T23:00:00	5	Humedad	63
15165	7	Sololá	701	Sololá	3	Barraneche	3	Marzo	2023-03-20T00:00:00	2024-11-06T23:00:00	6	Velocidad del viento	16.1
15166	7	Sololá	701	Sololá	3	Barraneche	3	Marzo	2023-03-20T00:00:00	2024-11-06T23:00:00	7	Dirección del viento	16.09
15167	7	Sololá	701	Sololá	3	Barraneche	3	Marzo	2023-03-20T00:00:00	2024-11-06T23:00:00	1	Precipitación	0
15168	7	Sololá	701	Sololá	3	Barraneche	3	Marzo	2023-03-20T00:00:00	2024-11-06T23:00:00	8	Radiación solar	0
15169	7	Sololá	701	Sololá	3	Barraneche	3	Marzo	2023-03-21T00:00:00	2024-11-06T00:00:00	2	Temperatura media	13.2
15170	7	Sololá	701	Sololá	3	Barraneche	3	Marzo	2023-03-21T00:00:00	2024-11-06T00:00:00	4	Temperatura máxima	13.6
15171	7	Sololá	701	Sololá	3	Barraneche	3	Marzo	2023-03-21T00:00:00	2024-11-06T00:00:00	3	Temperatura mínima	12.9
15172	7	Sololá	701	Sololá	3	Barraneche	3	Marzo	2023-03-21T00:00:00	2024-11-06T00:00:00	5	Humedad	68
15173	7	Sololá	701	Sololá	3	Barraneche	3	Marzo	2023-03-21T00:00:00	2024-11-06T00:00:00	6	Velocidad del viento	33.8
15174	7	Sololá	701	Sololá	3	Barraneche	3	Marzo	2023-03-21T00:00:00	2024-11-06T00:00:00	7	Dirección del viento	33.8
15175	7	Sololá	701	Sololá	3	Barraneche	3	Marzo	2023-03-21T00:00:00	2024-11-06T00:00:00	1	Precipitación	0
15176	7	Sololá	701	Sololá	3	Barraneche	3	Marzo	2023-03-21T00:00:00	2024-11-06T00:00:00	8	Radiación solar	0
15177	7	Sololá	701	Sololá	3	Barraneche	3	Marzo	2023-03-21T00:00:00	2024-11-06T01:00:00	2	Temperatura media	13.3
15178	7	Sololá	701	Sololá	3	Barraneche	3	Marzo	2023-03-21T00:00:00	2024-11-06T01:00:00	4	Temperatura máxima	13.4
15179	7	Sololá	701	Sololá	3	Barraneche	3	Marzo	2023-03-21T00:00:00	2024-11-06T01:00:00	3	Temperatura mínima	13.1
15180	7	Sololá	701	Sololá	3	Barraneche	3	Marzo	2023-03-21T00:00:00	2024-11-06T01:00:00	5	Humedad	67
15181	7	Sololá	701	Sololá	3	Barraneche	3	Marzo	2023-03-21T00:00:00	2024-11-06T01:00:00	6	Velocidad del viento	30.6
15182	7	Sololá	701	Sololá	3	Barraneche	3	Marzo	2023-03-21T00:00:00	2024-11-06T01:00:00	7	Dirección del viento	30.58
15183	7	Sololá	701	Sololá	3	Barraneche	3	Marzo	2023-03-21T00:00:00	2024-11-06T01:00:00	1	Precipitación	0
15184	7	Sololá	701	Sololá	3	Barraneche	3	Marzo	2023-03-21T00:00:00	2024-11-06T01:00:00	8	Radiación solar	0
15185	7	Sololá	701	Sololá	3	Barraneche	3	Marzo	2023-03-21T00:00:00	2024-11-06T02:00:00	2	Temperatura media	12.9
15186	7	Sololá	701	Sololá	3	Barraneche	3	Marzo	2023-03-21T00:00:00	2024-11-06T02:00:00	4	Temperatura máxima	13.3
15187	7	Sololá	701	Sololá	3	Barraneche	3	Marzo	2023-03-21T00:00:00	2024-11-06T02:00:00	3	Temperatura mínima	12.8
15188	7	Sololá	701	Sololá	3	Barraneche	3	Marzo	2023-03-21T00:00:00	2024-11-06T02:00:00	5	Humedad	68
15189	7	Sololá	701	Sololá	3	Barraneche	3	Marzo	2023-03-21T00:00:00	2024-11-06T02:00:00	6	Velocidad del viento	29
15190	7	Sololá	701	Sololá	3	Barraneche	3	Marzo	2023-03-21T00:00:00	2024-11-06T02:00:00	7	Dirección del viento	28.97
15191	7	Sololá	701	Sololá	3	Barraneche	3	Marzo	2023-03-21T00:00:00	2024-11-06T02:00:00	1	Precipitación	0
15192	7	Sololá	701	Sololá	3	Barraneche	3	Marzo	2023-03-21T00:00:00	2024-11-06T02:00:00	8	Radiación solar	0
15193	7	Sololá	701	Sololá	3	Barraneche	3	Marzo	2023-03-21T00:00:00	2024-11-06T03:00:00	2	Temperatura media	12.4
15194	7	Sololá	701	Sololá	3	Barraneche	3	Marzo	2023-03-21T00:00:00	2024-11-06T03:00:00	4	Temperatura máxima	12.9
15195	7	Sololá	701	Sololá	3	Barraneche	3	Marzo	2023-03-21T00:00:00	2024-11-06T03:00:00	3	Temperatura mínima	12.3
15196	7	Sololá	701	Sololá	3	Barraneche	3	Marzo	2023-03-21T00:00:00	2024-11-06T03:00:00	5	Humedad	69
15197	7	Sololá	701	Sololá	3	Barraneche	3	Marzo	2023-03-21T00:00:00	2024-11-06T03:00:00	6	Velocidad del viento	20.9
15198	7	Sololá	701	Sololá	3	Barraneche	3	Marzo	2023-03-21T00:00:00	2024-11-06T03:00:00	7	Dirección del viento	20.92
15199	7	Sololá	701	Sololá	3	Barraneche	3	Marzo	2023-03-21T00:00:00	2024-11-06T03:00:00	1	Precipitación	0
15200	7	Sololá	701	Sololá	3	Barraneche	3	Marzo	2023-03-21T00:00:00	2024-11-06T03:00:00	8	Radiación solar	0
15201	7	Sololá	701	Sololá	3	Barraneche	3	Marzo	2023-03-21T00:00:00	2024-11-06T04:00:00	2	Temperatura media	13.1
15202	7	Sololá	701	Sololá	3	Barraneche	3	Marzo	2023-03-21T00:00:00	2024-11-06T04:00:00	4	Temperatura máxima	13.1
15203	7	Sololá	701	Sololá	3	Barraneche	3	Marzo	2023-03-21T00:00:00	2024-11-06T04:00:00	3	Temperatura mínima	12.4
15204	7	Sololá	701	Sololá	3	Barraneche	3	Marzo	2023-03-21T00:00:00	2024-11-06T04:00:00	5	Humedad	66
15205	7	Sololá	701	Sololá	3	Barraneche	3	Marzo	2023-03-21T00:00:00	2024-11-06T04:00:00	6	Velocidad del viento	14.5
15206	7	Sololá	701	Sololá	3	Barraneche	3	Marzo	2023-03-21T00:00:00	2024-11-06T04:00:00	7	Dirección del viento	14.48
15207	7	Sololá	701	Sololá	3	Barraneche	3	Marzo	2023-03-21T00:00:00	2024-11-06T04:00:00	1	Precipitación	0
15208	7	Sololá	701	Sololá	3	Barraneche	3	Marzo	2023-03-21T00:00:00	2024-11-06T04:00:00	8	Radiación solar	0
15209	7	Sololá	701	Sololá	3	Barraneche	3	Marzo	2023-03-21T00:00:00	2024-11-06T05:00:00	2	Temperatura media	12.3
15210	7	Sololá	701	Sololá	3	Barraneche	3	Marzo	2023-03-21T00:00:00	2024-11-06T05:00:00	4	Temperatura máxima	13.1
15211	7	Sololá	701	Sololá	3	Barraneche	3	Marzo	2023-03-21T00:00:00	2024-11-06T05:00:00	3	Temperatura mínima	12.2
15212	7	Sololá	701	Sololá	3	Barraneche	3	Marzo	2023-03-21T00:00:00	2024-11-06T05:00:00	5	Humedad	70
15213	7	Sololá	701	Sololá	3	Barraneche	3	Marzo	2023-03-21T00:00:00	2024-11-06T05:00:00	6	Velocidad del viento	19.3
15214	7	Sololá	701	Sololá	3	Barraneche	3	Marzo	2023-03-21T00:00:00	2024-11-06T05:00:00	7	Dirección del viento	19.31
15215	7	Sololá	701	Sololá	3	Barraneche	3	Marzo	2023-03-21T00:00:00	2024-11-06T05:00:00	1	Precipitación	0
15216	7	Sololá	701	Sololá	3	Barraneche	3	Marzo	2023-03-21T00:00:00	2024-11-06T05:00:00	8	Radiación solar	0
15217	7	Sololá	701	Sololá	3	Barraneche	3	Marzo	2023-03-21T00:00:00	2024-11-06T06:00:00	2	Temperatura media	13
15218	7	Sololá	701	Sololá	3	Barraneche	3	Marzo	2023-03-21T00:00:00	2024-11-06T06:00:00	4	Temperatura máxima	13.3
15219	7	Sololá	701	Sololá	3	Barraneche	3	Marzo	2023-03-21T00:00:00	2024-11-06T06:00:00	3	Temperatura mínima	12.2
15220	7	Sololá	701	Sololá	3	Barraneche	3	Marzo	2023-03-21T00:00:00	2024-11-06T06:00:00	5	Humedad	66
15221	7	Sololá	701	Sololá	3	Barraneche	3	Marzo	2023-03-21T00:00:00	2024-11-06T06:00:00	6	Velocidad del viento	25.7
15222	7	Sololá	701	Sololá	3	Barraneche	3	Marzo	2023-03-21T00:00:00	2024-11-06T06:00:00	7	Dirección del viento	25.75
15223	7	Sololá	701	Sololá	3	Barraneche	3	Marzo	2023-03-21T00:00:00	2024-11-06T06:00:00	1	Precipitación	0
15224	7	Sololá	701	Sololá	3	Barraneche	3	Marzo	2023-03-21T00:00:00	2024-11-06T06:00:00	8	Radiación solar	0
15225	7	Sololá	701	Sololá	3	Barraneche	3	Marzo	2023-03-21T00:00:00	2024-11-06T07:00:00	2	Temperatura media	12.8
15226	7	Sololá	701	Sololá	3	Barraneche	3	Marzo	2023-03-21T00:00:00	2024-11-06T07:00:00	4	Temperatura máxima	13.4
15227	7	Sololá	701	Sololá	3	Barraneche	3	Marzo	2023-03-21T00:00:00	2024-11-06T07:00:00	3	Temperatura mínima	12.8
15228	7	Sololá	701	Sololá	3	Barraneche	3	Marzo	2023-03-21T00:00:00	2024-11-06T07:00:00	5	Humedad	68
15229	7	Sololá	701	Sololá	3	Barraneche	3	Marzo	2023-03-21T00:00:00	2024-11-06T07:00:00	6	Velocidad del viento	22.5
15230	7	Sololá	701	Sololá	3	Barraneche	3	Marzo	2023-03-21T00:00:00	2024-11-06T07:00:00	7	Dirección del viento	22.53
15231	7	Sololá	701	Sololá	3	Barraneche	3	Marzo	2023-03-21T00:00:00	2024-11-06T07:00:00	1	Precipitación	0
15232	7	Sololá	701	Sololá	3	Barraneche	3	Marzo	2023-03-21T00:00:00	2024-11-06T07:00:00	8	Radiación solar	16
15233	7	Sololá	701	Sololá	3	Barraneche	3	Marzo	2023-03-21T00:00:00	2024-11-06T08:00:00	2	Temperatura media	14.7
15234	7	Sololá	701	Sololá	3	Barraneche	3	Marzo	2023-03-21T00:00:00	2024-11-06T08:00:00	4	Temperatura máxima	14.7
15235	7	Sololá	701	Sololá	3	Barraneche	3	Marzo	2023-03-21T00:00:00	2024-11-06T08:00:00	3	Temperatura mínima	12.8
15236	7	Sololá	701	Sololá	3	Barraneche	3	Marzo	2023-03-21T00:00:00	2024-11-06T08:00:00	5	Humedad	62
15237	7	Sololá	701	Sololá	3	Barraneche	3	Marzo	2023-03-21T00:00:00	2024-11-06T08:00:00	6	Velocidad del viento	19.3
15238	7	Sololá	701	Sololá	3	Barraneche	3	Marzo	2023-03-21T00:00:00	2024-11-06T08:00:00	7	Dirección del viento	19.31
15239	7	Sololá	701	Sololá	3	Barraneche	3	Marzo	2023-03-21T00:00:00	2024-11-06T08:00:00	1	Precipitación	0
15240	7	Sololá	701	Sololá	3	Barraneche	3	Marzo	2023-03-21T00:00:00	2024-11-06T08:00:00	8	Radiación solar	290
15241	7	Sololá	701	Sololá	3	Barraneche	3	Marzo	2023-03-21T00:00:00	2024-11-06T09:00:00	2	Temperatura media	15.6
15242	7	Sololá	701	Sololá	3	Barraneche	3	Marzo	2023-03-21T00:00:00	2024-11-06T09:00:00	4	Temperatura máxima	15.6
15243	7	Sololá	701	Sololá	3	Barraneche	3	Marzo	2023-03-21T00:00:00	2024-11-06T09:00:00	3	Temperatura mínima	14.7
15244	7	Sololá	701	Sololá	3	Barraneche	3	Marzo	2023-03-21T00:00:00	2024-11-06T09:00:00	5	Humedad	61
15245	7	Sololá	701	Sololá	3	Barraneche	3	Marzo	2023-03-21T00:00:00	2024-11-06T09:00:00	6	Velocidad del viento	19.3
15246	7	Sololá	701	Sololá	3	Barraneche	3	Marzo	2023-03-21T00:00:00	2024-11-06T09:00:00	7	Dirección del viento	19.31
15247	7	Sololá	701	Sololá	3	Barraneche	3	Marzo	2023-03-21T00:00:00	2024-11-06T09:00:00	1	Precipitación	0
15248	7	Sololá	701	Sololá	3	Barraneche	3	Marzo	2023-03-21T00:00:00	2024-11-06T09:00:00	8	Radiación solar	555
15249	7	Sololá	701	Sololá	3	Barraneche	3	Marzo	2023-03-21T00:00:00	2024-11-06T10:00:00	2	Temperatura media	16.9
15250	7	Sololá	701	Sololá	3	Barraneche	3	Marzo	2023-03-21T00:00:00	2024-11-06T10:00:00	4	Temperatura máxima	17.4
15251	7	Sololá	701	Sololá	3	Barraneche	3	Marzo	2023-03-21T00:00:00	2024-11-06T10:00:00	3	Temperatura mínima	15.1
15252	7	Sololá	701	Sololá	3	Barraneche	3	Marzo	2023-03-21T00:00:00	2024-11-06T10:00:00	5	Humedad	56
15253	7	Sololá	701	Sololá	3	Barraneche	3	Marzo	2023-03-21T00:00:00	2024-11-06T10:00:00	6	Velocidad del viento	20.9
15254	7	Sololá	701	Sololá	3	Barraneche	3	Marzo	2023-03-21T00:00:00	2024-11-06T10:00:00	7	Dirección del viento	20.92
15255	7	Sololá	701	Sololá	3	Barraneche	3	Marzo	2023-03-21T00:00:00	2024-11-06T10:00:00	1	Precipitación	0
15256	7	Sololá	701	Sololá	3	Barraneche	3	Marzo	2023-03-21T00:00:00	2024-11-06T10:00:00	8	Radiación solar	775
15257	7	Sololá	701	Sololá	3	Barraneche	3	Marzo	2023-03-21T00:00:00	2024-11-06T11:00:00	2	Temperatura media	16
15258	7	Sololá	701	Sololá	3	Barraneche	3	Marzo	2023-03-21T00:00:00	2024-11-06T11:00:00	4	Temperatura máxima	17.1
15259	7	Sololá	701	Sololá	3	Barraneche	3	Marzo	2023-03-21T00:00:00	2024-11-06T11:00:00	3	Temperatura mínima	15.9
15260	7	Sololá	701	Sololá	3	Barraneche	3	Marzo	2023-03-21T00:00:00	2024-11-06T11:00:00	5	Humedad	59
15261	7	Sololá	701	Sololá	3	Barraneche	3	Marzo	2023-03-21T00:00:00	2024-11-06T11:00:00	6	Velocidad del viento	19.3
15262	7	Sololá	701	Sololá	3	Barraneche	3	Marzo	2023-03-21T00:00:00	2024-11-06T11:00:00	7	Dirección del viento	19.31
15263	7	Sololá	701	Sololá	3	Barraneche	3	Marzo	2023-03-21T00:00:00	2024-11-06T11:00:00	1	Precipitación	0
15264	7	Sololá	701	Sololá	3	Barraneche	3	Marzo	2023-03-21T00:00:00	2024-11-06T11:00:00	8	Radiación solar	621
15265	7	Sololá	701	Sololá	3	Barraneche	3	Marzo	2023-03-21T00:00:00	2024-11-06T12:00:00	2	Temperatura media	17.7
15266	7	Sololá	701	Sololá	3	Barraneche	3	Marzo	2023-03-21T00:00:00	2024-11-06T12:00:00	4	Temperatura máxima	17.8
15267	7	Sololá	701	Sololá	3	Barraneche	3	Marzo	2023-03-21T00:00:00	2024-11-06T12:00:00	3	Temperatura mínima	16.1
15268	7	Sololá	701	Sololá	3	Barraneche	3	Marzo	2023-03-21T00:00:00	2024-11-06T12:00:00	5	Humedad	53
15269	7	Sololá	701	Sololá	3	Barraneche	3	Marzo	2023-03-21T00:00:00	2024-11-06T12:00:00	6	Velocidad del viento	24.1
15270	7	Sololá	701	Sololá	3	Barraneche	3	Marzo	2023-03-21T00:00:00	2024-11-06T12:00:00	7	Dirección del viento	24.14
15271	7	Sololá	701	Sololá	3	Barraneche	3	Marzo	2023-03-21T00:00:00	2024-11-06T12:00:00	1	Precipitación	0
15272	7	Sololá	701	Sololá	3	Barraneche	3	Marzo	2023-03-21T00:00:00	2024-11-06T12:00:00	8	Radiación solar	1174
15273	7	Sololá	701	Sololá	3	Barraneche	3	Marzo	2023-03-21T00:00:00	2024-11-06T13:00:00	2	Temperatura media	17.3
15274	7	Sololá	701	Sololá	3	Barraneche	3	Marzo	2023-03-21T00:00:00	2024-11-06T13:00:00	4	Temperatura máxima	18.3
15275	7	Sololá	701	Sololá	3	Barraneche	3	Marzo	2023-03-21T00:00:00	2024-11-06T13:00:00	3	Temperatura mínima	16.9
15276	7	Sololá	701	Sololá	3	Barraneche	3	Marzo	2023-03-21T00:00:00	2024-11-06T13:00:00	5	Humedad	45
15277	7	Sololá	701	Sololá	3	Barraneche	3	Marzo	2023-03-21T00:00:00	2024-11-06T13:00:00	6	Velocidad del viento	20.9
15278	7	Sololá	701	Sololá	3	Barraneche	3	Marzo	2023-03-21T00:00:00	2024-11-06T13:00:00	7	Dirección del viento	20.92
15279	7	Sololá	701	Sololá	3	Barraneche	3	Marzo	2023-03-21T00:00:00	2024-11-06T13:00:00	1	Precipitación	0
15280	7	Sololá	701	Sololá	3	Barraneche	3	Marzo	2023-03-21T00:00:00	2024-11-06T13:00:00	8	Radiación solar	631
15281	7	Sololá	701	Sololá	3	Barraneche	3	Marzo	2023-03-21T00:00:00	2024-11-06T14:00:00	2	Temperatura media	17
15282	7	Sololá	701	Sololá	3	Barraneche	3	Marzo	2023-03-21T00:00:00	2024-11-06T14:00:00	4	Temperatura máxima	19
15283	7	Sololá	701	Sololá	3	Barraneche	3	Marzo	2023-03-21T00:00:00	2024-11-06T14:00:00	3	Temperatura mínima	17
15284	7	Sololá	701	Sololá	3	Barraneche	3	Marzo	2023-03-21T00:00:00	2024-11-06T14:00:00	5	Humedad	48
15285	7	Sololá	701	Sololá	3	Barraneche	3	Marzo	2023-03-21T00:00:00	2024-11-06T14:00:00	6	Velocidad del viento	17.7
15286	7	Sololá	701	Sololá	3	Barraneche	3	Marzo	2023-03-21T00:00:00	2024-11-06T14:00:00	7	Dirección del viento	17.7
15287	7	Sololá	701	Sololá	3	Barraneche	3	Marzo	2023-03-21T00:00:00	2024-11-06T14:00:00	1	Precipitación	0
15288	7	Sololá	701	Sololá	3	Barraneche	3	Marzo	2023-03-21T00:00:00	2024-11-06T14:00:00	8	Radiación solar	524
15289	7	Sololá	701	Sololá	3	Barraneche	3	Marzo	2023-03-21T00:00:00	2024-11-06T15:00:00	2	Temperatura media	17
15290	7	Sololá	701	Sololá	3	Barraneche	3	Marzo	2023-03-21T00:00:00	2024-11-06T15:00:00	4	Temperatura máxima	17.2
15291	7	Sololá	701	Sololá	3	Barraneche	3	Marzo	2023-03-21T00:00:00	2024-11-06T15:00:00	3	Temperatura mínima	16.8
15292	7	Sololá	701	Sololá	3	Barraneche	3	Marzo	2023-03-21T00:00:00	2024-11-06T15:00:00	5	Humedad	51
15293	7	Sololá	701	Sololá	3	Barraneche	3	Marzo	2023-03-21T00:00:00	2024-11-06T15:00:00	6	Velocidad del viento	12.9
15294	7	Sololá	701	Sololá	3	Barraneche	3	Marzo	2023-03-21T00:00:00	2024-11-06T15:00:00	7	Dirección del viento	12.87
15295	7	Sololá	701	Sololá	3	Barraneche	3	Marzo	2023-03-21T00:00:00	2024-11-06T15:00:00	1	Precipitación	0
15296	7	Sololá	701	Sololá	3	Barraneche	3	Marzo	2023-03-21T00:00:00	2024-11-06T15:00:00	8	Radiación solar	327
15297	7	Sololá	701	Sololá	3	Barraneche	3	Marzo	2023-03-21T00:00:00	2024-11-06T16:00:00	2	Temperatura media	16.3
15298	7	Sololá	701	Sololá	3	Barraneche	3	Marzo	2023-03-21T00:00:00	2024-11-06T16:00:00	4	Temperatura máxima	17.5
15299	7	Sololá	701	Sololá	3	Barraneche	3	Marzo	2023-03-21T00:00:00	2024-11-06T16:00:00	3	Temperatura mínima	16.3
15300	7	Sololá	701	Sololá	3	Barraneche	3	Marzo	2023-03-21T00:00:00	2024-11-06T16:00:00	5	Humedad	55
15301	7	Sololá	701	Sololá	3	Barraneche	3	Marzo	2023-03-21T00:00:00	2024-11-06T16:00:00	6	Velocidad del viento	14.5
15302	7	Sololá	701	Sololá	3	Barraneche	3	Marzo	2023-03-21T00:00:00	2024-11-06T16:00:00	7	Dirección del viento	14.48
15303	7	Sololá	701	Sololá	3	Barraneche	3	Marzo	2023-03-21T00:00:00	2024-11-06T16:00:00	1	Precipitación	0
15304	7	Sololá	701	Sololá	3	Barraneche	3	Marzo	2023-03-21T00:00:00	2024-11-06T16:00:00	8	Radiación solar	284
15305	7	Sololá	701	Sololá	3	Barraneche	3	Marzo	2023-03-21T00:00:00	2024-11-06T17:00:00	2	Temperatura media	15.8
15306	7	Sololá	701	Sololá	3	Barraneche	3	Marzo	2023-03-21T00:00:00	2024-11-06T17:00:00	4	Temperatura máxima	16.3
15307	7	Sololá	701	Sololá	3	Barraneche	3	Marzo	2023-03-21T00:00:00	2024-11-06T17:00:00	3	Temperatura mínima	15.8
15308	7	Sololá	701	Sololá	3	Barraneche	3	Marzo	2023-03-21T00:00:00	2024-11-06T17:00:00	5	Humedad	55
15309	7	Sololá	701	Sololá	3	Barraneche	3	Marzo	2023-03-21T00:00:00	2024-11-06T17:00:00	6	Velocidad del viento	14.5
15310	7	Sololá	701	Sololá	3	Barraneche	3	Marzo	2023-03-21T00:00:00	2024-11-06T17:00:00	7	Dirección del viento	14.48
15311	7	Sololá	701	Sololá	3	Barraneche	3	Marzo	2023-03-21T00:00:00	2024-11-06T17:00:00	1	Precipitación	0
15312	7	Sololá	701	Sololá	3	Barraneche	3	Marzo	2023-03-21T00:00:00	2024-11-06T17:00:00	8	Radiación solar	122
15313	7	Sololá	701	Sololá	3	Barraneche	3	Marzo	2023-03-21T00:00:00	2024-11-06T18:00:00	2	Temperatura media	14.9
15314	7	Sololá	701	Sololá	3	Barraneche	3	Marzo	2023-03-21T00:00:00	2024-11-06T18:00:00	4	Temperatura máxima	15.8
15315	7	Sololá	701	Sololá	3	Barraneche	3	Marzo	2023-03-21T00:00:00	2024-11-06T18:00:00	3	Temperatura mínima	14.9
15316	7	Sololá	701	Sololá	3	Barraneche	3	Marzo	2023-03-21T00:00:00	2024-11-06T18:00:00	5	Humedad	60
15317	7	Sololá	701	Sololá	3	Barraneche	3	Marzo	2023-03-21T00:00:00	2024-11-06T18:00:00	6	Velocidad del viento	14.5
15318	7	Sololá	701	Sololá	3	Barraneche	3	Marzo	2023-03-21T00:00:00	2024-11-06T18:00:00	7	Dirección del viento	14.48
15319	7	Sololá	701	Sololá	3	Barraneche	3	Marzo	2023-03-21T00:00:00	2024-11-06T18:00:00	1	Precipitación	0
15320	7	Sololá	701	Sololá	3	Barraneche	3	Marzo	2023-03-21T00:00:00	2024-11-06T18:00:00	8	Radiación solar	28
15321	7	Sololá	701	Sololá	3	Barraneche	3	Marzo	2023-03-21T00:00:00	2024-11-06T19:00:00	2	Temperatura media	14.3
15322	7	Sololá	701	Sololá	3	Barraneche	3	Marzo	2023-03-21T00:00:00	2024-11-06T19:00:00	4	Temperatura máxima	14.9
15323	7	Sololá	701	Sololá	3	Barraneche	3	Marzo	2023-03-21T00:00:00	2024-11-06T19:00:00	3	Temperatura mínima	14.2
15324	7	Sololá	701	Sololá	3	Barraneche	3	Marzo	2023-03-21T00:00:00	2024-11-06T19:00:00	5	Humedad	64
15325	7	Sololá	701	Sololá	3	Barraneche	3	Marzo	2023-03-21T00:00:00	2024-11-06T19:00:00	6	Velocidad del viento	11.3
15326	7	Sololá	701	Sololá	3	Barraneche	3	Marzo	2023-03-21T00:00:00	2024-11-06T19:00:00	7	Dirección del viento	11.27
15327	7	Sololá	701	Sololá	3	Barraneche	3	Marzo	2023-03-21T00:00:00	2024-11-06T19:00:00	1	Precipitación	0
15328	7	Sololá	701	Sololá	3	Barraneche	3	Marzo	2023-03-21T00:00:00	2024-11-06T19:00:00	8	Radiación solar	0
15329	7	Sololá	701	Sololá	3	Barraneche	3	Marzo	2023-03-21T00:00:00	2024-11-06T20:00:00	2	Temperatura media	13.7
15330	7	Sololá	701	Sololá	3	Barraneche	3	Marzo	2023-03-21T00:00:00	2024-11-06T20:00:00	4	Temperatura máxima	14.3
15331	7	Sololá	701	Sololá	3	Barraneche	3	Marzo	2023-03-21T00:00:00	2024-11-06T20:00:00	3	Temperatura mínima	13.7
15332	7	Sololá	701	Sololá	3	Barraneche	3	Marzo	2023-03-21T00:00:00	2024-11-06T20:00:00	5	Humedad	69
15333	7	Sololá	701	Sololá	3	Barraneche	3	Marzo	2023-03-21T00:00:00	2024-11-06T20:00:00	6	Velocidad del viento	20.9
15334	7	Sololá	701	Sololá	3	Barraneche	3	Marzo	2023-03-21T00:00:00	2024-11-06T20:00:00	7	Dirección del viento	20.92
15335	7	Sololá	701	Sololá	3	Barraneche	3	Marzo	2023-03-21T00:00:00	2024-11-06T20:00:00	1	Precipitación	0
15336	7	Sololá	701	Sololá	3	Barraneche	3	Marzo	2023-03-21T00:00:00	2024-11-06T20:00:00	8	Radiación solar	0
15337	7	Sololá	701	Sololá	3	Barraneche	3	Marzo	2023-03-21T00:00:00	2024-11-06T21:00:00	2	Temperatura media	13.3
15338	7	Sololá	701	Sololá	3	Barraneche	3	Marzo	2023-03-21T00:00:00	2024-11-06T21:00:00	4	Temperatura máxima	13.8
15339	7	Sololá	701	Sololá	3	Barraneche	3	Marzo	2023-03-21T00:00:00	2024-11-06T21:00:00	3	Temperatura mínima	13.3
15340	7	Sololá	701	Sololá	3	Barraneche	3	Marzo	2023-03-21T00:00:00	2024-11-06T21:00:00	5	Humedad	67
15341	7	Sololá	701	Sololá	3	Barraneche	3	Marzo	2023-03-21T00:00:00	2024-11-06T21:00:00	6	Velocidad del viento	25.7
15342	7	Sololá	701	Sololá	3	Barraneche	3	Marzo	2023-03-21T00:00:00	2024-11-06T21:00:00	7	Dirección del viento	25.75
15343	7	Sololá	701	Sololá	3	Barraneche	3	Marzo	2023-03-21T00:00:00	2024-11-06T21:00:00	1	Precipitación	0
15344	7	Sololá	701	Sololá	3	Barraneche	3	Marzo	2023-03-21T00:00:00	2024-11-06T21:00:00	8	Radiación solar	0
15345	7	Sololá	701	Sololá	3	Barraneche	3	Marzo	2023-03-21T00:00:00	2024-11-06T22:00:00	2	Temperatura media	13.4
15346	7	Sololá	701	Sololá	3	Barraneche	3	Marzo	2023-03-21T00:00:00	2024-11-06T22:00:00	4	Temperatura máxima	13.5
15347	7	Sololá	701	Sololá	3	Barraneche	3	Marzo	2023-03-21T00:00:00	2024-11-06T22:00:00	3	Temperatura mínima	13.2
15348	7	Sololá	701	Sololá	3	Barraneche	3	Marzo	2023-03-21T00:00:00	2024-11-06T22:00:00	5	Humedad	64
15349	7	Sololá	701	Sololá	3	Barraneche	3	Marzo	2023-03-21T00:00:00	2024-11-06T22:00:00	6	Velocidad del viento	30.6
15350	7	Sololá	701	Sololá	3	Barraneche	3	Marzo	2023-03-21T00:00:00	2024-11-06T22:00:00	7	Dirección del viento	30.58
15351	7	Sololá	701	Sololá	3	Barraneche	3	Marzo	2023-03-21T00:00:00	2024-11-06T22:00:00	1	Precipitación	0
15352	7	Sololá	701	Sololá	3	Barraneche	3	Marzo	2023-03-21T00:00:00	2024-11-06T22:00:00	8	Radiación solar	0
15353	7	Sololá	701	Sololá	3	Barraneche	3	Marzo	2023-03-21T00:00:00	2024-11-06T23:00:00	2	Temperatura media	13
15354	7	Sololá	701	Sololá	3	Barraneche	3	Marzo	2023-03-21T00:00:00	2024-11-06T23:00:00	4	Temperatura máxima	13.4
15355	7	Sololá	701	Sololá	3	Barraneche	3	Marzo	2023-03-21T00:00:00	2024-11-06T23:00:00	3	Temperatura mínima	13
15356	7	Sololá	701	Sololá	3	Barraneche	3	Marzo	2023-03-21T00:00:00	2024-11-06T23:00:00	5	Humedad	66
15357	7	Sololá	701	Sololá	3	Barraneche	3	Marzo	2023-03-21T00:00:00	2024-11-06T23:00:00	6	Velocidad del viento	32.2
15358	7	Sololá	701	Sololá	3	Barraneche	3	Marzo	2023-03-21T00:00:00	2024-11-06T23:00:00	7	Dirección del viento	32.19
15359	7	Sololá	701	Sololá	3	Barraneche	3	Marzo	2023-03-21T00:00:00	2024-11-06T23:00:00	1	Precipitación	0
15360	7	Sololá	701	Sololá	3	Barraneche	3	Marzo	2023-03-21T00:00:00	2024-11-06T23:00:00	8	Radiación solar	0
15361	7	Sololá	701	Sololá	3	Barraneche	3	Marzo	2023-03-22T00:00:00	2024-11-06T00:00:00	2	Temperatura media	13.1
15362	7	Sololá	701	Sololá	3	Barraneche	3	Marzo	2023-03-22T00:00:00	2024-11-06T00:00:00	4	Temperatura máxima	13.4
15363	7	Sololá	701	Sololá	3	Barraneche	3	Marzo	2023-03-22T00:00:00	2024-11-06T00:00:00	3	Temperatura mínima	13
15364	7	Sololá	701	Sololá	3	Barraneche	3	Marzo	2023-03-22T00:00:00	2024-11-06T00:00:00	5	Humedad	65
15365	7	Sololá	701	Sololá	3	Barraneche	3	Marzo	2023-03-22T00:00:00	2024-11-06T00:00:00	6	Velocidad del viento	24.1
15366	7	Sololá	701	Sololá	3	Barraneche	3	Marzo	2023-03-22T00:00:00	2024-11-06T00:00:00	7	Dirección del viento	24.14
15367	7	Sololá	701	Sololá	3	Barraneche	3	Marzo	2023-03-22T00:00:00	2024-11-06T00:00:00	1	Precipitación	0
15368	7	Sololá	701	Sololá	3	Barraneche	3	Marzo	2023-03-22T00:00:00	2024-11-06T00:00:00	8	Radiación solar	0
15369	7	Sololá	701	Sololá	3	Barraneche	3	Marzo	2023-03-22T00:00:00	2024-11-06T01:00:00	2	Temperatura media	13.3
15370	7	Sololá	701	Sololá	3	Barraneche	3	Marzo	2023-03-22T00:00:00	2024-11-06T01:00:00	4	Temperatura máxima	13.4
15371	7	Sololá	701	Sololá	3	Barraneche	3	Marzo	2023-03-22T00:00:00	2024-11-06T01:00:00	3	Temperatura mínima	13.1
15372	7	Sololá	701	Sololá	3	Barraneche	3	Marzo	2023-03-22T00:00:00	2024-11-06T01:00:00	5	Humedad	64
15373	7	Sololá	701	Sololá	3	Barraneche	3	Marzo	2023-03-22T00:00:00	2024-11-06T01:00:00	6	Velocidad del viento	14.5
15374	7	Sololá	701	Sololá	3	Barraneche	3	Marzo	2023-03-22T00:00:00	2024-11-06T01:00:00	7	Dirección del viento	14.48
15375	7	Sololá	701	Sololá	3	Barraneche	3	Marzo	2023-03-22T00:00:00	2024-11-06T01:00:00	1	Precipitación	0
15376	7	Sololá	701	Sololá	3	Barraneche	3	Marzo	2023-03-22T00:00:00	2024-11-06T01:00:00	8	Radiación solar	0
15377	7	Sololá	701	Sololá	3	Barraneche	3	Marzo	2023-03-22T00:00:00	2024-11-06T02:00:00	2	Temperatura media	13.3
15378	7	Sololá	701	Sololá	3	Barraneche	3	Marzo	2023-03-22T00:00:00	2024-11-06T02:00:00	4	Temperatura máxima	13.4
15379	7	Sololá	701	Sololá	3	Barraneche	3	Marzo	2023-03-22T00:00:00	2024-11-06T02:00:00	3	Temperatura mínima	13.2
15380	7	Sololá	701	Sololá	3	Barraneche	3	Marzo	2023-03-22T00:00:00	2024-11-06T02:00:00	5	Humedad	63
15381	7	Sololá	701	Sololá	3	Barraneche	3	Marzo	2023-03-22T00:00:00	2024-11-06T02:00:00	6	Velocidad del viento	11.3
15382	7	Sololá	701	Sololá	3	Barraneche	3	Marzo	2023-03-22T00:00:00	2024-11-06T02:00:00	7	Dirección del viento	11.27
15383	7	Sololá	701	Sololá	3	Barraneche	3	Marzo	2023-03-22T00:00:00	2024-11-06T02:00:00	1	Precipitación	0
15384	7	Sololá	701	Sololá	3	Barraneche	3	Marzo	2023-03-22T00:00:00	2024-11-06T02:00:00	8	Radiación solar	0
15385	7	Sololá	701	Sololá	3	Barraneche	3	Marzo	2023-03-22T00:00:00	2024-11-06T03:00:00	2	Temperatura media	12.4
15386	7	Sololá	701	Sololá	3	Barraneche	3	Marzo	2023-03-22T00:00:00	2024-11-06T03:00:00	4	Temperatura máxima	13.4
15387	7	Sololá	701	Sololá	3	Barraneche	3	Marzo	2023-03-22T00:00:00	2024-11-06T03:00:00	3	Temperatura mínima	12.4
15388	7	Sololá	701	Sololá	3	Barraneche	3	Marzo	2023-03-22T00:00:00	2024-11-06T03:00:00	5	Humedad	70
15389	7	Sololá	701	Sololá	3	Barraneche	3	Marzo	2023-03-22T00:00:00	2024-11-06T03:00:00	6	Velocidad del viento	8
15390	7	Sololá	701	Sololá	3	Barraneche	3	Marzo	2023-03-22T00:00:00	2024-11-06T03:00:00	7	Dirección del viento	8.05
15391	7	Sololá	701	Sololá	3	Barraneche	3	Marzo	2023-03-22T00:00:00	2024-11-06T03:00:00	1	Precipitación	0
15392	7	Sololá	701	Sololá	3	Barraneche	3	Marzo	2023-03-22T00:00:00	2024-11-06T03:00:00	8	Radiación solar	0
15393	7	Sololá	701	Sololá	3	Barraneche	3	Marzo	2023-03-22T00:00:00	2024-11-06T04:00:00	2	Temperatura media	12.6
15394	7	Sololá	701	Sololá	3	Barraneche	3	Marzo	2023-03-22T00:00:00	2024-11-06T04:00:00	4	Temperatura máxima	12.7
15395	7	Sololá	701	Sololá	3	Barraneche	3	Marzo	2023-03-22T00:00:00	2024-11-06T04:00:00	3	Temperatura mínima	12.4
15396	7	Sololá	701	Sololá	3	Barraneche	3	Marzo	2023-03-22T00:00:00	2024-11-06T04:00:00	5	Humedad	70
15397	7	Sololá	701	Sololá	3	Barraneche	3	Marzo	2023-03-22T00:00:00	2024-11-06T04:00:00	6	Velocidad del viento	6.4
15398	7	Sololá	701	Sololá	3	Barraneche	3	Marzo	2023-03-22T00:00:00	2024-11-06T04:00:00	7	Dirección del viento	6.44
15399	7	Sololá	701	Sololá	3	Barraneche	3	Marzo	2023-03-22T00:00:00	2024-11-06T04:00:00	1	Precipitación	0
15400	7	Sololá	701	Sololá	3	Barraneche	3	Marzo	2023-03-22T00:00:00	2024-11-06T04:00:00	8	Radiación solar	0
15401	7	Sololá	701	Sololá	3	Barraneche	3	Marzo	2023-03-22T00:00:00	2024-11-06T05:00:00	2	Temperatura media	12.9
15402	7	Sololá	701	Sololá	3	Barraneche	3	Marzo	2023-03-22T00:00:00	2024-11-06T05:00:00	4	Temperatura máxima	13
15403	7	Sololá	701	Sololá	3	Barraneche	3	Marzo	2023-03-22T00:00:00	2024-11-06T05:00:00	3	Temperatura mínima	12.6
15404	7	Sololá	701	Sololá	3	Barraneche	3	Marzo	2023-03-22T00:00:00	2024-11-06T05:00:00	5	Humedad	68
15405	7	Sololá	701	Sololá	3	Barraneche	3	Marzo	2023-03-22T00:00:00	2024-11-06T05:00:00	6	Velocidad del viento	8
15406	7	Sololá	701	Sololá	3	Barraneche	3	Marzo	2023-03-22T00:00:00	2024-11-06T05:00:00	7	Dirección del viento	8.05
15407	7	Sololá	701	Sololá	3	Barraneche	3	Marzo	2023-03-22T00:00:00	2024-11-06T05:00:00	1	Precipitación	0
15408	7	Sololá	701	Sololá	3	Barraneche	3	Marzo	2023-03-22T00:00:00	2024-11-06T05:00:00	8	Radiación solar	0
15409	7	Sololá	701	Sololá	3	Barraneche	3	Marzo	2023-03-22T00:00:00	2024-11-06T06:00:00	2	Temperatura media	12.6
15410	7	Sololá	701	Sololá	3	Barraneche	3	Marzo	2023-03-22T00:00:00	2024-11-06T06:00:00	4	Temperatura máxima	13.1
15411	7	Sololá	701	Sololá	3	Barraneche	3	Marzo	2023-03-22T00:00:00	2024-11-06T06:00:00	3	Temperatura mínima	12.5
15412	7	Sololá	701	Sololá	3	Barraneche	3	Marzo	2023-03-22T00:00:00	2024-11-06T06:00:00	5	Humedad	69
15413	7	Sololá	701	Sololá	3	Barraneche	3	Marzo	2023-03-22T00:00:00	2024-11-06T06:00:00	6	Velocidad del viento	11.3
15414	7	Sololá	701	Sololá	3	Barraneche	3	Marzo	2023-03-22T00:00:00	2024-11-06T06:00:00	7	Dirección del viento	11.27
15415	7	Sololá	701	Sololá	3	Barraneche	3	Marzo	2023-03-22T00:00:00	2024-11-06T06:00:00	1	Precipitación	0
15416	7	Sololá	701	Sololá	3	Barraneche	3	Marzo	2023-03-22T00:00:00	2024-11-06T06:00:00	8	Radiación solar	0
15417	7	Sololá	701	Sololá	3	Barraneche	3	Marzo	2023-03-22T00:00:00	2024-11-06T07:00:00	2	Temperatura media	12.6
15418	7	Sololá	701	Sololá	3	Barraneche	3	Marzo	2023-03-22T00:00:00	2024-11-06T07:00:00	4	Temperatura máxima	12.7
15419	7	Sololá	701	Sololá	3	Barraneche	3	Marzo	2023-03-22T00:00:00	2024-11-06T07:00:00	3	Temperatura mínima	12.3
15420	7	Sololá	701	Sololá	3	Barraneche	3	Marzo	2023-03-22T00:00:00	2024-11-06T07:00:00	5	Humedad	70
15421	7	Sololá	701	Sololá	3	Barraneche	3	Marzo	2023-03-22T00:00:00	2024-11-06T07:00:00	6	Velocidad del viento	14.5
15422	7	Sololá	701	Sololá	3	Barraneche	3	Marzo	2023-03-22T00:00:00	2024-11-06T07:00:00	7	Dirección del viento	14.48
15423	7	Sololá	701	Sololá	3	Barraneche	3	Marzo	2023-03-22T00:00:00	2024-11-06T07:00:00	1	Precipitación	0
15424	7	Sololá	701	Sololá	3	Barraneche	3	Marzo	2023-03-22T00:00:00	2024-11-06T07:00:00	8	Radiación solar	29
15425	7	Sololá	701	Sololá	3	Barraneche	3	Marzo	2023-03-22T00:00:00	2024-11-06T08:00:00	2	Temperatura media	13.4
15426	7	Sololá	701	Sololá	3	Barraneche	3	Marzo	2023-03-22T00:00:00	2024-11-06T08:00:00	4	Temperatura máxima	13.6
15427	7	Sololá	701	Sololá	3	Barraneche	3	Marzo	2023-03-22T00:00:00	2024-11-06T08:00:00	3	Temperatura mínima	12.6
15428	7	Sololá	701	Sololá	3	Barraneche	3	Marzo	2023-03-22T00:00:00	2024-11-06T08:00:00	5	Humedad	69
15429	7	Sololá	701	Sololá	3	Barraneche	3	Marzo	2023-03-22T00:00:00	2024-11-06T08:00:00	6	Velocidad del viento	19.3
15430	7	Sololá	701	Sololá	3	Barraneche	3	Marzo	2023-03-22T00:00:00	2024-11-06T08:00:00	7	Dirección del viento	19.31
15431	7	Sololá	701	Sololá	3	Barraneche	3	Marzo	2023-03-22T00:00:00	2024-11-06T08:00:00	1	Precipitación	0
15432	7	Sololá	701	Sololá	3	Barraneche	3	Marzo	2023-03-22T00:00:00	2024-11-06T08:00:00	8	Radiación solar	150
15433	7	Sololá	701	Sololá	3	Barraneche	3	Marzo	2023-03-22T00:00:00	2024-11-06T09:00:00	2	Temperatura media	14.2
15434	7	Sololá	701	Sololá	3	Barraneche	3	Marzo	2023-03-22T00:00:00	2024-11-06T09:00:00	4	Temperatura máxima	14.7
15435	7	Sololá	701	Sololá	3	Barraneche	3	Marzo	2023-03-22T00:00:00	2024-11-06T09:00:00	3	Temperatura mínima	13.3
15436	7	Sololá	701	Sololá	3	Barraneche	3	Marzo	2023-03-22T00:00:00	2024-11-06T09:00:00	5	Humedad	63
15437	7	Sololá	701	Sololá	3	Barraneche	3	Marzo	2023-03-22T00:00:00	2024-11-06T09:00:00	6	Velocidad del viento	17.7
15438	7	Sololá	701	Sololá	3	Barraneche	3	Marzo	2023-03-22T00:00:00	2024-11-06T09:00:00	7	Dirección del viento	17.7
15439	7	Sololá	701	Sololá	3	Barraneche	3	Marzo	2023-03-22T00:00:00	2024-11-06T09:00:00	1	Precipitación	0
15440	7	Sololá	701	Sololá	3	Barraneche	3	Marzo	2023-03-22T00:00:00	2024-11-06T09:00:00	8	Radiación solar	311
15441	7	Sololá	701	Sololá	3	Barraneche	3	Marzo	2023-03-22T00:00:00	2024-11-06T10:00:00	2	Temperatura media	14.9
15442	7	Sololá	701	Sololá	3	Barraneche	3	Marzo	2023-03-22T00:00:00	2024-11-06T10:00:00	4	Temperatura máxima	15.3
15443	7	Sololá	701	Sololá	3	Barraneche	3	Marzo	2023-03-22T00:00:00	2024-11-06T10:00:00	3	Temperatura mínima	14.2
15444	7	Sololá	701	Sololá	3	Barraneche	3	Marzo	2023-03-22T00:00:00	2024-11-06T10:00:00	5	Humedad	62
15445	7	Sololá	701	Sololá	3	Barraneche	3	Marzo	2023-03-22T00:00:00	2024-11-06T10:00:00	6	Velocidad del viento	16.1
15446	7	Sololá	701	Sololá	3	Barraneche	3	Marzo	2023-03-22T00:00:00	2024-11-06T10:00:00	7	Dirección del viento	16.09
15447	7	Sololá	701	Sololá	3	Barraneche	3	Marzo	2023-03-22T00:00:00	2024-11-06T10:00:00	1	Precipitación	0
15448	7	Sololá	701	Sololá	3	Barraneche	3	Marzo	2023-03-22T00:00:00	2024-11-06T10:00:00	8	Radiación solar	360
15449	7	Sololá	701	Sololá	3	Barraneche	3	Marzo	2023-03-22T00:00:00	2024-11-06T11:00:00	2	Temperatura media	15.8
15450	7	Sololá	701	Sololá	3	Barraneche	3	Marzo	2023-03-22T00:00:00	2024-11-06T11:00:00	4	Temperatura máxima	15.8
15451	7	Sololá	701	Sololá	3	Barraneche	3	Marzo	2023-03-22T00:00:00	2024-11-06T11:00:00	3	Temperatura mínima	14.6
15452	7	Sololá	701	Sololá	3	Barraneche	3	Marzo	2023-03-22T00:00:00	2024-11-06T11:00:00	5	Humedad	59
15453	7	Sololá	701	Sololá	3	Barraneche	3	Marzo	2023-03-22T00:00:00	2024-11-06T11:00:00	6	Velocidad del viento	14.5
15454	7	Sololá	701	Sololá	3	Barraneche	3	Marzo	2023-03-22T00:00:00	2024-11-06T11:00:00	7	Dirección del viento	14.48
15455	7	Sololá	701	Sololá	3	Barraneche	3	Marzo	2023-03-22T00:00:00	2024-11-06T11:00:00	1	Precipitación	0
15456	7	Sololá	701	Sololá	3	Barraneche	3	Marzo	2023-03-22T00:00:00	2024-11-06T11:00:00	8	Radiación solar	337
15457	7	Sololá	701	Sololá	3	Barraneche	3	Marzo	2023-03-22T00:00:00	2024-11-06T12:00:00	2	Temperatura media	16.2
15458	7	Sololá	701	Sololá	3	Barraneche	3	Marzo	2023-03-22T00:00:00	2024-11-06T12:00:00	4	Temperatura máxima	16.7
15459	7	Sololá	701	Sololá	3	Barraneche	3	Marzo	2023-03-22T00:00:00	2024-11-06T12:00:00	3	Temperatura mínima	15.7
15460	7	Sololá	701	Sololá	3	Barraneche	3	Marzo	2023-03-22T00:00:00	2024-11-06T12:00:00	5	Humedad	58
15461	7	Sololá	701	Sololá	3	Barraneche	3	Marzo	2023-03-22T00:00:00	2024-11-06T12:00:00	6	Velocidad del viento	11.3
15462	7	Sololá	701	Sololá	3	Barraneche	3	Marzo	2023-03-22T00:00:00	2024-11-06T12:00:00	7	Dirección del viento	11.27
15463	7	Sololá	701	Sololá	3	Barraneche	3	Marzo	2023-03-22T00:00:00	2024-11-06T12:00:00	1	Precipitación	0
15464	7	Sololá	701	Sololá	3	Barraneche	3	Marzo	2023-03-22T00:00:00	2024-11-06T12:00:00	8	Radiación solar	390
15465	7	Sololá	701	Sololá	3	Barraneche	3	Marzo	2023-03-22T00:00:00	2024-11-06T13:00:00	2	Temperatura media	16.4
15466	7	Sololá	701	Sololá	3	Barraneche	3	Marzo	2023-03-22T00:00:00	2024-11-06T13:00:00	4	Temperatura máxima	16.7
15467	7	Sololá	701	Sololá	3	Barraneche	3	Marzo	2023-03-22T00:00:00	2024-11-06T13:00:00	3	Temperatura mínima	15.8
15468	7	Sololá	701	Sololá	3	Barraneche	3	Marzo	2023-03-22T00:00:00	2024-11-06T13:00:00	5	Humedad	57
15469	7	Sololá	701	Sololá	3	Barraneche	3	Marzo	2023-03-22T00:00:00	2024-11-06T13:00:00	6	Velocidad del viento	17.7
15470	7	Sololá	701	Sololá	3	Barraneche	3	Marzo	2023-03-22T00:00:00	2024-11-06T13:00:00	7	Dirección del viento	17.7
15471	7	Sololá	701	Sololá	3	Barraneche	3	Marzo	2023-03-22T00:00:00	2024-11-06T13:00:00	1	Precipitación	0
15472	7	Sololá	701	Sololá	3	Barraneche	3	Marzo	2023-03-22T00:00:00	2024-11-06T13:00:00	8	Radiación solar	386
15473	7	Sololá	701	Sololá	3	Barraneche	3	Marzo	2023-03-22T00:00:00	2024-11-06T14:00:00	2	Temperatura media	17.8
15474	7	Sololá	701	Sololá	3	Barraneche	3	Marzo	2023-03-22T00:00:00	2024-11-06T14:00:00	4	Temperatura máxima	18.3
15475	7	Sololá	701	Sololá	3	Barraneche	3	Marzo	2023-03-22T00:00:00	2024-11-06T14:00:00	3	Temperatura mínima	16.4
15476	7	Sololá	701	Sololá	3	Barraneche	3	Marzo	2023-03-22T00:00:00	2024-11-06T14:00:00	5	Humedad	49
15477	7	Sololá	701	Sololá	3	Barraneche	3	Marzo	2023-03-22T00:00:00	2024-11-06T14:00:00	6	Velocidad del viento	17.7
15478	7	Sololá	701	Sololá	3	Barraneche	3	Marzo	2023-03-22T00:00:00	2024-11-06T14:00:00	7	Dirección del viento	17.7
15479	7	Sololá	701	Sololá	3	Barraneche	3	Marzo	2023-03-22T00:00:00	2024-11-06T14:00:00	1	Precipitación	0
15480	7	Sololá	701	Sololá	3	Barraneche	3	Marzo	2023-03-22T00:00:00	2024-11-06T14:00:00	8	Radiación solar	980
15481	7	Sololá	701	Sololá	3	Barraneche	3	Marzo	2023-03-22T00:00:00	2024-11-06T15:00:00	2	Temperatura media	17.8
15482	7	Sololá	701	Sololá	3	Barraneche	3	Marzo	2023-03-22T00:00:00	2024-11-06T15:00:00	4	Temperatura máxima	18.4
15483	7	Sololá	701	Sololá	3	Barraneche	3	Marzo	2023-03-22T00:00:00	2024-11-06T15:00:00	3	Temperatura mínima	17.6
15484	7	Sololá	701	Sololá	3	Barraneche	3	Marzo	2023-03-22T00:00:00	2024-11-06T15:00:00	5	Humedad	49
15485	7	Sololá	701	Sololá	3	Barraneche	3	Marzo	2023-03-22T00:00:00	2024-11-06T15:00:00	6	Velocidad del viento	12.9
15486	7	Sololá	701	Sololá	3	Barraneche	3	Marzo	2023-03-22T00:00:00	2024-11-06T15:00:00	7	Dirección del viento	12.87
15487	7	Sololá	701	Sololá	3	Barraneche	3	Marzo	2023-03-22T00:00:00	2024-11-06T15:00:00	1	Precipitación	0
15488	7	Sololá	701	Sololá	3	Barraneche	3	Marzo	2023-03-22T00:00:00	2024-11-06T15:00:00	8	Radiación solar	420
15489	7	Sololá	701	Sololá	3	Barraneche	3	Marzo	2023-03-22T00:00:00	2024-11-06T16:00:00	2	Temperatura media	17.7
15490	7	Sololá	701	Sololá	3	Barraneche	3	Marzo	2023-03-22T00:00:00	2024-11-06T16:00:00	4	Temperatura máxima	18.2
15491	7	Sololá	701	Sololá	3	Barraneche	3	Marzo	2023-03-22T00:00:00	2024-11-06T16:00:00	3	Temperatura mínima	17.4
15492	7	Sololá	701	Sololá	3	Barraneche	3	Marzo	2023-03-22T00:00:00	2024-11-06T16:00:00	5	Humedad	47
15493	7	Sololá	701	Sololá	3	Barraneche	3	Marzo	2023-03-22T00:00:00	2024-11-06T16:00:00	6	Velocidad del viento	11.3
15494	7	Sololá	701	Sololá	3	Barraneche	3	Marzo	2023-03-22T00:00:00	2024-11-06T16:00:00	7	Dirección del viento	11.27
15495	7	Sololá	701	Sololá	3	Barraneche	3	Marzo	2023-03-22T00:00:00	2024-11-06T16:00:00	1	Precipitación	0
15496	7	Sololá	701	Sololá	3	Barraneche	3	Marzo	2023-03-22T00:00:00	2024-11-06T16:00:00	8	Radiación solar	333
15497	7	Sololá	701	Sololá	3	Barraneche	3	Marzo	2023-03-22T00:00:00	2024-11-06T17:00:00	2	Temperatura media	16.8
15498	7	Sololá	701	Sololá	3	Barraneche	3	Marzo	2023-03-22T00:00:00	2024-11-06T17:00:00	4	Temperatura máxima	18.5
15499	7	Sololá	701	Sololá	3	Barraneche	3	Marzo	2023-03-22T00:00:00	2024-11-06T17:00:00	3	Temperatura mínima	16.8
15500	7	Sololá	701	Sololá	3	Barraneche	3	Marzo	2023-03-22T00:00:00	2024-11-06T17:00:00	5	Humedad	49
15501	7	Sololá	701	Sololá	3	Barraneche	3	Marzo	2023-03-22T00:00:00	2024-11-06T17:00:00	6	Velocidad del viento	9.7
15502	7	Sololá	701	Sololá	3	Barraneche	3	Marzo	2023-03-22T00:00:00	2024-11-06T17:00:00	7	Dirección del viento	9.66
15503	7	Sololá	701	Sololá	3	Barraneche	3	Marzo	2023-03-22T00:00:00	2024-11-06T17:00:00	1	Precipitación	0
15504	7	Sololá	701	Sololá	3	Barraneche	3	Marzo	2023-03-22T00:00:00	2024-11-06T17:00:00	8	Radiación solar	259
15505	7	Sololá	701	Sololá	3	Barraneche	3	Marzo	2023-03-22T00:00:00	2024-11-06T18:00:00	2	Temperatura media	15.6
15506	7	Sololá	701	Sololá	3	Barraneche	3	Marzo	2023-03-22T00:00:00	2024-11-06T18:00:00	4	Temperatura máxima	16.8
15507	7	Sololá	701	Sololá	3	Barraneche	3	Marzo	2023-03-22T00:00:00	2024-11-06T18:00:00	3	Temperatura mínima	15.5
15508	7	Sololá	701	Sololá	3	Barraneche	3	Marzo	2023-03-22T00:00:00	2024-11-06T18:00:00	5	Humedad	57
15509	7	Sololá	701	Sololá	3	Barraneche	3	Marzo	2023-03-22T00:00:00	2024-11-06T18:00:00	6	Velocidad del viento	6.4
15510	7	Sololá	701	Sololá	3	Barraneche	3	Marzo	2023-03-22T00:00:00	2024-11-06T18:00:00	7	Dirección del viento	6.44
15511	7	Sololá	701	Sololá	3	Barraneche	3	Marzo	2023-03-22T00:00:00	2024-11-06T18:00:00	1	Precipitación	0
15512	7	Sololá	701	Sololá	3	Barraneche	3	Marzo	2023-03-22T00:00:00	2024-11-06T18:00:00	8	Radiación solar	58
15513	7	Sololá	701	Sololá	3	Barraneche	3	Marzo	2023-03-22T00:00:00	2024-11-06T19:00:00	2	Temperatura media	14
15514	7	Sololá	701	Sololá	3	Barraneche	3	Marzo	2023-03-22T00:00:00	2024-11-06T19:00:00	4	Temperatura máxima	15.6
15515	7	Sololá	701	Sololá	3	Barraneche	3	Marzo	2023-03-22T00:00:00	2024-11-06T19:00:00	3	Temperatura mínima	14
15516	7	Sololá	701	Sololá	3	Barraneche	3	Marzo	2023-03-22T00:00:00	2024-11-06T19:00:00	5	Humedad	62
15517	7	Sololá	701	Sololá	3	Barraneche	3	Marzo	2023-03-22T00:00:00	2024-11-06T19:00:00	6	Velocidad del viento	16.1
15518	7	Sololá	701	Sololá	3	Barraneche	3	Marzo	2023-03-22T00:00:00	2024-11-06T19:00:00	7	Dirección del viento	16.09
15519	7	Sololá	701	Sololá	3	Barraneche	3	Marzo	2023-03-22T00:00:00	2024-11-06T19:00:00	1	Precipitación	0
15520	7	Sololá	701	Sololá	3	Barraneche	3	Marzo	2023-03-22T00:00:00	2024-11-06T19:00:00	8	Radiación solar	0
15521	7	Sololá	701	Sololá	3	Barraneche	3	Marzo	2023-03-22T00:00:00	2024-11-06T20:00:00	2	Temperatura media	13.9
15522	7	Sololá	701	Sololá	3	Barraneche	3	Marzo	2023-03-22T00:00:00	2024-11-06T20:00:00	4	Temperatura máxima	14.1
15523	7	Sololá	701	Sololá	3	Barraneche	3	Marzo	2023-03-22T00:00:00	2024-11-06T20:00:00	3	Temperatura mínima	13.9
15524	7	Sololá	701	Sololá	3	Barraneche	3	Marzo	2023-03-22T00:00:00	2024-11-06T20:00:00	5	Humedad	62
15525	7	Sololá	701	Sololá	3	Barraneche	3	Marzo	2023-03-22T00:00:00	2024-11-06T20:00:00	6	Velocidad del viento	19.3
15526	7	Sololá	701	Sololá	3	Barraneche	3	Marzo	2023-03-22T00:00:00	2024-11-06T20:00:00	7	Dirección del viento	19.31
15527	7	Sololá	701	Sololá	3	Barraneche	3	Marzo	2023-03-22T00:00:00	2024-11-06T20:00:00	1	Precipitación	0
15528	7	Sololá	701	Sololá	3	Barraneche	3	Marzo	2023-03-22T00:00:00	2024-11-06T20:00:00	8	Radiación solar	0
15529	7	Sololá	701	Sololá	3	Barraneche	3	Marzo	2023-03-22T00:00:00	2024-11-06T21:00:00	2	Temperatura media	13.7
15530	7	Sololá	701	Sololá	3	Barraneche	3	Marzo	2023-03-22T00:00:00	2024-11-06T21:00:00	4	Temperatura máxima	14
15531	7	Sololá	701	Sololá	3	Barraneche	3	Marzo	2023-03-22T00:00:00	2024-11-06T21:00:00	3	Temperatura mínima	13.6
15532	7	Sololá	701	Sololá	3	Barraneche	3	Marzo	2023-03-22T00:00:00	2024-11-06T21:00:00	5	Humedad	61
15533	7	Sololá	701	Sololá	3	Barraneche	3	Marzo	2023-03-22T00:00:00	2024-11-06T21:00:00	6	Velocidad del viento	16.1
15534	7	Sololá	701	Sololá	3	Barraneche	3	Marzo	2023-03-22T00:00:00	2024-11-06T21:00:00	7	Dirección del viento	16.09
15535	7	Sololá	701	Sololá	3	Barraneche	3	Marzo	2023-03-22T00:00:00	2024-11-06T21:00:00	1	Precipitación	0
15536	7	Sololá	701	Sololá	3	Barraneche	3	Marzo	2023-03-22T00:00:00	2024-11-06T21:00:00	8	Radiación solar	0
15537	7	Sololá	701	Sololá	3	Barraneche	3	Marzo	2023-03-22T00:00:00	2024-11-06T22:00:00	2	Temperatura media	13.1
15538	7	Sololá	701	Sololá	3	Barraneche	3	Marzo	2023-03-22T00:00:00	2024-11-06T22:00:00	4	Temperatura máxima	13.7
15539	7	Sololá	701	Sololá	3	Barraneche	3	Marzo	2023-03-22T00:00:00	2024-11-06T22:00:00	3	Temperatura mínima	13.1
15540	7	Sololá	701	Sololá	3	Barraneche	3	Marzo	2023-03-22T00:00:00	2024-11-06T22:00:00	5	Humedad	60
15541	7	Sololá	701	Sololá	3	Barraneche	3	Marzo	2023-03-22T00:00:00	2024-11-06T22:00:00	6	Velocidad del viento	12.9
15542	7	Sololá	701	Sololá	3	Barraneche	3	Marzo	2023-03-22T00:00:00	2024-11-06T22:00:00	7	Dirección del viento	12.87
15543	7	Sololá	701	Sololá	3	Barraneche	3	Marzo	2023-03-22T00:00:00	2024-11-06T22:00:00	1	Precipitación	0
15544	7	Sololá	701	Sololá	3	Barraneche	3	Marzo	2023-03-22T00:00:00	2024-11-06T22:00:00	8	Radiación solar	0
15545	7	Sololá	701	Sololá	3	Barraneche	3	Marzo	2023-03-22T00:00:00	2024-11-06T23:00:00	2	Temperatura media	12.8
15546	7	Sololá	701	Sololá	3	Barraneche	3	Marzo	2023-03-22T00:00:00	2024-11-06T23:00:00	4	Temperatura máxima	13.2
15547	7	Sololá	701	Sololá	3	Barraneche	3	Marzo	2023-03-22T00:00:00	2024-11-06T23:00:00	3	Temperatura mínima	12.5
15548	7	Sololá	701	Sololá	3	Barraneche	3	Marzo	2023-03-22T00:00:00	2024-11-06T23:00:00	5	Humedad	57
15549	7	Sololá	701	Sololá	3	Barraneche	3	Marzo	2023-03-22T00:00:00	2024-11-06T23:00:00	6	Velocidad del viento	11.3
15550	7	Sololá	701	Sololá	3	Barraneche	3	Marzo	2023-03-22T00:00:00	2024-11-06T23:00:00	7	Dirección del viento	11.27
15551	7	Sololá	701	Sololá	3	Barraneche	3	Marzo	2023-03-22T00:00:00	2024-11-06T23:00:00	1	Precipitación	0
15552	7	Sololá	701	Sololá	3	Barraneche	3	Marzo	2023-03-22T00:00:00	2024-11-06T23:00:00	8	Radiación solar	0
15553	7	Sololá	701	Sololá	3	Barraneche	3	Marzo	2023-03-23T00:00:00	2024-11-06T00:00:00	2	Temperatura media	12.8
15554	7	Sololá	701	Sololá	3	Barraneche	3	Marzo	2023-03-23T00:00:00	2024-11-06T00:00:00	4	Temperatura máxima	12.8
15555	7	Sololá	701	Sololá	3	Barraneche	3	Marzo	2023-03-23T00:00:00	2024-11-06T00:00:00	3	Temperatura mínima	12.5
15556	7	Sololá	701	Sololá	3	Barraneche	3	Marzo	2023-03-23T00:00:00	2024-11-06T00:00:00	5	Humedad	57
15557	7	Sololá	701	Sololá	3	Barraneche	3	Marzo	2023-03-23T00:00:00	2024-11-06T00:00:00	6	Velocidad del viento	16.1
15558	7	Sololá	701	Sololá	3	Barraneche	3	Marzo	2023-03-23T00:00:00	2024-11-06T00:00:00	7	Dirección del viento	16.09
15559	7	Sololá	701	Sololá	3	Barraneche	3	Marzo	2023-03-23T00:00:00	2024-11-06T00:00:00	1	Precipitación	0
15560	7	Sololá	701	Sololá	3	Barraneche	3	Marzo	2023-03-23T00:00:00	2024-11-06T00:00:00	8	Radiación solar	0
15561	7	Sololá	701	Sololá	3	Barraneche	3	Marzo	2023-03-23T00:00:00	2024-11-06T01:00:00	2	Temperatura media	12.4
15562	7	Sololá	701	Sololá	3	Barraneche	3	Marzo	2023-03-23T00:00:00	2024-11-06T01:00:00	4	Temperatura máxima	13.1
15563	7	Sololá	701	Sololá	3	Barraneche	3	Marzo	2023-03-23T00:00:00	2024-11-06T01:00:00	3	Temperatura mínima	12.4
15564	7	Sololá	701	Sololá	3	Barraneche	3	Marzo	2023-03-23T00:00:00	2024-11-06T01:00:00	5	Humedad	56
15565	7	Sololá	701	Sololá	3	Barraneche	3	Marzo	2023-03-23T00:00:00	2024-11-06T01:00:00	6	Velocidad del viento	8
15566	7	Sololá	701	Sololá	3	Barraneche	3	Marzo	2023-03-23T00:00:00	2024-11-06T01:00:00	7	Dirección del viento	8.05
15567	7	Sololá	701	Sololá	3	Barraneche	3	Marzo	2023-03-23T00:00:00	2024-11-06T01:00:00	1	Precipitación	0
15568	7	Sololá	701	Sololá	3	Barraneche	3	Marzo	2023-03-23T00:00:00	2024-11-06T01:00:00	8	Radiación solar	0
15569	7	Sololá	701	Sololá	3	Barraneche	3	Marzo	2023-03-23T00:00:00	2024-11-06T02:00:00	2	Temperatura media	9.8
15570	7	Sololá	701	Sololá	3	Barraneche	3	Marzo	2023-03-23T00:00:00	2024-11-06T02:00:00	4	Temperatura máxima	12.4
15571	7	Sololá	701	Sololá	3	Barraneche	3	Marzo	2023-03-23T00:00:00	2024-11-06T02:00:00	3	Temperatura mínima	9.8
15572	7	Sololá	701	Sololá	3	Barraneche	3	Marzo	2023-03-23T00:00:00	2024-11-06T02:00:00	5	Humedad	64
15573	7	Sololá	701	Sololá	3	Barraneche	3	Marzo	2023-03-23T00:00:00	2024-11-06T02:00:00	6	Velocidad del viento	3.2
15574	7	Sololá	701	Sololá	3	Barraneche	3	Marzo	2023-03-23T00:00:00	2024-11-06T02:00:00	7	Dirección del viento	3.22
15575	7	Sololá	701	Sololá	3	Barraneche	3	Marzo	2023-03-23T00:00:00	2024-11-06T02:00:00	1	Precipitación	0
15576	7	Sololá	701	Sololá	3	Barraneche	3	Marzo	2023-03-23T00:00:00	2024-11-06T02:00:00	8	Radiación solar	0
15577	7	Sololá	701	Sololá	3	Barraneche	3	Marzo	2023-03-23T00:00:00	2024-11-06T03:00:00	2	Temperatura media	9.7
15578	7	Sololá	701	Sololá	3	Barraneche	3	Marzo	2023-03-23T00:00:00	2024-11-06T03:00:00	4	Temperatura máxima	9.8
15579	7	Sololá	701	Sololá	3	Barraneche	3	Marzo	2023-03-23T00:00:00	2024-11-06T03:00:00	3	Temperatura mínima	9.3
15580	7	Sololá	701	Sololá	3	Barraneche	3	Marzo	2023-03-23T00:00:00	2024-11-06T03:00:00	5	Humedad	64
15581	7	Sololá	701	Sololá	3	Barraneche	3	Marzo	2023-03-23T00:00:00	2024-11-06T03:00:00	6	Velocidad del viento	3.2
15582	7	Sololá	701	Sololá	3	Barraneche	3	Marzo	2023-03-23T00:00:00	2024-11-06T03:00:00	7	Dirección del viento	3.22
15583	7	Sololá	701	Sololá	3	Barraneche	3	Marzo	2023-03-23T00:00:00	2024-11-06T03:00:00	1	Precipitación	0
15584	7	Sololá	701	Sololá	3	Barraneche	3	Marzo	2023-03-23T00:00:00	2024-11-06T03:00:00	8	Radiación solar	0
15585	7	Sololá	701	Sololá	3	Barraneche	3	Marzo	2023-03-23T00:00:00	2024-11-06T04:00:00	2	Temperatura media	9
15586	7	Sololá	701	Sololá	3	Barraneche	3	Marzo	2023-03-23T00:00:00	2024-11-06T04:00:00	4	Temperatura máxima	9.7
15587	7	Sololá	701	Sololá	3	Barraneche	3	Marzo	2023-03-23T00:00:00	2024-11-06T04:00:00	3	Temperatura mínima	9
15588	7	Sololá	701	Sololá	3	Barraneche	3	Marzo	2023-03-23T00:00:00	2024-11-06T04:00:00	5	Humedad	68
15589	7	Sololá	701	Sololá	3	Barraneche	3	Marzo	2023-03-23T00:00:00	2024-11-06T04:00:00	6	Velocidad del viento	4.8
15590	7	Sololá	701	Sololá	3	Barraneche	3	Marzo	2023-03-23T00:00:00	2024-11-06T04:00:00	7	Dirección del viento	4.83
15591	7	Sololá	701	Sololá	3	Barraneche	3	Marzo	2023-03-23T00:00:00	2024-11-06T04:00:00	1	Precipitación	0
15592	7	Sololá	701	Sololá	3	Barraneche	3	Marzo	2023-03-23T00:00:00	2024-11-06T04:00:00	8	Radiación solar	0
15593	7	Sololá	701	Sololá	3	Barraneche	3	Marzo	2023-03-23T00:00:00	2024-11-06T05:00:00	2	Temperatura media	8.8
15594	7	Sololá	701	Sololá	3	Barraneche	3	Marzo	2023-03-23T00:00:00	2024-11-06T05:00:00	4	Temperatura máxima	9.2
15595	7	Sololá	701	Sololá	3	Barraneche	3	Marzo	2023-03-23T00:00:00	2024-11-06T05:00:00	3	Temperatura mínima	8.7
15596	7	Sololá	701	Sololá	3	Barraneche	3	Marzo	2023-03-23T00:00:00	2024-11-06T05:00:00	5	Humedad	69
15597	7	Sololá	701	Sololá	3	Barraneche	3	Marzo	2023-03-23T00:00:00	2024-11-06T05:00:00	6	Velocidad del viento	4.8
15598	7	Sololá	701	Sololá	3	Barraneche	3	Marzo	2023-03-23T00:00:00	2024-11-06T05:00:00	7	Dirección del viento	4.83
15599	7	Sololá	701	Sololá	3	Barraneche	3	Marzo	2023-03-23T00:00:00	2024-11-06T05:00:00	1	Precipitación	0
15600	7	Sololá	701	Sololá	3	Barraneche	3	Marzo	2023-03-23T00:00:00	2024-11-06T05:00:00	8	Radiación solar	0
15601	7	Sololá	701	Sololá	3	Barraneche	3	Marzo	2023-03-23T00:00:00	2024-11-06T06:00:00	2	Temperatura media	8.9
15602	7	Sololá	701	Sololá	3	Barraneche	3	Marzo	2023-03-23T00:00:00	2024-11-06T06:00:00	4	Temperatura máxima	9.6
15603	7	Sololá	701	Sololá	3	Barraneche	3	Marzo	2023-03-23T00:00:00	2024-11-06T06:00:00	3	Temperatura mínima	8.5
15604	7	Sololá	701	Sololá	3	Barraneche	3	Marzo	2023-03-23T00:00:00	2024-11-06T06:00:00	5	Humedad	70
15605	7	Sololá	701	Sololá	3	Barraneche	3	Marzo	2023-03-23T00:00:00	2024-11-06T06:00:00	6	Velocidad del viento	3.2
15606	7	Sololá	701	Sololá	3	Barraneche	3	Marzo	2023-03-23T00:00:00	2024-11-06T06:00:00	7	Dirección del viento	3.22
15607	7	Sololá	701	Sololá	3	Barraneche	3	Marzo	2023-03-23T00:00:00	2024-11-06T06:00:00	1	Precipitación	0
15608	7	Sololá	701	Sololá	3	Barraneche	3	Marzo	2023-03-23T00:00:00	2024-11-06T06:00:00	8	Radiación solar	0
15609	7	Sololá	701	Sololá	3	Barraneche	3	Marzo	2023-03-23T00:00:00	2024-11-06T07:00:00	2	Temperatura media	10.4
15610	7	Sololá	701	Sololá	3	Barraneche	3	Marzo	2023-03-23T00:00:00	2024-11-06T07:00:00	4	Temperatura máxima	10.4
15611	7	Sololá	701	Sololá	3	Barraneche	3	Marzo	2023-03-23T00:00:00	2024-11-06T07:00:00	3	Temperatura mínima	8.7
15612	7	Sololá	701	Sololá	3	Barraneche	3	Marzo	2023-03-23T00:00:00	2024-11-06T07:00:00	5	Humedad	67
15613	7	Sololá	701	Sololá	3	Barraneche	3	Marzo	2023-03-23T00:00:00	2024-11-06T07:00:00	6	Velocidad del viento	3.2
15614	7	Sololá	701	Sololá	3	Barraneche	3	Marzo	2023-03-23T00:00:00	2024-11-06T07:00:00	7	Dirección del viento	3.22
15615	7	Sololá	701	Sololá	3	Barraneche	3	Marzo	2023-03-23T00:00:00	2024-11-06T07:00:00	1	Precipitación	0
15616	7	Sololá	701	Sololá	3	Barraneche	3	Marzo	2023-03-23T00:00:00	2024-11-06T07:00:00	8	Radiación solar	20
15617	7	Sololá	701	Sololá	3	Barraneche	3	Marzo	2023-03-23T00:00:00	2024-11-06T08:00:00	2	Temperatura media	14.4
15618	7	Sololá	701	Sololá	3	Barraneche	3	Marzo	2023-03-23T00:00:00	2024-11-06T08:00:00	4	Temperatura máxima	14.4
15619	7	Sololá	701	Sololá	3	Barraneche	3	Marzo	2023-03-23T00:00:00	2024-11-06T08:00:00	3	Temperatura mínima	10.4
15620	7	Sololá	701	Sololá	3	Barraneche	3	Marzo	2023-03-23T00:00:00	2024-11-06T08:00:00	5	Humedad	58
15621	7	Sololá	701	Sololá	3	Barraneche	3	Marzo	2023-03-23T00:00:00	2024-11-06T08:00:00	6	Velocidad del viento	4.8
15622	7	Sololá	701	Sololá	3	Barraneche	3	Marzo	2023-03-23T00:00:00	2024-11-06T08:00:00	7	Dirección del viento	4.83
15623	7	Sololá	701	Sololá	3	Barraneche	3	Marzo	2023-03-23T00:00:00	2024-11-06T08:00:00	1	Precipitación	0
15624	7	Sololá	701	Sololá	3	Barraneche	3	Marzo	2023-03-23T00:00:00	2024-11-06T08:00:00	8	Radiación solar	297
15625	7	Sololá	701	Sololá	3	Barraneche	3	Marzo	2023-03-23T00:00:00	2024-11-06T09:00:00	2	Temperatura media	15.1
15626	7	Sololá	701	Sololá	3	Barraneche	3	Marzo	2023-03-23T00:00:00	2024-11-06T09:00:00	4	Temperatura máxima	15.2
15627	7	Sololá	701	Sololá	3	Barraneche	3	Marzo	2023-03-23T00:00:00	2024-11-06T09:00:00	3	Temperatura mínima	14
15628	7	Sololá	701	Sololá	3	Barraneche	3	Marzo	2023-03-23T00:00:00	2024-11-06T09:00:00	5	Humedad	57
15629	7	Sololá	701	Sololá	3	Barraneche	3	Marzo	2023-03-23T00:00:00	2024-11-06T09:00:00	6	Velocidad del viento	19.3
15630	7	Sololá	701	Sololá	3	Barraneche	3	Marzo	2023-03-23T00:00:00	2024-11-06T09:00:00	7	Dirección del viento	19.31
15631	7	Sololá	701	Sololá	3	Barraneche	3	Marzo	2023-03-23T00:00:00	2024-11-06T09:00:00	1	Precipitación	0
15632	7	Sololá	701	Sololá	3	Barraneche	3	Marzo	2023-03-23T00:00:00	2024-11-06T09:00:00	8	Radiación solar	546
15633	7	Sololá	701	Sololá	3	Barraneche	3	Marzo	2023-03-23T00:00:00	2024-11-06T10:00:00	2	Temperatura media	15.4
15634	7	Sololá	701	Sololá	3	Barraneche	3	Marzo	2023-03-23T00:00:00	2024-11-06T10:00:00	4	Temperatura máxima	15.8
15635	7	Sololá	701	Sololá	3	Barraneche	3	Marzo	2023-03-23T00:00:00	2024-11-06T10:00:00	3	Temperatura mínima	14.9
15636	7	Sololá	701	Sololá	3	Barraneche	3	Marzo	2023-03-23T00:00:00	2024-11-06T10:00:00	5	Humedad	55
15637	7	Sololá	701	Sololá	3	Barraneche	3	Marzo	2023-03-23T00:00:00	2024-11-06T10:00:00	6	Velocidad del viento	19.3
15638	7	Sololá	701	Sololá	3	Barraneche	3	Marzo	2023-03-23T00:00:00	2024-11-06T10:00:00	7	Dirección del viento	19.31
15639	7	Sololá	701	Sololá	3	Barraneche	3	Marzo	2023-03-23T00:00:00	2024-11-06T10:00:00	1	Precipitación	0
15640	7	Sololá	701	Sololá	3	Barraneche	3	Marzo	2023-03-23T00:00:00	2024-11-06T10:00:00	8	Radiación solar	737
15641	7	Sololá	701	Sololá	3	Barraneche	3	Marzo	2023-03-23T00:00:00	2024-11-06T11:00:00	2	Temperatura media	16.9
15642	7	Sololá	701	Sololá	3	Barraneche	3	Marzo	2023-03-23T00:00:00	2024-11-06T11:00:00	4	Temperatura máxima	16.9
15643	7	Sololá	701	Sololá	3	Barraneche	3	Marzo	2023-03-23T00:00:00	2024-11-06T11:00:00	3	Temperatura mínima	15.4
15644	7	Sololá	701	Sololá	3	Barraneche	3	Marzo	2023-03-23T00:00:00	2024-11-06T11:00:00	5	Humedad	51
15645	7	Sololá	701	Sololá	3	Barraneche	3	Marzo	2023-03-23T00:00:00	2024-11-06T11:00:00	6	Velocidad del viento	19.3
15646	7	Sololá	701	Sololá	3	Barraneche	3	Marzo	2023-03-23T00:00:00	2024-11-06T11:00:00	7	Dirección del viento	19.31
15647	7	Sololá	701	Sololá	3	Barraneche	3	Marzo	2023-03-23T00:00:00	2024-11-06T11:00:00	1	Precipitación	0
15648	7	Sololá	701	Sololá	3	Barraneche	3	Marzo	2023-03-23T00:00:00	2024-11-06T11:00:00	8	Radiación solar	1022
15649	7	Sololá	701	Sololá	3	Barraneche	3	Marzo	2023-03-23T00:00:00	2024-11-06T12:00:00	2	Temperatura media	17.9
15650	7	Sololá	701	Sololá	3	Barraneche	3	Marzo	2023-03-23T00:00:00	2024-11-06T12:00:00	4	Temperatura máxima	17.9
15651	7	Sololá	701	Sololá	3	Barraneche	3	Marzo	2023-03-23T00:00:00	2024-11-06T12:00:00	3	Temperatura mínima	16.4
15652	7	Sololá	701	Sololá	3	Barraneche	3	Marzo	2023-03-23T00:00:00	2024-11-06T12:00:00	5	Humedad	46
15653	7	Sololá	701	Sololá	3	Barraneche	3	Marzo	2023-03-23T00:00:00	2024-11-06T12:00:00	6	Velocidad del viento	17.7
15654	7	Sololá	701	Sololá	3	Barraneche	3	Marzo	2023-03-23T00:00:00	2024-11-06T12:00:00	7	Dirección del viento	17.7
15655	7	Sololá	701	Sololá	3	Barraneche	3	Marzo	2023-03-23T00:00:00	2024-11-06T12:00:00	1	Precipitación	0
15656	7	Sololá	701	Sololá	3	Barraneche	3	Marzo	2023-03-23T00:00:00	2024-11-06T12:00:00	8	Radiación solar	1032
15657	7	Sololá	701	Sololá	3	Barraneche	3	Marzo	2023-03-23T00:00:00	2024-11-06T13:00:00	2	Temperatura media	18.9
15658	7	Sololá	701	Sololá	3	Barraneche	3	Marzo	2023-03-23T00:00:00	2024-11-06T13:00:00	4	Temperatura máxima	19.1
15659	7	Sololá	701	Sololá	3	Barraneche	3	Marzo	2023-03-23T00:00:00	2024-11-06T13:00:00	3	Temperatura mínima	17.7
15660	7	Sololá	701	Sololá	3	Barraneche	3	Marzo	2023-03-23T00:00:00	2024-11-06T13:00:00	5	Humedad	44
15661	7	Sololá	701	Sololá	3	Barraneche	3	Marzo	2023-03-23T00:00:00	2024-11-06T13:00:00	6	Velocidad del viento	17.7
15662	7	Sololá	701	Sololá	3	Barraneche	3	Marzo	2023-03-23T00:00:00	2024-11-06T13:00:00	7	Dirección del viento	17.7
15663	7	Sololá	701	Sololá	3	Barraneche	3	Marzo	2023-03-23T00:00:00	2024-11-06T13:00:00	1	Precipitación	0
15664	7	Sololá	701	Sololá	3	Barraneche	3	Marzo	2023-03-23T00:00:00	2024-11-06T13:00:00	8	Radiación solar	1098
15665	7	Sololá	701	Sololá	3	Barraneche	3	Marzo	2023-03-23T00:00:00	2024-11-06T14:00:00	2	Temperatura media	18.8
15666	7	Sololá	701	Sololá	3	Barraneche	3	Marzo	2023-03-23T00:00:00	2024-11-06T14:00:00	4	Temperatura máxima	19.4
15667	7	Sololá	701	Sololá	3	Barraneche	3	Marzo	2023-03-23T00:00:00	2024-11-06T14:00:00	3	Temperatura mínima	18.4
15668	7	Sololá	701	Sololá	3	Barraneche	3	Marzo	2023-03-23T00:00:00	2024-11-06T14:00:00	5	Humedad	43
15669	7	Sololá	701	Sololá	3	Barraneche	3	Marzo	2023-03-23T00:00:00	2024-11-06T14:00:00	6	Velocidad del viento	17.7
15670	7	Sololá	701	Sololá	3	Barraneche	3	Marzo	2023-03-23T00:00:00	2024-11-06T14:00:00	7	Dirección del viento	17.7
15671	7	Sololá	701	Sololá	3	Barraneche	3	Marzo	2023-03-23T00:00:00	2024-11-06T14:00:00	1	Precipitación	0
15672	7	Sololá	701	Sololá	3	Barraneche	3	Marzo	2023-03-23T00:00:00	2024-11-06T14:00:00	8	Radiación solar	1091
15673	7	Sololá	701	Sololá	3	Barraneche	3	Marzo	2023-03-23T00:00:00	2024-11-06T15:00:00	2	Temperatura media	18.3
15674	7	Sololá	701	Sololá	3	Barraneche	3	Marzo	2023-03-23T00:00:00	2024-11-06T15:00:00	4	Temperatura máxima	19.1
15675	7	Sololá	701	Sololá	3	Barraneche	3	Marzo	2023-03-23T00:00:00	2024-11-06T15:00:00	3	Temperatura mínima	18
15676	7	Sololá	701	Sololá	3	Barraneche	3	Marzo	2023-03-23T00:00:00	2024-11-06T15:00:00	5	Humedad	45
15677	7	Sololá	701	Sololá	3	Barraneche	3	Marzo	2023-03-23T00:00:00	2024-11-06T15:00:00	6	Velocidad del viento	19.3
15678	7	Sololá	701	Sololá	3	Barraneche	3	Marzo	2023-03-23T00:00:00	2024-11-06T15:00:00	7	Dirección del viento	19.31
15679	7	Sololá	701	Sololá	3	Barraneche	3	Marzo	2023-03-23T00:00:00	2024-11-06T15:00:00	1	Precipitación	0
15680	7	Sololá	701	Sololá	3	Barraneche	3	Marzo	2023-03-23T00:00:00	2024-11-06T15:00:00	8	Radiación solar	800
15681	7	Sololá	701	Sololá	3	Barraneche	3	Marzo	2023-03-23T00:00:00	2024-11-06T16:00:00	2	Temperatura media	18.2
15682	7	Sololá	701	Sololá	3	Barraneche	3	Marzo	2023-03-23T00:00:00	2024-11-06T16:00:00	4	Temperatura máxima	18.7
15683	7	Sololá	701	Sololá	3	Barraneche	3	Marzo	2023-03-23T00:00:00	2024-11-06T16:00:00	3	Temperatura mínima	18
15684	7	Sololá	701	Sololá	3	Barraneche	3	Marzo	2023-03-23T00:00:00	2024-11-06T16:00:00	5	Humedad	46
15685	7	Sololá	701	Sololá	3	Barraneche	3	Marzo	2023-03-23T00:00:00	2024-11-06T16:00:00	6	Velocidad del viento	20.9
15686	7	Sololá	701	Sololá	3	Barraneche	3	Marzo	2023-03-23T00:00:00	2024-11-06T16:00:00	7	Dirección del viento	20.92
15687	7	Sololá	701	Sololá	3	Barraneche	3	Marzo	2023-03-23T00:00:00	2024-11-06T16:00:00	1	Precipitación	0
15688	7	Sololá	701	Sololá	3	Barraneche	3	Marzo	2023-03-23T00:00:00	2024-11-06T16:00:00	8	Radiación solar	571
15689	7	Sololá	701	Sololá	3	Barraneche	3	Marzo	2023-03-23T00:00:00	2024-11-06T17:00:00	2	Temperatura media	16.7
15690	7	Sololá	701	Sololá	3	Barraneche	3	Marzo	2023-03-23T00:00:00	2024-11-06T17:00:00	4	Temperatura máxima	18.2
15691	7	Sololá	701	Sololá	3	Barraneche	3	Marzo	2023-03-23T00:00:00	2024-11-06T17:00:00	3	Temperatura mínima	16.7
15692	7	Sololá	701	Sololá	3	Barraneche	3	Marzo	2023-03-23T00:00:00	2024-11-06T17:00:00	5	Humedad	50
15693	7	Sololá	701	Sololá	3	Barraneche	3	Marzo	2023-03-23T00:00:00	2024-11-06T17:00:00	6	Velocidad del viento	19.3
15694	7	Sololá	701	Sololá	3	Barraneche	3	Marzo	2023-03-23T00:00:00	2024-11-06T17:00:00	7	Dirección del viento	19.31
15695	7	Sololá	701	Sololá	3	Barraneche	3	Marzo	2023-03-23T00:00:00	2024-11-06T17:00:00	1	Precipitación	0
15696	7	Sololá	701	Sololá	3	Barraneche	3	Marzo	2023-03-23T00:00:00	2024-11-06T17:00:00	8	Radiación solar	259
15697	7	Sololá	701	Sololá	3	Barraneche	3	Marzo	2023-03-23T00:00:00	2024-11-06T18:00:00	2	Temperatura media	15.4
15698	7	Sololá	701	Sololá	3	Barraneche	3	Marzo	2023-03-23T00:00:00	2024-11-06T18:00:00	4	Temperatura máxima	16.8
15699	7	Sololá	701	Sololá	3	Barraneche	3	Marzo	2023-03-23T00:00:00	2024-11-06T18:00:00	3	Temperatura mínima	15.4
15700	7	Sololá	701	Sololá	3	Barraneche	3	Marzo	2023-03-23T00:00:00	2024-11-06T18:00:00	5	Humedad	54
15701	7	Sololá	701	Sololá	3	Barraneche	3	Marzo	2023-03-23T00:00:00	2024-11-06T18:00:00	6	Velocidad del viento	16.1
15702	7	Sololá	701	Sololá	3	Barraneche	3	Marzo	2023-03-23T00:00:00	2024-11-06T18:00:00	7	Dirección del viento	16.09
15703	7	Sololá	701	Sololá	3	Barraneche	3	Marzo	2023-03-23T00:00:00	2024-11-06T18:00:00	1	Precipitación	0
15704	7	Sololá	701	Sololá	3	Barraneche	3	Marzo	2023-03-23T00:00:00	2024-11-06T18:00:00	8	Radiación solar	51
15705	7	Sololá	701	Sololá	3	Barraneche	3	Marzo	2023-03-23T00:00:00	2024-11-06T19:00:00	2	Temperatura media	14.6
15706	7	Sololá	701	Sololá	3	Barraneche	3	Marzo	2023-03-23T00:00:00	2024-11-06T19:00:00	4	Temperatura máxima	15.5
15707	7	Sololá	701	Sololá	3	Barraneche	3	Marzo	2023-03-23T00:00:00	2024-11-06T19:00:00	3	Temperatura mínima	14.6
15708	7	Sololá	701	Sololá	3	Barraneche	3	Marzo	2023-03-23T00:00:00	2024-11-06T19:00:00	5	Humedad	59
15709	7	Sololá	701	Sololá	3	Barraneche	3	Marzo	2023-03-23T00:00:00	2024-11-06T19:00:00	6	Velocidad del viento	17.7
15710	7	Sololá	701	Sololá	3	Barraneche	3	Marzo	2023-03-23T00:00:00	2024-11-06T19:00:00	7	Dirección del viento	17.7
15711	7	Sololá	701	Sololá	3	Barraneche	3	Marzo	2023-03-23T00:00:00	2024-11-06T19:00:00	1	Precipitación	0
15712	7	Sololá	701	Sololá	3	Barraneche	3	Marzo	2023-03-23T00:00:00	2024-11-06T19:00:00	8	Radiación solar	0
15713	7	Sololá	701	Sololá	3	Barraneche	3	Marzo	2023-03-23T00:00:00	2024-11-06T20:00:00	2	Temperatura media	14.2
15714	7	Sololá	701	Sololá	3	Barraneche	3	Marzo	2023-03-23T00:00:00	2024-11-06T20:00:00	4	Temperatura máxima	14.6
15715	7	Sololá	701	Sololá	3	Barraneche	3	Marzo	2023-03-23T00:00:00	2024-11-06T20:00:00	3	Temperatura mínima	14.1
15716	7	Sololá	701	Sololá	3	Barraneche	3	Marzo	2023-03-23T00:00:00	2024-11-06T20:00:00	5	Humedad	58
15717	7	Sololá	701	Sololá	3	Barraneche	3	Marzo	2023-03-23T00:00:00	2024-11-06T20:00:00	6	Velocidad del viento	9.7
15718	7	Sololá	701	Sololá	3	Barraneche	3	Marzo	2023-03-23T00:00:00	2024-11-06T20:00:00	7	Dirección del viento	9.66
15719	7	Sololá	701	Sololá	3	Barraneche	3	Marzo	2023-03-23T00:00:00	2024-11-06T20:00:00	1	Precipitación	0
15720	7	Sololá	701	Sololá	3	Barraneche	3	Marzo	2023-03-23T00:00:00	2024-11-06T20:00:00	8	Radiación solar	0
15721	7	Sololá	701	Sololá	3	Barraneche	3	Marzo	2023-03-23T00:00:00	2024-11-06T21:00:00	2	Temperatura media	14.1
15722	7	Sololá	701	Sololá	3	Barraneche	3	Marzo	2023-03-23T00:00:00	2024-11-06T21:00:00	4	Temperatura máxima	14.2
15723	7	Sololá	701	Sololá	3	Barraneche	3	Marzo	2023-03-23T00:00:00	2024-11-06T21:00:00	3	Temperatura mínima	13.9
15724	7	Sololá	701	Sololá	3	Barraneche	3	Marzo	2023-03-23T00:00:00	2024-11-06T21:00:00	5	Humedad	58
15725	7	Sololá	701	Sololá	3	Barraneche	3	Marzo	2023-03-23T00:00:00	2024-11-06T21:00:00	6	Velocidad del viento	8
15726	7	Sololá	701	Sololá	3	Barraneche	3	Marzo	2023-03-23T00:00:00	2024-11-06T21:00:00	7	Dirección del viento	8.05
15727	7	Sololá	701	Sololá	3	Barraneche	3	Marzo	2023-03-23T00:00:00	2024-11-06T21:00:00	1	Precipitación	0
15728	7	Sololá	701	Sololá	3	Barraneche	3	Marzo	2023-03-23T00:00:00	2024-11-06T21:00:00	8	Radiación solar	0
15729	7	Sololá	701	Sololá	3	Barraneche	3	Marzo	2023-03-23T00:00:00	2024-11-06T22:00:00	2	Temperatura media	13.1
15730	7	Sololá	701	Sololá	3	Barraneche	3	Marzo	2023-03-23T00:00:00	2024-11-06T22:00:00	4	Temperatura máxima	14.1
15731	7	Sololá	701	Sololá	3	Barraneche	3	Marzo	2023-03-23T00:00:00	2024-11-06T22:00:00	3	Temperatura mínima	12.8
15732	7	Sololá	701	Sololá	3	Barraneche	3	Marzo	2023-03-23T00:00:00	2024-11-06T22:00:00	5	Humedad	59
15733	7	Sololá	701	Sololá	3	Barraneche	3	Marzo	2023-03-23T00:00:00	2024-11-06T22:00:00	6	Velocidad del viento	6.4
15734	7	Sololá	701	Sololá	3	Barraneche	3	Marzo	2023-03-23T00:00:00	2024-11-06T22:00:00	7	Dirección del viento	6.44
15735	7	Sololá	701	Sololá	3	Barraneche	3	Marzo	2023-03-23T00:00:00	2024-11-06T22:00:00	1	Precipitación	0
15736	7	Sololá	701	Sololá	3	Barraneche	3	Marzo	2023-03-23T00:00:00	2024-11-06T22:00:00	8	Radiación solar	0
15737	7	Sololá	701	Sololá	3	Barraneche	3	Marzo	2023-03-23T00:00:00	2024-11-06T23:00:00	2	Temperatura media	12.3
15738	7	Sololá	701	Sololá	3	Barraneche	3	Marzo	2023-03-23T00:00:00	2024-11-06T23:00:00	4	Temperatura máxima	13.1
15739	7	Sololá	701	Sololá	3	Barraneche	3	Marzo	2023-03-23T00:00:00	2024-11-06T23:00:00	3	Temperatura mínima	11.9
15740	7	Sololá	701	Sololá	3	Barraneche	3	Marzo	2023-03-23T00:00:00	2024-11-06T23:00:00	5	Humedad	60
15741	7	Sololá	701	Sololá	3	Barraneche	3	Marzo	2023-03-23T00:00:00	2024-11-06T23:00:00	6	Velocidad del viento	4.8
15742	7	Sololá	701	Sololá	3	Barraneche	3	Marzo	2023-03-23T00:00:00	2024-11-06T23:00:00	7	Dirección del viento	4.83
15743	7	Sololá	701	Sololá	3	Barraneche	3	Marzo	2023-03-23T00:00:00	2024-11-06T23:00:00	1	Precipitación	0
15744	7	Sololá	701	Sololá	3	Barraneche	3	Marzo	2023-03-23T00:00:00	2024-11-06T23:00:00	8	Radiación solar	0
15745	7	Sololá	701	Sololá	3	Barraneche	3	Marzo	2023-03-24T00:00:00	2024-11-06T00:00:00	2	Temperatura media	11.8
15746	7	Sololá	701	Sololá	3	Barraneche	3	Marzo	2023-03-24T00:00:00	2024-11-06T00:00:00	4	Temperatura máxima	12.3
15747	7	Sololá	701	Sololá	3	Barraneche	3	Marzo	2023-03-24T00:00:00	2024-11-06T00:00:00	3	Temperatura mínima	11.5
15748	7	Sololá	701	Sololá	3	Barraneche	3	Marzo	2023-03-24T00:00:00	2024-11-06T00:00:00	5	Humedad	61
15749	7	Sololá	701	Sololá	3	Barraneche	3	Marzo	2023-03-24T00:00:00	2024-11-06T00:00:00	6	Velocidad del viento	4.8
15750	7	Sololá	701	Sololá	3	Barraneche	3	Marzo	2023-03-24T00:00:00	2024-11-06T00:00:00	7	Dirección del viento	4.83
15751	7	Sololá	701	Sololá	3	Barraneche	3	Marzo	2023-03-24T00:00:00	2024-11-06T00:00:00	1	Precipitación	0
15752	7	Sololá	701	Sololá	3	Barraneche	3	Marzo	2023-03-24T00:00:00	2024-11-06T00:00:00	8	Radiación solar	0
15753	7	Sololá	701	Sololá	3	Barraneche	3	Marzo	2023-03-24T00:00:00	2024-11-06T01:00:00	2	Temperatura media	9.6
15754	7	Sololá	701	Sololá	3	Barraneche	3	Marzo	2023-03-24T00:00:00	2024-11-06T01:00:00	4	Temperatura máxima	11.8
15755	7	Sololá	701	Sololá	3	Barraneche	3	Marzo	2023-03-24T00:00:00	2024-11-06T01:00:00	3	Temperatura mínima	9.6
15756	7	Sololá	701	Sololá	3	Barraneche	3	Marzo	2023-03-24T00:00:00	2024-11-06T01:00:00	5	Humedad	61
15757	7	Sololá	701	Sololá	3	Barraneche	3	Marzo	2023-03-24T00:00:00	2024-11-06T01:00:00	6	Velocidad del viento	4.8
15758	7	Sololá	701	Sololá	3	Barraneche	3	Marzo	2023-03-24T00:00:00	2024-11-06T01:00:00	7	Dirección del viento	4.83
15759	7	Sololá	701	Sololá	3	Barraneche	3	Marzo	2023-03-24T00:00:00	2024-11-06T01:00:00	1	Precipitación	0
15760	7	Sololá	701	Sololá	3	Barraneche	3	Marzo	2023-03-24T00:00:00	2024-11-06T01:00:00	8	Radiación solar	0
15761	7	Sololá	701	Sololá	3	Barraneche	3	Marzo	2023-03-24T00:00:00	2024-11-06T02:00:00	2	Temperatura media	9.8
15762	7	Sololá	701	Sololá	3	Barraneche	3	Marzo	2023-03-24T00:00:00	2024-11-06T02:00:00	4	Temperatura máxima	10
15763	7	Sololá	701	Sololá	3	Barraneche	3	Marzo	2023-03-24T00:00:00	2024-11-06T02:00:00	3	Temperatura mínima	9.2
15764	7	Sololá	701	Sololá	3	Barraneche	3	Marzo	2023-03-24T00:00:00	2024-11-06T02:00:00	5	Humedad	58
15765	7	Sololá	701	Sololá	3	Barraneche	3	Marzo	2023-03-24T00:00:00	2024-11-06T02:00:00	6	Velocidad del viento	6.4
15766	7	Sololá	701	Sololá	3	Barraneche	3	Marzo	2023-03-24T00:00:00	2024-11-06T02:00:00	7	Dirección del viento	6.44
15767	7	Sololá	701	Sololá	3	Barraneche	3	Marzo	2023-03-24T00:00:00	2024-11-06T02:00:00	1	Precipitación	0
15768	7	Sololá	701	Sololá	3	Barraneche	3	Marzo	2023-03-24T00:00:00	2024-11-06T02:00:00	8	Radiación solar	0
15769	7	Sololá	701	Sololá	3	Barraneche	3	Marzo	2023-03-24T00:00:00	2024-11-06T03:00:00	2	Temperatura media	9.9
15770	7	Sololá	701	Sololá	3	Barraneche	3	Marzo	2023-03-24T00:00:00	2024-11-06T03:00:00	4	Temperatura máxima	10.6
15771	7	Sololá	701	Sololá	3	Barraneche	3	Marzo	2023-03-24T00:00:00	2024-11-06T03:00:00	3	Temperatura mínima	9.7
15772	7	Sololá	701	Sololá	3	Barraneche	3	Marzo	2023-03-24T00:00:00	2024-11-06T03:00:00	5	Humedad	58
15773	7	Sololá	701	Sololá	3	Barraneche	3	Marzo	2023-03-24T00:00:00	2024-11-06T03:00:00	6	Velocidad del viento	9.7
15774	7	Sololá	701	Sololá	3	Barraneche	3	Marzo	2023-03-24T00:00:00	2024-11-06T03:00:00	7	Dirección del viento	9.66
15775	7	Sololá	701	Sololá	3	Barraneche	3	Marzo	2023-03-24T00:00:00	2024-11-06T03:00:00	1	Precipitación	0
15776	7	Sololá	701	Sololá	3	Barraneche	3	Marzo	2023-03-24T00:00:00	2024-11-06T03:00:00	8	Radiación solar	0
15777	7	Sololá	701	Sololá	3	Barraneche	3	Marzo	2023-03-24T00:00:00	2024-11-06T04:00:00	2	Temperatura media	10.4
15778	7	Sololá	701	Sololá	3	Barraneche	3	Marzo	2023-03-24T00:00:00	2024-11-06T04:00:00	4	Temperatura máxima	10.4
15779	7	Sololá	701	Sololá	3	Barraneche	3	Marzo	2023-03-24T00:00:00	2024-11-06T04:00:00	3	Temperatura mínima	9.6
15780	7	Sololá	701	Sololá	3	Barraneche	3	Marzo	2023-03-24T00:00:00	2024-11-06T04:00:00	5	Humedad	60
15781	7	Sololá	701	Sololá	3	Barraneche	3	Marzo	2023-03-24T00:00:00	2024-11-06T04:00:00	6	Velocidad del viento	8
15782	7	Sololá	701	Sololá	3	Barraneche	3	Marzo	2023-03-24T00:00:00	2024-11-06T04:00:00	7	Dirección del viento	8.05
15783	7	Sololá	701	Sololá	3	Barraneche	3	Marzo	2023-03-24T00:00:00	2024-11-06T04:00:00	1	Precipitación	0
15784	7	Sololá	701	Sololá	3	Barraneche	3	Marzo	2023-03-24T00:00:00	2024-11-06T04:00:00	8	Radiación solar	0
15785	7	Sololá	701	Sololá	3	Barraneche	3	Marzo	2023-03-24T00:00:00	2024-11-06T05:00:00	2	Temperatura media	9.7
15786	7	Sololá	701	Sololá	3	Barraneche	3	Marzo	2023-03-24T00:00:00	2024-11-06T05:00:00	4	Temperatura máxima	10.6
15787	7	Sololá	701	Sololá	3	Barraneche	3	Marzo	2023-03-24T00:00:00	2024-11-06T05:00:00	3	Temperatura mínima	9.7
15788	7	Sololá	701	Sololá	3	Barraneche	3	Marzo	2023-03-24T00:00:00	2024-11-06T05:00:00	5	Humedad	61
15789	7	Sololá	701	Sololá	3	Barraneche	3	Marzo	2023-03-24T00:00:00	2024-11-06T05:00:00	6	Velocidad del viento	8
15790	7	Sololá	701	Sololá	3	Barraneche	3	Marzo	2023-03-24T00:00:00	2024-11-06T05:00:00	7	Dirección del viento	8.05
15791	7	Sololá	701	Sololá	3	Barraneche	3	Marzo	2023-03-24T00:00:00	2024-11-06T05:00:00	1	Precipitación	0
15792	7	Sololá	701	Sololá	3	Barraneche	3	Marzo	2023-03-24T00:00:00	2024-11-06T05:00:00	8	Radiación solar	0
15793	7	Sololá	701	Sololá	3	Barraneche	3	Marzo	2023-03-24T00:00:00	2024-11-06T06:00:00	2	Temperatura media	9.1
15794	7	Sololá	701	Sololá	3	Barraneche	3	Marzo	2023-03-24T00:00:00	2024-11-06T06:00:00	4	Temperatura máxima	9.7
15795	7	Sololá	701	Sololá	3	Barraneche	3	Marzo	2023-03-24T00:00:00	2024-11-06T06:00:00	3	Temperatura mínima	9.1
15796	7	Sololá	701	Sololá	3	Barraneche	3	Marzo	2023-03-24T00:00:00	2024-11-06T06:00:00	5	Humedad	57
15797	7	Sololá	701	Sololá	3	Barraneche	3	Marzo	2023-03-24T00:00:00	2024-11-06T06:00:00	6	Velocidad del viento	6.4
15798	7	Sololá	701	Sololá	3	Barraneche	3	Marzo	2023-03-24T00:00:00	2024-11-06T06:00:00	7	Dirección del viento	6.44
15799	7	Sololá	701	Sololá	3	Barraneche	3	Marzo	2023-03-24T00:00:00	2024-11-06T06:00:00	1	Precipitación	0
15800	7	Sololá	701	Sololá	3	Barraneche	3	Marzo	2023-03-24T00:00:00	2024-11-06T06:00:00	8	Radiación solar	0
15801	7	Sololá	701	Sololá	3	Barraneche	3	Marzo	2023-03-24T00:00:00	2024-11-06T07:00:00	2	Temperatura media	8.9
15802	7	Sololá	701	Sololá	3	Barraneche	3	Marzo	2023-03-24T00:00:00	2024-11-06T07:00:00	4	Temperatura máxima	9.1
15803	7	Sololá	701	Sololá	3	Barraneche	3	Marzo	2023-03-24T00:00:00	2024-11-06T07:00:00	3	Temperatura mínima	8.1
15804	7	Sololá	701	Sololá	3	Barraneche	3	Marzo	2023-03-24T00:00:00	2024-11-06T07:00:00	5	Humedad	59
15805	7	Sololá	701	Sololá	3	Barraneche	3	Marzo	2023-03-24T00:00:00	2024-11-06T07:00:00	6	Velocidad del viento	8
15806	7	Sololá	701	Sololá	3	Barraneche	3	Marzo	2023-03-24T00:00:00	2024-11-06T07:00:00	7	Dirección del viento	8.05
15807	7	Sololá	701	Sololá	3	Barraneche	3	Marzo	2023-03-24T00:00:00	2024-11-06T07:00:00	1	Precipitación	0
15808	7	Sololá	701	Sololá	3	Barraneche	3	Marzo	2023-03-24T00:00:00	2024-11-06T07:00:00	8	Radiación solar	27
15809	7	Sololá	701	Sololá	3	Barraneche	3	Marzo	2023-03-24T00:00:00	2024-11-06T08:00:00	2	Temperatura media	13.7
15810	7	Sololá	701	Sololá	3	Barraneche	3	Marzo	2023-03-24T00:00:00	2024-11-06T08:00:00	4	Temperatura máxima	13.7
15811	7	Sololá	701	Sololá	3	Barraneche	3	Marzo	2023-03-24T00:00:00	2024-11-06T08:00:00	3	Temperatura mínima	9
15812	7	Sololá	701	Sololá	3	Barraneche	3	Marzo	2023-03-24T00:00:00	2024-11-06T08:00:00	5	Humedad	61
15813	7	Sololá	701	Sololá	3	Barraneche	3	Marzo	2023-03-24T00:00:00	2024-11-06T08:00:00	6	Velocidad del viento	4.8
15814	7	Sololá	701	Sololá	3	Barraneche	3	Marzo	2023-03-24T00:00:00	2024-11-06T08:00:00	7	Dirección del viento	4.83
15815	7	Sololá	701	Sololá	3	Barraneche	3	Marzo	2023-03-24T00:00:00	2024-11-06T08:00:00	1	Precipitación	0
15816	7	Sololá	701	Sololá	3	Barraneche	3	Marzo	2023-03-24T00:00:00	2024-11-06T08:00:00	8	Radiación solar	302
15817	7	Sololá	701	Sololá	3	Barraneche	3	Marzo	2023-03-24T00:00:00	2024-11-06T09:00:00	2	Temperatura media	15.9
15818	7	Sololá	701	Sololá	3	Barraneche	3	Marzo	2023-03-24T00:00:00	2024-11-06T09:00:00	4	Temperatura máxima	15.9
15819	7	Sololá	701	Sololá	3	Barraneche	3	Marzo	2023-03-24T00:00:00	2024-11-06T09:00:00	3	Temperatura mínima	13.7
15820	7	Sololá	701	Sololá	3	Barraneche	3	Marzo	2023-03-24T00:00:00	2024-11-06T09:00:00	5	Humedad	50
15821	7	Sololá	701	Sololá	3	Barraneche	3	Marzo	2023-03-24T00:00:00	2024-11-06T09:00:00	6	Velocidad del viento	3.2
15822	7	Sololá	701	Sololá	3	Barraneche	3	Marzo	2023-03-24T00:00:00	2024-11-06T09:00:00	7	Dirección del viento	3.22
15823	7	Sololá	701	Sololá	3	Barraneche	3	Marzo	2023-03-24T00:00:00	2024-11-06T09:00:00	1	Precipitación	0
15824	7	Sololá	701	Sololá	3	Barraneche	3	Marzo	2023-03-24T00:00:00	2024-11-06T09:00:00	8	Radiación solar	570
15825	7	Sololá	701	Sololá	3	Barraneche	3	Marzo	2023-03-24T00:00:00	2024-11-06T10:00:00	2	Temperatura media	18.1
15826	7	Sololá	701	Sololá	3	Barraneche	3	Marzo	2023-03-24T00:00:00	2024-11-06T10:00:00	4	Temperatura máxima	18.1
15827	7	Sololá	701	Sololá	3	Barraneche	3	Marzo	2023-03-24T00:00:00	2024-11-06T10:00:00	3	Temperatura mínima	15.9
15828	7	Sololá	701	Sololá	3	Barraneche	3	Marzo	2023-03-24T00:00:00	2024-11-06T10:00:00	5	Humedad	48
15829	7	Sololá	701	Sololá	3	Barraneche	3	Marzo	2023-03-24T00:00:00	2024-11-06T10:00:00	6	Velocidad del viento	6.4
15830	7	Sololá	701	Sololá	3	Barraneche	3	Marzo	2023-03-24T00:00:00	2024-11-06T10:00:00	7	Dirección del viento	6.44
15831	7	Sololá	701	Sololá	3	Barraneche	3	Marzo	2023-03-24T00:00:00	2024-11-06T10:00:00	1	Precipitación	0
15832	7	Sololá	701	Sololá	3	Barraneche	3	Marzo	2023-03-24T00:00:00	2024-11-06T10:00:00	8	Radiación solar	794
15833	7	Sololá	701	Sololá	3	Barraneche	3	Marzo	2023-03-24T00:00:00	2024-11-06T11:00:00	2	Temperatura media	17.9
15834	7	Sololá	701	Sololá	3	Barraneche	3	Marzo	2023-03-24T00:00:00	2024-11-06T11:00:00	4	Temperatura máxima	18.3
15835	7	Sololá	701	Sololá	3	Barraneche	3	Marzo	2023-03-24T00:00:00	2024-11-06T11:00:00	3	Temperatura mínima	17.7
15836	7	Sololá	701	Sololá	3	Barraneche	3	Marzo	2023-03-24T00:00:00	2024-11-06T11:00:00	5	Humedad	46
15837	7	Sololá	701	Sololá	3	Barraneche	3	Marzo	2023-03-24T00:00:00	2024-11-06T11:00:00	6	Velocidad del viento	12.9
15838	7	Sololá	701	Sololá	3	Barraneche	3	Marzo	2023-03-24T00:00:00	2024-11-06T11:00:00	7	Dirección del viento	12.87
15839	7	Sololá	701	Sololá	3	Barraneche	3	Marzo	2023-03-24T00:00:00	2024-11-06T11:00:00	1	Precipitación	0
15840	7	Sololá	701	Sololá	3	Barraneche	3	Marzo	2023-03-24T00:00:00	2024-11-06T11:00:00	8	Radiación solar	948
15841	7	Sololá	701	Sololá	3	Barraneche	3	Marzo	2023-03-24T00:00:00	2024-11-06T12:00:00	2	Temperatura media	17.8
15842	7	Sololá	701	Sololá	3	Barraneche	3	Marzo	2023-03-24T00:00:00	2024-11-06T12:00:00	4	Temperatura máxima	18
15843	7	Sololá	701	Sololá	3	Barraneche	3	Marzo	2023-03-24T00:00:00	2024-11-06T12:00:00	3	Temperatura mínima	17.5
15844	7	Sololá	701	Sololá	3	Barraneche	3	Marzo	2023-03-24T00:00:00	2024-11-06T12:00:00	5	Humedad	53
15845	7	Sololá	701	Sololá	3	Barraneche	3	Marzo	2023-03-24T00:00:00	2024-11-06T12:00:00	6	Velocidad del viento	12.9
15846	7	Sololá	701	Sololá	3	Barraneche	3	Marzo	2023-03-24T00:00:00	2024-11-06T12:00:00	7	Dirección del viento	12.87
15847	7	Sololá	701	Sololá	3	Barraneche	3	Marzo	2023-03-24T00:00:00	2024-11-06T12:00:00	1	Precipitación	0
15848	7	Sololá	701	Sololá	3	Barraneche	3	Marzo	2023-03-24T00:00:00	2024-11-06T12:00:00	8	Radiación solar	1033
15849	7	Sololá	701	Sololá	3	Barraneche	3	Marzo	2023-03-24T00:00:00	2024-11-06T13:00:00	2	Temperatura media	17.7
15850	7	Sololá	701	Sololá	3	Barraneche	3	Marzo	2023-03-24T00:00:00	2024-11-06T13:00:00	4	Temperatura máxima	18.1
15851	7	Sololá	701	Sololá	3	Barraneche	3	Marzo	2023-03-24T00:00:00	2024-11-06T13:00:00	3	Temperatura mínima	17.3
15852	7	Sololá	701	Sololá	3	Barraneche	3	Marzo	2023-03-24T00:00:00	2024-11-06T13:00:00	5	Humedad	56
15853	7	Sololá	701	Sololá	3	Barraneche	3	Marzo	2023-03-24T00:00:00	2024-11-06T13:00:00	6	Velocidad del viento	14.5
15854	7	Sololá	701	Sololá	3	Barraneche	3	Marzo	2023-03-24T00:00:00	2024-11-06T13:00:00	7	Dirección del viento	14.48
15855	7	Sololá	701	Sololá	3	Barraneche	3	Marzo	2023-03-24T00:00:00	2024-11-06T13:00:00	1	Precipitación	0
15856	7	Sololá	701	Sololá	3	Barraneche	3	Marzo	2023-03-24T00:00:00	2024-11-06T13:00:00	8	Radiación solar	1061
15857	7	Sololá	701	Sololá	3	Barraneche	3	Marzo	2023-03-24T00:00:00	2024-11-06T14:00:00	2	Temperatura media	18.3
15858	7	Sololá	701	Sololá	3	Barraneche	3	Marzo	2023-03-24T00:00:00	2024-11-06T14:00:00	4	Temperatura máxima	18.4
15859	7	Sololá	701	Sololá	3	Barraneche	3	Marzo	2023-03-24T00:00:00	2024-11-06T14:00:00	3	Temperatura mínima	17.7
15860	7	Sololá	701	Sololá	3	Barraneche	3	Marzo	2023-03-24T00:00:00	2024-11-06T14:00:00	5	Humedad	55
15861	7	Sololá	701	Sololá	3	Barraneche	3	Marzo	2023-03-24T00:00:00	2024-11-06T14:00:00	6	Velocidad del viento	12.9
15862	7	Sololá	701	Sololá	3	Barraneche	3	Marzo	2023-03-24T00:00:00	2024-11-06T14:00:00	7	Dirección del viento	12.87
15863	7	Sololá	701	Sololá	3	Barraneche	3	Marzo	2023-03-24T00:00:00	2024-11-06T14:00:00	1	Precipitación	0
15864	7	Sololá	701	Sololá	3	Barraneche	3	Marzo	2023-03-24T00:00:00	2024-11-06T14:00:00	8	Radiación solar	1030
15865	7	Sololá	701	Sololá	3	Barraneche	3	Marzo	2023-03-24T00:00:00	2024-11-06T15:00:00	2	Temperatura media	17.1
15866	7	Sololá	701	Sololá	3	Barraneche	3	Marzo	2023-03-24T00:00:00	2024-11-06T15:00:00	4	Temperatura máxima	18.7
15867	7	Sololá	701	Sololá	3	Barraneche	3	Marzo	2023-03-24T00:00:00	2024-11-06T15:00:00	3	Temperatura mínima	17.1
15868	7	Sololá	701	Sololá	3	Barraneche	3	Marzo	2023-03-24T00:00:00	2024-11-06T15:00:00	5	Humedad	61
15869	7	Sololá	701	Sololá	3	Barraneche	3	Marzo	2023-03-24T00:00:00	2024-11-06T15:00:00	6	Velocidad del viento	16.1
15870	7	Sololá	701	Sololá	3	Barraneche	3	Marzo	2023-03-24T00:00:00	2024-11-06T15:00:00	7	Dirección del viento	16.09
15871	7	Sololá	701	Sololá	3	Barraneche	3	Marzo	2023-03-24T00:00:00	2024-11-06T15:00:00	1	Precipitación	0
15872	7	Sololá	701	Sololá	3	Barraneche	3	Marzo	2023-03-24T00:00:00	2024-11-06T15:00:00	8	Radiación solar	842
15873	7	Sololá	701	Sololá	3	Barraneche	3	Marzo	2023-03-24T00:00:00	2024-11-06T16:00:00	2	Temperatura media	16.3
15874	7	Sololá	701	Sololá	3	Barraneche	3	Marzo	2023-03-24T00:00:00	2024-11-06T16:00:00	4	Temperatura máxima	17.1
15875	7	Sololá	701	Sololá	3	Barraneche	3	Marzo	2023-03-24T00:00:00	2024-11-06T16:00:00	3	Temperatura mínima	16.1
15876	7	Sololá	701	Sololá	3	Barraneche	3	Marzo	2023-03-24T00:00:00	2024-11-06T16:00:00	5	Humedad	63
15877	7	Sololá	701	Sololá	3	Barraneche	3	Marzo	2023-03-24T00:00:00	2024-11-06T16:00:00	6	Velocidad del viento	9.7
15878	7	Sololá	701	Sololá	3	Barraneche	3	Marzo	2023-03-24T00:00:00	2024-11-06T16:00:00	7	Dirección del viento	9.66
15879	7	Sololá	701	Sololá	3	Barraneche	3	Marzo	2023-03-24T00:00:00	2024-11-06T16:00:00	1	Precipitación	0
15880	7	Sololá	701	Sololá	3	Barraneche	3	Marzo	2023-03-24T00:00:00	2024-11-06T16:00:00	8	Radiación solar	251
15881	7	Sololá	701	Sololá	3	Barraneche	3	Marzo	2023-03-24T00:00:00	2024-11-06T17:00:00	2	Temperatura media	16.8
15882	7	Sololá	701	Sololá	3	Barraneche	3	Marzo	2023-03-24T00:00:00	2024-11-06T17:00:00	4	Temperatura máxima	16.8
15883	7	Sololá	701	Sololá	3	Barraneche	3	Marzo	2023-03-24T00:00:00	2024-11-06T17:00:00	3	Temperatura mínima	15.9
15884	7	Sololá	701	Sololá	3	Barraneche	3	Marzo	2023-03-24T00:00:00	2024-11-06T17:00:00	5	Humedad	62
15885	7	Sololá	701	Sololá	3	Barraneche	3	Marzo	2023-03-24T00:00:00	2024-11-06T17:00:00	6	Velocidad del viento	6.4
15886	7	Sololá	701	Sololá	3	Barraneche	3	Marzo	2023-03-24T00:00:00	2024-11-06T17:00:00	7	Dirección del viento	6.44
15887	7	Sololá	701	Sololá	3	Barraneche	3	Marzo	2023-03-24T00:00:00	2024-11-06T17:00:00	1	Precipitación	0
15888	7	Sololá	701	Sololá	3	Barraneche	3	Marzo	2023-03-24T00:00:00	2024-11-06T17:00:00	8	Radiación solar	189
15889	7	Sololá	701	Sololá	3	Barraneche	3	Marzo	2023-03-24T00:00:00	2024-11-06T18:00:00	2	Temperatura media	14.5
15890	7	Sololá	701	Sololá	3	Barraneche	3	Marzo	2023-03-24T00:00:00	2024-11-06T18:00:00	4	Temperatura máxima	16.9
15891	7	Sololá	701	Sololá	3	Barraneche	3	Marzo	2023-03-24T00:00:00	2024-11-06T18:00:00	3	Temperatura mínima	14.4
15892	7	Sololá	701	Sololá	3	Barraneche	3	Marzo	2023-03-24T00:00:00	2024-11-06T18:00:00	5	Humedad	72
15893	7	Sololá	701	Sololá	3	Barraneche	3	Marzo	2023-03-24T00:00:00	2024-11-06T18:00:00	6	Velocidad del viento	8
15894	7	Sololá	701	Sololá	3	Barraneche	3	Marzo	2023-03-24T00:00:00	2024-11-06T18:00:00	7	Dirección del viento	8.05
15895	7	Sololá	701	Sololá	3	Barraneche	3	Marzo	2023-03-24T00:00:00	2024-11-06T18:00:00	1	Precipitación	0
15896	7	Sololá	701	Sololá	3	Barraneche	3	Marzo	2023-03-24T00:00:00	2024-11-06T18:00:00	8	Radiación solar	54
15897	7	Sololá	701	Sololá	3	Barraneche	3	Marzo	2023-03-24T00:00:00	2024-11-06T19:00:00	2	Temperatura media	14.1
15898	7	Sololá	701	Sololá	3	Barraneche	3	Marzo	2023-03-24T00:00:00	2024-11-06T19:00:00	4	Temperatura máxima	14.7
15899	7	Sololá	701	Sololá	3	Barraneche	3	Marzo	2023-03-24T00:00:00	2024-11-06T19:00:00	3	Temperatura mínima	13.9
15900	7	Sololá	701	Sololá	3	Barraneche	3	Marzo	2023-03-24T00:00:00	2024-11-06T19:00:00	5	Humedad	74
15901	7	Sololá	701	Sololá	3	Barraneche	3	Marzo	2023-03-24T00:00:00	2024-11-06T19:00:00	6	Velocidad del viento	3.2
15902	7	Sololá	701	Sololá	3	Barraneche	3	Marzo	2023-03-24T00:00:00	2024-11-06T19:00:00	7	Dirección del viento	3.22
15903	7	Sololá	701	Sololá	3	Barraneche	3	Marzo	2023-03-24T00:00:00	2024-11-06T19:00:00	1	Precipitación	0
15904	7	Sololá	701	Sololá	3	Barraneche	3	Marzo	2023-03-24T00:00:00	2024-11-06T19:00:00	8	Radiación solar	0
15905	7	Sololá	701	Sololá	3	Barraneche	3	Marzo	2023-03-24T00:00:00	2024-11-06T20:00:00	2	Temperatura media	14.1
15906	7	Sololá	701	Sololá	3	Barraneche	3	Marzo	2023-03-24T00:00:00	2024-11-06T20:00:00	4	Temperatura máxima	14.2
15907	7	Sololá	701	Sololá	3	Barraneche	3	Marzo	2023-03-24T00:00:00	2024-11-06T20:00:00	3	Temperatura mínima	13.8
15908	7	Sololá	701	Sololá	3	Barraneche	3	Marzo	2023-03-24T00:00:00	2024-11-06T20:00:00	5	Humedad	75
15909	7	Sololá	701	Sololá	3	Barraneche	3	Marzo	2023-03-24T00:00:00	2024-11-06T20:00:00	6	Velocidad del viento	3.2
15910	7	Sololá	701	Sololá	3	Barraneche	3	Marzo	2023-03-24T00:00:00	2024-11-06T20:00:00	7	Dirección del viento	3.22
15911	7	Sololá	701	Sololá	3	Barraneche	3	Marzo	2023-03-24T00:00:00	2024-11-06T20:00:00	1	Precipitación	0
15912	7	Sololá	701	Sololá	3	Barraneche	3	Marzo	2023-03-24T00:00:00	2024-11-06T20:00:00	8	Radiación solar	0
15913	7	Sololá	701	Sololá	3	Barraneche	3	Marzo	2023-03-24T00:00:00	2024-11-06T21:00:00	2	Temperatura media	13.7
15914	7	Sololá	701	Sololá	3	Barraneche	3	Marzo	2023-03-24T00:00:00	2024-11-06T21:00:00	4	Temperatura máxima	14.1
15915	7	Sololá	701	Sololá	3	Barraneche	3	Marzo	2023-03-24T00:00:00	2024-11-06T21:00:00	3	Temperatura mínima	13.7
15916	7	Sololá	701	Sololá	3	Barraneche	3	Marzo	2023-03-24T00:00:00	2024-11-06T21:00:00	5	Humedad	76
15917	7	Sololá	701	Sololá	3	Barraneche	3	Marzo	2023-03-24T00:00:00	2024-11-06T21:00:00	6	Velocidad del viento	3.2
15918	7	Sololá	701	Sololá	3	Barraneche	3	Marzo	2023-03-24T00:00:00	2024-11-06T21:00:00	7	Dirección del viento	3.22
15919	7	Sololá	701	Sololá	3	Barraneche	3	Marzo	2023-03-24T00:00:00	2024-11-06T21:00:00	1	Precipitación	0
15920	7	Sololá	701	Sololá	3	Barraneche	3	Marzo	2023-03-24T00:00:00	2024-11-06T21:00:00	8	Radiación solar	0
15921	7	Sololá	701	Sololá	3	Barraneche	3	Marzo	2023-03-24T00:00:00	2024-11-06T22:00:00	2	Temperatura media	13.7
15922	7	Sololá	701	Sololá	3	Barraneche	3	Marzo	2023-03-24T00:00:00	2024-11-06T22:00:00	4	Temperatura máxima	13.8
15923	7	Sololá	701	Sololá	3	Barraneche	3	Marzo	2023-03-24T00:00:00	2024-11-06T22:00:00	3	Temperatura mínima	13.7
15924	7	Sololá	701	Sololá	3	Barraneche	3	Marzo	2023-03-24T00:00:00	2024-11-06T22:00:00	5	Humedad	78
15925	7	Sololá	701	Sololá	3	Barraneche	3	Marzo	2023-03-24T00:00:00	2024-11-06T22:00:00	6	Velocidad del viento	1.6
15926	7	Sololá	701	Sololá	3	Barraneche	3	Marzo	2023-03-24T00:00:00	2024-11-06T22:00:00	7	Dirección del viento	1.61
15927	7	Sololá	701	Sololá	3	Barraneche	3	Marzo	2023-03-24T00:00:00	2024-11-06T22:00:00	1	Precipitación	0
15928	7	Sololá	701	Sololá	3	Barraneche	3	Marzo	2023-03-24T00:00:00	2024-11-06T22:00:00	8	Radiación solar	0
15929	7	Sololá	701	Sololá	3	Barraneche	3	Marzo	2023-03-24T00:00:00	2024-11-06T23:00:00	2	Temperatura media	12.8
15930	7	Sololá	701	Sololá	3	Barraneche	3	Marzo	2023-03-24T00:00:00	2024-11-06T23:00:00	4	Temperatura máxima	13.7
15931	7	Sololá	701	Sololá	3	Barraneche	3	Marzo	2023-03-24T00:00:00	2024-11-06T23:00:00	3	Temperatura mínima	12.8
15932	7	Sololá	701	Sololá	3	Barraneche	3	Marzo	2023-03-24T00:00:00	2024-11-06T23:00:00	5	Humedad	78
15933	7	Sololá	701	Sololá	3	Barraneche	3	Marzo	2023-03-24T00:00:00	2024-11-06T23:00:00	6	Velocidad del viento	6.4
15934	7	Sololá	701	Sololá	3	Barraneche	3	Marzo	2023-03-24T00:00:00	2024-11-06T23:00:00	7	Dirección del viento	6.44
15935	7	Sololá	701	Sololá	3	Barraneche	3	Marzo	2023-03-24T00:00:00	2024-11-06T23:00:00	1	Precipitación	0
15936	7	Sololá	701	Sololá	3	Barraneche	3	Marzo	2023-03-24T00:00:00	2024-11-06T23:00:00	8	Radiación solar	0
15937	7	Sololá	701	Sololá	3	Barraneche	3	Marzo	2023-03-25T00:00:00	2024-11-06T00:00:00	2	Temperatura media	12.7
15938	7	Sololá	701	Sololá	3	Barraneche	3	Marzo	2023-03-25T00:00:00	2024-11-06T00:00:00	4	Temperatura máxima	12.9
15939	7	Sololá	701	Sololá	3	Barraneche	3	Marzo	2023-03-25T00:00:00	2024-11-06T00:00:00	3	Temperatura mínima	12.4
15940	7	Sololá	701	Sololá	3	Barraneche	3	Marzo	2023-03-25T00:00:00	2024-11-06T00:00:00	5	Humedad	61
15941	7	Sololá	701	Sololá	3	Barraneche	3	Marzo	2023-03-25T00:00:00	2024-11-06T00:00:00	6	Velocidad del viento	4.8
15942	7	Sololá	701	Sololá	3	Barraneche	3	Marzo	2023-03-25T00:00:00	2024-11-06T00:00:00	7	Dirección del viento	4.83
15943	7	Sololá	701	Sololá	3	Barraneche	3	Marzo	2023-03-25T00:00:00	2024-11-06T00:00:00	1	Precipitación	0
15944	7	Sololá	701	Sololá	3	Barraneche	3	Marzo	2023-03-25T00:00:00	2024-11-06T00:00:00	8	Radiación solar	0
15945	7	Sololá	701	Sololá	3	Barraneche	3	Marzo	2023-03-25T00:00:00	2024-11-06T01:00:00	2	Temperatura media	12.7
15946	7	Sololá	701	Sololá	3	Barraneche	3	Marzo	2023-03-25T00:00:00	2024-11-06T01:00:00	4	Temperatura máxima	12.8
15947	7	Sololá	701	Sololá	3	Barraneche	3	Marzo	2023-03-25T00:00:00	2024-11-06T01:00:00	3	Temperatura mínima	12.7
15948	7	Sololá	701	Sololá	3	Barraneche	3	Marzo	2023-03-25T00:00:00	2024-11-06T01:00:00	5	Humedad	65
15949	7	Sololá	701	Sololá	3	Barraneche	3	Marzo	2023-03-25T00:00:00	2024-11-06T01:00:00	6	Velocidad del viento	3.2
15950	7	Sololá	701	Sololá	3	Barraneche	3	Marzo	2023-03-25T00:00:00	2024-11-06T01:00:00	7	Dirección del viento	3.22
15951	7	Sololá	701	Sololá	3	Barraneche	3	Marzo	2023-03-25T00:00:00	2024-11-06T01:00:00	1	Precipitación	0
15952	7	Sololá	701	Sololá	3	Barraneche	3	Marzo	2023-03-25T00:00:00	2024-11-06T01:00:00	8	Radiación solar	0
15953	7	Sololá	701	Sololá	3	Barraneche	3	Marzo	2023-03-25T00:00:00	2024-11-06T02:00:00	2	Temperatura media	12.4
15954	7	Sololá	701	Sololá	3	Barraneche	3	Marzo	2023-03-25T00:00:00	2024-11-06T02:00:00	4	Temperatura máxima	13
15955	7	Sololá	701	Sololá	3	Barraneche	3	Marzo	2023-03-25T00:00:00	2024-11-06T02:00:00	3	Temperatura mínima	12.4
15956	7	Sololá	701	Sololá	3	Barraneche	3	Marzo	2023-03-25T00:00:00	2024-11-06T02:00:00	5	Humedad	68
15957	7	Sololá	701	Sololá	3	Barraneche	3	Marzo	2023-03-25T00:00:00	2024-11-06T02:00:00	6	Velocidad del viento	1.6
15958	7	Sololá	701	Sololá	3	Barraneche	3	Marzo	2023-03-25T00:00:00	2024-11-06T02:00:00	7	Dirección del viento	1.61
15959	7	Sololá	701	Sololá	3	Barraneche	3	Marzo	2023-03-25T00:00:00	2024-11-06T02:00:00	1	Precipitación	0
15960	7	Sololá	701	Sololá	3	Barraneche	3	Marzo	2023-03-25T00:00:00	2024-11-06T02:00:00	8	Radiación solar	0
15961	7	Sololá	701	Sololá	3	Barraneche	3	Marzo	2023-03-25T00:00:00	2024-11-06T03:00:00	2	Temperatura media	12.5
15962	7	Sololá	701	Sololá	3	Barraneche	3	Marzo	2023-03-25T00:00:00	2024-11-06T03:00:00	4	Temperatura máxima	12.5
15963	7	Sololá	701	Sololá	3	Barraneche	3	Marzo	2023-03-25T00:00:00	2024-11-06T03:00:00	3	Temperatura mínima	12.3
15964	7	Sololá	701	Sololá	3	Barraneche	3	Marzo	2023-03-25T00:00:00	2024-11-06T03:00:00	5	Humedad	69
15965	7	Sololá	701	Sololá	3	Barraneche	3	Marzo	2023-03-25T00:00:00	2024-11-06T03:00:00	6	Velocidad del viento	1.6
15966	7	Sololá	701	Sololá	3	Barraneche	3	Marzo	2023-03-25T00:00:00	2024-11-06T03:00:00	7	Dirección del viento	1.61
15967	7	Sololá	701	Sololá	3	Barraneche	3	Marzo	2023-03-25T00:00:00	2024-11-06T03:00:00	1	Precipitación	0
15968	7	Sololá	701	Sololá	3	Barraneche	3	Marzo	2023-03-25T00:00:00	2024-11-06T03:00:00	8	Radiación solar	0
15969	7	Sololá	701	Sololá	3	Barraneche	3	Marzo	2023-03-25T00:00:00	2024-11-06T04:00:00	2	Temperatura media	11.8
15970	7	Sololá	701	Sololá	3	Barraneche	3	Marzo	2023-03-25T00:00:00	2024-11-06T04:00:00	4	Temperatura máxima	12.5
15971	7	Sololá	701	Sololá	3	Barraneche	3	Marzo	2023-03-25T00:00:00	2024-11-06T04:00:00	3	Temperatura mínima	11.8
15972	7	Sololá	701	Sololá	3	Barraneche	3	Marzo	2023-03-25T00:00:00	2024-11-06T04:00:00	5	Humedad	71
15973	7	Sololá	701	Sololá	3	Barraneche	3	Marzo	2023-03-25T00:00:00	2024-11-06T04:00:00	6	Velocidad del viento	3.2
15974	7	Sololá	701	Sololá	3	Barraneche	3	Marzo	2023-03-25T00:00:00	2024-11-06T04:00:00	7	Dirección del viento	3.22
15975	7	Sololá	701	Sololá	3	Barraneche	3	Marzo	2023-03-25T00:00:00	2024-11-06T04:00:00	1	Precipitación	0
15976	7	Sololá	701	Sololá	3	Barraneche	3	Marzo	2023-03-25T00:00:00	2024-11-06T04:00:00	8	Radiación solar	0
15977	7	Sololá	701	Sololá	3	Barraneche	3	Marzo	2023-03-25T00:00:00	2024-11-06T05:00:00	2	Temperatura media	11.9
15978	7	Sololá	701	Sololá	3	Barraneche	3	Marzo	2023-03-25T00:00:00	2024-11-06T05:00:00	4	Temperatura máxima	12
15979	7	Sololá	701	Sololá	3	Barraneche	3	Marzo	2023-03-25T00:00:00	2024-11-06T05:00:00	3	Temperatura mínima	11.8
15980	7	Sololá	701	Sololá	3	Barraneche	3	Marzo	2023-03-25T00:00:00	2024-11-06T05:00:00	5	Humedad	73
15981	7	Sololá	701	Sololá	3	Barraneche	3	Marzo	2023-03-25T00:00:00	2024-11-06T05:00:00	6	Velocidad del viento	1.6
15982	7	Sololá	701	Sololá	3	Barraneche	3	Marzo	2023-03-25T00:00:00	2024-11-06T05:00:00	7	Dirección del viento	1.61
15983	7	Sololá	701	Sololá	3	Barraneche	3	Marzo	2023-03-25T00:00:00	2024-11-06T05:00:00	1	Precipitación	0
15984	7	Sololá	701	Sololá	3	Barraneche	3	Marzo	2023-03-25T00:00:00	2024-11-06T05:00:00	8	Radiación solar	0
15985	7	Sololá	701	Sololá	3	Barraneche	3	Marzo	2023-03-25T00:00:00	2024-11-06T06:00:00	2	Temperatura media	11.8
15986	7	Sololá	701	Sololá	3	Barraneche	3	Marzo	2023-03-25T00:00:00	2024-11-06T06:00:00	4	Temperatura máxima	11.9
15987	7	Sololá	701	Sololá	3	Barraneche	3	Marzo	2023-03-25T00:00:00	2024-11-06T06:00:00	3	Temperatura mínima	11.7
15988	7	Sololá	701	Sololá	3	Barraneche	3	Marzo	2023-03-25T00:00:00	2024-11-06T06:00:00	5	Humedad	75
15989	7	Sololá	701	Sololá	3	Barraneche	3	Marzo	2023-03-25T00:00:00	2024-11-06T06:00:00	6	Velocidad del viento	1.6
15990	7	Sololá	701	Sololá	3	Barraneche	3	Marzo	2023-03-25T00:00:00	2024-11-06T06:00:00	7	Dirección del viento	1.61
15991	7	Sololá	701	Sololá	3	Barraneche	3	Marzo	2023-03-25T00:00:00	2024-11-06T06:00:00	1	Precipitación	0
15992	7	Sololá	701	Sololá	3	Barraneche	3	Marzo	2023-03-25T00:00:00	2024-11-06T06:00:00	8	Radiación solar	0
15993	7	Sololá	701	Sololá	3	Barraneche	3	Marzo	2023-03-25T00:00:00	2024-11-06T07:00:00	2	Temperatura media	11.9
15994	7	Sololá	701	Sololá	3	Barraneche	3	Marzo	2023-03-25T00:00:00	2024-11-06T07:00:00	4	Temperatura máxima	11.9
15995	7	Sololá	701	Sololá	3	Barraneche	3	Marzo	2023-03-25T00:00:00	2024-11-06T07:00:00	3	Temperatura mínima	11.7
15996	7	Sololá	701	Sololá	3	Barraneche	3	Marzo	2023-03-25T00:00:00	2024-11-06T07:00:00	5	Humedad	76
15997	7	Sololá	701	Sololá	3	Barraneche	3	Marzo	2023-03-25T00:00:00	2024-11-06T07:00:00	6	Velocidad del viento	1.6
15998	7	Sololá	701	Sololá	3	Barraneche	3	Marzo	2023-03-25T00:00:00	2024-11-06T07:00:00	7	Dirección del viento	1.61
15999	7	Sololá	701	Sololá	3	Barraneche	3	Marzo	2023-03-25T00:00:00	2024-11-06T07:00:00	1	Precipitación	0
16000	7	Sololá	701	Sololá	3	Barraneche	3	Marzo	2023-03-25T00:00:00	2024-11-06T07:00:00	8	Radiación solar	26
16001	7	Sololá	701	Sololá	3	Barraneche	3	Marzo	2023-03-25T00:00:00	2024-11-06T08:00:00	2	Temperatura media	13.2
16002	7	Sololá	701	Sololá	3	Barraneche	3	Marzo	2023-03-25T00:00:00	2024-11-06T08:00:00	4	Temperatura máxima	13.2
16003	7	Sololá	701	Sololá	3	Barraneche	3	Marzo	2023-03-25T00:00:00	2024-11-06T08:00:00	3	Temperatura mínima	11.9
16004	7	Sololá	701	Sololá	3	Barraneche	3	Marzo	2023-03-25T00:00:00	2024-11-06T08:00:00	5	Humedad	68
16005	7	Sololá	701	Sololá	3	Barraneche	3	Marzo	2023-03-25T00:00:00	2024-11-06T08:00:00	6	Velocidad del viento	1.6
16006	7	Sololá	701	Sololá	3	Barraneche	3	Marzo	2023-03-25T00:00:00	2024-11-06T08:00:00	7	Dirección del viento	1.61
16007	7	Sololá	701	Sololá	3	Barraneche	3	Marzo	2023-03-25T00:00:00	2024-11-06T08:00:00	1	Precipitación	0
16008	7	Sololá	701	Sololá	3	Barraneche	3	Marzo	2023-03-25T00:00:00	2024-11-06T08:00:00	8	Radiación solar	153
16009	7	Sololá	701	Sololá	3	Barraneche	3	Marzo	2023-03-25T00:00:00	2024-11-06T09:00:00	2	Temperatura media	13.4
16010	7	Sololá	701	Sololá	3	Barraneche	3	Marzo	2023-03-25T00:00:00	2024-11-06T09:00:00	4	Temperatura máxima	13.7
16011	7	Sololá	701	Sololá	3	Barraneche	3	Marzo	2023-03-25T00:00:00	2024-11-06T09:00:00	3	Temperatura mínima	13.2
16012	7	Sololá	701	Sololá	3	Barraneche	3	Marzo	2023-03-25T00:00:00	2024-11-06T09:00:00	5	Humedad	70
16013	7	Sololá	701	Sololá	3	Barraneche	3	Marzo	2023-03-25T00:00:00	2024-11-06T09:00:00	6	Velocidad del viento	8
16014	7	Sololá	701	Sololá	3	Barraneche	3	Marzo	2023-03-25T00:00:00	2024-11-06T09:00:00	7	Dirección del viento	8.05
16015	7	Sololá	701	Sololá	3	Barraneche	3	Marzo	2023-03-25T00:00:00	2024-11-06T09:00:00	1	Precipitación	0
16016	7	Sololá	701	Sololá	3	Barraneche	3	Marzo	2023-03-25T00:00:00	2024-11-06T09:00:00	8	Radiación solar	211
16017	7	Sololá	701	Sololá	3	Barraneche	3	Marzo	2023-03-25T00:00:00	2024-11-06T10:00:00	2	Temperatura media	15
16018	7	Sololá	701	Sololá	3	Barraneche	3	Marzo	2023-03-25T00:00:00	2024-11-06T10:00:00	4	Temperatura máxima	15.1
16019	7	Sololá	701	Sololá	3	Barraneche	3	Marzo	2023-03-25T00:00:00	2024-11-06T10:00:00	3	Temperatura mínima	13.4
16020	7	Sololá	701	Sololá	3	Barraneche	3	Marzo	2023-03-25T00:00:00	2024-11-06T10:00:00	5	Humedad	64
16021	7	Sololá	701	Sololá	3	Barraneche	3	Marzo	2023-03-25T00:00:00	2024-11-06T10:00:00	6	Velocidad del viento	9.7
16022	7	Sololá	701	Sololá	3	Barraneche	3	Marzo	2023-03-25T00:00:00	2024-11-06T10:00:00	7	Dirección del viento	9.66
16023	7	Sololá	701	Sololá	3	Barraneche	3	Marzo	2023-03-25T00:00:00	2024-11-06T10:00:00	1	Precipitación	0
16024	7	Sololá	701	Sololá	3	Barraneche	3	Marzo	2023-03-25T00:00:00	2024-11-06T10:00:00	8	Radiación solar	403
16025	7	Sololá	701	Sololá	3	Barraneche	3	Marzo	2023-03-25T00:00:00	2024-11-06T11:00:00	2	Temperatura media	15.8
16026	7	Sololá	701	Sololá	3	Barraneche	3	Marzo	2023-03-25T00:00:00	2024-11-06T11:00:00	4	Temperatura máxima	15.9
16027	7	Sololá	701	Sololá	3	Barraneche	3	Marzo	2023-03-25T00:00:00	2024-11-06T11:00:00	3	Temperatura mínima	14.9
16028	7	Sololá	701	Sololá	3	Barraneche	3	Marzo	2023-03-25T00:00:00	2024-11-06T11:00:00	5	Humedad	62
16029	7	Sololá	701	Sololá	3	Barraneche	3	Marzo	2023-03-25T00:00:00	2024-11-06T11:00:00	6	Velocidad del viento	9.7
16030	7	Sololá	701	Sololá	3	Barraneche	3	Marzo	2023-03-25T00:00:00	2024-11-06T11:00:00	7	Dirección del viento	9.66
16031	7	Sololá	701	Sololá	3	Barraneche	3	Marzo	2023-03-25T00:00:00	2024-11-06T11:00:00	1	Precipitación	0
16032	7	Sololá	701	Sololá	3	Barraneche	3	Marzo	2023-03-25T00:00:00	2024-11-06T11:00:00	8	Radiación solar	410
16033	7	Sololá	701	Sololá	3	Barraneche	3	Marzo	2023-03-25T00:00:00	2024-11-06T12:00:00	2	Temperatura media	16.6
16034	7	Sololá	701	Sololá	3	Barraneche	3	Marzo	2023-03-25T00:00:00	2024-11-06T12:00:00	4	Temperatura máxima	16.7
16035	7	Sololá	701	Sololá	3	Barraneche	3	Marzo	2023-03-25T00:00:00	2024-11-06T12:00:00	3	Temperatura mínima	15.8
16036	7	Sololá	701	Sololá	3	Barraneche	3	Marzo	2023-03-25T00:00:00	2024-11-06T12:00:00	5	Humedad	60
16037	7	Sololá	701	Sololá	3	Barraneche	3	Marzo	2023-03-25T00:00:00	2024-11-06T12:00:00	6	Velocidad del viento	11.3
16038	7	Sololá	701	Sololá	3	Barraneche	3	Marzo	2023-03-25T00:00:00	2024-11-06T12:00:00	7	Dirección del viento	11.27
16039	7	Sololá	701	Sololá	3	Barraneche	3	Marzo	2023-03-25T00:00:00	2024-11-06T12:00:00	1	Precipitación	0
16040	7	Sololá	701	Sololá	3	Barraneche	3	Marzo	2023-03-25T00:00:00	2024-11-06T12:00:00	8	Radiación solar	564
16041	7	Sololá	701	Sololá	3	Barraneche	3	Marzo	2023-03-25T00:00:00	2024-11-06T13:00:00	2	Temperatura media	16.6
16042	7	Sololá	701	Sololá	3	Barraneche	3	Marzo	2023-03-25T00:00:00	2024-11-06T13:00:00	4	Temperatura máxima	17
16043	7	Sololá	701	Sololá	3	Barraneche	3	Marzo	2023-03-25T00:00:00	2024-11-06T13:00:00	3	Temperatura mínima	16.3
16044	7	Sololá	701	Sololá	3	Barraneche	3	Marzo	2023-03-25T00:00:00	2024-11-06T13:00:00	5	Humedad	62
16045	7	Sololá	701	Sololá	3	Barraneche	3	Marzo	2023-03-25T00:00:00	2024-11-06T13:00:00	6	Velocidad del viento	12.9
16046	7	Sololá	701	Sololá	3	Barraneche	3	Marzo	2023-03-25T00:00:00	2024-11-06T13:00:00	7	Dirección del viento	12.87
16047	7	Sololá	701	Sololá	3	Barraneche	3	Marzo	2023-03-25T00:00:00	2024-11-06T13:00:00	1	Precipitación	0
16048	7	Sololá	701	Sololá	3	Barraneche	3	Marzo	2023-03-25T00:00:00	2024-11-06T13:00:00	8	Radiación solar	410
16049	7	Sololá	701	Sololá	3	Barraneche	3	Marzo	2023-03-25T00:00:00	2024-11-06T14:00:00	2	Temperatura media	16.1
16050	7	Sololá	701	Sololá	3	Barraneche	3	Marzo	2023-03-25T00:00:00	2024-11-06T14:00:00	4	Temperatura máxima	17.4
16051	7	Sololá	701	Sololá	3	Barraneche	3	Marzo	2023-03-25T00:00:00	2024-11-06T14:00:00	3	Temperatura mínima	16.1
16052	7	Sololá	701	Sololá	3	Barraneche	3	Marzo	2023-03-25T00:00:00	2024-11-06T14:00:00	5	Humedad	66
16053	7	Sololá	701	Sololá	3	Barraneche	3	Marzo	2023-03-25T00:00:00	2024-11-06T14:00:00	6	Velocidad del viento	14.5
16054	7	Sololá	701	Sololá	3	Barraneche	3	Marzo	2023-03-25T00:00:00	2024-11-06T14:00:00	7	Dirección del viento	14.48
16055	7	Sololá	701	Sololá	3	Barraneche	3	Marzo	2023-03-25T00:00:00	2024-11-06T14:00:00	1	Precipitación	0
16056	7	Sololá	701	Sololá	3	Barraneche	3	Marzo	2023-03-25T00:00:00	2024-11-06T14:00:00	8	Radiación solar	555
16057	7	Sololá	701	Sololá	3	Barraneche	3	Marzo	2023-03-25T00:00:00	2024-11-06T15:00:00	2	Temperatura media	15.5
16058	7	Sololá	701	Sololá	3	Barraneche	3	Marzo	2023-03-25T00:00:00	2024-11-06T15:00:00	4	Temperatura máxima	16.6
16059	7	Sololá	701	Sololá	3	Barraneche	3	Marzo	2023-03-25T00:00:00	2024-11-06T15:00:00	3	Temperatura mínima	15.5
16060	7	Sololá	701	Sololá	3	Barraneche	3	Marzo	2023-03-25T00:00:00	2024-11-06T15:00:00	5	Humedad	69
16061	7	Sololá	701	Sololá	3	Barraneche	3	Marzo	2023-03-25T00:00:00	2024-11-06T15:00:00	6	Velocidad del viento	12.9
16062	7	Sololá	701	Sololá	3	Barraneche	3	Marzo	2023-03-25T00:00:00	2024-11-06T15:00:00	7	Dirección del viento	12.87
16063	7	Sololá	701	Sololá	3	Barraneche	3	Marzo	2023-03-25T00:00:00	2024-11-06T15:00:00	1	Precipitación	0
16064	7	Sololá	701	Sololá	3	Barraneche	3	Marzo	2023-03-25T00:00:00	2024-11-06T15:00:00	8	Radiación solar	292
16065	7	Sololá	701	Sololá	3	Barraneche	3	Marzo	2023-03-25T00:00:00	2024-11-06T16:00:00	2	Temperatura media	15
16066	7	Sololá	701	Sololá	3	Barraneche	3	Marzo	2023-03-25T00:00:00	2024-11-06T16:00:00	4	Temperatura máxima	15.7
16067	7	Sololá	701	Sololá	3	Barraneche	3	Marzo	2023-03-25T00:00:00	2024-11-06T16:00:00	3	Temperatura mínima	14.9
16068	7	Sololá	701	Sololá	3	Barraneche	3	Marzo	2023-03-25T00:00:00	2024-11-06T16:00:00	5	Humedad	70
16069	7	Sololá	701	Sololá	3	Barraneche	3	Marzo	2023-03-25T00:00:00	2024-11-06T16:00:00	6	Velocidad del viento	9.7
16070	7	Sololá	701	Sololá	3	Barraneche	3	Marzo	2023-03-25T00:00:00	2024-11-06T16:00:00	7	Dirección del viento	9.66
16071	7	Sololá	701	Sololá	3	Barraneche	3	Marzo	2023-03-25T00:00:00	2024-11-06T16:00:00	1	Precipitación	0
16072	7	Sololá	701	Sololá	3	Barraneche	3	Marzo	2023-03-25T00:00:00	2024-11-06T16:00:00	8	Radiación solar	220
16073	7	Sololá	701	Sololá	3	Barraneche	3	Marzo	2023-03-25T00:00:00	2024-11-06T17:00:00	2	Temperatura media	14.4
16074	7	Sololá	701	Sololá	3	Barraneche	3	Marzo	2023-03-25T00:00:00	2024-11-06T17:00:00	4	Temperatura máxima	15.1
16075	7	Sololá	701	Sololá	3	Barraneche	3	Marzo	2023-03-25T00:00:00	2024-11-06T17:00:00	3	Temperatura mínima	14.4
16076	7	Sololá	701	Sololá	3	Barraneche	3	Marzo	2023-03-25T00:00:00	2024-11-06T17:00:00	5	Humedad	70
16077	7	Sololá	701	Sololá	3	Barraneche	3	Marzo	2023-03-25T00:00:00	2024-11-06T17:00:00	6	Velocidad del viento	8
16078	7	Sololá	701	Sololá	3	Barraneche	3	Marzo	2023-03-25T00:00:00	2024-11-06T17:00:00	7	Dirección del viento	8.05
16079	7	Sololá	701	Sololá	3	Barraneche	3	Marzo	2023-03-25T00:00:00	2024-11-06T17:00:00	1	Precipitación	0
16080	7	Sololá	701	Sololá	3	Barraneche	3	Marzo	2023-03-25T00:00:00	2024-11-06T17:00:00	8	Radiación solar	83
16081	7	Sololá	701	Sololá	3	Barraneche	3	Marzo	2023-03-25T00:00:00	2024-11-06T18:00:00	2	Temperatura media	14.2
16082	7	Sololá	701	Sololá	3	Barraneche	3	Marzo	2023-03-25T00:00:00	2024-11-06T18:00:00	4	Temperatura máxima	14.7
16083	7	Sololá	701	Sololá	3	Barraneche	3	Marzo	2023-03-25T00:00:00	2024-11-06T18:00:00	3	Temperatura mínima	14.2
16084	7	Sololá	701	Sololá	3	Barraneche	3	Marzo	2023-03-25T00:00:00	2024-11-06T18:00:00	5	Humedad	71
16085	7	Sololá	701	Sololá	3	Barraneche	3	Marzo	2023-03-25T00:00:00	2024-11-06T18:00:00	6	Velocidad del viento	4.8
16086	7	Sololá	701	Sololá	3	Barraneche	3	Marzo	2023-03-25T00:00:00	2024-11-06T18:00:00	7	Dirección del viento	4.83
16087	7	Sololá	701	Sololá	3	Barraneche	3	Marzo	2023-03-25T00:00:00	2024-11-06T18:00:00	1	Precipitación	0
16088	7	Sololá	701	Sololá	3	Barraneche	3	Marzo	2023-03-25T00:00:00	2024-11-06T18:00:00	8	Radiación solar	35
16089	7	Sololá	701	Sololá	3	Barraneche	3	Marzo	2023-03-25T00:00:00	2024-11-06T19:00:00	2	Temperatura media	13.3
16090	7	Sololá	701	Sololá	3	Barraneche	3	Marzo	2023-03-25T00:00:00	2024-11-06T19:00:00	4	Temperatura máxima	14.2
16091	7	Sololá	701	Sololá	3	Barraneche	3	Marzo	2023-03-25T00:00:00	2024-11-06T19:00:00	3	Temperatura mínima	13.3
16092	7	Sololá	701	Sololá	3	Barraneche	3	Marzo	2023-03-25T00:00:00	2024-11-06T19:00:00	5	Humedad	72
16093	7	Sololá	701	Sololá	3	Barraneche	3	Marzo	2023-03-25T00:00:00	2024-11-06T19:00:00	6	Velocidad del viento	1.6
16094	7	Sololá	701	Sololá	3	Barraneche	3	Marzo	2023-03-25T00:00:00	2024-11-06T19:00:00	7	Dirección del viento	1.61
16095	7	Sololá	701	Sololá	3	Barraneche	3	Marzo	2023-03-25T00:00:00	2024-11-06T19:00:00	1	Precipitación	0
16096	7	Sololá	701	Sololá	3	Barraneche	3	Marzo	2023-03-25T00:00:00	2024-11-06T19:00:00	8	Radiación solar	0
16097	7	Sololá	701	Sololá	3	Barraneche	3	Marzo	2023-03-25T00:00:00	2024-11-06T20:00:00	2	Temperatura media	11.8
16098	7	Sololá	701	Sololá	3	Barraneche	3	Marzo	2023-03-25T00:00:00	2024-11-06T20:00:00	4	Temperatura máxima	13.4
16099	7	Sololá	701	Sololá	3	Barraneche	3	Marzo	2023-03-25T00:00:00	2024-11-06T20:00:00	3	Temperatura mínima	11.8
16100	7	Sololá	701	Sololá	3	Barraneche	3	Marzo	2023-03-25T00:00:00	2024-11-06T20:00:00	5	Humedad	72
16101	7	Sololá	701	Sololá	3	Barraneche	3	Marzo	2023-03-25T00:00:00	2024-11-06T20:00:00	6	Velocidad del viento	4.8
16102	7	Sololá	701	Sololá	3	Barraneche	3	Marzo	2023-03-25T00:00:00	2024-11-06T20:00:00	7	Dirección del viento	4.83
16103	7	Sololá	701	Sololá	3	Barraneche	3	Marzo	2023-03-25T00:00:00	2024-11-06T20:00:00	1	Precipitación	0
16104	7	Sololá	701	Sololá	3	Barraneche	3	Marzo	2023-03-25T00:00:00	2024-11-06T20:00:00	8	Radiación solar	0
16105	7	Sololá	701	Sololá	3	Barraneche	3	Marzo	2023-03-25T00:00:00	2024-11-06T21:00:00	2	Temperatura media	11.3
16106	7	Sololá	701	Sololá	3	Barraneche	3	Marzo	2023-03-25T00:00:00	2024-11-06T21:00:00	4	Temperatura máxima	11.9
16107	7	Sololá	701	Sololá	3	Barraneche	3	Marzo	2023-03-25T00:00:00	2024-11-06T21:00:00	3	Temperatura mínima	11.3
16108	7	Sololá	701	Sololá	3	Barraneche	3	Marzo	2023-03-25T00:00:00	2024-11-06T21:00:00	5	Humedad	72
16109	7	Sololá	701	Sololá	3	Barraneche	3	Marzo	2023-03-25T00:00:00	2024-11-06T21:00:00	6	Velocidad del viento	4.8
16110	7	Sololá	701	Sololá	3	Barraneche	3	Marzo	2023-03-25T00:00:00	2024-11-06T21:00:00	7	Dirección del viento	4.83
16111	7	Sololá	701	Sololá	3	Barraneche	3	Marzo	2023-03-25T00:00:00	2024-11-06T21:00:00	1	Precipitación	0
16112	7	Sololá	701	Sololá	3	Barraneche	3	Marzo	2023-03-25T00:00:00	2024-11-06T21:00:00	8	Radiación solar	0
16113	7	Sololá	701	Sololá	3	Barraneche	3	Marzo	2023-03-25T00:00:00	2024-11-06T22:00:00	2	Temperatura media	11.7
16114	7	Sololá	701	Sololá	3	Barraneche	3	Marzo	2023-03-25T00:00:00	2024-11-06T22:00:00	4	Temperatura máxima	11.7
16115	7	Sololá	701	Sololá	3	Barraneche	3	Marzo	2023-03-25T00:00:00	2024-11-06T22:00:00	3	Temperatura mínima	11.2
16116	7	Sololá	701	Sololá	3	Barraneche	3	Marzo	2023-03-25T00:00:00	2024-11-06T22:00:00	5	Humedad	73
16117	7	Sololá	701	Sololá	3	Barraneche	3	Marzo	2023-03-25T00:00:00	2024-11-06T22:00:00	6	Velocidad del viento	4.8
16118	7	Sololá	701	Sololá	3	Barraneche	3	Marzo	2023-03-25T00:00:00	2024-11-06T22:00:00	7	Dirección del viento	4.83
16119	7	Sololá	701	Sololá	3	Barraneche	3	Marzo	2023-03-25T00:00:00	2024-11-06T22:00:00	1	Precipitación	0
16120	7	Sololá	701	Sololá	3	Barraneche	3	Marzo	2023-03-25T00:00:00	2024-11-06T22:00:00	8	Radiación solar	0
16121	7	Sololá	701	Sololá	3	Barraneche	3	Marzo	2023-03-25T00:00:00	2024-11-06T23:00:00	2	Temperatura media	12.4
16122	7	Sololá	701	Sololá	3	Barraneche	3	Marzo	2023-03-25T00:00:00	2024-11-06T23:00:00	4	Temperatura máxima	12.9
16123	7	Sololá	701	Sololá	3	Barraneche	3	Marzo	2023-03-25T00:00:00	2024-11-06T23:00:00	3	Temperatura mínima	11.6
16124	7	Sololá	701	Sololá	3	Barraneche	3	Marzo	2023-03-25T00:00:00	2024-11-06T23:00:00	5	Humedad	70
16125	7	Sololá	701	Sololá	3	Barraneche	3	Marzo	2023-03-25T00:00:00	2024-11-06T23:00:00	6	Velocidad del viento	3.2
16126	7	Sololá	701	Sololá	3	Barraneche	3	Marzo	2023-03-25T00:00:00	2024-11-06T23:00:00	7	Dirección del viento	3.22
16127	7	Sololá	701	Sololá	3	Barraneche	3	Marzo	2023-03-25T00:00:00	2024-11-06T23:00:00	1	Precipitación	0
16128	7	Sololá	701	Sololá	3	Barraneche	3	Marzo	2023-03-25T00:00:00	2024-11-06T23:00:00	8	Radiación solar	0
16129	7	Sololá	701	Sololá	3	Barraneche	3	Marzo	2023-03-26T00:00:00	2024-11-06T00:00:00	2	Temperatura media	12
16130	7	Sololá	701	Sololá	3	Barraneche	3	Marzo	2023-03-26T00:00:00	2024-11-06T00:00:00	4	Temperatura máxima	12.6
16131	7	Sololá	701	Sololá	3	Barraneche	3	Marzo	2023-03-26T00:00:00	2024-11-06T00:00:00	3	Temperatura mínima	12
16132	7	Sololá	701	Sololá	3	Barraneche	3	Marzo	2023-03-26T00:00:00	2024-11-06T00:00:00	5	Humedad	73
16133	7	Sololá	701	Sololá	3	Barraneche	3	Marzo	2023-03-26T00:00:00	2024-11-06T00:00:00	6	Velocidad del viento	1.6
16134	7	Sololá	701	Sololá	3	Barraneche	3	Marzo	2023-03-26T00:00:00	2024-11-06T00:00:00	7	Dirección del viento	1.61
16135	7	Sololá	701	Sololá	3	Barraneche	3	Marzo	2023-03-26T00:00:00	2024-11-06T00:00:00	1	Precipitación	0
16136	7	Sololá	701	Sololá	3	Barraneche	3	Marzo	2023-03-26T00:00:00	2024-11-06T00:00:00	8	Radiación solar	0
16137	7	Sololá	701	Sololá	3	Barraneche	3	Marzo	2023-03-26T00:00:00	2024-11-06T01:00:00	2	Temperatura media	12.4
16138	7	Sololá	701	Sololá	3	Barraneche	3	Marzo	2023-03-26T00:00:00	2024-11-06T01:00:00	4	Temperatura máxima	12.4
16139	7	Sololá	701	Sololá	3	Barraneche	3	Marzo	2023-03-26T00:00:00	2024-11-06T01:00:00	3	Temperatura mínima	11.8
16140	7	Sololá	701	Sololá	3	Barraneche	3	Marzo	2023-03-26T00:00:00	2024-11-06T01:00:00	5	Humedad	73
16141	7	Sololá	701	Sololá	3	Barraneche	3	Marzo	2023-03-26T00:00:00	2024-11-06T01:00:00	6	Velocidad del viento	3.2
16142	7	Sololá	701	Sololá	3	Barraneche	3	Marzo	2023-03-26T00:00:00	2024-11-06T01:00:00	7	Dirección del viento	3.22
16143	7	Sololá	701	Sololá	3	Barraneche	3	Marzo	2023-03-26T00:00:00	2024-11-06T01:00:00	1	Precipitación	0
16144	7	Sololá	701	Sololá	3	Barraneche	3	Marzo	2023-03-26T00:00:00	2024-11-06T01:00:00	8	Radiación solar	0
16145	7	Sololá	701	Sololá	3	Barraneche	3	Marzo	2023-03-26T00:00:00	2024-11-06T02:00:00	2	Temperatura media	12.1
16146	7	Sololá	701	Sololá	3	Barraneche	3	Marzo	2023-03-26T00:00:00	2024-11-06T02:00:00	4	Temperatura máxima	12.6
16147	7	Sololá	701	Sololá	3	Barraneche	3	Marzo	2023-03-26T00:00:00	2024-11-06T02:00:00	3	Temperatura mínima	12
16148	7	Sololá	701	Sololá	3	Barraneche	3	Marzo	2023-03-26T00:00:00	2024-11-06T02:00:00	5	Humedad	74
16149	7	Sololá	701	Sololá	3	Barraneche	3	Marzo	2023-03-26T00:00:00	2024-11-06T02:00:00	6	Velocidad del viento	1.6
16150	7	Sololá	701	Sololá	3	Barraneche	3	Marzo	2023-03-26T00:00:00	2024-11-06T02:00:00	7	Dirección del viento	1.61
16151	7	Sololá	701	Sololá	3	Barraneche	3	Marzo	2023-03-26T00:00:00	2024-11-06T02:00:00	1	Precipitación	0
16152	7	Sololá	701	Sololá	3	Barraneche	3	Marzo	2023-03-26T00:00:00	2024-11-06T02:00:00	8	Radiación solar	0
16153	7	Sololá	701	Sololá	3	Barraneche	3	Marzo	2023-03-26T00:00:00	2024-11-06T03:00:00	2	Temperatura media	11.8
16154	7	Sololá	701	Sololá	3	Barraneche	3	Marzo	2023-03-26T00:00:00	2024-11-06T03:00:00	4	Temperatura máxima	12.2
16155	7	Sololá	701	Sololá	3	Barraneche	3	Marzo	2023-03-26T00:00:00	2024-11-06T03:00:00	3	Temperatura mínima	11.8
16156	7	Sololá	701	Sololá	3	Barraneche	3	Marzo	2023-03-26T00:00:00	2024-11-06T03:00:00	5	Humedad	75
16157	7	Sololá	701	Sololá	3	Barraneche	3	Marzo	2023-03-26T00:00:00	2024-11-06T03:00:00	6	Velocidad del viento	1.6
16158	7	Sololá	701	Sololá	3	Barraneche	3	Marzo	2023-03-26T00:00:00	2024-11-06T03:00:00	7	Dirección del viento	1.61
16159	7	Sololá	701	Sololá	3	Barraneche	3	Marzo	2023-03-26T00:00:00	2024-11-06T03:00:00	1	Precipitación	0
16160	7	Sololá	701	Sololá	3	Barraneche	3	Marzo	2023-03-26T00:00:00	2024-11-06T03:00:00	8	Radiación solar	0
16161	7	Sololá	701	Sololá	3	Barraneche	3	Marzo	2023-03-26T00:00:00	2024-11-06T04:00:00	2	Temperatura media	11.7
16162	7	Sololá	701	Sololá	3	Barraneche	3	Marzo	2023-03-26T00:00:00	2024-11-06T04:00:00	4	Temperatura máxima	12.1
16163	7	Sololá	701	Sololá	3	Barraneche	3	Marzo	2023-03-26T00:00:00	2024-11-06T04:00:00	3	Temperatura mínima	11.7
16164	7	Sololá	701	Sololá	3	Barraneche	3	Marzo	2023-03-26T00:00:00	2024-11-06T04:00:00	5	Humedad	76
16165	7	Sololá	701	Sololá	3	Barraneche	3	Marzo	2023-03-26T00:00:00	2024-11-06T04:00:00	6	Velocidad del viento	1.6
16166	7	Sololá	701	Sololá	3	Barraneche	3	Marzo	2023-03-26T00:00:00	2024-11-06T04:00:00	7	Dirección del viento	1.61
16167	7	Sololá	701	Sololá	3	Barraneche	3	Marzo	2023-03-26T00:00:00	2024-11-06T04:00:00	1	Precipitación	0
16168	7	Sololá	701	Sololá	3	Barraneche	3	Marzo	2023-03-26T00:00:00	2024-11-06T04:00:00	8	Radiación solar	0
16169	7	Sololá	701	Sololá	3	Barraneche	3	Marzo	2023-03-26T00:00:00	2024-11-06T05:00:00	2	Temperatura media	12.1
16170	7	Sololá	701	Sololá	3	Barraneche	3	Marzo	2023-03-26T00:00:00	2024-11-06T05:00:00	4	Temperatura máxima	12.2
16171	7	Sololá	701	Sololá	3	Barraneche	3	Marzo	2023-03-26T00:00:00	2024-11-06T05:00:00	3	Temperatura mínima	11.7
16172	7	Sololá	701	Sololá	3	Barraneche	3	Marzo	2023-03-26T00:00:00	2024-11-06T05:00:00	5	Humedad	78
16173	7	Sololá	701	Sololá	3	Barraneche	3	Marzo	2023-03-26T00:00:00	2024-11-06T05:00:00	6	Velocidad del viento	1.6
16174	7	Sololá	701	Sololá	3	Barraneche	3	Marzo	2023-03-26T00:00:00	2024-11-06T05:00:00	7	Dirección del viento	1.61
16175	7	Sololá	701	Sololá	3	Barraneche	3	Marzo	2023-03-26T00:00:00	2024-11-06T05:00:00	1	Precipitación	0
16176	7	Sololá	701	Sololá	3	Barraneche	3	Marzo	2023-03-26T00:00:00	2024-11-06T05:00:00	8	Radiación solar	0
16177	7	Sololá	701	Sololá	3	Barraneche	3	Marzo	2023-03-26T00:00:00	2024-11-06T06:00:00	2	Temperatura media	11.2
16178	7	Sololá	701	Sololá	3	Barraneche	3	Marzo	2023-03-26T00:00:00	2024-11-06T06:00:00	4	Temperatura máxima	12.1
16179	7	Sololá	701	Sololá	3	Barraneche	3	Marzo	2023-03-26T00:00:00	2024-11-06T06:00:00	3	Temperatura mínima	11.2
16180	7	Sololá	701	Sololá	3	Barraneche	3	Marzo	2023-03-26T00:00:00	2024-11-06T06:00:00	5	Humedad	85
16181	7	Sololá	701	Sololá	3	Barraneche	3	Marzo	2023-03-26T00:00:00	2024-11-06T06:00:00	6	Velocidad del viento	3.2
16182	7	Sololá	701	Sololá	3	Barraneche	3	Marzo	2023-03-26T00:00:00	2024-11-06T06:00:00	7	Dirección del viento	3.22
16183	7	Sololá	701	Sololá	3	Barraneche	3	Marzo	2023-03-26T00:00:00	2024-11-06T06:00:00	1	Precipitación	0
16184	7	Sololá	701	Sololá	3	Barraneche	3	Marzo	2023-03-26T00:00:00	2024-11-06T06:00:00	8	Radiación solar	0
16185	7	Sololá	701	Sololá	3	Barraneche	3	Marzo	2023-03-26T00:00:00	2024-11-06T07:00:00	2	Temperatura media	10.7
16186	7	Sololá	701	Sololá	3	Barraneche	3	Marzo	2023-03-26T00:00:00	2024-11-06T07:00:00	4	Temperatura máxima	11.2
16187	7	Sololá	701	Sololá	3	Barraneche	3	Marzo	2023-03-26T00:00:00	2024-11-06T07:00:00	3	Temperatura mínima	10.6
16188	7	Sololá	701	Sololá	3	Barraneche	3	Marzo	2023-03-26T00:00:00	2024-11-06T07:00:00	5	Humedad	85
16189	7	Sololá	701	Sololá	3	Barraneche	3	Marzo	2023-03-26T00:00:00	2024-11-06T07:00:00	6	Velocidad del viento	1.6
16190	7	Sololá	701	Sololá	3	Barraneche	3	Marzo	2023-03-26T00:00:00	2024-11-06T07:00:00	7	Dirección del viento	1.61
16191	7	Sololá	701	Sololá	3	Barraneche	3	Marzo	2023-03-26T00:00:00	2024-11-06T07:00:00	1	Precipitación	0
16192	7	Sololá	701	Sololá	3	Barraneche	3	Marzo	2023-03-26T00:00:00	2024-11-06T07:00:00	8	Radiación solar	28
16193	7	Sololá	701	Sololá	3	Barraneche	3	Marzo	2023-03-26T00:00:00	2024-11-06T08:00:00	2	Temperatura media	12.9
16194	7	Sololá	701	Sololá	3	Barraneche	3	Marzo	2023-03-26T00:00:00	2024-11-06T08:00:00	4	Temperatura máxima	12.9
16195	7	Sololá	701	Sololá	3	Barraneche	3	Marzo	2023-03-26T00:00:00	2024-11-06T08:00:00	3	Temperatura mínima	10.7
16196	7	Sololá	701	Sololá	3	Barraneche	3	Marzo	2023-03-26T00:00:00	2024-11-06T08:00:00	5	Humedad	75
16197	7	Sololá	701	Sololá	3	Barraneche	3	Marzo	2023-03-26T00:00:00	2024-11-06T08:00:00	6	Velocidad del viento	4.8
16198	7	Sololá	701	Sololá	3	Barraneche	3	Marzo	2023-03-26T00:00:00	2024-11-06T08:00:00	7	Dirección del viento	4.83
16199	7	Sololá	701	Sololá	3	Barraneche	3	Marzo	2023-03-26T00:00:00	2024-11-06T08:00:00	1	Precipitación	0
16200	7	Sololá	701	Sololá	3	Barraneche	3	Marzo	2023-03-26T00:00:00	2024-11-06T08:00:00	8	Radiación solar	272
16201	7	Sololá	701	Sololá	3	Barraneche	3	Marzo	2023-03-26T00:00:00	2024-11-06T09:00:00	2	Temperatura media	13.7
16202	7	Sololá	701	Sololá	3	Barraneche	3	Marzo	2023-03-26T00:00:00	2024-11-06T09:00:00	4	Temperatura máxima	13.7
16203	7	Sololá	701	Sololá	3	Barraneche	3	Marzo	2023-03-26T00:00:00	2024-11-06T09:00:00	3	Temperatura mínima	12.8
16204	7	Sololá	701	Sololá	3	Barraneche	3	Marzo	2023-03-26T00:00:00	2024-11-06T09:00:00	5	Humedad	74
16205	7	Sololá	701	Sololá	3	Barraneche	3	Marzo	2023-03-26T00:00:00	2024-11-06T09:00:00	6	Velocidad del viento	4.8
16206	7	Sololá	701	Sololá	3	Barraneche	3	Marzo	2023-03-26T00:00:00	2024-11-06T09:00:00	7	Dirección del viento	4.83
16207	7	Sololá	701	Sololá	3	Barraneche	3	Marzo	2023-03-26T00:00:00	2024-11-06T09:00:00	1	Precipitación	0
16208	7	Sololá	701	Sololá	3	Barraneche	3	Marzo	2023-03-26T00:00:00	2024-11-06T09:00:00	8	Radiación solar	396
16209	7	Sololá	701	Sololá	3	Barraneche	3	Marzo	2023-03-26T00:00:00	2024-11-06T10:00:00	2	Temperatura media	16.2
16210	7	Sololá	701	Sololá	3	Barraneche	3	Marzo	2023-03-26T00:00:00	2024-11-06T10:00:00	4	Temperatura máxima	16.3
16211	7	Sololá	701	Sololá	3	Barraneche	3	Marzo	2023-03-26T00:00:00	2024-11-06T10:00:00	3	Temperatura mínima	13.7
16212	7	Sololá	701	Sololá	3	Barraneche	3	Marzo	2023-03-26T00:00:00	2024-11-06T10:00:00	5	Humedad	70
16213	7	Sololá	701	Sololá	3	Barraneche	3	Marzo	2023-03-26T00:00:00	2024-11-06T10:00:00	6	Velocidad del viento	6.4
16214	7	Sololá	701	Sololá	3	Barraneche	3	Marzo	2023-03-26T00:00:00	2024-11-06T10:00:00	7	Dirección del viento	6.44
16215	7	Sololá	701	Sololá	3	Barraneche	3	Marzo	2023-03-26T00:00:00	2024-11-06T10:00:00	1	Precipitación	0
16216	7	Sololá	701	Sololá	3	Barraneche	3	Marzo	2023-03-26T00:00:00	2024-11-06T10:00:00	8	Radiación solar	724
16217	7	Sololá	701	Sololá	3	Barraneche	3	Marzo	2023-03-26T00:00:00	2024-11-06T11:00:00	2	Temperatura media	16.8
16218	7	Sololá	701	Sololá	3	Barraneche	3	Marzo	2023-03-26T00:00:00	2024-11-06T11:00:00	4	Temperatura máxima	16.9
16219	7	Sololá	701	Sololá	3	Barraneche	3	Marzo	2023-03-26T00:00:00	2024-11-06T11:00:00	3	Temperatura mínima	15.8
16220	7	Sololá	701	Sololá	3	Barraneche	3	Marzo	2023-03-26T00:00:00	2024-11-06T11:00:00	5	Humedad	67
16221	7	Sololá	701	Sololá	3	Barraneche	3	Marzo	2023-03-26T00:00:00	2024-11-06T11:00:00	6	Velocidad del viento	16.1
16222	7	Sololá	701	Sololá	3	Barraneche	3	Marzo	2023-03-26T00:00:00	2024-11-06T11:00:00	7	Dirección del viento	16.09
16223	7	Sololá	701	Sololá	3	Barraneche	3	Marzo	2023-03-26T00:00:00	2024-11-06T11:00:00	1	Precipitación	0
16224	7	Sololá	701	Sololá	3	Barraneche	3	Marzo	2023-03-26T00:00:00	2024-11-06T11:00:00	8	Radiación solar	986
16225	7	Sololá	701	Sololá	3	Barraneche	3	Marzo	2023-03-26T00:00:00	2024-11-06T12:00:00	2	Temperatura media	16.8
16226	7	Sololá	701	Sololá	3	Barraneche	3	Marzo	2023-03-26T00:00:00	2024-11-06T12:00:00	4	Temperatura máxima	17.4
16227	7	Sololá	701	Sololá	3	Barraneche	3	Marzo	2023-03-26T00:00:00	2024-11-06T12:00:00	3	Temperatura mínima	16.6
16228	7	Sololá	701	Sololá	3	Barraneche	3	Marzo	2023-03-26T00:00:00	2024-11-06T12:00:00	5	Humedad	68
16229	7	Sololá	701	Sololá	3	Barraneche	3	Marzo	2023-03-26T00:00:00	2024-11-06T12:00:00	6	Velocidad del viento	16.1
16230	7	Sololá	701	Sololá	3	Barraneche	3	Marzo	2023-03-26T00:00:00	2024-11-06T12:00:00	7	Dirección del viento	16.09
16231	7	Sololá	701	Sololá	3	Barraneche	3	Marzo	2023-03-26T00:00:00	2024-11-06T12:00:00	1	Precipitación	0
16232	7	Sololá	701	Sololá	3	Barraneche	3	Marzo	2023-03-26T00:00:00	2024-11-06T12:00:00	8	Radiación solar	1098
16233	7	Sololá	701	Sololá	3	Barraneche	3	Marzo	2023-03-26T00:00:00	2024-11-06T13:00:00	2	Temperatura media	17.6
16234	7	Sololá	701	Sololá	3	Barraneche	3	Marzo	2023-03-26T00:00:00	2024-11-06T13:00:00	4	Temperatura máxima	17.7
16235	7	Sololá	701	Sololá	3	Barraneche	3	Marzo	2023-03-26T00:00:00	2024-11-06T13:00:00	3	Temperatura mínima	16.8
16236	7	Sololá	701	Sololá	3	Barraneche	3	Marzo	2023-03-26T00:00:00	2024-11-06T13:00:00	5	Humedad	67
16237	7	Sololá	701	Sololá	3	Barraneche	3	Marzo	2023-03-26T00:00:00	2024-11-06T13:00:00	6	Velocidad del viento	17.7
16238	7	Sololá	701	Sololá	3	Barraneche	3	Marzo	2023-03-26T00:00:00	2024-11-06T13:00:00	7	Dirección del viento	17.7
16239	7	Sololá	701	Sololá	3	Barraneche	3	Marzo	2023-03-26T00:00:00	2024-11-06T13:00:00	1	Precipitación	0
16240	7	Sololá	701	Sololá	3	Barraneche	3	Marzo	2023-03-26T00:00:00	2024-11-06T13:00:00	8	Radiación solar	1087
16241	7	Sololá	701	Sololá	3	Barraneche	3	Marzo	2023-03-26T00:00:00	2024-11-06T14:00:00	2	Temperatura media	17.5
16242	7	Sololá	701	Sololá	3	Barraneche	3	Marzo	2023-03-26T00:00:00	2024-11-06T14:00:00	4	Temperatura máxima	17.7
16243	7	Sololá	701	Sololá	3	Barraneche	3	Marzo	2023-03-26T00:00:00	2024-11-06T14:00:00	3	Temperatura mínima	17.1
16244	7	Sololá	701	Sololá	3	Barraneche	3	Marzo	2023-03-26T00:00:00	2024-11-06T14:00:00	5	Humedad	68
16245	7	Sololá	701	Sololá	3	Barraneche	3	Marzo	2023-03-26T00:00:00	2024-11-06T14:00:00	6	Velocidad del viento	17.7
16246	7	Sololá	701	Sololá	3	Barraneche	3	Marzo	2023-03-26T00:00:00	2024-11-06T14:00:00	7	Dirección del viento	17.7
16247	7	Sololá	701	Sololá	3	Barraneche	3	Marzo	2023-03-26T00:00:00	2024-11-06T14:00:00	1	Precipitación	0
16248	7	Sololá	701	Sololá	3	Barraneche	3	Marzo	2023-03-26T00:00:00	2024-11-06T14:00:00	8	Radiación solar	1024
16249	7	Sololá	701	Sololá	3	Barraneche	3	Marzo	2023-03-26T00:00:00	2024-11-06T15:00:00	2	Temperatura media	16.6
16250	7	Sololá	701	Sololá	3	Barraneche	3	Marzo	2023-03-26T00:00:00	2024-11-06T15:00:00	4	Temperatura máxima	17.7
16251	7	Sololá	701	Sololá	3	Barraneche	3	Marzo	2023-03-26T00:00:00	2024-11-06T15:00:00	3	Temperatura mínima	16.6
16252	7	Sololá	701	Sololá	3	Barraneche	3	Marzo	2023-03-26T00:00:00	2024-11-06T15:00:00	5	Humedad	70
16253	7	Sololá	701	Sololá	3	Barraneche	3	Marzo	2023-03-26T00:00:00	2024-11-06T15:00:00	6	Velocidad del viento	12.9
16254	7	Sololá	701	Sololá	3	Barraneche	3	Marzo	2023-03-26T00:00:00	2024-11-06T15:00:00	7	Dirección del viento	12.87
16255	7	Sololá	701	Sololá	3	Barraneche	3	Marzo	2023-03-26T00:00:00	2024-11-06T15:00:00	1	Precipitación	0
16256	7	Sololá	701	Sololá	3	Barraneche	3	Marzo	2023-03-26T00:00:00	2024-11-06T15:00:00	8	Radiación solar	857
16257	7	Sololá	701	Sololá	3	Barraneche	3	Marzo	2023-03-26T00:00:00	2024-11-06T16:00:00	2	Temperatura media	15.8
16258	7	Sololá	701	Sololá	3	Barraneche	3	Marzo	2023-03-26T00:00:00	2024-11-06T16:00:00	4	Temperatura máxima	16.8
16259	7	Sololá	701	Sololá	3	Barraneche	3	Marzo	2023-03-26T00:00:00	2024-11-06T16:00:00	3	Temperatura mínima	15.7
16260	7	Sololá	701	Sololá	3	Barraneche	3	Marzo	2023-03-26T00:00:00	2024-11-06T16:00:00	5	Humedad	74
16261	7	Sololá	701	Sololá	3	Barraneche	3	Marzo	2023-03-26T00:00:00	2024-11-06T16:00:00	6	Velocidad del viento	11.3
16262	7	Sololá	701	Sololá	3	Barraneche	3	Marzo	2023-03-26T00:00:00	2024-11-06T16:00:00	7	Dirección del viento	11.27
16263	7	Sololá	701	Sololá	3	Barraneche	3	Marzo	2023-03-26T00:00:00	2024-11-06T16:00:00	1	Precipitación	0
16264	7	Sololá	701	Sololá	3	Barraneche	3	Marzo	2023-03-26T00:00:00	2024-11-06T16:00:00	8	Radiación solar	330
16265	7	Sololá	701	Sololá	3	Barraneche	3	Marzo	2023-03-26T00:00:00	2024-11-06T17:00:00	2	Temperatura media	15.1
16266	7	Sololá	701	Sololá	3	Barraneche	3	Marzo	2023-03-26T00:00:00	2024-11-06T17:00:00	4	Temperatura máxima	16.3
16267	7	Sololá	701	Sololá	3	Barraneche	3	Marzo	2023-03-26T00:00:00	2024-11-06T17:00:00	3	Temperatura mínima	14.7
16268	7	Sololá	701	Sololá	3	Barraneche	3	Marzo	2023-03-26T00:00:00	2024-11-06T17:00:00	5	Humedad	75
16269	7	Sololá	701	Sololá	3	Barraneche	3	Marzo	2023-03-26T00:00:00	2024-11-06T17:00:00	6	Velocidad del viento	9.7
16270	7	Sololá	701	Sololá	3	Barraneche	3	Marzo	2023-03-26T00:00:00	2024-11-06T17:00:00	7	Dirección del viento	9.66
16271	7	Sololá	701	Sololá	3	Barraneche	3	Marzo	2023-03-26T00:00:00	2024-11-06T17:00:00	1	Precipitación	0
16272	7	Sololá	701	Sololá	3	Barraneche	3	Marzo	2023-03-26T00:00:00	2024-11-06T17:00:00	8	Radiación solar	175
16273	7	Sololá	701	Sololá	3	Barraneche	3	Marzo	2023-03-26T00:00:00	2024-11-06T18:00:00	2	Temperatura media	14.4
16274	7	Sololá	701	Sololá	3	Barraneche	3	Marzo	2023-03-26T00:00:00	2024-11-06T18:00:00	4	Temperatura máxima	15.1
16275	7	Sololá	701	Sololá	3	Barraneche	3	Marzo	2023-03-26T00:00:00	2024-11-06T18:00:00	3	Temperatura mínima	14.4
16276	7	Sololá	701	Sololá	3	Barraneche	3	Marzo	2023-03-26T00:00:00	2024-11-06T18:00:00	5	Humedad	76
16277	7	Sololá	701	Sololá	3	Barraneche	3	Marzo	2023-03-26T00:00:00	2024-11-06T18:00:00	6	Velocidad del viento	6.4
16278	7	Sololá	701	Sololá	3	Barraneche	3	Marzo	2023-03-26T00:00:00	2024-11-06T18:00:00	7	Dirección del viento	6.44
16279	7	Sololá	701	Sololá	3	Barraneche	3	Marzo	2023-03-26T00:00:00	2024-11-06T18:00:00	1	Precipitación	0
16280	7	Sololá	701	Sololá	3	Barraneche	3	Marzo	2023-03-26T00:00:00	2024-11-06T18:00:00	8	Radiación solar	73
16281	7	Sololá	701	Sololá	3	Barraneche	3	Marzo	2023-03-26T00:00:00	2024-11-06T19:00:00	2	Temperatura media	13.7
16282	7	Sololá	701	Sololá	3	Barraneche	3	Marzo	2023-03-26T00:00:00	2024-11-06T19:00:00	4	Temperatura máxima	14.4
16283	7	Sololá	701	Sololá	3	Barraneche	3	Marzo	2023-03-26T00:00:00	2024-11-06T19:00:00	3	Temperatura mínima	13.7
16284	7	Sololá	701	Sololá	3	Barraneche	3	Marzo	2023-03-26T00:00:00	2024-11-06T19:00:00	5	Humedad	77
16285	7	Sololá	701	Sololá	3	Barraneche	3	Marzo	2023-03-26T00:00:00	2024-11-06T19:00:00	6	Velocidad del viento	1.6
16286	7	Sololá	701	Sololá	3	Barraneche	3	Marzo	2023-03-26T00:00:00	2024-11-06T19:00:00	7	Dirección del viento	1.61
16287	7	Sololá	701	Sololá	3	Barraneche	3	Marzo	2023-03-26T00:00:00	2024-11-06T19:00:00	1	Precipitación	0
16288	7	Sololá	701	Sololá	3	Barraneche	3	Marzo	2023-03-26T00:00:00	2024-11-06T19:00:00	8	Radiación solar	0
16289	7	Sololá	701	Sololá	3	Barraneche	3	Marzo	2023-03-26T00:00:00	2024-11-06T20:00:00	2	Temperatura media	11.8
16290	7	Sololá	701	Sololá	3	Barraneche	3	Marzo	2023-03-26T00:00:00	2024-11-06T20:00:00	4	Temperatura máxima	13.7
16291	7	Sololá	701	Sololá	3	Barraneche	3	Marzo	2023-03-26T00:00:00	2024-11-06T20:00:00	3	Temperatura mínima	11.6
16292	7	Sololá	701	Sololá	3	Barraneche	3	Marzo	2023-03-26T00:00:00	2024-11-06T20:00:00	5	Humedad	73
16293	7	Sololá	701	Sololá	3	Barraneche	3	Marzo	2023-03-26T00:00:00	2024-11-06T20:00:00	6	Velocidad del viento	6.4
16294	7	Sololá	701	Sololá	3	Barraneche	3	Marzo	2023-03-26T00:00:00	2024-11-06T20:00:00	7	Dirección del viento	6.44
16295	7	Sololá	701	Sololá	3	Barraneche	3	Marzo	2023-03-26T00:00:00	2024-11-06T20:00:00	1	Precipitación	0
16296	7	Sololá	701	Sololá	3	Barraneche	3	Marzo	2023-03-26T00:00:00	2024-11-06T20:00:00	8	Radiación solar	0
16297	7	Sololá	701	Sololá	3	Barraneche	3	Marzo	2023-03-26T00:00:00	2024-11-06T21:00:00	2	Temperatura media	12
16298	7	Sololá	701	Sololá	3	Barraneche	3	Marzo	2023-03-26T00:00:00	2024-11-06T21:00:00	4	Temperatura máxima	12.1
16299	7	Sololá	701	Sololá	3	Barraneche	3	Marzo	2023-03-26T00:00:00	2024-11-06T21:00:00	3	Temperatura mínima	11.6
16300	7	Sololá	701	Sololá	3	Barraneche	3	Marzo	2023-03-26T00:00:00	2024-11-06T21:00:00	5	Humedad	72
16301	7	Sololá	701	Sololá	3	Barraneche	3	Marzo	2023-03-26T00:00:00	2024-11-06T21:00:00	6	Velocidad del viento	4.8
16302	7	Sololá	701	Sololá	3	Barraneche	3	Marzo	2023-03-26T00:00:00	2024-11-06T21:00:00	7	Dirección del viento	4.83
16303	7	Sololá	701	Sololá	3	Barraneche	3	Marzo	2023-03-26T00:00:00	2024-11-06T21:00:00	1	Precipitación	0
16304	7	Sololá	701	Sololá	3	Barraneche	3	Marzo	2023-03-26T00:00:00	2024-11-06T21:00:00	8	Radiación solar	0
16305	7	Sololá	701	Sololá	3	Barraneche	3	Marzo	2023-03-26T00:00:00	2024-11-06T22:00:00	2	Temperatura media	12.3
16306	7	Sololá	701	Sololá	3	Barraneche	3	Marzo	2023-03-26T00:00:00	2024-11-06T22:00:00	4	Temperatura máxima	12.9
16307	7	Sololá	701	Sololá	3	Barraneche	3	Marzo	2023-03-26T00:00:00	2024-11-06T22:00:00	3	Temperatura mínima	11.9
16308	7	Sololá	701	Sololá	3	Barraneche	3	Marzo	2023-03-26T00:00:00	2024-11-06T22:00:00	5	Humedad	73
16309	7	Sololá	701	Sololá	3	Barraneche	3	Marzo	2023-03-26T00:00:00	2024-11-06T22:00:00	6	Velocidad del viento	8
16310	7	Sololá	701	Sololá	3	Barraneche	3	Marzo	2023-03-26T00:00:00	2024-11-06T22:00:00	7	Dirección del viento	8.05
16311	7	Sololá	701	Sololá	3	Barraneche	3	Marzo	2023-03-26T00:00:00	2024-11-06T22:00:00	1	Precipitación	0
16312	7	Sololá	701	Sololá	3	Barraneche	3	Marzo	2023-03-26T00:00:00	2024-11-06T22:00:00	8	Radiación solar	0
16313	7	Sololá	701	Sololá	3	Barraneche	3	Marzo	2023-03-26T00:00:00	2024-11-06T23:00:00	2	Temperatura media	11.8
16314	7	Sololá	701	Sololá	3	Barraneche	3	Marzo	2023-03-26T00:00:00	2024-11-06T23:00:00	4	Temperatura máxima	12.4
16315	7	Sololá	701	Sololá	3	Barraneche	3	Marzo	2023-03-26T00:00:00	2024-11-06T23:00:00	3	Temperatura mínima	11.8
16316	7	Sololá	701	Sololá	3	Barraneche	3	Marzo	2023-03-26T00:00:00	2024-11-06T23:00:00	5	Humedad	72
16317	7	Sololá	701	Sololá	3	Barraneche	3	Marzo	2023-03-26T00:00:00	2024-11-06T23:00:00	6	Velocidad del viento	8
16318	7	Sololá	701	Sololá	3	Barraneche	3	Marzo	2023-03-26T00:00:00	2024-11-06T23:00:00	7	Dirección del viento	8.05
16319	7	Sololá	701	Sololá	3	Barraneche	3	Marzo	2023-03-26T00:00:00	2024-11-06T23:00:00	1	Precipitación	0
16320	7	Sololá	701	Sololá	3	Barraneche	3	Marzo	2023-03-26T00:00:00	2024-11-06T23:00:00	8	Radiación solar	0
16321	7	Sololá	701	Sololá	3	Barraneche	3	Marzo	2023-03-27T00:00:00	2024-11-06T00:00:00	2	Temperatura media	11.2
16322	7	Sololá	701	Sololá	3	Barraneche	3	Marzo	2023-03-27T00:00:00	2024-11-06T00:00:00	4	Temperatura máxima	11.9
16323	7	Sololá	701	Sololá	3	Barraneche	3	Marzo	2023-03-27T00:00:00	2024-11-06T00:00:00	3	Temperatura mínima	11.2
16324	7	Sololá	701	Sololá	3	Barraneche	3	Marzo	2023-03-27T00:00:00	2024-11-06T00:00:00	5	Humedad	71
16325	7	Sololá	701	Sololá	3	Barraneche	3	Marzo	2023-03-27T00:00:00	2024-11-06T00:00:00	6	Velocidad del viento	9.7
16326	7	Sololá	701	Sololá	3	Barraneche	3	Marzo	2023-03-27T00:00:00	2024-11-06T00:00:00	7	Dirección del viento	9.66
16327	7	Sololá	701	Sololá	3	Barraneche	3	Marzo	2023-03-27T00:00:00	2024-11-06T00:00:00	1	Precipitación	0
16328	7	Sololá	701	Sololá	3	Barraneche	3	Marzo	2023-03-27T00:00:00	2024-11-06T00:00:00	8	Radiación solar	0
16329	7	Sololá	701	Sololá	3	Barraneche	3	Marzo	2023-03-27T00:00:00	2024-11-06T01:00:00	2	Temperatura media	10.8
16330	7	Sololá	701	Sololá	3	Barraneche	3	Marzo	2023-03-27T00:00:00	2024-11-06T01:00:00	4	Temperatura máxima	11.2
16331	7	Sololá	701	Sololá	3	Barraneche	3	Marzo	2023-03-27T00:00:00	2024-11-06T01:00:00	3	Temperatura mínima	10.8
16332	7	Sololá	701	Sololá	3	Barraneche	3	Marzo	2023-03-27T00:00:00	2024-11-06T01:00:00	5	Humedad	74
16333	7	Sololá	701	Sololá	3	Barraneche	3	Marzo	2023-03-27T00:00:00	2024-11-06T01:00:00	6	Velocidad del viento	6.4
16334	7	Sololá	701	Sololá	3	Barraneche	3	Marzo	2023-03-27T00:00:00	2024-11-06T01:00:00	7	Dirección del viento	6.44
16335	7	Sololá	701	Sololá	3	Barraneche	3	Marzo	2023-03-27T00:00:00	2024-11-06T01:00:00	1	Precipitación	0
16336	7	Sololá	701	Sololá	3	Barraneche	3	Marzo	2023-03-27T00:00:00	2024-11-06T01:00:00	8	Radiación solar	0
16337	7	Sololá	701	Sololá	3	Barraneche	3	Marzo	2023-03-27T00:00:00	2024-11-06T02:00:00	2	Temperatura media	11.7
16338	7	Sololá	701	Sololá	3	Barraneche	3	Marzo	2023-03-27T00:00:00	2024-11-06T02:00:00	4	Temperatura máxima	12
16339	7	Sololá	701	Sololá	3	Barraneche	3	Marzo	2023-03-27T00:00:00	2024-11-06T02:00:00	3	Temperatura mínima	10.6
16340	7	Sololá	701	Sololá	3	Barraneche	3	Marzo	2023-03-27T00:00:00	2024-11-06T02:00:00	5	Humedad	73
16341	7	Sololá	701	Sololá	3	Barraneche	3	Marzo	2023-03-27T00:00:00	2024-11-06T02:00:00	6	Velocidad del viento	8
16342	7	Sololá	701	Sololá	3	Barraneche	3	Marzo	2023-03-27T00:00:00	2024-11-06T02:00:00	7	Dirección del viento	8.05
16343	7	Sololá	701	Sololá	3	Barraneche	3	Marzo	2023-03-27T00:00:00	2024-11-06T02:00:00	1	Precipitación	0
16344	7	Sololá	701	Sololá	3	Barraneche	3	Marzo	2023-03-27T00:00:00	2024-11-06T02:00:00	8	Radiación solar	0
16345	7	Sololá	701	Sololá	3	Barraneche	3	Marzo	2023-03-27T00:00:00	2024-11-06T03:00:00	2	Temperatura media	10.4
16346	7	Sololá	701	Sololá	3	Barraneche	3	Marzo	2023-03-27T00:00:00	2024-11-06T03:00:00	4	Temperatura máxima	11.7
16347	7	Sololá	701	Sololá	3	Barraneche	3	Marzo	2023-03-27T00:00:00	2024-11-06T03:00:00	3	Temperatura mínima	10.3
16348	7	Sololá	701	Sololá	3	Barraneche	3	Marzo	2023-03-27T00:00:00	2024-11-06T03:00:00	5	Humedad	75
16349	7	Sololá	701	Sololá	3	Barraneche	3	Marzo	2023-03-27T00:00:00	2024-11-06T03:00:00	6	Velocidad del viento	8
16350	7	Sololá	701	Sololá	3	Barraneche	3	Marzo	2023-03-27T00:00:00	2024-11-06T03:00:00	7	Dirección del viento	8.05
16351	7	Sololá	701	Sololá	3	Barraneche	3	Marzo	2023-03-27T00:00:00	2024-11-06T03:00:00	1	Precipitación	0
16352	7	Sololá	701	Sololá	3	Barraneche	3	Marzo	2023-03-27T00:00:00	2024-11-06T03:00:00	8	Radiación solar	0
16353	7	Sololá	701	Sololá	3	Barraneche	3	Marzo	2023-03-27T00:00:00	2024-11-06T04:00:00	2	Temperatura media	9.3
16354	7	Sololá	701	Sololá	3	Barraneche	3	Marzo	2023-03-27T00:00:00	2024-11-06T04:00:00	4	Temperatura máxima	10.4
16355	7	Sololá	701	Sololá	3	Barraneche	3	Marzo	2023-03-27T00:00:00	2024-11-06T04:00:00	3	Temperatura mínima	9.3
16356	7	Sololá	701	Sololá	3	Barraneche	3	Marzo	2023-03-27T00:00:00	2024-11-06T04:00:00	5	Humedad	74
16357	7	Sololá	701	Sololá	3	Barraneche	3	Marzo	2023-03-27T00:00:00	2024-11-06T04:00:00	6	Velocidad del viento	6.4
16358	7	Sololá	701	Sololá	3	Barraneche	3	Marzo	2023-03-27T00:00:00	2024-11-06T04:00:00	7	Dirección del viento	6.44
16359	7	Sololá	701	Sololá	3	Barraneche	3	Marzo	2023-03-27T00:00:00	2024-11-06T04:00:00	1	Precipitación	0
16360	7	Sololá	701	Sololá	3	Barraneche	3	Marzo	2023-03-27T00:00:00	2024-11-06T04:00:00	8	Radiación solar	0
16361	7	Sololá	701	Sololá	3	Barraneche	3	Marzo	2023-03-27T00:00:00	2024-11-06T05:00:00	2	Temperatura media	9.3
16362	7	Sololá	701	Sololá	3	Barraneche	3	Marzo	2023-03-27T00:00:00	2024-11-06T05:00:00	4	Temperatura máxima	9.8
16363	7	Sololá	701	Sololá	3	Barraneche	3	Marzo	2023-03-27T00:00:00	2024-11-06T05:00:00	3	Temperatura mínima	8.9
16364	7	Sololá	701	Sololá	3	Barraneche	3	Marzo	2023-03-27T00:00:00	2024-11-06T05:00:00	5	Humedad	75
16365	7	Sololá	701	Sololá	3	Barraneche	3	Marzo	2023-03-27T00:00:00	2024-11-06T05:00:00	6	Velocidad del viento	6.4
16366	7	Sololá	701	Sololá	3	Barraneche	3	Marzo	2023-03-27T00:00:00	2024-11-06T05:00:00	7	Dirección del viento	6.44
16367	7	Sololá	701	Sololá	3	Barraneche	3	Marzo	2023-03-27T00:00:00	2024-11-06T05:00:00	1	Precipitación	0
16368	7	Sololá	701	Sololá	3	Barraneche	3	Marzo	2023-03-27T00:00:00	2024-11-06T05:00:00	8	Radiación solar	0
16369	7	Sololá	701	Sololá	3	Barraneche	3	Marzo	2023-03-27T00:00:00	2024-11-06T06:00:00	2	Temperatura media	9.6
16370	7	Sololá	701	Sololá	3	Barraneche	3	Marzo	2023-03-27T00:00:00	2024-11-06T06:00:00	4	Temperatura máxima	10.2
16371	7	Sololá	701	Sololá	3	Barraneche	3	Marzo	2023-03-27T00:00:00	2024-11-06T06:00:00	3	Temperatura mínima	9.3
16372	7	Sololá	701	Sololá	3	Barraneche	3	Marzo	2023-03-27T00:00:00	2024-11-06T06:00:00	5	Humedad	74
16373	7	Sololá	701	Sololá	3	Barraneche	3	Marzo	2023-03-27T00:00:00	2024-11-06T06:00:00	6	Velocidad del viento	6.4
16374	7	Sololá	701	Sololá	3	Barraneche	3	Marzo	2023-03-27T00:00:00	2024-11-06T06:00:00	7	Dirección del viento	6.44
16375	7	Sololá	701	Sololá	3	Barraneche	3	Marzo	2023-03-27T00:00:00	2024-11-06T06:00:00	1	Precipitación	0
16376	7	Sololá	701	Sololá	3	Barraneche	3	Marzo	2023-03-27T00:00:00	2024-11-06T06:00:00	8	Radiación solar	0
16377	7	Sololá	701	Sololá	3	Barraneche	3	Marzo	2023-03-27T00:00:00	2024-11-06T07:00:00	2	Temperatura media	9.6
16378	7	Sololá	701	Sololá	3	Barraneche	3	Marzo	2023-03-27T00:00:00	2024-11-06T07:00:00	4	Temperatura máxima	9.6
16379	7	Sololá	701	Sololá	3	Barraneche	3	Marzo	2023-03-27T00:00:00	2024-11-06T07:00:00	3	Temperatura mínima	9.1
16380	7	Sololá	701	Sololá	3	Barraneche	3	Marzo	2023-03-27T00:00:00	2024-11-06T07:00:00	5	Humedad	74
16381	7	Sololá	701	Sololá	3	Barraneche	3	Marzo	2023-03-27T00:00:00	2024-11-06T07:00:00	6	Velocidad del viento	8
16382	7	Sololá	701	Sololá	3	Barraneche	3	Marzo	2023-03-27T00:00:00	2024-11-06T07:00:00	7	Dirección del viento	8.05
16383	7	Sololá	701	Sololá	3	Barraneche	3	Marzo	2023-03-27T00:00:00	2024-11-06T07:00:00	1	Precipitación	0
16384	7	Sololá	701	Sololá	3	Barraneche	3	Marzo	2023-03-27T00:00:00	2024-11-06T07:00:00	8	Radiación solar	34
16385	7	Sololá	701	Sololá	3	Barraneche	3	Marzo	2023-03-27T00:00:00	2024-11-06T08:00:00	2	Temperatura media	13.8
16386	7	Sololá	701	Sololá	3	Barraneche	3	Marzo	2023-03-27T00:00:00	2024-11-06T08:00:00	4	Temperatura máxima	13.8
16387	7	Sololá	701	Sololá	3	Barraneche	3	Marzo	2023-03-27T00:00:00	2024-11-06T08:00:00	3	Temperatura mínima	9.6
16388	7	Sololá	701	Sololá	3	Barraneche	3	Marzo	2023-03-27T00:00:00	2024-11-06T08:00:00	5	Humedad	68
16389	7	Sololá	701	Sololá	3	Barraneche	3	Marzo	2023-03-27T00:00:00	2024-11-06T08:00:00	6	Velocidad del viento	3.2
16390	7	Sololá	701	Sololá	3	Barraneche	3	Marzo	2023-03-27T00:00:00	2024-11-06T08:00:00	7	Dirección del viento	3.22
16391	7	Sololá	701	Sololá	3	Barraneche	3	Marzo	2023-03-27T00:00:00	2024-11-06T08:00:00	1	Precipitación	0
16392	7	Sololá	701	Sololá	3	Barraneche	3	Marzo	2023-03-27T00:00:00	2024-11-06T08:00:00	8	Radiación solar	300
16393	7	Sololá	701	Sololá	3	Barraneche	3	Marzo	2023-03-27T00:00:00	2024-11-06T09:00:00	2	Temperatura media	15.2
16394	7	Sololá	701	Sololá	3	Barraneche	3	Marzo	2023-03-27T00:00:00	2024-11-06T09:00:00	4	Temperatura máxima	15.2
16395	7	Sololá	701	Sololá	3	Barraneche	3	Marzo	2023-03-27T00:00:00	2024-11-06T09:00:00	3	Temperatura mínima	13.8
16396	7	Sololá	701	Sololá	3	Barraneche	3	Marzo	2023-03-27T00:00:00	2024-11-06T09:00:00	5	Humedad	62
16397	7	Sololá	701	Sololá	3	Barraneche	3	Marzo	2023-03-27T00:00:00	2024-11-06T09:00:00	6	Velocidad del viento	4.8
16398	7	Sololá	701	Sololá	3	Barraneche	3	Marzo	2023-03-27T00:00:00	2024-11-06T09:00:00	7	Dirección del viento	4.83
16399	7	Sololá	701	Sololá	3	Barraneche	3	Marzo	2023-03-27T00:00:00	2024-11-06T09:00:00	1	Precipitación	0
16400	7	Sololá	701	Sololá	3	Barraneche	3	Marzo	2023-03-27T00:00:00	2024-11-06T09:00:00	8	Radiación solar	561
16401	7	Sololá	701	Sololá	3	Barraneche	3	Marzo	2023-03-27T00:00:00	2024-11-06T10:00:00	2	Temperatura media	17.7
16402	7	Sololá	701	Sololá	3	Barraneche	3	Marzo	2023-03-27T00:00:00	2024-11-06T10:00:00	4	Temperatura máxima	17.7
16403	7	Sololá	701	Sololá	3	Barraneche	3	Marzo	2023-03-27T00:00:00	2024-11-06T10:00:00	3	Temperatura mínima	15.2
16404	7	Sololá	701	Sololá	3	Barraneche	3	Marzo	2023-03-27T00:00:00	2024-11-06T10:00:00	5	Humedad	42
16405	7	Sololá	701	Sololá	3	Barraneche	3	Marzo	2023-03-27T00:00:00	2024-11-06T10:00:00	6	Velocidad del viento	9.7
16406	7	Sololá	701	Sololá	3	Barraneche	3	Marzo	2023-03-27T00:00:00	2024-11-06T10:00:00	7	Dirección del viento	9.66
16407	7	Sololá	701	Sololá	3	Barraneche	3	Marzo	2023-03-27T00:00:00	2024-11-06T10:00:00	1	Precipitación	0
16408	7	Sololá	701	Sololá	3	Barraneche	3	Marzo	2023-03-27T00:00:00	2024-11-06T10:00:00	8	Radiación solar	788
16409	7	Sololá	701	Sololá	3	Barraneche	3	Marzo	2023-03-27T00:00:00	2024-11-06T11:00:00	2	Temperatura media	18.2
16410	7	Sololá	701	Sololá	3	Barraneche	3	Marzo	2023-03-27T00:00:00	2024-11-06T11:00:00	4	Temperatura máxima	18.3
16411	7	Sololá	701	Sololá	3	Barraneche	3	Marzo	2023-03-27T00:00:00	2024-11-06T11:00:00	3	Temperatura mínima	17.6
16412	7	Sololá	701	Sololá	3	Barraneche	3	Marzo	2023-03-27T00:00:00	2024-11-06T11:00:00	5	Humedad	39
16413	7	Sololá	701	Sololá	3	Barraneche	3	Marzo	2023-03-27T00:00:00	2024-11-06T11:00:00	6	Velocidad del viento	17.7
16414	7	Sololá	701	Sololá	3	Barraneche	3	Marzo	2023-03-27T00:00:00	2024-11-06T11:00:00	7	Dirección del viento	17.7
16415	7	Sololá	701	Sololá	3	Barraneche	3	Marzo	2023-03-27T00:00:00	2024-11-06T11:00:00	1	Precipitación	0
16416	7	Sololá	701	Sololá	3	Barraneche	3	Marzo	2023-03-27T00:00:00	2024-11-06T11:00:00	8	Radiación solar	967
16417	7	Sololá	701	Sololá	3	Barraneche	3	Marzo	2023-03-27T00:00:00	2024-11-06T12:00:00	2	Temperatura media	18.2
16418	7	Sololá	701	Sololá	3	Barraneche	3	Marzo	2023-03-27T00:00:00	2024-11-06T12:00:00	4	Temperatura máxima	19.3
16419	7	Sololá	701	Sololá	3	Barraneche	3	Marzo	2023-03-27T00:00:00	2024-11-06T12:00:00	3	Temperatura mínima	18.1
16420	7	Sololá	701	Sololá	3	Barraneche	3	Marzo	2023-03-27T00:00:00	2024-11-06T12:00:00	5	Humedad	51
16421	7	Sololá	701	Sololá	3	Barraneche	3	Marzo	2023-03-27T00:00:00	2024-11-06T12:00:00	6	Velocidad del viento	14.5
16422	7	Sololá	701	Sololá	3	Barraneche	3	Marzo	2023-03-27T00:00:00	2024-11-06T12:00:00	7	Dirección del viento	14.48
16423	7	Sololá	701	Sololá	3	Barraneche	3	Marzo	2023-03-27T00:00:00	2024-11-06T12:00:00	1	Precipitación	0
16424	7	Sololá	701	Sololá	3	Barraneche	3	Marzo	2023-03-27T00:00:00	2024-11-06T12:00:00	8	Radiación solar	1094
16425	7	Sololá	701	Sololá	3	Barraneche	3	Marzo	2023-03-27T00:00:00	2024-11-06T13:00:00	2	Temperatura media	18.8
16426	7	Sololá	701	Sololá	3	Barraneche	3	Marzo	2023-03-27T00:00:00	2024-11-06T13:00:00	4	Temperatura máxima	19.1
16427	7	Sololá	701	Sololá	3	Barraneche	3	Marzo	2023-03-27T00:00:00	2024-11-06T13:00:00	3	Temperatura mínima	18.1
16428	7	Sololá	701	Sololá	3	Barraneche	3	Marzo	2023-03-27T00:00:00	2024-11-06T13:00:00	5	Humedad	52
16429	7	Sololá	701	Sololá	3	Barraneche	3	Marzo	2023-03-27T00:00:00	2024-11-06T13:00:00	6	Velocidad del viento	16.1
16430	7	Sololá	701	Sololá	3	Barraneche	3	Marzo	2023-03-27T00:00:00	2024-11-06T13:00:00	7	Dirección del viento	16.09
16431	7	Sololá	701	Sololá	3	Barraneche	3	Marzo	2023-03-27T00:00:00	2024-11-06T13:00:00	1	Precipitación	0
16432	7	Sololá	701	Sololá	3	Barraneche	3	Marzo	2023-03-27T00:00:00	2024-11-06T13:00:00	8	Radiación solar	1122
16433	7	Sololá	701	Sololá	3	Barraneche	3	Marzo	2023-03-27T00:00:00	2024-11-06T14:00:00	2	Temperatura media	18.1
16434	7	Sololá	701	Sololá	3	Barraneche	3	Marzo	2023-03-27T00:00:00	2024-11-06T14:00:00	4	Temperatura máxima	18.9
16435	7	Sololá	701	Sololá	3	Barraneche	3	Marzo	2023-03-27T00:00:00	2024-11-06T14:00:00	3	Temperatura mínima	17.6
16436	7	Sololá	701	Sololá	3	Barraneche	3	Marzo	2023-03-27T00:00:00	2024-11-06T14:00:00	5	Humedad	58
16437	7	Sololá	701	Sololá	3	Barraneche	3	Marzo	2023-03-27T00:00:00	2024-11-06T14:00:00	6	Velocidad del viento	17.7
16438	7	Sololá	701	Sololá	3	Barraneche	3	Marzo	2023-03-27T00:00:00	2024-11-06T14:00:00	7	Dirección del viento	17.7
16439	7	Sololá	701	Sololá	3	Barraneche	3	Marzo	2023-03-27T00:00:00	2024-11-06T14:00:00	1	Precipitación	0
16440	7	Sololá	701	Sololá	3	Barraneche	3	Marzo	2023-03-27T00:00:00	2024-11-06T14:00:00	8	Radiación solar	856
16441	7	Sololá	701	Sololá	3	Barraneche	3	Marzo	2023-03-27T00:00:00	2024-11-06T15:00:00	2	Temperatura media	17.5
16442	7	Sololá	701	Sololá	3	Barraneche	3	Marzo	2023-03-27T00:00:00	2024-11-06T15:00:00	4	Temperatura máxima	18.3
16443	7	Sololá	701	Sololá	3	Barraneche	3	Marzo	2023-03-27T00:00:00	2024-11-06T15:00:00	3	Temperatura mínima	17.4
16444	7	Sololá	701	Sololá	3	Barraneche	3	Marzo	2023-03-27T00:00:00	2024-11-06T15:00:00	5	Humedad	62
16445	7	Sololá	701	Sololá	3	Barraneche	3	Marzo	2023-03-27T00:00:00	2024-11-06T15:00:00	6	Velocidad del viento	16.1
16446	7	Sololá	701	Sololá	3	Barraneche	3	Marzo	2023-03-27T00:00:00	2024-11-06T15:00:00	7	Dirección del viento	16.09
16447	7	Sololá	701	Sololá	3	Barraneche	3	Marzo	2023-03-27T00:00:00	2024-11-06T15:00:00	1	Precipitación	0
16448	7	Sololá	701	Sololá	3	Barraneche	3	Marzo	2023-03-27T00:00:00	2024-11-06T15:00:00	8	Radiación solar	911
16449	7	Sololá	701	Sololá	3	Barraneche	3	Marzo	2023-03-27T00:00:00	2024-11-06T16:00:00	2	Temperatura media	17.5
16450	7	Sololá	701	Sololá	3	Barraneche	3	Marzo	2023-03-27T00:00:00	2024-11-06T16:00:00	4	Temperatura máxima	17.9
16451	7	Sololá	701	Sololá	3	Barraneche	3	Marzo	2023-03-27T00:00:00	2024-11-06T16:00:00	3	Temperatura mínima	17.3
16452	7	Sololá	701	Sololá	3	Barraneche	3	Marzo	2023-03-27T00:00:00	2024-11-06T16:00:00	5	Humedad	61
16453	7	Sololá	701	Sololá	3	Barraneche	3	Marzo	2023-03-27T00:00:00	2024-11-06T16:00:00	6	Velocidad del viento	14.5
16454	7	Sololá	701	Sololá	3	Barraneche	3	Marzo	2023-03-27T00:00:00	2024-11-06T16:00:00	7	Dirección del viento	14.48
16455	7	Sololá	701	Sololá	3	Barraneche	3	Marzo	2023-03-27T00:00:00	2024-11-06T16:00:00	1	Precipitación	0
16456	7	Sololá	701	Sololá	3	Barraneche	3	Marzo	2023-03-27T00:00:00	2024-11-06T16:00:00	8	Radiación solar	508
16457	7	Sololá	701	Sololá	3	Barraneche	3	Marzo	2023-03-27T00:00:00	2024-11-06T17:00:00	2	Temperatura media	16.2
16458	7	Sololá	701	Sololá	3	Barraneche	3	Marzo	2023-03-27T00:00:00	2024-11-06T17:00:00	4	Temperatura máxima	17.6
16459	7	Sololá	701	Sololá	3	Barraneche	3	Marzo	2023-03-27T00:00:00	2024-11-06T17:00:00	3	Temperatura mínima	16.1
16460	7	Sololá	701	Sololá	3	Barraneche	3	Marzo	2023-03-27T00:00:00	2024-11-06T17:00:00	5	Humedad	67
16461	7	Sololá	701	Sololá	3	Barraneche	3	Marzo	2023-03-27T00:00:00	2024-11-06T17:00:00	6	Velocidad del viento	12.9
16462	7	Sololá	701	Sololá	3	Barraneche	3	Marzo	2023-03-27T00:00:00	2024-11-06T17:00:00	7	Dirección del viento	12.87
16463	7	Sololá	701	Sololá	3	Barraneche	3	Marzo	2023-03-27T00:00:00	2024-11-06T17:00:00	1	Precipitación	0
16464	7	Sololá	701	Sololá	3	Barraneche	3	Marzo	2023-03-27T00:00:00	2024-11-06T17:00:00	8	Radiación solar	250
16465	7	Sololá	701	Sololá	3	Barraneche	3	Marzo	2023-03-27T00:00:00	2024-11-06T18:00:00	2	Temperatura media	15.2
16466	7	Sololá	701	Sololá	3	Barraneche	3	Marzo	2023-03-27T00:00:00	2024-11-06T18:00:00	4	Temperatura máxima	16.3
16467	7	Sololá	701	Sololá	3	Barraneche	3	Marzo	2023-03-27T00:00:00	2024-11-06T18:00:00	3	Temperatura mínima	15.2
16468	7	Sololá	701	Sololá	3	Barraneche	3	Marzo	2023-03-27T00:00:00	2024-11-06T18:00:00	5	Humedad	70
16469	7	Sololá	701	Sololá	3	Barraneche	3	Marzo	2023-03-27T00:00:00	2024-11-06T18:00:00	6	Velocidad del viento	4.8
16470	7	Sololá	701	Sololá	3	Barraneche	3	Marzo	2023-03-27T00:00:00	2024-11-06T18:00:00	7	Dirección del viento	4.83
16471	7	Sololá	701	Sololá	3	Barraneche	3	Marzo	2023-03-27T00:00:00	2024-11-06T18:00:00	1	Precipitación	0
16472	7	Sololá	701	Sololá	3	Barraneche	3	Marzo	2023-03-27T00:00:00	2024-11-06T18:00:00	8	Radiación solar	42
16473	7	Sololá	701	Sololá	3	Barraneche	3	Marzo	2023-03-27T00:00:00	2024-11-06T19:00:00	2	Temperatura media	13.9
16474	7	Sololá	701	Sololá	3	Barraneche	3	Marzo	2023-03-27T00:00:00	2024-11-06T19:00:00	4	Temperatura máxima	15.2
16475	7	Sololá	701	Sololá	3	Barraneche	3	Marzo	2023-03-27T00:00:00	2024-11-06T19:00:00	3	Temperatura mínima	13.9
16476	7	Sololá	701	Sololá	3	Barraneche	3	Marzo	2023-03-27T00:00:00	2024-11-06T19:00:00	5	Humedad	65
16477	7	Sololá	701	Sololá	3	Barraneche	3	Marzo	2023-03-27T00:00:00	2024-11-06T19:00:00	6	Velocidad del viento	3.2
16478	7	Sololá	701	Sololá	3	Barraneche	3	Marzo	2023-03-27T00:00:00	2024-11-06T19:00:00	7	Dirección del viento	3.22
16479	7	Sololá	701	Sololá	3	Barraneche	3	Marzo	2023-03-27T00:00:00	2024-11-06T19:00:00	1	Precipitación	0
16480	7	Sololá	701	Sololá	3	Barraneche	3	Marzo	2023-03-27T00:00:00	2024-11-06T19:00:00	8	Radiación solar	0
16481	7	Sololá	701	Sololá	3	Barraneche	3	Marzo	2023-03-27T00:00:00	2024-11-06T20:00:00	2	Temperatura media	12.2
16482	7	Sololá	701	Sololá	3	Barraneche	3	Marzo	2023-03-27T00:00:00	2024-11-06T20:00:00	4	Temperatura máxima	13.9
16483	7	Sololá	701	Sololá	3	Barraneche	3	Marzo	2023-03-27T00:00:00	2024-11-06T20:00:00	3	Temperatura mínima	12.2
16484	7	Sololá	701	Sololá	3	Barraneche	3	Marzo	2023-03-27T00:00:00	2024-11-06T20:00:00	5	Humedad	65
16485	7	Sololá	701	Sololá	3	Barraneche	3	Marzo	2023-03-27T00:00:00	2024-11-06T20:00:00	6	Velocidad del viento	6.4
16486	7	Sololá	701	Sololá	3	Barraneche	3	Marzo	2023-03-27T00:00:00	2024-11-06T20:00:00	7	Dirección del viento	6.44
16487	7	Sololá	701	Sololá	3	Barraneche	3	Marzo	2023-03-27T00:00:00	2024-11-06T20:00:00	1	Precipitación	0
16488	7	Sololá	701	Sololá	3	Barraneche	3	Marzo	2023-03-27T00:00:00	2024-11-06T20:00:00	8	Radiación solar	0
16489	7	Sololá	701	Sololá	3	Barraneche	3	Marzo	2023-03-27T00:00:00	2024-11-06T21:00:00	2	Temperatura media	13
16490	7	Sololá	701	Sololá	3	Barraneche	3	Marzo	2023-03-27T00:00:00	2024-11-06T21:00:00	4	Temperatura máxima	13.1
16491	7	Sololá	701	Sololá	3	Barraneche	3	Marzo	2023-03-27T00:00:00	2024-11-06T21:00:00	3	Temperatura mínima	11.7
16492	7	Sololá	701	Sololá	3	Barraneche	3	Marzo	2023-03-27T00:00:00	2024-11-06T21:00:00	5	Humedad	67
16493	7	Sololá	701	Sololá	3	Barraneche	3	Marzo	2023-03-27T00:00:00	2024-11-06T21:00:00	6	Velocidad del viento	6.4
16494	7	Sololá	701	Sololá	3	Barraneche	3	Marzo	2023-03-27T00:00:00	2024-11-06T21:00:00	7	Dirección del viento	6.44
16495	7	Sololá	701	Sololá	3	Barraneche	3	Marzo	2023-03-27T00:00:00	2024-11-06T21:00:00	1	Precipitación	0
16496	7	Sololá	701	Sololá	3	Barraneche	3	Marzo	2023-03-27T00:00:00	2024-11-06T21:00:00	8	Radiación solar	0
16497	7	Sololá	701	Sololá	3	Barraneche	3	Marzo	2023-03-27T00:00:00	2024-11-06T22:00:00	2	Temperatura media	13.6
16498	7	Sololá	701	Sololá	3	Barraneche	3	Marzo	2023-03-27T00:00:00	2024-11-06T22:00:00	4	Temperatura máxima	13.7
16499	7	Sololá	701	Sololá	3	Barraneche	3	Marzo	2023-03-27T00:00:00	2024-11-06T22:00:00	3	Temperatura mínima	12.6
16500	7	Sololá	701	Sololá	3	Barraneche	3	Marzo	2023-03-27T00:00:00	2024-11-06T22:00:00	5	Humedad	65
16501	7	Sololá	701	Sololá	3	Barraneche	3	Marzo	2023-03-27T00:00:00	2024-11-06T22:00:00	6	Velocidad del viento	4.8
16502	7	Sololá	701	Sololá	3	Barraneche	3	Marzo	2023-03-27T00:00:00	2024-11-06T22:00:00	7	Dirección del viento	4.83
16503	7	Sololá	701	Sololá	3	Barraneche	3	Marzo	2023-03-27T00:00:00	2024-11-06T22:00:00	1	Precipitación	0
16504	7	Sololá	701	Sololá	3	Barraneche	3	Marzo	2023-03-27T00:00:00	2024-11-06T22:00:00	8	Radiación solar	0
16505	7	Sololá	701	Sololá	3	Barraneche	3	Marzo	2023-03-27T00:00:00	2024-11-06T23:00:00	2	Temperatura media	12.9
16506	7	Sololá	701	Sololá	3	Barraneche	3	Marzo	2023-03-27T00:00:00	2024-11-06T23:00:00	4	Temperatura máxima	13.7
16507	7	Sololá	701	Sololá	3	Barraneche	3	Marzo	2023-03-27T00:00:00	2024-11-06T23:00:00	3	Temperatura mínima	12.9
16508	7	Sololá	701	Sololá	3	Barraneche	3	Marzo	2023-03-27T00:00:00	2024-11-06T23:00:00	5	Humedad	63
16509	7	Sololá	701	Sololá	3	Barraneche	3	Marzo	2023-03-27T00:00:00	2024-11-06T23:00:00	6	Velocidad del viento	6.4
16510	7	Sololá	701	Sololá	3	Barraneche	3	Marzo	2023-03-27T00:00:00	2024-11-06T23:00:00	7	Dirección del viento	6.44
16511	7	Sololá	701	Sololá	3	Barraneche	3	Marzo	2023-03-27T00:00:00	2024-11-06T23:00:00	1	Precipitación	0
16512	7	Sololá	701	Sololá	3	Barraneche	3	Marzo	2023-03-27T00:00:00	2024-11-06T23:00:00	8	Radiación solar	0
16513	7	Sololá	701	Sololá	3	Barraneche	3	Marzo	2023-03-28T00:00:00	2024-11-06T00:00:00	2	Temperatura media	10.8
16514	7	Sololá	701	Sololá	3	Barraneche	3	Marzo	2023-03-28T00:00:00	2024-11-06T00:00:00	4	Temperatura máxima	12.9
16515	7	Sololá	701	Sololá	3	Barraneche	3	Marzo	2023-03-28T00:00:00	2024-11-06T00:00:00	3	Temperatura mínima	10.8
16516	7	Sololá	701	Sololá	3	Barraneche	3	Marzo	2023-03-28T00:00:00	2024-11-06T00:00:00	5	Humedad	65
16517	7	Sololá	701	Sololá	3	Barraneche	3	Marzo	2023-03-28T00:00:00	2024-11-06T00:00:00	6	Velocidad del viento	4.8
16518	7	Sololá	701	Sololá	3	Barraneche	3	Marzo	2023-03-28T00:00:00	2024-11-06T00:00:00	7	Dirección del viento	4.83
16519	7	Sololá	701	Sololá	3	Barraneche	3	Marzo	2023-03-28T00:00:00	2024-11-06T00:00:00	1	Precipitación	0
16520	7	Sololá	701	Sololá	3	Barraneche	3	Marzo	2023-03-28T00:00:00	2024-11-06T00:00:00	8	Radiación solar	0
16521	7	Sololá	701	Sololá	3	Barraneche	3	Marzo	2023-03-28T00:00:00	2024-11-06T01:00:00	2	Temperatura media	10.3
16522	7	Sololá	701	Sololá	3	Barraneche	3	Marzo	2023-03-28T00:00:00	2024-11-06T01:00:00	4	Temperatura máxima	10.8
16523	7	Sololá	701	Sololá	3	Barraneche	3	Marzo	2023-03-28T00:00:00	2024-11-06T01:00:00	3	Temperatura mínima	10.3
16524	7	Sololá	701	Sololá	3	Barraneche	3	Marzo	2023-03-28T00:00:00	2024-11-06T01:00:00	5	Humedad	65
16525	7	Sololá	701	Sololá	3	Barraneche	3	Marzo	2023-03-28T00:00:00	2024-11-06T01:00:00	6	Velocidad del viento	6.4
16526	7	Sololá	701	Sololá	3	Barraneche	3	Marzo	2023-03-28T00:00:00	2024-11-06T01:00:00	7	Dirección del viento	6.44
16527	7	Sololá	701	Sololá	3	Barraneche	3	Marzo	2023-03-28T00:00:00	2024-11-06T01:00:00	1	Precipitación	0
16528	7	Sololá	701	Sololá	3	Barraneche	3	Marzo	2023-03-28T00:00:00	2024-11-06T01:00:00	8	Radiación solar	0
16529	7	Sololá	701	Sololá	3	Barraneche	3	Marzo	2023-03-28T00:00:00	2024-11-06T02:00:00	2	Temperatura media	10.5
16530	7	Sololá	701	Sololá	3	Barraneche	3	Marzo	2023-03-28T00:00:00	2024-11-06T02:00:00	4	Temperatura máxima	10.6
16531	7	Sololá	701	Sololá	3	Barraneche	3	Marzo	2023-03-28T00:00:00	2024-11-06T02:00:00	3	Temperatura mínima	10.3
16532	7	Sololá	701	Sololá	3	Barraneche	3	Marzo	2023-03-28T00:00:00	2024-11-06T02:00:00	5	Humedad	66
16533	7	Sololá	701	Sololá	3	Barraneche	3	Marzo	2023-03-28T00:00:00	2024-11-06T02:00:00	6	Velocidad del viento	6.4
16534	7	Sololá	701	Sololá	3	Barraneche	3	Marzo	2023-03-28T00:00:00	2024-11-06T02:00:00	7	Dirección del viento	6.44
16535	7	Sololá	701	Sololá	3	Barraneche	3	Marzo	2023-03-28T00:00:00	2024-11-06T02:00:00	1	Precipitación	0
16536	7	Sololá	701	Sololá	3	Barraneche	3	Marzo	2023-03-28T00:00:00	2024-11-06T02:00:00	8	Radiación solar	0
16537	7	Sololá	701	Sololá	3	Barraneche	3	Marzo	2023-03-28T00:00:00	2024-11-06T03:00:00	2	Temperatura media	11.3
16538	7	Sololá	701	Sololá	3	Barraneche	3	Marzo	2023-03-28T00:00:00	2024-11-06T03:00:00	4	Temperatura máxima	11.3
16539	7	Sololá	701	Sololá	3	Barraneche	3	Marzo	2023-03-28T00:00:00	2024-11-06T03:00:00	3	Temperatura mínima	10.4
16540	7	Sololá	701	Sololá	3	Barraneche	3	Marzo	2023-03-28T00:00:00	2024-11-06T03:00:00	5	Humedad	67
16541	7	Sololá	701	Sololá	3	Barraneche	3	Marzo	2023-03-28T00:00:00	2024-11-06T03:00:00	6	Velocidad del viento	4.8
16542	7	Sololá	701	Sololá	3	Barraneche	3	Marzo	2023-03-28T00:00:00	2024-11-06T03:00:00	7	Dirección del viento	4.83
16543	7	Sololá	701	Sololá	3	Barraneche	3	Marzo	2023-03-28T00:00:00	2024-11-06T03:00:00	1	Precipitación	0
16544	7	Sololá	701	Sololá	3	Barraneche	3	Marzo	2023-03-28T00:00:00	2024-11-06T03:00:00	8	Radiación solar	0
16545	7	Sololá	701	Sololá	3	Barraneche	3	Marzo	2023-03-28T00:00:00	2024-11-06T04:00:00	2	Temperatura media	10.7
16546	7	Sololá	701	Sololá	3	Barraneche	3	Marzo	2023-03-28T00:00:00	2024-11-06T04:00:00	4	Temperatura máxima	11.3
16547	7	Sololá	701	Sololá	3	Barraneche	3	Marzo	2023-03-28T00:00:00	2024-11-06T04:00:00	3	Temperatura mínima	10.6
16548	7	Sololá	701	Sololá	3	Barraneche	3	Marzo	2023-03-28T00:00:00	2024-11-06T04:00:00	5	Humedad	68
16549	7	Sololá	701	Sololá	3	Barraneche	3	Marzo	2023-03-28T00:00:00	2024-11-06T04:00:00	6	Velocidad del viento	6.4
16550	7	Sololá	701	Sololá	3	Barraneche	3	Marzo	2023-03-28T00:00:00	2024-11-06T04:00:00	7	Dirección del viento	6.44
16551	7	Sololá	701	Sololá	3	Barraneche	3	Marzo	2023-03-28T00:00:00	2024-11-06T04:00:00	1	Precipitación	0
16552	7	Sololá	701	Sololá	3	Barraneche	3	Marzo	2023-03-28T00:00:00	2024-11-06T04:00:00	8	Radiación solar	0
16553	7	Sololá	701	Sololá	3	Barraneche	3	Marzo	2023-03-28T00:00:00	2024-11-06T05:00:00	2	Temperatura media	10.5
16554	7	Sololá	701	Sololá	3	Barraneche	3	Marzo	2023-03-28T00:00:00	2024-11-06T05:00:00	4	Temperatura máxima	11
16555	7	Sololá	701	Sololá	3	Barraneche	3	Marzo	2023-03-28T00:00:00	2024-11-06T05:00:00	3	Temperatura mínima	10.2
16556	7	Sololá	701	Sololá	3	Barraneche	3	Marzo	2023-03-28T00:00:00	2024-11-06T05:00:00	5	Humedad	67
16557	7	Sololá	701	Sololá	3	Barraneche	3	Marzo	2023-03-28T00:00:00	2024-11-06T05:00:00	6	Velocidad del viento	8
16558	7	Sololá	701	Sololá	3	Barraneche	3	Marzo	2023-03-28T00:00:00	2024-11-06T05:00:00	7	Dirección del viento	8.05
16559	7	Sololá	701	Sololá	3	Barraneche	3	Marzo	2023-03-28T00:00:00	2024-11-06T05:00:00	1	Precipitación	0
16560	7	Sololá	701	Sololá	3	Barraneche	3	Marzo	2023-03-28T00:00:00	2024-11-06T05:00:00	8	Radiación solar	0
16561	7	Sololá	701	Sololá	3	Barraneche	3	Marzo	2023-03-28T00:00:00	2024-11-06T06:00:00	2	Temperatura media	10.4
16562	7	Sololá	701	Sololá	3	Barraneche	3	Marzo	2023-03-28T00:00:00	2024-11-06T06:00:00	4	Temperatura máxima	10.7
16563	7	Sololá	701	Sololá	3	Barraneche	3	Marzo	2023-03-28T00:00:00	2024-11-06T06:00:00	3	Temperatura mínima	10.3
16564	7	Sololá	701	Sololá	3	Barraneche	3	Marzo	2023-03-28T00:00:00	2024-11-06T06:00:00	5	Humedad	69
16565	7	Sololá	701	Sololá	3	Barraneche	3	Marzo	2023-03-28T00:00:00	2024-11-06T06:00:00	6	Velocidad del viento	6.4
16566	7	Sololá	701	Sololá	3	Barraneche	3	Marzo	2023-03-28T00:00:00	2024-11-06T06:00:00	7	Dirección del viento	6.44
16567	7	Sololá	701	Sololá	3	Barraneche	3	Marzo	2023-03-28T00:00:00	2024-11-06T06:00:00	1	Precipitación	0
16568	7	Sololá	701	Sololá	3	Barraneche	3	Marzo	2023-03-28T00:00:00	2024-11-06T06:00:00	8	Radiación solar	0
16569	7	Sololá	701	Sololá	3	Barraneche	3	Marzo	2023-03-28T00:00:00	2024-11-06T07:00:00	2	Temperatura media	11.2
16570	7	Sololá	701	Sololá	3	Barraneche	3	Marzo	2023-03-28T00:00:00	2024-11-06T07:00:00	4	Temperatura máxima	11.2
16571	7	Sololá	701	Sololá	3	Barraneche	3	Marzo	2023-03-28T00:00:00	2024-11-06T07:00:00	3	Temperatura mínima	10.1
16572	7	Sololá	701	Sololá	3	Barraneche	3	Marzo	2023-03-28T00:00:00	2024-11-06T07:00:00	5	Humedad	69
16573	7	Sololá	701	Sololá	3	Barraneche	3	Marzo	2023-03-28T00:00:00	2024-11-06T07:00:00	6	Velocidad del viento	6.4
16574	7	Sololá	701	Sololá	3	Barraneche	3	Marzo	2023-03-28T00:00:00	2024-11-06T07:00:00	7	Dirección del viento	6.44
16575	7	Sololá	701	Sololá	3	Barraneche	3	Marzo	2023-03-28T00:00:00	2024-11-06T07:00:00	1	Precipitación	0
16576	7	Sololá	701	Sololá	3	Barraneche	3	Marzo	2023-03-28T00:00:00	2024-11-06T07:00:00	8	Radiación solar	44
16577	7	Sololá	701	Sololá	3	Barraneche	3	Marzo	2023-03-28T00:00:00	2024-11-06T08:00:00	2	Temperatura media	14.4
16578	7	Sololá	701	Sololá	3	Barraneche	3	Marzo	2023-03-28T00:00:00	2024-11-06T08:00:00	4	Temperatura máxima	14.4
16579	7	Sololá	701	Sololá	3	Barraneche	3	Marzo	2023-03-28T00:00:00	2024-11-06T08:00:00	3	Temperatura mínima	11.2
16580	7	Sololá	701	Sololá	3	Barraneche	3	Marzo	2023-03-28T00:00:00	2024-11-06T08:00:00	5	Humedad	61
16581	7	Sololá	701	Sololá	3	Barraneche	3	Marzo	2023-03-28T00:00:00	2024-11-06T08:00:00	6	Velocidad del viento	3.2
16582	7	Sololá	701	Sololá	3	Barraneche	3	Marzo	2023-03-28T00:00:00	2024-11-06T08:00:00	7	Dirección del viento	3.22
16583	7	Sololá	701	Sololá	3	Barraneche	3	Marzo	2023-03-28T00:00:00	2024-11-06T08:00:00	1	Precipitación	0
16584	7	Sololá	701	Sololá	3	Barraneche	3	Marzo	2023-03-28T00:00:00	2024-11-06T08:00:00	8	Radiación solar	297
16585	7	Sololá	701	Sololá	3	Barraneche	3	Marzo	2023-03-28T00:00:00	2024-11-06T09:00:00	2	Temperatura media	16.3
16586	7	Sololá	701	Sololá	3	Barraneche	3	Marzo	2023-03-28T00:00:00	2024-11-06T09:00:00	4	Temperatura máxima	16.4
16587	7	Sololá	701	Sololá	3	Barraneche	3	Marzo	2023-03-28T00:00:00	2024-11-06T09:00:00	3	Temperatura mínima	14.4
16588	7	Sololá	701	Sololá	3	Barraneche	3	Marzo	2023-03-28T00:00:00	2024-11-06T09:00:00	5	Humedad	55
16589	7	Sololá	701	Sololá	3	Barraneche	3	Marzo	2023-03-28T00:00:00	2024-11-06T09:00:00	6	Velocidad del viento	3.2
16590	7	Sololá	701	Sololá	3	Barraneche	3	Marzo	2023-03-28T00:00:00	2024-11-06T09:00:00	7	Dirección del viento	3.22
16591	7	Sololá	701	Sololá	3	Barraneche	3	Marzo	2023-03-28T00:00:00	2024-11-06T09:00:00	1	Precipitación	0
16592	7	Sololá	701	Sololá	3	Barraneche	3	Marzo	2023-03-28T00:00:00	2024-11-06T09:00:00	8	Radiación solar	580
16593	7	Sololá	701	Sololá	3	Barraneche	3	Marzo	2023-03-28T00:00:00	2024-11-06T10:00:00	2	Temperatura media	18
16594	7	Sololá	701	Sololá	3	Barraneche	3	Marzo	2023-03-28T00:00:00	2024-11-06T10:00:00	4	Temperatura máxima	18
16595	7	Sololá	701	Sololá	3	Barraneche	3	Marzo	2023-03-28T00:00:00	2024-11-06T10:00:00	3	Temperatura mínima	16.3
16596	7	Sololá	701	Sololá	3	Barraneche	3	Marzo	2023-03-28T00:00:00	2024-11-06T10:00:00	5	Humedad	43
16597	7	Sololá	701	Sololá	3	Barraneche	3	Marzo	2023-03-28T00:00:00	2024-11-06T10:00:00	6	Velocidad del viento	12.9
16598	7	Sololá	701	Sololá	3	Barraneche	3	Marzo	2023-03-28T00:00:00	2024-11-06T10:00:00	7	Dirección del viento	12.87
16599	7	Sololá	701	Sololá	3	Barraneche	3	Marzo	2023-03-28T00:00:00	2024-11-06T10:00:00	1	Precipitación	0
16600	7	Sololá	701	Sololá	3	Barraneche	3	Marzo	2023-03-28T00:00:00	2024-11-06T10:00:00	8	Radiación solar	795
16601	7	Sololá	701	Sololá	3	Barraneche	3	Marzo	2023-03-28T00:00:00	2024-11-06T11:00:00	2	Temperatura media	19.5
16602	7	Sololá	701	Sololá	3	Barraneche	3	Marzo	2023-03-28T00:00:00	2024-11-06T11:00:00	4	Temperatura máxima	19.7
16603	7	Sololá	701	Sololá	3	Barraneche	3	Marzo	2023-03-28T00:00:00	2024-11-06T11:00:00	3	Temperatura mínima	17.9
16604	7	Sololá	701	Sololá	3	Barraneche	3	Marzo	2023-03-28T00:00:00	2024-11-06T11:00:00	5	Humedad	36
16605	7	Sololá	701	Sololá	3	Barraneche	3	Marzo	2023-03-28T00:00:00	2024-11-06T11:00:00	6	Velocidad del viento	14.5
16606	7	Sololá	701	Sololá	3	Barraneche	3	Marzo	2023-03-28T00:00:00	2024-11-06T11:00:00	7	Dirección del viento	14.48
16607	7	Sololá	701	Sololá	3	Barraneche	3	Marzo	2023-03-28T00:00:00	2024-11-06T11:00:00	1	Precipitación	0
16608	7	Sololá	701	Sololá	3	Barraneche	3	Marzo	2023-03-28T00:00:00	2024-11-06T11:00:00	8	Radiación solar	961
16609	7	Sololá	701	Sololá	3	Barraneche	3	Marzo	2023-03-28T00:00:00	2024-11-06T12:00:00	2	Temperatura media	19.6
16610	7	Sololá	701	Sololá	3	Barraneche	3	Marzo	2023-03-28T00:00:00	2024-11-06T12:00:00	4	Temperatura máxima	19.9
16611	7	Sololá	701	Sololá	3	Barraneche	3	Marzo	2023-03-28T00:00:00	2024-11-06T12:00:00	3	Temperatura mínima	19.3
16612	7	Sololá	701	Sololá	3	Barraneche	3	Marzo	2023-03-28T00:00:00	2024-11-06T12:00:00	5	Humedad	51
16613	7	Sololá	701	Sololá	3	Barraneche	3	Marzo	2023-03-28T00:00:00	2024-11-06T12:00:00	6	Velocidad del viento	16.1
16614	7	Sololá	701	Sololá	3	Barraneche	3	Marzo	2023-03-28T00:00:00	2024-11-06T12:00:00	7	Dirección del viento	16.09
16615	7	Sololá	701	Sololá	3	Barraneche	3	Marzo	2023-03-28T00:00:00	2024-11-06T12:00:00	1	Precipitación	0
16616	7	Sololá	701	Sololá	3	Barraneche	3	Marzo	2023-03-28T00:00:00	2024-11-06T12:00:00	8	Radiación solar	1091
16617	7	Sololá	701	Sololá	3	Barraneche	3	Marzo	2023-03-28T00:00:00	2024-11-06T13:00:00	2	Temperatura media	18.8
16618	7	Sololá	701	Sololá	3	Barraneche	3	Marzo	2023-03-28T00:00:00	2024-11-06T13:00:00	4	Temperatura máxima	19.6
16619	7	Sololá	701	Sololá	3	Barraneche	3	Marzo	2023-03-28T00:00:00	2024-11-06T13:00:00	3	Temperatura mínima	18.6
16620	7	Sololá	701	Sololá	3	Barraneche	3	Marzo	2023-03-28T00:00:00	2024-11-06T13:00:00	5	Humedad	55
16621	7	Sololá	701	Sololá	3	Barraneche	3	Marzo	2023-03-28T00:00:00	2024-11-06T13:00:00	6	Velocidad del viento	16.1
16622	7	Sololá	701	Sololá	3	Barraneche	3	Marzo	2023-03-28T00:00:00	2024-11-06T13:00:00	7	Dirección del viento	16.09
16623	7	Sololá	701	Sololá	3	Barraneche	3	Marzo	2023-03-28T00:00:00	2024-11-06T13:00:00	1	Precipitación	0
16624	7	Sololá	701	Sololá	3	Barraneche	3	Marzo	2023-03-28T00:00:00	2024-11-06T13:00:00	8	Radiación solar	1054
16625	7	Sololá	701	Sololá	3	Barraneche	3	Marzo	2023-03-28T00:00:00	2024-11-06T14:00:00	2	Temperatura media	17.7
16626	7	Sololá	701	Sololá	3	Barraneche	3	Marzo	2023-03-28T00:00:00	2024-11-06T14:00:00	4	Temperatura máxima	19
16627	7	Sololá	701	Sololá	3	Barraneche	3	Marzo	2023-03-28T00:00:00	2024-11-06T14:00:00	3	Temperatura mínima	17.6
16628	7	Sololá	701	Sololá	3	Barraneche	3	Marzo	2023-03-28T00:00:00	2024-11-06T14:00:00	5	Humedad	62
16629	7	Sololá	701	Sololá	3	Barraneche	3	Marzo	2023-03-28T00:00:00	2024-11-06T14:00:00	6	Velocidad del viento	16.1
16630	7	Sololá	701	Sololá	3	Barraneche	3	Marzo	2023-03-28T00:00:00	2024-11-06T14:00:00	7	Dirección del viento	16.09
16631	7	Sololá	701	Sololá	3	Barraneche	3	Marzo	2023-03-28T00:00:00	2024-11-06T14:00:00	1	Precipitación	0
16632	7	Sololá	701	Sololá	3	Barraneche	3	Marzo	2023-03-28T00:00:00	2024-11-06T14:00:00	8	Radiación solar	983
16633	7	Sololá	701	Sololá	3	Barraneche	3	Marzo	2023-03-28T00:00:00	2024-11-06T15:00:00	2	Temperatura media	18.6
16634	7	Sololá	701	Sololá	3	Barraneche	3	Marzo	2023-03-28T00:00:00	2024-11-06T15:00:00	4	Temperatura máxima	18.6
16635	7	Sololá	701	Sololá	3	Barraneche	3	Marzo	2023-03-28T00:00:00	2024-11-06T15:00:00	3	Temperatura mínima	17.1
16636	7	Sololá	701	Sololá	3	Barraneche	3	Marzo	2023-03-28T00:00:00	2024-11-06T15:00:00	5	Humedad	59
16637	7	Sololá	701	Sololá	3	Barraneche	3	Marzo	2023-03-28T00:00:00	2024-11-06T15:00:00	6	Velocidad del viento	12.9
16638	7	Sololá	701	Sololá	3	Barraneche	3	Marzo	2023-03-28T00:00:00	2024-11-06T15:00:00	7	Dirección del viento	12.87
16639	7	Sololá	701	Sololá	3	Barraneche	3	Marzo	2023-03-28T00:00:00	2024-11-06T15:00:00	1	Precipitación	0
16640	7	Sololá	701	Sololá	3	Barraneche	3	Marzo	2023-03-28T00:00:00	2024-11-06T15:00:00	8	Radiación solar	653
16641	7	Sololá	701	Sololá	3	Barraneche	3	Marzo	2023-03-28T00:00:00	2024-11-06T16:00:00	2	Temperatura media	17.9
16642	7	Sololá	701	Sololá	3	Barraneche	3	Marzo	2023-03-28T00:00:00	2024-11-06T16:00:00	4	Temperatura máxima	18.6
16643	7	Sololá	701	Sololá	3	Barraneche	3	Marzo	2023-03-28T00:00:00	2024-11-06T16:00:00	3	Temperatura mínima	17.2
16644	7	Sololá	701	Sololá	3	Barraneche	3	Marzo	2023-03-28T00:00:00	2024-11-06T16:00:00	5	Humedad	59
16645	7	Sololá	701	Sololá	3	Barraneche	3	Marzo	2023-03-28T00:00:00	2024-11-06T16:00:00	6	Velocidad del viento	12.9
16646	7	Sololá	701	Sololá	3	Barraneche	3	Marzo	2023-03-28T00:00:00	2024-11-06T16:00:00	7	Dirección del viento	12.87
16647	7	Sololá	701	Sololá	3	Barraneche	3	Marzo	2023-03-28T00:00:00	2024-11-06T16:00:00	1	Precipitación	0
16648	7	Sololá	701	Sololá	3	Barraneche	3	Marzo	2023-03-28T00:00:00	2024-11-06T16:00:00	8	Radiación solar	353
16649	7	Sololá	701	Sololá	3	Barraneche	3	Marzo	2023-03-28T00:00:00	2024-11-06T17:00:00	2	Temperatura media	16.8
16650	7	Sololá	701	Sololá	3	Barraneche	3	Marzo	2023-03-28T00:00:00	2024-11-06T17:00:00	4	Temperatura máxima	18.2
16651	7	Sololá	701	Sololá	3	Barraneche	3	Marzo	2023-03-28T00:00:00	2024-11-06T17:00:00	3	Temperatura mínima	16.4
16652	7	Sololá	701	Sololá	3	Barraneche	3	Marzo	2023-03-28T00:00:00	2024-11-06T17:00:00	5	Humedad	66
16653	7	Sololá	701	Sololá	3	Barraneche	3	Marzo	2023-03-28T00:00:00	2024-11-06T17:00:00	6	Velocidad del viento	9.7
16654	7	Sololá	701	Sololá	3	Barraneche	3	Marzo	2023-03-28T00:00:00	2024-11-06T17:00:00	7	Dirección del viento	9.66
16655	7	Sololá	701	Sololá	3	Barraneche	3	Marzo	2023-03-28T00:00:00	2024-11-06T17:00:00	1	Precipitación	0
16656	7	Sololá	701	Sololá	3	Barraneche	3	Marzo	2023-03-28T00:00:00	2024-11-06T17:00:00	8	Radiación solar	123
16657	7	Sololá	701	Sololá	3	Barraneche	3	Marzo	2023-03-28T00:00:00	2024-11-06T18:00:00	2	Temperatura media	15.8
16658	7	Sololá	701	Sololá	3	Barraneche	3	Marzo	2023-03-28T00:00:00	2024-11-06T18:00:00	4	Temperatura máxima	17.1
16659	7	Sololá	701	Sololá	3	Barraneche	3	Marzo	2023-03-28T00:00:00	2024-11-06T18:00:00	3	Temperatura mínima	15.8
16660	7	Sololá	701	Sololá	3	Barraneche	3	Marzo	2023-03-28T00:00:00	2024-11-06T18:00:00	5	Humedad	70
16661	7	Sololá	701	Sololá	3	Barraneche	3	Marzo	2023-03-28T00:00:00	2024-11-06T18:00:00	6	Velocidad del viento	4.8
16662	7	Sololá	701	Sololá	3	Barraneche	3	Marzo	2023-03-28T00:00:00	2024-11-06T18:00:00	7	Dirección del viento	4.83
16663	7	Sololá	701	Sololá	3	Barraneche	3	Marzo	2023-03-28T00:00:00	2024-11-06T18:00:00	1	Precipitación	0
16664	7	Sololá	701	Sololá	3	Barraneche	3	Marzo	2023-03-28T00:00:00	2024-11-06T18:00:00	8	Radiación solar	60
16665	7	Sololá	701	Sololá	3	Barraneche	3	Marzo	2023-03-28T00:00:00	2024-11-06T19:00:00	2	Temperatura media	14.9
16666	7	Sololá	701	Sololá	3	Barraneche	3	Marzo	2023-03-28T00:00:00	2024-11-06T19:00:00	4	Temperatura máxima	15.9
16667	7	Sololá	701	Sololá	3	Barraneche	3	Marzo	2023-03-28T00:00:00	2024-11-06T19:00:00	3	Temperatura mínima	14.9
16668	7	Sololá	701	Sololá	3	Barraneche	3	Marzo	2023-03-28T00:00:00	2024-11-06T19:00:00	5	Humedad	69
16669	7	Sololá	701	Sololá	3	Barraneche	3	Marzo	2023-03-28T00:00:00	2024-11-06T19:00:00	6	Velocidad del viento	3.2
16670	7	Sololá	701	Sololá	3	Barraneche	3	Marzo	2023-03-28T00:00:00	2024-11-06T19:00:00	7	Dirección del viento	3.22
16671	7	Sololá	701	Sololá	3	Barraneche	3	Marzo	2023-03-28T00:00:00	2024-11-06T19:00:00	1	Precipitación	0
16672	7	Sololá	701	Sololá	3	Barraneche	3	Marzo	2023-03-28T00:00:00	2024-11-06T19:00:00	8	Radiación solar	0
16673	7	Sololá	701	Sololá	3	Barraneche	3	Marzo	2023-03-28T00:00:00	2024-11-06T20:00:00	2	Temperatura media	15.4
16674	7	Sololá	701	Sololá	3	Barraneche	3	Marzo	2023-03-28T00:00:00	2024-11-06T20:00:00	4	Temperatura máxima	15.6
16675	7	Sololá	701	Sololá	3	Barraneche	3	Marzo	2023-03-28T00:00:00	2024-11-06T20:00:00	3	Temperatura mínima	14.8
16676	7	Sololá	701	Sololá	3	Barraneche	3	Marzo	2023-03-28T00:00:00	2024-11-06T20:00:00	5	Humedad	62
16677	7	Sololá	701	Sololá	3	Barraneche	3	Marzo	2023-03-28T00:00:00	2024-11-06T20:00:00	6	Velocidad del viento	6.4
16678	7	Sololá	701	Sololá	3	Barraneche	3	Marzo	2023-03-28T00:00:00	2024-11-06T20:00:00	7	Dirección del viento	6.44
16679	7	Sololá	701	Sololá	3	Barraneche	3	Marzo	2023-03-28T00:00:00	2024-11-06T20:00:00	1	Precipitación	0
16680	7	Sololá	701	Sololá	3	Barraneche	3	Marzo	2023-03-28T00:00:00	2024-11-06T20:00:00	8	Radiación solar	0
16681	7	Sololá	701	Sololá	3	Barraneche	3	Marzo	2023-03-28T00:00:00	2024-11-06T21:00:00	2	Temperatura media	14.9
16682	7	Sololá	701	Sololá	3	Barraneche	3	Marzo	2023-03-28T00:00:00	2024-11-06T21:00:00	4	Temperatura máxima	15.6
16683	7	Sololá	701	Sololá	3	Barraneche	3	Marzo	2023-03-28T00:00:00	2024-11-06T21:00:00	3	Temperatura mínima	14.8
16684	7	Sololá	701	Sololá	3	Barraneche	3	Marzo	2023-03-28T00:00:00	2024-11-06T21:00:00	5	Humedad	62
16685	7	Sololá	701	Sololá	3	Barraneche	3	Marzo	2023-03-28T00:00:00	2024-11-06T21:00:00	6	Velocidad del viento	12.9
16686	7	Sololá	701	Sololá	3	Barraneche	3	Marzo	2023-03-28T00:00:00	2024-11-06T21:00:00	7	Dirección del viento	12.87
16687	7	Sololá	701	Sololá	3	Barraneche	3	Marzo	2023-03-28T00:00:00	2024-11-06T21:00:00	1	Precipitación	0
16688	7	Sololá	701	Sololá	3	Barraneche	3	Marzo	2023-03-28T00:00:00	2024-11-06T21:00:00	8	Radiación solar	0
16689	7	Sololá	701	Sololá	3	Barraneche	3	Marzo	2023-03-28T00:00:00	2024-11-06T22:00:00	2	Temperatura media	14.6
16690	7	Sololá	701	Sololá	3	Barraneche	3	Marzo	2023-03-28T00:00:00	2024-11-06T22:00:00	4	Temperatura máxima	14.9
16691	7	Sololá	701	Sololá	3	Barraneche	3	Marzo	2023-03-28T00:00:00	2024-11-06T22:00:00	3	Temperatura mínima	14.6
16692	7	Sololá	701	Sololá	3	Barraneche	3	Marzo	2023-03-28T00:00:00	2024-11-06T22:00:00	5	Humedad	61
16693	7	Sololá	701	Sololá	3	Barraneche	3	Marzo	2023-03-28T00:00:00	2024-11-06T22:00:00	6	Velocidad del viento	16.1
16694	7	Sololá	701	Sololá	3	Barraneche	3	Marzo	2023-03-28T00:00:00	2024-11-06T22:00:00	7	Dirección del viento	16.09
16695	7	Sololá	701	Sololá	3	Barraneche	3	Marzo	2023-03-28T00:00:00	2024-11-06T22:00:00	1	Precipitación	0
16696	7	Sololá	701	Sololá	3	Barraneche	3	Marzo	2023-03-28T00:00:00	2024-11-06T22:00:00	8	Radiación solar	0
16697	7	Sololá	701	Sololá	3	Barraneche	3	Marzo	2023-03-28T00:00:00	2024-11-06T23:00:00	2	Temperatura media	14.2
16698	7	Sololá	701	Sololá	3	Barraneche	3	Marzo	2023-03-28T00:00:00	2024-11-06T23:00:00	4	Temperatura máxima	14.6
16699	7	Sololá	701	Sololá	3	Barraneche	3	Marzo	2023-03-28T00:00:00	2024-11-06T23:00:00	3	Temperatura mínima	14.1
16700	7	Sololá	701	Sololá	3	Barraneche	3	Marzo	2023-03-28T00:00:00	2024-11-06T23:00:00	5	Humedad	58
16701	7	Sololá	701	Sololá	3	Barraneche	3	Marzo	2023-03-28T00:00:00	2024-11-06T23:00:00	6	Velocidad del viento	12.9
16702	7	Sololá	701	Sololá	3	Barraneche	3	Marzo	2023-03-28T00:00:00	2024-11-06T23:00:00	7	Dirección del viento	12.87
16703	7	Sololá	701	Sololá	3	Barraneche	3	Marzo	2023-03-28T00:00:00	2024-11-06T23:00:00	1	Precipitación	0
16704	7	Sololá	701	Sololá	3	Barraneche	3	Marzo	2023-03-28T00:00:00	2024-11-06T23:00:00	8	Radiación solar	0
16705	7	Sololá	701	Sololá	3	Barraneche	3	Marzo	2023-03-29T00:00:00	2024-11-06T00:00:00	2	Temperatura media	14
16706	7	Sololá	701	Sololá	3	Barraneche	3	Marzo	2023-03-29T00:00:00	2024-11-06T00:00:00	4	Temperatura máxima	14.3
16707	7	Sololá	701	Sololá	3	Barraneche	3	Marzo	2023-03-29T00:00:00	2024-11-06T00:00:00	3	Temperatura mínima	13.9
16708	7	Sololá	701	Sololá	3	Barraneche	3	Marzo	2023-03-29T00:00:00	2024-11-06T00:00:00	5	Humedad	55
16709	7	Sololá	701	Sololá	3	Barraneche	3	Marzo	2023-03-29T00:00:00	2024-11-06T00:00:00	6	Velocidad del viento	12.9
16710	7	Sololá	701	Sololá	3	Barraneche	3	Marzo	2023-03-29T00:00:00	2024-11-06T00:00:00	7	Dirección del viento	12.87
16711	7	Sololá	701	Sololá	3	Barraneche	3	Marzo	2023-03-29T00:00:00	2024-11-06T00:00:00	1	Precipitación	0
16712	7	Sololá	701	Sololá	3	Barraneche	3	Marzo	2023-03-29T00:00:00	2024-11-06T00:00:00	8	Radiación solar	0
16713	7	Sololá	701	Sololá	3	Barraneche	3	Marzo	2023-03-29T00:00:00	2024-11-06T01:00:00	2	Temperatura media	13.7
16714	7	Sololá	701	Sololá	3	Barraneche	3	Marzo	2023-03-29T00:00:00	2024-11-06T01:00:00	4	Temperatura máxima	14.3
16715	7	Sololá	701	Sololá	3	Barraneche	3	Marzo	2023-03-29T00:00:00	2024-11-06T01:00:00	3	Temperatura mínima	13.7
16716	7	Sololá	701	Sololá	3	Barraneche	3	Marzo	2023-03-29T00:00:00	2024-11-06T01:00:00	5	Humedad	56
16717	7	Sololá	701	Sololá	3	Barraneche	3	Marzo	2023-03-29T00:00:00	2024-11-06T01:00:00	6	Velocidad del viento	12.9
16718	7	Sololá	701	Sololá	3	Barraneche	3	Marzo	2023-03-29T00:00:00	2024-11-06T01:00:00	7	Dirección del viento	12.87
16719	7	Sololá	701	Sololá	3	Barraneche	3	Marzo	2023-03-29T00:00:00	2024-11-06T01:00:00	1	Precipitación	0
16720	7	Sololá	701	Sololá	3	Barraneche	3	Marzo	2023-03-29T00:00:00	2024-11-06T01:00:00	8	Radiación solar	0
16721	7	Sololá	701	Sololá	3	Barraneche	3	Marzo	2023-03-29T00:00:00	2024-11-06T02:00:00	2	Temperatura media	11.4
16722	7	Sololá	701	Sololá	3	Barraneche	3	Marzo	2023-03-29T00:00:00	2024-11-06T02:00:00	4	Temperatura máxima	13.7
16723	7	Sololá	701	Sololá	3	Barraneche	3	Marzo	2023-03-29T00:00:00	2024-11-06T02:00:00	3	Temperatura mínima	11.4
16724	7	Sololá	701	Sololá	3	Barraneche	3	Marzo	2023-03-29T00:00:00	2024-11-06T02:00:00	5	Humedad	61
16725	7	Sololá	701	Sololá	3	Barraneche	3	Marzo	2023-03-29T00:00:00	2024-11-06T02:00:00	6	Velocidad del viento	1.6
16726	7	Sololá	701	Sololá	3	Barraneche	3	Marzo	2023-03-29T00:00:00	2024-11-06T02:00:00	7	Dirección del viento	1.61
16727	7	Sololá	701	Sololá	3	Barraneche	3	Marzo	2023-03-29T00:00:00	2024-11-06T02:00:00	1	Precipitación	0
16728	7	Sololá	701	Sololá	3	Barraneche	3	Marzo	2023-03-29T00:00:00	2024-11-06T02:00:00	8	Radiación solar	0
16729	7	Sololá	701	Sololá	3	Barraneche	3	Marzo	2023-03-29T00:00:00	2024-11-06T03:00:00	2	Temperatura media	12
16730	7	Sololá	701	Sololá	3	Barraneche	3	Marzo	2023-03-29T00:00:00	2024-11-06T03:00:00	4	Temperatura máxima	12.1
16731	7	Sololá	701	Sololá	3	Barraneche	3	Marzo	2023-03-29T00:00:00	2024-11-06T03:00:00	3	Temperatura mínima	11.4
16732	7	Sololá	701	Sololá	3	Barraneche	3	Marzo	2023-03-29T00:00:00	2024-11-06T03:00:00	5	Humedad	58
16733	7	Sololá	701	Sololá	3	Barraneche	3	Marzo	2023-03-29T00:00:00	2024-11-06T03:00:00	6	Velocidad del viento	4.8
16734	7	Sololá	701	Sololá	3	Barraneche	3	Marzo	2023-03-29T00:00:00	2024-11-06T03:00:00	7	Dirección del viento	4.83
16735	7	Sololá	701	Sololá	3	Barraneche	3	Marzo	2023-03-29T00:00:00	2024-11-06T03:00:00	1	Precipitación	0
16736	7	Sololá	701	Sololá	3	Barraneche	3	Marzo	2023-03-29T00:00:00	2024-11-06T03:00:00	8	Radiación solar	0
16737	7	Sololá	701	Sololá	3	Barraneche	3	Marzo	2023-03-29T00:00:00	2024-11-06T04:00:00	2	Temperatura media	13.8
16738	7	Sololá	701	Sololá	3	Barraneche	3	Marzo	2023-03-29T00:00:00	2024-11-06T04:00:00	4	Temperatura máxima	13.8
16739	7	Sololá	701	Sololá	3	Barraneche	3	Marzo	2023-03-29T00:00:00	2024-11-06T04:00:00	3	Temperatura mínima	11.7
16740	7	Sololá	701	Sololá	3	Barraneche	3	Marzo	2023-03-29T00:00:00	2024-11-06T04:00:00	5	Humedad	55
16741	7	Sololá	701	Sololá	3	Barraneche	3	Marzo	2023-03-29T00:00:00	2024-11-06T04:00:00	6	Velocidad del viento	9.7
16742	7	Sololá	701	Sololá	3	Barraneche	3	Marzo	2023-03-29T00:00:00	2024-11-06T04:00:00	7	Dirección del viento	9.66
16743	7	Sololá	701	Sololá	3	Barraneche	3	Marzo	2023-03-29T00:00:00	2024-11-06T04:00:00	1	Precipitación	0
16744	7	Sololá	701	Sololá	3	Barraneche	3	Marzo	2023-03-29T00:00:00	2024-11-06T04:00:00	8	Radiación solar	0
16745	7	Sololá	701	Sololá	3	Barraneche	3	Marzo	2023-03-29T00:00:00	2024-11-06T05:00:00	2	Temperatura media	13.8
16746	7	Sololá	701	Sololá	3	Barraneche	3	Marzo	2023-03-29T00:00:00	2024-11-06T05:00:00	4	Temperatura máxima	13.9
16747	7	Sololá	701	Sololá	3	Barraneche	3	Marzo	2023-03-29T00:00:00	2024-11-06T05:00:00	3	Temperatura mínima	13.4
16748	7	Sololá	701	Sololá	3	Barraneche	3	Marzo	2023-03-29T00:00:00	2024-11-06T05:00:00	5	Humedad	54
16749	7	Sololá	701	Sololá	3	Barraneche	3	Marzo	2023-03-29T00:00:00	2024-11-06T05:00:00	6	Velocidad del viento	17.7
16750	7	Sololá	701	Sololá	3	Barraneche	3	Marzo	2023-03-29T00:00:00	2024-11-06T05:00:00	7	Dirección del viento	17.7
16751	7	Sololá	701	Sololá	3	Barraneche	3	Marzo	2023-03-29T00:00:00	2024-11-06T05:00:00	1	Precipitación	0
16752	7	Sololá	701	Sololá	3	Barraneche	3	Marzo	2023-03-29T00:00:00	2024-11-06T05:00:00	8	Radiación solar	0
16753	7	Sololá	701	Sololá	3	Barraneche	3	Marzo	2023-03-29T00:00:00	2024-11-06T06:00:00	2	Temperatura media	12.4
16754	7	Sololá	701	Sololá	3	Barraneche	3	Marzo	2023-03-29T00:00:00	2024-11-06T06:00:00	4	Temperatura máxima	13.9
16755	7	Sololá	701	Sololá	3	Barraneche	3	Marzo	2023-03-29T00:00:00	2024-11-06T06:00:00	3	Temperatura mínima	12.4
16756	7	Sololá	701	Sololá	3	Barraneche	3	Marzo	2023-03-29T00:00:00	2024-11-06T06:00:00	5	Humedad	55
16757	7	Sololá	701	Sololá	3	Barraneche	3	Marzo	2023-03-29T00:00:00	2024-11-06T06:00:00	6	Velocidad del viento	19.3
16758	7	Sololá	701	Sololá	3	Barraneche	3	Marzo	2023-03-29T00:00:00	2024-11-06T06:00:00	7	Dirección del viento	19.31
16759	7	Sololá	701	Sololá	3	Barraneche	3	Marzo	2023-03-29T00:00:00	2024-11-06T06:00:00	1	Precipitación	0
16760	7	Sololá	701	Sololá	3	Barraneche	3	Marzo	2023-03-29T00:00:00	2024-11-06T06:00:00	8	Radiación solar	0
16761	7	Sololá	701	Sololá	3	Barraneche	3	Marzo	2023-03-29T00:00:00	2024-11-06T07:00:00	2	Temperatura media	12.8
16762	7	Sololá	701	Sololá	3	Barraneche	3	Marzo	2023-03-29T00:00:00	2024-11-06T07:00:00	4	Temperatura máxima	12.8
16763	7	Sololá	701	Sololá	3	Barraneche	3	Marzo	2023-03-29T00:00:00	2024-11-06T07:00:00	3	Temperatura mínima	12.3
16764	7	Sololá	701	Sololá	3	Barraneche	3	Marzo	2023-03-29T00:00:00	2024-11-06T07:00:00	5	Humedad	55
16765	7	Sololá	701	Sololá	3	Barraneche	3	Marzo	2023-03-29T00:00:00	2024-11-06T07:00:00	6	Velocidad del viento	11.3
16766	7	Sololá	701	Sololá	3	Barraneche	3	Marzo	2023-03-29T00:00:00	2024-11-06T07:00:00	7	Dirección del viento	11.27
16767	7	Sololá	701	Sololá	3	Barraneche	3	Marzo	2023-03-29T00:00:00	2024-11-06T07:00:00	1	Precipitación	0
16768	7	Sololá	701	Sololá	3	Barraneche	3	Marzo	2023-03-29T00:00:00	2024-11-06T07:00:00	8	Radiación solar	33
16769	7	Sololá	701	Sololá	3	Barraneche	3	Marzo	2023-03-29T00:00:00	2024-11-06T08:00:00	2	Temperatura media	14.3
16770	7	Sololá	701	Sololá	3	Barraneche	3	Marzo	2023-03-29T00:00:00	2024-11-06T08:00:00	4	Temperatura máxima	14.4
16771	7	Sololá	701	Sololá	3	Barraneche	3	Marzo	2023-03-29T00:00:00	2024-11-06T08:00:00	3	Temperatura mínima	12.8
16772	7	Sololá	701	Sololá	3	Barraneche	3	Marzo	2023-03-29T00:00:00	2024-11-06T08:00:00	5	Humedad	57
16773	7	Sololá	701	Sololá	3	Barraneche	3	Marzo	2023-03-29T00:00:00	2024-11-06T08:00:00	6	Velocidad del viento	9.7
16774	7	Sololá	701	Sololá	3	Barraneche	3	Marzo	2023-03-29T00:00:00	2024-11-06T08:00:00	7	Dirección del viento	9.66
16775	7	Sololá	701	Sololá	3	Barraneche	3	Marzo	2023-03-29T00:00:00	2024-11-06T08:00:00	1	Precipitación	0
16776	7	Sololá	701	Sololá	3	Barraneche	3	Marzo	2023-03-29T00:00:00	2024-11-06T08:00:00	8	Radiación solar	295
16777	7	Sololá	701	Sololá	3	Barraneche	3	Marzo	2023-03-29T00:00:00	2024-11-06T09:00:00	2	Temperatura media	14.9
16778	7	Sololá	701	Sololá	3	Barraneche	3	Marzo	2023-03-29T00:00:00	2024-11-06T09:00:00	4	Temperatura máxima	14.9
16779	7	Sololá	701	Sololá	3	Barraneche	3	Marzo	2023-03-29T00:00:00	2024-11-06T09:00:00	3	Temperatura mínima	14.2
16780	7	Sololá	701	Sololá	3	Barraneche	3	Marzo	2023-03-29T00:00:00	2024-11-06T09:00:00	5	Humedad	54
16781	7	Sololá	701	Sololá	3	Barraneche	3	Marzo	2023-03-29T00:00:00	2024-11-06T09:00:00	6	Velocidad del viento	16.1
16782	7	Sololá	701	Sololá	3	Barraneche	3	Marzo	2023-03-29T00:00:00	2024-11-06T09:00:00	7	Dirección del viento	16.09
16783	7	Sololá	701	Sololá	3	Barraneche	3	Marzo	2023-03-29T00:00:00	2024-11-06T09:00:00	1	Precipitación	0
16784	7	Sololá	701	Sololá	3	Barraneche	3	Marzo	2023-03-29T00:00:00	2024-11-06T09:00:00	8	Radiación solar	558
16785	7	Sololá	701	Sololá	3	Barraneche	3	Marzo	2023-03-29T00:00:00	2024-11-06T10:00:00	2	Temperatura media	16.5
16786	7	Sololá	701	Sololá	3	Barraneche	3	Marzo	2023-03-29T00:00:00	2024-11-06T10:00:00	4	Temperatura máxima	16.5
16787	7	Sololá	701	Sololá	3	Barraneche	3	Marzo	2023-03-29T00:00:00	2024-11-06T10:00:00	3	Temperatura mínima	14.7
16788	7	Sololá	701	Sololá	3	Barraneche	3	Marzo	2023-03-29T00:00:00	2024-11-06T10:00:00	5	Humedad	51
16789	7	Sololá	701	Sololá	3	Barraneche	3	Marzo	2023-03-29T00:00:00	2024-11-06T10:00:00	6	Velocidad del viento	11.3
16790	7	Sololá	701	Sololá	3	Barraneche	3	Marzo	2023-03-29T00:00:00	2024-11-06T10:00:00	7	Dirección del viento	11.27
16791	7	Sololá	701	Sololá	3	Barraneche	3	Marzo	2023-03-29T00:00:00	2024-11-06T10:00:00	1	Precipitación	0
16792	7	Sololá	701	Sololá	3	Barraneche	3	Marzo	2023-03-29T00:00:00	2024-11-06T10:00:00	8	Radiación solar	746
16793	7	Sololá	701	Sololá	3	Barraneche	3	Marzo	2023-03-29T00:00:00	2024-11-06T11:00:00	2	Temperatura media	17.8
16794	7	Sololá	701	Sololá	3	Barraneche	3	Marzo	2023-03-29T00:00:00	2024-11-06T11:00:00	4	Temperatura máxima	18.2
16795	7	Sololá	701	Sololá	3	Barraneche	3	Marzo	2023-03-29T00:00:00	2024-11-06T11:00:00	3	Temperatura mínima	16.4
16796	7	Sololá	701	Sololá	3	Barraneche	3	Marzo	2023-03-29T00:00:00	2024-11-06T11:00:00	5	Humedad	41
16797	7	Sololá	701	Sololá	3	Barraneche	3	Marzo	2023-03-29T00:00:00	2024-11-06T11:00:00	6	Velocidad del viento	8
16798	7	Sololá	701	Sololá	3	Barraneche	3	Marzo	2023-03-29T00:00:00	2024-11-06T11:00:00	7	Dirección del viento	8.05
16799	7	Sololá	701	Sololá	3	Barraneche	3	Marzo	2023-03-29T00:00:00	2024-11-06T11:00:00	1	Precipitación	0
16800	7	Sololá	701	Sololá	3	Barraneche	3	Marzo	2023-03-29T00:00:00	2024-11-06T11:00:00	8	Radiación solar	987
16801	7	Sololá	701	Sololá	3	Barraneche	3	Marzo	2023-03-29T00:00:00	2024-11-06T12:00:00	2	Temperatura media	18.4
16802	7	Sololá	701	Sololá	3	Barraneche	3	Marzo	2023-03-29T00:00:00	2024-11-06T12:00:00	4	Temperatura máxima	18.9
16803	7	Sololá	701	Sololá	3	Barraneche	3	Marzo	2023-03-29T00:00:00	2024-11-06T12:00:00	3	Temperatura mínima	17.6
16804	7	Sololá	701	Sololá	3	Barraneche	3	Marzo	2023-03-29T00:00:00	2024-11-06T12:00:00	5	Humedad	40
16805	7	Sololá	701	Sololá	3	Barraneche	3	Marzo	2023-03-29T00:00:00	2024-11-06T12:00:00	6	Velocidad del viento	12.9
16806	7	Sololá	701	Sololá	3	Barraneche	3	Marzo	2023-03-29T00:00:00	2024-11-06T12:00:00	7	Dirección del viento	12.87
16807	7	Sololá	701	Sololá	3	Barraneche	3	Marzo	2023-03-29T00:00:00	2024-11-06T12:00:00	1	Precipitación	0
16808	7	Sololá	701	Sololá	3	Barraneche	3	Marzo	2023-03-29T00:00:00	2024-11-06T12:00:00	8	Radiación solar	1066
16809	7	Sololá	701	Sololá	3	Barraneche	3	Marzo	2023-03-29T00:00:00	2024-11-06T13:00:00	2	Temperatura media	19.1
16810	7	Sololá	701	Sololá	3	Barraneche	3	Marzo	2023-03-29T00:00:00	2024-11-06T13:00:00	4	Temperatura máxima	19.6
16811	7	Sololá	701	Sololá	3	Barraneche	3	Marzo	2023-03-29T00:00:00	2024-11-06T13:00:00	3	Temperatura mínima	18.2
16812	7	Sololá	701	Sololá	3	Barraneche	3	Marzo	2023-03-29T00:00:00	2024-11-06T13:00:00	5	Humedad	38
16813	7	Sololá	701	Sololá	3	Barraneche	3	Marzo	2023-03-29T00:00:00	2024-11-06T13:00:00	6	Velocidad del viento	14.5
16814	7	Sololá	701	Sololá	3	Barraneche	3	Marzo	2023-03-29T00:00:00	2024-11-06T13:00:00	7	Dirección del viento	14.48
16815	7	Sololá	701	Sololá	3	Barraneche	3	Marzo	2023-03-29T00:00:00	2024-11-06T13:00:00	1	Precipitación	0
16816	7	Sololá	701	Sololá	3	Barraneche	3	Marzo	2023-03-29T00:00:00	2024-11-06T13:00:00	8	Radiación solar	1069
16817	7	Sololá	701	Sololá	3	Barraneche	3	Marzo	2023-03-29T00:00:00	2024-11-06T14:00:00	2	Temperatura media	19.6
16818	7	Sololá	701	Sololá	3	Barraneche	3	Marzo	2023-03-29T00:00:00	2024-11-06T14:00:00	4	Temperatura máxima	19.7
16819	7	Sololá	701	Sololá	3	Barraneche	3	Marzo	2023-03-29T00:00:00	2024-11-06T14:00:00	3	Temperatura mínima	18.4
16820	7	Sololá	701	Sololá	3	Barraneche	3	Marzo	2023-03-29T00:00:00	2024-11-06T14:00:00	5	Humedad	38
16821	7	Sololá	701	Sololá	3	Barraneche	3	Marzo	2023-03-29T00:00:00	2024-11-06T14:00:00	6	Velocidad del viento	17.7
16822	7	Sololá	701	Sololá	3	Barraneche	3	Marzo	2023-03-29T00:00:00	2024-11-06T14:00:00	7	Dirección del viento	17.7
16823	7	Sololá	701	Sololá	3	Barraneche	3	Marzo	2023-03-29T00:00:00	2024-11-06T14:00:00	1	Precipitación	0
16824	7	Sololá	701	Sololá	3	Barraneche	3	Marzo	2023-03-29T00:00:00	2024-11-06T14:00:00	8	Radiación solar	976
16825	7	Sololá	701	Sololá	3	Barraneche	3	Marzo	2023-03-29T00:00:00	2024-11-06T15:00:00	2	Temperatura media	19.3
16826	7	Sololá	701	Sololá	3	Barraneche	3	Marzo	2023-03-29T00:00:00	2024-11-06T15:00:00	4	Temperatura máxima	19.8
16827	7	Sololá	701	Sololá	3	Barraneche	3	Marzo	2023-03-29T00:00:00	2024-11-06T15:00:00	3	Temperatura mínima	19
16828	7	Sololá	701	Sololá	3	Barraneche	3	Marzo	2023-03-29T00:00:00	2024-11-06T15:00:00	5	Humedad	37
16829	7	Sololá	701	Sololá	3	Barraneche	3	Marzo	2023-03-29T00:00:00	2024-11-06T15:00:00	6	Velocidad del viento	14.5
16830	7	Sololá	701	Sololá	3	Barraneche	3	Marzo	2023-03-29T00:00:00	2024-11-06T15:00:00	7	Dirección del viento	14.48
16831	7	Sololá	701	Sololá	3	Barraneche	3	Marzo	2023-03-29T00:00:00	2024-11-06T15:00:00	1	Precipitación	0
16832	7	Sololá	701	Sololá	3	Barraneche	3	Marzo	2023-03-29T00:00:00	2024-11-06T15:00:00	8	Radiación solar	830
16833	7	Sololá	701	Sololá	3	Barraneche	3	Marzo	2023-03-29T00:00:00	2024-11-06T16:00:00	2	Temperatura media	18.9
16834	7	Sololá	701	Sololá	3	Barraneche	3	Marzo	2023-03-29T00:00:00	2024-11-06T16:00:00	4	Temperatura máxima	19.4
16835	7	Sololá	701	Sololá	3	Barraneche	3	Marzo	2023-03-29T00:00:00	2024-11-06T16:00:00	3	Temperatura mínima	18.6
16836	7	Sololá	701	Sololá	3	Barraneche	3	Marzo	2023-03-29T00:00:00	2024-11-06T16:00:00	5	Humedad	36
16837	7	Sololá	701	Sololá	3	Barraneche	3	Marzo	2023-03-29T00:00:00	2024-11-06T16:00:00	6	Velocidad del viento	12.9
16838	7	Sololá	701	Sololá	3	Barraneche	3	Marzo	2023-03-29T00:00:00	2024-11-06T16:00:00	7	Dirección del viento	12.87
16839	7	Sololá	701	Sololá	3	Barraneche	3	Marzo	2023-03-29T00:00:00	2024-11-06T16:00:00	1	Precipitación	0
16840	7	Sololá	701	Sololá	3	Barraneche	3	Marzo	2023-03-29T00:00:00	2024-11-06T16:00:00	8	Radiación solar	506
16841	7	Sololá	701	Sololá	3	Barraneche	3	Marzo	2023-03-29T00:00:00	2024-11-06T17:00:00	2	Temperatura media	17.4
16842	7	Sololá	701	Sololá	3	Barraneche	3	Marzo	2023-03-29T00:00:00	2024-11-06T17:00:00	4	Temperatura máxima	18.9
16843	7	Sololá	701	Sololá	3	Barraneche	3	Marzo	2023-03-29T00:00:00	2024-11-06T17:00:00	3	Temperatura mínima	17.4
16844	7	Sololá	701	Sololá	3	Barraneche	3	Marzo	2023-03-29T00:00:00	2024-11-06T17:00:00	5	Humedad	41
16845	7	Sololá	701	Sololá	3	Barraneche	3	Marzo	2023-03-29T00:00:00	2024-11-06T17:00:00	6	Velocidad del viento	12.9
16846	7	Sololá	701	Sololá	3	Barraneche	3	Marzo	2023-03-29T00:00:00	2024-11-06T17:00:00	7	Dirección del viento	12.87
16847	7	Sololá	701	Sololá	3	Barraneche	3	Marzo	2023-03-29T00:00:00	2024-11-06T17:00:00	1	Precipitación	0
16848	7	Sololá	701	Sololá	3	Barraneche	3	Marzo	2023-03-29T00:00:00	2024-11-06T17:00:00	8	Radiación solar	274
16849	7	Sololá	701	Sololá	3	Barraneche	3	Marzo	2023-03-29T00:00:00	2024-11-06T18:00:00	2	Temperatura media	15.4
16850	7	Sololá	701	Sololá	3	Barraneche	3	Marzo	2023-03-29T00:00:00	2024-11-06T18:00:00	4	Temperatura máxima	17.4
16851	7	Sololá	701	Sololá	3	Barraneche	3	Marzo	2023-03-29T00:00:00	2024-11-06T18:00:00	3	Temperatura mínima	15.4
16852	7	Sololá	701	Sololá	3	Barraneche	3	Marzo	2023-03-29T00:00:00	2024-11-06T18:00:00	5	Humedad	47
16853	7	Sololá	701	Sololá	3	Barraneche	3	Marzo	2023-03-29T00:00:00	2024-11-06T18:00:00	6	Velocidad del viento	12.9
16854	7	Sololá	701	Sololá	3	Barraneche	3	Marzo	2023-03-29T00:00:00	2024-11-06T18:00:00	7	Dirección del viento	12.87
16855	7	Sololá	701	Sololá	3	Barraneche	3	Marzo	2023-03-29T00:00:00	2024-11-06T18:00:00	1	Precipitación	0
16856	7	Sololá	701	Sololá	3	Barraneche	3	Marzo	2023-03-29T00:00:00	2024-11-06T18:00:00	8	Radiación solar	92
16857	7	Sololá	701	Sololá	3	Barraneche	3	Marzo	2023-03-29T00:00:00	2024-11-06T19:00:00	2	Temperatura media	13.7
16858	7	Sololá	701	Sololá	3	Barraneche	3	Marzo	2023-03-29T00:00:00	2024-11-06T19:00:00	4	Temperatura máxima	15.4
16859	7	Sololá	701	Sololá	3	Barraneche	3	Marzo	2023-03-29T00:00:00	2024-11-06T19:00:00	3	Temperatura mínima	13.7
16860	7	Sololá	701	Sololá	3	Barraneche	3	Marzo	2023-03-29T00:00:00	2024-11-06T19:00:00	5	Humedad	55
16861	7	Sololá	701	Sololá	3	Barraneche	3	Marzo	2023-03-29T00:00:00	2024-11-06T19:00:00	6	Velocidad del viento	17.7
16862	7	Sololá	701	Sololá	3	Barraneche	3	Marzo	2023-03-29T00:00:00	2024-11-06T19:00:00	7	Dirección del viento	17.7
16863	7	Sololá	701	Sololá	3	Barraneche	3	Marzo	2023-03-29T00:00:00	2024-11-06T19:00:00	1	Precipitación	0
16864	7	Sololá	701	Sololá	3	Barraneche	3	Marzo	2023-03-29T00:00:00	2024-11-06T19:00:00	8	Radiación solar	0
16865	7	Sololá	701	Sololá	3	Barraneche	3	Marzo	2023-03-29T00:00:00	2024-11-06T20:00:00	2	Temperatura media	12.7
16866	7	Sololá	701	Sololá	3	Barraneche	3	Marzo	2023-03-29T00:00:00	2024-11-06T20:00:00	4	Temperatura máxima	13.7
16867	7	Sololá	701	Sololá	3	Barraneche	3	Marzo	2023-03-29T00:00:00	2024-11-06T20:00:00	3	Temperatura mínima	12.7
16868	7	Sololá	701	Sololá	3	Barraneche	3	Marzo	2023-03-29T00:00:00	2024-11-06T20:00:00	5	Humedad	58
16869	7	Sololá	701	Sololá	3	Barraneche	3	Marzo	2023-03-29T00:00:00	2024-11-06T20:00:00	6	Velocidad del viento	12.9
16870	7	Sololá	701	Sololá	3	Barraneche	3	Marzo	2023-03-29T00:00:00	2024-11-06T20:00:00	7	Dirección del viento	12.87
16871	7	Sololá	701	Sololá	3	Barraneche	3	Marzo	2023-03-29T00:00:00	2024-11-06T20:00:00	1	Precipitación	0
16872	7	Sololá	701	Sololá	3	Barraneche	3	Marzo	2023-03-29T00:00:00	2024-11-06T20:00:00	8	Radiación solar	0
16873	7	Sololá	701	Sololá	3	Barraneche	3	Marzo	2023-03-29T00:00:00	2024-11-06T21:00:00	2	Temperatura media	12.5
16874	7	Sololá	701	Sololá	3	Barraneche	3	Marzo	2023-03-29T00:00:00	2024-11-06T21:00:00	4	Temperatura máxima	12.7
16875	7	Sololá	701	Sololá	3	Barraneche	3	Marzo	2023-03-29T00:00:00	2024-11-06T21:00:00	3	Temperatura mínima	12.4
16876	7	Sololá	701	Sololá	3	Barraneche	3	Marzo	2023-03-29T00:00:00	2024-11-06T21:00:00	5	Humedad	51
16877	7	Sololá	701	Sololá	3	Barraneche	3	Marzo	2023-03-29T00:00:00	2024-11-06T21:00:00	6	Velocidad del viento	14.5
16878	7	Sololá	701	Sololá	3	Barraneche	3	Marzo	2023-03-29T00:00:00	2024-11-06T21:00:00	7	Dirección del viento	14.48
16879	7	Sololá	701	Sololá	3	Barraneche	3	Marzo	2023-03-29T00:00:00	2024-11-06T21:00:00	1	Precipitación	0
16880	7	Sololá	701	Sololá	3	Barraneche	3	Marzo	2023-03-29T00:00:00	2024-11-06T21:00:00	8	Radiación solar	0
16881	7	Sololá	701	Sololá	3	Barraneche	3	Marzo	2023-03-29T00:00:00	2024-11-06T22:00:00	2	Temperatura media	12.4
16882	7	Sololá	701	Sololá	3	Barraneche	3	Marzo	2023-03-29T00:00:00	2024-11-06T22:00:00	4	Temperatura máxima	12.7
16883	7	Sololá	701	Sololá	3	Barraneche	3	Marzo	2023-03-29T00:00:00	2024-11-06T22:00:00	3	Temperatura mínima	12.4
16884	7	Sololá	701	Sololá	3	Barraneche	3	Marzo	2023-03-29T00:00:00	2024-11-06T22:00:00	5	Humedad	43
16885	7	Sololá	701	Sololá	3	Barraneche	3	Marzo	2023-03-29T00:00:00	2024-11-06T22:00:00	6	Velocidad del viento	11.3
16886	7	Sololá	701	Sololá	3	Barraneche	3	Marzo	2023-03-29T00:00:00	2024-11-06T22:00:00	7	Dirección del viento	11.27
16887	7	Sololá	701	Sololá	3	Barraneche	3	Marzo	2023-03-29T00:00:00	2024-11-06T22:00:00	1	Precipitación	0
16888	7	Sololá	701	Sololá	3	Barraneche	3	Marzo	2023-03-29T00:00:00	2024-11-06T22:00:00	8	Radiación solar	0
16889	7	Sololá	701	Sololá	3	Barraneche	3	Marzo	2023-03-29T00:00:00	2024-11-06T23:00:00	2	Temperatura media	12.1
16890	7	Sololá	701	Sololá	3	Barraneche	3	Marzo	2023-03-29T00:00:00	2024-11-06T23:00:00	4	Temperatura máxima	12.5
16891	7	Sololá	701	Sololá	3	Barraneche	3	Marzo	2023-03-29T00:00:00	2024-11-06T23:00:00	3	Temperatura mínima	12.1
16892	7	Sololá	701	Sololá	3	Barraneche	3	Marzo	2023-03-29T00:00:00	2024-11-06T23:00:00	5	Humedad	48
16893	7	Sololá	701	Sololá	3	Barraneche	3	Marzo	2023-03-29T00:00:00	2024-11-06T23:00:00	6	Velocidad del viento	11.3
16894	7	Sololá	701	Sololá	3	Barraneche	3	Marzo	2023-03-29T00:00:00	2024-11-06T23:00:00	7	Dirección del viento	11.27
16895	7	Sololá	701	Sololá	3	Barraneche	3	Marzo	2023-03-29T00:00:00	2024-11-06T23:00:00	1	Precipitación	0
16896	7	Sololá	701	Sololá	3	Barraneche	3	Marzo	2023-03-29T00:00:00	2024-11-06T23:00:00	8	Radiación solar	0
16897	7	Sololá	701	Sololá	3	Barraneche	3	Marzo	2023-03-30T00:00:00	2024-11-06T00:00:00	2	Temperatura media	11.4
16898	7	Sololá	701	Sololá	3	Barraneche	3	Marzo	2023-03-30T00:00:00	2024-11-06T00:00:00	4	Temperatura máxima	12.1
16899	7	Sololá	701	Sololá	3	Barraneche	3	Marzo	2023-03-30T00:00:00	2024-11-06T00:00:00	3	Temperatura mínima	11.3
16900	7	Sololá	701	Sololá	3	Barraneche	3	Marzo	2023-03-30T00:00:00	2024-11-06T00:00:00	5	Humedad	55
16901	7	Sololá	701	Sololá	3	Barraneche	3	Marzo	2023-03-30T00:00:00	2024-11-06T00:00:00	6	Velocidad del viento	8
16902	7	Sololá	701	Sololá	3	Barraneche	3	Marzo	2023-03-30T00:00:00	2024-11-06T00:00:00	7	Dirección del viento	8.05
16903	7	Sololá	701	Sololá	3	Barraneche	3	Marzo	2023-03-30T00:00:00	2024-11-06T00:00:00	1	Precipitación	0
16904	7	Sololá	701	Sololá	3	Barraneche	3	Marzo	2023-03-30T00:00:00	2024-11-06T00:00:00	8	Radiación solar	0
16905	7	Sololá	701	Sololá	3	Barraneche	3	Marzo	2023-03-30T00:00:00	2024-11-06T01:00:00	2	Temperatura media	9.3
16906	7	Sololá	701	Sololá	3	Barraneche	3	Marzo	2023-03-30T00:00:00	2024-11-06T01:00:00	4	Temperatura máxima	11.5
16907	7	Sololá	701	Sololá	3	Barraneche	3	Marzo	2023-03-30T00:00:00	2024-11-06T01:00:00	3	Temperatura mínima	9.2
16908	7	Sololá	701	Sololá	3	Barraneche	3	Marzo	2023-03-30T00:00:00	2024-11-06T01:00:00	5	Humedad	55
16909	7	Sololá	701	Sololá	3	Barraneche	3	Marzo	2023-03-30T00:00:00	2024-11-06T01:00:00	6	Velocidad del viento	4.8
16910	7	Sololá	701	Sololá	3	Barraneche	3	Marzo	2023-03-30T00:00:00	2024-11-06T01:00:00	7	Dirección del viento	4.83
16911	7	Sololá	701	Sololá	3	Barraneche	3	Marzo	2023-03-30T00:00:00	2024-11-06T01:00:00	1	Precipitación	0
16912	7	Sololá	701	Sololá	3	Barraneche	3	Marzo	2023-03-30T00:00:00	2024-11-06T01:00:00	8	Radiación solar	0
16913	7	Sololá	701	Sololá	3	Barraneche	3	Marzo	2023-03-30T00:00:00	2024-11-06T02:00:00	2	Temperatura media	7.6
16914	7	Sololá	701	Sololá	3	Barraneche	3	Marzo	2023-03-30T00:00:00	2024-11-06T02:00:00	4	Temperatura máxima	9.2
16915	7	Sololá	701	Sololá	3	Barraneche	3	Marzo	2023-03-30T00:00:00	2024-11-06T02:00:00	3	Temperatura mínima	7.6
16916	7	Sololá	701	Sololá	3	Barraneche	3	Marzo	2023-03-30T00:00:00	2024-11-06T02:00:00	5	Humedad	60
16917	7	Sololá	701	Sololá	3	Barraneche	3	Marzo	2023-03-30T00:00:00	2024-11-06T02:00:00	6	Velocidad del viento	4.8
16918	7	Sololá	701	Sololá	3	Barraneche	3	Marzo	2023-03-30T00:00:00	2024-11-06T02:00:00	7	Dirección del viento	4.83
16919	7	Sololá	701	Sololá	3	Barraneche	3	Marzo	2023-03-30T00:00:00	2024-11-06T02:00:00	1	Precipitación	0
16920	7	Sololá	701	Sololá	3	Barraneche	3	Marzo	2023-03-30T00:00:00	2024-11-06T02:00:00	8	Radiación solar	0
16921	7	Sololá	701	Sololá	3	Barraneche	3	Marzo	2023-03-30T00:00:00	2024-11-06T03:00:00	2	Temperatura media	7.5
16922	7	Sololá	701	Sololá	3	Barraneche	3	Marzo	2023-03-30T00:00:00	2024-11-06T03:00:00	4	Temperatura máxima	7.7
16923	7	Sololá	701	Sololá	3	Barraneche	3	Marzo	2023-03-30T00:00:00	2024-11-06T03:00:00	3	Temperatura mínima	7.2
16924	7	Sololá	701	Sololá	3	Barraneche	3	Marzo	2023-03-30T00:00:00	2024-11-06T03:00:00	5	Humedad	57
16925	7	Sololá	701	Sololá	3	Barraneche	3	Marzo	2023-03-30T00:00:00	2024-11-06T03:00:00	6	Velocidad del viento	9.7
16926	7	Sololá	701	Sololá	3	Barraneche	3	Marzo	2023-03-30T00:00:00	2024-11-06T03:00:00	7	Dirección del viento	9.66
16927	7	Sololá	701	Sololá	3	Barraneche	3	Marzo	2023-03-30T00:00:00	2024-11-06T03:00:00	1	Precipitación	0
16928	7	Sololá	701	Sololá	3	Barraneche	3	Marzo	2023-03-30T00:00:00	2024-11-06T03:00:00	8	Radiación solar	0
16929	7	Sololá	701	Sololá	3	Barraneche	3	Marzo	2023-03-30T00:00:00	2024-11-06T04:00:00	2	Temperatura media	7.1
16930	7	Sololá	701	Sololá	3	Barraneche	3	Marzo	2023-03-30T00:00:00	2024-11-06T04:00:00	4	Temperatura máxima	8
16931	7	Sololá	701	Sololá	3	Barraneche	3	Marzo	2023-03-30T00:00:00	2024-11-06T04:00:00	3	Temperatura mínima	7
16932	7	Sololá	701	Sololá	3	Barraneche	3	Marzo	2023-03-30T00:00:00	2024-11-06T04:00:00	5	Humedad	51
16933	7	Sololá	701	Sololá	3	Barraneche	3	Marzo	2023-03-30T00:00:00	2024-11-06T04:00:00	6	Velocidad del viento	12.9
16934	7	Sololá	701	Sololá	3	Barraneche	3	Marzo	2023-03-30T00:00:00	2024-11-06T04:00:00	7	Dirección del viento	12.87
16935	7	Sololá	701	Sololá	3	Barraneche	3	Marzo	2023-03-30T00:00:00	2024-11-06T04:00:00	1	Precipitación	0
16936	7	Sololá	701	Sololá	3	Barraneche	3	Marzo	2023-03-30T00:00:00	2024-11-06T04:00:00	8	Radiación solar	0
16937	7	Sololá	701	Sololá	3	Barraneche	3	Marzo	2023-03-30T00:00:00	2024-11-06T05:00:00	2	Temperatura media	6
16938	7	Sololá	701	Sololá	3	Barraneche	3	Marzo	2023-03-30T00:00:00	2024-11-06T05:00:00	4	Temperatura máxima	7.3
16939	7	Sololá	701	Sololá	3	Barraneche	3	Marzo	2023-03-30T00:00:00	2024-11-06T05:00:00	3	Temperatura mínima	6
16940	7	Sololá	701	Sololá	3	Barraneche	3	Marzo	2023-03-30T00:00:00	2024-11-06T05:00:00	5	Humedad	52
16941	7	Sololá	701	Sololá	3	Barraneche	3	Marzo	2023-03-30T00:00:00	2024-11-06T05:00:00	6	Velocidad del viento	8
16942	7	Sololá	701	Sololá	3	Barraneche	3	Marzo	2023-03-30T00:00:00	2024-11-06T05:00:00	7	Dirección del viento	8.05
16943	7	Sololá	701	Sololá	3	Barraneche	3	Marzo	2023-03-30T00:00:00	2024-11-06T05:00:00	1	Precipitación	0
16944	7	Sololá	701	Sololá	3	Barraneche	3	Marzo	2023-03-30T00:00:00	2024-11-06T05:00:00	8	Radiación solar	0
16945	7	Sololá	701	Sololá	3	Barraneche	3	Marzo	2023-03-30T00:00:00	2024-11-06T06:00:00	2	Temperatura media	6.9
16946	7	Sololá	701	Sololá	3	Barraneche	3	Marzo	2023-03-30T00:00:00	2024-11-06T06:00:00	4	Temperatura máxima	7.1
16947	7	Sololá	701	Sololá	3	Barraneche	3	Marzo	2023-03-30T00:00:00	2024-11-06T06:00:00	3	Temperatura mínima	5.8
16948	7	Sololá	701	Sololá	3	Barraneche	3	Marzo	2023-03-30T00:00:00	2024-11-06T06:00:00	5	Humedad	51
16949	7	Sololá	701	Sololá	3	Barraneche	3	Marzo	2023-03-30T00:00:00	2024-11-06T06:00:00	6	Velocidad del viento	4.8
16950	7	Sololá	701	Sololá	3	Barraneche	3	Marzo	2023-03-30T00:00:00	2024-11-06T06:00:00	7	Dirección del viento	4.83
16951	7	Sololá	701	Sololá	3	Barraneche	3	Marzo	2023-03-30T00:00:00	2024-11-06T06:00:00	1	Precipitación	0
16952	7	Sololá	701	Sololá	3	Barraneche	3	Marzo	2023-03-30T00:00:00	2024-11-06T06:00:00	8	Radiación solar	0
16953	7	Sololá	701	Sololá	3	Barraneche	3	Marzo	2023-03-30T00:00:00	2024-11-06T07:00:00	2	Temperatura media	9.2
16954	7	Sololá	701	Sololá	3	Barraneche	3	Marzo	2023-03-30T00:00:00	2024-11-06T07:00:00	4	Temperatura máxima	9.2
16955	7	Sololá	701	Sololá	3	Barraneche	3	Marzo	2023-03-30T00:00:00	2024-11-06T07:00:00	3	Temperatura mínima	6.7
16956	7	Sololá	701	Sololá	3	Barraneche	3	Marzo	2023-03-30T00:00:00	2024-11-06T07:00:00	5	Humedad	46
16957	7	Sololá	701	Sololá	3	Barraneche	3	Marzo	2023-03-30T00:00:00	2024-11-06T07:00:00	6	Velocidad del viento	4.8
16958	7	Sololá	701	Sololá	3	Barraneche	3	Marzo	2023-03-30T00:00:00	2024-11-06T07:00:00	7	Dirección del viento	4.83
16959	7	Sololá	701	Sololá	3	Barraneche	3	Marzo	2023-03-30T00:00:00	2024-11-06T07:00:00	1	Precipitación	0
16960	7	Sololá	701	Sololá	3	Barraneche	3	Marzo	2023-03-30T00:00:00	2024-11-06T07:00:00	8	Radiación solar	34
16961	7	Sololá	701	Sololá	3	Barraneche	3	Marzo	2023-03-30T00:00:00	2024-11-06T08:00:00	2	Temperatura media	14.9
16962	7	Sololá	701	Sololá	3	Barraneche	3	Marzo	2023-03-30T00:00:00	2024-11-06T08:00:00	4	Temperatura máxima	14.9
16963	7	Sololá	701	Sololá	3	Barraneche	3	Marzo	2023-03-30T00:00:00	2024-11-06T08:00:00	3	Temperatura mínima	9.2
16964	7	Sololá	701	Sololá	3	Barraneche	3	Marzo	2023-03-30T00:00:00	2024-11-06T08:00:00	5	Humedad	19
16965	7	Sololá	701	Sololá	3	Barraneche	3	Marzo	2023-03-30T00:00:00	2024-11-06T08:00:00	6	Velocidad del viento	6.4
16966	7	Sololá	701	Sololá	3	Barraneche	3	Marzo	2023-03-30T00:00:00	2024-11-06T08:00:00	7	Dirección del viento	6.44
16967	7	Sololá	701	Sololá	3	Barraneche	3	Marzo	2023-03-30T00:00:00	2024-11-06T08:00:00	1	Precipitación	0
16968	7	Sololá	701	Sololá	3	Barraneche	3	Marzo	2023-03-30T00:00:00	2024-11-06T08:00:00	8	Radiación solar	334
16969	7	Sololá	701	Sololá	3	Barraneche	3	Marzo	2023-03-30T00:00:00	2024-11-06T09:00:00	2	Temperatura media	15.9
16970	7	Sololá	701	Sololá	3	Barraneche	3	Marzo	2023-03-30T00:00:00	2024-11-06T09:00:00	4	Temperatura máxima	16.4
16971	7	Sololá	701	Sololá	3	Barraneche	3	Marzo	2023-03-30T00:00:00	2024-11-06T09:00:00	3	Temperatura mínima	14.8
16972	7	Sololá	701	Sololá	3	Barraneche	3	Marzo	2023-03-30T00:00:00	2024-11-06T09:00:00	5	Humedad	41
16973	7	Sololá	701	Sololá	3	Barraneche	3	Marzo	2023-03-30T00:00:00	2024-11-06T09:00:00	6	Velocidad del viento	11.3
16974	7	Sololá	701	Sololá	3	Barraneche	3	Marzo	2023-03-30T00:00:00	2024-11-06T09:00:00	7	Dirección del viento	11.27
16975	7	Sololá	701	Sololá	3	Barraneche	3	Marzo	2023-03-30T00:00:00	2024-11-06T09:00:00	1	Precipitación	0
16976	7	Sololá	701	Sololá	3	Barraneche	3	Marzo	2023-03-30T00:00:00	2024-11-06T09:00:00	8	Radiación solar	599
16977	7	Sololá	701	Sololá	3	Barraneche	3	Marzo	2023-03-30T00:00:00	2024-11-06T10:00:00	2	Temperatura media	16.4
16978	7	Sololá	701	Sololá	3	Barraneche	3	Marzo	2023-03-30T00:00:00	2024-11-06T10:00:00	4	Temperatura máxima	16.7
16979	7	Sololá	701	Sololá	3	Barraneche	3	Marzo	2023-03-30T00:00:00	2024-11-06T10:00:00	3	Temperatura mínima	15.8
16980	7	Sololá	701	Sololá	3	Barraneche	3	Marzo	2023-03-30T00:00:00	2024-11-06T10:00:00	5	Humedad	32
16981	7	Sololá	701	Sololá	3	Barraneche	3	Marzo	2023-03-30T00:00:00	2024-11-06T10:00:00	6	Velocidad del viento	17.7
16982	7	Sololá	701	Sololá	3	Barraneche	3	Marzo	2023-03-30T00:00:00	2024-11-06T10:00:00	7	Dirección del viento	17.7
16983	7	Sololá	701	Sololá	3	Barraneche	3	Marzo	2023-03-30T00:00:00	2024-11-06T10:00:00	1	Precipitación	0
16984	7	Sololá	701	Sololá	3	Barraneche	3	Marzo	2023-03-30T00:00:00	2024-11-06T10:00:00	8	Radiación solar	813
16985	7	Sololá	701	Sololá	3	Barraneche	3	Marzo	2023-03-30T00:00:00	2024-11-06T11:00:00	2	Temperatura media	17.2
16986	7	Sololá	701	Sololá	3	Barraneche	3	Marzo	2023-03-30T00:00:00	2024-11-06T11:00:00	4	Temperatura máxima	17.3
16987	7	Sololá	701	Sololá	3	Barraneche	3	Marzo	2023-03-30T00:00:00	2024-11-06T11:00:00	3	Temperatura mínima	15.8
16988	7	Sololá	701	Sololá	3	Barraneche	3	Marzo	2023-03-30T00:00:00	2024-11-06T11:00:00	5	Humedad	39
16989	7	Sololá	701	Sololá	3	Barraneche	3	Marzo	2023-03-30T00:00:00	2024-11-06T11:00:00	6	Velocidad del viento	19.3
16990	7	Sololá	701	Sololá	3	Barraneche	3	Marzo	2023-03-30T00:00:00	2024-11-06T11:00:00	7	Dirección del viento	19.31
16991	7	Sololá	701	Sololá	3	Barraneche	3	Marzo	2023-03-30T00:00:00	2024-11-06T11:00:00	1	Precipitación	0
16992	7	Sololá	701	Sololá	3	Barraneche	3	Marzo	2023-03-30T00:00:00	2024-11-06T11:00:00	8	Radiación solar	969
16993	7	Sololá	701	Sololá	3	Barraneche	3	Marzo	2023-03-30T00:00:00	2024-11-06T12:00:00	2	Temperatura media	17.9
16994	7	Sololá	701	Sololá	3	Barraneche	3	Marzo	2023-03-30T00:00:00	2024-11-06T12:00:00	4	Temperatura máxima	18.3
16995	7	Sololá	701	Sololá	3	Barraneche	3	Marzo	2023-03-30T00:00:00	2024-11-06T12:00:00	3	Temperatura mínima	16.8
16996	7	Sololá	701	Sololá	3	Barraneche	3	Marzo	2023-03-30T00:00:00	2024-11-06T12:00:00	5	Humedad	38
16997	7	Sololá	701	Sololá	3	Barraneche	3	Marzo	2023-03-30T00:00:00	2024-11-06T12:00:00	6	Velocidad del viento	17.7
16998	7	Sololá	701	Sololá	3	Barraneche	3	Marzo	2023-03-30T00:00:00	2024-11-06T12:00:00	7	Dirección del viento	17.7
16999	7	Sololá	701	Sololá	3	Barraneche	3	Marzo	2023-03-30T00:00:00	2024-11-06T12:00:00	1	Precipitación	0
17000	7	Sololá	701	Sololá	3	Barraneche	3	Marzo	2023-03-30T00:00:00	2024-11-06T12:00:00	8	Radiación solar	1055
17001	7	Sololá	701	Sololá	3	Barraneche	3	Marzo	2023-03-30T00:00:00	2024-11-06T13:00:00	2	Temperatura media	18.5
17002	7	Sololá	701	Sololá	3	Barraneche	3	Marzo	2023-03-30T00:00:00	2024-11-06T13:00:00	4	Temperatura máxima	18.5
17003	7	Sololá	701	Sololá	3	Barraneche	3	Marzo	2023-03-30T00:00:00	2024-11-06T13:00:00	3	Temperatura mínima	17.7
17004	7	Sololá	701	Sololá	3	Barraneche	3	Marzo	2023-03-30T00:00:00	2024-11-06T13:00:00	5	Humedad	37
17005	7	Sololá	701	Sololá	3	Barraneche	3	Marzo	2023-03-30T00:00:00	2024-11-06T13:00:00	6	Velocidad del viento	14.5
17006	7	Sololá	701	Sololá	3	Barraneche	3	Marzo	2023-03-30T00:00:00	2024-11-06T13:00:00	7	Dirección del viento	14.48
17007	7	Sololá	701	Sololá	3	Barraneche	3	Marzo	2023-03-30T00:00:00	2024-11-06T13:00:00	1	Precipitación	0
17008	7	Sololá	701	Sololá	3	Barraneche	3	Marzo	2023-03-30T00:00:00	2024-11-06T13:00:00	8	Radiación solar	1058
17009	7	Sololá	701	Sololá	3	Barraneche	3	Marzo	2023-03-30T00:00:00	2024-11-06T14:00:00	2	Temperatura media	19.2
17010	7	Sololá	701	Sololá	3	Barraneche	3	Marzo	2023-03-30T00:00:00	2024-11-06T14:00:00	4	Temperatura máxima	19.3
17011	7	Sololá	701	Sololá	3	Barraneche	3	Marzo	2023-03-30T00:00:00	2024-11-06T14:00:00	3	Temperatura mínima	18.6
17012	7	Sololá	701	Sololá	3	Barraneche	3	Marzo	2023-03-30T00:00:00	2024-11-06T14:00:00	5	Humedad	33
17013	7	Sololá	701	Sololá	3	Barraneche	3	Marzo	2023-03-30T00:00:00	2024-11-06T14:00:00	6	Velocidad del viento	12.9
17014	7	Sololá	701	Sololá	3	Barraneche	3	Marzo	2023-03-30T00:00:00	2024-11-06T14:00:00	7	Dirección del viento	12.87
17015	7	Sololá	701	Sololá	3	Barraneche	3	Marzo	2023-03-30T00:00:00	2024-11-06T14:00:00	1	Precipitación	0
17016	7	Sololá	701	Sololá	3	Barraneche	3	Marzo	2023-03-30T00:00:00	2024-11-06T14:00:00	8	Radiación solar	981
17017	7	Sololá	701	Sololá	3	Barraneche	3	Marzo	2023-03-30T00:00:00	2024-11-06T15:00:00	2	Temperatura media	19
17018	7	Sololá	701	Sololá	3	Barraneche	3	Marzo	2023-03-30T00:00:00	2024-11-06T15:00:00	4	Temperatura máxima	19.6
17019	7	Sololá	701	Sololá	3	Barraneche	3	Marzo	2023-03-30T00:00:00	2024-11-06T15:00:00	3	Temperatura mínima	18.9
17020	7	Sololá	701	Sololá	3	Barraneche	3	Marzo	2023-03-30T00:00:00	2024-11-06T15:00:00	5	Humedad	35
17021	7	Sololá	701	Sololá	3	Barraneche	3	Marzo	2023-03-30T00:00:00	2024-11-06T15:00:00	6	Velocidad del viento	12.9
17022	7	Sololá	701	Sololá	3	Barraneche	3	Marzo	2023-03-30T00:00:00	2024-11-06T15:00:00	7	Dirección del viento	12.87
17023	7	Sololá	701	Sololá	3	Barraneche	3	Marzo	2023-03-30T00:00:00	2024-11-06T15:00:00	1	Precipitación	0
17024	7	Sololá	701	Sololá	3	Barraneche	3	Marzo	2023-03-30T00:00:00	2024-11-06T15:00:00	8	Radiación solar	838
17025	7	Sololá	701	Sololá	3	Barraneche	3	Marzo	2023-03-30T00:00:00	2024-11-06T16:00:00	2	Temperatura media	18.8
17026	7	Sololá	701	Sololá	3	Barraneche	3	Marzo	2023-03-30T00:00:00	2024-11-06T16:00:00	4	Temperatura máxima	19.4
17027	7	Sololá	701	Sololá	3	Barraneche	3	Marzo	2023-03-30T00:00:00	2024-11-06T16:00:00	3	Temperatura mínima	18.8
17028	7	Sololá	701	Sololá	3	Barraneche	3	Marzo	2023-03-30T00:00:00	2024-11-06T16:00:00	5	Humedad	36
17029	7	Sololá	701	Sololá	3	Barraneche	3	Marzo	2023-03-30T00:00:00	2024-11-06T16:00:00	6	Velocidad del viento	12.9
17030	7	Sololá	701	Sololá	3	Barraneche	3	Marzo	2023-03-30T00:00:00	2024-11-06T16:00:00	7	Dirección del viento	12.87
17031	7	Sololá	701	Sololá	3	Barraneche	3	Marzo	2023-03-30T00:00:00	2024-11-06T16:00:00	1	Precipitación	0
17032	7	Sololá	701	Sololá	3	Barraneche	3	Marzo	2023-03-30T00:00:00	2024-11-06T16:00:00	8	Radiación solar	507
17033	7	Sololá	701	Sololá	3	Barraneche	3	Marzo	2023-03-30T00:00:00	2024-11-06T17:00:00	2	Temperatura media	18.3
17034	7	Sololá	701	Sololá	3	Barraneche	3	Marzo	2023-03-30T00:00:00	2024-11-06T17:00:00	4	Temperatura máxima	18.9
17035	7	Sololá	701	Sololá	3	Barraneche	3	Marzo	2023-03-30T00:00:00	2024-11-06T17:00:00	3	Temperatura mínima	17.8
17036	7	Sololá	701	Sololá	3	Barraneche	3	Marzo	2023-03-30T00:00:00	2024-11-06T17:00:00	5	Humedad	35
17037	7	Sololá	701	Sololá	3	Barraneche	3	Marzo	2023-03-30T00:00:00	2024-11-06T17:00:00	6	Velocidad del viento	12.9
17038	7	Sololá	701	Sololá	3	Barraneche	3	Marzo	2023-03-30T00:00:00	2024-11-06T17:00:00	7	Dirección del viento	12.87
17039	7	Sololá	701	Sololá	3	Barraneche	3	Marzo	2023-03-30T00:00:00	2024-11-06T17:00:00	1	Precipitación	0
17040	7	Sololá	701	Sololá	3	Barraneche	3	Marzo	2023-03-30T00:00:00	2024-11-06T17:00:00	8	Radiación solar	292
17041	7	Sololá	701	Sololá	3	Barraneche	3	Marzo	2023-03-30T00:00:00	2024-11-06T18:00:00	2	Temperatura media	16.2
17042	7	Sololá	701	Sololá	3	Barraneche	3	Marzo	2023-03-30T00:00:00	2024-11-06T18:00:00	4	Temperatura máxima	18.3
17043	7	Sololá	701	Sololá	3	Barraneche	3	Marzo	2023-03-30T00:00:00	2024-11-06T18:00:00	3	Temperatura mínima	16.2
17044	7	Sololá	701	Sololá	3	Barraneche	3	Marzo	2023-03-30T00:00:00	2024-11-06T18:00:00	5	Humedad	48
17045	7	Sololá	701	Sololá	3	Barraneche	3	Marzo	2023-03-30T00:00:00	2024-11-06T18:00:00	6	Velocidad del viento	11.3
17046	7	Sololá	701	Sololá	3	Barraneche	3	Marzo	2023-03-30T00:00:00	2024-11-06T18:00:00	7	Dirección del viento	11.27
17047	7	Sololá	701	Sololá	3	Barraneche	3	Marzo	2023-03-30T00:00:00	2024-11-06T18:00:00	1	Precipitación	0
17048	7	Sololá	701	Sololá	3	Barraneche	3	Marzo	2023-03-30T00:00:00	2024-11-06T18:00:00	8	Radiación solar	101
17049	7	Sololá	701	Sololá	3	Barraneche	3	Marzo	2023-03-30T00:00:00	2024-11-06T19:00:00	2	Temperatura media	14.7
17050	7	Sololá	701	Sololá	3	Barraneche	3	Marzo	2023-03-30T00:00:00	2024-11-06T19:00:00	4	Temperatura máxima	16.2
17051	7	Sololá	701	Sololá	3	Barraneche	3	Marzo	2023-03-30T00:00:00	2024-11-06T19:00:00	3	Temperatura mínima	14.7
17052	7	Sololá	701	Sololá	3	Barraneche	3	Marzo	2023-03-30T00:00:00	2024-11-06T19:00:00	5	Humedad	56
17053	7	Sololá	701	Sololá	3	Barraneche	3	Marzo	2023-03-30T00:00:00	2024-11-06T19:00:00	6	Velocidad del viento	8
17054	7	Sololá	701	Sololá	3	Barraneche	3	Marzo	2023-03-30T00:00:00	2024-11-06T19:00:00	7	Dirección del viento	8.05
17055	7	Sololá	701	Sololá	3	Barraneche	3	Marzo	2023-03-30T00:00:00	2024-11-06T19:00:00	1	Precipitación	0
17056	7	Sololá	701	Sololá	3	Barraneche	3	Marzo	2023-03-30T00:00:00	2024-11-06T19:00:00	8	Radiación solar	0
17057	7	Sololá	701	Sololá	3	Barraneche	3	Marzo	2023-03-30T00:00:00	2024-11-06T20:00:00	2	Temperatura media	14
17058	7	Sololá	701	Sololá	3	Barraneche	3	Marzo	2023-03-30T00:00:00	2024-11-06T20:00:00	4	Temperatura máxima	14.7
17059	7	Sololá	701	Sololá	3	Barraneche	3	Marzo	2023-03-30T00:00:00	2024-11-06T20:00:00	3	Temperatura mínima	14
17060	7	Sololá	701	Sololá	3	Barraneche	3	Marzo	2023-03-30T00:00:00	2024-11-06T20:00:00	5	Humedad	60
17061	7	Sololá	701	Sololá	3	Barraneche	3	Marzo	2023-03-30T00:00:00	2024-11-06T20:00:00	6	Velocidad del viento	6.4
17062	7	Sololá	701	Sololá	3	Barraneche	3	Marzo	2023-03-30T00:00:00	2024-11-06T20:00:00	7	Dirección del viento	6.44
17063	7	Sololá	701	Sololá	3	Barraneche	3	Marzo	2023-03-30T00:00:00	2024-11-06T20:00:00	1	Precipitación	0
17064	7	Sololá	701	Sololá	3	Barraneche	3	Marzo	2023-03-30T00:00:00	2024-11-06T20:00:00	8	Radiación solar	0
17065	7	Sololá	701	Sololá	3	Barraneche	3	Marzo	2023-03-30T00:00:00	2024-11-06T21:00:00	2	Temperatura media	13.3
17066	7	Sololá	701	Sololá	3	Barraneche	3	Marzo	2023-03-30T00:00:00	2024-11-06T21:00:00	4	Temperatura máxima	14
17067	7	Sololá	701	Sololá	3	Barraneche	3	Marzo	2023-03-30T00:00:00	2024-11-06T21:00:00	3	Temperatura mínima	13.3
17068	7	Sololá	701	Sololá	3	Barraneche	3	Marzo	2023-03-30T00:00:00	2024-11-06T21:00:00	5	Humedad	60
17069	7	Sololá	701	Sololá	3	Barraneche	3	Marzo	2023-03-30T00:00:00	2024-11-06T21:00:00	6	Velocidad del viento	8
17070	7	Sololá	701	Sololá	3	Barraneche	3	Marzo	2023-03-30T00:00:00	2024-11-06T21:00:00	7	Dirección del viento	8.05
17071	7	Sololá	701	Sololá	3	Barraneche	3	Marzo	2023-03-30T00:00:00	2024-11-06T21:00:00	1	Precipitación	0
17072	7	Sololá	701	Sololá	3	Barraneche	3	Marzo	2023-03-30T00:00:00	2024-11-06T21:00:00	8	Radiación solar	0
17073	7	Sololá	701	Sololá	3	Barraneche	3	Marzo	2023-03-30T00:00:00	2024-11-06T22:00:00	2	Temperatura media	13
17074	7	Sololá	701	Sololá	3	Barraneche	3	Marzo	2023-03-30T00:00:00	2024-11-06T22:00:00	4	Temperatura máxima	13.3
17075	7	Sololá	701	Sololá	3	Barraneche	3	Marzo	2023-03-30T00:00:00	2024-11-06T22:00:00	3	Temperatura mínima	12.9
17076	7	Sololá	701	Sololá	3	Barraneche	3	Marzo	2023-03-30T00:00:00	2024-11-06T22:00:00	5	Humedad	56
17077	7	Sololá	701	Sololá	3	Barraneche	3	Marzo	2023-03-30T00:00:00	2024-11-06T22:00:00	6	Velocidad del viento	8
17078	7	Sololá	701	Sololá	3	Barraneche	3	Marzo	2023-03-30T00:00:00	2024-11-06T22:00:00	7	Dirección del viento	8.05
17079	7	Sololá	701	Sololá	3	Barraneche	3	Marzo	2023-03-30T00:00:00	2024-11-06T22:00:00	1	Precipitación	0
17080	7	Sololá	701	Sololá	3	Barraneche	3	Marzo	2023-03-30T00:00:00	2024-11-06T22:00:00	8	Radiación solar	0
17081	7	Sololá	701	Sololá	3	Barraneche	3	Marzo	2023-03-30T00:00:00	2024-11-06T23:00:00	2	Temperatura media	12.3
17082	7	Sololá	701	Sololá	3	Barraneche	3	Marzo	2023-03-30T00:00:00	2024-11-06T23:00:00	4	Temperatura máxima	13.1
17083	7	Sololá	701	Sololá	3	Barraneche	3	Marzo	2023-03-30T00:00:00	2024-11-06T23:00:00	3	Temperatura mínima	12.2
17084	7	Sololá	701	Sololá	3	Barraneche	3	Marzo	2023-03-30T00:00:00	2024-11-06T23:00:00	5	Humedad	59
17085	7	Sololá	701	Sololá	3	Barraneche	3	Marzo	2023-03-30T00:00:00	2024-11-06T23:00:00	6	Velocidad del viento	8
17086	7	Sololá	701	Sololá	3	Barraneche	3	Marzo	2023-03-30T00:00:00	2024-11-06T23:00:00	7	Dirección del viento	8.05
17087	7	Sololá	701	Sololá	3	Barraneche	3	Marzo	2023-03-30T00:00:00	2024-11-06T23:00:00	1	Precipitación	0
17088	7	Sololá	701	Sololá	3	Barraneche	3	Marzo	2023-03-30T00:00:00	2024-11-06T23:00:00	8	Radiación solar	0
17089	7	Sololá	701	Sololá	3	Barraneche	3	Marzo	2023-03-31T00:00:00	2024-11-06T00:00:00	2	Temperatura media	9.7
17090	7	Sololá	701	Sololá	3	Barraneche	3	Marzo	2023-03-31T00:00:00	2024-11-06T00:00:00	4	Temperatura máxima	12.4
17091	7	Sololá	701	Sololá	3	Barraneche	3	Marzo	2023-03-31T00:00:00	2024-11-06T00:00:00	3	Temperatura mínima	9.7
17092	7	Sololá	701	Sololá	3	Barraneche	3	Marzo	2023-03-31T00:00:00	2024-11-06T00:00:00	5	Humedad	63
17093	7	Sololá	701	Sololá	3	Barraneche	3	Marzo	2023-03-31T00:00:00	2024-11-06T00:00:00	6	Velocidad del viento	3.2
17094	7	Sololá	701	Sololá	3	Barraneche	3	Marzo	2023-03-31T00:00:00	2024-11-06T00:00:00	7	Dirección del viento	3.22
17095	7	Sololá	701	Sololá	3	Barraneche	3	Marzo	2023-03-31T00:00:00	2024-11-06T00:00:00	1	Precipitación	0
17096	7	Sololá	701	Sololá	3	Barraneche	3	Marzo	2023-03-31T00:00:00	2024-11-06T00:00:00	8	Radiación solar	0
17097	7	Sololá	701	Sololá	3	Barraneche	3	Marzo	2023-03-31T00:00:00	2024-11-06T01:00:00	2	Temperatura media	10.3
17098	7	Sololá	701	Sololá	3	Barraneche	3	Marzo	2023-03-31T00:00:00	2024-11-06T01:00:00	4	Temperatura máxima	10.4
17099	7	Sololá	701	Sololá	3	Barraneche	3	Marzo	2023-03-31T00:00:00	2024-11-06T01:00:00	3	Temperatura mínima	9.4
17100	7	Sololá	701	Sololá	3	Barraneche	3	Marzo	2023-03-31T00:00:00	2024-11-06T01:00:00	5	Humedad	57
17101	7	Sololá	701	Sololá	3	Barraneche	3	Marzo	2023-03-31T00:00:00	2024-11-06T01:00:00	6	Velocidad del viento	9.7
17102	7	Sololá	701	Sololá	3	Barraneche	3	Marzo	2023-03-31T00:00:00	2024-11-06T01:00:00	7	Dirección del viento	9.66
17103	7	Sololá	701	Sololá	3	Barraneche	3	Marzo	2023-03-31T00:00:00	2024-11-06T01:00:00	1	Precipitación	0
17104	7	Sololá	701	Sololá	3	Barraneche	3	Marzo	2023-03-31T00:00:00	2024-11-06T01:00:00	8	Radiación solar	0
17105	7	Sololá	701	Sololá	3	Barraneche	3	Marzo	2023-03-31T00:00:00	2024-11-06T02:00:00	2	Temperatura media	11
17106	7	Sololá	701	Sololá	3	Barraneche	3	Marzo	2023-03-31T00:00:00	2024-11-06T02:00:00	4	Temperatura máxima	11.1
17107	7	Sololá	701	Sololá	3	Barraneche	3	Marzo	2023-03-31T00:00:00	2024-11-06T02:00:00	3	Temperatura mínima	10.3
17108	7	Sololá	701	Sololá	3	Barraneche	3	Marzo	2023-03-31T00:00:00	2024-11-06T02:00:00	5	Humedad	52
17109	7	Sololá	701	Sololá	3	Barraneche	3	Marzo	2023-03-31T00:00:00	2024-11-06T02:00:00	6	Velocidad del viento	12.9
17110	7	Sololá	701	Sololá	3	Barraneche	3	Marzo	2023-03-31T00:00:00	2024-11-06T02:00:00	7	Dirección del viento	12.87
17111	7	Sololá	701	Sololá	3	Barraneche	3	Marzo	2023-03-31T00:00:00	2024-11-06T02:00:00	1	Precipitación	0
17112	7	Sololá	701	Sololá	3	Barraneche	3	Marzo	2023-03-31T00:00:00	2024-11-06T02:00:00	8	Radiación solar	0
17113	7	Sololá	701	Sololá	3	Barraneche	3	Marzo	2023-03-31T00:00:00	2024-11-06T03:00:00	2	Temperatura media	10.1
17114	7	Sololá	701	Sololá	3	Barraneche	3	Marzo	2023-03-31T00:00:00	2024-11-06T03:00:00	4	Temperatura máxima	11.3
17115	7	Sololá	701	Sololá	3	Barraneche	3	Marzo	2023-03-31T00:00:00	2024-11-06T03:00:00	3	Temperatura mínima	10.1
17116	7	Sololá	701	Sololá	3	Barraneche	3	Marzo	2023-03-31T00:00:00	2024-11-06T03:00:00	5	Humedad	60
17117	7	Sololá	701	Sololá	3	Barraneche	3	Marzo	2023-03-31T00:00:00	2024-11-06T03:00:00	6	Velocidad del viento	9.7
17118	7	Sololá	701	Sololá	3	Barraneche	3	Marzo	2023-03-31T00:00:00	2024-11-06T03:00:00	7	Dirección del viento	9.66
17119	7	Sololá	701	Sololá	3	Barraneche	3	Marzo	2023-03-31T00:00:00	2024-11-06T03:00:00	1	Precipitación	0
17120	7	Sololá	701	Sololá	3	Barraneche	3	Marzo	2023-03-31T00:00:00	2024-11-06T03:00:00	8	Radiación solar	0
17121	7	Sololá	701	Sololá	3	Barraneche	3	Marzo	2023-03-31T00:00:00	2024-11-06T04:00:00	2	Temperatura media	10
17122	7	Sololá	701	Sololá	3	Barraneche	3	Marzo	2023-03-31T00:00:00	2024-11-06T04:00:00	4	Temperatura máxima	10.4
17123	7	Sololá	701	Sololá	3	Barraneche	3	Marzo	2023-03-31T00:00:00	2024-11-06T04:00:00	3	Temperatura mínima	9.8
17124	7	Sololá	701	Sololá	3	Barraneche	3	Marzo	2023-03-31T00:00:00	2024-11-06T04:00:00	5	Humedad	63
17125	7	Sololá	701	Sololá	3	Barraneche	3	Marzo	2023-03-31T00:00:00	2024-11-06T04:00:00	6	Velocidad del viento	9.7
17126	7	Sololá	701	Sololá	3	Barraneche	3	Marzo	2023-03-31T00:00:00	2024-11-06T04:00:00	7	Dirección del viento	9.66
17127	7	Sololá	701	Sololá	3	Barraneche	3	Marzo	2023-03-31T00:00:00	2024-11-06T04:00:00	1	Precipitación	0
17128	7	Sololá	701	Sololá	3	Barraneche	3	Marzo	2023-03-31T00:00:00	2024-11-06T04:00:00	8	Radiación solar	0
17129	7	Sololá	701	Sololá	3	Barraneche	3	Marzo	2023-03-31T00:00:00	2024-11-06T05:00:00	2	Temperatura media	9.9
17130	7	Sololá	701	Sololá	3	Barraneche	3	Marzo	2023-03-31T00:00:00	2024-11-06T05:00:00	4	Temperatura máxima	11
17131	7	Sololá	701	Sololá	3	Barraneche	3	Marzo	2023-03-31T00:00:00	2024-11-06T05:00:00	3	Temperatura mínima	9.9
17132	7	Sololá	701	Sololá	3	Barraneche	3	Marzo	2023-03-31T00:00:00	2024-11-06T05:00:00	5	Humedad	63
17133	7	Sololá	701	Sololá	3	Barraneche	3	Marzo	2023-03-31T00:00:00	2024-11-06T05:00:00	6	Velocidad del viento	4.8
17134	7	Sololá	701	Sololá	3	Barraneche	3	Marzo	2023-03-31T00:00:00	2024-11-06T05:00:00	7	Dirección del viento	4.83
17135	7	Sololá	701	Sololá	3	Barraneche	3	Marzo	2023-03-31T00:00:00	2024-11-06T05:00:00	1	Precipitación	0
17136	7	Sololá	701	Sololá	3	Barraneche	3	Marzo	2023-03-31T00:00:00	2024-11-06T05:00:00	8	Radiación solar	0
17137	7	Sololá	701	Sololá	3	Barraneche	3	Marzo	2023-03-31T00:00:00	2024-11-06T06:00:00	2	Temperatura media	9.1
17138	7	Sololá	701	Sololá	3	Barraneche	3	Marzo	2023-03-31T00:00:00	2024-11-06T06:00:00	4	Temperatura máxima	9.9
17139	7	Sololá	701	Sololá	3	Barraneche	3	Marzo	2023-03-31T00:00:00	2024-11-06T06:00:00	3	Temperatura mínima	9.1
17140	7	Sololá	701	Sololá	3	Barraneche	3	Marzo	2023-03-31T00:00:00	2024-11-06T06:00:00	5	Humedad	66
17141	7	Sololá	701	Sololá	3	Barraneche	3	Marzo	2023-03-31T00:00:00	2024-11-06T06:00:00	6	Velocidad del viento	4.8
17142	7	Sololá	701	Sololá	3	Barraneche	3	Marzo	2023-03-31T00:00:00	2024-11-06T06:00:00	7	Dirección del viento	4.83
17143	7	Sololá	701	Sololá	3	Barraneche	3	Marzo	2023-03-31T00:00:00	2024-11-06T06:00:00	1	Precipitación	0
17144	7	Sololá	701	Sololá	3	Barraneche	3	Marzo	2023-03-31T00:00:00	2024-11-06T06:00:00	8	Radiación solar	0
17145	7	Sololá	701	Sololá	3	Barraneche	3	Marzo	2023-03-31T00:00:00	2024-11-06T07:00:00	2	Temperatura media	11.5
17146	7	Sololá	701	Sololá	3	Barraneche	3	Marzo	2023-03-31T00:00:00	2024-11-06T07:00:00	4	Temperatura máxima	11.5
17147	7	Sololá	701	Sololá	3	Barraneche	3	Marzo	2023-03-31T00:00:00	2024-11-06T07:00:00	3	Temperatura mínima	9.1
17148	7	Sololá	701	Sololá	3	Barraneche	3	Marzo	2023-03-31T00:00:00	2024-11-06T07:00:00	5	Humedad	62
17149	7	Sololá	701	Sololá	3	Barraneche	3	Marzo	2023-03-31T00:00:00	2024-11-06T07:00:00	6	Velocidad del viento	3.2
17150	7	Sololá	701	Sololá	3	Barraneche	3	Marzo	2023-03-31T00:00:00	2024-11-06T07:00:00	7	Dirección del viento	3.22
17151	7	Sololá	701	Sololá	3	Barraneche	3	Marzo	2023-03-31T00:00:00	2024-11-06T07:00:00	1	Precipitación	0
17152	7	Sololá	701	Sololá	3	Barraneche	3	Marzo	2023-03-31T00:00:00	2024-11-06T07:00:00	8	Radiación solar	34
17153	7	Sololá	701	Sololá	3	Barraneche	3	Marzo	2023-03-31T00:00:00	2024-11-06T08:00:00	2	Temperatura media	14.8
17154	7	Sololá	701	Sololá	3	Barraneche	3	Marzo	2023-03-31T00:00:00	2024-11-06T08:00:00	4	Temperatura máxima	14.8
17155	7	Sololá	701	Sololá	3	Barraneche	3	Marzo	2023-03-31T00:00:00	2024-11-06T08:00:00	3	Temperatura mínima	11.6
17156	7	Sololá	701	Sololá	3	Barraneche	3	Marzo	2023-03-31T00:00:00	2024-11-06T08:00:00	5	Humedad	48
17157	7	Sololá	701	Sololá	3	Barraneche	3	Marzo	2023-03-31T00:00:00	2024-11-06T08:00:00	6	Velocidad del viento	6.4
17158	7	Sololá	701	Sololá	3	Barraneche	3	Marzo	2023-03-31T00:00:00	2024-11-06T08:00:00	7	Dirección del viento	6.44
17159	7	Sololá	701	Sololá	3	Barraneche	3	Marzo	2023-03-31T00:00:00	2024-11-06T08:00:00	1	Precipitación	0
17160	7	Sololá	701	Sololá	3	Barraneche	3	Marzo	2023-03-31T00:00:00	2024-11-06T08:00:00	8	Radiación solar	333
17161	7	Sololá	701	Sololá	3	Barraneche	3	Marzo	2023-03-31T00:00:00	2024-11-06T09:00:00	2	Temperatura media	16.8
17162	7	Sololá	701	Sololá	3	Barraneche	3	Marzo	2023-03-31T00:00:00	2024-11-06T09:00:00	4	Temperatura máxima	16.8
17163	7	Sololá	701	Sololá	3	Barraneche	3	Marzo	2023-03-31T00:00:00	2024-11-06T09:00:00	3	Temperatura mínima	14.8
17164	7	Sololá	701	Sololá	3	Barraneche	3	Marzo	2023-03-31T00:00:00	2024-11-06T09:00:00	5	Humedad	42
17165	7	Sololá	701	Sololá	3	Barraneche	3	Marzo	2023-03-31T00:00:00	2024-11-06T09:00:00	6	Velocidad del viento	9.7
17166	7	Sololá	701	Sololá	3	Barraneche	3	Marzo	2023-03-31T00:00:00	2024-11-06T09:00:00	7	Dirección del viento	9.66
17167	7	Sololá	701	Sololá	3	Barraneche	3	Marzo	2023-03-31T00:00:00	2024-11-06T09:00:00	1	Precipitación	0
17168	7	Sololá	701	Sololá	3	Barraneche	3	Marzo	2023-03-31T00:00:00	2024-11-06T09:00:00	8	Radiación solar	590
17169	7	Sololá	701	Sololá	3	Barraneche	3	Marzo	2023-03-31T00:00:00	2024-11-06T10:00:00	2	Temperatura media	18.6
17170	7	Sololá	701	Sololá	3	Barraneche	3	Marzo	2023-03-31T00:00:00	2024-11-06T10:00:00	4	Temperatura máxima	18.7
17171	7	Sololá	701	Sololá	3	Barraneche	3	Marzo	2023-03-31T00:00:00	2024-11-06T10:00:00	3	Temperatura mínima	16.8
17172	7	Sololá	701	Sololá	3	Barraneche	3	Marzo	2023-03-31T00:00:00	2024-11-06T10:00:00	5	Humedad	32
17173	7	Sololá	701	Sololá	3	Barraneche	3	Marzo	2023-03-31T00:00:00	2024-11-06T10:00:00	6	Velocidad del viento	9.7
17174	7	Sololá	701	Sololá	3	Barraneche	3	Marzo	2023-03-31T00:00:00	2024-11-06T10:00:00	7	Dirección del viento	9.66
17175	7	Sololá	701	Sololá	3	Barraneche	3	Marzo	2023-03-31T00:00:00	2024-11-06T10:00:00	1	Precipitación	0
17176	7	Sololá	701	Sololá	3	Barraneche	3	Marzo	2023-03-31T00:00:00	2024-11-06T10:00:00	8	Radiación solar	808
17177	7	Sololá	701	Sololá	3	Barraneche	3	Marzo	2023-03-31T00:00:00	2024-11-06T11:00:00	2	Temperatura media	18.8
17178	7	Sololá	701	Sololá	3	Barraneche	3	Marzo	2023-03-31T00:00:00	2024-11-06T11:00:00	4	Temperatura máxima	18.9
17179	7	Sololá	701	Sololá	3	Barraneche	3	Marzo	2023-03-31T00:00:00	2024-11-06T11:00:00	3	Temperatura mínima	17.8
17180	7	Sololá	701	Sololá	3	Barraneche	3	Marzo	2023-03-31T00:00:00	2024-11-06T11:00:00	5	Humedad	39
17181	7	Sololá	701	Sololá	3	Barraneche	3	Marzo	2023-03-31T00:00:00	2024-11-06T11:00:00	6	Velocidad del viento	19.3
17182	7	Sololá	701	Sololá	3	Barraneche	3	Marzo	2023-03-31T00:00:00	2024-11-06T11:00:00	7	Dirección del viento	19.31
17183	7	Sololá	701	Sololá	3	Barraneche	3	Marzo	2023-03-31T00:00:00	2024-11-06T11:00:00	1	Precipitación	0
17184	7	Sololá	701	Sololá	3	Barraneche	3	Marzo	2023-03-31T00:00:00	2024-11-06T11:00:00	8	Radiación solar	964
17185	7	Sololá	701	Sololá	3	Barraneche	3	Marzo	2023-03-31T00:00:00	2024-11-06T12:00:00	2	Temperatura media	19.7
17186	7	Sololá	701	Sololá	3	Barraneche	3	Marzo	2023-03-31T00:00:00	2024-11-06T12:00:00	4	Temperatura máxima	19.9
17187	7	Sololá	701	Sololá	3	Barraneche	3	Marzo	2023-03-31T00:00:00	2024-11-06T12:00:00	3	Temperatura mínima	18.8
17188	7	Sololá	701	Sololá	3	Barraneche	3	Marzo	2023-03-31T00:00:00	2024-11-06T12:00:00	5	Humedad	35
17189	7	Sololá	701	Sololá	3	Barraneche	3	Marzo	2023-03-31T00:00:00	2024-11-06T12:00:00	6	Velocidad del viento	20.9
17190	7	Sololá	701	Sololá	3	Barraneche	3	Marzo	2023-03-31T00:00:00	2024-11-06T12:00:00	7	Dirección del viento	20.92
17191	7	Sololá	701	Sololá	3	Barraneche	3	Marzo	2023-03-31T00:00:00	2024-11-06T12:00:00	1	Precipitación	0
17192	7	Sololá	701	Sololá	3	Barraneche	3	Marzo	2023-03-31T00:00:00	2024-11-06T12:00:00	8	Radiación solar	1043
17193	7	Sololá	701	Sololá	3	Barraneche	3	Marzo	2023-03-31T00:00:00	2024-11-06T13:00:00	2	Temperatura media	19.9
17194	7	Sololá	701	Sololá	3	Barraneche	3	Marzo	2023-03-31T00:00:00	2024-11-06T13:00:00	4	Temperatura máxima	20.7
17195	7	Sololá	701	Sololá	3	Barraneche	3	Marzo	2023-03-31T00:00:00	2024-11-06T13:00:00	3	Temperatura mínima	19.6
17196	7	Sololá	701	Sololá	3	Barraneche	3	Marzo	2023-03-31T00:00:00	2024-11-06T13:00:00	5	Humedad	44
17197	7	Sololá	701	Sololá	3	Barraneche	3	Marzo	2023-03-31T00:00:00	2024-11-06T13:00:00	6	Velocidad del viento	17.7
17198	7	Sololá	701	Sololá	3	Barraneche	3	Marzo	2023-03-31T00:00:00	2024-11-06T13:00:00	7	Dirección del viento	17.7
17199	7	Sololá	701	Sololá	3	Barraneche	3	Marzo	2023-03-31T00:00:00	2024-11-06T13:00:00	1	Precipitación	0
17200	7	Sololá	701	Sololá	3	Barraneche	3	Marzo	2023-03-31T00:00:00	2024-11-06T13:00:00	8	Radiación solar	1043
17201	7	Sololá	701	Sololá	3	Barraneche	3	Marzo	2023-03-31T00:00:00	2024-11-06T14:00:00	2	Temperatura media	19.7
17202	7	Sololá	701	Sololá	3	Barraneche	3	Marzo	2023-03-31T00:00:00	2024-11-06T14:00:00	4	Temperatura máxima	20.9
17203	7	Sololá	701	Sololá	3	Barraneche	3	Marzo	2023-03-31T00:00:00	2024-11-06T14:00:00	3	Temperatura mínima	19.7
17204	7	Sololá	701	Sololá	3	Barraneche	3	Marzo	2023-03-31T00:00:00	2024-11-06T14:00:00	5	Humedad	53
17205	7	Sololá	701	Sololá	3	Barraneche	3	Marzo	2023-03-31T00:00:00	2024-11-06T14:00:00	6	Velocidad del viento	16.1
17206	7	Sololá	701	Sololá	3	Barraneche	3	Marzo	2023-03-31T00:00:00	2024-11-06T14:00:00	7	Dirección del viento	16.09
17207	7	Sololá	701	Sololá	3	Barraneche	3	Marzo	2023-03-31T00:00:00	2024-11-06T14:00:00	1	Precipitación	0
17208	7	Sololá	701	Sololá	3	Barraneche	3	Marzo	2023-03-31T00:00:00	2024-11-06T14:00:00	8	Radiación solar	973
17209	7	Sololá	701	Sololá	3	Barraneche	3	Marzo	2023-03-31T00:00:00	2024-11-06T15:00:00	2	Temperatura media	17.7
17210	7	Sololá	701	Sololá	3	Barraneche	3	Marzo	2023-03-31T00:00:00	2024-11-06T15:00:00	4	Temperatura máxima	19.7
17211	7	Sololá	701	Sololá	3	Barraneche	3	Marzo	2023-03-31T00:00:00	2024-11-06T15:00:00	3	Temperatura mínima	17.7
17212	7	Sololá	701	Sololá	3	Barraneche	3	Marzo	2023-03-31T00:00:00	2024-11-06T15:00:00	5	Humedad	63
17213	7	Sololá	701	Sololá	3	Barraneche	3	Marzo	2023-03-31T00:00:00	2024-11-06T15:00:00	6	Velocidad del viento	19.3
17214	7	Sololá	701	Sololá	3	Barraneche	3	Marzo	2023-03-31T00:00:00	2024-11-06T15:00:00	7	Dirección del viento	19.31
17215	7	Sololá	701	Sololá	3	Barraneche	3	Marzo	2023-03-31T00:00:00	2024-11-06T15:00:00	1	Precipitación	0
17216	7	Sololá	701	Sololá	3	Barraneche	3	Marzo	2023-03-31T00:00:00	2024-11-06T15:00:00	8	Radiación solar	817
17217	7	Sololá	701	Sololá	3	Barraneche	3	Marzo	2023-03-31T00:00:00	2024-11-06T16:00:00	2	Temperatura media	17.4
17218	7	Sololá	701	Sololá	3	Barraneche	3	Marzo	2023-03-31T00:00:00	2024-11-06T16:00:00	4	Temperatura máxima	17.8
17219	7	Sololá	701	Sololá	3	Barraneche	3	Marzo	2023-03-31T00:00:00	2024-11-06T16:00:00	3	Temperatura mínima	17.2
17220	7	Sololá	701	Sololá	3	Barraneche	3	Marzo	2023-03-31T00:00:00	2024-11-06T16:00:00	5	Humedad	62
17221	7	Sololá	701	Sololá	3	Barraneche	3	Marzo	2023-03-31T00:00:00	2024-11-06T16:00:00	6	Velocidad del viento	14.5
17222	7	Sololá	701	Sololá	3	Barraneche	3	Marzo	2023-03-31T00:00:00	2024-11-06T16:00:00	7	Dirección del viento	14.48
17223	7	Sololá	701	Sololá	3	Barraneche	3	Marzo	2023-03-31T00:00:00	2024-11-06T16:00:00	1	Precipitación	0
17224	7	Sololá	701	Sololá	3	Barraneche	3	Marzo	2023-03-31T00:00:00	2024-11-06T16:00:00	8	Radiación solar	486
17225	7	Sololá	701	Sololá	3	Barraneche	3	Marzo	2023-03-31T00:00:00	2024-11-06T17:00:00	2	Temperatura media	16.4
17226	7	Sololá	701	Sololá	3	Barraneche	3	Marzo	2023-03-31T00:00:00	2024-11-06T17:00:00	4	Temperatura máxima	17.4
17227	7	Sololá	701	Sololá	3	Barraneche	3	Marzo	2023-03-31T00:00:00	2024-11-06T17:00:00	3	Temperatura mínima	16.2
17228	7	Sololá	701	Sololá	3	Barraneche	3	Marzo	2023-03-31T00:00:00	2024-11-06T17:00:00	5	Humedad	66
17229	7	Sololá	701	Sololá	3	Barraneche	3	Marzo	2023-03-31T00:00:00	2024-11-06T17:00:00	6	Velocidad del viento	9.7
17230	7	Sololá	701	Sololá	3	Barraneche	3	Marzo	2023-03-31T00:00:00	2024-11-06T17:00:00	7	Dirección del viento	9.66
17231	7	Sololá	701	Sololá	3	Barraneche	3	Marzo	2023-03-31T00:00:00	2024-11-06T17:00:00	1	Precipitación	0
17232	7	Sololá	701	Sololá	3	Barraneche	3	Marzo	2023-03-31T00:00:00	2024-11-06T17:00:00	8	Radiación solar	132
17233	7	Sololá	701	Sololá	3	Barraneche	3	Marzo	2023-03-31T00:00:00	2024-11-06T18:00:00	2	Temperatura media	16.1
17234	7	Sololá	701	Sololá	3	Barraneche	3	Marzo	2023-03-31T00:00:00	2024-11-06T18:00:00	4	Temperatura máxima	16.7
17235	7	Sololá	701	Sololá	3	Barraneche	3	Marzo	2023-03-31T00:00:00	2024-11-06T18:00:00	3	Temperatura mínima	16.1
17236	7	Sololá	701	Sololá	3	Barraneche	3	Marzo	2023-03-31T00:00:00	2024-11-06T18:00:00	5	Humedad	68
17237	7	Sololá	701	Sololá	3	Barraneche	3	Marzo	2023-03-31T00:00:00	2024-11-06T18:00:00	6	Velocidad del viento	4.8
17238	7	Sololá	701	Sololá	3	Barraneche	3	Marzo	2023-03-31T00:00:00	2024-11-06T18:00:00	7	Dirección del viento	4.83
17239	7	Sololá	701	Sololá	3	Barraneche	3	Marzo	2023-03-31T00:00:00	2024-11-06T18:00:00	1	Precipitación	0
17240	7	Sololá	701	Sololá	3	Barraneche	3	Marzo	2023-03-31T00:00:00	2024-11-06T18:00:00	8	Radiación solar	79
17241	7	Sololá	701	Sololá	3	Barraneche	3	Marzo	2023-03-31T00:00:00	2024-11-06T19:00:00	2	Temperatura media	12.6
17242	7	Sololá	701	Sololá	3	Barraneche	3	Marzo	2023-03-31T00:00:00	2024-11-06T19:00:00	4	Temperatura máxima	16.1
17243	7	Sololá	701	Sololá	3	Barraneche	3	Marzo	2023-03-31T00:00:00	2024-11-06T19:00:00	3	Temperatura mínima	12.6
17244	7	Sololá	701	Sololá	3	Barraneche	3	Marzo	2023-03-31T00:00:00	2024-11-06T19:00:00	5	Humedad	52
17245	7	Sololá	701	Sololá	3	Barraneche	3	Marzo	2023-03-31T00:00:00	2024-11-06T19:00:00	6	Velocidad del viento	6.4
17246	7	Sololá	701	Sololá	3	Barraneche	3	Marzo	2023-03-31T00:00:00	2024-11-06T19:00:00	7	Dirección del viento	6.44
17247	7	Sololá	701	Sololá	3	Barraneche	3	Marzo	2023-03-31T00:00:00	2024-11-06T19:00:00	1	Precipitación	0
17248	7	Sololá	701	Sololá	3	Barraneche	3	Marzo	2023-03-31T00:00:00	2024-11-06T19:00:00	8	Radiación solar	0
17249	7	Sololá	701	Sololá	3	Barraneche	3	Marzo	2023-03-31T00:00:00	2024-11-06T20:00:00	2	Temperatura media	12.2
17250	7	Sololá	701	Sololá	3	Barraneche	3	Marzo	2023-03-31T00:00:00	2024-11-06T20:00:00	4	Temperatura máxima	12.5
17251	7	Sololá	701	Sololá	3	Barraneche	3	Marzo	2023-03-31T00:00:00	2024-11-06T20:00:00	3	Temperatura mínima	12
17252	7	Sololá	701	Sololá	3	Barraneche	3	Marzo	2023-03-31T00:00:00	2024-11-06T20:00:00	5	Humedad	60
17253	7	Sololá	701	Sololá	3	Barraneche	3	Marzo	2023-03-31T00:00:00	2024-11-06T20:00:00	6	Velocidad del viento	8
17254	7	Sololá	701	Sololá	3	Barraneche	3	Marzo	2023-03-31T00:00:00	2024-11-06T20:00:00	7	Dirección del viento	8.05
17255	7	Sololá	701	Sololá	3	Barraneche	3	Marzo	2023-03-31T00:00:00	2024-11-06T20:00:00	1	Precipitación	0
17256	7	Sololá	701	Sololá	3	Barraneche	3	Marzo	2023-03-31T00:00:00	2024-11-06T20:00:00	8	Radiación solar	0
17257	7	Sololá	701	Sololá	3	Barraneche	3	Marzo	2023-03-31T00:00:00	2024-11-06T21:00:00	2	Temperatura media	11.6
17258	7	Sololá	701	Sololá	3	Barraneche	3	Marzo	2023-03-31T00:00:00	2024-11-06T21:00:00	4	Temperatura máxima	12.2
17259	7	Sololá	701	Sololá	3	Barraneche	3	Marzo	2023-03-31T00:00:00	2024-11-06T21:00:00	3	Temperatura mínima	11.5
17260	7	Sololá	701	Sololá	3	Barraneche	3	Marzo	2023-03-31T00:00:00	2024-11-06T21:00:00	5	Humedad	64
17261	7	Sololá	701	Sololá	3	Barraneche	3	Marzo	2023-03-31T00:00:00	2024-11-06T21:00:00	6	Velocidad del viento	4.8
17262	7	Sololá	701	Sololá	3	Barraneche	3	Marzo	2023-03-31T00:00:00	2024-11-06T21:00:00	7	Dirección del viento	4.83
17263	7	Sololá	701	Sololá	3	Barraneche	3	Marzo	2023-03-31T00:00:00	2024-11-06T21:00:00	1	Precipitación	0
17264	7	Sololá	701	Sololá	3	Barraneche	3	Marzo	2023-03-31T00:00:00	2024-11-06T21:00:00	8	Radiación solar	0
17265	7	Sololá	701	Sololá	3	Barraneche	3	Marzo	2023-03-31T00:00:00	2024-11-06T22:00:00	2	Temperatura media	10.4
17266	7	Sololá	701	Sololá	3	Barraneche	3	Marzo	2023-03-31T00:00:00	2024-11-06T22:00:00	4	Temperatura máxima	12.1
17267	7	Sololá	701	Sololá	3	Barraneche	3	Marzo	2023-03-31T00:00:00	2024-11-06T22:00:00	3	Temperatura mínima	10.4
17268	7	Sololá	701	Sololá	3	Barraneche	3	Marzo	2023-03-31T00:00:00	2024-11-06T22:00:00	5	Humedad	58
17269	7	Sololá	701	Sololá	3	Barraneche	3	Marzo	2023-03-31T00:00:00	2024-11-06T22:00:00	6	Velocidad del viento	6.4
17270	7	Sololá	701	Sololá	3	Barraneche	3	Marzo	2023-03-31T00:00:00	2024-11-06T22:00:00	7	Dirección del viento	6.44
17271	7	Sololá	701	Sololá	3	Barraneche	3	Marzo	2023-03-31T00:00:00	2024-11-06T22:00:00	1	Precipitación	0
17272	7	Sololá	701	Sololá	3	Barraneche	3	Marzo	2023-03-31T00:00:00	2024-11-06T22:00:00	8	Radiación solar	0
17273	7	Sololá	701	Sololá	3	Barraneche	3	Marzo	2023-03-31T00:00:00	2024-11-06T23:00:00	2	Temperatura media	9.4
17274	7	Sololá	701	Sololá	3	Barraneche	3	Marzo	2023-03-31T00:00:00	2024-11-06T23:00:00	4	Temperatura máxima	10.4
17275	7	Sololá	701	Sololá	3	Barraneche	3	Marzo	2023-03-31T00:00:00	2024-11-06T23:00:00	3	Temperatura mínima	9.4
17276	7	Sololá	701	Sololá	3	Barraneche	3	Marzo	2023-03-31T00:00:00	2024-11-06T23:00:00	5	Humedad	48
17277	7	Sololá	701	Sololá	3	Barraneche	3	Marzo	2023-03-31T00:00:00	2024-11-06T23:00:00	6	Velocidad del viento	8
17278	7	Sololá	701	Sololá	3	Barraneche	3	Marzo	2023-03-31T00:00:00	2024-11-06T23:00:00	7	Dirección del viento	8.05
17279	7	Sololá	701	Sololá	3	Barraneche	3	Marzo	2023-03-31T00:00:00	2024-11-06T23:00:00	1	Precipitación	0
17280	7	Sololá	701	Sololá	3	Barraneche	3	Marzo	2023-03-31T00:00:00	2024-11-06T23:00:00	8	Radiación solar	0
17281	7	Sololá	701	Sololá	3	Barraneche	4	Abril	2023-01-04T00:00:00	2024-11-06T00:00:00	2	Temperatura media	9
17282	7	Sololá	701	Sololá	3	Barraneche	4	Abril	2023-01-04T00:00:00	2024-11-06T00:00:00	4	Temperatura máxima	9.5
17283	7	Sololá	701	Sololá	3	Barraneche	4	Abril	2023-01-04T00:00:00	2024-11-06T00:00:00	3	Temperatura mínima	8.9
17284	7	Sololá	701	Sololá	3	Barraneche	4	Abril	2023-01-04T00:00:00	2024-11-06T00:00:00	5	Humedad	47
17285	7	Sololá	701	Sololá	3	Barraneche	4	Abril	2023-01-04T00:00:00	2024-11-06T00:00:00	6	Velocidad del viento	8
17286	7	Sololá	701	Sololá	3	Barraneche	4	Abril	2023-01-04T00:00:00	2024-11-06T00:00:00	7	Dirección del viento	8.05
17287	7	Sololá	701	Sololá	3	Barraneche	4	Abril	2023-01-04T00:00:00	2024-11-06T00:00:00	1	Precipitación	0
17288	7	Sololá	701	Sololá	3	Barraneche	4	Abril	2023-01-04T00:00:00	2024-11-06T00:00:00	8	Radiación solar	0
17289	7	Sololá	701	Sololá	3	Barraneche	4	Abril	2023-01-04T00:00:00	2024-11-06T01:00:00	2	Temperatura media	9.6
17290	7	Sololá	701	Sololá	3	Barraneche	4	Abril	2023-01-04T00:00:00	2024-11-06T01:00:00	4	Temperatura máxima	9.6
17291	7	Sololá	701	Sololá	3	Barraneche	4	Abril	2023-01-04T00:00:00	2024-11-06T01:00:00	3	Temperatura mínima	8.8
17292	7	Sololá	701	Sololá	3	Barraneche	4	Abril	2023-01-04T00:00:00	2024-11-06T01:00:00	5	Humedad	48
17293	7	Sololá	701	Sololá	3	Barraneche	4	Abril	2023-01-04T00:00:00	2024-11-06T01:00:00	6	Velocidad del viento	9.7
17294	7	Sololá	701	Sololá	3	Barraneche	4	Abril	2023-01-04T00:00:00	2024-11-06T01:00:00	7	Dirección del viento	9.66
17295	7	Sololá	701	Sololá	3	Barraneche	4	Abril	2023-01-04T00:00:00	2024-11-06T01:00:00	1	Precipitación	0
17296	7	Sololá	701	Sololá	3	Barraneche	4	Abril	2023-01-04T00:00:00	2024-11-06T01:00:00	8	Radiación solar	0
17297	7	Sololá	701	Sololá	3	Barraneche	4	Abril	2023-01-04T00:00:00	2024-11-06T02:00:00	2	Temperatura media	9.5
17298	7	Sololá	701	Sololá	3	Barraneche	4	Abril	2023-01-04T00:00:00	2024-11-06T02:00:00	4	Temperatura máxima	9.8
17299	7	Sololá	701	Sololá	3	Barraneche	4	Abril	2023-01-04T00:00:00	2024-11-06T02:00:00	3	Temperatura mínima	9.3
17300	7	Sololá	701	Sololá	3	Barraneche	4	Abril	2023-01-04T00:00:00	2024-11-06T02:00:00	5	Humedad	53
17301	7	Sololá	701	Sololá	3	Barraneche	4	Abril	2023-01-04T00:00:00	2024-11-06T02:00:00	6	Velocidad del viento	8
17302	7	Sololá	701	Sololá	3	Barraneche	4	Abril	2023-01-04T00:00:00	2024-11-06T02:00:00	7	Dirección del viento	8.05
17303	7	Sololá	701	Sololá	3	Barraneche	4	Abril	2023-01-04T00:00:00	2024-11-06T02:00:00	1	Precipitación	0
17304	7	Sololá	701	Sololá	3	Barraneche	4	Abril	2023-01-04T00:00:00	2024-11-06T02:00:00	8	Radiación solar	0
17305	7	Sololá	701	Sololá	3	Barraneche	4	Abril	2023-01-04T00:00:00	2024-11-06T03:00:00	2	Temperatura media	9.8
17306	7	Sololá	701	Sololá	3	Barraneche	4	Abril	2023-01-04T00:00:00	2024-11-06T03:00:00	4	Temperatura máxima	10.1
17307	7	Sololá	701	Sololá	3	Barraneche	4	Abril	2023-01-04T00:00:00	2024-11-06T03:00:00	3	Temperatura mínima	9.3
17308	7	Sololá	701	Sololá	3	Barraneche	4	Abril	2023-01-04T00:00:00	2024-11-06T03:00:00	5	Humedad	55
17309	7	Sololá	701	Sololá	3	Barraneche	4	Abril	2023-01-04T00:00:00	2024-11-06T03:00:00	6	Velocidad del viento	9.7
17310	7	Sololá	701	Sololá	3	Barraneche	4	Abril	2023-01-04T00:00:00	2024-11-06T03:00:00	7	Dirección del viento	9.66
17311	7	Sololá	701	Sololá	3	Barraneche	4	Abril	2023-01-04T00:00:00	2024-11-06T03:00:00	1	Precipitación	0
17312	7	Sololá	701	Sololá	3	Barraneche	4	Abril	2023-01-04T00:00:00	2024-11-06T03:00:00	8	Radiación solar	0
17313	7	Sololá	701	Sololá	3	Barraneche	4	Abril	2023-01-04T00:00:00	2024-11-06T04:00:00	2	Temperatura media	9.3
17314	7	Sololá	701	Sololá	3	Barraneche	4	Abril	2023-01-04T00:00:00	2024-11-06T04:00:00	4	Temperatura máxima	10
17315	7	Sololá	701	Sololá	3	Barraneche	4	Abril	2023-01-04T00:00:00	2024-11-06T04:00:00	3	Temperatura mínima	9.2
17316	7	Sololá	701	Sololá	3	Barraneche	4	Abril	2023-01-04T00:00:00	2024-11-06T04:00:00	5	Humedad	56
17317	7	Sololá	701	Sololá	3	Barraneche	4	Abril	2023-01-04T00:00:00	2024-11-06T04:00:00	6	Velocidad del viento	11.3
17318	7	Sololá	701	Sololá	3	Barraneche	4	Abril	2023-01-04T00:00:00	2024-11-06T04:00:00	7	Dirección del viento	11.27
17319	7	Sololá	701	Sololá	3	Barraneche	4	Abril	2023-01-04T00:00:00	2024-11-06T04:00:00	1	Precipitación	0
17320	7	Sololá	701	Sololá	3	Barraneche	4	Abril	2023-01-04T00:00:00	2024-11-06T04:00:00	8	Radiación solar	0
17321	7	Sololá	701	Sololá	3	Barraneche	4	Abril	2023-01-04T00:00:00	2024-11-06T05:00:00	2	Temperatura media	8.5
17322	7	Sololá	701	Sololá	3	Barraneche	4	Abril	2023-01-04T00:00:00	2024-11-06T05:00:00	4	Temperatura máxima	9.7
17323	7	Sololá	701	Sololá	3	Barraneche	4	Abril	2023-01-04T00:00:00	2024-11-06T05:00:00	3	Temperatura mínima	8.5
17324	7	Sololá	701	Sololá	3	Barraneche	4	Abril	2023-01-04T00:00:00	2024-11-06T05:00:00	5	Humedad	57
17325	7	Sololá	701	Sololá	3	Barraneche	4	Abril	2023-01-04T00:00:00	2024-11-06T05:00:00	6	Velocidad del viento	11.3
17326	7	Sololá	701	Sololá	3	Barraneche	4	Abril	2023-01-04T00:00:00	2024-11-06T05:00:00	7	Dirección del viento	11.27
17327	7	Sololá	701	Sololá	3	Barraneche	4	Abril	2023-01-04T00:00:00	2024-11-06T05:00:00	1	Precipitación	0
17328	7	Sololá	701	Sololá	3	Barraneche	4	Abril	2023-01-04T00:00:00	2024-11-06T05:00:00	8	Radiación solar	0
17329	7	Sololá	701	Sololá	3	Barraneche	4	Abril	2023-01-04T00:00:00	2024-11-06T06:00:00	2	Temperatura media	8.3
17330	7	Sololá	701	Sololá	3	Barraneche	4	Abril	2023-01-04T00:00:00	2024-11-06T06:00:00	4	Temperatura máxima	8.5
17331	7	Sololá	701	Sololá	3	Barraneche	4	Abril	2023-01-04T00:00:00	2024-11-06T06:00:00	3	Temperatura mínima	8.1
17332	7	Sololá	701	Sololá	3	Barraneche	4	Abril	2023-01-04T00:00:00	2024-11-06T06:00:00	5	Humedad	62
17333	7	Sololá	701	Sololá	3	Barraneche	4	Abril	2023-01-04T00:00:00	2024-11-06T06:00:00	6	Velocidad del viento	9.7
17334	7	Sololá	701	Sololá	3	Barraneche	4	Abril	2023-01-04T00:00:00	2024-11-06T06:00:00	7	Dirección del viento	9.66
17335	7	Sololá	701	Sololá	3	Barraneche	4	Abril	2023-01-04T00:00:00	2024-11-06T06:00:00	1	Precipitación	0
17336	7	Sololá	701	Sololá	3	Barraneche	4	Abril	2023-01-04T00:00:00	2024-11-06T06:00:00	8	Radiación solar	0
17337	7	Sololá	701	Sololá	3	Barraneche	4	Abril	2023-01-04T00:00:00	2024-11-06T07:00:00	2	Temperatura media	9.7
17338	7	Sololá	701	Sololá	3	Barraneche	4	Abril	2023-01-04T00:00:00	2024-11-06T07:00:00	4	Temperatura máxima	9.7
17339	7	Sololá	701	Sololá	3	Barraneche	4	Abril	2023-01-04T00:00:00	2024-11-06T07:00:00	3	Temperatura mínima	8.2
17340	7	Sololá	701	Sololá	3	Barraneche	4	Abril	2023-01-04T00:00:00	2024-11-06T07:00:00	5	Humedad	62
17341	7	Sololá	701	Sololá	3	Barraneche	4	Abril	2023-01-04T00:00:00	2024-11-06T07:00:00	6	Velocidad del viento	9.7
17342	7	Sololá	701	Sololá	3	Barraneche	4	Abril	2023-01-04T00:00:00	2024-11-06T07:00:00	7	Dirección del viento	9.66
17343	7	Sololá	701	Sololá	3	Barraneche	4	Abril	2023-01-04T00:00:00	2024-11-06T07:00:00	1	Precipitación	0
17344	7	Sololá	701	Sololá	3	Barraneche	4	Abril	2023-01-04T00:00:00	2024-11-06T07:00:00	8	Radiación solar	39
17345	7	Sololá	701	Sololá	3	Barraneche	4	Abril	2023-01-04T00:00:00	2024-11-06T08:00:00	2	Temperatura media	15
17346	7	Sololá	701	Sololá	3	Barraneche	4	Abril	2023-01-04T00:00:00	2024-11-06T08:00:00	4	Temperatura máxima	15
17347	7	Sololá	701	Sololá	3	Barraneche	4	Abril	2023-01-04T00:00:00	2024-11-06T08:00:00	3	Temperatura mínima	9.7
17348	7	Sololá	701	Sololá	3	Barraneche	4	Abril	2023-01-04T00:00:00	2024-11-06T08:00:00	5	Humedad	53
17349	7	Sololá	701	Sololá	3	Barraneche	4	Abril	2023-01-04T00:00:00	2024-11-06T08:00:00	6	Velocidad del viento	4.8
17350	7	Sololá	701	Sololá	3	Barraneche	4	Abril	2023-01-04T00:00:00	2024-11-06T08:00:00	7	Dirección del viento	4.83
17351	7	Sololá	701	Sololá	3	Barraneche	4	Abril	2023-01-04T00:00:00	2024-11-06T08:00:00	1	Precipitación	0
17352	7	Sololá	701	Sololá	3	Barraneche	4	Abril	2023-01-04T00:00:00	2024-11-06T08:00:00	8	Radiación solar	331
17353	7	Sololá	701	Sololá	3	Barraneche	4	Abril	2023-01-04T00:00:00	2024-11-06T09:00:00	2	Temperatura media	16.6
17354	7	Sololá	701	Sololá	3	Barraneche	4	Abril	2023-01-04T00:00:00	2024-11-06T09:00:00	4	Temperatura máxima	16.6
17355	7	Sololá	701	Sololá	3	Barraneche	4	Abril	2023-01-04T00:00:00	2024-11-06T09:00:00	3	Temperatura mínima	15
17356	7	Sololá	701	Sololá	3	Barraneche	4	Abril	2023-01-04T00:00:00	2024-11-06T09:00:00	5	Humedad	52
17357	7	Sololá	701	Sololá	3	Barraneche	4	Abril	2023-01-04T00:00:00	2024-11-06T09:00:00	6	Velocidad del viento	6.4
17358	7	Sololá	701	Sololá	3	Barraneche	4	Abril	2023-01-04T00:00:00	2024-11-06T09:00:00	7	Dirección del viento	6.44
17359	7	Sololá	701	Sololá	3	Barraneche	4	Abril	2023-01-04T00:00:00	2024-11-06T09:00:00	1	Precipitación	0
17360	7	Sololá	701	Sololá	3	Barraneche	4	Abril	2023-01-04T00:00:00	2024-11-06T09:00:00	8	Radiación solar	584
17361	7	Sololá	701	Sololá	3	Barraneche	4	Abril	2023-01-04T00:00:00	2024-11-06T10:00:00	2	Temperatura media	20.8
17362	7	Sololá	701	Sololá	3	Barraneche	4	Abril	2023-01-04T00:00:00	2024-11-06T10:00:00	4	Temperatura máxima	20.8
17363	7	Sololá	701	Sololá	3	Barraneche	4	Abril	2023-01-04T00:00:00	2024-11-06T10:00:00	3	Temperatura mínima	16.5
17364	7	Sololá	701	Sololá	3	Barraneche	4	Abril	2023-01-04T00:00:00	2024-11-06T10:00:00	5	Humedad	15
17365	7	Sololá	701	Sololá	3	Barraneche	4	Abril	2023-01-04T00:00:00	2024-11-06T10:00:00	6	Velocidad del viento	9.7
17366	7	Sololá	701	Sololá	3	Barraneche	4	Abril	2023-01-04T00:00:00	2024-11-06T10:00:00	7	Dirección del viento	9.66
17367	7	Sololá	701	Sololá	3	Barraneche	4	Abril	2023-01-04T00:00:00	2024-11-06T10:00:00	1	Precipitación	0
17368	7	Sololá	701	Sololá	3	Barraneche	4	Abril	2023-01-04T00:00:00	2024-11-06T10:00:00	8	Radiación solar	807
17369	7	Sololá	701	Sololá	3	Barraneche	4	Abril	2023-01-04T00:00:00	2024-11-06T11:00:00	2	Temperatura media	21.9
17370	7	Sololá	701	Sololá	3	Barraneche	4	Abril	2023-01-04T00:00:00	2024-11-06T11:00:00	4	Temperatura máxima	21.9
17371	7	Sololá	701	Sololá	3	Barraneche	4	Abril	2023-01-04T00:00:00	2024-11-06T11:00:00	3	Temperatura mínima	20.8
17372	7	Sololá	701	Sololá	3	Barraneche	4	Abril	2023-01-04T00:00:00	2024-11-06T11:00:00	5	Humedad	16
17373	7	Sololá	701	Sololá	3	Barraneche	4	Abril	2023-01-04T00:00:00	2024-11-06T11:00:00	6	Velocidad del viento	11.3
17374	7	Sololá	701	Sololá	3	Barraneche	4	Abril	2023-01-04T00:00:00	2024-11-06T11:00:00	7	Dirección del viento	11.27
17375	7	Sololá	701	Sololá	3	Barraneche	4	Abril	2023-01-04T00:00:00	2024-11-06T11:00:00	1	Precipitación	0
17376	7	Sololá	701	Sololá	3	Barraneche	4	Abril	2023-01-04T00:00:00	2024-11-06T11:00:00	8	Radiación solar	977
17377	7	Sololá	701	Sololá	3	Barraneche	4	Abril	2023-01-04T00:00:00	2024-11-06T12:00:00	2	Temperatura media	22.2
17378	7	Sololá	701	Sololá	3	Barraneche	4	Abril	2023-01-04T00:00:00	2024-11-06T12:00:00	4	Temperatura máxima	22.2
17379	7	Sololá	701	Sololá	3	Barraneche	4	Abril	2023-01-04T00:00:00	2024-11-06T12:00:00	3	Temperatura mínima	21.6
17380	7	Sololá	701	Sololá	3	Barraneche	4	Abril	2023-01-04T00:00:00	2024-11-06T12:00:00	5	Humedad	22
17381	7	Sololá	701	Sololá	3	Barraneche	4	Abril	2023-01-04T00:00:00	2024-11-06T12:00:00	6	Velocidad del viento	12.9
17382	7	Sololá	701	Sololá	3	Barraneche	4	Abril	2023-01-04T00:00:00	2024-11-06T12:00:00	7	Dirección del viento	12.87
17383	7	Sololá	701	Sololá	3	Barraneche	4	Abril	2023-01-04T00:00:00	2024-11-06T12:00:00	1	Precipitación	0
17384	7	Sololá	701	Sololá	3	Barraneche	4	Abril	2023-01-04T00:00:00	2024-11-06T12:00:00	8	Radiación solar	1060
17385	7	Sololá	701	Sololá	3	Barraneche	4	Abril	2023-01-04T00:00:00	2024-11-06T13:00:00	2	Temperatura media	22.6
17386	7	Sololá	701	Sololá	3	Barraneche	4	Abril	2023-01-04T00:00:00	2024-11-06T13:00:00	4	Temperatura máxima	22.9
17387	7	Sololá	701	Sololá	3	Barraneche	4	Abril	2023-01-04T00:00:00	2024-11-06T13:00:00	3	Temperatura mínima	22
17388	7	Sololá	701	Sololá	3	Barraneche	4	Abril	2023-01-04T00:00:00	2024-11-06T13:00:00	5	Humedad	28
17389	7	Sololá	701	Sololá	3	Barraneche	4	Abril	2023-01-04T00:00:00	2024-11-06T13:00:00	6	Velocidad del viento	12.9
17390	7	Sololá	701	Sololá	3	Barraneche	4	Abril	2023-01-04T00:00:00	2024-11-06T13:00:00	7	Dirección del viento	12.87
17391	7	Sololá	701	Sololá	3	Barraneche	4	Abril	2023-01-04T00:00:00	2024-11-06T13:00:00	1	Precipitación	0
17392	7	Sololá	701	Sololá	3	Barraneche	4	Abril	2023-01-04T00:00:00	2024-11-06T13:00:00	8	Radiación solar	1060
17393	7	Sololá	701	Sololá	3	Barraneche	4	Abril	2023-01-04T00:00:00	2024-11-06T14:00:00	2	Temperatura media	19.2
17394	7	Sololá	701	Sololá	3	Barraneche	4	Abril	2023-01-04T00:00:00	2024-11-06T14:00:00	4	Temperatura máxima	22.7
17395	7	Sololá	701	Sololá	3	Barraneche	4	Abril	2023-01-04T00:00:00	2024-11-06T14:00:00	3	Temperatura mínima	19.2
17396	7	Sololá	701	Sololá	3	Barraneche	4	Abril	2023-01-04T00:00:00	2024-11-06T14:00:00	5	Humedad	58
17397	7	Sololá	701	Sololá	3	Barraneche	4	Abril	2023-01-04T00:00:00	2024-11-06T14:00:00	6	Velocidad del viento	16.1
17398	7	Sololá	701	Sololá	3	Barraneche	4	Abril	2023-01-04T00:00:00	2024-11-06T14:00:00	7	Dirección del viento	16.09
17399	7	Sololá	701	Sololá	3	Barraneche	4	Abril	2023-01-04T00:00:00	2024-11-06T14:00:00	1	Precipitación	0
17400	7	Sololá	701	Sololá	3	Barraneche	4	Abril	2023-01-04T00:00:00	2024-11-06T14:00:00	8	Radiación solar	961
17401	7	Sololá	701	Sololá	3	Barraneche	4	Abril	2023-01-04T00:00:00	2024-11-06T15:00:00	2	Temperatura media	18.2
17402	7	Sololá	701	Sololá	3	Barraneche	4	Abril	2023-01-04T00:00:00	2024-11-06T15:00:00	4	Temperatura máxima	19.1
17403	7	Sololá	701	Sololá	3	Barraneche	4	Abril	2023-01-04T00:00:00	2024-11-06T15:00:00	3	Temperatura mínima	18.2
17404	7	Sololá	701	Sololá	3	Barraneche	4	Abril	2023-01-04T00:00:00	2024-11-06T15:00:00	5	Humedad	61
17405	7	Sololá	701	Sololá	3	Barraneche	4	Abril	2023-01-04T00:00:00	2024-11-06T15:00:00	6	Velocidad del viento	16.1
17406	7	Sololá	701	Sololá	3	Barraneche	4	Abril	2023-01-04T00:00:00	2024-11-06T15:00:00	7	Dirección del viento	16.09
17407	7	Sololá	701	Sololá	3	Barraneche	4	Abril	2023-01-04T00:00:00	2024-11-06T15:00:00	1	Precipitación	0
17408	7	Sololá	701	Sololá	3	Barraneche	4	Abril	2023-01-04T00:00:00	2024-11-06T15:00:00	8	Radiación solar	818
17409	7	Sololá	701	Sololá	3	Barraneche	4	Abril	2023-01-04T00:00:00	2024-11-06T16:00:00	2	Temperatura media	17.9
17410	7	Sololá	701	Sololá	3	Barraneche	4	Abril	2023-01-04T00:00:00	2024-11-06T16:00:00	4	Temperatura máxima	18.4
17411	7	Sololá	701	Sololá	3	Barraneche	4	Abril	2023-01-04T00:00:00	2024-11-06T16:00:00	3	Temperatura mínima	17.8
17412	7	Sololá	701	Sololá	3	Barraneche	4	Abril	2023-01-04T00:00:00	2024-11-06T16:00:00	5	Humedad	63
17413	7	Sololá	701	Sololá	3	Barraneche	4	Abril	2023-01-04T00:00:00	2024-11-06T16:00:00	6	Velocidad del viento	14.5
17414	7	Sololá	701	Sololá	3	Barraneche	4	Abril	2023-01-04T00:00:00	2024-11-06T16:00:00	7	Dirección del viento	14.48
17415	7	Sololá	701	Sololá	3	Barraneche	4	Abril	2023-01-04T00:00:00	2024-11-06T16:00:00	1	Precipitación	0
17416	7	Sololá	701	Sololá	3	Barraneche	4	Abril	2023-01-04T00:00:00	2024-11-06T16:00:00	8	Radiación solar	509
17417	7	Sololá	701	Sololá	3	Barraneche	4	Abril	2023-01-04T00:00:00	2024-11-06T17:00:00	2	Temperatura media	17.3
17418	7	Sololá	701	Sololá	3	Barraneche	4	Abril	2023-01-04T00:00:00	2024-11-06T17:00:00	4	Temperatura máxima	18.2
17419	7	Sololá	701	Sololá	3	Barraneche	4	Abril	2023-01-04T00:00:00	2024-11-06T17:00:00	3	Temperatura mínima	17.3
17420	7	Sololá	701	Sololá	3	Barraneche	4	Abril	2023-01-04T00:00:00	2024-11-06T17:00:00	5	Humedad	66
17421	7	Sololá	701	Sololá	3	Barraneche	4	Abril	2023-01-04T00:00:00	2024-11-06T17:00:00	6	Velocidad del viento	12.9
17422	7	Sololá	701	Sololá	3	Barraneche	4	Abril	2023-01-04T00:00:00	2024-11-06T17:00:00	7	Dirección del viento	12.87
17423	7	Sololá	701	Sololá	3	Barraneche	4	Abril	2023-01-04T00:00:00	2024-11-06T17:00:00	1	Precipitación	0
17424	7	Sololá	701	Sololá	3	Barraneche	4	Abril	2023-01-04T00:00:00	2024-11-06T17:00:00	8	Radiación solar	284
17425	7	Sololá	701	Sololá	3	Barraneche	4	Abril	2023-01-04T00:00:00	2024-11-06T18:00:00	2	Temperatura media	15.7
17426	7	Sololá	701	Sololá	3	Barraneche	4	Abril	2023-01-04T00:00:00	2024-11-06T18:00:00	4	Temperatura máxima	17.3
17427	7	Sololá	701	Sololá	3	Barraneche	4	Abril	2023-01-04T00:00:00	2024-11-06T18:00:00	3	Temperatura mínima	15.7
17428	7	Sololá	701	Sololá	3	Barraneche	4	Abril	2023-01-04T00:00:00	2024-11-06T18:00:00	5	Humedad	71
17429	7	Sololá	701	Sololá	3	Barraneche	4	Abril	2023-01-04T00:00:00	2024-11-06T18:00:00	6	Velocidad del viento	9.7
17430	7	Sololá	701	Sololá	3	Barraneche	4	Abril	2023-01-04T00:00:00	2024-11-06T18:00:00	7	Dirección del viento	9.66
17431	7	Sololá	701	Sololá	3	Barraneche	4	Abril	2023-01-04T00:00:00	2024-11-06T18:00:00	1	Precipitación	0
17432	7	Sololá	701	Sololá	3	Barraneche	4	Abril	2023-01-04T00:00:00	2024-11-06T18:00:00	8	Radiación solar	96
17433	7	Sololá	701	Sololá	3	Barraneche	4	Abril	2023-01-04T00:00:00	2024-11-06T19:00:00	2	Temperatura media	15.7
17434	7	Sololá	701	Sololá	3	Barraneche	4	Abril	2023-01-04T00:00:00	2024-11-06T19:00:00	4	Temperatura máxima	15.8
17435	7	Sololá	701	Sololá	3	Barraneche	4	Abril	2023-01-04T00:00:00	2024-11-06T19:00:00	3	Temperatura mínima	15.2
17436	7	Sololá	701	Sololá	3	Barraneche	4	Abril	2023-01-04T00:00:00	2024-11-06T19:00:00	5	Humedad	58
17437	7	Sololá	701	Sololá	3	Barraneche	4	Abril	2023-01-04T00:00:00	2024-11-06T19:00:00	6	Velocidad del viento	6.4
17438	7	Sololá	701	Sololá	3	Barraneche	4	Abril	2023-01-04T00:00:00	2024-11-06T19:00:00	7	Dirección del viento	6.44
17439	7	Sololá	701	Sololá	3	Barraneche	4	Abril	2023-01-04T00:00:00	2024-11-06T19:00:00	1	Precipitación	0
17440	7	Sololá	701	Sololá	3	Barraneche	4	Abril	2023-01-04T00:00:00	2024-11-06T19:00:00	8	Radiación solar	0
17441	7	Sololá	701	Sololá	3	Barraneche	4	Abril	2023-01-04T00:00:00	2024-11-06T20:00:00	2	Temperatura media	14.7
17442	7	Sololá	701	Sololá	3	Barraneche	4	Abril	2023-01-04T00:00:00	2024-11-06T20:00:00	4	Temperatura máxima	15.7
17443	7	Sololá	701	Sololá	3	Barraneche	4	Abril	2023-01-04T00:00:00	2024-11-06T20:00:00	3	Temperatura mínima	14.7
17444	7	Sololá	701	Sololá	3	Barraneche	4	Abril	2023-01-04T00:00:00	2024-11-06T20:00:00	5	Humedad	59
17445	7	Sololá	701	Sololá	3	Barraneche	4	Abril	2023-01-04T00:00:00	2024-11-06T20:00:00	6	Velocidad del viento	8
17446	7	Sololá	701	Sololá	3	Barraneche	4	Abril	2023-01-04T00:00:00	2024-11-06T20:00:00	7	Dirección del viento	8.05
17447	7	Sololá	701	Sololá	3	Barraneche	4	Abril	2023-01-04T00:00:00	2024-11-06T20:00:00	1	Precipitación	0
17448	7	Sololá	701	Sololá	3	Barraneche	4	Abril	2023-01-04T00:00:00	2024-11-06T20:00:00	8	Radiación solar	0
17449	7	Sololá	701	Sololá	3	Barraneche	4	Abril	2023-01-04T00:00:00	2024-11-06T21:00:00	2	Temperatura media	14.1
17450	7	Sololá	701	Sololá	3	Barraneche	4	Abril	2023-01-04T00:00:00	2024-11-06T21:00:00	4	Temperatura máxima	14.7
17451	7	Sololá	701	Sololá	3	Barraneche	4	Abril	2023-01-04T00:00:00	2024-11-06T21:00:00	3	Temperatura mínima	14.1
17452	7	Sololá	701	Sololá	3	Barraneche	4	Abril	2023-01-04T00:00:00	2024-11-06T21:00:00	5	Humedad	61
17453	7	Sololá	701	Sololá	3	Barraneche	4	Abril	2023-01-04T00:00:00	2024-11-06T21:00:00	6	Velocidad del viento	8
17454	7	Sololá	701	Sololá	3	Barraneche	4	Abril	2023-01-04T00:00:00	2024-11-06T21:00:00	7	Dirección del viento	8.05
17455	7	Sololá	701	Sololá	3	Barraneche	4	Abril	2023-01-04T00:00:00	2024-11-06T21:00:00	1	Precipitación	0
17456	7	Sololá	701	Sololá	3	Barraneche	4	Abril	2023-01-04T00:00:00	2024-11-06T21:00:00	8	Radiación solar	0
17457	7	Sololá	701	Sololá	3	Barraneche	4	Abril	2023-01-04T00:00:00	2024-11-06T22:00:00	2	Temperatura media	12.6
17458	7	Sololá	701	Sololá	3	Barraneche	4	Abril	2023-01-04T00:00:00	2024-11-06T22:00:00	4	Temperatura máxima	14.1
17459	7	Sololá	701	Sololá	3	Barraneche	4	Abril	2023-01-04T00:00:00	2024-11-06T22:00:00	3	Temperatura mínima	12.6
17460	7	Sololá	701	Sololá	3	Barraneche	4	Abril	2023-01-04T00:00:00	2024-11-06T22:00:00	5	Humedad	62
17461	7	Sololá	701	Sololá	3	Barraneche	4	Abril	2023-01-04T00:00:00	2024-11-06T22:00:00	6	Velocidad del viento	4.8
17462	7	Sololá	701	Sololá	3	Barraneche	4	Abril	2023-01-04T00:00:00	2024-11-06T22:00:00	7	Dirección del viento	4.83
17463	7	Sololá	701	Sololá	3	Barraneche	4	Abril	2023-01-04T00:00:00	2024-11-06T22:00:00	1	Precipitación	0
17464	7	Sololá	701	Sololá	3	Barraneche	4	Abril	2023-01-04T00:00:00	2024-11-06T22:00:00	8	Radiación solar	0
17465	7	Sololá	701	Sololá	3	Barraneche	4	Abril	2023-01-04T00:00:00	2024-11-06T23:00:00	2	Temperatura media	11.1
17466	7	Sololá	701	Sololá	3	Barraneche	4	Abril	2023-01-04T00:00:00	2024-11-06T23:00:00	4	Temperatura máxima	13.2
17467	7	Sololá	701	Sololá	3	Barraneche	4	Abril	2023-01-04T00:00:00	2024-11-06T23:00:00	3	Temperatura mínima	11
17468	7	Sololá	701	Sololá	3	Barraneche	4	Abril	2023-01-04T00:00:00	2024-11-06T23:00:00	5	Humedad	61
17469	7	Sololá	701	Sololá	3	Barraneche	4	Abril	2023-01-04T00:00:00	2024-11-06T23:00:00	6	Velocidad del viento	6.4
17470	7	Sololá	701	Sololá	3	Barraneche	4	Abril	2023-01-04T00:00:00	2024-11-06T23:00:00	7	Dirección del viento	6.44
17471	7	Sololá	701	Sololá	3	Barraneche	4	Abril	2023-01-04T00:00:00	2024-11-06T23:00:00	1	Precipitación	0
17472	7	Sololá	701	Sololá	3	Barraneche	4	Abril	2023-01-04T00:00:00	2024-11-06T23:00:00	8	Radiación solar	0
17473	7	Sololá	701	Sololá	3	Barraneche	4	Abril	2023-02-04T00:00:00	2024-11-06T00:00:00	2	Temperatura media	10.7
17474	7	Sololá	701	Sololá	3	Barraneche	4	Abril	2023-02-04T00:00:00	2024-11-06T00:00:00	4	Temperatura máxima	11.6
17475	7	Sololá	701	Sololá	3	Barraneche	4	Abril	2023-02-04T00:00:00	2024-11-06T00:00:00	3	Temperatura mínima	10.2
17476	7	Sololá	701	Sololá	3	Barraneche	4	Abril	2023-02-04T00:00:00	2024-11-06T00:00:00	5	Humedad	48
17477	7	Sololá	701	Sololá	3	Barraneche	4	Abril	2023-02-04T00:00:00	2024-11-06T00:00:00	6	Velocidad del viento	9.7
17478	7	Sololá	701	Sololá	3	Barraneche	4	Abril	2023-02-04T00:00:00	2024-11-06T00:00:00	7	Dirección del viento	9.66
17479	7	Sololá	701	Sololá	3	Barraneche	4	Abril	2023-02-04T00:00:00	2024-11-06T00:00:00	1	Precipitación	0
17480	7	Sololá	701	Sololá	3	Barraneche	4	Abril	2023-02-04T00:00:00	2024-11-06T00:00:00	8	Radiación solar	0
17481	7	Sololá	701	Sololá	3	Barraneche	4	Abril	2023-02-04T00:00:00	2024-11-06T01:00:00	2	Temperatura media	8.4
17482	7	Sololá	701	Sololá	3	Barraneche	4	Abril	2023-02-04T00:00:00	2024-11-06T01:00:00	4	Temperatura máxima	11.5
17483	7	Sololá	701	Sololá	3	Barraneche	4	Abril	2023-02-04T00:00:00	2024-11-06T01:00:00	3	Temperatura mínima	8.4
17484	7	Sololá	701	Sololá	3	Barraneche	4	Abril	2023-02-04T00:00:00	2024-11-06T01:00:00	5	Humedad	40
17485	7	Sololá	701	Sololá	3	Barraneche	4	Abril	2023-02-04T00:00:00	2024-11-06T01:00:00	6	Velocidad del viento	4.8
17486	7	Sololá	701	Sololá	3	Barraneche	4	Abril	2023-02-04T00:00:00	2024-11-06T01:00:00	7	Dirección del viento	4.83
17487	7	Sololá	701	Sololá	3	Barraneche	4	Abril	2023-02-04T00:00:00	2024-11-06T01:00:00	1	Precipitación	0
17488	7	Sololá	701	Sololá	3	Barraneche	4	Abril	2023-02-04T00:00:00	2024-11-06T01:00:00	8	Radiación solar	0
17489	7	Sololá	701	Sololá	3	Barraneche	4	Abril	2023-02-04T00:00:00	2024-11-06T02:00:00	2	Temperatura media	8.7
17490	7	Sololá	701	Sololá	3	Barraneche	4	Abril	2023-02-04T00:00:00	2024-11-06T02:00:00	4	Temperatura máxima	9.1
17491	7	Sololá	701	Sololá	3	Barraneche	4	Abril	2023-02-04T00:00:00	2024-11-06T02:00:00	3	Temperatura mínima	8.3
17492	7	Sololá	701	Sololá	3	Barraneche	4	Abril	2023-02-04T00:00:00	2024-11-06T02:00:00	5	Humedad	28
17493	7	Sololá	701	Sololá	3	Barraneche	4	Abril	2023-02-04T00:00:00	2024-11-06T02:00:00	6	Velocidad del viento	8
17494	7	Sololá	701	Sololá	3	Barraneche	4	Abril	2023-02-04T00:00:00	2024-11-06T02:00:00	7	Dirección del viento	8.05
17495	7	Sololá	701	Sololá	3	Barraneche	4	Abril	2023-02-04T00:00:00	2024-11-06T02:00:00	1	Precipitación	0
17496	7	Sololá	701	Sololá	3	Barraneche	4	Abril	2023-02-04T00:00:00	2024-11-06T02:00:00	8	Radiación solar	0
17497	7	Sololá	701	Sololá	3	Barraneche	4	Abril	2023-02-04T00:00:00	2024-11-06T03:00:00	2	Temperatura media	8.1
17498	7	Sololá	701	Sololá	3	Barraneche	4	Abril	2023-02-04T00:00:00	2024-11-06T03:00:00	4	Temperatura máxima	8.7
17499	7	Sololá	701	Sololá	3	Barraneche	4	Abril	2023-02-04T00:00:00	2024-11-06T03:00:00	3	Temperatura mínima	8.1
17500	7	Sololá	701	Sololá	3	Barraneche	4	Abril	2023-02-04T00:00:00	2024-11-06T03:00:00	5	Humedad	26
17501	7	Sololá	701	Sololá	3	Barraneche	4	Abril	2023-02-04T00:00:00	2024-11-06T03:00:00	6	Velocidad del viento	9.7
17502	7	Sololá	701	Sololá	3	Barraneche	4	Abril	2023-02-04T00:00:00	2024-11-06T03:00:00	7	Dirección del viento	9.66
17503	7	Sololá	701	Sololá	3	Barraneche	4	Abril	2023-02-04T00:00:00	2024-11-06T03:00:00	1	Precipitación	0
17504	7	Sololá	701	Sololá	3	Barraneche	4	Abril	2023-02-04T00:00:00	2024-11-06T03:00:00	8	Radiación solar	0
17505	7	Sololá	701	Sololá	3	Barraneche	4	Abril	2023-02-04T00:00:00	2024-11-06T04:00:00	2	Temperatura media	7.7
17506	7	Sololá	701	Sololá	3	Barraneche	4	Abril	2023-02-04T00:00:00	2024-11-06T04:00:00	4	Temperatura máxima	8.1
17507	7	Sololá	701	Sololá	3	Barraneche	4	Abril	2023-02-04T00:00:00	2024-11-06T04:00:00	3	Temperatura mínima	7.5
17508	7	Sololá	701	Sololá	3	Barraneche	4	Abril	2023-02-04T00:00:00	2024-11-06T04:00:00	5	Humedad	25
17509	7	Sololá	701	Sololá	3	Barraneche	4	Abril	2023-02-04T00:00:00	2024-11-06T04:00:00	6	Velocidad del viento	9.7
17510	7	Sololá	701	Sololá	3	Barraneche	4	Abril	2023-02-04T00:00:00	2024-11-06T04:00:00	7	Dirección del viento	9.66
17511	7	Sololá	701	Sololá	3	Barraneche	4	Abril	2023-02-04T00:00:00	2024-11-06T04:00:00	1	Precipitación	0
17512	7	Sololá	701	Sololá	3	Barraneche	4	Abril	2023-02-04T00:00:00	2024-11-06T04:00:00	8	Radiación solar	0
17513	7	Sololá	701	Sololá	3	Barraneche	4	Abril	2023-02-04T00:00:00	2024-11-06T05:00:00	2	Temperatura media	7.3
17514	7	Sololá	701	Sololá	3	Barraneche	4	Abril	2023-02-04T00:00:00	2024-11-06T05:00:00	4	Temperatura máxima	7.7
17515	7	Sololá	701	Sololá	3	Barraneche	4	Abril	2023-02-04T00:00:00	2024-11-06T05:00:00	3	Temperatura mínima	6.9
17516	7	Sololá	701	Sololá	3	Barraneche	4	Abril	2023-02-04T00:00:00	2024-11-06T05:00:00	5	Humedad	25
17517	7	Sololá	701	Sololá	3	Barraneche	4	Abril	2023-02-04T00:00:00	2024-11-06T05:00:00	6	Velocidad del viento	11.3
17518	7	Sololá	701	Sololá	3	Barraneche	4	Abril	2023-02-04T00:00:00	2024-11-06T05:00:00	7	Dirección del viento	11.27
17519	7	Sololá	701	Sololá	3	Barraneche	4	Abril	2023-02-04T00:00:00	2024-11-06T05:00:00	1	Precipitación	0
17520	7	Sololá	701	Sololá	3	Barraneche	4	Abril	2023-02-04T00:00:00	2024-11-06T05:00:00	8	Radiación solar	0
17521	7	Sololá	701	Sololá	3	Barraneche	4	Abril	2023-02-04T00:00:00	2024-11-06T06:00:00	2	Temperatura media	7.1
17522	7	Sololá	701	Sololá	3	Barraneche	4	Abril	2023-02-04T00:00:00	2024-11-06T06:00:00	4	Temperatura máxima	7.7
17523	7	Sololá	701	Sololá	3	Barraneche	4	Abril	2023-02-04T00:00:00	2024-11-06T06:00:00	3	Temperatura mínima	6.9
17524	7	Sololá	701	Sololá	3	Barraneche	4	Abril	2023-02-04T00:00:00	2024-11-06T06:00:00	5	Humedad	29
17525	7	Sololá	701	Sololá	3	Barraneche	4	Abril	2023-02-04T00:00:00	2024-11-06T06:00:00	6	Velocidad del viento	9.7
17526	7	Sololá	701	Sololá	3	Barraneche	4	Abril	2023-02-04T00:00:00	2024-11-06T06:00:00	7	Dirección del viento	9.66
17527	7	Sololá	701	Sololá	3	Barraneche	4	Abril	2023-02-04T00:00:00	2024-11-06T06:00:00	1	Precipitación	0
17528	7	Sololá	701	Sololá	3	Barraneche	4	Abril	2023-02-04T00:00:00	2024-11-06T06:00:00	8	Radiación solar	1
17529	7	Sololá	701	Sololá	3	Barraneche	4	Abril	2023-02-04T00:00:00	2024-11-06T07:00:00	2	Temperatura media	9.6
17530	7	Sololá	701	Sololá	3	Barraneche	4	Abril	2023-02-04T00:00:00	2024-11-06T07:00:00	4	Temperatura máxima	9.6
17531	7	Sololá	701	Sololá	3	Barraneche	4	Abril	2023-02-04T00:00:00	2024-11-06T07:00:00	3	Temperatura mínima	7.1
17532	7	Sololá	701	Sololá	3	Barraneche	4	Abril	2023-02-04T00:00:00	2024-11-06T07:00:00	5	Humedad	51
17533	7	Sololá	701	Sololá	3	Barraneche	4	Abril	2023-02-04T00:00:00	2024-11-06T07:00:00	6	Velocidad del viento	3.2
17534	7	Sololá	701	Sololá	3	Barraneche	4	Abril	2023-02-04T00:00:00	2024-11-06T07:00:00	7	Dirección del viento	3.22
17535	7	Sololá	701	Sololá	3	Barraneche	4	Abril	2023-02-04T00:00:00	2024-11-06T07:00:00	1	Precipitación	0
17536	7	Sololá	701	Sololá	3	Barraneche	4	Abril	2023-02-04T00:00:00	2024-11-06T07:00:00	8	Radiación solar	41
17537	7	Sololá	701	Sololá	3	Barraneche	4	Abril	2023-02-04T00:00:00	2024-11-06T08:00:00	2	Temperatura media	16.2
17538	7	Sololá	701	Sololá	3	Barraneche	4	Abril	2023-02-04T00:00:00	2024-11-06T08:00:00	4	Temperatura máxima	16.2
17539	7	Sololá	701	Sololá	3	Barraneche	4	Abril	2023-02-04T00:00:00	2024-11-06T08:00:00	3	Temperatura mínima	9.6
17540	7	Sololá	701	Sololá	3	Barraneche	4	Abril	2023-02-04T00:00:00	2024-11-06T08:00:00	5	Humedad	34
17541	7	Sololá	701	Sololá	3	Barraneche	4	Abril	2023-02-04T00:00:00	2024-11-06T08:00:00	6	Velocidad del viento	4.8
17542	7	Sololá	701	Sololá	3	Barraneche	4	Abril	2023-02-04T00:00:00	2024-11-06T08:00:00	7	Dirección del viento	4.83
17543	7	Sololá	701	Sololá	3	Barraneche	4	Abril	2023-02-04T00:00:00	2024-11-06T08:00:00	1	Precipitación	0
17544	7	Sololá	701	Sololá	3	Barraneche	4	Abril	2023-02-04T00:00:00	2024-11-06T08:00:00	8	Radiación solar	342
17545	7	Sololá	701	Sololá	3	Barraneche	4	Abril	2023-02-04T00:00:00	2024-11-06T09:00:00	2	Temperatura media	16.7
17546	7	Sololá	701	Sololá	3	Barraneche	4	Abril	2023-02-04T00:00:00	2024-11-06T09:00:00	4	Temperatura máxima	16.8
17547	7	Sololá	701	Sololá	3	Barraneche	4	Abril	2023-02-04T00:00:00	2024-11-06T09:00:00	3	Temperatura mínima	16.2
17548	7	Sololá	701	Sololá	3	Barraneche	4	Abril	2023-02-04T00:00:00	2024-11-06T09:00:00	5	Humedad	40
17549	7	Sololá	701	Sololá	3	Barraneche	4	Abril	2023-02-04T00:00:00	2024-11-06T09:00:00	6	Velocidad del viento	14.5
17550	7	Sololá	701	Sololá	3	Barraneche	4	Abril	2023-02-04T00:00:00	2024-11-06T09:00:00	7	Dirección del viento	14.48
17551	7	Sololá	701	Sololá	3	Barraneche	4	Abril	2023-02-04T00:00:00	2024-11-06T09:00:00	1	Precipitación	0
17552	7	Sololá	701	Sololá	3	Barraneche	4	Abril	2023-02-04T00:00:00	2024-11-06T09:00:00	8	Radiación solar	604
17553	7	Sololá	701	Sololá	3	Barraneche	4	Abril	2023-02-04T00:00:00	2024-11-06T10:00:00	2	Temperatura media	17.9
17554	7	Sololá	701	Sololá	3	Barraneche	4	Abril	2023-02-04T00:00:00	2024-11-06T10:00:00	4	Temperatura máxima	18.1
17555	7	Sololá	701	Sololá	3	Barraneche	4	Abril	2023-02-04T00:00:00	2024-11-06T10:00:00	3	Temperatura mínima	16.7
17556	7	Sololá	701	Sololá	3	Barraneche	4	Abril	2023-02-04T00:00:00	2024-11-06T10:00:00	5	Humedad	34
17557	7	Sololá	701	Sololá	3	Barraneche	4	Abril	2023-02-04T00:00:00	2024-11-06T10:00:00	6	Velocidad del viento	22.5
17558	7	Sololá	701	Sololá	3	Barraneche	4	Abril	2023-02-04T00:00:00	2024-11-06T10:00:00	7	Dirección del viento	22.53
17559	7	Sololá	701	Sololá	3	Barraneche	4	Abril	2023-02-04T00:00:00	2024-11-06T10:00:00	1	Precipitación	0
17560	7	Sololá	701	Sololá	3	Barraneche	4	Abril	2023-02-04T00:00:00	2024-11-06T10:00:00	8	Radiación solar	821
17561	7	Sololá	701	Sololá	3	Barraneche	4	Abril	2023-02-04T00:00:00	2024-11-06T11:00:00	2	Temperatura media	19.8
17562	7	Sololá	701	Sololá	3	Barraneche	4	Abril	2023-02-04T00:00:00	2024-11-06T11:00:00	4	Temperatura máxima	19.9
17563	7	Sololá	701	Sololá	3	Barraneche	4	Abril	2023-02-04T00:00:00	2024-11-06T11:00:00	3	Temperatura mínima	17.9
17564	7	Sololá	701	Sololá	3	Barraneche	4	Abril	2023-02-04T00:00:00	2024-11-06T11:00:00	5	Humedad	17
17565	7	Sololá	701	Sololá	3	Barraneche	4	Abril	2023-02-04T00:00:00	2024-11-06T11:00:00	6	Velocidad del viento	19.3
17566	7	Sololá	701	Sololá	3	Barraneche	4	Abril	2023-02-04T00:00:00	2024-11-06T11:00:00	7	Dirección del viento	19.31
17567	7	Sololá	701	Sololá	3	Barraneche	4	Abril	2023-02-04T00:00:00	2024-11-06T11:00:00	1	Precipitación	0
17568	7	Sololá	701	Sololá	3	Barraneche	4	Abril	2023-02-04T00:00:00	2024-11-06T11:00:00	8	Radiación solar	975
17569	7	Sololá	701	Sololá	3	Barraneche	4	Abril	2023-02-04T00:00:00	2024-11-06T12:00:00	2	Temperatura media	20.2
17570	7	Sololá	701	Sololá	3	Barraneche	4	Abril	2023-02-04T00:00:00	2024-11-06T12:00:00	4	Temperatura máxima	20.4
17571	7	Sololá	701	Sololá	3	Barraneche	4	Abril	2023-02-04T00:00:00	2024-11-06T12:00:00	3	Temperatura mínima	19.7
17572	7	Sololá	701	Sololá	3	Barraneche	4	Abril	2023-02-04T00:00:00	2024-11-06T12:00:00	5	Humedad	14
17573	7	Sololá	701	Sololá	3	Barraneche	4	Abril	2023-02-04T00:00:00	2024-11-06T12:00:00	6	Velocidad del viento	19.3
17574	7	Sololá	701	Sololá	3	Barraneche	4	Abril	2023-02-04T00:00:00	2024-11-06T12:00:00	7	Dirección del viento	19.31
17575	7	Sololá	701	Sololá	3	Barraneche	4	Abril	2023-02-04T00:00:00	2024-11-06T12:00:00	1	Precipitación	0
17576	7	Sololá	701	Sololá	3	Barraneche	4	Abril	2023-02-04T00:00:00	2024-11-06T12:00:00	8	Radiación solar	1067
17577	7	Sololá	701	Sololá	3	Barraneche	4	Abril	2023-02-04T00:00:00	2024-11-06T13:00:00	2	Temperatura media	21.3
17578	7	Sololá	701	Sololá	3	Barraneche	4	Abril	2023-02-04T00:00:00	2024-11-06T13:00:00	4	Temperatura máxima	21.6
17579	7	Sololá	701	Sololá	3	Barraneche	4	Abril	2023-02-04T00:00:00	2024-11-06T13:00:00	3	Temperatura mínima	20.2
17580	7	Sololá	701	Sololá	3	Barraneche	4	Abril	2023-02-04T00:00:00	2024-11-06T13:00:00	5	Humedad	18
17581	7	Sololá	701	Sololá	3	Barraneche	4	Abril	2023-02-04T00:00:00	2024-11-06T13:00:00	6	Velocidad del viento	16.1
17582	7	Sololá	701	Sololá	3	Barraneche	4	Abril	2023-02-04T00:00:00	2024-11-06T13:00:00	7	Dirección del viento	16.09
17583	7	Sololá	701	Sololá	3	Barraneche	4	Abril	2023-02-04T00:00:00	2024-11-06T13:00:00	1	Precipitación	0
17584	7	Sololá	701	Sololá	3	Barraneche	4	Abril	2023-02-04T00:00:00	2024-11-06T13:00:00	8	Radiación solar	1072
17585	7	Sololá	701	Sololá	3	Barraneche	4	Abril	2023-02-04T00:00:00	2024-11-06T14:00:00	2	Temperatura media	21.5
17586	7	Sololá	701	Sololá	3	Barraneche	4	Abril	2023-02-04T00:00:00	2024-11-06T14:00:00	4	Temperatura máxima	21.6
17587	7	Sololá	701	Sololá	3	Barraneche	4	Abril	2023-02-04T00:00:00	2024-11-06T14:00:00	3	Temperatura mínima	20.6
17588	7	Sololá	701	Sololá	3	Barraneche	4	Abril	2023-02-04T00:00:00	2024-11-06T14:00:00	5	Humedad	20
17589	7	Sololá	701	Sololá	3	Barraneche	4	Abril	2023-02-04T00:00:00	2024-11-06T14:00:00	6	Velocidad del viento	14.5
17590	7	Sololá	701	Sololá	3	Barraneche	4	Abril	2023-02-04T00:00:00	2024-11-06T14:00:00	7	Dirección del viento	14.48
17591	7	Sololá	701	Sololá	3	Barraneche	4	Abril	2023-02-04T00:00:00	2024-11-06T14:00:00	1	Precipitación	0
17592	7	Sololá	701	Sololá	3	Barraneche	4	Abril	2023-02-04T00:00:00	2024-11-06T14:00:00	8	Radiación solar	996
17593	7	Sololá	701	Sololá	3	Barraneche	4	Abril	2023-02-04T00:00:00	2024-11-06T15:00:00	2	Temperatura media	21.2
17594	7	Sololá	701	Sololá	3	Barraneche	4	Abril	2023-02-04T00:00:00	2024-11-06T15:00:00	4	Temperatura máxima	21.4
17595	7	Sololá	701	Sololá	3	Barraneche	4	Abril	2023-02-04T00:00:00	2024-11-06T15:00:00	3	Temperatura mínima	20.7
17596	7	Sololá	701	Sololá	3	Barraneche	4	Abril	2023-02-04T00:00:00	2024-11-06T15:00:00	5	Humedad	15
17597	7	Sololá	701	Sololá	3	Barraneche	4	Abril	2023-02-04T00:00:00	2024-11-06T15:00:00	6	Velocidad del viento	14.5
17598	7	Sololá	701	Sololá	3	Barraneche	4	Abril	2023-02-04T00:00:00	2024-11-06T15:00:00	7	Dirección del viento	14.48
17599	7	Sololá	701	Sololá	3	Barraneche	4	Abril	2023-02-04T00:00:00	2024-11-06T15:00:00	1	Precipitación	0
17600	7	Sololá	701	Sololá	3	Barraneche	4	Abril	2023-02-04T00:00:00	2024-11-06T15:00:00	8	Radiación solar	840
17601	7	Sololá	701	Sololá	3	Barraneche	4	Abril	2023-02-04T00:00:00	2024-11-06T16:00:00	2	Temperatura media	20.3
17602	7	Sololá	701	Sololá	3	Barraneche	4	Abril	2023-02-04T00:00:00	2024-11-06T16:00:00	4	Temperatura máxima	21.2
17603	7	Sololá	701	Sololá	3	Barraneche	4	Abril	2023-02-04T00:00:00	2024-11-06T16:00:00	3	Temperatura mínima	20.2
17604	7	Sololá	701	Sololá	3	Barraneche	4	Abril	2023-02-04T00:00:00	2024-11-06T16:00:00	5	Humedad	15
17605	7	Sololá	701	Sololá	3	Barraneche	4	Abril	2023-02-04T00:00:00	2024-11-06T16:00:00	6	Velocidad del viento	14.5
17606	7	Sololá	701	Sololá	3	Barraneche	4	Abril	2023-02-04T00:00:00	2024-11-06T16:00:00	7	Dirección del viento	14.48
17607	7	Sololá	701	Sololá	3	Barraneche	4	Abril	2023-02-04T00:00:00	2024-11-06T16:00:00	1	Precipitación	0
17608	7	Sololá	701	Sololá	3	Barraneche	4	Abril	2023-02-04T00:00:00	2024-11-06T16:00:00	8	Radiación solar	511
17609	7	Sololá	701	Sololá	3	Barraneche	4	Abril	2023-02-04T00:00:00	2024-11-06T17:00:00	2	Temperatura media	19.5
17610	7	Sololá	701	Sololá	3	Barraneche	4	Abril	2023-02-04T00:00:00	2024-11-06T17:00:00	4	Temperatura máxima	20.4
17611	7	Sololá	701	Sololá	3	Barraneche	4	Abril	2023-02-04T00:00:00	2024-11-06T17:00:00	3	Temperatura mínima	19.5
17612	7	Sololá	701	Sololá	3	Barraneche	4	Abril	2023-02-04T00:00:00	2024-11-06T17:00:00	5	Humedad	19
17613	7	Sololá	701	Sololá	3	Barraneche	4	Abril	2023-02-04T00:00:00	2024-11-06T17:00:00	6	Velocidad del viento	14.5
17614	7	Sololá	701	Sololá	3	Barraneche	4	Abril	2023-02-04T00:00:00	2024-11-06T17:00:00	7	Dirección del viento	14.48
17615	7	Sololá	701	Sololá	3	Barraneche	4	Abril	2023-02-04T00:00:00	2024-11-06T17:00:00	1	Precipitación	0
17616	7	Sololá	701	Sololá	3	Barraneche	4	Abril	2023-02-04T00:00:00	2024-11-06T17:00:00	8	Radiación solar	281
17617	7	Sololá	701	Sololá	3	Barraneche	4	Abril	2023-02-04T00:00:00	2024-11-06T18:00:00	2	Temperatura media	17.9
17618	7	Sololá	701	Sololá	3	Barraneche	4	Abril	2023-02-04T00:00:00	2024-11-06T18:00:00	4	Temperatura máxima	19.6
17619	7	Sololá	701	Sololá	3	Barraneche	4	Abril	2023-02-04T00:00:00	2024-11-06T18:00:00	3	Temperatura mínima	17.9
17620	7	Sololá	701	Sololá	3	Barraneche	4	Abril	2023-02-04T00:00:00	2024-11-06T18:00:00	5	Humedad	30
17621	7	Sololá	701	Sololá	3	Barraneche	4	Abril	2023-02-04T00:00:00	2024-11-06T18:00:00	6	Velocidad del viento	8
17622	7	Sololá	701	Sololá	3	Barraneche	4	Abril	2023-02-04T00:00:00	2024-11-06T18:00:00	7	Dirección del viento	8.05
17623	7	Sololá	701	Sololá	3	Barraneche	4	Abril	2023-02-04T00:00:00	2024-11-06T18:00:00	1	Precipitación	0
17624	7	Sololá	701	Sololá	3	Barraneche	4	Abril	2023-02-04T00:00:00	2024-11-06T18:00:00	8	Radiación solar	105
17625	7	Sololá	701	Sololá	3	Barraneche	4	Abril	2023-02-04T00:00:00	2024-11-06T19:00:00	2	Temperatura media	16.1
17626	7	Sololá	701	Sololá	3	Barraneche	4	Abril	2023-02-04T00:00:00	2024-11-06T19:00:00	4	Temperatura máxima	17.9
17627	7	Sololá	701	Sololá	3	Barraneche	4	Abril	2023-02-04T00:00:00	2024-11-06T19:00:00	3	Temperatura mínima	16.1
17628	7	Sololá	701	Sololá	3	Barraneche	4	Abril	2023-02-04T00:00:00	2024-11-06T19:00:00	5	Humedad	38
17629	7	Sololá	701	Sololá	3	Barraneche	4	Abril	2023-02-04T00:00:00	2024-11-06T19:00:00	6	Velocidad del viento	8
17630	7	Sololá	701	Sololá	3	Barraneche	4	Abril	2023-02-04T00:00:00	2024-11-06T19:00:00	7	Dirección del viento	8.05
17631	7	Sololá	701	Sololá	3	Barraneche	4	Abril	2023-02-04T00:00:00	2024-11-06T19:00:00	1	Precipitación	0
17632	7	Sololá	701	Sololá	3	Barraneche	4	Abril	2023-02-04T00:00:00	2024-11-06T19:00:00	8	Radiación solar	0
17633	7	Sololá	701	Sololá	3	Barraneche	4	Abril	2023-02-04T00:00:00	2024-11-06T20:00:00	2	Temperatura media	14.6
17634	7	Sololá	701	Sololá	3	Barraneche	4	Abril	2023-02-04T00:00:00	2024-11-06T20:00:00	4	Temperatura máxima	16.1
17635	7	Sololá	701	Sololá	3	Barraneche	4	Abril	2023-02-04T00:00:00	2024-11-06T20:00:00	3	Temperatura mínima	14.5
17636	7	Sololá	701	Sololá	3	Barraneche	4	Abril	2023-02-04T00:00:00	2024-11-06T20:00:00	5	Humedad	56
17637	7	Sololá	701	Sololá	3	Barraneche	4	Abril	2023-02-04T00:00:00	2024-11-06T20:00:00	6	Velocidad del viento	8
17638	7	Sololá	701	Sololá	3	Barraneche	4	Abril	2023-02-04T00:00:00	2024-11-06T20:00:00	7	Dirección del viento	8.05
17639	7	Sololá	701	Sololá	3	Barraneche	4	Abril	2023-02-04T00:00:00	2024-11-06T20:00:00	1	Precipitación	0
17640	7	Sololá	701	Sololá	3	Barraneche	4	Abril	2023-02-04T00:00:00	2024-11-06T20:00:00	8	Radiación solar	0
17641	7	Sololá	701	Sololá	3	Barraneche	4	Abril	2023-02-04T00:00:00	2024-11-06T21:00:00	2	Temperatura media	12.5
17642	7	Sololá	701	Sololá	3	Barraneche	4	Abril	2023-02-04T00:00:00	2024-11-06T21:00:00	4	Temperatura máxima	14.6
17643	7	Sololá	701	Sololá	3	Barraneche	4	Abril	2023-02-04T00:00:00	2024-11-06T21:00:00	3	Temperatura mínima	12.5
17644	7	Sololá	701	Sololá	3	Barraneche	4	Abril	2023-02-04T00:00:00	2024-11-06T21:00:00	5	Humedad	54
17645	7	Sololá	701	Sololá	3	Barraneche	4	Abril	2023-02-04T00:00:00	2024-11-06T21:00:00	6	Velocidad del viento	6.4
17646	7	Sololá	701	Sololá	3	Barraneche	4	Abril	2023-02-04T00:00:00	2024-11-06T21:00:00	7	Dirección del viento	6.44
17647	7	Sololá	701	Sololá	3	Barraneche	4	Abril	2023-02-04T00:00:00	2024-11-06T21:00:00	1	Precipitación	0
17648	7	Sololá	701	Sololá	3	Barraneche	4	Abril	2023-02-04T00:00:00	2024-11-06T21:00:00	8	Radiación solar	0
17649	7	Sololá	701	Sololá	3	Barraneche	4	Abril	2023-02-04T00:00:00	2024-11-06T22:00:00	2	Temperatura media	10.8
17650	7	Sololá	701	Sololá	3	Barraneche	4	Abril	2023-02-04T00:00:00	2024-11-06T22:00:00	4	Temperatura máxima	12.4
17651	7	Sololá	701	Sololá	3	Barraneche	4	Abril	2023-02-04T00:00:00	2024-11-06T22:00:00	3	Temperatura mínima	10.8
17652	7	Sololá	701	Sololá	3	Barraneche	4	Abril	2023-02-04T00:00:00	2024-11-06T22:00:00	5	Humedad	57
17653	7	Sololá	701	Sololá	3	Barraneche	4	Abril	2023-02-04T00:00:00	2024-11-06T22:00:00	6	Velocidad del viento	4.8
17654	7	Sololá	701	Sololá	3	Barraneche	4	Abril	2023-02-04T00:00:00	2024-11-06T22:00:00	7	Dirección del viento	4.83
17655	7	Sololá	701	Sololá	3	Barraneche	4	Abril	2023-02-04T00:00:00	2024-11-06T22:00:00	1	Precipitación	0
17656	7	Sololá	701	Sololá	3	Barraneche	4	Abril	2023-02-04T00:00:00	2024-11-06T22:00:00	8	Radiación solar	0
17657	7	Sololá	701	Sololá	3	Barraneche	4	Abril	2023-02-04T00:00:00	2024-11-06T23:00:00	2	Temperatura media	10.3
17658	7	Sololá	701	Sololá	3	Barraneche	4	Abril	2023-02-04T00:00:00	2024-11-06T23:00:00	4	Temperatura máxima	11
17659	7	Sololá	701	Sololá	3	Barraneche	4	Abril	2023-02-04T00:00:00	2024-11-06T23:00:00	3	Temperatura mínima	10.1
17660	7	Sololá	701	Sololá	3	Barraneche	4	Abril	2023-02-04T00:00:00	2024-11-06T23:00:00	5	Humedad	45
17661	7	Sololá	701	Sololá	3	Barraneche	4	Abril	2023-02-04T00:00:00	2024-11-06T23:00:00	6	Velocidad del viento	8
17662	7	Sololá	701	Sololá	3	Barraneche	4	Abril	2023-02-04T00:00:00	2024-11-06T23:00:00	7	Dirección del viento	8.05
17663	7	Sololá	701	Sololá	3	Barraneche	4	Abril	2023-02-04T00:00:00	2024-11-06T23:00:00	1	Precipitación	0
17664	7	Sololá	701	Sololá	3	Barraneche	4	Abril	2023-02-04T00:00:00	2024-11-06T23:00:00	8	Radiación solar	0
17665	7	Sololá	701	Sololá	3	Barraneche	4	Abril	2023-03-04T00:00:00	2024-11-06T00:00:00	2	Temperatura media	10.3
17666	7	Sololá	701	Sololá	3	Barraneche	4	Abril	2023-03-04T00:00:00	2024-11-06T00:00:00	4	Temperatura máxima	10.9
17667	7	Sololá	701	Sololá	3	Barraneche	4	Abril	2023-03-04T00:00:00	2024-11-06T00:00:00	3	Temperatura mínima	10.2
17668	7	Sololá	701	Sololá	3	Barraneche	4	Abril	2023-03-04T00:00:00	2024-11-06T00:00:00	5	Humedad	42
17669	7	Sololá	701	Sololá	3	Barraneche	4	Abril	2023-03-04T00:00:00	2024-11-06T00:00:00	6	Velocidad del viento	8
17670	7	Sololá	701	Sololá	3	Barraneche	4	Abril	2023-03-04T00:00:00	2024-11-06T00:00:00	7	Dirección del viento	8.05
17671	7	Sololá	701	Sololá	3	Barraneche	4	Abril	2023-03-04T00:00:00	2024-11-06T00:00:00	1	Precipitación	0
17672	7	Sololá	701	Sololá	3	Barraneche	4	Abril	2023-03-04T00:00:00	2024-11-06T00:00:00	8	Radiación solar	0
17673	7	Sololá	701	Sololá	3	Barraneche	4	Abril	2023-03-04T00:00:00	2024-11-06T01:00:00	2	Temperatura media	9.9
17674	7	Sololá	701	Sololá	3	Barraneche	4	Abril	2023-03-04T00:00:00	2024-11-06T01:00:00	4	Temperatura máxima	10.8
17675	7	Sololá	701	Sololá	3	Barraneche	4	Abril	2023-03-04T00:00:00	2024-11-06T01:00:00	3	Temperatura mínima	9.9
17676	7	Sololá	701	Sololá	3	Barraneche	4	Abril	2023-03-04T00:00:00	2024-11-06T01:00:00	5	Humedad	42
17677	7	Sololá	701	Sololá	3	Barraneche	4	Abril	2023-03-04T00:00:00	2024-11-06T01:00:00	6	Velocidad del viento	8
17678	7	Sololá	701	Sololá	3	Barraneche	4	Abril	2023-03-04T00:00:00	2024-11-06T01:00:00	7	Dirección del viento	8.05
17679	7	Sololá	701	Sololá	3	Barraneche	4	Abril	2023-03-04T00:00:00	2024-11-06T01:00:00	1	Precipitación	0
17680	7	Sololá	701	Sololá	3	Barraneche	4	Abril	2023-03-04T00:00:00	2024-11-06T01:00:00	8	Radiación solar	0
17681	7	Sololá	701	Sololá	3	Barraneche	4	Abril	2023-03-04T00:00:00	2024-11-06T02:00:00	2	Temperatura media	9.9
17682	7	Sololá	701	Sololá	3	Barraneche	4	Abril	2023-03-04T00:00:00	2024-11-06T02:00:00	4	Temperatura máxima	10.2
17683	7	Sololá	701	Sololá	3	Barraneche	4	Abril	2023-03-04T00:00:00	2024-11-06T02:00:00	3	Temperatura mínima	9.6
17684	7	Sololá	701	Sololá	3	Barraneche	4	Abril	2023-03-04T00:00:00	2024-11-06T02:00:00	5	Humedad	43
17685	7	Sololá	701	Sololá	3	Barraneche	4	Abril	2023-03-04T00:00:00	2024-11-06T02:00:00	6	Velocidad del viento	8
17686	7	Sololá	701	Sololá	3	Barraneche	4	Abril	2023-03-04T00:00:00	2024-11-06T02:00:00	7	Dirección del viento	8.05
17687	7	Sololá	701	Sololá	3	Barraneche	4	Abril	2023-03-04T00:00:00	2024-11-06T02:00:00	1	Precipitación	0
17688	7	Sololá	701	Sololá	3	Barraneche	4	Abril	2023-03-04T00:00:00	2024-11-06T02:00:00	8	Radiación solar	0
17689	7	Sololá	701	Sololá	3	Barraneche	4	Abril	2023-03-04T00:00:00	2024-11-06T03:00:00	2	Temperatura media	9.6
17690	7	Sololá	701	Sololá	3	Barraneche	4	Abril	2023-03-04T00:00:00	2024-11-06T03:00:00	4	Temperatura máxima	9.9
17691	7	Sololá	701	Sololá	3	Barraneche	4	Abril	2023-03-04T00:00:00	2024-11-06T03:00:00	3	Temperatura mínima	9.5
17692	7	Sololá	701	Sololá	3	Barraneche	4	Abril	2023-03-04T00:00:00	2024-11-06T03:00:00	5	Humedad	47
17693	7	Sololá	701	Sololá	3	Barraneche	4	Abril	2023-03-04T00:00:00	2024-11-06T03:00:00	6	Velocidad del viento	9.7
17694	7	Sololá	701	Sololá	3	Barraneche	4	Abril	2023-03-04T00:00:00	2024-11-06T03:00:00	7	Dirección del viento	9.66
17695	7	Sololá	701	Sololá	3	Barraneche	4	Abril	2023-03-04T00:00:00	2024-11-06T03:00:00	1	Precipitación	0
17696	7	Sololá	701	Sololá	3	Barraneche	4	Abril	2023-03-04T00:00:00	2024-11-06T03:00:00	8	Radiación solar	0
17697	7	Sololá	701	Sololá	3	Barraneche	4	Abril	2023-03-04T00:00:00	2024-11-06T04:00:00	2	Temperatura media	9.1
17698	7	Sololá	701	Sololá	3	Barraneche	4	Abril	2023-03-04T00:00:00	2024-11-06T04:00:00	4	Temperatura máxima	9.7
17699	7	Sololá	701	Sololá	3	Barraneche	4	Abril	2023-03-04T00:00:00	2024-11-06T04:00:00	3	Temperatura mínima	9.1
17700	7	Sololá	701	Sololá	3	Barraneche	4	Abril	2023-03-04T00:00:00	2024-11-06T04:00:00	5	Humedad	49
17701	7	Sololá	701	Sololá	3	Barraneche	4	Abril	2023-03-04T00:00:00	2024-11-06T04:00:00	6	Velocidad del viento	8
17702	7	Sololá	701	Sololá	3	Barraneche	4	Abril	2023-03-04T00:00:00	2024-11-06T04:00:00	7	Dirección del viento	8.05
17703	7	Sololá	701	Sololá	3	Barraneche	4	Abril	2023-03-04T00:00:00	2024-11-06T04:00:00	1	Precipitación	0
17704	7	Sololá	701	Sololá	3	Barraneche	4	Abril	2023-03-04T00:00:00	2024-11-06T04:00:00	8	Radiación solar	0
17705	7	Sololá	701	Sololá	3	Barraneche	4	Abril	2023-03-04T00:00:00	2024-11-06T05:00:00	2	Temperatura media	8.8
17706	7	Sololá	701	Sololá	3	Barraneche	4	Abril	2023-03-04T00:00:00	2024-11-06T05:00:00	4	Temperatura máxima	9.3
17707	7	Sololá	701	Sololá	3	Barraneche	4	Abril	2023-03-04T00:00:00	2024-11-06T05:00:00	3	Temperatura mínima	8.6
17708	7	Sololá	701	Sololá	3	Barraneche	4	Abril	2023-03-04T00:00:00	2024-11-06T05:00:00	5	Humedad	50
17709	7	Sololá	701	Sololá	3	Barraneche	4	Abril	2023-03-04T00:00:00	2024-11-06T05:00:00	6	Velocidad del viento	9.7
17710	7	Sololá	701	Sololá	3	Barraneche	4	Abril	2023-03-04T00:00:00	2024-11-06T05:00:00	7	Dirección del viento	9.66
17711	7	Sololá	701	Sololá	3	Barraneche	4	Abril	2023-03-04T00:00:00	2024-11-06T05:00:00	1	Precipitación	0
17712	7	Sololá	701	Sololá	3	Barraneche	4	Abril	2023-03-04T00:00:00	2024-11-06T05:00:00	8	Radiación solar	0
17713	7	Sololá	701	Sololá	3	Barraneche	4	Abril	2023-03-04T00:00:00	2024-11-06T06:00:00	2	Temperatura media	8.8
17714	7	Sololá	701	Sololá	3	Barraneche	4	Abril	2023-03-04T00:00:00	2024-11-06T06:00:00	4	Temperatura máxima	9
17715	7	Sololá	701	Sololá	3	Barraneche	4	Abril	2023-03-04T00:00:00	2024-11-06T06:00:00	3	Temperatura mínima	8.7
17716	7	Sololá	701	Sololá	3	Barraneche	4	Abril	2023-03-04T00:00:00	2024-11-06T06:00:00	5	Humedad	54
17717	7	Sololá	701	Sololá	3	Barraneche	4	Abril	2023-03-04T00:00:00	2024-11-06T06:00:00	6	Velocidad del viento	11.3
17718	7	Sololá	701	Sololá	3	Barraneche	4	Abril	2023-03-04T00:00:00	2024-11-06T06:00:00	7	Dirección del viento	11.27
17719	7	Sololá	701	Sololá	3	Barraneche	4	Abril	2023-03-04T00:00:00	2024-11-06T06:00:00	1	Precipitación	0
17720	7	Sololá	701	Sololá	3	Barraneche	4	Abril	2023-03-04T00:00:00	2024-11-06T06:00:00	8	Radiación solar	0
17721	7	Sololá	701	Sololá	3	Barraneche	4	Abril	2023-03-04T00:00:00	2024-11-06T07:00:00	2	Temperatura media	10.4
17722	7	Sololá	701	Sololá	3	Barraneche	4	Abril	2023-03-04T00:00:00	2024-11-06T07:00:00	4	Temperatura máxima	10.4
17723	7	Sololá	701	Sololá	3	Barraneche	4	Abril	2023-03-04T00:00:00	2024-11-06T07:00:00	3	Temperatura mínima	8.4
17724	7	Sololá	701	Sololá	3	Barraneche	4	Abril	2023-03-04T00:00:00	2024-11-06T07:00:00	5	Humedad	59
17725	7	Sololá	701	Sololá	3	Barraneche	4	Abril	2023-03-04T00:00:00	2024-11-06T07:00:00	6	Velocidad del viento	8
17726	7	Sololá	701	Sololá	3	Barraneche	4	Abril	2023-03-04T00:00:00	2024-11-06T07:00:00	7	Dirección del viento	8.05
17727	7	Sololá	701	Sololá	3	Barraneche	4	Abril	2023-03-04T00:00:00	2024-11-06T07:00:00	1	Precipitación	0
17728	7	Sololá	701	Sololá	3	Barraneche	4	Abril	2023-03-04T00:00:00	2024-11-06T07:00:00	8	Radiación solar	43
17729	7	Sololá	701	Sololá	3	Barraneche	4	Abril	2023-03-04T00:00:00	2024-11-06T08:00:00	2	Temperatura media	14.4
17730	7	Sololá	701	Sololá	3	Barraneche	4	Abril	2023-03-04T00:00:00	2024-11-06T08:00:00	4	Temperatura máxima	14.4
17731	7	Sololá	701	Sololá	3	Barraneche	4	Abril	2023-03-04T00:00:00	2024-11-06T08:00:00	3	Temperatura mínima	10.4
17732	7	Sololá	701	Sololá	3	Barraneche	4	Abril	2023-03-04T00:00:00	2024-11-06T08:00:00	5	Humedad	53
17733	7	Sololá	701	Sololá	3	Barraneche	4	Abril	2023-03-04T00:00:00	2024-11-06T08:00:00	6	Velocidad del viento	4.8
17734	7	Sololá	701	Sololá	3	Barraneche	4	Abril	2023-03-04T00:00:00	2024-11-06T08:00:00	7	Dirección del viento	4.83
17735	7	Sololá	701	Sololá	3	Barraneche	4	Abril	2023-03-04T00:00:00	2024-11-06T08:00:00	1	Precipitación	0
17736	7	Sololá	701	Sololá	3	Barraneche	4	Abril	2023-03-04T00:00:00	2024-11-06T08:00:00	8	Radiación solar	327
17737	7	Sololá	701	Sololá	3	Barraneche	4	Abril	2023-03-04T00:00:00	2024-11-06T09:00:00	2	Temperatura media	16.7
17738	7	Sololá	701	Sololá	3	Barraneche	4	Abril	2023-03-04T00:00:00	2024-11-06T09:00:00	4	Temperatura máxima	16.8
17739	7	Sololá	701	Sololá	3	Barraneche	4	Abril	2023-03-04T00:00:00	2024-11-06T09:00:00	3	Temperatura mínima	14.4
17740	7	Sololá	701	Sololá	3	Barraneche	4	Abril	2023-03-04T00:00:00	2024-11-06T09:00:00	5	Humedad	48
17741	7	Sololá	701	Sololá	3	Barraneche	4	Abril	2023-03-04T00:00:00	2024-11-06T09:00:00	6	Velocidad del viento	4.8
17742	7	Sololá	701	Sololá	3	Barraneche	4	Abril	2023-03-04T00:00:00	2024-11-06T09:00:00	7	Dirección del viento	4.83
17743	7	Sololá	701	Sololá	3	Barraneche	4	Abril	2023-03-04T00:00:00	2024-11-06T09:00:00	1	Precipitación	0
17744	7	Sololá	701	Sololá	3	Barraneche	4	Abril	2023-03-04T00:00:00	2024-11-06T09:00:00	8	Radiación solar	586
17745	7	Sololá	701	Sololá	3	Barraneche	4	Abril	2023-03-04T00:00:00	2024-11-06T10:00:00	2	Temperatura media	18.2
17746	7	Sololá	701	Sololá	3	Barraneche	4	Abril	2023-03-04T00:00:00	2024-11-06T10:00:00	4	Temperatura máxima	18.2
17747	7	Sololá	701	Sololá	3	Barraneche	4	Abril	2023-03-04T00:00:00	2024-11-06T10:00:00	3	Temperatura mínima	16.7
17748	7	Sololá	701	Sololá	3	Barraneche	4	Abril	2023-03-04T00:00:00	2024-11-06T10:00:00	5	Humedad	49
17749	7	Sololá	701	Sololá	3	Barraneche	4	Abril	2023-03-04T00:00:00	2024-11-06T10:00:00	6	Velocidad del viento	8
17750	7	Sololá	701	Sololá	3	Barraneche	4	Abril	2023-03-04T00:00:00	2024-11-06T10:00:00	7	Dirección del viento	8.05
17751	7	Sololá	701	Sololá	3	Barraneche	4	Abril	2023-03-04T00:00:00	2024-11-06T10:00:00	1	Precipitación	0
17752	7	Sololá	701	Sololá	3	Barraneche	4	Abril	2023-03-04T00:00:00	2024-11-06T10:00:00	8	Radiación solar	788
17753	7	Sololá	701	Sololá	3	Barraneche	4	Abril	2023-03-04T00:00:00	2024-11-06T11:00:00	2	Temperatura media	18.3
17754	7	Sololá	701	Sololá	3	Barraneche	4	Abril	2023-03-04T00:00:00	2024-11-06T11:00:00	4	Temperatura máxima	18.3
17755	7	Sololá	701	Sololá	3	Barraneche	4	Abril	2023-03-04T00:00:00	2024-11-06T11:00:00	3	Temperatura mínima	17.7
17756	7	Sololá	701	Sololá	3	Barraneche	4	Abril	2023-03-04T00:00:00	2024-11-06T11:00:00	5	Humedad	50
17757	7	Sololá	701	Sololá	3	Barraneche	4	Abril	2023-03-04T00:00:00	2024-11-06T11:00:00	6	Velocidad del viento	12.9
17758	7	Sololá	701	Sololá	3	Barraneche	4	Abril	2023-03-04T00:00:00	2024-11-06T11:00:00	7	Dirección del viento	12.87
17759	7	Sololá	701	Sololá	3	Barraneche	4	Abril	2023-03-04T00:00:00	2024-11-06T11:00:00	1	Precipitación	0
17760	7	Sololá	701	Sololá	3	Barraneche	4	Abril	2023-03-04T00:00:00	2024-11-06T11:00:00	8	Radiación solar	945
17761	7	Sololá	701	Sololá	3	Barraneche	4	Abril	2023-03-04T00:00:00	2024-11-06T12:00:00	2	Temperatura media	19.3
17762	7	Sololá	701	Sololá	3	Barraneche	4	Abril	2023-03-04T00:00:00	2024-11-06T12:00:00	4	Temperatura máxima	19.7
17763	7	Sololá	701	Sololá	3	Barraneche	4	Abril	2023-03-04T00:00:00	2024-11-06T12:00:00	3	Temperatura mínima	18.3
17764	7	Sololá	701	Sololá	3	Barraneche	4	Abril	2023-03-04T00:00:00	2024-11-06T12:00:00	5	Humedad	50
17765	7	Sololá	701	Sololá	3	Barraneche	4	Abril	2023-03-04T00:00:00	2024-11-06T12:00:00	6	Velocidad del viento	12.9
17766	7	Sololá	701	Sololá	3	Barraneche	4	Abril	2023-03-04T00:00:00	2024-11-06T12:00:00	7	Dirección del viento	12.87
17767	7	Sololá	701	Sololá	3	Barraneche	4	Abril	2023-03-04T00:00:00	2024-11-06T12:00:00	1	Precipitación	0
17768	7	Sololá	701	Sololá	3	Barraneche	4	Abril	2023-03-04T00:00:00	2024-11-06T12:00:00	8	Radiación solar	1030
17769	7	Sololá	701	Sololá	3	Barraneche	4	Abril	2023-03-04T00:00:00	2024-11-06T13:00:00	2	Temperatura media	18.3
17770	7	Sololá	701	Sololá	3	Barraneche	4	Abril	2023-03-04T00:00:00	2024-11-06T13:00:00	4	Temperatura máxima	19.6
17771	7	Sololá	701	Sololá	3	Barraneche	4	Abril	2023-03-04T00:00:00	2024-11-06T13:00:00	3	Temperatura mínima	18.3
17772	7	Sololá	701	Sololá	3	Barraneche	4	Abril	2023-03-04T00:00:00	2024-11-06T13:00:00	5	Humedad	58
17773	7	Sololá	701	Sololá	3	Barraneche	4	Abril	2023-03-04T00:00:00	2024-11-06T13:00:00	6	Velocidad del viento	14.5
17774	7	Sololá	701	Sololá	3	Barraneche	4	Abril	2023-03-04T00:00:00	2024-11-06T13:00:00	7	Dirección del viento	14.48
17775	7	Sololá	701	Sololá	3	Barraneche	4	Abril	2023-03-04T00:00:00	2024-11-06T13:00:00	1	Precipitación	0
17776	7	Sololá	701	Sololá	3	Barraneche	4	Abril	2023-03-04T00:00:00	2024-11-06T13:00:00	8	Radiación solar	1029
17777	7	Sololá	701	Sololá	3	Barraneche	4	Abril	2023-03-04T00:00:00	2024-11-06T14:00:00	2	Temperatura media	17.7
17778	7	Sololá	701	Sololá	3	Barraneche	4	Abril	2023-03-04T00:00:00	2024-11-06T14:00:00	4	Temperatura máxima	18.5
17779	7	Sololá	701	Sololá	3	Barraneche	4	Abril	2023-03-04T00:00:00	2024-11-06T14:00:00	3	Temperatura mínima	17.6
17780	7	Sololá	701	Sololá	3	Barraneche	4	Abril	2023-03-04T00:00:00	2024-11-06T14:00:00	5	Humedad	62
17781	7	Sololá	701	Sololá	3	Barraneche	4	Abril	2023-03-04T00:00:00	2024-11-06T14:00:00	6	Velocidad del viento	14.5
17782	7	Sololá	701	Sololá	3	Barraneche	4	Abril	2023-03-04T00:00:00	2024-11-06T14:00:00	7	Dirección del viento	14.48
17783	7	Sololá	701	Sololá	3	Barraneche	4	Abril	2023-03-04T00:00:00	2024-11-06T14:00:00	1	Precipitación	0
17784	7	Sololá	701	Sololá	3	Barraneche	4	Abril	2023-03-04T00:00:00	2024-11-06T14:00:00	8	Radiación solar	981
17785	7	Sololá	701	Sololá	3	Barraneche	4	Abril	2023-03-04T00:00:00	2024-11-06T15:00:00	2	Temperatura media	17.6
17786	7	Sololá	701	Sololá	3	Barraneche	4	Abril	2023-03-04T00:00:00	2024-11-06T15:00:00	4	Temperatura máxima	17.9
17787	7	Sololá	701	Sololá	3	Barraneche	4	Abril	2023-03-04T00:00:00	2024-11-06T15:00:00	3	Temperatura mínima	17.2
17788	7	Sololá	701	Sololá	3	Barraneche	4	Abril	2023-03-04T00:00:00	2024-11-06T15:00:00	5	Humedad	63
17789	7	Sololá	701	Sololá	3	Barraneche	4	Abril	2023-03-04T00:00:00	2024-11-06T15:00:00	6	Velocidad del viento	12.9
17790	7	Sololá	701	Sololá	3	Barraneche	4	Abril	2023-03-04T00:00:00	2024-11-06T15:00:00	7	Dirección del viento	12.87
17791	7	Sololá	701	Sololá	3	Barraneche	4	Abril	2023-03-04T00:00:00	2024-11-06T15:00:00	1	Precipitación	0
17792	7	Sololá	701	Sololá	3	Barraneche	4	Abril	2023-03-04T00:00:00	2024-11-06T15:00:00	8	Radiación solar	810
17793	7	Sololá	701	Sololá	3	Barraneche	4	Abril	2023-03-04T00:00:00	2024-11-06T16:00:00	2	Temperatura media	16.2
17794	7	Sololá	701	Sololá	3	Barraneche	4	Abril	2023-03-04T00:00:00	2024-11-06T16:00:00	4	Temperatura máxima	17.8
17795	7	Sololá	701	Sololá	3	Barraneche	4	Abril	2023-03-04T00:00:00	2024-11-06T16:00:00	3	Temperatura mínima	16.1
17796	7	Sololá	701	Sololá	3	Barraneche	4	Abril	2023-03-04T00:00:00	2024-11-06T16:00:00	5	Humedad	68
17797	7	Sololá	701	Sololá	3	Barraneche	4	Abril	2023-03-04T00:00:00	2024-11-06T16:00:00	6	Velocidad del viento	11.3
17798	7	Sololá	701	Sololá	3	Barraneche	4	Abril	2023-03-04T00:00:00	2024-11-06T16:00:00	7	Dirección del viento	11.27
17799	7	Sololá	701	Sololá	3	Barraneche	4	Abril	2023-03-04T00:00:00	2024-11-06T16:00:00	1	Precipitación	0
17800	7	Sololá	701	Sololá	3	Barraneche	4	Abril	2023-03-04T00:00:00	2024-11-06T16:00:00	8	Radiación solar	316
17801	7	Sololá	701	Sololá	3	Barraneche	4	Abril	2023-03-04T00:00:00	2024-11-06T17:00:00	2	Temperatura media	17.2
17802	7	Sololá	701	Sololá	3	Barraneche	4	Abril	2023-03-04T00:00:00	2024-11-06T17:00:00	4	Temperatura máxima	17.2
17803	7	Sololá	701	Sololá	3	Barraneche	4	Abril	2023-03-04T00:00:00	2024-11-06T17:00:00	3	Temperatura mínima	15.7
17804	7	Sololá	701	Sololá	3	Barraneche	4	Abril	2023-03-04T00:00:00	2024-11-06T17:00:00	5	Humedad	65
17805	7	Sololá	701	Sololá	3	Barraneche	4	Abril	2023-03-04T00:00:00	2024-11-06T17:00:00	6	Velocidad del viento	6.4
17806	7	Sololá	701	Sololá	3	Barraneche	4	Abril	2023-03-04T00:00:00	2024-11-06T17:00:00	7	Dirección del viento	6.44
17807	7	Sololá	701	Sololá	3	Barraneche	4	Abril	2023-03-04T00:00:00	2024-11-06T17:00:00	1	Precipitación	0
17808	7	Sololá	701	Sololá	3	Barraneche	4	Abril	2023-03-04T00:00:00	2024-11-06T17:00:00	8	Radiación solar	204
17809	7	Sololá	701	Sololá	3	Barraneche	4	Abril	2023-03-04T00:00:00	2024-11-06T18:00:00	2	Temperatura media	15.2
17810	7	Sololá	701	Sololá	3	Barraneche	4	Abril	2023-03-04T00:00:00	2024-11-06T18:00:00	4	Temperatura máxima	17.7
17811	7	Sololá	701	Sololá	3	Barraneche	4	Abril	2023-03-04T00:00:00	2024-11-06T18:00:00	3	Temperatura mínima	15.2
17812	7	Sololá	701	Sololá	3	Barraneche	4	Abril	2023-03-04T00:00:00	2024-11-06T18:00:00	5	Humedad	60
17813	7	Sololá	701	Sololá	3	Barraneche	4	Abril	2023-03-04T00:00:00	2024-11-06T18:00:00	6	Velocidad del viento	4.8
17814	7	Sololá	701	Sololá	3	Barraneche	4	Abril	2023-03-04T00:00:00	2024-11-06T18:00:00	7	Dirección del viento	4.83
17815	7	Sololá	701	Sololá	3	Barraneche	4	Abril	2023-03-04T00:00:00	2024-11-06T18:00:00	1	Precipitación	0
17816	7	Sololá	701	Sololá	3	Barraneche	4	Abril	2023-03-04T00:00:00	2024-11-06T18:00:00	8	Radiación solar	91
17817	7	Sololá	701	Sololá	3	Barraneche	4	Abril	2023-03-04T00:00:00	2024-11-06T19:00:00	2	Temperatura media	12.3
17818	7	Sololá	701	Sololá	3	Barraneche	4	Abril	2023-03-04T00:00:00	2024-11-06T19:00:00	4	Temperatura máxima	15.1
17819	7	Sololá	701	Sololá	3	Barraneche	4	Abril	2023-03-04T00:00:00	2024-11-06T19:00:00	3	Temperatura mínima	12.3
17820	7	Sololá	701	Sololá	3	Barraneche	4	Abril	2023-03-04T00:00:00	2024-11-06T19:00:00	5	Humedad	57
17821	7	Sololá	701	Sololá	3	Barraneche	4	Abril	2023-03-04T00:00:00	2024-11-06T19:00:00	6	Velocidad del viento	4.8
17822	7	Sololá	701	Sololá	3	Barraneche	4	Abril	2023-03-04T00:00:00	2024-11-06T19:00:00	7	Dirección del viento	4.83
17823	7	Sololá	701	Sololá	3	Barraneche	4	Abril	2023-03-04T00:00:00	2024-11-06T19:00:00	1	Precipitación	0
17824	7	Sololá	701	Sololá	3	Barraneche	4	Abril	2023-03-04T00:00:00	2024-11-06T19:00:00	8	Radiación solar	0
17825	7	Sololá	701	Sololá	3	Barraneche	4	Abril	2023-03-04T00:00:00	2024-11-06T20:00:00	2	Temperatura media	11.9
17826	7	Sololá	701	Sololá	3	Barraneche	4	Abril	2023-03-04T00:00:00	2024-11-06T20:00:00	4	Temperatura máxima	12.3
17827	7	Sololá	701	Sololá	3	Barraneche	4	Abril	2023-03-04T00:00:00	2024-11-06T20:00:00	3	Temperatura mínima	11.6
17828	7	Sololá	701	Sololá	3	Barraneche	4	Abril	2023-03-04T00:00:00	2024-11-06T20:00:00	5	Humedad	57
17829	7	Sololá	701	Sololá	3	Barraneche	4	Abril	2023-03-04T00:00:00	2024-11-06T20:00:00	6	Velocidad del viento	6.4
17830	7	Sololá	701	Sololá	3	Barraneche	4	Abril	2023-03-04T00:00:00	2024-11-06T20:00:00	7	Dirección del viento	6.44
17831	7	Sololá	701	Sololá	3	Barraneche	4	Abril	2023-03-04T00:00:00	2024-11-06T20:00:00	1	Precipitación	0
17832	7	Sololá	701	Sololá	3	Barraneche	4	Abril	2023-03-04T00:00:00	2024-11-06T20:00:00	8	Radiación solar	0
17833	7	Sololá	701	Sololá	3	Barraneche	4	Abril	2023-03-04T00:00:00	2024-11-06T21:00:00	2	Temperatura media	11.6
17834	7	Sololá	701	Sololá	3	Barraneche	4	Abril	2023-03-04T00:00:00	2024-11-06T21:00:00	4	Temperatura máxima	11.9
17835	7	Sololá	701	Sololá	3	Barraneche	4	Abril	2023-03-04T00:00:00	2024-11-06T21:00:00	3	Temperatura mínima	11.2
17836	7	Sololá	701	Sololá	3	Barraneche	4	Abril	2023-03-04T00:00:00	2024-11-06T21:00:00	5	Humedad	59
17837	7	Sololá	701	Sololá	3	Barraneche	4	Abril	2023-03-04T00:00:00	2024-11-06T21:00:00	6	Velocidad del viento	3.2
17838	7	Sololá	701	Sololá	3	Barraneche	4	Abril	2023-03-04T00:00:00	2024-11-06T21:00:00	7	Dirección del viento	3.22
17839	7	Sololá	701	Sololá	3	Barraneche	4	Abril	2023-03-04T00:00:00	2024-11-06T21:00:00	1	Precipitación	0
17840	7	Sololá	701	Sololá	3	Barraneche	4	Abril	2023-03-04T00:00:00	2024-11-06T21:00:00	8	Radiación solar	0
17841	7	Sololá	701	Sololá	3	Barraneche	4	Abril	2023-03-04T00:00:00	2024-11-06T22:00:00	2	Temperatura media	10.4
17842	7	Sololá	701	Sololá	3	Barraneche	4	Abril	2023-03-04T00:00:00	2024-11-06T22:00:00	4	Temperatura máxima	11.7
17843	7	Sololá	701	Sololá	3	Barraneche	4	Abril	2023-03-04T00:00:00	2024-11-06T22:00:00	3	Temperatura mínima	10.4
17844	7	Sololá	701	Sololá	3	Barraneche	4	Abril	2023-03-04T00:00:00	2024-11-06T22:00:00	5	Humedad	60
17845	7	Sololá	701	Sololá	3	Barraneche	4	Abril	2023-03-04T00:00:00	2024-11-06T22:00:00	6	Velocidad del viento	4.8
17846	7	Sololá	701	Sololá	3	Barraneche	4	Abril	2023-03-04T00:00:00	2024-11-06T22:00:00	7	Dirección del viento	4.83
17847	7	Sololá	701	Sololá	3	Barraneche	4	Abril	2023-03-04T00:00:00	2024-11-06T22:00:00	1	Precipitación	0
17848	7	Sololá	701	Sololá	3	Barraneche	4	Abril	2023-03-04T00:00:00	2024-11-06T22:00:00	8	Radiación solar	0
17849	7	Sololá	701	Sololá	3	Barraneche	4	Abril	2023-03-04T00:00:00	2024-11-06T23:00:00	2	Temperatura media	10.3
17850	7	Sololá	701	Sololá	3	Barraneche	4	Abril	2023-03-04T00:00:00	2024-11-06T23:00:00	4	Temperatura máxima	10.7
17851	7	Sololá	701	Sololá	3	Barraneche	4	Abril	2023-03-04T00:00:00	2024-11-06T23:00:00	3	Temperatura mínima	10.3
17852	7	Sololá	701	Sololá	3	Barraneche	4	Abril	2023-03-04T00:00:00	2024-11-06T23:00:00	5	Humedad	56
17853	7	Sololá	701	Sololá	3	Barraneche	4	Abril	2023-03-04T00:00:00	2024-11-06T23:00:00	6	Velocidad del viento	8
17854	7	Sololá	701	Sololá	3	Barraneche	4	Abril	2023-03-04T00:00:00	2024-11-06T23:00:00	7	Dirección del viento	8.05
17855	7	Sololá	701	Sololá	3	Barraneche	4	Abril	2023-03-04T00:00:00	2024-11-06T23:00:00	1	Precipitación	0
17856	7	Sololá	701	Sololá	3	Barraneche	4	Abril	2023-03-04T00:00:00	2024-11-06T23:00:00	8	Radiación solar	0
17857	7	Sololá	701	Sololá	3	Barraneche	4	Abril	2023-04-04T00:00:00	2024-11-06T00:00:00	2	Temperatura media	10.6
17858	7	Sololá	701	Sololá	3	Barraneche	4	Abril	2023-04-04T00:00:00	2024-11-06T00:00:00	4	Temperatura máxima	10.6
17859	7	Sololá	701	Sololá	3	Barraneche	4	Abril	2023-04-04T00:00:00	2024-11-06T00:00:00	3	Temperatura mínima	10.1
17860	7	Sololá	701	Sololá	3	Barraneche	4	Abril	2023-04-04T00:00:00	2024-11-06T00:00:00	5	Humedad	52
17861	7	Sololá	701	Sololá	3	Barraneche	4	Abril	2023-04-04T00:00:00	2024-11-06T00:00:00	6	Velocidad del viento	8
17862	7	Sololá	701	Sololá	3	Barraneche	4	Abril	2023-04-04T00:00:00	2024-11-06T00:00:00	7	Dirección del viento	8.05
17863	7	Sololá	701	Sololá	3	Barraneche	4	Abril	2023-04-04T00:00:00	2024-11-06T00:00:00	1	Precipitación	0
17864	7	Sololá	701	Sololá	3	Barraneche	4	Abril	2023-04-04T00:00:00	2024-11-06T00:00:00	8	Radiación solar	0
17865	7	Sololá	701	Sololá	3	Barraneche	4	Abril	2023-04-04T00:00:00	2024-11-06T01:00:00	2	Temperatura media	9.6
17866	7	Sololá	701	Sololá	3	Barraneche	4	Abril	2023-04-04T00:00:00	2024-11-06T01:00:00	4	Temperatura máxima	10.8
17867	7	Sololá	701	Sololá	3	Barraneche	4	Abril	2023-04-04T00:00:00	2024-11-06T01:00:00	3	Temperatura mínima	9.6
17868	7	Sololá	701	Sololá	3	Barraneche	4	Abril	2023-04-04T00:00:00	2024-11-06T01:00:00	5	Humedad	48
17869	7	Sololá	701	Sololá	3	Barraneche	4	Abril	2023-04-04T00:00:00	2024-11-06T01:00:00	6	Velocidad del viento	9.7
17870	7	Sololá	701	Sololá	3	Barraneche	4	Abril	2023-04-04T00:00:00	2024-11-06T01:00:00	7	Dirección del viento	9.66
17871	7	Sololá	701	Sololá	3	Barraneche	4	Abril	2023-04-04T00:00:00	2024-11-06T01:00:00	1	Precipitación	0
17872	7	Sololá	701	Sololá	3	Barraneche	4	Abril	2023-04-04T00:00:00	2024-11-06T01:00:00	8	Radiación solar	0
17873	7	Sololá	701	Sololá	3	Barraneche	4	Abril	2023-04-04T00:00:00	2024-11-06T02:00:00	2	Temperatura media	9.7
17874	7	Sololá	701	Sololá	3	Barraneche	4	Abril	2023-04-04T00:00:00	2024-11-06T02:00:00	4	Temperatura máxima	10.6
17875	7	Sololá	701	Sololá	3	Barraneche	4	Abril	2023-04-04T00:00:00	2024-11-06T02:00:00	3	Temperatura mínima	9.5
17876	7	Sololá	701	Sololá	3	Barraneche	4	Abril	2023-04-04T00:00:00	2024-11-06T02:00:00	5	Humedad	44
17877	7	Sololá	701	Sololá	3	Barraneche	4	Abril	2023-04-04T00:00:00	2024-11-06T02:00:00	6	Velocidad del viento	12.9
17878	7	Sololá	701	Sololá	3	Barraneche	4	Abril	2023-04-04T00:00:00	2024-11-06T02:00:00	7	Dirección del viento	12.87
17879	7	Sololá	701	Sololá	3	Barraneche	4	Abril	2023-04-04T00:00:00	2024-11-06T02:00:00	1	Precipitación	0
17880	7	Sololá	701	Sololá	3	Barraneche	4	Abril	2023-04-04T00:00:00	2024-11-06T02:00:00	8	Radiación solar	0
17881	7	Sololá	701	Sololá	3	Barraneche	4	Abril	2023-04-04T00:00:00	2024-11-06T03:00:00	2	Temperatura media	10.1
17882	7	Sololá	701	Sololá	3	Barraneche	4	Abril	2023-04-04T00:00:00	2024-11-06T03:00:00	4	Temperatura máxima	10.1
17883	7	Sololá	701	Sololá	3	Barraneche	4	Abril	2023-04-04T00:00:00	2024-11-06T03:00:00	3	Temperatura mínima	9.4
17884	7	Sololá	701	Sololá	3	Barraneche	4	Abril	2023-04-04T00:00:00	2024-11-06T03:00:00	5	Humedad	48
17885	7	Sololá	701	Sololá	3	Barraneche	4	Abril	2023-04-04T00:00:00	2024-11-06T03:00:00	6	Velocidad del viento	11.3
17886	7	Sololá	701	Sololá	3	Barraneche	4	Abril	2023-04-04T00:00:00	2024-11-06T03:00:00	7	Dirección del viento	11.27
17887	7	Sololá	701	Sololá	3	Barraneche	4	Abril	2023-04-04T00:00:00	2024-11-06T03:00:00	1	Precipitación	0
17888	7	Sololá	701	Sololá	3	Barraneche	4	Abril	2023-04-04T00:00:00	2024-11-06T03:00:00	8	Radiación solar	0
17889	7	Sololá	701	Sololá	3	Barraneche	4	Abril	2023-04-04T00:00:00	2024-11-06T04:00:00	2	Temperatura media	8.9
17890	7	Sololá	701	Sololá	3	Barraneche	4	Abril	2023-04-04T00:00:00	2024-11-06T04:00:00	4	Temperatura máxima	10.3
17891	7	Sololá	701	Sololá	3	Barraneche	4	Abril	2023-04-04T00:00:00	2024-11-06T04:00:00	3	Temperatura mínima	8.9
17892	7	Sololá	701	Sololá	3	Barraneche	4	Abril	2023-04-04T00:00:00	2024-11-06T04:00:00	5	Humedad	44
17893	7	Sololá	701	Sololá	3	Barraneche	4	Abril	2023-04-04T00:00:00	2024-11-06T04:00:00	6	Velocidad del viento	11.3
17894	7	Sololá	701	Sololá	3	Barraneche	4	Abril	2023-04-04T00:00:00	2024-11-06T04:00:00	7	Dirección del viento	11.27
17895	7	Sololá	701	Sololá	3	Barraneche	4	Abril	2023-04-04T00:00:00	2024-11-06T04:00:00	1	Precipitación	0
17896	7	Sololá	701	Sololá	3	Barraneche	4	Abril	2023-04-04T00:00:00	2024-11-06T04:00:00	8	Radiación solar	0
17897	7	Sololá	701	Sololá	3	Barraneche	4	Abril	2023-04-04T00:00:00	2024-11-06T05:00:00	2	Temperatura media	8.1
17898	7	Sololá	701	Sololá	3	Barraneche	4	Abril	2023-04-04T00:00:00	2024-11-06T05:00:00	4	Temperatura máxima	8.9
17899	7	Sololá	701	Sololá	3	Barraneche	4	Abril	2023-04-04T00:00:00	2024-11-06T05:00:00	3	Temperatura mínima	8.1
17900	7	Sololá	701	Sololá	3	Barraneche	4	Abril	2023-04-04T00:00:00	2024-11-06T05:00:00	5	Humedad	41
17901	7	Sololá	701	Sololá	3	Barraneche	4	Abril	2023-04-04T00:00:00	2024-11-06T05:00:00	6	Velocidad del viento	8
17902	7	Sololá	701	Sololá	3	Barraneche	4	Abril	2023-04-04T00:00:00	2024-11-06T05:00:00	7	Dirección del viento	8.05
17903	7	Sololá	701	Sololá	3	Barraneche	4	Abril	2023-04-04T00:00:00	2024-11-06T05:00:00	1	Precipitación	0
17904	7	Sololá	701	Sololá	3	Barraneche	4	Abril	2023-04-04T00:00:00	2024-11-06T05:00:00	8	Radiación solar	0
17905	7	Sololá	701	Sololá	3	Barraneche	4	Abril	2023-04-04T00:00:00	2024-11-06T06:00:00	2	Temperatura media	8.1
17906	7	Sololá	701	Sololá	3	Barraneche	4	Abril	2023-04-04T00:00:00	2024-11-06T06:00:00	4	Temperatura máxima	8.2
17907	7	Sololá	701	Sololá	3	Barraneche	4	Abril	2023-04-04T00:00:00	2024-11-06T06:00:00	3	Temperatura mínima	7.7
17908	7	Sololá	701	Sololá	3	Barraneche	4	Abril	2023-04-04T00:00:00	2024-11-06T06:00:00	5	Humedad	42
17909	7	Sololá	701	Sololá	3	Barraneche	4	Abril	2023-04-04T00:00:00	2024-11-06T06:00:00	6	Velocidad del viento	8
17910	7	Sololá	701	Sololá	3	Barraneche	4	Abril	2023-04-04T00:00:00	2024-11-06T06:00:00	7	Dirección del viento	8.05
17911	7	Sololá	701	Sololá	3	Barraneche	4	Abril	2023-04-04T00:00:00	2024-11-06T06:00:00	1	Precipitación	0
17912	7	Sololá	701	Sololá	3	Barraneche	4	Abril	2023-04-04T00:00:00	2024-11-06T06:00:00	8	Radiación solar	0
17913	7	Sololá	701	Sololá	3	Barraneche	4	Abril	2023-04-04T00:00:00	2024-11-06T07:00:00	2	Temperatura media	9.4
17914	7	Sololá	701	Sololá	3	Barraneche	4	Abril	2023-04-04T00:00:00	2024-11-06T07:00:00	4	Temperatura máxima	9.4
17915	7	Sololá	701	Sololá	3	Barraneche	4	Abril	2023-04-04T00:00:00	2024-11-06T07:00:00	3	Temperatura mínima	7.9
17916	7	Sololá	701	Sololá	3	Barraneche	4	Abril	2023-04-04T00:00:00	2024-11-06T07:00:00	5	Humedad	45
17917	7	Sololá	701	Sololá	3	Barraneche	4	Abril	2023-04-04T00:00:00	2024-11-06T07:00:00	6	Velocidad del viento	11.3
17918	7	Sololá	701	Sololá	3	Barraneche	4	Abril	2023-04-04T00:00:00	2024-11-06T07:00:00	7	Dirección del viento	11.27
17919	7	Sololá	701	Sololá	3	Barraneche	4	Abril	2023-04-04T00:00:00	2024-11-06T07:00:00	1	Precipitación	0
17920	7	Sololá	701	Sololá	3	Barraneche	4	Abril	2023-04-04T00:00:00	2024-11-06T07:00:00	8	Radiación solar	44
17921	7	Sololá	701	Sololá	3	Barraneche	4	Abril	2023-04-04T00:00:00	2024-11-06T08:00:00	2	Temperatura media	14
17922	7	Sololá	701	Sololá	3	Barraneche	4	Abril	2023-04-04T00:00:00	2024-11-06T08:00:00	4	Temperatura máxima	14
17923	7	Sololá	701	Sololá	3	Barraneche	4	Abril	2023-04-04T00:00:00	2024-11-06T08:00:00	3	Temperatura mínima	9.4
17924	7	Sololá	701	Sololá	3	Barraneche	4	Abril	2023-04-04T00:00:00	2024-11-06T08:00:00	5	Humedad	48
17925	7	Sololá	701	Sololá	3	Barraneche	4	Abril	2023-04-04T00:00:00	2024-11-06T08:00:00	6	Velocidad del viento	4.8
17926	7	Sololá	701	Sololá	3	Barraneche	4	Abril	2023-04-04T00:00:00	2024-11-06T08:00:00	7	Dirección del viento	4.83
17927	7	Sololá	701	Sololá	3	Barraneche	4	Abril	2023-04-04T00:00:00	2024-11-06T08:00:00	1	Precipitación	0
17928	7	Sololá	701	Sololá	3	Barraneche	4	Abril	2023-04-04T00:00:00	2024-11-06T08:00:00	8	Radiación solar	331
17929	7	Sololá	701	Sololá	3	Barraneche	4	Abril	2023-04-04T00:00:00	2024-11-06T09:00:00	2	Temperatura media	15.3
17930	7	Sololá	701	Sololá	3	Barraneche	4	Abril	2023-04-04T00:00:00	2024-11-06T09:00:00	4	Temperatura máxima	15.4
17931	7	Sololá	701	Sololá	3	Barraneche	4	Abril	2023-04-04T00:00:00	2024-11-06T09:00:00	3	Temperatura mínima	14
17932	7	Sololá	701	Sololá	3	Barraneche	4	Abril	2023-04-04T00:00:00	2024-11-06T09:00:00	5	Humedad	56
17933	7	Sololá	701	Sololá	3	Barraneche	4	Abril	2023-04-04T00:00:00	2024-11-06T09:00:00	6	Velocidad del viento	4.8
17934	7	Sololá	701	Sololá	3	Barraneche	4	Abril	2023-04-04T00:00:00	2024-11-06T09:00:00	7	Dirección del viento	4.83
17935	7	Sololá	701	Sololá	3	Barraneche	4	Abril	2023-04-04T00:00:00	2024-11-06T09:00:00	1	Precipitación	0
17936	7	Sololá	701	Sololá	3	Barraneche	4	Abril	2023-04-04T00:00:00	2024-11-06T09:00:00	8	Radiación solar	581
17937	7	Sololá	701	Sololá	3	Barraneche	4	Abril	2023-04-04T00:00:00	2024-11-06T10:00:00	2	Temperatura media	16.7
17938	7	Sololá	701	Sololá	3	Barraneche	4	Abril	2023-04-04T00:00:00	2024-11-06T10:00:00	4	Temperatura máxima	16.8
17939	7	Sololá	701	Sololá	3	Barraneche	4	Abril	2023-04-04T00:00:00	2024-11-06T10:00:00	3	Temperatura mínima	15.2
17940	7	Sololá	701	Sololá	3	Barraneche	4	Abril	2023-04-04T00:00:00	2024-11-06T10:00:00	5	Humedad	54
17941	7	Sololá	701	Sololá	3	Barraneche	4	Abril	2023-04-04T00:00:00	2024-11-06T10:00:00	6	Velocidad del viento	8
17942	7	Sololá	701	Sololá	3	Barraneche	4	Abril	2023-04-04T00:00:00	2024-11-06T10:00:00	7	Dirección del viento	8.05
17943	7	Sololá	701	Sololá	3	Barraneche	4	Abril	2023-04-04T00:00:00	2024-11-06T10:00:00	1	Precipitación	0
17944	7	Sololá	701	Sololá	3	Barraneche	4	Abril	2023-04-04T00:00:00	2024-11-06T10:00:00	8	Radiación solar	795
17945	7	Sololá	701	Sololá	3	Barraneche	4	Abril	2023-04-04T00:00:00	2024-11-06T11:00:00	2	Temperatura media	17.8
17946	7	Sololá	701	Sololá	3	Barraneche	4	Abril	2023-04-04T00:00:00	2024-11-06T11:00:00	4	Temperatura máxima	17.8
17947	7	Sololá	701	Sololá	3	Barraneche	4	Abril	2023-04-04T00:00:00	2024-11-06T11:00:00	3	Temperatura mínima	16.7
17948	7	Sololá	701	Sololá	3	Barraneche	4	Abril	2023-04-04T00:00:00	2024-11-06T11:00:00	5	Humedad	53
17949	7	Sololá	701	Sololá	3	Barraneche	4	Abril	2023-04-04T00:00:00	2024-11-06T11:00:00	6	Velocidad del viento	8
17950	7	Sololá	701	Sololá	3	Barraneche	4	Abril	2023-04-04T00:00:00	2024-11-06T11:00:00	7	Dirección del viento	8.05
17951	7	Sololá	701	Sololá	3	Barraneche	4	Abril	2023-04-04T00:00:00	2024-11-06T11:00:00	1	Precipitación	0
17952	7	Sololá	701	Sololá	3	Barraneche	4	Abril	2023-04-04T00:00:00	2024-11-06T11:00:00	8	Radiación solar	955
17953	7	Sololá	701	Sololá	3	Barraneche	4	Abril	2023-04-04T00:00:00	2024-11-06T12:00:00	2	Temperatura media	18.2
17954	7	Sololá	701	Sololá	3	Barraneche	4	Abril	2023-04-04T00:00:00	2024-11-06T12:00:00	4	Temperatura máxima	18.3
17955	7	Sololá	701	Sololá	3	Barraneche	4	Abril	2023-04-04T00:00:00	2024-11-06T12:00:00	3	Temperatura mínima	17.8
17956	7	Sololá	701	Sololá	3	Barraneche	4	Abril	2023-04-04T00:00:00	2024-11-06T12:00:00	5	Humedad	52
17957	7	Sololá	701	Sololá	3	Barraneche	4	Abril	2023-04-04T00:00:00	2024-11-06T12:00:00	6	Velocidad del viento	11.3
17958	7	Sololá	701	Sololá	3	Barraneche	4	Abril	2023-04-04T00:00:00	2024-11-06T12:00:00	7	Dirección del viento	11.27
17959	7	Sololá	701	Sololá	3	Barraneche	4	Abril	2023-04-04T00:00:00	2024-11-06T12:00:00	1	Precipitación	0
17960	7	Sololá	701	Sololá	3	Barraneche	4	Abril	2023-04-04T00:00:00	2024-11-06T12:00:00	8	Radiación solar	1032
17961	7	Sololá	701	Sololá	3	Barraneche	4	Abril	2023-04-04T00:00:00	2024-11-06T13:00:00	2	Temperatura media	18.9
17962	7	Sololá	701	Sololá	3	Barraneche	4	Abril	2023-04-04T00:00:00	2024-11-06T13:00:00	4	Temperatura máxima	19.1
17963	7	Sololá	701	Sololá	3	Barraneche	4	Abril	2023-04-04T00:00:00	2024-11-06T13:00:00	3	Temperatura mínima	18.2
17964	7	Sololá	701	Sololá	3	Barraneche	4	Abril	2023-04-04T00:00:00	2024-11-06T13:00:00	5	Humedad	53
17965	7	Sololá	701	Sololá	3	Barraneche	4	Abril	2023-04-04T00:00:00	2024-11-06T13:00:00	6	Velocidad del viento	11.3
17966	7	Sololá	701	Sololá	3	Barraneche	4	Abril	2023-04-04T00:00:00	2024-11-06T13:00:00	7	Dirección del viento	11.27
17967	7	Sololá	701	Sololá	3	Barraneche	4	Abril	2023-04-04T00:00:00	2024-11-06T13:00:00	1	Precipitación	0
17968	7	Sololá	701	Sololá	3	Barraneche	4	Abril	2023-04-04T00:00:00	2024-11-06T13:00:00	8	Radiación solar	1031
17969	7	Sololá	701	Sololá	3	Barraneche	4	Abril	2023-04-04T00:00:00	2024-11-06T14:00:00	2	Temperatura media	17.9
17970	7	Sololá	701	Sololá	3	Barraneche	4	Abril	2023-04-04T00:00:00	2024-11-06T14:00:00	4	Temperatura máxima	19.1
17971	7	Sololá	701	Sololá	3	Barraneche	4	Abril	2023-04-04T00:00:00	2024-11-06T14:00:00	3	Temperatura mínima	17.9
17972	7	Sololá	701	Sololá	3	Barraneche	4	Abril	2023-04-04T00:00:00	2024-11-06T14:00:00	5	Humedad	59
17973	7	Sololá	701	Sololá	3	Barraneche	4	Abril	2023-04-04T00:00:00	2024-11-06T14:00:00	6	Velocidad del viento	16.1
17974	7	Sololá	701	Sololá	3	Barraneche	4	Abril	2023-04-04T00:00:00	2024-11-06T14:00:00	7	Dirección del viento	16.09
17975	7	Sololá	701	Sololá	3	Barraneche	4	Abril	2023-04-04T00:00:00	2024-11-06T14:00:00	1	Precipitación	0
17976	7	Sololá	701	Sololá	3	Barraneche	4	Abril	2023-04-04T00:00:00	2024-11-06T14:00:00	8	Radiación solar	951
17977	7	Sololá	701	Sololá	3	Barraneche	4	Abril	2023-04-04T00:00:00	2024-11-06T15:00:00	2	Temperatura media	17.9
17978	7	Sololá	701	Sololá	3	Barraneche	4	Abril	2023-04-04T00:00:00	2024-11-06T15:00:00	4	Temperatura máxima	18.6
17979	7	Sololá	701	Sololá	3	Barraneche	4	Abril	2023-04-04T00:00:00	2024-11-06T15:00:00	3	Temperatura mínima	17.9
17980	7	Sololá	701	Sololá	3	Barraneche	4	Abril	2023-04-04T00:00:00	2024-11-06T15:00:00	5	Humedad	61
17981	7	Sololá	701	Sololá	3	Barraneche	4	Abril	2023-04-04T00:00:00	2024-11-06T15:00:00	6	Velocidad del viento	12.9
17982	7	Sololá	701	Sololá	3	Barraneche	4	Abril	2023-04-04T00:00:00	2024-11-06T15:00:00	7	Dirección del viento	12.87
17983	7	Sololá	701	Sololá	3	Barraneche	4	Abril	2023-04-04T00:00:00	2024-11-06T15:00:00	1	Precipitación	0
17984	7	Sololá	701	Sololá	3	Barraneche	4	Abril	2023-04-04T00:00:00	2024-11-06T15:00:00	8	Radiación solar	817
17985	7	Sololá	701	Sololá	3	Barraneche	4	Abril	2023-04-04T00:00:00	2024-11-06T16:00:00	2	Temperatura media	16.2
17986	7	Sololá	701	Sololá	3	Barraneche	4	Abril	2023-04-04T00:00:00	2024-11-06T16:00:00	4	Temperatura máxima	17.9
17987	7	Sololá	701	Sololá	3	Barraneche	4	Abril	2023-04-04T00:00:00	2024-11-06T16:00:00	3	Temperatura mínima	16.1
17988	7	Sololá	701	Sololá	3	Barraneche	4	Abril	2023-04-04T00:00:00	2024-11-06T16:00:00	5	Humedad	68
17989	7	Sololá	701	Sololá	3	Barraneche	4	Abril	2023-04-04T00:00:00	2024-11-06T16:00:00	6	Velocidad del viento	12.9
17990	7	Sololá	701	Sololá	3	Barraneche	4	Abril	2023-04-04T00:00:00	2024-11-06T16:00:00	7	Dirección del viento	12.87
17991	7	Sololá	701	Sololá	3	Barraneche	4	Abril	2023-04-04T00:00:00	2024-11-06T16:00:00	1	Precipitación	0
17992	7	Sololá	701	Sololá	3	Barraneche	4	Abril	2023-04-04T00:00:00	2024-11-06T16:00:00	8	Radiación solar	245
17993	7	Sololá	701	Sololá	3	Barraneche	4	Abril	2023-04-04T00:00:00	2024-11-06T17:00:00	2	Temperatura media	15.2
17994	7	Sololá	701	Sololá	3	Barraneche	4	Abril	2023-04-04T00:00:00	2024-11-06T17:00:00	4	Temperatura máxima	16.2
17995	7	Sololá	701	Sololá	3	Barraneche	4	Abril	2023-04-04T00:00:00	2024-11-06T17:00:00	3	Temperatura mínima	15.1
17996	7	Sololá	701	Sololá	3	Barraneche	4	Abril	2023-04-04T00:00:00	2024-11-06T17:00:00	5	Humedad	71
17997	7	Sololá	701	Sololá	3	Barraneche	4	Abril	2023-04-04T00:00:00	2024-11-06T17:00:00	6	Velocidad del viento	8
17998	7	Sololá	701	Sololá	3	Barraneche	4	Abril	2023-04-04T00:00:00	2024-11-06T17:00:00	7	Dirección del viento	8.05
17999	7	Sololá	701	Sololá	3	Barraneche	4	Abril	2023-04-04T00:00:00	2024-11-06T17:00:00	1	Precipitación	0
18000	7	Sololá	701	Sololá	3	Barraneche	4	Abril	2023-04-04T00:00:00	2024-11-06T17:00:00	8	Radiación solar	85
18001	7	Sololá	701	Sololá	3	Barraneche	4	Abril	2023-04-04T00:00:00	2024-11-06T18:00:00	2	Temperatura media	14.7
18002	7	Sololá	701	Sololá	3	Barraneche	4	Abril	2023-04-04T00:00:00	2024-11-06T18:00:00	4	Temperatura máxima	15.2
18003	7	Sololá	701	Sololá	3	Barraneche	4	Abril	2023-04-04T00:00:00	2024-11-06T18:00:00	3	Temperatura mínima	14.7
18004	7	Sololá	701	Sololá	3	Barraneche	4	Abril	2023-04-04T00:00:00	2024-11-06T18:00:00	5	Humedad	72
18005	7	Sololá	701	Sololá	3	Barraneche	4	Abril	2023-04-04T00:00:00	2024-11-06T18:00:00	6	Velocidad del viento	6.4
18006	7	Sololá	701	Sololá	3	Barraneche	4	Abril	2023-04-04T00:00:00	2024-11-06T18:00:00	7	Dirección del viento	6.44
18007	7	Sololá	701	Sololá	3	Barraneche	4	Abril	2023-04-04T00:00:00	2024-11-06T18:00:00	1	Precipitación	0
18008	7	Sololá	701	Sololá	3	Barraneche	4	Abril	2023-04-04T00:00:00	2024-11-06T18:00:00	8	Radiación solar	32
18009	7	Sololá	701	Sololá	3	Barraneche	4	Abril	2023-04-04T00:00:00	2024-11-06T19:00:00	2	Temperatura media	14.2
18010	7	Sololá	701	Sololá	3	Barraneche	4	Abril	2023-04-04T00:00:00	2024-11-06T19:00:00	4	Temperatura máxima	14.8
18011	7	Sololá	701	Sololá	3	Barraneche	4	Abril	2023-04-04T00:00:00	2024-11-06T19:00:00	3	Temperatura mínima	14.1
18012	7	Sololá	701	Sololá	3	Barraneche	4	Abril	2023-04-04T00:00:00	2024-11-06T19:00:00	5	Humedad	77
18013	7	Sololá	701	Sololá	3	Barraneche	4	Abril	2023-04-04T00:00:00	2024-11-06T19:00:00	6	Velocidad del viento	8
18014	7	Sololá	701	Sololá	3	Barraneche	4	Abril	2023-04-04T00:00:00	2024-11-06T19:00:00	7	Dirección del viento	8.05
18015	7	Sololá	701	Sololá	3	Barraneche	4	Abril	2023-04-04T00:00:00	2024-11-06T19:00:00	1	Precipitación	0
18016	7	Sololá	701	Sololá	3	Barraneche	4	Abril	2023-04-04T00:00:00	2024-11-06T19:00:00	8	Radiación solar	0
18017	7	Sololá	701	Sololá	3	Barraneche	4	Abril	2023-04-04T00:00:00	2024-11-06T20:00:00	2	Temperatura media	14.4
18018	7	Sololá	701	Sololá	3	Barraneche	4	Abril	2023-04-04T00:00:00	2024-11-06T20:00:00	4	Temperatura máxima	14.5
18019	7	Sololá	701	Sololá	3	Barraneche	4	Abril	2023-04-04T00:00:00	2024-11-06T20:00:00	3	Temperatura mínima	14.2
18020	7	Sololá	701	Sololá	3	Barraneche	4	Abril	2023-04-04T00:00:00	2024-11-06T20:00:00	5	Humedad	73
18021	7	Sololá	701	Sololá	3	Barraneche	4	Abril	2023-04-04T00:00:00	2024-11-06T20:00:00	6	Velocidad del viento	3.2
18022	7	Sololá	701	Sololá	3	Barraneche	4	Abril	2023-04-04T00:00:00	2024-11-06T20:00:00	7	Dirección del viento	3.22
18023	7	Sololá	701	Sololá	3	Barraneche	4	Abril	2023-04-04T00:00:00	2024-11-06T20:00:00	1	Precipitación	0
18024	7	Sololá	701	Sololá	3	Barraneche	4	Abril	2023-04-04T00:00:00	2024-11-06T20:00:00	8	Radiación solar	0
18025	7	Sololá	701	Sololá	3	Barraneche	4	Abril	2023-04-04T00:00:00	2024-11-06T21:00:00	2	Temperatura media	12.7
18026	7	Sololá	701	Sololá	3	Barraneche	4	Abril	2023-04-04T00:00:00	2024-11-06T21:00:00	4	Temperatura máxima	14.4
18027	7	Sololá	701	Sololá	3	Barraneche	4	Abril	2023-04-04T00:00:00	2024-11-06T21:00:00	3	Temperatura mínima	12.5
18028	7	Sololá	701	Sololá	3	Barraneche	4	Abril	2023-04-04T00:00:00	2024-11-06T21:00:00	5	Humedad	69
18029	7	Sololá	701	Sololá	3	Barraneche	4	Abril	2023-04-04T00:00:00	2024-11-06T21:00:00	6	Velocidad del viento	4.8
18030	7	Sololá	701	Sololá	3	Barraneche	4	Abril	2023-04-04T00:00:00	2024-11-06T21:00:00	7	Dirección del viento	4.83
18031	7	Sololá	701	Sololá	3	Barraneche	4	Abril	2023-04-04T00:00:00	2024-11-06T21:00:00	1	Precipitación	0
18032	7	Sololá	701	Sololá	3	Barraneche	4	Abril	2023-04-04T00:00:00	2024-11-06T21:00:00	8	Radiación solar	0
18033	7	Sololá	701	Sololá	3	Barraneche	4	Abril	2023-04-04T00:00:00	2024-11-06T22:00:00	2	Temperatura media	12.7
18034	7	Sololá	701	Sololá	3	Barraneche	4	Abril	2023-04-04T00:00:00	2024-11-06T22:00:00	4	Temperatura máxima	12.9
18035	7	Sololá	701	Sololá	3	Barraneche	4	Abril	2023-04-04T00:00:00	2024-11-06T22:00:00	3	Temperatura mínima	12.6
18036	7	Sololá	701	Sololá	3	Barraneche	4	Abril	2023-04-04T00:00:00	2024-11-06T22:00:00	5	Humedad	67
18037	7	Sololá	701	Sololá	3	Barraneche	4	Abril	2023-04-04T00:00:00	2024-11-06T22:00:00	6	Velocidad del viento	8
18038	7	Sololá	701	Sololá	3	Barraneche	4	Abril	2023-04-04T00:00:00	2024-11-06T22:00:00	7	Dirección del viento	8.05
18039	7	Sololá	701	Sololá	3	Barraneche	4	Abril	2023-04-04T00:00:00	2024-11-06T22:00:00	1	Precipitación	0
18040	7	Sololá	701	Sololá	3	Barraneche	4	Abril	2023-04-04T00:00:00	2024-11-06T22:00:00	8	Radiación solar	0
18041	7	Sololá	701	Sololá	3	Barraneche	4	Abril	2023-04-04T00:00:00	2024-11-06T23:00:00	2	Temperatura media	12.5
18042	7	Sololá	701	Sololá	3	Barraneche	4	Abril	2023-04-04T00:00:00	2024-11-06T23:00:00	4	Temperatura máxima	12.7
18043	7	Sololá	701	Sololá	3	Barraneche	4	Abril	2023-04-04T00:00:00	2024-11-06T23:00:00	3	Temperatura mínima	12.3
18044	7	Sololá	701	Sololá	3	Barraneche	4	Abril	2023-04-04T00:00:00	2024-11-06T23:00:00	5	Humedad	64
18045	7	Sololá	701	Sololá	3	Barraneche	4	Abril	2023-04-04T00:00:00	2024-11-06T23:00:00	6	Velocidad del viento	6.4
18046	7	Sololá	701	Sololá	3	Barraneche	4	Abril	2023-04-04T00:00:00	2024-11-06T23:00:00	7	Dirección del viento	6.44
18047	7	Sololá	701	Sololá	3	Barraneche	4	Abril	2023-04-04T00:00:00	2024-11-06T23:00:00	1	Precipitación	0
18048	7	Sololá	701	Sololá	3	Barraneche	4	Abril	2023-04-04T00:00:00	2024-11-06T23:00:00	8	Radiación solar	0
18049	7	Sololá	701	Sololá	3	Barraneche	4	Abril	2023-05-04T00:00:00	2024-11-06T00:00:00	2	Temperatura media	12.1
18050	7	Sololá	701	Sololá	3	Barraneche	4	Abril	2023-05-04T00:00:00	2024-11-06T00:00:00	4	Temperatura máxima	12.6
18051	7	Sololá	701	Sololá	3	Barraneche	4	Abril	2023-05-04T00:00:00	2024-11-06T00:00:00	3	Temperatura mínima	11.9
18052	7	Sololá	701	Sololá	3	Barraneche	4	Abril	2023-05-04T00:00:00	2024-11-06T00:00:00	5	Humedad	66
18053	7	Sololá	701	Sololá	3	Barraneche	4	Abril	2023-05-04T00:00:00	2024-11-06T00:00:00	6	Velocidad del viento	9.7
18054	7	Sololá	701	Sololá	3	Barraneche	4	Abril	2023-05-04T00:00:00	2024-11-06T00:00:00	7	Dirección del viento	9.66
18055	7	Sololá	701	Sololá	3	Barraneche	4	Abril	2023-05-04T00:00:00	2024-11-06T00:00:00	1	Precipitación	0
18056	7	Sololá	701	Sololá	3	Barraneche	4	Abril	2023-05-04T00:00:00	2024-11-06T00:00:00	8	Radiación solar	0
18057	7	Sololá	701	Sololá	3	Barraneche	4	Abril	2023-05-04T00:00:00	2024-11-06T01:00:00	2	Temperatura media	11.6
18058	7	Sololá	701	Sololá	3	Barraneche	4	Abril	2023-05-04T00:00:00	2024-11-06T01:00:00	4	Temperatura máxima	12.1
18059	7	Sololá	701	Sololá	3	Barraneche	4	Abril	2023-05-04T00:00:00	2024-11-06T01:00:00	3	Temperatura mínima	11.2
18060	7	Sololá	701	Sololá	3	Barraneche	4	Abril	2023-05-04T00:00:00	2024-11-06T01:00:00	5	Humedad	67
18061	7	Sololá	701	Sololá	3	Barraneche	4	Abril	2023-05-04T00:00:00	2024-11-06T01:00:00	6	Velocidad del viento	8
18062	7	Sololá	701	Sololá	3	Barraneche	4	Abril	2023-05-04T00:00:00	2024-11-06T01:00:00	7	Dirección del viento	8.05
18063	7	Sololá	701	Sololá	3	Barraneche	4	Abril	2023-05-04T00:00:00	2024-11-06T01:00:00	1	Precipitación	0
18064	7	Sololá	701	Sololá	3	Barraneche	4	Abril	2023-05-04T00:00:00	2024-11-06T01:00:00	8	Radiación solar	0
18065	7	Sololá	701	Sololá	3	Barraneche	4	Abril	2023-05-04T00:00:00	2024-11-06T02:00:00	2	Temperatura media	11.7
18066	7	Sololá	701	Sololá	3	Barraneche	4	Abril	2023-05-04T00:00:00	2024-11-06T02:00:00	4	Temperatura máxima	11.7
18067	7	Sololá	701	Sololá	3	Barraneche	4	Abril	2023-05-04T00:00:00	2024-11-06T02:00:00	3	Temperatura mínima	11.6
18068	7	Sololá	701	Sololá	3	Barraneche	4	Abril	2023-05-04T00:00:00	2024-11-06T02:00:00	5	Humedad	61
18069	7	Sololá	701	Sololá	3	Barraneche	4	Abril	2023-05-04T00:00:00	2024-11-06T02:00:00	6	Velocidad del viento	9.7
18070	7	Sololá	701	Sololá	3	Barraneche	4	Abril	2023-05-04T00:00:00	2024-11-06T02:00:00	7	Dirección del viento	9.66
18071	7	Sololá	701	Sololá	3	Barraneche	4	Abril	2023-05-04T00:00:00	2024-11-06T02:00:00	1	Precipitación	0
18072	7	Sololá	701	Sololá	3	Barraneche	4	Abril	2023-05-04T00:00:00	2024-11-06T02:00:00	8	Radiación solar	0
18073	7	Sololá	701	Sololá	3	Barraneche	4	Abril	2023-05-04T00:00:00	2024-11-06T03:00:00	2	Temperatura media	10.8
18074	7	Sololá	701	Sololá	3	Barraneche	4	Abril	2023-05-04T00:00:00	2024-11-06T03:00:00	4	Temperatura máxima	11.7
18075	7	Sololá	701	Sololá	3	Barraneche	4	Abril	2023-05-04T00:00:00	2024-11-06T03:00:00	3	Temperatura mínima	10.8
18076	7	Sololá	701	Sololá	3	Barraneche	4	Abril	2023-05-04T00:00:00	2024-11-06T03:00:00	5	Humedad	53
18077	7	Sololá	701	Sololá	3	Barraneche	4	Abril	2023-05-04T00:00:00	2024-11-06T03:00:00	6	Velocidad del viento	11.3
18078	7	Sololá	701	Sololá	3	Barraneche	4	Abril	2023-05-04T00:00:00	2024-11-06T03:00:00	7	Dirección del viento	11.27
18079	7	Sololá	701	Sololá	3	Barraneche	4	Abril	2023-05-04T00:00:00	2024-11-06T03:00:00	1	Precipitación	0
18080	7	Sololá	701	Sololá	3	Barraneche	4	Abril	2023-05-04T00:00:00	2024-11-06T03:00:00	8	Radiación solar	0
18081	7	Sololá	701	Sololá	3	Barraneche	4	Abril	2023-05-04T00:00:00	2024-11-06T04:00:00	2	Temperatura media	10.3
18082	7	Sololá	701	Sololá	3	Barraneche	4	Abril	2023-05-04T00:00:00	2024-11-06T04:00:00	4	Temperatura máxima	10.8
18083	7	Sololá	701	Sololá	3	Barraneche	4	Abril	2023-05-04T00:00:00	2024-11-06T04:00:00	3	Temperatura mínima	10.2
18084	7	Sololá	701	Sololá	3	Barraneche	4	Abril	2023-05-04T00:00:00	2024-11-06T04:00:00	5	Humedad	46
18085	7	Sololá	701	Sololá	3	Barraneche	4	Abril	2023-05-04T00:00:00	2024-11-06T04:00:00	6	Velocidad del viento	9.7
18086	7	Sololá	701	Sololá	3	Barraneche	4	Abril	2023-05-04T00:00:00	2024-11-06T04:00:00	7	Dirección del viento	9.66
18087	7	Sololá	701	Sololá	3	Barraneche	4	Abril	2023-05-04T00:00:00	2024-11-06T04:00:00	1	Precipitación	0
18088	7	Sololá	701	Sololá	3	Barraneche	4	Abril	2023-05-04T00:00:00	2024-11-06T04:00:00	8	Radiación solar	0
18089	7	Sololá	701	Sololá	3	Barraneche	4	Abril	2023-05-04T00:00:00	2024-11-06T05:00:00	2	Temperatura media	10.1
18090	7	Sololá	701	Sololá	3	Barraneche	4	Abril	2023-05-04T00:00:00	2024-11-06T05:00:00	4	Temperatura máxima	10.3
18091	7	Sololá	701	Sololá	3	Barraneche	4	Abril	2023-05-04T00:00:00	2024-11-06T05:00:00	3	Temperatura mínima	10.1
18092	7	Sololá	701	Sololá	3	Barraneche	4	Abril	2023-05-04T00:00:00	2024-11-06T05:00:00	5	Humedad	41
18093	7	Sololá	701	Sololá	3	Barraneche	4	Abril	2023-05-04T00:00:00	2024-11-06T05:00:00	6	Velocidad del viento	11.3
18094	7	Sololá	701	Sololá	3	Barraneche	4	Abril	2023-05-04T00:00:00	2024-11-06T05:00:00	7	Dirección del viento	11.27
18095	7	Sololá	701	Sololá	3	Barraneche	4	Abril	2023-05-04T00:00:00	2024-11-06T05:00:00	1	Precipitación	0
18096	7	Sololá	701	Sololá	3	Barraneche	4	Abril	2023-05-04T00:00:00	2024-11-06T05:00:00	8	Radiación solar	0
18097	7	Sololá	701	Sololá	3	Barraneche	4	Abril	2023-05-04T00:00:00	2024-11-06T06:00:00	2	Temperatura media	9.1
18098	7	Sololá	701	Sololá	3	Barraneche	4	Abril	2023-05-04T00:00:00	2024-11-06T06:00:00	4	Temperatura máxima	10.2
18099	7	Sololá	701	Sololá	3	Barraneche	4	Abril	2023-05-04T00:00:00	2024-11-06T06:00:00	3	Temperatura mínima	9.1
18100	7	Sololá	701	Sololá	3	Barraneche	4	Abril	2023-05-04T00:00:00	2024-11-06T06:00:00	5	Humedad	44
18101	7	Sololá	701	Sololá	3	Barraneche	4	Abril	2023-05-04T00:00:00	2024-11-06T06:00:00	6	Velocidad del viento	9.7
18102	7	Sololá	701	Sololá	3	Barraneche	4	Abril	2023-05-04T00:00:00	2024-11-06T06:00:00	7	Dirección del viento	9.66
18103	7	Sololá	701	Sololá	3	Barraneche	4	Abril	2023-05-04T00:00:00	2024-11-06T06:00:00	1	Precipitación	0
18104	7	Sololá	701	Sololá	3	Barraneche	4	Abril	2023-05-04T00:00:00	2024-11-06T06:00:00	8	Radiación solar	1
18105	7	Sololá	701	Sololá	3	Barraneche	4	Abril	2023-05-04T00:00:00	2024-11-06T07:00:00	2	Temperatura media	11.3
18106	7	Sololá	701	Sololá	3	Barraneche	4	Abril	2023-05-04T00:00:00	2024-11-06T07:00:00	4	Temperatura máxima	11.3
18107	7	Sololá	701	Sololá	3	Barraneche	4	Abril	2023-05-04T00:00:00	2024-11-06T07:00:00	3	Temperatura mínima	9.1
18108	7	Sololá	701	Sololá	3	Barraneche	4	Abril	2023-05-04T00:00:00	2024-11-06T07:00:00	5	Humedad	43
18109	7	Sololá	701	Sololá	3	Barraneche	4	Abril	2023-05-04T00:00:00	2024-11-06T07:00:00	6	Velocidad del viento	11.3
18110	7	Sololá	701	Sololá	3	Barraneche	4	Abril	2023-05-04T00:00:00	2024-11-06T07:00:00	7	Dirección del viento	11.27
18111	7	Sololá	701	Sololá	3	Barraneche	4	Abril	2023-05-04T00:00:00	2024-11-06T07:00:00	1	Precipitación	0
18112	7	Sololá	701	Sololá	3	Barraneche	4	Abril	2023-05-04T00:00:00	2024-11-06T07:00:00	8	Radiación solar	46
18113	7	Sololá	701	Sololá	3	Barraneche	4	Abril	2023-05-04T00:00:00	2024-11-06T08:00:00	2	Temperatura media	15.3
18114	7	Sololá	701	Sololá	3	Barraneche	4	Abril	2023-05-04T00:00:00	2024-11-06T08:00:00	4	Temperatura máxima	15.3
18115	7	Sololá	701	Sololá	3	Barraneche	4	Abril	2023-05-04T00:00:00	2024-11-06T08:00:00	3	Temperatura mínima	11.3
18116	7	Sololá	701	Sololá	3	Barraneche	4	Abril	2023-05-04T00:00:00	2024-11-06T08:00:00	5	Humedad	38
18117	7	Sololá	701	Sololá	3	Barraneche	4	Abril	2023-05-04T00:00:00	2024-11-06T08:00:00	6	Velocidad del viento	6.4
18118	7	Sololá	701	Sololá	3	Barraneche	4	Abril	2023-05-04T00:00:00	2024-11-06T08:00:00	7	Dirección del viento	6.44
18119	7	Sololá	701	Sololá	3	Barraneche	4	Abril	2023-05-04T00:00:00	2024-11-06T08:00:00	1	Precipitación	0
18120	7	Sololá	701	Sololá	3	Barraneche	4	Abril	2023-05-04T00:00:00	2024-11-06T08:00:00	8	Radiación solar	346
18121	7	Sololá	701	Sololá	3	Barraneche	4	Abril	2023-05-04T00:00:00	2024-11-06T09:00:00	2	Temperatura media	17.8
18122	7	Sololá	701	Sololá	3	Barraneche	4	Abril	2023-05-04T00:00:00	2024-11-06T09:00:00	4	Temperatura máxima	17.8
18123	7	Sololá	701	Sololá	3	Barraneche	4	Abril	2023-05-04T00:00:00	2024-11-06T09:00:00	3	Temperatura mínima	15.3
18124	7	Sololá	701	Sololá	3	Barraneche	4	Abril	2023-05-04T00:00:00	2024-11-06T09:00:00	5	Humedad	39
18125	7	Sololá	701	Sololá	3	Barraneche	4	Abril	2023-05-04T00:00:00	2024-11-06T09:00:00	6	Velocidad del viento	4.8
18126	7	Sololá	701	Sololá	3	Barraneche	4	Abril	2023-05-04T00:00:00	2024-11-06T09:00:00	7	Dirección del viento	4.83
18127	7	Sololá	701	Sololá	3	Barraneche	4	Abril	2023-05-04T00:00:00	2024-11-06T09:00:00	1	Precipitación	0
18128	7	Sololá	701	Sololá	3	Barraneche	4	Abril	2023-05-04T00:00:00	2024-11-06T09:00:00	8	Radiación solar	600
18129	7	Sololá	701	Sololá	3	Barraneche	4	Abril	2023-05-04T00:00:00	2024-11-06T10:00:00	2	Temperatura media	17.7
18130	7	Sololá	701	Sololá	3	Barraneche	4	Abril	2023-05-04T00:00:00	2024-11-06T10:00:00	4	Temperatura máxima	18.2
18131	7	Sololá	701	Sololá	3	Barraneche	4	Abril	2023-05-04T00:00:00	2024-11-06T10:00:00	3	Temperatura mínima	17.4
18132	7	Sololá	701	Sololá	3	Barraneche	4	Abril	2023-05-04T00:00:00	2024-11-06T10:00:00	5	Humedad	52
18133	7	Sololá	701	Sololá	3	Barraneche	4	Abril	2023-05-04T00:00:00	2024-11-06T10:00:00	6	Velocidad del viento	9.7
18134	7	Sololá	701	Sololá	3	Barraneche	4	Abril	2023-05-04T00:00:00	2024-11-06T10:00:00	7	Dirección del viento	9.66
18135	7	Sololá	701	Sololá	3	Barraneche	4	Abril	2023-05-04T00:00:00	2024-11-06T10:00:00	1	Precipitación	0
18136	7	Sololá	701	Sololá	3	Barraneche	4	Abril	2023-05-04T00:00:00	2024-11-06T10:00:00	8	Radiación solar	803
18137	7	Sololá	701	Sololá	3	Barraneche	4	Abril	2023-05-04T00:00:00	2024-11-06T11:00:00	2	Temperatura media	18.7
18138	7	Sololá	701	Sololá	3	Barraneche	4	Abril	2023-05-04T00:00:00	2024-11-06T11:00:00	4	Temperatura máxima	18.8
18139	7	Sololá	701	Sololá	3	Barraneche	4	Abril	2023-05-04T00:00:00	2024-11-06T11:00:00	3	Temperatura mínima	17.7
18140	7	Sololá	701	Sololá	3	Barraneche	4	Abril	2023-05-04T00:00:00	2024-11-06T11:00:00	5	Humedad	47
18141	7	Sololá	701	Sololá	3	Barraneche	4	Abril	2023-05-04T00:00:00	2024-11-06T11:00:00	6	Velocidad del viento	12.9
18142	7	Sololá	701	Sololá	3	Barraneche	4	Abril	2023-05-04T00:00:00	2024-11-06T11:00:00	7	Dirección del viento	12.87
18143	7	Sololá	701	Sololá	3	Barraneche	4	Abril	2023-05-04T00:00:00	2024-11-06T11:00:00	1	Precipitación	0
18144	7	Sololá	701	Sololá	3	Barraneche	4	Abril	2023-05-04T00:00:00	2024-11-06T11:00:00	8	Radiación solar	958
18145	7	Sololá	701	Sololá	3	Barraneche	4	Abril	2023-05-04T00:00:00	2024-11-06T12:00:00	2	Temperatura media	19.4
18146	7	Sololá	701	Sololá	3	Barraneche	4	Abril	2023-05-04T00:00:00	2024-11-06T12:00:00	4	Temperatura máxima	19.4
18147	7	Sololá	701	Sololá	3	Barraneche	4	Abril	2023-05-04T00:00:00	2024-11-06T12:00:00	3	Temperatura mínima	18.7
18148	7	Sololá	701	Sololá	3	Barraneche	4	Abril	2023-05-04T00:00:00	2024-11-06T12:00:00	5	Humedad	48
18149	7	Sololá	701	Sololá	3	Barraneche	4	Abril	2023-05-04T00:00:00	2024-11-06T12:00:00	6	Velocidad del viento	12.9
18150	7	Sololá	701	Sololá	3	Barraneche	4	Abril	2023-05-04T00:00:00	2024-11-06T12:00:00	7	Dirección del viento	12.87
18151	7	Sololá	701	Sololá	3	Barraneche	4	Abril	2023-05-04T00:00:00	2024-11-06T12:00:00	1	Precipitación	0
18152	7	Sololá	701	Sololá	3	Barraneche	4	Abril	2023-05-04T00:00:00	2024-11-06T12:00:00	8	Radiación solar	1037
18153	7	Sololá	701	Sololá	3	Barraneche	4	Abril	2023-05-04T00:00:00	2024-11-06T13:00:00	2	Temperatura media	19.6
18154	7	Sololá	701	Sololá	3	Barraneche	4	Abril	2023-05-04T00:00:00	2024-11-06T13:00:00	4	Temperatura máxima	19.7
18155	7	Sololá	701	Sololá	3	Barraneche	4	Abril	2023-05-04T00:00:00	2024-11-06T13:00:00	3	Temperatura mínima	19.2
18156	7	Sololá	701	Sololá	3	Barraneche	4	Abril	2023-05-04T00:00:00	2024-11-06T13:00:00	5	Humedad	52
18157	7	Sololá	701	Sololá	3	Barraneche	4	Abril	2023-05-04T00:00:00	2024-11-06T13:00:00	6	Velocidad del viento	14.5
18158	7	Sololá	701	Sololá	3	Barraneche	4	Abril	2023-05-04T00:00:00	2024-11-06T13:00:00	7	Dirección del viento	14.48
18159	7	Sololá	701	Sololá	3	Barraneche	4	Abril	2023-05-04T00:00:00	2024-11-06T13:00:00	1	Precipitación	0
18160	7	Sololá	701	Sololá	3	Barraneche	4	Abril	2023-05-04T00:00:00	2024-11-06T13:00:00	8	Radiación solar	1034
18161	7	Sololá	701	Sololá	3	Barraneche	4	Abril	2023-05-04T00:00:00	2024-11-06T14:00:00	2	Temperatura media	19.4
18162	7	Sololá	701	Sololá	3	Barraneche	4	Abril	2023-05-04T00:00:00	2024-11-06T14:00:00	4	Temperatura máxima	19.7
18163	7	Sololá	701	Sololá	3	Barraneche	4	Abril	2023-05-04T00:00:00	2024-11-06T14:00:00	3	Temperatura mínima	18.4
18164	7	Sololá	701	Sololá	3	Barraneche	4	Abril	2023-05-04T00:00:00	2024-11-06T14:00:00	5	Humedad	55
18165	7	Sololá	701	Sololá	3	Barraneche	4	Abril	2023-05-04T00:00:00	2024-11-06T14:00:00	6	Velocidad del viento	14.5
18166	7	Sololá	701	Sololá	3	Barraneche	4	Abril	2023-05-04T00:00:00	2024-11-06T14:00:00	7	Dirección del viento	14.48
18167	7	Sololá	701	Sololá	3	Barraneche	4	Abril	2023-05-04T00:00:00	2024-11-06T14:00:00	1	Precipitación	0
18168	7	Sololá	701	Sololá	3	Barraneche	4	Abril	2023-05-04T00:00:00	2024-11-06T14:00:00	8	Radiación solar	959
18169	7	Sololá	701	Sololá	3	Barraneche	4	Abril	2023-05-04T00:00:00	2024-11-06T15:00:00	2	Temperatura media	18.9
18170	7	Sololá	701	Sololá	3	Barraneche	4	Abril	2023-05-04T00:00:00	2024-11-06T15:00:00	4	Temperatura máxima	19.6
18171	7	Sololá	701	Sololá	3	Barraneche	4	Abril	2023-05-04T00:00:00	2024-11-06T15:00:00	3	Temperatura mínima	18.9
18172	7	Sololá	701	Sololá	3	Barraneche	4	Abril	2023-05-04T00:00:00	2024-11-06T15:00:00	5	Humedad	59
18173	7	Sololá	701	Sololá	3	Barraneche	4	Abril	2023-05-04T00:00:00	2024-11-06T15:00:00	6	Velocidad del viento	12.9
18174	7	Sololá	701	Sololá	3	Barraneche	4	Abril	2023-05-04T00:00:00	2024-11-06T15:00:00	7	Dirección del viento	12.87
18175	7	Sololá	701	Sololá	3	Barraneche	4	Abril	2023-05-04T00:00:00	2024-11-06T15:00:00	1	Precipitación	0
18176	7	Sololá	701	Sololá	3	Barraneche	4	Abril	2023-05-04T00:00:00	2024-11-06T15:00:00	8	Radiación solar	767
18177	7	Sololá	701	Sololá	3	Barraneche	4	Abril	2023-05-04T00:00:00	2024-11-06T16:00:00	2	Temperatura media	17.4
18178	7	Sololá	701	Sololá	3	Barraneche	4	Abril	2023-05-04T00:00:00	2024-11-06T16:00:00	4	Temperatura máxima	18.9
18179	7	Sololá	701	Sololá	3	Barraneche	4	Abril	2023-05-04T00:00:00	2024-11-06T16:00:00	3	Temperatura mínima	17.3
18180	7	Sololá	701	Sololá	3	Barraneche	4	Abril	2023-05-04T00:00:00	2024-11-06T16:00:00	5	Humedad	65
18181	7	Sololá	701	Sololá	3	Barraneche	4	Abril	2023-05-04T00:00:00	2024-11-06T16:00:00	6	Velocidad del viento	11.3
18182	7	Sololá	701	Sololá	3	Barraneche	4	Abril	2023-05-04T00:00:00	2024-11-06T16:00:00	7	Dirección del viento	11.27
18183	7	Sololá	701	Sololá	3	Barraneche	4	Abril	2023-05-04T00:00:00	2024-11-06T16:00:00	1	Precipitación	0
18184	7	Sololá	701	Sololá	3	Barraneche	4	Abril	2023-05-04T00:00:00	2024-11-06T16:00:00	8	Radiación solar	315
18185	7	Sololá	701	Sololá	3	Barraneche	4	Abril	2023-05-04T00:00:00	2024-11-06T17:00:00	2	Temperatura media	16.4
18186	7	Sololá	701	Sololá	3	Barraneche	4	Abril	2023-05-04T00:00:00	2024-11-06T17:00:00	4	Temperatura máxima	17.4
18187	7	Sololá	701	Sololá	3	Barraneche	4	Abril	2023-05-04T00:00:00	2024-11-06T17:00:00	3	Temperatura mínima	16.4
18188	7	Sololá	701	Sololá	3	Barraneche	4	Abril	2023-05-04T00:00:00	2024-11-06T17:00:00	5	Humedad	70
18189	7	Sololá	701	Sololá	3	Barraneche	4	Abril	2023-05-04T00:00:00	2024-11-06T17:00:00	6	Velocidad del viento	11.3
18190	7	Sololá	701	Sololá	3	Barraneche	4	Abril	2023-05-04T00:00:00	2024-11-06T17:00:00	7	Dirección del viento	11.27
18191	7	Sololá	701	Sololá	3	Barraneche	4	Abril	2023-05-04T00:00:00	2024-11-06T17:00:00	1	Precipitación	0
18192	7	Sololá	701	Sololá	3	Barraneche	4	Abril	2023-05-04T00:00:00	2024-11-06T17:00:00	8	Radiación solar	155
18193	7	Sololá	701	Sololá	3	Barraneche	4	Abril	2023-05-04T00:00:00	2024-11-06T18:00:00	2	Temperatura media	15.8
18194	7	Sololá	701	Sololá	3	Barraneche	4	Abril	2023-05-04T00:00:00	2024-11-06T18:00:00	4	Temperatura máxima	16.4
18195	7	Sololá	701	Sololá	3	Barraneche	4	Abril	2023-05-04T00:00:00	2024-11-06T18:00:00	3	Temperatura mínima	15.8
18196	7	Sololá	701	Sololá	3	Barraneche	4	Abril	2023-05-04T00:00:00	2024-11-06T18:00:00	5	Humedad	73
18197	7	Sololá	701	Sololá	3	Barraneche	4	Abril	2023-05-04T00:00:00	2024-11-06T18:00:00	6	Velocidad del viento	8
18198	7	Sololá	701	Sololá	3	Barraneche	4	Abril	2023-05-04T00:00:00	2024-11-06T18:00:00	7	Dirección del viento	8.05
18199	7	Sololá	701	Sololá	3	Barraneche	4	Abril	2023-05-04T00:00:00	2024-11-06T18:00:00	1	Precipitación	0
18200	7	Sololá	701	Sololá	3	Barraneche	4	Abril	2023-05-04T00:00:00	2024-11-06T18:00:00	8	Radiación solar	47
18201	7	Sololá	701	Sololá	3	Barraneche	4	Abril	2023-05-04T00:00:00	2024-11-06T19:00:00	2	Temperatura media	15.4
18202	7	Sololá	701	Sololá	3	Barraneche	4	Abril	2023-05-04T00:00:00	2024-11-06T19:00:00	4	Temperatura máxima	15.8
18203	7	Sololá	701	Sololá	3	Barraneche	4	Abril	2023-05-04T00:00:00	2024-11-06T19:00:00	3	Temperatura mínima	15.3
18204	7	Sololá	701	Sololá	3	Barraneche	4	Abril	2023-05-04T00:00:00	2024-11-06T19:00:00	5	Humedad	75
18205	7	Sololá	701	Sololá	3	Barraneche	4	Abril	2023-05-04T00:00:00	2024-11-06T19:00:00	6	Velocidad del viento	3.2
18206	7	Sololá	701	Sololá	3	Barraneche	4	Abril	2023-05-04T00:00:00	2024-11-06T19:00:00	7	Dirección del viento	3.22
18207	7	Sololá	701	Sololá	3	Barraneche	4	Abril	2023-05-04T00:00:00	2024-11-06T19:00:00	1	Precipitación	0
18208	7	Sololá	701	Sololá	3	Barraneche	4	Abril	2023-05-04T00:00:00	2024-11-06T19:00:00	8	Radiación solar	0
18209	7	Sololá	701	Sololá	3	Barraneche	4	Abril	2023-05-04T00:00:00	2024-11-06T20:00:00	2	Temperatura media	13.7
18210	7	Sololá	701	Sololá	3	Barraneche	4	Abril	2023-05-04T00:00:00	2024-11-06T20:00:00	4	Temperatura máxima	15.4
18211	7	Sololá	701	Sololá	3	Barraneche	4	Abril	2023-05-04T00:00:00	2024-11-06T20:00:00	3	Temperatura mínima	13.7
18212	7	Sololá	701	Sololá	3	Barraneche	4	Abril	2023-05-04T00:00:00	2024-11-06T20:00:00	5	Humedad	67
18213	7	Sololá	701	Sololá	3	Barraneche	4	Abril	2023-05-04T00:00:00	2024-11-06T20:00:00	6	Velocidad del viento	3.2
18214	7	Sololá	701	Sololá	3	Barraneche	4	Abril	2023-05-04T00:00:00	2024-11-06T20:00:00	7	Dirección del viento	3.22
18215	7	Sololá	701	Sololá	3	Barraneche	4	Abril	2023-05-04T00:00:00	2024-11-06T20:00:00	1	Precipitación	0
18216	7	Sololá	701	Sololá	3	Barraneche	4	Abril	2023-05-04T00:00:00	2024-11-06T20:00:00	8	Radiación solar	0
18217	7	Sololá	701	Sololá	3	Barraneche	4	Abril	2023-05-04T00:00:00	2024-11-06T21:00:00	2	Temperatura media	12.9
18218	7	Sololá	701	Sololá	3	Barraneche	4	Abril	2023-05-04T00:00:00	2024-11-06T21:00:00	4	Temperatura máxima	13.8
18219	7	Sololá	701	Sololá	3	Barraneche	4	Abril	2023-05-04T00:00:00	2024-11-06T21:00:00	3	Temperatura mínima	12.9
18220	7	Sololá	701	Sololá	3	Barraneche	4	Abril	2023-05-04T00:00:00	2024-11-06T21:00:00	5	Humedad	67
18221	7	Sololá	701	Sololá	3	Barraneche	4	Abril	2023-05-04T00:00:00	2024-11-06T21:00:00	6	Velocidad del viento	6.4
18222	7	Sololá	701	Sololá	3	Barraneche	4	Abril	2023-05-04T00:00:00	2024-11-06T21:00:00	7	Dirección del viento	6.44
18223	7	Sololá	701	Sololá	3	Barraneche	4	Abril	2023-05-04T00:00:00	2024-11-06T21:00:00	1	Precipitación	0
18224	7	Sololá	701	Sololá	3	Barraneche	4	Abril	2023-05-04T00:00:00	2024-11-06T21:00:00	8	Radiación solar	0
18225	7	Sololá	701	Sololá	3	Barraneche	4	Abril	2023-05-04T00:00:00	2024-11-06T22:00:00	2	Temperatura media	12.7
18226	7	Sololá	701	Sololá	3	Barraneche	4	Abril	2023-05-04T00:00:00	2024-11-06T22:00:00	4	Temperatura máxima	13.2
18227	7	Sololá	701	Sololá	3	Barraneche	4	Abril	2023-05-04T00:00:00	2024-11-06T22:00:00	3	Temperatura mínima	12.7
18228	7	Sololá	701	Sololá	3	Barraneche	4	Abril	2023-05-04T00:00:00	2024-11-06T22:00:00	5	Humedad	69
18229	7	Sololá	701	Sololá	3	Barraneche	4	Abril	2023-05-04T00:00:00	2024-11-06T22:00:00	6	Velocidad del viento	3.2
18230	7	Sololá	701	Sololá	3	Barraneche	4	Abril	2023-05-04T00:00:00	2024-11-06T22:00:00	7	Dirección del viento	3.22
18231	7	Sololá	701	Sololá	3	Barraneche	4	Abril	2023-05-04T00:00:00	2024-11-06T22:00:00	1	Precipitación	0
18232	7	Sololá	701	Sololá	3	Barraneche	4	Abril	2023-05-04T00:00:00	2024-11-06T22:00:00	8	Radiación solar	0
18233	7	Sololá	701	Sololá	3	Barraneche	4	Abril	2023-05-04T00:00:00	2024-11-06T23:00:00	2	Temperatura media	11.8
18234	7	Sololá	701	Sololá	3	Barraneche	4	Abril	2023-05-04T00:00:00	2024-11-06T23:00:00	4	Temperatura máxima	12.7
18235	7	Sololá	701	Sololá	3	Barraneche	4	Abril	2023-05-04T00:00:00	2024-11-06T23:00:00	3	Temperatura mínima	11.8
18236	7	Sololá	701	Sololá	3	Barraneche	4	Abril	2023-05-04T00:00:00	2024-11-06T23:00:00	5	Humedad	65
18237	7	Sololá	701	Sololá	3	Barraneche	4	Abril	2023-05-04T00:00:00	2024-11-06T23:00:00	6	Velocidad del viento	4.8
18238	7	Sololá	701	Sololá	3	Barraneche	4	Abril	2023-05-04T00:00:00	2024-11-06T23:00:00	7	Dirección del viento	4.83
18239	7	Sololá	701	Sololá	3	Barraneche	4	Abril	2023-05-04T00:00:00	2024-11-06T23:00:00	1	Precipitación	0
18240	7	Sololá	701	Sololá	3	Barraneche	4	Abril	2023-05-04T00:00:00	2024-11-06T23:00:00	8	Radiación solar	0
18241	7	Sololá	701	Sololá	3	Barraneche	4	Abril	2023-06-04T00:00:00	2024-11-06T00:00:00	2	Temperatura media	11.2
18242	7	Sololá	701	Sololá	3	Barraneche	4	Abril	2023-06-04T00:00:00	2024-11-06T00:00:00	4	Temperatura máxima	11.8
18243	7	Sololá	701	Sololá	3	Barraneche	4	Abril	2023-06-04T00:00:00	2024-11-06T00:00:00	3	Temperatura mínima	11
18244	7	Sololá	701	Sololá	3	Barraneche	4	Abril	2023-06-04T00:00:00	2024-11-06T00:00:00	5	Humedad	65
18245	7	Sololá	701	Sololá	3	Barraneche	4	Abril	2023-06-04T00:00:00	2024-11-06T00:00:00	6	Velocidad del viento	8
18246	7	Sololá	701	Sololá	3	Barraneche	4	Abril	2023-06-04T00:00:00	2024-11-06T00:00:00	7	Dirección del viento	8.05
18247	7	Sololá	701	Sololá	3	Barraneche	4	Abril	2023-06-04T00:00:00	2024-11-06T00:00:00	1	Precipitación	0
18248	7	Sololá	701	Sololá	3	Barraneche	4	Abril	2023-06-04T00:00:00	2024-11-06T00:00:00	8	Radiación solar	0
18249	7	Sololá	701	Sololá	3	Barraneche	4	Abril	2023-06-04T00:00:00	2024-11-06T01:00:00	2	Temperatura media	11.6
18250	7	Sololá	701	Sololá	3	Barraneche	4	Abril	2023-06-04T00:00:00	2024-11-06T01:00:00	4	Temperatura máxima	11.6
18251	7	Sololá	701	Sololá	3	Barraneche	4	Abril	2023-06-04T00:00:00	2024-11-06T01:00:00	3	Temperatura mínima	10.8
18252	7	Sololá	701	Sololá	3	Barraneche	4	Abril	2023-06-04T00:00:00	2024-11-06T01:00:00	5	Humedad	65
18253	7	Sololá	701	Sololá	3	Barraneche	4	Abril	2023-06-04T00:00:00	2024-11-06T01:00:00	6	Velocidad del viento	6.4
18254	7	Sololá	701	Sololá	3	Barraneche	4	Abril	2023-06-04T00:00:00	2024-11-06T01:00:00	7	Dirección del viento	6.44
18255	7	Sololá	701	Sololá	3	Barraneche	4	Abril	2023-06-04T00:00:00	2024-11-06T01:00:00	1	Precipitación	0
18256	7	Sololá	701	Sololá	3	Barraneche	4	Abril	2023-06-04T00:00:00	2024-11-06T01:00:00	8	Radiación solar	0
18257	7	Sololá	701	Sololá	3	Barraneche	4	Abril	2023-06-04T00:00:00	2024-11-06T02:00:00	2	Temperatura media	11.5
18258	7	Sololá	701	Sololá	3	Barraneche	4	Abril	2023-06-04T00:00:00	2024-11-06T02:00:00	4	Temperatura máxima	12.2
18259	7	Sololá	701	Sololá	3	Barraneche	4	Abril	2023-06-04T00:00:00	2024-11-06T02:00:00	3	Temperatura mínima	11.4
18260	7	Sololá	701	Sololá	3	Barraneche	4	Abril	2023-06-04T00:00:00	2024-11-06T02:00:00	5	Humedad	67
18261	7	Sololá	701	Sololá	3	Barraneche	4	Abril	2023-06-04T00:00:00	2024-11-06T02:00:00	6	Velocidad del viento	4.8
18262	7	Sololá	701	Sololá	3	Barraneche	4	Abril	2023-06-04T00:00:00	2024-11-06T02:00:00	7	Dirección del viento	4.83
18263	7	Sololá	701	Sololá	3	Barraneche	4	Abril	2023-06-04T00:00:00	2024-11-06T02:00:00	1	Precipitación	0
18264	7	Sololá	701	Sololá	3	Barraneche	4	Abril	2023-06-04T00:00:00	2024-11-06T02:00:00	8	Radiación solar	0
18265	7	Sololá	701	Sololá	3	Barraneche	4	Abril	2023-06-04T00:00:00	2024-11-06T03:00:00	2	Temperatura media	11.5
18266	7	Sololá	701	Sololá	3	Barraneche	4	Abril	2023-06-04T00:00:00	2024-11-06T03:00:00	4	Temperatura máxima	12.1
18267	7	Sololá	701	Sololá	3	Barraneche	4	Abril	2023-06-04T00:00:00	2024-11-06T03:00:00	3	Temperatura mínima	11.5
18268	7	Sololá	701	Sololá	3	Barraneche	4	Abril	2023-06-04T00:00:00	2024-11-06T03:00:00	5	Humedad	68
18269	7	Sololá	701	Sololá	3	Barraneche	4	Abril	2023-06-04T00:00:00	2024-11-06T03:00:00	6	Velocidad del viento	4.8
18270	7	Sololá	701	Sololá	3	Barraneche	4	Abril	2023-06-04T00:00:00	2024-11-06T03:00:00	7	Dirección del viento	4.83
18271	7	Sololá	701	Sololá	3	Barraneche	4	Abril	2023-06-04T00:00:00	2024-11-06T03:00:00	1	Precipitación	0
18272	7	Sololá	701	Sololá	3	Barraneche	4	Abril	2023-06-04T00:00:00	2024-11-06T03:00:00	8	Radiación solar	0
18273	7	Sololá	701	Sololá	3	Barraneche	4	Abril	2023-06-04T00:00:00	2024-11-06T04:00:00	2	Temperatura media	11.3
18274	7	Sololá	701	Sololá	3	Barraneche	4	Abril	2023-06-04T00:00:00	2024-11-06T04:00:00	4	Temperatura máxima	11.5
18275	7	Sololá	701	Sololá	3	Barraneche	4	Abril	2023-06-04T00:00:00	2024-11-06T04:00:00	3	Temperatura mínima	10.6
18276	7	Sololá	701	Sololá	3	Barraneche	4	Abril	2023-06-04T00:00:00	2024-11-06T04:00:00	5	Humedad	67
18277	7	Sololá	701	Sololá	3	Barraneche	4	Abril	2023-06-04T00:00:00	2024-11-06T04:00:00	6	Velocidad del viento	6.4
18278	7	Sololá	701	Sololá	3	Barraneche	4	Abril	2023-06-04T00:00:00	2024-11-06T04:00:00	7	Dirección del viento	6.44
18279	7	Sololá	701	Sololá	3	Barraneche	4	Abril	2023-06-04T00:00:00	2024-11-06T04:00:00	1	Precipitación	0
18280	7	Sololá	701	Sololá	3	Barraneche	4	Abril	2023-06-04T00:00:00	2024-11-06T04:00:00	8	Radiación solar	0
18281	7	Sololá	701	Sololá	3	Barraneche	4	Abril	2023-06-04T00:00:00	2024-11-06T05:00:00	2	Temperatura media	11.2
18282	7	Sololá	701	Sololá	3	Barraneche	4	Abril	2023-06-04T00:00:00	2024-11-06T05:00:00	4	Temperatura máxima	11.7
18283	7	Sololá	701	Sololá	3	Barraneche	4	Abril	2023-06-04T00:00:00	2024-11-06T05:00:00	3	Temperatura mínima	11.2
18284	7	Sololá	701	Sololá	3	Barraneche	4	Abril	2023-06-04T00:00:00	2024-11-06T05:00:00	5	Humedad	67
18285	7	Sololá	701	Sololá	3	Barraneche	4	Abril	2023-06-04T00:00:00	2024-11-06T05:00:00	6	Velocidad del viento	3.2
18286	7	Sololá	701	Sololá	3	Barraneche	4	Abril	2023-06-04T00:00:00	2024-11-06T05:00:00	7	Dirección del viento	3.22
18287	7	Sololá	701	Sololá	3	Barraneche	4	Abril	2023-06-04T00:00:00	2024-11-06T05:00:00	1	Precipitación	0
18288	7	Sololá	701	Sololá	3	Barraneche	4	Abril	2023-06-04T00:00:00	2024-11-06T05:00:00	8	Radiación solar	0
18289	7	Sololá	701	Sololá	3	Barraneche	4	Abril	2023-06-04T00:00:00	2024-11-06T06:00:00	2	Temperatura media	10.6
18290	7	Sololá	701	Sololá	3	Barraneche	4	Abril	2023-06-04T00:00:00	2024-11-06T06:00:00	4	Temperatura máxima	11.3
18291	7	Sololá	701	Sololá	3	Barraneche	4	Abril	2023-06-04T00:00:00	2024-11-06T06:00:00	3	Temperatura mínima	10.5
18292	7	Sololá	701	Sololá	3	Barraneche	4	Abril	2023-06-04T00:00:00	2024-11-06T06:00:00	5	Humedad	65
18293	7	Sololá	701	Sololá	3	Barraneche	4	Abril	2023-06-04T00:00:00	2024-11-06T06:00:00	6	Velocidad del viento	8
18294	7	Sololá	701	Sololá	3	Barraneche	4	Abril	2023-06-04T00:00:00	2024-11-06T06:00:00	7	Dirección del viento	8.05
18295	7	Sololá	701	Sololá	3	Barraneche	4	Abril	2023-06-04T00:00:00	2024-11-06T06:00:00	1	Precipitación	0
18296	7	Sololá	701	Sololá	3	Barraneche	4	Abril	2023-06-04T00:00:00	2024-11-06T06:00:00	8	Radiación solar	1
18297	7	Sololá	701	Sololá	3	Barraneche	4	Abril	2023-06-04T00:00:00	2024-11-06T07:00:00	2	Temperatura media	11.2
18298	7	Sololá	701	Sololá	3	Barraneche	4	Abril	2023-06-04T00:00:00	2024-11-06T07:00:00	4	Temperatura máxima	11.2
18299	7	Sololá	701	Sololá	3	Barraneche	4	Abril	2023-06-04T00:00:00	2024-11-06T07:00:00	3	Temperatura mínima	10
18300	7	Sololá	701	Sololá	3	Barraneche	4	Abril	2023-06-04T00:00:00	2024-11-06T07:00:00	5	Humedad	67
18301	7	Sololá	701	Sololá	3	Barraneche	4	Abril	2023-06-04T00:00:00	2024-11-06T07:00:00	6	Velocidad del viento	1.6
18302	7	Sololá	701	Sololá	3	Barraneche	4	Abril	2023-06-04T00:00:00	2024-11-06T07:00:00	7	Dirección del viento	1.61
18303	7	Sololá	701	Sololá	3	Barraneche	4	Abril	2023-06-04T00:00:00	2024-11-06T07:00:00	1	Precipitación	0
18304	7	Sololá	701	Sololá	3	Barraneche	4	Abril	2023-06-04T00:00:00	2024-11-06T07:00:00	8	Radiación solar	46
18305	7	Sololá	701	Sololá	3	Barraneche	4	Abril	2023-06-04T00:00:00	2024-11-06T08:00:00	2	Temperatura media	14.6
18306	7	Sololá	701	Sololá	3	Barraneche	4	Abril	2023-06-04T00:00:00	2024-11-06T08:00:00	4	Temperatura máxima	14.6
18307	7	Sololá	701	Sololá	3	Barraneche	4	Abril	2023-06-04T00:00:00	2024-11-06T08:00:00	3	Temperatura mínima	11.2
18308	7	Sololá	701	Sololá	3	Barraneche	4	Abril	2023-06-04T00:00:00	2024-11-06T08:00:00	5	Humedad	61
18309	7	Sololá	701	Sololá	3	Barraneche	4	Abril	2023-06-04T00:00:00	2024-11-06T08:00:00	6	Velocidad del viento	1.6
18310	7	Sololá	701	Sololá	3	Barraneche	4	Abril	2023-06-04T00:00:00	2024-11-06T08:00:00	7	Dirección del viento	1.61
18311	7	Sololá	701	Sololá	3	Barraneche	4	Abril	2023-06-04T00:00:00	2024-11-06T08:00:00	1	Precipitación	0
18312	7	Sololá	701	Sololá	3	Barraneche	4	Abril	2023-06-04T00:00:00	2024-11-06T08:00:00	8	Radiación solar	202
18313	7	Sololá	701	Sololá	3	Barraneche	4	Abril	2023-06-04T00:00:00	2024-11-06T09:00:00	2	Temperatura media	16.7
18314	7	Sololá	701	Sololá	3	Barraneche	4	Abril	2023-06-04T00:00:00	2024-11-06T09:00:00	4	Temperatura máxima	16.7
18315	7	Sololá	701	Sololá	3	Barraneche	4	Abril	2023-06-04T00:00:00	2024-11-06T09:00:00	3	Temperatura mínima	14.6
18316	7	Sololá	701	Sololá	3	Barraneche	4	Abril	2023-06-04T00:00:00	2024-11-06T09:00:00	5	Humedad	55
18317	7	Sololá	701	Sololá	3	Barraneche	4	Abril	2023-06-04T00:00:00	2024-11-06T09:00:00	6	Velocidad del viento	4.8
18318	7	Sololá	701	Sololá	3	Barraneche	4	Abril	2023-06-04T00:00:00	2024-11-06T09:00:00	7	Dirección del viento	4.83
18319	7	Sololá	701	Sololá	3	Barraneche	4	Abril	2023-06-04T00:00:00	2024-11-06T09:00:00	1	Precipitación	0
18320	7	Sololá	701	Sololá	3	Barraneche	4	Abril	2023-06-04T00:00:00	2024-11-06T09:00:00	8	Radiación solar	570
18321	7	Sololá	701	Sololá	3	Barraneche	4	Abril	2023-06-04T00:00:00	2024-11-06T10:00:00	2	Temperatura media	17.7
18322	7	Sololá	701	Sololá	3	Barraneche	4	Abril	2023-06-04T00:00:00	2024-11-06T10:00:00	4	Temperatura máxima	17.8
18323	7	Sololá	701	Sololá	3	Barraneche	4	Abril	2023-06-04T00:00:00	2024-11-06T10:00:00	3	Temperatura mínima	16.7
18324	7	Sololá	701	Sololá	3	Barraneche	4	Abril	2023-06-04T00:00:00	2024-11-06T10:00:00	5	Humedad	57
18325	7	Sololá	701	Sololá	3	Barraneche	4	Abril	2023-06-04T00:00:00	2024-11-06T10:00:00	6	Velocidad del viento	8
18326	7	Sololá	701	Sololá	3	Barraneche	4	Abril	2023-06-04T00:00:00	2024-11-06T10:00:00	7	Dirección del viento	8.05
18327	7	Sololá	701	Sololá	3	Barraneche	4	Abril	2023-06-04T00:00:00	2024-11-06T10:00:00	1	Precipitación	0
18328	7	Sololá	701	Sololá	3	Barraneche	4	Abril	2023-06-04T00:00:00	2024-11-06T10:00:00	8	Radiación solar	790
18329	7	Sololá	701	Sololá	3	Barraneche	4	Abril	2023-06-04T00:00:00	2024-11-06T11:00:00	2	Temperatura media	18.5
18330	7	Sololá	701	Sololá	3	Barraneche	4	Abril	2023-06-04T00:00:00	2024-11-06T11:00:00	4	Temperatura máxima	18.6
18331	7	Sololá	701	Sololá	3	Barraneche	4	Abril	2023-06-04T00:00:00	2024-11-06T11:00:00	3	Temperatura mínima	17.6
18332	7	Sololá	701	Sololá	3	Barraneche	4	Abril	2023-06-04T00:00:00	2024-11-06T11:00:00	5	Humedad	57
18333	7	Sololá	701	Sololá	3	Barraneche	4	Abril	2023-06-04T00:00:00	2024-11-06T11:00:00	6	Velocidad del viento	11.3
18334	7	Sololá	701	Sololá	3	Barraneche	4	Abril	2023-06-04T00:00:00	2024-11-06T11:00:00	7	Dirección del viento	11.27
18335	7	Sololá	701	Sololá	3	Barraneche	4	Abril	2023-06-04T00:00:00	2024-11-06T11:00:00	1	Precipitación	0
18336	7	Sololá	701	Sololá	3	Barraneche	4	Abril	2023-06-04T00:00:00	2024-11-06T11:00:00	8	Radiación solar	953
18337	7	Sololá	701	Sololá	3	Barraneche	4	Abril	2023-06-04T00:00:00	2024-11-06T12:00:00	2	Temperatura media	18.8
18338	7	Sololá	701	Sololá	3	Barraneche	4	Abril	2023-06-04T00:00:00	2024-11-06T12:00:00	4	Temperatura máxima	18.8
18339	7	Sololá	701	Sololá	3	Barraneche	4	Abril	2023-06-04T00:00:00	2024-11-06T12:00:00	3	Temperatura mínima	17.9
18340	7	Sololá	701	Sololá	3	Barraneche	4	Abril	2023-06-04T00:00:00	2024-11-06T12:00:00	5	Humedad	59
18341	7	Sololá	701	Sololá	3	Barraneche	4	Abril	2023-06-04T00:00:00	2024-11-06T12:00:00	6	Velocidad del viento	14.5
18342	7	Sololá	701	Sololá	3	Barraneche	4	Abril	2023-06-04T00:00:00	2024-11-06T12:00:00	7	Dirección del viento	14.48
18343	7	Sololá	701	Sololá	3	Barraneche	4	Abril	2023-06-04T00:00:00	2024-11-06T12:00:00	1	Precipitación	0
18344	7	Sololá	701	Sololá	3	Barraneche	4	Abril	2023-06-04T00:00:00	2024-11-06T12:00:00	8	Radiación solar	1067
18345	7	Sololá	701	Sololá	3	Barraneche	4	Abril	2023-06-04T00:00:00	2024-11-06T13:00:00	2	Temperatura media	17.7
18346	7	Sololá	701	Sololá	3	Barraneche	4	Abril	2023-06-04T00:00:00	2024-11-06T13:00:00	4	Temperatura máxima	19
18347	7	Sololá	701	Sololá	3	Barraneche	4	Abril	2023-06-04T00:00:00	2024-11-06T13:00:00	3	Temperatura mínima	17.6
18348	7	Sololá	701	Sololá	3	Barraneche	4	Abril	2023-06-04T00:00:00	2024-11-06T13:00:00	5	Humedad	63
18349	7	Sololá	701	Sololá	3	Barraneche	4	Abril	2023-06-04T00:00:00	2024-11-06T13:00:00	6	Velocidad del viento	16.1
18350	7	Sololá	701	Sololá	3	Barraneche	4	Abril	2023-06-04T00:00:00	2024-11-06T13:00:00	7	Dirección del viento	16.09
18351	7	Sololá	701	Sololá	3	Barraneche	4	Abril	2023-06-04T00:00:00	2024-11-06T13:00:00	1	Precipitación	0
18352	7	Sololá	701	Sololá	3	Barraneche	4	Abril	2023-06-04T00:00:00	2024-11-06T13:00:00	8	Radiación solar	942
18353	7	Sololá	701	Sololá	3	Barraneche	4	Abril	2023-06-04T00:00:00	2024-11-06T14:00:00	2	Temperatura media	18.6
18354	7	Sololá	701	Sololá	3	Barraneche	4	Abril	2023-06-04T00:00:00	2024-11-06T14:00:00	4	Temperatura máxima	19.1
18355	7	Sololá	701	Sololá	3	Barraneche	4	Abril	2023-06-04T00:00:00	2024-11-06T14:00:00	3	Temperatura mínima	17.7
18356	7	Sololá	701	Sololá	3	Barraneche	4	Abril	2023-06-04T00:00:00	2024-11-06T14:00:00	5	Humedad	61
18357	7	Sololá	701	Sololá	3	Barraneche	4	Abril	2023-06-04T00:00:00	2024-11-06T14:00:00	6	Velocidad del viento	12.9
18358	7	Sololá	701	Sololá	3	Barraneche	4	Abril	2023-06-04T00:00:00	2024-11-06T14:00:00	7	Dirección del viento	12.87
18359	7	Sololá	701	Sololá	3	Barraneche	4	Abril	2023-06-04T00:00:00	2024-11-06T14:00:00	1	Precipitación	0
18360	7	Sololá	701	Sololá	3	Barraneche	4	Abril	2023-06-04T00:00:00	2024-11-06T14:00:00	8	Radiación solar	1085
18361	7	Sololá	701	Sololá	3	Barraneche	4	Abril	2023-06-04T00:00:00	2024-11-06T15:00:00	2	Temperatura media	17.9
18362	7	Sololá	701	Sololá	3	Barraneche	4	Abril	2023-06-04T00:00:00	2024-11-06T15:00:00	4	Temperatura máxima	18.8
18363	7	Sololá	701	Sololá	3	Barraneche	4	Abril	2023-06-04T00:00:00	2024-11-06T15:00:00	3	Temperatura mínima	17.7
18364	7	Sololá	701	Sololá	3	Barraneche	4	Abril	2023-06-04T00:00:00	2024-11-06T15:00:00	5	Humedad	64
18365	7	Sololá	701	Sololá	3	Barraneche	4	Abril	2023-06-04T00:00:00	2024-11-06T15:00:00	6	Velocidad del viento	16.1
18366	7	Sololá	701	Sololá	3	Barraneche	4	Abril	2023-06-04T00:00:00	2024-11-06T15:00:00	7	Dirección del viento	16.09
18367	7	Sololá	701	Sololá	3	Barraneche	4	Abril	2023-06-04T00:00:00	2024-11-06T15:00:00	1	Precipitación	0
18368	7	Sololá	701	Sololá	3	Barraneche	4	Abril	2023-06-04T00:00:00	2024-11-06T15:00:00	8	Radiación solar	757
18369	7	Sololá	701	Sololá	3	Barraneche	4	Abril	2023-06-04T00:00:00	2024-11-06T16:00:00	2	Temperatura media	17.3
18370	7	Sololá	701	Sololá	3	Barraneche	4	Abril	2023-06-04T00:00:00	2024-11-06T16:00:00	4	Temperatura máxima	18.4
18371	7	Sololá	701	Sololá	3	Barraneche	4	Abril	2023-06-04T00:00:00	2024-11-06T16:00:00	3	Temperatura mínima	17.3
18372	7	Sololá	701	Sololá	3	Barraneche	4	Abril	2023-06-04T00:00:00	2024-11-06T16:00:00	5	Humedad	67
18373	7	Sololá	701	Sololá	3	Barraneche	4	Abril	2023-06-04T00:00:00	2024-11-06T16:00:00	6	Velocidad del viento	14.5
18374	7	Sololá	701	Sololá	3	Barraneche	4	Abril	2023-06-04T00:00:00	2024-11-06T16:00:00	7	Dirección del viento	14.48
18375	7	Sololá	701	Sololá	3	Barraneche	4	Abril	2023-06-04T00:00:00	2024-11-06T16:00:00	1	Precipitación	0
18376	7	Sololá	701	Sololá	3	Barraneche	4	Abril	2023-06-04T00:00:00	2024-11-06T16:00:00	8	Radiación solar	537
18377	7	Sololá	701	Sololá	3	Barraneche	4	Abril	2023-06-04T00:00:00	2024-11-06T17:00:00	2	Temperatura media	17.7
18378	7	Sololá	701	Sololá	3	Barraneche	4	Abril	2023-06-04T00:00:00	2024-11-06T17:00:00	4	Temperatura máxima	17.8
18379	7	Sololá	701	Sololá	3	Barraneche	4	Abril	2023-06-04T00:00:00	2024-11-06T17:00:00	3	Temperatura mínima	17
18380	7	Sololá	701	Sololá	3	Barraneche	4	Abril	2023-06-04T00:00:00	2024-11-06T17:00:00	5	Humedad	65
18381	7	Sololá	701	Sololá	3	Barraneche	4	Abril	2023-06-04T00:00:00	2024-11-06T17:00:00	6	Velocidad del viento	11.3
18382	7	Sololá	701	Sololá	3	Barraneche	4	Abril	2023-06-04T00:00:00	2024-11-06T17:00:00	7	Dirección del viento	11.27
18383	7	Sololá	701	Sololá	3	Barraneche	4	Abril	2023-06-04T00:00:00	2024-11-06T17:00:00	1	Precipitación	0
18384	7	Sololá	701	Sololá	3	Barraneche	4	Abril	2023-06-04T00:00:00	2024-11-06T17:00:00	8	Radiación solar	283
18385	7	Sololá	701	Sololá	3	Barraneche	4	Abril	2023-06-04T00:00:00	2024-11-06T18:00:00	2	Temperatura media	17.4
18386	7	Sololá	701	Sololá	3	Barraneche	4	Abril	2023-06-04T00:00:00	2024-11-06T18:00:00	4	Temperatura máxima	17.7
18387	7	Sololá	701	Sololá	3	Barraneche	4	Abril	2023-06-04T00:00:00	2024-11-06T18:00:00	3	Temperatura mínima	16.7
18388	7	Sololá	701	Sololá	3	Barraneche	4	Abril	2023-06-04T00:00:00	2024-11-06T18:00:00	5	Humedad	58
18389	7	Sololá	701	Sololá	3	Barraneche	4	Abril	2023-06-04T00:00:00	2024-11-06T18:00:00	6	Velocidad del viento	9.7
18390	7	Sololá	701	Sololá	3	Barraneche	4	Abril	2023-06-04T00:00:00	2024-11-06T18:00:00	7	Dirección del viento	9.66
18391	7	Sololá	701	Sololá	3	Barraneche	4	Abril	2023-06-04T00:00:00	2024-11-06T18:00:00	1	Precipitación	0
18392	7	Sololá	701	Sololá	3	Barraneche	4	Abril	2023-06-04T00:00:00	2024-11-06T18:00:00	8	Radiación solar	119
18393	7	Sololá	701	Sololá	3	Barraneche	4	Abril	2023-06-04T00:00:00	2024-11-06T19:00:00	2	Temperatura media	14.9
18394	7	Sololá	701	Sololá	3	Barraneche	4	Abril	2023-06-04T00:00:00	2024-11-06T19:00:00	4	Temperatura máxima	17.5
18395	7	Sololá	701	Sololá	3	Barraneche	4	Abril	2023-06-04T00:00:00	2024-11-06T19:00:00	3	Temperatura mínima	14.8
18396	7	Sololá	701	Sololá	3	Barraneche	4	Abril	2023-06-04T00:00:00	2024-11-06T19:00:00	5	Humedad	74
18397	7	Sololá	701	Sololá	3	Barraneche	4	Abril	2023-06-04T00:00:00	2024-11-06T19:00:00	6	Velocidad del viento	8
18398	7	Sololá	701	Sololá	3	Barraneche	4	Abril	2023-06-04T00:00:00	2024-11-06T19:00:00	7	Dirección del viento	8.05
18399	7	Sololá	701	Sololá	3	Barraneche	4	Abril	2023-06-04T00:00:00	2024-11-06T19:00:00	1	Precipitación	0
18400	7	Sololá	701	Sololá	3	Barraneche	4	Abril	2023-06-04T00:00:00	2024-11-06T19:00:00	8	Radiación solar	0
18401	7	Sololá	701	Sololá	3	Barraneche	4	Abril	2023-06-04T00:00:00	2024-11-06T20:00:00	2	Temperatura media	15.7
18402	7	Sololá	701	Sololá	3	Barraneche	4	Abril	2023-06-04T00:00:00	2024-11-06T20:00:00	4	Temperatura máxima	16
18403	7	Sololá	701	Sololá	3	Barraneche	4	Abril	2023-06-04T00:00:00	2024-11-06T20:00:00	3	Temperatura mínima	14.9
18404	7	Sololá	701	Sololá	3	Barraneche	4	Abril	2023-06-04T00:00:00	2024-11-06T20:00:00	5	Humedad	62
18405	7	Sololá	701	Sololá	3	Barraneche	4	Abril	2023-06-04T00:00:00	2024-11-06T20:00:00	6	Velocidad del viento	12.9
18406	7	Sololá	701	Sololá	3	Barraneche	4	Abril	2023-06-04T00:00:00	2024-11-06T20:00:00	7	Dirección del viento	12.87
18407	7	Sololá	701	Sololá	3	Barraneche	4	Abril	2023-06-04T00:00:00	2024-11-06T20:00:00	1	Precipitación	0
18408	7	Sololá	701	Sololá	3	Barraneche	4	Abril	2023-06-04T00:00:00	2024-11-06T20:00:00	8	Radiación solar	0
18409	7	Sololá	701	Sololá	3	Barraneche	4	Abril	2023-06-04T00:00:00	2024-11-06T21:00:00	2	Temperatura media	14.9
18410	7	Sololá	701	Sololá	3	Barraneche	4	Abril	2023-06-04T00:00:00	2024-11-06T21:00:00	4	Temperatura máxima	15.7
18411	7	Sololá	701	Sololá	3	Barraneche	4	Abril	2023-06-04T00:00:00	2024-11-06T21:00:00	3	Temperatura mínima	14.9
18412	7	Sololá	701	Sololá	3	Barraneche	4	Abril	2023-06-04T00:00:00	2024-11-06T21:00:00	5	Humedad	63
18413	7	Sololá	701	Sololá	3	Barraneche	4	Abril	2023-06-04T00:00:00	2024-11-06T21:00:00	6	Velocidad del viento	11.3
18414	7	Sololá	701	Sololá	3	Barraneche	4	Abril	2023-06-04T00:00:00	2024-11-06T21:00:00	7	Dirección del viento	11.27
18415	7	Sololá	701	Sololá	3	Barraneche	4	Abril	2023-06-04T00:00:00	2024-11-06T21:00:00	1	Precipitación	0
18416	7	Sololá	701	Sololá	3	Barraneche	4	Abril	2023-06-04T00:00:00	2024-11-06T21:00:00	8	Radiación solar	0
18417	7	Sololá	701	Sololá	3	Barraneche	4	Abril	2023-06-04T00:00:00	2024-11-06T22:00:00	2	Temperatura media	14.6
18418	7	Sololá	701	Sololá	3	Barraneche	4	Abril	2023-06-04T00:00:00	2024-11-06T22:00:00	4	Temperatura máxima	14.9
18419	7	Sololá	701	Sololá	3	Barraneche	4	Abril	2023-06-04T00:00:00	2024-11-06T22:00:00	3	Temperatura mínima	14.6
18420	7	Sololá	701	Sololá	3	Barraneche	4	Abril	2023-06-04T00:00:00	2024-11-06T22:00:00	5	Humedad	64
18421	7	Sololá	701	Sololá	3	Barraneche	4	Abril	2023-06-04T00:00:00	2024-11-06T22:00:00	6	Velocidad del viento	9.7
18422	7	Sololá	701	Sololá	3	Barraneche	4	Abril	2023-06-04T00:00:00	2024-11-06T22:00:00	7	Dirección del viento	9.66
18423	7	Sololá	701	Sololá	3	Barraneche	4	Abril	2023-06-04T00:00:00	2024-11-06T22:00:00	1	Precipitación	0
18424	7	Sololá	701	Sololá	3	Barraneche	4	Abril	2023-06-04T00:00:00	2024-11-06T22:00:00	8	Radiación solar	0
18425	7	Sololá	701	Sololá	3	Barraneche	4	Abril	2023-06-04T00:00:00	2024-11-06T23:00:00	2	Temperatura media	14.1
18426	7	Sololá	701	Sololá	3	Barraneche	4	Abril	2023-06-04T00:00:00	2024-11-06T23:00:00	4	Temperatura máxima	14.6
18427	7	Sololá	701	Sololá	3	Barraneche	4	Abril	2023-06-04T00:00:00	2024-11-06T23:00:00	3	Temperatura mínima	14.1
18428	7	Sololá	701	Sololá	3	Barraneche	4	Abril	2023-06-04T00:00:00	2024-11-06T23:00:00	5	Humedad	63
18429	7	Sololá	701	Sololá	3	Barraneche	4	Abril	2023-06-04T00:00:00	2024-11-06T23:00:00	6	Velocidad del viento	8
18430	7	Sololá	701	Sololá	3	Barraneche	4	Abril	2023-06-04T00:00:00	2024-11-06T23:00:00	7	Dirección del viento	8.05
18431	7	Sololá	701	Sololá	3	Barraneche	4	Abril	2023-06-04T00:00:00	2024-11-06T23:00:00	1	Precipitación	0
18432	7	Sololá	701	Sololá	3	Barraneche	4	Abril	2023-06-04T00:00:00	2024-11-06T23:00:00	8	Radiación solar	0
18433	7	Sololá	701	Sololá	3	Barraneche	4	Abril	2023-07-04T00:00:00	2024-11-06T00:00:00	2	Temperatura media	13.8
18434	7	Sololá	701	Sololá	3	Barraneche	4	Abril	2023-07-04T00:00:00	2024-11-06T00:00:00	4	Temperatura máxima	14.1
18435	7	Sololá	701	Sololá	3	Barraneche	4	Abril	2023-07-04T00:00:00	2024-11-06T00:00:00	3	Temperatura mínima	12.9
18436	7	Sololá	701	Sololá	3	Barraneche	4	Abril	2023-07-04T00:00:00	2024-11-06T00:00:00	5	Humedad	65
18437	7	Sololá	701	Sololá	3	Barraneche	4	Abril	2023-07-04T00:00:00	2024-11-06T00:00:00	6	Velocidad del viento	4.8
18438	7	Sololá	701	Sololá	3	Barraneche	4	Abril	2023-07-04T00:00:00	2024-11-06T00:00:00	7	Dirección del viento	4.83
18439	7	Sololá	701	Sololá	3	Barraneche	4	Abril	2023-07-04T00:00:00	2024-11-06T00:00:00	1	Precipitación	0
18440	7	Sololá	701	Sololá	3	Barraneche	4	Abril	2023-07-04T00:00:00	2024-11-06T00:00:00	8	Radiación solar	0
18441	7	Sololá	701	Sololá	3	Barraneche	4	Abril	2023-07-04T00:00:00	2024-11-06T01:00:00	2	Temperatura media	12.4
18442	7	Sololá	701	Sololá	3	Barraneche	4	Abril	2023-07-04T00:00:00	2024-11-06T01:00:00	4	Temperatura máxima	14.1
18443	7	Sololá	701	Sololá	3	Barraneche	4	Abril	2023-07-04T00:00:00	2024-11-06T01:00:00	3	Temperatura mínima	12.4
18444	7	Sololá	701	Sololá	3	Barraneche	4	Abril	2023-07-04T00:00:00	2024-11-06T01:00:00	5	Humedad	68
18445	7	Sololá	701	Sololá	3	Barraneche	4	Abril	2023-07-04T00:00:00	2024-11-06T01:00:00	6	Velocidad del viento	4.8
18446	7	Sololá	701	Sololá	3	Barraneche	4	Abril	2023-07-04T00:00:00	2024-11-06T01:00:00	7	Dirección del viento	4.83
18447	7	Sololá	701	Sololá	3	Barraneche	4	Abril	2023-07-04T00:00:00	2024-11-06T01:00:00	1	Precipitación	0
18448	7	Sololá	701	Sololá	3	Barraneche	4	Abril	2023-07-04T00:00:00	2024-11-06T01:00:00	8	Radiación solar	0
18449	7	Sololá	701	Sololá	3	Barraneche	4	Abril	2023-07-04T00:00:00	2024-11-06T02:00:00	2	Temperatura media	12.3
18450	7	Sololá	701	Sololá	3	Barraneche	4	Abril	2023-07-04T00:00:00	2024-11-06T02:00:00	4	Temperatura máxima	12.4
18451	7	Sololá	701	Sololá	3	Barraneche	4	Abril	2023-07-04T00:00:00	2024-11-06T02:00:00	3	Temperatura mínima	12.1
18452	7	Sololá	701	Sololá	3	Barraneche	4	Abril	2023-07-04T00:00:00	2024-11-06T02:00:00	5	Humedad	68
18453	7	Sololá	701	Sololá	3	Barraneche	4	Abril	2023-07-04T00:00:00	2024-11-06T02:00:00	6	Velocidad del viento	1.6
18454	7	Sololá	701	Sololá	3	Barraneche	4	Abril	2023-07-04T00:00:00	2024-11-06T02:00:00	7	Dirección del viento	1.61
18455	7	Sololá	701	Sololá	3	Barraneche	4	Abril	2023-07-04T00:00:00	2024-11-06T02:00:00	1	Precipitación	0
18456	7	Sololá	701	Sololá	3	Barraneche	4	Abril	2023-07-04T00:00:00	2024-11-06T02:00:00	8	Radiación solar	0
18457	7	Sololá	701	Sololá	3	Barraneche	4	Abril	2023-07-04T00:00:00	2024-11-06T03:00:00	2	Temperatura media	10.6
18458	7	Sololá	701	Sololá	3	Barraneche	4	Abril	2023-07-04T00:00:00	2024-11-06T03:00:00	4	Temperatura máxima	12.3
18459	7	Sololá	701	Sololá	3	Barraneche	4	Abril	2023-07-04T00:00:00	2024-11-06T03:00:00	3	Temperatura mínima	10.5
18460	7	Sololá	701	Sololá	3	Barraneche	4	Abril	2023-07-04T00:00:00	2024-11-06T03:00:00	5	Humedad	71
18461	7	Sololá	701	Sololá	3	Barraneche	4	Abril	2023-07-04T00:00:00	2024-11-06T03:00:00	6	Velocidad del viento	3.2
18462	7	Sololá	701	Sololá	3	Barraneche	4	Abril	2023-07-04T00:00:00	2024-11-06T03:00:00	7	Dirección del viento	3.22
18463	7	Sololá	701	Sololá	3	Barraneche	4	Abril	2023-07-04T00:00:00	2024-11-06T03:00:00	1	Precipitación	0
18464	7	Sololá	701	Sololá	3	Barraneche	4	Abril	2023-07-04T00:00:00	2024-11-06T03:00:00	8	Radiación solar	0
18465	7	Sololá	701	Sololá	3	Barraneche	4	Abril	2023-07-04T00:00:00	2024-11-06T04:00:00	2	Temperatura media	9.8
18466	7	Sololá	701	Sololá	3	Barraneche	4	Abril	2023-07-04T00:00:00	2024-11-06T04:00:00	4	Temperatura máxima	10.5
18467	7	Sololá	701	Sololá	3	Barraneche	4	Abril	2023-07-04T00:00:00	2024-11-06T04:00:00	3	Temperatura mínima	9.7
18468	7	Sololá	701	Sololá	3	Barraneche	4	Abril	2023-07-04T00:00:00	2024-11-06T04:00:00	5	Humedad	70
18469	7	Sololá	701	Sololá	3	Barraneche	4	Abril	2023-07-04T00:00:00	2024-11-06T04:00:00	6	Velocidad del viento	4.8
18470	7	Sololá	701	Sololá	3	Barraneche	4	Abril	2023-07-04T00:00:00	2024-11-06T04:00:00	7	Dirección del viento	4.83
18471	7	Sololá	701	Sololá	3	Barraneche	4	Abril	2023-07-04T00:00:00	2024-11-06T04:00:00	1	Precipitación	0
18472	7	Sololá	701	Sololá	3	Barraneche	4	Abril	2023-07-04T00:00:00	2024-11-06T04:00:00	8	Radiación solar	0
18473	7	Sololá	701	Sololá	3	Barraneche	4	Abril	2023-07-04T00:00:00	2024-11-06T05:00:00	2	Temperatura media	9.5
18474	7	Sololá	701	Sololá	3	Barraneche	4	Abril	2023-07-04T00:00:00	2024-11-06T05:00:00	4	Temperatura máxima	9.8
18475	7	Sololá	701	Sololá	3	Barraneche	4	Abril	2023-07-04T00:00:00	2024-11-06T05:00:00	3	Temperatura mínima	9.2
18476	7	Sololá	701	Sololá	3	Barraneche	4	Abril	2023-07-04T00:00:00	2024-11-06T05:00:00	5	Humedad	69
18477	7	Sololá	701	Sololá	3	Barraneche	4	Abril	2023-07-04T00:00:00	2024-11-06T05:00:00	6	Velocidad del viento	4.8
18478	7	Sololá	701	Sololá	3	Barraneche	4	Abril	2023-07-04T00:00:00	2024-11-06T05:00:00	7	Dirección del viento	4.83
18479	7	Sololá	701	Sololá	3	Barraneche	4	Abril	2023-07-04T00:00:00	2024-11-06T05:00:00	1	Precipitación	0
18480	7	Sololá	701	Sololá	3	Barraneche	4	Abril	2023-07-04T00:00:00	2024-11-06T05:00:00	8	Radiación solar	0
18481	7	Sololá	701	Sololá	3	Barraneche	4	Abril	2023-07-04T00:00:00	2024-11-06T06:00:00	2	Temperatura media	8.5
18482	7	Sololá	701	Sololá	3	Barraneche	4	Abril	2023-07-04T00:00:00	2024-11-06T06:00:00	4	Temperatura máxima	9.6
18483	7	Sololá	701	Sololá	3	Barraneche	4	Abril	2023-07-04T00:00:00	2024-11-06T06:00:00	3	Temperatura mínima	8.5
18484	7	Sololá	701	Sololá	3	Barraneche	4	Abril	2023-07-04T00:00:00	2024-11-06T06:00:00	5	Humedad	64
18485	7	Sololá	701	Sololá	3	Barraneche	4	Abril	2023-07-04T00:00:00	2024-11-06T06:00:00	6	Velocidad del viento	6.4
18486	7	Sololá	701	Sololá	3	Barraneche	4	Abril	2023-07-04T00:00:00	2024-11-06T06:00:00	7	Dirección del viento	6.44
18487	7	Sololá	701	Sololá	3	Barraneche	4	Abril	2023-07-04T00:00:00	2024-11-06T06:00:00	1	Precipitación	0
18488	7	Sololá	701	Sololá	3	Barraneche	4	Abril	2023-07-04T00:00:00	2024-11-06T06:00:00	8	Radiación solar	1
18489	7	Sololá	701	Sololá	3	Barraneche	4	Abril	2023-07-04T00:00:00	2024-11-06T07:00:00	2	Temperatura media	10.4
18490	7	Sololá	701	Sololá	3	Barraneche	4	Abril	2023-07-04T00:00:00	2024-11-06T07:00:00	4	Temperatura máxima	10.4
18491	7	Sololá	701	Sololá	3	Barraneche	4	Abril	2023-07-04T00:00:00	2024-11-06T07:00:00	3	Temperatura mínima	8.4
18492	7	Sololá	701	Sololá	3	Barraneche	4	Abril	2023-07-04T00:00:00	2024-11-06T07:00:00	5	Humedad	64
18493	7	Sololá	701	Sololá	3	Barraneche	4	Abril	2023-07-04T00:00:00	2024-11-06T07:00:00	6	Velocidad del viento	8
18494	7	Sololá	701	Sololá	3	Barraneche	4	Abril	2023-07-04T00:00:00	2024-11-06T07:00:00	7	Dirección del viento	8.05
18495	7	Sololá	701	Sololá	3	Barraneche	4	Abril	2023-07-04T00:00:00	2024-11-06T07:00:00	1	Precipitación	0
18496	7	Sololá	701	Sololá	3	Barraneche	4	Abril	2023-07-04T00:00:00	2024-11-06T07:00:00	8	Radiación solar	57
18497	7	Sololá	701	Sololá	3	Barraneche	4	Abril	2023-07-04T00:00:00	2024-11-06T08:00:00	2	Temperatura media	14.5
18498	7	Sololá	701	Sololá	3	Barraneche	4	Abril	2023-07-04T00:00:00	2024-11-06T08:00:00	4	Temperatura máxima	14.5
18499	7	Sololá	701	Sololá	3	Barraneche	4	Abril	2023-07-04T00:00:00	2024-11-06T08:00:00	3	Temperatura mínima	10.4
18500	7	Sololá	701	Sololá	3	Barraneche	4	Abril	2023-07-04T00:00:00	2024-11-06T08:00:00	5	Humedad	58
18501	7	Sololá	701	Sololá	3	Barraneche	4	Abril	2023-07-04T00:00:00	2024-11-06T08:00:00	6	Velocidad del viento	3.2
18502	7	Sololá	701	Sololá	3	Barraneche	4	Abril	2023-07-04T00:00:00	2024-11-06T08:00:00	7	Dirección del viento	3.22
18503	7	Sololá	701	Sololá	3	Barraneche	4	Abril	2023-07-04T00:00:00	2024-11-06T08:00:00	1	Precipitación	0
18504	7	Sololá	701	Sololá	3	Barraneche	4	Abril	2023-07-04T00:00:00	2024-11-06T08:00:00	8	Radiación solar	321
18505	7	Sololá	701	Sololá	3	Barraneche	4	Abril	2023-07-04T00:00:00	2024-11-06T09:00:00	2	Temperatura media	16.2
18506	7	Sololá	701	Sololá	3	Barraneche	4	Abril	2023-07-04T00:00:00	2024-11-06T09:00:00	4	Temperatura máxima	16.2
18507	7	Sololá	701	Sololá	3	Barraneche	4	Abril	2023-07-04T00:00:00	2024-11-06T09:00:00	3	Temperatura mínima	14.6
18508	7	Sololá	701	Sololá	3	Barraneche	4	Abril	2023-07-04T00:00:00	2024-11-06T09:00:00	5	Humedad	54
18509	7	Sololá	701	Sololá	3	Barraneche	4	Abril	2023-07-04T00:00:00	2024-11-06T09:00:00	6	Velocidad del viento	3.2
18510	7	Sololá	701	Sololá	3	Barraneche	4	Abril	2023-07-04T00:00:00	2024-11-06T09:00:00	7	Dirección del viento	3.22
18511	7	Sololá	701	Sololá	3	Barraneche	4	Abril	2023-07-04T00:00:00	2024-11-06T09:00:00	1	Precipitación	0
18512	7	Sololá	701	Sololá	3	Barraneche	4	Abril	2023-07-04T00:00:00	2024-11-06T09:00:00	8	Radiación solar	564
18513	7	Sololá	701	Sololá	3	Barraneche	4	Abril	2023-07-04T00:00:00	2024-11-06T10:00:00	2	Temperatura media	17.8
18514	7	Sololá	701	Sololá	3	Barraneche	4	Abril	2023-07-04T00:00:00	2024-11-06T10:00:00	4	Temperatura máxima	17.8
18515	7	Sololá	701	Sololá	3	Barraneche	4	Abril	2023-07-04T00:00:00	2024-11-06T10:00:00	3	Temperatura mínima	16.2
18516	7	Sololá	701	Sololá	3	Barraneche	4	Abril	2023-07-04T00:00:00	2024-11-06T10:00:00	5	Humedad	49
18517	7	Sololá	701	Sololá	3	Barraneche	4	Abril	2023-07-04T00:00:00	2024-11-06T10:00:00	6	Velocidad del viento	8
18518	7	Sololá	701	Sololá	3	Barraneche	4	Abril	2023-07-04T00:00:00	2024-11-06T10:00:00	7	Dirección del viento	8.05
18519	7	Sololá	701	Sololá	3	Barraneche	4	Abril	2023-07-04T00:00:00	2024-11-06T10:00:00	1	Precipitación	0
18520	7	Sololá	701	Sololá	3	Barraneche	4	Abril	2023-07-04T00:00:00	2024-11-06T10:00:00	8	Radiación solar	778
18521	7	Sololá	701	Sololá	3	Barraneche	4	Abril	2023-07-04T00:00:00	2024-11-06T11:00:00	2	Temperatura media	20.5
18522	7	Sololá	701	Sololá	3	Barraneche	4	Abril	2023-07-04T00:00:00	2024-11-06T11:00:00	4	Temperatura máxima	20.5
18523	7	Sololá	701	Sololá	3	Barraneche	4	Abril	2023-07-04T00:00:00	2024-11-06T11:00:00	3	Temperatura mínima	17.9
18524	7	Sololá	701	Sololá	3	Barraneche	4	Abril	2023-07-04T00:00:00	2024-11-06T11:00:00	5	Humedad	24
18525	7	Sololá	701	Sololá	3	Barraneche	4	Abril	2023-07-04T00:00:00	2024-11-06T11:00:00	6	Velocidad del viento	12.9
18526	7	Sololá	701	Sololá	3	Barraneche	4	Abril	2023-07-04T00:00:00	2024-11-06T11:00:00	7	Dirección del viento	12.87
18527	7	Sololá	701	Sololá	3	Barraneche	4	Abril	2023-07-04T00:00:00	2024-11-06T11:00:00	1	Precipitación	0
18528	7	Sololá	701	Sololá	3	Barraneche	4	Abril	2023-07-04T00:00:00	2024-11-06T11:00:00	8	Radiación solar	967
18529	7	Sololá	701	Sololá	3	Barraneche	4	Abril	2023-07-04T00:00:00	2024-11-06T12:00:00	2	Temperatura media	21.4
18530	7	Sololá	701	Sololá	3	Barraneche	4	Abril	2023-07-04T00:00:00	2024-11-06T12:00:00	4	Temperatura máxima	21.4
18531	7	Sololá	701	Sololá	3	Barraneche	4	Abril	2023-07-04T00:00:00	2024-11-06T12:00:00	3	Temperatura mínima	20.3
18532	7	Sololá	701	Sololá	3	Barraneche	4	Abril	2023-07-04T00:00:00	2024-11-06T12:00:00	5	Humedad	30
18533	7	Sololá	701	Sololá	3	Barraneche	4	Abril	2023-07-04T00:00:00	2024-11-06T12:00:00	6	Velocidad del viento	12.9
18534	7	Sololá	701	Sololá	3	Barraneche	4	Abril	2023-07-04T00:00:00	2024-11-06T12:00:00	7	Dirección del viento	12.87
18535	7	Sololá	701	Sololá	3	Barraneche	4	Abril	2023-07-04T00:00:00	2024-11-06T12:00:00	1	Precipitación	0
18536	7	Sololá	701	Sololá	3	Barraneche	4	Abril	2023-07-04T00:00:00	2024-11-06T12:00:00	8	Radiación solar	1031
18537	7	Sololá	701	Sololá	3	Barraneche	4	Abril	2023-07-04T00:00:00	2024-11-06T13:00:00	2	Temperatura media	18.1
18538	7	Sololá	701	Sololá	3	Barraneche	4	Abril	2023-07-04T00:00:00	2024-11-06T13:00:00	4	Temperatura máxima	21.8
18539	7	Sololá	701	Sololá	3	Barraneche	4	Abril	2023-07-04T00:00:00	2024-11-06T13:00:00	3	Temperatura mínima	18.1
18540	7	Sololá	701	Sololá	3	Barraneche	4	Abril	2023-07-04T00:00:00	2024-11-06T13:00:00	5	Humedad	60
18541	7	Sololá	701	Sololá	3	Barraneche	4	Abril	2023-07-04T00:00:00	2024-11-06T13:00:00	6	Velocidad del viento	16.1
18542	7	Sololá	701	Sololá	3	Barraneche	4	Abril	2023-07-04T00:00:00	2024-11-06T13:00:00	7	Dirección del viento	16.09
18543	7	Sololá	701	Sololá	3	Barraneche	4	Abril	2023-07-04T00:00:00	2024-11-06T13:00:00	1	Precipitación	0
18544	7	Sololá	701	Sololá	3	Barraneche	4	Abril	2023-07-04T00:00:00	2024-11-06T13:00:00	8	Radiación solar	1004
18545	7	Sololá	701	Sololá	3	Barraneche	4	Abril	2023-07-04T00:00:00	2024-11-06T14:00:00	2	Temperatura media	17.1
18546	7	Sololá	701	Sololá	3	Barraneche	4	Abril	2023-07-04T00:00:00	2024-11-06T14:00:00	4	Temperatura máxima	18.3
18547	7	Sololá	701	Sololá	3	Barraneche	4	Abril	2023-07-04T00:00:00	2024-11-06T14:00:00	3	Temperatura mínima	16.9
18548	7	Sololá	701	Sololá	3	Barraneche	4	Abril	2023-07-04T00:00:00	2024-11-06T14:00:00	5	Humedad	64
18549	7	Sololá	701	Sololá	3	Barraneche	4	Abril	2023-07-04T00:00:00	2024-11-06T14:00:00	6	Velocidad del viento	16.1
18550	7	Sololá	701	Sololá	3	Barraneche	4	Abril	2023-07-04T00:00:00	2024-11-06T14:00:00	7	Dirección del viento	16.09
18551	7	Sololá	701	Sololá	3	Barraneche	4	Abril	2023-07-04T00:00:00	2024-11-06T14:00:00	1	Precipitación	0
18552	7	Sololá	701	Sololá	3	Barraneche	4	Abril	2023-07-04T00:00:00	2024-11-06T14:00:00	8	Radiación solar	839
18553	7	Sololá	701	Sololá	3	Barraneche	4	Abril	2023-07-04T00:00:00	2024-11-06T15:00:00	2	Temperatura media	17.4
18554	7	Sololá	701	Sololá	3	Barraneche	4	Abril	2023-07-04T00:00:00	2024-11-06T15:00:00	4	Temperatura máxima	17.4
18555	7	Sololá	701	Sololá	3	Barraneche	4	Abril	2023-07-04T00:00:00	2024-11-06T15:00:00	3	Temperatura mínima	16.7
18556	7	Sololá	701	Sololá	3	Barraneche	4	Abril	2023-07-04T00:00:00	2024-11-06T15:00:00	5	Humedad	63
18557	7	Sololá	701	Sololá	3	Barraneche	4	Abril	2023-07-04T00:00:00	2024-11-06T15:00:00	6	Velocidad del viento	12.9
18558	7	Sololá	701	Sololá	3	Barraneche	4	Abril	2023-07-04T00:00:00	2024-11-06T15:00:00	7	Dirección del viento	12.87
18559	7	Sololá	701	Sololá	3	Barraneche	4	Abril	2023-07-04T00:00:00	2024-11-06T15:00:00	1	Precipitación	0
18560	7	Sololá	701	Sololá	3	Barraneche	4	Abril	2023-07-04T00:00:00	2024-11-06T15:00:00	8	Radiación solar	554
18561	7	Sololá	701	Sololá	3	Barraneche	4	Abril	2023-07-04T00:00:00	2024-11-06T16:00:00	2	Temperatura media	16.4
18562	7	Sololá	701	Sololá	3	Barraneche	4	Abril	2023-07-04T00:00:00	2024-11-06T16:00:00	4	Temperatura máxima	17.4
18563	7	Sololá	701	Sololá	3	Barraneche	4	Abril	2023-07-04T00:00:00	2024-11-06T16:00:00	3	Temperatura mínima	16.2
18564	7	Sololá	701	Sololá	3	Barraneche	4	Abril	2023-07-04T00:00:00	2024-11-06T16:00:00	5	Humedad	67
18565	7	Sololá	701	Sololá	3	Barraneche	4	Abril	2023-07-04T00:00:00	2024-11-06T16:00:00	6	Velocidad del viento	12.9
18566	7	Sololá	701	Sololá	3	Barraneche	4	Abril	2023-07-04T00:00:00	2024-11-06T16:00:00	7	Dirección del viento	12.87
18567	7	Sololá	701	Sololá	3	Barraneche	4	Abril	2023-07-04T00:00:00	2024-11-06T16:00:00	1	Precipitación	0
18568	7	Sololá	701	Sololá	3	Barraneche	4	Abril	2023-07-04T00:00:00	2024-11-06T16:00:00	8	Radiación solar	243
18569	7	Sololá	701	Sololá	3	Barraneche	4	Abril	2023-07-04T00:00:00	2024-11-06T17:00:00	2	Temperatura media	16.1
18570	7	Sololá	701	Sololá	3	Barraneche	4	Abril	2023-07-04T00:00:00	2024-11-06T17:00:00	4	Temperatura máxima	16.9
18571	7	Sololá	701	Sololá	3	Barraneche	4	Abril	2023-07-04T00:00:00	2024-11-06T17:00:00	3	Temperatura mínima	16.1
18572	7	Sololá	701	Sololá	3	Barraneche	4	Abril	2023-07-04T00:00:00	2024-11-06T17:00:00	5	Humedad	68
18573	7	Sololá	701	Sololá	3	Barraneche	4	Abril	2023-07-04T00:00:00	2024-11-06T17:00:00	6	Velocidad del viento	11.3
18574	7	Sololá	701	Sololá	3	Barraneche	4	Abril	2023-07-04T00:00:00	2024-11-06T17:00:00	7	Dirección del viento	11.27
18575	7	Sololá	701	Sololá	3	Barraneche	4	Abril	2023-07-04T00:00:00	2024-11-06T17:00:00	1	Precipitación	0
18576	7	Sololá	701	Sololá	3	Barraneche	4	Abril	2023-07-04T00:00:00	2024-11-06T17:00:00	8	Radiación solar	271
18577	7	Sololá	701	Sololá	3	Barraneche	4	Abril	2023-07-04T00:00:00	2024-11-06T18:00:00	2	Temperatura media	16.1
18578	7	Sololá	701	Sololá	3	Barraneche	4	Abril	2023-07-04T00:00:00	2024-11-06T18:00:00	4	Temperatura máxima	16.4
18579	7	Sololá	701	Sololá	3	Barraneche	4	Abril	2023-07-04T00:00:00	2024-11-06T18:00:00	3	Temperatura mínima	15.7
18580	7	Sololá	701	Sololá	3	Barraneche	4	Abril	2023-07-04T00:00:00	2024-11-06T18:00:00	5	Humedad	60
18581	7	Sololá	701	Sololá	3	Barraneche	4	Abril	2023-07-04T00:00:00	2024-11-06T18:00:00	6	Velocidad del viento	8
18582	7	Sololá	701	Sololá	3	Barraneche	4	Abril	2023-07-04T00:00:00	2024-11-06T18:00:00	7	Dirección del viento	8.05
18583	7	Sololá	701	Sololá	3	Barraneche	4	Abril	2023-07-04T00:00:00	2024-11-06T18:00:00	1	Precipitación	0
18584	7	Sololá	701	Sololá	3	Barraneche	4	Abril	2023-07-04T00:00:00	2024-11-06T18:00:00	8	Radiación solar	91
18585	7	Sololá	701	Sololá	3	Barraneche	4	Abril	2023-07-04T00:00:00	2024-11-06T19:00:00	2	Temperatura media	15.3
18586	7	Sololá	701	Sololá	3	Barraneche	4	Abril	2023-07-04T00:00:00	2024-11-06T19:00:00	4	Temperatura máxima	16.2
18587	7	Sololá	701	Sololá	3	Barraneche	4	Abril	2023-07-04T00:00:00	2024-11-06T19:00:00	3	Temperatura mínima	15.3
18588	7	Sololá	701	Sololá	3	Barraneche	4	Abril	2023-07-04T00:00:00	2024-11-06T19:00:00	5	Humedad	52
18589	7	Sololá	701	Sololá	3	Barraneche	4	Abril	2023-07-04T00:00:00	2024-11-06T19:00:00	6	Velocidad del viento	11.3
18590	7	Sololá	701	Sololá	3	Barraneche	4	Abril	2023-07-04T00:00:00	2024-11-06T19:00:00	7	Dirección del viento	11.27
18591	7	Sololá	701	Sololá	3	Barraneche	4	Abril	2023-07-04T00:00:00	2024-11-06T19:00:00	1	Precipitación	0
18592	7	Sololá	701	Sololá	3	Barraneche	4	Abril	2023-07-04T00:00:00	2024-11-06T19:00:00	8	Radiación solar	0
18593	7	Sololá	701	Sololá	3	Barraneche	4	Abril	2023-07-04T00:00:00	2024-11-06T20:00:00	2	Temperatura media	14.1
18594	7	Sololá	701	Sololá	3	Barraneche	4	Abril	2023-07-04T00:00:00	2024-11-06T20:00:00	4	Temperatura máxima	15.3
18595	7	Sololá	701	Sololá	3	Barraneche	4	Abril	2023-07-04T00:00:00	2024-11-06T20:00:00	3	Temperatura mínima	14.1
18596	7	Sololá	701	Sololá	3	Barraneche	4	Abril	2023-07-04T00:00:00	2024-11-06T20:00:00	5	Humedad	59
18597	7	Sololá	701	Sololá	3	Barraneche	4	Abril	2023-07-04T00:00:00	2024-11-06T20:00:00	6	Velocidad del viento	6.4
18598	7	Sololá	701	Sololá	3	Barraneche	4	Abril	2023-07-04T00:00:00	2024-11-06T20:00:00	7	Dirección del viento	6.44
18599	7	Sololá	701	Sololá	3	Barraneche	4	Abril	2023-07-04T00:00:00	2024-11-06T20:00:00	1	Precipitación	0
18600	7	Sololá	701	Sololá	3	Barraneche	4	Abril	2023-07-04T00:00:00	2024-11-06T20:00:00	8	Radiación solar	0
18601	7	Sololá	701	Sololá	3	Barraneche	4	Abril	2023-07-04T00:00:00	2024-11-06T21:00:00	2	Temperatura media	13.6
18602	7	Sololá	701	Sololá	3	Barraneche	4	Abril	2023-07-04T00:00:00	2024-11-06T21:00:00	4	Temperatura máxima	14.1
18603	7	Sololá	701	Sololá	3	Barraneche	4	Abril	2023-07-04T00:00:00	2024-11-06T21:00:00	3	Temperatura mínima	13.6
18604	7	Sololá	701	Sololá	3	Barraneche	4	Abril	2023-07-04T00:00:00	2024-11-06T21:00:00	5	Humedad	63
18605	7	Sololá	701	Sololá	3	Barraneche	4	Abril	2023-07-04T00:00:00	2024-11-06T21:00:00	6	Velocidad del viento	8
18606	7	Sololá	701	Sololá	3	Barraneche	4	Abril	2023-07-04T00:00:00	2024-11-06T21:00:00	7	Dirección del viento	8.05
18607	7	Sololá	701	Sololá	3	Barraneche	4	Abril	2023-07-04T00:00:00	2024-11-06T21:00:00	1	Precipitación	0
18608	7	Sololá	701	Sololá	3	Barraneche	4	Abril	2023-07-04T00:00:00	2024-11-06T21:00:00	8	Radiación solar	0
18609	7	Sololá	701	Sololá	3	Barraneche	4	Abril	2023-07-04T00:00:00	2024-11-06T22:00:00	2	Temperatura media	13.3
18610	7	Sololá	701	Sololá	3	Barraneche	4	Abril	2023-07-04T00:00:00	2024-11-06T22:00:00	4	Temperatura máxima	13.7
18611	7	Sololá	701	Sololá	3	Barraneche	4	Abril	2023-07-04T00:00:00	2024-11-06T22:00:00	3	Temperatura mínima	13.2
18612	7	Sololá	701	Sololá	3	Barraneche	4	Abril	2023-07-04T00:00:00	2024-11-06T22:00:00	5	Humedad	61
18613	7	Sololá	701	Sololá	3	Barraneche	4	Abril	2023-07-04T00:00:00	2024-11-06T22:00:00	6	Velocidad del viento	6.4
18614	7	Sololá	701	Sololá	3	Barraneche	4	Abril	2023-07-04T00:00:00	2024-11-06T22:00:00	7	Dirección del viento	6.44
18615	7	Sololá	701	Sololá	3	Barraneche	4	Abril	2023-07-04T00:00:00	2024-11-06T22:00:00	1	Precipitación	0
18616	7	Sololá	701	Sololá	3	Barraneche	4	Abril	2023-07-04T00:00:00	2024-11-06T22:00:00	8	Radiación solar	0
18617	7	Sololá	701	Sololá	3	Barraneche	4	Abril	2023-07-04T00:00:00	2024-11-06T23:00:00	2	Temperatura media	12.7
18618	7	Sololá	701	Sololá	3	Barraneche	4	Abril	2023-07-04T00:00:00	2024-11-06T23:00:00	4	Temperatura máxima	13.4
18619	7	Sololá	701	Sololá	3	Barraneche	4	Abril	2023-07-04T00:00:00	2024-11-06T23:00:00	3	Temperatura mínima	12.7
18620	7	Sololá	701	Sololá	3	Barraneche	4	Abril	2023-07-04T00:00:00	2024-11-06T23:00:00	5	Humedad	63
18621	7	Sololá	701	Sololá	3	Barraneche	4	Abril	2023-07-04T00:00:00	2024-11-06T23:00:00	6	Velocidad del viento	4.8
18622	7	Sololá	701	Sololá	3	Barraneche	4	Abril	2023-07-04T00:00:00	2024-11-06T23:00:00	7	Dirección del viento	4.83
18623	7	Sololá	701	Sololá	3	Barraneche	4	Abril	2023-07-04T00:00:00	2024-11-06T23:00:00	1	Precipitación	0
18624	7	Sololá	701	Sololá	3	Barraneche	4	Abril	2023-07-04T00:00:00	2024-11-06T23:00:00	8	Radiación solar	0
18625	7	Sololá	701	Sololá	3	Barraneche	4	Abril	2023-08-04T00:00:00	2024-11-06T00:00:00	2	Temperatura media	12.4
18626	7	Sololá	701	Sololá	3	Barraneche	4	Abril	2023-08-04T00:00:00	2024-11-06T00:00:00	4	Temperatura máxima	12.7
18627	7	Sololá	701	Sololá	3	Barraneche	4	Abril	2023-08-04T00:00:00	2024-11-06T00:00:00	3	Temperatura mínima	12.4
18628	7	Sololá	701	Sololá	3	Barraneche	4	Abril	2023-08-04T00:00:00	2024-11-06T00:00:00	5	Humedad	65
18629	7	Sololá	701	Sololá	3	Barraneche	4	Abril	2023-08-04T00:00:00	2024-11-06T00:00:00	6	Velocidad del viento	3.2
18630	7	Sololá	701	Sololá	3	Barraneche	4	Abril	2023-08-04T00:00:00	2024-11-06T00:00:00	7	Dirección del viento	3.22
18631	7	Sololá	701	Sololá	3	Barraneche	4	Abril	2023-08-04T00:00:00	2024-11-06T00:00:00	1	Precipitación	0
18632	7	Sololá	701	Sololá	3	Barraneche	4	Abril	2023-08-04T00:00:00	2024-11-06T00:00:00	8	Radiación solar	0
18633	7	Sololá	701	Sololá	3	Barraneche	4	Abril	2023-08-04T00:00:00	2024-11-06T01:00:00	2	Temperatura media	12.4
18634	7	Sololá	701	Sololá	3	Barraneche	4	Abril	2023-08-04T00:00:00	2024-11-06T01:00:00	4	Temperatura máxima	12.6
18635	7	Sololá	701	Sololá	3	Barraneche	4	Abril	2023-08-04T00:00:00	2024-11-06T01:00:00	3	Temperatura mínima	12.3
18636	7	Sololá	701	Sololá	3	Barraneche	4	Abril	2023-08-04T00:00:00	2024-11-06T01:00:00	5	Humedad	68
18637	7	Sololá	701	Sololá	3	Barraneche	4	Abril	2023-08-04T00:00:00	2024-11-06T01:00:00	6	Velocidad del viento	3.2
18638	7	Sololá	701	Sololá	3	Barraneche	4	Abril	2023-08-04T00:00:00	2024-11-06T01:00:00	7	Dirección del viento	3.22
18639	7	Sololá	701	Sololá	3	Barraneche	4	Abril	2023-08-04T00:00:00	2024-11-06T01:00:00	1	Precipitación	0
18640	7	Sololá	701	Sololá	3	Barraneche	4	Abril	2023-08-04T00:00:00	2024-11-06T01:00:00	8	Radiación solar	0
18641	7	Sololá	701	Sololá	3	Barraneche	4	Abril	2023-08-04T00:00:00	2024-11-06T02:00:00	2	Temperatura media	11.3
18642	7	Sololá	701	Sololá	3	Barraneche	4	Abril	2023-08-04T00:00:00	2024-11-06T02:00:00	4	Temperatura máxima	12.4
18643	7	Sololá	701	Sololá	3	Barraneche	4	Abril	2023-08-04T00:00:00	2024-11-06T02:00:00	3	Temperatura mínima	11.3
18644	7	Sololá	701	Sololá	3	Barraneche	4	Abril	2023-08-04T00:00:00	2024-11-06T02:00:00	5	Humedad	70
18645	7	Sololá	701	Sololá	3	Barraneche	4	Abril	2023-08-04T00:00:00	2024-11-06T02:00:00	6	Velocidad del viento	1.6
18646	7	Sololá	701	Sololá	3	Barraneche	4	Abril	2023-08-04T00:00:00	2024-11-06T02:00:00	7	Dirección del viento	1.61
18647	7	Sololá	701	Sololá	3	Barraneche	4	Abril	2023-08-04T00:00:00	2024-11-06T02:00:00	1	Precipitación	0
18648	7	Sololá	701	Sololá	3	Barraneche	4	Abril	2023-08-04T00:00:00	2024-11-06T02:00:00	8	Radiación solar	0
18649	7	Sololá	701	Sololá	3	Barraneche	4	Abril	2023-08-04T00:00:00	2024-11-06T03:00:00	2	Temperatura media	10.5
18650	7	Sololá	701	Sololá	3	Barraneche	4	Abril	2023-08-04T00:00:00	2024-11-06T03:00:00	4	Temperatura máxima	11.3
18651	7	Sololá	701	Sololá	3	Barraneche	4	Abril	2023-08-04T00:00:00	2024-11-06T03:00:00	3	Temperatura mínima	10.4
18652	7	Sololá	701	Sololá	3	Barraneche	4	Abril	2023-08-04T00:00:00	2024-11-06T03:00:00	5	Humedad	69
18653	7	Sololá	701	Sololá	3	Barraneche	4	Abril	2023-08-04T00:00:00	2024-11-06T03:00:00	6	Velocidad del viento	4.8
18654	7	Sololá	701	Sololá	3	Barraneche	4	Abril	2023-08-04T00:00:00	2024-11-06T03:00:00	7	Dirección del viento	4.83
18655	7	Sololá	701	Sololá	3	Barraneche	4	Abril	2023-08-04T00:00:00	2024-11-06T03:00:00	1	Precipitación	0
18656	7	Sololá	701	Sololá	3	Barraneche	4	Abril	2023-08-04T00:00:00	2024-11-06T03:00:00	8	Radiación solar	0
18657	7	Sololá	701	Sololá	3	Barraneche	4	Abril	2023-08-04T00:00:00	2024-11-06T04:00:00	2	Temperatura media	9.8
18658	7	Sololá	701	Sololá	3	Barraneche	4	Abril	2023-08-04T00:00:00	2024-11-06T04:00:00	4	Temperatura máxima	10.6
18659	7	Sololá	701	Sololá	3	Barraneche	4	Abril	2023-08-04T00:00:00	2024-11-06T04:00:00	3	Temperatura mínima	9.8
18660	7	Sololá	701	Sololá	3	Barraneche	4	Abril	2023-08-04T00:00:00	2024-11-06T04:00:00	5	Humedad	60
18661	7	Sololá	701	Sololá	3	Barraneche	4	Abril	2023-08-04T00:00:00	2024-11-06T04:00:00	6	Velocidad del viento	6.4
18662	7	Sololá	701	Sololá	3	Barraneche	4	Abril	2023-08-04T00:00:00	2024-11-06T04:00:00	7	Dirección del viento	6.44
18663	7	Sololá	701	Sololá	3	Barraneche	4	Abril	2023-08-04T00:00:00	2024-11-06T04:00:00	1	Precipitación	0
18664	7	Sololá	701	Sololá	3	Barraneche	4	Abril	2023-08-04T00:00:00	2024-11-06T04:00:00	8	Radiación solar	0
18665	7	Sololá	701	Sololá	3	Barraneche	4	Abril	2023-08-04T00:00:00	2024-11-06T05:00:00	2	Temperatura media	8.8
18666	7	Sololá	701	Sololá	3	Barraneche	4	Abril	2023-08-04T00:00:00	2024-11-06T05:00:00	4	Temperatura máxima	9.8
18667	7	Sololá	701	Sololá	3	Barraneche	4	Abril	2023-08-04T00:00:00	2024-11-06T05:00:00	3	Temperatura mínima	8.7
18668	7	Sololá	701	Sololá	3	Barraneche	4	Abril	2023-08-04T00:00:00	2024-11-06T05:00:00	5	Humedad	67
18669	7	Sololá	701	Sololá	3	Barraneche	4	Abril	2023-08-04T00:00:00	2024-11-06T05:00:00	6	Velocidad del viento	8
18670	7	Sololá	701	Sololá	3	Barraneche	4	Abril	2023-08-04T00:00:00	2024-11-06T05:00:00	7	Dirección del viento	8.05
18671	7	Sololá	701	Sololá	3	Barraneche	4	Abril	2023-08-04T00:00:00	2024-11-06T05:00:00	1	Precipitación	0
18672	7	Sololá	701	Sololá	3	Barraneche	4	Abril	2023-08-04T00:00:00	2024-11-06T05:00:00	8	Radiación solar	0
18673	7	Sololá	701	Sololá	3	Barraneche	4	Abril	2023-08-04T00:00:00	2024-11-06T06:00:00	2	Temperatura media	9.6
18674	7	Sololá	701	Sololá	3	Barraneche	4	Abril	2023-08-04T00:00:00	2024-11-06T06:00:00	4	Temperatura máxima	9.7
18675	7	Sololá	701	Sololá	3	Barraneche	4	Abril	2023-08-04T00:00:00	2024-11-06T06:00:00	3	Temperatura mínima	8.8
18676	7	Sololá	701	Sololá	3	Barraneche	4	Abril	2023-08-04T00:00:00	2024-11-06T06:00:00	5	Humedad	64
18677	7	Sololá	701	Sololá	3	Barraneche	4	Abril	2023-08-04T00:00:00	2024-11-06T06:00:00	6	Velocidad del viento	8
18678	7	Sololá	701	Sololá	3	Barraneche	4	Abril	2023-08-04T00:00:00	2024-11-06T06:00:00	7	Dirección del viento	8.05
18679	7	Sololá	701	Sololá	3	Barraneche	4	Abril	2023-08-04T00:00:00	2024-11-06T06:00:00	1	Precipitación	0
18680	7	Sololá	701	Sololá	3	Barraneche	4	Abril	2023-08-04T00:00:00	2024-11-06T06:00:00	8	Radiación solar	1
18681	7	Sololá	701	Sololá	3	Barraneche	4	Abril	2023-08-04T00:00:00	2024-11-06T07:00:00	2	Temperatura media	11.7
18682	7	Sololá	701	Sololá	3	Barraneche	4	Abril	2023-08-04T00:00:00	2024-11-06T07:00:00	4	Temperatura máxima	11.7
18683	7	Sololá	701	Sololá	3	Barraneche	4	Abril	2023-08-04T00:00:00	2024-11-06T07:00:00	3	Temperatura mínima	9.4
18684	7	Sololá	701	Sololá	3	Barraneche	4	Abril	2023-08-04T00:00:00	2024-11-06T07:00:00	5	Humedad	60
18685	7	Sololá	701	Sololá	3	Barraneche	4	Abril	2023-08-04T00:00:00	2024-11-06T07:00:00	6	Velocidad del viento	8
18686	7	Sololá	701	Sololá	3	Barraneche	4	Abril	2023-08-04T00:00:00	2024-11-06T07:00:00	7	Dirección del viento	8.05
18687	7	Sololá	701	Sololá	3	Barraneche	4	Abril	2023-08-04T00:00:00	2024-11-06T07:00:00	1	Precipitación	0
18688	7	Sololá	701	Sololá	3	Barraneche	4	Abril	2023-08-04T00:00:00	2024-11-06T07:00:00	8	Radiación solar	53
18689	7	Sololá	701	Sololá	3	Barraneche	4	Abril	2023-08-04T00:00:00	2024-11-06T08:00:00	2	Temperatura media	15.3
18690	7	Sololá	701	Sololá	3	Barraneche	4	Abril	2023-08-04T00:00:00	2024-11-06T08:00:00	4	Temperatura máxima	15.3
18691	7	Sololá	701	Sololá	3	Barraneche	4	Abril	2023-08-04T00:00:00	2024-11-06T08:00:00	3	Temperatura mínima	11.7
18692	7	Sololá	701	Sololá	3	Barraneche	4	Abril	2023-08-04T00:00:00	2024-11-06T08:00:00	5	Humedad	54
18693	7	Sololá	701	Sololá	3	Barraneche	4	Abril	2023-08-04T00:00:00	2024-11-06T08:00:00	6	Velocidad del viento	3.2
18694	7	Sololá	701	Sololá	3	Barraneche	4	Abril	2023-08-04T00:00:00	2024-11-06T08:00:00	7	Dirección del viento	3.22
18695	7	Sololá	701	Sololá	3	Barraneche	4	Abril	2023-08-04T00:00:00	2024-11-06T08:00:00	1	Precipitación	0
18696	7	Sololá	701	Sololá	3	Barraneche	4	Abril	2023-08-04T00:00:00	2024-11-06T08:00:00	8	Radiación solar	336
18697	7	Sololá	701	Sololá	3	Barraneche	4	Abril	2023-08-04T00:00:00	2024-11-06T09:00:00	2	Temperatura media	16.1
18698	7	Sololá	701	Sololá	3	Barraneche	4	Abril	2023-08-04T00:00:00	2024-11-06T09:00:00	4	Temperatura máxima	16.4
18699	7	Sololá	701	Sololá	3	Barraneche	4	Abril	2023-08-04T00:00:00	2024-11-06T09:00:00	3	Temperatura mínima	15.2
18700	7	Sololá	701	Sololá	3	Barraneche	4	Abril	2023-08-04T00:00:00	2024-11-06T09:00:00	5	Humedad	54
18701	7	Sololá	701	Sololá	3	Barraneche	4	Abril	2023-08-04T00:00:00	2024-11-06T09:00:00	6	Velocidad del viento	6.4
18702	7	Sololá	701	Sololá	3	Barraneche	4	Abril	2023-08-04T00:00:00	2024-11-06T09:00:00	7	Dirección del viento	6.44
18703	7	Sololá	701	Sololá	3	Barraneche	4	Abril	2023-08-04T00:00:00	2024-11-06T09:00:00	1	Precipitación	0
18704	7	Sololá	701	Sololá	3	Barraneche	4	Abril	2023-08-04T00:00:00	2024-11-06T09:00:00	8	Radiación solar	582
18705	7	Sololá	701	Sololá	3	Barraneche	4	Abril	2023-08-04T00:00:00	2024-11-06T10:00:00	2	Temperatura media	16.9
18706	7	Sololá	701	Sololá	3	Barraneche	4	Abril	2023-08-04T00:00:00	2024-11-06T10:00:00	4	Temperatura máxima	17.2
18707	7	Sololá	701	Sololá	3	Barraneche	4	Abril	2023-08-04T00:00:00	2024-11-06T10:00:00	3	Temperatura mínima	15.8
18708	7	Sololá	701	Sololá	3	Barraneche	4	Abril	2023-08-04T00:00:00	2024-11-06T10:00:00	5	Humedad	53
18709	7	Sololá	701	Sololá	3	Barraneche	4	Abril	2023-08-04T00:00:00	2024-11-06T10:00:00	6	Velocidad del viento	8
18710	7	Sololá	701	Sololá	3	Barraneche	4	Abril	2023-08-04T00:00:00	2024-11-06T10:00:00	7	Dirección del viento	8.05
18711	7	Sololá	701	Sololá	3	Barraneche	4	Abril	2023-08-04T00:00:00	2024-11-06T10:00:00	1	Precipitación	0
18712	7	Sololá	701	Sololá	3	Barraneche	4	Abril	2023-08-04T00:00:00	2024-11-06T10:00:00	8	Radiación solar	782
18713	7	Sololá	701	Sololá	3	Barraneche	4	Abril	2023-08-04T00:00:00	2024-11-06T11:00:00	2	Temperatura media	18.5
18714	7	Sololá	701	Sololá	3	Barraneche	4	Abril	2023-08-04T00:00:00	2024-11-06T11:00:00	4	Temperatura máxima	18.6
18715	7	Sololá	701	Sololá	3	Barraneche	4	Abril	2023-08-04T00:00:00	2024-11-06T11:00:00	3	Temperatura mínima	16.8
18716	7	Sololá	701	Sololá	3	Barraneche	4	Abril	2023-08-04T00:00:00	2024-11-06T11:00:00	5	Humedad	47
18717	7	Sololá	701	Sololá	3	Barraneche	4	Abril	2023-08-04T00:00:00	2024-11-06T11:00:00	6	Velocidad del viento	9.7
18718	7	Sololá	701	Sololá	3	Barraneche	4	Abril	2023-08-04T00:00:00	2024-11-06T11:00:00	7	Dirección del viento	9.66
18719	7	Sololá	701	Sololá	3	Barraneche	4	Abril	2023-08-04T00:00:00	2024-11-06T11:00:00	1	Precipitación	0
18720	7	Sololá	701	Sololá	3	Barraneche	4	Abril	2023-08-04T00:00:00	2024-11-06T11:00:00	8	Radiación solar	946
18721	7	Sololá	701	Sololá	3	Barraneche	4	Abril	2023-08-04T00:00:00	2024-11-06T12:00:00	2	Temperatura media	18.7
18722	7	Sololá	701	Sololá	3	Barraneche	4	Abril	2023-08-04T00:00:00	2024-11-06T12:00:00	4	Temperatura máxima	19.4
18723	7	Sololá	701	Sololá	3	Barraneche	4	Abril	2023-08-04T00:00:00	2024-11-06T12:00:00	3	Temperatura mínima	18.4
18724	7	Sololá	701	Sololá	3	Barraneche	4	Abril	2023-08-04T00:00:00	2024-11-06T12:00:00	5	Humedad	52
18725	7	Sololá	701	Sololá	3	Barraneche	4	Abril	2023-08-04T00:00:00	2024-11-06T12:00:00	6	Velocidad del viento	14.5
18726	7	Sololá	701	Sololá	3	Barraneche	4	Abril	2023-08-04T00:00:00	2024-11-06T12:00:00	7	Dirección del viento	14.48
18727	7	Sololá	701	Sololá	3	Barraneche	4	Abril	2023-08-04T00:00:00	2024-11-06T12:00:00	1	Precipitación	0
18728	7	Sololá	701	Sololá	3	Barraneche	4	Abril	2023-08-04T00:00:00	2024-11-06T12:00:00	8	Radiación solar	1045
18729	7	Sololá	701	Sololá	3	Barraneche	4	Abril	2023-08-04T00:00:00	2024-11-06T13:00:00	2	Temperatura media	17.9
18730	7	Sololá	701	Sololá	3	Barraneche	4	Abril	2023-08-04T00:00:00	2024-11-06T13:00:00	4	Temperatura máxima	19.4
18731	7	Sololá	701	Sololá	3	Barraneche	4	Abril	2023-08-04T00:00:00	2024-11-06T13:00:00	3	Temperatura mínima	17.8
18732	7	Sololá	701	Sololá	3	Barraneche	4	Abril	2023-08-04T00:00:00	2024-11-06T13:00:00	5	Humedad	59
18733	7	Sololá	701	Sololá	3	Barraneche	4	Abril	2023-08-04T00:00:00	2024-11-06T13:00:00	6	Velocidad del viento	12.9
18734	7	Sololá	701	Sololá	3	Barraneche	4	Abril	2023-08-04T00:00:00	2024-11-06T13:00:00	7	Dirección del viento	12.87
18735	7	Sololá	701	Sololá	3	Barraneche	4	Abril	2023-08-04T00:00:00	2024-11-06T13:00:00	1	Precipitación	0
18736	7	Sololá	701	Sololá	3	Barraneche	4	Abril	2023-08-04T00:00:00	2024-11-06T13:00:00	8	Radiación solar	964
18737	7	Sololá	701	Sololá	3	Barraneche	4	Abril	2023-08-04T00:00:00	2024-11-06T14:00:00	2	Temperatura media	18.3
18738	7	Sololá	701	Sololá	3	Barraneche	4	Abril	2023-08-04T00:00:00	2024-11-06T14:00:00	4	Temperatura máxima	18.6
18739	7	Sololá	701	Sololá	3	Barraneche	4	Abril	2023-08-04T00:00:00	2024-11-06T14:00:00	3	Temperatura mínima	17.9
18740	7	Sololá	701	Sololá	3	Barraneche	4	Abril	2023-08-04T00:00:00	2024-11-06T14:00:00	5	Humedad	58
18741	7	Sololá	701	Sololá	3	Barraneche	4	Abril	2023-08-04T00:00:00	2024-11-06T14:00:00	6	Velocidad del viento	16.1
18742	7	Sololá	701	Sololá	3	Barraneche	4	Abril	2023-08-04T00:00:00	2024-11-06T14:00:00	7	Dirección del viento	16.09
18743	7	Sololá	701	Sololá	3	Barraneche	4	Abril	2023-08-04T00:00:00	2024-11-06T14:00:00	1	Precipitación	0
18744	7	Sololá	701	Sololá	3	Barraneche	4	Abril	2023-08-04T00:00:00	2024-11-06T14:00:00	8	Radiación solar	748
18745	7	Sololá	701	Sololá	3	Barraneche	4	Abril	2023-08-04T00:00:00	2024-11-06T15:00:00	2	Temperatura media	18.2
18746	7	Sololá	701	Sololá	3	Barraneche	4	Abril	2023-08-04T00:00:00	2024-11-06T15:00:00	4	Temperatura máxima	18.7
18747	7	Sololá	701	Sololá	3	Barraneche	4	Abril	2023-08-04T00:00:00	2024-11-06T15:00:00	3	Temperatura mínima	17.9
18748	7	Sololá	701	Sololá	3	Barraneche	4	Abril	2023-08-04T00:00:00	2024-11-06T15:00:00	5	Humedad	60
18749	7	Sololá	701	Sololá	3	Barraneche	4	Abril	2023-08-04T00:00:00	2024-11-06T15:00:00	6	Velocidad del viento	14.5
18750	7	Sololá	701	Sololá	3	Barraneche	4	Abril	2023-08-04T00:00:00	2024-11-06T15:00:00	7	Dirección del viento	14.48
18751	7	Sololá	701	Sololá	3	Barraneche	4	Abril	2023-08-04T00:00:00	2024-11-06T15:00:00	1	Precipitación	0
18752	7	Sololá	701	Sololá	3	Barraneche	4	Abril	2023-08-04T00:00:00	2024-11-06T15:00:00	8	Radiación solar	570
18753	7	Sololá	701	Sololá	3	Barraneche	4	Abril	2023-08-04T00:00:00	2024-11-06T16:00:00	2	Temperatura media	17.4
18754	7	Sololá	701	Sololá	3	Barraneche	4	Abril	2023-08-04T00:00:00	2024-11-06T16:00:00	4	Temperatura máxima	18.2
18755	7	Sololá	701	Sololá	3	Barraneche	4	Abril	2023-08-04T00:00:00	2024-11-06T16:00:00	3	Temperatura mínima	17.2
18756	7	Sololá	701	Sololá	3	Barraneche	4	Abril	2023-08-04T00:00:00	2024-11-06T16:00:00	5	Humedad	63
18757	7	Sololá	701	Sololá	3	Barraneche	4	Abril	2023-08-04T00:00:00	2024-11-06T16:00:00	6	Velocidad del viento	17.7
18758	7	Sololá	701	Sololá	3	Barraneche	4	Abril	2023-08-04T00:00:00	2024-11-06T16:00:00	7	Dirección del viento	17.7
18759	7	Sololá	701	Sololá	3	Barraneche	4	Abril	2023-08-04T00:00:00	2024-11-06T16:00:00	1	Precipitación	0
18760	7	Sololá	701	Sololá	3	Barraneche	4	Abril	2023-08-04T00:00:00	2024-11-06T16:00:00	8	Radiación solar	516
18761	7	Sololá	701	Sololá	3	Barraneche	4	Abril	2023-08-04T00:00:00	2024-11-06T17:00:00	2	Temperatura media	17.8
18762	7	Sololá	701	Sololá	3	Barraneche	4	Abril	2023-08-04T00:00:00	2024-11-06T17:00:00	4	Temperatura máxima	18.8
18763	7	Sololá	701	Sololá	3	Barraneche	4	Abril	2023-08-04T00:00:00	2024-11-06T17:00:00	3	Temperatura mínima	17.3
18764	7	Sololá	701	Sololá	3	Barraneche	4	Abril	2023-08-04T00:00:00	2024-11-06T17:00:00	5	Humedad	44
18765	7	Sololá	701	Sololá	3	Barraneche	4	Abril	2023-08-04T00:00:00	2024-11-06T17:00:00	6	Velocidad del viento	14.5
18766	7	Sololá	701	Sololá	3	Barraneche	4	Abril	2023-08-04T00:00:00	2024-11-06T17:00:00	7	Dirección del viento	14.48
18767	7	Sololá	701	Sololá	3	Barraneche	4	Abril	2023-08-04T00:00:00	2024-11-06T17:00:00	1	Precipitación	0
18768	7	Sololá	701	Sololá	3	Barraneche	4	Abril	2023-08-04T00:00:00	2024-11-06T17:00:00	8	Radiación solar	321
18769	7	Sololá	701	Sololá	3	Barraneche	4	Abril	2023-08-04T00:00:00	2024-11-06T18:00:00	2	Temperatura media	15.7
18770	7	Sololá	701	Sololá	3	Barraneche	4	Abril	2023-08-04T00:00:00	2024-11-06T18:00:00	4	Temperatura máxima	17.8
18771	7	Sololá	701	Sololá	3	Barraneche	4	Abril	2023-08-04T00:00:00	2024-11-06T18:00:00	3	Temperatura mínima	15.6
18772	7	Sololá	701	Sololá	3	Barraneche	4	Abril	2023-08-04T00:00:00	2024-11-06T18:00:00	5	Humedad	50
18773	7	Sololá	701	Sololá	3	Barraneche	4	Abril	2023-08-04T00:00:00	2024-11-06T18:00:00	6	Velocidad del viento	12.9
18774	7	Sololá	701	Sololá	3	Barraneche	4	Abril	2023-08-04T00:00:00	2024-11-06T18:00:00	7	Dirección del viento	12.87
18775	7	Sololá	701	Sololá	3	Barraneche	4	Abril	2023-08-04T00:00:00	2024-11-06T18:00:00	1	Precipitación	0
18776	7	Sololá	701	Sololá	3	Barraneche	4	Abril	2023-08-04T00:00:00	2024-11-06T18:00:00	8	Radiación solar	92
18777	7	Sololá	701	Sololá	3	Barraneche	4	Abril	2023-08-04T00:00:00	2024-11-06T19:00:00	2	Temperatura media	13.9
18778	7	Sololá	701	Sololá	3	Barraneche	4	Abril	2023-08-04T00:00:00	2024-11-06T19:00:00	4	Temperatura máxima	15.6
18779	7	Sololá	701	Sololá	3	Barraneche	4	Abril	2023-08-04T00:00:00	2024-11-06T19:00:00	3	Temperatura mínima	13.9
18780	7	Sololá	701	Sololá	3	Barraneche	4	Abril	2023-08-04T00:00:00	2024-11-06T19:00:00	5	Humedad	55
18781	7	Sololá	701	Sololá	3	Barraneche	4	Abril	2023-08-04T00:00:00	2024-11-06T19:00:00	6	Velocidad del viento	11.3
18782	7	Sololá	701	Sololá	3	Barraneche	4	Abril	2023-08-04T00:00:00	2024-11-06T19:00:00	7	Dirección del viento	11.27
18783	7	Sololá	701	Sololá	3	Barraneche	4	Abril	2023-08-04T00:00:00	2024-11-06T19:00:00	1	Precipitación	0
18784	7	Sololá	701	Sololá	3	Barraneche	4	Abril	2023-08-04T00:00:00	2024-11-06T19:00:00	8	Radiación solar	0
18785	7	Sololá	701	Sololá	3	Barraneche	4	Abril	2023-08-04T00:00:00	2024-11-06T20:00:00	2	Temperatura media	13.1
18786	7	Sololá	701	Sololá	3	Barraneche	4	Abril	2023-08-04T00:00:00	2024-11-06T20:00:00	4	Temperatura máxima	14
18787	7	Sololá	701	Sololá	3	Barraneche	4	Abril	2023-08-04T00:00:00	2024-11-06T20:00:00	3	Temperatura mínima	13
18788	7	Sololá	701	Sololá	3	Barraneche	4	Abril	2023-08-04T00:00:00	2024-11-06T20:00:00	5	Humedad	57
18789	7	Sololá	701	Sololá	3	Barraneche	4	Abril	2023-08-04T00:00:00	2024-11-06T20:00:00	6	Velocidad del viento	6.4
18790	7	Sololá	701	Sololá	3	Barraneche	4	Abril	2023-08-04T00:00:00	2024-11-06T20:00:00	7	Dirección del viento	6.44
18791	7	Sololá	701	Sololá	3	Barraneche	4	Abril	2023-08-04T00:00:00	2024-11-06T20:00:00	1	Precipitación	0
18792	7	Sololá	701	Sololá	3	Barraneche	4	Abril	2023-08-04T00:00:00	2024-11-06T20:00:00	8	Radiación solar	0
18793	7	Sololá	701	Sololá	3	Barraneche	4	Abril	2023-08-04T00:00:00	2024-11-06T21:00:00	2	Temperatura media	11.8
18794	7	Sololá	701	Sololá	3	Barraneche	4	Abril	2023-08-04T00:00:00	2024-11-06T21:00:00	4	Temperatura máxima	13.1
18795	7	Sololá	701	Sololá	3	Barraneche	4	Abril	2023-08-04T00:00:00	2024-11-06T21:00:00	3	Temperatura mínima	11.8
18796	7	Sololá	701	Sololá	3	Barraneche	4	Abril	2023-08-04T00:00:00	2024-11-06T21:00:00	5	Humedad	60
18797	7	Sololá	701	Sololá	3	Barraneche	4	Abril	2023-08-04T00:00:00	2024-11-06T21:00:00	6	Velocidad del viento	4.8
18798	7	Sololá	701	Sololá	3	Barraneche	4	Abril	2023-08-04T00:00:00	2024-11-06T21:00:00	7	Dirección del viento	4.83
18799	7	Sololá	701	Sololá	3	Barraneche	4	Abril	2023-08-04T00:00:00	2024-11-06T21:00:00	1	Precipitación	0
18800	7	Sololá	701	Sololá	3	Barraneche	4	Abril	2023-08-04T00:00:00	2024-11-06T21:00:00	8	Radiación solar	0
18801	7	Sololá	701	Sololá	3	Barraneche	4	Abril	2023-08-04T00:00:00	2024-11-06T22:00:00	2	Temperatura media	11.6
18802	7	Sololá	701	Sololá	3	Barraneche	4	Abril	2023-08-04T00:00:00	2024-11-06T22:00:00	4	Temperatura máxima	11.8
18803	7	Sololá	701	Sololá	3	Barraneche	4	Abril	2023-08-04T00:00:00	2024-11-06T22:00:00	3	Temperatura mínima	11.6
18804	7	Sololá	701	Sololá	3	Barraneche	4	Abril	2023-08-04T00:00:00	2024-11-06T22:00:00	5	Humedad	62
18805	7	Sololá	701	Sololá	3	Barraneche	4	Abril	2023-08-04T00:00:00	2024-11-06T22:00:00	6	Velocidad del viento	6.4
18806	7	Sololá	701	Sololá	3	Barraneche	4	Abril	2023-08-04T00:00:00	2024-11-06T22:00:00	7	Dirección del viento	6.44
18807	7	Sololá	701	Sololá	3	Barraneche	4	Abril	2023-08-04T00:00:00	2024-11-06T22:00:00	1	Precipitación	0
18808	7	Sololá	701	Sololá	3	Barraneche	4	Abril	2023-08-04T00:00:00	2024-11-06T22:00:00	8	Radiación solar	0
18809	7	Sololá	701	Sololá	3	Barraneche	4	Abril	2023-08-04T00:00:00	2024-11-06T23:00:00	2	Temperatura media	11
18810	7	Sololá	701	Sololá	3	Barraneche	4	Abril	2023-08-04T00:00:00	2024-11-06T23:00:00	4	Temperatura máxima	11.6
18811	7	Sololá	701	Sololá	3	Barraneche	4	Abril	2023-08-04T00:00:00	2024-11-06T23:00:00	3	Temperatura mínima	10.9
18812	7	Sololá	701	Sololá	3	Barraneche	4	Abril	2023-08-04T00:00:00	2024-11-06T23:00:00	5	Humedad	53
18813	7	Sololá	701	Sololá	3	Barraneche	4	Abril	2023-08-04T00:00:00	2024-11-06T23:00:00	6	Velocidad del viento	11.3
18814	7	Sololá	701	Sololá	3	Barraneche	4	Abril	2023-08-04T00:00:00	2024-11-06T23:00:00	7	Dirección del viento	11.27
18815	7	Sololá	701	Sololá	3	Barraneche	4	Abril	2023-08-04T00:00:00	2024-11-06T23:00:00	1	Precipitación	0
18816	7	Sololá	701	Sololá	3	Barraneche	4	Abril	2023-08-04T00:00:00	2024-11-06T23:00:00	8	Radiación solar	0
18817	7	Sololá	701	Sololá	3	Barraneche	4	Abril	2023-09-04T00:00:00	2024-11-06T00:00:00	2	Temperatura media	10.5
18818	7	Sololá	701	Sololá	3	Barraneche	4	Abril	2023-09-04T00:00:00	2024-11-06T00:00:00	4	Temperatura máxima	11.2
18819	7	Sololá	701	Sololá	3	Barraneche	4	Abril	2023-09-04T00:00:00	2024-11-06T00:00:00	3	Temperatura mínima	10.4
18820	7	Sololá	701	Sololá	3	Barraneche	4	Abril	2023-09-04T00:00:00	2024-11-06T00:00:00	5	Humedad	55
18821	7	Sololá	701	Sololá	3	Barraneche	4	Abril	2023-09-04T00:00:00	2024-11-06T00:00:00	6	Velocidad del viento	6.4
18822	7	Sololá	701	Sololá	3	Barraneche	4	Abril	2023-09-04T00:00:00	2024-11-06T00:00:00	7	Dirección del viento	6.44
18823	7	Sololá	701	Sololá	3	Barraneche	4	Abril	2023-09-04T00:00:00	2024-11-06T00:00:00	1	Precipitación	0
18824	7	Sololá	701	Sololá	3	Barraneche	4	Abril	2023-09-04T00:00:00	2024-11-06T00:00:00	8	Radiación solar	0
18825	7	Sololá	701	Sololá	3	Barraneche	4	Abril	2023-09-04T00:00:00	2024-11-06T01:00:00	2	Temperatura media	10.4
18826	7	Sololá	701	Sololá	3	Barraneche	4	Abril	2023-09-04T00:00:00	2024-11-06T01:00:00	4	Temperatura máxima	10.9
18827	7	Sololá	701	Sololá	3	Barraneche	4	Abril	2023-09-04T00:00:00	2024-11-06T01:00:00	3	Temperatura mínima	10.3
18828	7	Sololá	701	Sololá	3	Barraneche	4	Abril	2023-09-04T00:00:00	2024-11-06T01:00:00	5	Humedad	52
18829	7	Sololá	701	Sololá	3	Barraneche	4	Abril	2023-09-04T00:00:00	2024-11-06T01:00:00	6	Velocidad del viento	16.1
18830	7	Sololá	701	Sololá	3	Barraneche	4	Abril	2023-09-04T00:00:00	2024-11-06T01:00:00	7	Dirección del viento	16.09
18831	7	Sololá	701	Sololá	3	Barraneche	4	Abril	2023-09-04T00:00:00	2024-11-06T01:00:00	1	Precipitación	0
18832	7	Sololá	701	Sololá	3	Barraneche	4	Abril	2023-09-04T00:00:00	2024-11-06T01:00:00	8	Radiación solar	0
18833	7	Sololá	701	Sololá	3	Barraneche	4	Abril	2023-09-04T00:00:00	2024-11-06T02:00:00	2	Temperatura media	10.8
18834	7	Sololá	701	Sololá	3	Barraneche	4	Abril	2023-09-04T00:00:00	2024-11-06T02:00:00	4	Temperatura máxima	10.9
18835	7	Sololá	701	Sololá	3	Barraneche	4	Abril	2023-09-04T00:00:00	2024-11-06T02:00:00	3	Temperatura mínima	10.4
18836	7	Sololá	701	Sololá	3	Barraneche	4	Abril	2023-09-04T00:00:00	2024-11-06T02:00:00	5	Humedad	53
18837	7	Sololá	701	Sololá	3	Barraneche	4	Abril	2023-09-04T00:00:00	2024-11-06T02:00:00	6	Velocidad del viento	11.3
18838	7	Sololá	701	Sololá	3	Barraneche	4	Abril	2023-09-04T00:00:00	2024-11-06T02:00:00	7	Dirección del viento	11.27
18839	7	Sololá	701	Sololá	3	Barraneche	4	Abril	2023-09-04T00:00:00	2024-11-06T02:00:00	1	Precipitación	0
18840	7	Sololá	701	Sololá	3	Barraneche	4	Abril	2023-09-04T00:00:00	2024-11-06T02:00:00	8	Radiación solar	0
18841	7	Sololá	701	Sololá	3	Barraneche	4	Abril	2023-09-04T00:00:00	2024-11-06T03:00:00	2	Temperatura media	10.8
18842	7	Sololá	701	Sololá	3	Barraneche	4	Abril	2023-09-04T00:00:00	2024-11-06T03:00:00	4	Temperatura máxima	10.8
18843	7	Sololá	701	Sololá	3	Barraneche	4	Abril	2023-09-04T00:00:00	2024-11-06T03:00:00	3	Temperatura mínima	10.6
18844	7	Sololá	701	Sololá	3	Barraneche	4	Abril	2023-09-04T00:00:00	2024-11-06T03:00:00	5	Humedad	55
18845	7	Sololá	701	Sololá	3	Barraneche	4	Abril	2023-09-04T00:00:00	2024-11-06T03:00:00	6	Velocidad del viento	4.8
18846	7	Sololá	701	Sololá	3	Barraneche	4	Abril	2023-09-04T00:00:00	2024-11-06T03:00:00	7	Dirección del viento	4.83
18847	7	Sololá	701	Sololá	3	Barraneche	4	Abril	2023-09-04T00:00:00	2024-11-06T03:00:00	1	Precipitación	0
18848	7	Sololá	701	Sololá	3	Barraneche	4	Abril	2023-09-04T00:00:00	2024-11-06T03:00:00	8	Radiación solar	0
18849	7	Sololá	701	Sololá	3	Barraneche	4	Abril	2023-09-04T00:00:00	2024-11-06T04:00:00	2	Temperatura media	11.2
18850	7	Sololá	701	Sololá	3	Barraneche	4	Abril	2023-09-04T00:00:00	2024-11-06T04:00:00	4	Temperatura máxima	11.2
18851	7	Sololá	701	Sololá	3	Barraneche	4	Abril	2023-09-04T00:00:00	2024-11-06T04:00:00	3	Temperatura mínima	9.8
18852	7	Sololá	701	Sololá	3	Barraneche	4	Abril	2023-09-04T00:00:00	2024-11-06T04:00:00	5	Humedad	54
18853	7	Sololá	701	Sololá	3	Barraneche	4	Abril	2023-09-04T00:00:00	2024-11-06T04:00:00	6	Velocidad del viento	11.3
18854	7	Sololá	701	Sololá	3	Barraneche	4	Abril	2023-09-04T00:00:00	2024-11-06T04:00:00	7	Dirección del viento	11.27
18855	7	Sololá	701	Sololá	3	Barraneche	4	Abril	2023-09-04T00:00:00	2024-11-06T04:00:00	1	Precipitación	0
18856	7	Sololá	701	Sololá	3	Barraneche	4	Abril	2023-09-04T00:00:00	2024-11-06T04:00:00	8	Radiación solar	0
18857	7	Sololá	701	Sololá	3	Barraneche	4	Abril	2023-09-04T00:00:00	2024-11-06T05:00:00	2	Temperatura media	10.6
18858	7	Sololá	701	Sololá	3	Barraneche	4	Abril	2023-09-04T00:00:00	2024-11-06T05:00:00	4	Temperatura máxima	11.2
18859	7	Sololá	701	Sololá	3	Barraneche	4	Abril	2023-09-04T00:00:00	2024-11-06T05:00:00	3	Temperatura mínima	10.5
18860	7	Sololá	701	Sololá	3	Barraneche	4	Abril	2023-09-04T00:00:00	2024-11-06T05:00:00	5	Humedad	58
18861	7	Sololá	701	Sololá	3	Barraneche	4	Abril	2023-09-04T00:00:00	2024-11-06T05:00:00	6	Velocidad del viento	8
18862	7	Sololá	701	Sololá	3	Barraneche	4	Abril	2023-09-04T00:00:00	2024-11-06T05:00:00	7	Dirección del viento	8.05
18863	7	Sololá	701	Sololá	3	Barraneche	4	Abril	2023-09-04T00:00:00	2024-11-06T05:00:00	1	Precipitación	0
18864	7	Sololá	701	Sololá	3	Barraneche	4	Abril	2023-09-04T00:00:00	2024-11-06T05:00:00	8	Radiación solar	0
18865	7	Sololá	701	Sololá	3	Barraneche	4	Abril	2023-09-04T00:00:00	2024-11-06T06:00:00	2	Temperatura media	10.6
18866	7	Sololá	701	Sololá	3	Barraneche	4	Abril	2023-09-04T00:00:00	2024-11-06T06:00:00	4	Temperatura máxima	11
18867	7	Sololá	701	Sololá	3	Barraneche	4	Abril	2023-09-04T00:00:00	2024-11-06T06:00:00	3	Temperatura mínima	10.5
18868	7	Sololá	701	Sololá	3	Barraneche	4	Abril	2023-09-04T00:00:00	2024-11-06T06:00:00	5	Humedad	54
18869	7	Sololá	701	Sololá	3	Barraneche	4	Abril	2023-09-04T00:00:00	2024-11-06T06:00:00	6	Velocidad del viento	9.7
18870	7	Sololá	701	Sololá	3	Barraneche	4	Abril	2023-09-04T00:00:00	2024-11-06T06:00:00	7	Dirección del viento	9.66
18871	7	Sololá	701	Sololá	3	Barraneche	4	Abril	2023-09-04T00:00:00	2024-11-06T06:00:00	1	Precipitación	0
18872	7	Sololá	701	Sololá	3	Barraneche	4	Abril	2023-09-04T00:00:00	2024-11-06T06:00:00	8	Radiación solar	1
18873	7	Sololá	701	Sololá	3	Barraneche	4	Abril	2023-09-04T00:00:00	2024-11-06T07:00:00	2	Temperatura media	12.2
18874	7	Sololá	701	Sololá	3	Barraneche	4	Abril	2023-09-04T00:00:00	2024-11-06T07:00:00	4	Temperatura máxima	12.2
18875	7	Sololá	701	Sololá	3	Barraneche	4	Abril	2023-09-04T00:00:00	2024-11-06T07:00:00	3	Temperatura mínima	10.4
18876	7	Sololá	701	Sololá	3	Barraneche	4	Abril	2023-09-04T00:00:00	2024-11-06T07:00:00	5	Humedad	53
18877	7	Sololá	701	Sololá	3	Barraneche	4	Abril	2023-09-04T00:00:00	2024-11-06T07:00:00	6	Velocidad del viento	11.3
18878	7	Sololá	701	Sololá	3	Barraneche	4	Abril	2023-09-04T00:00:00	2024-11-06T07:00:00	7	Dirección del viento	11.27
18879	7	Sololá	701	Sololá	3	Barraneche	4	Abril	2023-09-04T00:00:00	2024-11-06T07:00:00	1	Precipitación	0
18880	7	Sololá	701	Sololá	3	Barraneche	4	Abril	2023-09-04T00:00:00	2024-11-06T07:00:00	8	Radiación solar	58
18881	7	Sololá	701	Sololá	3	Barraneche	4	Abril	2023-09-04T00:00:00	2024-11-06T08:00:00	2	Temperatura media	13.8
18882	7	Sololá	701	Sololá	3	Barraneche	4	Abril	2023-09-04T00:00:00	2024-11-06T08:00:00	4	Temperatura máxima	13.9
18883	7	Sololá	701	Sololá	3	Barraneche	4	Abril	2023-09-04T00:00:00	2024-11-06T08:00:00	3	Temperatura mínima	12.2
18884	7	Sololá	701	Sololá	3	Barraneche	4	Abril	2023-09-04T00:00:00	2024-11-06T08:00:00	5	Humedad	49
18885	7	Sololá	701	Sololá	3	Barraneche	4	Abril	2023-09-04T00:00:00	2024-11-06T08:00:00	6	Velocidad del viento	12.9
18886	7	Sololá	701	Sololá	3	Barraneche	4	Abril	2023-09-04T00:00:00	2024-11-06T08:00:00	7	Dirección del viento	12.87
18887	7	Sololá	701	Sololá	3	Barraneche	4	Abril	2023-09-04T00:00:00	2024-11-06T08:00:00	1	Precipitación	0
18888	7	Sololá	701	Sololá	3	Barraneche	4	Abril	2023-09-04T00:00:00	2024-11-06T08:00:00	8	Radiación solar	355
18889	7	Sololá	701	Sololá	3	Barraneche	4	Abril	2023-09-04T00:00:00	2024-11-06T09:00:00	2	Temperatura media	15.2
18890	7	Sololá	701	Sololá	3	Barraneche	4	Abril	2023-09-04T00:00:00	2024-11-06T09:00:00	4	Temperatura máxima	15.2
18891	7	Sololá	701	Sololá	3	Barraneche	4	Abril	2023-09-04T00:00:00	2024-11-06T09:00:00	3	Temperatura mínima	13.8
18892	7	Sololá	701	Sololá	3	Barraneche	4	Abril	2023-09-04T00:00:00	2024-11-06T09:00:00	5	Humedad	45
18893	7	Sololá	701	Sololá	3	Barraneche	4	Abril	2023-09-04T00:00:00	2024-11-06T09:00:00	6	Velocidad del viento	14.5
18894	7	Sololá	701	Sololá	3	Barraneche	4	Abril	2023-09-04T00:00:00	2024-11-06T09:00:00	7	Dirección del viento	14.48
18895	7	Sololá	701	Sololá	3	Barraneche	4	Abril	2023-09-04T00:00:00	2024-11-06T09:00:00	1	Precipitación	0
18896	7	Sololá	701	Sololá	3	Barraneche	4	Abril	2023-09-04T00:00:00	2024-11-06T09:00:00	8	Radiación solar	605
18897	7	Sololá	701	Sololá	3	Barraneche	4	Abril	2023-09-04T00:00:00	2024-11-06T10:00:00	2	Temperatura media	16.3
18898	7	Sololá	701	Sololá	3	Barraneche	4	Abril	2023-09-04T00:00:00	2024-11-06T10:00:00	4	Temperatura máxima	16.4
18899	7	Sololá	701	Sololá	3	Barraneche	4	Abril	2023-09-04T00:00:00	2024-11-06T10:00:00	3	Temperatura mínima	15.3
18900	7	Sololá	701	Sololá	3	Barraneche	4	Abril	2023-09-04T00:00:00	2024-11-06T10:00:00	5	Humedad	42
18901	7	Sololá	701	Sololá	3	Barraneche	4	Abril	2023-09-04T00:00:00	2024-11-06T10:00:00	6	Velocidad del viento	12.9
18902	7	Sololá	701	Sololá	3	Barraneche	4	Abril	2023-09-04T00:00:00	2024-11-06T10:00:00	7	Dirección del viento	12.87
18903	7	Sololá	701	Sololá	3	Barraneche	4	Abril	2023-09-04T00:00:00	2024-11-06T10:00:00	1	Precipitación	0
18904	7	Sololá	701	Sololá	3	Barraneche	4	Abril	2023-09-04T00:00:00	2024-11-06T10:00:00	8	Radiación solar	818
18905	7	Sololá	701	Sololá	3	Barraneche	4	Abril	2023-09-04T00:00:00	2024-11-06T11:00:00	2	Temperatura media	17.3
18906	7	Sololá	701	Sololá	3	Barraneche	4	Abril	2023-09-04T00:00:00	2024-11-06T11:00:00	4	Temperatura máxima	17.3
18907	7	Sololá	701	Sololá	3	Barraneche	4	Abril	2023-09-04T00:00:00	2024-11-06T11:00:00	3	Temperatura mínima	16.2
18908	7	Sololá	701	Sololá	3	Barraneche	4	Abril	2023-09-04T00:00:00	2024-11-06T11:00:00	5	Humedad	40
18909	7	Sololá	701	Sololá	3	Barraneche	4	Abril	2023-09-04T00:00:00	2024-11-06T11:00:00	6	Velocidad del viento	11.3
18910	7	Sololá	701	Sololá	3	Barraneche	4	Abril	2023-09-04T00:00:00	2024-11-06T11:00:00	7	Dirección del viento	11.27
18911	7	Sololá	701	Sololá	3	Barraneche	4	Abril	2023-09-04T00:00:00	2024-11-06T11:00:00	1	Precipitación	0
18912	7	Sololá	701	Sololá	3	Barraneche	4	Abril	2023-09-04T00:00:00	2024-11-06T11:00:00	8	Radiación solar	971
18913	7	Sololá	701	Sololá	3	Barraneche	4	Abril	2023-09-04T00:00:00	2024-11-06T12:00:00	2	Temperatura media	18.9
18914	7	Sololá	701	Sololá	3	Barraneche	4	Abril	2023-09-04T00:00:00	2024-11-06T12:00:00	4	Temperatura máxima	18.9
18915	7	Sololá	701	Sololá	3	Barraneche	4	Abril	2023-09-04T00:00:00	2024-11-06T12:00:00	3	Temperatura mínima	17.2
18916	7	Sololá	701	Sololá	3	Barraneche	4	Abril	2023-09-04T00:00:00	2024-11-06T12:00:00	5	Humedad	37
18917	7	Sololá	701	Sololá	3	Barraneche	4	Abril	2023-09-04T00:00:00	2024-11-06T12:00:00	6	Velocidad del viento	12.9
18918	7	Sololá	701	Sololá	3	Barraneche	4	Abril	2023-09-04T00:00:00	2024-11-06T12:00:00	7	Dirección del viento	12.87
18919	7	Sololá	701	Sololá	3	Barraneche	4	Abril	2023-09-04T00:00:00	2024-11-06T12:00:00	1	Precipitación	0
18920	7	Sololá	701	Sololá	3	Barraneche	4	Abril	2023-09-04T00:00:00	2024-11-06T12:00:00	8	Radiación solar	1049
18921	7	Sololá	701	Sololá	3	Barraneche	4	Abril	2023-09-04T00:00:00	2024-11-06T13:00:00	2	Temperatura media	19.1
18922	7	Sololá	701	Sololá	3	Barraneche	4	Abril	2023-09-04T00:00:00	2024-11-06T13:00:00	4	Temperatura máxima	19.6
18923	7	Sololá	701	Sololá	3	Barraneche	4	Abril	2023-09-04T00:00:00	2024-11-06T13:00:00	3	Temperatura mínima	18.3
18924	7	Sololá	701	Sololá	3	Barraneche	4	Abril	2023-09-04T00:00:00	2024-11-06T13:00:00	5	Humedad	35
18925	7	Sololá	701	Sololá	3	Barraneche	4	Abril	2023-09-04T00:00:00	2024-11-06T13:00:00	6	Velocidad del viento	12.9
18926	7	Sololá	701	Sololá	3	Barraneche	4	Abril	2023-09-04T00:00:00	2024-11-06T13:00:00	7	Dirección del viento	12.87
18927	7	Sololá	701	Sololá	3	Barraneche	4	Abril	2023-09-04T00:00:00	2024-11-06T13:00:00	1	Precipitación	0
18928	7	Sololá	701	Sololá	3	Barraneche	4	Abril	2023-09-04T00:00:00	2024-11-06T13:00:00	8	Radiación solar	1047
18929	7	Sololá	701	Sololá	3	Barraneche	4	Abril	2023-09-04T00:00:00	2024-11-06T14:00:00	2	Temperatura media	19.9
18930	7	Sololá	701	Sololá	3	Barraneche	4	Abril	2023-09-04T00:00:00	2024-11-06T14:00:00	4	Temperatura máxima	19.9
18931	7	Sololá	701	Sololá	3	Barraneche	4	Abril	2023-09-04T00:00:00	2024-11-06T14:00:00	3	Temperatura mínima	18.9
18932	7	Sololá	701	Sololá	3	Barraneche	4	Abril	2023-09-04T00:00:00	2024-11-06T14:00:00	5	Humedad	30
18933	7	Sololá	701	Sololá	3	Barraneche	4	Abril	2023-09-04T00:00:00	2024-11-06T14:00:00	6	Velocidad del viento	14.5
18934	7	Sololá	701	Sololá	3	Barraneche	4	Abril	2023-09-04T00:00:00	2024-11-06T14:00:00	7	Dirección del viento	14.48
18935	7	Sololá	701	Sololá	3	Barraneche	4	Abril	2023-09-04T00:00:00	2024-11-06T14:00:00	1	Precipitación	0
18936	7	Sololá	701	Sololá	3	Barraneche	4	Abril	2023-09-04T00:00:00	2024-11-06T14:00:00	8	Radiación solar	979
18937	7	Sololá	701	Sololá	3	Barraneche	4	Abril	2023-09-04T00:00:00	2024-11-06T15:00:00	2	Temperatura media	19.8
18938	7	Sololá	701	Sololá	3	Barraneche	4	Abril	2023-09-04T00:00:00	2024-11-06T15:00:00	4	Temperatura máxima	20.1
18939	7	Sololá	701	Sololá	3	Barraneche	4	Abril	2023-09-04T00:00:00	2024-11-06T15:00:00	3	Temperatura mínima	19.4
18940	7	Sololá	701	Sololá	3	Barraneche	4	Abril	2023-09-04T00:00:00	2024-11-06T15:00:00	5	Humedad	22
18941	7	Sololá	701	Sololá	3	Barraneche	4	Abril	2023-09-04T00:00:00	2024-11-06T15:00:00	6	Velocidad del viento	14.5
18942	7	Sololá	701	Sololá	3	Barraneche	4	Abril	2023-09-04T00:00:00	2024-11-06T15:00:00	7	Dirección del viento	14.48
18943	7	Sololá	701	Sololá	3	Barraneche	4	Abril	2023-09-04T00:00:00	2024-11-06T15:00:00	1	Precipitación	0
18944	7	Sololá	701	Sololá	3	Barraneche	4	Abril	2023-09-04T00:00:00	2024-11-06T15:00:00	8	Radiación solar	751
18945	7	Sololá	701	Sololá	3	Barraneche	4	Abril	2023-09-04T00:00:00	2024-11-06T16:00:00	2	Temperatura media	19.3
18946	7	Sololá	701	Sololá	3	Barraneche	4	Abril	2023-09-04T00:00:00	2024-11-06T16:00:00	4	Temperatura máxima	20.2
18947	7	Sololá	701	Sololá	3	Barraneche	4	Abril	2023-09-04T00:00:00	2024-11-06T16:00:00	3	Temperatura mínima	19.3
18948	7	Sololá	701	Sololá	3	Barraneche	4	Abril	2023-09-04T00:00:00	2024-11-06T16:00:00	5	Humedad	28
18949	7	Sololá	701	Sololá	3	Barraneche	4	Abril	2023-09-04T00:00:00	2024-11-06T16:00:00	6	Velocidad del viento	12.9
18950	7	Sololá	701	Sololá	3	Barraneche	4	Abril	2023-09-04T00:00:00	2024-11-06T16:00:00	7	Dirección del viento	12.87
18951	7	Sololá	701	Sololá	3	Barraneche	4	Abril	2023-09-04T00:00:00	2024-11-06T16:00:00	1	Precipitación	0
18952	7	Sololá	701	Sololá	3	Barraneche	4	Abril	2023-09-04T00:00:00	2024-11-06T16:00:00	8	Radiación solar	489
18953	7	Sololá	701	Sololá	3	Barraneche	4	Abril	2023-09-04T00:00:00	2024-11-06T17:00:00	2	Temperatura media	17.7
18954	7	Sololá	701	Sololá	3	Barraneche	4	Abril	2023-09-04T00:00:00	2024-11-06T17:00:00	4	Temperatura máxima	19.3
18955	7	Sololá	701	Sololá	3	Barraneche	4	Abril	2023-09-04T00:00:00	2024-11-06T17:00:00	3	Temperatura mínima	17.7
18956	7	Sololá	701	Sololá	3	Barraneche	4	Abril	2023-09-04T00:00:00	2024-11-06T17:00:00	5	Humedad	33
18957	7	Sololá	701	Sololá	3	Barraneche	4	Abril	2023-09-04T00:00:00	2024-11-06T17:00:00	6	Velocidad del viento	9.7
18958	7	Sololá	701	Sololá	3	Barraneche	4	Abril	2023-09-04T00:00:00	2024-11-06T17:00:00	7	Dirección del viento	9.66
18959	7	Sololá	701	Sololá	3	Barraneche	4	Abril	2023-09-04T00:00:00	2024-11-06T17:00:00	1	Precipitación	0
18960	7	Sololá	701	Sololá	3	Barraneche	4	Abril	2023-09-04T00:00:00	2024-11-06T17:00:00	8	Radiación solar	325
18961	7	Sololá	701	Sololá	3	Barraneche	4	Abril	2023-09-04T00:00:00	2024-11-06T18:00:00	2	Temperatura media	15.5
18962	7	Sololá	701	Sololá	3	Barraneche	4	Abril	2023-09-04T00:00:00	2024-11-06T18:00:00	4	Temperatura máxima	17.8
18963	7	Sololá	701	Sololá	3	Barraneche	4	Abril	2023-09-04T00:00:00	2024-11-06T18:00:00	3	Temperatura mínima	15.5
18964	7	Sololá	701	Sololá	3	Barraneche	4	Abril	2023-09-04T00:00:00	2024-11-06T18:00:00	5	Humedad	41
18965	7	Sololá	701	Sololá	3	Barraneche	4	Abril	2023-09-04T00:00:00	2024-11-06T18:00:00	6	Velocidad del viento	9.7
18966	7	Sololá	701	Sololá	3	Barraneche	4	Abril	2023-09-04T00:00:00	2024-11-06T18:00:00	7	Dirección del viento	9.66
18967	7	Sololá	701	Sololá	3	Barraneche	4	Abril	2023-09-04T00:00:00	2024-11-06T18:00:00	1	Precipitación	0
18968	7	Sololá	701	Sololá	3	Barraneche	4	Abril	2023-09-04T00:00:00	2024-11-06T18:00:00	8	Radiación solar	107
18969	7	Sololá	701	Sololá	3	Barraneche	4	Abril	2023-09-04T00:00:00	2024-11-06T19:00:00	2	Temperatura media	13.1
18970	7	Sololá	701	Sololá	3	Barraneche	4	Abril	2023-09-04T00:00:00	2024-11-06T19:00:00	4	Temperatura máxima	15.4
18971	7	Sololá	701	Sololá	3	Barraneche	4	Abril	2023-09-04T00:00:00	2024-11-06T19:00:00	3	Temperatura mínima	13.1
18972	7	Sololá	701	Sololá	3	Barraneche	4	Abril	2023-09-04T00:00:00	2024-11-06T19:00:00	5	Humedad	54
18973	7	Sololá	701	Sololá	3	Barraneche	4	Abril	2023-09-04T00:00:00	2024-11-06T19:00:00	6	Velocidad del viento	9.7
18974	7	Sololá	701	Sololá	3	Barraneche	4	Abril	2023-09-04T00:00:00	2024-11-06T19:00:00	7	Dirección del viento	9.66
18975	7	Sololá	701	Sololá	3	Barraneche	4	Abril	2023-09-04T00:00:00	2024-11-06T19:00:00	1	Precipitación	0
18976	7	Sololá	701	Sololá	3	Barraneche	4	Abril	2023-09-04T00:00:00	2024-11-06T19:00:00	8	Radiación solar	0
18977	7	Sololá	701	Sololá	3	Barraneche	4	Abril	2023-09-04T00:00:00	2024-11-06T20:00:00	2	Temperatura media	12.3
18978	7	Sololá	701	Sololá	3	Barraneche	4	Abril	2023-09-04T00:00:00	2024-11-06T20:00:00	4	Temperatura máxima	13.1
18979	7	Sololá	701	Sololá	3	Barraneche	4	Abril	2023-09-04T00:00:00	2024-11-06T20:00:00	3	Temperatura mínima	12.3
18980	7	Sololá	701	Sololá	3	Barraneche	4	Abril	2023-09-04T00:00:00	2024-11-06T20:00:00	5	Humedad	52
18981	7	Sololá	701	Sololá	3	Barraneche	4	Abril	2023-09-04T00:00:00	2024-11-06T20:00:00	6	Velocidad del viento	9.7
18982	7	Sololá	701	Sololá	3	Barraneche	4	Abril	2023-09-04T00:00:00	2024-11-06T20:00:00	7	Dirección del viento	9.66
18983	7	Sololá	701	Sololá	3	Barraneche	4	Abril	2023-09-04T00:00:00	2024-11-06T20:00:00	1	Precipitación	0
18984	7	Sololá	701	Sololá	3	Barraneche	4	Abril	2023-09-04T00:00:00	2024-11-06T20:00:00	8	Radiación solar	0
18985	7	Sololá	701	Sololá	3	Barraneche	4	Abril	2023-09-04T00:00:00	2024-11-06T21:00:00	2	Temperatura media	11.6
18986	7	Sololá	701	Sololá	3	Barraneche	4	Abril	2023-09-04T00:00:00	2024-11-06T21:00:00	4	Temperatura máxima	12.3
18987	7	Sololá	701	Sololá	3	Barraneche	4	Abril	2023-09-04T00:00:00	2024-11-06T21:00:00	3	Temperatura mínima	11.5
18988	7	Sololá	701	Sololá	3	Barraneche	4	Abril	2023-09-04T00:00:00	2024-11-06T21:00:00	5	Humedad	53
18989	7	Sololá	701	Sololá	3	Barraneche	4	Abril	2023-09-04T00:00:00	2024-11-06T21:00:00	6	Velocidad del viento	8
18990	7	Sololá	701	Sololá	3	Barraneche	4	Abril	2023-09-04T00:00:00	2024-11-06T21:00:00	7	Dirección del viento	8.05
18991	7	Sololá	701	Sololá	3	Barraneche	4	Abril	2023-09-04T00:00:00	2024-11-06T21:00:00	1	Precipitación	0
18992	7	Sololá	701	Sololá	3	Barraneche	4	Abril	2023-09-04T00:00:00	2024-11-06T21:00:00	8	Radiación solar	0
18993	7	Sololá	701	Sololá	3	Barraneche	4	Abril	2023-09-04T00:00:00	2024-11-06T22:00:00	2	Temperatura media	12.2
18994	7	Sololá	701	Sololá	3	Barraneche	4	Abril	2023-09-04T00:00:00	2024-11-06T22:00:00	4	Temperatura máxima	12.2
18995	7	Sololá	701	Sololá	3	Barraneche	4	Abril	2023-09-04T00:00:00	2024-11-06T22:00:00	3	Temperatura mínima	11.3
18996	7	Sololá	701	Sololá	3	Barraneche	4	Abril	2023-09-04T00:00:00	2024-11-06T22:00:00	5	Humedad	40
18997	7	Sololá	701	Sololá	3	Barraneche	4	Abril	2023-09-04T00:00:00	2024-11-06T22:00:00	6	Velocidad del viento	11.3
18998	7	Sololá	701	Sololá	3	Barraneche	4	Abril	2023-09-04T00:00:00	2024-11-06T22:00:00	7	Dirección del viento	11.27
18999	7	Sololá	701	Sololá	3	Barraneche	4	Abril	2023-09-04T00:00:00	2024-11-06T22:00:00	1	Precipitación	0
19000	7	Sololá	701	Sololá	3	Barraneche	4	Abril	2023-09-04T00:00:00	2024-11-06T22:00:00	8	Radiación solar	0
19001	7	Sololá	701	Sololá	3	Barraneche	4	Abril	2023-09-04T00:00:00	2024-11-06T23:00:00	2	Temperatura media	11.8
19002	7	Sololá	701	Sololá	3	Barraneche	4	Abril	2023-09-04T00:00:00	2024-11-06T23:00:00	4	Temperatura máxima	12.2
19003	7	Sololá	701	Sololá	3	Barraneche	4	Abril	2023-09-04T00:00:00	2024-11-06T23:00:00	3	Temperatura mínima	11.8
19004	7	Sololá	701	Sololá	3	Barraneche	4	Abril	2023-09-04T00:00:00	2024-11-06T23:00:00	5	Humedad	44
19005	7	Sololá	701	Sololá	3	Barraneche	4	Abril	2023-09-04T00:00:00	2024-11-06T23:00:00	6	Velocidad del viento	14.5
19006	7	Sololá	701	Sololá	3	Barraneche	4	Abril	2023-09-04T00:00:00	2024-11-06T23:00:00	7	Dirección del viento	14.48
19007	7	Sololá	701	Sololá	3	Barraneche	4	Abril	2023-09-04T00:00:00	2024-11-06T23:00:00	1	Precipitación	0
19008	7	Sololá	701	Sololá	3	Barraneche	4	Abril	2023-09-04T00:00:00	2024-11-06T23:00:00	8	Radiación solar	0
19009	7	Sololá	701	Sololá	3	Barraneche	4	Abril	2023-10-04T00:00:00	2024-11-06T00:00:00	2	Temperatura media	11.1
19010	7	Sololá	701	Sololá	3	Barraneche	4	Abril	2023-10-04T00:00:00	2024-11-06T00:00:00	4	Temperatura máxima	11.8
19011	7	Sololá	701	Sololá	3	Barraneche	4	Abril	2023-10-04T00:00:00	2024-11-06T00:00:00	3	Temperatura mínima	11.1
19012	7	Sololá	701	Sololá	3	Barraneche	4	Abril	2023-10-04T00:00:00	2024-11-06T00:00:00	5	Humedad	43
19013	7	Sololá	701	Sololá	3	Barraneche	4	Abril	2023-10-04T00:00:00	2024-11-06T00:00:00	6	Velocidad del viento	9.7
19014	7	Sololá	701	Sololá	3	Barraneche	4	Abril	2023-10-04T00:00:00	2024-11-06T00:00:00	7	Dirección del viento	9.66
19015	7	Sololá	701	Sololá	3	Barraneche	4	Abril	2023-10-04T00:00:00	2024-11-06T00:00:00	1	Precipitación	0
19016	7	Sololá	701	Sololá	3	Barraneche	4	Abril	2023-10-04T00:00:00	2024-11-06T00:00:00	8	Radiación solar	0
19017	7	Sololá	701	Sololá	3	Barraneche	4	Abril	2023-10-04T00:00:00	2024-11-06T01:00:00	2	Temperatura media	10.7
19018	7	Sololá	701	Sololá	3	Barraneche	4	Abril	2023-10-04T00:00:00	2024-11-06T01:00:00	4	Temperatura máxima	11.6
19019	7	Sololá	701	Sololá	3	Barraneche	4	Abril	2023-10-04T00:00:00	2024-11-06T01:00:00	3	Temperatura mínima	10.3
19020	7	Sololá	701	Sololá	3	Barraneche	4	Abril	2023-10-04T00:00:00	2024-11-06T01:00:00	5	Humedad	50
19021	7	Sololá	701	Sololá	3	Barraneche	4	Abril	2023-10-04T00:00:00	2024-11-06T01:00:00	6	Velocidad del viento	6.4
19022	7	Sololá	701	Sololá	3	Barraneche	4	Abril	2023-10-04T00:00:00	2024-11-06T01:00:00	7	Dirección del viento	6.44
19023	7	Sololá	701	Sololá	3	Barraneche	4	Abril	2023-10-04T00:00:00	2024-11-06T01:00:00	1	Precipitación	0
19024	7	Sololá	701	Sololá	3	Barraneche	4	Abril	2023-10-04T00:00:00	2024-11-06T01:00:00	8	Radiación solar	0
19025	7	Sololá	701	Sololá	3	Barraneche	4	Abril	2023-10-04T00:00:00	2024-11-06T02:00:00	2	Temperatura media	10.4
19026	7	Sololá	701	Sololá	3	Barraneche	4	Abril	2023-10-04T00:00:00	2024-11-06T02:00:00	4	Temperatura máxima	11.1
19027	7	Sololá	701	Sololá	3	Barraneche	4	Abril	2023-10-04T00:00:00	2024-11-06T02:00:00	3	Temperatura mínima	10.3
19028	7	Sololá	701	Sololá	3	Barraneche	4	Abril	2023-10-04T00:00:00	2024-11-06T02:00:00	5	Humedad	52
19029	7	Sololá	701	Sololá	3	Barraneche	4	Abril	2023-10-04T00:00:00	2024-11-06T02:00:00	6	Velocidad del viento	12.9
19030	7	Sololá	701	Sololá	3	Barraneche	4	Abril	2023-10-04T00:00:00	2024-11-06T02:00:00	7	Dirección del viento	12.87
19031	7	Sololá	701	Sololá	3	Barraneche	4	Abril	2023-10-04T00:00:00	2024-11-06T02:00:00	1	Precipitación	0
19032	7	Sololá	701	Sololá	3	Barraneche	4	Abril	2023-10-04T00:00:00	2024-11-06T02:00:00	8	Radiación solar	0
19033	7	Sololá	701	Sololá	3	Barraneche	4	Abril	2023-10-04T00:00:00	2024-11-06T03:00:00	2	Temperatura media	10.8
19034	7	Sololá	701	Sololá	3	Barraneche	4	Abril	2023-10-04T00:00:00	2024-11-06T03:00:00	4	Temperatura máxima	11.2
19035	7	Sololá	701	Sololá	3	Barraneche	4	Abril	2023-10-04T00:00:00	2024-11-06T03:00:00	3	Temperatura mínima	10.4
19036	7	Sololá	701	Sololá	3	Barraneche	4	Abril	2023-10-04T00:00:00	2024-11-06T03:00:00	5	Humedad	51
19037	7	Sololá	701	Sololá	3	Barraneche	4	Abril	2023-10-04T00:00:00	2024-11-06T03:00:00	6	Velocidad del viento	17.7
19038	7	Sololá	701	Sololá	3	Barraneche	4	Abril	2023-10-04T00:00:00	2024-11-06T03:00:00	7	Dirección del viento	17.7
19039	7	Sololá	701	Sololá	3	Barraneche	4	Abril	2023-10-04T00:00:00	2024-11-06T03:00:00	1	Precipitación	0
19040	7	Sololá	701	Sololá	3	Barraneche	4	Abril	2023-10-04T00:00:00	2024-11-06T03:00:00	8	Radiación solar	0
19041	7	Sololá	701	Sololá	3	Barraneche	4	Abril	2023-10-04T00:00:00	2024-11-06T04:00:00	2	Temperatura media	9.2
19042	7	Sololá	701	Sololá	3	Barraneche	4	Abril	2023-10-04T00:00:00	2024-11-06T04:00:00	4	Temperatura máxima	10.8
19043	7	Sololá	701	Sololá	3	Barraneche	4	Abril	2023-10-04T00:00:00	2024-11-06T04:00:00	3	Temperatura mínima	9.1
19044	7	Sololá	701	Sololá	3	Barraneche	4	Abril	2023-10-04T00:00:00	2024-11-06T04:00:00	5	Humedad	56
19045	7	Sololá	701	Sololá	3	Barraneche	4	Abril	2023-10-04T00:00:00	2024-11-06T04:00:00	6	Velocidad del viento	8
19046	7	Sololá	701	Sololá	3	Barraneche	4	Abril	2023-10-04T00:00:00	2024-11-06T04:00:00	7	Dirección del viento	8.05
19047	7	Sololá	701	Sololá	3	Barraneche	4	Abril	2023-10-04T00:00:00	2024-11-06T04:00:00	1	Precipitación	0
19048	7	Sololá	701	Sololá	3	Barraneche	4	Abril	2023-10-04T00:00:00	2024-11-06T04:00:00	8	Radiación solar	0
19049	7	Sololá	701	Sololá	3	Barraneche	4	Abril	2023-10-04T00:00:00	2024-11-06T05:00:00	2	Temperatura media	11.1
19050	7	Sololá	701	Sololá	3	Barraneche	4	Abril	2023-10-04T00:00:00	2024-11-06T05:00:00	4	Temperatura máxima	11.4
19051	7	Sololá	701	Sololá	3	Barraneche	4	Abril	2023-10-04T00:00:00	2024-11-06T05:00:00	3	Temperatura mínima	9.1
19052	7	Sololá	701	Sololá	3	Barraneche	4	Abril	2023-10-04T00:00:00	2024-11-06T05:00:00	5	Humedad	51
19053	7	Sololá	701	Sololá	3	Barraneche	4	Abril	2023-10-04T00:00:00	2024-11-06T05:00:00	6	Velocidad del viento	11.3
19054	7	Sololá	701	Sololá	3	Barraneche	4	Abril	2023-10-04T00:00:00	2024-11-06T05:00:00	7	Dirección del viento	11.27
19055	7	Sololá	701	Sololá	3	Barraneche	4	Abril	2023-10-04T00:00:00	2024-11-06T05:00:00	1	Precipitación	0
19056	7	Sololá	701	Sololá	3	Barraneche	4	Abril	2023-10-04T00:00:00	2024-11-06T05:00:00	8	Radiación solar	0
19057	7	Sololá	701	Sololá	3	Barraneche	4	Abril	2023-10-04T00:00:00	2024-11-06T06:00:00	2	Temperatura media	11.4
19058	7	Sololá	701	Sololá	3	Barraneche	4	Abril	2023-10-04T00:00:00	2024-11-06T06:00:00	4	Temperatura máxima	11.6
19059	7	Sololá	701	Sololá	3	Barraneche	4	Abril	2023-10-04T00:00:00	2024-11-06T06:00:00	3	Temperatura mínima	10.9
19060	7	Sololá	701	Sololá	3	Barraneche	4	Abril	2023-10-04T00:00:00	2024-11-06T06:00:00	5	Humedad	48
19061	7	Sololá	701	Sololá	3	Barraneche	4	Abril	2023-10-04T00:00:00	2024-11-06T06:00:00	6	Velocidad del viento	12.9
19062	7	Sololá	701	Sololá	3	Barraneche	4	Abril	2023-10-04T00:00:00	2024-11-06T06:00:00	7	Dirección del viento	12.87
19063	7	Sololá	701	Sololá	3	Barraneche	4	Abril	2023-10-04T00:00:00	2024-11-06T06:00:00	1	Precipitación	0
19064	7	Sololá	701	Sololá	3	Barraneche	4	Abril	2023-10-04T00:00:00	2024-11-06T06:00:00	8	Radiación solar	1
19065	7	Sololá	701	Sololá	3	Barraneche	4	Abril	2023-10-04T00:00:00	2024-11-06T07:00:00	2	Temperatura media	11.9
19066	7	Sololá	701	Sololá	3	Barraneche	4	Abril	2023-10-04T00:00:00	2024-11-06T07:00:00	4	Temperatura máxima	11.9
19067	7	Sololá	701	Sololá	3	Barraneche	4	Abril	2023-10-04T00:00:00	2024-11-06T07:00:00	3	Temperatura mínima	9.8
19068	7	Sololá	701	Sololá	3	Barraneche	4	Abril	2023-10-04T00:00:00	2024-11-06T07:00:00	5	Humedad	48
19069	7	Sololá	701	Sololá	3	Barraneche	4	Abril	2023-10-04T00:00:00	2024-11-06T07:00:00	6	Velocidad del viento	11.3
19070	7	Sololá	701	Sololá	3	Barraneche	4	Abril	2023-10-04T00:00:00	2024-11-06T07:00:00	7	Dirección del viento	11.27
19071	7	Sololá	701	Sololá	3	Barraneche	4	Abril	2023-10-04T00:00:00	2024-11-06T07:00:00	1	Precipitación	0
19072	7	Sololá	701	Sololá	3	Barraneche	4	Abril	2023-10-04T00:00:00	2024-11-06T07:00:00	8	Radiación solar	58
19073	7	Sololá	701	Sololá	3	Barraneche	4	Abril	2023-10-04T00:00:00	2024-11-06T08:00:00	2	Temperatura media	13.7
19074	7	Sololá	701	Sololá	3	Barraneche	4	Abril	2023-10-04T00:00:00	2024-11-06T08:00:00	4	Temperatura máxima	13.8
19075	7	Sololá	701	Sololá	3	Barraneche	4	Abril	2023-10-04T00:00:00	2024-11-06T08:00:00	3	Temperatura mínima	11.9
19076	7	Sololá	701	Sololá	3	Barraneche	4	Abril	2023-10-04T00:00:00	2024-11-06T08:00:00	5	Humedad	46
19077	7	Sololá	701	Sololá	3	Barraneche	4	Abril	2023-10-04T00:00:00	2024-11-06T08:00:00	6	Velocidad del viento	11.3
19078	7	Sololá	701	Sololá	3	Barraneche	4	Abril	2023-10-04T00:00:00	2024-11-06T08:00:00	7	Dirección del viento	11.27
19079	7	Sololá	701	Sololá	3	Barraneche	4	Abril	2023-10-04T00:00:00	2024-11-06T08:00:00	1	Precipitación	0
19080	7	Sololá	701	Sololá	3	Barraneche	4	Abril	2023-10-04T00:00:00	2024-11-06T08:00:00	8	Radiación solar	354
19081	7	Sololá	701	Sololá	3	Barraneche	4	Abril	2023-10-04T00:00:00	2024-11-06T09:00:00	2	Temperatura media	15.8
19082	7	Sololá	701	Sololá	3	Barraneche	4	Abril	2023-10-04T00:00:00	2024-11-06T09:00:00	4	Temperatura máxima	15.8
19083	7	Sololá	701	Sololá	3	Barraneche	4	Abril	2023-10-04T00:00:00	2024-11-06T09:00:00	3	Temperatura mínima	13.7
19084	7	Sololá	701	Sololá	3	Barraneche	4	Abril	2023-10-04T00:00:00	2024-11-06T09:00:00	5	Humedad	40
19085	7	Sololá	701	Sololá	3	Barraneche	4	Abril	2023-10-04T00:00:00	2024-11-06T09:00:00	6	Velocidad del viento	9.7
19086	7	Sololá	701	Sololá	3	Barraneche	4	Abril	2023-10-04T00:00:00	2024-11-06T09:00:00	7	Dirección del viento	9.66
19087	7	Sololá	701	Sololá	3	Barraneche	4	Abril	2023-10-04T00:00:00	2024-11-06T09:00:00	1	Precipitación	0
19088	7	Sololá	701	Sololá	3	Barraneche	4	Abril	2023-10-04T00:00:00	2024-11-06T09:00:00	8	Radiación solar	614
19089	7	Sololá	701	Sololá	3	Barraneche	4	Abril	2023-10-04T00:00:00	2024-11-06T10:00:00	2	Temperatura media	17
19090	7	Sololá	701	Sololá	3	Barraneche	4	Abril	2023-10-04T00:00:00	2024-11-06T10:00:00	4	Temperatura máxima	17
19091	7	Sololá	701	Sololá	3	Barraneche	4	Abril	2023-10-04T00:00:00	2024-11-06T10:00:00	3	Temperatura mínima	15.7
19092	7	Sololá	701	Sololá	3	Barraneche	4	Abril	2023-10-04T00:00:00	2024-11-06T10:00:00	5	Humedad	36
19093	7	Sololá	701	Sololá	3	Barraneche	4	Abril	2023-10-04T00:00:00	2024-11-06T10:00:00	6	Velocidad del viento	14.5
19094	7	Sololá	701	Sololá	3	Barraneche	4	Abril	2023-10-04T00:00:00	2024-11-06T10:00:00	7	Dirección del viento	14.48
19095	7	Sololá	701	Sololá	3	Barraneche	4	Abril	2023-10-04T00:00:00	2024-11-06T10:00:00	1	Precipitación	0
19096	7	Sololá	701	Sololá	3	Barraneche	4	Abril	2023-10-04T00:00:00	2024-11-06T10:00:00	8	Radiación solar	833
19097	7	Sololá	701	Sololá	3	Barraneche	4	Abril	2023-10-04T00:00:00	2024-11-06T11:00:00	2	Temperatura media	18.2
19098	7	Sololá	701	Sololá	3	Barraneche	4	Abril	2023-10-04T00:00:00	2024-11-06T11:00:00	4	Temperatura máxima	18.2
19099	7	Sololá	701	Sololá	3	Barraneche	4	Abril	2023-10-04T00:00:00	2024-11-06T11:00:00	3	Temperatura mínima	16.7
19100	7	Sololá	701	Sololá	3	Barraneche	4	Abril	2023-10-04T00:00:00	2024-11-06T11:00:00	5	Humedad	32
19101	7	Sololá	701	Sololá	3	Barraneche	4	Abril	2023-10-04T00:00:00	2024-11-06T11:00:00	6	Velocidad del viento	19.3
19102	7	Sololá	701	Sololá	3	Barraneche	4	Abril	2023-10-04T00:00:00	2024-11-06T11:00:00	7	Dirección del viento	19.31
19103	7	Sololá	701	Sololá	3	Barraneche	4	Abril	2023-10-04T00:00:00	2024-11-06T11:00:00	1	Precipitación	0
19104	7	Sololá	701	Sololá	3	Barraneche	4	Abril	2023-10-04T00:00:00	2024-11-06T11:00:00	8	Radiación solar	984
19105	7	Sololá	701	Sololá	3	Barraneche	4	Abril	2023-10-04T00:00:00	2024-11-06T12:00:00	2	Temperatura media	18.6
19106	7	Sololá	701	Sololá	3	Barraneche	4	Abril	2023-10-04T00:00:00	2024-11-06T12:00:00	4	Temperatura máxima	19.2
19107	7	Sololá	701	Sololá	3	Barraneche	4	Abril	2023-10-04T00:00:00	2024-11-06T12:00:00	3	Temperatura mínima	17.7
19108	7	Sololá	701	Sololá	3	Barraneche	4	Abril	2023-10-04T00:00:00	2024-11-06T12:00:00	5	Humedad	36
19109	7	Sololá	701	Sololá	3	Barraneche	4	Abril	2023-10-04T00:00:00	2024-11-06T12:00:00	6	Velocidad del viento	17.7
19110	7	Sololá	701	Sololá	3	Barraneche	4	Abril	2023-10-04T00:00:00	2024-11-06T12:00:00	7	Dirección del viento	17.7
19111	7	Sololá	701	Sololá	3	Barraneche	4	Abril	2023-10-04T00:00:00	2024-11-06T12:00:00	1	Precipitación	0
19112	7	Sololá	701	Sololá	3	Barraneche	4	Abril	2023-10-04T00:00:00	2024-11-06T12:00:00	8	Radiación solar	1053
19113	7	Sololá	701	Sololá	3	Barraneche	4	Abril	2023-10-04T00:00:00	2024-11-06T13:00:00	2	Temperatura media	19.3
19114	7	Sololá	701	Sololá	3	Barraneche	4	Abril	2023-10-04T00:00:00	2024-11-06T13:00:00	4	Temperatura máxima	19.5
19115	7	Sololá	701	Sololá	3	Barraneche	4	Abril	2023-10-04T00:00:00	2024-11-06T13:00:00	3	Temperatura mínima	18.3
19116	7	Sololá	701	Sololá	3	Barraneche	4	Abril	2023-10-04T00:00:00	2024-11-06T13:00:00	5	Humedad	34
19117	7	Sololá	701	Sololá	3	Barraneche	4	Abril	2023-10-04T00:00:00	2024-11-06T13:00:00	6	Velocidad del viento	17.7
19118	7	Sololá	701	Sololá	3	Barraneche	4	Abril	2023-10-04T00:00:00	2024-11-06T13:00:00	7	Dirección del viento	17.7
19119	7	Sololá	701	Sololá	3	Barraneche	4	Abril	2023-10-04T00:00:00	2024-11-06T13:00:00	1	Precipitación	0
19120	7	Sololá	701	Sololá	3	Barraneche	4	Abril	2023-10-04T00:00:00	2024-11-06T13:00:00	8	Radiación solar	1047
19121	7	Sololá	701	Sololá	3	Barraneche	4	Abril	2023-10-04T00:00:00	2024-11-06T14:00:00	2	Temperatura media	18.8
19122	7	Sololá	701	Sololá	3	Barraneche	4	Abril	2023-10-04T00:00:00	2024-11-06T14:00:00	4	Temperatura máxima	19.6
19123	7	Sololá	701	Sololá	3	Barraneche	4	Abril	2023-10-04T00:00:00	2024-11-06T14:00:00	3	Temperatura mínima	18.8
19124	7	Sololá	701	Sololá	3	Barraneche	4	Abril	2023-10-04T00:00:00	2024-11-06T14:00:00	5	Humedad	35
19125	7	Sololá	701	Sololá	3	Barraneche	4	Abril	2023-10-04T00:00:00	2024-11-06T14:00:00	6	Velocidad del viento	16.1
19126	7	Sololá	701	Sololá	3	Barraneche	4	Abril	2023-10-04T00:00:00	2024-11-06T14:00:00	7	Dirección del viento	16.09
19127	7	Sololá	701	Sololá	3	Barraneche	4	Abril	2023-10-04T00:00:00	2024-11-06T14:00:00	1	Precipitación	0
19128	7	Sololá	701	Sololá	3	Barraneche	4	Abril	2023-10-04T00:00:00	2024-11-06T14:00:00	8	Radiación solar	975
19129	7	Sololá	701	Sololá	3	Barraneche	4	Abril	2023-10-04T00:00:00	2024-11-06T15:00:00	2	Temperatura media	19.5
19130	7	Sololá	701	Sololá	3	Barraneche	4	Abril	2023-10-04T00:00:00	2024-11-06T15:00:00	4	Temperatura máxima	19.9
19131	7	Sololá	701	Sololá	3	Barraneche	4	Abril	2023-10-04T00:00:00	2024-11-06T15:00:00	3	Temperatura mínima	18.7
19132	7	Sololá	701	Sololá	3	Barraneche	4	Abril	2023-10-04T00:00:00	2024-11-06T15:00:00	5	Humedad	32
19133	7	Sololá	701	Sololá	3	Barraneche	4	Abril	2023-10-04T00:00:00	2024-11-06T15:00:00	6	Velocidad del viento	11.3
19134	7	Sololá	701	Sololá	3	Barraneche	4	Abril	2023-10-04T00:00:00	2024-11-06T15:00:00	7	Dirección del viento	11.27
19135	7	Sololá	701	Sololá	3	Barraneche	4	Abril	2023-10-04T00:00:00	2024-11-06T15:00:00	1	Precipitación	0
19136	7	Sololá	701	Sololá	3	Barraneche	4	Abril	2023-10-04T00:00:00	2024-11-06T15:00:00	8	Radiación solar	729
19137	7	Sololá	701	Sololá	3	Barraneche	4	Abril	2023-10-04T00:00:00	2024-11-06T16:00:00	2	Temperatura media	18.1
19138	7	Sololá	701	Sololá	3	Barraneche	4	Abril	2023-10-04T00:00:00	2024-11-06T16:00:00	4	Temperatura máxima	19.6
19139	7	Sololá	701	Sololá	3	Barraneche	4	Abril	2023-10-04T00:00:00	2024-11-06T16:00:00	3	Temperatura mínima	17.8
19140	7	Sololá	701	Sololá	3	Barraneche	4	Abril	2023-10-04T00:00:00	2024-11-06T16:00:00	5	Humedad	36
19141	7	Sololá	701	Sololá	3	Barraneche	4	Abril	2023-10-04T00:00:00	2024-11-06T16:00:00	6	Velocidad del viento	12.9
19142	7	Sololá	701	Sololá	3	Barraneche	4	Abril	2023-10-04T00:00:00	2024-11-06T16:00:00	7	Dirección del viento	12.87
19143	7	Sololá	701	Sololá	3	Barraneche	4	Abril	2023-10-04T00:00:00	2024-11-06T16:00:00	1	Precipitación	0
19144	7	Sololá	701	Sololá	3	Barraneche	4	Abril	2023-10-04T00:00:00	2024-11-06T16:00:00	8	Radiación solar	489
19145	7	Sololá	701	Sololá	3	Barraneche	4	Abril	2023-10-04T00:00:00	2024-11-06T17:00:00	2	Temperatura media	16.3
19146	7	Sololá	701	Sololá	3	Barraneche	4	Abril	2023-10-04T00:00:00	2024-11-06T17:00:00	4	Temperatura máxima	18.1
19147	7	Sololá	701	Sololá	3	Barraneche	4	Abril	2023-10-04T00:00:00	2024-11-06T17:00:00	3	Temperatura mínima	16.3
19148	7	Sololá	701	Sololá	3	Barraneche	4	Abril	2023-10-04T00:00:00	2024-11-06T17:00:00	5	Humedad	42
19149	7	Sololá	701	Sololá	3	Barraneche	4	Abril	2023-10-04T00:00:00	2024-11-06T17:00:00	6	Velocidad del viento	12.9
19150	7	Sololá	701	Sololá	3	Barraneche	4	Abril	2023-10-04T00:00:00	2024-11-06T17:00:00	7	Dirección del viento	12.87
19151	7	Sololá	701	Sololá	3	Barraneche	4	Abril	2023-10-04T00:00:00	2024-11-06T17:00:00	1	Precipitación	0
19152	7	Sololá	701	Sololá	3	Barraneche	4	Abril	2023-10-04T00:00:00	2024-11-06T17:00:00	8	Radiación solar	334
19153	7	Sololá	701	Sololá	3	Barraneche	4	Abril	2023-10-04T00:00:00	2024-11-06T18:00:00	2	Temperatura media	14.3
19154	7	Sololá	701	Sololá	3	Barraneche	4	Abril	2023-10-04T00:00:00	2024-11-06T18:00:00	4	Temperatura máxima	16.4
19155	7	Sololá	701	Sololá	3	Barraneche	4	Abril	2023-10-04T00:00:00	2024-11-06T18:00:00	3	Temperatura mínima	14.3
19156	7	Sololá	701	Sololá	3	Barraneche	4	Abril	2023-10-04T00:00:00	2024-11-06T18:00:00	5	Humedad	49
19157	7	Sololá	701	Sololá	3	Barraneche	4	Abril	2023-10-04T00:00:00	2024-11-06T18:00:00	6	Velocidad del viento	11.3
19158	7	Sololá	701	Sololá	3	Barraneche	4	Abril	2023-10-04T00:00:00	2024-11-06T18:00:00	7	Dirección del viento	11.27
19159	7	Sololá	701	Sololá	3	Barraneche	4	Abril	2023-10-04T00:00:00	2024-11-06T18:00:00	1	Precipitación	0
19160	7	Sololá	701	Sololá	3	Barraneche	4	Abril	2023-10-04T00:00:00	2024-11-06T18:00:00	8	Radiación solar	118
19161	7	Sololá	701	Sololá	3	Barraneche	4	Abril	2023-10-04T00:00:00	2024-11-06T19:00:00	2	Temperatura media	12.9
19162	7	Sololá	701	Sololá	3	Barraneche	4	Abril	2023-10-04T00:00:00	2024-11-06T19:00:00	4	Temperatura máxima	14.3
19163	7	Sololá	701	Sololá	3	Barraneche	4	Abril	2023-10-04T00:00:00	2024-11-06T19:00:00	3	Temperatura mínima	12.8
19164	7	Sololá	701	Sololá	3	Barraneche	4	Abril	2023-10-04T00:00:00	2024-11-06T19:00:00	5	Humedad	56
19165	7	Sololá	701	Sololá	3	Barraneche	4	Abril	2023-10-04T00:00:00	2024-11-06T19:00:00	6	Velocidad del viento	11.3
19166	7	Sololá	701	Sololá	3	Barraneche	4	Abril	2023-10-04T00:00:00	2024-11-06T19:00:00	7	Dirección del viento	11.27
19167	7	Sololá	701	Sololá	3	Barraneche	4	Abril	2023-10-04T00:00:00	2024-11-06T19:00:00	1	Precipitación	0
19168	7	Sololá	701	Sololá	3	Barraneche	4	Abril	2023-10-04T00:00:00	2024-11-06T19:00:00	8	Radiación solar	0
19169	7	Sololá	701	Sololá	3	Barraneche	4	Abril	2023-10-04T00:00:00	2024-11-06T20:00:00	2	Temperatura media	12.1
19170	7	Sololá	701	Sololá	3	Barraneche	4	Abril	2023-10-04T00:00:00	2024-11-06T20:00:00	4	Temperatura máxima	12.9
19171	7	Sololá	701	Sololá	3	Barraneche	4	Abril	2023-10-04T00:00:00	2024-11-06T20:00:00	3	Temperatura mínima	12.1
19172	7	Sololá	701	Sololá	3	Barraneche	4	Abril	2023-10-04T00:00:00	2024-11-06T20:00:00	5	Humedad	59
19173	7	Sololá	701	Sololá	3	Barraneche	4	Abril	2023-10-04T00:00:00	2024-11-06T20:00:00	6	Velocidad del viento	17.7
19174	7	Sololá	701	Sololá	3	Barraneche	4	Abril	2023-10-04T00:00:00	2024-11-06T20:00:00	7	Dirección del viento	17.7
19175	7	Sololá	701	Sololá	3	Barraneche	4	Abril	2023-10-04T00:00:00	2024-11-06T20:00:00	1	Precipitación	0
19176	7	Sololá	701	Sololá	3	Barraneche	4	Abril	2023-10-04T00:00:00	2024-11-06T20:00:00	8	Radiación solar	0
19177	7	Sololá	701	Sololá	3	Barraneche	4	Abril	2023-10-04T00:00:00	2024-11-06T21:00:00	2	Temperatura media	11.5
19178	7	Sololá	701	Sololá	3	Barraneche	4	Abril	2023-10-04T00:00:00	2024-11-06T21:00:00	4	Temperatura máxima	12.2
19179	7	Sololá	701	Sololá	3	Barraneche	4	Abril	2023-10-04T00:00:00	2024-11-06T21:00:00	3	Temperatura mínima	11.5
19180	7	Sololá	701	Sololá	3	Barraneche	4	Abril	2023-10-04T00:00:00	2024-11-06T21:00:00	5	Humedad	57
19181	7	Sololá	701	Sololá	3	Barraneche	4	Abril	2023-10-04T00:00:00	2024-11-06T21:00:00	6	Velocidad del viento	22.5
19182	7	Sololá	701	Sololá	3	Barraneche	4	Abril	2023-10-04T00:00:00	2024-11-06T21:00:00	7	Dirección del viento	22.53
19183	7	Sololá	701	Sololá	3	Barraneche	4	Abril	2023-10-04T00:00:00	2024-11-06T21:00:00	1	Precipitación	0
19184	7	Sololá	701	Sololá	3	Barraneche	4	Abril	2023-10-04T00:00:00	2024-11-06T21:00:00	8	Radiación solar	0
19185	7	Sololá	701	Sololá	3	Barraneche	4	Abril	2023-10-04T00:00:00	2024-11-06T22:00:00	2	Temperatura media	11.6
19186	7	Sololá	701	Sololá	3	Barraneche	4	Abril	2023-10-04T00:00:00	2024-11-06T22:00:00	4	Temperatura máxima	11.7
19187	7	Sololá	701	Sololá	3	Barraneche	4	Abril	2023-10-04T00:00:00	2024-11-06T22:00:00	3	Temperatura mínima	11.4
19188	7	Sololá	701	Sololá	3	Barraneche	4	Abril	2023-10-04T00:00:00	2024-11-06T22:00:00	5	Humedad	54
19189	7	Sololá	701	Sololá	3	Barraneche	4	Abril	2023-10-04T00:00:00	2024-11-06T22:00:00	6	Velocidad del viento	24.1
19190	7	Sololá	701	Sololá	3	Barraneche	4	Abril	2023-10-04T00:00:00	2024-11-06T22:00:00	7	Dirección del viento	24.14
19191	7	Sololá	701	Sololá	3	Barraneche	4	Abril	2023-10-04T00:00:00	2024-11-06T22:00:00	1	Precipitación	0
19192	7	Sololá	701	Sololá	3	Barraneche	4	Abril	2023-10-04T00:00:00	2024-11-06T22:00:00	8	Radiación solar	0
19193	7	Sololá	701	Sololá	3	Barraneche	4	Abril	2023-10-04T00:00:00	2024-11-06T23:00:00	2	Temperatura media	11.4
19194	7	Sololá	701	Sololá	3	Barraneche	4	Abril	2023-10-04T00:00:00	2024-11-06T23:00:00	4	Temperatura máxima	11.6
19195	7	Sololá	701	Sololá	3	Barraneche	4	Abril	2023-10-04T00:00:00	2024-11-06T23:00:00	3	Temperatura mínima	11.4
19196	7	Sololá	701	Sololá	3	Barraneche	4	Abril	2023-10-04T00:00:00	2024-11-06T23:00:00	5	Humedad	56
19197	7	Sololá	701	Sololá	3	Barraneche	4	Abril	2023-10-04T00:00:00	2024-11-06T23:00:00	6	Velocidad del viento	29
19198	7	Sololá	701	Sololá	3	Barraneche	4	Abril	2023-10-04T00:00:00	2024-11-06T23:00:00	7	Dirección del viento	28.97
19199	7	Sololá	701	Sololá	3	Barraneche	4	Abril	2023-10-04T00:00:00	2024-11-06T23:00:00	1	Precipitación	0
19200	7	Sololá	701	Sololá	3	Barraneche	4	Abril	2023-10-04T00:00:00	2024-11-06T23:00:00	8	Radiación solar	0
19201	7	Sololá	701	Sololá	3	Barraneche	4	Abril	2023-11-04T00:00:00	2024-11-06T00:00:00	2	Temperatura media	11.5
19202	7	Sololá	701	Sololá	3	Barraneche	4	Abril	2023-11-04T00:00:00	2024-11-06T00:00:00	4	Temperatura máxima	11.6
19203	7	Sololá	701	Sololá	3	Barraneche	4	Abril	2023-11-04T00:00:00	2024-11-06T00:00:00	3	Temperatura mínima	11.4
19204	7	Sololá	701	Sololá	3	Barraneche	4	Abril	2023-11-04T00:00:00	2024-11-06T00:00:00	5	Humedad	53
19205	7	Sololá	701	Sololá	3	Barraneche	4	Abril	2023-11-04T00:00:00	2024-11-06T00:00:00	6	Velocidad del viento	25.7
19206	7	Sololá	701	Sololá	3	Barraneche	4	Abril	2023-11-04T00:00:00	2024-11-06T00:00:00	7	Dirección del viento	25.75
19207	7	Sololá	701	Sololá	3	Barraneche	4	Abril	2023-11-04T00:00:00	2024-11-06T00:00:00	1	Precipitación	0
19208	7	Sololá	701	Sololá	3	Barraneche	4	Abril	2023-11-04T00:00:00	2024-11-06T00:00:00	8	Radiación solar	0
19209	7	Sololá	701	Sololá	3	Barraneche	4	Abril	2023-11-04T00:00:00	2024-11-06T01:00:00	2	Temperatura media	11.6
19210	7	Sololá	701	Sololá	3	Barraneche	4	Abril	2023-11-04T00:00:00	2024-11-06T01:00:00	4	Temperatura máxima	11.7
19211	7	Sololá	701	Sololá	3	Barraneche	4	Abril	2023-11-04T00:00:00	2024-11-06T01:00:00	3	Temperatura mínima	11.3
19212	7	Sololá	701	Sololá	3	Barraneche	4	Abril	2023-11-04T00:00:00	2024-11-06T01:00:00	5	Humedad	53
19213	7	Sololá	701	Sololá	3	Barraneche	4	Abril	2023-11-04T00:00:00	2024-11-06T01:00:00	6	Velocidad del viento	27.4
19214	7	Sololá	701	Sololá	3	Barraneche	4	Abril	2023-11-04T00:00:00	2024-11-06T01:00:00	7	Dirección del viento	27.36
19215	7	Sololá	701	Sololá	3	Barraneche	4	Abril	2023-11-04T00:00:00	2024-11-06T01:00:00	1	Precipitación	0
19216	7	Sololá	701	Sololá	3	Barraneche	4	Abril	2023-11-04T00:00:00	2024-11-06T01:00:00	8	Radiación solar	0
19217	7	Sololá	701	Sololá	3	Barraneche	4	Abril	2023-11-04T00:00:00	2024-11-06T02:00:00	2	Temperatura media	11.2
19218	7	Sololá	701	Sololá	3	Barraneche	4	Abril	2023-11-04T00:00:00	2024-11-06T02:00:00	4	Temperatura máxima	11.7
19219	7	Sololá	701	Sololá	3	Barraneche	4	Abril	2023-11-04T00:00:00	2024-11-06T02:00:00	3	Temperatura mínima	11.2
19220	7	Sololá	701	Sololá	3	Barraneche	4	Abril	2023-11-04T00:00:00	2024-11-06T02:00:00	5	Humedad	57
19221	7	Sololá	701	Sololá	3	Barraneche	4	Abril	2023-11-04T00:00:00	2024-11-06T02:00:00	6	Velocidad del viento	24.1
19222	7	Sololá	701	Sololá	3	Barraneche	4	Abril	2023-11-04T00:00:00	2024-11-06T02:00:00	7	Dirección del viento	24.14
19223	7	Sololá	701	Sololá	3	Barraneche	4	Abril	2023-11-04T00:00:00	2024-11-06T02:00:00	1	Precipitación	0
19224	7	Sololá	701	Sololá	3	Barraneche	4	Abril	2023-11-04T00:00:00	2024-11-06T02:00:00	8	Radiación solar	0
19225	7	Sololá	701	Sololá	3	Barraneche	4	Abril	2023-11-04T00:00:00	2024-11-06T03:00:00	2	Temperatura media	11.5
19226	7	Sololá	701	Sololá	3	Barraneche	4	Abril	2023-11-04T00:00:00	2024-11-06T03:00:00	4	Temperatura máxima	11.5
19227	7	Sololá	701	Sololá	3	Barraneche	4	Abril	2023-11-04T00:00:00	2024-11-06T03:00:00	3	Temperatura mínima	11
19228	7	Sololá	701	Sololá	3	Barraneche	4	Abril	2023-11-04T00:00:00	2024-11-06T03:00:00	5	Humedad	54
19229	7	Sololá	701	Sololá	3	Barraneche	4	Abril	2023-11-04T00:00:00	2024-11-06T03:00:00	6	Velocidad del viento	24.1
19230	7	Sololá	701	Sololá	3	Barraneche	4	Abril	2023-11-04T00:00:00	2024-11-06T03:00:00	7	Dirección del viento	24.14
19231	7	Sololá	701	Sololá	3	Barraneche	4	Abril	2023-11-04T00:00:00	2024-11-06T03:00:00	1	Precipitación	0
19232	7	Sololá	701	Sololá	3	Barraneche	4	Abril	2023-11-04T00:00:00	2024-11-06T03:00:00	8	Radiación solar	0
19233	7	Sololá	701	Sololá	3	Barraneche	4	Abril	2023-11-04T00:00:00	2024-11-06T04:00:00	2	Temperatura media	11.7
19234	7	Sololá	701	Sololá	3	Barraneche	4	Abril	2023-11-04T00:00:00	2024-11-06T04:00:00	4	Temperatura máxima	11.8
19235	7	Sololá	701	Sololá	3	Barraneche	4	Abril	2023-11-04T00:00:00	2024-11-06T04:00:00	3	Temperatura mínima	11.4
19236	7	Sololá	701	Sololá	3	Barraneche	4	Abril	2023-11-04T00:00:00	2024-11-06T04:00:00	5	Humedad	53
19237	7	Sololá	701	Sololá	3	Barraneche	4	Abril	2023-11-04T00:00:00	2024-11-06T04:00:00	6	Velocidad del viento	16.1
19238	7	Sololá	701	Sololá	3	Barraneche	4	Abril	2023-11-04T00:00:00	2024-11-06T04:00:00	7	Dirección del viento	16.09
19239	7	Sololá	701	Sololá	3	Barraneche	4	Abril	2023-11-04T00:00:00	2024-11-06T04:00:00	1	Precipitación	0
19240	7	Sololá	701	Sololá	3	Barraneche	4	Abril	2023-11-04T00:00:00	2024-11-06T04:00:00	8	Radiación solar	0
19241	7	Sololá	701	Sololá	3	Barraneche	4	Abril	2023-11-04T00:00:00	2024-11-06T05:00:00	2	Temperatura media	11.2
19242	7	Sololá	701	Sololá	3	Barraneche	4	Abril	2023-11-04T00:00:00	2024-11-06T05:00:00	4	Temperatura máxima	11.8
19243	7	Sololá	701	Sololá	3	Barraneche	4	Abril	2023-11-04T00:00:00	2024-11-06T05:00:00	3	Temperatura mínima	11.2
19244	7	Sololá	701	Sololá	3	Barraneche	4	Abril	2023-11-04T00:00:00	2024-11-06T05:00:00	5	Humedad	58
19245	7	Sololá	701	Sololá	3	Barraneche	4	Abril	2023-11-04T00:00:00	2024-11-06T05:00:00	6	Velocidad del viento	14.5
19246	7	Sololá	701	Sololá	3	Barraneche	4	Abril	2023-11-04T00:00:00	2024-11-06T05:00:00	7	Dirección del viento	14.48
19247	7	Sololá	701	Sololá	3	Barraneche	4	Abril	2023-11-04T00:00:00	2024-11-06T05:00:00	1	Precipitación	0
19248	7	Sololá	701	Sololá	3	Barraneche	4	Abril	2023-11-04T00:00:00	2024-11-06T05:00:00	8	Radiación solar	0
19249	7	Sololá	701	Sololá	3	Barraneche	4	Abril	2023-11-04T00:00:00	2024-11-06T06:00:00	2	Temperatura media	10.9
19250	7	Sololá	701	Sololá	3	Barraneche	4	Abril	2023-11-04T00:00:00	2024-11-06T06:00:00	4	Temperatura máxima	11.2
19251	7	Sololá	701	Sololá	3	Barraneche	4	Abril	2023-11-04T00:00:00	2024-11-06T06:00:00	3	Temperatura mínima	10.9
19252	7	Sololá	701	Sololá	3	Barraneche	4	Abril	2023-11-04T00:00:00	2024-11-06T06:00:00	5	Humedad	59
19253	7	Sololá	701	Sololá	3	Barraneche	4	Abril	2023-11-04T00:00:00	2024-11-06T06:00:00	6	Velocidad del viento	14.5
19254	7	Sololá	701	Sololá	3	Barraneche	4	Abril	2023-11-04T00:00:00	2024-11-06T06:00:00	7	Dirección del viento	14.48
19255	7	Sololá	701	Sololá	3	Barraneche	4	Abril	2023-11-04T00:00:00	2024-11-06T06:00:00	1	Precipitación	0
19256	7	Sololá	701	Sololá	3	Barraneche	4	Abril	2023-11-04T00:00:00	2024-11-06T06:00:00	8	Radiación solar	1
19257	7	Sololá	701	Sololá	3	Barraneche	4	Abril	2023-11-04T00:00:00	2024-11-06T07:00:00	2	Temperatura media	11.8
19258	7	Sololá	701	Sololá	3	Barraneche	4	Abril	2023-11-04T00:00:00	2024-11-06T07:00:00	4	Temperatura máxima	11.8
19259	7	Sololá	701	Sololá	3	Barraneche	4	Abril	2023-11-04T00:00:00	2024-11-06T07:00:00	3	Temperatura mínima	10.8
19260	7	Sololá	701	Sololá	3	Barraneche	4	Abril	2023-11-04T00:00:00	2024-11-06T07:00:00	5	Humedad	57
19261	7	Sololá	701	Sololá	3	Barraneche	4	Abril	2023-11-04T00:00:00	2024-11-06T07:00:00	6	Velocidad del viento	12.9
19262	7	Sololá	701	Sololá	3	Barraneche	4	Abril	2023-11-04T00:00:00	2024-11-06T07:00:00	7	Dirección del viento	12.87
19263	7	Sololá	701	Sololá	3	Barraneche	4	Abril	2023-11-04T00:00:00	2024-11-06T07:00:00	1	Precipitación	0
19264	7	Sololá	701	Sololá	3	Barraneche	4	Abril	2023-11-04T00:00:00	2024-11-06T07:00:00	8	Radiación solar	72
19265	7	Sololá	701	Sololá	3	Barraneche	4	Abril	2023-11-04T00:00:00	2024-11-06T08:00:00	2	Temperatura media	12.9
19266	7	Sololá	701	Sololá	3	Barraneche	4	Abril	2023-11-04T00:00:00	2024-11-06T08:00:00	4	Temperatura máxima	13
19267	7	Sololá	701	Sololá	3	Barraneche	4	Abril	2023-11-04T00:00:00	2024-11-06T08:00:00	3	Temperatura mínima	11.7
19268	7	Sololá	701	Sololá	3	Barraneche	4	Abril	2023-11-04T00:00:00	2024-11-06T08:00:00	5	Humedad	52
19269	7	Sololá	701	Sololá	3	Barraneche	4	Abril	2023-11-04T00:00:00	2024-11-06T08:00:00	6	Velocidad del viento	19.3
19270	7	Sololá	701	Sololá	3	Barraneche	4	Abril	2023-11-04T00:00:00	2024-11-06T08:00:00	7	Dirección del viento	19.31
19271	7	Sololá	701	Sololá	3	Barraneche	4	Abril	2023-11-04T00:00:00	2024-11-06T08:00:00	1	Precipitación	0
19272	7	Sololá	701	Sololá	3	Barraneche	4	Abril	2023-11-04T00:00:00	2024-11-06T08:00:00	8	Radiación solar	359
19273	7	Sololá	701	Sololá	3	Barraneche	4	Abril	2023-11-04T00:00:00	2024-11-06T09:00:00	2	Temperatura media	15.3
19274	7	Sololá	701	Sololá	3	Barraneche	4	Abril	2023-11-04T00:00:00	2024-11-06T09:00:00	4	Temperatura máxima	15.4
19275	7	Sololá	701	Sololá	3	Barraneche	4	Abril	2023-11-04T00:00:00	2024-11-06T09:00:00	3	Temperatura mínima	12.9
19276	7	Sololá	701	Sololá	3	Barraneche	4	Abril	2023-11-04T00:00:00	2024-11-06T09:00:00	5	Humedad	49
19277	7	Sololá	701	Sololá	3	Barraneche	4	Abril	2023-11-04T00:00:00	2024-11-06T09:00:00	6	Velocidad del viento	22.5
19278	7	Sololá	701	Sololá	3	Barraneche	4	Abril	2023-11-04T00:00:00	2024-11-06T09:00:00	7	Dirección del viento	22.53
19279	7	Sololá	701	Sololá	3	Barraneche	4	Abril	2023-11-04T00:00:00	2024-11-06T09:00:00	1	Precipitación	0
19280	7	Sololá	701	Sololá	3	Barraneche	4	Abril	2023-11-04T00:00:00	2024-11-06T09:00:00	8	Radiación solar	607
19281	7	Sololá	701	Sololá	3	Barraneche	4	Abril	2023-11-04T00:00:00	2024-11-06T10:00:00	2	Temperatura media	17.3
19282	7	Sololá	701	Sololá	3	Barraneche	4	Abril	2023-11-04T00:00:00	2024-11-06T10:00:00	4	Temperatura máxima	17.4
19283	7	Sololá	701	Sololá	3	Barraneche	4	Abril	2023-11-04T00:00:00	2024-11-06T10:00:00	3	Temperatura mínima	15.3
19284	7	Sololá	701	Sololá	3	Barraneche	4	Abril	2023-11-04T00:00:00	2024-11-06T10:00:00	5	Humedad	40
19285	7	Sololá	701	Sololá	3	Barraneche	4	Abril	2023-11-04T00:00:00	2024-11-06T10:00:00	6	Velocidad del viento	19.3
19286	7	Sololá	701	Sololá	3	Barraneche	4	Abril	2023-11-04T00:00:00	2024-11-06T10:00:00	7	Dirección del viento	19.31
19287	7	Sololá	701	Sololá	3	Barraneche	4	Abril	2023-11-04T00:00:00	2024-11-06T10:00:00	1	Precipitación	0
19288	7	Sololá	701	Sololá	3	Barraneche	4	Abril	2023-11-04T00:00:00	2024-11-06T10:00:00	8	Radiación solar	821
19289	7	Sololá	701	Sololá	3	Barraneche	4	Abril	2023-11-04T00:00:00	2024-11-06T11:00:00	2	Temperatura media	18.3
19290	7	Sololá	701	Sololá	3	Barraneche	4	Abril	2023-11-04T00:00:00	2024-11-06T11:00:00	4	Temperatura máxima	19
19291	7	Sololá	701	Sololá	3	Barraneche	4	Abril	2023-11-04T00:00:00	2024-11-06T11:00:00	3	Temperatura mínima	17.3
19292	7	Sololá	701	Sololá	3	Barraneche	4	Abril	2023-11-04T00:00:00	2024-11-06T11:00:00	5	Humedad	37
19293	7	Sololá	701	Sololá	3	Barraneche	4	Abril	2023-11-04T00:00:00	2024-11-06T11:00:00	6	Velocidad del viento	17.7
19294	7	Sololá	701	Sololá	3	Barraneche	4	Abril	2023-11-04T00:00:00	2024-11-06T11:00:00	7	Dirección del viento	17.7
19295	7	Sololá	701	Sololá	3	Barraneche	4	Abril	2023-11-04T00:00:00	2024-11-06T11:00:00	1	Precipitación	0
19296	7	Sololá	701	Sololá	3	Barraneche	4	Abril	2023-11-04T00:00:00	2024-11-06T11:00:00	8	Radiación solar	970
19297	7	Sololá	701	Sololá	3	Barraneche	4	Abril	2023-11-04T00:00:00	2024-11-06T12:00:00	2	Temperatura media	18.8
19298	7	Sololá	701	Sololá	3	Barraneche	4	Abril	2023-11-04T00:00:00	2024-11-06T12:00:00	4	Temperatura máxima	18.9
19299	7	Sololá	701	Sololá	3	Barraneche	4	Abril	2023-11-04T00:00:00	2024-11-06T12:00:00	3	Temperatura mínima	17.9
19300	7	Sololá	701	Sololá	3	Barraneche	4	Abril	2023-11-04T00:00:00	2024-11-06T12:00:00	5	Humedad	34
19301	7	Sololá	701	Sololá	3	Barraneche	4	Abril	2023-11-04T00:00:00	2024-11-06T12:00:00	6	Velocidad del viento	19.3
19302	7	Sololá	701	Sololá	3	Barraneche	4	Abril	2023-11-04T00:00:00	2024-11-06T12:00:00	7	Dirección del viento	19.31
19303	7	Sololá	701	Sololá	3	Barraneche	4	Abril	2023-11-04T00:00:00	2024-11-06T12:00:00	1	Precipitación	0
19304	7	Sololá	701	Sololá	3	Barraneche	4	Abril	2023-11-04T00:00:00	2024-11-06T12:00:00	8	Radiación solar	1044
19305	7	Sololá	701	Sololá	3	Barraneche	4	Abril	2023-11-04T00:00:00	2024-11-06T13:00:00	2	Temperatura media	19.8
19306	7	Sololá	701	Sololá	3	Barraneche	4	Abril	2023-11-04T00:00:00	2024-11-06T13:00:00	4	Temperatura máxima	19.8
19307	7	Sololá	701	Sololá	3	Barraneche	4	Abril	2023-11-04T00:00:00	2024-11-06T13:00:00	3	Temperatura mínima	18.7
19308	7	Sololá	701	Sololá	3	Barraneche	4	Abril	2023-11-04T00:00:00	2024-11-06T13:00:00	5	Humedad	35
19309	7	Sololá	701	Sololá	3	Barraneche	4	Abril	2023-11-04T00:00:00	2024-11-06T13:00:00	6	Velocidad del viento	19.3
19310	7	Sololá	701	Sololá	3	Barraneche	4	Abril	2023-11-04T00:00:00	2024-11-06T13:00:00	7	Dirección del viento	19.31
19311	7	Sololá	701	Sololá	3	Barraneche	4	Abril	2023-11-04T00:00:00	2024-11-06T13:00:00	1	Precipitación	0
19312	7	Sololá	701	Sololá	3	Barraneche	4	Abril	2023-11-04T00:00:00	2024-11-06T13:00:00	8	Radiación solar	1057
19313	7	Sololá	701	Sololá	3	Barraneche	4	Abril	2023-11-04T00:00:00	2024-11-06T14:00:00	2	Temperatura media	20.2
19314	7	Sololá	701	Sololá	3	Barraneche	4	Abril	2023-11-04T00:00:00	2024-11-06T14:00:00	4	Temperatura máxima	20.8
19315	7	Sololá	701	Sololá	3	Barraneche	4	Abril	2023-11-04T00:00:00	2024-11-06T14:00:00	3	Temperatura mínima	19.8
19316	7	Sololá	701	Sololá	3	Barraneche	4	Abril	2023-11-04T00:00:00	2024-11-06T14:00:00	5	Humedad	34
19317	7	Sololá	701	Sololá	3	Barraneche	4	Abril	2023-11-04T00:00:00	2024-11-06T14:00:00	6	Velocidad del viento	14.5
19318	7	Sololá	701	Sololá	3	Barraneche	4	Abril	2023-11-04T00:00:00	2024-11-06T14:00:00	7	Dirección del viento	14.48
19319	7	Sololá	701	Sololá	3	Barraneche	4	Abril	2023-11-04T00:00:00	2024-11-06T14:00:00	1	Precipitación	0
19320	7	Sololá	701	Sololá	3	Barraneche	4	Abril	2023-11-04T00:00:00	2024-11-06T14:00:00	8	Radiación solar	1024
19321	7	Sololá	701	Sololá	3	Barraneche	4	Abril	2023-11-04T00:00:00	2024-11-06T15:00:00	2	Temperatura media	19.4
19322	7	Sololá	701	Sololá	3	Barraneche	4	Abril	2023-11-04T00:00:00	2024-11-06T15:00:00	4	Temperatura máxima	20.4
19323	7	Sololá	701	Sololá	3	Barraneche	4	Abril	2023-11-04T00:00:00	2024-11-06T15:00:00	3	Temperatura mínima	19.4
19324	7	Sololá	701	Sololá	3	Barraneche	4	Abril	2023-11-04T00:00:00	2024-11-06T15:00:00	5	Humedad	36
19325	7	Sololá	701	Sololá	3	Barraneche	4	Abril	2023-11-04T00:00:00	2024-11-06T15:00:00	6	Velocidad del viento	12.9
19326	7	Sololá	701	Sololá	3	Barraneche	4	Abril	2023-11-04T00:00:00	2024-11-06T15:00:00	7	Dirección del viento	12.87
19327	7	Sololá	701	Sololá	3	Barraneche	4	Abril	2023-11-04T00:00:00	2024-11-06T15:00:00	1	Precipitación	0
19328	7	Sololá	701	Sololá	3	Barraneche	4	Abril	2023-11-04T00:00:00	2024-11-06T15:00:00	8	Radiación solar	596
19329	7	Sololá	701	Sololá	3	Barraneche	4	Abril	2023-11-04T00:00:00	2024-11-06T16:00:00	2	Temperatura media	18.9
19330	7	Sololá	701	Sololá	3	Barraneche	4	Abril	2023-11-04T00:00:00	2024-11-06T16:00:00	4	Temperatura máxima	19.7
19331	7	Sololá	701	Sololá	3	Barraneche	4	Abril	2023-11-04T00:00:00	2024-11-06T16:00:00	3	Temperatura mínima	18.9
19332	7	Sololá	701	Sololá	3	Barraneche	4	Abril	2023-11-04T00:00:00	2024-11-06T16:00:00	5	Humedad	37
19333	7	Sololá	701	Sololá	3	Barraneche	4	Abril	2023-11-04T00:00:00	2024-11-06T16:00:00	6	Velocidad del viento	14.5
19334	7	Sololá	701	Sololá	3	Barraneche	4	Abril	2023-11-04T00:00:00	2024-11-06T16:00:00	7	Dirección del viento	14.48
19335	7	Sololá	701	Sololá	3	Barraneche	4	Abril	2023-11-04T00:00:00	2024-11-06T16:00:00	1	Precipitación	0
19336	7	Sololá	701	Sololá	3	Barraneche	4	Abril	2023-11-04T00:00:00	2024-11-06T16:00:00	8	Radiación solar	411
19337	7	Sololá	701	Sololá	3	Barraneche	4	Abril	2023-11-04T00:00:00	2024-11-06T17:00:00	2	Temperatura media	18.3
19338	7	Sololá	701	Sololá	3	Barraneche	4	Abril	2023-11-04T00:00:00	2024-11-06T17:00:00	4	Temperatura máxima	19.2
19339	7	Sololá	701	Sololá	3	Barraneche	4	Abril	2023-11-04T00:00:00	2024-11-06T17:00:00	3	Temperatura mínima	18.3
19340	7	Sololá	701	Sololá	3	Barraneche	4	Abril	2023-11-04T00:00:00	2024-11-06T17:00:00	5	Humedad	52
19341	7	Sololá	701	Sololá	3	Barraneche	4	Abril	2023-11-04T00:00:00	2024-11-06T17:00:00	6	Velocidad del viento	12.9
19342	7	Sololá	701	Sololá	3	Barraneche	4	Abril	2023-11-04T00:00:00	2024-11-06T17:00:00	7	Dirección del viento	12.87
19343	7	Sololá	701	Sololá	3	Barraneche	4	Abril	2023-11-04T00:00:00	2024-11-06T17:00:00	1	Precipitación	0
19344	7	Sololá	701	Sololá	3	Barraneche	4	Abril	2023-11-04T00:00:00	2024-11-06T17:00:00	8	Radiación solar	287
19345	7	Sololá	701	Sololá	3	Barraneche	4	Abril	2023-11-04T00:00:00	2024-11-06T18:00:00	2	Temperatura media	16.5
19346	7	Sololá	701	Sololá	3	Barraneche	4	Abril	2023-11-04T00:00:00	2024-11-06T18:00:00	4	Temperatura máxima	18.3
19347	7	Sololá	701	Sololá	3	Barraneche	4	Abril	2023-11-04T00:00:00	2024-11-06T18:00:00	3	Temperatura mínima	16.3
19348	7	Sololá	701	Sololá	3	Barraneche	4	Abril	2023-11-04T00:00:00	2024-11-06T18:00:00	5	Humedad	47
19349	7	Sololá	701	Sololá	3	Barraneche	4	Abril	2023-11-04T00:00:00	2024-11-06T18:00:00	6	Velocidad del viento	11.3
19350	7	Sololá	701	Sololá	3	Barraneche	4	Abril	2023-11-04T00:00:00	2024-11-06T18:00:00	7	Dirección del viento	11.27
19351	7	Sololá	701	Sololá	3	Barraneche	4	Abril	2023-11-04T00:00:00	2024-11-06T18:00:00	1	Precipitación	0
19352	7	Sololá	701	Sololá	3	Barraneche	4	Abril	2023-11-04T00:00:00	2024-11-06T18:00:00	8	Radiación solar	69
19353	7	Sololá	701	Sololá	3	Barraneche	4	Abril	2023-11-04T00:00:00	2024-11-06T19:00:00	2	Temperatura media	15
19354	7	Sololá	701	Sololá	3	Barraneche	4	Abril	2023-11-04T00:00:00	2024-11-06T19:00:00	4	Temperatura máxima	16.5
19355	7	Sololá	701	Sololá	3	Barraneche	4	Abril	2023-11-04T00:00:00	2024-11-06T19:00:00	3	Temperatura mínima	15
19356	7	Sololá	701	Sololá	3	Barraneche	4	Abril	2023-11-04T00:00:00	2024-11-06T19:00:00	5	Humedad	52
19357	7	Sololá	701	Sololá	3	Barraneche	4	Abril	2023-11-04T00:00:00	2024-11-06T19:00:00	6	Velocidad del viento	9.7
19358	7	Sololá	701	Sololá	3	Barraneche	4	Abril	2023-11-04T00:00:00	2024-11-06T19:00:00	7	Dirección del viento	9.66
19359	7	Sololá	701	Sololá	3	Barraneche	4	Abril	2023-11-04T00:00:00	2024-11-06T19:00:00	1	Precipitación	0
19360	7	Sololá	701	Sololá	3	Barraneche	4	Abril	2023-11-04T00:00:00	2024-11-06T19:00:00	8	Radiación solar	0
19361	7	Sololá	701	Sololá	3	Barraneche	4	Abril	2023-11-04T00:00:00	2024-11-06T20:00:00	2	Temperatura media	14
19362	7	Sololá	701	Sololá	3	Barraneche	4	Abril	2023-11-04T00:00:00	2024-11-06T20:00:00	4	Temperatura máxima	15
19363	7	Sololá	701	Sololá	3	Barraneche	4	Abril	2023-11-04T00:00:00	2024-11-06T20:00:00	3	Temperatura mínima	14
19364	7	Sololá	701	Sololá	3	Barraneche	4	Abril	2023-11-04T00:00:00	2024-11-06T20:00:00	5	Humedad	58
19365	7	Sololá	701	Sololá	3	Barraneche	4	Abril	2023-11-04T00:00:00	2024-11-06T20:00:00	6	Velocidad del viento	8
19366	7	Sololá	701	Sololá	3	Barraneche	4	Abril	2023-11-04T00:00:00	2024-11-06T20:00:00	7	Dirección del viento	8.05
19367	7	Sololá	701	Sololá	3	Barraneche	4	Abril	2023-11-04T00:00:00	2024-11-06T20:00:00	1	Precipitación	0
19368	7	Sololá	701	Sololá	3	Barraneche	4	Abril	2023-11-04T00:00:00	2024-11-06T20:00:00	8	Radiación solar	0
19369	7	Sololá	701	Sololá	3	Barraneche	4	Abril	2023-11-04T00:00:00	2024-11-06T21:00:00	2	Temperatura media	13.1
19370	7	Sololá	701	Sololá	3	Barraneche	4	Abril	2023-11-04T00:00:00	2024-11-06T21:00:00	4	Temperatura máxima	14
19371	7	Sololá	701	Sololá	3	Barraneche	4	Abril	2023-11-04T00:00:00	2024-11-06T21:00:00	3	Temperatura mínima	13.1
19372	7	Sololá	701	Sololá	3	Barraneche	4	Abril	2023-11-04T00:00:00	2024-11-06T21:00:00	5	Humedad	59
19373	7	Sololá	701	Sololá	3	Barraneche	4	Abril	2023-11-04T00:00:00	2024-11-06T21:00:00	6	Velocidad del viento	9.7
19374	7	Sololá	701	Sololá	3	Barraneche	4	Abril	2023-11-04T00:00:00	2024-11-06T21:00:00	7	Dirección del viento	9.66
19375	7	Sololá	701	Sololá	3	Barraneche	4	Abril	2023-11-04T00:00:00	2024-11-06T21:00:00	1	Precipitación	0
19376	7	Sololá	701	Sololá	3	Barraneche	4	Abril	2023-11-04T00:00:00	2024-11-06T21:00:00	8	Radiación solar	0
19377	7	Sololá	701	Sololá	3	Barraneche	4	Abril	2023-11-04T00:00:00	2024-11-06T22:00:00	2	Temperatura media	12.6
19378	7	Sololá	701	Sololá	3	Barraneche	4	Abril	2023-11-04T00:00:00	2024-11-06T22:00:00	4	Temperatura máxima	13.1
19379	7	Sololá	701	Sololá	3	Barraneche	4	Abril	2023-11-04T00:00:00	2024-11-06T22:00:00	3	Temperatura mínima	12.5
19380	7	Sololá	701	Sololá	3	Barraneche	4	Abril	2023-11-04T00:00:00	2024-11-06T22:00:00	5	Humedad	53
19381	7	Sololá	701	Sololá	3	Barraneche	4	Abril	2023-11-04T00:00:00	2024-11-06T22:00:00	6	Velocidad del viento	11.3
19382	7	Sololá	701	Sololá	3	Barraneche	4	Abril	2023-11-04T00:00:00	2024-11-06T22:00:00	7	Dirección del viento	11.27
19383	7	Sololá	701	Sololá	3	Barraneche	4	Abril	2023-11-04T00:00:00	2024-11-06T22:00:00	1	Precipitación	0
19384	7	Sololá	701	Sololá	3	Barraneche	4	Abril	2023-11-04T00:00:00	2024-11-06T22:00:00	8	Radiación solar	0
19385	7	Sololá	701	Sololá	3	Barraneche	4	Abril	2023-11-04T00:00:00	2024-11-06T23:00:00	2	Temperatura media	12.7
19386	7	Sololá	701	Sololá	3	Barraneche	4	Abril	2023-11-04T00:00:00	2024-11-06T23:00:00	4	Temperatura máxima	12.7
19387	7	Sololá	701	Sololá	3	Barraneche	4	Abril	2023-11-04T00:00:00	2024-11-06T23:00:00	3	Temperatura mínima	12.4
19388	7	Sololá	701	Sololá	3	Barraneche	4	Abril	2023-11-04T00:00:00	2024-11-06T23:00:00	5	Humedad	51
19389	7	Sololá	701	Sololá	3	Barraneche	4	Abril	2023-11-04T00:00:00	2024-11-06T23:00:00	6	Velocidad del viento	9.7
19390	7	Sololá	701	Sololá	3	Barraneche	4	Abril	2023-11-04T00:00:00	2024-11-06T23:00:00	7	Dirección del viento	9.66
19391	7	Sololá	701	Sololá	3	Barraneche	4	Abril	2023-11-04T00:00:00	2024-11-06T23:00:00	1	Precipitación	0
19392	7	Sololá	701	Sololá	3	Barraneche	4	Abril	2023-11-04T00:00:00	2024-11-06T23:00:00	8	Radiación solar	0
19393	7	Sololá	701	Sololá	3	Barraneche	4	Abril	2023-12-04T00:00:00	2024-11-06T00:00:00	2	Temperatura media	11.9
19394	7	Sololá	701	Sololá	3	Barraneche	4	Abril	2023-12-04T00:00:00	2024-11-06T00:00:00	4	Temperatura máxima	12.7
19395	7	Sololá	701	Sololá	3	Barraneche	4	Abril	2023-12-04T00:00:00	2024-11-06T00:00:00	3	Temperatura mínima	11.9
19396	7	Sololá	701	Sololá	3	Barraneche	4	Abril	2023-12-04T00:00:00	2024-11-06T00:00:00	5	Humedad	51
19397	7	Sololá	701	Sololá	3	Barraneche	4	Abril	2023-12-04T00:00:00	2024-11-06T00:00:00	6	Velocidad del viento	6.4
19398	7	Sololá	701	Sololá	3	Barraneche	4	Abril	2023-12-04T00:00:00	2024-11-06T00:00:00	7	Dirección del viento	6.44
19399	7	Sololá	701	Sololá	3	Barraneche	4	Abril	2023-12-04T00:00:00	2024-11-06T00:00:00	1	Precipitación	0
19400	7	Sololá	701	Sololá	3	Barraneche	4	Abril	2023-12-04T00:00:00	2024-11-06T00:00:00	8	Radiación solar	0
19401	7	Sololá	701	Sololá	3	Barraneche	4	Abril	2023-12-04T00:00:00	2024-11-06T01:00:00	2	Temperatura media	11.8
19402	7	Sololá	701	Sololá	3	Barraneche	4	Abril	2023-12-04T00:00:00	2024-11-06T01:00:00	4	Temperatura máxima	12.1
19403	7	Sololá	701	Sololá	3	Barraneche	4	Abril	2023-12-04T00:00:00	2024-11-06T01:00:00	3	Temperatura mínima	11.3
19404	7	Sololá	701	Sololá	3	Barraneche	4	Abril	2023-12-04T00:00:00	2024-11-06T01:00:00	5	Humedad	52
19405	7	Sololá	701	Sololá	3	Barraneche	4	Abril	2023-12-04T00:00:00	2024-11-06T01:00:00	6	Velocidad del viento	3.2
19406	7	Sololá	701	Sololá	3	Barraneche	4	Abril	2023-12-04T00:00:00	2024-11-06T01:00:00	7	Dirección del viento	3.22
19407	7	Sololá	701	Sololá	3	Barraneche	4	Abril	2023-12-04T00:00:00	2024-11-06T01:00:00	1	Precipitación	0
19408	7	Sololá	701	Sololá	3	Barraneche	4	Abril	2023-12-04T00:00:00	2024-11-06T01:00:00	8	Radiación solar	0
19409	7	Sololá	701	Sololá	3	Barraneche	4	Abril	2023-12-04T00:00:00	2024-11-06T02:00:00	2	Temperatura media	9.9
19410	7	Sololá	701	Sololá	3	Barraneche	4	Abril	2023-12-04T00:00:00	2024-11-06T02:00:00	4	Temperatura máxima	11.9
19411	7	Sololá	701	Sololá	3	Barraneche	4	Abril	2023-12-04T00:00:00	2024-11-06T02:00:00	3	Temperatura mínima	9.7
19412	7	Sololá	701	Sololá	3	Barraneche	4	Abril	2023-12-04T00:00:00	2024-11-06T02:00:00	5	Humedad	56
19413	7	Sololá	701	Sololá	3	Barraneche	4	Abril	2023-12-04T00:00:00	2024-11-06T02:00:00	6	Velocidad del viento	3.2
19414	7	Sololá	701	Sololá	3	Barraneche	4	Abril	2023-12-04T00:00:00	2024-11-06T02:00:00	7	Dirección del viento	3.22
19415	7	Sololá	701	Sololá	3	Barraneche	4	Abril	2023-12-04T00:00:00	2024-11-06T02:00:00	1	Precipitación	0
19416	7	Sololá	701	Sololá	3	Barraneche	4	Abril	2023-12-04T00:00:00	2024-11-06T02:00:00	8	Radiación solar	0
19417	7	Sololá	701	Sololá	3	Barraneche	4	Abril	2023-12-04T00:00:00	2024-11-06T03:00:00	2	Temperatura media	9.9
19418	7	Sololá	701	Sololá	3	Barraneche	4	Abril	2023-12-04T00:00:00	2024-11-06T03:00:00	4	Temperatura máxima	10.2
19419	7	Sololá	701	Sololá	3	Barraneche	4	Abril	2023-12-04T00:00:00	2024-11-06T03:00:00	3	Temperatura mínima	9.4
19420	7	Sololá	701	Sololá	3	Barraneche	4	Abril	2023-12-04T00:00:00	2024-11-06T03:00:00	5	Humedad	52
19421	7	Sololá	701	Sololá	3	Barraneche	4	Abril	2023-12-04T00:00:00	2024-11-06T03:00:00	6	Velocidad del viento	4.8
19422	7	Sololá	701	Sololá	3	Barraneche	4	Abril	2023-12-04T00:00:00	2024-11-06T03:00:00	7	Dirección del viento	4.83
19423	7	Sololá	701	Sololá	3	Barraneche	4	Abril	2023-12-04T00:00:00	2024-11-06T03:00:00	1	Precipitación	0
19424	7	Sololá	701	Sololá	3	Barraneche	4	Abril	2023-12-04T00:00:00	2024-11-06T03:00:00	8	Radiación solar	0
19425	7	Sololá	701	Sololá	3	Barraneche	4	Abril	2023-12-04T00:00:00	2024-11-06T04:00:00	2	Temperatura media	10.2
19426	7	Sololá	701	Sololá	3	Barraneche	4	Abril	2023-12-04T00:00:00	2024-11-06T04:00:00	4	Temperatura máxima	10.7
19427	7	Sololá	701	Sololá	3	Barraneche	4	Abril	2023-12-04T00:00:00	2024-11-06T04:00:00	3	Temperatura mínima	9.7
19428	7	Sololá	701	Sololá	3	Barraneche	4	Abril	2023-12-04T00:00:00	2024-11-06T04:00:00	5	Humedad	48
19429	7	Sololá	701	Sololá	3	Barraneche	4	Abril	2023-12-04T00:00:00	2024-11-06T04:00:00	6	Velocidad del viento	6.4
19430	7	Sololá	701	Sololá	3	Barraneche	4	Abril	2023-12-04T00:00:00	2024-11-06T04:00:00	7	Dirección del viento	6.44
19431	7	Sololá	701	Sololá	3	Barraneche	4	Abril	2023-12-04T00:00:00	2024-11-06T04:00:00	1	Precipitación	0
19432	7	Sololá	701	Sololá	3	Barraneche	4	Abril	2023-12-04T00:00:00	2024-11-06T04:00:00	8	Radiación solar	0
19433	7	Sololá	701	Sololá	3	Barraneche	4	Abril	2023-12-04T00:00:00	2024-11-06T05:00:00	2	Temperatura media	9.9
19434	7	Sololá	701	Sololá	3	Barraneche	4	Abril	2023-12-04T00:00:00	2024-11-06T05:00:00	4	Temperatura máxima	10.3
19435	7	Sololá	701	Sololá	3	Barraneche	4	Abril	2023-12-04T00:00:00	2024-11-06T05:00:00	3	Temperatura mínima	9.2
19436	7	Sololá	701	Sololá	3	Barraneche	4	Abril	2023-12-04T00:00:00	2024-11-06T05:00:00	5	Humedad	49
19437	7	Sololá	701	Sololá	3	Barraneche	4	Abril	2023-12-04T00:00:00	2024-11-06T05:00:00	6	Velocidad del viento	6.4
19438	7	Sololá	701	Sololá	3	Barraneche	4	Abril	2023-12-04T00:00:00	2024-11-06T05:00:00	7	Dirección del viento	6.44
19439	7	Sololá	701	Sololá	3	Barraneche	4	Abril	2023-12-04T00:00:00	2024-11-06T05:00:00	1	Precipitación	0
19440	7	Sololá	701	Sololá	3	Barraneche	4	Abril	2023-12-04T00:00:00	2024-11-06T05:00:00	8	Radiación solar	0
19441	7	Sololá	701	Sololá	3	Barraneche	4	Abril	2023-12-04T00:00:00	2024-11-06T06:00:00	2	Temperatura media	9.9
19442	7	Sololá	701	Sololá	3	Barraneche	4	Abril	2023-12-04T00:00:00	2024-11-06T06:00:00	4	Temperatura máxima	10.4
19443	7	Sololá	701	Sololá	3	Barraneche	4	Abril	2023-12-04T00:00:00	2024-11-06T06:00:00	3	Temperatura mínima	9.9
19444	7	Sololá	701	Sololá	3	Barraneche	4	Abril	2023-12-04T00:00:00	2024-11-06T06:00:00	5	Humedad	50
19445	7	Sololá	701	Sololá	3	Barraneche	4	Abril	2023-12-04T00:00:00	2024-11-06T06:00:00	6	Velocidad del viento	4.8
19446	7	Sololá	701	Sololá	3	Barraneche	4	Abril	2023-12-04T00:00:00	2024-11-06T06:00:00	7	Dirección del viento	4.83
19447	7	Sololá	701	Sololá	3	Barraneche	4	Abril	2023-12-04T00:00:00	2024-11-06T06:00:00	1	Precipitación	0
19448	7	Sololá	701	Sololá	3	Barraneche	4	Abril	2023-12-04T00:00:00	2024-11-06T06:00:00	8	Radiación solar	1
19449	7	Sololá	701	Sololá	3	Barraneche	4	Abril	2023-12-04T00:00:00	2024-11-06T07:00:00	2	Temperatura media	10.9
19450	7	Sololá	701	Sololá	3	Barraneche	4	Abril	2023-12-04T00:00:00	2024-11-06T07:00:00	4	Temperatura máxima	10.9
19451	7	Sololá	701	Sololá	3	Barraneche	4	Abril	2023-12-04T00:00:00	2024-11-06T07:00:00	3	Temperatura mínima	9.8
19452	7	Sololá	701	Sololá	3	Barraneche	4	Abril	2023-12-04T00:00:00	2024-11-06T07:00:00	5	Humedad	52
19453	7	Sololá	701	Sololá	3	Barraneche	4	Abril	2023-12-04T00:00:00	2024-11-06T07:00:00	6	Velocidad del viento	6.4
19454	7	Sololá	701	Sololá	3	Barraneche	4	Abril	2023-12-04T00:00:00	2024-11-06T07:00:00	7	Dirección del viento	6.44
19455	7	Sololá	701	Sololá	3	Barraneche	4	Abril	2023-12-04T00:00:00	2024-11-06T07:00:00	1	Precipitación	0
19456	7	Sololá	701	Sololá	3	Barraneche	4	Abril	2023-12-04T00:00:00	2024-11-06T07:00:00	8	Radiación solar	51
19457	7	Sololá	701	Sololá	3	Barraneche	4	Abril	2023-12-04T00:00:00	2024-11-06T08:00:00	2	Temperatura media	12.7
19458	7	Sololá	701	Sololá	3	Barraneche	4	Abril	2023-12-04T00:00:00	2024-11-06T08:00:00	4	Temperatura máxima	12.7
19459	7	Sololá	701	Sololá	3	Barraneche	4	Abril	2023-12-04T00:00:00	2024-11-06T08:00:00	3	Temperatura mínima	10.9
19460	7	Sololá	701	Sololá	3	Barraneche	4	Abril	2023-12-04T00:00:00	2024-11-06T08:00:00	5	Humedad	47
19461	7	Sololá	701	Sololá	3	Barraneche	4	Abril	2023-12-04T00:00:00	2024-11-06T08:00:00	6	Velocidad del viento	3.2
19462	7	Sololá	701	Sololá	3	Barraneche	4	Abril	2023-12-04T00:00:00	2024-11-06T08:00:00	7	Dirección del viento	3.22
19463	7	Sololá	701	Sololá	3	Barraneche	4	Abril	2023-12-04T00:00:00	2024-11-06T08:00:00	1	Precipitación	0
19464	7	Sololá	701	Sololá	3	Barraneche	4	Abril	2023-12-04T00:00:00	2024-11-06T08:00:00	8	Radiación solar	127
19465	7	Sololá	701	Sololá	3	Barraneche	4	Abril	2023-12-04T00:00:00	2024-11-06T09:00:00	2	Temperatura media	15.3
19466	7	Sololá	701	Sololá	3	Barraneche	4	Abril	2023-12-04T00:00:00	2024-11-06T09:00:00	4	Temperatura máxima	15.4
19467	7	Sololá	701	Sololá	3	Barraneche	4	Abril	2023-12-04T00:00:00	2024-11-06T09:00:00	3	Temperatura mínima	12.7
19468	7	Sololá	701	Sololá	3	Barraneche	4	Abril	2023-12-04T00:00:00	2024-11-06T09:00:00	5	Humedad	48
19469	7	Sololá	701	Sololá	3	Barraneche	4	Abril	2023-12-04T00:00:00	2024-11-06T09:00:00	6	Velocidad del viento	3.2
19470	7	Sololá	701	Sololá	3	Barraneche	4	Abril	2023-12-04T00:00:00	2024-11-06T09:00:00	7	Dirección del viento	3.22
19471	7	Sololá	701	Sololá	3	Barraneche	4	Abril	2023-12-04T00:00:00	2024-11-06T09:00:00	1	Precipitación	0
19472	7	Sololá	701	Sololá	3	Barraneche	4	Abril	2023-12-04T00:00:00	2024-11-06T09:00:00	8	Radiación solar	354
19473	7	Sololá	701	Sololá	3	Barraneche	4	Abril	2023-12-04T00:00:00	2024-11-06T10:00:00	2	Temperatura media	15.6
19474	7	Sololá	701	Sololá	3	Barraneche	4	Abril	2023-12-04T00:00:00	2024-11-06T10:00:00	4	Temperatura máxima	16.7
19475	7	Sololá	701	Sololá	3	Barraneche	4	Abril	2023-12-04T00:00:00	2024-11-06T10:00:00	3	Temperatura mínima	15.3
19476	7	Sololá	701	Sololá	3	Barraneche	4	Abril	2023-12-04T00:00:00	2024-11-06T10:00:00	5	Humedad	49
19477	7	Sololá	701	Sololá	3	Barraneche	4	Abril	2023-12-04T00:00:00	2024-11-06T10:00:00	6	Velocidad del viento	12.9
19478	7	Sololá	701	Sololá	3	Barraneche	4	Abril	2023-12-04T00:00:00	2024-11-06T10:00:00	7	Dirección del viento	12.87
19479	7	Sololá	701	Sololá	3	Barraneche	4	Abril	2023-12-04T00:00:00	2024-11-06T10:00:00	1	Precipitación	0
19480	7	Sololá	701	Sololá	3	Barraneche	4	Abril	2023-12-04T00:00:00	2024-11-06T10:00:00	8	Radiación solar	394
19481	7	Sololá	701	Sololá	3	Barraneche	4	Abril	2023-12-04T00:00:00	2024-11-06T11:00:00	2	Temperatura media	15.4
19482	7	Sololá	701	Sololá	3	Barraneche	4	Abril	2023-12-04T00:00:00	2024-11-06T11:00:00	4	Temperatura máxima	15.8
19483	7	Sololá	701	Sololá	3	Barraneche	4	Abril	2023-12-04T00:00:00	2024-11-06T11:00:00	3	Temperatura mínima	15.2
19484	7	Sololá	701	Sololá	3	Barraneche	4	Abril	2023-12-04T00:00:00	2024-11-06T11:00:00	5	Humedad	50
19485	7	Sololá	701	Sololá	3	Barraneche	4	Abril	2023-12-04T00:00:00	2024-11-06T11:00:00	6	Velocidad del viento	9.7
19486	7	Sololá	701	Sololá	3	Barraneche	4	Abril	2023-12-04T00:00:00	2024-11-06T11:00:00	7	Dirección del viento	9.66
19487	7	Sololá	701	Sololá	3	Barraneche	4	Abril	2023-12-04T00:00:00	2024-11-06T11:00:00	1	Precipitación	0
19488	7	Sololá	701	Sololá	3	Barraneche	4	Abril	2023-12-04T00:00:00	2024-11-06T11:00:00	8	Radiación solar	304
19489	7	Sololá	701	Sololá	3	Barraneche	4	Abril	2023-12-04T00:00:00	2024-11-06T12:00:00	2	Temperatura media	16.7
19490	7	Sololá	701	Sololá	3	Barraneche	4	Abril	2023-12-04T00:00:00	2024-11-06T12:00:00	4	Temperatura máxima	16.8
19491	7	Sololá	701	Sololá	3	Barraneche	4	Abril	2023-12-04T00:00:00	2024-11-06T12:00:00	3	Temperatura mínima	15.3
19492	7	Sololá	701	Sololá	3	Barraneche	4	Abril	2023-12-04T00:00:00	2024-11-06T12:00:00	5	Humedad	48
19493	7	Sololá	701	Sololá	3	Barraneche	4	Abril	2023-12-04T00:00:00	2024-11-06T12:00:00	6	Velocidad del viento	8
19494	7	Sololá	701	Sololá	3	Barraneche	4	Abril	2023-12-04T00:00:00	2024-11-06T12:00:00	7	Dirección del viento	8.05
19495	7	Sololá	701	Sololá	3	Barraneche	4	Abril	2023-12-04T00:00:00	2024-11-06T12:00:00	1	Precipitación	0
19496	7	Sololá	701	Sololá	3	Barraneche	4	Abril	2023-12-04T00:00:00	2024-11-06T12:00:00	8	Radiación solar	432
19497	7	Sololá	701	Sololá	3	Barraneche	4	Abril	2023-12-04T00:00:00	2024-11-06T13:00:00	2	Temperatura media	16.6
19498	7	Sololá	701	Sololá	3	Barraneche	4	Abril	2023-12-04T00:00:00	2024-11-06T13:00:00	4	Temperatura máxima	17.4
19499	7	Sololá	701	Sololá	3	Barraneche	4	Abril	2023-12-04T00:00:00	2024-11-06T13:00:00	3	Temperatura mínima	16.6
19500	7	Sololá	701	Sololá	3	Barraneche	4	Abril	2023-12-04T00:00:00	2024-11-06T13:00:00	5	Humedad	50
19501	7	Sololá	701	Sololá	3	Barraneche	4	Abril	2023-12-04T00:00:00	2024-11-06T13:00:00	6	Velocidad del viento	8
19502	7	Sololá	701	Sololá	3	Barraneche	4	Abril	2023-12-04T00:00:00	2024-11-06T13:00:00	7	Dirección del viento	8.05
19503	7	Sololá	701	Sololá	3	Barraneche	4	Abril	2023-12-04T00:00:00	2024-11-06T13:00:00	1	Precipitación	0
19504	7	Sololá	701	Sololá	3	Barraneche	4	Abril	2023-12-04T00:00:00	2024-11-06T13:00:00	8	Radiación solar	438
19505	7	Sololá	701	Sololá	3	Barraneche	4	Abril	2023-12-04T00:00:00	2024-11-06T14:00:00	2	Temperatura media	16.2
19506	7	Sololá	701	Sololá	3	Barraneche	4	Abril	2023-12-04T00:00:00	2024-11-06T14:00:00	4	Temperatura máxima	16.9
19507	7	Sololá	701	Sololá	3	Barraneche	4	Abril	2023-12-04T00:00:00	2024-11-06T14:00:00	3	Temperatura mínima	16.2
19508	7	Sololá	701	Sololá	3	Barraneche	4	Abril	2023-12-04T00:00:00	2024-11-06T14:00:00	5	Humedad	57
19509	7	Sololá	701	Sololá	3	Barraneche	4	Abril	2023-12-04T00:00:00	2024-11-06T14:00:00	6	Velocidad del viento	9.7
19510	7	Sololá	701	Sololá	3	Barraneche	4	Abril	2023-12-04T00:00:00	2024-11-06T14:00:00	7	Dirección del viento	9.66
19511	7	Sololá	701	Sololá	3	Barraneche	4	Abril	2023-12-04T00:00:00	2024-11-06T14:00:00	1	Precipitación	0
19512	7	Sololá	701	Sololá	3	Barraneche	4	Abril	2023-12-04T00:00:00	2024-11-06T14:00:00	8	Radiación solar	277
19513	7	Sololá	701	Sololá	3	Barraneche	4	Abril	2023-12-04T00:00:00	2024-11-06T15:00:00	2	Temperatura media	16
19514	7	Sololá	701	Sololá	3	Barraneche	4	Abril	2023-12-04T00:00:00	2024-11-06T15:00:00	4	Temperatura máxima	16.3
19515	7	Sololá	701	Sololá	3	Barraneche	4	Abril	2023-12-04T00:00:00	2024-11-06T15:00:00	3	Temperatura mínima	15.9
19516	7	Sololá	701	Sololá	3	Barraneche	4	Abril	2023-12-04T00:00:00	2024-11-06T15:00:00	5	Humedad	61
19517	7	Sololá	701	Sololá	3	Barraneche	4	Abril	2023-12-04T00:00:00	2024-11-06T15:00:00	6	Velocidad del viento	8
19518	7	Sololá	701	Sololá	3	Barraneche	4	Abril	2023-12-04T00:00:00	2024-11-06T15:00:00	7	Dirección del viento	8.05
19519	7	Sololá	701	Sololá	3	Barraneche	4	Abril	2023-12-04T00:00:00	2024-11-06T15:00:00	1	Precipitación	0
19520	7	Sololá	701	Sololá	3	Barraneche	4	Abril	2023-12-04T00:00:00	2024-11-06T15:00:00	8	Radiación solar	238
19521	7	Sololá	701	Sololá	3	Barraneche	4	Abril	2023-12-04T00:00:00	2024-11-06T16:00:00	2	Temperatura media	14.8
19522	7	Sololá	701	Sololá	3	Barraneche	4	Abril	2023-12-04T00:00:00	2024-11-06T16:00:00	4	Temperatura máxima	16.2
19523	7	Sololá	701	Sololá	3	Barraneche	4	Abril	2023-12-04T00:00:00	2024-11-06T16:00:00	3	Temperatura mínima	14.7
19524	7	Sololá	701	Sololá	3	Barraneche	4	Abril	2023-12-04T00:00:00	2024-11-06T16:00:00	5	Humedad	68
19525	7	Sololá	701	Sololá	3	Barraneche	4	Abril	2023-12-04T00:00:00	2024-11-06T16:00:00	6	Velocidad del viento	8
19526	7	Sololá	701	Sololá	3	Barraneche	4	Abril	2023-12-04T00:00:00	2024-11-06T16:00:00	7	Dirección del viento	8.05
19527	7	Sololá	701	Sololá	3	Barraneche	4	Abril	2023-12-04T00:00:00	2024-11-06T16:00:00	1	Precipitación	0
19528	7	Sololá	701	Sololá	3	Barraneche	4	Abril	2023-12-04T00:00:00	2024-11-06T16:00:00	8	Radiación solar	96
19529	7	Sololá	701	Sololá	3	Barraneche	4	Abril	2023-12-04T00:00:00	2024-11-06T17:00:00	2	Temperatura media	16.1
19530	7	Sololá	701	Sololá	3	Barraneche	4	Abril	2023-12-04T00:00:00	2024-11-06T17:00:00	4	Temperatura máxima	16.6
19531	7	Sololá	701	Sololá	3	Barraneche	4	Abril	2023-12-04T00:00:00	2024-11-06T17:00:00	3	Temperatura mínima	14.8
19532	7	Sololá	701	Sololá	3	Barraneche	4	Abril	2023-12-04T00:00:00	2024-11-06T17:00:00	5	Humedad	63
19533	7	Sololá	701	Sololá	3	Barraneche	4	Abril	2023-12-04T00:00:00	2024-11-06T17:00:00	6	Velocidad del viento	6.4
19534	7	Sololá	701	Sololá	3	Barraneche	4	Abril	2023-12-04T00:00:00	2024-11-06T17:00:00	7	Dirección del viento	6.44
19535	7	Sololá	701	Sololá	3	Barraneche	4	Abril	2023-12-04T00:00:00	2024-11-06T17:00:00	1	Precipitación	0
19536	7	Sololá	701	Sololá	3	Barraneche	4	Abril	2023-12-04T00:00:00	2024-11-06T17:00:00	8	Radiación solar	246
19537	7	Sololá	701	Sololá	3	Barraneche	4	Abril	2023-12-04T00:00:00	2024-11-06T18:00:00	2	Temperatura media	15.8
19538	7	Sololá	701	Sololá	3	Barraneche	4	Abril	2023-12-04T00:00:00	2024-11-06T18:00:00	4	Temperatura máxima	16.1
19539	7	Sololá	701	Sololá	3	Barraneche	4	Abril	2023-12-04T00:00:00	2024-11-06T18:00:00	3	Temperatura mínima	15.3
19540	7	Sololá	701	Sololá	3	Barraneche	4	Abril	2023-12-04T00:00:00	2024-11-06T18:00:00	5	Humedad	58
19541	7	Sololá	701	Sololá	3	Barraneche	4	Abril	2023-12-04T00:00:00	2024-11-06T18:00:00	6	Velocidad del viento	6.4
19542	7	Sololá	701	Sololá	3	Barraneche	4	Abril	2023-12-04T00:00:00	2024-11-06T18:00:00	7	Dirección del viento	6.44
19543	7	Sololá	701	Sololá	3	Barraneche	4	Abril	2023-12-04T00:00:00	2024-11-06T18:00:00	1	Precipitación	0
19544	7	Sololá	701	Sololá	3	Barraneche	4	Abril	2023-12-04T00:00:00	2024-11-06T18:00:00	8	Radiación solar	40
19545	7	Sololá	701	Sololá	3	Barraneche	4	Abril	2023-12-04T00:00:00	2024-11-06T19:00:00	2	Temperatura media	15.3
19546	7	Sololá	701	Sololá	3	Barraneche	4	Abril	2023-12-04T00:00:00	2024-11-06T19:00:00	4	Temperatura máxima	15.8
19547	7	Sololá	701	Sololá	3	Barraneche	4	Abril	2023-12-04T00:00:00	2024-11-06T19:00:00	3	Temperatura mínima	15.3
19548	7	Sololá	701	Sololá	3	Barraneche	4	Abril	2023-12-04T00:00:00	2024-11-06T19:00:00	5	Humedad	61
19549	7	Sololá	701	Sololá	3	Barraneche	4	Abril	2023-12-04T00:00:00	2024-11-06T19:00:00	6	Velocidad del viento	8
19550	7	Sololá	701	Sololá	3	Barraneche	4	Abril	2023-12-04T00:00:00	2024-11-06T19:00:00	7	Dirección del viento	8.05
19551	7	Sololá	701	Sololá	3	Barraneche	4	Abril	2023-12-04T00:00:00	2024-11-06T19:00:00	1	Precipitación	0
19552	7	Sololá	701	Sololá	3	Barraneche	4	Abril	2023-12-04T00:00:00	2024-11-06T19:00:00	8	Radiación solar	0
19553	7	Sololá	701	Sololá	3	Barraneche	4	Abril	2023-12-04T00:00:00	2024-11-06T20:00:00	2	Temperatura media	14.9
19554	7	Sololá	701	Sololá	3	Barraneche	4	Abril	2023-12-04T00:00:00	2024-11-06T20:00:00	4	Temperatura máxima	15.3
19555	7	Sololá	701	Sololá	3	Barraneche	4	Abril	2023-12-04T00:00:00	2024-11-06T20:00:00	3	Temperatura mínima	14.9
19556	7	Sololá	701	Sololá	3	Barraneche	4	Abril	2023-12-04T00:00:00	2024-11-06T20:00:00	5	Humedad	64
19557	7	Sololá	701	Sololá	3	Barraneche	4	Abril	2023-12-04T00:00:00	2024-11-06T20:00:00	6	Velocidad del viento	9.7
19558	7	Sololá	701	Sololá	3	Barraneche	4	Abril	2023-12-04T00:00:00	2024-11-06T20:00:00	7	Dirección del viento	9.66
19559	7	Sololá	701	Sololá	3	Barraneche	4	Abril	2023-12-04T00:00:00	2024-11-06T20:00:00	1	Precipitación	0
19560	7	Sololá	701	Sololá	3	Barraneche	4	Abril	2023-12-04T00:00:00	2024-11-06T20:00:00	8	Radiación solar	0
19561	7	Sololá	701	Sololá	3	Barraneche	4	Abril	2023-12-04T00:00:00	2024-11-06T21:00:00	2	Temperatura media	14.3
19562	7	Sololá	701	Sololá	3	Barraneche	4	Abril	2023-12-04T00:00:00	2024-11-06T21:00:00	4	Temperatura máxima	14.9
19563	7	Sololá	701	Sololá	3	Barraneche	4	Abril	2023-12-04T00:00:00	2024-11-06T21:00:00	3	Temperatura mínima	14.2
19564	7	Sololá	701	Sololá	3	Barraneche	4	Abril	2023-12-04T00:00:00	2024-11-06T21:00:00	5	Humedad	65
19565	7	Sololá	701	Sololá	3	Barraneche	4	Abril	2023-12-04T00:00:00	2024-11-06T21:00:00	6	Velocidad del viento	9.7
19566	7	Sololá	701	Sololá	3	Barraneche	4	Abril	2023-12-04T00:00:00	2024-11-06T21:00:00	7	Dirección del viento	9.66
19567	7	Sololá	701	Sololá	3	Barraneche	4	Abril	2023-12-04T00:00:00	2024-11-06T21:00:00	1	Precipitación	0
19568	7	Sololá	701	Sololá	3	Barraneche	4	Abril	2023-12-04T00:00:00	2024-11-06T21:00:00	8	Radiación solar	0
19569	7	Sololá	701	Sololá	3	Barraneche	4	Abril	2023-12-04T00:00:00	2024-11-06T22:00:00	2	Temperatura media	13.9
19570	7	Sololá	701	Sololá	3	Barraneche	4	Abril	2023-12-04T00:00:00	2024-11-06T22:00:00	4	Temperatura máxima	14.3
19571	7	Sololá	701	Sololá	3	Barraneche	4	Abril	2023-12-04T00:00:00	2024-11-06T22:00:00	3	Temperatura mínima	13.9
19572	7	Sololá	701	Sololá	3	Barraneche	4	Abril	2023-12-04T00:00:00	2024-11-06T22:00:00	5	Humedad	66
19573	7	Sololá	701	Sololá	3	Barraneche	4	Abril	2023-12-04T00:00:00	2024-11-06T22:00:00	6	Velocidad del viento	6.4
19574	7	Sololá	701	Sololá	3	Barraneche	4	Abril	2023-12-04T00:00:00	2024-11-06T22:00:00	7	Dirección del viento	6.44
19575	7	Sololá	701	Sololá	3	Barraneche	4	Abril	2023-12-04T00:00:00	2024-11-06T22:00:00	1	Precipitación	0
19576	7	Sololá	701	Sololá	3	Barraneche	4	Abril	2023-12-04T00:00:00	2024-11-06T22:00:00	8	Radiación solar	0
19577	7	Sololá	701	Sololá	3	Barraneche	4	Abril	2023-12-04T00:00:00	2024-11-06T23:00:00	2	Temperatura media	12.6
19578	7	Sololá	701	Sololá	3	Barraneche	4	Abril	2023-12-04T00:00:00	2024-11-06T23:00:00	4	Temperatura máxima	13.9
19579	7	Sololá	701	Sololá	3	Barraneche	4	Abril	2023-12-04T00:00:00	2024-11-06T23:00:00	3	Temperatura mínima	12.6
19580	7	Sololá	701	Sololá	3	Barraneche	4	Abril	2023-12-04T00:00:00	2024-11-06T23:00:00	5	Humedad	69
19581	7	Sololá	701	Sololá	3	Barraneche	4	Abril	2023-12-04T00:00:00	2024-11-06T23:00:00	6	Velocidad del viento	3.2
19582	7	Sololá	701	Sololá	3	Barraneche	4	Abril	2023-12-04T00:00:00	2024-11-06T23:00:00	7	Dirección del viento	3.22
19583	7	Sololá	701	Sololá	3	Barraneche	4	Abril	2023-12-04T00:00:00	2024-11-06T23:00:00	1	Precipitación	0
19584	7	Sololá	701	Sololá	3	Barraneche	4	Abril	2023-12-04T00:00:00	2024-11-06T23:00:00	8	Radiación solar	0
19585	7	Sololá	701	Sololá	3	Barraneche	4	Abril	2023-04-13T00:00:00	2024-11-06T00:00:00	2	Temperatura media	11.1
19586	7	Sololá	701	Sololá	3	Barraneche	4	Abril	2023-04-13T00:00:00	2024-11-06T00:00:00	4	Temperatura máxima	12.6
19587	7	Sololá	701	Sololá	3	Barraneche	4	Abril	2023-04-13T00:00:00	2024-11-06T00:00:00	3	Temperatura mínima	11.1
19588	7	Sololá	701	Sololá	3	Barraneche	4	Abril	2023-04-13T00:00:00	2024-11-06T00:00:00	5	Humedad	71
19589	7	Sololá	701	Sololá	3	Barraneche	4	Abril	2023-04-13T00:00:00	2024-11-06T00:00:00	6	Velocidad del viento	3.2
19590	7	Sololá	701	Sololá	3	Barraneche	4	Abril	2023-04-13T00:00:00	2024-11-06T00:00:00	7	Dirección del viento	3.22
19591	7	Sololá	701	Sololá	3	Barraneche	4	Abril	2023-04-13T00:00:00	2024-11-06T00:00:00	1	Precipitación	0
19592	7	Sololá	701	Sololá	3	Barraneche	4	Abril	2023-04-13T00:00:00	2024-11-06T00:00:00	8	Radiación solar	0
19593	7	Sololá	701	Sololá	3	Barraneche	4	Abril	2023-04-13T00:00:00	2024-11-06T01:00:00	2	Temperatura media	11.1
19594	7	Sololá	701	Sololá	3	Barraneche	4	Abril	2023-04-13T00:00:00	2024-11-06T01:00:00	4	Temperatura máxima	11.2
19595	7	Sololá	701	Sololá	3	Barraneche	4	Abril	2023-04-13T00:00:00	2024-11-06T01:00:00	3	Temperatura mínima	10.9
19596	7	Sololá	701	Sololá	3	Barraneche	4	Abril	2023-04-13T00:00:00	2024-11-06T01:00:00	5	Humedad	69
19597	7	Sololá	701	Sololá	3	Barraneche	4	Abril	2023-04-13T00:00:00	2024-11-06T01:00:00	6	Velocidad del viento	4.8
19598	7	Sololá	701	Sololá	3	Barraneche	4	Abril	2023-04-13T00:00:00	2024-11-06T01:00:00	7	Dirección del viento	4.83
19599	7	Sololá	701	Sololá	3	Barraneche	4	Abril	2023-04-13T00:00:00	2024-11-06T01:00:00	1	Precipitación	0
19600	7	Sololá	701	Sololá	3	Barraneche	4	Abril	2023-04-13T00:00:00	2024-11-06T01:00:00	8	Radiación solar	0
19601	7	Sololá	701	Sololá	3	Barraneche	4	Abril	2023-04-13T00:00:00	2024-11-06T02:00:00	2	Temperatura media	11.6
19602	7	Sololá	701	Sololá	3	Barraneche	4	Abril	2023-04-13T00:00:00	2024-11-06T02:00:00	4	Temperatura máxima	11.7
19603	7	Sololá	701	Sololá	3	Barraneche	4	Abril	2023-04-13T00:00:00	2024-11-06T02:00:00	3	Temperatura mínima	11.1
19604	7	Sololá	701	Sololá	3	Barraneche	4	Abril	2023-04-13T00:00:00	2024-11-06T02:00:00	5	Humedad	66
19605	7	Sololá	701	Sololá	3	Barraneche	4	Abril	2023-04-13T00:00:00	2024-11-06T02:00:00	6	Velocidad del viento	3.2
19606	7	Sololá	701	Sololá	3	Barraneche	4	Abril	2023-04-13T00:00:00	2024-11-06T02:00:00	7	Dirección del viento	3.22
19607	7	Sololá	701	Sololá	3	Barraneche	4	Abril	2023-04-13T00:00:00	2024-11-06T02:00:00	1	Precipitación	0
19608	7	Sololá	701	Sololá	3	Barraneche	4	Abril	2023-04-13T00:00:00	2024-11-06T02:00:00	8	Radiación solar	0
19609	7	Sololá	701	Sololá	3	Barraneche	4	Abril	2023-04-13T00:00:00	2024-11-06T03:00:00	2	Temperatura media	10.6
19610	7	Sololá	701	Sololá	3	Barraneche	4	Abril	2023-04-13T00:00:00	2024-11-06T03:00:00	4	Temperatura máxima	11.6
19611	7	Sololá	701	Sololá	3	Barraneche	4	Abril	2023-04-13T00:00:00	2024-11-06T03:00:00	3	Temperatura mínima	10.6
19612	7	Sololá	701	Sololá	3	Barraneche	4	Abril	2023-04-13T00:00:00	2024-11-06T03:00:00	5	Humedad	67
19613	7	Sololá	701	Sololá	3	Barraneche	4	Abril	2023-04-13T00:00:00	2024-11-06T03:00:00	6	Velocidad del viento	4.8
19614	7	Sololá	701	Sololá	3	Barraneche	4	Abril	2023-04-13T00:00:00	2024-11-06T03:00:00	7	Dirección del viento	4.83
19615	7	Sololá	701	Sololá	3	Barraneche	4	Abril	2023-04-13T00:00:00	2024-11-06T03:00:00	1	Precipitación	0
19616	7	Sololá	701	Sololá	3	Barraneche	4	Abril	2023-04-13T00:00:00	2024-11-06T03:00:00	8	Radiación solar	0
19617	7	Sololá	701	Sololá	3	Barraneche	4	Abril	2023-04-13T00:00:00	2024-11-06T04:00:00	2	Temperatura media	10.7
19618	7	Sololá	701	Sololá	3	Barraneche	4	Abril	2023-04-13T00:00:00	2024-11-06T04:00:00	4	Temperatura máxima	10.7
19619	7	Sololá	701	Sololá	3	Barraneche	4	Abril	2023-04-13T00:00:00	2024-11-06T04:00:00	3	Temperatura mínima	10.4
19620	7	Sololá	701	Sololá	3	Barraneche	4	Abril	2023-04-13T00:00:00	2024-11-06T04:00:00	5	Humedad	67
19621	7	Sololá	701	Sololá	3	Barraneche	4	Abril	2023-04-13T00:00:00	2024-11-06T04:00:00	6	Velocidad del viento	6.4
19622	7	Sololá	701	Sololá	3	Barraneche	4	Abril	2023-04-13T00:00:00	2024-11-06T04:00:00	7	Dirección del viento	6.44
19623	7	Sololá	701	Sololá	3	Barraneche	4	Abril	2023-04-13T00:00:00	2024-11-06T04:00:00	1	Precipitación	0
19624	7	Sololá	701	Sololá	3	Barraneche	4	Abril	2023-04-13T00:00:00	2024-11-06T04:00:00	8	Radiación solar	0
19625	7	Sololá	701	Sololá	3	Barraneche	4	Abril	2023-04-13T00:00:00	2024-11-06T05:00:00	2	Temperatura media	10.4
19626	7	Sololá	701	Sololá	3	Barraneche	4	Abril	2023-04-13T00:00:00	2024-11-06T05:00:00	4	Temperatura máxima	10.8
19627	7	Sololá	701	Sololá	3	Barraneche	4	Abril	2023-04-13T00:00:00	2024-11-06T05:00:00	3	Temperatura mínima	10.3
19628	7	Sololá	701	Sololá	3	Barraneche	4	Abril	2023-04-13T00:00:00	2024-11-06T05:00:00	5	Humedad	68
19629	7	Sololá	701	Sololá	3	Barraneche	4	Abril	2023-04-13T00:00:00	2024-11-06T05:00:00	6	Velocidad del viento	6.4
19630	7	Sololá	701	Sololá	3	Barraneche	4	Abril	2023-04-13T00:00:00	2024-11-06T05:00:00	7	Dirección del viento	6.44
19631	7	Sololá	701	Sololá	3	Barraneche	4	Abril	2023-04-13T00:00:00	2024-11-06T05:00:00	1	Precipitación	0
19632	7	Sololá	701	Sololá	3	Barraneche	4	Abril	2023-04-13T00:00:00	2024-11-06T05:00:00	8	Radiación solar	0
19633	7	Sololá	701	Sololá	3	Barraneche	4	Abril	2023-04-13T00:00:00	2024-11-06T06:00:00	2	Temperatura media	10.3
19634	7	Sololá	701	Sololá	3	Barraneche	4	Abril	2023-04-13T00:00:00	2024-11-06T06:00:00	4	Temperatura máxima	10.6
19635	7	Sololá	701	Sololá	3	Barraneche	4	Abril	2023-04-13T00:00:00	2024-11-06T06:00:00	3	Temperatura mínima	10.3
19636	7	Sololá	701	Sololá	3	Barraneche	4	Abril	2023-04-13T00:00:00	2024-11-06T06:00:00	5	Humedad	69
19637	7	Sololá	701	Sololá	3	Barraneche	4	Abril	2023-04-13T00:00:00	2024-11-06T06:00:00	6	Velocidad del viento	6.4
19638	7	Sololá	701	Sololá	3	Barraneche	4	Abril	2023-04-13T00:00:00	2024-11-06T06:00:00	7	Dirección del viento	6.44
19639	7	Sololá	701	Sololá	3	Barraneche	4	Abril	2023-04-13T00:00:00	2024-11-06T06:00:00	1	Precipitación	0
19640	7	Sololá	701	Sololá	3	Barraneche	4	Abril	2023-04-13T00:00:00	2024-11-06T06:00:00	8	Radiación solar	1
19641	7	Sololá	701	Sololá	3	Barraneche	4	Abril	2023-04-13T00:00:00	2024-11-06T07:00:00	2	Temperatura media	12.3
19642	7	Sololá	701	Sololá	3	Barraneche	4	Abril	2023-04-13T00:00:00	2024-11-06T07:00:00	4	Temperatura máxima	12.3
19643	7	Sololá	701	Sololá	3	Barraneche	4	Abril	2023-04-13T00:00:00	2024-11-06T07:00:00	3	Temperatura mínima	10.3
19644	7	Sololá	701	Sololá	3	Barraneche	4	Abril	2023-04-13T00:00:00	2024-11-06T07:00:00	5	Humedad	67
19645	7	Sololá	701	Sololá	3	Barraneche	4	Abril	2023-04-13T00:00:00	2024-11-06T07:00:00	6	Velocidad del viento	3.2
19646	7	Sololá	701	Sololá	3	Barraneche	4	Abril	2023-04-13T00:00:00	2024-11-06T07:00:00	7	Dirección del viento	3.22
19647	7	Sololá	701	Sololá	3	Barraneche	4	Abril	2023-04-13T00:00:00	2024-11-06T07:00:00	1	Precipitación	0
19648	7	Sololá	701	Sololá	3	Barraneche	4	Abril	2023-04-13T00:00:00	2024-11-06T07:00:00	8	Radiación solar	73
19649	7	Sololá	701	Sololá	3	Barraneche	4	Abril	2023-04-13T00:00:00	2024-11-06T08:00:00	2	Temperatura media	14.4
19650	7	Sololá	701	Sololá	3	Barraneche	4	Abril	2023-04-13T00:00:00	2024-11-06T08:00:00	4	Temperatura máxima	14.7
19651	7	Sololá	701	Sololá	3	Barraneche	4	Abril	2023-04-13T00:00:00	2024-11-06T08:00:00	3	Temperatura mínima	12.3
19652	7	Sololá	701	Sololá	3	Barraneche	4	Abril	2023-04-13T00:00:00	2024-11-06T08:00:00	5	Humedad	59
19653	7	Sololá	701	Sololá	3	Barraneche	4	Abril	2023-04-13T00:00:00	2024-11-06T08:00:00	6	Velocidad del viento	3.2
19654	7	Sololá	701	Sololá	3	Barraneche	4	Abril	2023-04-13T00:00:00	2024-11-06T08:00:00	7	Dirección del viento	3.22
19655	7	Sololá	701	Sololá	3	Barraneche	4	Abril	2023-04-13T00:00:00	2024-11-06T08:00:00	1	Precipitación	0
19656	7	Sololá	701	Sololá	3	Barraneche	4	Abril	2023-04-13T00:00:00	2024-11-06T08:00:00	8	Radiación solar	316
19657	7	Sololá	701	Sololá	3	Barraneche	4	Abril	2023-04-13T00:00:00	2024-11-06T09:00:00	2	Temperatura media	14.3
19658	7	Sololá	701	Sololá	3	Barraneche	4	Abril	2023-04-13T00:00:00	2024-11-06T09:00:00	4	Temperatura máxima	14.6
19659	7	Sololá	701	Sololá	3	Barraneche	4	Abril	2023-04-13T00:00:00	2024-11-06T09:00:00	3	Temperatura mínima	14
19660	7	Sololá	701	Sololá	3	Barraneche	4	Abril	2023-04-13T00:00:00	2024-11-06T09:00:00	5	Humedad	61
19661	7	Sololá	701	Sololá	3	Barraneche	4	Abril	2023-04-13T00:00:00	2024-11-06T09:00:00	6	Velocidad del viento	8
19662	7	Sololá	701	Sololá	3	Barraneche	4	Abril	2023-04-13T00:00:00	2024-11-06T09:00:00	7	Dirección del viento	8.05
19663	7	Sololá	701	Sololá	3	Barraneche	4	Abril	2023-04-13T00:00:00	2024-11-06T09:00:00	1	Precipitación	0
19664	7	Sololá	701	Sololá	3	Barraneche	4	Abril	2023-04-13T00:00:00	2024-11-06T09:00:00	8	Radiación solar	283
19665	7	Sololá	701	Sololá	3	Barraneche	4	Abril	2023-04-13T00:00:00	2024-11-06T10:00:00	2	Temperatura media	15.6
19666	7	Sololá	701	Sololá	3	Barraneche	4	Abril	2023-04-13T00:00:00	2024-11-06T10:00:00	4	Temperatura máxima	15.6
19667	7	Sololá	701	Sololá	3	Barraneche	4	Abril	2023-04-13T00:00:00	2024-11-06T10:00:00	3	Temperatura mínima	14.3
19668	7	Sololá	701	Sololá	3	Barraneche	4	Abril	2023-04-13T00:00:00	2024-11-06T10:00:00	5	Humedad	58
19669	7	Sololá	701	Sololá	3	Barraneche	4	Abril	2023-04-13T00:00:00	2024-11-06T10:00:00	6	Velocidad del viento	6.4
19670	7	Sololá	701	Sololá	3	Barraneche	4	Abril	2023-04-13T00:00:00	2024-11-06T10:00:00	7	Dirección del viento	6.44
19671	7	Sololá	701	Sololá	3	Barraneche	4	Abril	2023-04-13T00:00:00	2024-11-06T10:00:00	1	Precipitación	0
19672	7	Sololá	701	Sololá	3	Barraneche	4	Abril	2023-04-13T00:00:00	2024-11-06T10:00:00	8	Radiación solar	338
19673	7	Sololá	701	Sololá	3	Barraneche	4	Abril	2023-04-13T00:00:00	2024-11-06T11:00:00	2	Temperatura media	17.9
19674	7	Sololá	701	Sololá	3	Barraneche	4	Abril	2023-04-13T00:00:00	2024-11-06T11:00:00	4	Temperatura máxima	17.9
19675	7	Sololá	701	Sololá	3	Barraneche	4	Abril	2023-04-13T00:00:00	2024-11-06T11:00:00	3	Temperatura mínima	15.4
19676	7	Sololá	701	Sololá	3	Barraneche	4	Abril	2023-04-13T00:00:00	2024-11-06T11:00:00	5	Humedad	52
19677	7	Sololá	701	Sololá	3	Barraneche	4	Abril	2023-04-13T00:00:00	2024-11-06T11:00:00	6	Velocidad del viento	8
19678	7	Sololá	701	Sololá	3	Barraneche	4	Abril	2023-04-13T00:00:00	2024-11-06T11:00:00	7	Dirección del viento	8.05
19679	7	Sololá	701	Sololá	3	Barraneche	4	Abril	2023-04-13T00:00:00	2024-11-06T11:00:00	1	Precipitación	0
19680	7	Sololá	701	Sololá	3	Barraneche	4	Abril	2023-04-13T00:00:00	2024-11-06T11:00:00	8	Radiación solar	769
19681	7	Sololá	701	Sololá	3	Barraneche	4	Abril	2023-04-13T00:00:00	2024-11-06T12:00:00	2	Temperatura media	17.9
19682	7	Sololá	701	Sololá	3	Barraneche	4	Abril	2023-04-13T00:00:00	2024-11-06T12:00:00	4	Temperatura máxima	18.3
19683	7	Sololá	701	Sololá	3	Barraneche	4	Abril	2023-04-13T00:00:00	2024-11-06T12:00:00	3	Temperatura mínima	17.7
19684	7	Sololá	701	Sololá	3	Barraneche	4	Abril	2023-04-13T00:00:00	2024-11-06T12:00:00	5	Humedad	53
19685	7	Sololá	701	Sololá	3	Barraneche	4	Abril	2023-04-13T00:00:00	2024-11-06T12:00:00	6	Velocidad del viento	11.3
19686	7	Sololá	701	Sololá	3	Barraneche	4	Abril	2023-04-13T00:00:00	2024-11-06T12:00:00	7	Dirección del viento	11.27
19687	7	Sololá	701	Sololá	3	Barraneche	4	Abril	2023-04-13T00:00:00	2024-11-06T12:00:00	1	Precipitación	0
19688	7	Sololá	701	Sololá	3	Barraneche	4	Abril	2023-04-13T00:00:00	2024-11-06T12:00:00	8	Radiación solar	1013
19689	7	Sololá	701	Sololá	3	Barraneche	4	Abril	2023-04-13T00:00:00	2024-11-06T13:00:00	2	Temperatura media	18.2
19690	7	Sololá	701	Sololá	3	Barraneche	4	Abril	2023-04-13T00:00:00	2024-11-06T13:00:00	4	Temperatura máxima	18.3
19691	7	Sololá	701	Sololá	3	Barraneche	4	Abril	2023-04-13T00:00:00	2024-11-06T13:00:00	3	Temperatura mínima	17.9
19692	7	Sololá	701	Sololá	3	Barraneche	4	Abril	2023-04-13T00:00:00	2024-11-06T13:00:00	5	Humedad	56
19693	7	Sololá	701	Sololá	3	Barraneche	4	Abril	2023-04-13T00:00:00	2024-11-06T13:00:00	6	Velocidad del viento	14.5
19694	7	Sololá	701	Sololá	3	Barraneche	4	Abril	2023-04-13T00:00:00	2024-11-06T13:00:00	7	Dirección del viento	14.48
19695	7	Sololá	701	Sololá	3	Barraneche	4	Abril	2023-04-13T00:00:00	2024-11-06T13:00:00	1	Precipitación	0
19696	7	Sololá	701	Sololá	3	Barraneche	4	Abril	2023-04-13T00:00:00	2024-11-06T13:00:00	8	Radiación solar	1001
19697	7	Sololá	701	Sololá	3	Barraneche	4	Abril	2023-04-13T00:00:00	2024-11-06T14:00:00	2	Temperatura media	17.1
19698	7	Sololá	701	Sololá	3	Barraneche	4	Abril	2023-04-13T00:00:00	2024-11-06T14:00:00	4	Temperatura máxima	18.3
19699	7	Sololá	701	Sololá	3	Barraneche	4	Abril	2023-04-13T00:00:00	2024-11-06T14:00:00	3	Temperatura mínima	16.8
19700	7	Sololá	701	Sololá	3	Barraneche	4	Abril	2023-04-13T00:00:00	2024-11-06T14:00:00	5	Humedad	62
19701	7	Sololá	701	Sololá	3	Barraneche	4	Abril	2023-04-13T00:00:00	2024-11-06T14:00:00	6	Velocidad del viento	14.5
19702	7	Sololá	701	Sololá	3	Barraneche	4	Abril	2023-04-13T00:00:00	2024-11-06T14:00:00	7	Dirección del viento	14.48
19703	7	Sololá	701	Sololá	3	Barraneche	4	Abril	2023-04-13T00:00:00	2024-11-06T14:00:00	1	Precipitación	0
19704	7	Sololá	701	Sololá	3	Barraneche	4	Abril	2023-04-13T00:00:00	2024-11-06T14:00:00	8	Radiación solar	471
19705	7	Sololá	701	Sololá	3	Barraneche	4	Abril	2023-04-13T00:00:00	2024-11-06T15:00:00	2	Temperatura media	16.7
19706	7	Sololá	701	Sololá	3	Barraneche	4	Abril	2023-04-13T00:00:00	2024-11-06T15:00:00	4	Temperatura máxima	17.4
19707	7	Sololá	701	Sololá	3	Barraneche	4	Abril	2023-04-13T00:00:00	2024-11-06T15:00:00	3	Temperatura mínima	16.7
19708	7	Sololá	701	Sololá	3	Barraneche	4	Abril	2023-04-13T00:00:00	2024-11-06T15:00:00	5	Humedad	65
19709	7	Sololá	701	Sololá	3	Barraneche	4	Abril	2023-04-13T00:00:00	2024-11-06T15:00:00	6	Velocidad del viento	11.3
19710	7	Sololá	701	Sololá	3	Barraneche	4	Abril	2023-04-13T00:00:00	2024-11-06T15:00:00	7	Dirección del viento	11.27
19711	7	Sololá	701	Sololá	3	Barraneche	4	Abril	2023-04-13T00:00:00	2024-11-06T15:00:00	1	Precipitación	0
19712	7	Sololá	701	Sololá	3	Barraneche	4	Abril	2023-04-13T00:00:00	2024-11-06T15:00:00	8	Radiación solar	333
19713	7	Sololá	701	Sololá	3	Barraneche	4	Abril	2023-04-13T00:00:00	2024-11-06T16:00:00	2	Temperatura media	15.2
19714	7	Sololá	701	Sololá	3	Barraneche	4	Abril	2023-04-13T00:00:00	2024-11-06T16:00:00	4	Temperatura máxima	16.7
19715	7	Sololá	701	Sololá	3	Barraneche	4	Abril	2023-04-13T00:00:00	2024-11-06T16:00:00	3	Temperatura mínima	15.1
19716	7	Sololá	701	Sololá	3	Barraneche	4	Abril	2023-04-13T00:00:00	2024-11-06T16:00:00	5	Humedad	71
19717	7	Sololá	701	Sololá	3	Barraneche	4	Abril	2023-04-13T00:00:00	2024-11-06T16:00:00	6	Velocidad del viento	11.3
19718	7	Sololá	701	Sololá	3	Barraneche	4	Abril	2023-04-13T00:00:00	2024-11-06T16:00:00	7	Dirección del viento	11.27
19719	7	Sololá	701	Sololá	3	Barraneche	4	Abril	2023-04-13T00:00:00	2024-11-06T16:00:00	1	Precipitación	0
19720	7	Sololá	701	Sololá	3	Barraneche	4	Abril	2023-04-13T00:00:00	2024-11-06T16:00:00	8	Radiación solar	105
19721	7	Sololá	701	Sololá	3	Barraneche	4	Abril	2023-04-13T00:00:00	2024-11-06T17:00:00	2	Temperatura media	15.6
19722	7	Sololá	701	Sololá	3	Barraneche	4	Abril	2023-04-13T00:00:00	2024-11-06T17:00:00	4	Temperatura máxima	15.7
19723	7	Sololá	701	Sololá	3	Barraneche	4	Abril	2023-04-13T00:00:00	2024-11-06T17:00:00	3	Temperatura mínima	14.9
19724	7	Sololá	701	Sololá	3	Barraneche	4	Abril	2023-04-13T00:00:00	2024-11-06T17:00:00	5	Humedad	68
19725	7	Sololá	701	Sololá	3	Barraneche	4	Abril	2023-04-13T00:00:00	2024-11-06T17:00:00	6	Velocidad del viento	6.4
19726	7	Sololá	701	Sololá	3	Barraneche	4	Abril	2023-04-13T00:00:00	2024-11-06T17:00:00	7	Dirección del viento	6.44
19727	7	Sololá	701	Sololá	3	Barraneche	4	Abril	2023-04-13T00:00:00	2024-11-06T17:00:00	1	Precipitación	0
19728	7	Sololá	701	Sololá	3	Barraneche	4	Abril	2023-04-13T00:00:00	2024-11-06T17:00:00	8	Radiación solar	129
19729	7	Sololá	701	Sololá	3	Barraneche	4	Abril	2023-04-13T00:00:00	2024-11-06T18:00:00	2	Temperatura media	14.9
19730	7	Sololá	701	Sololá	3	Barraneche	4	Abril	2023-04-13T00:00:00	2024-11-06T18:00:00	4	Temperatura máxima	15.9
19731	7	Sololá	701	Sololá	3	Barraneche	4	Abril	2023-04-13T00:00:00	2024-11-06T18:00:00	3	Temperatura mínima	14.9
19732	7	Sololá	701	Sololá	3	Barraneche	4	Abril	2023-04-13T00:00:00	2024-11-06T18:00:00	5	Humedad	71
19733	7	Sololá	701	Sololá	3	Barraneche	4	Abril	2023-04-13T00:00:00	2024-11-06T18:00:00	6	Velocidad del viento	6.4
19734	7	Sololá	701	Sololá	3	Barraneche	4	Abril	2023-04-13T00:00:00	2024-11-06T18:00:00	7	Dirección del viento	6.44
19735	7	Sololá	701	Sololá	3	Barraneche	4	Abril	2023-04-13T00:00:00	2024-11-06T18:00:00	1	Precipitación	0
19736	7	Sololá	701	Sololá	3	Barraneche	4	Abril	2023-04-13T00:00:00	2024-11-06T18:00:00	8	Radiación solar	63
19737	7	Sololá	701	Sololá	3	Barraneche	4	Abril	2023-04-13T00:00:00	2024-11-06T19:00:00	2	Temperatura media	14.1
19738	7	Sololá	701	Sololá	3	Barraneche	4	Abril	2023-04-13T00:00:00	2024-11-06T19:00:00	4	Temperatura máxima	14.9
19739	7	Sololá	701	Sololá	3	Barraneche	4	Abril	2023-04-13T00:00:00	2024-11-06T19:00:00	3	Temperatura mínima	14.1
19740	7	Sololá	701	Sololá	3	Barraneche	4	Abril	2023-04-13T00:00:00	2024-11-06T19:00:00	5	Humedad	75
19741	7	Sololá	701	Sololá	3	Barraneche	4	Abril	2023-04-13T00:00:00	2024-11-06T19:00:00	6	Velocidad del viento	3.2
19742	7	Sololá	701	Sololá	3	Barraneche	4	Abril	2023-04-13T00:00:00	2024-11-06T19:00:00	7	Dirección del viento	3.22
19743	7	Sololá	701	Sololá	3	Barraneche	4	Abril	2023-04-13T00:00:00	2024-11-06T19:00:00	1	Precipitación	0
19744	7	Sololá	701	Sololá	3	Barraneche	4	Abril	2023-04-13T00:00:00	2024-11-06T19:00:00	8	Radiación solar	0
19745	7	Sololá	701	Sololá	3	Barraneche	4	Abril	2023-04-13T00:00:00	2024-11-06T20:00:00	2	Temperatura media	13.2
19746	7	Sololá	701	Sololá	3	Barraneche	4	Abril	2023-04-13T00:00:00	2024-11-06T20:00:00	4	Temperatura máxima	14.1
19747	7	Sololá	701	Sololá	3	Barraneche	4	Abril	2023-04-13T00:00:00	2024-11-06T20:00:00	3	Temperatura mínima	13.2
19748	7	Sololá	701	Sololá	3	Barraneche	4	Abril	2023-04-13T00:00:00	2024-11-06T20:00:00	5	Humedad	67
19749	7	Sololá	701	Sololá	3	Barraneche	4	Abril	2023-04-13T00:00:00	2024-11-06T20:00:00	6	Velocidad del viento	3.2
19750	7	Sololá	701	Sololá	3	Barraneche	4	Abril	2023-04-13T00:00:00	2024-11-06T20:00:00	7	Dirección del viento	3.22
19751	7	Sololá	701	Sololá	3	Barraneche	4	Abril	2023-04-13T00:00:00	2024-11-06T20:00:00	1	Precipitación	0
19752	7	Sololá	701	Sololá	3	Barraneche	4	Abril	2023-04-13T00:00:00	2024-11-06T20:00:00	8	Radiación solar	0
19753	7	Sololá	701	Sololá	3	Barraneche	4	Abril	2023-04-13T00:00:00	2024-11-06T21:00:00	2	Temperatura media	13.4
19754	7	Sololá	701	Sololá	3	Barraneche	4	Abril	2023-04-13T00:00:00	2024-11-06T21:00:00	4	Temperatura máxima	13.4
19755	7	Sololá	701	Sololá	3	Barraneche	4	Abril	2023-04-13T00:00:00	2024-11-06T21:00:00	3	Temperatura mínima	13
19756	7	Sololá	701	Sololá	3	Barraneche	4	Abril	2023-04-13T00:00:00	2024-11-06T21:00:00	5	Humedad	68
19757	7	Sololá	701	Sololá	3	Barraneche	4	Abril	2023-04-13T00:00:00	2024-11-06T21:00:00	6	Velocidad del viento	3.2
19758	7	Sololá	701	Sololá	3	Barraneche	4	Abril	2023-04-13T00:00:00	2024-11-06T21:00:00	7	Dirección del viento	3.22
19759	7	Sololá	701	Sololá	3	Barraneche	4	Abril	2023-04-13T00:00:00	2024-11-06T21:00:00	1	Precipitación	0
19760	7	Sololá	701	Sololá	3	Barraneche	4	Abril	2023-04-13T00:00:00	2024-11-06T21:00:00	8	Radiación solar	0
19761	7	Sololá	701	Sololá	3	Barraneche	4	Abril	2023-04-13T00:00:00	2024-11-06T22:00:00	2	Temperatura media	12.9
19762	7	Sololá	701	Sololá	3	Barraneche	4	Abril	2023-04-13T00:00:00	2024-11-06T22:00:00	4	Temperatura máxima	13.7
19763	7	Sololá	701	Sololá	3	Barraneche	4	Abril	2023-04-13T00:00:00	2024-11-06T22:00:00	3	Temperatura mínima	12.8
19764	7	Sololá	701	Sololá	3	Barraneche	4	Abril	2023-04-13T00:00:00	2024-11-06T22:00:00	5	Humedad	68
19765	7	Sololá	701	Sololá	3	Barraneche	4	Abril	2023-04-13T00:00:00	2024-11-06T22:00:00	6	Velocidad del viento	1.6
19766	7	Sololá	701	Sololá	3	Barraneche	4	Abril	2023-04-13T00:00:00	2024-11-06T22:00:00	7	Dirección del viento	1.61
19767	7	Sololá	701	Sololá	3	Barraneche	4	Abril	2023-04-13T00:00:00	2024-11-06T22:00:00	1	Precipitación	0
19768	7	Sololá	701	Sololá	3	Barraneche	4	Abril	2023-04-13T00:00:00	2024-11-06T22:00:00	8	Radiación solar	0
19769	7	Sololá	701	Sololá	3	Barraneche	4	Abril	2023-04-13T00:00:00	2024-11-06T23:00:00	2	Temperatura media	11.3
19770	7	Sololá	701	Sololá	3	Barraneche	4	Abril	2023-04-13T00:00:00	2024-11-06T23:00:00	4	Temperatura máxima	12.9
19771	7	Sololá	701	Sololá	3	Barraneche	4	Abril	2023-04-13T00:00:00	2024-11-06T23:00:00	3	Temperatura mínima	11.3
19772	7	Sololá	701	Sololá	3	Barraneche	4	Abril	2023-04-13T00:00:00	2024-11-06T23:00:00	5	Humedad	68
19773	7	Sololá	701	Sololá	3	Barraneche	4	Abril	2023-04-13T00:00:00	2024-11-06T23:00:00	6	Velocidad del viento	4.8
19774	7	Sololá	701	Sololá	3	Barraneche	4	Abril	2023-04-13T00:00:00	2024-11-06T23:00:00	7	Dirección del viento	4.83
19775	7	Sololá	701	Sololá	3	Barraneche	4	Abril	2023-04-13T00:00:00	2024-11-06T23:00:00	1	Precipitación	0
19776	7	Sololá	701	Sololá	3	Barraneche	4	Abril	2023-04-13T00:00:00	2024-11-06T23:00:00	8	Radiación solar	0
19777	7	Sololá	701	Sololá	3	Barraneche	4	Abril	2023-04-14T00:00:00	2024-11-06T00:00:00	2	Temperatura media	10.9
19778	7	Sololá	701	Sololá	3	Barraneche	4	Abril	2023-04-14T00:00:00	2024-11-06T00:00:00	4	Temperatura máxima	11.3
19779	7	Sololá	701	Sololá	3	Barraneche	4	Abril	2023-04-14T00:00:00	2024-11-06T00:00:00	3	Temperatura mínima	10.9
19780	7	Sololá	701	Sololá	3	Barraneche	4	Abril	2023-04-14T00:00:00	2024-11-06T00:00:00	5	Humedad	66
19781	7	Sololá	701	Sololá	3	Barraneche	4	Abril	2023-04-14T00:00:00	2024-11-06T00:00:00	6	Velocidad del viento	4.8
19782	7	Sololá	701	Sololá	3	Barraneche	4	Abril	2023-04-14T00:00:00	2024-11-06T00:00:00	7	Dirección del viento	4.83
19783	7	Sololá	701	Sololá	3	Barraneche	4	Abril	2023-04-14T00:00:00	2024-11-06T00:00:00	1	Precipitación	0
19784	7	Sololá	701	Sololá	3	Barraneche	4	Abril	2023-04-14T00:00:00	2024-11-06T00:00:00	8	Radiación solar	0
19785	7	Sololá	701	Sololá	3	Barraneche	4	Abril	2023-04-14T00:00:00	2024-11-06T01:00:00	2	Temperatura media	9.8
19786	7	Sololá	701	Sololá	3	Barraneche	4	Abril	2023-04-14T00:00:00	2024-11-06T01:00:00	4	Temperatura máxima	10.9
19787	7	Sololá	701	Sololá	3	Barraneche	4	Abril	2023-04-14T00:00:00	2024-11-06T01:00:00	3	Temperatura mínima	9.8
19788	7	Sololá	701	Sololá	3	Barraneche	4	Abril	2023-04-14T00:00:00	2024-11-06T01:00:00	5	Humedad	67
19789	7	Sololá	701	Sololá	3	Barraneche	4	Abril	2023-04-14T00:00:00	2024-11-06T01:00:00	6	Velocidad del viento	6.4
19790	7	Sololá	701	Sololá	3	Barraneche	4	Abril	2023-04-14T00:00:00	2024-11-06T01:00:00	7	Dirección del viento	6.44
19791	7	Sololá	701	Sololá	3	Barraneche	4	Abril	2023-04-14T00:00:00	2024-11-06T01:00:00	1	Precipitación	0
19792	7	Sololá	701	Sololá	3	Barraneche	4	Abril	2023-04-14T00:00:00	2024-11-06T01:00:00	8	Radiación solar	0
19793	7	Sololá	701	Sololá	3	Barraneche	4	Abril	2023-04-14T00:00:00	2024-11-06T02:00:00	2	Temperatura media	9.6
19794	7	Sololá	701	Sololá	3	Barraneche	4	Abril	2023-04-14T00:00:00	2024-11-06T02:00:00	4	Temperatura máxima	9.8
19795	7	Sololá	701	Sololá	3	Barraneche	4	Abril	2023-04-14T00:00:00	2024-11-06T02:00:00	3	Temperatura mínima	9.2
19796	7	Sololá	701	Sololá	3	Barraneche	4	Abril	2023-04-14T00:00:00	2024-11-06T02:00:00	5	Humedad	67
19797	7	Sololá	701	Sololá	3	Barraneche	4	Abril	2023-04-14T00:00:00	2024-11-06T02:00:00	6	Velocidad del viento	6.4
19798	7	Sololá	701	Sololá	3	Barraneche	4	Abril	2023-04-14T00:00:00	2024-11-06T02:00:00	7	Dirección del viento	6.44
19799	7	Sololá	701	Sololá	3	Barraneche	4	Abril	2023-04-14T00:00:00	2024-11-06T02:00:00	1	Precipitación	0
19800	7	Sololá	701	Sololá	3	Barraneche	4	Abril	2023-04-14T00:00:00	2024-11-06T02:00:00	8	Radiación solar	0
19801	7	Sololá	701	Sololá	3	Barraneche	4	Abril	2023-04-14T00:00:00	2024-11-06T03:00:00	2	Temperatura media	9.4
19802	7	Sololá	701	Sololá	3	Barraneche	4	Abril	2023-04-14T00:00:00	2024-11-06T03:00:00	4	Temperatura máxima	9.8
19803	7	Sololá	701	Sololá	3	Barraneche	4	Abril	2023-04-14T00:00:00	2024-11-06T03:00:00	3	Temperatura mínima	9.3
19804	7	Sololá	701	Sololá	3	Barraneche	4	Abril	2023-04-14T00:00:00	2024-11-06T03:00:00	5	Humedad	67
19805	7	Sololá	701	Sololá	3	Barraneche	4	Abril	2023-04-14T00:00:00	2024-11-06T03:00:00	6	Velocidad del viento	8
19806	7	Sololá	701	Sololá	3	Barraneche	4	Abril	2023-04-14T00:00:00	2024-11-06T03:00:00	7	Dirección del viento	8.05
19807	7	Sololá	701	Sololá	3	Barraneche	4	Abril	2023-04-14T00:00:00	2024-11-06T03:00:00	1	Precipitación	0
19808	7	Sololá	701	Sololá	3	Barraneche	4	Abril	2023-04-14T00:00:00	2024-11-06T03:00:00	8	Radiación solar	0
19809	7	Sololá	701	Sololá	3	Barraneche	4	Abril	2023-04-14T00:00:00	2024-11-06T04:00:00	2	Temperatura media	9.6
19810	7	Sololá	701	Sololá	3	Barraneche	4	Abril	2023-04-14T00:00:00	2024-11-06T04:00:00	4	Temperatura máxima	10.1
19811	7	Sololá	701	Sololá	3	Barraneche	4	Abril	2023-04-14T00:00:00	2024-11-06T04:00:00	3	Temperatura mínima	9.4
19812	7	Sololá	701	Sololá	3	Barraneche	4	Abril	2023-04-14T00:00:00	2024-11-06T04:00:00	5	Humedad	64
19813	7	Sololá	701	Sololá	3	Barraneche	4	Abril	2023-04-14T00:00:00	2024-11-06T04:00:00	6	Velocidad del viento	8
19814	7	Sololá	701	Sololá	3	Barraneche	4	Abril	2023-04-14T00:00:00	2024-11-06T04:00:00	7	Dirección del viento	8.05
19815	7	Sololá	701	Sololá	3	Barraneche	4	Abril	2023-04-14T00:00:00	2024-11-06T04:00:00	1	Precipitación	0
19816	7	Sololá	701	Sololá	3	Barraneche	4	Abril	2023-04-14T00:00:00	2024-11-06T04:00:00	8	Radiación solar	0
19817	7	Sololá	701	Sololá	3	Barraneche	4	Abril	2023-04-14T00:00:00	2024-11-06T05:00:00	2	Temperatura media	9.1
19818	7	Sololá	701	Sololá	3	Barraneche	4	Abril	2023-04-14T00:00:00	2024-11-06T05:00:00	4	Temperatura máxima	9.5
19819	7	Sololá	701	Sololá	3	Barraneche	4	Abril	2023-04-14T00:00:00	2024-11-06T05:00:00	3	Temperatura mínima	9
19820	7	Sololá	701	Sololá	3	Barraneche	4	Abril	2023-04-14T00:00:00	2024-11-06T05:00:00	5	Humedad	65
19821	7	Sololá	701	Sololá	3	Barraneche	4	Abril	2023-04-14T00:00:00	2024-11-06T05:00:00	6	Velocidad del viento	8
19822	7	Sololá	701	Sololá	3	Barraneche	4	Abril	2023-04-14T00:00:00	2024-11-06T05:00:00	7	Dirección del viento	8.05
19823	7	Sololá	701	Sololá	3	Barraneche	4	Abril	2023-04-14T00:00:00	2024-11-06T05:00:00	1	Precipitación	0
19824	7	Sololá	701	Sololá	3	Barraneche	4	Abril	2023-04-14T00:00:00	2024-11-06T05:00:00	8	Radiación solar	0
19825	7	Sololá	701	Sololá	3	Barraneche	4	Abril	2023-04-14T00:00:00	2024-11-06T06:00:00	2	Temperatura media	8.6
19826	7	Sololá	701	Sololá	3	Barraneche	4	Abril	2023-04-14T00:00:00	2024-11-06T06:00:00	4	Temperatura máxima	9.1
19827	7	Sololá	701	Sololá	3	Barraneche	4	Abril	2023-04-14T00:00:00	2024-11-06T06:00:00	3	Temperatura mínima	8.2
19828	7	Sololá	701	Sololá	3	Barraneche	4	Abril	2023-04-14T00:00:00	2024-11-06T06:00:00	5	Humedad	68
19829	7	Sololá	701	Sololá	3	Barraneche	4	Abril	2023-04-14T00:00:00	2024-11-06T06:00:00	6	Velocidad del viento	6.4
19830	7	Sololá	701	Sololá	3	Barraneche	4	Abril	2023-04-14T00:00:00	2024-11-06T06:00:00	7	Dirección del viento	6.44
19831	7	Sololá	701	Sololá	3	Barraneche	4	Abril	2023-04-14T00:00:00	2024-11-06T06:00:00	1	Precipitación	0
19832	7	Sololá	701	Sololá	3	Barraneche	4	Abril	2023-04-14T00:00:00	2024-11-06T06:00:00	8	Radiación solar	1
19833	7	Sololá	701	Sololá	3	Barraneche	4	Abril	2023-04-14T00:00:00	2024-11-06T07:00:00	2	Temperatura media	10.6
19834	7	Sololá	701	Sololá	3	Barraneche	4	Abril	2023-04-14T00:00:00	2024-11-06T07:00:00	4	Temperatura máxima	10.6
19835	7	Sololá	701	Sololá	3	Barraneche	4	Abril	2023-04-14T00:00:00	2024-11-06T07:00:00	3	Temperatura mínima	8.5
19836	7	Sololá	701	Sololá	3	Barraneche	4	Abril	2023-04-14T00:00:00	2024-11-06T07:00:00	5	Humedad	65
19837	7	Sololá	701	Sololá	3	Barraneche	4	Abril	2023-04-14T00:00:00	2024-11-06T07:00:00	6	Velocidad del viento	6.4
19838	7	Sololá	701	Sololá	3	Barraneche	4	Abril	2023-04-14T00:00:00	2024-11-06T07:00:00	7	Dirección del viento	6.44
19839	7	Sololá	701	Sololá	3	Barraneche	4	Abril	2023-04-14T00:00:00	2024-11-06T07:00:00	1	Precipitación	0
19840	7	Sololá	701	Sololá	3	Barraneche	4	Abril	2023-04-14T00:00:00	2024-11-06T07:00:00	8	Radiación solar	66
19841	7	Sololá	701	Sololá	3	Barraneche	4	Abril	2023-04-14T00:00:00	2024-11-06T08:00:00	2	Temperatura media	14.6
19842	7	Sololá	701	Sololá	3	Barraneche	4	Abril	2023-04-14T00:00:00	2024-11-06T08:00:00	4	Temperatura máxima	14.6
19843	7	Sololá	701	Sololá	3	Barraneche	4	Abril	2023-04-14T00:00:00	2024-11-06T08:00:00	3	Temperatura mínima	10.6
19844	7	Sololá	701	Sololá	3	Barraneche	4	Abril	2023-04-14T00:00:00	2024-11-06T08:00:00	5	Humedad	52
19845	7	Sololá	701	Sololá	3	Barraneche	4	Abril	2023-04-14T00:00:00	2024-11-06T08:00:00	6	Velocidad del viento	3.2
19846	7	Sololá	701	Sololá	3	Barraneche	4	Abril	2023-04-14T00:00:00	2024-11-06T08:00:00	7	Dirección del viento	3.22
19847	7	Sololá	701	Sololá	3	Barraneche	4	Abril	2023-04-14T00:00:00	2024-11-06T08:00:00	1	Precipitación	0
19848	7	Sololá	701	Sololá	3	Barraneche	4	Abril	2023-04-14T00:00:00	2024-11-06T08:00:00	8	Radiación solar	344
19849	7	Sololá	701	Sololá	3	Barraneche	4	Abril	2023-04-14T00:00:00	2024-11-06T09:00:00	2	Temperatura media	17.4
19850	7	Sololá	701	Sololá	3	Barraneche	4	Abril	2023-04-14T00:00:00	2024-11-06T09:00:00	4	Temperatura máxima	17.5
19851	7	Sololá	701	Sololá	3	Barraneche	4	Abril	2023-04-14T00:00:00	2024-11-06T09:00:00	3	Temperatura mínima	14.6
19852	7	Sololá	701	Sololá	3	Barraneche	4	Abril	2023-04-14T00:00:00	2024-11-06T09:00:00	5	Humedad	42
19853	7	Sololá	701	Sololá	3	Barraneche	4	Abril	2023-04-14T00:00:00	2024-11-06T09:00:00	6	Velocidad del viento	4.8
19854	7	Sololá	701	Sololá	3	Barraneche	4	Abril	2023-04-14T00:00:00	2024-11-06T09:00:00	7	Dirección del viento	4.83
19855	7	Sololá	701	Sololá	3	Barraneche	4	Abril	2023-04-14T00:00:00	2024-11-06T09:00:00	1	Precipitación	0
19856	7	Sololá	701	Sololá	3	Barraneche	4	Abril	2023-04-14T00:00:00	2024-11-06T09:00:00	8	Radiación solar	597
19857	7	Sololá	701	Sololá	3	Barraneche	4	Abril	2023-04-14T00:00:00	2024-11-06T10:00:00	2	Temperatura media	17.9
19858	7	Sololá	701	Sololá	3	Barraneche	4	Abril	2023-04-14T00:00:00	2024-11-06T10:00:00	4	Temperatura máxima	17.9
19859	7	Sololá	701	Sololá	3	Barraneche	4	Abril	2023-04-14T00:00:00	2024-11-06T10:00:00	3	Temperatura mínima	17.1
19860	7	Sololá	701	Sololá	3	Barraneche	4	Abril	2023-04-14T00:00:00	2024-11-06T10:00:00	5	Humedad	44
19861	7	Sololá	701	Sololá	3	Barraneche	4	Abril	2023-04-14T00:00:00	2024-11-06T10:00:00	6	Velocidad del viento	12.9
19862	7	Sololá	701	Sololá	3	Barraneche	4	Abril	2023-04-14T00:00:00	2024-11-06T10:00:00	7	Dirección del viento	12.87
19863	7	Sololá	701	Sololá	3	Barraneche	4	Abril	2023-04-14T00:00:00	2024-11-06T10:00:00	1	Precipitación	0
19864	7	Sololá	701	Sololá	3	Barraneche	4	Abril	2023-04-14T00:00:00	2024-11-06T10:00:00	8	Radiación solar	802
19865	7	Sololá	701	Sololá	3	Barraneche	4	Abril	2023-04-14T00:00:00	2024-11-06T11:00:00	2	Temperatura media	20.8
19866	7	Sololá	701	Sololá	3	Barraneche	4	Abril	2023-04-14T00:00:00	2024-11-06T11:00:00	4	Temperatura máxima	20.8
19867	7	Sololá	701	Sololá	3	Barraneche	4	Abril	2023-04-14T00:00:00	2024-11-06T11:00:00	3	Temperatura mínima	17.9
19868	7	Sololá	701	Sololá	3	Barraneche	4	Abril	2023-04-14T00:00:00	2024-11-06T11:00:00	5	Humedad	26
19869	7	Sololá	701	Sololá	3	Barraneche	4	Abril	2023-04-14T00:00:00	2024-11-06T11:00:00	6	Velocidad del viento	9.7
19870	7	Sololá	701	Sololá	3	Barraneche	4	Abril	2023-04-14T00:00:00	2024-11-06T11:00:00	7	Dirección del viento	9.66
19871	7	Sololá	701	Sololá	3	Barraneche	4	Abril	2023-04-14T00:00:00	2024-11-06T11:00:00	1	Precipitación	0
19872	7	Sololá	701	Sololá	3	Barraneche	4	Abril	2023-04-14T00:00:00	2024-11-06T11:00:00	8	Radiación solar	949
19873	7	Sololá	701	Sololá	3	Barraneche	4	Abril	2023-04-14T00:00:00	2024-11-06T12:00:00	2	Temperatura media	22.8
19874	7	Sololá	701	Sololá	3	Barraneche	4	Abril	2023-04-14T00:00:00	2024-11-06T12:00:00	4	Temperatura máxima	22.8
19875	7	Sololá	701	Sololá	3	Barraneche	4	Abril	2023-04-14T00:00:00	2024-11-06T12:00:00	3	Temperatura mínima	20.8
19876	7	Sololá	701	Sololá	3	Barraneche	4	Abril	2023-04-14T00:00:00	2024-11-06T12:00:00	5	Humedad	23
19877	7	Sololá	701	Sololá	3	Barraneche	4	Abril	2023-04-14T00:00:00	2024-11-06T12:00:00	6	Velocidad del viento	12.9
19878	7	Sololá	701	Sololá	3	Barraneche	4	Abril	2023-04-14T00:00:00	2024-11-06T12:00:00	7	Dirección del viento	12.87
19879	7	Sololá	701	Sololá	3	Barraneche	4	Abril	2023-04-14T00:00:00	2024-11-06T12:00:00	1	Precipitación	0
19880	7	Sololá	701	Sololá	3	Barraneche	4	Abril	2023-04-14T00:00:00	2024-11-06T12:00:00	8	Radiación solar	1036
19881	7	Sololá	701	Sololá	3	Barraneche	4	Abril	2023-04-14T00:00:00	2024-11-06T13:00:00	2	Temperatura media	19.8
19882	7	Sololá	701	Sololá	3	Barraneche	4	Abril	2023-04-14T00:00:00	2024-11-06T13:00:00	4	Temperatura máxima	22.8
19883	7	Sololá	701	Sololá	3	Barraneche	4	Abril	2023-04-14T00:00:00	2024-11-06T13:00:00	3	Temperatura mínima	19.8
19884	7	Sololá	701	Sololá	3	Barraneche	4	Abril	2023-04-14T00:00:00	2024-11-06T13:00:00	5	Humedad	50
19885	7	Sololá	701	Sololá	3	Barraneche	4	Abril	2023-04-14T00:00:00	2024-11-06T13:00:00	6	Velocidad del viento	14.5
19886	7	Sololá	701	Sololá	3	Barraneche	4	Abril	2023-04-14T00:00:00	2024-11-06T13:00:00	7	Dirección del viento	14.48
19887	7	Sololá	701	Sololá	3	Barraneche	4	Abril	2023-04-14T00:00:00	2024-11-06T13:00:00	1	Precipitación	0
19888	7	Sololá	701	Sololá	3	Barraneche	4	Abril	2023-04-14T00:00:00	2024-11-06T13:00:00	8	Radiación solar	1034
19889	7	Sololá	701	Sololá	3	Barraneche	4	Abril	2023-04-14T00:00:00	2024-11-06T14:00:00	2	Temperatura media	18.7
19890	7	Sololá	701	Sololá	3	Barraneche	4	Abril	2023-04-14T00:00:00	2024-11-06T14:00:00	4	Temperatura máxima	19.9
19891	7	Sololá	701	Sololá	3	Barraneche	4	Abril	2023-04-14T00:00:00	2024-11-06T14:00:00	3	Temperatura mínima	18.6
19892	7	Sololá	701	Sololá	3	Barraneche	4	Abril	2023-04-14T00:00:00	2024-11-06T14:00:00	5	Humedad	60
19893	7	Sololá	701	Sololá	3	Barraneche	4	Abril	2023-04-14T00:00:00	2024-11-06T14:00:00	6	Velocidad del viento	17.7
19894	7	Sololá	701	Sololá	3	Barraneche	4	Abril	2023-04-14T00:00:00	2024-11-06T14:00:00	7	Dirección del viento	17.7
19895	7	Sololá	701	Sololá	3	Barraneche	4	Abril	2023-04-14T00:00:00	2024-11-06T14:00:00	1	Precipitación	0
19896	7	Sololá	701	Sololá	3	Barraneche	4	Abril	2023-04-14T00:00:00	2024-11-06T14:00:00	8	Radiación solar	899
19897	7	Sololá	701	Sololá	3	Barraneche	4	Abril	2023-04-14T00:00:00	2024-11-06T15:00:00	2	Temperatura media	18.2
19898	7	Sololá	701	Sololá	3	Barraneche	4	Abril	2023-04-14T00:00:00	2024-11-06T15:00:00	4	Temperatura máxima	18.7
19899	7	Sololá	701	Sololá	3	Barraneche	4	Abril	2023-04-14T00:00:00	2024-11-06T15:00:00	3	Temperatura mínima	18.1
19900	7	Sololá	701	Sololá	3	Barraneche	4	Abril	2023-04-14T00:00:00	2024-11-06T15:00:00	5	Humedad	61
19901	7	Sololá	701	Sololá	3	Barraneche	4	Abril	2023-04-14T00:00:00	2024-11-06T15:00:00	6	Velocidad del viento	12.9
19902	7	Sololá	701	Sololá	3	Barraneche	4	Abril	2023-04-14T00:00:00	2024-11-06T15:00:00	7	Dirección del viento	12.87
19903	7	Sololá	701	Sololá	3	Barraneche	4	Abril	2023-04-14T00:00:00	2024-11-06T15:00:00	1	Precipitación	0
19904	7	Sololá	701	Sololá	3	Barraneche	4	Abril	2023-04-14T00:00:00	2024-11-06T15:00:00	8	Radiación solar	682
19905	7	Sololá	701	Sololá	3	Barraneche	4	Abril	2023-04-14T00:00:00	2024-11-06T16:00:00	2	Temperatura media	16.7
19906	7	Sololá	701	Sololá	3	Barraneche	4	Abril	2023-04-14T00:00:00	2024-11-06T16:00:00	4	Temperatura máxima	18.1
19907	7	Sololá	701	Sololá	3	Barraneche	4	Abril	2023-04-14T00:00:00	2024-11-06T16:00:00	3	Temperatura mínima	16.7
19908	7	Sololá	701	Sololá	3	Barraneche	4	Abril	2023-04-14T00:00:00	2024-11-06T16:00:00	5	Humedad	66
19909	7	Sololá	701	Sololá	3	Barraneche	4	Abril	2023-04-14T00:00:00	2024-11-06T16:00:00	6	Velocidad del viento	12.9
19910	7	Sololá	701	Sololá	3	Barraneche	4	Abril	2023-04-14T00:00:00	2024-11-06T16:00:00	7	Dirección del viento	12.87
19911	7	Sololá	701	Sololá	3	Barraneche	4	Abril	2023-04-14T00:00:00	2024-11-06T16:00:00	1	Precipitación	0
19912	7	Sololá	701	Sololá	3	Barraneche	4	Abril	2023-04-14T00:00:00	2024-11-06T16:00:00	8	Radiación solar	330
19913	7	Sololá	701	Sololá	3	Barraneche	4	Abril	2023-04-14T00:00:00	2024-11-06T17:00:00	2	Temperatura media	16.2
19914	7	Sololá	701	Sololá	3	Barraneche	4	Abril	2023-04-14T00:00:00	2024-11-06T17:00:00	4	Temperatura máxima	16.7
19915	7	Sololá	701	Sololá	3	Barraneche	4	Abril	2023-04-14T00:00:00	2024-11-06T17:00:00	3	Temperatura mínima	16.2
19916	7	Sololá	701	Sololá	3	Barraneche	4	Abril	2023-04-14T00:00:00	2024-11-06T17:00:00	5	Humedad	69
19917	7	Sololá	701	Sololá	3	Barraneche	4	Abril	2023-04-14T00:00:00	2024-11-06T17:00:00	6	Velocidad del viento	11.3
19918	7	Sololá	701	Sololá	3	Barraneche	4	Abril	2023-04-14T00:00:00	2024-11-06T17:00:00	7	Dirección del viento	11.27
19919	7	Sololá	701	Sololá	3	Barraneche	4	Abril	2023-04-14T00:00:00	2024-11-06T17:00:00	1	Precipitación	0
19920	7	Sololá	701	Sololá	3	Barraneche	4	Abril	2023-04-14T00:00:00	2024-11-06T17:00:00	8	Radiación solar	159
19921	7	Sololá	701	Sololá	3	Barraneche	4	Abril	2023-04-14T00:00:00	2024-11-06T18:00:00	2	Temperatura media	15.4
19922	7	Sololá	701	Sololá	3	Barraneche	4	Abril	2023-04-14T00:00:00	2024-11-06T18:00:00	4	Temperatura máxima	16.2
19923	7	Sololá	701	Sololá	3	Barraneche	4	Abril	2023-04-14T00:00:00	2024-11-06T18:00:00	3	Temperatura mínima	15.4
19924	7	Sololá	701	Sololá	3	Barraneche	4	Abril	2023-04-14T00:00:00	2024-11-06T18:00:00	5	Humedad	71
19925	7	Sololá	701	Sololá	3	Barraneche	4	Abril	2023-04-14T00:00:00	2024-11-06T18:00:00	6	Velocidad del viento	8
19926	7	Sololá	701	Sololá	3	Barraneche	4	Abril	2023-04-14T00:00:00	2024-11-06T18:00:00	7	Dirección del viento	8.05
19927	7	Sololá	701	Sololá	3	Barraneche	4	Abril	2023-04-14T00:00:00	2024-11-06T18:00:00	1	Precipitación	0
19928	7	Sololá	701	Sololá	3	Barraneche	4	Abril	2023-04-14T00:00:00	2024-11-06T18:00:00	8	Radiación solar	78
19929	7	Sololá	701	Sololá	3	Barraneche	4	Abril	2023-04-14T00:00:00	2024-11-06T19:00:00	2	Temperatura media	14.7
19930	7	Sololá	701	Sololá	3	Barraneche	4	Abril	2023-04-14T00:00:00	2024-11-06T19:00:00	4	Temperatura máxima	15.4
19931	7	Sololá	701	Sololá	3	Barraneche	4	Abril	2023-04-14T00:00:00	2024-11-06T19:00:00	3	Temperatura mínima	14.7
19932	7	Sololá	701	Sololá	3	Barraneche	4	Abril	2023-04-14T00:00:00	2024-11-06T19:00:00	5	Humedad	71
19933	7	Sololá	701	Sololá	3	Barraneche	4	Abril	2023-04-14T00:00:00	2024-11-06T19:00:00	6	Velocidad del viento	3.2
19934	7	Sololá	701	Sololá	3	Barraneche	4	Abril	2023-04-14T00:00:00	2024-11-06T19:00:00	7	Dirección del viento	3.22
19935	7	Sololá	701	Sololá	3	Barraneche	4	Abril	2023-04-14T00:00:00	2024-11-06T19:00:00	1	Precipitación	0
19936	7	Sololá	701	Sololá	3	Barraneche	4	Abril	2023-04-14T00:00:00	2024-11-06T19:00:00	8	Radiación solar	0
19937	7	Sololá	701	Sololá	3	Barraneche	4	Abril	2023-04-14T00:00:00	2024-11-06T20:00:00	2	Temperatura media	13.7
19938	7	Sololá	701	Sololá	3	Barraneche	4	Abril	2023-04-14T00:00:00	2024-11-06T20:00:00	4	Temperatura máxima	14.7
19939	7	Sololá	701	Sololá	3	Barraneche	4	Abril	2023-04-14T00:00:00	2024-11-06T20:00:00	3	Temperatura mínima	13.7
19940	7	Sololá	701	Sololá	3	Barraneche	4	Abril	2023-04-14T00:00:00	2024-11-06T20:00:00	5	Humedad	69
19941	7	Sololá	701	Sololá	3	Barraneche	4	Abril	2023-04-14T00:00:00	2024-11-06T20:00:00	6	Velocidad del viento	1.6
19942	7	Sololá	701	Sololá	3	Barraneche	4	Abril	2023-04-14T00:00:00	2024-11-06T20:00:00	7	Dirección del viento	1.61
19943	7	Sololá	701	Sololá	3	Barraneche	4	Abril	2023-04-14T00:00:00	2024-11-06T20:00:00	1	Precipitación	0
19944	7	Sololá	701	Sololá	3	Barraneche	4	Abril	2023-04-14T00:00:00	2024-11-06T20:00:00	8	Radiación solar	0
19945	7	Sololá	701	Sololá	3	Barraneche	4	Abril	2023-04-14T00:00:00	2024-11-06T21:00:00	2	Temperatura media	13.2
19946	7	Sololá	701	Sololá	3	Barraneche	4	Abril	2023-04-14T00:00:00	2024-11-06T21:00:00	4	Temperatura máxima	13.7
19947	7	Sololá	701	Sololá	3	Barraneche	4	Abril	2023-04-14T00:00:00	2024-11-06T21:00:00	3	Temperatura mínima	13.1
19948	7	Sololá	701	Sololá	3	Barraneche	4	Abril	2023-04-14T00:00:00	2024-11-06T21:00:00	5	Humedad	68
19949	7	Sololá	701	Sololá	3	Barraneche	4	Abril	2023-04-14T00:00:00	2024-11-06T21:00:00	6	Velocidad del viento	4.8
19950	7	Sololá	701	Sololá	3	Barraneche	4	Abril	2023-04-14T00:00:00	2024-11-06T21:00:00	7	Dirección del viento	4.83
19951	7	Sololá	701	Sololá	3	Barraneche	4	Abril	2023-04-14T00:00:00	2024-11-06T21:00:00	1	Precipitación	0
19952	7	Sololá	701	Sololá	3	Barraneche	4	Abril	2023-04-14T00:00:00	2024-11-06T21:00:00	8	Radiación solar	0
19953	7	Sololá	701	Sololá	3	Barraneche	4	Abril	2023-04-14T00:00:00	2024-11-06T22:00:00	2	Temperatura media	12.3
19954	7	Sololá	701	Sololá	3	Barraneche	4	Abril	2023-04-14T00:00:00	2024-11-06T22:00:00	4	Temperatura máxima	13.2
19955	7	Sololá	701	Sololá	3	Barraneche	4	Abril	2023-04-14T00:00:00	2024-11-06T22:00:00	3	Temperatura mínima	12.2
19956	7	Sololá	701	Sololá	3	Barraneche	4	Abril	2023-04-14T00:00:00	2024-11-06T22:00:00	5	Humedad	70
19957	7	Sololá	701	Sololá	3	Barraneche	4	Abril	2023-04-14T00:00:00	2024-11-06T22:00:00	6	Velocidad del viento	3.2
19958	7	Sololá	701	Sololá	3	Barraneche	4	Abril	2023-04-14T00:00:00	2024-11-06T22:00:00	7	Dirección del viento	3.22
19959	7	Sololá	701	Sololá	3	Barraneche	4	Abril	2023-04-14T00:00:00	2024-11-06T22:00:00	1	Precipitación	0
19960	7	Sololá	701	Sololá	3	Barraneche	4	Abril	2023-04-14T00:00:00	2024-11-06T22:00:00	8	Radiación solar	0
19961	7	Sololá	701	Sololá	3	Barraneche	4	Abril	2023-04-14T00:00:00	2024-11-06T23:00:00	2	Temperatura media	12.1
19962	7	Sololá	701	Sololá	3	Barraneche	4	Abril	2023-04-14T00:00:00	2024-11-06T23:00:00	4	Temperatura máxima	12.2
19963	7	Sololá	701	Sololá	3	Barraneche	4	Abril	2023-04-14T00:00:00	2024-11-06T23:00:00	3	Temperatura mínima	11.7
19964	7	Sololá	701	Sololá	3	Barraneche	4	Abril	2023-04-14T00:00:00	2024-11-06T23:00:00	5	Humedad	67
19965	7	Sololá	701	Sololá	3	Barraneche	4	Abril	2023-04-14T00:00:00	2024-11-06T23:00:00	6	Velocidad del viento	6.4
19966	7	Sololá	701	Sololá	3	Barraneche	4	Abril	2023-04-14T00:00:00	2024-11-06T23:00:00	7	Dirección del viento	6.44
19967	7	Sololá	701	Sololá	3	Barraneche	4	Abril	2023-04-14T00:00:00	2024-11-06T23:00:00	1	Precipitación	0
19968	7	Sololá	701	Sololá	3	Barraneche	4	Abril	2023-04-14T00:00:00	2024-11-06T23:00:00	8	Radiación solar	0
19969	7	Sololá	701	Sololá	3	Barraneche	4	Abril	2023-04-15T00:00:00	2024-11-06T00:00:00	2	Temperatura media	12.7
19970	7	Sololá	701	Sololá	3	Barraneche	4	Abril	2023-04-15T00:00:00	2024-11-06T00:00:00	4	Temperatura máxima	12.8
19971	7	Sololá	701	Sololá	3	Barraneche	4	Abril	2023-04-15T00:00:00	2024-11-06T00:00:00	3	Temperatura mínima	11.7
19972	7	Sololá	701	Sololá	3	Barraneche	4	Abril	2023-04-15T00:00:00	2024-11-06T00:00:00	5	Humedad	65
19973	7	Sololá	701	Sololá	3	Barraneche	4	Abril	2023-04-15T00:00:00	2024-11-06T00:00:00	6	Velocidad del viento	6.4
19974	7	Sololá	701	Sololá	3	Barraneche	4	Abril	2023-04-15T00:00:00	2024-11-06T00:00:00	7	Dirección del viento	6.44
19975	7	Sololá	701	Sololá	3	Barraneche	4	Abril	2023-04-15T00:00:00	2024-11-06T00:00:00	1	Precipitación	0
19976	7	Sololá	701	Sololá	3	Barraneche	4	Abril	2023-04-15T00:00:00	2024-11-06T00:00:00	8	Radiación solar	0
19977	7	Sololá	701	Sololá	3	Barraneche	4	Abril	2023-04-15T00:00:00	2024-11-06T01:00:00	2	Temperatura media	12.1
19978	7	Sololá	701	Sololá	3	Barraneche	4	Abril	2023-04-15T00:00:00	2024-11-06T01:00:00	4	Temperatura máxima	12.7
19979	7	Sololá	701	Sololá	3	Barraneche	4	Abril	2023-04-15T00:00:00	2024-11-06T01:00:00	3	Temperatura mínima	12.1
19980	7	Sololá	701	Sololá	3	Barraneche	4	Abril	2023-04-15T00:00:00	2024-11-06T01:00:00	5	Humedad	69
19981	7	Sololá	701	Sololá	3	Barraneche	4	Abril	2023-04-15T00:00:00	2024-11-06T01:00:00	6	Velocidad del viento	1.6
19982	7	Sololá	701	Sololá	3	Barraneche	4	Abril	2023-04-15T00:00:00	2024-11-06T01:00:00	7	Dirección del viento	1.61
19983	7	Sololá	701	Sololá	3	Barraneche	4	Abril	2023-04-15T00:00:00	2024-11-06T01:00:00	1	Precipitación	0
19984	7	Sololá	701	Sololá	3	Barraneche	4	Abril	2023-04-15T00:00:00	2024-11-06T01:00:00	8	Radiación solar	0
19985	7	Sololá	701	Sololá	3	Barraneche	4	Abril	2023-04-15T00:00:00	2024-11-06T02:00:00	2	Temperatura media	11.7
19986	7	Sololá	701	Sololá	3	Barraneche	4	Abril	2023-04-15T00:00:00	2024-11-06T02:00:00	4	Temperatura máxima	12.1
19987	7	Sololá	701	Sololá	3	Barraneche	4	Abril	2023-04-15T00:00:00	2024-11-06T02:00:00	3	Temperatura mínima	11.4
19988	7	Sololá	701	Sololá	3	Barraneche	4	Abril	2023-04-15T00:00:00	2024-11-06T02:00:00	5	Humedad	70
19989	7	Sololá	701	Sololá	3	Barraneche	4	Abril	2023-04-15T00:00:00	2024-11-06T02:00:00	6	Velocidad del viento	4.8
19990	7	Sololá	701	Sololá	3	Barraneche	4	Abril	2023-04-15T00:00:00	2024-11-06T02:00:00	7	Dirección del viento	4.83
19991	7	Sololá	701	Sololá	3	Barraneche	4	Abril	2023-04-15T00:00:00	2024-11-06T02:00:00	1	Precipitación	0
19992	7	Sololá	701	Sololá	3	Barraneche	4	Abril	2023-04-15T00:00:00	2024-11-06T02:00:00	8	Radiación solar	0
19993	7	Sololá	701	Sololá	3	Barraneche	4	Abril	2023-04-15T00:00:00	2024-11-06T03:00:00	2	Temperatura media	10.9
19994	7	Sololá	701	Sololá	3	Barraneche	4	Abril	2023-04-15T00:00:00	2024-11-06T03:00:00	4	Temperatura máxima	11.7
19995	7	Sololá	701	Sololá	3	Barraneche	4	Abril	2023-04-15T00:00:00	2024-11-06T03:00:00	3	Temperatura mínima	10.8
19996	7	Sololá	701	Sololá	3	Barraneche	4	Abril	2023-04-15T00:00:00	2024-11-06T03:00:00	5	Humedad	70
19997	7	Sololá	701	Sololá	3	Barraneche	4	Abril	2023-04-15T00:00:00	2024-11-06T03:00:00	6	Velocidad del viento	3.2
19998	7	Sololá	701	Sololá	3	Barraneche	4	Abril	2023-04-15T00:00:00	2024-11-06T03:00:00	7	Dirección del viento	3.22
19999	7	Sololá	701	Sololá	3	Barraneche	4	Abril	2023-04-15T00:00:00	2024-11-06T03:00:00	1	Precipitación	0
20000	7	Sololá	701	Sololá	3	Barraneche	4	Abril	2023-04-15T00:00:00	2024-11-06T03:00:00	8	Radiación solar	0
20001	7	Sololá	701	Sololá	3	Barraneche	4	Abril	2023-04-15T00:00:00	2024-11-06T04:00:00	2	Temperatura media	11.4
20002	7	Sololá	701	Sololá	3	Barraneche	4	Abril	2023-04-15T00:00:00	2024-11-06T04:00:00	4	Temperatura máxima	11.4
20003	7	Sololá	701	Sololá	3	Barraneche	4	Abril	2023-04-15T00:00:00	2024-11-06T04:00:00	3	Temperatura mínima	10.8
20004	7	Sololá	701	Sololá	3	Barraneche	4	Abril	2023-04-15T00:00:00	2024-11-06T04:00:00	5	Humedad	66
20005	7	Sololá	701	Sololá	3	Barraneche	4	Abril	2023-04-15T00:00:00	2024-11-06T04:00:00	6	Velocidad del viento	6.4
20006	7	Sololá	701	Sololá	3	Barraneche	4	Abril	2023-04-15T00:00:00	2024-11-06T04:00:00	7	Dirección del viento	6.44
20007	7	Sololá	701	Sololá	3	Barraneche	4	Abril	2023-04-15T00:00:00	2024-11-06T04:00:00	1	Precipitación	0
20008	7	Sololá	701	Sololá	3	Barraneche	4	Abril	2023-04-15T00:00:00	2024-11-06T04:00:00	8	Radiación solar	0
20009	7	Sololá	701	Sololá	3	Barraneche	4	Abril	2023-04-15T00:00:00	2024-11-06T05:00:00	2	Temperatura media	10.8
20010	7	Sololá	701	Sololá	3	Barraneche	4	Abril	2023-04-15T00:00:00	2024-11-06T05:00:00	4	Temperatura máxima	11.4
20011	7	Sololá	701	Sololá	3	Barraneche	4	Abril	2023-04-15T00:00:00	2024-11-06T05:00:00	3	Temperatura mínima	10.8
20012	7	Sololá	701	Sololá	3	Barraneche	4	Abril	2023-04-15T00:00:00	2024-11-06T05:00:00	5	Humedad	67
20013	7	Sololá	701	Sololá	3	Barraneche	4	Abril	2023-04-15T00:00:00	2024-11-06T05:00:00	6	Velocidad del viento	4.8
20014	7	Sololá	701	Sololá	3	Barraneche	4	Abril	2023-04-15T00:00:00	2024-11-06T05:00:00	7	Dirección del viento	4.83
20015	7	Sololá	701	Sololá	3	Barraneche	4	Abril	2023-04-15T00:00:00	2024-11-06T05:00:00	1	Precipitación	0
20016	7	Sololá	701	Sololá	3	Barraneche	4	Abril	2023-04-15T00:00:00	2024-11-06T05:00:00	8	Radiación solar	0
20017	7	Sololá	701	Sololá	3	Barraneche	4	Abril	2023-04-15T00:00:00	2024-11-06T06:00:00	2	Temperatura media	10.1
20018	7	Sololá	701	Sololá	3	Barraneche	4	Abril	2023-04-15T00:00:00	2024-11-06T06:00:00	4	Temperatura máxima	10.8
20019	7	Sololá	701	Sololá	3	Barraneche	4	Abril	2023-04-15T00:00:00	2024-11-06T06:00:00	3	Temperatura mínima	10.1
20020	7	Sololá	701	Sololá	3	Barraneche	4	Abril	2023-04-15T00:00:00	2024-11-06T06:00:00	5	Humedad	67
20021	7	Sololá	701	Sololá	3	Barraneche	4	Abril	2023-04-15T00:00:00	2024-11-06T06:00:00	6	Velocidad del viento	6.4
20022	7	Sololá	701	Sololá	3	Barraneche	4	Abril	2023-04-15T00:00:00	2024-11-06T06:00:00	7	Dirección del viento	6.44
20023	7	Sololá	701	Sololá	3	Barraneche	4	Abril	2023-04-15T00:00:00	2024-11-06T06:00:00	1	Precipitación	0
20024	7	Sololá	701	Sololá	3	Barraneche	4	Abril	2023-04-15T00:00:00	2024-11-06T06:00:00	8	Radiación solar	2
20025	7	Sololá	701	Sololá	3	Barraneche	4	Abril	2023-04-15T00:00:00	2024-11-06T07:00:00	2	Temperatura media	11.6
20026	7	Sololá	701	Sololá	3	Barraneche	4	Abril	2023-04-15T00:00:00	2024-11-06T07:00:00	4	Temperatura máxima	11.6
20027	7	Sololá	701	Sololá	3	Barraneche	4	Abril	2023-04-15T00:00:00	2024-11-06T07:00:00	3	Temperatura mínima	10.1
20028	7	Sololá	701	Sololá	3	Barraneche	4	Abril	2023-04-15T00:00:00	2024-11-06T07:00:00	5	Humedad	66
20029	7	Sololá	701	Sololá	3	Barraneche	4	Abril	2023-04-15T00:00:00	2024-11-06T07:00:00	6	Velocidad del viento	6.4
20030	7	Sololá	701	Sololá	3	Barraneche	4	Abril	2023-04-15T00:00:00	2024-11-06T07:00:00	7	Dirección del viento	6.44
20031	7	Sololá	701	Sololá	3	Barraneche	4	Abril	2023-04-15T00:00:00	2024-11-06T07:00:00	1	Precipitación	0
20032	7	Sololá	701	Sololá	3	Barraneche	4	Abril	2023-04-15T00:00:00	2024-11-06T07:00:00	8	Radiación solar	59
20033	7	Sololá	701	Sololá	3	Barraneche	4	Abril	2023-04-15T00:00:00	2024-11-06T08:00:00	2	Temperatura media	14.7
20034	7	Sololá	701	Sololá	3	Barraneche	4	Abril	2023-04-15T00:00:00	2024-11-06T08:00:00	4	Temperatura máxima	14.7
20035	7	Sololá	701	Sololá	3	Barraneche	4	Abril	2023-04-15T00:00:00	2024-11-06T08:00:00	3	Temperatura mínima	11.6
20036	7	Sololá	701	Sololá	3	Barraneche	4	Abril	2023-04-15T00:00:00	2024-11-06T08:00:00	5	Humedad	62
20037	7	Sololá	701	Sololá	3	Barraneche	4	Abril	2023-04-15T00:00:00	2024-11-06T08:00:00	6	Velocidad del viento	4.8
20038	7	Sololá	701	Sololá	3	Barraneche	4	Abril	2023-04-15T00:00:00	2024-11-06T08:00:00	7	Dirección del viento	4.83
20039	7	Sololá	701	Sololá	3	Barraneche	4	Abril	2023-04-15T00:00:00	2024-11-06T08:00:00	1	Precipitación	0
20040	7	Sololá	701	Sololá	3	Barraneche	4	Abril	2023-04-15T00:00:00	2024-11-06T08:00:00	8	Radiación solar	282
20041	7	Sololá	701	Sololá	3	Barraneche	4	Abril	2023-04-15T00:00:00	2024-11-06T09:00:00	2	Temperatura media	17.3
20042	7	Sololá	701	Sololá	3	Barraneche	4	Abril	2023-04-15T00:00:00	2024-11-06T09:00:00	4	Temperatura máxima	17.3
20043	7	Sololá	701	Sololá	3	Barraneche	4	Abril	2023-04-15T00:00:00	2024-11-06T09:00:00	3	Temperatura mínima	14.7
20044	7	Sololá	701	Sololá	3	Barraneche	4	Abril	2023-04-15T00:00:00	2024-11-06T09:00:00	5	Humedad	55
20045	7	Sololá	701	Sololá	3	Barraneche	4	Abril	2023-04-15T00:00:00	2024-11-06T09:00:00	6	Velocidad del viento	4.8
20046	7	Sololá	701	Sololá	3	Barraneche	4	Abril	2023-04-15T00:00:00	2024-11-06T09:00:00	7	Dirección del viento	4.83
20047	7	Sololá	701	Sololá	3	Barraneche	4	Abril	2023-04-15T00:00:00	2024-11-06T09:00:00	1	Precipitación	0
20048	7	Sololá	701	Sololá	3	Barraneche	4	Abril	2023-04-15T00:00:00	2024-11-06T09:00:00	8	Radiación solar	580
20049	7	Sololá	701	Sololá	3	Barraneche	4	Abril	2023-04-15T00:00:00	2024-11-06T10:00:00	2	Temperatura media	17.1
20050	7	Sololá	701	Sololá	3	Barraneche	4	Abril	2023-04-15T00:00:00	2024-11-06T10:00:00	4	Temperatura máxima	17.8
20051	7	Sololá	701	Sololá	3	Barraneche	4	Abril	2023-04-15T00:00:00	2024-11-06T10:00:00	3	Temperatura mínima	17.1
20052	7	Sololá	701	Sololá	3	Barraneche	4	Abril	2023-04-15T00:00:00	2024-11-06T10:00:00	5	Humedad	60
20053	7	Sololá	701	Sololá	3	Barraneche	4	Abril	2023-04-15T00:00:00	2024-11-06T10:00:00	6	Velocidad del viento	9.7
20054	7	Sololá	701	Sololá	3	Barraneche	4	Abril	2023-04-15T00:00:00	2024-11-06T10:00:00	7	Dirección del viento	9.66
20055	7	Sololá	701	Sololá	3	Barraneche	4	Abril	2023-04-15T00:00:00	2024-11-06T10:00:00	1	Precipitación	0
20056	7	Sololá	701	Sololá	3	Barraneche	4	Abril	2023-04-15T00:00:00	2024-11-06T10:00:00	8	Radiación solar	567
20057	7	Sololá	701	Sololá	3	Barraneche	4	Abril	2023-04-15T00:00:00	2024-11-06T11:00:00	2	Temperatura media	18
20058	7	Sololá	701	Sololá	3	Barraneche	4	Abril	2023-04-15T00:00:00	2024-11-06T11:00:00	4	Temperatura máxima	18.5
20059	7	Sololá	701	Sololá	3	Barraneche	4	Abril	2023-04-15T00:00:00	2024-11-06T11:00:00	3	Temperatura mínima	17.1
20060	7	Sololá	701	Sololá	3	Barraneche	4	Abril	2023-04-15T00:00:00	2024-11-06T11:00:00	5	Humedad	59
20061	7	Sololá	701	Sololá	3	Barraneche	4	Abril	2023-04-15T00:00:00	2024-11-06T11:00:00	6	Velocidad del viento	11.3
20062	7	Sololá	701	Sololá	3	Barraneche	4	Abril	2023-04-15T00:00:00	2024-11-06T11:00:00	7	Dirección del viento	11.27
20063	7	Sololá	701	Sololá	3	Barraneche	4	Abril	2023-04-15T00:00:00	2024-11-06T11:00:00	1	Precipitación	0
20064	7	Sololá	701	Sololá	3	Barraneche	4	Abril	2023-04-15T00:00:00	2024-11-06T11:00:00	8	Radiación solar	670
20065	7	Sololá	701	Sololá	3	Barraneche	4	Abril	2023-04-15T00:00:00	2024-11-06T12:00:00	2	Temperatura media	18.7
20066	7	Sololá	701	Sololá	3	Barraneche	4	Abril	2023-04-15T00:00:00	2024-11-06T12:00:00	4	Temperatura máxima	19.2
20067	7	Sololá	701	Sololá	3	Barraneche	4	Abril	2023-04-15T00:00:00	2024-11-06T12:00:00	3	Temperatura mínima	17.9
20068	7	Sololá	701	Sololá	3	Barraneche	4	Abril	2023-04-15T00:00:00	2024-11-06T12:00:00	5	Humedad	60
20069	7	Sololá	701	Sololá	3	Barraneche	4	Abril	2023-04-15T00:00:00	2024-11-06T12:00:00	6	Velocidad del viento	12.9
20070	7	Sololá	701	Sololá	3	Barraneche	4	Abril	2023-04-15T00:00:00	2024-11-06T12:00:00	7	Dirección del viento	12.87
20071	7	Sololá	701	Sololá	3	Barraneche	4	Abril	2023-04-15T00:00:00	2024-11-06T12:00:00	1	Precipitación	0
20072	7	Sololá	701	Sololá	3	Barraneche	4	Abril	2023-04-15T00:00:00	2024-11-06T12:00:00	8	Radiación solar	1059
20073	7	Sololá	701	Sololá	3	Barraneche	4	Abril	2023-04-15T00:00:00	2024-11-06T13:00:00	2	Temperatura media	19.2
20074	7	Sololá	701	Sololá	3	Barraneche	4	Abril	2023-04-15T00:00:00	2024-11-06T13:00:00	4	Temperatura máxima	19.3
20075	7	Sololá	701	Sololá	3	Barraneche	4	Abril	2023-04-15T00:00:00	2024-11-06T13:00:00	3	Temperatura mínima	18.4
20076	7	Sololá	701	Sololá	3	Barraneche	4	Abril	2023-04-15T00:00:00	2024-11-06T13:00:00	5	Humedad	57
20077	7	Sololá	701	Sololá	3	Barraneche	4	Abril	2023-04-15T00:00:00	2024-11-06T13:00:00	6	Velocidad del viento	14.5
20078	7	Sololá	701	Sololá	3	Barraneche	4	Abril	2023-04-15T00:00:00	2024-11-06T13:00:00	7	Dirección del viento	14.48
20079	7	Sololá	701	Sololá	3	Barraneche	4	Abril	2023-04-15T00:00:00	2024-11-06T13:00:00	1	Precipitación	0
20080	7	Sololá	701	Sololá	3	Barraneche	4	Abril	2023-04-15T00:00:00	2024-11-06T13:00:00	8	Radiación solar	1090
20081	7	Sololá	701	Sololá	3	Barraneche	4	Abril	2023-04-15T00:00:00	2024-11-06T14:00:00	2	Temperatura media	19.3
20082	7	Sololá	701	Sololá	3	Barraneche	4	Abril	2023-04-15T00:00:00	2024-11-06T14:00:00	4	Temperatura máxima	19.7
20083	7	Sololá	701	Sololá	3	Barraneche	4	Abril	2023-04-15T00:00:00	2024-11-06T14:00:00	3	Temperatura mínima	18.9
20084	7	Sololá	701	Sololá	3	Barraneche	4	Abril	2023-04-15T00:00:00	2024-11-06T14:00:00	5	Humedad	60
20085	7	Sololá	701	Sololá	3	Barraneche	4	Abril	2023-04-15T00:00:00	2024-11-06T14:00:00	6	Velocidad del viento	14.5
20086	7	Sololá	701	Sololá	3	Barraneche	4	Abril	2023-04-15T00:00:00	2024-11-06T14:00:00	7	Dirección del viento	14.48
20087	7	Sololá	701	Sololá	3	Barraneche	4	Abril	2023-04-15T00:00:00	2024-11-06T14:00:00	1	Precipitación	0
20088	7	Sololá	701	Sololá	3	Barraneche	4	Abril	2023-04-15T00:00:00	2024-11-06T14:00:00	8	Radiación solar	968
20089	7	Sololá	701	Sololá	3	Barraneche	4	Abril	2023-04-15T00:00:00	2024-11-06T15:00:00	2	Temperatura media	16.7
20090	7	Sololá	701	Sololá	3	Barraneche	4	Abril	2023-04-15T00:00:00	2024-11-06T15:00:00	4	Temperatura máxima	19.4
20091	7	Sololá	701	Sololá	3	Barraneche	4	Abril	2023-04-15T00:00:00	2024-11-06T15:00:00	3	Temperatura mínima	16.7
20092	7	Sololá	701	Sololá	3	Barraneche	4	Abril	2023-04-15T00:00:00	2024-11-06T15:00:00	5	Humedad	70
20093	7	Sololá	701	Sololá	3	Barraneche	4	Abril	2023-04-15T00:00:00	2024-11-06T15:00:00	6	Velocidad del viento	14.5
20094	7	Sololá	701	Sololá	3	Barraneche	4	Abril	2023-04-15T00:00:00	2024-11-06T15:00:00	7	Dirección del viento	14.48
20095	7	Sololá	701	Sololá	3	Barraneche	4	Abril	2023-04-15T00:00:00	2024-11-06T15:00:00	1	Precipitación	0
20096	7	Sololá	701	Sololá	3	Barraneche	4	Abril	2023-04-15T00:00:00	2024-11-06T15:00:00	8	Radiación solar	222
20097	7	Sololá	701	Sololá	3	Barraneche	4	Abril	2023-04-15T00:00:00	2024-11-06T16:00:00	2	Temperatura media	16.7
20098	7	Sololá	701	Sololá	3	Barraneche	4	Abril	2023-04-15T00:00:00	2024-11-06T16:00:00	4	Temperatura máxima	16.8
20099	7	Sololá	701	Sololá	3	Barraneche	4	Abril	2023-04-15T00:00:00	2024-11-06T16:00:00	3	Temperatura mínima	16.2
20100	7	Sololá	701	Sololá	3	Barraneche	4	Abril	2023-04-15T00:00:00	2024-11-06T16:00:00	5	Humedad	69
20101	7	Sololá	701	Sololá	3	Barraneche	4	Abril	2023-04-15T00:00:00	2024-11-06T16:00:00	6	Velocidad del viento	8
20102	7	Sololá	701	Sololá	3	Barraneche	4	Abril	2023-04-15T00:00:00	2024-11-06T16:00:00	7	Dirección del viento	8.05
20103	7	Sololá	701	Sololá	3	Barraneche	4	Abril	2023-04-15T00:00:00	2024-11-06T16:00:00	1	Precipitación	0
20104	7	Sololá	701	Sololá	3	Barraneche	4	Abril	2023-04-15T00:00:00	2024-11-06T16:00:00	8	Radiación solar	178
20105	7	Sololá	701	Sololá	3	Barraneche	4	Abril	2023-04-15T00:00:00	2024-11-06T17:00:00	2	Temperatura media	15.9
20106	7	Sololá	701	Sololá	3	Barraneche	4	Abril	2023-04-15T00:00:00	2024-11-06T17:00:00	4	Temperatura máxima	16.7
20107	7	Sololá	701	Sololá	3	Barraneche	4	Abril	2023-04-15T00:00:00	2024-11-06T17:00:00	3	Temperatura mínima	15.8
20108	7	Sololá	701	Sololá	3	Barraneche	4	Abril	2023-04-15T00:00:00	2024-11-06T17:00:00	5	Humedad	70
20109	7	Sololá	701	Sololá	3	Barraneche	4	Abril	2023-04-15T00:00:00	2024-11-06T17:00:00	6	Velocidad del viento	6.4
20110	7	Sololá	701	Sololá	3	Barraneche	4	Abril	2023-04-15T00:00:00	2024-11-06T17:00:00	7	Dirección del viento	6.44
20111	7	Sololá	701	Sololá	3	Barraneche	4	Abril	2023-04-15T00:00:00	2024-11-06T17:00:00	1	Precipitación	0
20112	7	Sololá	701	Sololá	3	Barraneche	4	Abril	2023-04-15T00:00:00	2024-11-06T17:00:00	8	Radiación solar	90
20113	7	Sololá	701	Sololá	3	Barraneche	4	Abril	2023-04-15T00:00:00	2024-11-06T18:00:00	2	Temperatura media	15.4
20114	7	Sololá	701	Sololá	3	Barraneche	4	Abril	2023-04-15T00:00:00	2024-11-06T18:00:00	4	Temperatura máxima	16
20115	7	Sololá	701	Sololá	3	Barraneche	4	Abril	2023-04-15T00:00:00	2024-11-06T18:00:00	3	Temperatura mínima	15.4
20116	7	Sololá	701	Sololá	3	Barraneche	4	Abril	2023-04-15T00:00:00	2024-11-06T18:00:00	5	Humedad	72
20117	7	Sololá	701	Sololá	3	Barraneche	4	Abril	2023-04-15T00:00:00	2024-11-06T18:00:00	6	Velocidad del viento	4.8
20118	7	Sololá	701	Sololá	3	Barraneche	4	Abril	2023-04-15T00:00:00	2024-11-06T18:00:00	7	Dirección del viento	4.83
20119	7	Sololá	701	Sololá	3	Barraneche	4	Abril	2023-04-15T00:00:00	2024-11-06T18:00:00	1	Precipitación	0
20120	7	Sololá	701	Sololá	3	Barraneche	4	Abril	2023-04-15T00:00:00	2024-11-06T18:00:00	8	Radiación solar	24
20121	7	Sololá	701	Sololá	3	Barraneche	4	Abril	2023-04-15T00:00:00	2024-11-06T19:00:00	2	Temperatura media	14.9
20122	7	Sololá	701	Sololá	3	Barraneche	4	Abril	2023-04-15T00:00:00	2024-11-06T19:00:00	4	Temperatura máxima	15.4
20123	7	Sololá	701	Sololá	3	Barraneche	4	Abril	2023-04-15T00:00:00	2024-11-06T19:00:00	3	Temperatura mínima	14.9
20124	7	Sololá	701	Sololá	3	Barraneche	4	Abril	2023-04-15T00:00:00	2024-11-06T19:00:00	5	Humedad	74
20125	7	Sololá	701	Sololá	3	Barraneche	4	Abril	2023-04-15T00:00:00	2024-11-06T19:00:00	6	Velocidad del viento	3.2
20126	7	Sololá	701	Sololá	3	Barraneche	4	Abril	2023-04-15T00:00:00	2024-11-06T19:00:00	7	Dirección del viento	3.22
20127	7	Sololá	701	Sololá	3	Barraneche	4	Abril	2023-04-15T00:00:00	2024-11-06T19:00:00	1	Precipitación	0
20128	7	Sololá	701	Sololá	3	Barraneche	4	Abril	2023-04-15T00:00:00	2024-11-06T19:00:00	8	Radiación solar	0
20129	7	Sololá	701	Sololá	3	Barraneche	4	Abril	2023-04-15T00:00:00	2024-11-06T20:00:00	2	Temperatura media	15.1
20130	7	Sololá	701	Sololá	3	Barraneche	4	Abril	2023-04-15T00:00:00	2024-11-06T20:00:00	4	Temperatura máxima	15.2
20131	7	Sololá	701	Sololá	3	Barraneche	4	Abril	2023-04-15T00:00:00	2024-11-06T20:00:00	3	Temperatura mínima	14.8
20132	7	Sololá	701	Sololá	3	Barraneche	4	Abril	2023-04-15T00:00:00	2024-11-06T20:00:00	5	Humedad	71
20133	7	Sololá	701	Sololá	3	Barraneche	4	Abril	2023-04-15T00:00:00	2024-11-06T20:00:00	6	Velocidad del viento	1.6
20134	7	Sololá	701	Sololá	3	Barraneche	4	Abril	2023-04-15T00:00:00	2024-11-06T20:00:00	7	Dirección del viento	1.61
20135	7	Sololá	701	Sololá	3	Barraneche	4	Abril	2023-04-15T00:00:00	2024-11-06T20:00:00	1	Precipitación	0
20136	7	Sololá	701	Sololá	3	Barraneche	4	Abril	2023-04-15T00:00:00	2024-11-06T20:00:00	8	Radiación solar	0
20137	7	Sololá	701	Sololá	3	Barraneche	4	Abril	2023-04-15T00:00:00	2024-11-06T21:00:00	2	Temperatura media	15.2
20138	7	Sololá	701	Sololá	3	Barraneche	4	Abril	2023-04-15T00:00:00	2024-11-06T21:00:00	4	Temperatura máxima	15.3
20139	7	Sololá	701	Sololá	3	Barraneche	4	Abril	2023-04-15T00:00:00	2024-11-06T21:00:00	3	Temperatura mínima	14.9
20140	7	Sololá	701	Sololá	3	Barraneche	4	Abril	2023-04-15T00:00:00	2024-11-06T21:00:00	5	Humedad	73
20141	7	Sololá	701	Sololá	3	Barraneche	4	Abril	2023-04-15T00:00:00	2024-11-06T21:00:00	6	Velocidad del viento	1.6
20142	7	Sololá	701	Sololá	3	Barraneche	4	Abril	2023-04-15T00:00:00	2024-11-06T21:00:00	7	Dirección del viento	1.61
20143	7	Sololá	701	Sololá	3	Barraneche	4	Abril	2023-04-15T00:00:00	2024-11-06T21:00:00	1	Precipitación	0
20144	7	Sololá	701	Sololá	3	Barraneche	4	Abril	2023-04-15T00:00:00	2024-11-06T21:00:00	8	Radiación solar	0
20145	7	Sololá	701	Sololá	3	Barraneche	4	Abril	2023-04-15T00:00:00	2024-11-06T22:00:00	2	Temperatura media	14.7
20146	7	Sololá	701	Sololá	3	Barraneche	4	Abril	2023-04-15T00:00:00	2024-11-06T22:00:00	4	Temperatura máxima	15.2
20147	7	Sololá	701	Sololá	3	Barraneche	4	Abril	2023-04-15T00:00:00	2024-11-06T22:00:00	3	Temperatura mínima	14.6
20148	7	Sololá	701	Sololá	3	Barraneche	4	Abril	2023-04-15T00:00:00	2024-11-06T22:00:00	5	Humedad	71
20149	7	Sololá	701	Sololá	3	Barraneche	4	Abril	2023-04-15T00:00:00	2024-11-06T22:00:00	6	Velocidad del viento	1.6
20150	7	Sololá	701	Sololá	3	Barraneche	4	Abril	2023-04-15T00:00:00	2024-11-06T22:00:00	7	Dirección del viento	1.61
20151	7	Sololá	701	Sololá	3	Barraneche	4	Abril	2023-04-15T00:00:00	2024-11-06T22:00:00	1	Precipitación	0
20152	7	Sololá	701	Sololá	3	Barraneche	4	Abril	2023-04-15T00:00:00	2024-11-06T22:00:00	8	Radiación solar	0
20153	7	Sololá	701	Sololá	3	Barraneche	4	Abril	2023-04-15T00:00:00	2024-11-06T23:00:00	2	Temperatura media	12.7
20154	7	Sololá	701	Sololá	3	Barraneche	4	Abril	2023-04-15T00:00:00	2024-11-06T23:00:00	4	Temperatura máxima	14.8
20155	7	Sololá	701	Sololá	3	Barraneche	4	Abril	2023-04-15T00:00:00	2024-11-06T23:00:00	3	Temperatura mínima	12.7
20156	7	Sololá	701	Sololá	3	Barraneche	4	Abril	2023-04-15T00:00:00	2024-11-06T23:00:00	5	Humedad	68
20157	7	Sololá	701	Sololá	3	Barraneche	4	Abril	2023-04-15T00:00:00	2024-11-06T23:00:00	6	Velocidad del viento	6.4
20158	7	Sololá	701	Sololá	3	Barraneche	4	Abril	2023-04-15T00:00:00	2024-11-06T23:00:00	7	Dirección del viento	6.44
20159	7	Sololá	701	Sololá	3	Barraneche	4	Abril	2023-04-15T00:00:00	2024-11-06T23:00:00	1	Precipitación	0
20160	7	Sololá	701	Sololá	3	Barraneche	4	Abril	2023-04-15T00:00:00	2024-11-06T23:00:00	8	Radiación solar	0
20161	7	Sololá	701	Sololá	3	Barraneche	4	Abril	2023-04-16T00:00:00	2024-11-06T00:00:00	2	Temperatura media	13.9
20162	7	Sololá	701	Sololá	3	Barraneche	4	Abril	2023-04-16T00:00:00	2024-11-06T00:00:00	4	Temperatura máxima	13.9
20163	7	Sololá	701	Sololá	3	Barraneche	4	Abril	2023-04-16T00:00:00	2024-11-06T00:00:00	3	Temperatura mínima	12.7
20164	7	Sololá	701	Sololá	3	Barraneche	4	Abril	2023-04-16T00:00:00	2024-11-06T00:00:00	5	Humedad	69
20165	7	Sololá	701	Sololá	3	Barraneche	4	Abril	2023-04-16T00:00:00	2024-11-06T00:00:00	6	Velocidad del viento	4.8
20166	7	Sololá	701	Sololá	3	Barraneche	4	Abril	2023-04-16T00:00:00	2024-11-06T00:00:00	7	Dirección del viento	4.83
20167	7	Sololá	701	Sololá	3	Barraneche	4	Abril	2023-04-16T00:00:00	2024-11-06T00:00:00	1	Precipitación	0
20168	7	Sololá	701	Sololá	3	Barraneche	4	Abril	2023-04-16T00:00:00	2024-11-06T00:00:00	8	Radiación solar	0
20169	7	Sololá	701	Sololá	3	Barraneche	4	Abril	2023-04-16T00:00:00	2024-11-06T01:00:00	2	Temperatura media	12.6
20170	7	Sololá	701	Sololá	3	Barraneche	4	Abril	2023-04-16T00:00:00	2024-11-06T01:00:00	4	Temperatura máxima	13.9
20171	7	Sololá	701	Sololá	3	Barraneche	4	Abril	2023-04-16T00:00:00	2024-11-06T01:00:00	3	Temperatura mínima	12.6
20172	7	Sololá	701	Sololá	3	Barraneche	4	Abril	2023-04-16T00:00:00	2024-11-06T01:00:00	5	Humedad	69
20173	7	Sololá	701	Sololá	3	Barraneche	4	Abril	2023-04-16T00:00:00	2024-11-06T01:00:00	6	Velocidad del viento	6.4
20174	7	Sololá	701	Sololá	3	Barraneche	4	Abril	2023-04-16T00:00:00	2024-11-06T01:00:00	7	Dirección del viento	6.44
20175	7	Sololá	701	Sololá	3	Barraneche	4	Abril	2023-04-16T00:00:00	2024-11-06T01:00:00	1	Precipitación	0
20176	7	Sololá	701	Sololá	3	Barraneche	4	Abril	2023-04-16T00:00:00	2024-11-06T01:00:00	8	Radiación solar	0
20177	7	Sololá	701	Sololá	3	Barraneche	4	Abril	2023-04-16T00:00:00	2024-11-06T02:00:00	2	Temperatura media	11.9
20178	7	Sololá	701	Sololá	3	Barraneche	4	Abril	2023-04-16T00:00:00	2024-11-06T02:00:00	4	Temperatura máxima	12.7
20179	7	Sololá	701	Sololá	3	Barraneche	4	Abril	2023-04-16T00:00:00	2024-11-06T02:00:00	3	Temperatura mínima	11.8
20180	7	Sololá	701	Sololá	3	Barraneche	4	Abril	2023-04-16T00:00:00	2024-11-06T02:00:00	5	Humedad	70
20181	7	Sololá	701	Sololá	3	Barraneche	4	Abril	2023-04-16T00:00:00	2024-11-06T02:00:00	6	Velocidad del viento	4.8
20182	7	Sololá	701	Sololá	3	Barraneche	4	Abril	2023-04-16T00:00:00	2024-11-06T02:00:00	7	Dirección del viento	4.83
20183	7	Sololá	701	Sololá	3	Barraneche	4	Abril	2023-04-16T00:00:00	2024-11-06T02:00:00	1	Precipitación	0
20184	7	Sololá	701	Sololá	3	Barraneche	4	Abril	2023-04-16T00:00:00	2024-11-06T02:00:00	8	Radiación solar	0
20185	7	Sololá	701	Sololá	3	Barraneche	4	Abril	2023-04-16T00:00:00	2024-11-06T03:00:00	2	Temperatura media	12.3
20186	7	Sololá	701	Sololá	3	Barraneche	4	Abril	2023-04-16T00:00:00	2024-11-06T03:00:00	4	Temperatura máxima	12.7
20187	7	Sololá	701	Sololá	3	Barraneche	4	Abril	2023-04-16T00:00:00	2024-11-06T03:00:00	3	Temperatura mínima	11.8
20188	7	Sololá	701	Sololá	3	Barraneche	4	Abril	2023-04-16T00:00:00	2024-11-06T03:00:00	5	Humedad	64
20189	7	Sololá	701	Sololá	3	Barraneche	4	Abril	2023-04-16T00:00:00	2024-11-06T03:00:00	6	Velocidad del viento	8
20190	7	Sololá	701	Sololá	3	Barraneche	4	Abril	2023-04-16T00:00:00	2024-11-06T03:00:00	7	Dirección del viento	8.05
20191	7	Sololá	701	Sololá	3	Barraneche	4	Abril	2023-04-16T00:00:00	2024-11-06T03:00:00	1	Precipitación	0
20192	7	Sololá	701	Sololá	3	Barraneche	4	Abril	2023-04-16T00:00:00	2024-11-06T03:00:00	8	Radiación solar	0
20193	7	Sololá	701	Sololá	3	Barraneche	4	Abril	2023-04-16T00:00:00	2024-11-06T04:00:00	2	Temperatura media	11.8
20194	7	Sololá	701	Sololá	3	Barraneche	4	Abril	2023-04-16T00:00:00	2024-11-06T04:00:00	4	Temperatura máxima	12.3
20195	7	Sololá	701	Sololá	3	Barraneche	4	Abril	2023-04-16T00:00:00	2024-11-06T04:00:00	3	Temperatura mínima	11.3
20196	7	Sololá	701	Sololá	3	Barraneche	4	Abril	2023-04-16T00:00:00	2024-11-06T04:00:00	5	Humedad	64
20197	7	Sololá	701	Sololá	3	Barraneche	4	Abril	2023-04-16T00:00:00	2024-11-06T04:00:00	6	Velocidad del viento	8
20198	7	Sololá	701	Sololá	3	Barraneche	4	Abril	2023-04-16T00:00:00	2024-11-06T04:00:00	7	Dirección del viento	8.05
20199	7	Sololá	701	Sololá	3	Barraneche	4	Abril	2023-04-16T00:00:00	2024-11-06T04:00:00	1	Precipitación	0
20200	7	Sololá	701	Sololá	3	Barraneche	4	Abril	2023-04-16T00:00:00	2024-11-06T04:00:00	8	Radiación solar	0
20201	7	Sololá	701	Sololá	3	Barraneche	4	Abril	2023-04-16T00:00:00	2024-11-06T05:00:00	2	Temperatura media	10.7
20202	7	Sololá	701	Sololá	3	Barraneche	4	Abril	2023-04-16T00:00:00	2024-11-06T05:00:00	4	Temperatura máxima	11.8
20203	7	Sololá	701	Sololá	3	Barraneche	4	Abril	2023-04-16T00:00:00	2024-11-06T05:00:00	3	Temperatura mínima	10.6
20204	7	Sololá	701	Sololá	3	Barraneche	4	Abril	2023-04-16T00:00:00	2024-11-06T05:00:00	5	Humedad	67
20205	7	Sololá	701	Sololá	3	Barraneche	4	Abril	2023-04-16T00:00:00	2024-11-06T05:00:00	6	Velocidad del viento	6.4
20206	7	Sololá	701	Sololá	3	Barraneche	4	Abril	2023-04-16T00:00:00	2024-11-06T05:00:00	7	Dirección del viento	6.44
20207	7	Sololá	701	Sololá	3	Barraneche	4	Abril	2023-04-16T00:00:00	2024-11-06T05:00:00	1	Precipitación	0
20208	7	Sololá	701	Sololá	3	Barraneche	4	Abril	2023-04-16T00:00:00	2024-11-06T05:00:00	8	Radiación solar	0
20209	7	Sololá	701	Sololá	3	Barraneche	4	Abril	2023-04-16T00:00:00	2024-11-06T06:00:00	2	Temperatura media	11.1
20210	7	Sololá	701	Sololá	3	Barraneche	4	Abril	2023-04-16T00:00:00	2024-11-06T06:00:00	4	Temperatura máxima	11.7
20211	7	Sololá	701	Sololá	3	Barraneche	4	Abril	2023-04-16T00:00:00	2024-11-06T06:00:00	3	Temperatura mínima	10.7
20212	7	Sololá	701	Sololá	3	Barraneche	4	Abril	2023-04-16T00:00:00	2024-11-06T06:00:00	5	Humedad	65
20213	7	Sololá	701	Sololá	3	Barraneche	4	Abril	2023-04-16T00:00:00	2024-11-06T06:00:00	6	Velocidad del viento	9.7
20214	7	Sololá	701	Sololá	3	Barraneche	4	Abril	2023-04-16T00:00:00	2024-11-06T06:00:00	7	Dirección del viento	9.66
20215	7	Sololá	701	Sololá	3	Barraneche	4	Abril	2023-04-16T00:00:00	2024-11-06T06:00:00	1	Precipitación	0
20216	7	Sololá	701	Sololá	3	Barraneche	4	Abril	2023-04-16T00:00:00	2024-11-06T06:00:00	8	Radiación solar	2
20217	7	Sololá	701	Sololá	3	Barraneche	4	Abril	2023-04-16T00:00:00	2024-11-06T07:00:00	2	Temperatura media	12.9
20218	7	Sololá	701	Sololá	3	Barraneche	4	Abril	2023-04-16T00:00:00	2024-11-06T07:00:00	4	Temperatura máxima	12.9
20219	7	Sololá	701	Sololá	3	Barraneche	4	Abril	2023-04-16T00:00:00	2024-11-06T07:00:00	3	Temperatura mínima	11.1
20220	7	Sololá	701	Sololá	3	Barraneche	4	Abril	2023-04-16T00:00:00	2024-11-06T07:00:00	5	Humedad	62
20221	7	Sololá	701	Sololá	3	Barraneche	4	Abril	2023-04-16T00:00:00	2024-11-06T07:00:00	6	Velocidad del viento	9.7
20222	7	Sololá	701	Sololá	3	Barraneche	4	Abril	2023-04-16T00:00:00	2024-11-06T07:00:00	7	Dirección del viento	9.66
20223	7	Sololá	701	Sololá	3	Barraneche	4	Abril	2023-04-16T00:00:00	2024-11-06T07:00:00	1	Precipitación	0
20224	7	Sololá	701	Sololá	3	Barraneche	4	Abril	2023-04-16T00:00:00	2024-11-06T07:00:00	8	Radiación solar	71
20225	7	Sololá	701	Sololá	3	Barraneche	4	Abril	2023-04-16T00:00:00	2024-11-06T08:00:00	2	Temperatura media	16.8
20226	7	Sololá	701	Sololá	3	Barraneche	4	Abril	2023-04-16T00:00:00	2024-11-06T08:00:00	4	Temperatura máxima	16.8
20227	7	Sololá	701	Sololá	3	Barraneche	4	Abril	2023-04-16T00:00:00	2024-11-06T08:00:00	3	Temperatura mínima	13
20228	7	Sololá	701	Sololá	3	Barraneche	4	Abril	2023-04-16T00:00:00	2024-11-06T08:00:00	5	Humedad	59
20229	7	Sololá	701	Sololá	3	Barraneche	4	Abril	2023-04-16T00:00:00	2024-11-06T08:00:00	6	Velocidad del viento	4.8
20230	7	Sololá	701	Sololá	3	Barraneche	4	Abril	2023-04-16T00:00:00	2024-11-06T08:00:00	7	Dirección del viento	4.83
20231	7	Sololá	701	Sololá	3	Barraneche	4	Abril	2023-04-16T00:00:00	2024-11-06T08:00:00	1	Precipitación	0
20232	7	Sololá	701	Sololá	3	Barraneche	4	Abril	2023-04-16T00:00:00	2024-11-06T08:00:00	8	Radiación solar	322
20233	7	Sololá	701	Sololá	3	Barraneche	4	Abril	2023-04-16T00:00:00	2024-11-06T09:00:00	2	Temperatura media	18.2
20234	7	Sololá	701	Sololá	3	Barraneche	4	Abril	2023-04-16T00:00:00	2024-11-06T09:00:00	4	Temperatura máxima	18.2
20235	7	Sololá	701	Sololá	3	Barraneche	4	Abril	2023-04-16T00:00:00	2024-11-06T09:00:00	3	Temperatura mínima	16.8
20236	7	Sololá	701	Sololá	3	Barraneche	4	Abril	2023-04-16T00:00:00	2024-11-06T09:00:00	5	Humedad	51
20237	7	Sololá	701	Sololá	3	Barraneche	4	Abril	2023-04-16T00:00:00	2024-11-06T09:00:00	6	Velocidad del viento	4.8
20238	7	Sololá	701	Sololá	3	Barraneche	4	Abril	2023-04-16T00:00:00	2024-11-06T09:00:00	7	Dirección del viento	4.83
20239	7	Sololá	701	Sololá	3	Barraneche	4	Abril	2023-04-16T00:00:00	2024-11-06T09:00:00	1	Precipitación	0
20240	7	Sololá	701	Sololá	3	Barraneche	4	Abril	2023-04-16T00:00:00	2024-11-06T09:00:00	8	Radiación solar	550
20241	7	Sololá	701	Sololá	3	Barraneche	4	Abril	2023-04-16T00:00:00	2024-11-06T10:00:00	2	Temperatura media	18.9
20242	7	Sololá	701	Sololá	3	Barraneche	4	Abril	2023-04-16T00:00:00	2024-11-06T10:00:00	4	Temperatura máxima	19
20243	7	Sololá	701	Sololá	3	Barraneche	4	Abril	2023-04-16T00:00:00	2024-11-06T10:00:00	3	Temperatura mínima	18.2
20244	7	Sololá	701	Sololá	3	Barraneche	4	Abril	2023-04-16T00:00:00	2024-11-06T10:00:00	5	Humedad	54
20245	7	Sololá	701	Sololá	3	Barraneche	4	Abril	2023-04-16T00:00:00	2024-11-06T10:00:00	6	Velocidad del viento	9.7
20246	7	Sololá	701	Sololá	3	Barraneche	4	Abril	2023-04-16T00:00:00	2024-11-06T10:00:00	7	Dirección del viento	9.66
20247	7	Sololá	701	Sololá	3	Barraneche	4	Abril	2023-04-16T00:00:00	2024-11-06T10:00:00	1	Precipitación	0
20248	7	Sololá	701	Sololá	3	Barraneche	4	Abril	2023-04-16T00:00:00	2024-11-06T10:00:00	8	Radiación solar	684
20249	7	Sololá	701	Sololá	3	Barraneche	4	Abril	2023-04-16T00:00:00	2024-11-06T11:00:00	2	Temperatura media	19.7
20250	7	Sololá	701	Sololá	3	Barraneche	4	Abril	2023-04-16T00:00:00	2024-11-06T11:00:00	4	Temperatura máxima	19.7
20251	7	Sololá	701	Sololá	3	Barraneche	4	Abril	2023-04-16T00:00:00	2024-11-06T11:00:00	3	Temperatura mínima	18.9
20252	7	Sololá	701	Sololá	3	Barraneche	4	Abril	2023-04-16T00:00:00	2024-11-06T11:00:00	5	Humedad	54
20253	7	Sololá	701	Sololá	3	Barraneche	4	Abril	2023-04-16T00:00:00	2024-11-06T11:00:00	6	Velocidad del viento	16.1
20254	7	Sololá	701	Sololá	3	Barraneche	4	Abril	2023-04-16T00:00:00	2024-11-06T11:00:00	7	Dirección del viento	16.09
20255	7	Sololá	701	Sololá	3	Barraneche	4	Abril	2023-04-16T00:00:00	2024-11-06T11:00:00	1	Precipitación	0
20256	7	Sololá	701	Sololá	3	Barraneche	4	Abril	2023-04-16T00:00:00	2024-11-06T11:00:00	8	Radiación solar	951
20257	7	Sololá	701	Sololá	3	Barraneche	4	Abril	2023-04-16T00:00:00	2024-11-06T12:00:00	2	Temperatura media	19.4
20258	7	Sololá	701	Sololá	3	Barraneche	4	Abril	2023-04-16T00:00:00	2024-11-06T12:00:00	4	Temperatura máxima	19.8
20259	7	Sololá	701	Sololá	3	Barraneche	4	Abril	2023-04-16T00:00:00	2024-11-06T12:00:00	3	Temperatura mínima	18.8
20260	7	Sololá	701	Sololá	3	Barraneche	4	Abril	2023-04-16T00:00:00	2024-11-06T12:00:00	5	Humedad	55
20261	7	Sololá	701	Sololá	3	Barraneche	4	Abril	2023-04-16T00:00:00	2024-11-06T12:00:00	6	Velocidad del viento	16.1
20262	7	Sololá	701	Sololá	3	Barraneche	4	Abril	2023-04-16T00:00:00	2024-11-06T12:00:00	7	Dirección del viento	16.09
20263	7	Sololá	701	Sololá	3	Barraneche	4	Abril	2023-04-16T00:00:00	2024-11-06T12:00:00	1	Precipitación	0
20264	7	Sololá	701	Sololá	3	Barraneche	4	Abril	2023-04-16T00:00:00	2024-11-06T12:00:00	8	Radiación solar	435
20265	7	Sololá	701	Sololá	3	Barraneche	4	Abril	2023-04-16T00:00:00	2024-11-06T13:00:00	2	Temperatura media	19.1
20266	7	Sololá	701	Sololá	3	Barraneche	4	Abril	2023-04-16T00:00:00	2024-11-06T13:00:00	4	Temperatura máxima	19.4
20267	7	Sololá	701	Sololá	3	Barraneche	4	Abril	2023-04-16T00:00:00	2024-11-06T13:00:00	3	Temperatura mínima	18.7
20268	7	Sololá	701	Sololá	3	Barraneche	4	Abril	2023-04-16T00:00:00	2024-11-06T13:00:00	5	Humedad	60
20269	7	Sololá	701	Sololá	3	Barraneche	4	Abril	2023-04-16T00:00:00	2024-11-06T13:00:00	6	Velocidad del viento	11.3
20270	7	Sololá	701	Sololá	3	Barraneche	4	Abril	2023-04-16T00:00:00	2024-11-06T13:00:00	7	Dirección del viento	11.27
20271	7	Sololá	701	Sololá	3	Barraneche	4	Abril	2023-04-16T00:00:00	2024-11-06T13:00:00	1	Precipitación	0
20272	7	Sololá	701	Sololá	3	Barraneche	4	Abril	2023-04-16T00:00:00	2024-11-06T13:00:00	8	Radiación solar	399
20273	7	Sololá	701	Sololá	3	Barraneche	4	Abril	2023-04-16T00:00:00	2024-11-06T14:00:00	2	Temperatura media	18.3
20274	7	Sololá	701	Sololá	3	Barraneche	4	Abril	2023-04-16T00:00:00	2024-11-06T14:00:00	4	Temperatura máxima	19.2
20275	7	Sololá	701	Sololá	3	Barraneche	4	Abril	2023-04-16T00:00:00	2024-11-06T14:00:00	3	Temperatura mínima	17.8
20276	7	Sololá	701	Sololá	3	Barraneche	4	Abril	2023-04-16T00:00:00	2024-11-06T14:00:00	5	Humedad	64
20277	7	Sololá	701	Sololá	3	Barraneche	4	Abril	2023-04-16T00:00:00	2024-11-06T14:00:00	6	Velocidad del viento	11.3
20278	7	Sololá	701	Sololá	3	Barraneche	4	Abril	2023-04-16T00:00:00	2024-11-06T14:00:00	7	Dirección del viento	11.27
20279	7	Sololá	701	Sololá	3	Barraneche	4	Abril	2023-04-16T00:00:00	2024-11-06T14:00:00	1	Precipitación	0
20280	7	Sololá	701	Sololá	3	Barraneche	4	Abril	2023-04-16T00:00:00	2024-11-06T14:00:00	8	Radiación solar	286
20281	7	Sololá	701	Sololá	3	Barraneche	4	Abril	2023-04-16T00:00:00	2024-11-06T15:00:00	2	Temperatura media	17.2
20282	7	Sololá	701	Sololá	3	Barraneche	4	Abril	2023-04-16T00:00:00	2024-11-06T15:00:00	4	Temperatura máxima	18.3
20283	7	Sololá	701	Sololá	3	Barraneche	4	Abril	2023-04-16T00:00:00	2024-11-06T15:00:00	3	Temperatura mínima	17.1
20284	7	Sololá	701	Sololá	3	Barraneche	4	Abril	2023-04-16T00:00:00	2024-11-06T15:00:00	5	Humedad	69
20285	7	Sololá	701	Sololá	3	Barraneche	4	Abril	2023-04-16T00:00:00	2024-11-06T15:00:00	6	Velocidad del viento	11.3
20286	7	Sololá	701	Sololá	3	Barraneche	4	Abril	2023-04-16T00:00:00	2024-11-06T15:00:00	7	Dirección del viento	11.27
20287	7	Sololá	701	Sololá	3	Barraneche	4	Abril	2023-04-16T00:00:00	2024-11-06T15:00:00	1	Precipitación	0
20288	7	Sololá	701	Sololá	3	Barraneche	4	Abril	2023-04-16T00:00:00	2024-11-06T15:00:00	8	Radiación solar	237
20289	7	Sololá	701	Sololá	3	Barraneche	4	Abril	2023-04-16T00:00:00	2024-11-06T16:00:00	2	Temperatura media	16.3
20290	7	Sololá	701	Sololá	3	Barraneche	4	Abril	2023-04-16T00:00:00	2024-11-06T16:00:00	4	Temperatura máxima	17.3
20291	7	Sololá	701	Sololá	3	Barraneche	4	Abril	2023-04-16T00:00:00	2024-11-06T16:00:00	3	Temperatura mínima	16.3
20292	7	Sololá	701	Sololá	3	Barraneche	4	Abril	2023-04-16T00:00:00	2024-11-06T16:00:00	5	Humedad	70
20293	7	Sololá	701	Sololá	3	Barraneche	4	Abril	2023-04-16T00:00:00	2024-11-06T16:00:00	6	Velocidad del viento	8
20294	7	Sololá	701	Sololá	3	Barraneche	4	Abril	2023-04-16T00:00:00	2024-11-06T16:00:00	7	Dirección del viento	8.05
20295	7	Sololá	701	Sololá	3	Barraneche	4	Abril	2023-04-16T00:00:00	2024-11-06T16:00:00	1	Precipitación	0
20296	7	Sololá	701	Sololá	3	Barraneche	4	Abril	2023-04-16T00:00:00	2024-11-06T16:00:00	8	Radiación solar	109
20297	7	Sololá	701	Sololá	3	Barraneche	4	Abril	2023-04-16T00:00:00	2024-11-06T17:00:00	2	Temperatura media	15.9
20298	7	Sololá	701	Sololá	3	Barraneche	4	Abril	2023-04-16T00:00:00	2024-11-06T17:00:00	4	Temperatura máxima	17.8
20299	7	Sololá	701	Sololá	3	Barraneche	4	Abril	2023-04-16T00:00:00	2024-11-06T17:00:00	3	Temperatura mínima	15.8
20300	7	Sololá	701	Sololá	3	Barraneche	4	Abril	2023-04-16T00:00:00	2024-11-06T17:00:00	5	Humedad	65
20301	7	Sololá	701	Sololá	3	Barraneche	4	Abril	2023-04-16T00:00:00	2024-11-06T17:00:00	6	Velocidad del viento	6.4
20302	7	Sololá	701	Sololá	3	Barraneche	4	Abril	2023-04-16T00:00:00	2024-11-06T17:00:00	7	Dirección del viento	6.44
20303	7	Sololá	701	Sololá	3	Barraneche	4	Abril	2023-04-16T00:00:00	2024-11-06T17:00:00	1	Precipitación	0
20304	7	Sololá	701	Sololá	3	Barraneche	4	Abril	2023-04-16T00:00:00	2024-11-06T17:00:00	8	Radiación solar	23
20305	7	Sololá	701	Sololá	3	Barraneche	4	Abril	2023-04-16T00:00:00	2024-11-06T18:00:00	2	Temperatura media	16.2
20306	7	Sololá	701	Sololá	3	Barraneche	4	Abril	2023-04-16T00:00:00	2024-11-06T18:00:00	4	Temperatura máxima	16.7
20307	7	Sololá	701	Sololá	3	Barraneche	4	Abril	2023-04-16T00:00:00	2024-11-06T18:00:00	3	Temperatura mínima	15.9
20308	7	Sololá	701	Sololá	3	Barraneche	4	Abril	2023-04-16T00:00:00	2024-11-06T18:00:00	5	Humedad	68
20309	7	Sololá	701	Sololá	3	Barraneche	4	Abril	2023-04-16T00:00:00	2024-11-06T18:00:00	6	Velocidad del viento	4.8
20310	7	Sololá	701	Sololá	3	Barraneche	4	Abril	2023-04-16T00:00:00	2024-11-06T18:00:00	7	Dirección del viento	4.83
20311	7	Sololá	701	Sololá	3	Barraneche	4	Abril	2023-04-16T00:00:00	2024-11-06T18:00:00	1	Precipitación	0
20312	7	Sololá	701	Sololá	3	Barraneche	4	Abril	2023-04-16T00:00:00	2024-11-06T18:00:00	8	Radiación solar	32
20313	7	Sololá	701	Sololá	3	Barraneche	4	Abril	2023-04-16T00:00:00	2024-11-06T19:00:00	2	Temperatura media	15.4
20314	7	Sololá	701	Sololá	3	Barraneche	4	Abril	2023-04-16T00:00:00	2024-11-06T19:00:00	4	Temperatura máxima	16.2
20315	7	Sololá	701	Sololá	3	Barraneche	4	Abril	2023-04-16T00:00:00	2024-11-06T19:00:00	3	Temperatura mínima	15.3
20316	7	Sololá	701	Sololá	3	Barraneche	4	Abril	2023-04-16T00:00:00	2024-11-06T19:00:00	5	Humedad	57
20317	7	Sololá	701	Sololá	3	Barraneche	4	Abril	2023-04-16T00:00:00	2024-11-06T19:00:00	6	Velocidad del viento	3.2
20318	7	Sololá	701	Sololá	3	Barraneche	4	Abril	2023-04-16T00:00:00	2024-11-06T19:00:00	7	Dirección del viento	3.22
20319	7	Sololá	701	Sololá	3	Barraneche	4	Abril	2023-04-16T00:00:00	2024-11-06T19:00:00	1	Precipitación	0
20320	7	Sololá	701	Sololá	3	Barraneche	4	Abril	2023-04-16T00:00:00	2024-11-06T19:00:00	8	Radiación solar	0
20321	7	Sololá	701	Sololá	3	Barraneche	4	Abril	2023-04-16T00:00:00	2024-11-06T20:00:00	2	Temperatura media	15.7
20322	7	Sololá	701	Sololá	3	Barraneche	4	Abril	2023-04-16T00:00:00	2024-11-06T20:00:00	4	Temperatura máxima	16.4
20323	7	Sololá	701	Sololá	3	Barraneche	4	Abril	2023-04-16T00:00:00	2024-11-06T20:00:00	3	Temperatura mínima	15.4
20324	7	Sololá	701	Sololá	3	Barraneche	4	Abril	2023-04-16T00:00:00	2024-11-06T20:00:00	5	Humedad	49
20325	7	Sololá	701	Sololá	3	Barraneche	4	Abril	2023-04-16T00:00:00	2024-11-06T20:00:00	6	Velocidad del viento	9.7
20326	7	Sololá	701	Sololá	3	Barraneche	4	Abril	2023-04-16T00:00:00	2024-11-06T20:00:00	7	Dirección del viento	9.66
20327	7	Sololá	701	Sololá	3	Barraneche	4	Abril	2023-04-16T00:00:00	2024-11-06T20:00:00	1	Precipitación	0
20328	7	Sololá	701	Sololá	3	Barraneche	4	Abril	2023-04-16T00:00:00	2024-11-06T20:00:00	8	Radiación solar	0
20329	7	Sololá	701	Sololá	3	Barraneche	4	Abril	2023-04-16T00:00:00	2024-11-06T21:00:00	2	Temperatura media	14.5
20330	7	Sololá	701	Sololá	3	Barraneche	4	Abril	2023-04-16T00:00:00	2024-11-06T21:00:00	4	Temperatura máxima	15.8
20331	7	Sololá	701	Sololá	3	Barraneche	4	Abril	2023-04-16T00:00:00	2024-11-06T21:00:00	3	Temperatura mínima	14.5
20332	7	Sololá	701	Sololá	3	Barraneche	4	Abril	2023-04-16T00:00:00	2024-11-06T21:00:00	5	Humedad	50
20333	7	Sololá	701	Sololá	3	Barraneche	4	Abril	2023-04-16T00:00:00	2024-11-06T21:00:00	6	Velocidad del viento	4.8
20334	7	Sololá	701	Sololá	3	Barraneche	4	Abril	2023-04-16T00:00:00	2024-11-06T21:00:00	7	Dirección del viento	4.83
20335	7	Sololá	701	Sololá	3	Barraneche	4	Abril	2023-04-16T00:00:00	2024-11-06T21:00:00	1	Precipitación	0
20336	7	Sololá	701	Sololá	3	Barraneche	4	Abril	2023-04-16T00:00:00	2024-11-06T21:00:00	8	Radiación solar	0
20337	7	Sololá	701	Sololá	3	Barraneche	4	Abril	2023-04-16T00:00:00	2024-11-06T22:00:00	2	Temperatura media	12.9
20338	7	Sololá	701	Sololá	3	Barraneche	4	Abril	2023-04-16T00:00:00	2024-11-06T22:00:00	4	Temperatura máxima	14.4
20339	7	Sololá	701	Sololá	3	Barraneche	4	Abril	2023-04-16T00:00:00	2024-11-06T22:00:00	3	Temperatura mínima	12.8
20340	7	Sololá	701	Sololá	3	Barraneche	4	Abril	2023-04-16T00:00:00	2024-11-06T22:00:00	5	Humedad	59
20341	7	Sololá	701	Sololá	3	Barraneche	4	Abril	2023-04-16T00:00:00	2024-11-06T22:00:00	6	Velocidad del viento	3.2
20342	7	Sololá	701	Sololá	3	Barraneche	4	Abril	2023-04-16T00:00:00	2024-11-06T22:00:00	7	Dirección del viento	3.22
20343	7	Sololá	701	Sololá	3	Barraneche	4	Abril	2023-04-16T00:00:00	2024-11-06T22:00:00	1	Precipitación	0
20344	7	Sololá	701	Sololá	3	Barraneche	4	Abril	2023-04-16T00:00:00	2024-11-06T22:00:00	8	Radiación solar	0
20345	7	Sololá	701	Sololá	3	Barraneche	4	Abril	2023-04-16T00:00:00	2024-11-06T23:00:00	2	Temperatura media	11.6
20346	7	Sololá	701	Sololá	3	Barraneche	4	Abril	2023-04-16T00:00:00	2024-11-06T23:00:00	4	Temperatura máxima	13.3
20347	7	Sololá	701	Sololá	3	Barraneche	4	Abril	2023-04-16T00:00:00	2024-11-06T23:00:00	3	Temperatura mínima	11.4
20348	7	Sololá	701	Sololá	3	Barraneche	4	Abril	2023-04-16T00:00:00	2024-11-06T23:00:00	5	Humedad	64
20349	7	Sololá	701	Sololá	3	Barraneche	4	Abril	2023-04-16T00:00:00	2024-11-06T23:00:00	6	Velocidad del viento	4.8
20350	7	Sololá	701	Sololá	3	Barraneche	4	Abril	2023-04-16T00:00:00	2024-11-06T23:00:00	7	Dirección del viento	4.83
20351	7	Sololá	701	Sololá	3	Barraneche	4	Abril	2023-04-16T00:00:00	2024-11-06T23:00:00	1	Precipitación	0
20352	7	Sololá	701	Sololá	3	Barraneche	4	Abril	2023-04-16T00:00:00	2024-11-06T23:00:00	8	Radiación solar	0
20353	7	Sololá	701	Sololá	3	Barraneche	4	Abril	2023-04-17T00:00:00	2024-11-06T00:00:00	2	Temperatura media	12.7
20354	7	Sololá	701	Sololá	3	Barraneche	4	Abril	2023-04-17T00:00:00	2024-11-06T00:00:00	4	Temperatura máxima	12.7
20355	7	Sololá	701	Sololá	3	Barraneche	4	Abril	2023-04-17T00:00:00	2024-11-06T00:00:00	3	Temperatura mínima	11.6
20356	7	Sololá	701	Sololá	3	Barraneche	4	Abril	2023-04-17T00:00:00	2024-11-06T00:00:00	5	Humedad	63
20357	7	Sololá	701	Sololá	3	Barraneche	4	Abril	2023-04-17T00:00:00	2024-11-06T00:00:00	6	Velocidad del viento	3.2
20358	7	Sololá	701	Sololá	3	Barraneche	4	Abril	2023-04-17T00:00:00	2024-11-06T00:00:00	7	Dirección del viento	3.22
20359	7	Sololá	701	Sololá	3	Barraneche	4	Abril	2023-04-17T00:00:00	2024-11-06T00:00:00	1	Precipitación	0
20360	7	Sololá	701	Sololá	3	Barraneche	4	Abril	2023-04-17T00:00:00	2024-11-06T00:00:00	8	Radiación solar	0
20361	7	Sololá	701	Sololá	3	Barraneche	4	Abril	2023-04-17T00:00:00	2024-11-06T01:00:00	2	Temperatura media	11.3
20362	7	Sololá	701	Sololá	3	Barraneche	4	Abril	2023-04-17T00:00:00	2024-11-06T01:00:00	4	Temperatura máxima	12.9
20363	7	Sololá	701	Sololá	3	Barraneche	4	Abril	2023-04-17T00:00:00	2024-11-06T01:00:00	3	Temperatura mínima	11.3
20364	7	Sololá	701	Sololá	3	Barraneche	4	Abril	2023-04-17T00:00:00	2024-11-06T01:00:00	5	Humedad	66
20365	7	Sololá	701	Sololá	3	Barraneche	4	Abril	2023-04-17T00:00:00	2024-11-06T01:00:00	6	Velocidad del viento	4.8
20366	7	Sololá	701	Sololá	3	Barraneche	4	Abril	2023-04-17T00:00:00	2024-11-06T01:00:00	7	Dirección del viento	4.83
20367	7	Sololá	701	Sololá	3	Barraneche	4	Abril	2023-04-17T00:00:00	2024-11-06T01:00:00	1	Precipitación	0
20368	7	Sololá	701	Sololá	3	Barraneche	4	Abril	2023-04-17T00:00:00	2024-11-06T01:00:00	8	Radiación solar	0
20369	7	Sololá	701	Sololá	3	Barraneche	4	Abril	2023-04-17T00:00:00	2024-11-06T02:00:00	2	Temperatura media	12.5
20370	7	Sololá	701	Sololá	3	Barraneche	4	Abril	2023-04-17T00:00:00	2024-11-06T02:00:00	4	Temperatura máxima	13.4
20371	7	Sololá	701	Sololá	3	Barraneche	4	Abril	2023-04-17T00:00:00	2024-11-06T02:00:00	3	Temperatura mínima	11.2
20372	7	Sololá	701	Sololá	3	Barraneche	4	Abril	2023-04-17T00:00:00	2024-11-06T02:00:00	5	Humedad	62
20373	7	Sololá	701	Sololá	3	Barraneche	4	Abril	2023-04-17T00:00:00	2024-11-06T02:00:00	6	Velocidad del viento	6.4
20374	7	Sololá	701	Sololá	3	Barraneche	4	Abril	2023-04-17T00:00:00	2024-11-06T02:00:00	7	Dirección del viento	6.44
20375	7	Sololá	701	Sololá	3	Barraneche	4	Abril	2023-04-17T00:00:00	2024-11-06T02:00:00	1	Precipitación	0
20376	7	Sololá	701	Sololá	3	Barraneche	4	Abril	2023-04-17T00:00:00	2024-11-06T02:00:00	8	Radiación solar	0
20377	7	Sololá	701	Sololá	3	Barraneche	4	Abril	2023-04-17T00:00:00	2024-11-06T03:00:00	2	Temperatura media	12.9
20378	7	Sololá	701	Sololá	3	Barraneche	4	Abril	2023-04-17T00:00:00	2024-11-06T03:00:00	4	Temperatura máxima	13
20379	7	Sololá	701	Sololá	3	Barraneche	4	Abril	2023-04-17T00:00:00	2024-11-06T03:00:00	3	Temperatura mínima	11.9
20380	7	Sololá	701	Sololá	3	Barraneche	4	Abril	2023-04-17T00:00:00	2024-11-06T03:00:00	5	Humedad	61
20381	7	Sololá	701	Sololá	3	Barraneche	4	Abril	2023-04-17T00:00:00	2024-11-06T03:00:00	6	Velocidad del viento	6.4
20382	7	Sololá	701	Sololá	3	Barraneche	4	Abril	2023-04-17T00:00:00	2024-11-06T03:00:00	7	Dirección del viento	6.44
20383	7	Sololá	701	Sololá	3	Barraneche	4	Abril	2023-04-17T00:00:00	2024-11-06T03:00:00	1	Precipitación	0
20384	7	Sololá	701	Sololá	3	Barraneche	4	Abril	2023-04-17T00:00:00	2024-11-06T03:00:00	8	Radiación solar	0
20385	7	Sololá	701	Sololá	3	Barraneche	4	Abril	2023-04-17T00:00:00	2024-11-06T04:00:00	2	Temperatura media	11.3
20386	7	Sololá	701	Sololá	3	Barraneche	4	Abril	2023-04-17T00:00:00	2024-11-06T04:00:00	4	Temperatura máxima	13
20387	7	Sololá	701	Sololá	3	Barraneche	4	Abril	2023-04-17T00:00:00	2024-11-06T04:00:00	3	Temperatura mínima	11
20388	7	Sololá	701	Sololá	3	Barraneche	4	Abril	2023-04-17T00:00:00	2024-11-06T04:00:00	5	Humedad	62
20389	7	Sololá	701	Sololá	3	Barraneche	4	Abril	2023-04-17T00:00:00	2024-11-06T04:00:00	6	Velocidad del viento	3.2
20390	7	Sololá	701	Sololá	3	Barraneche	4	Abril	2023-04-17T00:00:00	2024-11-06T04:00:00	7	Dirección del viento	3.22
20391	7	Sololá	701	Sololá	3	Barraneche	4	Abril	2023-04-17T00:00:00	2024-11-06T04:00:00	1	Precipitación	0
20392	7	Sololá	701	Sololá	3	Barraneche	4	Abril	2023-04-17T00:00:00	2024-11-06T04:00:00	8	Radiación solar	0
20393	7	Sololá	701	Sololá	3	Barraneche	4	Abril	2023-04-17T00:00:00	2024-11-06T05:00:00	2	Temperatura media	11.8
20394	7	Sololá	701	Sololá	3	Barraneche	4	Abril	2023-04-17T00:00:00	2024-11-06T05:00:00	4	Temperatura máxima	12.4
20395	7	Sololá	701	Sololá	3	Barraneche	4	Abril	2023-04-17T00:00:00	2024-11-06T05:00:00	3	Temperatura mínima	11.1
20396	7	Sololá	701	Sololá	3	Barraneche	4	Abril	2023-04-17T00:00:00	2024-11-06T05:00:00	5	Humedad	63
20397	7	Sololá	701	Sololá	3	Barraneche	4	Abril	2023-04-17T00:00:00	2024-11-06T05:00:00	6	Velocidad del viento	4.8
20398	7	Sololá	701	Sololá	3	Barraneche	4	Abril	2023-04-17T00:00:00	2024-11-06T05:00:00	7	Dirección del viento	4.83
20399	7	Sololá	701	Sololá	3	Barraneche	4	Abril	2023-04-17T00:00:00	2024-11-06T05:00:00	1	Precipitación	0
20400	7	Sololá	701	Sololá	3	Barraneche	4	Abril	2023-04-17T00:00:00	2024-11-06T05:00:00	8	Radiación solar	0
20401	7	Sololá	701	Sololá	3	Barraneche	4	Abril	2023-04-17T00:00:00	2024-11-06T06:00:00	2	Temperatura media	13.2
20402	7	Sololá	701	Sololá	3	Barraneche	4	Abril	2023-04-17T00:00:00	2024-11-06T06:00:00	4	Temperatura máxima	13.2
20403	7	Sololá	701	Sololá	3	Barraneche	4	Abril	2023-04-17T00:00:00	2024-11-06T06:00:00	3	Temperatura mínima	11.8
20404	7	Sololá	701	Sololá	3	Barraneche	4	Abril	2023-04-17T00:00:00	2024-11-06T06:00:00	5	Humedad	60
20405	7	Sololá	701	Sololá	3	Barraneche	4	Abril	2023-04-17T00:00:00	2024-11-06T06:00:00	6	Velocidad del viento	11.3
20406	7	Sololá	701	Sololá	3	Barraneche	4	Abril	2023-04-17T00:00:00	2024-11-06T06:00:00	7	Dirección del viento	11.27
20407	7	Sololá	701	Sololá	3	Barraneche	4	Abril	2023-04-17T00:00:00	2024-11-06T06:00:00	1	Precipitación	0
20408	7	Sololá	701	Sololá	3	Barraneche	4	Abril	2023-04-17T00:00:00	2024-11-06T06:00:00	8	Radiación solar	1
20409	7	Sololá	701	Sololá	3	Barraneche	4	Abril	2023-04-17T00:00:00	2024-11-06T07:00:00	2	Temperatura media	13.6
20410	7	Sololá	701	Sololá	3	Barraneche	4	Abril	2023-04-17T00:00:00	2024-11-06T07:00:00	4	Temperatura máxima	13.6
20411	7	Sololá	701	Sololá	3	Barraneche	4	Abril	2023-04-17T00:00:00	2024-11-06T07:00:00	3	Temperatura mínima	13.1
20412	7	Sololá	701	Sololá	3	Barraneche	4	Abril	2023-04-17T00:00:00	2024-11-06T07:00:00	5	Humedad	62
20413	7	Sololá	701	Sololá	3	Barraneche	4	Abril	2023-04-17T00:00:00	2024-11-06T07:00:00	6	Velocidad del viento	19.3
20414	7	Sololá	701	Sololá	3	Barraneche	4	Abril	2023-04-17T00:00:00	2024-11-06T07:00:00	7	Dirección del viento	19.31
20415	7	Sololá	701	Sololá	3	Barraneche	4	Abril	2023-04-17T00:00:00	2024-11-06T07:00:00	1	Precipitación	0
20416	7	Sololá	701	Sololá	3	Barraneche	4	Abril	2023-04-17T00:00:00	2024-11-06T07:00:00	8	Radiación solar	75
20417	7	Sololá	701	Sololá	3	Barraneche	4	Abril	2023-04-17T00:00:00	2024-11-06T08:00:00	2	Temperatura media	14.9
20418	7	Sololá	701	Sololá	3	Barraneche	4	Abril	2023-04-17T00:00:00	2024-11-06T08:00:00	4	Temperatura máxima	14.9
20419	7	Sololá	701	Sololá	3	Barraneche	4	Abril	2023-04-17T00:00:00	2024-11-06T08:00:00	3	Temperatura mínima	13.6
20420	7	Sololá	701	Sololá	3	Barraneche	4	Abril	2023-04-17T00:00:00	2024-11-06T08:00:00	5	Humedad	57
20421	7	Sololá	701	Sololá	3	Barraneche	4	Abril	2023-04-17T00:00:00	2024-11-06T08:00:00	6	Velocidad del viento	25.7
20422	7	Sololá	701	Sololá	3	Barraneche	4	Abril	2023-04-17T00:00:00	2024-11-06T08:00:00	7	Dirección del viento	25.75
20423	7	Sololá	701	Sololá	3	Barraneche	4	Abril	2023-04-17T00:00:00	2024-11-06T08:00:00	1	Precipitación	0
20424	7	Sololá	701	Sololá	3	Barraneche	4	Abril	2023-04-17T00:00:00	2024-11-06T08:00:00	8	Radiación solar	323
20425	7	Sololá	701	Sololá	3	Barraneche	4	Abril	2023-04-17T00:00:00	2024-11-06T09:00:00	2	Temperatura media	17.1
20426	7	Sololá	701	Sololá	3	Barraneche	4	Abril	2023-04-17T00:00:00	2024-11-06T09:00:00	4	Temperatura máxima	17.3
20427	7	Sololá	701	Sololá	3	Barraneche	4	Abril	2023-04-17T00:00:00	2024-11-06T09:00:00	3	Temperatura mínima	14.9
20428	7	Sololá	701	Sololá	3	Barraneche	4	Abril	2023-04-17T00:00:00	2024-11-06T09:00:00	5	Humedad	46
20429	7	Sololá	701	Sololá	3	Barraneche	4	Abril	2023-04-17T00:00:00	2024-11-06T09:00:00	6	Velocidad del viento	19.3
20430	7	Sololá	701	Sololá	3	Barraneche	4	Abril	2023-04-17T00:00:00	2024-11-06T09:00:00	7	Dirección del viento	19.31
20431	7	Sololá	701	Sololá	3	Barraneche	4	Abril	2023-04-17T00:00:00	2024-11-06T09:00:00	1	Precipitación	0
20432	7	Sololá	701	Sololá	3	Barraneche	4	Abril	2023-04-17T00:00:00	2024-11-06T09:00:00	8	Radiación solar	590
20433	7	Sololá	701	Sololá	3	Barraneche	4	Abril	2023-04-17T00:00:00	2024-11-06T10:00:00	2	Temperatura media	18.4
20434	7	Sololá	701	Sololá	3	Barraneche	4	Abril	2023-04-17T00:00:00	2024-11-06T10:00:00	4	Temperatura máxima	18.5
20435	7	Sololá	701	Sololá	3	Barraneche	4	Abril	2023-04-17T00:00:00	2024-11-06T10:00:00	3	Temperatura mínima	17.2
20436	7	Sololá	701	Sololá	3	Barraneche	4	Abril	2023-04-17T00:00:00	2024-11-06T10:00:00	5	Humedad	43
20437	7	Sololá	701	Sololá	3	Barraneche	4	Abril	2023-04-17T00:00:00	2024-11-06T10:00:00	6	Velocidad del viento	19.3
20438	7	Sololá	701	Sololá	3	Barraneche	4	Abril	2023-04-17T00:00:00	2024-11-06T10:00:00	7	Dirección del viento	19.31
20439	7	Sololá	701	Sololá	3	Barraneche	4	Abril	2023-04-17T00:00:00	2024-11-06T10:00:00	1	Precipitación	0
20440	7	Sololá	701	Sololá	3	Barraneche	4	Abril	2023-04-17T00:00:00	2024-11-06T10:00:00	8	Radiación solar	801
20441	7	Sololá	701	Sololá	3	Barraneche	4	Abril	2023-04-17T00:00:00	2024-11-06T11:00:00	2	Temperatura media	19.2
20442	7	Sololá	701	Sololá	3	Barraneche	4	Abril	2023-04-17T00:00:00	2024-11-06T11:00:00	4	Temperatura máxima	19.4
20443	7	Sololá	701	Sololá	3	Barraneche	4	Abril	2023-04-17T00:00:00	2024-11-06T11:00:00	3	Temperatura mínima	18.2
20444	7	Sololá	701	Sololá	3	Barraneche	4	Abril	2023-04-17T00:00:00	2024-11-06T11:00:00	5	Humedad	40
20445	7	Sololá	701	Sololá	3	Barraneche	4	Abril	2023-04-17T00:00:00	2024-11-06T11:00:00	6	Velocidad del viento	17.7
20446	7	Sololá	701	Sololá	3	Barraneche	4	Abril	2023-04-17T00:00:00	2024-11-06T11:00:00	7	Dirección del viento	17.7
20447	7	Sololá	701	Sololá	3	Barraneche	4	Abril	2023-04-17T00:00:00	2024-11-06T11:00:00	1	Precipitación	0
20448	7	Sololá	701	Sololá	3	Barraneche	4	Abril	2023-04-17T00:00:00	2024-11-06T11:00:00	8	Radiación solar	962
20449	7	Sololá	701	Sololá	3	Barraneche	4	Abril	2023-04-17T00:00:00	2024-11-06T12:00:00	2	Temperatura media	21.2
20450	7	Sololá	701	Sololá	3	Barraneche	4	Abril	2023-04-17T00:00:00	2024-11-06T12:00:00	4	Temperatura máxima	21.2
20451	7	Sololá	701	Sololá	3	Barraneche	4	Abril	2023-04-17T00:00:00	2024-11-06T12:00:00	3	Temperatura mínima	19.2
20452	7	Sololá	701	Sololá	3	Barraneche	4	Abril	2023-04-17T00:00:00	2024-11-06T12:00:00	5	Humedad	31
20453	7	Sololá	701	Sololá	3	Barraneche	4	Abril	2023-04-17T00:00:00	2024-11-06T12:00:00	6	Velocidad del viento	16.1
20454	7	Sololá	701	Sololá	3	Barraneche	4	Abril	2023-04-17T00:00:00	2024-11-06T12:00:00	7	Dirección del viento	16.09
20455	7	Sololá	701	Sololá	3	Barraneche	4	Abril	2023-04-17T00:00:00	2024-11-06T12:00:00	1	Precipitación	0
20456	7	Sololá	701	Sololá	3	Barraneche	4	Abril	2023-04-17T00:00:00	2024-11-06T12:00:00	8	Radiación solar	1048
20457	7	Sololá	701	Sololá	3	Barraneche	4	Abril	2023-04-17T00:00:00	2024-11-06T13:00:00	2	Temperatura media	19.8
20458	7	Sololá	701	Sololá	3	Barraneche	4	Abril	2023-04-17T00:00:00	2024-11-06T13:00:00	4	Temperatura máxima	21.2
20459	7	Sololá	701	Sololá	3	Barraneche	4	Abril	2023-04-17T00:00:00	2024-11-06T13:00:00	3	Temperatura mínima	19.8
20460	7	Sololá	701	Sololá	3	Barraneche	4	Abril	2023-04-17T00:00:00	2024-11-06T13:00:00	5	Humedad	35
20461	7	Sololá	701	Sololá	3	Barraneche	4	Abril	2023-04-17T00:00:00	2024-11-06T13:00:00	6	Velocidad del viento	11.3
20462	7	Sololá	701	Sololá	3	Barraneche	4	Abril	2023-04-17T00:00:00	2024-11-06T13:00:00	7	Dirección del viento	11.27
20463	7	Sololá	701	Sololá	3	Barraneche	4	Abril	2023-04-17T00:00:00	2024-11-06T13:00:00	1	Precipitación	0
20464	7	Sololá	701	Sololá	3	Barraneche	4	Abril	2023-04-17T00:00:00	2024-11-06T13:00:00	8	Radiación solar	370
20465	7	Sololá	701	Sololá	3	Barraneche	4	Abril	2023-04-17T00:00:00	2024-11-06T14:00:00	2	Temperatura media	15.9
20466	7	Sololá	701	Sololá	3	Barraneche	4	Abril	2023-04-17T00:00:00	2024-11-06T14:00:00	4	Temperatura máxima	19.9
20467	7	Sololá	701	Sololá	3	Barraneche	4	Abril	2023-04-17T00:00:00	2024-11-06T14:00:00	3	Temperatura mínima	15.8
20468	7	Sololá	701	Sololá	3	Barraneche	4	Abril	2023-04-17T00:00:00	2024-11-06T14:00:00	5	Humedad	69
20469	7	Sololá	701	Sololá	3	Barraneche	4	Abril	2023-04-17T00:00:00	2024-11-06T14:00:00	6	Velocidad del viento	9.7
20470	7	Sololá	701	Sololá	3	Barraneche	4	Abril	2023-04-17T00:00:00	2024-11-06T14:00:00	7	Dirección del viento	9.66
20471	7	Sololá	701	Sololá	3	Barraneche	4	Abril	2023-04-17T00:00:00	2024-11-06T14:00:00	1	Precipitación	0
20472	7	Sololá	701	Sololá	3	Barraneche	4	Abril	2023-04-17T00:00:00	2024-11-06T14:00:00	8	Radiación solar	106
20473	7	Sololá	701	Sololá	3	Barraneche	4	Abril	2023-04-17T00:00:00	2024-11-06T15:00:00	2	Temperatura media	15.3
20474	7	Sololá	701	Sololá	3	Barraneche	4	Abril	2023-04-17T00:00:00	2024-11-06T15:00:00	4	Temperatura máxima	15.8
20475	7	Sololá	701	Sololá	3	Barraneche	4	Abril	2023-04-17T00:00:00	2024-11-06T15:00:00	3	Temperatura mínima	15.2
20476	7	Sololá	701	Sololá	3	Barraneche	4	Abril	2023-04-17T00:00:00	2024-11-06T15:00:00	5	Humedad	68
20477	7	Sololá	701	Sololá	3	Barraneche	4	Abril	2023-04-17T00:00:00	2024-11-06T15:00:00	6	Velocidad del viento	6.4
20478	7	Sololá	701	Sololá	3	Barraneche	4	Abril	2023-04-17T00:00:00	2024-11-06T15:00:00	7	Dirección del viento	6.44
20479	7	Sololá	701	Sololá	3	Barraneche	4	Abril	2023-04-17T00:00:00	2024-11-06T15:00:00	1	Precipitación	0
20480	7	Sololá	701	Sololá	3	Barraneche	4	Abril	2023-04-17T00:00:00	2024-11-06T15:00:00	8	Radiación solar	74
20481	7	Sololá	701	Sololá	3	Barraneche	4	Abril	2023-04-17T00:00:00	2024-11-06T16:00:00	2	Temperatura media	15.2
20482	7	Sololá	701	Sololá	3	Barraneche	4	Abril	2023-04-17T00:00:00	2024-11-06T16:00:00	4	Temperatura máxima	15.7
20483	7	Sololá	701	Sololá	3	Barraneche	4	Abril	2023-04-17T00:00:00	2024-11-06T16:00:00	3	Temperatura mínima	15.2
20484	7	Sololá	701	Sololá	3	Barraneche	4	Abril	2023-04-17T00:00:00	2024-11-06T16:00:00	5	Humedad	62
20485	7	Sololá	701	Sololá	3	Barraneche	4	Abril	2023-04-17T00:00:00	2024-11-06T16:00:00	6	Velocidad del viento	6.4
20486	7	Sololá	701	Sololá	3	Barraneche	4	Abril	2023-04-17T00:00:00	2024-11-06T16:00:00	7	Dirección del viento	6.44
20487	7	Sololá	701	Sololá	3	Barraneche	4	Abril	2023-04-17T00:00:00	2024-11-06T16:00:00	1	Precipitación	0
20488	7	Sololá	701	Sololá	3	Barraneche	4	Abril	2023-04-17T00:00:00	2024-11-06T16:00:00	8	Radiación solar	86
20489	7	Sololá	701	Sololá	3	Barraneche	4	Abril	2023-04-17T00:00:00	2024-11-06T17:00:00	2	Temperatura media	14.7
20490	7	Sololá	701	Sololá	3	Barraneche	4	Abril	2023-04-17T00:00:00	2024-11-06T17:00:00	4	Temperatura máxima	15.2
20491	7	Sololá	701	Sololá	3	Barraneche	4	Abril	2023-04-17T00:00:00	2024-11-06T17:00:00	3	Temperatura mínima	13.9
20492	7	Sololá	701	Sololá	3	Barraneche	4	Abril	2023-04-17T00:00:00	2024-11-06T17:00:00	5	Humedad	72
20493	7	Sololá	701	Sololá	3	Barraneche	4	Abril	2023-04-17T00:00:00	2024-11-06T17:00:00	6	Velocidad del viento	6.4
20494	7	Sololá	701	Sololá	3	Barraneche	4	Abril	2023-04-17T00:00:00	2024-11-06T17:00:00	7	Dirección del viento	6.44
20495	7	Sololá	701	Sololá	3	Barraneche	4	Abril	2023-04-17T00:00:00	2024-11-06T17:00:00	1	Precipitación	0.6
20496	7	Sololá	701	Sololá	3	Barraneche	4	Abril	2023-04-17T00:00:00	2024-11-06T17:00:00	8	Radiación solar	122
20497	7	Sololá	701	Sololá	3	Barraneche	4	Abril	2023-04-17T00:00:00	2024-11-06T18:00:00	2	Temperatura media	14.5
20498	7	Sololá	701	Sololá	3	Barraneche	4	Abril	2023-04-17T00:00:00	2024-11-06T18:00:00	4	Temperatura máxima	14.9
20499	7	Sololá	701	Sololá	3	Barraneche	4	Abril	2023-04-17T00:00:00	2024-11-06T18:00:00	3	Temperatura mínima	14.5
20500	7	Sololá	701	Sololá	3	Barraneche	4	Abril	2023-04-17T00:00:00	2024-11-06T18:00:00	5	Humedad	67
20501	7	Sololá	701	Sololá	3	Barraneche	4	Abril	2023-04-17T00:00:00	2024-11-06T18:00:00	6	Velocidad del viento	3.2
20502	7	Sololá	701	Sololá	3	Barraneche	4	Abril	2023-04-17T00:00:00	2024-11-06T18:00:00	7	Dirección del viento	3.22
20503	7	Sololá	701	Sololá	3	Barraneche	4	Abril	2023-04-17T00:00:00	2024-11-06T18:00:00	1	Precipitación	0
20504	7	Sololá	701	Sololá	3	Barraneche	4	Abril	2023-04-17T00:00:00	2024-11-06T18:00:00	8	Radiación solar	57
20505	7	Sololá	701	Sololá	3	Barraneche	4	Abril	2023-04-17T00:00:00	2024-11-06T19:00:00	2	Temperatura media	12.9
20506	7	Sololá	701	Sololá	3	Barraneche	4	Abril	2023-04-17T00:00:00	2024-11-06T19:00:00	4	Temperatura máxima	14.5
20507	7	Sololá	701	Sololá	3	Barraneche	4	Abril	2023-04-17T00:00:00	2024-11-06T19:00:00	3	Temperatura mínima	12.9
20508	7	Sololá	701	Sololá	3	Barraneche	4	Abril	2023-04-17T00:00:00	2024-11-06T19:00:00	5	Humedad	68
20509	7	Sololá	701	Sololá	3	Barraneche	4	Abril	2023-04-17T00:00:00	2024-11-06T19:00:00	6	Velocidad del viento	3.2
20510	7	Sololá	701	Sololá	3	Barraneche	4	Abril	2023-04-17T00:00:00	2024-11-06T19:00:00	7	Dirección del viento	3.22
20511	7	Sololá	701	Sololá	3	Barraneche	4	Abril	2023-04-17T00:00:00	2024-11-06T19:00:00	1	Precipitación	0
20512	7	Sololá	701	Sololá	3	Barraneche	4	Abril	2023-04-17T00:00:00	2024-11-06T19:00:00	8	Radiación solar	0
20513	7	Sololá	701	Sololá	3	Barraneche	4	Abril	2023-04-17T00:00:00	2024-11-06T20:00:00	2	Temperatura media	13.7
20514	7	Sololá	701	Sololá	3	Barraneche	4	Abril	2023-04-17T00:00:00	2024-11-06T20:00:00	4	Temperatura máxima	13.9
20515	7	Sololá	701	Sololá	3	Barraneche	4	Abril	2023-04-17T00:00:00	2024-11-06T20:00:00	3	Temperatura mínima	12.8
20516	7	Sololá	701	Sololá	3	Barraneche	4	Abril	2023-04-17T00:00:00	2024-11-06T20:00:00	5	Humedad	63
20517	7	Sololá	701	Sololá	3	Barraneche	4	Abril	2023-04-17T00:00:00	2024-11-06T20:00:00	6	Velocidad del viento	9.7
20518	7	Sololá	701	Sololá	3	Barraneche	4	Abril	2023-04-17T00:00:00	2024-11-06T20:00:00	7	Dirección del viento	9.66
20519	7	Sololá	701	Sololá	3	Barraneche	4	Abril	2023-04-17T00:00:00	2024-11-06T20:00:00	1	Precipitación	0
20520	7	Sololá	701	Sololá	3	Barraneche	4	Abril	2023-04-17T00:00:00	2024-11-06T20:00:00	8	Radiación solar	0
20521	7	Sololá	701	Sololá	3	Barraneche	4	Abril	2023-04-17T00:00:00	2024-11-06T21:00:00	2	Temperatura media	13.1
20522	7	Sololá	701	Sololá	3	Barraneche	4	Abril	2023-04-17T00:00:00	2024-11-06T21:00:00	4	Temperatura máxima	13.7
20523	7	Sololá	701	Sololá	3	Barraneche	4	Abril	2023-04-17T00:00:00	2024-11-06T21:00:00	3	Temperatura mínima	13.1
20524	7	Sololá	701	Sololá	3	Barraneche	4	Abril	2023-04-17T00:00:00	2024-11-06T21:00:00	5	Humedad	63
20525	7	Sololá	701	Sololá	3	Barraneche	4	Abril	2023-04-17T00:00:00	2024-11-06T21:00:00	6	Velocidad del viento	9.7
20526	7	Sololá	701	Sololá	3	Barraneche	4	Abril	2023-04-17T00:00:00	2024-11-06T21:00:00	7	Dirección del viento	9.66
20527	7	Sololá	701	Sololá	3	Barraneche	4	Abril	2023-04-17T00:00:00	2024-11-06T21:00:00	1	Precipitación	0
20528	7	Sololá	701	Sololá	3	Barraneche	4	Abril	2023-04-17T00:00:00	2024-11-06T21:00:00	8	Radiación solar	0
20529	7	Sololá	701	Sololá	3	Barraneche	4	Abril	2023-04-17T00:00:00	2024-11-06T22:00:00	2	Temperatura media	12.7
20530	7	Sololá	701	Sololá	3	Barraneche	4	Abril	2023-04-17T00:00:00	2024-11-06T22:00:00	4	Temperatura máxima	13.2
20531	7	Sololá	701	Sololá	3	Barraneche	4	Abril	2023-04-17T00:00:00	2024-11-06T22:00:00	3	Temperatura mínima	12.3
20532	7	Sololá	701	Sololá	3	Barraneche	4	Abril	2023-04-17T00:00:00	2024-11-06T22:00:00	5	Humedad	65
20533	7	Sololá	701	Sololá	3	Barraneche	4	Abril	2023-04-17T00:00:00	2024-11-06T22:00:00	6	Velocidad del viento	6.4
20534	7	Sololá	701	Sololá	3	Barraneche	4	Abril	2023-04-17T00:00:00	2024-11-06T22:00:00	7	Dirección del viento	6.44
20535	7	Sololá	701	Sololá	3	Barraneche	4	Abril	2023-04-17T00:00:00	2024-11-06T22:00:00	1	Precipitación	0
20536	7	Sololá	701	Sololá	3	Barraneche	4	Abril	2023-04-17T00:00:00	2024-11-06T22:00:00	8	Radiación solar	0
20537	7	Sololá	701	Sololá	3	Barraneche	4	Abril	2023-04-17T00:00:00	2024-11-06T23:00:00	2	Temperatura media	13
20538	7	Sololá	701	Sololá	3	Barraneche	4	Abril	2023-04-17T00:00:00	2024-11-06T23:00:00	4	Temperatura máxima	13.1
20539	7	Sololá	701	Sololá	3	Barraneche	4	Abril	2023-04-17T00:00:00	2024-11-06T23:00:00	3	Temperatura mínima	12.7
20540	7	Sololá	701	Sololá	3	Barraneche	4	Abril	2023-04-17T00:00:00	2024-11-06T23:00:00	5	Humedad	64
20541	7	Sololá	701	Sololá	3	Barraneche	4	Abril	2023-04-17T00:00:00	2024-11-06T23:00:00	6	Velocidad del viento	6.4
20542	7	Sololá	701	Sololá	3	Barraneche	4	Abril	2023-04-17T00:00:00	2024-11-06T23:00:00	7	Dirección del viento	6.44
20543	7	Sololá	701	Sololá	3	Barraneche	4	Abril	2023-04-17T00:00:00	2024-11-06T23:00:00	1	Precipitación	0
20544	7	Sololá	701	Sololá	3	Barraneche	4	Abril	2023-04-17T00:00:00	2024-11-06T23:00:00	8	Radiación solar	0
20545	7	Sololá	701	Sololá	3	Barraneche	4	Abril	2023-04-18T00:00:00	2024-11-06T00:00:00	2	Temperatura media	12.8
20546	7	Sololá	701	Sololá	3	Barraneche	4	Abril	2023-04-18T00:00:00	2024-11-06T00:00:00	4	Temperatura máxima	13.2
20547	7	Sololá	701	Sololá	3	Barraneche	4	Abril	2023-04-18T00:00:00	2024-11-06T00:00:00	3	Temperatura mínima	12.8
20548	7	Sololá	701	Sololá	3	Barraneche	4	Abril	2023-04-18T00:00:00	2024-11-06T00:00:00	5	Humedad	67
20549	7	Sololá	701	Sololá	3	Barraneche	4	Abril	2023-04-18T00:00:00	2024-11-06T00:00:00	6	Velocidad del viento	8
20550	7	Sololá	701	Sololá	3	Barraneche	4	Abril	2023-04-18T00:00:00	2024-11-06T00:00:00	7	Dirección del viento	8.05
20551	7	Sololá	701	Sololá	3	Barraneche	4	Abril	2023-04-18T00:00:00	2024-11-06T00:00:00	1	Precipitación	0
20552	7	Sololá	701	Sololá	3	Barraneche	4	Abril	2023-04-18T00:00:00	2024-11-06T00:00:00	8	Radiación solar	0
20553	7	Sololá	701	Sololá	3	Barraneche	4	Abril	2023-04-18T00:00:00	2024-11-06T01:00:00	2	Temperatura media	11.9
20554	7	Sololá	701	Sololá	3	Barraneche	4	Abril	2023-04-18T00:00:00	2024-11-06T01:00:00	4	Temperatura máxima	12.8
20555	7	Sololá	701	Sololá	3	Barraneche	4	Abril	2023-04-18T00:00:00	2024-11-06T01:00:00	3	Temperatura mínima	11.9
20556	7	Sololá	701	Sololá	3	Barraneche	4	Abril	2023-04-18T00:00:00	2024-11-06T01:00:00	5	Humedad	72
20557	7	Sololá	701	Sololá	3	Barraneche	4	Abril	2023-04-18T00:00:00	2024-11-06T01:00:00	6	Velocidad del viento	3.2
20558	7	Sololá	701	Sololá	3	Barraneche	4	Abril	2023-04-18T00:00:00	2024-11-06T01:00:00	7	Dirección del viento	3.22
20559	7	Sololá	701	Sololá	3	Barraneche	4	Abril	2023-04-18T00:00:00	2024-11-06T01:00:00	1	Precipitación	0
20560	7	Sololá	701	Sololá	3	Barraneche	4	Abril	2023-04-18T00:00:00	2024-11-06T01:00:00	8	Radiación solar	0
20561	7	Sololá	701	Sololá	3	Barraneche	4	Abril	2023-04-18T00:00:00	2024-11-06T02:00:00	2	Temperatura media	12.3
20562	7	Sololá	701	Sololá	3	Barraneche	4	Abril	2023-04-18T00:00:00	2024-11-06T02:00:00	4	Temperatura máxima	12.3
20563	7	Sololá	701	Sololá	3	Barraneche	4	Abril	2023-04-18T00:00:00	2024-11-06T02:00:00	3	Temperatura mínima	11.9
20564	7	Sololá	701	Sololá	3	Barraneche	4	Abril	2023-04-18T00:00:00	2024-11-06T02:00:00	5	Humedad	66
20565	7	Sololá	701	Sololá	3	Barraneche	4	Abril	2023-04-18T00:00:00	2024-11-06T02:00:00	6	Velocidad del viento	11.3
20566	7	Sololá	701	Sololá	3	Barraneche	4	Abril	2023-04-18T00:00:00	2024-11-06T02:00:00	7	Dirección del viento	11.27
20567	7	Sololá	701	Sololá	3	Barraneche	4	Abril	2023-04-18T00:00:00	2024-11-06T02:00:00	1	Precipitación	0
20568	7	Sololá	701	Sololá	3	Barraneche	4	Abril	2023-04-18T00:00:00	2024-11-06T02:00:00	8	Radiación solar	0
20569	7	Sololá	701	Sololá	3	Barraneche	4	Abril	2023-04-18T00:00:00	2024-11-06T03:00:00	2	Temperatura media	12
20570	7	Sololá	701	Sololá	3	Barraneche	4	Abril	2023-04-18T00:00:00	2024-11-06T03:00:00	4	Temperatura máxima	12.5
20571	7	Sololá	701	Sololá	3	Barraneche	4	Abril	2023-04-18T00:00:00	2024-11-06T03:00:00	3	Temperatura mínima	11.9
20572	7	Sololá	701	Sololá	3	Barraneche	4	Abril	2023-04-18T00:00:00	2024-11-06T03:00:00	5	Humedad	66
20573	7	Sololá	701	Sololá	3	Barraneche	4	Abril	2023-04-18T00:00:00	2024-11-06T03:00:00	6	Velocidad del viento	6.4
20574	7	Sololá	701	Sololá	3	Barraneche	4	Abril	2023-04-18T00:00:00	2024-11-06T03:00:00	7	Dirección del viento	6.44
20575	7	Sololá	701	Sololá	3	Barraneche	4	Abril	2023-04-18T00:00:00	2024-11-06T03:00:00	1	Precipitación	0
20576	7	Sololá	701	Sololá	3	Barraneche	4	Abril	2023-04-18T00:00:00	2024-11-06T03:00:00	8	Radiación solar	0
20577	7	Sololá	701	Sololá	3	Barraneche	4	Abril	2023-04-18T00:00:00	2024-11-06T04:00:00	2	Temperatura media	10.7
20578	7	Sololá	701	Sololá	3	Barraneche	4	Abril	2023-04-18T00:00:00	2024-11-06T04:00:00	4	Temperatura máxima	12
20579	7	Sololá	701	Sololá	3	Barraneche	4	Abril	2023-04-18T00:00:00	2024-11-06T04:00:00	3	Temperatura mínima	10.5
20580	7	Sololá	701	Sololá	3	Barraneche	4	Abril	2023-04-18T00:00:00	2024-11-06T04:00:00	5	Humedad	69
20581	7	Sololá	701	Sololá	3	Barraneche	4	Abril	2023-04-18T00:00:00	2024-11-06T04:00:00	6	Velocidad del viento	3.2
20582	7	Sololá	701	Sololá	3	Barraneche	4	Abril	2023-04-18T00:00:00	2024-11-06T04:00:00	7	Dirección del viento	3.22
20583	7	Sololá	701	Sololá	3	Barraneche	4	Abril	2023-04-18T00:00:00	2024-11-06T04:00:00	1	Precipitación	0
20584	7	Sololá	701	Sololá	3	Barraneche	4	Abril	2023-04-18T00:00:00	2024-11-06T04:00:00	8	Radiación solar	0
20585	7	Sololá	701	Sololá	3	Barraneche	4	Abril	2023-04-18T00:00:00	2024-11-06T05:00:00	2	Temperatura media	9.7
20586	7	Sololá	701	Sololá	3	Barraneche	4	Abril	2023-04-18T00:00:00	2024-11-06T05:00:00	4	Temperatura máxima	10.7
20587	7	Sololá	701	Sololá	3	Barraneche	4	Abril	2023-04-18T00:00:00	2024-11-06T05:00:00	3	Temperatura mínima	9.7
20588	7	Sololá	701	Sololá	3	Barraneche	4	Abril	2023-04-18T00:00:00	2024-11-06T05:00:00	5	Humedad	70
20589	7	Sololá	701	Sololá	3	Barraneche	4	Abril	2023-04-18T00:00:00	2024-11-06T05:00:00	6	Velocidad del viento	6.4
20590	7	Sololá	701	Sololá	3	Barraneche	4	Abril	2023-04-18T00:00:00	2024-11-06T05:00:00	7	Dirección del viento	6.44
20591	7	Sololá	701	Sololá	3	Barraneche	4	Abril	2023-04-18T00:00:00	2024-11-06T05:00:00	1	Precipitación	0
20592	7	Sololá	701	Sololá	3	Barraneche	4	Abril	2023-04-18T00:00:00	2024-11-06T05:00:00	8	Radiación solar	0
20593	7	Sololá	701	Sololá	3	Barraneche	4	Abril	2023-04-18T00:00:00	2024-11-06T06:00:00	2	Temperatura media	10
20594	7	Sololá	701	Sololá	3	Barraneche	4	Abril	2023-04-18T00:00:00	2024-11-06T06:00:00	4	Temperatura máxima	10
20595	7	Sololá	701	Sololá	3	Barraneche	4	Abril	2023-04-18T00:00:00	2024-11-06T06:00:00	3	Temperatura mínima	9.7
20596	7	Sololá	701	Sololá	3	Barraneche	4	Abril	2023-04-18T00:00:00	2024-11-06T06:00:00	5	Humedad	69
20597	7	Sololá	701	Sololá	3	Barraneche	4	Abril	2023-04-18T00:00:00	2024-11-06T06:00:00	6	Velocidad del viento	4.8
20598	7	Sololá	701	Sololá	3	Barraneche	4	Abril	2023-04-18T00:00:00	2024-11-06T06:00:00	7	Dirección del viento	4.83
20599	7	Sololá	701	Sololá	3	Barraneche	4	Abril	2023-04-18T00:00:00	2024-11-06T06:00:00	1	Precipitación	0
20600	7	Sololá	701	Sololá	3	Barraneche	4	Abril	2023-04-18T00:00:00	2024-11-06T06:00:00	8	Radiación solar	2
20601	7	Sololá	701	Sololá	3	Barraneche	4	Abril	2023-04-18T00:00:00	2024-11-06T07:00:00	2	Temperatura media	11.9
20602	7	Sololá	701	Sololá	3	Barraneche	4	Abril	2023-04-18T00:00:00	2024-11-06T07:00:00	4	Temperatura máxima	11.9
20603	7	Sololá	701	Sololá	3	Barraneche	4	Abril	2023-04-18T00:00:00	2024-11-06T07:00:00	3	Temperatura mínima	9.9
20604	7	Sololá	701	Sololá	3	Barraneche	4	Abril	2023-04-18T00:00:00	2024-11-06T07:00:00	5	Humedad	67
20605	7	Sololá	701	Sololá	3	Barraneche	4	Abril	2023-04-18T00:00:00	2024-11-06T07:00:00	6	Velocidad del viento	3.2
20606	7	Sololá	701	Sololá	3	Barraneche	4	Abril	2023-04-18T00:00:00	2024-11-06T07:00:00	7	Dirección del viento	3.22
20607	7	Sololá	701	Sololá	3	Barraneche	4	Abril	2023-04-18T00:00:00	2024-11-06T07:00:00	1	Precipitación	0
20608	7	Sololá	701	Sololá	3	Barraneche	4	Abril	2023-04-18T00:00:00	2024-11-06T07:00:00	8	Radiación solar	74
20609	7	Sololá	701	Sololá	3	Barraneche	4	Abril	2023-04-18T00:00:00	2024-11-06T08:00:00	2	Temperatura media	15.8
20610	7	Sololá	701	Sololá	3	Barraneche	4	Abril	2023-04-18T00:00:00	2024-11-06T08:00:00	4	Temperatura máxima	15.8
20611	7	Sololá	701	Sololá	3	Barraneche	4	Abril	2023-04-18T00:00:00	2024-11-06T08:00:00	3	Temperatura mínima	11.9
20612	7	Sololá	701	Sololá	3	Barraneche	4	Abril	2023-04-18T00:00:00	2024-11-06T08:00:00	5	Humedad	56
20613	7	Sololá	701	Sololá	3	Barraneche	4	Abril	2023-04-18T00:00:00	2024-11-06T08:00:00	6	Velocidad del viento	3.2
20614	7	Sololá	701	Sololá	3	Barraneche	4	Abril	2023-04-18T00:00:00	2024-11-06T08:00:00	7	Dirección del viento	3.22
20615	7	Sololá	701	Sololá	3	Barraneche	4	Abril	2023-04-18T00:00:00	2024-11-06T08:00:00	1	Precipitación	0
20616	7	Sololá	701	Sololá	3	Barraneche	4	Abril	2023-04-18T00:00:00	2024-11-06T08:00:00	8	Radiación solar	357
20617	7	Sololá	701	Sololá	3	Barraneche	4	Abril	2023-04-18T00:00:00	2024-11-06T09:00:00	2	Temperatura media	17
20618	7	Sololá	701	Sololá	3	Barraneche	4	Abril	2023-04-18T00:00:00	2024-11-06T09:00:00	4	Temperatura máxima	17
20619	7	Sololá	701	Sololá	3	Barraneche	4	Abril	2023-04-18T00:00:00	2024-11-06T09:00:00	3	Temperatura mínima	15.8
20620	7	Sololá	701	Sololá	3	Barraneche	4	Abril	2023-04-18T00:00:00	2024-11-06T09:00:00	5	Humedad	50
20621	7	Sololá	701	Sololá	3	Barraneche	4	Abril	2023-04-18T00:00:00	2024-11-06T09:00:00	6	Velocidad del viento	3.2
20622	7	Sololá	701	Sololá	3	Barraneche	4	Abril	2023-04-18T00:00:00	2024-11-06T09:00:00	7	Dirección del viento	3.22
20623	7	Sololá	701	Sololá	3	Barraneche	4	Abril	2023-04-18T00:00:00	2024-11-06T09:00:00	1	Precipitación	0
20624	7	Sololá	701	Sololá	3	Barraneche	4	Abril	2023-04-18T00:00:00	2024-11-06T09:00:00	8	Radiación solar	359
20625	7	Sololá	701	Sololá	3	Barraneche	4	Abril	2023-04-18T00:00:00	2024-11-06T10:00:00	2	Temperatura media	16.5
20626	7	Sololá	701	Sololá	3	Barraneche	4	Abril	2023-04-18T00:00:00	2024-11-06T10:00:00	4	Temperatura máxima	17.4
20627	7	Sololá	701	Sololá	3	Barraneche	4	Abril	2023-04-18T00:00:00	2024-11-06T10:00:00	3	Temperatura mínima	16.4
20628	7	Sololá	701	Sololá	3	Barraneche	4	Abril	2023-04-18T00:00:00	2024-11-06T10:00:00	5	Humedad	55
20629	7	Sololá	701	Sololá	3	Barraneche	4	Abril	2023-04-18T00:00:00	2024-11-06T10:00:00	6	Velocidad del viento	9.7
20630	7	Sololá	701	Sololá	3	Barraneche	4	Abril	2023-04-18T00:00:00	2024-11-06T10:00:00	7	Dirección del viento	9.66
20631	7	Sololá	701	Sololá	3	Barraneche	4	Abril	2023-04-18T00:00:00	2024-11-06T10:00:00	1	Precipitación	0
20632	7	Sololá	701	Sololá	3	Barraneche	4	Abril	2023-04-18T00:00:00	2024-11-06T10:00:00	8	Radiación solar	691
20633	7	Sololá	701	Sololá	3	Barraneche	4	Abril	2023-04-18T00:00:00	2024-11-06T11:00:00	2	Temperatura media	18.4
20634	7	Sololá	701	Sololá	3	Barraneche	4	Abril	2023-04-18T00:00:00	2024-11-06T11:00:00	4	Temperatura máxima	18.4
20635	7	Sololá	701	Sololá	3	Barraneche	4	Abril	2023-04-18T00:00:00	2024-11-06T11:00:00	3	Temperatura mínima	16.6
20636	7	Sololá	701	Sololá	3	Barraneche	4	Abril	2023-04-18T00:00:00	2024-11-06T11:00:00	5	Humedad	49
20637	7	Sololá	701	Sololá	3	Barraneche	4	Abril	2023-04-18T00:00:00	2024-11-06T11:00:00	6	Velocidad del viento	12.9
20638	7	Sololá	701	Sololá	3	Barraneche	4	Abril	2023-04-18T00:00:00	2024-11-06T11:00:00	7	Dirección del viento	12.87
20639	7	Sololá	701	Sololá	3	Barraneche	4	Abril	2023-04-18T00:00:00	2024-11-06T11:00:00	1	Precipitación	0
20640	7	Sololá	701	Sololá	3	Barraneche	4	Abril	2023-04-18T00:00:00	2024-11-06T11:00:00	8	Radiación solar	998
20641	7	Sololá	701	Sololá	3	Barraneche	4	Abril	2023-04-18T00:00:00	2024-11-06T12:00:00	2	Temperatura media	17.4
20642	7	Sololá	701	Sololá	3	Barraneche	4	Abril	2023-04-18T00:00:00	2024-11-06T12:00:00	4	Temperatura máxima	18.4
20643	7	Sololá	701	Sololá	3	Barraneche	4	Abril	2023-04-18T00:00:00	2024-11-06T12:00:00	3	Temperatura mínima	17.2
20644	7	Sololá	701	Sololá	3	Barraneche	4	Abril	2023-04-18T00:00:00	2024-11-06T12:00:00	5	Humedad	58
20645	7	Sololá	701	Sololá	3	Barraneche	4	Abril	2023-04-18T00:00:00	2024-11-06T12:00:00	6	Velocidad del viento	14.5
20646	7	Sololá	701	Sololá	3	Barraneche	4	Abril	2023-04-18T00:00:00	2024-11-06T12:00:00	7	Dirección del viento	14.48
20647	7	Sololá	701	Sololá	3	Barraneche	4	Abril	2023-04-18T00:00:00	2024-11-06T12:00:00	1	Precipitación	0
20648	7	Sololá	701	Sololá	3	Barraneche	4	Abril	2023-04-18T00:00:00	2024-11-06T12:00:00	8	Radiación solar	748
20649	7	Sololá	701	Sololá	3	Barraneche	4	Abril	2023-04-18T00:00:00	2024-11-06T13:00:00	2	Temperatura media	16.7
20650	7	Sololá	701	Sololá	3	Barraneche	4	Abril	2023-04-18T00:00:00	2024-11-06T13:00:00	4	Temperatura máxima	17.9
20651	7	Sololá	701	Sololá	3	Barraneche	4	Abril	2023-04-18T00:00:00	2024-11-06T13:00:00	3	Temperatura mínima	16.7
20652	7	Sololá	701	Sololá	3	Barraneche	4	Abril	2023-04-18T00:00:00	2024-11-06T13:00:00	5	Humedad	62
20653	7	Sololá	701	Sololá	3	Barraneche	4	Abril	2023-04-18T00:00:00	2024-11-06T13:00:00	6	Velocidad del viento	12.9
20654	7	Sololá	701	Sololá	3	Barraneche	4	Abril	2023-04-18T00:00:00	2024-11-06T13:00:00	7	Dirección del viento	12.87
20655	7	Sololá	701	Sololá	3	Barraneche	4	Abril	2023-04-18T00:00:00	2024-11-06T13:00:00	1	Precipitación	0
20656	7	Sololá	701	Sololá	3	Barraneche	4	Abril	2023-04-18T00:00:00	2024-11-06T13:00:00	8	Radiación solar	517
20657	7	Sololá	701	Sololá	3	Barraneche	4	Abril	2023-04-18T00:00:00	2024-11-06T14:00:00	2	Temperatura media	16.5
20658	7	Sololá	701	Sololá	3	Barraneche	4	Abril	2023-04-18T00:00:00	2024-11-06T14:00:00	4	Temperatura máxima	17.5
20659	7	Sololá	701	Sololá	3	Barraneche	4	Abril	2023-04-18T00:00:00	2024-11-06T14:00:00	3	Temperatura mínima	16.4
20660	7	Sololá	701	Sololá	3	Barraneche	4	Abril	2023-04-18T00:00:00	2024-11-06T14:00:00	5	Humedad	63
20661	7	Sololá	701	Sololá	3	Barraneche	4	Abril	2023-04-18T00:00:00	2024-11-06T14:00:00	6	Velocidad del viento	11.3
20662	7	Sololá	701	Sololá	3	Barraneche	4	Abril	2023-04-18T00:00:00	2024-11-06T14:00:00	7	Dirección del viento	11.27
20663	7	Sololá	701	Sololá	3	Barraneche	4	Abril	2023-04-18T00:00:00	2024-11-06T14:00:00	1	Precipitación	0
20664	7	Sololá	701	Sololá	3	Barraneche	4	Abril	2023-04-18T00:00:00	2024-11-06T14:00:00	8	Radiación solar	347
20665	7	Sololá	701	Sololá	3	Barraneche	4	Abril	2023-04-18T00:00:00	2024-11-06T15:00:00	2	Temperatura media	16.1
20666	7	Sololá	701	Sololá	3	Barraneche	4	Abril	2023-04-18T00:00:00	2024-11-06T15:00:00	4	Temperatura máxima	16.4
20667	7	Sololá	701	Sololá	3	Barraneche	4	Abril	2023-04-18T00:00:00	2024-11-06T15:00:00	3	Temperatura mínima	15.8
20668	7	Sololá	701	Sololá	3	Barraneche	4	Abril	2023-04-18T00:00:00	2024-11-06T15:00:00	5	Humedad	66
20669	7	Sololá	701	Sololá	3	Barraneche	4	Abril	2023-04-18T00:00:00	2024-11-06T15:00:00	6	Velocidad del viento	8
20670	7	Sololá	701	Sololá	3	Barraneche	4	Abril	2023-04-18T00:00:00	2024-11-06T15:00:00	7	Dirección del viento	8.05
20671	7	Sololá	701	Sololá	3	Barraneche	4	Abril	2023-04-18T00:00:00	2024-11-06T15:00:00	1	Precipitación	0
20672	7	Sololá	701	Sololá	3	Barraneche	4	Abril	2023-04-18T00:00:00	2024-11-06T15:00:00	8	Radiación solar	164
20673	7	Sololá	701	Sololá	3	Barraneche	4	Abril	2023-04-18T00:00:00	2024-11-06T16:00:00	2	Temperatura media	16.1
20674	7	Sololá	701	Sololá	3	Barraneche	4	Abril	2023-04-18T00:00:00	2024-11-06T16:00:00	4	Temperatura máxima	16.3
20675	7	Sololá	701	Sololá	3	Barraneche	4	Abril	2023-04-18T00:00:00	2024-11-06T16:00:00	3	Temperatura mínima	15.9
20676	7	Sololá	701	Sololá	3	Barraneche	4	Abril	2023-04-18T00:00:00	2024-11-06T16:00:00	5	Humedad	67
20677	7	Sololá	701	Sololá	3	Barraneche	4	Abril	2023-04-18T00:00:00	2024-11-06T16:00:00	6	Velocidad del viento	8
20678	7	Sololá	701	Sololá	3	Barraneche	4	Abril	2023-04-18T00:00:00	2024-11-06T16:00:00	7	Dirección del viento	8.05
20679	7	Sololá	701	Sololá	3	Barraneche	4	Abril	2023-04-18T00:00:00	2024-11-06T16:00:00	1	Precipitación	0
20680	7	Sololá	701	Sololá	3	Barraneche	4	Abril	2023-04-18T00:00:00	2024-11-06T16:00:00	8	Radiación solar	193
20681	7	Sololá	701	Sololá	3	Barraneche	4	Abril	2023-04-18T00:00:00	2024-11-06T17:00:00	2	Temperatura media	14.7
20682	7	Sololá	701	Sololá	3	Barraneche	4	Abril	2023-04-18T00:00:00	2024-11-06T17:00:00	4	Temperatura máxima	16.1
20683	7	Sololá	701	Sololá	3	Barraneche	4	Abril	2023-04-18T00:00:00	2024-11-06T17:00:00	3	Temperatura mínima	14.7
20684	7	Sololá	701	Sololá	3	Barraneche	4	Abril	2023-04-18T00:00:00	2024-11-06T17:00:00	5	Humedad	71
20685	7	Sololá	701	Sololá	3	Barraneche	4	Abril	2023-04-18T00:00:00	2024-11-06T17:00:00	6	Velocidad del viento	6.4
20686	7	Sololá	701	Sololá	3	Barraneche	4	Abril	2023-04-18T00:00:00	2024-11-06T17:00:00	7	Dirección del viento	6.44
20687	7	Sololá	701	Sololá	3	Barraneche	4	Abril	2023-04-18T00:00:00	2024-11-06T17:00:00	1	Precipitación	0
20688	7	Sololá	701	Sololá	3	Barraneche	4	Abril	2023-04-18T00:00:00	2024-11-06T17:00:00	8	Radiación solar	33
20689	7	Sololá	701	Sololá	3	Barraneche	4	Abril	2023-04-18T00:00:00	2024-11-06T18:00:00	2	Temperatura media	14.4
20690	7	Sololá	701	Sololá	3	Barraneche	4	Abril	2023-04-18T00:00:00	2024-11-06T18:00:00	4	Temperatura máxima	14.7
20691	7	Sololá	701	Sololá	3	Barraneche	4	Abril	2023-04-18T00:00:00	2024-11-06T18:00:00	3	Temperatura mínima	14.4
20692	7	Sololá	701	Sololá	3	Barraneche	4	Abril	2023-04-18T00:00:00	2024-11-06T18:00:00	5	Humedad	71
20693	7	Sololá	701	Sololá	3	Barraneche	4	Abril	2023-04-18T00:00:00	2024-11-06T18:00:00	6	Velocidad del viento	3.2
20694	7	Sololá	701	Sololá	3	Barraneche	4	Abril	2023-04-18T00:00:00	2024-11-06T18:00:00	7	Dirección del viento	3.22
20695	7	Sololá	701	Sololá	3	Barraneche	4	Abril	2023-04-18T00:00:00	2024-11-06T18:00:00	1	Precipitación	0
20696	7	Sololá	701	Sololá	3	Barraneche	4	Abril	2023-04-18T00:00:00	2024-11-06T18:00:00	8	Radiación solar	28
20697	7	Sololá	701	Sololá	3	Barraneche	4	Abril	2023-04-18T00:00:00	2024-11-06T19:00:00	2	Temperatura media	14.2
20698	7	Sololá	701	Sololá	3	Barraneche	4	Abril	2023-04-18T00:00:00	2024-11-06T19:00:00	4	Temperatura máxima	14.7
20699	7	Sololá	701	Sololá	3	Barraneche	4	Abril	2023-04-18T00:00:00	2024-11-06T19:00:00	3	Temperatura mínima	14.2
20700	7	Sololá	701	Sololá	3	Barraneche	4	Abril	2023-04-18T00:00:00	2024-11-06T19:00:00	5	Humedad	74
20701	7	Sololá	701	Sololá	3	Barraneche	4	Abril	2023-04-18T00:00:00	2024-11-06T19:00:00	6	Velocidad del viento	1.6
20702	7	Sololá	701	Sololá	3	Barraneche	4	Abril	2023-04-18T00:00:00	2024-11-06T19:00:00	7	Dirección del viento	1.61
20703	7	Sololá	701	Sololá	3	Barraneche	4	Abril	2023-04-18T00:00:00	2024-11-06T19:00:00	1	Precipitación	0
20704	7	Sololá	701	Sololá	3	Barraneche	4	Abril	2023-04-18T00:00:00	2024-11-06T19:00:00	8	Radiación solar	0
20705	7	Sololá	701	Sololá	3	Barraneche	4	Abril	2023-04-18T00:00:00	2024-11-06T20:00:00	2	Temperatura media	15.1
20706	7	Sololá	701	Sololá	3	Barraneche	4	Abril	2023-04-18T00:00:00	2024-11-06T20:00:00	4	Temperatura máxima	15.3
20707	7	Sololá	701	Sololá	3	Barraneche	4	Abril	2023-04-18T00:00:00	2024-11-06T20:00:00	3	Temperatura mínima	14
20708	7	Sololá	701	Sololá	3	Barraneche	4	Abril	2023-04-18T00:00:00	2024-11-06T20:00:00	5	Humedad	63
20709	7	Sololá	701	Sololá	3	Barraneche	4	Abril	2023-04-18T00:00:00	2024-11-06T20:00:00	6	Velocidad del viento	6.4
20710	7	Sololá	701	Sololá	3	Barraneche	4	Abril	2023-04-18T00:00:00	2024-11-06T20:00:00	7	Dirección del viento	6.44
20711	7	Sololá	701	Sololá	3	Barraneche	4	Abril	2023-04-18T00:00:00	2024-11-06T20:00:00	1	Precipitación	0
20712	7	Sololá	701	Sololá	3	Barraneche	4	Abril	2023-04-18T00:00:00	2024-11-06T20:00:00	8	Radiación solar	0
20713	7	Sololá	701	Sololá	3	Barraneche	4	Abril	2023-04-18T00:00:00	2024-11-06T21:00:00	2	Temperatura media	14.6
20714	7	Sololá	701	Sololá	3	Barraneche	4	Abril	2023-04-18T00:00:00	2024-11-06T21:00:00	4	Temperatura máxima	15.1
20715	7	Sololá	701	Sololá	3	Barraneche	4	Abril	2023-04-18T00:00:00	2024-11-06T21:00:00	3	Temperatura mínima	14.6
20716	7	Sololá	701	Sololá	3	Barraneche	4	Abril	2023-04-18T00:00:00	2024-11-06T21:00:00	5	Humedad	63
20717	7	Sololá	701	Sololá	3	Barraneche	4	Abril	2023-04-18T00:00:00	2024-11-06T21:00:00	6	Velocidad del viento	8
20718	7	Sololá	701	Sololá	3	Barraneche	4	Abril	2023-04-18T00:00:00	2024-11-06T21:00:00	7	Dirección del viento	8.05
20719	7	Sololá	701	Sololá	3	Barraneche	4	Abril	2023-04-18T00:00:00	2024-11-06T21:00:00	1	Precipitación	0
20720	7	Sololá	701	Sololá	3	Barraneche	4	Abril	2023-04-18T00:00:00	2024-11-06T21:00:00	8	Radiación solar	0
20721	7	Sololá	701	Sololá	3	Barraneche	4	Abril	2023-04-18T00:00:00	2024-11-06T22:00:00	2	Temperatura media	13.9
20722	7	Sololá	701	Sololá	3	Barraneche	4	Abril	2023-04-18T00:00:00	2024-11-06T22:00:00	4	Temperatura máxima	14.7
20723	7	Sololá	701	Sololá	3	Barraneche	4	Abril	2023-04-18T00:00:00	2024-11-06T22:00:00	3	Temperatura mínima	13.9
20724	7	Sololá	701	Sololá	3	Barraneche	4	Abril	2023-04-18T00:00:00	2024-11-06T22:00:00	5	Humedad	63
20725	7	Sololá	701	Sololá	3	Barraneche	4	Abril	2023-04-18T00:00:00	2024-11-06T22:00:00	6	Velocidad del viento	6.4
20726	7	Sololá	701	Sololá	3	Barraneche	4	Abril	2023-04-18T00:00:00	2024-11-06T22:00:00	7	Dirección del viento	6.44
20727	7	Sololá	701	Sololá	3	Barraneche	4	Abril	2023-04-18T00:00:00	2024-11-06T22:00:00	1	Precipitación	0
20728	7	Sololá	701	Sololá	3	Barraneche	4	Abril	2023-04-18T00:00:00	2024-11-06T22:00:00	8	Radiación solar	0
20729	7	Sololá	701	Sololá	3	Barraneche	4	Abril	2023-04-18T00:00:00	2024-11-06T23:00:00	2	Temperatura media	13.6
20730	7	Sololá	701	Sololá	3	Barraneche	4	Abril	2023-04-18T00:00:00	2024-11-06T23:00:00	4	Temperatura máxima	13.9
20731	7	Sololá	701	Sololá	3	Barraneche	4	Abril	2023-04-18T00:00:00	2024-11-06T23:00:00	3	Temperatura mínima	13.5
20732	7	Sololá	701	Sololá	3	Barraneche	4	Abril	2023-04-18T00:00:00	2024-11-06T23:00:00	5	Humedad	61
20733	7	Sololá	701	Sololá	3	Barraneche	4	Abril	2023-04-18T00:00:00	2024-11-06T23:00:00	6	Velocidad del viento	6.4
20734	7	Sololá	701	Sololá	3	Barraneche	4	Abril	2023-04-18T00:00:00	2024-11-06T23:00:00	7	Dirección del viento	6.44
20735	7	Sololá	701	Sololá	3	Barraneche	4	Abril	2023-04-18T00:00:00	2024-11-06T23:00:00	1	Precipitación	0
20736	7	Sololá	701	Sololá	3	Barraneche	4	Abril	2023-04-18T00:00:00	2024-11-06T23:00:00	8	Radiación solar	0
20737	7	Sololá	701	Sololá	3	Barraneche	4	Abril	2023-04-19T00:00:00	2024-11-06T00:00:00	2	Temperatura media	12.7
20738	7	Sololá	701	Sololá	3	Barraneche	4	Abril	2023-04-19T00:00:00	2024-11-06T00:00:00	4	Temperatura máxima	13.6
20739	7	Sololá	701	Sololá	3	Barraneche	4	Abril	2023-04-19T00:00:00	2024-11-06T00:00:00	3	Temperatura mínima	12.7
20740	7	Sololá	701	Sololá	3	Barraneche	4	Abril	2023-04-19T00:00:00	2024-11-06T00:00:00	5	Humedad	64
20741	7	Sololá	701	Sololá	3	Barraneche	4	Abril	2023-04-19T00:00:00	2024-11-06T00:00:00	6	Velocidad del viento	3.2
20742	7	Sololá	701	Sololá	3	Barraneche	4	Abril	2023-04-19T00:00:00	2024-11-06T00:00:00	7	Dirección del viento	3.22
20743	7	Sololá	701	Sololá	3	Barraneche	4	Abril	2023-04-19T00:00:00	2024-11-06T00:00:00	1	Precipitación	0
20744	7	Sololá	701	Sololá	3	Barraneche	4	Abril	2023-04-19T00:00:00	2024-11-06T00:00:00	8	Radiación solar	0
20745	7	Sololá	701	Sololá	3	Barraneche	4	Abril	2023-04-19T00:00:00	2024-11-06T01:00:00	2	Temperatura media	11.8
20746	7	Sololá	701	Sololá	3	Barraneche	4	Abril	2023-04-19T00:00:00	2024-11-06T01:00:00	4	Temperatura máxima	12.7
20747	7	Sololá	701	Sololá	3	Barraneche	4	Abril	2023-04-19T00:00:00	2024-11-06T01:00:00	3	Temperatura mínima	11.8
20748	7	Sololá	701	Sololá	3	Barraneche	4	Abril	2023-04-19T00:00:00	2024-11-06T01:00:00	5	Humedad	66
20749	7	Sololá	701	Sololá	3	Barraneche	4	Abril	2023-04-19T00:00:00	2024-11-06T01:00:00	6	Velocidad del viento	3.2
20750	7	Sololá	701	Sololá	3	Barraneche	4	Abril	2023-04-19T00:00:00	2024-11-06T01:00:00	7	Dirección del viento	3.22
20751	7	Sololá	701	Sololá	3	Barraneche	4	Abril	2023-04-19T00:00:00	2024-11-06T01:00:00	1	Precipitación	0
20752	7	Sololá	701	Sololá	3	Barraneche	4	Abril	2023-04-19T00:00:00	2024-11-06T01:00:00	8	Radiación solar	0
20753	7	Sololá	701	Sololá	3	Barraneche	4	Abril	2023-04-19T00:00:00	2024-11-06T02:00:00	2	Temperatura media	10.5
20754	7	Sololá	701	Sololá	3	Barraneche	4	Abril	2023-04-19T00:00:00	2024-11-06T02:00:00	4	Temperatura máxima	11.8
20755	7	Sololá	701	Sololá	3	Barraneche	4	Abril	2023-04-19T00:00:00	2024-11-06T02:00:00	3	Temperatura mínima	10.5
20756	7	Sololá	701	Sololá	3	Barraneche	4	Abril	2023-04-19T00:00:00	2024-11-06T02:00:00	5	Humedad	68
20757	7	Sololá	701	Sololá	3	Barraneche	4	Abril	2023-04-19T00:00:00	2024-11-06T02:00:00	6	Velocidad del viento	3.2
20758	7	Sololá	701	Sololá	3	Barraneche	4	Abril	2023-04-19T00:00:00	2024-11-06T02:00:00	7	Dirección del viento	3.22
20759	7	Sololá	701	Sololá	3	Barraneche	4	Abril	2023-04-19T00:00:00	2024-11-06T02:00:00	1	Precipitación	0
20760	7	Sololá	701	Sololá	3	Barraneche	4	Abril	2023-04-19T00:00:00	2024-11-06T02:00:00	8	Radiación solar	0
20761	7	Sololá	701	Sololá	3	Barraneche	4	Abril	2023-04-19T00:00:00	2024-11-06T03:00:00	2	Temperatura media	10.6
20762	7	Sololá	701	Sololá	3	Barraneche	4	Abril	2023-04-19T00:00:00	2024-11-06T03:00:00	4	Temperatura máxima	10.7
20763	7	Sololá	701	Sololá	3	Barraneche	4	Abril	2023-04-19T00:00:00	2024-11-06T03:00:00	3	Temperatura mínima	9.9
20764	7	Sololá	701	Sololá	3	Barraneche	4	Abril	2023-04-19T00:00:00	2024-11-06T03:00:00	5	Humedad	61
20765	7	Sololá	701	Sololá	3	Barraneche	4	Abril	2023-04-19T00:00:00	2024-11-06T03:00:00	6	Velocidad del viento	9.7
20766	7	Sololá	701	Sololá	3	Barraneche	4	Abril	2023-04-19T00:00:00	2024-11-06T03:00:00	7	Dirección del viento	9.66
20767	7	Sololá	701	Sololá	3	Barraneche	4	Abril	2023-04-19T00:00:00	2024-11-06T03:00:00	1	Precipitación	0
20768	7	Sololá	701	Sololá	3	Barraneche	4	Abril	2023-04-19T00:00:00	2024-11-06T03:00:00	8	Radiación solar	0
20769	7	Sololá	701	Sololá	3	Barraneche	4	Abril	2023-04-19T00:00:00	2024-11-06T04:00:00	2	Temperatura media	10.4
20770	7	Sololá	701	Sololá	3	Barraneche	4	Abril	2023-04-19T00:00:00	2024-11-06T04:00:00	4	Temperatura máxima	10.8
20771	7	Sololá	701	Sololá	3	Barraneche	4	Abril	2023-04-19T00:00:00	2024-11-06T04:00:00	3	Temperatura mínima	10.1
20772	7	Sololá	701	Sololá	3	Barraneche	4	Abril	2023-04-19T00:00:00	2024-11-06T04:00:00	5	Humedad	57
20773	7	Sololá	701	Sololá	3	Barraneche	4	Abril	2023-04-19T00:00:00	2024-11-06T04:00:00	6	Velocidad del viento	11.3
20774	7	Sololá	701	Sololá	3	Barraneche	4	Abril	2023-04-19T00:00:00	2024-11-06T04:00:00	7	Dirección del viento	11.27
20775	7	Sololá	701	Sololá	3	Barraneche	4	Abril	2023-04-19T00:00:00	2024-11-06T04:00:00	1	Precipitación	0
20776	7	Sololá	701	Sololá	3	Barraneche	4	Abril	2023-04-19T00:00:00	2024-11-06T04:00:00	8	Radiación solar	0
20777	7	Sololá	701	Sololá	3	Barraneche	4	Abril	2023-04-19T00:00:00	2024-11-06T05:00:00	2	Temperatura media	11.1
20778	7	Sololá	701	Sololá	3	Barraneche	4	Abril	2023-04-19T00:00:00	2024-11-06T05:00:00	4	Temperatura máxima	11.1
20779	7	Sololá	701	Sololá	3	Barraneche	4	Abril	2023-04-19T00:00:00	2024-11-06T05:00:00	3	Temperatura mínima	10.3
20780	7	Sololá	701	Sololá	3	Barraneche	4	Abril	2023-04-19T00:00:00	2024-11-06T05:00:00	5	Humedad	46
20781	7	Sololá	701	Sololá	3	Barraneche	4	Abril	2023-04-19T00:00:00	2024-11-06T05:00:00	6	Velocidad del viento	9.7
20782	7	Sololá	701	Sololá	3	Barraneche	4	Abril	2023-04-19T00:00:00	2024-11-06T05:00:00	7	Dirección del viento	9.66
20783	7	Sololá	701	Sololá	3	Barraneche	4	Abril	2023-04-19T00:00:00	2024-11-06T05:00:00	1	Precipitación	0
20784	7	Sololá	701	Sololá	3	Barraneche	4	Abril	2023-04-19T00:00:00	2024-11-06T05:00:00	8	Radiación solar	0
20785	7	Sololá	701	Sololá	3	Barraneche	4	Abril	2023-04-19T00:00:00	2024-11-06T06:00:00	2	Temperatura media	9.7
20786	7	Sololá	701	Sololá	3	Barraneche	4	Abril	2023-04-19T00:00:00	2024-11-06T06:00:00	4	Temperatura máxima	11
20787	7	Sololá	701	Sololá	3	Barraneche	4	Abril	2023-04-19T00:00:00	2024-11-06T06:00:00	3	Temperatura mínima	9.1
20788	7	Sololá	701	Sololá	3	Barraneche	4	Abril	2023-04-19T00:00:00	2024-11-06T06:00:00	5	Humedad	49
20789	7	Sololá	701	Sololá	3	Barraneche	4	Abril	2023-04-19T00:00:00	2024-11-06T06:00:00	6	Velocidad del viento	6.4
20790	7	Sololá	701	Sololá	3	Barraneche	4	Abril	2023-04-19T00:00:00	2024-11-06T06:00:00	7	Dirección del viento	6.44
20791	7	Sololá	701	Sololá	3	Barraneche	4	Abril	2023-04-19T00:00:00	2024-11-06T06:00:00	1	Precipitación	0
20792	7	Sololá	701	Sololá	3	Barraneche	4	Abril	2023-04-19T00:00:00	2024-11-06T06:00:00	8	Radiación solar	2
20793	7	Sololá	701	Sololá	3	Barraneche	4	Abril	2023-04-19T00:00:00	2024-11-06T07:00:00	2	Temperatura media	12.2
20794	7	Sololá	701	Sololá	3	Barraneche	4	Abril	2023-04-19T00:00:00	2024-11-06T07:00:00	4	Temperatura máxima	12.2
20795	7	Sololá	701	Sololá	3	Barraneche	4	Abril	2023-04-19T00:00:00	2024-11-06T07:00:00	3	Temperatura mínima	9.7
20796	7	Sololá	701	Sololá	3	Barraneche	4	Abril	2023-04-19T00:00:00	2024-11-06T07:00:00	5	Humedad	45
20797	7	Sololá	701	Sololá	3	Barraneche	4	Abril	2023-04-19T00:00:00	2024-11-06T07:00:00	6	Velocidad del viento	9.7
20798	7	Sololá	701	Sololá	3	Barraneche	4	Abril	2023-04-19T00:00:00	2024-11-06T07:00:00	7	Dirección del viento	9.66
20799	7	Sololá	701	Sololá	3	Barraneche	4	Abril	2023-04-19T00:00:00	2024-11-06T07:00:00	1	Precipitación	0
20800	7	Sololá	701	Sololá	3	Barraneche	4	Abril	2023-04-19T00:00:00	2024-11-06T07:00:00	8	Radiación solar	80
20801	7	Sololá	701	Sololá	3	Barraneche	4	Abril	2023-04-19T00:00:00	2024-11-06T08:00:00	2	Temperatura media	15.9
20802	7	Sololá	701	Sololá	3	Barraneche	4	Abril	2023-04-19T00:00:00	2024-11-06T08:00:00	4	Temperatura máxima	15.9
20803	7	Sololá	701	Sololá	3	Barraneche	4	Abril	2023-04-19T00:00:00	2024-11-06T08:00:00	3	Temperatura mínima	12.2
20804	7	Sololá	701	Sololá	3	Barraneche	4	Abril	2023-04-19T00:00:00	2024-11-06T08:00:00	5	Humedad	36
20805	7	Sololá	701	Sololá	3	Barraneche	4	Abril	2023-04-19T00:00:00	2024-11-06T08:00:00	6	Velocidad del viento	4.8
20806	7	Sololá	701	Sololá	3	Barraneche	4	Abril	2023-04-19T00:00:00	2024-11-06T08:00:00	7	Dirección del viento	4.83
20807	7	Sololá	701	Sololá	3	Barraneche	4	Abril	2023-04-19T00:00:00	2024-11-06T08:00:00	1	Precipitación	0
20808	7	Sololá	701	Sololá	3	Barraneche	4	Abril	2023-04-19T00:00:00	2024-11-06T08:00:00	8	Radiación solar	365
20809	7	Sololá	701	Sololá	3	Barraneche	4	Abril	2023-04-19T00:00:00	2024-11-06T09:00:00	2	Temperatura media	17.8
20810	7	Sololá	701	Sololá	3	Barraneche	4	Abril	2023-04-19T00:00:00	2024-11-06T09:00:00	4	Temperatura máxima	17.9
20811	7	Sololá	701	Sololá	3	Barraneche	4	Abril	2023-04-19T00:00:00	2024-11-06T09:00:00	3	Temperatura mínima	15.9
20812	7	Sololá	701	Sololá	3	Barraneche	4	Abril	2023-04-19T00:00:00	2024-11-06T09:00:00	5	Humedad	35
20813	7	Sololá	701	Sololá	3	Barraneche	4	Abril	2023-04-19T00:00:00	2024-11-06T09:00:00	6	Velocidad del viento	4.8
20814	7	Sololá	701	Sololá	3	Barraneche	4	Abril	2023-04-19T00:00:00	2024-11-06T09:00:00	7	Dirección del viento	4.83
20815	7	Sololá	701	Sololá	3	Barraneche	4	Abril	2023-04-19T00:00:00	2024-11-06T09:00:00	1	Precipitación	0
20816	7	Sololá	701	Sololá	3	Barraneche	4	Abril	2023-04-19T00:00:00	2024-11-06T09:00:00	8	Radiación solar	605
20817	7	Sololá	701	Sololá	3	Barraneche	4	Abril	2023-04-19T00:00:00	2024-11-06T10:00:00	2	Temperatura media	18.6
20818	7	Sololá	701	Sololá	3	Barraneche	4	Abril	2023-04-19T00:00:00	2024-11-06T10:00:00	4	Temperatura máxima	18.7
20819	7	Sololá	701	Sololá	3	Barraneche	4	Abril	2023-04-19T00:00:00	2024-11-06T10:00:00	3	Temperatura mínima	17.7
20820	7	Sololá	701	Sololá	3	Barraneche	4	Abril	2023-04-19T00:00:00	2024-11-06T10:00:00	5	Humedad	35
20821	7	Sololá	701	Sololá	3	Barraneche	4	Abril	2023-04-19T00:00:00	2024-11-06T10:00:00	6	Velocidad del viento	9.7
20822	7	Sololá	701	Sololá	3	Barraneche	4	Abril	2023-04-19T00:00:00	2024-11-06T10:00:00	7	Dirección del viento	9.66
20823	7	Sololá	701	Sololá	3	Barraneche	4	Abril	2023-04-19T00:00:00	2024-11-06T10:00:00	1	Precipitación	0
20824	7	Sololá	701	Sololá	3	Barraneche	4	Abril	2023-04-19T00:00:00	2024-11-06T10:00:00	8	Radiación solar	817
20825	7	Sololá	701	Sololá	3	Barraneche	4	Abril	2023-04-19T00:00:00	2024-11-06T11:00:00	2	Temperatura media	20.8
20826	7	Sololá	701	Sololá	3	Barraneche	4	Abril	2023-04-19T00:00:00	2024-11-06T11:00:00	4	Temperatura máxima	21.1
20827	7	Sololá	701	Sololá	3	Barraneche	4	Abril	2023-04-19T00:00:00	2024-11-06T11:00:00	3	Temperatura mínima	18.6
20828	7	Sololá	701	Sololá	3	Barraneche	4	Abril	2023-04-19T00:00:00	2024-11-06T11:00:00	5	Humedad	24
20829	7	Sololá	701	Sololá	3	Barraneche	4	Abril	2023-04-19T00:00:00	2024-11-06T11:00:00	6	Velocidad del viento	8
20830	7	Sololá	701	Sololá	3	Barraneche	4	Abril	2023-04-19T00:00:00	2024-11-06T11:00:00	7	Dirección del viento	8.05
20831	7	Sololá	701	Sololá	3	Barraneche	4	Abril	2023-04-19T00:00:00	2024-11-06T11:00:00	1	Precipitación	0
20832	7	Sololá	701	Sololá	3	Barraneche	4	Abril	2023-04-19T00:00:00	2024-11-06T11:00:00	8	Radiación solar	972
20833	7	Sololá	701	Sololá	3	Barraneche	4	Abril	2023-04-19T00:00:00	2024-11-06T12:00:00	2	Temperatura media	20.9
20834	7	Sololá	701	Sololá	3	Barraneche	4	Abril	2023-04-19T00:00:00	2024-11-06T12:00:00	4	Temperatura máxima	22.2
20835	7	Sololá	701	Sololá	3	Barraneche	4	Abril	2023-04-19T00:00:00	2024-11-06T12:00:00	3	Temperatura mínima	20.8
20836	7	Sololá	701	Sololá	3	Barraneche	4	Abril	2023-04-19T00:00:00	2024-11-06T12:00:00	5	Humedad	40
20837	7	Sololá	701	Sololá	3	Barraneche	4	Abril	2023-04-19T00:00:00	2024-11-06T12:00:00	6	Velocidad del viento	9.7
20838	7	Sololá	701	Sololá	3	Barraneche	4	Abril	2023-04-19T00:00:00	2024-11-06T12:00:00	7	Dirección del viento	9.66
20839	7	Sololá	701	Sololá	3	Barraneche	4	Abril	2023-04-19T00:00:00	2024-11-06T12:00:00	1	Precipitación	0
20840	7	Sololá	701	Sololá	3	Barraneche	4	Abril	2023-04-19T00:00:00	2024-11-06T12:00:00	8	Radiación solar	1048
20841	7	Sololá	701	Sololá	3	Barraneche	4	Abril	2023-04-19T00:00:00	2024-11-06T13:00:00	2	Temperatura media	19.6
20842	7	Sololá	701	Sololá	3	Barraneche	4	Abril	2023-04-19T00:00:00	2024-11-06T13:00:00	4	Temperatura máxima	21.1
20843	7	Sololá	701	Sololá	3	Barraneche	4	Abril	2023-04-19T00:00:00	2024-11-06T13:00:00	3	Temperatura mínima	19.4
20844	7	Sololá	701	Sololá	3	Barraneche	4	Abril	2023-04-19T00:00:00	2024-11-06T13:00:00	5	Humedad	51
20845	7	Sololá	701	Sololá	3	Barraneche	4	Abril	2023-04-19T00:00:00	2024-11-06T13:00:00	6	Velocidad del viento	16.1
20846	7	Sololá	701	Sololá	3	Barraneche	4	Abril	2023-04-19T00:00:00	2024-11-06T13:00:00	7	Dirección del viento	16.09
20847	7	Sololá	701	Sololá	3	Barraneche	4	Abril	2023-04-19T00:00:00	2024-11-06T13:00:00	1	Precipitación	0
20848	7	Sololá	701	Sololá	3	Barraneche	4	Abril	2023-04-19T00:00:00	2024-11-06T13:00:00	8	Radiación solar	1055
20849	7	Sololá	701	Sololá	3	Barraneche	4	Abril	2023-04-19T00:00:00	2024-11-06T14:00:00	2	Temperatura media	18.7
20850	7	Sololá	701	Sololá	3	Barraneche	4	Abril	2023-04-19T00:00:00	2024-11-06T14:00:00	4	Temperatura máxima	19.9
20851	7	Sololá	701	Sololá	3	Barraneche	4	Abril	2023-04-19T00:00:00	2024-11-06T14:00:00	3	Temperatura mínima	18.3
20852	7	Sololá	701	Sololá	3	Barraneche	4	Abril	2023-04-19T00:00:00	2024-11-06T14:00:00	5	Humedad	57
20853	7	Sololá	701	Sololá	3	Barraneche	4	Abril	2023-04-19T00:00:00	2024-11-06T14:00:00	6	Velocidad del viento	14.5
20854	7	Sololá	701	Sololá	3	Barraneche	4	Abril	2023-04-19T00:00:00	2024-11-06T14:00:00	7	Dirección del viento	14.48
20855	7	Sololá	701	Sololá	3	Barraneche	4	Abril	2023-04-19T00:00:00	2024-11-06T14:00:00	1	Precipitación	0
20856	7	Sololá	701	Sololá	3	Barraneche	4	Abril	2023-04-19T00:00:00	2024-11-06T14:00:00	8	Radiación solar	1030
20857	7	Sololá	701	Sololá	3	Barraneche	4	Abril	2023-04-19T00:00:00	2024-11-06T15:00:00	2	Temperatura media	18.7
20858	7	Sololá	701	Sololá	3	Barraneche	4	Abril	2023-04-19T00:00:00	2024-11-06T15:00:00	4	Temperatura máxima	18.9
20859	7	Sololá	701	Sololá	3	Barraneche	4	Abril	2023-04-19T00:00:00	2024-11-06T15:00:00	3	Temperatura mínima	18.3
20860	7	Sololá	701	Sololá	3	Barraneche	4	Abril	2023-04-19T00:00:00	2024-11-06T15:00:00	5	Humedad	59
20861	7	Sololá	701	Sololá	3	Barraneche	4	Abril	2023-04-19T00:00:00	2024-11-06T15:00:00	6	Velocidad del viento	12.9
20862	7	Sololá	701	Sololá	3	Barraneche	4	Abril	2023-04-19T00:00:00	2024-11-06T15:00:00	7	Dirección del viento	12.87
20863	7	Sololá	701	Sololá	3	Barraneche	4	Abril	2023-04-19T00:00:00	2024-11-06T15:00:00	1	Precipitación	0
20864	7	Sololá	701	Sololá	3	Barraneche	4	Abril	2023-04-19T00:00:00	2024-11-06T15:00:00	8	Radiación solar	666
20865	7	Sololá	701	Sololá	3	Barraneche	4	Abril	2023-04-19T00:00:00	2024-11-06T16:00:00	2	Temperatura media	17.1
20866	7	Sololá	701	Sololá	3	Barraneche	4	Abril	2023-04-19T00:00:00	2024-11-06T16:00:00	4	Temperatura máxima	18.7
20867	7	Sololá	701	Sololá	3	Barraneche	4	Abril	2023-04-19T00:00:00	2024-11-06T16:00:00	3	Temperatura mínima	17
20868	7	Sololá	701	Sololá	3	Barraneche	4	Abril	2023-04-19T00:00:00	2024-11-06T16:00:00	5	Humedad	64
20869	7	Sololá	701	Sololá	3	Barraneche	4	Abril	2023-04-19T00:00:00	2024-11-06T16:00:00	6	Velocidad del viento	12.9
20870	7	Sololá	701	Sololá	3	Barraneche	4	Abril	2023-04-19T00:00:00	2024-11-06T16:00:00	7	Dirección del viento	12.87
20871	7	Sololá	701	Sololá	3	Barraneche	4	Abril	2023-04-19T00:00:00	2024-11-06T16:00:00	1	Precipitación	0
20872	7	Sololá	701	Sololá	3	Barraneche	4	Abril	2023-04-19T00:00:00	2024-11-06T16:00:00	8	Radiación solar	261
20873	7	Sololá	701	Sololá	3	Barraneche	4	Abril	2023-04-19T00:00:00	2024-11-06T17:00:00	2	Temperatura media	15.8
20874	7	Sololá	701	Sololá	3	Barraneche	4	Abril	2023-04-19T00:00:00	2024-11-06T17:00:00	4	Temperatura máxima	17.3
20875	7	Sololá	701	Sololá	3	Barraneche	4	Abril	2023-04-19T00:00:00	2024-11-06T17:00:00	3	Temperatura mínima	15.7
20876	7	Sololá	701	Sololá	3	Barraneche	4	Abril	2023-04-19T00:00:00	2024-11-06T17:00:00	5	Humedad	70
20877	7	Sololá	701	Sololá	3	Barraneche	4	Abril	2023-04-19T00:00:00	2024-11-06T17:00:00	6	Velocidad del viento	9.7
20878	7	Sololá	701	Sololá	3	Barraneche	4	Abril	2023-04-19T00:00:00	2024-11-06T17:00:00	7	Dirección del viento	9.66
20879	7	Sololá	701	Sololá	3	Barraneche	4	Abril	2023-04-19T00:00:00	2024-11-06T17:00:00	1	Precipitación	0
20880	7	Sololá	701	Sololá	3	Barraneche	4	Abril	2023-04-19T00:00:00	2024-11-06T17:00:00	8	Radiación solar	101
20881	7	Sololá	701	Sololá	3	Barraneche	4	Abril	2023-04-19T00:00:00	2024-11-06T18:00:00	2	Temperatura media	15.8
20882	7	Sololá	701	Sololá	3	Barraneche	4	Abril	2023-04-19T00:00:00	2024-11-06T18:00:00	4	Temperatura máxima	15.8
20883	7	Sololá	701	Sololá	3	Barraneche	4	Abril	2023-04-19T00:00:00	2024-11-06T18:00:00	3	Temperatura mínima	15.6
20884	7	Sololá	701	Sololá	3	Barraneche	4	Abril	2023-04-19T00:00:00	2024-11-06T18:00:00	5	Humedad	68
20885	7	Sololá	701	Sololá	3	Barraneche	4	Abril	2023-04-19T00:00:00	2024-11-06T18:00:00	6	Velocidad del viento	3.2
20886	7	Sololá	701	Sololá	3	Barraneche	4	Abril	2023-04-19T00:00:00	2024-11-06T18:00:00	7	Dirección del viento	3.22
20887	7	Sololá	701	Sololá	3	Barraneche	4	Abril	2023-04-19T00:00:00	2024-11-06T18:00:00	1	Precipitación	0
20888	7	Sololá	701	Sololá	3	Barraneche	4	Abril	2023-04-19T00:00:00	2024-11-06T18:00:00	8	Radiación solar	45
20889	7	Sololá	701	Sololá	3	Barraneche	4	Abril	2023-04-19T00:00:00	2024-11-06T19:00:00	2	Temperatura media	15.1
20890	7	Sololá	701	Sololá	3	Barraneche	4	Abril	2023-04-19T00:00:00	2024-11-06T19:00:00	4	Temperatura máxima	15.8
20891	7	Sololá	701	Sololá	3	Barraneche	4	Abril	2023-04-19T00:00:00	2024-11-06T19:00:00	3	Temperatura mínima	15
20892	7	Sololá	701	Sololá	3	Barraneche	4	Abril	2023-04-19T00:00:00	2024-11-06T19:00:00	5	Humedad	73
20893	7	Sololá	701	Sololá	3	Barraneche	4	Abril	2023-04-19T00:00:00	2024-11-06T19:00:00	6	Velocidad del viento	3.2
20894	7	Sololá	701	Sololá	3	Barraneche	4	Abril	2023-04-19T00:00:00	2024-11-06T19:00:00	7	Dirección del viento	3.22
20895	7	Sololá	701	Sololá	3	Barraneche	4	Abril	2023-04-19T00:00:00	2024-11-06T19:00:00	1	Precipitación	0
20896	7	Sololá	701	Sololá	3	Barraneche	4	Abril	2023-04-19T00:00:00	2024-11-06T19:00:00	8	Radiación solar	0
20897	7	Sololá	701	Sololá	3	Barraneche	4	Abril	2023-04-19T00:00:00	2024-11-06T20:00:00	2	Temperatura media	14.8
20898	7	Sololá	701	Sololá	3	Barraneche	4	Abril	2023-04-19T00:00:00	2024-11-06T20:00:00	4	Temperatura máxima	15.2
20899	7	Sololá	701	Sololá	3	Barraneche	4	Abril	2023-04-19T00:00:00	2024-11-06T20:00:00	3	Temperatura mínima	14.6
20900	7	Sololá	701	Sololá	3	Barraneche	4	Abril	2023-04-19T00:00:00	2024-11-06T20:00:00	5	Humedad	62
20901	7	Sololá	701	Sololá	3	Barraneche	4	Abril	2023-04-19T00:00:00	2024-11-06T20:00:00	6	Velocidad del viento	3.2
20902	7	Sololá	701	Sololá	3	Barraneche	4	Abril	2023-04-19T00:00:00	2024-11-06T20:00:00	7	Dirección del viento	3.22
20903	7	Sololá	701	Sololá	3	Barraneche	4	Abril	2023-04-19T00:00:00	2024-11-06T20:00:00	1	Precipitación	0
20904	7	Sololá	701	Sololá	3	Barraneche	4	Abril	2023-04-19T00:00:00	2024-11-06T20:00:00	8	Radiación solar	0
20905	7	Sololá	701	Sololá	3	Barraneche	4	Abril	2023-04-19T00:00:00	2024-11-06T21:00:00	2	Temperatura media	15.2
20906	7	Sololá	701	Sololá	3	Barraneche	4	Abril	2023-04-19T00:00:00	2024-11-06T21:00:00	4	Temperatura máxima	15.3
20907	7	Sololá	701	Sololá	3	Barraneche	4	Abril	2023-04-19T00:00:00	2024-11-06T21:00:00	3	Temperatura mínima	14.8
20908	7	Sololá	701	Sololá	3	Barraneche	4	Abril	2023-04-19T00:00:00	2024-11-06T21:00:00	5	Humedad	61
20909	7	Sololá	701	Sololá	3	Barraneche	4	Abril	2023-04-19T00:00:00	2024-11-06T21:00:00	6	Velocidad del viento	8
20910	7	Sololá	701	Sololá	3	Barraneche	4	Abril	2023-04-19T00:00:00	2024-11-06T21:00:00	7	Dirección del viento	8.05
20911	7	Sololá	701	Sololá	3	Barraneche	4	Abril	2023-04-19T00:00:00	2024-11-06T21:00:00	1	Precipitación	0
20912	7	Sololá	701	Sololá	3	Barraneche	4	Abril	2023-04-19T00:00:00	2024-11-06T21:00:00	8	Radiación solar	0
20913	7	Sololá	701	Sololá	3	Barraneche	4	Abril	2023-04-19T00:00:00	2024-11-06T22:00:00	2	Temperatura media	14.9
20914	7	Sololá	701	Sololá	3	Barraneche	4	Abril	2023-04-19T00:00:00	2024-11-06T22:00:00	4	Temperatura máxima	15.2
20915	7	Sololá	701	Sololá	3	Barraneche	4	Abril	2023-04-19T00:00:00	2024-11-06T22:00:00	3	Temperatura mínima	14.9
20916	7	Sololá	701	Sololá	3	Barraneche	4	Abril	2023-04-19T00:00:00	2024-11-06T22:00:00	5	Humedad	63
20917	7	Sololá	701	Sololá	3	Barraneche	4	Abril	2023-04-19T00:00:00	2024-11-06T22:00:00	6	Velocidad del viento	9.7
20918	7	Sololá	701	Sololá	3	Barraneche	4	Abril	2023-04-19T00:00:00	2024-11-06T22:00:00	7	Dirección del viento	9.66
20919	7	Sololá	701	Sololá	3	Barraneche	4	Abril	2023-04-19T00:00:00	2024-11-06T22:00:00	1	Precipitación	0
20920	7	Sololá	701	Sololá	3	Barraneche	4	Abril	2023-04-19T00:00:00	2024-11-06T22:00:00	8	Radiación solar	0
20921	7	Sololá	701	Sololá	3	Barraneche	4	Abril	2023-04-19T00:00:00	2024-11-06T23:00:00	2	Temperatura media	14.2
20922	7	Sololá	701	Sololá	3	Barraneche	4	Abril	2023-04-19T00:00:00	2024-11-06T23:00:00	4	Temperatura máxima	14.9
20923	7	Sololá	701	Sololá	3	Barraneche	4	Abril	2023-04-19T00:00:00	2024-11-06T23:00:00	3	Temperatura mínima	14.2
20924	7	Sololá	701	Sololá	3	Barraneche	4	Abril	2023-04-19T00:00:00	2024-11-06T23:00:00	5	Humedad	63
20925	7	Sololá	701	Sololá	3	Barraneche	4	Abril	2023-04-19T00:00:00	2024-11-06T23:00:00	6	Velocidad del viento	9.7
20926	7	Sololá	701	Sololá	3	Barraneche	4	Abril	2023-04-19T00:00:00	2024-11-06T23:00:00	7	Dirección del viento	9.66
20927	7	Sololá	701	Sololá	3	Barraneche	4	Abril	2023-04-19T00:00:00	2024-11-06T23:00:00	1	Precipitación	0
20928	7	Sololá	701	Sololá	3	Barraneche	4	Abril	2023-04-19T00:00:00	2024-11-06T23:00:00	8	Radiación solar	0
20929	7	Sololá	701	Sololá	3	Barraneche	4	Abril	2023-04-20T00:00:00	2024-11-06T00:00:00	2	Temperatura media	12.9
20930	7	Sololá	701	Sololá	3	Barraneche	4	Abril	2023-04-20T00:00:00	2024-11-06T00:00:00	4	Temperatura máxima	14.2
20931	7	Sololá	701	Sololá	3	Barraneche	4	Abril	2023-04-20T00:00:00	2024-11-06T00:00:00	3	Temperatura mínima	12.7
20932	7	Sololá	701	Sololá	3	Barraneche	4	Abril	2023-04-20T00:00:00	2024-11-06T00:00:00	5	Humedad	64
20933	7	Sololá	701	Sololá	3	Barraneche	4	Abril	2023-04-20T00:00:00	2024-11-06T00:00:00	6	Velocidad del viento	3.2
20934	7	Sololá	701	Sololá	3	Barraneche	4	Abril	2023-04-20T00:00:00	2024-11-06T00:00:00	7	Dirección del viento	3.22
20935	7	Sololá	701	Sololá	3	Barraneche	4	Abril	2023-04-20T00:00:00	2024-11-06T00:00:00	1	Precipitación	0
20936	7	Sololá	701	Sololá	3	Barraneche	4	Abril	2023-04-20T00:00:00	2024-11-06T00:00:00	8	Radiación solar	0
20937	7	Sololá	701	Sololá	3	Barraneche	4	Abril	2023-04-20T00:00:00	2024-11-06T01:00:00	2	Temperatura media	12.2
20938	7	Sololá	701	Sololá	3	Barraneche	4	Abril	2023-04-20T00:00:00	2024-11-06T01:00:00	4	Temperatura máxima	13.1
20939	7	Sololá	701	Sololá	3	Barraneche	4	Abril	2023-04-20T00:00:00	2024-11-06T01:00:00	3	Temperatura mínima	12.2
20940	7	Sololá	701	Sololá	3	Barraneche	4	Abril	2023-04-20T00:00:00	2024-11-06T01:00:00	5	Humedad	61
20941	7	Sololá	701	Sololá	3	Barraneche	4	Abril	2023-04-20T00:00:00	2024-11-06T01:00:00	6	Velocidad del viento	4.8
20942	7	Sololá	701	Sololá	3	Barraneche	4	Abril	2023-04-20T00:00:00	2024-11-06T01:00:00	7	Dirección del viento	4.83
20943	7	Sololá	701	Sololá	3	Barraneche	4	Abril	2023-04-20T00:00:00	2024-11-06T01:00:00	1	Precipitación	0
20944	7	Sololá	701	Sololá	3	Barraneche	4	Abril	2023-04-20T00:00:00	2024-11-06T01:00:00	8	Radiación solar	0
20945	7	Sololá	701	Sololá	3	Barraneche	4	Abril	2023-04-20T00:00:00	2024-11-06T02:00:00	2	Temperatura media	10.4
20946	7	Sololá	701	Sololá	3	Barraneche	4	Abril	2023-04-20T00:00:00	2024-11-06T02:00:00	4	Temperatura máxima	12.2
20947	7	Sololá	701	Sololá	3	Barraneche	4	Abril	2023-04-20T00:00:00	2024-11-06T02:00:00	3	Temperatura mínima	10.4
20948	7	Sololá	701	Sololá	3	Barraneche	4	Abril	2023-04-20T00:00:00	2024-11-06T02:00:00	5	Humedad	57
20949	7	Sololá	701	Sololá	3	Barraneche	4	Abril	2023-04-20T00:00:00	2024-11-06T02:00:00	6	Velocidad del viento	6.4
20950	7	Sololá	701	Sololá	3	Barraneche	4	Abril	2023-04-20T00:00:00	2024-11-06T02:00:00	7	Dirección del viento	6.44
20951	7	Sololá	701	Sololá	3	Barraneche	4	Abril	2023-04-20T00:00:00	2024-11-06T02:00:00	1	Precipitación	0
20952	7	Sololá	701	Sololá	3	Barraneche	4	Abril	2023-04-20T00:00:00	2024-11-06T02:00:00	8	Radiación solar	0
20953	7	Sololá	701	Sololá	3	Barraneche	4	Abril	2023-04-20T00:00:00	2024-11-06T03:00:00	2	Temperatura media	9.2
20954	7	Sololá	701	Sololá	3	Barraneche	4	Abril	2023-04-20T00:00:00	2024-11-06T03:00:00	4	Temperatura máxima	10.7
20955	7	Sololá	701	Sololá	3	Barraneche	4	Abril	2023-04-20T00:00:00	2024-11-06T03:00:00	3	Temperatura mínima	9.2
20956	7	Sololá	701	Sololá	3	Barraneche	4	Abril	2023-04-20T00:00:00	2024-11-06T03:00:00	5	Humedad	52
20957	7	Sololá	701	Sololá	3	Barraneche	4	Abril	2023-04-20T00:00:00	2024-11-06T03:00:00	6	Velocidad del viento	6.4
20958	7	Sololá	701	Sololá	3	Barraneche	4	Abril	2023-04-20T00:00:00	2024-11-06T03:00:00	7	Dirección del viento	6.44
20959	7	Sololá	701	Sololá	3	Barraneche	4	Abril	2023-04-20T00:00:00	2024-11-06T03:00:00	1	Precipitación	0
20960	7	Sololá	701	Sololá	3	Barraneche	4	Abril	2023-04-20T00:00:00	2024-11-06T03:00:00	8	Radiación solar	0
20961	7	Sololá	701	Sololá	3	Barraneche	4	Abril	2023-04-20T00:00:00	2024-11-06T04:00:00	2	Temperatura media	9.2
20962	7	Sololá	701	Sololá	3	Barraneche	4	Abril	2023-04-20T00:00:00	2024-11-06T04:00:00	4	Temperatura máxima	9.7
20963	7	Sololá	701	Sololá	3	Barraneche	4	Abril	2023-04-20T00:00:00	2024-11-06T04:00:00	3	Temperatura mínima	8.7
20964	7	Sololá	701	Sololá	3	Barraneche	4	Abril	2023-04-20T00:00:00	2024-11-06T04:00:00	5	Humedad	45
20965	7	Sololá	701	Sololá	3	Barraneche	4	Abril	2023-04-20T00:00:00	2024-11-06T04:00:00	6	Velocidad del viento	8
20966	7	Sololá	701	Sololá	3	Barraneche	4	Abril	2023-04-20T00:00:00	2024-11-06T04:00:00	7	Dirección del viento	8.05
20967	7	Sololá	701	Sololá	3	Barraneche	4	Abril	2023-04-20T00:00:00	2024-11-06T04:00:00	1	Precipitación	0
20968	7	Sololá	701	Sololá	3	Barraneche	4	Abril	2023-04-20T00:00:00	2024-11-06T04:00:00	8	Radiación solar	0
20969	7	Sololá	701	Sololá	3	Barraneche	4	Abril	2023-04-20T00:00:00	2024-11-06T05:00:00	2	Temperatura media	8.8
20970	7	Sololá	701	Sololá	3	Barraneche	4	Abril	2023-04-20T00:00:00	2024-11-06T05:00:00	4	Temperatura máxima	9.9
20971	7	Sololá	701	Sololá	3	Barraneche	4	Abril	2023-04-20T00:00:00	2024-11-06T05:00:00	3	Temperatura mínima	8.7
20972	7	Sololá	701	Sololá	3	Barraneche	4	Abril	2023-04-20T00:00:00	2024-11-06T05:00:00	5	Humedad	41
20973	7	Sololá	701	Sololá	3	Barraneche	4	Abril	2023-04-20T00:00:00	2024-11-06T05:00:00	6	Velocidad del viento	9.7
20974	7	Sololá	701	Sololá	3	Barraneche	4	Abril	2023-04-20T00:00:00	2024-11-06T05:00:00	7	Dirección del viento	9.66
20975	7	Sololá	701	Sololá	3	Barraneche	4	Abril	2023-04-20T00:00:00	2024-11-06T05:00:00	1	Precipitación	0
20976	7	Sololá	701	Sololá	3	Barraneche	4	Abril	2023-04-20T00:00:00	2024-11-06T05:00:00	8	Radiación solar	0
20977	7	Sololá	701	Sololá	3	Barraneche	4	Abril	2023-04-20T00:00:00	2024-11-06T06:00:00	2	Temperatura media	8.7
20978	7	Sololá	701	Sololá	3	Barraneche	4	Abril	2023-04-20T00:00:00	2024-11-06T06:00:00	4	Temperatura máxima	8.9
20979	7	Sololá	701	Sololá	3	Barraneche	4	Abril	2023-04-20T00:00:00	2024-11-06T06:00:00	3	Temperatura mínima	8.6
20980	7	Sololá	701	Sololá	3	Barraneche	4	Abril	2023-04-20T00:00:00	2024-11-06T06:00:00	5	Humedad	47
20981	7	Sololá	701	Sololá	3	Barraneche	4	Abril	2023-04-20T00:00:00	2024-11-06T06:00:00	6	Velocidad del viento	8
20982	7	Sololá	701	Sololá	3	Barraneche	4	Abril	2023-04-20T00:00:00	2024-11-06T06:00:00	7	Dirección del viento	8.05
20983	7	Sololá	701	Sololá	3	Barraneche	4	Abril	2023-04-20T00:00:00	2024-11-06T06:00:00	1	Precipitación	0
20984	7	Sololá	701	Sololá	3	Barraneche	4	Abril	2023-04-20T00:00:00	2024-11-06T06:00:00	8	Radiación solar	1
20985	7	Sololá	701	Sololá	3	Barraneche	4	Abril	2023-04-20T00:00:00	2024-11-06T07:00:00	2	Temperatura media	10.6
20986	7	Sololá	701	Sololá	3	Barraneche	4	Abril	2023-04-20T00:00:00	2024-11-06T07:00:00	4	Temperatura máxima	10.6
20987	7	Sololá	701	Sololá	3	Barraneche	4	Abril	2023-04-20T00:00:00	2024-11-06T07:00:00	3	Temperatura mínima	8.6
20988	7	Sololá	701	Sololá	3	Barraneche	4	Abril	2023-04-20T00:00:00	2024-11-06T07:00:00	5	Humedad	50
20989	7	Sololá	701	Sololá	3	Barraneche	4	Abril	2023-04-20T00:00:00	2024-11-06T07:00:00	6	Velocidad del viento	6.4
20990	7	Sololá	701	Sololá	3	Barraneche	4	Abril	2023-04-20T00:00:00	2024-11-06T07:00:00	7	Dirección del viento	6.44
20991	7	Sololá	701	Sololá	3	Barraneche	4	Abril	2023-04-20T00:00:00	2024-11-06T07:00:00	1	Precipitación	0
20992	7	Sololá	701	Sololá	3	Barraneche	4	Abril	2023-04-20T00:00:00	2024-11-06T07:00:00	8	Radiación solar	65
20993	7	Sololá	701	Sololá	3	Barraneche	4	Abril	2023-04-20T00:00:00	2024-11-06T08:00:00	2	Temperatura media	14.8
20994	7	Sololá	701	Sololá	3	Barraneche	4	Abril	2023-04-20T00:00:00	2024-11-06T08:00:00	4	Temperatura máxima	14.8
20995	7	Sololá	701	Sololá	3	Barraneche	4	Abril	2023-04-20T00:00:00	2024-11-06T08:00:00	3	Temperatura mínima	10.6
20996	7	Sololá	701	Sololá	3	Barraneche	4	Abril	2023-04-20T00:00:00	2024-11-06T08:00:00	5	Humedad	40
20997	7	Sololá	701	Sololá	3	Barraneche	4	Abril	2023-04-20T00:00:00	2024-11-06T08:00:00	6	Velocidad del viento	3.2
20998	7	Sololá	701	Sololá	3	Barraneche	4	Abril	2023-04-20T00:00:00	2024-11-06T08:00:00	7	Dirección del viento	3.22
20999	7	Sololá	701	Sololá	3	Barraneche	4	Abril	2023-04-20T00:00:00	2024-11-06T08:00:00	1	Precipitación	0
21000	7	Sololá	701	Sololá	3	Barraneche	4	Abril	2023-04-20T00:00:00	2024-11-06T08:00:00	8	Radiación solar	260
21001	7	Sololá	701	Sololá	3	Barraneche	4	Abril	2023-04-20T00:00:00	2024-11-06T09:00:00	2	Temperatura media	16.3
21002	7	Sololá	701	Sololá	3	Barraneche	4	Abril	2023-04-20T00:00:00	2024-11-06T09:00:00	4	Temperatura máxima	16.3
21003	7	Sololá	701	Sololá	3	Barraneche	4	Abril	2023-04-20T00:00:00	2024-11-06T09:00:00	3	Temperatura mínima	14.8
21004	7	Sololá	701	Sololá	3	Barraneche	4	Abril	2023-04-20T00:00:00	2024-11-06T09:00:00	5	Humedad	35
21005	7	Sololá	701	Sololá	3	Barraneche	4	Abril	2023-04-20T00:00:00	2024-11-06T09:00:00	6	Velocidad del viento	4.8
21006	7	Sololá	701	Sololá	3	Barraneche	4	Abril	2023-04-20T00:00:00	2024-11-06T09:00:00	7	Dirección del viento	4.83
21007	7	Sololá	701	Sololá	3	Barraneche	4	Abril	2023-04-20T00:00:00	2024-11-06T09:00:00	1	Precipitación	0
21008	7	Sololá	701	Sololá	3	Barraneche	4	Abril	2023-04-20T00:00:00	2024-11-06T09:00:00	8	Radiación solar	480
21009	7	Sololá	701	Sololá	3	Barraneche	4	Abril	2023-04-20T00:00:00	2024-11-06T10:00:00	2	Temperatura media	17.3
21010	7	Sololá	701	Sololá	3	Barraneche	4	Abril	2023-04-20T00:00:00	2024-11-06T10:00:00	4	Temperatura máxima	17.3
21011	7	Sololá	701	Sololá	3	Barraneche	4	Abril	2023-04-20T00:00:00	2024-11-06T10:00:00	3	Temperatura mínima	16.3
21012	7	Sololá	701	Sololá	3	Barraneche	4	Abril	2023-04-20T00:00:00	2024-11-06T10:00:00	5	Humedad	38
21013	7	Sololá	701	Sololá	3	Barraneche	4	Abril	2023-04-20T00:00:00	2024-11-06T10:00:00	6	Velocidad del viento	6.4
21014	7	Sololá	701	Sololá	3	Barraneche	4	Abril	2023-04-20T00:00:00	2024-11-06T10:00:00	7	Dirección del viento	6.44
21015	7	Sololá	701	Sololá	3	Barraneche	4	Abril	2023-04-20T00:00:00	2024-11-06T10:00:00	1	Precipitación	0
21016	7	Sololá	701	Sololá	3	Barraneche	4	Abril	2023-04-20T00:00:00	2024-11-06T10:00:00	8	Radiación solar	690
21017	7	Sololá	701	Sololá	3	Barraneche	4	Abril	2023-04-20T00:00:00	2024-11-06T11:00:00	2	Temperatura media	17.4
21018	7	Sololá	701	Sololá	3	Barraneche	4	Abril	2023-04-20T00:00:00	2024-11-06T11:00:00	4	Temperatura máxima	18.1
21019	7	Sololá	701	Sololá	3	Barraneche	4	Abril	2023-04-20T00:00:00	2024-11-06T11:00:00	3	Temperatura mínima	17.3
21020	7	Sololá	701	Sololá	3	Barraneche	4	Abril	2023-04-20T00:00:00	2024-11-06T11:00:00	5	Humedad	47
21021	7	Sololá	701	Sololá	3	Barraneche	4	Abril	2023-04-20T00:00:00	2024-11-06T11:00:00	6	Velocidad del viento	9.7
21022	7	Sololá	701	Sololá	3	Barraneche	4	Abril	2023-04-20T00:00:00	2024-11-06T11:00:00	7	Dirección del viento	9.66
21023	7	Sololá	701	Sololá	3	Barraneche	4	Abril	2023-04-20T00:00:00	2024-11-06T11:00:00	1	Precipitación	0
21024	7	Sololá	701	Sololá	3	Barraneche	4	Abril	2023-04-20T00:00:00	2024-11-06T11:00:00	8	Radiación solar	682
21025	7	Sololá	701	Sololá	3	Barraneche	4	Abril	2023-04-20T00:00:00	2024-11-06T12:00:00	2	Temperatura media	16.9
21026	7	Sololá	701	Sololá	3	Barraneche	4	Abril	2023-04-20T00:00:00	2024-11-06T12:00:00	4	Temperatura máxima	17.9
21027	7	Sololá	701	Sololá	3	Barraneche	4	Abril	2023-04-20T00:00:00	2024-11-06T12:00:00	3	Temperatura mínima	16.8
21028	7	Sololá	701	Sololá	3	Barraneche	4	Abril	2023-04-20T00:00:00	2024-11-06T12:00:00	5	Humedad	55
21029	7	Sololá	701	Sololá	3	Barraneche	4	Abril	2023-04-20T00:00:00	2024-11-06T12:00:00	6	Velocidad del viento	11.3
21030	7	Sololá	701	Sololá	3	Barraneche	4	Abril	2023-04-20T00:00:00	2024-11-06T12:00:00	7	Dirección del viento	11.27
21031	7	Sololá	701	Sololá	3	Barraneche	4	Abril	2023-04-20T00:00:00	2024-11-06T12:00:00	1	Precipitación	0
21032	7	Sololá	701	Sololá	3	Barraneche	4	Abril	2023-04-20T00:00:00	2024-11-06T12:00:00	8	Radiación solar	659
21033	7	Sololá	701	Sololá	3	Barraneche	4	Abril	2023-04-20T00:00:00	2024-11-06T13:00:00	2	Temperatura media	18.4
21034	7	Sololá	701	Sololá	3	Barraneche	4	Abril	2023-04-20T00:00:00	2024-11-06T13:00:00	4	Temperatura máxima	18.4
21035	7	Sololá	701	Sololá	3	Barraneche	4	Abril	2023-04-20T00:00:00	2024-11-06T13:00:00	3	Temperatura mínima	16.8
21036	7	Sololá	701	Sololá	3	Barraneche	4	Abril	2023-04-20T00:00:00	2024-11-06T13:00:00	5	Humedad	51
21037	7	Sololá	701	Sololá	3	Barraneche	4	Abril	2023-04-20T00:00:00	2024-11-06T13:00:00	6	Velocidad del viento	8
21038	7	Sololá	701	Sololá	3	Barraneche	4	Abril	2023-04-20T00:00:00	2024-11-06T13:00:00	7	Dirección del viento	8.05
21039	7	Sololá	701	Sololá	3	Barraneche	4	Abril	2023-04-20T00:00:00	2024-11-06T13:00:00	1	Precipitación	0
21040	7	Sololá	701	Sololá	3	Barraneche	4	Abril	2023-04-20T00:00:00	2024-11-06T13:00:00	8	Radiación solar	712
21041	7	Sololá	701	Sololá	3	Barraneche	4	Abril	2023-04-20T00:00:00	2024-11-06T14:00:00	2	Temperatura media	19.1
21042	7	Sololá	701	Sololá	3	Barraneche	4	Abril	2023-04-20T00:00:00	2024-11-06T14:00:00	4	Temperatura máxima	19.7
21043	7	Sololá	701	Sololá	3	Barraneche	4	Abril	2023-04-20T00:00:00	2024-11-06T14:00:00	3	Temperatura mínima	18.4
21044	7	Sololá	701	Sololá	3	Barraneche	4	Abril	2023-04-20T00:00:00	2024-11-06T14:00:00	5	Humedad	52
21045	7	Sololá	701	Sololá	3	Barraneche	4	Abril	2023-04-20T00:00:00	2024-11-06T14:00:00	6	Velocidad del viento	11.3
21046	7	Sololá	701	Sololá	3	Barraneche	4	Abril	2023-04-20T00:00:00	2024-11-06T14:00:00	7	Dirección del viento	11.27
21047	7	Sololá	701	Sololá	3	Barraneche	4	Abril	2023-04-20T00:00:00	2024-11-06T14:00:00	1	Precipitación	0
21048	7	Sololá	701	Sololá	3	Barraneche	4	Abril	2023-04-20T00:00:00	2024-11-06T14:00:00	8	Radiación solar	789
21049	7	Sololá	701	Sololá	3	Barraneche	4	Abril	2023-04-20T00:00:00	2024-11-06T15:00:00	2	Temperatura media	18.1
21050	7	Sololá	701	Sololá	3	Barraneche	4	Abril	2023-04-20T00:00:00	2024-11-06T15:00:00	4	Temperatura máxima	19.1
21051	7	Sololá	701	Sololá	3	Barraneche	4	Abril	2023-04-20T00:00:00	2024-11-06T15:00:00	3	Temperatura mínima	18.1
21052	7	Sololá	701	Sololá	3	Barraneche	4	Abril	2023-04-20T00:00:00	2024-11-06T15:00:00	5	Humedad	60
21053	7	Sololá	701	Sololá	3	Barraneche	4	Abril	2023-04-20T00:00:00	2024-11-06T15:00:00	6	Velocidad del viento	16.1
21054	7	Sololá	701	Sololá	3	Barraneche	4	Abril	2023-04-20T00:00:00	2024-11-06T15:00:00	7	Dirección del viento	16.09
21055	7	Sololá	701	Sololá	3	Barraneche	4	Abril	2023-04-20T00:00:00	2024-11-06T15:00:00	1	Precipitación	0
21056	7	Sololá	701	Sololá	3	Barraneche	4	Abril	2023-04-20T00:00:00	2024-11-06T15:00:00	8	Radiación solar	623
21057	7	Sololá	701	Sololá	3	Barraneche	4	Abril	2023-04-20T00:00:00	2024-11-06T16:00:00	2	Temperatura media	17.1
21058	7	Sololá	701	Sololá	3	Barraneche	4	Abril	2023-04-20T00:00:00	2024-11-06T16:00:00	4	Temperatura máxima	18.3
21059	7	Sololá	701	Sololá	3	Barraneche	4	Abril	2023-04-20T00:00:00	2024-11-06T16:00:00	3	Temperatura mínima	17.1
21060	7	Sololá	701	Sololá	3	Barraneche	4	Abril	2023-04-20T00:00:00	2024-11-06T16:00:00	5	Humedad	65
21061	7	Sololá	701	Sololá	3	Barraneche	4	Abril	2023-04-20T00:00:00	2024-11-06T16:00:00	6	Velocidad del viento	14.5
21062	7	Sololá	701	Sololá	3	Barraneche	4	Abril	2023-04-20T00:00:00	2024-11-06T16:00:00	7	Dirección del viento	14.48
21063	7	Sololá	701	Sololá	3	Barraneche	4	Abril	2023-04-20T00:00:00	2024-11-06T16:00:00	1	Precipitación	0
21064	7	Sololá	701	Sololá	3	Barraneche	4	Abril	2023-04-20T00:00:00	2024-11-06T16:00:00	8	Radiación solar	488
21065	7	Sololá	701	Sololá	3	Barraneche	4	Abril	2023-04-20T00:00:00	2024-11-06T17:00:00	2	Temperatura media	16.1
21066	7	Sololá	701	Sololá	3	Barraneche	4	Abril	2023-04-20T00:00:00	2024-11-06T17:00:00	4	Temperatura máxima	17.1
21067	7	Sololá	701	Sololá	3	Barraneche	4	Abril	2023-04-20T00:00:00	2024-11-06T17:00:00	3	Temperatura mínima	16.1
21068	7	Sololá	701	Sololá	3	Barraneche	4	Abril	2023-04-20T00:00:00	2024-11-06T17:00:00	5	Humedad	69
21069	7	Sololá	701	Sololá	3	Barraneche	4	Abril	2023-04-20T00:00:00	2024-11-06T17:00:00	6	Velocidad del viento	9.7
21070	7	Sololá	701	Sololá	3	Barraneche	4	Abril	2023-04-20T00:00:00	2024-11-06T17:00:00	7	Dirección del viento	9.66
21071	7	Sololá	701	Sololá	3	Barraneche	4	Abril	2023-04-20T00:00:00	2024-11-06T17:00:00	1	Precipitación	0
21072	7	Sololá	701	Sololá	3	Barraneche	4	Abril	2023-04-20T00:00:00	2024-11-06T17:00:00	8	Radiación solar	140
21073	7	Sololá	701	Sololá	3	Barraneche	4	Abril	2023-04-20T00:00:00	2024-11-06T18:00:00	2	Temperatura media	15.4
21074	7	Sololá	701	Sololá	3	Barraneche	4	Abril	2023-04-20T00:00:00	2024-11-06T18:00:00	4	Temperatura máxima	16.2
21075	7	Sololá	701	Sololá	3	Barraneche	4	Abril	2023-04-20T00:00:00	2024-11-06T18:00:00	3	Temperatura mínima	15.4
21076	7	Sololá	701	Sololá	3	Barraneche	4	Abril	2023-04-20T00:00:00	2024-11-06T18:00:00	5	Humedad	70
21077	7	Sololá	701	Sololá	3	Barraneche	4	Abril	2023-04-20T00:00:00	2024-11-06T18:00:00	6	Velocidad del viento	4.8
21078	7	Sololá	701	Sololá	3	Barraneche	4	Abril	2023-04-20T00:00:00	2024-11-06T18:00:00	7	Dirección del viento	4.83
21079	7	Sololá	701	Sololá	3	Barraneche	4	Abril	2023-04-20T00:00:00	2024-11-06T18:00:00	1	Precipitación	0
21080	7	Sololá	701	Sololá	3	Barraneche	4	Abril	2023-04-20T00:00:00	2024-11-06T18:00:00	8	Radiación solar	53
21081	7	Sololá	701	Sololá	3	Barraneche	4	Abril	2023-04-20T00:00:00	2024-11-06T19:00:00	2	Temperatura media	14.7
21082	7	Sololá	701	Sololá	3	Barraneche	4	Abril	2023-04-20T00:00:00	2024-11-06T19:00:00	4	Temperatura máxima	15.5
21083	7	Sololá	701	Sololá	3	Barraneche	4	Abril	2023-04-20T00:00:00	2024-11-06T19:00:00	3	Temperatura mínima	14.7
21084	7	Sololá	701	Sololá	3	Barraneche	4	Abril	2023-04-20T00:00:00	2024-11-06T19:00:00	5	Humedad	74
21085	7	Sololá	701	Sololá	3	Barraneche	4	Abril	2023-04-20T00:00:00	2024-11-06T19:00:00	6	Velocidad del viento	4.8
21086	7	Sololá	701	Sololá	3	Barraneche	4	Abril	2023-04-20T00:00:00	2024-11-06T19:00:00	7	Dirección del viento	4.83
21087	7	Sololá	701	Sololá	3	Barraneche	4	Abril	2023-04-20T00:00:00	2024-11-06T19:00:00	1	Precipitación	0
21088	7	Sololá	701	Sololá	3	Barraneche	4	Abril	2023-04-20T00:00:00	2024-11-06T19:00:00	8	Radiación solar	0
21089	7	Sololá	701	Sololá	3	Barraneche	4	Abril	2023-04-20T00:00:00	2024-11-06T20:00:00	2	Temperatura media	14.6
21090	7	Sololá	701	Sololá	3	Barraneche	4	Abril	2023-04-20T00:00:00	2024-11-06T20:00:00	4	Temperatura máxima	14.7
21091	7	Sololá	701	Sololá	3	Barraneche	4	Abril	2023-04-20T00:00:00	2024-11-06T20:00:00	3	Temperatura mínima	14.5
21092	7	Sololá	701	Sololá	3	Barraneche	4	Abril	2023-04-20T00:00:00	2024-11-06T20:00:00	5	Humedad	72
21093	7	Sololá	701	Sololá	3	Barraneche	4	Abril	2023-04-20T00:00:00	2024-11-06T20:00:00	6	Velocidad del viento	1.6
21094	7	Sololá	701	Sololá	3	Barraneche	4	Abril	2023-04-20T00:00:00	2024-11-06T20:00:00	7	Dirección del viento	1.61
21095	7	Sololá	701	Sololá	3	Barraneche	4	Abril	2023-04-20T00:00:00	2024-11-06T20:00:00	1	Precipitación	0
21096	7	Sololá	701	Sololá	3	Barraneche	4	Abril	2023-04-20T00:00:00	2024-11-06T20:00:00	8	Radiación solar	0
21097	7	Sololá	701	Sololá	3	Barraneche	4	Abril	2023-04-20T00:00:00	2024-11-06T21:00:00	2	Temperatura media	14.3
21098	7	Sololá	701	Sololá	3	Barraneche	4	Abril	2023-04-20T00:00:00	2024-11-06T21:00:00	4	Temperatura máxima	14.6
21099	7	Sololá	701	Sololá	3	Barraneche	4	Abril	2023-04-20T00:00:00	2024-11-06T21:00:00	3	Temperatura mínima	13.6
21100	7	Sololá	701	Sololá	3	Barraneche	4	Abril	2023-04-20T00:00:00	2024-11-06T21:00:00	5	Humedad	62
21101	7	Sololá	701	Sololá	3	Barraneche	4	Abril	2023-04-20T00:00:00	2024-11-06T21:00:00	6	Velocidad del viento	6.4
21102	7	Sololá	701	Sololá	3	Barraneche	4	Abril	2023-04-20T00:00:00	2024-11-06T21:00:00	7	Dirección del viento	6.44
21103	7	Sololá	701	Sololá	3	Barraneche	4	Abril	2023-04-20T00:00:00	2024-11-06T21:00:00	1	Precipitación	0
21104	7	Sololá	701	Sololá	3	Barraneche	4	Abril	2023-04-20T00:00:00	2024-11-06T21:00:00	8	Radiación solar	0
21105	7	Sololá	701	Sololá	3	Barraneche	4	Abril	2023-04-20T00:00:00	2024-11-06T22:00:00	2	Temperatura media	13.8
21106	7	Sololá	701	Sololá	3	Barraneche	4	Abril	2023-04-20T00:00:00	2024-11-06T22:00:00	4	Temperatura máxima	14.7
21107	7	Sololá	701	Sololá	3	Barraneche	4	Abril	2023-04-20T00:00:00	2024-11-06T22:00:00	3	Temperatura mínima	13.8
21108	7	Sololá	701	Sololá	3	Barraneche	4	Abril	2023-04-20T00:00:00	2024-11-06T22:00:00	5	Humedad	66
21109	7	Sololá	701	Sololá	3	Barraneche	4	Abril	2023-04-20T00:00:00	2024-11-06T22:00:00	6	Velocidad del viento	4.8
21110	7	Sololá	701	Sololá	3	Barraneche	4	Abril	2023-04-20T00:00:00	2024-11-06T22:00:00	7	Dirección del viento	4.83
21111	7	Sololá	701	Sololá	3	Barraneche	4	Abril	2023-04-20T00:00:00	2024-11-06T22:00:00	1	Precipitación	0
21112	7	Sololá	701	Sololá	3	Barraneche	4	Abril	2023-04-20T00:00:00	2024-11-06T22:00:00	8	Radiación solar	0
21113	7	Sololá	701	Sololá	3	Barraneche	4	Abril	2023-04-20T00:00:00	2024-11-06T23:00:00	2	Temperatura media	12.2
21114	7	Sololá	701	Sololá	3	Barraneche	4	Abril	2023-04-20T00:00:00	2024-11-06T23:00:00	4	Temperatura máxima	13.8
21115	7	Sololá	701	Sololá	3	Barraneche	4	Abril	2023-04-20T00:00:00	2024-11-06T23:00:00	3	Temperatura mínima	12.1
21116	7	Sololá	701	Sololá	3	Barraneche	4	Abril	2023-04-20T00:00:00	2024-11-06T23:00:00	5	Humedad	70
21117	7	Sololá	701	Sololá	3	Barraneche	4	Abril	2023-04-20T00:00:00	2024-11-06T23:00:00	6	Velocidad del viento	3.2
21118	7	Sololá	701	Sololá	3	Barraneche	4	Abril	2023-04-20T00:00:00	2024-11-06T23:00:00	7	Dirección del viento	3.22
21119	7	Sololá	701	Sololá	3	Barraneche	4	Abril	2023-04-20T00:00:00	2024-11-06T23:00:00	1	Precipitación	0
21120	7	Sololá	701	Sololá	3	Barraneche	4	Abril	2023-04-20T00:00:00	2024-11-06T23:00:00	8	Radiación solar	0
21121	7	Sololá	701	Sololá	3	Barraneche	4	Abril	2023-04-21T00:00:00	2024-11-06T00:00:00	2	Temperatura media	11.8
21122	7	Sololá	701	Sololá	3	Barraneche	4	Abril	2023-04-21T00:00:00	2024-11-06T00:00:00	4	Temperatura máxima	12.5
21123	7	Sololá	701	Sololá	3	Barraneche	4	Abril	2023-04-21T00:00:00	2024-11-06T00:00:00	3	Temperatura mínima	11.8
21124	7	Sololá	701	Sololá	3	Barraneche	4	Abril	2023-04-21T00:00:00	2024-11-06T00:00:00	5	Humedad	68
21125	7	Sololá	701	Sololá	3	Barraneche	4	Abril	2023-04-21T00:00:00	2024-11-06T00:00:00	6	Velocidad del viento	6.4
21126	7	Sololá	701	Sololá	3	Barraneche	4	Abril	2023-04-21T00:00:00	2024-11-06T00:00:00	7	Dirección del viento	6.44
21127	7	Sololá	701	Sololá	3	Barraneche	4	Abril	2023-04-21T00:00:00	2024-11-06T00:00:00	1	Precipitación	0
21128	7	Sololá	701	Sololá	3	Barraneche	4	Abril	2023-04-21T00:00:00	2024-11-06T00:00:00	8	Radiación solar	0
21129	7	Sololá	701	Sololá	3	Barraneche	4	Abril	2023-04-21T00:00:00	2024-11-06T01:00:00	2	Temperatura media	11.2
21130	7	Sololá	701	Sololá	3	Barraneche	4	Abril	2023-04-21T00:00:00	2024-11-06T01:00:00	4	Temperatura máxima	12.4
21131	7	Sololá	701	Sololá	3	Barraneche	4	Abril	2023-04-21T00:00:00	2024-11-06T01:00:00	3	Temperatura mínima	11.2
21132	7	Sololá	701	Sololá	3	Barraneche	4	Abril	2023-04-21T00:00:00	2024-11-06T01:00:00	5	Humedad	64
21133	7	Sololá	701	Sololá	3	Barraneche	4	Abril	2023-04-21T00:00:00	2024-11-06T01:00:00	6	Velocidad del viento	8
21134	7	Sololá	701	Sololá	3	Barraneche	4	Abril	2023-04-21T00:00:00	2024-11-06T01:00:00	7	Dirección del viento	8.05
21135	7	Sololá	701	Sololá	3	Barraneche	4	Abril	2023-04-21T00:00:00	2024-11-06T01:00:00	1	Precipitación	0
21136	7	Sololá	701	Sololá	3	Barraneche	4	Abril	2023-04-21T00:00:00	2024-11-06T01:00:00	8	Radiación solar	0
21137	7	Sololá	701	Sololá	3	Barraneche	4	Abril	2023-04-21T00:00:00	2024-11-06T02:00:00	2	Temperatura media	10.7
21138	7	Sololá	701	Sololá	3	Barraneche	4	Abril	2023-04-21T00:00:00	2024-11-06T02:00:00	4	Temperatura máxima	11.4
21139	7	Sololá	701	Sololá	3	Barraneche	4	Abril	2023-04-21T00:00:00	2024-11-06T02:00:00	3	Temperatura mínima	10.6
21140	7	Sololá	701	Sololá	3	Barraneche	4	Abril	2023-04-21T00:00:00	2024-11-06T02:00:00	5	Humedad	55
21141	7	Sololá	701	Sololá	3	Barraneche	4	Abril	2023-04-21T00:00:00	2024-11-06T02:00:00	6	Velocidad del viento	8
21142	7	Sololá	701	Sololá	3	Barraneche	4	Abril	2023-04-21T00:00:00	2024-11-06T02:00:00	7	Dirección del viento	8.05
21143	7	Sololá	701	Sololá	3	Barraneche	4	Abril	2023-04-21T00:00:00	2024-11-06T02:00:00	1	Precipitación	0
21144	7	Sololá	701	Sololá	3	Barraneche	4	Abril	2023-04-21T00:00:00	2024-11-06T02:00:00	8	Radiación solar	0
21145	7	Sololá	701	Sololá	3	Barraneche	4	Abril	2023-04-21T00:00:00	2024-11-06T03:00:00	2	Temperatura media	11.5
21146	7	Sololá	701	Sololá	3	Barraneche	4	Abril	2023-04-21T00:00:00	2024-11-06T03:00:00	4	Temperatura máxima	11.5
21147	7	Sololá	701	Sololá	3	Barraneche	4	Abril	2023-04-21T00:00:00	2024-11-06T03:00:00	3	Temperatura mínima	10.6
21148	7	Sololá	701	Sololá	3	Barraneche	4	Abril	2023-04-21T00:00:00	2024-11-06T03:00:00	5	Humedad	49
21149	7	Sololá	701	Sololá	3	Barraneche	4	Abril	2023-04-21T00:00:00	2024-11-06T03:00:00	6	Velocidad del viento	11.3
21150	7	Sololá	701	Sololá	3	Barraneche	4	Abril	2023-04-21T00:00:00	2024-11-06T03:00:00	7	Dirección del viento	11.27
21151	7	Sololá	701	Sololá	3	Barraneche	4	Abril	2023-04-21T00:00:00	2024-11-06T03:00:00	1	Precipitación	0
21152	7	Sololá	701	Sololá	3	Barraneche	4	Abril	2023-04-21T00:00:00	2024-11-06T03:00:00	8	Radiación solar	0
21153	7	Sololá	701	Sololá	3	Barraneche	4	Abril	2023-04-21T00:00:00	2024-11-06T04:00:00	2	Temperatura media	10.7
21154	7	Sololá	701	Sololá	3	Barraneche	4	Abril	2023-04-21T00:00:00	2024-11-06T04:00:00	4	Temperatura máxima	11.9
21155	7	Sololá	701	Sololá	3	Barraneche	4	Abril	2023-04-21T00:00:00	2024-11-06T04:00:00	3	Temperatura mínima	10.7
21156	7	Sololá	701	Sololá	3	Barraneche	4	Abril	2023-04-21T00:00:00	2024-11-06T04:00:00	5	Humedad	44
21157	7	Sololá	701	Sololá	3	Barraneche	4	Abril	2023-04-21T00:00:00	2024-11-06T04:00:00	6	Velocidad del viento	11.3
21158	7	Sololá	701	Sololá	3	Barraneche	4	Abril	2023-04-21T00:00:00	2024-11-06T04:00:00	7	Dirección del viento	11.27
21159	7	Sololá	701	Sololá	3	Barraneche	4	Abril	2023-04-21T00:00:00	2024-11-06T04:00:00	1	Precipitación	0
21160	7	Sololá	701	Sololá	3	Barraneche	4	Abril	2023-04-21T00:00:00	2024-11-06T04:00:00	8	Radiación solar	0
21161	7	Sololá	701	Sololá	3	Barraneche	4	Abril	2023-04-21T00:00:00	2024-11-06T05:00:00	2	Temperatura media	10.9
21162	7	Sololá	701	Sololá	3	Barraneche	4	Abril	2023-04-21T00:00:00	2024-11-06T05:00:00	4	Temperatura máxima	10.9
21163	7	Sololá	701	Sololá	3	Barraneche	4	Abril	2023-04-21T00:00:00	2024-11-06T05:00:00	3	Temperatura mínima	9.7
21164	7	Sololá	701	Sololá	3	Barraneche	4	Abril	2023-04-21T00:00:00	2024-11-06T05:00:00	5	Humedad	45
21165	7	Sololá	701	Sololá	3	Barraneche	4	Abril	2023-04-21T00:00:00	2024-11-06T05:00:00	6	Velocidad del viento	9.7
21166	7	Sololá	701	Sololá	3	Barraneche	4	Abril	2023-04-21T00:00:00	2024-11-06T05:00:00	7	Dirección del viento	9.66
21167	7	Sololá	701	Sololá	3	Barraneche	4	Abril	2023-04-21T00:00:00	2024-11-06T05:00:00	1	Precipitación	0
21168	7	Sololá	701	Sololá	3	Barraneche	4	Abril	2023-04-21T00:00:00	2024-11-06T05:00:00	8	Radiación solar	0
21169	7	Sololá	701	Sololá	3	Barraneche	4	Abril	2023-04-21T00:00:00	2024-11-06T06:00:00	2	Temperatura media	10.3
21170	7	Sololá	701	Sololá	3	Barraneche	4	Abril	2023-04-21T00:00:00	2024-11-06T06:00:00	4	Temperatura máxima	10.9
21171	7	Sololá	701	Sololá	3	Barraneche	4	Abril	2023-04-21T00:00:00	2024-11-06T06:00:00	3	Temperatura mínima	10
21172	7	Sololá	701	Sololá	3	Barraneche	4	Abril	2023-04-21T00:00:00	2024-11-06T06:00:00	5	Humedad	57
21173	7	Sololá	701	Sololá	3	Barraneche	4	Abril	2023-04-21T00:00:00	2024-11-06T06:00:00	6	Velocidad del viento	9.7
21174	7	Sololá	701	Sololá	3	Barraneche	4	Abril	2023-04-21T00:00:00	2024-11-06T06:00:00	7	Dirección del viento	9.66
21175	7	Sololá	701	Sololá	3	Barraneche	4	Abril	2023-04-21T00:00:00	2024-11-06T06:00:00	1	Precipitación	0
21176	7	Sololá	701	Sololá	3	Barraneche	4	Abril	2023-04-21T00:00:00	2024-11-06T06:00:00	8	Radiación solar	2
21177	7	Sololá	701	Sololá	3	Barraneche	4	Abril	2023-04-21T00:00:00	2024-11-06T07:00:00	2	Temperatura media	12.6
21178	7	Sololá	701	Sololá	3	Barraneche	4	Abril	2023-04-21T00:00:00	2024-11-06T07:00:00	4	Temperatura máxima	12.6
21179	7	Sololá	701	Sololá	3	Barraneche	4	Abril	2023-04-21T00:00:00	2024-11-06T07:00:00	3	Temperatura mínima	10.3
21180	7	Sololá	701	Sololá	3	Barraneche	4	Abril	2023-04-21T00:00:00	2024-11-06T07:00:00	5	Humedad	55
21181	7	Sololá	701	Sololá	3	Barraneche	4	Abril	2023-04-21T00:00:00	2024-11-06T07:00:00	6	Velocidad del viento	3.2
21182	7	Sololá	701	Sololá	3	Barraneche	4	Abril	2023-04-21T00:00:00	2024-11-06T07:00:00	7	Dirección del viento	3.22
21183	7	Sololá	701	Sololá	3	Barraneche	4	Abril	2023-04-21T00:00:00	2024-11-06T07:00:00	1	Precipitación	0
21184	7	Sololá	701	Sololá	3	Barraneche	4	Abril	2023-04-21T00:00:00	2024-11-06T07:00:00	8	Radiación solar	87
21185	7	Sololá	701	Sololá	3	Barraneche	4	Abril	2023-04-21T00:00:00	2024-11-06T08:00:00	2	Temperatura media	16.8
21186	7	Sololá	701	Sololá	3	Barraneche	4	Abril	2023-04-21T00:00:00	2024-11-06T08:00:00	4	Temperatura máxima	16.8
21187	7	Sololá	701	Sololá	3	Barraneche	4	Abril	2023-04-21T00:00:00	2024-11-06T08:00:00	3	Temperatura mínima	12.7
21188	7	Sololá	701	Sololá	3	Barraneche	4	Abril	2023-04-21T00:00:00	2024-11-06T08:00:00	5	Humedad	49
21189	7	Sololá	701	Sololá	3	Barraneche	4	Abril	2023-04-21T00:00:00	2024-11-06T08:00:00	6	Velocidad del viento	3.2
21190	7	Sololá	701	Sololá	3	Barraneche	4	Abril	2023-04-21T00:00:00	2024-11-06T08:00:00	7	Dirección del viento	3.22
21191	7	Sololá	701	Sololá	3	Barraneche	4	Abril	2023-04-21T00:00:00	2024-11-06T08:00:00	1	Precipitación	0
21192	7	Sololá	701	Sololá	3	Barraneche	4	Abril	2023-04-21T00:00:00	2024-11-06T08:00:00	8	Radiación solar	355
21193	7	Sololá	701	Sololá	3	Barraneche	4	Abril	2023-04-21T00:00:00	2024-11-06T09:00:00	2	Temperatura media	17.9
21194	7	Sololá	701	Sololá	3	Barraneche	4	Abril	2023-04-21T00:00:00	2024-11-06T09:00:00	4	Temperatura máxima	17.9
21195	7	Sololá	701	Sololá	3	Barraneche	4	Abril	2023-04-21T00:00:00	2024-11-06T09:00:00	3	Temperatura mínima	16.5
21196	7	Sololá	701	Sololá	3	Barraneche	4	Abril	2023-04-21T00:00:00	2024-11-06T09:00:00	5	Humedad	49
21197	7	Sololá	701	Sololá	3	Barraneche	4	Abril	2023-04-21T00:00:00	2024-11-06T09:00:00	6	Velocidad del viento	4.8
21198	7	Sololá	701	Sololá	3	Barraneche	4	Abril	2023-04-21T00:00:00	2024-11-06T09:00:00	7	Dirección del viento	4.83
21199	7	Sololá	701	Sololá	3	Barraneche	4	Abril	2023-04-21T00:00:00	2024-11-06T09:00:00	1	Precipitación	0
21200	7	Sololá	701	Sololá	3	Barraneche	4	Abril	2023-04-21T00:00:00	2024-11-06T09:00:00	8	Radiación solar	560
21201	7	Sololá	701	Sololá	3	Barraneche	4	Abril	2023-04-21T00:00:00	2024-11-06T10:00:00	2	Temperatura media	19.3
21202	7	Sololá	701	Sololá	3	Barraneche	4	Abril	2023-04-21T00:00:00	2024-11-06T10:00:00	4	Temperatura máxima	19.4
21203	7	Sololá	701	Sololá	3	Barraneche	4	Abril	2023-04-21T00:00:00	2024-11-06T10:00:00	3	Temperatura mínima	17.9
21204	7	Sololá	701	Sololá	3	Barraneche	4	Abril	2023-04-21T00:00:00	2024-11-06T10:00:00	5	Humedad	47
21205	7	Sololá	701	Sololá	3	Barraneche	4	Abril	2023-04-21T00:00:00	2024-11-06T10:00:00	6	Velocidad del viento	6.4
21206	7	Sololá	701	Sololá	3	Barraneche	4	Abril	2023-04-21T00:00:00	2024-11-06T10:00:00	7	Dirección del viento	6.44
21207	7	Sololá	701	Sololá	3	Barraneche	4	Abril	2023-04-21T00:00:00	2024-11-06T10:00:00	1	Precipitación	0
21208	7	Sololá	701	Sololá	3	Barraneche	4	Abril	2023-04-21T00:00:00	2024-11-06T10:00:00	8	Radiación solar	783
21209	7	Sololá	701	Sololá	3	Barraneche	4	Abril	2023-04-21T00:00:00	2024-11-06T11:00:00	2	Temperatura media	18.9
21210	7	Sololá	701	Sololá	3	Barraneche	4	Abril	2023-04-21T00:00:00	2024-11-06T11:00:00	4	Temperatura máxima	20.1
21211	7	Sololá	701	Sololá	3	Barraneche	4	Abril	2023-04-21T00:00:00	2024-11-06T11:00:00	3	Temperatura mínima	18.9
21212	7	Sololá	701	Sololá	3	Barraneche	4	Abril	2023-04-21T00:00:00	2024-11-06T11:00:00	5	Humedad	54
21213	7	Sololá	701	Sololá	3	Barraneche	4	Abril	2023-04-21T00:00:00	2024-11-06T11:00:00	6	Velocidad del viento	12.9
21214	7	Sololá	701	Sololá	3	Barraneche	4	Abril	2023-04-21T00:00:00	2024-11-06T11:00:00	7	Dirección del viento	12.87
21215	7	Sololá	701	Sololá	3	Barraneche	4	Abril	2023-04-21T00:00:00	2024-11-06T11:00:00	1	Precipitación	0
21216	7	Sololá	701	Sololá	3	Barraneche	4	Abril	2023-04-21T00:00:00	2024-11-06T11:00:00	8	Radiación solar	905
21217	7	Sololá	701	Sololá	3	Barraneche	4	Abril	2023-04-21T00:00:00	2024-11-06T12:00:00	2	Temperatura media	18
21218	7	Sololá	701	Sololá	3	Barraneche	4	Abril	2023-04-21T00:00:00	2024-11-06T12:00:00	4	Temperatura máxima	19.3
21219	7	Sololá	701	Sololá	3	Barraneche	4	Abril	2023-04-21T00:00:00	2024-11-06T12:00:00	3	Temperatura mínima	18
21220	7	Sololá	701	Sololá	3	Barraneche	4	Abril	2023-04-21T00:00:00	2024-11-06T12:00:00	5	Humedad	61
21221	7	Sololá	701	Sololá	3	Barraneche	4	Abril	2023-04-21T00:00:00	2024-11-06T12:00:00	6	Velocidad del viento	16.1
21222	7	Sololá	701	Sololá	3	Barraneche	4	Abril	2023-04-21T00:00:00	2024-11-06T12:00:00	7	Dirección del viento	16.09
21223	7	Sololá	701	Sololá	3	Barraneche	4	Abril	2023-04-21T00:00:00	2024-11-06T12:00:00	1	Precipitación	0
21224	7	Sololá	701	Sololá	3	Barraneche	4	Abril	2023-04-21T00:00:00	2024-11-06T12:00:00	8	Radiación solar	1031
21225	7	Sololá	701	Sololá	3	Barraneche	4	Abril	2023-04-21T00:00:00	2024-11-06T13:00:00	2	Temperatura media	17.4
21226	7	Sololá	701	Sololá	3	Barraneche	4	Abril	2023-04-21T00:00:00	2024-11-06T13:00:00	4	Temperatura máxima	18.4
21227	7	Sololá	701	Sololá	3	Barraneche	4	Abril	2023-04-21T00:00:00	2024-11-06T13:00:00	3	Temperatura mínima	17.4
21228	7	Sololá	701	Sololá	3	Barraneche	4	Abril	2023-04-21T00:00:00	2024-11-06T13:00:00	5	Humedad	65
21229	7	Sololá	701	Sololá	3	Barraneche	4	Abril	2023-04-21T00:00:00	2024-11-06T13:00:00	6	Velocidad del viento	14.5
21230	7	Sololá	701	Sololá	3	Barraneche	4	Abril	2023-04-21T00:00:00	2024-11-06T13:00:00	7	Dirección del viento	14.48
21231	7	Sololá	701	Sololá	3	Barraneche	4	Abril	2023-04-21T00:00:00	2024-11-06T13:00:00	1	Precipitación	0
21232	7	Sololá	701	Sololá	3	Barraneche	4	Abril	2023-04-21T00:00:00	2024-11-06T13:00:00	8	Radiación solar	744
21233	7	Sololá	701	Sololá	3	Barraneche	4	Abril	2023-04-21T00:00:00	2024-11-06T14:00:00	2	Temperatura media	17.8
21234	7	Sololá	701	Sololá	3	Barraneche	4	Abril	2023-04-21T00:00:00	2024-11-06T14:00:00	4	Temperatura máxima	18.3
21235	7	Sololá	701	Sololá	3	Barraneche	4	Abril	2023-04-21T00:00:00	2024-11-06T14:00:00	3	Temperatura mínima	17.2
21236	7	Sololá	701	Sololá	3	Barraneche	4	Abril	2023-04-21T00:00:00	2024-11-06T14:00:00	5	Humedad	64
21237	7	Sololá	701	Sololá	3	Barraneche	4	Abril	2023-04-21T00:00:00	2024-11-06T14:00:00	6	Velocidad del viento	12.9
21238	7	Sololá	701	Sololá	3	Barraneche	4	Abril	2023-04-21T00:00:00	2024-11-06T14:00:00	7	Dirección del viento	12.87
21239	7	Sololá	701	Sololá	3	Barraneche	4	Abril	2023-04-21T00:00:00	2024-11-06T14:00:00	1	Precipitación	0
21240	7	Sololá	701	Sololá	3	Barraneche	4	Abril	2023-04-21T00:00:00	2024-11-06T14:00:00	8	Radiación solar	588
21241	7	Sololá	701	Sololá	3	Barraneche	4	Abril	2023-04-21T00:00:00	2024-11-06T15:00:00	2	Temperatura media	16.3
21242	7	Sololá	701	Sololá	3	Barraneche	4	Abril	2023-04-21T00:00:00	2024-11-06T15:00:00	4	Temperatura máxima	17.8
21243	7	Sololá	701	Sololá	3	Barraneche	4	Abril	2023-04-21T00:00:00	2024-11-06T15:00:00	3	Temperatura mínima	16
21244	7	Sololá	701	Sololá	3	Barraneche	4	Abril	2023-04-21T00:00:00	2024-11-06T15:00:00	5	Humedad	69
21245	7	Sololá	701	Sololá	3	Barraneche	4	Abril	2023-04-21T00:00:00	2024-11-06T15:00:00	6	Velocidad del viento	12.9
21246	7	Sololá	701	Sololá	3	Barraneche	4	Abril	2023-04-21T00:00:00	2024-11-06T15:00:00	7	Dirección del viento	12.87
21247	7	Sololá	701	Sololá	3	Barraneche	4	Abril	2023-04-21T00:00:00	2024-11-06T15:00:00	1	Precipitación	0
21248	7	Sololá	701	Sololá	3	Barraneche	4	Abril	2023-04-21T00:00:00	2024-11-06T15:00:00	8	Radiación solar	200
21249	7	Sololá	701	Sololá	3	Barraneche	4	Abril	2023-04-21T00:00:00	2024-11-06T16:00:00	2	Temperatura media	16.1
21250	7	Sololá	701	Sololá	3	Barraneche	4	Abril	2023-04-21T00:00:00	2024-11-06T16:00:00	4	Temperatura máxima	16.4
21251	7	Sololá	701	Sololá	3	Barraneche	4	Abril	2023-04-21T00:00:00	2024-11-06T16:00:00	3	Temperatura mínima	16
21252	7	Sololá	701	Sololá	3	Barraneche	4	Abril	2023-04-21T00:00:00	2024-11-06T16:00:00	5	Humedad	69
21253	7	Sololá	701	Sololá	3	Barraneche	4	Abril	2023-04-21T00:00:00	2024-11-06T16:00:00	6	Velocidad del viento	9.7
21254	7	Sololá	701	Sololá	3	Barraneche	4	Abril	2023-04-21T00:00:00	2024-11-06T16:00:00	7	Dirección del viento	9.66
21255	7	Sololá	701	Sololá	3	Barraneche	4	Abril	2023-04-21T00:00:00	2024-11-06T16:00:00	1	Precipitación	0
21256	7	Sololá	701	Sololá	3	Barraneche	4	Abril	2023-04-21T00:00:00	2024-11-06T16:00:00	8	Radiación solar	113
21257	7	Sololá	701	Sololá	3	Barraneche	4	Abril	2023-04-21T00:00:00	2024-11-06T17:00:00	2	Temperatura media	15.5
21258	7	Sololá	701	Sololá	3	Barraneche	4	Abril	2023-04-21T00:00:00	2024-11-06T17:00:00	4	Temperatura máxima	16.2
21259	7	Sololá	701	Sololá	3	Barraneche	4	Abril	2023-04-21T00:00:00	2024-11-06T17:00:00	3	Temperatura mínima	15.4
21260	7	Sololá	701	Sololá	3	Barraneche	4	Abril	2023-04-21T00:00:00	2024-11-06T17:00:00	5	Humedad	71
21261	7	Sololá	701	Sololá	3	Barraneche	4	Abril	2023-04-21T00:00:00	2024-11-06T17:00:00	6	Velocidad del viento	6.4
21262	7	Sololá	701	Sololá	3	Barraneche	4	Abril	2023-04-21T00:00:00	2024-11-06T17:00:00	7	Dirección del viento	6.44
21263	7	Sololá	701	Sololá	3	Barraneche	4	Abril	2023-04-21T00:00:00	2024-11-06T17:00:00	1	Precipitación	0
21264	7	Sololá	701	Sololá	3	Barraneche	4	Abril	2023-04-21T00:00:00	2024-11-06T17:00:00	8	Radiación solar	35
21265	7	Sololá	701	Sololá	3	Barraneche	4	Abril	2023-04-21T00:00:00	2024-11-06T18:00:00	2	Temperatura media	15.7
21266	7	Sololá	701	Sololá	3	Barraneche	4	Abril	2023-04-21T00:00:00	2024-11-06T18:00:00	4	Temperatura máxima	15.9
21267	7	Sololá	701	Sololá	3	Barraneche	4	Abril	2023-04-21T00:00:00	2024-11-06T18:00:00	3	Temperatura mínima	15.5
21268	7	Sololá	701	Sololá	3	Barraneche	4	Abril	2023-04-21T00:00:00	2024-11-06T18:00:00	5	Humedad	71
21269	7	Sololá	701	Sololá	3	Barraneche	4	Abril	2023-04-21T00:00:00	2024-11-06T18:00:00	6	Velocidad del viento	3.2
21270	7	Sololá	701	Sololá	3	Barraneche	4	Abril	2023-04-21T00:00:00	2024-11-06T18:00:00	7	Dirección del viento	3.22
21271	7	Sololá	701	Sololá	3	Barraneche	4	Abril	2023-04-21T00:00:00	2024-11-06T18:00:00	1	Precipitación	0
21272	7	Sololá	701	Sololá	3	Barraneche	4	Abril	2023-04-21T00:00:00	2024-11-06T18:00:00	8	Radiación solar	61
21273	7	Sololá	701	Sololá	3	Barraneche	4	Abril	2023-04-21T00:00:00	2024-11-06T19:00:00	2	Temperatura media	14.9
21274	7	Sololá	701	Sololá	3	Barraneche	4	Abril	2023-04-21T00:00:00	2024-11-06T19:00:00	4	Temperatura máxima	15.7
21275	7	Sololá	701	Sololá	3	Barraneche	4	Abril	2023-04-21T00:00:00	2024-11-06T19:00:00	3	Temperatura mínima	14.9
21276	7	Sololá	701	Sololá	3	Barraneche	4	Abril	2023-04-21T00:00:00	2024-11-06T19:00:00	5	Humedad	77
21277	7	Sololá	701	Sololá	3	Barraneche	4	Abril	2023-04-21T00:00:00	2024-11-06T19:00:00	6	Velocidad del viento	3.2
21278	7	Sololá	701	Sololá	3	Barraneche	4	Abril	2023-04-21T00:00:00	2024-11-06T19:00:00	7	Dirección del viento	3.22
21279	7	Sololá	701	Sololá	3	Barraneche	4	Abril	2023-04-21T00:00:00	2024-11-06T19:00:00	1	Precipitación	0
21280	7	Sololá	701	Sololá	3	Barraneche	4	Abril	2023-04-21T00:00:00	2024-11-06T19:00:00	8	Radiación solar	0
21281	7	Sololá	701	Sololá	3	Barraneche	4	Abril	2023-04-21T00:00:00	2024-11-06T20:00:00	2	Temperatura media	14.7
21282	7	Sololá	701	Sololá	3	Barraneche	4	Abril	2023-04-21T00:00:00	2024-11-06T20:00:00	4	Temperatura máxima	14.9
21283	7	Sololá	701	Sololá	3	Barraneche	4	Abril	2023-04-21T00:00:00	2024-11-06T20:00:00	3	Temperatura mínima	14.7
21284	7	Sololá	701	Sololá	3	Barraneche	4	Abril	2023-04-21T00:00:00	2024-11-06T20:00:00	5	Humedad	76
21285	7	Sololá	701	Sololá	3	Barraneche	4	Abril	2023-04-21T00:00:00	2024-11-06T20:00:00	6	Velocidad del viento	1.6
21286	7	Sololá	701	Sololá	3	Barraneche	4	Abril	2023-04-21T00:00:00	2024-11-06T20:00:00	7	Dirección del viento	1.61
21287	7	Sololá	701	Sololá	3	Barraneche	4	Abril	2023-04-21T00:00:00	2024-11-06T20:00:00	1	Precipitación	0
21288	7	Sololá	701	Sololá	3	Barraneche	4	Abril	2023-04-21T00:00:00	2024-11-06T20:00:00	8	Radiación solar	0
21289	7	Sololá	701	Sololá	3	Barraneche	4	Abril	2023-04-21T00:00:00	2024-11-06T21:00:00	2	Temperatura media	14.7
21290	7	Sololá	701	Sololá	3	Barraneche	4	Abril	2023-04-21T00:00:00	2024-11-06T21:00:00	4	Temperatura máxima	15.3
21291	7	Sololá	701	Sololá	3	Barraneche	4	Abril	2023-04-21T00:00:00	2024-11-06T21:00:00	3	Temperatura mínima	14.2
21292	7	Sololá	701	Sololá	3	Barraneche	4	Abril	2023-04-21T00:00:00	2024-11-06T21:00:00	5	Humedad	66
21293	7	Sololá	701	Sololá	3	Barraneche	4	Abril	2023-04-21T00:00:00	2024-11-06T21:00:00	6	Velocidad del viento	6.4
21294	7	Sololá	701	Sololá	3	Barraneche	4	Abril	2023-04-21T00:00:00	2024-11-06T21:00:00	7	Dirección del viento	6.44
21295	7	Sololá	701	Sololá	3	Barraneche	4	Abril	2023-04-21T00:00:00	2024-11-06T21:00:00	1	Precipitación	0
21296	7	Sololá	701	Sololá	3	Barraneche	4	Abril	2023-04-21T00:00:00	2024-11-06T21:00:00	8	Radiación solar	0
21297	7	Sololá	701	Sololá	3	Barraneche	4	Abril	2023-04-21T00:00:00	2024-11-06T22:00:00	2	Temperatura media	15.6
21298	7	Sololá	701	Sololá	3	Barraneche	4	Abril	2023-04-21T00:00:00	2024-11-06T22:00:00	4	Temperatura máxima	15.7
21299	7	Sololá	701	Sololá	3	Barraneche	4	Abril	2023-04-21T00:00:00	2024-11-06T22:00:00	3	Temperatura mínima	14.4
21300	7	Sololá	701	Sololá	3	Barraneche	4	Abril	2023-04-21T00:00:00	2024-11-06T22:00:00	5	Humedad	62
21301	7	Sololá	701	Sololá	3	Barraneche	4	Abril	2023-04-21T00:00:00	2024-11-06T22:00:00	6	Velocidad del viento	11.3
21302	7	Sololá	701	Sololá	3	Barraneche	4	Abril	2023-04-21T00:00:00	2024-11-06T22:00:00	7	Dirección del viento	11.27
21303	7	Sololá	701	Sololá	3	Barraneche	4	Abril	2023-04-21T00:00:00	2024-11-06T22:00:00	1	Precipitación	0
21304	7	Sololá	701	Sololá	3	Barraneche	4	Abril	2023-04-21T00:00:00	2024-11-06T22:00:00	8	Radiación solar	0
21305	7	Sololá	701	Sololá	3	Barraneche	4	Abril	2023-04-21T00:00:00	2024-11-06T23:00:00	2	Temperatura media	14.4
21306	7	Sololá	701	Sololá	3	Barraneche	4	Abril	2023-04-21T00:00:00	2024-11-06T23:00:00	4	Temperatura máxima	15.6
21307	7	Sololá	701	Sololá	3	Barraneche	4	Abril	2023-04-21T00:00:00	2024-11-06T23:00:00	3	Temperatura mínima	14.3
21308	7	Sololá	701	Sololá	3	Barraneche	4	Abril	2023-04-21T00:00:00	2024-11-06T23:00:00	5	Humedad	54
21309	7	Sololá	701	Sololá	3	Barraneche	4	Abril	2023-04-21T00:00:00	2024-11-06T23:00:00	6	Velocidad del viento	14.5
21310	7	Sololá	701	Sololá	3	Barraneche	4	Abril	2023-04-21T00:00:00	2024-11-06T23:00:00	7	Dirección del viento	14.48
21311	7	Sololá	701	Sololá	3	Barraneche	4	Abril	2023-04-21T00:00:00	2024-11-06T23:00:00	1	Precipitación	0
21312	7	Sololá	701	Sololá	3	Barraneche	4	Abril	2023-04-21T00:00:00	2024-11-06T23:00:00	8	Radiación solar	0
21313	7	Sololá	701	Sololá	3	Barraneche	4	Abril	2023-04-22T00:00:00	2024-11-06T00:00:00	2	Temperatura media	11.8
21314	7	Sololá	701	Sololá	3	Barraneche	4	Abril	2023-04-22T00:00:00	2024-11-06T00:00:00	4	Temperatura máxima	14.4
21315	7	Sololá	701	Sololá	3	Barraneche	4	Abril	2023-04-22T00:00:00	2024-11-06T00:00:00	3	Temperatura mínima	11.7
21316	7	Sololá	701	Sololá	3	Barraneche	4	Abril	2023-04-22T00:00:00	2024-11-06T00:00:00	5	Humedad	62
21317	7	Sololá	701	Sololá	3	Barraneche	4	Abril	2023-04-22T00:00:00	2024-11-06T00:00:00	6	Velocidad del viento	6.4
21318	7	Sololá	701	Sololá	3	Barraneche	4	Abril	2023-04-22T00:00:00	2024-11-06T00:00:00	7	Dirección del viento	6.44
21319	7	Sololá	701	Sololá	3	Barraneche	4	Abril	2023-04-22T00:00:00	2024-11-06T00:00:00	1	Precipitación	0
21320	7	Sololá	701	Sololá	3	Barraneche	4	Abril	2023-04-22T00:00:00	2024-11-06T00:00:00	8	Radiación solar	0
21321	7	Sololá	701	Sololá	3	Barraneche	4	Abril	2023-04-22T00:00:00	2024-11-06T01:00:00	2	Temperatura media	11.5
21322	7	Sololá	701	Sololá	3	Barraneche	4	Abril	2023-04-22T00:00:00	2024-11-06T01:00:00	4	Temperatura máxima	11.8
21323	7	Sololá	701	Sololá	3	Barraneche	4	Abril	2023-04-22T00:00:00	2024-11-06T01:00:00	3	Temperatura mínima	11.3
21324	7	Sololá	701	Sololá	3	Barraneche	4	Abril	2023-04-22T00:00:00	2024-11-06T01:00:00	5	Humedad	64
21325	7	Sololá	701	Sololá	3	Barraneche	4	Abril	2023-04-22T00:00:00	2024-11-06T01:00:00	6	Velocidad del viento	9.7
21326	7	Sololá	701	Sololá	3	Barraneche	4	Abril	2023-04-22T00:00:00	2024-11-06T01:00:00	7	Dirección del viento	9.66
21327	7	Sololá	701	Sololá	3	Barraneche	4	Abril	2023-04-22T00:00:00	2024-11-06T01:00:00	1	Precipitación	0
21328	7	Sololá	701	Sololá	3	Barraneche	4	Abril	2023-04-22T00:00:00	2024-11-06T01:00:00	8	Radiación solar	0
21329	7	Sololá	701	Sololá	3	Barraneche	4	Abril	2023-04-22T00:00:00	2024-11-06T02:00:00	2	Temperatura media	11.2
21330	7	Sololá	701	Sololá	3	Barraneche	4	Abril	2023-04-22T00:00:00	2024-11-06T02:00:00	4	Temperatura máxima	11.7
21331	7	Sololá	701	Sololá	3	Barraneche	4	Abril	2023-04-22T00:00:00	2024-11-06T02:00:00	3	Temperatura mínima	11.1
21332	7	Sololá	701	Sololá	3	Barraneche	4	Abril	2023-04-22T00:00:00	2024-11-06T02:00:00	5	Humedad	68
21333	7	Sololá	701	Sololá	3	Barraneche	4	Abril	2023-04-22T00:00:00	2024-11-06T02:00:00	6	Velocidad del viento	6.4
21334	7	Sololá	701	Sololá	3	Barraneche	4	Abril	2023-04-22T00:00:00	2024-11-06T02:00:00	7	Dirección del viento	6.44
21335	7	Sololá	701	Sololá	3	Barraneche	4	Abril	2023-04-22T00:00:00	2024-11-06T02:00:00	1	Precipitación	0
21336	7	Sololá	701	Sololá	3	Barraneche	4	Abril	2023-04-22T00:00:00	2024-11-06T02:00:00	8	Radiación solar	0
21337	7	Sololá	701	Sololá	3	Barraneche	4	Abril	2023-04-22T00:00:00	2024-11-06T03:00:00	2	Temperatura media	11.1
21338	7	Sololá	701	Sololá	3	Barraneche	4	Abril	2023-04-22T00:00:00	2024-11-06T03:00:00	4	Temperatura máxima	11.2
21339	7	Sololá	701	Sololá	3	Barraneche	4	Abril	2023-04-22T00:00:00	2024-11-06T03:00:00	3	Temperatura mínima	10.8
21340	7	Sololá	701	Sololá	3	Barraneche	4	Abril	2023-04-22T00:00:00	2024-11-06T03:00:00	5	Humedad	68
21341	7	Sololá	701	Sololá	3	Barraneche	4	Abril	2023-04-22T00:00:00	2024-11-06T03:00:00	6	Velocidad del viento	8
21342	7	Sololá	701	Sololá	3	Barraneche	4	Abril	2023-04-22T00:00:00	2024-11-06T03:00:00	7	Dirección del viento	8.05
21343	7	Sololá	701	Sololá	3	Barraneche	4	Abril	2023-04-22T00:00:00	2024-11-06T03:00:00	1	Precipitación	0
21344	7	Sololá	701	Sololá	3	Barraneche	4	Abril	2023-04-22T00:00:00	2024-11-06T03:00:00	8	Radiación solar	0
21345	7	Sololá	701	Sololá	3	Barraneche	4	Abril	2023-04-22T00:00:00	2024-11-06T04:00:00	2	Temperatura media	10.9
21346	7	Sololá	701	Sololá	3	Barraneche	4	Abril	2023-04-22T00:00:00	2024-11-06T04:00:00	4	Temperatura máxima	11.3
21347	7	Sololá	701	Sololá	3	Barraneche	4	Abril	2023-04-22T00:00:00	2024-11-06T04:00:00	3	Temperatura mínima	10.7
21348	7	Sololá	701	Sololá	3	Barraneche	4	Abril	2023-04-22T00:00:00	2024-11-06T04:00:00	5	Humedad	68
21349	7	Sololá	701	Sololá	3	Barraneche	4	Abril	2023-04-22T00:00:00	2024-11-06T04:00:00	6	Velocidad del viento	6.4
21350	7	Sololá	701	Sololá	3	Barraneche	4	Abril	2023-04-22T00:00:00	2024-11-06T04:00:00	7	Dirección del viento	6.44
21351	7	Sololá	701	Sololá	3	Barraneche	4	Abril	2023-04-22T00:00:00	2024-11-06T04:00:00	1	Precipitación	0
21352	7	Sololá	701	Sololá	3	Barraneche	4	Abril	2023-04-22T00:00:00	2024-11-06T04:00:00	8	Radiación solar	0
21353	7	Sololá	701	Sololá	3	Barraneche	4	Abril	2023-04-22T00:00:00	2024-11-06T05:00:00	2	Temperatura media	10.7
21354	7	Sololá	701	Sololá	3	Barraneche	4	Abril	2023-04-22T00:00:00	2024-11-06T05:00:00	4	Temperatura máxima	11.1
21355	7	Sololá	701	Sololá	3	Barraneche	4	Abril	2023-04-22T00:00:00	2024-11-06T05:00:00	3	Temperatura mínima	10.6
21356	7	Sololá	701	Sololá	3	Barraneche	4	Abril	2023-04-22T00:00:00	2024-11-06T05:00:00	5	Humedad	61
21357	7	Sololá	701	Sololá	3	Barraneche	4	Abril	2023-04-22T00:00:00	2024-11-06T05:00:00	6	Velocidad del viento	6.4
21358	7	Sololá	701	Sololá	3	Barraneche	4	Abril	2023-04-22T00:00:00	2024-11-06T05:00:00	7	Dirección del viento	6.44
21359	7	Sololá	701	Sololá	3	Barraneche	4	Abril	2023-04-22T00:00:00	2024-11-06T05:00:00	1	Precipitación	0
21360	7	Sololá	701	Sololá	3	Barraneche	4	Abril	2023-04-22T00:00:00	2024-11-06T05:00:00	8	Radiación solar	0
21361	7	Sololá	701	Sololá	3	Barraneche	4	Abril	2023-04-22T00:00:00	2024-11-06T06:00:00	2	Temperatura media	10.6
21362	7	Sololá	701	Sololá	3	Barraneche	4	Abril	2023-04-22T00:00:00	2024-11-06T06:00:00	4	Temperatura máxima	11
21363	7	Sololá	701	Sololá	3	Barraneche	4	Abril	2023-04-22T00:00:00	2024-11-06T06:00:00	3	Temperatura mínima	10.4
21364	7	Sololá	701	Sololá	3	Barraneche	4	Abril	2023-04-22T00:00:00	2024-11-06T06:00:00	5	Humedad	55
21365	7	Sololá	701	Sololá	3	Barraneche	4	Abril	2023-04-22T00:00:00	2024-11-06T06:00:00	6	Velocidad del viento	8
21366	7	Sololá	701	Sololá	3	Barraneche	4	Abril	2023-04-22T00:00:00	2024-11-06T06:00:00	7	Dirección del viento	8.05
21367	7	Sololá	701	Sololá	3	Barraneche	4	Abril	2023-04-22T00:00:00	2024-11-06T06:00:00	1	Precipitación	0
21368	7	Sololá	701	Sololá	3	Barraneche	4	Abril	2023-04-22T00:00:00	2024-11-06T06:00:00	8	Radiación solar	3
21369	7	Sololá	701	Sololá	3	Barraneche	4	Abril	2023-04-22T00:00:00	2024-11-06T07:00:00	2	Temperatura media	12.5
21370	7	Sololá	701	Sololá	3	Barraneche	4	Abril	2023-04-22T00:00:00	2024-11-06T07:00:00	4	Temperatura máxima	12.5
21371	7	Sololá	701	Sololá	3	Barraneche	4	Abril	2023-04-22T00:00:00	2024-11-06T07:00:00	3	Temperatura mínima	10.2
21372	7	Sololá	701	Sololá	3	Barraneche	4	Abril	2023-04-22T00:00:00	2024-11-06T07:00:00	5	Humedad	51
21373	7	Sololá	701	Sololá	3	Barraneche	4	Abril	2023-04-22T00:00:00	2024-11-06T07:00:00	6	Velocidad del viento	8
21374	7	Sololá	701	Sololá	3	Barraneche	4	Abril	2023-04-22T00:00:00	2024-11-06T07:00:00	7	Dirección del viento	8.05
21375	7	Sololá	701	Sololá	3	Barraneche	4	Abril	2023-04-22T00:00:00	2024-11-06T07:00:00	1	Precipitación	0
21376	7	Sololá	701	Sololá	3	Barraneche	4	Abril	2023-04-22T00:00:00	2024-11-06T07:00:00	8	Radiación solar	86
21377	7	Sololá	701	Sololá	3	Barraneche	4	Abril	2023-04-22T00:00:00	2024-11-06T08:00:00	2	Temperatura media	17.7
21378	7	Sololá	701	Sololá	3	Barraneche	4	Abril	2023-04-22T00:00:00	2024-11-06T08:00:00	4	Temperatura máxima	17.7
21379	7	Sololá	701	Sololá	3	Barraneche	4	Abril	2023-04-22T00:00:00	2024-11-06T08:00:00	3	Temperatura mínima	12.5
21380	7	Sololá	701	Sololá	3	Barraneche	4	Abril	2023-04-22T00:00:00	2024-11-06T08:00:00	5	Humedad	34
21381	7	Sololá	701	Sololá	3	Barraneche	4	Abril	2023-04-22T00:00:00	2024-11-06T08:00:00	6	Velocidad del viento	4.8
21382	7	Sololá	701	Sololá	3	Barraneche	4	Abril	2023-04-22T00:00:00	2024-11-06T08:00:00	7	Dirección del viento	4.83
21383	7	Sololá	701	Sololá	3	Barraneche	4	Abril	2023-04-22T00:00:00	2024-11-06T08:00:00	1	Precipitación	0
21384	7	Sololá	701	Sololá	3	Barraneche	4	Abril	2023-04-22T00:00:00	2024-11-06T08:00:00	8	Radiación solar	366
21385	7	Sololá	701	Sololá	3	Barraneche	4	Abril	2023-04-22T00:00:00	2024-11-06T09:00:00	2	Temperatura media	19.5
21386	7	Sololá	701	Sololá	3	Barraneche	4	Abril	2023-04-22T00:00:00	2024-11-06T09:00:00	4	Temperatura máxima	19.6
21387	7	Sololá	701	Sololá	3	Barraneche	4	Abril	2023-04-22T00:00:00	2024-11-06T09:00:00	3	Temperatura mínima	17.7
21388	7	Sololá	701	Sololá	3	Barraneche	4	Abril	2023-04-22T00:00:00	2024-11-06T09:00:00	5	Humedad	29
21389	7	Sololá	701	Sololá	3	Barraneche	4	Abril	2023-04-22T00:00:00	2024-11-06T09:00:00	6	Velocidad del viento	8
21390	7	Sololá	701	Sololá	3	Barraneche	4	Abril	2023-04-22T00:00:00	2024-11-06T09:00:00	7	Dirección del viento	8.05
21391	7	Sololá	701	Sololá	3	Barraneche	4	Abril	2023-04-22T00:00:00	2024-11-06T09:00:00	1	Precipitación	0
21392	7	Sololá	701	Sololá	3	Barraneche	4	Abril	2023-04-22T00:00:00	2024-11-06T09:00:00	8	Radiación solar	608
21393	7	Sololá	701	Sololá	3	Barraneche	4	Abril	2023-04-22T00:00:00	2024-11-06T10:00:00	2	Temperatura media	20.5
21394	7	Sololá	701	Sololá	3	Barraneche	4	Abril	2023-04-22T00:00:00	2024-11-06T10:00:00	4	Temperatura máxima	20.6
21395	7	Sololá	701	Sololá	3	Barraneche	4	Abril	2023-04-22T00:00:00	2024-11-06T10:00:00	3	Temperatura mínima	19.2
21396	7	Sololá	701	Sololá	3	Barraneche	4	Abril	2023-04-22T00:00:00	2024-11-06T10:00:00	5	Humedad	29
21397	7	Sololá	701	Sololá	3	Barraneche	4	Abril	2023-04-22T00:00:00	2024-11-06T10:00:00	6	Velocidad del viento	12.9
21398	7	Sololá	701	Sololá	3	Barraneche	4	Abril	2023-04-22T00:00:00	2024-11-06T10:00:00	7	Dirección del viento	12.87
21399	7	Sololá	701	Sololá	3	Barraneche	4	Abril	2023-04-22T00:00:00	2024-11-06T10:00:00	1	Precipitación	0
21400	7	Sololá	701	Sololá	3	Barraneche	4	Abril	2023-04-22T00:00:00	2024-11-06T10:00:00	8	Radiación solar	807
21401	7	Sololá	701	Sololá	3	Barraneche	4	Abril	2023-04-22T00:00:00	2024-11-06T11:00:00	2	Temperatura media	21.8
21402	7	Sololá	701	Sololá	3	Barraneche	4	Abril	2023-04-22T00:00:00	2024-11-06T11:00:00	4	Temperatura máxima	21.8
21403	7	Sololá	701	Sololá	3	Barraneche	4	Abril	2023-04-22T00:00:00	2024-11-06T11:00:00	3	Temperatura mínima	20.5
21404	7	Sololá	701	Sololá	3	Barraneche	4	Abril	2023-04-22T00:00:00	2024-11-06T11:00:00	5	Humedad	30
21405	7	Sololá	701	Sololá	3	Barraneche	4	Abril	2023-04-22T00:00:00	2024-11-06T11:00:00	6	Velocidad del viento	11.3
21406	7	Sololá	701	Sololá	3	Barraneche	4	Abril	2023-04-22T00:00:00	2024-11-06T11:00:00	7	Dirección del viento	11.27
21407	7	Sololá	701	Sololá	3	Barraneche	4	Abril	2023-04-22T00:00:00	2024-11-06T11:00:00	1	Precipitación	0
21408	7	Sololá	701	Sololá	3	Barraneche	4	Abril	2023-04-22T00:00:00	2024-11-06T11:00:00	8	Radiación solar	948
21409	7	Sololá	701	Sololá	3	Barraneche	4	Abril	2023-04-22T00:00:00	2024-11-06T12:00:00	2	Temperatura media	22.4
21410	7	Sololá	701	Sololá	3	Barraneche	4	Abril	2023-04-22T00:00:00	2024-11-06T12:00:00	4	Temperatura máxima	22.8
21411	7	Sololá	701	Sololá	3	Barraneche	4	Abril	2023-04-22T00:00:00	2024-11-06T12:00:00	3	Temperatura mínima	21.6
21412	7	Sololá	701	Sololá	3	Barraneche	4	Abril	2023-04-22T00:00:00	2024-11-06T12:00:00	5	Humedad	26
21413	7	Sololá	701	Sololá	3	Barraneche	4	Abril	2023-04-22T00:00:00	2024-11-06T12:00:00	6	Velocidad del viento	11.3
21414	7	Sololá	701	Sololá	3	Barraneche	4	Abril	2023-04-22T00:00:00	2024-11-06T12:00:00	7	Dirección del viento	11.27
21415	7	Sololá	701	Sololá	3	Barraneche	4	Abril	2023-04-22T00:00:00	2024-11-06T12:00:00	1	Precipitación	0
21416	7	Sololá	701	Sololá	3	Barraneche	4	Abril	2023-04-22T00:00:00	2024-11-06T12:00:00	8	Radiación solar	1017
21417	7	Sololá	701	Sololá	3	Barraneche	4	Abril	2023-04-22T00:00:00	2024-11-06T13:00:00	2	Temperatura media	22.1
21418	7	Sololá	701	Sololá	3	Barraneche	4	Abril	2023-04-22T00:00:00	2024-11-06T13:00:00	4	Temperatura máxima	23.9
21419	7	Sololá	701	Sololá	3	Barraneche	4	Abril	2023-04-22T00:00:00	2024-11-06T13:00:00	3	Temperatura mínima	22.1
21420	7	Sololá	701	Sololá	3	Barraneche	4	Abril	2023-04-22T00:00:00	2024-11-06T13:00:00	5	Humedad	47
21421	7	Sololá	701	Sololá	3	Barraneche	4	Abril	2023-04-22T00:00:00	2024-11-06T13:00:00	6	Velocidad del viento	12.9
21422	7	Sololá	701	Sololá	3	Barraneche	4	Abril	2023-04-22T00:00:00	2024-11-06T13:00:00	7	Dirección del viento	12.87
21423	7	Sololá	701	Sololá	3	Barraneche	4	Abril	2023-04-22T00:00:00	2024-11-06T13:00:00	1	Precipitación	0
21424	7	Sololá	701	Sololá	3	Barraneche	4	Abril	2023-04-22T00:00:00	2024-11-06T13:00:00	8	Radiación solar	1028
21425	7	Sololá	701	Sololá	3	Barraneche	4	Abril	2023-04-22T00:00:00	2024-11-06T14:00:00	2	Temperatura media	18.6
21426	7	Sololá	701	Sololá	3	Barraneche	4	Abril	2023-04-22T00:00:00	2024-11-06T14:00:00	4	Temperatura máxima	22.1
21427	7	Sololá	701	Sololá	3	Barraneche	4	Abril	2023-04-22T00:00:00	2024-11-06T14:00:00	3	Temperatura mínima	18.6
21428	7	Sololá	701	Sololá	3	Barraneche	4	Abril	2023-04-22T00:00:00	2024-11-06T14:00:00	5	Humedad	61
21429	7	Sololá	701	Sololá	3	Barraneche	4	Abril	2023-04-22T00:00:00	2024-11-06T14:00:00	6	Velocidad del viento	16.1
21430	7	Sololá	701	Sololá	3	Barraneche	4	Abril	2023-04-22T00:00:00	2024-11-06T14:00:00	7	Dirección del viento	16.09
21431	7	Sololá	701	Sololá	3	Barraneche	4	Abril	2023-04-22T00:00:00	2024-11-06T14:00:00	1	Precipitación	0
21432	7	Sololá	701	Sololá	3	Barraneche	4	Abril	2023-04-22T00:00:00	2024-11-06T14:00:00	8	Radiación solar	663
21433	7	Sololá	701	Sololá	3	Barraneche	4	Abril	2023-04-22T00:00:00	2024-11-06T15:00:00	2	Temperatura media	18.7
21434	7	Sololá	701	Sololá	3	Barraneche	4	Abril	2023-04-22T00:00:00	2024-11-06T15:00:00	4	Temperatura máxima	19.2
21435	7	Sololá	701	Sololá	3	Barraneche	4	Abril	2023-04-22T00:00:00	2024-11-06T15:00:00	3	Temperatura mínima	18.6
21436	7	Sololá	701	Sololá	3	Barraneche	4	Abril	2023-04-22T00:00:00	2024-11-06T15:00:00	5	Humedad	63
21437	7	Sololá	701	Sololá	3	Barraneche	4	Abril	2023-04-22T00:00:00	2024-11-06T15:00:00	6	Velocidad del viento	11.3
21438	7	Sololá	701	Sololá	3	Barraneche	4	Abril	2023-04-22T00:00:00	2024-11-06T15:00:00	7	Dirección del viento	11.27
21439	7	Sololá	701	Sololá	3	Barraneche	4	Abril	2023-04-22T00:00:00	2024-11-06T15:00:00	1	Precipitación	0
21440	7	Sololá	701	Sololá	3	Barraneche	4	Abril	2023-04-22T00:00:00	2024-11-06T15:00:00	8	Radiación solar	462
21441	7	Sololá	701	Sololá	3	Barraneche	4	Abril	2023-04-22T00:00:00	2024-11-06T16:00:00	2	Temperatura media	17.6
21442	7	Sololá	701	Sololá	3	Barraneche	4	Abril	2023-04-22T00:00:00	2024-11-06T16:00:00	4	Temperatura máxima	18.7
21443	7	Sololá	701	Sololá	3	Barraneche	4	Abril	2023-04-22T00:00:00	2024-11-06T16:00:00	3	Temperatura mínima	17.6
21444	7	Sololá	701	Sololá	3	Barraneche	4	Abril	2023-04-22T00:00:00	2024-11-06T16:00:00	5	Humedad	68
21445	7	Sololá	701	Sololá	3	Barraneche	4	Abril	2023-04-22T00:00:00	2024-11-06T16:00:00	6	Velocidad del viento	11.3
21446	7	Sololá	701	Sololá	3	Barraneche	4	Abril	2023-04-22T00:00:00	2024-11-06T16:00:00	7	Dirección del viento	11.27
21447	7	Sololá	701	Sololá	3	Barraneche	4	Abril	2023-04-22T00:00:00	2024-11-06T16:00:00	1	Precipitación	0
21448	7	Sololá	701	Sololá	3	Barraneche	4	Abril	2023-04-22T00:00:00	2024-11-06T16:00:00	8	Radiación solar	177
21449	7	Sololá	701	Sololá	3	Barraneche	4	Abril	2023-04-22T00:00:00	2024-11-06T17:00:00	2	Temperatura media	17
21450	7	Sololá	701	Sololá	3	Barraneche	4	Abril	2023-04-22T00:00:00	2024-11-06T17:00:00	4	Temperatura máxima	17.6
21451	7	Sololá	701	Sololá	3	Barraneche	4	Abril	2023-04-22T00:00:00	2024-11-06T17:00:00	3	Temperatura mínima	16.9
21452	7	Sololá	701	Sololá	3	Barraneche	4	Abril	2023-04-22T00:00:00	2024-11-06T17:00:00	5	Humedad	70
21453	7	Sololá	701	Sololá	3	Barraneche	4	Abril	2023-04-22T00:00:00	2024-11-06T17:00:00	6	Velocidad del viento	6.4
21454	7	Sololá	701	Sololá	3	Barraneche	4	Abril	2023-04-22T00:00:00	2024-11-06T17:00:00	7	Dirección del viento	6.44
21455	7	Sololá	701	Sololá	3	Barraneche	4	Abril	2023-04-22T00:00:00	2024-11-06T17:00:00	1	Precipitación	0
21456	7	Sololá	701	Sololá	3	Barraneche	4	Abril	2023-04-22T00:00:00	2024-11-06T17:00:00	8	Radiación solar	89
21457	7	Sololá	701	Sololá	3	Barraneche	4	Abril	2023-04-22T00:00:00	2024-11-06T18:00:00	2	Temperatura media	16.7
21458	7	Sololá	701	Sololá	3	Barraneche	4	Abril	2023-04-22T00:00:00	2024-11-06T18:00:00	4	Temperatura máxima	17.1
21459	7	Sololá	701	Sololá	3	Barraneche	4	Abril	2023-04-22T00:00:00	2024-11-06T18:00:00	3	Temperatura mínima	16.7
21460	7	Sololá	701	Sololá	3	Barraneche	4	Abril	2023-04-22T00:00:00	2024-11-06T18:00:00	5	Humedad	71
21461	7	Sololá	701	Sololá	3	Barraneche	4	Abril	2023-04-22T00:00:00	2024-11-06T18:00:00	6	Velocidad del viento	3.2
21462	7	Sololá	701	Sololá	3	Barraneche	4	Abril	2023-04-22T00:00:00	2024-11-06T18:00:00	7	Dirección del viento	3.22
21463	7	Sololá	701	Sololá	3	Barraneche	4	Abril	2023-04-22T00:00:00	2024-11-06T18:00:00	1	Precipitación	0
21464	7	Sololá	701	Sololá	3	Barraneche	4	Abril	2023-04-22T00:00:00	2024-11-06T18:00:00	8	Radiación solar	57
21465	7	Sololá	701	Sololá	3	Barraneche	4	Abril	2023-04-22T00:00:00	2024-11-06T19:00:00	2	Temperatura media	17.8
21466	7	Sololá	701	Sololá	3	Barraneche	4	Abril	2023-04-22T00:00:00	2024-11-06T19:00:00	4	Temperatura máxima	17.9
21467	7	Sololá	701	Sololá	3	Barraneche	4	Abril	2023-04-22T00:00:00	2024-11-06T19:00:00	3	Temperatura mínima	16.6
21468	7	Sololá	701	Sololá	3	Barraneche	4	Abril	2023-04-22T00:00:00	2024-11-06T19:00:00	5	Humedad	54
21469	7	Sololá	701	Sololá	3	Barraneche	4	Abril	2023-04-22T00:00:00	2024-11-06T19:00:00	6	Velocidad del viento	4.8
21470	7	Sololá	701	Sololá	3	Barraneche	4	Abril	2023-04-22T00:00:00	2024-11-06T19:00:00	7	Dirección del viento	4.83
21471	7	Sololá	701	Sololá	3	Barraneche	4	Abril	2023-04-22T00:00:00	2024-11-06T19:00:00	1	Precipitación	0
21472	7	Sololá	701	Sololá	3	Barraneche	4	Abril	2023-04-22T00:00:00	2024-11-06T19:00:00	8	Radiación solar	0
21473	7	Sololá	701	Sololá	3	Barraneche	4	Abril	2023-04-22T00:00:00	2024-11-06T20:00:00	2	Temperatura media	15.4
21474	7	Sololá	701	Sololá	3	Barraneche	4	Abril	2023-04-22T00:00:00	2024-11-06T20:00:00	4	Temperatura máxima	17.8
21475	7	Sololá	701	Sololá	3	Barraneche	4	Abril	2023-04-22T00:00:00	2024-11-06T20:00:00	3	Temperatura mínima	15.4
21476	7	Sololá	701	Sololá	3	Barraneche	4	Abril	2023-04-22T00:00:00	2024-11-06T20:00:00	5	Humedad	61
21477	7	Sololá	701	Sololá	3	Barraneche	4	Abril	2023-04-22T00:00:00	2024-11-06T20:00:00	6	Velocidad del viento	4.8
21478	7	Sololá	701	Sololá	3	Barraneche	4	Abril	2023-04-22T00:00:00	2024-11-06T20:00:00	7	Dirección del viento	4.83
21479	7	Sololá	701	Sololá	3	Barraneche	4	Abril	2023-04-22T00:00:00	2024-11-06T20:00:00	1	Precipitación	0
21480	7	Sololá	701	Sololá	3	Barraneche	4	Abril	2023-04-22T00:00:00	2024-11-06T20:00:00	8	Radiación solar	0
21481	7	Sololá	701	Sololá	3	Barraneche	4	Abril	2023-04-22T00:00:00	2024-11-06T21:00:00	2	Temperatura media	14.1
21482	7	Sololá	701	Sololá	3	Barraneche	4	Abril	2023-04-22T00:00:00	2024-11-06T21:00:00	4	Temperatura máxima	15.4
21483	7	Sololá	701	Sololá	3	Barraneche	4	Abril	2023-04-22T00:00:00	2024-11-06T21:00:00	3	Temperatura mínima	13.9
21484	7	Sololá	701	Sololá	3	Barraneche	4	Abril	2023-04-22T00:00:00	2024-11-06T21:00:00	5	Humedad	65
21485	7	Sololá	701	Sololá	3	Barraneche	4	Abril	2023-04-22T00:00:00	2024-11-06T21:00:00	6	Velocidad del viento	4.8
21486	7	Sololá	701	Sololá	3	Barraneche	4	Abril	2023-04-22T00:00:00	2024-11-06T21:00:00	7	Dirección del viento	4.83
21487	7	Sololá	701	Sololá	3	Barraneche	4	Abril	2023-04-22T00:00:00	2024-11-06T21:00:00	1	Precipitación	0
21488	7	Sololá	701	Sololá	3	Barraneche	4	Abril	2023-04-22T00:00:00	2024-11-06T21:00:00	8	Radiación solar	0
21489	7	Sololá	701	Sololá	3	Barraneche	4	Abril	2023-04-22T00:00:00	2024-11-06T22:00:00	2	Temperatura media	14.4
21490	7	Sololá	701	Sololá	3	Barraneche	4	Abril	2023-04-22T00:00:00	2024-11-06T22:00:00	4	Temperatura máxima	14.4
21491	7	Sololá	701	Sololá	3	Barraneche	4	Abril	2023-04-22T00:00:00	2024-11-06T22:00:00	3	Temperatura mínima	13.9
21492	7	Sololá	701	Sololá	3	Barraneche	4	Abril	2023-04-22T00:00:00	2024-11-06T22:00:00	5	Humedad	67
21493	7	Sololá	701	Sololá	3	Barraneche	4	Abril	2023-04-22T00:00:00	2024-11-06T22:00:00	6	Velocidad del viento	6.4
21494	7	Sololá	701	Sololá	3	Barraneche	4	Abril	2023-04-22T00:00:00	2024-11-06T22:00:00	7	Dirección del viento	6.44
21495	7	Sololá	701	Sololá	3	Barraneche	4	Abril	2023-04-22T00:00:00	2024-11-06T22:00:00	1	Precipitación	0
21496	7	Sololá	701	Sololá	3	Barraneche	4	Abril	2023-04-22T00:00:00	2024-11-06T22:00:00	8	Radiación solar	0
21497	7	Sololá	701	Sololá	3	Barraneche	4	Abril	2023-04-22T00:00:00	2024-11-06T23:00:00	2	Temperatura media	12.9
21498	7	Sololá	701	Sololá	3	Barraneche	4	Abril	2023-04-22T00:00:00	2024-11-06T23:00:00	4	Temperatura máxima	14.6
21499	7	Sololá	701	Sololá	3	Barraneche	4	Abril	2023-04-22T00:00:00	2024-11-06T23:00:00	3	Temperatura mínima	12.9
21500	7	Sololá	701	Sololá	3	Barraneche	4	Abril	2023-04-22T00:00:00	2024-11-06T23:00:00	5	Humedad	68
21501	7	Sololá	701	Sololá	3	Barraneche	4	Abril	2023-04-22T00:00:00	2024-11-06T23:00:00	6	Velocidad del viento	3.2
21502	7	Sololá	701	Sololá	3	Barraneche	4	Abril	2023-04-22T00:00:00	2024-11-06T23:00:00	7	Dirección del viento	3.22
21503	7	Sololá	701	Sololá	3	Barraneche	4	Abril	2023-04-22T00:00:00	2024-11-06T23:00:00	1	Precipitación	0
21504	7	Sololá	701	Sololá	3	Barraneche	4	Abril	2023-04-22T00:00:00	2024-11-06T23:00:00	8	Radiación solar	0
21505	7	Sololá	701	Sololá	3	Barraneche	4	Abril	2023-04-23T00:00:00	2024-11-06T00:00:00	2	Temperatura media	12.8
21506	7	Sololá	701	Sololá	3	Barraneche	4	Abril	2023-04-23T00:00:00	2024-11-06T00:00:00	4	Temperatura máxima	13.3
21507	7	Sololá	701	Sololá	3	Barraneche	4	Abril	2023-04-23T00:00:00	2024-11-06T00:00:00	3	Temperatura mínima	12.8
21508	7	Sololá	701	Sololá	3	Barraneche	4	Abril	2023-04-23T00:00:00	2024-11-06T00:00:00	5	Humedad	69
21509	7	Sololá	701	Sololá	3	Barraneche	4	Abril	2023-04-23T00:00:00	2024-11-06T00:00:00	6	Velocidad del viento	6.4
21510	7	Sololá	701	Sololá	3	Barraneche	4	Abril	2023-04-23T00:00:00	2024-11-06T00:00:00	7	Dirección del viento	6.44
21511	7	Sololá	701	Sololá	3	Barraneche	4	Abril	2023-04-23T00:00:00	2024-11-06T00:00:00	1	Precipitación	0
21512	7	Sololá	701	Sololá	3	Barraneche	4	Abril	2023-04-23T00:00:00	2024-11-06T00:00:00	8	Radiación solar	0
21513	7	Sololá	701	Sololá	3	Barraneche	4	Abril	2023-04-23T00:00:00	2024-11-06T01:00:00	2	Temperatura media	11.8
21514	7	Sololá	701	Sololá	3	Barraneche	4	Abril	2023-04-23T00:00:00	2024-11-06T01:00:00	4	Temperatura máxima	12.7
21515	7	Sololá	701	Sololá	3	Barraneche	4	Abril	2023-04-23T00:00:00	2024-11-06T01:00:00	3	Temperatura mínima	11.8
21516	7	Sololá	701	Sololá	3	Barraneche	4	Abril	2023-04-23T00:00:00	2024-11-06T01:00:00	5	Humedad	69
21517	7	Sololá	701	Sololá	3	Barraneche	4	Abril	2023-04-23T00:00:00	2024-11-06T01:00:00	6	Velocidad del viento	3.2
21518	7	Sololá	701	Sololá	3	Barraneche	4	Abril	2023-04-23T00:00:00	2024-11-06T01:00:00	7	Dirección del viento	3.22
21519	7	Sololá	701	Sololá	3	Barraneche	4	Abril	2023-04-23T00:00:00	2024-11-06T01:00:00	1	Precipitación	0
21520	7	Sololá	701	Sololá	3	Barraneche	4	Abril	2023-04-23T00:00:00	2024-11-06T01:00:00	8	Radiación solar	0
21521	7	Sololá	701	Sololá	3	Barraneche	4	Abril	2023-04-23T00:00:00	2024-11-06T02:00:00	2	Temperatura media	11.3
21522	7	Sololá	701	Sololá	3	Barraneche	4	Abril	2023-04-23T00:00:00	2024-11-06T02:00:00	4	Temperatura máxima	12.1
21523	7	Sololá	701	Sololá	3	Barraneche	4	Abril	2023-04-23T00:00:00	2024-11-06T02:00:00	3	Temperatura mínima	11.3
21524	7	Sololá	701	Sololá	3	Barraneche	4	Abril	2023-04-23T00:00:00	2024-11-06T02:00:00	5	Humedad	70
21525	7	Sololá	701	Sololá	3	Barraneche	4	Abril	2023-04-23T00:00:00	2024-11-06T02:00:00	6	Velocidad del viento	6.4
21526	7	Sololá	701	Sololá	3	Barraneche	4	Abril	2023-04-23T00:00:00	2024-11-06T02:00:00	7	Dirección del viento	6.44
21527	7	Sololá	701	Sololá	3	Barraneche	4	Abril	2023-04-23T00:00:00	2024-11-06T02:00:00	1	Precipitación	0
21528	7	Sololá	701	Sololá	3	Barraneche	4	Abril	2023-04-23T00:00:00	2024-11-06T02:00:00	8	Radiación solar	0
21529	7	Sololá	701	Sololá	3	Barraneche	4	Abril	2023-04-23T00:00:00	2024-11-06T03:00:00	2	Temperatura media	11.7
21530	7	Sololá	701	Sololá	3	Barraneche	4	Abril	2023-04-23T00:00:00	2024-11-06T03:00:00	4	Temperatura máxima	11.7
21531	7	Sololá	701	Sololá	3	Barraneche	4	Abril	2023-04-23T00:00:00	2024-11-06T03:00:00	3	Temperatura mínima	11.1
21532	7	Sololá	701	Sololá	3	Barraneche	4	Abril	2023-04-23T00:00:00	2024-11-06T03:00:00	5	Humedad	59
21533	7	Sololá	701	Sololá	3	Barraneche	4	Abril	2023-04-23T00:00:00	2024-11-06T03:00:00	6	Velocidad del viento	4.8
21534	7	Sololá	701	Sololá	3	Barraneche	4	Abril	2023-04-23T00:00:00	2024-11-06T03:00:00	7	Dirección del viento	4.83
21535	7	Sololá	701	Sololá	3	Barraneche	4	Abril	2023-04-23T00:00:00	2024-11-06T03:00:00	1	Precipitación	0
21536	7	Sololá	701	Sololá	3	Barraneche	4	Abril	2023-04-23T00:00:00	2024-11-06T03:00:00	8	Radiación solar	0
21537	7	Sololá	701	Sololá	3	Barraneche	4	Abril	2023-04-23T00:00:00	2024-11-06T04:00:00	2	Temperatura media	10.6
21538	7	Sololá	701	Sololá	3	Barraneche	4	Abril	2023-04-23T00:00:00	2024-11-06T04:00:00	4	Temperatura máxima	11.7
21539	7	Sololá	701	Sololá	3	Barraneche	4	Abril	2023-04-23T00:00:00	2024-11-06T04:00:00	3	Temperatura mínima	10.4
21540	7	Sololá	701	Sololá	3	Barraneche	4	Abril	2023-04-23T00:00:00	2024-11-06T04:00:00	5	Humedad	62
21541	7	Sololá	701	Sololá	3	Barraneche	4	Abril	2023-04-23T00:00:00	2024-11-06T04:00:00	6	Velocidad del viento	6.4
21542	7	Sololá	701	Sololá	3	Barraneche	4	Abril	2023-04-23T00:00:00	2024-11-06T04:00:00	7	Dirección del viento	6.44
21543	7	Sololá	701	Sololá	3	Barraneche	4	Abril	2023-04-23T00:00:00	2024-11-06T04:00:00	1	Precipitación	0
21544	7	Sololá	701	Sololá	3	Barraneche	4	Abril	2023-04-23T00:00:00	2024-11-06T04:00:00	8	Radiación solar	0
21545	7	Sololá	701	Sololá	3	Barraneche	4	Abril	2023-04-23T00:00:00	2024-11-06T05:00:00	2	Temperatura media	11.5
21546	7	Sololá	701	Sololá	3	Barraneche	4	Abril	2023-04-23T00:00:00	2024-11-06T05:00:00	4	Temperatura máxima	12.1
21547	7	Sololá	701	Sololá	3	Barraneche	4	Abril	2023-04-23T00:00:00	2024-11-06T05:00:00	3	Temperatura mínima	10.4
21548	7	Sololá	701	Sololá	3	Barraneche	4	Abril	2023-04-23T00:00:00	2024-11-06T05:00:00	5	Humedad	60
21549	7	Sololá	701	Sololá	3	Barraneche	4	Abril	2023-04-23T00:00:00	2024-11-06T05:00:00	6	Velocidad del viento	8
21550	7	Sololá	701	Sololá	3	Barraneche	4	Abril	2023-04-23T00:00:00	2024-11-06T05:00:00	7	Dirección del viento	8.05
21551	7	Sololá	701	Sololá	3	Barraneche	4	Abril	2023-04-23T00:00:00	2024-11-06T05:00:00	1	Precipitación	0
21552	7	Sololá	701	Sololá	3	Barraneche	4	Abril	2023-04-23T00:00:00	2024-11-06T05:00:00	8	Radiación solar	0
21553	7	Sololá	701	Sololá	3	Barraneche	4	Abril	2023-04-23T00:00:00	2024-11-06T06:00:00	2	Temperatura media	11.4
21554	7	Sololá	701	Sololá	3	Barraneche	4	Abril	2023-04-23T00:00:00	2024-11-06T06:00:00	4	Temperatura máxima	11.7
21555	7	Sololá	701	Sololá	3	Barraneche	4	Abril	2023-04-23T00:00:00	2024-11-06T06:00:00	3	Temperatura mínima	10.6
21556	7	Sololá	701	Sololá	3	Barraneche	4	Abril	2023-04-23T00:00:00	2024-11-06T06:00:00	5	Humedad	61
21557	7	Sololá	701	Sololá	3	Barraneche	4	Abril	2023-04-23T00:00:00	2024-11-06T06:00:00	6	Velocidad del viento	4.8
21558	7	Sololá	701	Sololá	3	Barraneche	4	Abril	2023-04-23T00:00:00	2024-11-06T06:00:00	7	Dirección del viento	4.83
21559	7	Sololá	701	Sololá	3	Barraneche	4	Abril	2023-04-23T00:00:00	2024-11-06T06:00:00	1	Precipitación	0
21560	7	Sololá	701	Sololá	3	Barraneche	4	Abril	2023-04-23T00:00:00	2024-11-06T06:00:00	8	Radiación solar	3
21561	7	Sololá	701	Sololá	3	Barraneche	4	Abril	2023-04-23T00:00:00	2024-11-06T07:00:00	2	Temperatura media	13.3
21562	7	Sololá	701	Sololá	3	Barraneche	4	Abril	2023-04-23T00:00:00	2024-11-06T07:00:00	4	Temperatura máxima	13.3
21563	7	Sololá	701	Sololá	3	Barraneche	4	Abril	2023-04-23T00:00:00	2024-11-06T07:00:00	3	Temperatura mínima	11
21564	7	Sololá	701	Sololá	3	Barraneche	4	Abril	2023-04-23T00:00:00	2024-11-06T07:00:00	5	Humedad	60
21565	7	Sololá	701	Sololá	3	Barraneche	4	Abril	2023-04-23T00:00:00	2024-11-06T07:00:00	6	Velocidad del viento	3.2
21566	7	Sololá	701	Sololá	3	Barraneche	4	Abril	2023-04-23T00:00:00	2024-11-06T07:00:00	7	Dirección del viento	3.22
21567	7	Sololá	701	Sololá	3	Barraneche	4	Abril	2023-04-23T00:00:00	2024-11-06T07:00:00	1	Precipitación	0
21568	7	Sololá	701	Sololá	3	Barraneche	4	Abril	2023-04-23T00:00:00	2024-11-06T07:00:00	8	Radiación solar	97
21569	7	Sololá	701	Sololá	3	Barraneche	4	Abril	2023-04-23T00:00:00	2024-11-06T08:00:00	2	Temperatura media	16.6
21570	7	Sololá	701	Sololá	3	Barraneche	4	Abril	2023-04-23T00:00:00	2024-11-06T08:00:00	4	Temperatura máxima	16.7
21571	7	Sololá	701	Sololá	3	Barraneche	4	Abril	2023-04-23T00:00:00	2024-11-06T08:00:00	3	Temperatura mínima	13.3
21572	7	Sololá	701	Sololá	3	Barraneche	4	Abril	2023-04-23T00:00:00	2024-11-06T08:00:00	5	Humedad	52
21573	7	Sololá	701	Sololá	3	Barraneche	4	Abril	2023-04-23T00:00:00	2024-11-06T08:00:00	6	Velocidad del viento	1.6
21574	7	Sololá	701	Sololá	3	Barraneche	4	Abril	2023-04-23T00:00:00	2024-11-06T08:00:00	7	Dirección del viento	1.61
21575	7	Sololá	701	Sololá	3	Barraneche	4	Abril	2023-04-23T00:00:00	2024-11-06T08:00:00	1	Precipitación	0
21576	7	Sololá	701	Sololá	3	Barraneche	4	Abril	2023-04-23T00:00:00	2024-11-06T08:00:00	8	Radiación solar	335
21577	7	Sololá	701	Sololá	3	Barraneche	4	Abril	2023-04-23T00:00:00	2024-11-06T09:00:00	2	Temperatura media	17.6
21578	7	Sololá	701	Sololá	3	Barraneche	4	Abril	2023-04-23T00:00:00	2024-11-06T09:00:00	4	Temperatura máxima	17.6
21579	7	Sololá	701	Sololá	3	Barraneche	4	Abril	2023-04-23T00:00:00	2024-11-06T09:00:00	3	Temperatura mínima	16.6
21580	7	Sololá	701	Sololá	3	Barraneche	4	Abril	2023-04-23T00:00:00	2024-11-06T09:00:00	5	Humedad	51
21581	7	Sololá	701	Sololá	3	Barraneche	4	Abril	2023-04-23T00:00:00	2024-11-06T09:00:00	6	Velocidad del viento	4.8
21582	7	Sololá	701	Sololá	3	Barraneche	4	Abril	2023-04-23T00:00:00	2024-11-06T09:00:00	7	Dirección del viento	4.83
21583	7	Sololá	701	Sololá	3	Barraneche	4	Abril	2023-04-23T00:00:00	2024-11-06T09:00:00	1	Precipitación	0
21584	7	Sololá	701	Sololá	3	Barraneche	4	Abril	2023-04-23T00:00:00	2024-11-06T09:00:00	8	Radiación solar	552
21585	7	Sololá	701	Sololá	3	Barraneche	4	Abril	2023-04-23T00:00:00	2024-11-06T10:00:00	2	Temperatura media	18.1
21586	7	Sololá	701	Sololá	3	Barraneche	4	Abril	2023-04-23T00:00:00	2024-11-06T10:00:00	4	Temperatura máxima	18.2
21587	7	Sololá	701	Sololá	3	Barraneche	4	Abril	2023-04-23T00:00:00	2024-11-06T10:00:00	3	Temperatura mínima	17.6
21588	7	Sololá	701	Sololá	3	Barraneche	4	Abril	2023-04-23T00:00:00	2024-11-06T10:00:00	5	Humedad	52
21589	7	Sololá	701	Sololá	3	Barraneche	4	Abril	2023-04-23T00:00:00	2024-11-06T10:00:00	6	Velocidad del viento	9.7
21590	7	Sololá	701	Sololá	3	Barraneche	4	Abril	2023-04-23T00:00:00	2024-11-06T10:00:00	7	Dirección del viento	9.66
21591	7	Sololá	701	Sololá	3	Barraneche	4	Abril	2023-04-23T00:00:00	2024-11-06T10:00:00	1	Precipitación	0
21592	7	Sololá	701	Sololá	3	Barraneche	4	Abril	2023-04-23T00:00:00	2024-11-06T10:00:00	8	Radiación solar	601
21593	7	Sololá	701	Sololá	3	Barraneche	4	Abril	2023-04-23T00:00:00	2024-11-06T11:00:00	2	Temperatura media	19.1
21594	7	Sololá	701	Sololá	3	Barraneche	4	Abril	2023-04-23T00:00:00	2024-11-06T11:00:00	4	Temperatura máxima	19.1
21595	7	Sololá	701	Sololá	3	Barraneche	4	Abril	2023-04-23T00:00:00	2024-11-06T11:00:00	3	Temperatura mínima	18
21596	7	Sololá	701	Sololá	3	Barraneche	4	Abril	2023-04-23T00:00:00	2024-11-06T11:00:00	5	Humedad	48
21597	7	Sololá	701	Sololá	3	Barraneche	4	Abril	2023-04-23T00:00:00	2024-11-06T11:00:00	6	Velocidad del viento	11.3
21598	7	Sololá	701	Sololá	3	Barraneche	4	Abril	2023-04-23T00:00:00	2024-11-06T11:00:00	7	Dirección del viento	11.27
21599	7	Sololá	701	Sololá	3	Barraneche	4	Abril	2023-04-23T00:00:00	2024-11-06T11:00:00	1	Precipitación	0
21600	7	Sololá	701	Sololá	3	Barraneche	4	Abril	2023-04-23T00:00:00	2024-11-06T11:00:00	8	Radiación solar	508
21601	7	Sololá	701	Sololá	3	Barraneche	4	Abril	2023-04-23T00:00:00	2024-11-06T12:00:00	2	Temperatura media	19.2
21602	7	Sololá	701	Sololá	3	Barraneche	4	Abril	2023-04-23T00:00:00	2024-11-06T12:00:00	4	Temperatura máxima	19.7
21603	7	Sololá	701	Sololá	3	Barraneche	4	Abril	2023-04-23T00:00:00	2024-11-06T12:00:00	3	Temperatura mínima	19.1
21604	7	Sololá	701	Sololá	3	Barraneche	4	Abril	2023-04-23T00:00:00	2024-11-06T12:00:00	5	Humedad	51
21605	7	Sololá	701	Sololá	3	Barraneche	4	Abril	2023-04-23T00:00:00	2024-11-06T12:00:00	6	Velocidad del viento	12.9
21606	7	Sololá	701	Sololá	3	Barraneche	4	Abril	2023-04-23T00:00:00	2024-11-06T12:00:00	7	Dirección del viento	12.87
21607	7	Sololá	701	Sololá	3	Barraneche	4	Abril	2023-04-23T00:00:00	2024-11-06T12:00:00	1	Precipitación	0
21608	7	Sololá	701	Sololá	3	Barraneche	4	Abril	2023-04-23T00:00:00	2024-11-06T12:00:00	8	Radiación solar	634
21609	7	Sololá	701	Sololá	3	Barraneche	4	Abril	2023-04-23T00:00:00	2024-11-06T13:00:00	2	Temperatura media	19.2
21610	7	Sololá	701	Sololá	3	Barraneche	4	Abril	2023-04-23T00:00:00	2024-11-06T13:00:00	4	Temperatura máxima	19.6
21611	7	Sololá	701	Sololá	3	Barraneche	4	Abril	2023-04-23T00:00:00	2024-11-06T13:00:00	3	Temperatura mínima	18.8
21612	7	Sololá	701	Sololá	3	Barraneche	4	Abril	2023-04-23T00:00:00	2024-11-06T13:00:00	5	Humedad	59
21613	7	Sololá	701	Sololá	3	Barraneche	4	Abril	2023-04-23T00:00:00	2024-11-06T13:00:00	6	Velocidad del viento	12.9
21614	7	Sololá	701	Sololá	3	Barraneche	4	Abril	2023-04-23T00:00:00	2024-11-06T13:00:00	7	Dirección del viento	12.87
21615	7	Sololá	701	Sololá	3	Barraneche	4	Abril	2023-04-23T00:00:00	2024-11-06T13:00:00	1	Precipitación	0
21616	7	Sololá	701	Sololá	3	Barraneche	4	Abril	2023-04-23T00:00:00	2024-11-06T13:00:00	8	Radiación solar	720
21617	7	Sololá	701	Sololá	3	Barraneche	4	Abril	2023-04-23T00:00:00	2024-11-06T14:00:00	2	Temperatura media	16.8
21618	7	Sololá	701	Sololá	3	Barraneche	4	Abril	2023-04-23T00:00:00	2024-11-06T14:00:00	4	Temperatura máxima	19.2
21619	7	Sololá	701	Sololá	3	Barraneche	4	Abril	2023-04-23T00:00:00	2024-11-06T14:00:00	3	Temperatura mínima	16.8
21620	7	Sololá	701	Sololá	3	Barraneche	4	Abril	2023-04-23T00:00:00	2024-11-06T14:00:00	5	Humedad	68
21621	7	Sololá	701	Sololá	3	Barraneche	4	Abril	2023-04-23T00:00:00	2024-11-06T14:00:00	6	Velocidad del viento	12.9
21622	7	Sololá	701	Sololá	3	Barraneche	4	Abril	2023-04-23T00:00:00	2024-11-06T14:00:00	7	Dirección del viento	12.87
21623	7	Sololá	701	Sololá	3	Barraneche	4	Abril	2023-04-23T00:00:00	2024-11-06T14:00:00	1	Precipitación	0
21624	7	Sololá	701	Sololá	3	Barraneche	4	Abril	2023-04-23T00:00:00	2024-11-06T14:00:00	8	Radiación solar	224
21625	7	Sololá	701	Sololá	3	Barraneche	4	Abril	2023-04-23T00:00:00	2024-11-06T15:00:00	2	Temperatura media	16.4
21626	7	Sololá	701	Sololá	3	Barraneche	4	Abril	2023-04-23T00:00:00	2024-11-06T15:00:00	4	Temperatura máxima	17.1
21627	7	Sololá	701	Sololá	3	Barraneche	4	Abril	2023-04-23T00:00:00	2024-11-06T15:00:00	3	Temperatura mínima	16.4
21628	7	Sololá	701	Sololá	3	Barraneche	4	Abril	2023-04-23T00:00:00	2024-11-06T15:00:00	5	Humedad	70
21629	7	Sololá	701	Sololá	3	Barraneche	4	Abril	2023-04-23T00:00:00	2024-11-06T15:00:00	6	Velocidad del viento	9.7
21630	7	Sololá	701	Sololá	3	Barraneche	4	Abril	2023-04-23T00:00:00	2024-11-06T15:00:00	7	Dirección del viento	9.66
21631	7	Sololá	701	Sololá	3	Barraneche	4	Abril	2023-04-23T00:00:00	2024-11-06T15:00:00	1	Precipitación	0
21632	7	Sololá	701	Sololá	3	Barraneche	4	Abril	2023-04-23T00:00:00	2024-11-06T15:00:00	8	Radiación solar	166
21633	7	Sololá	701	Sololá	3	Barraneche	4	Abril	2023-04-23T00:00:00	2024-11-06T16:00:00	2	Temperatura media	16.5
21634	7	Sololá	701	Sololá	3	Barraneche	4	Abril	2023-04-23T00:00:00	2024-11-06T16:00:00	4	Temperatura máxima	16.6
21635	7	Sololá	701	Sololá	3	Barraneche	4	Abril	2023-04-23T00:00:00	2024-11-06T16:00:00	3	Temperatura mínima	16.3
21636	7	Sololá	701	Sololá	3	Barraneche	4	Abril	2023-04-23T00:00:00	2024-11-06T16:00:00	5	Humedad	69
21637	7	Sololá	701	Sololá	3	Barraneche	4	Abril	2023-04-23T00:00:00	2024-11-06T16:00:00	6	Velocidad del viento	9.7
21638	7	Sololá	701	Sololá	3	Barraneche	4	Abril	2023-04-23T00:00:00	2024-11-06T16:00:00	7	Dirección del viento	9.66
21639	7	Sololá	701	Sololá	3	Barraneche	4	Abril	2023-04-23T00:00:00	2024-11-06T16:00:00	1	Precipitación	0
21640	7	Sololá	701	Sololá	3	Barraneche	4	Abril	2023-04-23T00:00:00	2024-11-06T16:00:00	8	Radiación solar	144
21641	7	Sololá	701	Sololá	3	Barraneche	4	Abril	2023-04-23T00:00:00	2024-11-06T17:00:00	2	Temperatura media	15.3
21642	7	Sololá	701	Sololá	3	Barraneche	4	Abril	2023-04-23T00:00:00	2024-11-06T17:00:00	4	Temperatura máxima	16.5
21643	7	Sololá	701	Sololá	3	Barraneche	4	Abril	2023-04-23T00:00:00	2024-11-06T17:00:00	3	Temperatura mínima	15.3
21644	7	Sololá	701	Sololá	3	Barraneche	4	Abril	2023-04-23T00:00:00	2024-11-06T17:00:00	5	Humedad	72
21645	7	Sololá	701	Sololá	3	Barraneche	4	Abril	2023-04-23T00:00:00	2024-11-06T17:00:00	6	Velocidad del viento	8
21646	7	Sololá	701	Sololá	3	Barraneche	4	Abril	2023-04-23T00:00:00	2024-11-06T17:00:00	7	Dirección del viento	8.05
21647	7	Sololá	701	Sololá	3	Barraneche	4	Abril	2023-04-23T00:00:00	2024-11-06T17:00:00	1	Precipitación	0
21648	7	Sololá	701	Sololá	3	Barraneche	4	Abril	2023-04-23T00:00:00	2024-11-06T17:00:00	8	Radiación solar	52
21649	7	Sololá	701	Sololá	3	Barraneche	4	Abril	2023-04-23T00:00:00	2024-11-06T18:00:00	2	Temperatura media	15
21650	7	Sololá	701	Sololá	3	Barraneche	4	Abril	2023-04-23T00:00:00	2024-11-06T18:00:00	4	Temperatura máxima	15.3
21651	7	Sololá	701	Sololá	3	Barraneche	4	Abril	2023-04-23T00:00:00	2024-11-06T18:00:00	3	Temperatura mínima	14.9
21652	7	Sololá	701	Sololá	3	Barraneche	4	Abril	2023-04-23T00:00:00	2024-11-06T18:00:00	5	Humedad	73
21653	7	Sololá	701	Sololá	3	Barraneche	4	Abril	2023-04-23T00:00:00	2024-11-06T18:00:00	6	Velocidad del viento	3.2
21654	7	Sololá	701	Sololá	3	Barraneche	4	Abril	2023-04-23T00:00:00	2024-11-06T18:00:00	7	Dirección del viento	3.22
21655	7	Sololá	701	Sololá	3	Barraneche	4	Abril	2023-04-23T00:00:00	2024-11-06T18:00:00	1	Precipitación	0
21656	7	Sololá	701	Sololá	3	Barraneche	4	Abril	2023-04-23T00:00:00	2024-11-06T18:00:00	8	Radiación solar	7
21657	7	Sololá	701	Sololá	3	Barraneche	4	Abril	2023-04-23T00:00:00	2024-11-06T19:00:00	2	Temperatura media	15.1
21658	7	Sololá	701	Sololá	3	Barraneche	4	Abril	2023-04-23T00:00:00	2024-11-06T19:00:00	4	Temperatura máxima	15.4
21659	7	Sololá	701	Sololá	3	Barraneche	4	Abril	2023-04-23T00:00:00	2024-11-06T19:00:00	3	Temperatura mínima	14.9
21660	7	Sololá	701	Sololá	3	Barraneche	4	Abril	2023-04-23T00:00:00	2024-11-06T19:00:00	5	Humedad	72
21661	7	Sololá	701	Sololá	3	Barraneche	4	Abril	2023-04-23T00:00:00	2024-11-06T19:00:00	6	Velocidad del viento	1.6
21662	7	Sololá	701	Sololá	3	Barraneche	4	Abril	2023-04-23T00:00:00	2024-11-06T19:00:00	7	Dirección del viento	1.61
21663	7	Sololá	701	Sololá	3	Barraneche	4	Abril	2023-04-23T00:00:00	2024-11-06T19:00:00	1	Precipitación	0
21664	7	Sololá	701	Sololá	3	Barraneche	4	Abril	2023-04-23T00:00:00	2024-11-06T19:00:00	8	Radiación solar	0
21665	7	Sololá	701	Sololá	3	Barraneche	4	Abril	2023-04-23T00:00:00	2024-11-06T20:00:00	2	Temperatura media	14.7
21666	7	Sololá	701	Sololá	3	Barraneche	4	Abril	2023-04-23T00:00:00	2024-11-06T20:00:00	4	Temperatura máxima	15.1
21667	7	Sololá	701	Sololá	3	Barraneche	4	Abril	2023-04-23T00:00:00	2024-11-06T20:00:00	3	Temperatura mínima	14.6
21668	7	Sololá	701	Sololá	3	Barraneche	4	Abril	2023-04-23T00:00:00	2024-11-06T20:00:00	5	Humedad	77
21669	7	Sololá	701	Sololá	3	Barraneche	4	Abril	2023-04-23T00:00:00	2024-11-06T20:00:00	6	Velocidad del viento	1.6
21670	7	Sololá	701	Sololá	3	Barraneche	4	Abril	2023-04-23T00:00:00	2024-11-06T20:00:00	7	Dirección del viento	1.61
21671	7	Sololá	701	Sololá	3	Barraneche	4	Abril	2023-04-23T00:00:00	2024-11-06T20:00:00	1	Precipitación	0
21672	7	Sololá	701	Sololá	3	Barraneche	4	Abril	2023-04-23T00:00:00	2024-11-06T20:00:00	8	Radiación solar	0
21673	7	Sololá	701	Sololá	3	Barraneche	4	Abril	2023-04-23T00:00:00	2024-11-06T21:00:00	2	Temperatura media	13.3
21674	7	Sololá	701	Sololá	3	Barraneche	4	Abril	2023-04-23T00:00:00	2024-11-06T21:00:00	4	Temperatura máxima	14.7
21675	7	Sololá	701	Sololá	3	Barraneche	4	Abril	2023-04-23T00:00:00	2024-11-06T21:00:00	3	Temperatura mínima	13.3
21676	7	Sololá	701	Sololá	3	Barraneche	4	Abril	2023-04-23T00:00:00	2024-11-06T21:00:00	5	Humedad	71
21677	7	Sololá	701	Sololá	3	Barraneche	4	Abril	2023-04-23T00:00:00	2024-11-06T21:00:00	6	Velocidad del viento	3.2
21678	7	Sololá	701	Sololá	3	Barraneche	4	Abril	2023-04-23T00:00:00	2024-11-06T21:00:00	7	Dirección del viento	3.22
21679	7	Sololá	701	Sololá	3	Barraneche	4	Abril	2023-04-23T00:00:00	2024-11-06T21:00:00	1	Precipitación	0
21680	7	Sololá	701	Sololá	3	Barraneche	4	Abril	2023-04-23T00:00:00	2024-11-06T21:00:00	8	Radiación solar	0
21681	7	Sololá	701	Sololá	3	Barraneche	4	Abril	2023-04-23T00:00:00	2024-11-06T22:00:00	2	Temperatura media	14
21682	7	Sololá	701	Sololá	3	Barraneche	4	Abril	2023-04-23T00:00:00	2024-11-06T22:00:00	4	Temperatura máxima	14.1
21683	7	Sololá	701	Sololá	3	Barraneche	4	Abril	2023-04-23T00:00:00	2024-11-06T22:00:00	3	Temperatura mínima	13.4
21684	7	Sololá	701	Sololá	3	Barraneche	4	Abril	2023-04-23T00:00:00	2024-11-06T22:00:00	5	Humedad	66
21685	7	Sololá	701	Sololá	3	Barraneche	4	Abril	2023-04-23T00:00:00	2024-11-06T22:00:00	6	Velocidad del viento	3.2
21686	7	Sololá	701	Sololá	3	Barraneche	4	Abril	2023-04-23T00:00:00	2024-11-06T22:00:00	7	Dirección del viento	3.22
21687	7	Sololá	701	Sololá	3	Barraneche	4	Abril	2023-04-23T00:00:00	2024-11-06T22:00:00	1	Precipitación	0
21688	7	Sololá	701	Sololá	3	Barraneche	4	Abril	2023-04-23T00:00:00	2024-11-06T22:00:00	8	Radiación solar	0
21689	7	Sololá	701	Sololá	3	Barraneche	4	Abril	2023-04-23T00:00:00	2024-11-06T23:00:00	2	Temperatura media	13.2
21690	7	Sololá	701	Sololá	3	Barraneche	4	Abril	2023-04-23T00:00:00	2024-11-06T23:00:00	4	Temperatura máxima	14
21691	7	Sololá	701	Sololá	3	Barraneche	4	Abril	2023-04-23T00:00:00	2024-11-06T23:00:00	3	Temperatura mínima	13.1
21692	7	Sololá	701	Sololá	3	Barraneche	4	Abril	2023-04-23T00:00:00	2024-11-06T23:00:00	5	Humedad	69
21693	7	Sololá	701	Sololá	3	Barraneche	4	Abril	2023-04-23T00:00:00	2024-11-06T23:00:00	6	Velocidad del viento	4.8
21694	7	Sololá	701	Sololá	3	Barraneche	4	Abril	2023-04-23T00:00:00	2024-11-06T23:00:00	7	Dirección del viento	4.83
21695	7	Sololá	701	Sololá	3	Barraneche	4	Abril	2023-04-23T00:00:00	2024-11-06T23:00:00	1	Precipitación	0
21696	7	Sololá	701	Sololá	3	Barraneche	4	Abril	2023-04-23T00:00:00	2024-11-06T23:00:00	8	Radiación solar	0
21697	7	Sololá	701	Sololá	3	Barraneche	4	Abril	2023-04-24T00:00:00	2024-11-06T00:00:00	2	Temperatura media	12.8
21698	7	Sololá	701	Sololá	3	Barraneche	4	Abril	2023-04-24T00:00:00	2024-11-06T00:00:00	4	Temperatura máxima	13.3
21699	7	Sololá	701	Sololá	3	Barraneche	4	Abril	2023-04-24T00:00:00	2024-11-06T00:00:00	3	Temperatura mínima	12.3
21700	7	Sololá	701	Sololá	3	Barraneche	4	Abril	2023-04-24T00:00:00	2024-11-06T00:00:00	5	Humedad	71
21701	7	Sololá	701	Sololá	3	Barraneche	4	Abril	2023-04-24T00:00:00	2024-11-06T00:00:00	6	Velocidad del viento	4.8
21702	7	Sololá	701	Sololá	3	Barraneche	4	Abril	2023-04-24T00:00:00	2024-11-06T00:00:00	7	Dirección del viento	4.83
21703	7	Sololá	701	Sololá	3	Barraneche	4	Abril	2023-04-24T00:00:00	2024-11-06T00:00:00	1	Precipitación	0
21704	7	Sololá	701	Sololá	3	Barraneche	4	Abril	2023-04-24T00:00:00	2024-11-06T00:00:00	8	Radiación solar	0
21705	7	Sololá	701	Sololá	3	Barraneche	4	Abril	2023-04-24T00:00:00	2024-11-06T01:00:00	2	Temperatura media	13.5
21706	7	Sololá	701	Sololá	3	Barraneche	4	Abril	2023-04-24T00:00:00	2024-11-06T01:00:00	4	Temperatura máxima	13.6
21707	7	Sololá	701	Sololá	3	Barraneche	4	Abril	2023-04-24T00:00:00	2024-11-06T01:00:00	3	Temperatura mínima	12.8
21708	7	Sololá	701	Sololá	3	Barraneche	4	Abril	2023-04-24T00:00:00	2024-11-06T01:00:00	5	Humedad	67
21709	7	Sololá	701	Sololá	3	Barraneche	4	Abril	2023-04-24T00:00:00	2024-11-06T01:00:00	6	Velocidad del viento	3.2
21710	7	Sololá	701	Sololá	3	Barraneche	4	Abril	2023-04-24T00:00:00	2024-11-06T01:00:00	7	Dirección del viento	3.22
21711	7	Sololá	701	Sololá	3	Barraneche	4	Abril	2023-04-24T00:00:00	2024-11-06T01:00:00	1	Precipitación	0
21712	7	Sololá	701	Sololá	3	Barraneche	4	Abril	2023-04-24T00:00:00	2024-11-06T01:00:00	8	Radiación solar	0
21713	7	Sololá	701	Sololá	3	Barraneche	4	Abril	2023-04-24T00:00:00	2024-11-06T02:00:00	2	Temperatura media	12.8
21714	7	Sololá	701	Sololá	3	Barraneche	4	Abril	2023-04-24T00:00:00	2024-11-06T02:00:00	4	Temperatura máxima	13.5
21715	7	Sololá	701	Sololá	3	Barraneche	4	Abril	2023-04-24T00:00:00	2024-11-06T02:00:00	3	Temperatura mínima	12.5
21716	7	Sololá	701	Sololá	3	Barraneche	4	Abril	2023-04-24T00:00:00	2024-11-06T02:00:00	5	Humedad	66
21717	7	Sololá	701	Sololá	3	Barraneche	4	Abril	2023-04-24T00:00:00	2024-11-06T02:00:00	6	Velocidad del viento	6.4
21718	7	Sololá	701	Sololá	3	Barraneche	4	Abril	2023-04-24T00:00:00	2024-11-06T02:00:00	7	Dirección del viento	6.44
21719	7	Sololá	701	Sololá	3	Barraneche	4	Abril	2023-04-24T00:00:00	2024-11-06T02:00:00	1	Precipitación	0
21720	7	Sololá	701	Sololá	3	Barraneche	4	Abril	2023-04-24T00:00:00	2024-11-06T02:00:00	8	Radiación solar	0
21721	7	Sololá	701	Sololá	3	Barraneche	4	Abril	2023-04-24T00:00:00	2024-11-06T03:00:00	2	Temperatura media	12.4
21722	7	Sololá	701	Sololá	3	Barraneche	4	Abril	2023-04-24T00:00:00	2024-11-06T03:00:00	4	Temperatura máxima	13
21723	7	Sololá	701	Sololá	3	Barraneche	4	Abril	2023-04-24T00:00:00	2024-11-06T03:00:00	3	Temperatura mínima	12.2
21724	7	Sololá	701	Sololá	3	Barraneche	4	Abril	2023-04-24T00:00:00	2024-11-06T03:00:00	5	Humedad	66
21725	7	Sololá	701	Sololá	3	Barraneche	4	Abril	2023-04-24T00:00:00	2024-11-06T03:00:00	6	Velocidad del viento	8
21726	7	Sololá	701	Sololá	3	Barraneche	4	Abril	2023-04-24T00:00:00	2024-11-06T03:00:00	7	Dirección del viento	8.05
21727	7	Sololá	701	Sololá	3	Barraneche	4	Abril	2023-04-24T00:00:00	2024-11-06T03:00:00	1	Precipitación	0
21728	7	Sololá	701	Sololá	3	Barraneche	4	Abril	2023-04-24T00:00:00	2024-11-06T03:00:00	8	Radiación solar	0
21729	7	Sololá	701	Sololá	3	Barraneche	4	Abril	2023-04-24T00:00:00	2024-11-06T04:00:00	2	Temperatura media	11.9
21730	7	Sololá	701	Sololá	3	Barraneche	4	Abril	2023-04-24T00:00:00	2024-11-06T04:00:00	4	Temperatura máxima	12.5
21731	7	Sololá	701	Sololá	3	Barraneche	4	Abril	2023-04-24T00:00:00	2024-11-06T04:00:00	3	Temperatura mínima	11.8
21732	7	Sololá	701	Sololá	3	Barraneche	4	Abril	2023-04-24T00:00:00	2024-11-06T04:00:00	5	Humedad	66
21733	7	Sololá	701	Sololá	3	Barraneche	4	Abril	2023-04-24T00:00:00	2024-11-06T04:00:00	6	Velocidad del viento	8
21734	7	Sololá	701	Sololá	3	Barraneche	4	Abril	2023-04-24T00:00:00	2024-11-06T04:00:00	7	Dirección del viento	8.05
21735	7	Sololá	701	Sololá	3	Barraneche	4	Abril	2023-04-24T00:00:00	2024-11-06T04:00:00	1	Precipitación	0
21736	7	Sololá	701	Sololá	3	Barraneche	4	Abril	2023-04-24T00:00:00	2024-11-06T04:00:00	8	Radiación solar	0
21737	7	Sololá	701	Sololá	3	Barraneche	4	Abril	2023-04-24T00:00:00	2024-11-06T05:00:00	2	Temperatura media	10.9
21738	7	Sololá	701	Sololá	3	Barraneche	4	Abril	2023-04-24T00:00:00	2024-11-06T05:00:00	4	Temperatura máxima	11.9
21739	7	Sololá	701	Sololá	3	Barraneche	4	Abril	2023-04-24T00:00:00	2024-11-06T05:00:00	3	Temperatura mínima	10.9
21740	7	Sololá	701	Sololá	3	Barraneche	4	Abril	2023-04-24T00:00:00	2024-11-06T05:00:00	5	Humedad	66
21741	7	Sololá	701	Sololá	3	Barraneche	4	Abril	2023-04-24T00:00:00	2024-11-06T05:00:00	6	Velocidad del viento	3.2
21742	7	Sololá	701	Sololá	3	Barraneche	4	Abril	2023-04-24T00:00:00	2024-11-06T05:00:00	7	Dirección del viento	3.22
21743	7	Sololá	701	Sololá	3	Barraneche	4	Abril	2023-04-24T00:00:00	2024-11-06T05:00:00	1	Precipitación	0
21744	7	Sololá	701	Sololá	3	Barraneche	4	Abril	2023-04-24T00:00:00	2024-11-06T05:00:00	8	Radiación solar	0
21745	7	Sololá	701	Sololá	3	Barraneche	4	Abril	2023-04-24T00:00:00	2024-11-06T06:00:00	2	Temperatura media	10.6
21746	7	Sololá	701	Sololá	3	Barraneche	4	Abril	2023-04-24T00:00:00	2024-11-06T06:00:00	4	Temperatura máxima	10.9
21747	7	Sololá	701	Sololá	3	Barraneche	4	Abril	2023-04-24T00:00:00	2024-11-06T06:00:00	3	Temperatura mínima	10.2
21748	7	Sololá	701	Sololá	3	Barraneche	4	Abril	2023-04-24T00:00:00	2024-11-06T06:00:00	5	Humedad	67
21749	7	Sololá	701	Sololá	3	Barraneche	4	Abril	2023-04-24T00:00:00	2024-11-06T06:00:00	6	Velocidad del viento	4.8
21750	7	Sololá	701	Sololá	3	Barraneche	4	Abril	2023-04-24T00:00:00	2024-11-06T06:00:00	7	Dirección del viento	4.83
21751	7	Sololá	701	Sololá	3	Barraneche	4	Abril	2023-04-24T00:00:00	2024-11-06T06:00:00	1	Precipitación	0
21752	7	Sololá	701	Sololá	3	Barraneche	4	Abril	2023-04-24T00:00:00	2024-11-06T06:00:00	8	Radiación solar	3
21753	7	Sololá	701	Sololá	3	Barraneche	4	Abril	2023-04-24T00:00:00	2024-11-06T07:00:00	2	Temperatura media	12.4
21754	7	Sololá	701	Sololá	3	Barraneche	4	Abril	2023-04-24T00:00:00	2024-11-06T07:00:00	4	Temperatura máxima	12.4
21755	7	Sololá	701	Sololá	3	Barraneche	4	Abril	2023-04-24T00:00:00	2024-11-06T07:00:00	3	Temperatura mínima	10.6
21756	7	Sololá	701	Sololá	3	Barraneche	4	Abril	2023-04-24T00:00:00	2024-11-06T07:00:00	5	Humedad	67
21757	7	Sololá	701	Sololá	3	Barraneche	4	Abril	2023-04-24T00:00:00	2024-11-06T07:00:00	6	Velocidad del viento	4.8
21758	7	Sololá	701	Sololá	3	Barraneche	4	Abril	2023-04-24T00:00:00	2024-11-06T07:00:00	7	Dirección del viento	4.83
21759	7	Sololá	701	Sololá	3	Barraneche	4	Abril	2023-04-24T00:00:00	2024-11-06T07:00:00	1	Precipitación	0
21760	7	Sololá	701	Sololá	3	Barraneche	4	Abril	2023-04-24T00:00:00	2024-11-06T07:00:00	8	Radiación solar	85
21761	7	Sololá	701	Sololá	3	Barraneche	4	Abril	2023-04-24T00:00:00	2024-11-06T08:00:00	2	Temperatura media	16.1
21762	7	Sololá	701	Sololá	3	Barraneche	4	Abril	2023-04-24T00:00:00	2024-11-06T08:00:00	4	Temperatura máxima	16.1
21763	7	Sololá	701	Sololá	3	Barraneche	4	Abril	2023-04-24T00:00:00	2024-11-06T08:00:00	3	Temperatura mínima	12.4
21764	7	Sololá	701	Sololá	3	Barraneche	4	Abril	2023-04-24T00:00:00	2024-11-06T08:00:00	5	Humedad	59
21765	7	Sololá	701	Sololá	3	Barraneche	4	Abril	2023-04-24T00:00:00	2024-11-06T08:00:00	6	Velocidad del viento	1.6
21766	7	Sololá	701	Sololá	3	Barraneche	4	Abril	2023-04-24T00:00:00	2024-11-06T08:00:00	7	Dirección del viento	1.61
21767	7	Sololá	701	Sololá	3	Barraneche	4	Abril	2023-04-24T00:00:00	2024-11-06T08:00:00	1	Precipitación	0
21768	7	Sololá	701	Sololá	3	Barraneche	4	Abril	2023-04-24T00:00:00	2024-11-06T08:00:00	8	Radiación solar	328
21769	7	Sololá	701	Sololá	3	Barraneche	4	Abril	2023-04-24T00:00:00	2024-11-06T09:00:00	2	Temperatura media	15.8
21770	7	Sololá	701	Sololá	3	Barraneche	4	Abril	2023-04-24T00:00:00	2024-11-06T09:00:00	4	Temperatura máxima	16.6
21771	7	Sololá	701	Sololá	3	Barraneche	4	Abril	2023-04-24T00:00:00	2024-11-06T09:00:00	3	Temperatura mínima	15.1
21772	7	Sololá	701	Sololá	3	Barraneche	4	Abril	2023-04-24T00:00:00	2024-11-06T09:00:00	5	Humedad	67
21773	7	Sololá	701	Sololá	3	Barraneche	4	Abril	2023-04-24T00:00:00	2024-11-06T09:00:00	6	Velocidad del viento	8
21774	7	Sololá	701	Sololá	3	Barraneche	4	Abril	2023-04-24T00:00:00	2024-11-06T09:00:00	7	Dirección del viento	8.05
21775	7	Sololá	701	Sololá	3	Barraneche	4	Abril	2023-04-24T00:00:00	2024-11-06T09:00:00	1	Precipitación	0
21776	7	Sololá	701	Sololá	3	Barraneche	4	Abril	2023-04-24T00:00:00	2024-11-06T09:00:00	8	Radiación solar	409
21777	7	Sololá	701	Sololá	3	Barraneche	4	Abril	2023-04-24T00:00:00	2024-11-06T10:00:00	2	Temperatura media	16.3
21778	7	Sololá	701	Sololá	3	Barraneche	4	Abril	2023-04-24T00:00:00	2024-11-06T10:00:00	4	Temperatura máxima	16.4
21779	7	Sololá	701	Sololá	3	Barraneche	4	Abril	2023-04-24T00:00:00	2024-11-06T10:00:00	3	Temperatura mínima	15.8
21780	7	Sololá	701	Sololá	3	Barraneche	4	Abril	2023-04-24T00:00:00	2024-11-06T10:00:00	5	Humedad	65
21781	7	Sololá	701	Sololá	3	Barraneche	4	Abril	2023-04-24T00:00:00	2024-11-06T10:00:00	6	Velocidad del viento	11.3
21782	7	Sololá	701	Sololá	3	Barraneche	4	Abril	2023-04-24T00:00:00	2024-11-06T10:00:00	7	Dirección del viento	11.27
21783	7	Sololá	701	Sololá	3	Barraneche	4	Abril	2023-04-24T00:00:00	2024-11-06T10:00:00	1	Precipitación	0
21784	7	Sololá	701	Sololá	3	Barraneche	4	Abril	2023-04-24T00:00:00	2024-11-06T10:00:00	8	Radiación solar	681
21785	7	Sololá	701	Sololá	3	Barraneche	4	Abril	2023-04-24T00:00:00	2024-11-06T11:00:00	2	Temperatura media	16.1
21786	7	Sololá	701	Sololá	3	Barraneche	4	Abril	2023-04-24T00:00:00	2024-11-06T11:00:00	4	Temperatura máxima	16.3
21787	7	Sololá	701	Sololá	3	Barraneche	4	Abril	2023-04-24T00:00:00	2024-11-06T11:00:00	3	Temperatura mínima	15.8
21788	7	Sololá	701	Sololá	3	Barraneche	4	Abril	2023-04-24T00:00:00	2024-11-06T11:00:00	5	Humedad	66
21789	7	Sololá	701	Sololá	3	Barraneche	4	Abril	2023-04-24T00:00:00	2024-11-06T11:00:00	6	Velocidad del viento	8
21790	7	Sololá	701	Sololá	3	Barraneche	4	Abril	2023-04-24T00:00:00	2024-11-06T11:00:00	7	Dirección del viento	8.05
21791	7	Sololá	701	Sololá	3	Barraneche	4	Abril	2023-04-24T00:00:00	2024-11-06T11:00:00	1	Precipitación	0
21792	7	Sololá	701	Sololá	3	Barraneche	4	Abril	2023-04-24T00:00:00	2024-11-06T11:00:00	8	Radiación solar	307
21793	7	Sololá	701	Sololá	3	Barraneche	4	Abril	2023-04-24T00:00:00	2024-11-06T12:00:00	2	Temperatura media	16.8
21794	7	Sololá	701	Sololá	3	Barraneche	4	Abril	2023-04-24T00:00:00	2024-11-06T12:00:00	4	Temperatura máxima	17.1
21795	7	Sololá	701	Sololá	3	Barraneche	4	Abril	2023-04-24T00:00:00	2024-11-06T12:00:00	3	Temperatura mínima	16.1
21796	7	Sololá	701	Sololá	3	Barraneche	4	Abril	2023-04-24T00:00:00	2024-11-06T12:00:00	5	Humedad	65
21797	7	Sololá	701	Sololá	3	Barraneche	4	Abril	2023-04-24T00:00:00	2024-11-06T12:00:00	6	Velocidad del viento	8
21798	7	Sololá	701	Sololá	3	Barraneche	4	Abril	2023-04-24T00:00:00	2024-11-06T12:00:00	7	Dirección del viento	8.05
21799	7	Sololá	701	Sololá	3	Barraneche	4	Abril	2023-04-24T00:00:00	2024-11-06T12:00:00	1	Precipitación	0
21800	7	Sololá	701	Sololá	3	Barraneche	4	Abril	2023-04-24T00:00:00	2024-11-06T12:00:00	8	Radiación solar	239
21801	7	Sololá	701	Sololá	3	Barraneche	4	Abril	2023-04-24T00:00:00	2024-11-06T13:00:00	2	Temperatura media	16.2
21802	7	Sololá	701	Sololá	3	Barraneche	4	Abril	2023-04-24T00:00:00	2024-11-06T13:00:00	4	Temperatura máxima	16.8
21803	7	Sololá	701	Sololá	3	Barraneche	4	Abril	2023-04-24T00:00:00	2024-11-06T13:00:00	3	Temperatura mínima	16.2
21804	7	Sololá	701	Sololá	3	Barraneche	4	Abril	2023-04-24T00:00:00	2024-11-06T13:00:00	5	Humedad	68
21805	7	Sololá	701	Sololá	3	Barraneche	4	Abril	2023-04-24T00:00:00	2024-11-06T13:00:00	6	Velocidad del viento	11.3
21806	7	Sololá	701	Sololá	3	Barraneche	4	Abril	2023-04-24T00:00:00	2024-11-06T13:00:00	7	Dirección del viento	11.27
21807	7	Sololá	701	Sololá	3	Barraneche	4	Abril	2023-04-24T00:00:00	2024-11-06T13:00:00	1	Precipitación	0
21808	7	Sololá	701	Sololá	3	Barraneche	4	Abril	2023-04-24T00:00:00	2024-11-06T13:00:00	8	Radiación solar	239
21809	7	Sololá	701	Sololá	3	Barraneche	4	Abril	2023-04-24T00:00:00	2024-11-06T14:00:00	2	Temperatura media	16.2
21810	7	Sololá	701	Sololá	3	Barraneche	4	Abril	2023-04-24T00:00:00	2024-11-06T14:00:00	4	Temperatura máxima	16.6
21811	7	Sololá	701	Sololá	3	Barraneche	4	Abril	2023-04-24T00:00:00	2024-11-06T14:00:00	3	Temperatura mínima	16.2
21812	7	Sololá	701	Sololá	3	Barraneche	4	Abril	2023-04-24T00:00:00	2024-11-06T14:00:00	5	Humedad	70
21813	7	Sololá	701	Sololá	3	Barraneche	4	Abril	2023-04-24T00:00:00	2024-11-06T14:00:00	6	Velocidad del viento	8
21814	7	Sololá	701	Sololá	3	Barraneche	4	Abril	2023-04-24T00:00:00	2024-11-06T14:00:00	7	Dirección del viento	8.05
21815	7	Sololá	701	Sololá	3	Barraneche	4	Abril	2023-04-24T00:00:00	2024-11-06T14:00:00	1	Precipitación	0
21816	7	Sololá	701	Sololá	3	Barraneche	4	Abril	2023-04-24T00:00:00	2024-11-06T14:00:00	8	Radiación solar	179
21817	7	Sololá	701	Sololá	3	Barraneche	4	Abril	2023-04-24T00:00:00	2024-11-06T15:00:00	2	Temperatura media	15.1
21818	7	Sololá	701	Sololá	3	Barraneche	4	Abril	2023-04-24T00:00:00	2024-11-06T15:00:00	4	Temperatura máxima	16.2
21819	7	Sololá	701	Sololá	3	Barraneche	4	Abril	2023-04-24T00:00:00	2024-11-06T15:00:00	3	Temperatura mínima	15.1
21820	7	Sololá	701	Sololá	3	Barraneche	4	Abril	2023-04-24T00:00:00	2024-11-06T15:00:00	5	Humedad	72
21821	7	Sololá	701	Sololá	3	Barraneche	4	Abril	2023-04-24T00:00:00	2024-11-06T15:00:00	6	Velocidad del viento	8
21822	7	Sololá	701	Sololá	3	Barraneche	4	Abril	2023-04-24T00:00:00	2024-11-06T15:00:00	7	Dirección del viento	8.05
21823	7	Sololá	701	Sololá	3	Barraneche	4	Abril	2023-04-24T00:00:00	2024-11-06T15:00:00	1	Precipitación	1.4
21824	7	Sololá	701	Sololá	3	Barraneche	4	Abril	2023-04-24T00:00:00	2024-11-06T15:00:00	8	Radiación solar	57
21825	7	Sololá	701	Sololá	3	Barraneche	4	Abril	2023-04-24T00:00:00	2024-11-06T16:00:00	2	Temperatura media	12.6
21826	7	Sololá	701	Sololá	3	Barraneche	4	Abril	2023-04-24T00:00:00	2024-11-06T16:00:00	4	Temperatura máxima	15.1
21827	7	Sololá	701	Sololá	3	Barraneche	4	Abril	2023-04-24T00:00:00	2024-11-06T16:00:00	3	Temperatura mínima	12.6
21828	7	Sololá	701	Sololá	3	Barraneche	4	Abril	2023-04-24T00:00:00	2024-11-06T16:00:00	5	Humedad	78
21829	7	Sololá	701	Sololá	3	Barraneche	4	Abril	2023-04-24T00:00:00	2024-11-06T16:00:00	6	Velocidad del viento	8
21830	7	Sololá	701	Sololá	3	Barraneche	4	Abril	2023-04-24T00:00:00	2024-11-06T16:00:00	7	Dirección del viento	8.05
21831	7	Sololá	701	Sololá	3	Barraneche	4	Abril	2023-04-24T00:00:00	2024-11-06T16:00:00	1	Precipitación	34
21832	7	Sololá	701	Sololá	3	Barraneche	4	Abril	2023-04-24T00:00:00	2024-11-06T16:00:00	8	Radiación solar	8
21833	7	Sololá	701	Sololá	3	Barraneche	4	Abril	2023-04-24T00:00:00	2024-11-06T17:00:00	2	Temperatura media	11.9
21834	7	Sololá	701	Sololá	3	Barraneche	4	Abril	2023-04-24T00:00:00	2024-11-06T17:00:00	4	Temperatura máxima	12.6
21835	7	Sololá	701	Sololá	3	Barraneche	4	Abril	2023-04-24T00:00:00	2024-11-06T17:00:00	3	Temperatura mínima	11.9
21836	7	Sololá	701	Sololá	3	Barraneche	4	Abril	2023-04-24T00:00:00	2024-11-06T17:00:00	5	Humedad	82
21837	7	Sololá	701	Sololá	3	Barraneche	4	Abril	2023-04-24T00:00:00	2024-11-06T17:00:00	6	Velocidad del viento	3.2
21838	7	Sololá	701	Sololá	3	Barraneche	4	Abril	2023-04-24T00:00:00	2024-11-06T17:00:00	7	Dirección del viento	3.22
21839	7	Sololá	701	Sololá	3	Barraneche	4	Abril	2023-04-24T00:00:00	2024-11-06T17:00:00	1	Precipitación	9.2
21840	7	Sololá	701	Sololá	3	Barraneche	4	Abril	2023-04-24T00:00:00	2024-11-06T17:00:00	8	Radiación solar	27
21841	7	Sololá	701	Sololá	3	Barraneche	4	Abril	2023-04-24T00:00:00	2024-11-06T18:00:00	2	Temperatura media	12.3
21842	7	Sololá	701	Sololá	3	Barraneche	4	Abril	2023-04-24T00:00:00	2024-11-06T18:00:00	4	Temperatura máxima	12.3
21843	7	Sololá	701	Sololá	3	Barraneche	4	Abril	2023-04-24T00:00:00	2024-11-06T18:00:00	3	Temperatura mínima	11.8
21844	7	Sololá	701	Sololá	3	Barraneche	4	Abril	2023-04-24T00:00:00	2024-11-06T18:00:00	5	Humedad	84
21845	7	Sololá	701	Sololá	3	Barraneche	4	Abril	2023-04-24T00:00:00	2024-11-06T18:00:00	6	Velocidad del viento	1.6
21846	7	Sololá	701	Sololá	3	Barraneche	4	Abril	2023-04-24T00:00:00	2024-11-06T18:00:00	7	Dirección del viento	1.61
21847	7	Sololá	701	Sololá	3	Barraneche	4	Abril	2023-04-24T00:00:00	2024-11-06T18:00:00	1	Precipitación	2.2
21848	7	Sololá	701	Sololá	3	Barraneche	4	Abril	2023-04-24T00:00:00	2024-11-06T18:00:00	8	Radiación solar	13
21849	7	Sololá	701	Sololá	3	Barraneche	4	Abril	2023-04-24T00:00:00	2024-11-06T19:00:00	2	Temperatura media	12.4
21850	7	Sololá	701	Sololá	3	Barraneche	4	Abril	2023-04-24T00:00:00	2024-11-06T19:00:00	4	Temperatura máxima	12.5
21851	7	Sololá	701	Sololá	3	Barraneche	4	Abril	2023-04-24T00:00:00	2024-11-06T19:00:00	3	Temperatura mínima	12.2
21852	7	Sololá	701	Sololá	3	Barraneche	4	Abril	2023-04-24T00:00:00	2024-11-06T19:00:00	5	Humedad	84
21853	7	Sololá	701	Sololá	3	Barraneche	4	Abril	2023-04-24T00:00:00	2024-11-06T19:00:00	6	Velocidad del viento	1.6
21854	7	Sololá	701	Sololá	3	Barraneche	4	Abril	2023-04-24T00:00:00	2024-11-06T19:00:00	7	Dirección del viento	1.61
21855	7	Sololá	701	Sololá	3	Barraneche	4	Abril	2023-04-24T00:00:00	2024-11-06T19:00:00	1	Precipitación	0.4
21856	7	Sololá	701	Sololá	3	Barraneche	4	Abril	2023-04-24T00:00:00	2024-11-06T19:00:00	8	Radiación solar	0
21857	7	Sololá	701	Sololá	3	Barraneche	4	Abril	2023-04-24T00:00:00	2024-11-06T20:00:00	2	Temperatura media	12.4
21858	7	Sololá	701	Sololá	3	Barraneche	4	Abril	2023-04-24T00:00:00	2024-11-06T20:00:00	4	Temperatura máxima	12.6
21859	7	Sololá	701	Sololá	3	Barraneche	4	Abril	2023-04-24T00:00:00	2024-11-06T20:00:00	3	Temperatura mínima	12.4
21860	7	Sololá	701	Sololá	3	Barraneche	4	Abril	2023-04-24T00:00:00	2024-11-06T20:00:00	5	Humedad	81
21861	7	Sololá	701	Sololá	3	Barraneche	4	Abril	2023-04-24T00:00:00	2024-11-06T20:00:00	6	Velocidad del viento	4.8
21862	7	Sololá	701	Sololá	3	Barraneche	4	Abril	2023-04-24T00:00:00	2024-11-06T20:00:00	7	Dirección del viento	4.83
21863	7	Sololá	701	Sololá	3	Barraneche	4	Abril	2023-04-24T00:00:00	2024-11-06T20:00:00	1	Precipitación	0
21864	7	Sololá	701	Sololá	3	Barraneche	4	Abril	2023-04-24T00:00:00	2024-11-06T20:00:00	8	Radiación solar	0
21865	7	Sololá	701	Sololá	3	Barraneche	4	Abril	2023-04-24T00:00:00	2024-11-06T21:00:00	2	Temperatura media	12.4
21866	7	Sololá	701	Sololá	3	Barraneche	4	Abril	2023-04-24T00:00:00	2024-11-06T21:00:00	4	Temperatura máxima	12.6
21867	7	Sololá	701	Sololá	3	Barraneche	4	Abril	2023-04-24T00:00:00	2024-11-06T21:00:00	3	Temperatura mínima	12.3
21868	7	Sololá	701	Sololá	3	Barraneche	4	Abril	2023-04-24T00:00:00	2024-11-06T21:00:00	5	Humedad	82
21869	7	Sololá	701	Sololá	3	Barraneche	4	Abril	2023-04-24T00:00:00	2024-11-06T21:00:00	6	Velocidad del viento	3.2
21870	7	Sololá	701	Sololá	3	Barraneche	4	Abril	2023-04-24T00:00:00	2024-11-06T21:00:00	7	Dirección del viento	3.22
21871	7	Sololá	701	Sololá	3	Barraneche	4	Abril	2023-04-24T00:00:00	2024-11-06T21:00:00	1	Precipitación	0
21872	7	Sololá	701	Sololá	3	Barraneche	4	Abril	2023-04-24T00:00:00	2024-11-06T21:00:00	8	Radiación solar	0
21873	7	Sololá	701	Sololá	3	Barraneche	4	Abril	2023-04-24T00:00:00	2024-11-06T22:00:00	2	Temperatura media	12.5
21874	7	Sololá	701	Sololá	3	Barraneche	4	Abril	2023-04-24T00:00:00	2024-11-06T22:00:00	4	Temperatura máxima	12.5
21875	7	Sololá	701	Sololá	3	Barraneche	4	Abril	2023-04-24T00:00:00	2024-11-06T22:00:00	3	Temperatura mínima	12.3
21876	7	Sololá	701	Sololá	3	Barraneche	4	Abril	2023-04-24T00:00:00	2024-11-06T22:00:00	5	Humedad	73
21877	7	Sololá	701	Sololá	3	Barraneche	4	Abril	2023-04-24T00:00:00	2024-11-06T22:00:00	6	Velocidad del viento	8
21878	7	Sololá	701	Sololá	3	Barraneche	4	Abril	2023-04-24T00:00:00	2024-11-06T22:00:00	7	Dirección del viento	8.05
21879	7	Sololá	701	Sololá	3	Barraneche	4	Abril	2023-04-24T00:00:00	2024-11-06T22:00:00	1	Precipitación	0
21880	7	Sololá	701	Sololá	3	Barraneche	4	Abril	2023-04-24T00:00:00	2024-11-06T22:00:00	8	Radiación solar	0
21881	7	Sololá	701	Sololá	3	Barraneche	4	Abril	2023-04-24T00:00:00	2024-11-06T23:00:00	2	Temperatura media	12.1
21882	7	Sololá	701	Sololá	3	Barraneche	4	Abril	2023-04-24T00:00:00	2024-11-06T23:00:00	4	Temperatura máxima	12.5
21883	7	Sololá	701	Sololá	3	Barraneche	4	Abril	2023-04-24T00:00:00	2024-11-06T23:00:00	3	Temperatura mínima	12.1
21884	7	Sololá	701	Sololá	3	Barraneche	4	Abril	2023-04-24T00:00:00	2024-11-06T23:00:00	5	Humedad	74
21885	7	Sololá	701	Sololá	3	Barraneche	4	Abril	2023-04-24T00:00:00	2024-11-06T23:00:00	6	Velocidad del viento	8
21886	7	Sololá	701	Sololá	3	Barraneche	4	Abril	2023-04-24T00:00:00	2024-11-06T23:00:00	7	Dirección del viento	8.05
21887	7	Sololá	701	Sololá	3	Barraneche	4	Abril	2023-04-24T00:00:00	2024-11-06T23:00:00	1	Precipitación	0
21888	7	Sololá	701	Sololá	3	Barraneche	4	Abril	2023-04-24T00:00:00	2024-11-06T23:00:00	8	Radiación solar	0
21889	7	Sololá	701	Sololá	3	Barraneche	4	Abril	2023-04-25T00:00:00	2024-11-06T00:00:00	2	Temperatura media	11.7
21890	7	Sololá	701	Sololá	3	Barraneche	4	Abril	2023-04-25T00:00:00	2024-11-06T00:00:00	4	Temperatura máxima	12.2
21891	7	Sololá	701	Sololá	3	Barraneche	4	Abril	2023-04-25T00:00:00	2024-11-06T00:00:00	3	Temperatura mínima	11.7
21892	7	Sololá	701	Sololá	3	Barraneche	4	Abril	2023-04-25T00:00:00	2024-11-06T00:00:00	5	Humedad	72
21893	7	Sololá	701	Sololá	3	Barraneche	4	Abril	2023-04-25T00:00:00	2024-11-06T00:00:00	6	Velocidad del viento	8
21894	7	Sololá	701	Sololá	3	Barraneche	4	Abril	2023-04-25T00:00:00	2024-11-06T00:00:00	7	Dirección del viento	8.05
21895	7	Sololá	701	Sololá	3	Barraneche	4	Abril	2023-04-25T00:00:00	2024-11-06T00:00:00	1	Precipitación	0
21896	7	Sololá	701	Sololá	3	Barraneche	4	Abril	2023-04-25T00:00:00	2024-11-06T00:00:00	8	Radiación solar	0
21897	7	Sololá	701	Sololá	3	Barraneche	4	Abril	2023-04-25T00:00:00	2024-11-06T01:00:00	2	Temperatura media	11.7
21898	7	Sololá	701	Sololá	3	Barraneche	4	Abril	2023-04-25T00:00:00	2024-11-06T01:00:00	4	Temperatura máxima	12.1
21899	7	Sololá	701	Sololá	3	Barraneche	4	Abril	2023-04-25T00:00:00	2024-11-06T01:00:00	3	Temperatura mínima	11.6
21900	7	Sololá	701	Sololá	3	Barraneche	4	Abril	2023-04-25T00:00:00	2024-11-06T01:00:00	5	Humedad	71
21901	7	Sololá	701	Sololá	3	Barraneche	4	Abril	2023-04-25T00:00:00	2024-11-06T01:00:00	6	Velocidad del viento	9.7
21902	7	Sololá	701	Sololá	3	Barraneche	4	Abril	2023-04-25T00:00:00	2024-11-06T01:00:00	7	Dirección del viento	9.66
21903	7	Sololá	701	Sololá	3	Barraneche	4	Abril	2023-04-25T00:00:00	2024-11-06T01:00:00	1	Precipitación	0
21904	7	Sololá	701	Sololá	3	Barraneche	4	Abril	2023-04-25T00:00:00	2024-11-06T01:00:00	8	Radiación solar	0
21905	7	Sololá	701	Sololá	3	Barraneche	4	Abril	2023-04-25T00:00:00	2024-11-06T02:00:00	2	Temperatura media	11.3
21906	7	Sololá	701	Sololá	3	Barraneche	4	Abril	2023-04-25T00:00:00	2024-11-06T02:00:00	4	Temperatura máxima	11.8
21907	7	Sololá	701	Sololá	3	Barraneche	4	Abril	2023-04-25T00:00:00	2024-11-06T02:00:00	3	Temperatura mínima	11.2
21908	7	Sololá	701	Sololá	3	Barraneche	4	Abril	2023-04-25T00:00:00	2024-11-06T02:00:00	5	Humedad	72
21909	7	Sololá	701	Sololá	3	Barraneche	4	Abril	2023-04-25T00:00:00	2024-11-06T02:00:00	6	Velocidad del viento	9.7
21910	7	Sololá	701	Sololá	3	Barraneche	4	Abril	2023-04-25T00:00:00	2024-11-06T02:00:00	7	Dirección del viento	9.66
21911	7	Sololá	701	Sololá	3	Barraneche	4	Abril	2023-04-25T00:00:00	2024-11-06T02:00:00	1	Precipitación	0
21912	7	Sololá	701	Sololá	3	Barraneche	4	Abril	2023-04-25T00:00:00	2024-11-06T02:00:00	8	Radiación solar	0
21913	7	Sololá	701	Sololá	3	Barraneche	4	Abril	2023-04-25T00:00:00	2024-11-06T03:00:00	2	Temperatura media	11.4
21914	7	Sololá	701	Sololá	3	Barraneche	4	Abril	2023-04-25T00:00:00	2024-11-06T03:00:00	4	Temperatura máxima	11.8
21915	7	Sololá	701	Sololá	3	Barraneche	4	Abril	2023-04-25T00:00:00	2024-11-06T03:00:00	3	Temperatura mínima	11.3
21916	7	Sololá	701	Sololá	3	Barraneche	4	Abril	2023-04-25T00:00:00	2024-11-06T03:00:00	5	Humedad	71
21917	7	Sololá	701	Sololá	3	Barraneche	4	Abril	2023-04-25T00:00:00	2024-11-06T03:00:00	6	Velocidad del viento	11.3
21918	7	Sololá	701	Sololá	3	Barraneche	4	Abril	2023-04-25T00:00:00	2024-11-06T03:00:00	7	Dirección del viento	11.27
21919	7	Sololá	701	Sololá	3	Barraneche	4	Abril	2023-04-25T00:00:00	2024-11-06T03:00:00	1	Precipitación	0
21920	7	Sololá	701	Sololá	3	Barraneche	4	Abril	2023-04-25T00:00:00	2024-11-06T03:00:00	8	Radiación solar	0
21921	7	Sololá	701	Sololá	3	Barraneche	4	Abril	2023-04-25T00:00:00	2024-11-06T04:00:00	2	Temperatura media	11.2
21922	7	Sololá	701	Sololá	3	Barraneche	4	Abril	2023-04-25T00:00:00	2024-11-06T04:00:00	4	Temperatura máxima	11.6
21923	7	Sololá	701	Sololá	3	Barraneche	4	Abril	2023-04-25T00:00:00	2024-11-06T04:00:00	3	Temperatura mínima	11.1
21924	7	Sololá	701	Sololá	3	Barraneche	4	Abril	2023-04-25T00:00:00	2024-11-06T04:00:00	5	Humedad	72
21925	7	Sololá	701	Sololá	3	Barraneche	4	Abril	2023-04-25T00:00:00	2024-11-06T04:00:00	6	Velocidad del viento	8
21926	7	Sololá	701	Sololá	3	Barraneche	4	Abril	2023-04-25T00:00:00	2024-11-06T04:00:00	7	Dirección del viento	8.05
21927	7	Sololá	701	Sololá	3	Barraneche	4	Abril	2023-04-25T00:00:00	2024-11-06T04:00:00	1	Precipitación	0
21928	7	Sololá	701	Sololá	3	Barraneche	4	Abril	2023-04-25T00:00:00	2024-11-06T04:00:00	8	Radiación solar	0
21929	7	Sololá	701	Sololá	3	Barraneche	4	Abril	2023-04-25T00:00:00	2024-11-06T05:00:00	2	Temperatura media	10.7
21930	7	Sololá	701	Sololá	3	Barraneche	4	Abril	2023-04-25T00:00:00	2024-11-06T05:00:00	4	Temperatura máxima	11.4
21931	7	Sololá	701	Sololá	3	Barraneche	4	Abril	2023-04-25T00:00:00	2024-11-06T05:00:00	3	Temperatura mínima	10.7
21932	7	Sololá	701	Sololá	3	Barraneche	4	Abril	2023-04-25T00:00:00	2024-11-06T05:00:00	5	Humedad	73
21933	7	Sololá	701	Sololá	3	Barraneche	4	Abril	2023-04-25T00:00:00	2024-11-06T05:00:00	6	Velocidad del viento	8
21934	7	Sololá	701	Sololá	3	Barraneche	4	Abril	2023-04-25T00:00:00	2024-11-06T05:00:00	7	Dirección del viento	8.05
21935	7	Sololá	701	Sololá	3	Barraneche	4	Abril	2023-04-25T00:00:00	2024-11-06T05:00:00	1	Precipitación	0
21936	7	Sololá	701	Sololá	3	Barraneche	4	Abril	2023-04-25T00:00:00	2024-11-06T05:00:00	8	Radiación solar	0
21937	7	Sololá	701	Sololá	3	Barraneche	4	Abril	2023-04-25T00:00:00	2024-11-06T06:00:00	2	Temperatura media	11.1
21938	7	Sololá	701	Sololá	3	Barraneche	4	Abril	2023-04-25T00:00:00	2024-11-06T06:00:00	4	Temperatura máxima	11.2
21939	7	Sololá	701	Sololá	3	Barraneche	4	Abril	2023-04-25T00:00:00	2024-11-06T06:00:00	3	Temperatura mínima	10.7
21940	7	Sololá	701	Sololá	3	Barraneche	4	Abril	2023-04-25T00:00:00	2024-11-06T06:00:00	5	Humedad	72
21941	7	Sololá	701	Sololá	3	Barraneche	4	Abril	2023-04-25T00:00:00	2024-11-06T06:00:00	6	Velocidad del viento	8
21942	7	Sololá	701	Sololá	3	Barraneche	4	Abril	2023-04-25T00:00:00	2024-11-06T06:00:00	7	Dirección del viento	8.05
21943	7	Sololá	701	Sololá	3	Barraneche	4	Abril	2023-04-25T00:00:00	2024-11-06T06:00:00	1	Precipitación	0
21944	7	Sololá	701	Sololá	3	Barraneche	4	Abril	2023-04-25T00:00:00	2024-11-06T06:00:00	8	Radiación solar	3
21945	7	Sololá	701	Sololá	3	Barraneche	4	Abril	2023-04-25T00:00:00	2024-11-06T07:00:00	2	Temperatura media	12.9
21946	7	Sololá	701	Sololá	3	Barraneche	4	Abril	2023-04-25T00:00:00	2024-11-06T07:00:00	4	Temperatura máxima	12.9
21947	7	Sololá	701	Sololá	3	Barraneche	4	Abril	2023-04-25T00:00:00	2024-11-06T07:00:00	3	Temperatura mínima	10.9
21948	7	Sololá	701	Sololá	3	Barraneche	4	Abril	2023-04-25T00:00:00	2024-11-06T07:00:00	5	Humedad	70
21949	7	Sololá	701	Sololá	3	Barraneche	4	Abril	2023-04-25T00:00:00	2024-11-06T07:00:00	6	Velocidad del viento	8
21950	7	Sololá	701	Sololá	3	Barraneche	4	Abril	2023-04-25T00:00:00	2024-11-06T07:00:00	7	Dirección del viento	8.05
21951	7	Sololá	701	Sololá	3	Barraneche	4	Abril	2023-04-25T00:00:00	2024-11-06T07:00:00	1	Precipitación	0
21952	7	Sololá	701	Sololá	3	Barraneche	4	Abril	2023-04-25T00:00:00	2024-11-06T07:00:00	8	Radiación solar	87
21953	7	Sololá	701	Sololá	3	Barraneche	4	Abril	2023-04-25T00:00:00	2024-11-06T08:00:00	2	Temperatura media	15.9
21954	7	Sololá	701	Sololá	3	Barraneche	4	Abril	2023-04-25T00:00:00	2024-11-06T08:00:00	4	Temperatura máxima	15.9
21955	7	Sololá	701	Sololá	3	Barraneche	4	Abril	2023-04-25T00:00:00	2024-11-06T08:00:00	3	Temperatura mínima	12.9
21956	7	Sololá	701	Sololá	3	Barraneche	4	Abril	2023-04-25T00:00:00	2024-11-06T08:00:00	5	Humedad	66
21957	7	Sololá	701	Sololá	3	Barraneche	4	Abril	2023-04-25T00:00:00	2024-11-06T08:00:00	6	Velocidad del viento	3.2
21958	7	Sololá	701	Sololá	3	Barraneche	4	Abril	2023-04-25T00:00:00	2024-11-06T08:00:00	7	Dirección del viento	3.22
21959	7	Sololá	701	Sololá	3	Barraneche	4	Abril	2023-04-25T00:00:00	2024-11-06T08:00:00	1	Precipitación	0
21960	7	Sololá	701	Sololá	3	Barraneche	4	Abril	2023-04-25T00:00:00	2024-11-06T08:00:00	8	Radiación solar	341
21961	7	Sololá	701	Sololá	3	Barraneche	4	Abril	2023-04-25T00:00:00	2024-11-06T09:00:00	2	Temperatura media	17.4
21962	7	Sololá	701	Sololá	3	Barraneche	4	Abril	2023-04-25T00:00:00	2024-11-06T09:00:00	4	Temperatura máxima	17.4
21963	7	Sololá	701	Sololá	3	Barraneche	4	Abril	2023-04-25T00:00:00	2024-11-06T09:00:00	3	Temperatura mínima	16
21964	7	Sololá	701	Sololá	3	Barraneche	4	Abril	2023-04-25T00:00:00	2024-11-06T09:00:00	5	Humedad	59
21965	7	Sololá	701	Sololá	3	Barraneche	4	Abril	2023-04-25T00:00:00	2024-11-06T09:00:00	6	Velocidad del viento	3.2
21966	7	Sololá	701	Sololá	3	Barraneche	4	Abril	2023-04-25T00:00:00	2024-11-06T09:00:00	7	Dirección del viento	3.22
21967	7	Sololá	701	Sololá	3	Barraneche	4	Abril	2023-04-25T00:00:00	2024-11-06T09:00:00	1	Precipitación	0
21968	7	Sololá	701	Sololá	3	Barraneche	4	Abril	2023-04-25T00:00:00	2024-11-06T09:00:00	8	Radiación solar	581
21969	7	Sololá	701	Sololá	3	Barraneche	4	Abril	2023-04-25T00:00:00	2024-11-06T10:00:00	2	Temperatura media	18.8
21970	7	Sololá	701	Sololá	3	Barraneche	4	Abril	2023-04-25T00:00:00	2024-11-06T10:00:00	4	Temperatura máxima	18.8
21971	7	Sololá	701	Sololá	3	Barraneche	4	Abril	2023-04-25T00:00:00	2024-11-06T10:00:00	3	Temperatura mínima	17.4
21972	7	Sololá	701	Sololá	3	Barraneche	4	Abril	2023-04-25T00:00:00	2024-11-06T10:00:00	5	Humedad	54
21973	7	Sololá	701	Sololá	3	Barraneche	4	Abril	2023-04-25T00:00:00	2024-11-06T10:00:00	6	Velocidad del viento	6.4
21974	7	Sololá	701	Sololá	3	Barraneche	4	Abril	2023-04-25T00:00:00	2024-11-06T10:00:00	7	Dirección del viento	6.44
21975	7	Sololá	701	Sololá	3	Barraneche	4	Abril	2023-04-25T00:00:00	2024-11-06T10:00:00	1	Precipitación	0
21976	7	Sololá	701	Sololá	3	Barraneche	4	Abril	2023-04-25T00:00:00	2024-11-06T10:00:00	8	Radiación solar	807
21977	7	Sololá	701	Sololá	3	Barraneche	4	Abril	2023-04-25T00:00:00	2024-11-06T11:00:00	2	Temperatura media	18.3
21978	7	Sololá	701	Sololá	3	Barraneche	4	Abril	2023-04-25T00:00:00	2024-11-06T11:00:00	4	Temperatura máxima	19.2
21979	7	Sololá	701	Sololá	3	Barraneche	4	Abril	2023-04-25T00:00:00	2024-11-06T11:00:00	3	Temperatura mínima	18.3
21980	7	Sololá	701	Sololá	3	Barraneche	4	Abril	2023-04-25T00:00:00	2024-11-06T11:00:00	5	Humedad	56
21981	7	Sololá	701	Sololá	3	Barraneche	4	Abril	2023-04-25T00:00:00	2024-11-06T11:00:00	6	Velocidad del viento	9.7
21982	7	Sololá	701	Sololá	3	Barraneche	4	Abril	2023-04-25T00:00:00	2024-11-06T11:00:00	7	Dirección del viento	9.66
21983	7	Sololá	701	Sololá	3	Barraneche	4	Abril	2023-04-25T00:00:00	2024-11-06T11:00:00	1	Precipitación	0
21984	7	Sololá	701	Sololá	3	Barraneche	4	Abril	2023-04-25T00:00:00	2024-11-06T11:00:00	8	Radiación solar	720
21985	7	Sololá	701	Sololá	3	Barraneche	4	Abril	2023-04-25T00:00:00	2024-11-06T12:00:00	2	Temperatura media	18.4
21986	7	Sololá	701	Sololá	3	Barraneche	4	Abril	2023-04-25T00:00:00	2024-11-06T12:00:00	4	Temperatura máxima	18.6
21987	7	Sololá	701	Sololá	3	Barraneche	4	Abril	2023-04-25T00:00:00	2024-11-06T12:00:00	3	Temperatura mínima	18.1
21988	7	Sololá	701	Sololá	3	Barraneche	4	Abril	2023-04-25T00:00:00	2024-11-06T12:00:00	5	Humedad	59
21989	7	Sololá	701	Sololá	3	Barraneche	4	Abril	2023-04-25T00:00:00	2024-11-06T12:00:00	6	Velocidad del viento	8
21990	7	Sololá	701	Sololá	3	Barraneche	4	Abril	2023-04-25T00:00:00	2024-11-06T12:00:00	7	Dirección del viento	8.05
21991	7	Sololá	701	Sololá	3	Barraneche	4	Abril	2023-04-25T00:00:00	2024-11-06T12:00:00	1	Precipitación	0
21992	7	Sololá	701	Sololá	3	Barraneche	4	Abril	2023-04-25T00:00:00	2024-11-06T12:00:00	8	Radiación solar	387
21993	7	Sololá	701	Sololá	3	Barraneche	4	Abril	2023-04-25T00:00:00	2024-11-06T13:00:00	2	Temperatura media	17.4
21994	7	Sololá	701	Sololá	3	Barraneche	4	Abril	2023-04-25T00:00:00	2024-11-06T13:00:00	4	Temperatura máxima	18.4
21995	7	Sololá	701	Sololá	3	Barraneche	4	Abril	2023-04-25T00:00:00	2024-11-06T13:00:00	3	Temperatura mínima	17.4
21996	7	Sololá	701	Sololá	3	Barraneche	4	Abril	2023-04-25T00:00:00	2024-11-06T13:00:00	5	Humedad	69
21997	7	Sololá	701	Sololá	3	Barraneche	4	Abril	2023-04-25T00:00:00	2024-11-06T13:00:00	6	Velocidad del viento	11.3
21998	7	Sololá	701	Sololá	3	Barraneche	4	Abril	2023-04-25T00:00:00	2024-11-06T13:00:00	7	Dirección del viento	11.27
21999	7	Sololá	701	Sololá	3	Barraneche	4	Abril	2023-04-25T00:00:00	2024-11-06T13:00:00	1	Precipitación	0
22000	7	Sololá	701	Sololá	3	Barraneche	4	Abril	2023-04-25T00:00:00	2024-11-06T13:00:00	8	Radiación solar	474
22001	7	Sololá	701	Sololá	3	Barraneche	4	Abril	2023-04-25T00:00:00	2024-11-06T14:00:00	2	Temperatura media	16.1
22002	7	Sololá	701	Sololá	3	Barraneche	4	Abril	2023-04-25T00:00:00	2024-11-06T14:00:00	4	Temperatura máxima	17.5
22003	7	Sololá	701	Sololá	3	Barraneche	4	Abril	2023-04-25T00:00:00	2024-11-06T14:00:00	3	Temperatura mínima	16
22004	7	Sololá	701	Sololá	3	Barraneche	4	Abril	2023-04-25T00:00:00	2024-11-06T14:00:00	5	Humedad	73
22005	7	Sololá	701	Sololá	3	Barraneche	4	Abril	2023-04-25T00:00:00	2024-11-06T14:00:00	6	Velocidad del viento	9.7
22006	7	Sololá	701	Sololá	3	Barraneche	4	Abril	2023-04-25T00:00:00	2024-11-06T14:00:00	7	Dirección del viento	9.66
22007	7	Sololá	701	Sololá	3	Barraneche	4	Abril	2023-04-25T00:00:00	2024-11-06T14:00:00	1	Precipitación	0.2
22008	7	Sololá	701	Sololá	3	Barraneche	4	Abril	2023-04-25T00:00:00	2024-11-06T14:00:00	8	Radiación solar	119
22009	7	Sololá	701	Sololá	3	Barraneche	4	Abril	2023-04-25T00:00:00	2024-11-06T15:00:00	2	Temperatura media	15.9
22010	7	Sololá	701	Sololá	3	Barraneche	4	Abril	2023-04-25T00:00:00	2024-11-06T15:00:00	4	Temperatura máxima	16.1
22011	7	Sololá	701	Sololá	3	Barraneche	4	Abril	2023-04-25T00:00:00	2024-11-06T15:00:00	3	Temperatura mínima	15.7
22012	7	Sololá	701	Sololá	3	Barraneche	4	Abril	2023-04-25T00:00:00	2024-11-06T15:00:00	5	Humedad	71
22013	7	Sololá	701	Sololá	3	Barraneche	4	Abril	2023-04-25T00:00:00	2024-11-06T15:00:00	6	Velocidad del viento	3.2
22014	7	Sololá	701	Sololá	3	Barraneche	4	Abril	2023-04-25T00:00:00	2024-11-06T15:00:00	7	Dirección del viento	3.22
22015	7	Sololá	701	Sololá	3	Barraneche	4	Abril	2023-04-25T00:00:00	2024-11-06T15:00:00	1	Precipitación	5
22016	7	Sololá	701	Sololá	3	Barraneche	4	Abril	2023-04-25T00:00:00	2024-11-06T15:00:00	8	Radiación solar	232
22017	7	Sololá	701	Sololá	3	Barraneche	4	Abril	2023-04-25T00:00:00	2024-11-06T16:00:00	2	Temperatura media	15.9
22018	7	Sololá	701	Sololá	3	Barraneche	4	Abril	2023-04-25T00:00:00	2024-11-06T16:00:00	4	Temperatura máxima	17.1
22019	7	Sololá	701	Sololá	3	Barraneche	4	Abril	2023-04-25T00:00:00	2024-11-06T16:00:00	3	Temperatura mínima	15.9
22020	7	Sololá	701	Sololá	3	Barraneche	4	Abril	2023-04-25T00:00:00	2024-11-06T16:00:00	5	Humedad	73
22021	7	Sololá	701	Sololá	3	Barraneche	4	Abril	2023-04-25T00:00:00	2024-11-06T16:00:00	6	Velocidad del viento	4.8
22022	7	Sololá	701	Sololá	3	Barraneche	4	Abril	2023-04-25T00:00:00	2024-11-06T16:00:00	7	Dirección del viento	4.83
22023	7	Sololá	701	Sololá	3	Barraneche	4	Abril	2023-04-25T00:00:00	2024-11-06T16:00:00	1	Precipitación	0
22024	7	Sololá	701	Sololá	3	Barraneche	4	Abril	2023-04-25T00:00:00	2024-11-06T16:00:00	8	Radiación solar	281
22025	7	Sololá	701	Sololá	3	Barraneche	4	Abril	2023-04-25T00:00:00	2024-11-06T17:00:00	2	Temperatura media	15.4
22026	7	Sololá	701	Sololá	3	Barraneche	4	Abril	2023-04-25T00:00:00	2024-11-06T17:00:00	4	Temperatura máxima	16.1
22027	7	Sololá	701	Sololá	3	Barraneche	4	Abril	2023-04-25T00:00:00	2024-11-06T17:00:00	3	Temperatura mínima	15.4
22028	7	Sololá	701	Sololá	3	Barraneche	4	Abril	2023-04-25T00:00:00	2024-11-06T17:00:00	5	Humedad	79
22029	7	Sololá	701	Sololá	3	Barraneche	4	Abril	2023-04-25T00:00:00	2024-11-06T17:00:00	6	Velocidad del viento	6.4
22030	7	Sololá	701	Sololá	3	Barraneche	4	Abril	2023-04-25T00:00:00	2024-11-06T17:00:00	7	Dirección del viento	6.44
22031	7	Sololá	701	Sololá	3	Barraneche	4	Abril	2023-04-25T00:00:00	2024-11-06T17:00:00	1	Precipitación	0
22032	7	Sololá	701	Sololá	3	Barraneche	4	Abril	2023-04-25T00:00:00	2024-11-06T17:00:00	8	Radiación solar	129
22033	7	Sololá	701	Sololá	3	Barraneche	4	Abril	2023-04-25T00:00:00	2024-11-06T18:00:00	2	Temperatura media	15.1
22034	7	Sololá	701	Sololá	3	Barraneche	4	Abril	2023-04-25T00:00:00	2024-11-06T18:00:00	4	Temperatura máxima	15.5
22035	7	Sololá	701	Sololá	3	Barraneche	4	Abril	2023-04-25T00:00:00	2024-11-06T18:00:00	3	Temperatura mínima	15.1
22036	7	Sololá	701	Sololá	3	Barraneche	4	Abril	2023-04-25T00:00:00	2024-11-06T18:00:00	5	Humedad	79
22037	7	Sololá	701	Sololá	3	Barraneche	4	Abril	2023-04-25T00:00:00	2024-11-06T18:00:00	6	Velocidad del viento	3.2
22038	7	Sololá	701	Sololá	3	Barraneche	4	Abril	2023-04-25T00:00:00	2024-11-06T18:00:00	7	Dirección del viento	3.22
22039	7	Sololá	701	Sololá	3	Barraneche	4	Abril	2023-04-25T00:00:00	2024-11-06T18:00:00	1	Precipitación	0
22040	7	Sololá	701	Sololá	3	Barraneche	4	Abril	2023-04-25T00:00:00	2024-11-06T18:00:00	8	Radiación solar	45
22041	7	Sololá	701	Sololá	3	Barraneche	4	Abril	2023-04-25T00:00:00	2024-11-06T19:00:00	2	Temperatura media	15.1
22042	7	Sololá	701	Sololá	3	Barraneche	4	Abril	2023-04-25T00:00:00	2024-11-06T19:00:00	4	Temperatura máxima	15.3
22043	7	Sololá	701	Sololá	3	Barraneche	4	Abril	2023-04-25T00:00:00	2024-11-06T19:00:00	3	Temperatura mínima	15.1
22044	7	Sololá	701	Sololá	3	Barraneche	4	Abril	2023-04-25T00:00:00	2024-11-06T19:00:00	5	Humedad	81
22045	7	Sololá	701	Sololá	3	Barraneche	4	Abril	2023-04-25T00:00:00	2024-11-06T19:00:00	6	Velocidad del viento	1.6
22046	7	Sololá	701	Sololá	3	Barraneche	4	Abril	2023-04-25T00:00:00	2024-11-06T19:00:00	7	Dirección del viento	1.61
22047	7	Sololá	701	Sololá	3	Barraneche	4	Abril	2023-04-25T00:00:00	2024-11-06T19:00:00	1	Precipitación	0
22048	7	Sololá	701	Sololá	3	Barraneche	4	Abril	2023-04-25T00:00:00	2024-11-06T19:00:00	8	Radiación solar	0
22049	7	Sololá	701	Sololá	3	Barraneche	4	Abril	2023-04-25T00:00:00	2024-11-06T20:00:00	2	Temperatura media	14.4
22050	7	Sololá	701	Sololá	3	Barraneche	4	Abril	2023-04-25T00:00:00	2024-11-06T20:00:00	4	Temperatura máxima	15.2
22051	7	Sololá	701	Sololá	3	Barraneche	4	Abril	2023-04-25T00:00:00	2024-11-06T20:00:00	3	Temperatura mínima	14.4
22052	7	Sololá	701	Sololá	3	Barraneche	4	Abril	2023-04-25T00:00:00	2024-11-06T20:00:00	5	Humedad	81
22053	7	Sololá	701	Sololá	3	Barraneche	4	Abril	2023-04-25T00:00:00	2024-11-06T20:00:00	6	Velocidad del viento	1.6
22054	7	Sololá	701	Sololá	3	Barraneche	4	Abril	2023-04-25T00:00:00	2024-11-06T20:00:00	7	Dirección del viento	1.61
22055	7	Sololá	701	Sololá	3	Barraneche	4	Abril	2023-04-25T00:00:00	2024-11-06T20:00:00	1	Precipitación	0
22056	7	Sololá	701	Sololá	3	Barraneche	4	Abril	2023-04-25T00:00:00	2024-11-06T20:00:00	8	Radiación solar	0
22057	7	Sololá	701	Sololá	3	Barraneche	4	Abril	2023-04-25T00:00:00	2024-11-06T21:00:00	2	Temperatura media	13.4
22058	7	Sololá	701	Sololá	3	Barraneche	4	Abril	2023-04-25T00:00:00	2024-11-06T21:00:00	4	Temperatura máxima	14.5
22059	7	Sololá	701	Sololá	3	Barraneche	4	Abril	2023-04-25T00:00:00	2024-11-06T21:00:00	3	Temperatura mínima	13.4
22060	7	Sololá	701	Sololá	3	Barraneche	4	Abril	2023-04-25T00:00:00	2024-11-06T21:00:00	5	Humedad	71
22061	7	Sololá	701	Sololá	3	Barraneche	4	Abril	2023-04-25T00:00:00	2024-11-06T21:00:00	6	Velocidad del viento	8
22062	7	Sololá	701	Sololá	3	Barraneche	4	Abril	2023-04-25T00:00:00	2024-11-06T21:00:00	7	Dirección del viento	8.05
22063	7	Sololá	701	Sololá	3	Barraneche	4	Abril	2023-04-25T00:00:00	2024-11-06T21:00:00	1	Precipitación	0
22064	7	Sololá	701	Sololá	3	Barraneche	4	Abril	2023-04-25T00:00:00	2024-11-06T21:00:00	8	Radiación solar	0
22065	7	Sololá	701	Sololá	3	Barraneche	4	Abril	2023-04-25T00:00:00	2024-11-06T22:00:00	2	Temperatura media	13.1
22066	7	Sololá	701	Sololá	3	Barraneche	4	Abril	2023-04-25T00:00:00	2024-11-06T22:00:00	4	Temperatura máxima	13.4
22067	7	Sololá	701	Sololá	3	Barraneche	4	Abril	2023-04-25T00:00:00	2024-11-06T22:00:00	3	Temperatura mínima	12.8
22068	7	Sololá	701	Sololá	3	Barraneche	4	Abril	2023-04-25T00:00:00	2024-11-06T22:00:00	5	Humedad	71
22069	7	Sololá	701	Sololá	3	Barraneche	4	Abril	2023-04-25T00:00:00	2024-11-06T22:00:00	6	Velocidad del viento	8
22070	7	Sololá	701	Sololá	3	Barraneche	4	Abril	2023-04-25T00:00:00	2024-11-06T22:00:00	7	Dirección del viento	8.05
22071	7	Sololá	701	Sololá	3	Barraneche	4	Abril	2023-04-25T00:00:00	2024-11-06T22:00:00	1	Precipitación	0
22072	7	Sololá	701	Sololá	3	Barraneche	4	Abril	2023-04-25T00:00:00	2024-11-06T22:00:00	8	Radiación solar	0
22073	7	Sololá	701	Sololá	3	Barraneche	4	Abril	2023-04-25T00:00:00	2024-11-06T23:00:00	2	Temperatura media	13.3
22074	7	Sololá	701	Sololá	3	Barraneche	4	Abril	2023-04-25T00:00:00	2024-11-06T23:00:00	4	Temperatura máxima	13.3
22075	7	Sololá	701	Sololá	3	Barraneche	4	Abril	2023-04-25T00:00:00	2024-11-06T23:00:00	3	Temperatura mínima	13.1
22076	7	Sololá	701	Sololá	3	Barraneche	4	Abril	2023-04-25T00:00:00	2024-11-06T23:00:00	5	Humedad	71
22077	7	Sololá	701	Sololá	3	Barraneche	4	Abril	2023-04-25T00:00:00	2024-11-06T23:00:00	6	Velocidad del viento	6.4
22078	7	Sololá	701	Sololá	3	Barraneche	4	Abril	2023-04-25T00:00:00	2024-11-06T23:00:00	7	Dirección del viento	6.44
22079	7	Sololá	701	Sololá	3	Barraneche	4	Abril	2023-04-25T00:00:00	2024-11-06T23:00:00	1	Precipitación	0
22080	7	Sololá	701	Sololá	3	Barraneche	4	Abril	2023-04-25T00:00:00	2024-11-06T23:00:00	8	Radiación solar	0
22081	7	Sololá	701	Sololá	3	Barraneche	4	Abril	2023-04-26T00:00:00	2024-11-06T00:00:00	2	Temperatura media	13.1
22082	7	Sololá	701	Sololá	3	Barraneche	4	Abril	2023-04-26T00:00:00	2024-11-06T00:00:00	4	Temperatura máxima	13.3
22083	7	Sololá	701	Sololá	3	Barraneche	4	Abril	2023-04-26T00:00:00	2024-11-06T00:00:00	3	Temperatura mínima	13.1
22084	7	Sololá	701	Sololá	3	Barraneche	4	Abril	2023-04-26T00:00:00	2024-11-06T00:00:00	5	Humedad	74
22085	7	Sololá	701	Sololá	3	Barraneche	4	Abril	2023-04-26T00:00:00	2024-11-06T00:00:00	6	Velocidad del viento	3.2
22086	7	Sololá	701	Sololá	3	Barraneche	4	Abril	2023-04-26T00:00:00	2024-11-06T00:00:00	7	Dirección del viento	3.22
22087	7	Sololá	701	Sololá	3	Barraneche	4	Abril	2023-04-26T00:00:00	2024-11-06T00:00:00	1	Precipitación	0
22088	7	Sololá	701	Sololá	3	Barraneche	4	Abril	2023-04-26T00:00:00	2024-11-06T00:00:00	8	Radiación solar	0
22089	7	Sololá	701	Sololá	3	Barraneche	4	Abril	2023-04-26T00:00:00	2024-11-06T01:00:00	2	Temperatura media	13.1
22090	7	Sololá	701	Sololá	3	Barraneche	4	Abril	2023-04-26T00:00:00	2024-11-06T01:00:00	4	Temperatura máxima	13.3
22091	7	Sololá	701	Sololá	3	Barraneche	4	Abril	2023-04-26T00:00:00	2024-11-06T01:00:00	3	Temperatura mínima	13.1
22092	7	Sololá	701	Sololá	3	Barraneche	4	Abril	2023-04-26T00:00:00	2024-11-06T01:00:00	5	Humedad	75
22093	7	Sololá	701	Sololá	3	Barraneche	4	Abril	2023-04-26T00:00:00	2024-11-06T01:00:00	6	Velocidad del viento	3.2
22094	7	Sololá	701	Sololá	3	Barraneche	4	Abril	2023-04-26T00:00:00	2024-11-06T01:00:00	7	Dirección del viento	3.22
22095	7	Sololá	701	Sololá	3	Barraneche	4	Abril	2023-04-26T00:00:00	2024-11-06T01:00:00	1	Precipitación	0
22096	7	Sololá	701	Sololá	3	Barraneche	4	Abril	2023-04-26T00:00:00	2024-11-06T01:00:00	8	Radiación solar	0
22097	7	Sololá	701	Sololá	3	Barraneche	4	Abril	2023-04-26T00:00:00	2024-11-06T02:00:00	2	Temperatura media	13
22098	7	Sololá	701	Sololá	3	Barraneche	4	Abril	2023-04-26T00:00:00	2024-11-06T02:00:00	4	Temperatura máxima	13.2
22099	7	Sololá	701	Sololá	3	Barraneche	4	Abril	2023-04-26T00:00:00	2024-11-06T02:00:00	3	Temperatura mínima	13
22100	7	Sololá	701	Sololá	3	Barraneche	4	Abril	2023-04-26T00:00:00	2024-11-06T02:00:00	5	Humedad	78
22101	7	Sololá	701	Sololá	3	Barraneche	4	Abril	2023-04-26T00:00:00	2024-11-06T02:00:00	6	Velocidad del viento	3.2
22102	7	Sololá	701	Sololá	3	Barraneche	4	Abril	2023-04-26T00:00:00	2024-11-06T02:00:00	7	Dirección del viento	3.22
22103	7	Sololá	701	Sololá	3	Barraneche	4	Abril	2023-04-26T00:00:00	2024-11-06T02:00:00	1	Precipitación	0
22104	7	Sololá	701	Sololá	3	Barraneche	4	Abril	2023-04-26T00:00:00	2024-11-06T02:00:00	8	Radiación solar	0
22105	7	Sololá	701	Sololá	3	Barraneche	4	Abril	2023-04-26T00:00:00	2024-11-06T03:00:00	2	Temperatura media	12.9
22106	7	Sololá	701	Sololá	3	Barraneche	4	Abril	2023-04-26T00:00:00	2024-11-06T03:00:00	4	Temperatura máxima	13.1
22107	7	Sololá	701	Sololá	3	Barraneche	4	Abril	2023-04-26T00:00:00	2024-11-06T03:00:00	3	Temperatura mínima	12.8
22108	7	Sololá	701	Sololá	3	Barraneche	4	Abril	2023-04-26T00:00:00	2024-11-06T03:00:00	5	Humedad	80
22109	7	Sololá	701	Sololá	3	Barraneche	4	Abril	2023-04-26T00:00:00	2024-11-06T03:00:00	6	Velocidad del viento	1.6
22110	7	Sololá	701	Sololá	3	Barraneche	4	Abril	2023-04-26T00:00:00	2024-11-06T03:00:00	7	Dirección del viento	1.61
22111	7	Sololá	701	Sololá	3	Barraneche	4	Abril	2023-04-26T00:00:00	2024-11-06T03:00:00	1	Precipitación	0
22112	7	Sololá	701	Sololá	3	Barraneche	4	Abril	2023-04-26T00:00:00	2024-11-06T03:00:00	8	Radiación solar	0
22113	7	Sololá	701	Sololá	3	Barraneche	4	Abril	2023-04-26T00:00:00	2024-11-06T04:00:00	2	Temperatura media	12.7
22114	7	Sololá	701	Sololá	3	Barraneche	4	Abril	2023-04-26T00:00:00	2024-11-06T04:00:00	4	Temperatura máxima	12.9
22115	7	Sololá	701	Sololá	3	Barraneche	4	Abril	2023-04-26T00:00:00	2024-11-06T04:00:00	3	Temperatura mínima	12.6
22116	7	Sololá	701	Sololá	3	Barraneche	4	Abril	2023-04-26T00:00:00	2024-11-06T04:00:00	5	Humedad	82
22117	7	Sololá	701	Sololá	3	Barraneche	4	Abril	2023-04-26T00:00:00	2024-11-06T04:00:00	6	Velocidad del viento	1.6
22118	7	Sololá	701	Sololá	3	Barraneche	4	Abril	2023-04-26T00:00:00	2024-11-06T04:00:00	7	Dirección del viento	1.61
22119	7	Sololá	701	Sololá	3	Barraneche	4	Abril	2023-04-26T00:00:00	2024-11-06T04:00:00	1	Precipitación	0
22120	7	Sololá	701	Sololá	3	Barraneche	4	Abril	2023-04-26T00:00:00	2024-11-06T04:00:00	8	Radiación solar	0
22121	7	Sololá	701	Sololá	3	Barraneche	4	Abril	2023-04-26T00:00:00	2024-11-06T05:00:00	2	Temperatura media	12.7
22122	7	Sololá	701	Sololá	3	Barraneche	4	Abril	2023-04-26T00:00:00	2024-11-06T05:00:00	4	Temperatura máxima	12.8
22123	7	Sololá	701	Sololá	3	Barraneche	4	Abril	2023-04-26T00:00:00	2024-11-06T05:00:00	3	Temperatura mínima	12.6
22124	7	Sololá	701	Sololá	3	Barraneche	4	Abril	2023-04-26T00:00:00	2024-11-06T05:00:00	5	Humedad	80
22125	7	Sololá	701	Sololá	3	Barraneche	4	Abril	2023-04-26T00:00:00	2024-11-06T05:00:00	6	Velocidad del viento	3.2
22126	7	Sololá	701	Sololá	3	Barraneche	4	Abril	2023-04-26T00:00:00	2024-11-06T05:00:00	7	Dirección del viento	3.22
22127	7	Sololá	701	Sololá	3	Barraneche	4	Abril	2023-04-26T00:00:00	2024-11-06T05:00:00	1	Precipitación	0
22128	7	Sololá	701	Sololá	3	Barraneche	4	Abril	2023-04-26T00:00:00	2024-11-06T05:00:00	8	Radiación solar	0
22129	7	Sololá	701	Sololá	3	Barraneche	4	Abril	2023-04-26T00:00:00	2024-11-06T06:00:00	2	Temperatura media	12.2
22130	7	Sololá	701	Sololá	3	Barraneche	4	Abril	2023-04-26T00:00:00	2024-11-06T06:00:00	4	Temperatura máxima	12.8
22131	7	Sololá	701	Sololá	3	Barraneche	4	Abril	2023-04-26T00:00:00	2024-11-06T06:00:00	3	Temperatura mínima	12.2
22132	7	Sololá	701	Sololá	3	Barraneche	4	Abril	2023-04-26T00:00:00	2024-11-06T06:00:00	5	Humedad	78
22133	7	Sololá	701	Sololá	3	Barraneche	4	Abril	2023-04-26T00:00:00	2024-11-06T06:00:00	6	Velocidad del viento	3.2
22134	7	Sololá	701	Sololá	3	Barraneche	4	Abril	2023-04-26T00:00:00	2024-11-06T06:00:00	7	Dirección del viento	3.22
22135	7	Sololá	701	Sololá	3	Barraneche	4	Abril	2023-04-26T00:00:00	2024-11-06T06:00:00	1	Precipitación	0
22136	7	Sololá	701	Sololá	3	Barraneche	4	Abril	2023-04-26T00:00:00	2024-11-06T06:00:00	8	Radiación solar	3
22137	7	Sololá	701	Sololá	3	Barraneche	4	Abril	2023-04-26T00:00:00	2024-11-06T07:00:00	2	Temperatura media	13
22138	7	Sololá	701	Sololá	3	Barraneche	4	Abril	2023-04-26T00:00:00	2024-11-06T07:00:00	4	Temperatura máxima	13
22139	7	Sololá	701	Sololá	3	Barraneche	4	Abril	2023-04-26T00:00:00	2024-11-06T07:00:00	3	Temperatura mínima	11.9
22140	7	Sololá	701	Sololá	3	Barraneche	4	Abril	2023-04-26T00:00:00	2024-11-06T07:00:00	5	Humedad	74
22141	7	Sololá	701	Sololá	3	Barraneche	4	Abril	2023-04-26T00:00:00	2024-11-06T07:00:00	6	Velocidad del viento	3.2
22142	7	Sololá	701	Sololá	3	Barraneche	4	Abril	2023-04-26T00:00:00	2024-11-06T07:00:00	7	Dirección del viento	3.22
22143	7	Sololá	701	Sololá	3	Barraneche	4	Abril	2023-04-26T00:00:00	2024-11-06T07:00:00	1	Precipitación	0
22144	7	Sololá	701	Sololá	3	Barraneche	4	Abril	2023-04-26T00:00:00	2024-11-06T07:00:00	8	Radiación solar	80
22145	7	Sololá	701	Sololá	3	Barraneche	4	Abril	2023-04-26T00:00:00	2024-11-06T08:00:00	2	Temperatura media	15.3
22146	7	Sololá	701	Sololá	3	Barraneche	4	Abril	2023-04-26T00:00:00	2024-11-06T08:00:00	4	Temperatura máxima	15.3
22147	7	Sololá	701	Sololá	3	Barraneche	4	Abril	2023-04-26T00:00:00	2024-11-06T08:00:00	3	Temperatura mínima	13
22148	7	Sololá	701	Sololá	3	Barraneche	4	Abril	2023-04-26T00:00:00	2024-11-06T08:00:00	5	Humedad	66
22149	7	Sololá	701	Sololá	3	Barraneche	4	Abril	2023-04-26T00:00:00	2024-11-06T08:00:00	6	Velocidad del viento	1.6
22150	7	Sololá	701	Sololá	3	Barraneche	4	Abril	2023-04-26T00:00:00	2024-11-06T08:00:00	7	Dirección del viento	1.61
22151	7	Sololá	701	Sololá	3	Barraneche	4	Abril	2023-04-26T00:00:00	2024-11-06T08:00:00	1	Precipitación	0.2
22152	7	Sololá	701	Sololá	3	Barraneche	4	Abril	2023-04-26T00:00:00	2024-11-06T08:00:00	8	Radiación solar	244
22153	7	Sololá	701	Sololá	3	Barraneche	4	Abril	2023-04-26T00:00:00	2024-11-06T09:00:00	2	Temperatura media	17
22154	7	Sololá	701	Sololá	3	Barraneche	4	Abril	2023-04-26T00:00:00	2024-11-06T09:00:00	4	Temperatura máxima	17.2
22155	7	Sololá	701	Sololá	3	Barraneche	4	Abril	2023-04-26T00:00:00	2024-11-06T09:00:00	3	Temperatura mínima	15.3
22156	7	Sololá	701	Sololá	3	Barraneche	4	Abril	2023-04-26T00:00:00	2024-11-06T09:00:00	5	Humedad	63
22157	7	Sololá	701	Sololá	3	Barraneche	4	Abril	2023-04-26T00:00:00	2024-11-06T09:00:00	6	Velocidad del viento	3.2
22158	7	Sololá	701	Sololá	3	Barraneche	4	Abril	2023-04-26T00:00:00	2024-11-06T09:00:00	7	Dirección del viento	3.22
22159	7	Sololá	701	Sololá	3	Barraneche	4	Abril	2023-04-26T00:00:00	2024-11-06T09:00:00	1	Precipitación	0
22160	7	Sololá	701	Sololá	3	Barraneche	4	Abril	2023-04-26T00:00:00	2024-11-06T09:00:00	8	Radiación solar	571
22161	7	Sololá	701	Sololá	3	Barraneche	4	Abril	2023-04-26T00:00:00	2024-11-06T10:00:00	2	Temperatura media	17.3
22162	7	Sololá	701	Sololá	3	Barraneche	4	Abril	2023-04-26T00:00:00	2024-11-06T10:00:00	4	Temperatura máxima	17.8
22163	7	Sololá	701	Sololá	3	Barraneche	4	Abril	2023-04-26T00:00:00	2024-11-06T10:00:00	3	Temperatura mínima	16.9
22164	7	Sololá	701	Sololá	3	Barraneche	4	Abril	2023-04-26T00:00:00	2024-11-06T10:00:00	5	Humedad	68
22165	7	Sololá	701	Sololá	3	Barraneche	4	Abril	2023-04-26T00:00:00	2024-11-06T10:00:00	6	Velocidad del viento	8
22166	7	Sololá	701	Sololá	3	Barraneche	4	Abril	2023-04-26T00:00:00	2024-11-06T10:00:00	7	Dirección del viento	8.05
22167	7	Sololá	701	Sololá	3	Barraneche	4	Abril	2023-04-26T00:00:00	2024-11-06T10:00:00	1	Precipitación	0
22168	7	Sololá	701	Sololá	3	Barraneche	4	Abril	2023-04-26T00:00:00	2024-11-06T10:00:00	8	Radiación solar	815
22169	7	Sololá	701	Sololá	3	Barraneche	4	Abril	2023-04-26T00:00:00	2024-11-06T11:00:00	2	Temperatura media	16.9
22170	7	Sololá	701	Sololá	3	Barraneche	4	Abril	2023-04-26T00:00:00	2024-11-06T11:00:00	4	Temperatura máxima	17.6
22171	7	Sololá	701	Sololá	3	Barraneche	4	Abril	2023-04-26T00:00:00	2024-11-06T11:00:00	3	Temperatura mínima	16.7
22172	7	Sololá	701	Sololá	3	Barraneche	4	Abril	2023-04-26T00:00:00	2024-11-06T11:00:00	5	Humedad	67
22173	7	Sololá	701	Sololá	3	Barraneche	4	Abril	2023-04-26T00:00:00	2024-11-06T11:00:00	6	Velocidad del viento	9.7
22174	7	Sololá	701	Sololá	3	Barraneche	4	Abril	2023-04-26T00:00:00	2024-11-06T11:00:00	7	Dirección del viento	9.66
22175	7	Sololá	701	Sololá	3	Barraneche	4	Abril	2023-04-26T00:00:00	2024-11-06T11:00:00	1	Precipitación	0
22176	7	Sololá	701	Sololá	3	Barraneche	4	Abril	2023-04-26T00:00:00	2024-11-06T11:00:00	8	Radiación solar	363
22177	7	Sololá	701	Sololá	3	Barraneche	4	Abril	2023-04-26T00:00:00	2024-11-06T12:00:00	2	Temperatura media	17.6
22178	7	Sololá	701	Sololá	3	Barraneche	4	Abril	2023-04-26T00:00:00	2024-11-06T12:00:00	4	Temperatura máxima	17.7
22179	7	Sololá	701	Sololá	3	Barraneche	4	Abril	2023-04-26T00:00:00	2024-11-06T12:00:00	3	Temperatura mínima	16.9
22180	7	Sololá	701	Sololá	3	Barraneche	4	Abril	2023-04-26T00:00:00	2024-11-06T12:00:00	5	Humedad	67
22181	7	Sololá	701	Sololá	3	Barraneche	4	Abril	2023-04-26T00:00:00	2024-11-06T12:00:00	6	Velocidad del viento	8
22182	7	Sololá	701	Sololá	3	Barraneche	4	Abril	2023-04-26T00:00:00	2024-11-06T12:00:00	7	Dirección del viento	8.05
22183	7	Sololá	701	Sololá	3	Barraneche	4	Abril	2023-04-26T00:00:00	2024-11-06T12:00:00	1	Precipitación	0
22184	7	Sololá	701	Sololá	3	Barraneche	4	Abril	2023-04-26T00:00:00	2024-11-06T12:00:00	8	Radiación solar	401
22185	7	Sololá	701	Sololá	3	Barraneche	4	Abril	2023-04-26T00:00:00	2024-11-06T13:00:00	2	Temperatura media	17.3
22186	7	Sololá	701	Sololá	3	Barraneche	4	Abril	2023-04-26T00:00:00	2024-11-06T13:00:00	4	Temperatura máxima	18.3
22187	7	Sololá	701	Sololá	3	Barraneche	4	Abril	2023-04-26T00:00:00	2024-11-06T13:00:00	3	Temperatura mínima	17.3
22188	7	Sololá	701	Sololá	3	Barraneche	4	Abril	2023-04-26T00:00:00	2024-11-06T13:00:00	5	Humedad	69
22189	7	Sololá	701	Sololá	3	Barraneche	4	Abril	2023-04-26T00:00:00	2024-11-06T13:00:00	6	Velocidad del viento	11.3
22190	7	Sololá	701	Sololá	3	Barraneche	4	Abril	2023-04-26T00:00:00	2024-11-06T13:00:00	7	Dirección del viento	11.27
22191	7	Sololá	701	Sololá	3	Barraneche	4	Abril	2023-04-26T00:00:00	2024-11-06T13:00:00	1	Precipitación	0
22192	7	Sololá	701	Sololá	3	Barraneche	4	Abril	2023-04-26T00:00:00	2024-11-06T13:00:00	8	Radiación solar	435
22193	7	Sololá	701	Sololá	3	Barraneche	4	Abril	2023-04-26T00:00:00	2024-11-06T14:00:00	2	Temperatura media	15.5
22194	7	Sololá	701	Sololá	3	Barraneche	4	Abril	2023-04-26T00:00:00	2024-11-06T14:00:00	4	Temperatura máxima	17.4
22195	7	Sololá	701	Sololá	3	Barraneche	4	Abril	2023-04-26T00:00:00	2024-11-06T14:00:00	3	Temperatura mínima	15.4
22196	7	Sololá	701	Sololá	3	Barraneche	4	Abril	2023-04-26T00:00:00	2024-11-06T14:00:00	5	Humedad	77
22197	7	Sololá	701	Sololá	3	Barraneche	4	Abril	2023-04-26T00:00:00	2024-11-06T14:00:00	6	Velocidad del viento	8
22198	7	Sololá	701	Sololá	3	Barraneche	4	Abril	2023-04-26T00:00:00	2024-11-06T14:00:00	7	Dirección del viento	8.05
22199	7	Sololá	701	Sololá	3	Barraneche	4	Abril	2023-04-26T00:00:00	2024-11-06T14:00:00	1	Precipitación	5.8
22200	7	Sololá	701	Sololá	3	Barraneche	4	Abril	2023-04-26T00:00:00	2024-11-06T14:00:00	8	Radiación solar	118
22201	7	Sololá	701	Sololá	3	Barraneche	4	Abril	2023-04-26T00:00:00	2024-11-06T15:00:00	2	Temperatura media	14.9
22202	7	Sololá	701	Sololá	3	Barraneche	4	Abril	2023-04-26T00:00:00	2024-11-06T15:00:00	4	Temperatura máxima	15.5
22203	7	Sololá	701	Sololá	3	Barraneche	4	Abril	2023-04-26T00:00:00	2024-11-06T15:00:00	3	Temperatura mínima	14.8
22204	7	Sololá	701	Sololá	3	Barraneche	4	Abril	2023-04-26T00:00:00	2024-11-06T15:00:00	5	Humedad	83
22205	7	Sololá	701	Sololá	3	Barraneche	4	Abril	2023-04-26T00:00:00	2024-11-06T15:00:00	6	Velocidad del viento	3.2
22206	7	Sololá	701	Sololá	3	Barraneche	4	Abril	2023-04-26T00:00:00	2024-11-06T15:00:00	7	Dirección del viento	3.22
22207	7	Sololá	701	Sololá	3	Barraneche	4	Abril	2023-04-26T00:00:00	2024-11-06T15:00:00	1	Precipitación	7
22208	7	Sololá	701	Sololá	3	Barraneche	4	Abril	2023-04-26T00:00:00	2024-11-06T15:00:00	8	Radiación solar	90
22209	7	Sololá	701	Sololá	3	Barraneche	4	Abril	2023-04-26T00:00:00	2024-11-06T16:00:00	2	Temperatura media	15.8
22210	7	Sololá	701	Sololá	3	Barraneche	4	Abril	2023-04-26T00:00:00	2024-11-06T16:00:00	4	Temperatura máxima	15.9
22211	7	Sololá	701	Sololá	3	Barraneche	4	Abril	2023-04-26T00:00:00	2024-11-06T16:00:00	3	Temperatura mínima	14.9
22212	7	Sololá	701	Sololá	3	Barraneche	4	Abril	2023-04-26T00:00:00	2024-11-06T16:00:00	5	Humedad	73
22213	7	Sololá	701	Sololá	3	Barraneche	4	Abril	2023-04-26T00:00:00	2024-11-06T16:00:00	6	Velocidad del viento	3.2
22214	7	Sololá	701	Sololá	3	Barraneche	4	Abril	2023-04-26T00:00:00	2024-11-06T16:00:00	7	Dirección del viento	3.22
22215	7	Sololá	701	Sololá	3	Barraneche	4	Abril	2023-04-26T00:00:00	2024-11-06T16:00:00	1	Precipitación	0
22216	7	Sololá	701	Sololá	3	Barraneche	4	Abril	2023-04-26T00:00:00	2024-11-06T16:00:00	8	Radiación solar	230
22217	7	Sololá	701	Sololá	3	Barraneche	4	Abril	2023-04-26T00:00:00	2024-11-06T17:00:00	2	Temperatura media	15.6
22218	7	Sololá	701	Sololá	3	Barraneche	4	Abril	2023-04-26T00:00:00	2024-11-06T17:00:00	4	Temperatura máxima	16.1
22219	7	Sololá	701	Sololá	3	Barraneche	4	Abril	2023-04-26T00:00:00	2024-11-06T17:00:00	3	Temperatura mínima	15.6
22220	7	Sololá	701	Sololá	3	Barraneche	4	Abril	2023-04-26T00:00:00	2024-11-06T17:00:00	5	Humedad	74
22221	7	Sololá	701	Sololá	3	Barraneche	4	Abril	2023-04-26T00:00:00	2024-11-06T17:00:00	6	Velocidad del viento	4.8
22222	7	Sololá	701	Sololá	3	Barraneche	4	Abril	2023-04-26T00:00:00	2024-11-06T17:00:00	7	Dirección del viento	4.83
22223	7	Sololá	701	Sololá	3	Barraneche	4	Abril	2023-04-26T00:00:00	2024-11-06T17:00:00	1	Precipitación	0
22224	7	Sololá	701	Sololá	3	Barraneche	4	Abril	2023-04-26T00:00:00	2024-11-06T17:00:00	8	Radiación solar	125
22225	7	Sololá	701	Sololá	3	Barraneche	4	Abril	2023-04-26T00:00:00	2024-11-06T18:00:00	2	Temperatura media	14.9
22226	7	Sololá	701	Sololá	3	Barraneche	4	Abril	2023-04-26T00:00:00	2024-11-06T18:00:00	4	Temperatura máxima	15.6
22227	7	Sololá	701	Sololá	3	Barraneche	4	Abril	2023-04-26T00:00:00	2024-11-06T18:00:00	3	Temperatura mínima	14.9
22228	7	Sololá	701	Sololá	3	Barraneche	4	Abril	2023-04-26T00:00:00	2024-11-06T18:00:00	5	Humedad	78
22229	7	Sololá	701	Sololá	3	Barraneche	4	Abril	2023-04-26T00:00:00	2024-11-06T18:00:00	6	Velocidad del viento	4.8
22230	7	Sololá	701	Sololá	3	Barraneche	4	Abril	2023-04-26T00:00:00	2024-11-06T18:00:00	7	Dirección del viento	4.83
22231	7	Sololá	701	Sololá	3	Barraneche	4	Abril	2023-04-26T00:00:00	2024-11-06T18:00:00	1	Precipitación	0
22232	7	Sololá	701	Sololá	3	Barraneche	4	Abril	2023-04-26T00:00:00	2024-11-06T18:00:00	8	Radiación solar	27
22233	7	Sololá	701	Sololá	3	Barraneche	4	Abril	2023-04-26T00:00:00	2024-11-06T19:00:00	2	Temperatura media	13.3
22234	7	Sololá	701	Sololá	3	Barraneche	4	Abril	2023-04-26T00:00:00	2024-11-06T19:00:00	4	Temperatura máxima	14.9
22235	7	Sololá	701	Sololá	3	Barraneche	4	Abril	2023-04-26T00:00:00	2024-11-06T19:00:00	3	Temperatura mínima	13.3
22236	7	Sololá	701	Sololá	3	Barraneche	4	Abril	2023-04-26T00:00:00	2024-11-06T19:00:00	5	Humedad	71
22237	7	Sololá	701	Sololá	3	Barraneche	4	Abril	2023-04-26T00:00:00	2024-11-06T19:00:00	6	Velocidad del viento	6.4
22238	7	Sololá	701	Sololá	3	Barraneche	4	Abril	2023-04-26T00:00:00	2024-11-06T19:00:00	7	Dirección del viento	6.44
22239	7	Sololá	701	Sololá	3	Barraneche	4	Abril	2023-04-26T00:00:00	2024-11-06T19:00:00	1	Precipitación	0
22240	7	Sololá	701	Sololá	3	Barraneche	4	Abril	2023-04-26T00:00:00	2024-11-06T19:00:00	8	Radiación solar	0
22241	7	Sololá	701	Sololá	3	Barraneche	4	Abril	2023-04-26T00:00:00	2024-11-06T20:00:00	2	Temperatura media	12.8
22242	7	Sololá	701	Sololá	3	Barraneche	4	Abril	2023-04-26T00:00:00	2024-11-06T20:00:00	4	Temperatura máxima	13.3
22243	7	Sololá	701	Sololá	3	Barraneche	4	Abril	2023-04-26T00:00:00	2024-11-06T20:00:00	3	Temperatura mínima	12.6
22244	7	Sololá	701	Sololá	3	Barraneche	4	Abril	2023-04-26T00:00:00	2024-11-06T20:00:00	5	Humedad	72
22245	7	Sololá	701	Sololá	3	Barraneche	4	Abril	2023-04-26T00:00:00	2024-11-06T20:00:00	6	Velocidad del viento	8
22246	7	Sololá	701	Sololá	3	Barraneche	4	Abril	2023-04-26T00:00:00	2024-11-06T20:00:00	7	Dirección del viento	8.05
22247	7	Sololá	701	Sololá	3	Barraneche	4	Abril	2023-04-26T00:00:00	2024-11-06T20:00:00	1	Precipitación	0
22248	7	Sololá	701	Sololá	3	Barraneche	4	Abril	2023-04-26T00:00:00	2024-11-06T20:00:00	8	Radiación solar	0
22249	7	Sololá	701	Sololá	3	Barraneche	4	Abril	2023-04-26T00:00:00	2024-11-06T21:00:00	2	Temperatura media	12.8
22250	7	Sololá	701	Sololá	3	Barraneche	4	Abril	2023-04-26T00:00:00	2024-11-06T21:00:00	4	Temperatura máxima	12.8
22251	7	Sololá	701	Sololá	3	Barraneche	4	Abril	2023-04-26T00:00:00	2024-11-06T21:00:00	3	Temperatura mínima	12.4
22252	7	Sololá	701	Sololá	3	Barraneche	4	Abril	2023-04-26T00:00:00	2024-11-06T21:00:00	5	Humedad	73
22253	7	Sololá	701	Sololá	3	Barraneche	4	Abril	2023-04-26T00:00:00	2024-11-06T21:00:00	6	Velocidad del viento	4.8
22254	7	Sololá	701	Sololá	3	Barraneche	4	Abril	2023-04-26T00:00:00	2024-11-06T21:00:00	7	Dirección del viento	4.83
22255	7	Sololá	701	Sololá	3	Barraneche	4	Abril	2023-04-26T00:00:00	2024-11-06T21:00:00	1	Precipitación	0
22256	7	Sololá	701	Sololá	3	Barraneche	4	Abril	2023-04-26T00:00:00	2024-11-06T21:00:00	8	Radiación solar	0
22257	7	Sololá	701	Sololá	3	Barraneche	4	Abril	2023-04-26T00:00:00	2024-11-06T22:00:00	2	Temperatura media	12.8
22258	7	Sololá	701	Sololá	3	Barraneche	4	Abril	2023-04-26T00:00:00	2024-11-06T22:00:00	4	Temperatura máxima	12.8
22259	7	Sololá	701	Sololá	3	Barraneche	4	Abril	2023-04-26T00:00:00	2024-11-06T22:00:00	3	Temperatura mínima	12.3
22260	7	Sololá	701	Sololá	3	Barraneche	4	Abril	2023-04-26T00:00:00	2024-11-06T22:00:00	5	Humedad	69
22261	7	Sololá	701	Sololá	3	Barraneche	4	Abril	2023-04-26T00:00:00	2024-11-06T22:00:00	6	Velocidad del viento	6.4
22262	7	Sololá	701	Sololá	3	Barraneche	4	Abril	2023-04-26T00:00:00	2024-11-06T22:00:00	7	Dirección del viento	6.44
22263	7	Sololá	701	Sololá	3	Barraneche	4	Abril	2023-04-26T00:00:00	2024-11-06T22:00:00	1	Precipitación	0
22264	7	Sololá	701	Sololá	3	Barraneche	4	Abril	2023-04-26T00:00:00	2024-11-06T22:00:00	8	Radiación solar	0
22265	7	Sololá	701	Sololá	3	Barraneche	4	Abril	2023-04-26T00:00:00	2024-11-06T23:00:00	2	Temperatura media	12.3
22266	7	Sololá	701	Sololá	3	Barraneche	4	Abril	2023-04-26T00:00:00	2024-11-06T23:00:00	4	Temperatura máxima	12.8
22267	7	Sololá	701	Sololá	3	Barraneche	4	Abril	2023-04-26T00:00:00	2024-11-06T23:00:00	3	Temperatura mínima	12.2
22268	7	Sololá	701	Sololá	3	Barraneche	4	Abril	2023-04-26T00:00:00	2024-11-06T23:00:00	5	Humedad	70
22269	7	Sololá	701	Sololá	3	Barraneche	4	Abril	2023-04-26T00:00:00	2024-11-06T23:00:00	6	Velocidad del viento	6.4
22270	7	Sololá	701	Sololá	3	Barraneche	4	Abril	2023-04-26T00:00:00	2024-11-06T23:00:00	7	Dirección del viento	6.44
22271	7	Sololá	701	Sololá	3	Barraneche	4	Abril	2023-04-26T00:00:00	2024-11-06T23:00:00	1	Precipitación	0
22272	7	Sololá	701	Sololá	3	Barraneche	4	Abril	2023-04-26T00:00:00	2024-11-06T23:00:00	8	Radiación solar	0
22273	7	Sololá	701	Sololá	3	Barraneche	4	Abril	2023-04-27T00:00:00	2024-11-06T00:00:00	2	Temperatura media	12.8
22274	7	Sololá	701	Sololá	3	Barraneche	4	Abril	2023-04-27T00:00:00	2024-11-06T00:00:00	4	Temperatura máxima	12.9
22275	7	Sololá	701	Sololá	3	Barraneche	4	Abril	2023-04-27T00:00:00	2024-11-06T00:00:00	3	Temperatura mínima	12.4
22276	7	Sololá	701	Sololá	3	Barraneche	4	Abril	2023-04-27T00:00:00	2024-11-06T00:00:00	5	Humedad	66
22277	7	Sololá	701	Sololá	3	Barraneche	4	Abril	2023-04-27T00:00:00	2024-11-06T00:00:00	6	Velocidad del viento	11.3
22278	7	Sololá	701	Sololá	3	Barraneche	4	Abril	2023-04-27T00:00:00	2024-11-06T00:00:00	7	Dirección del viento	11.27
22279	7	Sololá	701	Sololá	3	Barraneche	4	Abril	2023-04-27T00:00:00	2024-11-06T00:00:00	1	Precipitación	0
22280	7	Sololá	701	Sololá	3	Barraneche	4	Abril	2023-04-27T00:00:00	2024-11-06T00:00:00	8	Radiación solar	0
22281	7	Sololá	701	Sololá	3	Barraneche	4	Abril	2023-04-27T00:00:00	2024-11-06T01:00:00	2	Temperatura media	11.9
22282	7	Sololá	701	Sololá	3	Barraneche	4	Abril	2023-04-27T00:00:00	2024-11-06T01:00:00	4	Temperatura máxima	12.8
22283	7	Sololá	701	Sololá	3	Barraneche	4	Abril	2023-04-27T00:00:00	2024-11-06T01:00:00	3	Temperatura mínima	11.7
22284	7	Sololá	701	Sololá	3	Barraneche	4	Abril	2023-04-27T00:00:00	2024-11-06T01:00:00	5	Humedad	70
22285	7	Sololá	701	Sololá	3	Barraneche	4	Abril	2023-04-27T00:00:00	2024-11-06T01:00:00	6	Velocidad del viento	8
22286	7	Sololá	701	Sololá	3	Barraneche	4	Abril	2023-04-27T00:00:00	2024-11-06T01:00:00	7	Dirección del viento	8.05
22287	7	Sololá	701	Sololá	3	Barraneche	4	Abril	2023-04-27T00:00:00	2024-11-06T01:00:00	1	Precipitación	0
22288	7	Sololá	701	Sololá	3	Barraneche	4	Abril	2023-04-27T00:00:00	2024-11-06T01:00:00	8	Radiación solar	0
22289	7	Sololá	701	Sololá	3	Barraneche	4	Abril	2023-04-27T00:00:00	2024-11-06T02:00:00	2	Temperatura media	11.8
22290	7	Sololá	701	Sololá	3	Barraneche	4	Abril	2023-04-27T00:00:00	2024-11-06T02:00:00	4	Temperatura máxima	12.1
22291	7	Sololá	701	Sololá	3	Barraneche	4	Abril	2023-04-27T00:00:00	2024-11-06T02:00:00	3	Temperatura mínima	11.6
22292	7	Sololá	701	Sololá	3	Barraneche	4	Abril	2023-04-27T00:00:00	2024-11-06T02:00:00	5	Humedad	71
22293	7	Sololá	701	Sololá	3	Barraneche	4	Abril	2023-04-27T00:00:00	2024-11-06T02:00:00	6	Velocidad del viento	8
22294	7	Sololá	701	Sololá	3	Barraneche	4	Abril	2023-04-27T00:00:00	2024-11-06T02:00:00	7	Dirección del viento	8.05
22295	7	Sololá	701	Sololá	3	Barraneche	4	Abril	2023-04-27T00:00:00	2024-11-06T02:00:00	1	Precipitación	0
22296	7	Sololá	701	Sololá	3	Barraneche	4	Abril	2023-04-27T00:00:00	2024-11-06T02:00:00	8	Radiación solar	0
22297	7	Sololá	701	Sololá	3	Barraneche	4	Abril	2023-04-27T00:00:00	2024-11-06T03:00:00	2	Temperatura media	11.4
22298	7	Sololá	701	Sololá	3	Barraneche	4	Abril	2023-04-27T00:00:00	2024-11-06T03:00:00	4	Temperatura máxima	11.9
22299	7	Sololá	701	Sololá	3	Barraneche	4	Abril	2023-04-27T00:00:00	2024-11-06T03:00:00	3	Temperatura mínima	11.4
22300	7	Sololá	701	Sololá	3	Barraneche	4	Abril	2023-04-27T00:00:00	2024-11-06T03:00:00	5	Humedad	72
22301	7	Sololá	701	Sololá	3	Barraneche	4	Abril	2023-04-27T00:00:00	2024-11-06T03:00:00	6	Velocidad del viento	6.4
22302	7	Sololá	701	Sololá	3	Barraneche	4	Abril	2023-04-27T00:00:00	2024-11-06T03:00:00	7	Dirección del viento	6.44
22303	7	Sololá	701	Sololá	3	Barraneche	4	Abril	2023-04-27T00:00:00	2024-11-06T03:00:00	1	Precipitación	0
22304	7	Sololá	701	Sololá	3	Barraneche	4	Abril	2023-04-27T00:00:00	2024-11-06T03:00:00	8	Radiación solar	0
22305	7	Sololá	701	Sololá	3	Barraneche	4	Abril	2023-04-27T00:00:00	2024-11-06T04:00:00	2	Temperatura media	11.8
22306	7	Sololá	701	Sololá	3	Barraneche	4	Abril	2023-04-27T00:00:00	2024-11-06T04:00:00	4	Temperatura máxima	12
22307	7	Sololá	701	Sololá	3	Barraneche	4	Abril	2023-04-27T00:00:00	2024-11-06T04:00:00	3	Temperatura mínima	11.3
22308	7	Sololá	701	Sololá	3	Barraneche	4	Abril	2023-04-27T00:00:00	2024-11-06T04:00:00	5	Humedad	69
22309	7	Sololá	701	Sololá	3	Barraneche	4	Abril	2023-04-27T00:00:00	2024-11-06T04:00:00	6	Velocidad del viento	8
22310	7	Sololá	701	Sololá	3	Barraneche	4	Abril	2023-04-27T00:00:00	2024-11-06T04:00:00	7	Dirección del viento	8.05
22311	7	Sololá	701	Sololá	3	Barraneche	4	Abril	2023-04-27T00:00:00	2024-11-06T04:00:00	1	Precipitación	0
22312	7	Sololá	701	Sololá	3	Barraneche	4	Abril	2023-04-27T00:00:00	2024-11-06T04:00:00	8	Radiación solar	0
22313	7	Sololá	701	Sololá	3	Barraneche	4	Abril	2023-04-27T00:00:00	2024-11-06T05:00:00	2	Temperatura media	11.6
22314	7	Sololá	701	Sololá	3	Barraneche	4	Abril	2023-04-27T00:00:00	2024-11-06T05:00:00	4	Temperatura máxima	11.8
22315	7	Sololá	701	Sololá	3	Barraneche	4	Abril	2023-04-27T00:00:00	2024-11-06T05:00:00	3	Temperatura mínima	11.4
22316	7	Sololá	701	Sololá	3	Barraneche	4	Abril	2023-04-27T00:00:00	2024-11-06T05:00:00	5	Humedad	69
22317	7	Sololá	701	Sololá	3	Barraneche	4	Abril	2023-04-27T00:00:00	2024-11-06T05:00:00	6	Velocidad del viento	8
22318	7	Sololá	701	Sololá	3	Barraneche	4	Abril	2023-04-27T00:00:00	2024-11-06T05:00:00	7	Dirección del viento	8.05
22319	7	Sololá	701	Sololá	3	Barraneche	4	Abril	2023-04-27T00:00:00	2024-11-06T05:00:00	1	Precipitación	0
22320	7	Sololá	701	Sololá	3	Barraneche	4	Abril	2023-04-27T00:00:00	2024-11-06T05:00:00	8	Radiación solar	0
22321	7	Sololá	701	Sololá	3	Barraneche	4	Abril	2023-04-27T00:00:00	2024-11-06T06:00:00	2	Temperatura media	11.4
22322	7	Sololá	701	Sololá	3	Barraneche	4	Abril	2023-04-27T00:00:00	2024-11-06T06:00:00	4	Temperatura máxima	11.8
22323	7	Sololá	701	Sololá	3	Barraneche	4	Abril	2023-04-27T00:00:00	2024-11-06T06:00:00	3	Temperatura mínima	11.3
22324	7	Sololá	701	Sololá	3	Barraneche	4	Abril	2023-04-27T00:00:00	2024-11-06T06:00:00	5	Humedad	68
22325	7	Sololá	701	Sololá	3	Barraneche	4	Abril	2023-04-27T00:00:00	2024-11-06T06:00:00	6	Velocidad del viento	9.7
22326	7	Sololá	701	Sololá	3	Barraneche	4	Abril	2023-04-27T00:00:00	2024-11-06T06:00:00	7	Dirección del viento	9.66
22327	7	Sololá	701	Sololá	3	Barraneche	4	Abril	2023-04-27T00:00:00	2024-11-06T06:00:00	1	Precipitación	0
22328	7	Sololá	701	Sololá	3	Barraneche	4	Abril	2023-04-27T00:00:00	2024-11-06T06:00:00	8	Radiación solar	3
22329	7	Sololá	701	Sololá	3	Barraneche	4	Abril	2023-04-27T00:00:00	2024-11-06T07:00:00	2	Temperatura media	13.1
22330	7	Sololá	701	Sololá	3	Barraneche	4	Abril	2023-04-27T00:00:00	2024-11-06T07:00:00	4	Temperatura máxima	13.1
22331	7	Sololá	701	Sololá	3	Barraneche	4	Abril	2023-04-27T00:00:00	2024-11-06T07:00:00	3	Temperatura mínima	11.4
22332	7	Sololá	701	Sololá	3	Barraneche	4	Abril	2023-04-27T00:00:00	2024-11-06T07:00:00	5	Humedad	64
22333	7	Sololá	701	Sololá	3	Barraneche	4	Abril	2023-04-27T00:00:00	2024-11-06T07:00:00	6	Velocidad del viento	9.7
22334	7	Sololá	701	Sololá	3	Barraneche	4	Abril	2023-04-27T00:00:00	2024-11-06T07:00:00	7	Dirección del viento	9.66
22335	7	Sololá	701	Sololá	3	Barraneche	4	Abril	2023-04-27T00:00:00	2024-11-06T07:00:00	1	Precipitación	0
22336	7	Sololá	701	Sololá	3	Barraneche	4	Abril	2023-04-27T00:00:00	2024-11-06T07:00:00	8	Radiación solar	100
22337	7	Sololá	701	Sololá	3	Barraneche	4	Abril	2023-04-27T00:00:00	2024-11-06T08:00:00	2	Temperatura media	15.7
22338	7	Sololá	701	Sololá	3	Barraneche	4	Abril	2023-04-27T00:00:00	2024-11-06T08:00:00	4	Temperatura máxima	15.7
22339	7	Sololá	701	Sololá	3	Barraneche	4	Abril	2023-04-27T00:00:00	2024-11-06T08:00:00	3	Temperatura mínima	13.1
22340	7	Sololá	701	Sololá	3	Barraneche	4	Abril	2023-04-27T00:00:00	2024-11-06T08:00:00	5	Humedad	60
22341	7	Sololá	701	Sololá	3	Barraneche	4	Abril	2023-04-27T00:00:00	2024-11-06T08:00:00	6	Velocidad del viento	4.8
22342	7	Sololá	701	Sololá	3	Barraneche	4	Abril	2023-04-27T00:00:00	2024-11-06T08:00:00	7	Dirección del viento	4.83
22343	7	Sololá	701	Sololá	3	Barraneche	4	Abril	2023-04-27T00:00:00	2024-11-06T08:00:00	1	Precipitación	0
22344	7	Sololá	701	Sololá	3	Barraneche	4	Abril	2023-04-27T00:00:00	2024-11-06T08:00:00	8	Radiación solar	336
22345	7	Sololá	701	Sololá	3	Barraneche	4	Abril	2023-04-27T00:00:00	2024-11-06T09:00:00	2	Temperatura media	17.8
22346	7	Sololá	701	Sololá	3	Barraneche	4	Abril	2023-04-27T00:00:00	2024-11-06T09:00:00	4	Temperatura máxima	17.9
22347	7	Sololá	701	Sololá	3	Barraneche	4	Abril	2023-04-27T00:00:00	2024-11-06T09:00:00	3	Temperatura mínima	15.7
22348	7	Sololá	701	Sololá	3	Barraneche	4	Abril	2023-04-27T00:00:00	2024-11-06T09:00:00	5	Humedad	59
22349	7	Sololá	701	Sololá	3	Barraneche	4	Abril	2023-04-27T00:00:00	2024-11-06T09:00:00	6	Velocidad del viento	3.2
22350	7	Sololá	701	Sololá	3	Barraneche	4	Abril	2023-04-27T00:00:00	2024-11-06T09:00:00	7	Dirección del viento	3.22
22351	7	Sololá	701	Sololá	3	Barraneche	4	Abril	2023-04-27T00:00:00	2024-11-06T09:00:00	1	Precipitación	0
22352	7	Sololá	701	Sololá	3	Barraneche	4	Abril	2023-04-27T00:00:00	2024-11-06T09:00:00	8	Radiación solar	593
22353	7	Sololá	701	Sololá	3	Barraneche	4	Abril	2023-04-27T00:00:00	2024-11-06T10:00:00	2	Temperatura media	17.9
22354	7	Sololá	701	Sololá	3	Barraneche	4	Abril	2023-04-27T00:00:00	2024-11-06T10:00:00	4	Temperatura máxima	18.2
22355	7	Sololá	701	Sololá	3	Barraneche	4	Abril	2023-04-27T00:00:00	2024-11-06T10:00:00	3	Temperatura mínima	17.6
22356	7	Sololá	701	Sololá	3	Barraneche	4	Abril	2023-04-27T00:00:00	2024-11-06T10:00:00	5	Humedad	65
22357	7	Sololá	701	Sololá	3	Barraneche	4	Abril	2023-04-27T00:00:00	2024-11-06T10:00:00	6	Velocidad del viento	9.7
22358	7	Sololá	701	Sololá	3	Barraneche	4	Abril	2023-04-27T00:00:00	2024-11-06T10:00:00	7	Dirección del viento	9.66
22359	7	Sololá	701	Sololá	3	Barraneche	4	Abril	2023-04-27T00:00:00	2024-11-06T10:00:00	1	Precipitación	0
22360	7	Sololá	701	Sololá	3	Barraneche	4	Abril	2023-04-27T00:00:00	2024-11-06T10:00:00	8	Radiación solar	799
22361	7	Sololá	701	Sololá	3	Barraneche	4	Abril	2023-04-27T00:00:00	2024-11-06T11:00:00	2	Temperatura media	18.2
22362	7	Sololá	701	Sololá	3	Barraneche	4	Abril	2023-04-27T00:00:00	2024-11-06T11:00:00	4	Temperatura máxima	18.2
22363	7	Sololá	701	Sololá	3	Barraneche	4	Abril	2023-04-27T00:00:00	2024-11-06T11:00:00	3	Temperatura mínima	17.6
22364	7	Sololá	701	Sololá	3	Barraneche	4	Abril	2023-04-27T00:00:00	2024-11-06T11:00:00	5	Humedad	67
22365	7	Sololá	701	Sololá	3	Barraneche	4	Abril	2023-04-27T00:00:00	2024-11-06T11:00:00	6	Velocidad del viento	11.3
22366	7	Sololá	701	Sololá	3	Barraneche	4	Abril	2023-04-27T00:00:00	2024-11-06T11:00:00	7	Dirección del viento	11.27
22367	7	Sololá	701	Sololá	3	Barraneche	4	Abril	2023-04-27T00:00:00	2024-11-06T11:00:00	1	Precipitación	0
22368	7	Sololá	701	Sololá	3	Barraneche	4	Abril	2023-04-27T00:00:00	2024-11-06T11:00:00	8	Radiación solar	967
22369	7	Sololá	701	Sololá	3	Barraneche	4	Abril	2023-04-27T00:00:00	2024-11-06T12:00:00	2	Temperatura media	18.5
22370	7	Sololá	701	Sololá	3	Barraneche	4	Abril	2023-04-27T00:00:00	2024-11-06T12:00:00	4	Temperatura máxima	18.7
22371	7	Sololá	701	Sololá	3	Barraneche	4	Abril	2023-04-27T00:00:00	2024-11-06T12:00:00	3	Temperatura mínima	18.2
22372	7	Sololá	701	Sololá	3	Barraneche	4	Abril	2023-04-27T00:00:00	2024-11-06T12:00:00	5	Humedad	64
22373	7	Sololá	701	Sololá	3	Barraneche	4	Abril	2023-04-27T00:00:00	2024-11-06T12:00:00	6	Velocidad del viento	12.9
22374	7	Sololá	701	Sololá	3	Barraneche	4	Abril	2023-04-27T00:00:00	2024-11-06T12:00:00	7	Dirección del viento	12.87
22375	7	Sololá	701	Sololá	3	Barraneche	4	Abril	2023-04-27T00:00:00	2024-11-06T12:00:00	1	Precipitación	0
22376	7	Sololá	701	Sololá	3	Barraneche	4	Abril	2023-04-27T00:00:00	2024-11-06T12:00:00	8	Radiación solar	1061
22377	7	Sololá	701	Sololá	3	Barraneche	4	Abril	2023-04-27T00:00:00	2024-11-06T13:00:00	2	Temperatura media	18.1
22378	7	Sololá	701	Sololá	3	Barraneche	4	Abril	2023-04-27T00:00:00	2024-11-06T13:00:00	4	Temperatura máxima	18.7
22379	7	Sololá	701	Sololá	3	Barraneche	4	Abril	2023-04-27T00:00:00	2024-11-06T13:00:00	3	Temperatura mínima	17.9
22380	7	Sololá	701	Sololá	3	Barraneche	4	Abril	2023-04-27T00:00:00	2024-11-06T13:00:00	5	Humedad	69
22381	7	Sololá	701	Sololá	3	Barraneche	4	Abril	2023-04-27T00:00:00	2024-11-06T13:00:00	6	Velocidad del viento	12.9
22382	7	Sololá	701	Sololá	3	Barraneche	4	Abril	2023-04-27T00:00:00	2024-11-06T13:00:00	7	Dirección del viento	12.87
22383	7	Sololá	701	Sololá	3	Barraneche	4	Abril	2023-04-27T00:00:00	2024-11-06T13:00:00	1	Precipitación	0
22384	7	Sololá	701	Sololá	3	Barraneche	4	Abril	2023-04-27T00:00:00	2024-11-06T13:00:00	8	Radiación solar	1026
22385	7	Sololá	701	Sololá	3	Barraneche	4	Abril	2023-04-27T00:00:00	2024-11-06T14:00:00	2	Temperatura media	17.9
22386	7	Sololá	701	Sololá	3	Barraneche	4	Abril	2023-04-27T00:00:00	2024-11-06T14:00:00	4	Temperatura máxima	18.3
22387	7	Sololá	701	Sololá	3	Barraneche	4	Abril	2023-04-27T00:00:00	2024-11-06T14:00:00	3	Temperatura mínima	17.7
22388	7	Sololá	701	Sololá	3	Barraneche	4	Abril	2023-04-27T00:00:00	2024-11-06T14:00:00	5	Humedad	68
22389	7	Sololá	701	Sololá	3	Barraneche	4	Abril	2023-04-27T00:00:00	2024-11-06T14:00:00	6	Velocidad del viento	12.9
22390	7	Sololá	701	Sololá	3	Barraneche	4	Abril	2023-04-27T00:00:00	2024-11-06T14:00:00	7	Dirección del viento	12.87
22391	7	Sololá	701	Sololá	3	Barraneche	4	Abril	2023-04-27T00:00:00	2024-11-06T14:00:00	1	Precipitación	0
22392	7	Sololá	701	Sololá	3	Barraneche	4	Abril	2023-04-27T00:00:00	2024-11-06T14:00:00	8	Radiación solar	625
22393	7	Sololá	701	Sololá	3	Barraneche	4	Abril	2023-04-27T00:00:00	2024-11-06T15:00:00	2	Temperatura media	16.4
22394	7	Sololá	701	Sololá	3	Barraneche	4	Abril	2023-04-27T00:00:00	2024-11-06T15:00:00	4	Temperatura máxima	18
22395	7	Sololá	701	Sololá	3	Barraneche	4	Abril	2023-04-27T00:00:00	2024-11-06T15:00:00	3	Temperatura mínima	16.4
22396	7	Sololá	701	Sololá	3	Barraneche	4	Abril	2023-04-27T00:00:00	2024-11-06T15:00:00	5	Humedad	71
22397	7	Sololá	701	Sololá	3	Barraneche	4	Abril	2023-04-27T00:00:00	2024-11-06T15:00:00	6	Velocidad del viento	12.9
22398	7	Sololá	701	Sololá	3	Barraneche	4	Abril	2023-04-27T00:00:00	2024-11-06T15:00:00	7	Dirección del viento	12.87
22399	7	Sololá	701	Sololá	3	Barraneche	4	Abril	2023-04-27T00:00:00	2024-11-06T15:00:00	1	Precipitación	0
22400	7	Sololá	701	Sololá	3	Barraneche	4	Abril	2023-04-27T00:00:00	2024-11-06T15:00:00	8	Radiación solar	221
22401	7	Sololá	701	Sololá	3	Barraneche	4	Abril	2023-04-27T00:00:00	2024-11-06T16:00:00	2	Temperatura media	16.3
22402	7	Sololá	701	Sololá	3	Barraneche	4	Abril	2023-04-27T00:00:00	2024-11-06T16:00:00	4	Temperatura máxima	16.8
22403	7	Sololá	701	Sololá	3	Barraneche	4	Abril	2023-04-27T00:00:00	2024-11-06T16:00:00	3	Temperatura mínima	16.3
22404	7	Sololá	701	Sololá	3	Barraneche	4	Abril	2023-04-27T00:00:00	2024-11-06T16:00:00	5	Humedad	72
22405	7	Sololá	701	Sololá	3	Barraneche	4	Abril	2023-04-27T00:00:00	2024-11-06T16:00:00	6	Velocidad del viento	6.4
22406	7	Sololá	701	Sololá	3	Barraneche	4	Abril	2023-04-27T00:00:00	2024-11-06T16:00:00	7	Dirección del viento	6.44
22407	7	Sololá	701	Sololá	3	Barraneche	4	Abril	2023-04-27T00:00:00	2024-11-06T16:00:00	1	Precipitación	0
22408	7	Sololá	701	Sololá	3	Barraneche	4	Abril	2023-04-27T00:00:00	2024-11-06T16:00:00	8	Radiación solar	166
22409	7	Sololá	701	Sololá	3	Barraneche	4	Abril	2023-04-27T00:00:00	2024-11-06T17:00:00	2	Temperatura media	15.6
22410	7	Sololá	701	Sololá	3	Barraneche	4	Abril	2023-04-27T00:00:00	2024-11-06T17:00:00	4	Temperatura máxima	16.4
22411	7	Sololá	701	Sololá	3	Barraneche	4	Abril	2023-04-27T00:00:00	2024-11-06T17:00:00	3	Temperatura mínima	15.6
22412	7	Sololá	701	Sololá	3	Barraneche	4	Abril	2023-04-27T00:00:00	2024-11-06T17:00:00	5	Humedad	74
22413	7	Sololá	701	Sololá	3	Barraneche	4	Abril	2023-04-27T00:00:00	2024-11-06T17:00:00	6	Velocidad del viento	6.4
22414	7	Sololá	701	Sololá	3	Barraneche	4	Abril	2023-04-27T00:00:00	2024-11-06T17:00:00	7	Dirección del viento	6.44
22415	7	Sololá	701	Sololá	3	Barraneche	4	Abril	2023-04-27T00:00:00	2024-11-06T17:00:00	1	Precipitación	0
22416	7	Sololá	701	Sololá	3	Barraneche	4	Abril	2023-04-27T00:00:00	2024-11-06T17:00:00	8	Radiación solar	67
22417	7	Sololá	701	Sololá	3	Barraneche	4	Abril	2023-04-27T00:00:00	2024-11-06T18:00:00	2	Temperatura media	15.1
22418	7	Sololá	701	Sololá	3	Barraneche	4	Abril	2023-04-27T00:00:00	2024-11-06T18:00:00	4	Temperatura máxima	15.6
22419	7	Sololá	701	Sololá	3	Barraneche	4	Abril	2023-04-27T00:00:00	2024-11-06T18:00:00	3	Temperatura mínima	15.1
22420	7	Sololá	701	Sololá	3	Barraneche	4	Abril	2023-04-27T00:00:00	2024-11-06T18:00:00	5	Humedad	79
22421	7	Sololá	701	Sololá	3	Barraneche	4	Abril	2023-04-27T00:00:00	2024-11-06T18:00:00	6	Velocidad del viento	4.8
22422	7	Sololá	701	Sololá	3	Barraneche	4	Abril	2023-04-27T00:00:00	2024-11-06T18:00:00	7	Dirección del viento	4.83
22423	7	Sololá	701	Sololá	3	Barraneche	4	Abril	2023-04-27T00:00:00	2024-11-06T18:00:00	1	Precipitación	0
22424	7	Sololá	701	Sololá	3	Barraneche	4	Abril	2023-04-27T00:00:00	2024-11-06T18:00:00	8	Radiación solar	7
22425	7	Sololá	701	Sololá	3	Barraneche	4	Abril	2023-04-27T00:00:00	2024-11-06T19:00:00	2	Temperatura media	15.3
22426	7	Sololá	701	Sololá	3	Barraneche	4	Abril	2023-04-27T00:00:00	2024-11-06T19:00:00	4	Temperatura máxima	15.3
22427	7	Sololá	701	Sololá	3	Barraneche	4	Abril	2023-04-27T00:00:00	2024-11-06T19:00:00	3	Temperatura mínima	14.9
22428	7	Sololá	701	Sololá	3	Barraneche	4	Abril	2023-04-27T00:00:00	2024-11-06T19:00:00	5	Humedad	76
22429	7	Sololá	701	Sololá	3	Barraneche	4	Abril	2023-04-27T00:00:00	2024-11-06T19:00:00	6	Velocidad del viento	4.8
22430	7	Sololá	701	Sololá	3	Barraneche	4	Abril	2023-04-27T00:00:00	2024-11-06T19:00:00	7	Dirección del viento	4.83
22431	7	Sololá	701	Sololá	3	Barraneche	4	Abril	2023-04-27T00:00:00	2024-11-06T19:00:00	1	Precipitación	0
22432	7	Sololá	701	Sololá	3	Barraneche	4	Abril	2023-04-27T00:00:00	2024-11-06T19:00:00	8	Radiación solar	0
22433	7	Sololá	701	Sololá	3	Barraneche	4	Abril	2023-04-27T00:00:00	2024-11-06T20:00:00	2	Temperatura media	14.7
22434	7	Sololá	701	Sololá	3	Barraneche	4	Abril	2023-04-27T00:00:00	2024-11-06T20:00:00	4	Temperatura máxima	15.3
22435	7	Sololá	701	Sololá	3	Barraneche	4	Abril	2023-04-27T00:00:00	2024-11-06T20:00:00	3	Temperatura mínima	14.7
22436	7	Sololá	701	Sololá	3	Barraneche	4	Abril	2023-04-27T00:00:00	2024-11-06T20:00:00	5	Humedad	83
22437	7	Sololá	701	Sololá	3	Barraneche	4	Abril	2023-04-27T00:00:00	2024-11-06T20:00:00	6	Velocidad del viento	4.8
22438	7	Sololá	701	Sololá	3	Barraneche	4	Abril	2023-04-27T00:00:00	2024-11-06T20:00:00	7	Dirección del viento	4.83
22439	7	Sololá	701	Sololá	3	Barraneche	4	Abril	2023-04-27T00:00:00	2024-11-06T20:00:00	1	Precipitación	0
22440	7	Sololá	701	Sololá	3	Barraneche	4	Abril	2023-04-27T00:00:00	2024-11-06T20:00:00	8	Radiación solar	0
22441	7	Sololá	701	Sololá	3	Barraneche	4	Abril	2023-04-27T00:00:00	2024-11-06T21:00:00	2	Temperatura media	14.6
22442	7	Sololá	701	Sololá	3	Barraneche	4	Abril	2023-04-27T00:00:00	2024-11-06T21:00:00	4	Temperatura máxima	14.8
22443	7	Sololá	701	Sololá	3	Barraneche	4	Abril	2023-04-27T00:00:00	2024-11-06T21:00:00	3	Temperatura mínima	14.5
22444	7	Sololá	701	Sololá	3	Barraneche	4	Abril	2023-04-27T00:00:00	2024-11-06T21:00:00	5	Humedad	84
22445	7	Sololá	701	Sololá	3	Barraneche	4	Abril	2023-04-27T00:00:00	2024-11-06T21:00:00	6	Velocidad del viento	3.2
22446	7	Sololá	701	Sololá	3	Barraneche	4	Abril	2023-04-27T00:00:00	2024-11-06T21:00:00	7	Dirección del viento	3.22
22447	7	Sololá	701	Sololá	3	Barraneche	4	Abril	2023-04-27T00:00:00	2024-11-06T21:00:00	1	Precipitación	0
22448	7	Sololá	701	Sololá	3	Barraneche	4	Abril	2023-04-27T00:00:00	2024-11-06T21:00:00	8	Radiación solar	0
22449	7	Sololá	701	Sololá	3	Barraneche	4	Abril	2023-04-27T00:00:00	2024-11-06T22:00:00	2	Temperatura media	14
22450	7	Sololá	701	Sololá	3	Barraneche	4	Abril	2023-04-27T00:00:00	2024-11-06T22:00:00	4	Temperatura máxima	14.6
22451	7	Sololá	701	Sololá	3	Barraneche	4	Abril	2023-04-27T00:00:00	2024-11-06T22:00:00	3	Temperatura mínima	13.7
22452	7	Sololá	701	Sololá	3	Barraneche	4	Abril	2023-04-27T00:00:00	2024-11-06T22:00:00	5	Humedad	74
22453	7	Sololá	701	Sololá	3	Barraneche	4	Abril	2023-04-27T00:00:00	2024-11-06T22:00:00	6	Velocidad del viento	1.6
22454	7	Sololá	701	Sololá	3	Barraneche	4	Abril	2023-04-27T00:00:00	2024-11-06T22:00:00	7	Dirección del viento	1.61
22455	7	Sololá	701	Sololá	3	Barraneche	4	Abril	2023-04-27T00:00:00	2024-11-06T22:00:00	1	Precipitación	0
22456	7	Sololá	701	Sololá	3	Barraneche	4	Abril	2023-04-27T00:00:00	2024-11-06T22:00:00	8	Radiación solar	0
22457	7	Sololá	701	Sololá	3	Barraneche	4	Abril	2023-04-27T00:00:00	2024-11-06T23:00:00	2	Temperatura media	13.2
22458	7	Sololá	701	Sololá	3	Barraneche	4	Abril	2023-04-27T00:00:00	2024-11-06T23:00:00	4	Temperatura máxima	14.3
22459	7	Sololá	701	Sololá	3	Barraneche	4	Abril	2023-04-27T00:00:00	2024-11-06T23:00:00	3	Temperatura mínima	13.1
22460	7	Sololá	701	Sololá	3	Barraneche	4	Abril	2023-04-27T00:00:00	2024-11-06T23:00:00	5	Humedad	74
22461	7	Sololá	701	Sololá	3	Barraneche	4	Abril	2023-04-27T00:00:00	2024-11-06T23:00:00	6	Velocidad del viento	3.2
22462	7	Sololá	701	Sololá	3	Barraneche	4	Abril	2023-04-27T00:00:00	2024-11-06T23:00:00	7	Dirección del viento	3.22
22463	7	Sololá	701	Sololá	3	Barraneche	4	Abril	2023-04-27T00:00:00	2024-11-06T23:00:00	1	Precipitación	0
22464	7	Sololá	701	Sololá	3	Barraneche	4	Abril	2023-04-27T00:00:00	2024-11-06T23:00:00	8	Radiación solar	0
22465	7	Sololá	701	Sololá	3	Barraneche	4	Abril	2023-04-28T00:00:00	2024-11-06T00:00:00	2	Temperatura media	12.4
22466	7	Sololá	701	Sololá	3	Barraneche	4	Abril	2023-04-28T00:00:00	2024-11-06T00:00:00	4	Temperatura máxima	13.2
22467	7	Sololá	701	Sololá	3	Barraneche	4	Abril	2023-04-28T00:00:00	2024-11-06T00:00:00	3	Temperatura mínima	12.4
22468	7	Sololá	701	Sololá	3	Barraneche	4	Abril	2023-04-28T00:00:00	2024-11-06T00:00:00	5	Humedad	73
22469	7	Sololá	701	Sololá	3	Barraneche	4	Abril	2023-04-28T00:00:00	2024-11-06T00:00:00	6	Velocidad del viento	4.8
22470	7	Sololá	701	Sololá	3	Barraneche	4	Abril	2023-04-28T00:00:00	2024-11-06T00:00:00	7	Dirección del viento	4.83
22471	7	Sololá	701	Sololá	3	Barraneche	4	Abril	2023-04-28T00:00:00	2024-11-06T00:00:00	1	Precipitación	0
22472	7	Sololá	701	Sololá	3	Barraneche	4	Abril	2023-04-28T00:00:00	2024-11-06T00:00:00	8	Radiación solar	0
22473	7	Sololá	701	Sololá	3	Barraneche	4	Abril	2023-04-28T00:00:00	2024-11-06T01:00:00	2	Temperatura media	12.5
22474	7	Sololá	701	Sololá	3	Barraneche	4	Abril	2023-04-28T00:00:00	2024-11-06T01:00:00	4	Temperatura máxima	12.5
22475	7	Sololá	701	Sololá	3	Barraneche	4	Abril	2023-04-28T00:00:00	2024-11-06T01:00:00	3	Temperatura mínima	11.9
22476	7	Sololá	701	Sololá	3	Barraneche	4	Abril	2023-04-28T00:00:00	2024-11-06T01:00:00	5	Humedad	73
22477	7	Sololá	701	Sololá	3	Barraneche	4	Abril	2023-04-28T00:00:00	2024-11-06T01:00:00	6	Velocidad del viento	6.4
22478	7	Sololá	701	Sololá	3	Barraneche	4	Abril	2023-04-28T00:00:00	2024-11-06T01:00:00	7	Dirección del viento	6.44
22479	7	Sololá	701	Sololá	3	Barraneche	4	Abril	2023-04-28T00:00:00	2024-11-06T01:00:00	1	Precipitación	0
22480	7	Sololá	701	Sololá	3	Barraneche	4	Abril	2023-04-28T00:00:00	2024-11-06T01:00:00	8	Radiación solar	0
22481	7	Sololá	701	Sololá	3	Barraneche	4	Abril	2023-04-28T00:00:00	2024-11-06T02:00:00	2	Temperatura media	12.3
22482	7	Sololá	701	Sololá	3	Barraneche	4	Abril	2023-04-28T00:00:00	2024-11-06T02:00:00	4	Temperatura máxima	12.7
22483	7	Sololá	701	Sololá	3	Barraneche	4	Abril	2023-04-28T00:00:00	2024-11-06T02:00:00	3	Temperatura mínima	12.3
22484	7	Sololá	701	Sololá	3	Barraneche	4	Abril	2023-04-28T00:00:00	2024-11-06T02:00:00	5	Humedad	73
22485	7	Sololá	701	Sololá	3	Barraneche	4	Abril	2023-04-28T00:00:00	2024-11-06T02:00:00	6	Velocidad del viento	8
22486	7	Sololá	701	Sololá	3	Barraneche	4	Abril	2023-04-28T00:00:00	2024-11-06T02:00:00	7	Dirección del viento	8.05
22487	7	Sololá	701	Sololá	3	Barraneche	4	Abril	2023-04-28T00:00:00	2024-11-06T02:00:00	1	Precipitación	0
22488	7	Sololá	701	Sololá	3	Barraneche	4	Abril	2023-04-28T00:00:00	2024-11-06T02:00:00	8	Radiación solar	0
22489	7	Sololá	701	Sololá	3	Barraneche	4	Abril	2023-04-28T00:00:00	2024-11-06T03:00:00	2	Temperatura media	11.9
22490	7	Sololá	701	Sololá	3	Barraneche	4	Abril	2023-04-28T00:00:00	2024-11-06T03:00:00	4	Temperatura máxima	12.3
22491	7	Sololá	701	Sololá	3	Barraneche	4	Abril	2023-04-28T00:00:00	2024-11-06T03:00:00	3	Temperatura mínima	11.9
22492	7	Sololá	701	Sololá	3	Barraneche	4	Abril	2023-04-28T00:00:00	2024-11-06T03:00:00	5	Humedad	73
22493	7	Sololá	701	Sololá	3	Barraneche	4	Abril	2023-04-28T00:00:00	2024-11-06T03:00:00	6	Velocidad del viento	4.8
22494	7	Sololá	701	Sololá	3	Barraneche	4	Abril	2023-04-28T00:00:00	2024-11-06T03:00:00	7	Dirección del viento	4.83
22495	7	Sololá	701	Sololá	3	Barraneche	4	Abril	2023-04-28T00:00:00	2024-11-06T03:00:00	1	Precipitación	0
22496	7	Sololá	701	Sololá	3	Barraneche	4	Abril	2023-04-28T00:00:00	2024-11-06T03:00:00	8	Radiación solar	0
22497	7	Sololá	701	Sololá	3	Barraneche	4	Abril	2023-04-28T00:00:00	2024-11-06T04:00:00	2	Temperatura media	11.6
22498	7	Sololá	701	Sololá	3	Barraneche	4	Abril	2023-04-28T00:00:00	2024-11-06T04:00:00	4	Temperatura máxima	12
22499	7	Sololá	701	Sololá	3	Barraneche	4	Abril	2023-04-28T00:00:00	2024-11-06T04:00:00	3	Temperatura mínima	11.5
22500	7	Sololá	701	Sololá	3	Barraneche	4	Abril	2023-04-28T00:00:00	2024-11-06T04:00:00	5	Humedad	73
22501	7	Sololá	701	Sololá	3	Barraneche	4	Abril	2023-04-28T00:00:00	2024-11-06T04:00:00	6	Velocidad del viento	4.8
22502	7	Sololá	701	Sololá	3	Barraneche	4	Abril	2023-04-28T00:00:00	2024-11-06T04:00:00	7	Dirección del viento	4.83
22503	7	Sololá	701	Sololá	3	Barraneche	4	Abril	2023-04-28T00:00:00	2024-11-06T04:00:00	1	Precipitación	0
22504	7	Sololá	701	Sololá	3	Barraneche	4	Abril	2023-04-28T00:00:00	2024-11-06T04:00:00	8	Radiación solar	0
22505	7	Sololá	701	Sololá	3	Barraneche	4	Abril	2023-04-28T00:00:00	2024-11-06T05:00:00	2	Temperatura media	11.7
22506	7	Sololá	701	Sololá	3	Barraneche	4	Abril	2023-04-28T00:00:00	2024-11-06T05:00:00	4	Temperatura máxima	11.9
22507	7	Sololá	701	Sololá	3	Barraneche	4	Abril	2023-04-28T00:00:00	2024-11-06T05:00:00	3	Temperatura mínima	11.6
22508	7	Sololá	701	Sololá	3	Barraneche	4	Abril	2023-04-28T00:00:00	2024-11-06T05:00:00	5	Humedad	72
22509	7	Sololá	701	Sololá	3	Barraneche	4	Abril	2023-04-28T00:00:00	2024-11-06T05:00:00	6	Velocidad del viento	4.8
22510	7	Sololá	701	Sololá	3	Barraneche	4	Abril	2023-04-28T00:00:00	2024-11-06T05:00:00	7	Dirección del viento	4.83
22511	7	Sololá	701	Sololá	3	Barraneche	4	Abril	2023-04-28T00:00:00	2024-11-06T05:00:00	1	Precipitación	0
22512	7	Sololá	701	Sololá	3	Barraneche	4	Abril	2023-04-28T00:00:00	2024-11-06T05:00:00	8	Radiación solar	0
22513	7	Sololá	701	Sololá	3	Barraneche	4	Abril	2023-04-28T00:00:00	2024-11-06T06:00:00	2	Temperatura media	11.6
22514	7	Sololá	701	Sololá	3	Barraneche	4	Abril	2023-04-28T00:00:00	2024-11-06T06:00:00	4	Temperatura máxima	12.1
22515	7	Sololá	701	Sololá	3	Barraneche	4	Abril	2023-04-28T00:00:00	2024-11-06T06:00:00	3	Temperatura mínima	11.5
22516	7	Sololá	701	Sololá	3	Barraneche	4	Abril	2023-04-28T00:00:00	2024-11-06T06:00:00	5	Humedad	73
22517	7	Sololá	701	Sololá	3	Barraneche	4	Abril	2023-04-28T00:00:00	2024-11-06T06:00:00	6	Velocidad del viento	3.2
22518	7	Sololá	701	Sololá	3	Barraneche	4	Abril	2023-04-28T00:00:00	2024-11-06T06:00:00	7	Dirección del viento	3.22
22519	7	Sololá	701	Sololá	3	Barraneche	4	Abril	2023-04-28T00:00:00	2024-11-06T06:00:00	1	Precipitación	0
22520	7	Sololá	701	Sololá	3	Barraneche	4	Abril	2023-04-28T00:00:00	2024-11-06T06:00:00	8	Radiación solar	4
22521	7	Sololá	701	Sololá	3	Barraneche	4	Abril	2023-04-28T00:00:00	2024-11-06T07:00:00	2	Temperatura media	13.7
22522	7	Sololá	701	Sololá	3	Barraneche	4	Abril	2023-04-28T00:00:00	2024-11-06T07:00:00	4	Temperatura máxima	13.7
22523	7	Sololá	701	Sololá	3	Barraneche	4	Abril	2023-04-28T00:00:00	2024-11-06T07:00:00	3	Temperatura mínima	11.5
22524	7	Sololá	701	Sololá	3	Barraneche	4	Abril	2023-04-28T00:00:00	2024-11-06T07:00:00	5	Humedad	70
22525	7	Sololá	701	Sololá	3	Barraneche	4	Abril	2023-04-28T00:00:00	2024-11-06T07:00:00	6	Velocidad del viento	4.8
22526	7	Sololá	701	Sololá	3	Barraneche	4	Abril	2023-04-28T00:00:00	2024-11-06T07:00:00	7	Dirección del viento	4.83
22527	7	Sololá	701	Sololá	3	Barraneche	4	Abril	2023-04-28T00:00:00	2024-11-06T07:00:00	1	Precipitación	0
22528	7	Sololá	701	Sololá	3	Barraneche	4	Abril	2023-04-28T00:00:00	2024-11-06T07:00:00	8	Radiación solar	94
22529	7	Sololá	701	Sololá	3	Barraneche	4	Abril	2023-04-28T00:00:00	2024-11-06T08:00:00	2	Temperatura media	17.6
22530	7	Sololá	701	Sololá	3	Barraneche	4	Abril	2023-04-28T00:00:00	2024-11-06T08:00:00	4	Temperatura máxima	17.6
22531	7	Sololá	701	Sololá	3	Barraneche	4	Abril	2023-04-28T00:00:00	2024-11-06T08:00:00	3	Temperatura mínima	13.7
22532	7	Sololá	701	Sololá	3	Barraneche	4	Abril	2023-04-28T00:00:00	2024-11-06T08:00:00	5	Humedad	61
22533	7	Sololá	701	Sololá	3	Barraneche	4	Abril	2023-04-28T00:00:00	2024-11-06T08:00:00	6	Velocidad del viento	3.2
22534	7	Sololá	701	Sololá	3	Barraneche	4	Abril	2023-04-28T00:00:00	2024-11-06T08:00:00	7	Dirección del viento	3.22
22535	7	Sololá	701	Sololá	3	Barraneche	4	Abril	2023-04-28T00:00:00	2024-11-06T08:00:00	1	Precipitación	0
22536	7	Sololá	701	Sololá	3	Barraneche	4	Abril	2023-04-28T00:00:00	2024-11-06T08:00:00	8	Radiación solar	331
22537	7	Sololá	701	Sololá	3	Barraneche	4	Abril	2023-04-28T00:00:00	2024-11-06T09:00:00	2	Temperatura media	19.4
22538	7	Sololá	701	Sololá	3	Barraneche	4	Abril	2023-04-28T00:00:00	2024-11-06T09:00:00	4	Temperatura máxima	19.4
22539	7	Sololá	701	Sololá	3	Barraneche	4	Abril	2023-04-28T00:00:00	2024-11-06T09:00:00	3	Temperatura mínima	17.6
22540	7	Sololá	701	Sololá	3	Barraneche	4	Abril	2023-04-28T00:00:00	2024-11-06T09:00:00	5	Humedad	58
22541	7	Sololá	701	Sololá	3	Barraneche	4	Abril	2023-04-28T00:00:00	2024-11-06T09:00:00	6	Velocidad del viento	3.2
22542	7	Sololá	701	Sololá	3	Barraneche	4	Abril	2023-04-28T00:00:00	2024-11-06T09:00:00	7	Dirección del viento	3.22
22543	7	Sololá	701	Sololá	3	Barraneche	4	Abril	2023-04-28T00:00:00	2024-11-06T09:00:00	1	Precipitación	0
22544	7	Sololá	701	Sololá	3	Barraneche	4	Abril	2023-04-28T00:00:00	2024-11-06T09:00:00	8	Radiación solar	556
22545	7	Sololá	701	Sololá	3	Barraneche	4	Abril	2023-04-28T00:00:00	2024-11-06T10:00:00	2	Temperatura media	18.2
22546	7	Sololá	701	Sololá	3	Barraneche	4	Abril	2023-04-28T00:00:00	2024-11-06T10:00:00	4	Temperatura máxima	19.5
22547	7	Sololá	701	Sololá	3	Barraneche	4	Abril	2023-04-28T00:00:00	2024-11-06T10:00:00	3	Temperatura mínima	17.6
22548	7	Sololá	701	Sololá	3	Barraneche	4	Abril	2023-04-28T00:00:00	2024-11-06T10:00:00	5	Humedad	64
22549	7	Sololá	701	Sololá	3	Barraneche	4	Abril	2023-04-28T00:00:00	2024-11-06T10:00:00	6	Velocidad del viento	9.7
22550	7	Sololá	701	Sololá	3	Barraneche	4	Abril	2023-04-28T00:00:00	2024-11-06T10:00:00	7	Dirección del viento	9.66
22551	7	Sololá	701	Sololá	3	Barraneche	4	Abril	2023-04-28T00:00:00	2024-11-06T10:00:00	1	Precipitación	0
22552	7	Sololá	701	Sololá	3	Barraneche	4	Abril	2023-04-28T00:00:00	2024-11-06T10:00:00	8	Radiación solar	445
22553	7	Sololá	701	Sololá	3	Barraneche	4	Abril	2023-04-28T00:00:00	2024-11-06T11:00:00	2	Temperatura media	20.3
22554	7	Sololá	701	Sololá	3	Barraneche	4	Abril	2023-04-28T00:00:00	2024-11-06T11:00:00	4	Temperatura máxima	20.4
22555	7	Sololá	701	Sololá	3	Barraneche	4	Abril	2023-04-28T00:00:00	2024-11-06T11:00:00	3	Temperatura mínima	18.2
22556	7	Sololá	701	Sololá	3	Barraneche	4	Abril	2023-04-28T00:00:00	2024-11-06T11:00:00	5	Humedad	61
22557	7	Sololá	701	Sololá	3	Barraneche	4	Abril	2023-04-28T00:00:00	2024-11-06T11:00:00	6	Velocidad del viento	9.7
22558	7	Sololá	701	Sololá	3	Barraneche	4	Abril	2023-04-28T00:00:00	2024-11-06T11:00:00	7	Dirección del viento	9.66
22559	7	Sololá	701	Sololá	3	Barraneche	4	Abril	2023-04-28T00:00:00	2024-11-06T11:00:00	1	Precipitación	0
22560	7	Sololá	701	Sololá	3	Barraneche	4	Abril	2023-04-28T00:00:00	2024-11-06T11:00:00	8	Radiación solar	863
22561	7	Sololá	701	Sololá	3	Barraneche	4	Abril	2023-04-28T00:00:00	2024-11-06T12:00:00	2	Temperatura media	18.4
22562	7	Sololá	701	Sololá	3	Barraneche	4	Abril	2023-04-28T00:00:00	2024-11-06T12:00:00	4	Temperatura máxima	20.3
22563	7	Sololá	701	Sololá	3	Barraneche	4	Abril	2023-04-28T00:00:00	2024-11-06T12:00:00	3	Temperatura mínima	18.4
22564	7	Sololá	701	Sololá	3	Barraneche	4	Abril	2023-04-28T00:00:00	2024-11-06T12:00:00	5	Humedad	68
22565	7	Sololá	701	Sololá	3	Barraneche	4	Abril	2023-04-28T00:00:00	2024-11-06T12:00:00	6	Velocidad del viento	12.9
22566	7	Sololá	701	Sololá	3	Barraneche	4	Abril	2023-04-28T00:00:00	2024-11-06T12:00:00	7	Dirección del viento	12.87
22567	7	Sololá	701	Sololá	3	Barraneche	4	Abril	2023-04-28T00:00:00	2024-11-06T12:00:00	1	Precipitación	0
22568	7	Sololá	701	Sololá	3	Barraneche	4	Abril	2023-04-28T00:00:00	2024-11-06T12:00:00	8	Radiación solar	858
22569	7	Sololá	701	Sololá	3	Barraneche	4	Abril	2023-04-28T00:00:00	2024-11-06T13:00:00	2	Temperatura media	18.4
22570	7	Sololá	701	Sololá	3	Barraneche	4	Abril	2023-04-28T00:00:00	2024-11-06T13:00:00	4	Temperatura máxima	18.7
22571	7	Sololá	701	Sololá	3	Barraneche	4	Abril	2023-04-28T00:00:00	2024-11-06T13:00:00	3	Temperatura mínima	17.9
22572	7	Sololá	701	Sololá	3	Barraneche	4	Abril	2023-04-28T00:00:00	2024-11-06T13:00:00	5	Humedad	68
22573	7	Sololá	701	Sololá	3	Barraneche	4	Abril	2023-04-28T00:00:00	2024-11-06T13:00:00	6	Velocidad del viento	11.3
22574	7	Sololá	701	Sololá	3	Barraneche	4	Abril	2023-04-28T00:00:00	2024-11-06T13:00:00	7	Dirección del viento	11.27
22575	7	Sololá	701	Sololá	3	Barraneche	4	Abril	2023-04-28T00:00:00	2024-11-06T13:00:00	1	Precipitación	0
22576	7	Sololá	701	Sololá	3	Barraneche	4	Abril	2023-04-28T00:00:00	2024-11-06T13:00:00	8	Radiación solar	867
22577	7	Sololá	701	Sololá	3	Barraneche	4	Abril	2023-04-28T00:00:00	2024-11-06T14:00:00	2	Temperatura media	17.8
22578	7	Sololá	701	Sololá	3	Barraneche	4	Abril	2023-04-28T00:00:00	2024-11-06T14:00:00	4	Temperatura máxima	18.8
22579	7	Sololá	701	Sololá	3	Barraneche	4	Abril	2023-04-28T00:00:00	2024-11-06T14:00:00	3	Temperatura mínima	17.5
22580	7	Sololá	701	Sololá	3	Barraneche	4	Abril	2023-04-28T00:00:00	2024-11-06T14:00:00	5	Humedad	72
22581	7	Sololá	701	Sololá	3	Barraneche	4	Abril	2023-04-28T00:00:00	2024-11-06T14:00:00	6	Velocidad del viento	12.9
22582	7	Sololá	701	Sololá	3	Barraneche	4	Abril	2023-04-28T00:00:00	2024-11-06T14:00:00	7	Dirección del viento	12.87
22583	7	Sololá	701	Sololá	3	Barraneche	4	Abril	2023-04-28T00:00:00	2024-11-06T14:00:00	1	Precipitación	0
22584	7	Sololá	701	Sololá	3	Barraneche	4	Abril	2023-04-28T00:00:00	2024-11-06T14:00:00	8	Radiación solar	551
22585	7	Sololá	701	Sololá	3	Barraneche	4	Abril	2023-04-28T00:00:00	2024-11-06T15:00:00	2	Temperatura media	16.9
22586	7	Sololá	701	Sololá	3	Barraneche	4	Abril	2023-04-28T00:00:00	2024-11-06T15:00:00	4	Temperatura máxima	17.9
22587	7	Sololá	701	Sololá	3	Barraneche	4	Abril	2023-04-28T00:00:00	2024-11-06T15:00:00	3	Temperatura mínima	16.9
22588	7	Sololá	701	Sololá	3	Barraneche	4	Abril	2023-04-28T00:00:00	2024-11-06T15:00:00	5	Humedad	72
22589	7	Sololá	701	Sololá	3	Barraneche	4	Abril	2023-04-28T00:00:00	2024-11-06T15:00:00	6	Velocidad del viento	9.7
22590	7	Sololá	701	Sololá	3	Barraneche	4	Abril	2023-04-28T00:00:00	2024-11-06T15:00:00	7	Dirección del viento	9.66
22591	7	Sololá	701	Sololá	3	Barraneche	4	Abril	2023-04-28T00:00:00	2024-11-06T15:00:00	1	Precipitación	0
22592	7	Sololá	701	Sololá	3	Barraneche	4	Abril	2023-04-28T00:00:00	2024-11-06T15:00:00	8	Radiación solar	223
22593	7	Sololá	701	Sololá	3	Barraneche	4	Abril	2023-04-28T00:00:00	2024-11-06T16:00:00	2	Temperatura media	16.9
22594	7	Sololá	701	Sololá	3	Barraneche	4	Abril	2023-04-28T00:00:00	2024-11-06T16:00:00	4	Temperatura máxima	17.1
22595	7	Sololá	701	Sololá	3	Barraneche	4	Abril	2023-04-28T00:00:00	2024-11-06T16:00:00	3	Temperatura mínima	16.8
22596	7	Sololá	701	Sololá	3	Barraneche	4	Abril	2023-04-28T00:00:00	2024-11-06T16:00:00	5	Humedad	72
22597	7	Sololá	701	Sololá	3	Barraneche	4	Abril	2023-04-28T00:00:00	2024-11-06T16:00:00	6	Velocidad del viento	8
22598	7	Sololá	701	Sololá	3	Barraneche	4	Abril	2023-04-28T00:00:00	2024-11-06T16:00:00	7	Dirección del viento	8.05
22599	7	Sololá	701	Sololá	3	Barraneche	4	Abril	2023-04-28T00:00:00	2024-11-06T16:00:00	1	Precipitación	0
22600	7	Sololá	701	Sololá	3	Barraneche	4	Abril	2023-04-28T00:00:00	2024-11-06T16:00:00	8	Radiación solar	219
22601	7	Sololá	701	Sololá	3	Barraneche	4	Abril	2023-04-28T00:00:00	2024-11-06T17:00:00	2	Temperatura media	16
22602	7	Sololá	701	Sololá	3	Barraneche	4	Abril	2023-04-28T00:00:00	2024-11-06T17:00:00	4	Temperatura máxima	17
22603	7	Sololá	701	Sololá	3	Barraneche	4	Abril	2023-04-28T00:00:00	2024-11-06T17:00:00	3	Temperatura mínima	15.8
22604	7	Sololá	701	Sololá	3	Barraneche	4	Abril	2023-04-28T00:00:00	2024-11-06T17:00:00	5	Humedad	75
22605	7	Sololá	701	Sololá	3	Barraneche	4	Abril	2023-04-28T00:00:00	2024-11-06T17:00:00	6	Velocidad del viento	6.4
22606	7	Sololá	701	Sololá	3	Barraneche	4	Abril	2023-04-28T00:00:00	2024-11-06T17:00:00	7	Dirección del viento	6.44
22607	7	Sololá	701	Sololá	3	Barraneche	4	Abril	2023-04-28T00:00:00	2024-11-06T17:00:00	1	Precipitación	0
22608	7	Sololá	701	Sololá	3	Barraneche	4	Abril	2023-04-28T00:00:00	2024-11-06T17:00:00	8	Radiación solar	119
22609	7	Sololá	701	Sololá	3	Barraneche	4	Abril	2023-04-28T00:00:00	2024-11-06T18:00:00	2	Temperatura media	15.4
22610	7	Sololá	701	Sololá	3	Barraneche	4	Abril	2023-04-28T00:00:00	2024-11-06T18:00:00	4	Temperatura máxima	16.1
22611	7	Sololá	701	Sololá	3	Barraneche	4	Abril	2023-04-28T00:00:00	2024-11-06T18:00:00	3	Temperatura mínima	15.3
22612	7	Sololá	701	Sololá	3	Barraneche	4	Abril	2023-04-28T00:00:00	2024-11-06T18:00:00	5	Humedad	77
22613	7	Sololá	701	Sololá	3	Barraneche	4	Abril	2023-04-28T00:00:00	2024-11-06T18:00:00	6	Velocidad del viento	6.4
22614	7	Sololá	701	Sololá	3	Barraneche	4	Abril	2023-04-28T00:00:00	2024-11-06T18:00:00	7	Dirección del viento	6.44
22615	7	Sololá	701	Sololá	3	Barraneche	4	Abril	2023-04-28T00:00:00	2024-11-06T18:00:00	1	Precipitación	0
22616	7	Sololá	701	Sololá	3	Barraneche	4	Abril	2023-04-28T00:00:00	2024-11-06T18:00:00	8	Radiación solar	67
22617	7	Sololá	701	Sololá	3	Barraneche	4	Abril	2023-04-28T00:00:00	2024-11-06T19:00:00	2	Temperatura media	14.9
22618	7	Sololá	701	Sololá	3	Barraneche	4	Abril	2023-04-28T00:00:00	2024-11-06T19:00:00	4	Temperatura máxima	15.4
22619	7	Sololá	701	Sololá	3	Barraneche	4	Abril	2023-04-28T00:00:00	2024-11-06T19:00:00	3	Temperatura mínima	14.8
22620	7	Sololá	701	Sololá	3	Barraneche	4	Abril	2023-04-28T00:00:00	2024-11-06T19:00:00	5	Humedad	82
22621	7	Sololá	701	Sololá	3	Barraneche	4	Abril	2023-04-28T00:00:00	2024-11-06T19:00:00	6	Velocidad del viento	3.2
22622	7	Sololá	701	Sololá	3	Barraneche	4	Abril	2023-04-28T00:00:00	2024-11-06T19:00:00	7	Dirección del viento	3.22
22623	7	Sololá	701	Sololá	3	Barraneche	4	Abril	2023-04-28T00:00:00	2024-11-06T19:00:00	1	Precipitación	0
22624	7	Sololá	701	Sololá	3	Barraneche	4	Abril	2023-04-28T00:00:00	2024-11-06T19:00:00	8	Radiación solar	0
22625	7	Sololá	701	Sololá	3	Barraneche	4	Abril	2023-04-28T00:00:00	2024-11-06T20:00:00	2	Temperatura media	14.8
22626	7	Sololá	701	Sololá	3	Barraneche	4	Abril	2023-04-28T00:00:00	2024-11-06T20:00:00	4	Temperatura máxima	15.1
22627	7	Sololá	701	Sololá	3	Barraneche	4	Abril	2023-04-28T00:00:00	2024-11-06T20:00:00	3	Temperatura mínima	14.8
22628	7	Sololá	701	Sololá	3	Barraneche	4	Abril	2023-04-28T00:00:00	2024-11-06T20:00:00	5	Humedad	82
22629	7	Sololá	701	Sololá	3	Barraneche	4	Abril	2023-04-28T00:00:00	2024-11-06T20:00:00	6	Velocidad del viento	3.2
22630	7	Sololá	701	Sololá	3	Barraneche	4	Abril	2023-04-28T00:00:00	2024-11-06T20:00:00	7	Dirección del viento	3.22
22631	7	Sololá	701	Sololá	3	Barraneche	4	Abril	2023-04-28T00:00:00	2024-11-06T20:00:00	1	Precipitación	0
22632	7	Sololá	701	Sololá	3	Barraneche	4	Abril	2023-04-28T00:00:00	2024-11-06T20:00:00	8	Radiación solar	0
22633	7	Sololá	701	Sololá	3	Barraneche	4	Abril	2023-04-28T00:00:00	2024-11-06T21:00:00	2	Temperatura media	14.7
22634	7	Sololá	701	Sololá	3	Barraneche	4	Abril	2023-04-28T00:00:00	2024-11-06T21:00:00	4	Temperatura máxima	14.8
22635	7	Sololá	701	Sololá	3	Barraneche	4	Abril	2023-04-28T00:00:00	2024-11-06T21:00:00	3	Temperatura mínima	14.7
22636	7	Sololá	701	Sololá	3	Barraneche	4	Abril	2023-04-28T00:00:00	2024-11-06T21:00:00	5	Humedad	83
22637	7	Sololá	701	Sololá	3	Barraneche	4	Abril	2023-04-28T00:00:00	2024-11-06T21:00:00	6	Velocidad del viento	1.6
22638	7	Sololá	701	Sololá	3	Barraneche	4	Abril	2023-04-28T00:00:00	2024-11-06T21:00:00	7	Dirección del viento	1.61
22639	7	Sololá	701	Sololá	3	Barraneche	4	Abril	2023-04-28T00:00:00	2024-11-06T21:00:00	1	Precipitación	0.4
22640	7	Sololá	701	Sololá	3	Barraneche	4	Abril	2023-04-28T00:00:00	2024-11-06T21:00:00	8	Radiación solar	0
22641	7	Sololá	701	Sololá	3	Barraneche	4	Abril	2023-04-28T00:00:00	2024-11-06T22:00:00	2	Temperatura media	14.4
22642	7	Sololá	701	Sololá	3	Barraneche	4	Abril	2023-04-28T00:00:00	2024-11-06T22:00:00	4	Temperatura máxima	14.8
22643	7	Sololá	701	Sololá	3	Barraneche	4	Abril	2023-04-28T00:00:00	2024-11-06T22:00:00	3	Temperatura mínima	14.4
22644	7	Sololá	701	Sololá	3	Barraneche	4	Abril	2023-04-28T00:00:00	2024-11-06T22:00:00	5	Humedad	84
22645	7	Sololá	701	Sololá	3	Barraneche	4	Abril	2023-04-28T00:00:00	2024-11-06T22:00:00	6	Velocidad del viento	3.2
22646	7	Sololá	701	Sololá	3	Barraneche	4	Abril	2023-04-28T00:00:00	2024-11-06T22:00:00	7	Dirección del viento	3.22
22647	7	Sololá	701	Sololá	3	Barraneche	4	Abril	2023-04-28T00:00:00	2024-11-06T22:00:00	1	Precipitación	10.4
22648	7	Sololá	701	Sololá	3	Barraneche	4	Abril	2023-04-28T00:00:00	2024-11-06T22:00:00	8	Radiación solar	0
22649	7	Sololá	701	Sololá	3	Barraneche	4	Abril	2023-04-28T00:00:00	2024-11-06T23:00:00	2	Temperatura media	13.7
22650	7	Sololá	701	Sololá	3	Barraneche	4	Abril	2023-04-28T00:00:00	2024-11-06T23:00:00	4	Temperatura máxima	14.4
22651	7	Sololá	701	Sololá	3	Barraneche	4	Abril	2023-04-28T00:00:00	2024-11-06T23:00:00	3	Temperatura mínima	13.3
22652	7	Sololá	701	Sololá	3	Barraneche	4	Abril	2023-04-28T00:00:00	2024-11-06T23:00:00	5	Humedad	84
22653	7	Sololá	701	Sololá	3	Barraneche	4	Abril	2023-04-28T00:00:00	2024-11-06T23:00:00	6	Velocidad del viento	3.2
22654	7	Sololá	701	Sololá	3	Barraneche	4	Abril	2023-04-28T00:00:00	2024-11-06T23:00:00	7	Dirección del viento	3.22
22655	7	Sololá	701	Sololá	3	Barraneche	4	Abril	2023-04-28T00:00:00	2024-11-06T23:00:00	1	Precipitación	10.6
22656	7	Sololá	701	Sololá	3	Barraneche	4	Abril	2023-04-28T00:00:00	2024-11-06T23:00:00	8	Radiación solar	0
22657	7	Sololá	701	Sololá	3	Barraneche	4	Abril	2023-04-29T00:00:00	2024-11-06T00:00:00	2	Temperatura media	11.9
22658	7	Sololá	701	Sololá	3	Barraneche	4	Abril	2023-04-29T00:00:00	2024-11-06T00:00:00	4	Temperatura máxima	13.7
22659	7	Sololá	701	Sololá	3	Barraneche	4	Abril	2023-04-29T00:00:00	2024-11-06T00:00:00	3	Temperatura mínima	11.8
22660	7	Sololá	701	Sololá	3	Barraneche	4	Abril	2023-04-29T00:00:00	2024-11-06T00:00:00	5	Humedad	76
22661	7	Sololá	701	Sololá	3	Barraneche	4	Abril	2023-04-29T00:00:00	2024-11-06T00:00:00	6	Velocidad del viento	6.4
22662	7	Sololá	701	Sololá	3	Barraneche	4	Abril	2023-04-29T00:00:00	2024-11-06T00:00:00	7	Dirección del viento	6.44
22663	7	Sololá	701	Sololá	3	Barraneche	4	Abril	2023-04-29T00:00:00	2024-11-06T00:00:00	1	Precipitación	14
22664	7	Sololá	701	Sololá	3	Barraneche	4	Abril	2023-04-29T00:00:00	2024-11-06T00:00:00	8	Radiación solar	0
22665	7	Sololá	701	Sololá	3	Barraneche	4	Abril	2023-04-29T00:00:00	2024-11-06T01:00:00	2	Temperatura media	12.2
22666	7	Sololá	701	Sololá	3	Barraneche	4	Abril	2023-04-29T00:00:00	2024-11-06T01:00:00	4	Temperatura máxima	12.3
22667	7	Sololá	701	Sololá	3	Barraneche	4	Abril	2023-04-29T00:00:00	2024-11-06T01:00:00	3	Temperatura mínima	11.9
22668	7	Sololá	701	Sololá	3	Barraneche	4	Abril	2023-04-29T00:00:00	2024-11-06T01:00:00	5	Humedad	76
22669	7	Sololá	701	Sololá	3	Barraneche	4	Abril	2023-04-29T00:00:00	2024-11-06T01:00:00	6	Velocidad del viento	4.8
22670	7	Sololá	701	Sololá	3	Barraneche	4	Abril	2023-04-29T00:00:00	2024-11-06T01:00:00	7	Dirección del viento	4.83
22671	7	Sololá	701	Sololá	3	Barraneche	4	Abril	2023-04-29T00:00:00	2024-11-06T01:00:00	1	Precipitación	1
22672	7	Sololá	701	Sololá	3	Barraneche	4	Abril	2023-04-29T00:00:00	2024-11-06T01:00:00	8	Radiación solar	0
22673	7	Sololá	701	Sololá	3	Barraneche	4	Abril	2023-04-29T00:00:00	2024-11-06T02:00:00	2	Temperatura media	12.6
22674	7	Sololá	701	Sololá	3	Barraneche	4	Abril	2023-04-29T00:00:00	2024-11-06T02:00:00	4	Temperatura máxima	12.7
22675	7	Sololá	701	Sololá	3	Barraneche	4	Abril	2023-04-29T00:00:00	2024-11-06T02:00:00	3	Temperatura mínima	12.1
22676	7	Sololá	701	Sololá	3	Barraneche	4	Abril	2023-04-29T00:00:00	2024-11-06T02:00:00	5	Humedad	74
22677	7	Sololá	701	Sololá	3	Barraneche	4	Abril	2023-04-29T00:00:00	2024-11-06T02:00:00	6	Velocidad del viento	9.7
22678	7	Sololá	701	Sololá	3	Barraneche	4	Abril	2023-04-29T00:00:00	2024-11-06T02:00:00	7	Dirección del viento	9.66
22679	7	Sololá	701	Sololá	3	Barraneche	4	Abril	2023-04-29T00:00:00	2024-11-06T02:00:00	1	Precipitación	0
22680	7	Sololá	701	Sololá	3	Barraneche	4	Abril	2023-04-29T00:00:00	2024-11-06T02:00:00	8	Radiación solar	0
22681	7	Sololá	701	Sololá	3	Barraneche	4	Abril	2023-04-29T00:00:00	2024-11-06T03:00:00	2	Temperatura media	11.9
22682	7	Sololá	701	Sololá	3	Barraneche	4	Abril	2023-04-29T00:00:00	2024-11-06T03:00:00	4	Temperatura máxima	12.7
22683	7	Sololá	701	Sololá	3	Barraneche	4	Abril	2023-04-29T00:00:00	2024-11-06T03:00:00	3	Temperatura mínima	11.8
22684	7	Sololá	701	Sololá	3	Barraneche	4	Abril	2023-04-29T00:00:00	2024-11-06T03:00:00	5	Humedad	75
22685	7	Sololá	701	Sololá	3	Barraneche	4	Abril	2023-04-29T00:00:00	2024-11-06T03:00:00	6	Velocidad del viento	8
22686	7	Sololá	701	Sololá	3	Barraneche	4	Abril	2023-04-29T00:00:00	2024-11-06T03:00:00	7	Dirección del viento	8.05
22687	7	Sololá	701	Sololá	3	Barraneche	4	Abril	2023-04-29T00:00:00	2024-11-06T03:00:00	1	Precipitación	0
22688	7	Sololá	701	Sololá	3	Barraneche	4	Abril	2023-04-29T00:00:00	2024-11-06T03:00:00	8	Radiación solar	0
22689	7	Sololá	701	Sololá	3	Barraneche	4	Abril	2023-04-29T00:00:00	2024-11-06T04:00:00	2	Temperatura media	11.8
22690	7	Sololá	701	Sololá	3	Barraneche	4	Abril	2023-04-29T00:00:00	2024-11-06T04:00:00	4	Temperatura máxima	12.2
22691	7	Sololá	701	Sololá	3	Barraneche	4	Abril	2023-04-29T00:00:00	2024-11-06T04:00:00	3	Temperatura mínima	11.7
22692	7	Sololá	701	Sololá	3	Barraneche	4	Abril	2023-04-29T00:00:00	2024-11-06T04:00:00	5	Humedad	75
22693	7	Sololá	701	Sololá	3	Barraneche	4	Abril	2023-04-29T00:00:00	2024-11-06T04:00:00	6	Velocidad del viento	6.4
22694	7	Sololá	701	Sololá	3	Barraneche	4	Abril	2023-04-29T00:00:00	2024-11-06T04:00:00	7	Dirección del viento	6.44
22695	7	Sololá	701	Sololá	3	Barraneche	4	Abril	2023-04-29T00:00:00	2024-11-06T04:00:00	1	Precipitación	0
22696	7	Sololá	701	Sololá	3	Barraneche	4	Abril	2023-04-29T00:00:00	2024-11-06T04:00:00	8	Radiación solar	0
22697	7	Sololá	701	Sololá	3	Barraneche	4	Abril	2023-04-29T00:00:00	2024-11-06T05:00:00	2	Temperatura media	11.2
22698	7	Sololá	701	Sololá	3	Barraneche	4	Abril	2023-04-29T00:00:00	2024-11-06T05:00:00	4	Temperatura máxima	11.9
22699	7	Sololá	701	Sololá	3	Barraneche	4	Abril	2023-04-29T00:00:00	2024-11-06T05:00:00	3	Temperatura mínima	11.2
22700	7	Sololá	701	Sololá	3	Barraneche	4	Abril	2023-04-29T00:00:00	2024-11-06T05:00:00	5	Humedad	75
22701	7	Sololá	701	Sololá	3	Barraneche	4	Abril	2023-04-29T00:00:00	2024-11-06T05:00:00	6	Velocidad del viento	3.2
22702	7	Sololá	701	Sololá	3	Barraneche	4	Abril	2023-04-29T00:00:00	2024-11-06T05:00:00	7	Dirección del viento	3.22
22703	7	Sololá	701	Sololá	3	Barraneche	4	Abril	2023-04-29T00:00:00	2024-11-06T05:00:00	1	Precipitación	0
22704	7	Sololá	701	Sololá	3	Barraneche	4	Abril	2023-04-29T00:00:00	2024-11-06T05:00:00	8	Radiación solar	0
22705	7	Sololá	701	Sololá	3	Barraneche	4	Abril	2023-04-29T00:00:00	2024-11-06T06:00:00	2	Temperatura media	11.4
22706	7	Sololá	701	Sololá	3	Barraneche	4	Abril	2023-04-29T00:00:00	2024-11-06T06:00:00	4	Temperatura máxima	11.6
22707	7	Sololá	701	Sololá	3	Barraneche	4	Abril	2023-04-29T00:00:00	2024-11-06T06:00:00	3	Temperatura mínima	11
22708	7	Sololá	701	Sololá	3	Barraneche	4	Abril	2023-04-29T00:00:00	2024-11-06T06:00:00	5	Humedad	74
22709	7	Sololá	701	Sololá	3	Barraneche	4	Abril	2023-04-29T00:00:00	2024-11-06T06:00:00	6	Velocidad del viento	4.8
22710	7	Sololá	701	Sololá	3	Barraneche	4	Abril	2023-04-29T00:00:00	2024-11-06T06:00:00	7	Dirección del viento	4.83
22711	7	Sololá	701	Sololá	3	Barraneche	4	Abril	2023-04-29T00:00:00	2024-11-06T06:00:00	1	Precipitación	0
22712	7	Sololá	701	Sololá	3	Barraneche	4	Abril	2023-04-29T00:00:00	2024-11-06T06:00:00	8	Radiación solar	3
22713	7	Sololá	701	Sololá	3	Barraneche	4	Abril	2023-04-29T00:00:00	2024-11-06T07:00:00	2	Temperatura media	12.4
22714	7	Sololá	701	Sololá	3	Barraneche	4	Abril	2023-04-29T00:00:00	2024-11-06T07:00:00	4	Temperatura máxima	12.6
22715	7	Sololá	701	Sololá	3	Barraneche	4	Abril	2023-04-29T00:00:00	2024-11-06T07:00:00	3	Temperatura mínima	11.3
22716	7	Sololá	701	Sololá	3	Barraneche	4	Abril	2023-04-29T00:00:00	2024-11-06T07:00:00	5	Humedad	74
22717	7	Sololá	701	Sololá	3	Barraneche	4	Abril	2023-04-29T00:00:00	2024-11-06T07:00:00	6	Velocidad del viento	6.4
22718	7	Sololá	701	Sololá	3	Barraneche	4	Abril	2023-04-29T00:00:00	2024-11-06T07:00:00	7	Dirección del viento	6.44
22719	7	Sololá	701	Sololá	3	Barraneche	4	Abril	2023-04-29T00:00:00	2024-11-06T07:00:00	1	Precipitación	0
22720	7	Sololá	701	Sololá	3	Barraneche	4	Abril	2023-04-29T00:00:00	2024-11-06T07:00:00	8	Radiación solar	83
22721	7	Sololá	701	Sololá	3	Barraneche	4	Abril	2023-04-29T00:00:00	2024-11-06T08:00:00	2	Temperatura media	15.9
22722	7	Sololá	701	Sololá	3	Barraneche	4	Abril	2023-04-29T00:00:00	2024-11-06T08:00:00	4	Temperatura máxima	15.9
22723	7	Sololá	701	Sololá	3	Barraneche	4	Abril	2023-04-29T00:00:00	2024-11-06T08:00:00	3	Temperatura mínima	12.3
22724	7	Sololá	701	Sololá	3	Barraneche	4	Abril	2023-04-29T00:00:00	2024-11-06T08:00:00	5	Humedad	68
22725	7	Sololá	701	Sololá	3	Barraneche	4	Abril	2023-04-29T00:00:00	2024-11-06T08:00:00	6	Velocidad del viento	1.6
22726	7	Sololá	701	Sololá	3	Barraneche	4	Abril	2023-04-29T00:00:00	2024-11-06T08:00:00	7	Dirección del viento	1.61
22727	7	Sololá	701	Sololá	3	Barraneche	4	Abril	2023-04-29T00:00:00	2024-11-06T08:00:00	1	Precipitación	0
22728	7	Sololá	701	Sololá	3	Barraneche	4	Abril	2023-04-29T00:00:00	2024-11-06T08:00:00	8	Radiación solar	330
22729	7	Sololá	701	Sololá	3	Barraneche	4	Abril	2023-04-29T00:00:00	2024-11-06T09:00:00	2	Temperatura media	17.9
22730	7	Sololá	701	Sololá	3	Barraneche	4	Abril	2023-04-29T00:00:00	2024-11-06T09:00:00	4	Temperatura máxima	17.9
22731	7	Sololá	701	Sololá	3	Barraneche	4	Abril	2023-04-29T00:00:00	2024-11-06T09:00:00	3	Temperatura mínima	16
22732	7	Sololá	701	Sololá	3	Barraneche	4	Abril	2023-04-29T00:00:00	2024-11-06T09:00:00	5	Humedad	64
22733	7	Sololá	701	Sololá	3	Barraneche	4	Abril	2023-04-29T00:00:00	2024-11-06T09:00:00	6	Velocidad del viento	3.2
22734	7	Sololá	701	Sololá	3	Barraneche	4	Abril	2023-04-29T00:00:00	2024-11-06T09:00:00	7	Dirección del viento	3.22
22735	7	Sololá	701	Sololá	3	Barraneche	4	Abril	2023-04-29T00:00:00	2024-11-06T09:00:00	1	Precipitación	0
22736	7	Sololá	701	Sololá	3	Barraneche	4	Abril	2023-04-29T00:00:00	2024-11-06T09:00:00	8	Radiación solar	580
22737	7	Sololá	701	Sololá	3	Barraneche	4	Abril	2023-04-29T00:00:00	2024-11-06T10:00:00	2	Temperatura media	17.4
22738	7	Sololá	701	Sololá	3	Barraneche	4	Abril	2023-04-29T00:00:00	2024-11-06T10:00:00	4	Temperatura máxima	18.2
22739	7	Sololá	701	Sololá	3	Barraneche	4	Abril	2023-04-29T00:00:00	2024-11-06T10:00:00	3	Temperatura mínima	17.4
22740	7	Sololá	701	Sololá	3	Barraneche	4	Abril	2023-04-29T00:00:00	2024-11-06T10:00:00	5	Humedad	71
22741	7	Sololá	701	Sololá	3	Barraneche	4	Abril	2023-04-29T00:00:00	2024-11-06T10:00:00	6	Velocidad del viento	8
22742	7	Sololá	701	Sololá	3	Barraneche	4	Abril	2023-04-29T00:00:00	2024-11-06T10:00:00	7	Dirección del viento	8.05
22743	7	Sololá	701	Sololá	3	Barraneche	4	Abril	2023-04-29T00:00:00	2024-11-06T10:00:00	1	Precipitación	0
22744	7	Sololá	701	Sololá	3	Barraneche	4	Abril	2023-04-29T00:00:00	2024-11-06T10:00:00	8	Radiación solar	744
22745	7	Sololá	701	Sololá	3	Barraneche	4	Abril	2023-04-29T00:00:00	2024-11-06T11:00:00	2	Temperatura media	17.9
22746	7	Sololá	701	Sololá	3	Barraneche	4	Abril	2023-04-29T00:00:00	2024-11-06T11:00:00	4	Temperatura máxima	17.9
22747	7	Sololá	701	Sololá	3	Barraneche	4	Abril	2023-04-29T00:00:00	2024-11-06T11:00:00	3	Temperatura mínima	17.4
22748	7	Sololá	701	Sololá	3	Barraneche	4	Abril	2023-04-29T00:00:00	2024-11-06T11:00:00	5	Humedad	69
22749	7	Sololá	701	Sololá	3	Barraneche	4	Abril	2023-04-29T00:00:00	2024-11-06T11:00:00	6	Velocidad del viento	9.7
22750	7	Sololá	701	Sololá	3	Barraneche	4	Abril	2023-04-29T00:00:00	2024-11-06T11:00:00	7	Dirección del viento	9.66
22751	7	Sololá	701	Sololá	3	Barraneche	4	Abril	2023-04-29T00:00:00	2024-11-06T11:00:00	1	Precipitación	0
22752	7	Sololá	701	Sololá	3	Barraneche	4	Abril	2023-04-29T00:00:00	2024-11-06T11:00:00	8	Radiación solar	933
22753	7	Sololá	701	Sololá	3	Barraneche	4	Abril	2023-04-29T00:00:00	2024-11-06T12:00:00	2	Temperatura media	17.9
22754	7	Sololá	701	Sololá	3	Barraneche	4	Abril	2023-04-29T00:00:00	2024-11-06T12:00:00	4	Temperatura máxima	18.5
22755	7	Sololá	701	Sololá	3	Barraneche	4	Abril	2023-04-29T00:00:00	2024-11-06T12:00:00	3	Temperatura mínima	17.8
22756	7	Sololá	701	Sololá	3	Barraneche	4	Abril	2023-04-29T00:00:00	2024-11-06T12:00:00	5	Humedad	71
22757	7	Sololá	701	Sololá	3	Barraneche	4	Abril	2023-04-29T00:00:00	2024-11-06T12:00:00	6	Velocidad del viento	11.3
22758	7	Sololá	701	Sololá	3	Barraneche	4	Abril	2023-04-29T00:00:00	2024-11-06T12:00:00	7	Dirección del viento	11.27
22759	7	Sololá	701	Sololá	3	Barraneche	4	Abril	2023-04-29T00:00:00	2024-11-06T12:00:00	1	Precipitación	0
22760	7	Sololá	701	Sololá	3	Barraneche	4	Abril	2023-04-29T00:00:00	2024-11-06T12:00:00	8	Radiación solar	882
22761	7	Sololá	701	Sololá	3	Barraneche	4	Abril	2023-04-29T00:00:00	2024-11-06T13:00:00	2	Temperatura media	18.8
22762	7	Sololá	701	Sololá	3	Barraneche	4	Abril	2023-04-29T00:00:00	2024-11-06T13:00:00	4	Temperatura máxima	18.9
22763	7	Sololá	701	Sololá	3	Barraneche	4	Abril	2023-04-29T00:00:00	2024-11-06T13:00:00	3	Temperatura mínima	17.8
22764	7	Sololá	701	Sololá	3	Barraneche	4	Abril	2023-04-29T00:00:00	2024-11-06T13:00:00	5	Humedad	69
22765	7	Sololá	701	Sololá	3	Barraneche	4	Abril	2023-04-29T00:00:00	2024-11-06T13:00:00	6	Velocidad del viento	8
22766	7	Sololá	701	Sololá	3	Barraneche	4	Abril	2023-04-29T00:00:00	2024-11-06T13:00:00	7	Dirección del viento	8.05
22767	7	Sololá	701	Sololá	3	Barraneche	4	Abril	2023-04-29T00:00:00	2024-11-06T13:00:00	1	Precipitación	0
22768	7	Sololá	701	Sololá	3	Barraneche	4	Abril	2023-04-29T00:00:00	2024-11-06T13:00:00	8	Radiación solar	775
22769	7	Sololá	701	Sololá	3	Barraneche	4	Abril	2023-04-29T00:00:00	2024-11-06T14:00:00	2	Temperatura media	17.9
22770	7	Sololá	701	Sololá	3	Barraneche	4	Abril	2023-04-29T00:00:00	2024-11-06T14:00:00	4	Temperatura máxima	18.9
22771	7	Sololá	701	Sololá	3	Barraneche	4	Abril	2023-04-29T00:00:00	2024-11-06T14:00:00	3	Temperatura mínima	17.7
22772	7	Sololá	701	Sololá	3	Barraneche	4	Abril	2023-04-29T00:00:00	2024-11-06T14:00:00	5	Humedad	73
22773	7	Sololá	701	Sololá	3	Barraneche	4	Abril	2023-04-29T00:00:00	2024-11-06T14:00:00	6	Velocidad del viento	9.7
22774	7	Sololá	701	Sololá	3	Barraneche	4	Abril	2023-04-29T00:00:00	2024-11-06T14:00:00	7	Dirección del viento	9.66
22775	7	Sololá	701	Sololá	3	Barraneche	4	Abril	2023-04-29T00:00:00	2024-11-06T14:00:00	1	Precipitación	0
22776	7	Sololá	701	Sololá	3	Barraneche	4	Abril	2023-04-29T00:00:00	2024-11-06T14:00:00	8	Radiación solar	436
22777	7	Sololá	701	Sololá	3	Barraneche	4	Abril	2023-04-29T00:00:00	2024-11-06T15:00:00	2	Temperatura media	15.4
22778	7	Sololá	701	Sololá	3	Barraneche	4	Abril	2023-04-29T00:00:00	2024-11-06T15:00:00	4	Temperatura máxima	17.9
22779	7	Sololá	701	Sololá	3	Barraneche	4	Abril	2023-04-29T00:00:00	2024-11-06T15:00:00	3	Temperatura mínima	15.4
22780	7	Sololá	701	Sololá	3	Barraneche	4	Abril	2023-04-29T00:00:00	2024-11-06T15:00:00	5	Humedad	82
22781	7	Sololá	701	Sololá	3	Barraneche	4	Abril	2023-04-29T00:00:00	2024-11-06T15:00:00	6	Velocidad del viento	9.7
22782	7	Sololá	701	Sololá	3	Barraneche	4	Abril	2023-04-29T00:00:00	2024-11-06T15:00:00	7	Dirección del viento	9.66
22783	7	Sololá	701	Sololá	3	Barraneche	4	Abril	2023-04-29T00:00:00	2024-11-06T15:00:00	1	Precipitación	0
22784	7	Sololá	701	Sololá	3	Barraneche	4	Abril	2023-04-29T00:00:00	2024-11-06T15:00:00	8	Radiación solar	114
22785	7	Sololá	701	Sololá	3	Barraneche	4	Abril	2023-04-29T00:00:00	2024-11-06T16:00:00	2	Temperatura media	15.1
22786	7	Sololá	701	Sololá	3	Barraneche	4	Abril	2023-04-29T00:00:00	2024-11-06T16:00:00	4	Temperatura máxima	15.5
22787	7	Sololá	701	Sololá	3	Barraneche	4	Abril	2023-04-29T00:00:00	2024-11-06T16:00:00	3	Temperatura mínima	15
22788	7	Sololá	701	Sololá	3	Barraneche	4	Abril	2023-04-29T00:00:00	2024-11-06T16:00:00	5	Humedad	85
22789	7	Sololá	701	Sololá	3	Barraneche	4	Abril	2023-04-29T00:00:00	2024-11-06T16:00:00	6	Velocidad del viento	6.4
22790	7	Sololá	701	Sololá	3	Barraneche	4	Abril	2023-04-29T00:00:00	2024-11-06T16:00:00	7	Dirección del viento	6.44
22791	7	Sololá	701	Sololá	3	Barraneche	4	Abril	2023-04-29T00:00:00	2024-11-06T16:00:00	1	Precipitación	0
22792	7	Sololá	701	Sololá	3	Barraneche	4	Abril	2023-04-29T00:00:00	2024-11-06T16:00:00	8	Radiación solar	48
22793	7	Sololá	701	Sololá	3	Barraneche	4	Abril	2023-04-29T00:00:00	2024-11-06T17:00:00	2	Temperatura media	13.7
22794	7	Sololá	701	Sololá	3	Barraneche	4	Abril	2023-04-29T00:00:00	2024-11-06T17:00:00	4	Temperatura máxima	15.5
22795	7	Sololá	701	Sololá	3	Barraneche	4	Abril	2023-04-29T00:00:00	2024-11-06T17:00:00	3	Temperatura mínima	13.7
22796	7	Sololá	701	Sololá	3	Barraneche	4	Abril	2023-04-29T00:00:00	2024-11-06T17:00:00	5	Humedad	75
22797	7	Sololá	701	Sololá	3	Barraneche	4	Abril	2023-04-29T00:00:00	2024-11-06T17:00:00	6	Velocidad del viento	9.7
22798	7	Sololá	701	Sololá	3	Barraneche	4	Abril	2023-04-29T00:00:00	2024-11-06T17:00:00	7	Dirección del viento	9.66
22799	7	Sololá	701	Sololá	3	Barraneche	4	Abril	2023-04-29T00:00:00	2024-11-06T17:00:00	1	Precipitación	0.8
22800	7	Sololá	701	Sololá	3	Barraneche	4	Abril	2023-04-29T00:00:00	2024-11-06T17:00:00	8	Radiación solar	41
22801	7	Sololá	701	Sololá	3	Barraneche	4	Abril	2023-04-29T00:00:00	2024-11-06T18:00:00	2	Temperatura media	13.7
22802	7	Sololá	701	Sololá	3	Barraneche	4	Abril	2023-04-29T00:00:00	2024-11-06T18:00:00	4	Temperatura máxima	14.1
22803	7	Sololá	701	Sololá	3	Barraneche	4	Abril	2023-04-29T00:00:00	2024-11-06T18:00:00	3	Temperatura mínima	13.4
22804	7	Sololá	701	Sololá	3	Barraneche	4	Abril	2023-04-29T00:00:00	2024-11-06T18:00:00	5	Humedad	75
22805	7	Sololá	701	Sololá	3	Barraneche	4	Abril	2023-04-29T00:00:00	2024-11-06T18:00:00	6	Velocidad del viento	4.8
22806	7	Sololá	701	Sololá	3	Barraneche	4	Abril	2023-04-29T00:00:00	2024-11-06T18:00:00	7	Dirección del viento	4.83
22807	7	Sololá	701	Sololá	3	Barraneche	4	Abril	2023-04-29T00:00:00	2024-11-06T18:00:00	1	Precipitación	0
22808	7	Sololá	701	Sololá	3	Barraneche	4	Abril	2023-04-29T00:00:00	2024-11-06T18:00:00	8	Radiación solar	44
22809	7	Sololá	701	Sololá	3	Barraneche	4	Abril	2023-04-29T00:00:00	2024-11-06T19:00:00	2	Temperatura media	12.7
22810	7	Sololá	701	Sololá	3	Barraneche	4	Abril	2023-04-29T00:00:00	2024-11-06T19:00:00	4	Temperatura máxima	13.7
22811	7	Sololá	701	Sololá	3	Barraneche	4	Abril	2023-04-29T00:00:00	2024-11-06T19:00:00	3	Temperatura mínima	12.6
22812	7	Sololá	701	Sololá	3	Barraneche	4	Abril	2023-04-29T00:00:00	2024-11-06T19:00:00	5	Humedad	74
22813	7	Sololá	701	Sololá	3	Barraneche	4	Abril	2023-04-29T00:00:00	2024-11-06T19:00:00	6	Velocidad del viento	8
22814	7	Sololá	701	Sololá	3	Barraneche	4	Abril	2023-04-29T00:00:00	2024-11-06T19:00:00	7	Dirección del viento	8.05
22815	7	Sololá	701	Sololá	3	Barraneche	4	Abril	2023-04-29T00:00:00	2024-11-06T19:00:00	1	Precipitación	0
22816	7	Sololá	701	Sololá	3	Barraneche	4	Abril	2023-04-29T00:00:00	2024-11-06T19:00:00	8	Radiación solar	0
22817	7	Sololá	701	Sololá	3	Barraneche	4	Abril	2023-04-29T00:00:00	2024-11-06T20:00:00	2	Temperatura media	12.8
22818	7	Sololá	701	Sololá	3	Barraneche	4	Abril	2023-04-29T00:00:00	2024-11-06T20:00:00	4	Temperatura máxima	12.8
22819	7	Sololá	701	Sololá	3	Barraneche	4	Abril	2023-04-29T00:00:00	2024-11-06T20:00:00	3	Temperatura mínima	12.5
22820	7	Sololá	701	Sololá	3	Barraneche	4	Abril	2023-04-29T00:00:00	2024-11-06T20:00:00	5	Humedad	75
22821	7	Sololá	701	Sololá	3	Barraneche	4	Abril	2023-04-29T00:00:00	2024-11-06T20:00:00	6	Velocidad del viento	6.4
22822	7	Sololá	701	Sololá	3	Barraneche	4	Abril	2023-04-29T00:00:00	2024-11-06T20:00:00	7	Dirección del viento	6.44
22823	7	Sololá	701	Sololá	3	Barraneche	4	Abril	2023-04-29T00:00:00	2024-11-06T20:00:00	1	Precipitación	0
22824	7	Sololá	701	Sololá	3	Barraneche	4	Abril	2023-04-29T00:00:00	2024-11-06T20:00:00	8	Radiación solar	0
22825	7	Sololá	701	Sololá	3	Barraneche	4	Abril	2023-04-29T00:00:00	2024-11-06T21:00:00	2	Temperatura media	12.5
22826	7	Sololá	701	Sololá	3	Barraneche	4	Abril	2023-04-29T00:00:00	2024-11-06T21:00:00	4	Temperatura máxima	12.8
22827	7	Sololá	701	Sololá	3	Barraneche	4	Abril	2023-04-29T00:00:00	2024-11-06T21:00:00	3	Temperatura mínima	12.3
22828	7	Sololá	701	Sololá	3	Barraneche	4	Abril	2023-04-29T00:00:00	2024-11-06T21:00:00	5	Humedad	73
22829	7	Sololá	701	Sololá	3	Barraneche	4	Abril	2023-04-29T00:00:00	2024-11-06T21:00:00	6	Velocidad del viento	6.4
22830	7	Sololá	701	Sololá	3	Barraneche	4	Abril	2023-04-29T00:00:00	2024-11-06T21:00:00	7	Dirección del viento	6.44
22831	7	Sololá	701	Sololá	3	Barraneche	4	Abril	2023-04-29T00:00:00	2024-11-06T21:00:00	1	Precipitación	0
22832	7	Sololá	701	Sololá	3	Barraneche	4	Abril	2023-04-29T00:00:00	2024-11-06T21:00:00	8	Radiación solar	0
22833	7	Sololá	701	Sololá	3	Barraneche	4	Abril	2023-04-29T00:00:00	2024-11-06T22:00:00	2	Temperatura media	12.6
22834	7	Sololá	701	Sololá	3	Barraneche	4	Abril	2023-04-29T00:00:00	2024-11-06T22:00:00	4	Temperatura máxima	12.7
22835	7	Sololá	701	Sololá	3	Barraneche	4	Abril	2023-04-29T00:00:00	2024-11-06T22:00:00	3	Temperatura mínima	12.3
22836	7	Sololá	701	Sololá	3	Barraneche	4	Abril	2023-04-29T00:00:00	2024-11-06T22:00:00	5	Humedad	75
22837	7	Sololá	701	Sololá	3	Barraneche	4	Abril	2023-04-29T00:00:00	2024-11-06T22:00:00	6	Velocidad del viento	6.4
22838	7	Sololá	701	Sololá	3	Barraneche	4	Abril	2023-04-29T00:00:00	2024-11-06T22:00:00	7	Dirección del viento	6.44
22839	7	Sololá	701	Sololá	3	Barraneche	4	Abril	2023-04-29T00:00:00	2024-11-06T22:00:00	1	Precipitación	0
22840	7	Sololá	701	Sololá	3	Barraneche	4	Abril	2023-04-29T00:00:00	2024-11-06T22:00:00	8	Radiación solar	0
22841	7	Sololá	701	Sololá	3	Barraneche	4	Abril	2023-04-29T00:00:00	2024-11-06T23:00:00	2	Temperatura media	14.1
22842	7	Sololá	701	Sololá	3	Barraneche	4	Abril	2023-04-29T00:00:00	2024-11-06T23:00:00	4	Temperatura máxima	14.3
22843	7	Sololá	701	Sololá	3	Barraneche	4	Abril	2023-04-29T00:00:00	2024-11-06T23:00:00	3	Temperatura mínima	12.3
22844	7	Sololá	701	Sololá	3	Barraneche	4	Abril	2023-04-29T00:00:00	2024-11-06T23:00:00	5	Humedad	71
22845	7	Sololá	701	Sololá	3	Barraneche	4	Abril	2023-04-29T00:00:00	2024-11-06T23:00:00	6	Velocidad del viento	4.8
22846	7	Sololá	701	Sololá	3	Barraneche	4	Abril	2023-04-29T00:00:00	2024-11-06T23:00:00	7	Dirección del viento	4.83
22847	7	Sololá	701	Sololá	3	Barraneche	4	Abril	2023-04-29T00:00:00	2024-11-06T23:00:00	1	Precipitación	0
22848	7	Sololá	701	Sololá	3	Barraneche	4	Abril	2023-04-29T00:00:00	2024-11-06T23:00:00	8	Radiación solar	0
22849	7	Sololá	701	Sololá	3	Barraneche	4	Abril	2023-04-30T00:00:00	2024-11-06T00:00:00	2	Temperatura media	14
22850	7	Sololá	701	Sololá	3	Barraneche	4	Abril	2023-04-30T00:00:00	2024-11-06T00:00:00	4	Temperatura máxima	14.7
22851	7	Sololá	701	Sololá	3	Barraneche	4	Abril	2023-04-30T00:00:00	2024-11-06T00:00:00	3	Temperatura mínima	13.9
22852	7	Sololá	701	Sololá	3	Barraneche	4	Abril	2023-04-30T00:00:00	2024-11-06T00:00:00	5	Humedad	72
22853	7	Sololá	701	Sololá	3	Barraneche	4	Abril	2023-04-30T00:00:00	2024-11-06T00:00:00	6	Velocidad del viento	8
22854	7	Sololá	701	Sololá	3	Barraneche	4	Abril	2023-04-30T00:00:00	2024-11-06T00:00:00	7	Dirección del viento	8.05
22855	7	Sololá	701	Sololá	3	Barraneche	4	Abril	2023-04-30T00:00:00	2024-11-06T00:00:00	1	Precipitación	0
22856	7	Sololá	701	Sololá	3	Barraneche	4	Abril	2023-04-30T00:00:00	2024-11-06T00:00:00	8	Radiación solar	0
22857	7	Sololá	701	Sololá	3	Barraneche	4	Abril	2023-04-30T00:00:00	2024-11-06T01:00:00	2	Temperatura media	13.2
22858	7	Sololá	701	Sololá	3	Barraneche	4	Abril	2023-04-30T00:00:00	2024-11-06T01:00:00	4	Temperatura máxima	14.1
22859	7	Sololá	701	Sololá	3	Barraneche	4	Abril	2023-04-30T00:00:00	2024-11-06T01:00:00	3	Temperatura mínima	12.8
22860	7	Sololá	701	Sololá	3	Barraneche	4	Abril	2023-04-30T00:00:00	2024-11-06T01:00:00	5	Humedad	73
22861	7	Sololá	701	Sololá	3	Barraneche	4	Abril	2023-04-30T00:00:00	2024-11-06T01:00:00	6	Velocidad del viento	4.8
22862	7	Sololá	701	Sololá	3	Barraneche	4	Abril	2023-04-30T00:00:00	2024-11-06T01:00:00	7	Dirección del viento	4.83
22863	7	Sololá	701	Sololá	3	Barraneche	4	Abril	2023-04-30T00:00:00	2024-11-06T01:00:00	1	Precipitación	0
22864	7	Sololá	701	Sololá	3	Barraneche	4	Abril	2023-04-30T00:00:00	2024-11-06T01:00:00	8	Radiación solar	0
22865	7	Sololá	701	Sololá	3	Barraneche	4	Abril	2023-04-30T00:00:00	2024-11-06T02:00:00	2	Temperatura media	13.7
22866	7	Sololá	701	Sololá	3	Barraneche	4	Abril	2023-04-30T00:00:00	2024-11-06T02:00:00	4	Temperatura máxima	13.7
22867	7	Sololá	701	Sololá	3	Barraneche	4	Abril	2023-04-30T00:00:00	2024-11-06T02:00:00	3	Temperatura mínima	13.1
22868	7	Sololá	701	Sololá	3	Barraneche	4	Abril	2023-04-30T00:00:00	2024-11-06T02:00:00	5	Humedad	71
22869	7	Sololá	701	Sololá	3	Barraneche	4	Abril	2023-04-30T00:00:00	2024-11-06T02:00:00	6	Velocidad del viento	6.4
22870	7	Sololá	701	Sololá	3	Barraneche	4	Abril	2023-04-30T00:00:00	2024-11-06T02:00:00	7	Dirección del viento	6.44
22871	7	Sololá	701	Sololá	3	Barraneche	4	Abril	2023-04-30T00:00:00	2024-11-06T02:00:00	1	Precipitación	0
22872	7	Sololá	701	Sololá	3	Barraneche	4	Abril	2023-04-30T00:00:00	2024-11-06T02:00:00	8	Radiación solar	0
22873	7	Sololá	701	Sololá	3	Barraneche	4	Abril	2023-04-30T00:00:00	2024-11-06T03:00:00	2	Temperatura media	13.1
22874	7	Sololá	701	Sololá	3	Barraneche	4	Abril	2023-04-30T00:00:00	2024-11-06T03:00:00	4	Temperatura máxima	13.8
22875	7	Sololá	701	Sololá	3	Barraneche	4	Abril	2023-04-30T00:00:00	2024-11-06T03:00:00	3	Temperatura mínima	12.9
22876	7	Sololá	701	Sololá	3	Barraneche	4	Abril	2023-04-30T00:00:00	2024-11-06T03:00:00	5	Humedad	73
22877	7	Sololá	701	Sololá	3	Barraneche	4	Abril	2023-04-30T00:00:00	2024-11-06T03:00:00	6	Velocidad del viento	9.7
22878	7	Sololá	701	Sololá	3	Barraneche	4	Abril	2023-04-30T00:00:00	2024-11-06T03:00:00	7	Dirección del viento	9.66
22879	7	Sololá	701	Sololá	3	Barraneche	4	Abril	2023-04-30T00:00:00	2024-11-06T03:00:00	1	Precipitación	0
22880	7	Sololá	701	Sololá	3	Barraneche	4	Abril	2023-04-30T00:00:00	2024-11-06T03:00:00	8	Radiación solar	0
22881	7	Sololá	701	Sololá	3	Barraneche	4	Abril	2023-04-30T00:00:00	2024-11-06T04:00:00	2	Temperatura media	13.6
22882	7	Sololá	701	Sololá	3	Barraneche	4	Abril	2023-04-30T00:00:00	2024-11-06T04:00:00	4	Temperatura máxima	13.9
22883	7	Sololá	701	Sololá	3	Barraneche	4	Abril	2023-04-30T00:00:00	2024-11-06T04:00:00	3	Temperatura mínima	13.1
22884	7	Sololá	701	Sololá	3	Barraneche	4	Abril	2023-04-30T00:00:00	2024-11-06T04:00:00	5	Humedad	73
22885	7	Sololá	701	Sololá	3	Barraneche	4	Abril	2023-04-30T00:00:00	2024-11-06T04:00:00	6	Velocidad del viento	14.5
22886	7	Sololá	701	Sololá	3	Barraneche	4	Abril	2023-04-30T00:00:00	2024-11-06T04:00:00	7	Dirección del viento	14.48
22887	7	Sololá	701	Sololá	3	Barraneche	4	Abril	2023-04-30T00:00:00	2024-11-06T04:00:00	1	Precipitación	0
22888	7	Sololá	701	Sololá	3	Barraneche	4	Abril	2023-04-30T00:00:00	2024-11-06T04:00:00	8	Radiación solar	0
22889	7	Sololá	701	Sololá	3	Barraneche	4	Abril	2023-04-30T00:00:00	2024-11-06T05:00:00	2	Temperatura media	13
22890	7	Sololá	701	Sololá	3	Barraneche	4	Abril	2023-04-30T00:00:00	2024-11-06T05:00:00	4	Temperatura máxima	13.6
22891	7	Sololá	701	Sololá	3	Barraneche	4	Abril	2023-04-30T00:00:00	2024-11-06T05:00:00	3	Temperatura mínima	12.9
22892	7	Sololá	701	Sololá	3	Barraneche	4	Abril	2023-04-30T00:00:00	2024-11-06T05:00:00	5	Humedad	76
22893	7	Sololá	701	Sololá	3	Barraneche	4	Abril	2023-04-30T00:00:00	2024-11-06T05:00:00	6	Velocidad del viento	24.1
22894	7	Sololá	701	Sololá	3	Barraneche	4	Abril	2023-04-30T00:00:00	2024-11-06T05:00:00	7	Dirección del viento	24.14
22895	7	Sololá	701	Sololá	3	Barraneche	4	Abril	2023-04-30T00:00:00	2024-11-06T05:00:00	1	Precipitación	0
22896	7	Sololá	701	Sololá	3	Barraneche	4	Abril	2023-04-30T00:00:00	2024-11-06T05:00:00	8	Radiación solar	0
22897	7	Sololá	701	Sololá	3	Barraneche	4	Abril	2023-04-30T00:00:00	2024-11-06T06:00:00	2	Temperatura media	13.8
22898	7	Sololá	701	Sololá	3	Barraneche	4	Abril	2023-04-30T00:00:00	2024-11-06T06:00:00	4	Temperatura máxima	13.8
22899	7	Sololá	701	Sololá	3	Barraneche	4	Abril	2023-04-30T00:00:00	2024-11-06T06:00:00	3	Temperatura mínima	12.9
22900	7	Sololá	701	Sololá	3	Barraneche	4	Abril	2023-04-30T00:00:00	2024-11-06T06:00:00	5	Humedad	72
22901	7	Sololá	701	Sololá	3	Barraneche	4	Abril	2023-04-30T00:00:00	2024-11-06T06:00:00	6	Velocidad del viento	22.5
22902	7	Sololá	701	Sololá	3	Barraneche	4	Abril	2023-04-30T00:00:00	2024-11-06T06:00:00	7	Dirección del viento	22.53
22903	7	Sololá	701	Sololá	3	Barraneche	4	Abril	2023-04-30T00:00:00	2024-11-06T06:00:00	1	Precipitación	0
22904	7	Sololá	701	Sololá	3	Barraneche	4	Abril	2023-04-30T00:00:00	2024-11-06T06:00:00	8	Radiación solar	3
22905	7	Sololá	701	Sololá	3	Barraneche	4	Abril	2023-04-30T00:00:00	2024-11-06T07:00:00	2	Temperatura media	14.8
22906	7	Sololá	701	Sololá	3	Barraneche	4	Abril	2023-04-30T00:00:00	2024-11-06T07:00:00	4	Temperatura máxima	14.8
22907	7	Sololá	701	Sololá	3	Barraneche	4	Abril	2023-04-30T00:00:00	2024-11-06T07:00:00	3	Temperatura mínima	13.3
22908	7	Sololá	701	Sololá	3	Barraneche	4	Abril	2023-04-30T00:00:00	2024-11-06T07:00:00	5	Humedad	67
22909	7	Sololá	701	Sololá	3	Barraneche	4	Abril	2023-04-30T00:00:00	2024-11-06T07:00:00	6	Velocidad del viento	27.4
22910	7	Sololá	701	Sololá	3	Barraneche	4	Abril	2023-04-30T00:00:00	2024-11-06T07:00:00	7	Dirección del viento	27.36
22911	7	Sololá	701	Sololá	3	Barraneche	4	Abril	2023-04-30T00:00:00	2024-11-06T07:00:00	1	Precipitación	0
22912	7	Sololá	701	Sololá	3	Barraneche	4	Abril	2023-04-30T00:00:00	2024-11-06T07:00:00	8	Radiación solar	111
22913	7	Sololá	701	Sololá	3	Barraneche	4	Abril	2023-04-30T00:00:00	2024-11-06T08:00:00	2	Temperatura media	16.7
22914	7	Sololá	701	Sololá	3	Barraneche	4	Abril	2023-04-30T00:00:00	2024-11-06T08:00:00	4	Temperatura máxima	16.7
22915	7	Sololá	701	Sololá	3	Barraneche	4	Abril	2023-04-30T00:00:00	2024-11-06T08:00:00	3	Temperatura mínima	14.8
22916	7	Sololá	701	Sololá	3	Barraneche	4	Abril	2023-04-30T00:00:00	2024-11-06T08:00:00	5	Humedad	58
22917	7	Sololá	701	Sololá	3	Barraneche	4	Abril	2023-04-30T00:00:00	2024-11-06T08:00:00	6	Velocidad del viento	22.5
22918	7	Sololá	701	Sololá	3	Barraneche	4	Abril	2023-04-30T00:00:00	2024-11-06T08:00:00	7	Dirección del viento	22.53
22919	7	Sololá	701	Sololá	3	Barraneche	4	Abril	2023-04-30T00:00:00	2024-11-06T08:00:00	1	Precipitación	0
22920	7	Sololá	701	Sololá	3	Barraneche	4	Abril	2023-04-30T00:00:00	2024-11-06T08:00:00	8	Radiación solar	324
22921	7	Sololá	701	Sololá	3	Barraneche	4	Abril	2023-04-30T00:00:00	2024-11-06T09:00:00	2	Temperatura media	19.2
22922	7	Sololá	701	Sololá	3	Barraneche	4	Abril	2023-04-30T00:00:00	2024-11-06T09:00:00	4	Temperatura máxima	19.3
22923	7	Sololá	701	Sololá	3	Barraneche	4	Abril	2023-04-30T00:00:00	2024-11-06T09:00:00	3	Temperatura mínima	16.7
22924	7	Sololá	701	Sololá	3	Barraneche	4	Abril	2023-04-30T00:00:00	2024-11-06T09:00:00	5	Humedad	46
22925	7	Sololá	701	Sololá	3	Barraneche	4	Abril	2023-04-30T00:00:00	2024-11-06T09:00:00	6	Velocidad del viento	17.7
22926	7	Sololá	701	Sololá	3	Barraneche	4	Abril	2023-04-30T00:00:00	2024-11-06T09:00:00	7	Dirección del viento	17.7
22927	7	Sololá	701	Sololá	3	Barraneche	4	Abril	2023-04-30T00:00:00	2024-11-06T09:00:00	1	Precipitación	0
22928	7	Sololá	701	Sololá	3	Barraneche	4	Abril	2023-04-30T00:00:00	2024-11-06T09:00:00	8	Radiación solar	622
22929	7	Sololá	701	Sololá	3	Barraneche	4	Abril	2023-04-30T00:00:00	2024-11-06T10:00:00	2	Temperatura media	21.3
22930	7	Sololá	701	Sololá	3	Barraneche	4	Abril	2023-04-30T00:00:00	2024-11-06T10:00:00	4	Temperatura máxima	21.3
22931	7	Sololá	701	Sololá	3	Barraneche	4	Abril	2023-04-30T00:00:00	2024-11-06T10:00:00	3	Temperatura mínima	19.3
22932	7	Sololá	701	Sololá	3	Barraneche	4	Abril	2023-04-30T00:00:00	2024-11-06T10:00:00	5	Humedad	48
22933	7	Sololá	701	Sololá	3	Barraneche	4	Abril	2023-04-30T00:00:00	2024-11-06T10:00:00	6	Velocidad del viento	11.3
22934	7	Sololá	701	Sololá	3	Barraneche	4	Abril	2023-04-30T00:00:00	2024-11-06T10:00:00	7	Dirección del viento	11.27
22935	7	Sololá	701	Sololá	3	Barraneche	4	Abril	2023-04-30T00:00:00	2024-11-06T10:00:00	1	Precipitación	0
22936	7	Sololá	701	Sololá	3	Barraneche	4	Abril	2023-04-30T00:00:00	2024-11-06T10:00:00	8	Radiación solar	845
22937	7	Sololá	701	Sololá	3	Barraneche	4	Abril	2023-04-30T00:00:00	2024-11-06T11:00:00	2	Temperatura media	20.4
22938	7	Sololá	701	Sololá	3	Barraneche	4	Abril	2023-04-30T00:00:00	2024-11-06T11:00:00	4	Temperatura máxima	21.3
22939	7	Sololá	701	Sololá	3	Barraneche	4	Abril	2023-04-30T00:00:00	2024-11-06T11:00:00	3	Temperatura mínima	20.1
22940	7	Sololá	701	Sololá	3	Barraneche	4	Abril	2023-04-30T00:00:00	2024-11-06T11:00:00	5	Humedad	53
22941	7	Sololá	701	Sololá	3	Barraneche	4	Abril	2023-04-30T00:00:00	2024-11-06T11:00:00	6	Velocidad del viento	12.9
22942	7	Sololá	701	Sololá	3	Barraneche	4	Abril	2023-04-30T00:00:00	2024-11-06T11:00:00	7	Dirección del viento	12.87
22943	7	Sololá	701	Sololá	3	Barraneche	4	Abril	2023-04-30T00:00:00	2024-11-06T11:00:00	1	Precipitación	0
22944	7	Sololá	701	Sololá	3	Barraneche	4	Abril	2023-04-30T00:00:00	2024-11-06T11:00:00	8	Radiación solar	869
22945	7	Sololá	701	Sololá	3	Barraneche	4	Abril	2023-04-30T00:00:00	2024-11-06T12:00:00	2	Temperatura media	21.9
22946	7	Sololá	701	Sololá	3	Barraneche	4	Abril	2023-04-30T00:00:00	2024-11-06T12:00:00	4	Temperatura máxima	22
22947	7	Sololá	701	Sololá	3	Barraneche	4	Abril	2023-04-30T00:00:00	2024-11-06T12:00:00	3	Temperatura mínima	20.4
22948	7	Sololá	701	Sololá	3	Barraneche	4	Abril	2023-04-30T00:00:00	2024-11-06T12:00:00	5	Humedad	44
22949	7	Sololá	701	Sololá	3	Barraneche	4	Abril	2023-04-30T00:00:00	2024-11-06T12:00:00	6	Velocidad del viento	11.3
22950	7	Sololá	701	Sololá	3	Barraneche	4	Abril	2023-04-30T00:00:00	2024-11-06T12:00:00	7	Dirección del viento	11.27
22951	7	Sololá	701	Sololá	3	Barraneche	4	Abril	2023-04-30T00:00:00	2024-11-06T12:00:00	1	Precipitación	0
22952	7	Sololá	701	Sololá	3	Barraneche	4	Abril	2023-04-30T00:00:00	2024-11-06T12:00:00	8	Radiación solar	1058
22953	7	Sololá	701	Sololá	3	Barraneche	4	Abril	2023-04-30T00:00:00	2024-11-06T13:00:00	2	Temperatura media	21.9
22954	7	Sololá	701	Sololá	3	Barraneche	4	Abril	2023-04-30T00:00:00	2024-11-06T13:00:00	4	Temperatura máxima	22.3
22955	7	Sololá	701	Sololá	3	Barraneche	4	Abril	2023-04-30T00:00:00	2024-11-06T13:00:00	3	Temperatura mínima	21.8
22956	7	Sololá	701	Sololá	3	Barraneche	4	Abril	2023-04-30T00:00:00	2024-11-06T13:00:00	5	Humedad	46
22957	7	Sololá	701	Sololá	3	Barraneche	4	Abril	2023-04-30T00:00:00	2024-11-06T13:00:00	6	Velocidad del viento	14.5
22958	7	Sololá	701	Sololá	3	Barraneche	4	Abril	2023-04-30T00:00:00	2024-11-06T13:00:00	7	Dirección del viento	14.48
22959	7	Sololá	701	Sololá	3	Barraneche	4	Abril	2023-04-30T00:00:00	2024-11-06T13:00:00	1	Precipitación	0
22960	7	Sololá	701	Sololá	3	Barraneche	4	Abril	2023-04-30T00:00:00	2024-11-06T13:00:00	8	Radiación solar	1072
22961	7	Sololá	701	Sololá	3	Barraneche	4	Abril	2023-04-30T00:00:00	2024-11-06T14:00:00	2	Temperatura media	20.1
22962	7	Sololá	701	Sololá	3	Barraneche	4	Abril	2023-04-30T00:00:00	2024-11-06T14:00:00	4	Temperatura máxima	22.1
22963	7	Sololá	701	Sololá	3	Barraneche	4	Abril	2023-04-30T00:00:00	2024-11-06T14:00:00	3	Temperatura mínima	20.1
22964	7	Sololá	701	Sololá	3	Barraneche	4	Abril	2023-04-30T00:00:00	2024-11-06T14:00:00	5	Humedad	63
22965	7	Sololá	701	Sololá	3	Barraneche	4	Abril	2023-04-30T00:00:00	2024-11-06T14:00:00	6	Velocidad del viento	9.7
22966	7	Sololá	701	Sololá	3	Barraneche	4	Abril	2023-04-30T00:00:00	2024-11-06T14:00:00	7	Dirección del viento	9.66
22967	7	Sololá	701	Sololá	3	Barraneche	4	Abril	2023-04-30T00:00:00	2024-11-06T14:00:00	1	Precipitación	0
22968	7	Sololá	701	Sololá	3	Barraneche	4	Abril	2023-04-30T00:00:00	2024-11-06T14:00:00	8	Radiación solar	772
22969	7	Sololá	701	Sololá	3	Barraneche	4	Abril	2023-04-30T00:00:00	2024-11-06T15:00:00	2	Temperatura media	17.4
22970	7	Sololá	701	Sololá	3	Barraneche	4	Abril	2023-04-30T00:00:00	2024-11-06T15:00:00	4	Temperatura máxima	20.1
22971	7	Sololá	701	Sololá	3	Barraneche	4	Abril	2023-04-30T00:00:00	2024-11-06T15:00:00	3	Temperatura mínima	17.4
22972	7	Sololá	701	Sololá	3	Barraneche	4	Abril	2023-04-30T00:00:00	2024-11-06T15:00:00	5	Humedad	70
22973	7	Sololá	701	Sololá	3	Barraneche	4	Abril	2023-04-30T00:00:00	2024-11-06T15:00:00	6	Velocidad del viento	9.7
22974	7	Sololá	701	Sololá	3	Barraneche	4	Abril	2023-04-30T00:00:00	2024-11-06T15:00:00	7	Dirección del viento	9.66
22975	7	Sololá	701	Sololá	3	Barraneche	4	Abril	2023-04-30T00:00:00	2024-11-06T15:00:00	1	Precipitación	0
22976	7	Sololá	701	Sololá	3	Barraneche	4	Abril	2023-04-30T00:00:00	2024-11-06T15:00:00	8	Radiación solar	348
22977	7	Sololá	701	Sololá	3	Barraneche	4	Abril	2023-04-30T00:00:00	2024-11-06T16:00:00	2	Temperatura media	18.7
22978	7	Sololá	701	Sololá	3	Barraneche	4	Abril	2023-04-30T00:00:00	2024-11-06T16:00:00	4	Temperatura máxima	18.7
22979	7	Sololá	701	Sololá	3	Barraneche	4	Abril	2023-04-30T00:00:00	2024-11-06T16:00:00	3	Temperatura mínima	17.3
22980	7	Sololá	701	Sololá	3	Barraneche	4	Abril	2023-04-30T00:00:00	2024-11-06T16:00:00	5	Humedad	66
22981	7	Sololá	701	Sololá	3	Barraneche	4	Abril	2023-04-30T00:00:00	2024-11-06T16:00:00	6	Velocidad del viento	6.4
22982	7	Sololá	701	Sololá	3	Barraneche	4	Abril	2023-04-30T00:00:00	2024-11-06T16:00:00	7	Dirección del viento	6.44
22983	7	Sololá	701	Sololá	3	Barraneche	4	Abril	2023-04-30T00:00:00	2024-11-06T16:00:00	1	Precipitación	0
22984	7	Sololá	701	Sololá	3	Barraneche	4	Abril	2023-04-30T00:00:00	2024-11-06T16:00:00	8	Radiación solar	260
22985	7	Sololá	701	Sololá	3	Barraneche	4	Abril	2023-04-30T00:00:00	2024-11-06T17:00:00	2	Temperatura media	16.5
22986	7	Sololá	701	Sololá	3	Barraneche	4	Abril	2023-04-30T00:00:00	2024-11-06T17:00:00	4	Temperatura máxima	18.7
22987	7	Sololá	701	Sololá	3	Barraneche	4	Abril	2023-04-30T00:00:00	2024-11-06T17:00:00	3	Temperatura mínima	16.4
22988	7	Sololá	701	Sololá	3	Barraneche	4	Abril	2023-04-30T00:00:00	2024-11-06T17:00:00	5	Humedad	75
22989	7	Sololá	701	Sololá	3	Barraneche	4	Abril	2023-04-30T00:00:00	2024-11-06T17:00:00	6	Velocidad del viento	9.7
22990	7	Sololá	701	Sololá	3	Barraneche	4	Abril	2023-04-30T00:00:00	2024-11-06T17:00:00	7	Dirección del viento	9.66
22991	7	Sololá	701	Sololá	3	Barraneche	4	Abril	2023-04-30T00:00:00	2024-11-06T17:00:00	1	Precipitación	0
22992	7	Sololá	701	Sololá	3	Barraneche	4	Abril	2023-04-30T00:00:00	2024-11-06T17:00:00	8	Radiación solar	99
22993	7	Sololá	701	Sololá	3	Barraneche	4	Abril	2023-04-30T00:00:00	2024-11-06T18:00:00	2	Temperatura media	16.8
22994	7	Sololá	701	Sololá	3	Barraneche	4	Abril	2023-04-30T00:00:00	2024-11-06T18:00:00	4	Temperatura máxima	16.9
22995	7	Sololá	701	Sololá	3	Barraneche	4	Abril	2023-04-30T00:00:00	2024-11-06T18:00:00	3	Temperatura mínima	16.1
22996	7	Sololá	701	Sololá	3	Barraneche	4	Abril	2023-04-30T00:00:00	2024-11-06T18:00:00	5	Humedad	63
22997	7	Sololá	701	Sololá	3	Barraneche	4	Abril	2023-04-30T00:00:00	2024-11-06T18:00:00	6	Velocidad del viento	8
22998	7	Sololá	701	Sololá	3	Barraneche	4	Abril	2023-04-30T00:00:00	2024-11-06T18:00:00	7	Dirección del viento	8.05
22999	7	Sololá	701	Sololá	3	Barraneche	4	Abril	2023-04-30T00:00:00	2024-11-06T18:00:00	1	Precipitación	0
23000	7	Sololá	701	Sololá	3	Barraneche	4	Abril	2023-04-30T00:00:00	2024-11-06T18:00:00	8	Radiación solar	30
23001	7	Sololá	701	Sololá	3	Barraneche	4	Abril	2023-04-30T00:00:00	2024-11-06T19:00:00	2	Temperatura media	15.6
23002	7	Sololá	701	Sololá	3	Barraneche	4	Abril	2023-04-30T00:00:00	2024-11-06T19:00:00	4	Temperatura máxima	16.8
23003	7	Sololá	701	Sololá	3	Barraneche	4	Abril	2023-04-30T00:00:00	2024-11-06T19:00:00	3	Temperatura mínima	15.6
23004	7	Sololá	701	Sololá	3	Barraneche	4	Abril	2023-04-30T00:00:00	2024-11-06T19:00:00	5	Humedad	67
23005	7	Sololá	701	Sololá	3	Barraneche	4	Abril	2023-04-30T00:00:00	2024-11-06T19:00:00	6	Velocidad del viento	8
23006	7	Sololá	701	Sololá	3	Barraneche	4	Abril	2023-04-30T00:00:00	2024-11-06T19:00:00	7	Dirección del viento	8.05
23007	7	Sololá	701	Sololá	3	Barraneche	4	Abril	2023-04-30T00:00:00	2024-11-06T19:00:00	1	Precipitación	0
23008	7	Sololá	701	Sololá	3	Barraneche	4	Abril	2023-04-30T00:00:00	2024-11-06T19:00:00	8	Radiación solar	0
23009	7	Sololá	701	Sololá	3	Barraneche	4	Abril	2023-04-30T00:00:00	2024-11-06T20:00:00	2	Temperatura media	15.5
23010	7	Sololá	701	Sololá	3	Barraneche	4	Abril	2023-04-30T00:00:00	2024-11-06T20:00:00	4	Temperatura máxima	15.8
23011	7	Sololá	701	Sololá	3	Barraneche	4	Abril	2023-04-30T00:00:00	2024-11-06T20:00:00	3	Temperatura mínima	15.5
23012	7	Sololá	701	Sololá	3	Barraneche	4	Abril	2023-04-30T00:00:00	2024-11-06T20:00:00	5	Humedad	65
23013	7	Sololá	701	Sololá	3	Barraneche	4	Abril	2023-04-30T00:00:00	2024-11-06T20:00:00	6	Velocidad del viento	6.4
23014	7	Sololá	701	Sololá	3	Barraneche	4	Abril	2023-04-30T00:00:00	2024-11-06T20:00:00	7	Dirección del viento	6.44
23015	7	Sololá	701	Sololá	3	Barraneche	4	Abril	2023-04-30T00:00:00	2024-11-06T20:00:00	1	Precipitación	0
23016	7	Sololá	701	Sololá	3	Barraneche	4	Abril	2023-04-30T00:00:00	2024-11-06T20:00:00	8	Radiación solar	0
23017	7	Sololá	701	Sololá	3	Barraneche	4	Abril	2023-04-30T00:00:00	2024-11-06T21:00:00	2	Temperatura media	15.4
23018	7	Sololá	701	Sololá	3	Barraneche	4	Abril	2023-04-30T00:00:00	2024-11-06T21:00:00	4	Temperatura máxima	15.5
23019	7	Sololá	701	Sololá	3	Barraneche	4	Abril	2023-04-30T00:00:00	2024-11-06T21:00:00	3	Temperatura mínima	15.3
23020	7	Sololá	701	Sololá	3	Barraneche	4	Abril	2023-04-30T00:00:00	2024-11-06T21:00:00	5	Humedad	64
23021	7	Sololá	701	Sololá	3	Barraneche	4	Abril	2023-04-30T00:00:00	2024-11-06T21:00:00	6	Velocidad del viento	4.8
23022	7	Sololá	701	Sololá	3	Barraneche	4	Abril	2023-04-30T00:00:00	2024-11-06T21:00:00	7	Dirección del viento	4.83
23023	7	Sololá	701	Sololá	3	Barraneche	4	Abril	2023-04-30T00:00:00	2024-11-06T21:00:00	1	Precipitación	0
23024	7	Sololá	701	Sololá	3	Barraneche	4	Abril	2023-04-30T00:00:00	2024-11-06T21:00:00	8	Radiación solar	0
23025	7	Sololá	701	Sololá	3	Barraneche	4	Abril	2023-04-30T00:00:00	2024-11-06T22:00:00	2	Temperatura media	14.9
23026	7	Sololá	701	Sololá	3	Barraneche	4	Abril	2023-04-30T00:00:00	2024-11-06T22:00:00	4	Temperatura máxima	15.4
23027	7	Sololá	701	Sololá	3	Barraneche	4	Abril	2023-04-30T00:00:00	2024-11-06T22:00:00	3	Temperatura mínima	14.8
23028	7	Sololá	701	Sololá	3	Barraneche	4	Abril	2023-04-30T00:00:00	2024-11-06T22:00:00	5	Humedad	62
23029	7	Sololá	701	Sololá	3	Barraneche	4	Abril	2023-04-30T00:00:00	2024-11-06T22:00:00	6	Velocidad del viento	8
23030	7	Sololá	701	Sololá	3	Barraneche	4	Abril	2023-04-30T00:00:00	2024-11-06T22:00:00	7	Dirección del viento	8.05
23031	7	Sololá	701	Sololá	3	Barraneche	4	Abril	2023-04-30T00:00:00	2024-11-06T22:00:00	1	Precipitación	0
23032	7	Sololá	701	Sololá	3	Barraneche	4	Abril	2023-04-30T00:00:00	2024-11-06T22:00:00	8	Radiación solar	0
23033	7	Sololá	701	Sololá	3	Barraneche	4	Abril	2023-04-30T00:00:00	2024-11-06T23:00:00	2	Temperatura media	14.8
23034	7	Sololá	701	Sololá	3	Barraneche	4	Abril	2023-04-30T00:00:00	2024-11-06T23:00:00	4	Temperatura máxima	15
23035	7	Sololá	701	Sololá	3	Barraneche	4	Abril	2023-04-30T00:00:00	2024-11-06T23:00:00	3	Temperatura mínima	14.7
23036	7	Sololá	701	Sololá	3	Barraneche	4	Abril	2023-04-30T00:00:00	2024-11-06T23:00:00	5	Humedad	63
23037	7	Sololá	701	Sololá	3	Barraneche	4	Abril	2023-04-30T00:00:00	2024-11-06T23:00:00	6	Velocidad del viento	8
23038	7	Sololá	701	Sololá	3	Barraneche	4	Abril	2023-04-30T00:00:00	2024-11-06T23:00:00	7	Dirección del viento	8.05
23039	7	Sololá	701	Sololá	3	Barraneche	4	Abril	2023-04-30T00:00:00	2024-11-06T23:00:00	1	Precipitación	0
23040	7	Sololá	701	Sololá	3	Barraneche	4	Abril	2023-04-30T00:00:00	2024-11-06T23:00:00	8	Radiación solar	0
23041	7	Sololá	701	Sololá	3	Barraneche	5	Mayo	2023-01-05T00:00:00	2024-11-06T00:00:00	2	Temperatura media	12.9
23042	7	Sololá	701	Sololá	3	Barraneche	5	Mayo	2023-01-05T00:00:00	2024-11-06T00:00:00	4	Temperatura máxima	14.8
23043	7	Sololá	701	Sololá	3	Barraneche	5	Mayo	2023-01-05T00:00:00	2024-11-06T00:00:00	3	Temperatura mínima	12.9
23044	7	Sololá	701	Sololá	3	Barraneche	5	Mayo	2023-01-05T00:00:00	2024-11-06T00:00:00	5	Humedad	68
23045	7	Sololá	701	Sololá	3	Barraneche	5	Mayo	2023-01-05T00:00:00	2024-11-06T00:00:00	6	Velocidad del viento	3.2
23046	7	Sololá	701	Sololá	3	Barraneche	5	Mayo	2023-01-05T00:00:00	2024-11-06T00:00:00	7	Dirección del viento	3.22
23047	7	Sololá	701	Sololá	3	Barraneche	5	Mayo	2023-01-05T00:00:00	2024-11-06T00:00:00	1	Precipitación	0
23048	7	Sololá	701	Sololá	3	Barraneche	5	Mayo	2023-01-05T00:00:00	2024-11-06T00:00:00	8	Radiación solar	0
23049	7	Sololá	701	Sololá	3	Barraneche	5	Mayo	2023-01-05T00:00:00	2024-11-06T01:00:00	2	Temperatura media	11.6
23050	7	Sololá	701	Sololá	3	Barraneche	5	Mayo	2023-01-05T00:00:00	2024-11-06T01:00:00	4	Temperatura máxima	12.9
23051	7	Sololá	701	Sololá	3	Barraneche	5	Mayo	2023-01-05T00:00:00	2024-11-06T01:00:00	3	Temperatura mínima	11.6
23052	7	Sololá	701	Sololá	3	Barraneche	5	Mayo	2023-01-05T00:00:00	2024-11-06T01:00:00	5	Humedad	68
23053	7	Sololá	701	Sololá	3	Barraneche	5	Mayo	2023-01-05T00:00:00	2024-11-06T01:00:00	6	Velocidad del viento	3.2
23054	7	Sololá	701	Sololá	3	Barraneche	5	Mayo	2023-01-05T00:00:00	2024-11-06T01:00:00	7	Dirección del viento	3.22
23055	7	Sololá	701	Sololá	3	Barraneche	5	Mayo	2023-01-05T00:00:00	2024-11-06T01:00:00	1	Precipitación	0
23056	7	Sololá	701	Sololá	3	Barraneche	5	Mayo	2023-01-05T00:00:00	2024-11-06T01:00:00	8	Radiación solar	0
23057	7	Sololá	701	Sololá	3	Barraneche	5	Mayo	2023-01-05T00:00:00	2024-11-06T02:00:00	2	Temperatura media	11.1
23058	7	Sololá	701	Sololá	3	Barraneche	5	Mayo	2023-01-05T00:00:00	2024-11-06T02:00:00	4	Temperatura máxima	11.7
23059	7	Sololá	701	Sololá	3	Barraneche	5	Mayo	2023-01-05T00:00:00	2024-11-06T02:00:00	3	Temperatura mínima	11.1
23060	7	Sololá	701	Sololá	3	Barraneche	5	Mayo	2023-01-05T00:00:00	2024-11-06T02:00:00	5	Humedad	66
23061	7	Sololá	701	Sololá	3	Barraneche	5	Mayo	2023-01-05T00:00:00	2024-11-06T02:00:00	6	Velocidad del viento	4.8
23062	7	Sololá	701	Sololá	3	Barraneche	5	Mayo	2023-01-05T00:00:00	2024-11-06T02:00:00	7	Dirección del viento	4.83
23063	7	Sololá	701	Sololá	3	Barraneche	5	Mayo	2023-01-05T00:00:00	2024-11-06T02:00:00	1	Precipitación	0
23064	7	Sololá	701	Sololá	3	Barraneche	5	Mayo	2023-01-05T00:00:00	2024-11-06T02:00:00	8	Radiación solar	0
23065	7	Sololá	701	Sololá	3	Barraneche	5	Mayo	2023-01-05T00:00:00	2024-11-06T03:00:00	2	Temperatura media	11.5
23066	7	Sololá	701	Sololá	3	Barraneche	5	Mayo	2023-01-05T00:00:00	2024-11-06T03:00:00	4	Temperatura máxima	11.5
23067	7	Sololá	701	Sololá	3	Barraneche	5	Mayo	2023-01-05T00:00:00	2024-11-06T03:00:00	3	Temperatura mínima	11
23068	7	Sololá	701	Sololá	3	Barraneche	5	Mayo	2023-01-05T00:00:00	2024-11-06T03:00:00	5	Humedad	66
23069	7	Sololá	701	Sololá	3	Barraneche	5	Mayo	2023-01-05T00:00:00	2024-11-06T03:00:00	6	Velocidad del viento	6.4
23070	7	Sololá	701	Sololá	3	Barraneche	5	Mayo	2023-01-05T00:00:00	2024-11-06T03:00:00	7	Dirección del viento	6.44
23071	7	Sololá	701	Sololá	3	Barraneche	5	Mayo	2023-01-05T00:00:00	2024-11-06T03:00:00	1	Precipitación	0
23072	7	Sololá	701	Sololá	3	Barraneche	5	Mayo	2023-01-05T00:00:00	2024-11-06T03:00:00	8	Radiación solar	0
23073	7	Sololá	701	Sololá	3	Barraneche	5	Mayo	2023-01-05T00:00:00	2024-11-06T04:00:00	2	Temperatura media	11.6
23074	7	Sololá	701	Sololá	3	Barraneche	5	Mayo	2023-01-05T00:00:00	2024-11-06T04:00:00	4	Temperatura máxima	11.6
23075	7	Sololá	701	Sololá	3	Barraneche	5	Mayo	2023-01-05T00:00:00	2024-11-06T04:00:00	3	Temperatura mínima	11.3
23076	7	Sololá	701	Sololá	3	Barraneche	5	Mayo	2023-01-05T00:00:00	2024-11-06T04:00:00	5	Humedad	67
23077	7	Sololá	701	Sololá	3	Barraneche	5	Mayo	2023-01-05T00:00:00	2024-11-06T04:00:00	6	Velocidad del viento	6.4
23078	7	Sololá	701	Sololá	3	Barraneche	5	Mayo	2023-01-05T00:00:00	2024-11-06T04:00:00	7	Dirección del viento	6.44
23079	7	Sololá	701	Sololá	3	Barraneche	5	Mayo	2023-01-05T00:00:00	2024-11-06T04:00:00	1	Precipitación	0
23080	7	Sololá	701	Sololá	3	Barraneche	5	Mayo	2023-01-05T00:00:00	2024-11-06T04:00:00	8	Radiación solar	0
23081	7	Sololá	701	Sololá	3	Barraneche	5	Mayo	2023-01-05T00:00:00	2024-11-06T05:00:00	2	Temperatura media	11.8
23082	7	Sololá	701	Sololá	3	Barraneche	5	Mayo	2023-01-05T00:00:00	2024-11-06T05:00:00	4	Temperatura máxima	11.9
23083	7	Sololá	701	Sololá	3	Barraneche	5	Mayo	2023-01-05T00:00:00	2024-11-06T05:00:00	3	Temperatura mínima	11.6
23084	7	Sololá	701	Sololá	3	Barraneche	5	Mayo	2023-01-05T00:00:00	2024-11-06T05:00:00	5	Humedad	68
23085	7	Sololá	701	Sololá	3	Barraneche	5	Mayo	2023-01-05T00:00:00	2024-11-06T05:00:00	6	Velocidad del viento	8
23086	7	Sololá	701	Sololá	3	Barraneche	5	Mayo	2023-01-05T00:00:00	2024-11-06T05:00:00	7	Dirección del viento	8.05
23087	7	Sololá	701	Sololá	3	Barraneche	5	Mayo	2023-01-05T00:00:00	2024-11-06T05:00:00	1	Precipitación	0
23088	7	Sololá	701	Sololá	3	Barraneche	5	Mayo	2023-01-05T00:00:00	2024-11-06T05:00:00	8	Radiación solar	0
23089	7	Sololá	701	Sololá	3	Barraneche	5	Mayo	2023-01-05T00:00:00	2024-11-06T06:00:00	2	Temperatura media	11.7
23090	7	Sololá	701	Sololá	3	Barraneche	5	Mayo	2023-01-05T00:00:00	2024-11-06T06:00:00	4	Temperatura máxima	12.2
23091	7	Sololá	701	Sololá	3	Barraneche	5	Mayo	2023-01-05T00:00:00	2024-11-06T06:00:00	3	Temperatura mínima	11.7
23092	7	Sololá	701	Sololá	3	Barraneche	5	Mayo	2023-01-05T00:00:00	2024-11-06T06:00:00	5	Humedad	67
23093	7	Sololá	701	Sololá	3	Barraneche	5	Mayo	2023-01-05T00:00:00	2024-11-06T06:00:00	6	Velocidad del viento	6.4
23094	7	Sololá	701	Sololá	3	Barraneche	5	Mayo	2023-01-05T00:00:00	2024-11-06T06:00:00	7	Dirección del viento	6.44
23095	7	Sololá	701	Sololá	3	Barraneche	5	Mayo	2023-01-05T00:00:00	2024-11-06T06:00:00	1	Precipitación	0
23096	7	Sololá	701	Sololá	3	Barraneche	5	Mayo	2023-01-05T00:00:00	2024-11-06T06:00:00	8	Radiación solar	4
23097	7	Sololá	701	Sololá	3	Barraneche	5	Mayo	2023-01-05T00:00:00	2024-11-06T07:00:00	2	Temperatura media	13.6
23098	7	Sololá	701	Sololá	3	Barraneche	5	Mayo	2023-01-05T00:00:00	2024-11-06T07:00:00	4	Temperatura máxima	13.6
23099	7	Sololá	701	Sololá	3	Barraneche	5	Mayo	2023-01-05T00:00:00	2024-11-06T07:00:00	3	Temperatura mínima	11.6
23100	7	Sololá	701	Sololá	3	Barraneche	5	Mayo	2023-01-05T00:00:00	2024-11-06T07:00:00	5	Humedad	66
23101	7	Sololá	701	Sololá	3	Barraneche	5	Mayo	2023-01-05T00:00:00	2024-11-06T07:00:00	6	Velocidad del viento	4.8
23102	7	Sololá	701	Sololá	3	Barraneche	5	Mayo	2023-01-05T00:00:00	2024-11-06T07:00:00	7	Dirección del viento	4.83
23103	7	Sololá	701	Sololá	3	Barraneche	5	Mayo	2023-01-05T00:00:00	2024-11-06T07:00:00	1	Precipitación	0
23104	7	Sololá	701	Sololá	3	Barraneche	5	Mayo	2023-01-05T00:00:00	2024-11-06T07:00:00	8	Radiación solar	108
23105	7	Sololá	701	Sololá	3	Barraneche	5	Mayo	2023-01-05T00:00:00	2024-11-06T08:00:00	2	Temperatura media	16.7
23106	7	Sololá	701	Sololá	3	Barraneche	5	Mayo	2023-01-05T00:00:00	2024-11-06T08:00:00	4	Temperatura máxima	16.7
23107	7	Sololá	701	Sololá	3	Barraneche	5	Mayo	2023-01-05T00:00:00	2024-11-06T08:00:00	3	Temperatura mínima	13.6
23108	7	Sololá	701	Sololá	3	Barraneche	5	Mayo	2023-01-05T00:00:00	2024-11-06T08:00:00	5	Humedad	58
23109	7	Sololá	701	Sololá	3	Barraneche	5	Mayo	2023-01-05T00:00:00	2024-11-06T08:00:00	6	Velocidad del viento	3.2
23110	7	Sololá	701	Sololá	3	Barraneche	5	Mayo	2023-01-05T00:00:00	2024-11-06T08:00:00	7	Dirección del viento	3.22
23111	7	Sololá	701	Sololá	3	Barraneche	5	Mayo	2023-01-05T00:00:00	2024-11-06T08:00:00	1	Precipitación	0
23112	7	Sololá	701	Sololá	3	Barraneche	5	Mayo	2023-01-05T00:00:00	2024-11-06T08:00:00	8	Radiación solar	359
23113	7	Sololá	701	Sololá	3	Barraneche	5	Mayo	2023-01-05T00:00:00	2024-11-06T09:00:00	2	Temperatura media	17.4
23114	7	Sololá	701	Sololá	3	Barraneche	5	Mayo	2023-01-05T00:00:00	2024-11-06T09:00:00	4	Temperatura máxima	17.4
23115	7	Sololá	701	Sololá	3	Barraneche	5	Mayo	2023-01-05T00:00:00	2024-11-06T09:00:00	3	Temperatura mínima	16.7
23116	7	Sololá	701	Sololá	3	Barraneche	5	Mayo	2023-01-05T00:00:00	2024-11-06T09:00:00	5	Humedad	58
23117	7	Sololá	701	Sololá	3	Barraneche	5	Mayo	2023-01-05T00:00:00	2024-11-06T09:00:00	6	Velocidad del viento	4.8
23118	7	Sololá	701	Sololá	3	Barraneche	5	Mayo	2023-01-05T00:00:00	2024-11-06T09:00:00	7	Dirección del viento	4.83
23119	7	Sololá	701	Sololá	3	Barraneche	5	Mayo	2023-01-05T00:00:00	2024-11-06T09:00:00	1	Precipitación	0
23120	7	Sololá	701	Sololá	3	Barraneche	5	Mayo	2023-01-05T00:00:00	2024-11-06T09:00:00	8	Radiación solar	603
23121	7	Sololá	701	Sololá	3	Barraneche	5	Mayo	2023-01-05T00:00:00	2024-11-06T10:00:00	2	Temperatura media	18.6
23122	7	Sololá	701	Sololá	3	Barraneche	5	Mayo	2023-01-05T00:00:00	2024-11-06T10:00:00	4	Temperatura máxima	18.6
23123	7	Sololá	701	Sololá	3	Barraneche	5	Mayo	2023-01-05T00:00:00	2024-11-06T10:00:00	3	Temperatura mínima	17.4
23124	7	Sololá	701	Sololá	3	Barraneche	5	Mayo	2023-01-05T00:00:00	2024-11-06T10:00:00	5	Humedad	57
23125	7	Sololá	701	Sololá	3	Barraneche	5	Mayo	2023-01-05T00:00:00	2024-11-06T10:00:00	6	Velocidad del viento	6.4
23126	7	Sololá	701	Sololá	3	Barraneche	5	Mayo	2023-01-05T00:00:00	2024-11-06T10:00:00	7	Dirección del viento	6.44
23127	7	Sololá	701	Sololá	3	Barraneche	5	Mayo	2023-01-05T00:00:00	2024-11-06T10:00:00	1	Precipitación	0
23128	7	Sololá	701	Sololá	3	Barraneche	5	Mayo	2023-01-05T00:00:00	2024-11-06T10:00:00	8	Radiación solar	819
23129	7	Sololá	701	Sololá	3	Barraneche	5	Mayo	2023-01-05T00:00:00	2024-11-06T11:00:00	2	Temperatura media	20
23130	7	Sololá	701	Sololá	3	Barraneche	5	Mayo	2023-01-05T00:00:00	2024-11-06T11:00:00	4	Temperatura máxima	20.1
23131	7	Sololá	701	Sololá	3	Barraneche	5	Mayo	2023-01-05T00:00:00	2024-11-06T11:00:00	3	Temperatura mínima	18.5
23132	7	Sololá	701	Sololá	3	Barraneche	5	Mayo	2023-01-05T00:00:00	2024-11-06T11:00:00	5	Humedad	51
23133	7	Sololá	701	Sololá	3	Barraneche	5	Mayo	2023-01-05T00:00:00	2024-11-06T11:00:00	6	Velocidad del viento	8
23134	7	Sololá	701	Sololá	3	Barraneche	5	Mayo	2023-01-05T00:00:00	2024-11-06T11:00:00	7	Dirección del viento	8.05
23135	7	Sololá	701	Sololá	3	Barraneche	5	Mayo	2023-01-05T00:00:00	2024-11-06T11:00:00	1	Precipitación	0
23136	7	Sololá	701	Sololá	3	Barraneche	5	Mayo	2023-01-05T00:00:00	2024-11-06T11:00:00	8	Radiación solar	958
23137	7	Sololá	701	Sololá	3	Barraneche	5	Mayo	2023-01-05T00:00:00	2024-11-06T12:00:00	2	Temperatura media	20.2
23138	7	Sololá	701	Sololá	3	Barraneche	5	Mayo	2023-01-05T00:00:00	2024-11-06T12:00:00	4	Temperatura máxima	20.5
23139	7	Sololá	701	Sololá	3	Barraneche	5	Mayo	2023-01-05T00:00:00	2024-11-06T12:00:00	3	Temperatura mínima	19.9
23140	7	Sololá	701	Sololá	3	Barraneche	5	Mayo	2023-01-05T00:00:00	2024-11-06T12:00:00	5	Humedad	53
23141	7	Sololá	701	Sololá	3	Barraneche	5	Mayo	2023-01-05T00:00:00	2024-11-06T12:00:00	6	Velocidad del viento	12.9
23142	7	Sololá	701	Sololá	3	Barraneche	5	Mayo	2023-01-05T00:00:00	2024-11-06T12:00:00	7	Dirección del viento	12.87
23143	7	Sololá	701	Sololá	3	Barraneche	5	Mayo	2023-01-05T00:00:00	2024-11-06T12:00:00	1	Precipitación	0
23144	7	Sololá	701	Sololá	3	Barraneche	5	Mayo	2023-01-05T00:00:00	2024-11-06T12:00:00	8	Radiación solar	1020
23145	7	Sololá	701	Sololá	3	Barraneche	5	Mayo	2023-01-05T00:00:00	2024-11-06T13:00:00	2	Temperatura media	19.8
23146	7	Sololá	701	Sololá	3	Barraneche	5	Mayo	2023-01-05T00:00:00	2024-11-06T13:00:00	4	Temperatura máxima	20.2
23147	7	Sololá	701	Sololá	3	Barraneche	5	Mayo	2023-01-05T00:00:00	2024-11-06T13:00:00	3	Temperatura mínima	19.6
23148	7	Sololá	701	Sololá	3	Barraneche	5	Mayo	2023-01-05T00:00:00	2024-11-06T13:00:00	5	Humedad	60
23149	7	Sololá	701	Sololá	3	Barraneche	5	Mayo	2023-01-05T00:00:00	2024-11-06T13:00:00	6	Velocidad del viento	14.5
23150	7	Sololá	701	Sololá	3	Barraneche	5	Mayo	2023-01-05T00:00:00	2024-11-06T13:00:00	7	Dirección del viento	14.48
23151	7	Sololá	701	Sololá	3	Barraneche	5	Mayo	2023-01-05T00:00:00	2024-11-06T13:00:00	1	Precipitación	0
23152	7	Sololá	701	Sololá	3	Barraneche	5	Mayo	2023-01-05T00:00:00	2024-11-06T13:00:00	8	Radiación solar	1031
23153	7	Sololá	701	Sololá	3	Barraneche	5	Mayo	2023-01-05T00:00:00	2024-11-06T14:00:00	2	Temperatura media	19.2
23154	7	Sololá	701	Sololá	3	Barraneche	5	Mayo	2023-01-05T00:00:00	2024-11-06T14:00:00	4	Temperatura máxima	19.9
23155	7	Sololá	701	Sololá	3	Barraneche	5	Mayo	2023-01-05T00:00:00	2024-11-06T14:00:00	3	Temperatura mínima	19.1
23156	7	Sololá	701	Sololá	3	Barraneche	5	Mayo	2023-01-05T00:00:00	2024-11-06T14:00:00	5	Humedad	65
23157	7	Sololá	701	Sololá	3	Barraneche	5	Mayo	2023-01-05T00:00:00	2024-11-06T14:00:00	6	Velocidad del viento	12.9
23158	7	Sololá	701	Sololá	3	Barraneche	5	Mayo	2023-01-05T00:00:00	2024-11-06T14:00:00	7	Dirección del viento	12.87
23159	7	Sololá	701	Sololá	3	Barraneche	5	Mayo	2023-01-05T00:00:00	2024-11-06T14:00:00	1	Precipitación	0
23160	7	Sololá	701	Sololá	3	Barraneche	5	Mayo	2023-01-05T00:00:00	2024-11-06T14:00:00	8	Radiación solar	987
23161	7	Sololá	701	Sololá	3	Barraneche	5	Mayo	2023-01-05T00:00:00	2024-11-06T15:00:00	2	Temperatura media	18.1
23162	7	Sololá	701	Sololá	3	Barraneche	5	Mayo	2023-01-05T00:00:00	2024-11-06T15:00:00	4	Temperatura máxima	19.1
23163	7	Sololá	701	Sololá	3	Barraneche	5	Mayo	2023-01-05T00:00:00	2024-11-06T15:00:00	3	Temperatura mínima	18
23164	7	Sololá	701	Sololá	3	Barraneche	5	Mayo	2023-01-05T00:00:00	2024-11-06T15:00:00	5	Humedad	69
23165	7	Sololá	701	Sololá	3	Barraneche	5	Mayo	2023-01-05T00:00:00	2024-11-06T15:00:00	6	Velocidad del viento	14.5
23166	7	Sololá	701	Sololá	3	Barraneche	5	Mayo	2023-01-05T00:00:00	2024-11-06T15:00:00	7	Dirección del viento	14.48
23167	7	Sololá	701	Sololá	3	Barraneche	5	Mayo	2023-01-05T00:00:00	2024-11-06T15:00:00	1	Precipitación	0
23168	7	Sololá	701	Sololá	3	Barraneche	5	Mayo	2023-01-05T00:00:00	2024-11-06T15:00:00	8	Radiación solar	863
23169	7	Sololá	701	Sololá	3	Barraneche	5	Mayo	2023-01-05T00:00:00	2024-11-06T16:00:00	2	Temperatura media	17.2
23170	7	Sololá	701	Sololá	3	Barraneche	5	Mayo	2023-01-05T00:00:00	2024-11-06T16:00:00	4	Temperatura máxima	18.1
23171	7	Sololá	701	Sololá	3	Barraneche	5	Mayo	2023-01-05T00:00:00	2024-11-06T16:00:00	3	Temperatura mínima	17.2
23172	7	Sololá	701	Sololá	3	Barraneche	5	Mayo	2023-01-05T00:00:00	2024-11-06T16:00:00	5	Humedad	68
23173	7	Sololá	701	Sololá	3	Barraneche	5	Mayo	2023-01-05T00:00:00	2024-11-06T16:00:00	6	Velocidad del viento	9.7
23174	7	Sololá	701	Sololá	3	Barraneche	5	Mayo	2023-01-05T00:00:00	2024-11-06T16:00:00	7	Dirección del viento	9.66
23175	7	Sololá	701	Sololá	3	Barraneche	5	Mayo	2023-01-05T00:00:00	2024-11-06T16:00:00	1	Precipitación	0
23176	7	Sololá	701	Sololá	3	Barraneche	5	Mayo	2023-01-05T00:00:00	2024-11-06T16:00:00	8	Radiación solar	357
23177	7	Sololá	701	Sololá	3	Barraneche	5	Mayo	2023-01-05T00:00:00	2024-11-06T17:00:00	2	Temperatura media	17.2
23178	7	Sololá	701	Sololá	3	Barraneche	5	Mayo	2023-01-05T00:00:00	2024-11-06T17:00:00	4	Temperatura máxima	17.6
23179	7	Sololá	701	Sololá	3	Barraneche	5	Mayo	2023-01-05T00:00:00	2024-11-06T17:00:00	3	Temperatura mínima	17.1
23180	7	Sololá	701	Sololá	3	Barraneche	5	Mayo	2023-01-05T00:00:00	2024-11-06T17:00:00	5	Humedad	70
23181	7	Sololá	701	Sololá	3	Barraneche	5	Mayo	2023-01-05T00:00:00	2024-11-06T17:00:00	6	Velocidad del viento	8
23182	7	Sololá	701	Sololá	3	Barraneche	5	Mayo	2023-01-05T00:00:00	2024-11-06T17:00:00	7	Dirección del viento	8.05
23183	7	Sololá	701	Sololá	3	Barraneche	5	Mayo	2023-01-05T00:00:00	2024-11-06T17:00:00	1	Precipitación	0
23184	7	Sololá	701	Sololá	3	Barraneche	5	Mayo	2023-01-05T00:00:00	2024-11-06T17:00:00	8	Radiación solar	228
23185	7	Sololá	701	Sololá	3	Barraneche	5	Mayo	2023-01-05T00:00:00	2024-11-06T18:00:00	2	Temperatura media	16.1
23186	7	Sololá	701	Sololá	3	Barraneche	5	Mayo	2023-01-05T00:00:00	2024-11-06T18:00:00	4	Temperatura máxima	17.2
23187	7	Sololá	701	Sololá	3	Barraneche	5	Mayo	2023-01-05T00:00:00	2024-11-06T18:00:00	3	Temperatura mínima	16.1
23188	7	Sololá	701	Sololá	3	Barraneche	5	Mayo	2023-01-05T00:00:00	2024-11-06T18:00:00	5	Humedad	72
23189	7	Sololá	701	Sololá	3	Barraneche	5	Mayo	2023-01-05T00:00:00	2024-11-06T18:00:00	6	Velocidad del viento	4.8
23190	7	Sololá	701	Sololá	3	Barraneche	5	Mayo	2023-01-05T00:00:00	2024-11-06T18:00:00	7	Dirección del viento	4.83
23191	7	Sololá	701	Sololá	3	Barraneche	5	Mayo	2023-01-05T00:00:00	2024-11-06T18:00:00	1	Precipitación	0
23192	7	Sololá	701	Sololá	3	Barraneche	5	Mayo	2023-01-05T00:00:00	2024-11-06T18:00:00	8	Radiación solar	37
23193	7	Sololá	701	Sololá	3	Barraneche	5	Mayo	2023-01-05T00:00:00	2024-11-06T19:00:00	2	Temperatura media	15.6
23194	7	Sololá	701	Sololá	3	Barraneche	5	Mayo	2023-01-05T00:00:00	2024-11-06T19:00:00	4	Temperatura máxima	16.1
23195	7	Sololá	701	Sololá	3	Barraneche	5	Mayo	2023-01-05T00:00:00	2024-11-06T19:00:00	3	Temperatura mínima	15.6
23196	7	Sololá	701	Sololá	3	Barraneche	5	Mayo	2023-01-05T00:00:00	2024-11-06T19:00:00	5	Humedad	77
23197	7	Sololá	701	Sololá	3	Barraneche	5	Mayo	2023-01-05T00:00:00	2024-11-06T19:00:00	6	Velocidad del viento	4.8
23198	7	Sololá	701	Sololá	3	Barraneche	5	Mayo	2023-01-05T00:00:00	2024-11-06T19:00:00	7	Dirección del viento	4.83
23199	7	Sololá	701	Sololá	3	Barraneche	5	Mayo	2023-01-05T00:00:00	2024-11-06T19:00:00	1	Precipitación	0
23200	7	Sololá	701	Sololá	3	Barraneche	5	Mayo	2023-01-05T00:00:00	2024-11-06T19:00:00	8	Radiación solar	0
23201	7	Sololá	701	Sololá	3	Barraneche	5	Mayo	2023-01-05T00:00:00	2024-11-06T20:00:00	2	Temperatura media	15.3
23202	7	Sololá	701	Sololá	3	Barraneche	5	Mayo	2023-01-05T00:00:00	2024-11-06T20:00:00	4	Temperatura máxima	15.6
23203	7	Sololá	701	Sololá	3	Barraneche	5	Mayo	2023-01-05T00:00:00	2024-11-06T20:00:00	3	Temperatura mínima	15.3
23204	7	Sololá	701	Sololá	3	Barraneche	5	Mayo	2023-01-05T00:00:00	2024-11-06T20:00:00	5	Humedad	83
23205	7	Sololá	701	Sololá	3	Barraneche	5	Mayo	2023-01-05T00:00:00	2024-11-06T20:00:00	6	Velocidad del viento	4.8
23206	7	Sololá	701	Sololá	3	Barraneche	5	Mayo	2023-01-05T00:00:00	2024-11-06T20:00:00	7	Dirección del viento	4.83
23207	7	Sololá	701	Sololá	3	Barraneche	5	Mayo	2023-01-05T00:00:00	2024-11-06T20:00:00	1	Precipitación	0
23208	7	Sololá	701	Sololá	3	Barraneche	5	Mayo	2023-01-05T00:00:00	2024-11-06T20:00:00	8	Radiación solar	0
23209	7	Sololá	701	Sololá	3	Barraneche	5	Mayo	2023-01-05T00:00:00	2024-11-06T21:00:00	2	Temperatura media	13.4
23210	7	Sololá	701	Sololá	3	Barraneche	5	Mayo	2023-01-05T00:00:00	2024-11-06T21:00:00	4	Temperatura máxima	15.3
23211	7	Sololá	701	Sololá	3	Barraneche	5	Mayo	2023-01-05T00:00:00	2024-11-06T21:00:00	3	Temperatura mínima	13.4
23212	7	Sololá	701	Sololá	3	Barraneche	5	Mayo	2023-01-05T00:00:00	2024-11-06T21:00:00	5	Humedad	69
23213	7	Sololá	701	Sololá	3	Barraneche	5	Mayo	2023-01-05T00:00:00	2024-11-06T21:00:00	6	Velocidad del viento	8
23214	7	Sololá	701	Sololá	3	Barraneche	5	Mayo	2023-01-05T00:00:00	2024-11-06T21:00:00	7	Dirección del viento	8.05
23215	7	Sololá	701	Sololá	3	Barraneche	5	Mayo	2023-01-05T00:00:00	2024-11-06T21:00:00	1	Precipitación	3.6
23216	7	Sololá	701	Sololá	3	Barraneche	5	Mayo	2023-01-05T00:00:00	2024-11-06T21:00:00	8	Radiación solar	0
23217	7	Sololá	701	Sololá	3	Barraneche	5	Mayo	2023-01-05T00:00:00	2024-11-06T22:00:00	2	Temperatura media	12.6
23218	7	Sololá	701	Sololá	3	Barraneche	5	Mayo	2023-01-05T00:00:00	2024-11-06T22:00:00	4	Temperatura máxima	13.5
23219	7	Sololá	701	Sololá	3	Barraneche	5	Mayo	2023-01-05T00:00:00	2024-11-06T22:00:00	3	Temperatura mínima	12.4
23220	7	Sololá	701	Sololá	3	Barraneche	5	Mayo	2023-01-05T00:00:00	2024-11-06T22:00:00	5	Humedad	71
23221	7	Sololá	701	Sololá	3	Barraneche	5	Mayo	2023-01-05T00:00:00	2024-11-06T22:00:00	6	Velocidad del viento	4.8
23222	7	Sololá	701	Sololá	3	Barraneche	5	Mayo	2023-01-05T00:00:00	2024-11-06T22:00:00	7	Dirección del viento	4.83
23223	7	Sololá	701	Sololá	3	Barraneche	5	Mayo	2023-01-05T00:00:00	2024-11-06T22:00:00	1	Precipitación	0.2
23224	7	Sololá	701	Sololá	3	Barraneche	5	Mayo	2023-01-05T00:00:00	2024-11-06T22:00:00	8	Radiación solar	0
23225	7	Sololá	701	Sololá	3	Barraneche	5	Mayo	2023-01-05T00:00:00	2024-11-06T23:00:00	2	Temperatura media	12.3
23226	7	Sololá	701	Sololá	3	Barraneche	5	Mayo	2023-01-05T00:00:00	2024-11-06T23:00:00	4	Temperatura máxima	12.7
23227	7	Sololá	701	Sololá	3	Barraneche	5	Mayo	2023-01-05T00:00:00	2024-11-06T23:00:00	3	Temperatura mínima	12.2
23228	7	Sololá	701	Sololá	3	Barraneche	5	Mayo	2023-01-05T00:00:00	2024-11-06T23:00:00	5	Humedad	75
23229	7	Sololá	701	Sololá	3	Barraneche	5	Mayo	2023-01-05T00:00:00	2024-11-06T23:00:00	6	Velocidad del viento	3.2
23230	7	Sololá	701	Sololá	3	Barraneche	5	Mayo	2023-01-05T00:00:00	2024-11-06T23:00:00	7	Dirección del viento	3.22
23231	7	Sololá	701	Sololá	3	Barraneche	5	Mayo	2023-01-05T00:00:00	2024-11-06T23:00:00	1	Precipitación	0
23232	7	Sololá	701	Sololá	3	Barraneche	5	Mayo	2023-01-05T00:00:00	2024-11-06T23:00:00	8	Radiación solar	0
23233	7	Sololá	701	Sololá	3	Barraneche	5	Mayo	2023-02-05T00:00:00	2024-11-06T00:00:00	2	Temperatura media	12.8
23234	7	Sololá	701	Sololá	3	Barraneche	5	Mayo	2023-02-05T00:00:00	2024-11-06T00:00:00	4	Temperatura máxima	12.8
23235	7	Sololá	701	Sololá	3	Barraneche	5	Mayo	2023-02-05T00:00:00	2024-11-06T00:00:00	3	Temperatura mínima	12.3
23236	7	Sololá	701	Sololá	3	Barraneche	5	Mayo	2023-02-05T00:00:00	2024-11-06T00:00:00	5	Humedad	78
23237	7	Sololá	701	Sololá	3	Barraneche	5	Mayo	2023-02-05T00:00:00	2024-11-06T00:00:00	6	Velocidad del viento	1.6
23238	7	Sololá	701	Sololá	3	Barraneche	5	Mayo	2023-02-05T00:00:00	2024-11-06T00:00:00	7	Dirección del viento	1.61
23239	7	Sololá	701	Sololá	3	Barraneche	5	Mayo	2023-02-05T00:00:00	2024-11-06T00:00:00	1	Precipitación	0
23240	7	Sololá	701	Sololá	3	Barraneche	5	Mayo	2023-02-05T00:00:00	2024-11-06T00:00:00	8	Radiación solar	0
23241	7	Sololá	701	Sololá	3	Barraneche	5	Mayo	2023-02-05T00:00:00	2024-11-06T01:00:00	2	Temperatura media	12.8
23242	7	Sololá	701	Sololá	3	Barraneche	5	Mayo	2023-02-05T00:00:00	2024-11-06T01:00:00	4	Temperatura máxima	13.2
23243	7	Sololá	701	Sololá	3	Barraneche	5	Mayo	2023-02-05T00:00:00	2024-11-06T01:00:00	3	Temperatura mínima	12.8
23244	7	Sololá	701	Sololá	3	Barraneche	5	Mayo	2023-02-05T00:00:00	2024-11-06T01:00:00	5	Humedad	73
23245	7	Sololá	701	Sololá	3	Barraneche	5	Mayo	2023-02-05T00:00:00	2024-11-06T01:00:00	6	Velocidad del viento	6.4
23246	7	Sololá	701	Sololá	3	Barraneche	5	Mayo	2023-02-05T00:00:00	2024-11-06T01:00:00	7	Dirección del viento	6.44
23247	7	Sololá	701	Sololá	3	Barraneche	5	Mayo	2023-02-05T00:00:00	2024-11-06T01:00:00	1	Precipitación	0
23248	7	Sololá	701	Sololá	3	Barraneche	5	Mayo	2023-02-05T00:00:00	2024-11-06T01:00:00	8	Radiación solar	0
23249	7	Sololá	701	Sololá	3	Barraneche	5	Mayo	2023-02-05T00:00:00	2024-11-06T02:00:00	2	Temperatura media	12.3
23250	7	Sololá	701	Sololá	3	Barraneche	5	Mayo	2023-02-05T00:00:00	2024-11-06T02:00:00	4	Temperatura máxima	12.9
23251	7	Sololá	701	Sololá	3	Barraneche	5	Mayo	2023-02-05T00:00:00	2024-11-06T02:00:00	3	Temperatura mínima	12.3
23252	7	Sololá	701	Sololá	3	Barraneche	5	Mayo	2023-02-05T00:00:00	2024-11-06T02:00:00	5	Humedad	72
23253	7	Sololá	701	Sololá	3	Barraneche	5	Mayo	2023-02-05T00:00:00	2024-11-06T02:00:00	6	Velocidad del viento	8
23254	7	Sololá	701	Sololá	3	Barraneche	5	Mayo	2023-02-05T00:00:00	2024-11-06T02:00:00	7	Dirección del viento	8.05
23255	7	Sololá	701	Sololá	3	Barraneche	5	Mayo	2023-02-05T00:00:00	2024-11-06T02:00:00	1	Precipitación	0
23256	7	Sololá	701	Sololá	3	Barraneche	5	Mayo	2023-02-05T00:00:00	2024-11-06T02:00:00	8	Radiación solar	0
23257	7	Sololá	701	Sololá	3	Barraneche	5	Mayo	2023-02-05T00:00:00	2024-11-06T03:00:00	2	Temperatura media	11.9
23258	7	Sololá	701	Sololá	3	Barraneche	5	Mayo	2023-02-05T00:00:00	2024-11-06T03:00:00	4	Temperatura máxima	12.4
23259	7	Sololá	701	Sololá	3	Barraneche	5	Mayo	2023-02-05T00:00:00	2024-11-06T03:00:00	3	Temperatura mínima	11.8
23260	7	Sololá	701	Sololá	3	Barraneche	5	Mayo	2023-02-05T00:00:00	2024-11-06T03:00:00	5	Humedad	70
23261	7	Sololá	701	Sololá	3	Barraneche	5	Mayo	2023-02-05T00:00:00	2024-11-06T03:00:00	6	Velocidad del viento	8
23262	7	Sololá	701	Sololá	3	Barraneche	5	Mayo	2023-02-05T00:00:00	2024-11-06T03:00:00	7	Dirección del viento	8.05
23263	7	Sololá	701	Sololá	3	Barraneche	5	Mayo	2023-02-05T00:00:00	2024-11-06T03:00:00	1	Precipitación	0
23264	7	Sololá	701	Sololá	3	Barraneche	5	Mayo	2023-02-05T00:00:00	2024-11-06T03:00:00	8	Radiación solar	0
23265	7	Sololá	701	Sololá	3	Barraneche	5	Mayo	2023-02-05T00:00:00	2024-11-06T04:00:00	2	Temperatura media	11.2
23266	7	Sololá	701	Sololá	3	Barraneche	5	Mayo	2023-02-05T00:00:00	2024-11-06T04:00:00	4	Temperatura máxima	11.9
23267	7	Sololá	701	Sololá	3	Barraneche	5	Mayo	2023-02-05T00:00:00	2024-11-06T04:00:00	3	Temperatura mínima	11.2
23268	7	Sololá	701	Sololá	3	Barraneche	5	Mayo	2023-02-05T00:00:00	2024-11-06T04:00:00	5	Humedad	71
23269	7	Sololá	701	Sololá	3	Barraneche	5	Mayo	2023-02-05T00:00:00	2024-11-06T04:00:00	6	Velocidad del viento	9.7
23270	7	Sololá	701	Sololá	3	Barraneche	5	Mayo	2023-02-05T00:00:00	2024-11-06T04:00:00	7	Dirección del viento	9.66
23271	7	Sololá	701	Sololá	3	Barraneche	5	Mayo	2023-02-05T00:00:00	2024-11-06T04:00:00	1	Precipitación	0
23272	7	Sololá	701	Sololá	3	Barraneche	5	Mayo	2023-02-05T00:00:00	2024-11-06T04:00:00	8	Radiación solar	0
23273	7	Sololá	701	Sololá	3	Barraneche	5	Mayo	2023-02-05T00:00:00	2024-11-06T05:00:00	2	Temperatura media	10.8
23274	7	Sololá	701	Sololá	3	Barraneche	5	Mayo	2023-02-05T00:00:00	2024-11-06T05:00:00	4	Temperatura máxima	11.4
23275	7	Sololá	701	Sololá	3	Barraneche	5	Mayo	2023-02-05T00:00:00	2024-11-06T05:00:00	3	Temperatura mínima	10.8
23276	7	Sololá	701	Sololá	3	Barraneche	5	Mayo	2023-02-05T00:00:00	2024-11-06T05:00:00	5	Humedad	71
23277	7	Sololá	701	Sololá	3	Barraneche	5	Mayo	2023-02-05T00:00:00	2024-11-06T05:00:00	6	Velocidad del viento	8
23278	7	Sololá	701	Sololá	3	Barraneche	5	Mayo	2023-02-05T00:00:00	2024-11-06T05:00:00	7	Dirección del viento	8.05
23279	7	Sololá	701	Sololá	3	Barraneche	5	Mayo	2023-02-05T00:00:00	2024-11-06T05:00:00	1	Precipitación	0
23280	7	Sololá	701	Sololá	3	Barraneche	5	Mayo	2023-02-05T00:00:00	2024-11-06T05:00:00	8	Radiación solar	0
23281	7	Sololá	701	Sololá	3	Barraneche	5	Mayo	2023-02-05T00:00:00	2024-11-06T06:00:00	2	Temperatura media	11.1
23282	7	Sololá	701	Sololá	3	Barraneche	5	Mayo	2023-02-05T00:00:00	2024-11-06T06:00:00	4	Temperatura máxima	11.4
23283	7	Sololá	701	Sololá	3	Barraneche	5	Mayo	2023-02-05T00:00:00	2024-11-06T06:00:00	3	Temperatura mínima	10.7
23284	7	Sololá	701	Sololá	3	Barraneche	5	Mayo	2023-02-05T00:00:00	2024-11-06T06:00:00	5	Humedad	67
23285	7	Sololá	701	Sololá	3	Barraneche	5	Mayo	2023-02-05T00:00:00	2024-11-06T06:00:00	6	Velocidad del viento	8
23286	7	Sololá	701	Sololá	3	Barraneche	5	Mayo	2023-02-05T00:00:00	2024-11-06T06:00:00	7	Dirección del viento	8.05
23287	7	Sololá	701	Sololá	3	Barraneche	5	Mayo	2023-02-05T00:00:00	2024-11-06T06:00:00	1	Precipitación	0
23288	7	Sololá	701	Sololá	3	Barraneche	5	Mayo	2023-02-05T00:00:00	2024-11-06T06:00:00	8	Radiación solar	5
23289	7	Sololá	701	Sololá	3	Barraneche	5	Mayo	2023-02-05T00:00:00	2024-11-06T07:00:00	2	Temperatura media	12.3
23290	7	Sololá	701	Sololá	3	Barraneche	5	Mayo	2023-02-05T00:00:00	2024-11-06T07:00:00	4	Temperatura máxima	12.3
23291	7	Sololá	701	Sololá	3	Barraneche	5	Mayo	2023-02-05T00:00:00	2024-11-06T07:00:00	3	Temperatura mínima	11.1
23292	7	Sololá	701	Sololá	3	Barraneche	5	Mayo	2023-02-05T00:00:00	2024-11-06T07:00:00	5	Humedad	64
23293	7	Sololá	701	Sololá	3	Barraneche	5	Mayo	2023-02-05T00:00:00	2024-11-06T07:00:00	6	Velocidad del viento	8
23294	7	Sololá	701	Sololá	3	Barraneche	5	Mayo	2023-02-05T00:00:00	2024-11-06T07:00:00	7	Dirección del viento	8.05
23295	7	Sololá	701	Sololá	3	Barraneche	5	Mayo	2023-02-05T00:00:00	2024-11-06T07:00:00	1	Precipitación	0
23296	7	Sololá	701	Sololá	3	Barraneche	5	Mayo	2023-02-05T00:00:00	2024-11-06T07:00:00	8	Radiación solar	102
23297	7	Sololá	701	Sololá	3	Barraneche	5	Mayo	2023-02-05T00:00:00	2024-11-06T08:00:00	2	Temperatura media	15.6
23298	7	Sololá	701	Sololá	3	Barraneche	5	Mayo	2023-02-05T00:00:00	2024-11-06T08:00:00	4	Temperatura máxima	15.7
23299	7	Sololá	701	Sololá	3	Barraneche	5	Mayo	2023-02-05T00:00:00	2024-11-06T08:00:00	3	Temperatura mínima	12.2
23300	7	Sololá	701	Sololá	3	Barraneche	5	Mayo	2023-02-05T00:00:00	2024-11-06T08:00:00	5	Humedad	67
23301	7	Sololá	701	Sololá	3	Barraneche	5	Mayo	2023-02-05T00:00:00	2024-11-06T08:00:00	6	Velocidad del viento	4.8
23302	7	Sololá	701	Sololá	3	Barraneche	5	Mayo	2023-02-05T00:00:00	2024-11-06T08:00:00	7	Dirección del viento	4.83
23303	7	Sololá	701	Sololá	3	Barraneche	5	Mayo	2023-02-05T00:00:00	2024-11-06T08:00:00	1	Precipitación	0
23304	7	Sololá	701	Sololá	3	Barraneche	5	Mayo	2023-02-05T00:00:00	2024-11-06T08:00:00	8	Radiación solar	322
23305	7	Sololá	701	Sololá	3	Barraneche	5	Mayo	2023-02-05T00:00:00	2024-11-06T09:00:00	2	Temperatura media	16.7
23306	7	Sololá	701	Sololá	3	Barraneche	5	Mayo	2023-02-05T00:00:00	2024-11-06T09:00:00	4	Temperatura máxima	16.7
23307	7	Sololá	701	Sololá	3	Barraneche	5	Mayo	2023-02-05T00:00:00	2024-11-06T09:00:00	3	Temperatura mínima	15.6
23308	7	Sololá	701	Sololá	3	Barraneche	5	Mayo	2023-02-05T00:00:00	2024-11-06T09:00:00	5	Humedad	65
23309	7	Sololá	701	Sololá	3	Barraneche	5	Mayo	2023-02-05T00:00:00	2024-11-06T09:00:00	6	Velocidad del viento	3.2
23310	7	Sololá	701	Sololá	3	Barraneche	5	Mayo	2023-02-05T00:00:00	2024-11-06T09:00:00	7	Dirección del viento	3.22
23311	7	Sololá	701	Sololá	3	Barraneche	5	Mayo	2023-02-05T00:00:00	2024-11-06T09:00:00	1	Precipitación	0
23312	7	Sololá	701	Sololá	3	Barraneche	5	Mayo	2023-02-05T00:00:00	2024-11-06T09:00:00	8	Radiación solar	546
23313	7	Sololá	701	Sololá	3	Barraneche	5	Mayo	2023-02-05T00:00:00	2024-11-06T10:00:00	2	Temperatura media	17.8
23314	7	Sololá	701	Sololá	3	Barraneche	5	Mayo	2023-02-05T00:00:00	2024-11-06T10:00:00	4	Temperatura máxima	17.9
23315	7	Sololá	701	Sololá	3	Barraneche	5	Mayo	2023-02-05T00:00:00	2024-11-06T10:00:00	3	Temperatura mínima	16.7
23316	7	Sololá	701	Sololá	3	Barraneche	5	Mayo	2023-02-05T00:00:00	2024-11-06T10:00:00	5	Humedad	66
23317	7	Sololá	701	Sololá	3	Barraneche	5	Mayo	2023-02-05T00:00:00	2024-11-06T10:00:00	6	Velocidad del viento	6.4
23318	7	Sololá	701	Sololá	3	Barraneche	5	Mayo	2023-02-05T00:00:00	2024-11-06T10:00:00	7	Dirección del viento	6.44
23319	7	Sololá	701	Sololá	3	Barraneche	5	Mayo	2023-02-05T00:00:00	2024-11-06T10:00:00	1	Precipitación	0.2
23320	7	Sololá	701	Sololá	3	Barraneche	5	Mayo	2023-02-05T00:00:00	2024-11-06T10:00:00	8	Radiación solar	802
23321	7	Sololá	701	Sololá	3	Barraneche	5	Mayo	2023-02-05T00:00:00	2024-11-06T11:00:00	2	Temperatura media	18.4
23322	7	Sololá	701	Sololá	3	Barraneche	5	Mayo	2023-02-05T00:00:00	2024-11-06T11:00:00	4	Temperatura máxima	18.8
23323	7	Sololá	701	Sololá	3	Barraneche	5	Mayo	2023-02-05T00:00:00	2024-11-06T11:00:00	3	Temperatura mínima	17.8
23324	7	Sololá	701	Sololá	3	Barraneche	5	Mayo	2023-02-05T00:00:00	2024-11-06T11:00:00	5	Humedad	64
23325	7	Sololá	701	Sololá	3	Barraneche	5	Mayo	2023-02-05T00:00:00	2024-11-06T11:00:00	6	Velocidad del viento	9.7
23326	7	Sololá	701	Sololá	3	Barraneche	5	Mayo	2023-02-05T00:00:00	2024-11-06T11:00:00	7	Dirección del viento	9.66
23327	7	Sololá	701	Sololá	3	Barraneche	5	Mayo	2023-02-05T00:00:00	2024-11-06T11:00:00	1	Precipitación	0
23328	7	Sololá	701	Sololá	3	Barraneche	5	Mayo	2023-02-05T00:00:00	2024-11-06T11:00:00	8	Radiación solar	933
23329	7	Sololá	701	Sololá	3	Barraneche	5	Mayo	2023-02-05T00:00:00	2024-11-06T12:00:00	2	Temperatura media	17.7
23330	7	Sololá	701	Sololá	3	Barraneche	5	Mayo	2023-02-05T00:00:00	2024-11-06T12:00:00	4	Temperatura máxima	18.4
23331	7	Sololá	701	Sololá	3	Barraneche	5	Mayo	2023-02-05T00:00:00	2024-11-06T12:00:00	3	Temperatura mínima	17.2
23332	7	Sololá	701	Sololá	3	Barraneche	5	Mayo	2023-02-05T00:00:00	2024-11-06T12:00:00	5	Humedad	71
23333	7	Sololá	701	Sololá	3	Barraneche	5	Mayo	2023-02-05T00:00:00	2024-11-06T12:00:00	6	Velocidad del viento	12.9
23334	7	Sololá	701	Sololá	3	Barraneche	5	Mayo	2023-02-05T00:00:00	2024-11-06T12:00:00	7	Dirección del viento	12.87
23335	7	Sololá	701	Sololá	3	Barraneche	5	Mayo	2023-02-05T00:00:00	2024-11-06T12:00:00	1	Precipitación	0
23336	7	Sololá	701	Sololá	3	Barraneche	5	Mayo	2023-02-05T00:00:00	2024-11-06T12:00:00	8	Radiación solar	624
23337	7	Sololá	701	Sololá	3	Barraneche	5	Mayo	2023-02-05T00:00:00	2024-11-06T13:00:00	2	Temperatura media	17.9
23338	7	Sololá	701	Sololá	3	Barraneche	5	Mayo	2023-02-05T00:00:00	2024-11-06T13:00:00	4	Temperatura máxima	18.3
23339	7	Sololá	701	Sololá	3	Barraneche	5	Mayo	2023-02-05T00:00:00	2024-11-06T13:00:00	3	Temperatura mínima	17.6
23340	7	Sololá	701	Sololá	3	Barraneche	5	Mayo	2023-02-05T00:00:00	2024-11-06T13:00:00	5	Humedad	67
23341	7	Sololá	701	Sololá	3	Barraneche	5	Mayo	2023-02-05T00:00:00	2024-11-06T13:00:00	6	Velocidad del viento	9.7
23342	7	Sololá	701	Sololá	3	Barraneche	5	Mayo	2023-02-05T00:00:00	2024-11-06T13:00:00	7	Dirección del viento	9.66
23343	7	Sololá	701	Sololá	3	Barraneche	5	Mayo	2023-02-05T00:00:00	2024-11-06T13:00:00	1	Precipitación	0
23344	7	Sololá	701	Sololá	3	Barraneche	5	Mayo	2023-02-05T00:00:00	2024-11-06T13:00:00	8	Radiación solar	399
23345	7	Sololá	701	Sololá	3	Barraneche	5	Mayo	2023-02-05T00:00:00	2024-11-06T14:00:00	2	Temperatura media	17.8
23346	7	Sololá	701	Sololá	3	Barraneche	5	Mayo	2023-02-05T00:00:00	2024-11-06T14:00:00	4	Temperatura máxima	18.8
23347	7	Sololá	701	Sololá	3	Barraneche	5	Mayo	2023-02-05T00:00:00	2024-11-06T14:00:00	3	Temperatura mínima	17.8
23348	7	Sololá	701	Sololá	3	Barraneche	5	Mayo	2023-02-05T00:00:00	2024-11-06T14:00:00	5	Humedad	70
23349	7	Sololá	701	Sololá	3	Barraneche	5	Mayo	2023-02-05T00:00:00	2024-11-06T14:00:00	6	Velocidad del viento	8
23350	7	Sololá	701	Sololá	3	Barraneche	5	Mayo	2023-02-05T00:00:00	2024-11-06T14:00:00	7	Dirección del viento	8.05
23351	7	Sololá	701	Sololá	3	Barraneche	5	Mayo	2023-02-05T00:00:00	2024-11-06T14:00:00	1	Precipitación	0
23352	7	Sololá	701	Sololá	3	Barraneche	5	Mayo	2023-02-05T00:00:00	2024-11-06T14:00:00	8	Radiación solar	414
23353	7	Sololá	701	Sololá	3	Barraneche	5	Mayo	2023-02-05T00:00:00	2024-11-06T15:00:00	2	Temperatura media	16.4
23354	7	Sololá	701	Sololá	3	Barraneche	5	Mayo	2023-02-05T00:00:00	2024-11-06T15:00:00	4	Temperatura máxima	17.8
23355	7	Sololá	701	Sololá	3	Barraneche	5	Mayo	2023-02-05T00:00:00	2024-11-06T15:00:00	3	Temperatura mínima	16.4
23356	7	Sololá	701	Sololá	3	Barraneche	5	Mayo	2023-02-05T00:00:00	2024-11-06T15:00:00	5	Humedad	73
23357	7	Sololá	701	Sololá	3	Barraneche	5	Mayo	2023-02-05T00:00:00	2024-11-06T15:00:00	6	Velocidad del viento	8
23358	7	Sololá	701	Sololá	3	Barraneche	5	Mayo	2023-02-05T00:00:00	2024-11-06T15:00:00	7	Dirección del viento	8.05
23359	7	Sololá	701	Sololá	3	Barraneche	5	Mayo	2023-02-05T00:00:00	2024-11-06T15:00:00	1	Precipitación	0.4
23360	7	Sololá	701	Sololá	3	Barraneche	5	Mayo	2023-02-05T00:00:00	2024-11-06T15:00:00	8	Radiación solar	91
23361	7	Sololá	701	Sololá	3	Barraneche	5	Mayo	2023-02-05T00:00:00	2024-11-06T16:00:00	2	Temperatura media	15.5
23362	7	Sololá	701	Sololá	3	Barraneche	5	Mayo	2023-02-05T00:00:00	2024-11-06T16:00:00	4	Temperatura máxima	16.4
23363	7	Sololá	701	Sololá	3	Barraneche	5	Mayo	2023-02-05T00:00:00	2024-11-06T16:00:00	3	Temperatura mínima	15.3
23364	7	Sololá	701	Sololá	3	Barraneche	5	Mayo	2023-02-05T00:00:00	2024-11-06T16:00:00	5	Humedad	78
23365	7	Sololá	701	Sololá	3	Barraneche	5	Mayo	2023-02-05T00:00:00	2024-11-06T16:00:00	6	Velocidad del viento	4.8
23366	7	Sololá	701	Sololá	3	Barraneche	5	Mayo	2023-02-05T00:00:00	2024-11-06T16:00:00	7	Dirección del viento	4.83
23367	7	Sololá	701	Sololá	3	Barraneche	5	Mayo	2023-02-05T00:00:00	2024-11-06T16:00:00	1	Precipitación	0.8
23368	7	Sololá	701	Sololá	3	Barraneche	5	Mayo	2023-02-05T00:00:00	2024-11-06T16:00:00	8	Radiación solar	28
23369	7	Sololá	701	Sololá	3	Barraneche	5	Mayo	2023-02-05T00:00:00	2024-11-06T17:00:00	2	Temperatura media	14.1
23370	7	Sololá	701	Sololá	3	Barraneche	5	Mayo	2023-02-05T00:00:00	2024-11-06T17:00:00	4	Temperatura máxima	15.5
23371	7	Sololá	701	Sololá	3	Barraneche	5	Mayo	2023-02-05T00:00:00	2024-11-06T17:00:00	3	Temperatura mínima	14.1
23372	7	Sololá	701	Sololá	3	Barraneche	5	Mayo	2023-02-05T00:00:00	2024-11-06T17:00:00	5	Humedad	82
23373	7	Sololá	701	Sololá	3	Barraneche	5	Mayo	2023-02-05T00:00:00	2024-11-06T17:00:00	6	Velocidad del viento	8
23374	7	Sololá	701	Sololá	3	Barraneche	5	Mayo	2023-02-05T00:00:00	2024-11-06T17:00:00	7	Dirección del viento	8.05
23375	7	Sololá	701	Sololá	3	Barraneche	5	Mayo	2023-02-05T00:00:00	2024-11-06T17:00:00	1	Precipitación	0.2
23376	7	Sololá	701	Sololá	3	Barraneche	5	Mayo	2023-02-05T00:00:00	2024-11-06T17:00:00	8	Radiación solar	1
23377	7	Sololá	701	Sololá	3	Barraneche	5	Mayo	2023-02-05T00:00:00	2024-11-06T18:00:00	2	Temperatura media	13.8
23378	7	Sololá	701	Sololá	3	Barraneche	5	Mayo	2023-02-05T00:00:00	2024-11-06T18:00:00	4	Temperatura máxima	14.1
23379	7	Sololá	701	Sololá	3	Barraneche	5	Mayo	2023-02-05T00:00:00	2024-11-06T18:00:00	3	Temperatura mínima	13.7
23380	7	Sololá	701	Sololá	3	Barraneche	5	Mayo	2023-02-05T00:00:00	2024-11-06T18:00:00	5	Humedad	83
23381	7	Sololá	701	Sololá	3	Barraneche	5	Mayo	2023-02-05T00:00:00	2024-11-06T18:00:00	6	Velocidad del viento	3.2
23382	7	Sololá	701	Sololá	3	Barraneche	5	Mayo	2023-02-05T00:00:00	2024-11-06T18:00:00	7	Dirección del viento	3.22
23383	7	Sololá	701	Sololá	3	Barraneche	5	Mayo	2023-02-05T00:00:00	2024-11-06T18:00:00	1	Precipitación	2.2
23384	7	Sololá	701	Sololá	3	Barraneche	5	Mayo	2023-02-05T00:00:00	2024-11-06T18:00:00	8	Radiación solar	0
23385	7	Sololá	701	Sololá	3	Barraneche	5	Mayo	2023-02-05T00:00:00	2024-11-06T19:00:00	2	Temperatura media	13.4
23386	7	Sololá	701	Sololá	3	Barraneche	5	Mayo	2023-02-05T00:00:00	2024-11-06T19:00:00	4	Temperatura máxima	13.9
23387	7	Sololá	701	Sololá	3	Barraneche	5	Mayo	2023-02-05T00:00:00	2024-11-06T19:00:00	3	Temperatura mínima	13.2
23388	7	Sololá	701	Sololá	3	Barraneche	5	Mayo	2023-02-05T00:00:00	2024-11-06T19:00:00	5	Humedad	65
23389	7	Sololá	701	Sololá	3	Barraneche	5	Mayo	2023-02-05T00:00:00	2024-11-06T19:00:00	6	Velocidad del viento	11.3
23390	7	Sololá	701	Sololá	3	Barraneche	5	Mayo	2023-02-05T00:00:00	2024-11-06T19:00:00	7	Dirección del viento	11.27
23391	7	Sololá	701	Sololá	3	Barraneche	5	Mayo	2023-02-05T00:00:00	2024-11-06T19:00:00	1	Precipitación	3
23392	7	Sololá	701	Sololá	3	Barraneche	5	Mayo	2023-02-05T00:00:00	2024-11-06T19:00:00	8	Radiación solar	0
23393	7	Sololá	701	Sololá	3	Barraneche	5	Mayo	2023-02-05T00:00:00	2024-11-06T20:00:00	2	Temperatura media	14.1
23394	7	Sololá	701	Sololá	3	Barraneche	5	Mayo	2023-02-05T00:00:00	2024-11-06T20:00:00	4	Temperatura máxima	14.3
23395	7	Sololá	701	Sololá	3	Barraneche	5	Mayo	2023-02-05T00:00:00	2024-11-06T20:00:00	3	Temperatura mínima	13.2
23396	7	Sololá	701	Sololá	3	Barraneche	5	Mayo	2023-02-05T00:00:00	2024-11-06T20:00:00	5	Humedad	55
23397	7	Sololá	701	Sololá	3	Barraneche	5	Mayo	2023-02-05T00:00:00	2024-11-06T20:00:00	6	Velocidad del viento	16.1
23398	7	Sololá	701	Sololá	3	Barraneche	5	Mayo	2023-02-05T00:00:00	2024-11-06T20:00:00	7	Dirección del viento	16.09
23399	7	Sololá	701	Sololá	3	Barraneche	5	Mayo	2023-02-05T00:00:00	2024-11-06T20:00:00	1	Precipitación	0
23400	7	Sololá	701	Sololá	3	Barraneche	5	Mayo	2023-02-05T00:00:00	2024-11-06T20:00:00	8	Radiación solar	0
23401	7	Sololá	701	Sololá	3	Barraneche	5	Mayo	2023-02-05T00:00:00	2024-11-06T21:00:00	2	Temperatura media	14.1
23402	7	Sololá	701	Sololá	3	Barraneche	5	Mayo	2023-02-05T00:00:00	2024-11-06T21:00:00	4	Temperatura máxima	14.6
23403	7	Sololá	701	Sololá	3	Barraneche	5	Mayo	2023-02-05T00:00:00	2024-11-06T21:00:00	3	Temperatura mínima	14.1
23404	7	Sololá	701	Sololá	3	Barraneche	5	Mayo	2023-02-05T00:00:00	2024-11-06T21:00:00	5	Humedad	57
23405	7	Sololá	701	Sololá	3	Barraneche	5	Mayo	2023-02-05T00:00:00	2024-11-06T21:00:00	6	Velocidad del viento	14.5
23406	7	Sololá	701	Sololá	3	Barraneche	5	Mayo	2023-02-05T00:00:00	2024-11-06T21:00:00	7	Dirección del viento	14.48
23407	7	Sololá	701	Sololá	3	Barraneche	5	Mayo	2023-02-05T00:00:00	2024-11-06T21:00:00	1	Precipitación	0
23408	7	Sololá	701	Sololá	3	Barraneche	5	Mayo	2023-02-05T00:00:00	2024-11-06T21:00:00	8	Radiación solar	0
23409	7	Sololá	701	Sololá	3	Barraneche	5	Mayo	2023-02-05T00:00:00	2024-11-06T22:00:00	2	Temperatura media	14.2
23410	7	Sololá	701	Sololá	3	Barraneche	5	Mayo	2023-02-05T00:00:00	2024-11-06T22:00:00	4	Temperatura máxima	14.2
23411	7	Sololá	701	Sololá	3	Barraneche	5	Mayo	2023-02-05T00:00:00	2024-11-06T22:00:00	3	Temperatura mínima	13.2
23412	7	Sololá	701	Sololá	3	Barraneche	5	Mayo	2023-02-05T00:00:00	2024-11-06T22:00:00	5	Humedad	54
23413	7	Sololá	701	Sololá	3	Barraneche	5	Mayo	2023-02-05T00:00:00	2024-11-06T22:00:00	6	Velocidad del viento	4.8
23414	7	Sololá	701	Sololá	3	Barraneche	5	Mayo	2023-02-05T00:00:00	2024-11-06T22:00:00	7	Dirección del viento	4.83
23415	7	Sololá	701	Sololá	3	Barraneche	5	Mayo	2023-02-05T00:00:00	2024-11-06T22:00:00	1	Precipitación	0
23416	7	Sololá	701	Sololá	3	Barraneche	5	Mayo	2023-02-05T00:00:00	2024-11-06T22:00:00	8	Radiación solar	0
23417	7	Sololá	701	Sololá	3	Barraneche	5	Mayo	2023-02-05T00:00:00	2024-11-06T23:00:00	2	Temperatura media	14.2
23418	7	Sololá	701	Sololá	3	Barraneche	5	Mayo	2023-02-05T00:00:00	2024-11-06T23:00:00	4	Temperatura máxima	15
23419	7	Sololá	701	Sololá	3	Barraneche	5	Mayo	2023-02-05T00:00:00	2024-11-06T23:00:00	3	Temperatura mínima	13.9
23420	7	Sololá	701	Sololá	3	Barraneche	5	Mayo	2023-02-05T00:00:00	2024-11-06T23:00:00	5	Humedad	52
23421	7	Sololá	701	Sololá	3	Barraneche	5	Mayo	2023-02-05T00:00:00	2024-11-06T23:00:00	6	Velocidad del viento	4.8
23422	7	Sololá	701	Sololá	3	Barraneche	5	Mayo	2023-02-05T00:00:00	2024-11-06T23:00:00	7	Dirección del viento	4.83
23423	7	Sololá	701	Sololá	3	Barraneche	5	Mayo	2023-02-05T00:00:00	2024-11-06T23:00:00	1	Precipitación	0
23424	7	Sololá	701	Sololá	3	Barraneche	5	Mayo	2023-02-05T00:00:00	2024-11-06T23:00:00	8	Radiación solar	0
23425	7	Sololá	701	Sololá	3	Barraneche	5	Mayo	2023-03-05T00:00:00	2024-11-06T00:00:00	2	Temperatura media	15.2
23426	7	Sololá	701	Sololá	3	Barraneche	5	Mayo	2023-03-05T00:00:00	2024-11-06T00:00:00	4	Temperatura máxima	15.6
23427	7	Sololá	701	Sololá	3	Barraneche	5	Mayo	2023-03-05T00:00:00	2024-11-06T00:00:00	3	Temperatura mínima	14
23428	7	Sololá	701	Sololá	3	Barraneche	5	Mayo	2023-03-05T00:00:00	2024-11-06T00:00:00	5	Humedad	54
23429	7	Sololá	701	Sololá	3	Barraneche	5	Mayo	2023-03-05T00:00:00	2024-11-06T00:00:00	6	Velocidad del viento	14.5
23430	7	Sololá	701	Sololá	3	Barraneche	5	Mayo	2023-03-05T00:00:00	2024-11-06T00:00:00	7	Dirección del viento	14.48
23431	7	Sololá	701	Sololá	3	Barraneche	5	Mayo	2023-03-05T00:00:00	2024-11-06T00:00:00	1	Precipitación	0
23432	7	Sololá	701	Sololá	3	Barraneche	5	Mayo	2023-03-05T00:00:00	2024-11-06T00:00:00	8	Radiación solar	0
23433	7	Sololá	701	Sololá	3	Barraneche	5	Mayo	2023-03-05T00:00:00	2024-11-06T01:00:00	2	Temperatura media	16.4
23434	7	Sololá	701	Sololá	3	Barraneche	5	Mayo	2023-03-05T00:00:00	2024-11-06T01:00:00	4	Temperatura máxima	16.4
23435	7	Sololá	701	Sololá	3	Barraneche	5	Mayo	2023-03-05T00:00:00	2024-11-06T01:00:00	3	Temperatura mínima	15.2
23436	7	Sololá	701	Sololá	3	Barraneche	5	Mayo	2023-03-05T00:00:00	2024-11-06T01:00:00	5	Humedad	38
23437	7	Sololá	701	Sololá	3	Barraneche	5	Mayo	2023-03-05T00:00:00	2024-11-06T01:00:00	6	Velocidad del viento	12.9
23438	7	Sololá	701	Sololá	3	Barraneche	5	Mayo	2023-03-05T00:00:00	2024-11-06T01:00:00	7	Dirección del viento	12.87
23439	7	Sololá	701	Sololá	3	Barraneche	5	Mayo	2023-03-05T00:00:00	2024-11-06T01:00:00	1	Precipitación	0
23440	7	Sololá	701	Sololá	3	Barraneche	5	Mayo	2023-03-05T00:00:00	2024-11-06T01:00:00	8	Radiación solar	0
23441	7	Sololá	701	Sololá	3	Barraneche	5	Mayo	2023-03-05T00:00:00	2024-11-06T02:00:00	2	Temperatura media	16.1
23442	7	Sololá	701	Sololá	3	Barraneche	5	Mayo	2023-03-05T00:00:00	2024-11-06T02:00:00	4	Temperatura máxima	16.7
23443	7	Sololá	701	Sololá	3	Barraneche	5	Mayo	2023-03-05T00:00:00	2024-11-06T02:00:00	3	Temperatura mínima	16.1
23444	7	Sololá	701	Sololá	3	Barraneche	5	Mayo	2023-03-05T00:00:00	2024-11-06T02:00:00	5	Humedad	40
23445	7	Sololá	701	Sololá	3	Barraneche	5	Mayo	2023-03-05T00:00:00	2024-11-06T02:00:00	6	Velocidad del viento	9.7
23446	7	Sololá	701	Sololá	3	Barraneche	5	Mayo	2023-03-05T00:00:00	2024-11-06T02:00:00	7	Dirección del viento	9.66
23447	7	Sololá	701	Sololá	3	Barraneche	5	Mayo	2023-03-05T00:00:00	2024-11-06T02:00:00	1	Precipitación	0
23448	7	Sololá	701	Sololá	3	Barraneche	5	Mayo	2023-03-05T00:00:00	2024-11-06T02:00:00	8	Radiación solar	0
23449	7	Sololá	701	Sololá	3	Barraneche	5	Mayo	2023-03-05T00:00:00	2024-11-06T03:00:00	2	Temperatura media	15.4
23450	7	Sololá	701	Sololá	3	Barraneche	5	Mayo	2023-03-05T00:00:00	2024-11-06T03:00:00	4	Temperatura máxima	16.3
23451	7	Sololá	701	Sololá	3	Barraneche	5	Mayo	2023-03-05T00:00:00	2024-11-06T03:00:00	3	Temperatura mínima	15.3
23452	7	Sololá	701	Sololá	3	Barraneche	5	Mayo	2023-03-05T00:00:00	2024-11-06T03:00:00	5	Humedad	45
23453	7	Sololá	701	Sololá	3	Barraneche	5	Mayo	2023-03-05T00:00:00	2024-11-06T03:00:00	6	Velocidad del viento	4.8
23454	7	Sololá	701	Sololá	3	Barraneche	5	Mayo	2023-03-05T00:00:00	2024-11-06T03:00:00	7	Dirección del viento	4.83
23455	7	Sololá	701	Sololá	3	Barraneche	5	Mayo	2023-03-05T00:00:00	2024-11-06T03:00:00	1	Precipitación	0
23456	7	Sololá	701	Sololá	3	Barraneche	5	Mayo	2023-03-05T00:00:00	2024-11-06T03:00:00	8	Radiación solar	0
23457	7	Sololá	701	Sololá	3	Barraneche	5	Mayo	2023-03-05T00:00:00	2024-11-06T04:00:00	2	Temperatura media	12.4
23458	7	Sololá	701	Sololá	3	Barraneche	5	Mayo	2023-03-05T00:00:00	2024-11-06T04:00:00	4	Temperatura máxima	15.4
23459	7	Sololá	701	Sololá	3	Barraneche	5	Mayo	2023-03-05T00:00:00	2024-11-06T04:00:00	3	Temperatura mínima	12.4
23460	7	Sololá	701	Sololá	3	Barraneche	5	Mayo	2023-03-05T00:00:00	2024-11-06T04:00:00	5	Humedad	56
23461	7	Sololá	701	Sololá	3	Barraneche	5	Mayo	2023-03-05T00:00:00	2024-11-06T04:00:00	6	Velocidad del viento	6.4
23462	7	Sololá	701	Sololá	3	Barraneche	5	Mayo	2023-03-05T00:00:00	2024-11-06T04:00:00	7	Dirección del viento	6.44
23463	7	Sololá	701	Sololá	3	Barraneche	5	Mayo	2023-03-05T00:00:00	2024-11-06T04:00:00	1	Precipitación	0
23464	7	Sololá	701	Sololá	3	Barraneche	5	Mayo	2023-03-05T00:00:00	2024-11-06T04:00:00	8	Radiación solar	0
23465	7	Sololá	701	Sololá	3	Barraneche	5	Mayo	2023-03-05T00:00:00	2024-11-06T05:00:00	2	Temperatura media	11.7
23466	7	Sololá	701	Sololá	3	Barraneche	5	Mayo	2023-03-05T00:00:00	2024-11-06T05:00:00	4	Temperatura máxima	12.4
23467	7	Sololá	701	Sololá	3	Barraneche	5	Mayo	2023-03-05T00:00:00	2024-11-06T05:00:00	3	Temperatura mínima	11.6
23468	7	Sololá	701	Sololá	3	Barraneche	5	Mayo	2023-03-05T00:00:00	2024-11-06T05:00:00	5	Humedad	58
23469	7	Sololá	701	Sololá	3	Barraneche	5	Mayo	2023-03-05T00:00:00	2024-11-06T05:00:00	6	Velocidad del viento	8
23470	7	Sololá	701	Sololá	3	Barraneche	5	Mayo	2023-03-05T00:00:00	2024-11-06T05:00:00	7	Dirección del viento	8.05
23471	7	Sololá	701	Sololá	3	Barraneche	5	Mayo	2023-03-05T00:00:00	2024-11-06T05:00:00	1	Precipitación	0
23472	7	Sololá	701	Sololá	3	Barraneche	5	Mayo	2023-03-05T00:00:00	2024-11-06T05:00:00	8	Radiación solar	0
23473	7	Sololá	701	Sololá	3	Barraneche	5	Mayo	2023-03-05T00:00:00	2024-11-06T06:00:00	2	Temperatura media	12.8
23474	7	Sololá	701	Sololá	3	Barraneche	5	Mayo	2023-03-05T00:00:00	2024-11-06T06:00:00	4	Temperatura máxima	13.1
23475	7	Sololá	701	Sololá	3	Barraneche	5	Mayo	2023-03-05T00:00:00	2024-11-06T06:00:00	3	Temperatura mínima	11.6
23476	7	Sololá	701	Sololá	3	Barraneche	5	Mayo	2023-03-05T00:00:00	2024-11-06T06:00:00	5	Humedad	52
23477	7	Sololá	701	Sololá	3	Barraneche	5	Mayo	2023-03-05T00:00:00	2024-11-06T06:00:00	6	Velocidad del viento	9.7
23478	7	Sololá	701	Sololá	3	Barraneche	5	Mayo	2023-03-05T00:00:00	2024-11-06T06:00:00	7	Dirección del viento	9.66
23479	7	Sololá	701	Sololá	3	Barraneche	5	Mayo	2023-03-05T00:00:00	2024-11-06T06:00:00	1	Precipitación	0
23480	7	Sololá	701	Sololá	3	Barraneche	5	Mayo	2023-03-05T00:00:00	2024-11-06T06:00:00	8	Radiación solar	3
23481	7	Sololá	701	Sololá	3	Barraneche	5	Mayo	2023-03-05T00:00:00	2024-11-06T07:00:00	2	Temperatura media	14.7
23482	7	Sololá	701	Sololá	3	Barraneche	5	Mayo	2023-03-05T00:00:00	2024-11-06T07:00:00	4	Temperatura máxima	14.7
23483	7	Sololá	701	Sololá	3	Barraneche	5	Mayo	2023-03-05T00:00:00	2024-11-06T07:00:00	3	Temperatura mínima	12.8
23484	7	Sololá	701	Sololá	3	Barraneche	5	Mayo	2023-03-05T00:00:00	2024-11-06T07:00:00	5	Humedad	55
23485	7	Sololá	701	Sololá	3	Barraneche	5	Mayo	2023-03-05T00:00:00	2024-11-06T07:00:00	6	Velocidad del viento	6.4
23486	7	Sololá	701	Sololá	3	Barraneche	5	Mayo	2023-03-05T00:00:00	2024-11-06T07:00:00	7	Dirección del viento	6.44
23487	7	Sololá	701	Sololá	3	Barraneche	5	Mayo	2023-03-05T00:00:00	2024-11-06T07:00:00	1	Precipitación	0
23488	7	Sololá	701	Sololá	3	Barraneche	5	Mayo	2023-03-05T00:00:00	2024-11-06T07:00:00	8	Radiación solar	112
23489	7	Sololá	701	Sololá	3	Barraneche	5	Mayo	2023-03-05T00:00:00	2024-11-06T08:00:00	2	Temperatura media	16.8
23490	7	Sololá	701	Sololá	3	Barraneche	5	Mayo	2023-03-05T00:00:00	2024-11-06T08:00:00	4	Temperatura máxima	17
23491	7	Sololá	701	Sololá	3	Barraneche	5	Mayo	2023-03-05T00:00:00	2024-11-06T08:00:00	3	Temperatura mínima	14.5
23492	7	Sololá	701	Sololá	3	Barraneche	5	Mayo	2023-03-05T00:00:00	2024-11-06T08:00:00	5	Humedad	46
23493	7	Sololá	701	Sololá	3	Barraneche	5	Mayo	2023-03-05T00:00:00	2024-11-06T08:00:00	6	Velocidad del viento	3.2
23494	7	Sololá	701	Sololá	3	Barraneche	5	Mayo	2023-03-05T00:00:00	2024-11-06T08:00:00	7	Dirección del viento	3.22
23495	7	Sololá	701	Sololá	3	Barraneche	5	Mayo	2023-03-05T00:00:00	2024-11-06T08:00:00	1	Precipitación	0
23496	7	Sololá	701	Sololá	3	Barraneche	5	Mayo	2023-03-05T00:00:00	2024-11-06T08:00:00	8	Radiación solar	388
23497	7	Sololá	701	Sololá	3	Barraneche	5	Mayo	2023-03-05T00:00:00	2024-11-06T09:00:00	2	Temperatura media	18.2
23498	7	Sololá	701	Sololá	3	Barraneche	5	Mayo	2023-03-05T00:00:00	2024-11-06T09:00:00	4	Temperatura máxima	18.3
23499	7	Sololá	701	Sololá	3	Barraneche	5	Mayo	2023-03-05T00:00:00	2024-11-06T09:00:00	3	Temperatura mínima	16.8
23500	7	Sololá	701	Sololá	3	Barraneche	5	Mayo	2023-03-05T00:00:00	2024-11-06T09:00:00	5	Humedad	54
23501	7	Sololá	701	Sololá	3	Barraneche	5	Mayo	2023-03-05T00:00:00	2024-11-06T09:00:00	6	Velocidad del viento	6.4
23502	7	Sololá	701	Sololá	3	Barraneche	5	Mayo	2023-03-05T00:00:00	2024-11-06T09:00:00	7	Dirección del viento	6.44
23503	7	Sololá	701	Sololá	3	Barraneche	5	Mayo	2023-03-05T00:00:00	2024-11-06T09:00:00	1	Precipitación	0
23504	7	Sololá	701	Sololá	3	Barraneche	5	Mayo	2023-03-05T00:00:00	2024-11-06T09:00:00	8	Radiación solar	605
23505	7	Sololá	701	Sololá	3	Barraneche	5	Mayo	2023-03-05T00:00:00	2024-11-06T10:00:00	2	Temperatura media	20.8
23506	7	Sololá	701	Sololá	3	Barraneche	5	Mayo	2023-03-05T00:00:00	2024-11-06T10:00:00	4	Temperatura máxima	20.8
23507	7	Sololá	701	Sololá	3	Barraneche	5	Mayo	2023-03-05T00:00:00	2024-11-06T10:00:00	3	Temperatura mínima	18.2
23508	7	Sololá	701	Sololá	3	Barraneche	5	Mayo	2023-03-05T00:00:00	2024-11-06T10:00:00	5	Humedad	42
23509	7	Sololá	701	Sololá	3	Barraneche	5	Mayo	2023-03-05T00:00:00	2024-11-06T10:00:00	6	Velocidad del viento	8
23510	7	Sololá	701	Sololá	3	Barraneche	5	Mayo	2023-03-05T00:00:00	2024-11-06T10:00:00	7	Dirección del viento	8.05
23511	7	Sololá	701	Sololá	3	Barraneche	5	Mayo	2023-03-05T00:00:00	2024-11-06T10:00:00	1	Precipitación	0
23512	7	Sololá	701	Sololá	3	Barraneche	5	Mayo	2023-03-05T00:00:00	2024-11-06T10:00:00	8	Radiación solar	799
23513	7	Sololá	701	Sololá	3	Barraneche	5	Mayo	2023-03-05T00:00:00	2024-11-06T11:00:00	2	Temperatura media	21.9
23514	7	Sololá	701	Sololá	3	Barraneche	5	Mayo	2023-03-05T00:00:00	2024-11-06T11:00:00	4	Temperatura máxima	21.9
23515	7	Sololá	701	Sololá	3	Barraneche	5	Mayo	2023-03-05T00:00:00	2024-11-06T11:00:00	3	Temperatura mínima	20.8
23516	7	Sololá	701	Sololá	3	Barraneche	5	Mayo	2023-03-05T00:00:00	2024-11-06T11:00:00	5	Humedad	34
23517	7	Sololá	701	Sololá	3	Barraneche	5	Mayo	2023-03-05T00:00:00	2024-11-06T11:00:00	6	Velocidad del viento	8
23518	7	Sololá	701	Sololá	3	Barraneche	5	Mayo	2023-03-05T00:00:00	2024-11-06T11:00:00	7	Dirección del viento	8.05
23519	7	Sololá	701	Sololá	3	Barraneche	5	Mayo	2023-03-05T00:00:00	2024-11-06T11:00:00	1	Precipitación	0
23520	7	Sololá	701	Sololá	3	Barraneche	5	Mayo	2023-03-05T00:00:00	2024-11-06T11:00:00	8	Radiación solar	955
23521	7	Sololá	701	Sololá	3	Barraneche	5	Mayo	2023-03-05T00:00:00	2024-11-06T12:00:00	2	Temperatura media	22.1
23522	7	Sololá	701	Sololá	3	Barraneche	5	Mayo	2023-03-05T00:00:00	2024-11-06T12:00:00	4	Temperatura máxima	22.2
23523	7	Sololá	701	Sololá	3	Barraneche	5	Mayo	2023-03-05T00:00:00	2024-11-06T12:00:00	3	Temperatura mínima	21.5
23524	7	Sololá	701	Sololá	3	Barraneche	5	Mayo	2023-03-05T00:00:00	2024-11-06T12:00:00	5	Humedad	33
23525	7	Sololá	701	Sololá	3	Barraneche	5	Mayo	2023-03-05T00:00:00	2024-11-06T12:00:00	6	Velocidad del viento	12.9
23526	7	Sololá	701	Sololá	3	Barraneche	5	Mayo	2023-03-05T00:00:00	2024-11-06T12:00:00	7	Dirección del viento	12.87
23527	7	Sololá	701	Sololá	3	Barraneche	5	Mayo	2023-03-05T00:00:00	2024-11-06T12:00:00	1	Precipitación	0
23528	7	Sololá	701	Sololá	3	Barraneche	5	Mayo	2023-03-05T00:00:00	2024-11-06T12:00:00	8	Radiación solar	1051
23529	7	Sololá	701	Sololá	3	Barraneche	5	Mayo	2023-03-05T00:00:00	2024-11-06T13:00:00	2	Temperatura media	20.1
23530	7	Sololá	701	Sololá	3	Barraneche	5	Mayo	2023-03-05T00:00:00	2024-11-06T13:00:00	4	Temperatura máxima	22.2
23531	7	Sololá	701	Sololá	3	Barraneche	5	Mayo	2023-03-05T00:00:00	2024-11-06T13:00:00	3	Temperatura mínima	19.7
23532	7	Sololá	701	Sololá	3	Barraneche	5	Mayo	2023-03-05T00:00:00	2024-11-06T13:00:00	5	Humedad	53
23533	7	Sololá	701	Sololá	3	Barraneche	5	Mayo	2023-03-05T00:00:00	2024-11-06T13:00:00	6	Velocidad del viento	9.7
23534	7	Sololá	701	Sololá	3	Barraneche	5	Mayo	2023-03-05T00:00:00	2024-11-06T13:00:00	7	Dirección del viento	9.66
23535	7	Sololá	701	Sololá	3	Barraneche	5	Mayo	2023-03-05T00:00:00	2024-11-06T13:00:00	1	Precipitación	0
23536	7	Sololá	701	Sololá	3	Barraneche	5	Mayo	2023-03-05T00:00:00	2024-11-06T13:00:00	8	Radiación solar	908
23537	7	Sololá	701	Sololá	3	Barraneche	5	Mayo	2023-03-05T00:00:00	2024-11-06T14:00:00	2	Temperatura media	21.3
23538	7	Sololá	701	Sololá	3	Barraneche	5	Mayo	2023-03-05T00:00:00	2024-11-06T14:00:00	4	Temperatura máxima	22
23539	7	Sololá	701	Sololá	3	Barraneche	5	Mayo	2023-03-05T00:00:00	2024-11-06T14:00:00	3	Temperatura mínima	19.9
23540	7	Sololá	701	Sololá	3	Barraneche	5	Mayo	2023-03-05T00:00:00	2024-11-06T14:00:00	5	Humedad	41
23541	7	Sololá	701	Sololá	3	Barraneche	5	Mayo	2023-03-05T00:00:00	2024-11-06T14:00:00	6	Velocidad del viento	9.7
23542	7	Sololá	701	Sololá	3	Barraneche	5	Mayo	2023-03-05T00:00:00	2024-11-06T14:00:00	7	Dirección del viento	9.66
23543	7	Sololá	701	Sololá	3	Barraneche	5	Mayo	2023-03-05T00:00:00	2024-11-06T14:00:00	1	Precipitación	0
23544	7	Sololá	701	Sololá	3	Barraneche	5	Mayo	2023-03-05T00:00:00	2024-11-06T14:00:00	8	Radiación solar	578
23545	7	Sololá	701	Sololá	3	Barraneche	5	Mayo	2023-03-05T00:00:00	2024-11-06T15:00:00	2	Temperatura media	17.8
23546	7	Sololá	701	Sololá	3	Barraneche	5	Mayo	2023-03-05T00:00:00	2024-11-06T15:00:00	4	Temperatura máxima	21.4
23547	7	Sololá	701	Sololá	3	Barraneche	5	Mayo	2023-03-05T00:00:00	2024-11-06T15:00:00	3	Temperatura mínima	17.8
23548	7	Sololá	701	Sololá	3	Barraneche	5	Mayo	2023-03-05T00:00:00	2024-11-06T15:00:00	5	Humedad	69
23549	7	Sololá	701	Sololá	3	Barraneche	5	Mayo	2023-03-05T00:00:00	2024-11-06T15:00:00	6	Velocidad del viento	9.7
23550	7	Sololá	701	Sololá	3	Barraneche	5	Mayo	2023-03-05T00:00:00	2024-11-06T15:00:00	7	Dirección del viento	9.66
23551	7	Sololá	701	Sololá	3	Barraneche	5	Mayo	2023-03-05T00:00:00	2024-11-06T15:00:00	1	Precipitación	0
23552	7	Sololá	701	Sololá	3	Barraneche	5	Mayo	2023-03-05T00:00:00	2024-11-06T15:00:00	8	Radiación solar	163
23553	7	Sololá	701	Sololá	3	Barraneche	5	Mayo	2023-03-05T00:00:00	2024-11-06T16:00:00	2	Temperatura media	17.3
23554	7	Sololá	701	Sololá	3	Barraneche	5	Mayo	2023-03-05T00:00:00	2024-11-06T16:00:00	4	Temperatura máxima	17.8
23555	7	Sololá	701	Sololá	3	Barraneche	5	Mayo	2023-03-05T00:00:00	2024-11-06T16:00:00	3	Temperatura mínima	17.3
23556	7	Sololá	701	Sololá	3	Barraneche	5	Mayo	2023-03-05T00:00:00	2024-11-06T16:00:00	5	Humedad	71
23557	7	Sololá	701	Sololá	3	Barraneche	5	Mayo	2023-03-05T00:00:00	2024-11-06T16:00:00	6	Velocidad del viento	4.8
23558	7	Sololá	701	Sololá	3	Barraneche	5	Mayo	2023-03-05T00:00:00	2024-11-06T16:00:00	7	Dirección del viento	4.83
23559	7	Sololá	701	Sololá	3	Barraneche	5	Mayo	2023-03-05T00:00:00	2024-11-06T16:00:00	1	Precipitación	0.2
23560	7	Sololá	701	Sololá	3	Barraneche	5	Mayo	2023-03-05T00:00:00	2024-11-06T16:00:00	8	Radiación solar	127
23561	7	Sololá	701	Sololá	3	Barraneche	5	Mayo	2023-03-05T00:00:00	2024-11-06T17:00:00	2	Temperatura media	19.2
23562	7	Sololá	701	Sololá	3	Barraneche	5	Mayo	2023-03-05T00:00:00	2024-11-06T17:00:00	4	Temperatura máxima	20.7
23563	7	Sololá	701	Sololá	3	Barraneche	5	Mayo	2023-03-05T00:00:00	2024-11-06T17:00:00	3	Temperatura mínima	17.2
23564	7	Sololá	701	Sololá	3	Barraneche	5	Mayo	2023-03-05T00:00:00	2024-11-06T17:00:00	5	Humedad	55
23565	7	Sololá	701	Sololá	3	Barraneche	5	Mayo	2023-03-05T00:00:00	2024-11-06T17:00:00	6	Velocidad del viento	9.7
23566	7	Sololá	701	Sololá	3	Barraneche	5	Mayo	2023-03-05T00:00:00	2024-11-06T17:00:00	7	Dirección del viento	9.66
23567	7	Sololá	701	Sololá	3	Barraneche	5	Mayo	2023-03-05T00:00:00	2024-11-06T17:00:00	1	Precipitación	0
23568	7	Sololá	701	Sololá	3	Barraneche	5	Mayo	2023-03-05T00:00:00	2024-11-06T17:00:00	8	Radiación solar	332
23569	7	Sololá	701	Sololá	3	Barraneche	5	Mayo	2023-03-05T00:00:00	2024-11-06T18:00:00	2	Temperatura media	18.1
23570	7	Sololá	701	Sololá	3	Barraneche	5	Mayo	2023-03-05T00:00:00	2024-11-06T18:00:00	4	Temperatura máxima	19.2
23571	7	Sololá	701	Sololá	3	Barraneche	5	Mayo	2023-03-05T00:00:00	2024-11-06T18:00:00	3	Temperatura mínima	18.1
23572	7	Sololá	701	Sololá	3	Barraneche	5	Mayo	2023-03-05T00:00:00	2024-11-06T18:00:00	5	Humedad	55
23573	7	Sololá	701	Sololá	3	Barraneche	5	Mayo	2023-03-05T00:00:00	2024-11-06T18:00:00	6	Velocidad del viento	14.5
23574	7	Sololá	701	Sololá	3	Barraneche	5	Mayo	2023-03-05T00:00:00	2024-11-06T18:00:00	7	Dirección del viento	14.48
23575	7	Sololá	701	Sololá	3	Barraneche	5	Mayo	2023-03-05T00:00:00	2024-11-06T18:00:00	1	Precipitación	0
23576	7	Sololá	701	Sololá	3	Barraneche	5	Mayo	2023-03-05T00:00:00	2024-11-06T18:00:00	8	Radiación solar	120
23577	7	Sololá	701	Sololá	3	Barraneche	5	Mayo	2023-03-05T00:00:00	2024-11-06T19:00:00	2	Temperatura media	16.8
23578	7	Sololá	701	Sololá	3	Barraneche	5	Mayo	2023-03-05T00:00:00	2024-11-06T19:00:00	4	Temperatura máxima	18.1
23579	7	Sololá	701	Sololá	3	Barraneche	5	Mayo	2023-03-05T00:00:00	2024-11-06T19:00:00	3	Temperatura mínima	16.8
23580	7	Sololá	701	Sololá	3	Barraneche	5	Mayo	2023-03-05T00:00:00	2024-11-06T19:00:00	5	Humedad	58
23581	7	Sololá	701	Sololá	3	Barraneche	5	Mayo	2023-03-05T00:00:00	2024-11-06T19:00:00	6	Velocidad del viento	6.4
23582	7	Sololá	701	Sololá	3	Barraneche	5	Mayo	2023-03-05T00:00:00	2024-11-06T19:00:00	7	Dirección del viento	6.44
23583	7	Sololá	701	Sololá	3	Barraneche	5	Mayo	2023-03-05T00:00:00	2024-11-06T19:00:00	1	Precipitación	0
23584	7	Sololá	701	Sololá	3	Barraneche	5	Mayo	2023-03-05T00:00:00	2024-11-06T19:00:00	8	Radiación solar	0
23585	7	Sololá	701	Sololá	3	Barraneche	5	Mayo	2023-03-05T00:00:00	2024-11-06T20:00:00	2	Temperatura media	16.3
23586	7	Sololá	701	Sololá	3	Barraneche	5	Mayo	2023-03-05T00:00:00	2024-11-06T20:00:00	4	Temperatura máxima	16.9
23587	7	Sololá	701	Sololá	3	Barraneche	5	Mayo	2023-03-05T00:00:00	2024-11-06T20:00:00	3	Temperatura mínima	16.2
23588	7	Sololá	701	Sololá	3	Barraneche	5	Mayo	2023-03-05T00:00:00	2024-11-06T20:00:00	5	Humedad	60
23589	7	Sololá	701	Sololá	3	Barraneche	5	Mayo	2023-03-05T00:00:00	2024-11-06T20:00:00	6	Velocidad del viento	9.7
23590	7	Sololá	701	Sololá	3	Barraneche	5	Mayo	2023-03-05T00:00:00	2024-11-06T20:00:00	7	Dirección del viento	9.66
23591	7	Sololá	701	Sololá	3	Barraneche	5	Mayo	2023-03-05T00:00:00	2024-11-06T20:00:00	1	Precipitación	0
23592	7	Sololá	701	Sololá	3	Barraneche	5	Mayo	2023-03-05T00:00:00	2024-11-06T20:00:00	8	Radiación solar	0
23593	7	Sololá	701	Sololá	3	Barraneche	5	Mayo	2023-03-05T00:00:00	2024-11-06T21:00:00	2	Temperatura media	15.8
23594	7	Sololá	701	Sololá	3	Barraneche	5	Mayo	2023-03-05T00:00:00	2024-11-06T21:00:00	4	Temperatura máxima	16.3
23595	7	Sololá	701	Sololá	3	Barraneche	5	Mayo	2023-03-05T00:00:00	2024-11-06T21:00:00	3	Temperatura mínima	15.8
23596	7	Sololá	701	Sololá	3	Barraneche	5	Mayo	2023-03-05T00:00:00	2024-11-06T21:00:00	5	Humedad	62
23597	7	Sololá	701	Sololá	3	Barraneche	5	Mayo	2023-03-05T00:00:00	2024-11-06T21:00:00	6	Velocidad del viento	11.3
23598	7	Sololá	701	Sololá	3	Barraneche	5	Mayo	2023-03-05T00:00:00	2024-11-06T21:00:00	7	Dirección del viento	11.27
23599	7	Sololá	701	Sololá	3	Barraneche	5	Mayo	2023-03-05T00:00:00	2024-11-06T21:00:00	1	Precipitación	0
23600	7	Sololá	701	Sololá	3	Barraneche	5	Mayo	2023-03-05T00:00:00	2024-11-06T21:00:00	8	Radiación solar	0
23601	7	Sololá	701	Sololá	3	Barraneche	5	Mayo	2023-03-05T00:00:00	2024-11-06T22:00:00	2	Temperatura media	15.4
23602	7	Sololá	701	Sololá	3	Barraneche	5	Mayo	2023-03-05T00:00:00	2024-11-06T22:00:00	4	Temperatura máxima	15.9
23603	7	Sololá	701	Sololá	3	Barraneche	5	Mayo	2023-03-05T00:00:00	2024-11-06T22:00:00	3	Temperatura mínima	15.3
23604	7	Sololá	701	Sololá	3	Barraneche	5	Mayo	2023-03-05T00:00:00	2024-11-06T22:00:00	5	Humedad	58
23605	7	Sololá	701	Sololá	3	Barraneche	5	Mayo	2023-03-05T00:00:00	2024-11-06T22:00:00	6	Velocidad del viento	8
23606	7	Sololá	701	Sololá	3	Barraneche	5	Mayo	2023-03-05T00:00:00	2024-11-06T22:00:00	7	Dirección del viento	8.05
23607	7	Sololá	701	Sololá	3	Barraneche	5	Mayo	2023-03-05T00:00:00	2024-11-06T22:00:00	1	Precipitación	0
23608	7	Sololá	701	Sololá	3	Barraneche	5	Mayo	2023-03-05T00:00:00	2024-11-06T22:00:00	8	Radiación solar	0
23609	7	Sololá	701	Sololá	3	Barraneche	5	Mayo	2023-03-05T00:00:00	2024-11-06T23:00:00	2	Temperatura media	14.3
23610	7	Sololá	701	Sololá	3	Barraneche	5	Mayo	2023-03-05T00:00:00	2024-11-06T23:00:00	4	Temperatura máxima	15.9
23611	7	Sololá	701	Sololá	3	Barraneche	5	Mayo	2023-03-05T00:00:00	2024-11-06T23:00:00	3	Temperatura mínima	14.3
23612	7	Sololá	701	Sololá	3	Barraneche	5	Mayo	2023-03-05T00:00:00	2024-11-06T23:00:00	5	Humedad	61
23613	7	Sololá	701	Sololá	3	Barraneche	5	Mayo	2023-03-05T00:00:00	2024-11-06T23:00:00	6	Velocidad del viento	9.7
23614	7	Sololá	701	Sololá	3	Barraneche	5	Mayo	2023-03-05T00:00:00	2024-11-06T23:00:00	7	Dirección del viento	9.66
23615	7	Sololá	701	Sololá	3	Barraneche	5	Mayo	2023-03-05T00:00:00	2024-11-06T23:00:00	1	Precipitación	0
23616	7	Sololá	701	Sololá	3	Barraneche	5	Mayo	2023-03-05T00:00:00	2024-11-06T23:00:00	8	Radiación solar	0
23617	7	Sololá	701	Sololá	3	Barraneche	5	Mayo	2023-04-05T00:00:00	2024-11-06T00:00:00	2	Temperatura media	13
23618	7	Sololá	701	Sololá	3	Barraneche	5	Mayo	2023-04-05T00:00:00	2024-11-06T00:00:00	4	Temperatura máxima	14.3
23619	7	Sololá	701	Sololá	3	Barraneche	5	Mayo	2023-04-05T00:00:00	2024-11-06T00:00:00	3	Temperatura mínima	12.9
23620	7	Sololá	701	Sololá	3	Barraneche	5	Mayo	2023-04-05T00:00:00	2024-11-06T00:00:00	5	Humedad	67
23621	7	Sololá	701	Sololá	3	Barraneche	5	Mayo	2023-04-05T00:00:00	2024-11-06T00:00:00	6	Velocidad del viento	1.6
23622	7	Sololá	701	Sololá	3	Barraneche	5	Mayo	2023-04-05T00:00:00	2024-11-06T00:00:00	7	Dirección del viento	1.61
23623	7	Sololá	701	Sololá	3	Barraneche	5	Mayo	2023-04-05T00:00:00	2024-11-06T00:00:00	1	Precipitación	0
23624	7	Sololá	701	Sololá	3	Barraneche	5	Mayo	2023-04-05T00:00:00	2024-11-06T00:00:00	8	Radiación solar	0
23625	7	Sololá	701	Sololá	3	Barraneche	5	Mayo	2023-04-05T00:00:00	2024-11-06T01:00:00	2	Temperatura media	13.3
23626	7	Sololá	701	Sololá	3	Barraneche	5	Mayo	2023-04-05T00:00:00	2024-11-06T01:00:00	4	Temperatura máxima	13.3
23627	7	Sololá	701	Sololá	3	Barraneche	5	Mayo	2023-04-05T00:00:00	2024-11-06T01:00:00	3	Temperatura mínima	12.7
23628	7	Sololá	701	Sololá	3	Barraneche	5	Mayo	2023-04-05T00:00:00	2024-11-06T01:00:00	5	Humedad	66
23629	7	Sololá	701	Sololá	3	Barraneche	5	Mayo	2023-04-05T00:00:00	2024-11-06T01:00:00	6	Velocidad del viento	4.8
23630	7	Sololá	701	Sololá	3	Barraneche	5	Mayo	2023-04-05T00:00:00	2024-11-06T01:00:00	7	Dirección del viento	4.83
23631	7	Sololá	701	Sololá	3	Barraneche	5	Mayo	2023-04-05T00:00:00	2024-11-06T01:00:00	1	Precipitación	0
23632	7	Sololá	701	Sololá	3	Barraneche	5	Mayo	2023-04-05T00:00:00	2024-11-06T01:00:00	8	Radiación solar	0
23633	7	Sololá	701	Sololá	3	Barraneche	5	Mayo	2023-04-05T00:00:00	2024-11-06T02:00:00	2	Temperatura media	14.9
23634	7	Sololá	701	Sololá	3	Barraneche	5	Mayo	2023-04-05T00:00:00	2024-11-06T02:00:00	4	Temperatura máxima	15.2
23635	7	Sololá	701	Sololá	3	Barraneche	5	Mayo	2023-04-05T00:00:00	2024-11-06T02:00:00	3	Temperatura mínima	13.3
23636	7	Sololá	701	Sololá	3	Barraneche	5	Mayo	2023-04-05T00:00:00	2024-11-06T02:00:00	5	Humedad	56
23637	7	Sololá	701	Sololá	3	Barraneche	5	Mayo	2023-04-05T00:00:00	2024-11-06T02:00:00	6	Velocidad del viento	9.7
23638	7	Sololá	701	Sololá	3	Barraneche	5	Mayo	2023-04-05T00:00:00	2024-11-06T02:00:00	7	Dirección del viento	9.66
23639	7	Sololá	701	Sololá	3	Barraneche	5	Mayo	2023-04-05T00:00:00	2024-11-06T02:00:00	1	Precipitación	0
23640	7	Sololá	701	Sololá	3	Barraneche	5	Mayo	2023-04-05T00:00:00	2024-11-06T02:00:00	8	Radiación solar	0
23641	7	Sololá	701	Sololá	3	Barraneche	5	Mayo	2023-04-05T00:00:00	2024-11-06T03:00:00	2	Temperatura media	13.6
23642	7	Sololá	701	Sololá	3	Barraneche	5	Mayo	2023-04-05T00:00:00	2024-11-06T03:00:00	4	Temperatura máxima	14.9
23643	7	Sololá	701	Sololá	3	Barraneche	5	Mayo	2023-04-05T00:00:00	2024-11-06T03:00:00	3	Temperatura mínima	13.6
23644	7	Sololá	701	Sololá	3	Barraneche	5	Mayo	2023-04-05T00:00:00	2024-11-06T03:00:00	5	Humedad	59
23645	7	Sololá	701	Sololá	3	Barraneche	5	Mayo	2023-04-05T00:00:00	2024-11-06T03:00:00	6	Velocidad del viento	6.4
23646	7	Sololá	701	Sololá	3	Barraneche	5	Mayo	2023-04-05T00:00:00	2024-11-06T03:00:00	7	Dirección del viento	6.44
23647	7	Sololá	701	Sololá	3	Barraneche	5	Mayo	2023-04-05T00:00:00	2024-11-06T03:00:00	1	Precipitación	0
23648	7	Sololá	701	Sololá	3	Barraneche	5	Mayo	2023-04-05T00:00:00	2024-11-06T03:00:00	8	Radiación solar	0
23649	7	Sololá	701	Sololá	3	Barraneche	5	Mayo	2023-04-05T00:00:00	2024-11-06T04:00:00	2	Temperatura media	12.9
23650	7	Sololá	701	Sololá	3	Barraneche	5	Mayo	2023-04-05T00:00:00	2024-11-06T04:00:00	4	Temperatura máxima	13.6
23651	7	Sololá	701	Sololá	3	Barraneche	5	Mayo	2023-04-05T00:00:00	2024-11-06T04:00:00	3	Temperatura mínima	12.4
23652	7	Sololá	701	Sololá	3	Barraneche	5	Mayo	2023-04-05T00:00:00	2024-11-06T04:00:00	5	Humedad	64
23653	7	Sololá	701	Sololá	3	Barraneche	5	Mayo	2023-04-05T00:00:00	2024-11-06T04:00:00	6	Velocidad del viento	4.8
23654	7	Sololá	701	Sololá	3	Barraneche	5	Mayo	2023-04-05T00:00:00	2024-11-06T04:00:00	7	Dirección del viento	4.83
23655	7	Sololá	701	Sololá	3	Barraneche	5	Mayo	2023-04-05T00:00:00	2024-11-06T04:00:00	1	Precipitación	0
23656	7	Sololá	701	Sololá	3	Barraneche	5	Mayo	2023-04-05T00:00:00	2024-11-06T04:00:00	8	Radiación solar	0
23657	7	Sololá	701	Sololá	3	Barraneche	5	Mayo	2023-04-05T00:00:00	2024-11-06T05:00:00	2	Temperatura media	14.7
23658	7	Sololá	701	Sololá	3	Barraneche	5	Mayo	2023-04-05T00:00:00	2024-11-06T05:00:00	4	Temperatura máxima	15.8
23659	7	Sololá	701	Sololá	3	Barraneche	5	Mayo	2023-04-05T00:00:00	2024-11-06T05:00:00	3	Temperatura mínima	12.9
23660	7	Sololá	701	Sololá	3	Barraneche	5	Mayo	2023-04-05T00:00:00	2024-11-06T05:00:00	5	Humedad	56
23661	7	Sololá	701	Sololá	3	Barraneche	5	Mayo	2023-04-05T00:00:00	2024-11-06T05:00:00	6	Velocidad del viento	6.4
23662	7	Sololá	701	Sololá	3	Barraneche	5	Mayo	2023-04-05T00:00:00	2024-11-06T05:00:00	7	Dirección del viento	6.44
23663	7	Sololá	701	Sololá	3	Barraneche	5	Mayo	2023-04-05T00:00:00	2024-11-06T05:00:00	1	Precipitación	0
23664	7	Sololá	701	Sololá	3	Barraneche	5	Mayo	2023-04-05T00:00:00	2024-11-06T05:00:00	8	Radiación solar	0
23665	7	Sololá	701	Sololá	3	Barraneche	5	Mayo	2023-04-05T00:00:00	2024-11-06T06:00:00	2	Temperatura media	12.7
23666	7	Sololá	701	Sololá	3	Barraneche	5	Mayo	2023-04-05T00:00:00	2024-11-06T06:00:00	4	Temperatura máxima	14.7
23667	7	Sololá	701	Sololá	3	Barraneche	5	Mayo	2023-04-05T00:00:00	2024-11-06T06:00:00	3	Temperatura mínima	12.2
23668	7	Sololá	701	Sololá	3	Barraneche	5	Mayo	2023-04-05T00:00:00	2024-11-06T06:00:00	5	Humedad	64
23669	7	Sololá	701	Sololá	3	Barraneche	5	Mayo	2023-04-05T00:00:00	2024-11-06T06:00:00	6	Velocidad del viento	3.2
23670	7	Sololá	701	Sololá	3	Barraneche	5	Mayo	2023-04-05T00:00:00	2024-11-06T06:00:00	7	Dirección del viento	3.22
23671	7	Sololá	701	Sololá	3	Barraneche	5	Mayo	2023-04-05T00:00:00	2024-11-06T06:00:00	1	Precipitación	0
23672	7	Sololá	701	Sololá	3	Barraneche	5	Mayo	2023-04-05T00:00:00	2024-11-06T06:00:00	8	Radiación solar	8
23673	7	Sololá	701	Sololá	3	Barraneche	5	Mayo	2023-04-05T00:00:00	2024-11-06T07:00:00	2	Temperatura media	14.3
23674	7	Sololá	701	Sololá	3	Barraneche	5	Mayo	2023-04-05T00:00:00	2024-11-06T07:00:00	4	Temperatura máxima	14.3
23675	7	Sololá	701	Sololá	3	Barraneche	5	Mayo	2023-04-05T00:00:00	2024-11-06T07:00:00	3	Temperatura mínima	12.7
23676	7	Sololá	701	Sololá	3	Barraneche	5	Mayo	2023-04-05T00:00:00	2024-11-06T07:00:00	5	Humedad	63
23677	7	Sololá	701	Sololá	3	Barraneche	5	Mayo	2023-04-05T00:00:00	2024-11-06T07:00:00	6	Velocidad del viento	3.2
23678	7	Sololá	701	Sololá	3	Barraneche	5	Mayo	2023-04-05T00:00:00	2024-11-06T07:00:00	7	Dirección del viento	3.22
23679	7	Sololá	701	Sololá	3	Barraneche	5	Mayo	2023-04-05T00:00:00	2024-11-06T07:00:00	1	Precipitación	0
23680	7	Sololá	701	Sololá	3	Barraneche	5	Mayo	2023-04-05T00:00:00	2024-11-06T07:00:00	8	Radiación solar	98
23681	7	Sololá	701	Sololá	3	Barraneche	5	Mayo	2023-04-05T00:00:00	2024-11-06T08:00:00	2	Temperatura media	17.9
23682	7	Sololá	701	Sololá	3	Barraneche	5	Mayo	2023-04-05T00:00:00	2024-11-06T08:00:00	4	Temperatura máxima	17.9
23683	7	Sololá	701	Sololá	3	Barraneche	5	Mayo	2023-04-05T00:00:00	2024-11-06T08:00:00	3	Temperatura mínima	14.3
23684	7	Sololá	701	Sololá	3	Barraneche	5	Mayo	2023-04-05T00:00:00	2024-11-06T08:00:00	5	Humedad	53
23685	7	Sololá	701	Sololá	3	Barraneche	5	Mayo	2023-04-05T00:00:00	2024-11-06T08:00:00	6	Velocidad del viento	3.2
23686	7	Sololá	701	Sololá	3	Barraneche	5	Mayo	2023-04-05T00:00:00	2024-11-06T08:00:00	7	Dirección del viento	3.22
23687	7	Sololá	701	Sololá	3	Barraneche	5	Mayo	2023-04-05T00:00:00	2024-11-06T08:00:00	1	Precipitación	0
23688	7	Sololá	701	Sololá	3	Barraneche	5	Mayo	2023-04-05T00:00:00	2024-11-06T08:00:00	8	Radiación solar	377
23689	7	Sololá	701	Sololá	3	Barraneche	5	Mayo	2023-04-05T00:00:00	2024-11-06T09:00:00	2	Temperatura media	18.8
23690	7	Sololá	701	Sololá	3	Barraneche	5	Mayo	2023-04-05T00:00:00	2024-11-06T09:00:00	4	Temperatura máxima	19.2
23691	7	Sololá	701	Sololá	3	Barraneche	5	Mayo	2023-04-05T00:00:00	2024-11-06T09:00:00	3	Temperatura mínima	17.9
23692	7	Sololá	701	Sololá	3	Barraneche	5	Mayo	2023-04-05T00:00:00	2024-11-06T09:00:00	5	Humedad	53
23693	7	Sololá	701	Sololá	3	Barraneche	5	Mayo	2023-04-05T00:00:00	2024-11-06T09:00:00	6	Velocidad del viento	4.8
23694	7	Sololá	701	Sololá	3	Barraneche	5	Mayo	2023-04-05T00:00:00	2024-11-06T09:00:00	7	Dirección del viento	4.83
23695	7	Sololá	701	Sololá	3	Barraneche	5	Mayo	2023-04-05T00:00:00	2024-11-06T09:00:00	1	Precipitación	0
23696	7	Sololá	701	Sololá	3	Barraneche	5	Mayo	2023-04-05T00:00:00	2024-11-06T09:00:00	8	Radiación solar	599
23697	7	Sololá	701	Sololá	3	Barraneche	5	Mayo	2023-04-05T00:00:00	2024-11-06T10:00:00	2	Temperatura media	20.1
23698	7	Sololá	701	Sololá	3	Barraneche	5	Mayo	2023-04-05T00:00:00	2024-11-06T10:00:00	4	Temperatura máxima	20.1
23699	7	Sololá	701	Sololá	3	Barraneche	5	Mayo	2023-04-05T00:00:00	2024-11-06T10:00:00	3	Temperatura mínima	18.8
23700	7	Sololá	701	Sololá	3	Barraneche	5	Mayo	2023-04-05T00:00:00	2024-11-06T10:00:00	5	Humedad	48
23701	7	Sololá	701	Sololá	3	Barraneche	5	Mayo	2023-04-05T00:00:00	2024-11-06T10:00:00	6	Velocidad del viento	8
23702	7	Sololá	701	Sololá	3	Barraneche	5	Mayo	2023-04-05T00:00:00	2024-11-06T10:00:00	7	Dirección del viento	8.05
23703	7	Sololá	701	Sololá	3	Barraneche	5	Mayo	2023-04-05T00:00:00	2024-11-06T10:00:00	1	Precipitación	0
23704	7	Sololá	701	Sololá	3	Barraneche	5	Mayo	2023-04-05T00:00:00	2024-11-06T10:00:00	8	Radiación solar	807
23705	7	Sololá	701	Sololá	3	Barraneche	5	Mayo	2023-04-05T00:00:00	2024-11-06T11:00:00	2	Temperatura media	20.4
23706	7	Sololá	701	Sololá	3	Barraneche	5	Mayo	2023-04-05T00:00:00	2024-11-06T11:00:00	4	Temperatura máxima	20.8
23707	7	Sololá	701	Sololá	3	Barraneche	5	Mayo	2023-04-05T00:00:00	2024-11-06T11:00:00	3	Temperatura mínima	20
23708	7	Sololá	701	Sololá	3	Barraneche	5	Mayo	2023-04-05T00:00:00	2024-11-06T11:00:00	5	Humedad	48
23709	7	Sololá	701	Sololá	3	Barraneche	5	Mayo	2023-04-05T00:00:00	2024-11-06T11:00:00	6	Velocidad del viento	11.3
23710	7	Sololá	701	Sololá	3	Barraneche	5	Mayo	2023-04-05T00:00:00	2024-11-06T11:00:00	7	Dirección del viento	11.27
23711	7	Sololá	701	Sololá	3	Barraneche	5	Mayo	2023-04-05T00:00:00	2024-11-06T11:00:00	1	Precipitación	0
23712	7	Sololá	701	Sololá	3	Barraneche	5	Mayo	2023-04-05T00:00:00	2024-11-06T11:00:00	8	Radiación solar	957
23713	7	Sololá	701	Sololá	3	Barraneche	5	Mayo	2023-04-05T00:00:00	2024-11-06T12:00:00	2	Temperatura media	20.6
23714	7	Sololá	701	Sololá	3	Barraneche	5	Mayo	2023-04-05T00:00:00	2024-11-06T12:00:00	4	Temperatura máxima	20.7
23715	7	Sololá	701	Sololá	3	Barraneche	5	Mayo	2023-04-05T00:00:00	2024-11-06T12:00:00	3	Temperatura mínima	20.1
23716	7	Sololá	701	Sololá	3	Barraneche	5	Mayo	2023-04-05T00:00:00	2024-11-06T12:00:00	5	Humedad	46
23717	7	Sololá	701	Sololá	3	Barraneche	5	Mayo	2023-04-05T00:00:00	2024-11-06T12:00:00	6	Velocidad del viento	14.5
23718	7	Sololá	701	Sololá	3	Barraneche	5	Mayo	2023-04-05T00:00:00	2024-11-06T12:00:00	7	Dirección del viento	14.48
23719	7	Sololá	701	Sololá	3	Barraneche	5	Mayo	2023-04-05T00:00:00	2024-11-06T12:00:00	1	Precipitación	0
23720	7	Sololá	701	Sololá	3	Barraneche	5	Mayo	2023-04-05T00:00:00	2024-11-06T12:00:00	8	Radiación solar	1018
23721	7	Sololá	701	Sololá	3	Barraneche	5	Mayo	2023-04-05T00:00:00	2024-11-06T13:00:00	2	Temperatura media	20.7
23722	7	Sololá	701	Sololá	3	Barraneche	5	Mayo	2023-04-05T00:00:00	2024-11-06T13:00:00	4	Temperatura máxima	20.9
23723	7	Sololá	701	Sololá	3	Barraneche	5	Mayo	2023-04-05T00:00:00	2024-11-06T13:00:00	3	Temperatura mínima	20.2
23724	7	Sololá	701	Sololá	3	Barraneche	5	Mayo	2023-04-05T00:00:00	2024-11-06T13:00:00	5	Humedad	50
23725	7	Sololá	701	Sololá	3	Barraneche	5	Mayo	2023-04-05T00:00:00	2024-11-06T13:00:00	6	Velocidad del viento	11.3
23726	7	Sololá	701	Sololá	3	Barraneche	5	Mayo	2023-04-05T00:00:00	2024-11-06T13:00:00	7	Dirección del viento	11.27
23727	7	Sololá	701	Sololá	3	Barraneche	5	Mayo	2023-04-05T00:00:00	2024-11-06T13:00:00	1	Precipitación	0
23728	7	Sololá	701	Sololá	3	Barraneche	5	Mayo	2023-04-05T00:00:00	2024-11-06T13:00:00	8	Radiación solar	618
23729	7	Sololá	701	Sololá	3	Barraneche	5	Mayo	2023-04-05T00:00:00	2024-11-06T14:00:00	2	Temperatura media	20.9
23730	7	Sololá	701	Sololá	3	Barraneche	5	Mayo	2023-04-05T00:00:00	2024-11-06T14:00:00	4	Temperatura máxima	20.9
23731	7	Sololá	701	Sololá	3	Barraneche	5	Mayo	2023-04-05T00:00:00	2024-11-06T14:00:00	3	Temperatura mínima	20.1
23732	7	Sololá	701	Sololá	3	Barraneche	5	Mayo	2023-04-05T00:00:00	2024-11-06T14:00:00	5	Humedad	47
23733	7	Sololá	701	Sololá	3	Barraneche	5	Mayo	2023-04-05T00:00:00	2024-11-06T14:00:00	6	Velocidad del viento	11.3
23734	7	Sololá	701	Sololá	3	Barraneche	5	Mayo	2023-04-05T00:00:00	2024-11-06T14:00:00	7	Dirección del viento	11.27
23735	7	Sololá	701	Sololá	3	Barraneche	5	Mayo	2023-04-05T00:00:00	2024-11-06T14:00:00	1	Precipitación	0
23736	7	Sololá	701	Sololá	3	Barraneche	5	Mayo	2023-04-05T00:00:00	2024-11-06T14:00:00	8	Radiación solar	648
23737	7	Sololá	701	Sololá	3	Barraneche	5	Mayo	2023-04-05T00:00:00	2024-11-06T15:00:00	2	Temperatura media	20.9
23738	7	Sololá	701	Sololá	3	Barraneche	5	Mayo	2023-04-05T00:00:00	2024-11-06T15:00:00	4	Temperatura máxima	21.7
23739	7	Sololá	701	Sololá	3	Barraneche	5	Mayo	2023-04-05T00:00:00	2024-11-06T15:00:00	3	Temperatura mínima	20.5
23740	7	Sololá	701	Sololá	3	Barraneche	5	Mayo	2023-04-05T00:00:00	2024-11-06T15:00:00	5	Humedad	49
23741	7	Sololá	701	Sololá	3	Barraneche	5	Mayo	2023-04-05T00:00:00	2024-11-06T15:00:00	6	Velocidad del viento	11.3
23742	7	Sololá	701	Sololá	3	Barraneche	5	Mayo	2023-04-05T00:00:00	2024-11-06T15:00:00	7	Dirección del viento	11.27
23743	7	Sololá	701	Sololá	3	Barraneche	5	Mayo	2023-04-05T00:00:00	2024-11-06T15:00:00	1	Precipitación	0
23744	7	Sololá	701	Sololá	3	Barraneche	5	Mayo	2023-04-05T00:00:00	2024-11-06T15:00:00	8	Radiación solar	586
23745	7	Sololá	701	Sololá	3	Barraneche	5	Mayo	2023-04-05T00:00:00	2024-11-06T16:00:00	2	Temperatura media	19.2
23746	7	Sololá	701	Sololá	3	Barraneche	5	Mayo	2023-04-05T00:00:00	2024-11-06T16:00:00	4	Temperatura máxima	20.9
23747	7	Sololá	701	Sololá	3	Barraneche	5	Mayo	2023-04-05T00:00:00	2024-11-06T16:00:00	3	Temperatura mínima	19.2
23748	7	Sololá	701	Sololá	3	Barraneche	5	Mayo	2023-04-05T00:00:00	2024-11-06T16:00:00	5	Humedad	56
23749	7	Sololá	701	Sololá	3	Barraneche	5	Mayo	2023-04-05T00:00:00	2024-11-06T16:00:00	6	Velocidad del viento	16.1
23750	7	Sololá	701	Sololá	3	Barraneche	5	Mayo	2023-04-05T00:00:00	2024-11-06T16:00:00	7	Dirección del viento	16.09
23751	7	Sololá	701	Sololá	3	Barraneche	5	Mayo	2023-04-05T00:00:00	2024-11-06T16:00:00	1	Precipitación	0
23752	7	Sololá	701	Sololá	3	Barraneche	5	Mayo	2023-04-05T00:00:00	2024-11-06T16:00:00	8	Radiación solar	410
23753	7	Sololá	701	Sololá	3	Barraneche	5	Mayo	2023-04-05T00:00:00	2024-11-06T17:00:00	2	Temperatura media	18.4
23754	7	Sololá	701	Sololá	3	Barraneche	5	Mayo	2023-04-05T00:00:00	2024-11-06T17:00:00	4	Temperatura máxima	19.4
23755	7	Sololá	701	Sololá	3	Barraneche	5	Mayo	2023-04-05T00:00:00	2024-11-06T17:00:00	3	Temperatura mínima	18.4
23756	7	Sololá	701	Sololá	3	Barraneche	5	Mayo	2023-04-05T00:00:00	2024-11-06T17:00:00	5	Humedad	57
23757	7	Sololá	701	Sololá	3	Barraneche	5	Mayo	2023-04-05T00:00:00	2024-11-06T17:00:00	6	Velocidad del viento	14.5
23758	7	Sololá	701	Sololá	3	Barraneche	5	Mayo	2023-04-05T00:00:00	2024-11-06T17:00:00	7	Dirección del viento	14.48
23759	7	Sololá	701	Sololá	3	Barraneche	5	Mayo	2023-04-05T00:00:00	2024-11-06T17:00:00	1	Precipitación	0
23760	7	Sololá	701	Sololá	3	Barraneche	5	Mayo	2023-04-05T00:00:00	2024-11-06T17:00:00	8	Radiación solar	100
23761	7	Sololá	701	Sololá	3	Barraneche	5	Mayo	2023-04-05T00:00:00	2024-11-06T18:00:00	2	Temperatura media	17.9
23762	7	Sololá	701	Sololá	3	Barraneche	5	Mayo	2023-04-05T00:00:00	2024-11-06T18:00:00	4	Temperatura máxima	18.4
23763	7	Sololá	701	Sololá	3	Barraneche	5	Mayo	2023-04-05T00:00:00	2024-11-06T18:00:00	3	Temperatura mínima	17.9
23764	7	Sololá	701	Sololá	3	Barraneche	5	Mayo	2023-04-05T00:00:00	2024-11-06T18:00:00	5	Humedad	56
23765	7	Sololá	701	Sololá	3	Barraneche	5	Mayo	2023-04-05T00:00:00	2024-11-06T18:00:00	6	Velocidad del viento	11.3
23766	7	Sololá	701	Sololá	3	Barraneche	5	Mayo	2023-04-05T00:00:00	2024-11-06T18:00:00	7	Dirección del viento	11.27
23767	7	Sololá	701	Sololá	3	Barraneche	5	Mayo	2023-04-05T00:00:00	2024-11-06T18:00:00	1	Precipitación	0
23768	7	Sololá	701	Sololá	3	Barraneche	5	Mayo	2023-04-05T00:00:00	2024-11-06T18:00:00	8	Radiación solar	49
23769	7	Sololá	701	Sololá	3	Barraneche	5	Mayo	2023-04-05T00:00:00	2024-11-06T19:00:00	2	Temperatura media	17.4
23770	7	Sololá	701	Sololá	3	Barraneche	5	Mayo	2023-04-05T00:00:00	2024-11-06T19:00:00	4	Temperatura máxima	18
23771	7	Sololá	701	Sololá	3	Barraneche	5	Mayo	2023-04-05T00:00:00	2024-11-06T19:00:00	3	Temperatura mínima	17.4
23772	7	Sololá	701	Sololá	3	Barraneche	5	Mayo	2023-04-05T00:00:00	2024-11-06T19:00:00	5	Humedad	59
23773	7	Sololá	701	Sololá	3	Barraneche	5	Mayo	2023-04-05T00:00:00	2024-11-06T19:00:00	6	Velocidad del viento	14.5
23774	7	Sololá	701	Sololá	3	Barraneche	5	Mayo	2023-04-05T00:00:00	2024-11-06T19:00:00	7	Dirección del viento	14.48
23775	7	Sololá	701	Sololá	3	Barraneche	5	Mayo	2023-04-05T00:00:00	2024-11-06T19:00:00	1	Precipitación	0
23776	7	Sololá	701	Sololá	3	Barraneche	5	Mayo	2023-04-05T00:00:00	2024-11-06T19:00:00	8	Radiación solar	0
23777	7	Sololá	701	Sololá	3	Barraneche	5	Mayo	2023-04-05T00:00:00	2024-11-06T20:00:00	2	Temperatura media	17
23778	7	Sololá	701	Sololá	3	Barraneche	5	Mayo	2023-04-05T00:00:00	2024-11-06T20:00:00	4	Temperatura máxima	17.4
23779	7	Sololá	701	Sololá	3	Barraneche	5	Mayo	2023-04-05T00:00:00	2024-11-06T20:00:00	3	Temperatura mínima	16.9
23780	7	Sololá	701	Sololá	3	Barraneche	5	Mayo	2023-04-05T00:00:00	2024-11-06T20:00:00	5	Humedad	62
23781	7	Sololá	701	Sololá	3	Barraneche	5	Mayo	2023-04-05T00:00:00	2024-11-06T20:00:00	6	Velocidad del viento	14.5
23782	7	Sololá	701	Sololá	3	Barraneche	5	Mayo	2023-04-05T00:00:00	2024-11-06T20:00:00	7	Dirección del viento	14.48
23783	7	Sololá	701	Sololá	3	Barraneche	5	Mayo	2023-04-05T00:00:00	2024-11-06T20:00:00	1	Precipitación	0
23784	7	Sololá	701	Sololá	3	Barraneche	5	Mayo	2023-04-05T00:00:00	2024-11-06T20:00:00	8	Radiación solar	0
23785	7	Sololá	701	Sololá	3	Barraneche	5	Mayo	2023-04-05T00:00:00	2024-11-06T21:00:00	2	Temperatura media	16.4
23786	7	Sololá	701	Sololá	3	Barraneche	5	Mayo	2023-04-05T00:00:00	2024-11-06T21:00:00	4	Temperatura máxima	17
23787	7	Sololá	701	Sololá	3	Barraneche	5	Mayo	2023-04-05T00:00:00	2024-11-06T21:00:00	3	Temperatura mínima	16.3
23788	7	Sololá	701	Sololá	3	Barraneche	5	Mayo	2023-04-05T00:00:00	2024-11-06T21:00:00	5	Humedad	61
23789	7	Sololá	701	Sololá	3	Barraneche	5	Mayo	2023-04-05T00:00:00	2024-11-06T21:00:00	6	Velocidad del viento	12.9
23790	7	Sololá	701	Sololá	3	Barraneche	5	Mayo	2023-04-05T00:00:00	2024-11-06T21:00:00	7	Dirección del viento	12.87
23791	7	Sololá	701	Sololá	3	Barraneche	5	Mayo	2023-04-05T00:00:00	2024-11-06T21:00:00	1	Precipitación	0
23792	7	Sololá	701	Sololá	3	Barraneche	5	Mayo	2023-04-05T00:00:00	2024-11-06T21:00:00	8	Radiación solar	0
23793	7	Sololá	701	Sololá	3	Barraneche	5	Mayo	2023-04-05T00:00:00	2024-11-06T22:00:00	2	Temperatura media	16.1
23794	7	Sololá	701	Sololá	3	Barraneche	5	Mayo	2023-04-05T00:00:00	2024-11-06T22:00:00	4	Temperatura máxima	16.5
23795	7	Sololá	701	Sololá	3	Barraneche	5	Mayo	2023-04-05T00:00:00	2024-11-06T22:00:00	3	Temperatura mínima	16.1
23796	7	Sololá	701	Sololá	3	Barraneche	5	Mayo	2023-04-05T00:00:00	2024-11-06T22:00:00	5	Humedad	60
23797	7	Sololá	701	Sololá	3	Barraneche	5	Mayo	2023-04-05T00:00:00	2024-11-06T22:00:00	6	Velocidad del viento	11.3
23798	7	Sololá	701	Sololá	3	Barraneche	5	Mayo	2023-04-05T00:00:00	2024-11-06T22:00:00	7	Dirección del viento	11.27
23799	7	Sololá	701	Sololá	3	Barraneche	5	Mayo	2023-04-05T00:00:00	2024-11-06T22:00:00	1	Precipitación	0
23800	7	Sololá	701	Sololá	3	Barraneche	5	Mayo	2023-04-05T00:00:00	2024-11-06T22:00:00	8	Radiación solar	0
23801	7	Sololá	701	Sololá	3	Barraneche	5	Mayo	2023-04-05T00:00:00	2024-11-06T23:00:00	2	Temperatura media	15.7
23802	7	Sololá	701	Sololá	3	Barraneche	5	Mayo	2023-04-05T00:00:00	2024-11-06T23:00:00	4	Temperatura máxima	16.1
23803	7	Sololá	701	Sololá	3	Barraneche	5	Mayo	2023-04-05T00:00:00	2024-11-06T23:00:00	3	Temperatura mínima	15.6
23804	7	Sololá	701	Sololá	3	Barraneche	5	Mayo	2023-04-05T00:00:00	2024-11-06T23:00:00	5	Humedad	61
23805	7	Sololá	701	Sololá	3	Barraneche	5	Mayo	2023-04-05T00:00:00	2024-11-06T23:00:00	6	Velocidad del viento	9.7
23806	7	Sololá	701	Sololá	3	Barraneche	5	Mayo	2023-04-05T00:00:00	2024-11-06T23:00:00	7	Dirección del viento	9.66
23807	7	Sololá	701	Sololá	3	Barraneche	5	Mayo	2023-04-05T00:00:00	2024-11-06T23:00:00	1	Precipitación	0
23808	7	Sololá	701	Sololá	3	Barraneche	5	Mayo	2023-04-05T00:00:00	2024-11-06T23:00:00	8	Radiación solar	0
23809	7	Sololá	701	Sololá	3	Barraneche	5	Mayo	2023-05-05T00:00:00	2024-11-06T00:00:00	2	Temperatura media	15.9
23810	7	Sololá	701	Sololá	3	Barraneche	5	Mayo	2023-05-05T00:00:00	2024-11-06T00:00:00	4	Temperatura máxima	16.3
23811	7	Sololá	701	Sololá	3	Barraneche	5	Mayo	2023-05-05T00:00:00	2024-11-06T00:00:00	3	Temperatura mínima	15.7
23812	7	Sololá	701	Sololá	3	Barraneche	5	Mayo	2023-05-05T00:00:00	2024-11-06T00:00:00	5	Humedad	55
23813	7	Sololá	701	Sololá	3	Barraneche	5	Mayo	2023-05-05T00:00:00	2024-11-06T00:00:00	6	Velocidad del viento	11.3
23814	7	Sololá	701	Sololá	3	Barraneche	5	Mayo	2023-05-05T00:00:00	2024-11-06T00:00:00	7	Dirección del viento	11.27
23815	7	Sololá	701	Sololá	3	Barraneche	5	Mayo	2023-05-05T00:00:00	2024-11-06T00:00:00	1	Precipitación	0
23816	7	Sololá	701	Sololá	3	Barraneche	5	Mayo	2023-05-05T00:00:00	2024-11-06T00:00:00	8	Radiación solar	0
23817	7	Sololá	701	Sololá	3	Barraneche	5	Mayo	2023-05-05T00:00:00	2024-11-06T01:00:00	2	Temperatura media	14.9
23818	7	Sololá	701	Sololá	3	Barraneche	5	Mayo	2023-05-05T00:00:00	2024-11-06T01:00:00	4	Temperatura máxima	16.2
23819	7	Sololá	701	Sololá	3	Barraneche	5	Mayo	2023-05-05T00:00:00	2024-11-06T01:00:00	3	Temperatura mínima	14.9
23820	7	Sololá	701	Sololá	3	Barraneche	5	Mayo	2023-05-05T00:00:00	2024-11-06T01:00:00	5	Humedad	52
23821	7	Sololá	701	Sololá	3	Barraneche	5	Mayo	2023-05-05T00:00:00	2024-11-06T01:00:00	6	Velocidad del viento	4.8
23822	7	Sololá	701	Sololá	3	Barraneche	5	Mayo	2023-05-05T00:00:00	2024-11-06T01:00:00	7	Dirección del viento	4.83
23823	7	Sololá	701	Sololá	3	Barraneche	5	Mayo	2023-05-05T00:00:00	2024-11-06T01:00:00	1	Precipitación	0
23824	7	Sololá	701	Sololá	3	Barraneche	5	Mayo	2023-05-05T00:00:00	2024-11-06T01:00:00	8	Radiación solar	0
23825	7	Sololá	701	Sololá	3	Barraneche	5	Mayo	2023-05-05T00:00:00	2024-11-06T02:00:00	2	Temperatura media	15.4
23826	7	Sololá	701	Sololá	3	Barraneche	5	Mayo	2023-05-05T00:00:00	2024-11-06T02:00:00	4	Temperatura máxima	15.4
23827	7	Sololá	701	Sololá	3	Barraneche	5	Mayo	2023-05-05T00:00:00	2024-11-06T02:00:00	3	Temperatura mínima	13.7
23828	7	Sololá	701	Sololá	3	Barraneche	5	Mayo	2023-05-05T00:00:00	2024-11-06T02:00:00	5	Humedad	47
23829	7	Sololá	701	Sololá	3	Barraneche	5	Mayo	2023-05-05T00:00:00	2024-11-06T02:00:00	6	Velocidad del viento	4.8
23830	7	Sololá	701	Sololá	3	Barraneche	5	Mayo	2023-05-05T00:00:00	2024-11-06T02:00:00	7	Dirección del viento	4.83
23831	7	Sololá	701	Sololá	3	Barraneche	5	Mayo	2023-05-05T00:00:00	2024-11-06T02:00:00	1	Precipitación	0
23832	7	Sololá	701	Sololá	3	Barraneche	5	Mayo	2023-05-05T00:00:00	2024-11-06T02:00:00	8	Radiación solar	0
23833	7	Sololá	701	Sololá	3	Barraneche	5	Mayo	2023-05-05T00:00:00	2024-11-06T03:00:00	2	Temperatura media	15.6
23834	7	Sololá	701	Sololá	3	Barraneche	5	Mayo	2023-05-05T00:00:00	2024-11-06T03:00:00	4	Temperatura máxima	15.6
23835	7	Sololá	701	Sololá	3	Barraneche	5	Mayo	2023-05-05T00:00:00	2024-11-06T03:00:00	3	Temperatura mínima	15.3
23836	7	Sololá	701	Sololá	3	Barraneche	5	Mayo	2023-05-05T00:00:00	2024-11-06T03:00:00	5	Humedad	40
23837	7	Sololá	701	Sololá	3	Barraneche	5	Mayo	2023-05-05T00:00:00	2024-11-06T03:00:00	6	Velocidad del viento	12.9
23838	7	Sololá	701	Sololá	3	Barraneche	5	Mayo	2023-05-05T00:00:00	2024-11-06T03:00:00	7	Dirección del viento	12.87
23839	7	Sololá	701	Sololá	3	Barraneche	5	Mayo	2023-05-05T00:00:00	2024-11-06T03:00:00	1	Precipitación	0
23840	7	Sololá	701	Sololá	3	Barraneche	5	Mayo	2023-05-05T00:00:00	2024-11-06T03:00:00	8	Radiación solar	0
23841	7	Sololá	701	Sololá	3	Barraneche	5	Mayo	2023-05-05T00:00:00	2024-11-06T04:00:00	2	Temperatura media	15
23842	7	Sololá	701	Sololá	3	Barraneche	5	Mayo	2023-05-05T00:00:00	2024-11-06T04:00:00	4	Temperatura máxima	15.6
23843	7	Sololá	701	Sololá	3	Barraneche	5	Mayo	2023-05-05T00:00:00	2024-11-06T04:00:00	3	Temperatura mínima	14.8
23844	7	Sololá	701	Sololá	3	Barraneche	5	Mayo	2023-05-05T00:00:00	2024-11-06T04:00:00	5	Humedad	44
23845	7	Sololá	701	Sololá	3	Barraneche	5	Mayo	2023-05-05T00:00:00	2024-11-06T04:00:00	6	Velocidad del viento	8
23846	7	Sololá	701	Sololá	3	Barraneche	5	Mayo	2023-05-05T00:00:00	2024-11-06T04:00:00	7	Dirección del viento	8.05
23847	7	Sololá	701	Sololá	3	Barraneche	5	Mayo	2023-05-05T00:00:00	2024-11-06T04:00:00	1	Precipitación	0
23848	7	Sololá	701	Sololá	3	Barraneche	5	Mayo	2023-05-05T00:00:00	2024-11-06T04:00:00	8	Radiación solar	0
23849	7	Sololá	701	Sololá	3	Barraneche	5	Mayo	2023-05-05T00:00:00	2024-11-06T05:00:00	2	Temperatura media	15.9
23850	7	Sololá	701	Sololá	3	Barraneche	5	Mayo	2023-05-05T00:00:00	2024-11-06T05:00:00	4	Temperatura máxima	16.4
23851	7	Sololá	701	Sololá	3	Barraneche	5	Mayo	2023-05-05T00:00:00	2024-11-06T05:00:00	3	Temperatura mínima	14.9
23852	7	Sololá	701	Sololá	3	Barraneche	5	Mayo	2023-05-05T00:00:00	2024-11-06T05:00:00	5	Humedad	47
23853	7	Sololá	701	Sololá	3	Barraneche	5	Mayo	2023-05-05T00:00:00	2024-11-06T05:00:00	6	Velocidad del viento	16.1
23854	7	Sololá	701	Sololá	3	Barraneche	5	Mayo	2023-05-05T00:00:00	2024-11-06T05:00:00	7	Dirección del viento	16.09
23855	7	Sololá	701	Sololá	3	Barraneche	5	Mayo	2023-05-05T00:00:00	2024-11-06T05:00:00	1	Precipitación	0
23856	7	Sololá	701	Sololá	3	Barraneche	5	Mayo	2023-05-05T00:00:00	2024-11-06T05:00:00	8	Radiación solar	0
23857	7	Sololá	701	Sololá	3	Barraneche	5	Mayo	2023-05-05T00:00:00	2024-11-06T06:00:00	2	Temperatura media	13.7
23858	7	Sololá	701	Sololá	3	Barraneche	5	Mayo	2023-05-05T00:00:00	2024-11-06T06:00:00	4	Temperatura máxima	15.9
23859	7	Sololá	701	Sololá	3	Barraneche	5	Mayo	2023-05-05T00:00:00	2024-11-06T06:00:00	3	Temperatura mínima	13.6
23860	7	Sololá	701	Sololá	3	Barraneche	5	Mayo	2023-05-05T00:00:00	2024-11-06T06:00:00	5	Humedad	52
23861	7	Sololá	701	Sololá	3	Barraneche	5	Mayo	2023-05-05T00:00:00	2024-11-06T06:00:00	6	Velocidad del viento	6.4
23862	7	Sololá	701	Sololá	3	Barraneche	5	Mayo	2023-05-05T00:00:00	2024-11-06T06:00:00	7	Dirección del viento	6.44
23863	7	Sololá	701	Sololá	3	Barraneche	5	Mayo	2023-05-05T00:00:00	2024-11-06T06:00:00	1	Precipitación	0
23864	7	Sololá	701	Sololá	3	Barraneche	5	Mayo	2023-05-05T00:00:00	2024-11-06T06:00:00	8	Radiación solar	6
23865	7	Sololá	701	Sololá	3	Barraneche	5	Mayo	2023-05-05T00:00:00	2024-11-06T07:00:00	2	Temperatura media	17.6
23866	7	Sololá	701	Sololá	3	Barraneche	5	Mayo	2023-05-05T00:00:00	2024-11-06T07:00:00	4	Temperatura máxima	17.6
23867	7	Sololá	701	Sololá	3	Barraneche	5	Mayo	2023-05-05T00:00:00	2024-11-06T07:00:00	3	Temperatura mínima	12.8
23868	7	Sololá	701	Sololá	3	Barraneche	5	Mayo	2023-05-05T00:00:00	2024-11-06T07:00:00	5	Humedad	37
23869	7	Sololá	701	Sololá	3	Barraneche	5	Mayo	2023-05-05T00:00:00	2024-11-06T07:00:00	6	Velocidad del viento	4.8
23870	7	Sololá	701	Sololá	3	Barraneche	5	Mayo	2023-05-05T00:00:00	2024-11-06T07:00:00	7	Dirección del viento	4.83
23871	7	Sololá	701	Sololá	3	Barraneche	5	Mayo	2023-05-05T00:00:00	2024-11-06T07:00:00	1	Precipitación	0
23872	7	Sololá	701	Sololá	3	Barraneche	5	Mayo	2023-05-05T00:00:00	2024-11-06T07:00:00	8	Radiación solar	115
23873	7	Sololá	701	Sololá	3	Barraneche	5	Mayo	2023-05-05T00:00:00	2024-11-06T08:00:00	2	Temperatura media	19.2
23874	7	Sololá	701	Sololá	3	Barraneche	5	Mayo	2023-05-05T00:00:00	2024-11-06T08:00:00	4	Temperatura máxima	19.2
23875	7	Sololá	701	Sololá	3	Barraneche	5	Mayo	2023-05-05T00:00:00	2024-11-06T08:00:00	3	Temperatura mínima	17.6
23876	7	Sololá	701	Sololá	3	Barraneche	5	Mayo	2023-05-05T00:00:00	2024-11-06T08:00:00	5	Humedad	30
23877	7	Sololá	701	Sololá	3	Barraneche	5	Mayo	2023-05-05T00:00:00	2024-11-06T08:00:00	6	Velocidad del viento	17.7
23878	7	Sololá	701	Sololá	3	Barraneche	5	Mayo	2023-05-05T00:00:00	2024-11-06T08:00:00	7	Dirección del viento	17.7
23879	7	Sololá	701	Sololá	3	Barraneche	5	Mayo	2023-05-05T00:00:00	2024-11-06T08:00:00	1	Precipitación	0
23880	7	Sololá	701	Sololá	3	Barraneche	5	Mayo	2023-05-05T00:00:00	2024-11-06T08:00:00	8	Radiación solar	384
23881	7	Sololá	701	Sololá	3	Barraneche	5	Mayo	2023-05-05T00:00:00	2024-11-06T09:00:00	2	Temperatura media	19.7
23882	7	Sololá	701	Sololá	3	Barraneche	5	Mayo	2023-05-05T00:00:00	2024-11-06T09:00:00	4	Temperatura máxima	19.9
23883	7	Sololá	701	Sololá	3	Barraneche	5	Mayo	2023-05-05T00:00:00	2024-11-06T09:00:00	3	Temperatura mínima	18.9
23884	7	Sololá	701	Sololá	3	Barraneche	5	Mayo	2023-05-05T00:00:00	2024-11-06T09:00:00	5	Humedad	31
23885	7	Sololá	701	Sololá	3	Barraneche	5	Mayo	2023-05-05T00:00:00	2024-11-06T09:00:00	6	Velocidad del viento	19.3
23886	7	Sololá	701	Sololá	3	Barraneche	5	Mayo	2023-05-05T00:00:00	2024-11-06T09:00:00	7	Dirección del viento	19.31
23887	7	Sololá	701	Sololá	3	Barraneche	5	Mayo	2023-05-05T00:00:00	2024-11-06T09:00:00	1	Precipitación	0
23888	7	Sololá	701	Sololá	3	Barraneche	5	Mayo	2023-05-05T00:00:00	2024-11-06T09:00:00	8	Radiación solar	634
23889	7	Sololá	701	Sololá	3	Barraneche	5	Mayo	2023-05-05T00:00:00	2024-11-06T10:00:00	2	Temperatura media	19.9
23890	7	Sololá	701	Sololá	3	Barraneche	5	Mayo	2023-05-05T00:00:00	2024-11-06T10:00:00	4	Temperatura máxima	20
23891	7	Sololá	701	Sololá	3	Barraneche	5	Mayo	2023-05-05T00:00:00	2024-11-06T10:00:00	3	Temperatura mínima	19.4
23892	7	Sololá	701	Sololá	3	Barraneche	5	Mayo	2023-05-05T00:00:00	2024-11-06T10:00:00	5	Humedad	32
23893	7	Sololá	701	Sololá	3	Barraneche	5	Mayo	2023-05-05T00:00:00	2024-11-06T10:00:00	6	Velocidad del viento	24.1
23894	7	Sololá	701	Sololá	3	Barraneche	5	Mayo	2023-05-05T00:00:00	2024-11-06T10:00:00	7	Dirección del viento	24.14
23895	7	Sololá	701	Sololá	3	Barraneche	5	Mayo	2023-05-05T00:00:00	2024-11-06T10:00:00	1	Precipitación	0
23896	7	Sololá	701	Sololá	3	Barraneche	5	Mayo	2023-05-05T00:00:00	2024-11-06T10:00:00	8	Radiación solar	830
23897	7	Sololá	701	Sololá	3	Barraneche	5	Mayo	2023-05-05T00:00:00	2024-11-06T11:00:00	2	Temperatura media	20.6
23898	7	Sololá	701	Sololá	3	Barraneche	5	Mayo	2023-05-05T00:00:00	2024-11-06T11:00:00	4	Temperatura máxima	20.7
23899	7	Sololá	701	Sololá	3	Barraneche	5	Mayo	2023-05-05T00:00:00	2024-11-06T11:00:00	3	Temperatura mínima	19.8
23900	7	Sololá	701	Sololá	3	Barraneche	5	Mayo	2023-05-05T00:00:00	2024-11-06T11:00:00	5	Humedad	31
23901	7	Sololá	701	Sololá	3	Barraneche	5	Mayo	2023-05-05T00:00:00	2024-11-06T11:00:00	6	Velocidad del viento	20.9
23902	7	Sololá	701	Sololá	3	Barraneche	5	Mayo	2023-05-05T00:00:00	2024-11-06T11:00:00	7	Dirección del viento	20.92
23903	7	Sololá	701	Sololá	3	Barraneche	5	Mayo	2023-05-05T00:00:00	2024-11-06T11:00:00	1	Precipitación	0
23904	7	Sololá	701	Sololá	3	Barraneche	5	Mayo	2023-05-05T00:00:00	2024-11-06T11:00:00	8	Radiación solar	974
23905	7	Sololá	701	Sololá	3	Barraneche	5	Mayo	2023-05-05T00:00:00	2024-11-06T12:00:00	2	Temperatura media	21.2
23906	7	Sololá	701	Sololá	3	Barraneche	5	Mayo	2023-05-05T00:00:00	2024-11-06T12:00:00	4	Temperatura máxima	21.6
23907	7	Sololá	701	Sololá	3	Barraneche	5	Mayo	2023-05-05T00:00:00	2024-11-06T12:00:00	3	Temperatura mínima	20.6
23908	7	Sololá	701	Sololá	3	Barraneche	5	Mayo	2023-05-05T00:00:00	2024-11-06T12:00:00	5	Humedad	31
23909	7	Sololá	701	Sololá	3	Barraneche	5	Mayo	2023-05-05T00:00:00	2024-11-06T12:00:00	6	Velocidad del viento	16.1
23910	7	Sololá	701	Sololá	3	Barraneche	5	Mayo	2023-05-05T00:00:00	2024-11-06T12:00:00	7	Dirección del viento	16.09
23911	7	Sololá	701	Sololá	3	Barraneche	5	Mayo	2023-05-05T00:00:00	2024-11-06T12:00:00	1	Precipitación	0
23912	7	Sololá	701	Sololá	3	Barraneche	5	Mayo	2023-05-05T00:00:00	2024-11-06T12:00:00	8	Radiación solar	1039
23913	7	Sololá	701	Sololá	3	Barraneche	5	Mayo	2023-05-05T00:00:00	2024-11-06T13:00:00	2	Temperatura media	22.2
23914	7	Sololá	701	Sololá	3	Barraneche	5	Mayo	2023-05-05T00:00:00	2024-11-06T13:00:00	4	Temperatura máxima	22.3
23915	7	Sololá	701	Sololá	3	Barraneche	5	Mayo	2023-05-05T00:00:00	2024-11-06T13:00:00	3	Temperatura mínima	21.2
23916	7	Sololá	701	Sololá	3	Barraneche	5	Mayo	2023-05-05T00:00:00	2024-11-06T13:00:00	5	Humedad	27
23917	7	Sololá	701	Sololá	3	Barraneche	5	Mayo	2023-05-05T00:00:00	2024-11-06T13:00:00	6	Velocidad del viento	14.5
23918	7	Sololá	701	Sololá	3	Barraneche	5	Mayo	2023-05-05T00:00:00	2024-11-06T13:00:00	7	Dirección del viento	14.48
23919	7	Sololá	701	Sololá	3	Barraneche	5	Mayo	2023-05-05T00:00:00	2024-11-06T13:00:00	1	Precipitación	0
23920	7	Sololá	701	Sololá	3	Barraneche	5	Mayo	2023-05-05T00:00:00	2024-11-06T13:00:00	8	Radiación solar	1030
23921	7	Sololá	701	Sololá	3	Barraneche	5	Mayo	2023-05-05T00:00:00	2024-11-06T14:00:00	2	Temperatura media	22.3
23922	7	Sololá	701	Sololá	3	Barraneche	5	Mayo	2023-05-05T00:00:00	2024-11-06T14:00:00	4	Temperatura máxima	22.7
23923	7	Sololá	701	Sololá	3	Barraneche	5	Mayo	2023-05-05T00:00:00	2024-11-06T14:00:00	3	Temperatura mínima	21.7
23924	7	Sololá	701	Sololá	3	Barraneche	5	Mayo	2023-05-05T00:00:00	2024-11-06T14:00:00	5	Humedad	24
23925	7	Sololá	701	Sololá	3	Barraneche	5	Mayo	2023-05-05T00:00:00	2024-11-06T14:00:00	6	Velocidad del viento	16.1
23926	7	Sololá	701	Sololá	3	Barraneche	5	Mayo	2023-05-05T00:00:00	2024-11-06T14:00:00	7	Dirección del viento	16.09
23927	7	Sololá	701	Sololá	3	Barraneche	5	Mayo	2023-05-05T00:00:00	2024-11-06T14:00:00	1	Precipitación	0
23928	7	Sololá	701	Sololá	3	Barraneche	5	Mayo	2023-05-05T00:00:00	2024-11-06T14:00:00	8	Radiación solar	966
23929	7	Sololá	701	Sololá	3	Barraneche	5	Mayo	2023-05-05T00:00:00	2024-11-06T15:00:00	2	Temperatura media	22.4
23930	7	Sololá	701	Sololá	3	Barraneche	5	Mayo	2023-05-05T00:00:00	2024-11-06T15:00:00	4	Temperatura máxima	22.7
23931	7	Sololá	701	Sololá	3	Barraneche	5	Mayo	2023-05-05T00:00:00	2024-11-06T15:00:00	3	Temperatura mínima	21.8
23932	7	Sololá	701	Sololá	3	Barraneche	5	Mayo	2023-05-05T00:00:00	2024-11-06T15:00:00	5	Humedad	24
23933	7	Sololá	701	Sololá	3	Barraneche	5	Mayo	2023-05-05T00:00:00	2024-11-06T15:00:00	6	Velocidad del viento	16.1
23934	7	Sololá	701	Sololá	3	Barraneche	5	Mayo	2023-05-05T00:00:00	2024-11-06T15:00:00	7	Dirección del viento	16.09
23935	7	Sololá	701	Sololá	3	Barraneche	5	Mayo	2023-05-05T00:00:00	2024-11-06T15:00:00	1	Precipitación	0
23936	7	Sololá	701	Sololá	3	Barraneche	5	Mayo	2023-05-05T00:00:00	2024-11-06T15:00:00	8	Radiación solar	823
23937	7	Sololá	701	Sololá	3	Barraneche	5	Mayo	2023-05-05T00:00:00	2024-11-06T16:00:00	2	Temperatura media	21.8
23938	7	Sololá	701	Sololá	3	Barraneche	5	Mayo	2023-05-05T00:00:00	2024-11-06T16:00:00	4	Temperatura máxima	22.4
23939	7	Sololá	701	Sololá	3	Barraneche	5	Mayo	2023-05-05T00:00:00	2024-11-06T16:00:00	3	Temperatura mínima	21.8
23940	7	Sololá	701	Sololá	3	Barraneche	5	Mayo	2023-05-05T00:00:00	2024-11-06T16:00:00	5	Humedad	33
23941	7	Sololá	701	Sololá	3	Barraneche	5	Mayo	2023-05-05T00:00:00	2024-11-06T16:00:00	6	Velocidad del viento	12.9
23942	7	Sololá	701	Sololá	3	Barraneche	5	Mayo	2023-05-05T00:00:00	2024-11-06T16:00:00	7	Dirección del viento	12.87
23943	7	Sololá	701	Sololá	3	Barraneche	5	Mayo	2023-05-05T00:00:00	2024-11-06T16:00:00	1	Precipitación	0
23944	7	Sololá	701	Sololá	3	Barraneche	5	Mayo	2023-05-05T00:00:00	2024-11-06T16:00:00	8	Radiación solar	596
23945	7	Sololá	701	Sololá	3	Barraneche	5	Mayo	2023-05-05T00:00:00	2024-11-06T17:00:00	2	Temperatura media	21.4
23946	7	Sololá	701	Sololá	3	Barraneche	5	Mayo	2023-05-05T00:00:00	2024-11-06T17:00:00	4	Temperatura máxima	21.9
23947	7	Sololá	701	Sololá	3	Barraneche	5	Mayo	2023-05-05T00:00:00	2024-11-06T17:00:00	3	Temperatura mínima	21.3
23948	7	Sololá	701	Sololá	3	Barraneche	5	Mayo	2023-05-05T00:00:00	2024-11-06T17:00:00	5	Humedad	29
23949	7	Sololá	701	Sololá	3	Barraneche	5	Mayo	2023-05-05T00:00:00	2024-11-06T17:00:00	6	Velocidad del viento	12.9
23950	7	Sololá	701	Sololá	3	Barraneche	5	Mayo	2023-05-05T00:00:00	2024-11-06T17:00:00	7	Dirección del viento	12.87
23951	7	Sololá	701	Sololá	3	Barraneche	5	Mayo	2023-05-05T00:00:00	2024-11-06T17:00:00	1	Precipitación	0
23952	7	Sololá	701	Sololá	3	Barraneche	5	Mayo	2023-05-05T00:00:00	2024-11-06T17:00:00	8	Radiación solar	378
23953	7	Sololá	701	Sololá	3	Barraneche	5	Mayo	2023-05-05T00:00:00	2024-11-06T18:00:00	2	Temperatura media	20.2
23954	7	Sololá	701	Sololá	3	Barraneche	5	Mayo	2023-05-05T00:00:00	2024-11-06T18:00:00	4	Temperatura máxima	21.4
23955	7	Sololá	701	Sololá	3	Barraneche	5	Mayo	2023-05-05T00:00:00	2024-11-06T18:00:00	3	Temperatura mínima	20.2
23956	7	Sololá	701	Sololá	3	Barraneche	5	Mayo	2023-05-05T00:00:00	2024-11-06T18:00:00	5	Humedad	39
23957	7	Sololá	701	Sololá	3	Barraneche	5	Mayo	2023-05-05T00:00:00	2024-11-06T18:00:00	6	Velocidad del viento	11.3
23958	7	Sololá	701	Sololá	3	Barraneche	5	Mayo	2023-05-05T00:00:00	2024-11-06T18:00:00	7	Dirección del viento	11.27
23959	7	Sololá	701	Sololá	3	Barraneche	5	Mayo	2023-05-05T00:00:00	2024-11-06T18:00:00	1	Precipitación	0
23960	7	Sololá	701	Sololá	3	Barraneche	5	Mayo	2023-05-05T00:00:00	2024-11-06T18:00:00	8	Radiación solar	121
23961	7	Sololá	701	Sololá	3	Barraneche	5	Mayo	2023-05-05T00:00:00	2024-11-06T19:00:00	2	Temperatura media	18.5
23962	7	Sololá	701	Sololá	3	Barraneche	5	Mayo	2023-05-05T00:00:00	2024-11-06T19:00:00	4	Temperatura máxima	20.2
23963	7	Sololá	701	Sololá	3	Barraneche	5	Mayo	2023-05-05T00:00:00	2024-11-06T19:00:00	3	Temperatura mínima	18.5
23964	7	Sololá	701	Sololá	3	Barraneche	5	Mayo	2023-05-05T00:00:00	2024-11-06T19:00:00	5	Humedad	53
23965	7	Sololá	701	Sololá	3	Barraneche	5	Mayo	2023-05-05T00:00:00	2024-11-06T19:00:00	6	Velocidad del viento	8
23966	7	Sololá	701	Sololá	3	Barraneche	5	Mayo	2023-05-05T00:00:00	2024-11-06T19:00:00	7	Dirección del viento	8.05
23967	7	Sololá	701	Sololá	3	Barraneche	5	Mayo	2023-05-05T00:00:00	2024-11-06T19:00:00	1	Precipitación	0
23968	7	Sololá	701	Sololá	3	Barraneche	5	Mayo	2023-05-05T00:00:00	2024-11-06T19:00:00	8	Radiación solar	0
23969	7	Sololá	701	Sololá	3	Barraneche	5	Mayo	2023-05-05T00:00:00	2024-11-06T20:00:00	2	Temperatura media	17.3
23970	7	Sololá	701	Sololá	3	Barraneche	5	Mayo	2023-05-05T00:00:00	2024-11-06T20:00:00	4	Temperatura máxima	18.5
23971	7	Sololá	701	Sololá	3	Barraneche	5	Mayo	2023-05-05T00:00:00	2024-11-06T20:00:00	3	Temperatura mínima	17.3
23972	7	Sololá	701	Sololá	3	Barraneche	5	Mayo	2023-05-05T00:00:00	2024-11-06T20:00:00	5	Humedad	61
23973	7	Sololá	701	Sololá	3	Barraneche	5	Mayo	2023-05-05T00:00:00	2024-11-06T20:00:00	6	Velocidad del viento	9.7
23974	7	Sololá	701	Sololá	3	Barraneche	5	Mayo	2023-05-05T00:00:00	2024-11-06T20:00:00	7	Dirección del viento	9.66
23975	7	Sololá	701	Sololá	3	Barraneche	5	Mayo	2023-05-05T00:00:00	2024-11-06T20:00:00	1	Precipitación	0
23976	7	Sololá	701	Sololá	3	Barraneche	5	Mayo	2023-05-05T00:00:00	2024-11-06T20:00:00	8	Radiación solar	0
23977	7	Sololá	701	Sololá	3	Barraneche	5	Mayo	2023-05-05T00:00:00	2024-11-06T21:00:00	2	Temperatura media	16.2
23978	7	Sololá	701	Sololá	3	Barraneche	5	Mayo	2023-05-05T00:00:00	2024-11-06T21:00:00	4	Temperatura máxima	17.3
23979	7	Sololá	701	Sololá	3	Barraneche	5	Mayo	2023-05-05T00:00:00	2024-11-06T21:00:00	3	Temperatura mínima	16.2
23980	7	Sololá	701	Sololá	3	Barraneche	5	Mayo	2023-05-05T00:00:00	2024-11-06T21:00:00	5	Humedad	62
23981	7	Sololá	701	Sololá	3	Barraneche	5	Mayo	2023-05-05T00:00:00	2024-11-06T21:00:00	6	Velocidad del viento	8
23982	7	Sololá	701	Sololá	3	Barraneche	5	Mayo	2023-05-05T00:00:00	2024-11-06T21:00:00	7	Dirección del viento	8.05
23983	7	Sololá	701	Sololá	3	Barraneche	5	Mayo	2023-05-05T00:00:00	2024-11-06T21:00:00	1	Precipitación	0
23984	7	Sololá	701	Sololá	3	Barraneche	5	Mayo	2023-05-05T00:00:00	2024-11-06T21:00:00	8	Radiación solar	0
23985	7	Sololá	701	Sololá	3	Barraneche	5	Mayo	2023-05-05T00:00:00	2024-11-06T22:00:00	2	Temperatura media	15.5
23986	7	Sololá	701	Sololá	3	Barraneche	5	Mayo	2023-05-05T00:00:00	2024-11-06T22:00:00	4	Temperatura máxima	16.2
23987	7	Sololá	701	Sololá	3	Barraneche	5	Mayo	2023-05-05T00:00:00	2024-11-06T22:00:00	3	Temperatura mínima	15.4
23988	7	Sololá	701	Sololá	3	Barraneche	5	Mayo	2023-05-05T00:00:00	2024-11-06T22:00:00	5	Humedad	62
23989	7	Sololá	701	Sololá	3	Barraneche	5	Mayo	2023-05-05T00:00:00	2024-11-06T22:00:00	6	Velocidad del viento	8
23990	7	Sololá	701	Sololá	3	Barraneche	5	Mayo	2023-05-05T00:00:00	2024-11-06T22:00:00	7	Dirección del viento	8.05
23991	7	Sololá	701	Sololá	3	Barraneche	5	Mayo	2023-05-05T00:00:00	2024-11-06T22:00:00	1	Precipitación	0
23992	7	Sololá	701	Sololá	3	Barraneche	5	Mayo	2023-05-05T00:00:00	2024-11-06T22:00:00	8	Radiación solar	0
23993	7	Sololá	701	Sololá	3	Barraneche	5	Mayo	2023-05-05T00:00:00	2024-11-06T23:00:00	2	Temperatura media	15.5
23994	7	Sololá	701	Sololá	3	Barraneche	5	Mayo	2023-05-05T00:00:00	2024-11-06T23:00:00	4	Temperatura máxima	15.6
23995	7	Sololá	701	Sololá	3	Barraneche	5	Mayo	2023-05-05T00:00:00	2024-11-06T23:00:00	3	Temperatura mínima	15.2
23996	7	Sololá	701	Sololá	3	Barraneche	5	Mayo	2023-05-05T00:00:00	2024-11-06T23:00:00	5	Humedad	55
23997	7	Sololá	701	Sololá	3	Barraneche	5	Mayo	2023-05-05T00:00:00	2024-11-06T23:00:00	6	Velocidad del viento	19.3
23998	7	Sololá	701	Sololá	3	Barraneche	5	Mayo	2023-05-05T00:00:00	2024-11-06T23:00:00	7	Dirección del viento	19.31
23999	7	Sololá	701	Sololá	3	Barraneche	5	Mayo	2023-05-05T00:00:00	2024-11-06T23:00:00	1	Precipitación	0
24000	7	Sololá	701	Sololá	3	Barraneche	5	Mayo	2023-05-05T00:00:00	2024-11-06T23:00:00	8	Radiación solar	0
24001	7	Sololá	701	Sololá	3	Barraneche	5	Mayo	2023-06-05T00:00:00	2024-11-06T00:00:00	2	Temperatura media	13.4
24002	7	Sololá	701	Sololá	3	Barraneche	5	Mayo	2023-06-05T00:00:00	2024-11-06T00:00:00	4	Temperatura máxima	15.6
24003	7	Sololá	701	Sololá	3	Barraneche	5	Mayo	2023-06-05T00:00:00	2024-11-06T00:00:00	3	Temperatura mínima	13.4
24004	7	Sololá	701	Sololá	3	Barraneche	5	Mayo	2023-06-05T00:00:00	2024-11-06T00:00:00	5	Humedad	57
24005	7	Sololá	701	Sololá	3	Barraneche	5	Mayo	2023-06-05T00:00:00	2024-11-06T00:00:00	6	Velocidad del viento	4.8
24006	7	Sololá	701	Sololá	3	Barraneche	5	Mayo	2023-06-05T00:00:00	2024-11-06T00:00:00	7	Dirección del viento	4.83
24007	7	Sololá	701	Sololá	3	Barraneche	5	Mayo	2023-06-05T00:00:00	2024-11-06T00:00:00	1	Precipitación	0
24008	7	Sololá	701	Sololá	3	Barraneche	5	Mayo	2023-06-05T00:00:00	2024-11-06T00:00:00	8	Radiación solar	0
24009	7	Sololá	701	Sololá	3	Barraneche	5	Mayo	2023-06-05T00:00:00	2024-11-06T01:00:00	2	Temperatura media	11.4
24010	7	Sololá	701	Sololá	3	Barraneche	5	Mayo	2023-06-05T00:00:00	2024-11-06T01:00:00	4	Temperatura máxima	13.4
24011	7	Sololá	701	Sololá	3	Barraneche	5	Mayo	2023-06-05T00:00:00	2024-11-06T01:00:00	3	Temperatura mínima	11.4
24012	7	Sololá	701	Sololá	3	Barraneche	5	Mayo	2023-06-05T00:00:00	2024-11-06T01:00:00	5	Humedad	48
24013	7	Sololá	701	Sololá	3	Barraneche	5	Mayo	2023-06-05T00:00:00	2024-11-06T01:00:00	6	Velocidad del viento	3.2
24014	7	Sololá	701	Sololá	3	Barraneche	5	Mayo	2023-06-05T00:00:00	2024-11-06T01:00:00	7	Dirección del viento	3.22
24015	7	Sololá	701	Sololá	3	Barraneche	5	Mayo	2023-06-05T00:00:00	2024-11-06T01:00:00	1	Precipitación	0
24016	7	Sololá	701	Sololá	3	Barraneche	5	Mayo	2023-06-05T00:00:00	2024-11-06T01:00:00	8	Radiación solar	0
24017	7	Sololá	701	Sololá	3	Barraneche	5	Mayo	2023-06-05T00:00:00	2024-11-06T02:00:00	2	Temperatura media	11.1
24018	7	Sololá	701	Sololá	3	Barraneche	5	Mayo	2023-06-05T00:00:00	2024-11-06T02:00:00	4	Temperatura máxima	11.8
24019	7	Sololá	701	Sololá	3	Barraneche	5	Mayo	2023-06-05T00:00:00	2024-11-06T02:00:00	3	Temperatura mínima	11
24020	7	Sololá	701	Sololá	3	Barraneche	5	Mayo	2023-06-05T00:00:00	2024-11-06T02:00:00	5	Humedad	46
24021	7	Sololá	701	Sololá	3	Barraneche	5	Mayo	2023-06-05T00:00:00	2024-11-06T02:00:00	6	Velocidad del viento	6.4
24022	7	Sololá	701	Sololá	3	Barraneche	5	Mayo	2023-06-05T00:00:00	2024-11-06T02:00:00	7	Dirección del viento	6.44
24023	7	Sololá	701	Sololá	3	Barraneche	5	Mayo	2023-06-05T00:00:00	2024-11-06T02:00:00	1	Precipitación	0
24024	7	Sololá	701	Sololá	3	Barraneche	5	Mayo	2023-06-05T00:00:00	2024-11-06T02:00:00	8	Radiación solar	0
24025	7	Sololá	701	Sololá	3	Barraneche	5	Mayo	2023-06-05T00:00:00	2024-11-06T03:00:00	2	Temperatura media	10.9
24026	7	Sololá	701	Sololá	3	Barraneche	5	Mayo	2023-06-05T00:00:00	2024-11-06T03:00:00	4	Temperatura máxima	11.3
24027	7	Sololá	701	Sololá	3	Barraneche	5	Mayo	2023-06-05T00:00:00	2024-11-06T03:00:00	3	Temperatura mínima	10.9
24028	7	Sololá	701	Sololá	3	Barraneche	5	Mayo	2023-06-05T00:00:00	2024-11-06T03:00:00	5	Humedad	42
24029	7	Sololá	701	Sololá	3	Barraneche	5	Mayo	2023-06-05T00:00:00	2024-11-06T03:00:00	6	Velocidad del viento	6.4
24030	7	Sololá	701	Sololá	3	Barraneche	5	Mayo	2023-06-05T00:00:00	2024-11-06T03:00:00	7	Dirección del viento	6.44
24031	7	Sololá	701	Sololá	3	Barraneche	5	Mayo	2023-06-05T00:00:00	2024-11-06T03:00:00	1	Precipitación	0
24032	7	Sololá	701	Sololá	3	Barraneche	5	Mayo	2023-06-05T00:00:00	2024-11-06T03:00:00	8	Radiación solar	0
24033	7	Sololá	701	Sololá	3	Barraneche	5	Mayo	2023-06-05T00:00:00	2024-11-06T04:00:00	2	Temperatura media	10.8
24034	7	Sololá	701	Sololá	3	Barraneche	5	Mayo	2023-06-05T00:00:00	2024-11-06T04:00:00	4	Temperatura máxima	11.2
24035	7	Sololá	701	Sololá	3	Barraneche	5	Mayo	2023-06-05T00:00:00	2024-11-06T04:00:00	3	Temperatura mínima	10.7
24036	7	Sololá	701	Sololá	3	Barraneche	5	Mayo	2023-06-05T00:00:00	2024-11-06T04:00:00	5	Humedad	37
24037	7	Sololá	701	Sololá	3	Barraneche	5	Mayo	2023-06-05T00:00:00	2024-11-06T04:00:00	6	Velocidad del viento	8
24038	7	Sololá	701	Sololá	3	Barraneche	5	Mayo	2023-06-05T00:00:00	2024-11-06T04:00:00	7	Dirección del viento	8.05
24039	7	Sololá	701	Sololá	3	Barraneche	5	Mayo	2023-06-05T00:00:00	2024-11-06T04:00:00	1	Precipitación	0
24040	7	Sololá	701	Sololá	3	Barraneche	5	Mayo	2023-06-05T00:00:00	2024-11-06T04:00:00	8	Radiación solar	0
24041	7	Sololá	701	Sololá	3	Barraneche	5	Mayo	2023-06-05T00:00:00	2024-11-06T05:00:00	2	Temperatura media	10.3
24042	7	Sololá	701	Sololá	3	Barraneche	5	Mayo	2023-06-05T00:00:00	2024-11-06T05:00:00	4	Temperatura máxima	10.9
24043	7	Sololá	701	Sololá	3	Barraneche	5	Mayo	2023-06-05T00:00:00	2024-11-06T05:00:00	3	Temperatura mínima	10.2
24044	7	Sololá	701	Sololá	3	Barraneche	5	Mayo	2023-06-05T00:00:00	2024-11-06T05:00:00	5	Humedad	37
24045	7	Sololá	701	Sololá	3	Barraneche	5	Mayo	2023-06-05T00:00:00	2024-11-06T05:00:00	6	Velocidad del viento	8
24046	7	Sololá	701	Sololá	3	Barraneche	5	Mayo	2023-06-05T00:00:00	2024-11-06T05:00:00	7	Dirección del viento	8.05
24047	7	Sololá	701	Sololá	3	Barraneche	5	Mayo	2023-06-05T00:00:00	2024-11-06T05:00:00	1	Precipitación	0
24048	7	Sololá	701	Sololá	3	Barraneche	5	Mayo	2023-06-05T00:00:00	2024-11-06T05:00:00	8	Radiación solar	0
24049	7	Sololá	701	Sololá	3	Barraneche	5	Mayo	2023-06-05T00:00:00	2024-11-06T06:00:00	2	Temperatura media	10.1
24050	7	Sololá	701	Sololá	3	Barraneche	5	Mayo	2023-06-05T00:00:00	2024-11-06T06:00:00	4	Temperatura máxima	10.4
24051	7	Sololá	701	Sololá	3	Barraneche	5	Mayo	2023-06-05T00:00:00	2024-11-06T06:00:00	3	Temperatura mínima	9.8
24052	7	Sololá	701	Sololá	3	Barraneche	5	Mayo	2023-06-05T00:00:00	2024-11-06T06:00:00	5	Humedad	42
24053	7	Sololá	701	Sololá	3	Barraneche	5	Mayo	2023-06-05T00:00:00	2024-11-06T06:00:00	6	Velocidad del viento	8
24054	7	Sololá	701	Sololá	3	Barraneche	5	Mayo	2023-06-05T00:00:00	2024-11-06T06:00:00	7	Dirección del viento	8.05
24055	7	Sololá	701	Sololá	3	Barraneche	5	Mayo	2023-06-05T00:00:00	2024-11-06T06:00:00	1	Precipitación	0
24056	7	Sololá	701	Sololá	3	Barraneche	5	Mayo	2023-06-05T00:00:00	2024-11-06T06:00:00	8	Radiación solar	4
24057	7	Sololá	701	Sololá	3	Barraneche	5	Mayo	2023-06-05T00:00:00	2024-11-06T07:00:00	2	Temperatura media	12.9
24058	7	Sololá	701	Sololá	3	Barraneche	5	Mayo	2023-06-05T00:00:00	2024-11-06T07:00:00	4	Temperatura máxima	12.9
24059	7	Sololá	701	Sololá	3	Barraneche	5	Mayo	2023-06-05T00:00:00	2024-11-06T07:00:00	3	Temperatura mínima	9.9
24060	7	Sololá	701	Sololá	3	Barraneche	5	Mayo	2023-06-05T00:00:00	2024-11-06T07:00:00	5	Humedad	45
24061	7	Sololá	701	Sololá	3	Barraneche	5	Mayo	2023-06-05T00:00:00	2024-11-06T07:00:00	6	Velocidad del viento	8
24062	7	Sololá	701	Sololá	3	Barraneche	5	Mayo	2023-06-05T00:00:00	2024-11-06T07:00:00	7	Dirección del viento	8.05
24063	7	Sololá	701	Sololá	3	Barraneche	5	Mayo	2023-06-05T00:00:00	2024-11-06T07:00:00	1	Precipitación	0
24064	7	Sololá	701	Sololá	3	Barraneche	5	Mayo	2023-06-05T00:00:00	2024-11-06T07:00:00	8	Radiación solar	112
24065	7	Sololá	701	Sololá	3	Barraneche	5	Mayo	2023-06-05T00:00:00	2024-11-06T08:00:00	2	Temperatura media	16.6
24066	7	Sololá	701	Sololá	3	Barraneche	5	Mayo	2023-06-05T00:00:00	2024-11-06T08:00:00	4	Temperatura máxima	16.7
24067	7	Sololá	701	Sololá	3	Barraneche	5	Mayo	2023-06-05T00:00:00	2024-11-06T08:00:00	3	Temperatura mínima	12.9
24068	7	Sololá	701	Sololá	3	Barraneche	5	Mayo	2023-06-05T00:00:00	2024-11-06T08:00:00	5	Humedad	42
24069	7	Sololá	701	Sololá	3	Barraneche	5	Mayo	2023-06-05T00:00:00	2024-11-06T08:00:00	6	Velocidad del viento	3.2
24070	7	Sololá	701	Sololá	3	Barraneche	5	Mayo	2023-06-05T00:00:00	2024-11-06T08:00:00	7	Dirección del viento	3.22
24071	7	Sololá	701	Sololá	3	Barraneche	5	Mayo	2023-06-05T00:00:00	2024-11-06T08:00:00	1	Precipitación	0
24072	7	Sololá	701	Sololá	3	Barraneche	5	Mayo	2023-06-05T00:00:00	2024-11-06T08:00:00	8	Radiación solar	405
24073	7	Sololá	701	Sololá	3	Barraneche	5	Mayo	2023-06-05T00:00:00	2024-11-06T09:00:00	2	Temperatura media	19.3
24074	7	Sololá	701	Sololá	3	Barraneche	5	Mayo	2023-06-05T00:00:00	2024-11-06T09:00:00	4	Temperatura máxima	19.6
24075	7	Sololá	701	Sololá	3	Barraneche	5	Mayo	2023-06-05T00:00:00	2024-11-06T09:00:00	3	Temperatura mínima	16.5
24076	7	Sololá	701	Sololá	3	Barraneche	5	Mayo	2023-06-05T00:00:00	2024-11-06T09:00:00	5	Humedad	33
24077	7	Sololá	701	Sololá	3	Barraneche	5	Mayo	2023-06-05T00:00:00	2024-11-06T09:00:00	6	Velocidad del viento	9.7
24078	7	Sololá	701	Sololá	3	Barraneche	5	Mayo	2023-06-05T00:00:00	2024-11-06T09:00:00	7	Dirección del viento	9.66
24079	7	Sololá	701	Sololá	3	Barraneche	5	Mayo	2023-06-05T00:00:00	2024-11-06T09:00:00	1	Precipitación	0
24080	7	Sololá	701	Sololá	3	Barraneche	5	Mayo	2023-06-05T00:00:00	2024-11-06T09:00:00	8	Radiación solar	646
24081	7	Sololá	701	Sololá	3	Barraneche	5	Mayo	2023-06-05T00:00:00	2024-11-06T10:00:00	2	Temperatura media	19.5
24082	7	Sololá	701	Sololá	3	Barraneche	5	Mayo	2023-06-05T00:00:00	2024-11-06T10:00:00	4	Temperatura máxima	19.6
24083	7	Sololá	701	Sololá	3	Barraneche	5	Mayo	2023-06-05T00:00:00	2024-11-06T10:00:00	3	Temperatura mínima	18.8
24084	7	Sololá	701	Sololá	3	Barraneche	5	Mayo	2023-06-05T00:00:00	2024-11-06T10:00:00	5	Humedad	35
24085	7	Sololá	701	Sololá	3	Barraneche	5	Mayo	2023-06-05T00:00:00	2024-11-06T10:00:00	6	Velocidad del viento	14.5
24086	7	Sololá	701	Sololá	3	Barraneche	5	Mayo	2023-06-05T00:00:00	2024-11-06T10:00:00	7	Dirección del viento	14.48
24087	7	Sololá	701	Sololá	3	Barraneche	5	Mayo	2023-06-05T00:00:00	2024-11-06T10:00:00	1	Precipitación	0
24088	7	Sololá	701	Sololá	3	Barraneche	5	Mayo	2023-06-05T00:00:00	2024-11-06T10:00:00	8	Radiación solar	840
24089	7	Sololá	701	Sololá	3	Barraneche	5	Mayo	2023-06-05T00:00:00	2024-11-06T11:00:00	2	Temperatura media	20.8
24090	7	Sololá	701	Sololá	3	Barraneche	5	Mayo	2023-06-05T00:00:00	2024-11-06T11:00:00	4	Temperatura máxima	20.8
24091	7	Sololá	701	Sololá	3	Barraneche	5	Mayo	2023-06-05T00:00:00	2024-11-06T11:00:00	3	Temperatura mínima	19.1
24092	7	Sololá	701	Sololá	3	Barraneche	5	Mayo	2023-06-05T00:00:00	2024-11-06T11:00:00	5	Humedad	29
24093	7	Sololá	701	Sololá	3	Barraneche	5	Mayo	2023-06-05T00:00:00	2024-11-06T11:00:00	6	Velocidad del viento	12.9
24094	7	Sololá	701	Sololá	3	Barraneche	5	Mayo	2023-06-05T00:00:00	2024-11-06T11:00:00	7	Dirección del viento	12.87
24095	7	Sololá	701	Sololá	3	Barraneche	5	Mayo	2023-06-05T00:00:00	2024-11-06T11:00:00	1	Precipitación	0
24096	7	Sololá	701	Sololá	3	Barraneche	5	Mayo	2023-06-05T00:00:00	2024-11-06T11:00:00	8	Radiación solar	979
24097	7	Sololá	701	Sololá	3	Barraneche	5	Mayo	2023-06-05T00:00:00	2024-11-06T12:00:00	2	Temperatura media	21.3
24098	7	Sololá	701	Sololá	3	Barraneche	5	Mayo	2023-06-05T00:00:00	2024-11-06T12:00:00	4	Temperatura máxima	21.7
24099	7	Sololá	701	Sololá	3	Barraneche	5	Mayo	2023-06-05T00:00:00	2024-11-06T12:00:00	3	Temperatura mínima	20.8
24100	7	Sololá	701	Sololá	3	Barraneche	5	Mayo	2023-06-05T00:00:00	2024-11-06T12:00:00	5	Humedad	28
24101	7	Sololá	701	Sololá	3	Barraneche	5	Mayo	2023-06-05T00:00:00	2024-11-06T12:00:00	6	Velocidad del viento	12.9
24102	7	Sololá	701	Sololá	3	Barraneche	5	Mayo	2023-06-05T00:00:00	2024-11-06T12:00:00	7	Dirección del viento	12.87
24103	7	Sololá	701	Sololá	3	Barraneche	5	Mayo	2023-06-05T00:00:00	2024-11-06T12:00:00	1	Precipitación	0
24104	7	Sololá	701	Sololá	3	Barraneche	5	Mayo	2023-06-05T00:00:00	2024-11-06T12:00:00	8	Radiación solar	1052
24105	7	Sololá	701	Sololá	3	Barraneche	5	Mayo	2023-06-05T00:00:00	2024-11-06T13:00:00	2	Temperatura media	21.3
24106	7	Sololá	701	Sololá	3	Barraneche	5	Mayo	2023-06-05T00:00:00	2024-11-06T13:00:00	4	Temperatura máxima	21.8
24107	7	Sololá	701	Sololá	3	Barraneche	5	Mayo	2023-06-05T00:00:00	2024-11-06T13:00:00	3	Temperatura mínima	21
24108	7	Sololá	701	Sololá	3	Barraneche	5	Mayo	2023-06-05T00:00:00	2024-11-06T13:00:00	5	Humedad	31
24109	7	Sololá	701	Sololá	3	Barraneche	5	Mayo	2023-06-05T00:00:00	2024-11-06T13:00:00	6	Velocidad del viento	14.5
24110	7	Sololá	701	Sololá	3	Barraneche	5	Mayo	2023-06-05T00:00:00	2024-11-06T13:00:00	7	Dirección del viento	14.48
24111	7	Sololá	701	Sololá	3	Barraneche	5	Mayo	2023-06-05T00:00:00	2024-11-06T13:00:00	1	Precipitación	0
24112	7	Sololá	701	Sololá	3	Barraneche	5	Mayo	2023-06-05T00:00:00	2024-11-06T13:00:00	8	Radiación solar	1057
24113	7	Sololá	701	Sololá	3	Barraneche	5	Mayo	2023-06-05T00:00:00	2024-11-06T14:00:00	2	Temperatura media	21.7
24114	7	Sololá	701	Sololá	3	Barraneche	5	Mayo	2023-06-05T00:00:00	2024-11-06T14:00:00	4	Temperatura máxima	22.3
24115	7	Sololá	701	Sololá	3	Barraneche	5	Mayo	2023-06-05T00:00:00	2024-11-06T14:00:00	3	Temperatura mínima	21.4
24116	7	Sololá	701	Sololá	3	Barraneche	5	Mayo	2023-06-05T00:00:00	2024-11-06T14:00:00	5	Humedad	26
24117	7	Sololá	701	Sololá	3	Barraneche	5	Mayo	2023-06-05T00:00:00	2024-11-06T14:00:00	6	Velocidad del viento	11.3
24118	7	Sololá	701	Sololá	3	Barraneche	5	Mayo	2023-06-05T00:00:00	2024-11-06T14:00:00	7	Dirección del viento	11.27
24119	7	Sololá	701	Sololá	3	Barraneche	5	Mayo	2023-06-05T00:00:00	2024-11-06T14:00:00	1	Precipitación	0
24120	7	Sololá	701	Sololá	3	Barraneche	5	Mayo	2023-06-05T00:00:00	2024-11-06T14:00:00	8	Radiación solar	924
24121	7	Sololá	701	Sololá	3	Barraneche	5	Mayo	2023-06-05T00:00:00	2024-11-06T15:00:00	2	Temperatura media	21.8
24122	7	Sololá	701	Sololá	3	Barraneche	5	Mayo	2023-06-05T00:00:00	2024-11-06T15:00:00	4	Temperatura máxima	22
24123	7	Sololá	701	Sololá	3	Barraneche	5	Mayo	2023-06-05T00:00:00	2024-11-06T15:00:00	3	Temperatura mínima	21.5
24124	7	Sololá	701	Sololá	3	Barraneche	5	Mayo	2023-06-05T00:00:00	2024-11-06T15:00:00	5	Humedad	19
24125	7	Sololá	701	Sololá	3	Barraneche	5	Mayo	2023-06-05T00:00:00	2024-11-06T15:00:00	6	Velocidad del viento	12.9
24126	7	Sololá	701	Sololá	3	Barraneche	5	Mayo	2023-06-05T00:00:00	2024-11-06T15:00:00	7	Dirección del viento	12.87
24127	7	Sololá	701	Sololá	3	Barraneche	5	Mayo	2023-06-05T00:00:00	2024-11-06T15:00:00	1	Precipitación	0
24128	7	Sololá	701	Sololá	3	Barraneche	5	Mayo	2023-06-05T00:00:00	2024-11-06T15:00:00	8	Radiación solar	763
24129	7	Sololá	701	Sololá	3	Barraneche	5	Mayo	2023-06-05T00:00:00	2024-11-06T16:00:00	2	Temperatura media	21.2
24130	7	Sololá	701	Sololá	3	Barraneche	5	Mayo	2023-06-05T00:00:00	2024-11-06T16:00:00	4	Temperatura máxima	21.9
24131	7	Sololá	701	Sololá	3	Barraneche	5	Mayo	2023-06-05T00:00:00	2024-11-06T16:00:00	3	Temperatura mínima	21.2
24132	7	Sololá	701	Sololá	3	Barraneche	5	Mayo	2023-06-05T00:00:00	2024-11-06T16:00:00	5	Humedad	34
24133	7	Sololá	701	Sololá	3	Barraneche	5	Mayo	2023-06-05T00:00:00	2024-11-06T16:00:00	6	Velocidad del viento	9.7
24134	7	Sololá	701	Sololá	3	Barraneche	5	Mayo	2023-06-05T00:00:00	2024-11-06T16:00:00	7	Dirección del viento	9.66
24135	7	Sololá	701	Sololá	3	Barraneche	5	Mayo	2023-06-05T00:00:00	2024-11-06T16:00:00	1	Precipitación	0
24136	7	Sololá	701	Sololá	3	Barraneche	5	Mayo	2023-06-05T00:00:00	2024-11-06T16:00:00	8	Radiación solar	615
24137	7	Sololá	701	Sololá	3	Barraneche	5	Mayo	2023-06-05T00:00:00	2024-11-06T17:00:00	2	Temperatura media	20.5
24138	7	Sololá	701	Sololá	3	Barraneche	5	Mayo	2023-06-05T00:00:00	2024-11-06T17:00:00	4	Temperatura máxima	21.6
24139	7	Sololá	701	Sololá	3	Barraneche	5	Mayo	2023-06-05T00:00:00	2024-11-06T17:00:00	3	Temperatura mínima	20.2
24140	7	Sololá	701	Sololá	3	Barraneche	5	Mayo	2023-06-05T00:00:00	2024-11-06T17:00:00	5	Humedad	39
24141	7	Sololá	701	Sololá	3	Barraneche	5	Mayo	2023-06-05T00:00:00	2024-11-06T17:00:00	6	Velocidad del viento	9.7
24142	7	Sololá	701	Sololá	3	Barraneche	5	Mayo	2023-06-05T00:00:00	2024-11-06T17:00:00	7	Dirección del viento	9.66
24143	7	Sololá	701	Sololá	3	Barraneche	5	Mayo	2023-06-05T00:00:00	2024-11-06T17:00:00	1	Precipitación	0
24144	7	Sololá	701	Sololá	3	Barraneche	5	Mayo	2023-06-05T00:00:00	2024-11-06T17:00:00	8	Radiación solar	300
24145	7	Sololá	701	Sololá	3	Barraneche	5	Mayo	2023-06-05T00:00:00	2024-11-06T18:00:00	2	Temperatura media	18.9
24146	7	Sololá	701	Sololá	3	Barraneche	5	Mayo	2023-06-05T00:00:00	2024-11-06T18:00:00	4	Temperatura máxima	20.6
24147	7	Sololá	701	Sololá	3	Barraneche	5	Mayo	2023-06-05T00:00:00	2024-11-06T18:00:00	3	Temperatura mínima	18.9
24148	7	Sololá	701	Sololá	3	Barraneche	5	Mayo	2023-06-05T00:00:00	2024-11-06T18:00:00	5	Humedad	42
24149	7	Sololá	701	Sololá	3	Barraneche	5	Mayo	2023-06-05T00:00:00	2024-11-06T18:00:00	6	Velocidad del viento	9.7
24150	7	Sololá	701	Sololá	3	Barraneche	5	Mayo	2023-06-05T00:00:00	2024-11-06T18:00:00	7	Dirección del viento	9.66
24151	7	Sololá	701	Sololá	3	Barraneche	5	Mayo	2023-06-05T00:00:00	2024-11-06T18:00:00	1	Precipitación	0
24152	7	Sololá	701	Sololá	3	Barraneche	5	Mayo	2023-06-05T00:00:00	2024-11-06T18:00:00	8	Radiación solar	116
24153	7	Sololá	701	Sololá	3	Barraneche	5	Mayo	2023-06-05T00:00:00	2024-11-06T19:00:00	2	Temperatura media	17.5
24154	7	Sololá	701	Sololá	3	Barraneche	5	Mayo	2023-06-05T00:00:00	2024-11-06T19:00:00	4	Temperatura máxima	18.9
24155	7	Sololá	701	Sololá	3	Barraneche	5	Mayo	2023-06-05T00:00:00	2024-11-06T19:00:00	3	Temperatura mínima	17.5
24156	7	Sololá	701	Sololá	3	Barraneche	5	Mayo	2023-06-05T00:00:00	2024-11-06T19:00:00	5	Humedad	47
24157	7	Sololá	701	Sololá	3	Barraneche	5	Mayo	2023-06-05T00:00:00	2024-11-06T19:00:00	6	Velocidad del viento	8
24158	7	Sololá	701	Sololá	3	Barraneche	5	Mayo	2023-06-05T00:00:00	2024-11-06T19:00:00	7	Dirección del viento	8.05
24159	7	Sololá	701	Sololá	3	Barraneche	5	Mayo	2023-06-05T00:00:00	2024-11-06T19:00:00	1	Precipitación	0
24160	7	Sololá	701	Sololá	3	Barraneche	5	Mayo	2023-06-05T00:00:00	2024-11-06T19:00:00	8	Radiación solar	0
24161	7	Sololá	701	Sololá	3	Barraneche	5	Mayo	2023-06-05T00:00:00	2024-11-06T20:00:00	2	Temperatura media	16.2
24162	7	Sololá	701	Sololá	3	Barraneche	5	Mayo	2023-06-05T00:00:00	2024-11-06T20:00:00	4	Temperatura máxima	17.5
24163	7	Sololá	701	Sololá	3	Barraneche	5	Mayo	2023-06-05T00:00:00	2024-11-06T20:00:00	3	Temperatura mínima	16.2
24164	7	Sololá	701	Sololá	3	Barraneche	5	Mayo	2023-06-05T00:00:00	2024-11-06T20:00:00	5	Humedad	55
24165	7	Sololá	701	Sololá	3	Barraneche	5	Mayo	2023-06-05T00:00:00	2024-11-06T20:00:00	6	Velocidad del viento	6.4
24166	7	Sololá	701	Sololá	3	Barraneche	5	Mayo	2023-06-05T00:00:00	2024-11-06T20:00:00	7	Dirección del viento	6.44
24167	7	Sololá	701	Sololá	3	Barraneche	5	Mayo	2023-06-05T00:00:00	2024-11-06T20:00:00	1	Precipitación	0
24168	7	Sololá	701	Sololá	3	Barraneche	5	Mayo	2023-06-05T00:00:00	2024-11-06T20:00:00	8	Radiación solar	0
24169	7	Sololá	701	Sololá	3	Barraneche	5	Mayo	2023-06-05T00:00:00	2024-11-06T21:00:00	2	Temperatura media	13.3
24170	7	Sololá	701	Sololá	3	Barraneche	5	Mayo	2023-06-05T00:00:00	2024-11-06T21:00:00	4	Temperatura máxima	16.2
24171	7	Sololá	701	Sololá	3	Barraneche	5	Mayo	2023-06-05T00:00:00	2024-11-06T21:00:00	3	Temperatura mínima	13.2
24172	7	Sololá	701	Sololá	3	Barraneche	5	Mayo	2023-06-05T00:00:00	2024-11-06T21:00:00	5	Humedad	61
24173	7	Sololá	701	Sololá	3	Barraneche	5	Mayo	2023-06-05T00:00:00	2024-11-06T21:00:00	6	Velocidad del viento	3.2
24174	7	Sololá	701	Sololá	3	Barraneche	5	Mayo	2023-06-05T00:00:00	2024-11-06T21:00:00	7	Dirección del viento	3.22
24175	7	Sololá	701	Sololá	3	Barraneche	5	Mayo	2023-06-05T00:00:00	2024-11-06T21:00:00	1	Precipitación	0
24176	7	Sololá	701	Sololá	3	Barraneche	5	Mayo	2023-06-05T00:00:00	2024-11-06T21:00:00	8	Radiación solar	0
24177	7	Sololá	701	Sololá	3	Barraneche	5	Mayo	2023-06-05T00:00:00	2024-11-06T22:00:00	2	Temperatura media	12.5
24178	7	Sololá	701	Sololá	3	Barraneche	5	Mayo	2023-06-05T00:00:00	2024-11-06T22:00:00	4	Temperatura máxima	13.3
24179	7	Sololá	701	Sololá	3	Barraneche	5	Mayo	2023-06-05T00:00:00	2024-11-06T22:00:00	3	Temperatura mínima	12.4
24180	7	Sololá	701	Sololá	3	Barraneche	5	Mayo	2023-06-05T00:00:00	2024-11-06T22:00:00	5	Humedad	52
24181	7	Sololá	701	Sololá	3	Barraneche	5	Mayo	2023-06-05T00:00:00	2024-11-06T22:00:00	6	Velocidad del viento	4.8
24182	7	Sololá	701	Sololá	3	Barraneche	5	Mayo	2023-06-05T00:00:00	2024-11-06T22:00:00	7	Dirección del viento	4.83
24183	7	Sololá	701	Sololá	3	Barraneche	5	Mayo	2023-06-05T00:00:00	2024-11-06T22:00:00	1	Precipitación	0
24184	7	Sololá	701	Sololá	3	Barraneche	5	Mayo	2023-06-05T00:00:00	2024-11-06T22:00:00	8	Radiación solar	0
24185	7	Sololá	701	Sololá	3	Barraneche	5	Mayo	2023-06-05T00:00:00	2024-11-06T23:00:00	2	Temperatura media	16.7
24186	7	Sololá	701	Sololá	3	Barraneche	5	Mayo	2023-06-05T00:00:00	2024-11-06T23:00:00	4	Temperatura máxima	16.9
24187	7	Sololá	701	Sololá	3	Barraneche	5	Mayo	2023-06-05T00:00:00	2024-11-06T23:00:00	3	Temperatura mínima	12.4
24188	7	Sololá	701	Sololá	3	Barraneche	5	Mayo	2023-06-05T00:00:00	2024-11-06T23:00:00	5	Humedad	32
24189	7	Sololá	701	Sololá	3	Barraneche	5	Mayo	2023-06-05T00:00:00	2024-11-06T23:00:00	6	Velocidad del viento	8
24190	7	Sololá	701	Sololá	3	Barraneche	5	Mayo	2023-06-05T00:00:00	2024-11-06T23:00:00	7	Dirección del viento	8.05
24191	7	Sololá	701	Sololá	3	Barraneche	5	Mayo	2023-06-05T00:00:00	2024-11-06T23:00:00	1	Precipitación	0
24192	7	Sololá	701	Sololá	3	Barraneche	5	Mayo	2023-06-05T00:00:00	2024-11-06T23:00:00	8	Radiación solar	0
24193	7	Sololá	701	Sololá	3	Barraneche	5	Mayo	2023-07-05T00:00:00	2024-11-06T00:00:00	2	Temperatura media	14.1
24194	7	Sololá	701	Sololá	3	Barraneche	5	Mayo	2023-07-05T00:00:00	2024-11-06T00:00:00	4	Temperatura máxima	16.8
24195	7	Sololá	701	Sololá	3	Barraneche	5	Mayo	2023-07-05T00:00:00	2024-11-06T00:00:00	3	Temperatura mínima	14.1
24196	7	Sololá	701	Sololá	3	Barraneche	5	Mayo	2023-07-05T00:00:00	2024-11-06T00:00:00	5	Humedad	36
24197	7	Sololá	701	Sololá	3	Barraneche	5	Mayo	2023-07-05T00:00:00	2024-11-06T00:00:00	6	Velocidad del viento	4.8
24198	7	Sololá	701	Sololá	3	Barraneche	5	Mayo	2023-07-05T00:00:00	2024-11-06T00:00:00	7	Dirección del viento	4.83
24199	7	Sololá	701	Sololá	3	Barraneche	5	Mayo	2023-07-05T00:00:00	2024-11-06T00:00:00	1	Precipitación	0
24200	7	Sololá	701	Sololá	3	Barraneche	5	Mayo	2023-07-05T00:00:00	2024-11-06T00:00:00	8	Radiación solar	0
24201	7	Sololá	701	Sololá	3	Barraneche	5	Mayo	2023-07-05T00:00:00	2024-11-06T01:00:00	2	Temperatura media	13.2
24202	7	Sololá	701	Sololá	3	Barraneche	5	Mayo	2023-07-05T00:00:00	2024-11-06T01:00:00	4	Temperatura máxima	15.1
24203	7	Sololá	701	Sololá	3	Barraneche	5	Mayo	2023-07-05T00:00:00	2024-11-06T01:00:00	3	Temperatura mínima	13
24204	7	Sololá	701	Sololá	3	Barraneche	5	Mayo	2023-07-05T00:00:00	2024-11-06T01:00:00	5	Humedad	35
24205	7	Sololá	701	Sololá	3	Barraneche	5	Mayo	2023-07-05T00:00:00	2024-11-06T01:00:00	6	Velocidad del viento	4.8
24206	7	Sololá	701	Sololá	3	Barraneche	5	Mayo	2023-07-05T00:00:00	2024-11-06T01:00:00	7	Dirección del viento	4.83
24207	7	Sololá	701	Sololá	3	Barraneche	5	Mayo	2023-07-05T00:00:00	2024-11-06T01:00:00	1	Precipitación	0
24208	7	Sololá	701	Sololá	3	Barraneche	5	Mayo	2023-07-05T00:00:00	2024-11-06T01:00:00	8	Radiación solar	0
24209	7	Sololá	701	Sololá	3	Barraneche	5	Mayo	2023-07-05T00:00:00	2024-11-06T02:00:00	2	Temperatura media	11.6
24210	7	Sololá	701	Sololá	3	Barraneche	5	Mayo	2023-07-05T00:00:00	2024-11-06T02:00:00	4	Temperatura máxima	13.4
24211	7	Sololá	701	Sololá	3	Barraneche	5	Mayo	2023-07-05T00:00:00	2024-11-06T02:00:00	3	Temperatura mínima	11.6
24212	7	Sololá	701	Sololá	3	Barraneche	5	Mayo	2023-07-05T00:00:00	2024-11-06T02:00:00	5	Humedad	37
24213	7	Sololá	701	Sololá	3	Barraneche	5	Mayo	2023-07-05T00:00:00	2024-11-06T02:00:00	6	Velocidad del viento	6.4
24214	7	Sololá	701	Sololá	3	Barraneche	5	Mayo	2023-07-05T00:00:00	2024-11-06T02:00:00	7	Dirección del viento	6.44
24215	7	Sololá	701	Sololá	3	Barraneche	5	Mayo	2023-07-05T00:00:00	2024-11-06T02:00:00	1	Precipitación	0
24216	7	Sololá	701	Sololá	3	Barraneche	5	Mayo	2023-07-05T00:00:00	2024-11-06T02:00:00	8	Radiación solar	0
24217	7	Sololá	701	Sololá	3	Barraneche	5	Mayo	2023-07-05T00:00:00	2024-11-06T03:00:00	2	Temperatura media	12.2
24218	7	Sololá	701	Sololá	3	Barraneche	5	Mayo	2023-07-05T00:00:00	2024-11-06T03:00:00	4	Temperatura máxima	12.3
24219	7	Sololá	701	Sololá	3	Barraneche	5	Mayo	2023-07-05T00:00:00	2024-11-06T03:00:00	3	Temperatura mínima	11.3
24220	7	Sololá	701	Sololá	3	Barraneche	5	Mayo	2023-07-05T00:00:00	2024-11-06T03:00:00	5	Humedad	35
24221	7	Sololá	701	Sololá	3	Barraneche	5	Mayo	2023-07-05T00:00:00	2024-11-06T03:00:00	6	Velocidad del viento	8
24222	7	Sololá	701	Sololá	3	Barraneche	5	Mayo	2023-07-05T00:00:00	2024-11-06T03:00:00	7	Dirección del viento	8.05
24223	7	Sololá	701	Sololá	3	Barraneche	5	Mayo	2023-07-05T00:00:00	2024-11-06T03:00:00	1	Precipitación	0
24224	7	Sololá	701	Sololá	3	Barraneche	5	Mayo	2023-07-05T00:00:00	2024-11-06T03:00:00	8	Radiación solar	0
24225	7	Sololá	701	Sololá	3	Barraneche	5	Mayo	2023-07-05T00:00:00	2024-11-06T04:00:00	2	Temperatura media	12.1
24226	7	Sololá	701	Sololá	3	Barraneche	5	Mayo	2023-07-05T00:00:00	2024-11-06T04:00:00	4	Temperatura máxima	13.1
24227	7	Sololá	701	Sololá	3	Barraneche	5	Mayo	2023-07-05T00:00:00	2024-11-06T04:00:00	3	Temperatura mínima	12
24228	7	Sololá	701	Sololá	3	Barraneche	5	Mayo	2023-07-05T00:00:00	2024-11-06T04:00:00	5	Humedad	33
24229	7	Sololá	701	Sololá	3	Barraneche	5	Mayo	2023-07-05T00:00:00	2024-11-06T04:00:00	6	Velocidad del viento	4.8
24230	7	Sololá	701	Sololá	3	Barraneche	5	Mayo	2023-07-05T00:00:00	2024-11-06T04:00:00	7	Dirección del viento	4.83
24231	7	Sololá	701	Sololá	3	Barraneche	5	Mayo	2023-07-05T00:00:00	2024-11-06T04:00:00	1	Precipitación	0
24232	7	Sololá	701	Sololá	3	Barraneche	5	Mayo	2023-07-05T00:00:00	2024-11-06T04:00:00	8	Radiación solar	0
24233	7	Sololá	701	Sololá	3	Barraneche	5	Mayo	2023-07-05T00:00:00	2024-11-06T05:00:00	2	Temperatura media	11
24234	7	Sololá	701	Sololá	3	Barraneche	5	Mayo	2023-07-05T00:00:00	2024-11-06T05:00:00	4	Temperatura máxima	12.3
24235	7	Sololá	701	Sololá	3	Barraneche	5	Mayo	2023-07-05T00:00:00	2024-11-06T05:00:00	3	Temperatura mínima	10.8
24236	7	Sololá	701	Sololá	3	Barraneche	5	Mayo	2023-07-05T00:00:00	2024-11-06T05:00:00	5	Humedad	37
24237	7	Sololá	701	Sololá	3	Barraneche	5	Mayo	2023-07-05T00:00:00	2024-11-06T05:00:00	6	Velocidad del viento	6.4
24238	7	Sololá	701	Sololá	3	Barraneche	5	Mayo	2023-07-05T00:00:00	2024-11-06T05:00:00	7	Dirección del viento	6.44
24239	7	Sololá	701	Sololá	3	Barraneche	5	Mayo	2023-07-05T00:00:00	2024-11-06T05:00:00	1	Precipitación	0
24240	7	Sololá	701	Sololá	3	Barraneche	5	Mayo	2023-07-05T00:00:00	2024-11-06T05:00:00	8	Radiación solar	0
24241	7	Sololá	701	Sololá	3	Barraneche	5	Mayo	2023-07-05T00:00:00	2024-11-06T06:00:00	2	Temperatura media	11.7
24242	7	Sololá	701	Sololá	3	Barraneche	5	Mayo	2023-07-05T00:00:00	2024-11-06T06:00:00	4	Temperatura máxima	11.7
24243	7	Sololá	701	Sololá	3	Barraneche	5	Mayo	2023-07-05T00:00:00	2024-11-06T06:00:00	3	Temperatura mínima	10.7
24244	7	Sololá	701	Sololá	3	Barraneche	5	Mayo	2023-07-05T00:00:00	2024-11-06T06:00:00	5	Humedad	32
24245	7	Sololá	701	Sololá	3	Barraneche	5	Mayo	2023-07-05T00:00:00	2024-11-06T06:00:00	6	Velocidad del viento	6.4
24246	7	Sololá	701	Sololá	3	Barraneche	5	Mayo	2023-07-05T00:00:00	2024-11-06T06:00:00	7	Dirección del viento	6.44
24247	7	Sololá	701	Sololá	3	Barraneche	5	Mayo	2023-07-05T00:00:00	2024-11-06T06:00:00	1	Precipitación	0
24248	7	Sololá	701	Sololá	3	Barraneche	5	Mayo	2023-07-05T00:00:00	2024-11-06T06:00:00	8	Radiación solar	6
24249	7	Sololá	701	Sololá	3	Barraneche	5	Mayo	2023-07-05T00:00:00	2024-11-06T07:00:00	2	Temperatura media	13.2
24250	7	Sololá	701	Sololá	3	Barraneche	5	Mayo	2023-07-05T00:00:00	2024-11-06T07:00:00	4	Temperatura máxima	13.4
24251	7	Sololá	701	Sololá	3	Barraneche	5	Mayo	2023-07-05T00:00:00	2024-11-06T07:00:00	3	Temperatura mínima	11.5
24252	7	Sololá	701	Sololá	3	Barraneche	5	Mayo	2023-07-05T00:00:00	2024-11-06T07:00:00	5	Humedad	38
24253	7	Sololá	701	Sololá	3	Barraneche	5	Mayo	2023-07-05T00:00:00	2024-11-06T07:00:00	6	Velocidad del viento	4.8
24254	7	Sololá	701	Sololá	3	Barraneche	5	Mayo	2023-07-05T00:00:00	2024-11-06T07:00:00	7	Dirección del viento	4.83
24255	7	Sololá	701	Sololá	3	Barraneche	5	Mayo	2023-07-05T00:00:00	2024-11-06T07:00:00	1	Precipitación	0
24256	7	Sololá	701	Sololá	3	Barraneche	5	Mayo	2023-07-05T00:00:00	2024-11-06T07:00:00	8	Radiación solar	93
24257	7	Sololá	701	Sololá	3	Barraneche	5	Mayo	2023-07-05T00:00:00	2024-11-06T08:00:00	2	Temperatura media	18
24258	7	Sololá	701	Sololá	3	Barraneche	5	Mayo	2023-07-05T00:00:00	2024-11-06T08:00:00	4	Temperatura máxima	18
24259	7	Sololá	701	Sololá	3	Barraneche	5	Mayo	2023-07-05T00:00:00	2024-11-06T08:00:00	3	Temperatura mínima	13.2
24260	7	Sololá	701	Sololá	3	Barraneche	5	Mayo	2023-07-05T00:00:00	2024-11-06T08:00:00	5	Humedad	28
24261	7	Sololá	701	Sololá	3	Barraneche	5	Mayo	2023-07-05T00:00:00	2024-11-06T08:00:00	6	Velocidad del viento	3.2
24262	7	Sololá	701	Sololá	3	Barraneche	5	Mayo	2023-07-05T00:00:00	2024-11-06T08:00:00	7	Dirección del viento	3.22
24263	7	Sololá	701	Sololá	3	Barraneche	5	Mayo	2023-07-05T00:00:00	2024-11-06T08:00:00	1	Precipitación	0
24264	7	Sololá	701	Sololá	3	Barraneche	5	Mayo	2023-07-05T00:00:00	2024-11-06T08:00:00	8	Radiación solar	358
24265	7	Sololá	701	Sololá	3	Barraneche	5	Mayo	2023-07-05T00:00:00	2024-11-06T09:00:00	2	Temperatura media	19.7
24266	7	Sololá	701	Sololá	3	Barraneche	5	Mayo	2023-07-05T00:00:00	2024-11-06T09:00:00	4	Temperatura máxima	19.8
24267	7	Sololá	701	Sololá	3	Barraneche	5	Mayo	2023-07-05T00:00:00	2024-11-06T09:00:00	3	Temperatura mínima	18
24268	7	Sololá	701	Sololá	3	Barraneche	5	Mayo	2023-07-05T00:00:00	2024-11-06T09:00:00	5	Humedad	21
24269	7	Sololá	701	Sololá	3	Barraneche	5	Mayo	2023-07-05T00:00:00	2024-11-06T09:00:00	6	Velocidad del viento	11.3
24270	7	Sololá	701	Sololá	3	Barraneche	5	Mayo	2023-07-05T00:00:00	2024-11-06T09:00:00	7	Dirección del viento	11.27
24271	7	Sololá	701	Sololá	3	Barraneche	5	Mayo	2023-07-05T00:00:00	2024-11-06T09:00:00	1	Precipitación	0
24272	7	Sololá	701	Sololá	3	Barraneche	5	Mayo	2023-07-05T00:00:00	2024-11-06T09:00:00	8	Radiación solar	646
24273	7	Sololá	701	Sololá	3	Barraneche	5	Mayo	2023-07-05T00:00:00	2024-11-06T10:00:00	2	Temperatura media	20.6
24274	7	Sololá	701	Sololá	3	Barraneche	5	Mayo	2023-07-05T00:00:00	2024-11-06T10:00:00	4	Temperatura máxima	20.7
24275	7	Sololá	701	Sololá	3	Barraneche	5	Mayo	2023-07-05T00:00:00	2024-11-06T10:00:00	3	Temperatura mínima	19.6
24276	7	Sololá	701	Sololá	3	Barraneche	5	Mayo	2023-07-05T00:00:00	2024-11-06T10:00:00	5	Humedad	21
24277	7	Sololá	701	Sololá	3	Barraneche	5	Mayo	2023-07-05T00:00:00	2024-11-06T10:00:00	6	Velocidad del viento	12.9
24278	7	Sololá	701	Sololá	3	Barraneche	5	Mayo	2023-07-05T00:00:00	2024-11-06T10:00:00	7	Dirección del viento	12.87
24279	7	Sololá	701	Sololá	3	Barraneche	5	Mayo	2023-07-05T00:00:00	2024-11-06T10:00:00	1	Precipitación	0
24280	7	Sololá	701	Sololá	3	Barraneche	5	Mayo	2023-07-05T00:00:00	2024-11-06T10:00:00	8	Radiación solar	842
24281	7	Sololá	701	Sololá	3	Barraneche	5	Mayo	2023-07-05T00:00:00	2024-11-06T11:00:00	2	Temperatura media	21.6
24282	7	Sololá	701	Sololá	3	Barraneche	5	Mayo	2023-07-05T00:00:00	2024-11-06T11:00:00	4	Temperatura máxima	21.6
24283	7	Sololá	701	Sololá	3	Barraneche	5	Mayo	2023-07-05T00:00:00	2024-11-06T11:00:00	3	Temperatura mínima	20.6
24284	7	Sololá	701	Sololá	3	Barraneche	5	Mayo	2023-07-05T00:00:00	2024-11-06T11:00:00	5	Humedad	22
24285	7	Sololá	701	Sololá	3	Barraneche	5	Mayo	2023-07-05T00:00:00	2024-11-06T11:00:00	6	Velocidad del viento	11.3
24286	7	Sololá	701	Sololá	3	Barraneche	5	Mayo	2023-07-05T00:00:00	2024-11-06T11:00:00	7	Dirección del viento	11.27
24287	7	Sololá	701	Sololá	3	Barraneche	5	Mayo	2023-07-05T00:00:00	2024-11-06T11:00:00	1	Precipitación	0
24288	7	Sololá	701	Sololá	3	Barraneche	5	Mayo	2023-07-05T00:00:00	2024-11-06T11:00:00	8	Radiación solar	1000
24289	7	Sololá	701	Sololá	3	Barraneche	5	Mayo	2023-07-05T00:00:00	2024-11-06T12:00:00	2	Temperatura media	21.3
24290	7	Sololá	701	Sololá	3	Barraneche	5	Mayo	2023-07-05T00:00:00	2024-11-06T12:00:00	4	Temperatura máxima	21.6
24291	7	Sololá	701	Sololá	3	Barraneche	5	Mayo	2023-07-05T00:00:00	2024-11-06T12:00:00	3	Temperatura mínima	21.2
24292	7	Sololá	701	Sololá	3	Barraneche	5	Mayo	2023-07-05T00:00:00	2024-11-06T12:00:00	5	Humedad	20
24293	7	Sololá	701	Sololá	3	Barraneche	5	Mayo	2023-07-05T00:00:00	2024-11-06T12:00:00	6	Velocidad del viento	14.5
24294	7	Sololá	701	Sololá	3	Barraneche	5	Mayo	2023-07-05T00:00:00	2024-11-06T12:00:00	7	Dirección del viento	14.48
24295	7	Sololá	701	Sololá	3	Barraneche	5	Mayo	2023-07-05T00:00:00	2024-11-06T12:00:00	1	Precipitación	0
24296	7	Sololá	701	Sololá	3	Barraneche	5	Mayo	2023-07-05T00:00:00	2024-11-06T12:00:00	8	Radiación solar	1060
24297	7	Sololá	701	Sololá	3	Barraneche	5	Mayo	2023-07-05T00:00:00	2024-11-06T13:00:00	2	Temperatura media	21.9
24298	7	Sololá	701	Sololá	3	Barraneche	5	Mayo	2023-07-05T00:00:00	2024-11-06T13:00:00	4	Temperatura máxima	22.2
24299	7	Sololá	701	Sololá	3	Barraneche	5	Mayo	2023-07-05T00:00:00	2024-11-06T13:00:00	3	Temperatura mínima	21.3
24300	7	Sololá	701	Sololá	3	Barraneche	5	Mayo	2023-07-05T00:00:00	2024-11-06T13:00:00	5	Humedad	18
24301	7	Sololá	701	Sololá	3	Barraneche	5	Mayo	2023-07-05T00:00:00	2024-11-06T13:00:00	6	Velocidad del viento	12.9
24302	7	Sololá	701	Sololá	3	Barraneche	5	Mayo	2023-07-05T00:00:00	2024-11-06T13:00:00	7	Dirección del viento	12.87
24303	7	Sololá	701	Sololá	3	Barraneche	5	Mayo	2023-07-05T00:00:00	2024-11-06T13:00:00	1	Precipitación	0
24304	7	Sololá	701	Sololá	3	Barraneche	5	Mayo	2023-07-05T00:00:00	2024-11-06T13:00:00	8	Radiación solar	1045
24305	7	Sololá	701	Sololá	3	Barraneche	5	Mayo	2023-07-05T00:00:00	2024-11-06T14:00:00	2	Temperatura media	22.6
24306	7	Sololá	701	Sololá	3	Barraneche	5	Mayo	2023-07-05T00:00:00	2024-11-06T14:00:00	4	Temperatura máxima	22.6
24307	7	Sololá	701	Sololá	3	Barraneche	5	Mayo	2023-07-05T00:00:00	2024-11-06T14:00:00	3	Temperatura mínima	21.9
24308	7	Sololá	701	Sololá	3	Barraneche	5	Mayo	2023-07-05T00:00:00	2024-11-06T14:00:00	5	Humedad	14
24309	7	Sololá	701	Sololá	3	Barraneche	5	Mayo	2023-07-05T00:00:00	2024-11-06T14:00:00	6	Velocidad del viento	12.9
24310	7	Sololá	701	Sololá	3	Barraneche	5	Mayo	2023-07-05T00:00:00	2024-11-06T14:00:00	7	Dirección del viento	12.87
24311	7	Sololá	701	Sololá	3	Barraneche	5	Mayo	2023-07-05T00:00:00	2024-11-06T14:00:00	1	Precipitación	0
24312	7	Sololá	701	Sololá	3	Barraneche	5	Mayo	2023-07-05T00:00:00	2024-11-06T14:00:00	8	Radiación solar	989
24313	7	Sololá	701	Sololá	3	Barraneche	5	Mayo	2023-07-05T00:00:00	2024-11-06T15:00:00	2	Temperatura media	22.9
24314	7	Sololá	701	Sololá	3	Barraneche	5	Mayo	2023-07-05T00:00:00	2024-11-06T15:00:00	4	Temperatura máxima	23.4
24315	7	Sololá	701	Sololá	3	Barraneche	5	Mayo	2023-07-05T00:00:00	2024-11-06T15:00:00	3	Temperatura mínima	22.6
24316	7	Sololá	701	Sololá	3	Barraneche	5	Mayo	2023-07-05T00:00:00	2024-11-06T15:00:00	5	Humedad	15
24317	7	Sololá	701	Sololá	3	Barraneche	5	Mayo	2023-07-05T00:00:00	2024-11-06T15:00:00	6	Velocidad del viento	11.3
24318	7	Sololá	701	Sololá	3	Barraneche	5	Mayo	2023-07-05T00:00:00	2024-11-06T15:00:00	7	Dirección del viento	11.27
24319	7	Sololá	701	Sololá	3	Barraneche	5	Mayo	2023-07-05T00:00:00	2024-11-06T15:00:00	1	Precipitación	0
24320	7	Sololá	701	Sololá	3	Barraneche	5	Mayo	2023-07-05T00:00:00	2024-11-06T15:00:00	8	Radiación solar	846
24321	7	Sololá	701	Sololá	3	Barraneche	5	Mayo	2023-07-05T00:00:00	2024-11-06T16:00:00	2	Temperatura media	22.5
24322	7	Sololá	701	Sololá	3	Barraneche	5	Mayo	2023-07-05T00:00:00	2024-11-06T16:00:00	4	Temperatura máxima	22.9
24323	7	Sololá	701	Sololá	3	Barraneche	5	Mayo	2023-07-05T00:00:00	2024-11-06T16:00:00	3	Temperatura mínima	22.3
24324	7	Sololá	701	Sololá	3	Barraneche	5	Mayo	2023-07-05T00:00:00	2024-11-06T16:00:00	5	Humedad	24
24325	7	Sololá	701	Sololá	3	Barraneche	5	Mayo	2023-07-05T00:00:00	2024-11-06T16:00:00	6	Velocidad del viento	11.3
24326	7	Sololá	701	Sololá	3	Barraneche	5	Mayo	2023-07-05T00:00:00	2024-11-06T16:00:00	7	Dirección del viento	11.27
24327	7	Sololá	701	Sololá	3	Barraneche	5	Mayo	2023-07-05T00:00:00	2024-11-06T16:00:00	1	Precipitación	0
24328	7	Sololá	701	Sololá	3	Barraneche	5	Mayo	2023-07-05T00:00:00	2024-11-06T16:00:00	8	Radiación solar	626
24329	7	Sololá	701	Sololá	3	Barraneche	5	Mayo	2023-07-05T00:00:00	2024-11-06T17:00:00	2	Temperatura media	21.2
24330	7	Sololá	701	Sololá	3	Barraneche	5	Mayo	2023-07-05T00:00:00	2024-11-06T17:00:00	4	Temperatura máxima	22.6
24331	7	Sololá	701	Sololá	3	Barraneche	5	Mayo	2023-07-05T00:00:00	2024-11-06T17:00:00	3	Temperatura mínima	21.2
24332	7	Sololá	701	Sololá	3	Barraneche	5	Mayo	2023-07-05T00:00:00	2024-11-06T17:00:00	5	Humedad	34
24333	7	Sololá	701	Sololá	3	Barraneche	5	Mayo	2023-07-05T00:00:00	2024-11-06T17:00:00	6	Velocidad del viento	11.3
24334	7	Sololá	701	Sololá	3	Barraneche	5	Mayo	2023-07-05T00:00:00	2024-11-06T17:00:00	7	Dirección del viento	11.27
24335	7	Sololá	701	Sololá	3	Barraneche	5	Mayo	2023-07-05T00:00:00	2024-11-06T17:00:00	1	Precipitación	0
24336	7	Sololá	701	Sololá	3	Barraneche	5	Mayo	2023-07-05T00:00:00	2024-11-06T17:00:00	8	Radiación solar	378
24337	7	Sololá	701	Sololá	3	Barraneche	5	Mayo	2023-07-05T00:00:00	2024-11-06T18:00:00	2	Temperatura media	19.9
24338	7	Sololá	701	Sololá	3	Barraneche	5	Mayo	2023-07-05T00:00:00	2024-11-06T18:00:00	4	Temperatura máxima	21.2
24339	7	Sololá	701	Sololá	3	Barraneche	5	Mayo	2023-07-05T00:00:00	2024-11-06T18:00:00	3	Temperatura mínima	19.9
24340	7	Sololá	701	Sololá	3	Barraneche	5	Mayo	2023-07-05T00:00:00	2024-11-06T18:00:00	5	Humedad	37
24341	7	Sololá	701	Sololá	3	Barraneche	5	Mayo	2023-07-05T00:00:00	2024-11-06T18:00:00	6	Velocidad del viento	9.7
24342	7	Sololá	701	Sololá	3	Barraneche	5	Mayo	2023-07-05T00:00:00	2024-11-06T18:00:00	7	Dirección del viento	9.66
24343	7	Sololá	701	Sololá	3	Barraneche	5	Mayo	2023-07-05T00:00:00	2024-11-06T18:00:00	1	Precipitación	0
24344	7	Sololá	701	Sololá	3	Barraneche	5	Mayo	2023-07-05T00:00:00	2024-11-06T18:00:00	8	Radiación solar	123
24345	7	Sololá	701	Sololá	3	Barraneche	5	Mayo	2023-07-05T00:00:00	2024-11-06T19:00:00	2	Temperatura media	17.9
24346	7	Sololá	701	Sololá	3	Barraneche	5	Mayo	2023-07-05T00:00:00	2024-11-06T19:00:00	4	Temperatura máxima	19.9
24347	7	Sololá	701	Sololá	3	Barraneche	5	Mayo	2023-07-05T00:00:00	2024-11-06T19:00:00	3	Temperatura mínima	17.9
24348	7	Sololá	701	Sololá	3	Barraneche	5	Mayo	2023-07-05T00:00:00	2024-11-06T19:00:00	5	Humedad	49
24349	7	Sololá	701	Sololá	3	Barraneche	5	Mayo	2023-07-05T00:00:00	2024-11-06T19:00:00	6	Velocidad del viento	9.7
24350	7	Sololá	701	Sololá	3	Barraneche	5	Mayo	2023-07-05T00:00:00	2024-11-06T19:00:00	7	Dirección del viento	9.66
24351	7	Sololá	701	Sololá	3	Barraneche	5	Mayo	2023-07-05T00:00:00	2024-11-06T19:00:00	1	Precipitación	0
24352	7	Sololá	701	Sololá	3	Barraneche	5	Mayo	2023-07-05T00:00:00	2024-11-06T19:00:00	8	Radiación solar	0
24353	7	Sololá	701	Sololá	3	Barraneche	5	Mayo	2023-07-05T00:00:00	2024-11-06T20:00:00	2	Temperatura media	16.5
24354	7	Sololá	701	Sololá	3	Barraneche	5	Mayo	2023-07-05T00:00:00	2024-11-06T20:00:00	4	Temperatura máxima	18
24355	7	Sololá	701	Sololá	3	Barraneche	5	Mayo	2023-07-05T00:00:00	2024-11-06T20:00:00	3	Temperatura mínima	16.5
24356	7	Sololá	701	Sololá	3	Barraneche	5	Mayo	2023-07-05T00:00:00	2024-11-06T20:00:00	5	Humedad	56
24357	7	Sololá	701	Sololá	3	Barraneche	5	Mayo	2023-07-05T00:00:00	2024-11-06T20:00:00	6	Velocidad del viento	6.4
24358	7	Sololá	701	Sololá	3	Barraneche	5	Mayo	2023-07-05T00:00:00	2024-11-06T20:00:00	7	Dirección del viento	6.44
24359	7	Sololá	701	Sololá	3	Barraneche	5	Mayo	2023-07-05T00:00:00	2024-11-06T20:00:00	1	Precipitación	0
24360	7	Sololá	701	Sololá	3	Barraneche	5	Mayo	2023-07-05T00:00:00	2024-11-06T20:00:00	8	Radiación solar	0
24361	7	Sololá	701	Sololá	3	Barraneche	5	Mayo	2023-07-05T00:00:00	2024-11-06T21:00:00	2	Temperatura media	15.8
24362	7	Sololá	701	Sololá	3	Barraneche	5	Mayo	2023-07-05T00:00:00	2024-11-06T21:00:00	4	Temperatura máxima	16.6
24363	7	Sololá	701	Sololá	3	Barraneche	5	Mayo	2023-07-05T00:00:00	2024-11-06T21:00:00	3	Temperatura mínima	15.7
24364	7	Sololá	701	Sololá	3	Barraneche	5	Mayo	2023-07-05T00:00:00	2024-11-06T21:00:00	5	Humedad	58
24365	7	Sololá	701	Sololá	3	Barraneche	5	Mayo	2023-07-05T00:00:00	2024-11-06T21:00:00	6	Velocidad del viento	8
24366	7	Sololá	701	Sololá	3	Barraneche	5	Mayo	2023-07-05T00:00:00	2024-11-06T21:00:00	7	Dirección del viento	8.05
24367	7	Sololá	701	Sololá	3	Barraneche	5	Mayo	2023-07-05T00:00:00	2024-11-06T21:00:00	1	Precipitación	0
24368	7	Sololá	701	Sololá	3	Barraneche	5	Mayo	2023-07-05T00:00:00	2024-11-06T21:00:00	8	Radiación solar	0
24369	7	Sololá	701	Sololá	3	Barraneche	5	Mayo	2023-07-05T00:00:00	2024-11-06T22:00:00	2	Temperatura media	15.5
24370	7	Sololá	701	Sololá	3	Barraneche	5	Mayo	2023-07-05T00:00:00	2024-11-06T22:00:00	4	Temperatura máxima	15.8
24371	7	Sololá	701	Sololá	3	Barraneche	5	Mayo	2023-07-05T00:00:00	2024-11-06T22:00:00	3	Temperatura mínima	15.2
24372	7	Sololá	701	Sololá	3	Barraneche	5	Mayo	2023-07-05T00:00:00	2024-11-06T22:00:00	5	Humedad	51
24373	7	Sololá	701	Sololá	3	Barraneche	5	Mayo	2023-07-05T00:00:00	2024-11-06T22:00:00	6	Velocidad del viento	8
24374	7	Sololá	701	Sololá	3	Barraneche	5	Mayo	2023-07-05T00:00:00	2024-11-06T22:00:00	7	Dirección del viento	8.05
24375	7	Sololá	701	Sololá	3	Barraneche	5	Mayo	2023-07-05T00:00:00	2024-11-06T22:00:00	1	Precipitación	0
24376	7	Sololá	701	Sololá	3	Barraneche	5	Mayo	2023-07-05T00:00:00	2024-11-06T22:00:00	8	Radiación solar	0
24377	7	Sololá	701	Sololá	3	Barraneche	5	Mayo	2023-07-05T00:00:00	2024-11-06T23:00:00	2	Temperatura media	13.6
24378	7	Sololá	701	Sololá	3	Barraneche	5	Mayo	2023-07-05T00:00:00	2024-11-06T23:00:00	4	Temperatura máxima	16.9
24379	7	Sololá	701	Sololá	3	Barraneche	5	Mayo	2023-07-05T00:00:00	2024-11-06T23:00:00	3	Temperatura mínima	13.6
24380	7	Sololá	701	Sololá	3	Barraneche	5	Mayo	2023-07-05T00:00:00	2024-11-06T23:00:00	5	Humedad	45
24381	7	Sololá	701	Sololá	3	Barraneche	5	Mayo	2023-07-05T00:00:00	2024-11-06T23:00:00	6	Velocidad del viento	4.8
24382	7	Sololá	701	Sololá	3	Barraneche	5	Mayo	2023-07-05T00:00:00	2024-11-06T23:00:00	7	Dirección del viento	4.83
24383	7	Sololá	701	Sololá	3	Barraneche	5	Mayo	2023-07-05T00:00:00	2024-11-06T23:00:00	1	Precipitación	0
24384	7	Sololá	701	Sololá	3	Barraneche	5	Mayo	2023-07-05T00:00:00	2024-11-06T23:00:00	8	Radiación solar	0
24385	7	Sololá	701	Sololá	3	Barraneche	5	Mayo	2023-08-05T00:00:00	2024-11-06T00:00:00	2	Temperatura media	13
24386	7	Sololá	701	Sololá	3	Barraneche	5	Mayo	2023-08-05T00:00:00	2024-11-06T00:00:00	4	Temperatura máxima	13.7
24387	7	Sololá	701	Sololá	3	Barraneche	5	Mayo	2023-08-05T00:00:00	2024-11-06T00:00:00	3	Temperatura mínima	12.7
24388	7	Sololá	701	Sololá	3	Barraneche	5	Mayo	2023-08-05T00:00:00	2024-11-06T00:00:00	5	Humedad	37
24389	7	Sololá	701	Sololá	3	Barraneche	5	Mayo	2023-08-05T00:00:00	2024-11-06T00:00:00	6	Velocidad del viento	6.4
24390	7	Sololá	701	Sololá	3	Barraneche	5	Mayo	2023-08-05T00:00:00	2024-11-06T00:00:00	7	Dirección del viento	6.44
24391	7	Sololá	701	Sololá	3	Barraneche	5	Mayo	2023-08-05T00:00:00	2024-11-06T00:00:00	1	Precipitación	0
24392	7	Sololá	701	Sololá	3	Barraneche	5	Mayo	2023-08-05T00:00:00	2024-11-06T00:00:00	8	Radiación solar	0
24393	7	Sololá	701	Sololá	3	Barraneche	5	Mayo	2023-08-05T00:00:00	2024-11-06T01:00:00	2	Temperatura media	11.7
24394	7	Sololá	701	Sololá	3	Barraneche	5	Mayo	2023-08-05T00:00:00	2024-11-06T01:00:00	4	Temperatura máxima	13.4
24395	7	Sololá	701	Sololá	3	Barraneche	5	Mayo	2023-08-05T00:00:00	2024-11-06T01:00:00	3	Temperatura mínima	11.6
24396	7	Sololá	701	Sololá	3	Barraneche	5	Mayo	2023-08-05T00:00:00	2024-11-06T01:00:00	5	Humedad	43
24397	7	Sololá	701	Sololá	3	Barraneche	5	Mayo	2023-08-05T00:00:00	2024-11-06T01:00:00	6	Velocidad del viento	4.8
24398	7	Sololá	701	Sololá	3	Barraneche	5	Mayo	2023-08-05T00:00:00	2024-11-06T01:00:00	7	Dirección del viento	4.83
24399	7	Sololá	701	Sololá	3	Barraneche	5	Mayo	2023-08-05T00:00:00	2024-11-06T01:00:00	1	Precipitación	0
24400	7	Sololá	701	Sololá	3	Barraneche	5	Mayo	2023-08-05T00:00:00	2024-11-06T01:00:00	8	Radiación solar	0
24401	7	Sololá	701	Sololá	3	Barraneche	5	Mayo	2023-08-05T00:00:00	2024-11-06T02:00:00	2	Temperatura media	11.4
24402	7	Sololá	701	Sololá	3	Barraneche	5	Mayo	2023-08-05T00:00:00	2024-11-06T02:00:00	4	Temperatura máxima	11.8
24403	7	Sololá	701	Sololá	3	Barraneche	5	Mayo	2023-08-05T00:00:00	2024-11-06T02:00:00	3	Temperatura mínima	11
24404	7	Sololá	701	Sololá	3	Barraneche	5	Mayo	2023-08-05T00:00:00	2024-11-06T02:00:00	5	Humedad	45
24405	7	Sololá	701	Sololá	3	Barraneche	5	Mayo	2023-08-05T00:00:00	2024-11-06T02:00:00	6	Velocidad del viento	6.4
24406	7	Sololá	701	Sololá	3	Barraneche	5	Mayo	2023-08-05T00:00:00	2024-11-06T02:00:00	7	Dirección del viento	6.44
24407	7	Sololá	701	Sololá	3	Barraneche	5	Mayo	2023-08-05T00:00:00	2024-11-06T02:00:00	1	Precipitación	0
24408	7	Sololá	701	Sololá	3	Barraneche	5	Mayo	2023-08-05T00:00:00	2024-11-06T02:00:00	8	Radiación solar	0
24409	7	Sololá	701	Sololá	3	Barraneche	5	Mayo	2023-08-05T00:00:00	2024-11-06T03:00:00	2	Temperatura media	11.9
24410	7	Sololá	701	Sololá	3	Barraneche	5	Mayo	2023-08-05T00:00:00	2024-11-06T03:00:00	4	Temperatura máxima	11.9
24411	7	Sololá	701	Sololá	3	Barraneche	5	Mayo	2023-08-05T00:00:00	2024-11-06T03:00:00	3	Temperatura mínima	11.1
24412	7	Sololá	701	Sololá	3	Barraneche	5	Mayo	2023-08-05T00:00:00	2024-11-06T03:00:00	5	Humedad	41
24413	7	Sololá	701	Sololá	3	Barraneche	5	Mayo	2023-08-05T00:00:00	2024-11-06T03:00:00	6	Velocidad del viento	9.7
24414	7	Sololá	701	Sololá	3	Barraneche	5	Mayo	2023-08-05T00:00:00	2024-11-06T03:00:00	7	Dirección del viento	9.66
24415	7	Sololá	701	Sololá	3	Barraneche	5	Mayo	2023-08-05T00:00:00	2024-11-06T03:00:00	1	Precipitación	0
24416	7	Sololá	701	Sololá	3	Barraneche	5	Mayo	2023-08-05T00:00:00	2024-11-06T03:00:00	8	Radiación solar	0
24417	7	Sololá	701	Sololá	3	Barraneche	5	Mayo	2023-08-05T00:00:00	2024-11-06T04:00:00	2	Temperatura media	11.7
24418	7	Sololá	701	Sololá	3	Barraneche	5	Mayo	2023-08-05T00:00:00	2024-11-06T04:00:00	4	Temperatura máxima	12.2
24419	7	Sololá	701	Sololá	3	Barraneche	5	Mayo	2023-08-05T00:00:00	2024-11-06T04:00:00	3	Temperatura mínima	11.7
24420	7	Sololá	701	Sololá	3	Barraneche	5	Mayo	2023-08-05T00:00:00	2024-11-06T04:00:00	5	Humedad	41
24421	7	Sololá	701	Sololá	3	Barraneche	5	Mayo	2023-08-05T00:00:00	2024-11-06T04:00:00	6	Velocidad del viento	8
24422	7	Sololá	701	Sololá	3	Barraneche	5	Mayo	2023-08-05T00:00:00	2024-11-06T04:00:00	7	Dirección del viento	8.05
24423	7	Sololá	701	Sololá	3	Barraneche	5	Mayo	2023-08-05T00:00:00	2024-11-06T04:00:00	1	Precipitación	0
24424	7	Sololá	701	Sololá	3	Barraneche	5	Mayo	2023-08-05T00:00:00	2024-11-06T04:00:00	8	Radiación solar	0
24425	7	Sololá	701	Sololá	3	Barraneche	5	Mayo	2023-08-05T00:00:00	2024-11-06T05:00:00	2	Temperatura media	10.7
24426	7	Sololá	701	Sololá	3	Barraneche	5	Mayo	2023-08-05T00:00:00	2024-11-06T05:00:00	4	Temperatura máxima	11.7
24427	7	Sololá	701	Sololá	3	Barraneche	5	Mayo	2023-08-05T00:00:00	2024-11-06T05:00:00	3	Temperatura mínima	10.6
24428	7	Sololá	701	Sololá	3	Barraneche	5	Mayo	2023-08-05T00:00:00	2024-11-06T05:00:00	5	Humedad	46
24429	7	Sololá	701	Sololá	3	Barraneche	5	Mayo	2023-08-05T00:00:00	2024-11-06T05:00:00	6	Velocidad del viento	8
24430	7	Sololá	701	Sololá	3	Barraneche	5	Mayo	2023-08-05T00:00:00	2024-11-06T05:00:00	7	Dirección del viento	8.05
24431	7	Sololá	701	Sololá	3	Barraneche	5	Mayo	2023-08-05T00:00:00	2024-11-06T05:00:00	1	Precipitación	0
24432	7	Sololá	701	Sololá	3	Barraneche	5	Mayo	2023-08-05T00:00:00	2024-11-06T05:00:00	8	Radiación solar	0
24433	7	Sololá	701	Sololá	3	Barraneche	5	Mayo	2023-08-05T00:00:00	2024-11-06T06:00:00	2	Temperatura media	11.6
24434	7	Sololá	701	Sololá	3	Barraneche	5	Mayo	2023-08-05T00:00:00	2024-11-06T06:00:00	4	Temperatura máxima	11.6
24435	7	Sololá	701	Sololá	3	Barraneche	5	Mayo	2023-08-05T00:00:00	2024-11-06T06:00:00	3	Temperatura mínima	10.4
24436	7	Sololá	701	Sololá	3	Barraneche	5	Mayo	2023-08-05T00:00:00	2024-11-06T06:00:00	5	Humedad	44
24437	7	Sololá	701	Sololá	3	Barraneche	5	Mayo	2023-08-05T00:00:00	2024-11-06T06:00:00	6	Velocidad del viento	9.7
24438	7	Sololá	701	Sololá	3	Barraneche	5	Mayo	2023-08-05T00:00:00	2024-11-06T06:00:00	7	Dirección del viento	9.66
24439	7	Sololá	701	Sololá	3	Barraneche	5	Mayo	2023-08-05T00:00:00	2024-11-06T06:00:00	1	Precipitación	0
24440	7	Sololá	701	Sololá	3	Barraneche	5	Mayo	2023-08-05T00:00:00	2024-11-06T06:00:00	8	Radiación solar	7
24441	7	Sololá	701	Sololá	3	Barraneche	5	Mayo	2023-08-05T00:00:00	2024-11-06T07:00:00	2	Temperatura media	13.2
24442	7	Sololá	701	Sololá	3	Barraneche	5	Mayo	2023-08-05T00:00:00	2024-11-06T07:00:00	4	Temperatura máxima	13.2
24443	7	Sololá	701	Sololá	3	Barraneche	5	Mayo	2023-08-05T00:00:00	2024-11-06T07:00:00	3	Temperatura mínima	10.8
24444	7	Sololá	701	Sololá	3	Barraneche	5	Mayo	2023-08-05T00:00:00	2024-11-06T07:00:00	5	Humedad	46
24445	7	Sololá	701	Sololá	3	Barraneche	5	Mayo	2023-08-05T00:00:00	2024-11-06T07:00:00	6	Velocidad del viento	4.8
24446	7	Sololá	701	Sololá	3	Barraneche	5	Mayo	2023-08-05T00:00:00	2024-11-06T07:00:00	7	Dirección del viento	4.83
24447	7	Sololá	701	Sololá	3	Barraneche	5	Mayo	2023-08-05T00:00:00	2024-11-06T07:00:00	1	Precipitación	0
24448	7	Sololá	701	Sololá	3	Barraneche	5	Mayo	2023-08-05T00:00:00	2024-11-06T07:00:00	8	Radiación solar	112
24449	7	Sololá	701	Sololá	3	Barraneche	5	Mayo	2023-08-05T00:00:00	2024-11-06T08:00:00	2	Temperatura media	17.2
24450	7	Sololá	701	Sololá	3	Barraneche	5	Mayo	2023-08-05T00:00:00	2024-11-06T08:00:00	4	Temperatura máxima	17.2
24451	7	Sololá	701	Sololá	3	Barraneche	5	Mayo	2023-08-05T00:00:00	2024-11-06T08:00:00	3	Temperatura mínima	13.3
24452	7	Sololá	701	Sololá	3	Barraneche	5	Mayo	2023-08-05T00:00:00	2024-11-06T08:00:00	5	Humedad	38
24453	7	Sololá	701	Sololá	3	Barraneche	5	Mayo	2023-08-05T00:00:00	2024-11-06T08:00:00	6	Velocidad del viento	3.2
24454	7	Sololá	701	Sololá	3	Barraneche	5	Mayo	2023-08-05T00:00:00	2024-11-06T08:00:00	7	Dirección del viento	3.22
24455	7	Sololá	701	Sololá	3	Barraneche	5	Mayo	2023-08-05T00:00:00	2024-11-06T08:00:00	1	Precipitación	0
24456	7	Sololá	701	Sololá	3	Barraneche	5	Mayo	2023-08-05T00:00:00	2024-11-06T08:00:00	8	Radiación solar	382
24457	7	Sololá	701	Sololá	3	Barraneche	5	Mayo	2023-08-05T00:00:00	2024-11-06T09:00:00	2	Temperatura media	20.7
24458	7	Sololá	701	Sololá	3	Barraneche	5	Mayo	2023-08-05T00:00:00	2024-11-06T09:00:00	4	Temperatura máxima	20.7
24459	7	Sololá	701	Sololá	3	Barraneche	5	Mayo	2023-08-05T00:00:00	2024-11-06T09:00:00	3	Temperatura mínima	17.2
24460	7	Sololá	701	Sololá	3	Barraneche	5	Mayo	2023-08-05T00:00:00	2024-11-06T09:00:00	5	Humedad	19
24461	7	Sololá	701	Sololá	3	Barraneche	5	Mayo	2023-08-05T00:00:00	2024-11-06T09:00:00	6	Velocidad del viento	11.3
24462	7	Sololá	701	Sololá	3	Barraneche	5	Mayo	2023-08-05T00:00:00	2024-11-06T09:00:00	7	Dirección del viento	11.27
24463	7	Sololá	701	Sololá	3	Barraneche	5	Mayo	2023-08-05T00:00:00	2024-11-06T09:00:00	1	Precipitación	0
24464	7	Sololá	701	Sololá	3	Barraneche	5	Mayo	2023-08-05T00:00:00	2024-11-06T09:00:00	8	Radiación solar	610
24465	7	Sololá	701	Sololá	3	Barraneche	5	Mayo	2023-08-05T00:00:00	2024-11-06T10:00:00	2	Temperatura media	21.3
24466	7	Sololá	701	Sololá	3	Barraneche	5	Mayo	2023-08-05T00:00:00	2024-11-06T10:00:00	4	Temperatura máxima	21.4
24467	7	Sololá	701	Sololá	3	Barraneche	5	Mayo	2023-08-05T00:00:00	2024-11-06T10:00:00	3	Temperatura mínima	20.7
24468	7	Sololá	701	Sololá	3	Barraneche	5	Mayo	2023-08-05T00:00:00	2024-11-06T10:00:00	5	Humedad	24
24469	7	Sololá	701	Sololá	3	Barraneche	5	Mayo	2023-08-05T00:00:00	2024-11-06T10:00:00	6	Velocidad del viento	8
24470	7	Sololá	701	Sololá	3	Barraneche	5	Mayo	2023-08-05T00:00:00	2024-11-06T10:00:00	7	Dirección del viento	8.05
24471	7	Sololá	701	Sololá	3	Barraneche	5	Mayo	2023-08-05T00:00:00	2024-11-06T10:00:00	1	Precipitación	0
24472	7	Sololá	701	Sololá	3	Barraneche	5	Mayo	2023-08-05T00:00:00	2024-11-06T10:00:00	8	Radiación solar	835
24473	7	Sololá	701	Sololá	3	Barraneche	5	Mayo	2023-08-05T00:00:00	2024-11-06T11:00:00	2	Temperatura media	21.6
24474	7	Sololá	701	Sololá	3	Barraneche	5	Mayo	2023-08-05T00:00:00	2024-11-06T11:00:00	4	Temperatura máxima	21.6
24475	7	Sololá	701	Sololá	3	Barraneche	5	Mayo	2023-08-05T00:00:00	2024-11-06T11:00:00	3	Temperatura mínima	20.9
24476	7	Sololá	701	Sololá	3	Barraneche	5	Mayo	2023-08-05T00:00:00	2024-11-06T11:00:00	5	Humedad	25
24477	7	Sololá	701	Sololá	3	Barraneche	5	Mayo	2023-08-05T00:00:00	2024-11-06T11:00:00	6	Velocidad del viento	14.5
24478	7	Sololá	701	Sololá	3	Barraneche	5	Mayo	2023-08-05T00:00:00	2024-11-06T11:00:00	7	Dirección del viento	14.48
24479	7	Sololá	701	Sololá	3	Barraneche	5	Mayo	2023-08-05T00:00:00	2024-11-06T11:00:00	1	Precipitación	0
24480	7	Sololá	701	Sololá	3	Barraneche	5	Mayo	2023-08-05T00:00:00	2024-11-06T11:00:00	8	Radiación solar	971
24481	7	Sololá	701	Sololá	3	Barraneche	5	Mayo	2023-08-05T00:00:00	2024-11-06T12:00:00	2	Temperatura media	21.6
24482	7	Sololá	701	Sololá	3	Barraneche	5	Mayo	2023-08-05T00:00:00	2024-11-06T12:00:00	4	Temperatura máxima	21.9
24483	7	Sololá	701	Sololá	3	Barraneche	5	Mayo	2023-08-05T00:00:00	2024-11-06T12:00:00	3	Temperatura mínima	21.2
24484	7	Sololá	701	Sololá	3	Barraneche	5	Mayo	2023-08-05T00:00:00	2024-11-06T12:00:00	5	Humedad	25
24485	7	Sololá	701	Sololá	3	Barraneche	5	Mayo	2023-08-05T00:00:00	2024-11-06T12:00:00	6	Velocidad del viento	16.1
24486	7	Sololá	701	Sololá	3	Barraneche	5	Mayo	2023-08-05T00:00:00	2024-11-06T12:00:00	7	Dirección del viento	16.09
24487	7	Sololá	701	Sololá	3	Barraneche	5	Mayo	2023-08-05T00:00:00	2024-11-06T12:00:00	1	Precipitación	0
24488	7	Sololá	701	Sololá	3	Barraneche	5	Mayo	2023-08-05T00:00:00	2024-11-06T12:00:00	8	Radiación solar	1041
24489	7	Sololá	701	Sololá	3	Barraneche	5	Mayo	2023-08-05T00:00:00	2024-11-06T13:00:00	2	Temperatura media	21.9
24490	7	Sololá	701	Sololá	3	Barraneche	5	Mayo	2023-08-05T00:00:00	2024-11-06T13:00:00	4	Temperatura máxima	22.3
24491	7	Sololá	701	Sololá	3	Barraneche	5	Mayo	2023-08-05T00:00:00	2024-11-06T13:00:00	3	Temperatura mínima	21.6
24492	7	Sololá	701	Sololá	3	Barraneche	5	Mayo	2023-08-05T00:00:00	2024-11-06T13:00:00	5	Humedad	27
24493	7	Sololá	701	Sololá	3	Barraneche	5	Mayo	2023-08-05T00:00:00	2024-11-06T13:00:00	6	Velocidad del viento	16.1
24494	7	Sololá	701	Sololá	3	Barraneche	5	Mayo	2023-08-05T00:00:00	2024-11-06T13:00:00	7	Dirección del viento	16.09
24495	7	Sololá	701	Sololá	3	Barraneche	5	Mayo	2023-08-05T00:00:00	2024-11-06T13:00:00	1	Precipitación	0
24496	7	Sololá	701	Sololá	3	Barraneche	5	Mayo	2023-08-05T00:00:00	2024-11-06T13:00:00	8	Radiación solar	1030
24497	7	Sololá	701	Sololá	3	Barraneche	5	Mayo	2023-08-05T00:00:00	2024-11-06T14:00:00	2	Temperatura media	22.4
24498	7	Sololá	701	Sololá	3	Barraneche	5	Mayo	2023-08-05T00:00:00	2024-11-06T14:00:00	4	Temperatura máxima	22.8
24499	7	Sololá	701	Sololá	3	Barraneche	5	Mayo	2023-08-05T00:00:00	2024-11-06T14:00:00	3	Temperatura mínima	21.8
24500	7	Sololá	701	Sololá	3	Barraneche	5	Mayo	2023-08-05T00:00:00	2024-11-06T14:00:00	5	Humedad	33
24501	7	Sololá	701	Sololá	3	Barraneche	5	Mayo	2023-08-05T00:00:00	2024-11-06T14:00:00	6	Velocidad del viento	12.9
24502	7	Sololá	701	Sololá	3	Barraneche	5	Mayo	2023-08-05T00:00:00	2024-11-06T14:00:00	7	Dirección del viento	12.87
24503	7	Sololá	701	Sololá	3	Barraneche	5	Mayo	2023-08-05T00:00:00	2024-11-06T14:00:00	1	Precipitación	0
24504	7	Sololá	701	Sololá	3	Barraneche	5	Mayo	2023-08-05T00:00:00	2024-11-06T14:00:00	8	Radiación solar	948
24505	7	Sololá	701	Sololá	3	Barraneche	5	Mayo	2023-08-05T00:00:00	2024-11-06T15:00:00	2	Temperatura media	21.9
24506	7	Sololá	701	Sololá	3	Barraneche	5	Mayo	2023-08-05T00:00:00	2024-11-06T15:00:00	4	Temperatura máxima	22.4
24507	7	Sololá	701	Sololá	3	Barraneche	5	Mayo	2023-08-05T00:00:00	2024-11-06T15:00:00	3	Temperatura mínima	21.7
24508	7	Sololá	701	Sololá	3	Barraneche	5	Mayo	2023-08-05T00:00:00	2024-11-06T15:00:00	5	Humedad	36
24509	7	Sololá	701	Sololá	3	Barraneche	5	Mayo	2023-08-05T00:00:00	2024-11-06T15:00:00	6	Velocidad del viento	11.3
24510	7	Sololá	701	Sololá	3	Barraneche	5	Mayo	2023-08-05T00:00:00	2024-11-06T15:00:00	7	Dirección del viento	11.27
24511	7	Sololá	701	Sololá	3	Barraneche	5	Mayo	2023-08-05T00:00:00	2024-11-06T15:00:00	1	Precipitación	0
24512	7	Sololá	701	Sololá	3	Barraneche	5	Mayo	2023-08-05T00:00:00	2024-11-06T15:00:00	8	Radiación solar	816
24513	7	Sololá	701	Sololá	3	Barraneche	5	Mayo	2023-08-05T00:00:00	2024-11-06T16:00:00	2	Temperatura media	20.8
24514	7	Sololá	701	Sololá	3	Barraneche	5	Mayo	2023-08-05T00:00:00	2024-11-06T16:00:00	4	Temperatura máxima	22
24515	7	Sololá	701	Sololá	3	Barraneche	5	Mayo	2023-08-05T00:00:00	2024-11-06T16:00:00	3	Temperatura mínima	20.8
24516	7	Sololá	701	Sololá	3	Barraneche	5	Mayo	2023-08-05T00:00:00	2024-11-06T16:00:00	5	Humedad	57
24517	7	Sololá	701	Sololá	3	Barraneche	5	Mayo	2023-08-05T00:00:00	2024-11-06T16:00:00	6	Velocidad del viento	12.9
24518	7	Sololá	701	Sololá	3	Barraneche	5	Mayo	2023-08-05T00:00:00	2024-11-06T16:00:00	7	Dirección del viento	12.87
24519	7	Sololá	701	Sololá	3	Barraneche	5	Mayo	2023-08-05T00:00:00	2024-11-06T16:00:00	1	Precipitación	0
24520	7	Sololá	701	Sololá	3	Barraneche	5	Mayo	2023-08-05T00:00:00	2024-11-06T16:00:00	8	Radiación solar	537
24521	7	Sololá	701	Sololá	3	Barraneche	5	Mayo	2023-08-05T00:00:00	2024-11-06T17:00:00	2	Temperatura media	17.8
24522	7	Sololá	701	Sololá	3	Barraneche	5	Mayo	2023-08-05T00:00:00	2024-11-06T17:00:00	4	Temperatura máxima	20.8
24523	7	Sololá	701	Sololá	3	Barraneche	5	Mayo	2023-08-05T00:00:00	2024-11-06T17:00:00	3	Temperatura mínima	17.8
24524	7	Sololá	701	Sololá	3	Barraneche	5	Mayo	2023-08-05T00:00:00	2024-11-06T17:00:00	5	Humedad	69
24525	7	Sololá	701	Sololá	3	Barraneche	5	Mayo	2023-08-05T00:00:00	2024-11-06T17:00:00	6	Velocidad del viento	12.9
24526	7	Sololá	701	Sololá	3	Barraneche	5	Mayo	2023-08-05T00:00:00	2024-11-06T17:00:00	7	Dirección del viento	12.87
24527	7	Sololá	701	Sololá	3	Barraneche	5	Mayo	2023-08-05T00:00:00	2024-11-06T17:00:00	1	Precipitación	0
24528	7	Sololá	701	Sololá	3	Barraneche	5	Mayo	2023-08-05T00:00:00	2024-11-06T17:00:00	8	Radiación solar	310
24529	7	Sololá	701	Sololá	3	Barraneche	5	Mayo	2023-08-05T00:00:00	2024-11-06T18:00:00	2	Temperatura media	16.7
24530	7	Sololá	701	Sololá	3	Barraneche	5	Mayo	2023-08-05T00:00:00	2024-11-06T18:00:00	4	Temperatura máxima	17.8
24531	7	Sololá	701	Sololá	3	Barraneche	5	Mayo	2023-08-05T00:00:00	2024-11-06T18:00:00	3	Temperatura mínima	16.6
24532	7	Sololá	701	Sololá	3	Barraneche	5	Mayo	2023-08-05T00:00:00	2024-11-06T18:00:00	5	Humedad	72
24533	7	Sololá	701	Sololá	3	Barraneche	5	Mayo	2023-08-05T00:00:00	2024-11-06T18:00:00	6	Velocidad del viento	6.4
24534	7	Sololá	701	Sololá	3	Barraneche	5	Mayo	2023-08-05T00:00:00	2024-11-06T18:00:00	7	Dirección del viento	6.44
24535	7	Sololá	701	Sololá	3	Barraneche	5	Mayo	2023-08-05T00:00:00	2024-11-06T18:00:00	1	Precipitación	0
24536	7	Sololá	701	Sololá	3	Barraneche	5	Mayo	2023-08-05T00:00:00	2024-11-06T18:00:00	8	Radiación solar	28
24537	7	Sololá	701	Sololá	3	Barraneche	5	Mayo	2023-08-05T00:00:00	2024-11-06T19:00:00	2	Temperatura media	17.3
24538	7	Sololá	701	Sololá	3	Barraneche	5	Mayo	2023-08-05T00:00:00	2024-11-06T19:00:00	4	Temperatura máxima	17.3
24539	7	Sololá	701	Sololá	3	Barraneche	5	Mayo	2023-08-05T00:00:00	2024-11-06T19:00:00	3	Temperatura mínima	16.4
24540	7	Sololá	701	Sololá	3	Barraneche	5	Mayo	2023-08-05T00:00:00	2024-11-06T19:00:00	5	Humedad	61
24541	7	Sololá	701	Sololá	3	Barraneche	5	Mayo	2023-08-05T00:00:00	2024-11-06T19:00:00	6	Velocidad del viento	6.4
24542	7	Sololá	701	Sololá	3	Barraneche	5	Mayo	2023-08-05T00:00:00	2024-11-06T19:00:00	7	Dirección del viento	6.44
24543	7	Sololá	701	Sololá	3	Barraneche	5	Mayo	2023-08-05T00:00:00	2024-11-06T19:00:00	1	Precipitación	0
24544	7	Sololá	701	Sololá	3	Barraneche	5	Mayo	2023-08-05T00:00:00	2024-11-06T19:00:00	8	Radiación solar	0
24545	7	Sololá	701	Sololá	3	Barraneche	5	Mayo	2023-08-05T00:00:00	2024-11-06T20:00:00	2	Temperatura media	16.7
24546	7	Sololá	701	Sololá	3	Barraneche	5	Mayo	2023-08-05T00:00:00	2024-11-06T20:00:00	4	Temperatura máxima	17.3
24547	7	Sololá	701	Sololá	3	Barraneche	5	Mayo	2023-08-05T00:00:00	2024-11-06T20:00:00	3	Temperatura mínima	16.7
24548	7	Sololá	701	Sololá	3	Barraneche	5	Mayo	2023-08-05T00:00:00	2024-11-06T20:00:00	5	Humedad	61
24549	7	Sololá	701	Sololá	3	Barraneche	5	Mayo	2023-08-05T00:00:00	2024-11-06T20:00:00	6	Velocidad del viento	8
24550	7	Sololá	701	Sololá	3	Barraneche	5	Mayo	2023-08-05T00:00:00	2024-11-06T20:00:00	7	Dirección del viento	8.05
24551	7	Sololá	701	Sololá	3	Barraneche	5	Mayo	2023-08-05T00:00:00	2024-11-06T20:00:00	1	Precipitación	0
24552	7	Sololá	701	Sololá	3	Barraneche	5	Mayo	2023-08-05T00:00:00	2024-11-06T20:00:00	8	Radiación solar	0
24553	7	Sololá	701	Sololá	3	Barraneche	5	Mayo	2023-08-05T00:00:00	2024-11-06T21:00:00	2	Temperatura media	16.4
24554	7	Sololá	701	Sololá	3	Barraneche	5	Mayo	2023-08-05T00:00:00	2024-11-06T21:00:00	4	Temperatura máxima	16.7
24555	7	Sololá	701	Sololá	3	Barraneche	5	Mayo	2023-08-05T00:00:00	2024-11-06T21:00:00	3	Temperatura mínima	16.4
24556	7	Sololá	701	Sololá	3	Barraneche	5	Mayo	2023-08-05T00:00:00	2024-11-06T21:00:00	5	Humedad	59
24557	7	Sololá	701	Sololá	3	Barraneche	5	Mayo	2023-08-05T00:00:00	2024-11-06T21:00:00	6	Velocidad del viento	9.7
24558	7	Sololá	701	Sololá	3	Barraneche	5	Mayo	2023-08-05T00:00:00	2024-11-06T21:00:00	7	Dirección del viento	9.66
24559	7	Sololá	701	Sololá	3	Barraneche	5	Mayo	2023-08-05T00:00:00	2024-11-06T21:00:00	1	Precipitación	0
24560	7	Sololá	701	Sololá	3	Barraneche	5	Mayo	2023-08-05T00:00:00	2024-11-06T21:00:00	8	Radiación solar	0
24561	7	Sololá	701	Sololá	3	Barraneche	5	Mayo	2023-08-05T00:00:00	2024-11-06T22:00:00	2	Temperatura media	15.3
24562	7	Sololá	701	Sololá	3	Barraneche	5	Mayo	2023-08-05T00:00:00	2024-11-06T22:00:00	4	Temperatura máxima	16.4
24563	7	Sololá	701	Sololá	3	Barraneche	5	Mayo	2023-08-05T00:00:00	2024-11-06T22:00:00	3	Temperatura mínima	15.3
24564	7	Sololá	701	Sololá	3	Barraneche	5	Mayo	2023-08-05T00:00:00	2024-11-06T22:00:00	5	Humedad	63
24565	7	Sololá	701	Sololá	3	Barraneche	5	Mayo	2023-08-05T00:00:00	2024-11-06T22:00:00	6	Velocidad del viento	4.8
24566	7	Sololá	701	Sololá	3	Barraneche	5	Mayo	2023-08-05T00:00:00	2024-11-06T22:00:00	7	Dirección del viento	4.83
24567	7	Sololá	701	Sololá	3	Barraneche	5	Mayo	2023-08-05T00:00:00	2024-11-06T22:00:00	1	Precipitación	0
24568	7	Sololá	701	Sololá	3	Barraneche	5	Mayo	2023-08-05T00:00:00	2024-11-06T22:00:00	8	Radiación solar	0
24569	7	Sololá	701	Sololá	3	Barraneche	5	Mayo	2023-08-05T00:00:00	2024-11-06T23:00:00	2	Temperatura media	15.7
24570	7	Sololá	701	Sololá	3	Barraneche	5	Mayo	2023-08-05T00:00:00	2024-11-06T23:00:00	4	Temperatura máxima	15.8
24571	7	Sololá	701	Sololá	3	Barraneche	5	Mayo	2023-08-05T00:00:00	2024-11-06T23:00:00	3	Temperatura mínima	14.9
24572	7	Sololá	701	Sololá	3	Barraneche	5	Mayo	2023-08-05T00:00:00	2024-11-06T23:00:00	5	Humedad	49
24573	7	Sololá	701	Sololá	3	Barraneche	5	Mayo	2023-08-05T00:00:00	2024-11-06T23:00:00	6	Velocidad del viento	4.8
24574	7	Sololá	701	Sololá	3	Barraneche	5	Mayo	2023-08-05T00:00:00	2024-11-06T23:00:00	7	Dirección del viento	4.83
24575	7	Sololá	701	Sololá	3	Barraneche	5	Mayo	2023-08-05T00:00:00	2024-11-06T23:00:00	1	Precipitación	0
24576	7	Sololá	701	Sololá	3	Barraneche	5	Mayo	2023-08-05T00:00:00	2024-11-06T23:00:00	8	Radiación solar	0
24577	7	Sololá	701	Sololá	3	Barraneche	5	Mayo	2023-09-05T00:00:00	2024-11-06T00:00:00	2	Temperatura media	14.7
24578	7	Sololá	701	Sololá	3	Barraneche	5	Mayo	2023-09-05T00:00:00	2024-11-06T00:00:00	4	Temperatura máxima	15.9
24579	7	Sololá	701	Sololá	3	Barraneche	5	Mayo	2023-09-05T00:00:00	2024-11-06T00:00:00	3	Temperatura mínima	14.7
24580	7	Sololá	701	Sololá	3	Barraneche	5	Mayo	2023-09-05T00:00:00	2024-11-06T00:00:00	5	Humedad	50
24581	7	Sololá	701	Sololá	3	Barraneche	5	Mayo	2023-09-05T00:00:00	2024-11-06T00:00:00	6	Velocidad del viento	9.7
24582	7	Sololá	701	Sololá	3	Barraneche	5	Mayo	2023-09-05T00:00:00	2024-11-06T00:00:00	7	Dirección del viento	9.66
24583	7	Sololá	701	Sololá	3	Barraneche	5	Mayo	2023-09-05T00:00:00	2024-11-06T00:00:00	1	Precipitación	0
24584	7	Sololá	701	Sololá	3	Barraneche	5	Mayo	2023-09-05T00:00:00	2024-11-06T00:00:00	8	Radiación solar	0
24585	7	Sololá	701	Sololá	3	Barraneche	5	Mayo	2023-09-05T00:00:00	2024-11-06T01:00:00	2	Temperatura media	13.2
24586	7	Sololá	701	Sololá	3	Barraneche	5	Mayo	2023-09-05T00:00:00	2024-11-06T01:00:00	4	Temperatura máxima	15.3
24587	7	Sololá	701	Sololá	3	Barraneche	5	Mayo	2023-09-05T00:00:00	2024-11-06T01:00:00	3	Temperatura mínima	13.2
24588	7	Sololá	701	Sololá	3	Barraneche	5	Mayo	2023-09-05T00:00:00	2024-11-06T01:00:00	5	Humedad	46
24589	7	Sololá	701	Sololá	3	Barraneche	5	Mayo	2023-09-05T00:00:00	2024-11-06T01:00:00	6	Velocidad del viento	6.4
24590	7	Sololá	701	Sololá	3	Barraneche	5	Mayo	2023-09-05T00:00:00	2024-11-06T01:00:00	7	Dirección del viento	6.44
24591	7	Sololá	701	Sololá	3	Barraneche	5	Mayo	2023-09-05T00:00:00	2024-11-06T01:00:00	1	Precipitación	0
24592	7	Sololá	701	Sololá	3	Barraneche	5	Mayo	2023-09-05T00:00:00	2024-11-06T01:00:00	8	Radiación solar	0
24593	7	Sololá	701	Sololá	3	Barraneche	5	Mayo	2023-09-05T00:00:00	2024-11-06T02:00:00	2	Temperatura media	12.4
24594	7	Sololá	701	Sololá	3	Barraneche	5	Mayo	2023-09-05T00:00:00	2024-11-06T02:00:00	4	Temperatura máxima	13.1
24595	7	Sololá	701	Sololá	3	Barraneche	5	Mayo	2023-09-05T00:00:00	2024-11-06T02:00:00	3	Temperatura mínima	12.2
24596	7	Sololá	701	Sololá	3	Barraneche	5	Mayo	2023-09-05T00:00:00	2024-11-06T02:00:00	5	Humedad	39
24597	7	Sololá	701	Sololá	3	Barraneche	5	Mayo	2023-09-05T00:00:00	2024-11-06T02:00:00	6	Velocidad del viento	8
24598	7	Sololá	701	Sololá	3	Barraneche	5	Mayo	2023-09-05T00:00:00	2024-11-06T02:00:00	7	Dirección del viento	8.05
24599	7	Sololá	701	Sololá	3	Barraneche	5	Mayo	2023-09-05T00:00:00	2024-11-06T02:00:00	1	Precipitación	0
24600	7	Sololá	701	Sololá	3	Barraneche	5	Mayo	2023-09-05T00:00:00	2024-11-06T02:00:00	8	Radiación solar	0
24601	7	Sololá	701	Sololá	3	Barraneche	5	Mayo	2023-09-05T00:00:00	2024-11-06T03:00:00	2	Temperatura media	11.8
24602	7	Sololá	701	Sololá	3	Barraneche	5	Mayo	2023-09-05T00:00:00	2024-11-06T03:00:00	4	Temperatura máxima	12.4
24603	7	Sololá	701	Sololá	3	Barraneche	5	Mayo	2023-09-05T00:00:00	2024-11-06T03:00:00	3	Temperatura mínima	11.6
24604	7	Sololá	701	Sololá	3	Barraneche	5	Mayo	2023-09-05T00:00:00	2024-11-06T03:00:00	5	Humedad	38
24605	7	Sololá	701	Sololá	3	Barraneche	5	Mayo	2023-09-05T00:00:00	2024-11-06T03:00:00	6	Velocidad del viento	6.4
24606	7	Sololá	701	Sololá	3	Barraneche	5	Mayo	2023-09-05T00:00:00	2024-11-06T03:00:00	7	Dirección del viento	6.44
24607	7	Sololá	701	Sololá	3	Barraneche	5	Mayo	2023-09-05T00:00:00	2024-11-06T03:00:00	1	Precipitación	0
24608	7	Sololá	701	Sololá	3	Barraneche	5	Mayo	2023-09-05T00:00:00	2024-11-06T03:00:00	8	Radiación solar	0
24609	7	Sololá	701	Sololá	3	Barraneche	5	Mayo	2023-09-05T00:00:00	2024-11-06T04:00:00	2	Temperatura media	11.2
24610	7	Sololá	701	Sololá	3	Barraneche	5	Mayo	2023-09-05T00:00:00	2024-11-06T04:00:00	4	Temperatura máxima	11.8
24611	7	Sololá	701	Sololá	3	Barraneche	5	Mayo	2023-09-05T00:00:00	2024-11-06T04:00:00	3	Temperatura mínima	11.2
24612	7	Sololá	701	Sololá	3	Barraneche	5	Mayo	2023-09-05T00:00:00	2024-11-06T04:00:00	5	Humedad	40
24613	7	Sololá	701	Sololá	3	Barraneche	5	Mayo	2023-09-05T00:00:00	2024-11-06T04:00:00	6	Velocidad del viento	9.7
24614	7	Sololá	701	Sololá	3	Barraneche	5	Mayo	2023-09-05T00:00:00	2024-11-06T04:00:00	7	Dirección del viento	9.66
24615	7	Sololá	701	Sololá	3	Barraneche	5	Mayo	2023-09-05T00:00:00	2024-11-06T04:00:00	1	Precipitación	0
24616	7	Sololá	701	Sololá	3	Barraneche	5	Mayo	2023-09-05T00:00:00	2024-11-06T04:00:00	8	Radiación solar	0
24617	7	Sololá	701	Sololá	3	Barraneche	5	Mayo	2023-09-05T00:00:00	2024-11-06T05:00:00	2	Temperatura media	11.2
24618	7	Sololá	701	Sololá	3	Barraneche	5	Mayo	2023-09-05T00:00:00	2024-11-06T05:00:00	4	Temperatura máxima	11.4
24619	7	Sololá	701	Sololá	3	Barraneche	5	Mayo	2023-09-05T00:00:00	2024-11-06T05:00:00	3	Temperatura mínima	10.9
24620	7	Sololá	701	Sololá	3	Barraneche	5	Mayo	2023-09-05T00:00:00	2024-11-06T05:00:00	5	Humedad	43
24621	7	Sololá	701	Sololá	3	Barraneche	5	Mayo	2023-09-05T00:00:00	2024-11-06T05:00:00	6	Velocidad del viento	9.7
24622	7	Sololá	701	Sololá	3	Barraneche	5	Mayo	2023-09-05T00:00:00	2024-11-06T05:00:00	7	Dirección del viento	9.66
24623	7	Sololá	701	Sololá	3	Barraneche	5	Mayo	2023-09-05T00:00:00	2024-11-06T05:00:00	1	Precipitación	0
24624	7	Sololá	701	Sololá	3	Barraneche	5	Mayo	2023-09-05T00:00:00	2024-11-06T05:00:00	8	Radiación solar	0
24625	7	Sololá	701	Sololá	3	Barraneche	5	Mayo	2023-09-05T00:00:00	2024-11-06T06:00:00	2	Temperatura media	11.8
24626	7	Sololá	701	Sololá	3	Barraneche	5	Mayo	2023-09-05T00:00:00	2024-11-06T06:00:00	4	Temperatura máxima	12.1
24627	7	Sololá	701	Sololá	3	Barraneche	5	Mayo	2023-09-05T00:00:00	2024-11-06T06:00:00	3	Temperatura mínima	10.9
24628	7	Sololá	701	Sololá	3	Barraneche	5	Mayo	2023-09-05T00:00:00	2024-11-06T06:00:00	5	Humedad	43
24629	7	Sololá	701	Sololá	3	Barraneche	5	Mayo	2023-09-05T00:00:00	2024-11-06T06:00:00	6	Velocidad del viento	9.7
24630	7	Sololá	701	Sololá	3	Barraneche	5	Mayo	2023-09-05T00:00:00	2024-11-06T06:00:00	7	Dirección del viento	9.66
24631	7	Sololá	701	Sololá	3	Barraneche	5	Mayo	2023-09-05T00:00:00	2024-11-06T06:00:00	1	Precipitación	0
24632	7	Sololá	701	Sololá	3	Barraneche	5	Mayo	2023-09-05T00:00:00	2024-11-06T06:00:00	8	Radiación solar	8
24633	7	Sololá	701	Sololá	3	Barraneche	5	Mayo	2023-09-05T00:00:00	2024-11-06T07:00:00	2	Temperatura media	13.8
24634	7	Sololá	701	Sololá	3	Barraneche	5	Mayo	2023-09-05T00:00:00	2024-11-06T07:00:00	4	Temperatura máxima	13.8
24635	7	Sololá	701	Sololá	3	Barraneche	5	Mayo	2023-09-05T00:00:00	2024-11-06T07:00:00	3	Temperatura mínima	11.7
24636	7	Sololá	701	Sololá	3	Barraneche	5	Mayo	2023-09-05T00:00:00	2024-11-06T07:00:00	5	Humedad	45
24637	7	Sololá	701	Sololá	3	Barraneche	5	Mayo	2023-09-05T00:00:00	2024-11-06T07:00:00	6	Velocidad del viento	8
24638	7	Sololá	701	Sololá	3	Barraneche	5	Mayo	2023-09-05T00:00:00	2024-11-06T07:00:00	7	Dirección del viento	8.05
24639	7	Sololá	701	Sololá	3	Barraneche	5	Mayo	2023-09-05T00:00:00	2024-11-06T07:00:00	1	Precipitación	0
24640	7	Sololá	701	Sololá	3	Barraneche	5	Mayo	2023-09-05T00:00:00	2024-11-06T07:00:00	8	Radiación solar	128
24641	7	Sololá	701	Sololá	3	Barraneche	5	Mayo	2023-09-05T00:00:00	2024-11-06T08:00:00	2	Temperatura media	16.9
24642	7	Sololá	701	Sololá	3	Barraneche	5	Mayo	2023-09-05T00:00:00	2024-11-06T08:00:00	4	Temperatura máxima	16.9
24643	7	Sololá	701	Sololá	3	Barraneche	5	Mayo	2023-09-05T00:00:00	2024-11-06T08:00:00	3	Temperatura mínima	13.8
24644	7	Sololá	701	Sololá	3	Barraneche	5	Mayo	2023-09-05T00:00:00	2024-11-06T08:00:00	5	Humedad	41
24645	7	Sololá	701	Sololá	3	Barraneche	5	Mayo	2023-09-05T00:00:00	2024-11-06T08:00:00	6	Velocidad del viento	3.2
24646	7	Sololá	701	Sololá	3	Barraneche	5	Mayo	2023-09-05T00:00:00	2024-11-06T08:00:00	7	Dirección del viento	3.22
24647	7	Sololá	701	Sololá	3	Barraneche	5	Mayo	2023-09-05T00:00:00	2024-11-06T08:00:00	1	Precipitación	0
24648	7	Sololá	701	Sololá	3	Barraneche	5	Mayo	2023-09-05T00:00:00	2024-11-06T08:00:00	8	Radiación solar	346
24649	7	Sololá	701	Sololá	3	Barraneche	5	Mayo	2023-09-05T00:00:00	2024-11-06T09:00:00	2	Temperatura media	18.6
24650	7	Sololá	701	Sololá	3	Barraneche	5	Mayo	2023-09-05T00:00:00	2024-11-06T09:00:00	4	Temperatura máxima	18.6
24651	7	Sololá	701	Sololá	3	Barraneche	5	Mayo	2023-09-05T00:00:00	2024-11-06T09:00:00	3	Temperatura mínima	16.9
24652	7	Sololá	701	Sololá	3	Barraneche	5	Mayo	2023-09-05T00:00:00	2024-11-06T09:00:00	5	Humedad	41
24653	7	Sololá	701	Sololá	3	Barraneche	5	Mayo	2023-09-05T00:00:00	2024-11-06T09:00:00	6	Velocidad del viento	3.2
24654	7	Sololá	701	Sololá	3	Barraneche	5	Mayo	2023-09-05T00:00:00	2024-11-06T09:00:00	7	Dirección del viento	3.22
24655	7	Sololá	701	Sololá	3	Barraneche	5	Mayo	2023-09-05T00:00:00	2024-11-06T09:00:00	1	Precipitación	0
24656	7	Sololá	701	Sololá	3	Barraneche	5	Mayo	2023-09-05T00:00:00	2024-11-06T09:00:00	8	Radiación solar	611
24657	7	Sololá	701	Sololá	3	Barraneche	5	Mayo	2023-09-05T00:00:00	2024-11-06T10:00:00	2	Temperatura media	19.2
24658	7	Sololá	701	Sololá	3	Barraneche	5	Mayo	2023-09-05T00:00:00	2024-11-06T10:00:00	4	Temperatura máxima	19.3
24659	7	Sololá	701	Sololá	3	Barraneche	5	Mayo	2023-09-05T00:00:00	2024-11-06T10:00:00	3	Temperatura mínima	18.4
24660	7	Sololá	701	Sololá	3	Barraneche	5	Mayo	2023-09-05T00:00:00	2024-11-06T10:00:00	5	Humedad	45
24661	7	Sololá	701	Sololá	3	Barraneche	5	Mayo	2023-09-05T00:00:00	2024-11-06T10:00:00	6	Velocidad del viento	6.4
24662	7	Sololá	701	Sololá	3	Barraneche	5	Mayo	2023-09-05T00:00:00	2024-11-06T10:00:00	7	Dirección del viento	6.44
24663	7	Sololá	701	Sololá	3	Barraneche	5	Mayo	2023-09-05T00:00:00	2024-11-06T10:00:00	1	Precipitación	0
24664	7	Sololá	701	Sololá	3	Barraneche	5	Mayo	2023-09-05T00:00:00	2024-11-06T10:00:00	8	Radiación solar	812
24665	7	Sololá	701	Sololá	3	Barraneche	5	Mayo	2023-09-05T00:00:00	2024-11-06T11:00:00	2	Temperatura media	20.3
24666	7	Sololá	701	Sololá	3	Barraneche	5	Mayo	2023-09-05T00:00:00	2024-11-06T11:00:00	4	Temperatura máxima	20.3
24667	7	Sololá	701	Sololá	3	Barraneche	5	Mayo	2023-09-05T00:00:00	2024-11-06T11:00:00	3	Temperatura mínima	19.2
24668	7	Sololá	701	Sololá	3	Barraneche	5	Mayo	2023-09-05T00:00:00	2024-11-06T11:00:00	5	Humedad	45
24669	7	Sololá	701	Sololá	3	Barraneche	5	Mayo	2023-09-05T00:00:00	2024-11-06T11:00:00	6	Velocidad del viento	8
24670	7	Sololá	701	Sololá	3	Barraneche	5	Mayo	2023-09-05T00:00:00	2024-11-06T11:00:00	7	Dirección del viento	8.05
24671	7	Sololá	701	Sololá	3	Barraneche	5	Mayo	2023-09-05T00:00:00	2024-11-06T11:00:00	1	Precipitación	0
24672	7	Sololá	701	Sololá	3	Barraneche	5	Mayo	2023-09-05T00:00:00	2024-11-06T11:00:00	8	Radiación solar	943
24673	7	Sololá	701	Sololá	3	Barraneche	5	Mayo	2023-09-05T00:00:00	2024-11-06T12:00:00	2	Temperatura media	20.1
24674	7	Sololá	701	Sololá	3	Barraneche	5	Mayo	2023-09-05T00:00:00	2024-11-06T12:00:00	4	Temperatura máxima	20.4
24675	7	Sololá	701	Sololá	3	Barraneche	5	Mayo	2023-09-05T00:00:00	2024-11-06T12:00:00	3	Temperatura mínima	19.9
24676	7	Sololá	701	Sololá	3	Barraneche	5	Mayo	2023-09-05T00:00:00	2024-11-06T12:00:00	5	Humedad	49
24677	7	Sololá	701	Sololá	3	Barraneche	5	Mayo	2023-09-05T00:00:00	2024-11-06T12:00:00	6	Velocidad del viento	14.5
24678	7	Sololá	701	Sololá	3	Barraneche	5	Mayo	2023-09-05T00:00:00	2024-11-06T12:00:00	7	Dirección del viento	14.48
24679	7	Sololá	701	Sololá	3	Barraneche	5	Mayo	2023-09-05T00:00:00	2024-11-06T12:00:00	1	Precipitación	0
24680	7	Sololá	701	Sololá	3	Barraneche	5	Mayo	2023-09-05T00:00:00	2024-11-06T12:00:00	8	Radiación solar	1016
24681	7	Sololá	701	Sololá	3	Barraneche	5	Mayo	2023-09-05T00:00:00	2024-11-06T13:00:00	2	Temperatura media	19.7
24682	7	Sololá	701	Sololá	3	Barraneche	5	Mayo	2023-09-05T00:00:00	2024-11-06T13:00:00	4	Temperatura máxima	20.3
24683	7	Sololá	701	Sololá	3	Barraneche	5	Mayo	2023-09-05T00:00:00	2024-11-06T13:00:00	3	Temperatura mínima	19.7
24684	7	Sololá	701	Sololá	3	Barraneche	5	Mayo	2023-09-05T00:00:00	2024-11-06T13:00:00	5	Humedad	58
24685	7	Sololá	701	Sololá	3	Barraneche	5	Mayo	2023-09-05T00:00:00	2024-11-06T13:00:00	6	Velocidad del viento	14.5
24686	7	Sololá	701	Sololá	3	Barraneche	5	Mayo	2023-09-05T00:00:00	2024-11-06T13:00:00	7	Dirección del viento	14.48
24687	7	Sololá	701	Sololá	3	Barraneche	5	Mayo	2023-09-05T00:00:00	2024-11-06T13:00:00	1	Precipitación	0
24688	7	Sololá	701	Sololá	3	Barraneche	5	Mayo	2023-09-05T00:00:00	2024-11-06T13:00:00	8	Radiación solar	1037
24689	7	Sololá	701	Sololá	3	Barraneche	5	Mayo	2023-09-05T00:00:00	2024-11-06T14:00:00	2	Temperatura media	19.3
24690	7	Sololá	701	Sololá	3	Barraneche	5	Mayo	2023-09-05T00:00:00	2024-11-06T14:00:00	4	Temperatura máxima	19.7
24691	7	Sololá	701	Sololá	3	Barraneche	5	Mayo	2023-09-05T00:00:00	2024-11-06T14:00:00	3	Temperatura mínima	18.7
24692	7	Sololá	701	Sololá	3	Barraneche	5	Mayo	2023-09-05T00:00:00	2024-11-06T14:00:00	5	Humedad	60
24693	7	Sololá	701	Sololá	3	Barraneche	5	Mayo	2023-09-05T00:00:00	2024-11-06T14:00:00	6	Velocidad del viento	14.5
24694	7	Sololá	701	Sololá	3	Barraneche	5	Mayo	2023-09-05T00:00:00	2024-11-06T14:00:00	7	Dirección del viento	14.48
24695	7	Sololá	701	Sololá	3	Barraneche	5	Mayo	2023-09-05T00:00:00	2024-11-06T14:00:00	1	Precipitación	0
24696	7	Sololá	701	Sololá	3	Barraneche	5	Mayo	2023-09-05T00:00:00	2024-11-06T14:00:00	8	Radiación solar	927
24697	7	Sololá	701	Sololá	3	Barraneche	5	Mayo	2023-09-05T00:00:00	2024-11-06T15:00:00	2	Temperatura media	19.1
24698	7	Sololá	701	Sololá	3	Barraneche	5	Mayo	2023-09-05T00:00:00	2024-11-06T15:00:00	4	Temperatura máxima	19.7
24699	7	Sololá	701	Sololá	3	Barraneche	5	Mayo	2023-09-05T00:00:00	2024-11-06T15:00:00	3	Temperatura mínima	18.8
24700	7	Sololá	701	Sololá	3	Barraneche	5	Mayo	2023-09-05T00:00:00	2024-11-06T15:00:00	5	Humedad	61
24701	7	Sololá	701	Sololá	3	Barraneche	5	Mayo	2023-09-05T00:00:00	2024-11-06T15:00:00	6	Velocidad del viento	12.9
24702	7	Sololá	701	Sololá	3	Barraneche	5	Mayo	2023-09-05T00:00:00	2024-11-06T15:00:00	7	Dirección del viento	12.87
24703	7	Sololá	701	Sololá	3	Barraneche	5	Mayo	2023-09-05T00:00:00	2024-11-06T15:00:00	1	Precipitación	0
24704	7	Sololá	701	Sololá	3	Barraneche	5	Mayo	2023-09-05T00:00:00	2024-11-06T15:00:00	8	Radiación solar	834
24705	7	Sololá	701	Sololá	3	Barraneche	5	Mayo	2023-09-05T00:00:00	2024-11-06T16:00:00	2	Temperatura media	18.5
24706	7	Sololá	701	Sololá	3	Barraneche	5	Mayo	2023-09-05T00:00:00	2024-11-06T16:00:00	4	Temperatura máxima	19.3
24707	7	Sololá	701	Sololá	3	Barraneche	5	Mayo	2023-09-05T00:00:00	2024-11-06T16:00:00	3	Temperatura mínima	18.3
24708	7	Sololá	701	Sololá	3	Barraneche	5	Mayo	2023-09-05T00:00:00	2024-11-06T16:00:00	5	Humedad	63
24709	7	Sololá	701	Sololá	3	Barraneche	5	Mayo	2023-09-05T00:00:00	2024-11-06T16:00:00	6	Velocidad del viento	11.3
24710	7	Sololá	701	Sololá	3	Barraneche	5	Mayo	2023-09-05T00:00:00	2024-11-06T16:00:00	7	Dirección del viento	11.27
24711	7	Sololá	701	Sololá	3	Barraneche	5	Mayo	2023-09-05T00:00:00	2024-11-06T16:00:00	1	Precipitación	0
24712	7	Sololá	701	Sololá	3	Barraneche	5	Mayo	2023-09-05T00:00:00	2024-11-06T16:00:00	8	Radiación solar	287
24713	7	Sololá	701	Sololá	3	Barraneche	5	Mayo	2023-09-05T00:00:00	2024-11-06T17:00:00	2	Temperatura media	16.9
24714	7	Sololá	701	Sololá	3	Barraneche	5	Mayo	2023-09-05T00:00:00	2024-11-06T17:00:00	4	Temperatura máxima	18.5
24715	7	Sololá	701	Sololá	3	Barraneche	5	Mayo	2023-09-05T00:00:00	2024-11-06T17:00:00	3	Temperatura mínima	16.9
24716	7	Sololá	701	Sololá	3	Barraneche	5	Mayo	2023-09-05T00:00:00	2024-11-06T17:00:00	5	Humedad	70
24717	7	Sololá	701	Sololá	3	Barraneche	5	Mayo	2023-09-05T00:00:00	2024-11-06T17:00:00	6	Velocidad del viento	9.7
24718	7	Sololá	701	Sololá	3	Barraneche	5	Mayo	2023-09-05T00:00:00	2024-11-06T17:00:00	7	Dirección del viento	9.66
24719	7	Sololá	701	Sololá	3	Barraneche	5	Mayo	2023-09-05T00:00:00	2024-11-06T17:00:00	1	Precipitación	0
24720	7	Sololá	701	Sololá	3	Barraneche	5	Mayo	2023-09-05T00:00:00	2024-11-06T17:00:00	8	Radiación solar	92
24721	7	Sololá	701	Sololá	3	Barraneche	5	Mayo	2023-09-05T00:00:00	2024-11-06T18:00:00	2	Temperatura media	16.3
24722	7	Sololá	701	Sololá	3	Barraneche	5	Mayo	2023-09-05T00:00:00	2024-11-06T18:00:00	4	Temperatura máxima	16.9
24723	7	Sololá	701	Sololá	3	Barraneche	5	Mayo	2023-09-05T00:00:00	2024-11-06T18:00:00	3	Temperatura mínima	16.3
24724	7	Sololá	701	Sololá	3	Barraneche	5	Mayo	2023-09-05T00:00:00	2024-11-06T18:00:00	5	Humedad	72
24725	7	Sololá	701	Sololá	3	Barraneche	5	Mayo	2023-09-05T00:00:00	2024-11-06T18:00:00	6	Velocidad del viento	4.8
24726	7	Sololá	701	Sololá	3	Barraneche	5	Mayo	2023-09-05T00:00:00	2024-11-06T18:00:00	7	Dirección del viento	4.83
24727	7	Sololá	701	Sololá	3	Barraneche	5	Mayo	2023-09-05T00:00:00	2024-11-06T18:00:00	1	Precipitación	0
24728	7	Sololá	701	Sololá	3	Barraneche	5	Mayo	2023-09-05T00:00:00	2024-11-06T18:00:00	8	Radiación solar	17
24729	7	Sololá	701	Sololá	3	Barraneche	5	Mayo	2023-09-05T00:00:00	2024-11-06T19:00:00	2	Temperatura media	15.9
24730	7	Sololá	701	Sololá	3	Barraneche	5	Mayo	2023-09-05T00:00:00	2024-11-06T19:00:00	4	Temperatura máxima	16.4
24731	7	Sololá	701	Sololá	3	Barraneche	5	Mayo	2023-09-05T00:00:00	2024-11-06T19:00:00	3	Temperatura mínima	15.9
24732	7	Sololá	701	Sololá	3	Barraneche	5	Mayo	2023-09-05T00:00:00	2024-11-06T19:00:00	5	Humedad	76
24733	7	Sololá	701	Sololá	3	Barraneche	5	Mayo	2023-09-05T00:00:00	2024-11-06T19:00:00	6	Velocidad del viento	3.2
24734	7	Sololá	701	Sololá	3	Barraneche	5	Mayo	2023-09-05T00:00:00	2024-11-06T19:00:00	7	Dirección del viento	3.22
24735	7	Sololá	701	Sololá	3	Barraneche	5	Mayo	2023-09-05T00:00:00	2024-11-06T19:00:00	1	Precipitación	0
24736	7	Sololá	701	Sololá	3	Barraneche	5	Mayo	2023-09-05T00:00:00	2024-11-06T19:00:00	8	Radiación solar	0
24737	7	Sololá	701	Sololá	3	Barraneche	5	Mayo	2023-09-05T00:00:00	2024-11-06T20:00:00	2	Temperatura media	15.5
24738	7	Sololá	701	Sololá	3	Barraneche	5	Mayo	2023-09-05T00:00:00	2024-11-06T20:00:00	4	Temperatura máxima	15.9
24739	7	Sololá	701	Sololá	3	Barraneche	5	Mayo	2023-09-05T00:00:00	2024-11-06T20:00:00	3	Temperatura mínima	15.3
24740	7	Sololá	701	Sololá	3	Barraneche	5	Mayo	2023-09-05T00:00:00	2024-11-06T20:00:00	5	Humedad	80
24741	7	Sololá	701	Sololá	3	Barraneche	5	Mayo	2023-09-05T00:00:00	2024-11-06T20:00:00	6	Velocidad del viento	4.8
24742	7	Sololá	701	Sololá	3	Barraneche	5	Mayo	2023-09-05T00:00:00	2024-11-06T20:00:00	7	Dirección del viento	4.83
24743	7	Sololá	701	Sololá	3	Barraneche	5	Mayo	2023-09-05T00:00:00	2024-11-06T20:00:00	1	Precipitación	0
24744	7	Sololá	701	Sololá	3	Barraneche	5	Mayo	2023-09-05T00:00:00	2024-11-06T20:00:00	8	Radiación solar	0
24745	7	Sololá	701	Sololá	3	Barraneche	5	Mayo	2023-09-05T00:00:00	2024-11-06T21:00:00	2	Temperatura media	15.7
24746	7	Sololá	701	Sololá	3	Barraneche	5	Mayo	2023-09-05T00:00:00	2024-11-06T21:00:00	4	Temperatura máxima	15.7
24747	7	Sololá	701	Sololá	3	Barraneche	5	Mayo	2023-09-05T00:00:00	2024-11-06T21:00:00	3	Temperatura mínima	15.4
24748	7	Sololá	701	Sololá	3	Barraneche	5	Mayo	2023-09-05T00:00:00	2024-11-06T21:00:00	5	Humedad	75
24749	7	Sololá	701	Sololá	3	Barraneche	5	Mayo	2023-09-05T00:00:00	2024-11-06T21:00:00	6	Velocidad del viento	3.2
24750	7	Sololá	701	Sololá	3	Barraneche	5	Mayo	2023-09-05T00:00:00	2024-11-06T21:00:00	7	Dirección del viento	3.22
24751	7	Sololá	701	Sololá	3	Barraneche	5	Mayo	2023-09-05T00:00:00	2024-11-06T21:00:00	1	Precipitación	0
24752	7	Sololá	701	Sololá	3	Barraneche	5	Mayo	2023-09-05T00:00:00	2024-11-06T21:00:00	8	Radiación solar	0
24753	7	Sololá	701	Sololá	3	Barraneche	5	Mayo	2023-09-05T00:00:00	2024-11-06T22:00:00	2	Temperatura media	15.4
24754	7	Sololá	701	Sololá	3	Barraneche	5	Mayo	2023-09-05T00:00:00	2024-11-06T22:00:00	4	Temperatura máxima	15.7
24755	7	Sololá	701	Sololá	3	Barraneche	5	Mayo	2023-09-05T00:00:00	2024-11-06T22:00:00	3	Temperatura mínima	15.4
24756	7	Sololá	701	Sololá	3	Barraneche	5	Mayo	2023-09-05T00:00:00	2024-11-06T22:00:00	5	Humedad	76
24757	7	Sololá	701	Sololá	3	Barraneche	5	Mayo	2023-09-05T00:00:00	2024-11-06T22:00:00	6	Velocidad del viento	1.6
24758	7	Sololá	701	Sololá	3	Barraneche	5	Mayo	2023-09-05T00:00:00	2024-11-06T22:00:00	7	Dirección del viento	1.61
24759	7	Sololá	701	Sololá	3	Barraneche	5	Mayo	2023-09-05T00:00:00	2024-11-06T22:00:00	1	Precipitación	0
24760	7	Sololá	701	Sololá	3	Barraneche	5	Mayo	2023-09-05T00:00:00	2024-11-06T22:00:00	8	Radiación solar	0
24761	7	Sololá	701	Sololá	3	Barraneche	5	Mayo	2023-09-05T00:00:00	2024-11-06T23:00:00	2	Temperatura media	15.3
24762	7	Sololá	701	Sololá	3	Barraneche	5	Mayo	2023-09-05T00:00:00	2024-11-06T23:00:00	4	Temperatura máxima	15.4
24763	7	Sololá	701	Sololá	3	Barraneche	5	Mayo	2023-09-05T00:00:00	2024-11-06T23:00:00	3	Temperatura mínima	15.3
24764	7	Sololá	701	Sololá	3	Barraneche	5	Mayo	2023-09-05T00:00:00	2024-11-06T23:00:00	5	Humedad	77
24765	7	Sololá	701	Sololá	3	Barraneche	5	Mayo	2023-09-05T00:00:00	2024-11-06T23:00:00	6	Velocidad del viento	1.6
24766	7	Sololá	701	Sololá	3	Barraneche	5	Mayo	2023-09-05T00:00:00	2024-11-06T23:00:00	7	Dirección del viento	1.61
24767	7	Sololá	701	Sololá	3	Barraneche	5	Mayo	2023-09-05T00:00:00	2024-11-06T23:00:00	1	Precipitación	0
24768	7	Sololá	701	Sololá	3	Barraneche	5	Mayo	2023-09-05T00:00:00	2024-11-06T23:00:00	8	Radiación solar	0
24769	7	Sololá	701	Sololá	3	Barraneche	5	Mayo	2023-10-05T00:00:00	2024-11-06T00:00:00	2	Temperatura media	14.6
24770	7	Sololá	701	Sololá	3	Barraneche	5	Mayo	2023-10-05T00:00:00	2024-11-06T00:00:00	4	Temperatura máxima	15.3
24771	7	Sololá	701	Sololá	3	Barraneche	5	Mayo	2023-10-05T00:00:00	2024-11-06T00:00:00	3	Temperatura mínima	14.6
24772	7	Sololá	701	Sololá	3	Barraneche	5	Mayo	2023-10-05T00:00:00	2024-11-06T00:00:00	5	Humedad	72
24773	7	Sololá	701	Sololá	3	Barraneche	5	Mayo	2023-10-05T00:00:00	2024-11-06T00:00:00	6	Velocidad del viento	1.6
24774	7	Sololá	701	Sololá	3	Barraneche	5	Mayo	2023-10-05T00:00:00	2024-11-06T00:00:00	7	Dirección del viento	1.61
24775	7	Sololá	701	Sololá	3	Barraneche	5	Mayo	2023-10-05T00:00:00	2024-11-06T00:00:00	1	Precipitación	0
24776	7	Sololá	701	Sololá	3	Barraneche	5	Mayo	2023-10-05T00:00:00	2024-11-06T00:00:00	8	Radiación solar	0
24777	7	Sololá	701	Sololá	3	Barraneche	5	Mayo	2023-10-05T00:00:00	2024-11-06T01:00:00	2	Temperatura media	14.4
24778	7	Sololá	701	Sololá	3	Barraneche	5	Mayo	2023-10-05T00:00:00	2024-11-06T01:00:00	4	Temperatura máxima	14.7
24779	7	Sololá	701	Sololá	3	Barraneche	5	Mayo	2023-10-05T00:00:00	2024-11-06T01:00:00	3	Temperatura mínima	14.4
24780	7	Sololá	701	Sololá	3	Barraneche	5	Mayo	2023-10-05T00:00:00	2024-11-06T01:00:00	5	Humedad	70
24781	7	Sololá	701	Sololá	3	Barraneche	5	Mayo	2023-10-05T00:00:00	2024-11-06T01:00:00	6	Velocidad del viento	3.2
24782	7	Sololá	701	Sololá	3	Barraneche	5	Mayo	2023-10-05T00:00:00	2024-11-06T01:00:00	7	Dirección del viento	3.22
24783	7	Sololá	701	Sololá	3	Barraneche	5	Mayo	2023-10-05T00:00:00	2024-11-06T01:00:00	1	Precipitación	0
24784	7	Sololá	701	Sololá	3	Barraneche	5	Mayo	2023-10-05T00:00:00	2024-11-06T01:00:00	8	Radiación solar	0
24785	7	Sololá	701	Sololá	3	Barraneche	5	Mayo	2023-10-05T00:00:00	2024-11-06T02:00:00	2	Temperatura media	14.4
24786	7	Sololá	701	Sololá	3	Barraneche	5	Mayo	2023-10-05T00:00:00	2024-11-06T02:00:00	4	Temperatura máxima	14.6
24787	7	Sololá	701	Sololá	3	Barraneche	5	Mayo	2023-10-05T00:00:00	2024-11-06T02:00:00	3	Temperatura mínima	14.2
24788	7	Sololá	701	Sololá	3	Barraneche	5	Mayo	2023-10-05T00:00:00	2024-11-06T02:00:00	5	Humedad	72
24789	7	Sololá	701	Sololá	3	Barraneche	5	Mayo	2023-10-05T00:00:00	2024-11-06T02:00:00	6	Velocidad del viento	1.6
24790	7	Sololá	701	Sololá	3	Barraneche	5	Mayo	2023-10-05T00:00:00	2024-11-06T02:00:00	7	Dirección del viento	1.61
24791	7	Sololá	701	Sololá	3	Barraneche	5	Mayo	2023-10-05T00:00:00	2024-11-06T02:00:00	1	Precipitación	0
24792	7	Sololá	701	Sololá	3	Barraneche	5	Mayo	2023-10-05T00:00:00	2024-11-06T02:00:00	8	Radiación solar	0
24793	7	Sololá	701	Sololá	3	Barraneche	5	Mayo	2023-10-05T00:00:00	2024-11-06T03:00:00	2	Temperatura media	13.9
24794	7	Sololá	701	Sololá	3	Barraneche	5	Mayo	2023-10-05T00:00:00	2024-11-06T03:00:00	4	Temperatura máxima	14.7
24795	7	Sololá	701	Sololá	3	Barraneche	5	Mayo	2023-10-05T00:00:00	2024-11-06T03:00:00	3	Temperatura mínima	13.9
24796	7	Sololá	701	Sololá	3	Barraneche	5	Mayo	2023-10-05T00:00:00	2024-11-06T03:00:00	5	Humedad	68
24797	7	Sololá	701	Sololá	3	Barraneche	5	Mayo	2023-10-05T00:00:00	2024-11-06T03:00:00	6	Velocidad del viento	1.6
24798	7	Sololá	701	Sololá	3	Barraneche	5	Mayo	2023-10-05T00:00:00	2024-11-06T03:00:00	7	Dirección del viento	1.61
24799	7	Sololá	701	Sololá	3	Barraneche	5	Mayo	2023-10-05T00:00:00	2024-11-06T03:00:00	1	Precipitación	0
24800	7	Sololá	701	Sololá	3	Barraneche	5	Mayo	2023-10-05T00:00:00	2024-11-06T03:00:00	8	Radiación solar	0
24801	7	Sololá	701	Sololá	3	Barraneche	5	Mayo	2023-10-05T00:00:00	2024-11-06T04:00:00	2	Temperatura media	12.8
24802	7	Sololá	701	Sololá	3	Barraneche	5	Mayo	2023-10-05T00:00:00	2024-11-06T04:00:00	4	Temperatura máxima	13.9
24803	7	Sololá	701	Sololá	3	Barraneche	5	Mayo	2023-10-05T00:00:00	2024-11-06T04:00:00	3	Temperatura mínima	12.8
24804	7	Sololá	701	Sololá	3	Barraneche	5	Mayo	2023-10-05T00:00:00	2024-11-06T04:00:00	5	Humedad	67
24805	7	Sololá	701	Sololá	3	Barraneche	5	Mayo	2023-10-05T00:00:00	2024-11-06T04:00:00	6	Velocidad del viento	4.8
24806	7	Sololá	701	Sololá	3	Barraneche	5	Mayo	2023-10-05T00:00:00	2024-11-06T04:00:00	7	Dirección del viento	4.83
24807	7	Sololá	701	Sololá	3	Barraneche	5	Mayo	2023-10-05T00:00:00	2024-11-06T04:00:00	1	Precipitación	0
24808	7	Sololá	701	Sololá	3	Barraneche	5	Mayo	2023-10-05T00:00:00	2024-11-06T04:00:00	8	Radiación solar	0
24809	7	Sololá	701	Sololá	3	Barraneche	5	Mayo	2023-10-05T00:00:00	2024-11-06T05:00:00	2	Temperatura media	11.9
24810	7	Sololá	701	Sololá	3	Barraneche	5	Mayo	2023-10-05T00:00:00	2024-11-06T05:00:00	4	Temperatura máxima	13
24811	7	Sololá	701	Sololá	3	Barraneche	5	Mayo	2023-10-05T00:00:00	2024-11-06T05:00:00	3	Temperatura mínima	11.8
24812	7	Sololá	701	Sololá	3	Barraneche	5	Mayo	2023-10-05T00:00:00	2024-11-06T05:00:00	5	Humedad	68
24813	7	Sololá	701	Sololá	3	Barraneche	5	Mayo	2023-10-05T00:00:00	2024-11-06T05:00:00	6	Velocidad del viento	6.4
24814	7	Sololá	701	Sololá	3	Barraneche	5	Mayo	2023-10-05T00:00:00	2024-11-06T05:00:00	7	Dirección del viento	6.44
24815	7	Sololá	701	Sololá	3	Barraneche	5	Mayo	2023-10-05T00:00:00	2024-11-06T05:00:00	1	Precipitación	0
24816	7	Sololá	701	Sololá	3	Barraneche	5	Mayo	2023-10-05T00:00:00	2024-11-06T05:00:00	8	Radiación solar	0
24817	7	Sololá	701	Sololá	3	Barraneche	5	Mayo	2023-10-05T00:00:00	2024-11-06T06:00:00	2	Temperatura media	11.7
24818	7	Sololá	701	Sololá	3	Barraneche	5	Mayo	2023-10-05T00:00:00	2024-11-06T06:00:00	4	Temperatura máxima	11.9
24819	7	Sololá	701	Sololá	3	Barraneche	5	Mayo	2023-10-05T00:00:00	2024-11-06T06:00:00	3	Temperatura mínima	11.4
24820	7	Sololá	701	Sololá	3	Barraneche	5	Mayo	2023-10-05T00:00:00	2024-11-06T06:00:00	5	Humedad	67
24821	7	Sololá	701	Sololá	3	Barraneche	5	Mayo	2023-10-05T00:00:00	2024-11-06T06:00:00	6	Velocidad del viento	6.4
24822	7	Sololá	701	Sololá	3	Barraneche	5	Mayo	2023-10-05T00:00:00	2024-11-06T06:00:00	7	Dirección del viento	6.44
24823	7	Sololá	701	Sololá	3	Barraneche	5	Mayo	2023-10-05T00:00:00	2024-11-06T06:00:00	1	Precipitación	0
24824	7	Sololá	701	Sololá	3	Barraneche	5	Mayo	2023-10-05T00:00:00	2024-11-06T06:00:00	8	Radiación solar	7
24825	7	Sololá	701	Sololá	3	Barraneche	5	Mayo	2023-10-05T00:00:00	2024-11-06T07:00:00	2	Temperatura media	13.8
24826	7	Sololá	701	Sololá	3	Barraneche	5	Mayo	2023-10-05T00:00:00	2024-11-06T07:00:00	4	Temperatura máxima	13.8
24827	7	Sololá	701	Sololá	3	Barraneche	5	Mayo	2023-10-05T00:00:00	2024-11-06T07:00:00	3	Temperatura mínima	11.7
24828	7	Sololá	701	Sololá	3	Barraneche	5	Mayo	2023-10-05T00:00:00	2024-11-06T07:00:00	5	Humedad	68
24829	7	Sololá	701	Sololá	3	Barraneche	5	Mayo	2023-10-05T00:00:00	2024-11-06T07:00:00	6	Velocidad del viento	4.8
24830	7	Sololá	701	Sololá	3	Barraneche	5	Mayo	2023-10-05T00:00:00	2024-11-06T07:00:00	7	Dirección del viento	4.83
24831	7	Sololá	701	Sololá	3	Barraneche	5	Mayo	2023-10-05T00:00:00	2024-11-06T07:00:00	1	Precipitación	0
24832	7	Sololá	701	Sololá	3	Barraneche	5	Mayo	2023-10-05T00:00:00	2024-11-06T07:00:00	8	Radiación solar	68
24833	7	Sololá	701	Sololá	3	Barraneche	5	Mayo	2023-10-05T00:00:00	2024-11-06T08:00:00	2	Temperatura media	16.1
24834	7	Sololá	701	Sololá	3	Barraneche	5	Mayo	2023-10-05T00:00:00	2024-11-06T08:00:00	4	Temperatura máxima	16.2
24835	7	Sololá	701	Sololá	3	Barraneche	5	Mayo	2023-10-05T00:00:00	2024-11-06T08:00:00	3	Temperatura mínima	13.8
24836	7	Sololá	701	Sololá	3	Barraneche	5	Mayo	2023-10-05T00:00:00	2024-11-06T08:00:00	5	Humedad	65
24837	7	Sololá	701	Sololá	3	Barraneche	5	Mayo	2023-10-05T00:00:00	2024-11-06T08:00:00	6	Velocidad del viento	4.8
24838	7	Sololá	701	Sololá	3	Barraneche	5	Mayo	2023-10-05T00:00:00	2024-11-06T08:00:00	7	Dirección del viento	4.83
24839	7	Sololá	701	Sololá	3	Barraneche	5	Mayo	2023-10-05T00:00:00	2024-11-06T08:00:00	1	Precipitación	0
24840	7	Sololá	701	Sololá	3	Barraneche	5	Mayo	2023-10-05T00:00:00	2024-11-06T08:00:00	8	Radiación solar	245
24841	7	Sololá	701	Sololá	3	Barraneche	5	Mayo	2023-10-05T00:00:00	2024-11-06T09:00:00	2	Temperatura media	17.9
24842	7	Sololá	701	Sololá	3	Barraneche	5	Mayo	2023-10-05T00:00:00	2024-11-06T09:00:00	4	Temperatura máxima	18
24843	7	Sololá	701	Sololá	3	Barraneche	5	Mayo	2023-10-05T00:00:00	2024-11-06T09:00:00	3	Temperatura mínima	16
24844	7	Sololá	701	Sololá	3	Barraneche	5	Mayo	2023-10-05T00:00:00	2024-11-06T09:00:00	5	Humedad	62
24845	7	Sololá	701	Sololá	3	Barraneche	5	Mayo	2023-10-05T00:00:00	2024-11-06T09:00:00	6	Velocidad del viento	4.8
24846	7	Sololá	701	Sololá	3	Barraneche	5	Mayo	2023-10-05T00:00:00	2024-11-06T09:00:00	7	Dirección del viento	4.83
24847	7	Sololá	701	Sololá	3	Barraneche	5	Mayo	2023-10-05T00:00:00	2024-11-06T09:00:00	1	Precipitación	0
24848	7	Sololá	701	Sololá	3	Barraneche	5	Mayo	2023-10-05T00:00:00	2024-11-06T09:00:00	8	Radiación solar	576
24849	7	Sololá	701	Sololá	3	Barraneche	5	Mayo	2023-10-05T00:00:00	2024-11-06T10:00:00	2	Temperatura media	17.9
24850	7	Sololá	701	Sololá	3	Barraneche	5	Mayo	2023-10-05T00:00:00	2024-11-06T10:00:00	4	Temperatura máxima	18.4
24851	7	Sololá	701	Sololá	3	Barraneche	5	Mayo	2023-10-05T00:00:00	2024-11-06T10:00:00	3	Temperatura mínima	17.6
24852	7	Sololá	701	Sololá	3	Barraneche	5	Mayo	2023-10-05T00:00:00	2024-11-06T10:00:00	5	Humedad	64
24853	7	Sololá	701	Sololá	3	Barraneche	5	Mayo	2023-10-05T00:00:00	2024-11-06T10:00:00	6	Velocidad del viento	11.3
24854	7	Sololá	701	Sololá	3	Barraneche	5	Mayo	2023-10-05T00:00:00	2024-11-06T10:00:00	7	Dirección del viento	11.27
24855	7	Sololá	701	Sololá	3	Barraneche	5	Mayo	2023-10-05T00:00:00	2024-11-06T10:00:00	1	Precipitación	0
24856	7	Sololá	701	Sololá	3	Barraneche	5	Mayo	2023-10-05T00:00:00	2024-11-06T10:00:00	8	Radiación solar	806
24857	7	Sololá	701	Sololá	3	Barraneche	5	Mayo	2023-10-05T00:00:00	2024-11-06T11:00:00	2	Temperatura media	18.6
24858	7	Sololá	701	Sololá	3	Barraneche	5	Mayo	2023-10-05T00:00:00	2024-11-06T11:00:00	4	Temperatura máxima	18.9
24859	7	Sololá	701	Sololá	3	Barraneche	5	Mayo	2023-10-05T00:00:00	2024-11-06T11:00:00	3	Temperatura mínima	17.7
24860	7	Sololá	701	Sololá	3	Barraneche	5	Mayo	2023-10-05T00:00:00	2024-11-06T11:00:00	5	Humedad	62
24861	7	Sololá	701	Sololá	3	Barraneche	5	Mayo	2023-10-05T00:00:00	2024-11-06T11:00:00	6	Velocidad del viento	9.7
24862	7	Sololá	701	Sololá	3	Barraneche	5	Mayo	2023-10-05T00:00:00	2024-11-06T11:00:00	7	Dirección del viento	9.66
24863	7	Sololá	701	Sololá	3	Barraneche	5	Mayo	2023-10-05T00:00:00	2024-11-06T11:00:00	1	Precipitación	0
24864	7	Sololá	701	Sololá	3	Barraneche	5	Mayo	2023-10-05T00:00:00	2024-11-06T11:00:00	8	Radiación solar	731
24865	7	Sololá	701	Sololá	3	Barraneche	5	Mayo	2023-10-05T00:00:00	2024-11-06T12:00:00	2	Temperatura media	17.3
24866	7	Sololá	701	Sololá	3	Barraneche	5	Mayo	2023-10-05T00:00:00	2024-11-06T12:00:00	4	Temperatura máxima	18.9
24867	7	Sololá	701	Sololá	3	Barraneche	5	Mayo	2023-10-05T00:00:00	2024-11-06T12:00:00	3	Temperatura mínima	17.3
24868	7	Sololá	701	Sololá	3	Barraneche	5	Mayo	2023-10-05T00:00:00	2024-11-06T12:00:00	5	Humedad	69
24869	7	Sololá	701	Sololá	3	Barraneche	5	Mayo	2023-10-05T00:00:00	2024-11-06T12:00:00	6	Velocidad del viento	12.9
24870	7	Sololá	701	Sololá	3	Barraneche	5	Mayo	2023-10-05T00:00:00	2024-11-06T12:00:00	7	Dirección del viento	12.87
24871	7	Sololá	701	Sololá	3	Barraneche	5	Mayo	2023-10-05T00:00:00	2024-11-06T12:00:00	1	Precipitación	0
24872	7	Sololá	701	Sololá	3	Barraneche	5	Mayo	2023-10-05T00:00:00	2024-11-06T12:00:00	8	Radiación solar	363
24873	7	Sololá	701	Sololá	3	Barraneche	5	Mayo	2023-10-05T00:00:00	2024-11-06T13:00:00	2	Temperatura media	17
24874	7	Sololá	701	Sololá	3	Barraneche	5	Mayo	2023-10-05T00:00:00	2024-11-06T13:00:00	4	Temperatura máxima	17.4
24875	7	Sololá	701	Sololá	3	Barraneche	5	Mayo	2023-10-05T00:00:00	2024-11-06T13:00:00	3	Temperatura mínima	16.5
24876	7	Sololá	701	Sololá	3	Barraneche	5	Mayo	2023-10-05T00:00:00	2024-11-06T13:00:00	5	Humedad	69
24877	7	Sololá	701	Sololá	3	Barraneche	5	Mayo	2023-10-05T00:00:00	2024-11-06T13:00:00	6	Velocidad del viento	8
24878	7	Sololá	701	Sololá	3	Barraneche	5	Mayo	2023-10-05T00:00:00	2024-11-06T13:00:00	7	Dirección del viento	8.05
24879	7	Sololá	701	Sololá	3	Barraneche	5	Mayo	2023-10-05T00:00:00	2024-11-06T13:00:00	1	Precipitación	0.2
24880	7	Sololá	701	Sololá	3	Barraneche	5	Mayo	2023-10-05T00:00:00	2024-11-06T13:00:00	8	Radiación solar	222
24881	7	Sololá	701	Sololá	3	Barraneche	5	Mayo	2023-10-05T00:00:00	2024-11-06T14:00:00	2	Temperatura media	17.3
24882	7	Sololá	701	Sololá	3	Barraneche	5	Mayo	2023-10-05T00:00:00	2024-11-06T14:00:00	4	Temperatura máxima	17.7
24883	7	Sololá	701	Sololá	3	Barraneche	5	Mayo	2023-10-05T00:00:00	2024-11-06T14:00:00	3	Temperatura mínima	17
24884	7	Sololá	701	Sololá	3	Barraneche	5	Mayo	2023-10-05T00:00:00	2024-11-06T14:00:00	5	Humedad	67
24885	7	Sololá	701	Sololá	3	Barraneche	5	Mayo	2023-10-05T00:00:00	2024-11-06T14:00:00	6	Velocidad del viento	9.7
24886	7	Sololá	701	Sololá	3	Barraneche	5	Mayo	2023-10-05T00:00:00	2024-11-06T14:00:00	7	Dirección del viento	9.66
24887	7	Sololá	701	Sololá	3	Barraneche	5	Mayo	2023-10-05T00:00:00	2024-11-06T14:00:00	1	Precipitación	0
24888	7	Sololá	701	Sololá	3	Barraneche	5	Mayo	2023-10-05T00:00:00	2024-11-06T14:00:00	8	Radiación solar	311
24889	7	Sololá	701	Sololá	3	Barraneche	5	Mayo	2023-10-05T00:00:00	2024-11-06T15:00:00	2	Temperatura media	15.9
24890	7	Sololá	701	Sololá	3	Barraneche	5	Mayo	2023-10-05T00:00:00	2024-11-06T15:00:00	4	Temperatura máxima	17.3
24891	7	Sololá	701	Sololá	3	Barraneche	5	Mayo	2023-10-05T00:00:00	2024-11-06T15:00:00	3	Temperatura mínima	15.9
24892	7	Sololá	701	Sololá	3	Barraneche	5	Mayo	2023-10-05T00:00:00	2024-11-06T15:00:00	5	Humedad	73
24893	7	Sololá	701	Sololá	3	Barraneche	5	Mayo	2023-10-05T00:00:00	2024-11-06T15:00:00	6	Velocidad del viento	9.7
24894	7	Sololá	701	Sololá	3	Barraneche	5	Mayo	2023-10-05T00:00:00	2024-11-06T15:00:00	7	Dirección del viento	9.66
24895	7	Sololá	701	Sololá	3	Barraneche	5	Mayo	2023-10-05T00:00:00	2024-11-06T15:00:00	1	Precipitación	0.8
24896	7	Sololá	701	Sololá	3	Barraneche	5	Mayo	2023-10-05T00:00:00	2024-11-06T15:00:00	8	Radiación solar	55
24897	7	Sololá	701	Sololá	3	Barraneche	5	Mayo	2023-10-05T00:00:00	2024-11-06T16:00:00	2	Temperatura media	15.1
24898	7	Sololá	701	Sololá	3	Barraneche	5	Mayo	2023-10-05T00:00:00	2024-11-06T16:00:00	4	Temperatura máxima	15.9
24899	7	Sololá	701	Sololá	3	Barraneche	5	Mayo	2023-10-05T00:00:00	2024-11-06T16:00:00	3	Temperatura mínima	14.9
24900	7	Sololá	701	Sololá	3	Barraneche	5	Mayo	2023-10-05T00:00:00	2024-11-06T16:00:00	5	Humedad	78
24901	7	Sololá	701	Sololá	3	Barraneche	5	Mayo	2023-10-05T00:00:00	2024-11-06T16:00:00	6	Velocidad del viento	3.2
24902	7	Sololá	701	Sololá	3	Barraneche	5	Mayo	2023-10-05T00:00:00	2024-11-06T16:00:00	7	Dirección del viento	3.22
24903	7	Sololá	701	Sololá	3	Barraneche	5	Mayo	2023-10-05T00:00:00	2024-11-06T16:00:00	1	Precipitación	6.6
24904	7	Sololá	701	Sololá	3	Barraneche	5	Mayo	2023-10-05T00:00:00	2024-11-06T16:00:00	8	Radiación solar	24
24905	7	Sololá	701	Sololá	3	Barraneche	5	Mayo	2023-10-05T00:00:00	2024-11-06T17:00:00	2	Temperatura media	15.2
24906	7	Sololá	701	Sololá	3	Barraneche	5	Mayo	2023-10-05T00:00:00	2024-11-06T17:00:00	4	Temperatura máxima	15.4
24907	7	Sololá	701	Sololá	3	Barraneche	5	Mayo	2023-10-05T00:00:00	2024-11-06T17:00:00	3	Temperatura mínima	15
24908	7	Sololá	701	Sololá	3	Barraneche	5	Mayo	2023-10-05T00:00:00	2024-11-06T17:00:00	5	Humedad	80
24909	7	Sololá	701	Sololá	3	Barraneche	5	Mayo	2023-10-05T00:00:00	2024-11-06T17:00:00	6	Velocidad del viento	3.2
24910	7	Sololá	701	Sololá	3	Barraneche	5	Mayo	2023-10-05T00:00:00	2024-11-06T17:00:00	7	Dirección del viento	3.22
24911	7	Sololá	701	Sololá	3	Barraneche	5	Mayo	2023-10-05T00:00:00	2024-11-06T17:00:00	1	Precipitación	0.2
24912	7	Sololá	701	Sololá	3	Barraneche	5	Mayo	2023-10-05T00:00:00	2024-11-06T17:00:00	8	Radiación solar	27
24913	7	Sololá	701	Sololá	3	Barraneche	5	Mayo	2023-10-05T00:00:00	2024-11-06T18:00:00	2	Temperatura media	15.1
24914	7	Sololá	701	Sololá	3	Barraneche	5	Mayo	2023-10-05T00:00:00	2024-11-06T18:00:00	4	Temperatura máxima	15.2
24915	7	Sololá	701	Sololá	3	Barraneche	5	Mayo	2023-10-05T00:00:00	2024-11-06T18:00:00	3	Temperatura mínima	15
24916	7	Sololá	701	Sololá	3	Barraneche	5	Mayo	2023-10-05T00:00:00	2024-11-06T18:00:00	5	Humedad	84
24917	7	Sololá	701	Sololá	3	Barraneche	5	Mayo	2023-10-05T00:00:00	2024-11-06T18:00:00	6	Velocidad del viento	1.6
24918	7	Sololá	701	Sololá	3	Barraneche	5	Mayo	2023-10-05T00:00:00	2024-11-06T18:00:00	7	Dirección del viento	1.61
24919	7	Sololá	701	Sololá	3	Barraneche	5	Mayo	2023-10-05T00:00:00	2024-11-06T18:00:00	1	Precipitación	1.2
24920	7	Sololá	701	Sololá	3	Barraneche	5	Mayo	2023-10-05T00:00:00	2024-11-06T18:00:00	8	Radiación solar	7
24921	7	Sololá	701	Sololá	3	Barraneche	5	Mayo	2023-10-05T00:00:00	2024-11-06T19:00:00	2	Temperatura media	13.9
24922	7	Sololá	701	Sololá	3	Barraneche	5	Mayo	2023-10-05T00:00:00	2024-11-06T19:00:00	4	Temperatura máxima	15.1
24923	7	Sololá	701	Sololá	3	Barraneche	5	Mayo	2023-10-05T00:00:00	2024-11-06T19:00:00	3	Temperatura mínima	13.9
24924	7	Sololá	701	Sololá	3	Barraneche	5	Mayo	2023-10-05T00:00:00	2024-11-06T19:00:00	5	Humedad	81
24925	7	Sololá	701	Sololá	3	Barraneche	5	Mayo	2023-10-05T00:00:00	2024-11-06T19:00:00	6	Velocidad del viento	4.8
24926	7	Sololá	701	Sololá	3	Barraneche	5	Mayo	2023-10-05T00:00:00	2024-11-06T19:00:00	7	Dirección del viento	4.83
24927	7	Sololá	701	Sololá	3	Barraneche	5	Mayo	2023-10-05T00:00:00	2024-11-06T19:00:00	1	Precipitación	2
24928	7	Sololá	701	Sololá	3	Barraneche	5	Mayo	2023-10-05T00:00:00	2024-11-06T19:00:00	8	Radiación solar	0
24929	7	Sololá	701	Sololá	3	Barraneche	5	Mayo	2023-10-05T00:00:00	2024-11-06T20:00:00	2	Temperatura media	12.3
24930	7	Sololá	701	Sololá	3	Barraneche	5	Mayo	2023-10-05T00:00:00	2024-11-06T20:00:00	4	Temperatura máxima	14
24931	7	Sololá	701	Sololá	3	Barraneche	5	Mayo	2023-10-05T00:00:00	2024-11-06T20:00:00	3	Temperatura mínima	12.3
24932	7	Sololá	701	Sololá	3	Barraneche	5	Mayo	2023-10-05T00:00:00	2024-11-06T20:00:00	5	Humedad	71
24933	7	Sololá	701	Sololá	3	Barraneche	5	Mayo	2023-10-05T00:00:00	2024-11-06T20:00:00	6	Velocidad del viento	6.4
24934	7	Sololá	701	Sololá	3	Barraneche	5	Mayo	2023-10-05T00:00:00	2024-11-06T20:00:00	7	Dirección del viento	6.44
24935	7	Sololá	701	Sololá	3	Barraneche	5	Mayo	2023-10-05T00:00:00	2024-11-06T20:00:00	1	Precipitación	5.8
24936	7	Sololá	701	Sololá	3	Barraneche	5	Mayo	2023-10-05T00:00:00	2024-11-06T20:00:00	8	Radiación solar	0
24937	7	Sololá	701	Sololá	3	Barraneche	5	Mayo	2023-10-05T00:00:00	2024-11-06T21:00:00	2	Temperatura media	11.1
24938	7	Sololá	701	Sololá	3	Barraneche	5	Mayo	2023-10-05T00:00:00	2024-11-06T21:00:00	4	Temperatura máxima	12.3
24939	7	Sololá	701	Sololá	3	Barraneche	5	Mayo	2023-10-05T00:00:00	2024-11-06T21:00:00	3	Temperatura mínima	11.1
24940	7	Sololá	701	Sololá	3	Barraneche	5	Mayo	2023-10-05T00:00:00	2024-11-06T21:00:00	5	Humedad	71
24941	7	Sololá	701	Sololá	3	Barraneche	5	Mayo	2023-10-05T00:00:00	2024-11-06T21:00:00	6	Velocidad del viento	6.4
24942	7	Sololá	701	Sololá	3	Barraneche	5	Mayo	2023-10-05T00:00:00	2024-11-06T21:00:00	7	Dirección del viento	6.44
24943	7	Sololá	701	Sololá	3	Barraneche	5	Mayo	2023-10-05T00:00:00	2024-11-06T21:00:00	1	Precipitación	0.4
24944	7	Sololá	701	Sololá	3	Barraneche	5	Mayo	2023-10-05T00:00:00	2024-11-06T21:00:00	8	Radiación solar	0
24945	7	Sololá	701	Sololá	3	Barraneche	5	Mayo	2023-10-05T00:00:00	2024-11-06T22:00:00	2	Temperatura media	11.4
24946	7	Sololá	701	Sololá	3	Barraneche	5	Mayo	2023-10-05T00:00:00	2024-11-06T22:00:00	4	Temperatura máxima	11.4
24947	7	Sololá	701	Sololá	3	Barraneche	5	Mayo	2023-10-05T00:00:00	2024-11-06T22:00:00	3	Temperatura mínima	10.9
24948	7	Sololá	701	Sololá	3	Barraneche	5	Mayo	2023-10-05T00:00:00	2024-11-06T22:00:00	5	Humedad	68
24949	7	Sololá	701	Sololá	3	Barraneche	5	Mayo	2023-10-05T00:00:00	2024-11-06T22:00:00	6	Velocidad del viento	14.5
24950	7	Sololá	701	Sololá	3	Barraneche	5	Mayo	2023-10-05T00:00:00	2024-11-06T22:00:00	7	Dirección del viento	14.48
24951	7	Sololá	701	Sololá	3	Barraneche	5	Mayo	2023-10-05T00:00:00	2024-11-06T22:00:00	1	Precipitación	0.2
24952	7	Sololá	701	Sololá	3	Barraneche	5	Mayo	2023-10-05T00:00:00	2024-11-06T22:00:00	8	Radiación solar	0
24953	7	Sololá	701	Sololá	3	Barraneche	5	Mayo	2023-10-05T00:00:00	2024-11-06T23:00:00	2	Temperatura media	12.1
24954	7	Sololá	701	Sololá	3	Barraneche	5	Mayo	2023-10-05T00:00:00	2024-11-06T23:00:00	4	Temperatura máxima	12.3
24955	7	Sololá	701	Sololá	3	Barraneche	5	Mayo	2023-10-05T00:00:00	2024-11-06T23:00:00	3	Temperatura mínima	11.4
24956	7	Sololá	701	Sololá	3	Barraneche	5	Mayo	2023-10-05T00:00:00	2024-11-06T23:00:00	5	Humedad	66
24957	7	Sololá	701	Sololá	3	Barraneche	5	Mayo	2023-10-05T00:00:00	2024-11-06T23:00:00	6	Velocidad del viento	16.1
24958	7	Sololá	701	Sololá	3	Barraneche	5	Mayo	2023-10-05T00:00:00	2024-11-06T23:00:00	7	Dirección del viento	16.09
24959	7	Sololá	701	Sololá	3	Barraneche	5	Mayo	2023-10-05T00:00:00	2024-11-06T23:00:00	1	Precipitación	0
24960	7	Sololá	701	Sololá	3	Barraneche	5	Mayo	2023-10-05T00:00:00	2024-11-06T23:00:00	8	Radiación solar	0
24961	7	Sololá	701	Sololá	3	Barraneche	5	Mayo	2023-11-05T00:00:00	2024-11-06T00:00:00	2	Temperatura media	11
24962	7	Sololá	701	Sololá	3	Barraneche	5	Mayo	2023-11-05T00:00:00	2024-11-06T00:00:00	4	Temperatura máxima	13.8
24963	7	Sololá	701	Sololá	3	Barraneche	5	Mayo	2023-11-05T00:00:00	2024-11-06T00:00:00	3	Temperatura mínima	11
24964	7	Sololá	701	Sololá	3	Barraneche	5	Mayo	2023-11-05T00:00:00	2024-11-06T00:00:00	5	Humedad	72
24965	7	Sololá	701	Sololá	3	Barraneche	5	Mayo	2023-11-05T00:00:00	2024-11-06T00:00:00	6	Velocidad del viento	9.7
24966	7	Sololá	701	Sololá	3	Barraneche	5	Mayo	2023-11-05T00:00:00	2024-11-06T00:00:00	7	Dirección del viento	9.66
24967	7	Sololá	701	Sololá	3	Barraneche	5	Mayo	2023-11-05T00:00:00	2024-11-06T00:00:00	1	Precipitación	0
24968	7	Sololá	701	Sololá	3	Barraneche	5	Mayo	2023-11-05T00:00:00	2024-11-06T00:00:00	8	Radiación solar	0
24969	7	Sololá	701	Sololá	3	Barraneche	5	Mayo	2023-11-05T00:00:00	2024-11-06T01:00:00	2	Temperatura media	10
24970	7	Sololá	701	Sololá	3	Barraneche	5	Mayo	2023-11-05T00:00:00	2024-11-06T01:00:00	4	Temperatura máxima	11
24971	7	Sololá	701	Sololá	3	Barraneche	5	Mayo	2023-11-05T00:00:00	2024-11-06T01:00:00	3	Temperatura mínima	9.9
24972	7	Sololá	701	Sololá	3	Barraneche	5	Mayo	2023-11-05T00:00:00	2024-11-06T01:00:00	5	Humedad	72
24973	7	Sololá	701	Sololá	3	Barraneche	5	Mayo	2023-11-05T00:00:00	2024-11-06T01:00:00	6	Velocidad del viento	6.4
24974	7	Sololá	701	Sololá	3	Barraneche	5	Mayo	2023-11-05T00:00:00	2024-11-06T01:00:00	7	Dirección del viento	6.44
24975	7	Sololá	701	Sololá	3	Barraneche	5	Mayo	2023-11-05T00:00:00	2024-11-06T01:00:00	1	Precipitación	0
24976	7	Sololá	701	Sololá	3	Barraneche	5	Mayo	2023-11-05T00:00:00	2024-11-06T01:00:00	8	Radiación solar	0
24977	7	Sololá	701	Sololá	3	Barraneche	5	Mayo	2023-11-05T00:00:00	2024-11-06T02:00:00	2	Temperatura media	11.1
24978	7	Sololá	701	Sololá	3	Barraneche	5	Mayo	2023-11-05T00:00:00	2024-11-06T02:00:00	4	Temperatura máxima	11.1
24979	7	Sololá	701	Sololá	3	Barraneche	5	Mayo	2023-11-05T00:00:00	2024-11-06T02:00:00	3	Temperatura mínima	10
24980	7	Sololá	701	Sololá	3	Barraneche	5	Mayo	2023-11-05T00:00:00	2024-11-06T02:00:00	5	Humedad	69
24981	7	Sololá	701	Sololá	3	Barraneche	5	Mayo	2023-11-05T00:00:00	2024-11-06T02:00:00	6	Velocidad del viento	9.7
24982	7	Sololá	701	Sololá	3	Barraneche	5	Mayo	2023-11-05T00:00:00	2024-11-06T02:00:00	7	Dirección del viento	9.66
24983	7	Sololá	701	Sololá	3	Barraneche	5	Mayo	2023-11-05T00:00:00	2024-11-06T02:00:00	1	Precipitación	0
24984	7	Sololá	701	Sololá	3	Barraneche	5	Mayo	2023-11-05T00:00:00	2024-11-06T02:00:00	8	Radiación solar	0
24985	7	Sololá	701	Sololá	3	Barraneche	5	Mayo	2023-11-05T00:00:00	2024-11-06T03:00:00	2	Temperatura media	11
24986	7	Sololá	701	Sololá	3	Barraneche	5	Mayo	2023-11-05T00:00:00	2024-11-06T03:00:00	4	Temperatura máxima	11.2
24987	7	Sololá	701	Sololá	3	Barraneche	5	Mayo	2023-11-05T00:00:00	2024-11-06T03:00:00	3	Temperatura mínima	10.8
24988	7	Sololá	701	Sololá	3	Barraneche	5	Mayo	2023-11-05T00:00:00	2024-11-06T03:00:00	5	Humedad	68
24989	7	Sololá	701	Sololá	3	Barraneche	5	Mayo	2023-11-05T00:00:00	2024-11-06T03:00:00	6	Velocidad del viento	9.7
24990	7	Sololá	701	Sololá	3	Barraneche	5	Mayo	2023-11-05T00:00:00	2024-11-06T03:00:00	7	Dirección del viento	9.66
24991	7	Sololá	701	Sololá	3	Barraneche	5	Mayo	2023-11-05T00:00:00	2024-11-06T03:00:00	1	Precipitación	0
24992	7	Sololá	701	Sololá	3	Barraneche	5	Mayo	2023-11-05T00:00:00	2024-11-06T03:00:00	8	Radiación solar	0
24993	7	Sololá	701	Sololá	3	Barraneche	5	Mayo	2023-11-05T00:00:00	2024-11-06T04:00:00	2	Temperatura media	10.8
24994	7	Sololá	701	Sololá	3	Barraneche	5	Mayo	2023-11-05T00:00:00	2024-11-06T04:00:00	4	Temperatura máxima	11
24995	7	Sololá	701	Sololá	3	Barraneche	5	Mayo	2023-11-05T00:00:00	2024-11-06T04:00:00	3	Temperatura mínima	10.6
24996	7	Sololá	701	Sololá	3	Barraneche	5	Mayo	2023-11-05T00:00:00	2024-11-06T04:00:00	5	Humedad	67
24997	7	Sololá	701	Sololá	3	Barraneche	5	Mayo	2023-11-05T00:00:00	2024-11-06T04:00:00	6	Velocidad del viento	8
24998	7	Sololá	701	Sololá	3	Barraneche	5	Mayo	2023-11-05T00:00:00	2024-11-06T04:00:00	7	Dirección del viento	8.05
24999	7	Sololá	701	Sololá	3	Barraneche	5	Mayo	2023-11-05T00:00:00	2024-11-06T04:00:00	1	Precipitación	0
25000	7	Sololá	701	Sololá	3	Barraneche	5	Mayo	2023-11-05T00:00:00	2024-11-06T04:00:00	8	Radiación solar	0
25001	7	Sololá	701	Sololá	3	Barraneche	5	Mayo	2023-11-05T00:00:00	2024-11-06T05:00:00	2	Temperatura media	10.9
25002	7	Sololá	701	Sololá	3	Barraneche	5	Mayo	2023-11-05T00:00:00	2024-11-06T05:00:00	4	Temperatura máxima	11
25003	7	Sololá	701	Sololá	3	Barraneche	5	Mayo	2023-11-05T00:00:00	2024-11-06T05:00:00	3	Temperatura mínima	10.6
25004	7	Sololá	701	Sololá	3	Barraneche	5	Mayo	2023-11-05T00:00:00	2024-11-06T05:00:00	5	Humedad	67
25005	7	Sololá	701	Sololá	3	Barraneche	5	Mayo	2023-11-05T00:00:00	2024-11-06T05:00:00	6	Velocidad del viento	11.3
25006	7	Sololá	701	Sololá	3	Barraneche	5	Mayo	2023-11-05T00:00:00	2024-11-06T05:00:00	7	Dirección del viento	11.27
25007	7	Sololá	701	Sololá	3	Barraneche	5	Mayo	2023-11-05T00:00:00	2024-11-06T05:00:00	1	Precipitación	0
25008	7	Sololá	701	Sololá	3	Barraneche	5	Mayo	2023-11-05T00:00:00	2024-11-06T05:00:00	8	Radiación solar	0
25009	7	Sololá	701	Sololá	3	Barraneche	5	Mayo	2023-11-05T00:00:00	2024-11-06T06:00:00	2	Temperatura media	11.4
25010	7	Sololá	701	Sololá	3	Barraneche	5	Mayo	2023-11-05T00:00:00	2024-11-06T06:00:00	4	Temperatura máxima	11.4
25011	7	Sololá	701	Sololá	3	Barraneche	5	Mayo	2023-11-05T00:00:00	2024-11-06T06:00:00	3	Temperatura mínima	10.9
25012	7	Sololá	701	Sololá	3	Barraneche	5	Mayo	2023-11-05T00:00:00	2024-11-06T06:00:00	5	Humedad	69
25013	7	Sololá	701	Sololá	3	Barraneche	5	Mayo	2023-11-05T00:00:00	2024-11-06T06:00:00	6	Velocidad del viento	9.7
25014	7	Sololá	701	Sololá	3	Barraneche	5	Mayo	2023-11-05T00:00:00	2024-11-06T06:00:00	7	Dirección del viento	9.66
25015	7	Sololá	701	Sololá	3	Barraneche	5	Mayo	2023-11-05T00:00:00	2024-11-06T06:00:00	1	Precipitación	0
25016	7	Sololá	701	Sololá	3	Barraneche	5	Mayo	2023-11-05T00:00:00	2024-11-06T06:00:00	8	Radiación solar	6
25017	7	Sololá	701	Sololá	3	Barraneche	5	Mayo	2023-11-05T00:00:00	2024-11-06T07:00:00	2	Temperatura media	13.4
25018	7	Sololá	701	Sololá	3	Barraneche	5	Mayo	2023-11-05T00:00:00	2024-11-06T07:00:00	4	Temperatura máxima	13.4
25019	7	Sololá	701	Sololá	3	Barraneche	5	Mayo	2023-11-05T00:00:00	2024-11-06T07:00:00	3	Temperatura mínima	11.4
25020	7	Sololá	701	Sololá	3	Barraneche	5	Mayo	2023-11-05T00:00:00	2024-11-06T07:00:00	5	Humedad	66
25021	7	Sololá	701	Sololá	3	Barraneche	5	Mayo	2023-11-05T00:00:00	2024-11-06T07:00:00	6	Velocidad del viento	8
25022	7	Sololá	701	Sololá	3	Barraneche	5	Mayo	2023-11-05T00:00:00	2024-11-06T07:00:00	7	Dirección del viento	8.05
25023	7	Sololá	701	Sololá	3	Barraneche	5	Mayo	2023-11-05T00:00:00	2024-11-06T07:00:00	1	Precipitación	0
25024	7	Sololá	701	Sololá	3	Barraneche	5	Mayo	2023-11-05T00:00:00	2024-11-06T07:00:00	8	Radiación solar	107
25025	7	Sololá	701	Sololá	3	Barraneche	5	Mayo	2023-11-05T00:00:00	2024-11-06T08:00:00	2	Temperatura media	15.9
25026	7	Sololá	701	Sololá	3	Barraneche	5	Mayo	2023-11-05T00:00:00	2024-11-06T08:00:00	4	Temperatura máxima	15.9
25027	7	Sololá	701	Sololá	3	Barraneche	5	Mayo	2023-11-05T00:00:00	2024-11-06T08:00:00	3	Temperatura mínima	13.4
25028	7	Sololá	701	Sololá	3	Barraneche	5	Mayo	2023-11-05T00:00:00	2024-11-06T08:00:00	5	Humedad	58
25029	7	Sololá	701	Sololá	3	Barraneche	5	Mayo	2023-11-05T00:00:00	2024-11-06T08:00:00	6	Velocidad del viento	3.2
25030	7	Sololá	701	Sololá	3	Barraneche	5	Mayo	2023-11-05T00:00:00	2024-11-06T08:00:00	7	Dirección del viento	3.22
25031	7	Sololá	701	Sololá	3	Barraneche	5	Mayo	2023-11-05T00:00:00	2024-11-06T08:00:00	1	Precipitación	0
25032	7	Sololá	701	Sololá	3	Barraneche	5	Mayo	2023-11-05T00:00:00	2024-11-06T08:00:00	8	Radiación solar	371
25033	7	Sololá	701	Sololá	3	Barraneche	5	Mayo	2023-11-05T00:00:00	2024-11-06T09:00:00	2	Temperatura media	16.7
25034	7	Sololá	701	Sololá	3	Barraneche	5	Mayo	2023-11-05T00:00:00	2024-11-06T09:00:00	4	Temperatura máxima	16.7
25035	7	Sololá	701	Sololá	3	Barraneche	5	Mayo	2023-11-05T00:00:00	2024-11-06T09:00:00	3	Temperatura mínima	15.9
25036	7	Sololá	701	Sololá	3	Barraneche	5	Mayo	2023-11-05T00:00:00	2024-11-06T09:00:00	5	Humedad	57
25037	7	Sololá	701	Sololá	3	Barraneche	5	Mayo	2023-11-05T00:00:00	2024-11-06T09:00:00	6	Velocidad del viento	4.8
25038	7	Sololá	701	Sololá	3	Barraneche	5	Mayo	2023-11-05T00:00:00	2024-11-06T09:00:00	7	Dirección del viento	4.83
25039	7	Sololá	701	Sololá	3	Barraneche	5	Mayo	2023-11-05T00:00:00	2024-11-06T09:00:00	1	Precipitación	0
25040	7	Sololá	701	Sololá	3	Barraneche	5	Mayo	2023-11-05T00:00:00	2024-11-06T09:00:00	8	Radiación solar	609
25041	7	Sololá	701	Sololá	3	Barraneche	5	Mayo	2023-11-05T00:00:00	2024-11-06T10:00:00	2	Temperatura media	16.8
25042	7	Sololá	701	Sololá	3	Barraneche	5	Mayo	2023-11-05T00:00:00	2024-11-06T10:00:00	4	Temperatura máxima	16.8
25043	7	Sololá	701	Sololá	3	Barraneche	5	Mayo	2023-11-05T00:00:00	2024-11-06T10:00:00	3	Temperatura mínima	16.5
25044	7	Sololá	701	Sololá	3	Barraneche	5	Mayo	2023-11-05T00:00:00	2024-11-06T10:00:00	5	Humedad	64
25045	7	Sololá	701	Sololá	3	Barraneche	5	Mayo	2023-11-05T00:00:00	2024-11-06T10:00:00	6	Velocidad del viento	11.3
25046	7	Sololá	701	Sololá	3	Barraneche	5	Mayo	2023-11-05T00:00:00	2024-11-06T10:00:00	7	Dirección del viento	11.27
25047	7	Sololá	701	Sololá	3	Barraneche	5	Mayo	2023-11-05T00:00:00	2024-11-06T10:00:00	1	Precipitación	0
25048	7	Sololá	701	Sololá	3	Barraneche	5	Mayo	2023-11-05T00:00:00	2024-11-06T10:00:00	8	Radiación solar	804
25049	7	Sololá	701	Sololá	3	Barraneche	5	Mayo	2023-11-05T00:00:00	2024-11-06T11:00:00	2	Temperatura media	16.6
25050	7	Sololá	701	Sololá	3	Barraneche	5	Mayo	2023-11-05T00:00:00	2024-11-06T11:00:00	4	Temperatura máxima	17.3
25051	7	Sololá	701	Sololá	3	Barraneche	5	Mayo	2023-11-05T00:00:00	2024-11-06T11:00:00	3	Temperatura mínima	16.5
25052	7	Sololá	701	Sololá	3	Barraneche	5	Mayo	2023-11-05T00:00:00	2024-11-06T11:00:00	5	Humedad	67
25053	7	Sololá	701	Sololá	3	Barraneche	5	Mayo	2023-11-05T00:00:00	2024-11-06T11:00:00	6	Velocidad del viento	11.3
25054	7	Sololá	701	Sololá	3	Barraneche	5	Mayo	2023-11-05T00:00:00	2024-11-06T11:00:00	7	Dirección del viento	11.27
25055	7	Sololá	701	Sololá	3	Barraneche	5	Mayo	2023-11-05T00:00:00	2024-11-06T11:00:00	1	Precipitación	0
25056	7	Sololá	701	Sololá	3	Barraneche	5	Mayo	2023-11-05T00:00:00	2024-11-06T11:00:00	8	Radiación solar	556
25057	7	Sololá	701	Sololá	3	Barraneche	5	Mayo	2023-11-05T00:00:00	2024-11-06T12:00:00	2	Temperatura media	16.4
25058	7	Sololá	701	Sololá	3	Barraneche	5	Mayo	2023-11-05T00:00:00	2024-11-06T12:00:00	4	Temperatura máxima	16.7
25059	7	Sololá	701	Sololá	3	Barraneche	5	Mayo	2023-11-05T00:00:00	2024-11-06T12:00:00	3	Temperatura mínima	16.3
25060	7	Sololá	701	Sololá	3	Barraneche	5	Mayo	2023-11-05T00:00:00	2024-11-06T12:00:00	5	Humedad	66
25061	7	Sololá	701	Sololá	3	Barraneche	5	Mayo	2023-11-05T00:00:00	2024-11-06T12:00:00	6	Velocidad del viento	9.7
25062	7	Sololá	701	Sololá	3	Barraneche	5	Mayo	2023-11-05T00:00:00	2024-11-06T12:00:00	7	Dirección del viento	9.66
25063	7	Sololá	701	Sololá	3	Barraneche	5	Mayo	2023-11-05T00:00:00	2024-11-06T12:00:00	1	Precipitación	0
25064	7	Sololá	701	Sololá	3	Barraneche	5	Mayo	2023-11-05T00:00:00	2024-11-06T12:00:00	8	Radiación solar	247
25065	7	Sololá	701	Sololá	3	Barraneche	5	Mayo	2023-11-05T00:00:00	2024-11-06T13:00:00	2	Temperatura media	16.6
25066	7	Sololá	701	Sololá	3	Barraneche	5	Mayo	2023-11-05T00:00:00	2024-11-06T13:00:00	4	Temperatura máxima	16.6
25067	7	Sololá	701	Sololá	3	Barraneche	5	Mayo	2023-11-05T00:00:00	2024-11-06T13:00:00	3	Temperatura mínima	16.2
25068	7	Sololá	701	Sololá	3	Barraneche	5	Mayo	2023-11-05T00:00:00	2024-11-06T13:00:00	5	Humedad	68
25069	7	Sololá	701	Sololá	3	Barraneche	5	Mayo	2023-11-05T00:00:00	2024-11-06T13:00:00	6	Velocidad del viento	4.8
25070	7	Sololá	701	Sololá	3	Barraneche	5	Mayo	2023-11-05T00:00:00	2024-11-06T13:00:00	7	Dirección del viento	4.83
25071	7	Sololá	701	Sololá	3	Barraneche	5	Mayo	2023-11-05T00:00:00	2024-11-06T13:00:00	1	Precipitación	0
25072	7	Sololá	701	Sololá	3	Barraneche	5	Mayo	2023-11-05T00:00:00	2024-11-06T13:00:00	8	Radiación solar	214
25073	7	Sololá	701	Sololá	3	Barraneche	5	Mayo	2023-11-05T00:00:00	2024-11-06T14:00:00	2	Temperatura media	16.4
25074	7	Sololá	701	Sololá	3	Barraneche	5	Mayo	2023-11-05T00:00:00	2024-11-06T14:00:00	4	Temperatura máxima	17.1
25075	7	Sololá	701	Sololá	3	Barraneche	5	Mayo	2023-11-05T00:00:00	2024-11-06T14:00:00	3	Temperatura mínima	16.4
25076	7	Sololá	701	Sololá	3	Barraneche	5	Mayo	2023-11-05T00:00:00	2024-11-06T14:00:00	5	Humedad	71
25077	7	Sololá	701	Sololá	3	Barraneche	5	Mayo	2023-11-05T00:00:00	2024-11-06T14:00:00	6	Velocidad del viento	6.4
25078	7	Sololá	701	Sololá	3	Barraneche	5	Mayo	2023-11-05T00:00:00	2024-11-06T14:00:00	7	Dirección del viento	6.44
25079	7	Sololá	701	Sololá	3	Barraneche	5	Mayo	2023-11-05T00:00:00	2024-11-06T14:00:00	1	Precipitación	0
25080	7	Sololá	701	Sololá	3	Barraneche	5	Mayo	2023-11-05T00:00:00	2024-11-06T14:00:00	8	Radiación solar	260
25081	7	Sololá	701	Sololá	3	Barraneche	5	Mayo	2023-11-05T00:00:00	2024-11-06T15:00:00	2	Temperatura media	16.6
25082	7	Sololá	701	Sololá	3	Barraneche	5	Mayo	2023-11-05T00:00:00	2024-11-06T15:00:00	4	Temperatura máxima	16.8
25083	7	Sololá	701	Sololá	3	Barraneche	5	Mayo	2023-11-05T00:00:00	2024-11-06T15:00:00	3	Temperatura mínima	16.3
25084	7	Sololá	701	Sololá	3	Barraneche	5	Mayo	2023-11-05T00:00:00	2024-11-06T15:00:00	5	Humedad	71
25085	7	Sololá	701	Sololá	3	Barraneche	5	Mayo	2023-11-05T00:00:00	2024-11-06T15:00:00	6	Velocidad del viento	6.4
25086	7	Sololá	701	Sololá	3	Barraneche	5	Mayo	2023-11-05T00:00:00	2024-11-06T15:00:00	7	Dirección del viento	6.44
25087	7	Sololá	701	Sololá	3	Barraneche	5	Mayo	2023-11-05T00:00:00	2024-11-06T15:00:00	1	Precipitación	0
25088	7	Sololá	701	Sololá	3	Barraneche	5	Mayo	2023-11-05T00:00:00	2024-11-06T15:00:00	8	Radiación solar	238
25089	7	Sololá	701	Sololá	3	Barraneche	5	Mayo	2023-11-05T00:00:00	2024-11-06T16:00:00	2	Temperatura media	15.2
25090	7	Sololá	701	Sololá	3	Barraneche	5	Mayo	2023-11-05T00:00:00	2024-11-06T16:00:00	4	Temperatura máxima	16.6
25091	7	Sololá	701	Sololá	3	Barraneche	5	Mayo	2023-11-05T00:00:00	2024-11-06T16:00:00	3	Temperatura mínima	15.2
25092	7	Sololá	701	Sololá	3	Barraneche	5	Mayo	2023-11-05T00:00:00	2024-11-06T16:00:00	5	Humedad	75
25093	7	Sololá	701	Sololá	3	Barraneche	5	Mayo	2023-11-05T00:00:00	2024-11-06T16:00:00	6	Velocidad del viento	9.7
25094	7	Sololá	701	Sololá	3	Barraneche	5	Mayo	2023-11-05T00:00:00	2024-11-06T16:00:00	7	Dirección del viento	9.66
25095	7	Sololá	701	Sololá	3	Barraneche	5	Mayo	2023-11-05T00:00:00	2024-11-06T16:00:00	1	Precipitación	0
25096	7	Sololá	701	Sololá	3	Barraneche	5	Mayo	2023-11-05T00:00:00	2024-11-06T16:00:00	8	Radiación solar	128
25097	7	Sololá	701	Sololá	3	Barraneche	5	Mayo	2023-11-05T00:00:00	2024-11-06T17:00:00	2	Temperatura media	15.2
25098	7	Sololá	701	Sololá	3	Barraneche	5	Mayo	2023-11-05T00:00:00	2024-11-06T17:00:00	4	Temperatura máxima	15.3
25099	7	Sololá	701	Sololá	3	Barraneche	5	Mayo	2023-11-05T00:00:00	2024-11-06T17:00:00	3	Temperatura mínima	15
25100	7	Sololá	701	Sololá	3	Barraneche	5	Mayo	2023-11-05T00:00:00	2024-11-06T17:00:00	5	Humedad	78
25101	7	Sololá	701	Sololá	3	Barraneche	5	Mayo	2023-11-05T00:00:00	2024-11-06T17:00:00	6	Velocidad del viento	4.8
25102	7	Sololá	701	Sololá	3	Barraneche	5	Mayo	2023-11-05T00:00:00	2024-11-06T17:00:00	7	Dirección del viento	4.83
25103	7	Sololá	701	Sololá	3	Barraneche	5	Mayo	2023-11-05T00:00:00	2024-11-06T17:00:00	1	Precipitación	0.2
25104	7	Sololá	701	Sololá	3	Barraneche	5	Mayo	2023-11-05T00:00:00	2024-11-06T17:00:00	8	Radiación solar	79
25105	7	Sololá	701	Sololá	3	Barraneche	5	Mayo	2023-11-05T00:00:00	2024-11-06T18:00:00	2	Temperatura media	15.1
25106	7	Sololá	701	Sololá	3	Barraneche	5	Mayo	2023-11-05T00:00:00	2024-11-06T18:00:00	4	Temperatura máxima	15.3
25107	7	Sololá	701	Sololá	3	Barraneche	5	Mayo	2023-11-05T00:00:00	2024-11-06T18:00:00	3	Temperatura mínima	15
25108	7	Sololá	701	Sololá	3	Barraneche	5	Mayo	2023-11-05T00:00:00	2024-11-06T18:00:00	5	Humedad	73
25109	7	Sololá	701	Sololá	3	Barraneche	5	Mayo	2023-11-05T00:00:00	2024-11-06T18:00:00	6	Velocidad del viento	3.2
25110	7	Sololá	701	Sololá	3	Barraneche	5	Mayo	2023-11-05T00:00:00	2024-11-06T18:00:00	7	Dirección del viento	3.22
25111	7	Sololá	701	Sololá	3	Barraneche	5	Mayo	2023-11-05T00:00:00	2024-11-06T18:00:00	1	Precipitación	0
25112	7	Sololá	701	Sololá	3	Barraneche	5	Mayo	2023-11-05T00:00:00	2024-11-06T18:00:00	8	Radiación solar	75
25113	7	Sololá	701	Sololá	3	Barraneche	5	Mayo	2023-11-05T00:00:00	2024-11-06T19:00:00	2	Temperatura media	14.1
25114	7	Sololá	701	Sololá	3	Barraneche	5	Mayo	2023-11-05T00:00:00	2024-11-06T19:00:00	4	Temperatura máxima	15.2
25115	7	Sololá	701	Sololá	3	Barraneche	5	Mayo	2023-11-05T00:00:00	2024-11-06T19:00:00	3	Temperatura mínima	14.1
25116	7	Sololá	701	Sololá	3	Barraneche	5	Mayo	2023-11-05T00:00:00	2024-11-06T19:00:00	5	Humedad	71
25117	7	Sololá	701	Sololá	3	Barraneche	5	Mayo	2023-11-05T00:00:00	2024-11-06T19:00:00	6	Velocidad del viento	1.6
25118	7	Sololá	701	Sololá	3	Barraneche	5	Mayo	2023-11-05T00:00:00	2024-11-06T19:00:00	7	Dirección del viento	1.61
25119	7	Sololá	701	Sololá	3	Barraneche	5	Mayo	2023-11-05T00:00:00	2024-11-06T19:00:00	1	Precipitación	0
25120	7	Sololá	701	Sololá	3	Barraneche	5	Mayo	2023-11-05T00:00:00	2024-11-06T19:00:00	8	Radiación solar	0
25121	7	Sololá	701	Sololá	3	Barraneche	5	Mayo	2023-11-05T00:00:00	2024-11-06T20:00:00	2	Temperatura media	13.4
25122	7	Sololá	701	Sololá	3	Barraneche	5	Mayo	2023-11-05T00:00:00	2024-11-06T20:00:00	4	Temperatura máxima	14.1
25123	7	Sololá	701	Sololá	3	Barraneche	5	Mayo	2023-11-05T00:00:00	2024-11-06T20:00:00	3	Temperatura mínima	13.3
25124	7	Sololá	701	Sololá	3	Barraneche	5	Mayo	2023-11-05T00:00:00	2024-11-06T20:00:00	5	Humedad	76
25125	7	Sololá	701	Sololá	3	Barraneche	5	Mayo	2023-11-05T00:00:00	2024-11-06T20:00:00	6	Velocidad del viento	6.4
25126	7	Sololá	701	Sololá	3	Barraneche	5	Mayo	2023-11-05T00:00:00	2024-11-06T20:00:00	7	Dirección del viento	6.44
25127	7	Sololá	701	Sololá	3	Barraneche	5	Mayo	2023-11-05T00:00:00	2024-11-06T20:00:00	1	Precipitación	1.2
25128	7	Sololá	701	Sololá	3	Barraneche	5	Mayo	2023-11-05T00:00:00	2024-11-06T20:00:00	8	Radiación solar	0
25129	7	Sololá	701	Sololá	3	Barraneche	5	Mayo	2023-11-05T00:00:00	2024-11-06T21:00:00	2	Temperatura media	13.2
25130	7	Sololá	701	Sololá	3	Barraneche	5	Mayo	2023-11-05T00:00:00	2024-11-06T21:00:00	4	Temperatura máxima	13.6
25131	7	Sololá	701	Sololá	3	Barraneche	5	Mayo	2023-11-05T00:00:00	2024-11-06T21:00:00	3	Temperatura mínima	13.2
25132	7	Sololá	701	Sololá	3	Barraneche	5	Mayo	2023-11-05T00:00:00	2024-11-06T21:00:00	5	Humedad	74
25133	7	Sololá	701	Sololá	3	Barraneche	5	Mayo	2023-11-05T00:00:00	2024-11-06T21:00:00	6	Velocidad del viento	6.4
25134	7	Sololá	701	Sololá	3	Barraneche	5	Mayo	2023-11-05T00:00:00	2024-11-06T21:00:00	7	Dirección del viento	6.44
25135	7	Sololá	701	Sololá	3	Barraneche	5	Mayo	2023-11-05T00:00:00	2024-11-06T21:00:00	1	Precipitación	0.2
25136	7	Sololá	701	Sololá	3	Barraneche	5	Mayo	2023-11-05T00:00:00	2024-11-06T21:00:00	8	Radiación solar	0
25137	7	Sololá	701	Sololá	3	Barraneche	5	Mayo	2023-11-05T00:00:00	2024-11-06T22:00:00	2	Temperatura media	13
25138	7	Sololá	701	Sololá	3	Barraneche	5	Mayo	2023-11-05T00:00:00	2024-11-06T22:00:00	4	Temperatura máxima	13.4
25139	7	Sololá	701	Sololá	3	Barraneche	5	Mayo	2023-11-05T00:00:00	2024-11-06T22:00:00	3	Temperatura mínima	13
25140	7	Sololá	701	Sololá	3	Barraneche	5	Mayo	2023-11-05T00:00:00	2024-11-06T22:00:00	5	Humedad	73
25141	7	Sololá	701	Sololá	3	Barraneche	5	Mayo	2023-11-05T00:00:00	2024-11-06T22:00:00	6	Velocidad del viento	6.4
25142	7	Sololá	701	Sololá	3	Barraneche	5	Mayo	2023-11-05T00:00:00	2024-11-06T22:00:00	7	Dirección del viento	6.44
25143	7	Sololá	701	Sololá	3	Barraneche	5	Mayo	2023-11-05T00:00:00	2024-11-06T22:00:00	1	Precipitación	0.2
25144	7	Sololá	701	Sololá	3	Barraneche	5	Mayo	2023-11-05T00:00:00	2024-11-06T22:00:00	8	Radiación solar	0
25145	7	Sololá	701	Sololá	3	Barraneche	5	Mayo	2023-11-05T00:00:00	2024-11-06T23:00:00	2	Temperatura media	12.6
25146	7	Sololá	701	Sololá	3	Barraneche	5	Mayo	2023-11-05T00:00:00	2024-11-06T23:00:00	4	Temperatura máxima	13.1
25147	7	Sololá	701	Sololá	3	Barraneche	5	Mayo	2023-11-05T00:00:00	2024-11-06T23:00:00	3	Temperatura mínima	12.6
25148	7	Sololá	701	Sololá	3	Barraneche	5	Mayo	2023-11-05T00:00:00	2024-11-06T23:00:00	5	Humedad	79
25149	7	Sololá	701	Sololá	3	Barraneche	5	Mayo	2023-11-05T00:00:00	2024-11-06T23:00:00	6	Velocidad del viento	3.2
25150	7	Sololá	701	Sololá	3	Barraneche	5	Mayo	2023-11-05T00:00:00	2024-11-06T23:00:00	7	Dirección del viento	3.22
25151	7	Sololá	701	Sololá	3	Barraneche	5	Mayo	2023-11-05T00:00:00	2024-11-06T23:00:00	1	Precipitación	0
25152	7	Sololá	701	Sololá	3	Barraneche	5	Mayo	2023-11-05T00:00:00	2024-11-06T23:00:00	8	Radiación solar	0
25153	7	Sololá	701	Sololá	3	Barraneche	5	Mayo	2023-12-05T00:00:00	2024-11-06T00:00:00	2	Temperatura media	12
25154	7	Sololá	701	Sololá	3	Barraneche	5	Mayo	2023-12-05T00:00:00	2024-11-06T00:00:00	4	Temperatura máxima	12.7
25155	7	Sololá	701	Sololá	3	Barraneche	5	Mayo	2023-12-05T00:00:00	2024-11-06T00:00:00	3	Temperatura mínima	11.9
25156	7	Sololá	701	Sololá	3	Barraneche	5	Mayo	2023-12-05T00:00:00	2024-11-06T00:00:00	5	Humedad	79
25157	7	Sololá	701	Sololá	3	Barraneche	5	Mayo	2023-12-05T00:00:00	2024-11-06T00:00:00	6	Velocidad del viento	3.2
25158	7	Sololá	701	Sololá	3	Barraneche	5	Mayo	2023-12-05T00:00:00	2024-11-06T00:00:00	7	Dirección del viento	3.22
25159	7	Sololá	701	Sololá	3	Barraneche	5	Mayo	2023-12-05T00:00:00	2024-11-06T00:00:00	1	Precipitación	0
25160	7	Sololá	701	Sololá	3	Barraneche	5	Mayo	2023-12-05T00:00:00	2024-11-06T00:00:00	8	Radiación solar	0
25161	7	Sololá	701	Sololá	3	Barraneche	5	Mayo	2023-12-05T00:00:00	2024-11-06T01:00:00	2	Temperatura media	11.8
25162	7	Sololá	701	Sololá	3	Barraneche	5	Mayo	2023-12-05T00:00:00	2024-11-06T01:00:00	4	Temperatura máxima	12.1
25163	7	Sololá	701	Sololá	3	Barraneche	5	Mayo	2023-12-05T00:00:00	2024-11-06T01:00:00	3	Temperatura mínima	11.8
25164	7	Sololá	701	Sololá	3	Barraneche	5	Mayo	2023-12-05T00:00:00	2024-11-06T01:00:00	5	Humedad	77
25165	7	Sololá	701	Sololá	3	Barraneche	5	Mayo	2023-12-05T00:00:00	2024-11-06T01:00:00	6	Velocidad del viento	6.4
25166	7	Sololá	701	Sololá	3	Barraneche	5	Mayo	2023-12-05T00:00:00	2024-11-06T01:00:00	7	Dirección del viento	6.44
25167	7	Sololá	701	Sololá	3	Barraneche	5	Mayo	2023-12-05T00:00:00	2024-11-06T01:00:00	1	Precipitación	0
25168	7	Sololá	701	Sololá	3	Barraneche	5	Mayo	2023-12-05T00:00:00	2024-11-06T01:00:00	8	Radiación solar	0
25169	7	Sololá	701	Sololá	3	Barraneche	5	Mayo	2023-12-05T00:00:00	2024-11-06T02:00:00	2	Temperatura media	11.3
25170	7	Sololá	701	Sololá	3	Barraneche	5	Mayo	2023-12-05T00:00:00	2024-11-06T02:00:00	4	Temperatura máxima	11.9
25171	7	Sololá	701	Sololá	3	Barraneche	5	Mayo	2023-12-05T00:00:00	2024-11-06T02:00:00	3	Temperatura mínima	11.3
25172	7	Sololá	701	Sololá	3	Barraneche	5	Mayo	2023-12-05T00:00:00	2024-11-06T02:00:00	5	Humedad	74
25173	7	Sololá	701	Sololá	3	Barraneche	5	Mayo	2023-12-05T00:00:00	2024-11-06T02:00:00	6	Velocidad del viento	6.4
25174	7	Sololá	701	Sololá	3	Barraneche	5	Mayo	2023-12-05T00:00:00	2024-11-06T02:00:00	7	Dirección del viento	6.44
25175	7	Sololá	701	Sololá	3	Barraneche	5	Mayo	2023-12-05T00:00:00	2024-11-06T02:00:00	1	Precipitación	0
25176	7	Sololá	701	Sololá	3	Barraneche	5	Mayo	2023-12-05T00:00:00	2024-11-06T02:00:00	8	Radiación solar	0
25177	7	Sololá	701	Sololá	3	Barraneche	5	Mayo	2023-12-05T00:00:00	2024-11-06T03:00:00	2	Temperatura media	11.8
25178	7	Sololá	701	Sololá	3	Barraneche	5	Mayo	2023-12-05T00:00:00	2024-11-06T03:00:00	4	Temperatura máxima	11.8
25179	7	Sololá	701	Sololá	3	Barraneche	5	Mayo	2023-12-05T00:00:00	2024-11-06T03:00:00	3	Temperatura mínima	11.3
25180	7	Sololá	701	Sololá	3	Barraneche	5	Mayo	2023-12-05T00:00:00	2024-11-06T03:00:00	5	Humedad	73
25181	7	Sololá	701	Sololá	3	Barraneche	5	Mayo	2023-12-05T00:00:00	2024-11-06T03:00:00	6	Velocidad del viento	6.4
25182	7	Sololá	701	Sololá	3	Barraneche	5	Mayo	2023-12-05T00:00:00	2024-11-06T03:00:00	7	Dirección del viento	6.44
25183	7	Sololá	701	Sololá	3	Barraneche	5	Mayo	2023-12-05T00:00:00	2024-11-06T03:00:00	1	Precipitación	0
25184	7	Sololá	701	Sololá	3	Barraneche	5	Mayo	2023-12-05T00:00:00	2024-11-06T03:00:00	8	Radiación solar	0
25185	7	Sololá	701	Sololá	3	Barraneche	5	Mayo	2023-12-05T00:00:00	2024-11-06T04:00:00	2	Temperatura media	11.3
25186	7	Sololá	701	Sololá	3	Barraneche	5	Mayo	2023-12-05T00:00:00	2024-11-06T04:00:00	4	Temperatura máxima	11.7
25187	7	Sololá	701	Sololá	3	Barraneche	5	Mayo	2023-12-05T00:00:00	2024-11-06T04:00:00	3	Temperatura mínima	11.1
25188	7	Sololá	701	Sololá	3	Barraneche	5	Mayo	2023-12-05T00:00:00	2024-11-06T04:00:00	5	Humedad	72
25189	7	Sololá	701	Sololá	3	Barraneche	5	Mayo	2023-12-05T00:00:00	2024-11-06T04:00:00	6	Velocidad del viento	6.4
25190	7	Sololá	701	Sololá	3	Barraneche	5	Mayo	2023-12-05T00:00:00	2024-11-06T04:00:00	7	Dirección del viento	6.44
25191	7	Sololá	701	Sololá	3	Barraneche	5	Mayo	2023-12-05T00:00:00	2024-11-06T04:00:00	1	Precipitación	0
25192	7	Sololá	701	Sololá	3	Barraneche	5	Mayo	2023-12-05T00:00:00	2024-11-06T04:00:00	8	Radiación solar	0
25193	7	Sololá	701	Sololá	3	Barraneche	5	Mayo	2023-12-05T00:00:00	2024-11-06T05:00:00	2	Temperatura media	11.7
25194	7	Sololá	701	Sololá	3	Barraneche	5	Mayo	2023-12-05T00:00:00	2024-11-06T05:00:00	4	Temperatura máxima	11.7
25195	7	Sololá	701	Sololá	3	Barraneche	5	Mayo	2023-12-05T00:00:00	2024-11-06T05:00:00	3	Temperatura mínima	11.1
25196	7	Sololá	701	Sololá	3	Barraneche	5	Mayo	2023-12-05T00:00:00	2024-11-06T05:00:00	5	Humedad	69
25197	7	Sololá	701	Sololá	3	Barraneche	5	Mayo	2023-12-05T00:00:00	2024-11-06T05:00:00	6	Velocidad del viento	8
25198	7	Sololá	701	Sololá	3	Barraneche	5	Mayo	2023-12-05T00:00:00	2024-11-06T05:00:00	7	Dirección del viento	8.05
25199	7	Sololá	701	Sololá	3	Barraneche	5	Mayo	2023-12-05T00:00:00	2024-11-06T05:00:00	1	Precipitación	0
25200	7	Sololá	701	Sololá	3	Barraneche	5	Mayo	2023-12-05T00:00:00	2024-11-06T05:00:00	8	Radiación solar	0
25201	7	Sololá	701	Sololá	3	Barraneche	5	Mayo	2023-12-05T00:00:00	2024-11-06T06:00:00	2	Temperatura media	11.6
25202	7	Sololá	701	Sololá	3	Barraneche	5	Mayo	2023-12-05T00:00:00	2024-11-06T06:00:00	4	Temperatura máxima	11.7
25203	7	Sololá	701	Sololá	3	Barraneche	5	Mayo	2023-12-05T00:00:00	2024-11-06T06:00:00	3	Temperatura mínima	11.2
25204	7	Sololá	701	Sololá	3	Barraneche	5	Mayo	2023-12-05T00:00:00	2024-11-06T06:00:00	5	Humedad	68
25205	7	Sololá	701	Sololá	3	Barraneche	5	Mayo	2023-12-05T00:00:00	2024-11-06T06:00:00	6	Velocidad del viento	8
25206	7	Sololá	701	Sololá	3	Barraneche	5	Mayo	2023-12-05T00:00:00	2024-11-06T06:00:00	7	Dirección del viento	8.05
25207	7	Sololá	701	Sololá	3	Barraneche	5	Mayo	2023-12-05T00:00:00	2024-11-06T06:00:00	1	Precipitación	0
25208	7	Sololá	701	Sololá	3	Barraneche	5	Mayo	2023-12-05T00:00:00	2024-11-06T06:00:00	8	Radiación solar	6
25209	7	Sololá	701	Sololá	3	Barraneche	5	Mayo	2023-12-05T00:00:00	2024-11-06T07:00:00	2	Temperatura media	13.6
25210	7	Sololá	701	Sololá	3	Barraneche	5	Mayo	2023-12-05T00:00:00	2024-11-06T07:00:00	4	Temperatura máxima	13.6
25211	7	Sololá	701	Sololá	3	Barraneche	5	Mayo	2023-12-05T00:00:00	2024-11-06T07:00:00	3	Temperatura mínima	11.4
25212	7	Sololá	701	Sololá	3	Barraneche	5	Mayo	2023-12-05T00:00:00	2024-11-06T07:00:00	5	Humedad	67
25213	7	Sololá	701	Sololá	3	Barraneche	5	Mayo	2023-12-05T00:00:00	2024-11-06T07:00:00	6	Velocidad del viento	8
25214	7	Sololá	701	Sololá	3	Barraneche	5	Mayo	2023-12-05T00:00:00	2024-11-06T07:00:00	7	Dirección del viento	8.05
25215	7	Sololá	701	Sololá	3	Barraneche	5	Mayo	2023-12-05T00:00:00	2024-11-06T07:00:00	1	Precipitación	0
25216	7	Sololá	701	Sololá	3	Barraneche	5	Mayo	2023-12-05T00:00:00	2024-11-06T07:00:00	8	Radiación solar	135
25217	7	Sololá	701	Sololá	3	Barraneche	5	Mayo	2023-12-05T00:00:00	2024-11-06T08:00:00	2	Temperatura media	15.7
25218	7	Sololá	701	Sololá	3	Barraneche	5	Mayo	2023-12-05T00:00:00	2024-11-06T08:00:00	4	Temperatura máxima	15.7
25219	7	Sololá	701	Sololá	3	Barraneche	5	Mayo	2023-12-05T00:00:00	2024-11-06T08:00:00	3	Temperatura mínima	13.6
25220	7	Sololá	701	Sololá	3	Barraneche	5	Mayo	2023-12-05T00:00:00	2024-11-06T08:00:00	5	Humedad	67
25221	7	Sololá	701	Sololá	3	Barraneche	5	Mayo	2023-12-05T00:00:00	2024-11-06T08:00:00	6	Velocidad del viento	1.6
25222	7	Sololá	701	Sololá	3	Barraneche	5	Mayo	2023-12-05T00:00:00	2024-11-06T08:00:00	7	Dirección del viento	1.61
25223	7	Sololá	701	Sololá	3	Barraneche	5	Mayo	2023-12-05T00:00:00	2024-11-06T08:00:00	1	Precipitación	0
25224	7	Sololá	701	Sololá	3	Barraneche	5	Mayo	2023-12-05T00:00:00	2024-11-06T08:00:00	8	Radiación solar	304
25225	7	Sololá	701	Sololá	3	Barraneche	5	Mayo	2023-12-05T00:00:00	2024-11-06T09:00:00	2	Temperatura media	16.7
25226	7	Sololá	701	Sololá	3	Barraneche	5	Mayo	2023-12-05T00:00:00	2024-11-06T09:00:00	4	Temperatura máxima	16.7
25227	7	Sololá	701	Sololá	3	Barraneche	5	Mayo	2023-12-05T00:00:00	2024-11-06T09:00:00	3	Temperatura mínima	15.7
25228	7	Sololá	701	Sololá	3	Barraneche	5	Mayo	2023-12-05T00:00:00	2024-11-06T09:00:00	5	Humedad	66
25229	7	Sololá	701	Sololá	3	Barraneche	5	Mayo	2023-12-05T00:00:00	2024-11-06T09:00:00	6	Velocidad del viento	4.8
25230	7	Sololá	701	Sololá	3	Barraneche	5	Mayo	2023-12-05T00:00:00	2024-11-06T09:00:00	7	Dirección del viento	4.83
25231	7	Sololá	701	Sololá	3	Barraneche	5	Mayo	2023-12-05T00:00:00	2024-11-06T09:00:00	1	Precipitación	0
25232	7	Sololá	701	Sololá	3	Barraneche	5	Mayo	2023-12-05T00:00:00	2024-11-06T09:00:00	8	Radiación solar	512
25233	7	Sololá	701	Sololá	3	Barraneche	5	Mayo	2023-12-05T00:00:00	2024-11-06T10:00:00	2	Temperatura media	16.8
25234	7	Sololá	701	Sololá	3	Barraneche	5	Mayo	2023-12-05T00:00:00	2024-11-06T10:00:00	4	Temperatura máxima	16.8
25235	7	Sololá	701	Sololá	3	Barraneche	5	Mayo	2023-12-05T00:00:00	2024-11-06T10:00:00	3	Temperatura mínima	16.2
25236	7	Sololá	701	Sololá	3	Barraneche	5	Mayo	2023-12-05T00:00:00	2024-11-06T10:00:00	5	Humedad	63
25237	7	Sololá	701	Sololá	3	Barraneche	5	Mayo	2023-12-05T00:00:00	2024-11-06T10:00:00	6	Velocidad del viento	8
25238	7	Sololá	701	Sololá	3	Barraneche	5	Mayo	2023-12-05T00:00:00	2024-11-06T10:00:00	7	Dirección del viento	8.05
25239	7	Sololá	701	Sololá	3	Barraneche	5	Mayo	2023-12-05T00:00:00	2024-11-06T10:00:00	1	Precipitación	0
25240	7	Sololá	701	Sololá	3	Barraneche	5	Mayo	2023-12-05T00:00:00	2024-11-06T10:00:00	8	Radiación solar	465
25241	7	Sololá	701	Sololá	3	Barraneche	5	Mayo	2023-12-05T00:00:00	2024-11-06T11:00:00	2	Temperatura media	19.1
25242	7	Sololá	701	Sololá	3	Barraneche	5	Mayo	2023-12-05T00:00:00	2024-11-06T11:00:00	4	Temperatura máxima	19.1
25243	7	Sololá	701	Sololá	3	Barraneche	5	Mayo	2023-12-05T00:00:00	2024-11-06T11:00:00	3	Temperatura mínima	16.7
25244	7	Sololá	701	Sololá	3	Barraneche	5	Mayo	2023-12-05T00:00:00	2024-11-06T11:00:00	5	Humedad	58
25245	7	Sololá	701	Sololá	3	Barraneche	5	Mayo	2023-12-05T00:00:00	2024-11-06T11:00:00	6	Velocidad del viento	4.8
25246	7	Sololá	701	Sololá	3	Barraneche	5	Mayo	2023-12-05T00:00:00	2024-11-06T11:00:00	7	Dirección del viento	4.83
25247	7	Sololá	701	Sololá	3	Barraneche	5	Mayo	2023-12-05T00:00:00	2024-11-06T11:00:00	1	Precipitación	0
25248	7	Sololá	701	Sololá	3	Barraneche	5	Mayo	2023-12-05T00:00:00	2024-11-06T11:00:00	8	Radiación solar	923
25249	7	Sololá	701	Sololá	3	Barraneche	5	Mayo	2023-12-05T00:00:00	2024-11-06T12:00:00	2	Temperatura media	18.2
25250	7	Sololá	701	Sololá	3	Barraneche	5	Mayo	2023-12-05T00:00:00	2024-11-06T12:00:00	4	Temperatura máxima	19.5
25251	7	Sololá	701	Sololá	3	Barraneche	5	Mayo	2023-12-05T00:00:00	2024-11-06T12:00:00	3	Temperatura mínima	17.8
25252	7	Sololá	701	Sololá	3	Barraneche	5	Mayo	2023-12-05T00:00:00	2024-11-06T12:00:00	5	Humedad	63
25253	7	Sololá	701	Sololá	3	Barraneche	5	Mayo	2023-12-05T00:00:00	2024-11-06T12:00:00	6	Velocidad del viento	9.7
25254	7	Sololá	701	Sololá	3	Barraneche	5	Mayo	2023-12-05T00:00:00	2024-11-06T12:00:00	7	Dirección del viento	9.66
25255	7	Sololá	701	Sololá	3	Barraneche	5	Mayo	2023-12-05T00:00:00	2024-11-06T12:00:00	1	Precipitación	0
25256	7	Sololá	701	Sololá	3	Barraneche	5	Mayo	2023-12-05T00:00:00	2024-11-06T12:00:00	8	Radiación solar	497
25257	7	Sololá	701	Sololá	3	Barraneche	5	Mayo	2023-12-05T00:00:00	2024-11-06T13:00:00	2	Temperatura media	18.5
25258	7	Sololá	701	Sololá	3	Barraneche	5	Mayo	2023-12-05T00:00:00	2024-11-06T13:00:00	4	Temperatura máxima	18.8
25259	7	Sololá	701	Sololá	3	Barraneche	5	Mayo	2023-12-05T00:00:00	2024-11-06T13:00:00	3	Temperatura mínima	18.2
25260	7	Sololá	701	Sololá	3	Barraneche	5	Mayo	2023-12-05T00:00:00	2024-11-06T13:00:00	5	Humedad	64
25261	7	Sololá	701	Sololá	3	Barraneche	5	Mayo	2023-12-05T00:00:00	2024-11-06T13:00:00	6	Velocidad del viento	9.7
25262	7	Sololá	701	Sololá	3	Barraneche	5	Mayo	2023-12-05T00:00:00	2024-11-06T13:00:00	7	Dirección del viento	9.66
25263	7	Sololá	701	Sololá	3	Barraneche	5	Mayo	2023-12-05T00:00:00	2024-11-06T13:00:00	1	Precipitación	0
25264	7	Sololá	701	Sololá	3	Barraneche	5	Mayo	2023-12-05T00:00:00	2024-11-06T13:00:00	8	Radiación solar	577
25265	7	Sololá	701	Sololá	3	Barraneche	5	Mayo	2023-12-05T00:00:00	2024-11-06T14:00:00	2	Temperatura media	17.9
25266	7	Sololá	701	Sololá	3	Barraneche	5	Mayo	2023-12-05T00:00:00	2024-11-06T14:00:00	4	Temperatura máxima	18.6
25267	7	Sololá	701	Sololá	3	Barraneche	5	Mayo	2023-12-05T00:00:00	2024-11-06T14:00:00	3	Temperatura mínima	17.4
25268	7	Sololá	701	Sololá	3	Barraneche	5	Mayo	2023-12-05T00:00:00	2024-11-06T14:00:00	5	Humedad	69
25269	7	Sololá	701	Sololá	3	Barraneche	5	Mayo	2023-12-05T00:00:00	2024-11-06T14:00:00	6	Velocidad del viento	9.7
25270	7	Sololá	701	Sololá	3	Barraneche	5	Mayo	2023-12-05T00:00:00	2024-11-06T14:00:00	7	Dirección del viento	9.66
25271	7	Sololá	701	Sololá	3	Barraneche	5	Mayo	2023-12-05T00:00:00	2024-11-06T14:00:00	1	Precipitación	0
25272	7	Sololá	701	Sololá	3	Barraneche	5	Mayo	2023-12-05T00:00:00	2024-11-06T14:00:00	8	Radiación solar	303
25273	7	Sololá	701	Sololá	3	Barraneche	5	Mayo	2023-12-05T00:00:00	2024-11-06T15:00:00	2	Temperatura media	16.9
25274	7	Sololá	701	Sololá	3	Barraneche	5	Mayo	2023-12-05T00:00:00	2024-11-06T15:00:00	4	Temperatura máxima	18.1
25275	7	Sololá	701	Sololá	3	Barraneche	5	Mayo	2023-12-05T00:00:00	2024-11-06T15:00:00	3	Temperatura mínima	16.9
25276	7	Sololá	701	Sololá	3	Barraneche	5	Mayo	2023-12-05T00:00:00	2024-11-06T15:00:00	5	Humedad	71
25277	7	Sololá	701	Sololá	3	Barraneche	5	Mayo	2023-12-05T00:00:00	2024-11-06T15:00:00	6	Velocidad del viento	9.7
25278	7	Sololá	701	Sololá	3	Barraneche	5	Mayo	2023-12-05T00:00:00	2024-11-06T15:00:00	7	Dirección del viento	9.66
25279	7	Sololá	701	Sololá	3	Barraneche	5	Mayo	2023-12-05T00:00:00	2024-11-06T15:00:00	1	Precipitación	0
25280	7	Sololá	701	Sololá	3	Barraneche	5	Mayo	2023-12-05T00:00:00	2024-11-06T15:00:00	8	Radiación solar	215
25281	7	Sololá	701	Sololá	3	Barraneche	5	Mayo	2023-12-05T00:00:00	2024-11-06T16:00:00	2	Temperatura media	16.3
25282	7	Sololá	701	Sololá	3	Barraneche	5	Mayo	2023-12-05T00:00:00	2024-11-06T16:00:00	4	Temperatura máxima	16.9
25283	7	Sololá	701	Sololá	3	Barraneche	5	Mayo	2023-12-05T00:00:00	2024-11-06T16:00:00	3	Temperatura mínima	16.2
25284	7	Sololá	701	Sololá	3	Barraneche	5	Mayo	2023-12-05T00:00:00	2024-11-06T16:00:00	5	Humedad	72
25285	7	Sololá	701	Sololá	3	Barraneche	5	Mayo	2023-12-05T00:00:00	2024-11-06T16:00:00	6	Velocidad del viento	4.8
25286	7	Sololá	701	Sololá	3	Barraneche	5	Mayo	2023-12-05T00:00:00	2024-11-06T16:00:00	7	Dirección del viento	4.83
25287	7	Sololá	701	Sololá	3	Barraneche	5	Mayo	2023-12-05T00:00:00	2024-11-06T16:00:00	1	Precipitación	0
25288	7	Sololá	701	Sololá	3	Barraneche	5	Mayo	2023-12-05T00:00:00	2024-11-06T16:00:00	8	Radiación solar	56
25289	7	Sololá	701	Sololá	3	Barraneche	5	Mayo	2023-12-05T00:00:00	2024-11-06T17:00:00	2	Temperatura media	15.7
25290	7	Sololá	701	Sololá	3	Barraneche	5	Mayo	2023-12-05T00:00:00	2024-11-06T17:00:00	4	Temperatura máxima	16.4
25291	7	Sololá	701	Sololá	3	Barraneche	5	Mayo	2023-12-05T00:00:00	2024-11-06T17:00:00	3	Temperatura mínima	15.6
25292	7	Sololá	701	Sololá	3	Barraneche	5	Mayo	2023-12-05T00:00:00	2024-11-06T17:00:00	5	Humedad	78
25293	7	Sololá	701	Sololá	3	Barraneche	5	Mayo	2023-12-05T00:00:00	2024-11-06T17:00:00	6	Velocidad del viento	4.8
25294	7	Sololá	701	Sololá	3	Barraneche	5	Mayo	2023-12-05T00:00:00	2024-11-06T17:00:00	7	Dirección del viento	4.83
25295	7	Sololá	701	Sololá	3	Barraneche	5	Mayo	2023-12-05T00:00:00	2024-11-06T17:00:00	1	Precipitación	0
25296	7	Sololá	701	Sololá	3	Barraneche	5	Mayo	2023-12-05T00:00:00	2024-11-06T17:00:00	8	Radiación solar	49
25297	7	Sololá	701	Sololá	3	Barraneche	5	Mayo	2023-12-05T00:00:00	2024-11-06T18:00:00	2	Temperatura media	15
25298	7	Sololá	701	Sololá	3	Barraneche	5	Mayo	2023-12-05T00:00:00	2024-11-06T18:00:00	4	Temperatura máxima	15.6
25299	7	Sololá	701	Sololá	3	Barraneche	5	Mayo	2023-12-05T00:00:00	2024-11-06T18:00:00	3	Temperatura mínima	15
25300	7	Sololá	701	Sololá	3	Barraneche	5	Mayo	2023-12-05T00:00:00	2024-11-06T18:00:00	5	Humedad	84
25301	7	Sololá	701	Sololá	3	Barraneche	5	Mayo	2023-12-05T00:00:00	2024-11-06T18:00:00	6	Velocidad del viento	6.4
25302	7	Sololá	701	Sololá	3	Barraneche	5	Mayo	2023-12-05T00:00:00	2024-11-06T18:00:00	7	Dirección del viento	6.44
25303	7	Sololá	701	Sololá	3	Barraneche	5	Mayo	2023-12-05T00:00:00	2024-11-06T18:00:00	1	Precipitación	0
25304	7	Sololá	701	Sololá	3	Barraneche	5	Mayo	2023-12-05T00:00:00	2024-11-06T18:00:00	8	Radiación solar	3
25305	7	Sololá	701	Sololá	3	Barraneche	5	Mayo	2023-12-05T00:00:00	2024-11-06T19:00:00	2	Temperatura media	14.9
25306	7	Sololá	701	Sololá	3	Barraneche	5	Mayo	2023-12-05T00:00:00	2024-11-06T19:00:00	4	Temperatura máxima	15.1
25307	7	Sololá	701	Sololá	3	Barraneche	5	Mayo	2023-12-05T00:00:00	2024-11-06T19:00:00	3	Temperatura mínima	14.8
25308	7	Sololá	701	Sololá	3	Barraneche	5	Mayo	2023-12-05T00:00:00	2024-11-06T19:00:00	5	Humedad	85
25309	7	Sololá	701	Sololá	3	Barraneche	5	Mayo	2023-12-05T00:00:00	2024-11-06T19:00:00	6	Velocidad del viento	3.2
25310	7	Sololá	701	Sololá	3	Barraneche	5	Mayo	2023-12-05T00:00:00	2024-11-06T19:00:00	7	Dirección del viento	3.22
25311	7	Sololá	701	Sololá	3	Barraneche	5	Mayo	2023-12-05T00:00:00	2024-11-06T19:00:00	1	Precipitación	0
25312	7	Sololá	701	Sololá	3	Barraneche	5	Mayo	2023-12-05T00:00:00	2024-11-06T19:00:00	8	Radiación solar	0
25313	7	Sololá	701	Sololá	3	Barraneche	5	Mayo	2023-12-05T00:00:00	2024-11-06T20:00:00	2	Temperatura media	14.4
25314	7	Sololá	701	Sololá	3	Barraneche	5	Mayo	2023-12-05T00:00:00	2024-11-06T20:00:00	4	Temperatura máxima	14.9
25315	7	Sololá	701	Sololá	3	Barraneche	5	Mayo	2023-12-05T00:00:00	2024-11-06T20:00:00	3	Temperatura mínima	14.4
25316	7	Sololá	701	Sololá	3	Barraneche	5	Mayo	2023-12-05T00:00:00	2024-11-06T20:00:00	5	Humedad	84
25317	7	Sololá	701	Sololá	3	Barraneche	5	Mayo	2023-12-05T00:00:00	2024-11-06T20:00:00	6	Velocidad del viento	1.6
25318	7	Sololá	701	Sololá	3	Barraneche	5	Mayo	2023-12-05T00:00:00	2024-11-06T20:00:00	7	Dirección del viento	1.61
25319	7	Sololá	701	Sololá	3	Barraneche	5	Mayo	2023-12-05T00:00:00	2024-11-06T20:00:00	1	Precipitación	0
25320	7	Sololá	701	Sololá	3	Barraneche	5	Mayo	2023-12-05T00:00:00	2024-11-06T20:00:00	8	Radiación solar	0
25321	7	Sololá	701	Sololá	3	Barraneche	5	Mayo	2023-12-05T00:00:00	2024-11-06T21:00:00	2	Temperatura media	14.4
25322	7	Sololá	701	Sololá	3	Barraneche	5	Mayo	2023-12-05T00:00:00	2024-11-06T21:00:00	4	Temperatura máxima	15.1
25323	7	Sololá	701	Sololá	3	Barraneche	5	Mayo	2023-12-05T00:00:00	2024-11-06T21:00:00	3	Temperatura mínima	14.4
25324	7	Sololá	701	Sololá	3	Barraneche	5	Mayo	2023-12-05T00:00:00	2024-11-06T21:00:00	5	Humedad	74
25325	7	Sololá	701	Sololá	3	Barraneche	5	Mayo	2023-12-05T00:00:00	2024-11-06T21:00:00	6	Velocidad del viento	3.2
25326	7	Sololá	701	Sololá	3	Barraneche	5	Mayo	2023-12-05T00:00:00	2024-11-06T21:00:00	7	Dirección del viento	3.22
25327	7	Sololá	701	Sololá	3	Barraneche	5	Mayo	2023-12-05T00:00:00	2024-11-06T21:00:00	1	Precipitación	0
25328	7	Sololá	701	Sololá	3	Barraneche	5	Mayo	2023-12-05T00:00:00	2024-11-06T21:00:00	8	Radiación solar	0
25329	7	Sololá	701	Sololá	3	Barraneche	5	Mayo	2023-12-05T00:00:00	2024-11-06T22:00:00	2	Temperatura media	13.3
25330	7	Sololá	701	Sololá	3	Barraneche	5	Mayo	2023-12-05T00:00:00	2024-11-06T22:00:00	4	Temperatura máxima	14.8
25331	7	Sololá	701	Sololá	3	Barraneche	5	Mayo	2023-12-05T00:00:00	2024-11-06T22:00:00	3	Temperatura mínima	13.3
25332	7	Sololá	701	Sololá	3	Barraneche	5	Mayo	2023-12-05T00:00:00	2024-11-06T22:00:00	5	Humedad	75
25333	7	Sololá	701	Sololá	3	Barraneche	5	Mayo	2023-12-05T00:00:00	2024-11-06T22:00:00	6	Velocidad del viento	4.8
25334	7	Sololá	701	Sololá	3	Barraneche	5	Mayo	2023-12-05T00:00:00	2024-11-06T22:00:00	7	Dirección del viento	4.83
25335	7	Sololá	701	Sololá	3	Barraneche	5	Mayo	2023-12-05T00:00:00	2024-11-06T22:00:00	1	Precipitación	0
25336	7	Sololá	701	Sololá	3	Barraneche	5	Mayo	2023-12-05T00:00:00	2024-11-06T22:00:00	8	Radiación solar	0
25337	7	Sololá	701	Sololá	3	Barraneche	5	Mayo	2023-12-05T00:00:00	2024-11-06T23:00:00	2	Temperatura media	12.6
25338	7	Sololá	701	Sololá	3	Barraneche	5	Mayo	2023-12-05T00:00:00	2024-11-06T23:00:00	4	Temperatura máxima	13.3
25339	7	Sololá	701	Sololá	3	Barraneche	5	Mayo	2023-12-05T00:00:00	2024-11-06T23:00:00	3	Temperatura mínima	12.5
25340	7	Sololá	701	Sololá	3	Barraneche	5	Mayo	2023-12-05T00:00:00	2024-11-06T23:00:00	5	Humedad	76
25341	7	Sololá	701	Sololá	3	Barraneche	5	Mayo	2023-12-05T00:00:00	2024-11-06T23:00:00	6	Velocidad del viento	3.2
25342	7	Sololá	701	Sololá	3	Barraneche	5	Mayo	2023-12-05T00:00:00	2024-11-06T23:00:00	7	Dirección del viento	3.22
25343	7	Sololá	701	Sololá	3	Barraneche	5	Mayo	2023-12-05T00:00:00	2024-11-06T23:00:00	1	Precipitación	0
25344	7	Sololá	701	Sololá	3	Barraneche	5	Mayo	2023-12-05T00:00:00	2024-11-06T23:00:00	8	Radiación solar	0
25345	7	Sololá	701	Sololá	3	Barraneche	5	Mayo	2023-05-13T00:00:00	2024-11-06T00:00:00	2	Temperatura media	13.1
25346	7	Sololá	701	Sololá	3	Barraneche	5	Mayo	2023-05-13T00:00:00	2024-11-06T00:00:00	4	Temperatura máxima	13.1
25347	7	Sololá	701	Sololá	3	Barraneche	5	Mayo	2023-05-13T00:00:00	2024-11-06T00:00:00	3	Temperatura mínima	12.5
25348	7	Sololá	701	Sololá	3	Barraneche	5	Mayo	2023-05-13T00:00:00	2024-11-06T00:00:00	5	Humedad	76
25349	7	Sololá	701	Sololá	3	Barraneche	5	Mayo	2023-05-13T00:00:00	2024-11-06T00:00:00	6	Velocidad del viento	3.2
25350	7	Sololá	701	Sololá	3	Barraneche	5	Mayo	2023-05-13T00:00:00	2024-11-06T00:00:00	7	Dirección del viento	3.22
25351	7	Sololá	701	Sololá	3	Barraneche	5	Mayo	2023-05-13T00:00:00	2024-11-06T00:00:00	1	Precipitación	0
25352	7	Sololá	701	Sololá	3	Barraneche	5	Mayo	2023-05-13T00:00:00	2024-11-06T00:00:00	8	Radiación solar	0
25353	7	Sololá	701	Sololá	3	Barraneche	5	Mayo	2023-05-13T00:00:00	2024-11-06T01:00:00	2	Temperatura media	12.2
25354	7	Sololá	701	Sololá	3	Barraneche	5	Mayo	2023-05-13T00:00:00	2024-11-06T01:00:00	4	Temperatura máxima	13.2
25355	7	Sololá	701	Sololá	3	Barraneche	5	Mayo	2023-05-13T00:00:00	2024-11-06T01:00:00	3	Temperatura mínima	12.2
25356	7	Sololá	701	Sololá	3	Barraneche	5	Mayo	2023-05-13T00:00:00	2024-11-06T01:00:00	5	Humedad	77
25357	7	Sololá	701	Sololá	3	Barraneche	5	Mayo	2023-05-13T00:00:00	2024-11-06T01:00:00	6	Velocidad del viento	3.2
25358	7	Sololá	701	Sololá	3	Barraneche	5	Mayo	2023-05-13T00:00:00	2024-11-06T01:00:00	7	Dirección del viento	3.22
25359	7	Sololá	701	Sololá	3	Barraneche	5	Mayo	2023-05-13T00:00:00	2024-11-06T01:00:00	1	Precipitación	0
25360	7	Sololá	701	Sololá	3	Barraneche	5	Mayo	2023-05-13T00:00:00	2024-11-06T01:00:00	8	Radiación solar	0
25361	7	Sololá	701	Sololá	3	Barraneche	5	Mayo	2023-05-13T00:00:00	2024-11-06T02:00:00	2	Temperatura media	11.7
25362	7	Sololá	701	Sololá	3	Barraneche	5	Mayo	2023-05-13T00:00:00	2024-11-06T02:00:00	4	Temperatura máxima	12.2
25363	7	Sololá	701	Sololá	3	Barraneche	5	Mayo	2023-05-13T00:00:00	2024-11-06T02:00:00	3	Temperatura mínima	11.7
25364	7	Sololá	701	Sololá	3	Barraneche	5	Mayo	2023-05-13T00:00:00	2024-11-06T02:00:00	5	Humedad	77
25365	7	Sololá	701	Sololá	3	Barraneche	5	Mayo	2023-05-13T00:00:00	2024-11-06T02:00:00	6	Velocidad del viento	3.2
25366	7	Sololá	701	Sololá	3	Barraneche	5	Mayo	2023-05-13T00:00:00	2024-11-06T02:00:00	7	Dirección del viento	3.22
25367	7	Sololá	701	Sololá	3	Barraneche	5	Mayo	2023-05-13T00:00:00	2024-11-06T02:00:00	1	Precipitación	0
25368	7	Sololá	701	Sololá	3	Barraneche	5	Mayo	2023-05-13T00:00:00	2024-11-06T02:00:00	8	Radiación solar	0
25369	7	Sololá	701	Sololá	3	Barraneche	5	Mayo	2023-05-13T00:00:00	2024-11-06T03:00:00	2	Temperatura media	11.8
25370	7	Sololá	701	Sololá	3	Barraneche	5	Mayo	2023-05-13T00:00:00	2024-11-06T03:00:00	4	Temperatura máxima	11.8
25371	7	Sololá	701	Sololá	3	Barraneche	5	Mayo	2023-05-13T00:00:00	2024-11-06T03:00:00	3	Temperatura mínima	11.4
25372	7	Sololá	701	Sololá	3	Barraneche	5	Mayo	2023-05-13T00:00:00	2024-11-06T03:00:00	5	Humedad	75
25373	7	Sololá	701	Sololá	3	Barraneche	5	Mayo	2023-05-13T00:00:00	2024-11-06T03:00:00	6	Velocidad del viento	4.8
25374	7	Sololá	701	Sololá	3	Barraneche	5	Mayo	2023-05-13T00:00:00	2024-11-06T03:00:00	7	Dirección del viento	4.83
25375	7	Sololá	701	Sololá	3	Barraneche	5	Mayo	2023-05-13T00:00:00	2024-11-06T03:00:00	1	Precipitación	0
25376	7	Sololá	701	Sololá	3	Barraneche	5	Mayo	2023-05-13T00:00:00	2024-11-06T03:00:00	8	Radiación solar	0
25377	7	Sololá	701	Sololá	3	Barraneche	5	Mayo	2023-05-13T00:00:00	2024-11-06T04:00:00	2	Temperatura media	11.2
25378	7	Sololá	701	Sololá	3	Barraneche	5	Mayo	2023-05-13T00:00:00	2024-11-06T04:00:00	4	Temperatura máxima	11.8
25379	7	Sololá	701	Sololá	3	Barraneche	5	Mayo	2023-05-13T00:00:00	2024-11-06T04:00:00	3	Temperatura mínima	11.1
25380	7	Sololá	701	Sololá	3	Barraneche	5	Mayo	2023-05-13T00:00:00	2024-11-06T04:00:00	5	Humedad	75
25381	7	Sololá	701	Sololá	3	Barraneche	5	Mayo	2023-05-13T00:00:00	2024-11-06T04:00:00	6	Velocidad del viento	4.8
25382	7	Sololá	701	Sololá	3	Barraneche	5	Mayo	2023-05-13T00:00:00	2024-11-06T04:00:00	7	Dirección del viento	4.83
25383	7	Sololá	701	Sololá	3	Barraneche	5	Mayo	2023-05-13T00:00:00	2024-11-06T04:00:00	1	Precipitación	0
25384	7	Sololá	701	Sololá	3	Barraneche	5	Mayo	2023-05-13T00:00:00	2024-11-06T04:00:00	8	Radiación solar	0
25385	7	Sololá	701	Sololá	3	Barraneche	5	Mayo	2023-05-13T00:00:00	2024-11-06T05:00:00	2	Temperatura media	11.2
25386	7	Sololá	701	Sololá	3	Barraneche	5	Mayo	2023-05-13T00:00:00	2024-11-06T05:00:00	4	Temperatura máxima	11.3
25387	7	Sololá	701	Sololá	3	Barraneche	5	Mayo	2023-05-13T00:00:00	2024-11-06T05:00:00	3	Temperatura mínima	11
25388	7	Sololá	701	Sololá	3	Barraneche	5	Mayo	2023-05-13T00:00:00	2024-11-06T05:00:00	5	Humedad	75
25389	7	Sololá	701	Sololá	3	Barraneche	5	Mayo	2023-05-13T00:00:00	2024-11-06T05:00:00	6	Velocidad del viento	6.4
25390	7	Sololá	701	Sololá	3	Barraneche	5	Mayo	2023-05-13T00:00:00	2024-11-06T05:00:00	7	Dirección del viento	6.44
25391	7	Sololá	701	Sololá	3	Barraneche	5	Mayo	2023-05-13T00:00:00	2024-11-06T05:00:00	1	Precipitación	0
25392	7	Sololá	701	Sololá	3	Barraneche	5	Mayo	2023-05-13T00:00:00	2024-11-06T05:00:00	8	Radiación solar	0
25393	7	Sololá	701	Sololá	3	Barraneche	5	Mayo	2023-05-13T00:00:00	2024-11-06T06:00:00	2	Temperatura media	10.5
25394	7	Sololá	701	Sololá	3	Barraneche	5	Mayo	2023-05-13T00:00:00	2024-11-06T06:00:00	4	Temperatura máxima	11.3
25395	7	Sololá	701	Sololá	3	Barraneche	5	Mayo	2023-05-13T00:00:00	2024-11-06T06:00:00	3	Temperatura mínima	10.4
25396	7	Sololá	701	Sololá	3	Barraneche	5	Mayo	2023-05-13T00:00:00	2024-11-06T06:00:00	5	Humedad	78
25397	7	Sololá	701	Sololá	3	Barraneche	5	Mayo	2023-05-13T00:00:00	2024-11-06T06:00:00	6	Velocidad del viento	3.2
25398	7	Sololá	701	Sololá	3	Barraneche	5	Mayo	2023-05-13T00:00:00	2024-11-06T06:00:00	7	Dirección del viento	3.22
25399	7	Sololá	701	Sololá	3	Barraneche	5	Mayo	2023-05-13T00:00:00	2024-11-06T06:00:00	1	Precipitación	0
25400	7	Sololá	701	Sololá	3	Barraneche	5	Mayo	2023-05-13T00:00:00	2024-11-06T06:00:00	8	Radiación solar	5
25401	7	Sololá	701	Sololá	3	Barraneche	5	Mayo	2023-05-13T00:00:00	2024-11-06T07:00:00	2	Temperatura media	13.2
25402	7	Sololá	701	Sololá	3	Barraneche	5	Mayo	2023-05-13T00:00:00	2024-11-06T07:00:00	4	Temperatura máxima	13.2
25403	7	Sololá	701	Sololá	3	Barraneche	5	Mayo	2023-05-13T00:00:00	2024-11-06T07:00:00	3	Temperatura mínima	10.5
25404	7	Sololá	701	Sololá	3	Barraneche	5	Mayo	2023-05-13T00:00:00	2024-11-06T07:00:00	5	Humedad	72
25405	7	Sololá	701	Sololá	3	Barraneche	5	Mayo	2023-05-13T00:00:00	2024-11-06T07:00:00	6	Velocidad del viento	6.4
25406	7	Sololá	701	Sololá	3	Barraneche	5	Mayo	2023-05-13T00:00:00	2024-11-06T07:00:00	7	Dirección del viento	6.44
25407	7	Sololá	701	Sololá	3	Barraneche	5	Mayo	2023-05-13T00:00:00	2024-11-06T07:00:00	1	Precipitación	0
25408	7	Sololá	701	Sololá	3	Barraneche	5	Mayo	2023-05-13T00:00:00	2024-11-06T07:00:00	8	Radiación solar	99
25409	7	Sololá	701	Sololá	3	Barraneche	5	Mayo	2023-05-13T00:00:00	2024-11-06T08:00:00	2	Temperatura media	16.1
25410	7	Sololá	701	Sololá	3	Barraneche	5	Mayo	2023-05-13T00:00:00	2024-11-06T08:00:00	4	Temperatura máxima	16.1
25411	7	Sololá	701	Sololá	3	Barraneche	5	Mayo	2023-05-13T00:00:00	2024-11-06T08:00:00	3	Temperatura mínima	13.2
25412	7	Sololá	701	Sololá	3	Barraneche	5	Mayo	2023-05-13T00:00:00	2024-11-06T08:00:00	5	Humedad	67
25413	7	Sololá	701	Sololá	3	Barraneche	5	Mayo	2023-05-13T00:00:00	2024-11-06T08:00:00	6	Velocidad del viento	3.2
25414	7	Sololá	701	Sololá	3	Barraneche	5	Mayo	2023-05-13T00:00:00	2024-11-06T08:00:00	7	Dirección del viento	3.22
25415	7	Sololá	701	Sololá	3	Barraneche	5	Mayo	2023-05-13T00:00:00	2024-11-06T08:00:00	1	Precipitación	0
25416	7	Sololá	701	Sololá	3	Barraneche	5	Mayo	2023-05-13T00:00:00	2024-11-06T08:00:00	8	Radiación solar	347
25417	7	Sololá	701	Sololá	3	Barraneche	5	Mayo	2023-05-13T00:00:00	2024-11-06T09:00:00	2	Temperatura media	17.9
25418	7	Sololá	701	Sololá	3	Barraneche	5	Mayo	2023-05-13T00:00:00	2024-11-06T09:00:00	4	Temperatura máxima	17.9
25419	7	Sololá	701	Sololá	3	Barraneche	5	Mayo	2023-05-13T00:00:00	2024-11-06T09:00:00	3	Temperatura mínima	16.1
25420	7	Sololá	701	Sololá	3	Barraneche	5	Mayo	2023-05-13T00:00:00	2024-11-06T09:00:00	5	Humedad	60
25421	7	Sololá	701	Sololá	3	Barraneche	5	Mayo	2023-05-13T00:00:00	2024-11-06T09:00:00	6	Velocidad del viento	3.2
25422	7	Sololá	701	Sololá	3	Barraneche	5	Mayo	2023-05-13T00:00:00	2024-11-06T09:00:00	7	Dirección del viento	3.22
25423	7	Sololá	701	Sololá	3	Barraneche	5	Mayo	2023-05-13T00:00:00	2024-11-06T09:00:00	1	Precipitación	0
25424	7	Sololá	701	Sololá	3	Barraneche	5	Mayo	2023-05-13T00:00:00	2024-11-06T09:00:00	8	Radiación solar	587
25425	7	Sololá	701	Sololá	3	Barraneche	5	Mayo	2023-05-13T00:00:00	2024-11-06T10:00:00	2	Temperatura media	17.7
25426	7	Sololá	701	Sololá	3	Barraneche	5	Mayo	2023-05-13T00:00:00	2024-11-06T10:00:00	4	Temperatura máxima	18.1
25427	7	Sololá	701	Sololá	3	Barraneche	5	Mayo	2023-05-13T00:00:00	2024-11-06T10:00:00	3	Temperatura mínima	17.3
25428	7	Sololá	701	Sololá	3	Barraneche	5	Mayo	2023-05-13T00:00:00	2024-11-06T10:00:00	5	Humedad	62
25429	7	Sololá	701	Sololá	3	Barraneche	5	Mayo	2023-05-13T00:00:00	2024-11-06T10:00:00	6	Velocidad del viento	8
25430	7	Sololá	701	Sololá	3	Barraneche	5	Mayo	2023-05-13T00:00:00	2024-11-06T10:00:00	7	Dirección del viento	8.05
25431	7	Sololá	701	Sololá	3	Barraneche	5	Mayo	2023-05-13T00:00:00	2024-11-06T10:00:00	1	Precipitación	0
25432	7	Sololá	701	Sololá	3	Barraneche	5	Mayo	2023-05-13T00:00:00	2024-11-06T10:00:00	8	Radiación solar	522
25433	7	Sololá	701	Sololá	3	Barraneche	5	Mayo	2023-05-13T00:00:00	2024-11-06T11:00:00	2	Temperatura media	16.9
25434	7	Sololá	701	Sololá	3	Barraneche	5	Mayo	2023-05-13T00:00:00	2024-11-06T11:00:00	4	Temperatura máxima	18.1
25435	7	Sololá	701	Sololá	3	Barraneche	5	Mayo	2023-05-13T00:00:00	2024-11-06T11:00:00	3	Temperatura mínima	16.7
25436	7	Sololá	701	Sololá	3	Barraneche	5	Mayo	2023-05-13T00:00:00	2024-11-06T11:00:00	5	Humedad	72
25437	7	Sololá	701	Sololá	3	Barraneche	5	Mayo	2023-05-13T00:00:00	2024-11-06T11:00:00	6	Velocidad del viento	12.9
25438	7	Sololá	701	Sololá	3	Barraneche	5	Mayo	2023-05-13T00:00:00	2024-11-06T11:00:00	7	Dirección del viento	12.87
25439	7	Sololá	701	Sololá	3	Barraneche	5	Mayo	2023-05-13T00:00:00	2024-11-06T11:00:00	1	Precipitación	0
25440	7	Sololá	701	Sololá	3	Barraneche	5	Mayo	2023-05-13T00:00:00	2024-11-06T11:00:00	8	Radiación solar	775
25441	7	Sololá	701	Sololá	3	Barraneche	5	Mayo	2023-05-13T00:00:00	2024-11-06T12:00:00	2	Temperatura media	16.7
25442	7	Sololá	701	Sololá	3	Barraneche	5	Mayo	2023-05-13T00:00:00	2024-11-06T12:00:00	4	Temperatura máxima	17.1
25443	7	Sololá	701	Sololá	3	Barraneche	5	Mayo	2023-05-13T00:00:00	2024-11-06T12:00:00	3	Temperatura mínima	16.5
25444	7	Sololá	701	Sololá	3	Barraneche	5	Mayo	2023-05-13T00:00:00	2024-11-06T12:00:00	5	Humedad	72
25445	7	Sololá	701	Sololá	3	Barraneche	5	Mayo	2023-05-13T00:00:00	2024-11-06T12:00:00	6	Velocidad del viento	9.7
25446	7	Sololá	701	Sololá	3	Barraneche	5	Mayo	2023-05-13T00:00:00	2024-11-06T12:00:00	7	Dirección del viento	9.66
25447	7	Sololá	701	Sololá	3	Barraneche	5	Mayo	2023-05-13T00:00:00	2024-11-06T12:00:00	1	Precipitación	0
25448	7	Sololá	701	Sololá	3	Barraneche	5	Mayo	2023-05-13T00:00:00	2024-11-06T12:00:00	8	Radiación solar	334
25449	7	Sololá	701	Sololá	3	Barraneche	5	Mayo	2023-05-13T00:00:00	2024-11-06T13:00:00	2	Temperatura media	17.4
25450	7	Sololá	701	Sololá	3	Barraneche	5	Mayo	2023-05-13T00:00:00	2024-11-06T13:00:00	4	Temperatura máxima	17.4
25451	7	Sololá	701	Sololá	3	Barraneche	5	Mayo	2023-05-13T00:00:00	2024-11-06T13:00:00	3	Temperatura mínima	16.6
25452	7	Sololá	701	Sololá	3	Barraneche	5	Mayo	2023-05-13T00:00:00	2024-11-06T13:00:00	5	Humedad	72
25453	7	Sololá	701	Sololá	3	Barraneche	5	Mayo	2023-05-13T00:00:00	2024-11-06T13:00:00	6	Velocidad del viento	8
25454	7	Sololá	701	Sololá	3	Barraneche	5	Mayo	2023-05-13T00:00:00	2024-11-06T13:00:00	7	Dirección del viento	8.05
25455	7	Sololá	701	Sololá	3	Barraneche	5	Mayo	2023-05-13T00:00:00	2024-11-06T13:00:00	1	Precipitación	0
25456	7	Sololá	701	Sololá	3	Barraneche	5	Mayo	2023-05-13T00:00:00	2024-11-06T13:00:00	8	Radiación solar	318
25457	7	Sololá	701	Sololá	3	Barraneche	5	Mayo	2023-05-13T00:00:00	2024-11-06T14:00:00	2	Temperatura media	15.3
25458	7	Sololá	701	Sololá	3	Barraneche	5	Mayo	2023-05-13T00:00:00	2024-11-06T14:00:00	4	Temperatura máxima	17.4
25459	7	Sololá	701	Sololá	3	Barraneche	5	Mayo	2023-05-13T00:00:00	2024-11-06T14:00:00	3	Temperatura mínima	15.3
25460	7	Sololá	701	Sololá	3	Barraneche	5	Mayo	2023-05-13T00:00:00	2024-11-06T14:00:00	5	Humedad	77
25461	7	Sololá	701	Sololá	3	Barraneche	5	Mayo	2023-05-13T00:00:00	2024-11-06T14:00:00	6	Velocidad del viento	11.3
25462	7	Sololá	701	Sololá	3	Barraneche	5	Mayo	2023-05-13T00:00:00	2024-11-06T14:00:00	7	Dirección del viento	11.27
25463	7	Sololá	701	Sololá	3	Barraneche	5	Mayo	2023-05-13T00:00:00	2024-11-06T14:00:00	1	Precipitación	0
25464	7	Sololá	701	Sololá	3	Barraneche	5	Mayo	2023-05-13T00:00:00	2024-11-06T14:00:00	8	Radiación solar	143
25465	7	Sololá	701	Sololá	3	Barraneche	5	Mayo	2023-05-13T00:00:00	2024-11-06T15:00:00	2	Temperatura media	15.5
25466	7	Sololá	701	Sololá	3	Barraneche	5	Mayo	2023-05-13T00:00:00	2024-11-06T15:00:00	4	Temperatura máxima	15.9
25467	7	Sololá	701	Sololá	3	Barraneche	5	Mayo	2023-05-13T00:00:00	2024-11-06T15:00:00	3	Temperatura mínima	15.3
25468	7	Sololá	701	Sololá	3	Barraneche	5	Mayo	2023-05-13T00:00:00	2024-11-06T15:00:00	5	Humedad	77
25469	7	Sololá	701	Sololá	3	Barraneche	5	Mayo	2023-05-13T00:00:00	2024-11-06T15:00:00	6	Velocidad del viento	4.8
25470	7	Sololá	701	Sololá	3	Barraneche	5	Mayo	2023-05-13T00:00:00	2024-11-06T15:00:00	7	Dirección del viento	4.83
25471	7	Sololá	701	Sololá	3	Barraneche	5	Mayo	2023-05-13T00:00:00	2024-11-06T15:00:00	1	Precipitación	1.2
25472	7	Sololá	701	Sololá	3	Barraneche	5	Mayo	2023-05-13T00:00:00	2024-11-06T15:00:00	8	Radiación solar	199
25473	7	Sololá	701	Sololá	3	Barraneche	5	Mayo	2023-05-13T00:00:00	2024-11-06T16:00:00	2	Temperatura media	10.8
25474	7	Sololá	701	Sololá	3	Barraneche	5	Mayo	2023-05-13T00:00:00	2024-11-06T16:00:00	4	Temperatura máxima	15.5
25475	7	Sololá	701	Sololá	3	Barraneche	5	Mayo	2023-05-13T00:00:00	2024-11-06T16:00:00	3	Temperatura mínima	10.8
25476	7	Sololá	701	Sololá	3	Barraneche	5	Mayo	2023-05-13T00:00:00	2024-11-06T16:00:00	5	Humedad	76
25477	7	Sololá	701	Sololá	3	Barraneche	5	Mayo	2023-05-13T00:00:00	2024-11-06T16:00:00	6	Velocidad del viento	8
25478	7	Sololá	701	Sololá	3	Barraneche	5	Mayo	2023-05-13T00:00:00	2024-11-06T16:00:00	7	Dirección del viento	8.05
25479	7	Sololá	701	Sololá	3	Barraneche	5	Mayo	2023-05-13T00:00:00	2024-11-06T16:00:00	1	Precipitación	14
25480	7	Sololá	701	Sololá	3	Barraneche	5	Mayo	2023-05-13T00:00:00	2024-11-06T16:00:00	8	Radiación solar	39
25481	7	Sololá	701	Sololá	3	Barraneche	5	Mayo	2023-05-13T00:00:00	2024-11-06T17:00:00	2	Temperatura media	11
25482	7	Sololá	701	Sololá	3	Barraneche	5	Mayo	2023-05-13T00:00:00	2024-11-06T17:00:00	4	Temperatura máxima	11.2
25483	7	Sololá	701	Sololá	3	Barraneche	5	Mayo	2023-05-13T00:00:00	2024-11-06T17:00:00	3	Temperatura mínima	9.8
25484	7	Sololá	701	Sololá	3	Barraneche	5	Mayo	2023-05-13T00:00:00	2024-11-06T17:00:00	5	Humedad	82
25485	7	Sololá	701	Sololá	3	Barraneche	5	Mayo	2023-05-13T00:00:00	2024-11-06T17:00:00	6	Velocidad del viento	9.7
25486	7	Sololá	701	Sololá	3	Barraneche	5	Mayo	2023-05-13T00:00:00	2024-11-06T17:00:00	7	Dirección del viento	9.66
25487	7	Sololá	701	Sololá	3	Barraneche	5	Mayo	2023-05-13T00:00:00	2024-11-06T17:00:00	1	Precipitación	3.4
25488	7	Sololá	701	Sololá	3	Barraneche	5	Mayo	2023-05-13T00:00:00	2024-11-06T17:00:00	8	Radiación solar	63
25489	7	Sololá	701	Sololá	3	Barraneche	5	Mayo	2023-05-13T00:00:00	2024-11-06T18:00:00	2	Temperatura media	12
25490	7	Sololá	701	Sololá	3	Barraneche	5	Mayo	2023-05-13T00:00:00	2024-11-06T18:00:00	4	Temperatura máxima	12.1
25491	7	Sololá	701	Sololá	3	Barraneche	5	Mayo	2023-05-13T00:00:00	2024-11-06T18:00:00	3	Temperatura mínima	11
25492	7	Sololá	701	Sololá	3	Barraneche	5	Mayo	2023-05-13T00:00:00	2024-11-06T18:00:00	5	Humedad	77
25493	7	Sololá	701	Sololá	3	Barraneche	5	Mayo	2023-05-13T00:00:00	2024-11-06T18:00:00	6	Velocidad del viento	9.7
25494	7	Sololá	701	Sololá	3	Barraneche	5	Mayo	2023-05-13T00:00:00	2024-11-06T18:00:00	7	Dirección del viento	9.66
25495	7	Sololá	701	Sololá	3	Barraneche	5	Mayo	2023-05-13T00:00:00	2024-11-06T18:00:00	1	Precipitación	0.2
25496	7	Sololá	701	Sololá	3	Barraneche	5	Mayo	2023-05-13T00:00:00	2024-11-06T18:00:00	8	Radiación solar	18
25497	7	Sololá	701	Sololá	3	Barraneche	5	Mayo	2023-05-13T00:00:00	2024-11-06T19:00:00	2	Temperatura media	12.1
25498	7	Sololá	701	Sololá	3	Barraneche	5	Mayo	2023-05-13T00:00:00	2024-11-06T19:00:00	4	Temperatura máxima	12.3
25499	7	Sololá	701	Sololá	3	Barraneche	5	Mayo	2023-05-13T00:00:00	2024-11-06T19:00:00	3	Temperatura mínima	11.4
25500	7	Sololá	701	Sololá	3	Barraneche	5	Mayo	2023-05-13T00:00:00	2024-11-06T19:00:00	5	Humedad	74
25501	7	Sololá	701	Sololá	3	Barraneche	5	Mayo	2023-05-13T00:00:00	2024-11-06T19:00:00	6	Velocidad del viento	11.3
25502	7	Sololá	701	Sololá	3	Barraneche	5	Mayo	2023-05-13T00:00:00	2024-11-06T19:00:00	7	Dirección del viento	11.27
25503	7	Sololá	701	Sololá	3	Barraneche	5	Mayo	2023-05-13T00:00:00	2024-11-06T19:00:00	1	Precipitación	0.6
25504	7	Sololá	701	Sololá	3	Barraneche	5	Mayo	2023-05-13T00:00:00	2024-11-06T19:00:00	8	Radiación solar	0
25505	7	Sololá	701	Sololá	3	Barraneche	5	Mayo	2023-05-13T00:00:00	2024-11-06T20:00:00	2	Temperatura media	13.9
25506	7	Sololá	701	Sololá	3	Barraneche	5	Mayo	2023-05-13T00:00:00	2024-11-06T20:00:00	4	Temperatura máxima	13.9
25507	7	Sololá	701	Sololá	3	Barraneche	5	Mayo	2023-05-13T00:00:00	2024-11-06T20:00:00	3	Temperatura mínima	11.8
25508	7	Sololá	701	Sololá	3	Barraneche	5	Mayo	2023-05-13T00:00:00	2024-11-06T20:00:00	5	Humedad	67
25509	7	Sololá	701	Sololá	3	Barraneche	5	Mayo	2023-05-13T00:00:00	2024-11-06T20:00:00	6	Velocidad del viento	14.5
25510	7	Sololá	701	Sololá	3	Barraneche	5	Mayo	2023-05-13T00:00:00	2024-11-06T20:00:00	7	Dirección del viento	14.48
25511	7	Sololá	701	Sololá	3	Barraneche	5	Mayo	2023-05-13T00:00:00	2024-11-06T20:00:00	1	Precipitación	0
25512	7	Sololá	701	Sololá	3	Barraneche	5	Mayo	2023-05-13T00:00:00	2024-11-06T20:00:00	8	Radiación solar	0
25513	7	Sololá	701	Sololá	3	Barraneche	5	Mayo	2023-05-13T00:00:00	2024-11-06T21:00:00	2	Temperatura media	13.7
25514	7	Sololá	701	Sololá	3	Barraneche	5	Mayo	2023-05-13T00:00:00	2024-11-06T21:00:00	4	Temperatura máxima	15.6
25515	7	Sololá	701	Sololá	3	Barraneche	5	Mayo	2023-05-13T00:00:00	2024-11-06T21:00:00	3	Temperatura mínima	13.7
25516	7	Sololá	701	Sololá	3	Barraneche	5	Mayo	2023-05-13T00:00:00	2024-11-06T21:00:00	5	Humedad	66
25517	7	Sololá	701	Sololá	3	Barraneche	5	Mayo	2023-05-13T00:00:00	2024-11-06T21:00:00	6	Velocidad del viento	14.5
25518	7	Sololá	701	Sololá	3	Barraneche	5	Mayo	2023-05-13T00:00:00	2024-11-06T21:00:00	7	Dirección del viento	14.48
25519	7	Sololá	701	Sololá	3	Barraneche	5	Mayo	2023-05-13T00:00:00	2024-11-06T21:00:00	1	Precipitación	0
25520	7	Sololá	701	Sololá	3	Barraneche	5	Mayo	2023-05-13T00:00:00	2024-11-06T21:00:00	8	Radiación solar	0
25521	7	Sololá	701	Sololá	3	Barraneche	5	Mayo	2023-05-13T00:00:00	2024-11-06T22:00:00	2	Temperatura media	10.4
25522	7	Sololá	701	Sololá	3	Barraneche	5	Mayo	2023-05-13T00:00:00	2024-11-06T22:00:00	4	Temperatura máxima	13.6
25523	7	Sololá	701	Sololá	3	Barraneche	5	Mayo	2023-05-13T00:00:00	2024-11-06T22:00:00	3	Temperatura mínima	10.4
25524	7	Sololá	701	Sololá	3	Barraneche	5	Mayo	2023-05-13T00:00:00	2024-11-06T22:00:00	5	Humedad	74
25525	7	Sololá	701	Sololá	3	Barraneche	5	Mayo	2023-05-13T00:00:00	2024-11-06T22:00:00	6	Velocidad del viento	9.7
25526	7	Sololá	701	Sololá	3	Barraneche	5	Mayo	2023-05-13T00:00:00	2024-11-06T22:00:00	7	Dirección del viento	9.66
25527	7	Sololá	701	Sololá	3	Barraneche	5	Mayo	2023-05-13T00:00:00	2024-11-06T22:00:00	1	Precipitación	0
25528	7	Sololá	701	Sololá	3	Barraneche	5	Mayo	2023-05-13T00:00:00	2024-11-06T22:00:00	8	Radiación solar	0
25529	7	Sololá	701	Sololá	3	Barraneche	5	Mayo	2023-05-13T00:00:00	2024-11-06T23:00:00	2	Temperatura media	10
25530	7	Sololá	701	Sololá	3	Barraneche	5	Mayo	2023-05-13T00:00:00	2024-11-06T23:00:00	4	Temperatura máxima	10.7
25531	7	Sololá	701	Sololá	3	Barraneche	5	Mayo	2023-05-13T00:00:00	2024-11-06T23:00:00	3	Temperatura mínima	9.9
25532	7	Sololá	701	Sololá	3	Barraneche	5	Mayo	2023-05-13T00:00:00	2024-11-06T23:00:00	5	Humedad	75
25533	7	Sololá	701	Sololá	3	Barraneche	5	Mayo	2023-05-13T00:00:00	2024-11-06T23:00:00	6	Velocidad del viento	11.3
25534	7	Sololá	701	Sololá	3	Barraneche	5	Mayo	2023-05-13T00:00:00	2024-11-06T23:00:00	7	Dirección del viento	11.27
25535	7	Sololá	701	Sololá	3	Barraneche	5	Mayo	2023-05-13T00:00:00	2024-11-06T23:00:00	1	Precipitación	0
25536	7	Sololá	701	Sololá	3	Barraneche	5	Mayo	2023-05-13T00:00:00	2024-11-06T23:00:00	8	Radiación solar	0
25537	7	Sololá	701	Sololá	3	Barraneche	5	Mayo	2023-05-14T00:00:00	2024-11-06T00:00:00	2	Temperatura media	10.6
25538	7	Sololá	701	Sololá	3	Barraneche	5	Mayo	2023-05-14T00:00:00	2024-11-06T00:00:00	4	Temperatura máxima	10.8
25539	7	Sololá	701	Sololá	3	Barraneche	5	Mayo	2023-05-14T00:00:00	2024-11-06T00:00:00	3	Temperatura mínima	9.9
25540	7	Sololá	701	Sololá	3	Barraneche	5	Mayo	2023-05-14T00:00:00	2024-11-06T00:00:00	5	Humedad	75
25541	7	Sololá	701	Sololá	3	Barraneche	5	Mayo	2023-05-14T00:00:00	2024-11-06T00:00:00	6	Velocidad del viento	9.7
25542	7	Sololá	701	Sololá	3	Barraneche	5	Mayo	2023-05-14T00:00:00	2024-11-06T00:00:00	7	Dirección del viento	9.66
25543	7	Sololá	701	Sololá	3	Barraneche	5	Mayo	2023-05-14T00:00:00	2024-11-06T00:00:00	1	Precipitación	0
25544	7	Sololá	701	Sololá	3	Barraneche	5	Mayo	2023-05-14T00:00:00	2024-11-06T00:00:00	8	Radiación solar	0
25545	7	Sololá	701	Sololá	3	Barraneche	5	Mayo	2023-05-14T00:00:00	2024-11-06T01:00:00	2	Temperatura media	11.5
25546	7	Sololá	701	Sololá	3	Barraneche	5	Mayo	2023-05-14T00:00:00	2024-11-06T01:00:00	4	Temperatura máxima	11.5
25547	7	Sololá	701	Sololá	3	Barraneche	5	Mayo	2023-05-14T00:00:00	2024-11-06T01:00:00	3	Temperatura mínima	10.6
25548	7	Sololá	701	Sololá	3	Barraneche	5	Mayo	2023-05-14T00:00:00	2024-11-06T01:00:00	5	Humedad	76
25549	7	Sololá	701	Sololá	3	Barraneche	5	Mayo	2023-05-14T00:00:00	2024-11-06T01:00:00	6	Velocidad del viento	6.4
25550	7	Sololá	701	Sololá	3	Barraneche	5	Mayo	2023-05-14T00:00:00	2024-11-06T01:00:00	7	Dirección del viento	6.44
25551	7	Sololá	701	Sololá	3	Barraneche	5	Mayo	2023-05-14T00:00:00	2024-11-06T01:00:00	1	Precipitación	0
25552	7	Sololá	701	Sololá	3	Barraneche	5	Mayo	2023-05-14T00:00:00	2024-11-06T01:00:00	8	Radiación solar	0
25553	7	Sololá	701	Sololá	3	Barraneche	5	Mayo	2023-05-14T00:00:00	2024-11-06T02:00:00	2	Temperatura media	11.4
25554	7	Sololá	701	Sololá	3	Barraneche	5	Mayo	2023-05-14T00:00:00	2024-11-06T02:00:00	4	Temperatura máxima	12.2
25555	7	Sololá	701	Sololá	3	Barraneche	5	Mayo	2023-05-14T00:00:00	2024-11-06T02:00:00	3	Temperatura mínima	11.3
25556	7	Sololá	701	Sololá	3	Barraneche	5	Mayo	2023-05-14T00:00:00	2024-11-06T02:00:00	5	Humedad	77
25557	7	Sololá	701	Sololá	3	Barraneche	5	Mayo	2023-05-14T00:00:00	2024-11-06T02:00:00	6	Velocidad del viento	6.4
25558	7	Sololá	701	Sololá	3	Barraneche	5	Mayo	2023-05-14T00:00:00	2024-11-06T02:00:00	7	Dirección del viento	6.44
25559	7	Sololá	701	Sololá	3	Barraneche	5	Mayo	2023-05-14T00:00:00	2024-11-06T02:00:00	1	Precipitación	0
25560	7	Sololá	701	Sololá	3	Barraneche	5	Mayo	2023-05-14T00:00:00	2024-11-06T02:00:00	8	Radiación solar	0
25561	7	Sololá	701	Sololá	3	Barraneche	5	Mayo	2023-05-14T00:00:00	2024-11-06T03:00:00	2	Temperatura media	11.4
25562	7	Sololá	701	Sololá	3	Barraneche	5	Mayo	2023-05-14T00:00:00	2024-11-06T03:00:00	4	Temperatura máxima	11.9
25563	7	Sololá	701	Sololá	3	Barraneche	5	Mayo	2023-05-14T00:00:00	2024-11-06T03:00:00	3	Temperatura mínima	11.4
25564	7	Sololá	701	Sololá	3	Barraneche	5	Mayo	2023-05-14T00:00:00	2024-11-06T03:00:00	5	Humedad	76
25565	7	Sololá	701	Sololá	3	Barraneche	5	Mayo	2023-05-14T00:00:00	2024-11-06T03:00:00	6	Velocidad del viento	6.4
25566	7	Sololá	701	Sololá	3	Barraneche	5	Mayo	2023-05-14T00:00:00	2024-11-06T03:00:00	7	Dirección del viento	6.44
25567	7	Sololá	701	Sololá	3	Barraneche	5	Mayo	2023-05-14T00:00:00	2024-11-06T03:00:00	1	Precipitación	0
25568	7	Sololá	701	Sololá	3	Barraneche	5	Mayo	2023-05-14T00:00:00	2024-11-06T03:00:00	8	Radiación solar	0
25569	7	Sololá	701	Sololá	3	Barraneche	5	Mayo	2023-05-14T00:00:00	2024-11-06T04:00:00	2	Temperatura media	11.5
25570	7	Sololá	701	Sololá	3	Barraneche	5	Mayo	2023-05-14T00:00:00	2024-11-06T04:00:00	4	Temperatura máxima	11.5
25571	7	Sololá	701	Sololá	3	Barraneche	5	Mayo	2023-05-14T00:00:00	2024-11-06T04:00:00	3	Temperatura mínima	10.9
25572	7	Sololá	701	Sololá	3	Barraneche	5	Mayo	2023-05-14T00:00:00	2024-11-06T04:00:00	5	Humedad	75
25573	7	Sololá	701	Sololá	3	Barraneche	5	Mayo	2023-05-14T00:00:00	2024-11-06T04:00:00	6	Velocidad del viento	4.8
25574	7	Sololá	701	Sololá	3	Barraneche	5	Mayo	2023-05-14T00:00:00	2024-11-06T04:00:00	7	Dirección del viento	4.83
25575	7	Sololá	701	Sololá	3	Barraneche	5	Mayo	2023-05-14T00:00:00	2024-11-06T04:00:00	1	Precipitación	0
25576	7	Sololá	701	Sololá	3	Barraneche	5	Mayo	2023-05-14T00:00:00	2024-11-06T04:00:00	8	Radiación solar	0
25577	7	Sololá	701	Sololá	3	Barraneche	5	Mayo	2023-05-14T00:00:00	2024-11-06T05:00:00	2	Temperatura media	11.8
25578	7	Sololá	701	Sololá	3	Barraneche	5	Mayo	2023-05-14T00:00:00	2024-11-06T05:00:00	4	Temperatura máxima	12.5
25579	7	Sololá	701	Sololá	3	Barraneche	5	Mayo	2023-05-14T00:00:00	2024-11-06T05:00:00	3	Temperatura mínima	11.5
25580	7	Sololá	701	Sololá	3	Barraneche	5	Mayo	2023-05-14T00:00:00	2024-11-06T05:00:00	5	Humedad	70
25581	7	Sololá	701	Sololá	3	Barraneche	5	Mayo	2023-05-14T00:00:00	2024-11-06T05:00:00	6	Velocidad del viento	16.1
25582	7	Sololá	701	Sololá	3	Barraneche	5	Mayo	2023-05-14T00:00:00	2024-11-06T05:00:00	7	Dirección del viento	16.09
25583	7	Sololá	701	Sololá	3	Barraneche	5	Mayo	2023-05-14T00:00:00	2024-11-06T05:00:00	1	Precipitación	1.4
25584	7	Sololá	701	Sololá	3	Barraneche	5	Mayo	2023-05-14T00:00:00	2024-11-06T05:00:00	8	Radiación solar	0
25585	7	Sololá	701	Sololá	3	Barraneche	5	Mayo	2023-05-14T00:00:00	2024-11-06T06:00:00	2	Temperatura media	13
25586	7	Sololá	701	Sololá	3	Barraneche	5	Mayo	2023-05-14T00:00:00	2024-11-06T06:00:00	4	Temperatura máxima	13
25587	7	Sololá	701	Sololá	3	Barraneche	5	Mayo	2023-05-14T00:00:00	2024-11-06T06:00:00	3	Temperatura mínima	11.7
25588	7	Sololá	701	Sololá	3	Barraneche	5	Mayo	2023-05-14T00:00:00	2024-11-06T06:00:00	5	Humedad	69
25589	7	Sololá	701	Sololá	3	Barraneche	5	Mayo	2023-05-14T00:00:00	2024-11-06T06:00:00	6	Velocidad del viento	12.9
25590	7	Sololá	701	Sololá	3	Barraneche	5	Mayo	2023-05-14T00:00:00	2024-11-06T06:00:00	7	Dirección del viento	12.87
25591	7	Sololá	701	Sololá	3	Barraneche	5	Mayo	2023-05-14T00:00:00	2024-11-06T06:00:00	1	Precipitación	0
25592	7	Sololá	701	Sololá	3	Barraneche	5	Mayo	2023-05-14T00:00:00	2024-11-06T06:00:00	8	Radiación solar	0
25593	7	Sololá	701	Sololá	3	Barraneche	5	Mayo	2023-05-14T00:00:00	2024-11-06T07:00:00	2	Temperatura media	12
25594	7	Sololá	701	Sololá	3	Barraneche	5	Mayo	2023-05-14T00:00:00	2024-11-06T07:00:00	4	Temperatura máxima	13.1
25595	7	Sololá	701	Sololá	3	Barraneche	5	Mayo	2023-05-14T00:00:00	2024-11-06T07:00:00	3	Temperatura mínima	12
25596	7	Sololá	701	Sololá	3	Barraneche	5	Mayo	2023-05-14T00:00:00	2024-11-06T07:00:00	5	Humedad	72
25597	7	Sololá	701	Sololá	3	Barraneche	5	Mayo	2023-05-14T00:00:00	2024-11-06T07:00:00	6	Velocidad del viento	11.3
25598	7	Sololá	701	Sololá	3	Barraneche	5	Mayo	2023-05-14T00:00:00	2024-11-06T07:00:00	7	Dirección del viento	11.27
25599	7	Sololá	701	Sololá	3	Barraneche	5	Mayo	2023-05-14T00:00:00	2024-11-06T07:00:00	1	Precipitación	0
25600	7	Sololá	701	Sololá	3	Barraneche	5	Mayo	2023-05-14T00:00:00	2024-11-06T07:00:00	8	Radiación solar	31
25601	7	Sololá	701	Sololá	3	Barraneche	5	Mayo	2023-05-14T00:00:00	2024-11-06T08:00:00	2	Temperatura media	13.4
25602	7	Sololá	701	Sololá	3	Barraneche	5	Mayo	2023-05-14T00:00:00	2024-11-06T08:00:00	4	Temperatura máxima	13.4
25603	7	Sololá	701	Sololá	3	Barraneche	5	Mayo	2023-05-14T00:00:00	2024-11-06T08:00:00	3	Temperatura mínima	11.7
25604	7	Sololá	701	Sololá	3	Barraneche	5	Mayo	2023-05-14T00:00:00	2024-11-06T08:00:00	5	Humedad	68
25605	7	Sololá	701	Sololá	3	Barraneche	5	Mayo	2023-05-14T00:00:00	2024-11-06T08:00:00	6	Velocidad del viento	9.7
25606	7	Sololá	701	Sololá	3	Barraneche	5	Mayo	2023-05-14T00:00:00	2024-11-06T08:00:00	7	Dirección del viento	9.66
25607	7	Sololá	701	Sololá	3	Barraneche	5	Mayo	2023-05-14T00:00:00	2024-11-06T08:00:00	1	Precipitación	0
25608	7	Sololá	701	Sololá	3	Barraneche	5	Mayo	2023-05-14T00:00:00	2024-11-06T08:00:00	8	Radiación solar	154
25609	7	Sololá	701	Sololá	3	Barraneche	5	Mayo	2023-05-14T00:00:00	2024-11-06T09:00:00	2	Temperatura media	17.6
25610	7	Sololá	701	Sololá	3	Barraneche	5	Mayo	2023-05-14T00:00:00	2024-11-06T09:00:00	4	Temperatura máxima	17.6
25611	7	Sololá	701	Sololá	3	Barraneche	5	Mayo	2023-05-14T00:00:00	2024-11-06T09:00:00	3	Temperatura mínima	13.4
25612	7	Sololá	701	Sololá	3	Barraneche	5	Mayo	2023-05-14T00:00:00	2024-11-06T09:00:00	5	Humedad	46
25613	7	Sololá	701	Sololá	3	Barraneche	5	Mayo	2023-05-14T00:00:00	2024-11-06T09:00:00	6	Velocidad del viento	6.4
25614	7	Sololá	701	Sololá	3	Barraneche	5	Mayo	2023-05-14T00:00:00	2024-11-06T09:00:00	7	Dirección del viento	6.44
25615	7	Sololá	701	Sololá	3	Barraneche	5	Mayo	2023-05-14T00:00:00	2024-11-06T09:00:00	1	Precipitación	0
25616	7	Sololá	701	Sololá	3	Barraneche	5	Mayo	2023-05-14T00:00:00	2024-11-06T09:00:00	8	Radiación solar	446
25617	7	Sololá	701	Sololá	3	Barraneche	5	Mayo	2023-05-14T00:00:00	2024-11-06T10:00:00	2	Temperatura media	18.5
25618	7	Sololá	701	Sololá	3	Barraneche	5	Mayo	2023-05-14T00:00:00	2024-11-06T10:00:00	4	Temperatura máxima	19.3
25619	7	Sololá	701	Sololá	3	Barraneche	5	Mayo	2023-05-14T00:00:00	2024-11-06T10:00:00	3	Temperatura mínima	17.6
25620	7	Sololá	701	Sololá	3	Barraneche	5	Mayo	2023-05-14T00:00:00	2024-11-06T10:00:00	5	Humedad	49
25621	7	Sololá	701	Sololá	3	Barraneche	5	Mayo	2023-05-14T00:00:00	2024-11-06T10:00:00	6	Velocidad del viento	6.4
25622	7	Sololá	701	Sololá	3	Barraneche	5	Mayo	2023-05-14T00:00:00	2024-11-06T10:00:00	7	Dirección del viento	6.44
25623	7	Sololá	701	Sololá	3	Barraneche	5	Mayo	2023-05-14T00:00:00	2024-11-06T10:00:00	1	Precipitación	0
25624	7	Sololá	701	Sololá	3	Barraneche	5	Mayo	2023-05-14T00:00:00	2024-11-06T10:00:00	8	Radiación solar	683
25625	7	Sololá	701	Sololá	3	Barraneche	5	Mayo	2023-05-14T00:00:00	2024-11-06T11:00:00	2	Temperatura media	16.9
25626	7	Sololá	701	Sololá	3	Barraneche	5	Mayo	2023-05-14T00:00:00	2024-11-06T11:00:00	4	Temperatura máxima	18.5
25627	7	Sololá	701	Sololá	3	Barraneche	5	Mayo	2023-05-14T00:00:00	2024-11-06T11:00:00	3	Temperatura mínima	16.8
25628	7	Sololá	701	Sololá	3	Barraneche	5	Mayo	2023-05-14T00:00:00	2024-11-06T11:00:00	5	Humedad	56
25629	7	Sololá	701	Sololá	3	Barraneche	5	Mayo	2023-05-14T00:00:00	2024-11-06T11:00:00	6	Velocidad del viento	11.3
25630	7	Sololá	701	Sololá	3	Barraneche	5	Mayo	2023-05-14T00:00:00	2024-11-06T11:00:00	7	Dirección del viento	11.27
25631	7	Sololá	701	Sololá	3	Barraneche	5	Mayo	2023-05-14T00:00:00	2024-11-06T11:00:00	1	Precipitación	0
25632	7	Sololá	701	Sololá	3	Barraneche	5	Mayo	2023-05-14T00:00:00	2024-11-06T11:00:00	8	Radiación solar	596
25633	7	Sololá	701	Sololá	3	Barraneche	5	Mayo	2023-05-14T00:00:00	2024-11-06T12:00:00	2	Temperatura media	17.7
25634	7	Sololá	701	Sololá	3	Barraneche	5	Mayo	2023-05-14T00:00:00	2024-11-06T12:00:00	4	Temperatura máxima	17.8
25635	7	Sololá	701	Sololá	3	Barraneche	5	Mayo	2023-05-14T00:00:00	2024-11-06T12:00:00	3	Temperatura mínima	16.9
25636	7	Sololá	701	Sololá	3	Barraneche	5	Mayo	2023-05-14T00:00:00	2024-11-06T12:00:00	5	Humedad	57
25637	7	Sololá	701	Sololá	3	Barraneche	5	Mayo	2023-05-14T00:00:00	2024-11-06T12:00:00	6	Velocidad del viento	8
25638	7	Sololá	701	Sololá	3	Barraneche	5	Mayo	2023-05-14T00:00:00	2024-11-06T12:00:00	7	Dirección del viento	8.05
25639	7	Sololá	701	Sololá	3	Barraneche	5	Mayo	2023-05-14T00:00:00	2024-11-06T12:00:00	1	Precipitación	0
25640	7	Sololá	701	Sololá	3	Barraneche	5	Mayo	2023-05-14T00:00:00	2024-11-06T12:00:00	8	Radiación solar	886
25641	7	Sololá	701	Sololá	3	Barraneche	5	Mayo	2023-05-14T00:00:00	2024-11-06T13:00:00	2	Temperatura media	17.9
25642	7	Sololá	701	Sololá	3	Barraneche	5	Mayo	2023-05-14T00:00:00	2024-11-06T13:00:00	4	Temperatura máxima	17.9
25643	7	Sololá	701	Sololá	3	Barraneche	5	Mayo	2023-05-14T00:00:00	2024-11-06T13:00:00	3	Temperatura mínima	16.8
25644	7	Sololá	701	Sololá	3	Barraneche	5	Mayo	2023-05-14T00:00:00	2024-11-06T13:00:00	5	Humedad	50
25645	7	Sololá	701	Sololá	3	Barraneche	5	Mayo	2023-05-14T00:00:00	2024-11-06T13:00:00	6	Velocidad del viento	8
25646	7	Sololá	701	Sololá	3	Barraneche	5	Mayo	2023-05-14T00:00:00	2024-11-06T13:00:00	7	Dirección del viento	8.05
25647	7	Sololá	701	Sololá	3	Barraneche	5	Mayo	2023-05-14T00:00:00	2024-11-06T13:00:00	1	Precipitación	0
25648	7	Sololá	701	Sololá	3	Barraneche	5	Mayo	2023-05-14T00:00:00	2024-11-06T13:00:00	8	Radiación solar	638
25649	7	Sololá	701	Sololá	3	Barraneche	5	Mayo	2023-05-14T00:00:00	2024-11-06T14:00:00	2	Temperatura media	18.2
25650	7	Sololá	701	Sololá	3	Barraneche	5	Mayo	2023-05-14T00:00:00	2024-11-06T14:00:00	4	Temperatura máxima	19.2
25651	7	Sololá	701	Sololá	3	Barraneche	5	Mayo	2023-05-14T00:00:00	2024-11-06T14:00:00	3	Temperatura mínima	17.9
25652	7	Sololá	701	Sololá	3	Barraneche	5	Mayo	2023-05-14T00:00:00	2024-11-06T14:00:00	5	Humedad	55
25653	7	Sololá	701	Sololá	3	Barraneche	5	Mayo	2023-05-14T00:00:00	2024-11-06T14:00:00	6	Velocidad del viento	6.4
25654	7	Sololá	701	Sololá	3	Barraneche	5	Mayo	2023-05-14T00:00:00	2024-11-06T14:00:00	7	Dirección del viento	6.44
25655	7	Sololá	701	Sololá	3	Barraneche	5	Mayo	2023-05-14T00:00:00	2024-11-06T14:00:00	1	Precipitación	0
25656	7	Sololá	701	Sololá	3	Barraneche	5	Mayo	2023-05-14T00:00:00	2024-11-06T14:00:00	8	Radiación solar	731
25657	7	Sololá	701	Sololá	3	Barraneche	5	Mayo	2023-05-14T00:00:00	2024-11-06T15:00:00	2	Temperatura media	18.4
25658	7	Sololá	701	Sololá	3	Barraneche	5	Mayo	2023-05-14T00:00:00	2024-11-06T15:00:00	4	Temperatura máxima	18.8
25659	7	Sololá	701	Sololá	3	Barraneche	5	Mayo	2023-05-14T00:00:00	2024-11-06T15:00:00	3	Temperatura mínima	18.2
25660	7	Sololá	701	Sololá	3	Barraneche	5	Mayo	2023-05-14T00:00:00	2024-11-06T15:00:00	5	Humedad	56
25661	7	Sololá	701	Sololá	3	Barraneche	5	Mayo	2023-05-14T00:00:00	2024-11-06T15:00:00	6	Velocidad del viento	9.7
25662	7	Sololá	701	Sololá	3	Barraneche	5	Mayo	2023-05-14T00:00:00	2024-11-06T15:00:00	7	Dirección del viento	9.66
25663	7	Sololá	701	Sololá	3	Barraneche	5	Mayo	2023-05-14T00:00:00	2024-11-06T15:00:00	1	Precipitación	0
25664	7	Sololá	701	Sololá	3	Barraneche	5	Mayo	2023-05-14T00:00:00	2024-11-06T15:00:00	8	Radiación solar	714
25665	7	Sololá	701	Sololá	3	Barraneche	5	Mayo	2023-05-14T00:00:00	2024-11-06T16:00:00	2	Temperatura media	18.3
25666	7	Sololá	701	Sololá	3	Barraneche	5	Mayo	2023-05-14T00:00:00	2024-11-06T16:00:00	4	Temperatura máxima	18.5
25667	7	Sololá	701	Sololá	3	Barraneche	5	Mayo	2023-05-14T00:00:00	2024-11-06T16:00:00	3	Temperatura mínima	17.8
25668	7	Sololá	701	Sololá	3	Barraneche	5	Mayo	2023-05-14T00:00:00	2024-11-06T16:00:00	5	Humedad	58
25669	7	Sololá	701	Sololá	3	Barraneche	5	Mayo	2023-05-14T00:00:00	2024-11-06T16:00:00	6	Velocidad del viento	8
25670	7	Sololá	701	Sololá	3	Barraneche	5	Mayo	2023-05-14T00:00:00	2024-11-06T16:00:00	7	Dirección del viento	8.05
25671	7	Sololá	701	Sololá	3	Barraneche	5	Mayo	2023-05-14T00:00:00	2024-11-06T16:00:00	1	Precipitación	0
25672	7	Sololá	701	Sololá	3	Barraneche	5	Mayo	2023-05-14T00:00:00	2024-11-06T16:00:00	8	Radiación solar	457
25673	7	Sololá	701	Sololá	3	Barraneche	5	Mayo	2023-05-14T00:00:00	2024-11-06T17:00:00	2	Temperatura media	17.9
25674	7	Sololá	701	Sololá	3	Barraneche	5	Mayo	2023-05-14T00:00:00	2024-11-06T17:00:00	4	Temperatura máxima	18.9
25675	7	Sololá	701	Sololá	3	Barraneche	5	Mayo	2023-05-14T00:00:00	2024-11-06T17:00:00	3	Temperatura mínima	17.9
25676	7	Sololá	701	Sololá	3	Barraneche	5	Mayo	2023-05-14T00:00:00	2024-11-06T17:00:00	5	Humedad	61
25677	7	Sololá	701	Sololá	3	Barraneche	5	Mayo	2023-05-14T00:00:00	2024-11-06T17:00:00	6	Velocidad del viento	4.8
25678	7	Sololá	701	Sololá	3	Barraneche	5	Mayo	2023-05-14T00:00:00	2024-11-06T17:00:00	7	Dirección del viento	4.83
25679	7	Sololá	701	Sololá	3	Barraneche	5	Mayo	2023-05-14T00:00:00	2024-11-06T17:00:00	1	Precipitación	0
25680	7	Sololá	701	Sololá	3	Barraneche	5	Mayo	2023-05-14T00:00:00	2024-11-06T17:00:00	8	Radiación solar	210
25681	7	Sololá	701	Sololá	3	Barraneche	5	Mayo	2023-05-14T00:00:00	2024-11-06T18:00:00	2	Temperatura media	16.8
25682	7	Sololá	701	Sololá	3	Barraneche	5	Mayo	2023-05-14T00:00:00	2024-11-06T18:00:00	4	Temperatura máxima	17.9
25683	7	Sololá	701	Sololá	3	Barraneche	5	Mayo	2023-05-14T00:00:00	2024-11-06T18:00:00	3	Temperatura mínima	16.8
25684	7	Sololá	701	Sololá	3	Barraneche	5	Mayo	2023-05-14T00:00:00	2024-11-06T18:00:00	5	Humedad	67
25685	7	Sololá	701	Sololá	3	Barraneche	5	Mayo	2023-05-14T00:00:00	2024-11-06T18:00:00	6	Velocidad del viento	6.4
25686	7	Sololá	701	Sololá	3	Barraneche	5	Mayo	2023-05-14T00:00:00	2024-11-06T18:00:00	7	Dirección del viento	6.44
25687	7	Sololá	701	Sololá	3	Barraneche	5	Mayo	2023-05-14T00:00:00	2024-11-06T18:00:00	1	Precipitación	0
25688	7	Sololá	701	Sololá	3	Barraneche	5	Mayo	2023-05-14T00:00:00	2024-11-06T18:00:00	8	Radiación solar	19
25689	7	Sololá	701	Sololá	3	Barraneche	5	Mayo	2023-05-14T00:00:00	2024-11-06T19:00:00	2	Temperatura media	16.2
25690	7	Sololá	701	Sololá	3	Barraneche	5	Mayo	2023-05-14T00:00:00	2024-11-06T19:00:00	4	Temperatura máxima	16.9
25691	7	Sololá	701	Sololá	3	Barraneche	5	Mayo	2023-05-14T00:00:00	2024-11-06T19:00:00	3	Temperatura mínima	16.2
25692	7	Sololá	701	Sololá	3	Barraneche	5	Mayo	2023-05-14T00:00:00	2024-11-06T19:00:00	5	Humedad	64
25693	7	Sololá	701	Sololá	3	Barraneche	5	Mayo	2023-05-14T00:00:00	2024-11-06T19:00:00	6	Velocidad del viento	6.4
25694	7	Sololá	701	Sololá	3	Barraneche	5	Mayo	2023-05-14T00:00:00	2024-11-06T19:00:00	7	Dirección del viento	6.44
25695	7	Sololá	701	Sololá	3	Barraneche	5	Mayo	2023-05-14T00:00:00	2024-11-06T19:00:00	1	Precipitación	0.2
25696	7	Sololá	701	Sololá	3	Barraneche	5	Mayo	2023-05-14T00:00:00	2024-11-06T19:00:00	8	Radiación solar	0
25697	7	Sololá	701	Sololá	3	Barraneche	5	Mayo	2023-05-14T00:00:00	2024-11-06T20:00:00	2	Temperatura media	14.1
25698	7	Sololá	701	Sololá	3	Barraneche	5	Mayo	2023-05-14T00:00:00	2024-11-06T20:00:00	4	Temperatura máxima	16.2
25699	7	Sololá	701	Sololá	3	Barraneche	5	Mayo	2023-05-14T00:00:00	2024-11-06T20:00:00	3	Temperatura mínima	14.1
25700	7	Sololá	701	Sololá	3	Barraneche	5	Mayo	2023-05-14T00:00:00	2024-11-06T20:00:00	5	Humedad	73
25701	7	Sololá	701	Sololá	3	Barraneche	5	Mayo	2023-05-14T00:00:00	2024-11-06T20:00:00	6	Velocidad del viento	4.8
25702	7	Sololá	701	Sololá	3	Barraneche	5	Mayo	2023-05-14T00:00:00	2024-11-06T20:00:00	7	Dirección del viento	4.83
25703	7	Sololá	701	Sololá	3	Barraneche	5	Mayo	2023-05-14T00:00:00	2024-11-06T20:00:00	1	Precipitación	0.6
25704	7	Sololá	701	Sololá	3	Barraneche	5	Mayo	2023-05-14T00:00:00	2024-11-06T20:00:00	8	Radiación solar	0
25705	7	Sololá	701	Sololá	3	Barraneche	5	Mayo	2023-05-14T00:00:00	2024-11-06T21:00:00	2	Temperatura media	13.7
25706	7	Sololá	701	Sololá	3	Barraneche	5	Mayo	2023-05-14T00:00:00	2024-11-06T21:00:00	4	Temperatura máxima	14.1
25707	7	Sololá	701	Sololá	3	Barraneche	5	Mayo	2023-05-14T00:00:00	2024-11-06T21:00:00	3	Temperatura mínima	13.7
25708	7	Sololá	701	Sololá	3	Barraneche	5	Mayo	2023-05-14T00:00:00	2024-11-06T21:00:00	5	Humedad	70
25709	7	Sololá	701	Sololá	3	Barraneche	5	Mayo	2023-05-14T00:00:00	2024-11-06T21:00:00	6	Velocidad del viento	8
25710	7	Sololá	701	Sololá	3	Barraneche	5	Mayo	2023-05-14T00:00:00	2024-11-06T21:00:00	7	Dirección del viento	8.05
25711	7	Sololá	701	Sololá	3	Barraneche	5	Mayo	2023-05-14T00:00:00	2024-11-06T21:00:00	1	Precipitación	0
25712	7	Sololá	701	Sololá	3	Barraneche	5	Mayo	2023-05-14T00:00:00	2024-11-06T21:00:00	8	Radiación solar	0
25713	7	Sololá	701	Sololá	3	Barraneche	5	Mayo	2023-05-14T00:00:00	2024-11-06T22:00:00	2	Temperatura media	13.5
25714	7	Sololá	701	Sololá	3	Barraneche	5	Mayo	2023-05-14T00:00:00	2024-11-06T22:00:00	4	Temperatura máxima	13.7
25715	7	Sololá	701	Sololá	3	Barraneche	5	Mayo	2023-05-14T00:00:00	2024-11-06T22:00:00	3	Temperatura mínima	12.8
25716	7	Sololá	701	Sololá	3	Barraneche	5	Mayo	2023-05-14T00:00:00	2024-11-06T22:00:00	5	Humedad	69
25717	7	Sololá	701	Sololá	3	Barraneche	5	Mayo	2023-05-14T00:00:00	2024-11-06T22:00:00	6	Velocidad del viento	6.4
25718	7	Sololá	701	Sololá	3	Barraneche	5	Mayo	2023-05-14T00:00:00	2024-11-06T22:00:00	7	Dirección del viento	6.44
25719	7	Sololá	701	Sololá	3	Barraneche	5	Mayo	2023-05-14T00:00:00	2024-11-06T22:00:00	1	Precipitación	0
25720	7	Sololá	701	Sololá	3	Barraneche	5	Mayo	2023-05-14T00:00:00	2024-11-06T22:00:00	8	Radiación solar	0
25721	7	Sololá	701	Sololá	3	Barraneche	5	Mayo	2023-05-14T00:00:00	2024-11-06T23:00:00	2	Temperatura media	12.3
25722	7	Sololá	701	Sololá	3	Barraneche	5	Mayo	2023-05-14T00:00:00	2024-11-06T23:00:00	4	Temperatura máxima	13.7
25723	7	Sololá	701	Sololá	3	Barraneche	5	Mayo	2023-05-14T00:00:00	2024-11-06T23:00:00	3	Temperatura mínima	12.1
25724	7	Sololá	701	Sololá	3	Barraneche	5	Mayo	2023-05-14T00:00:00	2024-11-06T23:00:00	5	Humedad	72
25725	7	Sololá	701	Sololá	3	Barraneche	5	Mayo	2023-05-14T00:00:00	2024-11-06T23:00:00	6	Velocidad del viento	3.2
25726	7	Sololá	701	Sololá	3	Barraneche	5	Mayo	2023-05-14T00:00:00	2024-11-06T23:00:00	7	Dirección del viento	3.22
25727	7	Sololá	701	Sololá	3	Barraneche	5	Mayo	2023-05-14T00:00:00	2024-11-06T23:00:00	1	Precipitación	0
25728	7	Sololá	701	Sololá	3	Barraneche	5	Mayo	2023-05-14T00:00:00	2024-11-06T23:00:00	8	Radiación solar	0
25729	7	Sololá	701	Sololá	3	Barraneche	5	Mayo	2023-05-15T00:00:00	2024-11-06T00:00:00	2	Temperatura media	13.3
25730	7	Sololá	701	Sololá	3	Barraneche	5	Mayo	2023-05-15T00:00:00	2024-11-06T00:00:00	4	Temperatura máxima	13.3
25731	7	Sololá	701	Sololá	3	Barraneche	5	Mayo	2023-05-15T00:00:00	2024-11-06T00:00:00	3	Temperatura mínima	12.2
25732	7	Sololá	701	Sololá	3	Barraneche	5	Mayo	2023-05-15T00:00:00	2024-11-06T00:00:00	5	Humedad	65
25733	7	Sololá	701	Sololá	3	Barraneche	5	Mayo	2023-05-15T00:00:00	2024-11-06T00:00:00	6	Velocidad del viento	8
25734	7	Sololá	701	Sololá	3	Barraneche	5	Mayo	2023-05-15T00:00:00	2024-11-06T00:00:00	7	Dirección del viento	8.05
25735	7	Sololá	701	Sololá	3	Barraneche	5	Mayo	2023-05-15T00:00:00	2024-11-06T00:00:00	1	Precipitación	0
25736	7	Sololá	701	Sololá	3	Barraneche	5	Mayo	2023-05-15T00:00:00	2024-11-06T00:00:00	8	Radiación solar	0
25737	7	Sololá	701	Sololá	3	Barraneche	5	Mayo	2023-05-15T00:00:00	2024-11-06T01:00:00	2	Temperatura media	14.2
25738	7	Sololá	701	Sololá	3	Barraneche	5	Mayo	2023-05-15T00:00:00	2024-11-06T01:00:00	4	Temperatura máxima	14.3
25739	7	Sololá	701	Sololá	3	Barraneche	5	Mayo	2023-05-15T00:00:00	2024-11-06T01:00:00	3	Temperatura mínima	13.4
25740	7	Sololá	701	Sololá	3	Barraneche	5	Mayo	2023-05-15T00:00:00	2024-11-06T01:00:00	5	Humedad	64
25741	7	Sololá	701	Sololá	3	Barraneche	5	Mayo	2023-05-15T00:00:00	2024-11-06T01:00:00	6	Velocidad del viento	9.7
25742	7	Sololá	701	Sololá	3	Barraneche	5	Mayo	2023-05-15T00:00:00	2024-11-06T01:00:00	7	Dirección del viento	9.66
25743	7	Sololá	701	Sololá	3	Barraneche	5	Mayo	2023-05-15T00:00:00	2024-11-06T01:00:00	1	Precipitación	0
25744	7	Sololá	701	Sololá	3	Barraneche	5	Mayo	2023-05-15T00:00:00	2024-11-06T01:00:00	8	Radiación solar	0
25745	7	Sololá	701	Sololá	3	Barraneche	5	Mayo	2023-05-15T00:00:00	2024-11-06T02:00:00	2	Temperatura media	12.2
25746	7	Sololá	701	Sololá	3	Barraneche	5	Mayo	2023-05-15T00:00:00	2024-11-06T02:00:00	4	Temperatura máxima	14.2
25747	7	Sololá	701	Sololá	3	Barraneche	5	Mayo	2023-05-15T00:00:00	2024-11-06T02:00:00	3	Temperatura mínima	12.2
25748	7	Sololá	701	Sololá	3	Barraneche	5	Mayo	2023-05-15T00:00:00	2024-11-06T02:00:00	5	Humedad	69
25749	7	Sololá	701	Sololá	3	Barraneche	5	Mayo	2023-05-15T00:00:00	2024-11-06T02:00:00	6	Velocidad del viento	6.4
25750	7	Sololá	701	Sololá	3	Barraneche	5	Mayo	2023-05-15T00:00:00	2024-11-06T02:00:00	7	Dirección del viento	6.44
25751	7	Sololá	701	Sololá	3	Barraneche	5	Mayo	2023-05-15T00:00:00	2024-11-06T02:00:00	1	Precipitación	0
25752	7	Sololá	701	Sololá	3	Barraneche	5	Mayo	2023-05-15T00:00:00	2024-11-06T02:00:00	8	Radiación solar	0
25753	7	Sololá	701	Sololá	3	Barraneche	5	Mayo	2023-05-15T00:00:00	2024-11-06T03:00:00	2	Temperatura media	12.3
25754	7	Sololá	701	Sololá	3	Barraneche	5	Mayo	2023-05-15T00:00:00	2024-11-06T03:00:00	4	Temperatura máxima	12.3
25755	7	Sololá	701	Sololá	3	Barraneche	5	Mayo	2023-05-15T00:00:00	2024-11-06T03:00:00	3	Temperatura mínima	11.8
25756	7	Sololá	701	Sololá	3	Barraneche	5	Mayo	2023-05-15T00:00:00	2024-11-06T03:00:00	5	Humedad	68
25757	7	Sololá	701	Sololá	3	Barraneche	5	Mayo	2023-05-15T00:00:00	2024-11-06T03:00:00	6	Velocidad del viento	8
25758	7	Sololá	701	Sololá	3	Barraneche	5	Mayo	2023-05-15T00:00:00	2024-11-06T03:00:00	7	Dirección del viento	8.05
25759	7	Sololá	701	Sololá	3	Barraneche	5	Mayo	2023-05-15T00:00:00	2024-11-06T03:00:00	1	Precipitación	0
25760	7	Sololá	701	Sololá	3	Barraneche	5	Mayo	2023-05-15T00:00:00	2024-11-06T03:00:00	8	Radiación solar	0
25761	7	Sololá	701	Sololá	3	Barraneche	5	Mayo	2023-05-15T00:00:00	2024-11-06T04:00:00	2	Temperatura media	10.9
25762	7	Sololá	701	Sololá	3	Barraneche	5	Mayo	2023-05-15T00:00:00	2024-11-06T04:00:00	4	Temperatura máxima	12.3
25763	7	Sololá	701	Sololá	3	Barraneche	5	Mayo	2023-05-15T00:00:00	2024-11-06T04:00:00	3	Temperatura mínima	10.9
25764	7	Sololá	701	Sololá	3	Barraneche	5	Mayo	2023-05-15T00:00:00	2024-11-06T04:00:00	5	Humedad	71
25765	7	Sololá	701	Sololá	3	Barraneche	5	Mayo	2023-05-15T00:00:00	2024-11-06T04:00:00	6	Velocidad del viento	4.8
25766	7	Sololá	701	Sololá	3	Barraneche	5	Mayo	2023-05-15T00:00:00	2024-11-06T04:00:00	7	Dirección del viento	4.83
25767	7	Sololá	701	Sololá	3	Barraneche	5	Mayo	2023-05-15T00:00:00	2024-11-06T04:00:00	1	Precipitación	0
25768	7	Sololá	701	Sololá	3	Barraneche	5	Mayo	2023-05-15T00:00:00	2024-11-06T04:00:00	8	Radiación solar	0
25769	7	Sololá	701	Sololá	3	Barraneche	5	Mayo	2023-05-15T00:00:00	2024-11-06T05:00:00	2	Temperatura media	11.6
25770	7	Sololá	701	Sololá	3	Barraneche	5	Mayo	2023-05-15T00:00:00	2024-11-06T05:00:00	4	Temperatura máxima	11.9
25771	7	Sololá	701	Sololá	3	Barraneche	5	Mayo	2023-05-15T00:00:00	2024-11-06T05:00:00	3	Temperatura mínima	10.9
25772	7	Sololá	701	Sololá	3	Barraneche	5	Mayo	2023-05-15T00:00:00	2024-11-06T05:00:00	5	Humedad	71
25773	7	Sololá	701	Sololá	3	Barraneche	5	Mayo	2023-05-15T00:00:00	2024-11-06T05:00:00	6	Velocidad del viento	4.8
25774	7	Sololá	701	Sololá	3	Barraneche	5	Mayo	2023-05-15T00:00:00	2024-11-06T05:00:00	7	Dirección del viento	4.83
25775	7	Sololá	701	Sololá	3	Barraneche	5	Mayo	2023-05-15T00:00:00	2024-11-06T05:00:00	1	Precipitación	0
25776	7	Sololá	701	Sololá	3	Barraneche	5	Mayo	2023-05-15T00:00:00	2024-11-06T05:00:00	8	Radiación solar	0
25777	7	Sololá	701	Sololá	3	Barraneche	5	Mayo	2023-05-15T00:00:00	2024-11-06T06:00:00	2	Temperatura media	11.8
25778	7	Sololá	701	Sololá	3	Barraneche	5	Mayo	2023-05-15T00:00:00	2024-11-06T06:00:00	4	Temperatura máxima	11.8
25779	7	Sololá	701	Sololá	3	Barraneche	5	Mayo	2023-05-15T00:00:00	2024-11-06T06:00:00	3	Temperatura mínima	11.2
25780	7	Sololá	701	Sololá	3	Barraneche	5	Mayo	2023-05-15T00:00:00	2024-11-06T06:00:00	5	Humedad	70
25781	7	Sololá	701	Sololá	3	Barraneche	5	Mayo	2023-05-15T00:00:00	2024-11-06T06:00:00	6	Velocidad del viento	6.4
25782	7	Sololá	701	Sololá	3	Barraneche	5	Mayo	2023-05-15T00:00:00	2024-11-06T06:00:00	7	Dirección del viento	6.44
25783	7	Sololá	701	Sololá	3	Barraneche	5	Mayo	2023-05-15T00:00:00	2024-11-06T06:00:00	1	Precipitación	0
25784	7	Sololá	701	Sololá	3	Barraneche	5	Mayo	2023-05-15T00:00:00	2024-11-06T06:00:00	8	Radiación solar	4
25785	7	Sololá	701	Sololá	3	Barraneche	5	Mayo	2023-05-15T00:00:00	2024-11-06T07:00:00	2	Temperatura media	13.2
25786	7	Sololá	701	Sololá	3	Barraneche	5	Mayo	2023-05-15T00:00:00	2024-11-06T07:00:00	4	Temperatura máxima	13.2
25787	7	Sololá	701	Sololá	3	Barraneche	5	Mayo	2023-05-15T00:00:00	2024-11-06T07:00:00	3	Temperatura mínima	11.8
25788	7	Sololá	701	Sololá	3	Barraneche	5	Mayo	2023-05-15T00:00:00	2024-11-06T07:00:00	5	Humedad	69
25789	7	Sololá	701	Sololá	3	Barraneche	5	Mayo	2023-05-15T00:00:00	2024-11-06T07:00:00	6	Velocidad del viento	4.8
25790	7	Sololá	701	Sololá	3	Barraneche	5	Mayo	2023-05-15T00:00:00	2024-11-06T07:00:00	7	Dirección del viento	4.83
25791	7	Sololá	701	Sololá	3	Barraneche	5	Mayo	2023-05-15T00:00:00	2024-11-06T07:00:00	1	Precipitación	0
25792	7	Sololá	701	Sololá	3	Barraneche	5	Mayo	2023-05-15T00:00:00	2024-11-06T07:00:00	8	Radiación solar	66
25793	7	Sololá	701	Sololá	3	Barraneche	5	Mayo	2023-05-15T00:00:00	2024-11-06T08:00:00	2	Temperatura media	14.9
25794	7	Sololá	701	Sololá	3	Barraneche	5	Mayo	2023-05-15T00:00:00	2024-11-06T08:00:00	4	Temperatura máxima	14.9
25795	7	Sololá	701	Sololá	3	Barraneche	5	Mayo	2023-05-15T00:00:00	2024-11-06T08:00:00	3	Temperatura mínima	13.2
25796	7	Sololá	701	Sololá	3	Barraneche	5	Mayo	2023-05-15T00:00:00	2024-11-06T08:00:00	5	Humedad	63
25797	7	Sololá	701	Sololá	3	Barraneche	5	Mayo	2023-05-15T00:00:00	2024-11-06T08:00:00	6	Velocidad del viento	1.6
25798	7	Sololá	701	Sololá	3	Barraneche	5	Mayo	2023-05-15T00:00:00	2024-11-06T08:00:00	7	Dirección del viento	1.61
25799	7	Sololá	701	Sololá	3	Barraneche	5	Mayo	2023-05-15T00:00:00	2024-11-06T08:00:00	1	Precipitación	0
25800	7	Sololá	701	Sololá	3	Barraneche	5	Mayo	2023-05-15T00:00:00	2024-11-06T08:00:00	8	Radiación solar	218
25801	7	Sololá	701	Sololá	3	Barraneche	5	Mayo	2023-05-15T00:00:00	2024-11-06T09:00:00	2	Temperatura media	15.9
25802	7	Sololá	701	Sololá	3	Barraneche	5	Mayo	2023-05-15T00:00:00	2024-11-06T09:00:00	4	Temperatura máxima	16.8
25803	7	Sololá	701	Sololá	3	Barraneche	5	Mayo	2023-05-15T00:00:00	2024-11-06T09:00:00	3	Temperatura mínima	14.9
25804	7	Sololá	701	Sololá	3	Barraneche	5	Mayo	2023-05-15T00:00:00	2024-11-06T09:00:00	5	Humedad	62
25805	7	Sololá	701	Sololá	3	Barraneche	5	Mayo	2023-05-15T00:00:00	2024-11-06T09:00:00	6	Velocidad del viento	4.8
25806	7	Sololá	701	Sololá	3	Barraneche	5	Mayo	2023-05-15T00:00:00	2024-11-06T09:00:00	7	Dirección del viento	4.83
25807	7	Sololá	701	Sololá	3	Barraneche	5	Mayo	2023-05-15T00:00:00	2024-11-06T09:00:00	1	Precipitación	0
25808	7	Sololá	701	Sololá	3	Barraneche	5	Mayo	2023-05-15T00:00:00	2024-11-06T09:00:00	8	Radiación solar	437
25809	7	Sololá	701	Sololá	3	Barraneche	5	Mayo	2023-05-15T00:00:00	2024-11-06T10:00:00	2	Temperatura media	15.4
25810	7	Sololá	701	Sololá	3	Barraneche	5	Mayo	2023-05-15T00:00:00	2024-11-06T10:00:00	4	Temperatura máxima	16.2
25811	7	Sololá	701	Sololá	3	Barraneche	5	Mayo	2023-05-15T00:00:00	2024-11-06T10:00:00	3	Temperatura mínima	15.3
25812	7	Sololá	701	Sololá	3	Barraneche	5	Mayo	2023-05-15T00:00:00	2024-11-06T10:00:00	5	Humedad	66
25813	7	Sololá	701	Sololá	3	Barraneche	5	Mayo	2023-05-15T00:00:00	2024-11-06T10:00:00	6	Velocidad del viento	9.7
25814	7	Sololá	701	Sololá	3	Barraneche	5	Mayo	2023-05-15T00:00:00	2024-11-06T10:00:00	7	Dirección del viento	9.66
25815	7	Sololá	701	Sololá	3	Barraneche	5	Mayo	2023-05-15T00:00:00	2024-11-06T10:00:00	1	Precipitación	0
25816	7	Sololá	701	Sololá	3	Barraneche	5	Mayo	2023-05-15T00:00:00	2024-11-06T10:00:00	8	Radiación solar	357
25817	7	Sololá	701	Sololá	3	Barraneche	5	Mayo	2023-05-15T00:00:00	2024-11-06T11:00:00	2	Temperatura media	16
25818	7	Sololá	701	Sololá	3	Barraneche	5	Mayo	2023-05-15T00:00:00	2024-11-06T11:00:00	4	Temperatura máxima	16.4
25819	7	Sololá	701	Sololá	3	Barraneche	5	Mayo	2023-05-15T00:00:00	2024-11-06T11:00:00	3	Temperatura mínima	15.3
25820	7	Sololá	701	Sololá	3	Barraneche	5	Mayo	2023-05-15T00:00:00	2024-11-06T11:00:00	5	Humedad	65
25821	7	Sololá	701	Sololá	3	Barraneche	5	Mayo	2023-05-15T00:00:00	2024-11-06T11:00:00	6	Velocidad del viento	8
25822	7	Sololá	701	Sololá	3	Barraneche	5	Mayo	2023-05-15T00:00:00	2024-11-06T11:00:00	7	Dirección del viento	8.05
25823	7	Sololá	701	Sololá	3	Barraneche	5	Mayo	2023-05-15T00:00:00	2024-11-06T11:00:00	1	Precipitación	0
25824	7	Sololá	701	Sololá	3	Barraneche	5	Mayo	2023-05-15T00:00:00	2024-11-06T11:00:00	8	Radiación solar	329
25825	7	Sololá	701	Sololá	3	Barraneche	5	Mayo	2023-05-15T00:00:00	2024-11-06T12:00:00	2	Temperatura media	16.3
25826	7	Sololá	701	Sololá	3	Barraneche	5	Mayo	2023-05-15T00:00:00	2024-11-06T12:00:00	4	Temperatura máxima	16.3
25827	7	Sololá	701	Sololá	3	Barraneche	5	Mayo	2023-05-15T00:00:00	2024-11-06T12:00:00	3	Temperatura mínima	15.6
25828	7	Sololá	701	Sololá	3	Barraneche	5	Mayo	2023-05-15T00:00:00	2024-11-06T12:00:00	5	Humedad	63
25829	7	Sololá	701	Sololá	3	Barraneche	5	Mayo	2023-05-15T00:00:00	2024-11-06T12:00:00	6	Velocidad del viento	8
25830	7	Sololá	701	Sololá	3	Barraneche	5	Mayo	2023-05-15T00:00:00	2024-11-06T12:00:00	7	Dirección del viento	8.05
25831	7	Sololá	701	Sololá	3	Barraneche	5	Mayo	2023-05-15T00:00:00	2024-11-06T12:00:00	1	Precipitación	0
25832	7	Sololá	701	Sololá	3	Barraneche	5	Mayo	2023-05-15T00:00:00	2024-11-06T12:00:00	8	Radiación solar	276
25833	7	Sololá	701	Sololá	3	Barraneche	5	Mayo	2023-05-15T00:00:00	2024-11-06T13:00:00	2	Temperatura media	17.3
25834	7	Sololá	701	Sololá	3	Barraneche	5	Mayo	2023-05-15T00:00:00	2024-11-06T13:00:00	4	Temperatura máxima	17.7
25835	7	Sololá	701	Sololá	3	Barraneche	5	Mayo	2023-05-15T00:00:00	2024-11-06T13:00:00	3	Temperatura mínima	16.3
25836	7	Sololá	701	Sololá	3	Barraneche	5	Mayo	2023-05-15T00:00:00	2024-11-06T13:00:00	5	Humedad	64
25837	7	Sololá	701	Sololá	3	Barraneche	5	Mayo	2023-05-15T00:00:00	2024-11-06T13:00:00	6	Velocidad del viento	4.8
25838	7	Sololá	701	Sololá	3	Barraneche	5	Mayo	2023-05-15T00:00:00	2024-11-06T13:00:00	7	Dirección del viento	4.83
25839	7	Sololá	701	Sololá	3	Barraneche	5	Mayo	2023-05-15T00:00:00	2024-11-06T13:00:00	1	Precipitación	0
25840	7	Sololá	701	Sololá	3	Barraneche	5	Mayo	2023-05-15T00:00:00	2024-11-06T13:00:00	8	Radiación solar	455
25841	7	Sololá	701	Sololá	3	Barraneche	5	Mayo	2023-05-15T00:00:00	2024-11-06T14:00:00	2	Temperatura media	16.8
25842	7	Sololá	701	Sololá	3	Barraneche	5	Mayo	2023-05-15T00:00:00	2024-11-06T14:00:00	4	Temperatura máxima	17.3
25843	7	Sololá	701	Sololá	3	Barraneche	5	Mayo	2023-05-15T00:00:00	2024-11-06T14:00:00	3	Temperatura mínima	16.8
25844	7	Sololá	701	Sololá	3	Barraneche	5	Mayo	2023-05-15T00:00:00	2024-11-06T14:00:00	5	Humedad	66
25845	7	Sololá	701	Sololá	3	Barraneche	5	Mayo	2023-05-15T00:00:00	2024-11-06T14:00:00	6	Velocidad del viento	8
25846	7	Sololá	701	Sololá	3	Barraneche	5	Mayo	2023-05-15T00:00:00	2024-11-06T14:00:00	7	Dirección del viento	8.05
25847	7	Sololá	701	Sololá	3	Barraneche	5	Mayo	2023-05-15T00:00:00	2024-11-06T14:00:00	1	Precipitación	0
25848	7	Sololá	701	Sololá	3	Barraneche	5	Mayo	2023-05-15T00:00:00	2024-11-06T14:00:00	8	Radiación solar	276
25849	7	Sololá	701	Sololá	3	Barraneche	5	Mayo	2023-05-15T00:00:00	2024-11-06T15:00:00	2	Temperatura media	16.5
25850	7	Sololá	701	Sololá	3	Barraneche	5	Mayo	2023-05-15T00:00:00	2024-11-06T15:00:00	4	Temperatura máxima	17
25851	7	Sololá	701	Sololá	3	Barraneche	5	Mayo	2023-05-15T00:00:00	2024-11-06T15:00:00	3	Temperatura mínima	16.3
25852	7	Sololá	701	Sololá	3	Barraneche	5	Mayo	2023-05-15T00:00:00	2024-11-06T15:00:00	5	Humedad	67
25853	7	Sololá	701	Sololá	3	Barraneche	5	Mayo	2023-05-15T00:00:00	2024-11-06T15:00:00	6	Velocidad del viento	8
25854	7	Sololá	701	Sololá	3	Barraneche	5	Mayo	2023-05-15T00:00:00	2024-11-06T15:00:00	7	Dirección del viento	8.05
25855	7	Sololá	701	Sololá	3	Barraneche	5	Mayo	2023-05-15T00:00:00	2024-11-06T15:00:00	1	Precipitación	0
25856	7	Sololá	701	Sololá	3	Barraneche	5	Mayo	2023-05-15T00:00:00	2024-11-06T15:00:00	8	Radiación solar	233
25857	7	Sololá	701	Sololá	3	Barraneche	5	Mayo	2023-05-15T00:00:00	2024-11-06T16:00:00	2	Temperatura media	15.6
25858	7	Sololá	701	Sololá	3	Barraneche	5	Mayo	2023-05-15T00:00:00	2024-11-06T16:00:00	4	Temperatura máxima	16.6
25859	7	Sololá	701	Sololá	3	Barraneche	5	Mayo	2023-05-15T00:00:00	2024-11-06T16:00:00	3	Temperatura mínima	15.6
25860	7	Sololá	701	Sololá	3	Barraneche	5	Mayo	2023-05-15T00:00:00	2024-11-06T16:00:00	5	Humedad	72
25861	7	Sololá	701	Sololá	3	Barraneche	5	Mayo	2023-05-15T00:00:00	2024-11-06T16:00:00	6	Velocidad del viento	6.4
25862	7	Sololá	701	Sololá	3	Barraneche	5	Mayo	2023-05-15T00:00:00	2024-11-06T16:00:00	7	Dirección del viento	6.44
25863	7	Sololá	701	Sololá	3	Barraneche	5	Mayo	2023-05-15T00:00:00	2024-11-06T16:00:00	1	Precipitación	1.6
25864	7	Sololá	701	Sololá	3	Barraneche	5	Mayo	2023-05-15T00:00:00	2024-11-06T16:00:00	8	Radiación solar	127
25865	7	Sololá	701	Sololá	3	Barraneche	5	Mayo	2023-05-15T00:00:00	2024-11-06T17:00:00	2	Temperatura media	15.2
25866	7	Sololá	701	Sololá	3	Barraneche	5	Mayo	2023-05-15T00:00:00	2024-11-06T17:00:00	4	Temperatura máxima	15.6
25867	7	Sololá	701	Sololá	3	Barraneche	5	Mayo	2023-05-15T00:00:00	2024-11-06T17:00:00	3	Temperatura mínima	15.2
25868	7	Sololá	701	Sololá	3	Barraneche	5	Mayo	2023-05-15T00:00:00	2024-11-06T17:00:00	5	Humedad	75
25869	7	Sololá	701	Sololá	3	Barraneche	5	Mayo	2023-05-15T00:00:00	2024-11-06T17:00:00	6	Velocidad del viento	1.6
25870	7	Sololá	701	Sololá	3	Barraneche	5	Mayo	2023-05-15T00:00:00	2024-11-06T17:00:00	7	Dirección del viento	1.61
25871	7	Sololá	701	Sololá	3	Barraneche	5	Mayo	2023-05-15T00:00:00	2024-11-06T17:00:00	1	Precipitación	1.6
25872	7	Sololá	701	Sololá	3	Barraneche	5	Mayo	2023-05-15T00:00:00	2024-11-06T17:00:00	8	Radiación solar	17
25873	7	Sololá	701	Sololá	3	Barraneche	5	Mayo	2023-05-15T00:00:00	2024-11-06T18:00:00	2	Temperatura media	13.2
25874	7	Sololá	701	Sololá	3	Barraneche	5	Mayo	2023-05-15T00:00:00	2024-11-06T18:00:00	4	Temperatura máxima	15.2
25875	7	Sololá	701	Sololá	3	Barraneche	5	Mayo	2023-05-15T00:00:00	2024-11-06T18:00:00	3	Temperatura mínima	13.2
25876	7	Sololá	701	Sololá	3	Barraneche	5	Mayo	2023-05-15T00:00:00	2024-11-06T18:00:00	5	Humedad	70
25877	7	Sololá	701	Sololá	3	Barraneche	5	Mayo	2023-05-15T00:00:00	2024-11-06T18:00:00	6	Velocidad del viento	11.3
25878	7	Sololá	701	Sololá	3	Barraneche	5	Mayo	2023-05-15T00:00:00	2024-11-06T18:00:00	7	Dirección del viento	11.27
25879	7	Sololá	701	Sololá	3	Barraneche	5	Mayo	2023-05-15T00:00:00	2024-11-06T18:00:00	1	Precipitación	1.6
25880	7	Sololá	701	Sololá	3	Barraneche	5	Mayo	2023-05-15T00:00:00	2024-11-06T18:00:00	8	Radiación solar	7
25881	7	Sololá	701	Sololá	3	Barraneche	5	Mayo	2023-05-15T00:00:00	2024-11-06T19:00:00	2	Temperatura media	12.4
25882	7	Sololá	701	Sololá	3	Barraneche	5	Mayo	2023-05-15T00:00:00	2024-11-06T19:00:00	4	Temperatura máxima	13.2
25883	7	Sololá	701	Sololá	3	Barraneche	5	Mayo	2023-05-15T00:00:00	2024-11-06T19:00:00	3	Temperatura mínima	12.4
25884	7	Sololá	701	Sololá	3	Barraneche	5	Mayo	2023-05-15T00:00:00	2024-11-06T19:00:00	5	Humedad	73
25885	7	Sololá	701	Sololá	3	Barraneche	5	Mayo	2023-05-15T00:00:00	2024-11-06T19:00:00	6	Velocidad del viento	3.2
25886	7	Sololá	701	Sololá	3	Barraneche	5	Mayo	2023-05-15T00:00:00	2024-11-06T19:00:00	7	Dirección del viento	3.22
25887	7	Sololá	701	Sololá	3	Barraneche	5	Mayo	2023-05-15T00:00:00	2024-11-06T19:00:00	1	Precipitación	0.2
25888	7	Sololá	701	Sololá	3	Barraneche	5	Mayo	2023-05-15T00:00:00	2024-11-06T19:00:00	8	Radiación solar	0
25889	7	Sololá	701	Sololá	3	Barraneche	5	Mayo	2023-05-15T00:00:00	2024-11-06T20:00:00	2	Temperatura media	12.1
25890	7	Sololá	701	Sololá	3	Barraneche	5	Mayo	2023-05-15T00:00:00	2024-11-06T20:00:00	4	Temperatura máxima	12.4
25891	7	Sololá	701	Sololá	3	Barraneche	5	Mayo	2023-05-15T00:00:00	2024-11-06T20:00:00	3	Temperatura mínima	11.9
25892	7	Sololá	701	Sololá	3	Barraneche	5	Mayo	2023-05-15T00:00:00	2024-11-06T20:00:00	5	Humedad	70
25893	7	Sololá	701	Sololá	3	Barraneche	5	Mayo	2023-05-15T00:00:00	2024-11-06T20:00:00	6	Velocidad del viento	4.8
25894	7	Sololá	701	Sololá	3	Barraneche	5	Mayo	2023-05-15T00:00:00	2024-11-06T20:00:00	7	Dirección del viento	4.83
25895	7	Sololá	701	Sololá	3	Barraneche	5	Mayo	2023-05-15T00:00:00	2024-11-06T20:00:00	1	Precipitación	0
25896	7	Sololá	701	Sololá	3	Barraneche	5	Mayo	2023-05-15T00:00:00	2024-11-06T20:00:00	8	Radiación solar	0
25897	7	Sololá	701	Sololá	3	Barraneche	5	Mayo	2023-05-15T00:00:00	2024-11-06T21:00:00	2	Temperatura media	11.6
25898	7	Sololá	701	Sololá	3	Barraneche	5	Mayo	2023-05-15T00:00:00	2024-11-06T21:00:00	4	Temperatura máxima	12.5
25899	7	Sololá	701	Sololá	3	Barraneche	5	Mayo	2023-05-15T00:00:00	2024-11-06T21:00:00	3	Temperatura mínima	11.4
25900	7	Sololá	701	Sololá	3	Barraneche	5	Mayo	2023-05-15T00:00:00	2024-11-06T21:00:00	5	Humedad	69
25901	7	Sololá	701	Sololá	3	Barraneche	5	Mayo	2023-05-15T00:00:00	2024-11-06T21:00:00	6	Velocidad del viento	6.4
25902	7	Sololá	701	Sololá	3	Barraneche	5	Mayo	2023-05-15T00:00:00	2024-11-06T21:00:00	7	Dirección del viento	6.44
25903	7	Sololá	701	Sololá	3	Barraneche	5	Mayo	2023-05-15T00:00:00	2024-11-06T21:00:00	1	Precipitación	0
25904	7	Sololá	701	Sololá	3	Barraneche	5	Mayo	2023-05-15T00:00:00	2024-11-06T21:00:00	8	Radiación solar	0
25905	7	Sololá	701	Sololá	3	Barraneche	5	Mayo	2023-05-15T00:00:00	2024-11-06T22:00:00	2	Temperatura media	11.4
25906	7	Sololá	701	Sololá	3	Barraneche	5	Mayo	2023-05-15T00:00:00	2024-11-06T22:00:00	4	Temperatura máxima	13.1
25907	7	Sololá	701	Sololá	3	Barraneche	5	Mayo	2023-05-15T00:00:00	2024-11-06T22:00:00	3	Temperatura mínima	11.1
25908	7	Sololá	701	Sololá	3	Barraneche	5	Mayo	2023-05-15T00:00:00	2024-11-06T22:00:00	5	Humedad	68
25909	7	Sololá	701	Sololá	3	Barraneche	5	Mayo	2023-05-15T00:00:00	2024-11-06T22:00:00	6	Velocidad del viento	6.4
25910	7	Sololá	701	Sololá	3	Barraneche	5	Mayo	2023-05-15T00:00:00	2024-11-06T22:00:00	7	Dirección del viento	6.44
25911	7	Sololá	701	Sololá	3	Barraneche	5	Mayo	2023-05-15T00:00:00	2024-11-06T22:00:00	1	Precipitación	0
25912	7	Sololá	701	Sololá	3	Barraneche	5	Mayo	2023-05-15T00:00:00	2024-11-06T22:00:00	8	Radiación solar	0
25913	7	Sololá	701	Sololá	3	Barraneche	5	Mayo	2023-05-15T00:00:00	2024-11-06T23:00:00	2	Temperatura media	11.6
25914	7	Sololá	701	Sololá	3	Barraneche	5	Mayo	2023-05-15T00:00:00	2024-11-06T23:00:00	4	Temperatura máxima	11.7
25915	7	Sololá	701	Sololá	3	Barraneche	5	Mayo	2023-05-15T00:00:00	2024-11-06T23:00:00	3	Temperatura mínima	10.7
25916	7	Sololá	701	Sololá	3	Barraneche	5	Mayo	2023-05-15T00:00:00	2024-11-06T23:00:00	5	Humedad	65
25917	7	Sololá	701	Sololá	3	Barraneche	5	Mayo	2023-05-15T00:00:00	2024-11-06T23:00:00	6	Velocidad del viento	8
25918	7	Sololá	701	Sololá	3	Barraneche	5	Mayo	2023-05-15T00:00:00	2024-11-06T23:00:00	7	Dirección del viento	8.05
25919	7	Sololá	701	Sololá	3	Barraneche	5	Mayo	2023-05-15T00:00:00	2024-11-06T23:00:00	1	Precipitación	0
25920	7	Sololá	701	Sololá	3	Barraneche	5	Mayo	2023-05-15T00:00:00	2024-11-06T23:00:00	8	Radiación solar	0
25921	7	Sololá	701	Sololá	3	Barraneche	5	Mayo	2023-05-16T00:00:00	2024-11-06T00:00:00	2	Temperatura media	11.1
25922	7	Sololá	701	Sololá	3	Barraneche	5	Mayo	2023-05-16T00:00:00	2024-11-06T00:00:00	4	Temperatura máxima	11.8
25923	7	Sololá	701	Sololá	3	Barraneche	5	Mayo	2023-05-16T00:00:00	2024-11-06T00:00:00	3	Temperatura mínima	10.9
25924	7	Sololá	701	Sololá	3	Barraneche	5	Mayo	2023-05-16T00:00:00	2024-11-06T00:00:00	5	Humedad	67
25925	7	Sololá	701	Sololá	3	Barraneche	5	Mayo	2023-05-16T00:00:00	2024-11-06T00:00:00	6	Velocidad del viento	8
25926	7	Sololá	701	Sololá	3	Barraneche	5	Mayo	2023-05-16T00:00:00	2024-11-06T00:00:00	7	Dirección del viento	8.05
25927	7	Sololá	701	Sololá	3	Barraneche	5	Mayo	2023-05-16T00:00:00	2024-11-06T00:00:00	1	Precipitación	0
25928	7	Sololá	701	Sololá	3	Barraneche	5	Mayo	2023-05-16T00:00:00	2024-11-06T00:00:00	8	Radiación solar	0
25929	7	Sololá	701	Sololá	3	Barraneche	5	Mayo	2023-05-16T00:00:00	2024-11-06T01:00:00	2	Temperatura media	11.1
25930	7	Sololá	701	Sololá	3	Barraneche	5	Mayo	2023-05-16T00:00:00	2024-11-06T01:00:00	4	Temperatura máxima	11.7
25931	7	Sololá	701	Sololá	3	Barraneche	5	Mayo	2023-05-16T00:00:00	2024-11-06T01:00:00	3	Temperatura mínima	11.1
25932	7	Sololá	701	Sololá	3	Barraneche	5	Mayo	2023-05-16T00:00:00	2024-11-06T01:00:00	5	Humedad	67
25933	7	Sololá	701	Sololá	3	Barraneche	5	Mayo	2023-05-16T00:00:00	2024-11-06T01:00:00	6	Velocidad del viento	9.7
25934	7	Sololá	701	Sololá	3	Barraneche	5	Mayo	2023-05-16T00:00:00	2024-11-06T01:00:00	7	Dirección del viento	9.66
25935	7	Sololá	701	Sololá	3	Barraneche	5	Mayo	2023-05-16T00:00:00	2024-11-06T01:00:00	1	Precipitación	0
25936	7	Sololá	701	Sololá	3	Barraneche	5	Mayo	2023-05-16T00:00:00	2024-11-06T01:00:00	8	Radiación solar	0
25937	7	Sololá	701	Sololá	3	Barraneche	5	Mayo	2023-05-16T00:00:00	2024-11-06T02:00:00	2	Temperatura media	11
25938	7	Sololá	701	Sololá	3	Barraneche	5	Mayo	2023-05-16T00:00:00	2024-11-06T02:00:00	4	Temperatura máxima	11.6
25939	7	Sololá	701	Sololá	3	Barraneche	5	Mayo	2023-05-16T00:00:00	2024-11-06T02:00:00	3	Temperatura mínima	10.7
25940	7	Sololá	701	Sololá	3	Barraneche	5	Mayo	2023-05-16T00:00:00	2024-11-06T02:00:00	5	Humedad	67
25941	7	Sololá	701	Sololá	3	Barraneche	5	Mayo	2023-05-16T00:00:00	2024-11-06T02:00:00	6	Velocidad del viento	6.4
25942	7	Sololá	701	Sololá	3	Barraneche	5	Mayo	2023-05-16T00:00:00	2024-11-06T02:00:00	7	Dirección del viento	6.44
25943	7	Sololá	701	Sololá	3	Barraneche	5	Mayo	2023-05-16T00:00:00	2024-11-06T02:00:00	1	Precipitación	0
25944	7	Sololá	701	Sololá	3	Barraneche	5	Mayo	2023-05-16T00:00:00	2024-11-06T02:00:00	8	Radiación solar	0
25945	7	Sololá	701	Sololá	3	Barraneche	5	Mayo	2023-05-16T00:00:00	2024-11-06T03:00:00	2	Temperatura media	10.3
25946	7	Sololá	701	Sololá	3	Barraneche	5	Mayo	2023-05-16T00:00:00	2024-11-06T03:00:00	4	Temperatura máxima	11
25947	7	Sololá	701	Sololá	3	Barraneche	5	Mayo	2023-05-16T00:00:00	2024-11-06T03:00:00	3	Temperatura mínima	10.3
25948	7	Sololá	701	Sololá	3	Barraneche	5	Mayo	2023-05-16T00:00:00	2024-11-06T03:00:00	5	Humedad	69
25949	7	Sololá	701	Sololá	3	Barraneche	5	Mayo	2023-05-16T00:00:00	2024-11-06T03:00:00	6	Velocidad del viento	6.4
25950	7	Sololá	701	Sololá	3	Barraneche	5	Mayo	2023-05-16T00:00:00	2024-11-06T03:00:00	7	Dirección del viento	6.44
25951	7	Sololá	701	Sololá	3	Barraneche	5	Mayo	2023-05-16T00:00:00	2024-11-06T03:00:00	1	Precipitación	0
25952	7	Sololá	701	Sololá	3	Barraneche	5	Mayo	2023-05-16T00:00:00	2024-11-06T03:00:00	8	Radiación solar	0
25953	7	Sololá	701	Sololá	3	Barraneche	5	Mayo	2023-05-16T00:00:00	2024-11-06T04:00:00	2	Temperatura media	10.6
25954	7	Sololá	701	Sololá	3	Barraneche	5	Mayo	2023-05-16T00:00:00	2024-11-06T04:00:00	4	Temperatura máxima	10.6
25955	7	Sololá	701	Sololá	3	Barraneche	5	Mayo	2023-05-16T00:00:00	2024-11-06T04:00:00	3	Temperatura mínima	10
25956	7	Sololá	701	Sololá	3	Barraneche	5	Mayo	2023-05-16T00:00:00	2024-11-06T04:00:00	5	Humedad	68
25957	7	Sololá	701	Sololá	3	Barraneche	5	Mayo	2023-05-16T00:00:00	2024-11-06T04:00:00	6	Velocidad del viento	8
25958	7	Sololá	701	Sololá	3	Barraneche	5	Mayo	2023-05-16T00:00:00	2024-11-06T04:00:00	7	Dirección del viento	8.05
25959	7	Sololá	701	Sololá	3	Barraneche	5	Mayo	2023-05-16T00:00:00	2024-11-06T04:00:00	1	Precipitación	0
25960	7	Sololá	701	Sololá	3	Barraneche	5	Mayo	2023-05-16T00:00:00	2024-11-06T04:00:00	8	Radiación solar	0
25961	7	Sololá	701	Sololá	3	Barraneche	5	Mayo	2023-05-16T00:00:00	2024-11-06T05:00:00	2	Temperatura media	10.7
25962	7	Sololá	701	Sololá	3	Barraneche	5	Mayo	2023-05-16T00:00:00	2024-11-06T05:00:00	4	Temperatura máxima	11.1
25963	7	Sololá	701	Sololá	3	Barraneche	5	Mayo	2023-05-16T00:00:00	2024-11-06T05:00:00	3	Temperatura mínima	10.3
25964	7	Sololá	701	Sololá	3	Barraneche	5	Mayo	2023-05-16T00:00:00	2024-11-06T05:00:00	5	Humedad	68
25965	7	Sololá	701	Sololá	3	Barraneche	5	Mayo	2023-05-16T00:00:00	2024-11-06T05:00:00	6	Velocidad del viento	9.7
25966	7	Sololá	701	Sololá	3	Barraneche	5	Mayo	2023-05-16T00:00:00	2024-11-06T05:00:00	7	Dirección del viento	9.66
25967	7	Sololá	701	Sololá	3	Barraneche	5	Mayo	2023-05-16T00:00:00	2024-11-06T05:00:00	1	Precipitación	0
25968	7	Sololá	701	Sololá	3	Barraneche	5	Mayo	2023-05-16T00:00:00	2024-11-06T05:00:00	8	Radiación solar	0
25969	7	Sololá	701	Sololá	3	Barraneche	5	Mayo	2023-05-16T00:00:00	2024-11-06T06:00:00	2	Temperatura media	10.4
25970	7	Sololá	701	Sololá	3	Barraneche	5	Mayo	2023-05-16T00:00:00	2024-11-06T06:00:00	4	Temperatura máxima	10.7
25971	7	Sololá	701	Sololá	3	Barraneche	5	Mayo	2023-05-16T00:00:00	2024-11-06T06:00:00	3	Temperatura mínima	10.1
25972	7	Sololá	701	Sololá	3	Barraneche	5	Mayo	2023-05-16T00:00:00	2024-11-06T06:00:00	5	Humedad	68
25973	7	Sololá	701	Sololá	3	Barraneche	5	Mayo	2023-05-16T00:00:00	2024-11-06T06:00:00	6	Velocidad del viento	6.4
25974	7	Sololá	701	Sololá	3	Barraneche	5	Mayo	2023-05-16T00:00:00	2024-11-06T06:00:00	7	Dirección del viento	6.44
25975	7	Sololá	701	Sololá	3	Barraneche	5	Mayo	2023-05-16T00:00:00	2024-11-06T06:00:00	1	Precipitación	0
25976	7	Sololá	701	Sololá	3	Barraneche	5	Mayo	2023-05-16T00:00:00	2024-11-06T06:00:00	8	Radiación solar	5
25977	7	Sololá	701	Sololá	3	Barraneche	5	Mayo	2023-05-16T00:00:00	2024-11-06T07:00:00	2	Temperatura media	12.4
25978	7	Sololá	701	Sololá	3	Barraneche	5	Mayo	2023-05-16T00:00:00	2024-11-06T07:00:00	4	Temperatura máxima	12.4
25979	7	Sololá	701	Sololá	3	Barraneche	5	Mayo	2023-05-16T00:00:00	2024-11-06T07:00:00	3	Temperatura mínima	10.3
25980	7	Sololá	701	Sololá	3	Barraneche	5	Mayo	2023-05-16T00:00:00	2024-11-06T07:00:00	5	Humedad	65
25981	7	Sololá	701	Sololá	3	Barraneche	5	Mayo	2023-05-16T00:00:00	2024-11-06T07:00:00	6	Velocidad del viento	6.4
25982	7	Sololá	701	Sololá	3	Barraneche	5	Mayo	2023-05-16T00:00:00	2024-11-06T07:00:00	7	Dirección del viento	6.44
25983	7	Sololá	701	Sololá	3	Barraneche	5	Mayo	2023-05-16T00:00:00	2024-11-06T07:00:00	1	Precipitación	0
25984	7	Sololá	701	Sololá	3	Barraneche	5	Mayo	2023-05-16T00:00:00	2024-11-06T07:00:00	8	Radiación solar	99
25985	7	Sololá	701	Sololá	3	Barraneche	5	Mayo	2023-05-16T00:00:00	2024-11-06T08:00:00	2	Temperatura media	15.9
25986	7	Sololá	701	Sololá	3	Barraneche	5	Mayo	2023-05-16T00:00:00	2024-11-06T08:00:00	4	Temperatura máxima	15.9
25987	7	Sololá	701	Sololá	3	Barraneche	5	Mayo	2023-05-16T00:00:00	2024-11-06T08:00:00	3	Temperatura mínima	12.4
25988	7	Sololá	701	Sololá	3	Barraneche	5	Mayo	2023-05-16T00:00:00	2024-11-06T08:00:00	5	Humedad	55
25989	7	Sololá	701	Sololá	3	Barraneche	5	Mayo	2023-05-16T00:00:00	2024-11-06T08:00:00	6	Velocidad del viento	3.2
25990	7	Sololá	701	Sololá	3	Barraneche	5	Mayo	2023-05-16T00:00:00	2024-11-06T08:00:00	7	Dirección del viento	3.22
25991	7	Sololá	701	Sololá	3	Barraneche	5	Mayo	2023-05-16T00:00:00	2024-11-06T08:00:00	1	Precipitación	0
25992	7	Sololá	701	Sololá	3	Barraneche	5	Mayo	2023-05-16T00:00:00	2024-11-06T08:00:00	8	Radiación solar	380
25993	7	Sololá	701	Sololá	3	Barraneche	5	Mayo	2023-05-16T00:00:00	2024-11-06T09:00:00	2	Temperatura media	16.7
25994	7	Sololá	701	Sololá	3	Barraneche	5	Mayo	2023-05-16T00:00:00	2024-11-06T09:00:00	4	Temperatura máxima	16.7
25995	7	Sololá	701	Sololá	3	Barraneche	5	Mayo	2023-05-16T00:00:00	2024-11-06T09:00:00	3	Temperatura mínima	15.8
25996	7	Sololá	701	Sololá	3	Barraneche	5	Mayo	2023-05-16T00:00:00	2024-11-06T09:00:00	5	Humedad	56
25997	7	Sololá	701	Sololá	3	Barraneche	5	Mayo	2023-05-16T00:00:00	2024-11-06T09:00:00	6	Velocidad del viento	4.8
25998	7	Sololá	701	Sololá	3	Barraneche	5	Mayo	2023-05-16T00:00:00	2024-11-06T09:00:00	7	Dirección del viento	4.83
25999	7	Sololá	701	Sololá	3	Barraneche	5	Mayo	2023-05-16T00:00:00	2024-11-06T09:00:00	1	Precipitación	0
26000	7	Sololá	701	Sololá	3	Barraneche	5	Mayo	2023-05-16T00:00:00	2024-11-06T09:00:00	8	Radiación solar	616
26001	7	Sololá	701	Sololá	3	Barraneche	5	Mayo	2023-05-16T00:00:00	2024-11-06T10:00:00	2	Temperatura media	16.5
26002	7	Sololá	701	Sololá	3	Barraneche	5	Mayo	2023-05-16T00:00:00	2024-11-06T10:00:00	4	Temperatura máxima	17
26003	7	Sololá	701	Sololá	3	Barraneche	5	Mayo	2023-05-16T00:00:00	2024-11-06T10:00:00	3	Temperatura mínima	16.5
26004	7	Sololá	701	Sololá	3	Barraneche	5	Mayo	2023-05-16T00:00:00	2024-11-06T10:00:00	5	Humedad	62
26005	7	Sololá	701	Sololá	3	Barraneche	5	Mayo	2023-05-16T00:00:00	2024-11-06T10:00:00	6	Velocidad del viento	9.7
26006	7	Sololá	701	Sololá	3	Barraneche	5	Mayo	2023-05-16T00:00:00	2024-11-06T10:00:00	7	Dirección del viento	9.66
26007	7	Sololá	701	Sololá	3	Barraneche	5	Mayo	2023-05-16T00:00:00	2024-11-06T10:00:00	1	Precipitación	0
26008	7	Sololá	701	Sololá	3	Barraneche	5	Mayo	2023-05-16T00:00:00	2024-11-06T10:00:00	8	Radiación solar	819
26009	7	Sololá	701	Sololá	3	Barraneche	5	Mayo	2023-05-16T00:00:00	2024-11-06T11:00:00	2	Temperatura media	16.6
26010	7	Sololá	701	Sololá	3	Barraneche	5	Mayo	2023-05-16T00:00:00	2024-11-06T11:00:00	4	Temperatura máxima	16.6
26011	7	Sololá	701	Sololá	3	Barraneche	5	Mayo	2023-05-16T00:00:00	2024-11-06T11:00:00	3	Temperatura mínima	15.9
26012	7	Sololá	701	Sololá	3	Barraneche	5	Mayo	2023-05-16T00:00:00	2024-11-06T11:00:00	5	Humedad	60
26013	7	Sololá	701	Sololá	3	Barraneche	5	Mayo	2023-05-16T00:00:00	2024-11-06T11:00:00	6	Velocidad del viento	8
26014	7	Sololá	701	Sololá	3	Barraneche	5	Mayo	2023-05-16T00:00:00	2024-11-06T11:00:00	7	Dirección del viento	8.05
26015	7	Sololá	701	Sololá	3	Barraneche	5	Mayo	2023-05-16T00:00:00	2024-11-06T11:00:00	1	Precipitación	0
26016	7	Sololá	701	Sololá	3	Barraneche	5	Mayo	2023-05-16T00:00:00	2024-11-06T11:00:00	8	Radiación solar	352
26017	7	Sololá	701	Sololá	3	Barraneche	5	Mayo	2023-05-16T00:00:00	2024-11-06T12:00:00	2	Temperatura media	18.2
26018	7	Sololá	701	Sololá	3	Barraneche	5	Mayo	2023-05-16T00:00:00	2024-11-06T12:00:00	4	Temperatura máxima	18.3
26019	7	Sololá	701	Sololá	3	Barraneche	5	Mayo	2023-05-16T00:00:00	2024-11-06T12:00:00	3	Temperatura mínima	16.6
26020	7	Sololá	701	Sololá	3	Barraneche	5	Mayo	2023-05-16T00:00:00	2024-11-06T12:00:00	5	Humedad	57
26021	7	Sololá	701	Sololá	3	Barraneche	5	Mayo	2023-05-16T00:00:00	2024-11-06T12:00:00	6	Velocidad del viento	6.4
26022	7	Sololá	701	Sololá	3	Barraneche	5	Mayo	2023-05-16T00:00:00	2024-11-06T12:00:00	7	Dirección del viento	6.44
26023	7	Sololá	701	Sololá	3	Barraneche	5	Mayo	2023-05-16T00:00:00	2024-11-06T12:00:00	1	Precipitación	0
26024	7	Sololá	701	Sololá	3	Barraneche	5	Mayo	2023-05-16T00:00:00	2024-11-06T12:00:00	8	Radiación solar	765
26025	7	Sololá	701	Sololá	3	Barraneche	5	Mayo	2023-05-16T00:00:00	2024-11-06T13:00:00	2	Temperatura media	18.1
26026	7	Sololá	701	Sololá	3	Barraneche	5	Mayo	2023-05-16T00:00:00	2024-11-06T13:00:00	4	Temperatura máxima	18.6
26027	7	Sololá	701	Sololá	3	Barraneche	5	Mayo	2023-05-16T00:00:00	2024-11-06T13:00:00	3	Temperatura mínima	17.8
26028	7	Sololá	701	Sololá	3	Barraneche	5	Mayo	2023-05-16T00:00:00	2024-11-06T13:00:00	5	Humedad	59
26029	7	Sololá	701	Sololá	3	Barraneche	5	Mayo	2023-05-16T00:00:00	2024-11-06T13:00:00	6	Velocidad del viento	8
26030	7	Sololá	701	Sololá	3	Barraneche	5	Mayo	2023-05-16T00:00:00	2024-11-06T13:00:00	7	Dirección del viento	8.05
26031	7	Sololá	701	Sololá	3	Barraneche	5	Mayo	2023-05-16T00:00:00	2024-11-06T13:00:00	1	Precipitación	0
26032	7	Sololá	701	Sololá	3	Barraneche	5	Mayo	2023-05-16T00:00:00	2024-11-06T13:00:00	8	Radiación solar	414
26033	7	Sololá	701	Sololá	3	Barraneche	5	Mayo	2023-05-16T00:00:00	2024-11-06T14:00:00	2	Temperatura media	16.8
26034	7	Sololá	701	Sololá	3	Barraneche	5	Mayo	2023-05-16T00:00:00	2024-11-06T14:00:00	4	Temperatura máxima	18.2
26035	7	Sololá	701	Sololá	3	Barraneche	5	Mayo	2023-05-16T00:00:00	2024-11-06T14:00:00	3	Temperatura mínima	16.8
26036	7	Sololá	701	Sololá	3	Barraneche	5	Mayo	2023-05-16T00:00:00	2024-11-06T14:00:00	5	Humedad	68
26037	7	Sololá	701	Sololá	3	Barraneche	5	Mayo	2023-05-16T00:00:00	2024-11-06T14:00:00	6	Velocidad del viento	11.3
26038	7	Sololá	701	Sololá	3	Barraneche	5	Mayo	2023-05-16T00:00:00	2024-11-06T14:00:00	7	Dirección del viento	11.27
26039	7	Sololá	701	Sololá	3	Barraneche	5	Mayo	2023-05-16T00:00:00	2024-11-06T14:00:00	1	Precipitación	0
26040	7	Sololá	701	Sololá	3	Barraneche	5	Mayo	2023-05-16T00:00:00	2024-11-06T14:00:00	8	Radiación solar	412
26041	7	Sololá	701	Sololá	3	Barraneche	5	Mayo	2023-05-16T00:00:00	2024-11-06T15:00:00	2	Temperatura media	16.5
26042	7	Sololá	701	Sololá	3	Barraneche	5	Mayo	2023-05-16T00:00:00	2024-11-06T15:00:00	4	Temperatura máxima	17.1
26043	7	Sololá	701	Sololá	3	Barraneche	5	Mayo	2023-05-16T00:00:00	2024-11-06T15:00:00	3	Temperatura mínima	16.5
26044	7	Sololá	701	Sololá	3	Barraneche	5	Mayo	2023-05-16T00:00:00	2024-11-06T15:00:00	5	Humedad	66
26045	7	Sololá	701	Sololá	3	Barraneche	5	Mayo	2023-05-16T00:00:00	2024-11-06T15:00:00	6	Velocidad del viento	8
26046	7	Sololá	701	Sololá	3	Barraneche	5	Mayo	2023-05-16T00:00:00	2024-11-06T15:00:00	7	Dirección del viento	8.05
26047	7	Sololá	701	Sololá	3	Barraneche	5	Mayo	2023-05-16T00:00:00	2024-11-06T15:00:00	1	Precipitación	0
26048	7	Sololá	701	Sololá	3	Barraneche	5	Mayo	2023-05-16T00:00:00	2024-11-06T15:00:00	8	Radiación solar	156
26049	7	Sololá	701	Sololá	3	Barraneche	5	Mayo	2023-05-16T00:00:00	2024-11-06T16:00:00	2	Temperatura media	15.9
26050	7	Sololá	701	Sololá	3	Barraneche	5	Mayo	2023-05-16T00:00:00	2024-11-06T16:00:00	4	Temperatura máxima	17.6
26051	7	Sololá	701	Sololá	3	Barraneche	5	Mayo	2023-05-16T00:00:00	2024-11-06T16:00:00	3	Temperatura mínima	15.9
26052	7	Sololá	701	Sololá	3	Barraneche	5	Mayo	2023-05-16T00:00:00	2024-11-06T16:00:00	5	Humedad	72
26053	7	Sololá	701	Sololá	3	Barraneche	5	Mayo	2023-05-16T00:00:00	2024-11-06T16:00:00	6	Velocidad del viento	8
26054	7	Sololá	701	Sololá	3	Barraneche	5	Mayo	2023-05-16T00:00:00	2024-11-06T16:00:00	7	Dirección del viento	8.05
26055	7	Sololá	701	Sololá	3	Barraneche	5	Mayo	2023-05-16T00:00:00	2024-11-06T16:00:00	1	Precipitación	0
26056	7	Sololá	701	Sololá	3	Barraneche	5	Mayo	2023-05-16T00:00:00	2024-11-06T16:00:00	8	Radiación solar	169
26057	7	Sololá	701	Sololá	3	Barraneche	5	Mayo	2023-05-16T00:00:00	2024-11-06T17:00:00	2	Temperatura media	15.2
26058	7	Sololá	701	Sololá	3	Barraneche	5	Mayo	2023-05-16T00:00:00	2024-11-06T17:00:00	4	Temperatura máxima	15.9
26059	7	Sololá	701	Sololá	3	Barraneche	5	Mayo	2023-05-16T00:00:00	2024-11-06T17:00:00	3	Temperatura mínima	15.2
26060	7	Sololá	701	Sololá	3	Barraneche	5	Mayo	2023-05-16T00:00:00	2024-11-06T17:00:00	5	Humedad	71
26061	7	Sololá	701	Sololá	3	Barraneche	5	Mayo	2023-05-16T00:00:00	2024-11-06T17:00:00	6	Velocidad del viento	9.7
26062	7	Sololá	701	Sololá	3	Barraneche	5	Mayo	2023-05-16T00:00:00	2024-11-06T17:00:00	7	Dirección del viento	9.66
26063	7	Sololá	701	Sololá	3	Barraneche	5	Mayo	2023-05-16T00:00:00	2024-11-06T17:00:00	1	Precipitación	0
26064	7	Sololá	701	Sololá	3	Barraneche	5	Mayo	2023-05-16T00:00:00	2024-11-06T17:00:00	8	Radiación solar	133
26065	7	Sololá	701	Sololá	3	Barraneche	5	Mayo	2023-05-16T00:00:00	2024-11-06T18:00:00	2	Temperatura media	14.7
26066	7	Sololá	701	Sololá	3	Barraneche	5	Mayo	2023-05-16T00:00:00	2024-11-06T18:00:00	4	Temperatura máxima	15.3
26067	7	Sololá	701	Sololá	3	Barraneche	5	Mayo	2023-05-16T00:00:00	2024-11-06T18:00:00	3	Temperatura mínima	14.6
26068	7	Sololá	701	Sololá	3	Barraneche	5	Mayo	2023-05-16T00:00:00	2024-11-06T18:00:00	5	Humedad	75
26069	7	Sololá	701	Sololá	3	Barraneche	5	Mayo	2023-05-16T00:00:00	2024-11-06T18:00:00	6	Velocidad del viento	6.4
26070	7	Sololá	701	Sololá	3	Barraneche	5	Mayo	2023-05-16T00:00:00	2024-11-06T18:00:00	7	Dirección del viento	6.44
26071	7	Sololá	701	Sololá	3	Barraneche	5	Mayo	2023-05-16T00:00:00	2024-11-06T18:00:00	1	Precipitación	0
26072	7	Sololá	701	Sololá	3	Barraneche	5	Mayo	2023-05-16T00:00:00	2024-11-06T18:00:00	8	Radiación solar	63
26073	7	Sololá	701	Sololá	3	Barraneche	5	Mayo	2023-05-16T00:00:00	2024-11-06T19:00:00	2	Temperatura media	14.3
26074	7	Sololá	701	Sololá	3	Barraneche	5	Mayo	2023-05-16T00:00:00	2024-11-06T19:00:00	4	Temperatura máxima	14.7
26075	7	Sololá	701	Sololá	3	Barraneche	5	Mayo	2023-05-16T00:00:00	2024-11-06T19:00:00	3	Temperatura mínima	14.3
26076	7	Sololá	701	Sololá	3	Barraneche	5	Mayo	2023-05-16T00:00:00	2024-11-06T19:00:00	5	Humedad	82
26077	7	Sololá	701	Sololá	3	Barraneche	5	Mayo	2023-05-16T00:00:00	2024-11-06T19:00:00	6	Velocidad del viento	4.8
26078	7	Sololá	701	Sololá	3	Barraneche	5	Mayo	2023-05-16T00:00:00	2024-11-06T19:00:00	7	Dirección del viento	4.83
26079	7	Sololá	701	Sololá	3	Barraneche	5	Mayo	2023-05-16T00:00:00	2024-11-06T19:00:00	1	Precipitación	0
26080	7	Sololá	701	Sololá	3	Barraneche	5	Mayo	2023-05-16T00:00:00	2024-11-06T19:00:00	8	Radiación solar	0
26081	7	Sololá	701	Sololá	3	Barraneche	5	Mayo	2023-05-16T00:00:00	2024-11-06T20:00:00	2	Temperatura media	14.2
26082	7	Sololá	701	Sololá	3	Barraneche	5	Mayo	2023-05-16T00:00:00	2024-11-06T20:00:00	4	Temperatura máxima	14.3
26083	7	Sololá	701	Sololá	3	Barraneche	5	Mayo	2023-05-16T00:00:00	2024-11-06T20:00:00	3	Temperatura mínima	14.2
26084	7	Sololá	701	Sololá	3	Barraneche	5	Mayo	2023-05-16T00:00:00	2024-11-06T20:00:00	5	Humedad	82
26085	7	Sololá	701	Sololá	3	Barraneche	5	Mayo	2023-05-16T00:00:00	2024-11-06T20:00:00	6	Velocidad del viento	1.6
26086	7	Sololá	701	Sololá	3	Barraneche	5	Mayo	2023-05-16T00:00:00	2024-11-06T20:00:00	7	Dirección del viento	1.61
26087	7	Sololá	701	Sololá	3	Barraneche	5	Mayo	2023-05-16T00:00:00	2024-11-06T20:00:00	1	Precipitación	0
26088	7	Sololá	701	Sololá	3	Barraneche	5	Mayo	2023-05-16T00:00:00	2024-11-06T20:00:00	8	Radiación solar	0
26089	7	Sololá	701	Sololá	3	Barraneche	5	Mayo	2023-05-16T00:00:00	2024-11-06T21:00:00	2	Temperatura media	13.2
26090	7	Sololá	701	Sololá	3	Barraneche	5	Mayo	2023-05-16T00:00:00	2024-11-06T21:00:00	4	Temperatura máxima	14.2
26091	7	Sololá	701	Sololá	3	Barraneche	5	Mayo	2023-05-16T00:00:00	2024-11-06T21:00:00	3	Temperatura mínima	13.2
26092	7	Sololá	701	Sololá	3	Barraneche	5	Mayo	2023-05-16T00:00:00	2024-11-06T21:00:00	5	Humedad	78
26093	7	Sololá	701	Sololá	3	Barraneche	5	Mayo	2023-05-16T00:00:00	2024-11-06T21:00:00	6	Velocidad del viento	3.2
26094	7	Sololá	701	Sololá	3	Barraneche	5	Mayo	2023-05-16T00:00:00	2024-11-06T21:00:00	7	Dirección del viento	3.22
26095	7	Sololá	701	Sololá	3	Barraneche	5	Mayo	2023-05-16T00:00:00	2024-11-06T21:00:00	1	Precipitación	0
26096	7	Sololá	701	Sololá	3	Barraneche	5	Mayo	2023-05-16T00:00:00	2024-11-06T21:00:00	8	Radiación solar	0
26097	7	Sololá	701	Sololá	3	Barraneche	5	Mayo	2023-05-16T00:00:00	2024-11-06T22:00:00	2	Temperatura media	12.4
26098	7	Sololá	701	Sololá	3	Barraneche	5	Mayo	2023-05-16T00:00:00	2024-11-06T22:00:00	4	Temperatura máxima	13.2
26099	7	Sololá	701	Sololá	3	Barraneche	5	Mayo	2023-05-16T00:00:00	2024-11-06T22:00:00	3	Temperatura mínima	12.4
26100	7	Sololá	701	Sololá	3	Barraneche	5	Mayo	2023-05-16T00:00:00	2024-11-06T22:00:00	5	Humedad	74
26101	7	Sololá	701	Sololá	3	Barraneche	5	Mayo	2023-05-16T00:00:00	2024-11-06T22:00:00	6	Velocidad del viento	4.8
26102	7	Sololá	701	Sololá	3	Barraneche	5	Mayo	2023-05-16T00:00:00	2024-11-06T22:00:00	7	Dirección del viento	4.83
26103	7	Sololá	701	Sololá	3	Barraneche	5	Mayo	2023-05-16T00:00:00	2024-11-06T22:00:00	1	Precipitación	0
26104	7	Sololá	701	Sololá	3	Barraneche	5	Mayo	2023-05-16T00:00:00	2024-11-06T22:00:00	8	Radiación solar	0
26105	7	Sololá	701	Sololá	3	Barraneche	5	Mayo	2023-05-16T00:00:00	2024-11-06T23:00:00	2	Temperatura media	12.6
26106	7	Sololá	701	Sololá	3	Barraneche	5	Mayo	2023-05-16T00:00:00	2024-11-06T23:00:00	4	Temperatura máxima	12.7
26107	7	Sololá	701	Sololá	3	Barraneche	5	Mayo	2023-05-16T00:00:00	2024-11-06T23:00:00	3	Temperatura mínima	12.4
26108	7	Sololá	701	Sololá	3	Barraneche	5	Mayo	2023-05-16T00:00:00	2024-11-06T23:00:00	5	Humedad	74
26109	7	Sololá	701	Sololá	3	Barraneche	5	Mayo	2023-05-16T00:00:00	2024-11-06T23:00:00	6	Velocidad del viento	4.8
26110	7	Sololá	701	Sololá	3	Barraneche	5	Mayo	2023-05-16T00:00:00	2024-11-06T23:00:00	7	Dirección del viento	4.83
26111	7	Sololá	701	Sololá	3	Barraneche	5	Mayo	2023-05-16T00:00:00	2024-11-06T23:00:00	1	Precipitación	0
26112	7	Sololá	701	Sololá	3	Barraneche	5	Mayo	2023-05-16T00:00:00	2024-11-06T23:00:00	8	Radiación solar	0
26113	7	Sololá	701	Sololá	3	Barraneche	5	Mayo	2023-05-17T00:00:00	2024-11-06T00:00:00	2	Temperatura media	12.4
26114	7	Sololá	701	Sololá	3	Barraneche	5	Mayo	2023-05-17T00:00:00	2024-11-06T00:00:00	4	Temperatura máxima	12.6
26115	7	Sololá	701	Sololá	3	Barraneche	5	Mayo	2023-05-17T00:00:00	2024-11-06T00:00:00	3	Temperatura mínima	12.2
26116	7	Sololá	701	Sololá	3	Barraneche	5	Mayo	2023-05-17T00:00:00	2024-11-06T00:00:00	5	Humedad	73
26117	7	Sololá	701	Sololá	3	Barraneche	5	Mayo	2023-05-17T00:00:00	2024-11-06T00:00:00	6	Velocidad del viento	4.8
26118	7	Sololá	701	Sololá	3	Barraneche	5	Mayo	2023-05-17T00:00:00	2024-11-06T00:00:00	7	Dirección del viento	4.83
26119	7	Sololá	701	Sololá	3	Barraneche	5	Mayo	2023-05-17T00:00:00	2024-11-06T00:00:00	1	Precipitación	0
26120	7	Sololá	701	Sololá	3	Barraneche	5	Mayo	2023-05-17T00:00:00	2024-11-06T00:00:00	8	Radiación solar	0
26121	7	Sololá	701	Sololá	3	Barraneche	5	Mayo	2023-05-17T00:00:00	2024-11-06T01:00:00	2	Temperatura media	11.9
26122	7	Sololá	701	Sololá	3	Barraneche	5	Mayo	2023-05-17T00:00:00	2024-11-06T01:00:00	4	Temperatura máxima	12.5
26123	7	Sololá	701	Sololá	3	Barraneche	5	Mayo	2023-05-17T00:00:00	2024-11-06T01:00:00	3	Temperatura mínima	11.9
26124	7	Sololá	701	Sololá	3	Barraneche	5	Mayo	2023-05-17T00:00:00	2024-11-06T01:00:00	5	Humedad	71
26125	7	Sololá	701	Sololá	3	Barraneche	5	Mayo	2023-05-17T00:00:00	2024-11-06T01:00:00	6	Velocidad del viento	6.4
26126	7	Sololá	701	Sololá	3	Barraneche	5	Mayo	2023-05-17T00:00:00	2024-11-06T01:00:00	7	Dirección del viento	6.44
26127	7	Sololá	701	Sololá	3	Barraneche	5	Mayo	2023-05-17T00:00:00	2024-11-06T01:00:00	1	Precipitación	0
26128	7	Sololá	701	Sololá	3	Barraneche	5	Mayo	2023-05-17T00:00:00	2024-11-06T01:00:00	8	Radiación solar	0
26129	7	Sololá	701	Sololá	3	Barraneche	5	Mayo	2023-05-17T00:00:00	2024-11-06T02:00:00	2	Temperatura media	11.8
26130	7	Sololá	701	Sololá	3	Barraneche	5	Mayo	2023-05-17T00:00:00	2024-11-06T02:00:00	4	Temperatura máxima	12.3
26131	7	Sololá	701	Sololá	3	Barraneche	5	Mayo	2023-05-17T00:00:00	2024-11-06T02:00:00	3	Temperatura mínima	11.8
26132	7	Sololá	701	Sololá	3	Barraneche	5	Mayo	2023-05-17T00:00:00	2024-11-06T02:00:00	5	Humedad	70
26133	7	Sololá	701	Sololá	3	Barraneche	5	Mayo	2023-05-17T00:00:00	2024-11-06T02:00:00	6	Velocidad del viento	8
26134	7	Sololá	701	Sololá	3	Barraneche	5	Mayo	2023-05-17T00:00:00	2024-11-06T02:00:00	7	Dirección del viento	8.05
26135	7	Sololá	701	Sololá	3	Barraneche	5	Mayo	2023-05-17T00:00:00	2024-11-06T02:00:00	1	Precipitación	0
26136	7	Sololá	701	Sololá	3	Barraneche	5	Mayo	2023-05-17T00:00:00	2024-11-06T02:00:00	8	Radiación solar	0
26137	7	Sololá	701	Sololá	3	Barraneche	5	Mayo	2023-05-17T00:00:00	2024-11-06T03:00:00	2	Temperatura media	11.9
26138	7	Sololá	701	Sololá	3	Barraneche	5	Mayo	2023-05-17T00:00:00	2024-11-06T03:00:00	4	Temperatura máxima	11.9
26139	7	Sololá	701	Sololá	3	Barraneche	5	Mayo	2023-05-17T00:00:00	2024-11-06T03:00:00	3	Temperatura mínima	11.3
26140	7	Sololá	701	Sololá	3	Barraneche	5	Mayo	2023-05-17T00:00:00	2024-11-06T03:00:00	5	Humedad	69
26141	7	Sololá	701	Sololá	3	Barraneche	5	Mayo	2023-05-17T00:00:00	2024-11-06T03:00:00	6	Velocidad del viento	8
26142	7	Sololá	701	Sololá	3	Barraneche	5	Mayo	2023-05-17T00:00:00	2024-11-06T03:00:00	7	Dirección del viento	8.05
26143	7	Sololá	701	Sololá	3	Barraneche	5	Mayo	2023-05-17T00:00:00	2024-11-06T03:00:00	1	Precipitación	0
26144	7	Sololá	701	Sololá	3	Barraneche	5	Mayo	2023-05-17T00:00:00	2024-11-06T03:00:00	8	Radiación solar	0
26145	7	Sololá	701	Sololá	3	Barraneche	5	Mayo	2023-05-17T00:00:00	2024-11-06T04:00:00	2	Temperatura media	11.2
26146	7	Sololá	701	Sololá	3	Barraneche	5	Mayo	2023-05-17T00:00:00	2024-11-06T04:00:00	4	Temperatura máxima	11.9
26147	7	Sololá	701	Sololá	3	Barraneche	5	Mayo	2023-05-17T00:00:00	2024-11-06T04:00:00	3	Temperatura mínima	11.2
26148	7	Sololá	701	Sololá	3	Barraneche	5	Mayo	2023-05-17T00:00:00	2024-11-06T04:00:00	5	Humedad	69
26149	7	Sololá	701	Sololá	3	Barraneche	5	Mayo	2023-05-17T00:00:00	2024-11-06T04:00:00	6	Velocidad del viento	8
26150	7	Sololá	701	Sololá	3	Barraneche	5	Mayo	2023-05-17T00:00:00	2024-11-06T04:00:00	7	Dirección del viento	8.05
26151	7	Sololá	701	Sololá	3	Barraneche	5	Mayo	2023-05-17T00:00:00	2024-11-06T04:00:00	1	Precipitación	0
26152	7	Sololá	701	Sololá	3	Barraneche	5	Mayo	2023-05-17T00:00:00	2024-11-06T04:00:00	8	Radiación solar	0
26153	7	Sololá	701	Sololá	3	Barraneche	5	Mayo	2023-05-17T00:00:00	2024-11-06T05:00:00	2	Temperatura media	11.4
26154	7	Sololá	701	Sololá	3	Barraneche	5	Mayo	2023-05-17T00:00:00	2024-11-06T05:00:00	4	Temperatura máxima	12.3
26155	7	Sololá	701	Sololá	3	Barraneche	5	Mayo	2023-05-17T00:00:00	2024-11-06T05:00:00	3	Temperatura mínima	11.2
26156	7	Sololá	701	Sololá	3	Barraneche	5	Mayo	2023-05-17T00:00:00	2024-11-06T05:00:00	5	Humedad	68
26157	7	Sololá	701	Sololá	3	Barraneche	5	Mayo	2023-05-17T00:00:00	2024-11-06T05:00:00	6	Velocidad del viento	11.3
26158	7	Sololá	701	Sololá	3	Barraneche	5	Mayo	2023-05-17T00:00:00	2024-11-06T05:00:00	7	Dirección del viento	11.27
26159	7	Sololá	701	Sololá	3	Barraneche	5	Mayo	2023-05-17T00:00:00	2024-11-06T05:00:00	1	Precipitación	0
26160	7	Sololá	701	Sololá	3	Barraneche	5	Mayo	2023-05-17T00:00:00	2024-11-06T05:00:00	8	Radiación solar	0
26161	7	Sololá	701	Sololá	3	Barraneche	5	Mayo	2023-05-17T00:00:00	2024-11-06T06:00:00	2	Temperatura media	11.1
26162	7	Sololá	701	Sololá	3	Barraneche	5	Mayo	2023-05-17T00:00:00	2024-11-06T06:00:00	4	Temperatura máxima	11.5
26163	7	Sololá	701	Sololá	3	Barraneche	5	Mayo	2023-05-17T00:00:00	2024-11-06T06:00:00	3	Temperatura mínima	11.1
26164	7	Sololá	701	Sololá	3	Barraneche	5	Mayo	2023-05-17T00:00:00	2024-11-06T06:00:00	5	Humedad	69
26165	7	Sololá	701	Sololá	3	Barraneche	5	Mayo	2023-05-17T00:00:00	2024-11-06T06:00:00	6	Velocidad del viento	8
26166	7	Sololá	701	Sololá	3	Barraneche	5	Mayo	2023-05-17T00:00:00	2024-11-06T06:00:00	7	Dirección del viento	8.05
26167	7	Sololá	701	Sololá	3	Barraneche	5	Mayo	2023-05-17T00:00:00	2024-11-06T06:00:00	1	Precipitación	0
26168	7	Sololá	701	Sololá	3	Barraneche	5	Mayo	2023-05-17T00:00:00	2024-11-06T06:00:00	8	Radiación solar	5
26169	7	Sololá	701	Sololá	3	Barraneche	5	Mayo	2023-05-17T00:00:00	2024-11-06T07:00:00	2	Temperatura media	13.3
26170	7	Sololá	701	Sololá	3	Barraneche	5	Mayo	2023-05-17T00:00:00	2024-11-06T07:00:00	4	Temperatura máxima	13.3
26171	7	Sololá	701	Sololá	3	Barraneche	5	Mayo	2023-05-17T00:00:00	2024-11-06T07:00:00	3	Temperatura mínima	11.1
26172	7	Sololá	701	Sololá	3	Barraneche	5	Mayo	2023-05-17T00:00:00	2024-11-06T07:00:00	5	Humedad	67
26173	7	Sololá	701	Sololá	3	Barraneche	5	Mayo	2023-05-17T00:00:00	2024-11-06T07:00:00	6	Velocidad del viento	6.4
26174	7	Sololá	701	Sololá	3	Barraneche	5	Mayo	2023-05-17T00:00:00	2024-11-06T07:00:00	7	Dirección del viento	6.44
26175	7	Sololá	701	Sololá	3	Barraneche	5	Mayo	2023-05-17T00:00:00	2024-11-06T07:00:00	1	Precipitación	0
26176	7	Sololá	701	Sololá	3	Barraneche	5	Mayo	2023-05-17T00:00:00	2024-11-06T07:00:00	8	Radiación solar	105
26177	7	Sololá	701	Sololá	3	Barraneche	5	Mayo	2023-05-17T00:00:00	2024-11-06T08:00:00	2	Temperatura media	17.2
26178	7	Sololá	701	Sololá	3	Barraneche	5	Mayo	2023-05-17T00:00:00	2024-11-06T08:00:00	4	Temperatura máxima	17.3
26179	7	Sololá	701	Sololá	3	Barraneche	5	Mayo	2023-05-17T00:00:00	2024-11-06T08:00:00	3	Temperatura mínima	13.3
26180	7	Sololá	701	Sololá	3	Barraneche	5	Mayo	2023-05-17T00:00:00	2024-11-06T08:00:00	5	Humedad	57
26181	7	Sololá	701	Sololá	3	Barraneche	5	Mayo	2023-05-17T00:00:00	2024-11-06T08:00:00	6	Velocidad del viento	3.2
26182	7	Sololá	701	Sololá	3	Barraneche	5	Mayo	2023-05-17T00:00:00	2024-11-06T08:00:00	7	Dirección del viento	3.22
26183	7	Sololá	701	Sololá	3	Barraneche	5	Mayo	2023-05-17T00:00:00	2024-11-06T08:00:00	1	Precipitación	0
26184	7	Sololá	701	Sololá	3	Barraneche	5	Mayo	2023-05-17T00:00:00	2024-11-06T08:00:00	8	Radiación solar	383
26185	7	Sololá	701	Sololá	3	Barraneche	5	Mayo	2023-05-17T00:00:00	2024-11-06T09:00:00	2	Temperatura media	18
26186	7	Sololá	701	Sololá	3	Barraneche	5	Mayo	2023-05-17T00:00:00	2024-11-06T09:00:00	4	Temperatura máxima	18
26187	7	Sololá	701	Sololá	3	Barraneche	5	Mayo	2023-05-17T00:00:00	2024-11-06T09:00:00	3	Temperatura mínima	16.8
26188	7	Sololá	701	Sololá	3	Barraneche	5	Mayo	2023-05-17T00:00:00	2024-11-06T09:00:00	5	Humedad	53
26189	7	Sololá	701	Sololá	3	Barraneche	5	Mayo	2023-05-17T00:00:00	2024-11-06T09:00:00	6	Velocidad del viento	3.2
26190	7	Sololá	701	Sololá	3	Barraneche	5	Mayo	2023-05-17T00:00:00	2024-11-06T09:00:00	7	Dirección del viento	3.22
26191	7	Sololá	701	Sololá	3	Barraneche	5	Mayo	2023-05-17T00:00:00	2024-11-06T09:00:00	1	Precipitación	0
26192	7	Sololá	701	Sololá	3	Barraneche	5	Mayo	2023-05-17T00:00:00	2024-11-06T09:00:00	8	Radiación solar	626
26193	7	Sololá	701	Sololá	3	Barraneche	5	Mayo	2023-05-17T00:00:00	2024-11-06T10:00:00	2	Temperatura media	18.8
26194	7	Sololá	701	Sololá	3	Barraneche	5	Mayo	2023-05-17T00:00:00	2024-11-06T10:00:00	4	Temperatura máxima	18.8
26195	7	Sololá	701	Sololá	3	Barraneche	5	Mayo	2023-05-17T00:00:00	2024-11-06T10:00:00	3	Temperatura mínima	18
26196	7	Sololá	701	Sololá	3	Barraneche	5	Mayo	2023-05-17T00:00:00	2024-11-06T10:00:00	5	Humedad	54
26197	7	Sololá	701	Sololá	3	Barraneche	5	Mayo	2023-05-17T00:00:00	2024-11-06T10:00:00	6	Velocidad del viento	6.4
26198	7	Sololá	701	Sololá	3	Barraneche	5	Mayo	2023-05-17T00:00:00	2024-11-06T10:00:00	7	Dirección del viento	6.44
26199	7	Sololá	701	Sololá	3	Barraneche	5	Mayo	2023-05-17T00:00:00	2024-11-06T10:00:00	1	Precipitación	0
26200	7	Sololá	701	Sololá	3	Barraneche	5	Mayo	2023-05-17T00:00:00	2024-11-06T10:00:00	8	Radiación solar	824
26201	7	Sololá	701	Sololá	3	Barraneche	5	Mayo	2023-05-17T00:00:00	2024-11-06T11:00:00	2	Temperatura media	19.2
26202	7	Sololá	701	Sololá	3	Barraneche	5	Mayo	2023-05-17T00:00:00	2024-11-06T11:00:00	4	Temperatura máxima	19.2
26203	7	Sololá	701	Sololá	3	Barraneche	5	Mayo	2023-05-17T00:00:00	2024-11-06T11:00:00	3	Temperatura mínima	18.4
26204	7	Sololá	701	Sololá	3	Barraneche	5	Mayo	2023-05-17T00:00:00	2024-11-06T11:00:00	5	Humedad	51
26205	7	Sololá	701	Sololá	3	Barraneche	5	Mayo	2023-05-17T00:00:00	2024-11-06T11:00:00	6	Velocidad del viento	9.7
26206	7	Sololá	701	Sololá	3	Barraneche	5	Mayo	2023-05-17T00:00:00	2024-11-06T11:00:00	7	Dirección del viento	9.66
26207	7	Sololá	701	Sololá	3	Barraneche	5	Mayo	2023-05-17T00:00:00	2024-11-06T11:00:00	1	Precipitación	0
26208	7	Sololá	701	Sololá	3	Barraneche	5	Mayo	2023-05-17T00:00:00	2024-11-06T11:00:00	8	Radiación solar	960
26209	7	Sololá	701	Sololá	3	Barraneche	5	Mayo	2023-05-17T00:00:00	2024-11-06T12:00:00	2	Temperatura media	19.7
26210	7	Sololá	701	Sololá	3	Barraneche	5	Mayo	2023-05-17T00:00:00	2024-11-06T12:00:00	4	Temperatura máxima	19.7
26211	7	Sololá	701	Sololá	3	Barraneche	5	Mayo	2023-05-17T00:00:00	2024-11-06T12:00:00	3	Temperatura mínima	19.1
26212	7	Sololá	701	Sololá	3	Barraneche	5	Mayo	2023-05-17T00:00:00	2024-11-06T12:00:00	5	Humedad	52
26213	7	Sololá	701	Sololá	3	Barraneche	5	Mayo	2023-05-17T00:00:00	2024-11-06T12:00:00	6	Velocidad del viento	11.3
26214	7	Sololá	701	Sololá	3	Barraneche	5	Mayo	2023-05-17T00:00:00	2024-11-06T12:00:00	7	Dirección del viento	11.27
26215	7	Sololá	701	Sololá	3	Barraneche	5	Mayo	2023-05-17T00:00:00	2024-11-06T12:00:00	1	Precipitación	0
26216	7	Sololá	701	Sololá	3	Barraneche	5	Mayo	2023-05-17T00:00:00	2024-11-06T12:00:00	8	Radiación solar	1095
26217	7	Sololá	701	Sololá	3	Barraneche	5	Mayo	2023-05-17T00:00:00	2024-11-06T13:00:00	2	Temperatura media	19.8
26218	7	Sololá	701	Sololá	3	Barraneche	5	Mayo	2023-05-17T00:00:00	2024-11-06T13:00:00	4	Temperatura máxima	19.8
26219	7	Sololá	701	Sololá	3	Barraneche	5	Mayo	2023-05-17T00:00:00	2024-11-06T13:00:00	3	Temperatura mínima	19.4
26220	7	Sololá	701	Sololá	3	Barraneche	5	Mayo	2023-05-17T00:00:00	2024-11-06T13:00:00	5	Humedad	56
26221	7	Sololá	701	Sololá	3	Barraneche	5	Mayo	2023-05-17T00:00:00	2024-11-06T13:00:00	6	Velocidad del viento	11.3
26222	7	Sololá	701	Sololá	3	Barraneche	5	Mayo	2023-05-17T00:00:00	2024-11-06T13:00:00	7	Dirección del viento	11.27
26223	7	Sololá	701	Sololá	3	Barraneche	5	Mayo	2023-05-17T00:00:00	2024-11-06T13:00:00	1	Precipitación	0
26224	7	Sololá	701	Sololá	3	Barraneche	5	Mayo	2023-05-17T00:00:00	2024-11-06T13:00:00	8	Radiación solar	1091
26225	7	Sololá	701	Sololá	3	Barraneche	5	Mayo	2023-05-17T00:00:00	2024-11-06T14:00:00	2	Temperatura media	17.4
26226	7	Sololá	701	Sololá	3	Barraneche	5	Mayo	2023-05-17T00:00:00	2024-11-06T14:00:00	4	Temperatura máxima	19.8
26227	7	Sololá	701	Sololá	3	Barraneche	5	Mayo	2023-05-17T00:00:00	2024-11-06T14:00:00	3	Temperatura mínima	17.4
26228	7	Sololá	701	Sololá	3	Barraneche	5	Mayo	2023-05-17T00:00:00	2024-11-06T14:00:00	5	Humedad	68
26229	7	Sololá	701	Sololá	3	Barraneche	5	Mayo	2023-05-17T00:00:00	2024-11-06T14:00:00	6	Velocidad del viento	11.3
26230	7	Sololá	701	Sololá	3	Barraneche	5	Mayo	2023-05-17T00:00:00	2024-11-06T14:00:00	7	Dirección del viento	11.27
26231	7	Sololá	701	Sololá	3	Barraneche	5	Mayo	2023-05-17T00:00:00	2024-11-06T14:00:00	1	Precipitación	0
26232	7	Sololá	701	Sololá	3	Barraneche	5	Mayo	2023-05-17T00:00:00	2024-11-06T14:00:00	8	Radiación solar	513
26233	7	Sololá	701	Sololá	3	Barraneche	5	Mayo	2023-05-17T00:00:00	2024-11-06T15:00:00	2	Temperatura media	16.8
26234	7	Sololá	701	Sololá	3	Barraneche	5	Mayo	2023-05-17T00:00:00	2024-11-06T15:00:00	4	Temperatura máxima	17.4
26235	7	Sololá	701	Sololá	3	Barraneche	5	Mayo	2023-05-17T00:00:00	2024-11-06T15:00:00	3	Temperatura mínima	16.7
26236	7	Sololá	701	Sololá	3	Barraneche	5	Mayo	2023-05-17T00:00:00	2024-11-06T15:00:00	5	Humedad	72
26237	7	Sololá	701	Sololá	3	Barraneche	5	Mayo	2023-05-17T00:00:00	2024-11-06T15:00:00	6	Velocidad del viento	6.4
26238	7	Sololá	701	Sololá	3	Barraneche	5	Mayo	2023-05-17T00:00:00	2024-11-06T15:00:00	7	Dirección del viento	6.44
26239	7	Sololá	701	Sololá	3	Barraneche	5	Mayo	2023-05-17T00:00:00	2024-11-06T15:00:00	1	Precipitación	0
26240	7	Sololá	701	Sololá	3	Barraneche	5	Mayo	2023-05-17T00:00:00	2024-11-06T15:00:00	8	Radiación solar	148
26241	7	Sololá	701	Sololá	3	Barraneche	5	Mayo	2023-05-17T00:00:00	2024-11-06T16:00:00	2	Temperatura media	16.3
26242	7	Sololá	701	Sololá	3	Barraneche	5	Mayo	2023-05-17T00:00:00	2024-11-06T16:00:00	4	Temperatura máxima	16.9
26243	7	Sololá	701	Sololá	3	Barraneche	5	Mayo	2023-05-17T00:00:00	2024-11-06T16:00:00	3	Temperatura mínima	16.3
26244	7	Sololá	701	Sololá	3	Barraneche	5	Mayo	2023-05-17T00:00:00	2024-11-06T16:00:00	5	Humedad	73
26245	7	Sololá	701	Sololá	3	Barraneche	5	Mayo	2023-05-17T00:00:00	2024-11-06T16:00:00	6	Velocidad del viento	8
26246	7	Sololá	701	Sololá	3	Barraneche	5	Mayo	2023-05-17T00:00:00	2024-11-06T16:00:00	7	Dirección del viento	8.05
26247	7	Sololá	701	Sololá	3	Barraneche	5	Mayo	2023-05-17T00:00:00	2024-11-06T16:00:00	1	Precipitación	0
26248	7	Sololá	701	Sololá	3	Barraneche	5	Mayo	2023-05-17T00:00:00	2024-11-06T16:00:00	8	Radiación solar	196
26249	7	Sololá	701	Sololá	3	Barraneche	5	Mayo	2023-05-17T00:00:00	2024-11-06T17:00:00	2	Temperatura media	15.7
26250	7	Sololá	701	Sololá	3	Barraneche	5	Mayo	2023-05-17T00:00:00	2024-11-06T17:00:00	4	Temperatura máxima	16.3
26251	7	Sololá	701	Sololá	3	Barraneche	5	Mayo	2023-05-17T00:00:00	2024-11-06T17:00:00	3	Temperatura mínima	15.6
26252	7	Sololá	701	Sololá	3	Barraneche	5	Mayo	2023-05-17T00:00:00	2024-11-06T17:00:00	5	Humedad	77
26253	7	Sololá	701	Sololá	3	Barraneche	5	Mayo	2023-05-17T00:00:00	2024-11-06T17:00:00	6	Velocidad del viento	8
26254	7	Sololá	701	Sololá	3	Barraneche	5	Mayo	2023-05-17T00:00:00	2024-11-06T17:00:00	7	Dirección del viento	8.05
26255	7	Sololá	701	Sololá	3	Barraneche	5	Mayo	2023-05-17T00:00:00	2024-11-06T17:00:00	1	Precipitación	0
26256	7	Sololá	701	Sololá	3	Barraneche	5	Mayo	2023-05-17T00:00:00	2024-11-06T17:00:00	8	Radiación solar	42
26257	7	Sololá	701	Sololá	3	Barraneche	5	Mayo	2023-05-17T00:00:00	2024-11-06T18:00:00	2	Temperatura media	14.9
26258	7	Sololá	701	Sololá	3	Barraneche	5	Mayo	2023-05-17T00:00:00	2024-11-06T18:00:00	4	Temperatura máxima	15.7
26259	7	Sololá	701	Sololá	3	Barraneche	5	Mayo	2023-05-17T00:00:00	2024-11-06T18:00:00	3	Temperatura mínima	14.6
26260	7	Sololá	701	Sololá	3	Barraneche	5	Mayo	2023-05-17T00:00:00	2024-11-06T18:00:00	5	Humedad	82
26261	7	Sololá	701	Sololá	3	Barraneche	5	Mayo	2023-05-17T00:00:00	2024-11-06T18:00:00	6	Velocidad del viento	4.8
26262	7	Sololá	701	Sololá	3	Barraneche	5	Mayo	2023-05-17T00:00:00	2024-11-06T18:00:00	7	Dirección del viento	4.83
26263	7	Sololá	701	Sololá	3	Barraneche	5	Mayo	2023-05-17T00:00:00	2024-11-06T18:00:00	1	Precipitación	3
26264	7	Sololá	701	Sololá	3	Barraneche	5	Mayo	2023-05-17T00:00:00	2024-11-06T18:00:00	8	Radiación solar	18
26265	7	Sololá	701	Sololá	3	Barraneche	5	Mayo	2023-05-17T00:00:00	2024-11-06T19:00:00	2	Temperatura media	14.5
26266	7	Sololá	701	Sololá	3	Barraneche	5	Mayo	2023-05-17T00:00:00	2024-11-06T19:00:00	4	Temperatura máxima	15.1
26267	7	Sololá	701	Sololá	3	Barraneche	5	Mayo	2023-05-17T00:00:00	2024-11-06T19:00:00	3	Temperatura mínima	14.4
26268	7	Sololá	701	Sololá	3	Barraneche	5	Mayo	2023-05-17T00:00:00	2024-11-06T19:00:00	5	Humedad	81
26269	7	Sololá	701	Sololá	3	Barraneche	5	Mayo	2023-05-17T00:00:00	2024-11-06T19:00:00	6	Velocidad del viento	4.8
26270	7	Sololá	701	Sololá	3	Barraneche	5	Mayo	2023-05-17T00:00:00	2024-11-06T19:00:00	7	Dirección del viento	4.83
26271	7	Sololá	701	Sololá	3	Barraneche	5	Mayo	2023-05-17T00:00:00	2024-11-06T19:00:00	1	Precipitación	0.8
26272	7	Sololá	701	Sololá	3	Barraneche	5	Mayo	2023-05-17T00:00:00	2024-11-06T19:00:00	8	Radiación solar	0
26273	7	Sololá	701	Sololá	3	Barraneche	5	Mayo	2023-05-17T00:00:00	2024-11-06T20:00:00	2	Temperatura media	14.3
26274	7	Sololá	701	Sololá	3	Barraneche	5	Mayo	2023-05-17T00:00:00	2024-11-06T20:00:00	4	Temperatura máxima	14.6
26275	7	Sololá	701	Sololá	3	Barraneche	5	Mayo	2023-05-17T00:00:00	2024-11-06T20:00:00	3	Temperatura mínima	14.2
26276	7	Sololá	701	Sololá	3	Barraneche	5	Mayo	2023-05-17T00:00:00	2024-11-06T20:00:00	5	Humedad	73
26277	7	Sololá	701	Sololá	3	Barraneche	5	Mayo	2023-05-17T00:00:00	2024-11-06T20:00:00	6	Velocidad del viento	4.8
26278	7	Sololá	701	Sololá	3	Barraneche	5	Mayo	2023-05-17T00:00:00	2024-11-06T20:00:00	7	Dirección del viento	4.83
26279	7	Sololá	701	Sololá	3	Barraneche	5	Mayo	2023-05-17T00:00:00	2024-11-06T20:00:00	1	Precipitación	0.2
26280	7	Sololá	701	Sololá	3	Barraneche	5	Mayo	2023-05-17T00:00:00	2024-11-06T20:00:00	8	Radiación solar	0
26281	7	Sololá	701	Sololá	3	Barraneche	5	Mayo	2023-05-17T00:00:00	2024-11-06T21:00:00	2	Temperatura media	12.8
26282	7	Sololá	701	Sololá	3	Barraneche	5	Mayo	2023-05-17T00:00:00	2024-11-06T21:00:00	4	Temperatura máxima	14.3
26283	7	Sololá	701	Sololá	3	Barraneche	5	Mayo	2023-05-17T00:00:00	2024-11-06T21:00:00	3	Temperatura mínima	12.8
26284	7	Sololá	701	Sololá	3	Barraneche	5	Mayo	2023-05-17T00:00:00	2024-11-06T21:00:00	5	Humedad	77
26285	7	Sololá	701	Sololá	3	Barraneche	5	Mayo	2023-05-17T00:00:00	2024-11-06T21:00:00	6	Velocidad del viento	6.4
26286	7	Sololá	701	Sololá	3	Barraneche	5	Mayo	2023-05-17T00:00:00	2024-11-06T21:00:00	7	Dirección del viento	6.44
26287	7	Sololá	701	Sololá	3	Barraneche	5	Mayo	2023-05-17T00:00:00	2024-11-06T21:00:00	1	Precipitación	0
26288	7	Sololá	701	Sololá	3	Barraneche	5	Mayo	2023-05-17T00:00:00	2024-11-06T21:00:00	8	Radiación solar	0
26289	7	Sololá	701	Sololá	3	Barraneche	5	Mayo	2023-05-17T00:00:00	2024-11-06T22:00:00	2	Temperatura media	12.8
26290	7	Sololá	701	Sololá	3	Barraneche	5	Mayo	2023-05-17T00:00:00	2024-11-06T22:00:00	4	Temperatura máxima	12.8
26291	7	Sololá	701	Sololá	3	Barraneche	5	Mayo	2023-05-17T00:00:00	2024-11-06T22:00:00	3	Temperatura mínima	12.6
26292	7	Sololá	701	Sololá	3	Barraneche	5	Mayo	2023-05-17T00:00:00	2024-11-06T22:00:00	5	Humedad	78
26293	7	Sololá	701	Sololá	3	Barraneche	5	Mayo	2023-05-17T00:00:00	2024-11-06T22:00:00	6	Velocidad del viento	4.8
26294	7	Sololá	701	Sololá	3	Barraneche	5	Mayo	2023-05-17T00:00:00	2024-11-06T22:00:00	7	Dirección del viento	4.83
26295	7	Sololá	701	Sololá	3	Barraneche	5	Mayo	2023-05-17T00:00:00	2024-11-06T22:00:00	1	Precipitación	0
26296	7	Sololá	701	Sololá	3	Barraneche	5	Mayo	2023-05-17T00:00:00	2024-11-06T22:00:00	8	Radiación solar	0
26297	7	Sololá	701	Sololá	3	Barraneche	5	Mayo	2023-05-17T00:00:00	2024-11-06T23:00:00	2	Temperatura media	12.7
26298	7	Sololá	701	Sololá	3	Barraneche	5	Mayo	2023-05-17T00:00:00	2024-11-06T23:00:00	4	Temperatura máxima	13.1
26299	7	Sololá	701	Sololá	3	Barraneche	5	Mayo	2023-05-17T00:00:00	2024-11-06T23:00:00	3	Temperatura mínima	12.7
26300	7	Sololá	701	Sololá	3	Barraneche	5	Mayo	2023-05-17T00:00:00	2024-11-06T23:00:00	5	Humedad	79
26301	7	Sololá	701	Sololá	3	Barraneche	5	Mayo	2023-05-17T00:00:00	2024-11-06T23:00:00	6	Velocidad del viento	3.2
26302	7	Sololá	701	Sololá	3	Barraneche	5	Mayo	2023-05-17T00:00:00	2024-11-06T23:00:00	7	Dirección del viento	3.22
26303	7	Sololá	701	Sololá	3	Barraneche	5	Mayo	2023-05-17T00:00:00	2024-11-06T23:00:00	1	Precipitación	0
26304	7	Sololá	701	Sololá	3	Barraneche	5	Mayo	2023-05-17T00:00:00	2024-11-06T23:00:00	8	Radiación solar	0
26305	7	Sololá	701	Sololá	3	Barraneche	5	Mayo	2023-05-18T00:00:00	2024-11-06T00:00:00	2	Temperatura media	12.2
26306	7	Sololá	701	Sololá	3	Barraneche	5	Mayo	2023-05-18T00:00:00	2024-11-06T00:00:00	4	Temperatura máxima	12.8
26307	7	Sololá	701	Sololá	3	Barraneche	5	Mayo	2023-05-18T00:00:00	2024-11-06T00:00:00	3	Temperatura mínima	12.1
26308	7	Sololá	701	Sololá	3	Barraneche	5	Mayo	2023-05-18T00:00:00	2024-11-06T00:00:00	5	Humedad	80
26309	7	Sololá	701	Sololá	3	Barraneche	5	Mayo	2023-05-18T00:00:00	2024-11-06T00:00:00	6	Velocidad del viento	4.8
26310	7	Sololá	701	Sololá	3	Barraneche	5	Mayo	2023-05-18T00:00:00	2024-11-06T00:00:00	7	Dirección del viento	4.83
26311	7	Sololá	701	Sololá	3	Barraneche	5	Mayo	2023-05-18T00:00:00	2024-11-06T00:00:00	1	Precipitación	0
26312	7	Sololá	701	Sololá	3	Barraneche	5	Mayo	2023-05-18T00:00:00	2024-11-06T00:00:00	8	Radiación solar	0
26313	7	Sololá	701	Sololá	3	Barraneche	5	Mayo	2023-05-18T00:00:00	2024-11-06T01:00:00	2	Temperatura media	12.4
26314	7	Sololá	701	Sololá	3	Barraneche	5	Mayo	2023-05-18T00:00:00	2024-11-06T01:00:00	4	Temperatura máxima	12.4
26315	7	Sololá	701	Sololá	3	Barraneche	5	Mayo	2023-05-18T00:00:00	2024-11-06T01:00:00	3	Temperatura mínima	12.1
26316	7	Sololá	701	Sololá	3	Barraneche	5	Mayo	2023-05-18T00:00:00	2024-11-06T01:00:00	5	Humedad	79
26317	7	Sololá	701	Sololá	3	Barraneche	5	Mayo	2023-05-18T00:00:00	2024-11-06T01:00:00	6	Velocidad del viento	4.8
26318	7	Sololá	701	Sololá	3	Barraneche	5	Mayo	2023-05-18T00:00:00	2024-11-06T01:00:00	7	Dirección del viento	4.83
26319	7	Sololá	701	Sololá	3	Barraneche	5	Mayo	2023-05-18T00:00:00	2024-11-06T01:00:00	1	Precipitación	0
26320	7	Sololá	701	Sololá	3	Barraneche	5	Mayo	2023-05-18T00:00:00	2024-11-06T01:00:00	8	Radiación solar	0
26321	7	Sololá	701	Sololá	3	Barraneche	5	Mayo	2023-05-18T00:00:00	2024-11-06T02:00:00	2	Temperatura media	12.1
26322	7	Sololá	701	Sololá	3	Barraneche	5	Mayo	2023-05-18T00:00:00	2024-11-06T02:00:00	4	Temperatura máxima	12.5
26323	7	Sololá	701	Sololá	3	Barraneche	5	Mayo	2023-05-18T00:00:00	2024-11-06T02:00:00	3	Temperatura mínima	11.9
26324	7	Sololá	701	Sololá	3	Barraneche	5	Mayo	2023-05-18T00:00:00	2024-11-06T02:00:00	5	Humedad	74
26325	7	Sololá	701	Sololá	3	Barraneche	5	Mayo	2023-05-18T00:00:00	2024-11-06T02:00:00	6	Velocidad del viento	6.4
26326	7	Sololá	701	Sololá	3	Barraneche	5	Mayo	2023-05-18T00:00:00	2024-11-06T02:00:00	7	Dirección del viento	6.44
26327	7	Sololá	701	Sololá	3	Barraneche	5	Mayo	2023-05-18T00:00:00	2024-11-06T02:00:00	1	Precipitación	0
26328	7	Sololá	701	Sololá	3	Barraneche	5	Mayo	2023-05-18T00:00:00	2024-11-06T02:00:00	8	Radiación solar	0
26329	7	Sololá	701	Sololá	3	Barraneche	5	Mayo	2023-05-18T00:00:00	2024-11-06T03:00:00	2	Temperatura media	11.6
26330	7	Sololá	701	Sololá	3	Barraneche	5	Mayo	2023-05-18T00:00:00	2024-11-06T03:00:00	4	Temperatura máxima	12.2
26331	7	Sololá	701	Sololá	3	Barraneche	5	Mayo	2023-05-18T00:00:00	2024-11-06T03:00:00	3	Temperatura mínima	11.5
26332	7	Sololá	701	Sololá	3	Barraneche	5	Mayo	2023-05-18T00:00:00	2024-11-06T03:00:00	5	Humedad	73
26333	7	Sololá	701	Sololá	3	Barraneche	5	Mayo	2023-05-18T00:00:00	2024-11-06T03:00:00	6	Velocidad del viento	6.4
26334	7	Sololá	701	Sololá	3	Barraneche	5	Mayo	2023-05-18T00:00:00	2024-11-06T03:00:00	7	Dirección del viento	6.44
26335	7	Sololá	701	Sololá	3	Barraneche	5	Mayo	2023-05-18T00:00:00	2024-11-06T03:00:00	1	Precipitación	0
26336	7	Sololá	701	Sololá	3	Barraneche	5	Mayo	2023-05-18T00:00:00	2024-11-06T03:00:00	8	Radiación solar	0
26337	7	Sololá	701	Sololá	3	Barraneche	5	Mayo	2023-05-18T00:00:00	2024-11-06T04:00:00	2	Temperatura media	11.3
26338	7	Sololá	701	Sololá	3	Barraneche	5	Mayo	2023-05-18T00:00:00	2024-11-06T04:00:00	4	Temperatura máxima	11.7
26339	7	Sololá	701	Sololá	3	Barraneche	5	Mayo	2023-05-18T00:00:00	2024-11-06T04:00:00	3	Temperatura mínima	11
26340	7	Sololá	701	Sololá	3	Barraneche	5	Mayo	2023-05-18T00:00:00	2024-11-06T04:00:00	5	Humedad	71
26341	7	Sololá	701	Sololá	3	Barraneche	5	Mayo	2023-05-18T00:00:00	2024-11-06T04:00:00	6	Velocidad del viento	6.4
26342	7	Sololá	701	Sololá	3	Barraneche	5	Mayo	2023-05-18T00:00:00	2024-11-06T04:00:00	7	Dirección del viento	6.44
26343	7	Sololá	701	Sololá	3	Barraneche	5	Mayo	2023-05-18T00:00:00	2024-11-06T04:00:00	1	Precipitación	0
26344	7	Sololá	701	Sololá	3	Barraneche	5	Mayo	2023-05-18T00:00:00	2024-11-06T04:00:00	8	Radiación solar	0
26345	7	Sololá	701	Sololá	3	Barraneche	5	Mayo	2023-05-18T00:00:00	2024-11-06T05:00:00	2	Temperatura media	10.8
26346	7	Sololá	701	Sololá	3	Barraneche	5	Mayo	2023-05-18T00:00:00	2024-11-06T05:00:00	4	Temperatura máxima	11.3
26347	7	Sololá	701	Sololá	3	Barraneche	5	Mayo	2023-05-18T00:00:00	2024-11-06T05:00:00	3	Temperatura mínima	10.8
26348	7	Sololá	701	Sololá	3	Barraneche	5	Mayo	2023-05-18T00:00:00	2024-11-06T05:00:00	5	Humedad	72
26349	7	Sololá	701	Sololá	3	Barraneche	5	Mayo	2023-05-18T00:00:00	2024-11-06T05:00:00	6	Velocidad del viento	4.8
26350	7	Sololá	701	Sololá	3	Barraneche	5	Mayo	2023-05-18T00:00:00	2024-11-06T05:00:00	7	Dirección del viento	4.83
26351	7	Sololá	701	Sololá	3	Barraneche	5	Mayo	2023-05-18T00:00:00	2024-11-06T05:00:00	1	Precipitación	0
26352	7	Sololá	701	Sololá	3	Barraneche	5	Mayo	2023-05-18T00:00:00	2024-11-06T05:00:00	8	Radiación solar	0
26353	7	Sololá	701	Sololá	3	Barraneche	5	Mayo	2023-05-18T00:00:00	2024-11-06T06:00:00	2	Temperatura media	11.2
26354	7	Sololá	701	Sololá	3	Barraneche	5	Mayo	2023-05-18T00:00:00	2024-11-06T06:00:00	4	Temperatura máxima	11.5
26355	7	Sololá	701	Sololá	3	Barraneche	5	Mayo	2023-05-18T00:00:00	2024-11-06T06:00:00	3	Temperatura mínima	10.7
26356	7	Sololá	701	Sololá	3	Barraneche	5	Mayo	2023-05-18T00:00:00	2024-11-06T06:00:00	5	Humedad	73
26357	7	Sololá	701	Sololá	3	Barraneche	5	Mayo	2023-05-18T00:00:00	2024-11-06T06:00:00	6	Velocidad del viento	4.8
26358	7	Sololá	701	Sololá	3	Barraneche	5	Mayo	2023-05-18T00:00:00	2024-11-06T06:00:00	7	Dirección del viento	4.83
26359	7	Sololá	701	Sololá	3	Barraneche	5	Mayo	2023-05-18T00:00:00	2024-11-06T06:00:00	1	Precipitación	0
26360	7	Sololá	701	Sololá	3	Barraneche	5	Mayo	2023-05-18T00:00:00	2024-11-06T06:00:00	8	Radiación solar	8
26361	7	Sololá	701	Sololá	3	Barraneche	5	Mayo	2023-05-18T00:00:00	2024-11-06T07:00:00	2	Temperatura media	13.1
26362	7	Sololá	701	Sololá	3	Barraneche	5	Mayo	2023-05-18T00:00:00	2024-11-06T07:00:00	4	Temperatura máxima	13.1
26363	7	Sololá	701	Sololá	3	Barraneche	5	Mayo	2023-05-18T00:00:00	2024-11-06T07:00:00	3	Temperatura mínima	11.2
26364	7	Sololá	701	Sololá	3	Barraneche	5	Mayo	2023-05-18T00:00:00	2024-11-06T07:00:00	5	Humedad	70
26365	7	Sololá	701	Sololá	3	Barraneche	5	Mayo	2023-05-18T00:00:00	2024-11-06T07:00:00	6	Velocidad del viento	4.8
26366	7	Sololá	701	Sololá	3	Barraneche	5	Mayo	2023-05-18T00:00:00	2024-11-06T07:00:00	7	Dirección del viento	4.83
26367	7	Sololá	701	Sololá	3	Barraneche	5	Mayo	2023-05-18T00:00:00	2024-11-06T07:00:00	1	Precipitación	0
26368	7	Sololá	701	Sololá	3	Barraneche	5	Mayo	2023-05-18T00:00:00	2024-11-06T07:00:00	8	Radiación solar	101
26369	7	Sololá	701	Sololá	3	Barraneche	5	Mayo	2023-05-18T00:00:00	2024-11-06T08:00:00	2	Temperatura media	15.8
26370	7	Sololá	701	Sololá	3	Barraneche	5	Mayo	2023-05-18T00:00:00	2024-11-06T08:00:00	4	Temperatura máxima	15.8
26371	7	Sololá	701	Sololá	3	Barraneche	5	Mayo	2023-05-18T00:00:00	2024-11-06T08:00:00	3	Temperatura mínima	13.1
26372	7	Sololá	701	Sololá	3	Barraneche	5	Mayo	2023-05-18T00:00:00	2024-11-06T08:00:00	5	Humedad	66
26373	7	Sololá	701	Sololá	3	Barraneche	5	Mayo	2023-05-18T00:00:00	2024-11-06T08:00:00	6	Velocidad del viento	1.6
26374	7	Sololá	701	Sololá	3	Barraneche	5	Mayo	2023-05-18T00:00:00	2024-11-06T08:00:00	7	Dirección del viento	1.61
26375	7	Sololá	701	Sololá	3	Barraneche	5	Mayo	2023-05-18T00:00:00	2024-11-06T08:00:00	1	Precipitación	0
26376	7	Sololá	701	Sololá	3	Barraneche	5	Mayo	2023-05-18T00:00:00	2024-11-06T08:00:00	8	Radiación solar	317
26377	7	Sololá	701	Sololá	3	Barraneche	5	Mayo	2023-05-18T00:00:00	2024-11-06T09:00:00	2	Temperatura media	17.8
26378	7	Sololá	701	Sololá	3	Barraneche	5	Mayo	2023-05-18T00:00:00	2024-11-06T09:00:00	4	Temperatura máxima	17.8
26379	7	Sololá	701	Sololá	3	Barraneche	5	Mayo	2023-05-18T00:00:00	2024-11-06T09:00:00	3	Temperatura mínima	15.8
26380	7	Sololá	701	Sololá	3	Barraneche	5	Mayo	2023-05-18T00:00:00	2024-11-06T09:00:00	5	Humedad	59
26381	7	Sololá	701	Sololá	3	Barraneche	5	Mayo	2023-05-18T00:00:00	2024-11-06T09:00:00	6	Velocidad del viento	1.6
26382	7	Sololá	701	Sololá	3	Barraneche	5	Mayo	2023-05-18T00:00:00	2024-11-06T09:00:00	7	Dirección del viento	1.61
26383	7	Sololá	701	Sololá	3	Barraneche	5	Mayo	2023-05-18T00:00:00	2024-11-06T09:00:00	1	Precipitación	0
26384	7	Sololá	701	Sololá	3	Barraneche	5	Mayo	2023-05-18T00:00:00	2024-11-06T09:00:00	8	Radiación solar	502
26385	7	Sololá	701	Sololá	3	Barraneche	5	Mayo	2023-05-18T00:00:00	2024-11-06T10:00:00	2	Temperatura media	18
26386	7	Sololá	701	Sololá	3	Barraneche	5	Mayo	2023-05-18T00:00:00	2024-11-06T10:00:00	4	Temperatura máxima	18.6
26387	7	Sololá	701	Sololá	3	Barraneche	5	Mayo	2023-05-18T00:00:00	2024-11-06T10:00:00	3	Temperatura mínima	17.8
26388	7	Sololá	701	Sololá	3	Barraneche	5	Mayo	2023-05-18T00:00:00	2024-11-06T10:00:00	5	Humedad	63
26389	7	Sololá	701	Sololá	3	Barraneche	5	Mayo	2023-05-18T00:00:00	2024-11-06T10:00:00	6	Velocidad del viento	4.8
26390	7	Sololá	701	Sololá	3	Barraneche	5	Mayo	2023-05-18T00:00:00	2024-11-06T10:00:00	7	Dirección del viento	4.83
26391	7	Sololá	701	Sololá	3	Barraneche	5	Mayo	2023-05-18T00:00:00	2024-11-06T10:00:00	1	Precipitación	0
26392	7	Sololá	701	Sololá	3	Barraneche	5	Mayo	2023-05-18T00:00:00	2024-11-06T10:00:00	8	Radiación solar	521
26393	7	Sololá	701	Sololá	3	Barraneche	5	Mayo	2023-05-18T00:00:00	2024-11-06T11:00:00	2	Temperatura media	18.6
26394	7	Sololá	701	Sololá	3	Barraneche	5	Mayo	2023-05-18T00:00:00	2024-11-06T11:00:00	4	Temperatura máxima	18.6
26395	7	Sololá	701	Sololá	3	Barraneche	5	Mayo	2023-05-18T00:00:00	2024-11-06T11:00:00	3	Temperatura mínima	17.7
26396	7	Sololá	701	Sololá	3	Barraneche	5	Mayo	2023-05-18T00:00:00	2024-11-06T11:00:00	5	Humedad	63
26397	7	Sololá	701	Sololá	3	Barraneche	5	Mayo	2023-05-18T00:00:00	2024-11-06T11:00:00	6	Velocidad del viento	6.4
26398	7	Sololá	701	Sololá	3	Barraneche	5	Mayo	2023-05-18T00:00:00	2024-11-06T11:00:00	7	Dirección del viento	6.44
26399	7	Sololá	701	Sololá	3	Barraneche	5	Mayo	2023-05-18T00:00:00	2024-11-06T11:00:00	1	Precipitación	0
26400	7	Sololá	701	Sololá	3	Barraneche	5	Mayo	2023-05-18T00:00:00	2024-11-06T11:00:00	8	Radiación solar	246
26401	7	Sololá	701	Sololá	3	Barraneche	5	Mayo	2023-05-18T00:00:00	2024-11-06T12:00:00	2	Temperatura media	18.7
26402	7	Sololá	701	Sololá	3	Barraneche	5	Mayo	2023-05-18T00:00:00	2024-11-06T12:00:00	4	Temperatura máxima	19.7
26403	7	Sololá	701	Sololá	3	Barraneche	5	Mayo	2023-05-18T00:00:00	2024-11-06T12:00:00	3	Temperatura mínima	18.6
26404	7	Sololá	701	Sololá	3	Barraneche	5	Mayo	2023-05-18T00:00:00	2024-11-06T12:00:00	5	Humedad	63
26405	7	Sololá	701	Sololá	3	Barraneche	5	Mayo	2023-05-18T00:00:00	2024-11-06T12:00:00	6	Velocidad del viento	12.9
26406	7	Sololá	701	Sololá	3	Barraneche	5	Mayo	2023-05-18T00:00:00	2024-11-06T12:00:00	7	Dirección del viento	12.87
26407	7	Sololá	701	Sololá	3	Barraneche	5	Mayo	2023-05-18T00:00:00	2024-11-06T12:00:00	1	Precipitación	0
26408	7	Sololá	701	Sololá	3	Barraneche	5	Mayo	2023-05-18T00:00:00	2024-11-06T12:00:00	8	Radiación solar	617
26409	7	Sololá	701	Sololá	3	Barraneche	5	Mayo	2023-05-18T00:00:00	2024-11-06T13:00:00	2	Temperatura media	18.4
26410	7	Sololá	701	Sololá	3	Barraneche	5	Mayo	2023-05-18T00:00:00	2024-11-06T13:00:00	4	Temperatura máxima	18.8
26411	7	Sololá	701	Sololá	3	Barraneche	5	Mayo	2023-05-18T00:00:00	2024-11-06T13:00:00	3	Temperatura mínima	18.3
26412	7	Sololá	701	Sololá	3	Barraneche	5	Mayo	2023-05-18T00:00:00	2024-11-06T13:00:00	5	Humedad	68
26413	7	Sololá	701	Sololá	3	Barraneche	5	Mayo	2023-05-18T00:00:00	2024-11-06T13:00:00	6	Velocidad del viento	9.7
26414	7	Sololá	701	Sololá	3	Barraneche	5	Mayo	2023-05-18T00:00:00	2024-11-06T13:00:00	7	Dirección del viento	9.66
26415	7	Sololá	701	Sololá	3	Barraneche	5	Mayo	2023-05-18T00:00:00	2024-11-06T13:00:00	1	Precipitación	0
26416	7	Sololá	701	Sololá	3	Barraneche	5	Mayo	2023-05-18T00:00:00	2024-11-06T13:00:00	8	Radiación solar	382
26417	7	Sololá	701	Sololá	3	Barraneche	5	Mayo	2023-05-18T00:00:00	2024-11-06T14:00:00	2	Temperatura media	18.8
26418	7	Sololá	701	Sololá	3	Barraneche	5	Mayo	2023-05-18T00:00:00	2024-11-06T14:00:00	4	Temperatura máxima	18.9
26419	7	Sololá	701	Sololá	3	Barraneche	5	Mayo	2023-05-18T00:00:00	2024-11-06T14:00:00	3	Temperatura mínima	18.3
26420	7	Sololá	701	Sololá	3	Barraneche	5	Mayo	2023-05-18T00:00:00	2024-11-06T14:00:00	5	Humedad	68
26421	7	Sololá	701	Sololá	3	Barraneche	5	Mayo	2023-05-18T00:00:00	2024-11-06T14:00:00	6	Velocidad del viento	9.7
26422	7	Sololá	701	Sololá	3	Barraneche	5	Mayo	2023-05-18T00:00:00	2024-11-06T14:00:00	7	Dirección del viento	9.66
26423	7	Sololá	701	Sololá	3	Barraneche	5	Mayo	2023-05-18T00:00:00	2024-11-06T14:00:00	1	Precipitación	0
26424	7	Sololá	701	Sololá	3	Barraneche	5	Mayo	2023-05-18T00:00:00	2024-11-06T14:00:00	8	Radiación solar	582
26425	7	Sololá	701	Sololá	3	Barraneche	5	Mayo	2023-05-18T00:00:00	2024-11-06T15:00:00	2	Temperatura media	18.7
26426	7	Sololá	701	Sololá	3	Barraneche	5	Mayo	2023-05-18T00:00:00	2024-11-06T15:00:00	4	Temperatura máxima	19.3
26427	7	Sololá	701	Sololá	3	Barraneche	5	Mayo	2023-05-18T00:00:00	2024-11-06T15:00:00	3	Temperatura mínima	18.7
26428	7	Sololá	701	Sololá	3	Barraneche	5	Mayo	2023-05-18T00:00:00	2024-11-06T15:00:00	5	Humedad	69
26429	7	Sololá	701	Sololá	3	Barraneche	5	Mayo	2023-05-18T00:00:00	2024-11-06T15:00:00	6	Velocidad del viento	12.9
26430	7	Sololá	701	Sololá	3	Barraneche	5	Mayo	2023-05-18T00:00:00	2024-11-06T15:00:00	7	Dirección del viento	12.87
26431	7	Sololá	701	Sololá	3	Barraneche	5	Mayo	2023-05-18T00:00:00	2024-11-06T15:00:00	1	Precipitación	0
26432	7	Sololá	701	Sololá	3	Barraneche	5	Mayo	2023-05-18T00:00:00	2024-11-06T15:00:00	8	Radiación solar	570
26433	7	Sololá	701	Sololá	3	Barraneche	5	Mayo	2023-05-18T00:00:00	2024-11-06T16:00:00	2	Temperatura media	18.9
26434	7	Sololá	701	Sololá	3	Barraneche	5	Mayo	2023-05-18T00:00:00	2024-11-06T16:00:00	4	Temperatura máxima	19
26435	7	Sololá	701	Sololá	3	Barraneche	5	Mayo	2023-05-18T00:00:00	2024-11-06T16:00:00	3	Temperatura mínima	18.4
26436	7	Sololá	701	Sololá	3	Barraneche	5	Mayo	2023-05-18T00:00:00	2024-11-06T16:00:00	5	Humedad	70
26437	7	Sololá	701	Sololá	3	Barraneche	5	Mayo	2023-05-18T00:00:00	2024-11-06T16:00:00	6	Velocidad del viento	11.3
26438	7	Sololá	701	Sololá	3	Barraneche	5	Mayo	2023-05-18T00:00:00	2024-11-06T16:00:00	7	Dirección del viento	11.27
26439	7	Sololá	701	Sololá	3	Barraneche	5	Mayo	2023-05-18T00:00:00	2024-11-06T16:00:00	1	Precipitación	0
26440	7	Sololá	701	Sololá	3	Barraneche	5	Mayo	2023-05-18T00:00:00	2024-11-06T16:00:00	8	Radiación solar	422
26441	7	Sololá	701	Sololá	3	Barraneche	5	Mayo	2023-05-18T00:00:00	2024-11-06T17:00:00	2	Temperatura media	18.1
26442	7	Sololá	701	Sololá	3	Barraneche	5	Mayo	2023-05-18T00:00:00	2024-11-06T17:00:00	4	Temperatura máxima	18.9
26443	7	Sololá	701	Sololá	3	Barraneche	5	Mayo	2023-05-18T00:00:00	2024-11-06T17:00:00	3	Temperatura mínima	18
26444	7	Sololá	701	Sololá	3	Barraneche	5	Mayo	2023-05-18T00:00:00	2024-11-06T17:00:00	5	Humedad	72
26445	7	Sololá	701	Sololá	3	Barraneche	5	Mayo	2023-05-18T00:00:00	2024-11-06T17:00:00	6	Velocidad del viento	9.7
26446	7	Sololá	701	Sololá	3	Barraneche	5	Mayo	2023-05-18T00:00:00	2024-11-06T17:00:00	7	Dirección del viento	9.66
26447	7	Sololá	701	Sololá	3	Barraneche	5	Mayo	2023-05-18T00:00:00	2024-11-06T17:00:00	1	Precipitación	0
26448	7	Sololá	701	Sololá	3	Barraneche	5	Mayo	2023-05-18T00:00:00	2024-11-06T17:00:00	8	Radiación solar	312
26449	7	Sololá	701	Sololá	3	Barraneche	5	Mayo	2023-05-18T00:00:00	2024-11-06T18:00:00	2	Temperatura media	18.1
26450	7	Sololá	701	Sololá	3	Barraneche	5	Mayo	2023-05-18T00:00:00	2024-11-06T18:00:00	4	Temperatura máxima	18.2
26451	7	Sololá	701	Sololá	3	Barraneche	5	Mayo	2023-05-18T00:00:00	2024-11-06T18:00:00	3	Temperatura mínima	17
26452	7	Sololá	701	Sololá	3	Barraneche	5	Mayo	2023-05-18T00:00:00	2024-11-06T18:00:00	5	Humedad	62
26453	7	Sololá	701	Sololá	3	Barraneche	5	Mayo	2023-05-18T00:00:00	2024-11-06T18:00:00	6	Velocidad del viento	9.7
26454	7	Sololá	701	Sololá	3	Barraneche	5	Mayo	2023-05-18T00:00:00	2024-11-06T18:00:00	7	Dirección del viento	9.66
26455	7	Sololá	701	Sololá	3	Barraneche	5	Mayo	2023-05-18T00:00:00	2024-11-06T18:00:00	1	Precipitación	0
26456	7	Sololá	701	Sololá	3	Barraneche	5	Mayo	2023-05-18T00:00:00	2024-11-06T18:00:00	8	Radiación solar	39
26457	7	Sololá	701	Sololá	3	Barraneche	5	Mayo	2023-05-18T00:00:00	2024-11-06T19:00:00	2	Temperatura media	17.3
26458	7	Sololá	701	Sololá	3	Barraneche	5	Mayo	2023-05-18T00:00:00	2024-11-06T19:00:00	4	Temperatura máxima	18.1
26459	7	Sololá	701	Sololá	3	Barraneche	5	Mayo	2023-05-18T00:00:00	2024-11-06T19:00:00	3	Temperatura mínima	17.3
26460	7	Sololá	701	Sololá	3	Barraneche	5	Mayo	2023-05-18T00:00:00	2024-11-06T19:00:00	5	Humedad	53
26461	7	Sololá	701	Sololá	3	Barraneche	5	Mayo	2023-05-18T00:00:00	2024-11-06T19:00:00	6	Velocidad del viento	11.3
26462	7	Sololá	701	Sololá	3	Barraneche	5	Mayo	2023-05-18T00:00:00	2024-11-06T19:00:00	7	Dirección del viento	11.27
26463	7	Sololá	701	Sololá	3	Barraneche	5	Mayo	2023-05-18T00:00:00	2024-11-06T19:00:00	1	Precipitación	0
26464	7	Sololá	701	Sololá	3	Barraneche	5	Mayo	2023-05-18T00:00:00	2024-11-06T19:00:00	8	Radiación solar	0
26465	7	Sololá	701	Sololá	3	Barraneche	5	Mayo	2023-05-18T00:00:00	2024-11-06T20:00:00	2	Temperatura media	16.4
26466	7	Sololá	701	Sololá	3	Barraneche	5	Mayo	2023-05-18T00:00:00	2024-11-06T20:00:00	4	Temperatura máxima	17.3
26467	7	Sololá	701	Sololá	3	Barraneche	5	Mayo	2023-05-18T00:00:00	2024-11-06T20:00:00	3	Temperatura mínima	16.4
26468	7	Sololá	701	Sololá	3	Barraneche	5	Mayo	2023-05-18T00:00:00	2024-11-06T20:00:00	5	Humedad	62
26469	7	Sololá	701	Sololá	3	Barraneche	5	Mayo	2023-05-18T00:00:00	2024-11-06T20:00:00	6	Velocidad del viento	6.4
26470	7	Sololá	701	Sololá	3	Barraneche	5	Mayo	2023-05-18T00:00:00	2024-11-06T20:00:00	7	Dirección del viento	6.44
26471	7	Sololá	701	Sololá	3	Barraneche	5	Mayo	2023-05-18T00:00:00	2024-11-06T20:00:00	1	Precipitación	0
26472	7	Sololá	701	Sololá	3	Barraneche	5	Mayo	2023-05-18T00:00:00	2024-11-06T20:00:00	8	Radiación solar	0
26473	7	Sololá	701	Sololá	3	Barraneche	5	Mayo	2023-05-18T00:00:00	2024-11-06T21:00:00	2	Temperatura media	15.8
26474	7	Sololá	701	Sololá	3	Barraneche	5	Mayo	2023-05-18T00:00:00	2024-11-06T21:00:00	4	Temperatura máxima	16.5
26475	7	Sololá	701	Sololá	3	Barraneche	5	Mayo	2023-05-18T00:00:00	2024-11-06T21:00:00	3	Temperatura mínima	15.8
26476	7	Sololá	701	Sololá	3	Barraneche	5	Mayo	2023-05-18T00:00:00	2024-11-06T21:00:00	5	Humedad	68
26477	7	Sololá	701	Sololá	3	Barraneche	5	Mayo	2023-05-18T00:00:00	2024-11-06T21:00:00	6	Velocidad del viento	6.4
26478	7	Sololá	701	Sololá	3	Barraneche	5	Mayo	2023-05-18T00:00:00	2024-11-06T21:00:00	7	Dirección del viento	6.44
26479	7	Sololá	701	Sololá	3	Barraneche	5	Mayo	2023-05-18T00:00:00	2024-11-06T21:00:00	1	Precipitación	0
26480	7	Sololá	701	Sololá	3	Barraneche	5	Mayo	2023-05-18T00:00:00	2024-11-06T21:00:00	8	Radiación solar	0
26481	7	Sololá	701	Sololá	3	Barraneche	5	Mayo	2023-05-18T00:00:00	2024-11-06T22:00:00	2	Temperatura media	15.5
26482	7	Sololá	701	Sololá	3	Barraneche	5	Mayo	2023-05-18T00:00:00	2024-11-06T22:00:00	4	Temperatura máxima	16
26483	7	Sololá	701	Sololá	3	Barraneche	5	Mayo	2023-05-18T00:00:00	2024-11-06T22:00:00	3	Temperatura mínima	15.5
26484	7	Sololá	701	Sololá	3	Barraneche	5	Mayo	2023-05-18T00:00:00	2024-11-06T22:00:00	5	Humedad	65
26485	7	Sololá	701	Sololá	3	Barraneche	5	Mayo	2023-05-18T00:00:00	2024-11-06T22:00:00	6	Velocidad del viento	8
26486	7	Sololá	701	Sololá	3	Barraneche	5	Mayo	2023-05-18T00:00:00	2024-11-06T22:00:00	7	Dirección del viento	8.05
26487	7	Sololá	701	Sololá	3	Barraneche	5	Mayo	2023-05-18T00:00:00	2024-11-06T22:00:00	1	Precipitación	0
26488	7	Sololá	701	Sololá	3	Barraneche	5	Mayo	2023-05-18T00:00:00	2024-11-06T22:00:00	8	Radiación solar	0
26489	7	Sololá	701	Sololá	3	Barraneche	5	Mayo	2023-05-18T00:00:00	2024-11-06T23:00:00	2	Temperatura media	15.6
26490	7	Sololá	701	Sololá	3	Barraneche	5	Mayo	2023-05-18T00:00:00	2024-11-06T23:00:00	4	Temperatura máxima	15.7
26491	7	Sololá	701	Sololá	3	Barraneche	5	Mayo	2023-05-18T00:00:00	2024-11-06T23:00:00	3	Temperatura mínima	15.4
26492	7	Sololá	701	Sololá	3	Barraneche	5	Mayo	2023-05-18T00:00:00	2024-11-06T23:00:00	5	Humedad	64
26493	7	Sololá	701	Sololá	3	Barraneche	5	Mayo	2023-05-18T00:00:00	2024-11-06T23:00:00	6	Velocidad del viento	9.7
26494	7	Sololá	701	Sololá	3	Barraneche	5	Mayo	2023-05-18T00:00:00	2024-11-06T23:00:00	7	Dirección del viento	9.66
26495	7	Sololá	701	Sololá	3	Barraneche	5	Mayo	2023-05-18T00:00:00	2024-11-06T23:00:00	1	Precipitación	0
26496	7	Sololá	701	Sololá	3	Barraneche	5	Mayo	2023-05-18T00:00:00	2024-11-06T23:00:00	8	Radiación solar	0
26497	7	Sololá	701	Sololá	3	Barraneche	5	Mayo	2023-05-19T00:00:00	2024-11-06T00:00:00	2	Temperatura media	15.6
26498	7	Sololá	701	Sololá	3	Barraneche	5	Mayo	2023-05-19T00:00:00	2024-11-06T00:00:00	4	Temperatura máxima	15.6
26499	7	Sololá	701	Sololá	3	Barraneche	5	Mayo	2023-05-19T00:00:00	2024-11-06T00:00:00	3	Temperatura mínima	15.3
26500	7	Sololá	701	Sololá	3	Barraneche	5	Mayo	2023-05-19T00:00:00	2024-11-06T00:00:00	5	Humedad	65
26501	7	Sololá	701	Sololá	3	Barraneche	5	Mayo	2023-05-19T00:00:00	2024-11-06T00:00:00	6	Velocidad del viento	8
26502	7	Sololá	701	Sololá	3	Barraneche	5	Mayo	2023-05-19T00:00:00	2024-11-06T00:00:00	7	Dirección del viento	8.05
26503	7	Sololá	701	Sololá	3	Barraneche	5	Mayo	2023-05-19T00:00:00	2024-11-06T00:00:00	1	Precipitación	0
26504	7	Sololá	701	Sololá	3	Barraneche	5	Mayo	2023-05-19T00:00:00	2024-11-06T00:00:00	8	Radiación solar	0
26505	7	Sololá	701	Sololá	3	Barraneche	5	Mayo	2023-05-19T00:00:00	2024-11-06T01:00:00	2	Temperatura media	15.5
26506	7	Sololá	701	Sololá	3	Barraneche	5	Mayo	2023-05-19T00:00:00	2024-11-06T01:00:00	4	Temperatura máxima	15.7
26507	7	Sololá	701	Sololá	3	Barraneche	5	Mayo	2023-05-19T00:00:00	2024-11-06T01:00:00	3	Temperatura mínima	15.4
26508	7	Sololá	701	Sololá	3	Barraneche	5	Mayo	2023-05-19T00:00:00	2024-11-06T01:00:00	5	Humedad	65
26509	7	Sololá	701	Sololá	3	Barraneche	5	Mayo	2023-05-19T00:00:00	2024-11-06T01:00:00	6	Velocidad del viento	11.3
26510	7	Sololá	701	Sololá	3	Barraneche	5	Mayo	2023-05-19T00:00:00	2024-11-06T01:00:00	7	Dirección del viento	11.27
26511	7	Sololá	701	Sololá	3	Barraneche	5	Mayo	2023-05-19T00:00:00	2024-11-06T01:00:00	1	Precipitación	0
26512	7	Sololá	701	Sololá	3	Barraneche	5	Mayo	2023-05-19T00:00:00	2024-11-06T01:00:00	8	Radiación solar	0
26513	7	Sololá	701	Sololá	3	Barraneche	5	Mayo	2023-05-19T00:00:00	2024-11-06T02:00:00	2	Temperatura media	14.4
26514	7	Sololá	701	Sololá	3	Barraneche	5	Mayo	2023-05-19T00:00:00	2024-11-06T02:00:00	4	Temperatura máxima	15.6
26515	7	Sololá	701	Sololá	3	Barraneche	5	Mayo	2023-05-19T00:00:00	2024-11-06T02:00:00	3	Temperatura mínima	14.4
26516	7	Sololá	701	Sololá	3	Barraneche	5	Mayo	2023-05-19T00:00:00	2024-11-06T02:00:00	5	Humedad	68
26517	7	Sololá	701	Sololá	3	Barraneche	5	Mayo	2023-05-19T00:00:00	2024-11-06T02:00:00	6	Velocidad del viento	4.8
26518	7	Sololá	701	Sololá	3	Barraneche	5	Mayo	2023-05-19T00:00:00	2024-11-06T02:00:00	7	Dirección del viento	4.83
26519	7	Sololá	701	Sololá	3	Barraneche	5	Mayo	2023-05-19T00:00:00	2024-11-06T02:00:00	1	Precipitación	0
26520	7	Sololá	701	Sololá	3	Barraneche	5	Mayo	2023-05-19T00:00:00	2024-11-06T02:00:00	8	Radiación solar	0
26521	7	Sololá	701	Sololá	3	Barraneche	5	Mayo	2023-05-19T00:00:00	2024-11-06T03:00:00	2	Temperatura media	15.1
26522	7	Sololá	701	Sololá	3	Barraneche	5	Mayo	2023-05-19T00:00:00	2024-11-06T03:00:00	4	Temperatura máxima	15.1
26523	7	Sololá	701	Sololá	3	Barraneche	5	Mayo	2023-05-19T00:00:00	2024-11-06T03:00:00	3	Temperatura mínima	13.8
26524	7	Sololá	701	Sololá	3	Barraneche	5	Mayo	2023-05-19T00:00:00	2024-11-06T03:00:00	5	Humedad	65
26525	7	Sololá	701	Sololá	3	Barraneche	5	Mayo	2023-05-19T00:00:00	2024-11-06T03:00:00	6	Velocidad del viento	4.8
26526	7	Sololá	701	Sololá	3	Barraneche	5	Mayo	2023-05-19T00:00:00	2024-11-06T03:00:00	7	Dirección del viento	4.83
26527	7	Sololá	701	Sololá	3	Barraneche	5	Mayo	2023-05-19T00:00:00	2024-11-06T03:00:00	1	Precipitación	0
26528	7	Sololá	701	Sololá	3	Barraneche	5	Mayo	2023-05-19T00:00:00	2024-11-06T03:00:00	8	Radiación solar	0
26529	7	Sololá	701	Sololá	3	Barraneche	5	Mayo	2023-05-19T00:00:00	2024-11-06T04:00:00	2	Temperatura media	13.8
26530	7	Sololá	701	Sololá	3	Barraneche	5	Mayo	2023-05-19T00:00:00	2024-11-06T04:00:00	4	Temperatura máxima	15.1
26531	7	Sololá	701	Sololá	3	Barraneche	5	Mayo	2023-05-19T00:00:00	2024-11-06T04:00:00	3	Temperatura mínima	13.8
26532	7	Sololá	701	Sololá	3	Barraneche	5	Mayo	2023-05-19T00:00:00	2024-11-06T04:00:00	5	Humedad	69
26533	7	Sololá	701	Sololá	3	Barraneche	5	Mayo	2023-05-19T00:00:00	2024-11-06T04:00:00	6	Velocidad del viento	4.8
26534	7	Sololá	701	Sololá	3	Barraneche	5	Mayo	2023-05-19T00:00:00	2024-11-06T04:00:00	7	Dirección del viento	4.83
26535	7	Sololá	701	Sololá	3	Barraneche	5	Mayo	2023-05-19T00:00:00	2024-11-06T04:00:00	1	Precipitación	0
26536	7	Sololá	701	Sololá	3	Barraneche	5	Mayo	2023-05-19T00:00:00	2024-11-06T04:00:00	8	Radiación solar	0
26537	7	Sololá	701	Sololá	3	Barraneche	5	Mayo	2023-05-19T00:00:00	2024-11-06T05:00:00	2	Temperatura media	13.6
26538	7	Sololá	701	Sololá	3	Barraneche	5	Mayo	2023-05-19T00:00:00	2024-11-06T05:00:00	4	Temperatura máxima	13.9
26539	7	Sololá	701	Sololá	3	Barraneche	5	Mayo	2023-05-19T00:00:00	2024-11-06T05:00:00	3	Temperatura mínima	13.3
26540	7	Sololá	701	Sololá	3	Barraneche	5	Mayo	2023-05-19T00:00:00	2024-11-06T05:00:00	5	Humedad	68
26541	7	Sololá	701	Sololá	3	Barraneche	5	Mayo	2023-05-19T00:00:00	2024-11-06T05:00:00	6	Velocidad del viento	3.2
26542	7	Sololá	701	Sololá	3	Barraneche	5	Mayo	2023-05-19T00:00:00	2024-11-06T05:00:00	7	Dirección del viento	3.22
26543	7	Sololá	701	Sololá	3	Barraneche	5	Mayo	2023-05-19T00:00:00	2024-11-06T05:00:00	1	Precipitación	0
26544	7	Sololá	701	Sololá	3	Barraneche	5	Mayo	2023-05-19T00:00:00	2024-11-06T05:00:00	8	Radiación solar	0
26545	7	Sololá	701	Sololá	3	Barraneche	5	Mayo	2023-05-19T00:00:00	2024-11-06T06:00:00	2	Temperatura media	14.8
26546	7	Sololá	701	Sololá	3	Barraneche	5	Mayo	2023-05-19T00:00:00	2024-11-06T06:00:00	4	Temperatura máxima	15
26547	7	Sololá	701	Sololá	3	Barraneche	5	Mayo	2023-05-19T00:00:00	2024-11-06T06:00:00	3	Temperatura mínima	13.7
26548	7	Sololá	701	Sololá	3	Barraneche	5	Mayo	2023-05-19T00:00:00	2024-11-06T06:00:00	5	Humedad	65
26549	7	Sololá	701	Sololá	3	Barraneche	5	Mayo	2023-05-19T00:00:00	2024-11-06T06:00:00	6	Velocidad del viento	6.4
26550	7	Sololá	701	Sololá	3	Barraneche	5	Mayo	2023-05-19T00:00:00	2024-11-06T06:00:00	7	Dirección del viento	6.44
26551	7	Sololá	701	Sololá	3	Barraneche	5	Mayo	2023-05-19T00:00:00	2024-11-06T06:00:00	1	Precipitación	0
26552	7	Sololá	701	Sololá	3	Barraneche	5	Mayo	2023-05-19T00:00:00	2024-11-06T06:00:00	8	Radiación solar	6
26553	7	Sololá	701	Sololá	3	Barraneche	5	Mayo	2023-05-19T00:00:00	2024-11-06T07:00:00	2	Temperatura media	15.9
26554	7	Sololá	701	Sololá	3	Barraneche	5	Mayo	2023-05-19T00:00:00	2024-11-06T07:00:00	4	Temperatura máxima	15.9
26555	7	Sololá	701	Sololá	3	Barraneche	5	Mayo	2023-05-19T00:00:00	2024-11-06T07:00:00	3	Temperatura mínima	14.8
26556	7	Sololá	701	Sololá	3	Barraneche	5	Mayo	2023-05-19T00:00:00	2024-11-06T07:00:00	5	Humedad	61
26557	7	Sololá	701	Sololá	3	Barraneche	5	Mayo	2023-05-19T00:00:00	2024-11-06T07:00:00	6	Velocidad del viento	9.7
26558	7	Sololá	701	Sololá	3	Barraneche	5	Mayo	2023-05-19T00:00:00	2024-11-06T07:00:00	7	Dirección del viento	9.66
26559	7	Sololá	701	Sololá	3	Barraneche	5	Mayo	2023-05-19T00:00:00	2024-11-06T07:00:00	1	Precipitación	0
26560	7	Sololá	701	Sololá	3	Barraneche	5	Mayo	2023-05-19T00:00:00	2024-11-06T07:00:00	8	Radiación solar	126
26561	7	Sololá	701	Sololá	3	Barraneche	5	Mayo	2023-05-19T00:00:00	2024-11-06T08:00:00	2	Temperatura media	17.8
26562	7	Sololá	701	Sololá	3	Barraneche	5	Mayo	2023-05-19T00:00:00	2024-11-06T08:00:00	4	Temperatura máxima	17.8
26563	7	Sololá	701	Sololá	3	Barraneche	5	Mayo	2023-05-19T00:00:00	2024-11-06T08:00:00	3	Temperatura mínima	15.9
26564	7	Sololá	701	Sololá	3	Barraneche	5	Mayo	2023-05-19T00:00:00	2024-11-06T08:00:00	5	Humedad	44
26565	7	Sololá	701	Sololá	3	Barraneche	5	Mayo	2023-05-19T00:00:00	2024-11-06T08:00:00	6	Velocidad del viento	12.9
26566	7	Sololá	701	Sololá	3	Barraneche	5	Mayo	2023-05-19T00:00:00	2024-11-06T08:00:00	7	Dirección del viento	12.87
26567	7	Sololá	701	Sololá	3	Barraneche	5	Mayo	2023-05-19T00:00:00	2024-11-06T08:00:00	1	Precipitación	0
26568	7	Sololá	701	Sololá	3	Barraneche	5	Mayo	2023-05-19T00:00:00	2024-11-06T08:00:00	8	Radiación solar	386
26569	7	Sololá	701	Sololá	3	Barraneche	5	Mayo	2023-05-19T00:00:00	2024-11-06T09:00:00	2	Temperatura media	18.8
26570	7	Sololá	701	Sololá	3	Barraneche	5	Mayo	2023-05-19T00:00:00	2024-11-06T09:00:00	4	Temperatura máxima	18.8
26571	7	Sololá	701	Sololá	3	Barraneche	5	Mayo	2023-05-19T00:00:00	2024-11-06T09:00:00	3	Temperatura mínima	17.8
26572	7	Sololá	701	Sololá	3	Barraneche	5	Mayo	2023-05-19T00:00:00	2024-11-06T09:00:00	5	Humedad	45
26573	7	Sololá	701	Sololá	3	Barraneche	5	Mayo	2023-05-19T00:00:00	2024-11-06T09:00:00	6	Velocidad del viento	14.5
26574	7	Sololá	701	Sololá	3	Barraneche	5	Mayo	2023-05-19T00:00:00	2024-11-06T09:00:00	7	Dirección del viento	14.48
26575	7	Sololá	701	Sololá	3	Barraneche	5	Mayo	2023-05-19T00:00:00	2024-11-06T09:00:00	1	Precipitación	0
26576	7	Sololá	701	Sololá	3	Barraneche	5	Mayo	2023-05-19T00:00:00	2024-11-06T09:00:00	8	Radiación solar	622
26577	7	Sololá	701	Sololá	3	Barraneche	5	Mayo	2023-05-19T00:00:00	2024-11-06T10:00:00	2	Temperatura media	19.6
26578	7	Sololá	701	Sololá	3	Barraneche	5	Mayo	2023-05-19T00:00:00	2024-11-06T10:00:00	4	Temperatura máxima	19.7
26579	7	Sololá	701	Sololá	3	Barraneche	5	Mayo	2023-05-19T00:00:00	2024-11-06T10:00:00	3	Temperatura mínima	18.6
26580	7	Sololá	701	Sololá	3	Barraneche	5	Mayo	2023-05-19T00:00:00	2024-11-06T10:00:00	5	Humedad	42
26581	7	Sololá	701	Sololá	3	Barraneche	5	Mayo	2023-05-19T00:00:00	2024-11-06T10:00:00	6	Velocidad del viento	11.3
26582	7	Sololá	701	Sololá	3	Barraneche	5	Mayo	2023-05-19T00:00:00	2024-11-06T10:00:00	7	Dirección del viento	11.27
26583	7	Sololá	701	Sololá	3	Barraneche	5	Mayo	2023-05-19T00:00:00	2024-11-06T10:00:00	1	Precipitación	0
26584	7	Sololá	701	Sololá	3	Barraneche	5	Mayo	2023-05-19T00:00:00	2024-11-06T10:00:00	8	Radiación solar	820
26585	7	Sololá	701	Sololá	3	Barraneche	5	Mayo	2023-05-19T00:00:00	2024-11-06T11:00:00	2	Temperatura media	20
26586	7	Sololá	701	Sololá	3	Barraneche	5	Mayo	2023-05-19T00:00:00	2024-11-06T11:00:00	4	Temperatura máxima	20.1
26587	7	Sololá	701	Sololá	3	Barraneche	5	Mayo	2023-05-19T00:00:00	2024-11-06T11:00:00	3	Temperatura mínima	19.5
26588	7	Sololá	701	Sololá	3	Barraneche	5	Mayo	2023-05-19T00:00:00	2024-11-06T11:00:00	5	Humedad	39
26589	7	Sololá	701	Sololá	3	Barraneche	5	Mayo	2023-05-19T00:00:00	2024-11-06T11:00:00	6	Velocidad del viento	12.9
26590	7	Sololá	701	Sololá	3	Barraneche	5	Mayo	2023-05-19T00:00:00	2024-11-06T11:00:00	7	Dirección del viento	12.87
26591	7	Sololá	701	Sololá	3	Barraneche	5	Mayo	2023-05-19T00:00:00	2024-11-06T11:00:00	1	Precipitación	0
26592	7	Sololá	701	Sololá	3	Barraneche	5	Mayo	2023-05-19T00:00:00	2024-11-06T11:00:00	8	Radiación solar	899
26593	7	Sololá	701	Sololá	3	Barraneche	5	Mayo	2023-05-19T00:00:00	2024-11-06T12:00:00	2	Temperatura media	20.2
26594	7	Sololá	701	Sololá	3	Barraneche	5	Mayo	2023-05-19T00:00:00	2024-11-06T12:00:00	4	Temperatura máxima	20.4
26595	7	Sololá	701	Sololá	3	Barraneche	5	Mayo	2023-05-19T00:00:00	2024-11-06T12:00:00	3	Temperatura mínima	19.8
26596	7	Sololá	701	Sololá	3	Barraneche	5	Mayo	2023-05-19T00:00:00	2024-11-06T12:00:00	5	Humedad	31
26597	7	Sololá	701	Sololá	3	Barraneche	5	Mayo	2023-05-19T00:00:00	2024-11-06T12:00:00	6	Velocidad del viento	14.5
26598	7	Sololá	701	Sololá	3	Barraneche	5	Mayo	2023-05-19T00:00:00	2024-11-06T12:00:00	7	Dirección del viento	14.48
26599	7	Sololá	701	Sololá	3	Barraneche	5	Mayo	2023-05-19T00:00:00	2024-11-06T12:00:00	1	Precipitación	0
26600	7	Sololá	701	Sololá	3	Barraneche	5	Mayo	2023-05-19T00:00:00	2024-11-06T12:00:00	8	Radiación solar	1019
26601	7	Sololá	701	Sololá	3	Barraneche	5	Mayo	2023-05-19T00:00:00	2024-11-06T13:00:00	2	Temperatura media	21
26602	7	Sololá	701	Sololá	3	Barraneche	5	Mayo	2023-05-19T00:00:00	2024-11-06T13:00:00	4	Temperatura máxima	21.2
26603	7	Sololá	701	Sololá	3	Barraneche	5	Mayo	2023-05-19T00:00:00	2024-11-06T13:00:00	3	Temperatura mínima	20.2
26604	7	Sololá	701	Sololá	3	Barraneche	5	Mayo	2023-05-19T00:00:00	2024-11-06T13:00:00	5	Humedad	43
26605	7	Sololá	701	Sololá	3	Barraneche	5	Mayo	2023-05-19T00:00:00	2024-11-06T13:00:00	6	Velocidad del viento	12.9
26606	7	Sololá	701	Sololá	3	Barraneche	5	Mayo	2023-05-19T00:00:00	2024-11-06T13:00:00	7	Dirección del viento	12.87
26607	7	Sololá	701	Sololá	3	Barraneche	5	Mayo	2023-05-19T00:00:00	2024-11-06T13:00:00	1	Precipitación	0
26608	7	Sololá	701	Sololá	3	Barraneche	5	Mayo	2023-05-19T00:00:00	2024-11-06T13:00:00	8	Radiación solar	975
26609	7	Sololá	701	Sololá	3	Barraneche	5	Mayo	2023-05-19T00:00:00	2024-11-06T14:00:00	2	Temperatura media	20.6
26610	7	Sololá	701	Sololá	3	Barraneche	5	Mayo	2023-05-19T00:00:00	2024-11-06T14:00:00	4	Temperatura máxima	20.9
26611	7	Sololá	701	Sololá	3	Barraneche	5	Mayo	2023-05-19T00:00:00	2024-11-06T14:00:00	3	Temperatura mínima	20.1
26612	7	Sololá	701	Sololá	3	Barraneche	5	Mayo	2023-05-19T00:00:00	2024-11-06T14:00:00	5	Humedad	48
26613	7	Sololá	701	Sololá	3	Barraneche	5	Mayo	2023-05-19T00:00:00	2024-11-06T14:00:00	6	Velocidad del viento	9.7
26614	7	Sololá	701	Sololá	3	Barraneche	5	Mayo	2023-05-19T00:00:00	2024-11-06T14:00:00	7	Dirección del viento	9.66
26615	7	Sololá	701	Sololá	3	Barraneche	5	Mayo	2023-05-19T00:00:00	2024-11-06T14:00:00	1	Precipitación	0
26616	7	Sololá	701	Sololá	3	Barraneche	5	Mayo	2023-05-19T00:00:00	2024-11-06T14:00:00	8	Radiación solar	470
26617	7	Sololá	701	Sololá	3	Barraneche	5	Mayo	2023-05-19T00:00:00	2024-11-06T15:00:00	2	Temperatura media	19.9
26618	7	Sololá	701	Sololá	3	Barraneche	5	Mayo	2023-05-19T00:00:00	2024-11-06T15:00:00	4	Temperatura máxima	20.6
26619	7	Sololá	701	Sololá	3	Barraneche	5	Mayo	2023-05-19T00:00:00	2024-11-06T15:00:00	3	Temperatura mínima	19.4
26620	7	Sololá	701	Sololá	3	Barraneche	5	Mayo	2023-05-19T00:00:00	2024-11-06T15:00:00	5	Humedad	45
26621	7	Sololá	701	Sololá	3	Barraneche	5	Mayo	2023-05-19T00:00:00	2024-11-06T15:00:00	6	Velocidad del viento	11.3
26622	7	Sololá	701	Sololá	3	Barraneche	5	Mayo	2023-05-19T00:00:00	2024-11-06T15:00:00	7	Dirección del viento	11.27
26623	7	Sololá	701	Sololá	3	Barraneche	5	Mayo	2023-05-19T00:00:00	2024-11-06T15:00:00	1	Precipitación	0
26624	7	Sololá	701	Sololá	3	Barraneche	5	Mayo	2023-05-19T00:00:00	2024-11-06T15:00:00	8	Radiación solar	326
26625	7	Sololá	701	Sololá	3	Barraneche	5	Mayo	2023-05-19T00:00:00	2024-11-06T16:00:00	2	Temperatura media	20.2
26626	7	Sololá	701	Sololá	3	Barraneche	5	Mayo	2023-05-19T00:00:00	2024-11-06T16:00:00	4	Temperatura máxima	20.5
26627	7	Sololá	701	Sololá	3	Barraneche	5	Mayo	2023-05-19T00:00:00	2024-11-06T16:00:00	3	Temperatura mínima	19.4
26628	7	Sololá	701	Sololá	3	Barraneche	5	Mayo	2023-05-19T00:00:00	2024-11-06T16:00:00	5	Humedad	46
26629	7	Sololá	701	Sololá	3	Barraneche	5	Mayo	2023-05-19T00:00:00	2024-11-06T16:00:00	6	Velocidad del viento	12.9
26630	7	Sololá	701	Sololá	3	Barraneche	5	Mayo	2023-05-19T00:00:00	2024-11-06T16:00:00	7	Dirección del viento	12.87
26631	7	Sololá	701	Sololá	3	Barraneche	5	Mayo	2023-05-19T00:00:00	2024-11-06T16:00:00	1	Precipitación	0
26632	7	Sololá	701	Sololá	3	Barraneche	5	Mayo	2023-05-19T00:00:00	2024-11-06T16:00:00	8	Radiación solar	439
26633	7	Sololá	701	Sololá	3	Barraneche	5	Mayo	2023-05-19T00:00:00	2024-11-06T17:00:00	2	Temperatura media	18.9
26634	7	Sololá	701	Sololá	3	Barraneche	5	Mayo	2023-05-19T00:00:00	2024-11-06T17:00:00	4	Temperatura máxima	20.7
26635	7	Sololá	701	Sololá	3	Barraneche	5	Mayo	2023-05-19T00:00:00	2024-11-06T17:00:00	3	Temperatura mínima	18.9
26636	7	Sololá	701	Sololá	3	Barraneche	5	Mayo	2023-05-19T00:00:00	2024-11-06T17:00:00	5	Humedad	49
26637	7	Sololá	701	Sololá	3	Barraneche	5	Mayo	2023-05-19T00:00:00	2024-11-06T17:00:00	6	Velocidad del viento	12.9
26638	7	Sololá	701	Sololá	3	Barraneche	5	Mayo	2023-05-19T00:00:00	2024-11-06T17:00:00	7	Dirección del viento	12.87
26639	7	Sololá	701	Sololá	3	Barraneche	5	Mayo	2023-05-19T00:00:00	2024-11-06T17:00:00	1	Precipitación	0
26640	7	Sololá	701	Sololá	3	Barraneche	5	Mayo	2023-05-19T00:00:00	2024-11-06T17:00:00	8	Radiación solar	186
26641	7	Sololá	701	Sololá	3	Barraneche	5	Mayo	2023-05-19T00:00:00	2024-11-06T18:00:00	2	Temperatura media	17.9
26642	7	Sololá	701	Sololá	3	Barraneche	5	Mayo	2023-05-19T00:00:00	2024-11-06T18:00:00	4	Temperatura máxima	18.9
26643	7	Sololá	701	Sololá	3	Barraneche	5	Mayo	2023-05-19T00:00:00	2024-11-06T18:00:00	3	Temperatura mínima	17.9
26644	7	Sololá	701	Sololá	3	Barraneche	5	Mayo	2023-05-19T00:00:00	2024-11-06T18:00:00	5	Humedad	56
26645	7	Sololá	701	Sololá	3	Barraneche	5	Mayo	2023-05-19T00:00:00	2024-11-06T18:00:00	6	Velocidad del viento	14.5
26646	7	Sololá	701	Sololá	3	Barraneche	5	Mayo	2023-05-19T00:00:00	2024-11-06T18:00:00	7	Dirección del viento	14.48
26647	7	Sololá	701	Sololá	3	Barraneche	5	Mayo	2023-05-19T00:00:00	2024-11-06T18:00:00	1	Precipitación	0
26648	7	Sololá	701	Sololá	3	Barraneche	5	Mayo	2023-05-19T00:00:00	2024-11-06T18:00:00	8	Radiación solar	75
26649	7	Sololá	701	Sololá	3	Barraneche	5	Mayo	2023-05-19T00:00:00	2024-11-06T19:00:00	2	Temperatura media	16.9
26650	7	Sololá	701	Sololá	3	Barraneche	5	Mayo	2023-05-19T00:00:00	2024-11-06T19:00:00	4	Temperatura máxima	17.9
26651	7	Sololá	701	Sololá	3	Barraneche	5	Mayo	2023-05-19T00:00:00	2024-11-06T19:00:00	3	Temperatura mínima	16.9
26652	7	Sololá	701	Sololá	3	Barraneche	5	Mayo	2023-05-19T00:00:00	2024-11-06T19:00:00	5	Humedad	61
26653	7	Sololá	701	Sololá	3	Barraneche	5	Mayo	2023-05-19T00:00:00	2024-11-06T19:00:00	6	Velocidad del viento	11.3
26654	7	Sololá	701	Sololá	3	Barraneche	5	Mayo	2023-05-19T00:00:00	2024-11-06T19:00:00	7	Dirección del viento	11.27
26655	7	Sololá	701	Sololá	3	Barraneche	5	Mayo	2023-05-19T00:00:00	2024-11-06T19:00:00	1	Precipitación	0
26656	7	Sololá	701	Sololá	3	Barraneche	5	Mayo	2023-05-19T00:00:00	2024-11-06T19:00:00	8	Radiación solar	0
26657	7	Sololá	701	Sololá	3	Barraneche	5	Mayo	2023-05-19T00:00:00	2024-11-06T20:00:00	2	Temperatura media	16.3
26658	7	Sololá	701	Sololá	3	Barraneche	5	Mayo	2023-05-19T00:00:00	2024-11-06T20:00:00	4	Temperatura máxima	17
26659	7	Sololá	701	Sololá	3	Barraneche	5	Mayo	2023-05-19T00:00:00	2024-11-06T20:00:00	3	Temperatura mínima	16.3
26660	7	Sololá	701	Sololá	3	Barraneche	5	Mayo	2023-05-19T00:00:00	2024-11-06T20:00:00	5	Humedad	62
26661	7	Sololá	701	Sololá	3	Barraneche	5	Mayo	2023-05-19T00:00:00	2024-11-06T20:00:00	6	Velocidad del viento	9.7
26662	7	Sololá	701	Sololá	3	Barraneche	5	Mayo	2023-05-19T00:00:00	2024-11-06T20:00:00	7	Dirección del viento	9.66
26663	7	Sololá	701	Sololá	3	Barraneche	5	Mayo	2023-05-19T00:00:00	2024-11-06T20:00:00	1	Precipitación	0
26664	7	Sololá	701	Sololá	3	Barraneche	5	Mayo	2023-05-19T00:00:00	2024-11-06T20:00:00	8	Radiación solar	0
26665	7	Sololá	701	Sololá	3	Barraneche	5	Mayo	2023-05-19T00:00:00	2024-11-06T21:00:00	2	Temperatura media	15.5
26666	7	Sololá	701	Sololá	3	Barraneche	5	Mayo	2023-05-19T00:00:00	2024-11-06T21:00:00	4	Temperatura máxima	16.3
26667	7	Sololá	701	Sololá	3	Barraneche	5	Mayo	2023-05-19T00:00:00	2024-11-06T21:00:00	3	Temperatura mínima	15.5
26668	7	Sololá	701	Sololá	3	Barraneche	5	Mayo	2023-05-19T00:00:00	2024-11-06T21:00:00	5	Humedad	61
26669	7	Sololá	701	Sololá	3	Barraneche	5	Mayo	2023-05-19T00:00:00	2024-11-06T21:00:00	6	Velocidad del viento	9.7
26670	7	Sololá	701	Sololá	3	Barraneche	5	Mayo	2023-05-19T00:00:00	2024-11-06T21:00:00	7	Dirección del viento	9.66
26671	7	Sololá	701	Sololá	3	Barraneche	5	Mayo	2023-05-19T00:00:00	2024-11-06T21:00:00	1	Precipitación	0
26672	7	Sololá	701	Sololá	3	Barraneche	5	Mayo	2023-05-19T00:00:00	2024-11-06T21:00:00	8	Radiación solar	0
26673	7	Sololá	701	Sololá	3	Barraneche	5	Mayo	2023-05-19T00:00:00	2024-11-06T22:00:00	2	Temperatura media	15.3
26674	7	Sololá	701	Sololá	3	Barraneche	5	Mayo	2023-05-19T00:00:00	2024-11-06T22:00:00	4	Temperatura máxima	15.5
26675	7	Sololá	701	Sololá	3	Barraneche	5	Mayo	2023-05-19T00:00:00	2024-11-06T22:00:00	3	Temperatura mínima	15.2
26676	7	Sololá	701	Sololá	3	Barraneche	5	Mayo	2023-05-19T00:00:00	2024-11-06T22:00:00	5	Humedad	60
26677	7	Sololá	701	Sololá	3	Barraneche	5	Mayo	2023-05-19T00:00:00	2024-11-06T22:00:00	6	Velocidad del viento	14.5
26678	7	Sololá	701	Sololá	3	Barraneche	5	Mayo	2023-05-19T00:00:00	2024-11-06T22:00:00	7	Dirección del viento	14.48
26679	7	Sololá	701	Sololá	3	Barraneche	5	Mayo	2023-05-19T00:00:00	2024-11-06T22:00:00	1	Precipitación	0
26680	7	Sololá	701	Sololá	3	Barraneche	5	Mayo	2023-05-19T00:00:00	2024-11-06T22:00:00	8	Radiación solar	0
26681	7	Sololá	701	Sololá	3	Barraneche	5	Mayo	2023-05-19T00:00:00	2024-11-06T23:00:00	2	Temperatura media	15.1
26682	7	Sololá	701	Sololá	3	Barraneche	5	Mayo	2023-05-19T00:00:00	2024-11-06T23:00:00	4	Temperatura máxima	15.4
26683	7	Sololá	701	Sololá	3	Barraneche	5	Mayo	2023-05-19T00:00:00	2024-11-06T23:00:00	3	Temperatura mínima	15.1
26684	7	Sololá	701	Sololá	3	Barraneche	5	Mayo	2023-05-19T00:00:00	2024-11-06T23:00:00	5	Humedad	61
26685	7	Sololá	701	Sololá	3	Barraneche	5	Mayo	2023-05-19T00:00:00	2024-11-06T23:00:00	6	Velocidad del viento	6.4
26686	7	Sololá	701	Sololá	3	Barraneche	5	Mayo	2023-05-19T00:00:00	2024-11-06T23:00:00	7	Dirección del viento	6.44
26687	7	Sololá	701	Sololá	3	Barraneche	5	Mayo	2023-05-19T00:00:00	2024-11-06T23:00:00	1	Precipitación	0
26688	7	Sololá	701	Sololá	3	Barraneche	5	Mayo	2023-05-19T00:00:00	2024-11-06T23:00:00	8	Radiación solar	0
26689	7	Sololá	701	Sololá	3	Barraneche	5	Mayo	2023-05-20T00:00:00	2024-11-06T00:00:00	2	Temperatura media	14.7
26690	7	Sololá	701	Sololá	3	Barraneche	5	Mayo	2023-05-20T00:00:00	2024-11-06T00:00:00	4	Temperatura máxima	15.1
26691	7	Sololá	701	Sololá	3	Barraneche	5	Mayo	2023-05-20T00:00:00	2024-11-06T00:00:00	3	Temperatura mínima	14.5
26692	7	Sololá	701	Sololá	3	Barraneche	5	Mayo	2023-05-20T00:00:00	2024-11-06T00:00:00	5	Humedad	62
26693	7	Sololá	701	Sololá	3	Barraneche	5	Mayo	2023-05-20T00:00:00	2024-11-06T00:00:00	6	Velocidad del viento	4.8
26694	7	Sololá	701	Sololá	3	Barraneche	5	Mayo	2023-05-20T00:00:00	2024-11-06T00:00:00	7	Dirección del viento	4.83
26695	7	Sololá	701	Sololá	3	Barraneche	5	Mayo	2023-05-20T00:00:00	2024-11-06T00:00:00	1	Precipitación	0
26696	7	Sololá	701	Sololá	3	Barraneche	5	Mayo	2023-05-20T00:00:00	2024-11-06T00:00:00	8	Radiación solar	0
26697	7	Sololá	701	Sololá	3	Barraneche	5	Mayo	2023-05-20T00:00:00	2024-11-06T01:00:00	2	Temperatura media	13.9
26698	7	Sololá	701	Sololá	3	Barraneche	5	Mayo	2023-05-20T00:00:00	2024-11-06T01:00:00	4	Temperatura máxima	14.7
26699	7	Sololá	701	Sololá	3	Barraneche	5	Mayo	2023-05-20T00:00:00	2024-11-06T01:00:00	3	Temperatura mínima	13.8
26700	7	Sololá	701	Sololá	3	Barraneche	5	Mayo	2023-05-20T00:00:00	2024-11-06T01:00:00	5	Humedad	58
26701	7	Sololá	701	Sololá	3	Barraneche	5	Mayo	2023-05-20T00:00:00	2024-11-06T01:00:00	6	Velocidad del viento	6.4
26702	7	Sololá	701	Sololá	3	Barraneche	5	Mayo	2023-05-20T00:00:00	2024-11-06T01:00:00	7	Dirección del viento	6.44
26703	7	Sololá	701	Sololá	3	Barraneche	5	Mayo	2023-05-20T00:00:00	2024-11-06T01:00:00	1	Precipitación	0
26704	7	Sololá	701	Sololá	3	Barraneche	5	Mayo	2023-05-20T00:00:00	2024-11-06T01:00:00	8	Radiación solar	0
26705	7	Sololá	701	Sololá	3	Barraneche	5	Mayo	2023-05-20T00:00:00	2024-11-06T02:00:00	2	Temperatura media	13.2
26706	7	Sololá	701	Sololá	3	Barraneche	5	Mayo	2023-05-20T00:00:00	2024-11-06T02:00:00	4	Temperatura máxima	13.9
26707	7	Sololá	701	Sololá	3	Barraneche	5	Mayo	2023-05-20T00:00:00	2024-11-06T02:00:00	3	Temperatura mínima	12.8
26708	7	Sololá	701	Sololá	3	Barraneche	5	Mayo	2023-05-20T00:00:00	2024-11-06T02:00:00	5	Humedad	58
26709	7	Sololá	701	Sololá	3	Barraneche	5	Mayo	2023-05-20T00:00:00	2024-11-06T02:00:00	6	Velocidad del viento	3.2
26710	7	Sololá	701	Sololá	3	Barraneche	5	Mayo	2023-05-20T00:00:00	2024-11-06T02:00:00	7	Dirección del viento	3.22
26711	7	Sololá	701	Sololá	3	Barraneche	5	Mayo	2023-05-20T00:00:00	2024-11-06T02:00:00	1	Precipitación	0
26712	7	Sololá	701	Sololá	3	Barraneche	5	Mayo	2023-05-20T00:00:00	2024-11-06T02:00:00	8	Radiación solar	0
26713	7	Sololá	701	Sololá	3	Barraneche	5	Mayo	2023-05-20T00:00:00	2024-11-06T03:00:00	2	Temperatura media	13.2
26714	7	Sololá	701	Sololá	3	Barraneche	5	Mayo	2023-05-20T00:00:00	2024-11-06T03:00:00	4	Temperatura máxima	13.5
26715	7	Sololá	701	Sololá	3	Barraneche	5	Mayo	2023-05-20T00:00:00	2024-11-06T03:00:00	3	Temperatura mínima	12.6
26716	7	Sololá	701	Sololá	3	Barraneche	5	Mayo	2023-05-20T00:00:00	2024-11-06T03:00:00	5	Humedad	55
26717	7	Sololá	701	Sololá	3	Barraneche	5	Mayo	2023-05-20T00:00:00	2024-11-06T03:00:00	6	Velocidad del viento	3.2
26718	7	Sololá	701	Sololá	3	Barraneche	5	Mayo	2023-05-20T00:00:00	2024-11-06T03:00:00	7	Dirección del viento	3.22
26719	7	Sololá	701	Sololá	3	Barraneche	5	Mayo	2023-05-20T00:00:00	2024-11-06T03:00:00	1	Precipitación	0
26720	7	Sololá	701	Sololá	3	Barraneche	5	Mayo	2023-05-20T00:00:00	2024-11-06T03:00:00	8	Radiación solar	0
26721	7	Sololá	701	Sololá	3	Barraneche	5	Mayo	2023-05-20T00:00:00	2024-11-06T04:00:00	2	Temperatura media	14.7
26722	7	Sololá	701	Sololá	3	Barraneche	5	Mayo	2023-05-20T00:00:00	2024-11-06T04:00:00	4	Temperatura máxima	14.7
26723	7	Sololá	701	Sololá	3	Barraneche	5	Mayo	2023-05-20T00:00:00	2024-11-06T04:00:00	3	Temperatura mínima	12.8
26724	7	Sololá	701	Sololá	3	Barraneche	5	Mayo	2023-05-20T00:00:00	2024-11-06T04:00:00	5	Humedad	47
26725	7	Sololá	701	Sololá	3	Barraneche	5	Mayo	2023-05-20T00:00:00	2024-11-06T04:00:00	6	Velocidad del viento	4.8
26726	7	Sololá	701	Sololá	3	Barraneche	5	Mayo	2023-05-20T00:00:00	2024-11-06T04:00:00	7	Dirección del viento	4.83
26727	7	Sololá	701	Sololá	3	Barraneche	5	Mayo	2023-05-20T00:00:00	2024-11-06T04:00:00	1	Precipitación	0
26728	7	Sololá	701	Sololá	3	Barraneche	5	Mayo	2023-05-20T00:00:00	2024-11-06T04:00:00	8	Radiación solar	0
26729	7	Sololá	701	Sololá	3	Barraneche	5	Mayo	2023-05-20T00:00:00	2024-11-06T05:00:00	2	Temperatura media	14.8
26730	7	Sololá	701	Sololá	3	Barraneche	5	Mayo	2023-05-20T00:00:00	2024-11-06T05:00:00	4	Temperatura máxima	14.9
26731	7	Sololá	701	Sololá	3	Barraneche	5	Mayo	2023-05-20T00:00:00	2024-11-06T05:00:00	3	Temperatura mínima	14.6
26732	7	Sololá	701	Sololá	3	Barraneche	5	Mayo	2023-05-20T00:00:00	2024-11-06T05:00:00	5	Humedad	41
26733	7	Sololá	701	Sololá	3	Barraneche	5	Mayo	2023-05-20T00:00:00	2024-11-06T05:00:00	6	Velocidad del viento	8
26734	7	Sololá	701	Sololá	3	Barraneche	5	Mayo	2023-05-20T00:00:00	2024-11-06T05:00:00	7	Dirección del viento	8.05
26735	7	Sololá	701	Sololá	3	Barraneche	5	Mayo	2023-05-20T00:00:00	2024-11-06T05:00:00	1	Precipitación	0
26736	7	Sololá	701	Sololá	3	Barraneche	5	Mayo	2023-05-20T00:00:00	2024-11-06T05:00:00	8	Radiación solar	0
26737	7	Sololá	701	Sololá	3	Barraneche	5	Mayo	2023-05-20T00:00:00	2024-11-06T06:00:00	2	Temperatura media	14.8
26738	7	Sololá	701	Sololá	3	Barraneche	5	Mayo	2023-05-20T00:00:00	2024-11-06T06:00:00	4	Temperatura máxima	15
26739	7	Sololá	701	Sololá	3	Barraneche	5	Mayo	2023-05-20T00:00:00	2024-11-06T06:00:00	3	Temperatura mínima	13.9
26740	7	Sololá	701	Sololá	3	Barraneche	5	Mayo	2023-05-20T00:00:00	2024-11-06T06:00:00	5	Humedad	41
26741	7	Sololá	701	Sololá	3	Barraneche	5	Mayo	2023-05-20T00:00:00	2024-11-06T06:00:00	6	Velocidad del viento	6.4
26742	7	Sololá	701	Sololá	3	Barraneche	5	Mayo	2023-05-20T00:00:00	2024-11-06T06:00:00	7	Dirección del viento	6.44
26743	7	Sololá	701	Sololá	3	Barraneche	5	Mayo	2023-05-20T00:00:00	2024-11-06T06:00:00	1	Precipitación	0
26744	7	Sololá	701	Sololá	3	Barraneche	5	Mayo	2023-05-20T00:00:00	2024-11-06T06:00:00	8	Radiación solar	8
26745	7	Sololá	701	Sololá	3	Barraneche	5	Mayo	2023-05-20T00:00:00	2024-11-06T07:00:00	2	Temperatura media	15.3
26746	7	Sololá	701	Sololá	3	Barraneche	5	Mayo	2023-05-20T00:00:00	2024-11-06T07:00:00	4	Temperatura máxima	15.3
26747	7	Sololá	701	Sololá	3	Barraneche	5	Mayo	2023-05-20T00:00:00	2024-11-06T07:00:00	3	Temperatura mínima	14.3
26748	7	Sololá	701	Sololá	3	Barraneche	5	Mayo	2023-05-20T00:00:00	2024-11-06T07:00:00	5	Humedad	47
26749	7	Sololá	701	Sololá	3	Barraneche	5	Mayo	2023-05-20T00:00:00	2024-11-06T07:00:00	6	Velocidad del viento	3.2
26750	7	Sololá	701	Sololá	3	Barraneche	5	Mayo	2023-05-20T00:00:00	2024-11-06T07:00:00	7	Dirección del viento	3.22
26751	7	Sololá	701	Sololá	3	Barraneche	5	Mayo	2023-05-20T00:00:00	2024-11-06T07:00:00	1	Precipitación	0
26752	7	Sololá	701	Sololá	3	Barraneche	5	Mayo	2023-05-20T00:00:00	2024-11-06T07:00:00	8	Radiación solar	129
26753	7	Sololá	701	Sololá	3	Barraneche	5	Mayo	2023-05-20T00:00:00	2024-11-06T08:00:00	2	Temperatura media	18.1
26754	7	Sololá	701	Sololá	3	Barraneche	5	Mayo	2023-05-20T00:00:00	2024-11-06T08:00:00	4	Temperatura máxima	18.1
26755	7	Sololá	701	Sololá	3	Barraneche	5	Mayo	2023-05-20T00:00:00	2024-11-06T08:00:00	3	Temperatura mínima	15.3
26756	7	Sololá	701	Sololá	3	Barraneche	5	Mayo	2023-05-20T00:00:00	2024-11-06T08:00:00	5	Humedad	35
26757	7	Sololá	701	Sololá	3	Barraneche	5	Mayo	2023-05-20T00:00:00	2024-11-06T08:00:00	6	Velocidad del viento	1.6
26758	7	Sololá	701	Sololá	3	Barraneche	5	Mayo	2023-05-20T00:00:00	2024-11-06T08:00:00	7	Dirección del viento	1.61
26759	7	Sololá	701	Sololá	3	Barraneche	5	Mayo	2023-05-20T00:00:00	2024-11-06T08:00:00	1	Precipitación	0
26760	7	Sololá	701	Sololá	3	Barraneche	5	Mayo	2023-05-20T00:00:00	2024-11-06T08:00:00	8	Radiación solar	361
26761	7	Sololá	701	Sololá	3	Barraneche	5	Mayo	2023-05-20T00:00:00	2024-11-06T09:00:00	2	Temperatura media	18.7
26762	7	Sololá	701	Sololá	3	Barraneche	5	Mayo	2023-05-20T00:00:00	2024-11-06T09:00:00	4	Temperatura máxima	19.3
26763	7	Sololá	701	Sololá	3	Barraneche	5	Mayo	2023-05-20T00:00:00	2024-11-06T09:00:00	3	Temperatura mínima	18
26764	7	Sololá	701	Sololá	3	Barraneche	5	Mayo	2023-05-20T00:00:00	2024-11-06T09:00:00	5	Humedad	40
26765	7	Sololá	701	Sololá	3	Barraneche	5	Mayo	2023-05-20T00:00:00	2024-11-06T09:00:00	6	Velocidad del viento	6.4
26766	7	Sololá	701	Sololá	3	Barraneche	5	Mayo	2023-05-20T00:00:00	2024-11-06T09:00:00	7	Dirección del viento	6.44
26767	7	Sololá	701	Sololá	3	Barraneche	5	Mayo	2023-05-20T00:00:00	2024-11-06T09:00:00	1	Precipitación	0
26768	7	Sololá	701	Sololá	3	Barraneche	5	Mayo	2023-05-20T00:00:00	2024-11-06T09:00:00	8	Radiación solar	618
26769	7	Sololá	701	Sololá	3	Barraneche	5	Mayo	2023-05-20T00:00:00	2024-11-06T10:00:00	2	Temperatura media	18.6
26770	7	Sololá	701	Sololá	3	Barraneche	5	Mayo	2023-05-20T00:00:00	2024-11-06T10:00:00	4	Temperatura máxima	18.8
26771	7	Sololá	701	Sololá	3	Barraneche	5	Mayo	2023-05-20T00:00:00	2024-11-06T10:00:00	3	Temperatura mínima	18.1
26772	7	Sololá	701	Sololá	3	Barraneche	5	Mayo	2023-05-20T00:00:00	2024-11-06T10:00:00	5	Humedad	48
26773	7	Sololá	701	Sololá	3	Barraneche	5	Mayo	2023-05-20T00:00:00	2024-11-06T10:00:00	6	Velocidad del viento	16.1
26774	7	Sololá	701	Sololá	3	Barraneche	5	Mayo	2023-05-20T00:00:00	2024-11-06T10:00:00	7	Dirección del viento	16.09
26775	7	Sololá	701	Sololá	3	Barraneche	5	Mayo	2023-05-20T00:00:00	2024-11-06T10:00:00	1	Precipitación	0
26776	7	Sololá	701	Sololá	3	Barraneche	5	Mayo	2023-05-20T00:00:00	2024-11-06T10:00:00	8	Radiación solar	778
26777	7	Sololá	701	Sololá	3	Barraneche	5	Mayo	2023-05-20T00:00:00	2024-11-06T11:00:00	2	Temperatura media	19.2
26778	7	Sololá	701	Sololá	3	Barraneche	5	Mayo	2023-05-20T00:00:00	2024-11-06T11:00:00	4	Temperatura máxima	19.3
26779	7	Sololá	701	Sololá	3	Barraneche	5	Mayo	2023-05-20T00:00:00	2024-11-06T11:00:00	3	Temperatura mínima	18
26780	7	Sololá	701	Sololá	3	Barraneche	5	Mayo	2023-05-20T00:00:00	2024-11-06T11:00:00	5	Humedad	46
26781	7	Sololá	701	Sololá	3	Barraneche	5	Mayo	2023-05-20T00:00:00	2024-11-06T11:00:00	6	Velocidad del viento	16.1
26782	7	Sololá	701	Sololá	3	Barraneche	5	Mayo	2023-05-20T00:00:00	2024-11-06T11:00:00	7	Dirección del viento	16.09
26783	7	Sololá	701	Sololá	3	Barraneche	5	Mayo	2023-05-20T00:00:00	2024-11-06T11:00:00	1	Precipitación	0
26784	7	Sololá	701	Sololá	3	Barraneche	5	Mayo	2023-05-20T00:00:00	2024-11-06T11:00:00	8	Radiación solar	909
26785	7	Sololá	701	Sololá	3	Barraneche	5	Mayo	2023-05-20T00:00:00	2024-11-06T12:00:00	2	Temperatura media	20.7
26786	7	Sololá	701	Sololá	3	Barraneche	5	Mayo	2023-05-20T00:00:00	2024-11-06T12:00:00	4	Temperatura máxima	20.7
26787	7	Sololá	701	Sololá	3	Barraneche	5	Mayo	2023-05-20T00:00:00	2024-11-06T12:00:00	3	Temperatura mínima	19.2
26788	7	Sololá	701	Sololá	3	Barraneche	5	Mayo	2023-05-20T00:00:00	2024-11-06T12:00:00	5	Humedad	38
26789	7	Sololá	701	Sololá	3	Barraneche	5	Mayo	2023-05-20T00:00:00	2024-11-06T12:00:00	6	Velocidad del viento	9.7
26790	7	Sololá	701	Sololá	3	Barraneche	5	Mayo	2023-05-20T00:00:00	2024-11-06T12:00:00	7	Dirección del viento	9.66
26791	7	Sololá	701	Sololá	3	Barraneche	5	Mayo	2023-05-20T00:00:00	2024-11-06T12:00:00	1	Precipitación	0
26792	7	Sololá	701	Sololá	3	Barraneche	5	Mayo	2023-05-20T00:00:00	2024-11-06T12:00:00	8	Radiación solar	1012
26793	7	Sololá	701	Sololá	3	Barraneche	5	Mayo	2023-05-20T00:00:00	2024-11-06T13:00:00	2	Temperatura media	21.3
26794	7	Sololá	701	Sololá	3	Barraneche	5	Mayo	2023-05-20T00:00:00	2024-11-06T13:00:00	4	Temperatura máxima	21.4
26795	7	Sololá	701	Sololá	3	Barraneche	5	Mayo	2023-05-20T00:00:00	2024-11-06T13:00:00	3	Temperatura mínima	20.7
26796	7	Sololá	701	Sololá	3	Barraneche	5	Mayo	2023-05-20T00:00:00	2024-11-06T13:00:00	5	Humedad	38
26797	7	Sololá	701	Sololá	3	Barraneche	5	Mayo	2023-05-20T00:00:00	2024-11-06T13:00:00	6	Velocidad del viento	11.3
26798	7	Sololá	701	Sololá	3	Barraneche	5	Mayo	2023-05-20T00:00:00	2024-11-06T13:00:00	7	Dirección del viento	11.27
26799	7	Sololá	701	Sololá	3	Barraneche	5	Mayo	2023-05-20T00:00:00	2024-11-06T13:00:00	1	Precipitación	0
26800	7	Sololá	701	Sololá	3	Barraneche	5	Mayo	2023-05-20T00:00:00	2024-11-06T13:00:00	8	Radiación solar	1035
26801	7	Sololá	701	Sololá	3	Barraneche	5	Mayo	2023-05-20T00:00:00	2024-11-06T14:00:00	2	Temperatura media	20.8
26802	7	Sololá	701	Sololá	3	Barraneche	5	Mayo	2023-05-20T00:00:00	2024-11-06T14:00:00	4	Temperatura máxima	21.3
26803	7	Sololá	701	Sololá	3	Barraneche	5	Mayo	2023-05-20T00:00:00	2024-11-06T14:00:00	3	Temperatura mínima	20.7
26804	7	Sololá	701	Sololá	3	Barraneche	5	Mayo	2023-05-20T00:00:00	2024-11-06T14:00:00	5	Humedad	37
26805	7	Sololá	701	Sololá	3	Barraneche	5	Mayo	2023-05-20T00:00:00	2024-11-06T14:00:00	6	Velocidad del viento	12.9
26806	7	Sololá	701	Sololá	3	Barraneche	5	Mayo	2023-05-20T00:00:00	2024-11-06T14:00:00	7	Dirección del viento	12.87
26807	7	Sololá	701	Sololá	3	Barraneche	5	Mayo	2023-05-20T00:00:00	2024-11-06T14:00:00	1	Precipitación	0
26808	7	Sololá	701	Sololá	3	Barraneche	5	Mayo	2023-05-20T00:00:00	2024-11-06T14:00:00	8	Radiación solar	927
26809	7	Sololá	701	Sololá	3	Barraneche	5	Mayo	2023-05-20T00:00:00	2024-11-06T15:00:00	2	Temperatura media	20.8
26810	7	Sololá	701	Sololá	3	Barraneche	5	Mayo	2023-05-20T00:00:00	2024-11-06T15:00:00	4	Temperatura máxima	21
26811	7	Sololá	701	Sololá	3	Barraneche	5	Mayo	2023-05-20T00:00:00	2024-11-06T15:00:00	3	Temperatura mínima	20.4
26812	7	Sololá	701	Sololá	3	Barraneche	5	Mayo	2023-05-20T00:00:00	2024-11-06T15:00:00	5	Humedad	41
26813	7	Sololá	701	Sololá	3	Barraneche	5	Mayo	2023-05-20T00:00:00	2024-11-06T15:00:00	6	Velocidad del viento	11.3
26814	7	Sololá	701	Sololá	3	Barraneche	5	Mayo	2023-05-20T00:00:00	2024-11-06T15:00:00	7	Dirección del viento	11.27
26815	7	Sololá	701	Sololá	3	Barraneche	5	Mayo	2023-05-20T00:00:00	2024-11-06T15:00:00	1	Precipitación	0
26816	7	Sololá	701	Sololá	3	Barraneche	5	Mayo	2023-05-20T00:00:00	2024-11-06T15:00:00	8	Radiación solar	719
26817	7	Sololá	701	Sololá	3	Barraneche	5	Mayo	2023-05-20T00:00:00	2024-11-06T16:00:00	2	Temperatura media	19.8
26818	7	Sololá	701	Sololá	3	Barraneche	5	Mayo	2023-05-20T00:00:00	2024-11-06T16:00:00	4	Temperatura máxima	21.6
26819	7	Sololá	701	Sololá	3	Barraneche	5	Mayo	2023-05-20T00:00:00	2024-11-06T16:00:00	3	Temperatura mínima	19.8
26820	7	Sololá	701	Sololá	3	Barraneche	5	Mayo	2023-05-20T00:00:00	2024-11-06T16:00:00	5	Humedad	42
26821	7	Sololá	701	Sololá	3	Barraneche	5	Mayo	2023-05-20T00:00:00	2024-11-06T16:00:00	6	Velocidad del viento	9.7
26822	7	Sololá	701	Sololá	3	Barraneche	5	Mayo	2023-05-20T00:00:00	2024-11-06T16:00:00	7	Dirección del viento	9.66
26823	7	Sololá	701	Sololá	3	Barraneche	5	Mayo	2023-05-20T00:00:00	2024-11-06T16:00:00	1	Precipitación	0
26824	7	Sololá	701	Sololá	3	Barraneche	5	Mayo	2023-05-20T00:00:00	2024-11-06T16:00:00	8	Radiación solar	565
26825	7	Sololá	701	Sololá	3	Barraneche	5	Mayo	2023-05-20T00:00:00	2024-11-06T17:00:00	2	Temperatura media	19.4
26826	7	Sololá	701	Sololá	3	Barraneche	5	Mayo	2023-05-20T00:00:00	2024-11-06T17:00:00	4	Temperatura máxima	19.8
26827	7	Sololá	701	Sololá	3	Barraneche	5	Mayo	2023-05-20T00:00:00	2024-11-06T17:00:00	3	Temperatura mínima	19.4
26828	7	Sololá	701	Sololá	3	Barraneche	5	Mayo	2023-05-20T00:00:00	2024-11-06T17:00:00	5	Humedad	43
26829	7	Sololá	701	Sololá	3	Barraneche	5	Mayo	2023-05-20T00:00:00	2024-11-06T17:00:00	6	Velocidad del viento	9.7
26830	7	Sololá	701	Sololá	3	Barraneche	5	Mayo	2023-05-20T00:00:00	2024-11-06T17:00:00	7	Dirección del viento	9.66
26831	7	Sololá	701	Sololá	3	Barraneche	5	Mayo	2023-05-20T00:00:00	2024-11-06T17:00:00	1	Precipitación	0
26832	7	Sololá	701	Sololá	3	Barraneche	5	Mayo	2023-05-20T00:00:00	2024-11-06T17:00:00	8	Radiación solar	330
26833	7	Sololá	701	Sololá	3	Barraneche	5	Mayo	2023-05-20T00:00:00	2024-11-06T18:00:00	2	Temperatura media	17.7
26834	7	Sololá	701	Sololá	3	Barraneche	5	Mayo	2023-05-20T00:00:00	2024-11-06T18:00:00	4	Temperatura máxima	19.4
26835	7	Sololá	701	Sololá	3	Barraneche	5	Mayo	2023-05-20T00:00:00	2024-11-06T18:00:00	3	Temperatura mínima	17.7
26836	7	Sololá	701	Sololá	3	Barraneche	5	Mayo	2023-05-20T00:00:00	2024-11-06T18:00:00	5	Humedad	52
26837	7	Sololá	701	Sololá	3	Barraneche	5	Mayo	2023-05-20T00:00:00	2024-11-06T18:00:00	6	Velocidad del viento	11.3
26838	7	Sololá	701	Sololá	3	Barraneche	5	Mayo	2023-05-20T00:00:00	2024-11-06T18:00:00	7	Dirección del viento	11.27
26839	7	Sololá	701	Sololá	3	Barraneche	5	Mayo	2023-05-20T00:00:00	2024-11-06T18:00:00	1	Precipitación	0
26840	7	Sololá	701	Sololá	3	Barraneche	5	Mayo	2023-05-20T00:00:00	2024-11-06T18:00:00	8	Radiación solar	138
26841	7	Sololá	701	Sololá	3	Barraneche	5	Mayo	2023-05-20T00:00:00	2024-11-06T19:00:00	2	Temperatura media	16.4
26842	7	Sololá	701	Sololá	3	Barraneche	5	Mayo	2023-05-20T00:00:00	2024-11-06T19:00:00	4	Temperatura máxima	17.7
26843	7	Sololá	701	Sololá	3	Barraneche	5	Mayo	2023-05-20T00:00:00	2024-11-06T19:00:00	3	Temperatura mínima	16.4
26844	7	Sololá	701	Sololá	3	Barraneche	5	Mayo	2023-05-20T00:00:00	2024-11-06T19:00:00	5	Humedad	58
26845	7	Sololá	701	Sololá	3	Barraneche	5	Mayo	2023-05-20T00:00:00	2024-11-06T19:00:00	6	Velocidad del viento	9.7
26846	7	Sololá	701	Sololá	3	Barraneche	5	Mayo	2023-05-20T00:00:00	2024-11-06T19:00:00	7	Dirección del viento	9.66
26847	7	Sololá	701	Sololá	3	Barraneche	5	Mayo	2023-05-20T00:00:00	2024-11-06T19:00:00	1	Precipitación	0
26848	7	Sololá	701	Sololá	3	Barraneche	5	Mayo	2023-05-20T00:00:00	2024-11-06T19:00:00	8	Radiación solar	0
26849	7	Sololá	701	Sololá	3	Barraneche	5	Mayo	2023-05-20T00:00:00	2024-11-06T20:00:00	2	Temperatura media	15.6
26850	7	Sololá	701	Sololá	3	Barraneche	5	Mayo	2023-05-20T00:00:00	2024-11-06T20:00:00	4	Temperatura máxima	16.4
26851	7	Sololá	701	Sololá	3	Barraneche	5	Mayo	2023-05-20T00:00:00	2024-11-06T20:00:00	3	Temperatura mínima	15.6
26852	7	Sololá	701	Sololá	3	Barraneche	5	Mayo	2023-05-20T00:00:00	2024-11-06T20:00:00	5	Humedad	62
26853	7	Sololá	701	Sololá	3	Barraneche	5	Mayo	2023-05-20T00:00:00	2024-11-06T20:00:00	6	Velocidad del viento	6.4
26854	7	Sololá	701	Sololá	3	Barraneche	5	Mayo	2023-05-20T00:00:00	2024-11-06T20:00:00	7	Dirección del viento	6.44
26855	7	Sololá	701	Sololá	3	Barraneche	5	Mayo	2023-05-20T00:00:00	2024-11-06T20:00:00	1	Precipitación	0
26856	7	Sololá	701	Sololá	3	Barraneche	5	Mayo	2023-05-20T00:00:00	2024-11-06T20:00:00	8	Radiación solar	0
26857	7	Sololá	701	Sololá	3	Barraneche	5	Mayo	2023-05-20T00:00:00	2024-11-06T21:00:00	2	Temperatura media	15
26858	7	Sololá	701	Sololá	3	Barraneche	5	Mayo	2023-05-20T00:00:00	2024-11-06T21:00:00	4	Temperatura máxima	15.6
26859	7	Sololá	701	Sololá	3	Barraneche	5	Mayo	2023-05-20T00:00:00	2024-11-06T21:00:00	3	Temperatura mínima	15
26860	7	Sololá	701	Sololá	3	Barraneche	5	Mayo	2023-05-20T00:00:00	2024-11-06T21:00:00	5	Humedad	58
26861	7	Sololá	701	Sololá	3	Barraneche	5	Mayo	2023-05-20T00:00:00	2024-11-06T21:00:00	6	Velocidad del viento	6.4
26862	7	Sololá	701	Sololá	3	Barraneche	5	Mayo	2023-05-20T00:00:00	2024-11-06T21:00:00	7	Dirección del viento	6.44
26863	7	Sololá	701	Sololá	3	Barraneche	5	Mayo	2023-05-20T00:00:00	2024-11-06T21:00:00	1	Precipitación	0
26864	7	Sololá	701	Sololá	3	Barraneche	5	Mayo	2023-05-20T00:00:00	2024-11-06T21:00:00	8	Radiación solar	0
26865	7	Sololá	701	Sololá	3	Barraneche	5	Mayo	2023-05-20T00:00:00	2024-11-06T22:00:00	2	Temperatura media	14.4
26866	7	Sololá	701	Sololá	3	Barraneche	5	Mayo	2023-05-20T00:00:00	2024-11-06T22:00:00	4	Temperatura máxima	15.1
26867	7	Sololá	701	Sololá	3	Barraneche	5	Mayo	2023-05-20T00:00:00	2024-11-06T22:00:00	3	Temperatura mínima	14.4
26868	7	Sololá	701	Sololá	3	Barraneche	5	Mayo	2023-05-20T00:00:00	2024-11-06T22:00:00	5	Humedad	59
26869	7	Sololá	701	Sololá	3	Barraneche	5	Mayo	2023-05-20T00:00:00	2024-11-06T22:00:00	6	Velocidad del viento	11.3
26870	7	Sololá	701	Sololá	3	Barraneche	5	Mayo	2023-05-20T00:00:00	2024-11-06T22:00:00	7	Dirección del viento	11.27
26871	7	Sololá	701	Sololá	3	Barraneche	5	Mayo	2023-05-20T00:00:00	2024-11-06T22:00:00	1	Precipitación	0
26872	7	Sololá	701	Sololá	3	Barraneche	5	Mayo	2023-05-20T00:00:00	2024-11-06T22:00:00	8	Radiación solar	0
26873	7	Sololá	701	Sololá	3	Barraneche	5	Mayo	2023-05-20T00:00:00	2024-11-06T23:00:00	2	Temperatura media	13.4
26874	7	Sololá	701	Sololá	3	Barraneche	5	Mayo	2023-05-20T00:00:00	2024-11-06T23:00:00	4	Temperatura máxima	14.4
26875	7	Sololá	701	Sololá	3	Barraneche	5	Mayo	2023-05-20T00:00:00	2024-11-06T23:00:00	3	Temperatura mínima	13.4
26876	7	Sololá	701	Sololá	3	Barraneche	5	Mayo	2023-05-20T00:00:00	2024-11-06T23:00:00	5	Humedad	62
26877	7	Sololá	701	Sololá	3	Barraneche	5	Mayo	2023-05-20T00:00:00	2024-11-06T23:00:00	6	Velocidad del viento	8
26878	7	Sololá	701	Sololá	3	Barraneche	5	Mayo	2023-05-20T00:00:00	2024-11-06T23:00:00	7	Dirección del viento	8.05
26879	7	Sololá	701	Sololá	3	Barraneche	5	Mayo	2023-05-20T00:00:00	2024-11-06T23:00:00	1	Precipitación	0
26880	7	Sololá	701	Sololá	3	Barraneche	5	Mayo	2023-05-20T00:00:00	2024-11-06T23:00:00	8	Radiación solar	0
26881	7	Sololá	701	Sololá	3	Barraneche	5	Mayo	2023-05-21T00:00:00	2024-11-06T00:00:00	2	Temperatura media	11.9
26882	7	Sololá	701	Sololá	3	Barraneche	5	Mayo	2023-05-21T00:00:00	2024-11-06T00:00:00	4	Temperatura máxima	13.6
26883	7	Sololá	701	Sololá	3	Barraneche	5	Mayo	2023-05-21T00:00:00	2024-11-06T00:00:00	3	Temperatura mínima	11.9
26884	7	Sololá	701	Sololá	3	Barraneche	5	Mayo	2023-05-21T00:00:00	2024-11-06T00:00:00	5	Humedad	67
26885	7	Sololá	701	Sololá	3	Barraneche	5	Mayo	2023-05-21T00:00:00	2024-11-06T00:00:00	6	Velocidad del viento	3.2
26886	7	Sololá	701	Sololá	3	Barraneche	5	Mayo	2023-05-21T00:00:00	2024-11-06T00:00:00	7	Dirección del viento	3.22
26887	7	Sololá	701	Sololá	3	Barraneche	5	Mayo	2023-05-21T00:00:00	2024-11-06T00:00:00	1	Precipitación	0
26888	7	Sololá	701	Sololá	3	Barraneche	5	Mayo	2023-05-21T00:00:00	2024-11-06T00:00:00	8	Radiación solar	0
26889	7	Sololá	701	Sololá	3	Barraneche	5	Mayo	2023-05-21T00:00:00	2024-11-06T01:00:00	2	Temperatura media	12.2
26890	7	Sololá	701	Sololá	3	Barraneche	5	Mayo	2023-05-21T00:00:00	2024-11-06T01:00:00	4	Temperatura máxima	12.3
26891	7	Sololá	701	Sololá	3	Barraneche	5	Mayo	2023-05-21T00:00:00	2024-11-06T01:00:00	3	Temperatura mínima	11.6
26892	7	Sololá	701	Sololá	3	Barraneche	5	Mayo	2023-05-21T00:00:00	2024-11-06T01:00:00	5	Humedad	67
26893	7	Sololá	701	Sololá	3	Barraneche	5	Mayo	2023-05-21T00:00:00	2024-11-06T01:00:00	6	Velocidad del viento	3.2
26894	7	Sololá	701	Sololá	3	Barraneche	5	Mayo	2023-05-21T00:00:00	2024-11-06T01:00:00	7	Dirección del viento	3.22
26895	7	Sololá	701	Sololá	3	Barraneche	5	Mayo	2023-05-21T00:00:00	2024-11-06T01:00:00	1	Precipitación	0
26896	7	Sololá	701	Sololá	3	Barraneche	5	Mayo	2023-05-21T00:00:00	2024-11-06T01:00:00	8	Radiación solar	0
26897	7	Sololá	701	Sololá	3	Barraneche	5	Mayo	2023-05-21T00:00:00	2024-11-06T02:00:00	2	Temperatura media	12.1
26898	7	Sololá	701	Sololá	3	Barraneche	5	Mayo	2023-05-21T00:00:00	2024-11-06T02:00:00	4	Temperatura máxima	12.5
26899	7	Sololá	701	Sololá	3	Barraneche	5	Mayo	2023-05-21T00:00:00	2024-11-06T02:00:00	3	Temperatura mínima	12.1
26900	7	Sololá	701	Sololá	3	Barraneche	5	Mayo	2023-05-21T00:00:00	2024-11-06T02:00:00	5	Humedad	66
26901	7	Sololá	701	Sololá	3	Barraneche	5	Mayo	2023-05-21T00:00:00	2024-11-06T02:00:00	6	Velocidad del viento	3.2
26902	7	Sololá	701	Sololá	3	Barraneche	5	Mayo	2023-05-21T00:00:00	2024-11-06T02:00:00	7	Dirección del viento	3.22
26903	7	Sololá	701	Sololá	3	Barraneche	5	Mayo	2023-05-21T00:00:00	2024-11-06T02:00:00	1	Precipitación	0
26904	7	Sololá	701	Sololá	3	Barraneche	5	Mayo	2023-05-21T00:00:00	2024-11-06T02:00:00	8	Radiación solar	0
26905	7	Sololá	701	Sololá	3	Barraneche	5	Mayo	2023-05-21T00:00:00	2024-11-06T03:00:00	2	Temperatura media	14.8
26906	7	Sololá	701	Sololá	3	Barraneche	5	Mayo	2023-05-21T00:00:00	2024-11-06T03:00:00	4	Temperatura máxima	14.8
26907	7	Sololá	701	Sololá	3	Barraneche	5	Mayo	2023-05-21T00:00:00	2024-11-06T03:00:00	3	Temperatura mínima	11.8
26908	7	Sololá	701	Sololá	3	Barraneche	5	Mayo	2023-05-21T00:00:00	2024-11-06T03:00:00	5	Humedad	59
26909	7	Sololá	701	Sololá	3	Barraneche	5	Mayo	2023-05-21T00:00:00	2024-11-06T03:00:00	6	Velocidad del viento	8
26910	7	Sololá	701	Sololá	3	Barraneche	5	Mayo	2023-05-21T00:00:00	2024-11-06T03:00:00	7	Dirección del viento	8.05
26911	7	Sololá	701	Sololá	3	Barraneche	5	Mayo	2023-05-21T00:00:00	2024-11-06T03:00:00	1	Precipitación	0
26912	7	Sololá	701	Sololá	3	Barraneche	5	Mayo	2023-05-21T00:00:00	2024-11-06T03:00:00	8	Radiación solar	0
26913	7	Sololá	701	Sololá	3	Barraneche	5	Mayo	2023-05-21T00:00:00	2024-11-06T04:00:00	2	Temperatura media	13.3
26914	7	Sololá	701	Sololá	3	Barraneche	5	Mayo	2023-05-21T00:00:00	2024-11-06T04:00:00	4	Temperatura máxima	15.1
26915	7	Sololá	701	Sololá	3	Barraneche	5	Mayo	2023-05-21T00:00:00	2024-11-06T04:00:00	3	Temperatura mínima	13.3
26916	7	Sololá	701	Sololá	3	Barraneche	5	Mayo	2023-05-21T00:00:00	2024-11-06T04:00:00	5	Humedad	63
26917	7	Sololá	701	Sololá	3	Barraneche	5	Mayo	2023-05-21T00:00:00	2024-11-06T04:00:00	6	Velocidad del viento	8
26918	7	Sololá	701	Sololá	3	Barraneche	5	Mayo	2023-05-21T00:00:00	2024-11-06T04:00:00	7	Dirección del viento	8.05
26919	7	Sololá	701	Sololá	3	Barraneche	5	Mayo	2023-05-21T00:00:00	2024-11-06T04:00:00	1	Precipitación	0
26920	7	Sololá	701	Sololá	3	Barraneche	5	Mayo	2023-05-21T00:00:00	2024-11-06T04:00:00	8	Radiación solar	0
26921	7	Sololá	701	Sololá	3	Barraneche	5	Mayo	2023-05-21T00:00:00	2024-11-06T05:00:00	2	Temperatura media	12.4
26922	7	Sololá	701	Sololá	3	Barraneche	5	Mayo	2023-05-21T00:00:00	2024-11-06T05:00:00	4	Temperatura máxima	13.3
26923	7	Sololá	701	Sololá	3	Barraneche	5	Mayo	2023-05-21T00:00:00	2024-11-06T05:00:00	3	Temperatura mínima	12.1
26924	7	Sololá	701	Sololá	3	Barraneche	5	Mayo	2023-05-21T00:00:00	2024-11-06T05:00:00	5	Humedad	68
26925	7	Sololá	701	Sololá	3	Barraneche	5	Mayo	2023-05-21T00:00:00	2024-11-06T05:00:00	6	Velocidad del viento	3.2
26926	7	Sololá	701	Sololá	3	Barraneche	5	Mayo	2023-05-21T00:00:00	2024-11-06T05:00:00	7	Dirección del viento	3.22
26927	7	Sololá	701	Sololá	3	Barraneche	5	Mayo	2023-05-21T00:00:00	2024-11-06T05:00:00	1	Precipitación	0
26928	7	Sololá	701	Sololá	3	Barraneche	5	Mayo	2023-05-21T00:00:00	2024-11-06T05:00:00	8	Radiación solar	0
26929	7	Sololá	701	Sololá	3	Barraneche	5	Mayo	2023-05-21T00:00:00	2024-11-06T06:00:00	2	Temperatura media	13.2
26930	7	Sololá	701	Sololá	3	Barraneche	5	Mayo	2023-05-21T00:00:00	2024-11-06T06:00:00	4	Temperatura máxima	13.2
26931	7	Sololá	701	Sololá	3	Barraneche	5	Mayo	2023-05-21T00:00:00	2024-11-06T06:00:00	3	Temperatura mínima	12.3
26932	7	Sololá	701	Sololá	3	Barraneche	5	Mayo	2023-05-21T00:00:00	2024-11-06T06:00:00	5	Humedad	68
26933	7	Sololá	701	Sololá	3	Barraneche	5	Mayo	2023-05-21T00:00:00	2024-11-06T06:00:00	6	Velocidad del viento	3.2
26934	7	Sololá	701	Sololá	3	Barraneche	5	Mayo	2023-05-21T00:00:00	2024-11-06T06:00:00	7	Dirección del viento	3.22
26935	7	Sololá	701	Sololá	3	Barraneche	5	Mayo	2023-05-21T00:00:00	2024-11-06T06:00:00	1	Precipitación	0
26936	7	Sololá	701	Sololá	3	Barraneche	5	Mayo	2023-05-21T00:00:00	2024-11-06T06:00:00	8	Radiación solar	0
26937	7	Sololá	701	Sololá	3	Barraneche	5	Mayo	2023-05-21T00:00:00	2024-11-06T07:00:00	2	Temperatura media	13.9
26938	7	Sololá	701	Sololá	3	Barraneche	5	Mayo	2023-05-21T00:00:00	2024-11-06T07:00:00	4	Temperatura máxima	14.6
26939	7	Sololá	701	Sololá	3	Barraneche	5	Mayo	2023-05-21T00:00:00	2024-11-06T07:00:00	3	Temperatura mínima	13.2
26940	7	Sololá	701	Sololá	3	Barraneche	5	Mayo	2023-05-21T00:00:00	2024-11-06T07:00:00	5	Humedad	66
26941	7	Sololá	701	Sololá	3	Barraneche	5	Mayo	2023-05-21T00:00:00	2024-11-06T07:00:00	6	Velocidad del viento	3.2
26942	7	Sololá	701	Sololá	3	Barraneche	5	Mayo	2023-05-21T00:00:00	2024-11-06T07:00:00	7	Dirección del viento	3.22
26943	7	Sololá	701	Sololá	3	Barraneche	5	Mayo	2023-05-21T00:00:00	2024-11-06T07:00:00	1	Precipitación	0
26944	7	Sololá	701	Sololá	3	Barraneche	5	Mayo	2023-05-21T00:00:00	2024-11-06T07:00:00	8	Radiación solar	30
26945	7	Sololá	701	Sololá	3	Barraneche	5	Mayo	2023-05-21T00:00:00	2024-11-06T08:00:00	2	Temperatura media	14.6
26946	7	Sololá	701	Sololá	3	Barraneche	5	Mayo	2023-05-21T00:00:00	2024-11-06T08:00:00	4	Temperatura máxima	14.6
26947	7	Sololá	701	Sololá	3	Barraneche	5	Mayo	2023-05-21T00:00:00	2024-11-06T08:00:00	3	Temperatura mínima	13.6
26948	7	Sololá	701	Sololá	3	Barraneche	5	Mayo	2023-05-21T00:00:00	2024-11-06T08:00:00	5	Humedad	65
26949	7	Sololá	701	Sololá	3	Barraneche	5	Mayo	2023-05-21T00:00:00	2024-11-06T08:00:00	6	Velocidad del viento	3.2
26950	7	Sololá	701	Sololá	3	Barraneche	5	Mayo	2023-05-21T00:00:00	2024-11-06T08:00:00	7	Dirección del viento	3.22
26951	7	Sololá	701	Sololá	3	Barraneche	5	Mayo	2023-05-21T00:00:00	2024-11-06T08:00:00	1	Precipitación	0
26952	7	Sololá	701	Sololá	3	Barraneche	5	Mayo	2023-05-21T00:00:00	2024-11-06T08:00:00	8	Radiación solar	99
26953	7	Sololá	701	Sololá	3	Barraneche	5	Mayo	2023-05-21T00:00:00	2024-11-06T09:00:00	2	Temperatura media	15.9
26954	7	Sololá	701	Sololá	3	Barraneche	5	Mayo	2023-05-21T00:00:00	2024-11-06T09:00:00	4	Temperatura máxima	15.9
26955	7	Sololá	701	Sololá	3	Barraneche	5	Mayo	2023-05-21T00:00:00	2024-11-06T09:00:00	3	Temperatura mínima	14.6
26956	7	Sololá	701	Sololá	3	Barraneche	5	Mayo	2023-05-21T00:00:00	2024-11-06T09:00:00	5	Humedad	60
26957	7	Sololá	701	Sololá	3	Barraneche	5	Mayo	2023-05-21T00:00:00	2024-11-06T09:00:00	6	Velocidad del viento	8
26958	7	Sololá	701	Sololá	3	Barraneche	5	Mayo	2023-05-21T00:00:00	2024-11-06T09:00:00	7	Dirección del viento	8.05
26959	7	Sololá	701	Sololá	3	Barraneche	5	Mayo	2023-05-21T00:00:00	2024-11-06T09:00:00	1	Precipitación	0
26960	7	Sololá	701	Sololá	3	Barraneche	5	Mayo	2023-05-21T00:00:00	2024-11-06T09:00:00	8	Radiación solar	212
26961	7	Sololá	701	Sololá	3	Barraneche	5	Mayo	2023-05-21T00:00:00	2024-11-06T10:00:00	2	Temperatura media	17.3
26962	7	Sololá	701	Sololá	3	Barraneche	5	Mayo	2023-05-21T00:00:00	2024-11-06T10:00:00	4	Temperatura máxima	17.3
26963	7	Sololá	701	Sololá	3	Barraneche	5	Mayo	2023-05-21T00:00:00	2024-11-06T10:00:00	3	Temperatura mínima	15.9
26964	7	Sololá	701	Sololá	3	Barraneche	5	Mayo	2023-05-21T00:00:00	2024-11-06T10:00:00	5	Humedad	55
26965	7	Sololá	701	Sololá	3	Barraneche	5	Mayo	2023-05-21T00:00:00	2024-11-06T10:00:00	6	Velocidad del viento	6.4
26966	7	Sololá	701	Sololá	3	Barraneche	5	Mayo	2023-05-21T00:00:00	2024-11-06T10:00:00	7	Dirección del viento	6.44
26967	7	Sololá	701	Sololá	3	Barraneche	5	Mayo	2023-05-21T00:00:00	2024-11-06T10:00:00	1	Precipitación	0
26968	7	Sololá	701	Sololá	3	Barraneche	5	Mayo	2023-05-21T00:00:00	2024-11-06T10:00:00	8	Radiación solar	268
26969	7	Sololá	701	Sololá	3	Barraneche	5	Mayo	2023-05-21T00:00:00	2024-11-06T11:00:00	2	Temperatura media	18
26970	7	Sololá	701	Sololá	3	Barraneche	5	Mayo	2023-05-21T00:00:00	2024-11-06T11:00:00	4	Temperatura máxima	18.3
26971	7	Sololá	701	Sololá	3	Barraneche	5	Mayo	2023-05-21T00:00:00	2024-11-06T11:00:00	3	Temperatura mínima	17.2
26972	7	Sololá	701	Sololá	3	Barraneche	5	Mayo	2023-05-21T00:00:00	2024-11-06T11:00:00	5	Humedad	55
26973	7	Sololá	701	Sololá	3	Barraneche	5	Mayo	2023-05-21T00:00:00	2024-11-06T11:00:00	6	Velocidad del viento	14.5
26974	7	Sololá	701	Sololá	3	Barraneche	5	Mayo	2023-05-21T00:00:00	2024-11-06T11:00:00	7	Dirección del viento	14.48
26975	7	Sololá	701	Sololá	3	Barraneche	5	Mayo	2023-05-21T00:00:00	2024-11-06T11:00:00	1	Precipitación	0
26976	7	Sololá	701	Sololá	3	Barraneche	5	Mayo	2023-05-21T00:00:00	2024-11-06T11:00:00	8	Radiación solar	638
26977	7	Sololá	701	Sololá	3	Barraneche	5	Mayo	2023-05-21T00:00:00	2024-11-06T12:00:00	2	Temperatura media	17.9
26978	7	Sololá	701	Sololá	3	Barraneche	5	Mayo	2023-05-21T00:00:00	2024-11-06T12:00:00	4	Temperatura máxima	18.9
26979	7	Sololá	701	Sololá	3	Barraneche	5	Mayo	2023-05-21T00:00:00	2024-11-06T12:00:00	3	Temperatura mínima	17.9
26980	7	Sololá	701	Sololá	3	Barraneche	5	Mayo	2023-05-21T00:00:00	2024-11-06T12:00:00	5	Humedad	57
26981	7	Sololá	701	Sololá	3	Barraneche	5	Mayo	2023-05-21T00:00:00	2024-11-06T12:00:00	6	Velocidad del viento	9.7
26982	7	Sololá	701	Sololá	3	Barraneche	5	Mayo	2023-05-21T00:00:00	2024-11-06T12:00:00	7	Dirección del viento	9.66
26983	7	Sololá	701	Sololá	3	Barraneche	5	Mayo	2023-05-21T00:00:00	2024-11-06T12:00:00	1	Precipitación	0
26984	7	Sololá	701	Sololá	3	Barraneche	5	Mayo	2023-05-21T00:00:00	2024-11-06T12:00:00	8	Radiación solar	388
26985	7	Sololá	701	Sololá	3	Barraneche	5	Mayo	2023-05-21T00:00:00	2024-11-06T13:00:00	2	Temperatura media	16.4
26986	7	Sololá	701	Sololá	3	Barraneche	5	Mayo	2023-05-21T00:00:00	2024-11-06T13:00:00	4	Temperatura máxima	17.9
26987	7	Sololá	701	Sololá	3	Barraneche	5	Mayo	2023-05-21T00:00:00	2024-11-06T13:00:00	3	Temperatura mínima	16.3
26988	7	Sololá	701	Sololá	3	Barraneche	5	Mayo	2023-05-21T00:00:00	2024-11-06T13:00:00	5	Humedad	64
26989	7	Sololá	701	Sololá	3	Barraneche	5	Mayo	2023-05-21T00:00:00	2024-11-06T13:00:00	6	Velocidad del viento	8
26990	7	Sololá	701	Sololá	3	Barraneche	5	Mayo	2023-05-21T00:00:00	2024-11-06T13:00:00	7	Dirección del viento	8.05
26991	7	Sololá	701	Sololá	3	Barraneche	5	Mayo	2023-05-21T00:00:00	2024-11-06T13:00:00	1	Precipitación	0
26992	7	Sololá	701	Sololá	3	Barraneche	5	Mayo	2023-05-21T00:00:00	2024-11-06T13:00:00	8	Radiación solar	93
26993	7	Sololá	701	Sololá	3	Barraneche	5	Mayo	2023-05-21T00:00:00	2024-11-06T14:00:00	2	Temperatura media	16.5
26994	7	Sololá	701	Sololá	3	Barraneche	5	Mayo	2023-05-21T00:00:00	2024-11-06T14:00:00	4	Temperatura máxima	16.8
26995	7	Sololá	701	Sololá	3	Barraneche	5	Mayo	2023-05-21T00:00:00	2024-11-06T14:00:00	3	Temperatura mínima	16.4
26996	7	Sololá	701	Sololá	3	Barraneche	5	Mayo	2023-05-21T00:00:00	2024-11-06T14:00:00	5	Humedad	65
26997	7	Sololá	701	Sololá	3	Barraneche	5	Mayo	2023-05-21T00:00:00	2024-11-06T14:00:00	6	Velocidad del viento	3.2
26998	7	Sololá	701	Sololá	3	Barraneche	5	Mayo	2023-05-21T00:00:00	2024-11-06T14:00:00	7	Dirección del viento	3.22
26999	7	Sololá	701	Sololá	3	Barraneche	5	Mayo	2023-05-21T00:00:00	2024-11-06T14:00:00	1	Precipitación	0
27000	7	Sololá	701	Sololá	3	Barraneche	5	Mayo	2023-05-21T00:00:00	2024-11-06T14:00:00	8	Radiación solar	149
27001	7	Sololá	701	Sololá	3	Barraneche	5	Mayo	2023-05-21T00:00:00	2024-11-06T15:00:00	2	Temperatura media	19
27002	7	Sololá	701	Sololá	3	Barraneche	5	Mayo	2023-05-21T00:00:00	2024-11-06T15:00:00	4	Temperatura máxima	19.2
27003	7	Sololá	701	Sololá	3	Barraneche	5	Mayo	2023-05-21T00:00:00	2024-11-06T15:00:00	3	Temperatura mínima	16.2
27004	7	Sololá	701	Sololá	3	Barraneche	5	Mayo	2023-05-21T00:00:00	2024-11-06T15:00:00	5	Humedad	55
27005	7	Sololá	701	Sololá	3	Barraneche	5	Mayo	2023-05-21T00:00:00	2024-11-06T15:00:00	6	Velocidad del viento	4.8
27006	7	Sololá	701	Sololá	3	Barraneche	5	Mayo	2023-05-21T00:00:00	2024-11-06T15:00:00	7	Dirección del viento	4.83
27007	7	Sololá	701	Sololá	3	Barraneche	5	Mayo	2023-05-21T00:00:00	2024-11-06T15:00:00	1	Precipitación	0
27008	7	Sololá	701	Sololá	3	Barraneche	5	Mayo	2023-05-21T00:00:00	2024-11-06T15:00:00	8	Radiación solar	250
27009	7	Sololá	701	Sololá	3	Barraneche	5	Mayo	2023-05-21T00:00:00	2024-11-06T16:00:00	2	Temperatura media	18.3
27010	7	Sololá	701	Sololá	3	Barraneche	5	Mayo	2023-05-21T00:00:00	2024-11-06T16:00:00	4	Temperatura máxima	19.2
27011	7	Sololá	701	Sololá	3	Barraneche	5	Mayo	2023-05-21T00:00:00	2024-11-06T16:00:00	3	Temperatura mínima	18.2
27012	7	Sololá	701	Sololá	3	Barraneche	5	Mayo	2023-05-21T00:00:00	2024-11-06T16:00:00	5	Humedad	59
27013	7	Sololá	701	Sololá	3	Barraneche	5	Mayo	2023-05-21T00:00:00	2024-11-06T16:00:00	6	Velocidad del viento	11.3
27014	7	Sololá	701	Sololá	3	Barraneche	5	Mayo	2023-05-21T00:00:00	2024-11-06T16:00:00	7	Dirección del viento	11.27
27015	7	Sololá	701	Sololá	3	Barraneche	5	Mayo	2023-05-21T00:00:00	2024-11-06T16:00:00	1	Precipitación	0
27016	7	Sololá	701	Sololá	3	Barraneche	5	Mayo	2023-05-21T00:00:00	2024-11-06T16:00:00	8	Radiación solar	320
27017	7	Sololá	701	Sololá	3	Barraneche	5	Mayo	2023-05-21T00:00:00	2024-11-06T17:00:00	2	Temperatura media	17.2
27018	7	Sololá	701	Sololá	3	Barraneche	5	Mayo	2023-05-21T00:00:00	2024-11-06T17:00:00	4	Temperatura máxima	18.3
27019	7	Sololá	701	Sololá	3	Barraneche	5	Mayo	2023-05-21T00:00:00	2024-11-06T17:00:00	3	Temperatura mínima	17.1
27020	7	Sololá	701	Sololá	3	Barraneche	5	Mayo	2023-05-21T00:00:00	2024-11-06T17:00:00	5	Humedad	62
27021	7	Sololá	701	Sololá	3	Barraneche	5	Mayo	2023-05-21T00:00:00	2024-11-06T17:00:00	6	Velocidad del viento	12.9
27022	7	Sololá	701	Sololá	3	Barraneche	5	Mayo	2023-05-21T00:00:00	2024-11-06T17:00:00	7	Dirección del viento	12.87
27023	7	Sololá	701	Sololá	3	Barraneche	5	Mayo	2023-05-21T00:00:00	2024-11-06T17:00:00	1	Precipitación	0
27024	7	Sololá	701	Sololá	3	Barraneche	5	Mayo	2023-05-21T00:00:00	2024-11-06T17:00:00	8	Radiación solar	155
27025	7	Sololá	701	Sololá	3	Barraneche	5	Mayo	2023-05-21T00:00:00	2024-11-06T18:00:00	2	Temperatura media	16.8
27026	7	Sololá	701	Sololá	3	Barraneche	5	Mayo	2023-05-21T00:00:00	2024-11-06T18:00:00	4	Temperatura máxima	17.3
27027	7	Sololá	701	Sololá	3	Barraneche	5	Mayo	2023-05-21T00:00:00	2024-11-06T18:00:00	3	Temperatura mínima	16.8
27028	7	Sololá	701	Sololá	3	Barraneche	5	Mayo	2023-05-21T00:00:00	2024-11-06T18:00:00	5	Humedad	63
27029	7	Sololá	701	Sololá	3	Barraneche	5	Mayo	2023-05-21T00:00:00	2024-11-06T18:00:00	6	Velocidad del viento	6.4
27030	7	Sololá	701	Sololá	3	Barraneche	5	Mayo	2023-05-21T00:00:00	2024-11-06T18:00:00	7	Dirección del viento	6.44
27031	7	Sololá	701	Sololá	3	Barraneche	5	Mayo	2023-05-21T00:00:00	2024-11-06T18:00:00	1	Precipitación	0
27032	7	Sololá	701	Sololá	3	Barraneche	5	Mayo	2023-05-21T00:00:00	2024-11-06T18:00:00	8	Radiación solar	74
27033	7	Sololá	701	Sololá	3	Barraneche	5	Mayo	2023-05-21T00:00:00	2024-11-06T19:00:00	2	Temperatura media	16.1
27034	7	Sololá	701	Sololá	3	Barraneche	5	Mayo	2023-05-21T00:00:00	2024-11-06T19:00:00	4	Temperatura máxima	16.8
27035	7	Sololá	701	Sololá	3	Barraneche	5	Mayo	2023-05-21T00:00:00	2024-11-06T19:00:00	3	Temperatura mínima	16.1
27036	7	Sololá	701	Sololá	3	Barraneche	5	Mayo	2023-05-21T00:00:00	2024-11-06T19:00:00	5	Humedad	65
27037	7	Sololá	701	Sololá	3	Barraneche	5	Mayo	2023-05-21T00:00:00	2024-11-06T19:00:00	6	Velocidad del viento	8
27038	7	Sololá	701	Sololá	3	Barraneche	5	Mayo	2023-05-21T00:00:00	2024-11-06T19:00:00	7	Dirección del viento	8.05
27039	7	Sololá	701	Sololá	3	Barraneche	5	Mayo	2023-05-21T00:00:00	2024-11-06T19:00:00	1	Precipitación	0
27040	7	Sololá	701	Sololá	3	Barraneche	5	Mayo	2023-05-21T00:00:00	2024-11-06T19:00:00	8	Radiación solar	0
27041	7	Sololá	701	Sololá	3	Barraneche	5	Mayo	2023-05-21T00:00:00	2024-11-06T20:00:00	2	Temperatura media	15.8
27042	7	Sololá	701	Sololá	3	Barraneche	5	Mayo	2023-05-21T00:00:00	2024-11-06T20:00:00	4	Temperatura máxima	16.2
27043	7	Sololá	701	Sololá	3	Barraneche	5	Mayo	2023-05-21T00:00:00	2024-11-06T20:00:00	3	Temperatura mínima	15.8
27044	7	Sololá	701	Sololá	3	Barraneche	5	Mayo	2023-05-21T00:00:00	2024-11-06T20:00:00	5	Humedad	66
27045	7	Sololá	701	Sololá	3	Barraneche	5	Mayo	2023-05-21T00:00:00	2024-11-06T20:00:00	6	Velocidad del viento	4.8
27046	7	Sololá	701	Sololá	3	Barraneche	5	Mayo	2023-05-21T00:00:00	2024-11-06T20:00:00	7	Dirección del viento	4.83
27047	7	Sololá	701	Sololá	3	Barraneche	5	Mayo	2023-05-21T00:00:00	2024-11-06T20:00:00	1	Precipitación	0
27048	7	Sololá	701	Sololá	3	Barraneche	5	Mayo	2023-05-21T00:00:00	2024-11-06T20:00:00	8	Radiación solar	0
27049	7	Sololá	701	Sololá	3	Barraneche	5	Mayo	2023-05-21T00:00:00	2024-11-06T21:00:00	2	Temperatura media	14.8
27050	7	Sololá	701	Sololá	3	Barraneche	5	Mayo	2023-05-21T00:00:00	2024-11-06T21:00:00	4	Temperatura máxima	15.8
27051	7	Sololá	701	Sololá	3	Barraneche	5	Mayo	2023-05-21T00:00:00	2024-11-06T21:00:00	3	Temperatura mínima	14.8
27052	7	Sololá	701	Sololá	3	Barraneche	5	Mayo	2023-05-21T00:00:00	2024-11-06T21:00:00	5	Humedad	69
27053	7	Sololá	701	Sololá	3	Barraneche	5	Mayo	2023-05-21T00:00:00	2024-11-06T21:00:00	6	Velocidad del viento	8
27054	7	Sololá	701	Sololá	3	Barraneche	5	Mayo	2023-05-21T00:00:00	2024-11-06T21:00:00	7	Dirección del viento	8.05
27055	7	Sololá	701	Sololá	3	Barraneche	5	Mayo	2023-05-21T00:00:00	2024-11-06T21:00:00	1	Precipitación	0
27056	7	Sololá	701	Sololá	3	Barraneche	5	Mayo	2023-05-21T00:00:00	2024-11-06T21:00:00	8	Radiación solar	0
27057	7	Sololá	701	Sololá	3	Barraneche	5	Mayo	2023-05-21T00:00:00	2024-11-06T22:00:00	2	Temperatura media	14.6
27058	7	Sololá	701	Sololá	3	Barraneche	5	Mayo	2023-05-21T00:00:00	2024-11-06T22:00:00	4	Temperatura máxima	14.8
27059	7	Sololá	701	Sololá	3	Barraneche	5	Mayo	2023-05-21T00:00:00	2024-11-06T22:00:00	3	Temperatura mínima	13.9
27060	7	Sololá	701	Sololá	3	Barraneche	5	Mayo	2023-05-21T00:00:00	2024-11-06T22:00:00	5	Humedad	65
27061	7	Sololá	701	Sololá	3	Barraneche	5	Mayo	2023-05-21T00:00:00	2024-11-06T22:00:00	6	Velocidad del viento	6.4
27062	7	Sololá	701	Sololá	3	Barraneche	5	Mayo	2023-05-21T00:00:00	2024-11-06T22:00:00	7	Dirección del viento	6.44
27063	7	Sololá	701	Sololá	3	Barraneche	5	Mayo	2023-05-21T00:00:00	2024-11-06T22:00:00	1	Precipitación	0.2
27064	7	Sololá	701	Sololá	3	Barraneche	5	Mayo	2023-05-21T00:00:00	2024-11-06T22:00:00	8	Radiación solar	0
27065	7	Sololá	701	Sololá	3	Barraneche	5	Mayo	2023-05-21T00:00:00	2024-11-06T23:00:00	2	Temperatura media	13.3
27066	7	Sololá	701	Sololá	3	Barraneche	5	Mayo	2023-05-21T00:00:00	2024-11-06T23:00:00	4	Temperatura máxima	14.9
27067	7	Sololá	701	Sololá	3	Barraneche	5	Mayo	2023-05-21T00:00:00	2024-11-06T23:00:00	3	Temperatura mínima	13.3
27068	7	Sololá	701	Sololá	3	Barraneche	5	Mayo	2023-05-21T00:00:00	2024-11-06T23:00:00	5	Humedad	71
27069	7	Sololá	701	Sololá	3	Barraneche	5	Mayo	2023-05-21T00:00:00	2024-11-06T23:00:00	6	Velocidad del viento	4.8
27070	7	Sololá	701	Sololá	3	Barraneche	5	Mayo	2023-05-21T00:00:00	2024-11-06T23:00:00	7	Dirección del viento	4.83
27071	7	Sololá	701	Sololá	3	Barraneche	5	Mayo	2023-05-21T00:00:00	2024-11-06T23:00:00	1	Precipitación	0
27072	7	Sololá	701	Sololá	3	Barraneche	5	Mayo	2023-05-21T00:00:00	2024-11-06T23:00:00	8	Radiación solar	0
27073	7	Sololá	701	Sololá	3	Barraneche	5	Mayo	2023-05-22T00:00:00	2024-11-06T00:00:00	2	Temperatura media	13.1
27074	7	Sololá	701	Sololá	3	Barraneche	5	Mayo	2023-05-22T00:00:00	2024-11-06T00:00:00	4	Temperatura máxima	13.6
27075	7	Sololá	701	Sololá	3	Barraneche	5	Mayo	2023-05-22T00:00:00	2024-11-06T00:00:00	3	Temperatura mínima	13.1
27076	7	Sololá	701	Sololá	3	Barraneche	5	Mayo	2023-05-22T00:00:00	2024-11-06T00:00:00	5	Humedad	71
27077	7	Sololá	701	Sololá	3	Barraneche	5	Mayo	2023-05-22T00:00:00	2024-11-06T00:00:00	6	Velocidad del viento	4.8
27078	7	Sololá	701	Sololá	3	Barraneche	5	Mayo	2023-05-22T00:00:00	2024-11-06T00:00:00	7	Dirección del viento	4.83
27079	7	Sololá	701	Sololá	3	Barraneche	5	Mayo	2023-05-22T00:00:00	2024-11-06T00:00:00	1	Precipitación	0
27080	7	Sololá	701	Sololá	3	Barraneche	5	Mayo	2023-05-22T00:00:00	2024-11-06T00:00:00	8	Radiación solar	0
27081	7	Sololá	701	Sololá	3	Barraneche	5	Mayo	2023-05-22T00:00:00	2024-11-06T01:00:00	2	Temperatura media	12.1
27082	7	Sololá	701	Sololá	3	Barraneche	5	Mayo	2023-05-22T00:00:00	2024-11-06T01:00:00	4	Temperatura máxima	13.2
27083	7	Sololá	701	Sololá	3	Barraneche	5	Mayo	2023-05-22T00:00:00	2024-11-06T01:00:00	3	Temperatura mínima	12.1
27084	7	Sololá	701	Sololá	3	Barraneche	5	Mayo	2023-05-22T00:00:00	2024-11-06T01:00:00	5	Humedad	73
27085	7	Sololá	701	Sololá	3	Barraneche	5	Mayo	2023-05-22T00:00:00	2024-11-06T01:00:00	6	Velocidad del viento	3.2
27086	7	Sololá	701	Sololá	3	Barraneche	5	Mayo	2023-05-22T00:00:00	2024-11-06T01:00:00	7	Dirección del viento	3.22
27087	7	Sololá	701	Sololá	3	Barraneche	5	Mayo	2023-05-22T00:00:00	2024-11-06T01:00:00	1	Precipitación	0
27088	7	Sololá	701	Sololá	3	Barraneche	5	Mayo	2023-05-22T00:00:00	2024-11-06T01:00:00	8	Radiación solar	0
27089	7	Sololá	701	Sololá	3	Barraneche	5	Mayo	2023-05-22T00:00:00	2024-11-06T02:00:00	2	Temperatura media	12.5
27090	7	Sololá	701	Sololá	3	Barraneche	5	Mayo	2023-05-22T00:00:00	2024-11-06T02:00:00	4	Temperatura máxima	12.6
27091	7	Sololá	701	Sololá	3	Barraneche	5	Mayo	2023-05-22T00:00:00	2024-11-06T02:00:00	3	Temperatura mínima	12.1
27092	7	Sololá	701	Sololá	3	Barraneche	5	Mayo	2023-05-22T00:00:00	2024-11-06T02:00:00	5	Humedad	73
27093	7	Sololá	701	Sololá	3	Barraneche	5	Mayo	2023-05-22T00:00:00	2024-11-06T02:00:00	6	Velocidad del viento	4.8
27094	7	Sololá	701	Sololá	3	Barraneche	5	Mayo	2023-05-22T00:00:00	2024-11-06T02:00:00	7	Dirección del viento	4.83
27095	7	Sololá	701	Sololá	3	Barraneche	5	Mayo	2023-05-22T00:00:00	2024-11-06T02:00:00	1	Precipitación	0
27096	7	Sololá	701	Sololá	3	Barraneche	5	Mayo	2023-05-22T00:00:00	2024-11-06T02:00:00	8	Radiación solar	0
27097	7	Sololá	701	Sololá	3	Barraneche	5	Mayo	2023-05-22T00:00:00	2024-11-06T03:00:00	2	Temperatura media	12.6
27098	7	Sololá	701	Sololá	3	Barraneche	5	Mayo	2023-05-22T00:00:00	2024-11-06T03:00:00	4	Temperatura máxima	12.7
27099	7	Sololá	701	Sololá	3	Barraneche	5	Mayo	2023-05-22T00:00:00	2024-11-06T03:00:00	3	Temperatura mínima	12.4
27100	7	Sololá	701	Sololá	3	Barraneche	5	Mayo	2023-05-22T00:00:00	2024-11-06T03:00:00	5	Humedad	72
27101	7	Sololá	701	Sololá	3	Barraneche	5	Mayo	2023-05-22T00:00:00	2024-11-06T03:00:00	6	Velocidad del viento	3.2
27102	7	Sololá	701	Sololá	3	Barraneche	5	Mayo	2023-05-22T00:00:00	2024-11-06T03:00:00	7	Dirección del viento	3.22
27103	7	Sololá	701	Sololá	3	Barraneche	5	Mayo	2023-05-22T00:00:00	2024-11-06T03:00:00	1	Precipitación	0
27104	7	Sololá	701	Sololá	3	Barraneche	5	Mayo	2023-05-22T00:00:00	2024-11-06T03:00:00	8	Radiación solar	0
27105	7	Sololá	701	Sololá	3	Barraneche	5	Mayo	2023-05-22T00:00:00	2024-11-06T04:00:00	2	Temperatura media	12.8
27106	7	Sololá	701	Sololá	3	Barraneche	5	Mayo	2023-05-22T00:00:00	2024-11-06T04:00:00	4	Temperatura máxima	12.8
27107	7	Sololá	701	Sololá	3	Barraneche	5	Mayo	2023-05-22T00:00:00	2024-11-06T04:00:00	3	Temperatura mínima	12.6
27108	7	Sololá	701	Sololá	3	Barraneche	5	Mayo	2023-05-22T00:00:00	2024-11-06T04:00:00	5	Humedad	73
27109	7	Sololá	701	Sololá	3	Barraneche	5	Mayo	2023-05-22T00:00:00	2024-11-06T04:00:00	6	Velocidad del viento	1.6
27110	7	Sololá	701	Sololá	3	Barraneche	5	Mayo	2023-05-22T00:00:00	2024-11-06T04:00:00	7	Dirección del viento	1.61
27111	7	Sololá	701	Sololá	3	Barraneche	5	Mayo	2023-05-22T00:00:00	2024-11-06T04:00:00	1	Precipitación	0
27112	7	Sololá	701	Sololá	3	Barraneche	5	Mayo	2023-05-22T00:00:00	2024-11-06T04:00:00	8	Radiación solar	0
27113	7	Sololá	701	Sololá	3	Barraneche	5	Mayo	2023-05-22T00:00:00	2024-11-06T05:00:00	2	Temperatura media	12.9
27114	7	Sololá	701	Sololá	3	Barraneche	5	Mayo	2023-05-22T00:00:00	2024-11-06T05:00:00	4	Temperatura máxima	13.1
27115	7	Sololá	701	Sololá	3	Barraneche	5	Mayo	2023-05-22T00:00:00	2024-11-06T05:00:00	3	Temperatura mínima	12.8
27116	7	Sololá	701	Sololá	3	Barraneche	5	Mayo	2023-05-22T00:00:00	2024-11-06T05:00:00	5	Humedad	73
27117	7	Sololá	701	Sololá	3	Barraneche	5	Mayo	2023-05-22T00:00:00	2024-11-06T05:00:00	6	Velocidad del viento	3.2
27118	7	Sololá	701	Sololá	3	Barraneche	5	Mayo	2023-05-22T00:00:00	2024-11-06T05:00:00	7	Dirección del viento	3.22
27119	7	Sololá	701	Sololá	3	Barraneche	5	Mayo	2023-05-22T00:00:00	2024-11-06T05:00:00	1	Precipitación	0
27120	7	Sololá	701	Sololá	3	Barraneche	5	Mayo	2023-05-22T00:00:00	2024-11-06T05:00:00	8	Radiación solar	0
27121	7	Sololá	701	Sololá	3	Barraneche	5	Mayo	2023-05-22T00:00:00	2024-11-06T06:00:00	2	Temperatura media	12.8
27122	7	Sololá	701	Sololá	3	Barraneche	5	Mayo	2023-05-22T00:00:00	2024-11-06T06:00:00	4	Temperatura máxima	12.9
27123	7	Sololá	701	Sololá	3	Barraneche	5	Mayo	2023-05-22T00:00:00	2024-11-06T06:00:00	3	Temperatura mínima	12.7
27124	7	Sololá	701	Sololá	3	Barraneche	5	Mayo	2023-05-22T00:00:00	2024-11-06T06:00:00	5	Humedad	75
27125	7	Sololá	701	Sololá	3	Barraneche	5	Mayo	2023-05-22T00:00:00	2024-11-06T06:00:00	6	Velocidad del viento	1.6
27126	7	Sololá	701	Sololá	3	Barraneche	5	Mayo	2023-05-22T00:00:00	2024-11-06T06:00:00	7	Dirección del viento	1.61
27127	7	Sololá	701	Sololá	3	Barraneche	5	Mayo	2023-05-22T00:00:00	2024-11-06T06:00:00	1	Precipitación	0
27128	7	Sololá	701	Sololá	3	Barraneche	5	Mayo	2023-05-22T00:00:00	2024-11-06T06:00:00	8	Radiación solar	4
27129	7	Sololá	701	Sololá	3	Barraneche	5	Mayo	2023-05-22T00:00:00	2024-11-06T07:00:00	2	Temperatura media	13.7
27130	7	Sololá	701	Sololá	3	Barraneche	5	Mayo	2023-05-22T00:00:00	2024-11-06T07:00:00	4	Temperatura máxima	13.7
27131	7	Sololá	701	Sololá	3	Barraneche	5	Mayo	2023-05-22T00:00:00	2024-11-06T07:00:00	3	Temperatura mínima	12.8
27132	7	Sololá	701	Sololá	3	Barraneche	5	Mayo	2023-05-22T00:00:00	2024-11-06T07:00:00	5	Humedad	73
27133	7	Sololá	701	Sololá	3	Barraneche	5	Mayo	2023-05-22T00:00:00	2024-11-06T07:00:00	6	Velocidad del viento	1.6
27134	7	Sololá	701	Sololá	3	Barraneche	5	Mayo	2023-05-22T00:00:00	2024-11-06T07:00:00	7	Dirección del viento	1.61
27135	7	Sololá	701	Sololá	3	Barraneche	5	Mayo	2023-05-22T00:00:00	2024-11-06T07:00:00	1	Precipitación	0
27136	7	Sololá	701	Sololá	3	Barraneche	5	Mayo	2023-05-22T00:00:00	2024-11-06T07:00:00	8	Radiación solar	58
27137	7	Sololá	701	Sololá	3	Barraneche	5	Mayo	2023-05-22T00:00:00	2024-11-06T08:00:00	2	Temperatura media	15.1
27138	7	Sololá	701	Sololá	3	Barraneche	5	Mayo	2023-05-22T00:00:00	2024-11-06T08:00:00	4	Temperatura máxima	15.1
27139	7	Sololá	701	Sololá	3	Barraneche	5	Mayo	2023-05-22T00:00:00	2024-11-06T08:00:00	3	Temperatura mínima	13.7
27140	7	Sololá	701	Sololá	3	Barraneche	5	Mayo	2023-05-22T00:00:00	2024-11-06T08:00:00	5	Humedad	66
27141	7	Sololá	701	Sololá	3	Barraneche	5	Mayo	2023-05-22T00:00:00	2024-11-06T08:00:00	6	Velocidad del viento	1.6
27142	7	Sololá	701	Sololá	3	Barraneche	5	Mayo	2023-05-22T00:00:00	2024-11-06T08:00:00	7	Dirección del viento	1.61
27143	7	Sololá	701	Sololá	3	Barraneche	5	Mayo	2023-05-22T00:00:00	2024-11-06T08:00:00	1	Precipitación	0
27144	7	Sololá	701	Sololá	3	Barraneche	5	Mayo	2023-05-22T00:00:00	2024-11-06T08:00:00	8	Radiación solar	157
27145	7	Sololá	701	Sololá	3	Barraneche	5	Mayo	2023-05-22T00:00:00	2024-11-06T09:00:00	2	Temperatura media	16.7
27146	7	Sololá	701	Sololá	3	Barraneche	5	Mayo	2023-05-22T00:00:00	2024-11-06T09:00:00	4	Temperatura máxima	16.7
27147	7	Sololá	701	Sololá	3	Barraneche	5	Mayo	2023-05-22T00:00:00	2024-11-06T09:00:00	3	Temperatura mínima	15.1
27148	7	Sololá	701	Sololá	3	Barraneche	5	Mayo	2023-05-22T00:00:00	2024-11-06T09:00:00	5	Humedad	63
27149	7	Sololá	701	Sololá	3	Barraneche	5	Mayo	2023-05-22T00:00:00	2024-11-06T09:00:00	6	Velocidad del viento	1.6
27150	7	Sololá	701	Sololá	3	Barraneche	5	Mayo	2023-05-22T00:00:00	2024-11-06T09:00:00	7	Dirección del viento	1.61
27151	7	Sololá	701	Sololá	3	Barraneche	5	Mayo	2023-05-22T00:00:00	2024-11-06T09:00:00	1	Precipitación	0
27152	7	Sololá	701	Sololá	3	Barraneche	5	Mayo	2023-05-22T00:00:00	2024-11-06T09:00:00	8	Radiación solar	340
27153	7	Sololá	701	Sololá	3	Barraneche	5	Mayo	2023-05-22T00:00:00	2024-11-06T10:00:00	2	Temperatura media	18.3
27154	7	Sololá	701	Sololá	3	Barraneche	5	Mayo	2023-05-22T00:00:00	2024-11-06T10:00:00	4	Temperatura máxima	18.3
27155	7	Sololá	701	Sololá	3	Barraneche	5	Mayo	2023-05-22T00:00:00	2024-11-06T10:00:00	3	Temperatura mínima	16.7
27156	7	Sololá	701	Sololá	3	Barraneche	5	Mayo	2023-05-22T00:00:00	2024-11-06T10:00:00	5	Humedad	62
27157	7	Sololá	701	Sololá	3	Barraneche	5	Mayo	2023-05-22T00:00:00	2024-11-06T10:00:00	6	Velocidad del viento	4.8
27158	7	Sololá	701	Sololá	3	Barraneche	5	Mayo	2023-05-22T00:00:00	2024-11-06T10:00:00	7	Dirección del viento	4.83
27159	7	Sololá	701	Sololá	3	Barraneche	5	Mayo	2023-05-22T00:00:00	2024-11-06T10:00:00	1	Precipitación	0
27160	7	Sololá	701	Sololá	3	Barraneche	5	Mayo	2023-05-22T00:00:00	2024-11-06T10:00:00	8	Radiación solar	552
27161	7	Sololá	701	Sololá	3	Barraneche	5	Mayo	2023-05-22T00:00:00	2024-11-06T11:00:00	2	Temperatura media	18.7
27162	7	Sololá	701	Sololá	3	Barraneche	5	Mayo	2023-05-22T00:00:00	2024-11-06T11:00:00	4	Temperatura máxima	19.1
27163	7	Sololá	701	Sololá	3	Barraneche	5	Mayo	2023-05-22T00:00:00	2024-11-06T11:00:00	3	Temperatura mínima	18.3
27164	7	Sololá	701	Sololá	3	Barraneche	5	Mayo	2023-05-22T00:00:00	2024-11-06T11:00:00	5	Humedad	59
27165	7	Sololá	701	Sololá	3	Barraneche	5	Mayo	2023-05-22T00:00:00	2024-11-06T11:00:00	6	Velocidad del viento	8
27166	7	Sololá	701	Sololá	3	Barraneche	5	Mayo	2023-05-22T00:00:00	2024-11-06T11:00:00	7	Dirección del viento	8.05
27167	7	Sololá	701	Sololá	3	Barraneche	5	Mayo	2023-05-22T00:00:00	2024-11-06T11:00:00	1	Precipitación	0
27168	7	Sololá	701	Sololá	3	Barraneche	5	Mayo	2023-05-22T00:00:00	2024-11-06T11:00:00	8	Radiación solar	637
27169	7	Sololá	701	Sololá	3	Barraneche	5	Mayo	2023-05-22T00:00:00	2024-11-06T12:00:00	2	Temperatura media	18.8
27170	7	Sololá	701	Sololá	3	Barraneche	5	Mayo	2023-05-22T00:00:00	2024-11-06T12:00:00	4	Temperatura máxima	19.4
27171	7	Sololá	701	Sololá	3	Barraneche	5	Mayo	2023-05-22T00:00:00	2024-11-06T12:00:00	3	Temperatura mínima	18.6
27172	7	Sololá	701	Sololá	3	Barraneche	5	Mayo	2023-05-22T00:00:00	2024-11-06T12:00:00	5	Humedad	62
27173	7	Sololá	701	Sololá	3	Barraneche	5	Mayo	2023-05-22T00:00:00	2024-11-06T12:00:00	6	Velocidad del viento	6.4
27174	7	Sololá	701	Sololá	3	Barraneche	5	Mayo	2023-05-22T00:00:00	2024-11-06T12:00:00	7	Dirección del viento	6.44
27175	7	Sololá	701	Sololá	3	Barraneche	5	Mayo	2023-05-22T00:00:00	2024-11-06T12:00:00	1	Precipitación	0
27176	7	Sololá	701	Sololá	3	Barraneche	5	Mayo	2023-05-22T00:00:00	2024-11-06T12:00:00	8	Radiación solar	302
27177	7	Sololá	701	Sololá	3	Barraneche	5	Mayo	2023-05-22T00:00:00	2024-11-06T13:00:00	2	Temperatura media	16.6
27178	7	Sololá	701	Sololá	3	Barraneche	5	Mayo	2023-05-22T00:00:00	2024-11-06T13:00:00	4	Temperatura máxima	18.8
27179	7	Sololá	701	Sololá	3	Barraneche	5	Mayo	2023-05-22T00:00:00	2024-11-06T13:00:00	3	Temperatura mínima	16.6
27180	7	Sololá	701	Sololá	3	Barraneche	5	Mayo	2023-05-22T00:00:00	2024-11-06T13:00:00	5	Humedad	71
27181	7	Sololá	701	Sololá	3	Barraneche	5	Mayo	2023-05-22T00:00:00	2024-11-06T13:00:00	6	Velocidad del viento	14.5
27182	7	Sololá	701	Sololá	3	Barraneche	5	Mayo	2023-05-22T00:00:00	2024-11-06T13:00:00	7	Dirección del viento	14.48
27183	7	Sololá	701	Sololá	3	Barraneche	5	Mayo	2023-05-22T00:00:00	2024-11-06T13:00:00	1	Precipitación	0
27184	7	Sololá	701	Sololá	3	Barraneche	5	Mayo	2023-05-22T00:00:00	2024-11-06T13:00:00	8	Radiación solar	276
27185	7	Sololá	701	Sololá	3	Barraneche	5	Mayo	2023-05-22T00:00:00	2024-11-06T14:00:00	2	Temperatura media	17.4
27186	7	Sololá	701	Sololá	3	Barraneche	5	Mayo	2023-05-22T00:00:00	2024-11-06T14:00:00	4	Temperatura máxima	17.6
27187	7	Sololá	701	Sololá	3	Barraneche	5	Mayo	2023-05-22T00:00:00	2024-11-06T14:00:00	3	Temperatura mínima	16.6
27188	7	Sololá	701	Sololá	3	Barraneche	5	Mayo	2023-05-22T00:00:00	2024-11-06T14:00:00	5	Humedad	66
27189	7	Sololá	701	Sololá	3	Barraneche	5	Mayo	2023-05-22T00:00:00	2024-11-06T14:00:00	6	Velocidad del viento	11.3
27190	7	Sololá	701	Sololá	3	Barraneche	5	Mayo	2023-05-22T00:00:00	2024-11-06T14:00:00	7	Dirección del viento	11.27
27191	7	Sololá	701	Sololá	3	Barraneche	5	Mayo	2023-05-22T00:00:00	2024-11-06T14:00:00	1	Precipitación	0
27192	7	Sololá	701	Sololá	3	Barraneche	5	Mayo	2023-05-22T00:00:00	2024-11-06T14:00:00	8	Radiación solar	226
27193	7	Sololá	701	Sololá	3	Barraneche	5	Mayo	2023-05-22T00:00:00	2024-11-06T15:00:00	2	Temperatura media	16.2
27194	7	Sololá	701	Sololá	3	Barraneche	5	Mayo	2023-05-22T00:00:00	2024-11-06T15:00:00	4	Temperatura máxima	17.4
27195	7	Sololá	701	Sololá	3	Barraneche	5	Mayo	2023-05-22T00:00:00	2024-11-06T15:00:00	3	Temperatura mínima	16.2
27196	7	Sololá	701	Sololá	3	Barraneche	5	Mayo	2023-05-22T00:00:00	2024-11-06T15:00:00	5	Humedad	73
27197	7	Sololá	701	Sololá	3	Barraneche	5	Mayo	2023-05-22T00:00:00	2024-11-06T15:00:00	6	Velocidad del viento	11.3
27198	7	Sololá	701	Sololá	3	Barraneche	5	Mayo	2023-05-22T00:00:00	2024-11-06T15:00:00	7	Dirección del viento	11.27
27199	7	Sololá	701	Sololá	3	Barraneche	5	Mayo	2023-05-22T00:00:00	2024-11-06T15:00:00	1	Precipitación	0
27200	7	Sololá	701	Sololá	3	Barraneche	5	Mayo	2023-05-22T00:00:00	2024-11-06T15:00:00	8	Radiación solar	178
27201	7	Sololá	701	Sololá	3	Barraneche	5	Mayo	2023-05-22T00:00:00	2024-11-06T16:00:00	2	Temperatura media	18.2
27202	7	Sololá	701	Sololá	3	Barraneche	5	Mayo	2023-05-22T00:00:00	2024-11-06T16:00:00	4	Temperatura máxima	18.6
27203	7	Sololá	701	Sololá	3	Barraneche	5	Mayo	2023-05-22T00:00:00	2024-11-06T16:00:00	3	Temperatura mínima	16.2
27204	7	Sololá	701	Sololá	3	Barraneche	5	Mayo	2023-05-22T00:00:00	2024-11-06T16:00:00	5	Humedad	60
27205	7	Sololá	701	Sololá	3	Barraneche	5	Mayo	2023-05-22T00:00:00	2024-11-06T16:00:00	6	Velocidad del viento	8
27206	7	Sololá	701	Sololá	3	Barraneche	5	Mayo	2023-05-22T00:00:00	2024-11-06T16:00:00	7	Dirección del viento	8.05
27207	7	Sololá	701	Sololá	3	Barraneche	5	Mayo	2023-05-22T00:00:00	2024-11-06T16:00:00	1	Precipitación	0
27208	7	Sololá	701	Sololá	3	Barraneche	5	Mayo	2023-05-22T00:00:00	2024-11-06T16:00:00	8	Radiación solar	262
27209	7	Sololá	701	Sololá	3	Barraneche	5	Mayo	2023-05-22T00:00:00	2024-11-06T17:00:00	2	Temperatura media	17.1
27210	7	Sololá	701	Sololá	3	Barraneche	5	Mayo	2023-05-22T00:00:00	2024-11-06T17:00:00	4	Temperatura máxima	18.3
27211	7	Sololá	701	Sololá	3	Barraneche	5	Mayo	2023-05-22T00:00:00	2024-11-06T17:00:00	3	Temperatura mínima	17.1
27212	7	Sololá	701	Sololá	3	Barraneche	5	Mayo	2023-05-22T00:00:00	2024-11-06T17:00:00	5	Humedad	64
27213	7	Sololá	701	Sololá	3	Barraneche	5	Mayo	2023-05-22T00:00:00	2024-11-06T17:00:00	6	Velocidad del viento	11.3
27214	7	Sololá	701	Sololá	3	Barraneche	5	Mayo	2023-05-22T00:00:00	2024-11-06T17:00:00	7	Dirección del viento	11.27
27215	7	Sololá	701	Sololá	3	Barraneche	5	Mayo	2023-05-22T00:00:00	2024-11-06T17:00:00	1	Precipitación	0
27216	7	Sololá	701	Sololá	3	Barraneche	5	Mayo	2023-05-22T00:00:00	2024-11-06T17:00:00	8	Radiación solar	119
27217	7	Sololá	701	Sololá	3	Barraneche	5	Mayo	2023-05-22T00:00:00	2024-11-06T18:00:00	2	Temperatura media	16.4
27218	7	Sololá	701	Sololá	3	Barraneche	5	Mayo	2023-05-22T00:00:00	2024-11-06T18:00:00	4	Temperatura máxima	17.2
27219	7	Sololá	701	Sololá	3	Barraneche	5	Mayo	2023-05-22T00:00:00	2024-11-06T18:00:00	3	Temperatura mínima	16.4
27220	7	Sololá	701	Sololá	3	Barraneche	5	Mayo	2023-05-22T00:00:00	2024-11-06T18:00:00	5	Humedad	64
27221	7	Sololá	701	Sololá	3	Barraneche	5	Mayo	2023-05-22T00:00:00	2024-11-06T18:00:00	6	Velocidad del viento	8
27222	7	Sololá	701	Sololá	3	Barraneche	5	Mayo	2023-05-22T00:00:00	2024-11-06T18:00:00	7	Dirección del viento	8.05
27223	7	Sololá	701	Sololá	3	Barraneche	5	Mayo	2023-05-22T00:00:00	2024-11-06T18:00:00	1	Precipitación	0
27224	7	Sololá	701	Sololá	3	Barraneche	5	Mayo	2023-05-22T00:00:00	2024-11-06T18:00:00	8	Radiación solar	59
27225	7	Sololá	701	Sololá	3	Barraneche	5	Mayo	2023-05-22T00:00:00	2024-11-06T19:00:00	2	Temperatura media	16.2
27226	7	Sololá	701	Sololá	3	Barraneche	5	Mayo	2023-05-22T00:00:00	2024-11-06T19:00:00	4	Temperatura máxima	16.4
27227	7	Sololá	701	Sololá	3	Barraneche	5	Mayo	2023-05-22T00:00:00	2024-11-06T19:00:00	3	Temperatura mínima	16.1
27228	7	Sololá	701	Sololá	3	Barraneche	5	Mayo	2023-05-22T00:00:00	2024-11-06T19:00:00	5	Humedad	65
27229	7	Sololá	701	Sololá	3	Barraneche	5	Mayo	2023-05-22T00:00:00	2024-11-06T19:00:00	6	Velocidad del viento	6.4
27230	7	Sololá	701	Sololá	3	Barraneche	5	Mayo	2023-05-22T00:00:00	2024-11-06T19:00:00	7	Dirección del viento	6.44
27231	7	Sololá	701	Sololá	3	Barraneche	5	Mayo	2023-05-22T00:00:00	2024-11-06T19:00:00	1	Precipitación	0
27232	7	Sololá	701	Sololá	3	Barraneche	5	Mayo	2023-05-22T00:00:00	2024-11-06T19:00:00	8	Radiación solar	0
27233	7	Sololá	701	Sololá	3	Barraneche	5	Mayo	2023-05-22T00:00:00	2024-11-06T20:00:00	2	Temperatura media	16.3
27234	7	Sololá	701	Sololá	3	Barraneche	5	Mayo	2023-05-22T00:00:00	2024-11-06T20:00:00	4	Temperatura máxima	16.4
27235	7	Sololá	701	Sololá	3	Barraneche	5	Mayo	2023-05-22T00:00:00	2024-11-06T20:00:00	3	Temperatura mínima	16.2
27236	7	Sololá	701	Sololá	3	Barraneche	5	Mayo	2023-05-22T00:00:00	2024-11-06T20:00:00	5	Humedad	64
27237	7	Sololá	701	Sololá	3	Barraneche	5	Mayo	2023-05-22T00:00:00	2024-11-06T20:00:00	6	Velocidad del viento	8
27238	7	Sololá	701	Sololá	3	Barraneche	5	Mayo	2023-05-22T00:00:00	2024-11-06T20:00:00	7	Dirección del viento	8.05
27239	7	Sololá	701	Sololá	3	Barraneche	5	Mayo	2023-05-22T00:00:00	2024-11-06T20:00:00	1	Precipitación	0
27240	7	Sololá	701	Sololá	3	Barraneche	5	Mayo	2023-05-22T00:00:00	2024-11-06T20:00:00	8	Radiación solar	0
27241	7	Sololá	701	Sololá	3	Barraneche	5	Mayo	2023-05-22T00:00:00	2024-11-06T21:00:00	2	Temperatura media	15.8
27242	7	Sololá	701	Sololá	3	Barraneche	5	Mayo	2023-05-22T00:00:00	2024-11-06T21:00:00	4	Temperatura máxima	16.4
27243	7	Sololá	701	Sololá	3	Barraneche	5	Mayo	2023-05-22T00:00:00	2024-11-06T21:00:00	3	Temperatura mínima	15.7
27244	7	Sololá	701	Sololá	3	Barraneche	5	Mayo	2023-05-22T00:00:00	2024-11-06T21:00:00	5	Humedad	63
27245	7	Sololá	701	Sololá	3	Barraneche	5	Mayo	2023-05-22T00:00:00	2024-11-06T21:00:00	6	Velocidad del viento	12.9
27246	7	Sololá	701	Sololá	3	Barraneche	5	Mayo	2023-05-22T00:00:00	2024-11-06T21:00:00	7	Dirección del viento	12.87
27247	7	Sololá	701	Sololá	3	Barraneche	5	Mayo	2023-05-22T00:00:00	2024-11-06T21:00:00	1	Precipitación	0
27248	7	Sololá	701	Sololá	3	Barraneche	5	Mayo	2023-05-22T00:00:00	2024-11-06T21:00:00	8	Radiación solar	0
27249	7	Sololá	701	Sololá	3	Barraneche	5	Mayo	2023-05-22T00:00:00	2024-11-06T22:00:00	2	Temperatura media	15.6
27250	7	Sololá	701	Sololá	3	Barraneche	5	Mayo	2023-05-22T00:00:00	2024-11-06T22:00:00	4	Temperatura máxima	15.8
27251	7	Sololá	701	Sololá	3	Barraneche	5	Mayo	2023-05-22T00:00:00	2024-11-06T22:00:00	3	Temperatura mínima	15.6
27252	7	Sololá	701	Sololá	3	Barraneche	5	Mayo	2023-05-22T00:00:00	2024-11-06T22:00:00	5	Humedad	64
27253	7	Sololá	701	Sololá	3	Barraneche	5	Mayo	2023-05-22T00:00:00	2024-11-06T22:00:00	6	Velocidad del viento	9.7
27254	7	Sololá	701	Sololá	3	Barraneche	5	Mayo	2023-05-22T00:00:00	2024-11-06T22:00:00	7	Dirección del viento	9.66
27255	7	Sololá	701	Sololá	3	Barraneche	5	Mayo	2023-05-22T00:00:00	2024-11-06T22:00:00	1	Precipitación	0
27256	7	Sololá	701	Sololá	3	Barraneche	5	Mayo	2023-05-22T00:00:00	2024-11-06T22:00:00	8	Radiación solar	0
27257	7	Sololá	701	Sololá	3	Barraneche	5	Mayo	2023-05-22T00:00:00	2024-11-06T23:00:00	2	Temperatura media	15.3
27258	7	Sololá	701	Sololá	3	Barraneche	5	Mayo	2023-05-22T00:00:00	2024-11-06T23:00:00	4	Temperatura máxima	15.6
27259	7	Sololá	701	Sololá	3	Barraneche	5	Mayo	2023-05-22T00:00:00	2024-11-06T23:00:00	3	Temperatura mínima	15.3
27260	7	Sololá	701	Sololá	3	Barraneche	5	Mayo	2023-05-22T00:00:00	2024-11-06T23:00:00	5	Humedad	65
27261	7	Sololá	701	Sololá	3	Barraneche	5	Mayo	2023-05-22T00:00:00	2024-11-06T23:00:00	6	Velocidad del viento	20.9
27262	7	Sololá	701	Sololá	3	Barraneche	5	Mayo	2023-05-22T00:00:00	2024-11-06T23:00:00	7	Dirección del viento	20.92
27263	7	Sololá	701	Sololá	3	Barraneche	5	Mayo	2023-05-22T00:00:00	2024-11-06T23:00:00	1	Precipitación	0
27264	7	Sololá	701	Sololá	3	Barraneche	5	Mayo	2023-05-22T00:00:00	2024-11-06T23:00:00	8	Radiación solar	0
27265	7	Sololá	701	Sololá	3	Barraneche	5	Mayo	2023-05-23T00:00:00	2024-11-06T00:00:00	2	Temperatura media	15.4
27266	7	Sololá	701	Sololá	3	Barraneche	5	Mayo	2023-05-23T00:00:00	2024-11-06T00:00:00	4	Temperatura máxima	15.4
27267	7	Sololá	701	Sololá	3	Barraneche	5	Mayo	2023-05-23T00:00:00	2024-11-06T00:00:00	3	Temperatura mínima	15.1
27268	7	Sololá	701	Sololá	3	Barraneche	5	Mayo	2023-05-23T00:00:00	2024-11-06T00:00:00	5	Humedad	63
27269	7	Sololá	701	Sololá	3	Barraneche	5	Mayo	2023-05-23T00:00:00	2024-11-06T00:00:00	6	Velocidad del viento	16.1
27270	7	Sololá	701	Sololá	3	Barraneche	5	Mayo	2023-05-23T00:00:00	2024-11-06T00:00:00	7	Dirección del viento	16.09
27271	7	Sololá	701	Sololá	3	Barraneche	5	Mayo	2023-05-23T00:00:00	2024-11-06T00:00:00	1	Precipitación	0
27272	7	Sololá	701	Sololá	3	Barraneche	5	Mayo	2023-05-23T00:00:00	2024-11-06T00:00:00	8	Radiación solar	0
27273	7	Sololá	701	Sololá	3	Barraneche	5	Mayo	2023-05-23T00:00:00	2024-11-06T01:00:00	2	Temperatura media	14.3
27274	7	Sololá	701	Sololá	3	Barraneche	5	Mayo	2023-05-23T00:00:00	2024-11-06T01:00:00	4	Temperatura máxima	15.4
27275	7	Sololá	701	Sololá	3	Barraneche	5	Mayo	2023-05-23T00:00:00	2024-11-06T01:00:00	3	Temperatura mínima	14
27276	7	Sololá	701	Sololá	3	Barraneche	5	Mayo	2023-05-23T00:00:00	2024-11-06T01:00:00	5	Humedad	66
27277	7	Sololá	701	Sololá	3	Barraneche	5	Mayo	2023-05-23T00:00:00	2024-11-06T01:00:00	6	Velocidad del viento	6.4
27278	7	Sololá	701	Sololá	3	Barraneche	5	Mayo	2023-05-23T00:00:00	2024-11-06T01:00:00	7	Dirección del viento	6.44
27279	7	Sololá	701	Sololá	3	Barraneche	5	Mayo	2023-05-23T00:00:00	2024-11-06T01:00:00	1	Precipitación	0
27280	7	Sololá	701	Sololá	3	Barraneche	5	Mayo	2023-05-23T00:00:00	2024-11-06T01:00:00	8	Radiación solar	0
27281	7	Sololá	701	Sololá	3	Barraneche	5	Mayo	2023-05-23T00:00:00	2024-11-06T02:00:00	2	Temperatura media	12.7
27282	7	Sololá	701	Sololá	3	Barraneche	5	Mayo	2023-05-23T00:00:00	2024-11-06T02:00:00	4	Temperatura máxima	14.8
27283	7	Sololá	701	Sololá	3	Barraneche	5	Mayo	2023-05-23T00:00:00	2024-11-06T02:00:00	3	Temperatura mínima	12.7
27284	7	Sololá	701	Sololá	3	Barraneche	5	Mayo	2023-05-23T00:00:00	2024-11-06T02:00:00	5	Humedad	70
27285	7	Sololá	701	Sololá	3	Barraneche	5	Mayo	2023-05-23T00:00:00	2024-11-06T02:00:00	6	Velocidad del viento	3.2
27286	7	Sololá	701	Sololá	3	Barraneche	5	Mayo	2023-05-23T00:00:00	2024-11-06T02:00:00	7	Dirección del viento	3.22
27287	7	Sololá	701	Sololá	3	Barraneche	5	Mayo	2023-05-23T00:00:00	2024-11-06T02:00:00	1	Precipitación	0
27288	7	Sololá	701	Sololá	3	Barraneche	5	Mayo	2023-05-23T00:00:00	2024-11-06T02:00:00	8	Radiación solar	0
27289	7	Sololá	701	Sololá	3	Barraneche	5	Mayo	2023-05-23T00:00:00	2024-11-06T03:00:00	2	Temperatura media	12.4
27290	7	Sololá	701	Sololá	3	Barraneche	5	Mayo	2023-05-23T00:00:00	2024-11-06T03:00:00	4	Temperatura máxima	12.7
27291	7	Sololá	701	Sololá	3	Barraneche	5	Mayo	2023-05-23T00:00:00	2024-11-06T03:00:00	3	Temperatura mínima	11.8
27292	7	Sololá	701	Sololá	3	Barraneche	5	Mayo	2023-05-23T00:00:00	2024-11-06T03:00:00	5	Humedad	71
27293	7	Sololá	701	Sololá	3	Barraneche	5	Mayo	2023-05-23T00:00:00	2024-11-06T03:00:00	6	Velocidad del viento	3.2
27294	7	Sololá	701	Sololá	3	Barraneche	5	Mayo	2023-05-23T00:00:00	2024-11-06T03:00:00	7	Dirección del viento	3.22
27295	7	Sololá	701	Sololá	3	Barraneche	5	Mayo	2023-05-23T00:00:00	2024-11-06T03:00:00	1	Precipitación	0
27296	7	Sololá	701	Sololá	3	Barraneche	5	Mayo	2023-05-23T00:00:00	2024-11-06T03:00:00	8	Radiación solar	0
27297	7	Sololá	701	Sololá	3	Barraneche	5	Mayo	2023-05-23T00:00:00	2024-11-06T04:00:00	2	Temperatura media	11.7
27298	7	Sololá	701	Sololá	3	Barraneche	5	Mayo	2023-05-23T00:00:00	2024-11-06T04:00:00	4	Temperatura máxima	13.1
27299	7	Sololá	701	Sololá	3	Barraneche	5	Mayo	2023-05-23T00:00:00	2024-11-06T04:00:00	3	Temperatura mínima	11.7
27300	7	Sololá	701	Sololá	3	Barraneche	5	Mayo	2023-05-23T00:00:00	2024-11-06T04:00:00	5	Humedad	72
27301	7	Sololá	701	Sololá	3	Barraneche	5	Mayo	2023-05-23T00:00:00	2024-11-06T04:00:00	6	Velocidad del viento	1.6
27302	7	Sololá	701	Sololá	3	Barraneche	5	Mayo	2023-05-23T00:00:00	2024-11-06T04:00:00	7	Dirección del viento	1.61
27303	7	Sololá	701	Sololá	3	Barraneche	5	Mayo	2023-05-23T00:00:00	2024-11-06T04:00:00	1	Precipitación	0
27304	7	Sololá	701	Sololá	3	Barraneche	5	Mayo	2023-05-23T00:00:00	2024-11-06T04:00:00	8	Radiación solar	0
27305	7	Sololá	701	Sololá	3	Barraneche	5	Mayo	2023-05-23T00:00:00	2024-11-06T05:00:00	2	Temperatura media	11.4
27306	7	Sololá	701	Sololá	3	Barraneche	5	Mayo	2023-05-23T00:00:00	2024-11-06T05:00:00	4	Temperatura máxima	11.7
27307	7	Sololá	701	Sololá	3	Barraneche	5	Mayo	2023-05-23T00:00:00	2024-11-06T05:00:00	3	Temperatura mínima	11.3
27308	7	Sololá	701	Sololá	3	Barraneche	5	Mayo	2023-05-23T00:00:00	2024-11-06T05:00:00	5	Humedad	73
27309	7	Sololá	701	Sololá	3	Barraneche	5	Mayo	2023-05-23T00:00:00	2024-11-06T05:00:00	6	Velocidad del viento	4.8
27310	7	Sololá	701	Sololá	3	Barraneche	5	Mayo	2023-05-23T00:00:00	2024-11-06T05:00:00	7	Dirección del viento	4.83
27311	7	Sololá	701	Sololá	3	Barraneche	5	Mayo	2023-05-23T00:00:00	2024-11-06T05:00:00	1	Precipitación	0
27312	7	Sololá	701	Sololá	3	Barraneche	5	Mayo	2023-05-23T00:00:00	2024-11-06T05:00:00	8	Radiación solar	0
27313	7	Sololá	701	Sololá	3	Barraneche	5	Mayo	2023-05-23T00:00:00	2024-11-06T06:00:00	2	Temperatura media	11.6
27314	7	Sololá	701	Sololá	3	Barraneche	5	Mayo	2023-05-23T00:00:00	2024-11-06T06:00:00	4	Temperatura máxima	11.6
27315	7	Sololá	701	Sololá	3	Barraneche	5	Mayo	2023-05-23T00:00:00	2024-11-06T06:00:00	3	Temperatura mínima	11.3
27316	7	Sololá	701	Sololá	3	Barraneche	5	Mayo	2023-05-23T00:00:00	2024-11-06T06:00:00	5	Humedad	72
27317	7	Sololá	701	Sololá	3	Barraneche	5	Mayo	2023-05-23T00:00:00	2024-11-06T06:00:00	6	Velocidad del viento	4.8
27318	7	Sololá	701	Sololá	3	Barraneche	5	Mayo	2023-05-23T00:00:00	2024-11-06T06:00:00	7	Dirección del viento	4.83
27319	7	Sololá	701	Sololá	3	Barraneche	5	Mayo	2023-05-23T00:00:00	2024-11-06T06:00:00	1	Precipitación	0
27320	7	Sololá	701	Sololá	3	Barraneche	5	Mayo	2023-05-23T00:00:00	2024-11-06T06:00:00	8	Radiación solar	9
27321	7	Sololá	701	Sololá	3	Barraneche	5	Mayo	2023-05-23T00:00:00	2024-11-06T07:00:00	2	Temperatura media	13.7
27322	7	Sololá	701	Sololá	3	Barraneche	5	Mayo	2023-05-23T00:00:00	2024-11-06T07:00:00	4	Temperatura máxima	13.7
27323	7	Sololá	701	Sololá	3	Barraneche	5	Mayo	2023-05-23T00:00:00	2024-11-06T07:00:00	3	Temperatura mínima	11.6
27324	7	Sololá	701	Sololá	3	Barraneche	5	Mayo	2023-05-23T00:00:00	2024-11-06T07:00:00	5	Humedad	66
27325	7	Sololá	701	Sololá	3	Barraneche	5	Mayo	2023-05-23T00:00:00	2024-11-06T07:00:00	6	Velocidad del viento	6.4
27326	7	Sololá	701	Sololá	3	Barraneche	5	Mayo	2023-05-23T00:00:00	2024-11-06T07:00:00	7	Dirección del viento	6.44
27327	7	Sololá	701	Sololá	3	Barraneche	5	Mayo	2023-05-23T00:00:00	2024-11-06T07:00:00	1	Precipitación	0
27328	7	Sololá	701	Sololá	3	Barraneche	5	Mayo	2023-05-23T00:00:00	2024-11-06T07:00:00	8	Radiación solar	105
27329	7	Sololá	701	Sololá	3	Barraneche	5	Mayo	2023-05-23T00:00:00	2024-11-06T08:00:00	2	Temperatura media	17.1
27330	7	Sololá	701	Sololá	3	Barraneche	5	Mayo	2023-05-23T00:00:00	2024-11-06T08:00:00	4	Temperatura máxima	17.1
27331	7	Sololá	701	Sololá	3	Barraneche	5	Mayo	2023-05-23T00:00:00	2024-11-06T08:00:00	3	Temperatura mínima	13.8
27332	7	Sololá	701	Sololá	3	Barraneche	5	Mayo	2023-05-23T00:00:00	2024-11-06T08:00:00	5	Humedad	58
27333	7	Sololá	701	Sololá	3	Barraneche	5	Mayo	2023-05-23T00:00:00	2024-11-06T08:00:00	6	Velocidad del viento	1.6
27334	7	Sololá	701	Sololá	3	Barraneche	5	Mayo	2023-05-23T00:00:00	2024-11-06T08:00:00	7	Dirección del viento	1.61
27335	7	Sololá	701	Sololá	3	Barraneche	5	Mayo	2023-05-23T00:00:00	2024-11-06T08:00:00	1	Precipitación	0
27336	7	Sololá	701	Sololá	3	Barraneche	5	Mayo	2023-05-23T00:00:00	2024-11-06T08:00:00	8	Radiación solar	352
27337	7	Sololá	701	Sololá	3	Barraneche	5	Mayo	2023-05-23T00:00:00	2024-11-06T09:00:00	2	Temperatura media	18.2
27338	7	Sololá	701	Sololá	3	Barraneche	5	Mayo	2023-05-23T00:00:00	2024-11-06T09:00:00	4	Temperatura máxima	18.3
27339	7	Sololá	701	Sololá	3	Barraneche	5	Mayo	2023-05-23T00:00:00	2024-11-06T09:00:00	3	Temperatura mínima	17
27340	7	Sololá	701	Sololá	3	Barraneche	5	Mayo	2023-05-23T00:00:00	2024-11-06T09:00:00	5	Humedad	51
27341	7	Sololá	701	Sololá	3	Barraneche	5	Mayo	2023-05-23T00:00:00	2024-11-06T09:00:00	6	Velocidad del viento	8
27342	7	Sololá	701	Sololá	3	Barraneche	5	Mayo	2023-05-23T00:00:00	2024-11-06T09:00:00	7	Dirección del viento	8.05
27343	7	Sololá	701	Sololá	3	Barraneche	5	Mayo	2023-05-23T00:00:00	2024-11-06T09:00:00	1	Precipitación	0
27344	7	Sololá	701	Sololá	3	Barraneche	5	Mayo	2023-05-23T00:00:00	2024-11-06T09:00:00	8	Radiación solar	581
27345	7	Sololá	701	Sololá	3	Barraneche	5	Mayo	2023-05-23T00:00:00	2024-11-06T10:00:00	2	Temperatura media	19.4
27346	7	Sololá	701	Sololá	3	Barraneche	5	Mayo	2023-05-23T00:00:00	2024-11-06T10:00:00	4	Temperatura máxima	19.7
27347	7	Sololá	701	Sololá	3	Barraneche	5	Mayo	2023-05-23T00:00:00	2024-11-06T10:00:00	3	Temperatura mínima	18.2
27348	7	Sololá	701	Sololá	3	Barraneche	5	Mayo	2023-05-23T00:00:00	2024-11-06T10:00:00	5	Humedad	54
27349	7	Sololá	701	Sololá	3	Barraneche	5	Mayo	2023-05-23T00:00:00	2024-11-06T10:00:00	6	Velocidad del viento	11.3
27350	7	Sololá	701	Sololá	3	Barraneche	5	Mayo	2023-05-23T00:00:00	2024-11-06T10:00:00	7	Dirección del viento	11.27
27351	7	Sololá	701	Sololá	3	Barraneche	5	Mayo	2023-05-23T00:00:00	2024-11-06T10:00:00	1	Precipitación	0
27352	7	Sololá	701	Sololá	3	Barraneche	5	Mayo	2023-05-23T00:00:00	2024-11-06T10:00:00	8	Radiación solar	802
27353	7	Sololá	701	Sololá	3	Barraneche	5	Mayo	2023-05-23T00:00:00	2024-11-06T11:00:00	2	Temperatura media	19.6
27354	7	Sololá	701	Sololá	3	Barraneche	5	Mayo	2023-05-23T00:00:00	2024-11-06T11:00:00	4	Temperatura máxima	19.6
27355	7	Sololá	701	Sololá	3	Barraneche	5	Mayo	2023-05-23T00:00:00	2024-11-06T11:00:00	3	Temperatura mínima	18.8
27356	7	Sololá	701	Sololá	3	Barraneche	5	Mayo	2023-05-23T00:00:00	2024-11-06T11:00:00	5	Humedad	53
27357	7	Sololá	701	Sololá	3	Barraneche	5	Mayo	2023-05-23T00:00:00	2024-11-06T11:00:00	6	Velocidad del viento	9.7
27358	7	Sololá	701	Sololá	3	Barraneche	5	Mayo	2023-05-23T00:00:00	2024-11-06T11:00:00	7	Dirección del viento	9.66
27359	7	Sololá	701	Sololá	3	Barraneche	5	Mayo	2023-05-23T00:00:00	2024-11-06T11:00:00	1	Precipitación	0
27360	7	Sololá	701	Sololá	3	Barraneche	5	Mayo	2023-05-23T00:00:00	2024-11-06T11:00:00	8	Radiación solar	735
27361	7	Sololá	701	Sololá	3	Barraneche	5	Mayo	2023-05-23T00:00:00	2024-11-06T12:00:00	2	Temperatura media	18.2
27362	7	Sololá	701	Sololá	3	Barraneche	5	Mayo	2023-05-23T00:00:00	2024-11-06T12:00:00	4	Temperatura máxima	19.6
27363	7	Sololá	701	Sololá	3	Barraneche	5	Mayo	2023-05-23T00:00:00	2024-11-06T12:00:00	3	Temperatura mínima	18.2
27364	7	Sololá	701	Sololá	3	Barraneche	5	Mayo	2023-05-23T00:00:00	2024-11-06T12:00:00	5	Humedad	62
27365	7	Sololá	701	Sololá	3	Barraneche	5	Mayo	2023-05-23T00:00:00	2024-11-06T12:00:00	6	Velocidad del viento	12.9
27366	7	Sololá	701	Sololá	3	Barraneche	5	Mayo	2023-05-23T00:00:00	2024-11-06T12:00:00	7	Dirección del viento	12.87
27367	7	Sololá	701	Sololá	3	Barraneche	5	Mayo	2023-05-23T00:00:00	2024-11-06T12:00:00	1	Precipitación	0
27368	7	Sololá	701	Sololá	3	Barraneche	5	Mayo	2023-05-23T00:00:00	2024-11-06T12:00:00	8	Radiación solar	657
27369	7	Sololá	701	Sololá	3	Barraneche	5	Mayo	2023-05-23T00:00:00	2024-11-06T13:00:00	2	Temperatura media	17.8
27370	7	Sololá	701	Sololá	3	Barraneche	5	Mayo	2023-05-23T00:00:00	2024-11-06T13:00:00	4	Temperatura máxima	18.2
27371	7	Sololá	701	Sololá	3	Barraneche	5	Mayo	2023-05-23T00:00:00	2024-11-06T13:00:00	3	Temperatura mínima	17.7
27372	7	Sololá	701	Sololá	3	Barraneche	5	Mayo	2023-05-23T00:00:00	2024-11-06T13:00:00	5	Humedad	67
27373	7	Sololá	701	Sololá	3	Barraneche	5	Mayo	2023-05-23T00:00:00	2024-11-06T13:00:00	6	Velocidad del viento	9.7
27374	7	Sololá	701	Sololá	3	Barraneche	5	Mayo	2023-05-23T00:00:00	2024-11-06T13:00:00	7	Dirección del viento	9.66
27375	7	Sololá	701	Sololá	3	Barraneche	5	Mayo	2023-05-23T00:00:00	2024-11-06T13:00:00	1	Precipitación	0
27376	7	Sololá	701	Sololá	3	Barraneche	5	Mayo	2023-05-23T00:00:00	2024-11-06T13:00:00	8	Radiación solar	298
27377	7	Sololá	701	Sololá	3	Barraneche	5	Mayo	2023-05-23T00:00:00	2024-11-06T14:00:00	2	Temperatura media	17.3
27378	7	Sololá	701	Sololá	3	Barraneche	5	Mayo	2023-05-23T00:00:00	2024-11-06T14:00:00	4	Temperatura máxima	17.8
27379	7	Sololá	701	Sololá	3	Barraneche	5	Mayo	2023-05-23T00:00:00	2024-11-06T14:00:00	3	Temperatura mínima	17.1
27380	7	Sololá	701	Sololá	3	Barraneche	5	Mayo	2023-05-23T00:00:00	2024-11-06T14:00:00	5	Humedad	68
27381	7	Sololá	701	Sololá	3	Barraneche	5	Mayo	2023-05-23T00:00:00	2024-11-06T14:00:00	6	Velocidad del viento	9.7
27382	7	Sololá	701	Sololá	3	Barraneche	5	Mayo	2023-05-23T00:00:00	2024-11-06T14:00:00	7	Dirección del viento	9.66
27383	7	Sololá	701	Sololá	3	Barraneche	5	Mayo	2023-05-23T00:00:00	2024-11-06T14:00:00	1	Precipitación	0
27384	7	Sololá	701	Sololá	3	Barraneche	5	Mayo	2023-05-23T00:00:00	2024-11-06T14:00:00	8	Radiación solar	290
27385	7	Sololá	701	Sololá	3	Barraneche	5	Mayo	2023-05-23T00:00:00	2024-11-06T15:00:00	2	Temperatura media	17.3
27386	7	Sololá	701	Sololá	3	Barraneche	5	Mayo	2023-05-23T00:00:00	2024-11-06T15:00:00	4	Temperatura máxima	17.6
27387	7	Sololá	701	Sololá	3	Barraneche	5	Mayo	2023-05-23T00:00:00	2024-11-06T15:00:00	3	Temperatura mínima	17.1
27388	7	Sololá	701	Sololá	3	Barraneche	5	Mayo	2023-05-23T00:00:00	2024-11-06T15:00:00	5	Humedad	69
27389	7	Sololá	701	Sololá	3	Barraneche	5	Mayo	2023-05-23T00:00:00	2024-11-06T15:00:00	6	Velocidad del viento	6.4
27390	7	Sololá	701	Sololá	3	Barraneche	5	Mayo	2023-05-23T00:00:00	2024-11-06T15:00:00	7	Dirección del viento	6.44
27391	7	Sololá	701	Sololá	3	Barraneche	5	Mayo	2023-05-23T00:00:00	2024-11-06T15:00:00	1	Precipitación	0
27392	7	Sololá	701	Sololá	3	Barraneche	5	Mayo	2023-05-23T00:00:00	2024-11-06T15:00:00	8	Radiación solar	162
27393	7	Sololá	701	Sololá	3	Barraneche	5	Mayo	2023-05-23T00:00:00	2024-11-06T16:00:00	2	Temperatura media	17.2
27394	7	Sololá	701	Sololá	3	Barraneche	5	Mayo	2023-05-23T00:00:00	2024-11-06T16:00:00	4	Temperatura máxima	17.3
27395	7	Sololá	701	Sololá	3	Barraneche	5	Mayo	2023-05-23T00:00:00	2024-11-06T16:00:00	3	Temperatura mínima	16.8
27396	7	Sololá	701	Sololá	3	Barraneche	5	Mayo	2023-05-23T00:00:00	2024-11-06T16:00:00	5	Humedad	69
27397	7	Sololá	701	Sololá	3	Barraneche	5	Mayo	2023-05-23T00:00:00	2024-11-06T16:00:00	6	Velocidad del viento	8
27398	7	Sololá	701	Sololá	3	Barraneche	5	Mayo	2023-05-23T00:00:00	2024-11-06T16:00:00	7	Dirección del viento	8.05
27399	7	Sololá	701	Sololá	3	Barraneche	5	Mayo	2023-05-23T00:00:00	2024-11-06T16:00:00	1	Precipitación	0
27400	7	Sololá	701	Sololá	3	Barraneche	5	Mayo	2023-05-23T00:00:00	2024-11-06T16:00:00	8	Radiación solar	192
27401	7	Sololá	701	Sololá	3	Barraneche	5	Mayo	2023-05-23T00:00:00	2024-11-06T17:00:00	2	Temperatura media	16.9
27402	7	Sololá	701	Sololá	3	Barraneche	5	Mayo	2023-05-23T00:00:00	2024-11-06T17:00:00	4	Temperatura máxima	17.2
27403	7	Sololá	701	Sololá	3	Barraneche	5	Mayo	2023-05-23T00:00:00	2024-11-06T17:00:00	3	Temperatura mínima	16.9
27404	7	Sololá	701	Sololá	3	Barraneche	5	Mayo	2023-05-23T00:00:00	2024-11-06T17:00:00	5	Humedad	70
27405	7	Sololá	701	Sololá	3	Barraneche	5	Mayo	2023-05-23T00:00:00	2024-11-06T17:00:00	6	Velocidad del viento	8
27406	7	Sololá	701	Sololá	3	Barraneche	5	Mayo	2023-05-23T00:00:00	2024-11-06T17:00:00	7	Dirección del viento	8.05
27407	7	Sololá	701	Sololá	3	Barraneche	5	Mayo	2023-05-23T00:00:00	2024-11-06T17:00:00	1	Precipitación	0
27408	7	Sololá	701	Sololá	3	Barraneche	5	Mayo	2023-05-23T00:00:00	2024-11-06T17:00:00	8	Radiación solar	146
27409	7	Sololá	701	Sololá	3	Barraneche	5	Mayo	2023-05-23T00:00:00	2024-11-06T18:00:00	2	Temperatura media	15.9
27410	7	Sololá	701	Sololá	3	Barraneche	5	Mayo	2023-05-23T00:00:00	2024-11-06T18:00:00	4	Temperatura máxima	16.9
27411	7	Sololá	701	Sololá	3	Barraneche	5	Mayo	2023-05-23T00:00:00	2024-11-06T18:00:00	3	Temperatura mínima	15.8
27412	7	Sololá	701	Sololá	3	Barraneche	5	Mayo	2023-05-23T00:00:00	2024-11-06T18:00:00	5	Humedad	78
27413	7	Sololá	701	Sololá	3	Barraneche	5	Mayo	2023-05-23T00:00:00	2024-11-06T18:00:00	6	Velocidad del viento	6.4
27414	7	Sololá	701	Sololá	3	Barraneche	5	Mayo	2023-05-23T00:00:00	2024-11-06T18:00:00	7	Dirección del viento	6.44
27415	7	Sololá	701	Sololá	3	Barraneche	5	Mayo	2023-05-23T00:00:00	2024-11-06T18:00:00	1	Precipitación	0
27416	7	Sololá	701	Sololá	3	Barraneche	5	Mayo	2023-05-23T00:00:00	2024-11-06T18:00:00	8	Radiación solar	19
27417	7	Sololá	701	Sololá	3	Barraneche	5	Mayo	2023-05-23T00:00:00	2024-11-06T19:00:00	2	Temperatura media	16.8
27418	7	Sololá	701	Sololá	3	Barraneche	5	Mayo	2023-05-23T00:00:00	2024-11-06T19:00:00	4	Temperatura máxima	16.8
27419	7	Sololá	701	Sololá	3	Barraneche	5	Mayo	2023-05-23T00:00:00	2024-11-06T19:00:00	3	Temperatura mínima	15.5
27420	7	Sololá	701	Sololá	3	Barraneche	5	Mayo	2023-05-23T00:00:00	2024-11-06T19:00:00	5	Humedad	63
27421	7	Sololá	701	Sololá	3	Barraneche	5	Mayo	2023-05-23T00:00:00	2024-11-06T19:00:00	6	Velocidad del viento	6.4
27422	7	Sololá	701	Sololá	3	Barraneche	5	Mayo	2023-05-23T00:00:00	2024-11-06T19:00:00	7	Dirección del viento	6.44
27423	7	Sololá	701	Sololá	3	Barraneche	5	Mayo	2023-05-23T00:00:00	2024-11-06T19:00:00	1	Precipitación	0
27424	7	Sololá	701	Sololá	3	Barraneche	5	Mayo	2023-05-23T00:00:00	2024-11-06T19:00:00	8	Radiación solar	0
27425	7	Sololá	701	Sololá	3	Barraneche	5	Mayo	2023-05-23T00:00:00	2024-11-06T20:00:00	2	Temperatura media	16.1
27426	7	Sololá	701	Sololá	3	Barraneche	5	Mayo	2023-05-23T00:00:00	2024-11-06T20:00:00	4	Temperatura máxima	16.8
27427	7	Sololá	701	Sololá	3	Barraneche	5	Mayo	2023-05-23T00:00:00	2024-11-06T20:00:00	3	Temperatura mínima	16.1
27428	7	Sololá	701	Sololá	3	Barraneche	5	Mayo	2023-05-23T00:00:00	2024-11-06T20:00:00	5	Humedad	64
27429	7	Sololá	701	Sololá	3	Barraneche	5	Mayo	2023-05-23T00:00:00	2024-11-06T20:00:00	6	Velocidad del viento	9.7
27430	7	Sololá	701	Sololá	3	Barraneche	5	Mayo	2023-05-23T00:00:00	2024-11-06T20:00:00	7	Dirección del viento	9.66
27431	7	Sololá	701	Sololá	3	Barraneche	5	Mayo	2023-05-23T00:00:00	2024-11-06T20:00:00	1	Precipitación	0
27432	7	Sololá	701	Sololá	3	Barraneche	5	Mayo	2023-05-23T00:00:00	2024-11-06T20:00:00	8	Radiación solar	0
27433	7	Sololá	701	Sololá	3	Barraneche	5	Mayo	2023-05-23T00:00:00	2024-11-06T21:00:00	2	Temperatura media	15.7
27434	7	Sololá	701	Sololá	3	Barraneche	5	Mayo	2023-05-23T00:00:00	2024-11-06T21:00:00	4	Temperatura máxima	16.1
27435	7	Sololá	701	Sololá	3	Barraneche	5	Mayo	2023-05-23T00:00:00	2024-11-06T21:00:00	3	Temperatura mínima	15.7
27436	7	Sololá	701	Sololá	3	Barraneche	5	Mayo	2023-05-23T00:00:00	2024-11-06T21:00:00	5	Humedad	64
27437	7	Sololá	701	Sololá	3	Barraneche	5	Mayo	2023-05-23T00:00:00	2024-11-06T21:00:00	6	Velocidad del viento	6.4
27438	7	Sololá	701	Sololá	3	Barraneche	5	Mayo	2023-05-23T00:00:00	2024-11-06T21:00:00	7	Dirección del viento	6.44
27439	7	Sololá	701	Sololá	3	Barraneche	5	Mayo	2023-05-23T00:00:00	2024-11-06T21:00:00	1	Precipitación	0
27440	7	Sololá	701	Sololá	3	Barraneche	5	Mayo	2023-05-23T00:00:00	2024-11-06T21:00:00	8	Radiación solar	0
27441	7	Sololá	701	Sololá	3	Barraneche	5	Mayo	2023-05-23T00:00:00	2024-11-06T22:00:00	2	Temperatura media	15.1
27442	7	Sololá	701	Sololá	3	Barraneche	5	Mayo	2023-05-23T00:00:00	2024-11-06T22:00:00	4	Temperatura máxima	15.7
27443	7	Sololá	701	Sololá	3	Barraneche	5	Mayo	2023-05-23T00:00:00	2024-11-06T22:00:00	3	Temperatura mínima	15.1
27444	7	Sololá	701	Sololá	3	Barraneche	5	Mayo	2023-05-23T00:00:00	2024-11-06T22:00:00	5	Humedad	65
27445	7	Sololá	701	Sololá	3	Barraneche	5	Mayo	2023-05-23T00:00:00	2024-11-06T22:00:00	6	Velocidad del viento	4.8
27446	7	Sololá	701	Sololá	3	Barraneche	5	Mayo	2023-05-23T00:00:00	2024-11-06T22:00:00	7	Dirección del viento	4.83
27447	7	Sololá	701	Sololá	3	Barraneche	5	Mayo	2023-05-23T00:00:00	2024-11-06T22:00:00	1	Precipitación	0
27448	7	Sololá	701	Sololá	3	Barraneche	5	Mayo	2023-05-23T00:00:00	2024-11-06T22:00:00	8	Radiación solar	0
27449	7	Sololá	701	Sololá	3	Barraneche	5	Mayo	2023-05-23T00:00:00	2024-11-06T23:00:00	2	Temperatura media	12.7
27450	7	Sololá	701	Sololá	3	Barraneche	5	Mayo	2023-05-23T00:00:00	2024-11-06T23:00:00	4	Temperatura máxima	15.1
27451	7	Sololá	701	Sololá	3	Barraneche	5	Mayo	2023-05-23T00:00:00	2024-11-06T23:00:00	3	Temperatura mínima	12.7
27452	7	Sololá	701	Sololá	3	Barraneche	5	Mayo	2023-05-23T00:00:00	2024-11-06T23:00:00	5	Humedad	71
27453	7	Sololá	701	Sololá	3	Barraneche	5	Mayo	2023-05-23T00:00:00	2024-11-06T23:00:00	6	Velocidad del viento	4.8
27454	7	Sololá	701	Sololá	3	Barraneche	5	Mayo	2023-05-23T00:00:00	2024-11-06T23:00:00	7	Dirección del viento	4.83
27455	7	Sololá	701	Sololá	3	Barraneche	5	Mayo	2023-05-23T00:00:00	2024-11-06T23:00:00	1	Precipitación	0
27456	7	Sololá	701	Sololá	3	Barraneche	5	Mayo	2023-05-23T00:00:00	2024-11-06T23:00:00	8	Radiación solar	0
27457	7	Sololá	701	Sololá	3	Barraneche	5	Mayo	2023-05-24T00:00:00	2024-11-06T00:00:00	2	Temperatura media	12.1
27458	7	Sololá	701	Sololá	3	Barraneche	5	Mayo	2023-05-24T00:00:00	2024-11-06T00:00:00	4	Temperatura máxima	12.8
27459	7	Sololá	701	Sololá	3	Barraneche	5	Mayo	2023-05-24T00:00:00	2024-11-06T00:00:00	3	Temperatura mínima	12.1
27460	7	Sololá	701	Sololá	3	Barraneche	5	Mayo	2023-05-24T00:00:00	2024-11-06T00:00:00	5	Humedad	71
27461	7	Sololá	701	Sololá	3	Barraneche	5	Mayo	2023-05-24T00:00:00	2024-11-06T00:00:00	6	Velocidad del viento	6.4
27462	7	Sololá	701	Sololá	3	Barraneche	5	Mayo	2023-05-24T00:00:00	2024-11-06T00:00:00	7	Dirección del viento	6.44
27463	7	Sololá	701	Sololá	3	Barraneche	5	Mayo	2023-05-24T00:00:00	2024-11-06T00:00:00	1	Precipitación	0
27464	7	Sololá	701	Sololá	3	Barraneche	5	Mayo	2023-05-24T00:00:00	2024-11-06T00:00:00	8	Radiación solar	0
27465	7	Sololá	701	Sololá	3	Barraneche	5	Mayo	2023-05-24T00:00:00	2024-11-06T01:00:00	2	Temperatura media	11.6
27466	7	Sololá	701	Sololá	3	Barraneche	5	Mayo	2023-05-24T00:00:00	2024-11-06T01:00:00	4	Temperatura máxima	12.1
27467	7	Sololá	701	Sololá	3	Barraneche	5	Mayo	2023-05-24T00:00:00	2024-11-06T01:00:00	3	Temperatura mínima	11.5
27468	7	Sololá	701	Sololá	3	Barraneche	5	Mayo	2023-05-24T00:00:00	2024-11-06T01:00:00	5	Humedad	71
27469	7	Sololá	701	Sololá	3	Barraneche	5	Mayo	2023-05-24T00:00:00	2024-11-06T01:00:00	6	Velocidad del viento	4.8
27470	7	Sololá	701	Sololá	3	Barraneche	5	Mayo	2023-05-24T00:00:00	2024-11-06T01:00:00	7	Dirección del viento	4.83
27471	7	Sololá	701	Sololá	3	Barraneche	5	Mayo	2023-05-24T00:00:00	2024-11-06T01:00:00	1	Precipitación	0
27472	7	Sololá	701	Sololá	3	Barraneche	5	Mayo	2023-05-24T00:00:00	2024-11-06T01:00:00	8	Radiación solar	0
27473	7	Sololá	701	Sololá	3	Barraneche	5	Mayo	2023-05-24T00:00:00	2024-11-06T02:00:00	2	Temperatura media	11.8
27474	7	Sololá	701	Sololá	3	Barraneche	5	Mayo	2023-05-24T00:00:00	2024-11-06T02:00:00	4	Temperatura máxima	11.8
27475	7	Sololá	701	Sololá	3	Barraneche	5	Mayo	2023-05-24T00:00:00	2024-11-06T02:00:00	3	Temperatura mínima	11.3
27476	7	Sololá	701	Sololá	3	Barraneche	5	Mayo	2023-05-24T00:00:00	2024-11-06T02:00:00	5	Humedad	70
27477	7	Sololá	701	Sololá	3	Barraneche	5	Mayo	2023-05-24T00:00:00	2024-11-06T02:00:00	6	Velocidad del viento	6.4
27478	7	Sololá	701	Sololá	3	Barraneche	5	Mayo	2023-05-24T00:00:00	2024-11-06T02:00:00	7	Dirección del viento	6.44
27479	7	Sololá	701	Sololá	3	Barraneche	5	Mayo	2023-05-24T00:00:00	2024-11-06T02:00:00	1	Precipitación	0
27480	7	Sololá	701	Sololá	3	Barraneche	5	Mayo	2023-05-24T00:00:00	2024-11-06T02:00:00	8	Radiación solar	0
27481	7	Sololá	701	Sololá	3	Barraneche	5	Mayo	2023-05-24T00:00:00	2024-11-06T03:00:00	2	Temperatura media	10.9
27482	7	Sololá	701	Sololá	3	Barraneche	5	Mayo	2023-05-24T00:00:00	2024-11-06T03:00:00	4	Temperatura máxima	11.9
27483	7	Sololá	701	Sololá	3	Barraneche	5	Mayo	2023-05-24T00:00:00	2024-11-06T03:00:00	3	Temperatura mínima	10.9
27484	7	Sololá	701	Sololá	3	Barraneche	5	Mayo	2023-05-24T00:00:00	2024-11-06T03:00:00	5	Humedad	71
27485	7	Sololá	701	Sololá	3	Barraneche	5	Mayo	2023-05-24T00:00:00	2024-11-06T03:00:00	6	Velocidad del viento	3.2
27486	7	Sololá	701	Sololá	3	Barraneche	5	Mayo	2023-05-24T00:00:00	2024-11-06T03:00:00	7	Dirección del viento	3.22
27487	7	Sololá	701	Sololá	3	Barraneche	5	Mayo	2023-05-24T00:00:00	2024-11-06T03:00:00	1	Precipitación	0
27488	7	Sololá	701	Sololá	3	Barraneche	5	Mayo	2023-05-24T00:00:00	2024-11-06T03:00:00	8	Radiación solar	0
27489	7	Sololá	701	Sololá	3	Barraneche	5	Mayo	2023-05-24T00:00:00	2024-11-06T04:00:00	2	Temperatura media	10.9
27490	7	Sololá	701	Sololá	3	Barraneche	5	Mayo	2023-05-24T00:00:00	2024-11-06T04:00:00	4	Temperatura máxima	11
27491	7	Sololá	701	Sololá	3	Barraneche	5	Mayo	2023-05-24T00:00:00	2024-11-06T04:00:00	3	Temperatura mínima	10.7
27492	7	Sololá	701	Sololá	3	Barraneche	5	Mayo	2023-05-24T00:00:00	2024-11-06T04:00:00	5	Humedad	71
27493	7	Sololá	701	Sololá	3	Barraneche	5	Mayo	2023-05-24T00:00:00	2024-11-06T04:00:00	6	Velocidad del viento	6.4
27494	7	Sololá	701	Sololá	3	Barraneche	5	Mayo	2023-05-24T00:00:00	2024-11-06T04:00:00	7	Dirección del viento	6.44
27495	7	Sololá	701	Sololá	3	Barraneche	5	Mayo	2023-05-24T00:00:00	2024-11-06T04:00:00	1	Precipitación	0
27496	7	Sololá	701	Sololá	3	Barraneche	5	Mayo	2023-05-24T00:00:00	2024-11-06T04:00:00	8	Radiación solar	0
27497	7	Sololá	701	Sololá	3	Barraneche	5	Mayo	2023-05-24T00:00:00	2024-11-06T05:00:00	2	Temperatura media	10.8
27498	7	Sololá	701	Sololá	3	Barraneche	5	Mayo	2023-05-24T00:00:00	2024-11-06T05:00:00	4	Temperatura máxima	11.2
27499	7	Sololá	701	Sololá	3	Barraneche	5	Mayo	2023-05-24T00:00:00	2024-11-06T05:00:00	3	Temperatura mínima	10.7
27500	7	Sololá	701	Sololá	3	Barraneche	5	Mayo	2023-05-24T00:00:00	2024-11-06T05:00:00	5	Humedad	68
27501	7	Sololá	701	Sololá	3	Barraneche	5	Mayo	2023-05-24T00:00:00	2024-11-06T05:00:00	6	Velocidad del viento	8
27502	7	Sololá	701	Sololá	3	Barraneche	5	Mayo	2023-05-24T00:00:00	2024-11-06T05:00:00	7	Dirección del viento	8.05
27503	7	Sololá	701	Sololá	3	Barraneche	5	Mayo	2023-05-24T00:00:00	2024-11-06T05:00:00	1	Precipitación	0
27504	7	Sololá	701	Sololá	3	Barraneche	5	Mayo	2023-05-24T00:00:00	2024-11-06T05:00:00	8	Radiación solar	0
27505	7	Sololá	701	Sololá	3	Barraneche	5	Mayo	2023-05-24T00:00:00	2024-11-06T06:00:00	2	Temperatura media	10.9
27506	7	Sololá	701	Sololá	3	Barraneche	5	Mayo	2023-05-24T00:00:00	2024-11-06T06:00:00	4	Temperatura máxima	11.1
27507	7	Sololá	701	Sololá	3	Barraneche	5	Mayo	2023-05-24T00:00:00	2024-11-06T06:00:00	3	Temperatura mínima	10.6
27508	7	Sololá	701	Sololá	3	Barraneche	5	Mayo	2023-05-24T00:00:00	2024-11-06T06:00:00	5	Humedad	64
27509	7	Sololá	701	Sololá	3	Barraneche	5	Mayo	2023-05-24T00:00:00	2024-11-06T06:00:00	6	Velocidad del viento	8
27510	7	Sololá	701	Sololá	3	Barraneche	5	Mayo	2023-05-24T00:00:00	2024-11-06T06:00:00	7	Dirección del viento	8.05
27511	7	Sololá	701	Sololá	3	Barraneche	5	Mayo	2023-05-24T00:00:00	2024-11-06T06:00:00	1	Precipitación	0
27512	7	Sololá	701	Sololá	3	Barraneche	5	Mayo	2023-05-24T00:00:00	2024-11-06T06:00:00	8	Radiación solar	8
27513	7	Sololá	701	Sololá	3	Barraneche	5	Mayo	2023-05-24T00:00:00	2024-11-06T07:00:00	2	Temperatura media	12.6
27514	7	Sololá	701	Sololá	3	Barraneche	5	Mayo	2023-05-24T00:00:00	2024-11-06T07:00:00	4	Temperatura máxima	12.6
27515	7	Sololá	701	Sololá	3	Barraneche	5	Mayo	2023-05-24T00:00:00	2024-11-06T07:00:00	3	Temperatura mínima	10.9
27516	7	Sololá	701	Sololá	3	Barraneche	5	Mayo	2023-05-24T00:00:00	2024-11-06T07:00:00	5	Humedad	64
27517	7	Sololá	701	Sololá	3	Barraneche	5	Mayo	2023-05-24T00:00:00	2024-11-06T07:00:00	6	Velocidad del viento	6.4
27518	7	Sololá	701	Sololá	3	Barraneche	5	Mayo	2023-05-24T00:00:00	2024-11-06T07:00:00	7	Dirección del viento	6.44
27519	7	Sololá	701	Sololá	3	Barraneche	5	Mayo	2023-05-24T00:00:00	2024-11-06T07:00:00	1	Precipitación	0
27520	7	Sololá	701	Sololá	3	Barraneche	5	Mayo	2023-05-24T00:00:00	2024-11-06T07:00:00	8	Radiación solar	103
27521	7	Sololá	701	Sololá	3	Barraneche	5	Mayo	2023-05-24T00:00:00	2024-11-06T08:00:00	2	Temperatura media	16.4
27522	7	Sololá	701	Sololá	3	Barraneche	5	Mayo	2023-05-24T00:00:00	2024-11-06T08:00:00	4	Temperatura máxima	16.4
27523	7	Sololá	701	Sololá	3	Barraneche	5	Mayo	2023-05-24T00:00:00	2024-11-06T08:00:00	3	Temperatura mínima	12.6
27524	7	Sololá	701	Sololá	3	Barraneche	5	Mayo	2023-05-24T00:00:00	2024-11-06T08:00:00	5	Humedad	56
27525	7	Sololá	701	Sololá	3	Barraneche	5	Mayo	2023-05-24T00:00:00	2024-11-06T08:00:00	6	Velocidad del viento	3.2
27526	7	Sololá	701	Sololá	3	Barraneche	5	Mayo	2023-05-24T00:00:00	2024-11-06T08:00:00	7	Dirección del viento	3.22
27527	7	Sololá	701	Sololá	3	Barraneche	5	Mayo	2023-05-24T00:00:00	2024-11-06T08:00:00	1	Precipitación	0
27528	7	Sololá	701	Sololá	3	Barraneche	5	Mayo	2023-05-24T00:00:00	2024-11-06T08:00:00	8	Radiación solar	377
27529	7	Sololá	701	Sololá	3	Barraneche	5	Mayo	2023-05-24T00:00:00	2024-11-06T09:00:00	2	Temperatura media	17.5
27530	7	Sololá	701	Sololá	3	Barraneche	5	Mayo	2023-05-24T00:00:00	2024-11-06T09:00:00	4	Temperatura máxima	17.6
27531	7	Sololá	701	Sololá	3	Barraneche	5	Mayo	2023-05-24T00:00:00	2024-11-06T09:00:00	3	Temperatura mínima	16.4
27532	7	Sololá	701	Sololá	3	Barraneche	5	Mayo	2023-05-24T00:00:00	2024-11-06T09:00:00	5	Humedad	46
27533	7	Sololá	701	Sololá	3	Barraneche	5	Mayo	2023-05-24T00:00:00	2024-11-06T09:00:00	6	Velocidad del viento	4.8
27534	7	Sololá	701	Sololá	3	Barraneche	5	Mayo	2023-05-24T00:00:00	2024-11-06T09:00:00	7	Dirección del viento	4.83
27535	7	Sololá	701	Sololá	3	Barraneche	5	Mayo	2023-05-24T00:00:00	2024-11-06T09:00:00	1	Precipitación	0
27536	7	Sololá	701	Sololá	3	Barraneche	5	Mayo	2023-05-24T00:00:00	2024-11-06T09:00:00	8	Radiación solar	600
27537	7	Sololá	701	Sololá	3	Barraneche	5	Mayo	2023-05-24T00:00:00	2024-11-06T10:00:00	2	Temperatura media	17.9
27538	7	Sololá	701	Sololá	3	Barraneche	5	Mayo	2023-05-24T00:00:00	2024-11-06T10:00:00	4	Temperatura máxima	18.8
27539	7	Sololá	701	Sololá	3	Barraneche	5	Mayo	2023-05-24T00:00:00	2024-11-06T10:00:00	3	Temperatura mínima	17.5
27540	7	Sololá	701	Sololá	3	Barraneche	5	Mayo	2023-05-24T00:00:00	2024-11-06T10:00:00	5	Humedad	49
27541	7	Sololá	701	Sololá	3	Barraneche	5	Mayo	2023-05-24T00:00:00	2024-11-06T10:00:00	6	Velocidad del viento	6.4
27542	7	Sololá	701	Sololá	3	Barraneche	5	Mayo	2023-05-24T00:00:00	2024-11-06T10:00:00	7	Dirección del viento	6.44
27543	7	Sololá	701	Sololá	3	Barraneche	5	Mayo	2023-05-24T00:00:00	2024-11-06T10:00:00	1	Precipitación	0
27544	7	Sololá	701	Sololá	3	Barraneche	5	Mayo	2023-05-24T00:00:00	2024-11-06T10:00:00	8	Radiación solar	702
27545	7	Sololá	701	Sololá	3	Barraneche	5	Mayo	2023-05-24T00:00:00	2024-11-06T11:00:00	2	Temperatura media	19.4
27546	7	Sololá	701	Sololá	3	Barraneche	5	Mayo	2023-05-24T00:00:00	2024-11-06T11:00:00	4	Temperatura máxima	19.4
27547	7	Sololá	701	Sololá	3	Barraneche	5	Mayo	2023-05-24T00:00:00	2024-11-06T11:00:00	3	Temperatura mínima	17.9
27548	7	Sololá	701	Sololá	3	Barraneche	5	Mayo	2023-05-24T00:00:00	2024-11-06T11:00:00	5	Humedad	47
27549	7	Sololá	701	Sololá	3	Barraneche	5	Mayo	2023-05-24T00:00:00	2024-11-06T11:00:00	6	Velocidad del viento	6.4
27550	7	Sololá	701	Sololá	3	Barraneche	5	Mayo	2023-05-24T00:00:00	2024-11-06T11:00:00	7	Dirección del viento	6.44
27551	7	Sololá	701	Sololá	3	Barraneche	5	Mayo	2023-05-24T00:00:00	2024-11-06T11:00:00	1	Precipitación	0
27552	7	Sololá	701	Sololá	3	Barraneche	5	Mayo	2023-05-24T00:00:00	2024-11-06T11:00:00	8	Radiación solar	852
27553	7	Sololá	701	Sololá	3	Barraneche	5	Mayo	2023-05-24T00:00:00	2024-11-06T12:00:00	2	Temperatura media	19.5
27554	7	Sololá	701	Sololá	3	Barraneche	5	Mayo	2023-05-24T00:00:00	2024-11-06T12:00:00	4	Temperatura máxima	19.6
27555	7	Sololá	701	Sololá	3	Barraneche	5	Mayo	2023-05-24T00:00:00	2024-11-06T12:00:00	3	Temperatura mínima	19.1
27556	7	Sololá	701	Sololá	3	Barraneche	5	Mayo	2023-05-24T00:00:00	2024-11-06T12:00:00	5	Humedad	48
27557	7	Sololá	701	Sololá	3	Barraneche	5	Mayo	2023-05-24T00:00:00	2024-11-06T12:00:00	6	Velocidad del viento	9.7
27558	7	Sololá	701	Sololá	3	Barraneche	5	Mayo	2023-05-24T00:00:00	2024-11-06T12:00:00	7	Dirección del viento	9.66
27559	7	Sololá	701	Sololá	3	Barraneche	5	Mayo	2023-05-24T00:00:00	2024-11-06T12:00:00	1	Precipitación	0
27560	7	Sololá	701	Sololá	3	Barraneche	5	Mayo	2023-05-24T00:00:00	2024-11-06T12:00:00	8	Radiación solar	890
27561	7	Sololá	701	Sololá	3	Barraneche	5	Mayo	2023-05-24T00:00:00	2024-11-06T13:00:00	2	Temperatura media	19.3
27562	7	Sololá	701	Sololá	3	Barraneche	5	Mayo	2023-05-24T00:00:00	2024-11-06T13:00:00	4	Temperatura máxima	19.6
27563	7	Sololá	701	Sololá	3	Barraneche	5	Mayo	2023-05-24T00:00:00	2024-11-06T13:00:00	3	Temperatura mínima	19
27564	7	Sololá	701	Sololá	3	Barraneche	5	Mayo	2023-05-24T00:00:00	2024-11-06T13:00:00	5	Humedad	55
27565	7	Sololá	701	Sololá	3	Barraneche	5	Mayo	2023-05-24T00:00:00	2024-11-06T13:00:00	6	Velocidad del viento	11.3
27566	7	Sololá	701	Sololá	3	Barraneche	5	Mayo	2023-05-24T00:00:00	2024-11-06T13:00:00	7	Dirección del viento	11.27
27567	7	Sololá	701	Sololá	3	Barraneche	5	Mayo	2023-05-24T00:00:00	2024-11-06T13:00:00	1	Precipitación	0
27568	7	Sololá	701	Sololá	3	Barraneche	5	Mayo	2023-05-24T00:00:00	2024-11-06T13:00:00	8	Radiación solar	860
27569	7	Sololá	701	Sololá	3	Barraneche	5	Mayo	2023-05-24T00:00:00	2024-11-06T14:00:00	2	Temperatura media	19.6
27570	7	Sololá	701	Sololá	3	Barraneche	5	Mayo	2023-05-24T00:00:00	2024-11-06T14:00:00	4	Temperatura máxima	19.6
27571	7	Sololá	701	Sololá	3	Barraneche	5	Mayo	2023-05-24T00:00:00	2024-11-06T14:00:00	3	Temperatura mínima	18.7
27572	7	Sololá	701	Sololá	3	Barraneche	5	Mayo	2023-05-24T00:00:00	2024-11-06T14:00:00	5	Humedad	58
27573	7	Sololá	701	Sololá	3	Barraneche	5	Mayo	2023-05-24T00:00:00	2024-11-06T14:00:00	6	Velocidad del viento	9.7
27574	7	Sololá	701	Sololá	3	Barraneche	5	Mayo	2023-05-24T00:00:00	2024-11-06T14:00:00	7	Dirección del viento	9.66
27575	7	Sololá	701	Sololá	3	Barraneche	5	Mayo	2023-05-24T00:00:00	2024-11-06T14:00:00	1	Precipitación	0
27576	7	Sololá	701	Sololá	3	Barraneche	5	Mayo	2023-05-24T00:00:00	2024-11-06T14:00:00	8	Radiación solar	451
27577	7	Sololá	701	Sololá	3	Barraneche	5	Mayo	2023-05-24T00:00:00	2024-11-06T15:00:00	2	Temperatura media	18.3
27578	7	Sololá	701	Sololá	3	Barraneche	5	Mayo	2023-05-24T00:00:00	2024-11-06T15:00:00	4	Temperatura máxima	19.8
27579	7	Sololá	701	Sololá	3	Barraneche	5	Mayo	2023-05-24T00:00:00	2024-11-06T15:00:00	3	Temperatura mínima	18.3
27580	7	Sololá	701	Sololá	3	Barraneche	5	Mayo	2023-05-24T00:00:00	2024-11-06T15:00:00	5	Humedad	65
27581	7	Sololá	701	Sololá	3	Barraneche	5	Mayo	2023-05-24T00:00:00	2024-11-06T15:00:00	6	Velocidad del viento	8
27582	7	Sololá	701	Sololá	3	Barraneche	5	Mayo	2023-05-24T00:00:00	2024-11-06T15:00:00	7	Dirección del viento	8.05
27583	7	Sololá	701	Sololá	3	Barraneche	5	Mayo	2023-05-24T00:00:00	2024-11-06T15:00:00	1	Precipitación	0
27584	7	Sololá	701	Sololá	3	Barraneche	5	Mayo	2023-05-24T00:00:00	2024-11-06T15:00:00	8	Radiación solar	282
27585	7	Sololá	701	Sololá	3	Barraneche	5	Mayo	2023-05-24T00:00:00	2024-11-06T16:00:00	2	Temperatura media	17.9
27586	7	Sololá	701	Sololá	3	Barraneche	5	Mayo	2023-05-24T00:00:00	2024-11-06T16:00:00	4	Temperatura máxima	18.9
27587	7	Sololá	701	Sololá	3	Barraneche	5	Mayo	2023-05-24T00:00:00	2024-11-06T16:00:00	3	Temperatura mínima	17.8
27588	7	Sololá	701	Sololá	3	Barraneche	5	Mayo	2023-05-24T00:00:00	2024-11-06T16:00:00	5	Humedad	66
27589	7	Sololá	701	Sololá	3	Barraneche	5	Mayo	2023-05-24T00:00:00	2024-11-06T16:00:00	6	Velocidad del viento	8
27590	7	Sololá	701	Sololá	3	Barraneche	5	Mayo	2023-05-24T00:00:00	2024-11-06T16:00:00	7	Dirección del viento	8.05
27591	7	Sololá	701	Sololá	3	Barraneche	5	Mayo	2023-05-24T00:00:00	2024-11-06T16:00:00	1	Precipitación	0
27592	7	Sololá	701	Sololá	3	Barraneche	5	Mayo	2023-05-24T00:00:00	2024-11-06T16:00:00	8	Radiación solar	222
27593	7	Sololá	701	Sololá	3	Barraneche	5	Mayo	2023-05-24T00:00:00	2024-11-06T17:00:00	2	Temperatura media	17
27594	7	Sololá	701	Sololá	3	Barraneche	5	Mayo	2023-05-24T00:00:00	2024-11-06T17:00:00	4	Temperatura máxima	17.9
27595	7	Sololá	701	Sololá	3	Barraneche	5	Mayo	2023-05-24T00:00:00	2024-11-06T17:00:00	3	Temperatura mínima	16.9
27596	7	Sololá	701	Sololá	3	Barraneche	5	Mayo	2023-05-24T00:00:00	2024-11-06T17:00:00	5	Humedad	70
27597	7	Sololá	701	Sololá	3	Barraneche	5	Mayo	2023-05-24T00:00:00	2024-11-06T17:00:00	6	Velocidad del viento	6.4
27598	7	Sololá	701	Sololá	3	Barraneche	5	Mayo	2023-05-24T00:00:00	2024-11-06T17:00:00	7	Dirección del viento	6.44
27599	7	Sololá	701	Sololá	3	Barraneche	5	Mayo	2023-05-24T00:00:00	2024-11-06T17:00:00	1	Precipitación	0
27600	7	Sololá	701	Sololá	3	Barraneche	5	Mayo	2023-05-24T00:00:00	2024-11-06T17:00:00	8	Radiación solar	125
27601	7	Sololá	701	Sololá	3	Barraneche	5	Mayo	2023-05-24T00:00:00	2024-11-06T18:00:00	2	Temperatura media	16.9
27602	7	Sololá	701	Sololá	3	Barraneche	5	Mayo	2023-05-24T00:00:00	2024-11-06T18:00:00	4	Temperatura máxima	17.1
27603	7	Sololá	701	Sololá	3	Barraneche	5	Mayo	2023-05-24T00:00:00	2024-11-06T18:00:00	3	Temperatura mínima	16.7
27604	7	Sololá	701	Sololá	3	Barraneche	5	Mayo	2023-05-24T00:00:00	2024-11-06T18:00:00	5	Humedad	69
27605	7	Sololá	701	Sololá	3	Barraneche	5	Mayo	2023-05-24T00:00:00	2024-11-06T18:00:00	6	Velocidad del viento	4.8
27606	7	Sololá	701	Sololá	3	Barraneche	5	Mayo	2023-05-24T00:00:00	2024-11-06T18:00:00	7	Dirección del viento	4.83
27607	7	Sololá	701	Sololá	3	Barraneche	5	Mayo	2023-05-24T00:00:00	2024-11-06T18:00:00	1	Precipitación	0
27608	7	Sololá	701	Sololá	3	Barraneche	5	Mayo	2023-05-24T00:00:00	2024-11-06T18:00:00	8	Radiación solar	51
27609	7	Sololá	701	Sololá	3	Barraneche	5	Mayo	2023-05-24T00:00:00	2024-11-06T19:00:00	2	Temperatura media	16.6
27610	7	Sololá	701	Sololá	3	Barraneche	5	Mayo	2023-05-24T00:00:00	2024-11-06T19:00:00	4	Temperatura máxima	16.9
27611	7	Sololá	701	Sololá	3	Barraneche	5	Mayo	2023-05-24T00:00:00	2024-11-06T19:00:00	3	Temperatura mínima	16.5
27612	7	Sololá	701	Sololá	3	Barraneche	5	Mayo	2023-05-24T00:00:00	2024-11-06T19:00:00	5	Humedad	73
27613	7	Sololá	701	Sololá	3	Barraneche	5	Mayo	2023-05-24T00:00:00	2024-11-06T19:00:00	6	Velocidad del viento	1.6
27614	7	Sololá	701	Sololá	3	Barraneche	5	Mayo	2023-05-24T00:00:00	2024-11-06T19:00:00	7	Dirección del viento	1.61
27615	7	Sololá	701	Sololá	3	Barraneche	5	Mayo	2023-05-24T00:00:00	2024-11-06T19:00:00	1	Precipitación	0
27616	7	Sololá	701	Sololá	3	Barraneche	5	Mayo	2023-05-24T00:00:00	2024-11-06T19:00:00	8	Radiación solar	0
27617	7	Sololá	701	Sololá	3	Barraneche	5	Mayo	2023-05-24T00:00:00	2024-11-06T20:00:00	2	Temperatura media	15.4
27618	7	Sololá	701	Sololá	3	Barraneche	5	Mayo	2023-05-24T00:00:00	2024-11-06T20:00:00	4	Temperatura máxima	16.6
27619	7	Sololá	701	Sololá	3	Barraneche	5	Mayo	2023-05-24T00:00:00	2024-11-06T20:00:00	3	Temperatura mínima	15.4
27620	7	Sololá	701	Sololá	3	Barraneche	5	Mayo	2023-05-24T00:00:00	2024-11-06T20:00:00	5	Humedad	68
27621	7	Sololá	701	Sololá	3	Barraneche	5	Mayo	2023-05-24T00:00:00	2024-11-06T20:00:00	6	Velocidad del viento	1.6
27622	7	Sololá	701	Sololá	3	Barraneche	5	Mayo	2023-05-24T00:00:00	2024-11-06T20:00:00	7	Dirección del viento	1.61
27623	7	Sololá	701	Sololá	3	Barraneche	5	Mayo	2023-05-24T00:00:00	2024-11-06T20:00:00	1	Precipitación	0
27624	7	Sololá	701	Sololá	3	Barraneche	5	Mayo	2023-05-24T00:00:00	2024-11-06T20:00:00	8	Radiación solar	0
27625	7	Sololá	701	Sololá	3	Barraneche	5	Mayo	2023-05-24T00:00:00	2024-11-06T21:00:00	2	Temperatura media	16.3
27626	7	Sololá	701	Sololá	3	Barraneche	5	Mayo	2023-05-24T00:00:00	2024-11-06T21:00:00	4	Temperatura máxima	16.3
27627	7	Sololá	701	Sololá	3	Barraneche	5	Mayo	2023-05-24T00:00:00	2024-11-06T21:00:00	3	Temperatura mínima	15.3
27628	7	Sololá	701	Sololá	3	Barraneche	5	Mayo	2023-05-24T00:00:00	2024-11-06T21:00:00	5	Humedad	63
27629	7	Sololá	701	Sololá	3	Barraneche	5	Mayo	2023-05-24T00:00:00	2024-11-06T21:00:00	6	Velocidad del viento	6.4
27630	7	Sololá	701	Sololá	3	Barraneche	5	Mayo	2023-05-24T00:00:00	2024-11-06T21:00:00	7	Dirección del viento	6.44
27631	7	Sololá	701	Sololá	3	Barraneche	5	Mayo	2023-05-24T00:00:00	2024-11-06T21:00:00	1	Precipitación	0
27632	7	Sololá	701	Sololá	3	Barraneche	5	Mayo	2023-05-24T00:00:00	2024-11-06T21:00:00	8	Radiación solar	0
27633	7	Sololá	701	Sololá	3	Barraneche	5	Mayo	2023-05-24T00:00:00	2024-11-06T22:00:00	2	Temperatura media	16.3
27634	7	Sololá	701	Sololá	3	Barraneche	5	Mayo	2023-05-24T00:00:00	2024-11-06T22:00:00	4	Temperatura máxima	16.4
27635	7	Sololá	701	Sololá	3	Barraneche	5	Mayo	2023-05-24T00:00:00	2024-11-06T22:00:00	3	Temperatura mínima	16.1
27636	7	Sololá	701	Sololá	3	Barraneche	5	Mayo	2023-05-24T00:00:00	2024-11-06T22:00:00	5	Humedad	66
27637	7	Sololá	701	Sololá	3	Barraneche	5	Mayo	2023-05-24T00:00:00	2024-11-06T22:00:00	6	Velocidad del viento	4.8
27638	7	Sololá	701	Sololá	3	Barraneche	5	Mayo	2023-05-24T00:00:00	2024-11-06T22:00:00	7	Dirección del viento	4.83
27639	7	Sololá	701	Sololá	3	Barraneche	5	Mayo	2023-05-24T00:00:00	2024-11-06T22:00:00	1	Precipitación	0
27640	7	Sololá	701	Sololá	3	Barraneche	5	Mayo	2023-05-24T00:00:00	2024-11-06T22:00:00	8	Radiación solar	0
27641	7	Sololá	701	Sololá	3	Barraneche	5	Mayo	2023-05-24T00:00:00	2024-11-06T23:00:00	2	Temperatura media	15.9
27642	7	Sololá	701	Sololá	3	Barraneche	5	Mayo	2023-05-24T00:00:00	2024-11-06T23:00:00	4	Temperatura máxima	16.3
27643	7	Sololá	701	Sololá	3	Barraneche	5	Mayo	2023-05-24T00:00:00	2024-11-06T23:00:00	3	Temperatura mínima	15.9
27644	7	Sololá	701	Sololá	3	Barraneche	5	Mayo	2023-05-24T00:00:00	2024-11-06T23:00:00	5	Humedad	67
27645	7	Sololá	701	Sololá	3	Barraneche	5	Mayo	2023-05-24T00:00:00	2024-11-06T23:00:00	6	Velocidad del viento	4.8
27646	7	Sololá	701	Sololá	3	Barraneche	5	Mayo	2023-05-24T00:00:00	2024-11-06T23:00:00	7	Dirección del viento	4.83
27647	7	Sololá	701	Sololá	3	Barraneche	5	Mayo	2023-05-24T00:00:00	2024-11-06T23:00:00	1	Precipitación	0
27648	7	Sololá	701	Sololá	3	Barraneche	5	Mayo	2023-05-24T00:00:00	2024-11-06T23:00:00	8	Radiación solar	0
27649	7	Sololá	701	Sololá	3	Barraneche	5	Mayo	2023-05-25T00:00:00	2024-11-06T00:00:00	2	Temperatura media	14.3
27650	7	Sololá	701	Sololá	3	Barraneche	5	Mayo	2023-05-25T00:00:00	2024-11-06T00:00:00	4	Temperatura máxima	15.9
27651	7	Sololá	701	Sololá	3	Barraneche	5	Mayo	2023-05-25T00:00:00	2024-11-06T00:00:00	3	Temperatura mínima	14.2
27652	7	Sololá	701	Sololá	3	Barraneche	5	Mayo	2023-05-25T00:00:00	2024-11-06T00:00:00	5	Humedad	69
27653	7	Sololá	701	Sololá	3	Barraneche	5	Mayo	2023-05-25T00:00:00	2024-11-06T00:00:00	6	Velocidad del viento	4.8
27654	7	Sololá	701	Sololá	3	Barraneche	5	Mayo	2023-05-25T00:00:00	2024-11-06T00:00:00	7	Dirección del viento	4.83
27655	7	Sololá	701	Sololá	3	Barraneche	5	Mayo	2023-05-25T00:00:00	2024-11-06T00:00:00	1	Precipitación	0
27656	7	Sololá	701	Sololá	3	Barraneche	5	Mayo	2023-05-25T00:00:00	2024-11-06T00:00:00	8	Radiación solar	0
27657	7	Sololá	701	Sololá	3	Barraneche	5	Mayo	2023-05-25T00:00:00	2024-11-06T01:00:00	2	Temperatura media	13.4
27658	7	Sololá	701	Sololá	3	Barraneche	5	Mayo	2023-05-25T00:00:00	2024-11-06T01:00:00	4	Temperatura máxima	14.3
27659	7	Sololá	701	Sololá	3	Barraneche	5	Mayo	2023-05-25T00:00:00	2024-11-06T01:00:00	3	Temperatura mínima	13.4
27660	7	Sololá	701	Sololá	3	Barraneche	5	Mayo	2023-05-25T00:00:00	2024-11-06T01:00:00	5	Humedad	71
27661	7	Sololá	701	Sololá	3	Barraneche	5	Mayo	2023-05-25T00:00:00	2024-11-06T01:00:00	6	Velocidad del viento	1.6
27662	7	Sololá	701	Sololá	3	Barraneche	5	Mayo	2023-05-25T00:00:00	2024-11-06T01:00:00	7	Dirección del viento	1.61
27663	7	Sololá	701	Sololá	3	Barraneche	5	Mayo	2023-05-25T00:00:00	2024-11-06T01:00:00	1	Precipitación	0
27664	7	Sololá	701	Sololá	3	Barraneche	5	Mayo	2023-05-25T00:00:00	2024-11-06T01:00:00	8	Radiación solar	0
27665	7	Sololá	701	Sololá	3	Barraneche	5	Mayo	2023-05-25T00:00:00	2024-11-06T02:00:00	2	Temperatura media	12.9
27666	7	Sololá	701	Sololá	3	Barraneche	5	Mayo	2023-05-25T00:00:00	2024-11-06T02:00:00	4	Temperatura máxima	13.4
27667	7	Sololá	701	Sololá	3	Barraneche	5	Mayo	2023-05-25T00:00:00	2024-11-06T02:00:00	3	Temperatura mínima	12.8
27668	7	Sololá	701	Sololá	3	Barraneche	5	Mayo	2023-05-25T00:00:00	2024-11-06T02:00:00	5	Humedad	65
27669	7	Sololá	701	Sololá	3	Barraneche	5	Mayo	2023-05-25T00:00:00	2024-11-06T02:00:00	6	Velocidad del viento	4.8
27670	7	Sololá	701	Sololá	3	Barraneche	5	Mayo	2023-05-25T00:00:00	2024-11-06T02:00:00	7	Dirección del viento	4.83
27671	7	Sololá	701	Sololá	3	Barraneche	5	Mayo	2023-05-25T00:00:00	2024-11-06T02:00:00	1	Precipitación	0
27672	7	Sololá	701	Sololá	3	Barraneche	5	Mayo	2023-05-25T00:00:00	2024-11-06T02:00:00	8	Radiación solar	0
27673	7	Sololá	701	Sololá	3	Barraneche	5	Mayo	2023-05-25T00:00:00	2024-11-06T03:00:00	2	Temperatura media	12.4
27674	7	Sololá	701	Sololá	3	Barraneche	5	Mayo	2023-05-25T00:00:00	2024-11-06T03:00:00	4	Temperatura máxima	12.9
27675	7	Sololá	701	Sololá	3	Barraneche	5	Mayo	2023-05-25T00:00:00	2024-11-06T03:00:00	3	Temperatura mínima	12.4
27676	7	Sololá	701	Sololá	3	Barraneche	5	Mayo	2023-05-25T00:00:00	2024-11-06T03:00:00	5	Humedad	62
27677	7	Sololá	701	Sololá	3	Barraneche	5	Mayo	2023-05-25T00:00:00	2024-11-06T03:00:00	6	Velocidad del viento	6.4
27678	7	Sololá	701	Sololá	3	Barraneche	5	Mayo	2023-05-25T00:00:00	2024-11-06T03:00:00	7	Dirección del viento	6.44
27679	7	Sololá	701	Sololá	3	Barraneche	5	Mayo	2023-05-25T00:00:00	2024-11-06T03:00:00	1	Precipitación	0
27680	7	Sololá	701	Sololá	3	Barraneche	5	Mayo	2023-05-25T00:00:00	2024-11-06T03:00:00	8	Radiación solar	0
27681	7	Sololá	701	Sololá	3	Barraneche	5	Mayo	2023-05-25T00:00:00	2024-11-06T04:00:00	2	Temperatura media	11.4
27682	7	Sololá	701	Sololá	3	Barraneche	5	Mayo	2023-05-25T00:00:00	2024-11-06T04:00:00	4	Temperatura máxima	12.3
27683	7	Sololá	701	Sololá	3	Barraneche	5	Mayo	2023-05-25T00:00:00	2024-11-06T04:00:00	3	Temperatura mínima	11.2
27684	7	Sololá	701	Sololá	3	Barraneche	5	Mayo	2023-05-25T00:00:00	2024-11-06T04:00:00	5	Humedad	66
27685	7	Sololá	701	Sololá	3	Barraneche	5	Mayo	2023-05-25T00:00:00	2024-11-06T04:00:00	6	Velocidad del viento	6.4
27686	7	Sololá	701	Sololá	3	Barraneche	5	Mayo	2023-05-25T00:00:00	2024-11-06T04:00:00	7	Dirección del viento	6.44
27687	7	Sololá	701	Sololá	3	Barraneche	5	Mayo	2023-05-25T00:00:00	2024-11-06T04:00:00	1	Precipitación	0
27688	7	Sololá	701	Sololá	3	Barraneche	5	Mayo	2023-05-25T00:00:00	2024-11-06T04:00:00	8	Radiación solar	0
27689	7	Sololá	701	Sololá	3	Barraneche	5	Mayo	2023-05-25T00:00:00	2024-11-06T05:00:00	2	Temperatura media	11.3
27690	7	Sololá	701	Sololá	3	Barraneche	5	Mayo	2023-05-25T00:00:00	2024-11-06T05:00:00	4	Temperatura máxima	11.6
27691	7	Sololá	701	Sololá	3	Barraneche	5	Mayo	2023-05-25T00:00:00	2024-11-06T05:00:00	3	Temperatura mínima	11.1
27692	7	Sololá	701	Sololá	3	Barraneche	5	Mayo	2023-05-25T00:00:00	2024-11-06T05:00:00	5	Humedad	67
27693	7	Sololá	701	Sololá	3	Barraneche	5	Mayo	2023-05-25T00:00:00	2024-11-06T05:00:00	6	Velocidad del viento	6.4
27694	7	Sololá	701	Sololá	3	Barraneche	5	Mayo	2023-05-25T00:00:00	2024-11-06T05:00:00	7	Dirección del viento	6.44
27695	7	Sololá	701	Sololá	3	Barraneche	5	Mayo	2023-05-25T00:00:00	2024-11-06T05:00:00	1	Precipitación	0
27696	7	Sololá	701	Sololá	3	Barraneche	5	Mayo	2023-05-25T00:00:00	2024-11-06T05:00:00	8	Radiación solar	0
27697	7	Sololá	701	Sololá	3	Barraneche	5	Mayo	2023-05-25T00:00:00	2024-11-06T06:00:00	2	Temperatura media	11.7
27698	7	Sololá	701	Sololá	3	Barraneche	5	Mayo	2023-05-25T00:00:00	2024-11-06T06:00:00	4	Temperatura máxima	11.9
27699	7	Sololá	701	Sololá	3	Barraneche	5	Mayo	2023-05-25T00:00:00	2024-11-06T06:00:00	3	Temperatura mínima	11.3
27700	7	Sololá	701	Sololá	3	Barraneche	5	Mayo	2023-05-25T00:00:00	2024-11-06T06:00:00	5	Humedad	66
27701	7	Sololá	701	Sololá	3	Barraneche	5	Mayo	2023-05-25T00:00:00	2024-11-06T06:00:00	6	Velocidad del viento	8
27702	7	Sololá	701	Sololá	3	Barraneche	5	Mayo	2023-05-25T00:00:00	2024-11-06T06:00:00	7	Dirección del viento	8.05
27703	7	Sololá	701	Sololá	3	Barraneche	5	Mayo	2023-05-25T00:00:00	2024-11-06T06:00:00	1	Precipitación	0
27704	7	Sololá	701	Sololá	3	Barraneche	5	Mayo	2023-05-25T00:00:00	2024-11-06T06:00:00	8	Radiación solar	12
27705	7	Sololá	701	Sololá	3	Barraneche	5	Mayo	2023-05-25T00:00:00	2024-11-06T07:00:00	2	Temperatura media	13.7
27706	7	Sololá	701	Sololá	3	Barraneche	5	Mayo	2023-05-25T00:00:00	2024-11-06T07:00:00	4	Temperatura máxima	13.7
27707	7	Sololá	701	Sololá	3	Barraneche	5	Mayo	2023-05-25T00:00:00	2024-11-06T07:00:00	3	Temperatura mínima	11.7
27708	7	Sololá	701	Sololá	3	Barraneche	5	Mayo	2023-05-25T00:00:00	2024-11-06T07:00:00	5	Humedad	65
27709	7	Sololá	701	Sololá	3	Barraneche	5	Mayo	2023-05-25T00:00:00	2024-11-06T07:00:00	6	Velocidad del viento	4.8
27710	7	Sololá	701	Sololá	3	Barraneche	5	Mayo	2023-05-25T00:00:00	2024-11-06T07:00:00	7	Dirección del viento	4.83
27711	7	Sololá	701	Sololá	3	Barraneche	5	Mayo	2023-05-25T00:00:00	2024-11-06T07:00:00	1	Precipitación	0
27712	7	Sololá	701	Sololá	3	Barraneche	5	Mayo	2023-05-25T00:00:00	2024-11-06T07:00:00	8	Radiación solar	122
27713	7	Sololá	701	Sololá	3	Barraneche	5	Mayo	2023-05-25T00:00:00	2024-11-06T08:00:00	2	Temperatura media	16.7
27714	7	Sololá	701	Sololá	3	Barraneche	5	Mayo	2023-05-25T00:00:00	2024-11-06T08:00:00	4	Temperatura máxima	16.7
27715	7	Sololá	701	Sololá	3	Barraneche	5	Mayo	2023-05-25T00:00:00	2024-11-06T08:00:00	3	Temperatura mínima	13.7
27716	7	Sololá	701	Sololá	3	Barraneche	5	Mayo	2023-05-25T00:00:00	2024-11-06T08:00:00	5	Humedad	55
27717	7	Sololá	701	Sololá	3	Barraneche	5	Mayo	2023-05-25T00:00:00	2024-11-06T08:00:00	6	Velocidad del viento	3.2
27718	7	Sololá	701	Sololá	3	Barraneche	5	Mayo	2023-05-25T00:00:00	2024-11-06T08:00:00	7	Dirección del viento	3.22
27719	7	Sololá	701	Sololá	3	Barraneche	5	Mayo	2023-05-25T00:00:00	2024-11-06T08:00:00	1	Precipitación	0
27720	7	Sololá	701	Sololá	3	Barraneche	5	Mayo	2023-05-25T00:00:00	2024-11-06T08:00:00	8	Radiación solar	328
27721	7	Sololá	701	Sololá	3	Barraneche	5	Mayo	2023-05-25T00:00:00	2024-11-06T09:00:00	2	Temperatura media	18
27722	7	Sololá	701	Sololá	3	Barraneche	5	Mayo	2023-05-25T00:00:00	2024-11-06T09:00:00	4	Temperatura máxima	18.1
27723	7	Sololá	701	Sololá	3	Barraneche	5	Mayo	2023-05-25T00:00:00	2024-11-06T09:00:00	3	Temperatura mínima	16.7
27724	7	Sololá	701	Sololá	3	Barraneche	5	Mayo	2023-05-25T00:00:00	2024-11-06T09:00:00	5	Humedad	52
27725	7	Sololá	701	Sololá	3	Barraneche	5	Mayo	2023-05-25T00:00:00	2024-11-06T09:00:00	6	Velocidad del viento	4.8
27726	7	Sololá	701	Sololá	3	Barraneche	5	Mayo	2023-05-25T00:00:00	2024-11-06T09:00:00	7	Dirección del viento	4.83
27727	7	Sololá	701	Sololá	3	Barraneche	5	Mayo	2023-05-25T00:00:00	2024-11-06T09:00:00	1	Precipitación	0
27728	7	Sololá	701	Sololá	3	Barraneche	5	Mayo	2023-05-25T00:00:00	2024-11-06T09:00:00	8	Radiación solar	604
27729	7	Sololá	701	Sololá	3	Barraneche	5	Mayo	2023-05-25T00:00:00	2024-11-06T10:00:00	2	Temperatura media	18.9
27730	7	Sololá	701	Sololá	3	Barraneche	5	Mayo	2023-05-25T00:00:00	2024-11-06T10:00:00	4	Temperatura máxima	19.1
27731	7	Sololá	701	Sololá	3	Barraneche	5	Mayo	2023-05-25T00:00:00	2024-11-06T10:00:00	3	Temperatura mínima	18
27732	7	Sololá	701	Sololá	3	Barraneche	5	Mayo	2023-05-25T00:00:00	2024-11-06T10:00:00	5	Humedad	51
27733	7	Sololá	701	Sololá	3	Barraneche	5	Mayo	2023-05-25T00:00:00	2024-11-06T10:00:00	6	Velocidad del viento	6.4
27734	7	Sololá	701	Sololá	3	Barraneche	5	Mayo	2023-05-25T00:00:00	2024-11-06T10:00:00	7	Dirección del viento	6.44
27735	7	Sololá	701	Sololá	3	Barraneche	5	Mayo	2023-05-25T00:00:00	2024-11-06T10:00:00	1	Precipitación	0
27736	7	Sololá	701	Sololá	3	Barraneche	5	Mayo	2023-05-25T00:00:00	2024-11-06T10:00:00	8	Radiación solar	790
27737	7	Sololá	701	Sololá	3	Barraneche	5	Mayo	2023-05-25T00:00:00	2024-11-06T11:00:00	2	Temperatura media	19.2
27738	7	Sololá	701	Sololá	3	Barraneche	5	Mayo	2023-05-25T00:00:00	2024-11-06T11:00:00	4	Temperatura máxima	19.4
27739	7	Sololá	701	Sololá	3	Barraneche	5	Mayo	2023-05-25T00:00:00	2024-11-06T11:00:00	3	Temperatura mínima	18.9
27740	7	Sololá	701	Sololá	3	Barraneche	5	Mayo	2023-05-25T00:00:00	2024-11-06T11:00:00	5	Humedad	51
27741	7	Sololá	701	Sololá	3	Barraneche	5	Mayo	2023-05-25T00:00:00	2024-11-06T11:00:00	6	Velocidad del viento	8
27742	7	Sololá	701	Sololá	3	Barraneche	5	Mayo	2023-05-25T00:00:00	2024-11-06T11:00:00	7	Dirección del viento	8.05
27743	7	Sololá	701	Sololá	3	Barraneche	5	Mayo	2023-05-25T00:00:00	2024-11-06T11:00:00	1	Precipitación	0
27744	7	Sololá	701	Sololá	3	Barraneche	5	Mayo	2023-05-25T00:00:00	2024-11-06T11:00:00	8	Radiación solar	589
27745	7	Sololá	701	Sololá	3	Barraneche	5	Mayo	2023-05-25T00:00:00	2024-11-06T12:00:00	2	Temperatura media	19.7
27746	7	Sololá	701	Sololá	3	Barraneche	5	Mayo	2023-05-25T00:00:00	2024-11-06T12:00:00	4	Temperatura máxima	19.9
27747	7	Sololá	701	Sololá	3	Barraneche	5	Mayo	2023-05-25T00:00:00	2024-11-06T12:00:00	3	Temperatura mínima	19.2
27748	7	Sololá	701	Sololá	3	Barraneche	5	Mayo	2023-05-25T00:00:00	2024-11-06T12:00:00	5	Humedad	51
27749	7	Sololá	701	Sololá	3	Barraneche	5	Mayo	2023-05-25T00:00:00	2024-11-06T12:00:00	6	Velocidad del viento	8
27750	7	Sololá	701	Sololá	3	Barraneche	5	Mayo	2023-05-25T00:00:00	2024-11-06T12:00:00	7	Dirección del viento	8.05
27751	7	Sololá	701	Sololá	3	Barraneche	5	Mayo	2023-05-25T00:00:00	2024-11-06T12:00:00	1	Precipitación	0
27752	7	Sololá	701	Sololá	3	Barraneche	5	Mayo	2023-05-25T00:00:00	2024-11-06T12:00:00	8	Radiación solar	473
27753	7	Sololá	701	Sololá	3	Barraneche	5	Mayo	2023-05-25T00:00:00	2024-11-06T13:00:00	2	Temperatura media	19.1
27754	7	Sololá	701	Sololá	3	Barraneche	5	Mayo	2023-05-25T00:00:00	2024-11-06T13:00:00	4	Temperatura máxima	19.7
27755	7	Sololá	701	Sololá	3	Barraneche	5	Mayo	2023-05-25T00:00:00	2024-11-06T13:00:00	3	Temperatura mínima	19.1
27756	7	Sololá	701	Sololá	3	Barraneche	5	Mayo	2023-05-25T00:00:00	2024-11-06T13:00:00	5	Humedad	58
27757	7	Sololá	701	Sololá	3	Barraneche	5	Mayo	2023-05-25T00:00:00	2024-11-06T13:00:00	6	Velocidad del viento	11.3
27758	7	Sololá	701	Sololá	3	Barraneche	5	Mayo	2023-05-25T00:00:00	2024-11-06T13:00:00	7	Dirección del viento	11.27
27759	7	Sololá	701	Sololá	3	Barraneche	5	Mayo	2023-05-25T00:00:00	2024-11-06T13:00:00	1	Precipitación	0
27760	7	Sololá	701	Sololá	3	Barraneche	5	Mayo	2023-05-25T00:00:00	2024-11-06T13:00:00	8	Radiación solar	451
27761	7	Sololá	701	Sololá	3	Barraneche	5	Mayo	2023-05-25T00:00:00	2024-11-06T14:00:00	2	Temperatura media	17.7
27762	7	Sololá	701	Sololá	3	Barraneche	5	Mayo	2023-05-25T00:00:00	2024-11-06T14:00:00	4	Temperatura máxima	19.2
27763	7	Sololá	701	Sololá	3	Barraneche	5	Mayo	2023-05-25T00:00:00	2024-11-06T14:00:00	3	Temperatura mínima	17.7
27764	7	Sololá	701	Sololá	3	Barraneche	5	Mayo	2023-05-25T00:00:00	2024-11-06T14:00:00	5	Humedad	67
27765	7	Sololá	701	Sololá	3	Barraneche	5	Mayo	2023-05-25T00:00:00	2024-11-06T14:00:00	6	Velocidad del viento	11.3
27766	7	Sololá	701	Sololá	3	Barraneche	5	Mayo	2023-05-25T00:00:00	2024-11-06T14:00:00	7	Dirección del viento	11.27
27767	7	Sololá	701	Sololá	3	Barraneche	5	Mayo	2023-05-25T00:00:00	2024-11-06T14:00:00	1	Precipitación	0
27768	7	Sololá	701	Sololá	3	Barraneche	5	Mayo	2023-05-25T00:00:00	2024-11-06T14:00:00	8	Radiación solar	240
27769	7	Sololá	701	Sololá	3	Barraneche	5	Mayo	2023-05-25T00:00:00	2024-11-06T15:00:00	2	Temperatura media	17.4
27770	7	Sololá	701	Sololá	3	Barraneche	5	Mayo	2023-05-25T00:00:00	2024-11-06T15:00:00	4	Temperatura máxima	17.9
27771	7	Sololá	701	Sololá	3	Barraneche	5	Mayo	2023-05-25T00:00:00	2024-11-06T15:00:00	3	Temperatura mínima	17.4
27772	7	Sololá	701	Sololá	3	Barraneche	5	Mayo	2023-05-25T00:00:00	2024-11-06T15:00:00	5	Humedad	69
27773	7	Sololá	701	Sololá	3	Barraneche	5	Mayo	2023-05-25T00:00:00	2024-11-06T15:00:00	6	Velocidad del viento	6.4
27774	7	Sololá	701	Sololá	3	Barraneche	5	Mayo	2023-05-25T00:00:00	2024-11-06T15:00:00	7	Dirección del viento	6.44
27775	7	Sololá	701	Sololá	3	Barraneche	5	Mayo	2023-05-25T00:00:00	2024-11-06T15:00:00	1	Precipitación	0
27776	7	Sololá	701	Sololá	3	Barraneche	5	Mayo	2023-05-25T00:00:00	2024-11-06T15:00:00	8	Radiación solar	171
27777	7	Sololá	701	Sololá	3	Barraneche	5	Mayo	2023-05-25T00:00:00	2024-11-06T16:00:00	2	Temperatura media	16.8
27778	7	Sololá	701	Sololá	3	Barraneche	5	Mayo	2023-05-25T00:00:00	2024-11-06T16:00:00	4	Temperatura máxima	17.6
27779	7	Sololá	701	Sololá	3	Barraneche	5	Mayo	2023-05-25T00:00:00	2024-11-06T16:00:00	3	Temperatura mínima	16.8
27780	7	Sololá	701	Sololá	3	Barraneche	5	Mayo	2023-05-25T00:00:00	2024-11-06T16:00:00	5	Humedad	70
27781	7	Sololá	701	Sololá	3	Barraneche	5	Mayo	2023-05-25T00:00:00	2024-11-06T16:00:00	6	Velocidad del viento	6.4
27782	7	Sololá	701	Sololá	3	Barraneche	5	Mayo	2023-05-25T00:00:00	2024-11-06T16:00:00	7	Dirección del viento	6.44
27783	7	Sololá	701	Sololá	3	Barraneche	5	Mayo	2023-05-25T00:00:00	2024-11-06T16:00:00	1	Precipitación	0
27784	7	Sololá	701	Sololá	3	Barraneche	5	Mayo	2023-05-25T00:00:00	2024-11-06T16:00:00	8	Radiación solar	134
27785	7	Sololá	701	Sololá	3	Barraneche	5	Mayo	2023-05-25T00:00:00	2024-11-06T17:00:00	2	Temperatura media	16.2
27786	7	Sololá	701	Sololá	3	Barraneche	5	Mayo	2023-05-25T00:00:00	2024-11-06T17:00:00	4	Temperatura máxima	16.9
27787	7	Sololá	701	Sololá	3	Barraneche	5	Mayo	2023-05-25T00:00:00	2024-11-06T17:00:00	3	Temperatura mínima	16.2
27788	7	Sololá	701	Sololá	3	Barraneche	5	Mayo	2023-05-25T00:00:00	2024-11-06T17:00:00	5	Humedad	73
27789	7	Sololá	701	Sololá	3	Barraneche	5	Mayo	2023-05-25T00:00:00	2024-11-06T17:00:00	6	Velocidad del viento	6.4
27790	7	Sololá	701	Sololá	3	Barraneche	5	Mayo	2023-05-25T00:00:00	2024-11-06T17:00:00	7	Dirección del viento	6.44
27791	7	Sololá	701	Sololá	3	Barraneche	5	Mayo	2023-05-25T00:00:00	2024-11-06T17:00:00	1	Precipitación	4.6
27792	7	Sololá	701	Sololá	3	Barraneche	5	Mayo	2023-05-25T00:00:00	2024-11-06T17:00:00	8	Radiación solar	42
27793	7	Sololá	701	Sololá	3	Barraneche	5	Mayo	2023-05-25T00:00:00	2024-11-06T18:00:00	2	Temperatura media	14.7
27794	7	Sololá	701	Sololá	3	Barraneche	5	Mayo	2023-05-25T00:00:00	2024-11-06T18:00:00	4	Temperatura máxima	16.2
27795	7	Sololá	701	Sololá	3	Barraneche	5	Mayo	2023-05-25T00:00:00	2024-11-06T18:00:00	3	Temperatura mínima	14.6
27796	7	Sololá	701	Sololá	3	Barraneche	5	Mayo	2023-05-25T00:00:00	2024-11-06T18:00:00	5	Humedad	78
27797	7	Sololá	701	Sololá	3	Barraneche	5	Mayo	2023-05-25T00:00:00	2024-11-06T18:00:00	6	Velocidad del viento	3.2
27798	7	Sololá	701	Sololá	3	Barraneche	5	Mayo	2023-05-25T00:00:00	2024-11-06T18:00:00	7	Dirección del viento	3.22
27799	7	Sololá	701	Sololá	3	Barraneche	5	Mayo	2023-05-25T00:00:00	2024-11-06T18:00:00	1	Precipitación	3.8
27800	7	Sololá	701	Sololá	3	Barraneche	5	Mayo	2023-05-25T00:00:00	2024-11-06T18:00:00	8	Radiación solar	8
27801	7	Sololá	701	Sololá	3	Barraneche	5	Mayo	2023-05-25T00:00:00	2024-11-06T19:00:00	2	Temperatura media	14.7
27802	7	Sololá	701	Sololá	3	Barraneche	5	Mayo	2023-05-25T00:00:00	2024-11-06T19:00:00	4	Temperatura máxima	14.9
27803	7	Sololá	701	Sololá	3	Barraneche	5	Mayo	2023-05-25T00:00:00	2024-11-06T19:00:00	3	Temperatura mínima	14.7
27804	7	Sololá	701	Sololá	3	Barraneche	5	Mayo	2023-05-25T00:00:00	2024-11-06T19:00:00	5	Humedad	78
27805	7	Sololá	701	Sololá	3	Barraneche	5	Mayo	2023-05-25T00:00:00	2024-11-06T19:00:00	6	Velocidad del viento	3.2
27806	7	Sololá	701	Sololá	3	Barraneche	5	Mayo	2023-05-25T00:00:00	2024-11-06T19:00:00	7	Dirección del viento	3.22
27807	7	Sololá	701	Sololá	3	Barraneche	5	Mayo	2023-05-25T00:00:00	2024-11-06T19:00:00	1	Precipitación	0
27808	7	Sololá	701	Sololá	3	Barraneche	5	Mayo	2023-05-25T00:00:00	2024-11-06T19:00:00	8	Radiación solar	0
27809	7	Sololá	701	Sololá	3	Barraneche	5	Mayo	2023-05-25T00:00:00	2024-11-06T20:00:00	2	Temperatura media	14.1
27810	7	Sololá	701	Sololá	3	Barraneche	5	Mayo	2023-05-25T00:00:00	2024-11-06T20:00:00	4	Temperatura máxima	14.9
27811	7	Sololá	701	Sololá	3	Barraneche	5	Mayo	2023-05-25T00:00:00	2024-11-06T20:00:00	3	Temperatura mínima	14.1
27812	7	Sololá	701	Sololá	3	Barraneche	5	Mayo	2023-05-25T00:00:00	2024-11-06T20:00:00	5	Humedad	78
27813	7	Sololá	701	Sololá	3	Barraneche	5	Mayo	2023-05-25T00:00:00	2024-11-06T20:00:00	6	Velocidad del viento	3.2
27814	7	Sololá	701	Sololá	3	Barraneche	5	Mayo	2023-05-25T00:00:00	2024-11-06T20:00:00	7	Dirección del viento	3.22
27815	7	Sololá	701	Sololá	3	Barraneche	5	Mayo	2023-05-25T00:00:00	2024-11-06T20:00:00	1	Precipitación	0
27816	7	Sololá	701	Sololá	3	Barraneche	5	Mayo	2023-05-25T00:00:00	2024-11-06T20:00:00	8	Radiación solar	0
27817	7	Sololá	701	Sololá	3	Barraneche	5	Mayo	2023-05-25T00:00:00	2024-11-06T21:00:00	2	Temperatura media	13.4
27818	7	Sololá	701	Sololá	3	Barraneche	5	Mayo	2023-05-25T00:00:00	2024-11-06T21:00:00	4	Temperatura máxima	14.1
27819	7	Sololá	701	Sololá	3	Barraneche	5	Mayo	2023-05-25T00:00:00	2024-11-06T21:00:00	3	Temperatura mínima	13.4
27820	7	Sololá	701	Sololá	3	Barraneche	5	Mayo	2023-05-25T00:00:00	2024-11-06T21:00:00	5	Humedad	71
27821	7	Sololá	701	Sololá	3	Barraneche	5	Mayo	2023-05-25T00:00:00	2024-11-06T21:00:00	6	Velocidad del viento	6.4
27822	7	Sololá	701	Sololá	3	Barraneche	5	Mayo	2023-05-25T00:00:00	2024-11-06T21:00:00	7	Dirección del viento	6.44
27823	7	Sololá	701	Sololá	3	Barraneche	5	Mayo	2023-05-25T00:00:00	2024-11-06T21:00:00	1	Precipitación	0.2
27824	7	Sololá	701	Sololá	3	Barraneche	5	Mayo	2023-05-25T00:00:00	2024-11-06T21:00:00	8	Radiación solar	0
27825	7	Sololá	701	Sololá	3	Barraneche	5	Mayo	2023-05-25T00:00:00	2024-11-06T22:00:00	2	Temperatura media	12.7
27826	7	Sololá	701	Sololá	3	Barraneche	5	Mayo	2023-05-25T00:00:00	2024-11-06T22:00:00	4	Temperatura máxima	13.5
27827	7	Sololá	701	Sololá	3	Barraneche	5	Mayo	2023-05-25T00:00:00	2024-11-06T22:00:00	3	Temperatura mínima	12.6
27828	7	Sololá	701	Sololá	3	Barraneche	5	Mayo	2023-05-25T00:00:00	2024-11-06T22:00:00	5	Humedad	71
27829	7	Sololá	701	Sololá	3	Barraneche	5	Mayo	2023-05-25T00:00:00	2024-11-06T22:00:00	6	Velocidad del viento	6.4
27830	7	Sololá	701	Sololá	3	Barraneche	5	Mayo	2023-05-25T00:00:00	2024-11-06T22:00:00	7	Dirección del viento	6.44
27831	7	Sololá	701	Sololá	3	Barraneche	5	Mayo	2023-05-25T00:00:00	2024-11-06T22:00:00	1	Precipitación	0
27832	7	Sololá	701	Sololá	3	Barraneche	5	Mayo	2023-05-25T00:00:00	2024-11-06T22:00:00	8	Radiación solar	0
27833	7	Sololá	701	Sololá	3	Barraneche	5	Mayo	2023-05-25T00:00:00	2024-11-06T23:00:00	2	Temperatura media	12.8
27834	7	Sololá	701	Sololá	3	Barraneche	5	Mayo	2023-05-25T00:00:00	2024-11-06T23:00:00	4	Temperatura máxima	12.9
27835	7	Sololá	701	Sololá	3	Barraneche	5	Mayo	2023-05-25T00:00:00	2024-11-06T23:00:00	3	Temperatura mínima	12.3
27836	7	Sololá	701	Sololá	3	Barraneche	5	Mayo	2023-05-25T00:00:00	2024-11-06T23:00:00	5	Humedad	73
27837	7	Sololá	701	Sololá	3	Barraneche	5	Mayo	2023-05-25T00:00:00	2024-11-06T23:00:00	6	Velocidad del viento	6.4
27838	7	Sololá	701	Sololá	3	Barraneche	5	Mayo	2023-05-25T00:00:00	2024-11-06T23:00:00	7	Dirección del viento	6.44
27839	7	Sololá	701	Sololá	3	Barraneche	5	Mayo	2023-05-25T00:00:00	2024-11-06T23:00:00	1	Precipitación	0
27840	7	Sololá	701	Sololá	3	Barraneche	5	Mayo	2023-05-25T00:00:00	2024-11-06T23:00:00	8	Radiación solar	0
27841	7	Sololá	701	Sololá	3	Barraneche	5	Mayo	2023-05-26T00:00:00	2024-11-06T00:00:00	2	Temperatura media	12.4
27842	7	Sololá	701	Sololá	3	Barraneche	5	Mayo	2023-05-26T00:00:00	2024-11-06T00:00:00	4	Temperatura máxima	13
27843	7	Sololá	701	Sololá	3	Barraneche	5	Mayo	2023-05-26T00:00:00	2024-11-06T00:00:00	3	Temperatura mínima	12.4
27844	7	Sololá	701	Sololá	3	Barraneche	5	Mayo	2023-05-26T00:00:00	2024-11-06T00:00:00	5	Humedad	76
27845	7	Sololá	701	Sololá	3	Barraneche	5	Mayo	2023-05-26T00:00:00	2024-11-06T00:00:00	6	Velocidad del viento	1.6
27846	7	Sololá	701	Sololá	3	Barraneche	5	Mayo	2023-05-26T00:00:00	2024-11-06T00:00:00	7	Dirección del viento	1.61
27847	7	Sololá	701	Sololá	3	Barraneche	5	Mayo	2023-05-26T00:00:00	2024-11-06T00:00:00	1	Precipitación	0
27848	7	Sololá	701	Sololá	3	Barraneche	5	Mayo	2023-05-26T00:00:00	2024-11-06T00:00:00	8	Radiación solar	0
27849	7	Sololá	701	Sololá	3	Barraneche	5	Mayo	2023-05-26T00:00:00	2024-11-06T01:00:00	2	Temperatura media	11.9
27850	7	Sololá	701	Sololá	3	Barraneche	5	Mayo	2023-05-26T00:00:00	2024-11-06T01:00:00	4	Temperatura máxima	12.4
27851	7	Sololá	701	Sololá	3	Barraneche	5	Mayo	2023-05-26T00:00:00	2024-11-06T01:00:00	3	Temperatura mínima	11.8
27852	7	Sololá	701	Sololá	3	Barraneche	5	Mayo	2023-05-26T00:00:00	2024-11-06T01:00:00	5	Humedad	74
27853	7	Sololá	701	Sololá	3	Barraneche	5	Mayo	2023-05-26T00:00:00	2024-11-06T01:00:00	6	Velocidad del viento	4.8
27854	7	Sololá	701	Sololá	3	Barraneche	5	Mayo	2023-05-26T00:00:00	2024-11-06T01:00:00	7	Dirección del viento	4.83
27855	7	Sololá	701	Sololá	3	Barraneche	5	Mayo	2023-05-26T00:00:00	2024-11-06T01:00:00	1	Precipitación	0
27856	7	Sololá	701	Sololá	3	Barraneche	5	Mayo	2023-05-26T00:00:00	2024-11-06T01:00:00	8	Radiación solar	0
27857	7	Sololá	701	Sololá	3	Barraneche	5	Mayo	2023-05-26T00:00:00	2024-11-06T02:00:00	2	Temperatura media	11.7
27858	7	Sololá	701	Sololá	3	Barraneche	5	Mayo	2023-05-26T00:00:00	2024-11-06T02:00:00	4	Temperatura máxima	12.1
27859	7	Sololá	701	Sololá	3	Barraneche	5	Mayo	2023-05-26T00:00:00	2024-11-06T02:00:00	3	Temperatura mínima	11.6
27860	7	Sololá	701	Sololá	3	Barraneche	5	Mayo	2023-05-26T00:00:00	2024-11-06T02:00:00	5	Humedad	73
27861	7	Sololá	701	Sololá	3	Barraneche	5	Mayo	2023-05-26T00:00:00	2024-11-06T02:00:00	6	Velocidad del viento	6.4
27862	7	Sololá	701	Sololá	3	Barraneche	5	Mayo	2023-05-26T00:00:00	2024-11-06T02:00:00	7	Dirección del viento	6.44
27863	7	Sololá	701	Sololá	3	Barraneche	5	Mayo	2023-05-26T00:00:00	2024-11-06T02:00:00	1	Precipitación	0
27864	7	Sololá	701	Sololá	3	Barraneche	5	Mayo	2023-05-26T00:00:00	2024-11-06T02:00:00	8	Radiación solar	0
27865	7	Sololá	701	Sololá	3	Barraneche	5	Mayo	2023-05-26T00:00:00	2024-11-06T03:00:00	2	Temperatura media	11.4
27866	7	Sololá	701	Sololá	3	Barraneche	5	Mayo	2023-05-26T00:00:00	2024-11-06T03:00:00	4	Temperatura máxima	11.7
27867	7	Sololá	701	Sololá	3	Barraneche	5	Mayo	2023-05-26T00:00:00	2024-11-06T03:00:00	3	Temperatura mínima	11.3
27868	7	Sololá	701	Sololá	3	Barraneche	5	Mayo	2023-05-26T00:00:00	2024-11-06T03:00:00	5	Humedad	72
27869	7	Sololá	701	Sololá	3	Barraneche	5	Mayo	2023-05-26T00:00:00	2024-11-06T03:00:00	6	Velocidad del viento	6.4
27870	7	Sololá	701	Sololá	3	Barraneche	5	Mayo	2023-05-26T00:00:00	2024-11-06T03:00:00	7	Dirección del viento	6.44
27871	7	Sololá	701	Sololá	3	Barraneche	5	Mayo	2023-05-26T00:00:00	2024-11-06T03:00:00	1	Precipitación	0
27872	7	Sololá	701	Sololá	3	Barraneche	5	Mayo	2023-05-26T00:00:00	2024-11-06T03:00:00	8	Radiación solar	0
27873	7	Sololá	701	Sololá	3	Barraneche	5	Mayo	2023-05-26T00:00:00	2024-11-06T04:00:00	2	Temperatura media	11.3
27874	7	Sololá	701	Sololá	3	Barraneche	5	Mayo	2023-05-26T00:00:00	2024-11-06T04:00:00	4	Temperatura máxima	11.5
27875	7	Sololá	701	Sololá	3	Barraneche	5	Mayo	2023-05-26T00:00:00	2024-11-06T04:00:00	3	Temperatura mínima	10.9
27876	7	Sololá	701	Sololá	3	Barraneche	5	Mayo	2023-05-26T00:00:00	2024-11-06T04:00:00	5	Humedad	72
27877	7	Sololá	701	Sololá	3	Barraneche	5	Mayo	2023-05-26T00:00:00	2024-11-06T04:00:00	6	Velocidad del viento	6.4
27878	7	Sololá	701	Sololá	3	Barraneche	5	Mayo	2023-05-26T00:00:00	2024-11-06T04:00:00	7	Dirección del viento	6.44
27879	7	Sololá	701	Sololá	3	Barraneche	5	Mayo	2023-05-26T00:00:00	2024-11-06T04:00:00	1	Precipitación	0
27880	7	Sololá	701	Sololá	3	Barraneche	5	Mayo	2023-05-26T00:00:00	2024-11-06T04:00:00	8	Radiación solar	0
27881	7	Sololá	701	Sololá	3	Barraneche	5	Mayo	2023-05-26T00:00:00	2024-11-06T05:00:00	2	Temperatura media	10.9
27882	7	Sololá	701	Sololá	3	Barraneche	5	Mayo	2023-05-26T00:00:00	2024-11-06T05:00:00	4	Temperatura máxima	11.7
27883	7	Sololá	701	Sololá	3	Barraneche	5	Mayo	2023-05-26T00:00:00	2024-11-06T05:00:00	3	Temperatura mínima	10.9
27884	7	Sololá	701	Sololá	3	Barraneche	5	Mayo	2023-05-26T00:00:00	2024-11-06T05:00:00	5	Humedad	72
27885	7	Sololá	701	Sololá	3	Barraneche	5	Mayo	2023-05-26T00:00:00	2024-11-06T05:00:00	6	Velocidad del viento	4.8
27886	7	Sololá	701	Sololá	3	Barraneche	5	Mayo	2023-05-26T00:00:00	2024-11-06T05:00:00	7	Dirección del viento	4.83
27887	7	Sololá	701	Sololá	3	Barraneche	5	Mayo	2023-05-26T00:00:00	2024-11-06T05:00:00	1	Precipitación	0
27888	7	Sololá	701	Sololá	3	Barraneche	5	Mayo	2023-05-26T00:00:00	2024-11-06T05:00:00	8	Radiación solar	0
27889	7	Sololá	701	Sololá	3	Barraneche	5	Mayo	2023-05-26T00:00:00	2024-11-06T06:00:00	2	Temperatura media	11
27890	7	Sololá	701	Sololá	3	Barraneche	5	Mayo	2023-05-26T00:00:00	2024-11-06T06:00:00	4	Temperatura máxima	11.2
27891	7	Sololá	701	Sololá	3	Barraneche	5	Mayo	2023-05-26T00:00:00	2024-11-06T06:00:00	3	Temperatura mínima	10.6
27892	7	Sololá	701	Sololá	3	Barraneche	5	Mayo	2023-05-26T00:00:00	2024-11-06T06:00:00	5	Humedad	74
27893	7	Sololá	701	Sololá	3	Barraneche	5	Mayo	2023-05-26T00:00:00	2024-11-06T06:00:00	6	Velocidad del viento	3.2
27894	7	Sololá	701	Sololá	3	Barraneche	5	Mayo	2023-05-26T00:00:00	2024-11-06T06:00:00	7	Dirección del viento	3.22
27895	7	Sololá	701	Sololá	3	Barraneche	5	Mayo	2023-05-26T00:00:00	2024-11-06T06:00:00	1	Precipitación	0
27896	7	Sololá	701	Sololá	3	Barraneche	5	Mayo	2023-05-26T00:00:00	2024-11-06T06:00:00	8	Radiación solar	6
27897	7	Sololá	701	Sololá	3	Barraneche	5	Mayo	2023-05-26T00:00:00	2024-11-06T07:00:00	2	Temperatura media	12.4
27898	7	Sololá	701	Sololá	3	Barraneche	5	Mayo	2023-05-26T00:00:00	2024-11-06T07:00:00	4	Temperatura máxima	12.4
27899	7	Sololá	701	Sololá	3	Barraneche	5	Mayo	2023-05-26T00:00:00	2024-11-06T07:00:00	3	Temperatura mínima	10.9
27900	7	Sololá	701	Sololá	3	Barraneche	5	Mayo	2023-05-26T00:00:00	2024-11-06T07:00:00	5	Humedad	74
27901	7	Sololá	701	Sololá	3	Barraneche	5	Mayo	2023-05-26T00:00:00	2024-11-06T07:00:00	6	Velocidad del viento	3.2
27902	7	Sololá	701	Sololá	3	Barraneche	5	Mayo	2023-05-26T00:00:00	2024-11-06T07:00:00	7	Dirección del viento	3.22
27903	7	Sololá	701	Sololá	3	Barraneche	5	Mayo	2023-05-26T00:00:00	2024-11-06T07:00:00	1	Precipitación	0
27904	7	Sololá	701	Sololá	3	Barraneche	5	Mayo	2023-05-26T00:00:00	2024-11-06T07:00:00	8	Radiación solar	101
27905	7	Sololá	701	Sololá	3	Barraneche	5	Mayo	2023-05-26T00:00:00	2024-11-06T08:00:00	2	Temperatura media	13.9
27906	7	Sololá	701	Sololá	3	Barraneche	5	Mayo	2023-05-26T00:00:00	2024-11-06T08:00:00	4	Temperatura máxima	13.9
27907	7	Sololá	701	Sololá	3	Barraneche	5	Mayo	2023-05-26T00:00:00	2024-11-06T08:00:00	3	Temperatura mínima	12.4
27908	7	Sololá	701	Sololá	3	Barraneche	5	Mayo	2023-05-26T00:00:00	2024-11-06T08:00:00	5	Humedad	67
27909	7	Sololá	701	Sololá	3	Barraneche	5	Mayo	2023-05-26T00:00:00	2024-11-06T08:00:00	6	Velocidad del viento	1.6
27910	7	Sololá	701	Sololá	3	Barraneche	5	Mayo	2023-05-26T00:00:00	2024-11-06T08:00:00	7	Dirección del viento	1.61
27911	7	Sololá	701	Sololá	3	Barraneche	5	Mayo	2023-05-26T00:00:00	2024-11-06T08:00:00	1	Precipitación	0
27912	7	Sololá	701	Sololá	3	Barraneche	5	Mayo	2023-05-26T00:00:00	2024-11-06T08:00:00	8	Radiación solar	200
27913	7	Sololá	701	Sololá	3	Barraneche	5	Mayo	2023-05-26T00:00:00	2024-11-06T09:00:00	2	Temperatura media	15.8
27914	7	Sololá	701	Sololá	3	Barraneche	5	Mayo	2023-05-26T00:00:00	2024-11-06T09:00:00	4	Temperatura máxima	15.8
27915	7	Sololá	701	Sololá	3	Barraneche	5	Mayo	2023-05-26T00:00:00	2024-11-06T09:00:00	3	Temperatura mínima	13.9
27916	7	Sololá	701	Sololá	3	Barraneche	5	Mayo	2023-05-26T00:00:00	2024-11-06T09:00:00	5	Humedad	64
27917	7	Sololá	701	Sololá	3	Barraneche	5	Mayo	2023-05-26T00:00:00	2024-11-06T09:00:00	6	Velocidad del viento	1.6
27918	7	Sololá	701	Sololá	3	Barraneche	5	Mayo	2023-05-26T00:00:00	2024-11-06T09:00:00	7	Dirección del viento	1.61
27919	7	Sololá	701	Sololá	3	Barraneche	5	Mayo	2023-05-26T00:00:00	2024-11-06T09:00:00	1	Precipitación	0
27920	7	Sololá	701	Sololá	3	Barraneche	5	Mayo	2023-05-26T00:00:00	2024-11-06T09:00:00	8	Radiación solar	362
27921	7	Sololá	701	Sololá	3	Barraneche	5	Mayo	2023-05-26T00:00:00	2024-11-06T10:00:00	2	Temperatura media	16.2
27922	7	Sololá	701	Sololá	3	Barraneche	5	Mayo	2023-05-26T00:00:00	2024-11-06T10:00:00	4	Temperatura máxima	16.4
27923	7	Sololá	701	Sololá	3	Barraneche	5	Mayo	2023-05-26T00:00:00	2024-11-06T10:00:00	3	Temperatura mínima	15.6
27924	7	Sololá	701	Sololá	3	Barraneche	5	Mayo	2023-05-26T00:00:00	2024-11-06T10:00:00	5	Humedad	66
27925	7	Sololá	701	Sololá	3	Barraneche	5	Mayo	2023-05-26T00:00:00	2024-11-06T10:00:00	6	Velocidad del viento	3.2
27926	7	Sololá	701	Sololá	3	Barraneche	5	Mayo	2023-05-26T00:00:00	2024-11-06T10:00:00	7	Dirección del viento	3.22
27927	7	Sololá	701	Sololá	3	Barraneche	5	Mayo	2023-05-26T00:00:00	2024-11-06T10:00:00	1	Precipitación	0
27928	7	Sololá	701	Sololá	3	Barraneche	5	Mayo	2023-05-26T00:00:00	2024-11-06T10:00:00	8	Radiación solar	403
27929	7	Sololá	701	Sololá	3	Barraneche	5	Mayo	2023-05-26T00:00:00	2024-11-06T11:00:00	2	Temperatura media	16.8
27930	7	Sololá	701	Sololá	3	Barraneche	5	Mayo	2023-05-26T00:00:00	2024-11-06T11:00:00	4	Temperatura máxima	16.8
27931	7	Sololá	701	Sololá	3	Barraneche	5	Mayo	2023-05-26T00:00:00	2024-11-06T11:00:00	3	Temperatura mínima	16
27932	7	Sololá	701	Sololá	3	Barraneche	5	Mayo	2023-05-26T00:00:00	2024-11-06T11:00:00	5	Humedad	60
27933	7	Sololá	701	Sololá	3	Barraneche	5	Mayo	2023-05-26T00:00:00	2024-11-06T11:00:00	6	Velocidad del viento	8
27934	7	Sololá	701	Sololá	3	Barraneche	5	Mayo	2023-05-26T00:00:00	2024-11-06T11:00:00	7	Dirección del viento	8.05
27935	7	Sololá	701	Sololá	3	Barraneche	5	Mayo	2023-05-26T00:00:00	2024-11-06T11:00:00	1	Precipitación	0
27936	7	Sololá	701	Sololá	3	Barraneche	5	Mayo	2023-05-26T00:00:00	2024-11-06T11:00:00	8	Radiación solar	616
27937	7	Sololá	701	Sololá	3	Barraneche	5	Mayo	2023-05-26T00:00:00	2024-11-06T12:00:00	2	Temperatura media	17.9
27938	7	Sololá	701	Sololá	3	Barraneche	5	Mayo	2023-05-26T00:00:00	2024-11-06T12:00:00	4	Temperatura máxima	17.9
27939	7	Sololá	701	Sololá	3	Barraneche	5	Mayo	2023-05-26T00:00:00	2024-11-06T12:00:00	3	Temperatura mínima	16.8
27940	7	Sololá	701	Sololá	3	Barraneche	5	Mayo	2023-05-26T00:00:00	2024-11-06T12:00:00	5	Humedad	60
27941	7	Sololá	701	Sololá	3	Barraneche	5	Mayo	2023-05-26T00:00:00	2024-11-06T12:00:00	6	Velocidad del viento	6.4
27942	7	Sololá	701	Sololá	3	Barraneche	5	Mayo	2023-05-26T00:00:00	2024-11-06T12:00:00	7	Dirección del viento	6.44
27943	7	Sololá	701	Sololá	3	Barraneche	5	Mayo	2023-05-26T00:00:00	2024-11-06T12:00:00	1	Precipitación	0
27944	7	Sololá	701	Sololá	3	Barraneche	5	Mayo	2023-05-26T00:00:00	2024-11-06T12:00:00	8	Radiación solar	728
27945	7	Sololá	701	Sololá	3	Barraneche	5	Mayo	2023-05-26T00:00:00	2024-11-06T13:00:00	2	Temperatura media	18.1
27946	7	Sololá	701	Sololá	3	Barraneche	5	Mayo	2023-05-26T00:00:00	2024-11-06T13:00:00	4	Temperatura máxima	18.2
27947	7	Sololá	701	Sololá	3	Barraneche	5	Mayo	2023-05-26T00:00:00	2024-11-06T13:00:00	3	Temperatura mínima	17.4
27948	7	Sololá	701	Sololá	3	Barraneche	5	Mayo	2023-05-26T00:00:00	2024-11-06T13:00:00	5	Humedad	62
27949	7	Sololá	701	Sololá	3	Barraneche	5	Mayo	2023-05-26T00:00:00	2024-11-06T13:00:00	6	Velocidad del viento	9.7
27950	7	Sololá	701	Sololá	3	Barraneche	5	Mayo	2023-05-26T00:00:00	2024-11-06T13:00:00	7	Dirección del viento	9.66
27951	7	Sololá	701	Sololá	3	Barraneche	5	Mayo	2023-05-26T00:00:00	2024-11-06T13:00:00	1	Precipitación	0
27952	7	Sololá	701	Sololá	3	Barraneche	5	Mayo	2023-05-26T00:00:00	2024-11-06T13:00:00	8	Radiación solar	676
27953	7	Sololá	701	Sololá	3	Barraneche	5	Mayo	2023-05-26T00:00:00	2024-11-06T14:00:00	2	Temperatura media	17.6
27954	7	Sololá	701	Sololá	3	Barraneche	5	Mayo	2023-05-26T00:00:00	2024-11-06T14:00:00	4	Temperatura máxima	18.6
27955	7	Sololá	701	Sololá	3	Barraneche	5	Mayo	2023-05-26T00:00:00	2024-11-06T14:00:00	3	Temperatura mínima	17.6
27956	7	Sololá	701	Sololá	3	Barraneche	5	Mayo	2023-05-26T00:00:00	2024-11-06T14:00:00	5	Humedad	65
27957	7	Sololá	701	Sololá	3	Barraneche	5	Mayo	2023-05-26T00:00:00	2024-11-06T14:00:00	6	Velocidad del viento	11.3
27958	7	Sololá	701	Sololá	3	Barraneche	5	Mayo	2023-05-26T00:00:00	2024-11-06T14:00:00	7	Dirección del viento	11.27
27959	7	Sololá	701	Sololá	3	Barraneche	5	Mayo	2023-05-26T00:00:00	2024-11-06T14:00:00	1	Precipitación	0
27960	7	Sololá	701	Sololá	3	Barraneche	5	Mayo	2023-05-26T00:00:00	2024-11-06T14:00:00	8	Radiación solar	428
27961	7	Sololá	701	Sololá	3	Barraneche	5	Mayo	2023-05-26T00:00:00	2024-11-06T15:00:00	2	Temperatura media	17.8
27962	7	Sololá	701	Sololá	3	Barraneche	5	Mayo	2023-05-26T00:00:00	2024-11-06T15:00:00	4	Temperatura máxima	17.8
27963	7	Sololá	701	Sololá	3	Barraneche	5	Mayo	2023-05-26T00:00:00	2024-11-06T15:00:00	3	Temperatura mínima	17.2
27964	7	Sololá	701	Sololá	3	Barraneche	5	Mayo	2023-05-26T00:00:00	2024-11-06T15:00:00	5	Humedad	65
27965	7	Sololá	701	Sololá	3	Barraneche	5	Mayo	2023-05-26T00:00:00	2024-11-06T15:00:00	6	Velocidad del viento	6.4
27966	7	Sololá	701	Sololá	3	Barraneche	5	Mayo	2023-05-26T00:00:00	2024-11-06T15:00:00	7	Dirección del viento	6.44
27967	7	Sololá	701	Sololá	3	Barraneche	5	Mayo	2023-05-26T00:00:00	2024-11-06T15:00:00	1	Precipitación	0
27968	7	Sololá	701	Sololá	3	Barraneche	5	Mayo	2023-05-26T00:00:00	2024-11-06T15:00:00	8	Radiación solar	264
27969	7	Sololá	701	Sololá	3	Barraneche	5	Mayo	2023-05-26T00:00:00	2024-11-06T16:00:00	2	Temperatura media	17.2
27970	7	Sololá	701	Sololá	3	Barraneche	5	Mayo	2023-05-26T00:00:00	2024-11-06T16:00:00	4	Temperatura máxima	18.1
27971	7	Sololá	701	Sololá	3	Barraneche	5	Mayo	2023-05-26T00:00:00	2024-11-06T16:00:00	3	Temperatura mínima	17.2
27972	7	Sololá	701	Sololá	3	Barraneche	5	Mayo	2023-05-26T00:00:00	2024-11-06T16:00:00	5	Humedad	68
27973	7	Sololá	701	Sololá	3	Barraneche	5	Mayo	2023-05-26T00:00:00	2024-11-06T16:00:00	6	Velocidad del viento	6.4
27974	7	Sololá	701	Sololá	3	Barraneche	5	Mayo	2023-05-26T00:00:00	2024-11-06T16:00:00	7	Dirección del viento	6.44
27975	7	Sololá	701	Sololá	3	Barraneche	5	Mayo	2023-05-26T00:00:00	2024-11-06T16:00:00	1	Precipitación	0
27976	7	Sololá	701	Sololá	3	Barraneche	5	Mayo	2023-05-26T00:00:00	2024-11-06T16:00:00	8	Radiación solar	257
27977	7	Sololá	701	Sololá	3	Barraneche	5	Mayo	2023-05-26T00:00:00	2024-11-06T17:00:00	2	Temperatura media	16
27978	7	Sololá	701	Sololá	3	Barraneche	5	Mayo	2023-05-26T00:00:00	2024-11-06T17:00:00	4	Temperatura máxima	17.2
27979	7	Sololá	701	Sololá	3	Barraneche	5	Mayo	2023-05-26T00:00:00	2024-11-06T17:00:00	3	Temperatura mínima	16
27980	7	Sololá	701	Sololá	3	Barraneche	5	Mayo	2023-05-26T00:00:00	2024-11-06T17:00:00	5	Humedad	71
27981	7	Sololá	701	Sololá	3	Barraneche	5	Mayo	2023-05-26T00:00:00	2024-11-06T17:00:00	6	Velocidad del viento	6.4
27982	7	Sololá	701	Sololá	3	Barraneche	5	Mayo	2023-05-26T00:00:00	2024-11-06T17:00:00	7	Dirección del viento	6.44
27983	7	Sololá	701	Sololá	3	Barraneche	5	Mayo	2023-05-26T00:00:00	2024-11-06T17:00:00	1	Precipitación	0
27984	7	Sololá	701	Sololá	3	Barraneche	5	Mayo	2023-05-26T00:00:00	2024-11-06T17:00:00	8	Radiación solar	53
27985	7	Sololá	701	Sololá	3	Barraneche	5	Mayo	2023-05-26T00:00:00	2024-11-06T18:00:00	2	Temperatura media	15.5
27986	7	Sololá	701	Sololá	3	Barraneche	5	Mayo	2023-05-26T00:00:00	2024-11-06T18:00:00	4	Temperatura máxima	16
27987	7	Sololá	701	Sololá	3	Barraneche	5	Mayo	2023-05-26T00:00:00	2024-11-06T18:00:00	3	Temperatura mínima	15.5
27988	7	Sololá	701	Sololá	3	Barraneche	5	Mayo	2023-05-26T00:00:00	2024-11-06T18:00:00	5	Humedad	76
27989	7	Sololá	701	Sololá	3	Barraneche	5	Mayo	2023-05-26T00:00:00	2024-11-06T18:00:00	6	Velocidad del viento	3.2
27990	7	Sololá	701	Sololá	3	Barraneche	5	Mayo	2023-05-26T00:00:00	2024-11-06T18:00:00	7	Dirección del viento	3.22
27991	7	Sololá	701	Sololá	3	Barraneche	5	Mayo	2023-05-26T00:00:00	2024-11-06T18:00:00	1	Precipitación	0
27992	7	Sololá	701	Sololá	3	Barraneche	5	Mayo	2023-05-26T00:00:00	2024-11-06T18:00:00	8	Radiación solar	20
27993	7	Sololá	701	Sololá	3	Barraneche	5	Mayo	2023-05-26T00:00:00	2024-11-06T19:00:00	2	Temperatura media	15.6
27994	7	Sololá	701	Sololá	3	Barraneche	5	Mayo	2023-05-26T00:00:00	2024-11-06T19:00:00	4	Temperatura máxima	15.6
27995	7	Sololá	701	Sololá	3	Barraneche	5	Mayo	2023-05-26T00:00:00	2024-11-06T19:00:00	3	Temperatura mínima	14.3
27996	7	Sololá	701	Sololá	3	Barraneche	5	Mayo	2023-05-26T00:00:00	2024-11-06T19:00:00	5	Humedad	54
27997	7	Sololá	701	Sololá	3	Barraneche	5	Mayo	2023-05-26T00:00:00	2024-11-06T19:00:00	6	Velocidad del viento	3.2
27998	7	Sololá	701	Sololá	3	Barraneche	5	Mayo	2023-05-26T00:00:00	2024-11-06T19:00:00	7	Dirección del viento	3.22
27999	7	Sololá	701	Sololá	3	Barraneche	5	Mayo	2023-05-26T00:00:00	2024-11-06T19:00:00	1	Precipitación	0
28000	7	Sololá	701	Sololá	3	Barraneche	5	Mayo	2023-05-26T00:00:00	2024-11-06T19:00:00	8	Radiación solar	0
28001	7	Sololá	701	Sololá	3	Barraneche	5	Mayo	2023-05-26T00:00:00	2024-11-06T20:00:00	2	Temperatura media	13.3
28002	7	Sololá	701	Sololá	3	Barraneche	5	Mayo	2023-05-26T00:00:00	2024-11-06T20:00:00	4	Temperatura máxima	15.8
28003	7	Sololá	701	Sololá	3	Barraneche	5	Mayo	2023-05-26T00:00:00	2024-11-06T20:00:00	3	Temperatura mínima	13.3
28004	7	Sololá	701	Sololá	3	Barraneche	5	Mayo	2023-05-26T00:00:00	2024-11-06T20:00:00	5	Humedad	65
28005	7	Sololá	701	Sololá	3	Barraneche	5	Mayo	2023-05-26T00:00:00	2024-11-06T20:00:00	6	Velocidad del viento	6.4
28006	7	Sololá	701	Sololá	3	Barraneche	5	Mayo	2023-05-26T00:00:00	2024-11-06T20:00:00	7	Dirección del viento	6.44
28007	7	Sololá	701	Sololá	3	Barraneche	5	Mayo	2023-05-26T00:00:00	2024-11-06T20:00:00	1	Precipitación	0
28008	7	Sololá	701	Sololá	3	Barraneche	5	Mayo	2023-05-26T00:00:00	2024-11-06T20:00:00	8	Radiación solar	0
28009	7	Sololá	701	Sololá	3	Barraneche	5	Mayo	2023-05-26T00:00:00	2024-11-06T21:00:00	2	Temperatura media	12.8
28010	7	Sololá	701	Sololá	3	Barraneche	5	Mayo	2023-05-26T00:00:00	2024-11-06T21:00:00	4	Temperatura máxima	13.4
28011	7	Sololá	701	Sololá	3	Barraneche	5	Mayo	2023-05-26T00:00:00	2024-11-06T21:00:00	3	Temperatura mínima	12.8
28012	7	Sololá	701	Sololá	3	Barraneche	5	Mayo	2023-05-26T00:00:00	2024-11-06T21:00:00	5	Humedad	69
28013	7	Sololá	701	Sololá	3	Barraneche	5	Mayo	2023-05-26T00:00:00	2024-11-06T21:00:00	6	Velocidad del viento	4.8
28014	7	Sololá	701	Sololá	3	Barraneche	5	Mayo	2023-05-26T00:00:00	2024-11-06T21:00:00	7	Dirección del viento	4.83
28015	7	Sololá	701	Sololá	3	Barraneche	5	Mayo	2023-05-26T00:00:00	2024-11-06T21:00:00	1	Precipitación	0
28016	7	Sololá	701	Sololá	3	Barraneche	5	Mayo	2023-05-26T00:00:00	2024-11-06T21:00:00	8	Radiación solar	0
28017	7	Sololá	701	Sololá	3	Barraneche	5	Mayo	2023-05-26T00:00:00	2024-11-06T22:00:00	2	Temperatura media	12.7
28018	7	Sololá	701	Sololá	3	Barraneche	5	Mayo	2023-05-26T00:00:00	2024-11-06T22:00:00	4	Temperatura máxima	13.2
28019	7	Sololá	701	Sololá	3	Barraneche	5	Mayo	2023-05-26T00:00:00	2024-11-06T22:00:00	3	Temperatura mínima	12.5
28020	7	Sololá	701	Sololá	3	Barraneche	5	Mayo	2023-05-26T00:00:00	2024-11-06T22:00:00	5	Humedad	68
28021	7	Sololá	701	Sololá	3	Barraneche	5	Mayo	2023-05-26T00:00:00	2024-11-06T22:00:00	6	Velocidad del viento	3.2
28022	7	Sololá	701	Sololá	3	Barraneche	5	Mayo	2023-05-26T00:00:00	2024-11-06T22:00:00	7	Dirección del viento	3.22
28023	7	Sololá	701	Sololá	3	Barraneche	5	Mayo	2023-05-26T00:00:00	2024-11-06T22:00:00	1	Precipitación	0
28024	7	Sololá	701	Sololá	3	Barraneche	5	Mayo	2023-05-26T00:00:00	2024-11-06T22:00:00	8	Radiación solar	0
28025	7	Sololá	701	Sololá	3	Barraneche	5	Mayo	2023-05-26T00:00:00	2024-11-06T23:00:00	2	Temperatura media	12.7
28026	7	Sololá	701	Sololá	3	Barraneche	5	Mayo	2023-05-26T00:00:00	2024-11-06T23:00:00	4	Temperatura máxima	14.2
28027	7	Sololá	701	Sololá	3	Barraneche	5	Mayo	2023-05-26T00:00:00	2024-11-06T23:00:00	3	Temperatura mínima	12.6
28028	7	Sololá	701	Sololá	3	Barraneche	5	Mayo	2023-05-26T00:00:00	2024-11-06T23:00:00	5	Humedad	63
28029	7	Sololá	701	Sololá	3	Barraneche	5	Mayo	2023-05-26T00:00:00	2024-11-06T23:00:00	6	Velocidad del viento	3.2
28030	7	Sololá	701	Sololá	3	Barraneche	5	Mayo	2023-05-26T00:00:00	2024-11-06T23:00:00	7	Dirección del viento	3.22
28031	7	Sololá	701	Sololá	3	Barraneche	5	Mayo	2023-05-26T00:00:00	2024-11-06T23:00:00	1	Precipitación	0
28032	7	Sololá	701	Sololá	3	Barraneche	5	Mayo	2023-05-26T00:00:00	2024-11-06T23:00:00	8	Radiación solar	0
28033	7	Sololá	701	Sololá	3	Barraneche	5	Mayo	2023-05-27T00:00:00	2024-11-06T00:00:00	2	Temperatura media	11
28034	7	Sololá	701	Sololá	3	Barraneche	5	Mayo	2023-05-27T00:00:00	2024-11-06T00:00:00	4	Temperatura máxima	12.7
28035	7	Sololá	701	Sololá	3	Barraneche	5	Mayo	2023-05-27T00:00:00	2024-11-06T00:00:00	3	Temperatura mínima	11
28036	7	Sololá	701	Sololá	3	Barraneche	5	Mayo	2023-05-27T00:00:00	2024-11-06T00:00:00	5	Humedad	66
28037	7	Sololá	701	Sololá	3	Barraneche	5	Mayo	2023-05-27T00:00:00	2024-11-06T00:00:00	6	Velocidad del viento	3.2
28038	7	Sololá	701	Sololá	3	Barraneche	5	Mayo	2023-05-27T00:00:00	2024-11-06T00:00:00	7	Dirección del viento	3.22
28039	7	Sololá	701	Sololá	3	Barraneche	5	Mayo	2023-05-27T00:00:00	2024-11-06T00:00:00	1	Precipitación	0
28040	7	Sololá	701	Sololá	3	Barraneche	5	Mayo	2023-05-27T00:00:00	2024-11-06T00:00:00	8	Radiación solar	0
28041	7	Sololá	701	Sololá	3	Barraneche	5	Mayo	2023-05-27T00:00:00	2024-11-06T01:00:00	2	Temperatura media	11.1
28042	7	Sololá	701	Sololá	3	Barraneche	5	Mayo	2023-05-27T00:00:00	2024-11-06T01:00:00	4	Temperatura máxima	11.3
28043	7	Sololá	701	Sololá	3	Barraneche	5	Mayo	2023-05-27T00:00:00	2024-11-06T01:00:00	3	Temperatura mínima	10.7
28044	7	Sololá	701	Sololá	3	Barraneche	5	Mayo	2023-05-27T00:00:00	2024-11-06T01:00:00	5	Humedad	62
28045	7	Sololá	701	Sololá	3	Barraneche	5	Mayo	2023-05-27T00:00:00	2024-11-06T01:00:00	6	Velocidad del viento	8
28046	7	Sololá	701	Sololá	3	Barraneche	5	Mayo	2023-05-27T00:00:00	2024-11-06T01:00:00	7	Dirección del viento	8.05
28047	7	Sololá	701	Sololá	3	Barraneche	5	Mayo	2023-05-27T00:00:00	2024-11-06T01:00:00	1	Precipitación	0
28048	7	Sololá	701	Sololá	3	Barraneche	5	Mayo	2023-05-27T00:00:00	2024-11-06T01:00:00	8	Radiación solar	0
28049	7	Sololá	701	Sololá	3	Barraneche	5	Mayo	2023-05-27T00:00:00	2024-11-06T02:00:00	2	Temperatura media	10.5
28050	7	Sololá	701	Sololá	3	Barraneche	5	Mayo	2023-05-27T00:00:00	2024-11-06T02:00:00	4	Temperatura máxima	11.6
28051	7	Sololá	701	Sololá	3	Barraneche	5	Mayo	2023-05-27T00:00:00	2024-11-06T02:00:00	3	Temperatura mínima	10.5
28052	7	Sololá	701	Sololá	3	Barraneche	5	Mayo	2023-05-27T00:00:00	2024-11-06T02:00:00	5	Humedad	64
28053	7	Sololá	701	Sololá	3	Barraneche	5	Mayo	2023-05-27T00:00:00	2024-11-06T02:00:00	6	Velocidad del viento	6.4
28054	7	Sololá	701	Sololá	3	Barraneche	5	Mayo	2023-05-27T00:00:00	2024-11-06T02:00:00	7	Dirección del viento	6.44
28055	7	Sololá	701	Sololá	3	Barraneche	5	Mayo	2023-05-27T00:00:00	2024-11-06T02:00:00	1	Precipitación	0
28056	7	Sololá	701	Sololá	3	Barraneche	5	Mayo	2023-05-27T00:00:00	2024-11-06T02:00:00	8	Radiación solar	0
28057	7	Sololá	701	Sololá	3	Barraneche	5	Mayo	2023-05-27T00:00:00	2024-11-06T03:00:00	2	Temperatura media	11.2
28058	7	Sololá	701	Sololá	3	Barraneche	5	Mayo	2023-05-27T00:00:00	2024-11-06T03:00:00	4	Temperatura máxima	11.6
28059	7	Sololá	701	Sololá	3	Barraneche	5	Mayo	2023-05-27T00:00:00	2024-11-06T03:00:00	3	Temperatura mínima	10.4
28060	7	Sololá	701	Sololá	3	Barraneche	5	Mayo	2023-05-27T00:00:00	2024-11-06T03:00:00	5	Humedad	62
28061	7	Sololá	701	Sololá	3	Barraneche	5	Mayo	2023-05-27T00:00:00	2024-11-06T03:00:00	6	Velocidad del viento	6.4
28062	7	Sololá	701	Sololá	3	Barraneche	5	Mayo	2023-05-27T00:00:00	2024-11-06T03:00:00	7	Dirección del viento	6.44
28063	7	Sololá	701	Sololá	3	Barraneche	5	Mayo	2023-05-27T00:00:00	2024-11-06T03:00:00	1	Precipitación	0
28064	7	Sololá	701	Sololá	3	Barraneche	5	Mayo	2023-05-27T00:00:00	2024-11-06T03:00:00	8	Radiación solar	0
28065	7	Sololá	701	Sololá	3	Barraneche	5	Mayo	2023-05-27T00:00:00	2024-11-06T04:00:00	2	Temperatura media	10.9
28066	7	Sololá	701	Sololá	3	Barraneche	5	Mayo	2023-05-27T00:00:00	2024-11-06T04:00:00	4	Temperatura máxima	12.1
28067	7	Sololá	701	Sololá	3	Barraneche	5	Mayo	2023-05-27T00:00:00	2024-11-06T04:00:00	3	Temperatura mínima	10.9
28068	7	Sololá	701	Sololá	3	Barraneche	5	Mayo	2023-05-27T00:00:00	2024-11-06T04:00:00	5	Humedad	64
28069	7	Sololá	701	Sololá	3	Barraneche	5	Mayo	2023-05-27T00:00:00	2024-11-06T04:00:00	6	Velocidad del viento	6.4
28070	7	Sololá	701	Sololá	3	Barraneche	5	Mayo	2023-05-27T00:00:00	2024-11-06T04:00:00	7	Dirección del viento	6.44
28071	7	Sololá	701	Sololá	3	Barraneche	5	Mayo	2023-05-27T00:00:00	2024-11-06T04:00:00	1	Precipitación	0
28072	7	Sololá	701	Sololá	3	Barraneche	5	Mayo	2023-05-27T00:00:00	2024-11-06T04:00:00	8	Radiación solar	0
28073	7	Sololá	701	Sololá	3	Barraneche	5	Mayo	2023-05-27T00:00:00	2024-11-06T05:00:00	2	Temperatura media	10.4
28074	7	Sololá	701	Sololá	3	Barraneche	5	Mayo	2023-05-27T00:00:00	2024-11-06T05:00:00	4	Temperatura máxima	11.2
28075	7	Sololá	701	Sololá	3	Barraneche	5	Mayo	2023-05-27T00:00:00	2024-11-06T05:00:00	3	Temperatura mínima	10.4
28076	7	Sololá	701	Sololá	3	Barraneche	5	Mayo	2023-05-27T00:00:00	2024-11-06T05:00:00	5	Humedad	67
28077	7	Sololá	701	Sololá	3	Barraneche	5	Mayo	2023-05-27T00:00:00	2024-11-06T05:00:00	6	Velocidad del viento	4.8
28078	7	Sololá	701	Sololá	3	Barraneche	5	Mayo	2023-05-27T00:00:00	2024-11-06T05:00:00	7	Dirección del viento	4.83
28079	7	Sololá	701	Sololá	3	Barraneche	5	Mayo	2023-05-27T00:00:00	2024-11-06T05:00:00	1	Precipitación	0
28080	7	Sololá	701	Sololá	3	Barraneche	5	Mayo	2023-05-27T00:00:00	2024-11-06T05:00:00	8	Radiación solar	0
28081	7	Sololá	701	Sololá	3	Barraneche	5	Mayo	2023-05-27T00:00:00	2024-11-06T06:00:00	2	Temperatura media	10
28082	7	Sololá	701	Sololá	3	Barraneche	5	Mayo	2023-05-27T00:00:00	2024-11-06T06:00:00	4	Temperatura máxima	10.4
28083	7	Sololá	701	Sololá	3	Barraneche	5	Mayo	2023-05-27T00:00:00	2024-11-06T06:00:00	3	Temperatura mínima	9.9
28084	7	Sololá	701	Sololá	3	Barraneche	5	Mayo	2023-05-27T00:00:00	2024-11-06T06:00:00	5	Humedad	69
28085	7	Sololá	701	Sololá	3	Barraneche	5	Mayo	2023-05-27T00:00:00	2024-11-06T06:00:00	6	Velocidad del viento	6.4
28086	7	Sololá	701	Sololá	3	Barraneche	5	Mayo	2023-05-27T00:00:00	2024-11-06T06:00:00	7	Dirección del viento	6.44
28087	7	Sololá	701	Sololá	3	Barraneche	5	Mayo	2023-05-27T00:00:00	2024-11-06T06:00:00	1	Precipitación	0
28088	7	Sololá	701	Sololá	3	Barraneche	5	Mayo	2023-05-27T00:00:00	2024-11-06T06:00:00	8	Radiación solar	6
28089	7	Sololá	701	Sololá	3	Barraneche	5	Mayo	2023-05-27T00:00:00	2024-11-06T07:00:00	2	Temperatura media	11.7
28090	7	Sololá	701	Sololá	3	Barraneche	5	Mayo	2023-05-27T00:00:00	2024-11-06T07:00:00	4	Temperatura máxima	11.7
28091	7	Sololá	701	Sololá	3	Barraneche	5	Mayo	2023-05-27T00:00:00	2024-11-06T07:00:00	3	Temperatura mínima	9.9
28092	7	Sololá	701	Sololá	3	Barraneche	5	Mayo	2023-05-27T00:00:00	2024-11-06T07:00:00	5	Humedad	68
28093	7	Sololá	701	Sololá	3	Barraneche	5	Mayo	2023-05-27T00:00:00	2024-11-06T07:00:00	6	Velocidad del viento	4.8
28094	7	Sololá	701	Sololá	3	Barraneche	5	Mayo	2023-05-27T00:00:00	2024-11-06T07:00:00	7	Dirección del viento	4.83
28095	7	Sololá	701	Sololá	3	Barraneche	5	Mayo	2023-05-27T00:00:00	2024-11-06T07:00:00	1	Precipitación	0
28096	7	Sololá	701	Sololá	3	Barraneche	5	Mayo	2023-05-27T00:00:00	2024-11-06T07:00:00	8	Radiación solar	98
28097	7	Sololá	701	Sololá	3	Barraneche	5	Mayo	2023-05-27T00:00:00	2024-11-06T08:00:00	2	Temperatura media	14.3
28098	7	Sololá	701	Sololá	3	Barraneche	5	Mayo	2023-05-27T00:00:00	2024-11-06T08:00:00	4	Temperatura máxima	14.3
28099	7	Sololá	701	Sololá	3	Barraneche	5	Mayo	2023-05-27T00:00:00	2024-11-06T08:00:00	3	Temperatura mínima	11.7
28100	7	Sololá	701	Sololá	3	Barraneche	5	Mayo	2023-05-27T00:00:00	2024-11-06T08:00:00	5	Humedad	60
28101	7	Sololá	701	Sololá	3	Barraneche	5	Mayo	2023-05-27T00:00:00	2024-11-06T08:00:00	6	Velocidad del viento	1.6
28102	7	Sololá	701	Sololá	3	Barraneche	5	Mayo	2023-05-27T00:00:00	2024-11-06T08:00:00	7	Dirección del viento	1.61
28103	7	Sololá	701	Sololá	3	Barraneche	5	Mayo	2023-05-27T00:00:00	2024-11-06T08:00:00	1	Precipitación	0
28104	7	Sololá	701	Sololá	3	Barraneche	5	Mayo	2023-05-27T00:00:00	2024-11-06T08:00:00	8	Radiación solar	227
28105	7	Sololá	701	Sololá	3	Barraneche	5	Mayo	2023-05-27T00:00:00	2024-11-06T09:00:00	2	Temperatura media	15.3
28106	7	Sololá	701	Sololá	3	Barraneche	5	Mayo	2023-05-27T00:00:00	2024-11-06T09:00:00	4	Temperatura máxima	15.3
28107	7	Sololá	701	Sololá	3	Barraneche	5	Mayo	2023-05-27T00:00:00	2024-11-06T09:00:00	3	Temperatura mínima	14.3
28108	7	Sololá	701	Sololá	3	Barraneche	5	Mayo	2023-05-27T00:00:00	2024-11-06T09:00:00	5	Humedad	59
28109	7	Sololá	701	Sololá	3	Barraneche	5	Mayo	2023-05-27T00:00:00	2024-11-06T09:00:00	6	Velocidad del viento	1.6
28110	7	Sololá	701	Sololá	3	Barraneche	5	Mayo	2023-05-27T00:00:00	2024-11-06T09:00:00	7	Dirección del viento	1.61
28111	7	Sololá	701	Sololá	3	Barraneche	5	Mayo	2023-05-27T00:00:00	2024-11-06T09:00:00	1	Precipitación	0
28112	7	Sololá	701	Sololá	3	Barraneche	5	Mayo	2023-05-27T00:00:00	2024-11-06T09:00:00	8	Radiación solar	248
28113	7	Sololá	701	Sololá	3	Barraneche	5	Mayo	2023-05-27T00:00:00	2024-11-06T10:00:00	2	Temperatura media	16.1
28114	7	Sololá	701	Sololá	3	Barraneche	5	Mayo	2023-05-27T00:00:00	2024-11-06T10:00:00	4	Temperatura máxima	16.1
28115	7	Sololá	701	Sololá	3	Barraneche	5	Mayo	2023-05-27T00:00:00	2024-11-06T10:00:00	3	Temperatura mínima	15.3
28116	7	Sololá	701	Sololá	3	Barraneche	5	Mayo	2023-05-27T00:00:00	2024-11-06T10:00:00	5	Humedad	54
28117	7	Sololá	701	Sololá	3	Barraneche	5	Mayo	2023-05-27T00:00:00	2024-11-06T10:00:00	6	Velocidad del viento	1.6
28118	7	Sololá	701	Sololá	3	Barraneche	5	Mayo	2023-05-27T00:00:00	2024-11-06T10:00:00	7	Dirección del viento	1.61
28119	7	Sololá	701	Sololá	3	Barraneche	5	Mayo	2023-05-27T00:00:00	2024-11-06T10:00:00	1	Precipitación	0
28120	7	Sololá	701	Sololá	3	Barraneche	5	Mayo	2023-05-27T00:00:00	2024-11-06T10:00:00	8	Radiación solar	339
28121	7	Sololá	701	Sololá	3	Barraneche	5	Mayo	2023-05-27T00:00:00	2024-11-06T11:00:00	2	Temperatura media	17
28122	7	Sololá	701	Sololá	3	Barraneche	5	Mayo	2023-05-27T00:00:00	2024-11-06T11:00:00	4	Temperatura máxima	17
28123	7	Sololá	701	Sololá	3	Barraneche	5	Mayo	2023-05-27T00:00:00	2024-11-06T11:00:00	3	Temperatura mínima	16
28124	7	Sololá	701	Sololá	3	Barraneche	5	Mayo	2023-05-27T00:00:00	2024-11-06T11:00:00	5	Humedad	51
28125	7	Sololá	701	Sololá	3	Barraneche	5	Mayo	2023-05-27T00:00:00	2024-11-06T11:00:00	6	Velocidad del viento	4.8
28126	7	Sololá	701	Sololá	3	Barraneche	5	Mayo	2023-05-27T00:00:00	2024-11-06T11:00:00	7	Dirección del viento	4.83
28127	7	Sololá	701	Sololá	3	Barraneche	5	Mayo	2023-05-27T00:00:00	2024-11-06T11:00:00	1	Precipitación	0
28128	7	Sololá	701	Sololá	3	Barraneche	5	Mayo	2023-05-27T00:00:00	2024-11-06T11:00:00	8	Radiación solar	561
28129	7	Sololá	701	Sololá	3	Barraneche	5	Mayo	2023-05-27T00:00:00	2024-11-06T12:00:00	2	Temperatura media	19.4
28130	7	Sololá	701	Sololá	3	Barraneche	5	Mayo	2023-05-27T00:00:00	2024-11-06T12:00:00	4	Temperatura máxima	19.5
28131	7	Sololá	701	Sololá	3	Barraneche	5	Mayo	2023-05-27T00:00:00	2024-11-06T12:00:00	3	Temperatura mínima	16.9
28132	7	Sololá	701	Sololá	3	Barraneche	5	Mayo	2023-05-27T00:00:00	2024-11-06T12:00:00	5	Humedad	46
28133	7	Sololá	701	Sololá	3	Barraneche	5	Mayo	2023-05-27T00:00:00	2024-11-06T12:00:00	6	Velocidad del viento	6.4
28134	7	Sololá	701	Sololá	3	Barraneche	5	Mayo	2023-05-27T00:00:00	2024-11-06T12:00:00	7	Dirección del viento	6.44
28135	7	Sololá	701	Sololá	3	Barraneche	5	Mayo	2023-05-27T00:00:00	2024-11-06T12:00:00	1	Precipitación	0
28136	7	Sololá	701	Sololá	3	Barraneche	5	Mayo	2023-05-27T00:00:00	2024-11-06T12:00:00	8	Radiación solar	1012
28137	7	Sololá	701	Sololá	3	Barraneche	5	Mayo	2023-05-27T00:00:00	2024-11-06T13:00:00	2	Temperatura media	17.8
28138	7	Sololá	701	Sololá	3	Barraneche	5	Mayo	2023-05-27T00:00:00	2024-11-06T13:00:00	4	Temperatura máxima	20.1
28139	7	Sololá	701	Sololá	3	Barraneche	5	Mayo	2023-05-27T00:00:00	2024-11-06T13:00:00	3	Temperatura mínima	17.8
28140	7	Sololá	701	Sololá	3	Barraneche	5	Mayo	2023-05-27T00:00:00	2024-11-06T13:00:00	5	Humedad	50
28141	7	Sololá	701	Sololá	3	Barraneche	5	Mayo	2023-05-27T00:00:00	2024-11-06T13:00:00	6	Velocidad del viento	12.9
28142	7	Sololá	701	Sololá	3	Barraneche	5	Mayo	2023-05-27T00:00:00	2024-11-06T13:00:00	7	Dirección del viento	12.87
28143	7	Sololá	701	Sololá	3	Barraneche	5	Mayo	2023-05-27T00:00:00	2024-11-06T13:00:00	1	Precipitación	0
28144	7	Sololá	701	Sololá	3	Barraneche	5	Mayo	2023-05-27T00:00:00	2024-11-06T13:00:00	8	Radiación solar	767
28145	7	Sololá	701	Sololá	3	Barraneche	5	Mayo	2023-05-27T00:00:00	2024-11-06T14:00:00	2	Temperatura media	17.7
28146	7	Sololá	701	Sololá	3	Barraneche	5	Mayo	2023-05-27T00:00:00	2024-11-06T14:00:00	4	Temperatura máxima	17.9
28147	7	Sololá	701	Sololá	3	Barraneche	5	Mayo	2023-05-27T00:00:00	2024-11-06T14:00:00	3	Temperatura mínima	17.5
28148	7	Sololá	701	Sololá	3	Barraneche	5	Mayo	2023-05-27T00:00:00	2024-11-06T14:00:00	5	Humedad	56
28149	7	Sololá	701	Sololá	3	Barraneche	5	Mayo	2023-05-27T00:00:00	2024-11-06T14:00:00	6	Velocidad del viento	9.7
28150	7	Sololá	701	Sololá	3	Barraneche	5	Mayo	2023-05-27T00:00:00	2024-11-06T14:00:00	7	Dirección del viento	9.66
28151	7	Sololá	701	Sololá	3	Barraneche	5	Mayo	2023-05-27T00:00:00	2024-11-06T14:00:00	1	Precipitación	0
28152	7	Sololá	701	Sololá	3	Barraneche	5	Mayo	2023-05-27T00:00:00	2024-11-06T14:00:00	8	Radiación solar	411
28153	7	Sololá	701	Sololá	3	Barraneche	5	Mayo	2023-05-27T00:00:00	2024-11-06T15:00:00	2	Temperatura media	17.9
28154	7	Sololá	701	Sololá	3	Barraneche	5	Mayo	2023-05-27T00:00:00	2024-11-06T15:00:00	4	Temperatura máxima	18
28155	7	Sololá	701	Sololá	3	Barraneche	5	Mayo	2023-05-27T00:00:00	2024-11-06T15:00:00	3	Temperatura mínima	17.3
28156	7	Sololá	701	Sololá	3	Barraneche	5	Mayo	2023-05-27T00:00:00	2024-11-06T15:00:00	5	Humedad	61
28157	7	Sololá	701	Sololá	3	Barraneche	5	Mayo	2023-05-27T00:00:00	2024-11-06T15:00:00	6	Velocidad del viento	6.4
28158	7	Sololá	701	Sololá	3	Barraneche	5	Mayo	2023-05-27T00:00:00	2024-11-06T15:00:00	7	Dirección del viento	6.44
28159	7	Sololá	701	Sololá	3	Barraneche	5	Mayo	2023-05-27T00:00:00	2024-11-06T15:00:00	1	Precipitación	0
28160	7	Sololá	701	Sololá	3	Barraneche	5	Mayo	2023-05-27T00:00:00	2024-11-06T15:00:00	8	Radiación solar	377
28161	7	Sololá	701	Sololá	3	Barraneche	5	Mayo	2023-05-27T00:00:00	2024-11-06T16:00:00	2	Temperatura media	17.5
28162	7	Sololá	701	Sololá	3	Barraneche	5	Mayo	2023-05-27T00:00:00	2024-11-06T16:00:00	4	Temperatura máxima	17.9
28163	7	Sololá	701	Sololá	3	Barraneche	5	Mayo	2023-05-27T00:00:00	2024-11-06T16:00:00	3	Temperatura mínima	17
28164	7	Sololá	701	Sololá	3	Barraneche	5	Mayo	2023-05-27T00:00:00	2024-11-06T16:00:00	5	Humedad	62
28165	7	Sololá	701	Sololá	3	Barraneche	5	Mayo	2023-05-27T00:00:00	2024-11-06T16:00:00	6	Velocidad del viento	8
28166	7	Sololá	701	Sololá	3	Barraneche	5	Mayo	2023-05-27T00:00:00	2024-11-06T16:00:00	7	Dirección del viento	8.05
28167	7	Sololá	701	Sololá	3	Barraneche	5	Mayo	2023-05-27T00:00:00	2024-11-06T16:00:00	1	Precipitación	0
28168	7	Sololá	701	Sololá	3	Barraneche	5	Mayo	2023-05-27T00:00:00	2024-11-06T16:00:00	8	Radiación solar	321
28169	7	Sololá	701	Sololá	3	Barraneche	5	Mayo	2023-05-27T00:00:00	2024-11-06T17:00:00	2	Temperatura media	17
28170	7	Sololá	701	Sololá	3	Barraneche	5	Mayo	2023-05-27T00:00:00	2024-11-06T17:00:00	4	Temperatura máxima	17.5
28171	7	Sololá	701	Sololá	3	Barraneche	5	Mayo	2023-05-27T00:00:00	2024-11-06T17:00:00	3	Temperatura mínima	17
28172	7	Sololá	701	Sololá	3	Barraneche	5	Mayo	2023-05-27T00:00:00	2024-11-06T17:00:00	5	Humedad	67
28173	7	Sololá	701	Sololá	3	Barraneche	5	Mayo	2023-05-27T00:00:00	2024-11-06T17:00:00	6	Velocidad del viento	8
28174	7	Sololá	701	Sololá	3	Barraneche	5	Mayo	2023-05-27T00:00:00	2024-11-06T17:00:00	7	Dirección del viento	8.05
28175	7	Sololá	701	Sololá	3	Barraneche	5	Mayo	2023-05-27T00:00:00	2024-11-06T17:00:00	1	Precipitación	0
28176	7	Sololá	701	Sololá	3	Barraneche	5	Mayo	2023-05-27T00:00:00	2024-11-06T17:00:00	8	Radiación solar	215
28177	7	Sololá	701	Sololá	3	Barraneche	5	Mayo	2023-05-27T00:00:00	2024-11-06T18:00:00	2	Temperatura media	15.5
28178	7	Sololá	701	Sololá	3	Barraneche	5	Mayo	2023-05-27T00:00:00	2024-11-06T18:00:00	4	Temperatura máxima	17
28179	7	Sololá	701	Sololá	3	Barraneche	5	Mayo	2023-05-27T00:00:00	2024-11-06T18:00:00	3	Temperatura mínima	15.5
28180	7	Sololá	701	Sololá	3	Barraneche	5	Mayo	2023-05-27T00:00:00	2024-11-06T18:00:00	5	Humedad	74
28181	7	Sololá	701	Sololá	3	Barraneche	5	Mayo	2023-05-27T00:00:00	2024-11-06T18:00:00	6	Velocidad del viento	8
28182	7	Sololá	701	Sololá	3	Barraneche	5	Mayo	2023-05-27T00:00:00	2024-11-06T18:00:00	7	Dirección del viento	8.05
28183	7	Sololá	701	Sololá	3	Barraneche	5	Mayo	2023-05-27T00:00:00	2024-11-06T18:00:00	1	Precipitación	0
28184	7	Sololá	701	Sololá	3	Barraneche	5	Mayo	2023-05-27T00:00:00	2024-11-06T18:00:00	8	Radiación solar	42
28185	7	Sololá	701	Sololá	3	Barraneche	5	Mayo	2023-05-27T00:00:00	2024-11-06T19:00:00	2	Temperatura media	15.3
28186	7	Sololá	701	Sololá	3	Barraneche	5	Mayo	2023-05-27T00:00:00	2024-11-06T19:00:00	4	Temperatura máxima	15.6
28187	7	Sololá	701	Sololá	3	Barraneche	5	Mayo	2023-05-27T00:00:00	2024-11-06T19:00:00	3	Temperatura mínima	15.3
28188	7	Sololá	701	Sololá	3	Barraneche	5	Mayo	2023-05-27T00:00:00	2024-11-06T19:00:00	5	Humedad	75
28189	7	Sololá	701	Sololá	3	Barraneche	5	Mayo	2023-05-27T00:00:00	2024-11-06T19:00:00	6	Velocidad del viento	3.2
28190	7	Sololá	701	Sololá	3	Barraneche	5	Mayo	2023-05-27T00:00:00	2024-11-06T19:00:00	7	Dirección del viento	3.22
28191	7	Sololá	701	Sololá	3	Barraneche	5	Mayo	2023-05-27T00:00:00	2024-11-06T19:00:00	1	Precipitación	0
28192	7	Sololá	701	Sololá	3	Barraneche	5	Mayo	2023-05-27T00:00:00	2024-11-06T19:00:00	8	Radiación solar	0
28193	7	Sololá	701	Sololá	3	Barraneche	5	Mayo	2023-05-27T00:00:00	2024-11-06T20:00:00	2	Temperatura media	14.7
28194	7	Sololá	701	Sololá	3	Barraneche	5	Mayo	2023-05-27T00:00:00	2024-11-06T20:00:00	4	Temperatura máxima	15.4
28195	7	Sololá	701	Sololá	3	Barraneche	5	Mayo	2023-05-27T00:00:00	2024-11-06T20:00:00	3	Temperatura mínima	14.6
28196	7	Sololá	701	Sololá	3	Barraneche	5	Mayo	2023-05-27T00:00:00	2024-11-06T20:00:00	5	Humedad	73
28197	7	Sololá	701	Sololá	3	Barraneche	5	Mayo	2023-05-27T00:00:00	2024-11-06T20:00:00	6	Velocidad del viento	1.6
28198	7	Sololá	701	Sololá	3	Barraneche	5	Mayo	2023-05-27T00:00:00	2024-11-06T20:00:00	7	Dirección del viento	1.61
28199	7	Sololá	701	Sololá	3	Barraneche	5	Mayo	2023-05-27T00:00:00	2024-11-06T20:00:00	1	Precipitación	0
28200	7	Sololá	701	Sololá	3	Barraneche	5	Mayo	2023-05-27T00:00:00	2024-11-06T20:00:00	8	Radiación solar	0
28201	7	Sololá	701	Sololá	3	Barraneche	5	Mayo	2023-05-27T00:00:00	2024-11-06T21:00:00	2	Temperatura media	14.6
28202	7	Sololá	701	Sololá	3	Barraneche	5	Mayo	2023-05-27T00:00:00	2024-11-06T21:00:00	4	Temperatura máxima	15.1
28203	7	Sololá	701	Sololá	3	Barraneche	5	Mayo	2023-05-27T00:00:00	2024-11-06T21:00:00	3	Temperatura mínima	14.5
28204	7	Sololá	701	Sololá	3	Barraneche	5	Mayo	2023-05-27T00:00:00	2024-11-06T21:00:00	5	Humedad	77
28205	7	Sololá	701	Sololá	3	Barraneche	5	Mayo	2023-05-27T00:00:00	2024-11-06T21:00:00	6	Velocidad del viento	1.6
28206	7	Sololá	701	Sololá	3	Barraneche	5	Mayo	2023-05-27T00:00:00	2024-11-06T21:00:00	7	Dirección del viento	1.61
28207	7	Sololá	701	Sololá	3	Barraneche	5	Mayo	2023-05-27T00:00:00	2024-11-06T21:00:00	1	Precipitación	0
28208	7	Sololá	701	Sololá	3	Barraneche	5	Mayo	2023-05-27T00:00:00	2024-11-06T21:00:00	8	Radiación solar	0
28209	7	Sololá	701	Sololá	3	Barraneche	5	Mayo	2023-05-27T00:00:00	2024-11-06T22:00:00	2	Temperatura media	14.2
28210	7	Sololá	701	Sololá	3	Barraneche	5	Mayo	2023-05-27T00:00:00	2024-11-06T22:00:00	4	Temperatura máxima	14.6
28211	7	Sololá	701	Sololá	3	Barraneche	5	Mayo	2023-05-27T00:00:00	2024-11-06T22:00:00	3	Temperatura mínima	14.2
28212	7	Sololá	701	Sololá	3	Barraneche	5	Mayo	2023-05-27T00:00:00	2024-11-06T22:00:00	5	Humedad	84
28213	7	Sololá	701	Sololá	3	Barraneche	5	Mayo	2023-05-27T00:00:00	2024-11-06T22:00:00	6	Velocidad del viento	3.2
28214	7	Sololá	701	Sololá	3	Barraneche	5	Mayo	2023-05-27T00:00:00	2024-11-06T22:00:00	7	Dirección del viento	3.22
28215	7	Sololá	701	Sololá	3	Barraneche	5	Mayo	2023-05-27T00:00:00	2024-11-06T22:00:00	1	Precipitación	0
28216	7	Sololá	701	Sololá	3	Barraneche	5	Mayo	2023-05-27T00:00:00	2024-11-06T22:00:00	8	Radiación solar	0
28217	7	Sololá	701	Sololá	3	Barraneche	5	Mayo	2023-05-27T00:00:00	2024-11-06T23:00:00	2	Temperatura media	13.3
28218	7	Sololá	701	Sololá	3	Barraneche	5	Mayo	2023-05-27T00:00:00	2024-11-06T23:00:00	4	Temperatura máxima	14.2
28219	7	Sololá	701	Sololá	3	Barraneche	5	Mayo	2023-05-27T00:00:00	2024-11-06T23:00:00	3	Temperatura mínima	13.3
28220	7	Sololá	701	Sololá	3	Barraneche	5	Mayo	2023-05-27T00:00:00	2024-11-06T23:00:00	5	Humedad	75
28221	7	Sololá	701	Sololá	3	Barraneche	5	Mayo	2023-05-27T00:00:00	2024-11-06T23:00:00	6	Velocidad del viento	1.6
28222	7	Sololá	701	Sololá	3	Barraneche	5	Mayo	2023-05-27T00:00:00	2024-11-06T23:00:00	7	Dirección del viento	1.61
28223	7	Sololá	701	Sololá	3	Barraneche	5	Mayo	2023-05-27T00:00:00	2024-11-06T23:00:00	1	Precipitación	4
28224	7	Sololá	701	Sololá	3	Barraneche	5	Mayo	2023-05-27T00:00:00	2024-11-06T23:00:00	8	Radiación solar	0
28225	7	Sololá	701	Sololá	3	Barraneche	5	Mayo	2023-05-28T00:00:00	2024-11-06T00:00:00	2	Temperatura media	12.8
28226	7	Sololá	701	Sololá	3	Barraneche	5	Mayo	2023-05-28T00:00:00	2024-11-06T00:00:00	4	Temperatura máxima	13.4
28227	7	Sololá	701	Sololá	3	Barraneche	5	Mayo	2023-05-28T00:00:00	2024-11-06T00:00:00	3	Temperatura mínima	12.8
28228	7	Sololá	701	Sololá	3	Barraneche	5	Mayo	2023-05-28T00:00:00	2024-11-06T00:00:00	5	Humedad	80
28229	7	Sololá	701	Sololá	3	Barraneche	5	Mayo	2023-05-28T00:00:00	2024-11-06T00:00:00	6	Velocidad del viento	1.6
28230	7	Sololá	701	Sololá	3	Barraneche	5	Mayo	2023-05-28T00:00:00	2024-11-06T00:00:00	7	Dirección del viento	1.61
28231	7	Sololá	701	Sololá	3	Barraneche	5	Mayo	2023-05-28T00:00:00	2024-11-06T00:00:00	1	Precipitación	1.4
28232	7	Sololá	701	Sololá	3	Barraneche	5	Mayo	2023-05-28T00:00:00	2024-11-06T00:00:00	8	Radiación solar	0
28233	7	Sololá	701	Sololá	3	Barraneche	5	Mayo	2023-05-28T00:00:00	2024-11-06T01:00:00	2	Temperatura media	12.8
28234	7	Sololá	701	Sololá	3	Barraneche	5	Mayo	2023-05-28T00:00:00	2024-11-06T01:00:00	4	Temperatura máxima	13.1
28235	7	Sololá	701	Sololá	3	Barraneche	5	Mayo	2023-05-28T00:00:00	2024-11-06T01:00:00	3	Temperatura mínima	12.8
28236	7	Sololá	701	Sololá	3	Barraneche	5	Mayo	2023-05-28T00:00:00	2024-11-06T01:00:00	5	Humedad	84
28237	7	Sololá	701	Sololá	3	Barraneche	5	Mayo	2023-05-28T00:00:00	2024-11-06T01:00:00	6	Velocidad del viento	1.6
28238	7	Sololá	701	Sololá	3	Barraneche	5	Mayo	2023-05-28T00:00:00	2024-11-06T01:00:00	7	Dirección del viento	1.61
28239	7	Sololá	701	Sololá	3	Barraneche	5	Mayo	2023-05-28T00:00:00	2024-11-06T01:00:00	1	Precipitación	0.4
28240	7	Sololá	701	Sololá	3	Barraneche	5	Mayo	2023-05-28T00:00:00	2024-11-06T01:00:00	8	Radiación solar	0
28241	7	Sololá	701	Sololá	3	Barraneche	5	Mayo	2023-05-28T00:00:00	2024-11-06T02:00:00	2	Temperatura media	12.7
28242	7	Sololá	701	Sololá	3	Barraneche	5	Mayo	2023-05-28T00:00:00	2024-11-06T02:00:00	4	Temperatura máxima	12.8
28243	7	Sololá	701	Sololá	3	Barraneche	5	Mayo	2023-05-28T00:00:00	2024-11-06T02:00:00	3	Temperatura mínima	12.7
28244	7	Sololá	701	Sololá	3	Barraneche	5	Mayo	2023-05-28T00:00:00	2024-11-06T02:00:00	5	Humedad	84
28245	7	Sololá	701	Sololá	3	Barraneche	5	Mayo	2023-05-28T00:00:00	2024-11-06T02:00:00	6	Velocidad del viento	1.6
28246	7	Sololá	701	Sololá	3	Barraneche	5	Mayo	2023-05-28T00:00:00	2024-11-06T02:00:00	7	Dirección del viento	1.61
28247	7	Sololá	701	Sololá	3	Barraneche	5	Mayo	2023-05-28T00:00:00	2024-11-06T02:00:00	1	Precipitación	0.6
28248	7	Sololá	701	Sololá	3	Barraneche	5	Mayo	2023-05-28T00:00:00	2024-11-06T02:00:00	8	Radiación solar	0
28249	7	Sololá	701	Sololá	3	Barraneche	5	Mayo	2023-05-28T00:00:00	2024-11-06T03:00:00	2	Temperatura media	12.4
28250	7	Sololá	701	Sololá	3	Barraneche	5	Mayo	2023-05-28T00:00:00	2024-11-06T03:00:00	4	Temperatura máxima	12.8
28251	7	Sololá	701	Sololá	3	Barraneche	5	Mayo	2023-05-28T00:00:00	2024-11-06T03:00:00	3	Temperatura mínima	12.4
28252	7	Sololá	701	Sololá	3	Barraneche	5	Mayo	2023-05-28T00:00:00	2024-11-06T03:00:00	5	Humedad	84
28253	7	Sololá	701	Sololá	3	Barraneche	5	Mayo	2023-05-28T00:00:00	2024-11-06T03:00:00	6	Velocidad del viento	1.6
28254	7	Sololá	701	Sololá	3	Barraneche	5	Mayo	2023-05-28T00:00:00	2024-11-06T03:00:00	7	Dirección del viento	1.61
28255	7	Sololá	701	Sololá	3	Barraneche	5	Mayo	2023-05-28T00:00:00	2024-11-06T03:00:00	1	Precipitación	1.4
28256	7	Sololá	701	Sololá	3	Barraneche	5	Mayo	2023-05-28T00:00:00	2024-11-06T03:00:00	8	Radiación solar	0
28257	7	Sololá	701	Sololá	3	Barraneche	5	Mayo	2023-05-28T00:00:00	2024-11-06T04:00:00	2	Temperatura media	12.5
28258	7	Sololá	701	Sololá	3	Barraneche	5	Mayo	2023-05-28T00:00:00	2024-11-06T04:00:00	4	Temperatura máxima	12.6
28259	7	Sololá	701	Sololá	3	Barraneche	5	Mayo	2023-05-28T00:00:00	2024-11-06T04:00:00	3	Temperatura mínima	12.4
28260	7	Sololá	701	Sololá	3	Barraneche	5	Mayo	2023-05-28T00:00:00	2024-11-06T04:00:00	5	Humedad	84
28261	7	Sololá	701	Sololá	3	Barraneche	5	Mayo	2023-05-28T00:00:00	2024-11-06T04:00:00	6	Velocidad del viento	0
28262	7	Sololá	701	Sololá	3	Barraneche	5	Mayo	2023-05-28T00:00:00	2024-11-06T04:00:00	7	Dirección del viento	0
28263	7	Sololá	701	Sololá	3	Barraneche	5	Mayo	2023-05-28T00:00:00	2024-11-06T04:00:00	1	Precipitación	0.4
28264	7	Sololá	701	Sololá	3	Barraneche	5	Mayo	2023-05-28T00:00:00	2024-11-06T04:00:00	8	Radiación solar	0
28265	7	Sololá	701	Sololá	3	Barraneche	5	Mayo	2023-05-28T00:00:00	2024-11-06T05:00:00	2	Temperatura media	12.6
28266	7	Sololá	701	Sololá	3	Barraneche	5	Mayo	2023-05-28T00:00:00	2024-11-06T05:00:00	4	Temperatura máxima	12.7
28267	7	Sololá	701	Sololá	3	Barraneche	5	Mayo	2023-05-28T00:00:00	2024-11-06T05:00:00	3	Temperatura mínima	12.5
28268	7	Sololá	701	Sololá	3	Barraneche	5	Mayo	2023-05-28T00:00:00	2024-11-06T05:00:00	5	Humedad	85
28269	7	Sololá	701	Sololá	3	Barraneche	5	Mayo	2023-05-28T00:00:00	2024-11-06T05:00:00	6	Velocidad del viento	0
28270	7	Sololá	701	Sololá	3	Barraneche	5	Mayo	2023-05-28T00:00:00	2024-11-06T05:00:00	7	Dirección del viento	0
28271	7	Sololá	701	Sololá	3	Barraneche	5	Mayo	2023-05-28T00:00:00	2024-11-06T05:00:00	1	Precipitación	0
28272	7	Sololá	701	Sololá	3	Barraneche	5	Mayo	2023-05-28T00:00:00	2024-11-06T05:00:00	8	Radiación solar	0
28273	7	Sololá	701	Sololá	3	Barraneche	5	Mayo	2023-05-28T00:00:00	2024-11-06T06:00:00	2	Temperatura media	12.6
28274	7	Sololá	701	Sololá	3	Barraneche	5	Mayo	2023-05-28T00:00:00	2024-11-06T06:00:00	4	Temperatura máxima	12.8
28275	7	Sololá	701	Sololá	3	Barraneche	5	Mayo	2023-05-28T00:00:00	2024-11-06T06:00:00	3	Temperatura mínima	12.6
28276	7	Sololá	701	Sololá	3	Barraneche	5	Mayo	2023-05-28T00:00:00	2024-11-06T06:00:00	5	Humedad	85
28277	7	Sololá	701	Sololá	3	Barraneche	5	Mayo	2023-05-28T00:00:00	2024-11-06T06:00:00	6	Velocidad del viento	0
28278	7	Sololá	701	Sololá	3	Barraneche	5	Mayo	2023-05-28T00:00:00	2024-11-06T06:00:00	7	Dirección del viento	0
28279	7	Sololá	701	Sololá	3	Barraneche	5	Mayo	2023-05-28T00:00:00	2024-11-06T06:00:00	1	Precipitación	0.2
28280	7	Sololá	701	Sololá	3	Barraneche	5	Mayo	2023-05-28T00:00:00	2024-11-06T06:00:00	8	Radiación solar	0
28281	7	Sololá	701	Sololá	3	Barraneche	5	Mayo	2023-05-28T00:00:00	2024-11-06T07:00:00	2	Temperatura media	12.8
28282	7	Sololá	701	Sololá	3	Barraneche	5	Mayo	2023-05-28T00:00:00	2024-11-06T07:00:00	4	Temperatura máxima	12.8
28283	7	Sololá	701	Sololá	3	Barraneche	5	Mayo	2023-05-28T00:00:00	2024-11-06T07:00:00	3	Temperatura mínima	12.5
28284	7	Sololá	701	Sololá	3	Barraneche	5	Mayo	2023-05-28T00:00:00	2024-11-06T07:00:00	5	Humedad	85
28285	7	Sololá	701	Sololá	3	Barraneche	5	Mayo	2023-05-28T00:00:00	2024-11-06T07:00:00	6	Velocidad del viento	1.6
28286	7	Sololá	701	Sololá	3	Barraneche	5	Mayo	2023-05-28T00:00:00	2024-11-06T07:00:00	7	Dirección del viento	1.61
28287	7	Sololá	701	Sololá	3	Barraneche	5	Mayo	2023-05-28T00:00:00	2024-11-06T07:00:00	1	Precipitación	0.2
28288	7	Sololá	701	Sololá	3	Barraneche	5	Mayo	2023-05-28T00:00:00	2024-11-06T07:00:00	8	Radiación solar	12
28289	7	Sololá	701	Sololá	3	Barraneche	5	Mayo	2023-05-28T00:00:00	2024-11-06T08:00:00	2	Temperatura media	14.4
28290	7	Sololá	701	Sololá	3	Barraneche	5	Mayo	2023-05-28T00:00:00	2024-11-06T08:00:00	4	Temperatura máxima	14.4
28291	7	Sololá	701	Sololá	3	Barraneche	5	Mayo	2023-05-28T00:00:00	2024-11-06T08:00:00	3	Temperatura mínima	12.8
28292	7	Sololá	701	Sololá	3	Barraneche	5	Mayo	2023-05-28T00:00:00	2024-11-06T08:00:00	5	Humedad	75
28293	7	Sololá	701	Sololá	3	Barraneche	5	Mayo	2023-05-28T00:00:00	2024-11-06T08:00:00	6	Velocidad del viento	3.2
28294	7	Sololá	701	Sololá	3	Barraneche	5	Mayo	2023-05-28T00:00:00	2024-11-06T08:00:00	7	Dirección del viento	3.22
28295	7	Sololá	701	Sololá	3	Barraneche	5	Mayo	2023-05-28T00:00:00	2024-11-06T08:00:00	1	Precipitación	0
28296	7	Sololá	701	Sololá	3	Barraneche	5	Mayo	2023-05-28T00:00:00	2024-11-06T08:00:00	8	Radiación solar	209
28297	7	Sololá	701	Sololá	3	Barraneche	5	Mayo	2023-05-28T00:00:00	2024-11-06T09:00:00	2	Temperatura media	14.9
28298	7	Sololá	701	Sololá	3	Barraneche	5	Mayo	2023-05-28T00:00:00	2024-11-06T09:00:00	4	Temperatura máxima	15.6
28299	7	Sololá	701	Sololá	3	Barraneche	5	Mayo	2023-05-28T00:00:00	2024-11-06T09:00:00	3	Temperatura mínima	14.4
28300	7	Sololá	701	Sololá	3	Barraneche	5	Mayo	2023-05-28T00:00:00	2024-11-06T09:00:00	5	Humedad	74
28301	7	Sololá	701	Sololá	3	Barraneche	5	Mayo	2023-05-28T00:00:00	2024-11-06T09:00:00	6	Velocidad del viento	6.4
28302	7	Sololá	701	Sololá	3	Barraneche	5	Mayo	2023-05-28T00:00:00	2024-11-06T09:00:00	7	Dirección del viento	6.44
28303	7	Sololá	701	Sololá	3	Barraneche	5	Mayo	2023-05-28T00:00:00	2024-11-06T09:00:00	1	Precipitación	0
28304	7	Sololá	701	Sololá	3	Barraneche	5	Mayo	2023-05-28T00:00:00	2024-11-06T09:00:00	8	Radiación solar	429
28305	7	Sololá	701	Sololá	3	Barraneche	5	Mayo	2023-05-28T00:00:00	2024-11-06T10:00:00	2	Temperatura media	15.3
28306	7	Sololá	701	Sololá	3	Barraneche	5	Mayo	2023-05-28T00:00:00	2024-11-06T10:00:00	4	Temperatura máxima	15.3
28307	7	Sololá	701	Sololá	3	Barraneche	5	Mayo	2023-05-28T00:00:00	2024-11-06T10:00:00	3	Temperatura mínima	14.7
28308	7	Sololá	701	Sololá	3	Barraneche	5	Mayo	2023-05-28T00:00:00	2024-11-06T10:00:00	5	Humedad	73
28309	7	Sololá	701	Sololá	3	Barraneche	5	Mayo	2023-05-28T00:00:00	2024-11-06T10:00:00	6	Velocidad del viento	8
28310	7	Sololá	701	Sololá	3	Barraneche	5	Mayo	2023-05-28T00:00:00	2024-11-06T10:00:00	7	Dirección del viento	8.05
28311	7	Sololá	701	Sololá	3	Barraneche	5	Mayo	2023-05-28T00:00:00	2024-11-06T10:00:00	1	Precipitación	0
28312	7	Sololá	701	Sololá	3	Barraneche	5	Mayo	2023-05-28T00:00:00	2024-11-06T10:00:00	8	Radiación solar	325
28313	7	Sololá	701	Sololá	3	Barraneche	5	Mayo	2023-05-28T00:00:00	2024-11-06T11:00:00	2	Temperatura media	16.4
28314	7	Sololá	701	Sololá	3	Barraneche	5	Mayo	2023-05-28T00:00:00	2024-11-06T11:00:00	4	Temperatura máxima	16.4
28315	7	Sololá	701	Sololá	3	Barraneche	5	Mayo	2023-05-28T00:00:00	2024-11-06T11:00:00	3	Temperatura mínima	15.3
28316	7	Sololá	701	Sololá	3	Barraneche	5	Mayo	2023-05-28T00:00:00	2024-11-06T11:00:00	5	Humedad	69
28317	7	Sololá	701	Sololá	3	Barraneche	5	Mayo	2023-05-28T00:00:00	2024-11-06T11:00:00	6	Velocidad del viento	6.4
28318	7	Sololá	701	Sololá	3	Barraneche	5	Mayo	2023-05-28T00:00:00	2024-11-06T11:00:00	7	Dirección del viento	6.44
28319	7	Sololá	701	Sololá	3	Barraneche	5	Mayo	2023-05-28T00:00:00	2024-11-06T11:00:00	1	Precipitación	0
28320	7	Sololá	701	Sololá	3	Barraneche	5	Mayo	2023-05-28T00:00:00	2024-11-06T11:00:00	8	Radiación solar	329
28321	7	Sololá	701	Sololá	3	Barraneche	5	Mayo	2023-05-28T00:00:00	2024-11-06T12:00:00	2	Temperatura media	16.2
28322	7	Sololá	701	Sololá	3	Barraneche	5	Mayo	2023-05-28T00:00:00	2024-11-06T12:00:00	4	Temperatura máxima	16.7
28323	7	Sololá	701	Sololá	3	Barraneche	5	Mayo	2023-05-28T00:00:00	2024-11-06T12:00:00	3	Temperatura mínima	16.2
28324	7	Sololá	701	Sololá	3	Barraneche	5	Mayo	2023-05-28T00:00:00	2024-11-06T12:00:00	5	Humedad	71
28325	7	Sololá	701	Sololá	3	Barraneche	5	Mayo	2023-05-28T00:00:00	2024-11-06T12:00:00	6	Velocidad del viento	8
28326	7	Sololá	701	Sololá	3	Barraneche	5	Mayo	2023-05-28T00:00:00	2024-11-06T12:00:00	7	Dirección del viento	8.05
28327	7	Sololá	701	Sololá	3	Barraneche	5	Mayo	2023-05-28T00:00:00	2024-11-06T12:00:00	1	Precipitación	0
28328	7	Sololá	701	Sololá	3	Barraneche	5	Mayo	2023-05-28T00:00:00	2024-11-06T12:00:00	8	Radiación solar	346
28329	7	Sololá	701	Sololá	3	Barraneche	5	Mayo	2023-05-28T00:00:00	2024-11-06T13:00:00	2	Temperatura media	17.1
28330	7	Sololá	701	Sololá	3	Barraneche	5	Mayo	2023-05-28T00:00:00	2024-11-06T13:00:00	4	Temperatura máxima	17.4
28331	7	Sololá	701	Sololá	3	Barraneche	5	Mayo	2023-05-28T00:00:00	2024-11-06T13:00:00	3	Temperatura mínima	16.2
28332	7	Sololá	701	Sololá	3	Barraneche	5	Mayo	2023-05-28T00:00:00	2024-11-06T13:00:00	5	Humedad	71
28333	7	Sololá	701	Sololá	3	Barraneche	5	Mayo	2023-05-28T00:00:00	2024-11-06T13:00:00	6	Velocidad del viento	6.4
28334	7	Sololá	701	Sololá	3	Barraneche	5	Mayo	2023-05-28T00:00:00	2024-11-06T13:00:00	7	Dirección del viento	6.44
28335	7	Sololá	701	Sololá	3	Barraneche	5	Mayo	2023-05-28T00:00:00	2024-11-06T13:00:00	1	Precipitación	0
28336	7	Sololá	701	Sololá	3	Barraneche	5	Mayo	2023-05-28T00:00:00	2024-11-06T13:00:00	8	Radiación solar	477
28337	7	Sololá	701	Sololá	3	Barraneche	5	Mayo	2023-05-28T00:00:00	2024-11-06T14:00:00	2	Temperatura media	16.3
28338	7	Sololá	701	Sololá	3	Barraneche	5	Mayo	2023-05-28T00:00:00	2024-11-06T14:00:00	4	Temperatura máxima	17.1
28339	7	Sololá	701	Sololá	3	Barraneche	5	Mayo	2023-05-28T00:00:00	2024-11-06T14:00:00	3	Temperatura mínima	16.3
28340	7	Sololá	701	Sololá	3	Barraneche	5	Mayo	2023-05-28T00:00:00	2024-11-06T14:00:00	5	Humedad	74
28341	7	Sololá	701	Sololá	3	Barraneche	5	Mayo	2023-05-28T00:00:00	2024-11-06T14:00:00	6	Velocidad del viento	11.3
28342	7	Sololá	701	Sololá	3	Barraneche	5	Mayo	2023-05-28T00:00:00	2024-11-06T14:00:00	7	Dirección del viento	11.27
28343	7	Sololá	701	Sololá	3	Barraneche	5	Mayo	2023-05-28T00:00:00	2024-11-06T14:00:00	1	Precipitación	0
28344	7	Sololá	701	Sololá	3	Barraneche	5	Mayo	2023-05-28T00:00:00	2024-11-06T14:00:00	8	Radiación solar	324
28345	7	Sololá	701	Sololá	3	Barraneche	5	Mayo	2023-05-28T00:00:00	2024-11-06T15:00:00	2	Temperatura media	15.6
28346	7	Sololá	701	Sololá	3	Barraneche	5	Mayo	2023-05-28T00:00:00	2024-11-06T15:00:00	4	Temperatura máxima	16.3
28347	7	Sololá	701	Sololá	3	Barraneche	5	Mayo	2023-05-28T00:00:00	2024-11-06T15:00:00	3	Temperatura mínima	15.4
28348	7	Sololá	701	Sololá	3	Barraneche	5	Mayo	2023-05-28T00:00:00	2024-11-06T15:00:00	5	Humedad	77
28349	7	Sololá	701	Sololá	3	Barraneche	5	Mayo	2023-05-28T00:00:00	2024-11-06T15:00:00	6	Velocidad del viento	8
28350	7	Sololá	701	Sololá	3	Barraneche	5	Mayo	2023-05-28T00:00:00	2024-11-06T15:00:00	7	Dirección del viento	8.05
28351	7	Sololá	701	Sololá	3	Barraneche	5	Mayo	2023-05-28T00:00:00	2024-11-06T15:00:00	1	Precipitación	0
28352	7	Sololá	701	Sololá	3	Barraneche	5	Mayo	2023-05-28T00:00:00	2024-11-06T15:00:00	8	Radiación solar	154
28353	7	Sololá	701	Sololá	3	Barraneche	5	Mayo	2023-05-28T00:00:00	2024-11-06T16:00:00	2	Temperatura media	15.1
28354	7	Sololá	701	Sololá	3	Barraneche	5	Mayo	2023-05-28T00:00:00	2024-11-06T16:00:00	4	Temperatura máxima	15.6
28355	7	Sololá	701	Sololá	3	Barraneche	5	Mayo	2023-05-28T00:00:00	2024-11-06T16:00:00	3	Temperatura mínima	15
28356	7	Sololá	701	Sololá	3	Barraneche	5	Mayo	2023-05-28T00:00:00	2024-11-06T16:00:00	5	Humedad	78
28357	7	Sololá	701	Sololá	3	Barraneche	5	Mayo	2023-05-28T00:00:00	2024-11-06T16:00:00	6	Velocidad del viento	8
28358	7	Sololá	701	Sololá	3	Barraneche	5	Mayo	2023-05-28T00:00:00	2024-11-06T16:00:00	7	Dirección del viento	8.05
28359	7	Sololá	701	Sololá	3	Barraneche	5	Mayo	2023-05-28T00:00:00	2024-11-06T16:00:00	1	Precipitación	0.2
28360	7	Sololá	701	Sololá	3	Barraneche	5	Mayo	2023-05-28T00:00:00	2024-11-06T16:00:00	8	Radiación solar	157
28361	7	Sololá	701	Sololá	3	Barraneche	5	Mayo	2023-05-28T00:00:00	2024-11-06T17:00:00	2	Temperatura media	14.8
28362	7	Sololá	701	Sololá	3	Barraneche	5	Mayo	2023-05-28T00:00:00	2024-11-06T17:00:00	4	Temperatura máxima	15.2
28363	7	Sololá	701	Sololá	3	Barraneche	5	Mayo	2023-05-28T00:00:00	2024-11-06T17:00:00	3	Temperatura mínima	14.8
28364	7	Sololá	701	Sololá	3	Barraneche	5	Mayo	2023-05-28T00:00:00	2024-11-06T17:00:00	5	Humedad	78
28365	7	Sololá	701	Sololá	3	Barraneche	5	Mayo	2023-05-28T00:00:00	2024-11-06T17:00:00	6	Velocidad del viento	4.8
28366	7	Sololá	701	Sololá	3	Barraneche	5	Mayo	2023-05-28T00:00:00	2024-11-06T17:00:00	7	Dirección del viento	4.83
28367	7	Sololá	701	Sololá	3	Barraneche	5	Mayo	2023-05-28T00:00:00	2024-11-06T17:00:00	1	Precipitación	0
28368	7	Sololá	701	Sololá	3	Barraneche	5	Mayo	2023-05-28T00:00:00	2024-11-06T17:00:00	8	Radiación solar	70
28369	7	Sololá	701	Sololá	3	Barraneche	5	Mayo	2023-05-28T00:00:00	2024-11-06T18:00:00	2	Temperatura media	15
28370	7	Sololá	701	Sololá	3	Barraneche	5	Mayo	2023-05-28T00:00:00	2024-11-06T18:00:00	4	Temperatura máxima	15
28371	7	Sololá	701	Sololá	3	Barraneche	5	Mayo	2023-05-28T00:00:00	2024-11-06T18:00:00	3	Temperatura mínima	14.7
28372	7	Sololá	701	Sololá	3	Barraneche	5	Mayo	2023-05-28T00:00:00	2024-11-06T18:00:00	5	Humedad	78
28373	7	Sololá	701	Sololá	3	Barraneche	5	Mayo	2023-05-28T00:00:00	2024-11-06T18:00:00	6	Velocidad del viento	3.2
28374	7	Sololá	701	Sololá	3	Barraneche	5	Mayo	2023-05-28T00:00:00	2024-11-06T18:00:00	7	Dirección del viento	3.22
28375	7	Sololá	701	Sololá	3	Barraneche	5	Mayo	2023-05-28T00:00:00	2024-11-06T18:00:00	1	Precipitación	0
28376	7	Sololá	701	Sololá	3	Barraneche	5	Mayo	2023-05-28T00:00:00	2024-11-06T18:00:00	8	Radiación solar	36
28377	7	Sololá	701	Sololá	3	Barraneche	5	Mayo	2023-05-28T00:00:00	2024-11-06T19:00:00	2	Temperatura media	14.5
28378	7	Sololá	701	Sololá	3	Barraneche	5	Mayo	2023-05-28T00:00:00	2024-11-06T19:00:00	4	Temperatura máxima	15
28379	7	Sololá	701	Sololá	3	Barraneche	5	Mayo	2023-05-28T00:00:00	2024-11-06T19:00:00	3	Temperatura mínima	14.5
28380	7	Sololá	701	Sololá	3	Barraneche	5	Mayo	2023-05-28T00:00:00	2024-11-06T19:00:00	5	Humedad	80
28381	7	Sololá	701	Sololá	3	Barraneche	5	Mayo	2023-05-28T00:00:00	2024-11-06T19:00:00	6	Velocidad del viento	1.6
28382	7	Sololá	701	Sololá	3	Barraneche	5	Mayo	2023-05-28T00:00:00	2024-11-06T19:00:00	7	Dirección del viento	1.61
28383	7	Sololá	701	Sololá	3	Barraneche	5	Mayo	2023-05-28T00:00:00	2024-11-06T19:00:00	1	Precipitación	0
28384	7	Sololá	701	Sololá	3	Barraneche	5	Mayo	2023-05-28T00:00:00	2024-11-06T19:00:00	8	Radiación solar	0
28385	7	Sololá	701	Sololá	3	Barraneche	5	Mayo	2023-05-28T00:00:00	2024-11-06T20:00:00	2	Temperatura media	14.4
28386	7	Sololá	701	Sololá	3	Barraneche	5	Mayo	2023-05-28T00:00:00	2024-11-06T20:00:00	4	Temperatura máxima	14.6
28387	7	Sololá	701	Sololá	3	Barraneche	5	Mayo	2023-05-28T00:00:00	2024-11-06T20:00:00	3	Temperatura mínima	14.3
28388	7	Sololá	701	Sololá	3	Barraneche	5	Mayo	2023-05-28T00:00:00	2024-11-06T20:00:00	5	Humedad	80
28389	7	Sololá	701	Sololá	3	Barraneche	5	Mayo	2023-05-28T00:00:00	2024-11-06T20:00:00	6	Velocidad del viento	1.6
28390	7	Sololá	701	Sololá	3	Barraneche	5	Mayo	2023-05-28T00:00:00	2024-11-06T20:00:00	7	Dirección del viento	1.61
28391	7	Sololá	701	Sololá	3	Barraneche	5	Mayo	2023-05-28T00:00:00	2024-11-06T20:00:00	1	Precipitación	0
28392	7	Sololá	701	Sololá	3	Barraneche	5	Mayo	2023-05-28T00:00:00	2024-11-06T20:00:00	8	Radiación solar	0
28393	7	Sololá	701	Sololá	3	Barraneche	5	Mayo	2023-05-28T00:00:00	2024-11-06T21:00:00	2	Temperatura media	14.1
28394	7	Sololá	701	Sololá	3	Barraneche	5	Mayo	2023-05-28T00:00:00	2024-11-06T21:00:00	4	Temperatura máxima	14.4
28395	7	Sololá	701	Sololá	3	Barraneche	5	Mayo	2023-05-28T00:00:00	2024-11-06T21:00:00	3	Temperatura mínima	14.1
28396	7	Sololá	701	Sololá	3	Barraneche	5	Mayo	2023-05-28T00:00:00	2024-11-06T21:00:00	5	Humedad	78
28397	7	Sololá	701	Sololá	3	Barraneche	5	Mayo	2023-05-28T00:00:00	2024-11-06T21:00:00	6	Velocidad del viento	1.6
28398	7	Sololá	701	Sololá	3	Barraneche	5	Mayo	2023-05-28T00:00:00	2024-11-06T21:00:00	7	Dirección del viento	1.61
28399	7	Sololá	701	Sololá	3	Barraneche	5	Mayo	2023-05-28T00:00:00	2024-11-06T21:00:00	1	Precipitación	0
28400	7	Sololá	701	Sololá	3	Barraneche	5	Mayo	2023-05-28T00:00:00	2024-11-06T21:00:00	8	Radiación solar	0
28401	7	Sololá	701	Sololá	3	Barraneche	5	Mayo	2023-05-28T00:00:00	2024-11-06T22:00:00	2	Temperatura media	14.2
28402	7	Sololá	701	Sololá	3	Barraneche	5	Mayo	2023-05-28T00:00:00	2024-11-06T22:00:00	4	Temperatura máxima	14.2
28403	7	Sololá	701	Sololá	3	Barraneche	5	Mayo	2023-05-28T00:00:00	2024-11-06T22:00:00	3	Temperatura mínima	13.8
28404	7	Sololá	701	Sololá	3	Barraneche	5	Mayo	2023-05-28T00:00:00	2024-11-06T22:00:00	5	Humedad	77
28405	7	Sololá	701	Sololá	3	Barraneche	5	Mayo	2023-05-28T00:00:00	2024-11-06T22:00:00	6	Velocidad del viento	1.6
28406	7	Sololá	701	Sololá	3	Barraneche	5	Mayo	2023-05-28T00:00:00	2024-11-06T22:00:00	7	Dirección del viento	1.61
28407	7	Sololá	701	Sololá	3	Barraneche	5	Mayo	2023-05-28T00:00:00	2024-11-06T22:00:00	1	Precipitación	0
28408	7	Sololá	701	Sololá	3	Barraneche	5	Mayo	2023-05-28T00:00:00	2024-11-06T22:00:00	8	Radiación solar	0
28409	7	Sololá	701	Sololá	3	Barraneche	5	Mayo	2023-05-28T00:00:00	2024-11-06T23:00:00	2	Temperatura media	14.4
28410	7	Sololá	701	Sololá	3	Barraneche	5	Mayo	2023-05-28T00:00:00	2024-11-06T23:00:00	4	Temperatura máxima	14.4
28411	7	Sololá	701	Sololá	3	Barraneche	5	Mayo	2023-05-28T00:00:00	2024-11-06T23:00:00	3	Temperatura mínima	14.2
28412	7	Sololá	701	Sololá	3	Barraneche	5	Mayo	2023-05-28T00:00:00	2024-11-06T23:00:00	5	Humedad	77
28413	7	Sololá	701	Sololá	3	Barraneche	5	Mayo	2023-05-28T00:00:00	2024-11-06T23:00:00	6	Velocidad del viento	1.6
28414	7	Sololá	701	Sololá	3	Barraneche	5	Mayo	2023-05-28T00:00:00	2024-11-06T23:00:00	7	Dirección del viento	1.61
28415	7	Sololá	701	Sololá	3	Barraneche	5	Mayo	2023-05-28T00:00:00	2024-11-06T23:00:00	1	Precipitación	0
28416	7	Sololá	701	Sololá	3	Barraneche	5	Mayo	2023-05-28T00:00:00	2024-11-06T23:00:00	8	Radiación solar	0
28417	7	Sololá	701	Sololá	3	Barraneche	5	Mayo	2023-05-29T00:00:00	2024-11-06T00:00:00	2	Temperatura media	14
28418	7	Sololá	701	Sololá	3	Barraneche	5	Mayo	2023-05-29T00:00:00	2024-11-06T00:00:00	4	Temperatura máxima	14.4
28419	7	Sololá	701	Sololá	3	Barraneche	5	Mayo	2023-05-29T00:00:00	2024-11-06T00:00:00	3	Temperatura mínima	14
28420	7	Sololá	701	Sololá	3	Barraneche	5	Mayo	2023-05-29T00:00:00	2024-11-06T00:00:00	5	Humedad	84
28421	7	Sololá	701	Sololá	3	Barraneche	5	Mayo	2023-05-29T00:00:00	2024-11-06T00:00:00	6	Velocidad del viento	1.6
28422	7	Sololá	701	Sololá	3	Barraneche	5	Mayo	2023-05-29T00:00:00	2024-11-06T00:00:00	7	Dirección del viento	1.61
28423	7	Sololá	701	Sololá	3	Barraneche	5	Mayo	2023-05-29T00:00:00	2024-11-06T00:00:00	1	Precipitación	0
28424	7	Sololá	701	Sololá	3	Barraneche	5	Mayo	2023-05-29T00:00:00	2024-11-06T00:00:00	8	Radiación solar	0
28425	7	Sololá	701	Sololá	3	Barraneche	5	Mayo	2023-05-29T00:00:00	2024-11-06T01:00:00	2	Temperatura media	13.8
28426	7	Sololá	701	Sololá	3	Barraneche	5	Mayo	2023-05-29T00:00:00	2024-11-06T01:00:00	4	Temperatura máxima	14.1
28427	7	Sololá	701	Sololá	3	Barraneche	5	Mayo	2023-05-29T00:00:00	2024-11-06T01:00:00	3	Temperatura mínima	13.8
28428	7	Sololá	701	Sololá	3	Barraneche	5	Mayo	2023-05-29T00:00:00	2024-11-06T01:00:00	5	Humedad	84
28429	7	Sololá	701	Sololá	3	Barraneche	5	Mayo	2023-05-29T00:00:00	2024-11-06T01:00:00	6	Velocidad del viento	1.6
28430	7	Sololá	701	Sololá	3	Barraneche	5	Mayo	2023-05-29T00:00:00	2024-11-06T01:00:00	7	Dirección del viento	1.61
28431	7	Sololá	701	Sololá	3	Barraneche	5	Mayo	2023-05-29T00:00:00	2024-11-06T01:00:00	1	Precipitación	2.8
28432	7	Sololá	701	Sololá	3	Barraneche	5	Mayo	2023-05-29T00:00:00	2024-11-06T01:00:00	8	Radiación solar	0
28433	7	Sololá	701	Sololá	3	Barraneche	5	Mayo	2023-05-29T00:00:00	2024-11-06T02:00:00	2	Temperatura media	12.8
28434	7	Sololá	701	Sololá	3	Barraneche	5	Mayo	2023-05-29T00:00:00	2024-11-06T02:00:00	4	Temperatura máxima	13.8
28435	7	Sololá	701	Sololá	3	Barraneche	5	Mayo	2023-05-29T00:00:00	2024-11-06T02:00:00	3	Temperatura mínima	12.7
28436	7	Sololá	701	Sololá	3	Barraneche	5	Mayo	2023-05-29T00:00:00	2024-11-06T02:00:00	5	Humedad	83
28437	7	Sololá	701	Sololá	3	Barraneche	5	Mayo	2023-05-29T00:00:00	2024-11-06T02:00:00	6	Velocidad del viento	1.6
28438	7	Sololá	701	Sololá	3	Barraneche	5	Mayo	2023-05-29T00:00:00	2024-11-06T02:00:00	7	Dirección del viento	1.61
28439	7	Sololá	701	Sololá	3	Barraneche	5	Mayo	2023-05-29T00:00:00	2024-11-06T02:00:00	1	Precipitación	0.2
28440	7	Sololá	701	Sololá	3	Barraneche	5	Mayo	2023-05-29T00:00:00	2024-11-06T02:00:00	8	Radiación solar	0
28441	7	Sololá	701	Sololá	3	Barraneche	5	Mayo	2023-05-29T00:00:00	2024-11-06T03:00:00	2	Temperatura media	12.8
28442	7	Sololá	701	Sololá	3	Barraneche	5	Mayo	2023-05-29T00:00:00	2024-11-06T03:00:00	4	Temperatura máxima	12.9
28443	7	Sololá	701	Sololá	3	Barraneche	5	Mayo	2023-05-29T00:00:00	2024-11-06T03:00:00	3	Temperatura mínima	12.7
28444	7	Sololá	701	Sololá	3	Barraneche	5	Mayo	2023-05-29T00:00:00	2024-11-06T03:00:00	5	Humedad	82
28445	7	Sololá	701	Sololá	3	Barraneche	5	Mayo	2023-05-29T00:00:00	2024-11-06T03:00:00	6	Velocidad del viento	3.2
28446	7	Sololá	701	Sololá	3	Barraneche	5	Mayo	2023-05-29T00:00:00	2024-11-06T03:00:00	7	Dirección del viento	3.22
28447	7	Sololá	701	Sololá	3	Barraneche	5	Mayo	2023-05-29T00:00:00	2024-11-06T03:00:00	1	Precipitación	1.2
28448	7	Sololá	701	Sololá	3	Barraneche	5	Mayo	2023-05-29T00:00:00	2024-11-06T03:00:00	8	Radiación solar	0
28449	7	Sololá	701	Sololá	3	Barraneche	5	Mayo	2023-05-29T00:00:00	2024-11-06T04:00:00	2	Temperatura media	12.9
28450	7	Sololá	701	Sololá	3	Barraneche	5	Mayo	2023-05-29T00:00:00	2024-11-06T04:00:00	4	Temperatura máxima	13
28451	7	Sololá	701	Sololá	3	Barraneche	5	Mayo	2023-05-29T00:00:00	2024-11-06T04:00:00	3	Temperatura mínima	12.8
28452	7	Sololá	701	Sololá	3	Barraneche	5	Mayo	2023-05-29T00:00:00	2024-11-06T04:00:00	5	Humedad	84
28453	7	Sololá	701	Sololá	3	Barraneche	5	Mayo	2023-05-29T00:00:00	2024-11-06T04:00:00	6	Velocidad del viento	0
28454	7	Sololá	701	Sololá	3	Barraneche	5	Mayo	2023-05-29T00:00:00	2024-11-06T04:00:00	7	Dirección del viento	0
28455	7	Sololá	701	Sololá	3	Barraneche	5	Mayo	2023-05-29T00:00:00	2024-11-06T04:00:00	1	Precipitación	0.8
28456	7	Sololá	701	Sololá	3	Barraneche	5	Mayo	2023-05-29T00:00:00	2024-11-06T04:00:00	8	Radiación solar	0
28457	7	Sololá	701	Sololá	3	Barraneche	5	Mayo	2023-05-29T00:00:00	2024-11-06T05:00:00	2	Temperatura media	12.6
28458	7	Sololá	701	Sololá	3	Barraneche	5	Mayo	2023-05-29T00:00:00	2024-11-06T05:00:00	4	Temperatura máxima	13
28459	7	Sololá	701	Sololá	3	Barraneche	5	Mayo	2023-05-29T00:00:00	2024-11-06T05:00:00	3	Temperatura mínima	12.6
28460	7	Sololá	701	Sololá	3	Barraneche	5	Mayo	2023-05-29T00:00:00	2024-11-06T05:00:00	5	Humedad	84
28461	7	Sololá	701	Sololá	3	Barraneche	5	Mayo	2023-05-29T00:00:00	2024-11-06T05:00:00	6	Velocidad del viento	0
28462	7	Sololá	701	Sololá	3	Barraneche	5	Mayo	2023-05-29T00:00:00	2024-11-06T05:00:00	7	Dirección del viento	0
28463	7	Sololá	701	Sololá	3	Barraneche	5	Mayo	2023-05-29T00:00:00	2024-11-06T05:00:00	1	Precipitación	0
28464	7	Sololá	701	Sololá	3	Barraneche	5	Mayo	2023-05-29T00:00:00	2024-11-06T05:00:00	8	Radiación solar	0
28465	7	Sololá	701	Sololá	3	Barraneche	5	Mayo	2023-05-29T00:00:00	2024-11-06T06:00:00	2	Temperatura media	12.4
28466	7	Sololá	701	Sololá	3	Barraneche	5	Mayo	2023-05-29T00:00:00	2024-11-06T06:00:00	4	Temperatura máxima	12.6
28467	7	Sololá	701	Sololá	3	Barraneche	5	Mayo	2023-05-29T00:00:00	2024-11-06T06:00:00	3	Temperatura mínima	12.1
28468	7	Sololá	701	Sololá	3	Barraneche	5	Mayo	2023-05-29T00:00:00	2024-11-06T06:00:00	5	Humedad	82
28469	7	Sololá	701	Sololá	3	Barraneche	5	Mayo	2023-05-29T00:00:00	2024-11-06T06:00:00	6	Velocidad del viento	3.2
28470	7	Sololá	701	Sololá	3	Barraneche	5	Mayo	2023-05-29T00:00:00	2024-11-06T06:00:00	7	Dirección del viento	3.22
28471	7	Sololá	701	Sololá	3	Barraneche	5	Mayo	2023-05-29T00:00:00	2024-11-06T06:00:00	1	Precipitación	0
28472	7	Sololá	701	Sololá	3	Barraneche	5	Mayo	2023-05-29T00:00:00	2024-11-06T06:00:00	8	Radiación solar	2
28473	7	Sololá	701	Sololá	3	Barraneche	5	Mayo	2023-05-29T00:00:00	2024-11-06T07:00:00	2	Temperatura media	13
28474	7	Sololá	701	Sololá	3	Barraneche	5	Mayo	2023-05-29T00:00:00	2024-11-06T07:00:00	4	Temperatura máxima	13.1
28475	7	Sololá	701	Sololá	3	Barraneche	5	Mayo	2023-05-29T00:00:00	2024-11-06T07:00:00	3	Temperatura mínima	12.3
28476	7	Sololá	701	Sololá	3	Barraneche	5	Mayo	2023-05-29T00:00:00	2024-11-06T07:00:00	5	Humedad	82
28477	7	Sololá	701	Sololá	3	Barraneche	5	Mayo	2023-05-29T00:00:00	2024-11-06T07:00:00	6	Velocidad del viento	3.2
28478	7	Sololá	701	Sololá	3	Barraneche	5	Mayo	2023-05-29T00:00:00	2024-11-06T07:00:00	7	Dirección del viento	3.22
28479	7	Sololá	701	Sololá	3	Barraneche	5	Mayo	2023-05-29T00:00:00	2024-11-06T07:00:00	1	Precipitación	0
28480	7	Sololá	701	Sololá	3	Barraneche	5	Mayo	2023-05-29T00:00:00	2024-11-06T07:00:00	8	Radiación solar	69
28481	7	Sololá	701	Sololá	3	Barraneche	5	Mayo	2023-05-29T00:00:00	2024-11-06T08:00:00	2	Temperatura media	13.7
28482	7	Sololá	701	Sololá	3	Barraneche	5	Mayo	2023-05-29T00:00:00	2024-11-06T08:00:00	4	Temperatura máxima	13.8
28483	7	Sololá	701	Sololá	3	Barraneche	5	Mayo	2023-05-29T00:00:00	2024-11-06T08:00:00	3	Temperatura mínima	13
28484	7	Sololá	701	Sololá	3	Barraneche	5	Mayo	2023-05-29T00:00:00	2024-11-06T08:00:00	5	Humedad	75
28485	7	Sololá	701	Sololá	3	Barraneche	5	Mayo	2023-05-29T00:00:00	2024-11-06T08:00:00	6	Velocidad del viento	3.2
28486	7	Sololá	701	Sololá	3	Barraneche	5	Mayo	2023-05-29T00:00:00	2024-11-06T08:00:00	7	Dirección del viento	3.22
28487	7	Sololá	701	Sololá	3	Barraneche	5	Mayo	2023-05-29T00:00:00	2024-11-06T08:00:00	1	Precipitación	0
28488	7	Sololá	701	Sololá	3	Barraneche	5	Mayo	2023-05-29T00:00:00	2024-11-06T08:00:00	8	Radiación solar	151
28489	7	Sololá	701	Sololá	3	Barraneche	5	Mayo	2023-05-29T00:00:00	2024-11-06T09:00:00	2	Temperatura media	14.1
28490	7	Sololá	701	Sololá	3	Barraneche	5	Mayo	2023-05-29T00:00:00	2024-11-06T09:00:00	4	Temperatura máxima	14.1
28491	7	Sololá	701	Sololá	3	Barraneche	5	Mayo	2023-05-29T00:00:00	2024-11-06T09:00:00	3	Temperatura mínima	13.6
28492	7	Sololá	701	Sololá	3	Barraneche	5	Mayo	2023-05-29T00:00:00	2024-11-06T09:00:00	5	Humedad	75
28493	7	Sololá	701	Sololá	3	Barraneche	5	Mayo	2023-05-29T00:00:00	2024-11-06T09:00:00	6	Velocidad del viento	3.2
28494	7	Sololá	701	Sololá	3	Barraneche	5	Mayo	2023-05-29T00:00:00	2024-11-06T09:00:00	7	Dirección del viento	3.22
28495	7	Sololá	701	Sololá	3	Barraneche	5	Mayo	2023-05-29T00:00:00	2024-11-06T09:00:00	1	Precipitación	0
28496	7	Sololá	701	Sololá	3	Barraneche	5	Mayo	2023-05-29T00:00:00	2024-11-06T09:00:00	8	Radiación solar	201
28497	7	Sololá	701	Sololá	3	Barraneche	5	Mayo	2023-05-29T00:00:00	2024-11-06T10:00:00	2	Temperatura media	15.6
28498	7	Sololá	701	Sololá	3	Barraneche	5	Mayo	2023-05-29T00:00:00	2024-11-06T10:00:00	4	Temperatura máxima	15.6
28499	7	Sololá	701	Sololá	3	Barraneche	5	Mayo	2023-05-29T00:00:00	2024-11-06T10:00:00	3	Temperatura mínima	14.1
28500	7	Sololá	701	Sololá	3	Barraneche	5	Mayo	2023-05-29T00:00:00	2024-11-06T10:00:00	5	Humedad	71
28501	7	Sololá	701	Sololá	3	Barraneche	5	Mayo	2023-05-29T00:00:00	2024-11-06T10:00:00	6	Velocidad del viento	4.8
28502	7	Sololá	701	Sololá	3	Barraneche	5	Mayo	2023-05-29T00:00:00	2024-11-06T10:00:00	7	Dirección del viento	4.83
28503	7	Sololá	701	Sololá	3	Barraneche	5	Mayo	2023-05-29T00:00:00	2024-11-06T10:00:00	1	Precipitación	0
28504	7	Sololá	701	Sololá	3	Barraneche	5	Mayo	2023-05-29T00:00:00	2024-11-06T10:00:00	8	Radiación solar	375
28505	7	Sololá	701	Sololá	3	Barraneche	5	Mayo	2023-05-29T00:00:00	2024-11-06T11:00:00	2	Temperatura media	17.9
28506	7	Sololá	701	Sololá	3	Barraneche	5	Mayo	2023-05-29T00:00:00	2024-11-06T11:00:00	4	Temperatura máxima	17.9
28507	7	Sololá	701	Sololá	3	Barraneche	5	Mayo	2023-05-29T00:00:00	2024-11-06T11:00:00	3	Temperatura mínima	15.6
28508	7	Sololá	701	Sololá	3	Barraneche	5	Mayo	2023-05-29T00:00:00	2024-11-06T11:00:00	5	Humedad	67
28509	7	Sololá	701	Sololá	3	Barraneche	5	Mayo	2023-05-29T00:00:00	2024-11-06T11:00:00	6	Velocidad del viento	4.8
28510	7	Sololá	701	Sololá	3	Barraneche	5	Mayo	2023-05-29T00:00:00	2024-11-06T11:00:00	7	Dirección del viento	4.83
28511	7	Sololá	701	Sololá	3	Barraneche	5	Mayo	2023-05-29T00:00:00	2024-11-06T11:00:00	1	Precipitación	0
28512	7	Sololá	701	Sololá	3	Barraneche	5	Mayo	2023-05-29T00:00:00	2024-11-06T11:00:00	8	Radiación solar	884
28513	7	Sololá	701	Sololá	3	Barraneche	5	Mayo	2023-05-29T00:00:00	2024-11-06T12:00:00	2	Temperatura media	19.1
28514	7	Sololá	701	Sololá	3	Barraneche	5	Mayo	2023-05-29T00:00:00	2024-11-06T12:00:00	4	Temperatura máxima	19.1
28515	7	Sololá	701	Sololá	3	Barraneche	5	Mayo	2023-05-29T00:00:00	2024-11-06T12:00:00	3	Temperatura mínima	17.9
28516	7	Sololá	701	Sololá	3	Barraneche	5	Mayo	2023-05-29T00:00:00	2024-11-06T12:00:00	5	Humedad	61
28517	7	Sololá	701	Sololá	3	Barraneche	5	Mayo	2023-05-29T00:00:00	2024-11-06T12:00:00	6	Velocidad del viento	3.2
28518	7	Sololá	701	Sololá	3	Barraneche	5	Mayo	2023-05-29T00:00:00	2024-11-06T12:00:00	7	Dirección del viento	3.22
28519	7	Sololá	701	Sololá	3	Barraneche	5	Mayo	2023-05-29T00:00:00	2024-11-06T12:00:00	1	Precipitación	0
28520	7	Sololá	701	Sololá	3	Barraneche	5	Mayo	2023-05-29T00:00:00	2024-11-06T12:00:00	8	Radiación solar	417
28521	7	Sololá	701	Sololá	3	Barraneche	5	Mayo	2023-05-29T00:00:00	2024-11-06T13:00:00	2	Temperatura media	18.7
28522	7	Sololá	701	Sololá	3	Barraneche	5	Mayo	2023-05-29T00:00:00	2024-11-06T13:00:00	4	Temperatura máxima	19.6
28523	7	Sololá	701	Sololá	3	Barraneche	5	Mayo	2023-05-29T00:00:00	2024-11-06T13:00:00	3	Temperatura mínima	18.7
28524	7	Sololá	701	Sololá	3	Barraneche	5	Mayo	2023-05-29T00:00:00	2024-11-06T13:00:00	5	Humedad	68
28525	7	Sololá	701	Sololá	3	Barraneche	5	Mayo	2023-05-29T00:00:00	2024-11-06T13:00:00	6	Velocidad del viento	6.4
28526	7	Sololá	701	Sololá	3	Barraneche	5	Mayo	2023-05-29T00:00:00	2024-11-06T13:00:00	7	Dirección del viento	6.44
28527	7	Sololá	701	Sololá	3	Barraneche	5	Mayo	2023-05-29T00:00:00	2024-11-06T13:00:00	1	Precipitación	0
28528	7	Sololá	701	Sololá	3	Barraneche	5	Mayo	2023-05-29T00:00:00	2024-11-06T13:00:00	8	Radiación solar	696
28529	7	Sololá	701	Sololá	3	Barraneche	5	Mayo	2023-05-29T00:00:00	2024-11-06T14:00:00	2	Temperatura media	18.4
28530	7	Sololá	701	Sololá	3	Barraneche	5	Mayo	2023-05-29T00:00:00	2024-11-06T14:00:00	4	Temperatura máxima	18.7
28531	7	Sololá	701	Sololá	3	Barraneche	5	Mayo	2023-05-29T00:00:00	2024-11-06T14:00:00	3	Temperatura mínima	18.1
28532	7	Sololá	701	Sololá	3	Barraneche	5	Mayo	2023-05-29T00:00:00	2024-11-06T14:00:00	5	Humedad	67
28533	7	Sololá	701	Sololá	3	Barraneche	5	Mayo	2023-05-29T00:00:00	2024-11-06T14:00:00	6	Velocidad del viento	8
28534	7	Sololá	701	Sololá	3	Barraneche	5	Mayo	2023-05-29T00:00:00	2024-11-06T14:00:00	7	Dirección del viento	8.05
28535	7	Sololá	701	Sololá	3	Barraneche	5	Mayo	2023-05-29T00:00:00	2024-11-06T14:00:00	1	Precipitación	0
28536	7	Sololá	701	Sololá	3	Barraneche	5	Mayo	2023-05-29T00:00:00	2024-11-06T14:00:00	8	Radiación solar	401
28537	7	Sololá	701	Sololá	3	Barraneche	5	Mayo	2023-05-29T00:00:00	2024-11-06T15:00:00	2	Temperatura media	17.2
28538	7	Sololá	701	Sololá	3	Barraneche	5	Mayo	2023-05-29T00:00:00	2024-11-06T15:00:00	4	Temperatura máxima	18.5
28539	7	Sololá	701	Sololá	3	Barraneche	5	Mayo	2023-05-29T00:00:00	2024-11-06T15:00:00	3	Temperatura mínima	17.2
28540	7	Sololá	701	Sololá	3	Barraneche	5	Mayo	2023-05-29T00:00:00	2024-11-06T15:00:00	5	Humedad	72
28541	7	Sololá	701	Sololá	3	Barraneche	5	Mayo	2023-05-29T00:00:00	2024-11-06T15:00:00	6	Velocidad del viento	6.4
28542	7	Sololá	701	Sololá	3	Barraneche	5	Mayo	2023-05-29T00:00:00	2024-11-06T15:00:00	7	Dirección del viento	6.44
28543	7	Sololá	701	Sololá	3	Barraneche	5	Mayo	2023-05-29T00:00:00	2024-11-06T15:00:00	1	Precipitación	0
28544	7	Sololá	701	Sololá	3	Barraneche	5	Mayo	2023-05-29T00:00:00	2024-11-06T15:00:00	8	Radiación solar	269
28545	7	Sololá	701	Sololá	3	Barraneche	5	Mayo	2023-05-29T00:00:00	2024-11-06T16:00:00	2	Temperatura media	16.1
28546	7	Sololá	701	Sololá	3	Barraneche	5	Mayo	2023-05-29T00:00:00	2024-11-06T16:00:00	4	Temperatura máxima	17.5
28547	7	Sololá	701	Sololá	3	Barraneche	5	Mayo	2023-05-29T00:00:00	2024-11-06T16:00:00	3	Temperatura mínima	16.1
28548	7	Sololá	701	Sololá	3	Barraneche	5	Mayo	2023-05-29T00:00:00	2024-11-06T16:00:00	5	Humedad	76
28549	7	Sololá	701	Sololá	3	Barraneche	5	Mayo	2023-05-29T00:00:00	2024-11-06T16:00:00	6	Velocidad del viento	6.4
28550	7	Sololá	701	Sololá	3	Barraneche	5	Mayo	2023-05-29T00:00:00	2024-11-06T16:00:00	7	Dirección del viento	6.44
28551	7	Sololá	701	Sololá	3	Barraneche	5	Mayo	2023-05-29T00:00:00	2024-11-06T16:00:00	1	Precipitación	2.2
28552	7	Sololá	701	Sololá	3	Barraneche	5	Mayo	2023-05-29T00:00:00	2024-11-06T16:00:00	8	Radiación solar	166
28553	7	Sololá	701	Sololá	3	Barraneche	5	Mayo	2023-05-29T00:00:00	2024-11-06T17:00:00	2	Temperatura media	13.7
28554	7	Sololá	701	Sololá	3	Barraneche	5	Mayo	2023-05-29T00:00:00	2024-11-06T17:00:00	4	Temperatura máxima	16.1
28555	7	Sololá	701	Sololá	3	Barraneche	5	Mayo	2023-05-29T00:00:00	2024-11-06T17:00:00	3	Temperatura mínima	13.5
28556	7	Sololá	701	Sololá	3	Barraneche	5	Mayo	2023-05-29T00:00:00	2024-11-06T17:00:00	5	Humedad	74
28557	7	Sololá	701	Sololá	3	Barraneche	5	Mayo	2023-05-29T00:00:00	2024-11-06T17:00:00	6	Velocidad del viento	9.7
28558	7	Sololá	701	Sololá	3	Barraneche	5	Mayo	2023-05-29T00:00:00	2024-11-06T17:00:00	7	Dirección del viento	9.66
28559	7	Sololá	701	Sololá	3	Barraneche	5	Mayo	2023-05-29T00:00:00	2024-11-06T17:00:00	1	Precipitación	14.6
28560	7	Sololá	701	Sololá	3	Barraneche	5	Mayo	2023-05-29T00:00:00	2024-11-06T17:00:00	8	Radiación solar	50
28561	7	Sololá	701	Sololá	3	Barraneche	5	Mayo	2023-05-29T00:00:00	2024-11-06T18:00:00	2	Temperatura media	14
28562	7	Sololá	701	Sololá	3	Barraneche	5	Mayo	2023-05-29T00:00:00	2024-11-06T18:00:00	4	Temperatura máxima	14.3
28563	7	Sololá	701	Sololá	3	Barraneche	5	Mayo	2023-05-29T00:00:00	2024-11-06T18:00:00	3	Temperatura mínima	13.8
28564	7	Sololá	701	Sololá	3	Barraneche	5	Mayo	2023-05-29T00:00:00	2024-11-06T18:00:00	5	Humedad	74
28565	7	Sololá	701	Sololá	3	Barraneche	5	Mayo	2023-05-29T00:00:00	2024-11-06T18:00:00	6	Velocidad del viento	4.8
28566	7	Sololá	701	Sololá	3	Barraneche	5	Mayo	2023-05-29T00:00:00	2024-11-06T18:00:00	7	Dirección del viento	4.83
28567	7	Sololá	701	Sololá	3	Barraneche	5	Mayo	2023-05-29T00:00:00	2024-11-06T18:00:00	1	Precipitación	0
28568	7	Sololá	701	Sololá	3	Barraneche	5	Mayo	2023-05-29T00:00:00	2024-11-06T18:00:00	8	Radiación solar	140
28569	7	Sololá	701	Sololá	3	Barraneche	5	Mayo	2023-05-29T00:00:00	2024-11-06T19:00:00	2	Temperatura media	13.1
28570	7	Sololá	701	Sololá	3	Barraneche	5	Mayo	2023-05-29T00:00:00	2024-11-06T19:00:00	4	Temperatura máxima	14
28571	7	Sololá	701	Sololá	3	Barraneche	5	Mayo	2023-05-29T00:00:00	2024-11-06T19:00:00	3	Temperatura mínima	12.9
28572	7	Sololá	701	Sololá	3	Barraneche	5	Mayo	2023-05-29T00:00:00	2024-11-06T19:00:00	5	Humedad	76
28573	7	Sololá	701	Sololá	3	Barraneche	5	Mayo	2023-05-29T00:00:00	2024-11-06T19:00:00	6	Velocidad del viento	6.4
28574	7	Sololá	701	Sololá	3	Barraneche	5	Mayo	2023-05-29T00:00:00	2024-11-06T19:00:00	7	Dirección del viento	6.44
28575	7	Sololá	701	Sololá	3	Barraneche	5	Mayo	2023-05-29T00:00:00	2024-11-06T19:00:00	1	Precipitación	0
28576	7	Sololá	701	Sololá	3	Barraneche	5	Mayo	2023-05-29T00:00:00	2024-11-06T19:00:00	8	Radiación solar	0
28577	7	Sololá	701	Sololá	3	Barraneche	5	Mayo	2023-05-29T00:00:00	2024-11-06T20:00:00	2	Temperatura media	13
28578	7	Sololá	701	Sololá	3	Barraneche	5	Mayo	2023-05-29T00:00:00	2024-11-06T20:00:00	4	Temperatura máxima	13.2
28579	7	Sololá	701	Sololá	3	Barraneche	5	Mayo	2023-05-29T00:00:00	2024-11-06T20:00:00	3	Temperatura mínima	12.7
28580	7	Sololá	701	Sololá	3	Barraneche	5	Mayo	2023-05-29T00:00:00	2024-11-06T20:00:00	5	Humedad	74
28581	7	Sololá	701	Sololá	3	Barraneche	5	Mayo	2023-05-29T00:00:00	2024-11-06T20:00:00	6	Velocidad del viento	3.2
28582	7	Sololá	701	Sololá	3	Barraneche	5	Mayo	2023-05-29T00:00:00	2024-11-06T20:00:00	7	Dirección del viento	3.22
28583	7	Sololá	701	Sololá	3	Barraneche	5	Mayo	2023-05-29T00:00:00	2024-11-06T20:00:00	1	Precipitación	0
28584	7	Sololá	701	Sololá	3	Barraneche	5	Mayo	2023-05-29T00:00:00	2024-11-06T20:00:00	8	Radiación solar	0
28585	7	Sololá	701	Sololá	3	Barraneche	5	Mayo	2023-05-29T00:00:00	2024-11-06T21:00:00	2	Temperatura media	12.3
28586	7	Sololá	701	Sololá	3	Barraneche	5	Mayo	2023-05-29T00:00:00	2024-11-06T21:00:00	4	Temperatura máxima	13.7
28587	7	Sololá	701	Sololá	3	Barraneche	5	Mayo	2023-05-29T00:00:00	2024-11-06T21:00:00	3	Temperatura mínima	12.3
28588	7	Sololá	701	Sololá	3	Barraneche	5	Mayo	2023-05-29T00:00:00	2024-11-06T21:00:00	5	Humedad	75
28589	7	Sololá	701	Sololá	3	Barraneche	5	Mayo	2023-05-29T00:00:00	2024-11-06T21:00:00	6	Velocidad del viento	3.2
28590	7	Sololá	701	Sololá	3	Barraneche	5	Mayo	2023-05-29T00:00:00	2024-11-06T21:00:00	7	Dirección del viento	3.22
28591	7	Sololá	701	Sololá	3	Barraneche	5	Mayo	2023-05-29T00:00:00	2024-11-06T21:00:00	1	Precipitación	0
28592	7	Sololá	701	Sololá	3	Barraneche	5	Mayo	2023-05-29T00:00:00	2024-11-06T21:00:00	8	Radiación solar	0
28593	7	Sololá	701	Sololá	3	Barraneche	5	Mayo	2023-05-29T00:00:00	2024-11-06T22:00:00	2	Temperatura media	11.9
28594	7	Sololá	701	Sololá	3	Barraneche	5	Mayo	2023-05-29T00:00:00	2024-11-06T22:00:00	4	Temperatura máxima	12.8
28595	7	Sololá	701	Sololá	3	Barraneche	5	Mayo	2023-05-29T00:00:00	2024-11-06T22:00:00	3	Temperatura mínima	11.9
28596	7	Sololá	701	Sololá	3	Barraneche	5	Mayo	2023-05-29T00:00:00	2024-11-06T22:00:00	5	Humedad	75
28597	7	Sololá	701	Sololá	3	Barraneche	5	Mayo	2023-05-29T00:00:00	2024-11-06T22:00:00	6	Velocidad del viento	6.4
28598	7	Sololá	701	Sololá	3	Barraneche	5	Mayo	2023-05-29T00:00:00	2024-11-06T22:00:00	7	Dirección del viento	6.44
28599	7	Sololá	701	Sololá	3	Barraneche	5	Mayo	2023-05-29T00:00:00	2024-11-06T22:00:00	1	Precipitación	0
28600	7	Sololá	701	Sololá	3	Barraneche	5	Mayo	2023-05-29T00:00:00	2024-11-06T22:00:00	8	Radiación solar	0
28601	7	Sololá	701	Sololá	3	Barraneche	5	Mayo	2023-05-29T00:00:00	2024-11-06T23:00:00	2	Temperatura media	11.6
28602	7	Sololá	701	Sololá	3	Barraneche	5	Mayo	2023-05-29T00:00:00	2024-11-06T23:00:00	4	Temperatura máxima	12
28603	7	Sololá	701	Sololá	3	Barraneche	5	Mayo	2023-05-29T00:00:00	2024-11-06T23:00:00	3	Temperatura mínima	11.6
28604	7	Sololá	701	Sololá	3	Barraneche	5	Mayo	2023-05-29T00:00:00	2024-11-06T23:00:00	5	Humedad	75
28605	7	Sololá	701	Sololá	3	Barraneche	5	Mayo	2023-05-29T00:00:00	2024-11-06T23:00:00	6	Velocidad del viento	6.4
28606	7	Sololá	701	Sololá	3	Barraneche	5	Mayo	2023-05-29T00:00:00	2024-11-06T23:00:00	7	Dirección del viento	6.44
28607	7	Sololá	701	Sololá	3	Barraneche	5	Mayo	2023-05-29T00:00:00	2024-11-06T23:00:00	1	Precipitación	0
28608	7	Sololá	701	Sololá	3	Barraneche	5	Mayo	2023-05-29T00:00:00	2024-11-06T23:00:00	8	Radiación solar	0
28609	7	Sololá	701	Sololá	3	Barraneche	5	Mayo	2023-05-30T00:00:00	2024-11-06T00:00:00	2	Temperatura media	12
28610	7	Sololá	701	Sololá	3	Barraneche	5	Mayo	2023-05-30T00:00:00	2024-11-06T00:00:00	4	Temperatura máxima	12
28611	7	Sololá	701	Sololá	3	Barraneche	5	Mayo	2023-05-30T00:00:00	2024-11-06T00:00:00	3	Temperatura mínima	11.4
28612	7	Sololá	701	Sololá	3	Barraneche	5	Mayo	2023-05-30T00:00:00	2024-11-06T00:00:00	5	Humedad	75
28613	7	Sololá	701	Sololá	3	Barraneche	5	Mayo	2023-05-30T00:00:00	2024-11-06T00:00:00	6	Velocidad del viento	6.4
28614	7	Sololá	701	Sololá	3	Barraneche	5	Mayo	2023-05-30T00:00:00	2024-11-06T00:00:00	7	Dirección del viento	6.44
28615	7	Sololá	701	Sololá	3	Barraneche	5	Mayo	2023-05-30T00:00:00	2024-11-06T00:00:00	1	Precipitación	0
28616	7	Sololá	701	Sololá	3	Barraneche	5	Mayo	2023-05-30T00:00:00	2024-11-06T00:00:00	8	Radiación solar	0
28617	7	Sololá	701	Sololá	3	Barraneche	5	Mayo	2023-05-30T00:00:00	2024-11-06T01:00:00	2	Temperatura media	12.4
28618	7	Sololá	701	Sololá	3	Barraneche	5	Mayo	2023-05-30T00:00:00	2024-11-06T01:00:00	4	Temperatura máxima	12.7
28619	7	Sololá	701	Sololá	3	Barraneche	5	Mayo	2023-05-30T00:00:00	2024-11-06T01:00:00	3	Temperatura mínima	12
28620	7	Sololá	701	Sololá	3	Barraneche	5	Mayo	2023-05-30T00:00:00	2024-11-06T01:00:00	5	Humedad	75
28621	7	Sololá	701	Sololá	3	Barraneche	5	Mayo	2023-05-30T00:00:00	2024-11-06T01:00:00	6	Velocidad del viento	4.8
28622	7	Sololá	701	Sololá	3	Barraneche	5	Mayo	2023-05-30T00:00:00	2024-11-06T01:00:00	7	Dirección del viento	4.83
28623	7	Sololá	701	Sololá	3	Barraneche	5	Mayo	2023-05-30T00:00:00	2024-11-06T01:00:00	1	Precipitación	0
28624	7	Sololá	701	Sololá	3	Barraneche	5	Mayo	2023-05-30T00:00:00	2024-11-06T01:00:00	8	Radiación solar	0
28625	7	Sololá	701	Sololá	3	Barraneche	5	Mayo	2023-05-30T00:00:00	2024-11-06T02:00:00	2	Temperatura media	12.3
28626	7	Sololá	701	Sololá	3	Barraneche	5	Mayo	2023-05-30T00:00:00	2024-11-06T02:00:00	4	Temperatura máxima	12.4
28627	7	Sololá	701	Sololá	3	Barraneche	5	Mayo	2023-05-30T00:00:00	2024-11-06T02:00:00	3	Temperatura mínima	12.2
28628	7	Sololá	701	Sololá	3	Barraneche	5	Mayo	2023-05-30T00:00:00	2024-11-06T02:00:00	5	Humedad	75
28629	7	Sololá	701	Sololá	3	Barraneche	5	Mayo	2023-05-30T00:00:00	2024-11-06T02:00:00	6	Velocidad del viento	3.2
28630	7	Sololá	701	Sololá	3	Barraneche	5	Mayo	2023-05-30T00:00:00	2024-11-06T02:00:00	7	Dirección del viento	3.22
28631	7	Sololá	701	Sololá	3	Barraneche	5	Mayo	2023-05-30T00:00:00	2024-11-06T02:00:00	1	Precipitación	0
28632	7	Sololá	701	Sololá	3	Barraneche	5	Mayo	2023-05-30T00:00:00	2024-11-06T02:00:00	8	Radiación solar	0
28633	7	Sololá	701	Sololá	3	Barraneche	5	Mayo	2023-05-30T00:00:00	2024-11-06T03:00:00	2	Temperatura media	12.4
28634	7	Sololá	701	Sololá	3	Barraneche	5	Mayo	2023-05-30T00:00:00	2024-11-06T03:00:00	4	Temperatura máxima	12.6
28635	7	Sololá	701	Sololá	3	Barraneche	5	Mayo	2023-05-30T00:00:00	2024-11-06T03:00:00	3	Temperatura mínima	12.3
28636	7	Sololá	701	Sololá	3	Barraneche	5	Mayo	2023-05-30T00:00:00	2024-11-06T03:00:00	5	Humedad	73
28637	7	Sololá	701	Sololá	3	Barraneche	5	Mayo	2023-05-30T00:00:00	2024-11-06T03:00:00	6	Velocidad del viento	6.4
28638	7	Sololá	701	Sololá	3	Barraneche	5	Mayo	2023-05-30T00:00:00	2024-11-06T03:00:00	7	Dirección del viento	6.44
28639	7	Sololá	701	Sololá	3	Barraneche	5	Mayo	2023-05-30T00:00:00	2024-11-06T03:00:00	1	Precipitación	0
28640	7	Sololá	701	Sololá	3	Barraneche	5	Mayo	2023-05-30T00:00:00	2024-11-06T03:00:00	8	Radiación solar	0
28641	7	Sololá	701	Sololá	3	Barraneche	5	Mayo	2023-05-30T00:00:00	2024-11-06T04:00:00	2	Temperatura media	11.7
28642	7	Sololá	701	Sololá	3	Barraneche	5	Mayo	2023-05-30T00:00:00	2024-11-06T04:00:00	4	Temperatura máxima	12.4
28643	7	Sololá	701	Sololá	3	Barraneche	5	Mayo	2023-05-30T00:00:00	2024-11-06T04:00:00	3	Temperatura mínima	11.6
28644	7	Sololá	701	Sololá	3	Barraneche	5	Mayo	2023-05-30T00:00:00	2024-11-06T04:00:00	5	Humedad	74
28645	7	Sololá	701	Sololá	3	Barraneche	5	Mayo	2023-05-30T00:00:00	2024-11-06T04:00:00	6	Velocidad del viento	4.8
28646	7	Sololá	701	Sololá	3	Barraneche	5	Mayo	2023-05-30T00:00:00	2024-11-06T04:00:00	7	Dirección del viento	4.83
28647	7	Sololá	701	Sololá	3	Barraneche	5	Mayo	2023-05-30T00:00:00	2024-11-06T04:00:00	1	Precipitación	0
28648	7	Sololá	701	Sololá	3	Barraneche	5	Mayo	2023-05-30T00:00:00	2024-11-06T04:00:00	8	Radiación solar	0
28649	7	Sololá	701	Sololá	3	Barraneche	5	Mayo	2023-05-30T00:00:00	2024-11-06T05:00:00	2	Temperatura media	12.1
28650	7	Sololá	701	Sololá	3	Barraneche	5	Mayo	2023-05-30T00:00:00	2024-11-06T05:00:00	4	Temperatura máxima	12.3
28651	7	Sololá	701	Sololá	3	Barraneche	5	Mayo	2023-05-30T00:00:00	2024-11-06T05:00:00	3	Temperatura mínima	11.5
28652	7	Sololá	701	Sololá	3	Barraneche	5	Mayo	2023-05-30T00:00:00	2024-11-06T05:00:00	5	Humedad	73
28653	7	Sololá	701	Sololá	3	Barraneche	5	Mayo	2023-05-30T00:00:00	2024-11-06T05:00:00	6	Velocidad del viento	4.8
28654	7	Sololá	701	Sololá	3	Barraneche	5	Mayo	2023-05-30T00:00:00	2024-11-06T05:00:00	7	Dirección del viento	4.83
28655	7	Sololá	701	Sololá	3	Barraneche	5	Mayo	2023-05-30T00:00:00	2024-11-06T05:00:00	1	Precipitación	0
28656	7	Sololá	701	Sololá	3	Barraneche	5	Mayo	2023-05-30T00:00:00	2024-11-06T05:00:00	8	Radiación solar	0
28657	7	Sololá	701	Sololá	3	Barraneche	5	Mayo	2023-05-30T00:00:00	2024-11-06T06:00:00	2	Temperatura media	11.7
28658	7	Sololá	701	Sololá	3	Barraneche	5	Mayo	2023-05-30T00:00:00	2024-11-06T06:00:00	4	Temperatura máxima	12.3
28659	7	Sololá	701	Sololá	3	Barraneche	5	Mayo	2023-05-30T00:00:00	2024-11-06T06:00:00	3	Temperatura mínima	11.5
28660	7	Sololá	701	Sololá	3	Barraneche	5	Mayo	2023-05-30T00:00:00	2024-11-06T06:00:00	5	Humedad	74
28661	7	Sololá	701	Sololá	3	Barraneche	5	Mayo	2023-05-30T00:00:00	2024-11-06T06:00:00	6	Velocidad del viento	6.4
28662	7	Sololá	701	Sololá	3	Barraneche	5	Mayo	2023-05-30T00:00:00	2024-11-06T06:00:00	7	Dirección del viento	6.44
28663	7	Sololá	701	Sololá	3	Barraneche	5	Mayo	2023-05-30T00:00:00	2024-11-06T06:00:00	1	Precipitación	0
28664	7	Sololá	701	Sololá	3	Barraneche	5	Mayo	2023-05-30T00:00:00	2024-11-06T06:00:00	8	Radiación solar	7
28665	7	Sololá	701	Sololá	3	Barraneche	5	Mayo	2023-05-30T00:00:00	2024-11-06T07:00:00	2	Temperatura media	13.7
28666	7	Sololá	701	Sololá	3	Barraneche	5	Mayo	2023-05-30T00:00:00	2024-11-06T07:00:00	4	Temperatura máxima	13.7
28667	7	Sololá	701	Sololá	3	Barraneche	5	Mayo	2023-05-30T00:00:00	2024-11-06T07:00:00	3	Temperatura mínima	11.4
28668	7	Sololá	701	Sololá	3	Barraneche	5	Mayo	2023-05-30T00:00:00	2024-11-06T07:00:00	5	Humedad	72
28669	7	Sololá	701	Sololá	3	Barraneche	5	Mayo	2023-05-30T00:00:00	2024-11-06T07:00:00	6	Velocidad del viento	1.6
28670	7	Sololá	701	Sololá	3	Barraneche	5	Mayo	2023-05-30T00:00:00	2024-11-06T07:00:00	7	Dirección del viento	1.61
28671	7	Sololá	701	Sololá	3	Barraneche	5	Mayo	2023-05-30T00:00:00	2024-11-06T07:00:00	1	Precipitación	0
28672	7	Sololá	701	Sololá	3	Barraneche	5	Mayo	2023-05-30T00:00:00	2024-11-06T07:00:00	8	Radiación solar	133
28673	7	Sololá	701	Sololá	3	Barraneche	5	Mayo	2023-05-30T00:00:00	2024-11-06T08:00:00	2	Temperatura media	16.5
28674	7	Sololá	701	Sololá	3	Barraneche	5	Mayo	2023-05-30T00:00:00	2024-11-06T08:00:00	4	Temperatura máxima	16.6
28675	7	Sololá	701	Sololá	3	Barraneche	5	Mayo	2023-05-30T00:00:00	2024-11-06T08:00:00	3	Temperatura mínima	13.7
28676	7	Sololá	701	Sololá	3	Barraneche	5	Mayo	2023-05-30T00:00:00	2024-11-06T08:00:00	5	Humedad	63
28677	7	Sololá	701	Sololá	3	Barraneche	5	Mayo	2023-05-30T00:00:00	2024-11-06T08:00:00	6	Velocidad del viento	1.6
28678	7	Sololá	701	Sololá	3	Barraneche	5	Mayo	2023-05-30T00:00:00	2024-11-06T08:00:00	7	Dirección del viento	1.61
28679	7	Sololá	701	Sololá	3	Barraneche	5	Mayo	2023-05-30T00:00:00	2024-11-06T08:00:00	1	Precipitación	0
28680	7	Sololá	701	Sololá	3	Barraneche	5	Mayo	2023-05-30T00:00:00	2024-11-06T08:00:00	8	Radiación solar	367
28681	7	Sololá	701	Sololá	3	Barraneche	5	Mayo	2023-05-30T00:00:00	2024-11-06T09:00:00	2	Temperatura media	17.1
28682	7	Sololá	701	Sololá	3	Barraneche	5	Mayo	2023-05-30T00:00:00	2024-11-06T09:00:00	4	Temperatura máxima	17.3
28683	7	Sololá	701	Sololá	3	Barraneche	5	Mayo	2023-05-30T00:00:00	2024-11-06T09:00:00	3	Temperatura mínima	16.5
28684	7	Sololá	701	Sololá	3	Barraneche	5	Mayo	2023-05-30T00:00:00	2024-11-06T09:00:00	5	Humedad	64
28685	7	Sololá	701	Sololá	3	Barraneche	5	Mayo	2023-05-30T00:00:00	2024-11-06T09:00:00	6	Velocidad del viento	3.2
28686	7	Sololá	701	Sololá	3	Barraneche	5	Mayo	2023-05-30T00:00:00	2024-11-06T09:00:00	7	Dirección del viento	3.22
28687	7	Sololá	701	Sololá	3	Barraneche	5	Mayo	2023-05-30T00:00:00	2024-11-06T09:00:00	1	Precipitación	0
28688	7	Sololá	701	Sololá	3	Barraneche	5	Mayo	2023-05-30T00:00:00	2024-11-06T09:00:00	8	Radiación solar	619
28689	7	Sololá	701	Sololá	3	Barraneche	5	Mayo	2023-05-30T00:00:00	2024-11-06T10:00:00	2	Temperatura media	16.4
28690	7	Sololá	701	Sololá	3	Barraneche	5	Mayo	2023-05-30T00:00:00	2024-11-06T10:00:00	4	Temperatura máxima	17.3
28691	7	Sololá	701	Sololá	3	Barraneche	5	Mayo	2023-05-30T00:00:00	2024-11-06T10:00:00	3	Temperatura mínima	16.3
28692	7	Sololá	701	Sololá	3	Barraneche	5	Mayo	2023-05-30T00:00:00	2024-11-06T10:00:00	5	Humedad	69
28693	7	Sololá	701	Sololá	3	Barraneche	5	Mayo	2023-05-30T00:00:00	2024-11-06T10:00:00	6	Velocidad del viento	8
28694	7	Sololá	701	Sololá	3	Barraneche	5	Mayo	2023-05-30T00:00:00	2024-11-06T10:00:00	7	Dirección del viento	8.05
28695	7	Sololá	701	Sololá	3	Barraneche	5	Mayo	2023-05-30T00:00:00	2024-11-06T10:00:00	1	Precipitación	0
28696	7	Sololá	701	Sololá	3	Barraneche	5	Mayo	2023-05-30T00:00:00	2024-11-06T10:00:00	8	Radiación solar	346
28697	7	Sololá	701	Sololá	3	Barraneche	5	Mayo	2023-05-30T00:00:00	2024-11-06T11:00:00	2	Temperatura media	18.1
28698	7	Sololá	701	Sololá	3	Barraneche	5	Mayo	2023-05-30T00:00:00	2024-11-06T11:00:00	4	Temperatura máxima	18.5
28699	7	Sololá	701	Sololá	3	Barraneche	5	Mayo	2023-05-30T00:00:00	2024-11-06T11:00:00	3	Temperatura mínima	16.4
28700	7	Sololá	701	Sololá	3	Barraneche	5	Mayo	2023-05-30T00:00:00	2024-11-06T11:00:00	5	Humedad	64
28701	7	Sololá	701	Sololá	3	Barraneche	5	Mayo	2023-05-30T00:00:00	2024-11-06T11:00:00	6	Velocidad del viento	4.8
28702	7	Sololá	701	Sololá	3	Barraneche	5	Mayo	2023-05-30T00:00:00	2024-11-06T11:00:00	7	Dirección del viento	4.83
28703	7	Sololá	701	Sololá	3	Barraneche	5	Mayo	2023-05-30T00:00:00	2024-11-06T11:00:00	1	Precipitación	0
28704	7	Sololá	701	Sololá	3	Barraneche	5	Mayo	2023-05-30T00:00:00	2024-11-06T11:00:00	8	Radiación solar	559
28705	7	Sololá	701	Sololá	3	Barraneche	5	Mayo	2023-05-30T00:00:00	2024-11-06T12:00:00	2	Temperatura media	15.9
28706	7	Sololá	701	Sololá	3	Barraneche	5	Mayo	2023-05-30T00:00:00	2024-11-06T12:00:00	4	Temperatura máxima	18.1
28707	7	Sololá	701	Sololá	3	Barraneche	5	Mayo	2023-05-30T00:00:00	2024-11-06T12:00:00	3	Temperatura mínima	15.9
28708	7	Sololá	701	Sololá	3	Barraneche	5	Mayo	2023-05-30T00:00:00	2024-11-06T12:00:00	5	Humedad	73
28709	7	Sololá	701	Sololá	3	Barraneche	5	Mayo	2023-05-30T00:00:00	2024-11-06T12:00:00	6	Velocidad del viento	8
28710	7	Sololá	701	Sololá	3	Barraneche	5	Mayo	2023-05-30T00:00:00	2024-11-06T12:00:00	7	Dirección del viento	8.05
28711	7	Sololá	701	Sololá	3	Barraneche	5	Mayo	2023-05-30T00:00:00	2024-11-06T12:00:00	1	Precipitación	0.2
28712	7	Sololá	701	Sololá	3	Barraneche	5	Mayo	2023-05-30T00:00:00	2024-11-06T12:00:00	8	Radiación solar	129
28713	7	Sololá	701	Sololá	3	Barraneche	5	Mayo	2023-05-30T00:00:00	2024-11-06T13:00:00	2	Temperatura media	15.4
28714	7	Sololá	701	Sololá	3	Barraneche	5	Mayo	2023-05-30T00:00:00	2024-11-06T13:00:00	4	Temperatura máxima	15.9
28715	7	Sololá	701	Sololá	3	Barraneche	5	Mayo	2023-05-30T00:00:00	2024-11-06T13:00:00	3	Temperatura mínima	15.3
28716	7	Sololá	701	Sololá	3	Barraneche	5	Mayo	2023-05-30T00:00:00	2024-11-06T13:00:00	5	Humedad	75
28717	7	Sololá	701	Sololá	3	Barraneche	5	Mayo	2023-05-30T00:00:00	2024-11-06T13:00:00	6	Velocidad del viento	3.2
28718	7	Sololá	701	Sololá	3	Barraneche	5	Mayo	2023-05-30T00:00:00	2024-11-06T13:00:00	7	Dirección del viento	3.22
28719	7	Sololá	701	Sololá	3	Barraneche	5	Mayo	2023-05-30T00:00:00	2024-11-06T13:00:00	1	Precipitación	4
28720	7	Sololá	701	Sololá	3	Barraneche	5	Mayo	2023-05-30T00:00:00	2024-11-06T13:00:00	8	Radiación solar	173
28721	7	Sololá	701	Sololá	3	Barraneche	5	Mayo	2023-05-30T00:00:00	2024-11-06T14:00:00	2	Temperatura media	15.3
28722	7	Sololá	701	Sololá	3	Barraneche	5	Mayo	2023-05-30T00:00:00	2024-11-06T14:00:00	4	Temperatura máxima	15.4
28723	7	Sololá	701	Sololá	3	Barraneche	5	Mayo	2023-05-30T00:00:00	2024-11-06T14:00:00	3	Temperatura mínima	15.1
28724	7	Sololá	701	Sololá	3	Barraneche	5	Mayo	2023-05-30T00:00:00	2024-11-06T14:00:00	5	Humedad	77
28725	7	Sololá	701	Sololá	3	Barraneche	5	Mayo	2023-05-30T00:00:00	2024-11-06T14:00:00	6	Velocidad del viento	3.2
28726	7	Sololá	701	Sololá	3	Barraneche	5	Mayo	2023-05-30T00:00:00	2024-11-06T14:00:00	7	Dirección del viento	3.22
28727	7	Sololá	701	Sololá	3	Barraneche	5	Mayo	2023-05-30T00:00:00	2024-11-06T14:00:00	1	Precipitación	0.4
28728	7	Sololá	701	Sololá	3	Barraneche	5	Mayo	2023-05-30T00:00:00	2024-11-06T14:00:00	8	Radiación solar	142
28729	7	Sololá	701	Sololá	3	Barraneche	5	Mayo	2023-05-30T00:00:00	2024-11-06T15:00:00	2	Temperatura media	14.3
28730	7	Sololá	701	Sololá	3	Barraneche	5	Mayo	2023-05-30T00:00:00	2024-11-06T15:00:00	4	Temperatura máxima	15.4
28731	7	Sololá	701	Sololá	3	Barraneche	5	Mayo	2023-05-30T00:00:00	2024-11-06T15:00:00	3	Temperatura mínima	14.3
28732	7	Sololá	701	Sololá	3	Barraneche	5	Mayo	2023-05-30T00:00:00	2024-11-06T15:00:00	5	Humedad	80
28733	7	Sololá	701	Sololá	3	Barraneche	5	Mayo	2023-05-30T00:00:00	2024-11-06T15:00:00	6	Velocidad del viento	4.8
28734	7	Sololá	701	Sololá	3	Barraneche	5	Mayo	2023-05-30T00:00:00	2024-11-06T15:00:00	7	Dirección del viento	4.83
28735	7	Sololá	701	Sololá	3	Barraneche	5	Mayo	2023-05-30T00:00:00	2024-11-06T15:00:00	1	Precipitación	0.8
28736	7	Sololá	701	Sololá	3	Barraneche	5	Mayo	2023-05-30T00:00:00	2024-11-06T15:00:00	8	Radiación solar	116
28737	7	Sololá	701	Sololá	3	Barraneche	5	Mayo	2023-05-30T00:00:00	2024-11-06T16:00:00	2	Temperatura media	14.3
28738	7	Sololá	701	Sololá	3	Barraneche	5	Mayo	2023-05-30T00:00:00	2024-11-06T16:00:00	4	Temperatura máxima	14.6
28739	7	Sololá	701	Sololá	3	Barraneche	5	Mayo	2023-05-30T00:00:00	2024-11-06T16:00:00	3	Temperatura mínima	14
28740	7	Sololá	701	Sololá	3	Barraneche	5	Mayo	2023-05-30T00:00:00	2024-11-06T16:00:00	5	Humedad	85
28741	7	Sololá	701	Sololá	3	Barraneche	5	Mayo	2023-05-30T00:00:00	2024-11-06T16:00:00	6	Velocidad del viento	3.2
28742	7	Sololá	701	Sololá	3	Barraneche	5	Mayo	2023-05-30T00:00:00	2024-11-06T16:00:00	7	Dirección del viento	3.22
28743	7	Sololá	701	Sololá	3	Barraneche	5	Mayo	2023-05-30T00:00:00	2024-11-06T16:00:00	1	Precipitación	0.2
28744	7	Sololá	701	Sololá	3	Barraneche	5	Mayo	2023-05-30T00:00:00	2024-11-06T16:00:00	8	Radiación solar	118
28745	7	Sololá	701	Sololá	3	Barraneche	5	Mayo	2023-05-30T00:00:00	2024-11-06T17:00:00	2	Temperatura media	13.9
28746	7	Sololá	701	Sololá	3	Barraneche	5	Mayo	2023-05-30T00:00:00	2024-11-06T17:00:00	4	Temperatura máxima	14.3
28747	7	Sololá	701	Sololá	3	Barraneche	5	Mayo	2023-05-30T00:00:00	2024-11-06T17:00:00	3	Temperatura mínima	13.9
28748	7	Sololá	701	Sololá	3	Barraneche	5	Mayo	2023-05-30T00:00:00	2024-11-06T17:00:00	5	Humedad	85
28749	7	Sololá	701	Sololá	3	Barraneche	5	Mayo	2023-05-30T00:00:00	2024-11-06T17:00:00	6	Velocidad del viento	3.2
28750	7	Sololá	701	Sololá	3	Barraneche	5	Mayo	2023-05-30T00:00:00	2024-11-06T17:00:00	7	Dirección del viento	3.22
28751	7	Sololá	701	Sololá	3	Barraneche	5	Mayo	2023-05-30T00:00:00	2024-11-06T17:00:00	1	Precipitación	0.4
28752	7	Sololá	701	Sololá	3	Barraneche	5	Mayo	2023-05-30T00:00:00	2024-11-06T17:00:00	8	Radiación solar	19
28753	7	Sololá	701	Sololá	3	Barraneche	5	Mayo	2023-05-30T00:00:00	2024-11-06T18:00:00	2	Temperatura media	12.8
28754	7	Sololá	701	Sololá	3	Barraneche	5	Mayo	2023-05-30T00:00:00	2024-11-06T18:00:00	4	Temperatura máxima	14
28755	7	Sololá	701	Sololá	3	Barraneche	5	Mayo	2023-05-30T00:00:00	2024-11-06T18:00:00	3	Temperatura mínima	12.8
28756	7	Sololá	701	Sololá	3	Barraneche	5	Mayo	2023-05-30T00:00:00	2024-11-06T18:00:00	5	Humedad	81
28757	7	Sololá	701	Sololá	3	Barraneche	5	Mayo	2023-05-30T00:00:00	2024-11-06T18:00:00	6	Velocidad del viento	9.7
28758	7	Sololá	701	Sololá	3	Barraneche	5	Mayo	2023-05-30T00:00:00	2024-11-06T18:00:00	7	Dirección del viento	9.66
28759	7	Sololá	701	Sololá	3	Barraneche	5	Mayo	2023-05-30T00:00:00	2024-11-06T18:00:00	1	Precipitación	4.4
28760	7	Sololá	701	Sololá	3	Barraneche	5	Mayo	2023-05-30T00:00:00	2024-11-06T18:00:00	8	Radiación solar	9
28761	7	Sololá	701	Sololá	3	Barraneche	5	Mayo	2023-05-30T00:00:00	2024-11-06T19:00:00	2	Temperatura media	12.4
28762	7	Sololá	701	Sololá	3	Barraneche	5	Mayo	2023-05-30T00:00:00	2024-11-06T19:00:00	4	Temperatura máxima	13.3
28763	7	Sololá	701	Sololá	3	Barraneche	5	Mayo	2023-05-30T00:00:00	2024-11-06T19:00:00	3	Temperatura mínima	12.4
28764	7	Sololá	701	Sololá	3	Barraneche	5	Mayo	2023-05-30T00:00:00	2024-11-06T19:00:00	5	Humedad	80
28765	7	Sololá	701	Sololá	3	Barraneche	5	Mayo	2023-05-30T00:00:00	2024-11-06T19:00:00	6	Velocidad del viento	4.8
28766	7	Sololá	701	Sololá	3	Barraneche	5	Mayo	2023-05-30T00:00:00	2024-11-06T19:00:00	7	Dirección del viento	4.83
28767	7	Sololá	701	Sololá	3	Barraneche	5	Mayo	2023-05-30T00:00:00	2024-11-06T19:00:00	1	Precipitación	0.6
28768	7	Sololá	701	Sololá	3	Barraneche	5	Mayo	2023-05-30T00:00:00	2024-11-06T19:00:00	8	Radiación solar	0
28769	7	Sololá	701	Sololá	3	Barraneche	5	Mayo	2023-05-30T00:00:00	2024-11-06T20:00:00	2	Temperatura media	12.5
28770	7	Sololá	701	Sololá	3	Barraneche	5	Mayo	2023-05-30T00:00:00	2024-11-06T20:00:00	4	Temperatura máxima	12.6
28771	7	Sololá	701	Sololá	3	Barraneche	5	Mayo	2023-05-30T00:00:00	2024-11-06T20:00:00	3	Temperatura mínima	12
28772	7	Sololá	701	Sololá	3	Barraneche	5	Mayo	2023-05-30T00:00:00	2024-11-06T20:00:00	5	Humedad	76
28773	7	Sololá	701	Sololá	3	Barraneche	5	Mayo	2023-05-30T00:00:00	2024-11-06T20:00:00	6	Velocidad del viento	8
28774	7	Sololá	701	Sololá	3	Barraneche	5	Mayo	2023-05-30T00:00:00	2024-11-06T20:00:00	7	Dirección del viento	8.05
28775	7	Sololá	701	Sololá	3	Barraneche	5	Mayo	2023-05-30T00:00:00	2024-11-06T20:00:00	1	Precipitación	0
28776	7	Sololá	701	Sololá	3	Barraneche	5	Mayo	2023-05-30T00:00:00	2024-11-06T20:00:00	8	Radiación solar	0
28777	7	Sololá	701	Sololá	3	Barraneche	5	Mayo	2023-05-30T00:00:00	2024-11-06T21:00:00	2	Temperatura media	13.4
28778	7	Sololá	701	Sololá	3	Barraneche	5	Mayo	2023-05-30T00:00:00	2024-11-06T21:00:00	4	Temperatura máxima	13.5
28779	7	Sololá	701	Sololá	3	Barraneche	5	Mayo	2023-05-30T00:00:00	2024-11-06T21:00:00	3	Temperatura mínima	12.4
28780	7	Sololá	701	Sololá	3	Barraneche	5	Mayo	2023-05-30T00:00:00	2024-11-06T21:00:00	5	Humedad	71
28781	7	Sololá	701	Sololá	3	Barraneche	5	Mayo	2023-05-30T00:00:00	2024-11-06T21:00:00	6	Velocidad del viento	14.5
28782	7	Sololá	701	Sololá	3	Barraneche	5	Mayo	2023-05-30T00:00:00	2024-11-06T21:00:00	7	Dirección del viento	14.48
28783	7	Sololá	701	Sololá	3	Barraneche	5	Mayo	2023-05-30T00:00:00	2024-11-06T21:00:00	1	Precipitación	0
28784	7	Sololá	701	Sololá	3	Barraneche	5	Mayo	2023-05-30T00:00:00	2024-11-06T21:00:00	8	Radiación solar	0
28785	7	Sololá	701	Sololá	3	Barraneche	5	Mayo	2023-05-30T00:00:00	2024-11-06T22:00:00	2	Temperatura media	12.5
28786	7	Sololá	701	Sololá	3	Barraneche	5	Mayo	2023-05-30T00:00:00	2024-11-06T22:00:00	4	Temperatura máxima	13.9
28787	7	Sololá	701	Sololá	3	Barraneche	5	Mayo	2023-05-30T00:00:00	2024-11-06T22:00:00	3	Temperatura mínima	12.5
28788	7	Sololá	701	Sololá	3	Barraneche	5	Mayo	2023-05-30T00:00:00	2024-11-06T22:00:00	5	Humedad	77
28789	7	Sololá	701	Sololá	3	Barraneche	5	Mayo	2023-05-30T00:00:00	2024-11-06T22:00:00	6	Velocidad del viento	8
28790	7	Sololá	701	Sololá	3	Barraneche	5	Mayo	2023-05-30T00:00:00	2024-11-06T22:00:00	7	Dirección del viento	8.05
28791	7	Sololá	701	Sololá	3	Barraneche	5	Mayo	2023-05-30T00:00:00	2024-11-06T22:00:00	1	Precipitación	0
28792	7	Sololá	701	Sololá	3	Barraneche	5	Mayo	2023-05-30T00:00:00	2024-11-06T22:00:00	8	Radiación solar	0
28793	7	Sololá	701	Sololá	3	Barraneche	5	Mayo	2023-05-30T00:00:00	2024-11-06T23:00:00	2	Temperatura media	12.4
28794	7	Sololá	701	Sololá	3	Barraneche	5	Mayo	2023-05-30T00:00:00	2024-11-06T23:00:00	4	Temperatura máxima	12.9
28795	7	Sololá	701	Sololá	3	Barraneche	5	Mayo	2023-05-30T00:00:00	2024-11-06T23:00:00	3	Temperatura mínima	12.2
28796	7	Sololá	701	Sololá	3	Barraneche	5	Mayo	2023-05-30T00:00:00	2024-11-06T23:00:00	5	Humedad	77
28797	7	Sololá	701	Sololá	3	Barraneche	5	Mayo	2023-05-30T00:00:00	2024-11-06T23:00:00	6	Velocidad del viento	6.4
28798	7	Sololá	701	Sololá	3	Barraneche	5	Mayo	2023-05-30T00:00:00	2024-11-06T23:00:00	7	Dirección del viento	6.44
28799	7	Sololá	701	Sololá	3	Barraneche	5	Mayo	2023-05-30T00:00:00	2024-11-06T23:00:00	1	Precipitación	0
28800	7	Sololá	701	Sololá	3	Barraneche	5	Mayo	2023-05-30T00:00:00	2024-11-06T23:00:00	8	Radiación solar	0
28801	7	Sololá	701	Sololá	3	Barraneche	5	Mayo	2023-05-31T00:00:00	2024-11-06T00:00:00	2	Temperatura media	12.4
28802	7	Sololá	701	Sololá	3	Barraneche	5	Mayo	2023-05-31T00:00:00	2024-11-06T00:00:00	4	Temperatura máxima	12.7
28803	7	Sololá	701	Sololá	3	Barraneche	5	Mayo	2023-05-31T00:00:00	2024-11-06T00:00:00	3	Temperatura mínima	12.2
28804	7	Sololá	701	Sololá	3	Barraneche	5	Mayo	2023-05-31T00:00:00	2024-11-06T00:00:00	5	Humedad	77
28805	7	Sololá	701	Sololá	3	Barraneche	5	Mayo	2023-05-31T00:00:00	2024-11-06T00:00:00	6	Velocidad del viento	4.8
28806	7	Sololá	701	Sololá	3	Barraneche	5	Mayo	2023-05-31T00:00:00	2024-11-06T00:00:00	7	Dirección del viento	4.83
28807	7	Sololá	701	Sololá	3	Barraneche	5	Mayo	2023-05-31T00:00:00	2024-11-06T00:00:00	1	Precipitación	0
28808	7	Sololá	701	Sololá	3	Barraneche	5	Mayo	2023-05-31T00:00:00	2024-11-06T00:00:00	8	Radiación solar	0
28809	7	Sololá	701	Sololá	3	Barraneche	5	Mayo	2023-05-31T00:00:00	2024-11-06T01:00:00	2	Temperatura media	12.3
28810	7	Sololá	701	Sololá	3	Barraneche	5	Mayo	2023-05-31T00:00:00	2024-11-06T01:00:00	4	Temperatura máxima	12.9
28811	7	Sololá	701	Sololá	3	Barraneche	5	Mayo	2023-05-31T00:00:00	2024-11-06T01:00:00	3	Temperatura mínima	12.3
28812	7	Sololá	701	Sololá	3	Barraneche	5	Mayo	2023-05-31T00:00:00	2024-11-06T01:00:00	5	Humedad	78
28813	7	Sololá	701	Sololá	3	Barraneche	5	Mayo	2023-05-31T00:00:00	2024-11-06T01:00:00	6	Velocidad del viento	4.8
28814	7	Sololá	701	Sololá	3	Barraneche	5	Mayo	2023-05-31T00:00:00	2024-11-06T01:00:00	7	Dirección del viento	4.83
28815	7	Sololá	701	Sololá	3	Barraneche	5	Mayo	2023-05-31T00:00:00	2024-11-06T01:00:00	1	Precipitación	0
28816	7	Sololá	701	Sololá	3	Barraneche	5	Mayo	2023-05-31T00:00:00	2024-11-06T01:00:00	8	Radiación solar	0
28817	7	Sololá	701	Sololá	3	Barraneche	5	Mayo	2023-05-31T00:00:00	2024-11-06T02:00:00	2	Temperatura media	12.2
28818	7	Sololá	701	Sololá	3	Barraneche	5	Mayo	2023-05-31T00:00:00	2024-11-06T02:00:00	4	Temperatura máxima	12.3
28819	7	Sololá	701	Sololá	3	Barraneche	5	Mayo	2023-05-31T00:00:00	2024-11-06T02:00:00	3	Temperatura mínima	12.1
28820	7	Sololá	701	Sololá	3	Barraneche	5	Mayo	2023-05-31T00:00:00	2024-11-06T02:00:00	5	Humedad	78
28821	7	Sololá	701	Sololá	3	Barraneche	5	Mayo	2023-05-31T00:00:00	2024-11-06T02:00:00	6	Velocidad del viento	4.8
28822	7	Sololá	701	Sololá	3	Barraneche	5	Mayo	2023-05-31T00:00:00	2024-11-06T02:00:00	7	Dirección del viento	4.83
28823	7	Sololá	701	Sololá	3	Barraneche	5	Mayo	2023-05-31T00:00:00	2024-11-06T02:00:00	1	Precipitación	0
28824	7	Sololá	701	Sololá	3	Barraneche	5	Mayo	2023-05-31T00:00:00	2024-11-06T02:00:00	8	Radiación solar	0
28825	7	Sololá	701	Sololá	3	Barraneche	5	Mayo	2023-05-31T00:00:00	2024-11-06T03:00:00	2	Temperatura media	12.3
28826	7	Sololá	701	Sololá	3	Barraneche	5	Mayo	2023-05-31T00:00:00	2024-11-06T03:00:00	4	Temperatura máxima	12.6
28827	7	Sololá	701	Sololá	3	Barraneche	5	Mayo	2023-05-31T00:00:00	2024-11-06T03:00:00	3	Temperatura mínima	12.1
28828	7	Sololá	701	Sololá	3	Barraneche	5	Mayo	2023-05-31T00:00:00	2024-11-06T03:00:00	5	Humedad	78
28829	7	Sololá	701	Sololá	3	Barraneche	5	Mayo	2023-05-31T00:00:00	2024-11-06T03:00:00	6	Velocidad del viento	6.4
28830	7	Sololá	701	Sololá	3	Barraneche	5	Mayo	2023-05-31T00:00:00	2024-11-06T03:00:00	7	Dirección del viento	6.44
28831	7	Sololá	701	Sololá	3	Barraneche	5	Mayo	2023-05-31T00:00:00	2024-11-06T03:00:00	1	Precipitación	0
28832	7	Sololá	701	Sololá	3	Barraneche	5	Mayo	2023-05-31T00:00:00	2024-11-06T03:00:00	8	Radiación solar	0
28833	7	Sololá	701	Sololá	3	Barraneche	5	Mayo	2023-05-31T00:00:00	2024-11-06T04:00:00	2	Temperatura media	11.3
28834	7	Sololá	701	Sololá	3	Barraneche	5	Mayo	2023-05-31T00:00:00	2024-11-06T04:00:00	4	Temperatura máxima	12.3
28835	7	Sololá	701	Sololá	3	Barraneche	5	Mayo	2023-05-31T00:00:00	2024-11-06T04:00:00	3	Temperatura mínima	11.3
28836	7	Sololá	701	Sololá	3	Barraneche	5	Mayo	2023-05-31T00:00:00	2024-11-06T04:00:00	5	Humedad	78
28837	7	Sololá	701	Sololá	3	Barraneche	5	Mayo	2023-05-31T00:00:00	2024-11-06T04:00:00	6	Velocidad del viento	8
28838	7	Sololá	701	Sololá	3	Barraneche	5	Mayo	2023-05-31T00:00:00	2024-11-06T04:00:00	7	Dirección del viento	8.05
28839	7	Sololá	701	Sololá	3	Barraneche	5	Mayo	2023-05-31T00:00:00	2024-11-06T04:00:00	1	Precipitación	0
28840	7	Sololá	701	Sololá	3	Barraneche	5	Mayo	2023-05-31T00:00:00	2024-11-06T04:00:00	8	Radiación solar	0
28841	7	Sololá	701	Sololá	3	Barraneche	5	Mayo	2023-05-31T00:00:00	2024-11-06T05:00:00	2	Temperatura media	10.9
28842	7	Sololá	701	Sololá	3	Barraneche	5	Mayo	2023-05-31T00:00:00	2024-11-06T05:00:00	4	Temperatura máxima	11.4
28843	7	Sololá	701	Sololá	3	Barraneche	5	Mayo	2023-05-31T00:00:00	2024-11-06T05:00:00	3	Temperatura mínima	10.9
28844	7	Sololá	701	Sololá	3	Barraneche	5	Mayo	2023-05-31T00:00:00	2024-11-06T05:00:00	5	Humedad	78
28845	7	Sololá	701	Sololá	3	Barraneche	5	Mayo	2023-05-31T00:00:00	2024-11-06T05:00:00	6	Velocidad del viento	8
28846	7	Sololá	701	Sololá	3	Barraneche	5	Mayo	2023-05-31T00:00:00	2024-11-06T05:00:00	7	Dirección del viento	8.05
28847	7	Sololá	701	Sololá	3	Barraneche	5	Mayo	2023-05-31T00:00:00	2024-11-06T05:00:00	1	Precipitación	0
28848	7	Sololá	701	Sololá	3	Barraneche	5	Mayo	2023-05-31T00:00:00	2024-11-06T05:00:00	8	Radiación solar	0
28849	7	Sololá	701	Sololá	3	Barraneche	5	Mayo	2023-05-31T00:00:00	2024-11-06T06:00:00	2	Temperatura media	10.8
28850	7	Sololá	701	Sololá	3	Barraneche	5	Mayo	2023-05-31T00:00:00	2024-11-06T06:00:00	4	Temperatura máxima	11.2
28851	7	Sololá	701	Sololá	3	Barraneche	5	Mayo	2023-05-31T00:00:00	2024-11-06T06:00:00	3	Temperatura mínima	10.6
28852	7	Sololá	701	Sololá	3	Barraneche	5	Mayo	2023-05-31T00:00:00	2024-11-06T06:00:00	5	Humedad	79
28853	7	Sololá	701	Sololá	3	Barraneche	5	Mayo	2023-05-31T00:00:00	2024-11-06T06:00:00	6	Velocidad del viento	6.4
28854	7	Sololá	701	Sololá	3	Barraneche	5	Mayo	2023-05-31T00:00:00	2024-11-06T06:00:00	7	Dirección del viento	6.44
28855	7	Sololá	701	Sololá	3	Barraneche	5	Mayo	2023-05-31T00:00:00	2024-11-06T06:00:00	1	Precipitación	0
28856	7	Sololá	701	Sololá	3	Barraneche	5	Mayo	2023-05-31T00:00:00	2024-11-06T06:00:00	8	Radiación solar	8
28857	7	Sololá	701	Sololá	3	Barraneche	5	Mayo	2023-05-31T00:00:00	2024-11-06T07:00:00	2	Temperatura media	12.7
28858	7	Sololá	701	Sololá	3	Barraneche	5	Mayo	2023-05-31T00:00:00	2024-11-06T07:00:00	4	Temperatura máxima	12.7
28859	7	Sololá	701	Sololá	3	Barraneche	5	Mayo	2023-05-31T00:00:00	2024-11-06T07:00:00	3	Temperatura mínima	10.8
28860	7	Sololá	701	Sololá	3	Barraneche	5	Mayo	2023-05-31T00:00:00	2024-11-06T07:00:00	5	Humedad	77
28861	7	Sololá	701	Sololá	3	Barraneche	5	Mayo	2023-05-31T00:00:00	2024-11-06T07:00:00	6	Velocidad del viento	3.2
28862	7	Sololá	701	Sololá	3	Barraneche	5	Mayo	2023-05-31T00:00:00	2024-11-06T07:00:00	7	Dirección del viento	3.22
28863	7	Sololá	701	Sololá	3	Barraneche	5	Mayo	2023-05-31T00:00:00	2024-11-06T07:00:00	1	Precipitación	0
28864	7	Sololá	701	Sololá	3	Barraneche	5	Mayo	2023-05-31T00:00:00	2024-11-06T07:00:00	8	Radiación solar	99
28865	7	Sololá	701	Sololá	3	Barraneche	5	Mayo	2023-05-31T00:00:00	2024-11-06T08:00:00	2	Temperatura media	15.3
28866	7	Sololá	701	Sololá	3	Barraneche	5	Mayo	2023-05-31T00:00:00	2024-11-06T08:00:00	4	Temperatura máxima	15.4
28867	7	Sololá	701	Sololá	3	Barraneche	5	Mayo	2023-05-31T00:00:00	2024-11-06T08:00:00	3	Temperatura mínima	12.8
28868	7	Sololá	701	Sololá	3	Barraneche	5	Mayo	2023-05-31T00:00:00	2024-11-06T08:00:00	5	Humedad	71
28869	7	Sololá	701	Sololá	3	Barraneche	5	Mayo	2023-05-31T00:00:00	2024-11-06T08:00:00	6	Velocidad del viento	3.2
28870	7	Sololá	701	Sololá	3	Barraneche	5	Mayo	2023-05-31T00:00:00	2024-11-06T08:00:00	7	Dirección del viento	3.22
28871	7	Sololá	701	Sololá	3	Barraneche	5	Mayo	2023-05-31T00:00:00	2024-11-06T08:00:00	1	Precipitación	0
28872	7	Sololá	701	Sololá	3	Barraneche	5	Mayo	2023-05-31T00:00:00	2024-11-06T08:00:00	8	Radiación solar	356
28873	7	Sololá	701	Sololá	3	Barraneche	5	Mayo	2023-05-31T00:00:00	2024-11-06T09:00:00	2	Temperatura media	15.7
28874	7	Sololá	701	Sololá	3	Barraneche	5	Mayo	2023-05-31T00:00:00	2024-11-06T09:00:00	4	Temperatura máxima	16.4
28875	7	Sololá	701	Sololá	3	Barraneche	5	Mayo	2023-05-31T00:00:00	2024-11-06T09:00:00	3	Temperatura mínima	15.3
28876	7	Sololá	701	Sololá	3	Barraneche	5	Mayo	2023-05-31T00:00:00	2024-11-06T09:00:00	5	Humedad	73
28877	7	Sololá	701	Sololá	3	Barraneche	5	Mayo	2023-05-31T00:00:00	2024-11-06T09:00:00	6	Velocidad del viento	4.8
28878	7	Sololá	701	Sololá	3	Barraneche	5	Mayo	2023-05-31T00:00:00	2024-11-06T09:00:00	7	Dirección del viento	4.83
28879	7	Sololá	701	Sololá	3	Barraneche	5	Mayo	2023-05-31T00:00:00	2024-11-06T09:00:00	1	Precipitación	0
28880	7	Sololá	701	Sololá	3	Barraneche	5	Mayo	2023-05-31T00:00:00	2024-11-06T09:00:00	8	Radiación solar	517
28881	7	Sololá	701	Sololá	3	Barraneche	5	Mayo	2023-05-31T00:00:00	2024-11-06T10:00:00	2	Temperatura media	16.5
28882	7	Sololá	701	Sololá	3	Barraneche	5	Mayo	2023-05-31T00:00:00	2024-11-06T10:00:00	4	Temperatura máxima	16.5
28883	7	Sololá	701	Sololá	3	Barraneche	5	Mayo	2023-05-31T00:00:00	2024-11-06T10:00:00	3	Temperatura mínima	15.6
28884	7	Sololá	701	Sololá	3	Barraneche	5	Mayo	2023-05-31T00:00:00	2024-11-06T10:00:00	5	Humedad	69
28885	7	Sololá	701	Sololá	3	Barraneche	5	Mayo	2023-05-31T00:00:00	2024-11-06T10:00:00	6	Velocidad del viento	4.8
28886	7	Sololá	701	Sololá	3	Barraneche	5	Mayo	2023-05-31T00:00:00	2024-11-06T10:00:00	7	Dirección del viento	4.83
28887	7	Sololá	701	Sololá	3	Barraneche	5	Mayo	2023-05-31T00:00:00	2024-11-06T10:00:00	1	Precipitación	0
28888	7	Sololá	701	Sololá	3	Barraneche	5	Mayo	2023-05-31T00:00:00	2024-11-06T10:00:00	8	Radiación solar	305
28889	7	Sololá	701	Sololá	3	Barraneche	5	Mayo	2023-05-31T00:00:00	2024-11-06T11:00:00	2	Temperatura media	17.2
28890	7	Sololá	701	Sololá	3	Barraneche	5	Mayo	2023-05-31T00:00:00	2024-11-06T11:00:00	4	Temperatura máxima	17.4
28891	7	Sololá	701	Sololá	3	Barraneche	5	Mayo	2023-05-31T00:00:00	2024-11-06T11:00:00	3	Temperatura mínima	16.6
28892	7	Sololá	701	Sololá	3	Barraneche	5	Mayo	2023-05-31T00:00:00	2024-11-06T11:00:00	5	Humedad	73
28893	7	Sololá	701	Sololá	3	Barraneche	5	Mayo	2023-05-31T00:00:00	2024-11-06T11:00:00	6	Velocidad del viento	8
28894	7	Sololá	701	Sololá	3	Barraneche	5	Mayo	2023-05-31T00:00:00	2024-11-06T11:00:00	7	Dirección del viento	8.05
28895	7	Sololá	701	Sololá	3	Barraneche	5	Mayo	2023-05-31T00:00:00	2024-11-06T11:00:00	1	Precipitación	0
28896	7	Sololá	701	Sololá	3	Barraneche	5	Mayo	2023-05-31T00:00:00	2024-11-06T11:00:00	8	Radiación solar	654
28897	7	Sololá	701	Sololá	3	Barraneche	5	Mayo	2023-05-31T00:00:00	2024-11-06T12:00:00	2	Temperatura media	16.7
28898	7	Sololá	701	Sololá	3	Barraneche	5	Mayo	2023-05-31T00:00:00	2024-11-06T12:00:00	4	Temperatura máxima	17.2
28899	7	Sololá	701	Sololá	3	Barraneche	5	Mayo	2023-05-31T00:00:00	2024-11-06T12:00:00	3	Temperatura mínima	15.8
28900	7	Sololá	701	Sololá	3	Barraneche	5	Mayo	2023-05-31T00:00:00	2024-11-06T12:00:00	5	Humedad	73
28901	7	Sololá	701	Sololá	3	Barraneche	5	Mayo	2023-05-31T00:00:00	2024-11-06T12:00:00	6	Velocidad del viento	9.7
28902	7	Sololá	701	Sololá	3	Barraneche	5	Mayo	2023-05-31T00:00:00	2024-11-06T12:00:00	7	Dirección del viento	9.66
28903	7	Sololá	701	Sololá	3	Barraneche	5	Mayo	2023-05-31T00:00:00	2024-11-06T12:00:00	1	Precipitación	0
28904	7	Sololá	701	Sololá	3	Barraneche	5	Mayo	2023-05-31T00:00:00	2024-11-06T12:00:00	8	Radiación solar	377
28905	7	Sololá	701	Sololá	3	Barraneche	5	Mayo	2023-05-31T00:00:00	2024-11-06T13:00:00	2	Temperatura media	17.2
28906	7	Sololá	701	Sololá	3	Barraneche	5	Mayo	2023-05-31T00:00:00	2024-11-06T13:00:00	4	Temperatura máxima	17.2
28907	7	Sololá	701	Sololá	3	Barraneche	5	Mayo	2023-05-31T00:00:00	2024-11-06T13:00:00	3	Temperatura mínima	16.7
28908	7	Sololá	701	Sololá	3	Barraneche	5	Mayo	2023-05-31T00:00:00	2024-11-06T13:00:00	5	Humedad	75
28909	7	Sololá	701	Sololá	3	Barraneche	5	Mayo	2023-05-31T00:00:00	2024-11-06T13:00:00	6	Velocidad del viento	6.4
28910	7	Sololá	701	Sololá	3	Barraneche	5	Mayo	2023-05-31T00:00:00	2024-11-06T13:00:00	7	Dirección del viento	6.44
28911	7	Sololá	701	Sololá	3	Barraneche	5	Mayo	2023-05-31T00:00:00	2024-11-06T13:00:00	1	Precipitación	0
28912	7	Sololá	701	Sololá	3	Barraneche	5	Mayo	2023-05-31T00:00:00	2024-11-06T13:00:00	8	Radiación solar	355
28913	7	Sololá	701	Sololá	3	Barraneche	5	Mayo	2023-05-31T00:00:00	2024-11-06T14:00:00	2	Temperatura media	17.1
28914	7	Sololá	701	Sololá	3	Barraneche	5	Mayo	2023-05-31T00:00:00	2024-11-06T14:00:00	4	Temperatura máxima	17.4
28915	7	Sololá	701	Sololá	3	Barraneche	5	Mayo	2023-05-31T00:00:00	2024-11-06T14:00:00	3	Temperatura mínima	16.6
28916	7	Sololá	701	Sololá	3	Barraneche	5	Mayo	2023-05-31T00:00:00	2024-11-06T14:00:00	5	Humedad	76
28917	7	Sololá	701	Sololá	3	Barraneche	5	Mayo	2023-05-31T00:00:00	2024-11-06T14:00:00	6	Velocidad del viento	8
28918	7	Sololá	701	Sololá	3	Barraneche	5	Mayo	2023-05-31T00:00:00	2024-11-06T14:00:00	7	Dirección del viento	8.05
28919	7	Sololá	701	Sololá	3	Barraneche	5	Mayo	2023-05-31T00:00:00	2024-11-06T14:00:00	1	Precipitación	0
28920	7	Sololá	701	Sololá	3	Barraneche	5	Mayo	2023-05-31T00:00:00	2024-11-06T14:00:00	8	Radiación solar	330
28921	7	Sololá	701	Sololá	3	Barraneche	5	Mayo	2023-05-31T00:00:00	2024-11-06T15:00:00	2	Temperatura media	16.1
28922	7	Sololá	701	Sololá	3	Barraneche	5	Mayo	2023-05-31T00:00:00	2024-11-06T15:00:00	4	Temperatura máxima	17.3
28923	7	Sololá	701	Sololá	3	Barraneche	5	Mayo	2023-05-31T00:00:00	2024-11-06T15:00:00	3	Temperatura mínima	15.9
28924	7	Sololá	701	Sololá	3	Barraneche	5	Mayo	2023-05-31T00:00:00	2024-11-06T15:00:00	5	Humedad	79
28925	7	Sololá	701	Sololá	3	Barraneche	5	Mayo	2023-05-31T00:00:00	2024-11-06T15:00:00	6	Velocidad del viento	8
28926	7	Sololá	701	Sololá	3	Barraneche	5	Mayo	2023-05-31T00:00:00	2024-11-06T15:00:00	7	Dirección del viento	8.05
28927	7	Sololá	701	Sololá	3	Barraneche	5	Mayo	2023-05-31T00:00:00	2024-11-06T15:00:00	1	Precipitación	0
28928	7	Sololá	701	Sololá	3	Barraneche	5	Mayo	2023-05-31T00:00:00	2024-11-06T15:00:00	8	Radiación solar	236
28929	7	Sololá	701	Sololá	3	Barraneche	5	Mayo	2023-05-31T00:00:00	2024-11-06T16:00:00	2	Temperatura media	15.7
28930	7	Sololá	701	Sololá	3	Barraneche	5	Mayo	2023-05-31T00:00:00	2024-11-06T16:00:00	4	Temperatura máxima	16.3
28931	7	Sololá	701	Sololá	3	Barraneche	5	Mayo	2023-05-31T00:00:00	2024-11-06T16:00:00	3	Temperatura mínima	15.7
28932	7	Sololá	701	Sololá	3	Barraneche	5	Mayo	2023-05-31T00:00:00	2024-11-06T16:00:00	5	Humedad	80
28933	7	Sololá	701	Sololá	3	Barraneche	5	Mayo	2023-05-31T00:00:00	2024-11-06T16:00:00	6	Velocidad del viento	6.4
28934	7	Sololá	701	Sololá	3	Barraneche	5	Mayo	2023-05-31T00:00:00	2024-11-06T16:00:00	7	Dirección del viento	6.44
28935	7	Sololá	701	Sololá	3	Barraneche	5	Mayo	2023-05-31T00:00:00	2024-11-06T16:00:00	1	Precipitación	0
28936	7	Sololá	701	Sololá	3	Barraneche	5	Mayo	2023-05-31T00:00:00	2024-11-06T16:00:00	8	Radiación solar	115
28937	7	Sololá	701	Sololá	3	Barraneche	5	Mayo	2023-05-31T00:00:00	2024-11-06T17:00:00	2	Temperatura media	15.4
28938	7	Sololá	701	Sololá	3	Barraneche	5	Mayo	2023-05-31T00:00:00	2024-11-06T17:00:00	4	Temperatura máxima	15.7
28939	7	Sololá	701	Sololá	3	Barraneche	5	Mayo	2023-05-31T00:00:00	2024-11-06T17:00:00	3	Temperatura mínima	15.3
28940	7	Sololá	701	Sololá	3	Barraneche	5	Mayo	2023-05-31T00:00:00	2024-11-06T17:00:00	5	Humedad	82
28941	7	Sololá	701	Sololá	3	Barraneche	5	Mayo	2023-05-31T00:00:00	2024-11-06T17:00:00	6	Velocidad del viento	3.2
28942	7	Sololá	701	Sololá	3	Barraneche	5	Mayo	2023-05-31T00:00:00	2024-11-06T17:00:00	7	Dirección del viento	3.22
28943	7	Sololá	701	Sololá	3	Barraneche	5	Mayo	2023-05-31T00:00:00	2024-11-06T17:00:00	1	Precipitación	0.2
28944	7	Sololá	701	Sololá	3	Barraneche	5	Mayo	2023-05-31T00:00:00	2024-11-06T17:00:00	8	Radiación solar	22
28945	7	Sololá	701	Sololá	3	Barraneche	5	Mayo	2023-05-31T00:00:00	2024-11-06T18:00:00	2	Temperatura media	13.7
28946	7	Sololá	701	Sololá	3	Barraneche	5	Mayo	2023-05-31T00:00:00	2024-11-06T18:00:00	4	Temperatura máxima	15.4
28947	7	Sololá	701	Sololá	3	Barraneche	5	Mayo	2023-05-31T00:00:00	2024-11-06T18:00:00	3	Temperatura mínima	13.6
28948	7	Sololá	701	Sololá	3	Barraneche	5	Mayo	2023-05-31T00:00:00	2024-11-06T18:00:00	5	Humedad	81
28949	7	Sololá	701	Sololá	3	Barraneche	5	Mayo	2023-05-31T00:00:00	2024-11-06T18:00:00	6	Velocidad del viento	4.8
28950	7	Sololá	701	Sololá	3	Barraneche	5	Mayo	2023-05-31T00:00:00	2024-11-06T18:00:00	7	Dirección del viento	4.83
28951	7	Sololá	701	Sololá	3	Barraneche	5	Mayo	2023-05-31T00:00:00	2024-11-06T18:00:00	1	Precipitación	4.2
28952	7	Sololá	701	Sololá	3	Barraneche	5	Mayo	2023-05-31T00:00:00	2024-11-06T18:00:00	8	Radiación solar	34
28953	7	Sololá	701	Sololá	3	Barraneche	5	Mayo	2023-05-31T00:00:00	2024-11-06T19:00:00	2	Temperatura media	14.3
28954	7	Sololá	701	Sololá	3	Barraneche	5	Mayo	2023-05-31T00:00:00	2024-11-06T19:00:00	4	Temperatura máxima	14.3
28955	7	Sololá	701	Sololá	3	Barraneche	5	Mayo	2023-05-31T00:00:00	2024-11-06T19:00:00	3	Temperatura mínima	13.7
28956	7	Sololá	701	Sololá	3	Barraneche	5	Mayo	2023-05-31T00:00:00	2024-11-06T19:00:00	5	Humedad	82
28957	7	Sololá	701	Sololá	3	Barraneche	5	Mayo	2023-05-31T00:00:00	2024-11-06T19:00:00	6	Velocidad del viento	3.2
28958	7	Sololá	701	Sololá	3	Barraneche	5	Mayo	2023-05-31T00:00:00	2024-11-06T19:00:00	7	Dirección del viento	3.22
28959	7	Sololá	701	Sololá	3	Barraneche	5	Mayo	2023-05-31T00:00:00	2024-11-06T19:00:00	1	Precipitación	0
28960	7	Sololá	701	Sololá	3	Barraneche	5	Mayo	2023-05-31T00:00:00	2024-11-06T19:00:00	8	Radiación solar	0
28961	7	Sololá	701	Sololá	3	Barraneche	5	Mayo	2023-05-31T00:00:00	2024-11-06T20:00:00	2	Temperatura media	13.6
28962	7	Sololá	701	Sololá	3	Barraneche	5	Mayo	2023-05-31T00:00:00	2024-11-06T20:00:00	4	Temperatura máxima	14.3
28963	7	Sololá	701	Sololá	3	Barraneche	5	Mayo	2023-05-31T00:00:00	2024-11-06T20:00:00	3	Temperatura mínima	13.6
28964	7	Sololá	701	Sololá	3	Barraneche	5	Mayo	2023-05-31T00:00:00	2024-11-06T20:00:00	5	Humedad	83
28965	7	Sololá	701	Sololá	3	Barraneche	5	Mayo	2023-05-31T00:00:00	2024-11-06T20:00:00	6	Velocidad del viento	1.6
28966	7	Sololá	701	Sololá	3	Barraneche	5	Mayo	2023-05-31T00:00:00	2024-11-06T20:00:00	7	Dirección del viento	1.61
28967	7	Sololá	701	Sololá	3	Barraneche	5	Mayo	2023-05-31T00:00:00	2024-11-06T20:00:00	1	Precipitación	0
28968	7	Sololá	701	Sololá	3	Barraneche	5	Mayo	2023-05-31T00:00:00	2024-11-06T20:00:00	8	Radiación solar	0
28969	7	Sololá	701	Sololá	3	Barraneche	5	Mayo	2023-05-31T00:00:00	2024-11-06T21:00:00	2	Temperatura media	13.8
28970	7	Sololá	701	Sololá	3	Barraneche	5	Mayo	2023-05-31T00:00:00	2024-11-06T21:00:00	4	Temperatura máxima	13.8
28971	7	Sololá	701	Sololá	3	Barraneche	5	Mayo	2023-05-31T00:00:00	2024-11-06T21:00:00	3	Temperatura mínima	13.4
28972	7	Sololá	701	Sololá	3	Barraneche	5	Mayo	2023-05-31T00:00:00	2024-11-06T21:00:00	5	Humedad	84
28973	7	Sololá	701	Sololá	3	Barraneche	5	Mayo	2023-05-31T00:00:00	2024-11-06T21:00:00	6	Velocidad del viento	3.2
28974	7	Sololá	701	Sololá	3	Barraneche	5	Mayo	2023-05-31T00:00:00	2024-11-06T21:00:00	7	Dirección del viento	3.22
28975	7	Sololá	701	Sololá	3	Barraneche	5	Mayo	2023-05-31T00:00:00	2024-11-06T21:00:00	1	Precipitación	0
28976	7	Sololá	701	Sololá	3	Barraneche	5	Mayo	2023-05-31T00:00:00	2024-11-06T21:00:00	8	Radiación solar	0
28977	7	Sololá	701	Sololá	3	Barraneche	5	Mayo	2023-05-31T00:00:00	2024-11-06T22:00:00	2	Temperatura media	13.9
28978	7	Sololá	701	Sololá	3	Barraneche	5	Mayo	2023-05-31T00:00:00	2024-11-06T22:00:00	4	Temperatura máxima	13.9
28979	7	Sololá	701	Sololá	3	Barraneche	5	Mayo	2023-05-31T00:00:00	2024-11-06T22:00:00	3	Temperatura mínima	13.7
28980	7	Sololá	701	Sololá	3	Barraneche	5	Mayo	2023-05-31T00:00:00	2024-11-06T22:00:00	5	Humedad	83
28981	7	Sololá	701	Sololá	3	Barraneche	5	Mayo	2023-05-31T00:00:00	2024-11-06T22:00:00	6	Velocidad del viento	3.2
28982	7	Sololá	701	Sololá	3	Barraneche	5	Mayo	2023-05-31T00:00:00	2024-11-06T22:00:00	7	Dirección del viento	3.22
28983	7	Sololá	701	Sololá	3	Barraneche	5	Mayo	2023-05-31T00:00:00	2024-11-06T22:00:00	1	Precipitación	0
28984	7	Sololá	701	Sololá	3	Barraneche	5	Mayo	2023-05-31T00:00:00	2024-11-06T22:00:00	8	Radiación solar	0
28985	7	Sololá	701	Sololá	3	Barraneche	5	Mayo	2023-05-31T00:00:00	2024-11-06T23:00:00	2	Temperatura media	13.6
28986	7	Sololá	701	Sololá	3	Barraneche	5	Mayo	2023-05-31T00:00:00	2024-11-06T23:00:00	4	Temperatura máxima	14
28987	7	Sololá	701	Sololá	3	Barraneche	5	Mayo	2023-05-31T00:00:00	2024-11-06T23:00:00	3	Temperatura mínima	13.4
28988	7	Sololá	701	Sololá	3	Barraneche	5	Mayo	2023-05-31T00:00:00	2024-11-06T23:00:00	5	Humedad	81
28989	7	Sololá	701	Sololá	3	Barraneche	5	Mayo	2023-05-31T00:00:00	2024-11-06T23:00:00	6	Velocidad del viento	4.8
28990	7	Sololá	701	Sololá	3	Barraneche	5	Mayo	2023-05-31T00:00:00	2024-11-06T23:00:00	7	Dirección del viento	4.83
28991	7	Sololá	701	Sololá	3	Barraneche	5	Mayo	2023-05-31T00:00:00	2024-11-06T23:00:00	1	Precipitación	0.4
28992	7	Sololá	701	Sololá	3	Barraneche	5	Mayo	2023-05-31T00:00:00	2024-11-06T23:00:00	8	Radiación solar	0
28993	7	Sololá	701	Sololá	3	Barraneche	6	Junio	2023-01-06T00:00:00	2024-11-06T00:00:00	2	Temperatura media	13.3
28994	7	Sololá	701	Sololá	3	Barraneche	6	Junio	2023-01-06T00:00:00	2024-11-06T00:00:00	4	Temperatura máxima	13.6
28995	7	Sololá	701	Sololá	3	Barraneche	6	Junio	2023-01-06T00:00:00	2024-11-06T00:00:00	3	Temperatura mínima	13.3
28996	7	Sololá	701	Sololá	3	Barraneche	6	Junio	2023-01-06T00:00:00	2024-11-06T00:00:00	5	Humedad	82
28997	7	Sololá	701	Sololá	3	Barraneche	6	Junio	2023-01-06T00:00:00	2024-11-06T00:00:00	6	Velocidad del viento	4.8
28998	7	Sololá	701	Sololá	3	Barraneche	6	Junio	2023-01-06T00:00:00	2024-11-06T00:00:00	7	Dirección del viento	4.83
28999	7	Sololá	701	Sololá	3	Barraneche	6	Junio	2023-01-06T00:00:00	2024-11-06T00:00:00	1	Precipitación	0
29000	7	Sololá	701	Sololá	3	Barraneche	6	Junio	2023-01-06T00:00:00	2024-11-06T00:00:00	8	Radiación solar	0
29001	7	Sololá	701	Sololá	3	Barraneche	6	Junio	2023-01-06T00:00:00	2024-11-06T01:00:00	2	Temperatura media	12.7
29002	7	Sololá	701	Sololá	3	Barraneche	6	Junio	2023-01-06T00:00:00	2024-11-06T01:00:00	4	Temperatura máxima	13.3
29003	7	Sololá	701	Sololá	3	Barraneche	6	Junio	2023-01-06T00:00:00	2024-11-06T01:00:00	3	Temperatura mínima	12.6
29004	7	Sololá	701	Sololá	3	Barraneche	6	Junio	2023-01-06T00:00:00	2024-11-06T01:00:00	5	Humedad	84
29005	7	Sololá	701	Sololá	3	Barraneche	6	Junio	2023-01-06T00:00:00	2024-11-06T01:00:00	6	Velocidad del viento	1.6
29006	7	Sololá	701	Sololá	3	Barraneche	6	Junio	2023-01-06T00:00:00	2024-11-06T01:00:00	7	Dirección del viento	1.61
29007	7	Sololá	701	Sololá	3	Barraneche	6	Junio	2023-01-06T00:00:00	2024-11-06T01:00:00	1	Precipitación	0
29008	7	Sololá	701	Sololá	3	Barraneche	6	Junio	2023-01-06T00:00:00	2024-11-06T01:00:00	8	Radiación solar	0
29009	7	Sololá	701	Sololá	3	Barraneche	6	Junio	2023-01-06T00:00:00	2024-11-06T02:00:00	2	Temperatura media	12.1
29010	7	Sololá	701	Sololá	3	Barraneche	6	Junio	2023-01-06T00:00:00	2024-11-06T02:00:00	4	Temperatura máxima	12.7
29011	7	Sololá	701	Sololá	3	Barraneche	6	Junio	2023-01-06T00:00:00	2024-11-06T02:00:00	3	Temperatura mínima	12.1
29012	7	Sololá	701	Sololá	3	Barraneche	6	Junio	2023-01-06T00:00:00	2024-11-06T02:00:00	5	Humedad	83
29013	7	Sololá	701	Sololá	3	Barraneche	6	Junio	2023-01-06T00:00:00	2024-11-06T02:00:00	6	Velocidad del viento	4.8
29014	7	Sololá	701	Sololá	3	Barraneche	6	Junio	2023-01-06T00:00:00	2024-11-06T02:00:00	7	Dirección del viento	4.83
29015	7	Sololá	701	Sololá	3	Barraneche	6	Junio	2023-01-06T00:00:00	2024-11-06T02:00:00	1	Precipitación	0
29016	7	Sololá	701	Sololá	3	Barraneche	6	Junio	2023-01-06T00:00:00	2024-11-06T02:00:00	8	Radiación solar	0
29017	7	Sololá	701	Sololá	3	Barraneche	6	Junio	2023-01-06T00:00:00	2024-11-06T03:00:00	2	Temperatura media	11.9
29018	7	Sololá	701	Sololá	3	Barraneche	6	Junio	2023-01-06T00:00:00	2024-11-06T03:00:00	4	Temperatura máxima	12.1
29019	7	Sololá	701	Sololá	3	Barraneche	6	Junio	2023-01-06T00:00:00	2024-11-06T03:00:00	3	Temperatura mínima	11.8
29020	7	Sololá	701	Sololá	3	Barraneche	6	Junio	2023-01-06T00:00:00	2024-11-06T03:00:00	5	Humedad	82
29021	7	Sololá	701	Sololá	3	Barraneche	6	Junio	2023-01-06T00:00:00	2024-11-06T03:00:00	6	Velocidad del viento	4.8
29022	7	Sololá	701	Sololá	3	Barraneche	6	Junio	2023-01-06T00:00:00	2024-11-06T03:00:00	7	Dirección del viento	4.83
29023	7	Sololá	701	Sololá	3	Barraneche	6	Junio	2023-01-06T00:00:00	2024-11-06T03:00:00	1	Precipitación	0
29024	7	Sololá	701	Sololá	3	Barraneche	6	Junio	2023-01-06T00:00:00	2024-11-06T03:00:00	8	Radiación solar	0
29025	7	Sololá	701	Sololá	3	Barraneche	6	Junio	2023-01-06T00:00:00	2024-11-06T04:00:00	2	Temperatura media	11.6
29026	7	Sololá	701	Sololá	3	Barraneche	6	Junio	2023-01-06T00:00:00	2024-11-06T04:00:00	4	Temperatura máxima	12
29027	7	Sololá	701	Sololá	3	Barraneche	6	Junio	2023-01-06T00:00:00	2024-11-06T04:00:00	3	Temperatura mínima	11.4
29028	7	Sololá	701	Sololá	3	Barraneche	6	Junio	2023-01-06T00:00:00	2024-11-06T04:00:00	5	Humedad	81
29029	7	Sololá	701	Sololá	3	Barraneche	6	Junio	2023-01-06T00:00:00	2024-11-06T04:00:00	6	Velocidad del viento	6.4
29030	7	Sololá	701	Sololá	3	Barraneche	6	Junio	2023-01-06T00:00:00	2024-11-06T04:00:00	7	Dirección del viento	6.44
29031	7	Sololá	701	Sololá	3	Barraneche	6	Junio	2023-01-06T00:00:00	2024-11-06T04:00:00	1	Precipitación	0.2
29032	7	Sololá	701	Sololá	3	Barraneche	6	Junio	2023-01-06T00:00:00	2024-11-06T04:00:00	8	Radiación solar	0
29033	7	Sololá	701	Sololá	3	Barraneche	6	Junio	2023-01-06T00:00:00	2024-11-06T05:00:00	2	Temperatura media	11.2
29034	7	Sololá	701	Sololá	3	Barraneche	6	Junio	2023-01-06T00:00:00	2024-11-06T05:00:00	4	Temperatura máxima	11.6
29035	7	Sololá	701	Sololá	3	Barraneche	6	Junio	2023-01-06T00:00:00	2024-11-06T05:00:00	3	Temperatura mínima	11.2
29036	7	Sololá	701	Sololá	3	Barraneche	6	Junio	2023-01-06T00:00:00	2024-11-06T05:00:00	5	Humedad	81
29037	7	Sololá	701	Sololá	3	Barraneche	6	Junio	2023-01-06T00:00:00	2024-11-06T05:00:00	6	Velocidad del viento	6.4
29038	7	Sololá	701	Sololá	3	Barraneche	6	Junio	2023-01-06T00:00:00	2024-11-06T05:00:00	7	Dirección del viento	6.44
29039	7	Sololá	701	Sololá	3	Barraneche	6	Junio	2023-01-06T00:00:00	2024-11-06T05:00:00	1	Precipitación	0
29040	7	Sololá	701	Sololá	3	Barraneche	6	Junio	2023-01-06T00:00:00	2024-11-06T05:00:00	8	Radiación solar	0
29041	7	Sololá	701	Sololá	3	Barraneche	6	Junio	2023-01-06T00:00:00	2024-11-06T06:00:00	2	Temperatura media	11.6
29042	7	Sololá	701	Sololá	3	Barraneche	6	Junio	2023-01-06T00:00:00	2024-11-06T06:00:00	4	Temperatura máxima	11.6
29043	7	Sololá	701	Sololá	3	Barraneche	6	Junio	2023-01-06T00:00:00	2024-11-06T06:00:00	3	Temperatura mínima	11.1
29044	7	Sololá	701	Sololá	3	Barraneche	6	Junio	2023-01-06T00:00:00	2024-11-06T06:00:00	5	Humedad	79
29045	7	Sololá	701	Sololá	3	Barraneche	6	Junio	2023-01-06T00:00:00	2024-11-06T06:00:00	6	Velocidad del viento	8
29046	7	Sololá	701	Sololá	3	Barraneche	6	Junio	2023-01-06T00:00:00	2024-11-06T06:00:00	7	Dirección del viento	8.05
29047	7	Sololá	701	Sololá	3	Barraneche	6	Junio	2023-01-06T00:00:00	2024-11-06T06:00:00	1	Precipitación	0
29048	7	Sololá	701	Sololá	3	Barraneche	6	Junio	2023-01-06T00:00:00	2024-11-06T06:00:00	8	Radiación solar	11
29049	7	Sololá	701	Sololá	3	Barraneche	6	Junio	2023-01-06T00:00:00	2024-11-06T07:00:00	2	Temperatura media	12.3
29050	7	Sololá	701	Sololá	3	Barraneche	6	Junio	2023-01-06T00:00:00	2024-11-06T07:00:00	4	Temperatura máxima	12.3
29051	7	Sololá	701	Sololá	3	Barraneche	6	Junio	2023-01-06T00:00:00	2024-11-06T07:00:00	3	Temperatura mínima	11.3
29052	7	Sololá	701	Sololá	3	Barraneche	6	Junio	2023-01-06T00:00:00	2024-11-06T07:00:00	5	Humedad	79
29053	7	Sololá	701	Sololá	3	Barraneche	6	Junio	2023-01-06T00:00:00	2024-11-06T07:00:00	6	Velocidad del viento	6.4
29054	7	Sololá	701	Sololá	3	Barraneche	6	Junio	2023-01-06T00:00:00	2024-11-06T07:00:00	7	Dirección del viento	6.44
29055	7	Sololá	701	Sololá	3	Barraneche	6	Junio	2023-01-06T00:00:00	2024-11-06T07:00:00	1	Precipitación	0
29056	7	Sololá	701	Sololá	3	Barraneche	6	Junio	2023-01-06T00:00:00	2024-11-06T07:00:00	8	Radiación solar	98
29057	7	Sololá	701	Sololá	3	Barraneche	6	Junio	2023-01-06T00:00:00	2024-11-06T08:00:00	2	Temperatura media	15.1
29058	7	Sololá	701	Sololá	3	Barraneche	6	Junio	2023-01-06T00:00:00	2024-11-06T08:00:00	4	Temperatura máxima	15.1
29059	7	Sololá	701	Sololá	3	Barraneche	6	Junio	2023-01-06T00:00:00	2024-11-06T08:00:00	3	Temperatura mínima	12.4
29060	7	Sololá	701	Sololá	3	Barraneche	6	Junio	2023-01-06T00:00:00	2024-11-06T08:00:00	5	Humedad	74
29061	7	Sololá	701	Sololá	3	Barraneche	6	Junio	2023-01-06T00:00:00	2024-11-06T08:00:00	6	Velocidad del viento	4.8
29062	7	Sololá	701	Sololá	3	Barraneche	6	Junio	2023-01-06T00:00:00	2024-11-06T08:00:00	7	Dirección del viento	4.83
29063	7	Sololá	701	Sololá	3	Barraneche	6	Junio	2023-01-06T00:00:00	2024-11-06T08:00:00	1	Precipitación	0
29064	7	Sololá	701	Sololá	3	Barraneche	6	Junio	2023-01-06T00:00:00	2024-11-06T08:00:00	8	Radiación solar	354
29065	7	Sololá	701	Sololá	3	Barraneche	6	Junio	2023-01-06T00:00:00	2024-11-06T09:00:00	2	Temperatura media	16.8
29066	7	Sololá	701	Sololá	3	Barraneche	6	Junio	2023-01-06T00:00:00	2024-11-06T09:00:00	4	Temperatura máxima	16.8
29067	7	Sololá	701	Sololá	3	Barraneche	6	Junio	2023-01-06T00:00:00	2024-11-06T09:00:00	3	Temperatura mínima	15.1
29068	7	Sololá	701	Sololá	3	Barraneche	6	Junio	2023-01-06T00:00:00	2024-11-06T09:00:00	5	Humedad	71
29069	7	Sololá	701	Sololá	3	Barraneche	6	Junio	2023-01-06T00:00:00	2024-11-06T09:00:00	6	Velocidad del viento	3.2
29070	7	Sololá	701	Sololá	3	Barraneche	6	Junio	2023-01-06T00:00:00	2024-11-06T09:00:00	7	Dirección del viento	3.22
29071	7	Sololá	701	Sololá	3	Barraneche	6	Junio	2023-01-06T00:00:00	2024-11-06T09:00:00	1	Precipitación	0
29072	7	Sololá	701	Sololá	3	Barraneche	6	Junio	2023-01-06T00:00:00	2024-11-06T09:00:00	8	Radiación solar	594
29073	7	Sololá	701	Sololá	3	Barraneche	6	Junio	2023-01-06T00:00:00	2024-11-06T10:00:00	2	Temperatura media	17.7
29074	7	Sololá	701	Sololá	3	Barraneche	6	Junio	2023-01-06T00:00:00	2024-11-06T10:00:00	4	Temperatura máxima	17.7
29075	7	Sololá	701	Sololá	3	Barraneche	6	Junio	2023-01-06T00:00:00	2024-11-06T10:00:00	3	Temperatura mínima	16.7
29076	7	Sololá	701	Sololá	3	Barraneche	6	Junio	2023-01-06T00:00:00	2024-11-06T10:00:00	5	Humedad	71
29077	7	Sololá	701	Sololá	3	Barraneche	6	Junio	2023-01-06T00:00:00	2024-11-06T10:00:00	6	Velocidad del viento	6.4
29078	7	Sololá	701	Sololá	3	Barraneche	6	Junio	2023-01-06T00:00:00	2024-11-06T10:00:00	7	Dirección del viento	6.44
29079	7	Sololá	701	Sololá	3	Barraneche	6	Junio	2023-01-06T00:00:00	2024-11-06T10:00:00	1	Precipitación	0
29080	7	Sololá	701	Sololá	3	Barraneche	6	Junio	2023-01-06T00:00:00	2024-11-06T10:00:00	8	Radiación solar	811
29081	7	Sololá	701	Sololá	3	Barraneche	6	Junio	2023-01-06T00:00:00	2024-11-06T11:00:00	2	Temperatura media	18.7
29082	7	Sololá	701	Sololá	3	Barraneche	6	Junio	2023-01-06T00:00:00	2024-11-06T11:00:00	4	Temperatura máxima	18.7
29083	7	Sololá	701	Sololá	3	Barraneche	6	Junio	2023-01-06T00:00:00	2024-11-06T11:00:00	3	Temperatura mínima	17.7
29084	7	Sololá	701	Sololá	3	Barraneche	6	Junio	2023-01-06T00:00:00	2024-11-06T11:00:00	5	Humedad	66
29085	7	Sololá	701	Sololá	3	Barraneche	6	Junio	2023-01-06T00:00:00	2024-11-06T11:00:00	6	Velocidad del viento	8
29086	7	Sololá	701	Sololá	3	Barraneche	6	Junio	2023-01-06T00:00:00	2024-11-06T11:00:00	7	Dirección del viento	8.05
29087	7	Sololá	701	Sololá	3	Barraneche	6	Junio	2023-01-06T00:00:00	2024-11-06T11:00:00	1	Precipitación	0
29088	7	Sololá	701	Sololá	3	Barraneche	6	Junio	2023-01-06T00:00:00	2024-11-06T11:00:00	8	Radiación solar	1023
29089	7	Sololá	701	Sololá	3	Barraneche	6	Junio	2023-01-06T00:00:00	2024-11-06T12:00:00	2	Temperatura media	17.9
29090	7	Sololá	701	Sololá	3	Barraneche	6	Junio	2023-01-06T00:00:00	2024-11-06T12:00:00	4	Temperatura máxima	18.8
29091	7	Sololá	701	Sololá	3	Barraneche	6	Junio	2023-01-06T00:00:00	2024-11-06T12:00:00	3	Temperatura mínima	17.7
29092	7	Sololá	701	Sololá	3	Barraneche	6	Junio	2023-01-06T00:00:00	2024-11-06T12:00:00	5	Humedad	65
29093	7	Sololá	701	Sololá	3	Barraneche	6	Junio	2023-01-06T00:00:00	2024-11-06T12:00:00	6	Velocidad del viento	9.7
29094	7	Sololá	701	Sololá	3	Barraneche	6	Junio	2023-01-06T00:00:00	2024-11-06T12:00:00	7	Dirección del viento	9.66
29095	7	Sololá	701	Sololá	3	Barraneche	6	Junio	2023-01-06T00:00:00	2024-11-06T12:00:00	1	Precipitación	0
29096	7	Sololá	701	Sololá	3	Barraneche	6	Junio	2023-01-06T00:00:00	2024-11-06T12:00:00	8	Radiación solar	474
29097	7	Sololá	701	Sololá	3	Barraneche	6	Junio	2023-01-06T00:00:00	2024-11-06T13:00:00	2	Temperatura media	17.4
29098	7	Sololá	701	Sololá	3	Barraneche	6	Junio	2023-01-06T00:00:00	2024-11-06T13:00:00	4	Temperatura máxima	18.2
29099	7	Sololá	701	Sololá	3	Barraneche	6	Junio	2023-01-06T00:00:00	2024-11-06T13:00:00	3	Temperatura mínima	17.2
29100	7	Sololá	701	Sololá	3	Barraneche	6	Junio	2023-01-06T00:00:00	2024-11-06T13:00:00	5	Humedad	75
29101	7	Sololá	701	Sololá	3	Barraneche	6	Junio	2023-01-06T00:00:00	2024-11-06T13:00:00	6	Velocidad del viento	11.3
29102	7	Sololá	701	Sololá	3	Barraneche	6	Junio	2023-01-06T00:00:00	2024-11-06T13:00:00	7	Dirección del viento	11.27
29103	7	Sololá	701	Sololá	3	Barraneche	6	Junio	2023-01-06T00:00:00	2024-11-06T13:00:00	1	Precipitación	0
29104	7	Sololá	701	Sololá	3	Barraneche	6	Junio	2023-01-06T00:00:00	2024-11-06T13:00:00	8	Radiación solar	394
29105	7	Sololá	701	Sololá	3	Barraneche	6	Junio	2023-01-06T00:00:00	2024-11-06T14:00:00	2	Temperatura media	18.1
29106	7	Sololá	701	Sololá	3	Barraneche	6	Junio	2023-01-06T00:00:00	2024-11-06T14:00:00	4	Temperatura máxima	18.1
29107	7	Sololá	701	Sololá	3	Barraneche	6	Junio	2023-01-06T00:00:00	2024-11-06T14:00:00	3	Temperatura mínima	17.3
29108	7	Sololá	701	Sololá	3	Barraneche	6	Junio	2023-01-06T00:00:00	2024-11-06T14:00:00	5	Humedad	76
29109	7	Sololá	701	Sololá	3	Barraneche	6	Junio	2023-01-06T00:00:00	2024-11-06T14:00:00	6	Velocidad del viento	9.7
29110	7	Sololá	701	Sololá	3	Barraneche	6	Junio	2023-01-06T00:00:00	2024-11-06T14:00:00	7	Dirección del viento	9.66
29111	7	Sololá	701	Sololá	3	Barraneche	6	Junio	2023-01-06T00:00:00	2024-11-06T14:00:00	1	Precipitación	0
29112	7	Sololá	701	Sololá	3	Barraneche	6	Junio	2023-01-06T00:00:00	2024-11-06T14:00:00	8	Radiación solar	453
29113	7	Sololá	701	Sololá	3	Barraneche	6	Junio	2023-01-06T00:00:00	2024-11-06T15:00:00	2	Temperatura media	17.4
29114	7	Sololá	701	Sololá	3	Barraneche	6	Junio	2023-01-06T00:00:00	2024-11-06T15:00:00	4	Temperatura máxima	18.2
29115	7	Sololá	701	Sololá	3	Barraneche	6	Junio	2023-01-06T00:00:00	2024-11-06T15:00:00	3	Temperatura mínima	17.4
29116	7	Sololá	701	Sololá	3	Barraneche	6	Junio	2023-01-06T00:00:00	2024-11-06T15:00:00	5	Humedad	77
29117	7	Sololá	701	Sololá	3	Barraneche	6	Junio	2023-01-06T00:00:00	2024-11-06T15:00:00	6	Velocidad del viento	9.7
29118	7	Sololá	701	Sololá	3	Barraneche	6	Junio	2023-01-06T00:00:00	2024-11-06T15:00:00	7	Dirección del viento	9.66
29119	7	Sololá	701	Sololá	3	Barraneche	6	Junio	2023-01-06T00:00:00	2024-11-06T15:00:00	1	Precipitación	0
29120	7	Sololá	701	Sololá	3	Barraneche	6	Junio	2023-01-06T00:00:00	2024-11-06T15:00:00	8	Radiación solar	303
29121	7	Sololá	701	Sololá	3	Barraneche	6	Junio	2023-01-06T00:00:00	2024-11-06T16:00:00	2	Temperatura media	17.3
29122	7	Sololá	701	Sololá	3	Barraneche	6	Junio	2023-01-06T00:00:00	2024-11-06T16:00:00	4	Temperatura máxima	17.5
29123	7	Sololá	701	Sololá	3	Barraneche	6	Junio	2023-01-06T00:00:00	2024-11-06T16:00:00	3	Temperatura mínima	17.2
29124	7	Sololá	701	Sololá	3	Barraneche	6	Junio	2023-01-06T00:00:00	2024-11-06T16:00:00	5	Humedad	78
29125	7	Sololá	701	Sololá	3	Barraneche	6	Junio	2023-01-06T00:00:00	2024-11-06T16:00:00	6	Velocidad del viento	6.4
29126	7	Sololá	701	Sololá	3	Barraneche	6	Junio	2023-01-06T00:00:00	2024-11-06T16:00:00	7	Dirección del viento	6.44
29127	7	Sololá	701	Sololá	3	Barraneche	6	Junio	2023-01-06T00:00:00	2024-11-06T16:00:00	1	Precipitación	0
29128	7	Sololá	701	Sololá	3	Barraneche	6	Junio	2023-01-06T00:00:00	2024-11-06T16:00:00	8	Radiación solar	206
29129	7	Sololá	701	Sololá	3	Barraneche	6	Junio	2023-01-06T00:00:00	2024-11-06T17:00:00	2	Temperatura media	16.7
29130	7	Sololá	701	Sololá	3	Barraneche	6	Junio	2023-01-06T00:00:00	2024-11-06T17:00:00	4	Temperatura máxima	17.3
29131	7	Sololá	701	Sololá	3	Barraneche	6	Junio	2023-01-06T00:00:00	2024-11-06T17:00:00	3	Temperatura mínima	16.7
29132	7	Sololá	701	Sololá	3	Barraneche	6	Junio	2023-01-06T00:00:00	2024-11-06T17:00:00	5	Humedad	80
29133	7	Sololá	701	Sololá	3	Barraneche	6	Junio	2023-01-06T00:00:00	2024-11-06T17:00:00	6	Velocidad del viento	6.4
29134	7	Sololá	701	Sololá	3	Barraneche	6	Junio	2023-01-06T00:00:00	2024-11-06T17:00:00	7	Dirección del viento	6.44
29135	7	Sololá	701	Sololá	3	Barraneche	6	Junio	2023-01-06T00:00:00	2024-11-06T17:00:00	1	Precipitación	0
29136	7	Sololá	701	Sololá	3	Barraneche	6	Junio	2023-01-06T00:00:00	2024-11-06T17:00:00	8	Radiación solar	115
29137	7	Sololá	701	Sololá	3	Barraneche	6	Junio	2023-01-06T00:00:00	2024-11-06T18:00:00	2	Temperatura media	15.8
29138	7	Sololá	701	Sololá	3	Barraneche	6	Junio	2023-01-06T00:00:00	2024-11-06T18:00:00	4	Temperatura máxima	16.7
29139	7	Sololá	701	Sololá	3	Barraneche	6	Junio	2023-01-06T00:00:00	2024-11-06T18:00:00	3	Temperatura mínima	15.8
29140	7	Sololá	701	Sololá	3	Barraneche	6	Junio	2023-01-06T00:00:00	2024-11-06T18:00:00	5	Humedad	83
29141	7	Sololá	701	Sololá	3	Barraneche	6	Junio	2023-01-06T00:00:00	2024-11-06T18:00:00	6	Velocidad del viento	4.8
29142	7	Sololá	701	Sololá	3	Barraneche	6	Junio	2023-01-06T00:00:00	2024-11-06T18:00:00	7	Dirección del viento	4.83
29143	7	Sololá	701	Sololá	3	Barraneche	6	Junio	2023-01-06T00:00:00	2024-11-06T18:00:00	1	Precipitación	0
29144	7	Sololá	701	Sololá	3	Barraneche	6	Junio	2023-01-06T00:00:00	2024-11-06T18:00:00	8	Radiación solar	34
29145	7	Sololá	701	Sololá	3	Barraneche	6	Junio	2023-01-06T00:00:00	2024-11-06T19:00:00	2	Temperatura media	15.7
29146	7	Sololá	701	Sololá	3	Barraneche	6	Junio	2023-01-06T00:00:00	2024-11-06T19:00:00	4	Temperatura máxima	15.9
29147	7	Sololá	701	Sololá	3	Barraneche	6	Junio	2023-01-06T00:00:00	2024-11-06T19:00:00	3	Temperatura mínima	15.7
29148	7	Sololá	701	Sololá	3	Barraneche	6	Junio	2023-01-06T00:00:00	2024-11-06T19:00:00	5	Humedad	83
29149	7	Sololá	701	Sololá	3	Barraneche	6	Junio	2023-01-06T00:00:00	2024-11-06T19:00:00	6	Velocidad del viento	3.2
29150	7	Sololá	701	Sololá	3	Barraneche	6	Junio	2023-01-06T00:00:00	2024-11-06T19:00:00	7	Dirección del viento	3.22
29151	7	Sololá	701	Sololá	3	Barraneche	6	Junio	2023-01-06T00:00:00	2024-11-06T19:00:00	1	Precipitación	0
29152	7	Sololá	701	Sololá	3	Barraneche	6	Junio	2023-01-06T00:00:00	2024-11-06T19:00:00	8	Radiación solar	0
29153	7	Sololá	701	Sololá	3	Barraneche	6	Junio	2023-01-06T00:00:00	2024-11-06T20:00:00	2	Temperatura media	15.6
29154	7	Sololá	701	Sololá	3	Barraneche	6	Junio	2023-01-06T00:00:00	2024-11-06T20:00:00	4	Temperatura máxima	15.7
29155	7	Sololá	701	Sololá	3	Barraneche	6	Junio	2023-01-06T00:00:00	2024-11-06T20:00:00	3	Temperatura mínima	15.6
29156	7	Sololá	701	Sololá	3	Barraneche	6	Junio	2023-01-06T00:00:00	2024-11-06T20:00:00	5	Humedad	84
29157	7	Sololá	701	Sololá	3	Barraneche	6	Junio	2023-01-06T00:00:00	2024-11-06T20:00:00	6	Velocidad del viento	1.6
29158	7	Sololá	701	Sololá	3	Barraneche	6	Junio	2023-01-06T00:00:00	2024-11-06T20:00:00	7	Dirección del viento	1.61
29159	7	Sololá	701	Sololá	3	Barraneche	6	Junio	2023-01-06T00:00:00	2024-11-06T20:00:00	1	Precipitación	0
29160	7	Sololá	701	Sololá	3	Barraneche	6	Junio	2023-01-06T00:00:00	2024-11-06T20:00:00	8	Radiación solar	0
29161	7	Sololá	701	Sololá	3	Barraneche	6	Junio	2023-01-06T00:00:00	2024-11-06T21:00:00	2	Temperatura media	15.1
29162	7	Sololá	701	Sololá	3	Barraneche	6	Junio	2023-01-06T00:00:00	2024-11-06T21:00:00	4	Temperatura máxima	15.7
29163	7	Sololá	701	Sololá	3	Barraneche	6	Junio	2023-01-06T00:00:00	2024-11-06T21:00:00	3	Temperatura mínima	14.8
29164	7	Sololá	701	Sololá	3	Barraneche	6	Junio	2023-01-06T00:00:00	2024-11-06T21:00:00	5	Humedad	78
29165	7	Sololá	701	Sololá	3	Barraneche	6	Junio	2023-01-06T00:00:00	2024-11-06T21:00:00	6	Velocidad del viento	3.2
29166	7	Sololá	701	Sololá	3	Barraneche	6	Junio	2023-01-06T00:00:00	2024-11-06T21:00:00	7	Dirección del viento	3.22
29167	7	Sololá	701	Sololá	3	Barraneche	6	Junio	2023-01-06T00:00:00	2024-11-06T21:00:00	1	Precipitación	0
29168	7	Sololá	701	Sololá	3	Barraneche	6	Junio	2023-01-06T00:00:00	2024-11-06T21:00:00	8	Radiación solar	0
29169	7	Sololá	701	Sololá	3	Barraneche	6	Junio	2023-01-06T00:00:00	2024-11-06T22:00:00	2	Temperatura media	14.3
29170	7	Sololá	701	Sololá	3	Barraneche	6	Junio	2023-01-06T00:00:00	2024-11-06T22:00:00	4	Temperatura máxima	15.9
29171	7	Sololá	701	Sololá	3	Barraneche	6	Junio	2023-01-06T00:00:00	2024-11-06T22:00:00	3	Temperatura mínima	14.3
29172	7	Sololá	701	Sololá	3	Barraneche	6	Junio	2023-01-06T00:00:00	2024-11-06T22:00:00	5	Humedad	79
29173	7	Sololá	701	Sololá	3	Barraneche	6	Junio	2023-01-06T00:00:00	2024-11-06T22:00:00	6	Velocidad del viento	4.8
29174	7	Sololá	701	Sololá	3	Barraneche	6	Junio	2023-01-06T00:00:00	2024-11-06T22:00:00	7	Dirección del viento	4.83
29175	7	Sololá	701	Sololá	3	Barraneche	6	Junio	2023-01-06T00:00:00	2024-11-06T22:00:00	1	Precipitación	0
29176	7	Sololá	701	Sololá	3	Barraneche	6	Junio	2023-01-06T00:00:00	2024-11-06T22:00:00	8	Radiación solar	0
29177	7	Sololá	701	Sololá	3	Barraneche	6	Junio	2023-01-06T00:00:00	2024-11-06T23:00:00	2	Temperatura media	12.8
29178	7	Sololá	701	Sololá	3	Barraneche	6	Junio	2023-01-06T00:00:00	2024-11-06T23:00:00	4	Temperatura máxima	14.3
29179	7	Sololá	701	Sololá	3	Barraneche	6	Junio	2023-01-06T00:00:00	2024-11-06T23:00:00	3	Temperatura mínima	12.8
29180	7	Sololá	701	Sololá	3	Barraneche	6	Junio	2023-01-06T00:00:00	2024-11-06T23:00:00	5	Humedad	80
29181	7	Sololá	701	Sololá	3	Barraneche	6	Junio	2023-01-06T00:00:00	2024-11-06T23:00:00	6	Velocidad del viento	3.2
29182	7	Sololá	701	Sololá	3	Barraneche	6	Junio	2023-01-06T00:00:00	2024-11-06T23:00:00	7	Dirección del viento	3.22
29183	7	Sololá	701	Sololá	3	Barraneche	6	Junio	2023-01-06T00:00:00	2024-11-06T23:00:00	1	Precipitación	0
29184	7	Sololá	701	Sololá	3	Barraneche	6	Junio	2023-01-06T00:00:00	2024-11-06T23:00:00	8	Radiación solar	0
29185	7	Sololá	701	Sololá	3	Barraneche	6	Junio	2023-02-06T00:00:00	2024-11-06T00:00:00	2	Temperatura media	12.8
29186	7	Sololá	701	Sololá	3	Barraneche	6	Junio	2023-02-06T00:00:00	2024-11-06T00:00:00	4	Temperatura máxima	12.9
29187	7	Sololá	701	Sololá	3	Barraneche	6	Junio	2023-02-06T00:00:00	2024-11-06T00:00:00	3	Temperatura mínima	12.7
29188	7	Sololá	701	Sololá	3	Barraneche	6	Junio	2023-02-06T00:00:00	2024-11-06T00:00:00	5	Humedad	80
29189	7	Sololá	701	Sololá	3	Barraneche	6	Junio	2023-02-06T00:00:00	2024-11-06T00:00:00	6	Velocidad del viento	4.8
29190	7	Sololá	701	Sololá	3	Barraneche	6	Junio	2023-02-06T00:00:00	2024-11-06T00:00:00	7	Dirección del viento	4.83
29191	7	Sololá	701	Sololá	3	Barraneche	6	Junio	2023-02-06T00:00:00	2024-11-06T00:00:00	1	Precipitación	0
29192	7	Sololá	701	Sololá	3	Barraneche	6	Junio	2023-02-06T00:00:00	2024-11-06T00:00:00	8	Radiación solar	0
29193	7	Sololá	701	Sololá	3	Barraneche	6	Junio	2023-02-06T00:00:00	2024-11-06T01:00:00	2	Temperatura media	12.3
29194	7	Sololá	701	Sololá	3	Barraneche	6	Junio	2023-02-06T00:00:00	2024-11-06T01:00:00	4	Temperatura máxima	13.1
29195	7	Sololá	701	Sololá	3	Barraneche	6	Junio	2023-02-06T00:00:00	2024-11-06T01:00:00	3	Temperatura mínima	12.2
29196	7	Sololá	701	Sololá	3	Barraneche	6	Junio	2023-02-06T00:00:00	2024-11-06T01:00:00	5	Humedad	79
29197	7	Sololá	701	Sololá	3	Barraneche	6	Junio	2023-02-06T00:00:00	2024-11-06T01:00:00	6	Velocidad del viento	6.4
29198	7	Sololá	701	Sololá	3	Barraneche	6	Junio	2023-02-06T00:00:00	2024-11-06T01:00:00	7	Dirección del viento	6.44
29199	7	Sololá	701	Sololá	3	Barraneche	6	Junio	2023-02-06T00:00:00	2024-11-06T01:00:00	1	Precipitación	0
29200	7	Sololá	701	Sololá	3	Barraneche	6	Junio	2023-02-06T00:00:00	2024-11-06T01:00:00	8	Radiación solar	0
29201	7	Sololá	701	Sololá	3	Barraneche	6	Junio	2023-02-06T00:00:00	2024-11-06T02:00:00	2	Temperatura media	12.3
29202	7	Sololá	701	Sololá	3	Barraneche	6	Junio	2023-02-06T00:00:00	2024-11-06T02:00:00	4	Temperatura máxima	12.8
29203	7	Sololá	701	Sololá	3	Barraneche	6	Junio	2023-02-06T00:00:00	2024-11-06T02:00:00	3	Temperatura mínima	12.2
29204	7	Sololá	701	Sololá	3	Barraneche	6	Junio	2023-02-06T00:00:00	2024-11-06T02:00:00	5	Humedad	80
29205	7	Sololá	701	Sololá	3	Barraneche	6	Junio	2023-02-06T00:00:00	2024-11-06T02:00:00	6	Velocidad del viento	3.2
29206	7	Sololá	701	Sololá	3	Barraneche	6	Junio	2023-02-06T00:00:00	2024-11-06T02:00:00	7	Dirección del viento	3.22
29207	7	Sololá	701	Sololá	3	Barraneche	6	Junio	2023-02-06T00:00:00	2024-11-06T02:00:00	1	Precipitación	0
29208	7	Sololá	701	Sololá	3	Barraneche	6	Junio	2023-02-06T00:00:00	2024-11-06T02:00:00	8	Radiación solar	0
29209	7	Sololá	701	Sololá	3	Barraneche	6	Junio	2023-02-06T00:00:00	2024-11-06T03:00:00	2	Temperatura media	12.3
29210	7	Sololá	701	Sololá	3	Barraneche	6	Junio	2023-02-06T00:00:00	2024-11-06T03:00:00	4	Temperatura máxima	12.4
29211	7	Sololá	701	Sololá	3	Barraneche	6	Junio	2023-02-06T00:00:00	2024-11-06T03:00:00	3	Temperatura mínima	11.9
29212	7	Sololá	701	Sololá	3	Barraneche	6	Junio	2023-02-06T00:00:00	2024-11-06T03:00:00	5	Humedad	77
29213	7	Sololá	701	Sololá	3	Barraneche	6	Junio	2023-02-06T00:00:00	2024-11-06T03:00:00	6	Velocidad del viento	8
29214	7	Sololá	701	Sololá	3	Barraneche	6	Junio	2023-02-06T00:00:00	2024-11-06T03:00:00	7	Dirección del viento	8.05
29215	7	Sololá	701	Sololá	3	Barraneche	6	Junio	2023-02-06T00:00:00	2024-11-06T03:00:00	1	Precipitación	0
29216	7	Sololá	701	Sololá	3	Barraneche	6	Junio	2023-02-06T00:00:00	2024-11-06T03:00:00	8	Radiación solar	0
29217	7	Sololá	701	Sololá	3	Barraneche	6	Junio	2023-02-06T00:00:00	2024-11-06T04:00:00	2	Temperatura media	12.7
29218	7	Sololá	701	Sololá	3	Barraneche	6	Junio	2023-02-06T00:00:00	2024-11-06T04:00:00	4	Temperatura máxima	12.7
29219	7	Sololá	701	Sololá	3	Barraneche	6	Junio	2023-02-06T00:00:00	2024-11-06T04:00:00	3	Temperatura mínima	12.1
29220	7	Sololá	701	Sololá	3	Barraneche	6	Junio	2023-02-06T00:00:00	2024-11-06T04:00:00	5	Humedad	76
29221	7	Sololá	701	Sololá	3	Barraneche	6	Junio	2023-02-06T00:00:00	2024-11-06T04:00:00	6	Velocidad del viento	8
29222	7	Sololá	701	Sololá	3	Barraneche	6	Junio	2023-02-06T00:00:00	2024-11-06T04:00:00	7	Dirección del viento	8.05
29223	7	Sololá	701	Sololá	3	Barraneche	6	Junio	2023-02-06T00:00:00	2024-11-06T04:00:00	1	Precipitación	0
29224	7	Sololá	701	Sololá	3	Barraneche	6	Junio	2023-02-06T00:00:00	2024-11-06T04:00:00	8	Radiación solar	0
29225	7	Sololá	701	Sololá	3	Barraneche	6	Junio	2023-02-06T00:00:00	2024-11-06T05:00:00	2	Temperatura media	11.9
29226	7	Sololá	701	Sololá	3	Barraneche	6	Junio	2023-02-06T00:00:00	2024-11-06T05:00:00	4	Temperatura máxima	12.7
29227	7	Sololá	701	Sololá	3	Barraneche	6	Junio	2023-02-06T00:00:00	2024-11-06T05:00:00	3	Temperatura mínima	11.8
29228	7	Sololá	701	Sololá	3	Barraneche	6	Junio	2023-02-06T00:00:00	2024-11-06T05:00:00	5	Humedad	78
29229	7	Sololá	701	Sololá	3	Barraneche	6	Junio	2023-02-06T00:00:00	2024-11-06T05:00:00	6	Velocidad del viento	4.8
29230	7	Sololá	701	Sololá	3	Barraneche	6	Junio	2023-02-06T00:00:00	2024-11-06T05:00:00	7	Dirección del viento	4.83
29231	7	Sololá	701	Sololá	3	Barraneche	6	Junio	2023-02-06T00:00:00	2024-11-06T05:00:00	1	Precipitación	0
29232	7	Sololá	701	Sololá	3	Barraneche	6	Junio	2023-02-06T00:00:00	2024-11-06T05:00:00	8	Radiación solar	0
29233	7	Sololá	701	Sololá	3	Barraneche	6	Junio	2023-02-06T00:00:00	2024-11-06T06:00:00	2	Temperatura media	11.4
29234	7	Sololá	701	Sololá	3	Barraneche	6	Junio	2023-02-06T00:00:00	2024-11-06T06:00:00	4	Temperatura máxima	12
29235	7	Sololá	701	Sololá	3	Barraneche	6	Junio	2023-02-06T00:00:00	2024-11-06T06:00:00	3	Temperatura mínima	11.4
29236	7	Sololá	701	Sololá	3	Barraneche	6	Junio	2023-02-06T00:00:00	2024-11-06T06:00:00	5	Humedad	76
29237	7	Sololá	701	Sololá	3	Barraneche	6	Junio	2023-02-06T00:00:00	2024-11-06T06:00:00	6	Velocidad del viento	8
29238	7	Sololá	701	Sololá	3	Barraneche	6	Junio	2023-02-06T00:00:00	2024-11-06T06:00:00	7	Dirección del viento	8.05
29239	7	Sololá	701	Sololá	3	Barraneche	6	Junio	2023-02-06T00:00:00	2024-11-06T06:00:00	1	Precipitación	0
29240	7	Sololá	701	Sololá	3	Barraneche	6	Junio	2023-02-06T00:00:00	2024-11-06T06:00:00	8	Radiación solar	5
29241	7	Sololá	701	Sololá	3	Barraneche	6	Junio	2023-02-06T00:00:00	2024-11-06T07:00:00	2	Temperatura media	13.2
29242	7	Sololá	701	Sololá	3	Barraneche	6	Junio	2023-02-06T00:00:00	2024-11-06T07:00:00	4	Temperatura máxima	13.2
29243	7	Sololá	701	Sololá	3	Barraneche	6	Junio	2023-02-06T00:00:00	2024-11-06T07:00:00	3	Temperatura mínima	11.3
29244	7	Sololá	701	Sololá	3	Barraneche	6	Junio	2023-02-06T00:00:00	2024-11-06T07:00:00	5	Humedad	74
29245	7	Sololá	701	Sololá	3	Barraneche	6	Junio	2023-02-06T00:00:00	2024-11-06T07:00:00	6	Velocidad del viento	6.4
29246	7	Sololá	701	Sololá	3	Barraneche	6	Junio	2023-02-06T00:00:00	2024-11-06T07:00:00	7	Dirección del viento	6.44
29247	7	Sololá	701	Sololá	3	Barraneche	6	Junio	2023-02-06T00:00:00	2024-11-06T07:00:00	1	Precipitación	0
29248	7	Sololá	701	Sololá	3	Barraneche	6	Junio	2023-02-06T00:00:00	2024-11-06T07:00:00	8	Radiación solar	113
29249	7	Sololá	701	Sololá	3	Barraneche	6	Junio	2023-02-06T00:00:00	2024-11-06T08:00:00	2	Temperatura media	16.8
29250	7	Sololá	701	Sololá	3	Barraneche	6	Junio	2023-02-06T00:00:00	2024-11-06T08:00:00	4	Temperatura máxima	16.8
29251	7	Sololá	701	Sololá	3	Barraneche	6	Junio	2023-02-06T00:00:00	2024-11-06T08:00:00	3	Temperatura mínima	13.2
29252	7	Sololá	701	Sololá	3	Barraneche	6	Junio	2023-02-06T00:00:00	2024-11-06T08:00:00	5	Humedad	68
29253	7	Sololá	701	Sololá	3	Barraneche	6	Junio	2023-02-06T00:00:00	2024-11-06T08:00:00	6	Velocidad del viento	4.8
29254	7	Sololá	701	Sololá	3	Barraneche	6	Junio	2023-02-06T00:00:00	2024-11-06T08:00:00	7	Dirección del viento	4.83
29255	7	Sololá	701	Sololá	3	Barraneche	6	Junio	2023-02-06T00:00:00	2024-11-06T08:00:00	1	Precipitación	0
29256	7	Sololá	701	Sololá	3	Barraneche	6	Junio	2023-02-06T00:00:00	2024-11-06T08:00:00	8	Radiación solar	373
29257	7	Sololá	701	Sololá	3	Barraneche	6	Junio	2023-02-06T00:00:00	2024-11-06T09:00:00	2	Temperatura media	18.3
29258	7	Sololá	701	Sololá	3	Barraneche	6	Junio	2023-02-06T00:00:00	2024-11-06T09:00:00	4	Temperatura máxima	18.4
29259	7	Sololá	701	Sololá	3	Barraneche	6	Junio	2023-02-06T00:00:00	2024-11-06T09:00:00	3	Temperatura mínima	16.8
29260	7	Sololá	701	Sololá	3	Barraneche	6	Junio	2023-02-06T00:00:00	2024-11-06T09:00:00	5	Humedad	64
29261	7	Sololá	701	Sololá	3	Barraneche	6	Junio	2023-02-06T00:00:00	2024-11-06T09:00:00	6	Velocidad del viento	3.2
29262	7	Sololá	701	Sololá	3	Barraneche	6	Junio	2023-02-06T00:00:00	2024-11-06T09:00:00	7	Dirección del viento	3.22
29263	7	Sololá	701	Sololá	3	Barraneche	6	Junio	2023-02-06T00:00:00	2024-11-06T09:00:00	1	Precipitación	0
29264	7	Sololá	701	Sololá	3	Barraneche	6	Junio	2023-02-06T00:00:00	2024-11-06T09:00:00	8	Radiación solar	607
29265	7	Sololá	701	Sololá	3	Barraneche	6	Junio	2023-02-06T00:00:00	2024-11-06T10:00:00	2	Temperatura media	18.4
29266	7	Sololá	701	Sololá	3	Barraneche	6	Junio	2023-02-06T00:00:00	2024-11-06T10:00:00	4	Temperatura máxima	18.7
29267	7	Sololá	701	Sololá	3	Barraneche	6	Junio	2023-02-06T00:00:00	2024-11-06T10:00:00	3	Temperatura mínima	18.1
29268	7	Sololá	701	Sololá	3	Barraneche	6	Junio	2023-02-06T00:00:00	2024-11-06T10:00:00	5	Humedad	66
29269	7	Sololá	701	Sololá	3	Barraneche	6	Junio	2023-02-06T00:00:00	2024-11-06T10:00:00	6	Velocidad del viento	8
29270	7	Sololá	701	Sololá	3	Barraneche	6	Junio	2023-02-06T00:00:00	2024-11-06T10:00:00	7	Dirección del viento	8.05
29271	7	Sololá	701	Sololá	3	Barraneche	6	Junio	2023-02-06T00:00:00	2024-11-06T10:00:00	1	Precipitación	0
29272	7	Sololá	701	Sololá	3	Barraneche	6	Junio	2023-02-06T00:00:00	2024-11-06T10:00:00	8	Radiación solar	798
29273	7	Sololá	701	Sololá	3	Barraneche	6	Junio	2023-02-06T00:00:00	2024-11-06T11:00:00	2	Temperatura media	18.4
29274	7	Sololá	701	Sololá	3	Barraneche	6	Junio	2023-02-06T00:00:00	2024-11-06T11:00:00	4	Temperatura máxima	19
29275	7	Sololá	701	Sololá	3	Barraneche	6	Junio	2023-02-06T00:00:00	2024-11-06T11:00:00	3	Temperatura mínima	18.3
29276	7	Sololá	701	Sololá	3	Barraneche	6	Junio	2023-02-06T00:00:00	2024-11-06T11:00:00	5	Humedad	72
29277	7	Sololá	701	Sololá	3	Barraneche	6	Junio	2023-02-06T00:00:00	2024-11-06T11:00:00	6	Velocidad del viento	11.3
29278	7	Sololá	701	Sololá	3	Barraneche	6	Junio	2023-02-06T00:00:00	2024-11-06T11:00:00	7	Dirección del viento	11.27
29279	7	Sololá	701	Sololá	3	Barraneche	6	Junio	2023-02-06T00:00:00	2024-11-06T11:00:00	1	Precipitación	0
29280	7	Sololá	701	Sololá	3	Barraneche	6	Junio	2023-02-06T00:00:00	2024-11-06T11:00:00	8	Radiación solar	925
29281	7	Sololá	701	Sololá	3	Barraneche	6	Junio	2023-02-06T00:00:00	2024-11-06T12:00:00	2	Temperatura media	18.3
29282	7	Sololá	701	Sololá	3	Barraneche	6	Junio	2023-02-06T00:00:00	2024-11-06T12:00:00	4	Temperatura máxima	18.4
29283	7	Sololá	701	Sololá	3	Barraneche	6	Junio	2023-02-06T00:00:00	2024-11-06T12:00:00	3	Temperatura mínima	17.6
29284	7	Sololá	701	Sololá	3	Barraneche	6	Junio	2023-02-06T00:00:00	2024-11-06T12:00:00	5	Humedad	75
29285	7	Sololá	701	Sololá	3	Barraneche	6	Junio	2023-02-06T00:00:00	2024-11-06T12:00:00	6	Velocidad del viento	11.3
29286	7	Sololá	701	Sololá	3	Barraneche	6	Junio	2023-02-06T00:00:00	2024-11-06T12:00:00	7	Dirección del viento	11.27
29287	7	Sololá	701	Sololá	3	Barraneche	6	Junio	2023-02-06T00:00:00	2024-11-06T12:00:00	1	Precipitación	0
29288	7	Sololá	701	Sololá	3	Barraneche	6	Junio	2023-02-06T00:00:00	2024-11-06T12:00:00	8	Radiación solar	503
29289	7	Sololá	701	Sololá	3	Barraneche	6	Junio	2023-02-06T00:00:00	2024-11-06T13:00:00	2	Temperatura media	18.2
29290	7	Sololá	701	Sololá	3	Barraneche	6	Junio	2023-02-06T00:00:00	2024-11-06T13:00:00	4	Temperatura máxima	18.3
29291	7	Sololá	701	Sololá	3	Barraneche	6	Junio	2023-02-06T00:00:00	2024-11-06T13:00:00	3	Temperatura mínima	17.7
29292	7	Sololá	701	Sololá	3	Barraneche	6	Junio	2023-02-06T00:00:00	2024-11-06T13:00:00	5	Humedad	75
29293	7	Sololá	701	Sololá	3	Barraneche	6	Junio	2023-02-06T00:00:00	2024-11-06T13:00:00	6	Velocidad del viento	9.7
29294	7	Sololá	701	Sololá	3	Barraneche	6	Junio	2023-02-06T00:00:00	2024-11-06T13:00:00	7	Dirección del viento	9.66
29295	7	Sololá	701	Sololá	3	Barraneche	6	Junio	2023-02-06T00:00:00	2024-11-06T13:00:00	1	Precipitación	0
29296	7	Sololá	701	Sololá	3	Barraneche	6	Junio	2023-02-06T00:00:00	2024-11-06T13:00:00	8	Radiación solar	440
29297	7	Sololá	701	Sololá	3	Barraneche	6	Junio	2023-02-06T00:00:00	2024-11-06T14:00:00	2	Temperatura media	18.2
29298	7	Sololá	701	Sololá	3	Barraneche	6	Junio	2023-02-06T00:00:00	2024-11-06T14:00:00	4	Temperatura máxima	18.3
29299	7	Sololá	701	Sololá	3	Barraneche	6	Junio	2023-02-06T00:00:00	2024-11-06T14:00:00	3	Temperatura mínima	17.8
29300	7	Sololá	701	Sololá	3	Barraneche	6	Junio	2023-02-06T00:00:00	2024-11-06T14:00:00	5	Humedad	77
29301	7	Sololá	701	Sololá	3	Barraneche	6	Junio	2023-02-06T00:00:00	2024-11-06T14:00:00	6	Velocidad del viento	9.7
29302	7	Sololá	701	Sololá	3	Barraneche	6	Junio	2023-02-06T00:00:00	2024-11-06T14:00:00	7	Dirección del viento	9.66
29303	7	Sololá	701	Sololá	3	Barraneche	6	Junio	2023-02-06T00:00:00	2024-11-06T14:00:00	1	Precipitación	0
29304	7	Sololá	701	Sololá	3	Barraneche	6	Junio	2023-02-06T00:00:00	2024-11-06T14:00:00	8	Radiación solar	344
29305	7	Sololá	701	Sololá	3	Barraneche	6	Junio	2023-02-06T00:00:00	2024-11-06T15:00:00	2	Temperatura media	17.3
29306	7	Sololá	701	Sololá	3	Barraneche	6	Junio	2023-02-06T00:00:00	2024-11-06T15:00:00	4	Temperatura máxima	18.3
29307	7	Sololá	701	Sololá	3	Barraneche	6	Junio	2023-02-06T00:00:00	2024-11-06T15:00:00	3	Temperatura mínima	17.3
29308	7	Sololá	701	Sololá	3	Barraneche	6	Junio	2023-02-06T00:00:00	2024-11-06T15:00:00	5	Humedad	79
29309	7	Sololá	701	Sololá	3	Barraneche	6	Junio	2023-02-06T00:00:00	2024-11-06T15:00:00	6	Velocidad del viento	8
29310	7	Sololá	701	Sololá	3	Barraneche	6	Junio	2023-02-06T00:00:00	2024-11-06T15:00:00	7	Dirección del viento	8.05
29311	7	Sololá	701	Sololá	3	Barraneche	6	Junio	2023-02-06T00:00:00	2024-11-06T15:00:00	1	Precipitación	0
29312	7	Sololá	701	Sololá	3	Barraneche	6	Junio	2023-02-06T00:00:00	2024-11-06T15:00:00	8	Radiación solar	191
29313	7	Sololá	701	Sololá	3	Barraneche	6	Junio	2023-02-06T00:00:00	2024-11-06T16:00:00	2	Temperatura media	16.7
29314	7	Sololá	701	Sololá	3	Barraneche	6	Junio	2023-02-06T00:00:00	2024-11-06T16:00:00	4	Temperatura máxima	17.8
29315	7	Sololá	701	Sololá	3	Barraneche	6	Junio	2023-02-06T00:00:00	2024-11-06T16:00:00	3	Temperatura mínima	16.7
29316	7	Sololá	701	Sololá	3	Barraneche	6	Junio	2023-02-06T00:00:00	2024-11-06T16:00:00	5	Humedad	81
29317	7	Sololá	701	Sololá	3	Barraneche	6	Junio	2023-02-06T00:00:00	2024-11-06T16:00:00	6	Velocidad del viento	8
29318	7	Sololá	701	Sololá	3	Barraneche	6	Junio	2023-02-06T00:00:00	2024-11-06T16:00:00	7	Dirección del viento	8.05
29319	7	Sololá	701	Sololá	3	Barraneche	6	Junio	2023-02-06T00:00:00	2024-11-06T16:00:00	1	Precipitación	0
29320	7	Sololá	701	Sololá	3	Barraneche	6	Junio	2023-02-06T00:00:00	2024-11-06T16:00:00	8	Radiación solar	115
29321	7	Sololá	701	Sololá	3	Barraneche	6	Junio	2023-02-06T00:00:00	2024-11-06T17:00:00	2	Temperatura media	16.5
29322	7	Sololá	701	Sololá	3	Barraneche	6	Junio	2023-02-06T00:00:00	2024-11-06T17:00:00	4	Temperatura máxima	16.7
29323	7	Sololá	701	Sololá	3	Barraneche	6	Junio	2023-02-06T00:00:00	2024-11-06T17:00:00	3	Temperatura mínima	16.3
29324	7	Sololá	701	Sololá	3	Barraneche	6	Junio	2023-02-06T00:00:00	2024-11-06T17:00:00	5	Humedad	82
29325	7	Sololá	701	Sololá	3	Barraneche	6	Junio	2023-02-06T00:00:00	2024-11-06T17:00:00	6	Velocidad del viento	4.8
29326	7	Sololá	701	Sololá	3	Barraneche	6	Junio	2023-02-06T00:00:00	2024-11-06T17:00:00	7	Dirección del viento	4.83
29327	7	Sololá	701	Sololá	3	Barraneche	6	Junio	2023-02-06T00:00:00	2024-11-06T17:00:00	1	Precipitación	0
29328	7	Sololá	701	Sololá	3	Barraneche	6	Junio	2023-02-06T00:00:00	2024-11-06T17:00:00	8	Radiación solar	64
29329	7	Sololá	701	Sololá	3	Barraneche	6	Junio	2023-02-06T00:00:00	2024-11-06T18:00:00	2	Temperatura media	16.3
29330	7	Sololá	701	Sololá	3	Barraneche	6	Junio	2023-02-06T00:00:00	2024-11-06T18:00:00	4	Temperatura máxima	16.6
29331	7	Sololá	701	Sololá	3	Barraneche	6	Junio	2023-02-06T00:00:00	2024-11-06T18:00:00	3	Temperatura mínima	16.3
29332	7	Sololá	701	Sololá	3	Barraneche	6	Junio	2023-02-06T00:00:00	2024-11-06T18:00:00	5	Humedad	81
29333	7	Sololá	701	Sololá	3	Barraneche	6	Junio	2023-02-06T00:00:00	2024-11-06T18:00:00	6	Velocidad del viento	3.2
29334	7	Sololá	701	Sololá	3	Barraneche	6	Junio	2023-02-06T00:00:00	2024-11-06T18:00:00	7	Dirección del viento	3.22
29335	7	Sololá	701	Sololá	3	Barraneche	6	Junio	2023-02-06T00:00:00	2024-11-06T18:00:00	1	Precipitación	0
29336	7	Sololá	701	Sololá	3	Barraneche	6	Junio	2023-02-06T00:00:00	2024-11-06T18:00:00	8	Radiación solar	27
29337	7	Sololá	701	Sololá	3	Barraneche	6	Junio	2023-02-06T00:00:00	2024-11-06T19:00:00	2	Temperatura media	15.8
29338	7	Sololá	701	Sololá	3	Barraneche	6	Junio	2023-02-06T00:00:00	2024-11-06T19:00:00	4	Temperatura máxima	16.4
29339	7	Sololá	701	Sololá	3	Barraneche	6	Junio	2023-02-06T00:00:00	2024-11-06T19:00:00	3	Temperatura mínima	15.8
29340	7	Sololá	701	Sololá	3	Barraneche	6	Junio	2023-02-06T00:00:00	2024-11-06T19:00:00	5	Humedad	82
29341	7	Sololá	701	Sololá	3	Barraneche	6	Junio	2023-02-06T00:00:00	2024-11-06T19:00:00	6	Velocidad del viento	1.6
29342	7	Sololá	701	Sololá	3	Barraneche	6	Junio	2023-02-06T00:00:00	2024-11-06T19:00:00	7	Dirección del viento	1.61
29343	7	Sololá	701	Sololá	3	Barraneche	6	Junio	2023-02-06T00:00:00	2024-11-06T19:00:00	1	Precipitación	0
29344	7	Sololá	701	Sololá	3	Barraneche	6	Junio	2023-02-06T00:00:00	2024-11-06T19:00:00	8	Radiación solar	0
29345	7	Sololá	701	Sololá	3	Barraneche	6	Junio	2023-02-06T00:00:00	2024-11-06T20:00:00	2	Temperatura media	16.6
29346	7	Sololá	701	Sololá	3	Barraneche	6	Junio	2023-02-06T00:00:00	2024-11-06T20:00:00	4	Temperatura máxima	16.7
29347	7	Sololá	701	Sololá	3	Barraneche	6	Junio	2023-02-06T00:00:00	2024-11-06T20:00:00	3	Temperatura mínima	15.8
29348	7	Sololá	701	Sololá	3	Barraneche	6	Junio	2023-02-06T00:00:00	2024-11-06T20:00:00	5	Humedad	76
29349	7	Sololá	701	Sololá	3	Barraneche	6	Junio	2023-02-06T00:00:00	2024-11-06T20:00:00	6	Velocidad del viento	3.2
29350	7	Sololá	701	Sololá	3	Barraneche	6	Junio	2023-02-06T00:00:00	2024-11-06T20:00:00	7	Dirección del viento	3.22
29351	7	Sololá	701	Sololá	3	Barraneche	6	Junio	2023-02-06T00:00:00	2024-11-06T20:00:00	1	Precipitación	0
29352	7	Sololá	701	Sololá	3	Barraneche	6	Junio	2023-02-06T00:00:00	2024-11-06T20:00:00	8	Radiación solar	0
29353	7	Sololá	701	Sololá	3	Barraneche	6	Junio	2023-02-06T00:00:00	2024-11-06T21:00:00	2	Temperatura media	16.3
29354	7	Sololá	701	Sololá	3	Barraneche	6	Junio	2023-02-06T00:00:00	2024-11-06T21:00:00	4	Temperatura máxima	16.9
29355	7	Sololá	701	Sololá	3	Barraneche	6	Junio	2023-02-06T00:00:00	2024-11-06T21:00:00	3	Temperatura mínima	16.3
29356	7	Sololá	701	Sololá	3	Barraneche	6	Junio	2023-02-06T00:00:00	2024-11-06T21:00:00	5	Humedad	77
29357	7	Sololá	701	Sololá	3	Barraneche	6	Junio	2023-02-06T00:00:00	2024-11-06T21:00:00	6	Velocidad del viento	4.8
29358	7	Sololá	701	Sololá	3	Barraneche	6	Junio	2023-02-06T00:00:00	2024-11-06T21:00:00	7	Dirección del viento	4.83
29359	7	Sololá	701	Sololá	3	Barraneche	6	Junio	2023-02-06T00:00:00	2024-11-06T21:00:00	1	Precipitación	0
29360	7	Sololá	701	Sololá	3	Barraneche	6	Junio	2023-02-06T00:00:00	2024-11-06T21:00:00	8	Radiación solar	0
29361	7	Sololá	701	Sololá	3	Barraneche	6	Junio	2023-02-06T00:00:00	2024-11-06T22:00:00	2	Temperatura media	15.4
29362	7	Sololá	701	Sololá	3	Barraneche	6	Junio	2023-02-06T00:00:00	2024-11-06T22:00:00	4	Temperatura máxima	16.3
29363	7	Sololá	701	Sololá	3	Barraneche	6	Junio	2023-02-06T00:00:00	2024-11-06T22:00:00	3	Temperatura mínima	15.4
29364	7	Sololá	701	Sololá	3	Barraneche	6	Junio	2023-02-06T00:00:00	2024-11-06T22:00:00	5	Humedad	79
29365	7	Sololá	701	Sololá	3	Barraneche	6	Junio	2023-02-06T00:00:00	2024-11-06T22:00:00	6	Velocidad del viento	1.6
29366	7	Sololá	701	Sololá	3	Barraneche	6	Junio	2023-02-06T00:00:00	2024-11-06T22:00:00	7	Dirección del viento	1.61
29367	7	Sololá	701	Sololá	3	Barraneche	6	Junio	2023-02-06T00:00:00	2024-11-06T22:00:00	1	Precipitación	0
29368	7	Sololá	701	Sololá	3	Barraneche	6	Junio	2023-02-06T00:00:00	2024-11-06T22:00:00	8	Radiación solar	0
29369	7	Sololá	701	Sololá	3	Barraneche	6	Junio	2023-02-06T00:00:00	2024-11-06T23:00:00	2	Temperatura media	15.4
29370	7	Sololá	701	Sololá	3	Barraneche	6	Junio	2023-02-06T00:00:00	2024-11-06T23:00:00	4	Temperatura máxima	15.6
29371	7	Sololá	701	Sololá	3	Barraneche	6	Junio	2023-02-06T00:00:00	2024-11-06T23:00:00	3	Temperatura mínima	15.3
29372	7	Sololá	701	Sololá	3	Barraneche	6	Junio	2023-02-06T00:00:00	2024-11-06T23:00:00	5	Humedad	80
29373	7	Sololá	701	Sololá	3	Barraneche	6	Junio	2023-02-06T00:00:00	2024-11-06T23:00:00	6	Velocidad del viento	1.6
29374	7	Sololá	701	Sololá	3	Barraneche	6	Junio	2023-02-06T00:00:00	2024-11-06T23:00:00	7	Dirección del viento	1.61
29375	7	Sololá	701	Sololá	3	Barraneche	6	Junio	2023-02-06T00:00:00	2024-11-06T23:00:00	1	Precipitación	0
29376	7	Sololá	701	Sololá	3	Barraneche	6	Junio	2023-02-06T00:00:00	2024-11-06T23:00:00	8	Radiación solar	0
29377	7	Sololá	701	Sololá	3	Barraneche	6	Junio	2023-03-06T00:00:00	2024-11-06T00:00:00	2	Temperatura media	14.7
29378	7	Sololá	701	Sololá	3	Barraneche	6	Junio	2023-03-06T00:00:00	2024-11-06T00:00:00	4	Temperatura máxima	15.4
29379	7	Sololá	701	Sololá	3	Barraneche	6	Junio	2023-03-06T00:00:00	2024-11-06T00:00:00	3	Temperatura mínima	14.7
29380	7	Sololá	701	Sololá	3	Barraneche	6	Junio	2023-03-06T00:00:00	2024-11-06T00:00:00	5	Humedad	81
29381	7	Sololá	701	Sololá	3	Barraneche	6	Junio	2023-03-06T00:00:00	2024-11-06T00:00:00	6	Velocidad del viento	1.6
29382	7	Sololá	701	Sololá	3	Barraneche	6	Junio	2023-03-06T00:00:00	2024-11-06T00:00:00	7	Dirección del viento	1.61
29383	7	Sololá	701	Sololá	3	Barraneche	6	Junio	2023-03-06T00:00:00	2024-11-06T00:00:00	1	Precipitación	0
29384	7	Sololá	701	Sololá	3	Barraneche	6	Junio	2023-03-06T00:00:00	2024-11-06T00:00:00	8	Radiación solar	0
29385	7	Sololá	701	Sololá	3	Barraneche	6	Junio	2023-03-06T00:00:00	2024-11-06T01:00:00	2	Temperatura media	14.2
29386	7	Sololá	701	Sololá	3	Barraneche	6	Junio	2023-03-06T00:00:00	2024-11-06T01:00:00	4	Temperatura máxima	14.7
29387	7	Sololá	701	Sololá	3	Barraneche	6	Junio	2023-03-06T00:00:00	2024-11-06T01:00:00	3	Temperatura mínima	14.2
29388	7	Sololá	701	Sololá	3	Barraneche	6	Junio	2023-03-06T00:00:00	2024-11-06T01:00:00	5	Humedad	81
29389	7	Sololá	701	Sololá	3	Barraneche	6	Junio	2023-03-06T00:00:00	2024-11-06T01:00:00	6	Velocidad del viento	1.6
29390	7	Sololá	701	Sololá	3	Barraneche	6	Junio	2023-03-06T00:00:00	2024-11-06T01:00:00	7	Dirección del viento	1.61
29391	7	Sololá	701	Sololá	3	Barraneche	6	Junio	2023-03-06T00:00:00	2024-11-06T01:00:00	1	Precipitación	0
29392	7	Sololá	701	Sololá	3	Barraneche	6	Junio	2023-03-06T00:00:00	2024-11-06T01:00:00	8	Radiación solar	0
29393	7	Sololá	701	Sololá	3	Barraneche	6	Junio	2023-03-06T00:00:00	2024-11-06T02:00:00	2	Temperatura media	13.1
29394	7	Sololá	701	Sololá	3	Barraneche	6	Junio	2023-03-06T00:00:00	2024-11-06T02:00:00	4	Temperatura máxima	14.3
29395	7	Sololá	701	Sololá	3	Barraneche	6	Junio	2023-03-06T00:00:00	2024-11-06T02:00:00	3	Temperatura mínima	12.9
29396	7	Sololá	701	Sololá	3	Barraneche	6	Junio	2023-03-06T00:00:00	2024-11-06T02:00:00	5	Humedad	82
29397	7	Sololá	701	Sololá	3	Barraneche	6	Junio	2023-03-06T00:00:00	2024-11-06T02:00:00	6	Velocidad del viento	3.2
29398	7	Sololá	701	Sololá	3	Barraneche	6	Junio	2023-03-06T00:00:00	2024-11-06T02:00:00	7	Dirección del viento	3.22
29399	7	Sololá	701	Sololá	3	Barraneche	6	Junio	2023-03-06T00:00:00	2024-11-06T02:00:00	1	Precipitación	0
29400	7	Sololá	701	Sololá	3	Barraneche	6	Junio	2023-03-06T00:00:00	2024-11-06T02:00:00	8	Radiación solar	0
29401	7	Sololá	701	Sololá	3	Barraneche	6	Junio	2023-03-06T00:00:00	2024-11-06T03:00:00	2	Temperatura media	12.4
29402	7	Sololá	701	Sololá	3	Barraneche	6	Junio	2023-03-06T00:00:00	2024-11-06T03:00:00	4	Temperatura máxima	13.1
29403	7	Sololá	701	Sololá	3	Barraneche	6	Junio	2023-03-06T00:00:00	2024-11-06T03:00:00	3	Temperatura mínima	12.4
29404	7	Sololá	701	Sololá	3	Barraneche	6	Junio	2023-03-06T00:00:00	2024-11-06T03:00:00	5	Humedad	81
29405	7	Sololá	701	Sololá	3	Barraneche	6	Junio	2023-03-06T00:00:00	2024-11-06T03:00:00	6	Velocidad del viento	6.4
29406	7	Sololá	701	Sololá	3	Barraneche	6	Junio	2023-03-06T00:00:00	2024-11-06T03:00:00	7	Dirección del viento	6.44
29407	7	Sololá	701	Sololá	3	Barraneche	6	Junio	2023-03-06T00:00:00	2024-11-06T03:00:00	1	Precipitación	0
29408	7	Sololá	701	Sololá	3	Barraneche	6	Junio	2023-03-06T00:00:00	2024-11-06T03:00:00	8	Radiación solar	0
29409	7	Sololá	701	Sololá	3	Barraneche	6	Junio	2023-03-06T00:00:00	2024-11-06T04:00:00	2	Temperatura media	12.4
29410	7	Sololá	701	Sololá	3	Barraneche	6	Junio	2023-03-06T00:00:00	2024-11-06T04:00:00	4	Temperatura máxima	12.7
29411	7	Sololá	701	Sololá	3	Barraneche	6	Junio	2023-03-06T00:00:00	2024-11-06T04:00:00	3	Temperatura mínima	12.3
29412	7	Sololá	701	Sololá	3	Barraneche	6	Junio	2023-03-06T00:00:00	2024-11-06T04:00:00	5	Humedad	80
29413	7	Sololá	701	Sololá	3	Barraneche	6	Junio	2023-03-06T00:00:00	2024-11-06T04:00:00	6	Velocidad del viento	6.4
29414	7	Sololá	701	Sololá	3	Barraneche	6	Junio	2023-03-06T00:00:00	2024-11-06T04:00:00	7	Dirección del viento	6.44
29415	7	Sololá	701	Sololá	3	Barraneche	6	Junio	2023-03-06T00:00:00	2024-11-06T04:00:00	1	Precipitación	0
29416	7	Sololá	701	Sololá	3	Barraneche	6	Junio	2023-03-06T00:00:00	2024-11-06T04:00:00	8	Radiación solar	0
29417	7	Sololá	701	Sololá	3	Barraneche	6	Junio	2023-03-06T00:00:00	2024-11-06T05:00:00	2	Temperatura media	13.2
29418	7	Sololá	701	Sololá	3	Barraneche	6	Junio	2023-03-06T00:00:00	2024-11-06T05:00:00	4	Temperatura máxima	13.2
29419	7	Sololá	701	Sololá	3	Barraneche	6	Junio	2023-03-06T00:00:00	2024-11-06T05:00:00	3	Temperatura mínima	12.4
29420	7	Sololá	701	Sololá	3	Barraneche	6	Junio	2023-03-06T00:00:00	2024-11-06T05:00:00	5	Humedad	81
29421	7	Sololá	701	Sololá	3	Barraneche	6	Junio	2023-03-06T00:00:00	2024-11-06T05:00:00	6	Velocidad del viento	3.2
29422	7	Sololá	701	Sololá	3	Barraneche	6	Junio	2023-03-06T00:00:00	2024-11-06T05:00:00	7	Dirección del viento	3.22
29423	7	Sololá	701	Sololá	3	Barraneche	6	Junio	2023-03-06T00:00:00	2024-11-06T05:00:00	1	Precipitación	0
29424	7	Sololá	701	Sololá	3	Barraneche	6	Junio	2023-03-06T00:00:00	2024-11-06T05:00:00	8	Radiación solar	0
29425	7	Sololá	701	Sololá	3	Barraneche	6	Junio	2023-03-06T00:00:00	2024-11-06T06:00:00	2	Temperatura media	12.9
29426	7	Sololá	701	Sololá	3	Barraneche	6	Junio	2023-03-06T00:00:00	2024-11-06T06:00:00	4	Temperatura máxima	13.4
29427	7	Sololá	701	Sololá	3	Barraneche	6	Junio	2023-03-06T00:00:00	2024-11-06T06:00:00	3	Temperatura mínima	12.6
29428	7	Sololá	701	Sololá	3	Barraneche	6	Junio	2023-03-06T00:00:00	2024-11-06T06:00:00	5	Humedad	79
29429	7	Sololá	701	Sololá	3	Barraneche	6	Junio	2023-03-06T00:00:00	2024-11-06T06:00:00	6	Velocidad del viento	6.4
29430	7	Sololá	701	Sololá	3	Barraneche	6	Junio	2023-03-06T00:00:00	2024-11-06T06:00:00	7	Dirección del viento	6.44
29431	7	Sololá	701	Sololá	3	Barraneche	6	Junio	2023-03-06T00:00:00	2024-11-06T06:00:00	1	Precipitación	0
29432	7	Sololá	701	Sololá	3	Barraneche	6	Junio	2023-03-06T00:00:00	2024-11-06T06:00:00	8	Radiación solar	10
29433	7	Sololá	701	Sololá	3	Barraneche	6	Junio	2023-03-06T00:00:00	2024-11-06T07:00:00	2	Temperatura media	14.3
29434	7	Sololá	701	Sololá	3	Barraneche	6	Junio	2023-03-06T00:00:00	2024-11-06T07:00:00	4	Temperatura máxima	14.3
29435	7	Sololá	701	Sololá	3	Barraneche	6	Junio	2023-03-06T00:00:00	2024-11-06T07:00:00	3	Temperatura mínima	12.8
29436	7	Sololá	701	Sololá	3	Barraneche	6	Junio	2023-03-06T00:00:00	2024-11-06T07:00:00	5	Humedad	79
29437	7	Sololá	701	Sololá	3	Barraneche	6	Junio	2023-03-06T00:00:00	2024-11-06T07:00:00	6	Velocidad del viento	3.2
29438	7	Sololá	701	Sololá	3	Barraneche	6	Junio	2023-03-06T00:00:00	2024-11-06T07:00:00	7	Dirección del viento	3.22
29439	7	Sololá	701	Sololá	3	Barraneche	6	Junio	2023-03-06T00:00:00	2024-11-06T07:00:00	1	Precipitación	0
29440	7	Sololá	701	Sololá	3	Barraneche	6	Junio	2023-03-06T00:00:00	2024-11-06T07:00:00	8	Radiación solar	123
29441	7	Sololá	701	Sololá	3	Barraneche	6	Junio	2023-03-06T00:00:00	2024-11-06T08:00:00	2	Temperatura media	17.5
29442	7	Sololá	701	Sololá	3	Barraneche	6	Junio	2023-03-06T00:00:00	2024-11-06T08:00:00	4	Temperatura máxima	17.5
29443	7	Sololá	701	Sololá	3	Barraneche	6	Junio	2023-03-06T00:00:00	2024-11-06T08:00:00	3	Temperatura mínima	14.3
29444	7	Sololá	701	Sololá	3	Barraneche	6	Junio	2023-03-06T00:00:00	2024-11-06T08:00:00	5	Humedad	71
29445	7	Sololá	701	Sololá	3	Barraneche	6	Junio	2023-03-06T00:00:00	2024-11-06T08:00:00	6	Velocidad del viento	1.6
29446	7	Sololá	701	Sololá	3	Barraneche	6	Junio	2023-03-06T00:00:00	2024-11-06T08:00:00	7	Dirección del viento	1.61
29447	7	Sololá	701	Sololá	3	Barraneche	6	Junio	2023-03-06T00:00:00	2024-11-06T08:00:00	1	Precipitación	0
29448	7	Sololá	701	Sololá	3	Barraneche	6	Junio	2023-03-06T00:00:00	2024-11-06T08:00:00	8	Radiación solar	389
29449	7	Sololá	701	Sololá	3	Barraneche	6	Junio	2023-03-06T00:00:00	2024-11-06T09:00:00	2	Temperatura media	18.3
29450	7	Sololá	701	Sololá	3	Barraneche	6	Junio	2023-03-06T00:00:00	2024-11-06T09:00:00	4	Temperatura máxima	18.4
29451	7	Sololá	701	Sololá	3	Barraneche	6	Junio	2023-03-06T00:00:00	2024-11-06T09:00:00	3	Temperatura mínima	17.5
29452	7	Sololá	701	Sololá	3	Barraneche	6	Junio	2023-03-06T00:00:00	2024-11-06T09:00:00	5	Humedad	69
29453	7	Sololá	701	Sololá	3	Barraneche	6	Junio	2023-03-06T00:00:00	2024-11-06T09:00:00	6	Velocidad del viento	4.8
29454	7	Sololá	701	Sololá	3	Barraneche	6	Junio	2023-03-06T00:00:00	2024-11-06T09:00:00	7	Dirección del viento	4.83
29455	7	Sololá	701	Sololá	3	Barraneche	6	Junio	2023-03-06T00:00:00	2024-11-06T09:00:00	1	Precipitación	0
29456	7	Sololá	701	Sololá	3	Barraneche	6	Junio	2023-03-06T00:00:00	2024-11-06T09:00:00	8	Radiación solar	541
29457	7	Sololá	701	Sololá	3	Barraneche	6	Junio	2023-03-06T00:00:00	2024-11-06T10:00:00	2	Temperatura media	18.8
29458	7	Sololá	701	Sololá	3	Barraneche	6	Junio	2023-03-06T00:00:00	2024-11-06T10:00:00	4	Temperatura máxima	18.8
29459	7	Sololá	701	Sololá	3	Barraneche	6	Junio	2023-03-06T00:00:00	2024-11-06T10:00:00	3	Temperatura mínima	17.8
29460	7	Sololá	701	Sololá	3	Barraneche	6	Junio	2023-03-06T00:00:00	2024-11-06T10:00:00	5	Humedad	71
29461	7	Sololá	701	Sololá	3	Barraneche	6	Junio	2023-03-06T00:00:00	2024-11-06T10:00:00	6	Velocidad del viento	6.4
29462	7	Sololá	701	Sololá	3	Barraneche	6	Junio	2023-03-06T00:00:00	2024-11-06T10:00:00	7	Dirección del viento	6.44
29463	7	Sololá	701	Sololá	3	Barraneche	6	Junio	2023-03-06T00:00:00	2024-11-06T10:00:00	1	Precipitación	0
29464	7	Sololá	701	Sololá	3	Barraneche	6	Junio	2023-03-06T00:00:00	2024-11-06T10:00:00	8	Radiación solar	484
29465	7	Sololá	701	Sololá	3	Barraneche	6	Junio	2023-03-06T00:00:00	2024-11-06T11:00:00	2	Temperatura media	19.4
29466	7	Sololá	701	Sololá	3	Barraneche	6	Junio	2023-03-06T00:00:00	2024-11-06T11:00:00	4	Temperatura máxima	19.6
29467	7	Sololá	701	Sololá	3	Barraneche	6	Junio	2023-03-06T00:00:00	2024-11-06T11:00:00	3	Temperatura mínima	18.8
29468	7	Sololá	701	Sololá	3	Barraneche	6	Junio	2023-03-06T00:00:00	2024-11-06T11:00:00	5	Humedad	72
29469	7	Sololá	701	Sololá	3	Barraneche	6	Junio	2023-03-06T00:00:00	2024-11-06T11:00:00	6	Velocidad del viento	9.7
29470	7	Sololá	701	Sololá	3	Barraneche	6	Junio	2023-03-06T00:00:00	2024-11-06T11:00:00	7	Dirección del viento	9.66
29471	7	Sololá	701	Sololá	3	Barraneche	6	Junio	2023-03-06T00:00:00	2024-11-06T11:00:00	1	Precipitación	0
29472	7	Sololá	701	Sololá	3	Barraneche	6	Junio	2023-03-06T00:00:00	2024-11-06T11:00:00	8	Radiación solar	806
29473	7	Sololá	701	Sololá	3	Barraneche	6	Junio	2023-03-06T00:00:00	2024-11-06T12:00:00	2	Temperatura media	18.4
29474	7	Sololá	701	Sololá	3	Barraneche	6	Junio	2023-03-06T00:00:00	2024-11-06T12:00:00	4	Temperatura máxima	19.4
29475	7	Sololá	701	Sololá	3	Barraneche	6	Junio	2023-03-06T00:00:00	2024-11-06T12:00:00	3	Temperatura mínima	18.4
29476	7	Sololá	701	Sololá	3	Barraneche	6	Junio	2023-03-06T00:00:00	2024-11-06T12:00:00	5	Humedad	75
29477	7	Sololá	701	Sololá	3	Barraneche	6	Junio	2023-03-06T00:00:00	2024-11-06T12:00:00	6	Velocidad del viento	11.3
29478	7	Sololá	701	Sololá	3	Barraneche	6	Junio	2023-03-06T00:00:00	2024-11-06T12:00:00	7	Dirección del viento	11.27
29479	7	Sololá	701	Sololá	3	Barraneche	6	Junio	2023-03-06T00:00:00	2024-11-06T12:00:00	1	Precipitación	0
29480	7	Sololá	701	Sololá	3	Barraneche	6	Junio	2023-03-06T00:00:00	2024-11-06T12:00:00	8	Radiación solar	494
29481	7	Sololá	701	Sololá	3	Barraneche	6	Junio	2023-03-06T00:00:00	2024-11-06T13:00:00	2	Temperatura media	18.1
29482	7	Sololá	701	Sololá	3	Barraneche	6	Junio	2023-03-06T00:00:00	2024-11-06T13:00:00	4	Temperatura máxima	18.5
29483	7	Sololá	701	Sololá	3	Barraneche	6	Junio	2023-03-06T00:00:00	2024-11-06T13:00:00	3	Temperatura mínima	17.9
29484	7	Sololá	701	Sololá	3	Barraneche	6	Junio	2023-03-06T00:00:00	2024-11-06T13:00:00	5	Humedad	79
29485	7	Sololá	701	Sololá	3	Barraneche	6	Junio	2023-03-06T00:00:00	2024-11-06T13:00:00	6	Velocidad del viento	11.3
29486	7	Sololá	701	Sololá	3	Barraneche	6	Junio	2023-03-06T00:00:00	2024-11-06T13:00:00	7	Dirección del viento	11.27
29487	7	Sololá	701	Sololá	3	Barraneche	6	Junio	2023-03-06T00:00:00	2024-11-06T13:00:00	1	Precipitación	0
29488	7	Sololá	701	Sololá	3	Barraneche	6	Junio	2023-03-06T00:00:00	2024-11-06T13:00:00	8	Radiación solar	350
29489	7	Sololá	701	Sololá	3	Barraneche	6	Junio	2023-03-06T00:00:00	2024-11-06T14:00:00	2	Temperatura media	18.9
29490	7	Sololá	701	Sololá	3	Barraneche	6	Junio	2023-03-06T00:00:00	2024-11-06T14:00:00	4	Temperatura máxima	18.9
29491	7	Sololá	701	Sololá	3	Barraneche	6	Junio	2023-03-06T00:00:00	2024-11-06T14:00:00	3	Temperatura mínima	18
29492	7	Sololá	701	Sololá	3	Barraneche	6	Junio	2023-03-06T00:00:00	2024-11-06T14:00:00	5	Humedad	76
29493	7	Sololá	701	Sololá	3	Barraneche	6	Junio	2023-03-06T00:00:00	2024-11-06T14:00:00	6	Velocidad del viento	8
29494	7	Sololá	701	Sololá	3	Barraneche	6	Junio	2023-03-06T00:00:00	2024-11-06T14:00:00	7	Dirección del viento	8.05
29495	7	Sololá	701	Sololá	3	Barraneche	6	Junio	2023-03-06T00:00:00	2024-11-06T14:00:00	1	Precipitación	0
29496	7	Sololá	701	Sololá	3	Barraneche	6	Junio	2023-03-06T00:00:00	2024-11-06T14:00:00	8	Radiación solar	321
29497	7	Sololá	701	Sololá	3	Barraneche	6	Junio	2023-03-06T00:00:00	2024-11-06T15:00:00	2	Temperatura media	17.9
29498	7	Sololá	701	Sololá	3	Barraneche	6	Junio	2023-03-06T00:00:00	2024-11-06T15:00:00	4	Temperatura máxima	19.1
29499	7	Sololá	701	Sololá	3	Barraneche	6	Junio	2023-03-06T00:00:00	2024-11-06T15:00:00	3	Temperatura mínima	17.8
29500	7	Sololá	701	Sololá	3	Barraneche	6	Junio	2023-03-06T00:00:00	2024-11-06T15:00:00	5	Humedad	79
29501	7	Sololá	701	Sololá	3	Barraneche	6	Junio	2023-03-06T00:00:00	2024-11-06T15:00:00	6	Velocidad del viento	9.7
29502	7	Sololá	701	Sololá	3	Barraneche	6	Junio	2023-03-06T00:00:00	2024-11-06T15:00:00	7	Dirección del viento	9.66
29503	7	Sololá	701	Sololá	3	Barraneche	6	Junio	2023-03-06T00:00:00	2024-11-06T15:00:00	1	Precipitación	0
29504	7	Sololá	701	Sololá	3	Barraneche	6	Junio	2023-03-06T00:00:00	2024-11-06T15:00:00	8	Radiación solar	221
29505	7	Sololá	701	Sololá	3	Barraneche	6	Junio	2023-03-06T00:00:00	2024-11-06T16:00:00	2	Temperatura media	16.9
29506	7	Sololá	701	Sololá	3	Barraneche	6	Junio	2023-03-06T00:00:00	2024-11-06T16:00:00	4	Temperatura máxima	17.9
29507	7	Sololá	701	Sololá	3	Barraneche	6	Junio	2023-03-06T00:00:00	2024-11-06T16:00:00	3	Temperatura mínima	16.9
29508	7	Sololá	701	Sololá	3	Barraneche	6	Junio	2023-03-06T00:00:00	2024-11-06T16:00:00	5	Humedad	82
29509	7	Sololá	701	Sololá	3	Barraneche	6	Junio	2023-03-06T00:00:00	2024-11-06T16:00:00	6	Velocidad del viento	8
29510	7	Sololá	701	Sololá	3	Barraneche	6	Junio	2023-03-06T00:00:00	2024-11-06T16:00:00	7	Dirección del viento	8.05
29511	7	Sololá	701	Sololá	3	Barraneche	6	Junio	2023-03-06T00:00:00	2024-11-06T16:00:00	1	Precipitación	0
29512	7	Sololá	701	Sololá	3	Barraneche	6	Junio	2023-03-06T00:00:00	2024-11-06T16:00:00	8	Radiación solar	119
29513	7	Sololá	701	Sololá	3	Barraneche	6	Junio	2023-03-06T00:00:00	2024-11-06T17:00:00	2	Temperatura media	16.6
29514	7	Sololá	701	Sololá	3	Barraneche	6	Junio	2023-03-06T00:00:00	2024-11-06T17:00:00	4	Temperatura máxima	16.9
29515	7	Sololá	701	Sololá	3	Barraneche	6	Junio	2023-03-06T00:00:00	2024-11-06T17:00:00	3	Temperatura mínima	16.6
29516	7	Sololá	701	Sololá	3	Barraneche	6	Junio	2023-03-06T00:00:00	2024-11-06T17:00:00	5	Humedad	83
29517	7	Sololá	701	Sololá	3	Barraneche	6	Junio	2023-03-06T00:00:00	2024-11-06T17:00:00	6	Velocidad del viento	4.8
29518	7	Sololá	701	Sololá	3	Barraneche	6	Junio	2023-03-06T00:00:00	2024-11-06T17:00:00	7	Dirección del viento	4.83
29519	7	Sololá	701	Sololá	3	Barraneche	6	Junio	2023-03-06T00:00:00	2024-11-06T17:00:00	1	Precipitación	0
29520	7	Sololá	701	Sololá	3	Barraneche	6	Junio	2023-03-06T00:00:00	2024-11-06T17:00:00	8	Radiación solar	25
29521	7	Sololá	701	Sololá	3	Barraneche	6	Junio	2023-03-06T00:00:00	2024-11-06T18:00:00	2	Temperatura media	16.4
29522	7	Sololá	701	Sololá	3	Barraneche	6	Junio	2023-03-06T00:00:00	2024-11-06T18:00:00	4	Temperatura máxima	16.7
29523	7	Sololá	701	Sololá	3	Barraneche	6	Junio	2023-03-06T00:00:00	2024-11-06T18:00:00	3	Temperatura mínima	16.4
29524	7	Sololá	701	Sololá	3	Barraneche	6	Junio	2023-03-06T00:00:00	2024-11-06T18:00:00	5	Humedad	84
29525	7	Sololá	701	Sololá	3	Barraneche	6	Junio	2023-03-06T00:00:00	2024-11-06T18:00:00	6	Velocidad del viento	4.8
29526	7	Sololá	701	Sololá	3	Barraneche	6	Junio	2023-03-06T00:00:00	2024-11-06T18:00:00	7	Dirección del viento	4.83
29527	7	Sololá	701	Sololá	3	Barraneche	6	Junio	2023-03-06T00:00:00	2024-11-06T18:00:00	1	Precipitación	0
29528	7	Sololá	701	Sololá	3	Barraneche	6	Junio	2023-03-06T00:00:00	2024-11-06T18:00:00	8	Radiación solar	11
29529	7	Sololá	701	Sololá	3	Barraneche	6	Junio	2023-03-06T00:00:00	2024-11-06T19:00:00	2	Temperatura media	16.4
29530	7	Sololá	701	Sololá	3	Barraneche	6	Junio	2023-03-06T00:00:00	2024-11-06T19:00:00	4	Temperatura máxima	16.4
29531	7	Sololá	701	Sololá	3	Barraneche	6	Junio	2023-03-06T00:00:00	2024-11-06T19:00:00	3	Temperatura mínima	16.3
29532	7	Sololá	701	Sololá	3	Barraneche	6	Junio	2023-03-06T00:00:00	2024-11-06T19:00:00	5	Humedad	83
29533	7	Sololá	701	Sololá	3	Barraneche	6	Junio	2023-03-06T00:00:00	2024-11-06T19:00:00	6	Velocidad del viento	1.6
29534	7	Sololá	701	Sololá	3	Barraneche	6	Junio	2023-03-06T00:00:00	2024-11-06T19:00:00	7	Dirección del viento	1.61
29535	7	Sololá	701	Sololá	3	Barraneche	6	Junio	2023-03-06T00:00:00	2024-11-06T19:00:00	1	Precipitación	0
29536	7	Sololá	701	Sololá	3	Barraneche	6	Junio	2023-03-06T00:00:00	2024-11-06T19:00:00	8	Radiación solar	0
29537	7	Sololá	701	Sololá	3	Barraneche	6	Junio	2023-03-06T00:00:00	2024-11-06T20:00:00	2	Temperatura media	16.2
29538	7	Sololá	701	Sololá	3	Barraneche	6	Junio	2023-03-06T00:00:00	2024-11-06T20:00:00	4	Temperatura máxima	16.5
29539	7	Sololá	701	Sololá	3	Barraneche	6	Junio	2023-03-06T00:00:00	2024-11-06T20:00:00	3	Temperatura mínima	16.2
29540	7	Sololá	701	Sololá	3	Barraneche	6	Junio	2023-03-06T00:00:00	2024-11-06T20:00:00	5	Humedad	83
29541	7	Sololá	701	Sololá	3	Barraneche	6	Junio	2023-03-06T00:00:00	2024-11-06T20:00:00	6	Velocidad del viento	1.6
29542	7	Sololá	701	Sololá	3	Barraneche	6	Junio	2023-03-06T00:00:00	2024-11-06T20:00:00	7	Dirección del viento	1.61
29543	7	Sololá	701	Sololá	3	Barraneche	6	Junio	2023-03-06T00:00:00	2024-11-06T20:00:00	1	Precipitación	0
29544	7	Sololá	701	Sololá	3	Barraneche	6	Junio	2023-03-06T00:00:00	2024-11-06T20:00:00	8	Radiación solar	0
29545	7	Sololá	701	Sololá	3	Barraneche	6	Junio	2023-03-06T00:00:00	2024-11-06T21:00:00	2	Temperatura media	16
29546	7	Sololá	701	Sololá	3	Barraneche	6	Junio	2023-03-06T00:00:00	2024-11-06T21:00:00	4	Temperatura máxima	16.3
29547	7	Sololá	701	Sololá	3	Barraneche	6	Junio	2023-03-06T00:00:00	2024-11-06T21:00:00	3	Temperatura mínima	16
29548	7	Sololá	701	Sololá	3	Barraneche	6	Junio	2023-03-06T00:00:00	2024-11-06T21:00:00	5	Humedad	84
29549	7	Sololá	701	Sololá	3	Barraneche	6	Junio	2023-03-06T00:00:00	2024-11-06T21:00:00	6	Velocidad del viento	3.2
29550	7	Sololá	701	Sololá	3	Barraneche	6	Junio	2023-03-06T00:00:00	2024-11-06T21:00:00	7	Dirección del viento	3.22
29551	7	Sololá	701	Sololá	3	Barraneche	6	Junio	2023-03-06T00:00:00	2024-11-06T21:00:00	1	Precipitación	0
29552	7	Sololá	701	Sololá	3	Barraneche	6	Junio	2023-03-06T00:00:00	2024-11-06T21:00:00	8	Radiación solar	0
29553	7	Sololá	701	Sololá	3	Barraneche	6	Junio	2023-03-06T00:00:00	2024-11-06T22:00:00	2	Temperatura media	15.4
29554	7	Sololá	701	Sololá	3	Barraneche	6	Junio	2023-03-06T00:00:00	2024-11-06T22:00:00	4	Temperatura máxima	16.1
29555	7	Sololá	701	Sololá	3	Barraneche	6	Junio	2023-03-06T00:00:00	2024-11-06T22:00:00	3	Temperatura mínima	15.4
29556	7	Sololá	701	Sololá	3	Barraneche	6	Junio	2023-03-06T00:00:00	2024-11-06T22:00:00	5	Humedad	85
29557	7	Sololá	701	Sololá	3	Barraneche	6	Junio	2023-03-06T00:00:00	2024-11-06T22:00:00	6	Velocidad del viento	3.2
29558	7	Sololá	701	Sololá	3	Barraneche	6	Junio	2023-03-06T00:00:00	2024-11-06T22:00:00	7	Dirección del viento	3.22
29559	7	Sololá	701	Sololá	3	Barraneche	6	Junio	2023-03-06T00:00:00	2024-11-06T22:00:00	1	Precipitación	0
29560	7	Sololá	701	Sololá	3	Barraneche	6	Junio	2023-03-06T00:00:00	2024-11-06T22:00:00	8	Radiación solar	0
29561	7	Sololá	701	Sololá	3	Barraneche	6	Junio	2023-03-06T00:00:00	2024-11-06T23:00:00	2	Temperatura media	15.3
29562	7	Sololá	701	Sololá	3	Barraneche	6	Junio	2023-03-06T00:00:00	2024-11-06T23:00:00	4	Temperatura máxima	15.5
29563	7	Sololá	701	Sololá	3	Barraneche	6	Junio	2023-03-06T00:00:00	2024-11-06T23:00:00	3	Temperatura mínima	15.2
29564	7	Sololá	701	Sololá	3	Barraneche	6	Junio	2023-03-06T00:00:00	2024-11-06T23:00:00	5	Humedad	85
29565	7	Sololá	701	Sololá	3	Barraneche	6	Junio	2023-03-06T00:00:00	2024-11-06T23:00:00	6	Velocidad del viento	3.2
29566	7	Sololá	701	Sololá	3	Barraneche	6	Junio	2023-03-06T00:00:00	2024-11-06T23:00:00	7	Dirección del viento	3.22
29567	7	Sololá	701	Sololá	3	Barraneche	6	Junio	2023-03-06T00:00:00	2024-11-06T23:00:00	1	Precipitación	0
29568	7	Sololá	701	Sololá	3	Barraneche	6	Junio	2023-03-06T00:00:00	2024-11-06T23:00:00	8	Radiación solar	0
29569	7	Sololá	701	Sololá	3	Barraneche	6	Junio	2023-04-06T00:00:00	2024-11-06T00:00:00	2	Temperatura media	15.2
29570	7	Sololá	701	Sololá	3	Barraneche	6	Junio	2023-04-06T00:00:00	2024-11-06T00:00:00	4	Temperatura máxima	15.3
29571	7	Sololá	701	Sololá	3	Barraneche	6	Junio	2023-04-06T00:00:00	2024-11-06T00:00:00	3	Temperatura mínima	15.1
29572	7	Sololá	701	Sololá	3	Barraneche	6	Junio	2023-04-06T00:00:00	2024-11-06T00:00:00	5	Humedad	85
29573	7	Sololá	701	Sololá	3	Barraneche	6	Junio	2023-04-06T00:00:00	2024-11-06T00:00:00	6	Velocidad del viento	1.6
29574	7	Sololá	701	Sololá	3	Barraneche	6	Junio	2023-04-06T00:00:00	2024-11-06T00:00:00	7	Dirección del viento	1.61
29575	7	Sololá	701	Sololá	3	Barraneche	6	Junio	2023-04-06T00:00:00	2024-11-06T00:00:00	1	Precipitación	0
29576	7	Sololá	701	Sololá	3	Barraneche	6	Junio	2023-04-06T00:00:00	2024-11-06T00:00:00	8	Radiación solar	0
29577	7	Sololá	701	Sololá	3	Barraneche	6	Junio	2023-04-06T00:00:00	2024-11-06T01:00:00	2	Temperatura media	14.2
29578	7	Sololá	701	Sololá	3	Barraneche	6	Junio	2023-04-06T00:00:00	2024-11-06T01:00:00	4	Temperatura máxima	15.2
29579	7	Sololá	701	Sololá	3	Barraneche	6	Junio	2023-04-06T00:00:00	2024-11-06T01:00:00	3	Temperatura mínima	14.2
29580	7	Sololá	701	Sololá	3	Barraneche	6	Junio	2023-04-06T00:00:00	2024-11-06T01:00:00	5	Humedad	84
29581	7	Sololá	701	Sololá	3	Barraneche	6	Junio	2023-04-06T00:00:00	2024-11-06T01:00:00	6	Velocidad del viento	1.6
29582	7	Sololá	701	Sololá	3	Barraneche	6	Junio	2023-04-06T00:00:00	2024-11-06T01:00:00	7	Dirección del viento	1.61
29583	7	Sololá	701	Sololá	3	Barraneche	6	Junio	2023-04-06T00:00:00	2024-11-06T01:00:00	1	Precipitación	0
29584	7	Sololá	701	Sololá	3	Barraneche	6	Junio	2023-04-06T00:00:00	2024-11-06T01:00:00	8	Radiación solar	0
29585	7	Sololá	701	Sololá	3	Barraneche	6	Junio	2023-04-06T00:00:00	2024-11-06T02:00:00	2	Temperatura media	14.3
29586	7	Sololá	701	Sololá	3	Barraneche	6	Junio	2023-04-06T00:00:00	2024-11-06T02:00:00	4	Temperatura máxima	14.3
29587	7	Sololá	701	Sololá	3	Barraneche	6	Junio	2023-04-06T00:00:00	2024-11-06T02:00:00	3	Temperatura mínima	14
29588	7	Sololá	701	Sololá	3	Barraneche	6	Junio	2023-04-06T00:00:00	2024-11-06T02:00:00	5	Humedad	82
29589	7	Sololá	701	Sololá	3	Barraneche	6	Junio	2023-04-06T00:00:00	2024-11-06T02:00:00	6	Velocidad del viento	3.2
29590	7	Sololá	701	Sololá	3	Barraneche	6	Junio	2023-04-06T00:00:00	2024-11-06T02:00:00	7	Dirección del viento	3.22
29591	7	Sololá	701	Sololá	3	Barraneche	6	Junio	2023-04-06T00:00:00	2024-11-06T02:00:00	1	Precipitación	0
29592	7	Sololá	701	Sololá	3	Barraneche	6	Junio	2023-04-06T00:00:00	2024-11-06T02:00:00	8	Radiación solar	0
29593	7	Sololá	701	Sololá	3	Barraneche	6	Junio	2023-04-06T00:00:00	2024-11-06T03:00:00	2	Temperatura media	14.4
29594	7	Sololá	701	Sololá	3	Barraneche	6	Junio	2023-04-06T00:00:00	2024-11-06T03:00:00	4	Temperatura máxima	14.5
29595	7	Sololá	701	Sololá	3	Barraneche	6	Junio	2023-04-06T00:00:00	2024-11-06T03:00:00	3	Temperatura mínima	14.3
29596	7	Sololá	701	Sololá	3	Barraneche	6	Junio	2023-04-06T00:00:00	2024-11-06T03:00:00	5	Humedad	82
29597	7	Sololá	701	Sololá	3	Barraneche	6	Junio	2023-04-06T00:00:00	2024-11-06T03:00:00	6	Velocidad del viento	1.6
29598	7	Sololá	701	Sololá	3	Barraneche	6	Junio	2023-04-06T00:00:00	2024-11-06T03:00:00	7	Dirección del viento	1.61
29599	7	Sololá	701	Sololá	3	Barraneche	6	Junio	2023-04-06T00:00:00	2024-11-06T03:00:00	1	Precipitación	0
29600	7	Sololá	701	Sololá	3	Barraneche	6	Junio	2023-04-06T00:00:00	2024-11-06T03:00:00	8	Radiación solar	0
29601	7	Sololá	701	Sololá	3	Barraneche	6	Junio	2023-04-06T00:00:00	2024-11-06T04:00:00	2	Temperatura media	13.7
29602	7	Sololá	701	Sololá	3	Barraneche	6	Junio	2023-04-06T00:00:00	2024-11-06T04:00:00	4	Temperatura máxima	14.5
29603	7	Sololá	701	Sololá	3	Barraneche	6	Junio	2023-04-06T00:00:00	2024-11-06T04:00:00	3	Temperatura mínima	13.7
29604	7	Sololá	701	Sololá	3	Barraneche	6	Junio	2023-04-06T00:00:00	2024-11-06T04:00:00	5	Humedad	81
29605	7	Sololá	701	Sololá	3	Barraneche	6	Junio	2023-04-06T00:00:00	2024-11-06T04:00:00	6	Velocidad del viento	3.2
29606	7	Sololá	701	Sololá	3	Barraneche	6	Junio	2023-04-06T00:00:00	2024-11-06T04:00:00	7	Dirección del viento	3.22
29607	7	Sololá	701	Sololá	3	Barraneche	6	Junio	2023-04-06T00:00:00	2024-11-06T04:00:00	1	Precipitación	0
29608	7	Sololá	701	Sololá	3	Barraneche	6	Junio	2023-04-06T00:00:00	2024-11-06T04:00:00	8	Radiación solar	0
29609	7	Sololá	701	Sololá	3	Barraneche	6	Junio	2023-04-06T00:00:00	2024-11-06T05:00:00	2	Temperatura media	13.1
29610	7	Sololá	701	Sololá	3	Barraneche	6	Junio	2023-04-06T00:00:00	2024-11-06T05:00:00	4	Temperatura máxima	13.7
29611	7	Sololá	701	Sololá	3	Barraneche	6	Junio	2023-04-06T00:00:00	2024-11-06T05:00:00	3	Temperatura mínima	13
29612	7	Sololá	701	Sololá	3	Barraneche	6	Junio	2023-04-06T00:00:00	2024-11-06T05:00:00	5	Humedad	80
29613	7	Sololá	701	Sololá	3	Barraneche	6	Junio	2023-04-06T00:00:00	2024-11-06T05:00:00	6	Velocidad del viento	4.8
29614	7	Sololá	701	Sololá	3	Barraneche	6	Junio	2023-04-06T00:00:00	2024-11-06T05:00:00	7	Dirección del viento	4.83
29615	7	Sololá	701	Sololá	3	Barraneche	6	Junio	2023-04-06T00:00:00	2024-11-06T05:00:00	1	Precipitación	0
29616	7	Sololá	701	Sololá	3	Barraneche	6	Junio	2023-04-06T00:00:00	2024-11-06T05:00:00	8	Radiación solar	0
29617	7	Sololá	701	Sololá	3	Barraneche	6	Junio	2023-04-06T00:00:00	2024-11-06T06:00:00	2	Temperatura media	13.1
29618	7	Sololá	701	Sololá	3	Barraneche	6	Junio	2023-04-06T00:00:00	2024-11-06T06:00:00	4	Temperatura máxima	13.2
29619	7	Sololá	701	Sololá	3	Barraneche	6	Junio	2023-04-06T00:00:00	2024-11-06T06:00:00	3	Temperatura mínima	12.8
29620	7	Sololá	701	Sololá	3	Barraneche	6	Junio	2023-04-06T00:00:00	2024-11-06T06:00:00	5	Humedad	80
29621	7	Sololá	701	Sololá	3	Barraneche	6	Junio	2023-04-06T00:00:00	2024-11-06T06:00:00	6	Velocidad del viento	6.4
29622	7	Sololá	701	Sololá	3	Barraneche	6	Junio	2023-04-06T00:00:00	2024-11-06T06:00:00	7	Dirección del viento	6.44
29623	7	Sololá	701	Sololá	3	Barraneche	6	Junio	2023-04-06T00:00:00	2024-11-06T06:00:00	1	Precipitación	0
29624	7	Sololá	701	Sololá	3	Barraneche	6	Junio	2023-04-06T00:00:00	2024-11-06T06:00:00	8	Radiación solar	7
29625	7	Sololá	701	Sololá	3	Barraneche	6	Junio	2023-04-06T00:00:00	2024-11-06T07:00:00	2	Temperatura media	14.1
29626	7	Sololá	701	Sololá	3	Barraneche	6	Junio	2023-04-06T00:00:00	2024-11-06T07:00:00	4	Temperatura máxima	14.1
29627	7	Sololá	701	Sololá	3	Barraneche	6	Junio	2023-04-06T00:00:00	2024-11-06T07:00:00	3	Temperatura mínima	13.1
29628	7	Sololá	701	Sololá	3	Barraneche	6	Junio	2023-04-06T00:00:00	2024-11-06T07:00:00	5	Humedad	80
29629	7	Sololá	701	Sololá	3	Barraneche	6	Junio	2023-04-06T00:00:00	2024-11-06T07:00:00	6	Velocidad del viento	3.2
29630	7	Sololá	701	Sololá	3	Barraneche	6	Junio	2023-04-06T00:00:00	2024-11-06T07:00:00	7	Dirección del viento	3.22
29631	7	Sololá	701	Sololá	3	Barraneche	6	Junio	2023-04-06T00:00:00	2024-11-06T07:00:00	1	Precipitación	0
29632	7	Sololá	701	Sololá	3	Barraneche	6	Junio	2023-04-06T00:00:00	2024-11-06T07:00:00	8	Radiación solar	84
29633	7	Sololá	701	Sololá	3	Barraneche	6	Junio	2023-04-06T00:00:00	2024-11-06T08:00:00	2	Temperatura media	17.1
29634	7	Sololá	701	Sololá	3	Barraneche	6	Junio	2023-04-06T00:00:00	2024-11-06T08:00:00	4	Temperatura máxima	17.1
29635	7	Sololá	701	Sololá	3	Barraneche	6	Junio	2023-04-06T00:00:00	2024-11-06T08:00:00	3	Temperatura mínima	14.1
29636	7	Sololá	701	Sololá	3	Barraneche	6	Junio	2023-04-06T00:00:00	2024-11-06T08:00:00	5	Humedad	73
29637	7	Sololá	701	Sololá	3	Barraneche	6	Junio	2023-04-06T00:00:00	2024-11-06T08:00:00	6	Velocidad del viento	1.6
29638	7	Sololá	701	Sololá	3	Barraneche	6	Junio	2023-04-06T00:00:00	2024-11-06T08:00:00	7	Dirección del viento	1.61
29639	7	Sololá	701	Sololá	3	Barraneche	6	Junio	2023-04-06T00:00:00	2024-11-06T08:00:00	1	Precipitación	0
29640	7	Sololá	701	Sololá	3	Barraneche	6	Junio	2023-04-06T00:00:00	2024-11-06T08:00:00	8	Radiación solar	279
29641	7	Sololá	701	Sololá	3	Barraneche	6	Junio	2023-04-06T00:00:00	2024-11-06T09:00:00	2	Temperatura media	18.9
29642	7	Sololá	701	Sololá	3	Barraneche	6	Junio	2023-04-06T00:00:00	2024-11-06T09:00:00	4	Temperatura máxima	18.9
29643	7	Sololá	701	Sololá	3	Barraneche	6	Junio	2023-04-06T00:00:00	2024-11-06T09:00:00	3	Temperatura mínima	17.1
29644	7	Sololá	701	Sololá	3	Barraneche	6	Junio	2023-04-06T00:00:00	2024-11-06T09:00:00	5	Humedad	70
29645	7	Sololá	701	Sololá	3	Barraneche	6	Junio	2023-04-06T00:00:00	2024-11-06T09:00:00	6	Velocidad del viento	4.8
29646	7	Sololá	701	Sololá	3	Barraneche	6	Junio	2023-04-06T00:00:00	2024-11-06T09:00:00	7	Dirección del viento	4.83
29647	7	Sololá	701	Sololá	3	Barraneche	6	Junio	2023-04-06T00:00:00	2024-11-06T09:00:00	1	Precipitación	0
29648	7	Sololá	701	Sololá	3	Barraneche	6	Junio	2023-04-06T00:00:00	2024-11-06T09:00:00	8	Radiación solar	632
29649	7	Sololá	701	Sololá	3	Barraneche	6	Junio	2023-04-06T00:00:00	2024-11-06T10:00:00	2	Temperatura media	20.4
29650	7	Sololá	701	Sololá	3	Barraneche	6	Junio	2023-04-06T00:00:00	2024-11-06T10:00:00	4	Temperatura máxima	20.4
29651	7	Sololá	701	Sololá	3	Barraneche	6	Junio	2023-04-06T00:00:00	2024-11-06T10:00:00	3	Temperatura mínima	18.9
29652	7	Sololá	701	Sololá	3	Barraneche	6	Junio	2023-04-06T00:00:00	2024-11-06T10:00:00	5	Humedad	68
29653	7	Sololá	701	Sololá	3	Barraneche	6	Junio	2023-04-06T00:00:00	2024-11-06T10:00:00	6	Velocidad del viento	6.4
29654	7	Sololá	701	Sololá	3	Barraneche	6	Junio	2023-04-06T00:00:00	2024-11-06T10:00:00	7	Dirección del viento	6.44
29655	7	Sololá	701	Sololá	3	Barraneche	6	Junio	2023-04-06T00:00:00	2024-11-06T10:00:00	1	Precipitación	0
29656	7	Sololá	701	Sololá	3	Barraneche	6	Junio	2023-04-06T00:00:00	2024-11-06T10:00:00	8	Radiación solar	807
29657	7	Sololá	701	Sololá	3	Barraneche	6	Junio	2023-04-06T00:00:00	2024-11-06T11:00:00	2	Temperatura media	19.9
29658	7	Sololá	701	Sololá	3	Barraneche	6	Junio	2023-04-06T00:00:00	2024-11-06T11:00:00	4	Temperatura máxima	20.7
29659	7	Sololá	701	Sololá	3	Barraneche	6	Junio	2023-04-06T00:00:00	2024-11-06T11:00:00	3	Temperatura mínima	19.9
29660	7	Sololá	701	Sololá	3	Barraneche	6	Junio	2023-04-06T00:00:00	2024-11-06T11:00:00	5	Humedad	68
29661	7	Sololá	701	Sololá	3	Barraneche	6	Junio	2023-04-06T00:00:00	2024-11-06T11:00:00	6	Velocidad del viento	12.9
29662	7	Sololá	701	Sololá	3	Barraneche	6	Junio	2023-04-06T00:00:00	2024-11-06T11:00:00	7	Dirección del viento	12.87
29663	7	Sololá	701	Sololá	3	Barraneche	6	Junio	2023-04-06T00:00:00	2024-11-06T11:00:00	1	Precipitación	0
29664	7	Sololá	701	Sololá	3	Barraneche	6	Junio	2023-04-06T00:00:00	2024-11-06T11:00:00	8	Radiación solar	996
29665	7	Sololá	701	Sololá	3	Barraneche	6	Junio	2023-04-06T00:00:00	2024-11-06T12:00:00	2	Temperatura media	20.2
29666	7	Sololá	701	Sololá	3	Barraneche	6	Junio	2023-04-06T00:00:00	2024-11-06T12:00:00	4	Temperatura máxima	20.3
29667	7	Sololá	701	Sololá	3	Barraneche	6	Junio	2023-04-06T00:00:00	2024-11-06T12:00:00	3	Temperatura mínima	19.8
29668	7	Sololá	701	Sololá	3	Barraneche	6	Junio	2023-04-06T00:00:00	2024-11-06T12:00:00	5	Humedad	71
29669	7	Sololá	701	Sololá	3	Barraneche	6	Junio	2023-04-06T00:00:00	2024-11-06T12:00:00	6	Velocidad del viento	12.9
29670	7	Sololá	701	Sololá	3	Barraneche	6	Junio	2023-04-06T00:00:00	2024-11-06T12:00:00	7	Dirección del viento	12.87
29671	7	Sololá	701	Sololá	3	Barraneche	6	Junio	2023-04-06T00:00:00	2024-11-06T12:00:00	1	Precipitación	0
29672	7	Sololá	701	Sololá	3	Barraneche	6	Junio	2023-04-06T00:00:00	2024-11-06T12:00:00	8	Radiación solar	1042
29673	7	Sololá	701	Sololá	3	Barraneche	6	Junio	2023-04-06T00:00:00	2024-11-06T13:00:00	2	Temperatura media	19.2
29674	7	Sololá	701	Sololá	3	Barraneche	6	Junio	2023-04-06T00:00:00	2024-11-06T13:00:00	4	Temperatura máxima	20.2
29675	7	Sololá	701	Sololá	3	Barraneche	6	Junio	2023-04-06T00:00:00	2024-11-06T13:00:00	3	Temperatura mínima	19.2
29676	7	Sololá	701	Sololá	3	Barraneche	6	Junio	2023-04-06T00:00:00	2024-11-06T13:00:00	5	Humedad	75
29677	7	Sololá	701	Sololá	3	Barraneche	6	Junio	2023-04-06T00:00:00	2024-11-06T13:00:00	6	Velocidad del viento	14.5
29678	7	Sololá	701	Sololá	3	Barraneche	6	Junio	2023-04-06T00:00:00	2024-11-06T13:00:00	7	Dirección del viento	14.48
29679	7	Sololá	701	Sololá	3	Barraneche	6	Junio	2023-04-06T00:00:00	2024-11-06T13:00:00	1	Precipitación	0
29680	7	Sololá	701	Sololá	3	Barraneche	6	Junio	2023-04-06T00:00:00	2024-11-06T13:00:00	8	Radiación solar	990
29681	7	Sololá	701	Sololá	3	Barraneche	6	Junio	2023-04-06T00:00:00	2024-11-06T14:00:00	2	Temperatura media	18.4
29682	7	Sololá	701	Sololá	3	Barraneche	6	Junio	2023-04-06T00:00:00	2024-11-06T14:00:00	4	Temperatura máxima	19.2
29683	7	Sololá	701	Sololá	3	Barraneche	6	Junio	2023-04-06T00:00:00	2024-11-06T14:00:00	3	Temperatura mínima	18.3
29684	7	Sololá	701	Sololá	3	Barraneche	6	Junio	2023-04-06T00:00:00	2024-11-06T14:00:00	5	Humedad	76
29685	7	Sololá	701	Sololá	3	Barraneche	6	Junio	2023-04-06T00:00:00	2024-11-06T14:00:00	6	Velocidad del viento	12.9
29686	7	Sololá	701	Sololá	3	Barraneche	6	Junio	2023-04-06T00:00:00	2024-11-06T14:00:00	7	Dirección del viento	12.87
29687	7	Sololá	701	Sololá	3	Barraneche	6	Junio	2023-04-06T00:00:00	2024-11-06T14:00:00	1	Precipitación	0
29688	7	Sololá	701	Sololá	3	Barraneche	6	Junio	2023-04-06T00:00:00	2024-11-06T14:00:00	8	Radiación solar	713
29689	7	Sololá	701	Sololá	3	Barraneche	6	Junio	2023-04-06T00:00:00	2024-11-06T15:00:00	2	Temperatura media	16.9
29690	7	Sololá	701	Sololá	3	Barraneche	6	Junio	2023-04-06T00:00:00	2024-11-06T15:00:00	4	Temperatura máxima	19
29691	7	Sololá	701	Sololá	3	Barraneche	6	Junio	2023-04-06T00:00:00	2024-11-06T15:00:00	3	Temperatura mínima	16.8
29692	7	Sololá	701	Sololá	3	Barraneche	6	Junio	2023-04-06T00:00:00	2024-11-06T15:00:00	5	Humedad	81
29693	7	Sololá	701	Sololá	3	Barraneche	6	Junio	2023-04-06T00:00:00	2024-11-06T15:00:00	6	Velocidad del viento	9.7
29694	7	Sololá	701	Sololá	3	Barraneche	6	Junio	2023-04-06T00:00:00	2024-11-06T15:00:00	7	Dirección del viento	9.66
29695	7	Sololá	701	Sololá	3	Barraneche	6	Junio	2023-04-06T00:00:00	2024-11-06T15:00:00	1	Precipitación	0
29696	7	Sololá	701	Sololá	3	Barraneche	6	Junio	2023-04-06T00:00:00	2024-11-06T15:00:00	8	Radiación solar	142
29697	7	Sololá	701	Sololá	3	Barraneche	6	Junio	2023-04-06T00:00:00	2024-11-06T16:00:00	2	Temperatura media	16.4
29698	7	Sololá	701	Sololá	3	Barraneche	6	Junio	2023-04-06T00:00:00	2024-11-06T16:00:00	4	Temperatura máxima	16.9
29699	7	Sololá	701	Sololá	3	Barraneche	6	Junio	2023-04-06T00:00:00	2024-11-06T16:00:00	3	Temperatura mínima	16.4
29700	7	Sololá	701	Sololá	3	Barraneche	6	Junio	2023-04-06T00:00:00	2024-11-06T16:00:00	5	Humedad	81
29701	7	Sololá	701	Sololá	3	Barraneche	6	Junio	2023-04-06T00:00:00	2024-11-06T16:00:00	6	Velocidad del viento	4.8
29702	7	Sololá	701	Sololá	3	Barraneche	6	Junio	2023-04-06T00:00:00	2024-11-06T16:00:00	7	Dirección del viento	4.83
29703	7	Sololá	701	Sololá	3	Barraneche	6	Junio	2023-04-06T00:00:00	2024-11-06T16:00:00	1	Precipitación	0
29704	7	Sololá	701	Sololá	3	Barraneche	6	Junio	2023-04-06T00:00:00	2024-11-06T16:00:00	8	Radiación solar	12
29705	7	Sololá	701	Sololá	3	Barraneche	6	Junio	2023-04-06T00:00:00	2024-11-06T17:00:00	2	Temperatura media	16.4
29706	7	Sololá	701	Sololá	3	Barraneche	6	Junio	2023-04-06T00:00:00	2024-11-06T17:00:00	4	Temperatura máxima	16.6
29707	7	Sololá	701	Sololá	3	Barraneche	6	Junio	2023-04-06T00:00:00	2024-11-06T17:00:00	3	Temperatura mínima	16.4
29708	7	Sololá	701	Sololá	3	Barraneche	6	Junio	2023-04-06T00:00:00	2024-11-06T17:00:00	5	Humedad	81
29709	7	Sololá	701	Sololá	3	Barraneche	6	Junio	2023-04-06T00:00:00	2024-11-06T17:00:00	6	Velocidad del viento	3.2
29710	7	Sololá	701	Sololá	3	Barraneche	6	Junio	2023-04-06T00:00:00	2024-11-06T17:00:00	7	Dirección del viento	3.22
29711	7	Sololá	701	Sololá	3	Barraneche	6	Junio	2023-04-06T00:00:00	2024-11-06T17:00:00	1	Precipitación	0
29712	7	Sololá	701	Sololá	3	Barraneche	6	Junio	2023-04-06T00:00:00	2024-11-06T17:00:00	8	Radiación solar	10
29713	7	Sololá	701	Sololá	3	Barraneche	6	Junio	2023-04-06T00:00:00	2024-11-06T18:00:00	2	Temperatura media	15.7
29714	7	Sololá	701	Sololá	3	Barraneche	6	Junio	2023-04-06T00:00:00	2024-11-06T18:00:00	4	Temperatura máxima	16.4
29715	7	Sololá	701	Sololá	3	Barraneche	6	Junio	2023-04-06T00:00:00	2024-11-06T18:00:00	3	Temperatura mínima	15.6
29716	7	Sololá	701	Sololá	3	Barraneche	6	Junio	2023-04-06T00:00:00	2024-11-06T18:00:00	5	Humedad	71
29717	7	Sololá	701	Sololá	3	Barraneche	6	Junio	2023-04-06T00:00:00	2024-11-06T18:00:00	6	Velocidad del viento	4.8
29718	7	Sololá	701	Sololá	3	Barraneche	6	Junio	2023-04-06T00:00:00	2024-11-06T18:00:00	7	Dirección del viento	4.83
29719	7	Sololá	701	Sololá	3	Barraneche	6	Junio	2023-04-06T00:00:00	2024-11-06T18:00:00	1	Precipitación	0
29720	7	Sololá	701	Sololá	3	Barraneche	6	Junio	2023-04-06T00:00:00	2024-11-06T18:00:00	8	Radiación solar	7
29721	7	Sololá	701	Sololá	3	Barraneche	6	Junio	2023-04-06T00:00:00	2024-11-06T19:00:00	2	Temperatura media	15.6
29722	7	Sololá	701	Sololá	3	Barraneche	6	Junio	2023-04-06T00:00:00	2024-11-06T19:00:00	4	Temperatura máxima	15.8
29723	7	Sololá	701	Sololá	3	Barraneche	6	Junio	2023-04-06T00:00:00	2024-11-06T19:00:00	3	Temperatura mínima	14.1
29724	7	Sololá	701	Sololá	3	Barraneche	6	Junio	2023-04-06T00:00:00	2024-11-06T19:00:00	5	Humedad	59
29725	7	Sololá	701	Sololá	3	Barraneche	6	Junio	2023-04-06T00:00:00	2024-11-06T19:00:00	6	Velocidad del viento	14.5
29726	7	Sololá	701	Sololá	3	Barraneche	6	Junio	2023-04-06T00:00:00	2024-11-06T19:00:00	7	Dirección del viento	14.48
29727	7	Sololá	701	Sololá	3	Barraneche	6	Junio	2023-04-06T00:00:00	2024-11-06T19:00:00	1	Precipitación	0.2
29728	7	Sololá	701	Sololá	3	Barraneche	6	Junio	2023-04-06T00:00:00	2024-11-06T19:00:00	8	Radiación solar	0
29729	7	Sololá	701	Sololá	3	Barraneche	6	Junio	2023-04-06T00:00:00	2024-11-06T20:00:00	2	Temperatura media	14.1
29730	7	Sololá	701	Sololá	3	Barraneche	6	Junio	2023-04-06T00:00:00	2024-11-06T20:00:00	4	Temperatura máxima	15.6
29731	7	Sololá	701	Sololá	3	Barraneche	6	Junio	2023-04-06T00:00:00	2024-11-06T20:00:00	3	Temperatura mínima	14.1
29732	7	Sololá	701	Sololá	3	Barraneche	6	Junio	2023-04-06T00:00:00	2024-11-06T20:00:00	5	Humedad	71
29733	7	Sololá	701	Sololá	3	Barraneche	6	Junio	2023-04-06T00:00:00	2024-11-06T20:00:00	6	Velocidad del viento	4.8
29734	7	Sololá	701	Sololá	3	Barraneche	6	Junio	2023-04-06T00:00:00	2024-11-06T20:00:00	7	Dirección del viento	4.83
29735	7	Sololá	701	Sololá	3	Barraneche	6	Junio	2023-04-06T00:00:00	2024-11-06T20:00:00	1	Precipitación	0
29736	7	Sololá	701	Sololá	3	Barraneche	6	Junio	2023-04-06T00:00:00	2024-11-06T20:00:00	8	Radiación solar	0
29737	7	Sololá	701	Sololá	3	Barraneche	6	Junio	2023-04-06T00:00:00	2024-11-06T21:00:00	2	Temperatura media	13.3
29738	7	Sololá	701	Sololá	3	Barraneche	6	Junio	2023-04-06T00:00:00	2024-11-06T21:00:00	4	Temperatura máxima	14.1
29739	7	Sololá	701	Sololá	3	Barraneche	6	Junio	2023-04-06T00:00:00	2024-11-06T21:00:00	3	Temperatura mínima	13.2
29740	7	Sololá	701	Sololá	3	Barraneche	6	Junio	2023-04-06T00:00:00	2024-11-06T21:00:00	5	Humedad	75
29741	7	Sololá	701	Sololá	3	Barraneche	6	Junio	2023-04-06T00:00:00	2024-11-06T21:00:00	6	Velocidad del viento	4.8
29742	7	Sololá	701	Sololá	3	Barraneche	6	Junio	2023-04-06T00:00:00	2024-11-06T21:00:00	7	Dirección del viento	4.83
29743	7	Sololá	701	Sololá	3	Barraneche	6	Junio	2023-04-06T00:00:00	2024-11-06T21:00:00	1	Precipitación	0
29744	7	Sololá	701	Sololá	3	Barraneche	6	Junio	2023-04-06T00:00:00	2024-11-06T21:00:00	8	Radiación solar	0
29745	7	Sololá	701	Sololá	3	Barraneche	6	Junio	2023-04-06T00:00:00	2024-11-06T22:00:00	2	Temperatura media	13
29746	7	Sololá	701	Sololá	3	Barraneche	6	Junio	2023-04-06T00:00:00	2024-11-06T22:00:00	4	Temperatura máxima	13.4
29747	7	Sololá	701	Sololá	3	Barraneche	6	Junio	2023-04-06T00:00:00	2024-11-06T22:00:00	3	Temperatura mínima	13
29748	7	Sololá	701	Sololá	3	Barraneche	6	Junio	2023-04-06T00:00:00	2024-11-06T22:00:00	5	Humedad	76
29749	7	Sololá	701	Sololá	3	Barraneche	6	Junio	2023-04-06T00:00:00	2024-11-06T22:00:00	6	Velocidad del viento	4.8
29750	7	Sololá	701	Sololá	3	Barraneche	6	Junio	2023-04-06T00:00:00	2024-11-06T22:00:00	7	Dirección del viento	4.83
29751	7	Sololá	701	Sololá	3	Barraneche	6	Junio	2023-04-06T00:00:00	2024-11-06T22:00:00	1	Precipitación	0
29752	7	Sololá	701	Sololá	3	Barraneche	6	Junio	2023-04-06T00:00:00	2024-11-06T22:00:00	8	Radiación solar	0
29753	7	Sololá	701	Sololá	3	Barraneche	6	Junio	2023-04-06T00:00:00	2024-11-06T23:00:00	2	Temperatura media	12.8
29754	7	Sololá	701	Sololá	3	Barraneche	6	Junio	2023-04-06T00:00:00	2024-11-06T23:00:00	4	Temperatura máxima	13.2
29755	7	Sololá	701	Sololá	3	Barraneche	6	Junio	2023-04-06T00:00:00	2024-11-06T23:00:00	3	Temperatura mínima	12.7
29756	7	Sololá	701	Sololá	3	Barraneche	6	Junio	2023-04-06T00:00:00	2024-11-06T23:00:00	5	Humedad	74
29757	7	Sololá	701	Sololá	3	Barraneche	6	Junio	2023-04-06T00:00:00	2024-11-06T23:00:00	6	Velocidad del viento	4.8
29758	7	Sololá	701	Sololá	3	Barraneche	6	Junio	2023-04-06T00:00:00	2024-11-06T23:00:00	7	Dirección del viento	4.83
29759	7	Sololá	701	Sololá	3	Barraneche	6	Junio	2023-04-06T00:00:00	2024-11-06T23:00:00	1	Precipitación	0
29760	7	Sololá	701	Sololá	3	Barraneche	6	Junio	2023-04-06T00:00:00	2024-11-06T23:00:00	8	Radiación solar	0
29761	7	Sololá	701	Sololá	3	Barraneche	6	Junio	2023-05-06T00:00:00	2024-11-06T00:00:00	2	Temperatura media	12.9
29762	7	Sololá	701	Sololá	3	Barraneche	6	Junio	2023-05-06T00:00:00	2024-11-06T00:00:00	4	Temperatura máxima	13.2
29763	7	Sololá	701	Sololá	3	Barraneche	6	Junio	2023-05-06T00:00:00	2024-11-06T00:00:00	3	Temperatura mínima	12.7
29764	7	Sololá	701	Sololá	3	Barraneche	6	Junio	2023-05-06T00:00:00	2024-11-06T00:00:00	5	Humedad	70
29765	7	Sololá	701	Sololá	3	Barraneche	6	Junio	2023-05-06T00:00:00	2024-11-06T00:00:00	6	Velocidad del viento	4.8
29766	7	Sololá	701	Sololá	3	Barraneche	6	Junio	2023-05-06T00:00:00	2024-11-06T00:00:00	7	Dirección del viento	4.83
29767	7	Sololá	701	Sololá	3	Barraneche	6	Junio	2023-05-06T00:00:00	2024-11-06T00:00:00	1	Precipitación	0
29768	7	Sololá	701	Sololá	3	Barraneche	6	Junio	2023-05-06T00:00:00	2024-11-06T00:00:00	8	Radiación solar	0
29769	7	Sololá	701	Sololá	3	Barraneche	6	Junio	2023-05-06T00:00:00	2024-11-06T01:00:00	2	Temperatura media	11.9
29770	7	Sololá	701	Sololá	3	Barraneche	6	Junio	2023-05-06T00:00:00	2024-11-06T01:00:00	4	Temperatura máxima	13.3
29771	7	Sololá	701	Sololá	3	Barraneche	6	Junio	2023-05-06T00:00:00	2024-11-06T01:00:00	3	Temperatura mínima	11.8
29772	7	Sololá	701	Sololá	3	Barraneche	6	Junio	2023-05-06T00:00:00	2024-11-06T01:00:00	5	Humedad	71
29773	7	Sololá	701	Sololá	3	Barraneche	6	Junio	2023-05-06T00:00:00	2024-11-06T01:00:00	6	Velocidad del viento	3.2
29774	7	Sololá	701	Sololá	3	Barraneche	6	Junio	2023-05-06T00:00:00	2024-11-06T01:00:00	7	Dirección del viento	3.22
29775	7	Sololá	701	Sololá	3	Barraneche	6	Junio	2023-05-06T00:00:00	2024-11-06T01:00:00	1	Precipitación	0
29776	7	Sololá	701	Sololá	3	Barraneche	6	Junio	2023-05-06T00:00:00	2024-11-06T01:00:00	8	Radiación solar	0
29777	7	Sololá	701	Sololá	3	Barraneche	6	Junio	2023-05-06T00:00:00	2024-11-06T02:00:00	2	Temperatura media	11
29778	7	Sololá	701	Sololá	3	Barraneche	6	Junio	2023-05-06T00:00:00	2024-11-06T02:00:00	4	Temperatura máxima	12
29779	7	Sololá	701	Sololá	3	Barraneche	6	Junio	2023-05-06T00:00:00	2024-11-06T02:00:00	3	Temperatura mínima	10.7
29780	7	Sololá	701	Sololá	3	Barraneche	6	Junio	2023-05-06T00:00:00	2024-11-06T02:00:00	5	Humedad	74
29781	7	Sololá	701	Sololá	3	Barraneche	6	Junio	2023-05-06T00:00:00	2024-11-06T02:00:00	6	Velocidad del viento	4.8
29782	7	Sololá	701	Sololá	3	Barraneche	6	Junio	2023-05-06T00:00:00	2024-11-06T02:00:00	7	Dirección del viento	4.83
29783	7	Sololá	701	Sololá	3	Barraneche	6	Junio	2023-05-06T00:00:00	2024-11-06T02:00:00	1	Precipitación	0
29784	7	Sololá	701	Sololá	3	Barraneche	6	Junio	2023-05-06T00:00:00	2024-11-06T02:00:00	8	Radiación solar	0
29785	7	Sololá	701	Sololá	3	Barraneche	6	Junio	2023-05-06T00:00:00	2024-11-06T03:00:00	2	Temperatura media	11.2
29786	7	Sololá	701	Sololá	3	Barraneche	6	Junio	2023-05-06T00:00:00	2024-11-06T03:00:00	4	Temperatura máxima	12
29787	7	Sololá	701	Sololá	3	Barraneche	6	Junio	2023-05-06T00:00:00	2024-11-06T03:00:00	3	Temperatura mínima	11
29788	7	Sololá	701	Sololá	3	Barraneche	6	Junio	2023-05-06T00:00:00	2024-11-06T03:00:00	5	Humedad	72
29789	7	Sololá	701	Sololá	3	Barraneche	6	Junio	2023-05-06T00:00:00	2024-11-06T03:00:00	6	Velocidad del viento	8
29790	7	Sololá	701	Sololá	3	Barraneche	6	Junio	2023-05-06T00:00:00	2024-11-06T03:00:00	7	Dirección del viento	8.05
29791	7	Sololá	701	Sololá	3	Barraneche	6	Junio	2023-05-06T00:00:00	2024-11-06T03:00:00	1	Precipitación	0
29792	7	Sololá	701	Sololá	3	Barraneche	6	Junio	2023-05-06T00:00:00	2024-11-06T03:00:00	8	Radiación solar	0
29793	7	Sololá	701	Sololá	3	Barraneche	6	Junio	2023-05-06T00:00:00	2024-11-06T04:00:00	2	Temperatura media	11.1
29794	7	Sololá	701	Sololá	3	Barraneche	6	Junio	2023-05-06T00:00:00	2024-11-06T04:00:00	4	Temperatura máxima	11.7
29795	7	Sololá	701	Sololá	3	Barraneche	6	Junio	2023-05-06T00:00:00	2024-11-06T04:00:00	3	Temperatura mínima	11.1
29796	7	Sololá	701	Sololá	3	Barraneche	6	Junio	2023-05-06T00:00:00	2024-11-06T04:00:00	5	Humedad	72
29797	7	Sololá	701	Sololá	3	Barraneche	6	Junio	2023-05-06T00:00:00	2024-11-06T04:00:00	6	Velocidad del viento	6.4
29798	7	Sololá	701	Sololá	3	Barraneche	6	Junio	2023-05-06T00:00:00	2024-11-06T04:00:00	7	Dirección del viento	6.44
29799	7	Sololá	701	Sololá	3	Barraneche	6	Junio	2023-05-06T00:00:00	2024-11-06T04:00:00	1	Precipitación	0
29800	7	Sololá	701	Sololá	3	Barraneche	6	Junio	2023-05-06T00:00:00	2024-11-06T04:00:00	8	Radiación solar	0
29801	7	Sololá	701	Sololá	3	Barraneche	6	Junio	2023-05-06T00:00:00	2024-11-06T05:00:00	2	Temperatura media	11.6
29802	7	Sololá	701	Sololá	3	Barraneche	6	Junio	2023-05-06T00:00:00	2024-11-06T05:00:00	4	Temperatura máxima	11.6
29803	7	Sololá	701	Sololá	3	Barraneche	6	Junio	2023-05-06T00:00:00	2024-11-06T05:00:00	3	Temperatura mínima	10.6
29804	7	Sololá	701	Sololá	3	Barraneche	6	Junio	2023-05-06T00:00:00	2024-11-06T05:00:00	5	Humedad	71
29805	7	Sololá	701	Sololá	3	Barraneche	6	Junio	2023-05-06T00:00:00	2024-11-06T05:00:00	6	Velocidad del viento	8
29806	7	Sololá	701	Sololá	3	Barraneche	6	Junio	2023-05-06T00:00:00	2024-11-06T05:00:00	7	Dirección del viento	8.05
29807	7	Sololá	701	Sololá	3	Barraneche	6	Junio	2023-05-06T00:00:00	2024-11-06T05:00:00	1	Precipitación	0
29808	7	Sololá	701	Sololá	3	Barraneche	6	Junio	2023-05-06T00:00:00	2024-11-06T05:00:00	8	Radiación solar	0
29809	7	Sololá	701	Sololá	3	Barraneche	6	Junio	2023-05-06T00:00:00	2024-11-06T06:00:00	2	Temperatura media	11.6
29810	7	Sololá	701	Sololá	3	Barraneche	6	Junio	2023-05-06T00:00:00	2024-11-06T06:00:00	4	Temperatura máxima	11.6
29811	7	Sololá	701	Sololá	3	Barraneche	6	Junio	2023-05-06T00:00:00	2024-11-06T06:00:00	3	Temperatura mínima	11.2
29812	7	Sololá	701	Sololá	3	Barraneche	6	Junio	2023-05-06T00:00:00	2024-11-06T06:00:00	5	Humedad	71
29813	7	Sololá	701	Sololá	3	Barraneche	6	Junio	2023-05-06T00:00:00	2024-11-06T06:00:00	6	Velocidad del viento	11.3
29814	7	Sololá	701	Sololá	3	Barraneche	6	Junio	2023-05-06T00:00:00	2024-11-06T06:00:00	7	Dirección del viento	11.27
29815	7	Sololá	701	Sololá	3	Barraneche	6	Junio	2023-05-06T00:00:00	2024-11-06T06:00:00	1	Precipitación	0
29816	7	Sololá	701	Sololá	3	Barraneche	6	Junio	2023-05-06T00:00:00	2024-11-06T06:00:00	8	Radiación solar	4
29817	7	Sololá	701	Sololá	3	Barraneche	6	Junio	2023-05-06T00:00:00	2024-11-06T07:00:00	2	Temperatura media	13.9
29818	7	Sololá	701	Sololá	3	Barraneche	6	Junio	2023-05-06T00:00:00	2024-11-06T07:00:00	4	Temperatura máxima	13.9
29819	7	Sololá	701	Sololá	3	Barraneche	6	Junio	2023-05-06T00:00:00	2024-11-06T07:00:00	3	Temperatura mínima	11.3
29820	7	Sololá	701	Sololá	3	Barraneche	6	Junio	2023-05-06T00:00:00	2024-11-06T07:00:00	5	Humedad	70
29821	7	Sololá	701	Sololá	3	Barraneche	6	Junio	2023-05-06T00:00:00	2024-11-06T07:00:00	6	Velocidad del viento	8
29822	7	Sololá	701	Sololá	3	Barraneche	6	Junio	2023-05-06T00:00:00	2024-11-06T07:00:00	7	Dirección del viento	8.05
29823	7	Sololá	701	Sololá	3	Barraneche	6	Junio	2023-05-06T00:00:00	2024-11-06T07:00:00	1	Precipitación	0
29824	7	Sololá	701	Sololá	3	Barraneche	6	Junio	2023-05-06T00:00:00	2024-11-06T07:00:00	8	Radiación solar	125
29825	7	Sololá	701	Sololá	3	Barraneche	6	Junio	2023-05-06T00:00:00	2024-11-06T08:00:00	2	Temperatura media	16.8
29826	7	Sololá	701	Sololá	3	Barraneche	6	Junio	2023-05-06T00:00:00	2024-11-06T08:00:00	4	Temperatura máxima	16.8
29827	7	Sololá	701	Sololá	3	Barraneche	6	Junio	2023-05-06T00:00:00	2024-11-06T08:00:00	3	Temperatura mínima	13.8
29828	7	Sololá	701	Sololá	3	Barraneche	6	Junio	2023-05-06T00:00:00	2024-11-06T08:00:00	5	Humedad	62
29829	7	Sololá	701	Sololá	3	Barraneche	6	Junio	2023-05-06T00:00:00	2024-11-06T08:00:00	6	Velocidad del viento	4.8
29830	7	Sololá	701	Sololá	3	Barraneche	6	Junio	2023-05-06T00:00:00	2024-11-06T08:00:00	7	Dirección del viento	4.83
29831	7	Sololá	701	Sololá	3	Barraneche	6	Junio	2023-05-06T00:00:00	2024-11-06T08:00:00	1	Precipitación	0
29832	7	Sololá	701	Sololá	3	Barraneche	6	Junio	2023-05-06T00:00:00	2024-11-06T08:00:00	8	Radiación solar	370
29833	7	Sololá	701	Sololá	3	Barraneche	6	Junio	2023-05-06T00:00:00	2024-11-06T09:00:00	2	Temperatura media	16.8
29834	7	Sololá	701	Sololá	3	Barraneche	6	Junio	2023-05-06T00:00:00	2024-11-06T09:00:00	4	Temperatura máxima	17.4
29835	7	Sololá	701	Sololá	3	Barraneche	6	Junio	2023-05-06T00:00:00	2024-11-06T09:00:00	3	Temperatura mínima	16.8
29836	7	Sololá	701	Sololá	3	Barraneche	6	Junio	2023-05-06T00:00:00	2024-11-06T09:00:00	5	Humedad	65
29837	7	Sololá	701	Sololá	3	Barraneche	6	Junio	2023-05-06T00:00:00	2024-11-06T09:00:00	6	Velocidad del viento	4.8
29838	7	Sololá	701	Sololá	3	Barraneche	6	Junio	2023-05-06T00:00:00	2024-11-06T09:00:00	7	Dirección del viento	4.83
29839	7	Sololá	701	Sololá	3	Barraneche	6	Junio	2023-05-06T00:00:00	2024-11-06T09:00:00	1	Precipitación	0
29840	7	Sololá	701	Sololá	3	Barraneche	6	Junio	2023-05-06T00:00:00	2024-11-06T09:00:00	8	Radiación solar	506
29841	7	Sololá	701	Sololá	3	Barraneche	6	Junio	2023-05-06T00:00:00	2024-11-06T10:00:00	2	Temperatura media	16.5
29842	7	Sololá	701	Sololá	3	Barraneche	6	Junio	2023-05-06T00:00:00	2024-11-06T10:00:00	4	Temperatura máxima	16.9
29843	7	Sololá	701	Sololá	3	Barraneche	6	Junio	2023-05-06T00:00:00	2024-11-06T10:00:00	3	Temperatura mínima	16.2
29844	7	Sololá	701	Sololá	3	Barraneche	6	Junio	2023-05-06T00:00:00	2024-11-06T10:00:00	5	Humedad	67
29845	7	Sololá	701	Sololá	3	Barraneche	6	Junio	2023-05-06T00:00:00	2024-11-06T10:00:00	6	Velocidad del viento	9.7
29846	7	Sololá	701	Sololá	3	Barraneche	6	Junio	2023-05-06T00:00:00	2024-11-06T10:00:00	7	Dirección del viento	9.66
29847	7	Sololá	701	Sololá	3	Barraneche	6	Junio	2023-05-06T00:00:00	2024-11-06T10:00:00	1	Precipitación	0
29848	7	Sololá	701	Sololá	3	Barraneche	6	Junio	2023-05-06T00:00:00	2024-11-06T10:00:00	8	Radiación solar	643
29849	7	Sololá	701	Sololá	3	Barraneche	6	Junio	2023-05-06T00:00:00	2024-11-06T11:00:00	2	Temperatura media	16.3
29850	7	Sololá	701	Sololá	3	Barraneche	6	Junio	2023-05-06T00:00:00	2024-11-06T11:00:00	4	Temperatura máxima	17.4
29851	7	Sololá	701	Sololá	3	Barraneche	6	Junio	2023-05-06T00:00:00	2024-11-06T11:00:00	3	Temperatura mínima	16.3
29852	7	Sololá	701	Sololá	3	Barraneche	6	Junio	2023-05-06T00:00:00	2024-11-06T11:00:00	5	Humedad	73
29853	7	Sololá	701	Sololá	3	Barraneche	6	Junio	2023-05-06T00:00:00	2024-11-06T11:00:00	6	Velocidad del viento	9.7
29854	7	Sololá	701	Sololá	3	Barraneche	6	Junio	2023-05-06T00:00:00	2024-11-06T11:00:00	7	Dirección del viento	9.66
29855	7	Sololá	701	Sololá	3	Barraneche	6	Junio	2023-05-06T00:00:00	2024-11-06T11:00:00	1	Precipitación	0
29856	7	Sololá	701	Sololá	3	Barraneche	6	Junio	2023-05-06T00:00:00	2024-11-06T11:00:00	8	Radiación solar	666
29857	7	Sololá	701	Sololá	3	Barraneche	6	Junio	2023-05-06T00:00:00	2024-11-06T12:00:00	2	Temperatura media	18.9
29858	7	Sololá	701	Sololá	3	Barraneche	6	Junio	2023-05-06T00:00:00	2024-11-06T12:00:00	4	Temperatura máxima	23.9
29859	7	Sololá	701	Sololá	3	Barraneche	6	Junio	2023-05-06T00:00:00	2024-11-06T12:00:00	3	Temperatura mínima	16.2
29860	7	Sololá	701	Sololá	3	Barraneche	6	Junio	2023-05-06T00:00:00	2024-11-06T12:00:00	5	Humedad	56
29861	7	Sololá	701	Sololá	3	Barraneche	6	Junio	2023-05-06T00:00:00	2024-11-06T12:00:00	6	Velocidad del viento	4.8
29862	7	Sololá	701	Sololá	3	Barraneche	6	Junio	2023-05-06T00:00:00	2024-11-06T12:00:00	7	Dirección del viento	4.83
29863	7	Sololá	701	Sololá	3	Barraneche	6	Junio	2023-05-06T00:00:00	2024-11-06T12:00:00	1	Precipitación	0.4
29864	7	Sololá	701	Sololá	3	Barraneche	6	Junio	2023-05-06T00:00:00	2024-11-06T12:00:00	8	Radiación solar	745
29865	7	Sololá	701	Sololá	3	Barraneche	6	Junio	2023-05-06T00:00:00	2024-11-06T13:00:00	2	Temperatura media	19
29866	7	Sololá	701	Sololá	3	Barraneche	6	Junio	2023-05-06T00:00:00	2024-11-06T13:00:00	4	Temperatura máxima	19
29867	7	Sololá	701	Sololá	3	Barraneche	6	Junio	2023-05-06T00:00:00	2024-11-06T13:00:00	3	Temperatura mínima	18.1
29868	7	Sololá	701	Sololá	3	Barraneche	6	Junio	2023-05-06T00:00:00	2024-11-06T13:00:00	5	Humedad	52
29869	7	Sololá	701	Sololá	3	Barraneche	6	Junio	2023-05-06T00:00:00	2024-11-06T13:00:00	6	Velocidad del viento	11.3
29870	7	Sololá	701	Sololá	3	Barraneche	6	Junio	2023-05-06T00:00:00	2024-11-06T13:00:00	7	Dirección del viento	11.27
29871	7	Sololá	701	Sololá	3	Barraneche	6	Junio	2023-05-06T00:00:00	2024-11-06T13:00:00	1	Precipitación	0
29872	7	Sololá	701	Sololá	3	Barraneche	6	Junio	2023-05-06T00:00:00	2024-11-06T13:00:00	8	Radiación solar	1026
29873	7	Sololá	701	Sololá	3	Barraneche	6	Junio	2023-05-06T00:00:00	2024-11-06T14:00:00	2	Temperatura media	17
29874	7	Sololá	701	Sololá	3	Barraneche	6	Junio	2023-05-06T00:00:00	2024-11-06T14:00:00	4	Temperatura máxima	19.2
29875	7	Sololá	701	Sololá	3	Barraneche	6	Junio	2023-05-06T00:00:00	2024-11-06T14:00:00	3	Temperatura mínima	16.9
29876	7	Sololá	701	Sololá	3	Barraneche	6	Junio	2023-05-06T00:00:00	2024-11-06T14:00:00	5	Humedad	63
29877	7	Sololá	701	Sololá	3	Barraneche	6	Junio	2023-05-06T00:00:00	2024-11-06T14:00:00	6	Velocidad del viento	12.9
29878	7	Sololá	701	Sololá	3	Barraneche	6	Junio	2023-05-06T00:00:00	2024-11-06T14:00:00	7	Dirección del viento	12.87
29879	7	Sololá	701	Sololá	3	Barraneche	6	Junio	2023-05-06T00:00:00	2024-11-06T14:00:00	1	Precipitación	0
29880	7	Sololá	701	Sololá	3	Barraneche	6	Junio	2023-05-06T00:00:00	2024-11-06T14:00:00	8	Radiación solar	720
29881	7	Sololá	701	Sololá	3	Barraneche	6	Junio	2023-05-06T00:00:00	2024-11-06T15:00:00	2	Temperatura media	17.5
29882	7	Sololá	701	Sololá	3	Barraneche	6	Junio	2023-05-06T00:00:00	2024-11-06T15:00:00	4	Temperatura máxima	17.6
29883	7	Sololá	701	Sololá	3	Barraneche	6	Junio	2023-05-06T00:00:00	2024-11-06T15:00:00	3	Temperatura mínima	16.8
29884	7	Sololá	701	Sololá	3	Barraneche	6	Junio	2023-05-06T00:00:00	2024-11-06T15:00:00	5	Humedad	58
29885	7	Sololá	701	Sololá	3	Barraneche	6	Junio	2023-05-06T00:00:00	2024-11-06T15:00:00	6	Velocidad del viento	9.7
29886	7	Sololá	701	Sololá	3	Barraneche	6	Junio	2023-05-06T00:00:00	2024-11-06T15:00:00	7	Dirección del viento	9.66
29887	7	Sololá	701	Sololá	3	Barraneche	6	Junio	2023-05-06T00:00:00	2024-11-06T15:00:00	1	Precipitación	0
29888	7	Sololá	701	Sololá	3	Barraneche	6	Junio	2023-05-06T00:00:00	2024-11-06T15:00:00	8	Radiación solar	440
29889	7	Sololá	701	Sololá	3	Barraneche	6	Junio	2023-05-06T00:00:00	2024-11-06T16:00:00	2	Temperatura media	17.4
29890	7	Sololá	701	Sololá	3	Barraneche	6	Junio	2023-05-06T00:00:00	2024-11-06T16:00:00	4	Temperatura máxima	17.8
29891	7	Sololá	701	Sololá	3	Barraneche	6	Junio	2023-05-06T00:00:00	2024-11-06T16:00:00	3	Temperatura mínima	17.4
29892	7	Sololá	701	Sololá	3	Barraneche	6	Junio	2023-05-06T00:00:00	2024-11-06T16:00:00	5	Humedad	66
29893	7	Sololá	701	Sololá	3	Barraneche	6	Junio	2023-05-06T00:00:00	2024-11-06T16:00:00	6	Velocidad del viento	8
29894	7	Sololá	701	Sololá	3	Barraneche	6	Junio	2023-05-06T00:00:00	2024-11-06T16:00:00	7	Dirección del viento	8.05
29895	7	Sololá	701	Sololá	3	Barraneche	6	Junio	2023-05-06T00:00:00	2024-11-06T16:00:00	1	Precipitación	0
29896	7	Sololá	701	Sololá	3	Barraneche	6	Junio	2023-05-06T00:00:00	2024-11-06T16:00:00	8	Radiación solar	480
29897	7	Sololá	701	Sololá	3	Barraneche	6	Junio	2023-05-06T00:00:00	2024-11-06T17:00:00	2	Temperatura media	16.1
29898	7	Sololá	701	Sololá	3	Barraneche	6	Junio	2023-05-06T00:00:00	2024-11-06T17:00:00	4	Temperatura máxima	17.4
29899	7	Sololá	701	Sololá	3	Barraneche	6	Junio	2023-05-06T00:00:00	2024-11-06T17:00:00	3	Temperatura mínima	16.1
29900	7	Sololá	701	Sololá	3	Barraneche	6	Junio	2023-05-06T00:00:00	2024-11-06T17:00:00	5	Humedad	70
29901	7	Sololá	701	Sololá	3	Barraneche	6	Junio	2023-05-06T00:00:00	2024-11-06T17:00:00	6	Velocidad del viento	8
29902	7	Sololá	701	Sololá	3	Barraneche	6	Junio	2023-05-06T00:00:00	2024-11-06T17:00:00	7	Dirección del viento	8.05
29903	7	Sololá	701	Sololá	3	Barraneche	6	Junio	2023-05-06T00:00:00	2024-11-06T17:00:00	1	Precipitación	0
29904	7	Sololá	701	Sololá	3	Barraneche	6	Junio	2023-05-06T00:00:00	2024-11-06T17:00:00	8	Radiación solar	212
29905	7	Sololá	701	Sololá	3	Barraneche	6	Junio	2023-05-06T00:00:00	2024-11-06T18:00:00	2	Temperatura media	16.5
29906	7	Sololá	701	Sololá	3	Barraneche	6	Junio	2023-05-06T00:00:00	2024-11-06T18:00:00	4	Temperatura máxima	16.6
29907	7	Sololá	701	Sololá	3	Barraneche	6	Junio	2023-05-06T00:00:00	2024-11-06T18:00:00	3	Temperatura mínima	16
29908	7	Sololá	701	Sololá	3	Barraneche	6	Junio	2023-05-06T00:00:00	2024-11-06T18:00:00	5	Humedad	69
29909	7	Sololá	701	Sololá	3	Barraneche	6	Junio	2023-05-06T00:00:00	2024-11-06T18:00:00	6	Velocidad del viento	1.6
29910	7	Sololá	701	Sololá	3	Barraneche	6	Junio	2023-05-06T00:00:00	2024-11-06T18:00:00	7	Dirección del viento	1.61
29911	7	Sololá	701	Sololá	3	Barraneche	6	Junio	2023-05-06T00:00:00	2024-11-06T18:00:00	1	Precipitación	0
29912	7	Sololá	701	Sololá	3	Barraneche	6	Junio	2023-05-06T00:00:00	2024-11-06T18:00:00	8	Radiación solar	85
29913	7	Sololá	701	Sololá	3	Barraneche	6	Junio	2023-05-06T00:00:00	2024-11-06T19:00:00	2	Temperatura media	15.2
29914	7	Sololá	701	Sololá	3	Barraneche	6	Junio	2023-05-06T00:00:00	2024-11-06T19:00:00	4	Temperatura máxima	16.6
29915	7	Sololá	701	Sololá	3	Barraneche	6	Junio	2023-05-06T00:00:00	2024-11-06T19:00:00	3	Temperatura mínima	15.1
29916	7	Sololá	701	Sololá	3	Barraneche	6	Junio	2023-05-06T00:00:00	2024-11-06T19:00:00	5	Humedad	76
29917	7	Sololá	701	Sololá	3	Barraneche	6	Junio	2023-05-06T00:00:00	2024-11-06T19:00:00	6	Velocidad del viento	3.2
29918	7	Sololá	701	Sololá	3	Barraneche	6	Junio	2023-05-06T00:00:00	2024-11-06T19:00:00	7	Dirección del viento	3.22
29919	7	Sololá	701	Sololá	3	Barraneche	6	Junio	2023-05-06T00:00:00	2024-11-06T19:00:00	1	Precipitación	0
29920	7	Sololá	701	Sololá	3	Barraneche	6	Junio	2023-05-06T00:00:00	2024-11-06T19:00:00	8	Radiación solar	0
29921	7	Sololá	701	Sololá	3	Barraneche	6	Junio	2023-05-06T00:00:00	2024-11-06T20:00:00	2	Temperatura media	14.9
29922	7	Sololá	701	Sololá	3	Barraneche	6	Junio	2023-05-06T00:00:00	2024-11-06T20:00:00	4	Temperatura máxima	15.1
29923	7	Sololá	701	Sololá	3	Barraneche	6	Junio	2023-05-06T00:00:00	2024-11-06T20:00:00	3	Temperatura mínima	14.8
29924	7	Sololá	701	Sololá	3	Barraneche	6	Junio	2023-05-06T00:00:00	2024-11-06T20:00:00	5	Humedad	82
29925	7	Sololá	701	Sololá	3	Barraneche	6	Junio	2023-05-06T00:00:00	2024-11-06T20:00:00	6	Velocidad del viento	1.6
29926	7	Sololá	701	Sololá	3	Barraneche	6	Junio	2023-05-06T00:00:00	2024-11-06T20:00:00	7	Dirección del viento	1.61
29927	7	Sololá	701	Sololá	3	Barraneche	6	Junio	2023-05-06T00:00:00	2024-11-06T20:00:00	1	Precipitación	0
29928	7	Sololá	701	Sololá	3	Barraneche	6	Junio	2023-05-06T00:00:00	2024-11-06T20:00:00	8	Radiación solar	0
29929	7	Sololá	701	Sololá	3	Barraneche	6	Junio	2023-05-06T00:00:00	2024-11-06T21:00:00	2	Temperatura media	15.1
29930	7	Sololá	701	Sololá	3	Barraneche	6	Junio	2023-05-06T00:00:00	2024-11-06T21:00:00	4	Temperatura máxima	15.1
29931	7	Sololá	701	Sololá	3	Barraneche	6	Junio	2023-05-06T00:00:00	2024-11-06T21:00:00	3	Temperatura mínima	14.8
29932	7	Sololá	701	Sololá	3	Barraneche	6	Junio	2023-05-06T00:00:00	2024-11-06T21:00:00	5	Humedad	82
29933	7	Sololá	701	Sololá	3	Barraneche	6	Junio	2023-05-06T00:00:00	2024-11-06T21:00:00	6	Velocidad del viento	1.6
29934	7	Sololá	701	Sololá	3	Barraneche	6	Junio	2023-05-06T00:00:00	2024-11-06T21:00:00	7	Dirección del viento	1.61
29935	7	Sololá	701	Sololá	3	Barraneche	6	Junio	2023-05-06T00:00:00	2024-11-06T21:00:00	1	Precipitación	0
29936	7	Sololá	701	Sololá	3	Barraneche	6	Junio	2023-05-06T00:00:00	2024-11-06T21:00:00	8	Radiación solar	0
29937	7	Sololá	701	Sololá	3	Barraneche	6	Junio	2023-05-06T00:00:00	2024-11-06T22:00:00	2	Temperatura media	14.7
29938	7	Sololá	701	Sololá	3	Barraneche	6	Junio	2023-05-06T00:00:00	2024-11-06T22:00:00	4	Temperatura máxima	15.1
29939	7	Sololá	701	Sololá	3	Barraneche	6	Junio	2023-05-06T00:00:00	2024-11-06T22:00:00	3	Temperatura mínima	14.7
29940	7	Sololá	701	Sololá	3	Barraneche	6	Junio	2023-05-06T00:00:00	2024-11-06T22:00:00	5	Humedad	78
29941	7	Sololá	701	Sololá	3	Barraneche	6	Junio	2023-05-06T00:00:00	2024-11-06T22:00:00	6	Velocidad del viento	1.6
29942	7	Sololá	701	Sololá	3	Barraneche	6	Junio	2023-05-06T00:00:00	2024-11-06T22:00:00	7	Dirección del viento	1.61
29943	7	Sololá	701	Sololá	3	Barraneche	6	Junio	2023-05-06T00:00:00	2024-11-06T22:00:00	1	Precipitación	0
29944	7	Sololá	701	Sololá	3	Barraneche	6	Junio	2023-05-06T00:00:00	2024-11-06T22:00:00	8	Radiación solar	0
29945	7	Sololá	701	Sololá	3	Barraneche	6	Junio	2023-05-06T00:00:00	2024-11-06T23:00:00	2	Temperatura media	14.8
29946	7	Sololá	701	Sololá	3	Barraneche	6	Junio	2023-05-06T00:00:00	2024-11-06T23:00:00	4	Temperatura máxima	14.8
29947	7	Sololá	701	Sololá	3	Barraneche	6	Junio	2023-05-06T00:00:00	2024-11-06T23:00:00	3	Temperatura mínima	14.5
29948	7	Sololá	701	Sololá	3	Barraneche	6	Junio	2023-05-06T00:00:00	2024-11-06T23:00:00	5	Humedad	83
29949	7	Sololá	701	Sololá	3	Barraneche	6	Junio	2023-05-06T00:00:00	2024-11-06T23:00:00	6	Velocidad del viento	1.6
29950	7	Sololá	701	Sololá	3	Barraneche	6	Junio	2023-05-06T00:00:00	2024-11-06T23:00:00	7	Dirección del viento	1.61
29951	7	Sololá	701	Sololá	3	Barraneche	6	Junio	2023-05-06T00:00:00	2024-11-06T23:00:00	1	Precipitación	0
29952	7	Sololá	701	Sololá	3	Barraneche	6	Junio	2023-05-06T00:00:00	2024-11-06T23:00:00	8	Radiación solar	0
29953	7	Sololá	701	Sololá	3	Barraneche	6	Junio	2023-06-06T00:00:00	2024-11-06T00:00:00	2	Temperatura media	14.3
29954	7	Sololá	701	Sololá	3	Barraneche	6	Junio	2023-06-06T00:00:00	2024-11-06T00:00:00	4	Temperatura máxima	14.8
29955	7	Sololá	701	Sololá	3	Barraneche	6	Junio	2023-06-06T00:00:00	2024-11-06T00:00:00	3	Temperatura mínima	14.3
29956	7	Sololá	701	Sololá	3	Barraneche	6	Junio	2023-06-06T00:00:00	2024-11-06T00:00:00	5	Humedad	77
29957	7	Sololá	701	Sololá	3	Barraneche	6	Junio	2023-06-06T00:00:00	2024-11-06T00:00:00	6	Velocidad del viento	1.6
29958	7	Sololá	701	Sololá	3	Barraneche	6	Junio	2023-06-06T00:00:00	2024-11-06T00:00:00	7	Dirección del viento	1.61
29959	7	Sololá	701	Sololá	3	Barraneche	6	Junio	2023-06-06T00:00:00	2024-11-06T00:00:00	1	Precipitación	0
29960	7	Sololá	701	Sololá	3	Barraneche	6	Junio	2023-06-06T00:00:00	2024-11-06T00:00:00	8	Radiación solar	0
29961	7	Sololá	701	Sololá	3	Barraneche	6	Junio	2023-06-06T00:00:00	2024-11-06T01:00:00	2	Temperatura media	13.3
29962	7	Sololá	701	Sololá	3	Barraneche	6	Junio	2023-06-06T00:00:00	2024-11-06T01:00:00	4	Temperatura máxima	14.3
29963	7	Sololá	701	Sololá	3	Barraneche	6	Junio	2023-06-06T00:00:00	2024-11-06T01:00:00	3	Temperatura mínima	13.2
29964	7	Sololá	701	Sololá	3	Barraneche	6	Junio	2023-06-06T00:00:00	2024-11-06T01:00:00	5	Humedad	69
29965	7	Sololá	701	Sololá	3	Barraneche	6	Junio	2023-06-06T00:00:00	2024-11-06T01:00:00	6	Velocidad del viento	4.8
29966	7	Sololá	701	Sololá	3	Barraneche	6	Junio	2023-06-06T00:00:00	2024-11-06T01:00:00	7	Dirección del viento	4.83
29967	7	Sololá	701	Sololá	3	Barraneche	6	Junio	2023-06-06T00:00:00	2024-11-06T01:00:00	1	Precipitación	0
29968	7	Sololá	701	Sololá	3	Barraneche	6	Junio	2023-06-06T00:00:00	2024-11-06T01:00:00	8	Radiación solar	0
29969	7	Sololá	701	Sololá	3	Barraneche	6	Junio	2023-06-06T00:00:00	2024-11-06T02:00:00	2	Temperatura media	13.6
29970	7	Sololá	701	Sololá	3	Barraneche	6	Junio	2023-06-06T00:00:00	2024-11-06T02:00:00	4	Temperatura máxima	13.6
29971	7	Sololá	701	Sololá	3	Barraneche	6	Junio	2023-06-06T00:00:00	2024-11-06T02:00:00	3	Temperatura mínima	13.2
29972	7	Sololá	701	Sololá	3	Barraneche	6	Junio	2023-06-06T00:00:00	2024-11-06T02:00:00	5	Humedad	67
29973	7	Sololá	701	Sololá	3	Barraneche	6	Junio	2023-06-06T00:00:00	2024-11-06T02:00:00	6	Velocidad del viento	4.8
29974	7	Sololá	701	Sololá	3	Barraneche	6	Junio	2023-06-06T00:00:00	2024-11-06T02:00:00	7	Dirección del viento	4.83
29975	7	Sololá	701	Sololá	3	Barraneche	6	Junio	2023-06-06T00:00:00	2024-11-06T02:00:00	1	Precipitación	0
29976	7	Sololá	701	Sololá	3	Barraneche	6	Junio	2023-06-06T00:00:00	2024-11-06T02:00:00	8	Radiación solar	0
29977	7	Sololá	701	Sololá	3	Barraneche	6	Junio	2023-06-06T00:00:00	2024-11-06T03:00:00	2	Temperatura media	13
29978	7	Sololá	701	Sololá	3	Barraneche	6	Junio	2023-06-06T00:00:00	2024-11-06T03:00:00	4	Temperatura máxima	13.6
29979	7	Sololá	701	Sololá	3	Barraneche	6	Junio	2023-06-06T00:00:00	2024-11-06T03:00:00	3	Temperatura mínima	13
29980	7	Sololá	701	Sololá	3	Barraneche	6	Junio	2023-06-06T00:00:00	2024-11-06T03:00:00	5	Humedad	67
29981	7	Sololá	701	Sololá	3	Barraneche	6	Junio	2023-06-06T00:00:00	2024-11-06T03:00:00	6	Velocidad del viento	4.8
29982	7	Sololá	701	Sololá	3	Barraneche	6	Junio	2023-06-06T00:00:00	2024-11-06T03:00:00	7	Dirección del viento	4.83
29983	7	Sololá	701	Sololá	3	Barraneche	6	Junio	2023-06-06T00:00:00	2024-11-06T03:00:00	1	Precipitación	0
29984	7	Sololá	701	Sololá	3	Barraneche	6	Junio	2023-06-06T00:00:00	2024-11-06T03:00:00	8	Radiación solar	0
29985	7	Sololá	701	Sololá	3	Barraneche	6	Junio	2023-06-06T00:00:00	2024-11-06T04:00:00	2	Temperatura media	12.3
29986	7	Sololá	701	Sololá	3	Barraneche	6	Junio	2023-06-06T00:00:00	2024-11-06T04:00:00	4	Temperatura máxima	13
29987	7	Sololá	701	Sololá	3	Barraneche	6	Junio	2023-06-06T00:00:00	2024-11-06T04:00:00	3	Temperatura mínima	12.2
29988	7	Sololá	701	Sololá	3	Barraneche	6	Junio	2023-06-06T00:00:00	2024-11-06T04:00:00	5	Humedad	68
29989	7	Sololá	701	Sololá	3	Barraneche	6	Junio	2023-06-06T00:00:00	2024-11-06T04:00:00	6	Velocidad del viento	8
29990	7	Sololá	701	Sololá	3	Barraneche	6	Junio	2023-06-06T00:00:00	2024-11-06T04:00:00	7	Dirección del viento	8.05
29991	7	Sololá	701	Sololá	3	Barraneche	6	Junio	2023-06-06T00:00:00	2024-11-06T04:00:00	1	Precipitación	0
29992	7	Sololá	701	Sololá	3	Barraneche	6	Junio	2023-06-06T00:00:00	2024-11-06T04:00:00	8	Radiación solar	0
29993	7	Sololá	701	Sololá	3	Barraneche	6	Junio	2023-06-06T00:00:00	2024-11-06T05:00:00	2	Temperatura media	11.8
29994	7	Sololá	701	Sololá	3	Barraneche	6	Junio	2023-06-06T00:00:00	2024-11-06T05:00:00	4	Temperatura máxima	12.4
29995	7	Sololá	701	Sololá	3	Barraneche	6	Junio	2023-06-06T00:00:00	2024-11-06T05:00:00	3	Temperatura mínima	11.8
29996	7	Sololá	701	Sololá	3	Barraneche	6	Junio	2023-06-06T00:00:00	2024-11-06T05:00:00	5	Humedad	69
29997	7	Sololá	701	Sololá	3	Barraneche	6	Junio	2023-06-06T00:00:00	2024-11-06T05:00:00	6	Velocidad del viento	8
29998	7	Sololá	701	Sololá	3	Barraneche	6	Junio	2023-06-06T00:00:00	2024-11-06T05:00:00	7	Dirección del viento	8.05
29999	7	Sololá	701	Sololá	3	Barraneche	6	Junio	2023-06-06T00:00:00	2024-11-06T05:00:00	1	Precipitación	0
30000	7	Sololá	701	Sololá	3	Barraneche	6	Junio	2023-06-06T00:00:00	2024-11-06T05:00:00	8	Radiación solar	0
30001	7	Sololá	701	Sololá	3	Barraneche	6	Junio	2023-06-06T00:00:00	2024-11-06T06:00:00	2	Temperatura media	12.3
30002	7	Sololá	701	Sololá	3	Barraneche	6	Junio	2023-06-06T00:00:00	2024-11-06T06:00:00	4	Temperatura máxima	12.3
30003	7	Sololá	701	Sololá	3	Barraneche	6	Junio	2023-06-06T00:00:00	2024-11-06T06:00:00	3	Temperatura mínima	11.6
30004	7	Sololá	701	Sololá	3	Barraneche	6	Junio	2023-06-06T00:00:00	2024-11-06T06:00:00	5	Humedad	70
30005	7	Sololá	701	Sololá	3	Barraneche	6	Junio	2023-06-06T00:00:00	2024-11-06T06:00:00	6	Velocidad del viento	8
30006	7	Sololá	701	Sololá	3	Barraneche	6	Junio	2023-06-06T00:00:00	2024-11-06T06:00:00	7	Dirección del viento	8.05
30007	7	Sololá	701	Sololá	3	Barraneche	6	Junio	2023-06-06T00:00:00	2024-11-06T06:00:00	1	Precipitación	0
30008	7	Sololá	701	Sololá	3	Barraneche	6	Junio	2023-06-06T00:00:00	2024-11-06T06:00:00	8	Radiación solar	5
30009	7	Sololá	701	Sololá	3	Barraneche	6	Junio	2023-06-06T00:00:00	2024-11-06T07:00:00	2	Temperatura media	13.6
30010	7	Sololá	701	Sololá	3	Barraneche	6	Junio	2023-06-06T00:00:00	2024-11-06T07:00:00	4	Temperatura máxima	13.6
30011	7	Sololá	701	Sololá	3	Barraneche	6	Junio	2023-06-06T00:00:00	2024-11-06T07:00:00	3	Temperatura mínima	12.3
30012	7	Sololá	701	Sololá	3	Barraneche	6	Junio	2023-06-06T00:00:00	2024-11-06T07:00:00	5	Humedad	69
30013	7	Sololá	701	Sololá	3	Barraneche	6	Junio	2023-06-06T00:00:00	2024-11-06T07:00:00	6	Velocidad del viento	4.8
30014	7	Sololá	701	Sololá	3	Barraneche	6	Junio	2023-06-06T00:00:00	2024-11-06T07:00:00	7	Dirección del viento	4.83
30015	7	Sololá	701	Sololá	3	Barraneche	6	Junio	2023-06-06T00:00:00	2024-11-06T07:00:00	1	Precipitación	0
30016	7	Sololá	701	Sololá	3	Barraneche	6	Junio	2023-06-06T00:00:00	2024-11-06T07:00:00	8	Radiación solar	91
30017	7	Sololá	701	Sololá	3	Barraneche	6	Junio	2023-06-06T00:00:00	2024-11-06T08:00:00	2	Temperatura media	15.8
30018	7	Sololá	701	Sololá	3	Barraneche	6	Junio	2023-06-06T00:00:00	2024-11-06T08:00:00	4	Temperatura máxima	15.8
30019	7	Sololá	701	Sololá	3	Barraneche	6	Junio	2023-06-06T00:00:00	2024-11-06T08:00:00	3	Temperatura mínima	13.6
30020	7	Sololá	701	Sololá	3	Barraneche	6	Junio	2023-06-06T00:00:00	2024-11-06T08:00:00	5	Humedad	62
30021	7	Sololá	701	Sololá	3	Barraneche	6	Junio	2023-06-06T00:00:00	2024-11-06T08:00:00	6	Velocidad del viento	1.6
30022	7	Sololá	701	Sololá	3	Barraneche	6	Junio	2023-06-06T00:00:00	2024-11-06T08:00:00	7	Dirección del viento	1.61
30023	7	Sololá	701	Sololá	3	Barraneche	6	Junio	2023-06-06T00:00:00	2024-11-06T08:00:00	1	Precipitación	0
30024	7	Sololá	701	Sololá	3	Barraneche	6	Junio	2023-06-06T00:00:00	2024-11-06T08:00:00	8	Radiación solar	286
30025	7	Sololá	701	Sololá	3	Barraneche	6	Junio	2023-06-06T00:00:00	2024-11-06T09:00:00	2	Temperatura media	17.4
30026	7	Sololá	701	Sololá	3	Barraneche	6	Junio	2023-06-06T00:00:00	2024-11-06T09:00:00	4	Temperatura máxima	17.4
30027	7	Sololá	701	Sololá	3	Barraneche	6	Junio	2023-06-06T00:00:00	2024-11-06T09:00:00	3	Temperatura mínima	15.8
30028	7	Sololá	701	Sololá	3	Barraneche	6	Junio	2023-06-06T00:00:00	2024-11-06T09:00:00	5	Humedad	57
30029	7	Sololá	701	Sololá	3	Barraneche	6	Junio	2023-06-06T00:00:00	2024-11-06T09:00:00	6	Velocidad del viento	4.8
30030	7	Sololá	701	Sololá	3	Barraneche	6	Junio	2023-06-06T00:00:00	2024-11-06T09:00:00	7	Dirección del viento	4.83
30031	7	Sololá	701	Sololá	3	Barraneche	6	Junio	2023-06-06T00:00:00	2024-11-06T09:00:00	1	Precipitación	0
30032	7	Sololá	701	Sololá	3	Barraneche	6	Junio	2023-06-06T00:00:00	2024-11-06T09:00:00	8	Radiación solar	503
30033	7	Sololá	701	Sololá	3	Barraneche	6	Junio	2023-06-06T00:00:00	2024-11-06T10:00:00	2	Temperatura media	17.1
30034	7	Sololá	701	Sololá	3	Barraneche	6	Junio	2023-06-06T00:00:00	2024-11-06T10:00:00	4	Temperatura máxima	17.7
30035	7	Sololá	701	Sololá	3	Barraneche	6	Junio	2023-06-06T00:00:00	2024-11-06T10:00:00	3	Temperatura mínima	17.1
30036	7	Sololá	701	Sololá	3	Barraneche	6	Junio	2023-06-06T00:00:00	2024-11-06T10:00:00	5	Humedad	61
30037	7	Sololá	701	Sololá	3	Barraneche	6	Junio	2023-06-06T00:00:00	2024-11-06T10:00:00	6	Velocidad del viento	9.7
30038	7	Sololá	701	Sololá	3	Barraneche	6	Junio	2023-06-06T00:00:00	2024-11-06T10:00:00	7	Dirección del viento	9.66
30039	7	Sololá	701	Sololá	3	Barraneche	6	Junio	2023-06-06T00:00:00	2024-11-06T10:00:00	1	Precipitación	0
30040	7	Sololá	701	Sololá	3	Barraneche	6	Junio	2023-06-06T00:00:00	2024-11-06T10:00:00	8	Radiación solar	585
30041	7	Sololá	701	Sololá	3	Barraneche	6	Junio	2023-06-06T00:00:00	2024-11-06T11:00:00	2	Temperatura media	16.9
30042	7	Sololá	701	Sololá	3	Barraneche	6	Junio	2023-06-06T00:00:00	2024-11-06T11:00:00	4	Temperatura máxima	17.4
30043	7	Sololá	701	Sololá	3	Barraneche	6	Junio	2023-06-06T00:00:00	2024-11-06T11:00:00	3	Temperatura mínima	16.7
30044	7	Sololá	701	Sololá	3	Barraneche	6	Junio	2023-06-06T00:00:00	2024-11-06T11:00:00	5	Humedad	63
30045	7	Sololá	701	Sololá	3	Barraneche	6	Junio	2023-06-06T00:00:00	2024-11-06T11:00:00	6	Velocidad del viento	6.4
30046	7	Sololá	701	Sololá	3	Barraneche	6	Junio	2023-06-06T00:00:00	2024-11-06T11:00:00	7	Dirección del viento	6.44
30047	7	Sololá	701	Sololá	3	Barraneche	6	Junio	2023-06-06T00:00:00	2024-11-06T11:00:00	1	Precipitación	0
30048	7	Sololá	701	Sololá	3	Barraneche	6	Junio	2023-06-06T00:00:00	2024-11-06T11:00:00	8	Radiación solar	279
30049	7	Sololá	701	Sololá	3	Barraneche	6	Junio	2023-06-06T00:00:00	2024-11-06T12:00:00	2	Temperatura media	14.7
30050	7	Sololá	701	Sololá	3	Barraneche	6	Junio	2023-06-06T00:00:00	2024-11-06T12:00:00	4	Temperatura máxima	17.1
30051	7	Sololá	701	Sololá	3	Barraneche	6	Junio	2023-06-06T00:00:00	2024-11-06T12:00:00	3	Temperatura mínima	14.7
30052	7	Sololá	701	Sololá	3	Barraneche	6	Junio	2023-06-06T00:00:00	2024-11-06T12:00:00	5	Humedad	73
30053	7	Sololá	701	Sololá	3	Barraneche	6	Junio	2023-06-06T00:00:00	2024-11-06T12:00:00	6	Velocidad del viento	6.4
30054	7	Sololá	701	Sololá	3	Barraneche	6	Junio	2023-06-06T00:00:00	2024-11-06T12:00:00	7	Dirección del viento	6.44
30055	7	Sololá	701	Sololá	3	Barraneche	6	Junio	2023-06-06T00:00:00	2024-11-06T12:00:00	1	Precipitación	2.2
30056	7	Sololá	701	Sololá	3	Barraneche	6	Junio	2023-06-06T00:00:00	2024-11-06T12:00:00	8	Radiación solar	122
30057	7	Sololá	701	Sololá	3	Barraneche	6	Junio	2023-06-06T00:00:00	2024-11-06T13:00:00	2	Temperatura media	14.7
30058	7	Sololá	701	Sololá	3	Barraneche	6	Junio	2023-06-06T00:00:00	2024-11-06T13:00:00	4	Temperatura máxima	14.7
30059	7	Sololá	701	Sololá	3	Barraneche	6	Junio	2023-06-06T00:00:00	2024-11-06T13:00:00	3	Temperatura mínima	14.4
30060	7	Sololá	701	Sololá	3	Barraneche	6	Junio	2023-06-06T00:00:00	2024-11-06T13:00:00	5	Humedad	70
30061	7	Sololá	701	Sololá	3	Barraneche	6	Junio	2023-06-06T00:00:00	2024-11-06T13:00:00	6	Velocidad del viento	4.8
30062	7	Sololá	701	Sololá	3	Barraneche	6	Junio	2023-06-06T00:00:00	2024-11-06T13:00:00	7	Dirección del viento	4.83
30063	7	Sololá	701	Sololá	3	Barraneche	6	Junio	2023-06-06T00:00:00	2024-11-06T13:00:00	1	Precipitación	0.8
30064	7	Sololá	701	Sololá	3	Barraneche	6	Junio	2023-06-06T00:00:00	2024-11-06T13:00:00	8	Radiación solar	217
30065	7	Sololá	701	Sololá	3	Barraneche	6	Junio	2023-06-06T00:00:00	2024-11-06T14:00:00	2	Temperatura media	15.7
30066	7	Sololá	701	Sololá	3	Barraneche	6	Junio	2023-06-06T00:00:00	2024-11-06T14:00:00	4	Temperatura máxima	15.7
30067	7	Sololá	701	Sololá	3	Barraneche	6	Junio	2023-06-06T00:00:00	2024-11-06T14:00:00	3	Temperatura mínima	14.7
30068	7	Sololá	701	Sololá	3	Barraneche	6	Junio	2023-06-06T00:00:00	2024-11-06T14:00:00	5	Humedad	67
30069	7	Sololá	701	Sololá	3	Barraneche	6	Junio	2023-06-06T00:00:00	2024-11-06T14:00:00	6	Velocidad del viento	3.2
30070	7	Sololá	701	Sololá	3	Barraneche	6	Junio	2023-06-06T00:00:00	2024-11-06T14:00:00	7	Dirección del viento	3.22
30071	7	Sololá	701	Sololá	3	Barraneche	6	Junio	2023-06-06T00:00:00	2024-11-06T14:00:00	1	Precipitación	0
30072	7	Sololá	701	Sololá	3	Barraneche	6	Junio	2023-06-06T00:00:00	2024-11-06T14:00:00	8	Radiación solar	248
30073	7	Sololá	701	Sololá	3	Barraneche	6	Junio	2023-06-06T00:00:00	2024-11-06T15:00:00	2	Temperatura media	16.2
30074	7	Sololá	701	Sololá	3	Barraneche	6	Junio	2023-06-06T00:00:00	2024-11-06T15:00:00	4	Temperatura máxima	16.3
30075	7	Sololá	701	Sololá	3	Barraneche	6	Junio	2023-06-06T00:00:00	2024-11-06T15:00:00	3	Temperatura mínima	15.7
30076	7	Sololá	701	Sololá	3	Barraneche	6	Junio	2023-06-06T00:00:00	2024-11-06T15:00:00	5	Humedad	67
30077	7	Sololá	701	Sololá	3	Barraneche	6	Junio	2023-06-06T00:00:00	2024-11-06T15:00:00	6	Velocidad del viento	3.2
30078	7	Sololá	701	Sololá	3	Barraneche	6	Junio	2023-06-06T00:00:00	2024-11-06T15:00:00	7	Dirección del viento	3.22
30079	7	Sololá	701	Sololá	3	Barraneche	6	Junio	2023-06-06T00:00:00	2024-11-06T15:00:00	1	Precipitación	0
30080	7	Sololá	701	Sololá	3	Barraneche	6	Junio	2023-06-06T00:00:00	2024-11-06T15:00:00	8	Radiación solar	195
30081	7	Sololá	701	Sololá	3	Barraneche	6	Junio	2023-06-06T00:00:00	2024-11-06T16:00:00	2	Temperatura media	16.7
30082	7	Sololá	701	Sololá	3	Barraneche	6	Junio	2023-06-06T00:00:00	2024-11-06T16:00:00	4	Temperatura máxima	16.7
30083	7	Sololá	701	Sololá	3	Barraneche	6	Junio	2023-06-06T00:00:00	2024-11-06T16:00:00	3	Temperatura mínima	16.1
30084	7	Sololá	701	Sololá	3	Barraneche	6	Junio	2023-06-06T00:00:00	2024-11-06T16:00:00	5	Humedad	66
30085	7	Sololá	701	Sololá	3	Barraneche	6	Junio	2023-06-06T00:00:00	2024-11-06T16:00:00	6	Velocidad del viento	1.6
30086	7	Sololá	701	Sololá	3	Barraneche	6	Junio	2023-06-06T00:00:00	2024-11-06T16:00:00	7	Dirección del viento	1.61
30087	7	Sololá	701	Sololá	3	Barraneche	6	Junio	2023-06-06T00:00:00	2024-11-06T16:00:00	1	Precipitación	0
30088	7	Sololá	701	Sololá	3	Barraneche	6	Junio	2023-06-06T00:00:00	2024-11-06T16:00:00	8	Radiación solar	217
30089	7	Sololá	701	Sololá	3	Barraneche	6	Junio	2023-06-06T00:00:00	2024-11-06T17:00:00	2	Temperatura media	15.9
30090	7	Sololá	701	Sololá	3	Barraneche	6	Junio	2023-06-06T00:00:00	2024-11-06T17:00:00	4	Temperatura máxima	17.2
30091	7	Sololá	701	Sololá	3	Barraneche	6	Junio	2023-06-06T00:00:00	2024-11-06T17:00:00	3	Temperatura mínima	15.9
30092	7	Sololá	701	Sololá	3	Barraneche	6	Junio	2023-06-06T00:00:00	2024-11-06T17:00:00	5	Humedad	74
30093	7	Sololá	701	Sololá	3	Barraneche	6	Junio	2023-06-06T00:00:00	2024-11-06T17:00:00	6	Velocidad del viento	4.8
30094	7	Sololá	701	Sololá	3	Barraneche	6	Junio	2023-06-06T00:00:00	2024-11-06T17:00:00	7	Dirección del viento	4.83
30095	7	Sololá	701	Sololá	3	Barraneche	6	Junio	2023-06-06T00:00:00	2024-11-06T17:00:00	1	Precipitación	0
30096	7	Sololá	701	Sololá	3	Barraneche	6	Junio	2023-06-06T00:00:00	2024-11-06T17:00:00	8	Radiación solar	188
30097	7	Sololá	701	Sololá	3	Barraneche	6	Junio	2023-06-06T00:00:00	2024-11-06T18:00:00	2	Temperatura media	14.9
30098	7	Sololá	701	Sololá	3	Barraneche	6	Junio	2023-06-06T00:00:00	2024-11-06T18:00:00	4	Temperatura máxima	15.9
30099	7	Sololá	701	Sololá	3	Barraneche	6	Junio	2023-06-06T00:00:00	2024-11-06T18:00:00	3	Temperatura mínima	14.9
30100	7	Sololá	701	Sololá	3	Barraneche	6	Junio	2023-06-06T00:00:00	2024-11-06T18:00:00	5	Humedad	64
30101	7	Sololá	701	Sololá	3	Barraneche	6	Junio	2023-06-06T00:00:00	2024-11-06T18:00:00	6	Velocidad del viento	11.3
30102	7	Sololá	701	Sololá	3	Barraneche	6	Junio	2023-06-06T00:00:00	2024-11-06T18:00:00	7	Dirección del viento	11.27
30103	7	Sololá	701	Sololá	3	Barraneche	6	Junio	2023-06-06T00:00:00	2024-11-06T18:00:00	1	Precipitación	0.2
30104	7	Sololá	701	Sololá	3	Barraneche	6	Junio	2023-06-06T00:00:00	2024-11-06T18:00:00	8	Radiación solar	45
30105	7	Sololá	701	Sololá	3	Barraneche	6	Junio	2023-06-06T00:00:00	2024-11-06T19:00:00	2	Temperatura media	15.1
30106	7	Sololá	701	Sololá	3	Barraneche	6	Junio	2023-06-06T00:00:00	2024-11-06T19:00:00	4	Temperatura máxima	15.6
30107	7	Sololá	701	Sololá	3	Barraneche	6	Junio	2023-06-06T00:00:00	2024-11-06T19:00:00	3	Temperatura mínima	14.9
30108	7	Sololá	701	Sololá	3	Barraneche	6	Junio	2023-06-06T00:00:00	2024-11-06T19:00:00	5	Humedad	66
30109	7	Sololá	701	Sololá	3	Barraneche	6	Junio	2023-06-06T00:00:00	2024-11-06T19:00:00	6	Velocidad del viento	8
30110	7	Sololá	701	Sololá	3	Barraneche	6	Junio	2023-06-06T00:00:00	2024-11-06T19:00:00	7	Dirección del viento	8.05
30111	7	Sololá	701	Sololá	3	Barraneche	6	Junio	2023-06-06T00:00:00	2024-11-06T19:00:00	1	Precipitación	0
30112	7	Sololá	701	Sololá	3	Barraneche	6	Junio	2023-06-06T00:00:00	2024-11-06T19:00:00	8	Radiación solar	0
30113	7	Sololá	701	Sololá	3	Barraneche	6	Junio	2023-06-06T00:00:00	2024-11-06T20:00:00	2	Temperatura media	13.9
30114	7	Sololá	701	Sololá	3	Barraneche	6	Junio	2023-06-06T00:00:00	2024-11-06T20:00:00	4	Temperatura máxima	15.3
30115	7	Sololá	701	Sololá	3	Barraneche	6	Junio	2023-06-06T00:00:00	2024-11-06T20:00:00	3	Temperatura mínima	13.9
30116	7	Sololá	701	Sololá	3	Barraneche	6	Junio	2023-06-06T00:00:00	2024-11-06T20:00:00	5	Humedad	67
30117	7	Sololá	701	Sololá	3	Barraneche	6	Junio	2023-06-06T00:00:00	2024-11-06T20:00:00	6	Velocidad del viento	3.2
30118	7	Sololá	701	Sololá	3	Barraneche	6	Junio	2023-06-06T00:00:00	2024-11-06T20:00:00	7	Dirección del viento	3.22
30119	7	Sololá	701	Sololá	3	Barraneche	6	Junio	2023-06-06T00:00:00	2024-11-06T20:00:00	1	Precipitación	0
30120	7	Sololá	701	Sololá	3	Barraneche	6	Junio	2023-06-06T00:00:00	2024-11-06T20:00:00	8	Radiación solar	0
30121	7	Sololá	701	Sololá	3	Barraneche	6	Junio	2023-06-06T00:00:00	2024-11-06T21:00:00	2	Temperatura media	13.4
30122	7	Sololá	701	Sololá	3	Barraneche	6	Junio	2023-06-06T00:00:00	2024-11-06T21:00:00	4	Temperatura máxima	13.9
30123	7	Sololá	701	Sololá	3	Barraneche	6	Junio	2023-06-06T00:00:00	2024-11-06T21:00:00	3	Temperatura mínima	13.4
30124	7	Sololá	701	Sololá	3	Barraneche	6	Junio	2023-06-06T00:00:00	2024-11-06T21:00:00	5	Humedad	70
30125	7	Sololá	701	Sololá	3	Barraneche	6	Junio	2023-06-06T00:00:00	2024-11-06T21:00:00	6	Velocidad del viento	4.8
30126	7	Sololá	701	Sololá	3	Barraneche	6	Junio	2023-06-06T00:00:00	2024-11-06T21:00:00	7	Dirección del viento	4.83
30127	7	Sololá	701	Sololá	3	Barraneche	6	Junio	2023-06-06T00:00:00	2024-11-06T21:00:00	1	Precipitación	0
30128	7	Sololá	701	Sololá	3	Barraneche	6	Junio	2023-06-06T00:00:00	2024-11-06T21:00:00	8	Radiación solar	0
30129	7	Sololá	701	Sololá	3	Barraneche	6	Junio	2023-06-06T00:00:00	2024-11-06T22:00:00	2	Temperatura media	13.7
30130	7	Sololá	701	Sololá	3	Barraneche	6	Junio	2023-06-06T00:00:00	2024-11-06T22:00:00	4	Temperatura máxima	13.7
30131	7	Sololá	701	Sololá	3	Barraneche	6	Junio	2023-06-06T00:00:00	2024-11-06T22:00:00	3	Temperatura mínima	13.3
30132	7	Sololá	701	Sololá	3	Barraneche	6	Junio	2023-06-06T00:00:00	2024-11-06T22:00:00	5	Humedad	71
30133	7	Sololá	701	Sololá	3	Barraneche	6	Junio	2023-06-06T00:00:00	2024-11-06T22:00:00	6	Velocidad del viento	3.2
30134	7	Sololá	701	Sololá	3	Barraneche	6	Junio	2023-06-06T00:00:00	2024-11-06T22:00:00	7	Dirección del viento	3.22
30135	7	Sololá	701	Sololá	3	Barraneche	6	Junio	2023-06-06T00:00:00	2024-11-06T22:00:00	1	Precipitación	0
30136	7	Sololá	701	Sololá	3	Barraneche	6	Junio	2023-06-06T00:00:00	2024-11-06T22:00:00	8	Radiación solar	0
30137	7	Sololá	701	Sololá	3	Barraneche	6	Junio	2023-06-06T00:00:00	2024-11-06T23:00:00	2	Temperatura media	12.6
30138	7	Sololá	701	Sololá	3	Barraneche	6	Junio	2023-06-06T00:00:00	2024-11-06T23:00:00	4	Temperatura máxima	13.7
30139	7	Sololá	701	Sololá	3	Barraneche	6	Junio	2023-06-06T00:00:00	2024-11-06T23:00:00	3	Temperatura mínima	12.6
30140	7	Sololá	701	Sololá	3	Barraneche	6	Junio	2023-06-06T00:00:00	2024-11-06T23:00:00	5	Humedad	72
30141	7	Sololá	701	Sololá	3	Barraneche	6	Junio	2023-06-06T00:00:00	2024-11-06T23:00:00	6	Velocidad del viento	3.2
30142	7	Sololá	701	Sololá	3	Barraneche	6	Junio	2023-06-06T00:00:00	2024-11-06T23:00:00	7	Dirección del viento	3.22
30143	7	Sololá	701	Sololá	3	Barraneche	6	Junio	2023-06-06T00:00:00	2024-11-06T23:00:00	1	Precipitación	0
30144	7	Sololá	701	Sololá	3	Barraneche	6	Junio	2023-06-06T00:00:00	2024-11-06T23:00:00	8	Radiación solar	0
30145	7	Sololá	701	Sololá	3	Barraneche	6	Junio	2023-07-06T00:00:00	2024-11-06T00:00:00	2	Temperatura media	12.6
30146	7	Sololá	701	Sololá	3	Barraneche	6	Junio	2023-07-06T00:00:00	2024-11-06T00:00:00	4	Temperatura máxima	12.8
30147	7	Sololá	701	Sololá	3	Barraneche	6	Junio	2023-07-06T00:00:00	2024-11-06T00:00:00	3	Temperatura mínima	12.3
30148	7	Sololá	701	Sololá	3	Barraneche	6	Junio	2023-07-06T00:00:00	2024-11-06T00:00:00	5	Humedad	72
30149	7	Sololá	701	Sololá	3	Barraneche	6	Junio	2023-07-06T00:00:00	2024-11-06T00:00:00	6	Velocidad del viento	3.2
30150	7	Sololá	701	Sololá	3	Barraneche	6	Junio	2023-07-06T00:00:00	2024-11-06T00:00:00	7	Dirección del viento	3.22
30151	7	Sololá	701	Sololá	3	Barraneche	6	Junio	2023-07-06T00:00:00	2024-11-06T00:00:00	1	Precipitación	0
30152	7	Sololá	701	Sololá	3	Barraneche	6	Junio	2023-07-06T00:00:00	2024-11-06T00:00:00	8	Radiación solar	0
30153	7	Sololá	701	Sololá	3	Barraneche	6	Junio	2023-07-06T00:00:00	2024-11-06T01:00:00	2	Temperatura media	12.6
30154	7	Sololá	701	Sololá	3	Barraneche	6	Junio	2023-07-06T00:00:00	2024-11-06T01:00:00	4	Temperatura máxima	12.8
30155	7	Sololá	701	Sololá	3	Barraneche	6	Junio	2023-07-06T00:00:00	2024-11-06T01:00:00	3	Temperatura mínima	12.6
30156	7	Sololá	701	Sololá	3	Barraneche	6	Junio	2023-07-06T00:00:00	2024-11-06T01:00:00	5	Humedad	73
30157	7	Sololá	701	Sololá	3	Barraneche	6	Junio	2023-07-06T00:00:00	2024-11-06T01:00:00	6	Velocidad del viento	3.2
30158	7	Sololá	701	Sololá	3	Barraneche	6	Junio	2023-07-06T00:00:00	2024-11-06T01:00:00	7	Dirección del viento	3.22
30159	7	Sololá	701	Sololá	3	Barraneche	6	Junio	2023-07-06T00:00:00	2024-11-06T01:00:00	1	Precipitación	0
30160	7	Sololá	701	Sololá	3	Barraneche	6	Junio	2023-07-06T00:00:00	2024-11-06T01:00:00	8	Radiación solar	0
30161	7	Sololá	701	Sololá	3	Barraneche	6	Junio	2023-07-06T00:00:00	2024-11-06T02:00:00	2	Temperatura media	12
30162	7	Sololá	701	Sololá	3	Barraneche	6	Junio	2023-07-06T00:00:00	2024-11-06T02:00:00	4	Temperatura máxima	12.8
30163	7	Sololá	701	Sololá	3	Barraneche	6	Junio	2023-07-06T00:00:00	2024-11-06T02:00:00	3	Temperatura mínima	12
30164	7	Sololá	701	Sololá	3	Barraneche	6	Junio	2023-07-06T00:00:00	2024-11-06T02:00:00	5	Humedad	71
30165	7	Sololá	701	Sololá	3	Barraneche	6	Junio	2023-07-06T00:00:00	2024-11-06T02:00:00	6	Velocidad del viento	6.4
30166	7	Sololá	701	Sololá	3	Barraneche	6	Junio	2023-07-06T00:00:00	2024-11-06T02:00:00	7	Dirección del viento	6.44
30167	7	Sololá	701	Sololá	3	Barraneche	6	Junio	2023-07-06T00:00:00	2024-11-06T02:00:00	1	Precipitación	0
30168	7	Sololá	701	Sololá	3	Barraneche	6	Junio	2023-07-06T00:00:00	2024-11-06T02:00:00	8	Radiación solar	0
30169	7	Sololá	701	Sololá	3	Barraneche	6	Junio	2023-07-06T00:00:00	2024-11-06T03:00:00	2	Temperatura media	11.6
30170	7	Sololá	701	Sololá	3	Barraneche	6	Junio	2023-07-06T00:00:00	2024-11-06T03:00:00	4	Temperatura máxima	12.1
30171	7	Sololá	701	Sololá	3	Barraneche	6	Junio	2023-07-06T00:00:00	2024-11-06T03:00:00	3	Temperatura mínima	11.6
30172	7	Sololá	701	Sololá	3	Barraneche	6	Junio	2023-07-06T00:00:00	2024-11-06T03:00:00	5	Humedad	71
30173	7	Sololá	701	Sololá	3	Barraneche	6	Junio	2023-07-06T00:00:00	2024-11-06T03:00:00	6	Velocidad del viento	4.8
30174	7	Sololá	701	Sololá	3	Barraneche	6	Junio	2023-07-06T00:00:00	2024-11-06T03:00:00	7	Dirección del viento	4.83
30175	7	Sololá	701	Sololá	3	Barraneche	6	Junio	2023-07-06T00:00:00	2024-11-06T03:00:00	1	Precipitación	0
30176	7	Sololá	701	Sololá	3	Barraneche	6	Junio	2023-07-06T00:00:00	2024-11-06T03:00:00	8	Radiación solar	0
30177	7	Sololá	701	Sololá	3	Barraneche	6	Junio	2023-07-06T00:00:00	2024-11-06T04:00:00	2	Temperatura media	10.9
30178	7	Sololá	701	Sololá	3	Barraneche	6	Junio	2023-07-06T00:00:00	2024-11-06T04:00:00	4	Temperatura máxima	11.6
30179	7	Sololá	701	Sololá	3	Barraneche	6	Junio	2023-07-06T00:00:00	2024-11-06T04:00:00	3	Temperatura mínima	10.8
30180	7	Sololá	701	Sololá	3	Barraneche	6	Junio	2023-07-06T00:00:00	2024-11-06T04:00:00	5	Humedad	73
30181	7	Sololá	701	Sololá	3	Barraneche	6	Junio	2023-07-06T00:00:00	2024-11-06T04:00:00	6	Velocidad del viento	4.8
30182	7	Sololá	701	Sololá	3	Barraneche	6	Junio	2023-07-06T00:00:00	2024-11-06T04:00:00	7	Dirección del viento	4.83
30183	7	Sololá	701	Sololá	3	Barraneche	6	Junio	2023-07-06T00:00:00	2024-11-06T04:00:00	1	Precipitación	0
30184	7	Sololá	701	Sololá	3	Barraneche	6	Junio	2023-07-06T00:00:00	2024-11-06T04:00:00	8	Radiación solar	0
30185	7	Sololá	701	Sololá	3	Barraneche	6	Junio	2023-07-06T00:00:00	2024-11-06T05:00:00	2	Temperatura media	10.7
30186	7	Sololá	701	Sololá	3	Barraneche	6	Junio	2023-07-06T00:00:00	2024-11-06T05:00:00	4	Temperatura máxima	11.2
30187	7	Sololá	701	Sololá	3	Barraneche	6	Junio	2023-07-06T00:00:00	2024-11-06T05:00:00	3	Temperatura mínima	10.5
30188	7	Sololá	701	Sololá	3	Barraneche	6	Junio	2023-07-06T00:00:00	2024-11-06T05:00:00	5	Humedad	74
30189	7	Sololá	701	Sololá	3	Barraneche	6	Junio	2023-07-06T00:00:00	2024-11-06T05:00:00	6	Velocidad del viento	6.4
30190	7	Sololá	701	Sololá	3	Barraneche	6	Junio	2023-07-06T00:00:00	2024-11-06T05:00:00	7	Dirección del viento	6.44
30191	7	Sololá	701	Sololá	3	Barraneche	6	Junio	2023-07-06T00:00:00	2024-11-06T05:00:00	1	Precipitación	0
30192	7	Sololá	701	Sololá	3	Barraneche	6	Junio	2023-07-06T00:00:00	2024-11-06T05:00:00	8	Radiación solar	0
30193	7	Sololá	701	Sololá	3	Barraneche	6	Junio	2023-07-06T00:00:00	2024-11-06T06:00:00	2	Temperatura media	11.3
30194	7	Sololá	701	Sololá	3	Barraneche	6	Junio	2023-07-06T00:00:00	2024-11-06T06:00:00	4	Temperatura máxima	11.4
30195	7	Sololá	701	Sololá	3	Barraneche	6	Junio	2023-07-06T00:00:00	2024-11-06T06:00:00	3	Temperatura mínima	10.7
30196	7	Sololá	701	Sololá	3	Barraneche	6	Junio	2023-07-06T00:00:00	2024-11-06T06:00:00	5	Humedad	73
30197	7	Sololá	701	Sololá	3	Barraneche	6	Junio	2023-07-06T00:00:00	2024-11-06T06:00:00	6	Velocidad del viento	6.4
30198	7	Sololá	701	Sololá	3	Barraneche	6	Junio	2023-07-06T00:00:00	2024-11-06T06:00:00	7	Dirección del viento	6.44
30199	7	Sololá	701	Sololá	3	Barraneche	6	Junio	2023-07-06T00:00:00	2024-11-06T06:00:00	1	Precipitación	0
30200	7	Sololá	701	Sololá	3	Barraneche	6	Junio	2023-07-06T00:00:00	2024-11-06T06:00:00	8	Radiación solar	7
30201	7	Sololá	701	Sololá	3	Barraneche	6	Junio	2023-07-06T00:00:00	2024-11-06T07:00:00	2	Temperatura media	13.2
30202	7	Sololá	701	Sololá	3	Barraneche	6	Junio	2023-07-06T00:00:00	2024-11-06T07:00:00	4	Temperatura máxima	13.2
30203	7	Sololá	701	Sololá	3	Barraneche	6	Junio	2023-07-06T00:00:00	2024-11-06T07:00:00	3	Temperatura mínima	11.4
30204	7	Sololá	701	Sololá	3	Barraneche	6	Junio	2023-07-06T00:00:00	2024-11-06T07:00:00	5	Humedad	72
30205	7	Sololá	701	Sololá	3	Barraneche	6	Junio	2023-07-06T00:00:00	2024-11-06T07:00:00	6	Velocidad del viento	3.2
30206	7	Sololá	701	Sololá	3	Barraneche	6	Junio	2023-07-06T00:00:00	2024-11-06T07:00:00	7	Dirección del viento	3.22
30207	7	Sololá	701	Sololá	3	Barraneche	6	Junio	2023-07-06T00:00:00	2024-11-06T07:00:00	1	Precipitación	0
30208	7	Sololá	701	Sololá	3	Barraneche	6	Junio	2023-07-06T00:00:00	2024-11-06T07:00:00	8	Radiación solar	108
30209	7	Sololá	701	Sololá	3	Barraneche	6	Junio	2023-07-06T00:00:00	2024-11-06T08:00:00	2	Temperatura media	15.6
30210	7	Sololá	701	Sololá	3	Barraneche	6	Junio	2023-07-06T00:00:00	2024-11-06T08:00:00	4	Temperatura máxima	15.6
30211	7	Sololá	701	Sololá	3	Barraneche	6	Junio	2023-07-06T00:00:00	2024-11-06T08:00:00	3	Temperatura mínima	13.2
30212	7	Sololá	701	Sololá	3	Barraneche	6	Junio	2023-07-06T00:00:00	2024-11-06T08:00:00	5	Humedad	64
30213	7	Sololá	701	Sololá	3	Barraneche	6	Junio	2023-07-06T00:00:00	2024-11-06T08:00:00	6	Velocidad del viento	3.2
30214	7	Sololá	701	Sololá	3	Barraneche	6	Junio	2023-07-06T00:00:00	2024-11-06T08:00:00	7	Dirección del viento	3.22
30215	7	Sololá	701	Sololá	3	Barraneche	6	Junio	2023-07-06T00:00:00	2024-11-06T08:00:00	1	Precipitación	0
30216	7	Sololá	701	Sololá	3	Barraneche	6	Junio	2023-07-06T00:00:00	2024-11-06T08:00:00	8	Radiación solar	294
30217	7	Sololá	701	Sololá	3	Barraneche	6	Junio	2023-07-06T00:00:00	2024-11-06T09:00:00	2	Temperatura media	16.9
30218	7	Sololá	701	Sololá	3	Barraneche	6	Junio	2023-07-06T00:00:00	2024-11-06T09:00:00	4	Temperatura máxima	17.1
30219	7	Sololá	701	Sololá	3	Barraneche	6	Junio	2023-07-06T00:00:00	2024-11-06T09:00:00	3	Temperatura mínima	15.6
30220	7	Sololá	701	Sololá	3	Barraneche	6	Junio	2023-07-06T00:00:00	2024-11-06T09:00:00	5	Humedad	62
30221	7	Sololá	701	Sololá	3	Barraneche	6	Junio	2023-07-06T00:00:00	2024-11-06T09:00:00	6	Velocidad del viento	3.2
30222	7	Sololá	701	Sololá	3	Barraneche	6	Junio	2023-07-06T00:00:00	2024-11-06T09:00:00	7	Dirección del viento	3.22
30223	7	Sololá	701	Sololá	3	Barraneche	6	Junio	2023-07-06T00:00:00	2024-11-06T09:00:00	1	Precipitación	0
30224	7	Sololá	701	Sololá	3	Barraneche	6	Junio	2023-07-06T00:00:00	2024-11-06T09:00:00	8	Radiación solar	461
30225	7	Sololá	701	Sololá	3	Barraneche	6	Junio	2023-07-06T00:00:00	2024-11-06T10:00:00	2	Temperatura media	18.6
30226	7	Sololá	701	Sololá	3	Barraneche	6	Junio	2023-07-06T00:00:00	2024-11-06T10:00:00	4	Temperatura máxima	18.6
30227	7	Sololá	701	Sololá	3	Barraneche	6	Junio	2023-07-06T00:00:00	2024-11-06T10:00:00	3	Temperatura mínima	16.8
30228	7	Sololá	701	Sololá	3	Barraneche	6	Junio	2023-07-06T00:00:00	2024-11-06T10:00:00	5	Humedad	57
30229	7	Sololá	701	Sololá	3	Barraneche	6	Junio	2023-07-06T00:00:00	2024-11-06T10:00:00	6	Velocidad del viento	6.4
30230	7	Sololá	701	Sololá	3	Barraneche	6	Junio	2023-07-06T00:00:00	2024-11-06T10:00:00	7	Dirección del viento	6.44
30231	7	Sololá	701	Sololá	3	Barraneche	6	Junio	2023-07-06T00:00:00	2024-11-06T10:00:00	1	Precipitación	0
30232	7	Sololá	701	Sololá	3	Barraneche	6	Junio	2023-07-06T00:00:00	2024-11-06T10:00:00	8	Radiación solar	782
30233	7	Sololá	701	Sololá	3	Barraneche	6	Junio	2023-07-06T00:00:00	2024-11-06T11:00:00	2	Temperatura media	20.3
30234	7	Sololá	701	Sololá	3	Barraneche	6	Junio	2023-07-06T00:00:00	2024-11-06T11:00:00	4	Temperatura máxima	20.4
30235	7	Sololá	701	Sololá	3	Barraneche	6	Junio	2023-07-06T00:00:00	2024-11-06T11:00:00	3	Temperatura mínima	18.6
30236	7	Sololá	701	Sololá	3	Barraneche	6	Junio	2023-07-06T00:00:00	2024-11-06T11:00:00	5	Humedad	52
30237	7	Sololá	701	Sololá	3	Barraneche	6	Junio	2023-07-06T00:00:00	2024-11-06T11:00:00	6	Velocidad del viento	9.7
30238	7	Sololá	701	Sololá	3	Barraneche	6	Junio	2023-07-06T00:00:00	2024-11-06T11:00:00	7	Dirección del viento	9.66
30239	7	Sololá	701	Sololá	3	Barraneche	6	Junio	2023-07-06T00:00:00	2024-11-06T11:00:00	1	Precipitación	0
30240	7	Sololá	701	Sololá	3	Barraneche	6	Junio	2023-07-06T00:00:00	2024-11-06T11:00:00	8	Radiación solar	983
30241	7	Sololá	701	Sololá	3	Barraneche	6	Junio	2023-07-06T00:00:00	2024-11-06T12:00:00	2	Temperatura media	19.1
30242	7	Sololá	701	Sololá	3	Barraneche	6	Junio	2023-07-06T00:00:00	2024-11-06T12:00:00	4	Temperatura máxima	20.6
30243	7	Sololá	701	Sololá	3	Barraneche	6	Junio	2023-07-06T00:00:00	2024-11-06T12:00:00	3	Temperatura mínima	18.9
30244	7	Sololá	701	Sololá	3	Barraneche	6	Junio	2023-07-06T00:00:00	2024-11-06T12:00:00	5	Humedad	64
30245	7	Sololá	701	Sololá	3	Barraneche	6	Junio	2023-07-06T00:00:00	2024-11-06T12:00:00	6	Velocidad del viento	14.5
30246	7	Sololá	701	Sololá	3	Barraneche	6	Junio	2023-07-06T00:00:00	2024-11-06T12:00:00	7	Dirección del viento	14.48
30247	7	Sololá	701	Sololá	3	Barraneche	6	Junio	2023-07-06T00:00:00	2024-11-06T12:00:00	1	Precipitación	0
30248	7	Sololá	701	Sololá	3	Barraneche	6	Junio	2023-07-06T00:00:00	2024-11-06T12:00:00	8	Radiación solar	1017
30249	7	Sololá	701	Sololá	3	Barraneche	6	Junio	2023-07-06T00:00:00	2024-11-06T13:00:00	2	Temperatura media	16.3
30250	7	Sololá	701	Sololá	3	Barraneche	6	Junio	2023-07-06T00:00:00	2024-11-06T13:00:00	4	Temperatura máxima	19.1
30251	7	Sololá	701	Sololá	3	Barraneche	6	Junio	2023-07-06T00:00:00	2024-11-06T13:00:00	3	Temperatura mínima	16.3
30252	7	Sololá	701	Sololá	3	Barraneche	6	Junio	2023-07-06T00:00:00	2024-11-06T13:00:00	5	Humedad	72
30253	7	Sololá	701	Sololá	3	Barraneche	6	Junio	2023-07-06T00:00:00	2024-11-06T13:00:00	6	Velocidad del viento	14.5
30254	7	Sololá	701	Sololá	3	Barraneche	6	Junio	2023-07-06T00:00:00	2024-11-06T13:00:00	7	Dirección del viento	14.48
30255	7	Sololá	701	Sololá	3	Barraneche	6	Junio	2023-07-06T00:00:00	2024-11-06T13:00:00	1	Precipitación	0
30256	7	Sololá	701	Sololá	3	Barraneche	6	Junio	2023-07-06T00:00:00	2024-11-06T13:00:00	8	Radiación solar	309
30257	7	Sololá	701	Sololá	3	Barraneche	6	Junio	2023-07-06T00:00:00	2024-11-06T14:00:00	2	Temperatura media	15.5
30258	7	Sololá	701	Sololá	3	Barraneche	6	Junio	2023-07-06T00:00:00	2024-11-06T14:00:00	4	Temperatura máxima	16.3
30259	7	Sololá	701	Sololá	3	Barraneche	6	Junio	2023-07-06T00:00:00	2024-11-06T14:00:00	3	Temperatura mínima	14.6
30260	7	Sololá	701	Sololá	3	Barraneche	6	Junio	2023-07-06T00:00:00	2024-11-06T14:00:00	5	Humedad	74
30261	7	Sololá	701	Sololá	3	Barraneche	6	Junio	2023-07-06T00:00:00	2024-11-06T14:00:00	6	Velocidad del viento	6.4
30262	7	Sololá	701	Sololá	3	Barraneche	6	Junio	2023-07-06T00:00:00	2024-11-06T14:00:00	7	Dirección del viento	6.44
30263	7	Sololá	701	Sololá	3	Barraneche	6	Junio	2023-07-06T00:00:00	2024-11-06T14:00:00	1	Precipitación	3.2
30264	7	Sololá	701	Sololá	3	Barraneche	6	Junio	2023-07-06T00:00:00	2024-11-06T14:00:00	8	Radiación solar	128
30265	7	Sololá	701	Sololá	3	Barraneche	6	Junio	2023-07-06T00:00:00	2024-11-06T15:00:00	2	Temperatura media	16.4
30266	7	Sololá	701	Sololá	3	Barraneche	6	Junio	2023-07-06T00:00:00	2024-11-06T15:00:00	4	Temperatura máxima	16.9
30267	7	Sololá	701	Sololá	3	Barraneche	6	Junio	2023-07-06T00:00:00	2024-11-06T15:00:00	3	Temperatura mínima	15.5
30268	7	Sololá	701	Sololá	3	Barraneche	6	Junio	2023-07-06T00:00:00	2024-11-06T15:00:00	5	Humedad	73
30269	7	Sololá	701	Sololá	3	Barraneche	6	Junio	2023-07-06T00:00:00	2024-11-06T15:00:00	6	Velocidad del viento	4.8
30270	7	Sololá	701	Sololá	3	Barraneche	6	Junio	2023-07-06T00:00:00	2024-11-06T15:00:00	7	Dirección del viento	4.83
30271	7	Sololá	701	Sololá	3	Barraneche	6	Junio	2023-07-06T00:00:00	2024-11-06T15:00:00	1	Precipitación	0
30272	7	Sololá	701	Sololá	3	Barraneche	6	Junio	2023-07-06T00:00:00	2024-11-06T15:00:00	8	Radiación solar	457
30273	7	Sololá	701	Sololá	3	Barraneche	6	Junio	2023-07-06T00:00:00	2024-11-06T16:00:00	2	Temperatura media	15.6
30274	7	Sololá	701	Sololá	3	Barraneche	6	Junio	2023-07-06T00:00:00	2024-11-06T16:00:00	4	Temperatura máxima	16.4
30275	7	Sololá	701	Sololá	3	Barraneche	6	Junio	2023-07-06T00:00:00	2024-11-06T16:00:00	3	Temperatura mínima	15.5
30276	7	Sololá	701	Sololá	3	Barraneche	6	Junio	2023-07-06T00:00:00	2024-11-06T16:00:00	5	Humedad	77
30277	7	Sololá	701	Sololá	3	Barraneche	6	Junio	2023-07-06T00:00:00	2024-11-06T16:00:00	6	Velocidad del viento	4.8
30278	7	Sololá	701	Sololá	3	Barraneche	6	Junio	2023-07-06T00:00:00	2024-11-06T16:00:00	7	Dirección del viento	4.83
30279	7	Sololá	701	Sololá	3	Barraneche	6	Junio	2023-07-06T00:00:00	2024-11-06T16:00:00	1	Precipitación	0
30280	7	Sololá	701	Sololá	3	Barraneche	6	Junio	2023-07-06T00:00:00	2024-11-06T16:00:00	8	Radiación solar	84
30281	7	Sololá	701	Sololá	3	Barraneche	6	Junio	2023-07-06T00:00:00	2024-11-06T17:00:00	2	Temperatura media	15.8
30282	7	Sololá	701	Sololá	3	Barraneche	6	Junio	2023-07-06T00:00:00	2024-11-06T17:00:00	4	Temperatura máxima	16.2
30283	7	Sololá	701	Sololá	3	Barraneche	6	Junio	2023-07-06T00:00:00	2024-11-06T17:00:00	3	Temperatura mínima	15.5
30284	7	Sololá	701	Sololá	3	Barraneche	6	Junio	2023-07-06T00:00:00	2024-11-06T17:00:00	5	Humedad	76
30285	7	Sololá	701	Sololá	3	Barraneche	6	Junio	2023-07-06T00:00:00	2024-11-06T17:00:00	6	Velocidad del viento	4.8
30286	7	Sololá	701	Sololá	3	Barraneche	6	Junio	2023-07-06T00:00:00	2024-11-06T17:00:00	7	Dirección del viento	4.83
30287	7	Sololá	701	Sololá	3	Barraneche	6	Junio	2023-07-06T00:00:00	2024-11-06T17:00:00	1	Precipitación	0
30288	7	Sololá	701	Sololá	3	Barraneche	6	Junio	2023-07-06T00:00:00	2024-11-06T17:00:00	8	Radiación solar	134
30289	7	Sololá	701	Sololá	3	Barraneche	6	Junio	2023-07-06T00:00:00	2024-11-06T18:00:00	2	Temperatura media	15.5
30290	7	Sololá	701	Sololá	3	Barraneche	6	Junio	2023-07-06T00:00:00	2024-11-06T18:00:00	4	Temperatura máxima	15.9
30291	7	Sololá	701	Sololá	3	Barraneche	6	Junio	2023-07-06T00:00:00	2024-11-06T18:00:00	3	Temperatura mínima	15.5
30292	7	Sololá	701	Sololá	3	Barraneche	6	Junio	2023-07-06T00:00:00	2024-11-06T18:00:00	5	Humedad	79
30293	7	Sololá	701	Sololá	3	Barraneche	6	Junio	2023-07-06T00:00:00	2024-11-06T18:00:00	6	Velocidad del viento	1.6
30294	7	Sololá	701	Sololá	3	Barraneche	6	Junio	2023-07-06T00:00:00	2024-11-06T18:00:00	7	Dirección del viento	1.61
30295	7	Sololá	701	Sololá	3	Barraneche	6	Junio	2023-07-06T00:00:00	2024-11-06T18:00:00	1	Precipitación	0.2
30296	7	Sololá	701	Sololá	3	Barraneche	6	Junio	2023-07-06T00:00:00	2024-11-06T18:00:00	8	Radiación solar	15
30297	7	Sololá	701	Sololá	3	Barraneche	6	Junio	2023-07-06T00:00:00	2024-11-06T19:00:00	2	Temperatura media	15.1
30298	7	Sololá	701	Sololá	3	Barraneche	6	Junio	2023-07-06T00:00:00	2024-11-06T19:00:00	4	Temperatura máxima	15.6
30299	7	Sololá	701	Sololá	3	Barraneche	6	Junio	2023-07-06T00:00:00	2024-11-06T19:00:00	3	Temperatura mínima	15.1
30300	7	Sololá	701	Sololá	3	Barraneche	6	Junio	2023-07-06T00:00:00	2024-11-06T19:00:00	5	Humedad	84
30301	7	Sololá	701	Sololá	3	Barraneche	6	Junio	2023-07-06T00:00:00	2024-11-06T19:00:00	6	Velocidad del viento	1.6
30302	7	Sololá	701	Sololá	3	Barraneche	6	Junio	2023-07-06T00:00:00	2024-11-06T19:00:00	7	Dirección del viento	1.61
30303	7	Sololá	701	Sololá	3	Barraneche	6	Junio	2023-07-06T00:00:00	2024-11-06T19:00:00	1	Precipitación	0
30304	7	Sololá	701	Sololá	3	Barraneche	6	Junio	2023-07-06T00:00:00	2024-11-06T19:00:00	8	Radiación solar	0
30305	7	Sololá	701	Sololá	3	Barraneche	6	Junio	2023-07-06T00:00:00	2024-11-06T20:00:00	2	Temperatura media	14.9
30306	7	Sololá	701	Sololá	3	Barraneche	6	Junio	2023-07-06T00:00:00	2024-11-06T20:00:00	4	Temperatura máxima	15.2
30307	7	Sololá	701	Sololá	3	Barraneche	6	Junio	2023-07-06T00:00:00	2024-11-06T20:00:00	3	Temperatura mínima	14.8
30308	7	Sololá	701	Sololá	3	Barraneche	6	Junio	2023-07-06T00:00:00	2024-11-06T20:00:00	5	Humedad	85
30309	7	Sololá	701	Sololá	3	Barraneche	6	Junio	2023-07-06T00:00:00	2024-11-06T20:00:00	6	Velocidad del viento	3.2
30310	7	Sololá	701	Sololá	3	Barraneche	6	Junio	2023-07-06T00:00:00	2024-11-06T20:00:00	7	Dirección del viento	3.22
30311	7	Sololá	701	Sololá	3	Barraneche	6	Junio	2023-07-06T00:00:00	2024-11-06T20:00:00	1	Precipitación	0
30312	7	Sololá	701	Sololá	3	Barraneche	6	Junio	2023-07-06T00:00:00	2024-11-06T20:00:00	8	Radiación solar	0
30313	7	Sololá	701	Sololá	3	Barraneche	6	Junio	2023-07-06T00:00:00	2024-11-06T21:00:00	2	Temperatura media	14.7
30314	7	Sololá	701	Sololá	3	Barraneche	6	Junio	2023-07-06T00:00:00	2024-11-06T21:00:00	4	Temperatura máxima	14.9
30315	7	Sololá	701	Sololá	3	Barraneche	6	Junio	2023-07-06T00:00:00	2024-11-06T21:00:00	3	Temperatura mínima	14.6
30316	7	Sololá	701	Sololá	3	Barraneche	6	Junio	2023-07-06T00:00:00	2024-11-06T21:00:00	5	Humedad	85
30317	7	Sololá	701	Sololá	3	Barraneche	6	Junio	2023-07-06T00:00:00	2024-11-06T21:00:00	6	Velocidad del viento	1.6
30318	7	Sololá	701	Sololá	3	Barraneche	6	Junio	2023-07-06T00:00:00	2024-11-06T21:00:00	7	Dirección del viento	1.61
30319	7	Sololá	701	Sololá	3	Barraneche	6	Junio	2023-07-06T00:00:00	2024-11-06T21:00:00	1	Precipitación	0.2
30320	7	Sololá	701	Sololá	3	Barraneche	6	Junio	2023-07-06T00:00:00	2024-11-06T21:00:00	8	Radiación solar	0
30321	7	Sololá	701	Sololá	3	Barraneche	6	Junio	2023-07-06T00:00:00	2024-11-06T22:00:00	2	Temperatura media	14.4
30322	7	Sololá	701	Sololá	3	Barraneche	6	Junio	2023-07-06T00:00:00	2024-11-06T22:00:00	4	Temperatura máxima	14.7
30323	7	Sololá	701	Sololá	3	Barraneche	6	Junio	2023-07-06T00:00:00	2024-11-06T22:00:00	3	Temperatura mínima	14.4
30324	7	Sololá	701	Sololá	3	Barraneche	6	Junio	2023-07-06T00:00:00	2024-11-06T22:00:00	5	Humedad	85
30325	7	Sololá	701	Sololá	3	Barraneche	6	Junio	2023-07-06T00:00:00	2024-11-06T22:00:00	6	Velocidad del viento	1.6
30326	7	Sololá	701	Sololá	3	Barraneche	6	Junio	2023-07-06T00:00:00	2024-11-06T22:00:00	7	Dirección del viento	1.61
30327	7	Sololá	701	Sololá	3	Barraneche	6	Junio	2023-07-06T00:00:00	2024-11-06T22:00:00	1	Precipitación	0
30328	7	Sololá	701	Sololá	3	Barraneche	6	Junio	2023-07-06T00:00:00	2024-11-06T22:00:00	8	Radiación solar	0
30329	7	Sololá	701	Sololá	3	Barraneche	6	Junio	2023-07-06T00:00:00	2024-11-06T23:00:00	2	Temperatura media	14.2
30330	7	Sololá	701	Sololá	3	Barraneche	6	Junio	2023-07-06T00:00:00	2024-11-06T23:00:00	4	Temperatura máxima	14.5
30331	7	Sololá	701	Sololá	3	Barraneche	6	Junio	2023-07-06T00:00:00	2024-11-06T23:00:00	3	Temperatura mínima	14.2
30332	7	Sololá	701	Sololá	3	Barraneche	6	Junio	2023-07-06T00:00:00	2024-11-06T23:00:00	5	Humedad	85
30333	7	Sololá	701	Sololá	3	Barraneche	6	Junio	2023-07-06T00:00:00	2024-11-06T23:00:00	6	Velocidad del viento	1.6
30334	7	Sololá	701	Sololá	3	Barraneche	6	Junio	2023-07-06T00:00:00	2024-11-06T23:00:00	7	Dirección del viento	1.61
30335	7	Sololá	701	Sololá	3	Barraneche	6	Junio	2023-07-06T00:00:00	2024-11-06T23:00:00	1	Precipitación	0
30336	7	Sololá	701	Sololá	3	Barraneche	6	Junio	2023-07-06T00:00:00	2024-11-06T23:00:00	8	Radiación solar	0
30337	7	Sololá	701	Sololá	3	Barraneche	6	Junio	2023-08-06T00:00:00	2024-11-06T00:00:00	2	Temperatura media	13.3
30338	7	Sololá	701	Sololá	3	Barraneche	6	Junio	2023-08-06T00:00:00	2024-11-06T00:00:00	4	Temperatura máxima	14.3
30339	7	Sololá	701	Sololá	3	Barraneche	6	Junio	2023-08-06T00:00:00	2024-11-06T00:00:00	3	Temperatura mínima	13.2
30340	7	Sololá	701	Sololá	3	Barraneche	6	Junio	2023-08-06T00:00:00	2024-11-06T00:00:00	5	Humedad	84
30341	7	Sololá	701	Sololá	3	Barraneche	6	Junio	2023-08-06T00:00:00	2024-11-06T00:00:00	6	Velocidad del viento	1.6
30342	7	Sololá	701	Sololá	3	Barraneche	6	Junio	2023-08-06T00:00:00	2024-11-06T00:00:00	7	Dirección del viento	1.61
30343	7	Sololá	701	Sololá	3	Barraneche	6	Junio	2023-08-06T00:00:00	2024-11-06T00:00:00	1	Precipitación	0
30344	7	Sololá	701	Sololá	3	Barraneche	6	Junio	2023-08-06T00:00:00	2024-11-06T00:00:00	8	Radiación solar	0
30345	7	Sololá	701	Sololá	3	Barraneche	6	Junio	2023-08-06T00:00:00	2024-11-06T01:00:00	2	Temperatura media	12.9
30346	7	Sololá	701	Sololá	3	Barraneche	6	Junio	2023-08-06T00:00:00	2024-11-06T01:00:00	4	Temperatura máxima	13.6
30347	7	Sololá	701	Sololá	3	Barraneche	6	Junio	2023-08-06T00:00:00	2024-11-06T01:00:00	3	Temperatura mínima	12.9
30348	7	Sololá	701	Sololá	3	Barraneche	6	Junio	2023-08-06T00:00:00	2024-11-06T01:00:00	5	Humedad	83
30349	7	Sololá	701	Sololá	3	Barraneche	6	Junio	2023-08-06T00:00:00	2024-11-06T01:00:00	6	Velocidad del viento	1.6
30350	7	Sololá	701	Sololá	3	Barraneche	6	Junio	2023-08-06T00:00:00	2024-11-06T01:00:00	7	Dirección del viento	1.61
30351	7	Sololá	701	Sololá	3	Barraneche	6	Junio	2023-08-06T00:00:00	2024-11-06T01:00:00	1	Precipitación	0
30352	7	Sololá	701	Sololá	3	Barraneche	6	Junio	2023-08-06T00:00:00	2024-11-06T01:00:00	8	Radiación solar	0
30353	7	Sololá	701	Sololá	3	Barraneche	6	Junio	2023-08-06T00:00:00	2024-11-06T02:00:00	2	Temperatura media	12.2
30354	7	Sololá	701	Sololá	3	Barraneche	6	Junio	2023-08-06T00:00:00	2024-11-06T02:00:00	4	Temperatura máxima	12.9
30355	7	Sololá	701	Sololá	3	Barraneche	6	Junio	2023-08-06T00:00:00	2024-11-06T02:00:00	3	Temperatura mínima	12.1
30356	7	Sololá	701	Sololá	3	Barraneche	6	Junio	2023-08-06T00:00:00	2024-11-06T02:00:00	5	Humedad	82
30357	7	Sololá	701	Sololá	3	Barraneche	6	Junio	2023-08-06T00:00:00	2024-11-06T02:00:00	6	Velocidad del viento	3.2
30358	7	Sololá	701	Sololá	3	Barraneche	6	Junio	2023-08-06T00:00:00	2024-11-06T02:00:00	7	Dirección del viento	3.22
30359	7	Sololá	701	Sololá	3	Barraneche	6	Junio	2023-08-06T00:00:00	2024-11-06T02:00:00	1	Precipitación	0
30360	7	Sololá	701	Sololá	3	Barraneche	6	Junio	2023-08-06T00:00:00	2024-11-06T02:00:00	8	Radiación solar	0
30361	7	Sololá	701	Sololá	3	Barraneche	6	Junio	2023-08-06T00:00:00	2024-11-06T03:00:00	2	Temperatura media	11.6
30362	7	Sololá	701	Sololá	3	Barraneche	6	Junio	2023-08-06T00:00:00	2024-11-06T03:00:00	4	Temperatura máxima	12.2
30363	7	Sololá	701	Sololá	3	Barraneche	6	Junio	2023-08-06T00:00:00	2024-11-06T03:00:00	3	Temperatura mínima	11.4
30364	7	Sololá	701	Sololá	3	Barraneche	6	Junio	2023-08-06T00:00:00	2024-11-06T03:00:00	5	Humedad	81
30365	7	Sololá	701	Sololá	3	Barraneche	6	Junio	2023-08-06T00:00:00	2024-11-06T03:00:00	6	Velocidad del viento	4.8
30366	7	Sololá	701	Sololá	3	Barraneche	6	Junio	2023-08-06T00:00:00	2024-11-06T03:00:00	7	Dirección del viento	4.83
30367	7	Sololá	701	Sololá	3	Barraneche	6	Junio	2023-08-06T00:00:00	2024-11-06T03:00:00	1	Precipitación	0
30368	7	Sololá	701	Sololá	3	Barraneche	6	Junio	2023-08-06T00:00:00	2024-11-06T03:00:00	8	Radiación solar	0
30369	7	Sololá	701	Sololá	3	Barraneche	6	Junio	2023-08-06T00:00:00	2024-11-06T04:00:00	2	Temperatura media	11.2
30370	7	Sololá	701	Sololá	3	Barraneche	6	Junio	2023-08-06T00:00:00	2024-11-06T04:00:00	4	Temperatura máxima	11.6
30371	7	Sololá	701	Sololá	3	Barraneche	6	Junio	2023-08-06T00:00:00	2024-11-06T04:00:00	3	Temperatura mínima	11.2
30372	7	Sololá	701	Sololá	3	Barraneche	6	Junio	2023-08-06T00:00:00	2024-11-06T04:00:00	5	Humedad	81
30373	7	Sololá	701	Sololá	3	Barraneche	6	Junio	2023-08-06T00:00:00	2024-11-06T04:00:00	6	Velocidad del viento	4.8
30374	7	Sololá	701	Sololá	3	Barraneche	6	Junio	2023-08-06T00:00:00	2024-11-06T04:00:00	7	Dirección del viento	4.83
30375	7	Sololá	701	Sololá	3	Barraneche	6	Junio	2023-08-06T00:00:00	2024-11-06T04:00:00	1	Precipitación	0
30376	7	Sololá	701	Sololá	3	Barraneche	6	Junio	2023-08-06T00:00:00	2024-11-06T04:00:00	8	Radiación solar	0
30377	7	Sololá	701	Sololá	3	Barraneche	6	Junio	2023-08-06T00:00:00	2024-11-06T05:00:00	2	Temperatura media	11.2
30378	7	Sololá	701	Sololá	3	Barraneche	6	Junio	2023-08-06T00:00:00	2024-11-06T05:00:00	4	Temperatura máxima	11.2
30379	7	Sololá	701	Sololá	3	Barraneche	6	Junio	2023-08-06T00:00:00	2024-11-06T05:00:00	3	Temperatura mínima	11
30380	7	Sololá	701	Sololá	3	Barraneche	6	Junio	2023-08-06T00:00:00	2024-11-06T05:00:00	5	Humedad	80
30381	7	Sololá	701	Sololá	3	Barraneche	6	Junio	2023-08-06T00:00:00	2024-11-06T05:00:00	6	Velocidad del viento	4.8
30382	7	Sololá	701	Sololá	3	Barraneche	6	Junio	2023-08-06T00:00:00	2024-11-06T05:00:00	7	Dirección del viento	4.83
30383	7	Sololá	701	Sololá	3	Barraneche	6	Junio	2023-08-06T00:00:00	2024-11-06T05:00:00	1	Precipitación	0
30384	7	Sololá	701	Sololá	3	Barraneche	6	Junio	2023-08-06T00:00:00	2024-11-06T05:00:00	8	Radiación solar	0
30385	7	Sololá	701	Sololá	3	Barraneche	6	Junio	2023-08-06T00:00:00	2024-11-06T06:00:00	2	Temperatura media	11
30386	7	Sololá	701	Sololá	3	Barraneche	6	Junio	2023-08-06T00:00:00	2024-11-06T06:00:00	4	Temperatura máxima	11.2
30387	7	Sololá	701	Sololá	3	Barraneche	6	Junio	2023-08-06T00:00:00	2024-11-06T06:00:00	3	Temperatura mínima	10.9
30388	7	Sololá	701	Sololá	3	Barraneche	6	Junio	2023-08-06T00:00:00	2024-11-06T06:00:00	5	Humedad	77
30389	7	Sololá	701	Sololá	3	Barraneche	6	Junio	2023-08-06T00:00:00	2024-11-06T06:00:00	6	Velocidad del viento	6.4
30390	7	Sololá	701	Sololá	3	Barraneche	6	Junio	2023-08-06T00:00:00	2024-11-06T06:00:00	7	Dirección del viento	6.44
30391	7	Sololá	701	Sololá	3	Barraneche	6	Junio	2023-08-06T00:00:00	2024-11-06T06:00:00	1	Precipitación	0
30392	7	Sololá	701	Sololá	3	Barraneche	6	Junio	2023-08-06T00:00:00	2024-11-06T06:00:00	8	Radiación solar	6
30393	7	Sololá	701	Sololá	3	Barraneche	6	Junio	2023-08-06T00:00:00	2024-11-06T07:00:00	2	Temperatura media	13.3
30394	7	Sololá	701	Sololá	3	Barraneche	6	Junio	2023-08-06T00:00:00	2024-11-06T07:00:00	4	Temperatura máxima	13.3
30395	7	Sololá	701	Sololá	3	Barraneche	6	Junio	2023-08-06T00:00:00	2024-11-06T07:00:00	3	Temperatura mínima	10.9
30396	7	Sololá	701	Sololá	3	Barraneche	6	Junio	2023-08-06T00:00:00	2024-11-06T07:00:00	5	Humedad	75
30397	7	Sololá	701	Sololá	3	Barraneche	6	Junio	2023-08-06T00:00:00	2024-11-06T07:00:00	6	Velocidad del viento	4.8
30398	7	Sololá	701	Sololá	3	Barraneche	6	Junio	2023-08-06T00:00:00	2024-11-06T07:00:00	7	Dirección del viento	4.83
30399	7	Sololá	701	Sololá	3	Barraneche	6	Junio	2023-08-06T00:00:00	2024-11-06T07:00:00	1	Precipitación	0
30400	7	Sololá	701	Sololá	3	Barraneche	6	Junio	2023-08-06T00:00:00	2024-11-06T07:00:00	8	Radiación solar	131
30401	7	Sololá	701	Sololá	3	Barraneche	6	Junio	2023-08-06T00:00:00	2024-11-06T08:00:00	2	Temperatura media	16.1
30402	7	Sololá	701	Sololá	3	Barraneche	6	Junio	2023-08-06T00:00:00	2024-11-06T08:00:00	4	Temperatura máxima	16.1
30403	7	Sololá	701	Sololá	3	Barraneche	6	Junio	2023-08-06T00:00:00	2024-11-06T08:00:00	3	Temperatura mínima	13.3
30404	7	Sololá	701	Sololá	3	Barraneche	6	Junio	2023-08-06T00:00:00	2024-11-06T08:00:00	5	Humedad	71
30405	7	Sololá	701	Sololá	3	Barraneche	6	Junio	2023-08-06T00:00:00	2024-11-06T08:00:00	6	Velocidad del viento	3.2
30406	7	Sololá	701	Sololá	3	Barraneche	6	Junio	2023-08-06T00:00:00	2024-11-06T08:00:00	7	Dirección del viento	3.22
30407	7	Sololá	701	Sololá	3	Barraneche	6	Junio	2023-08-06T00:00:00	2024-11-06T08:00:00	1	Precipitación	0
30408	7	Sololá	701	Sololá	3	Barraneche	6	Junio	2023-08-06T00:00:00	2024-11-06T08:00:00	8	Radiación solar	324
30409	7	Sololá	701	Sololá	3	Barraneche	6	Junio	2023-08-06T00:00:00	2024-11-06T09:00:00	2	Temperatura media	17.7
30410	7	Sololá	701	Sololá	3	Barraneche	6	Junio	2023-08-06T00:00:00	2024-11-06T09:00:00	4	Temperatura máxima	17.7
30411	7	Sololá	701	Sololá	3	Barraneche	6	Junio	2023-08-06T00:00:00	2024-11-06T09:00:00	3	Temperatura mínima	16.1
30412	7	Sololá	701	Sololá	3	Barraneche	6	Junio	2023-08-06T00:00:00	2024-11-06T09:00:00	5	Humedad	66
30413	7	Sololá	701	Sololá	3	Barraneche	6	Junio	2023-08-06T00:00:00	2024-11-06T09:00:00	6	Velocidad del viento	3.2
30414	7	Sololá	701	Sololá	3	Barraneche	6	Junio	2023-08-06T00:00:00	2024-11-06T09:00:00	7	Dirección del viento	3.22
30415	7	Sololá	701	Sololá	3	Barraneche	6	Junio	2023-08-06T00:00:00	2024-11-06T09:00:00	1	Precipitación	0
30416	7	Sololá	701	Sololá	3	Barraneche	6	Junio	2023-08-06T00:00:00	2024-11-06T09:00:00	8	Radiación solar	582
30417	7	Sololá	701	Sololá	3	Barraneche	6	Junio	2023-08-06T00:00:00	2024-11-06T10:00:00	2	Temperatura media	19.7
30418	7	Sololá	701	Sololá	3	Barraneche	6	Junio	2023-08-06T00:00:00	2024-11-06T10:00:00	4	Temperatura máxima	19.7
30419	7	Sololá	701	Sololá	3	Barraneche	6	Junio	2023-08-06T00:00:00	2024-11-06T10:00:00	3	Temperatura mínima	17.7
30420	7	Sololá	701	Sololá	3	Barraneche	6	Junio	2023-08-06T00:00:00	2024-11-06T10:00:00	5	Humedad	48
30421	7	Sololá	701	Sololá	3	Barraneche	6	Junio	2023-08-06T00:00:00	2024-11-06T10:00:00	6	Velocidad del viento	4.8
30422	7	Sololá	701	Sololá	3	Barraneche	6	Junio	2023-08-06T00:00:00	2024-11-06T10:00:00	7	Dirección del viento	4.83
30423	7	Sololá	701	Sololá	3	Barraneche	6	Junio	2023-08-06T00:00:00	2024-11-06T10:00:00	1	Precipitación	0
30424	7	Sololá	701	Sololá	3	Barraneche	6	Junio	2023-08-06T00:00:00	2024-11-06T10:00:00	8	Radiación solar	788
30425	7	Sololá	701	Sololá	3	Barraneche	6	Junio	2023-08-06T00:00:00	2024-11-06T11:00:00	2	Temperatura media	19.9
30426	7	Sololá	701	Sololá	3	Barraneche	6	Junio	2023-08-06T00:00:00	2024-11-06T11:00:00	4	Temperatura máxima	20.1
30427	7	Sololá	701	Sololá	3	Barraneche	6	Junio	2023-08-06T00:00:00	2024-11-06T11:00:00	3	Temperatura mínima	19.7
30428	7	Sololá	701	Sololá	3	Barraneche	6	Junio	2023-08-06T00:00:00	2024-11-06T11:00:00	5	Humedad	51
30429	7	Sololá	701	Sololá	3	Barraneche	6	Junio	2023-08-06T00:00:00	2024-11-06T11:00:00	6	Velocidad del viento	9.7
30430	7	Sololá	701	Sololá	3	Barraneche	6	Junio	2023-08-06T00:00:00	2024-11-06T11:00:00	7	Dirección del viento	9.66
30431	7	Sololá	701	Sololá	3	Barraneche	6	Junio	2023-08-06T00:00:00	2024-11-06T11:00:00	1	Precipitación	0
30432	7	Sololá	701	Sololá	3	Barraneche	6	Junio	2023-08-06T00:00:00	2024-11-06T11:00:00	8	Radiación solar	984
30433	7	Sololá	701	Sololá	3	Barraneche	6	Junio	2023-08-06T00:00:00	2024-11-06T12:00:00	2	Temperatura media	19.7
30434	7	Sololá	701	Sololá	3	Barraneche	6	Junio	2023-08-06T00:00:00	2024-11-06T12:00:00	4	Temperatura máxima	20.1
30435	7	Sololá	701	Sololá	3	Barraneche	6	Junio	2023-08-06T00:00:00	2024-11-06T12:00:00	3	Temperatura mínima	19.5
30436	7	Sololá	701	Sololá	3	Barraneche	6	Junio	2023-08-06T00:00:00	2024-11-06T12:00:00	5	Humedad	54
30437	7	Sololá	701	Sololá	3	Barraneche	6	Junio	2023-08-06T00:00:00	2024-11-06T12:00:00	6	Velocidad del viento	11.3
30438	7	Sololá	701	Sololá	3	Barraneche	6	Junio	2023-08-06T00:00:00	2024-11-06T12:00:00	7	Dirección del viento	11.27
30439	7	Sololá	701	Sololá	3	Barraneche	6	Junio	2023-08-06T00:00:00	2024-11-06T12:00:00	1	Precipitación	0
30440	7	Sololá	701	Sololá	3	Barraneche	6	Junio	2023-08-06T00:00:00	2024-11-06T12:00:00	8	Radiación solar	977
30441	7	Sololá	701	Sololá	3	Barraneche	6	Junio	2023-08-06T00:00:00	2024-11-06T13:00:00	2	Temperatura media	18.9
30442	7	Sololá	701	Sololá	3	Barraneche	6	Junio	2023-08-06T00:00:00	2024-11-06T13:00:00	4	Temperatura máxima	20.1
30443	7	Sololá	701	Sololá	3	Barraneche	6	Junio	2023-08-06T00:00:00	2024-11-06T13:00:00	3	Temperatura mínima	18.8
30444	7	Sololá	701	Sololá	3	Barraneche	6	Junio	2023-08-06T00:00:00	2024-11-06T13:00:00	5	Humedad	68
30445	7	Sololá	701	Sololá	3	Barraneche	6	Junio	2023-08-06T00:00:00	2024-11-06T13:00:00	6	Velocidad del viento	12.9
30446	7	Sololá	701	Sololá	3	Barraneche	6	Junio	2023-08-06T00:00:00	2024-11-06T13:00:00	7	Dirección del viento	12.87
30447	7	Sololá	701	Sololá	3	Barraneche	6	Junio	2023-08-06T00:00:00	2024-11-06T13:00:00	1	Precipitación	0
30448	7	Sololá	701	Sololá	3	Barraneche	6	Junio	2023-08-06T00:00:00	2024-11-06T13:00:00	8	Radiación solar	969
30449	7	Sololá	701	Sololá	3	Barraneche	6	Junio	2023-08-06T00:00:00	2024-11-06T14:00:00	2	Temperatura media	18.6
30450	7	Sololá	701	Sololá	3	Barraneche	6	Junio	2023-08-06T00:00:00	2024-11-06T14:00:00	4	Temperatura máxima	18.9
30451	7	Sololá	701	Sololá	3	Barraneche	6	Junio	2023-08-06T00:00:00	2024-11-06T14:00:00	3	Temperatura mínima	18.2
30452	7	Sololá	701	Sololá	3	Barraneche	6	Junio	2023-08-06T00:00:00	2024-11-06T14:00:00	5	Humedad	66
30453	7	Sololá	701	Sololá	3	Barraneche	6	Junio	2023-08-06T00:00:00	2024-11-06T14:00:00	6	Velocidad del viento	11.3
30454	7	Sololá	701	Sololá	3	Barraneche	6	Junio	2023-08-06T00:00:00	2024-11-06T14:00:00	7	Dirección del viento	11.27
30455	7	Sololá	701	Sololá	3	Barraneche	6	Junio	2023-08-06T00:00:00	2024-11-06T14:00:00	1	Precipitación	0
30456	7	Sololá	701	Sololá	3	Barraneche	6	Junio	2023-08-06T00:00:00	2024-11-06T14:00:00	8	Radiación solar	508
30457	7	Sololá	701	Sololá	3	Barraneche	6	Junio	2023-08-06T00:00:00	2024-11-06T15:00:00	2	Temperatura media	17.8
30458	7	Sololá	701	Sololá	3	Barraneche	6	Junio	2023-08-06T00:00:00	2024-11-06T15:00:00	4	Temperatura máxima	18.7
30459	7	Sololá	701	Sololá	3	Barraneche	6	Junio	2023-08-06T00:00:00	2024-11-06T15:00:00	3	Temperatura mínima	17.6
30460	7	Sololá	701	Sololá	3	Barraneche	6	Junio	2023-08-06T00:00:00	2024-11-06T15:00:00	5	Humedad	68
30461	7	Sololá	701	Sololá	3	Barraneche	6	Junio	2023-08-06T00:00:00	2024-11-06T15:00:00	6	Velocidad del viento	9.7
30462	7	Sololá	701	Sololá	3	Barraneche	6	Junio	2023-08-06T00:00:00	2024-11-06T15:00:00	7	Dirección del viento	9.66
30463	7	Sololá	701	Sololá	3	Barraneche	6	Junio	2023-08-06T00:00:00	2024-11-06T15:00:00	1	Precipitación	0
30464	7	Sololá	701	Sololá	3	Barraneche	6	Junio	2023-08-06T00:00:00	2024-11-06T15:00:00	8	Radiación solar	254
30465	7	Sololá	701	Sololá	3	Barraneche	6	Junio	2023-08-06T00:00:00	2024-11-06T16:00:00	2	Temperatura media	16.9
30466	7	Sololá	701	Sololá	3	Barraneche	6	Junio	2023-08-06T00:00:00	2024-11-06T16:00:00	4	Temperatura máxima	17.8
30467	7	Sololá	701	Sololá	3	Barraneche	6	Junio	2023-08-06T00:00:00	2024-11-06T16:00:00	3	Temperatura mínima	16.8
30468	7	Sololá	701	Sololá	3	Barraneche	6	Junio	2023-08-06T00:00:00	2024-11-06T16:00:00	5	Humedad	73
30469	7	Sololá	701	Sololá	3	Barraneche	6	Junio	2023-08-06T00:00:00	2024-11-06T16:00:00	6	Velocidad del viento	8
30470	7	Sololá	701	Sololá	3	Barraneche	6	Junio	2023-08-06T00:00:00	2024-11-06T16:00:00	7	Dirección del viento	8.05
30471	7	Sololá	701	Sololá	3	Barraneche	6	Junio	2023-08-06T00:00:00	2024-11-06T16:00:00	1	Precipitación	0
30472	7	Sololá	701	Sololá	3	Barraneche	6	Junio	2023-08-06T00:00:00	2024-11-06T16:00:00	8	Radiación solar	179
30473	7	Sololá	701	Sololá	3	Barraneche	6	Junio	2023-08-06T00:00:00	2024-11-06T17:00:00	2	Temperatura media	17.1
30474	7	Sololá	701	Sololá	3	Barraneche	6	Junio	2023-08-06T00:00:00	2024-11-06T17:00:00	4	Temperatura máxima	17.2
30475	7	Sololá	701	Sololá	3	Barraneche	6	Junio	2023-08-06T00:00:00	2024-11-06T17:00:00	3	Temperatura mínima	16.8
30476	7	Sololá	701	Sololá	3	Barraneche	6	Junio	2023-08-06T00:00:00	2024-11-06T17:00:00	5	Humedad	72
30477	7	Sololá	701	Sololá	3	Barraneche	6	Junio	2023-08-06T00:00:00	2024-11-06T17:00:00	6	Velocidad del viento	4.8
30478	7	Sololá	701	Sololá	3	Barraneche	6	Junio	2023-08-06T00:00:00	2024-11-06T17:00:00	7	Dirección del viento	4.83
30479	7	Sololá	701	Sololá	3	Barraneche	6	Junio	2023-08-06T00:00:00	2024-11-06T17:00:00	1	Precipitación	0
30480	7	Sololá	701	Sololá	3	Barraneche	6	Junio	2023-08-06T00:00:00	2024-11-06T17:00:00	8	Radiación solar	135
30481	7	Sololá	701	Sololá	3	Barraneche	6	Junio	2023-08-06T00:00:00	2024-11-06T18:00:00	2	Temperatura media	16.1
30482	7	Sololá	701	Sololá	3	Barraneche	6	Junio	2023-08-06T00:00:00	2024-11-06T18:00:00	4	Temperatura máxima	17.1
30483	7	Sololá	701	Sololá	3	Barraneche	6	Junio	2023-08-06T00:00:00	2024-11-06T18:00:00	3	Temperatura mínima	16.1
30484	7	Sololá	701	Sololá	3	Barraneche	6	Junio	2023-08-06T00:00:00	2024-11-06T18:00:00	5	Humedad	80
30485	7	Sololá	701	Sololá	3	Barraneche	6	Junio	2023-08-06T00:00:00	2024-11-06T18:00:00	6	Velocidad del viento	6.4
30486	7	Sololá	701	Sololá	3	Barraneche	6	Junio	2023-08-06T00:00:00	2024-11-06T18:00:00	7	Dirección del viento	6.44
30487	7	Sololá	701	Sololá	3	Barraneche	6	Junio	2023-08-06T00:00:00	2024-11-06T18:00:00	1	Precipitación	0
30488	7	Sololá	701	Sololá	3	Barraneche	6	Junio	2023-08-06T00:00:00	2024-11-06T18:00:00	8	Radiación solar	38
30489	7	Sololá	701	Sololá	3	Barraneche	6	Junio	2023-08-06T00:00:00	2024-11-06T19:00:00	2	Temperatura media	15.7
30490	7	Sololá	701	Sololá	3	Barraneche	6	Junio	2023-08-06T00:00:00	2024-11-06T19:00:00	4	Temperatura máxima	16.1
30491	7	Sololá	701	Sololá	3	Barraneche	6	Junio	2023-08-06T00:00:00	2024-11-06T19:00:00	3	Temperatura mínima	15.7
30492	7	Sololá	701	Sololá	3	Barraneche	6	Junio	2023-08-06T00:00:00	2024-11-06T19:00:00	5	Humedad	84
30493	7	Sololá	701	Sololá	3	Barraneche	6	Junio	2023-08-06T00:00:00	2024-11-06T19:00:00	6	Velocidad del viento	4.8
30494	7	Sololá	701	Sololá	3	Barraneche	6	Junio	2023-08-06T00:00:00	2024-11-06T19:00:00	7	Dirección del viento	4.83
30495	7	Sololá	701	Sololá	3	Barraneche	6	Junio	2023-08-06T00:00:00	2024-11-06T19:00:00	1	Precipitación	0.4
30496	7	Sololá	701	Sololá	3	Barraneche	6	Junio	2023-08-06T00:00:00	2024-11-06T19:00:00	8	Radiación solar	0
30497	7	Sololá	701	Sololá	3	Barraneche	6	Junio	2023-08-06T00:00:00	2024-11-06T20:00:00	2	Temperatura media	15.4
30498	7	Sololá	701	Sololá	3	Barraneche	6	Junio	2023-08-06T00:00:00	2024-11-06T20:00:00	4	Temperatura máxima	15.8
30499	7	Sololá	701	Sololá	3	Barraneche	6	Junio	2023-08-06T00:00:00	2024-11-06T20:00:00	3	Temperatura mínima	15.4
30500	7	Sololá	701	Sololá	3	Barraneche	6	Junio	2023-08-06T00:00:00	2024-11-06T20:00:00	5	Humedad	84
30501	7	Sololá	701	Sololá	3	Barraneche	6	Junio	2023-08-06T00:00:00	2024-11-06T20:00:00	6	Velocidad del viento	4.8
30502	7	Sololá	701	Sololá	3	Barraneche	6	Junio	2023-08-06T00:00:00	2024-11-06T20:00:00	7	Dirección del viento	4.83
30503	7	Sololá	701	Sololá	3	Barraneche	6	Junio	2023-08-06T00:00:00	2024-11-06T20:00:00	1	Precipitación	0.2
30504	7	Sololá	701	Sololá	3	Barraneche	6	Junio	2023-08-06T00:00:00	2024-11-06T20:00:00	8	Radiación solar	0
30505	7	Sololá	701	Sololá	3	Barraneche	6	Junio	2023-08-06T00:00:00	2024-11-06T21:00:00	2	Temperatura media	16.1
30506	7	Sololá	701	Sololá	3	Barraneche	6	Junio	2023-08-06T00:00:00	2024-11-06T21:00:00	4	Temperatura máxima	16.3
30507	7	Sololá	701	Sololá	3	Barraneche	6	Junio	2023-08-06T00:00:00	2024-11-06T21:00:00	3	Temperatura mínima	15.1
30508	7	Sololá	701	Sololá	3	Barraneche	6	Junio	2023-08-06T00:00:00	2024-11-06T21:00:00	5	Humedad	71
30509	7	Sololá	701	Sololá	3	Barraneche	6	Junio	2023-08-06T00:00:00	2024-11-06T21:00:00	6	Velocidad del viento	8
30510	7	Sololá	701	Sololá	3	Barraneche	6	Junio	2023-08-06T00:00:00	2024-11-06T21:00:00	7	Dirección del viento	8.05
30511	7	Sololá	701	Sololá	3	Barraneche	6	Junio	2023-08-06T00:00:00	2024-11-06T21:00:00	1	Precipitación	0
30512	7	Sololá	701	Sololá	3	Barraneche	6	Junio	2023-08-06T00:00:00	2024-11-06T21:00:00	8	Radiación solar	0
30513	7	Sololá	701	Sololá	3	Barraneche	6	Junio	2023-08-06T00:00:00	2024-11-06T22:00:00	2	Temperatura media	14.6
30514	7	Sololá	701	Sololá	3	Barraneche	6	Junio	2023-08-06T00:00:00	2024-11-06T22:00:00	4	Temperatura máxima	16.1
30515	7	Sololá	701	Sololá	3	Barraneche	6	Junio	2023-08-06T00:00:00	2024-11-06T22:00:00	3	Temperatura mínima	14.6
30516	7	Sololá	701	Sololá	3	Barraneche	6	Junio	2023-08-06T00:00:00	2024-11-06T22:00:00	5	Humedad	74
30517	7	Sololá	701	Sololá	3	Barraneche	6	Junio	2023-08-06T00:00:00	2024-11-06T22:00:00	6	Velocidad del viento	6.4
30518	7	Sololá	701	Sololá	3	Barraneche	6	Junio	2023-08-06T00:00:00	2024-11-06T22:00:00	7	Dirección del viento	6.44
30519	7	Sololá	701	Sololá	3	Barraneche	6	Junio	2023-08-06T00:00:00	2024-11-06T22:00:00	1	Precipitación	0
30520	7	Sololá	701	Sololá	3	Barraneche	6	Junio	2023-08-06T00:00:00	2024-11-06T22:00:00	8	Radiación solar	0
30521	7	Sololá	701	Sololá	3	Barraneche	6	Junio	2023-08-06T00:00:00	2024-11-06T23:00:00	2	Temperatura media	13.7
30522	7	Sololá	701	Sololá	3	Barraneche	6	Junio	2023-08-06T00:00:00	2024-11-06T23:00:00	4	Temperatura máxima	14.6
30523	7	Sololá	701	Sololá	3	Barraneche	6	Junio	2023-08-06T00:00:00	2024-11-06T23:00:00	3	Temperatura mínima	13.7
30524	7	Sololá	701	Sololá	3	Barraneche	6	Junio	2023-08-06T00:00:00	2024-11-06T23:00:00	5	Humedad	73
30525	7	Sololá	701	Sololá	3	Barraneche	6	Junio	2023-08-06T00:00:00	2024-11-06T23:00:00	6	Velocidad del viento	6.4
30526	7	Sololá	701	Sololá	3	Barraneche	6	Junio	2023-08-06T00:00:00	2024-11-06T23:00:00	7	Dirección del viento	6.44
30527	7	Sololá	701	Sololá	3	Barraneche	6	Junio	2023-08-06T00:00:00	2024-11-06T23:00:00	1	Precipitación	0
30528	7	Sololá	701	Sololá	3	Barraneche	6	Junio	2023-08-06T00:00:00	2024-11-06T23:00:00	8	Radiación solar	0
30529	7	Sololá	701	Sololá	3	Barraneche	6	Junio	2023-09-06T00:00:00	2024-11-06T00:00:00	2	Temperatura media	13.9
30530	7	Sololá	701	Sololá	3	Barraneche	6	Junio	2023-09-06T00:00:00	2024-11-06T00:00:00	4	Temperatura máxima	14.3
30531	7	Sololá	701	Sololá	3	Barraneche	6	Junio	2023-09-06T00:00:00	2024-11-06T00:00:00	3	Temperatura mínima	13.6
30532	7	Sololá	701	Sololá	3	Barraneche	6	Junio	2023-09-06T00:00:00	2024-11-06T00:00:00	5	Humedad	73
30533	7	Sololá	701	Sololá	3	Barraneche	6	Junio	2023-09-06T00:00:00	2024-11-06T00:00:00	6	Velocidad del viento	3.2
30534	7	Sololá	701	Sololá	3	Barraneche	6	Junio	2023-09-06T00:00:00	2024-11-06T00:00:00	7	Dirección del viento	3.22
30535	7	Sololá	701	Sololá	3	Barraneche	6	Junio	2023-09-06T00:00:00	2024-11-06T00:00:00	1	Precipitación	0
30536	7	Sololá	701	Sololá	3	Barraneche	6	Junio	2023-09-06T00:00:00	2024-11-06T00:00:00	8	Radiación solar	0
30537	7	Sololá	701	Sololá	3	Barraneche	6	Junio	2023-09-06T00:00:00	2024-11-06T01:00:00	2	Temperatura media	12.9
30538	7	Sololá	701	Sololá	3	Barraneche	6	Junio	2023-09-06T00:00:00	2024-11-06T01:00:00	4	Temperatura máxima	13.9
30539	7	Sololá	701	Sololá	3	Barraneche	6	Junio	2023-09-06T00:00:00	2024-11-06T01:00:00	3	Temperatura mínima	12.9
30540	7	Sololá	701	Sololá	3	Barraneche	6	Junio	2023-09-06T00:00:00	2024-11-06T01:00:00	5	Humedad	73
30541	7	Sololá	701	Sololá	3	Barraneche	6	Junio	2023-09-06T00:00:00	2024-11-06T01:00:00	6	Velocidad del viento	3.2
30542	7	Sololá	701	Sololá	3	Barraneche	6	Junio	2023-09-06T00:00:00	2024-11-06T01:00:00	7	Dirección del viento	3.22
30543	7	Sololá	701	Sololá	3	Barraneche	6	Junio	2023-09-06T00:00:00	2024-11-06T01:00:00	1	Precipitación	0
30544	7	Sololá	701	Sololá	3	Barraneche	6	Junio	2023-09-06T00:00:00	2024-11-06T01:00:00	8	Radiación solar	0
30545	7	Sololá	701	Sololá	3	Barraneche	6	Junio	2023-09-06T00:00:00	2024-11-06T02:00:00	2	Temperatura media	13
30546	7	Sololá	701	Sololá	3	Barraneche	6	Junio	2023-09-06T00:00:00	2024-11-06T02:00:00	4	Temperatura máxima	13.6
30547	7	Sololá	701	Sololá	3	Barraneche	6	Junio	2023-09-06T00:00:00	2024-11-06T02:00:00	3	Temperatura mínima	12.7
30548	7	Sololá	701	Sololá	3	Barraneche	6	Junio	2023-09-06T00:00:00	2024-11-06T02:00:00	5	Humedad	71
30549	7	Sololá	701	Sololá	3	Barraneche	6	Junio	2023-09-06T00:00:00	2024-11-06T02:00:00	6	Velocidad del viento	3.2
30550	7	Sololá	701	Sololá	3	Barraneche	6	Junio	2023-09-06T00:00:00	2024-11-06T02:00:00	7	Dirección del viento	3.22
30551	7	Sololá	701	Sololá	3	Barraneche	6	Junio	2023-09-06T00:00:00	2024-11-06T02:00:00	1	Precipitación	0
30552	7	Sololá	701	Sololá	3	Barraneche	6	Junio	2023-09-06T00:00:00	2024-11-06T02:00:00	8	Radiación solar	0
30553	7	Sololá	701	Sololá	3	Barraneche	6	Junio	2023-09-06T00:00:00	2024-11-06T03:00:00	2	Temperatura media	12.5
30554	7	Sololá	701	Sololá	3	Barraneche	6	Junio	2023-09-06T00:00:00	2024-11-06T03:00:00	4	Temperatura máxima	13.3
30555	7	Sololá	701	Sololá	3	Barraneche	6	Junio	2023-09-06T00:00:00	2024-11-06T03:00:00	3	Temperatura mínima	12.5
30556	7	Sololá	701	Sololá	3	Barraneche	6	Junio	2023-09-06T00:00:00	2024-11-06T03:00:00	5	Humedad	71
30557	7	Sololá	701	Sololá	3	Barraneche	6	Junio	2023-09-06T00:00:00	2024-11-06T03:00:00	6	Velocidad del viento	4.8
30558	7	Sololá	701	Sololá	3	Barraneche	6	Junio	2023-09-06T00:00:00	2024-11-06T03:00:00	7	Dirección del viento	4.83
30559	7	Sololá	701	Sololá	3	Barraneche	6	Junio	2023-09-06T00:00:00	2024-11-06T03:00:00	1	Precipitación	0
30560	7	Sololá	701	Sololá	3	Barraneche	6	Junio	2023-09-06T00:00:00	2024-11-06T03:00:00	8	Radiación solar	0
30561	7	Sololá	701	Sololá	3	Barraneche	6	Junio	2023-09-06T00:00:00	2024-11-06T04:00:00	2	Temperatura media	12.2
30562	7	Sololá	701	Sololá	3	Barraneche	6	Junio	2023-09-06T00:00:00	2024-11-06T04:00:00	4	Temperatura máxima	12.7
30563	7	Sololá	701	Sololá	3	Barraneche	6	Junio	2023-09-06T00:00:00	2024-11-06T04:00:00	3	Temperatura mínima	12.1
30564	7	Sololá	701	Sololá	3	Barraneche	6	Junio	2023-09-06T00:00:00	2024-11-06T04:00:00	5	Humedad	70
30565	7	Sololá	701	Sololá	3	Barraneche	6	Junio	2023-09-06T00:00:00	2024-11-06T04:00:00	6	Velocidad del viento	4.8
30566	7	Sololá	701	Sololá	3	Barraneche	6	Junio	2023-09-06T00:00:00	2024-11-06T04:00:00	7	Dirección del viento	4.83
30567	7	Sololá	701	Sololá	3	Barraneche	6	Junio	2023-09-06T00:00:00	2024-11-06T04:00:00	1	Precipitación	0
30568	7	Sololá	701	Sololá	3	Barraneche	6	Junio	2023-09-06T00:00:00	2024-11-06T04:00:00	8	Radiación solar	0
30569	7	Sololá	701	Sololá	3	Barraneche	6	Junio	2023-09-06T00:00:00	2024-11-06T05:00:00	2	Temperatura media	11.8
30570	7	Sololá	701	Sololá	3	Barraneche	6	Junio	2023-09-06T00:00:00	2024-11-06T05:00:00	4	Temperatura máxima	12.6
30571	7	Sololá	701	Sololá	3	Barraneche	6	Junio	2023-09-06T00:00:00	2024-11-06T05:00:00	3	Temperatura mínima	11.7
30572	7	Sololá	701	Sololá	3	Barraneche	6	Junio	2023-09-06T00:00:00	2024-11-06T05:00:00	5	Humedad	71
30573	7	Sololá	701	Sololá	3	Barraneche	6	Junio	2023-09-06T00:00:00	2024-11-06T05:00:00	6	Velocidad del viento	4.8
30574	7	Sololá	701	Sololá	3	Barraneche	6	Junio	2023-09-06T00:00:00	2024-11-06T05:00:00	7	Dirección del viento	4.83
30575	7	Sololá	701	Sololá	3	Barraneche	6	Junio	2023-09-06T00:00:00	2024-11-06T05:00:00	1	Precipitación	0
30576	7	Sololá	701	Sololá	3	Barraneche	6	Junio	2023-09-06T00:00:00	2024-11-06T05:00:00	8	Radiación solar	0
30577	7	Sololá	701	Sololá	3	Barraneche	6	Junio	2023-09-06T00:00:00	2024-11-06T06:00:00	2	Temperatura media	12.3
30578	7	Sololá	701	Sololá	3	Barraneche	6	Junio	2023-09-06T00:00:00	2024-11-06T06:00:00	4	Temperatura máxima	12.3
30579	7	Sololá	701	Sololá	3	Barraneche	6	Junio	2023-09-06T00:00:00	2024-11-06T06:00:00	3	Temperatura mínima	11.4
30580	7	Sololá	701	Sololá	3	Barraneche	6	Junio	2023-09-06T00:00:00	2024-11-06T06:00:00	5	Humedad	69
30581	7	Sololá	701	Sololá	3	Barraneche	6	Junio	2023-09-06T00:00:00	2024-11-06T06:00:00	6	Velocidad del viento	3.2
30582	7	Sololá	701	Sololá	3	Barraneche	6	Junio	2023-09-06T00:00:00	2024-11-06T06:00:00	7	Dirección del viento	3.22
30583	7	Sololá	701	Sololá	3	Barraneche	6	Junio	2023-09-06T00:00:00	2024-11-06T06:00:00	1	Precipitación	0
30584	7	Sololá	701	Sololá	3	Barraneche	6	Junio	2023-09-06T00:00:00	2024-11-06T06:00:00	8	Radiación solar	6
30585	7	Sololá	701	Sololá	3	Barraneche	6	Junio	2023-09-06T00:00:00	2024-11-06T07:00:00	2	Temperatura media	13.6
30586	7	Sololá	701	Sololá	3	Barraneche	6	Junio	2023-09-06T00:00:00	2024-11-06T07:00:00	4	Temperatura máxima	13.6
30587	7	Sololá	701	Sololá	3	Barraneche	6	Junio	2023-09-06T00:00:00	2024-11-06T07:00:00	3	Temperatura mínima	11.8
30588	7	Sololá	701	Sololá	3	Barraneche	6	Junio	2023-09-06T00:00:00	2024-11-06T07:00:00	5	Humedad	69
30589	7	Sololá	701	Sololá	3	Barraneche	6	Junio	2023-09-06T00:00:00	2024-11-06T07:00:00	6	Velocidad del viento	4.8
30590	7	Sololá	701	Sololá	3	Barraneche	6	Junio	2023-09-06T00:00:00	2024-11-06T07:00:00	7	Dirección del viento	4.83
30591	7	Sololá	701	Sololá	3	Barraneche	6	Junio	2023-09-06T00:00:00	2024-11-06T07:00:00	1	Precipitación	0
30592	7	Sololá	701	Sololá	3	Barraneche	6	Junio	2023-09-06T00:00:00	2024-11-06T07:00:00	8	Radiación solar	100
30593	7	Sololá	701	Sololá	3	Barraneche	6	Junio	2023-09-06T00:00:00	2024-11-06T08:00:00	2	Temperatura media	17
30594	7	Sololá	701	Sololá	3	Barraneche	6	Junio	2023-09-06T00:00:00	2024-11-06T08:00:00	4	Temperatura máxima	17.1
30595	7	Sololá	701	Sololá	3	Barraneche	6	Junio	2023-09-06T00:00:00	2024-11-06T08:00:00	3	Temperatura mínima	13.6
30596	7	Sololá	701	Sololá	3	Barraneche	6	Junio	2023-09-06T00:00:00	2024-11-06T08:00:00	5	Humedad	62
30597	7	Sololá	701	Sololá	3	Barraneche	6	Junio	2023-09-06T00:00:00	2024-11-06T08:00:00	6	Velocidad del viento	3.2
30598	7	Sololá	701	Sololá	3	Barraneche	6	Junio	2023-09-06T00:00:00	2024-11-06T08:00:00	7	Dirección del viento	3.22
30599	7	Sololá	701	Sololá	3	Barraneche	6	Junio	2023-09-06T00:00:00	2024-11-06T08:00:00	1	Precipitación	0
30600	7	Sololá	701	Sololá	3	Barraneche	6	Junio	2023-09-06T00:00:00	2024-11-06T08:00:00	8	Radiación solar	347
30601	7	Sololá	701	Sololá	3	Barraneche	6	Junio	2023-09-06T00:00:00	2024-11-06T09:00:00	2	Temperatura media	19.3
30602	7	Sololá	701	Sololá	3	Barraneche	6	Junio	2023-09-06T00:00:00	2024-11-06T09:00:00	4	Temperatura máxima	19.3
30603	7	Sololá	701	Sololá	3	Barraneche	6	Junio	2023-09-06T00:00:00	2024-11-06T09:00:00	3	Temperatura mínima	17.1
30604	7	Sololá	701	Sololá	3	Barraneche	6	Junio	2023-09-06T00:00:00	2024-11-06T09:00:00	5	Humedad	58
30605	7	Sololá	701	Sololá	3	Barraneche	6	Junio	2023-09-06T00:00:00	2024-11-06T09:00:00	6	Velocidad del viento	3.2
30606	7	Sololá	701	Sololá	3	Barraneche	6	Junio	2023-09-06T00:00:00	2024-11-06T09:00:00	7	Dirección del viento	3.22
30607	7	Sololá	701	Sololá	3	Barraneche	6	Junio	2023-09-06T00:00:00	2024-11-06T09:00:00	1	Precipitación	0
30608	7	Sololá	701	Sololá	3	Barraneche	6	Junio	2023-09-06T00:00:00	2024-11-06T09:00:00	8	Radiación solar	587
30609	7	Sololá	701	Sololá	3	Barraneche	6	Junio	2023-09-06T00:00:00	2024-11-06T10:00:00	2	Temperatura media	19.7
30610	7	Sololá	701	Sololá	3	Barraneche	6	Junio	2023-09-06T00:00:00	2024-11-06T10:00:00	4	Temperatura máxima	19.8
30611	7	Sololá	701	Sololá	3	Barraneche	6	Junio	2023-09-06T00:00:00	2024-11-06T10:00:00	3	Temperatura mínima	19.2
30612	7	Sololá	701	Sololá	3	Barraneche	6	Junio	2023-09-06T00:00:00	2024-11-06T10:00:00	5	Humedad	62
30613	7	Sololá	701	Sololá	3	Barraneche	6	Junio	2023-09-06T00:00:00	2024-11-06T10:00:00	6	Velocidad del viento	8
30614	7	Sololá	701	Sololá	3	Barraneche	6	Junio	2023-09-06T00:00:00	2024-11-06T10:00:00	7	Dirección del viento	8.05
30615	7	Sololá	701	Sololá	3	Barraneche	6	Junio	2023-09-06T00:00:00	2024-11-06T10:00:00	1	Precipitación	0
30616	7	Sololá	701	Sololá	3	Barraneche	6	Junio	2023-09-06T00:00:00	2024-11-06T10:00:00	8	Radiación solar	745
30617	7	Sololá	701	Sololá	3	Barraneche	6	Junio	2023-09-06T00:00:00	2024-11-06T11:00:00	2	Temperatura media	20.2
30618	7	Sololá	701	Sololá	3	Barraneche	6	Junio	2023-09-06T00:00:00	2024-11-06T11:00:00	4	Temperatura máxima	20.6
30619	7	Sololá	701	Sololá	3	Barraneche	6	Junio	2023-09-06T00:00:00	2024-11-06T11:00:00	3	Temperatura mínima	19.7
30620	7	Sololá	701	Sololá	3	Barraneche	6	Junio	2023-09-06T00:00:00	2024-11-06T11:00:00	5	Humedad	62
30621	7	Sololá	701	Sololá	3	Barraneche	6	Junio	2023-09-06T00:00:00	2024-11-06T11:00:00	6	Velocidad del viento	12.9
30622	7	Sololá	701	Sololá	3	Barraneche	6	Junio	2023-09-06T00:00:00	2024-11-06T11:00:00	7	Dirección del viento	12.87
30623	7	Sololá	701	Sololá	3	Barraneche	6	Junio	2023-09-06T00:00:00	2024-11-06T11:00:00	1	Precipitación	0
30624	7	Sololá	701	Sololá	3	Barraneche	6	Junio	2023-09-06T00:00:00	2024-11-06T11:00:00	8	Radiación solar	951
30625	7	Sololá	701	Sololá	3	Barraneche	6	Junio	2023-09-06T00:00:00	2024-11-06T12:00:00	2	Temperatura media	19.9
30626	7	Sololá	701	Sololá	3	Barraneche	6	Junio	2023-09-06T00:00:00	2024-11-06T12:00:00	4	Temperatura máxima	20.7
30627	7	Sololá	701	Sololá	3	Barraneche	6	Junio	2023-09-06T00:00:00	2024-11-06T12:00:00	3	Temperatura mínima	19.8
30628	7	Sololá	701	Sololá	3	Barraneche	6	Junio	2023-09-06T00:00:00	2024-11-06T12:00:00	5	Humedad	67
30629	7	Sololá	701	Sololá	3	Barraneche	6	Junio	2023-09-06T00:00:00	2024-11-06T12:00:00	6	Velocidad del viento	14.5
30630	7	Sololá	701	Sololá	3	Barraneche	6	Junio	2023-09-06T00:00:00	2024-11-06T12:00:00	7	Dirección del viento	14.48
30631	7	Sololá	701	Sololá	3	Barraneche	6	Junio	2023-09-06T00:00:00	2024-11-06T12:00:00	1	Precipitación	0
30632	7	Sololá	701	Sololá	3	Barraneche	6	Junio	2023-09-06T00:00:00	2024-11-06T12:00:00	8	Radiación solar	1017
30633	7	Sololá	701	Sololá	3	Barraneche	6	Junio	2023-09-06T00:00:00	2024-11-06T13:00:00	2	Temperatura media	19.3
30634	7	Sololá	701	Sololá	3	Barraneche	6	Junio	2023-09-06T00:00:00	2024-11-06T13:00:00	4	Temperatura máxima	20
30635	7	Sololá	701	Sololá	3	Barraneche	6	Junio	2023-09-06T00:00:00	2024-11-06T13:00:00	3	Temperatura mínima	19.2
30636	7	Sololá	701	Sololá	3	Barraneche	6	Junio	2023-09-06T00:00:00	2024-11-06T13:00:00	5	Humedad	70
30637	7	Sololá	701	Sololá	3	Barraneche	6	Junio	2023-09-06T00:00:00	2024-11-06T13:00:00	6	Velocidad del viento	14.5
30638	7	Sololá	701	Sololá	3	Barraneche	6	Junio	2023-09-06T00:00:00	2024-11-06T13:00:00	7	Dirección del viento	14.48
30639	7	Sololá	701	Sololá	3	Barraneche	6	Junio	2023-09-06T00:00:00	2024-11-06T13:00:00	1	Precipitación	0
30640	7	Sololá	701	Sololá	3	Barraneche	6	Junio	2023-09-06T00:00:00	2024-11-06T13:00:00	8	Radiación solar	849
30641	7	Sololá	701	Sololá	3	Barraneche	6	Junio	2023-09-06T00:00:00	2024-11-06T14:00:00	2	Temperatura media	18.7
30642	7	Sololá	701	Sololá	3	Barraneche	6	Junio	2023-09-06T00:00:00	2024-11-06T14:00:00	4	Temperatura máxima	19.3
30643	7	Sololá	701	Sololá	3	Barraneche	6	Junio	2023-09-06T00:00:00	2024-11-06T14:00:00	3	Temperatura mínima	18.3
30644	7	Sololá	701	Sololá	3	Barraneche	6	Junio	2023-09-06T00:00:00	2024-11-06T14:00:00	5	Humedad	72
30645	7	Sololá	701	Sololá	3	Barraneche	6	Junio	2023-09-06T00:00:00	2024-11-06T14:00:00	6	Velocidad del viento	12.9
30646	7	Sololá	701	Sololá	3	Barraneche	6	Junio	2023-09-06T00:00:00	2024-11-06T14:00:00	7	Dirección del viento	12.87
30647	7	Sololá	701	Sololá	3	Barraneche	6	Junio	2023-09-06T00:00:00	2024-11-06T14:00:00	1	Precipitación	0
30648	7	Sololá	701	Sololá	3	Barraneche	6	Junio	2023-09-06T00:00:00	2024-11-06T14:00:00	8	Radiación solar	523
30649	7	Sololá	701	Sololá	3	Barraneche	6	Junio	2023-09-06T00:00:00	2024-11-06T15:00:00	2	Temperatura media	18.5
30650	7	Sololá	701	Sololá	3	Barraneche	6	Junio	2023-09-06T00:00:00	2024-11-06T15:00:00	4	Temperatura máxima	18.8
30651	7	Sololá	701	Sololá	3	Barraneche	6	Junio	2023-09-06T00:00:00	2024-11-06T15:00:00	3	Temperatura mínima	18.4
30652	7	Sololá	701	Sololá	3	Barraneche	6	Junio	2023-09-06T00:00:00	2024-11-06T15:00:00	5	Humedad	71
30653	7	Sololá	701	Sololá	3	Barraneche	6	Junio	2023-09-06T00:00:00	2024-11-06T15:00:00	6	Velocidad del viento	9.7
30654	7	Sololá	701	Sololá	3	Barraneche	6	Junio	2023-09-06T00:00:00	2024-11-06T15:00:00	7	Dirección del viento	9.66
30655	7	Sololá	701	Sololá	3	Barraneche	6	Junio	2023-09-06T00:00:00	2024-11-06T15:00:00	1	Precipitación	0
30656	7	Sololá	701	Sololá	3	Barraneche	6	Junio	2023-09-06T00:00:00	2024-11-06T15:00:00	8	Radiación solar	295
30657	7	Sololá	701	Sololá	3	Barraneche	6	Junio	2023-09-06T00:00:00	2024-11-06T16:00:00	2	Temperatura media	17.8
30658	7	Sololá	701	Sololá	3	Barraneche	6	Junio	2023-09-06T00:00:00	2024-11-06T16:00:00	4	Temperatura máxima	18.5
30659	7	Sololá	701	Sololá	3	Barraneche	6	Junio	2023-09-06T00:00:00	2024-11-06T16:00:00	3	Temperatura mínima	17.8
30660	7	Sololá	701	Sololá	3	Barraneche	6	Junio	2023-09-06T00:00:00	2024-11-06T16:00:00	5	Humedad	74
30661	7	Sololá	701	Sololá	3	Barraneche	6	Junio	2023-09-06T00:00:00	2024-11-06T16:00:00	6	Velocidad del viento	8
30662	7	Sololá	701	Sololá	3	Barraneche	6	Junio	2023-09-06T00:00:00	2024-11-06T16:00:00	7	Dirección del viento	8.05
30663	7	Sololá	701	Sololá	3	Barraneche	6	Junio	2023-09-06T00:00:00	2024-11-06T16:00:00	1	Precipitación	0
30664	7	Sololá	701	Sololá	3	Barraneche	6	Junio	2023-09-06T00:00:00	2024-11-06T16:00:00	8	Radiación solar	255
30665	7	Sololá	701	Sololá	3	Barraneche	6	Junio	2023-09-06T00:00:00	2024-11-06T17:00:00	2	Temperatura media	17.4
30666	7	Sololá	701	Sololá	3	Barraneche	6	Junio	2023-09-06T00:00:00	2024-11-06T17:00:00	4	Temperatura máxima	17.9
30667	7	Sololá	701	Sololá	3	Barraneche	6	Junio	2023-09-06T00:00:00	2024-11-06T17:00:00	3	Temperatura mínima	17.2
30668	7	Sololá	701	Sololá	3	Barraneche	6	Junio	2023-09-06T00:00:00	2024-11-06T17:00:00	5	Humedad	73
30669	7	Sololá	701	Sololá	3	Barraneche	6	Junio	2023-09-06T00:00:00	2024-11-06T17:00:00	6	Velocidad del viento	6.4
30670	7	Sololá	701	Sololá	3	Barraneche	6	Junio	2023-09-06T00:00:00	2024-11-06T17:00:00	7	Dirección del viento	6.44
30671	7	Sololá	701	Sololá	3	Barraneche	6	Junio	2023-09-06T00:00:00	2024-11-06T17:00:00	1	Precipitación	0
30672	7	Sololá	701	Sololá	3	Barraneche	6	Junio	2023-09-06T00:00:00	2024-11-06T17:00:00	8	Radiación solar	148
30673	7	Sololá	701	Sololá	3	Barraneche	6	Junio	2023-09-06T00:00:00	2024-11-06T18:00:00	2	Temperatura media	16.4
30674	7	Sololá	701	Sololá	3	Barraneche	6	Junio	2023-09-06T00:00:00	2024-11-06T18:00:00	4	Temperatura máxima	17.9
30675	7	Sololá	701	Sololá	3	Barraneche	6	Junio	2023-09-06T00:00:00	2024-11-06T18:00:00	3	Temperatura mínima	16.4
30676	7	Sololá	701	Sololá	3	Barraneche	6	Junio	2023-09-06T00:00:00	2024-11-06T18:00:00	5	Humedad	77
30677	7	Sololá	701	Sololá	3	Barraneche	6	Junio	2023-09-06T00:00:00	2024-11-06T18:00:00	6	Velocidad del viento	6.4
30678	7	Sololá	701	Sololá	3	Barraneche	6	Junio	2023-09-06T00:00:00	2024-11-06T18:00:00	7	Dirección del viento	6.44
30679	7	Sololá	701	Sololá	3	Barraneche	6	Junio	2023-09-06T00:00:00	2024-11-06T18:00:00	1	Precipitación	0
30680	7	Sololá	701	Sololá	3	Barraneche	6	Junio	2023-09-06T00:00:00	2024-11-06T18:00:00	8	Radiación solar	92
30681	7	Sololá	701	Sololá	3	Barraneche	6	Junio	2023-09-06T00:00:00	2024-11-06T19:00:00	2	Temperatura media	16.4
30682	7	Sololá	701	Sololá	3	Barraneche	6	Junio	2023-09-06T00:00:00	2024-11-06T19:00:00	4	Temperatura máxima	16.4
30683	7	Sololá	701	Sololá	3	Barraneche	6	Junio	2023-09-06T00:00:00	2024-11-06T19:00:00	3	Temperatura mínima	16.1
30684	7	Sololá	701	Sololá	3	Barraneche	6	Junio	2023-09-06T00:00:00	2024-11-06T19:00:00	5	Humedad	77
30685	7	Sololá	701	Sololá	3	Barraneche	6	Junio	2023-09-06T00:00:00	2024-11-06T19:00:00	6	Velocidad del viento	3.2
30686	7	Sololá	701	Sololá	3	Barraneche	6	Junio	2023-09-06T00:00:00	2024-11-06T19:00:00	7	Dirección del viento	3.22
30687	7	Sololá	701	Sololá	3	Barraneche	6	Junio	2023-09-06T00:00:00	2024-11-06T19:00:00	1	Precipitación	0
30688	7	Sololá	701	Sololá	3	Barraneche	6	Junio	2023-09-06T00:00:00	2024-11-06T19:00:00	8	Radiación solar	0
30689	7	Sololá	701	Sololá	3	Barraneche	6	Junio	2023-09-06T00:00:00	2024-11-06T20:00:00	2	Temperatura media	15.9
30690	7	Sololá	701	Sololá	3	Barraneche	6	Junio	2023-09-06T00:00:00	2024-11-06T20:00:00	4	Temperatura máxima	16.4
30691	7	Sololá	701	Sololá	3	Barraneche	6	Junio	2023-09-06T00:00:00	2024-11-06T20:00:00	3	Temperatura mínima	15.6
30692	7	Sololá	701	Sololá	3	Barraneche	6	Junio	2023-09-06T00:00:00	2024-11-06T20:00:00	5	Humedad	71
30693	7	Sololá	701	Sololá	3	Barraneche	6	Junio	2023-09-06T00:00:00	2024-11-06T20:00:00	6	Velocidad del viento	3.2
30694	7	Sololá	701	Sololá	3	Barraneche	6	Junio	2023-09-06T00:00:00	2024-11-06T20:00:00	7	Dirección del viento	3.22
30695	7	Sololá	701	Sololá	3	Barraneche	6	Junio	2023-09-06T00:00:00	2024-11-06T20:00:00	1	Precipitación	0
30696	7	Sololá	701	Sololá	3	Barraneche	6	Junio	2023-09-06T00:00:00	2024-11-06T20:00:00	8	Radiación solar	0
30697	7	Sololá	701	Sololá	3	Barraneche	6	Junio	2023-09-06T00:00:00	2024-11-06T21:00:00	2	Temperatura media	15.4
30698	7	Sololá	701	Sololá	3	Barraneche	6	Junio	2023-09-06T00:00:00	2024-11-06T21:00:00	4	Temperatura máxima	16.2
30699	7	Sololá	701	Sololá	3	Barraneche	6	Junio	2023-09-06T00:00:00	2024-11-06T21:00:00	3	Temperatura mínima	15.3
30700	7	Sololá	701	Sololá	3	Barraneche	6	Junio	2023-09-06T00:00:00	2024-11-06T21:00:00	5	Humedad	78
30701	7	Sololá	701	Sololá	3	Barraneche	6	Junio	2023-09-06T00:00:00	2024-11-06T21:00:00	6	Velocidad del viento	1.6
30702	7	Sololá	701	Sololá	3	Barraneche	6	Junio	2023-09-06T00:00:00	2024-11-06T21:00:00	7	Dirección del viento	1.61
30703	7	Sololá	701	Sololá	3	Barraneche	6	Junio	2023-09-06T00:00:00	2024-11-06T21:00:00	1	Precipitación	0
30704	7	Sololá	701	Sololá	3	Barraneche	6	Junio	2023-09-06T00:00:00	2024-11-06T21:00:00	8	Radiación solar	0
30705	7	Sololá	701	Sololá	3	Barraneche	6	Junio	2023-09-06T00:00:00	2024-11-06T22:00:00	2	Temperatura media	15.3
30706	7	Sololá	701	Sololá	3	Barraneche	6	Junio	2023-09-06T00:00:00	2024-11-06T22:00:00	4	Temperatura máxima	15.6
30707	7	Sololá	701	Sololá	3	Barraneche	6	Junio	2023-09-06T00:00:00	2024-11-06T22:00:00	3	Temperatura mínima	15.3
30708	7	Sololá	701	Sololá	3	Barraneche	6	Junio	2023-09-06T00:00:00	2024-11-06T22:00:00	5	Humedad	81
30709	7	Sololá	701	Sololá	3	Barraneche	6	Junio	2023-09-06T00:00:00	2024-11-06T22:00:00	6	Velocidad del viento	3.2
30710	7	Sololá	701	Sololá	3	Barraneche	6	Junio	2023-09-06T00:00:00	2024-11-06T22:00:00	7	Dirección del viento	3.22
30711	7	Sololá	701	Sololá	3	Barraneche	6	Junio	2023-09-06T00:00:00	2024-11-06T22:00:00	1	Precipitación	0
30712	7	Sololá	701	Sololá	3	Barraneche	6	Junio	2023-09-06T00:00:00	2024-11-06T22:00:00	8	Radiación solar	0
30713	7	Sololá	701	Sololá	3	Barraneche	6	Junio	2023-09-06T00:00:00	2024-11-06T23:00:00	2	Temperatura media	16.2
30714	7	Sololá	701	Sololá	3	Barraneche	6	Junio	2023-09-06T00:00:00	2024-11-06T23:00:00	4	Temperatura máxima	16.5
30715	7	Sololá	701	Sololá	3	Barraneche	6	Junio	2023-09-06T00:00:00	2024-11-06T23:00:00	3	Temperatura mínima	15.2
30716	7	Sololá	701	Sololá	3	Barraneche	6	Junio	2023-09-06T00:00:00	2024-11-06T23:00:00	5	Humedad	68
30717	7	Sololá	701	Sololá	3	Barraneche	6	Junio	2023-09-06T00:00:00	2024-11-06T23:00:00	6	Velocidad del viento	6.4
30718	7	Sololá	701	Sololá	3	Barraneche	6	Junio	2023-09-06T00:00:00	2024-11-06T23:00:00	7	Dirección del viento	6.44
30719	7	Sololá	701	Sololá	3	Barraneche	6	Junio	2023-09-06T00:00:00	2024-11-06T23:00:00	1	Precipitación	0
30720	7	Sololá	701	Sololá	3	Barraneche	6	Junio	2023-09-06T00:00:00	2024-11-06T23:00:00	8	Radiación solar	0
30721	7	Sololá	701	Sololá	3	Barraneche	6	Junio	2023-10-06T00:00:00	2024-11-06T00:00:00	2	Temperatura media	14.5
30722	7	Sololá	701	Sololá	3	Barraneche	6	Junio	2023-10-06T00:00:00	2024-11-06T00:00:00	4	Temperatura máxima	16.2
30723	7	Sololá	701	Sololá	3	Barraneche	6	Junio	2023-10-06T00:00:00	2024-11-06T00:00:00	3	Temperatura mínima	14.5
30724	7	Sololá	701	Sololá	3	Barraneche	6	Junio	2023-10-06T00:00:00	2024-11-06T00:00:00	5	Humedad	74
30725	7	Sololá	701	Sololá	3	Barraneche	6	Junio	2023-10-06T00:00:00	2024-11-06T00:00:00	6	Velocidad del viento	1.6
30726	7	Sololá	701	Sololá	3	Barraneche	6	Junio	2023-10-06T00:00:00	2024-11-06T00:00:00	7	Dirección del viento	1.61
30727	7	Sololá	701	Sololá	3	Barraneche	6	Junio	2023-10-06T00:00:00	2024-11-06T00:00:00	1	Precipitación	0
30728	7	Sololá	701	Sololá	3	Barraneche	6	Junio	2023-10-06T00:00:00	2024-11-06T00:00:00	8	Radiación solar	0
30729	7	Sololá	701	Sololá	3	Barraneche	6	Junio	2023-10-06T00:00:00	2024-11-06T01:00:00	2	Temperatura media	15.2
30730	7	Sololá	701	Sololá	3	Barraneche	6	Junio	2023-10-06T00:00:00	2024-11-06T01:00:00	4	Temperatura máxima	15.3
30731	7	Sololá	701	Sololá	3	Barraneche	6	Junio	2023-10-06T00:00:00	2024-11-06T01:00:00	3	Temperatura mínima	14
30732	7	Sololá	701	Sololá	3	Barraneche	6	Junio	2023-10-06T00:00:00	2024-11-06T01:00:00	5	Humedad	69
30733	7	Sololá	701	Sololá	3	Barraneche	6	Junio	2023-10-06T00:00:00	2024-11-06T01:00:00	6	Velocidad del viento	3.2
30734	7	Sololá	701	Sololá	3	Barraneche	6	Junio	2023-10-06T00:00:00	2024-11-06T01:00:00	7	Dirección del viento	3.22
30735	7	Sololá	701	Sololá	3	Barraneche	6	Junio	2023-10-06T00:00:00	2024-11-06T01:00:00	1	Precipitación	0
30736	7	Sololá	701	Sololá	3	Barraneche	6	Junio	2023-10-06T00:00:00	2024-11-06T01:00:00	8	Radiación solar	0
30737	7	Sololá	701	Sololá	3	Barraneche	6	Junio	2023-10-06T00:00:00	2024-11-06T02:00:00	2	Temperatura media	13.3
30738	7	Sololá	701	Sololá	3	Barraneche	6	Junio	2023-10-06T00:00:00	2024-11-06T02:00:00	4	Temperatura máxima	15.6
30739	7	Sololá	701	Sololá	3	Barraneche	6	Junio	2023-10-06T00:00:00	2024-11-06T02:00:00	3	Temperatura mínima	13.3
30740	7	Sololá	701	Sololá	3	Barraneche	6	Junio	2023-10-06T00:00:00	2024-11-06T02:00:00	5	Humedad	73
30741	7	Sololá	701	Sololá	3	Barraneche	6	Junio	2023-10-06T00:00:00	2024-11-06T02:00:00	6	Velocidad del viento	4.8
30742	7	Sololá	701	Sololá	3	Barraneche	6	Junio	2023-10-06T00:00:00	2024-11-06T02:00:00	7	Dirección del viento	4.83
30743	7	Sololá	701	Sololá	3	Barraneche	6	Junio	2023-10-06T00:00:00	2024-11-06T02:00:00	1	Precipitación	0
30744	7	Sololá	701	Sololá	3	Barraneche	6	Junio	2023-10-06T00:00:00	2024-11-06T02:00:00	8	Radiación solar	0
30745	7	Sololá	701	Sololá	3	Barraneche	6	Junio	2023-10-06T00:00:00	2024-11-06T03:00:00	2	Temperatura media	12.4
30746	7	Sololá	701	Sololá	3	Barraneche	6	Junio	2023-10-06T00:00:00	2024-11-06T03:00:00	4	Temperatura máxima	13.3
30747	7	Sololá	701	Sololá	3	Barraneche	6	Junio	2023-10-06T00:00:00	2024-11-06T03:00:00	3	Temperatura mínima	12.3
30748	7	Sololá	701	Sololá	3	Barraneche	6	Junio	2023-10-06T00:00:00	2024-11-06T03:00:00	5	Humedad	72
30749	7	Sololá	701	Sololá	3	Barraneche	6	Junio	2023-10-06T00:00:00	2024-11-06T03:00:00	6	Velocidad del viento	4.8
30750	7	Sololá	701	Sololá	3	Barraneche	6	Junio	2023-10-06T00:00:00	2024-11-06T03:00:00	7	Dirección del viento	4.83
30751	7	Sololá	701	Sololá	3	Barraneche	6	Junio	2023-10-06T00:00:00	2024-11-06T03:00:00	1	Precipitación	0
30752	7	Sololá	701	Sololá	3	Barraneche	6	Junio	2023-10-06T00:00:00	2024-11-06T03:00:00	8	Radiación solar	0
30753	7	Sololá	701	Sololá	3	Barraneche	6	Junio	2023-10-06T00:00:00	2024-11-06T04:00:00	2	Temperatura media	11.6
30754	7	Sololá	701	Sololá	3	Barraneche	6	Junio	2023-10-06T00:00:00	2024-11-06T04:00:00	4	Temperatura máxima	12.5
30755	7	Sololá	701	Sololá	3	Barraneche	6	Junio	2023-10-06T00:00:00	2024-11-06T04:00:00	3	Temperatura mínima	11.6
30756	7	Sololá	701	Sololá	3	Barraneche	6	Junio	2023-10-06T00:00:00	2024-11-06T04:00:00	5	Humedad	75
30757	7	Sololá	701	Sololá	3	Barraneche	6	Junio	2023-10-06T00:00:00	2024-11-06T04:00:00	6	Velocidad del viento	4.8
30758	7	Sololá	701	Sololá	3	Barraneche	6	Junio	2023-10-06T00:00:00	2024-11-06T04:00:00	7	Dirección del viento	4.83
30759	7	Sololá	701	Sololá	3	Barraneche	6	Junio	2023-10-06T00:00:00	2024-11-06T04:00:00	1	Precipitación	0
30760	7	Sololá	701	Sololá	3	Barraneche	6	Junio	2023-10-06T00:00:00	2024-11-06T04:00:00	8	Radiación solar	0
30761	7	Sololá	701	Sololá	3	Barraneche	6	Junio	2023-10-06T00:00:00	2024-11-06T05:00:00	2	Temperatura media	11.3
30762	7	Sololá	701	Sololá	3	Barraneche	6	Junio	2023-10-06T00:00:00	2024-11-06T05:00:00	4	Temperatura máxima	11.8
30763	7	Sololá	701	Sololá	3	Barraneche	6	Junio	2023-10-06T00:00:00	2024-11-06T05:00:00	3	Temperatura mínima	11.3
30764	7	Sololá	701	Sololá	3	Barraneche	6	Junio	2023-10-06T00:00:00	2024-11-06T05:00:00	5	Humedad	72
30765	7	Sololá	701	Sololá	3	Barraneche	6	Junio	2023-10-06T00:00:00	2024-11-06T05:00:00	6	Velocidad del viento	4.8
30766	7	Sololá	701	Sololá	3	Barraneche	6	Junio	2023-10-06T00:00:00	2024-11-06T05:00:00	7	Dirección del viento	4.83
30767	7	Sololá	701	Sololá	3	Barraneche	6	Junio	2023-10-06T00:00:00	2024-11-06T05:00:00	1	Precipitación	0
30768	7	Sololá	701	Sololá	3	Barraneche	6	Junio	2023-10-06T00:00:00	2024-11-06T05:00:00	8	Radiación solar	0
30769	7	Sololá	701	Sololá	3	Barraneche	6	Junio	2023-10-06T00:00:00	2024-11-06T06:00:00	2	Temperatura media	12.4
30770	7	Sololá	701	Sololá	3	Barraneche	6	Junio	2023-10-06T00:00:00	2024-11-06T06:00:00	4	Temperatura máxima	12.4
30771	7	Sololá	701	Sololá	3	Barraneche	6	Junio	2023-10-06T00:00:00	2024-11-06T06:00:00	3	Temperatura mínima	11.2
30772	7	Sololá	701	Sololá	3	Barraneche	6	Junio	2023-10-06T00:00:00	2024-11-06T06:00:00	5	Humedad	67
30773	7	Sololá	701	Sololá	3	Barraneche	6	Junio	2023-10-06T00:00:00	2024-11-06T06:00:00	6	Velocidad del viento	6.4
30774	7	Sololá	701	Sololá	3	Barraneche	6	Junio	2023-10-06T00:00:00	2024-11-06T06:00:00	7	Dirección del viento	6.44
30775	7	Sololá	701	Sololá	3	Barraneche	6	Junio	2023-10-06T00:00:00	2024-11-06T06:00:00	1	Precipitación	0
30776	7	Sololá	701	Sololá	3	Barraneche	6	Junio	2023-10-06T00:00:00	2024-11-06T06:00:00	8	Radiación solar	8
30777	7	Sololá	701	Sololá	3	Barraneche	6	Junio	2023-10-06T00:00:00	2024-11-06T07:00:00	2	Temperatura media	13.4
30778	7	Sololá	701	Sololá	3	Barraneche	6	Junio	2023-10-06T00:00:00	2024-11-06T07:00:00	4	Temperatura máxima	13.4
30779	7	Sololá	701	Sololá	3	Barraneche	6	Junio	2023-10-06T00:00:00	2024-11-06T07:00:00	3	Temperatura mínima	12.1
30780	7	Sololá	701	Sololá	3	Barraneche	6	Junio	2023-10-06T00:00:00	2024-11-06T07:00:00	5	Humedad	65
30781	7	Sololá	701	Sololá	3	Barraneche	6	Junio	2023-10-06T00:00:00	2024-11-06T07:00:00	6	Velocidad del viento	6.4
30782	7	Sololá	701	Sololá	3	Barraneche	6	Junio	2023-10-06T00:00:00	2024-11-06T07:00:00	7	Dirección del viento	6.44
30783	7	Sololá	701	Sololá	3	Barraneche	6	Junio	2023-10-06T00:00:00	2024-11-06T07:00:00	1	Precipitación	0
30784	7	Sololá	701	Sololá	3	Barraneche	6	Junio	2023-10-06T00:00:00	2024-11-06T07:00:00	8	Radiación solar	115
30785	7	Sololá	701	Sololá	3	Barraneche	6	Junio	2023-10-06T00:00:00	2024-11-06T08:00:00	2	Temperatura media	17.2
30786	7	Sololá	701	Sololá	3	Barraneche	6	Junio	2023-10-06T00:00:00	2024-11-06T08:00:00	4	Temperatura máxima	17.3
30787	7	Sololá	701	Sololá	3	Barraneche	6	Junio	2023-10-06T00:00:00	2024-11-06T08:00:00	3	Temperatura mínima	13.4
30788	7	Sololá	701	Sololá	3	Barraneche	6	Junio	2023-10-06T00:00:00	2024-11-06T08:00:00	5	Humedad	57
30789	7	Sololá	701	Sololá	3	Barraneche	6	Junio	2023-10-06T00:00:00	2024-11-06T08:00:00	6	Velocidad del viento	3.2
30790	7	Sololá	701	Sololá	3	Barraneche	6	Junio	2023-10-06T00:00:00	2024-11-06T08:00:00	7	Dirección del viento	3.22
30791	7	Sololá	701	Sololá	3	Barraneche	6	Junio	2023-10-06T00:00:00	2024-11-06T08:00:00	1	Precipitación	0
30792	7	Sololá	701	Sololá	3	Barraneche	6	Junio	2023-10-06T00:00:00	2024-11-06T08:00:00	8	Radiación solar	352
30793	7	Sololá	701	Sololá	3	Barraneche	6	Junio	2023-10-06T00:00:00	2024-11-06T09:00:00	2	Temperatura media	18.8
30794	7	Sololá	701	Sololá	3	Barraneche	6	Junio	2023-10-06T00:00:00	2024-11-06T09:00:00	4	Temperatura máxima	18.8
30795	7	Sololá	701	Sololá	3	Barraneche	6	Junio	2023-10-06T00:00:00	2024-11-06T09:00:00	3	Temperatura mínima	17
30796	7	Sololá	701	Sololá	3	Barraneche	6	Junio	2023-10-06T00:00:00	2024-11-06T09:00:00	5	Humedad	52
30797	7	Sololá	701	Sololá	3	Barraneche	6	Junio	2023-10-06T00:00:00	2024-11-06T09:00:00	6	Velocidad del viento	3.2
30798	7	Sololá	701	Sololá	3	Barraneche	6	Junio	2023-10-06T00:00:00	2024-11-06T09:00:00	7	Dirección del viento	3.22
30799	7	Sololá	701	Sololá	3	Barraneche	6	Junio	2023-10-06T00:00:00	2024-11-06T09:00:00	1	Precipitación	0
30800	7	Sololá	701	Sololá	3	Barraneche	6	Junio	2023-10-06T00:00:00	2024-11-06T09:00:00	8	Radiación solar	493
30801	7	Sololá	701	Sololá	3	Barraneche	6	Junio	2023-10-06T00:00:00	2024-11-06T10:00:00	2	Temperatura media	19.2
30802	7	Sololá	701	Sololá	3	Barraneche	6	Junio	2023-10-06T00:00:00	2024-11-06T10:00:00	4	Temperatura máxima	20.3
30803	7	Sololá	701	Sololá	3	Barraneche	6	Junio	2023-10-06T00:00:00	2024-11-06T10:00:00	3	Temperatura mínima	18.8
30804	7	Sololá	701	Sololá	3	Barraneche	6	Junio	2023-10-06T00:00:00	2024-11-06T10:00:00	5	Humedad	55
30805	7	Sololá	701	Sololá	3	Barraneche	6	Junio	2023-10-06T00:00:00	2024-11-06T10:00:00	6	Velocidad del viento	11.3
30806	7	Sololá	701	Sololá	3	Barraneche	6	Junio	2023-10-06T00:00:00	2024-11-06T10:00:00	7	Dirección del viento	11.27
30807	7	Sololá	701	Sololá	3	Barraneche	6	Junio	2023-10-06T00:00:00	2024-11-06T10:00:00	1	Precipitación	0
30808	7	Sololá	701	Sololá	3	Barraneche	6	Junio	2023-10-06T00:00:00	2024-11-06T10:00:00	8	Radiación solar	757
30809	7	Sololá	701	Sololá	3	Barraneche	6	Junio	2023-10-06T00:00:00	2024-11-06T11:00:00	2	Temperatura media	18.8
30810	7	Sololá	701	Sololá	3	Barraneche	6	Junio	2023-10-06T00:00:00	2024-11-06T11:00:00	4	Temperatura máxima	19.7
30811	7	Sololá	701	Sololá	3	Barraneche	6	Junio	2023-10-06T00:00:00	2024-11-06T11:00:00	3	Temperatura mínima	18.7
30812	7	Sololá	701	Sololá	3	Barraneche	6	Junio	2023-10-06T00:00:00	2024-11-06T11:00:00	5	Humedad	64
30813	7	Sololá	701	Sololá	3	Barraneche	6	Junio	2023-10-06T00:00:00	2024-11-06T11:00:00	6	Velocidad del viento	11.3
30814	7	Sololá	701	Sololá	3	Barraneche	6	Junio	2023-10-06T00:00:00	2024-11-06T11:00:00	7	Dirección del viento	11.27
30815	7	Sololá	701	Sololá	3	Barraneche	6	Junio	2023-10-06T00:00:00	2024-11-06T11:00:00	1	Precipitación	0
30816	7	Sololá	701	Sololá	3	Barraneche	6	Junio	2023-10-06T00:00:00	2024-11-06T11:00:00	8	Radiación solar	813
30817	7	Sololá	701	Sololá	3	Barraneche	6	Junio	2023-10-06T00:00:00	2024-11-06T12:00:00	2	Temperatura media	16.8
30818	7	Sololá	701	Sololá	3	Barraneche	6	Junio	2023-10-06T00:00:00	2024-11-06T12:00:00	4	Temperatura máxima	18.8
30819	7	Sololá	701	Sololá	3	Barraneche	6	Junio	2023-10-06T00:00:00	2024-11-06T12:00:00	3	Temperatura mínima	16.6
30820	7	Sololá	701	Sololá	3	Barraneche	6	Junio	2023-10-06T00:00:00	2024-11-06T12:00:00	5	Humedad	68
30821	7	Sololá	701	Sololá	3	Barraneche	6	Junio	2023-10-06T00:00:00	2024-11-06T12:00:00	6	Velocidad del viento	11.3
30822	7	Sololá	701	Sololá	3	Barraneche	6	Junio	2023-10-06T00:00:00	2024-11-06T12:00:00	7	Dirección del viento	11.27
30823	7	Sololá	701	Sololá	3	Barraneche	6	Junio	2023-10-06T00:00:00	2024-11-06T12:00:00	1	Precipitación	0
30824	7	Sololá	701	Sololá	3	Barraneche	6	Junio	2023-10-06T00:00:00	2024-11-06T12:00:00	8	Radiación solar	449
30825	7	Sololá	701	Sololá	3	Barraneche	6	Junio	2023-10-06T00:00:00	2024-11-06T13:00:00	2	Temperatura media	16.7
30826	7	Sololá	701	Sololá	3	Barraneche	6	Junio	2023-10-06T00:00:00	2024-11-06T13:00:00	4	Temperatura máxima	17.3
30827	7	Sololá	701	Sololá	3	Barraneche	6	Junio	2023-10-06T00:00:00	2024-11-06T13:00:00	3	Temperatura mínima	16.6
30828	7	Sololá	701	Sololá	3	Barraneche	6	Junio	2023-10-06T00:00:00	2024-11-06T13:00:00	5	Humedad	70
30829	7	Sololá	701	Sololá	3	Barraneche	6	Junio	2023-10-06T00:00:00	2024-11-06T13:00:00	6	Velocidad del viento	8
30830	7	Sololá	701	Sololá	3	Barraneche	6	Junio	2023-10-06T00:00:00	2024-11-06T13:00:00	7	Dirección del viento	8.05
30831	7	Sololá	701	Sololá	3	Barraneche	6	Junio	2023-10-06T00:00:00	2024-11-06T13:00:00	1	Precipitación	0
30832	7	Sololá	701	Sololá	3	Barraneche	6	Junio	2023-10-06T00:00:00	2024-11-06T13:00:00	8	Radiación solar	278
30833	7	Sololá	701	Sololá	3	Barraneche	6	Junio	2023-10-06T00:00:00	2024-11-06T14:00:00	2	Temperatura media	18.7
30834	7	Sololá	701	Sololá	3	Barraneche	6	Junio	2023-10-06T00:00:00	2024-11-06T14:00:00	4	Temperatura máxima	18.9
30835	7	Sololá	701	Sololá	3	Barraneche	6	Junio	2023-10-06T00:00:00	2024-11-06T14:00:00	3	Temperatura mínima	16.7
30836	7	Sololá	701	Sololá	3	Barraneche	6	Junio	2023-10-06T00:00:00	2024-11-06T14:00:00	5	Humedad	64
30837	7	Sololá	701	Sololá	3	Barraneche	6	Junio	2023-10-06T00:00:00	2024-11-06T14:00:00	6	Velocidad del viento	4.8
30838	7	Sololá	701	Sololá	3	Barraneche	6	Junio	2023-10-06T00:00:00	2024-11-06T14:00:00	7	Dirección del viento	4.83
30839	7	Sololá	701	Sololá	3	Barraneche	6	Junio	2023-10-06T00:00:00	2024-11-06T14:00:00	1	Precipitación	0
30840	7	Sololá	701	Sololá	3	Barraneche	6	Junio	2023-10-06T00:00:00	2024-11-06T14:00:00	8	Radiación solar	430
30841	7	Sololá	701	Sololá	3	Barraneche	6	Junio	2023-10-06T00:00:00	2024-11-06T15:00:00	2	Temperatura media	17.3
30842	7	Sololá	701	Sololá	3	Barraneche	6	Junio	2023-10-06T00:00:00	2024-11-06T15:00:00	4	Temperatura máxima	18.8
30843	7	Sololá	701	Sololá	3	Barraneche	6	Junio	2023-10-06T00:00:00	2024-11-06T15:00:00	3	Temperatura mínima	17.3
30844	7	Sololá	701	Sololá	3	Barraneche	6	Junio	2023-10-06T00:00:00	2024-11-06T15:00:00	5	Humedad	69
30845	7	Sololá	701	Sololá	3	Barraneche	6	Junio	2023-10-06T00:00:00	2024-11-06T15:00:00	6	Velocidad del viento	9.7
30846	7	Sololá	701	Sololá	3	Barraneche	6	Junio	2023-10-06T00:00:00	2024-11-06T15:00:00	7	Dirección del viento	9.66
30847	7	Sololá	701	Sololá	3	Barraneche	6	Junio	2023-10-06T00:00:00	2024-11-06T15:00:00	1	Precipitación	0
30848	7	Sololá	701	Sololá	3	Barraneche	6	Junio	2023-10-06T00:00:00	2024-11-06T15:00:00	8	Radiación solar	279
30849	7	Sololá	701	Sololá	3	Barraneche	6	Junio	2023-10-06T00:00:00	2024-11-06T16:00:00	2	Temperatura media	15.6
30850	7	Sololá	701	Sololá	3	Barraneche	6	Junio	2023-10-06T00:00:00	2024-11-06T16:00:00	4	Temperatura máxima	17.5
30851	7	Sololá	701	Sololá	3	Barraneche	6	Junio	2023-10-06T00:00:00	2024-11-06T16:00:00	3	Temperatura mínima	15.6
30852	7	Sololá	701	Sololá	3	Barraneche	6	Junio	2023-10-06T00:00:00	2024-11-06T16:00:00	5	Humedad	79
30853	7	Sololá	701	Sololá	3	Barraneche	6	Junio	2023-10-06T00:00:00	2024-11-06T16:00:00	6	Velocidad del viento	8
30854	7	Sololá	701	Sololá	3	Barraneche	6	Junio	2023-10-06T00:00:00	2024-11-06T16:00:00	7	Dirección del viento	8.05
30855	7	Sololá	701	Sololá	3	Barraneche	6	Junio	2023-10-06T00:00:00	2024-11-06T16:00:00	1	Precipitación	0
30856	7	Sololá	701	Sololá	3	Barraneche	6	Junio	2023-10-06T00:00:00	2024-11-06T16:00:00	8	Radiación solar	106
30857	7	Sololá	701	Sololá	3	Barraneche	6	Junio	2023-10-06T00:00:00	2024-11-06T17:00:00	2	Temperatura media	14.9
30858	7	Sololá	701	Sololá	3	Barraneche	6	Junio	2023-10-06T00:00:00	2024-11-06T17:00:00	4	Temperatura máxima	15.7
30859	7	Sololá	701	Sololá	3	Barraneche	6	Junio	2023-10-06T00:00:00	2024-11-06T17:00:00	3	Temperatura mínima	14.8
30860	7	Sololá	701	Sololá	3	Barraneche	6	Junio	2023-10-06T00:00:00	2024-11-06T17:00:00	5	Humedad	84
30861	7	Sololá	701	Sololá	3	Barraneche	6	Junio	2023-10-06T00:00:00	2024-11-06T17:00:00	6	Velocidad del viento	6.4
30862	7	Sololá	701	Sololá	3	Barraneche	6	Junio	2023-10-06T00:00:00	2024-11-06T17:00:00	7	Dirección del viento	6.44
30863	7	Sololá	701	Sololá	3	Barraneche	6	Junio	2023-10-06T00:00:00	2024-11-06T17:00:00	1	Precipitación	0
30864	7	Sololá	701	Sololá	3	Barraneche	6	Junio	2023-10-06T00:00:00	2024-11-06T17:00:00	8	Radiación solar	53
30865	7	Sololá	701	Sololá	3	Barraneche	6	Junio	2023-10-06T00:00:00	2024-11-06T18:00:00	2	Temperatura media	15.9
30866	7	Sololá	701	Sololá	3	Barraneche	6	Junio	2023-10-06T00:00:00	2024-11-06T18:00:00	4	Temperatura máxima	15.9
30867	7	Sololá	701	Sololá	3	Barraneche	6	Junio	2023-10-06T00:00:00	2024-11-06T18:00:00	3	Temperatura mínima	14.8
30868	7	Sololá	701	Sololá	3	Barraneche	6	Junio	2023-10-06T00:00:00	2024-11-06T18:00:00	5	Humedad	72
30869	7	Sololá	701	Sololá	3	Barraneche	6	Junio	2023-10-06T00:00:00	2024-11-06T18:00:00	6	Velocidad del viento	4.8
30870	7	Sololá	701	Sololá	3	Barraneche	6	Junio	2023-10-06T00:00:00	2024-11-06T18:00:00	7	Dirección del viento	4.83
30871	7	Sololá	701	Sololá	3	Barraneche	6	Junio	2023-10-06T00:00:00	2024-11-06T18:00:00	1	Precipitación	0
30872	7	Sololá	701	Sololá	3	Barraneche	6	Junio	2023-10-06T00:00:00	2024-11-06T18:00:00	8	Radiación solar	58
30873	7	Sololá	701	Sololá	3	Barraneche	6	Junio	2023-10-06T00:00:00	2024-11-06T19:00:00	2	Temperatura media	15.4
30874	7	Sololá	701	Sololá	3	Barraneche	6	Junio	2023-10-06T00:00:00	2024-11-06T19:00:00	4	Temperatura máxima	16.6
30875	7	Sololá	701	Sololá	3	Barraneche	6	Junio	2023-10-06T00:00:00	2024-11-06T19:00:00	3	Temperatura mínima	15.3
30876	7	Sololá	701	Sololá	3	Barraneche	6	Junio	2023-10-06T00:00:00	2024-11-06T19:00:00	5	Humedad	75
30877	7	Sololá	701	Sololá	3	Barraneche	6	Junio	2023-10-06T00:00:00	2024-11-06T19:00:00	6	Velocidad del viento	3.2
30878	7	Sololá	701	Sololá	3	Barraneche	6	Junio	2023-10-06T00:00:00	2024-11-06T19:00:00	7	Dirección del viento	3.22
30879	7	Sololá	701	Sololá	3	Barraneche	6	Junio	2023-10-06T00:00:00	2024-11-06T19:00:00	1	Precipitación	0
30880	7	Sololá	701	Sololá	3	Barraneche	6	Junio	2023-10-06T00:00:00	2024-11-06T19:00:00	8	Radiación solar	0
30881	7	Sololá	701	Sololá	3	Barraneche	6	Junio	2023-10-06T00:00:00	2024-11-06T20:00:00	2	Temperatura media	14.4
30882	7	Sololá	701	Sololá	3	Barraneche	6	Junio	2023-10-06T00:00:00	2024-11-06T20:00:00	4	Temperatura máxima	15.4
30883	7	Sololá	701	Sololá	3	Barraneche	6	Junio	2023-10-06T00:00:00	2024-11-06T20:00:00	3	Temperatura mínima	14.4
30884	7	Sololá	701	Sololá	3	Barraneche	6	Junio	2023-10-06T00:00:00	2024-11-06T20:00:00	5	Humedad	74
30885	7	Sololá	701	Sololá	3	Barraneche	6	Junio	2023-10-06T00:00:00	2024-11-06T20:00:00	6	Velocidad del viento	3.2
30886	7	Sololá	701	Sololá	3	Barraneche	6	Junio	2023-10-06T00:00:00	2024-11-06T20:00:00	7	Dirección del viento	3.22
30887	7	Sololá	701	Sololá	3	Barraneche	6	Junio	2023-10-06T00:00:00	2024-11-06T20:00:00	1	Precipitación	0
30888	7	Sololá	701	Sololá	3	Barraneche	6	Junio	2023-10-06T00:00:00	2024-11-06T20:00:00	8	Radiación solar	0
30889	7	Sololá	701	Sololá	3	Barraneche	6	Junio	2023-10-06T00:00:00	2024-11-06T21:00:00	2	Temperatura media	15.7
30890	7	Sololá	701	Sololá	3	Barraneche	6	Junio	2023-10-06T00:00:00	2024-11-06T21:00:00	4	Temperatura máxima	15.7
30891	7	Sololá	701	Sololá	3	Barraneche	6	Junio	2023-10-06T00:00:00	2024-11-06T21:00:00	3	Temperatura mínima	14.3
30892	7	Sololá	701	Sololá	3	Barraneche	6	Junio	2023-10-06T00:00:00	2024-11-06T21:00:00	5	Humedad	70
30893	7	Sololá	701	Sololá	3	Barraneche	6	Junio	2023-10-06T00:00:00	2024-11-06T21:00:00	6	Velocidad del viento	3.2
30894	7	Sololá	701	Sololá	3	Barraneche	6	Junio	2023-10-06T00:00:00	2024-11-06T21:00:00	7	Dirección del viento	3.22
30895	7	Sololá	701	Sololá	3	Barraneche	6	Junio	2023-10-06T00:00:00	2024-11-06T21:00:00	1	Precipitación	0
30896	7	Sololá	701	Sololá	3	Barraneche	6	Junio	2023-10-06T00:00:00	2024-11-06T21:00:00	8	Radiación solar	0
30897	7	Sololá	701	Sololá	3	Barraneche	6	Junio	2023-10-06T00:00:00	2024-11-06T22:00:00	2	Temperatura media	14.4
30898	7	Sololá	701	Sololá	3	Barraneche	6	Junio	2023-10-06T00:00:00	2024-11-06T22:00:00	4	Temperatura máxima	15.7
30899	7	Sololá	701	Sololá	3	Barraneche	6	Junio	2023-10-06T00:00:00	2024-11-06T22:00:00	3	Temperatura mínima	14.4
30900	7	Sololá	701	Sololá	3	Barraneche	6	Junio	2023-10-06T00:00:00	2024-11-06T22:00:00	5	Humedad	74
30901	7	Sololá	701	Sololá	3	Barraneche	6	Junio	2023-10-06T00:00:00	2024-11-06T22:00:00	6	Velocidad del viento	1.6
30902	7	Sololá	701	Sololá	3	Barraneche	6	Junio	2023-10-06T00:00:00	2024-11-06T22:00:00	7	Dirección del viento	1.61
30903	7	Sololá	701	Sololá	3	Barraneche	6	Junio	2023-10-06T00:00:00	2024-11-06T22:00:00	1	Precipitación	0
30904	7	Sololá	701	Sololá	3	Barraneche	6	Junio	2023-10-06T00:00:00	2024-11-06T22:00:00	8	Radiación solar	0
30905	7	Sololá	701	Sololá	3	Barraneche	6	Junio	2023-10-06T00:00:00	2024-11-06T23:00:00	2	Temperatura media	13.8
30906	7	Sololá	701	Sololá	3	Barraneche	6	Junio	2023-10-06T00:00:00	2024-11-06T23:00:00	4	Temperatura máxima	14.4
30907	7	Sololá	701	Sololá	3	Barraneche	6	Junio	2023-10-06T00:00:00	2024-11-06T23:00:00	3	Temperatura mínima	13.7
30908	7	Sololá	701	Sololá	3	Barraneche	6	Junio	2023-10-06T00:00:00	2024-11-06T23:00:00	5	Humedad	75
30909	7	Sololá	701	Sololá	3	Barraneche	6	Junio	2023-10-06T00:00:00	2024-11-06T23:00:00	6	Velocidad del viento	3.2
30910	7	Sololá	701	Sololá	3	Barraneche	6	Junio	2023-10-06T00:00:00	2024-11-06T23:00:00	7	Dirección del viento	3.22
30911	7	Sololá	701	Sololá	3	Barraneche	6	Junio	2023-10-06T00:00:00	2024-11-06T23:00:00	1	Precipitación	0
30912	7	Sololá	701	Sololá	3	Barraneche	6	Junio	2023-10-06T00:00:00	2024-11-06T23:00:00	8	Radiación solar	0
30913	7	Sololá	701	Sololá	3	Barraneche	6	Junio	2023-11-06T00:00:00	2024-11-06T00:00:00	2	Temperatura media	14
30914	7	Sololá	701	Sololá	3	Barraneche	6	Junio	2023-11-06T00:00:00	2024-11-06T00:00:00	4	Temperatura máxima	14.8
30915	7	Sololá	701	Sololá	3	Barraneche	6	Junio	2023-11-06T00:00:00	2024-11-06T00:00:00	3	Temperatura mínima	13.8
30916	7	Sololá	701	Sololá	3	Barraneche	6	Junio	2023-11-06T00:00:00	2024-11-06T00:00:00	5	Humedad	74
30917	7	Sololá	701	Sololá	3	Barraneche	6	Junio	2023-11-06T00:00:00	2024-11-06T00:00:00	6	Velocidad del viento	3.2
30918	7	Sololá	701	Sololá	3	Barraneche	6	Junio	2023-11-06T00:00:00	2024-11-06T00:00:00	7	Dirección del viento	3.22
30919	7	Sololá	701	Sololá	3	Barraneche	6	Junio	2023-11-06T00:00:00	2024-11-06T00:00:00	1	Precipitación	0
30920	7	Sololá	701	Sololá	3	Barraneche	6	Junio	2023-11-06T00:00:00	2024-11-06T00:00:00	8	Radiación solar	0
30921	7	Sololá	701	Sololá	3	Barraneche	6	Junio	2023-11-06T00:00:00	2024-11-06T01:00:00	2	Temperatura media	15
30922	7	Sololá	701	Sololá	3	Barraneche	6	Junio	2023-11-06T00:00:00	2024-11-06T01:00:00	4	Temperatura máxima	15.2
30923	7	Sololá	701	Sololá	3	Barraneche	6	Junio	2023-11-06T00:00:00	2024-11-06T01:00:00	3	Temperatura mínima	13.3
30924	7	Sololá	701	Sololá	3	Barraneche	6	Junio	2023-11-06T00:00:00	2024-11-06T01:00:00	5	Humedad	68
30925	7	Sololá	701	Sololá	3	Barraneche	6	Junio	2023-11-06T00:00:00	2024-11-06T01:00:00	6	Velocidad del viento	3.2
30926	7	Sololá	701	Sololá	3	Barraneche	6	Junio	2023-11-06T00:00:00	2024-11-06T01:00:00	7	Dirección del viento	3.22
30927	7	Sololá	701	Sololá	3	Barraneche	6	Junio	2023-11-06T00:00:00	2024-11-06T01:00:00	1	Precipitación	0
30928	7	Sololá	701	Sololá	3	Barraneche	6	Junio	2023-11-06T00:00:00	2024-11-06T01:00:00	8	Radiación solar	0
30929	7	Sololá	701	Sololá	3	Barraneche	6	Junio	2023-11-06T00:00:00	2024-11-06T02:00:00	2	Temperatura media	12.2
30930	7	Sololá	701	Sololá	3	Barraneche	6	Junio	2023-11-06T00:00:00	2024-11-06T02:00:00	4	Temperatura máxima	15
30931	7	Sololá	701	Sololá	3	Barraneche	6	Junio	2023-11-06T00:00:00	2024-11-06T02:00:00	3	Temperatura mínima	12.2
30932	7	Sololá	701	Sololá	3	Barraneche	6	Junio	2023-11-06T00:00:00	2024-11-06T02:00:00	5	Humedad	68
30933	7	Sololá	701	Sololá	3	Barraneche	6	Junio	2023-11-06T00:00:00	2024-11-06T02:00:00	6	Velocidad del viento	3.2
30934	7	Sololá	701	Sololá	3	Barraneche	6	Junio	2023-11-06T00:00:00	2024-11-06T02:00:00	7	Dirección del viento	3.22
30935	7	Sololá	701	Sololá	3	Barraneche	6	Junio	2023-11-06T00:00:00	2024-11-06T02:00:00	1	Precipitación	0
30936	7	Sololá	701	Sololá	3	Barraneche	6	Junio	2023-11-06T00:00:00	2024-11-06T02:00:00	8	Radiación solar	0
30937	7	Sololá	701	Sololá	3	Barraneche	6	Junio	2023-11-06T00:00:00	2024-11-06T03:00:00	2	Temperatura media	12.5
30938	7	Sololá	701	Sololá	3	Barraneche	6	Junio	2023-11-06T00:00:00	2024-11-06T03:00:00	4	Temperatura máxima	12.5
30939	7	Sololá	701	Sololá	3	Barraneche	6	Junio	2023-11-06T00:00:00	2024-11-06T03:00:00	3	Temperatura mínima	11.9
30940	7	Sololá	701	Sololá	3	Barraneche	6	Junio	2023-11-06T00:00:00	2024-11-06T03:00:00	5	Humedad	66
30941	7	Sololá	701	Sololá	3	Barraneche	6	Junio	2023-11-06T00:00:00	2024-11-06T03:00:00	6	Velocidad del viento	11.3
30942	7	Sololá	701	Sololá	3	Barraneche	6	Junio	2023-11-06T00:00:00	2024-11-06T03:00:00	7	Dirección del viento	11.27
30943	7	Sololá	701	Sololá	3	Barraneche	6	Junio	2023-11-06T00:00:00	2024-11-06T03:00:00	1	Precipitación	0
30944	7	Sololá	701	Sololá	3	Barraneche	6	Junio	2023-11-06T00:00:00	2024-11-06T03:00:00	8	Radiación solar	0
30945	7	Sololá	701	Sololá	3	Barraneche	6	Junio	2023-11-06T00:00:00	2024-11-06T04:00:00	2	Temperatura media	11.4
30946	7	Sololá	701	Sololá	3	Barraneche	6	Junio	2023-11-06T00:00:00	2024-11-06T04:00:00	4	Temperatura máxima	12.6
30947	7	Sololá	701	Sololá	3	Barraneche	6	Junio	2023-11-06T00:00:00	2024-11-06T04:00:00	3	Temperatura mínima	11.4
30948	7	Sololá	701	Sololá	3	Barraneche	6	Junio	2023-11-06T00:00:00	2024-11-06T04:00:00	5	Humedad	62
30949	7	Sololá	701	Sololá	3	Barraneche	6	Junio	2023-11-06T00:00:00	2024-11-06T04:00:00	6	Velocidad del viento	9.7
30950	7	Sololá	701	Sololá	3	Barraneche	6	Junio	2023-11-06T00:00:00	2024-11-06T04:00:00	7	Dirección del viento	9.66
30951	7	Sololá	701	Sololá	3	Barraneche	6	Junio	2023-11-06T00:00:00	2024-11-06T04:00:00	1	Precipitación	0
30952	7	Sololá	701	Sololá	3	Barraneche	6	Junio	2023-11-06T00:00:00	2024-11-06T04:00:00	8	Radiación solar	0
30953	7	Sololá	701	Sololá	3	Barraneche	6	Junio	2023-11-06T00:00:00	2024-11-06T05:00:00	2	Temperatura media	11.9
30954	7	Sololá	701	Sololá	3	Barraneche	6	Junio	2023-11-06T00:00:00	2024-11-06T05:00:00	4	Temperatura máxima	12.2
30955	7	Sololá	701	Sololá	3	Barraneche	6	Junio	2023-11-06T00:00:00	2024-11-06T05:00:00	3	Temperatura mínima	11.2
30956	7	Sololá	701	Sololá	3	Barraneche	6	Junio	2023-11-06T00:00:00	2024-11-06T05:00:00	5	Humedad	57
30957	7	Sololá	701	Sololá	3	Barraneche	6	Junio	2023-11-06T00:00:00	2024-11-06T05:00:00	6	Velocidad del viento	9.7
30958	7	Sololá	701	Sololá	3	Barraneche	6	Junio	2023-11-06T00:00:00	2024-11-06T05:00:00	7	Dirección del viento	9.66
30959	7	Sololá	701	Sololá	3	Barraneche	6	Junio	2023-11-06T00:00:00	2024-11-06T05:00:00	1	Precipitación	0
30960	7	Sololá	701	Sololá	3	Barraneche	6	Junio	2023-11-06T00:00:00	2024-11-06T05:00:00	8	Radiación solar	0
30961	7	Sololá	701	Sololá	3	Barraneche	6	Junio	2023-11-06T00:00:00	2024-11-06T06:00:00	2	Temperatura media	12.1
30962	7	Sololá	701	Sololá	3	Barraneche	6	Junio	2023-11-06T00:00:00	2024-11-06T06:00:00	4	Temperatura máxima	12.1
30963	7	Sololá	701	Sololá	3	Barraneche	6	Junio	2023-11-06T00:00:00	2024-11-06T06:00:00	3	Temperatura mínima	11.1
30964	7	Sololá	701	Sololá	3	Barraneche	6	Junio	2023-11-06T00:00:00	2024-11-06T06:00:00	5	Humedad	55
30965	7	Sololá	701	Sololá	3	Barraneche	6	Junio	2023-11-06T00:00:00	2024-11-06T06:00:00	6	Velocidad del viento	9.7
30966	7	Sololá	701	Sololá	3	Barraneche	6	Junio	2023-11-06T00:00:00	2024-11-06T06:00:00	7	Dirección del viento	9.66
30967	7	Sololá	701	Sololá	3	Barraneche	6	Junio	2023-11-06T00:00:00	2024-11-06T06:00:00	1	Precipitación	0
30968	7	Sololá	701	Sololá	3	Barraneche	6	Junio	2023-11-06T00:00:00	2024-11-06T06:00:00	8	Radiación solar	6
30969	7	Sololá	701	Sololá	3	Barraneche	6	Junio	2023-11-06T00:00:00	2024-11-06T07:00:00	2	Temperatura media	14.3
30970	7	Sololá	701	Sololá	3	Barraneche	6	Junio	2023-11-06T00:00:00	2024-11-06T07:00:00	4	Temperatura máxima	14.3
30971	7	Sololá	701	Sololá	3	Barraneche	6	Junio	2023-11-06T00:00:00	2024-11-06T07:00:00	3	Temperatura mínima	12
30972	7	Sololá	701	Sololá	3	Barraneche	6	Junio	2023-11-06T00:00:00	2024-11-06T07:00:00	5	Humedad	56
30973	7	Sololá	701	Sololá	3	Barraneche	6	Junio	2023-11-06T00:00:00	2024-11-06T07:00:00	6	Velocidad del viento	8
30974	7	Sololá	701	Sololá	3	Barraneche	6	Junio	2023-11-06T00:00:00	2024-11-06T07:00:00	7	Dirección del viento	8.05
30975	7	Sololá	701	Sololá	3	Barraneche	6	Junio	2023-11-06T00:00:00	2024-11-06T07:00:00	1	Precipitación	0
30976	7	Sololá	701	Sololá	3	Barraneche	6	Junio	2023-11-06T00:00:00	2024-11-06T07:00:00	8	Radiación solar	146
30977	7	Sololá	701	Sololá	3	Barraneche	6	Junio	2023-11-06T00:00:00	2024-11-06T08:00:00	2	Temperatura media	17.6
30978	7	Sololá	701	Sololá	3	Barraneche	6	Junio	2023-11-06T00:00:00	2024-11-06T08:00:00	4	Temperatura máxima	17.6
30979	7	Sololá	701	Sololá	3	Barraneche	6	Junio	2023-11-06T00:00:00	2024-11-06T08:00:00	3	Temperatura mínima	14.3
30980	7	Sololá	701	Sololá	3	Barraneche	6	Junio	2023-11-06T00:00:00	2024-11-06T08:00:00	5	Humedad	44
30981	7	Sololá	701	Sololá	3	Barraneche	6	Junio	2023-11-06T00:00:00	2024-11-06T08:00:00	6	Velocidad del viento	3.2
30982	7	Sololá	701	Sololá	3	Barraneche	6	Junio	2023-11-06T00:00:00	2024-11-06T08:00:00	7	Dirección del viento	3.22
30983	7	Sololá	701	Sololá	3	Barraneche	6	Junio	2023-11-06T00:00:00	2024-11-06T08:00:00	1	Precipitación	0
30984	7	Sololá	701	Sololá	3	Barraneche	6	Junio	2023-11-06T00:00:00	2024-11-06T08:00:00	8	Radiación solar	406
30985	7	Sololá	701	Sololá	3	Barraneche	6	Junio	2023-11-06T00:00:00	2024-11-06T09:00:00	2	Temperatura media	18.9
30986	7	Sololá	701	Sololá	3	Barraneche	6	Junio	2023-11-06T00:00:00	2024-11-06T09:00:00	4	Temperatura máxima	18.9
30987	7	Sololá	701	Sololá	3	Barraneche	6	Junio	2023-11-06T00:00:00	2024-11-06T09:00:00	3	Temperatura mínima	17.6
30988	7	Sololá	701	Sololá	3	Barraneche	6	Junio	2023-11-06T00:00:00	2024-11-06T09:00:00	5	Humedad	40
30989	7	Sololá	701	Sololá	3	Barraneche	6	Junio	2023-11-06T00:00:00	2024-11-06T09:00:00	6	Velocidad del viento	8
30990	7	Sololá	701	Sololá	3	Barraneche	6	Junio	2023-11-06T00:00:00	2024-11-06T09:00:00	7	Dirección del viento	8.05
30991	7	Sololá	701	Sololá	3	Barraneche	6	Junio	2023-11-06T00:00:00	2024-11-06T09:00:00	1	Precipitación	0
30992	7	Sololá	701	Sololá	3	Barraneche	6	Junio	2023-11-06T00:00:00	2024-11-06T09:00:00	8	Radiación solar	578
30993	7	Sololá	701	Sololá	3	Barraneche	6	Junio	2023-11-06T00:00:00	2024-11-06T10:00:00	2	Temperatura media	19.9
30994	7	Sololá	701	Sololá	3	Barraneche	6	Junio	2023-11-06T00:00:00	2024-11-06T10:00:00	4	Temperatura máxima	20.4
30995	7	Sololá	701	Sololá	3	Barraneche	6	Junio	2023-11-06T00:00:00	2024-11-06T10:00:00	3	Temperatura mínima	18.9
30996	7	Sololá	701	Sololá	3	Barraneche	6	Junio	2023-11-06T00:00:00	2024-11-06T10:00:00	5	Humedad	42
30997	7	Sololá	701	Sololá	3	Barraneche	6	Junio	2023-11-06T00:00:00	2024-11-06T10:00:00	6	Velocidad del viento	11.3
30998	7	Sololá	701	Sololá	3	Barraneche	6	Junio	2023-11-06T00:00:00	2024-11-06T10:00:00	7	Dirección del viento	11.27
30999	7	Sololá	701	Sololá	3	Barraneche	6	Junio	2023-11-06T00:00:00	2024-11-06T10:00:00	1	Precipitación	0
31000	7	Sololá	701	Sololá	3	Barraneche	6	Junio	2023-11-06T00:00:00	2024-11-06T10:00:00	8	Radiación solar	784
31001	7	Sololá	701	Sololá	3	Barraneche	6	Junio	2023-11-06T00:00:00	2024-11-06T11:00:00	2	Temperatura media	19.7
31002	7	Sololá	701	Sololá	3	Barraneche	6	Junio	2023-11-06T00:00:00	2024-11-06T11:00:00	4	Temperatura máxima	20.4
31003	7	Sololá	701	Sololá	3	Barraneche	6	Junio	2023-11-06T00:00:00	2024-11-06T11:00:00	3	Temperatura mínima	19.6
31004	7	Sololá	701	Sololá	3	Barraneche	6	Junio	2023-11-06T00:00:00	2024-11-06T11:00:00	5	Humedad	51
31005	7	Sololá	701	Sololá	3	Barraneche	6	Junio	2023-11-06T00:00:00	2024-11-06T11:00:00	6	Velocidad del viento	17.7
31006	7	Sololá	701	Sololá	3	Barraneche	6	Junio	2023-11-06T00:00:00	2024-11-06T11:00:00	7	Dirección del viento	17.7
31007	7	Sololá	701	Sololá	3	Barraneche	6	Junio	2023-11-06T00:00:00	2024-11-06T11:00:00	1	Precipitación	0
31008	7	Sololá	701	Sololá	3	Barraneche	6	Junio	2023-11-06T00:00:00	2024-11-06T11:00:00	8	Radiación solar	959
31009	7	Sololá	701	Sololá	3	Barraneche	6	Junio	2023-11-06T00:00:00	2024-11-06T12:00:00	2	Temperatura media	19.9
31010	7	Sololá	701	Sololá	3	Barraneche	6	Junio	2023-11-06T00:00:00	2024-11-06T12:00:00	4	Temperatura máxima	20.4
31011	7	Sololá	701	Sololá	3	Barraneche	6	Junio	2023-11-06T00:00:00	2024-11-06T12:00:00	3	Temperatura mínima	19.4
31012	7	Sololá	701	Sololá	3	Barraneche	6	Junio	2023-11-06T00:00:00	2024-11-06T12:00:00	5	Humedad	57
31013	7	Sololá	701	Sololá	3	Barraneche	6	Junio	2023-11-06T00:00:00	2024-11-06T12:00:00	6	Velocidad del viento	12.9
31014	7	Sololá	701	Sololá	3	Barraneche	6	Junio	2023-11-06T00:00:00	2024-11-06T12:00:00	7	Dirección del viento	12.87
31015	7	Sololá	701	Sololá	3	Barraneche	6	Junio	2023-11-06T00:00:00	2024-11-06T12:00:00	1	Precipitación	0
31016	7	Sololá	701	Sololá	3	Barraneche	6	Junio	2023-11-06T00:00:00	2024-11-06T12:00:00	8	Radiación solar	964
31017	7	Sololá	701	Sololá	3	Barraneche	6	Junio	2023-11-06T00:00:00	2024-11-06T13:00:00	2	Temperatura media	19.2
31018	7	Sololá	701	Sololá	3	Barraneche	6	Junio	2023-11-06T00:00:00	2024-11-06T13:00:00	4	Temperatura máxima	19.9
31019	7	Sololá	701	Sololá	3	Barraneche	6	Junio	2023-11-06T00:00:00	2024-11-06T13:00:00	3	Temperatura mínima	18.4
31020	7	Sololá	701	Sololá	3	Barraneche	6	Junio	2023-11-06T00:00:00	2024-11-06T13:00:00	5	Humedad	62
31021	7	Sololá	701	Sololá	3	Barraneche	6	Junio	2023-11-06T00:00:00	2024-11-06T13:00:00	6	Velocidad del viento	11.3
31022	7	Sololá	701	Sololá	3	Barraneche	6	Junio	2023-11-06T00:00:00	2024-11-06T13:00:00	7	Dirección del viento	11.27
31023	7	Sololá	701	Sololá	3	Barraneche	6	Junio	2023-11-06T00:00:00	2024-11-06T13:00:00	1	Precipitación	0
31024	7	Sololá	701	Sololá	3	Barraneche	6	Junio	2023-11-06T00:00:00	2024-11-06T13:00:00	8	Radiación solar	797
31025	7	Sololá	701	Sololá	3	Barraneche	6	Junio	2023-11-06T00:00:00	2024-11-06T14:00:00	2	Temperatura media	19.4
31026	7	Sololá	701	Sololá	3	Barraneche	6	Junio	2023-11-06T00:00:00	2024-11-06T14:00:00	4	Temperatura máxima	19.9
31027	7	Sololá	701	Sololá	3	Barraneche	6	Junio	2023-11-06T00:00:00	2024-11-06T14:00:00	3	Temperatura mínima	19.1
31028	7	Sololá	701	Sololá	3	Barraneche	6	Junio	2023-11-06T00:00:00	2024-11-06T14:00:00	5	Humedad	63
31029	7	Sololá	701	Sololá	3	Barraneche	6	Junio	2023-11-06T00:00:00	2024-11-06T14:00:00	6	Velocidad del viento	11.3
31030	7	Sololá	701	Sololá	3	Barraneche	6	Junio	2023-11-06T00:00:00	2024-11-06T14:00:00	7	Dirección del viento	11.27
31031	7	Sololá	701	Sololá	3	Barraneche	6	Junio	2023-11-06T00:00:00	2024-11-06T14:00:00	1	Precipitación	0
31032	7	Sololá	701	Sololá	3	Barraneche	6	Junio	2023-11-06T00:00:00	2024-11-06T14:00:00	8	Radiación solar	844
31033	7	Sololá	701	Sololá	3	Barraneche	6	Junio	2023-11-06T00:00:00	2024-11-06T15:00:00	2	Temperatura media	19.4
31034	7	Sololá	701	Sololá	3	Barraneche	6	Junio	2023-11-06T00:00:00	2024-11-06T15:00:00	4	Temperatura máxima	20.3
31035	7	Sololá	701	Sololá	3	Barraneche	6	Junio	2023-11-06T00:00:00	2024-11-06T15:00:00	3	Temperatura mínima	19.3
31036	7	Sololá	701	Sololá	3	Barraneche	6	Junio	2023-11-06T00:00:00	2024-11-06T15:00:00	5	Humedad	63
31037	7	Sololá	701	Sololá	3	Barraneche	6	Junio	2023-11-06T00:00:00	2024-11-06T15:00:00	6	Velocidad del viento	9.7
31038	7	Sololá	701	Sololá	3	Barraneche	6	Junio	2023-11-06T00:00:00	2024-11-06T15:00:00	7	Dirección del viento	9.66
31039	7	Sololá	701	Sololá	3	Barraneche	6	Junio	2023-11-06T00:00:00	2024-11-06T15:00:00	1	Precipitación	0
31040	7	Sololá	701	Sololá	3	Barraneche	6	Junio	2023-11-06T00:00:00	2024-11-06T15:00:00	8	Radiación solar	632
31041	7	Sololá	701	Sololá	3	Barraneche	6	Junio	2023-11-06T00:00:00	2024-11-06T16:00:00	2	Temperatura media	18.8
31042	7	Sololá	701	Sololá	3	Barraneche	6	Junio	2023-11-06T00:00:00	2024-11-06T16:00:00	4	Temperatura máxima	19.8
31043	7	Sololá	701	Sololá	3	Barraneche	6	Junio	2023-11-06T00:00:00	2024-11-06T16:00:00	3	Temperatura mínima	18.8
31044	7	Sololá	701	Sololá	3	Barraneche	6	Junio	2023-11-06T00:00:00	2024-11-06T16:00:00	5	Humedad	68
31045	7	Sololá	701	Sololá	3	Barraneche	6	Junio	2023-11-06T00:00:00	2024-11-06T16:00:00	6	Velocidad del viento	9.7
31046	7	Sololá	701	Sololá	3	Barraneche	6	Junio	2023-11-06T00:00:00	2024-11-06T16:00:00	7	Dirección del viento	9.66
31047	7	Sololá	701	Sololá	3	Barraneche	6	Junio	2023-11-06T00:00:00	2024-11-06T16:00:00	1	Precipitación	0
31048	7	Sololá	701	Sololá	3	Barraneche	6	Junio	2023-11-06T00:00:00	2024-11-06T16:00:00	8	Radiación solar	440
31049	7	Sololá	701	Sololá	3	Barraneche	6	Junio	2023-11-06T00:00:00	2024-11-06T17:00:00	2	Temperatura media	18.6
31050	7	Sololá	701	Sololá	3	Barraneche	6	Junio	2023-11-06T00:00:00	2024-11-06T17:00:00	4	Temperatura máxima	18.8
31051	7	Sololá	701	Sololá	3	Barraneche	6	Junio	2023-11-06T00:00:00	2024-11-06T17:00:00	3	Temperatura mínima	18
31052	7	Sololá	701	Sololá	3	Barraneche	6	Junio	2023-11-06T00:00:00	2024-11-06T17:00:00	5	Humedad	68
31053	7	Sololá	701	Sololá	3	Barraneche	6	Junio	2023-11-06T00:00:00	2024-11-06T17:00:00	6	Velocidad del viento	9.7
31054	7	Sololá	701	Sololá	3	Barraneche	6	Junio	2023-11-06T00:00:00	2024-11-06T17:00:00	7	Dirección del viento	9.66
31055	7	Sololá	701	Sololá	3	Barraneche	6	Junio	2023-11-06T00:00:00	2024-11-06T17:00:00	1	Precipitación	0
31056	7	Sololá	701	Sololá	3	Barraneche	6	Junio	2023-11-06T00:00:00	2024-11-06T17:00:00	8	Radiación solar	229
31057	7	Sololá	701	Sololá	3	Barraneche	6	Junio	2023-11-06T00:00:00	2024-11-06T18:00:00	2	Temperatura media	17.4
31058	7	Sololá	701	Sololá	3	Barraneche	6	Junio	2023-11-06T00:00:00	2024-11-06T18:00:00	4	Temperatura máxima	18.6
31059	7	Sololá	701	Sololá	3	Barraneche	6	Junio	2023-11-06T00:00:00	2024-11-06T18:00:00	3	Temperatura mínima	17.4
31060	7	Sololá	701	Sololá	3	Barraneche	6	Junio	2023-11-06T00:00:00	2024-11-06T18:00:00	5	Humedad	73
31061	7	Sololá	701	Sololá	3	Barraneche	6	Junio	2023-11-06T00:00:00	2024-11-06T18:00:00	6	Velocidad del viento	6.4
31062	7	Sololá	701	Sololá	3	Barraneche	6	Junio	2023-11-06T00:00:00	2024-11-06T18:00:00	7	Dirección del viento	6.44
31063	7	Sololá	701	Sololá	3	Barraneche	6	Junio	2023-11-06T00:00:00	2024-11-06T18:00:00	1	Precipitación	0
31064	7	Sololá	701	Sololá	3	Barraneche	6	Junio	2023-11-06T00:00:00	2024-11-06T18:00:00	8	Radiación solar	111
31065	7	Sololá	701	Sololá	3	Barraneche	6	Junio	2023-11-06T00:00:00	2024-11-06T19:00:00	2	Temperatura media	16.3
31066	7	Sololá	701	Sololá	3	Barraneche	6	Junio	2023-11-06T00:00:00	2024-11-06T19:00:00	4	Temperatura máxima	17.4
31067	7	Sololá	701	Sololá	3	Barraneche	6	Junio	2023-11-06T00:00:00	2024-11-06T19:00:00	3	Temperatura mínima	16.3
31068	7	Sololá	701	Sololá	3	Barraneche	6	Junio	2023-11-06T00:00:00	2024-11-06T19:00:00	5	Humedad	74
31069	7	Sololá	701	Sololá	3	Barraneche	6	Junio	2023-11-06T00:00:00	2024-11-06T19:00:00	6	Velocidad del viento	3.2
31070	7	Sololá	701	Sololá	3	Barraneche	6	Junio	2023-11-06T00:00:00	2024-11-06T19:00:00	7	Dirección del viento	3.22
31071	7	Sololá	701	Sololá	3	Barraneche	6	Junio	2023-11-06T00:00:00	2024-11-06T19:00:00	1	Precipitación	0
31072	7	Sololá	701	Sololá	3	Barraneche	6	Junio	2023-11-06T00:00:00	2024-11-06T19:00:00	8	Radiación solar	0
31073	7	Sololá	701	Sololá	3	Barraneche	6	Junio	2023-11-06T00:00:00	2024-11-06T20:00:00	2	Temperatura media	14.8
31074	7	Sololá	701	Sololá	3	Barraneche	6	Junio	2023-11-06T00:00:00	2024-11-06T20:00:00	4	Temperatura máxima	16.2
31075	7	Sololá	701	Sololá	3	Barraneche	6	Junio	2023-11-06T00:00:00	2024-11-06T20:00:00	3	Temperatura mínima	14.6
31076	7	Sololá	701	Sololá	3	Barraneche	6	Junio	2023-11-06T00:00:00	2024-11-06T20:00:00	5	Humedad	64
31077	7	Sololá	701	Sololá	3	Barraneche	6	Junio	2023-11-06T00:00:00	2024-11-06T20:00:00	6	Velocidad del viento	6.4
31078	7	Sololá	701	Sololá	3	Barraneche	6	Junio	2023-11-06T00:00:00	2024-11-06T20:00:00	7	Dirección del viento	6.44
31079	7	Sololá	701	Sololá	3	Barraneche	6	Junio	2023-11-06T00:00:00	2024-11-06T20:00:00	1	Precipitación	0
31080	7	Sololá	701	Sololá	3	Barraneche	6	Junio	2023-11-06T00:00:00	2024-11-06T20:00:00	8	Radiación solar	0
31081	7	Sololá	701	Sololá	3	Barraneche	6	Junio	2023-11-06T00:00:00	2024-11-06T21:00:00	2	Temperatura media	14.4
31082	7	Sololá	701	Sololá	3	Barraneche	6	Junio	2023-11-06T00:00:00	2024-11-06T21:00:00	4	Temperatura máxima	14.8
31083	7	Sololá	701	Sololá	3	Barraneche	6	Junio	2023-11-06T00:00:00	2024-11-06T21:00:00	3	Temperatura mínima	14.3
31084	7	Sololá	701	Sololá	3	Barraneche	6	Junio	2023-11-06T00:00:00	2024-11-06T21:00:00	5	Humedad	66
31085	7	Sololá	701	Sololá	3	Barraneche	6	Junio	2023-11-06T00:00:00	2024-11-06T21:00:00	6	Velocidad del viento	4.8
31086	7	Sololá	701	Sololá	3	Barraneche	6	Junio	2023-11-06T00:00:00	2024-11-06T21:00:00	7	Dirección del viento	4.83
31087	7	Sololá	701	Sololá	3	Barraneche	6	Junio	2023-11-06T00:00:00	2024-11-06T21:00:00	1	Precipitación	0
31088	7	Sololá	701	Sololá	3	Barraneche	6	Junio	2023-11-06T00:00:00	2024-11-06T21:00:00	8	Radiación solar	0
31089	7	Sololá	701	Sololá	3	Barraneche	6	Junio	2023-11-06T00:00:00	2024-11-06T22:00:00	2	Temperatura media	14.1
31090	7	Sololá	701	Sololá	3	Barraneche	6	Junio	2023-11-06T00:00:00	2024-11-06T22:00:00	4	Temperatura máxima	14.4
31091	7	Sololá	701	Sololá	3	Barraneche	6	Junio	2023-11-06T00:00:00	2024-11-06T22:00:00	3	Temperatura mínima	13.7
31092	7	Sololá	701	Sololá	3	Barraneche	6	Junio	2023-11-06T00:00:00	2024-11-06T22:00:00	5	Humedad	68
31093	7	Sololá	701	Sololá	3	Barraneche	6	Junio	2023-11-06T00:00:00	2024-11-06T22:00:00	6	Velocidad del viento	4.8
31094	7	Sololá	701	Sololá	3	Barraneche	6	Junio	2023-11-06T00:00:00	2024-11-06T22:00:00	7	Dirección del viento	4.83
31095	7	Sololá	701	Sololá	3	Barraneche	6	Junio	2023-11-06T00:00:00	2024-11-06T22:00:00	1	Precipitación	0
31096	7	Sololá	701	Sololá	3	Barraneche	6	Junio	2023-11-06T00:00:00	2024-11-06T22:00:00	8	Radiación solar	0
31097	7	Sololá	701	Sololá	3	Barraneche	6	Junio	2023-11-06T00:00:00	2024-11-06T23:00:00	2	Temperatura media	16.2
31098	7	Sololá	701	Sololá	3	Barraneche	6	Junio	2023-11-06T00:00:00	2024-11-06T23:00:00	4	Temperatura máxima	16.2
31099	7	Sololá	701	Sololá	3	Barraneche	6	Junio	2023-11-06T00:00:00	2024-11-06T23:00:00	3	Temperatura mínima	14.1
31100	7	Sololá	701	Sololá	3	Barraneche	6	Junio	2023-11-06T00:00:00	2024-11-06T23:00:00	5	Humedad	64
31101	7	Sololá	701	Sololá	3	Barraneche	6	Junio	2023-11-06T00:00:00	2024-11-06T23:00:00	6	Velocidad del viento	4.8
31102	7	Sololá	701	Sololá	3	Barraneche	6	Junio	2023-11-06T00:00:00	2024-11-06T23:00:00	7	Dirección del viento	4.83
31103	7	Sololá	701	Sololá	3	Barraneche	6	Junio	2023-11-06T00:00:00	2024-11-06T23:00:00	1	Precipitación	0
31104	7	Sololá	701	Sololá	3	Barraneche	6	Junio	2023-11-06T00:00:00	2024-11-06T23:00:00	8	Radiación solar	0
31105	7	Sololá	701	Sololá	3	Barraneche	6	Junio	2023-12-06T00:00:00	2024-11-06T00:00:00	2	Temperatura media	15.7
31106	7	Sololá	701	Sololá	3	Barraneche	6	Junio	2023-12-06T00:00:00	2024-11-06T00:00:00	4	Temperatura máxima	16.2
31107	7	Sololá	701	Sololá	3	Barraneche	6	Junio	2023-12-06T00:00:00	2024-11-06T00:00:00	3	Temperatura mínima	15.6
31108	7	Sololá	701	Sololá	3	Barraneche	6	Junio	2023-12-06T00:00:00	2024-11-06T00:00:00	5	Humedad	64
31109	7	Sololá	701	Sololá	3	Barraneche	6	Junio	2023-12-06T00:00:00	2024-11-06T00:00:00	6	Velocidad del viento	4.8
31110	7	Sololá	701	Sololá	3	Barraneche	6	Junio	2023-12-06T00:00:00	2024-11-06T00:00:00	7	Dirección del viento	4.83
31111	7	Sololá	701	Sololá	3	Barraneche	6	Junio	2023-12-06T00:00:00	2024-11-06T00:00:00	1	Precipitación	0
31112	7	Sololá	701	Sololá	3	Barraneche	6	Junio	2023-12-06T00:00:00	2024-11-06T00:00:00	8	Radiación solar	0
31113	7	Sololá	701	Sololá	3	Barraneche	6	Junio	2023-12-06T00:00:00	2024-11-06T01:00:00	2	Temperatura media	15.2
31114	7	Sololá	701	Sololá	3	Barraneche	6	Junio	2023-12-06T00:00:00	2024-11-06T01:00:00	4	Temperatura máxima	15.7
31115	7	Sololá	701	Sololá	3	Barraneche	6	Junio	2023-12-06T00:00:00	2024-11-06T01:00:00	3	Temperatura mínima	14.4
31116	7	Sololá	701	Sololá	3	Barraneche	6	Junio	2023-12-06T00:00:00	2024-11-06T01:00:00	5	Humedad	63
31117	7	Sololá	701	Sololá	3	Barraneche	6	Junio	2023-12-06T00:00:00	2024-11-06T01:00:00	6	Velocidad del viento	4.8
31118	7	Sololá	701	Sololá	3	Barraneche	6	Junio	2023-12-06T00:00:00	2024-11-06T01:00:00	7	Dirección del viento	4.83
31119	7	Sololá	701	Sololá	3	Barraneche	6	Junio	2023-12-06T00:00:00	2024-11-06T01:00:00	1	Precipitación	0
31120	7	Sololá	701	Sololá	3	Barraneche	6	Junio	2023-12-06T00:00:00	2024-11-06T01:00:00	8	Radiación solar	0
31121	7	Sololá	701	Sololá	3	Barraneche	6	Junio	2023-12-06T00:00:00	2024-11-06T02:00:00	2	Temperatura media	12.9
31122	7	Sololá	701	Sololá	3	Barraneche	6	Junio	2023-12-06T00:00:00	2024-11-06T02:00:00	4	Temperatura máxima	15.2
31123	7	Sololá	701	Sololá	3	Barraneche	6	Junio	2023-12-06T00:00:00	2024-11-06T02:00:00	3	Temperatura mínima	12.8
31124	7	Sololá	701	Sololá	3	Barraneche	6	Junio	2023-12-06T00:00:00	2024-11-06T02:00:00	5	Humedad	70
31125	7	Sololá	701	Sololá	3	Barraneche	6	Junio	2023-12-06T00:00:00	2024-11-06T02:00:00	6	Velocidad del viento	3.2
31126	7	Sololá	701	Sololá	3	Barraneche	6	Junio	2023-12-06T00:00:00	2024-11-06T02:00:00	7	Dirección del viento	3.22
31127	7	Sololá	701	Sololá	3	Barraneche	6	Junio	2023-12-06T00:00:00	2024-11-06T02:00:00	1	Precipitación	0
31128	7	Sololá	701	Sololá	3	Barraneche	6	Junio	2023-12-06T00:00:00	2024-11-06T02:00:00	8	Radiación solar	0
31129	7	Sololá	701	Sololá	3	Barraneche	6	Junio	2023-12-06T00:00:00	2024-11-06T03:00:00	2	Temperatura media	12.2
31130	7	Sololá	701	Sololá	3	Barraneche	6	Junio	2023-12-06T00:00:00	2024-11-06T03:00:00	4	Temperatura máxima	12.9
31131	7	Sololá	701	Sololá	3	Barraneche	6	Junio	2023-12-06T00:00:00	2024-11-06T03:00:00	3	Temperatura mínima	12.2
31132	7	Sololá	701	Sololá	3	Barraneche	6	Junio	2023-12-06T00:00:00	2024-11-06T03:00:00	5	Humedad	70
31133	7	Sololá	701	Sololá	3	Barraneche	6	Junio	2023-12-06T00:00:00	2024-11-06T03:00:00	6	Velocidad del viento	3.2
31134	7	Sololá	701	Sololá	3	Barraneche	6	Junio	2023-12-06T00:00:00	2024-11-06T03:00:00	7	Dirección del viento	3.22
31135	7	Sololá	701	Sololá	3	Barraneche	6	Junio	2023-12-06T00:00:00	2024-11-06T03:00:00	1	Precipitación	0
31136	7	Sololá	701	Sololá	3	Barraneche	6	Junio	2023-12-06T00:00:00	2024-11-06T03:00:00	8	Radiación solar	0
31137	7	Sololá	701	Sololá	3	Barraneche	6	Junio	2023-12-06T00:00:00	2024-11-06T04:00:00	2	Temperatura media	11.9
31138	7	Sololá	701	Sololá	3	Barraneche	6	Junio	2023-12-06T00:00:00	2024-11-06T04:00:00	4	Temperatura máxima	12.3
31139	7	Sololá	701	Sololá	3	Barraneche	6	Junio	2023-12-06T00:00:00	2024-11-06T04:00:00	3	Temperatura mínima	11.7
31140	7	Sololá	701	Sololá	3	Barraneche	6	Junio	2023-12-06T00:00:00	2024-11-06T04:00:00	5	Humedad	68
31141	7	Sololá	701	Sololá	3	Barraneche	6	Junio	2023-12-06T00:00:00	2024-11-06T04:00:00	6	Velocidad del viento	4.8
31142	7	Sololá	701	Sololá	3	Barraneche	6	Junio	2023-12-06T00:00:00	2024-11-06T04:00:00	7	Dirección del viento	4.83
31143	7	Sololá	701	Sololá	3	Barraneche	6	Junio	2023-12-06T00:00:00	2024-11-06T04:00:00	1	Precipitación	0
31144	7	Sololá	701	Sololá	3	Barraneche	6	Junio	2023-12-06T00:00:00	2024-11-06T04:00:00	8	Radiación solar	0
31145	7	Sololá	701	Sololá	3	Barraneche	6	Junio	2023-12-06T00:00:00	2024-11-06T05:00:00	2	Temperatura media	11.4
31146	7	Sololá	701	Sololá	3	Barraneche	6	Junio	2023-12-06T00:00:00	2024-11-06T05:00:00	4	Temperatura máxima	12.2
31147	7	Sololá	701	Sololá	3	Barraneche	6	Junio	2023-12-06T00:00:00	2024-11-06T05:00:00	3	Temperatura mínima	11.4
31148	7	Sololá	701	Sololá	3	Barraneche	6	Junio	2023-12-06T00:00:00	2024-11-06T05:00:00	5	Humedad	68
31149	7	Sololá	701	Sololá	3	Barraneche	6	Junio	2023-12-06T00:00:00	2024-11-06T05:00:00	6	Velocidad del viento	4.8
31150	7	Sololá	701	Sololá	3	Barraneche	6	Junio	2023-12-06T00:00:00	2024-11-06T05:00:00	7	Dirección del viento	4.83
31151	7	Sololá	701	Sololá	3	Barraneche	6	Junio	2023-12-06T00:00:00	2024-11-06T05:00:00	1	Precipitación	0
31152	7	Sololá	701	Sololá	3	Barraneche	6	Junio	2023-12-06T00:00:00	2024-11-06T05:00:00	8	Radiación solar	0
31153	7	Sololá	701	Sololá	3	Barraneche	6	Junio	2023-12-06T00:00:00	2024-11-06T06:00:00	2	Temperatura media	12.8
31154	7	Sololá	701	Sololá	3	Barraneche	6	Junio	2023-12-06T00:00:00	2024-11-06T06:00:00	4	Temperatura máxima	12.8
31155	7	Sololá	701	Sololá	3	Barraneche	6	Junio	2023-12-06T00:00:00	2024-11-06T06:00:00	3	Temperatura mínima	11.2
31156	7	Sololá	701	Sololá	3	Barraneche	6	Junio	2023-12-06T00:00:00	2024-11-06T06:00:00	5	Humedad	64
31157	7	Sololá	701	Sololá	3	Barraneche	6	Junio	2023-12-06T00:00:00	2024-11-06T06:00:00	6	Velocidad del viento	6.4
31158	7	Sololá	701	Sololá	3	Barraneche	6	Junio	2023-12-06T00:00:00	2024-11-06T06:00:00	7	Dirección del viento	6.44
31159	7	Sololá	701	Sololá	3	Barraneche	6	Junio	2023-12-06T00:00:00	2024-11-06T06:00:00	1	Precipitación	0
31160	7	Sololá	701	Sololá	3	Barraneche	6	Junio	2023-12-06T00:00:00	2024-11-06T06:00:00	8	Radiación solar	10
31161	7	Sololá	701	Sololá	3	Barraneche	6	Junio	2023-12-06T00:00:00	2024-11-06T07:00:00	2	Temperatura media	16.4
31162	7	Sololá	701	Sololá	3	Barraneche	6	Junio	2023-12-06T00:00:00	2024-11-06T07:00:00	4	Temperatura máxima	16.4
31163	7	Sololá	701	Sololá	3	Barraneche	6	Junio	2023-12-06T00:00:00	2024-11-06T07:00:00	3	Temperatura mínima	12.8
31164	7	Sololá	701	Sololá	3	Barraneche	6	Junio	2023-12-06T00:00:00	2024-11-06T07:00:00	5	Humedad	58
31165	7	Sololá	701	Sololá	3	Barraneche	6	Junio	2023-12-06T00:00:00	2024-11-06T07:00:00	6	Velocidad del viento	6.4
31166	7	Sololá	701	Sololá	3	Barraneche	6	Junio	2023-12-06T00:00:00	2024-11-06T07:00:00	7	Dirección del viento	6.44
31167	7	Sololá	701	Sololá	3	Barraneche	6	Junio	2023-12-06T00:00:00	2024-11-06T07:00:00	1	Precipitación	0
31168	7	Sololá	701	Sololá	3	Barraneche	6	Junio	2023-12-06T00:00:00	2024-11-06T07:00:00	8	Radiación solar	149
31169	7	Sololá	701	Sololá	3	Barraneche	6	Junio	2023-12-06T00:00:00	2024-11-06T08:00:00	2	Temperatura media	18
31170	7	Sololá	701	Sololá	3	Barraneche	6	Junio	2023-12-06T00:00:00	2024-11-06T08:00:00	4	Temperatura máxima	18
31171	7	Sololá	701	Sololá	3	Barraneche	6	Junio	2023-12-06T00:00:00	2024-11-06T08:00:00	3	Temperatura mínima	16.4
31172	7	Sololá	701	Sololá	3	Barraneche	6	Junio	2023-12-06T00:00:00	2024-11-06T08:00:00	5	Humedad	53
31173	7	Sololá	701	Sololá	3	Barraneche	6	Junio	2023-12-06T00:00:00	2024-11-06T08:00:00	6	Velocidad del viento	11.3
31174	7	Sololá	701	Sololá	3	Barraneche	6	Junio	2023-12-06T00:00:00	2024-11-06T08:00:00	7	Dirección del viento	11.27
31175	7	Sololá	701	Sololá	3	Barraneche	6	Junio	2023-12-06T00:00:00	2024-11-06T08:00:00	1	Precipitación	0
31176	7	Sololá	701	Sololá	3	Barraneche	6	Junio	2023-12-06T00:00:00	2024-11-06T08:00:00	8	Radiación solar	406
31177	7	Sololá	701	Sololá	3	Barraneche	6	Junio	2023-12-06T00:00:00	2024-11-06T09:00:00	2	Temperatura media	18.9
31178	7	Sololá	701	Sololá	3	Barraneche	6	Junio	2023-12-06T00:00:00	2024-11-06T09:00:00	4	Temperatura máxima	19.1
31179	7	Sololá	701	Sololá	3	Barraneche	6	Junio	2023-12-06T00:00:00	2024-11-06T09:00:00	3	Temperatura mínima	17.9
31180	7	Sololá	701	Sololá	3	Barraneche	6	Junio	2023-12-06T00:00:00	2024-11-06T09:00:00	5	Humedad	50
31181	7	Sololá	701	Sololá	3	Barraneche	6	Junio	2023-12-06T00:00:00	2024-11-06T09:00:00	6	Velocidad del viento	14.5
31182	7	Sololá	701	Sololá	3	Barraneche	6	Junio	2023-12-06T00:00:00	2024-11-06T09:00:00	7	Dirección del viento	14.48
31183	7	Sololá	701	Sololá	3	Barraneche	6	Junio	2023-12-06T00:00:00	2024-11-06T09:00:00	1	Precipitación	0
31184	7	Sololá	701	Sololá	3	Barraneche	6	Junio	2023-12-06T00:00:00	2024-11-06T09:00:00	8	Radiación solar	622
31185	7	Sololá	701	Sololá	3	Barraneche	6	Junio	2023-12-06T00:00:00	2024-11-06T10:00:00	2	Temperatura media	20.5
31186	7	Sololá	701	Sololá	3	Barraneche	6	Junio	2023-12-06T00:00:00	2024-11-06T10:00:00	4	Temperatura máxima	20.5
31187	7	Sololá	701	Sololá	3	Barraneche	6	Junio	2023-12-06T00:00:00	2024-11-06T10:00:00	3	Temperatura mínima	18.9
31188	7	Sololá	701	Sololá	3	Barraneche	6	Junio	2023-12-06T00:00:00	2024-11-06T10:00:00	5	Humedad	48
31189	7	Sololá	701	Sololá	3	Barraneche	6	Junio	2023-12-06T00:00:00	2024-11-06T10:00:00	6	Velocidad del viento	12.9
31190	7	Sololá	701	Sololá	3	Barraneche	6	Junio	2023-12-06T00:00:00	2024-11-06T10:00:00	7	Dirección del viento	12.87
31191	7	Sololá	701	Sololá	3	Barraneche	6	Junio	2023-12-06T00:00:00	2024-11-06T10:00:00	1	Precipitación	0
31192	7	Sololá	701	Sololá	3	Barraneche	6	Junio	2023-12-06T00:00:00	2024-11-06T10:00:00	8	Radiación solar	806
31193	7	Sololá	701	Sololá	3	Barraneche	6	Junio	2023-12-06T00:00:00	2024-11-06T11:00:00	2	Temperatura media	21.3
31194	7	Sololá	701	Sololá	3	Barraneche	6	Junio	2023-12-06T00:00:00	2024-11-06T11:00:00	4	Temperatura máxima	21.3
31195	7	Sololá	701	Sololá	3	Barraneche	6	Junio	2023-12-06T00:00:00	2024-11-06T11:00:00	3	Temperatura mínima	20.4
31196	7	Sololá	701	Sololá	3	Barraneche	6	Junio	2023-12-06T00:00:00	2024-11-06T11:00:00	5	Humedad	46
31197	7	Sololá	701	Sololá	3	Barraneche	6	Junio	2023-12-06T00:00:00	2024-11-06T11:00:00	6	Velocidad del viento	14.5
31198	7	Sololá	701	Sololá	3	Barraneche	6	Junio	2023-12-06T00:00:00	2024-11-06T11:00:00	7	Dirección del viento	14.48
31199	7	Sololá	701	Sololá	3	Barraneche	6	Junio	2023-12-06T00:00:00	2024-11-06T11:00:00	1	Precipitación	0
31200	7	Sololá	701	Sololá	3	Barraneche	6	Junio	2023-12-06T00:00:00	2024-11-06T11:00:00	8	Radiación solar	930
31201	7	Sololá	701	Sololá	3	Barraneche	6	Junio	2023-12-06T00:00:00	2024-11-06T12:00:00	2	Temperatura media	21.9
31202	7	Sololá	701	Sololá	3	Barraneche	6	Junio	2023-12-06T00:00:00	2024-11-06T12:00:00	4	Temperatura máxima	21.9
31203	7	Sololá	701	Sololá	3	Barraneche	6	Junio	2023-12-06T00:00:00	2024-11-06T12:00:00	3	Temperatura mínima	20.9
31204	7	Sololá	701	Sololá	3	Barraneche	6	Junio	2023-12-06T00:00:00	2024-11-06T12:00:00	5	Humedad	44
31205	7	Sololá	701	Sololá	3	Barraneche	6	Junio	2023-12-06T00:00:00	2024-11-06T12:00:00	6	Velocidad del viento	16.1
31206	7	Sololá	701	Sololá	3	Barraneche	6	Junio	2023-12-06T00:00:00	2024-11-06T12:00:00	7	Dirección del viento	16.09
31207	7	Sololá	701	Sololá	3	Barraneche	6	Junio	2023-12-06T00:00:00	2024-11-06T12:00:00	1	Precipitación	0
31208	7	Sololá	701	Sololá	3	Barraneche	6	Junio	2023-12-06T00:00:00	2024-11-06T12:00:00	8	Radiación solar	1008
31209	7	Sololá	701	Sololá	3	Barraneche	6	Junio	2023-12-06T00:00:00	2024-11-06T13:00:00	2	Temperatura media	22.2
31210	7	Sololá	701	Sololá	3	Barraneche	6	Junio	2023-12-06T00:00:00	2024-11-06T13:00:00	4	Temperatura máxima	22.3
31211	7	Sololá	701	Sololá	3	Barraneche	6	Junio	2023-12-06T00:00:00	2024-11-06T13:00:00	3	Temperatura mínima	21.7
31212	7	Sololá	701	Sololá	3	Barraneche	6	Junio	2023-12-06T00:00:00	2024-11-06T13:00:00	5	Humedad	42
31213	7	Sololá	701	Sololá	3	Barraneche	6	Junio	2023-12-06T00:00:00	2024-11-06T13:00:00	6	Velocidad del viento	11.3
31214	7	Sololá	701	Sololá	3	Barraneche	6	Junio	2023-12-06T00:00:00	2024-11-06T13:00:00	7	Dirección del viento	11.27
31215	7	Sololá	701	Sololá	3	Barraneche	6	Junio	2023-12-06T00:00:00	2024-11-06T13:00:00	1	Precipitación	0
31216	7	Sololá	701	Sololá	3	Barraneche	6	Junio	2023-12-06T00:00:00	2024-11-06T13:00:00	8	Radiación solar	933
31217	7	Sololá	701	Sololá	3	Barraneche	6	Junio	2023-12-06T00:00:00	2024-11-06T14:00:00	2	Temperatura media	22.5
31218	7	Sololá	701	Sololá	3	Barraneche	6	Junio	2023-12-06T00:00:00	2024-11-06T14:00:00	4	Temperatura máxima	22.7
31219	7	Sololá	701	Sololá	3	Barraneche	6	Junio	2023-12-06T00:00:00	2024-11-06T14:00:00	3	Temperatura mínima	21.7
31220	7	Sololá	701	Sololá	3	Barraneche	6	Junio	2023-12-06T00:00:00	2024-11-06T14:00:00	5	Humedad	39
31221	7	Sololá	701	Sololá	3	Barraneche	6	Junio	2023-12-06T00:00:00	2024-11-06T14:00:00	6	Velocidad del viento	12.9
31222	7	Sololá	701	Sololá	3	Barraneche	6	Junio	2023-12-06T00:00:00	2024-11-06T14:00:00	7	Dirección del viento	12.87
31223	7	Sololá	701	Sololá	3	Barraneche	6	Junio	2023-12-06T00:00:00	2024-11-06T14:00:00	1	Precipitación	0
31224	7	Sololá	701	Sololá	3	Barraneche	6	Junio	2023-12-06T00:00:00	2024-11-06T14:00:00	8	Radiación solar	892
31225	7	Sololá	701	Sololá	3	Barraneche	6	Junio	2023-12-06T00:00:00	2024-11-06T15:00:00	2	Temperatura media	22.3
31226	7	Sololá	701	Sololá	3	Barraneche	6	Junio	2023-12-06T00:00:00	2024-11-06T15:00:00	4	Temperatura máxima	22.7
31227	7	Sololá	701	Sololá	3	Barraneche	6	Junio	2023-12-06T00:00:00	2024-11-06T15:00:00	3	Temperatura mínima	21.5
31228	7	Sololá	701	Sololá	3	Barraneche	6	Junio	2023-12-06T00:00:00	2024-11-06T15:00:00	5	Humedad	57
31229	7	Sololá	701	Sololá	3	Barraneche	6	Junio	2023-12-06T00:00:00	2024-11-06T15:00:00	6	Velocidad del viento	12.9
31230	7	Sololá	701	Sololá	3	Barraneche	6	Junio	2023-12-06T00:00:00	2024-11-06T15:00:00	7	Dirección del viento	12.87
31231	7	Sololá	701	Sololá	3	Barraneche	6	Junio	2023-12-06T00:00:00	2024-11-06T15:00:00	1	Precipitación	0
31232	7	Sololá	701	Sololá	3	Barraneche	6	Junio	2023-12-06T00:00:00	2024-11-06T15:00:00	8	Radiación solar	714
31233	7	Sololá	701	Sololá	3	Barraneche	6	Junio	2023-12-06T00:00:00	2024-11-06T16:00:00	2	Temperatura media	19.3
31234	7	Sololá	701	Sololá	3	Barraneche	6	Junio	2023-12-06T00:00:00	2024-11-06T16:00:00	4	Temperatura máxima	22.3
31235	7	Sololá	701	Sololá	3	Barraneche	6	Junio	2023-12-06T00:00:00	2024-11-06T16:00:00	3	Temperatura mínima	19.3
31236	7	Sololá	701	Sololá	3	Barraneche	6	Junio	2023-12-06T00:00:00	2024-11-06T16:00:00	5	Humedad	67
31237	7	Sololá	701	Sololá	3	Barraneche	6	Junio	2023-12-06T00:00:00	2024-11-06T16:00:00	6	Velocidad del viento	14.5
31238	7	Sololá	701	Sololá	3	Barraneche	6	Junio	2023-12-06T00:00:00	2024-11-06T16:00:00	7	Dirección del viento	14.48
31239	7	Sololá	701	Sololá	3	Barraneche	6	Junio	2023-12-06T00:00:00	2024-11-06T16:00:00	1	Precipitación	0
31240	7	Sololá	701	Sololá	3	Barraneche	6	Junio	2023-12-06T00:00:00	2024-11-06T16:00:00	8	Radiación solar	466
31241	7	Sololá	701	Sololá	3	Barraneche	6	Junio	2023-12-06T00:00:00	2024-11-06T17:00:00	2	Temperatura media	18.7
31242	7	Sololá	701	Sololá	3	Barraneche	6	Junio	2023-12-06T00:00:00	2024-11-06T17:00:00	4	Temperatura máxima	20.1
31243	7	Sololá	701	Sololá	3	Barraneche	6	Junio	2023-12-06T00:00:00	2024-11-06T17:00:00	3	Temperatura mínima	18.4
31244	7	Sololá	701	Sololá	3	Barraneche	6	Junio	2023-12-06T00:00:00	2024-11-06T17:00:00	5	Humedad	67
31245	7	Sololá	701	Sololá	3	Barraneche	6	Junio	2023-12-06T00:00:00	2024-11-06T17:00:00	6	Velocidad del viento	9.7
31246	7	Sololá	701	Sololá	3	Barraneche	6	Junio	2023-12-06T00:00:00	2024-11-06T17:00:00	7	Dirección del viento	9.66
31247	7	Sololá	701	Sololá	3	Barraneche	6	Junio	2023-12-06T00:00:00	2024-11-06T17:00:00	1	Precipitación	0
31248	7	Sololá	701	Sololá	3	Barraneche	6	Junio	2023-12-06T00:00:00	2024-11-06T17:00:00	8	Radiación solar	259
31249	7	Sololá	701	Sololá	3	Barraneche	6	Junio	2023-12-06T00:00:00	2024-11-06T18:00:00	2	Temperatura media	16.9
31250	7	Sololá	701	Sololá	3	Barraneche	6	Junio	2023-12-06T00:00:00	2024-11-06T18:00:00	4	Temperatura máxima	18.8
31251	7	Sololá	701	Sololá	3	Barraneche	6	Junio	2023-12-06T00:00:00	2024-11-06T18:00:00	3	Temperatura mínima	16.9
31252	7	Sololá	701	Sololá	3	Barraneche	6	Junio	2023-12-06T00:00:00	2024-11-06T18:00:00	5	Humedad	76
31253	7	Sololá	701	Sololá	3	Barraneche	6	Junio	2023-12-06T00:00:00	2024-11-06T18:00:00	6	Velocidad del viento	9.7
31254	7	Sololá	701	Sololá	3	Barraneche	6	Junio	2023-12-06T00:00:00	2024-11-06T18:00:00	7	Dirección del viento	9.66
31255	7	Sololá	701	Sololá	3	Barraneche	6	Junio	2023-12-06T00:00:00	2024-11-06T18:00:00	1	Precipitación	0
31256	7	Sololá	701	Sololá	3	Barraneche	6	Junio	2023-12-06T00:00:00	2024-11-06T18:00:00	8	Radiación solar	52
31257	7	Sololá	701	Sololá	3	Barraneche	6	Junio	2023-12-06T00:00:00	2024-11-06T19:00:00	2	Temperatura media	18.4
31258	7	Sololá	701	Sololá	3	Barraneche	6	Junio	2023-12-06T00:00:00	2024-11-06T19:00:00	4	Temperatura máxima	18.5
31259	7	Sololá	701	Sololá	3	Barraneche	6	Junio	2023-12-06T00:00:00	2024-11-06T19:00:00	3	Temperatura mínima	16.7
31260	7	Sololá	701	Sololá	3	Barraneche	6	Junio	2023-12-06T00:00:00	2024-11-06T19:00:00	5	Humedad	53
31261	7	Sololá	701	Sololá	3	Barraneche	6	Junio	2023-12-06T00:00:00	2024-11-06T19:00:00	6	Velocidad del viento	6.4
31262	7	Sololá	701	Sololá	3	Barraneche	6	Junio	2023-12-06T00:00:00	2024-11-06T19:00:00	7	Dirección del viento	6.44
31263	7	Sololá	701	Sololá	3	Barraneche	6	Junio	2023-12-06T00:00:00	2024-11-06T19:00:00	1	Precipitación	0
31264	7	Sololá	701	Sololá	3	Barraneche	6	Junio	2023-12-06T00:00:00	2024-11-06T19:00:00	8	Radiación solar	0
31265	7	Sololá	701	Sololá	3	Barraneche	6	Junio	2023-12-06T00:00:00	2024-11-06T20:00:00	2	Temperatura media	17.6
31266	7	Sololá	701	Sololá	3	Barraneche	6	Junio	2023-12-06T00:00:00	2024-11-06T20:00:00	4	Temperatura máxima	18.4
31267	7	Sololá	701	Sololá	3	Barraneche	6	Junio	2023-12-06T00:00:00	2024-11-06T20:00:00	3	Temperatura mínima	17.6
31268	7	Sololá	701	Sololá	3	Barraneche	6	Junio	2023-12-06T00:00:00	2024-11-06T20:00:00	5	Humedad	57
31269	7	Sololá	701	Sololá	3	Barraneche	6	Junio	2023-12-06T00:00:00	2024-11-06T20:00:00	6	Velocidad del viento	11.3
31270	7	Sololá	701	Sololá	3	Barraneche	6	Junio	2023-12-06T00:00:00	2024-11-06T20:00:00	7	Dirección del viento	11.27
31271	7	Sololá	701	Sololá	3	Barraneche	6	Junio	2023-12-06T00:00:00	2024-11-06T20:00:00	1	Precipitación	0
31272	7	Sololá	701	Sololá	3	Barraneche	6	Junio	2023-12-06T00:00:00	2024-11-06T20:00:00	8	Radiación solar	0
31273	7	Sololá	701	Sololá	3	Barraneche	6	Junio	2023-12-06T00:00:00	2024-11-06T21:00:00	2	Temperatura media	17.1
31274	7	Sololá	701	Sololá	3	Barraneche	6	Junio	2023-12-06T00:00:00	2024-11-06T21:00:00	4	Temperatura máxima	17.7
31275	7	Sololá	701	Sololá	3	Barraneche	6	Junio	2023-12-06T00:00:00	2024-11-06T21:00:00	3	Temperatura mínima	17
31276	7	Sololá	701	Sololá	3	Barraneche	6	Junio	2023-12-06T00:00:00	2024-11-06T21:00:00	5	Humedad	63
31277	7	Sololá	701	Sololá	3	Barraneche	6	Junio	2023-12-06T00:00:00	2024-11-06T21:00:00	6	Velocidad del viento	11.3
31278	7	Sololá	701	Sololá	3	Barraneche	6	Junio	2023-12-06T00:00:00	2024-11-06T21:00:00	7	Dirección del viento	11.27
31279	7	Sololá	701	Sololá	3	Barraneche	6	Junio	2023-12-06T00:00:00	2024-11-06T21:00:00	1	Precipitación	0
31280	7	Sololá	701	Sololá	3	Barraneche	6	Junio	2023-12-06T00:00:00	2024-11-06T21:00:00	8	Radiación solar	0
31281	7	Sololá	701	Sololá	3	Barraneche	6	Junio	2023-12-06T00:00:00	2024-11-06T22:00:00	2	Temperatura media	16.8
31282	7	Sololá	701	Sololá	3	Barraneche	6	Junio	2023-12-06T00:00:00	2024-11-06T22:00:00	4	Temperatura máxima	17.1
31283	7	Sololá	701	Sololá	3	Barraneche	6	Junio	2023-12-06T00:00:00	2024-11-06T22:00:00	3	Temperatura mínima	16.8
31284	7	Sololá	701	Sololá	3	Barraneche	6	Junio	2023-12-06T00:00:00	2024-11-06T22:00:00	5	Humedad	64
31285	7	Sololá	701	Sololá	3	Barraneche	6	Junio	2023-12-06T00:00:00	2024-11-06T22:00:00	6	Velocidad del viento	16.1
31286	7	Sololá	701	Sololá	3	Barraneche	6	Junio	2023-12-06T00:00:00	2024-11-06T22:00:00	7	Dirección del viento	16.09
31287	7	Sololá	701	Sololá	3	Barraneche	6	Junio	2023-12-06T00:00:00	2024-11-06T22:00:00	1	Precipitación	0
31288	7	Sololá	701	Sololá	3	Barraneche	6	Junio	2023-12-06T00:00:00	2024-11-06T22:00:00	8	Radiación solar	0
31289	7	Sololá	701	Sololá	3	Barraneche	6	Junio	2023-12-06T00:00:00	2024-11-06T23:00:00	2	Temperatura media	16.4
31290	7	Sololá	701	Sololá	3	Barraneche	6	Junio	2023-12-06T00:00:00	2024-11-06T23:00:00	4	Temperatura máxima	16.8
31291	7	Sololá	701	Sololá	3	Barraneche	6	Junio	2023-12-06T00:00:00	2024-11-06T23:00:00	3	Temperatura mínima	16.4
31292	7	Sololá	701	Sololá	3	Barraneche	6	Junio	2023-12-06T00:00:00	2024-11-06T23:00:00	5	Humedad	63
31293	7	Sololá	701	Sololá	3	Barraneche	6	Junio	2023-12-06T00:00:00	2024-11-06T23:00:00	6	Velocidad del viento	8
31294	7	Sololá	701	Sololá	3	Barraneche	6	Junio	2023-12-06T00:00:00	2024-11-06T23:00:00	7	Dirección del viento	8.05
31295	7	Sololá	701	Sololá	3	Barraneche	6	Junio	2023-12-06T00:00:00	2024-11-06T23:00:00	1	Precipitación	0
31296	7	Sololá	701	Sololá	3	Barraneche	6	Junio	2023-12-06T00:00:00	2024-11-06T23:00:00	8	Radiación solar	0
31297	7	Sololá	701	Sololá	3	Barraneche	6	Junio	2023-06-13T00:00:00	2024-11-06T00:00:00	2	Temperatura media	16
31298	7	Sololá	701	Sololá	3	Barraneche	6	Junio	2023-06-13T00:00:00	2024-11-06T00:00:00	4	Temperatura máxima	16.4
31299	7	Sololá	701	Sololá	3	Barraneche	6	Junio	2023-06-13T00:00:00	2024-11-06T00:00:00	3	Temperatura mínima	15.9
31300	7	Sololá	701	Sololá	3	Barraneche	6	Junio	2023-06-13T00:00:00	2024-11-06T00:00:00	5	Humedad	63
31301	7	Sololá	701	Sololá	3	Barraneche	6	Junio	2023-06-13T00:00:00	2024-11-06T00:00:00	6	Velocidad del viento	8
31302	7	Sololá	701	Sololá	3	Barraneche	6	Junio	2023-06-13T00:00:00	2024-11-06T00:00:00	7	Dirección del viento	8.05
31303	7	Sololá	701	Sololá	3	Barraneche	6	Junio	2023-06-13T00:00:00	2024-11-06T00:00:00	1	Precipitación	0
31304	7	Sololá	701	Sololá	3	Barraneche	6	Junio	2023-06-13T00:00:00	2024-11-06T00:00:00	8	Radiación solar	0
31305	7	Sololá	701	Sololá	3	Barraneche	6	Junio	2023-06-13T00:00:00	2024-11-06T01:00:00	2	Temperatura media	15.8
31306	7	Sololá	701	Sololá	3	Barraneche	6	Junio	2023-06-13T00:00:00	2024-11-06T01:00:00	4	Temperatura máxima	16.1
31307	7	Sololá	701	Sololá	3	Barraneche	6	Junio	2023-06-13T00:00:00	2024-11-06T01:00:00	3	Temperatura mínima	15.7
31308	7	Sololá	701	Sololá	3	Barraneche	6	Junio	2023-06-13T00:00:00	2024-11-06T01:00:00	5	Humedad	62
31309	7	Sololá	701	Sololá	3	Barraneche	6	Junio	2023-06-13T00:00:00	2024-11-06T01:00:00	6	Velocidad del viento	9.7
31310	7	Sololá	701	Sololá	3	Barraneche	6	Junio	2023-06-13T00:00:00	2024-11-06T01:00:00	7	Dirección del viento	9.66
31311	7	Sololá	701	Sololá	3	Barraneche	6	Junio	2023-06-13T00:00:00	2024-11-06T01:00:00	1	Precipitación	0
31312	7	Sololá	701	Sololá	3	Barraneche	6	Junio	2023-06-13T00:00:00	2024-11-06T01:00:00	8	Radiación solar	0
31313	7	Sololá	701	Sololá	3	Barraneche	6	Junio	2023-06-13T00:00:00	2024-11-06T02:00:00	2	Temperatura media	14.4
31314	7	Sololá	701	Sololá	3	Barraneche	6	Junio	2023-06-13T00:00:00	2024-11-06T02:00:00	4	Temperatura máxima	15.8
31315	7	Sololá	701	Sololá	3	Barraneche	6	Junio	2023-06-13T00:00:00	2024-11-06T02:00:00	3	Temperatura mínima	14.4
31316	7	Sololá	701	Sololá	3	Barraneche	6	Junio	2023-06-13T00:00:00	2024-11-06T02:00:00	5	Humedad	63
31317	7	Sololá	701	Sololá	3	Barraneche	6	Junio	2023-06-13T00:00:00	2024-11-06T02:00:00	6	Velocidad del viento	4.8
31318	7	Sololá	701	Sololá	3	Barraneche	6	Junio	2023-06-13T00:00:00	2024-11-06T02:00:00	7	Dirección del viento	4.83
31319	7	Sololá	701	Sololá	3	Barraneche	6	Junio	2023-06-13T00:00:00	2024-11-06T02:00:00	1	Precipitación	0
31320	7	Sololá	701	Sololá	3	Barraneche	6	Junio	2023-06-13T00:00:00	2024-11-06T02:00:00	8	Radiación solar	0
31321	7	Sololá	701	Sololá	3	Barraneche	6	Junio	2023-06-13T00:00:00	2024-11-06T03:00:00	2	Temperatura media	15.6
31322	7	Sololá	701	Sololá	3	Barraneche	6	Junio	2023-06-13T00:00:00	2024-11-06T03:00:00	4	Temperatura máxima	15.6
31323	7	Sololá	701	Sololá	3	Barraneche	6	Junio	2023-06-13T00:00:00	2024-11-06T03:00:00	3	Temperatura mínima	13.3
31324	7	Sololá	701	Sololá	3	Barraneche	6	Junio	2023-06-13T00:00:00	2024-11-06T03:00:00	5	Humedad	53
31325	7	Sololá	701	Sololá	3	Barraneche	6	Junio	2023-06-13T00:00:00	2024-11-06T03:00:00	6	Velocidad del viento	4.8
31326	7	Sololá	701	Sololá	3	Barraneche	6	Junio	2023-06-13T00:00:00	2024-11-06T03:00:00	7	Dirección del viento	4.83
31327	7	Sololá	701	Sololá	3	Barraneche	6	Junio	2023-06-13T00:00:00	2024-11-06T03:00:00	1	Precipitación	0
31328	7	Sololá	701	Sololá	3	Barraneche	6	Junio	2023-06-13T00:00:00	2024-11-06T03:00:00	8	Radiación solar	0
31329	7	Sololá	701	Sololá	3	Barraneche	6	Junio	2023-06-13T00:00:00	2024-11-06T04:00:00	2	Temperatura media	15.8
31330	7	Sololá	701	Sololá	3	Barraneche	6	Junio	2023-06-13T00:00:00	2024-11-06T04:00:00	4	Temperatura máxima	16.1
31331	7	Sololá	701	Sololá	3	Barraneche	6	Junio	2023-06-13T00:00:00	2024-11-06T04:00:00	3	Temperatura mínima	15.6
31332	7	Sololá	701	Sololá	3	Barraneche	6	Junio	2023-06-13T00:00:00	2024-11-06T04:00:00	5	Humedad	36
31333	7	Sololá	701	Sololá	3	Barraneche	6	Junio	2023-06-13T00:00:00	2024-11-06T04:00:00	6	Velocidad del viento	6.4
31334	7	Sololá	701	Sololá	3	Barraneche	6	Junio	2023-06-13T00:00:00	2024-11-06T04:00:00	7	Dirección del viento	6.44
31335	7	Sololá	701	Sololá	3	Barraneche	6	Junio	2023-06-13T00:00:00	2024-11-06T04:00:00	1	Precipitación	0
31336	7	Sololá	701	Sololá	3	Barraneche	6	Junio	2023-06-13T00:00:00	2024-11-06T04:00:00	8	Radiación solar	0
31337	7	Sololá	701	Sololá	3	Barraneche	6	Junio	2023-06-13T00:00:00	2024-11-06T05:00:00	2	Temperatura media	16.5
31338	7	Sololá	701	Sololá	3	Barraneche	6	Junio	2023-06-13T00:00:00	2024-11-06T05:00:00	4	Temperatura máxima	16.8
31339	7	Sololá	701	Sololá	3	Barraneche	6	Junio	2023-06-13T00:00:00	2024-11-06T05:00:00	3	Temperatura mínima	15.8
31340	7	Sololá	701	Sololá	3	Barraneche	6	Junio	2023-06-13T00:00:00	2024-11-06T05:00:00	5	Humedad	40
31341	7	Sololá	701	Sololá	3	Barraneche	6	Junio	2023-06-13T00:00:00	2024-11-06T05:00:00	6	Velocidad del viento	16.1
31342	7	Sololá	701	Sololá	3	Barraneche	6	Junio	2023-06-13T00:00:00	2024-11-06T05:00:00	7	Dirección del viento	16.09
31343	7	Sololá	701	Sololá	3	Barraneche	6	Junio	2023-06-13T00:00:00	2024-11-06T05:00:00	1	Precipitación	0
31344	7	Sololá	701	Sololá	3	Barraneche	6	Junio	2023-06-13T00:00:00	2024-11-06T05:00:00	8	Radiación solar	0
31345	7	Sololá	701	Sololá	3	Barraneche	6	Junio	2023-06-13T00:00:00	2024-11-06T06:00:00	2	Temperatura media	16.5
31346	7	Sololá	701	Sololá	3	Barraneche	6	Junio	2023-06-13T00:00:00	2024-11-06T06:00:00	4	Temperatura máxima	16.7
31347	7	Sololá	701	Sololá	3	Barraneche	6	Junio	2023-06-13T00:00:00	2024-11-06T06:00:00	3	Temperatura mínima	16.4
31348	7	Sololá	701	Sololá	3	Barraneche	6	Junio	2023-06-13T00:00:00	2024-11-06T06:00:00	5	Humedad	39
31349	7	Sololá	701	Sololá	3	Barraneche	6	Junio	2023-06-13T00:00:00	2024-11-06T06:00:00	6	Velocidad del viento	20.9
31350	7	Sololá	701	Sololá	3	Barraneche	6	Junio	2023-06-13T00:00:00	2024-11-06T06:00:00	7	Dirección del viento	20.92
31351	7	Sololá	701	Sololá	3	Barraneche	6	Junio	2023-06-13T00:00:00	2024-11-06T06:00:00	1	Precipitación	0
31352	7	Sololá	701	Sololá	3	Barraneche	6	Junio	2023-06-13T00:00:00	2024-11-06T06:00:00	8	Radiación solar	8
31353	7	Sololá	701	Sololá	3	Barraneche	6	Junio	2023-06-13T00:00:00	2024-11-06T07:00:00	2	Temperatura media	15.8
31354	7	Sololá	701	Sololá	3	Barraneche	6	Junio	2023-06-13T00:00:00	2024-11-06T07:00:00	4	Temperatura máxima	16.7
31355	7	Sololá	701	Sololá	3	Barraneche	6	Junio	2023-06-13T00:00:00	2024-11-06T07:00:00	3	Temperatura mínima	15.8
31356	7	Sololá	701	Sololá	3	Barraneche	6	Junio	2023-06-13T00:00:00	2024-11-06T07:00:00	5	Humedad	58
31357	7	Sololá	701	Sololá	3	Barraneche	6	Junio	2023-06-13T00:00:00	2024-11-06T07:00:00	6	Velocidad del viento	19.3
31358	7	Sololá	701	Sololá	3	Barraneche	6	Junio	2023-06-13T00:00:00	2024-11-06T07:00:00	7	Dirección del viento	19.31
31359	7	Sololá	701	Sololá	3	Barraneche	6	Junio	2023-06-13T00:00:00	2024-11-06T07:00:00	1	Precipitación	0
31360	7	Sololá	701	Sololá	3	Barraneche	6	Junio	2023-06-13T00:00:00	2024-11-06T07:00:00	8	Radiación solar	97
31361	7	Sololá	701	Sololá	3	Barraneche	6	Junio	2023-06-13T00:00:00	2024-11-06T08:00:00	2	Temperatura media	17.7
31362	7	Sololá	701	Sololá	3	Barraneche	6	Junio	2023-06-13T00:00:00	2024-11-06T08:00:00	4	Temperatura máxima	17.7
31363	7	Sololá	701	Sololá	3	Barraneche	6	Junio	2023-06-13T00:00:00	2024-11-06T08:00:00	3	Temperatura mínima	15.8
31364	7	Sololá	701	Sololá	3	Barraneche	6	Junio	2023-06-13T00:00:00	2024-11-06T08:00:00	5	Humedad	49
31365	7	Sololá	701	Sololá	3	Barraneche	6	Junio	2023-06-13T00:00:00	2024-11-06T08:00:00	6	Velocidad del viento	19.3
31366	7	Sololá	701	Sololá	3	Barraneche	6	Junio	2023-06-13T00:00:00	2024-11-06T08:00:00	7	Dirección del viento	19.31
31367	7	Sololá	701	Sololá	3	Barraneche	6	Junio	2023-06-13T00:00:00	2024-11-06T08:00:00	1	Precipitación	0
31368	7	Sololá	701	Sololá	3	Barraneche	6	Junio	2023-06-13T00:00:00	2024-11-06T08:00:00	8	Radiación solar	299
31369	7	Sololá	701	Sololá	3	Barraneche	6	Junio	2023-06-13T00:00:00	2024-11-06T09:00:00	2	Temperatura media	19.4
31370	7	Sololá	701	Sololá	3	Barraneche	6	Junio	2023-06-13T00:00:00	2024-11-06T09:00:00	4	Temperatura máxima	19.4
31371	7	Sololá	701	Sololá	3	Barraneche	6	Junio	2023-06-13T00:00:00	2024-11-06T09:00:00	3	Temperatura mínima	17.6
31372	7	Sololá	701	Sololá	3	Barraneche	6	Junio	2023-06-13T00:00:00	2024-11-06T09:00:00	5	Humedad	39
31373	7	Sololá	701	Sololá	3	Barraneche	6	Junio	2023-06-13T00:00:00	2024-11-06T09:00:00	6	Velocidad del viento	17.7
31374	7	Sololá	701	Sololá	3	Barraneche	6	Junio	2023-06-13T00:00:00	2024-11-06T09:00:00	7	Dirección del viento	17.7
31375	7	Sololá	701	Sololá	3	Barraneche	6	Junio	2023-06-13T00:00:00	2024-11-06T09:00:00	1	Precipitación	0
31376	7	Sololá	701	Sololá	3	Barraneche	6	Junio	2023-06-13T00:00:00	2024-11-06T09:00:00	8	Radiación solar	605
31377	7	Sololá	701	Sololá	3	Barraneche	6	Junio	2023-06-13T00:00:00	2024-11-06T10:00:00	2	Temperatura media	19.3
31378	7	Sololá	701	Sololá	3	Barraneche	6	Junio	2023-06-13T00:00:00	2024-11-06T10:00:00	4	Temperatura máxima	19.4
31379	7	Sololá	701	Sololá	3	Barraneche	6	Junio	2023-06-13T00:00:00	2024-11-06T10:00:00	3	Temperatura mínima	18.8
31380	7	Sololá	701	Sololá	3	Barraneche	6	Junio	2023-06-13T00:00:00	2024-11-06T10:00:00	5	Humedad	47
31381	7	Sololá	701	Sololá	3	Barraneche	6	Junio	2023-06-13T00:00:00	2024-11-06T10:00:00	6	Velocidad del viento	16.1
31382	7	Sololá	701	Sololá	3	Barraneche	6	Junio	2023-06-13T00:00:00	2024-11-06T10:00:00	7	Dirección del viento	16.09
31383	7	Sololá	701	Sololá	3	Barraneche	6	Junio	2023-06-13T00:00:00	2024-11-06T10:00:00	1	Precipitación	0
31384	7	Sololá	701	Sololá	3	Barraneche	6	Junio	2023-06-13T00:00:00	2024-11-06T10:00:00	8	Radiación solar	704
31385	7	Sololá	701	Sololá	3	Barraneche	6	Junio	2023-06-13T00:00:00	2024-11-06T11:00:00	2	Temperatura media	20.5
31386	7	Sololá	701	Sololá	3	Barraneche	6	Junio	2023-06-13T00:00:00	2024-11-06T11:00:00	4	Temperatura máxima	20.7
31387	7	Sololá	701	Sololá	3	Barraneche	6	Junio	2023-06-13T00:00:00	2024-11-06T11:00:00	3	Temperatura mínima	19.3
31388	7	Sololá	701	Sololá	3	Barraneche	6	Junio	2023-06-13T00:00:00	2024-11-06T11:00:00	5	Humedad	41
31389	7	Sololá	701	Sololá	3	Barraneche	6	Junio	2023-06-13T00:00:00	2024-11-06T11:00:00	6	Velocidad del viento	11.3
31390	7	Sololá	701	Sololá	3	Barraneche	6	Junio	2023-06-13T00:00:00	2024-11-06T11:00:00	7	Dirección del viento	11.27
31391	7	Sololá	701	Sololá	3	Barraneche	6	Junio	2023-06-13T00:00:00	2024-11-06T11:00:00	1	Precipitación	0
31392	7	Sololá	701	Sololá	3	Barraneche	6	Junio	2023-06-13T00:00:00	2024-11-06T11:00:00	8	Radiación solar	885
31393	7	Sololá	701	Sololá	3	Barraneche	6	Junio	2023-06-13T00:00:00	2024-11-06T12:00:00	2	Temperatura media	21.6
31394	7	Sololá	701	Sololá	3	Barraneche	6	Junio	2023-06-13T00:00:00	2024-11-06T12:00:00	4	Temperatura máxima	21.6
31395	7	Sololá	701	Sololá	3	Barraneche	6	Junio	2023-06-13T00:00:00	2024-11-06T12:00:00	3	Temperatura mínima	20.5
31396	7	Sololá	701	Sololá	3	Barraneche	6	Junio	2023-06-13T00:00:00	2024-11-06T12:00:00	5	Humedad	38
31397	7	Sololá	701	Sololá	3	Barraneche	6	Junio	2023-06-13T00:00:00	2024-11-06T12:00:00	6	Velocidad del viento	9.7
31398	7	Sololá	701	Sololá	3	Barraneche	6	Junio	2023-06-13T00:00:00	2024-11-06T12:00:00	7	Dirección del viento	9.66
31399	7	Sololá	701	Sololá	3	Barraneche	6	Junio	2023-06-13T00:00:00	2024-11-06T12:00:00	1	Precipitación	0
31400	7	Sololá	701	Sololá	3	Barraneche	6	Junio	2023-06-13T00:00:00	2024-11-06T12:00:00	8	Radiación solar	1026
31401	7	Sololá	701	Sololá	3	Barraneche	6	Junio	2023-06-13T00:00:00	2024-11-06T13:00:00	2	Temperatura media	21.9
31402	7	Sololá	701	Sololá	3	Barraneche	6	Junio	2023-06-13T00:00:00	2024-11-06T13:00:00	4	Temperatura máxima	22.1
31403	7	Sololá	701	Sololá	3	Barraneche	6	Junio	2023-06-13T00:00:00	2024-11-06T13:00:00	3	Temperatura mínima	21.6
31404	7	Sololá	701	Sololá	3	Barraneche	6	Junio	2023-06-13T00:00:00	2024-11-06T13:00:00	5	Humedad	31
31405	7	Sololá	701	Sololá	3	Barraneche	6	Junio	2023-06-13T00:00:00	2024-11-06T13:00:00	6	Velocidad del viento	11.3
31406	7	Sololá	701	Sololá	3	Barraneche	6	Junio	2023-06-13T00:00:00	2024-11-06T13:00:00	7	Dirección del viento	11.27
31407	7	Sololá	701	Sololá	3	Barraneche	6	Junio	2023-06-13T00:00:00	2024-11-06T13:00:00	1	Precipitación	0
31408	7	Sololá	701	Sololá	3	Barraneche	6	Junio	2023-06-13T00:00:00	2024-11-06T13:00:00	8	Radiación solar	980
31409	7	Sololá	701	Sololá	3	Barraneche	6	Junio	2023-06-13T00:00:00	2024-11-06T14:00:00	2	Temperatura media	22.5
31410	7	Sololá	701	Sololá	3	Barraneche	6	Junio	2023-06-13T00:00:00	2024-11-06T14:00:00	4	Temperatura máxima	22.6
31411	7	Sololá	701	Sololá	3	Barraneche	6	Junio	2023-06-13T00:00:00	2024-11-06T14:00:00	3	Temperatura mínima	21.8
31412	7	Sololá	701	Sololá	3	Barraneche	6	Junio	2023-06-13T00:00:00	2024-11-06T14:00:00	5	Humedad	27
31413	7	Sololá	701	Sololá	3	Barraneche	6	Junio	2023-06-13T00:00:00	2024-11-06T14:00:00	6	Velocidad del viento	11.3
31414	7	Sololá	701	Sololá	3	Barraneche	6	Junio	2023-06-13T00:00:00	2024-11-06T14:00:00	7	Dirección del viento	11.27
31415	7	Sololá	701	Sololá	3	Barraneche	6	Junio	2023-06-13T00:00:00	2024-11-06T14:00:00	1	Precipitación	0
31416	7	Sololá	701	Sololá	3	Barraneche	6	Junio	2023-06-13T00:00:00	2024-11-06T14:00:00	8	Radiación solar	914
31417	7	Sololá	701	Sololá	3	Barraneche	6	Junio	2023-06-13T00:00:00	2024-11-06T15:00:00	2	Temperatura media	19.6
31418	7	Sololá	701	Sololá	3	Barraneche	6	Junio	2023-06-13T00:00:00	2024-11-06T15:00:00	4	Temperatura máxima	22.7
31419	7	Sololá	701	Sololá	3	Barraneche	6	Junio	2023-06-13T00:00:00	2024-11-06T15:00:00	3	Temperatura mínima	19.3
31420	7	Sololá	701	Sololá	3	Barraneche	6	Junio	2023-06-13T00:00:00	2024-11-06T15:00:00	5	Humedad	64
31421	7	Sololá	701	Sololá	3	Barraneche	6	Junio	2023-06-13T00:00:00	2024-11-06T15:00:00	6	Velocidad del viento	14.5
31422	7	Sololá	701	Sololá	3	Barraneche	6	Junio	2023-06-13T00:00:00	2024-11-06T15:00:00	7	Dirección del viento	14.48
31423	7	Sololá	701	Sololá	3	Barraneche	6	Junio	2023-06-13T00:00:00	2024-11-06T15:00:00	1	Precipitación	0
31424	7	Sololá	701	Sololá	3	Barraneche	6	Junio	2023-06-13T00:00:00	2024-11-06T15:00:00	8	Radiación solar	626
31425	7	Sololá	701	Sololá	3	Barraneche	6	Junio	2023-06-13T00:00:00	2024-11-06T16:00:00	2	Temperatura media	18.8
31426	7	Sololá	701	Sololá	3	Barraneche	6	Junio	2023-06-13T00:00:00	2024-11-06T16:00:00	4	Temperatura máxima	19.8
31427	7	Sololá	701	Sololá	3	Barraneche	6	Junio	2023-06-13T00:00:00	2024-11-06T16:00:00	3	Temperatura mínima	18.8
31428	7	Sololá	701	Sololá	3	Barraneche	6	Junio	2023-06-13T00:00:00	2024-11-06T16:00:00	5	Humedad	67
31429	7	Sololá	701	Sololá	3	Barraneche	6	Junio	2023-06-13T00:00:00	2024-11-06T16:00:00	6	Velocidad del viento	12.9
31430	7	Sololá	701	Sololá	3	Barraneche	6	Junio	2023-06-13T00:00:00	2024-11-06T16:00:00	7	Dirección del viento	12.87
31431	7	Sololá	701	Sololá	3	Barraneche	6	Junio	2023-06-13T00:00:00	2024-11-06T16:00:00	1	Precipitación	0
31432	7	Sololá	701	Sololá	3	Barraneche	6	Junio	2023-06-13T00:00:00	2024-11-06T16:00:00	8	Radiación solar	474
31433	7	Sololá	701	Sololá	3	Barraneche	6	Junio	2023-06-13T00:00:00	2024-11-06T17:00:00	2	Temperatura media	17.9
31434	7	Sololá	701	Sololá	3	Barraneche	6	Junio	2023-06-13T00:00:00	2024-11-06T17:00:00	4	Temperatura máxima	18.9
31435	7	Sololá	701	Sololá	3	Barraneche	6	Junio	2023-06-13T00:00:00	2024-11-06T17:00:00	3	Temperatura mínima	17.7
31436	7	Sololá	701	Sololá	3	Barraneche	6	Junio	2023-06-13T00:00:00	2024-11-06T17:00:00	5	Humedad	69
31437	7	Sololá	701	Sololá	3	Barraneche	6	Junio	2023-06-13T00:00:00	2024-11-06T17:00:00	6	Velocidad del viento	8
31438	7	Sololá	701	Sololá	3	Barraneche	6	Junio	2023-06-13T00:00:00	2024-11-06T17:00:00	7	Dirección del viento	8.05
31439	7	Sololá	701	Sololá	3	Barraneche	6	Junio	2023-06-13T00:00:00	2024-11-06T17:00:00	1	Precipitación	0
31440	7	Sololá	701	Sololá	3	Barraneche	6	Junio	2023-06-13T00:00:00	2024-11-06T17:00:00	8	Radiación solar	160
31441	7	Sololá	701	Sololá	3	Barraneche	6	Junio	2023-06-13T00:00:00	2024-11-06T18:00:00	2	Temperatura media	16.9
31442	7	Sololá	701	Sololá	3	Barraneche	6	Junio	2023-06-13T00:00:00	2024-11-06T18:00:00	4	Temperatura máxima	18.3
31443	7	Sololá	701	Sololá	3	Barraneche	6	Junio	2023-06-13T00:00:00	2024-11-06T18:00:00	3	Temperatura mínima	16.9
31444	7	Sololá	701	Sololá	3	Barraneche	6	Junio	2023-06-13T00:00:00	2024-11-06T18:00:00	5	Humedad	73
31445	7	Sololá	701	Sololá	3	Barraneche	6	Junio	2023-06-13T00:00:00	2024-11-06T18:00:00	6	Velocidad del viento	6.4
31446	7	Sololá	701	Sololá	3	Barraneche	6	Junio	2023-06-13T00:00:00	2024-11-06T18:00:00	7	Dirección del viento	6.44
31447	7	Sololá	701	Sololá	3	Barraneche	6	Junio	2023-06-13T00:00:00	2024-11-06T18:00:00	1	Precipitación	0
31448	7	Sololá	701	Sololá	3	Barraneche	6	Junio	2023-06-13T00:00:00	2024-11-06T18:00:00	8	Radiación solar	72
31449	7	Sololá	701	Sololá	3	Barraneche	6	Junio	2023-06-13T00:00:00	2024-11-06T19:00:00	2	Temperatura media	16.6
31450	7	Sololá	701	Sololá	3	Barraneche	6	Junio	2023-06-13T00:00:00	2024-11-06T19:00:00	4	Temperatura máxima	16.9
31451	7	Sololá	701	Sololá	3	Barraneche	6	Junio	2023-06-13T00:00:00	2024-11-06T19:00:00	3	Temperatura mínima	16.6
31452	7	Sololá	701	Sololá	3	Barraneche	6	Junio	2023-06-13T00:00:00	2024-11-06T19:00:00	5	Humedad	75
31453	7	Sololá	701	Sololá	3	Barraneche	6	Junio	2023-06-13T00:00:00	2024-11-06T19:00:00	6	Velocidad del viento	3.2
31454	7	Sololá	701	Sololá	3	Barraneche	6	Junio	2023-06-13T00:00:00	2024-11-06T19:00:00	7	Dirección del viento	3.22
31455	7	Sololá	701	Sololá	3	Barraneche	6	Junio	2023-06-13T00:00:00	2024-11-06T19:00:00	1	Precipitación	0
31456	7	Sololá	701	Sololá	3	Barraneche	6	Junio	2023-06-13T00:00:00	2024-11-06T19:00:00	8	Radiación solar	0
31457	7	Sololá	701	Sololá	3	Barraneche	6	Junio	2023-06-13T00:00:00	2024-11-06T20:00:00	2	Temperatura media	17.1
31458	7	Sololá	701	Sololá	3	Barraneche	6	Junio	2023-06-13T00:00:00	2024-11-06T20:00:00	4	Temperatura máxima	17.7
31459	7	Sololá	701	Sololá	3	Barraneche	6	Junio	2023-06-13T00:00:00	2024-11-06T20:00:00	3	Temperatura mínima	16.3
31460	7	Sololá	701	Sololá	3	Barraneche	6	Junio	2023-06-13T00:00:00	2024-11-06T20:00:00	5	Humedad	64
31461	7	Sololá	701	Sololá	3	Barraneche	6	Junio	2023-06-13T00:00:00	2024-11-06T20:00:00	6	Velocidad del viento	4.8
31462	7	Sololá	701	Sololá	3	Barraneche	6	Junio	2023-06-13T00:00:00	2024-11-06T20:00:00	7	Dirección del viento	4.83
31463	7	Sololá	701	Sololá	3	Barraneche	6	Junio	2023-06-13T00:00:00	2024-11-06T20:00:00	1	Precipitación	0
31464	7	Sololá	701	Sololá	3	Barraneche	6	Junio	2023-06-13T00:00:00	2024-11-06T20:00:00	8	Radiación solar	0
31465	7	Sololá	701	Sololá	3	Barraneche	6	Junio	2023-06-13T00:00:00	2024-11-06T21:00:00	2	Temperatura media	16.8
31466	7	Sololá	701	Sololá	3	Barraneche	6	Junio	2023-06-13T00:00:00	2024-11-06T21:00:00	4	Temperatura máxima	17.3
31467	7	Sololá	701	Sololá	3	Barraneche	6	Junio	2023-06-13T00:00:00	2024-11-06T21:00:00	3	Temperatura mínima	16.8
31468	7	Sololá	701	Sololá	3	Barraneche	6	Junio	2023-06-13T00:00:00	2024-11-06T21:00:00	5	Humedad	64
31469	7	Sololá	701	Sololá	3	Barraneche	6	Junio	2023-06-13T00:00:00	2024-11-06T21:00:00	6	Velocidad del viento	8
31470	7	Sololá	701	Sololá	3	Barraneche	6	Junio	2023-06-13T00:00:00	2024-11-06T21:00:00	7	Dirección del viento	8.05
31471	7	Sololá	701	Sololá	3	Barraneche	6	Junio	2023-06-13T00:00:00	2024-11-06T21:00:00	1	Precipitación	0
31472	7	Sololá	701	Sololá	3	Barraneche	6	Junio	2023-06-13T00:00:00	2024-11-06T21:00:00	8	Radiación solar	0
31473	7	Sololá	701	Sololá	3	Barraneche	6	Junio	2023-06-13T00:00:00	2024-11-06T22:00:00	2	Temperatura media	16.5
31474	7	Sololá	701	Sololá	3	Barraneche	6	Junio	2023-06-13T00:00:00	2024-11-06T22:00:00	4	Temperatura máxima	16.8
31475	7	Sololá	701	Sololá	3	Barraneche	6	Junio	2023-06-13T00:00:00	2024-11-06T22:00:00	3	Temperatura mínima	16.4
31476	7	Sololá	701	Sololá	3	Barraneche	6	Junio	2023-06-13T00:00:00	2024-11-06T22:00:00	5	Humedad	64
31477	7	Sololá	701	Sololá	3	Barraneche	6	Junio	2023-06-13T00:00:00	2024-11-06T22:00:00	6	Velocidad del viento	6.4
31478	7	Sololá	701	Sololá	3	Barraneche	6	Junio	2023-06-13T00:00:00	2024-11-06T22:00:00	7	Dirección del viento	6.44
31479	7	Sololá	701	Sololá	3	Barraneche	6	Junio	2023-06-13T00:00:00	2024-11-06T22:00:00	1	Precipitación	0
31480	7	Sololá	701	Sololá	3	Barraneche	6	Junio	2023-06-13T00:00:00	2024-11-06T22:00:00	8	Radiación solar	0
31481	7	Sololá	701	Sololá	3	Barraneche	6	Junio	2023-06-13T00:00:00	2024-11-06T23:00:00	2	Temperatura media	16.3
31482	7	Sololá	701	Sololá	3	Barraneche	6	Junio	2023-06-13T00:00:00	2024-11-06T23:00:00	4	Temperatura máxima	16.6
31483	7	Sololá	701	Sololá	3	Barraneche	6	Junio	2023-06-13T00:00:00	2024-11-06T23:00:00	3	Temperatura mínima	16
31484	7	Sololá	701	Sololá	3	Barraneche	6	Junio	2023-06-13T00:00:00	2024-11-06T23:00:00	5	Humedad	63
31485	7	Sololá	701	Sololá	3	Barraneche	6	Junio	2023-06-13T00:00:00	2024-11-06T23:00:00	6	Velocidad del viento	6.4
31486	7	Sololá	701	Sololá	3	Barraneche	6	Junio	2023-06-13T00:00:00	2024-11-06T23:00:00	7	Dirección del viento	6.44
31487	7	Sololá	701	Sololá	3	Barraneche	6	Junio	2023-06-13T00:00:00	2024-11-06T23:00:00	1	Precipitación	0
31488	7	Sololá	701	Sololá	3	Barraneche	6	Junio	2023-06-13T00:00:00	2024-11-06T23:00:00	8	Radiación solar	0
31489	7	Sololá	701	Sololá	3	Barraneche	6	Junio	2023-06-14T00:00:00	2024-11-06T00:00:00	2	Temperatura media	14.4
31490	7	Sololá	701	Sololá	3	Barraneche	6	Junio	2023-06-14T00:00:00	2024-11-06T00:00:00	4	Temperatura máxima	16.3
31491	7	Sololá	701	Sololá	3	Barraneche	6	Junio	2023-06-14T00:00:00	2024-11-06T00:00:00	3	Temperatura mínima	14.4
31492	7	Sololá	701	Sololá	3	Barraneche	6	Junio	2023-06-14T00:00:00	2024-11-06T00:00:00	5	Humedad	68
31493	7	Sololá	701	Sololá	3	Barraneche	6	Junio	2023-06-14T00:00:00	2024-11-06T00:00:00	6	Velocidad del viento	4.8
31494	7	Sololá	701	Sololá	3	Barraneche	6	Junio	2023-06-14T00:00:00	2024-11-06T00:00:00	7	Dirección del viento	4.83
31495	7	Sololá	701	Sololá	3	Barraneche	6	Junio	2023-06-14T00:00:00	2024-11-06T00:00:00	1	Precipitación	0
31496	7	Sololá	701	Sololá	3	Barraneche	6	Junio	2023-06-14T00:00:00	2024-11-06T00:00:00	8	Radiación solar	0
31497	7	Sololá	701	Sololá	3	Barraneche	6	Junio	2023-06-14T00:00:00	2024-11-06T01:00:00	2	Temperatura media	15.6
31498	7	Sololá	701	Sololá	3	Barraneche	6	Junio	2023-06-14T00:00:00	2024-11-06T01:00:00	4	Temperatura máxima	15.7
31499	7	Sololá	701	Sololá	3	Barraneche	6	Junio	2023-06-14T00:00:00	2024-11-06T01:00:00	3	Temperatura mínima	14.3
31500	7	Sololá	701	Sololá	3	Barraneche	6	Junio	2023-06-14T00:00:00	2024-11-06T01:00:00	5	Humedad	64
31501	7	Sololá	701	Sololá	3	Barraneche	6	Junio	2023-06-14T00:00:00	2024-11-06T01:00:00	6	Velocidad del viento	6.4
31502	7	Sololá	701	Sololá	3	Barraneche	6	Junio	2023-06-14T00:00:00	2024-11-06T01:00:00	7	Dirección del viento	6.44
31503	7	Sololá	701	Sololá	3	Barraneche	6	Junio	2023-06-14T00:00:00	2024-11-06T01:00:00	1	Precipitación	0
31504	7	Sololá	701	Sololá	3	Barraneche	6	Junio	2023-06-14T00:00:00	2024-11-06T01:00:00	8	Radiación solar	0
31505	7	Sololá	701	Sololá	3	Barraneche	6	Junio	2023-06-14T00:00:00	2024-11-06T02:00:00	2	Temperatura media	14.5
31506	7	Sololá	701	Sololá	3	Barraneche	6	Junio	2023-06-14T00:00:00	2024-11-06T02:00:00	4	Temperatura máxima	15.8
31507	7	Sololá	701	Sololá	3	Barraneche	6	Junio	2023-06-14T00:00:00	2024-11-06T02:00:00	3	Temperatura mínima	14.5
31508	7	Sololá	701	Sololá	3	Barraneche	6	Junio	2023-06-14T00:00:00	2024-11-06T02:00:00	5	Humedad	65
31509	7	Sololá	701	Sololá	3	Barraneche	6	Junio	2023-06-14T00:00:00	2024-11-06T02:00:00	6	Velocidad del viento	6.4
31510	7	Sololá	701	Sololá	3	Barraneche	6	Junio	2023-06-14T00:00:00	2024-11-06T02:00:00	7	Dirección del viento	6.44
31511	7	Sololá	701	Sololá	3	Barraneche	6	Junio	2023-06-14T00:00:00	2024-11-06T02:00:00	1	Precipitación	0
31512	7	Sololá	701	Sololá	3	Barraneche	6	Junio	2023-06-14T00:00:00	2024-11-06T02:00:00	8	Radiación solar	0
31513	7	Sololá	701	Sololá	3	Barraneche	6	Junio	2023-06-14T00:00:00	2024-11-06T03:00:00	2	Temperatura media	14.2
31514	7	Sololá	701	Sololá	3	Barraneche	6	Junio	2023-06-14T00:00:00	2024-11-06T03:00:00	4	Temperatura máxima	14.6
31515	7	Sololá	701	Sololá	3	Barraneche	6	Junio	2023-06-14T00:00:00	2024-11-06T03:00:00	3	Temperatura mínima	13.8
31516	7	Sololá	701	Sololá	3	Barraneche	6	Junio	2023-06-14T00:00:00	2024-11-06T03:00:00	5	Humedad	64
31517	7	Sololá	701	Sololá	3	Barraneche	6	Junio	2023-06-14T00:00:00	2024-11-06T03:00:00	6	Velocidad del viento	4.8
31518	7	Sololá	701	Sololá	3	Barraneche	6	Junio	2023-06-14T00:00:00	2024-11-06T03:00:00	7	Dirección del viento	4.83
31519	7	Sololá	701	Sololá	3	Barraneche	6	Junio	2023-06-14T00:00:00	2024-11-06T03:00:00	1	Precipitación	0
31520	7	Sololá	701	Sololá	3	Barraneche	6	Junio	2023-06-14T00:00:00	2024-11-06T03:00:00	8	Radiación solar	0
31521	7	Sololá	701	Sololá	3	Barraneche	6	Junio	2023-06-14T00:00:00	2024-11-06T04:00:00	2	Temperatura media	14.3
31522	7	Sololá	701	Sololá	3	Barraneche	6	Junio	2023-06-14T00:00:00	2024-11-06T04:00:00	4	Temperatura máxima	15.2
31523	7	Sololá	701	Sololá	3	Barraneche	6	Junio	2023-06-14T00:00:00	2024-11-06T04:00:00	3	Temperatura mínima	14.2
31524	7	Sololá	701	Sololá	3	Barraneche	6	Junio	2023-06-14T00:00:00	2024-11-06T04:00:00	5	Humedad	62
31525	7	Sololá	701	Sololá	3	Barraneche	6	Junio	2023-06-14T00:00:00	2024-11-06T04:00:00	6	Velocidad del viento	4.8
31526	7	Sololá	701	Sololá	3	Barraneche	6	Junio	2023-06-14T00:00:00	2024-11-06T04:00:00	7	Dirección del viento	4.83
31527	7	Sololá	701	Sololá	3	Barraneche	6	Junio	2023-06-14T00:00:00	2024-11-06T04:00:00	1	Precipitación	0
31528	7	Sololá	701	Sololá	3	Barraneche	6	Junio	2023-06-14T00:00:00	2024-11-06T04:00:00	8	Radiación solar	0
31529	7	Sololá	701	Sololá	3	Barraneche	6	Junio	2023-06-14T00:00:00	2024-11-06T05:00:00	2	Temperatura media	13.2
31530	7	Sololá	701	Sololá	3	Barraneche	6	Junio	2023-06-14T00:00:00	2024-11-06T05:00:00	4	Temperatura máxima	14.2
31531	7	Sololá	701	Sololá	3	Barraneche	6	Junio	2023-06-14T00:00:00	2024-11-06T05:00:00	3	Temperatura mínima	12.6
31532	7	Sololá	701	Sololá	3	Barraneche	6	Junio	2023-06-14T00:00:00	2024-11-06T05:00:00	5	Humedad	64
31533	7	Sololá	701	Sololá	3	Barraneche	6	Junio	2023-06-14T00:00:00	2024-11-06T05:00:00	6	Velocidad del viento	3.2
31534	7	Sololá	701	Sololá	3	Barraneche	6	Junio	2023-06-14T00:00:00	2024-11-06T05:00:00	7	Dirección del viento	3.22
31535	7	Sololá	701	Sololá	3	Barraneche	6	Junio	2023-06-14T00:00:00	2024-11-06T05:00:00	1	Precipitación	0
31536	7	Sololá	701	Sololá	3	Barraneche	6	Junio	2023-06-14T00:00:00	2024-11-06T05:00:00	8	Radiación solar	0
31537	7	Sololá	701	Sololá	3	Barraneche	6	Junio	2023-06-14T00:00:00	2024-11-06T06:00:00	2	Temperatura media	12.2
31538	7	Sololá	701	Sololá	3	Barraneche	6	Junio	2023-06-14T00:00:00	2024-11-06T06:00:00	4	Temperatura máxima	13.2
31539	7	Sololá	701	Sololá	3	Barraneche	6	Junio	2023-06-14T00:00:00	2024-11-06T06:00:00	3	Temperatura mínima	12.2
31540	7	Sololá	701	Sololá	3	Barraneche	6	Junio	2023-06-14T00:00:00	2024-11-06T06:00:00	5	Humedad	66
31541	7	Sololá	701	Sololá	3	Barraneche	6	Junio	2023-06-14T00:00:00	2024-11-06T06:00:00	6	Velocidad del viento	3.2
31542	7	Sololá	701	Sololá	3	Barraneche	6	Junio	2023-06-14T00:00:00	2024-11-06T06:00:00	7	Dirección del viento	3.22
31543	7	Sololá	701	Sololá	3	Barraneche	6	Junio	2023-06-14T00:00:00	2024-11-06T06:00:00	1	Precipitación	0
31544	7	Sololá	701	Sololá	3	Barraneche	6	Junio	2023-06-14T00:00:00	2024-11-06T06:00:00	8	Radiación solar	8
31545	7	Sololá	701	Sololá	3	Barraneche	6	Junio	2023-06-14T00:00:00	2024-11-06T07:00:00	2	Temperatura media	14.6
31546	7	Sololá	701	Sololá	3	Barraneche	6	Junio	2023-06-14T00:00:00	2024-11-06T07:00:00	4	Temperatura máxima	14.6
31547	7	Sololá	701	Sololá	3	Barraneche	6	Junio	2023-06-14T00:00:00	2024-11-06T07:00:00	3	Temperatura mínima	12.2
31548	7	Sololá	701	Sololá	3	Barraneche	6	Junio	2023-06-14T00:00:00	2024-11-06T07:00:00	5	Humedad	61
31549	7	Sololá	701	Sololá	3	Barraneche	6	Junio	2023-06-14T00:00:00	2024-11-06T07:00:00	6	Velocidad del viento	1.6
31550	7	Sololá	701	Sololá	3	Barraneche	6	Junio	2023-06-14T00:00:00	2024-11-06T07:00:00	7	Dirección del viento	1.61
31551	7	Sololá	701	Sololá	3	Barraneche	6	Junio	2023-06-14T00:00:00	2024-11-06T07:00:00	1	Precipitación	0
31552	7	Sololá	701	Sololá	3	Barraneche	6	Junio	2023-06-14T00:00:00	2024-11-06T07:00:00	8	Radiación solar	81
31553	7	Sololá	701	Sololá	3	Barraneche	6	Junio	2023-06-14T00:00:00	2024-11-06T08:00:00	2	Temperatura media	17.8
31554	7	Sololá	701	Sololá	3	Barraneche	6	Junio	2023-06-14T00:00:00	2024-11-06T08:00:00	4	Temperatura máxima	17.8
31555	7	Sololá	701	Sololá	3	Barraneche	6	Junio	2023-06-14T00:00:00	2024-11-06T08:00:00	3	Temperatura mínima	14.6
31556	7	Sololá	701	Sololá	3	Barraneche	6	Junio	2023-06-14T00:00:00	2024-11-06T08:00:00	5	Humedad	53
31557	7	Sololá	701	Sololá	3	Barraneche	6	Junio	2023-06-14T00:00:00	2024-11-06T08:00:00	6	Velocidad del viento	8
31558	7	Sololá	701	Sololá	3	Barraneche	6	Junio	2023-06-14T00:00:00	2024-11-06T08:00:00	7	Dirección del viento	8.05
31559	7	Sololá	701	Sololá	3	Barraneche	6	Junio	2023-06-14T00:00:00	2024-11-06T08:00:00	1	Precipitación	0
31560	7	Sololá	701	Sololá	3	Barraneche	6	Junio	2023-06-14T00:00:00	2024-11-06T08:00:00	8	Radiación solar	327
31561	7	Sololá	701	Sololá	3	Barraneche	6	Junio	2023-06-14T00:00:00	2024-11-06T09:00:00	2	Temperatura media	19.8
31562	7	Sololá	701	Sololá	3	Barraneche	6	Junio	2023-06-14T00:00:00	2024-11-06T09:00:00	4	Temperatura máxima	19.8
31563	7	Sololá	701	Sololá	3	Barraneche	6	Junio	2023-06-14T00:00:00	2024-11-06T09:00:00	3	Temperatura mínima	17.7
31564	7	Sololá	701	Sololá	3	Barraneche	6	Junio	2023-06-14T00:00:00	2024-11-06T09:00:00	5	Humedad	46
31565	7	Sololá	701	Sololá	3	Barraneche	6	Junio	2023-06-14T00:00:00	2024-11-06T09:00:00	6	Velocidad del viento	8
31566	7	Sololá	701	Sololá	3	Barraneche	6	Junio	2023-06-14T00:00:00	2024-11-06T09:00:00	7	Dirección del viento	8.05
31567	7	Sololá	701	Sololá	3	Barraneche	6	Junio	2023-06-14T00:00:00	2024-11-06T09:00:00	1	Precipitación	0
31568	7	Sololá	701	Sololá	3	Barraneche	6	Junio	2023-06-14T00:00:00	2024-11-06T09:00:00	8	Radiación solar	591
31569	7	Sololá	701	Sololá	3	Barraneche	6	Junio	2023-06-14T00:00:00	2024-11-06T10:00:00	2	Temperatura media	20.2
31570	7	Sololá	701	Sololá	3	Barraneche	6	Junio	2023-06-14T00:00:00	2024-11-06T10:00:00	4	Temperatura máxima	20.8
31571	7	Sololá	701	Sololá	3	Barraneche	6	Junio	2023-06-14T00:00:00	2024-11-06T10:00:00	3	Temperatura mínima	19.8
31572	7	Sololá	701	Sololá	3	Barraneche	6	Junio	2023-06-14T00:00:00	2024-11-06T10:00:00	5	Humedad	48
31573	7	Sololá	701	Sololá	3	Barraneche	6	Junio	2023-06-14T00:00:00	2024-11-06T10:00:00	6	Velocidad del viento	11.3
31574	7	Sololá	701	Sololá	3	Barraneche	6	Junio	2023-06-14T00:00:00	2024-11-06T10:00:00	7	Dirección del viento	11.27
31575	7	Sololá	701	Sololá	3	Barraneche	6	Junio	2023-06-14T00:00:00	2024-11-06T10:00:00	1	Precipitación	0
31576	7	Sololá	701	Sololá	3	Barraneche	6	Junio	2023-06-14T00:00:00	2024-11-06T10:00:00	8	Radiación solar	800
31577	7	Sololá	701	Sololá	3	Barraneche	6	Junio	2023-06-14T00:00:00	2024-11-06T11:00:00	2	Temperatura media	18.8
31578	7	Sololá	701	Sololá	3	Barraneche	6	Junio	2023-06-14T00:00:00	2024-11-06T11:00:00	4	Temperatura máxima	21
31579	7	Sololá	701	Sololá	3	Barraneche	6	Junio	2023-06-14T00:00:00	2024-11-06T11:00:00	3	Temperatura mínima	18.8
31580	7	Sololá	701	Sololá	3	Barraneche	6	Junio	2023-06-14T00:00:00	2024-11-06T11:00:00	5	Humedad	63
31581	7	Sololá	701	Sololá	3	Barraneche	6	Junio	2023-06-14T00:00:00	2024-11-06T11:00:00	6	Velocidad del viento	14.5
31582	7	Sololá	701	Sololá	3	Barraneche	6	Junio	2023-06-14T00:00:00	2024-11-06T11:00:00	7	Dirección del viento	14.48
31583	7	Sololá	701	Sololá	3	Barraneche	6	Junio	2023-06-14T00:00:00	2024-11-06T11:00:00	1	Precipitación	0
31584	7	Sololá	701	Sololá	3	Barraneche	6	Junio	2023-06-14T00:00:00	2024-11-06T11:00:00	8	Radiación solar	885
31585	7	Sololá	701	Sololá	3	Barraneche	6	Junio	2023-06-14T00:00:00	2024-11-06T12:00:00	2	Temperatura media	18.3
31586	7	Sololá	701	Sololá	3	Barraneche	6	Junio	2023-06-14T00:00:00	2024-11-06T12:00:00	4	Temperatura máxima	18.8
31587	7	Sololá	701	Sololá	3	Barraneche	6	Junio	2023-06-14T00:00:00	2024-11-06T12:00:00	3	Temperatura mínima	18.1
31588	7	Sololá	701	Sololá	3	Barraneche	6	Junio	2023-06-14T00:00:00	2024-11-06T12:00:00	5	Humedad	65
31589	7	Sololá	701	Sololá	3	Barraneche	6	Junio	2023-06-14T00:00:00	2024-11-06T12:00:00	6	Velocidad del viento	11.3
31590	7	Sololá	701	Sololá	3	Barraneche	6	Junio	2023-06-14T00:00:00	2024-11-06T12:00:00	7	Dirección del viento	11.27
31591	7	Sololá	701	Sololá	3	Barraneche	6	Junio	2023-06-14T00:00:00	2024-11-06T12:00:00	1	Precipitación	0
31592	7	Sololá	701	Sololá	3	Barraneche	6	Junio	2023-06-14T00:00:00	2024-11-06T12:00:00	8	Radiación solar	323
31593	7	Sololá	701	Sololá	3	Barraneche	6	Junio	2023-06-14T00:00:00	2024-11-06T13:00:00	2	Temperatura media	19.1
31594	7	Sololá	701	Sololá	3	Barraneche	6	Junio	2023-06-14T00:00:00	2024-11-06T13:00:00	4	Temperatura máxima	19.1
31595	7	Sololá	701	Sololá	3	Barraneche	6	Junio	2023-06-14T00:00:00	2024-11-06T13:00:00	3	Temperatura mínima	17.8
31596	7	Sololá	701	Sololá	3	Barraneche	6	Junio	2023-06-14T00:00:00	2024-11-06T13:00:00	5	Humedad	64
31597	7	Sololá	701	Sololá	3	Barraneche	6	Junio	2023-06-14T00:00:00	2024-11-06T13:00:00	6	Velocidad del viento	6.4
31598	7	Sololá	701	Sololá	3	Barraneche	6	Junio	2023-06-14T00:00:00	2024-11-06T13:00:00	7	Dirección del viento	6.44
31599	7	Sololá	701	Sololá	3	Barraneche	6	Junio	2023-06-14T00:00:00	2024-11-06T13:00:00	1	Precipitación	0
31600	7	Sololá	701	Sololá	3	Barraneche	6	Junio	2023-06-14T00:00:00	2024-11-06T13:00:00	8	Radiación solar	223
31601	7	Sololá	701	Sololá	3	Barraneche	6	Junio	2023-06-14T00:00:00	2024-11-06T14:00:00	2	Temperatura media	20
31602	7	Sololá	701	Sololá	3	Barraneche	6	Junio	2023-06-14T00:00:00	2024-11-06T14:00:00	4	Temperatura máxima	20.5
31603	7	Sololá	701	Sololá	3	Barraneche	6	Junio	2023-06-14T00:00:00	2024-11-06T14:00:00	3	Temperatura mínima	19.1
31604	7	Sololá	701	Sololá	3	Barraneche	6	Junio	2023-06-14T00:00:00	2024-11-06T14:00:00	5	Humedad	63
31605	7	Sololá	701	Sololá	3	Barraneche	6	Junio	2023-06-14T00:00:00	2024-11-06T14:00:00	6	Velocidad del viento	6.4
31606	7	Sololá	701	Sololá	3	Barraneche	6	Junio	2023-06-14T00:00:00	2024-11-06T14:00:00	7	Dirección del viento	6.44
31607	7	Sololá	701	Sololá	3	Barraneche	6	Junio	2023-06-14T00:00:00	2024-11-06T14:00:00	1	Precipitación	0
31608	7	Sololá	701	Sololá	3	Barraneche	6	Junio	2023-06-14T00:00:00	2024-11-06T14:00:00	8	Radiación solar	441
31609	7	Sololá	701	Sololá	3	Barraneche	6	Junio	2023-06-14T00:00:00	2024-11-06T15:00:00	2	Temperatura media	18.9
31610	7	Sololá	701	Sololá	3	Barraneche	6	Junio	2023-06-14T00:00:00	2024-11-06T15:00:00	4	Temperatura máxima	20.3
31611	7	Sololá	701	Sololá	3	Barraneche	6	Junio	2023-06-14T00:00:00	2024-11-06T15:00:00	3	Temperatura mínima	17.8
31612	7	Sololá	701	Sololá	3	Barraneche	6	Junio	2023-06-14T00:00:00	2024-11-06T15:00:00	5	Humedad	65
31613	7	Sololá	701	Sololá	3	Barraneche	6	Junio	2023-06-14T00:00:00	2024-11-06T15:00:00	6	Velocidad del viento	9.7
31614	7	Sololá	701	Sololá	3	Barraneche	6	Junio	2023-06-14T00:00:00	2024-11-06T15:00:00	7	Dirección del viento	9.66
31615	7	Sololá	701	Sololá	3	Barraneche	6	Junio	2023-06-14T00:00:00	2024-11-06T15:00:00	1	Precipitación	0
31616	7	Sololá	701	Sololá	3	Barraneche	6	Junio	2023-06-14T00:00:00	2024-11-06T15:00:00	8	Radiación solar	361
31617	7	Sololá	701	Sololá	3	Barraneche	6	Junio	2023-06-14T00:00:00	2024-11-06T16:00:00	2	Temperatura media	17.8
31618	7	Sololá	701	Sololá	3	Barraneche	6	Junio	2023-06-14T00:00:00	2024-11-06T16:00:00	4	Temperatura máxima	19.3
31619	7	Sololá	701	Sololá	3	Barraneche	6	Junio	2023-06-14T00:00:00	2024-11-06T16:00:00	3	Temperatura mínima	17.8
31620	7	Sololá	701	Sololá	3	Barraneche	6	Junio	2023-06-14T00:00:00	2024-11-06T16:00:00	5	Humedad	69
31621	7	Sololá	701	Sololá	3	Barraneche	6	Junio	2023-06-14T00:00:00	2024-11-06T16:00:00	6	Velocidad del viento	9.7
31622	7	Sololá	701	Sololá	3	Barraneche	6	Junio	2023-06-14T00:00:00	2024-11-06T16:00:00	7	Dirección del viento	9.66
31623	7	Sololá	701	Sololá	3	Barraneche	6	Junio	2023-06-14T00:00:00	2024-11-06T16:00:00	1	Precipitación	0
31624	7	Sololá	701	Sololá	3	Barraneche	6	Junio	2023-06-14T00:00:00	2024-11-06T16:00:00	8	Radiación solar	314
31625	7	Sololá	701	Sololá	3	Barraneche	6	Junio	2023-06-14T00:00:00	2024-11-06T17:00:00	2	Temperatura media	16.7
31626	7	Sololá	701	Sololá	3	Barraneche	6	Junio	2023-06-14T00:00:00	2024-11-06T17:00:00	4	Temperatura máxima	17.8
31627	7	Sololá	701	Sololá	3	Barraneche	6	Junio	2023-06-14T00:00:00	2024-11-06T17:00:00	3	Temperatura mínima	16.6
31628	7	Sololá	701	Sololá	3	Barraneche	6	Junio	2023-06-14T00:00:00	2024-11-06T17:00:00	5	Humedad	72
31629	7	Sololá	701	Sololá	3	Barraneche	6	Junio	2023-06-14T00:00:00	2024-11-06T17:00:00	6	Velocidad del viento	8
31630	7	Sololá	701	Sololá	3	Barraneche	6	Junio	2023-06-14T00:00:00	2024-11-06T17:00:00	7	Dirección del viento	8.05
31631	7	Sololá	701	Sololá	3	Barraneche	6	Junio	2023-06-14T00:00:00	2024-11-06T17:00:00	1	Precipitación	0
31632	7	Sololá	701	Sololá	3	Barraneche	6	Junio	2023-06-14T00:00:00	2024-11-06T17:00:00	8	Radiación solar	91
31633	7	Sololá	701	Sololá	3	Barraneche	6	Junio	2023-06-14T00:00:00	2024-11-06T18:00:00	2	Temperatura media	16.6
31634	7	Sololá	701	Sololá	3	Barraneche	6	Junio	2023-06-14T00:00:00	2024-11-06T18:00:00	4	Temperatura máxima	16.7
31635	7	Sololá	701	Sololá	3	Barraneche	6	Junio	2023-06-14T00:00:00	2024-11-06T18:00:00	3	Temperatura mínima	16.3
31636	7	Sololá	701	Sololá	3	Barraneche	6	Junio	2023-06-14T00:00:00	2024-11-06T18:00:00	5	Humedad	72
31637	7	Sololá	701	Sololá	3	Barraneche	6	Junio	2023-06-14T00:00:00	2024-11-06T18:00:00	6	Velocidad del viento	3.2
31638	7	Sololá	701	Sololá	3	Barraneche	6	Junio	2023-06-14T00:00:00	2024-11-06T18:00:00	7	Dirección del viento	3.22
31639	7	Sololá	701	Sololá	3	Barraneche	6	Junio	2023-06-14T00:00:00	2024-11-06T18:00:00	1	Precipitación	0
31640	7	Sololá	701	Sololá	3	Barraneche	6	Junio	2023-06-14T00:00:00	2024-11-06T18:00:00	8	Radiación solar	57
31641	7	Sololá	701	Sololá	3	Barraneche	6	Junio	2023-06-14T00:00:00	2024-11-06T19:00:00	2	Temperatura media	15.8
31642	7	Sololá	701	Sololá	3	Barraneche	6	Junio	2023-06-14T00:00:00	2024-11-06T19:00:00	4	Temperatura máxima	16.6
31643	7	Sololá	701	Sololá	3	Barraneche	6	Junio	2023-06-14T00:00:00	2024-11-06T19:00:00	3	Temperatura mínima	15.4
31644	7	Sololá	701	Sololá	3	Barraneche	6	Junio	2023-06-14T00:00:00	2024-11-06T19:00:00	5	Humedad	61
31645	7	Sololá	701	Sololá	3	Barraneche	6	Junio	2023-06-14T00:00:00	2024-11-06T19:00:00	6	Velocidad del viento	3.2
31646	7	Sololá	701	Sololá	3	Barraneche	6	Junio	2023-06-14T00:00:00	2024-11-06T19:00:00	7	Dirección del viento	3.22
31647	7	Sololá	701	Sololá	3	Barraneche	6	Junio	2023-06-14T00:00:00	2024-11-06T19:00:00	1	Precipitación	0
31648	7	Sololá	701	Sololá	3	Barraneche	6	Junio	2023-06-14T00:00:00	2024-11-06T19:00:00	8	Radiación solar	0
31649	7	Sololá	701	Sololá	3	Barraneche	6	Junio	2023-06-14T00:00:00	2024-11-06T20:00:00	2	Temperatura media	14.3
31650	7	Sololá	701	Sololá	3	Barraneche	6	Junio	2023-06-14T00:00:00	2024-11-06T20:00:00	4	Temperatura máxima	15.8
31651	7	Sololá	701	Sololá	3	Barraneche	6	Junio	2023-06-14T00:00:00	2024-11-06T20:00:00	3	Temperatura mínima	14.3
31652	7	Sololá	701	Sololá	3	Barraneche	6	Junio	2023-06-14T00:00:00	2024-11-06T20:00:00	5	Humedad	63
31653	7	Sololá	701	Sololá	3	Barraneche	6	Junio	2023-06-14T00:00:00	2024-11-06T20:00:00	6	Velocidad del viento	6.4
31654	7	Sololá	701	Sololá	3	Barraneche	6	Junio	2023-06-14T00:00:00	2024-11-06T20:00:00	7	Dirección del viento	6.44
31655	7	Sololá	701	Sololá	3	Barraneche	6	Junio	2023-06-14T00:00:00	2024-11-06T20:00:00	1	Precipitación	0
31656	7	Sololá	701	Sololá	3	Barraneche	6	Junio	2023-06-14T00:00:00	2024-11-06T20:00:00	8	Radiación solar	0
31657	7	Sololá	701	Sololá	3	Barraneche	6	Junio	2023-06-14T00:00:00	2024-11-06T21:00:00	2	Temperatura media	16.3
31658	7	Sololá	701	Sololá	3	Barraneche	6	Junio	2023-06-14T00:00:00	2024-11-06T21:00:00	4	Temperatura máxima	16.4
31659	7	Sololá	701	Sololá	3	Barraneche	6	Junio	2023-06-14T00:00:00	2024-11-06T21:00:00	3	Temperatura mínima	14.2
31660	7	Sololá	701	Sololá	3	Barraneche	6	Junio	2023-06-14T00:00:00	2024-11-06T21:00:00	5	Humedad	63
31661	7	Sololá	701	Sololá	3	Barraneche	6	Junio	2023-06-14T00:00:00	2024-11-06T21:00:00	6	Velocidad del viento	8
31662	7	Sololá	701	Sololá	3	Barraneche	6	Junio	2023-06-14T00:00:00	2024-11-06T21:00:00	7	Dirección del viento	8.05
31663	7	Sololá	701	Sololá	3	Barraneche	6	Junio	2023-06-14T00:00:00	2024-11-06T21:00:00	1	Precipitación	0
31664	7	Sololá	701	Sololá	3	Barraneche	6	Junio	2023-06-14T00:00:00	2024-11-06T21:00:00	8	Radiación solar	0
31665	7	Sololá	701	Sololá	3	Barraneche	6	Junio	2023-06-14T00:00:00	2024-11-06T22:00:00	2	Temperatura media	14.3
31666	7	Sololá	701	Sololá	3	Barraneche	6	Junio	2023-06-14T00:00:00	2024-11-06T22:00:00	4	Temperatura máxima	16.4
31667	7	Sololá	701	Sololá	3	Barraneche	6	Junio	2023-06-14T00:00:00	2024-11-06T22:00:00	3	Temperatura mínima	14.3
31668	7	Sololá	701	Sololá	3	Barraneche	6	Junio	2023-06-14T00:00:00	2024-11-06T22:00:00	5	Humedad	69
31669	7	Sololá	701	Sololá	3	Barraneche	6	Junio	2023-06-14T00:00:00	2024-11-06T22:00:00	6	Velocidad del viento	3.2
31670	7	Sololá	701	Sololá	3	Barraneche	6	Junio	2023-06-14T00:00:00	2024-11-06T22:00:00	7	Dirección del viento	3.22
31671	7	Sololá	701	Sololá	3	Barraneche	6	Junio	2023-06-14T00:00:00	2024-11-06T22:00:00	1	Precipitación	0
31672	7	Sololá	701	Sololá	3	Barraneche	6	Junio	2023-06-14T00:00:00	2024-11-06T22:00:00	8	Radiación solar	0
31673	7	Sololá	701	Sololá	3	Barraneche	6	Junio	2023-06-14T00:00:00	2024-11-06T23:00:00	2	Temperatura media	12.8
31674	7	Sololá	701	Sololá	3	Barraneche	6	Junio	2023-06-14T00:00:00	2024-11-06T23:00:00	4	Temperatura máxima	14.3
31675	7	Sololá	701	Sololá	3	Barraneche	6	Junio	2023-06-14T00:00:00	2024-11-06T23:00:00	3	Temperatura mínima	12.8
31676	7	Sololá	701	Sololá	3	Barraneche	6	Junio	2023-06-14T00:00:00	2024-11-06T23:00:00	5	Humedad	71
31677	7	Sololá	701	Sololá	3	Barraneche	6	Junio	2023-06-14T00:00:00	2024-11-06T23:00:00	6	Velocidad del viento	3.2
31678	7	Sololá	701	Sololá	3	Barraneche	6	Junio	2023-06-14T00:00:00	2024-11-06T23:00:00	7	Dirección del viento	3.22
31679	7	Sololá	701	Sololá	3	Barraneche	6	Junio	2023-06-14T00:00:00	2024-11-06T23:00:00	1	Precipitación	0
31680	7	Sololá	701	Sololá	3	Barraneche	6	Junio	2023-06-14T00:00:00	2024-11-06T23:00:00	8	Radiación solar	0
31681	7	Sololá	701	Sololá	3	Barraneche	6	Junio	2023-06-15T00:00:00	2024-11-06T00:00:00	2	Temperatura media	13.1
31682	7	Sololá	701	Sololá	3	Barraneche	6	Junio	2023-06-15T00:00:00	2024-11-06T00:00:00	4	Temperatura máxima	13.3
31683	7	Sololá	701	Sololá	3	Barraneche	6	Junio	2023-06-15T00:00:00	2024-11-06T00:00:00	3	Temperatura mínima	12.7
31684	7	Sololá	701	Sololá	3	Barraneche	6	Junio	2023-06-15T00:00:00	2024-11-06T00:00:00	5	Humedad	73
31685	7	Sololá	701	Sololá	3	Barraneche	6	Junio	2023-06-15T00:00:00	2024-11-06T00:00:00	6	Velocidad del viento	4.8
31686	7	Sololá	701	Sololá	3	Barraneche	6	Junio	2023-06-15T00:00:00	2024-11-06T00:00:00	7	Dirección del viento	4.83
31687	7	Sololá	701	Sololá	3	Barraneche	6	Junio	2023-06-15T00:00:00	2024-11-06T00:00:00	1	Precipitación	0
31688	7	Sololá	701	Sololá	3	Barraneche	6	Junio	2023-06-15T00:00:00	2024-11-06T00:00:00	8	Radiación solar	0
31689	7	Sololá	701	Sololá	3	Barraneche	6	Junio	2023-06-15T00:00:00	2024-11-06T01:00:00	2	Temperatura media	12.8
31690	7	Sololá	701	Sololá	3	Barraneche	6	Junio	2023-06-15T00:00:00	2024-11-06T01:00:00	4	Temperatura máxima	13.4
31691	7	Sololá	701	Sololá	3	Barraneche	6	Junio	2023-06-15T00:00:00	2024-11-06T01:00:00	3	Temperatura mínima	12.8
31692	7	Sololá	701	Sololá	3	Barraneche	6	Junio	2023-06-15T00:00:00	2024-11-06T01:00:00	5	Humedad	72
31693	7	Sololá	701	Sololá	3	Barraneche	6	Junio	2023-06-15T00:00:00	2024-11-06T01:00:00	6	Velocidad del viento	4.8
31694	7	Sololá	701	Sololá	3	Barraneche	6	Junio	2023-06-15T00:00:00	2024-11-06T01:00:00	7	Dirección del viento	4.83
31695	7	Sololá	701	Sololá	3	Barraneche	6	Junio	2023-06-15T00:00:00	2024-11-06T01:00:00	1	Precipitación	0
31696	7	Sololá	701	Sololá	3	Barraneche	6	Junio	2023-06-15T00:00:00	2024-11-06T01:00:00	8	Radiación solar	0
31697	7	Sololá	701	Sololá	3	Barraneche	6	Junio	2023-06-15T00:00:00	2024-11-06T02:00:00	2	Temperatura media	12.9
31698	7	Sololá	701	Sololá	3	Barraneche	6	Junio	2023-06-15T00:00:00	2024-11-06T02:00:00	4	Temperatura máxima	12.9
31699	7	Sololá	701	Sololá	3	Barraneche	6	Junio	2023-06-15T00:00:00	2024-11-06T02:00:00	3	Temperatura mínima	12
31700	7	Sololá	701	Sololá	3	Barraneche	6	Junio	2023-06-15T00:00:00	2024-11-06T02:00:00	5	Humedad	71
31701	7	Sololá	701	Sololá	3	Barraneche	6	Junio	2023-06-15T00:00:00	2024-11-06T02:00:00	6	Velocidad del viento	4.8
31702	7	Sololá	701	Sololá	3	Barraneche	6	Junio	2023-06-15T00:00:00	2024-11-06T02:00:00	7	Dirección del viento	4.83
31703	7	Sololá	701	Sololá	3	Barraneche	6	Junio	2023-06-15T00:00:00	2024-11-06T02:00:00	1	Precipitación	0
31704	7	Sololá	701	Sololá	3	Barraneche	6	Junio	2023-06-15T00:00:00	2024-11-06T02:00:00	8	Radiación solar	0
31705	7	Sololá	701	Sololá	3	Barraneche	6	Junio	2023-06-15T00:00:00	2024-11-06T03:00:00	2	Temperatura media	12.1
31706	7	Sololá	701	Sololá	3	Barraneche	6	Junio	2023-06-15T00:00:00	2024-11-06T03:00:00	4	Temperatura máxima	13.2
31707	7	Sololá	701	Sololá	3	Barraneche	6	Junio	2023-06-15T00:00:00	2024-11-06T03:00:00	3	Temperatura mínima	12.1
31708	7	Sololá	701	Sololá	3	Barraneche	6	Junio	2023-06-15T00:00:00	2024-11-06T03:00:00	5	Humedad	72
31709	7	Sololá	701	Sololá	3	Barraneche	6	Junio	2023-06-15T00:00:00	2024-11-06T03:00:00	6	Velocidad del viento	3.2
31710	7	Sololá	701	Sololá	3	Barraneche	6	Junio	2023-06-15T00:00:00	2024-11-06T03:00:00	7	Dirección del viento	3.22
31711	7	Sololá	701	Sololá	3	Barraneche	6	Junio	2023-06-15T00:00:00	2024-11-06T03:00:00	1	Precipitación	0
31712	7	Sololá	701	Sololá	3	Barraneche	6	Junio	2023-06-15T00:00:00	2024-11-06T03:00:00	8	Radiación solar	0
31713	7	Sololá	701	Sololá	3	Barraneche	6	Junio	2023-06-15T00:00:00	2024-11-06T04:00:00	2	Temperatura media	12.2
31714	7	Sololá	701	Sololá	3	Barraneche	6	Junio	2023-06-15T00:00:00	2024-11-06T04:00:00	4	Temperatura máxima	12.2
31715	7	Sololá	701	Sololá	3	Barraneche	6	Junio	2023-06-15T00:00:00	2024-11-06T04:00:00	3	Temperatura mínima	11.7
31716	7	Sololá	701	Sololá	3	Barraneche	6	Junio	2023-06-15T00:00:00	2024-11-06T04:00:00	5	Humedad	72
31717	7	Sololá	701	Sololá	3	Barraneche	6	Junio	2023-06-15T00:00:00	2024-11-06T04:00:00	6	Velocidad del viento	6.4
31718	7	Sololá	701	Sololá	3	Barraneche	6	Junio	2023-06-15T00:00:00	2024-11-06T04:00:00	7	Dirección del viento	6.44
31719	7	Sololá	701	Sololá	3	Barraneche	6	Junio	2023-06-15T00:00:00	2024-11-06T04:00:00	1	Precipitación	0
31720	7	Sololá	701	Sololá	3	Barraneche	6	Junio	2023-06-15T00:00:00	2024-11-06T04:00:00	8	Radiación solar	0
31721	7	Sololá	701	Sololá	3	Barraneche	6	Junio	2023-06-15T00:00:00	2024-11-06T05:00:00	2	Temperatura media	12.1
31722	7	Sololá	701	Sololá	3	Barraneche	6	Junio	2023-06-15T00:00:00	2024-11-06T05:00:00	4	Temperatura máxima	12.4
31723	7	Sololá	701	Sololá	3	Barraneche	6	Junio	2023-06-15T00:00:00	2024-11-06T05:00:00	3	Temperatura mínima	11.8
31724	7	Sololá	701	Sololá	3	Barraneche	6	Junio	2023-06-15T00:00:00	2024-11-06T05:00:00	5	Humedad	68
31725	7	Sololá	701	Sololá	3	Barraneche	6	Junio	2023-06-15T00:00:00	2024-11-06T05:00:00	6	Velocidad del viento	6.4
31726	7	Sololá	701	Sololá	3	Barraneche	6	Junio	2023-06-15T00:00:00	2024-11-06T05:00:00	7	Dirección del viento	6.44
31727	7	Sololá	701	Sololá	3	Barraneche	6	Junio	2023-06-15T00:00:00	2024-11-06T05:00:00	1	Precipitación	0
31728	7	Sololá	701	Sololá	3	Barraneche	6	Junio	2023-06-15T00:00:00	2024-11-06T05:00:00	8	Radiación solar	0
31729	7	Sololá	701	Sololá	3	Barraneche	6	Junio	2023-06-15T00:00:00	2024-11-06T06:00:00	2	Temperatura media	11.3
31730	7	Sololá	701	Sololá	3	Barraneche	6	Junio	2023-06-15T00:00:00	2024-11-06T06:00:00	4	Temperatura máxima	12.1
31731	7	Sololá	701	Sololá	3	Barraneche	6	Junio	2023-06-15T00:00:00	2024-11-06T06:00:00	3	Temperatura mínima	10.9
31732	7	Sololá	701	Sololá	3	Barraneche	6	Junio	2023-06-15T00:00:00	2024-11-06T06:00:00	5	Humedad	68
31733	7	Sololá	701	Sololá	3	Barraneche	6	Junio	2023-06-15T00:00:00	2024-11-06T06:00:00	6	Velocidad del viento	4.8
31734	7	Sololá	701	Sololá	3	Barraneche	6	Junio	2023-06-15T00:00:00	2024-11-06T06:00:00	7	Dirección del viento	4.83
31735	7	Sololá	701	Sololá	3	Barraneche	6	Junio	2023-06-15T00:00:00	2024-11-06T06:00:00	1	Precipitación	0
31736	7	Sololá	701	Sololá	3	Barraneche	6	Junio	2023-06-15T00:00:00	2024-11-06T06:00:00	8	Radiación solar	7
31737	7	Sololá	701	Sololá	3	Barraneche	6	Junio	2023-06-15T00:00:00	2024-11-06T07:00:00	2	Temperatura media	13.9
31738	7	Sololá	701	Sololá	3	Barraneche	6	Junio	2023-06-15T00:00:00	2024-11-06T07:00:00	4	Temperatura máxima	13.9
31739	7	Sololá	701	Sololá	3	Barraneche	6	Junio	2023-06-15T00:00:00	2024-11-06T07:00:00	3	Temperatura mínima	11.3
31740	7	Sololá	701	Sololá	3	Barraneche	6	Junio	2023-06-15T00:00:00	2024-11-06T07:00:00	5	Humedad	65
31741	7	Sololá	701	Sololá	3	Barraneche	6	Junio	2023-06-15T00:00:00	2024-11-06T07:00:00	6	Velocidad del viento	3.2
31742	7	Sololá	701	Sololá	3	Barraneche	6	Junio	2023-06-15T00:00:00	2024-11-06T07:00:00	7	Dirección del viento	3.22
31743	7	Sololá	701	Sololá	3	Barraneche	6	Junio	2023-06-15T00:00:00	2024-11-06T07:00:00	1	Precipitación	0
31744	7	Sololá	701	Sololá	3	Barraneche	6	Junio	2023-06-15T00:00:00	2024-11-06T07:00:00	8	Radiación solar	118
31745	7	Sololá	701	Sololá	3	Barraneche	6	Junio	2023-06-15T00:00:00	2024-11-06T08:00:00	2	Temperatura media	17.6
31746	7	Sololá	701	Sololá	3	Barraneche	6	Junio	2023-06-15T00:00:00	2024-11-06T08:00:00	4	Temperatura máxima	17.6
31747	7	Sololá	701	Sololá	3	Barraneche	6	Junio	2023-06-15T00:00:00	2024-11-06T08:00:00	3	Temperatura mínima	13.9
31748	7	Sololá	701	Sololá	3	Barraneche	6	Junio	2023-06-15T00:00:00	2024-11-06T08:00:00	5	Humedad	57
31749	7	Sololá	701	Sololá	3	Barraneche	6	Junio	2023-06-15T00:00:00	2024-11-06T08:00:00	6	Velocidad del viento	3.2
31750	7	Sololá	701	Sololá	3	Barraneche	6	Junio	2023-06-15T00:00:00	2024-11-06T08:00:00	7	Dirección del viento	3.22
31751	7	Sololá	701	Sololá	3	Barraneche	6	Junio	2023-06-15T00:00:00	2024-11-06T08:00:00	1	Precipitación	0
31752	7	Sololá	701	Sololá	3	Barraneche	6	Junio	2023-06-15T00:00:00	2024-11-06T08:00:00	8	Radiación solar	378
31753	7	Sololá	701	Sololá	3	Barraneche	6	Junio	2023-06-15T00:00:00	2024-11-06T09:00:00	2	Temperatura media	18.8
31754	7	Sololá	701	Sololá	3	Barraneche	6	Junio	2023-06-15T00:00:00	2024-11-06T09:00:00	4	Temperatura máxima	18.9
31755	7	Sololá	701	Sololá	3	Barraneche	6	Junio	2023-06-15T00:00:00	2024-11-06T09:00:00	3	Temperatura mínima	17.5
31756	7	Sololá	701	Sololá	3	Barraneche	6	Junio	2023-06-15T00:00:00	2024-11-06T09:00:00	5	Humedad	52
31757	7	Sololá	701	Sololá	3	Barraneche	6	Junio	2023-06-15T00:00:00	2024-11-06T09:00:00	6	Velocidad del viento	4.8
31758	7	Sololá	701	Sololá	3	Barraneche	6	Junio	2023-06-15T00:00:00	2024-11-06T09:00:00	7	Dirección del viento	4.83
31759	7	Sololá	701	Sololá	3	Barraneche	6	Junio	2023-06-15T00:00:00	2024-11-06T09:00:00	1	Precipitación	0
31760	7	Sololá	701	Sololá	3	Barraneche	6	Junio	2023-06-15T00:00:00	2024-11-06T09:00:00	8	Radiación solar	610
31761	7	Sololá	701	Sololá	3	Barraneche	6	Junio	2023-06-15T00:00:00	2024-11-06T10:00:00	2	Temperatura media	19.9
31762	7	Sololá	701	Sololá	3	Barraneche	6	Junio	2023-06-15T00:00:00	2024-11-06T10:00:00	4	Temperatura máxima	20.8
31763	7	Sololá	701	Sololá	3	Barraneche	6	Junio	2023-06-15T00:00:00	2024-11-06T10:00:00	3	Temperatura mínima	18.8
31764	7	Sololá	701	Sololá	3	Barraneche	6	Junio	2023-06-15T00:00:00	2024-11-06T10:00:00	5	Humedad	44
31765	7	Sololá	701	Sololá	3	Barraneche	6	Junio	2023-06-15T00:00:00	2024-11-06T10:00:00	6	Velocidad del viento	8
31766	7	Sololá	701	Sololá	3	Barraneche	6	Junio	2023-06-15T00:00:00	2024-11-06T10:00:00	7	Dirección del viento	8.05
31767	7	Sololá	701	Sololá	3	Barraneche	6	Junio	2023-06-15T00:00:00	2024-11-06T10:00:00	1	Precipitación	0
31768	7	Sololá	701	Sololá	3	Barraneche	6	Junio	2023-06-15T00:00:00	2024-11-06T10:00:00	8	Radiación solar	804
31769	7	Sololá	701	Sololá	3	Barraneche	6	Junio	2023-06-15T00:00:00	2024-11-06T11:00:00	2	Temperatura media	18.4
31770	7	Sololá	701	Sololá	3	Barraneche	6	Junio	2023-06-15T00:00:00	2024-11-06T11:00:00	4	Temperatura máxima	20.9
31771	7	Sololá	701	Sololá	3	Barraneche	6	Junio	2023-06-15T00:00:00	2024-11-06T11:00:00	3	Temperatura mínima	18.4
31772	7	Sololá	701	Sololá	3	Barraneche	6	Junio	2023-06-15T00:00:00	2024-11-06T11:00:00	5	Humedad	61
31773	7	Sololá	701	Sololá	3	Barraneche	6	Junio	2023-06-15T00:00:00	2024-11-06T11:00:00	6	Velocidad del viento	11.3
31774	7	Sololá	701	Sololá	3	Barraneche	6	Junio	2023-06-15T00:00:00	2024-11-06T11:00:00	7	Dirección del viento	11.27
31775	7	Sololá	701	Sololá	3	Barraneche	6	Junio	2023-06-15T00:00:00	2024-11-06T11:00:00	1	Precipitación	0
31776	7	Sololá	701	Sololá	3	Barraneche	6	Junio	2023-06-15T00:00:00	2024-11-06T11:00:00	8	Radiación solar	818
31777	7	Sololá	701	Sololá	3	Barraneche	6	Junio	2023-06-15T00:00:00	2024-11-06T12:00:00	2	Temperatura media	19.3
31778	7	Sololá	701	Sololá	3	Barraneche	6	Junio	2023-06-15T00:00:00	2024-11-06T12:00:00	4	Temperatura máxima	19.3
31779	7	Sololá	701	Sololá	3	Barraneche	6	Junio	2023-06-15T00:00:00	2024-11-06T12:00:00	3	Temperatura mínima	17.8
31780	7	Sololá	701	Sololá	3	Barraneche	6	Junio	2023-06-15T00:00:00	2024-11-06T12:00:00	5	Humedad	60
31781	7	Sololá	701	Sololá	3	Barraneche	6	Junio	2023-06-15T00:00:00	2024-11-06T12:00:00	6	Velocidad del viento	12.9
31782	7	Sololá	701	Sololá	3	Barraneche	6	Junio	2023-06-15T00:00:00	2024-11-06T12:00:00	7	Dirección del viento	12.87
31783	7	Sololá	701	Sololá	3	Barraneche	6	Junio	2023-06-15T00:00:00	2024-11-06T12:00:00	1	Precipitación	0
31784	7	Sololá	701	Sololá	3	Barraneche	6	Junio	2023-06-15T00:00:00	2024-11-06T12:00:00	8	Radiación solar	667
31785	7	Sololá	701	Sololá	3	Barraneche	6	Junio	2023-06-15T00:00:00	2024-11-06T13:00:00	2	Temperatura media	19.9
31786	7	Sololá	701	Sololá	3	Barraneche	6	Junio	2023-06-15T00:00:00	2024-11-06T13:00:00	4	Temperatura máxima	19.9
31787	7	Sololá	701	Sololá	3	Barraneche	6	Junio	2023-06-15T00:00:00	2024-11-06T13:00:00	3	Temperatura mínima	19.3
31788	7	Sololá	701	Sololá	3	Barraneche	6	Junio	2023-06-15T00:00:00	2024-11-06T13:00:00	5	Humedad	62
31789	7	Sololá	701	Sololá	3	Barraneche	6	Junio	2023-06-15T00:00:00	2024-11-06T13:00:00	6	Velocidad del viento	12.9
31790	7	Sololá	701	Sololá	3	Barraneche	6	Junio	2023-06-15T00:00:00	2024-11-06T13:00:00	7	Dirección del viento	12.87
31791	7	Sololá	701	Sololá	3	Barraneche	6	Junio	2023-06-15T00:00:00	2024-11-06T13:00:00	1	Precipitación	0
31792	7	Sololá	701	Sololá	3	Barraneche	6	Junio	2023-06-15T00:00:00	2024-11-06T13:00:00	8	Radiación solar	817
31793	7	Sololá	701	Sololá	3	Barraneche	6	Junio	2023-06-15T00:00:00	2024-11-06T14:00:00	2	Temperatura media	17.9
31794	7	Sololá	701	Sololá	3	Barraneche	6	Junio	2023-06-15T00:00:00	2024-11-06T14:00:00	4	Temperatura máxima	20.1
31795	7	Sololá	701	Sololá	3	Barraneche	6	Junio	2023-06-15T00:00:00	2024-11-06T14:00:00	3	Temperatura mínima	17.9
31796	7	Sololá	701	Sololá	3	Barraneche	6	Junio	2023-06-15T00:00:00	2024-11-06T14:00:00	5	Humedad	70
31797	7	Sololá	701	Sololá	3	Barraneche	6	Junio	2023-06-15T00:00:00	2024-11-06T14:00:00	6	Velocidad del viento	12.9
31798	7	Sololá	701	Sololá	3	Barraneche	6	Junio	2023-06-15T00:00:00	2024-11-06T14:00:00	7	Dirección del viento	12.87
31799	7	Sololá	701	Sololá	3	Barraneche	6	Junio	2023-06-15T00:00:00	2024-11-06T14:00:00	1	Precipitación	0
31800	7	Sololá	701	Sololá	3	Barraneche	6	Junio	2023-06-15T00:00:00	2024-11-06T14:00:00	8	Radiación solar	358
31801	7	Sololá	701	Sololá	3	Barraneche	6	Junio	2023-06-15T00:00:00	2024-11-06T15:00:00	2	Temperatura media	19.1
31802	7	Sololá	701	Sololá	3	Barraneche	6	Junio	2023-06-15T00:00:00	2024-11-06T15:00:00	4	Temperatura máxima	19.2
31803	7	Sololá	701	Sololá	3	Barraneche	6	Junio	2023-06-15T00:00:00	2024-11-06T15:00:00	3	Temperatura mínima	17.9
31804	7	Sololá	701	Sololá	3	Barraneche	6	Junio	2023-06-15T00:00:00	2024-11-06T15:00:00	5	Humedad	64
31805	7	Sololá	701	Sololá	3	Barraneche	6	Junio	2023-06-15T00:00:00	2024-11-06T15:00:00	6	Velocidad del viento	11.3
31806	7	Sololá	701	Sololá	3	Barraneche	6	Junio	2023-06-15T00:00:00	2024-11-06T15:00:00	7	Dirección del viento	11.27
31807	7	Sololá	701	Sololá	3	Barraneche	6	Junio	2023-06-15T00:00:00	2024-11-06T15:00:00	1	Precipitación	0
31808	7	Sololá	701	Sololá	3	Barraneche	6	Junio	2023-06-15T00:00:00	2024-11-06T15:00:00	8	Radiación solar	420
31809	7	Sololá	701	Sololá	3	Barraneche	6	Junio	2023-06-15T00:00:00	2024-11-06T16:00:00	2	Temperatura media	19.8
31810	7	Sololá	701	Sololá	3	Barraneche	6	Junio	2023-06-15T00:00:00	2024-11-06T16:00:00	4	Temperatura máxima	19.8
31811	7	Sololá	701	Sololá	3	Barraneche	6	Junio	2023-06-15T00:00:00	2024-11-06T16:00:00	3	Temperatura mínima	18.6
31812	7	Sololá	701	Sololá	3	Barraneche	6	Junio	2023-06-15T00:00:00	2024-11-06T16:00:00	5	Humedad	64
31813	7	Sololá	701	Sololá	3	Barraneche	6	Junio	2023-06-15T00:00:00	2024-11-06T16:00:00	6	Velocidad del viento	9.7
31814	7	Sololá	701	Sololá	3	Barraneche	6	Junio	2023-06-15T00:00:00	2024-11-06T16:00:00	7	Dirección del viento	9.66
31815	7	Sololá	701	Sololá	3	Barraneche	6	Junio	2023-06-15T00:00:00	2024-11-06T16:00:00	1	Precipitación	0
31816	7	Sololá	701	Sololá	3	Barraneche	6	Junio	2023-06-15T00:00:00	2024-11-06T16:00:00	8	Radiación solar	430
31817	7	Sololá	701	Sololá	3	Barraneche	6	Junio	2023-06-15T00:00:00	2024-11-06T17:00:00	2	Temperatura media	16.9
31818	7	Sololá	701	Sololá	3	Barraneche	6	Junio	2023-06-15T00:00:00	2024-11-06T17:00:00	4	Temperatura máxima	20.8
31819	7	Sololá	701	Sololá	3	Barraneche	6	Junio	2023-06-15T00:00:00	2024-11-06T17:00:00	3	Temperatura mínima	16.8
31820	7	Sololá	701	Sololá	3	Barraneche	6	Junio	2023-06-15T00:00:00	2024-11-06T17:00:00	5	Humedad	75
31821	7	Sololá	701	Sololá	3	Barraneche	6	Junio	2023-06-15T00:00:00	2024-11-06T17:00:00	6	Velocidad del viento	12.9
31822	7	Sololá	701	Sololá	3	Barraneche	6	Junio	2023-06-15T00:00:00	2024-11-06T17:00:00	7	Dirección del viento	12.87
31823	7	Sololá	701	Sololá	3	Barraneche	6	Junio	2023-06-15T00:00:00	2024-11-06T17:00:00	1	Precipitación	0
31824	7	Sololá	701	Sololá	3	Barraneche	6	Junio	2023-06-15T00:00:00	2024-11-06T17:00:00	8	Radiación solar	263
31825	7	Sololá	701	Sololá	3	Barraneche	6	Junio	2023-06-15T00:00:00	2024-11-06T18:00:00	2	Temperatura media	16.7
31826	7	Sololá	701	Sololá	3	Barraneche	6	Junio	2023-06-15T00:00:00	2024-11-06T18:00:00	4	Temperatura máxima	17.5
31827	7	Sololá	701	Sololá	3	Barraneche	6	Junio	2023-06-15T00:00:00	2024-11-06T18:00:00	3	Temperatura mínima	16.6
31828	7	Sololá	701	Sololá	3	Barraneche	6	Junio	2023-06-15T00:00:00	2024-11-06T18:00:00	5	Humedad	76
31829	7	Sololá	701	Sololá	3	Barraneche	6	Junio	2023-06-15T00:00:00	2024-11-06T18:00:00	6	Velocidad del viento	8
31830	7	Sololá	701	Sololá	3	Barraneche	6	Junio	2023-06-15T00:00:00	2024-11-06T18:00:00	7	Dirección del viento	8.05
31831	7	Sololá	701	Sololá	3	Barraneche	6	Junio	2023-06-15T00:00:00	2024-11-06T18:00:00	1	Precipitación	0
31832	7	Sololá	701	Sololá	3	Barraneche	6	Junio	2023-06-15T00:00:00	2024-11-06T18:00:00	8	Radiación solar	67
31833	7	Sololá	701	Sololá	3	Barraneche	6	Junio	2023-06-15T00:00:00	2024-11-06T19:00:00	2	Temperatura media	16.2
31834	7	Sololá	701	Sololá	3	Barraneche	6	Junio	2023-06-15T00:00:00	2024-11-06T19:00:00	4	Temperatura máxima	16.7
31835	7	Sololá	701	Sololá	3	Barraneche	6	Junio	2023-06-15T00:00:00	2024-11-06T19:00:00	3	Temperatura mínima	16.2
31836	7	Sololá	701	Sololá	3	Barraneche	6	Junio	2023-06-15T00:00:00	2024-11-06T19:00:00	5	Humedad	80
31837	7	Sololá	701	Sololá	3	Barraneche	6	Junio	2023-06-15T00:00:00	2024-11-06T19:00:00	6	Velocidad del viento	6.4
31838	7	Sololá	701	Sololá	3	Barraneche	6	Junio	2023-06-15T00:00:00	2024-11-06T19:00:00	7	Dirección del viento	6.44
31839	7	Sololá	701	Sololá	3	Barraneche	6	Junio	2023-06-15T00:00:00	2024-11-06T19:00:00	1	Precipitación	0
31840	7	Sololá	701	Sololá	3	Barraneche	6	Junio	2023-06-15T00:00:00	2024-11-06T19:00:00	8	Radiación solar	0
31841	7	Sololá	701	Sololá	3	Barraneche	6	Junio	2023-06-15T00:00:00	2024-11-06T20:00:00	2	Temperatura media	15.9
31842	7	Sololá	701	Sololá	3	Barraneche	6	Junio	2023-06-15T00:00:00	2024-11-06T20:00:00	4	Temperatura máxima	16.2
31843	7	Sololá	701	Sololá	3	Barraneche	6	Junio	2023-06-15T00:00:00	2024-11-06T20:00:00	3	Temperatura mínima	15.9
31844	7	Sololá	701	Sololá	3	Barraneche	6	Junio	2023-06-15T00:00:00	2024-11-06T20:00:00	5	Humedad	83
31845	7	Sololá	701	Sololá	3	Barraneche	6	Junio	2023-06-15T00:00:00	2024-11-06T20:00:00	6	Velocidad del viento	6.4
31846	7	Sololá	701	Sololá	3	Barraneche	6	Junio	2023-06-15T00:00:00	2024-11-06T20:00:00	7	Dirección del viento	6.44
31847	7	Sololá	701	Sololá	3	Barraneche	6	Junio	2023-06-15T00:00:00	2024-11-06T20:00:00	1	Precipitación	0
31848	7	Sololá	701	Sololá	3	Barraneche	6	Junio	2023-06-15T00:00:00	2024-11-06T20:00:00	8	Radiación solar	0
31849	7	Sololá	701	Sololá	3	Barraneche	6	Junio	2023-06-15T00:00:00	2024-11-06T21:00:00	2	Temperatura media	14.7
31850	7	Sololá	701	Sololá	3	Barraneche	6	Junio	2023-06-15T00:00:00	2024-11-06T21:00:00	4	Temperatura máxima	16.1
31851	7	Sololá	701	Sololá	3	Barraneche	6	Junio	2023-06-15T00:00:00	2024-11-06T21:00:00	3	Temperatura mínima	14.7
31852	7	Sololá	701	Sololá	3	Barraneche	6	Junio	2023-06-15T00:00:00	2024-11-06T21:00:00	5	Humedad	79
31853	7	Sololá	701	Sololá	3	Barraneche	6	Junio	2023-06-15T00:00:00	2024-11-06T21:00:00	6	Velocidad del viento	9.7
31854	7	Sololá	701	Sololá	3	Barraneche	6	Junio	2023-06-15T00:00:00	2024-11-06T21:00:00	7	Dirección del viento	9.66
31855	7	Sololá	701	Sololá	3	Barraneche	6	Junio	2023-06-15T00:00:00	2024-11-06T21:00:00	1	Precipitación	8.6
31856	7	Sololá	701	Sololá	3	Barraneche	6	Junio	2023-06-15T00:00:00	2024-11-06T21:00:00	8	Radiación solar	0
31857	7	Sololá	701	Sololá	3	Barraneche	6	Junio	2023-06-15T00:00:00	2024-11-06T22:00:00	2	Temperatura media	14.3
31858	7	Sololá	701	Sololá	3	Barraneche	6	Junio	2023-06-15T00:00:00	2024-11-06T22:00:00	4	Temperatura máxima	14.7
31859	7	Sololá	701	Sololá	3	Barraneche	6	Junio	2023-06-15T00:00:00	2024-11-06T22:00:00	3	Temperatura mínima	14.2
31860	7	Sololá	701	Sololá	3	Barraneche	6	Junio	2023-06-15T00:00:00	2024-11-06T22:00:00	5	Humedad	82
31861	7	Sololá	701	Sololá	3	Barraneche	6	Junio	2023-06-15T00:00:00	2024-11-06T22:00:00	6	Velocidad del viento	3.2
31862	7	Sololá	701	Sololá	3	Barraneche	6	Junio	2023-06-15T00:00:00	2024-11-06T22:00:00	7	Dirección del viento	3.22
31863	7	Sololá	701	Sololá	3	Barraneche	6	Junio	2023-06-15T00:00:00	2024-11-06T22:00:00	1	Precipitación	1.4
31864	7	Sololá	701	Sololá	3	Barraneche	6	Junio	2023-06-15T00:00:00	2024-11-06T22:00:00	8	Radiación solar	0
31865	7	Sololá	701	Sololá	3	Barraneche	6	Junio	2023-06-15T00:00:00	2024-11-06T23:00:00	2	Temperatura media	15.1
31866	7	Sololá	701	Sololá	3	Barraneche	6	Junio	2023-06-15T00:00:00	2024-11-06T23:00:00	4	Temperatura máxima	15.1
31867	7	Sololá	701	Sololá	3	Barraneche	6	Junio	2023-06-15T00:00:00	2024-11-06T23:00:00	3	Temperatura mínima	14.1
31868	7	Sololá	701	Sololá	3	Barraneche	6	Junio	2023-06-15T00:00:00	2024-11-06T23:00:00	5	Humedad	73
31869	7	Sololá	701	Sololá	3	Barraneche	6	Junio	2023-06-15T00:00:00	2024-11-06T23:00:00	6	Velocidad del viento	3.2
31870	7	Sololá	701	Sololá	3	Barraneche	6	Junio	2023-06-15T00:00:00	2024-11-06T23:00:00	7	Dirección del viento	3.22
31871	7	Sololá	701	Sololá	3	Barraneche	6	Junio	2023-06-15T00:00:00	2024-11-06T23:00:00	1	Precipitación	2.4
31872	7	Sololá	701	Sololá	3	Barraneche	6	Junio	2023-06-15T00:00:00	2024-11-06T23:00:00	8	Radiación solar	0
31873	7	Sololá	701	Sololá	3	Barraneche	6	Junio	2023-06-16T00:00:00	2024-11-06T00:00:00	2	Temperatura media	13.6
31874	7	Sololá	701	Sololá	3	Barraneche	6	Junio	2023-06-16T00:00:00	2024-11-06T00:00:00	4	Temperatura máxima	15.1
31875	7	Sololá	701	Sololá	3	Barraneche	6	Junio	2023-06-16T00:00:00	2024-11-06T00:00:00	3	Temperatura mínima	13.6
31876	7	Sololá	701	Sololá	3	Barraneche	6	Junio	2023-06-16T00:00:00	2024-11-06T00:00:00	5	Humedad	73
31877	7	Sololá	701	Sololá	3	Barraneche	6	Junio	2023-06-16T00:00:00	2024-11-06T00:00:00	6	Velocidad del viento	6.4
31878	7	Sololá	701	Sololá	3	Barraneche	6	Junio	2023-06-16T00:00:00	2024-11-06T00:00:00	7	Dirección del viento	6.44
31879	7	Sololá	701	Sololá	3	Barraneche	6	Junio	2023-06-16T00:00:00	2024-11-06T00:00:00	1	Precipitación	0
31880	7	Sololá	701	Sololá	3	Barraneche	6	Junio	2023-06-16T00:00:00	2024-11-06T00:00:00	8	Radiación solar	0
31881	7	Sololá	701	Sololá	3	Barraneche	6	Junio	2023-06-16T00:00:00	2024-11-06T01:00:00	2	Temperatura media	13
31882	7	Sololá	701	Sololá	3	Barraneche	6	Junio	2023-06-16T00:00:00	2024-11-06T01:00:00	4	Temperatura máxima	13.6
31883	7	Sololá	701	Sololá	3	Barraneche	6	Junio	2023-06-16T00:00:00	2024-11-06T01:00:00	3	Temperatura mínima	12.9
31884	7	Sololá	701	Sololá	3	Barraneche	6	Junio	2023-06-16T00:00:00	2024-11-06T01:00:00	5	Humedad	79
31885	7	Sololá	701	Sololá	3	Barraneche	6	Junio	2023-06-16T00:00:00	2024-11-06T01:00:00	6	Velocidad del viento	3.2
31886	7	Sololá	701	Sololá	3	Barraneche	6	Junio	2023-06-16T00:00:00	2024-11-06T01:00:00	7	Dirección del viento	3.22
31887	7	Sololá	701	Sololá	3	Barraneche	6	Junio	2023-06-16T00:00:00	2024-11-06T01:00:00	1	Precipitación	0
31888	7	Sololá	701	Sololá	3	Barraneche	6	Junio	2023-06-16T00:00:00	2024-11-06T01:00:00	8	Radiación solar	0
31889	7	Sololá	701	Sololá	3	Barraneche	6	Junio	2023-06-16T00:00:00	2024-11-06T02:00:00	2	Temperatura media	13.2
31890	7	Sololá	701	Sololá	3	Barraneche	6	Junio	2023-06-16T00:00:00	2024-11-06T02:00:00	4	Temperatura máxima	13.3
31891	7	Sololá	701	Sololá	3	Barraneche	6	Junio	2023-06-16T00:00:00	2024-11-06T02:00:00	3	Temperatura mínima	12.9
31892	7	Sololá	701	Sololá	3	Barraneche	6	Junio	2023-06-16T00:00:00	2024-11-06T02:00:00	5	Humedad	83
31893	7	Sololá	701	Sololá	3	Barraneche	6	Junio	2023-06-16T00:00:00	2024-11-06T02:00:00	6	Velocidad del viento	1.6
31894	7	Sololá	701	Sololá	3	Barraneche	6	Junio	2023-06-16T00:00:00	2024-11-06T02:00:00	7	Dirección del viento	1.61
31895	7	Sololá	701	Sololá	3	Barraneche	6	Junio	2023-06-16T00:00:00	2024-11-06T02:00:00	1	Precipitación	0
31896	7	Sololá	701	Sololá	3	Barraneche	6	Junio	2023-06-16T00:00:00	2024-11-06T02:00:00	8	Radiación solar	0
31897	7	Sololá	701	Sololá	3	Barraneche	6	Junio	2023-06-16T00:00:00	2024-11-06T03:00:00	2	Temperatura media	12.7
31898	7	Sololá	701	Sololá	3	Barraneche	6	Junio	2023-06-16T00:00:00	2024-11-06T03:00:00	4	Temperatura máxima	13.3
31899	7	Sololá	701	Sololá	3	Barraneche	6	Junio	2023-06-16T00:00:00	2024-11-06T03:00:00	3	Temperatura mínima	12.7
31900	7	Sololá	701	Sololá	3	Barraneche	6	Junio	2023-06-16T00:00:00	2024-11-06T03:00:00	5	Humedad	83
31901	7	Sololá	701	Sololá	3	Barraneche	6	Junio	2023-06-16T00:00:00	2024-11-06T03:00:00	6	Velocidad del viento	3.2
31902	7	Sololá	701	Sololá	3	Barraneche	6	Junio	2023-06-16T00:00:00	2024-11-06T03:00:00	7	Dirección del viento	3.22
31903	7	Sololá	701	Sololá	3	Barraneche	6	Junio	2023-06-16T00:00:00	2024-11-06T03:00:00	1	Precipitación	0
31904	7	Sololá	701	Sololá	3	Barraneche	6	Junio	2023-06-16T00:00:00	2024-11-06T03:00:00	8	Radiación solar	0
31905	7	Sololá	701	Sololá	3	Barraneche	6	Junio	2023-06-16T00:00:00	2024-11-06T04:00:00	2	Temperatura media	11.8
31906	7	Sololá	701	Sololá	3	Barraneche	6	Junio	2023-06-16T00:00:00	2024-11-06T04:00:00	4	Temperatura máxima	12.7
31907	7	Sololá	701	Sololá	3	Barraneche	6	Junio	2023-06-16T00:00:00	2024-11-06T04:00:00	3	Temperatura mínima	11.8
31908	7	Sololá	701	Sololá	3	Barraneche	6	Junio	2023-06-16T00:00:00	2024-11-06T04:00:00	5	Humedad	80
31909	7	Sololá	701	Sololá	3	Barraneche	6	Junio	2023-06-16T00:00:00	2024-11-06T04:00:00	6	Velocidad del viento	4.8
31910	7	Sololá	701	Sololá	3	Barraneche	6	Junio	2023-06-16T00:00:00	2024-11-06T04:00:00	7	Dirección del viento	4.83
31911	7	Sololá	701	Sololá	3	Barraneche	6	Junio	2023-06-16T00:00:00	2024-11-06T04:00:00	1	Precipitación	0
31912	7	Sololá	701	Sololá	3	Barraneche	6	Junio	2023-06-16T00:00:00	2024-11-06T04:00:00	8	Radiación solar	0
31913	7	Sololá	701	Sololá	3	Barraneche	6	Junio	2023-06-16T00:00:00	2024-11-06T05:00:00	2	Temperatura media	11.6
31914	7	Sololá	701	Sololá	3	Barraneche	6	Junio	2023-06-16T00:00:00	2024-11-06T05:00:00	4	Temperatura máxima	11.8
31915	7	Sololá	701	Sololá	3	Barraneche	6	Junio	2023-06-16T00:00:00	2024-11-06T05:00:00	3	Temperatura mínima	11.4
31916	7	Sololá	701	Sololá	3	Barraneche	6	Junio	2023-06-16T00:00:00	2024-11-06T05:00:00	5	Humedad	84
31917	7	Sololá	701	Sololá	3	Barraneche	6	Junio	2023-06-16T00:00:00	2024-11-06T05:00:00	6	Velocidad del viento	3.2
31918	7	Sololá	701	Sololá	3	Barraneche	6	Junio	2023-06-16T00:00:00	2024-11-06T05:00:00	7	Dirección del viento	3.22
31919	7	Sololá	701	Sololá	3	Barraneche	6	Junio	2023-06-16T00:00:00	2024-11-06T05:00:00	1	Precipitación	0
31920	7	Sololá	701	Sololá	3	Barraneche	6	Junio	2023-06-16T00:00:00	2024-11-06T05:00:00	8	Radiación solar	0
31921	7	Sololá	701	Sololá	3	Barraneche	6	Junio	2023-06-16T00:00:00	2024-11-06T06:00:00	2	Temperatura media	11.9
31922	7	Sololá	701	Sololá	3	Barraneche	6	Junio	2023-06-16T00:00:00	2024-11-06T06:00:00	4	Temperatura máxima	12.1
31923	7	Sololá	701	Sololá	3	Barraneche	6	Junio	2023-06-16T00:00:00	2024-11-06T06:00:00	3	Temperatura mínima	11.6
31924	7	Sololá	701	Sololá	3	Barraneche	6	Junio	2023-06-16T00:00:00	2024-11-06T06:00:00	5	Humedad	83
31925	7	Sololá	701	Sololá	3	Barraneche	6	Junio	2023-06-16T00:00:00	2024-11-06T06:00:00	6	Velocidad del viento	3.2
31926	7	Sololá	701	Sololá	3	Barraneche	6	Junio	2023-06-16T00:00:00	2024-11-06T06:00:00	7	Dirección del viento	3.22
31927	7	Sololá	701	Sololá	3	Barraneche	6	Junio	2023-06-16T00:00:00	2024-11-06T06:00:00	1	Precipitación	0
31928	7	Sololá	701	Sololá	3	Barraneche	6	Junio	2023-06-16T00:00:00	2024-11-06T06:00:00	8	Radiación solar	5
31929	7	Sololá	701	Sololá	3	Barraneche	6	Junio	2023-06-16T00:00:00	2024-11-06T07:00:00	2	Temperatura media	13.6
31930	7	Sololá	701	Sololá	3	Barraneche	6	Junio	2023-06-16T00:00:00	2024-11-06T07:00:00	4	Temperatura máxima	13.6
31931	7	Sololá	701	Sololá	3	Barraneche	6	Junio	2023-06-16T00:00:00	2024-11-06T07:00:00	3	Temperatura mínima	11.7
31932	7	Sololá	701	Sololá	3	Barraneche	6	Junio	2023-06-16T00:00:00	2024-11-06T07:00:00	5	Humedad	76
31933	7	Sololá	701	Sololá	3	Barraneche	6	Junio	2023-06-16T00:00:00	2024-11-06T07:00:00	6	Velocidad del viento	3.2
31934	7	Sololá	701	Sololá	3	Barraneche	6	Junio	2023-06-16T00:00:00	2024-11-06T07:00:00	7	Dirección del viento	3.22
31935	7	Sololá	701	Sololá	3	Barraneche	6	Junio	2023-06-16T00:00:00	2024-11-06T07:00:00	1	Precipitación	0
31936	7	Sololá	701	Sololá	3	Barraneche	6	Junio	2023-06-16T00:00:00	2024-11-06T07:00:00	8	Radiación solar	115
31937	7	Sololá	701	Sololá	3	Barraneche	6	Junio	2023-06-16T00:00:00	2024-11-06T08:00:00	2	Temperatura media	18
31938	7	Sololá	701	Sololá	3	Barraneche	6	Junio	2023-06-16T00:00:00	2024-11-06T08:00:00	4	Temperatura máxima	18
31939	7	Sololá	701	Sololá	3	Barraneche	6	Junio	2023-06-16T00:00:00	2024-11-06T08:00:00	3	Temperatura mínima	13.6
31940	7	Sololá	701	Sololá	3	Barraneche	6	Junio	2023-06-16T00:00:00	2024-11-06T08:00:00	5	Humedad	55
31941	7	Sololá	701	Sololá	3	Barraneche	6	Junio	2023-06-16T00:00:00	2024-11-06T08:00:00	6	Velocidad del viento	6.4
31942	7	Sololá	701	Sololá	3	Barraneche	6	Junio	2023-06-16T00:00:00	2024-11-06T08:00:00	7	Dirección del viento	6.44
31943	7	Sololá	701	Sololá	3	Barraneche	6	Junio	2023-06-16T00:00:00	2024-11-06T08:00:00	1	Precipitación	0
31944	7	Sololá	701	Sololá	3	Barraneche	6	Junio	2023-06-16T00:00:00	2024-11-06T08:00:00	8	Radiación solar	388
31945	7	Sololá	701	Sololá	3	Barraneche	6	Junio	2023-06-16T00:00:00	2024-11-06T09:00:00	2	Temperatura media	19.7
31946	7	Sololá	701	Sololá	3	Barraneche	6	Junio	2023-06-16T00:00:00	2024-11-06T09:00:00	4	Temperatura máxima	20
31947	7	Sololá	701	Sololá	3	Barraneche	6	Junio	2023-06-16T00:00:00	2024-11-06T09:00:00	3	Temperatura mínima	17.9
31948	7	Sololá	701	Sololá	3	Barraneche	6	Junio	2023-06-16T00:00:00	2024-11-06T09:00:00	5	Humedad	43
31949	7	Sololá	701	Sololá	3	Barraneche	6	Junio	2023-06-16T00:00:00	2024-11-06T09:00:00	6	Velocidad del viento	8
31950	7	Sololá	701	Sololá	3	Barraneche	6	Junio	2023-06-16T00:00:00	2024-11-06T09:00:00	7	Dirección del viento	8.05
31951	7	Sololá	701	Sololá	3	Barraneche	6	Junio	2023-06-16T00:00:00	2024-11-06T09:00:00	1	Precipitación	0
31952	7	Sololá	701	Sololá	3	Barraneche	6	Junio	2023-06-16T00:00:00	2024-11-06T09:00:00	8	Radiación solar	619
31953	7	Sololá	701	Sololá	3	Barraneche	6	Junio	2023-06-16T00:00:00	2024-11-06T10:00:00	2	Temperatura media	19.9
31954	7	Sololá	701	Sololá	3	Barraneche	6	Junio	2023-06-16T00:00:00	2024-11-06T10:00:00	4	Temperatura máxima	20.4
31955	7	Sololá	701	Sololá	3	Barraneche	6	Junio	2023-06-16T00:00:00	2024-11-06T10:00:00	3	Temperatura mínima	19.6
31956	7	Sololá	701	Sololá	3	Barraneche	6	Junio	2023-06-16T00:00:00	2024-11-06T10:00:00	5	Humedad	52
31957	7	Sololá	701	Sololá	3	Barraneche	6	Junio	2023-06-16T00:00:00	2024-11-06T10:00:00	6	Velocidad del viento	6.4
31958	7	Sololá	701	Sololá	3	Barraneche	6	Junio	2023-06-16T00:00:00	2024-11-06T10:00:00	7	Dirección del viento	6.44
31959	7	Sololá	701	Sololá	3	Barraneche	6	Junio	2023-06-16T00:00:00	2024-11-06T10:00:00	1	Precipitación	0
31960	7	Sololá	701	Sololá	3	Barraneche	6	Junio	2023-06-16T00:00:00	2024-11-06T10:00:00	8	Radiación solar	809
31961	7	Sololá	701	Sololá	3	Barraneche	6	Junio	2023-06-16T00:00:00	2024-11-06T11:00:00	2	Temperatura media	19.3
31962	7	Sololá	701	Sololá	3	Barraneche	6	Junio	2023-06-16T00:00:00	2024-11-06T11:00:00	4	Temperatura máxima	21
31963	7	Sololá	701	Sololá	3	Barraneche	6	Junio	2023-06-16T00:00:00	2024-11-06T11:00:00	3	Temperatura mínima	19.2
31964	7	Sololá	701	Sololá	3	Barraneche	6	Junio	2023-06-16T00:00:00	2024-11-06T11:00:00	5	Humedad	56
31965	7	Sololá	701	Sololá	3	Barraneche	6	Junio	2023-06-16T00:00:00	2024-11-06T11:00:00	6	Velocidad del viento	9.7
31966	7	Sololá	701	Sololá	3	Barraneche	6	Junio	2023-06-16T00:00:00	2024-11-06T11:00:00	7	Dirección del viento	9.66
31967	7	Sololá	701	Sololá	3	Barraneche	6	Junio	2023-06-16T00:00:00	2024-11-06T11:00:00	1	Precipitación	0
31968	7	Sololá	701	Sololá	3	Barraneche	6	Junio	2023-06-16T00:00:00	2024-11-06T11:00:00	8	Radiación solar	753
31969	7	Sololá	701	Sololá	3	Barraneche	6	Junio	2023-06-16T00:00:00	2024-11-06T12:00:00	2	Temperatura media	19.3
31970	7	Sololá	701	Sololá	3	Barraneche	6	Junio	2023-06-16T00:00:00	2024-11-06T12:00:00	4	Temperatura máxima	19.9
31971	7	Sololá	701	Sololá	3	Barraneche	6	Junio	2023-06-16T00:00:00	2024-11-06T12:00:00	3	Temperatura mínima	19.3
31972	7	Sololá	701	Sololá	3	Barraneche	6	Junio	2023-06-16T00:00:00	2024-11-06T12:00:00	5	Humedad	58
31973	7	Sololá	701	Sololá	3	Barraneche	6	Junio	2023-06-16T00:00:00	2024-11-06T12:00:00	6	Velocidad del viento	11.3
31974	7	Sololá	701	Sololá	3	Barraneche	6	Junio	2023-06-16T00:00:00	2024-11-06T12:00:00	7	Dirección del viento	11.27
31975	7	Sololá	701	Sololá	3	Barraneche	6	Junio	2023-06-16T00:00:00	2024-11-06T12:00:00	1	Precipitación	0
31976	7	Sololá	701	Sololá	3	Barraneche	6	Junio	2023-06-16T00:00:00	2024-11-06T12:00:00	8	Radiación solar	684
31977	7	Sololá	701	Sololá	3	Barraneche	6	Junio	2023-06-16T00:00:00	2024-11-06T13:00:00	2	Temperatura media	19.3
31978	7	Sololá	701	Sololá	3	Barraneche	6	Junio	2023-06-16T00:00:00	2024-11-06T13:00:00	4	Temperatura máxima	20.4
31979	7	Sololá	701	Sololá	3	Barraneche	6	Junio	2023-06-16T00:00:00	2024-11-06T13:00:00	3	Temperatura mínima	19.3
31980	7	Sololá	701	Sololá	3	Barraneche	6	Junio	2023-06-16T00:00:00	2024-11-06T13:00:00	5	Humedad	62
31981	7	Sololá	701	Sololá	3	Barraneche	6	Junio	2023-06-16T00:00:00	2024-11-06T13:00:00	6	Velocidad del viento	11.3
31982	7	Sololá	701	Sololá	3	Barraneche	6	Junio	2023-06-16T00:00:00	2024-11-06T13:00:00	7	Dirección del viento	11.27
31983	7	Sololá	701	Sololá	3	Barraneche	6	Junio	2023-06-16T00:00:00	2024-11-06T13:00:00	1	Precipitación	0
31984	7	Sololá	701	Sololá	3	Barraneche	6	Junio	2023-06-16T00:00:00	2024-11-06T13:00:00	8	Radiación solar	567
31985	7	Sololá	701	Sololá	3	Barraneche	6	Junio	2023-06-16T00:00:00	2024-11-06T14:00:00	2	Temperatura media	19.3
31986	7	Sololá	701	Sololá	3	Barraneche	6	Junio	2023-06-16T00:00:00	2024-11-06T14:00:00	4	Temperatura máxima	19.4
31987	7	Sololá	701	Sololá	3	Barraneche	6	Junio	2023-06-16T00:00:00	2024-11-06T14:00:00	3	Temperatura mínima	18.4
31988	7	Sololá	701	Sololá	3	Barraneche	6	Junio	2023-06-16T00:00:00	2024-11-06T14:00:00	5	Humedad	63
31989	7	Sololá	701	Sololá	3	Barraneche	6	Junio	2023-06-16T00:00:00	2024-11-06T14:00:00	6	Velocidad del viento	9.7
31990	7	Sololá	701	Sololá	3	Barraneche	6	Junio	2023-06-16T00:00:00	2024-11-06T14:00:00	7	Dirección del viento	9.66
31991	7	Sololá	701	Sololá	3	Barraneche	6	Junio	2023-06-16T00:00:00	2024-11-06T14:00:00	1	Precipitación	0
31992	7	Sololá	701	Sololá	3	Barraneche	6	Junio	2023-06-16T00:00:00	2024-11-06T14:00:00	8	Radiación solar	330
31993	7	Sololá	701	Sololá	3	Barraneche	6	Junio	2023-06-16T00:00:00	2024-11-06T15:00:00	2	Temperatura media	18.5
31994	7	Sololá	701	Sololá	3	Barraneche	6	Junio	2023-06-16T00:00:00	2024-11-06T15:00:00	4	Temperatura máxima	19.3
31995	7	Sololá	701	Sololá	3	Barraneche	6	Junio	2023-06-16T00:00:00	2024-11-06T15:00:00	3	Temperatura mínima	18.5
31996	7	Sololá	701	Sololá	3	Barraneche	6	Junio	2023-06-16T00:00:00	2024-11-06T15:00:00	5	Humedad	68
31997	7	Sololá	701	Sololá	3	Barraneche	6	Junio	2023-06-16T00:00:00	2024-11-06T15:00:00	6	Velocidad del viento	11.3
31998	7	Sololá	701	Sololá	3	Barraneche	6	Junio	2023-06-16T00:00:00	2024-11-06T15:00:00	7	Dirección del viento	11.27
31999	7	Sololá	701	Sololá	3	Barraneche	6	Junio	2023-06-16T00:00:00	2024-11-06T15:00:00	1	Precipitación	0
32000	7	Sololá	701	Sololá	3	Barraneche	6	Junio	2023-06-16T00:00:00	2024-11-06T15:00:00	8	Radiación solar	396
32001	7	Sololá	701	Sololá	3	Barraneche	6	Junio	2023-06-16T00:00:00	2024-11-06T16:00:00	2	Temperatura media	17.9
32002	7	Sololá	701	Sololá	3	Barraneche	6	Junio	2023-06-16T00:00:00	2024-11-06T16:00:00	4	Temperatura máxima	18.9
32003	7	Sololá	701	Sololá	3	Barraneche	6	Junio	2023-06-16T00:00:00	2024-11-06T16:00:00	3	Temperatura mínima	17.9
32004	7	Sololá	701	Sololá	3	Barraneche	6	Junio	2023-06-16T00:00:00	2024-11-06T16:00:00	5	Humedad	70
32005	7	Sololá	701	Sololá	3	Barraneche	6	Junio	2023-06-16T00:00:00	2024-11-06T16:00:00	6	Velocidad del viento	11.3
32006	7	Sololá	701	Sololá	3	Barraneche	6	Junio	2023-06-16T00:00:00	2024-11-06T16:00:00	7	Dirección del viento	11.27
32007	7	Sololá	701	Sololá	3	Barraneche	6	Junio	2023-06-16T00:00:00	2024-11-06T16:00:00	1	Precipitación	0
32008	7	Sololá	701	Sololá	3	Barraneche	6	Junio	2023-06-16T00:00:00	2024-11-06T16:00:00	8	Radiación solar	357
32009	7	Sololá	701	Sololá	3	Barraneche	6	Junio	2023-06-16T00:00:00	2024-11-06T17:00:00	2	Temperatura media	17.3
32010	7	Sololá	701	Sololá	3	Barraneche	6	Junio	2023-06-16T00:00:00	2024-11-06T17:00:00	4	Temperatura máxima	18.1
32011	7	Sololá	701	Sololá	3	Barraneche	6	Junio	2023-06-16T00:00:00	2024-11-06T17:00:00	3	Temperatura mínima	16.9
32012	7	Sololá	701	Sololá	3	Barraneche	6	Junio	2023-06-16T00:00:00	2024-11-06T17:00:00	5	Humedad	67
32013	7	Sololá	701	Sololá	3	Barraneche	6	Junio	2023-06-16T00:00:00	2024-11-06T17:00:00	6	Velocidad del viento	11.3
32014	7	Sololá	701	Sololá	3	Barraneche	6	Junio	2023-06-16T00:00:00	2024-11-06T17:00:00	7	Dirección del viento	11.27
32015	7	Sololá	701	Sololá	3	Barraneche	6	Junio	2023-06-16T00:00:00	2024-11-06T17:00:00	1	Precipitación	0
32016	7	Sololá	701	Sololá	3	Barraneche	6	Junio	2023-06-16T00:00:00	2024-11-06T17:00:00	8	Radiación solar	265
32017	7	Sololá	701	Sololá	3	Barraneche	6	Junio	2023-06-16T00:00:00	2024-11-06T18:00:00	2	Temperatura media	15.9
32018	7	Sololá	701	Sololá	3	Barraneche	6	Junio	2023-06-16T00:00:00	2024-11-06T18:00:00	4	Temperatura máxima	17.8
32019	7	Sololá	701	Sololá	3	Barraneche	6	Junio	2023-06-16T00:00:00	2024-11-06T18:00:00	3	Temperatura mínima	15.9
32020	7	Sololá	701	Sololá	3	Barraneche	6	Junio	2023-06-16T00:00:00	2024-11-06T18:00:00	5	Humedad	72
32021	7	Sololá	701	Sololá	3	Barraneche	6	Junio	2023-06-16T00:00:00	2024-11-06T18:00:00	6	Velocidad del viento	4.8
32022	7	Sololá	701	Sololá	3	Barraneche	6	Junio	2023-06-16T00:00:00	2024-11-06T18:00:00	7	Dirección del viento	4.83
32023	7	Sololá	701	Sololá	3	Barraneche	6	Junio	2023-06-16T00:00:00	2024-11-06T18:00:00	1	Precipitación	0
32024	7	Sololá	701	Sololá	3	Barraneche	6	Junio	2023-06-16T00:00:00	2024-11-06T18:00:00	8	Radiación solar	77
32025	7	Sololá	701	Sololá	3	Barraneche	6	Junio	2023-06-16T00:00:00	2024-11-06T19:00:00	2	Temperatura media	15.4
32026	7	Sololá	701	Sololá	3	Barraneche	6	Junio	2023-06-16T00:00:00	2024-11-06T19:00:00	4	Temperatura máxima	15.9
32027	7	Sololá	701	Sololá	3	Barraneche	6	Junio	2023-06-16T00:00:00	2024-11-06T19:00:00	3	Temperatura mínima	15.4
32028	7	Sololá	701	Sololá	3	Barraneche	6	Junio	2023-06-16T00:00:00	2024-11-06T19:00:00	5	Humedad	74
32029	7	Sololá	701	Sololá	3	Barraneche	6	Junio	2023-06-16T00:00:00	2024-11-06T19:00:00	6	Velocidad del viento	1.6
32030	7	Sololá	701	Sololá	3	Barraneche	6	Junio	2023-06-16T00:00:00	2024-11-06T19:00:00	7	Dirección del viento	1.61
32031	7	Sololá	701	Sololá	3	Barraneche	6	Junio	2023-06-16T00:00:00	2024-11-06T19:00:00	1	Precipitación	0
32032	7	Sololá	701	Sololá	3	Barraneche	6	Junio	2023-06-16T00:00:00	2024-11-06T19:00:00	8	Radiación solar	0
32033	7	Sololá	701	Sololá	3	Barraneche	6	Junio	2023-06-16T00:00:00	2024-11-06T20:00:00	2	Temperatura media	16.8
32034	7	Sololá	701	Sololá	3	Barraneche	6	Junio	2023-06-16T00:00:00	2024-11-06T20:00:00	4	Temperatura máxima	16.8
32035	7	Sololá	701	Sololá	3	Barraneche	6	Junio	2023-06-16T00:00:00	2024-11-06T20:00:00	3	Temperatura mínima	14.8
32036	7	Sololá	701	Sololá	3	Barraneche	6	Junio	2023-06-16T00:00:00	2024-11-06T20:00:00	5	Humedad	63
32037	7	Sololá	701	Sololá	3	Barraneche	6	Junio	2023-06-16T00:00:00	2024-11-06T20:00:00	6	Velocidad del viento	6.4
32038	7	Sololá	701	Sololá	3	Barraneche	6	Junio	2023-06-16T00:00:00	2024-11-06T20:00:00	7	Dirección del viento	6.44
32039	7	Sololá	701	Sololá	3	Barraneche	6	Junio	2023-06-16T00:00:00	2024-11-06T20:00:00	1	Precipitación	0
32040	7	Sololá	701	Sololá	3	Barraneche	6	Junio	2023-06-16T00:00:00	2024-11-06T20:00:00	8	Radiación solar	0
32041	7	Sololá	701	Sololá	3	Barraneche	6	Junio	2023-06-16T00:00:00	2024-11-06T21:00:00	2	Temperatura media	14.9
32042	7	Sololá	701	Sololá	3	Barraneche	6	Junio	2023-06-16T00:00:00	2024-11-06T21:00:00	4	Temperatura máxima	16.8
32043	7	Sololá	701	Sololá	3	Barraneche	6	Junio	2023-06-16T00:00:00	2024-11-06T21:00:00	3	Temperatura mínima	14.9
32044	7	Sololá	701	Sololá	3	Barraneche	6	Junio	2023-06-16T00:00:00	2024-11-06T21:00:00	5	Humedad	69
32045	7	Sololá	701	Sololá	3	Barraneche	6	Junio	2023-06-16T00:00:00	2024-11-06T21:00:00	6	Velocidad del viento	9.7
32046	7	Sololá	701	Sololá	3	Barraneche	6	Junio	2023-06-16T00:00:00	2024-11-06T21:00:00	7	Dirección del viento	9.66
32047	7	Sololá	701	Sololá	3	Barraneche	6	Junio	2023-06-16T00:00:00	2024-11-06T21:00:00	1	Precipitación	1.4
32048	7	Sololá	701	Sololá	3	Barraneche	6	Junio	2023-06-16T00:00:00	2024-11-06T21:00:00	8	Radiación solar	0
32049	7	Sololá	701	Sololá	3	Barraneche	6	Junio	2023-06-16T00:00:00	2024-11-06T22:00:00	2	Temperatura media	15.8
32050	7	Sololá	701	Sololá	3	Barraneche	6	Junio	2023-06-16T00:00:00	2024-11-06T22:00:00	4	Temperatura máxima	15.8
32051	7	Sololá	701	Sololá	3	Barraneche	6	Junio	2023-06-16T00:00:00	2024-11-06T22:00:00	3	Temperatura mínima	14.7
32052	7	Sololá	701	Sololá	3	Barraneche	6	Junio	2023-06-16T00:00:00	2024-11-06T22:00:00	5	Humedad	68
32053	7	Sololá	701	Sololá	3	Barraneche	6	Junio	2023-06-16T00:00:00	2024-11-06T22:00:00	6	Velocidad del viento	9.7
32054	7	Sololá	701	Sololá	3	Barraneche	6	Junio	2023-06-16T00:00:00	2024-11-06T22:00:00	7	Dirección del viento	9.66
32055	7	Sololá	701	Sololá	3	Barraneche	6	Junio	2023-06-16T00:00:00	2024-11-06T22:00:00	1	Precipitación	0.2
32056	7	Sololá	701	Sololá	3	Barraneche	6	Junio	2023-06-16T00:00:00	2024-11-06T22:00:00	8	Radiación solar	0
32057	7	Sololá	701	Sololá	3	Barraneche	6	Junio	2023-06-16T00:00:00	2024-11-06T23:00:00	2	Temperatura media	14.1
32058	7	Sololá	701	Sololá	3	Barraneche	6	Junio	2023-06-16T00:00:00	2024-11-06T23:00:00	4	Temperatura máxima	16.2
32059	7	Sololá	701	Sololá	3	Barraneche	6	Junio	2023-06-16T00:00:00	2024-11-06T23:00:00	3	Temperatura mínima	13.6
32060	7	Sololá	701	Sololá	3	Barraneche	6	Junio	2023-06-16T00:00:00	2024-11-06T23:00:00	5	Humedad	68
32061	7	Sololá	701	Sololá	3	Barraneche	6	Junio	2023-06-16T00:00:00	2024-11-06T23:00:00	6	Velocidad del viento	12.9
32062	7	Sololá	701	Sololá	3	Barraneche	6	Junio	2023-06-16T00:00:00	2024-11-06T23:00:00	7	Dirección del viento	12.87
32063	7	Sololá	701	Sololá	3	Barraneche	6	Junio	2023-06-16T00:00:00	2024-11-06T23:00:00	1	Precipitación	4.2
32064	7	Sololá	701	Sololá	3	Barraneche	6	Junio	2023-06-16T00:00:00	2024-11-06T23:00:00	8	Radiación solar	0
32065	7	Sololá	701	Sololá	3	Barraneche	6	Junio	2023-06-17T00:00:00	2024-11-06T00:00:00	2	Temperatura media	14.1
32066	7	Sololá	701	Sololá	3	Barraneche	6	Junio	2023-06-17T00:00:00	2024-11-06T00:00:00	4	Temperatura máxima	14.1
32067	7	Sololá	701	Sololá	3	Barraneche	6	Junio	2023-06-17T00:00:00	2024-11-06T00:00:00	3	Temperatura mínima	13.4
32068	7	Sololá	701	Sololá	3	Barraneche	6	Junio	2023-06-17T00:00:00	2024-11-06T00:00:00	5	Humedad	70
32069	7	Sololá	701	Sololá	3	Barraneche	6	Junio	2023-06-17T00:00:00	2024-11-06T00:00:00	6	Velocidad del viento	4.8
32070	7	Sololá	701	Sololá	3	Barraneche	6	Junio	2023-06-17T00:00:00	2024-11-06T00:00:00	7	Dirección del viento	4.83
32071	7	Sololá	701	Sololá	3	Barraneche	6	Junio	2023-06-17T00:00:00	2024-11-06T00:00:00	1	Precipitación	0.2
32072	7	Sololá	701	Sololá	3	Barraneche	6	Junio	2023-06-17T00:00:00	2024-11-06T00:00:00	8	Radiación solar	0
32073	7	Sololá	701	Sololá	3	Barraneche	6	Junio	2023-06-17T00:00:00	2024-11-06T01:00:00	2	Temperatura media	14.6
32074	7	Sololá	701	Sololá	3	Barraneche	6	Junio	2023-06-17T00:00:00	2024-11-06T01:00:00	4	Temperatura máxima	14.9
32075	7	Sololá	701	Sololá	3	Barraneche	6	Junio	2023-06-17T00:00:00	2024-11-06T01:00:00	3	Temperatura mínima	13.8
32076	7	Sololá	701	Sololá	3	Barraneche	6	Junio	2023-06-17T00:00:00	2024-11-06T01:00:00	5	Humedad	64
32077	7	Sololá	701	Sololá	3	Barraneche	6	Junio	2023-06-17T00:00:00	2024-11-06T01:00:00	6	Velocidad del viento	8
32078	7	Sololá	701	Sololá	3	Barraneche	6	Junio	2023-06-17T00:00:00	2024-11-06T01:00:00	7	Dirección del viento	8.05
32079	7	Sololá	701	Sololá	3	Barraneche	6	Junio	2023-06-17T00:00:00	2024-11-06T01:00:00	1	Precipitación	0
32080	7	Sololá	701	Sololá	3	Barraneche	6	Junio	2023-06-17T00:00:00	2024-11-06T01:00:00	8	Radiación solar	0
32081	7	Sololá	701	Sololá	3	Barraneche	6	Junio	2023-06-17T00:00:00	2024-11-06T02:00:00	2	Temperatura media	14.8
32082	7	Sololá	701	Sololá	3	Barraneche	6	Junio	2023-06-17T00:00:00	2024-11-06T02:00:00	4	Temperatura máxima	15.1
32083	7	Sololá	701	Sololá	3	Barraneche	6	Junio	2023-06-17T00:00:00	2024-11-06T02:00:00	3	Temperatura mínima	14.5
32084	7	Sololá	701	Sololá	3	Barraneche	6	Junio	2023-06-17T00:00:00	2024-11-06T02:00:00	5	Humedad	60
32085	7	Sololá	701	Sololá	3	Barraneche	6	Junio	2023-06-17T00:00:00	2024-11-06T02:00:00	6	Velocidad del viento	6.4
32086	7	Sololá	701	Sololá	3	Barraneche	6	Junio	2023-06-17T00:00:00	2024-11-06T02:00:00	7	Dirección del viento	6.44
32087	7	Sololá	701	Sololá	3	Barraneche	6	Junio	2023-06-17T00:00:00	2024-11-06T02:00:00	1	Precipitación	0
32088	7	Sololá	701	Sololá	3	Barraneche	6	Junio	2023-06-17T00:00:00	2024-11-06T02:00:00	8	Radiación solar	0
32089	7	Sololá	701	Sololá	3	Barraneche	6	Junio	2023-06-17T00:00:00	2024-11-06T03:00:00	2	Temperatura media	14.7
32090	7	Sololá	701	Sololá	3	Barraneche	6	Junio	2023-06-17T00:00:00	2024-11-06T03:00:00	4	Temperatura máxima	15.2
32091	7	Sololá	701	Sololá	3	Barraneche	6	Junio	2023-06-17T00:00:00	2024-11-06T03:00:00	3	Temperatura mínima	14.2
32092	7	Sololá	701	Sololá	3	Barraneche	6	Junio	2023-06-17T00:00:00	2024-11-06T03:00:00	5	Humedad	63
32093	7	Sololá	701	Sololá	3	Barraneche	6	Junio	2023-06-17T00:00:00	2024-11-06T03:00:00	6	Velocidad del viento	9.7
32094	7	Sololá	701	Sololá	3	Barraneche	6	Junio	2023-06-17T00:00:00	2024-11-06T03:00:00	7	Dirección del viento	9.66
32095	7	Sololá	701	Sololá	3	Barraneche	6	Junio	2023-06-17T00:00:00	2024-11-06T03:00:00	1	Precipitación	0
32096	7	Sololá	701	Sololá	3	Barraneche	6	Junio	2023-06-17T00:00:00	2024-11-06T03:00:00	8	Radiación solar	0
32097	7	Sololá	701	Sololá	3	Barraneche	6	Junio	2023-06-17T00:00:00	2024-11-06T04:00:00	2	Temperatura media	14.8
32098	7	Sololá	701	Sololá	3	Barraneche	6	Junio	2023-06-17T00:00:00	2024-11-06T04:00:00	4	Temperatura máxima	15.3
32099	7	Sololá	701	Sololá	3	Barraneche	6	Junio	2023-06-17T00:00:00	2024-11-06T04:00:00	3	Temperatura mínima	14.7
32100	7	Sololá	701	Sololá	3	Barraneche	6	Junio	2023-06-17T00:00:00	2024-11-06T04:00:00	5	Humedad	58
32101	7	Sololá	701	Sololá	3	Barraneche	6	Junio	2023-06-17T00:00:00	2024-11-06T04:00:00	6	Velocidad del viento	8
32102	7	Sololá	701	Sololá	3	Barraneche	6	Junio	2023-06-17T00:00:00	2024-11-06T04:00:00	7	Dirección del viento	8.05
32103	7	Sololá	701	Sololá	3	Barraneche	6	Junio	2023-06-17T00:00:00	2024-11-06T04:00:00	1	Precipitación	0
32104	7	Sololá	701	Sololá	3	Barraneche	6	Junio	2023-06-17T00:00:00	2024-11-06T04:00:00	8	Radiación solar	0
32105	7	Sololá	701	Sololá	3	Barraneche	6	Junio	2023-06-17T00:00:00	2024-11-06T05:00:00	2	Temperatura media	14.5
32106	7	Sololá	701	Sololá	3	Barraneche	6	Junio	2023-06-17T00:00:00	2024-11-06T05:00:00	4	Temperatura máxima	14.9
32107	7	Sololá	701	Sololá	3	Barraneche	6	Junio	2023-06-17T00:00:00	2024-11-06T05:00:00	3	Temperatura mínima	12.6
32108	7	Sololá	701	Sololá	3	Barraneche	6	Junio	2023-06-17T00:00:00	2024-11-06T05:00:00	5	Humedad	59
32109	7	Sololá	701	Sololá	3	Barraneche	6	Junio	2023-06-17T00:00:00	2024-11-06T05:00:00	6	Velocidad del viento	3.2
32110	7	Sololá	701	Sololá	3	Barraneche	6	Junio	2023-06-17T00:00:00	2024-11-06T05:00:00	7	Dirección del viento	3.22
32111	7	Sololá	701	Sololá	3	Barraneche	6	Junio	2023-06-17T00:00:00	2024-11-06T05:00:00	1	Precipitación	0
32112	7	Sololá	701	Sololá	3	Barraneche	6	Junio	2023-06-17T00:00:00	2024-11-06T05:00:00	8	Radiación solar	0
32113	7	Sololá	701	Sololá	3	Barraneche	6	Junio	2023-06-17T00:00:00	2024-11-06T06:00:00	2	Temperatura media	16.3
32114	7	Sololá	701	Sololá	3	Barraneche	6	Junio	2023-06-17T00:00:00	2024-11-06T06:00:00	4	Temperatura máxima	16.3
32115	7	Sololá	701	Sololá	3	Barraneche	6	Junio	2023-06-17T00:00:00	2024-11-06T06:00:00	3	Temperatura mínima	14.6
32116	7	Sololá	701	Sololá	3	Barraneche	6	Junio	2023-06-17T00:00:00	2024-11-06T06:00:00	5	Humedad	53
32117	7	Sololá	701	Sololá	3	Barraneche	6	Junio	2023-06-17T00:00:00	2024-11-06T06:00:00	6	Velocidad del viento	9.7
32118	7	Sololá	701	Sololá	3	Barraneche	6	Junio	2023-06-17T00:00:00	2024-11-06T06:00:00	7	Dirección del viento	9.66
32119	7	Sololá	701	Sololá	3	Barraneche	6	Junio	2023-06-17T00:00:00	2024-11-06T06:00:00	1	Precipitación	0
32120	7	Sololá	701	Sololá	3	Barraneche	6	Junio	2023-06-17T00:00:00	2024-11-06T06:00:00	8	Radiación solar	4
32121	7	Sololá	701	Sololá	3	Barraneche	6	Junio	2023-06-17T00:00:00	2024-11-06T07:00:00	2	Temperatura media	17.3
32122	7	Sololá	701	Sololá	3	Barraneche	6	Junio	2023-06-17T00:00:00	2024-11-06T07:00:00	4	Temperatura máxima	17.3
32123	7	Sololá	701	Sololá	3	Barraneche	6	Junio	2023-06-17T00:00:00	2024-11-06T07:00:00	3	Temperatura mínima	16.2
32124	7	Sololá	701	Sololá	3	Barraneche	6	Junio	2023-06-17T00:00:00	2024-11-06T07:00:00	5	Humedad	51
32125	7	Sololá	701	Sololá	3	Barraneche	6	Junio	2023-06-17T00:00:00	2024-11-06T07:00:00	6	Velocidad del viento	19.3
32126	7	Sololá	701	Sololá	3	Barraneche	6	Junio	2023-06-17T00:00:00	2024-11-06T07:00:00	7	Dirección del viento	19.31
32127	7	Sololá	701	Sololá	3	Barraneche	6	Junio	2023-06-17T00:00:00	2024-11-06T07:00:00	1	Precipitación	0
32128	7	Sololá	701	Sololá	3	Barraneche	6	Junio	2023-06-17T00:00:00	2024-11-06T07:00:00	8	Radiación solar	109
32129	7	Sololá	701	Sololá	3	Barraneche	6	Junio	2023-06-17T00:00:00	2024-11-06T08:00:00	2	Temperatura media	18.5
32130	7	Sololá	701	Sololá	3	Barraneche	6	Junio	2023-06-17T00:00:00	2024-11-06T08:00:00	4	Temperatura máxima	18.6
32131	7	Sololá	701	Sololá	3	Barraneche	6	Junio	2023-06-17T00:00:00	2024-11-06T08:00:00	3	Temperatura mínima	17.4
32132	7	Sololá	701	Sololá	3	Barraneche	6	Junio	2023-06-17T00:00:00	2024-11-06T08:00:00	5	Humedad	51
32133	7	Sololá	701	Sololá	3	Barraneche	6	Junio	2023-06-17T00:00:00	2024-11-06T08:00:00	6	Velocidad del viento	12.9
32134	7	Sololá	701	Sololá	3	Barraneche	6	Junio	2023-06-17T00:00:00	2024-11-06T08:00:00	7	Dirección del viento	12.87
32135	7	Sololá	701	Sololá	3	Barraneche	6	Junio	2023-06-17T00:00:00	2024-11-06T08:00:00	1	Precipitación	0
32136	7	Sololá	701	Sololá	3	Barraneche	6	Junio	2023-06-17T00:00:00	2024-11-06T08:00:00	8	Radiación solar	394
32137	7	Sololá	701	Sololá	3	Barraneche	6	Junio	2023-06-17T00:00:00	2024-11-06T09:00:00	2	Temperatura media	19.1
32138	7	Sololá	701	Sololá	3	Barraneche	6	Junio	2023-06-17T00:00:00	2024-11-06T09:00:00	4	Temperatura máxima	19.2
32139	7	Sololá	701	Sololá	3	Barraneche	6	Junio	2023-06-17T00:00:00	2024-11-06T09:00:00	3	Temperatura mínima	18.4
32140	7	Sololá	701	Sololá	3	Barraneche	6	Junio	2023-06-17T00:00:00	2024-11-06T09:00:00	5	Humedad	46
32141	7	Sololá	701	Sololá	3	Barraneche	6	Junio	2023-06-17T00:00:00	2024-11-06T09:00:00	6	Velocidad del viento	20.9
32142	7	Sololá	701	Sololá	3	Barraneche	6	Junio	2023-06-17T00:00:00	2024-11-06T09:00:00	7	Dirección del viento	20.92
32143	7	Sololá	701	Sololá	3	Barraneche	6	Junio	2023-06-17T00:00:00	2024-11-06T09:00:00	1	Precipitación	0
32144	7	Sololá	701	Sololá	3	Barraneche	6	Junio	2023-06-17T00:00:00	2024-11-06T09:00:00	8	Radiación solar	626
32145	7	Sololá	701	Sololá	3	Barraneche	6	Junio	2023-06-17T00:00:00	2024-11-06T10:00:00	2	Temperatura media	19.6
32146	7	Sololá	701	Sololá	3	Barraneche	6	Junio	2023-06-17T00:00:00	2024-11-06T10:00:00	4	Temperatura máxima	19.8
32147	7	Sololá	701	Sololá	3	Barraneche	6	Junio	2023-06-17T00:00:00	2024-11-06T10:00:00	3	Temperatura mínima	19.1
32148	7	Sololá	701	Sololá	3	Barraneche	6	Junio	2023-06-17T00:00:00	2024-11-06T10:00:00	5	Humedad	46
32149	7	Sololá	701	Sololá	3	Barraneche	6	Junio	2023-06-17T00:00:00	2024-11-06T10:00:00	6	Velocidad del viento	20.9
32150	7	Sololá	701	Sololá	3	Barraneche	6	Junio	2023-06-17T00:00:00	2024-11-06T10:00:00	7	Dirección del viento	20.92
32151	7	Sololá	701	Sololá	3	Barraneche	6	Junio	2023-06-17T00:00:00	2024-11-06T10:00:00	1	Precipitación	0
32152	7	Sololá	701	Sololá	3	Barraneche	6	Junio	2023-06-17T00:00:00	2024-11-06T10:00:00	8	Radiación solar	815
32153	7	Sololá	701	Sololá	3	Barraneche	6	Junio	2023-06-17T00:00:00	2024-11-06T11:00:00	2	Temperatura media	19.7
32154	7	Sololá	701	Sololá	3	Barraneche	6	Junio	2023-06-17T00:00:00	2024-11-06T11:00:00	4	Temperatura máxima	20
32155	7	Sololá	701	Sololá	3	Barraneche	6	Junio	2023-06-17T00:00:00	2024-11-06T11:00:00	3	Temperatura mínima	19.5
32156	7	Sololá	701	Sololá	3	Barraneche	6	Junio	2023-06-17T00:00:00	2024-11-06T11:00:00	5	Humedad	50
32157	7	Sololá	701	Sololá	3	Barraneche	6	Junio	2023-06-17T00:00:00	2024-11-06T11:00:00	6	Velocidad del viento	19.3
32158	7	Sololá	701	Sololá	3	Barraneche	6	Junio	2023-06-17T00:00:00	2024-11-06T11:00:00	7	Dirección del viento	19.31
32159	7	Sololá	701	Sololá	3	Barraneche	6	Junio	2023-06-17T00:00:00	2024-11-06T11:00:00	1	Precipitación	0
32160	7	Sololá	701	Sololá	3	Barraneche	6	Junio	2023-06-17T00:00:00	2024-11-06T11:00:00	8	Radiación solar	949
32161	7	Sololá	701	Sololá	3	Barraneche	6	Junio	2023-06-17T00:00:00	2024-11-06T12:00:00	2	Temperatura media	20.6
32162	7	Sololá	701	Sololá	3	Barraneche	6	Junio	2023-06-17T00:00:00	2024-11-06T12:00:00	4	Temperatura máxima	20.7
32163	7	Sololá	701	Sololá	3	Barraneche	6	Junio	2023-06-17T00:00:00	2024-11-06T12:00:00	3	Temperatura mínima	19.7
32164	7	Sololá	701	Sololá	3	Barraneche	6	Junio	2023-06-17T00:00:00	2024-11-06T12:00:00	5	Humedad	44
32165	7	Sololá	701	Sololá	3	Barraneche	6	Junio	2023-06-17T00:00:00	2024-11-06T12:00:00	6	Velocidad del viento	14.5
32166	7	Sololá	701	Sololá	3	Barraneche	6	Junio	2023-06-17T00:00:00	2024-11-06T12:00:00	7	Dirección del viento	14.48
32167	7	Sololá	701	Sololá	3	Barraneche	6	Junio	2023-06-17T00:00:00	2024-11-06T12:00:00	1	Precipitación	0
32168	7	Sololá	701	Sololá	3	Barraneche	6	Junio	2023-06-17T00:00:00	2024-11-06T12:00:00	8	Radiación solar	1021
32169	7	Sololá	701	Sololá	3	Barraneche	6	Junio	2023-06-17T00:00:00	2024-11-06T13:00:00	2	Temperatura media	21.1
32170	7	Sololá	701	Sololá	3	Barraneche	6	Junio	2023-06-17T00:00:00	2024-11-06T13:00:00	4	Temperatura máxima	21.2
32171	7	Sololá	701	Sololá	3	Barraneche	6	Junio	2023-06-17T00:00:00	2024-11-06T13:00:00	3	Temperatura mínima	20.6
32172	7	Sololá	701	Sololá	3	Barraneche	6	Junio	2023-06-17T00:00:00	2024-11-06T13:00:00	5	Humedad	40
32173	7	Sololá	701	Sololá	3	Barraneche	6	Junio	2023-06-17T00:00:00	2024-11-06T13:00:00	6	Velocidad del viento	11.3
32174	7	Sololá	701	Sololá	3	Barraneche	6	Junio	2023-06-17T00:00:00	2024-11-06T13:00:00	7	Dirección del viento	11.27
32175	7	Sololá	701	Sololá	3	Barraneche	6	Junio	2023-06-17T00:00:00	2024-11-06T13:00:00	1	Precipitación	0
32176	7	Sololá	701	Sololá	3	Barraneche	6	Junio	2023-06-17T00:00:00	2024-11-06T13:00:00	8	Radiación solar	1028
32177	7	Sololá	701	Sololá	3	Barraneche	6	Junio	2023-06-17T00:00:00	2024-11-06T14:00:00	2	Temperatura media	21.7
32178	7	Sololá	701	Sololá	3	Barraneche	6	Junio	2023-06-17T00:00:00	2024-11-06T14:00:00	4	Temperatura máxima	21.8
32179	7	Sololá	701	Sololá	3	Barraneche	6	Junio	2023-06-17T00:00:00	2024-11-06T14:00:00	3	Temperatura mínima	21.2
32180	7	Sololá	701	Sololá	3	Barraneche	6	Junio	2023-06-17T00:00:00	2024-11-06T14:00:00	5	Humedad	40
32181	7	Sololá	701	Sololá	3	Barraneche	6	Junio	2023-06-17T00:00:00	2024-11-06T14:00:00	6	Velocidad del viento	12.9
32182	7	Sololá	701	Sololá	3	Barraneche	6	Junio	2023-06-17T00:00:00	2024-11-06T14:00:00	7	Dirección del viento	12.87
32183	7	Sololá	701	Sololá	3	Barraneche	6	Junio	2023-06-17T00:00:00	2024-11-06T14:00:00	1	Precipitación	0
32184	7	Sololá	701	Sololá	3	Barraneche	6	Junio	2023-06-17T00:00:00	2024-11-06T14:00:00	8	Radiación solar	968
32185	7	Sololá	701	Sololá	3	Barraneche	6	Junio	2023-06-17T00:00:00	2024-11-06T15:00:00	2	Temperatura media	22
32186	7	Sololá	701	Sololá	3	Barraneche	6	Junio	2023-06-17T00:00:00	2024-11-06T15:00:00	4	Temperatura máxima	22.3
32187	7	Sololá	701	Sololá	3	Barraneche	6	Junio	2023-06-17T00:00:00	2024-11-06T15:00:00	3	Temperatura mínima	21.6
32188	7	Sololá	701	Sololá	3	Barraneche	6	Junio	2023-06-17T00:00:00	2024-11-06T15:00:00	5	Humedad	41
32189	7	Sololá	701	Sololá	3	Barraneche	6	Junio	2023-06-17T00:00:00	2024-11-06T15:00:00	6	Velocidad del viento	12.9
32190	7	Sololá	701	Sololá	3	Barraneche	6	Junio	2023-06-17T00:00:00	2024-11-06T15:00:00	7	Dirección del viento	12.87
32191	7	Sololá	701	Sololá	3	Barraneche	6	Junio	2023-06-17T00:00:00	2024-11-06T15:00:00	1	Precipitación	0
32192	7	Sololá	701	Sololá	3	Barraneche	6	Junio	2023-06-17T00:00:00	2024-11-06T15:00:00	8	Radiación solar	843
32193	7	Sololá	701	Sololá	3	Barraneche	6	Junio	2023-06-17T00:00:00	2024-11-06T16:00:00	2	Temperatura media	21.4
32194	7	Sololá	701	Sololá	3	Barraneche	6	Junio	2023-06-17T00:00:00	2024-11-06T16:00:00	4	Temperatura máxima	22.7
32195	7	Sololá	701	Sololá	3	Barraneche	6	Junio	2023-06-17T00:00:00	2024-11-06T16:00:00	3	Temperatura mínima	21.4
32196	7	Sololá	701	Sololá	3	Barraneche	6	Junio	2023-06-17T00:00:00	2024-11-06T16:00:00	5	Humedad	39
32197	7	Sololá	701	Sololá	3	Barraneche	6	Junio	2023-06-17T00:00:00	2024-11-06T16:00:00	6	Velocidad del viento	11.3
32198	7	Sololá	701	Sololá	3	Barraneche	6	Junio	2023-06-17T00:00:00	2024-11-06T16:00:00	7	Dirección del viento	11.27
32199	7	Sololá	701	Sololá	3	Barraneche	6	Junio	2023-06-17T00:00:00	2024-11-06T16:00:00	1	Precipitación	0
32200	7	Sololá	701	Sololá	3	Barraneche	6	Junio	2023-06-17T00:00:00	2024-11-06T16:00:00	8	Radiación solar	690
32201	7	Sololá	701	Sololá	3	Barraneche	6	Junio	2023-06-17T00:00:00	2024-11-06T17:00:00	2	Temperatura media	19.7
32202	7	Sololá	701	Sololá	3	Barraneche	6	Junio	2023-06-17T00:00:00	2024-11-06T17:00:00	4	Temperatura máxima	21.4
32203	7	Sololá	701	Sololá	3	Barraneche	6	Junio	2023-06-17T00:00:00	2024-11-06T17:00:00	3	Temperatura mínima	19.7
32204	7	Sololá	701	Sololá	3	Barraneche	6	Junio	2023-06-17T00:00:00	2024-11-06T17:00:00	5	Humedad	49
32205	7	Sololá	701	Sololá	3	Barraneche	6	Junio	2023-06-17T00:00:00	2024-11-06T17:00:00	6	Velocidad del viento	14.5
32206	7	Sololá	701	Sololá	3	Barraneche	6	Junio	2023-06-17T00:00:00	2024-11-06T17:00:00	7	Dirección del viento	14.48
32207	7	Sololá	701	Sololá	3	Barraneche	6	Junio	2023-06-17T00:00:00	2024-11-06T17:00:00	1	Precipitación	0
32208	7	Sololá	701	Sololá	3	Barraneche	6	Junio	2023-06-17T00:00:00	2024-11-06T17:00:00	8	Radiación solar	304
32209	7	Sololá	701	Sololá	3	Barraneche	6	Junio	2023-06-17T00:00:00	2024-11-06T18:00:00	2	Temperatura media	16.4
32210	7	Sololá	701	Sololá	3	Barraneche	6	Junio	2023-06-17T00:00:00	2024-11-06T18:00:00	4	Temperatura máxima	19.7
32211	7	Sololá	701	Sololá	3	Barraneche	6	Junio	2023-06-17T00:00:00	2024-11-06T18:00:00	3	Temperatura mínima	16.4
32212	7	Sololá	701	Sololá	3	Barraneche	6	Junio	2023-06-17T00:00:00	2024-11-06T18:00:00	5	Humedad	66
32213	7	Sololá	701	Sololá	3	Barraneche	6	Junio	2023-06-17T00:00:00	2024-11-06T18:00:00	6	Velocidad del viento	9.7
32214	7	Sololá	701	Sololá	3	Barraneche	6	Junio	2023-06-17T00:00:00	2024-11-06T18:00:00	7	Dirección del viento	9.66
32215	7	Sololá	701	Sololá	3	Barraneche	6	Junio	2023-06-17T00:00:00	2024-11-06T18:00:00	1	Precipitación	3
32216	7	Sololá	701	Sololá	3	Barraneche	6	Junio	2023-06-17T00:00:00	2024-11-06T18:00:00	8	Radiación solar	77
32217	7	Sololá	701	Sololá	3	Barraneche	6	Junio	2023-06-17T00:00:00	2024-11-06T19:00:00	2	Temperatura media	14.9
32218	7	Sololá	701	Sololá	3	Barraneche	6	Junio	2023-06-17T00:00:00	2024-11-06T19:00:00	4	Temperatura máxima	16.5
32219	7	Sololá	701	Sololá	3	Barraneche	6	Junio	2023-06-17T00:00:00	2024-11-06T19:00:00	3	Temperatura mínima	14.9
32220	7	Sololá	701	Sololá	3	Barraneche	6	Junio	2023-06-17T00:00:00	2024-11-06T19:00:00	5	Humedad	68
32221	7	Sololá	701	Sololá	3	Barraneche	6	Junio	2023-06-17T00:00:00	2024-11-06T19:00:00	6	Velocidad del viento	8
32222	7	Sololá	701	Sololá	3	Barraneche	6	Junio	2023-06-17T00:00:00	2024-11-06T19:00:00	7	Dirección del viento	8.05
32223	7	Sololá	701	Sololá	3	Barraneche	6	Junio	2023-06-17T00:00:00	2024-11-06T19:00:00	1	Precipitación	1
32224	7	Sololá	701	Sololá	3	Barraneche	6	Junio	2023-06-17T00:00:00	2024-11-06T19:00:00	8	Radiación solar	0
32225	7	Sololá	701	Sololá	3	Barraneche	6	Junio	2023-06-17T00:00:00	2024-11-06T20:00:00	2	Temperatura media	15.3
32226	7	Sololá	701	Sololá	3	Barraneche	6	Junio	2023-06-17T00:00:00	2024-11-06T20:00:00	4	Temperatura máxima	15.3
32227	7	Sololá	701	Sololá	3	Barraneche	6	Junio	2023-06-17T00:00:00	2024-11-06T20:00:00	3	Temperatura mínima	14
32228	7	Sololá	701	Sololá	3	Barraneche	6	Junio	2023-06-17T00:00:00	2024-11-06T20:00:00	5	Humedad	66
32229	7	Sololá	701	Sololá	3	Barraneche	6	Junio	2023-06-17T00:00:00	2024-11-06T20:00:00	6	Velocidad del viento	12.9
32230	7	Sololá	701	Sololá	3	Barraneche	6	Junio	2023-06-17T00:00:00	2024-11-06T20:00:00	7	Dirección del viento	12.87
32231	7	Sololá	701	Sololá	3	Barraneche	6	Junio	2023-06-17T00:00:00	2024-11-06T20:00:00	1	Precipitación	2.6
32232	7	Sololá	701	Sololá	3	Barraneche	6	Junio	2023-06-17T00:00:00	2024-11-06T20:00:00	8	Radiación solar	0
32233	7	Sololá	701	Sololá	3	Barraneche	6	Junio	2023-06-17T00:00:00	2024-11-06T21:00:00	2	Temperatura media	15.4
32234	7	Sololá	701	Sololá	3	Barraneche	6	Junio	2023-06-17T00:00:00	2024-11-06T21:00:00	4	Temperatura máxima	15.7
32235	7	Sololá	701	Sololá	3	Barraneche	6	Junio	2023-06-17T00:00:00	2024-11-06T21:00:00	3	Temperatura mínima	15.2
32236	7	Sololá	701	Sololá	3	Barraneche	6	Junio	2023-06-17T00:00:00	2024-11-06T21:00:00	5	Humedad	64
32237	7	Sololá	701	Sololá	3	Barraneche	6	Junio	2023-06-17T00:00:00	2024-11-06T21:00:00	6	Velocidad del viento	17.7
32238	7	Sololá	701	Sololá	3	Barraneche	6	Junio	2023-06-17T00:00:00	2024-11-06T21:00:00	7	Dirección del viento	17.7
32239	7	Sololá	701	Sololá	3	Barraneche	6	Junio	2023-06-17T00:00:00	2024-11-06T21:00:00	1	Precipitación	0.2
32240	7	Sololá	701	Sololá	3	Barraneche	6	Junio	2023-06-17T00:00:00	2024-11-06T21:00:00	8	Radiación solar	0
32241	7	Sololá	701	Sololá	3	Barraneche	6	Junio	2023-06-17T00:00:00	2024-11-06T22:00:00	2	Temperatura media	15.5
32242	7	Sololá	701	Sololá	3	Barraneche	6	Junio	2023-06-17T00:00:00	2024-11-06T22:00:00	4	Temperatura máxima	15.7
32243	7	Sololá	701	Sololá	3	Barraneche	6	Junio	2023-06-17T00:00:00	2024-11-06T22:00:00	3	Temperatura mínima	15.4
32244	7	Sololá	701	Sololá	3	Barraneche	6	Junio	2023-06-17T00:00:00	2024-11-06T22:00:00	5	Humedad	63
32245	7	Sololá	701	Sololá	3	Barraneche	6	Junio	2023-06-17T00:00:00	2024-11-06T22:00:00	6	Velocidad del viento	16.1
32246	7	Sololá	701	Sololá	3	Barraneche	6	Junio	2023-06-17T00:00:00	2024-11-06T22:00:00	7	Dirección del viento	16.09
32247	7	Sololá	701	Sololá	3	Barraneche	6	Junio	2023-06-17T00:00:00	2024-11-06T22:00:00	1	Precipitación	0
32248	7	Sololá	701	Sololá	3	Barraneche	6	Junio	2023-06-17T00:00:00	2024-11-06T22:00:00	8	Radiación solar	0
32249	7	Sololá	701	Sololá	3	Barraneche	6	Junio	2023-06-17T00:00:00	2024-11-06T23:00:00	2	Temperatura media	15.1
32250	7	Sololá	701	Sololá	3	Barraneche	6	Junio	2023-06-17T00:00:00	2024-11-06T23:00:00	4	Temperatura máxima	15.5
32251	7	Sololá	701	Sololá	3	Barraneche	6	Junio	2023-06-17T00:00:00	2024-11-06T23:00:00	3	Temperatura mínima	15
32252	7	Sololá	701	Sololá	3	Barraneche	6	Junio	2023-06-17T00:00:00	2024-11-06T23:00:00	5	Humedad	63
32253	7	Sololá	701	Sololá	3	Barraneche	6	Junio	2023-06-17T00:00:00	2024-11-06T23:00:00	6	Velocidad del viento	14.5
32254	7	Sololá	701	Sololá	3	Barraneche	6	Junio	2023-06-17T00:00:00	2024-11-06T23:00:00	7	Dirección del viento	14.48
32255	7	Sololá	701	Sololá	3	Barraneche	6	Junio	2023-06-17T00:00:00	2024-11-06T23:00:00	1	Precipitación	0
32256	7	Sololá	701	Sololá	3	Barraneche	6	Junio	2023-06-17T00:00:00	2024-11-06T23:00:00	8	Radiación solar	0
32257	7	Sololá	701	Sololá	3	Barraneche	6	Junio	2023-06-18T00:00:00	2024-11-06T00:00:00	2	Temperatura media	14.3
32258	7	Sololá	701	Sololá	3	Barraneche	6	Junio	2023-06-18T00:00:00	2024-11-06T00:00:00	4	Temperatura máxima	15.1
32259	7	Sololá	701	Sololá	3	Barraneche	6	Junio	2023-06-18T00:00:00	2024-11-06T00:00:00	3	Temperatura mínima	14.1
32260	7	Sololá	701	Sololá	3	Barraneche	6	Junio	2023-06-18T00:00:00	2024-11-06T00:00:00	5	Humedad	63
32261	7	Sololá	701	Sololá	3	Barraneche	6	Junio	2023-06-18T00:00:00	2024-11-06T00:00:00	6	Velocidad del viento	9.7
32262	7	Sololá	701	Sololá	3	Barraneche	6	Junio	2023-06-18T00:00:00	2024-11-06T00:00:00	7	Dirección del viento	9.66
32263	7	Sololá	701	Sololá	3	Barraneche	6	Junio	2023-06-18T00:00:00	2024-11-06T00:00:00	1	Precipitación	0
32264	7	Sololá	701	Sololá	3	Barraneche	6	Junio	2023-06-18T00:00:00	2024-11-06T00:00:00	8	Radiación solar	0
32265	7	Sololá	701	Sololá	3	Barraneche	6	Junio	2023-06-18T00:00:00	2024-11-06T01:00:00	2	Temperatura media	14.4
32266	7	Sololá	701	Sololá	3	Barraneche	6	Junio	2023-06-18T00:00:00	2024-11-06T01:00:00	4	Temperatura máxima	14.4
32267	7	Sololá	701	Sololá	3	Barraneche	6	Junio	2023-06-18T00:00:00	2024-11-06T01:00:00	3	Temperatura mínima	14
32268	7	Sololá	701	Sololá	3	Barraneche	6	Junio	2023-06-18T00:00:00	2024-11-06T01:00:00	5	Humedad	56
32269	7	Sololá	701	Sololá	3	Barraneche	6	Junio	2023-06-18T00:00:00	2024-11-06T01:00:00	6	Velocidad del viento	9.7
32270	7	Sololá	701	Sololá	3	Barraneche	6	Junio	2023-06-18T00:00:00	2024-11-06T01:00:00	7	Dirección del viento	9.66
32271	7	Sololá	701	Sololá	3	Barraneche	6	Junio	2023-06-18T00:00:00	2024-11-06T01:00:00	1	Precipitación	0
32272	7	Sololá	701	Sololá	3	Barraneche	6	Junio	2023-06-18T00:00:00	2024-11-06T01:00:00	8	Radiación solar	0
32273	7	Sololá	701	Sololá	3	Barraneche	6	Junio	2023-06-18T00:00:00	2024-11-06T02:00:00	2	Temperatura media	14.2
32274	7	Sololá	701	Sololá	3	Barraneche	6	Junio	2023-06-18T00:00:00	2024-11-06T02:00:00	4	Temperatura máxima	14.6
32275	7	Sololá	701	Sololá	3	Barraneche	6	Junio	2023-06-18T00:00:00	2024-11-06T02:00:00	3	Temperatura mínima	14.1
32276	7	Sololá	701	Sololá	3	Barraneche	6	Junio	2023-06-18T00:00:00	2024-11-06T02:00:00	5	Humedad	59
32277	7	Sololá	701	Sololá	3	Barraneche	6	Junio	2023-06-18T00:00:00	2024-11-06T02:00:00	6	Velocidad del viento	14.5
32278	7	Sololá	701	Sololá	3	Barraneche	6	Junio	2023-06-18T00:00:00	2024-11-06T02:00:00	7	Dirección del viento	14.48
32279	7	Sololá	701	Sololá	3	Barraneche	6	Junio	2023-06-18T00:00:00	2024-11-06T02:00:00	1	Precipitación	0
32280	7	Sololá	701	Sololá	3	Barraneche	6	Junio	2023-06-18T00:00:00	2024-11-06T02:00:00	8	Radiación solar	0
32281	7	Sololá	701	Sololá	3	Barraneche	6	Junio	2023-06-18T00:00:00	2024-11-06T03:00:00	2	Temperatura media	14.3
32282	7	Sololá	701	Sololá	3	Barraneche	6	Junio	2023-06-18T00:00:00	2024-11-06T03:00:00	4	Temperatura máxima	14.4
32283	7	Sololá	701	Sololá	3	Barraneche	6	Junio	2023-06-18T00:00:00	2024-11-06T03:00:00	3	Temperatura mínima	13.9
32284	7	Sololá	701	Sololá	3	Barraneche	6	Junio	2023-06-18T00:00:00	2024-11-06T03:00:00	5	Humedad	53
32285	7	Sololá	701	Sololá	3	Barraneche	6	Junio	2023-06-18T00:00:00	2024-11-06T03:00:00	6	Velocidad del viento	16.1
32286	7	Sololá	701	Sololá	3	Barraneche	6	Junio	2023-06-18T00:00:00	2024-11-06T03:00:00	7	Dirección del viento	16.09
32287	7	Sololá	701	Sololá	3	Barraneche	6	Junio	2023-06-18T00:00:00	2024-11-06T03:00:00	1	Precipitación	0
32288	7	Sololá	701	Sololá	3	Barraneche	6	Junio	2023-06-18T00:00:00	2024-11-06T03:00:00	8	Radiación solar	0
32289	7	Sololá	701	Sololá	3	Barraneche	6	Junio	2023-06-18T00:00:00	2024-11-06T04:00:00	2	Temperatura media	14.7
32290	7	Sololá	701	Sololá	3	Barraneche	6	Junio	2023-06-18T00:00:00	2024-11-06T04:00:00	4	Temperatura máxima	14.7
32291	7	Sololá	701	Sololá	3	Barraneche	6	Junio	2023-06-18T00:00:00	2024-11-06T04:00:00	3	Temperatura mínima	14
32292	7	Sololá	701	Sololá	3	Barraneche	6	Junio	2023-06-18T00:00:00	2024-11-06T04:00:00	5	Humedad	47
32293	7	Sololá	701	Sololá	3	Barraneche	6	Junio	2023-06-18T00:00:00	2024-11-06T04:00:00	6	Velocidad del viento	17.7
32294	7	Sololá	701	Sololá	3	Barraneche	6	Junio	2023-06-18T00:00:00	2024-11-06T04:00:00	7	Dirección del viento	17.7
32295	7	Sololá	701	Sololá	3	Barraneche	6	Junio	2023-06-18T00:00:00	2024-11-06T04:00:00	1	Precipitación	0
32296	7	Sololá	701	Sololá	3	Barraneche	6	Junio	2023-06-18T00:00:00	2024-11-06T04:00:00	8	Radiación solar	0
32297	7	Sololá	701	Sololá	3	Barraneche	6	Junio	2023-06-18T00:00:00	2024-11-06T05:00:00	2	Temperatura media	14.9
32298	7	Sololá	701	Sololá	3	Barraneche	6	Junio	2023-06-18T00:00:00	2024-11-06T05:00:00	4	Temperatura máxima	14.9
32299	7	Sololá	701	Sololá	3	Barraneche	6	Junio	2023-06-18T00:00:00	2024-11-06T05:00:00	3	Temperatura mínima	14.6
32300	7	Sololá	701	Sololá	3	Barraneche	6	Junio	2023-06-18T00:00:00	2024-11-06T05:00:00	5	Humedad	49
32301	7	Sololá	701	Sololá	3	Barraneche	6	Junio	2023-06-18T00:00:00	2024-11-06T05:00:00	6	Velocidad del viento	24.1
32302	7	Sololá	701	Sololá	3	Barraneche	6	Junio	2023-06-18T00:00:00	2024-11-06T05:00:00	7	Dirección del viento	24.14
32303	7	Sololá	701	Sololá	3	Barraneche	6	Junio	2023-06-18T00:00:00	2024-11-06T05:00:00	1	Precipitación	0
32304	7	Sololá	701	Sololá	3	Barraneche	6	Junio	2023-06-18T00:00:00	2024-11-06T05:00:00	8	Radiación solar	0
32305	7	Sololá	701	Sololá	3	Barraneche	6	Junio	2023-06-18T00:00:00	2024-11-06T06:00:00	2	Temperatura media	14.8
32306	7	Sololá	701	Sololá	3	Barraneche	6	Junio	2023-06-18T00:00:00	2024-11-06T06:00:00	4	Temperatura máxima	14.9
32307	7	Sololá	701	Sololá	3	Barraneche	6	Junio	2023-06-18T00:00:00	2024-11-06T06:00:00	3	Temperatura mínima	14.3
32308	7	Sololá	701	Sololá	3	Barraneche	6	Junio	2023-06-18T00:00:00	2024-11-06T06:00:00	5	Humedad	52
32309	7	Sololá	701	Sololá	3	Barraneche	6	Junio	2023-06-18T00:00:00	2024-11-06T06:00:00	6	Velocidad del viento	16.1
32310	7	Sololá	701	Sololá	3	Barraneche	6	Junio	2023-06-18T00:00:00	2024-11-06T06:00:00	7	Dirección del viento	16.09
32311	7	Sololá	701	Sololá	3	Barraneche	6	Junio	2023-06-18T00:00:00	2024-11-06T06:00:00	1	Precipitación	0
32312	7	Sololá	701	Sololá	3	Barraneche	6	Junio	2023-06-18T00:00:00	2024-11-06T06:00:00	8	Radiación solar	6
32313	7	Sololá	701	Sololá	3	Barraneche	6	Junio	2023-06-18T00:00:00	2024-11-06T07:00:00	2	Temperatura media	15.9
32314	7	Sololá	701	Sololá	3	Barraneche	6	Junio	2023-06-18T00:00:00	2024-11-06T07:00:00	4	Temperatura máxima	15.9
32315	7	Sololá	701	Sololá	3	Barraneche	6	Junio	2023-06-18T00:00:00	2024-11-06T07:00:00	3	Temperatura mínima	14.7
32316	7	Sololá	701	Sololá	3	Barraneche	6	Junio	2023-06-18T00:00:00	2024-11-06T07:00:00	5	Humedad	53
32317	7	Sololá	701	Sololá	3	Barraneche	6	Junio	2023-06-18T00:00:00	2024-11-06T07:00:00	6	Velocidad del viento	11.3
32318	7	Sololá	701	Sololá	3	Barraneche	6	Junio	2023-06-18T00:00:00	2024-11-06T07:00:00	7	Dirección del viento	11.27
32319	7	Sololá	701	Sololá	3	Barraneche	6	Junio	2023-06-18T00:00:00	2024-11-06T07:00:00	1	Precipitación	0
32320	7	Sololá	701	Sololá	3	Barraneche	6	Junio	2023-06-18T00:00:00	2024-11-06T07:00:00	8	Radiación solar	111
32321	7	Sololá	701	Sololá	3	Barraneche	6	Junio	2023-06-18T00:00:00	2024-11-06T08:00:00	2	Temperatura media	17.9
32322	7	Sololá	701	Sololá	3	Barraneche	6	Junio	2023-06-18T00:00:00	2024-11-06T08:00:00	4	Temperatura máxima	17.9
32323	7	Sololá	701	Sololá	3	Barraneche	6	Junio	2023-06-18T00:00:00	2024-11-06T08:00:00	3	Temperatura mínima	15.9
32324	7	Sololá	701	Sololá	3	Barraneche	6	Junio	2023-06-18T00:00:00	2024-11-06T08:00:00	5	Humedad	46
32325	7	Sololá	701	Sololá	3	Barraneche	6	Junio	2023-06-18T00:00:00	2024-11-06T08:00:00	6	Velocidad del viento	6.4
32326	7	Sololá	701	Sololá	3	Barraneche	6	Junio	2023-06-18T00:00:00	2024-11-06T08:00:00	7	Dirección del viento	6.44
32327	7	Sololá	701	Sololá	3	Barraneche	6	Junio	2023-06-18T00:00:00	2024-11-06T08:00:00	1	Precipitación	0
32328	7	Sololá	701	Sololá	3	Barraneche	6	Junio	2023-06-18T00:00:00	2024-11-06T08:00:00	8	Radiación solar	391
32329	7	Sololá	701	Sololá	3	Barraneche	6	Junio	2023-06-18T00:00:00	2024-11-06T09:00:00	2	Temperatura media	18
32330	7	Sololá	701	Sololá	3	Barraneche	6	Junio	2023-06-18T00:00:00	2024-11-06T09:00:00	4	Temperatura máxima	18.4
32331	7	Sololá	701	Sololá	3	Barraneche	6	Junio	2023-06-18T00:00:00	2024-11-06T09:00:00	3	Temperatura mínima	17.9
32332	7	Sololá	701	Sololá	3	Barraneche	6	Junio	2023-06-18T00:00:00	2024-11-06T09:00:00	5	Humedad	49
32333	7	Sololá	701	Sololá	3	Barraneche	6	Junio	2023-06-18T00:00:00	2024-11-06T09:00:00	6	Velocidad del viento	9.7
32334	7	Sololá	701	Sololá	3	Barraneche	6	Junio	2023-06-18T00:00:00	2024-11-06T09:00:00	7	Dirección del viento	9.66
32335	7	Sololá	701	Sololá	3	Barraneche	6	Junio	2023-06-18T00:00:00	2024-11-06T09:00:00	1	Precipitación	0
32336	7	Sololá	701	Sololá	3	Barraneche	6	Junio	2023-06-18T00:00:00	2024-11-06T09:00:00	8	Radiación solar	618
32337	7	Sololá	701	Sololá	3	Barraneche	6	Junio	2023-06-18T00:00:00	2024-11-06T10:00:00	2	Temperatura media	18.7
32338	7	Sololá	701	Sololá	3	Barraneche	6	Junio	2023-06-18T00:00:00	2024-11-06T10:00:00	4	Temperatura máxima	18.8
32339	7	Sololá	701	Sololá	3	Barraneche	6	Junio	2023-06-18T00:00:00	2024-11-06T10:00:00	3	Temperatura mínima	17.9
32340	7	Sololá	701	Sololá	3	Barraneche	6	Junio	2023-06-18T00:00:00	2024-11-06T10:00:00	5	Humedad	47
32341	7	Sololá	701	Sololá	3	Barraneche	6	Junio	2023-06-18T00:00:00	2024-11-06T10:00:00	6	Velocidad del viento	16.1
32342	7	Sololá	701	Sololá	3	Barraneche	6	Junio	2023-06-18T00:00:00	2024-11-06T10:00:00	7	Dirección del viento	16.09
32343	7	Sololá	701	Sololá	3	Barraneche	6	Junio	2023-06-18T00:00:00	2024-11-06T10:00:00	1	Precipitación	0
32344	7	Sololá	701	Sololá	3	Barraneche	6	Junio	2023-06-18T00:00:00	2024-11-06T10:00:00	8	Radiación solar	815
32345	7	Sololá	701	Sololá	3	Barraneche	6	Junio	2023-06-18T00:00:00	2024-11-06T11:00:00	2	Temperatura media	20.2
32346	7	Sololá	701	Sololá	3	Barraneche	6	Junio	2023-06-18T00:00:00	2024-11-06T11:00:00	4	Temperatura máxima	20.2
32347	7	Sololá	701	Sololá	3	Barraneche	6	Junio	2023-06-18T00:00:00	2024-11-06T11:00:00	3	Temperatura mínima	18.7
32348	7	Sololá	701	Sololá	3	Barraneche	6	Junio	2023-06-18T00:00:00	2024-11-06T11:00:00	5	Humedad	41
32349	7	Sololá	701	Sololá	3	Barraneche	6	Junio	2023-06-18T00:00:00	2024-11-06T11:00:00	6	Velocidad del viento	16.1
32350	7	Sololá	701	Sololá	3	Barraneche	6	Junio	2023-06-18T00:00:00	2024-11-06T11:00:00	7	Dirección del viento	16.09
32351	7	Sololá	701	Sololá	3	Barraneche	6	Junio	2023-06-18T00:00:00	2024-11-06T11:00:00	1	Precipitación	0
32352	7	Sololá	701	Sololá	3	Barraneche	6	Junio	2023-06-18T00:00:00	2024-11-06T11:00:00	8	Radiación solar	952
32353	7	Sololá	701	Sololá	3	Barraneche	6	Junio	2023-06-18T00:00:00	2024-11-06T12:00:00	2	Temperatura media	20.3
32354	7	Sololá	701	Sololá	3	Barraneche	6	Junio	2023-06-18T00:00:00	2024-11-06T12:00:00	4	Temperatura máxima	20.6
32355	7	Sololá	701	Sololá	3	Barraneche	6	Junio	2023-06-18T00:00:00	2024-11-06T12:00:00	3	Temperatura mínima	19.9
32356	7	Sololá	701	Sololá	3	Barraneche	6	Junio	2023-06-18T00:00:00	2024-11-06T12:00:00	5	Humedad	33
32357	7	Sololá	701	Sololá	3	Barraneche	6	Junio	2023-06-18T00:00:00	2024-11-06T12:00:00	6	Velocidad del viento	14.5
32358	7	Sololá	701	Sololá	3	Barraneche	6	Junio	2023-06-18T00:00:00	2024-11-06T12:00:00	7	Dirección del viento	14.48
32359	7	Sololá	701	Sololá	3	Barraneche	6	Junio	2023-06-18T00:00:00	2024-11-06T12:00:00	1	Precipitación	0
32360	7	Sololá	701	Sololá	3	Barraneche	6	Junio	2023-06-18T00:00:00	2024-11-06T12:00:00	8	Radiación solar	1025
32361	7	Sololá	701	Sololá	3	Barraneche	6	Junio	2023-06-18T00:00:00	2024-11-06T13:00:00	2	Temperatura media	20.8
32362	7	Sololá	701	Sololá	3	Barraneche	6	Junio	2023-06-18T00:00:00	2024-11-06T13:00:00	4	Temperatura máxima	20.8
32363	7	Sololá	701	Sololá	3	Barraneche	6	Junio	2023-06-18T00:00:00	2024-11-06T13:00:00	3	Temperatura mínima	20.3
32364	7	Sololá	701	Sololá	3	Barraneche	6	Junio	2023-06-18T00:00:00	2024-11-06T13:00:00	5	Humedad	34
32365	7	Sololá	701	Sololá	3	Barraneche	6	Junio	2023-06-18T00:00:00	2024-11-06T13:00:00	6	Velocidad del viento	14.5
32366	7	Sololá	701	Sololá	3	Barraneche	6	Junio	2023-06-18T00:00:00	2024-11-06T13:00:00	7	Dirección del viento	14.48
32367	7	Sololá	701	Sololá	3	Barraneche	6	Junio	2023-06-18T00:00:00	2024-11-06T13:00:00	1	Precipitación	0
32368	7	Sololá	701	Sololá	3	Barraneche	6	Junio	2023-06-18T00:00:00	2024-11-06T13:00:00	8	Radiación solar	1026
32369	7	Sololá	701	Sololá	3	Barraneche	6	Junio	2023-06-18T00:00:00	2024-11-06T14:00:00	2	Temperatura media	21
32370	7	Sololá	701	Sololá	3	Barraneche	6	Junio	2023-06-18T00:00:00	2024-11-06T14:00:00	4	Temperatura máxima	21.2
32371	7	Sololá	701	Sololá	3	Barraneche	6	Junio	2023-06-18T00:00:00	2024-11-06T14:00:00	3	Temperatura mínima	20.8
32372	7	Sololá	701	Sololá	3	Barraneche	6	Junio	2023-06-18T00:00:00	2024-11-06T14:00:00	5	Humedad	38
32373	7	Sololá	701	Sololá	3	Barraneche	6	Junio	2023-06-18T00:00:00	2024-11-06T14:00:00	6	Velocidad del viento	14.5
32374	7	Sololá	701	Sololá	3	Barraneche	6	Junio	2023-06-18T00:00:00	2024-11-06T14:00:00	7	Dirección del viento	14.48
32375	7	Sololá	701	Sololá	3	Barraneche	6	Junio	2023-06-18T00:00:00	2024-11-06T14:00:00	1	Precipitación	0
32376	7	Sololá	701	Sololá	3	Barraneche	6	Junio	2023-06-18T00:00:00	2024-11-06T14:00:00	8	Radiación solar	971
32377	7	Sololá	701	Sololá	3	Barraneche	6	Junio	2023-06-18T00:00:00	2024-11-06T15:00:00	2	Temperatura media	21
32378	7	Sololá	701	Sololá	3	Barraneche	6	Junio	2023-06-18T00:00:00	2024-11-06T15:00:00	4	Temperatura máxima	21.3
32379	7	Sololá	701	Sololá	3	Barraneche	6	Junio	2023-06-18T00:00:00	2024-11-06T15:00:00	3	Temperatura mínima	20.6
32380	7	Sololá	701	Sololá	3	Barraneche	6	Junio	2023-06-18T00:00:00	2024-11-06T15:00:00	5	Humedad	38
32381	7	Sololá	701	Sololá	3	Barraneche	6	Junio	2023-06-18T00:00:00	2024-11-06T15:00:00	6	Velocidad del viento	14.5
32382	7	Sololá	701	Sololá	3	Barraneche	6	Junio	2023-06-18T00:00:00	2024-11-06T15:00:00	7	Dirección del viento	14.48
32383	7	Sololá	701	Sololá	3	Barraneche	6	Junio	2023-06-18T00:00:00	2024-11-06T15:00:00	1	Precipitación	0
32384	7	Sololá	701	Sololá	3	Barraneche	6	Junio	2023-06-18T00:00:00	2024-11-06T15:00:00	8	Radiación solar	835
32385	7	Sololá	701	Sololá	3	Barraneche	6	Junio	2023-06-18T00:00:00	2024-11-06T16:00:00	2	Temperatura media	21
32386	7	Sololá	701	Sololá	3	Barraneche	6	Junio	2023-06-18T00:00:00	2024-11-06T16:00:00	4	Temperatura máxima	21.6
32387	7	Sololá	701	Sololá	3	Barraneche	6	Junio	2023-06-18T00:00:00	2024-11-06T16:00:00	3	Temperatura mínima	20.8
32388	7	Sololá	701	Sololá	3	Barraneche	6	Junio	2023-06-18T00:00:00	2024-11-06T16:00:00	5	Humedad	41
32389	7	Sololá	701	Sololá	3	Barraneche	6	Junio	2023-06-18T00:00:00	2024-11-06T16:00:00	6	Velocidad del viento	11.3
32390	7	Sololá	701	Sololá	3	Barraneche	6	Junio	2023-06-18T00:00:00	2024-11-06T16:00:00	7	Dirección del viento	11.27
32391	7	Sololá	701	Sololá	3	Barraneche	6	Junio	2023-06-18T00:00:00	2024-11-06T16:00:00	1	Precipitación	0
32392	7	Sololá	701	Sololá	3	Barraneche	6	Junio	2023-06-18T00:00:00	2024-11-06T16:00:00	8	Radiación solar	737
32393	7	Sololá	701	Sololá	3	Barraneche	6	Junio	2023-06-18T00:00:00	2024-11-06T17:00:00	2	Temperatura media	20.7
32394	7	Sololá	701	Sololá	3	Barraneche	6	Junio	2023-06-18T00:00:00	2024-11-06T17:00:00	4	Temperatura máxima	21
32395	7	Sololá	701	Sololá	3	Barraneche	6	Junio	2023-06-18T00:00:00	2024-11-06T17:00:00	3	Temperatura mínima	20.3
32396	7	Sololá	701	Sololá	3	Barraneche	6	Junio	2023-06-18T00:00:00	2024-11-06T17:00:00	5	Humedad	42
32397	7	Sololá	701	Sololá	3	Barraneche	6	Junio	2023-06-18T00:00:00	2024-11-06T17:00:00	6	Velocidad del viento	11.3
32398	7	Sololá	701	Sololá	3	Barraneche	6	Junio	2023-06-18T00:00:00	2024-11-06T17:00:00	7	Dirección del viento	11.27
32399	7	Sololá	701	Sololá	3	Barraneche	6	Junio	2023-06-18T00:00:00	2024-11-06T17:00:00	1	Precipitación	0
32400	7	Sololá	701	Sololá	3	Barraneche	6	Junio	2023-06-18T00:00:00	2024-11-06T17:00:00	8	Radiación solar	440
32401	7	Sololá	701	Sololá	3	Barraneche	6	Junio	2023-06-18T00:00:00	2024-11-06T18:00:00	2	Temperatura media	18.9
32402	7	Sololá	701	Sololá	3	Barraneche	6	Junio	2023-06-18T00:00:00	2024-11-06T18:00:00	4	Temperatura máxima	20.7
32403	7	Sololá	701	Sololá	3	Barraneche	6	Junio	2023-06-18T00:00:00	2024-11-06T18:00:00	3	Temperatura mínima	18.9
32404	7	Sololá	701	Sololá	3	Barraneche	6	Junio	2023-06-18T00:00:00	2024-11-06T18:00:00	5	Humedad	51
32405	7	Sololá	701	Sololá	3	Barraneche	6	Junio	2023-06-18T00:00:00	2024-11-06T18:00:00	6	Velocidad del viento	12.9
32406	7	Sololá	701	Sololá	3	Barraneche	6	Junio	2023-06-18T00:00:00	2024-11-06T18:00:00	7	Dirección del viento	12.87
32407	7	Sololá	701	Sololá	3	Barraneche	6	Junio	2023-06-18T00:00:00	2024-11-06T18:00:00	1	Precipitación	0
32408	7	Sololá	701	Sololá	3	Barraneche	6	Junio	2023-06-18T00:00:00	2024-11-06T18:00:00	8	Radiación solar	232
32409	7	Sololá	701	Sololá	3	Barraneche	6	Junio	2023-06-18T00:00:00	2024-11-06T19:00:00	2	Temperatura media	17.1
32410	7	Sololá	701	Sololá	3	Barraneche	6	Junio	2023-06-18T00:00:00	2024-11-06T19:00:00	4	Temperatura máxima	18.9
32411	7	Sololá	701	Sololá	3	Barraneche	6	Junio	2023-06-18T00:00:00	2024-11-06T19:00:00	3	Temperatura mínima	17.1
32412	7	Sololá	701	Sololá	3	Barraneche	6	Junio	2023-06-18T00:00:00	2024-11-06T19:00:00	5	Humedad	61
32413	7	Sololá	701	Sololá	3	Barraneche	6	Junio	2023-06-18T00:00:00	2024-11-06T19:00:00	6	Velocidad del viento	11.3
32414	7	Sololá	701	Sololá	3	Barraneche	6	Junio	2023-06-18T00:00:00	2024-11-06T19:00:00	7	Dirección del viento	11.27
32415	7	Sololá	701	Sololá	3	Barraneche	6	Junio	2023-06-18T00:00:00	2024-11-06T19:00:00	1	Precipitación	0
32416	7	Sololá	701	Sololá	3	Barraneche	6	Junio	2023-06-18T00:00:00	2024-11-06T19:00:00	8	Radiación solar	0
32417	7	Sololá	701	Sololá	3	Barraneche	6	Junio	2023-06-18T00:00:00	2024-11-06T20:00:00	2	Temperatura media	16.4
32418	7	Sololá	701	Sololá	3	Barraneche	6	Junio	2023-06-18T00:00:00	2024-11-06T20:00:00	4	Temperatura máxima	17.2
32419	7	Sololá	701	Sololá	3	Barraneche	6	Junio	2023-06-18T00:00:00	2024-11-06T20:00:00	3	Temperatura mínima	16.4
32420	7	Sololá	701	Sololá	3	Barraneche	6	Junio	2023-06-18T00:00:00	2024-11-06T20:00:00	5	Humedad	62
32421	7	Sololá	701	Sololá	3	Barraneche	6	Junio	2023-06-18T00:00:00	2024-11-06T20:00:00	6	Velocidad del viento	14.5
32422	7	Sololá	701	Sololá	3	Barraneche	6	Junio	2023-06-18T00:00:00	2024-11-06T20:00:00	7	Dirección del viento	14.48
32423	7	Sololá	701	Sololá	3	Barraneche	6	Junio	2023-06-18T00:00:00	2024-11-06T20:00:00	1	Precipitación	0
32424	7	Sololá	701	Sololá	3	Barraneche	6	Junio	2023-06-18T00:00:00	2024-11-06T20:00:00	8	Radiación solar	0
32425	7	Sololá	701	Sololá	3	Barraneche	6	Junio	2023-06-18T00:00:00	2024-11-06T21:00:00	2	Temperatura media	15.6
32426	7	Sololá	701	Sololá	3	Barraneche	6	Junio	2023-06-18T00:00:00	2024-11-06T21:00:00	4	Temperatura máxima	16.4
32427	7	Sololá	701	Sololá	3	Barraneche	6	Junio	2023-06-18T00:00:00	2024-11-06T21:00:00	3	Temperatura mínima	15.6
32428	7	Sololá	701	Sololá	3	Barraneche	6	Junio	2023-06-18T00:00:00	2024-11-06T21:00:00	5	Humedad	63
32429	7	Sololá	701	Sololá	3	Barraneche	6	Junio	2023-06-18T00:00:00	2024-11-06T21:00:00	6	Velocidad del viento	16.1
32430	7	Sololá	701	Sololá	3	Barraneche	6	Junio	2023-06-18T00:00:00	2024-11-06T21:00:00	7	Dirección del viento	16.09
32431	7	Sololá	701	Sololá	3	Barraneche	6	Junio	2023-06-18T00:00:00	2024-11-06T21:00:00	1	Precipitación	0
32432	7	Sololá	701	Sololá	3	Barraneche	6	Junio	2023-06-18T00:00:00	2024-11-06T21:00:00	8	Radiación solar	0
32433	7	Sololá	701	Sololá	3	Barraneche	6	Junio	2023-06-18T00:00:00	2024-11-06T22:00:00	2	Temperatura media	15.2
32434	7	Sololá	701	Sololá	3	Barraneche	6	Junio	2023-06-18T00:00:00	2024-11-06T22:00:00	4	Temperatura máxima	15.6
32435	7	Sololá	701	Sololá	3	Barraneche	6	Junio	2023-06-18T00:00:00	2024-11-06T22:00:00	3	Temperatura mínima	15.1
32436	7	Sololá	701	Sololá	3	Barraneche	6	Junio	2023-06-18T00:00:00	2024-11-06T22:00:00	5	Humedad	59
32437	7	Sololá	701	Sololá	3	Barraneche	6	Junio	2023-06-18T00:00:00	2024-11-06T22:00:00	6	Velocidad del viento	19.3
32438	7	Sololá	701	Sololá	3	Barraneche	6	Junio	2023-06-18T00:00:00	2024-11-06T22:00:00	7	Dirección del viento	19.31
32439	7	Sololá	701	Sololá	3	Barraneche	6	Junio	2023-06-18T00:00:00	2024-11-06T22:00:00	1	Precipitación	0
32440	7	Sololá	701	Sololá	3	Barraneche	6	Junio	2023-06-18T00:00:00	2024-11-06T22:00:00	8	Radiación solar	0
32441	7	Sololá	701	Sololá	3	Barraneche	6	Junio	2023-06-18T00:00:00	2024-11-06T23:00:00	2	Temperatura media	15.1
32442	7	Sololá	701	Sololá	3	Barraneche	6	Junio	2023-06-18T00:00:00	2024-11-06T23:00:00	4	Temperatura máxima	15.2
32443	7	Sololá	701	Sololá	3	Barraneche	6	Junio	2023-06-18T00:00:00	2024-11-06T23:00:00	3	Temperatura mínima	15.1
32444	7	Sololá	701	Sololá	3	Barraneche	6	Junio	2023-06-18T00:00:00	2024-11-06T23:00:00	5	Humedad	61
32445	7	Sololá	701	Sololá	3	Barraneche	6	Junio	2023-06-18T00:00:00	2024-11-06T23:00:00	6	Velocidad del viento	17.7
32446	7	Sololá	701	Sololá	3	Barraneche	6	Junio	2023-06-18T00:00:00	2024-11-06T23:00:00	7	Dirección del viento	17.7
32447	7	Sololá	701	Sololá	3	Barraneche	6	Junio	2023-06-18T00:00:00	2024-11-06T23:00:00	1	Precipitación	0
32448	7	Sololá	701	Sololá	3	Barraneche	6	Junio	2023-06-18T00:00:00	2024-11-06T23:00:00	8	Radiación solar	0
32449	7	Sololá	701	Sololá	3	Barraneche	6	Junio	2023-06-19T00:00:00	2024-11-06T00:00:00	2	Temperatura media	15
32450	7	Sololá	701	Sololá	3	Barraneche	6	Junio	2023-06-19T00:00:00	2024-11-06T00:00:00	4	Temperatura máxima	15.1
32451	7	Sololá	701	Sololá	3	Barraneche	6	Junio	2023-06-19T00:00:00	2024-11-06T00:00:00	3	Temperatura mínima	14.9
32452	7	Sololá	701	Sololá	3	Barraneche	6	Junio	2023-06-19T00:00:00	2024-11-06T00:00:00	5	Humedad	60
32453	7	Sololá	701	Sololá	3	Barraneche	6	Junio	2023-06-19T00:00:00	2024-11-06T00:00:00	6	Velocidad del viento	17.7
32454	7	Sololá	701	Sololá	3	Barraneche	6	Junio	2023-06-19T00:00:00	2024-11-06T00:00:00	7	Dirección del viento	17.7
32455	7	Sololá	701	Sololá	3	Barraneche	6	Junio	2023-06-19T00:00:00	2024-11-06T00:00:00	1	Precipitación	0
32456	7	Sololá	701	Sololá	3	Barraneche	6	Junio	2023-06-19T00:00:00	2024-11-06T00:00:00	8	Radiación solar	0
32457	7	Sololá	701	Sololá	3	Barraneche	6	Junio	2023-06-19T00:00:00	2024-11-06T01:00:00	2	Temperatura media	14.8
32458	7	Sololá	701	Sololá	3	Barraneche	6	Junio	2023-06-19T00:00:00	2024-11-06T01:00:00	4	Temperatura máxima	15.1
32459	7	Sololá	701	Sololá	3	Barraneche	6	Junio	2023-06-19T00:00:00	2024-11-06T01:00:00	3	Temperatura mínima	14.8
32460	7	Sololá	701	Sololá	3	Barraneche	6	Junio	2023-06-19T00:00:00	2024-11-06T01:00:00	5	Humedad	59
32461	7	Sololá	701	Sololá	3	Barraneche	6	Junio	2023-06-19T00:00:00	2024-11-06T01:00:00	6	Velocidad del viento	14.5
32462	7	Sololá	701	Sololá	3	Barraneche	6	Junio	2023-06-19T00:00:00	2024-11-06T01:00:00	7	Dirección del viento	14.48
32463	7	Sololá	701	Sololá	3	Barraneche	6	Junio	2023-06-19T00:00:00	2024-11-06T01:00:00	1	Precipitación	0
32464	7	Sololá	701	Sololá	3	Barraneche	6	Junio	2023-06-19T00:00:00	2024-11-06T01:00:00	8	Radiación solar	0
32465	7	Sololá	701	Sololá	3	Barraneche	6	Junio	2023-06-19T00:00:00	2024-11-06T02:00:00	2	Temperatura media	14.7
32466	7	Sololá	701	Sololá	3	Barraneche	6	Junio	2023-06-19T00:00:00	2024-11-06T02:00:00	4	Temperatura máxima	14.9
32467	7	Sololá	701	Sololá	3	Barraneche	6	Junio	2023-06-19T00:00:00	2024-11-06T02:00:00	3	Temperatura mínima	14.6
32468	7	Sololá	701	Sololá	3	Barraneche	6	Junio	2023-06-19T00:00:00	2024-11-06T02:00:00	5	Humedad	59
32469	7	Sololá	701	Sololá	3	Barraneche	6	Junio	2023-06-19T00:00:00	2024-11-06T02:00:00	6	Velocidad del viento	16.1
32470	7	Sololá	701	Sololá	3	Barraneche	6	Junio	2023-06-19T00:00:00	2024-11-06T02:00:00	7	Dirección del viento	16.09
32471	7	Sololá	701	Sololá	3	Barraneche	6	Junio	2023-06-19T00:00:00	2024-11-06T02:00:00	1	Precipitación	0
32472	7	Sololá	701	Sololá	3	Barraneche	6	Junio	2023-06-19T00:00:00	2024-11-06T02:00:00	8	Radiación solar	0
32473	7	Sololá	701	Sololá	3	Barraneche	6	Junio	2023-06-19T00:00:00	2024-11-06T03:00:00	2	Temperatura media	14.8
32474	7	Sololá	701	Sololá	3	Barraneche	6	Junio	2023-06-19T00:00:00	2024-11-06T03:00:00	4	Temperatura máxima	14.8
32475	7	Sololá	701	Sololá	3	Barraneche	6	Junio	2023-06-19T00:00:00	2024-11-06T03:00:00	3	Temperatura mínima	14.7
32476	7	Sololá	701	Sololá	3	Barraneche	6	Junio	2023-06-19T00:00:00	2024-11-06T03:00:00	5	Humedad	59
32477	7	Sololá	701	Sololá	3	Barraneche	6	Junio	2023-06-19T00:00:00	2024-11-06T03:00:00	6	Velocidad del viento	16.1
32478	7	Sololá	701	Sololá	3	Barraneche	6	Junio	2023-06-19T00:00:00	2024-11-06T03:00:00	7	Dirección del viento	16.09
32479	7	Sololá	701	Sololá	3	Barraneche	6	Junio	2023-06-19T00:00:00	2024-11-06T03:00:00	1	Precipitación	0
32480	7	Sololá	701	Sololá	3	Barraneche	6	Junio	2023-06-19T00:00:00	2024-11-06T03:00:00	8	Radiación solar	0
32481	7	Sololá	701	Sololá	3	Barraneche	6	Junio	2023-06-19T00:00:00	2024-11-06T04:00:00	2	Temperatura media	14.9
32482	7	Sololá	701	Sololá	3	Barraneche	6	Junio	2023-06-19T00:00:00	2024-11-06T04:00:00	4	Temperatura máxima	14.9
32483	7	Sololá	701	Sololá	3	Barraneche	6	Junio	2023-06-19T00:00:00	2024-11-06T04:00:00	3	Temperatura mínima	14.4
32484	7	Sololá	701	Sololá	3	Barraneche	6	Junio	2023-06-19T00:00:00	2024-11-06T04:00:00	5	Humedad	63
32485	7	Sololá	701	Sololá	3	Barraneche	6	Junio	2023-06-19T00:00:00	2024-11-06T04:00:00	6	Velocidad del viento	14.5
32486	7	Sololá	701	Sololá	3	Barraneche	6	Junio	2023-06-19T00:00:00	2024-11-06T04:00:00	7	Dirección del viento	14.48
32487	7	Sololá	701	Sololá	3	Barraneche	6	Junio	2023-06-19T00:00:00	2024-11-06T04:00:00	1	Precipitación	0
32488	7	Sololá	701	Sololá	3	Barraneche	6	Junio	2023-06-19T00:00:00	2024-11-06T04:00:00	8	Radiación solar	0
32489	7	Sololá	701	Sololá	3	Barraneche	6	Junio	2023-06-19T00:00:00	2024-11-06T05:00:00	2	Temperatura media	15.2
32490	7	Sololá	701	Sololá	3	Barraneche	6	Junio	2023-06-19T00:00:00	2024-11-06T05:00:00	4	Temperatura máxima	15.2
32491	7	Sololá	701	Sololá	3	Barraneche	6	Junio	2023-06-19T00:00:00	2024-11-06T05:00:00	3	Temperatura mínima	14.8
32492	7	Sololá	701	Sololá	3	Barraneche	6	Junio	2023-06-19T00:00:00	2024-11-06T05:00:00	5	Humedad	60
32493	7	Sololá	701	Sololá	3	Barraneche	6	Junio	2023-06-19T00:00:00	2024-11-06T05:00:00	6	Velocidad del viento	16.1
32494	7	Sololá	701	Sololá	3	Barraneche	6	Junio	2023-06-19T00:00:00	2024-11-06T05:00:00	7	Dirección del viento	16.09
32495	7	Sololá	701	Sololá	3	Barraneche	6	Junio	2023-06-19T00:00:00	2024-11-06T05:00:00	1	Precipitación	0
32496	7	Sololá	701	Sololá	3	Barraneche	6	Junio	2023-06-19T00:00:00	2024-11-06T05:00:00	8	Radiación solar	0
32497	7	Sololá	701	Sololá	3	Barraneche	6	Junio	2023-06-19T00:00:00	2024-11-06T06:00:00	2	Temperatura media	15
32498	7	Sololá	701	Sololá	3	Barraneche	6	Junio	2023-06-19T00:00:00	2024-11-06T06:00:00	4	Temperatura máxima	15.6
32499	7	Sololá	701	Sololá	3	Barraneche	6	Junio	2023-06-19T00:00:00	2024-11-06T06:00:00	3	Temperatura mínima	14.9
32500	7	Sololá	701	Sololá	3	Barraneche	6	Junio	2023-06-19T00:00:00	2024-11-06T06:00:00	5	Humedad	60
32501	7	Sololá	701	Sololá	3	Barraneche	6	Junio	2023-06-19T00:00:00	2024-11-06T06:00:00	6	Velocidad del viento	9.7
32502	7	Sololá	701	Sololá	3	Barraneche	6	Junio	2023-06-19T00:00:00	2024-11-06T06:00:00	7	Dirección del viento	9.66
32503	7	Sololá	701	Sololá	3	Barraneche	6	Junio	2023-06-19T00:00:00	2024-11-06T06:00:00	1	Precipitación	0
32504	7	Sololá	701	Sololá	3	Barraneche	6	Junio	2023-06-19T00:00:00	2024-11-06T06:00:00	8	Radiación solar	11
32505	7	Sololá	701	Sololá	3	Barraneche	6	Junio	2023-06-19T00:00:00	2024-11-06T07:00:00	2	Temperatura media	15.3
32506	7	Sololá	701	Sololá	3	Barraneche	6	Junio	2023-06-19T00:00:00	2024-11-06T07:00:00	4	Temperatura máxima	15.4
32507	7	Sololá	701	Sololá	3	Barraneche	6	Junio	2023-06-19T00:00:00	2024-11-06T07:00:00	3	Temperatura mínima	14.3
32508	7	Sololá	701	Sololá	3	Barraneche	6	Junio	2023-06-19T00:00:00	2024-11-06T07:00:00	5	Humedad	62
32509	7	Sololá	701	Sololá	3	Barraneche	6	Junio	2023-06-19T00:00:00	2024-11-06T07:00:00	6	Velocidad del viento	3.2
32510	7	Sololá	701	Sololá	3	Barraneche	6	Junio	2023-06-19T00:00:00	2024-11-06T07:00:00	7	Dirección del viento	3.22
32511	7	Sololá	701	Sololá	3	Barraneche	6	Junio	2023-06-19T00:00:00	2024-11-06T07:00:00	1	Precipitación	0
32512	7	Sololá	701	Sololá	3	Barraneche	6	Junio	2023-06-19T00:00:00	2024-11-06T07:00:00	8	Radiación solar	152
32513	7	Sololá	701	Sololá	3	Barraneche	6	Junio	2023-06-19T00:00:00	2024-11-06T08:00:00	2	Temperatura media	17.9
32514	7	Sololá	701	Sololá	3	Barraneche	6	Junio	2023-06-19T00:00:00	2024-11-06T08:00:00	4	Temperatura máxima	17.9
32515	7	Sololá	701	Sololá	3	Barraneche	6	Junio	2023-06-19T00:00:00	2024-11-06T08:00:00	3	Temperatura mínima	15.4
32516	7	Sololá	701	Sololá	3	Barraneche	6	Junio	2023-06-19T00:00:00	2024-11-06T08:00:00	5	Humedad	55
32517	7	Sololá	701	Sololá	3	Barraneche	6	Junio	2023-06-19T00:00:00	2024-11-06T08:00:00	6	Velocidad del viento	3.2
32518	7	Sololá	701	Sololá	3	Barraneche	6	Junio	2023-06-19T00:00:00	2024-11-06T08:00:00	7	Dirección del viento	3.22
32519	7	Sololá	701	Sololá	3	Barraneche	6	Junio	2023-06-19T00:00:00	2024-11-06T08:00:00	1	Precipitación	0
32520	7	Sololá	701	Sololá	3	Barraneche	6	Junio	2023-06-19T00:00:00	2024-11-06T08:00:00	8	Radiación solar	412
32521	7	Sololá	701	Sololá	3	Barraneche	6	Junio	2023-06-19T00:00:00	2024-11-06T09:00:00	2	Temperatura media	18.1
32522	7	Sololá	701	Sololá	3	Barraneche	6	Junio	2023-06-19T00:00:00	2024-11-06T09:00:00	4	Temperatura máxima	18.7
32523	7	Sololá	701	Sololá	3	Barraneche	6	Junio	2023-06-19T00:00:00	2024-11-06T09:00:00	3	Temperatura mínima	17.9
32524	7	Sololá	701	Sololá	3	Barraneche	6	Junio	2023-06-19T00:00:00	2024-11-06T09:00:00	5	Humedad	51
32525	7	Sololá	701	Sololá	3	Barraneche	6	Junio	2023-06-19T00:00:00	2024-11-06T09:00:00	6	Velocidad del viento	9.7
32526	7	Sololá	701	Sololá	3	Barraneche	6	Junio	2023-06-19T00:00:00	2024-11-06T09:00:00	7	Dirección del viento	9.66
32527	7	Sololá	701	Sololá	3	Barraneche	6	Junio	2023-06-19T00:00:00	2024-11-06T09:00:00	1	Precipitación	0
32528	7	Sololá	701	Sololá	3	Barraneche	6	Junio	2023-06-19T00:00:00	2024-11-06T09:00:00	8	Radiación solar	620
32529	7	Sololá	701	Sololá	3	Barraneche	6	Junio	2023-06-19T00:00:00	2024-11-06T10:00:00	2	Temperatura media	19.3
32530	7	Sololá	701	Sololá	3	Barraneche	6	Junio	2023-06-19T00:00:00	2024-11-06T10:00:00	4	Temperatura máxima	19.3
32531	7	Sololá	701	Sololá	3	Barraneche	6	Junio	2023-06-19T00:00:00	2024-11-06T10:00:00	3	Temperatura mínima	18
32532	7	Sololá	701	Sololá	3	Barraneche	6	Junio	2023-06-19T00:00:00	2024-11-06T10:00:00	5	Humedad	52
32533	7	Sololá	701	Sololá	3	Barraneche	6	Junio	2023-06-19T00:00:00	2024-11-06T10:00:00	6	Velocidad del viento	12.9
32534	7	Sololá	701	Sololá	3	Barraneche	6	Junio	2023-06-19T00:00:00	2024-11-06T10:00:00	7	Dirección del viento	12.87
32535	7	Sololá	701	Sololá	3	Barraneche	6	Junio	2023-06-19T00:00:00	2024-11-06T10:00:00	1	Precipitación	0
32536	7	Sololá	701	Sololá	3	Barraneche	6	Junio	2023-06-19T00:00:00	2024-11-06T10:00:00	8	Radiación solar	791
32537	7	Sololá	701	Sololá	3	Barraneche	6	Junio	2023-06-19T00:00:00	2024-11-06T11:00:00	2	Temperatura media	19.9
32538	7	Sololá	701	Sololá	3	Barraneche	6	Junio	2023-06-19T00:00:00	2024-11-06T11:00:00	4	Temperatura máxima	20.1
32539	7	Sololá	701	Sololá	3	Barraneche	6	Junio	2023-06-19T00:00:00	2024-11-06T11:00:00	3	Temperatura mínima	18.9
32540	7	Sololá	701	Sololá	3	Barraneche	6	Junio	2023-06-19T00:00:00	2024-11-06T11:00:00	5	Humedad	51
32541	7	Sololá	701	Sololá	3	Barraneche	6	Junio	2023-06-19T00:00:00	2024-11-06T11:00:00	6	Velocidad del viento	11.3
32542	7	Sololá	701	Sololá	3	Barraneche	6	Junio	2023-06-19T00:00:00	2024-11-06T11:00:00	7	Dirección del viento	11.27
32543	7	Sololá	701	Sololá	3	Barraneche	6	Junio	2023-06-19T00:00:00	2024-11-06T11:00:00	1	Precipitación	0
32544	7	Sololá	701	Sololá	3	Barraneche	6	Junio	2023-06-19T00:00:00	2024-11-06T11:00:00	8	Radiación solar	952
32545	7	Sololá	701	Sololá	3	Barraneche	6	Junio	2023-06-19T00:00:00	2024-11-06T12:00:00	2	Temperatura media	19.4
32546	7	Sololá	701	Sololá	3	Barraneche	6	Junio	2023-06-19T00:00:00	2024-11-06T12:00:00	4	Temperatura máxima	20
32547	7	Sololá	701	Sololá	3	Barraneche	6	Junio	2023-06-19T00:00:00	2024-11-06T12:00:00	3	Temperatura mínima	19.2
32548	7	Sololá	701	Sololá	3	Barraneche	6	Junio	2023-06-19T00:00:00	2024-11-06T12:00:00	5	Humedad	53
32549	7	Sololá	701	Sololá	3	Barraneche	6	Junio	2023-06-19T00:00:00	2024-11-06T12:00:00	6	Velocidad del viento	11.3
32550	7	Sololá	701	Sololá	3	Barraneche	6	Junio	2023-06-19T00:00:00	2024-11-06T12:00:00	7	Dirección del viento	11.27
32551	7	Sololá	701	Sololá	3	Barraneche	6	Junio	2023-06-19T00:00:00	2024-11-06T12:00:00	1	Precipitación	0
32552	7	Sololá	701	Sololá	3	Barraneche	6	Junio	2023-06-19T00:00:00	2024-11-06T12:00:00	8	Radiación solar	815
32553	7	Sololá	701	Sololá	3	Barraneche	6	Junio	2023-06-19T00:00:00	2024-11-06T13:00:00	2	Temperatura media	18.3
32554	7	Sololá	701	Sololá	3	Barraneche	6	Junio	2023-06-19T00:00:00	2024-11-06T13:00:00	4	Temperatura máxima	19.4
32555	7	Sololá	701	Sololá	3	Barraneche	6	Junio	2023-06-19T00:00:00	2024-11-06T13:00:00	3	Temperatura mínima	17.8
32556	7	Sololá	701	Sololá	3	Barraneche	6	Junio	2023-06-19T00:00:00	2024-11-06T13:00:00	5	Humedad	57
32557	7	Sololá	701	Sololá	3	Barraneche	6	Junio	2023-06-19T00:00:00	2024-11-06T13:00:00	6	Velocidad del viento	11.3
32558	7	Sololá	701	Sololá	3	Barraneche	6	Junio	2023-06-19T00:00:00	2024-11-06T13:00:00	7	Dirección del viento	11.27
32559	7	Sololá	701	Sololá	3	Barraneche	6	Junio	2023-06-19T00:00:00	2024-11-06T13:00:00	1	Precipitación	0
32560	7	Sololá	701	Sololá	3	Barraneche	6	Junio	2023-06-19T00:00:00	2024-11-06T13:00:00	8	Radiación solar	310
32561	7	Sololá	701	Sololá	3	Barraneche	6	Junio	2023-06-19T00:00:00	2024-11-06T14:00:00	2	Temperatura media	19.8
32562	7	Sololá	701	Sololá	3	Barraneche	6	Junio	2023-06-19T00:00:00	2024-11-06T14:00:00	4	Temperatura máxima	20.1
32563	7	Sololá	701	Sololá	3	Barraneche	6	Junio	2023-06-19T00:00:00	2024-11-06T14:00:00	3	Temperatura mínima	18.4
32564	7	Sololá	701	Sololá	3	Barraneche	6	Junio	2023-06-19T00:00:00	2024-11-06T14:00:00	5	Humedad	52
32565	7	Sololá	701	Sololá	3	Barraneche	6	Junio	2023-06-19T00:00:00	2024-11-06T14:00:00	6	Velocidad del viento	12.9
32566	7	Sololá	701	Sololá	3	Barraneche	6	Junio	2023-06-19T00:00:00	2024-11-06T14:00:00	7	Dirección del viento	12.87
32567	7	Sololá	701	Sololá	3	Barraneche	6	Junio	2023-06-19T00:00:00	2024-11-06T14:00:00	1	Precipitación	0
32568	7	Sololá	701	Sololá	3	Barraneche	6	Junio	2023-06-19T00:00:00	2024-11-06T14:00:00	8	Radiación solar	660
32569	7	Sololá	701	Sololá	3	Barraneche	6	Junio	2023-06-19T00:00:00	2024-11-06T15:00:00	2	Temperatura media	20.4
32570	7	Sololá	701	Sololá	3	Barraneche	6	Junio	2023-06-19T00:00:00	2024-11-06T15:00:00	4	Temperatura máxima	20.4
32571	7	Sololá	701	Sololá	3	Barraneche	6	Junio	2023-06-19T00:00:00	2024-11-06T15:00:00	3	Temperatura mínima	19
32572	7	Sololá	701	Sololá	3	Barraneche	6	Junio	2023-06-19T00:00:00	2024-11-06T15:00:00	5	Humedad	46
32573	7	Sololá	701	Sololá	3	Barraneche	6	Junio	2023-06-19T00:00:00	2024-11-06T15:00:00	6	Velocidad del viento	11.3
32574	7	Sololá	701	Sololá	3	Barraneche	6	Junio	2023-06-19T00:00:00	2024-11-06T15:00:00	7	Dirección del viento	11.27
32575	7	Sololá	701	Sololá	3	Barraneche	6	Junio	2023-06-19T00:00:00	2024-11-06T15:00:00	1	Precipitación	0
32576	7	Sololá	701	Sololá	3	Barraneche	6	Junio	2023-06-19T00:00:00	2024-11-06T15:00:00	8	Radiación solar	416
32577	7	Sololá	701	Sololá	3	Barraneche	6	Junio	2023-06-19T00:00:00	2024-11-06T16:00:00	2	Temperatura media	20.6
32578	7	Sololá	701	Sololá	3	Barraneche	6	Junio	2023-06-19T00:00:00	2024-11-06T16:00:00	4	Temperatura máxima	21.3
32579	7	Sololá	701	Sololá	3	Barraneche	6	Junio	2023-06-19T00:00:00	2024-11-06T16:00:00	3	Temperatura mínima	20.5
32580	7	Sololá	701	Sololá	3	Barraneche	6	Junio	2023-06-19T00:00:00	2024-11-06T16:00:00	5	Humedad	44
32581	7	Sololá	701	Sololá	3	Barraneche	6	Junio	2023-06-19T00:00:00	2024-11-06T16:00:00	6	Velocidad del viento	12.9
32582	7	Sololá	701	Sololá	3	Barraneche	6	Junio	2023-06-19T00:00:00	2024-11-06T16:00:00	7	Dirección del viento	12.87
32583	7	Sololá	701	Sololá	3	Barraneche	6	Junio	2023-06-19T00:00:00	2024-11-06T16:00:00	1	Precipitación	0
32584	7	Sololá	701	Sololá	3	Barraneche	6	Junio	2023-06-19T00:00:00	2024-11-06T16:00:00	8	Radiación solar	673
32585	7	Sololá	701	Sololá	3	Barraneche	6	Junio	2023-06-19T00:00:00	2024-11-06T17:00:00	2	Temperatura media	19.8
32586	7	Sololá	701	Sololá	3	Barraneche	6	Junio	2023-06-19T00:00:00	2024-11-06T17:00:00	4	Temperatura máxima	20.7
32587	7	Sololá	701	Sololá	3	Barraneche	6	Junio	2023-06-19T00:00:00	2024-11-06T17:00:00	3	Temperatura mínima	19.8
32588	7	Sololá	701	Sololá	3	Barraneche	6	Junio	2023-06-19T00:00:00	2024-11-06T17:00:00	5	Humedad	41
32589	7	Sololá	701	Sololá	3	Barraneche	6	Junio	2023-06-19T00:00:00	2024-11-06T17:00:00	6	Velocidad del viento	12.9
32590	7	Sololá	701	Sololá	3	Barraneche	6	Junio	2023-06-19T00:00:00	2024-11-06T17:00:00	7	Dirección del viento	12.87
32591	7	Sololá	701	Sololá	3	Barraneche	6	Junio	2023-06-19T00:00:00	2024-11-06T17:00:00	1	Precipitación	0
32592	7	Sololá	701	Sololá	3	Barraneche	6	Junio	2023-06-19T00:00:00	2024-11-06T17:00:00	8	Radiación solar	440
32593	7	Sololá	701	Sololá	3	Barraneche	6	Junio	2023-06-19T00:00:00	2024-11-06T18:00:00	2	Temperatura media	18.5
32594	7	Sololá	701	Sololá	3	Barraneche	6	Junio	2023-06-19T00:00:00	2024-11-06T18:00:00	4	Temperatura máxima	19.7
32595	7	Sololá	701	Sololá	3	Barraneche	6	Junio	2023-06-19T00:00:00	2024-11-06T18:00:00	3	Temperatura mínima	17.4
32596	7	Sololá	701	Sololá	3	Barraneche	6	Junio	2023-06-19T00:00:00	2024-11-06T18:00:00	5	Humedad	56
32597	7	Sololá	701	Sololá	3	Barraneche	6	Junio	2023-06-19T00:00:00	2024-11-06T18:00:00	6	Velocidad del viento	8
32598	7	Sololá	701	Sololá	3	Barraneche	6	Junio	2023-06-19T00:00:00	2024-11-06T18:00:00	7	Dirección del viento	8.05
32599	7	Sololá	701	Sololá	3	Barraneche	6	Junio	2023-06-19T00:00:00	2024-11-06T18:00:00	1	Precipitación	0
32600	7	Sololá	701	Sololá	3	Barraneche	6	Junio	2023-06-19T00:00:00	2024-11-06T18:00:00	8	Radiación solar	104
32601	7	Sololá	701	Sololá	3	Barraneche	6	Junio	2023-06-19T00:00:00	2024-11-06T19:00:00	2	Temperatura media	16.8
32602	7	Sololá	701	Sololá	3	Barraneche	6	Junio	2023-06-19T00:00:00	2024-11-06T19:00:00	4	Temperatura máxima	18.5
32603	7	Sololá	701	Sololá	3	Barraneche	6	Junio	2023-06-19T00:00:00	2024-11-06T19:00:00	3	Temperatura mínima	16.8
32604	7	Sololá	701	Sololá	3	Barraneche	6	Junio	2023-06-19T00:00:00	2024-11-06T19:00:00	5	Humedad	66
32605	7	Sololá	701	Sololá	3	Barraneche	6	Junio	2023-06-19T00:00:00	2024-11-06T19:00:00	6	Velocidad del viento	8
32606	7	Sololá	701	Sololá	3	Barraneche	6	Junio	2023-06-19T00:00:00	2024-11-06T19:00:00	7	Dirección del viento	8.05
32607	7	Sololá	701	Sololá	3	Barraneche	6	Junio	2023-06-19T00:00:00	2024-11-06T19:00:00	1	Precipitación	0
32608	7	Sololá	701	Sololá	3	Barraneche	6	Junio	2023-06-19T00:00:00	2024-11-06T19:00:00	8	Radiación solar	0
32609	7	Sololá	701	Sololá	3	Barraneche	6	Junio	2023-06-19T00:00:00	2024-11-06T20:00:00	2	Temperatura media	15
32610	7	Sololá	701	Sololá	3	Barraneche	6	Junio	2023-06-19T00:00:00	2024-11-06T20:00:00	4	Temperatura máxima	16.8
32611	7	Sololá	701	Sololá	3	Barraneche	6	Junio	2023-06-19T00:00:00	2024-11-06T20:00:00	3	Temperatura mínima	14.7
32612	7	Sololá	701	Sololá	3	Barraneche	6	Junio	2023-06-19T00:00:00	2024-11-06T20:00:00	5	Humedad	74
32613	7	Sololá	701	Sololá	3	Barraneche	6	Junio	2023-06-19T00:00:00	2024-11-06T20:00:00	6	Velocidad del viento	9.7
32614	7	Sololá	701	Sololá	3	Barraneche	6	Junio	2023-06-19T00:00:00	2024-11-06T20:00:00	7	Dirección del viento	9.66
32615	7	Sololá	701	Sololá	3	Barraneche	6	Junio	2023-06-19T00:00:00	2024-11-06T20:00:00	1	Precipitación	1.2
32616	7	Sololá	701	Sololá	3	Barraneche	6	Junio	2023-06-19T00:00:00	2024-11-06T20:00:00	8	Radiación solar	0
32617	7	Sololá	701	Sololá	3	Barraneche	6	Junio	2023-06-19T00:00:00	2024-11-06T21:00:00	2	Temperatura media	15.1
32618	7	Sololá	701	Sololá	3	Barraneche	6	Junio	2023-06-19T00:00:00	2024-11-06T21:00:00	4	Temperatura máxima	15.3
32619	7	Sololá	701	Sololá	3	Barraneche	6	Junio	2023-06-19T00:00:00	2024-11-06T21:00:00	3	Temperatura mínima	15
32620	7	Sololá	701	Sololá	3	Barraneche	6	Junio	2023-06-19T00:00:00	2024-11-06T21:00:00	5	Humedad	73
32621	7	Sololá	701	Sololá	3	Barraneche	6	Junio	2023-06-19T00:00:00	2024-11-06T21:00:00	6	Velocidad del viento	6.4
32622	7	Sololá	701	Sololá	3	Barraneche	6	Junio	2023-06-19T00:00:00	2024-11-06T21:00:00	7	Dirección del viento	6.44
32623	7	Sololá	701	Sololá	3	Barraneche	6	Junio	2023-06-19T00:00:00	2024-11-06T21:00:00	1	Precipitación	0
32624	7	Sololá	701	Sololá	3	Barraneche	6	Junio	2023-06-19T00:00:00	2024-11-06T21:00:00	8	Radiación solar	0
32625	7	Sololá	701	Sololá	3	Barraneche	6	Junio	2023-06-19T00:00:00	2024-11-06T22:00:00	2	Temperatura media	15.2
32626	7	Sololá	701	Sololá	3	Barraneche	6	Junio	2023-06-19T00:00:00	2024-11-06T22:00:00	4	Temperatura máxima	15.3
32627	7	Sololá	701	Sololá	3	Barraneche	6	Junio	2023-06-19T00:00:00	2024-11-06T22:00:00	3	Temperatura mínima	14.9
32628	7	Sololá	701	Sololá	3	Barraneche	6	Junio	2023-06-19T00:00:00	2024-11-06T22:00:00	5	Humedad	72
32629	7	Sololá	701	Sololá	3	Barraneche	6	Junio	2023-06-19T00:00:00	2024-11-06T22:00:00	6	Velocidad del viento	9.7
32630	7	Sololá	701	Sololá	3	Barraneche	6	Junio	2023-06-19T00:00:00	2024-11-06T22:00:00	7	Dirección del viento	9.66
32631	7	Sololá	701	Sololá	3	Barraneche	6	Junio	2023-06-19T00:00:00	2024-11-06T22:00:00	1	Precipitación	0
32632	7	Sololá	701	Sololá	3	Barraneche	6	Junio	2023-06-19T00:00:00	2024-11-06T22:00:00	8	Radiación solar	0
32633	7	Sololá	701	Sololá	3	Barraneche	6	Junio	2023-06-19T00:00:00	2024-11-06T23:00:00	2	Temperatura media	14.4
32634	7	Sololá	701	Sololá	3	Barraneche	6	Junio	2023-06-19T00:00:00	2024-11-06T23:00:00	4	Temperatura máxima	15.2
32635	7	Sololá	701	Sololá	3	Barraneche	6	Junio	2023-06-19T00:00:00	2024-11-06T23:00:00	3	Temperatura mínima	14.4
32636	7	Sololá	701	Sololá	3	Barraneche	6	Junio	2023-06-19T00:00:00	2024-11-06T23:00:00	5	Humedad	70
32637	7	Sololá	701	Sololá	3	Barraneche	6	Junio	2023-06-19T00:00:00	2024-11-06T23:00:00	6	Velocidad del viento	12.9
32638	7	Sololá	701	Sololá	3	Barraneche	6	Junio	2023-06-19T00:00:00	2024-11-06T23:00:00	7	Dirección del viento	12.87
32639	7	Sololá	701	Sololá	3	Barraneche	6	Junio	2023-06-19T00:00:00	2024-11-06T23:00:00	1	Precipitación	0
32640	7	Sololá	701	Sololá	3	Barraneche	6	Junio	2023-06-19T00:00:00	2024-11-06T23:00:00	8	Radiación solar	0
32641	7	Sololá	701	Sololá	3	Barraneche	6	Junio	2023-06-20T00:00:00	2024-11-06T00:00:00	2	Temperatura media	14.1
32642	7	Sololá	701	Sololá	3	Barraneche	6	Junio	2023-06-20T00:00:00	2024-11-06T00:00:00	4	Temperatura máxima	14.4
32643	7	Sololá	701	Sololá	3	Barraneche	6	Junio	2023-06-20T00:00:00	2024-11-06T00:00:00	3	Temperatura mínima	14.1
32644	7	Sololá	701	Sololá	3	Barraneche	6	Junio	2023-06-20T00:00:00	2024-11-06T00:00:00	5	Humedad	67
32645	7	Sololá	701	Sololá	3	Barraneche	6	Junio	2023-06-20T00:00:00	2024-11-06T00:00:00	6	Velocidad del viento	9.7
32646	7	Sololá	701	Sololá	3	Barraneche	6	Junio	2023-06-20T00:00:00	2024-11-06T00:00:00	7	Dirección del viento	9.66
32647	7	Sololá	701	Sololá	3	Barraneche	6	Junio	2023-06-20T00:00:00	2024-11-06T00:00:00	1	Precipitación	0
32648	7	Sololá	701	Sololá	3	Barraneche	6	Junio	2023-06-20T00:00:00	2024-11-06T00:00:00	8	Radiación solar	0
32649	7	Sololá	701	Sololá	3	Barraneche	6	Junio	2023-06-20T00:00:00	2024-11-06T01:00:00	2	Temperatura media	12.7
32650	7	Sololá	701	Sololá	3	Barraneche	6	Junio	2023-06-20T00:00:00	2024-11-06T01:00:00	4	Temperatura máxima	14.3
32651	7	Sololá	701	Sololá	3	Barraneche	6	Junio	2023-06-20T00:00:00	2024-11-06T01:00:00	3	Temperatura mínima	12.7
32652	7	Sololá	701	Sololá	3	Barraneche	6	Junio	2023-06-20T00:00:00	2024-11-06T01:00:00	5	Humedad	73
32653	7	Sololá	701	Sololá	3	Barraneche	6	Junio	2023-06-20T00:00:00	2024-11-06T01:00:00	6	Velocidad del viento	6.4
32654	7	Sololá	701	Sololá	3	Barraneche	6	Junio	2023-06-20T00:00:00	2024-11-06T01:00:00	7	Dirección del viento	6.44
32655	7	Sololá	701	Sololá	3	Barraneche	6	Junio	2023-06-20T00:00:00	2024-11-06T01:00:00	1	Precipitación	0
32656	7	Sololá	701	Sololá	3	Barraneche	6	Junio	2023-06-20T00:00:00	2024-11-06T01:00:00	8	Radiación solar	0
32657	7	Sololá	701	Sololá	3	Barraneche	6	Junio	2023-06-20T00:00:00	2024-11-06T02:00:00	2	Temperatura media	11.6
32658	7	Sololá	701	Sololá	3	Barraneche	6	Junio	2023-06-20T00:00:00	2024-11-06T02:00:00	4	Temperatura máxima	12.7
32659	7	Sololá	701	Sololá	3	Barraneche	6	Junio	2023-06-20T00:00:00	2024-11-06T02:00:00	3	Temperatura mínima	11.3
32660	7	Sololá	701	Sololá	3	Barraneche	6	Junio	2023-06-20T00:00:00	2024-11-06T02:00:00	5	Humedad	74
32661	7	Sololá	701	Sololá	3	Barraneche	6	Junio	2023-06-20T00:00:00	2024-11-06T02:00:00	6	Velocidad del viento	4.8
32662	7	Sololá	701	Sololá	3	Barraneche	6	Junio	2023-06-20T00:00:00	2024-11-06T02:00:00	7	Dirección del viento	4.83
32663	7	Sololá	701	Sololá	3	Barraneche	6	Junio	2023-06-20T00:00:00	2024-11-06T02:00:00	1	Precipitación	0
32664	7	Sololá	701	Sololá	3	Barraneche	6	Junio	2023-06-20T00:00:00	2024-11-06T02:00:00	8	Radiación solar	0
32665	7	Sololá	701	Sololá	3	Barraneche	6	Junio	2023-06-20T00:00:00	2024-11-06T03:00:00	2	Temperatura media	11.7
32666	7	Sololá	701	Sololá	3	Barraneche	6	Junio	2023-06-20T00:00:00	2024-11-06T03:00:00	4	Temperatura máxima	11.7
32667	7	Sololá	701	Sololá	3	Barraneche	6	Junio	2023-06-20T00:00:00	2024-11-06T03:00:00	3	Temperatura mínima	10.8
32668	7	Sololá	701	Sololá	3	Barraneche	6	Junio	2023-06-20T00:00:00	2024-11-06T03:00:00	5	Humedad	75
32669	7	Sololá	701	Sololá	3	Barraneche	6	Junio	2023-06-20T00:00:00	2024-11-06T03:00:00	6	Velocidad del viento	4.8
32670	7	Sololá	701	Sololá	3	Barraneche	6	Junio	2023-06-20T00:00:00	2024-11-06T03:00:00	7	Dirección del viento	4.83
32671	7	Sololá	701	Sololá	3	Barraneche	6	Junio	2023-06-20T00:00:00	2024-11-06T03:00:00	1	Precipitación	0
32672	7	Sololá	701	Sololá	3	Barraneche	6	Junio	2023-06-20T00:00:00	2024-11-06T03:00:00	8	Radiación solar	0
32673	7	Sololá	701	Sololá	3	Barraneche	6	Junio	2023-06-20T00:00:00	2024-11-06T04:00:00	2	Temperatura media	12.2
32674	7	Sololá	701	Sololá	3	Barraneche	6	Junio	2023-06-20T00:00:00	2024-11-06T04:00:00	4	Temperatura máxima	12.2
32675	7	Sololá	701	Sololá	3	Barraneche	6	Junio	2023-06-20T00:00:00	2024-11-06T04:00:00	3	Temperatura mínima	11.3
32676	7	Sololá	701	Sololá	3	Barraneche	6	Junio	2023-06-20T00:00:00	2024-11-06T04:00:00	5	Humedad	76
32677	7	Sololá	701	Sololá	3	Barraneche	6	Junio	2023-06-20T00:00:00	2024-11-06T04:00:00	6	Velocidad del viento	3.2
32678	7	Sololá	701	Sololá	3	Barraneche	6	Junio	2023-06-20T00:00:00	2024-11-06T04:00:00	7	Dirección del viento	3.22
32679	7	Sololá	701	Sololá	3	Barraneche	6	Junio	2023-06-20T00:00:00	2024-11-06T04:00:00	1	Precipitación	0
32680	7	Sololá	701	Sololá	3	Barraneche	6	Junio	2023-06-20T00:00:00	2024-11-06T04:00:00	8	Radiación solar	0
32681	7	Sololá	701	Sololá	3	Barraneche	6	Junio	2023-06-20T00:00:00	2024-11-06T05:00:00	2	Temperatura media	11.8
32682	7	Sololá	701	Sololá	3	Barraneche	6	Junio	2023-06-20T00:00:00	2024-11-06T05:00:00	4	Temperatura máxima	12.6
32683	7	Sololá	701	Sololá	3	Barraneche	6	Junio	2023-06-20T00:00:00	2024-11-06T05:00:00	3	Temperatura mínima	11.7
32684	7	Sololá	701	Sololá	3	Barraneche	6	Junio	2023-06-20T00:00:00	2024-11-06T05:00:00	5	Humedad	76
32685	7	Sololá	701	Sololá	3	Barraneche	6	Junio	2023-06-20T00:00:00	2024-11-06T05:00:00	6	Velocidad del viento	3.2
32686	7	Sololá	701	Sololá	3	Barraneche	6	Junio	2023-06-20T00:00:00	2024-11-06T05:00:00	7	Dirección del viento	3.22
32687	7	Sololá	701	Sololá	3	Barraneche	6	Junio	2023-06-20T00:00:00	2024-11-06T05:00:00	1	Precipitación	0
32688	7	Sololá	701	Sololá	3	Barraneche	6	Junio	2023-06-20T00:00:00	2024-11-06T05:00:00	8	Radiación solar	0
32689	7	Sololá	701	Sololá	3	Barraneche	6	Junio	2023-06-20T00:00:00	2024-11-06T06:00:00	2	Temperatura media	12.4
32690	7	Sololá	701	Sololá	3	Barraneche	6	Junio	2023-06-20T00:00:00	2024-11-06T06:00:00	4	Temperatura máxima	12.9
32691	7	Sololá	701	Sololá	3	Barraneche	6	Junio	2023-06-20T00:00:00	2024-11-06T06:00:00	3	Temperatura mínima	11.5
32692	7	Sololá	701	Sololá	3	Barraneche	6	Junio	2023-06-20T00:00:00	2024-11-06T06:00:00	5	Humedad	74
32693	7	Sololá	701	Sololá	3	Barraneche	6	Junio	2023-06-20T00:00:00	2024-11-06T06:00:00	6	Velocidad del viento	4.8
32694	7	Sololá	701	Sololá	3	Barraneche	6	Junio	2023-06-20T00:00:00	2024-11-06T06:00:00	7	Dirección del viento	4.83
32695	7	Sololá	701	Sololá	3	Barraneche	6	Junio	2023-06-20T00:00:00	2024-11-06T06:00:00	1	Precipitación	0
32696	7	Sololá	701	Sololá	3	Barraneche	6	Junio	2023-06-20T00:00:00	2024-11-06T06:00:00	8	Radiación solar	6
32697	7	Sololá	701	Sololá	3	Barraneche	6	Junio	2023-06-20T00:00:00	2024-11-06T07:00:00	2	Temperatura media	14.1
32698	7	Sololá	701	Sololá	3	Barraneche	6	Junio	2023-06-20T00:00:00	2024-11-06T07:00:00	4	Temperatura máxima	14.1
32699	7	Sololá	701	Sololá	3	Barraneche	6	Junio	2023-06-20T00:00:00	2024-11-06T07:00:00	3	Temperatura mínima	11.7
32700	7	Sololá	701	Sololá	3	Barraneche	6	Junio	2023-06-20T00:00:00	2024-11-06T07:00:00	5	Humedad	71
32701	7	Sololá	701	Sololá	3	Barraneche	6	Junio	2023-06-20T00:00:00	2024-11-06T07:00:00	6	Velocidad del viento	3.2
32702	7	Sololá	701	Sololá	3	Barraneche	6	Junio	2023-06-20T00:00:00	2024-11-06T07:00:00	7	Dirección del viento	3.22
32703	7	Sololá	701	Sololá	3	Barraneche	6	Junio	2023-06-20T00:00:00	2024-11-06T07:00:00	1	Precipitación	0
32704	7	Sololá	701	Sololá	3	Barraneche	6	Junio	2023-06-20T00:00:00	2024-11-06T07:00:00	8	Radiación solar	105
32705	7	Sololá	701	Sololá	3	Barraneche	6	Junio	2023-06-20T00:00:00	2024-11-06T08:00:00	2	Temperatura media	17.1
32706	7	Sololá	701	Sololá	3	Barraneche	6	Junio	2023-06-20T00:00:00	2024-11-06T08:00:00	4	Temperatura máxima	17.1
32707	7	Sololá	701	Sololá	3	Barraneche	6	Junio	2023-06-20T00:00:00	2024-11-06T08:00:00	3	Temperatura mínima	14.1
32708	7	Sololá	701	Sololá	3	Barraneche	6	Junio	2023-06-20T00:00:00	2024-11-06T08:00:00	5	Humedad	60
32709	7	Sololá	701	Sololá	3	Barraneche	6	Junio	2023-06-20T00:00:00	2024-11-06T08:00:00	6	Velocidad del viento	3.2
32710	7	Sololá	701	Sololá	3	Barraneche	6	Junio	2023-06-20T00:00:00	2024-11-06T08:00:00	7	Dirección del viento	3.22
32711	7	Sololá	701	Sololá	3	Barraneche	6	Junio	2023-06-20T00:00:00	2024-11-06T08:00:00	1	Precipitación	0
32712	7	Sololá	701	Sololá	3	Barraneche	6	Junio	2023-06-20T00:00:00	2024-11-06T08:00:00	8	Radiación solar	371
32713	7	Sololá	701	Sololá	3	Barraneche	6	Junio	2023-06-20T00:00:00	2024-11-06T09:00:00	2	Temperatura media	19.3
32714	7	Sololá	701	Sololá	3	Barraneche	6	Junio	2023-06-20T00:00:00	2024-11-06T09:00:00	4	Temperatura máxima	19.3
32715	7	Sololá	701	Sololá	3	Barraneche	6	Junio	2023-06-20T00:00:00	2024-11-06T09:00:00	3	Temperatura mínima	17.1
32716	7	Sololá	701	Sololá	3	Barraneche	6	Junio	2023-06-20T00:00:00	2024-11-06T09:00:00	5	Humedad	46
32717	7	Sololá	701	Sololá	3	Barraneche	6	Junio	2023-06-20T00:00:00	2024-11-06T09:00:00	6	Velocidad del viento	4.8
32718	7	Sololá	701	Sololá	3	Barraneche	6	Junio	2023-06-20T00:00:00	2024-11-06T09:00:00	7	Dirección del viento	4.83
32719	7	Sololá	701	Sololá	3	Barraneche	6	Junio	2023-06-20T00:00:00	2024-11-06T09:00:00	1	Precipitación	0
32720	7	Sololá	701	Sololá	3	Barraneche	6	Junio	2023-06-20T00:00:00	2024-11-06T09:00:00	8	Radiación solar	603
32721	7	Sololá	701	Sololá	3	Barraneche	6	Junio	2023-06-20T00:00:00	2024-11-06T10:00:00	2	Temperatura media	19.2
32722	7	Sololá	701	Sololá	3	Barraneche	6	Junio	2023-06-20T00:00:00	2024-11-06T10:00:00	4	Temperatura máxima	19.7
32723	7	Sololá	701	Sololá	3	Barraneche	6	Junio	2023-06-20T00:00:00	2024-11-06T10:00:00	3	Temperatura mínima	19.2
32724	7	Sololá	701	Sololá	3	Barraneche	6	Junio	2023-06-20T00:00:00	2024-11-06T10:00:00	5	Humedad	49
32725	7	Sololá	701	Sololá	3	Barraneche	6	Junio	2023-06-20T00:00:00	2024-11-06T10:00:00	6	Velocidad del viento	11.3
32726	7	Sololá	701	Sololá	3	Barraneche	6	Junio	2023-06-20T00:00:00	2024-11-06T10:00:00	7	Dirección del viento	11.27
32727	7	Sololá	701	Sololá	3	Barraneche	6	Junio	2023-06-20T00:00:00	2024-11-06T10:00:00	1	Precipitación	0
32728	7	Sololá	701	Sololá	3	Barraneche	6	Junio	2023-06-20T00:00:00	2024-11-06T10:00:00	8	Radiación solar	792
32729	7	Sololá	701	Sololá	3	Barraneche	6	Junio	2023-06-20T00:00:00	2024-11-06T11:00:00	2	Temperatura media	19.5
32730	7	Sololá	701	Sololá	3	Barraneche	6	Junio	2023-06-20T00:00:00	2024-11-06T11:00:00	4	Temperatura máxima	19.8
32731	7	Sololá	701	Sololá	3	Barraneche	6	Junio	2023-06-20T00:00:00	2024-11-06T11:00:00	3	Temperatura mínima	19.1
32732	7	Sololá	701	Sololá	3	Barraneche	6	Junio	2023-06-20T00:00:00	2024-11-06T11:00:00	5	Humedad	53
32733	7	Sololá	701	Sololá	3	Barraneche	6	Junio	2023-06-20T00:00:00	2024-11-06T11:00:00	6	Velocidad del viento	12.9
32734	7	Sololá	701	Sololá	3	Barraneche	6	Junio	2023-06-20T00:00:00	2024-11-06T11:00:00	7	Dirección del viento	12.87
32735	7	Sololá	701	Sololá	3	Barraneche	6	Junio	2023-06-20T00:00:00	2024-11-06T11:00:00	1	Precipitación	0
32736	7	Sololá	701	Sololá	3	Barraneche	6	Junio	2023-06-20T00:00:00	2024-11-06T11:00:00	8	Radiación solar	936
32737	7	Sololá	701	Sololá	3	Barraneche	6	Junio	2023-06-20T00:00:00	2024-11-06T12:00:00	2	Temperatura media	19.9
32738	7	Sololá	701	Sololá	3	Barraneche	6	Junio	2023-06-20T00:00:00	2024-11-06T12:00:00	4	Temperatura máxima	19.9
32739	7	Sololá	701	Sololá	3	Barraneche	6	Junio	2023-06-20T00:00:00	2024-11-06T12:00:00	3	Temperatura mínima	19.4
32740	7	Sololá	701	Sololá	3	Barraneche	6	Junio	2023-06-20T00:00:00	2024-11-06T12:00:00	5	Humedad	49
32741	7	Sololá	701	Sololá	3	Barraneche	6	Junio	2023-06-20T00:00:00	2024-11-06T12:00:00	6	Velocidad del viento	14.5
32742	7	Sololá	701	Sololá	3	Barraneche	6	Junio	2023-06-20T00:00:00	2024-11-06T12:00:00	7	Dirección del viento	14.48
32743	7	Sololá	701	Sololá	3	Barraneche	6	Junio	2023-06-20T00:00:00	2024-11-06T12:00:00	1	Precipitación	0
32744	7	Sololá	701	Sololá	3	Barraneche	6	Junio	2023-06-20T00:00:00	2024-11-06T12:00:00	8	Radiación solar	1062
32745	7	Sololá	701	Sololá	3	Barraneche	6	Junio	2023-06-20T00:00:00	2024-11-06T13:00:00	2	Temperatura media	19.5
32746	7	Sololá	701	Sololá	3	Barraneche	6	Junio	2023-06-20T00:00:00	2024-11-06T13:00:00	4	Temperatura máxima	20.2
32747	7	Sololá	701	Sololá	3	Barraneche	6	Junio	2023-06-20T00:00:00	2024-11-06T13:00:00	3	Temperatura mínima	19.4
32748	7	Sololá	701	Sololá	3	Barraneche	6	Junio	2023-06-20T00:00:00	2024-11-06T13:00:00	5	Humedad	55
32749	7	Sololá	701	Sololá	3	Barraneche	6	Junio	2023-06-20T00:00:00	2024-11-06T13:00:00	6	Velocidad del viento	12.9
32750	7	Sololá	701	Sololá	3	Barraneche	6	Junio	2023-06-20T00:00:00	2024-11-06T13:00:00	7	Dirección del viento	12.87
32751	7	Sololá	701	Sololá	3	Barraneche	6	Junio	2023-06-20T00:00:00	2024-11-06T13:00:00	1	Precipitación	0
32752	7	Sololá	701	Sololá	3	Barraneche	6	Junio	2023-06-20T00:00:00	2024-11-06T13:00:00	8	Radiación solar	814
32753	7	Sololá	701	Sololá	3	Barraneche	6	Junio	2023-06-20T00:00:00	2024-11-06T14:00:00	2	Temperatura media	19.5
32754	7	Sololá	701	Sololá	3	Barraneche	6	Junio	2023-06-20T00:00:00	2024-11-06T14:00:00	4	Temperatura máxima	20.2
32755	7	Sololá	701	Sololá	3	Barraneche	6	Junio	2023-06-20T00:00:00	2024-11-06T14:00:00	3	Temperatura mínima	19.2
32756	7	Sololá	701	Sololá	3	Barraneche	6	Junio	2023-06-20T00:00:00	2024-11-06T14:00:00	5	Humedad	54
32757	7	Sololá	701	Sololá	3	Barraneche	6	Junio	2023-06-20T00:00:00	2024-11-06T14:00:00	6	Velocidad del viento	11.3
32758	7	Sololá	701	Sololá	3	Barraneche	6	Junio	2023-06-20T00:00:00	2024-11-06T14:00:00	7	Dirección del viento	11.27
32759	7	Sololá	701	Sololá	3	Barraneche	6	Junio	2023-06-20T00:00:00	2024-11-06T14:00:00	1	Precipitación	0
32760	7	Sololá	701	Sololá	3	Barraneche	6	Junio	2023-06-20T00:00:00	2024-11-06T14:00:00	8	Radiación solar	701
32761	7	Sololá	701	Sololá	3	Barraneche	6	Junio	2023-06-20T00:00:00	2024-11-06T15:00:00	2	Temperatura media	19.9
32762	7	Sololá	701	Sololá	3	Barraneche	6	Junio	2023-06-20T00:00:00	2024-11-06T15:00:00	4	Temperatura máxima	20.8
32763	7	Sololá	701	Sololá	3	Barraneche	6	Junio	2023-06-20T00:00:00	2024-11-06T15:00:00	3	Temperatura mínima	19.5
32764	7	Sololá	701	Sololá	3	Barraneche	6	Junio	2023-06-20T00:00:00	2024-11-06T15:00:00	5	Humedad	54
32765	7	Sololá	701	Sololá	3	Barraneche	6	Junio	2023-06-20T00:00:00	2024-11-06T15:00:00	6	Velocidad del viento	11.3
32766	7	Sololá	701	Sololá	3	Barraneche	6	Junio	2023-06-20T00:00:00	2024-11-06T15:00:00	7	Dirección del viento	11.27
32767	7	Sololá	701	Sololá	3	Barraneche	6	Junio	2023-06-20T00:00:00	2024-11-06T15:00:00	1	Precipitación	0
32768	7	Sololá	701	Sololá	3	Barraneche	6	Junio	2023-06-20T00:00:00	2024-11-06T15:00:00	8	Radiación solar	764
32769	7	Sololá	701	Sololá	3	Barraneche	6	Junio	2023-06-20T00:00:00	2024-11-06T16:00:00	2	Temperatura media	19.6
32770	7	Sololá	701	Sololá	3	Barraneche	6	Junio	2023-06-20T00:00:00	2024-11-06T16:00:00	4	Temperatura máxima	20.6
32771	7	Sololá	701	Sololá	3	Barraneche	6	Junio	2023-06-20T00:00:00	2024-11-06T16:00:00	3	Temperatura mínima	19.6
32772	7	Sololá	701	Sololá	3	Barraneche	6	Junio	2023-06-20T00:00:00	2024-11-06T16:00:00	5	Humedad	54
32773	7	Sololá	701	Sololá	3	Barraneche	6	Junio	2023-06-20T00:00:00	2024-11-06T16:00:00	6	Velocidad del viento	12.9
32774	7	Sololá	701	Sololá	3	Barraneche	6	Junio	2023-06-20T00:00:00	2024-11-06T16:00:00	7	Dirección del viento	12.87
32775	7	Sololá	701	Sololá	3	Barraneche	6	Junio	2023-06-20T00:00:00	2024-11-06T16:00:00	1	Precipitación	0
32776	7	Sololá	701	Sololá	3	Barraneche	6	Junio	2023-06-20T00:00:00	2024-11-06T16:00:00	8	Radiación solar	451
32777	7	Sololá	701	Sololá	3	Barraneche	6	Junio	2023-06-20T00:00:00	2024-11-06T17:00:00	2	Temperatura media	18.7
32778	7	Sololá	701	Sololá	3	Barraneche	6	Junio	2023-06-20T00:00:00	2024-11-06T17:00:00	4	Temperatura máxima	19.6
32779	7	Sololá	701	Sololá	3	Barraneche	6	Junio	2023-06-20T00:00:00	2024-11-06T17:00:00	3	Temperatura mínima	18.7
32780	7	Sololá	701	Sololá	3	Barraneche	6	Junio	2023-06-20T00:00:00	2024-11-06T17:00:00	5	Humedad	54
32781	7	Sololá	701	Sololá	3	Barraneche	6	Junio	2023-06-20T00:00:00	2024-11-06T17:00:00	6	Velocidad del viento	11.3
32782	7	Sololá	701	Sololá	3	Barraneche	6	Junio	2023-06-20T00:00:00	2024-11-06T17:00:00	7	Dirección del viento	11.27
32783	7	Sololá	701	Sololá	3	Barraneche	6	Junio	2023-06-20T00:00:00	2024-11-06T17:00:00	1	Precipitación	0
32784	7	Sololá	701	Sololá	3	Barraneche	6	Junio	2023-06-20T00:00:00	2024-11-06T17:00:00	8	Radiación solar	379
32785	7	Sololá	701	Sololá	3	Barraneche	6	Junio	2023-06-20T00:00:00	2024-11-06T18:00:00	2	Temperatura media	18
32786	7	Sololá	701	Sololá	3	Barraneche	6	Junio	2023-06-20T00:00:00	2024-11-06T18:00:00	4	Temperatura máxima	18.9
32787	7	Sololá	701	Sololá	3	Barraneche	6	Junio	2023-06-20T00:00:00	2024-11-06T18:00:00	3	Temperatura mínima	18
32788	7	Sololá	701	Sololá	3	Barraneche	6	Junio	2023-06-20T00:00:00	2024-11-06T18:00:00	5	Humedad	58
32789	7	Sololá	701	Sololá	3	Barraneche	6	Junio	2023-06-20T00:00:00	2024-11-06T18:00:00	6	Velocidad del viento	11.3
32790	7	Sololá	701	Sololá	3	Barraneche	6	Junio	2023-06-20T00:00:00	2024-11-06T18:00:00	7	Dirección del viento	11.27
32791	7	Sololá	701	Sololá	3	Barraneche	6	Junio	2023-06-20T00:00:00	2024-11-06T18:00:00	1	Precipitación	0
32792	7	Sololá	701	Sololá	3	Barraneche	6	Junio	2023-06-20T00:00:00	2024-11-06T18:00:00	8	Radiación solar	246
32793	7	Sololá	701	Sololá	3	Barraneche	6	Junio	2023-06-20T00:00:00	2024-11-06T19:00:00	2	Temperatura media	16.3
32794	7	Sololá	701	Sololá	3	Barraneche	6	Junio	2023-06-20T00:00:00	2024-11-06T19:00:00	4	Temperatura máxima	18
32795	7	Sololá	701	Sololá	3	Barraneche	6	Junio	2023-06-20T00:00:00	2024-11-06T19:00:00	3	Temperatura mínima	16.3
32796	7	Sololá	701	Sololá	3	Barraneche	6	Junio	2023-06-20T00:00:00	2024-11-06T19:00:00	5	Humedad	66
32797	7	Sololá	701	Sololá	3	Barraneche	6	Junio	2023-06-20T00:00:00	2024-11-06T19:00:00	6	Velocidad del viento	11.3
32798	7	Sololá	701	Sololá	3	Barraneche	6	Junio	2023-06-20T00:00:00	2024-11-06T19:00:00	7	Dirección del viento	11.27
32799	7	Sololá	701	Sololá	3	Barraneche	6	Junio	2023-06-20T00:00:00	2024-11-06T19:00:00	1	Precipitación	0
32800	7	Sololá	701	Sololá	3	Barraneche	6	Junio	2023-06-20T00:00:00	2024-11-06T19:00:00	8	Radiación solar	0
32801	7	Sololá	701	Sololá	3	Barraneche	6	Junio	2023-06-20T00:00:00	2024-11-06T20:00:00	2	Temperatura media	14.7
32802	7	Sololá	701	Sololá	3	Barraneche	6	Junio	2023-06-20T00:00:00	2024-11-06T20:00:00	4	Temperatura máxima	16.4
32803	7	Sololá	701	Sololá	3	Barraneche	6	Junio	2023-06-20T00:00:00	2024-11-06T20:00:00	3	Temperatura mínima	14.7
32804	7	Sololá	701	Sololá	3	Barraneche	6	Junio	2023-06-20T00:00:00	2024-11-06T20:00:00	5	Humedad	81
32805	7	Sololá	701	Sololá	3	Barraneche	6	Junio	2023-06-20T00:00:00	2024-11-06T20:00:00	6	Velocidad del viento	4.8
32806	7	Sololá	701	Sololá	3	Barraneche	6	Junio	2023-06-20T00:00:00	2024-11-06T20:00:00	7	Dirección del viento	4.83
32807	7	Sololá	701	Sololá	3	Barraneche	6	Junio	2023-06-20T00:00:00	2024-11-06T20:00:00	1	Precipitación	5.4
32808	7	Sololá	701	Sololá	3	Barraneche	6	Junio	2023-06-20T00:00:00	2024-11-06T20:00:00	8	Radiación solar	0
32809	7	Sololá	701	Sololá	3	Barraneche	6	Junio	2023-06-20T00:00:00	2024-11-06T21:00:00	2	Temperatura media	14.7
32810	7	Sololá	701	Sololá	3	Barraneche	6	Junio	2023-06-20T00:00:00	2024-11-06T21:00:00	4	Temperatura máxima	15.1
32811	7	Sololá	701	Sololá	3	Barraneche	6	Junio	2023-06-20T00:00:00	2024-11-06T21:00:00	3	Temperatura mínima	14.7
32812	7	Sololá	701	Sololá	3	Barraneche	6	Junio	2023-06-20T00:00:00	2024-11-06T21:00:00	5	Humedad	77
32813	7	Sololá	701	Sololá	3	Barraneche	6	Junio	2023-06-20T00:00:00	2024-11-06T21:00:00	6	Velocidad del viento	3.2
32814	7	Sololá	701	Sololá	3	Barraneche	6	Junio	2023-06-20T00:00:00	2024-11-06T21:00:00	7	Dirección del viento	3.22
32815	7	Sololá	701	Sololá	3	Barraneche	6	Junio	2023-06-20T00:00:00	2024-11-06T21:00:00	1	Precipitación	0.2
32816	7	Sololá	701	Sololá	3	Barraneche	6	Junio	2023-06-20T00:00:00	2024-11-06T21:00:00	8	Radiación solar	0
32817	7	Sololá	701	Sololá	3	Barraneche	6	Junio	2023-06-20T00:00:00	2024-11-06T22:00:00	2	Temperatura media	14.9
32818	7	Sololá	701	Sololá	3	Barraneche	6	Junio	2023-06-20T00:00:00	2024-11-06T22:00:00	4	Temperatura máxima	15.2
32819	7	Sololá	701	Sololá	3	Barraneche	6	Junio	2023-06-20T00:00:00	2024-11-06T22:00:00	3	Temperatura mínima	14.7
32820	7	Sololá	701	Sololá	3	Barraneche	6	Junio	2023-06-20T00:00:00	2024-11-06T22:00:00	5	Humedad	74
32821	7	Sololá	701	Sololá	3	Barraneche	6	Junio	2023-06-20T00:00:00	2024-11-06T22:00:00	6	Velocidad del viento	6.4
32822	7	Sololá	701	Sololá	3	Barraneche	6	Junio	2023-06-20T00:00:00	2024-11-06T22:00:00	7	Dirección del viento	6.44
32823	7	Sololá	701	Sololá	3	Barraneche	6	Junio	2023-06-20T00:00:00	2024-11-06T22:00:00	1	Precipitación	0.2
32824	7	Sololá	701	Sololá	3	Barraneche	6	Junio	2023-06-20T00:00:00	2024-11-06T22:00:00	8	Radiación solar	0
32825	7	Sololá	701	Sololá	3	Barraneche	6	Junio	2023-06-20T00:00:00	2024-11-06T23:00:00	2	Temperatura media	14.8
32826	7	Sololá	701	Sololá	3	Barraneche	6	Junio	2023-06-20T00:00:00	2024-11-06T23:00:00	4	Temperatura máxima	15.1
32827	7	Sololá	701	Sololá	3	Barraneche	6	Junio	2023-06-20T00:00:00	2024-11-06T23:00:00	3	Temperatura mínima	14.6
32828	7	Sololá	701	Sololá	3	Barraneche	6	Junio	2023-06-20T00:00:00	2024-11-06T23:00:00	5	Humedad	74
32829	7	Sololá	701	Sololá	3	Barraneche	6	Junio	2023-06-20T00:00:00	2024-11-06T23:00:00	6	Velocidad del viento	9.7
32830	7	Sololá	701	Sololá	3	Barraneche	6	Junio	2023-06-20T00:00:00	2024-11-06T23:00:00	7	Dirección del viento	9.66
32831	7	Sololá	701	Sololá	3	Barraneche	6	Junio	2023-06-20T00:00:00	2024-11-06T23:00:00	1	Precipitación	0
32832	7	Sololá	701	Sololá	3	Barraneche	6	Junio	2023-06-20T00:00:00	2024-11-06T23:00:00	8	Radiación solar	0
32833	7	Sololá	701	Sololá	3	Barraneche	6	Junio	2023-06-21T00:00:00	2024-11-06T00:00:00	2	Temperatura media	13.5
32834	7	Sololá	701	Sololá	3	Barraneche	6	Junio	2023-06-21T00:00:00	2024-11-06T00:00:00	4	Temperatura máxima	14.9
32835	7	Sololá	701	Sololá	3	Barraneche	6	Junio	2023-06-21T00:00:00	2024-11-06T00:00:00	3	Temperatura mínima	13.5
32836	7	Sololá	701	Sololá	3	Barraneche	6	Junio	2023-06-21T00:00:00	2024-11-06T00:00:00	5	Humedad	77
32837	7	Sololá	701	Sololá	3	Barraneche	6	Junio	2023-06-21T00:00:00	2024-11-06T00:00:00	6	Velocidad del viento	4.8
32838	7	Sololá	701	Sololá	3	Barraneche	6	Junio	2023-06-21T00:00:00	2024-11-06T00:00:00	7	Dirección del viento	4.83
32839	7	Sololá	701	Sololá	3	Barraneche	6	Junio	2023-06-21T00:00:00	2024-11-06T00:00:00	1	Precipitación	0
32840	7	Sololá	701	Sololá	3	Barraneche	6	Junio	2023-06-21T00:00:00	2024-11-06T00:00:00	8	Radiación solar	0
32841	7	Sololá	701	Sololá	3	Barraneche	6	Junio	2023-06-21T00:00:00	2024-11-06T01:00:00	2	Temperatura media	13
32842	7	Sololá	701	Sololá	3	Barraneche	6	Junio	2023-06-21T00:00:00	2024-11-06T01:00:00	4	Temperatura máxima	13.5
32843	7	Sololá	701	Sololá	3	Barraneche	6	Junio	2023-06-21T00:00:00	2024-11-06T01:00:00	3	Temperatura mínima	12.9
32844	7	Sololá	701	Sololá	3	Barraneche	6	Junio	2023-06-21T00:00:00	2024-11-06T01:00:00	5	Humedad	80
32845	7	Sololá	701	Sololá	3	Barraneche	6	Junio	2023-06-21T00:00:00	2024-11-06T01:00:00	6	Velocidad del viento	1.6
32846	7	Sololá	701	Sololá	3	Barraneche	6	Junio	2023-06-21T00:00:00	2024-11-06T01:00:00	7	Dirección del viento	1.61
32847	7	Sololá	701	Sololá	3	Barraneche	6	Junio	2023-06-21T00:00:00	2024-11-06T01:00:00	1	Precipitación	0
32848	7	Sololá	701	Sololá	3	Barraneche	6	Junio	2023-06-21T00:00:00	2024-11-06T01:00:00	8	Radiación solar	0
32849	7	Sololá	701	Sololá	3	Barraneche	6	Junio	2023-06-21T00:00:00	2024-11-06T02:00:00	2	Temperatura media	14.3
32850	7	Sololá	701	Sololá	3	Barraneche	6	Junio	2023-06-21T00:00:00	2024-11-06T02:00:00	4	Temperatura máxima	14.3
32851	7	Sololá	701	Sololá	3	Barraneche	6	Junio	2023-06-21T00:00:00	2024-11-06T02:00:00	3	Temperatura mínima	13
32852	7	Sololá	701	Sololá	3	Barraneche	6	Junio	2023-06-21T00:00:00	2024-11-06T02:00:00	5	Humedad	69
32853	7	Sololá	701	Sololá	3	Barraneche	6	Junio	2023-06-21T00:00:00	2024-11-06T02:00:00	6	Velocidad del viento	6.4
32854	7	Sololá	701	Sololá	3	Barraneche	6	Junio	2023-06-21T00:00:00	2024-11-06T02:00:00	7	Dirección del viento	6.44
32855	7	Sololá	701	Sololá	3	Barraneche	6	Junio	2023-06-21T00:00:00	2024-11-06T02:00:00	1	Precipitación	0
32856	7	Sololá	701	Sololá	3	Barraneche	6	Junio	2023-06-21T00:00:00	2024-11-06T02:00:00	8	Radiación solar	0
32857	7	Sololá	701	Sololá	3	Barraneche	6	Junio	2023-06-21T00:00:00	2024-11-06T03:00:00	2	Temperatura media	13.7
32858	7	Sololá	701	Sololá	3	Barraneche	6	Junio	2023-06-21T00:00:00	2024-11-06T03:00:00	4	Temperatura máxima	14.6
32859	7	Sololá	701	Sololá	3	Barraneche	6	Junio	2023-06-21T00:00:00	2024-11-06T03:00:00	3	Temperatura mínima	13.7
32860	7	Sololá	701	Sololá	3	Barraneche	6	Junio	2023-06-21T00:00:00	2024-11-06T03:00:00	5	Humedad	69
32861	7	Sololá	701	Sololá	3	Barraneche	6	Junio	2023-06-21T00:00:00	2024-11-06T03:00:00	6	Velocidad del viento	11.3
32862	7	Sololá	701	Sololá	3	Barraneche	6	Junio	2023-06-21T00:00:00	2024-11-06T03:00:00	7	Dirección del viento	11.27
32863	7	Sololá	701	Sololá	3	Barraneche	6	Junio	2023-06-21T00:00:00	2024-11-06T03:00:00	1	Precipitación	0
32864	7	Sololá	701	Sololá	3	Barraneche	6	Junio	2023-06-21T00:00:00	2024-11-06T03:00:00	8	Radiación solar	0
32865	7	Sololá	701	Sololá	3	Barraneche	6	Junio	2023-06-21T00:00:00	2024-11-06T04:00:00	2	Temperatura media	12.2
32866	7	Sololá	701	Sololá	3	Barraneche	6	Junio	2023-06-21T00:00:00	2024-11-06T04:00:00	4	Temperatura máxima	13.9
32867	7	Sololá	701	Sololá	3	Barraneche	6	Junio	2023-06-21T00:00:00	2024-11-06T04:00:00	3	Temperatura mínima	12.1
32868	7	Sololá	701	Sololá	3	Barraneche	6	Junio	2023-06-21T00:00:00	2024-11-06T04:00:00	5	Humedad	77
32869	7	Sololá	701	Sololá	3	Barraneche	6	Junio	2023-06-21T00:00:00	2024-11-06T04:00:00	6	Velocidad del viento	4.8
32870	7	Sololá	701	Sololá	3	Barraneche	6	Junio	2023-06-21T00:00:00	2024-11-06T04:00:00	7	Dirección del viento	4.83
32871	7	Sololá	701	Sololá	3	Barraneche	6	Junio	2023-06-21T00:00:00	2024-11-06T04:00:00	1	Precipitación	0
32872	7	Sololá	701	Sololá	3	Barraneche	6	Junio	2023-06-21T00:00:00	2024-11-06T04:00:00	8	Radiación solar	0
32873	7	Sololá	701	Sololá	3	Barraneche	6	Junio	2023-06-21T00:00:00	2024-11-06T05:00:00	2	Temperatura media	14.1
32874	7	Sololá	701	Sololá	3	Barraneche	6	Junio	2023-06-21T00:00:00	2024-11-06T05:00:00	4	Temperatura máxima	14.1
32875	7	Sololá	701	Sololá	3	Barraneche	6	Junio	2023-06-21T00:00:00	2024-11-06T05:00:00	3	Temperatura mínima	12.2
32876	7	Sololá	701	Sololá	3	Barraneche	6	Junio	2023-06-21T00:00:00	2024-11-06T05:00:00	5	Humedad	74
32877	7	Sololá	701	Sololá	3	Barraneche	6	Junio	2023-06-21T00:00:00	2024-11-06T05:00:00	6	Velocidad del viento	11.3
32878	7	Sololá	701	Sololá	3	Barraneche	6	Junio	2023-06-21T00:00:00	2024-11-06T05:00:00	7	Dirección del viento	11.27
32879	7	Sololá	701	Sololá	3	Barraneche	6	Junio	2023-06-21T00:00:00	2024-11-06T05:00:00	1	Precipitación	0
32880	7	Sololá	701	Sololá	3	Barraneche	6	Junio	2023-06-21T00:00:00	2024-11-06T05:00:00	8	Radiación solar	0
32881	7	Sololá	701	Sololá	3	Barraneche	6	Junio	2023-06-21T00:00:00	2024-11-06T06:00:00	2	Temperatura media	15.8
32882	7	Sololá	701	Sololá	3	Barraneche	6	Junio	2023-06-21T00:00:00	2024-11-06T06:00:00	4	Temperatura máxima	15.8
32883	7	Sololá	701	Sololá	3	Barraneche	6	Junio	2023-06-21T00:00:00	2024-11-06T06:00:00	3	Temperatura mínima	13.9
32884	7	Sololá	701	Sololá	3	Barraneche	6	Junio	2023-06-21T00:00:00	2024-11-06T06:00:00	5	Humedad	61
32885	7	Sololá	701	Sololá	3	Barraneche	6	Junio	2023-06-21T00:00:00	2024-11-06T06:00:00	6	Velocidad del viento	16.1
32886	7	Sololá	701	Sololá	3	Barraneche	6	Junio	2023-06-21T00:00:00	2024-11-06T06:00:00	7	Dirección del viento	16.09
32887	7	Sololá	701	Sololá	3	Barraneche	6	Junio	2023-06-21T00:00:00	2024-11-06T06:00:00	1	Precipitación	0
32888	7	Sololá	701	Sololá	3	Barraneche	6	Junio	2023-06-21T00:00:00	2024-11-06T06:00:00	8	Radiación solar	4
32889	7	Sololá	701	Sololá	3	Barraneche	6	Junio	2023-06-21T00:00:00	2024-11-06T07:00:00	2	Temperatura media	15.7
32890	7	Sololá	701	Sololá	3	Barraneche	6	Junio	2023-06-21T00:00:00	2024-11-06T07:00:00	4	Temperatura máxima	15.9
32891	7	Sololá	701	Sololá	3	Barraneche	6	Junio	2023-06-21T00:00:00	2024-11-06T07:00:00	3	Temperatura mínima	15.6
32892	7	Sololá	701	Sololá	3	Barraneche	6	Junio	2023-06-21T00:00:00	2024-11-06T07:00:00	5	Humedad	64
32893	7	Sololá	701	Sololá	3	Barraneche	6	Junio	2023-06-21T00:00:00	2024-11-06T07:00:00	6	Velocidad del viento	9.7
32894	7	Sololá	701	Sololá	3	Barraneche	6	Junio	2023-06-21T00:00:00	2024-11-06T07:00:00	7	Dirección del viento	9.66
32895	7	Sololá	701	Sololá	3	Barraneche	6	Junio	2023-06-21T00:00:00	2024-11-06T07:00:00	1	Precipitación	0
32896	7	Sololá	701	Sololá	3	Barraneche	6	Junio	2023-06-21T00:00:00	2024-11-06T07:00:00	8	Radiación solar	82
32897	7	Sololá	701	Sololá	3	Barraneche	6	Junio	2023-06-21T00:00:00	2024-11-06T08:00:00	2	Temperatura media	16.1
32898	7	Sololá	701	Sololá	3	Barraneche	6	Junio	2023-06-21T00:00:00	2024-11-06T08:00:00	4	Temperatura máxima	16.2
32899	7	Sololá	701	Sololá	3	Barraneche	6	Junio	2023-06-21T00:00:00	2024-11-06T08:00:00	3	Temperatura mínima	15.7
32900	7	Sololá	701	Sololá	3	Barraneche	6	Junio	2023-06-21T00:00:00	2024-11-06T08:00:00	5	Humedad	64
32901	7	Sololá	701	Sololá	3	Barraneche	6	Junio	2023-06-21T00:00:00	2024-11-06T08:00:00	6	Velocidad del viento	11.3
32902	7	Sololá	701	Sololá	3	Barraneche	6	Junio	2023-06-21T00:00:00	2024-11-06T08:00:00	7	Dirección del viento	11.27
32903	7	Sololá	701	Sololá	3	Barraneche	6	Junio	2023-06-21T00:00:00	2024-11-06T08:00:00	1	Precipitación	0
32904	7	Sololá	701	Sololá	3	Barraneche	6	Junio	2023-06-21T00:00:00	2024-11-06T08:00:00	8	Radiación solar	364
32905	7	Sololá	701	Sololá	3	Barraneche	6	Junio	2023-06-21T00:00:00	2024-11-06T09:00:00	2	Temperatura media	16.5
32906	7	Sololá	701	Sololá	3	Barraneche	6	Junio	2023-06-21T00:00:00	2024-11-06T09:00:00	4	Temperatura máxima	17.1
32907	7	Sololá	701	Sololá	3	Barraneche	6	Junio	2023-06-21T00:00:00	2024-11-06T09:00:00	3	Temperatura mínima	16.1
32908	7	Sololá	701	Sololá	3	Barraneche	6	Junio	2023-06-21T00:00:00	2024-11-06T09:00:00	5	Humedad	64
32909	7	Sololá	701	Sololá	3	Barraneche	6	Junio	2023-06-21T00:00:00	2024-11-06T09:00:00	6	Velocidad del viento	11.3
32910	7	Sololá	701	Sololá	3	Barraneche	6	Junio	2023-06-21T00:00:00	2024-11-06T09:00:00	7	Dirección del viento	11.27
32911	7	Sololá	701	Sololá	3	Barraneche	6	Junio	2023-06-21T00:00:00	2024-11-06T09:00:00	1	Precipitación	0
32912	7	Sololá	701	Sololá	3	Barraneche	6	Junio	2023-06-21T00:00:00	2024-11-06T09:00:00	8	Radiación solar	473
32913	7	Sololá	701	Sololá	3	Barraneche	6	Junio	2023-06-21T00:00:00	2024-11-06T10:00:00	2	Temperatura media	16.1
32914	7	Sololá	701	Sololá	3	Barraneche	6	Junio	2023-06-21T00:00:00	2024-11-06T10:00:00	4	Temperatura máxima	16.5
32915	7	Sololá	701	Sololá	3	Barraneche	6	Junio	2023-06-21T00:00:00	2024-11-06T10:00:00	3	Temperatura mínima	16
32916	7	Sololá	701	Sololá	3	Barraneche	6	Junio	2023-06-21T00:00:00	2024-11-06T10:00:00	5	Humedad	67
32917	7	Sololá	701	Sololá	3	Barraneche	6	Junio	2023-06-21T00:00:00	2024-11-06T10:00:00	6	Velocidad del viento	6.4
32918	7	Sololá	701	Sololá	3	Barraneche	6	Junio	2023-06-21T00:00:00	2024-11-06T10:00:00	7	Dirección del viento	6.44
32919	7	Sololá	701	Sololá	3	Barraneche	6	Junio	2023-06-21T00:00:00	2024-11-06T10:00:00	1	Precipitación	0
32920	7	Sololá	701	Sololá	3	Barraneche	6	Junio	2023-06-21T00:00:00	2024-11-06T10:00:00	8	Radiación solar	226
32921	7	Sololá	701	Sololá	3	Barraneche	6	Junio	2023-06-21T00:00:00	2024-11-06T11:00:00	2	Temperatura media	15.7
32922	7	Sololá	701	Sololá	3	Barraneche	6	Junio	2023-06-21T00:00:00	2024-11-06T11:00:00	4	Temperatura máxima	17.5
32923	7	Sololá	701	Sololá	3	Barraneche	6	Junio	2023-06-21T00:00:00	2024-11-06T11:00:00	3	Temperatura mínima	15.7
32924	7	Sololá	701	Sololá	3	Barraneche	6	Junio	2023-06-21T00:00:00	2024-11-06T11:00:00	5	Humedad	72
32925	7	Sololá	701	Sololá	3	Barraneche	6	Junio	2023-06-21T00:00:00	2024-11-06T11:00:00	6	Velocidad del viento	11.3
32926	7	Sololá	701	Sololá	3	Barraneche	6	Junio	2023-06-21T00:00:00	2024-11-06T11:00:00	7	Dirección del viento	11.27
32927	7	Sololá	701	Sololá	3	Barraneche	6	Junio	2023-06-21T00:00:00	2024-11-06T11:00:00	1	Precipitación	0
32928	7	Sololá	701	Sololá	3	Barraneche	6	Junio	2023-06-21T00:00:00	2024-11-06T11:00:00	8	Radiación solar	321
32929	7	Sololá	701	Sololá	3	Barraneche	6	Junio	2023-06-21T00:00:00	2024-11-06T12:00:00	2	Temperatura media	15.3
32930	7	Sololá	701	Sololá	3	Barraneche	6	Junio	2023-06-21T00:00:00	2024-11-06T12:00:00	4	Temperatura máxima	15.6
32931	7	Sololá	701	Sololá	3	Barraneche	6	Junio	2023-06-21T00:00:00	2024-11-06T12:00:00	3	Temperatura mínima	15.1
32932	7	Sololá	701	Sololá	3	Barraneche	6	Junio	2023-06-21T00:00:00	2024-11-06T12:00:00	5	Humedad	71
32933	7	Sololá	701	Sololá	3	Barraneche	6	Junio	2023-06-21T00:00:00	2024-11-06T12:00:00	6	Velocidad del viento	9.7
32934	7	Sololá	701	Sololá	3	Barraneche	6	Junio	2023-06-21T00:00:00	2024-11-06T12:00:00	7	Dirección del viento	9.66
32935	7	Sololá	701	Sololá	3	Barraneche	6	Junio	2023-06-21T00:00:00	2024-11-06T12:00:00	1	Precipitación	0
32936	7	Sololá	701	Sololá	3	Barraneche	6	Junio	2023-06-21T00:00:00	2024-11-06T12:00:00	8	Radiación solar	171
32937	7	Sololá	701	Sololá	3	Barraneche	6	Junio	2023-06-21T00:00:00	2024-11-06T13:00:00	2	Temperatura media	17.2
32938	7	Sololá	701	Sololá	3	Barraneche	6	Junio	2023-06-21T00:00:00	2024-11-06T13:00:00	4	Temperatura máxima	17.2
32939	7	Sololá	701	Sololá	3	Barraneche	6	Junio	2023-06-21T00:00:00	2024-11-06T13:00:00	3	Temperatura mínima	15.3
32940	7	Sololá	701	Sololá	3	Barraneche	6	Junio	2023-06-21T00:00:00	2024-11-06T13:00:00	5	Humedad	65
32941	7	Sololá	701	Sololá	3	Barraneche	6	Junio	2023-06-21T00:00:00	2024-11-06T13:00:00	6	Velocidad del viento	3.2
32942	7	Sololá	701	Sololá	3	Barraneche	6	Junio	2023-06-21T00:00:00	2024-11-06T13:00:00	7	Dirección del viento	3.22
32943	7	Sololá	701	Sololá	3	Barraneche	6	Junio	2023-06-21T00:00:00	2024-11-06T13:00:00	1	Precipitación	0
32944	7	Sololá	701	Sololá	3	Barraneche	6	Junio	2023-06-21T00:00:00	2024-11-06T13:00:00	8	Radiación solar	376
32945	7	Sololá	701	Sololá	3	Barraneche	6	Junio	2023-06-21T00:00:00	2024-11-06T14:00:00	2	Temperatura media	15.1
32946	7	Sololá	701	Sololá	3	Barraneche	6	Junio	2023-06-21T00:00:00	2024-11-06T14:00:00	4	Temperatura máxima	18
32947	7	Sololá	701	Sololá	3	Barraneche	6	Junio	2023-06-21T00:00:00	2024-11-06T14:00:00	3	Temperatura mínima	15.1
32948	7	Sololá	701	Sololá	3	Barraneche	6	Junio	2023-06-21T00:00:00	2024-11-06T14:00:00	5	Humedad	87
32949	7	Sololá	701	Sololá	3	Barraneche	6	Junio	2023-06-21T00:00:00	2024-11-06T14:00:00	6	Velocidad del viento	1.6
32950	7	Sololá	701	Sololá	3	Barraneche	6	Junio	2023-06-21T00:00:00	2024-11-06T14:00:00	7	Dirección del viento	1.61
32951	7	Sololá	701	Sololá	3	Barraneche	6	Junio	2023-06-21T00:00:00	2024-11-06T14:00:00	1	Precipitación	0.8
32952	7	Sololá	701	Sololá	3	Barraneche	6	Junio	2023-06-21T00:00:00	2024-11-06T14:00:00	8	Radiación solar	206
32953	7	Sololá	701	Sololá	3	Barraneche	6	Junio	2023-06-21T00:00:00	2024-11-06T15:00:00	2	Temperatura media	16.2
32954	7	Sololá	701	Sololá	3	Barraneche	6	Junio	2023-06-21T00:00:00	2024-11-06T15:00:00	4	Temperatura máxima	17.4
32955	7	Sololá	701	Sololá	3	Barraneche	6	Junio	2023-06-21T00:00:00	2024-11-06T15:00:00	3	Temperatura mínima	16.2
32956	7	Sololá	701	Sololá	3	Barraneche	6	Junio	2023-06-21T00:00:00	2024-11-06T15:00:00	5	Humedad	72
32957	7	Sololá	701	Sololá	3	Barraneche	6	Junio	2023-06-21T00:00:00	2024-11-06T15:00:00	6	Velocidad del viento	6.4
32958	7	Sololá	701	Sololá	3	Barraneche	6	Junio	2023-06-21T00:00:00	2024-11-06T15:00:00	7	Dirección del viento	6.44
32959	7	Sololá	701	Sololá	3	Barraneche	6	Junio	2023-06-21T00:00:00	2024-11-06T15:00:00	1	Precipitación	0
32960	7	Sololá	701	Sololá	3	Barraneche	6	Junio	2023-06-21T00:00:00	2024-11-06T15:00:00	8	Radiación solar	253
32961	7	Sololá	701	Sololá	3	Barraneche	6	Junio	2023-06-21T00:00:00	2024-11-06T16:00:00	2	Temperatura media	15.7
32962	7	Sololá	701	Sololá	3	Barraneche	6	Junio	2023-06-21T00:00:00	2024-11-06T16:00:00	4	Temperatura máxima	16.3
32963	7	Sololá	701	Sololá	3	Barraneche	6	Junio	2023-06-21T00:00:00	2024-11-06T16:00:00	3	Temperatura mínima	15.7
32964	7	Sololá	701	Sololá	3	Barraneche	6	Junio	2023-06-21T00:00:00	2024-11-06T16:00:00	5	Humedad	75
32965	7	Sololá	701	Sololá	3	Barraneche	6	Junio	2023-06-21T00:00:00	2024-11-06T16:00:00	6	Velocidad del viento	8
32966	7	Sololá	701	Sololá	3	Barraneche	6	Junio	2023-06-21T00:00:00	2024-11-06T16:00:00	7	Dirección del viento	8.05
32967	7	Sololá	701	Sololá	3	Barraneche	6	Junio	2023-06-21T00:00:00	2024-11-06T16:00:00	1	Precipitación	0
32968	7	Sololá	701	Sololá	3	Barraneche	6	Junio	2023-06-21T00:00:00	2024-11-06T16:00:00	8	Radiación solar	92
32969	7	Sololá	701	Sololá	3	Barraneche	6	Junio	2023-06-21T00:00:00	2024-11-06T17:00:00	2	Temperatura media	13.8
32970	7	Sololá	701	Sololá	3	Barraneche	6	Junio	2023-06-21T00:00:00	2024-11-06T17:00:00	4	Temperatura máxima	15.7
32971	7	Sololá	701	Sololá	3	Barraneche	6	Junio	2023-06-21T00:00:00	2024-11-06T17:00:00	3	Temperatura mínima	13.8
32972	7	Sololá	701	Sololá	3	Barraneche	6	Junio	2023-06-21T00:00:00	2024-11-06T17:00:00	5	Humedad	78
32973	7	Sololá	701	Sololá	3	Barraneche	6	Junio	2023-06-21T00:00:00	2024-11-06T17:00:00	6	Velocidad del viento	9.7
32974	7	Sololá	701	Sololá	3	Barraneche	6	Junio	2023-06-21T00:00:00	2024-11-06T17:00:00	7	Dirección del viento	9.66
32975	7	Sololá	701	Sololá	3	Barraneche	6	Junio	2023-06-21T00:00:00	2024-11-06T17:00:00	1	Precipitación	0.4
32976	7	Sololá	701	Sololá	3	Barraneche	6	Junio	2023-06-21T00:00:00	2024-11-06T17:00:00	8	Radiación solar	19
32977	7	Sololá	701	Sololá	3	Barraneche	6	Junio	2023-06-21T00:00:00	2024-11-06T18:00:00	2	Temperatura media	13.8
32978	7	Sololá	701	Sololá	3	Barraneche	6	Junio	2023-06-21T00:00:00	2024-11-06T18:00:00	4	Temperatura máxima	13.9
32979	7	Sololá	701	Sololá	3	Barraneche	6	Junio	2023-06-21T00:00:00	2024-11-06T18:00:00	3	Temperatura mínima	13.6
32980	7	Sololá	701	Sololá	3	Barraneche	6	Junio	2023-06-21T00:00:00	2024-11-06T18:00:00	5	Humedad	77
32981	7	Sololá	701	Sololá	3	Barraneche	6	Junio	2023-06-21T00:00:00	2024-11-06T18:00:00	6	Velocidad del viento	3.2
32982	7	Sololá	701	Sololá	3	Barraneche	6	Junio	2023-06-21T00:00:00	2024-11-06T18:00:00	7	Dirección del viento	3.22
32983	7	Sololá	701	Sololá	3	Barraneche	6	Junio	2023-06-21T00:00:00	2024-11-06T18:00:00	1	Precipitación	0.4
32984	7	Sololá	701	Sololá	3	Barraneche	6	Junio	2023-06-21T00:00:00	2024-11-06T18:00:00	8	Radiación solar	14
32985	7	Sololá	701	Sololá	3	Barraneche	6	Junio	2023-06-21T00:00:00	2024-11-06T19:00:00	2	Temperatura media	13.3
32986	7	Sololá	701	Sololá	3	Barraneche	6	Junio	2023-06-21T00:00:00	2024-11-06T19:00:00	4	Temperatura máxima	13.9
32987	7	Sololá	701	Sololá	3	Barraneche	6	Junio	2023-06-21T00:00:00	2024-11-06T19:00:00	3	Temperatura mínima	13.3
32988	7	Sololá	701	Sololá	3	Barraneche	6	Junio	2023-06-21T00:00:00	2024-11-06T19:00:00	5	Humedad	76
32989	7	Sololá	701	Sololá	3	Barraneche	6	Junio	2023-06-21T00:00:00	2024-11-06T19:00:00	6	Velocidad del viento	3.2
32990	7	Sololá	701	Sololá	3	Barraneche	6	Junio	2023-06-21T00:00:00	2024-11-06T19:00:00	7	Dirección del viento	3.22
32991	7	Sololá	701	Sololá	3	Barraneche	6	Junio	2023-06-21T00:00:00	2024-11-06T19:00:00	1	Precipitación	0
32992	7	Sololá	701	Sololá	3	Barraneche	6	Junio	2023-06-21T00:00:00	2024-11-06T19:00:00	8	Radiación solar	0
32993	7	Sololá	701	Sololá	3	Barraneche	6	Junio	2023-06-21T00:00:00	2024-11-06T20:00:00	2	Temperatura media	13.4
32994	7	Sololá	701	Sololá	3	Barraneche	6	Junio	2023-06-21T00:00:00	2024-11-06T20:00:00	4	Temperatura máxima	13.7
32995	7	Sololá	701	Sololá	3	Barraneche	6	Junio	2023-06-21T00:00:00	2024-11-06T20:00:00	3	Temperatura mínima	13.2
32996	7	Sololá	701	Sololá	3	Barraneche	6	Junio	2023-06-21T00:00:00	2024-11-06T20:00:00	5	Humedad	79
32997	7	Sololá	701	Sololá	3	Barraneche	6	Junio	2023-06-21T00:00:00	2024-11-06T20:00:00	6	Velocidad del viento	4.8
32998	7	Sololá	701	Sololá	3	Barraneche	6	Junio	2023-06-21T00:00:00	2024-11-06T20:00:00	7	Dirección del viento	4.83
32999	7	Sololá	701	Sololá	3	Barraneche	6	Junio	2023-06-21T00:00:00	2024-11-06T20:00:00	1	Precipitación	0
33000	7	Sololá	701	Sololá	3	Barraneche	6	Junio	2023-06-21T00:00:00	2024-11-06T20:00:00	8	Radiación solar	0
33001	7	Sololá	701	Sololá	3	Barraneche	6	Junio	2023-06-21T00:00:00	2024-11-06T21:00:00	2	Temperatura media	13.6
33002	7	Sololá	701	Sololá	3	Barraneche	6	Junio	2023-06-21T00:00:00	2024-11-06T21:00:00	4	Temperatura máxima	13.6
33003	7	Sololá	701	Sololá	3	Barraneche	6	Junio	2023-06-21T00:00:00	2024-11-06T21:00:00	3	Temperatura mínima	13.3
33004	7	Sololá	701	Sololá	3	Barraneche	6	Junio	2023-06-21T00:00:00	2024-11-06T21:00:00	5	Humedad	78
33005	7	Sololá	701	Sololá	3	Barraneche	6	Junio	2023-06-21T00:00:00	2024-11-06T21:00:00	6	Velocidad del viento	3.2
33006	7	Sololá	701	Sololá	3	Barraneche	6	Junio	2023-06-21T00:00:00	2024-11-06T21:00:00	7	Dirección del viento	3.22
33007	7	Sololá	701	Sololá	3	Barraneche	6	Junio	2023-06-21T00:00:00	2024-11-06T21:00:00	1	Precipitación	0
33008	7	Sololá	701	Sololá	3	Barraneche	6	Junio	2023-06-21T00:00:00	2024-11-06T21:00:00	8	Radiación solar	0
33009	7	Sololá	701	Sololá	3	Barraneche	6	Junio	2023-06-21T00:00:00	2024-11-06T22:00:00	2	Temperatura media	13.3
33010	7	Sololá	701	Sololá	3	Barraneche	6	Junio	2023-06-21T00:00:00	2024-11-06T22:00:00	4	Temperatura máxima	13.8
33011	7	Sololá	701	Sololá	3	Barraneche	6	Junio	2023-06-21T00:00:00	2024-11-06T22:00:00	3	Temperatura mínima	13.3
33012	7	Sololá	701	Sololá	3	Barraneche	6	Junio	2023-06-21T00:00:00	2024-11-06T22:00:00	5	Humedad	78
33013	7	Sololá	701	Sololá	3	Barraneche	6	Junio	2023-06-21T00:00:00	2024-11-06T22:00:00	6	Velocidad del viento	1.6
33014	7	Sololá	701	Sololá	3	Barraneche	6	Junio	2023-06-21T00:00:00	2024-11-06T22:00:00	7	Dirección del viento	1.61
33015	7	Sololá	701	Sololá	3	Barraneche	6	Junio	2023-06-21T00:00:00	2024-11-06T22:00:00	1	Precipitación	0
33016	7	Sololá	701	Sololá	3	Barraneche	6	Junio	2023-06-21T00:00:00	2024-11-06T22:00:00	8	Radiación solar	0
33017	7	Sololá	701	Sololá	3	Barraneche	6	Junio	2023-06-21T00:00:00	2024-11-06T23:00:00	2	Temperatura media	13
33018	7	Sololá	701	Sololá	3	Barraneche	6	Junio	2023-06-21T00:00:00	2024-11-06T23:00:00	4	Temperatura máxima	13.3
33019	7	Sololá	701	Sololá	3	Barraneche	6	Junio	2023-06-21T00:00:00	2024-11-06T23:00:00	3	Temperatura mínima	12.9
33020	7	Sololá	701	Sololá	3	Barraneche	6	Junio	2023-06-21T00:00:00	2024-11-06T23:00:00	5	Humedad	81
33021	7	Sololá	701	Sololá	3	Barraneche	6	Junio	2023-06-21T00:00:00	2024-11-06T23:00:00	6	Velocidad del viento	3.2
33022	7	Sololá	701	Sololá	3	Barraneche	6	Junio	2023-06-21T00:00:00	2024-11-06T23:00:00	7	Dirección del viento	3.22
33023	7	Sololá	701	Sololá	3	Barraneche	6	Junio	2023-06-21T00:00:00	2024-11-06T23:00:00	1	Precipitación	0
33024	7	Sololá	701	Sololá	3	Barraneche	6	Junio	2023-06-21T00:00:00	2024-11-06T23:00:00	8	Radiación solar	0
33025	7	Sololá	701	Sololá	3	Barraneche	6	Junio	2023-06-22T00:00:00	2024-11-06T00:00:00	2	Temperatura media	13.8
33026	7	Sololá	701	Sololá	3	Barraneche	6	Junio	2023-06-22T00:00:00	2024-11-06T00:00:00	4	Temperatura máxima	13.8
33027	7	Sololá	701	Sololá	3	Barraneche	6	Junio	2023-06-22T00:00:00	2024-11-06T00:00:00	3	Temperatura mínima	12.9
33028	7	Sololá	701	Sololá	3	Barraneche	6	Junio	2023-06-22T00:00:00	2024-11-06T00:00:00	5	Humedad	67
33029	7	Sololá	701	Sololá	3	Barraneche	6	Junio	2023-06-22T00:00:00	2024-11-06T00:00:00	6	Velocidad del viento	3.2
33030	7	Sololá	701	Sololá	3	Barraneche	6	Junio	2023-06-22T00:00:00	2024-11-06T00:00:00	7	Dirección del viento	3.22
33031	7	Sololá	701	Sololá	3	Barraneche	6	Junio	2023-06-22T00:00:00	2024-11-06T00:00:00	1	Precipitación	0
33032	7	Sololá	701	Sololá	3	Barraneche	6	Junio	2023-06-22T00:00:00	2024-11-06T00:00:00	8	Radiación solar	0
33033	7	Sololá	701	Sololá	3	Barraneche	6	Junio	2023-06-22T00:00:00	2024-11-06T01:00:00	2	Temperatura media	12.4
33034	7	Sololá	701	Sololá	3	Barraneche	6	Junio	2023-06-22T00:00:00	2024-11-06T01:00:00	4	Temperatura máxima	14
33035	7	Sololá	701	Sololá	3	Barraneche	6	Junio	2023-06-22T00:00:00	2024-11-06T01:00:00	3	Temperatura mínima	12.4
33036	7	Sololá	701	Sololá	3	Barraneche	6	Junio	2023-06-22T00:00:00	2024-11-06T01:00:00	5	Humedad	76
33037	7	Sololá	701	Sololá	3	Barraneche	6	Junio	2023-06-22T00:00:00	2024-11-06T01:00:00	6	Velocidad del viento	4.8
33038	7	Sololá	701	Sololá	3	Barraneche	6	Junio	2023-06-22T00:00:00	2024-11-06T01:00:00	7	Dirección del viento	4.83
33039	7	Sololá	701	Sololá	3	Barraneche	6	Junio	2023-06-22T00:00:00	2024-11-06T01:00:00	1	Precipitación	2.8
33040	7	Sololá	701	Sololá	3	Barraneche	6	Junio	2023-06-22T00:00:00	2024-11-06T01:00:00	8	Radiación solar	0
33041	7	Sololá	701	Sololá	3	Barraneche	6	Junio	2023-06-22T00:00:00	2024-11-06T02:00:00	2	Temperatura media	11.8
33042	7	Sololá	701	Sololá	3	Barraneche	6	Junio	2023-06-22T00:00:00	2024-11-06T02:00:00	4	Temperatura máxima	12.4
33043	7	Sololá	701	Sololá	3	Barraneche	6	Junio	2023-06-22T00:00:00	2024-11-06T02:00:00	3	Temperatura mínima	11.8
33044	7	Sololá	701	Sololá	3	Barraneche	6	Junio	2023-06-22T00:00:00	2024-11-06T02:00:00	5	Humedad	82
33045	7	Sololá	701	Sololá	3	Barraneche	6	Junio	2023-06-22T00:00:00	2024-11-06T02:00:00	6	Velocidad del viento	1.6
33046	7	Sololá	701	Sololá	3	Barraneche	6	Junio	2023-06-22T00:00:00	2024-11-06T02:00:00	7	Dirección del viento	1.61
33047	7	Sololá	701	Sololá	3	Barraneche	6	Junio	2023-06-22T00:00:00	2024-11-06T02:00:00	1	Precipitación	0.6
33048	7	Sololá	701	Sololá	3	Barraneche	6	Junio	2023-06-22T00:00:00	2024-11-06T02:00:00	8	Radiación solar	0
33049	7	Sololá	701	Sololá	3	Barraneche	6	Junio	2023-06-22T00:00:00	2024-11-06T03:00:00	2	Temperatura media	11.5
33050	7	Sololá	701	Sololá	3	Barraneche	6	Junio	2023-06-22T00:00:00	2024-11-06T03:00:00	4	Temperatura máxima	11.8
33051	7	Sololá	701	Sololá	3	Barraneche	6	Junio	2023-06-22T00:00:00	2024-11-06T03:00:00	3	Temperatura mínima	11.4
33052	7	Sololá	701	Sololá	3	Barraneche	6	Junio	2023-06-22T00:00:00	2024-11-06T03:00:00	5	Humedad	82
33053	7	Sololá	701	Sololá	3	Barraneche	6	Junio	2023-06-22T00:00:00	2024-11-06T03:00:00	6	Velocidad del viento	3.2
33054	7	Sololá	701	Sololá	3	Barraneche	6	Junio	2023-06-22T00:00:00	2024-11-06T03:00:00	7	Dirección del viento	3.22
33055	7	Sololá	701	Sololá	3	Barraneche	6	Junio	2023-06-22T00:00:00	2024-11-06T03:00:00	1	Precipitación	0
33056	7	Sololá	701	Sololá	3	Barraneche	6	Junio	2023-06-22T00:00:00	2024-11-06T03:00:00	8	Radiación solar	0
33057	7	Sololá	701	Sololá	3	Barraneche	6	Junio	2023-06-22T00:00:00	2024-11-06T04:00:00	2	Temperatura media	11.7
33058	7	Sololá	701	Sololá	3	Barraneche	6	Junio	2023-06-22T00:00:00	2024-11-06T04:00:00	4	Temperatura máxima	11.7
33059	7	Sololá	701	Sololá	3	Barraneche	6	Junio	2023-06-22T00:00:00	2024-11-06T04:00:00	3	Temperatura mínima	11.4
33060	7	Sololá	701	Sololá	3	Barraneche	6	Junio	2023-06-22T00:00:00	2024-11-06T04:00:00	5	Humedad	83
33061	7	Sololá	701	Sololá	3	Barraneche	6	Junio	2023-06-22T00:00:00	2024-11-06T04:00:00	6	Velocidad del viento	3.2
33062	7	Sololá	701	Sololá	3	Barraneche	6	Junio	2023-06-22T00:00:00	2024-11-06T04:00:00	7	Dirección del viento	3.22
33063	7	Sololá	701	Sololá	3	Barraneche	6	Junio	2023-06-22T00:00:00	2024-11-06T04:00:00	1	Precipitación	0
33064	7	Sololá	701	Sololá	3	Barraneche	6	Junio	2023-06-22T00:00:00	2024-11-06T04:00:00	8	Radiación solar	0
33065	7	Sololá	701	Sololá	3	Barraneche	6	Junio	2023-06-22T00:00:00	2024-11-06T05:00:00	2	Temperatura media	11.9
33066	7	Sololá	701	Sololá	3	Barraneche	6	Junio	2023-06-22T00:00:00	2024-11-06T05:00:00	4	Temperatura máxima	12
33067	7	Sololá	701	Sololá	3	Barraneche	6	Junio	2023-06-22T00:00:00	2024-11-06T05:00:00	3	Temperatura mínima	11.7
33068	7	Sololá	701	Sololá	3	Barraneche	6	Junio	2023-06-22T00:00:00	2024-11-06T05:00:00	5	Humedad	82
33069	7	Sololá	701	Sololá	3	Barraneche	6	Junio	2023-06-22T00:00:00	2024-11-06T05:00:00	6	Velocidad del viento	3.2
33070	7	Sololá	701	Sololá	3	Barraneche	6	Junio	2023-06-22T00:00:00	2024-11-06T05:00:00	7	Dirección del viento	3.22
33071	7	Sololá	701	Sololá	3	Barraneche	6	Junio	2023-06-22T00:00:00	2024-11-06T05:00:00	1	Precipitación	0
33072	7	Sololá	701	Sololá	3	Barraneche	6	Junio	2023-06-22T00:00:00	2024-11-06T05:00:00	8	Radiación solar	0
33073	7	Sololá	701	Sololá	3	Barraneche	6	Junio	2023-06-22T00:00:00	2024-11-06T06:00:00	2	Temperatura media	12.2
33074	7	Sololá	701	Sololá	3	Barraneche	6	Junio	2023-06-22T00:00:00	2024-11-06T06:00:00	4	Temperatura máxima	12.2
33075	7	Sololá	701	Sololá	3	Barraneche	6	Junio	2023-06-22T00:00:00	2024-11-06T06:00:00	3	Temperatura mínima	11.9
33076	7	Sololá	701	Sololá	3	Barraneche	6	Junio	2023-06-22T00:00:00	2024-11-06T06:00:00	5	Humedad	79
33077	7	Sololá	701	Sololá	3	Barraneche	6	Junio	2023-06-22T00:00:00	2024-11-06T06:00:00	6	Velocidad del viento	4.8
33078	7	Sololá	701	Sololá	3	Barraneche	6	Junio	2023-06-22T00:00:00	2024-11-06T06:00:00	7	Dirección del viento	4.83
33079	7	Sololá	701	Sololá	3	Barraneche	6	Junio	2023-06-22T00:00:00	2024-11-06T06:00:00	1	Precipitación	0
33080	7	Sololá	701	Sololá	3	Barraneche	6	Junio	2023-06-22T00:00:00	2024-11-06T06:00:00	8	Radiación solar	3
33081	7	Sololá	701	Sololá	3	Barraneche	6	Junio	2023-06-22T00:00:00	2024-11-06T07:00:00	2	Temperatura media	13.2
33082	7	Sololá	701	Sololá	3	Barraneche	6	Junio	2023-06-22T00:00:00	2024-11-06T07:00:00	4	Temperatura máxima	13.2
33083	7	Sololá	701	Sololá	3	Barraneche	6	Junio	2023-06-22T00:00:00	2024-11-06T07:00:00	3	Temperatura mínima	12.2
33084	7	Sololá	701	Sololá	3	Barraneche	6	Junio	2023-06-22T00:00:00	2024-11-06T07:00:00	5	Humedad	76
33085	7	Sololá	701	Sololá	3	Barraneche	6	Junio	2023-06-22T00:00:00	2024-11-06T07:00:00	6	Velocidad del viento	3.2
33086	7	Sololá	701	Sololá	3	Barraneche	6	Junio	2023-06-22T00:00:00	2024-11-06T07:00:00	7	Dirección del viento	3.22
33087	7	Sololá	701	Sololá	3	Barraneche	6	Junio	2023-06-22T00:00:00	2024-11-06T07:00:00	1	Precipitación	0
33088	7	Sololá	701	Sololá	3	Barraneche	6	Junio	2023-06-22T00:00:00	2024-11-06T07:00:00	8	Radiación solar	70
33089	7	Sololá	701	Sololá	3	Barraneche	6	Junio	2023-06-22T00:00:00	2024-11-06T08:00:00	2	Temperatura media	14.6
33090	7	Sololá	701	Sololá	3	Barraneche	6	Junio	2023-06-22T00:00:00	2024-11-06T08:00:00	4	Temperatura máxima	14.6
33091	7	Sololá	701	Sololá	3	Barraneche	6	Junio	2023-06-22T00:00:00	2024-11-06T08:00:00	3	Temperatura mínima	13.2
33092	7	Sololá	701	Sololá	3	Barraneche	6	Junio	2023-06-22T00:00:00	2024-11-06T08:00:00	5	Humedad	69
33093	7	Sololá	701	Sololá	3	Barraneche	6	Junio	2023-06-22T00:00:00	2024-11-06T08:00:00	6	Velocidad del viento	1.6
33094	7	Sololá	701	Sololá	3	Barraneche	6	Junio	2023-06-22T00:00:00	2024-11-06T08:00:00	7	Dirección del viento	1.61
33095	7	Sololá	701	Sololá	3	Barraneche	6	Junio	2023-06-22T00:00:00	2024-11-06T08:00:00	1	Precipitación	0
33096	7	Sololá	701	Sololá	3	Barraneche	6	Junio	2023-06-22T00:00:00	2024-11-06T08:00:00	8	Radiación solar	184
33097	7	Sololá	701	Sololá	3	Barraneche	6	Junio	2023-06-22T00:00:00	2024-11-06T09:00:00	2	Temperatura media	16.4
33098	7	Sololá	701	Sololá	3	Barraneche	6	Junio	2023-06-22T00:00:00	2024-11-06T09:00:00	4	Temperatura máxima	16.4
33099	7	Sololá	701	Sololá	3	Barraneche	6	Junio	2023-06-22T00:00:00	2024-11-06T09:00:00	3	Temperatura mínima	14.5
33100	7	Sololá	701	Sololá	3	Barraneche	6	Junio	2023-06-22T00:00:00	2024-11-06T09:00:00	5	Humedad	67
33101	7	Sololá	701	Sololá	3	Barraneche	6	Junio	2023-06-22T00:00:00	2024-11-06T09:00:00	6	Velocidad del viento	3.2
33102	7	Sololá	701	Sololá	3	Barraneche	6	Junio	2023-06-22T00:00:00	2024-11-06T09:00:00	7	Dirección del viento	3.22
33103	7	Sololá	701	Sololá	3	Barraneche	6	Junio	2023-06-22T00:00:00	2024-11-06T09:00:00	1	Precipitación	0
33104	7	Sololá	701	Sololá	3	Barraneche	6	Junio	2023-06-22T00:00:00	2024-11-06T09:00:00	8	Radiación solar	461
33105	7	Sololá	701	Sololá	3	Barraneche	6	Junio	2023-06-22T00:00:00	2024-11-06T10:00:00	2	Temperatura media	16.6
33106	7	Sololá	701	Sololá	3	Barraneche	6	Junio	2023-06-22T00:00:00	2024-11-06T10:00:00	4	Temperatura máxima	17.6
33107	7	Sololá	701	Sololá	3	Barraneche	6	Junio	2023-06-22T00:00:00	2024-11-06T10:00:00	3	Temperatura mínima	16.4
33108	7	Sololá	701	Sololá	3	Barraneche	6	Junio	2023-06-22T00:00:00	2024-11-06T10:00:00	5	Humedad	66
33109	7	Sololá	701	Sololá	3	Barraneche	6	Junio	2023-06-22T00:00:00	2024-11-06T10:00:00	6	Velocidad del viento	9.7
33110	7	Sololá	701	Sololá	3	Barraneche	6	Junio	2023-06-22T00:00:00	2024-11-06T10:00:00	7	Dirección del viento	9.66
33111	7	Sololá	701	Sololá	3	Barraneche	6	Junio	2023-06-22T00:00:00	2024-11-06T10:00:00	1	Precipitación	0
33112	7	Sololá	701	Sololá	3	Barraneche	6	Junio	2023-06-22T00:00:00	2024-11-06T10:00:00	8	Radiación solar	576
33113	7	Sololá	701	Sololá	3	Barraneche	6	Junio	2023-06-22T00:00:00	2024-11-06T11:00:00	2	Temperatura media	15.4
33114	7	Sololá	701	Sololá	3	Barraneche	6	Junio	2023-06-22T00:00:00	2024-11-06T11:00:00	4	Temperatura máxima	17.1
33115	7	Sololá	701	Sololá	3	Barraneche	6	Junio	2023-06-22T00:00:00	2024-11-06T11:00:00	3	Temperatura mínima	15.4
33116	7	Sololá	701	Sololá	3	Barraneche	6	Junio	2023-06-22T00:00:00	2024-11-06T11:00:00	5	Humedad	70
33117	7	Sololá	701	Sololá	3	Barraneche	6	Junio	2023-06-22T00:00:00	2024-11-06T11:00:00	6	Velocidad del viento	9.7
33118	7	Sololá	701	Sololá	3	Barraneche	6	Junio	2023-06-22T00:00:00	2024-11-06T11:00:00	7	Dirección del viento	9.66
33119	7	Sololá	701	Sololá	3	Barraneche	6	Junio	2023-06-22T00:00:00	2024-11-06T11:00:00	1	Precipitación	0
33120	7	Sololá	701	Sololá	3	Barraneche	6	Junio	2023-06-22T00:00:00	2024-11-06T11:00:00	8	Radiación solar	238
33121	7	Sololá	701	Sololá	3	Barraneche	6	Junio	2023-06-22T00:00:00	2024-11-06T12:00:00	2	Temperatura media	14.4
33122	7	Sololá	701	Sololá	3	Barraneche	6	Junio	2023-06-22T00:00:00	2024-11-06T12:00:00	4	Temperatura máxima	15.4
33123	7	Sololá	701	Sololá	3	Barraneche	6	Junio	2023-06-22T00:00:00	2024-11-06T12:00:00	3	Temperatura mínima	14.2
33124	7	Sololá	701	Sololá	3	Barraneche	6	Junio	2023-06-22T00:00:00	2024-11-06T12:00:00	5	Humedad	74
33125	7	Sololá	701	Sololá	3	Barraneche	6	Junio	2023-06-22T00:00:00	2024-11-06T12:00:00	6	Velocidad del viento	3.2
33126	7	Sololá	701	Sololá	3	Barraneche	6	Junio	2023-06-22T00:00:00	2024-11-06T12:00:00	7	Dirección del viento	3.22
33127	7	Sololá	701	Sololá	3	Barraneche	6	Junio	2023-06-22T00:00:00	2024-11-06T12:00:00	1	Precipitación	5.8
33128	7	Sololá	701	Sololá	3	Barraneche	6	Junio	2023-06-22T00:00:00	2024-11-06T12:00:00	8	Radiación solar	95
33129	7	Sololá	701	Sololá	3	Barraneche	6	Junio	2023-06-22T00:00:00	2024-11-06T13:00:00	2	Temperatura media	16.4
33130	7	Sololá	701	Sololá	3	Barraneche	6	Junio	2023-06-22T00:00:00	2024-11-06T13:00:00	4	Temperatura máxima	16.4
33131	7	Sololá	701	Sololá	3	Barraneche	6	Junio	2023-06-22T00:00:00	2024-11-06T13:00:00	3	Temperatura mínima	14.4
33132	7	Sololá	701	Sololá	3	Barraneche	6	Junio	2023-06-22T00:00:00	2024-11-06T13:00:00	5	Humedad	67
33133	7	Sololá	701	Sololá	3	Barraneche	6	Junio	2023-06-22T00:00:00	2024-11-06T13:00:00	6	Velocidad del viento	3.2
33134	7	Sololá	701	Sololá	3	Barraneche	6	Junio	2023-06-22T00:00:00	2024-11-06T13:00:00	7	Dirección del viento	3.22
33135	7	Sololá	701	Sololá	3	Barraneche	6	Junio	2023-06-22T00:00:00	2024-11-06T13:00:00	1	Precipitación	0.8
33136	7	Sololá	701	Sololá	3	Barraneche	6	Junio	2023-06-22T00:00:00	2024-11-06T13:00:00	8	Radiación solar	382
33137	7	Sololá	701	Sololá	3	Barraneche	6	Junio	2023-06-22T00:00:00	2024-11-06T14:00:00	2	Temperatura media	16.5
33138	7	Sololá	701	Sololá	3	Barraneche	6	Junio	2023-06-22T00:00:00	2024-11-06T14:00:00	4	Temperatura máxima	16.7
33139	7	Sololá	701	Sololá	3	Barraneche	6	Junio	2023-06-22T00:00:00	2024-11-06T14:00:00	3	Temperatura mínima	16.3
33140	7	Sololá	701	Sololá	3	Barraneche	6	Junio	2023-06-22T00:00:00	2024-11-06T14:00:00	5	Humedad	69
33141	7	Sololá	701	Sololá	3	Barraneche	6	Junio	2023-06-22T00:00:00	2024-11-06T14:00:00	6	Velocidad del viento	6.4
33142	7	Sololá	701	Sololá	3	Barraneche	6	Junio	2023-06-22T00:00:00	2024-11-06T14:00:00	7	Dirección del viento	6.44
33143	7	Sololá	701	Sololá	3	Barraneche	6	Junio	2023-06-22T00:00:00	2024-11-06T14:00:00	1	Precipitación	0
33144	7	Sololá	701	Sololá	3	Barraneche	6	Junio	2023-06-22T00:00:00	2024-11-06T14:00:00	8	Radiación solar	430
33145	7	Sololá	701	Sololá	3	Barraneche	6	Junio	2023-06-22T00:00:00	2024-11-06T15:00:00	2	Temperatura media	15.7
33146	7	Sololá	701	Sololá	3	Barraneche	6	Junio	2023-06-22T00:00:00	2024-11-06T15:00:00	4	Temperatura máxima	16.5
33147	7	Sololá	701	Sololá	3	Barraneche	6	Junio	2023-06-22T00:00:00	2024-11-06T15:00:00	3	Temperatura mínima	15.6
33148	7	Sololá	701	Sololá	3	Barraneche	6	Junio	2023-06-22T00:00:00	2024-11-06T15:00:00	5	Humedad	73
33149	7	Sololá	701	Sololá	3	Barraneche	6	Junio	2023-06-22T00:00:00	2024-11-06T15:00:00	6	Velocidad del viento	6.4
33150	7	Sololá	701	Sololá	3	Barraneche	6	Junio	2023-06-22T00:00:00	2024-11-06T15:00:00	7	Dirección del viento	6.44
33151	7	Sololá	701	Sololá	3	Barraneche	6	Junio	2023-06-22T00:00:00	2024-11-06T15:00:00	1	Precipitación	0.2
33152	7	Sololá	701	Sololá	3	Barraneche	6	Junio	2023-06-22T00:00:00	2024-11-06T15:00:00	8	Radiación solar	170
33153	7	Sololá	701	Sololá	3	Barraneche	6	Junio	2023-06-22T00:00:00	2024-11-06T16:00:00	2	Temperatura media	15.8
33154	7	Sololá	701	Sololá	3	Barraneche	6	Junio	2023-06-22T00:00:00	2024-11-06T16:00:00	4	Temperatura máxima	15.8
33155	7	Sololá	701	Sololá	3	Barraneche	6	Junio	2023-06-22T00:00:00	2024-11-06T16:00:00	3	Temperatura mínima	15.3
33156	7	Sololá	701	Sololá	3	Barraneche	6	Junio	2023-06-22T00:00:00	2024-11-06T16:00:00	5	Humedad	72
33157	7	Sololá	701	Sololá	3	Barraneche	6	Junio	2023-06-22T00:00:00	2024-11-06T16:00:00	6	Velocidad del viento	3.2
33158	7	Sololá	701	Sololá	3	Barraneche	6	Junio	2023-06-22T00:00:00	2024-11-06T16:00:00	7	Dirección del viento	3.22
33159	7	Sololá	701	Sololá	3	Barraneche	6	Junio	2023-06-22T00:00:00	2024-11-06T16:00:00	1	Precipitación	0
33160	7	Sololá	701	Sololá	3	Barraneche	6	Junio	2023-06-22T00:00:00	2024-11-06T16:00:00	8	Radiación solar	143
33161	7	Sololá	701	Sololá	3	Barraneche	6	Junio	2023-06-22T00:00:00	2024-11-06T17:00:00	2	Temperatura media	14.8
33162	7	Sololá	701	Sololá	3	Barraneche	6	Junio	2023-06-22T00:00:00	2024-11-06T17:00:00	4	Temperatura máxima	15.8
33163	7	Sololá	701	Sololá	3	Barraneche	6	Junio	2023-06-22T00:00:00	2024-11-06T17:00:00	3	Temperatura mínima	14.8
33164	7	Sololá	701	Sololá	3	Barraneche	6	Junio	2023-06-22T00:00:00	2024-11-06T17:00:00	5	Humedad	82
33165	7	Sololá	701	Sololá	3	Barraneche	6	Junio	2023-06-22T00:00:00	2024-11-06T17:00:00	6	Velocidad del viento	4.8
33166	7	Sololá	701	Sololá	3	Barraneche	6	Junio	2023-06-22T00:00:00	2024-11-06T17:00:00	7	Dirección del viento	4.83
33167	7	Sololá	701	Sololá	3	Barraneche	6	Junio	2023-06-22T00:00:00	2024-11-06T17:00:00	1	Precipitación	1.2
33168	7	Sololá	701	Sololá	3	Barraneche	6	Junio	2023-06-22T00:00:00	2024-11-06T17:00:00	8	Radiación solar	53
33169	7	Sololá	701	Sololá	3	Barraneche	6	Junio	2023-06-22T00:00:00	2024-11-06T18:00:00	2	Temperatura media	13.5
33170	7	Sololá	701	Sololá	3	Barraneche	6	Junio	2023-06-22T00:00:00	2024-11-06T18:00:00	4	Temperatura máxima	14.8
33171	7	Sololá	701	Sololá	3	Barraneche	6	Junio	2023-06-22T00:00:00	2024-11-06T18:00:00	3	Temperatura mínima	13.4
33172	7	Sololá	701	Sololá	3	Barraneche	6	Junio	2023-06-22T00:00:00	2024-11-06T18:00:00	5	Humedad	83
33173	7	Sololá	701	Sololá	3	Barraneche	6	Junio	2023-06-22T00:00:00	2024-11-06T18:00:00	6	Velocidad del viento	3.2
33174	7	Sololá	701	Sololá	3	Barraneche	6	Junio	2023-06-22T00:00:00	2024-11-06T18:00:00	7	Dirección del viento	3.22
33175	7	Sololá	701	Sololá	3	Barraneche	6	Junio	2023-06-22T00:00:00	2024-11-06T18:00:00	1	Precipitación	11.4
33176	7	Sololá	701	Sololá	3	Barraneche	6	Junio	2023-06-22T00:00:00	2024-11-06T18:00:00	8	Radiación solar	7
33177	7	Sololá	701	Sololá	3	Barraneche	6	Junio	2023-06-22T00:00:00	2024-11-06T19:00:00	2	Temperatura media	13.2
33178	7	Sololá	701	Sololá	3	Barraneche	6	Junio	2023-06-22T00:00:00	2024-11-06T19:00:00	4	Temperatura máxima	13.6
33179	7	Sololá	701	Sololá	3	Barraneche	6	Junio	2023-06-22T00:00:00	2024-11-06T19:00:00	3	Temperatura mínima	13.2
33180	7	Sololá	701	Sololá	3	Barraneche	6	Junio	2023-06-22T00:00:00	2024-11-06T19:00:00	5	Humedad	83
33181	7	Sololá	701	Sololá	3	Barraneche	6	Junio	2023-06-22T00:00:00	2024-11-06T19:00:00	6	Velocidad del viento	1.6
33182	7	Sololá	701	Sololá	3	Barraneche	6	Junio	2023-06-22T00:00:00	2024-11-06T19:00:00	7	Dirección del viento	1.61
33183	7	Sololá	701	Sololá	3	Barraneche	6	Junio	2023-06-22T00:00:00	2024-11-06T19:00:00	1	Precipitación	2.8
33184	7	Sololá	701	Sololá	3	Barraneche	6	Junio	2023-06-22T00:00:00	2024-11-06T19:00:00	8	Radiación solar	0
33185	7	Sololá	701	Sololá	3	Barraneche	6	Junio	2023-06-22T00:00:00	2024-11-06T20:00:00	2	Temperatura media	13
33186	7	Sololá	701	Sololá	3	Barraneche	6	Junio	2023-06-22T00:00:00	2024-11-06T20:00:00	4	Temperatura máxima	13.2
33187	7	Sololá	701	Sololá	3	Barraneche	6	Junio	2023-06-22T00:00:00	2024-11-06T20:00:00	3	Temperatura mínima	13
33188	7	Sololá	701	Sololá	3	Barraneche	6	Junio	2023-06-22T00:00:00	2024-11-06T20:00:00	5	Humedad	84
33189	7	Sololá	701	Sololá	3	Barraneche	6	Junio	2023-06-22T00:00:00	2024-11-06T20:00:00	6	Velocidad del viento	1.6
33190	7	Sololá	701	Sololá	3	Barraneche	6	Junio	2023-06-22T00:00:00	2024-11-06T20:00:00	7	Dirección del viento	1.61
33191	7	Sololá	701	Sololá	3	Barraneche	6	Junio	2023-06-22T00:00:00	2024-11-06T20:00:00	1	Precipitación	0.4
33192	7	Sololá	701	Sololá	3	Barraneche	6	Junio	2023-06-22T00:00:00	2024-11-06T20:00:00	8	Radiación solar	0
33193	7	Sololá	701	Sololá	3	Barraneche	6	Junio	2023-06-22T00:00:00	2024-11-06T21:00:00	2	Temperatura media	13.1
33194	7	Sololá	701	Sololá	3	Barraneche	6	Junio	2023-06-22T00:00:00	2024-11-06T21:00:00	4	Temperatura máxima	13.1
33195	7	Sololá	701	Sololá	3	Barraneche	6	Junio	2023-06-22T00:00:00	2024-11-06T21:00:00	3	Temperatura mínima	12.9
33196	7	Sololá	701	Sololá	3	Barraneche	6	Junio	2023-06-22T00:00:00	2024-11-06T21:00:00	5	Humedad	84
33197	7	Sololá	701	Sololá	3	Barraneche	6	Junio	2023-06-22T00:00:00	2024-11-06T21:00:00	6	Velocidad del viento	3.2
33198	7	Sololá	701	Sololá	3	Barraneche	6	Junio	2023-06-22T00:00:00	2024-11-06T21:00:00	7	Dirección del viento	3.22
33199	7	Sololá	701	Sololá	3	Barraneche	6	Junio	2023-06-22T00:00:00	2024-11-06T21:00:00	1	Precipitación	0.4
33200	7	Sololá	701	Sololá	3	Barraneche	6	Junio	2023-06-22T00:00:00	2024-11-06T21:00:00	8	Radiación solar	0
33201	7	Sololá	701	Sololá	3	Barraneche	6	Junio	2023-06-22T00:00:00	2024-11-06T22:00:00	2	Temperatura media	13.1
33202	7	Sololá	701	Sololá	3	Barraneche	6	Junio	2023-06-22T00:00:00	2024-11-06T22:00:00	4	Temperatura máxima	13.2
33203	7	Sololá	701	Sololá	3	Barraneche	6	Junio	2023-06-22T00:00:00	2024-11-06T22:00:00	3	Temperatura mínima	13.1
33204	7	Sololá	701	Sololá	3	Barraneche	6	Junio	2023-06-22T00:00:00	2024-11-06T22:00:00	5	Humedad	84
33205	7	Sololá	701	Sololá	3	Barraneche	6	Junio	2023-06-22T00:00:00	2024-11-06T22:00:00	6	Velocidad del viento	0
33206	7	Sololá	701	Sololá	3	Barraneche	6	Junio	2023-06-22T00:00:00	2024-11-06T22:00:00	7	Dirección del viento	0
33207	7	Sololá	701	Sololá	3	Barraneche	6	Junio	2023-06-22T00:00:00	2024-11-06T22:00:00	1	Precipitación	0
33208	7	Sololá	701	Sololá	3	Barraneche	6	Junio	2023-06-22T00:00:00	2024-11-06T22:00:00	8	Radiación solar	0
33209	7	Sololá	701	Sololá	3	Barraneche	6	Junio	2023-06-22T00:00:00	2024-11-06T23:00:00	2	Temperatura media	13.2
33210	7	Sololá	701	Sololá	3	Barraneche	6	Junio	2023-06-22T00:00:00	2024-11-06T23:00:00	4	Temperatura máxima	13.2
33211	7	Sololá	701	Sololá	3	Barraneche	6	Junio	2023-06-22T00:00:00	2024-11-06T23:00:00	3	Temperatura mínima	12.9
33212	7	Sololá	701	Sololá	3	Barraneche	6	Junio	2023-06-22T00:00:00	2024-11-06T23:00:00	5	Humedad	85
33213	7	Sololá	701	Sololá	3	Barraneche	6	Junio	2023-06-22T00:00:00	2024-11-06T23:00:00	6	Velocidad del viento	1.6
33214	7	Sololá	701	Sololá	3	Barraneche	6	Junio	2023-06-22T00:00:00	2024-11-06T23:00:00	7	Dirección del viento	1.61
33215	7	Sololá	701	Sololá	3	Barraneche	6	Junio	2023-06-22T00:00:00	2024-11-06T23:00:00	1	Precipitación	2.4
33216	7	Sololá	701	Sololá	3	Barraneche	6	Junio	2023-06-22T00:00:00	2024-11-06T23:00:00	8	Radiación solar	0
33217	7	Sololá	701	Sololá	3	Barraneche	6	Junio	2023-06-23T00:00:00	2024-11-06T00:00:00	2	Temperatura media	12.9
33218	7	Sololá	701	Sololá	3	Barraneche	6	Junio	2023-06-23T00:00:00	2024-11-06T00:00:00	4	Temperatura máxima	13.2
33219	7	Sololá	701	Sololá	3	Barraneche	6	Junio	2023-06-23T00:00:00	2024-11-06T00:00:00	3	Temperatura mínima	12.8
33220	7	Sololá	701	Sololá	3	Barraneche	6	Junio	2023-06-23T00:00:00	2024-11-06T00:00:00	5	Humedad	85
33221	7	Sololá	701	Sololá	3	Barraneche	6	Junio	2023-06-23T00:00:00	2024-11-06T00:00:00	6	Velocidad del viento	1.6
33222	7	Sololá	701	Sololá	3	Barraneche	6	Junio	2023-06-23T00:00:00	2024-11-06T00:00:00	7	Dirección del viento	1.61
33223	7	Sololá	701	Sololá	3	Barraneche	6	Junio	2023-06-23T00:00:00	2024-11-06T00:00:00	1	Precipitación	9.8
33224	7	Sololá	701	Sololá	3	Barraneche	6	Junio	2023-06-23T00:00:00	2024-11-06T00:00:00	8	Radiación solar	0
33225	7	Sololá	701	Sololá	3	Barraneche	6	Junio	2023-06-23T00:00:00	2024-11-06T01:00:00	2	Temperatura media	12.6
33226	7	Sololá	701	Sololá	3	Barraneche	6	Junio	2023-06-23T00:00:00	2024-11-06T01:00:00	4	Temperatura máxima	12.9
33227	7	Sololá	701	Sololá	3	Barraneche	6	Junio	2023-06-23T00:00:00	2024-11-06T01:00:00	3	Temperatura mínima	12.5
33228	7	Sololá	701	Sololá	3	Barraneche	6	Junio	2023-06-23T00:00:00	2024-11-06T01:00:00	5	Humedad	85
33229	7	Sololá	701	Sololá	3	Barraneche	6	Junio	2023-06-23T00:00:00	2024-11-06T01:00:00	6	Velocidad del viento	1.6
33230	7	Sololá	701	Sololá	3	Barraneche	6	Junio	2023-06-23T00:00:00	2024-11-06T01:00:00	7	Dirección del viento	1.61
33231	7	Sololá	701	Sololá	3	Barraneche	6	Junio	2023-06-23T00:00:00	2024-11-06T01:00:00	1	Precipitación	0
33232	7	Sololá	701	Sololá	3	Barraneche	6	Junio	2023-06-23T00:00:00	2024-11-06T01:00:00	8	Radiación solar	0
33233	7	Sololá	701	Sololá	3	Barraneche	6	Junio	2023-06-23T00:00:00	2024-11-06T02:00:00	2	Temperatura media	12.7
33234	7	Sololá	701	Sololá	3	Barraneche	6	Junio	2023-06-23T00:00:00	2024-11-06T02:00:00	4	Temperatura máxima	12.7
33235	7	Sololá	701	Sololá	3	Barraneche	6	Junio	2023-06-23T00:00:00	2024-11-06T02:00:00	3	Temperatura mínima	12.4
33236	7	Sololá	701	Sololá	3	Barraneche	6	Junio	2023-06-23T00:00:00	2024-11-06T02:00:00	5	Humedad	81
33237	7	Sololá	701	Sololá	3	Barraneche	6	Junio	2023-06-23T00:00:00	2024-11-06T02:00:00	6	Velocidad del viento	4.8
33238	7	Sololá	701	Sololá	3	Barraneche	6	Junio	2023-06-23T00:00:00	2024-11-06T02:00:00	7	Dirección del viento	4.83
33239	7	Sololá	701	Sololá	3	Barraneche	6	Junio	2023-06-23T00:00:00	2024-11-06T02:00:00	1	Precipitación	0
33240	7	Sololá	701	Sololá	3	Barraneche	6	Junio	2023-06-23T00:00:00	2024-11-06T02:00:00	8	Radiación solar	0
33241	7	Sololá	701	Sololá	3	Barraneche	6	Junio	2023-06-23T00:00:00	2024-11-06T03:00:00	2	Temperatura media	12.4
33242	7	Sololá	701	Sololá	3	Barraneche	6	Junio	2023-06-23T00:00:00	2024-11-06T03:00:00	4	Temperatura máxima	12.7
33243	7	Sololá	701	Sololá	3	Barraneche	6	Junio	2023-06-23T00:00:00	2024-11-06T03:00:00	3	Temperatura mínima	12.3
33244	7	Sololá	701	Sololá	3	Barraneche	6	Junio	2023-06-23T00:00:00	2024-11-06T03:00:00	5	Humedad	83
33245	7	Sololá	701	Sololá	3	Barraneche	6	Junio	2023-06-23T00:00:00	2024-11-06T03:00:00	6	Velocidad del viento	3.2
33246	7	Sololá	701	Sololá	3	Barraneche	6	Junio	2023-06-23T00:00:00	2024-11-06T03:00:00	7	Dirección del viento	3.22
33247	7	Sololá	701	Sololá	3	Barraneche	6	Junio	2023-06-23T00:00:00	2024-11-06T03:00:00	1	Precipitación	0.2
33248	7	Sololá	701	Sololá	3	Barraneche	6	Junio	2023-06-23T00:00:00	2024-11-06T03:00:00	8	Radiación solar	0
33249	7	Sololá	701	Sololá	3	Barraneche	6	Junio	2023-06-23T00:00:00	2024-11-06T04:00:00	2	Temperatura media	12.7
33250	7	Sololá	701	Sololá	3	Barraneche	6	Junio	2023-06-23T00:00:00	2024-11-06T04:00:00	4	Temperatura máxima	12.7
33251	7	Sololá	701	Sololá	3	Barraneche	6	Junio	2023-06-23T00:00:00	2024-11-06T04:00:00	3	Temperatura mínima	12.4
33252	7	Sololá	701	Sololá	3	Barraneche	6	Junio	2023-06-23T00:00:00	2024-11-06T04:00:00	5	Humedad	84
33253	7	Sololá	701	Sololá	3	Barraneche	6	Junio	2023-06-23T00:00:00	2024-11-06T04:00:00	6	Velocidad del viento	1.6
33254	7	Sololá	701	Sololá	3	Barraneche	6	Junio	2023-06-23T00:00:00	2024-11-06T04:00:00	7	Dirección del viento	1.61
33255	7	Sololá	701	Sololá	3	Barraneche	6	Junio	2023-06-23T00:00:00	2024-11-06T04:00:00	1	Precipitación	0
33256	7	Sololá	701	Sololá	3	Barraneche	6	Junio	2023-06-23T00:00:00	2024-11-06T04:00:00	8	Radiación solar	0
33257	7	Sololá	701	Sololá	3	Barraneche	6	Junio	2023-06-23T00:00:00	2024-11-06T05:00:00	2	Temperatura media	12.2
33258	7	Sololá	701	Sololá	3	Barraneche	6	Junio	2023-06-23T00:00:00	2024-11-06T05:00:00	4	Temperatura máxima	12.7
33259	7	Sololá	701	Sololá	3	Barraneche	6	Junio	2023-06-23T00:00:00	2024-11-06T05:00:00	3	Temperatura mínima	12.2
33260	7	Sololá	701	Sololá	3	Barraneche	6	Junio	2023-06-23T00:00:00	2024-11-06T05:00:00	5	Humedad	84
33261	7	Sololá	701	Sololá	3	Barraneche	6	Junio	2023-06-23T00:00:00	2024-11-06T05:00:00	6	Velocidad del viento	3.2
33262	7	Sololá	701	Sololá	3	Barraneche	6	Junio	2023-06-23T00:00:00	2024-11-06T05:00:00	7	Dirección del viento	3.22
33263	7	Sololá	701	Sololá	3	Barraneche	6	Junio	2023-06-23T00:00:00	2024-11-06T05:00:00	1	Precipitación	0
33264	7	Sololá	701	Sololá	3	Barraneche	6	Junio	2023-06-23T00:00:00	2024-11-06T05:00:00	8	Radiación solar	0
33265	7	Sololá	701	Sololá	3	Barraneche	6	Junio	2023-06-23T00:00:00	2024-11-06T06:00:00	2	Temperatura media	11.4
33266	7	Sololá	701	Sololá	3	Barraneche	6	Junio	2023-06-23T00:00:00	2024-11-06T06:00:00	4	Temperatura máxima	12.2
33267	7	Sololá	701	Sololá	3	Barraneche	6	Junio	2023-06-23T00:00:00	2024-11-06T06:00:00	3	Temperatura mínima	11.4
33268	7	Sololá	701	Sololá	3	Barraneche	6	Junio	2023-06-23T00:00:00	2024-11-06T06:00:00	5	Humedad	80
33269	7	Sololá	701	Sololá	3	Barraneche	6	Junio	2023-06-23T00:00:00	2024-11-06T06:00:00	6	Velocidad del viento	4.8
33270	7	Sololá	701	Sololá	3	Barraneche	6	Junio	2023-06-23T00:00:00	2024-11-06T06:00:00	7	Dirección del viento	4.83
33271	7	Sololá	701	Sololá	3	Barraneche	6	Junio	2023-06-23T00:00:00	2024-11-06T06:00:00	1	Precipitación	0
33272	7	Sololá	701	Sololá	3	Barraneche	6	Junio	2023-06-23T00:00:00	2024-11-06T06:00:00	8	Radiación solar	4
33273	7	Sololá	701	Sololá	3	Barraneche	6	Junio	2023-06-23T00:00:00	2024-11-06T07:00:00	2	Temperatura media	13.8
33274	7	Sololá	701	Sololá	3	Barraneche	6	Junio	2023-06-23T00:00:00	2024-11-06T07:00:00	4	Temperatura máxima	13.8
33275	7	Sololá	701	Sololá	3	Barraneche	6	Junio	2023-06-23T00:00:00	2024-11-06T07:00:00	3	Temperatura mínima	11.4
33276	7	Sololá	701	Sololá	3	Barraneche	6	Junio	2023-06-23T00:00:00	2024-11-06T07:00:00	5	Humedad	73
33277	7	Sololá	701	Sololá	3	Barraneche	6	Junio	2023-06-23T00:00:00	2024-11-06T07:00:00	6	Velocidad del viento	8
33278	7	Sololá	701	Sololá	3	Barraneche	6	Junio	2023-06-23T00:00:00	2024-11-06T07:00:00	7	Dirección del viento	8.05
33279	7	Sololá	701	Sololá	3	Barraneche	6	Junio	2023-06-23T00:00:00	2024-11-06T07:00:00	1	Precipitación	0
33280	7	Sololá	701	Sololá	3	Barraneche	6	Junio	2023-06-23T00:00:00	2024-11-06T07:00:00	8	Radiación solar	119
33281	7	Sololá	701	Sololá	3	Barraneche	6	Junio	2023-06-23T00:00:00	2024-11-06T08:00:00	2	Temperatura media	16.1
33282	7	Sololá	701	Sololá	3	Barraneche	6	Junio	2023-06-23T00:00:00	2024-11-06T08:00:00	4	Temperatura máxima	16.1
33283	7	Sololá	701	Sololá	3	Barraneche	6	Junio	2023-06-23T00:00:00	2024-11-06T08:00:00	3	Temperatura mínima	13.8
33284	7	Sololá	701	Sololá	3	Barraneche	6	Junio	2023-06-23T00:00:00	2024-11-06T08:00:00	5	Humedad	71
33285	7	Sololá	701	Sololá	3	Barraneche	6	Junio	2023-06-23T00:00:00	2024-11-06T08:00:00	6	Velocidad del viento	4.8
33286	7	Sololá	701	Sololá	3	Barraneche	6	Junio	2023-06-23T00:00:00	2024-11-06T08:00:00	7	Dirección del viento	4.83
33287	7	Sololá	701	Sololá	3	Barraneche	6	Junio	2023-06-23T00:00:00	2024-11-06T08:00:00	1	Precipitación	0
33288	7	Sololá	701	Sololá	3	Barraneche	6	Junio	2023-06-23T00:00:00	2024-11-06T08:00:00	8	Radiación solar	375
33289	7	Sololá	701	Sololá	3	Barraneche	6	Junio	2023-06-23T00:00:00	2024-11-06T09:00:00	2	Temperatura media	17.1
33290	7	Sololá	701	Sololá	3	Barraneche	6	Junio	2023-06-23T00:00:00	2024-11-06T09:00:00	4	Temperatura máxima	17.4
33291	7	Sololá	701	Sololá	3	Barraneche	6	Junio	2023-06-23T00:00:00	2024-11-06T09:00:00	3	Temperatura mínima	16
33292	7	Sololá	701	Sololá	3	Barraneche	6	Junio	2023-06-23T00:00:00	2024-11-06T09:00:00	5	Humedad	68
33293	7	Sololá	701	Sololá	3	Barraneche	6	Junio	2023-06-23T00:00:00	2024-11-06T09:00:00	6	Velocidad del viento	3.2
33294	7	Sololá	701	Sololá	3	Barraneche	6	Junio	2023-06-23T00:00:00	2024-11-06T09:00:00	7	Dirección del viento	3.22
33295	7	Sololá	701	Sololá	3	Barraneche	6	Junio	2023-06-23T00:00:00	2024-11-06T09:00:00	1	Precipitación	0
33296	7	Sololá	701	Sololá	3	Barraneche	6	Junio	2023-06-23T00:00:00	2024-11-06T09:00:00	8	Radiación solar	520
33297	7	Sololá	701	Sololá	3	Barraneche	6	Junio	2023-06-23T00:00:00	2024-11-06T10:00:00	2	Temperatura media	17.6
33298	7	Sololá	701	Sololá	3	Barraneche	6	Junio	2023-06-23T00:00:00	2024-11-06T10:00:00	4	Temperatura máxima	17.7
33299	7	Sololá	701	Sololá	3	Barraneche	6	Junio	2023-06-23T00:00:00	2024-11-06T10:00:00	3	Temperatura mínima	17.1
33300	7	Sololá	701	Sololá	3	Barraneche	6	Junio	2023-06-23T00:00:00	2024-11-06T10:00:00	5	Humedad	72
33301	7	Sololá	701	Sololá	3	Barraneche	6	Junio	2023-06-23T00:00:00	2024-11-06T10:00:00	6	Velocidad del viento	8
33302	7	Sololá	701	Sololá	3	Barraneche	6	Junio	2023-06-23T00:00:00	2024-11-06T10:00:00	7	Dirección del viento	8.05
33303	7	Sololá	701	Sololá	3	Barraneche	6	Junio	2023-06-23T00:00:00	2024-11-06T10:00:00	1	Precipitación	0
33304	7	Sololá	701	Sololá	3	Barraneche	6	Junio	2023-06-23T00:00:00	2024-11-06T10:00:00	8	Radiación solar	659
33305	7	Sololá	701	Sololá	3	Barraneche	6	Junio	2023-06-23T00:00:00	2024-11-06T11:00:00	2	Temperatura media	18.4
33306	7	Sololá	701	Sololá	3	Barraneche	6	Junio	2023-06-23T00:00:00	2024-11-06T11:00:00	4	Temperatura máxima	18.5
33307	7	Sololá	701	Sololá	3	Barraneche	6	Junio	2023-06-23T00:00:00	2024-11-06T11:00:00	3	Temperatura mínima	17.6
33308	7	Sololá	701	Sololá	3	Barraneche	6	Junio	2023-06-23T00:00:00	2024-11-06T11:00:00	5	Humedad	66
33309	7	Sololá	701	Sololá	3	Barraneche	6	Junio	2023-06-23T00:00:00	2024-11-06T11:00:00	6	Velocidad del viento	9.7
33310	7	Sololá	701	Sololá	3	Barraneche	6	Junio	2023-06-23T00:00:00	2024-11-06T11:00:00	7	Dirección del viento	9.66
33311	7	Sololá	701	Sololá	3	Barraneche	6	Junio	2023-06-23T00:00:00	2024-11-06T11:00:00	1	Precipitación	0
33312	7	Sololá	701	Sololá	3	Barraneche	6	Junio	2023-06-23T00:00:00	2024-11-06T11:00:00	8	Radiación solar	659
33313	7	Sololá	701	Sololá	3	Barraneche	6	Junio	2023-06-23T00:00:00	2024-11-06T12:00:00	2	Temperatura media	17.4
33314	7	Sololá	701	Sololá	3	Barraneche	6	Junio	2023-06-23T00:00:00	2024-11-06T12:00:00	4	Temperatura máxima	18.4
33315	7	Sololá	701	Sololá	3	Barraneche	6	Junio	2023-06-23T00:00:00	2024-11-06T12:00:00	3	Temperatura mínima	17.2
33316	7	Sololá	701	Sololá	3	Barraneche	6	Junio	2023-06-23T00:00:00	2024-11-06T12:00:00	5	Humedad	71
33317	7	Sololá	701	Sololá	3	Barraneche	6	Junio	2023-06-23T00:00:00	2024-11-06T12:00:00	6	Velocidad del viento	12.9
33318	7	Sololá	701	Sololá	3	Barraneche	6	Junio	2023-06-23T00:00:00	2024-11-06T12:00:00	7	Dirección del viento	12.87
33319	7	Sololá	701	Sololá	3	Barraneche	6	Junio	2023-06-23T00:00:00	2024-11-06T12:00:00	1	Precipitación	0
33320	7	Sololá	701	Sololá	3	Barraneche	6	Junio	2023-06-23T00:00:00	2024-11-06T12:00:00	8	Radiación solar	996
33321	7	Sololá	701	Sololá	3	Barraneche	6	Junio	2023-06-23T00:00:00	2024-11-06T13:00:00	2	Temperatura media	16.2
33322	7	Sololá	701	Sololá	3	Barraneche	6	Junio	2023-06-23T00:00:00	2024-11-06T13:00:00	4	Temperatura máxima	17.7
33323	7	Sololá	701	Sololá	3	Barraneche	6	Junio	2023-06-23T00:00:00	2024-11-06T13:00:00	3	Temperatura mínima	16.2
33324	7	Sololá	701	Sololá	3	Barraneche	6	Junio	2023-06-23T00:00:00	2024-11-06T13:00:00	5	Humedad	73
33325	7	Sololá	701	Sololá	3	Barraneche	6	Junio	2023-06-23T00:00:00	2024-11-06T13:00:00	6	Velocidad del viento	12.9
33326	7	Sololá	701	Sololá	3	Barraneche	6	Junio	2023-06-23T00:00:00	2024-11-06T13:00:00	7	Dirección del viento	12.87
33327	7	Sololá	701	Sololá	3	Barraneche	6	Junio	2023-06-23T00:00:00	2024-11-06T13:00:00	1	Precipitación	0
33328	7	Sololá	701	Sololá	3	Barraneche	6	Junio	2023-06-23T00:00:00	2024-11-06T13:00:00	8	Radiación solar	681
33329	7	Sololá	701	Sololá	3	Barraneche	6	Junio	2023-06-23T00:00:00	2024-11-06T14:00:00	2	Temperatura media	16.2
33330	7	Sololá	701	Sololá	3	Barraneche	6	Junio	2023-06-23T00:00:00	2024-11-06T14:00:00	4	Temperatura máxima	16.3
33331	7	Sololá	701	Sololá	3	Barraneche	6	Junio	2023-06-23T00:00:00	2024-11-06T14:00:00	3	Temperatura mínima	15.8
33332	7	Sololá	701	Sololá	3	Barraneche	6	Junio	2023-06-23T00:00:00	2024-11-06T14:00:00	5	Humedad	72
33333	7	Sololá	701	Sololá	3	Barraneche	6	Junio	2023-06-23T00:00:00	2024-11-06T14:00:00	6	Velocidad del viento	9.7
33334	7	Sololá	701	Sololá	3	Barraneche	6	Junio	2023-06-23T00:00:00	2024-11-06T14:00:00	7	Dirección del viento	9.66
33335	7	Sololá	701	Sololá	3	Barraneche	6	Junio	2023-06-23T00:00:00	2024-11-06T14:00:00	1	Precipitación	0
33336	7	Sololá	701	Sololá	3	Barraneche	6	Junio	2023-06-23T00:00:00	2024-11-06T14:00:00	8	Radiación solar	336
33337	7	Sololá	701	Sololá	3	Barraneche	6	Junio	2023-06-23T00:00:00	2024-11-06T15:00:00	2	Temperatura media	15.2
33338	7	Sololá	701	Sololá	3	Barraneche	6	Junio	2023-06-23T00:00:00	2024-11-06T15:00:00	4	Temperatura máxima	16.2
33339	7	Sololá	701	Sololá	3	Barraneche	6	Junio	2023-06-23T00:00:00	2024-11-06T15:00:00	3	Temperatura mínima	15.2
33340	7	Sololá	701	Sololá	3	Barraneche	6	Junio	2023-06-23T00:00:00	2024-11-06T15:00:00	5	Humedad	75
33341	7	Sololá	701	Sololá	3	Barraneche	6	Junio	2023-06-23T00:00:00	2024-11-06T15:00:00	6	Velocidad del viento	8
33342	7	Sololá	701	Sololá	3	Barraneche	6	Junio	2023-06-23T00:00:00	2024-11-06T15:00:00	7	Dirección del viento	8.05
33343	7	Sololá	701	Sololá	3	Barraneche	6	Junio	2023-06-23T00:00:00	2024-11-06T15:00:00	1	Precipitación	0
33344	7	Sololá	701	Sololá	3	Barraneche	6	Junio	2023-06-23T00:00:00	2024-11-06T15:00:00	8	Radiación solar	183
33345	7	Sololá	701	Sololá	3	Barraneche	6	Junio	2023-06-23T00:00:00	2024-11-06T16:00:00	2	Temperatura media	14.5
33346	7	Sololá	701	Sololá	3	Barraneche	6	Junio	2023-06-23T00:00:00	2024-11-06T16:00:00	4	Temperatura máxima	15.4
33347	7	Sololá	701	Sololá	3	Barraneche	6	Junio	2023-06-23T00:00:00	2024-11-06T16:00:00	3	Temperatura mínima	14.4
33348	7	Sololá	701	Sololá	3	Barraneche	6	Junio	2023-06-23T00:00:00	2024-11-06T16:00:00	5	Humedad	79
33349	7	Sololá	701	Sololá	3	Barraneche	6	Junio	2023-06-23T00:00:00	2024-11-06T16:00:00	6	Velocidad del viento	4.8
33350	7	Sololá	701	Sololá	3	Barraneche	6	Junio	2023-06-23T00:00:00	2024-11-06T16:00:00	7	Dirección del viento	4.83
33351	7	Sololá	701	Sololá	3	Barraneche	6	Junio	2023-06-23T00:00:00	2024-11-06T16:00:00	1	Precipitación	0.6
33352	7	Sololá	701	Sololá	3	Barraneche	6	Junio	2023-06-23T00:00:00	2024-11-06T16:00:00	8	Radiación solar	75
33353	7	Sololá	701	Sololá	3	Barraneche	6	Junio	2023-06-23T00:00:00	2024-11-06T17:00:00	2	Temperatura media	14.1
33354	7	Sololá	701	Sololá	3	Barraneche	6	Junio	2023-06-23T00:00:00	2024-11-06T17:00:00	4	Temperatura máxima	14.6
33355	7	Sololá	701	Sololá	3	Barraneche	6	Junio	2023-06-23T00:00:00	2024-11-06T17:00:00	3	Temperatura mínima	14.1
33356	7	Sololá	701	Sololá	3	Barraneche	6	Junio	2023-06-23T00:00:00	2024-11-06T17:00:00	5	Humedad	81
33357	7	Sololá	701	Sololá	3	Barraneche	6	Junio	2023-06-23T00:00:00	2024-11-06T17:00:00	6	Velocidad del viento	1.6
33358	7	Sololá	701	Sololá	3	Barraneche	6	Junio	2023-06-23T00:00:00	2024-11-06T17:00:00	7	Dirección del viento	1.61
33359	7	Sololá	701	Sololá	3	Barraneche	6	Junio	2023-06-23T00:00:00	2024-11-06T17:00:00	1	Precipitación	11
33360	7	Sololá	701	Sololá	3	Barraneche	6	Junio	2023-06-23T00:00:00	2024-11-06T17:00:00	8	Radiación solar	7
33361	7	Sololá	701	Sololá	3	Barraneche	6	Junio	2023-06-23T00:00:00	2024-11-06T18:00:00	2	Temperatura media	13.3
33362	7	Sololá	701	Sololá	3	Barraneche	6	Junio	2023-06-23T00:00:00	2024-11-06T18:00:00	4	Temperatura máxima	14.1
33363	7	Sololá	701	Sololá	3	Barraneche	6	Junio	2023-06-23T00:00:00	2024-11-06T18:00:00	3	Temperatura mínima	13.1
33364	7	Sololá	701	Sololá	3	Barraneche	6	Junio	2023-06-23T00:00:00	2024-11-06T18:00:00	5	Humedad	85
33365	7	Sololá	701	Sololá	3	Barraneche	6	Junio	2023-06-23T00:00:00	2024-11-06T18:00:00	6	Velocidad del viento	3.2
33366	7	Sololá	701	Sololá	3	Barraneche	6	Junio	2023-06-23T00:00:00	2024-11-06T18:00:00	7	Dirección del viento	3.22
33367	7	Sololá	701	Sololá	3	Barraneche	6	Junio	2023-06-23T00:00:00	2024-11-06T18:00:00	1	Precipitación	6.8
33368	7	Sololá	701	Sololá	3	Barraneche	6	Junio	2023-06-23T00:00:00	2024-11-06T18:00:00	8	Radiación solar	0
33369	7	Sololá	701	Sololá	3	Barraneche	6	Junio	2023-06-23T00:00:00	2024-11-06T19:00:00	2	Temperatura media	12.7
33370	7	Sololá	701	Sololá	3	Barraneche	6	Junio	2023-06-23T00:00:00	2024-11-06T19:00:00	4	Temperatura máxima	13.3
33371	7	Sololá	701	Sololá	3	Barraneche	6	Junio	2023-06-23T00:00:00	2024-11-06T19:00:00	3	Temperatura mínima	12.6
33372	7	Sololá	701	Sololá	3	Barraneche	6	Junio	2023-06-23T00:00:00	2024-11-06T19:00:00	5	Humedad	84
33373	7	Sololá	701	Sololá	3	Barraneche	6	Junio	2023-06-23T00:00:00	2024-11-06T19:00:00	6	Velocidad del viento	1.6
33374	7	Sololá	701	Sololá	3	Barraneche	6	Junio	2023-06-23T00:00:00	2024-11-06T19:00:00	7	Dirección del viento	1.61
33375	7	Sololá	701	Sololá	3	Barraneche	6	Junio	2023-06-23T00:00:00	2024-11-06T19:00:00	1	Precipitación	1.8
33376	7	Sololá	701	Sololá	3	Barraneche	6	Junio	2023-06-23T00:00:00	2024-11-06T19:00:00	8	Radiación solar	0
33377	7	Sololá	701	Sololá	3	Barraneche	6	Junio	2023-06-23T00:00:00	2024-11-06T20:00:00	2	Temperatura media	12.3
33378	7	Sololá	701	Sololá	3	Barraneche	6	Junio	2023-06-23T00:00:00	2024-11-06T20:00:00	4	Temperatura máxima	12.9
33379	7	Sololá	701	Sololá	3	Barraneche	6	Junio	2023-06-23T00:00:00	2024-11-06T20:00:00	3	Temperatura mínima	12.2
33380	7	Sololá	701	Sololá	3	Barraneche	6	Junio	2023-06-23T00:00:00	2024-11-06T20:00:00	5	Humedad	81
33381	7	Sololá	701	Sololá	3	Barraneche	6	Junio	2023-06-23T00:00:00	2024-11-06T20:00:00	6	Velocidad del viento	4.8
33382	7	Sololá	701	Sololá	3	Barraneche	6	Junio	2023-06-23T00:00:00	2024-11-06T20:00:00	7	Dirección del viento	4.83
33383	7	Sololá	701	Sololá	3	Barraneche	6	Junio	2023-06-23T00:00:00	2024-11-06T20:00:00	1	Precipitación	0.2
33384	7	Sololá	701	Sololá	3	Barraneche	6	Junio	2023-06-23T00:00:00	2024-11-06T20:00:00	8	Radiación solar	0
33385	7	Sololá	701	Sololá	3	Barraneche	6	Junio	2023-06-23T00:00:00	2024-11-06T21:00:00	2	Temperatura media	12.1
33386	7	Sololá	701	Sololá	3	Barraneche	6	Junio	2023-06-23T00:00:00	2024-11-06T21:00:00	4	Temperatura máxima	12.3
33387	7	Sololá	701	Sololá	3	Barraneche	6	Junio	2023-06-23T00:00:00	2024-11-06T21:00:00	3	Temperatura mínima	12.1
33388	7	Sololá	701	Sololá	3	Barraneche	6	Junio	2023-06-23T00:00:00	2024-11-06T21:00:00	5	Humedad	79
33389	7	Sololá	701	Sololá	3	Barraneche	6	Junio	2023-06-23T00:00:00	2024-11-06T21:00:00	6	Velocidad del viento	6.4
33390	7	Sololá	701	Sololá	3	Barraneche	6	Junio	2023-06-23T00:00:00	2024-11-06T21:00:00	7	Dirección del viento	6.44
33391	7	Sololá	701	Sololá	3	Barraneche	6	Junio	2023-06-23T00:00:00	2024-11-06T21:00:00	1	Precipitación	0
33392	7	Sololá	701	Sololá	3	Barraneche	6	Junio	2023-06-23T00:00:00	2024-11-06T21:00:00	8	Radiación solar	0
33393	7	Sololá	701	Sololá	3	Barraneche	6	Junio	2023-06-23T00:00:00	2024-11-06T22:00:00	2	Temperatura media	12.8
33394	7	Sololá	701	Sololá	3	Barraneche	6	Junio	2023-06-23T00:00:00	2024-11-06T22:00:00	4	Temperatura máxima	12.9
33395	7	Sololá	701	Sololá	3	Barraneche	6	Junio	2023-06-23T00:00:00	2024-11-06T22:00:00	3	Temperatura mínima	12
33396	7	Sololá	701	Sololá	3	Barraneche	6	Junio	2023-06-23T00:00:00	2024-11-06T22:00:00	5	Humedad	79
33397	7	Sololá	701	Sololá	3	Barraneche	6	Junio	2023-06-23T00:00:00	2024-11-06T22:00:00	6	Velocidad del viento	6.4
33398	7	Sololá	701	Sololá	3	Barraneche	6	Junio	2023-06-23T00:00:00	2024-11-06T22:00:00	7	Dirección del viento	6.44
33399	7	Sololá	701	Sololá	3	Barraneche	6	Junio	2023-06-23T00:00:00	2024-11-06T22:00:00	1	Precipitación	0
33400	7	Sololá	701	Sololá	3	Barraneche	6	Junio	2023-06-23T00:00:00	2024-11-06T22:00:00	8	Radiación solar	0
33401	7	Sololá	701	Sololá	3	Barraneche	6	Junio	2023-06-23T00:00:00	2024-11-06T23:00:00	2	Temperatura media	13.1
33402	7	Sololá	701	Sololá	3	Barraneche	6	Junio	2023-06-23T00:00:00	2024-11-06T23:00:00	4	Temperatura máxima	13.1
33403	7	Sololá	701	Sololá	3	Barraneche	6	Junio	2023-06-23T00:00:00	2024-11-06T23:00:00	3	Temperatura mínima	12.8
33404	7	Sololá	701	Sololá	3	Barraneche	6	Junio	2023-06-23T00:00:00	2024-11-06T23:00:00	5	Humedad	80
33405	7	Sololá	701	Sololá	3	Barraneche	6	Junio	2023-06-23T00:00:00	2024-11-06T23:00:00	6	Velocidad del viento	3.2
33406	7	Sololá	701	Sololá	3	Barraneche	6	Junio	2023-06-23T00:00:00	2024-11-06T23:00:00	7	Dirección del viento	3.22
33407	7	Sololá	701	Sololá	3	Barraneche	6	Junio	2023-06-23T00:00:00	2024-11-06T23:00:00	1	Precipitación	0
33408	7	Sololá	701	Sololá	3	Barraneche	6	Junio	2023-06-23T00:00:00	2024-11-06T23:00:00	8	Radiación solar	0
33409	7	Sololá	701	Sololá	3	Barraneche	6	Junio	2023-06-24T00:00:00	2024-11-06T00:00:00	2	Temperatura media	12.9
33410	7	Sololá	701	Sololá	3	Barraneche	6	Junio	2023-06-24T00:00:00	2024-11-06T00:00:00	4	Temperatura máxima	13.1
33411	7	Sololá	701	Sololá	3	Barraneche	6	Junio	2023-06-24T00:00:00	2024-11-06T00:00:00	3	Temperatura mínima	12.8
33412	7	Sololá	701	Sololá	3	Barraneche	6	Junio	2023-06-24T00:00:00	2024-11-06T00:00:00	5	Humedad	83
33413	7	Sololá	701	Sololá	3	Barraneche	6	Junio	2023-06-24T00:00:00	2024-11-06T00:00:00	6	Velocidad del viento	3.2
33414	7	Sololá	701	Sololá	3	Barraneche	6	Junio	2023-06-24T00:00:00	2024-11-06T00:00:00	7	Dirección del viento	3.22
33415	7	Sololá	701	Sololá	3	Barraneche	6	Junio	2023-06-24T00:00:00	2024-11-06T00:00:00	1	Precipitación	0
33416	7	Sololá	701	Sololá	3	Barraneche	6	Junio	2023-06-24T00:00:00	2024-11-06T00:00:00	8	Radiación solar	0
33417	7	Sololá	701	Sololá	3	Barraneche	6	Junio	2023-06-24T00:00:00	2024-11-06T01:00:00	2	Temperatura media	12.7
33418	7	Sololá	701	Sololá	3	Barraneche	6	Junio	2023-06-24T00:00:00	2024-11-06T01:00:00	4	Temperatura máxima	13.1
33419	7	Sololá	701	Sololá	3	Barraneche	6	Junio	2023-06-24T00:00:00	2024-11-06T01:00:00	3	Temperatura mínima	12.6
33420	7	Sololá	701	Sololá	3	Barraneche	6	Junio	2023-06-24T00:00:00	2024-11-06T01:00:00	5	Humedad	81
33421	7	Sololá	701	Sololá	3	Barraneche	6	Junio	2023-06-24T00:00:00	2024-11-06T01:00:00	6	Velocidad del viento	4.8
33422	7	Sololá	701	Sololá	3	Barraneche	6	Junio	2023-06-24T00:00:00	2024-11-06T01:00:00	7	Dirección del viento	4.83
33423	7	Sololá	701	Sololá	3	Barraneche	6	Junio	2023-06-24T00:00:00	2024-11-06T01:00:00	1	Precipitación	0
33424	7	Sololá	701	Sololá	3	Barraneche	6	Junio	2023-06-24T00:00:00	2024-11-06T01:00:00	8	Radiación solar	0
33425	7	Sololá	701	Sololá	3	Barraneche	6	Junio	2023-06-24T00:00:00	2024-11-06T02:00:00	2	Temperatura media	12.1
33426	7	Sololá	701	Sololá	3	Barraneche	6	Junio	2023-06-24T00:00:00	2024-11-06T02:00:00	4	Temperatura máxima	12.7
33427	7	Sololá	701	Sololá	3	Barraneche	6	Junio	2023-06-24T00:00:00	2024-11-06T02:00:00	3	Temperatura mínima	12.1
33428	7	Sololá	701	Sololá	3	Barraneche	6	Junio	2023-06-24T00:00:00	2024-11-06T02:00:00	5	Humedad	79
33429	7	Sololá	701	Sololá	3	Barraneche	6	Junio	2023-06-24T00:00:00	2024-11-06T02:00:00	6	Velocidad del viento	3.2
33430	7	Sololá	701	Sololá	3	Barraneche	6	Junio	2023-06-24T00:00:00	2024-11-06T02:00:00	7	Dirección del viento	3.22
33431	7	Sololá	701	Sololá	3	Barraneche	6	Junio	2023-06-24T00:00:00	2024-11-06T02:00:00	1	Precipitación	0
33432	7	Sololá	701	Sololá	3	Barraneche	6	Junio	2023-06-24T00:00:00	2024-11-06T02:00:00	8	Radiación solar	0
33433	7	Sololá	701	Sololá	3	Barraneche	6	Junio	2023-06-24T00:00:00	2024-11-06T03:00:00	2	Temperatura media	11.7
33434	7	Sololá	701	Sololá	3	Barraneche	6	Junio	2023-06-24T00:00:00	2024-11-06T03:00:00	4	Temperatura máxima	12
33435	7	Sololá	701	Sololá	3	Barraneche	6	Junio	2023-06-24T00:00:00	2024-11-06T03:00:00	3	Temperatura mínima	11.7
33436	7	Sololá	701	Sololá	3	Barraneche	6	Junio	2023-06-24T00:00:00	2024-11-06T03:00:00	5	Humedad	78
33437	7	Sololá	701	Sololá	3	Barraneche	6	Junio	2023-06-24T00:00:00	2024-11-06T03:00:00	6	Velocidad del viento	6.4
33438	7	Sololá	701	Sololá	3	Barraneche	6	Junio	2023-06-24T00:00:00	2024-11-06T03:00:00	7	Dirección del viento	6.44
33439	7	Sololá	701	Sololá	3	Barraneche	6	Junio	2023-06-24T00:00:00	2024-11-06T03:00:00	1	Precipitación	0
33440	7	Sololá	701	Sololá	3	Barraneche	6	Junio	2023-06-24T00:00:00	2024-11-06T03:00:00	8	Radiación solar	0
33441	7	Sololá	701	Sololá	3	Barraneche	6	Junio	2023-06-24T00:00:00	2024-11-06T04:00:00	2	Temperatura media	11.6
33442	7	Sololá	701	Sololá	3	Barraneche	6	Junio	2023-06-24T00:00:00	2024-11-06T04:00:00	4	Temperatura máxima	11.7
33443	7	Sololá	701	Sololá	3	Barraneche	6	Junio	2023-06-24T00:00:00	2024-11-06T04:00:00	3	Temperatura mínima	11.3
33444	7	Sololá	701	Sololá	3	Barraneche	6	Junio	2023-06-24T00:00:00	2024-11-06T04:00:00	5	Humedad	82
33445	7	Sololá	701	Sololá	3	Barraneche	6	Junio	2023-06-24T00:00:00	2024-11-06T04:00:00	6	Velocidad del viento	1.6
33446	7	Sololá	701	Sololá	3	Barraneche	6	Junio	2023-06-24T00:00:00	2024-11-06T04:00:00	7	Dirección del viento	1.61
33447	7	Sololá	701	Sololá	3	Barraneche	6	Junio	2023-06-24T00:00:00	2024-11-06T04:00:00	1	Precipitación	0
33448	7	Sololá	701	Sololá	3	Barraneche	6	Junio	2023-06-24T00:00:00	2024-11-06T04:00:00	8	Radiación solar	0
33449	7	Sololá	701	Sololá	3	Barraneche	6	Junio	2023-06-24T00:00:00	2024-11-06T05:00:00	2	Temperatura media	11.7
33450	7	Sololá	701	Sololá	3	Barraneche	6	Junio	2023-06-24T00:00:00	2024-11-06T05:00:00	4	Temperatura máxima	11.7
33451	7	Sololá	701	Sololá	3	Barraneche	6	Junio	2023-06-24T00:00:00	2024-11-06T05:00:00	3	Temperatura mínima	11.6
33452	7	Sololá	701	Sololá	3	Barraneche	6	Junio	2023-06-24T00:00:00	2024-11-06T05:00:00	5	Humedad	79
33453	7	Sololá	701	Sololá	3	Barraneche	6	Junio	2023-06-24T00:00:00	2024-11-06T05:00:00	6	Velocidad del viento	4.8
33454	7	Sololá	701	Sololá	3	Barraneche	6	Junio	2023-06-24T00:00:00	2024-11-06T05:00:00	7	Dirección del viento	4.83
33455	7	Sololá	701	Sololá	3	Barraneche	6	Junio	2023-06-24T00:00:00	2024-11-06T05:00:00	1	Precipitación	0
33456	7	Sololá	701	Sololá	3	Barraneche	6	Junio	2023-06-24T00:00:00	2024-11-06T05:00:00	8	Radiación solar	0
33457	7	Sololá	701	Sololá	3	Barraneche	6	Junio	2023-06-24T00:00:00	2024-11-06T06:00:00	2	Temperatura media	11.4
33458	7	Sololá	701	Sololá	3	Barraneche	6	Junio	2023-06-24T00:00:00	2024-11-06T06:00:00	4	Temperatura máxima	11.7
33459	7	Sololá	701	Sololá	3	Barraneche	6	Junio	2023-06-24T00:00:00	2024-11-06T06:00:00	3	Temperatura mínima	11.1
33460	7	Sololá	701	Sololá	3	Barraneche	6	Junio	2023-06-24T00:00:00	2024-11-06T06:00:00	5	Humedad	78
33461	7	Sololá	701	Sololá	3	Barraneche	6	Junio	2023-06-24T00:00:00	2024-11-06T06:00:00	6	Velocidad del viento	4.8
33462	7	Sololá	701	Sololá	3	Barraneche	6	Junio	2023-06-24T00:00:00	2024-11-06T06:00:00	7	Dirección del viento	4.83
33463	7	Sololá	701	Sololá	3	Barraneche	6	Junio	2023-06-24T00:00:00	2024-11-06T06:00:00	1	Precipitación	0
33464	7	Sololá	701	Sololá	3	Barraneche	6	Junio	2023-06-24T00:00:00	2024-11-06T06:00:00	8	Radiación solar	5
33465	7	Sololá	701	Sololá	3	Barraneche	6	Junio	2023-06-24T00:00:00	2024-11-06T07:00:00	2	Temperatura media	12.2
33466	7	Sololá	701	Sololá	3	Barraneche	6	Junio	2023-06-24T00:00:00	2024-11-06T07:00:00	4	Temperatura máxima	12.2
33467	7	Sololá	701	Sololá	3	Barraneche	6	Junio	2023-06-24T00:00:00	2024-11-06T07:00:00	3	Temperatura mínima	11.3
33468	7	Sololá	701	Sololá	3	Barraneche	6	Junio	2023-06-24T00:00:00	2024-11-06T07:00:00	5	Humedad	79
33469	7	Sololá	701	Sololá	3	Barraneche	6	Junio	2023-06-24T00:00:00	2024-11-06T07:00:00	6	Velocidad del viento	3.2
33470	7	Sololá	701	Sololá	3	Barraneche	6	Junio	2023-06-24T00:00:00	2024-11-06T07:00:00	7	Dirección del viento	3.22
33471	7	Sololá	701	Sololá	3	Barraneche	6	Junio	2023-06-24T00:00:00	2024-11-06T07:00:00	1	Precipitación	0
33472	7	Sololá	701	Sololá	3	Barraneche	6	Junio	2023-06-24T00:00:00	2024-11-06T07:00:00	8	Radiación solar	61
33473	7	Sololá	701	Sololá	3	Barraneche	6	Junio	2023-06-24T00:00:00	2024-11-06T08:00:00	2	Temperatura media	13.9
33474	7	Sololá	701	Sololá	3	Barraneche	6	Junio	2023-06-24T00:00:00	2024-11-06T08:00:00	4	Temperatura máxima	13.9
33475	7	Sololá	701	Sololá	3	Barraneche	6	Junio	2023-06-24T00:00:00	2024-11-06T08:00:00	3	Temperatura mínima	12.2
33476	7	Sololá	701	Sololá	3	Barraneche	6	Junio	2023-06-24T00:00:00	2024-11-06T08:00:00	5	Humedad	77
33477	7	Sololá	701	Sololá	3	Barraneche	6	Junio	2023-06-24T00:00:00	2024-11-06T08:00:00	6	Velocidad del viento	1.6
33478	7	Sololá	701	Sololá	3	Barraneche	6	Junio	2023-06-24T00:00:00	2024-11-06T08:00:00	7	Dirección del viento	1.61
33479	7	Sololá	701	Sololá	3	Barraneche	6	Junio	2023-06-24T00:00:00	2024-11-06T08:00:00	1	Precipitación	0
33480	7	Sololá	701	Sololá	3	Barraneche	6	Junio	2023-06-24T00:00:00	2024-11-06T08:00:00	8	Radiación solar	172
33481	7	Sololá	701	Sololá	3	Barraneche	6	Junio	2023-06-24T00:00:00	2024-11-06T09:00:00	2	Temperatura media	15.4
33482	7	Sololá	701	Sololá	3	Barraneche	6	Junio	2023-06-24T00:00:00	2024-11-06T09:00:00	4	Temperatura máxima	15.4
33483	7	Sololá	701	Sololá	3	Barraneche	6	Junio	2023-06-24T00:00:00	2024-11-06T09:00:00	3	Temperatura mínima	13.9
33484	7	Sololá	701	Sololá	3	Barraneche	6	Junio	2023-06-24T00:00:00	2024-11-06T09:00:00	5	Humedad	73
33485	7	Sololá	701	Sololá	3	Barraneche	6	Junio	2023-06-24T00:00:00	2024-11-06T09:00:00	6	Velocidad del viento	1.6
33486	7	Sololá	701	Sololá	3	Barraneche	6	Junio	2023-06-24T00:00:00	2024-11-06T09:00:00	7	Dirección del viento	1.61
33487	7	Sololá	701	Sololá	3	Barraneche	6	Junio	2023-06-24T00:00:00	2024-11-06T09:00:00	1	Precipitación	0
33488	7	Sololá	701	Sololá	3	Barraneche	6	Junio	2023-06-24T00:00:00	2024-11-06T09:00:00	8	Radiación solar	296
33489	7	Sololá	701	Sololá	3	Barraneche	6	Junio	2023-06-24T00:00:00	2024-11-06T10:00:00	2	Temperatura media	17.4
33490	7	Sololá	701	Sololá	3	Barraneche	6	Junio	2023-06-24T00:00:00	2024-11-06T10:00:00	4	Temperatura máxima	17.4
33491	7	Sololá	701	Sololá	3	Barraneche	6	Junio	2023-06-24T00:00:00	2024-11-06T10:00:00	3	Temperatura mínima	15.4
33492	7	Sololá	701	Sololá	3	Barraneche	6	Junio	2023-06-24T00:00:00	2024-11-06T10:00:00	5	Humedad	64
33493	7	Sololá	701	Sololá	3	Barraneche	6	Junio	2023-06-24T00:00:00	2024-11-06T10:00:00	6	Velocidad del viento	6.4
33494	7	Sololá	701	Sololá	3	Barraneche	6	Junio	2023-06-24T00:00:00	2024-11-06T10:00:00	7	Dirección del viento	6.44
33495	7	Sololá	701	Sololá	3	Barraneche	6	Junio	2023-06-24T00:00:00	2024-11-06T10:00:00	1	Precipitación	0
33496	7	Sololá	701	Sololá	3	Barraneche	6	Junio	2023-06-24T00:00:00	2024-11-06T10:00:00	8	Radiación solar	394
33497	7	Sololá	701	Sololá	3	Barraneche	6	Junio	2023-06-24T00:00:00	2024-11-06T11:00:00	2	Temperatura media	16.4
33498	7	Sololá	701	Sololá	3	Barraneche	6	Junio	2023-06-24T00:00:00	2024-11-06T11:00:00	4	Temperatura máxima	17.7
33499	7	Sololá	701	Sololá	3	Barraneche	6	Junio	2023-06-24T00:00:00	2024-11-06T11:00:00	3	Temperatura mínima	16.4
33500	7	Sololá	701	Sololá	3	Barraneche	6	Junio	2023-06-24T00:00:00	2024-11-06T11:00:00	5	Humedad	73
33501	7	Sololá	701	Sololá	3	Barraneche	6	Junio	2023-06-24T00:00:00	2024-11-06T11:00:00	6	Velocidad del viento	9.7
33502	7	Sololá	701	Sololá	3	Barraneche	6	Junio	2023-06-24T00:00:00	2024-11-06T11:00:00	7	Dirección del viento	9.66
33503	7	Sololá	701	Sololá	3	Barraneche	6	Junio	2023-06-24T00:00:00	2024-11-06T11:00:00	1	Precipitación	0
33504	7	Sololá	701	Sololá	3	Barraneche	6	Junio	2023-06-24T00:00:00	2024-11-06T11:00:00	8	Radiación solar	374
33505	7	Sololá	701	Sololá	3	Barraneche	6	Junio	2023-06-24T00:00:00	2024-11-06T12:00:00	2	Temperatura media	15.8
33506	7	Sololá	701	Sololá	3	Barraneche	6	Junio	2023-06-24T00:00:00	2024-11-06T12:00:00	4	Temperatura máxima	16.4
33507	7	Sololá	701	Sololá	3	Barraneche	6	Junio	2023-06-24T00:00:00	2024-11-06T12:00:00	3	Temperatura mínima	15.4
33508	7	Sololá	701	Sololá	3	Barraneche	6	Junio	2023-06-24T00:00:00	2024-11-06T12:00:00	5	Humedad	74
33509	7	Sololá	701	Sololá	3	Barraneche	6	Junio	2023-06-24T00:00:00	2024-11-06T12:00:00	6	Velocidad del viento	4.8
33510	7	Sololá	701	Sololá	3	Barraneche	6	Junio	2023-06-24T00:00:00	2024-11-06T12:00:00	7	Dirección del viento	4.83
33511	7	Sololá	701	Sololá	3	Barraneche	6	Junio	2023-06-24T00:00:00	2024-11-06T12:00:00	1	Precipitación	0
33512	7	Sololá	701	Sololá	3	Barraneche	6	Junio	2023-06-24T00:00:00	2024-11-06T12:00:00	8	Radiación solar	74
33513	7	Sololá	701	Sololá	3	Barraneche	6	Junio	2023-06-24T00:00:00	2024-11-06T13:00:00	2	Temperatura media	16.8
33514	7	Sololá	701	Sololá	3	Barraneche	6	Junio	2023-06-24T00:00:00	2024-11-06T13:00:00	4	Temperatura máxima	16.9
33515	7	Sololá	701	Sololá	3	Barraneche	6	Junio	2023-06-24T00:00:00	2024-11-06T13:00:00	3	Temperatura mínima	15.7
33516	7	Sololá	701	Sololá	3	Barraneche	6	Junio	2023-06-24T00:00:00	2024-11-06T13:00:00	5	Humedad	69
33517	7	Sololá	701	Sololá	3	Barraneche	6	Junio	2023-06-24T00:00:00	2024-11-06T13:00:00	6	Velocidad del viento	3.2
33518	7	Sololá	701	Sololá	3	Barraneche	6	Junio	2023-06-24T00:00:00	2024-11-06T13:00:00	7	Dirección del viento	3.22
33519	7	Sololá	701	Sololá	3	Barraneche	6	Junio	2023-06-24T00:00:00	2024-11-06T13:00:00	1	Precipitación	0
33520	7	Sololá	701	Sololá	3	Barraneche	6	Junio	2023-06-24T00:00:00	2024-11-06T13:00:00	8	Radiación solar	158
33521	7	Sololá	701	Sololá	3	Barraneche	6	Junio	2023-06-24T00:00:00	2024-11-06T14:00:00	2	Temperatura media	16.6
33522	7	Sololá	701	Sololá	3	Barraneche	6	Junio	2023-06-24T00:00:00	2024-11-06T14:00:00	4	Temperatura máxima	17.4
33523	7	Sololá	701	Sololá	3	Barraneche	6	Junio	2023-06-24T00:00:00	2024-11-06T14:00:00	3	Temperatura mínima	16.6
33524	7	Sololá	701	Sololá	3	Barraneche	6	Junio	2023-06-24T00:00:00	2024-11-06T14:00:00	5	Humedad	76
33525	7	Sololá	701	Sololá	3	Barraneche	6	Junio	2023-06-24T00:00:00	2024-11-06T14:00:00	6	Velocidad del viento	3.2
33526	7	Sololá	701	Sololá	3	Barraneche	6	Junio	2023-06-24T00:00:00	2024-11-06T14:00:00	7	Dirección del viento	3.22
33527	7	Sololá	701	Sololá	3	Barraneche	6	Junio	2023-06-24T00:00:00	2024-11-06T14:00:00	1	Precipitación	0
33528	7	Sololá	701	Sololá	3	Barraneche	6	Junio	2023-06-24T00:00:00	2024-11-06T14:00:00	8	Radiación solar	139
33529	7	Sololá	701	Sololá	3	Barraneche	6	Junio	2023-06-24T00:00:00	2024-11-06T15:00:00	2	Temperatura media	15.8
33530	7	Sololá	701	Sololá	3	Barraneche	6	Junio	2023-06-24T00:00:00	2024-11-06T15:00:00	4	Temperatura máxima	16.6
33531	7	Sololá	701	Sololá	3	Barraneche	6	Junio	2023-06-24T00:00:00	2024-11-06T15:00:00	3	Temperatura mínima	15.8
33532	7	Sololá	701	Sololá	3	Barraneche	6	Junio	2023-06-24T00:00:00	2024-11-06T15:00:00	5	Humedad	78
33533	7	Sololá	701	Sololá	3	Barraneche	6	Junio	2023-06-24T00:00:00	2024-11-06T15:00:00	6	Velocidad del viento	3.2
33534	7	Sololá	701	Sololá	3	Barraneche	6	Junio	2023-06-24T00:00:00	2024-11-06T15:00:00	7	Dirección del viento	3.22
33535	7	Sololá	701	Sololá	3	Barraneche	6	Junio	2023-06-24T00:00:00	2024-11-06T15:00:00	1	Precipitación	0
33536	7	Sololá	701	Sololá	3	Barraneche	6	Junio	2023-06-24T00:00:00	2024-11-06T15:00:00	8	Radiación solar	71
33537	7	Sololá	701	Sololá	3	Barraneche	6	Junio	2023-06-24T00:00:00	2024-11-06T16:00:00	2	Temperatura media	16.1
33538	7	Sololá	701	Sololá	3	Barraneche	6	Junio	2023-06-24T00:00:00	2024-11-06T16:00:00	4	Temperatura máxima	16.1
33539	7	Sololá	701	Sololá	3	Barraneche	6	Junio	2023-06-24T00:00:00	2024-11-06T16:00:00	3	Temperatura mínima	15.6
33540	7	Sololá	701	Sololá	3	Barraneche	6	Junio	2023-06-24T00:00:00	2024-11-06T16:00:00	5	Humedad	77
33541	7	Sololá	701	Sololá	3	Barraneche	6	Junio	2023-06-24T00:00:00	2024-11-06T16:00:00	6	Velocidad del viento	3.2
33542	7	Sololá	701	Sololá	3	Barraneche	6	Junio	2023-06-24T00:00:00	2024-11-06T16:00:00	7	Dirección del viento	3.22
33543	7	Sololá	701	Sololá	3	Barraneche	6	Junio	2023-06-24T00:00:00	2024-11-06T16:00:00	1	Precipitación	0.4
33544	7	Sololá	701	Sololá	3	Barraneche	6	Junio	2023-06-24T00:00:00	2024-11-06T16:00:00	8	Radiación solar	133
33545	7	Sololá	701	Sololá	3	Barraneche	6	Junio	2023-06-24T00:00:00	2024-11-06T17:00:00	2	Temperatura media	16.4
33546	7	Sololá	701	Sololá	3	Barraneche	6	Junio	2023-06-24T00:00:00	2024-11-06T17:00:00	4	Temperatura máxima	17.2
33547	7	Sololá	701	Sololá	3	Barraneche	6	Junio	2023-06-24T00:00:00	2024-11-06T17:00:00	3	Temperatura mínima	16.1
33548	7	Sololá	701	Sololá	3	Barraneche	6	Junio	2023-06-24T00:00:00	2024-11-06T17:00:00	5	Humedad	76
33549	7	Sololá	701	Sololá	3	Barraneche	6	Junio	2023-06-24T00:00:00	2024-11-06T17:00:00	6	Velocidad del viento	3.2
33550	7	Sololá	701	Sololá	3	Barraneche	6	Junio	2023-06-24T00:00:00	2024-11-06T17:00:00	7	Dirección del viento	3.22
33551	7	Sololá	701	Sololá	3	Barraneche	6	Junio	2023-06-24T00:00:00	2024-11-06T17:00:00	1	Precipitación	0
33552	7	Sololá	701	Sololá	3	Barraneche	6	Junio	2023-06-24T00:00:00	2024-11-06T17:00:00	8	Radiación solar	196
33553	7	Sololá	701	Sololá	3	Barraneche	6	Junio	2023-06-24T00:00:00	2024-11-06T18:00:00	2	Temperatura media	15.1
33554	7	Sololá	701	Sololá	3	Barraneche	6	Junio	2023-06-24T00:00:00	2024-11-06T18:00:00	4	Temperatura máxima	16.6
33555	7	Sololá	701	Sololá	3	Barraneche	6	Junio	2023-06-24T00:00:00	2024-11-06T18:00:00	3	Temperatura mínima	14.9
33556	7	Sololá	701	Sololá	3	Barraneche	6	Junio	2023-06-24T00:00:00	2024-11-06T18:00:00	5	Humedad	82
33557	7	Sololá	701	Sololá	3	Barraneche	6	Junio	2023-06-24T00:00:00	2024-11-06T18:00:00	6	Velocidad del viento	8
33558	7	Sololá	701	Sololá	3	Barraneche	6	Junio	2023-06-24T00:00:00	2024-11-06T18:00:00	7	Dirección del viento	8.05
33559	7	Sololá	701	Sololá	3	Barraneche	6	Junio	2023-06-24T00:00:00	2024-11-06T18:00:00	1	Precipitación	0
33560	7	Sololá	701	Sololá	3	Barraneche	6	Junio	2023-06-24T00:00:00	2024-11-06T18:00:00	8	Radiación solar	127
33561	7	Sololá	701	Sololá	3	Barraneche	6	Junio	2023-06-24T00:00:00	2024-11-06T19:00:00	2	Temperatura media	14.1
33562	7	Sololá	701	Sololá	3	Barraneche	6	Junio	2023-06-24T00:00:00	2024-11-06T19:00:00	4	Temperatura máxima	15.2
33563	7	Sololá	701	Sololá	3	Barraneche	6	Junio	2023-06-24T00:00:00	2024-11-06T19:00:00	3	Temperatura mínima	14.1
33564	7	Sololá	701	Sololá	3	Barraneche	6	Junio	2023-06-24T00:00:00	2024-11-06T19:00:00	5	Humedad	84
33565	7	Sololá	701	Sololá	3	Barraneche	6	Junio	2023-06-24T00:00:00	2024-11-06T19:00:00	6	Velocidad del viento	6.4
33566	7	Sololá	701	Sololá	3	Barraneche	6	Junio	2023-06-24T00:00:00	2024-11-06T19:00:00	7	Dirección del viento	6.44
33567	7	Sololá	701	Sololá	3	Barraneche	6	Junio	2023-06-24T00:00:00	2024-11-06T19:00:00	1	Precipitación	6.4
33568	7	Sololá	701	Sololá	3	Barraneche	6	Junio	2023-06-24T00:00:00	2024-11-06T19:00:00	8	Radiación solar	0
33569	7	Sololá	701	Sololá	3	Barraneche	6	Junio	2023-06-24T00:00:00	2024-11-06T20:00:00	2	Temperatura media	14.3
33570	7	Sololá	701	Sololá	3	Barraneche	6	Junio	2023-06-24T00:00:00	2024-11-06T20:00:00	4	Temperatura máxima	14.4
33571	7	Sololá	701	Sololá	3	Barraneche	6	Junio	2023-06-24T00:00:00	2024-11-06T20:00:00	3	Temperatura mínima	14.1
33572	7	Sololá	701	Sololá	3	Barraneche	6	Junio	2023-06-24T00:00:00	2024-11-06T20:00:00	5	Humedad	85
33573	7	Sololá	701	Sololá	3	Barraneche	6	Junio	2023-06-24T00:00:00	2024-11-06T20:00:00	6	Velocidad del viento	3.2
33574	7	Sololá	701	Sololá	3	Barraneche	6	Junio	2023-06-24T00:00:00	2024-11-06T20:00:00	7	Dirección del viento	3.22
33575	7	Sololá	701	Sololá	3	Barraneche	6	Junio	2023-06-24T00:00:00	2024-11-06T20:00:00	1	Precipitación	0
33576	7	Sololá	701	Sololá	3	Barraneche	6	Junio	2023-06-24T00:00:00	2024-11-06T20:00:00	8	Radiación solar	0
33577	7	Sololá	701	Sololá	3	Barraneche	6	Junio	2023-06-24T00:00:00	2024-11-06T21:00:00	2	Temperatura media	14
33578	7	Sololá	701	Sololá	3	Barraneche	6	Junio	2023-06-24T00:00:00	2024-11-06T21:00:00	4	Temperatura máxima	14.3
33579	7	Sololá	701	Sololá	3	Barraneche	6	Junio	2023-06-24T00:00:00	2024-11-06T21:00:00	3	Temperatura mínima	13.9
33580	7	Sololá	701	Sololá	3	Barraneche	6	Junio	2023-06-24T00:00:00	2024-11-06T21:00:00	5	Humedad	85
33581	7	Sololá	701	Sololá	3	Barraneche	6	Junio	2023-06-24T00:00:00	2024-11-06T21:00:00	6	Velocidad del viento	1.6
33582	7	Sololá	701	Sololá	3	Barraneche	6	Junio	2023-06-24T00:00:00	2024-11-06T21:00:00	7	Dirección del viento	1.61
33583	7	Sololá	701	Sololá	3	Barraneche	6	Junio	2023-06-24T00:00:00	2024-11-06T21:00:00	1	Precipitación	0
33584	7	Sololá	701	Sololá	3	Barraneche	6	Junio	2023-06-24T00:00:00	2024-11-06T21:00:00	8	Radiación solar	0
33585	7	Sololá	701	Sololá	3	Barraneche	6	Junio	2023-06-24T00:00:00	2024-11-06T22:00:00	2	Temperatura media	13.7
33586	7	Sololá	701	Sololá	3	Barraneche	6	Junio	2023-06-24T00:00:00	2024-11-06T22:00:00	4	Temperatura máxima	14
33587	7	Sololá	701	Sololá	3	Barraneche	6	Junio	2023-06-24T00:00:00	2024-11-06T22:00:00	3	Temperatura mínima	13.6
33588	7	Sololá	701	Sololá	3	Barraneche	6	Junio	2023-06-24T00:00:00	2024-11-06T22:00:00	5	Humedad	80
33589	7	Sololá	701	Sololá	3	Barraneche	6	Junio	2023-06-24T00:00:00	2024-11-06T22:00:00	6	Velocidad del viento	6.4
33590	7	Sololá	701	Sololá	3	Barraneche	6	Junio	2023-06-24T00:00:00	2024-11-06T22:00:00	7	Dirección del viento	6.44
33591	7	Sololá	701	Sololá	3	Barraneche	6	Junio	2023-06-24T00:00:00	2024-11-06T22:00:00	1	Precipitación	0
33592	7	Sololá	701	Sololá	3	Barraneche	6	Junio	2023-06-24T00:00:00	2024-11-06T22:00:00	8	Radiación solar	0
33593	7	Sololá	701	Sololá	3	Barraneche	6	Junio	2023-06-24T00:00:00	2024-11-06T23:00:00	2	Temperatura media	13.2
33594	7	Sololá	701	Sololá	3	Barraneche	6	Junio	2023-06-24T00:00:00	2024-11-06T23:00:00	4	Temperatura máxima	13.7
33595	7	Sololá	701	Sololá	3	Barraneche	6	Junio	2023-06-24T00:00:00	2024-11-06T23:00:00	3	Temperatura mínima	13.2
33596	7	Sololá	701	Sololá	3	Barraneche	6	Junio	2023-06-24T00:00:00	2024-11-06T23:00:00	5	Humedad	80
33597	7	Sololá	701	Sololá	3	Barraneche	6	Junio	2023-06-24T00:00:00	2024-11-06T23:00:00	6	Velocidad del viento	4.8
33598	7	Sololá	701	Sololá	3	Barraneche	6	Junio	2023-06-24T00:00:00	2024-11-06T23:00:00	7	Dirección del viento	4.83
33599	7	Sololá	701	Sololá	3	Barraneche	6	Junio	2023-06-24T00:00:00	2024-11-06T23:00:00	1	Precipitación	0
33600	7	Sololá	701	Sololá	3	Barraneche	6	Junio	2023-06-24T00:00:00	2024-11-06T23:00:00	8	Radiación solar	0
33601	7	Sololá	701	Sololá	3	Barraneche	6	Junio	2023-06-25T00:00:00	2024-11-06T00:00:00	2	Temperatura media	12.8
33602	7	Sololá	701	Sololá	3	Barraneche	6	Junio	2023-06-25T00:00:00	2024-11-06T00:00:00	4	Temperatura máxima	13.2
33603	7	Sololá	701	Sololá	3	Barraneche	6	Junio	2023-06-25T00:00:00	2024-11-06T00:00:00	3	Temperatura mínima	12.7
33604	7	Sololá	701	Sololá	3	Barraneche	6	Junio	2023-06-25T00:00:00	2024-11-06T00:00:00	5	Humedad	79
33605	7	Sololá	701	Sololá	3	Barraneche	6	Junio	2023-06-25T00:00:00	2024-11-06T00:00:00	6	Velocidad del viento	4.8
33606	7	Sololá	701	Sololá	3	Barraneche	6	Junio	2023-06-25T00:00:00	2024-11-06T00:00:00	7	Dirección del viento	4.83
33607	7	Sololá	701	Sololá	3	Barraneche	6	Junio	2023-06-25T00:00:00	2024-11-06T00:00:00	1	Precipitación	0
33608	7	Sololá	701	Sololá	3	Barraneche	6	Junio	2023-06-25T00:00:00	2024-11-06T00:00:00	8	Radiación solar	0
33609	7	Sololá	701	Sololá	3	Barraneche	6	Junio	2023-06-25T00:00:00	2024-11-06T01:00:00	2	Temperatura media	12.7
33610	7	Sololá	701	Sololá	3	Barraneche	6	Junio	2023-06-25T00:00:00	2024-11-06T01:00:00	4	Temperatura máxima	13.1
33611	7	Sololá	701	Sololá	3	Barraneche	6	Junio	2023-06-25T00:00:00	2024-11-06T01:00:00	3	Temperatura mínima	12.7
33612	7	Sololá	701	Sololá	3	Barraneche	6	Junio	2023-06-25T00:00:00	2024-11-06T01:00:00	5	Humedad	78
33613	7	Sololá	701	Sololá	3	Barraneche	6	Junio	2023-06-25T00:00:00	2024-11-06T01:00:00	6	Velocidad del viento	4.8
33614	7	Sololá	701	Sololá	3	Barraneche	6	Junio	2023-06-25T00:00:00	2024-11-06T01:00:00	7	Dirección del viento	4.83
33615	7	Sololá	701	Sololá	3	Barraneche	6	Junio	2023-06-25T00:00:00	2024-11-06T01:00:00	1	Precipitación	0
33616	7	Sololá	701	Sololá	3	Barraneche	6	Junio	2023-06-25T00:00:00	2024-11-06T01:00:00	8	Radiación solar	0
33617	7	Sololá	701	Sololá	3	Barraneche	6	Junio	2023-06-25T00:00:00	2024-11-06T02:00:00	2	Temperatura media	12.4
33618	7	Sololá	701	Sololá	3	Barraneche	6	Junio	2023-06-25T00:00:00	2024-11-06T02:00:00	4	Temperatura máxima	12.7
33619	7	Sololá	701	Sololá	3	Barraneche	6	Junio	2023-06-25T00:00:00	2024-11-06T02:00:00	3	Temperatura mínima	12.3
33620	7	Sololá	701	Sololá	3	Barraneche	6	Junio	2023-06-25T00:00:00	2024-11-06T02:00:00	5	Humedad	81
33621	7	Sololá	701	Sololá	3	Barraneche	6	Junio	2023-06-25T00:00:00	2024-11-06T02:00:00	6	Velocidad del viento	1.6
33622	7	Sololá	701	Sololá	3	Barraneche	6	Junio	2023-06-25T00:00:00	2024-11-06T02:00:00	7	Dirección del viento	1.61
33623	7	Sololá	701	Sololá	3	Barraneche	6	Junio	2023-06-25T00:00:00	2024-11-06T02:00:00	1	Precipitación	0
33624	7	Sololá	701	Sololá	3	Barraneche	6	Junio	2023-06-25T00:00:00	2024-11-06T02:00:00	8	Radiación solar	0
33625	7	Sololá	701	Sololá	3	Barraneche	6	Junio	2023-06-25T00:00:00	2024-11-06T03:00:00	2	Temperatura media	12.2
33626	7	Sololá	701	Sololá	3	Barraneche	6	Junio	2023-06-25T00:00:00	2024-11-06T03:00:00	4	Temperatura máxima	12.7
33627	7	Sololá	701	Sololá	3	Barraneche	6	Junio	2023-06-25T00:00:00	2024-11-06T03:00:00	3	Temperatura mínima	12.1
33628	7	Sololá	701	Sololá	3	Barraneche	6	Junio	2023-06-25T00:00:00	2024-11-06T03:00:00	5	Humedad	80
33629	7	Sololá	701	Sololá	3	Barraneche	6	Junio	2023-06-25T00:00:00	2024-11-06T03:00:00	6	Velocidad del viento	3.2
33630	7	Sololá	701	Sololá	3	Barraneche	6	Junio	2023-06-25T00:00:00	2024-11-06T03:00:00	7	Dirección del viento	3.22
33631	7	Sololá	701	Sololá	3	Barraneche	6	Junio	2023-06-25T00:00:00	2024-11-06T03:00:00	1	Precipitación	3.6
33632	7	Sololá	701	Sololá	3	Barraneche	6	Junio	2023-06-25T00:00:00	2024-11-06T03:00:00	8	Radiación solar	0
33633	7	Sololá	701	Sololá	3	Barraneche	6	Junio	2023-06-25T00:00:00	2024-11-06T04:00:00	2	Temperatura media	11.3
33634	7	Sololá	701	Sololá	3	Barraneche	6	Junio	2023-06-25T00:00:00	2024-11-06T04:00:00	4	Temperatura máxima	12.2
33635	7	Sololá	701	Sololá	3	Barraneche	6	Junio	2023-06-25T00:00:00	2024-11-06T04:00:00	3	Temperatura mínima	11.2
33636	7	Sololá	701	Sololá	3	Barraneche	6	Junio	2023-06-25T00:00:00	2024-11-06T04:00:00	5	Humedad	75
33637	7	Sololá	701	Sololá	3	Barraneche	6	Junio	2023-06-25T00:00:00	2024-11-06T04:00:00	6	Velocidad del viento	6.4
33638	7	Sololá	701	Sololá	3	Barraneche	6	Junio	2023-06-25T00:00:00	2024-11-06T04:00:00	7	Dirección del viento	6.44
33639	7	Sololá	701	Sololá	3	Barraneche	6	Junio	2023-06-25T00:00:00	2024-11-06T04:00:00	1	Precipitación	0.2
33640	7	Sololá	701	Sololá	3	Barraneche	6	Junio	2023-06-25T00:00:00	2024-11-06T04:00:00	8	Radiación solar	0
33641	7	Sololá	701	Sololá	3	Barraneche	6	Junio	2023-06-25T00:00:00	2024-11-06T05:00:00	2	Temperatura media	11.6
33642	7	Sololá	701	Sololá	3	Barraneche	6	Junio	2023-06-25T00:00:00	2024-11-06T05:00:00	4	Temperatura máxima	11.6
33643	7	Sololá	701	Sololá	3	Barraneche	6	Junio	2023-06-25T00:00:00	2024-11-06T05:00:00	3	Temperatura mínima	11.2
33644	7	Sololá	701	Sololá	3	Barraneche	6	Junio	2023-06-25T00:00:00	2024-11-06T05:00:00	5	Humedad	75
33645	7	Sololá	701	Sololá	3	Barraneche	6	Junio	2023-06-25T00:00:00	2024-11-06T05:00:00	6	Velocidad del viento	6.4
33646	7	Sololá	701	Sololá	3	Barraneche	6	Junio	2023-06-25T00:00:00	2024-11-06T05:00:00	7	Dirección del viento	6.44
33647	7	Sololá	701	Sololá	3	Barraneche	6	Junio	2023-06-25T00:00:00	2024-11-06T05:00:00	1	Precipitación	0
33648	7	Sololá	701	Sololá	3	Barraneche	6	Junio	2023-06-25T00:00:00	2024-11-06T05:00:00	8	Radiación solar	0
33649	7	Sololá	701	Sololá	3	Barraneche	6	Junio	2023-06-25T00:00:00	2024-11-06T06:00:00	2	Temperatura media	11.1
33650	7	Sololá	701	Sololá	3	Barraneche	6	Junio	2023-06-25T00:00:00	2024-11-06T06:00:00	4	Temperatura máxima	11.6
33651	7	Sololá	701	Sololá	3	Barraneche	6	Junio	2023-06-25T00:00:00	2024-11-06T06:00:00	3	Temperatura mínima	11.1
33652	7	Sololá	701	Sololá	3	Barraneche	6	Junio	2023-06-25T00:00:00	2024-11-06T06:00:00	5	Humedad	76
33653	7	Sololá	701	Sololá	3	Barraneche	6	Junio	2023-06-25T00:00:00	2024-11-06T06:00:00	6	Velocidad del viento	6.4
33654	7	Sololá	701	Sololá	3	Barraneche	6	Junio	2023-06-25T00:00:00	2024-11-06T06:00:00	7	Dirección del viento	6.44
33655	7	Sololá	701	Sololá	3	Barraneche	6	Junio	2023-06-25T00:00:00	2024-11-06T06:00:00	1	Precipitación	0
33656	7	Sololá	701	Sololá	3	Barraneche	6	Junio	2023-06-25T00:00:00	2024-11-06T06:00:00	8	Radiación solar	4
33657	7	Sololá	701	Sololá	3	Barraneche	6	Junio	2023-06-25T00:00:00	2024-11-06T07:00:00	2	Temperatura media	12.8
33658	7	Sololá	701	Sololá	3	Barraneche	6	Junio	2023-06-25T00:00:00	2024-11-06T07:00:00	4	Temperatura máxima	12.8
33659	7	Sololá	701	Sololá	3	Barraneche	6	Junio	2023-06-25T00:00:00	2024-11-06T07:00:00	3	Temperatura mínima	11
33660	7	Sololá	701	Sololá	3	Barraneche	6	Junio	2023-06-25T00:00:00	2024-11-06T07:00:00	5	Humedad	72
33661	7	Sololá	701	Sololá	3	Barraneche	6	Junio	2023-06-25T00:00:00	2024-11-06T07:00:00	6	Velocidad del viento	3.2
33662	7	Sololá	701	Sololá	3	Barraneche	6	Junio	2023-06-25T00:00:00	2024-11-06T07:00:00	7	Dirección del viento	3.22
33663	7	Sololá	701	Sololá	3	Barraneche	6	Junio	2023-06-25T00:00:00	2024-11-06T07:00:00	1	Precipitación	0
33664	7	Sololá	701	Sololá	3	Barraneche	6	Junio	2023-06-25T00:00:00	2024-11-06T07:00:00	8	Radiación solar	96
33665	7	Sololá	701	Sololá	3	Barraneche	6	Junio	2023-06-25T00:00:00	2024-11-06T08:00:00	2	Temperatura media	16.6
33666	7	Sololá	701	Sololá	3	Barraneche	6	Junio	2023-06-25T00:00:00	2024-11-06T08:00:00	4	Temperatura máxima	16.6
33667	7	Sololá	701	Sololá	3	Barraneche	6	Junio	2023-06-25T00:00:00	2024-11-06T08:00:00	3	Temperatura mínima	12.8
33668	7	Sololá	701	Sololá	3	Barraneche	6	Junio	2023-06-25T00:00:00	2024-11-06T08:00:00	5	Humedad	50
33669	7	Sololá	701	Sololá	3	Barraneche	6	Junio	2023-06-25T00:00:00	2024-11-06T08:00:00	6	Velocidad del viento	6.4
33670	7	Sololá	701	Sololá	3	Barraneche	6	Junio	2023-06-25T00:00:00	2024-11-06T08:00:00	7	Dirección del viento	6.44
33671	7	Sololá	701	Sololá	3	Barraneche	6	Junio	2023-06-25T00:00:00	2024-11-06T08:00:00	1	Precipitación	0
33672	7	Sololá	701	Sololá	3	Barraneche	6	Junio	2023-06-25T00:00:00	2024-11-06T08:00:00	8	Radiación solar	343
33673	7	Sololá	701	Sololá	3	Barraneche	6	Junio	2023-06-25T00:00:00	2024-11-06T09:00:00	2	Temperatura media	16.8
33674	7	Sololá	701	Sololá	3	Barraneche	6	Junio	2023-06-25T00:00:00	2024-11-06T09:00:00	4	Temperatura máxima	17.1
33675	7	Sololá	701	Sololá	3	Barraneche	6	Junio	2023-06-25T00:00:00	2024-11-06T09:00:00	3	Temperatura mínima	16.6
33676	7	Sololá	701	Sololá	3	Barraneche	6	Junio	2023-06-25T00:00:00	2024-11-06T09:00:00	5	Humedad	46
33677	7	Sololá	701	Sololá	3	Barraneche	6	Junio	2023-06-25T00:00:00	2024-11-06T09:00:00	6	Velocidad del viento	9.7
33678	7	Sololá	701	Sololá	3	Barraneche	6	Junio	2023-06-25T00:00:00	2024-11-06T09:00:00	7	Dirección del viento	9.66
33679	7	Sololá	701	Sololá	3	Barraneche	6	Junio	2023-06-25T00:00:00	2024-11-06T09:00:00	1	Precipitación	0
33680	7	Sololá	701	Sololá	3	Barraneche	6	Junio	2023-06-25T00:00:00	2024-11-06T09:00:00	8	Radiación solar	466
33681	7	Sololá	701	Sololá	3	Barraneche	6	Junio	2023-06-25T00:00:00	2024-11-06T10:00:00	2	Temperatura media	17.7
33682	7	Sololá	701	Sololá	3	Barraneche	6	Junio	2023-06-25T00:00:00	2024-11-06T10:00:00	4	Temperatura máxima	17.9
33683	7	Sololá	701	Sololá	3	Barraneche	6	Junio	2023-06-25T00:00:00	2024-11-06T10:00:00	3	Temperatura mínima	16.8
33684	7	Sololá	701	Sololá	3	Barraneche	6	Junio	2023-06-25T00:00:00	2024-11-06T10:00:00	5	Humedad	45
33685	7	Sololá	701	Sololá	3	Barraneche	6	Junio	2023-06-25T00:00:00	2024-11-06T10:00:00	6	Velocidad del viento	9.7
33686	7	Sololá	701	Sololá	3	Barraneche	6	Junio	2023-06-25T00:00:00	2024-11-06T10:00:00	7	Dirección del viento	9.66
33687	7	Sololá	701	Sololá	3	Barraneche	6	Junio	2023-06-25T00:00:00	2024-11-06T10:00:00	1	Precipitación	0
33688	7	Sololá	701	Sololá	3	Barraneche	6	Junio	2023-06-25T00:00:00	2024-11-06T10:00:00	8	Radiación solar	535
33689	7	Sololá	701	Sololá	3	Barraneche	6	Junio	2023-06-25T00:00:00	2024-11-06T11:00:00	2	Temperatura media	18.1
33690	7	Sololá	701	Sololá	3	Barraneche	6	Junio	2023-06-25T00:00:00	2024-11-06T11:00:00	4	Temperatura máxima	18.3
33691	7	Sololá	701	Sololá	3	Barraneche	6	Junio	2023-06-25T00:00:00	2024-11-06T11:00:00	3	Temperatura mínima	17.3
33692	7	Sololá	701	Sololá	3	Barraneche	6	Junio	2023-06-25T00:00:00	2024-11-06T11:00:00	5	Humedad	48
33693	7	Sololá	701	Sololá	3	Barraneche	6	Junio	2023-06-25T00:00:00	2024-11-06T11:00:00	6	Velocidad del viento	9.7
33694	7	Sololá	701	Sololá	3	Barraneche	6	Junio	2023-06-25T00:00:00	2024-11-06T11:00:00	7	Dirección del viento	9.66
33695	7	Sololá	701	Sololá	3	Barraneche	6	Junio	2023-06-25T00:00:00	2024-11-06T11:00:00	1	Precipitación	0
33696	7	Sololá	701	Sololá	3	Barraneche	6	Junio	2023-06-25T00:00:00	2024-11-06T11:00:00	8	Radiación solar	700
33697	7	Sololá	701	Sololá	3	Barraneche	6	Junio	2023-06-25T00:00:00	2024-11-06T12:00:00	2	Temperatura media	18.8
33698	7	Sololá	701	Sololá	3	Barraneche	6	Junio	2023-06-25T00:00:00	2024-11-06T12:00:00	4	Temperatura máxima	18.8
33699	7	Sololá	701	Sololá	3	Barraneche	6	Junio	2023-06-25T00:00:00	2024-11-06T12:00:00	3	Temperatura mínima	17.8
33700	7	Sololá	701	Sololá	3	Barraneche	6	Junio	2023-06-25T00:00:00	2024-11-06T12:00:00	5	Humedad	49
33701	7	Sololá	701	Sololá	3	Barraneche	6	Junio	2023-06-25T00:00:00	2024-11-06T12:00:00	6	Velocidad del viento	9.7
33702	7	Sololá	701	Sololá	3	Barraneche	6	Junio	2023-06-25T00:00:00	2024-11-06T12:00:00	7	Dirección del viento	9.66
33703	7	Sololá	701	Sololá	3	Barraneche	6	Junio	2023-06-25T00:00:00	2024-11-06T12:00:00	1	Precipitación	0
33704	7	Sololá	701	Sololá	3	Barraneche	6	Junio	2023-06-25T00:00:00	2024-11-06T12:00:00	8	Radiación solar	988
33705	7	Sololá	701	Sololá	3	Barraneche	6	Junio	2023-06-25T00:00:00	2024-11-06T13:00:00	2	Temperatura media	19.6
33706	7	Sololá	701	Sololá	3	Barraneche	6	Junio	2023-06-25T00:00:00	2024-11-06T13:00:00	4	Temperatura máxima	19.7
33707	7	Sololá	701	Sololá	3	Barraneche	6	Junio	2023-06-25T00:00:00	2024-11-06T13:00:00	3	Temperatura mínima	18.8
33708	7	Sololá	701	Sololá	3	Barraneche	6	Junio	2023-06-25T00:00:00	2024-11-06T13:00:00	5	Humedad	42
33709	7	Sololá	701	Sololá	3	Barraneche	6	Junio	2023-06-25T00:00:00	2024-11-06T13:00:00	6	Velocidad del viento	8
33710	7	Sololá	701	Sololá	3	Barraneche	6	Junio	2023-06-25T00:00:00	2024-11-06T13:00:00	7	Dirección del viento	8.05
33711	7	Sololá	701	Sololá	3	Barraneche	6	Junio	2023-06-25T00:00:00	2024-11-06T13:00:00	1	Precipitación	0
33712	7	Sololá	701	Sololá	3	Barraneche	6	Junio	2023-06-25T00:00:00	2024-11-06T13:00:00	8	Radiación solar	1006
33713	7	Sololá	701	Sololá	3	Barraneche	6	Junio	2023-06-25T00:00:00	2024-11-06T14:00:00	2	Temperatura media	19.2
33714	7	Sololá	701	Sololá	3	Barraneche	6	Junio	2023-06-25T00:00:00	2024-11-06T14:00:00	4	Temperatura máxima	19.9
33715	7	Sololá	701	Sololá	3	Barraneche	6	Junio	2023-06-25T00:00:00	2024-11-06T14:00:00	3	Temperatura mínima	19.2
33716	7	Sololá	701	Sololá	3	Barraneche	6	Junio	2023-06-25T00:00:00	2024-11-06T14:00:00	5	Humedad	40
33717	7	Sololá	701	Sololá	3	Barraneche	6	Junio	2023-06-25T00:00:00	2024-11-06T14:00:00	6	Velocidad del viento	9.7
33718	7	Sololá	701	Sololá	3	Barraneche	6	Junio	2023-06-25T00:00:00	2024-11-06T14:00:00	7	Dirección del viento	9.66
33719	7	Sololá	701	Sololá	3	Barraneche	6	Junio	2023-06-25T00:00:00	2024-11-06T14:00:00	1	Precipitación	0
33720	7	Sololá	701	Sololá	3	Barraneche	6	Junio	2023-06-25T00:00:00	2024-11-06T14:00:00	8	Radiación solar	957
33721	7	Sololá	701	Sololá	3	Barraneche	6	Junio	2023-06-25T00:00:00	2024-11-06T15:00:00	2	Temperatura media	18.6
33722	7	Sololá	701	Sololá	3	Barraneche	6	Junio	2023-06-25T00:00:00	2024-11-06T15:00:00	4	Temperatura máxima	19.1
33723	7	Sololá	701	Sololá	3	Barraneche	6	Junio	2023-06-25T00:00:00	2024-11-06T15:00:00	3	Temperatura mínima	18.3
33724	7	Sololá	701	Sololá	3	Barraneche	6	Junio	2023-06-25T00:00:00	2024-11-06T15:00:00	5	Humedad	41
33725	7	Sololá	701	Sololá	3	Barraneche	6	Junio	2023-06-25T00:00:00	2024-11-06T15:00:00	6	Velocidad del viento	9.7
33726	7	Sololá	701	Sololá	3	Barraneche	6	Junio	2023-06-25T00:00:00	2024-11-06T15:00:00	7	Dirección del viento	9.66
33727	7	Sololá	701	Sololá	3	Barraneche	6	Junio	2023-06-25T00:00:00	2024-11-06T15:00:00	1	Precipitación	0
33728	7	Sololá	701	Sololá	3	Barraneche	6	Junio	2023-06-25T00:00:00	2024-11-06T15:00:00	8	Radiación solar	426
33729	7	Sololá	701	Sololá	3	Barraneche	6	Junio	2023-06-25T00:00:00	2024-11-06T16:00:00	2	Temperatura media	18.7
33730	7	Sololá	701	Sololá	3	Barraneche	6	Junio	2023-06-25T00:00:00	2024-11-06T16:00:00	4	Temperatura máxima	19.7
33731	7	Sololá	701	Sololá	3	Barraneche	6	Junio	2023-06-25T00:00:00	2024-11-06T16:00:00	3	Temperatura mínima	18.6
33732	7	Sololá	701	Sololá	3	Barraneche	6	Junio	2023-06-25T00:00:00	2024-11-06T16:00:00	5	Humedad	44
33733	7	Sololá	701	Sololá	3	Barraneche	6	Junio	2023-06-25T00:00:00	2024-11-06T16:00:00	6	Velocidad del viento	9.7
33734	7	Sololá	701	Sololá	3	Barraneche	6	Junio	2023-06-25T00:00:00	2024-11-06T16:00:00	7	Dirección del viento	9.66
33735	7	Sololá	701	Sololá	3	Barraneche	6	Junio	2023-06-25T00:00:00	2024-11-06T16:00:00	1	Precipitación	0
33736	7	Sololá	701	Sololá	3	Barraneche	6	Junio	2023-06-25T00:00:00	2024-11-06T16:00:00	8	Radiación solar	419
33737	7	Sololá	701	Sololá	3	Barraneche	6	Junio	2023-06-25T00:00:00	2024-11-06T17:00:00	2	Temperatura media	17.7
33738	7	Sololá	701	Sololá	3	Barraneche	6	Junio	2023-06-25T00:00:00	2024-11-06T17:00:00	4	Temperatura máxima	19.3
33739	7	Sololá	701	Sololá	3	Barraneche	6	Junio	2023-06-25T00:00:00	2024-11-06T17:00:00	3	Temperatura mínima	17.7
33740	7	Sololá	701	Sololá	3	Barraneche	6	Junio	2023-06-25T00:00:00	2024-11-06T17:00:00	5	Humedad	52
33741	7	Sololá	701	Sololá	3	Barraneche	6	Junio	2023-06-25T00:00:00	2024-11-06T17:00:00	6	Velocidad del viento	8
33742	7	Sololá	701	Sololá	3	Barraneche	6	Junio	2023-06-25T00:00:00	2024-11-06T17:00:00	7	Dirección del viento	8.05
33743	7	Sololá	701	Sololá	3	Barraneche	6	Junio	2023-06-25T00:00:00	2024-11-06T17:00:00	1	Precipitación	0
33744	7	Sololá	701	Sololá	3	Barraneche	6	Junio	2023-06-25T00:00:00	2024-11-06T17:00:00	8	Radiación solar	327
33745	7	Sololá	701	Sololá	3	Barraneche	6	Junio	2023-06-25T00:00:00	2024-11-06T18:00:00	2	Temperatura media	16.2
33746	7	Sololá	701	Sololá	3	Barraneche	6	Junio	2023-06-25T00:00:00	2024-11-06T18:00:00	4	Temperatura máxima	17.9
33747	7	Sololá	701	Sololá	3	Barraneche	6	Junio	2023-06-25T00:00:00	2024-11-06T18:00:00	3	Temperatura mínima	16.2
33748	7	Sololá	701	Sololá	3	Barraneche	6	Junio	2023-06-25T00:00:00	2024-11-06T18:00:00	5	Humedad	57
33749	7	Sololá	701	Sololá	3	Barraneche	6	Junio	2023-06-25T00:00:00	2024-11-06T18:00:00	6	Velocidad del viento	8
33750	7	Sololá	701	Sololá	3	Barraneche	6	Junio	2023-06-25T00:00:00	2024-11-06T18:00:00	7	Dirección del viento	8.05
33751	7	Sololá	701	Sololá	3	Barraneche	6	Junio	2023-06-25T00:00:00	2024-11-06T18:00:00	1	Precipitación	0
33752	7	Sololá	701	Sololá	3	Barraneche	6	Junio	2023-06-25T00:00:00	2024-11-06T18:00:00	8	Radiación solar	78
33753	7	Sololá	701	Sololá	3	Barraneche	6	Junio	2023-06-25T00:00:00	2024-11-06T19:00:00	2	Temperatura media	15.5
33754	7	Sololá	701	Sololá	3	Barraneche	6	Junio	2023-06-25T00:00:00	2024-11-06T19:00:00	4	Temperatura máxima	16.2
33755	7	Sololá	701	Sololá	3	Barraneche	6	Junio	2023-06-25T00:00:00	2024-11-06T19:00:00	3	Temperatura mínima	15.5
33756	7	Sololá	701	Sololá	3	Barraneche	6	Junio	2023-06-25T00:00:00	2024-11-06T19:00:00	5	Humedad	63
33757	7	Sololá	701	Sololá	3	Barraneche	6	Junio	2023-06-25T00:00:00	2024-11-06T19:00:00	6	Velocidad del viento	12.9
33758	7	Sololá	701	Sololá	3	Barraneche	6	Junio	2023-06-25T00:00:00	2024-11-06T19:00:00	7	Dirección del viento	12.87
33759	7	Sololá	701	Sololá	3	Barraneche	6	Junio	2023-06-25T00:00:00	2024-11-06T19:00:00	1	Precipitación	0
33760	7	Sololá	701	Sololá	3	Barraneche	6	Junio	2023-06-25T00:00:00	2024-11-06T19:00:00	8	Radiación solar	0
33761	7	Sololá	701	Sololá	3	Barraneche	6	Junio	2023-06-25T00:00:00	2024-11-06T20:00:00	2	Temperatura media	14.9
33762	7	Sololá	701	Sololá	3	Barraneche	6	Junio	2023-06-25T00:00:00	2024-11-06T20:00:00	4	Temperatura máxima	15.6
33763	7	Sololá	701	Sololá	3	Barraneche	6	Junio	2023-06-25T00:00:00	2024-11-06T20:00:00	3	Temperatura mínima	14.9
33764	7	Sololá	701	Sololá	3	Barraneche	6	Junio	2023-06-25T00:00:00	2024-11-06T20:00:00	5	Humedad	60
33765	7	Sololá	701	Sololá	3	Barraneche	6	Junio	2023-06-25T00:00:00	2024-11-06T20:00:00	6	Velocidad del viento	8
33766	7	Sololá	701	Sololá	3	Barraneche	6	Junio	2023-06-25T00:00:00	2024-11-06T20:00:00	7	Dirección del viento	8.05
33767	7	Sololá	701	Sololá	3	Barraneche	6	Junio	2023-06-25T00:00:00	2024-11-06T20:00:00	1	Precipitación	0
33768	7	Sololá	701	Sololá	3	Barraneche	6	Junio	2023-06-25T00:00:00	2024-11-06T20:00:00	8	Radiación solar	0
33769	7	Sololá	701	Sololá	3	Barraneche	6	Junio	2023-06-25T00:00:00	2024-11-06T21:00:00	2	Temperatura media	13.9
33770	7	Sololá	701	Sololá	3	Barraneche	6	Junio	2023-06-25T00:00:00	2024-11-06T21:00:00	4	Temperatura máxima	14.9
33771	7	Sololá	701	Sololá	3	Barraneche	6	Junio	2023-06-25T00:00:00	2024-11-06T21:00:00	3	Temperatura mínima	13.9
33772	7	Sololá	701	Sololá	3	Barraneche	6	Junio	2023-06-25T00:00:00	2024-11-06T21:00:00	5	Humedad	59
33773	7	Sololá	701	Sololá	3	Barraneche	6	Junio	2023-06-25T00:00:00	2024-11-06T21:00:00	6	Velocidad del viento	9.7
33774	7	Sololá	701	Sololá	3	Barraneche	6	Junio	2023-06-25T00:00:00	2024-11-06T21:00:00	7	Dirección del viento	9.66
33775	7	Sololá	701	Sololá	3	Barraneche	6	Junio	2023-06-25T00:00:00	2024-11-06T21:00:00	1	Precipitación	0
33776	7	Sololá	701	Sololá	3	Barraneche	6	Junio	2023-06-25T00:00:00	2024-11-06T21:00:00	8	Radiación solar	0
33777	7	Sololá	701	Sololá	3	Barraneche	6	Junio	2023-06-25T00:00:00	2024-11-06T22:00:00	2	Temperatura media	13.4
33778	7	Sololá	701	Sololá	3	Barraneche	6	Junio	2023-06-25T00:00:00	2024-11-06T22:00:00	4	Temperatura máxima	13.9
33779	7	Sololá	701	Sololá	3	Barraneche	6	Junio	2023-06-25T00:00:00	2024-11-06T22:00:00	3	Temperatura mínima	13.3
33780	7	Sololá	701	Sololá	3	Barraneche	6	Junio	2023-06-25T00:00:00	2024-11-06T22:00:00	5	Humedad	58
33781	7	Sololá	701	Sololá	3	Barraneche	6	Junio	2023-06-25T00:00:00	2024-11-06T22:00:00	6	Velocidad del viento	9.7
33782	7	Sololá	701	Sololá	3	Barraneche	6	Junio	2023-06-25T00:00:00	2024-11-06T22:00:00	7	Dirección del viento	9.66
33783	7	Sololá	701	Sololá	3	Barraneche	6	Junio	2023-06-25T00:00:00	2024-11-06T22:00:00	1	Precipitación	0
33784	7	Sololá	701	Sololá	3	Barraneche	6	Junio	2023-06-25T00:00:00	2024-11-06T22:00:00	8	Radiación solar	0
33785	7	Sololá	701	Sololá	3	Barraneche	6	Junio	2023-06-25T00:00:00	2024-11-06T23:00:00	2	Temperatura media	13.1
33786	7	Sololá	701	Sololá	3	Barraneche	6	Junio	2023-06-25T00:00:00	2024-11-06T23:00:00	4	Temperatura máxima	13.6
33787	7	Sololá	701	Sololá	3	Barraneche	6	Junio	2023-06-25T00:00:00	2024-11-06T23:00:00	3	Temperatura mínima	13.1
33788	7	Sololá	701	Sololá	3	Barraneche	6	Junio	2023-06-25T00:00:00	2024-11-06T23:00:00	5	Humedad	60
33789	7	Sololá	701	Sololá	3	Barraneche	6	Junio	2023-06-25T00:00:00	2024-11-06T23:00:00	6	Velocidad del viento	14.5
33790	7	Sololá	701	Sololá	3	Barraneche	6	Junio	2023-06-25T00:00:00	2024-11-06T23:00:00	7	Dirección del viento	14.48
33791	7	Sololá	701	Sololá	3	Barraneche	6	Junio	2023-06-25T00:00:00	2024-11-06T23:00:00	1	Precipitación	0
33792	7	Sololá	701	Sololá	3	Barraneche	6	Junio	2023-06-25T00:00:00	2024-11-06T23:00:00	8	Radiación solar	0
33793	7	Sololá	701	Sololá	3	Barraneche	6	Junio	2023-06-26T00:00:00	2024-11-06T00:00:00	2	Temperatura media	13.1
33794	7	Sololá	701	Sololá	3	Barraneche	6	Junio	2023-06-26T00:00:00	2024-11-06T00:00:00	4	Temperatura máxima	13.3
33795	7	Sololá	701	Sololá	3	Barraneche	6	Junio	2023-06-26T00:00:00	2024-11-06T00:00:00	3	Temperatura mínima	12.8
33796	7	Sololá	701	Sololá	3	Barraneche	6	Junio	2023-06-26T00:00:00	2024-11-06T00:00:00	5	Humedad	61
33797	7	Sololá	701	Sololá	3	Barraneche	6	Junio	2023-06-26T00:00:00	2024-11-06T00:00:00	6	Velocidad del viento	11.3
33798	7	Sololá	701	Sololá	3	Barraneche	6	Junio	2023-06-26T00:00:00	2024-11-06T00:00:00	7	Dirección del viento	11.27
33799	7	Sololá	701	Sololá	3	Barraneche	6	Junio	2023-06-26T00:00:00	2024-11-06T00:00:00	1	Precipitación	0
33800	7	Sololá	701	Sololá	3	Barraneche	6	Junio	2023-06-26T00:00:00	2024-11-06T00:00:00	8	Radiación solar	0
33801	7	Sololá	701	Sololá	3	Barraneche	6	Junio	2023-06-26T00:00:00	2024-11-06T01:00:00	2	Temperatura media	13.2
33802	7	Sololá	701	Sololá	3	Barraneche	6	Junio	2023-06-26T00:00:00	2024-11-06T01:00:00	4	Temperatura máxima	13.5
33803	7	Sololá	701	Sololá	3	Barraneche	6	Junio	2023-06-26T00:00:00	2024-11-06T01:00:00	3	Temperatura mínima	12.9
33804	7	Sololá	701	Sololá	3	Barraneche	6	Junio	2023-06-26T00:00:00	2024-11-06T01:00:00	5	Humedad	62
33805	7	Sololá	701	Sololá	3	Barraneche	6	Junio	2023-06-26T00:00:00	2024-11-06T01:00:00	6	Velocidad del viento	17.7
33806	7	Sololá	701	Sololá	3	Barraneche	6	Junio	2023-06-26T00:00:00	2024-11-06T01:00:00	7	Dirección del viento	17.7
33807	7	Sololá	701	Sololá	3	Barraneche	6	Junio	2023-06-26T00:00:00	2024-11-06T01:00:00	1	Precipitación	0
33808	7	Sololá	701	Sololá	3	Barraneche	6	Junio	2023-06-26T00:00:00	2024-11-06T01:00:00	8	Radiación solar	0
33809	7	Sololá	701	Sololá	3	Barraneche	6	Junio	2023-06-26T00:00:00	2024-11-06T02:00:00	2	Temperatura media	13.2
33810	7	Sololá	701	Sololá	3	Barraneche	6	Junio	2023-06-26T00:00:00	2024-11-06T02:00:00	4	Temperatura máxima	13.2
33811	7	Sololá	701	Sololá	3	Barraneche	6	Junio	2023-06-26T00:00:00	2024-11-06T02:00:00	3	Temperatura mínima	13.1
33812	7	Sololá	701	Sololá	3	Barraneche	6	Junio	2023-06-26T00:00:00	2024-11-06T02:00:00	5	Humedad	62
33813	7	Sololá	701	Sololá	3	Barraneche	6	Junio	2023-06-26T00:00:00	2024-11-06T02:00:00	6	Velocidad del viento	9.7
33814	7	Sololá	701	Sololá	3	Barraneche	6	Junio	2023-06-26T00:00:00	2024-11-06T02:00:00	7	Dirección del viento	9.66
33815	7	Sololá	701	Sololá	3	Barraneche	6	Junio	2023-06-26T00:00:00	2024-11-06T02:00:00	1	Precipitación	0
33816	7	Sololá	701	Sololá	3	Barraneche	6	Junio	2023-06-26T00:00:00	2024-11-06T02:00:00	8	Radiación solar	0
33817	7	Sololá	701	Sololá	3	Barraneche	6	Junio	2023-06-26T00:00:00	2024-11-06T03:00:00	2	Temperatura media	13.1
33818	7	Sololá	701	Sololá	3	Barraneche	6	Junio	2023-06-26T00:00:00	2024-11-06T03:00:00	4	Temperatura máxima	13.3
33819	7	Sololá	701	Sololá	3	Barraneche	6	Junio	2023-06-26T00:00:00	2024-11-06T03:00:00	3	Temperatura mínima	13.1
33820	7	Sololá	701	Sololá	3	Barraneche	6	Junio	2023-06-26T00:00:00	2024-11-06T03:00:00	5	Humedad	60
33821	7	Sololá	701	Sololá	3	Barraneche	6	Junio	2023-06-26T00:00:00	2024-11-06T03:00:00	6	Velocidad del viento	12.9
33822	7	Sololá	701	Sololá	3	Barraneche	6	Junio	2023-06-26T00:00:00	2024-11-06T03:00:00	7	Dirección del viento	12.87
33823	7	Sololá	701	Sololá	3	Barraneche	6	Junio	2023-06-26T00:00:00	2024-11-06T03:00:00	1	Precipitación	0
33824	7	Sololá	701	Sololá	3	Barraneche	6	Junio	2023-06-26T00:00:00	2024-11-06T03:00:00	8	Radiación solar	0
33825	7	Sololá	701	Sololá	3	Barraneche	6	Junio	2023-06-26T00:00:00	2024-11-06T04:00:00	2	Temperatura media	13.6
33826	7	Sololá	701	Sololá	3	Barraneche	6	Junio	2023-06-26T00:00:00	2024-11-06T04:00:00	4	Temperatura máxima	13.6
33827	7	Sololá	701	Sololá	3	Barraneche	6	Junio	2023-06-26T00:00:00	2024-11-06T04:00:00	3	Temperatura mínima	12.9
33828	7	Sololá	701	Sololá	3	Barraneche	6	Junio	2023-06-26T00:00:00	2024-11-06T04:00:00	5	Humedad	53
33829	7	Sololá	701	Sololá	3	Barraneche	6	Junio	2023-06-26T00:00:00	2024-11-06T04:00:00	6	Velocidad del viento	14.5
33830	7	Sololá	701	Sololá	3	Barraneche	6	Junio	2023-06-26T00:00:00	2024-11-06T04:00:00	7	Dirección del viento	14.48
33831	7	Sololá	701	Sololá	3	Barraneche	6	Junio	2023-06-26T00:00:00	2024-11-06T04:00:00	1	Precipitación	0
33832	7	Sololá	701	Sololá	3	Barraneche	6	Junio	2023-06-26T00:00:00	2024-11-06T04:00:00	8	Radiación solar	0
33833	7	Sololá	701	Sololá	3	Barraneche	6	Junio	2023-06-26T00:00:00	2024-11-06T05:00:00	2	Temperatura media	13.7
33834	7	Sololá	701	Sololá	3	Barraneche	6	Junio	2023-06-26T00:00:00	2024-11-06T05:00:00	4	Temperatura máxima	13.8
33835	7	Sololá	701	Sololá	3	Barraneche	6	Junio	2023-06-26T00:00:00	2024-11-06T05:00:00	3	Temperatura mínima	13.3
33836	7	Sololá	701	Sololá	3	Barraneche	6	Junio	2023-06-26T00:00:00	2024-11-06T05:00:00	5	Humedad	55
33837	7	Sololá	701	Sololá	3	Barraneche	6	Junio	2023-06-26T00:00:00	2024-11-06T05:00:00	6	Velocidad del viento	14.5
33838	7	Sololá	701	Sololá	3	Barraneche	6	Junio	2023-06-26T00:00:00	2024-11-06T05:00:00	7	Dirección del viento	14.48
33839	7	Sololá	701	Sololá	3	Barraneche	6	Junio	2023-06-26T00:00:00	2024-11-06T05:00:00	1	Precipitación	0
33840	7	Sololá	701	Sololá	3	Barraneche	6	Junio	2023-06-26T00:00:00	2024-11-06T05:00:00	8	Radiación solar	0
33841	7	Sololá	701	Sololá	3	Barraneche	6	Junio	2023-06-26T00:00:00	2024-11-06T06:00:00	2	Temperatura media	12.7
33842	7	Sololá	701	Sololá	3	Barraneche	6	Junio	2023-06-26T00:00:00	2024-11-06T06:00:00	4	Temperatura máxima	13.9
33843	7	Sololá	701	Sololá	3	Barraneche	6	Junio	2023-06-26T00:00:00	2024-11-06T06:00:00	3	Temperatura mínima	12.7
33844	7	Sololá	701	Sololá	3	Barraneche	6	Junio	2023-06-26T00:00:00	2024-11-06T06:00:00	5	Humedad	59
33845	7	Sololá	701	Sololá	3	Barraneche	6	Junio	2023-06-26T00:00:00	2024-11-06T06:00:00	6	Velocidad del viento	9.7
33846	7	Sololá	701	Sololá	3	Barraneche	6	Junio	2023-06-26T00:00:00	2024-11-06T06:00:00	7	Dirección del viento	9.66
33847	7	Sololá	701	Sololá	3	Barraneche	6	Junio	2023-06-26T00:00:00	2024-11-06T06:00:00	1	Precipitación	0
33848	7	Sololá	701	Sololá	3	Barraneche	6	Junio	2023-06-26T00:00:00	2024-11-06T06:00:00	8	Radiación solar	5
33849	7	Sololá	701	Sololá	3	Barraneche	6	Junio	2023-06-26T00:00:00	2024-11-06T07:00:00	2	Temperatura media	14.6
33850	7	Sololá	701	Sololá	3	Barraneche	6	Junio	2023-06-26T00:00:00	2024-11-06T07:00:00	4	Temperatura máxima	14.6
33851	7	Sololá	701	Sololá	3	Barraneche	6	Junio	2023-06-26T00:00:00	2024-11-06T07:00:00	3	Temperatura mínima	11.7
33852	7	Sololá	701	Sololá	3	Barraneche	6	Junio	2023-06-26T00:00:00	2024-11-06T07:00:00	5	Humedad	57
33853	7	Sololá	701	Sololá	3	Barraneche	6	Junio	2023-06-26T00:00:00	2024-11-06T07:00:00	6	Velocidad del viento	4.8
33854	7	Sololá	701	Sololá	3	Barraneche	6	Junio	2023-06-26T00:00:00	2024-11-06T07:00:00	7	Dirección del viento	4.83
33855	7	Sololá	701	Sololá	3	Barraneche	6	Junio	2023-06-26T00:00:00	2024-11-06T07:00:00	1	Precipitación	0
33856	7	Sololá	701	Sololá	3	Barraneche	6	Junio	2023-06-26T00:00:00	2024-11-06T07:00:00	8	Radiación solar	51
33857	7	Sololá	701	Sololá	3	Barraneche	6	Junio	2023-06-26T00:00:00	2024-11-06T08:00:00	2	Temperatura media	16.1
33858	7	Sololá	701	Sololá	3	Barraneche	6	Junio	2023-06-26T00:00:00	2024-11-06T08:00:00	4	Temperatura máxima	16.1
33859	7	Sololá	701	Sololá	3	Barraneche	6	Junio	2023-06-26T00:00:00	2024-11-06T08:00:00	3	Temperatura mínima	14.6
33860	7	Sololá	701	Sololá	3	Barraneche	6	Junio	2023-06-26T00:00:00	2024-11-06T08:00:00	5	Humedad	58
33861	7	Sololá	701	Sololá	3	Barraneche	6	Junio	2023-06-26T00:00:00	2024-11-06T08:00:00	6	Velocidad del viento	14.5
33862	7	Sololá	701	Sololá	3	Barraneche	6	Junio	2023-06-26T00:00:00	2024-11-06T08:00:00	7	Dirección del viento	14.48
33863	7	Sololá	701	Sololá	3	Barraneche	6	Junio	2023-06-26T00:00:00	2024-11-06T08:00:00	1	Precipitación	0
33864	7	Sololá	701	Sololá	3	Barraneche	6	Junio	2023-06-26T00:00:00	2024-11-06T08:00:00	8	Radiación solar	215
33865	7	Sololá	701	Sololá	3	Barraneche	6	Junio	2023-06-26T00:00:00	2024-11-06T09:00:00	2	Temperatura media	16.5
33866	7	Sololá	701	Sololá	3	Barraneche	6	Junio	2023-06-26T00:00:00	2024-11-06T09:00:00	4	Temperatura máxima	16.7
33867	7	Sololá	701	Sololá	3	Barraneche	6	Junio	2023-06-26T00:00:00	2024-11-06T09:00:00	3	Temperatura mínima	15.9
33868	7	Sololá	701	Sololá	3	Barraneche	6	Junio	2023-06-26T00:00:00	2024-11-06T09:00:00	5	Humedad	55
33869	7	Sololá	701	Sololá	3	Barraneche	6	Junio	2023-06-26T00:00:00	2024-11-06T09:00:00	6	Velocidad del viento	16.1
33870	7	Sololá	701	Sololá	3	Barraneche	6	Junio	2023-06-26T00:00:00	2024-11-06T09:00:00	7	Dirección del viento	16.09
33871	7	Sololá	701	Sololá	3	Barraneche	6	Junio	2023-06-26T00:00:00	2024-11-06T09:00:00	1	Precipitación	0
33872	7	Sololá	701	Sololá	3	Barraneche	6	Junio	2023-06-26T00:00:00	2024-11-06T09:00:00	8	Radiación solar	319
33873	7	Sololá	701	Sololá	3	Barraneche	6	Junio	2023-06-26T00:00:00	2024-11-06T10:00:00	2	Temperatura media	18.9
33874	7	Sololá	701	Sololá	3	Barraneche	6	Junio	2023-06-26T00:00:00	2024-11-06T10:00:00	4	Temperatura máxima	18.9
33875	7	Sololá	701	Sololá	3	Barraneche	6	Junio	2023-06-26T00:00:00	2024-11-06T10:00:00	3	Temperatura mínima	16.4
33876	7	Sololá	701	Sololá	3	Barraneche	6	Junio	2023-06-26T00:00:00	2024-11-06T10:00:00	5	Humedad	50
33877	7	Sololá	701	Sololá	3	Barraneche	6	Junio	2023-06-26T00:00:00	2024-11-06T10:00:00	6	Velocidad del viento	11.3
33878	7	Sololá	701	Sololá	3	Barraneche	6	Junio	2023-06-26T00:00:00	2024-11-06T10:00:00	7	Dirección del viento	11.27
33879	7	Sololá	701	Sololá	3	Barraneche	6	Junio	2023-06-26T00:00:00	2024-11-06T10:00:00	1	Precipitación	0
33880	7	Sololá	701	Sololá	3	Barraneche	6	Junio	2023-06-26T00:00:00	2024-11-06T10:00:00	8	Radiación solar	499
33881	7	Sololá	701	Sololá	3	Barraneche	6	Junio	2023-06-26T00:00:00	2024-11-06T11:00:00	2	Temperatura media	18.3
33882	7	Sololá	701	Sololá	3	Barraneche	6	Junio	2023-06-26T00:00:00	2024-11-06T11:00:00	4	Temperatura máxima	18.9
33883	7	Sololá	701	Sololá	3	Barraneche	6	Junio	2023-06-26T00:00:00	2024-11-06T11:00:00	3	Temperatura mínima	17.8
33884	7	Sololá	701	Sololá	3	Barraneche	6	Junio	2023-06-26T00:00:00	2024-11-06T11:00:00	5	Humedad	51
33885	7	Sololá	701	Sololá	3	Barraneche	6	Junio	2023-06-26T00:00:00	2024-11-06T11:00:00	6	Velocidad del viento	12.9
33886	7	Sololá	701	Sololá	3	Barraneche	6	Junio	2023-06-26T00:00:00	2024-11-06T11:00:00	7	Dirección del viento	12.87
33887	7	Sololá	701	Sololá	3	Barraneche	6	Junio	2023-06-26T00:00:00	2024-11-06T11:00:00	1	Precipitación	0
33888	7	Sololá	701	Sololá	3	Barraneche	6	Junio	2023-06-26T00:00:00	2024-11-06T11:00:00	8	Radiación solar	607
33889	7	Sololá	701	Sololá	3	Barraneche	6	Junio	2023-06-26T00:00:00	2024-11-06T12:00:00	2	Temperatura media	18.8
33890	7	Sololá	701	Sololá	3	Barraneche	6	Junio	2023-06-26T00:00:00	2024-11-06T12:00:00	4	Temperatura máxima	18.8
33891	7	Sololá	701	Sololá	3	Barraneche	6	Junio	2023-06-26T00:00:00	2024-11-06T12:00:00	3	Temperatura mínima	18.1
33892	7	Sololá	701	Sololá	3	Barraneche	6	Junio	2023-06-26T00:00:00	2024-11-06T12:00:00	5	Humedad	54
33893	7	Sololá	701	Sololá	3	Barraneche	6	Junio	2023-06-26T00:00:00	2024-11-06T12:00:00	6	Velocidad del viento	17.7
33894	7	Sololá	701	Sololá	3	Barraneche	6	Junio	2023-06-26T00:00:00	2024-11-06T12:00:00	7	Dirección del viento	17.7
33895	7	Sololá	701	Sololá	3	Barraneche	6	Junio	2023-06-26T00:00:00	2024-11-06T12:00:00	1	Precipitación	0
33896	7	Sololá	701	Sololá	3	Barraneche	6	Junio	2023-06-26T00:00:00	2024-11-06T12:00:00	8	Radiación solar	872
33897	7	Sololá	701	Sololá	3	Barraneche	6	Junio	2023-06-26T00:00:00	2024-11-06T13:00:00	2	Temperatura media	19.3
33898	7	Sololá	701	Sololá	3	Barraneche	6	Junio	2023-06-26T00:00:00	2024-11-06T13:00:00	4	Temperatura máxima	19.5
33899	7	Sololá	701	Sololá	3	Barraneche	6	Junio	2023-06-26T00:00:00	2024-11-06T13:00:00	3	Temperatura mínima	18.7
33900	7	Sololá	701	Sololá	3	Barraneche	6	Junio	2023-06-26T00:00:00	2024-11-06T13:00:00	5	Humedad	52
33901	7	Sololá	701	Sololá	3	Barraneche	6	Junio	2023-06-26T00:00:00	2024-11-06T13:00:00	6	Velocidad del viento	17.7
33902	7	Sololá	701	Sololá	3	Barraneche	6	Junio	2023-06-26T00:00:00	2024-11-06T13:00:00	7	Dirección del viento	17.7
33903	7	Sololá	701	Sololá	3	Barraneche	6	Junio	2023-06-26T00:00:00	2024-11-06T13:00:00	1	Precipitación	0
33904	7	Sololá	701	Sololá	3	Barraneche	6	Junio	2023-06-26T00:00:00	2024-11-06T13:00:00	8	Radiación solar	1069
33905	7	Sololá	701	Sololá	3	Barraneche	6	Junio	2023-06-26T00:00:00	2024-11-06T14:00:00	2	Temperatura media	19.9
33906	7	Sololá	701	Sololá	3	Barraneche	6	Junio	2023-06-26T00:00:00	2024-11-06T14:00:00	4	Temperatura máxima	20.2
33907	7	Sololá	701	Sololá	3	Barraneche	6	Junio	2023-06-26T00:00:00	2024-11-06T14:00:00	3	Temperatura mínima	19.2
33908	7	Sololá	701	Sololá	3	Barraneche	6	Junio	2023-06-26T00:00:00	2024-11-06T14:00:00	5	Humedad	50
33909	7	Sololá	701	Sololá	3	Barraneche	6	Junio	2023-06-26T00:00:00	2024-11-06T14:00:00	6	Velocidad del viento	12.9
33910	7	Sololá	701	Sololá	3	Barraneche	6	Junio	2023-06-26T00:00:00	2024-11-06T14:00:00	7	Dirección del viento	12.87
33911	7	Sololá	701	Sololá	3	Barraneche	6	Junio	2023-06-26T00:00:00	2024-11-06T14:00:00	1	Precipitación	0
33912	7	Sololá	701	Sololá	3	Barraneche	6	Junio	2023-06-26T00:00:00	2024-11-06T14:00:00	8	Radiación solar	944
33913	7	Sololá	701	Sololá	3	Barraneche	6	Junio	2023-06-26T00:00:00	2024-11-06T15:00:00	2	Temperatura media	19.2
33914	7	Sololá	701	Sololá	3	Barraneche	6	Junio	2023-06-26T00:00:00	2024-11-06T15:00:00	4	Temperatura máxima	19.9
33915	7	Sololá	701	Sololá	3	Barraneche	6	Junio	2023-06-26T00:00:00	2024-11-06T15:00:00	3	Temperatura mínima	19.2
33916	7	Sololá	701	Sololá	3	Barraneche	6	Junio	2023-06-26T00:00:00	2024-11-06T15:00:00	5	Humedad	51
33917	7	Sololá	701	Sololá	3	Barraneche	6	Junio	2023-06-26T00:00:00	2024-11-06T15:00:00	6	Velocidad del viento	14.5
33918	7	Sololá	701	Sololá	3	Barraneche	6	Junio	2023-06-26T00:00:00	2024-11-06T15:00:00	7	Dirección del viento	14.48
33919	7	Sololá	701	Sololá	3	Barraneche	6	Junio	2023-06-26T00:00:00	2024-11-06T15:00:00	1	Precipitación	0
33920	7	Sololá	701	Sololá	3	Barraneche	6	Junio	2023-06-26T00:00:00	2024-11-06T15:00:00	8	Radiación solar	777
33921	7	Sololá	701	Sololá	3	Barraneche	6	Junio	2023-06-26T00:00:00	2024-11-06T16:00:00	2	Temperatura media	19.4
33922	7	Sololá	701	Sololá	3	Barraneche	6	Junio	2023-06-26T00:00:00	2024-11-06T16:00:00	4	Temperatura máxima	19.7
33923	7	Sololá	701	Sololá	3	Barraneche	6	Junio	2023-06-26T00:00:00	2024-11-06T16:00:00	3	Temperatura mínima	18.8
33924	7	Sololá	701	Sololá	3	Barraneche	6	Junio	2023-06-26T00:00:00	2024-11-06T16:00:00	5	Humedad	50
33925	7	Sololá	701	Sololá	3	Barraneche	6	Junio	2023-06-26T00:00:00	2024-11-06T16:00:00	6	Velocidad del viento	12.9
33926	7	Sololá	701	Sololá	3	Barraneche	6	Junio	2023-06-26T00:00:00	2024-11-06T16:00:00	7	Dirección del viento	12.87
33927	7	Sololá	701	Sololá	3	Barraneche	6	Junio	2023-06-26T00:00:00	2024-11-06T16:00:00	1	Precipitación	0
33928	7	Sololá	701	Sololá	3	Barraneche	6	Junio	2023-06-26T00:00:00	2024-11-06T16:00:00	8	Radiación solar	605
33929	7	Sololá	701	Sololá	3	Barraneche	6	Junio	2023-06-26T00:00:00	2024-11-06T17:00:00	2	Temperatura media	19.8
33930	7	Sololá	701	Sololá	3	Barraneche	6	Junio	2023-06-26T00:00:00	2024-11-06T17:00:00	4	Temperatura máxima	19.8
33931	7	Sololá	701	Sololá	3	Barraneche	6	Junio	2023-06-26T00:00:00	2024-11-06T17:00:00	3	Temperatura mínima	19.2
33932	7	Sololá	701	Sololá	3	Barraneche	6	Junio	2023-06-26T00:00:00	2024-11-06T17:00:00	5	Humedad	50
33933	7	Sololá	701	Sololá	3	Barraneche	6	Junio	2023-06-26T00:00:00	2024-11-06T17:00:00	6	Velocidad del viento	9.7
33934	7	Sololá	701	Sololá	3	Barraneche	6	Junio	2023-06-26T00:00:00	2024-11-06T17:00:00	7	Dirección del viento	9.66
33935	7	Sololá	701	Sololá	3	Barraneche	6	Junio	2023-06-26T00:00:00	2024-11-06T17:00:00	1	Precipitación	0
33936	7	Sololá	701	Sololá	3	Barraneche	6	Junio	2023-06-26T00:00:00	2024-11-06T17:00:00	8	Radiación solar	424
33937	7	Sololá	701	Sololá	3	Barraneche	6	Junio	2023-06-26T00:00:00	2024-11-06T18:00:00	2	Temperatura media	17.2
33938	7	Sololá	701	Sololá	3	Barraneche	6	Junio	2023-06-26T00:00:00	2024-11-06T18:00:00	4	Temperatura máxima	19.8
33939	7	Sololá	701	Sololá	3	Barraneche	6	Junio	2023-06-26T00:00:00	2024-11-06T18:00:00	3	Temperatura mínima	17.2
33940	7	Sololá	701	Sololá	3	Barraneche	6	Junio	2023-06-26T00:00:00	2024-11-06T18:00:00	5	Humedad	60
33941	7	Sololá	701	Sololá	3	Barraneche	6	Junio	2023-06-26T00:00:00	2024-11-06T18:00:00	6	Velocidad del viento	9.7
33942	7	Sololá	701	Sololá	3	Barraneche	6	Junio	2023-06-26T00:00:00	2024-11-06T18:00:00	7	Dirección del viento	9.66
33943	7	Sololá	701	Sololá	3	Barraneche	6	Junio	2023-06-26T00:00:00	2024-11-06T18:00:00	1	Precipitación	0
33944	7	Sololá	701	Sololá	3	Barraneche	6	Junio	2023-06-26T00:00:00	2024-11-06T18:00:00	8	Radiación solar	149
33945	7	Sololá	701	Sololá	3	Barraneche	6	Junio	2023-06-26T00:00:00	2024-11-06T19:00:00	2	Temperatura media	16.4
33946	7	Sololá	701	Sololá	3	Barraneche	6	Junio	2023-06-26T00:00:00	2024-11-06T19:00:00	4	Temperatura máxima	17.3
33947	7	Sololá	701	Sololá	3	Barraneche	6	Junio	2023-06-26T00:00:00	2024-11-06T19:00:00	3	Temperatura mínima	16.4
33948	7	Sololá	701	Sololá	3	Barraneche	6	Junio	2023-06-26T00:00:00	2024-11-06T19:00:00	5	Humedad	64
33949	7	Sololá	701	Sololá	3	Barraneche	6	Junio	2023-06-26T00:00:00	2024-11-06T19:00:00	6	Velocidad del viento	8
33950	7	Sololá	701	Sololá	3	Barraneche	6	Junio	2023-06-26T00:00:00	2024-11-06T19:00:00	7	Dirección del viento	8.05
33951	7	Sololá	701	Sololá	3	Barraneche	6	Junio	2023-06-26T00:00:00	2024-11-06T19:00:00	1	Precipitación	0
33952	7	Sololá	701	Sololá	3	Barraneche	6	Junio	2023-06-26T00:00:00	2024-11-06T19:00:00	8	Radiación solar	0
33953	7	Sololá	701	Sololá	3	Barraneche	6	Junio	2023-06-26T00:00:00	2024-11-06T20:00:00	2	Temperatura media	16.3
33954	7	Sololá	701	Sololá	3	Barraneche	6	Junio	2023-06-26T00:00:00	2024-11-06T20:00:00	4	Temperatura máxima	16.4
33955	7	Sololá	701	Sololá	3	Barraneche	6	Junio	2023-06-26T00:00:00	2024-11-06T20:00:00	3	Temperatura mínima	16.2
33956	7	Sololá	701	Sololá	3	Barraneche	6	Junio	2023-06-26T00:00:00	2024-11-06T20:00:00	5	Humedad	64
33957	7	Sololá	701	Sololá	3	Barraneche	6	Junio	2023-06-26T00:00:00	2024-11-06T20:00:00	6	Velocidad del viento	9.7
33958	7	Sololá	701	Sololá	3	Barraneche	6	Junio	2023-06-26T00:00:00	2024-11-06T20:00:00	7	Dirección del viento	9.66
33959	7	Sololá	701	Sololá	3	Barraneche	6	Junio	2023-06-26T00:00:00	2024-11-06T20:00:00	1	Precipitación	0
33960	7	Sololá	701	Sololá	3	Barraneche	6	Junio	2023-06-26T00:00:00	2024-11-06T20:00:00	8	Radiación solar	0
33961	7	Sololá	701	Sololá	3	Barraneche	6	Junio	2023-06-26T00:00:00	2024-11-06T21:00:00	2	Temperatura media	14.1
33962	7	Sololá	701	Sololá	3	Barraneche	6	Junio	2023-06-26T00:00:00	2024-11-06T21:00:00	4	Temperatura máxima	16.2
33963	7	Sololá	701	Sololá	3	Barraneche	6	Junio	2023-06-26T00:00:00	2024-11-06T21:00:00	3	Temperatura mínima	14.1
33964	7	Sololá	701	Sololá	3	Barraneche	6	Junio	2023-06-26T00:00:00	2024-11-06T21:00:00	5	Humedad	69
33965	7	Sololá	701	Sololá	3	Barraneche	6	Junio	2023-06-26T00:00:00	2024-11-06T21:00:00	6	Velocidad del viento	14.5
33966	7	Sololá	701	Sololá	3	Barraneche	6	Junio	2023-06-26T00:00:00	2024-11-06T21:00:00	7	Dirección del viento	14.48
33967	7	Sololá	701	Sololá	3	Barraneche	6	Junio	2023-06-26T00:00:00	2024-11-06T21:00:00	1	Precipitación	0.6
33968	7	Sololá	701	Sololá	3	Barraneche	6	Junio	2023-06-26T00:00:00	2024-11-06T21:00:00	8	Radiación solar	0
33969	7	Sololá	701	Sololá	3	Barraneche	6	Junio	2023-06-26T00:00:00	2024-11-06T22:00:00	2	Temperatura media	13.1
33970	7	Sololá	701	Sololá	3	Barraneche	6	Junio	2023-06-26T00:00:00	2024-11-06T22:00:00	4	Temperatura máxima	14.1
33971	7	Sololá	701	Sololá	3	Barraneche	6	Junio	2023-06-26T00:00:00	2024-11-06T22:00:00	3	Temperatura mínima	13.1
33972	7	Sololá	701	Sololá	3	Barraneche	6	Junio	2023-06-26T00:00:00	2024-11-06T22:00:00	5	Humedad	69
33973	7	Sololá	701	Sololá	3	Barraneche	6	Junio	2023-06-26T00:00:00	2024-11-06T22:00:00	6	Velocidad del viento	19.3
33974	7	Sololá	701	Sololá	3	Barraneche	6	Junio	2023-06-26T00:00:00	2024-11-06T22:00:00	7	Dirección del viento	19.31
33975	7	Sololá	701	Sololá	3	Barraneche	6	Junio	2023-06-26T00:00:00	2024-11-06T22:00:00	1	Precipitación	5
33976	7	Sololá	701	Sololá	3	Barraneche	6	Junio	2023-06-26T00:00:00	2024-11-06T22:00:00	8	Radiación solar	0
33977	7	Sololá	701	Sololá	3	Barraneche	6	Junio	2023-06-26T00:00:00	2024-11-06T23:00:00	2	Temperatura media	14.2
33978	7	Sololá	701	Sololá	3	Barraneche	6	Junio	2023-06-26T00:00:00	2024-11-06T23:00:00	4	Temperatura máxima	14.2
33979	7	Sololá	701	Sololá	3	Barraneche	6	Junio	2023-06-26T00:00:00	2024-11-06T23:00:00	3	Temperatura mínima	13
33980	7	Sololá	701	Sololá	3	Barraneche	6	Junio	2023-06-26T00:00:00	2024-11-06T23:00:00	5	Humedad	67
33981	7	Sololá	701	Sololá	3	Barraneche	6	Junio	2023-06-26T00:00:00	2024-11-06T23:00:00	6	Velocidad del viento	14.5
33982	7	Sololá	701	Sololá	3	Barraneche	6	Junio	2023-06-26T00:00:00	2024-11-06T23:00:00	7	Dirección del viento	14.48
33983	7	Sololá	701	Sololá	3	Barraneche	6	Junio	2023-06-26T00:00:00	2024-11-06T23:00:00	1	Precipitación	0.2
33984	7	Sololá	701	Sololá	3	Barraneche	6	Junio	2023-06-26T00:00:00	2024-11-06T23:00:00	8	Radiación solar	0
33985	7	Sololá	701	Sololá	3	Barraneche	6	Junio	2023-06-27T00:00:00	2024-11-06T00:00:00	2	Temperatura media	14.3
33986	7	Sololá	701	Sololá	3	Barraneche	6	Junio	2023-06-27T00:00:00	2024-11-06T00:00:00	4	Temperatura máxima	14.4
33987	7	Sololá	701	Sololá	3	Barraneche	6	Junio	2023-06-27T00:00:00	2024-11-06T00:00:00	3	Temperatura mínima	14.1
33988	7	Sololá	701	Sololá	3	Barraneche	6	Junio	2023-06-27T00:00:00	2024-11-06T00:00:00	5	Humedad	66
33989	7	Sololá	701	Sololá	3	Barraneche	6	Junio	2023-06-27T00:00:00	2024-11-06T00:00:00	6	Velocidad del viento	14.5
33990	7	Sololá	701	Sololá	3	Barraneche	6	Junio	2023-06-27T00:00:00	2024-11-06T00:00:00	7	Dirección del viento	14.48
33991	7	Sololá	701	Sololá	3	Barraneche	6	Junio	2023-06-27T00:00:00	2024-11-06T00:00:00	1	Precipitación	0
33992	7	Sololá	701	Sololá	3	Barraneche	6	Junio	2023-06-27T00:00:00	2024-11-06T00:00:00	8	Radiación solar	0
33993	7	Sololá	701	Sololá	3	Barraneche	6	Junio	2023-06-27T00:00:00	2024-11-06T01:00:00	2	Temperatura media	14.3
33994	7	Sololá	701	Sololá	3	Barraneche	6	Junio	2023-06-27T00:00:00	2024-11-06T01:00:00	4	Temperatura máxima	14.4
33995	7	Sololá	701	Sololá	3	Barraneche	6	Junio	2023-06-27T00:00:00	2024-11-06T01:00:00	3	Temperatura mínima	14.3
33996	7	Sololá	701	Sololá	3	Barraneche	6	Junio	2023-06-27T00:00:00	2024-11-06T01:00:00	5	Humedad	66
33997	7	Sololá	701	Sololá	3	Barraneche	6	Junio	2023-06-27T00:00:00	2024-11-06T01:00:00	6	Velocidad del viento	12.9
33998	7	Sololá	701	Sololá	3	Barraneche	6	Junio	2023-06-27T00:00:00	2024-11-06T01:00:00	7	Dirección del viento	12.87
33999	7	Sololá	701	Sololá	3	Barraneche	6	Junio	2023-06-27T00:00:00	2024-11-06T01:00:00	1	Precipitación	0
34000	7	Sololá	701	Sololá	3	Barraneche	6	Junio	2023-06-27T00:00:00	2024-11-06T01:00:00	8	Radiación solar	0
34001	7	Sololá	701	Sololá	3	Barraneche	6	Junio	2023-06-27T00:00:00	2024-11-06T02:00:00	2	Temperatura media	14.2
34002	7	Sololá	701	Sololá	3	Barraneche	6	Junio	2023-06-27T00:00:00	2024-11-06T02:00:00	4	Temperatura máxima	14.6
34003	7	Sololá	701	Sololá	3	Barraneche	6	Junio	2023-06-27T00:00:00	2024-11-06T02:00:00	3	Temperatura mínima	14.1
34004	7	Sololá	701	Sololá	3	Barraneche	6	Junio	2023-06-27T00:00:00	2024-11-06T02:00:00	5	Humedad	66
34005	7	Sololá	701	Sololá	3	Barraneche	6	Junio	2023-06-27T00:00:00	2024-11-06T02:00:00	6	Velocidad del viento	11.3
34006	7	Sololá	701	Sololá	3	Barraneche	6	Junio	2023-06-27T00:00:00	2024-11-06T02:00:00	7	Dirección del viento	11.27
34007	7	Sololá	701	Sololá	3	Barraneche	6	Junio	2023-06-27T00:00:00	2024-11-06T02:00:00	1	Precipitación	0
34008	7	Sololá	701	Sololá	3	Barraneche	6	Junio	2023-06-27T00:00:00	2024-11-06T02:00:00	8	Radiación solar	0
34009	7	Sololá	701	Sololá	3	Barraneche	6	Junio	2023-06-27T00:00:00	2024-11-06T03:00:00	2	Temperatura media	14.1
34010	7	Sololá	701	Sololá	3	Barraneche	6	Junio	2023-06-27T00:00:00	2024-11-06T03:00:00	4	Temperatura máxima	14.2
34011	7	Sololá	701	Sololá	3	Barraneche	6	Junio	2023-06-27T00:00:00	2024-11-06T03:00:00	3	Temperatura mínima	13.9
34012	7	Sololá	701	Sololá	3	Barraneche	6	Junio	2023-06-27T00:00:00	2024-11-06T03:00:00	5	Humedad	65
34013	7	Sololá	701	Sololá	3	Barraneche	6	Junio	2023-06-27T00:00:00	2024-11-06T03:00:00	6	Velocidad del viento	11.3
34014	7	Sololá	701	Sololá	3	Barraneche	6	Junio	2023-06-27T00:00:00	2024-11-06T03:00:00	7	Dirección del viento	11.27
34015	7	Sololá	701	Sololá	3	Barraneche	6	Junio	2023-06-27T00:00:00	2024-11-06T03:00:00	1	Precipitación	0
34016	7	Sololá	701	Sololá	3	Barraneche	6	Junio	2023-06-27T00:00:00	2024-11-06T03:00:00	8	Radiación solar	0
34017	7	Sololá	701	Sololá	3	Barraneche	6	Junio	2023-06-27T00:00:00	2024-11-06T04:00:00	2	Temperatura media	13.9
34018	7	Sololá	701	Sololá	3	Barraneche	6	Junio	2023-06-27T00:00:00	2024-11-06T04:00:00	4	Temperatura máxima	14.5
34019	7	Sololá	701	Sololá	3	Barraneche	6	Junio	2023-06-27T00:00:00	2024-11-06T04:00:00	3	Temperatura mínima	13.9
34020	7	Sololá	701	Sololá	3	Barraneche	6	Junio	2023-06-27T00:00:00	2024-11-06T04:00:00	5	Humedad	67
34021	7	Sololá	701	Sololá	3	Barraneche	6	Junio	2023-06-27T00:00:00	2024-11-06T04:00:00	6	Velocidad del viento	11.3
34022	7	Sololá	701	Sololá	3	Barraneche	6	Junio	2023-06-27T00:00:00	2024-11-06T04:00:00	7	Dirección del viento	11.27
34023	7	Sololá	701	Sololá	3	Barraneche	6	Junio	2023-06-27T00:00:00	2024-11-06T04:00:00	1	Precipitación	0
34024	7	Sololá	701	Sololá	3	Barraneche	6	Junio	2023-06-27T00:00:00	2024-11-06T04:00:00	8	Radiación solar	0
34025	7	Sololá	701	Sololá	3	Barraneche	6	Junio	2023-06-27T00:00:00	2024-11-06T05:00:00	2	Temperatura media	14.6
34026	7	Sololá	701	Sololá	3	Barraneche	6	Junio	2023-06-27T00:00:00	2024-11-06T05:00:00	4	Temperatura máxima	14.6
34027	7	Sololá	701	Sololá	3	Barraneche	6	Junio	2023-06-27T00:00:00	2024-11-06T05:00:00	3	Temperatura mínima	13.9
34028	7	Sololá	701	Sololá	3	Barraneche	6	Junio	2023-06-27T00:00:00	2024-11-06T05:00:00	5	Humedad	61
34029	7	Sololá	701	Sololá	3	Barraneche	6	Junio	2023-06-27T00:00:00	2024-11-06T05:00:00	6	Velocidad del viento	9.7
34030	7	Sololá	701	Sololá	3	Barraneche	6	Junio	2023-06-27T00:00:00	2024-11-06T05:00:00	7	Dirección del viento	9.66
34031	7	Sololá	701	Sololá	3	Barraneche	6	Junio	2023-06-27T00:00:00	2024-11-06T05:00:00	1	Precipitación	0
34032	7	Sololá	701	Sololá	3	Barraneche	6	Junio	2023-06-27T00:00:00	2024-11-06T05:00:00	8	Radiación solar	0
34033	7	Sololá	701	Sololá	3	Barraneche	6	Junio	2023-06-27T00:00:00	2024-11-06T06:00:00	2	Temperatura media	14.6
34034	7	Sololá	701	Sololá	3	Barraneche	6	Junio	2023-06-27T00:00:00	2024-11-06T06:00:00	4	Temperatura máxima	14.8
34035	7	Sololá	701	Sololá	3	Barraneche	6	Junio	2023-06-27T00:00:00	2024-11-06T06:00:00	3	Temperatura mínima	14.5
34036	7	Sololá	701	Sololá	3	Barraneche	6	Junio	2023-06-27T00:00:00	2024-11-06T06:00:00	5	Humedad	58
34037	7	Sololá	701	Sololá	3	Barraneche	6	Junio	2023-06-27T00:00:00	2024-11-06T06:00:00	6	Velocidad del viento	11.3
34038	7	Sololá	701	Sololá	3	Barraneche	6	Junio	2023-06-27T00:00:00	2024-11-06T06:00:00	7	Dirección del viento	11.27
34039	7	Sololá	701	Sololá	3	Barraneche	6	Junio	2023-06-27T00:00:00	2024-11-06T06:00:00	1	Precipitación	0
34040	7	Sololá	701	Sololá	3	Barraneche	6	Junio	2023-06-27T00:00:00	2024-11-06T06:00:00	8	Radiación solar	3
34041	7	Sololá	701	Sololá	3	Barraneche	6	Junio	2023-06-27T00:00:00	2024-11-06T07:00:00	2	Temperatura media	14.8
34042	7	Sololá	701	Sololá	3	Barraneche	6	Junio	2023-06-27T00:00:00	2024-11-06T07:00:00	4	Temperatura máxima	14.8
34043	7	Sololá	701	Sololá	3	Barraneche	6	Junio	2023-06-27T00:00:00	2024-11-06T07:00:00	3	Temperatura mínima	14.3
34044	7	Sololá	701	Sololá	3	Barraneche	6	Junio	2023-06-27T00:00:00	2024-11-06T07:00:00	5	Humedad	58
34045	7	Sololá	701	Sololá	3	Barraneche	6	Junio	2023-06-27T00:00:00	2024-11-06T07:00:00	6	Velocidad del viento	11.3
34046	7	Sololá	701	Sololá	3	Barraneche	6	Junio	2023-06-27T00:00:00	2024-11-06T07:00:00	7	Dirección del viento	11.27
34047	7	Sololá	701	Sololá	3	Barraneche	6	Junio	2023-06-27T00:00:00	2024-11-06T07:00:00	1	Precipitación	0
34048	7	Sololá	701	Sololá	3	Barraneche	6	Junio	2023-06-27T00:00:00	2024-11-06T07:00:00	8	Radiación solar	70
34049	7	Sololá	701	Sololá	3	Barraneche	6	Junio	2023-06-27T00:00:00	2024-11-06T08:00:00	2	Temperatura media	16.2
34050	7	Sololá	701	Sololá	3	Barraneche	6	Junio	2023-06-27T00:00:00	2024-11-06T08:00:00	4	Temperatura máxima	16.2
34051	7	Sololá	701	Sololá	3	Barraneche	6	Junio	2023-06-27T00:00:00	2024-11-06T08:00:00	3	Temperatura mínima	14.8
34052	7	Sololá	701	Sololá	3	Barraneche	6	Junio	2023-06-27T00:00:00	2024-11-06T08:00:00	5	Humedad	55
34053	7	Sololá	701	Sololá	3	Barraneche	6	Junio	2023-06-27T00:00:00	2024-11-06T08:00:00	6	Velocidad del viento	8
34054	7	Sololá	701	Sololá	3	Barraneche	6	Junio	2023-06-27T00:00:00	2024-11-06T08:00:00	7	Dirección del viento	8.05
34055	7	Sololá	701	Sololá	3	Barraneche	6	Junio	2023-06-27T00:00:00	2024-11-06T08:00:00	1	Precipitación	0
34056	7	Sololá	701	Sololá	3	Barraneche	6	Junio	2023-06-27T00:00:00	2024-11-06T08:00:00	8	Radiación solar	256
34057	7	Sololá	701	Sololá	3	Barraneche	6	Junio	2023-06-27T00:00:00	2024-11-06T09:00:00	2	Temperatura media	17.7
34058	7	Sololá	701	Sololá	3	Barraneche	6	Junio	2023-06-27T00:00:00	2024-11-06T09:00:00	4	Temperatura máxima	17.7
34059	7	Sololá	701	Sololá	3	Barraneche	6	Junio	2023-06-27T00:00:00	2024-11-06T09:00:00	3	Temperatura mínima	16.2
34060	7	Sololá	701	Sololá	3	Barraneche	6	Junio	2023-06-27T00:00:00	2024-11-06T09:00:00	5	Humedad	54
34061	7	Sololá	701	Sololá	3	Barraneche	6	Junio	2023-06-27T00:00:00	2024-11-06T09:00:00	6	Velocidad del viento	11.3
34062	7	Sololá	701	Sololá	3	Barraneche	6	Junio	2023-06-27T00:00:00	2024-11-06T09:00:00	7	Dirección del viento	11.27
34063	7	Sololá	701	Sololá	3	Barraneche	6	Junio	2023-06-27T00:00:00	2024-11-06T09:00:00	1	Precipitación	0
34064	7	Sololá	701	Sololá	3	Barraneche	6	Junio	2023-06-27T00:00:00	2024-11-06T09:00:00	8	Radiación solar	558
34065	7	Sololá	701	Sololá	3	Barraneche	6	Junio	2023-06-27T00:00:00	2024-11-06T10:00:00	2	Temperatura media	17.1
34066	7	Sololá	701	Sololá	3	Barraneche	6	Junio	2023-06-27T00:00:00	2024-11-06T10:00:00	4	Temperatura máxima	18.5
34067	7	Sololá	701	Sololá	3	Barraneche	6	Junio	2023-06-27T00:00:00	2024-11-06T10:00:00	3	Temperatura mínima	17.1
34068	7	Sololá	701	Sololá	3	Barraneche	6	Junio	2023-06-27T00:00:00	2024-11-06T10:00:00	5	Humedad	58
34069	7	Sololá	701	Sololá	3	Barraneche	6	Junio	2023-06-27T00:00:00	2024-11-06T10:00:00	6	Velocidad del viento	9.7
34070	7	Sololá	701	Sololá	3	Barraneche	6	Junio	2023-06-27T00:00:00	2024-11-06T10:00:00	7	Dirección del viento	9.66
34071	7	Sololá	701	Sololá	3	Barraneche	6	Junio	2023-06-27T00:00:00	2024-11-06T10:00:00	1	Precipitación	0
34072	7	Sololá	701	Sololá	3	Barraneche	6	Junio	2023-06-27T00:00:00	2024-11-06T10:00:00	8	Radiación solar	487
34073	7	Sololá	701	Sololá	3	Barraneche	6	Junio	2023-06-27T00:00:00	2024-11-06T11:00:00	2	Temperatura media	15.4
34074	7	Sololá	701	Sololá	3	Barraneche	6	Junio	2023-06-27T00:00:00	2024-11-06T11:00:00	4	Temperatura máxima	17.1
34075	7	Sololá	701	Sololá	3	Barraneche	6	Junio	2023-06-27T00:00:00	2024-11-06T11:00:00	3	Temperatura mínima	15.4
34076	7	Sololá	701	Sololá	3	Barraneche	6	Junio	2023-06-27T00:00:00	2024-11-06T11:00:00	5	Humedad	65
34077	7	Sololá	701	Sololá	3	Barraneche	6	Junio	2023-06-27T00:00:00	2024-11-06T11:00:00	6	Velocidad del viento	8
34078	7	Sololá	701	Sololá	3	Barraneche	6	Junio	2023-06-27T00:00:00	2024-11-06T11:00:00	7	Dirección del viento	8.05
34079	7	Sololá	701	Sololá	3	Barraneche	6	Junio	2023-06-27T00:00:00	2024-11-06T11:00:00	1	Precipitación	0
34080	7	Sololá	701	Sololá	3	Barraneche	6	Junio	2023-06-27T00:00:00	2024-11-06T11:00:00	8	Radiación solar	178
34081	7	Sololá	701	Sololá	3	Barraneche	6	Junio	2023-06-27T00:00:00	2024-11-06T12:00:00	2	Temperatura media	16.3
34082	7	Sololá	701	Sololá	3	Barraneche	6	Junio	2023-06-27T00:00:00	2024-11-06T12:00:00	4	Temperatura máxima	16.3
34083	7	Sololá	701	Sololá	3	Barraneche	6	Junio	2023-06-27T00:00:00	2024-11-06T12:00:00	3	Temperatura mínima	15.2
34084	7	Sololá	701	Sololá	3	Barraneche	6	Junio	2023-06-27T00:00:00	2024-11-06T12:00:00	5	Humedad	62
34085	7	Sololá	701	Sololá	3	Barraneche	6	Junio	2023-06-27T00:00:00	2024-11-06T12:00:00	6	Velocidad del viento	8
34086	7	Sololá	701	Sololá	3	Barraneche	6	Junio	2023-06-27T00:00:00	2024-11-06T12:00:00	7	Dirección del viento	8.05
34087	7	Sololá	701	Sololá	3	Barraneche	6	Junio	2023-06-27T00:00:00	2024-11-06T12:00:00	1	Precipitación	0
34088	7	Sololá	701	Sololá	3	Barraneche	6	Junio	2023-06-27T00:00:00	2024-11-06T12:00:00	8	Radiación solar	320
34089	7	Sololá	701	Sololá	3	Barraneche	6	Junio	2023-06-27T00:00:00	2024-11-06T13:00:00	2	Temperatura media	17.4
34090	7	Sololá	701	Sololá	3	Barraneche	6	Junio	2023-06-27T00:00:00	2024-11-06T13:00:00	4	Temperatura máxima	17.4
34091	7	Sololá	701	Sololá	3	Barraneche	6	Junio	2023-06-27T00:00:00	2024-11-06T13:00:00	3	Temperatura mínima	16.3
34092	7	Sololá	701	Sololá	3	Barraneche	6	Junio	2023-06-27T00:00:00	2024-11-06T13:00:00	5	Humedad	60
34093	7	Sololá	701	Sololá	3	Barraneche	6	Junio	2023-06-27T00:00:00	2024-11-06T13:00:00	6	Velocidad del viento	8
34094	7	Sololá	701	Sololá	3	Barraneche	6	Junio	2023-06-27T00:00:00	2024-11-06T13:00:00	7	Dirección del viento	8.05
34095	7	Sololá	701	Sololá	3	Barraneche	6	Junio	2023-06-27T00:00:00	2024-11-06T13:00:00	1	Precipitación	0
34096	7	Sololá	701	Sololá	3	Barraneche	6	Junio	2023-06-27T00:00:00	2024-11-06T13:00:00	8	Radiación solar	407
34097	7	Sololá	701	Sololá	3	Barraneche	6	Junio	2023-06-27T00:00:00	2024-11-06T14:00:00	2	Temperatura media	17.1
34098	7	Sololá	701	Sololá	3	Barraneche	6	Junio	2023-06-27T00:00:00	2024-11-06T14:00:00	4	Temperatura máxima	17.7
34099	7	Sololá	701	Sololá	3	Barraneche	6	Junio	2023-06-27T00:00:00	2024-11-06T14:00:00	3	Temperatura mínima	16.9
34100	7	Sololá	701	Sololá	3	Barraneche	6	Junio	2023-06-27T00:00:00	2024-11-06T14:00:00	5	Humedad	61
34101	7	Sololá	701	Sololá	3	Barraneche	6	Junio	2023-06-27T00:00:00	2024-11-06T14:00:00	6	Velocidad del viento	8
34102	7	Sololá	701	Sololá	3	Barraneche	6	Junio	2023-06-27T00:00:00	2024-11-06T14:00:00	7	Dirección del viento	8.05
34103	7	Sololá	701	Sololá	3	Barraneche	6	Junio	2023-06-27T00:00:00	2024-11-06T14:00:00	1	Precipitación	0
34104	7	Sololá	701	Sololá	3	Barraneche	6	Junio	2023-06-27T00:00:00	2024-11-06T14:00:00	8	Radiación solar	238
34105	7	Sololá	701	Sololá	3	Barraneche	6	Junio	2023-06-27T00:00:00	2024-11-06T15:00:00	2	Temperatura media	17.1
34106	7	Sololá	701	Sololá	3	Barraneche	6	Junio	2023-06-27T00:00:00	2024-11-06T15:00:00	4	Temperatura máxima	17.2
34107	7	Sololá	701	Sololá	3	Barraneche	6	Junio	2023-06-27T00:00:00	2024-11-06T15:00:00	3	Temperatura mínima	16.6
34108	7	Sololá	701	Sololá	3	Barraneche	6	Junio	2023-06-27T00:00:00	2024-11-06T15:00:00	5	Humedad	67
34109	7	Sololá	701	Sololá	3	Barraneche	6	Junio	2023-06-27T00:00:00	2024-11-06T15:00:00	6	Velocidad del viento	6.4
34110	7	Sololá	701	Sololá	3	Barraneche	6	Junio	2023-06-27T00:00:00	2024-11-06T15:00:00	7	Dirección del viento	6.44
34111	7	Sololá	701	Sololá	3	Barraneche	6	Junio	2023-06-27T00:00:00	2024-11-06T15:00:00	1	Precipitación	0
34112	7	Sololá	701	Sololá	3	Barraneche	6	Junio	2023-06-27T00:00:00	2024-11-06T15:00:00	8	Radiación solar	214
34113	7	Sololá	701	Sololá	3	Barraneche	6	Junio	2023-06-27T00:00:00	2024-11-06T16:00:00	2	Temperatura media	15.5
34114	7	Sololá	701	Sololá	3	Barraneche	6	Junio	2023-06-27T00:00:00	2024-11-06T16:00:00	4	Temperatura máxima	17.2
34115	7	Sololá	701	Sololá	3	Barraneche	6	Junio	2023-06-27T00:00:00	2024-11-06T16:00:00	3	Temperatura mínima	15.5
34116	7	Sololá	701	Sololá	3	Barraneche	6	Junio	2023-06-27T00:00:00	2024-11-06T16:00:00	5	Humedad	74
34117	7	Sololá	701	Sololá	3	Barraneche	6	Junio	2023-06-27T00:00:00	2024-11-06T16:00:00	6	Velocidad del viento	8
34118	7	Sololá	701	Sololá	3	Barraneche	6	Junio	2023-06-27T00:00:00	2024-11-06T16:00:00	7	Dirección del viento	8.05
34119	7	Sololá	701	Sololá	3	Barraneche	6	Junio	2023-06-27T00:00:00	2024-11-06T16:00:00	1	Precipitación	0
34120	7	Sololá	701	Sololá	3	Barraneche	6	Junio	2023-06-27T00:00:00	2024-11-06T16:00:00	8	Radiación solar	171
34121	7	Sololá	701	Sololá	3	Barraneche	6	Junio	2023-06-27T00:00:00	2024-11-06T17:00:00	2	Temperatura media	14.5
34122	7	Sololá	701	Sololá	3	Barraneche	6	Junio	2023-06-27T00:00:00	2024-11-06T17:00:00	4	Temperatura máxima	15.5
34123	7	Sololá	701	Sololá	3	Barraneche	6	Junio	2023-06-27T00:00:00	2024-11-06T17:00:00	3	Temperatura mínima	14.5
34124	7	Sololá	701	Sololá	3	Barraneche	6	Junio	2023-06-27T00:00:00	2024-11-06T17:00:00	5	Humedad	84
34125	7	Sololá	701	Sololá	3	Barraneche	6	Junio	2023-06-27T00:00:00	2024-11-06T17:00:00	6	Velocidad del viento	6.4
34126	7	Sololá	701	Sololá	3	Barraneche	6	Junio	2023-06-27T00:00:00	2024-11-06T17:00:00	7	Dirección del viento	6.44
34127	7	Sololá	701	Sololá	3	Barraneche	6	Junio	2023-06-27T00:00:00	2024-11-06T17:00:00	1	Precipitación	0
34128	7	Sololá	701	Sololá	3	Barraneche	6	Junio	2023-06-27T00:00:00	2024-11-06T17:00:00	8	Radiación solar	63
34129	7	Sololá	701	Sololá	3	Barraneche	6	Junio	2023-06-27T00:00:00	2024-11-06T18:00:00	2	Temperatura media	14.2
34130	7	Sololá	701	Sololá	3	Barraneche	6	Junio	2023-06-27T00:00:00	2024-11-06T18:00:00	4	Temperatura máxima	14.6
34131	7	Sololá	701	Sololá	3	Barraneche	6	Junio	2023-06-27T00:00:00	2024-11-06T18:00:00	3	Temperatura mínima	14.2
34132	7	Sololá	701	Sololá	3	Barraneche	6	Junio	2023-06-27T00:00:00	2024-11-06T18:00:00	5	Humedad	85
34133	7	Sololá	701	Sololá	3	Barraneche	6	Junio	2023-06-27T00:00:00	2024-11-06T18:00:00	6	Velocidad del viento	6.4
34134	7	Sololá	701	Sololá	3	Barraneche	6	Junio	2023-06-27T00:00:00	2024-11-06T18:00:00	7	Dirección del viento	6.44
34135	7	Sololá	701	Sololá	3	Barraneche	6	Junio	2023-06-27T00:00:00	2024-11-06T18:00:00	1	Precipitación	1.2
34136	7	Sololá	701	Sololá	3	Barraneche	6	Junio	2023-06-27T00:00:00	2024-11-06T18:00:00	8	Radiación solar	11
34137	7	Sololá	701	Sololá	3	Barraneche	6	Junio	2023-06-27T00:00:00	2024-11-06T19:00:00	2	Temperatura media	13.9
34138	7	Sololá	701	Sololá	3	Barraneche	6	Junio	2023-06-27T00:00:00	2024-11-06T19:00:00	4	Temperatura máxima	14.3
34139	7	Sololá	701	Sololá	3	Barraneche	6	Junio	2023-06-27T00:00:00	2024-11-06T19:00:00	3	Temperatura mínima	13.7
34140	7	Sololá	701	Sololá	3	Barraneche	6	Junio	2023-06-27T00:00:00	2024-11-06T19:00:00	5	Humedad	85
34141	7	Sololá	701	Sololá	3	Barraneche	6	Junio	2023-06-27T00:00:00	2024-11-06T19:00:00	6	Velocidad del viento	3.2
34142	7	Sololá	701	Sololá	3	Barraneche	6	Junio	2023-06-27T00:00:00	2024-11-06T19:00:00	7	Dirección del viento	3.22
34143	7	Sololá	701	Sololá	3	Barraneche	6	Junio	2023-06-27T00:00:00	2024-11-06T19:00:00	1	Precipitación	12.4
34144	7	Sololá	701	Sololá	3	Barraneche	6	Junio	2023-06-27T00:00:00	2024-11-06T19:00:00	8	Radiación solar	0
34145	7	Sololá	701	Sololá	3	Barraneche	6	Junio	2023-06-27T00:00:00	2024-11-06T20:00:00	2	Temperatura media	13.8
34146	7	Sololá	701	Sololá	3	Barraneche	6	Junio	2023-06-27T00:00:00	2024-11-06T20:00:00	4	Temperatura máxima	14.1
34147	7	Sololá	701	Sololá	3	Barraneche	6	Junio	2023-06-27T00:00:00	2024-11-06T20:00:00	3	Temperatura mínima	13.8
34148	7	Sololá	701	Sololá	3	Barraneche	6	Junio	2023-06-27T00:00:00	2024-11-06T20:00:00	5	Humedad	85
34149	7	Sololá	701	Sololá	3	Barraneche	6	Junio	2023-06-27T00:00:00	2024-11-06T20:00:00	6	Velocidad del viento	4.8
34150	7	Sololá	701	Sololá	3	Barraneche	6	Junio	2023-06-27T00:00:00	2024-11-06T20:00:00	7	Dirección del viento	4.83
34151	7	Sololá	701	Sololá	3	Barraneche	6	Junio	2023-06-27T00:00:00	2024-11-06T20:00:00	1	Precipitación	0.2
34152	7	Sololá	701	Sololá	3	Barraneche	6	Junio	2023-06-27T00:00:00	2024-11-06T20:00:00	8	Radiación solar	0
34153	7	Sololá	701	Sololá	3	Barraneche	6	Junio	2023-06-27T00:00:00	2024-11-06T21:00:00	2	Temperatura media	13.3
34154	7	Sololá	701	Sololá	3	Barraneche	6	Junio	2023-06-27T00:00:00	2024-11-06T21:00:00	4	Temperatura máxima	13.8
34155	7	Sololá	701	Sololá	3	Barraneche	6	Junio	2023-06-27T00:00:00	2024-11-06T21:00:00	3	Temperatura mínima	13.2
34156	7	Sololá	701	Sololá	3	Barraneche	6	Junio	2023-06-27T00:00:00	2024-11-06T21:00:00	5	Humedad	86
34157	7	Sololá	701	Sololá	3	Barraneche	6	Junio	2023-06-27T00:00:00	2024-11-06T21:00:00	6	Velocidad del viento	4.8
34158	7	Sololá	701	Sololá	3	Barraneche	6	Junio	2023-06-27T00:00:00	2024-11-06T21:00:00	7	Dirección del viento	4.83
34159	7	Sololá	701	Sololá	3	Barraneche	6	Junio	2023-06-27T00:00:00	2024-11-06T21:00:00	1	Precipitación	1.2
34160	7	Sololá	701	Sololá	3	Barraneche	6	Junio	2023-06-27T00:00:00	2024-11-06T21:00:00	8	Radiación solar	0
34161	7	Sololá	701	Sololá	3	Barraneche	6	Junio	2023-06-27T00:00:00	2024-11-06T22:00:00	2	Temperatura media	13.3
34162	7	Sololá	701	Sololá	3	Barraneche	6	Junio	2023-06-27T00:00:00	2024-11-06T22:00:00	4	Temperatura máxima	13.3
34163	7	Sololá	701	Sololá	3	Barraneche	6	Junio	2023-06-27T00:00:00	2024-11-06T22:00:00	3	Temperatura mínima	13.2
34164	7	Sololá	701	Sololá	3	Barraneche	6	Junio	2023-06-27T00:00:00	2024-11-06T22:00:00	5	Humedad	86
34165	7	Sololá	701	Sololá	3	Barraneche	6	Junio	2023-06-27T00:00:00	2024-11-06T22:00:00	6	Velocidad del viento	1.6
34166	7	Sololá	701	Sololá	3	Barraneche	6	Junio	2023-06-27T00:00:00	2024-11-06T22:00:00	7	Dirección del viento	1.61
34167	7	Sololá	701	Sololá	3	Barraneche	6	Junio	2023-06-27T00:00:00	2024-11-06T22:00:00	1	Precipitación	0
34168	7	Sololá	701	Sololá	3	Barraneche	6	Junio	2023-06-27T00:00:00	2024-11-06T22:00:00	8	Radiación solar	0
34169	7	Sololá	701	Sololá	3	Barraneche	6	Junio	2023-06-27T00:00:00	2024-11-06T23:00:00	2	Temperatura media	13.3
34170	7	Sololá	701	Sololá	3	Barraneche	6	Junio	2023-06-27T00:00:00	2024-11-06T23:00:00	4	Temperatura máxima	13.4
34171	7	Sololá	701	Sololá	3	Barraneche	6	Junio	2023-06-27T00:00:00	2024-11-06T23:00:00	3	Temperatura mínima	13.1
34172	7	Sololá	701	Sololá	3	Barraneche	6	Junio	2023-06-27T00:00:00	2024-11-06T23:00:00	5	Humedad	86
34173	7	Sololá	701	Sololá	3	Barraneche	6	Junio	2023-06-27T00:00:00	2024-11-06T23:00:00	6	Velocidad del viento	1.6
34174	7	Sololá	701	Sololá	3	Barraneche	6	Junio	2023-06-27T00:00:00	2024-11-06T23:00:00	7	Dirección del viento	1.61
34175	7	Sololá	701	Sololá	3	Barraneche	6	Junio	2023-06-27T00:00:00	2024-11-06T23:00:00	1	Precipitación	0
34176	7	Sololá	701	Sololá	3	Barraneche	6	Junio	2023-06-27T00:00:00	2024-11-06T23:00:00	8	Radiación solar	0
34177	7	Sololá	701	Sololá	3	Barraneche	6	Junio	2023-06-28T00:00:00	2024-11-06T00:00:00	2	Temperatura media	13.2
34178	7	Sololá	701	Sololá	3	Barraneche	6	Junio	2023-06-28T00:00:00	2024-11-06T00:00:00	4	Temperatura máxima	13.3
34179	7	Sololá	701	Sololá	3	Barraneche	6	Junio	2023-06-28T00:00:00	2024-11-06T00:00:00	3	Temperatura mínima	13.2
34180	7	Sololá	701	Sololá	3	Barraneche	6	Junio	2023-06-28T00:00:00	2024-11-06T00:00:00	5	Humedad	86
34181	7	Sololá	701	Sololá	3	Barraneche	6	Junio	2023-06-28T00:00:00	2024-11-06T00:00:00	6	Velocidad del viento	1.6
34182	7	Sololá	701	Sololá	3	Barraneche	6	Junio	2023-06-28T00:00:00	2024-11-06T00:00:00	7	Dirección del viento	1.61
34183	7	Sololá	701	Sololá	3	Barraneche	6	Junio	2023-06-28T00:00:00	2024-11-06T00:00:00	1	Precipitación	0
34184	7	Sololá	701	Sololá	3	Barraneche	6	Junio	2023-06-28T00:00:00	2024-11-06T00:00:00	8	Radiación solar	0
34185	7	Sololá	701	Sololá	3	Barraneche	6	Junio	2023-06-28T00:00:00	2024-11-06T01:00:00	2	Temperatura media	13.1
34186	7	Sololá	701	Sololá	3	Barraneche	6	Junio	2023-06-28T00:00:00	2024-11-06T01:00:00	4	Temperatura máxima	13.3
34187	7	Sololá	701	Sololá	3	Barraneche	6	Junio	2023-06-28T00:00:00	2024-11-06T01:00:00	3	Temperatura mínima	13.1
34188	7	Sololá	701	Sololá	3	Barraneche	6	Junio	2023-06-28T00:00:00	2024-11-06T01:00:00	5	Humedad	85
34189	7	Sololá	701	Sololá	3	Barraneche	6	Junio	2023-06-28T00:00:00	2024-11-06T01:00:00	6	Velocidad del viento	1.6
34190	7	Sololá	701	Sololá	3	Barraneche	6	Junio	2023-06-28T00:00:00	2024-11-06T01:00:00	7	Dirección del viento	1.61
34191	7	Sololá	701	Sololá	3	Barraneche	6	Junio	2023-06-28T00:00:00	2024-11-06T01:00:00	1	Precipitación	0.2
34192	7	Sololá	701	Sololá	3	Barraneche	6	Junio	2023-06-28T00:00:00	2024-11-06T01:00:00	8	Radiación solar	0
34193	7	Sololá	701	Sololá	3	Barraneche	6	Junio	2023-06-28T00:00:00	2024-11-06T02:00:00	2	Temperatura media	13
34194	7	Sololá	701	Sololá	3	Barraneche	6	Junio	2023-06-28T00:00:00	2024-11-06T02:00:00	4	Temperatura máxima	13.1
34195	7	Sololá	701	Sololá	3	Barraneche	6	Junio	2023-06-28T00:00:00	2024-11-06T02:00:00	3	Temperatura mínima	12.8
34196	7	Sololá	701	Sololá	3	Barraneche	6	Junio	2023-06-28T00:00:00	2024-11-06T02:00:00	5	Humedad	85
34197	7	Sololá	701	Sololá	3	Barraneche	6	Junio	2023-06-28T00:00:00	2024-11-06T02:00:00	6	Velocidad del viento	1.6
34198	7	Sololá	701	Sololá	3	Barraneche	6	Junio	2023-06-28T00:00:00	2024-11-06T02:00:00	7	Dirección del viento	1.61
34199	7	Sololá	701	Sololá	3	Barraneche	6	Junio	2023-06-28T00:00:00	2024-11-06T02:00:00	1	Precipitación	0
34200	7	Sololá	701	Sololá	3	Barraneche	6	Junio	2023-06-28T00:00:00	2024-11-06T02:00:00	8	Radiación solar	0
34201	7	Sololá	701	Sololá	3	Barraneche	6	Junio	2023-06-28T00:00:00	2024-11-06T03:00:00	2	Temperatura media	12.9
34202	7	Sololá	701	Sololá	3	Barraneche	6	Junio	2023-06-28T00:00:00	2024-11-06T03:00:00	4	Temperatura máxima	13.2
34203	7	Sololá	701	Sololá	3	Barraneche	6	Junio	2023-06-28T00:00:00	2024-11-06T03:00:00	3	Temperatura mínima	12.9
34204	7	Sololá	701	Sololá	3	Barraneche	6	Junio	2023-06-28T00:00:00	2024-11-06T03:00:00	5	Humedad	85
34205	7	Sololá	701	Sololá	3	Barraneche	6	Junio	2023-06-28T00:00:00	2024-11-06T03:00:00	6	Velocidad del viento	1.6
34206	7	Sololá	701	Sololá	3	Barraneche	6	Junio	2023-06-28T00:00:00	2024-11-06T03:00:00	7	Dirección del viento	1.61
34207	7	Sololá	701	Sololá	3	Barraneche	6	Junio	2023-06-28T00:00:00	2024-11-06T03:00:00	1	Precipitación	1
34208	7	Sololá	701	Sololá	3	Barraneche	6	Junio	2023-06-28T00:00:00	2024-11-06T03:00:00	8	Radiación solar	0
34209	7	Sololá	701	Sololá	3	Barraneche	6	Junio	2023-06-28T00:00:00	2024-11-06T04:00:00	2	Temperatura media	12.4
34210	7	Sololá	701	Sololá	3	Barraneche	6	Junio	2023-06-28T00:00:00	2024-11-06T04:00:00	4	Temperatura máxima	12.9
34211	7	Sololá	701	Sololá	3	Barraneche	6	Junio	2023-06-28T00:00:00	2024-11-06T04:00:00	3	Temperatura mínima	12.4
34212	7	Sololá	701	Sololá	3	Barraneche	6	Junio	2023-06-28T00:00:00	2024-11-06T04:00:00	5	Humedad	84
34213	7	Sololá	701	Sololá	3	Barraneche	6	Junio	2023-06-28T00:00:00	2024-11-06T04:00:00	6	Velocidad del viento	4.8
34214	7	Sololá	701	Sololá	3	Barraneche	6	Junio	2023-06-28T00:00:00	2024-11-06T04:00:00	7	Dirección del viento	4.83
34215	7	Sololá	701	Sololá	3	Barraneche	6	Junio	2023-06-28T00:00:00	2024-11-06T04:00:00	1	Precipitación	0
34216	7	Sololá	701	Sololá	3	Barraneche	6	Junio	2023-06-28T00:00:00	2024-11-06T04:00:00	8	Radiación solar	0
34217	7	Sololá	701	Sololá	3	Barraneche	6	Junio	2023-06-28T00:00:00	2024-11-06T05:00:00	2	Temperatura media	12.1
34218	7	Sololá	701	Sololá	3	Barraneche	6	Junio	2023-06-28T00:00:00	2024-11-06T05:00:00	4	Temperatura máxima	12.4
34219	7	Sololá	701	Sololá	3	Barraneche	6	Junio	2023-06-28T00:00:00	2024-11-06T05:00:00	3	Temperatura mínima	12.1
34220	7	Sololá	701	Sololá	3	Barraneche	6	Junio	2023-06-28T00:00:00	2024-11-06T05:00:00	5	Humedad	83
34221	7	Sololá	701	Sololá	3	Barraneche	6	Junio	2023-06-28T00:00:00	2024-11-06T05:00:00	6	Velocidad del viento	4.8
34222	7	Sololá	701	Sololá	3	Barraneche	6	Junio	2023-06-28T00:00:00	2024-11-06T05:00:00	7	Dirección del viento	4.83
34223	7	Sololá	701	Sololá	3	Barraneche	6	Junio	2023-06-28T00:00:00	2024-11-06T05:00:00	1	Precipitación	0.2
34224	7	Sololá	701	Sololá	3	Barraneche	6	Junio	2023-06-28T00:00:00	2024-11-06T05:00:00	8	Radiación solar	0
34225	7	Sololá	701	Sololá	3	Barraneche	6	Junio	2023-06-28T00:00:00	2024-11-06T06:00:00	2	Temperatura media	11.8
34226	7	Sololá	701	Sololá	3	Barraneche	6	Junio	2023-06-28T00:00:00	2024-11-06T06:00:00	4	Temperatura máxima	12.1
34227	7	Sololá	701	Sololá	3	Barraneche	6	Junio	2023-06-28T00:00:00	2024-11-06T06:00:00	3	Temperatura mínima	11.8
34228	7	Sololá	701	Sololá	3	Barraneche	6	Junio	2023-06-28T00:00:00	2024-11-06T06:00:00	5	Humedad	83
34229	7	Sololá	701	Sololá	3	Barraneche	6	Junio	2023-06-28T00:00:00	2024-11-06T06:00:00	6	Velocidad del viento	4.8
34230	7	Sololá	701	Sololá	3	Barraneche	6	Junio	2023-06-28T00:00:00	2024-11-06T06:00:00	7	Dirección del viento	4.83
34231	7	Sololá	701	Sololá	3	Barraneche	6	Junio	2023-06-28T00:00:00	2024-11-06T06:00:00	1	Precipitación	0
34232	7	Sololá	701	Sololá	3	Barraneche	6	Junio	2023-06-28T00:00:00	2024-11-06T06:00:00	8	Radiación solar	4
34233	7	Sololá	701	Sololá	3	Barraneche	6	Junio	2023-06-28T00:00:00	2024-11-06T07:00:00	2	Temperatura media	13.8
34234	7	Sololá	701	Sololá	3	Barraneche	6	Junio	2023-06-28T00:00:00	2024-11-06T07:00:00	4	Temperatura máxima	13.8
34235	7	Sololá	701	Sololá	3	Barraneche	6	Junio	2023-06-28T00:00:00	2024-11-06T07:00:00	3	Temperatura mínima	11.8
34236	7	Sololá	701	Sololá	3	Barraneche	6	Junio	2023-06-28T00:00:00	2024-11-06T07:00:00	5	Humedad	81
34237	7	Sololá	701	Sololá	3	Barraneche	6	Junio	2023-06-28T00:00:00	2024-11-06T07:00:00	6	Velocidad del viento	3.2
34238	7	Sololá	701	Sololá	3	Barraneche	6	Junio	2023-06-28T00:00:00	2024-11-06T07:00:00	7	Dirección del viento	3.22
34239	7	Sololá	701	Sololá	3	Barraneche	6	Junio	2023-06-28T00:00:00	2024-11-06T07:00:00	1	Precipitación	0
34240	7	Sololá	701	Sololá	3	Barraneche	6	Junio	2023-06-28T00:00:00	2024-11-06T07:00:00	8	Radiación solar	138
34241	7	Sololá	701	Sololá	3	Barraneche	6	Junio	2023-06-28T00:00:00	2024-11-06T08:00:00	2	Temperatura media	15.1
34242	7	Sololá	701	Sololá	3	Barraneche	6	Junio	2023-06-28T00:00:00	2024-11-06T08:00:00	4	Temperatura máxima	15.1
34243	7	Sololá	701	Sololá	3	Barraneche	6	Junio	2023-06-28T00:00:00	2024-11-06T08:00:00	3	Temperatura mínima	13.8
34244	7	Sololá	701	Sololá	3	Barraneche	6	Junio	2023-06-28T00:00:00	2024-11-06T08:00:00	5	Humedad	78
34245	7	Sololá	701	Sololá	3	Barraneche	6	Junio	2023-06-28T00:00:00	2024-11-06T08:00:00	6	Velocidad del viento	1.6
34246	7	Sololá	701	Sololá	3	Barraneche	6	Junio	2023-06-28T00:00:00	2024-11-06T08:00:00	7	Dirección del viento	1.61
34247	7	Sololá	701	Sololá	3	Barraneche	6	Junio	2023-06-28T00:00:00	2024-11-06T08:00:00	1	Precipitación	0
34248	7	Sololá	701	Sololá	3	Barraneche	6	Junio	2023-06-28T00:00:00	2024-11-06T08:00:00	8	Radiación solar	259
34249	7	Sololá	701	Sololá	3	Barraneche	6	Junio	2023-06-28T00:00:00	2024-11-06T09:00:00	2	Temperatura media	15.8
34250	7	Sololá	701	Sololá	3	Barraneche	6	Junio	2023-06-28T00:00:00	2024-11-06T09:00:00	4	Temperatura máxima	15.8
34251	7	Sololá	701	Sololá	3	Barraneche	6	Junio	2023-06-28T00:00:00	2024-11-06T09:00:00	3	Temperatura mínima	15.1
34252	7	Sololá	701	Sololá	3	Barraneche	6	Junio	2023-06-28T00:00:00	2024-11-06T09:00:00	5	Humedad	75
34253	7	Sololá	701	Sololá	3	Barraneche	6	Junio	2023-06-28T00:00:00	2024-11-06T09:00:00	6	Velocidad del viento	3.2
34254	7	Sololá	701	Sololá	3	Barraneche	6	Junio	2023-06-28T00:00:00	2024-11-06T09:00:00	7	Dirección del viento	3.22
34255	7	Sololá	701	Sololá	3	Barraneche	6	Junio	2023-06-28T00:00:00	2024-11-06T09:00:00	1	Precipitación	0
34256	7	Sololá	701	Sololá	3	Barraneche	6	Junio	2023-06-28T00:00:00	2024-11-06T09:00:00	8	Radiación solar	348
34257	7	Sololá	701	Sololá	3	Barraneche	6	Junio	2023-06-28T00:00:00	2024-11-06T10:00:00	2	Temperatura media	18.1
34258	7	Sololá	701	Sololá	3	Barraneche	6	Junio	2023-06-28T00:00:00	2024-11-06T10:00:00	4	Temperatura máxima	18.1
34259	7	Sololá	701	Sololá	3	Barraneche	6	Junio	2023-06-28T00:00:00	2024-11-06T10:00:00	3	Temperatura mínima	15.8
34260	7	Sololá	701	Sololá	3	Barraneche	6	Junio	2023-06-28T00:00:00	2024-11-06T10:00:00	5	Humedad	67
34261	7	Sololá	701	Sololá	3	Barraneche	6	Junio	2023-06-28T00:00:00	2024-11-06T10:00:00	6	Velocidad del viento	3.2
34262	7	Sololá	701	Sololá	3	Barraneche	6	Junio	2023-06-28T00:00:00	2024-11-06T10:00:00	7	Dirección del viento	3.22
34263	7	Sololá	701	Sololá	3	Barraneche	6	Junio	2023-06-28T00:00:00	2024-11-06T10:00:00	1	Precipitación	0
34264	7	Sololá	701	Sololá	3	Barraneche	6	Junio	2023-06-28T00:00:00	2024-11-06T10:00:00	8	Radiación solar	647
34265	7	Sololá	701	Sololá	3	Barraneche	6	Junio	2023-06-28T00:00:00	2024-11-06T11:00:00	2	Temperatura media	18.6
34266	7	Sololá	701	Sololá	3	Barraneche	6	Junio	2023-06-28T00:00:00	2024-11-06T11:00:00	4	Temperatura máxima	18.6
34267	7	Sololá	701	Sololá	3	Barraneche	6	Junio	2023-06-28T00:00:00	2024-11-06T11:00:00	3	Temperatura mínima	18
34268	7	Sololá	701	Sololá	3	Barraneche	6	Junio	2023-06-28T00:00:00	2024-11-06T11:00:00	5	Humedad	68
34269	7	Sololá	701	Sololá	3	Barraneche	6	Junio	2023-06-28T00:00:00	2024-11-06T11:00:00	6	Velocidad del viento	8
34270	7	Sololá	701	Sololá	3	Barraneche	6	Junio	2023-06-28T00:00:00	2024-11-06T11:00:00	7	Dirección del viento	8.05
34271	7	Sololá	701	Sololá	3	Barraneche	6	Junio	2023-06-28T00:00:00	2024-11-06T11:00:00	1	Precipitación	0
34272	7	Sololá	701	Sololá	3	Barraneche	6	Junio	2023-06-28T00:00:00	2024-11-06T11:00:00	8	Radiación solar	1023
34273	7	Sololá	701	Sololá	3	Barraneche	6	Junio	2023-06-28T00:00:00	2024-11-06T12:00:00	2	Temperatura media	18.5
34274	7	Sololá	701	Sololá	3	Barraneche	6	Junio	2023-06-28T00:00:00	2024-11-06T12:00:00	4	Temperatura máxima	18.8
34275	7	Sololá	701	Sololá	3	Barraneche	6	Junio	2023-06-28T00:00:00	2024-11-06T12:00:00	3	Temperatura mínima	17.9
34276	7	Sololá	701	Sololá	3	Barraneche	6	Junio	2023-06-28T00:00:00	2024-11-06T12:00:00	5	Humedad	68
34277	7	Sololá	701	Sololá	3	Barraneche	6	Junio	2023-06-28T00:00:00	2024-11-06T12:00:00	6	Velocidad del viento	8
34278	7	Sololá	701	Sololá	3	Barraneche	6	Junio	2023-06-28T00:00:00	2024-11-06T12:00:00	7	Dirección del viento	8.05
34279	7	Sololá	701	Sololá	3	Barraneche	6	Junio	2023-06-28T00:00:00	2024-11-06T12:00:00	1	Precipitación	0
34280	7	Sololá	701	Sololá	3	Barraneche	6	Junio	2023-06-28T00:00:00	2024-11-06T12:00:00	8	Radiación solar	920
34281	7	Sololá	701	Sololá	3	Barraneche	6	Junio	2023-06-28T00:00:00	2024-11-06T13:00:00	2	Temperatura media	19.7
34282	7	Sololá	701	Sololá	3	Barraneche	6	Junio	2023-06-28T00:00:00	2024-11-06T13:00:00	4	Temperatura máxima	19.7
34283	7	Sololá	701	Sololá	3	Barraneche	6	Junio	2023-06-28T00:00:00	2024-11-06T13:00:00	3	Temperatura mínima	18.6
34284	7	Sololá	701	Sololá	3	Barraneche	6	Junio	2023-06-28T00:00:00	2024-11-06T13:00:00	5	Humedad	65
34285	7	Sololá	701	Sololá	3	Barraneche	6	Junio	2023-06-28T00:00:00	2024-11-06T13:00:00	6	Velocidad del viento	6.4
34286	7	Sololá	701	Sololá	3	Barraneche	6	Junio	2023-06-28T00:00:00	2024-11-06T13:00:00	7	Dirección del viento	6.44
34287	7	Sololá	701	Sololá	3	Barraneche	6	Junio	2023-06-28T00:00:00	2024-11-06T13:00:00	1	Precipitación	0
34288	7	Sololá	701	Sololá	3	Barraneche	6	Junio	2023-06-28T00:00:00	2024-11-06T13:00:00	8	Radiación solar	922
34289	7	Sololá	701	Sololá	3	Barraneche	6	Junio	2023-06-28T00:00:00	2024-11-06T14:00:00	2	Temperatura media	18.8
34290	7	Sololá	701	Sololá	3	Barraneche	6	Junio	2023-06-28T00:00:00	2024-11-06T14:00:00	4	Temperatura máxima	19.9
34291	7	Sololá	701	Sololá	3	Barraneche	6	Junio	2023-06-28T00:00:00	2024-11-06T14:00:00	3	Temperatura mínima	18.8
34292	7	Sololá	701	Sololá	3	Barraneche	6	Junio	2023-06-28T00:00:00	2024-11-06T14:00:00	5	Humedad	69
34293	7	Sololá	701	Sololá	3	Barraneche	6	Junio	2023-06-28T00:00:00	2024-11-06T14:00:00	6	Velocidad del viento	11.3
34294	7	Sololá	701	Sololá	3	Barraneche	6	Junio	2023-06-28T00:00:00	2024-11-06T14:00:00	7	Dirección del viento	11.27
34295	7	Sololá	701	Sololá	3	Barraneche	6	Junio	2023-06-28T00:00:00	2024-11-06T14:00:00	1	Precipitación	0
34296	7	Sololá	701	Sololá	3	Barraneche	6	Junio	2023-06-28T00:00:00	2024-11-06T14:00:00	8	Radiación solar	921
34297	7	Sololá	701	Sololá	3	Barraneche	6	Junio	2023-06-28T00:00:00	2024-11-06T15:00:00	2	Temperatura media	18.2
34298	7	Sololá	701	Sololá	3	Barraneche	6	Junio	2023-06-28T00:00:00	2024-11-06T15:00:00	4	Temperatura máxima	18.7
34299	7	Sololá	701	Sololá	3	Barraneche	6	Junio	2023-06-28T00:00:00	2024-11-06T15:00:00	3	Temperatura mínima	17.5
34300	7	Sololá	701	Sololá	3	Barraneche	6	Junio	2023-06-28T00:00:00	2024-11-06T15:00:00	5	Humedad	76
34301	7	Sololá	701	Sololá	3	Barraneche	6	Junio	2023-06-28T00:00:00	2024-11-06T15:00:00	6	Velocidad del viento	9.7
34302	7	Sololá	701	Sololá	3	Barraneche	6	Junio	2023-06-28T00:00:00	2024-11-06T15:00:00	7	Dirección del viento	9.66
34303	7	Sololá	701	Sololá	3	Barraneche	6	Junio	2023-06-28T00:00:00	2024-11-06T15:00:00	1	Precipitación	0
34304	7	Sololá	701	Sololá	3	Barraneche	6	Junio	2023-06-28T00:00:00	2024-11-06T15:00:00	8	Radiación solar	385
34305	7	Sololá	701	Sololá	3	Barraneche	6	Junio	2023-06-28T00:00:00	2024-11-06T16:00:00	2	Temperatura media	16.4
34306	7	Sololá	701	Sololá	3	Barraneche	6	Junio	2023-06-28T00:00:00	2024-11-06T16:00:00	4	Temperatura máxima	18.2
34307	7	Sololá	701	Sololá	3	Barraneche	6	Junio	2023-06-28T00:00:00	2024-11-06T16:00:00	3	Temperatura mínima	16.3
34308	7	Sololá	701	Sololá	3	Barraneche	6	Junio	2023-06-28T00:00:00	2024-11-06T16:00:00	5	Humedad	81
34309	7	Sololá	701	Sololá	3	Barraneche	6	Junio	2023-06-28T00:00:00	2024-11-06T16:00:00	6	Velocidad del viento	6.4
34310	7	Sololá	701	Sololá	3	Barraneche	6	Junio	2023-06-28T00:00:00	2024-11-06T16:00:00	7	Dirección del viento	6.44
34311	7	Sololá	701	Sololá	3	Barraneche	6	Junio	2023-06-28T00:00:00	2024-11-06T16:00:00	1	Precipitación	0
34312	7	Sololá	701	Sololá	3	Barraneche	6	Junio	2023-06-28T00:00:00	2024-11-06T16:00:00	8	Radiación solar	161
34313	7	Sololá	701	Sololá	3	Barraneche	6	Junio	2023-06-28T00:00:00	2024-11-06T17:00:00	2	Temperatura media	15.6
34314	7	Sololá	701	Sololá	3	Barraneche	6	Junio	2023-06-28T00:00:00	2024-11-06T17:00:00	4	Temperatura máxima	16.5
34315	7	Sololá	701	Sololá	3	Barraneche	6	Junio	2023-06-28T00:00:00	2024-11-06T17:00:00	3	Temperatura mínima	15.6
34316	7	Sololá	701	Sololá	3	Barraneche	6	Junio	2023-06-28T00:00:00	2024-11-06T17:00:00	5	Humedad	83
34317	7	Sololá	701	Sololá	3	Barraneche	6	Junio	2023-06-28T00:00:00	2024-11-06T17:00:00	6	Velocidad del viento	3.2
34318	7	Sololá	701	Sololá	3	Barraneche	6	Junio	2023-06-28T00:00:00	2024-11-06T17:00:00	7	Dirección del viento	3.22
34319	7	Sololá	701	Sololá	3	Barraneche	6	Junio	2023-06-28T00:00:00	2024-11-06T17:00:00	1	Precipitación	2
34320	7	Sololá	701	Sololá	3	Barraneche	6	Junio	2023-06-28T00:00:00	2024-11-06T17:00:00	8	Radiación solar	47
34321	7	Sololá	701	Sololá	3	Barraneche	6	Junio	2023-06-28T00:00:00	2024-11-06T18:00:00	2	Temperatura media	15.6
34322	7	Sololá	701	Sololá	3	Barraneche	6	Junio	2023-06-28T00:00:00	2024-11-06T18:00:00	4	Temperatura máxima	15.6
34323	7	Sololá	701	Sololá	3	Barraneche	6	Junio	2023-06-28T00:00:00	2024-11-06T18:00:00	3	Temperatura mínima	15.2
34324	7	Sololá	701	Sololá	3	Barraneche	6	Junio	2023-06-28T00:00:00	2024-11-06T18:00:00	5	Humedad	84
34325	7	Sololá	701	Sololá	3	Barraneche	6	Junio	2023-06-28T00:00:00	2024-11-06T18:00:00	6	Velocidad del viento	3.2
34326	7	Sololá	701	Sololá	3	Barraneche	6	Junio	2023-06-28T00:00:00	2024-11-06T18:00:00	7	Dirección del viento	3.22
34327	7	Sololá	701	Sololá	3	Barraneche	6	Junio	2023-06-28T00:00:00	2024-11-06T18:00:00	1	Precipitación	0.8
34328	7	Sololá	701	Sololá	3	Barraneche	6	Junio	2023-06-28T00:00:00	2024-11-06T18:00:00	8	Radiación solar	20
34329	7	Sololá	701	Sololá	3	Barraneche	6	Junio	2023-06-28T00:00:00	2024-11-06T19:00:00	2	Temperatura media	14.4
34330	7	Sololá	701	Sololá	3	Barraneche	6	Junio	2023-06-28T00:00:00	2024-11-06T19:00:00	4	Temperatura máxima	15.6
34331	7	Sololá	701	Sololá	3	Barraneche	6	Junio	2023-06-28T00:00:00	2024-11-06T19:00:00	3	Temperatura mínima	14.4
34332	7	Sololá	701	Sololá	3	Barraneche	6	Junio	2023-06-28T00:00:00	2024-11-06T19:00:00	5	Humedad	83
34333	7	Sololá	701	Sololá	3	Barraneche	6	Junio	2023-06-28T00:00:00	2024-11-06T19:00:00	6	Velocidad del viento	3.2
34334	7	Sololá	701	Sololá	3	Barraneche	6	Junio	2023-06-28T00:00:00	2024-11-06T19:00:00	7	Dirección del viento	3.22
34335	7	Sololá	701	Sololá	3	Barraneche	6	Junio	2023-06-28T00:00:00	2024-11-06T19:00:00	1	Precipitación	0.2
34336	7	Sololá	701	Sololá	3	Barraneche	6	Junio	2023-06-28T00:00:00	2024-11-06T19:00:00	8	Radiación solar	0
34337	7	Sololá	701	Sololá	3	Barraneche	6	Junio	2023-06-28T00:00:00	2024-11-06T20:00:00	2	Temperatura media	15.1
34338	7	Sololá	701	Sololá	3	Barraneche	6	Junio	2023-06-28T00:00:00	2024-11-06T20:00:00	4	Temperatura máxima	15.3
34339	7	Sololá	701	Sololá	3	Barraneche	6	Junio	2023-06-28T00:00:00	2024-11-06T20:00:00	3	Temperatura mínima	14.4
34340	7	Sololá	701	Sololá	3	Barraneche	6	Junio	2023-06-28T00:00:00	2024-11-06T20:00:00	5	Humedad	79
34341	7	Sololá	701	Sololá	3	Barraneche	6	Junio	2023-06-28T00:00:00	2024-11-06T20:00:00	6	Velocidad del viento	6.4
34342	7	Sololá	701	Sololá	3	Barraneche	6	Junio	2023-06-28T00:00:00	2024-11-06T20:00:00	7	Dirección del viento	6.44
34343	7	Sololá	701	Sololá	3	Barraneche	6	Junio	2023-06-28T00:00:00	2024-11-06T20:00:00	1	Precipitación	0
34344	7	Sololá	701	Sololá	3	Barraneche	6	Junio	2023-06-28T00:00:00	2024-11-06T20:00:00	8	Radiación solar	0
34345	7	Sololá	701	Sololá	3	Barraneche	6	Junio	2023-06-28T00:00:00	2024-11-06T21:00:00	2	Temperatura media	15.2
34346	7	Sololá	701	Sololá	3	Barraneche	6	Junio	2023-06-28T00:00:00	2024-11-06T21:00:00	4	Temperatura máxima	15.3
34347	7	Sololá	701	Sololá	3	Barraneche	6	Junio	2023-06-28T00:00:00	2024-11-06T21:00:00	3	Temperatura mínima	15.1
34348	7	Sololá	701	Sololá	3	Barraneche	6	Junio	2023-06-28T00:00:00	2024-11-06T21:00:00	5	Humedad	79
34349	7	Sololá	701	Sololá	3	Barraneche	6	Junio	2023-06-28T00:00:00	2024-11-06T21:00:00	6	Velocidad del viento	3.2
34350	7	Sololá	701	Sololá	3	Barraneche	6	Junio	2023-06-28T00:00:00	2024-11-06T21:00:00	7	Dirección del viento	3.22
34351	7	Sololá	701	Sololá	3	Barraneche	6	Junio	2023-06-28T00:00:00	2024-11-06T21:00:00	1	Precipitación	0
34352	7	Sololá	701	Sololá	3	Barraneche	6	Junio	2023-06-28T00:00:00	2024-11-06T21:00:00	8	Radiación solar	0
34353	7	Sololá	701	Sololá	3	Barraneche	6	Junio	2023-06-28T00:00:00	2024-11-06T22:00:00	2	Temperatura media	13.6
34354	7	Sololá	701	Sololá	3	Barraneche	6	Junio	2023-06-28T00:00:00	2024-11-06T22:00:00	4	Temperatura máxima	15.2
34355	7	Sololá	701	Sololá	3	Barraneche	6	Junio	2023-06-28T00:00:00	2024-11-06T22:00:00	3	Temperatura mínima	13.6
34356	7	Sololá	701	Sololá	3	Barraneche	6	Junio	2023-06-28T00:00:00	2024-11-06T22:00:00	5	Humedad	83
34357	7	Sololá	701	Sololá	3	Barraneche	6	Junio	2023-06-28T00:00:00	2024-11-06T22:00:00	6	Velocidad del viento	1.6
34358	7	Sololá	701	Sololá	3	Barraneche	6	Junio	2023-06-28T00:00:00	2024-11-06T22:00:00	7	Dirección del viento	1.61
34359	7	Sololá	701	Sololá	3	Barraneche	6	Junio	2023-06-28T00:00:00	2024-11-06T22:00:00	1	Precipitación	0
34360	7	Sololá	701	Sololá	3	Barraneche	6	Junio	2023-06-28T00:00:00	2024-11-06T22:00:00	8	Radiación solar	0
34361	7	Sololá	701	Sololá	3	Barraneche	6	Junio	2023-06-28T00:00:00	2024-11-06T23:00:00	2	Temperatura media	13.4
34362	7	Sololá	701	Sololá	3	Barraneche	6	Junio	2023-06-28T00:00:00	2024-11-06T23:00:00	4	Temperatura máxima	13.6
34363	7	Sololá	701	Sololá	3	Barraneche	6	Junio	2023-06-28T00:00:00	2024-11-06T23:00:00	3	Temperatura mínima	13.3
34364	7	Sololá	701	Sololá	3	Barraneche	6	Junio	2023-06-28T00:00:00	2024-11-06T23:00:00	5	Humedad	84
34365	7	Sololá	701	Sololá	3	Barraneche	6	Junio	2023-06-28T00:00:00	2024-11-06T23:00:00	6	Velocidad del viento	1.6
34366	7	Sololá	701	Sololá	3	Barraneche	6	Junio	2023-06-28T00:00:00	2024-11-06T23:00:00	7	Dirección del viento	1.61
34367	7	Sololá	701	Sololá	3	Barraneche	6	Junio	2023-06-28T00:00:00	2024-11-06T23:00:00	1	Precipitación	0
34368	7	Sololá	701	Sololá	3	Barraneche	6	Junio	2023-06-28T00:00:00	2024-11-06T23:00:00	8	Radiación solar	0
34369	7	Sololá	701	Sololá	3	Barraneche	6	Junio	2023-06-29T00:00:00	2024-11-06T00:00:00	2	Temperatura media	14.3
34370	7	Sololá	701	Sololá	3	Barraneche	6	Junio	2023-06-29T00:00:00	2024-11-06T00:00:00	4	Temperatura máxima	14.4
34371	7	Sololá	701	Sololá	3	Barraneche	6	Junio	2023-06-29T00:00:00	2024-11-06T00:00:00	3	Temperatura mínima	13.4
34372	7	Sololá	701	Sololá	3	Barraneche	6	Junio	2023-06-29T00:00:00	2024-11-06T00:00:00	5	Humedad	82
34373	7	Sololá	701	Sololá	3	Barraneche	6	Junio	2023-06-29T00:00:00	2024-11-06T00:00:00	6	Velocidad del viento	1.6
34374	7	Sololá	701	Sololá	3	Barraneche	6	Junio	2023-06-29T00:00:00	2024-11-06T00:00:00	7	Dirección del viento	1.61
34375	7	Sololá	701	Sololá	3	Barraneche	6	Junio	2023-06-29T00:00:00	2024-11-06T00:00:00	1	Precipitación	0
34376	7	Sololá	701	Sololá	3	Barraneche	6	Junio	2023-06-29T00:00:00	2024-11-06T00:00:00	8	Radiación solar	0
34377	7	Sololá	701	Sololá	3	Barraneche	6	Junio	2023-06-29T00:00:00	2024-11-06T01:00:00	2	Temperatura media	14.3
34378	7	Sololá	701	Sololá	3	Barraneche	6	Junio	2023-06-29T00:00:00	2024-11-06T01:00:00	4	Temperatura máxima	14.4
34379	7	Sololá	701	Sololá	3	Barraneche	6	Junio	2023-06-29T00:00:00	2024-11-06T01:00:00	3	Temperatura mínima	14
34380	7	Sololá	701	Sololá	3	Barraneche	6	Junio	2023-06-29T00:00:00	2024-11-06T01:00:00	5	Humedad	80
34381	7	Sololá	701	Sololá	3	Barraneche	6	Junio	2023-06-29T00:00:00	2024-11-06T01:00:00	6	Velocidad del viento	3.2
34382	7	Sololá	701	Sololá	3	Barraneche	6	Junio	2023-06-29T00:00:00	2024-11-06T01:00:00	7	Dirección del viento	3.22
34383	7	Sololá	701	Sololá	3	Barraneche	6	Junio	2023-06-29T00:00:00	2024-11-06T01:00:00	1	Precipitación	0
34384	7	Sololá	701	Sololá	3	Barraneche	6	Junio	2023-06-29T00:00:00	2024-11-06T01:00:00	8	Radiación solar	0
34385	7	Sololá	701	Sololá	3	Barraneche	6	Junio	2023-06-29T00:00:00	2024-11-06T02:00:00	2	Temperatura media	13.2
34386	7	Sololá	701	Sololá	3	Barraneche	6	Junio	2023-06-29T00:00:00	2024-11-06T02:00:00	4	Temperatura máxima	14.3
34387	7	Sololá	701	Sololá	3	Barraneche	6	Junio	2023-06-29T00:00:00	2024-11-06T02:00:00	3	Temperatura mínima	13.2
34388	7	Sololá	701	Sololá	3	Barraneche	6	Junio	2023-06-29T00:00:00	2024-11-06T02:00:00	5	Humedad	83
34389	7	Sololá	701	Sololá	3	Barraneche	6	Junio	2023-06-29T00:00:00	2024-11-06T02:00:00	6	Velocidad del viento	1.6
34390	7	Sololá	701	Sololá	3	Barraneche	6	Junio	2023-06-29T00:00:00	2024-11-06T02:00:00	7	Dirección del viento	1.61
34391	7	Sololá	701	Sololá	3	Barraneche	6	Junio	2023-06-29T00:00:00	2024-11-06T02:00:00	1	Precipitación	0
34392	7	Sololá	701	Sololá	3	Barraneche	6	Junio	2023-06-29T00:00:00	2024-11-06T02:00:00	8	Radiación solar	0
34393	7	Sololá	701	Sololá	3	Barraneche	6	Junio	2023-06-29T00:00:00	2024-11-06T03:00:00	2	Temperatura media	12.9
34394	7	Sololá	701	Sololá	3	Barraneche	6	Junio	2023-06-29T00:00:00	2024-11-06T03:00:00	4	Temperatura máxima	13.2
34395	7	Sololá	701	Sololá	3	Barraneche	6	Junio	2023-06-29T00:00:00	2024-11-06T03:00:00	3	Temperatura mínima	12.9
34396	7	Sololá	701	Sololá	3	Barraneche	6	Junio	2023-06-29T00:00:00	2024-11-06T03:00:00	5	Humedad	83
34397	7	Sololá	701	Sololá	3	Barraneche	6	Junio	2023-06-29T00:00:00	2024-11-06T03:00:00	6	Velocidad del viento	1.6
34398	7	Sololá	701	Sololá	3	Barraneche	6	Junio	2023-06-29T00:00:00	2024-11-06T03:00:00	7	Dirección del viento	1.61
34399	7	Sololá	701	Sololá	3	Barraneche	6	Junio	2023-06-29T00:00:00	2024-11-06T03:00:00	1	Precipitación	0
34400	7	Sololá	701	Sololá	3	Barraneche	6	Junio	2023-06-29T00:00:00	2024-11-06T03:00:00	8	Radiación solar	0
34401	7	Sololá	701	Sololá	3	Barraneche	6	Junio	2023-06-29T00:00:00	2024-11-06T04:00:00	2	Temperatura media	13.2
34402	7	Sololá	701	Sololá	3	Barraneche	6	Junio	2023-06-29T00:00:00	2024-11-06T04:00:00	4	Temperatura máxima	13.2
34403	7	Sololá	701	Sololá	3	Barraneche	6	Junio	2023-06-29T00:00:00	2024-11-06T04:00:00	3	Temperatura mínima	12.8
34404	7	Sololá	701	Sololá	3	Barraneche	6	Junio	2023-06-29T00:00:00	2024-11-06T04:00:00	5	Humedad	84
34405	7	Sololá	701	Sololá	3	Barraneche	6	Junio	2023-06-29T00:00:00	2024-11-06T04:00:00	6	Velocidad del viento	1.6
34406	7	Sololá	701	Sololá	3	Barraneche	6	Junio	2023-06-29T00:00:00	2024-11-06T04:00:00	7	Dirección del viento	1.61
34407	7	Sololá	701	Sololá	3	Barraneche	6	Junio	2023-06-29T00:00:00	2024-11-06T04:00:00	1	Precipitación	0
34408	7	Sololá	701	Sololá	3	Barraneche	6	Junio	2023-06-29T00:00:00	2024-11-06T04:00:00	8	Radiación solar	0
34409	7	Sololá	701	Sololá	3	Barraneche	6	Junio	2023-06-29T00:00:00	2024-11-06T05:00:00	2	Temperatura media	12.8
34410	7	Sololá	701	Sololá	3	Barraneche	6	Junio	2023-06-29T00:00:00	2024-11-06T05:00:00	4	Temperatura máxima	13.2
34411	7	Sololá	701	Sololá	3	Barraneche	6	Junio	2023-06-29T00:00:00	2024-11-06T05:00:00	3	Temperatura mínima	12.7
34412	7	Sololá	701	Sololá	3	Barraneche	6	Junio	2023-06-29T00:00:00	2024-11-06T05:00:00	5	Humedad	84
34413	7	Sololá	701	Sololá	3	Barraneche	6	Junio	2023-06-29T00:00:00	2024-11-06T05:00:00	6	Velocidad del viento	1.6
34414	7	Sololá	701	Sololá	3	Barraneche	6	Junio	2023-06-29T00:00:00	2024-11-06T05:00:00	7	Dirección del viento	1.61
34415	7	Sololá	701	Sololá	3	Barraneche	6	Junio	2023-06-29T00:00:00	2024-11-06T05:00:00	1	Precipitación	0
34416	7	Sololá	701	Sololá	3	Barraneche	6	Junio	2023-06-29T00:00:00	2024-11-06T05:00:00	8	Radiación solar	0
34417	7	Sololá	701	Sololá	3	Barraneche	6	Junio	2023-06-29T00:00:00	2024-11-06T06:00:00	2	Temperatura media	13
34418	7	Sololá	701	Sololá	3	Barraneche	6	Junio	2023-06-29T00:00:00	2024-11-06T06:00:00	4	Temperatura máxima	13.4
34419	7	Sololá	701	Sololá	3	Barraneche	6	Junio	2023-06-29T00:00:00	2024-11-06T06:00:00	3	Temperatura mínima	12.8
34420	7	Sololá	701	Sololá	3	Barraneche	6	Junio	2023-06-29T00:00:00	2024-11-06T06:00:00	5	Humedad	81
34421	7	Sololá	701	Sololá	3	Barraneche	6	Junio	2023-06-29T00:00:00	2024-11-06T06:00:00	6	Velocidad del viento	3.2
34422	7	Sololá	701	Sololá	3	Barraneche	6	Junio	2023-06-29T00:00:00	2024-11-06T06:00:00	7	Dirección del viento	3.22
34423	7	Sololá	701	Sololá	3	Barraneche	6	Junio	2023-06-29T00:00:00	2024-11-06T06:00:00	1	Precipitación	0
34424	7	Sololá	701	Sololá	3	Barraneche	6	Junio	2023-06-29T00:00:00	2024-11-06T06:00:00	8	Radiación solar	1
34425	7	Sololá	701	Sololá	3	Barraneche	6	Junio	2023-06-29T00:00:00	2024-11-06T07:00:00	2	Temperatura media	14.1
34426	7	Sololá	701	Sololá	3	Barraneche	6	Junio	2023-06-29T00:00:00	2024-11-06T07:00:00	4	Temperatura máxima	14.1
34427	7	Sololá	701	Sololá	3	Barraneche	6	Junio	2023-06-29T00:00:00	2024-11-06T07:00:00	3	Temperatura mínima	12.9
34428	7	Sololá	701	Sololá	3	Barraneche	6	Junio	2023-06-29T00:00:00	2024-11-06T07:00:00	5	Humedad	81
34429	7	Sololá	701	Sololá	3	Barraneche	6	Junio	2023-06-29T00:00:00	2024-11-06T07:00:00	6	Velocidad del viento	1.6
34430	7	Sololá	701	Sololá	3	Barraneche	6	Junio	2023-06-29T00:00:00	2024-11-06T07:00:00	7	Dirección del viento	1.61
34431	7	Sololá	701	Sololá	3	Barraneche	6	Junio	2023-06-29T00:00:00	2024-11-06T07:00:00	1	Precipitación	0
34432	7	Sololá	701	Sololá	3	Barraneche	6	Junio	2023-06-29T00:00:00	2024-11-06T07:00:00	8	Radiación solar	88
34433	7	Sololá	701	Sololá	3	Barraneche	6	Junio	2023-06-29T00:00:00	2024-11-06T08:00:00	2	Temperatura media	17.3
34434	7	Sololá	701	Sololá	3	Barraneche	6	Junio	2023-06-29T00:00:00	2024-11-06T08:00:00	4	Temperatura máxima	17.3
34435	7	Sololá	701	Sololá	3	Barraneche	6	Junio	2023-06-29T00:00:00	2024-11-06T08:00:00	3	Temperatura mínima	14.2
34436	7	Sololá	701	Sololá	3	Barraneche	6	Junio	2023-06-29T00:00:00	2024-11-06T08:00:00	5	Humedad	70
34437	7	Sololá	701	Sololá	3	Barraneche	6	Junio	2023-06-29T00:00:00	2024-11-06T08:00:00	6	Velocidad del viento	3.2
34438	7	Sololá	701	Sololá	3	Barraneche	6	Junio	2023-06-29T00:00:00	2024-11-06T08:00:00	7	Dirección del viento	3.22
34439	7	Sololá	701	Sololá	3	Barraneche	6	Junio	2023-06-29T00:00:00	2024-11-06T08:00:00	1	Precipitación	0
34440	7	Sololá	701	Sololá	3	Barraneche	6	Junio	2023-06-29T00:00:00	2024-11-06T08:00:00	8	Radiación solar	373
34441	7	Sololá	701	Sololá	3	Barraneche	6	Junio	2023-06-29T00:00:00	2024-11-06T09:00:00	2	Temperatura media	19.5
34442	7	Sololá	701	Sololá	3	Barraneche	6	Junio	2023-06-29T00:00:00	2024-11-06T09:00:00	4	Temperatura máxima	19.5
34443	7	Sololá	701	Sololá	3	Barraneche	6	Junio	2023-06-29T00:00:00	2024-11-06T09:00:00	3	Temperatura mínima	17.3
34444	7	Sololá	701	Sololá	3	Barraneche	6	Junio	2023-06-29T00:00:00	2024-11-06T09:00:00	5	Humedad	59
34445	7	Sololá	701	Sololá	3	Barraneche	6	Junio	2023-06-29T00:00:00	2024-11-06T09:00:00	6	Velocidad del viento	6.4
34446	7	Sololá	701	Sololá	3	Barraneche	6	Junio	2023-06-29T00:00:00	2024-11-06T09:00:00	7	Dirección del viento	6.44
34447	7	Sololá	701	Sololá	3	Barraneche	6	Junio	2023-06-29T00:00:00	2024-11-06T09:00:00	1	Precipitación	0
34448	7	Sololá	701	Sololá	3	Barraneche	6	Junio	2023-06-29T00:00:00	2024-11-06T09:00:00	8	Radiación solar	439
34449	7	Sololá	701	Sololá	3	Barraneche	6	Junio	2023-06-29T00:00:00	2024-11-06T10:00:00	2	Temperatura media	19.1
34450	7	Sololá	701	Sololá	3	Barraneche	6	Junio	2023-06-29T00:00:00	2024-11-06T10:00:00	4	Temperatura máxima	19.9
34451	7	Sololá	701	Sololá	3	Barraneche	6	Junio	2023-06-29T00:00:00	2024-11-06T10:00:00	3	Temperatura mínima	18.8
34452	7	Sololá	701	Sololá	3	Barraneche	6	Junio	2023-06-29T00:00:00	2024-11-06T10:00:00	5	Humedad	56
34453	7	Sololá	701	Sololá	3	Barraneche	6	Junio	2023-06-29T00:00:00	2024-11-06T10:00:00	6	Velocidad del viento	9.7
34454	7	Sololá	701	Sololá	3	Barraneche	6	Junio	2023-06-29T00:00:00	2024-11-06T10:00:00	7	Dirección del viento	9.66
34455	7	Sololá	701	Sololá	3	Barraneche	6	Junio	2023-06-29T00:00:00	2024-11-06T10:00:00	1	Precipitación	0
34456	7	Sololá	701	Sololá	3	Barraneche	6	Junio	2023-06-29T00:00:00	2024-11-06T10:00:00	8	Radiación solar	654
34457	7	Sololá	701	Sololá	3	Barraneche	6	Junio	2023-06-29T00:00:00	2024-11-06T11:00:00	2	Temperatura media	19.6
34458	7	Sololá	701	Sololá	3	Barraneche	6	Junio	2023-06-29T00:00:00	2024-11-06T11:00:00	4	Temperatura máxima	19.6
34459	7	Sololá	701	Sololá	3	Barraneche	6	Junio	2023-06-29T00:00:00	2024-11-06T11:00:00	3	Temperatura mínima	18.8
34460	7	Sololá	701	Sololá	3	Barraneche	6	Junio	2023-06-29T00:00:00	2024-11-06T11:00:00	5	Humedad	51
34461	7	Sololá	701	Sololá	3	Barraneche	6	Junio	2023-06-29T00:00:00	2024-11-06T11:00:00	6	Velocidad del viento	8
34462	7	Sololá	701	Sololá	3	Barraneche	6	Junio	2023-06-29T00:00:00	2024-11-06T11:00:00	7	Dirección del viento	8.05
34463	7	Sololá	701	Sololá	3	Barraneche	6	Junio	2023-06-29T00:00:00	2024-11-06T11:00:00	1	Precipitación	0
34464	7	Sololá	701	Sololá	3	Barraneche	6	Junio	2023-06-29T00:00:00	2024-11-06T11:00:00	8	Radiación solar	497
34465	7	Sololá	701	Sololá	3	Barraneche	6	Junio	2023-06-29T00:00:00	2024-11-06T12:00:00	2	Temperatura media	19.8
34466	7	Sololá	701	Sololá	3	Barraneche	6	Junio	2023-06-29T00:00:00	2024-11-06T12:00:00	4	Temperatura máxima	20.1
34467	7	Sololá	701	Sololá	3	Barraneche	6	Junio	2023-06-29T00:00:00	2024-11-06T12:00:00	3	Temperatura mínima	19.6
34468	7	Sololá	701	Sololá	3	Barraneche	6	Junio	2023-06-29T00:00:00	2024-11-06T12:00:00	5	Humedad	54
34469	7	Sololá	701	Sololá	3	Barraneche	6	Junio	2023-06-29T00:00:00	2024-11-06T12:00:00	6	Velocidad del viento	12.9
34470	7	Sololá	701	Sololá	3	Barraneche	6	Junio	2023-06-29T00:00:00	2024-11-06T12:00:00	7	Dirección del viento	12.87
34471	7	Sololá	701	Sololá	3	Barraneche	6	Junio	2023-06-29T00:00:00	2024-11-06T12:00:00	1	Precipitación	0
34472	7	Sololá	701	Sololá	3	Barraneche	6	Junio	2023-06-29T00:00:00	2024-11-06T12:00:00	8	Radiación solar	844
34473	7	Sololá	701	Sololá	3	Barraneche	6	Junio	2023-06-29T00:00:00	2024-11-06T13:00:00	2	Temperatura media	20.3
34474	7	Sololá	701	Sololá	3	Barraneche	6	Junio	2023-06-29T00:00:00	2024-11-06T13:00:00	4	Temperatura máxima	20.3
34475	7	Sololá	701	Sololá	3	Barraneche	6	Junio	2023-06-29T00:00:00	2024-11-06T13:00:00	3	Temperatura mínima	19.5
34476	7	Sololá	701	Sololá	3	Barraneche	6	Junio	2023-06-29T00:00:00	2024-11-06T13:00:00	5	Humedad	54
34477	7	Sololá	701	Sololá	3	Barraneche	6	Junio	2023-06-29T00:00:00	2024-11-06T13:00:00	6	Velocidad del viento	16.1
34478	7	Sololá	701	Sololá	3	Barraneche	6	Junio	2023-06-29T00:00:00	2024-11-06T13:00:00	7	Dirección del viento	16.09
34479	7	Sololá	701	Sololá	3	Barraneche	6	Junio	2023-06-29T00:00:00	2024-11-06T13:00:00	1	Precipitación	0
34480	7	Sololá	701	Sololá	3	Barraneche	6	Junio	2023-06-29T00:00:00	2024-11-06T13:00:00	8	Radiación solar	743
34481	7	Sololá	701	Sololá	3	Barraneche	6	Junio	2023-06-29T00:00:00	2024-11-06T14:00:00	2	Temperatura media	19.2
34482	7	Sololá	701	Sololá	3	Barraneche	6	Junio	2023-06-29T00:00:00	2024-11-06T14:00:00	4	Temperatura máxima	20.6
34483	7	Sololá	701	Sololá	3	Barraneche	6	Junio	2023-06-29T00:00:00	2024-11-06T14:00:00	3	Temperatura mínima	19.2
34484	7	Sololá	701	Sololá	3	Barraneche	6	Junio	2023-06-29T00:00:00	2024-11-06T14:00:00	5	Humedad	67
34485	7	Sololá	701	Sololá	3	Barraneche	6	Junio	2023-06-29T00:00:00	2024-11-06T14:00:00	6	Velocidad del viento	12.9
34486	7	Sololá	701	Sololá	3	Barraneche	6	Junio	2023-06-29T00:00:00	2024-11-06T14:00:00	7	Dirección del viento	12.87
34487	7	Sololá	701	Sololá	3	Barraneche	6	Junio	2023-06-29T00:00:00	2024-11-06T14:00:00	1	Precipitación	0
34488	7	Sololá	701	Sololá	3	Barraneche	6	Junio	2023-06-29T00:00:00	2024-11-06T14:00:00	8	Radiación solar	830
34489	7	Sololá	701	Sololá	3	Barraneche	6	Junio	2023-06-29T00:00:00	2024-11-06T15:00:00	2	Temperatura media	19.9
34490	7	Sololá	701	Sololá	3	Barraneche	6	Junio	2023-06-29T00:00:00	2024-11-06T15:00:00	4	Temperatura máxima	20.2
34491	7	Sololá	701	Sololá	3	Barraneche	6	Junio	2023-06-29T00:00:00	2024-11-06T15:00:00	3	Temperatura mínima	18.3
34492	7	Sololá	701	Sololá	3	Barraneche	6	Junio	2023-06-29T00:00:00	2024-11-06T15:00:00	5	Humedad	62
34493	7	Sololá	701	Sololá	3	Barraneche	6	Junio	2023-06-29T00:00:00	2024-11-06T15:00:00	6	Velocidad del viento	9.7
34494	7	Sololá	701	Sololá	3	Barraneche	6	Junio	2023-06-29T00:00:00	2024-11-06T15:00:00	7	Dirección del viento	9.66
34495	7	Sololá	701	Sololá	3	Barraneche	6	Junio	2023-06-29T00:00:00	2024-11-06T15:00:00	1	Precipitación	0
34496	7	Sololá	701	Sololá	3	Barraneche	6	Junio	2023-06-29T00:00:00	2024-11-06T15:00:00	8	Radiación solar	414
34497	7	Sololá	701	Sololá	3	Barraneche	6	Junio	2023-06-29T00:00:00	2024-11-06T16:00:00	2	Temperatura media	18.8
34498	7	Sololá	701	Sololá	3	Barraneche	6	Junio	2023-06-29T00:00:00	2024-11-06T16:00:00	4	Temperatura máxima	19.9
34499	7	Sololá	701	Sololá	3	Barraneche	6	Junio	2023-06-29T00:00:00	2024-11-06T16:00:00	3	Temperatura mínima	18.8
34500	7	Sololá	701	Sololá	3	Barraneche	6	Junio	2023-06-29T00:00:00	2024-11-06T16:00:00	5	Humedad	58
34501	7	Sololá	701	Sololá	3	Barraneche	6	Junio	2023-06-29T00:00:00	2024-11-06T16:00:00	6	Velocidad del viento	9.7
34502	7	Sololá	701	Sololá	3	Barraneche	6	Junio	2023-06-29T00:00:00	2024-11-06T16:00:00	7	Dirección del viento	9.66
34503	7	Sololá	701	Sololá	3	Barraneche	6	Junio	2023-06-29T00:00:00	2024-11-06T16:00:00	1	Precipitación	0
34504	7	Sololá	701	Sololá	3	Barraneche	6	Junio	2023-06-29T00:00:00	2024-11-06T16:00:00	8	Radiación solar	306
34505	7	Sololá	701	Sololá	3	Barraneche	6	Junio	2023-06-29T00:00:00	2024-11-06T17:00:00	2	Temperatura media	16.7
34506	7	Sololá	701	Sololá	3	Barraneche	6	Junio	2023-06-29T00:00:00	2024-11-06T17:00:00	4	Temperatura máxima	18.8
34507	7	Sololá	701	Sololá	3	Barraneche	6	Junio	2023-06-29T00:00:00	2024-11-06T17:00:00	3	Temperatura mínima	16.7
34508	7	Sololá	701	Sololá	3	Barraneche	6	Junio	2023-06-29T00:00:00	2024-11-06T17:00:00	5	Humedad	73
34509	7	Sololá	701	Sololá	3	Barraneche	6	Junio	2023-06-29T00:00:00	2024-11-06T17:00:00	6	Velocidad del viento	8
34510	7	Sololá	701	Sololá	3	Barraneche	6	Junio	2023-06-29T00:00:00	2024-11-06T17:00:00	7	Dirección del viento	8.05
34511	7	Sololá	701	Sololá	3	Barraneche	6	Junio	2023-06-29T00:00:00	2024-11-06T17:00:00	1	Precipitación	0
34512	7	Sololá	701	Sololá	3	Barraneche	6	Junio	2023-06-29T00:00:00	2024-11-06T17:00:00	8	Radiación solar	139
34513	7	Sololá	701	Sololá	3	Barraneche	6	Junio	2023-06-29T00:00:00	2024-11-06T18:00:00	2	Temperatura media	15.8
34514	7	Sololá	701	Sololá	3	Barraneche	6	Junio	2023-06-29T00:00:00	2024-11-06T18:00:00	4	Temperatura máxima	16.7
34515	7	Sololá	701	Sololá	3	Barraneche	6	Junio	2023-06-29T00:00:00	2024-11-06T18:00:00	3	Temperatura mínima	15.7
34516	7	Sololá	701	Sololá	3	Barraneche	6	Junio	2023-06-29T00:00:00	2024-11-06T18:00:00	5	Humedad	73
34517	7	Sololá	701	Sololá	3	Barraneche	6	Junio	2023-06-29T00:00:00	2024-11-06T18:00:00	6	Velocidad del viento	8
34518	7	Sololá	701	Sololá	3	Barraneche	6	Junio	2023-06-29T00:00:00	2024-11-06T18:00:00	7	Dirección del viento	8.05
34519	7	Sololá	701	Sololá	3	Barraneche	6	Junio	2023-06-29T00:00:00	2024-11-06T18:00:00	1	Precipitación	0
34520	7	Sololá	701	Sololá	3	Barraneche	6	Junio	2023-06-29T00:00:00	2024-11-06T18:00:00	8	Radiación solar	34
34521	7	Sololá	701	Sololá	3	Barraneche	6	Junio	2023-06-29T00:00:00	2024-11-06T19:00:00	2	Temperatura media	16.2
34522	7	Sololá	701	Sololá	3	Barraneche	6	Junio	2023-06-29T00:00:00	2024-11-06T19:00:00	4	Temperatura máxima	16.2
34523	7	Sololá	701	Sololá	3	Barraneche	6	Junio	2023-06-29T00:00:00	2024-11-06T19:00:00	3	Temperatura mínima	15.8
34524	7	Sololá	701	Sololá	3	Barraneche	6	Junio	2023-06-29T00:00:00	2024-11-06T19:00:00	5	Humedad	65
34525	7	Sololá	701	Sololá	3	Barraneche	6	Junio	2023-06-29T00:00:00	2024-11-06T19:00:00	6	Velocidad del viento	4.8
34526	7	Sololá	701	Sololá	3	Barraneche	6	Junio	2023-06-29T00:00:00	2024-11-06T19:00:00	7	Dirección del viento	4.83
34527	7	Sololá	701	Sololá	3	Barraneche	6	Junio	2023-06-29T00:00:00	2024-11-06T19:00:00	1	Precipitación	0
34528	7	Sololá	701	Sololá	3	Barraneche	6	Junio	2023-06-29T00:00:00	2024-11-06T19:00:00	8	Radiación solar	0
34529	7	Sololá	701	Sololá	3	Barraneche	6	Junio	2023-06-29T00:00:00	2024-11-06T20:00:00	2	Temperatura media	15.6
34530	7	Sololá	701	Sololá	3	Barraneche	6	Junio	2023-06-29T00:00:00	2024-11-06T20:00:00	4	Temperatura máxima	16.2
34531	7	Sololá	701	Sololá	3	Barraneche	6	Junio	2023-06-29T00:00:00	2024-11-06T20:00:00	3	Temperatura mínima	15.3
34532	7	Sololá	701	Sololá	3	Barraneche	6	Junio	2023-06-29T00:00:00	2024-11-06T20:00:00	5	Humedad	64
34533	7	Sololá	701	Sololá	3	Barraneche	6	Junio	2023-06-29T00:00:00	2024-11-06T20:00:00	6	Velocidad del viento	8
34534	7	Sololá	701	Sololá	3	Barraneche	6	Junio	2023-06-29T00:00:00	2024-11-06T20:00:00	7	Dirección del viento	8.05
34535	7	Sololá	701	Sololá	3	Barraneche	6	Junio	2023-06-29T00:00:00	2024-11-06T20:00:00	1	Precipitación	0
34536	7	Sololá	701	Sololá	3	Barraneche	6	Junio	2023-06-29T00:00:00	2024-11-06T20:00:00	8	Radiación solar	0
34537	7	Sololá	701	Sololá	3	Barraneche	6	Junio	2023-06-29T00:00:00	2024-11-06T21:00:00	2	Temperatura media	15.3
34538	7	Sololá	701	Sololá	3	Barraneche	6	Junio	2023-06-29T00:00:00	2024-11-06T21:00:00	4	Temperatura máxima	15.8
34539	7	Sololá	701	Sololá	3	Barraneche	6	Junio	2023-06-29T00:00:00	2024-11-06T21:00:00	3	Temperatura mínima	15.1
34540	7	Sololá	701	Sololá	3	Barraneche	6	Junio	2023-06-29T00:00:00	2024-11-06T21:00:00	5	Humedad	59
34541	7	Sololá	701	Sololá	3	Barraneche	6	Junio	2023-06-29T00:00:00	2024-11-06T21:00:00	6	Velocidad del viento	6.4
34542	7	Sololá	701	Sololá	3	Barraneche	6	Junio	2023-06-29T00:00:00	2024-11-06T21:00:00	7	Dirección del viento	6.44
34543	7	Sololá	701	Sololá	3	Barraneche	6	Junio	2023-06-29T00:00:00	2024-11-06T21:00:00	1	Precipitación	0
34544	7	Sololá	701	Sololá	3	Barraneche	6	Junio	2023-06-29T00:00:00	2024-11-06T21:00:00	8	Radiación solar	0
34545	7	Sololá	701	Sololá	3	Barraneche	6	Junio	2023-06-29T00:00:00	2024-11-06T22:00:00	2	Temperatura media	14.6
34546	7	Sololá	701	Sololá	3	Barraneche	6	Junio	2023-06-29T00:00:00	2024-11-06T22:00:00	4	Temperatura máxima	15.9
34547	7	Sololá	701	Sololá	3	Barraneche	6	Junio	2023-06-29T00:00:00	2024-11-06T22:00:00	3	Temperatura mínima	14.6
34548	7	Sololá	701	Sololá	3	Barraneche	6	Junio	2023-06-29T00:00:00	2024-11-06T22:00:00	5	Humedad	65
34549	7	Sololá	701	Sololá	3	Barraneche	6	Junio	2023-06-29T00:00:00	2024-11-06T22:00:00	6	Velocidad del viento	3.2
34550	7	Sololá	701	Sololá	3	Barraneche	6	Junio	2023-06-29T00:00:00	2024-11-06T22:00:00	7	Dirección del viento	3.22
34551	7	Sololá	701	Sololá	3	Barraneche	6	Junio	2023-06-29T00:00:00	2024-11-06T22:00:00	1	Precipitación	0
34552	7	Sololá	701	Sololá	3	Barraneche	6	Junio	2023-06-29T00:00:00	2024-11-06T22:00:00	8	Radiación solar	0
34553	7	Sololá	701	Sololá	3	Barraneche	6	Junio	2023-06-29T00:00:00	2024-11-06T23:00:00	2	Temperatura media	14.1
34554	7	Sololá	701	Sololá	3	Barraneche	6	Junio	2023-06-29T00:00:00	2024-11-06T23:00:00	4	Temperatura máxima	14.6
34555	7	Sololá	701	Sololá	3	Barraneche	6	Junio	2023-06-29T00:00:00	2024-11-06T23:00:00	3	Temperatura mínima	13.7
34556	7	Sololá	701	Sololá	3	Barraneche	6	Junio	2023-06-29T00:00:00	2024-11-06T23:00:00	5	Humedad	68
34557	7	Sololá	701	Sololá	3	Barraneche	6	Junio	2023-06-29T00:00:00	2024-11-06T23:00:00	6	Velocidad del viento	3.2
34558	7	Sololá	701	Sololá	3	Barraneche	6	Junio	2023-06-29T00:00:00	2024-11-06T23:00:00	7	Dirección del viento	3.22
34559	7	Sololá	701	Sololá	3	Barraneche	6	Junio	2023-06-29T00:00:00	2024-11-06T23:00:00	1	Precipitación	0
34560	7	Sololá	701	Sololá	3	Barraneche	6	Junio	2023-06-29T00:00:00	2024-11-06T23:00:00	8	Radiación solar	0
34561	7	Sololá	701	Sololá	3	Barraneche	6	Junio	2023-06-30T00:00:00	2024-11-06T00:00:00	2	Temperatura media	13.6
34562	7	Sololá	701	Sololá	3	Barraneche	6	Junio	2023-06-30T00:00:00	2024-11-06T00:00:00	4	Temperatura máxima	14.1
34563	7	Sololá	701	Sololá	3	Barraneche	6	Junio	2023-06-30T00:00:00	2024-11-06T00:00:00	3	Temperatura mínima	13.4
34564	7	Sololá	701	Sololá	3	Barraneche	6	Junio	2023-06-30T00:00:00	2024-11-06T00:00:00	5	Humedad	66
34565	7	Sololá	701	Sololá	3	Barraneche	6	Junio	2023-06-30T00:00:00	2024-11-06T00:00:00	6	Velocidad del viento	3.2
34566	7	Sololá	701	Sololá	3	Barraneche	6	Junio	2023-06-30T00:00:00	2024-11-06T00:00:00	7	Dirección del viento	3.22
34567	7	Sololá	701	Sololá	3	Barraneche	6	Junio	2023-06-30T00:00:00	2024-11-06T00:00:00	1	Precipitación	0
34568	7	Sololá	701	Sololá	3	Barraneche	6	Junio	2023-06-30T00:00:00	2024-11-06T00:00:00	8	Radiación solar	0
34569	7	Sololá	701	Sololá	3	Barraneche	6	Junio	2023-06-30T00:00:00	2024-11-06T01:00:00	2	Temperatura media	12.5
34570	7	Sololá	701	Sololá	3	Barraneche	6	Junio	2023-06-30T00:00:00	2024-11-06T01:00:00	4	Temperatura máxima	13.6
34571	7	Sololá	701	Sololá	3	Barraneche	6	Junio	2023-06-30T00:00:00	2024-11-06T01:00:00	3	Temperatura mínima	12.5
34572	7	Sololá	701	Sololá	3	Barraneche	6	Junio	2023-06-30T00:00:00	2024-11-06T01:00:00	5	Humedad	68
34573	7	Sololá	701	Sololá	3	Barraneche	6	Junio	2023-06-30T00:00:00	2024-11-06T01:00:00	6	Velocidad del viento	3.2
34574	7	Sololá	701	Sololá	3	Barraneche	6	Junio	2023-06-30T00:00:00	2024-11-06T01:00:00	7	Dirección del viento	3.22
34575	7	Sololá	701	Sololá	3	Barraneche	6	Junio	2023-06-30T00:00:00	2024-11-06T01:00:00	1	Precipitación	0
34576	7	Sololá	701	Sololá	3	Barraneche	6	Junio	2023-06-30T00:00:00	2024-11-06T01:00:00	8	Radiación solar	0
34577	7	Sololá	701	Sololá	3	Barraneche	6	Junio	2023-06-30T00:00:00	2024-11-06T02:00:00	2	Temperatura media	11.9
34578	7	Sololá	701	Sololá	3	Barraneche	6	Junio	2023-06-30T00:00:00	2024-11-06T02:00:00	4	Temperatura máxima	12.5
34579	7	Sololá	701	Sololá	3	Barraneche	6	Junio	2023-06-30T00:00:00	2024-11-06T02:00:00	3	Temperatura mínima	11.9
34580	7	Sololá	701	Sololá	3	Barraneche	6	Junio	2023-06-30T00:00:00	2024-11-06T02:00:00	5	Humedad	69
34581	7	Sololá	701	Sololá	3	Barraneche	6	Junio	2023-06-30T00:00:00	2024-11-06T02:00:00	6	Velocidad del viento	4.8
34582	7	Sololá	701	Sololá	3	Barraneche	6	Junio	2023-06-30T00:00:00	2024-11-06T02:00:00	7	Dirección del viento	4.83
34583	7	Sololá	701	Sololá	3	Barraneche	6	Junio	2023-06-30T00:00:00	2024-11-06T02:00:00	1	Precipitación	0
34584	7	Sololá	701	Sololá	3	Barraneche	6	Junio	2023-06-30T00:00:00	2024-11-06T02:00:00	8	Radiación solar	0
34585	7	Sololá	701	Sololá	3	Barraneche	6	Junio	2023-06-30T00:00:00	2024-11-06T03:00:00	2	Temperatura media	12.1
34586	7	Sololá	701	Sololá	3	Barraneche	6	Junio	2023-06-30T00:00:00	2024-11-06T03:00:00	4	Temperatura máxima	12.5
34587	7	Sololá	701	Sololá	3	Barraneche	6	Junio	2023-06-30T00:00:00	2024-11-06T03:00:00	3	Temperatura mínima	11.8
34588	7	Sololá	701	Sololá	3	Barraneche	6	Junio	2023-06-30T00:00:00	2024-11-06T03:00:00	5	Humedad	70
34589	7	Sololá	701	Sololá	3	Barraneche	6	Junio	2023-06-30T00:00:00	2024-11-06T03:00:00	6	Velocidad del viento	4.8
34590	7	Sololá	701	Sololá	3	Barraneche	6	Junio	2023-06-30T00:00:00	2024-11-06T03:00:00	7	Dirección del viento	4.83
34591	7	Sololá	701	Sololá	3	Barraneche	6	Junio	2023-06-30T00:00:00	2024-11-06T03:00:00	1	Precipitación	0
34592	7	Sololá	701	Sololá	3	Barraneche	6	Junio	2023-06-30T00:00:00	2024-11-06T03:00:00	8	Radiación solar	0
34593	7	Sololá	701	Sololá	3	Barraneche	6	Junio	2023-06-30T00:00:00	2024-11-06T04:00:00	2	Temperatura media	12.4
34594	7	Sololá	701	Sololá	3	Barraneche	6	Junio	2023-06-30T00:00:00	2024-11-06T04:00:00	4	Temperatura máxima	12.4
34595	7	Sololá	701	Sololá	3	Barraneche	6	Junio	2023-06-30T00:00:00	2024-11-06T04:00:00	3	Temperatura mínima	11.9
34596	7	Sololá	701	Sololá	3	Barraneche	6	Junio	2023-06-30T00:00:00	2024-11-06T04:00:00	5	Humedad	69
34597	7	Sololá	701	Sololá	3	Barraneche	6	Junio	2023-06-30T00:00:00	2024-11-06T04:00:00	6	Velocidad del viento	4.8
34598	7	Sololá	701	Sololá	3	Barraneche	6	Junio	2023-06-30T00:00:00	2024-11-06T04:00:00	7	Dirección del viento	4.83
34599	7	Sololá	701	Sololá	3	Barraneche	6	Junio	2023-06-30T00:00:00	2024-11-06T04:00:00	1	Precipitación	0
34600	7	Sololá	701	Sololá	3	Barraneche	6	Junio	2023-06-30T00:00:00	2024-11-06T04:00:00	8	Radiación solar	0
34601	7	Sololá	701	Sololá	3	Barraneche	6	Junio	2023-06-30T00:00:00	2024-11-06T05:00:00	2	Temperatura media	12.4
34602	7	Sololá	701	Sololá	3	Barraneche	6	Junio	2023-06-30T00:00:00	2024-11-06T05:00:00	4	Temperatura máxima	12.8
34603	7	Sololá	701	Sololá	3	Barraneche	6	Junio	2023-06-30T00:00:00	2024-11-06T05:00:00	3	Temperatura mínima	12.3
34604	7	Sololá	701	Sololá	3	Barraneche	6	Junio	2023-06-30T00:00:00	2024-11-06T05:00:00	5	Humedad	68
34605	7	Sololá	701	Sololá	3	Barraneche	6	Junio	2023-06-30T00:00:00	2024-11-06T05:00:00	6	Velocidad del viento	4.8
34606	7	Sololá	701	Sololá	3	Barraneche	6	Junio	2023-06-30T00:00:00	2024-11-06T05:00:00	7	Dirección del viento	4.83
34607	7	Sololá	701	Sololá	3	Barraneche	6	Junio	2023-06-30T00:00:00	2024-11-06T05:00:00	1	Precipitación	0
34608	7	Sololá	701	Sololá	3	Barraneche	6	Junio	2023-06-30T00:00:00	2024-11-06T05:00:00	8	Radiación solar	0
34609	7	Sololá	701	Sololá	3	Barraneche	6	Junio	2023-06-30T00:00:00	2024-11-06T06:00:00	2	Temperatura media	11.8
34610	7	Sololá	701	Sololá	3	Barraneche	6	Junio	2023-06-30T00:00:00	2024-11-06T06:00:00	4	Temperatura máxima	13
34611	7	Sololá	701	Sololá	3	Barraneche	6	Junio	2023-06-30T00:00:00	2024-11-06T06:00:00	3	Temperatura mínima	11.8
34612	7	Sololá	701	Sololá	3	Barraneche	6	Junio	2023-06-30T00:00:00	2024-11-06T06:00:00	5	Humedad	70
34613	7	Sololá	701	Sololá	3	Barraneche	6	Junio	2023-06-30T00:00:00	2024-11-06T06:00:00	6	Velocidad del viento	3.2
34614	7	Sololá	701	Sololá	3	Barraneche	6	Junio	2023-06-30T00:00:00	2024-11-06T06:00:00	7	Dirección del viento	3.22
34615	7	Sololá	701	Sololá	3	Barraneche	6	Junio	2023-06-30T00:00:00	2024-11-06T06:00:00	1	Precipitación	0
34616	7	Sololá	701	Sololá	3	Barraneche	6	Junio	2023-06-30T00:00:00	2024-11-06T06:00:00	8	Radiación solar	3
34617	7	Sololá	701	Sololá	3	Barraneche	6	Junio	2023-06-30T00:00:00	2024-11-06T07:00:00	2	Temperatura media	15.2
34618	7	Sololá	701	Sololá	3	Barraneche	6	Junio	2023-06-30T00:00:00	2024-11-06T07:00:00	4	Temperatura máxima	15.2
34619	7	Sololá	701	Sololá	3	Barraneche	6	Junio	2023-06-30T00:00:00	2024-11-06T07:00:00	3	Temperatura mínima	11.6
34620	7	Sololá	701	Sololá	3	Barraneche	6	Junio	2023-06-30T00:00:00	2024-11-06T07:00:00	5	Humedad	64
34621	7	Sololá	701	Sololá	3	Barraneche	6	Junio	2023-06-30T00:00:00	2024-11-06T07:00:00	6	Velocidad del viento	3.2
34622	7	Sololá	701	Sololá	3	Barraneche	6	Junio	2023-06-30T00:00:00	2024-11-06T07:00:00	7	Dirección del viento	3.22
34623	7	Sololá	701	Sololá	3	Barraneche	6	Junio	2023-06-30T00:00:00	2024-11-06T07:00:00	1	Precipitación	0
34624	7	Sololá	701	Sololá	3	Barraneche	6	Junio	2023-06-30T00:00:00	2024-11-06T07:00:00	8	Radiación solar	140
34625	7	Sololá	701	Sololá	3	Barraneche	6	Junio	2023-06-30T00:00:00	2024-11-06T08:00:00	2	Temperatura media	17.7
34626	7	Sololá	701	Sololá	3	Barraneche	6	Junio	2023-06-30T00:00:00	2024-11-06T08:00:00	4	Temperatura máxima	18
34627	7	Sololá	701	Sololá	3	Barraneche	6	Junio	2023-06-30T00:00:00	2024-11-06T08:00:00	3	Temperatura mínima	15.2
34628	7	Sololá	701	Sololá	3	Barraneche	6	Junio	2023-06-30T00:00:00	2024-11-06T08:00:00	5	Humedad	58
34629	7	Sololá	701	Sololá	3	Barraneche	6	Junio	2023-06-30T00:00:00	2024-11-06T08:00:00	6	Velocidad del viento	1.6
34630	7	Sololá	701	Sololá	3	Barraneche	6	Junio	2023-06-30T00:00:00	2024-11-06T08:00:00	7	Dirección del viento	1.61
34631	7	Sololá	701	Sololá	3	Barraneche	6	Junio	2023-06-30T00:00:00	2024-11-06T08:00:00	1	Precipitación	0
34632	7	Sololá	701	Sololá	3	Barraneche	6	Junio	2023-06-30T00:00:00	2024-11-06T08:00:00	8	Radiación solar	395
34633	7	Sololá	701	Sololá	3	Barraneche	6	Junio	2023-06-30T00:00:00	2024-11-06T09:00:00	2	Temperatura media	18.6
34634	7	Sololá	701	Sololá	3	Barraneche	6	Junio	2023-06-30T00:00:00	2024-11-06T09:00:00	4	Temperatura máxima	18.7
34635	7	Sololá	701	Sololá	3	Barraneche	6	Junio	2023-06-30T00:00:00	2024-11-06T09:00:00	3	Temperatura mínima	17.4
34636	7	Sololá	701	Sololá	3	Barraneche	6	Junio	2023-06-30T00:00:00	2024-11-06T09:00:00	5	Humedad	57
34637	7	Sololá	701	Sololá	3	Barraneche	6	Junio	2023-06-30T00:00:00	2024-11-06T09:00:00	6	Velocidad del viento	3.2
34638	7	Sololá	701	Sololá	3	Barraneche	6	Junio	2023-06-30T00:00:00	2024-11-06T09:00:00	7	Dirección del viento	3.22
34639	7	Sololá	701	Sololá	3	Barraneche	6	Junio	2023-06-30T00:00:00	2024-11-06T09:00:00	1	Precipitación	0
34640	7	Sololá	701	Sololá	3	Barraneche	6	Junio	2023-06-30T00:00:00	2024-11-06T09:00:00	8	Radiación solar	525
34641	7	Sololá	701	Sololá	3	Barraneche	6	Junio	2023-06-30T00:00:00	2024-11-06T10:00:00	2	Temperatura media	19
34642	7	Sololá	701	Sololá	3	Barraneche	6	Junio	2023-06-30T00:00:00	2024-11-06T10:00:00	4	Temperatura máxima	19.9
34643	7	Sololá	701	Sololá	3	Barraneche	6	Junio	2023-06-30T00:00:00	2024-11-06T10:00:00	3	Temperatura mínima	18.6
34644	7	Sololá	701	Sololá	3	Barraneche	6	Junio	2023-06-30T00:00:00	2024-11-06T10:00:00	5	Humedad	53
34645	7	Sololá	701	Sololá	3	Barraneche	6	Junio	2023-06-30T00:00:00	2024-11-06T10:00:00	6	Velocidad del viento	11.3
34646	7	Sololá	701	Sololá	3	Barraneche	6	Junio	2023-06-30T00:00:00	2024-11-06T10:00:00	7	Dirección del viento	11.27
34647	7	Sololá	701	Sololá	3	Barraneche	6	Junio	2023-06-30T00:00:00	2024-11-06T10:00:00	1	Precipitación	0
34648	7	Sololá	701	Sololá	3	Barraneche	6	Junio	2023-06-30T00:00:00	2024-11-06T10:00:00	8	Radiación solar	792
34649	7	Sololá	701	Sololá	3	Barraneche	6	Junio	2023-06-30T00:00:00	2024-11-06T11:00:00	2	Temperatura media	19.3
34650	7	Sololá	701	Sololá	3	Barraneche	6	Junio	2023-06-30T00:00:00	2024-11-06T11:00:00	4	Temperatura máxima	19.8
34651	7	Sololá	701	Sololá	3	Barraneche	6	Junio	2023-06-30T00:00:00	2024-11-06T11:00:00	3	Temperatura mínima	19
34652	7	Sololá	701	Sololá	3	Barraneche	6	Junio	2023-06-30T00:00:00	2024-11-06T11:00:00	5	Humedad	50
34653	7	Sololá	701	Sololá	3	Barraneche	6	Junio	2023-06-30T00:00:00	2024-11-06T11:00:00	6	Velocidad del viento	11.3
34654	7	Sololá	701	Sololá	3	Barraneche	6	Junio	2023-06-30T00:00:00	2024-11-06T11:00:00	7	Dirección del viento	11.27
34655	7	Sololá	701	Sololá	3	Barraneche	6	Junio	2023-06-30T00:00:00	2024-11-06T11:00:00	1	Precipitación	0
34656	7	Sololá	701	Sololá	3	Barraneche	6	Junio	2023-06-30T00:00:00	2024-11-06T11:00:00	8	Radiación solar	985
34657	7	Sololá	701	Sololá	3	Barraneche	6	Junio	2023-06-30T00:00:00	2024-11-06T12:00:00	2	Temperatura media	20.1
34658	7	Sololá	701	Sololá	3	Barraneche	6	Junio	2023-06-30T00:00:00	2024-11-06T12:00:00	4	Temperatura máxima	20.6
34659	7	Sololá	701	Sololá	3	Barraneche	6	Junio	2023-06-30T00:00:00	2024-11-06T12:00:00	3	Temperatura mínima	19.3
34660	7	Sololá	701	Sololá	3	Barraneche	6	Junio	2023-06-30T00:00:00	2024-11-06T12:00:00	5	Humedad	47
34661	7	Sololá	701	Sololá	3	Barraneche	6	Junio	2023-06-30T00:00:00	2024-11-06T12:00:00	6	Velocidad del viento	9.7
34662	7	Sololá	701	Sololá	3	Barraneche	6	Junio	2023-06-30T00:00:00	2024-11-06T12:00:00	7	Dirección del viento	9.66
34663	7	Sololá	701	Sololá	3	Barraneche	6	Junio	2023-06-30T00:00:00	2024-11-06T12:00:00	1	Precipitación	0
34664	7	Sololá	701	Sololá	3	Barraneche	6	Junio	2023-06-30T00:00:00	2024-11-06T12:00:00	8	Radiación solar	1036
34665	7	Sololá	701	Sololá	3	Barraneche	6	Junio	2023-06-30T00:00:00	2024-11-06T13:00:00	2	Temperatura media	20.8
34666	7	Sololá	701	Sololá	3	Barraneche	6	Junio	2023-06-30T00:00:00	2024-11-06T13:00:00	4	Temperatura máxima	21.1
34667	7	Sololá	701	Sololá	3	Barraneche	6	Junio	2023-06-30T00:00:00	2024-11-06T13:00:00	3	Temperatura mínima	19.8
34668	7	Sololá	701	Sololá	3	Barraneche	6	Junio	2023-06-30T00:00:00	2024-11-06T13:00:00	5	Humedad	47
34669	7	Sololá	701	Sololá	3	Barraneche	6	Junio	2023-06-30T00:00:00	2024-11-06T13:00:00	6	Velocidad del viento	11.3
34670	7	Sololá	701	Sololá	3	Barraneche	6	Junio	2023-06-30T00:00:00	2024-11-06T13:00:00	7	Dirección del viento	11.27
34671	7	Sololá	701	Sololá	3	Barraneche	6	Junio	2023-06-30T00:00:00	2024-11-06T13:00:00	1	Precipitación	0
34672	7	Sololá	701	Sololá	3	Barraneche	6	Junio	2023-06-30T00:00:00	2024-11-06T13:00:00	8	Radiación solar	995
34673	7	Sololá	701	Sololá	3	Barraneche	6	Junio	2023-06-30T00:00:00	2024-11-06T14:00:00	2	Temperatura media	20.2
34674	7	Sololá	701	Sololá	3	Barraneche	6	Junio	2023-06-30T00:00:00	2024-11-06T14:00:00	4	Temperatura máxima	21
34675	7	Sololá	701	Sololá	3	Barraneche	6	Junio	2023-06-30T00:00:00	2024-11-06T14:00:00	3	Temperatura mínima	20.2
34676	7	Sololá	701	Sololá	3	Barraneche	6	Junio	2023-06-30T00:00:00	2024-11-06T14:00:00	5	Humedad	45
34677	7	Sololá	701	Sololá	3	Barraneche	6	Junio	2023-06-30T00:00:00	2024-11-06T14:00:00	6	Velocidad del viento	11.3
34678	7	Sololá	701	Sololá	3	Barraneche	6	Junio	2023-06-30T00:00:00	2024-11-06T14:00:00	7	Dirección del viento	11.27
34679	7	Sololá	701	Sololá	3	Barraneche	6	Junio	2023-06-30T00:00:00	2024-11-06T14:00:00	1	Precipitación	0
34680	7	Sololá	701	Sololá	3	Barraneche	6	Junio	2023-06-30T00:00:00	2024-11-06T14:00:00	8	Radiación solar	802
34681	7	Sololá	701	Sololá	3	Barraneche	6	Junio	2023-06-30T00:00:00	2024-11-06T15:00:00	2	Temperatura media	19.1
34682	7	Sololá	701	Sololá	3	Barraneche	6	Junio	2023-06-30T00:00:00	2024-11-06T15:00:00	4	Temperatura máxima	20.2
34683	7	Sololá	701	Sololá	3	Barraneche	6	Junio	2023-06-30T00:00:00	2024-11-06T15:00:00	3	Temperatura mínima	19
34684	7	Sololá	701	Sololá	3	Barraneche	6	Junio	2023-06-30T00:00:00	2024-11-06T15:00:00	5	Humedad	58
34685	7	Sololá	701	Sololá	3	Barraneche	6	Junio	2023-06-30T00:00:00	2024-11-06T15:00:00	6	Velocidad del viento	6.4
34686	7	Sololá	701	Sololá	3	Barraneche	6	Junio	2023-06-30T00:00:00	2024-11-06T15:00:00	7	Dirección del viento	6.44
34687	7	Sololá	701	Sololá	3	Barraneche	6	Junio	2023-06-30T00:00:00	2024-11-06T15:00:00	1	Precipitación	0
34688	7	Sololá	701	Sololá	3	Barraneche	6	Junio	2023-06-30T00:00:00	2024-11-06T15:00:00	8	Radiación solar	207
34689	7	Sololá	701	Sololá	3	Barraneche	6	Junio	2023-06-30T00:00:00	2024-11-06T16:00:00	2	Temperatura media	19
34690	7	Sololá	701	Sololá	3	Barraneche	6	Junio	2023-06-30T00:00:00	2024-11-06T16:00:00	4	Temperatura máxima	20.3
34691	7	Sololá	701	Sololá	3	Barraneche	6	Junio	2023-06-30T00:00:00	2024-11-06T16:00:00	3	Temperatura mínima	19
34692	7	Sololá	701	Sololá	3	Barraneche	6	Junio	2023-06-30T00:00:00	2024-11-06T16:00:00	5	Humedad	63
34693	7	Sololá	701	Sololá	3	Barraneche	6	Junio	2023-06-30T00:00:00	2024-11-06T16:00:00	6	Velocidad del viento	8
34694	7	Sololá	701	Sololá	3	Barraneche	6	Junio	2023-06-30T00:00:00	2024-11-06T16:00:00	7	Dirección del viento	8.05
34695	7	Sololá	701	Sololá	3	Barraneche	6	Junio	2023-06-30T00:00:00	2024-11-06T16:00:00	1	Precipitación	0
34696	7	Sololá	701	Sololá	3	Barraneche	6	Junio	2023-06-30T00:00:00	2024-11-06T16:00:00	8	Radiación solar	354
34697	7	Sololá	701	Sololá	3	Barraneche	6	Junio	2023-06-30T00:00:00	2024-11-06T17:00:00	2	Temperatura media	17.2
34698	7	Sololá	701	Sololá	3	Barraneche	6	Junio	2023-06-30T00:00:00	2024-11-06T17:00:00	4	Temperatura máxima	19
34699	7	Sololá	701	Sololá	3	Barraneche	6	Junio	2023-06-30T00:00:00	2024-11-06T17:00:00	3	Temperatura mínima	17.2
34700	7	Sololá	701	Sololá	3	Barraneche	6	Junio	2023-06-30T00:00:00	2024-11-06T17:00:00	5	Humedad	70
34701	7	Sololá	701	Sololá	3	Barraneche	6	Junio	2023-06-30T00:00:00	2024-11-06T17:00:00	6	Velocidad del viento	9.7
34702	7	Sololá	701	Sololá	3	Barraneche	6	Junio	2023-06-30T00:00:00	2024-11-06T17:00:00	7	Dirección del viento	9.66
34703	7	Sololá	701	Sololá	3	Barraneche	6	Junio	2023-06-30T00:00:00	2024-11-06T17:00:00	1	Precipitación	0
34704	7	Sololá	701	Sololá	3	Barraneche	6	Junio	2023-06-30T00:00:00	2024-11-06T17:00:00	8	Radiación solar	140
34705	7	Sololá	701	Sololá	3	Barraneche	6	Junio	2023-06-30T00:00:00	2024-11-06T18:00:00	2	Temperatura media	17.1
34706	7	Sololá	701	Sololá	3	Barraneche	6	Junio	2023-06-30T00:00:00	2024-11-06T18:00:00	4	Temperatura máxima	17.7
34707	7	Sololá	701	Sololá	3	Barraneche	6	Junio	2023-06-30T00:00:00	2024-11-06T18:00:00	3	Temperatura mínima	17.1
34708	7	Sololá	701	Sololá	3	Barraneche	6	Junio	2023-06-30T00:00:00	2024-11-06T18:00:00	5	Humedad	54
34709	7	Sololá	701	Sololá	3	Barraneche	6	Junio	2023-06-30T00:00:00	2024-11-06T18:00:00	6	Velocidad del viento	9.7
34710	7	Sololá	701	Sololá	3	Barraneche	6	Junio	2023-06-30T00:00:00	2024-11-06T18:00:00	7	Dirección del viento	9.66
34711	7	Sololá	701	Sololá	3	Barraneche	6	Junio	2023-06-30T00:00:00	2024-11-06T18:00:00	1	Precipitación	0
34712	7	Sololá	701	Sololá	3	Barraneche	6	Junio	2023-06-30T00:00:00	2024-11-06T18:00:00	8	Radiación solar	61
34713	7	Sololá	701	Sololá	3	Barraneche	6	Junio	2023-06-30T00:00:00	2024-11-06T19:00:00	2	Temperatura media	16
34714	7	Sololá	701	Sololá	3	Barraneche	6	Junio	2023-06-30T00:00:00	2024-11-06T19:00:00	4	Temperatura máxima	17.1
34715	7	Sololá	701	Sololá	3	Barraneche	6	Junio	2023-06-30T00:00:00	2024-11-06T19:00:00	3	Temperatura mínima	15.9
34716	7	Sololá	701	Sololá	3	Barraneche	6	Junio	2023-06-30T00:00:00	2024-11-06T19:00:00	5	Humedad	58
34717	7	Sololá	701	Sololá	3	Barraneche	6	Junio	2023-06-30T00:00:00	2024-11-06T19:00:00	6	Velocidad del viento	9.7
34718	7	Sololá	701	Sololá	3	Barraneche	6	Junio	2023-06-30T00:00:00	2024-11-06T19:00:00	7	Dirección del viento	9.66
34719	7	Sololá	701	Sololá	3	Barraneche	6	Junio	2023-06-30T00:00:00	2024-11-06T19:00:00	1	Precipitación	0
34720	7	Sololá	701	Sololá	3	Barraneche	6	Junio	2023-06-30T00:00:00	2024-11-06T19:00:00	8	Radiación solar	0
34721	7	Sololá	701	Sololá	3	Barraneche	6	Junio	2023-06-30T00:00:00	2024-11-06T20:00:00	2	Temperatura media	15.3
34722	7	Sololá	701	Sololá	3	Barraneche	6	Junio	2023-06-30T00:00:00	2024-11-06T20:00:00	4	Temperatura máxima	16.1
34723	7	Sololá	701	Sololá	3	Barraneche	6	Junio	2023-06-30T00:00:00	2024-11-06T20:00:00	3	Temperatura mínima	15.3
34724	7	Sololá	701	Sololá	3	Barraneche	6	Junio	2023-06-30T00:00:00	2024-11-06T20:00:00	5	Humedad	58
34725	7	Sololá	701	Sololá	3	Barraneche	6	Junio	2023-06-30T00:00:00	2024-11-06T20:00:00	6	Velocidad del viento	8
34726	7	Sololá	701	Sololá	3	Barraneche	6	Junio	2023-06-30T00:00:00	2024-11-06T20:00:00	7	Dirección del viento	8.05
34727	7	Sololá	701	Sololá	3	Barraneche	6	Junio	2023-06-30T00:00:00	2024-11-06T20:00:00	1	Precipitación	0
34728	7	Sololá	701	Sololá	3	Barraneche	6	Junio	2023-06-30T00:00:00	2024-11-06T20:00:00	8	Radiación solar	0
34729	7	Sololá	701	Sololá	3	Barraneche	6	Junio	2023-06-30T00:00:00	2024-11-06T21:00:00	2	Temperatura media	13.4
34730	7	Sololá	701	Sololá	3	Barraneche	6	Junio	2023-06-30T00:00:00	2024-11-06T21:00:00	4	Temperatura máxima	15.4
34731	7	Sololá	701	Sololá	3	Barraneche	6	Junio	2023-06-30T00:00:00	2024-11-06T21:00:00	3	Temperatura mínima	13.2
34732	7	Sololá	701	Sololá	3	Barraneche	6	Junio	2023-06-30T00:00:00	2024-11-06T21:00:00	5	Humedad	62
34733	7	Sololá	701	Sololá	3	Barraneche	6	Junio	2023-06-30T00:00:00	2024-11-06T21:00:00	6	Velocidad del viento	4.8
34734	7	Sololá	701	Sololá	3	Barraneche	6	Junio	2023-06-30T00:00:00	2024-11-06T21:00:00	7	Dirección del viento	4.83
34735	7	Sololá	701	Sololá	3	Barraneche	6	Junio	2023-06-30T00:00:00	2024-11-06T21:00:00	1	Precipitación	0
34736	7	Sololá	701	Sololá	3	Barraneche	6	Junio	2023-06-30T00:00:00	2024-11-06T21:00:00	8	Radiación solar	0
34737	7	Sololá	701	Sololá	3	Barraneche	6	Junio	2023-06-30T00:00:00	2024-11-06T22:00:00	2	Temperatura media	12.3
34738	7	Sololá	701	Sololá	3	Barraneche	6	Junio	2023-06-30T00:00:00	2024-11-06T22:00:00	4	Temperatura máxima	13.4
34739	7	Sololá	701	Sololá	3	Barraneche	6	Junio	2023-06-30T00:00:00	2024-11-06T22:00:00	3	Temperatura mínima	12.2
34740	7	Sololá	701	Sololá	3	Barraneche	6	Junio	2023-06-30T00:00:00	2024-11-06T22:00:00	5	Humedad	64
34741	7	Sololá	701	Sololá	3	Barraneche	6	Junio	2023-06-30T00:00:00	2024-11-06T22:00:00	6	Velocidad del viento	4.8
34742	7	Sololá	701	Sololá	3	Barraneche	6	Junio	2023-06-30T00:00:00	2024-11-06T22:00:00	7	Dirección del viento	4.83
34743	7	Sololá	701	Sololá	3	Barraneche	6	Junio	2023-06-30T00:00:00	2024-11-06T22:00:00	1	Precipitación	0
34744	7	Sololá	701	Sololá	3	Barraneche	6	Junio	2023-06-30T00:00:00	2024-11-06T22:00:00	8	Radiación solar	0
34745	7	Sololá	701	Sololá	3	Barraneche	6	Junio	2023-06-30T00:00:00	2024-11-06T23:00:00	2	Temperatura media	14.4
34746	7	Sololá	701	Sololá	3	Barraneche	6	Junio	2023-06-30T00:00:00	2024-11-06T23:00:00	4	Temperatura máxima	14.4
34747	7	Sololá	701	Sololá	3	Barraneche	6	Junio	2023-06-30T00:00:00	2024-11-06T23:00:00	3	Temperatura mínima	12.1
34748	7	Sololá	701	Sololá	3	Barraneche	6	Junio	2023-06-30T00:00:00	2024-11-06T23:00:00	5	Humedad	63
34749	7	Sololá	701	Sololá	3	Barraneche	6	Junio	2023-06-30T00:00:00	2024-11-06T23:00:00	6	Velocidad del viento	3.2
34750	7	Sololá	701	Sololá	3	Barraneche	6	Junio	2023-06-30T00:00:00	2024-11-06T23:00:00	7	Dirección del viento	3.22
34751	7	Sololá	701	Sololá	3	Barraneche	6	Junio	2023-06-30T00:00:00	2024-11-06T23:00:00	1	Precipitación	0
34752	7	Sololá	701	Sololá	3	Barraneche	6	Junio	2023-06-30T00:00:00	2024-11-06T23:00:00	8	Radiación solar	0
34753	7	Sololá	701	Sololá	3	Barraneche	7	Julio	2023-01-07T00:00:00	2024-11-06T00:00:00	2	Temperatura media	13.1
34754	7	Sololá	701	Sololá	3	Barraneche	7	Julio	2023-01-07T00:00:00	2024-11-06T00:00:00	4	Temperatura máxima	14.7
34755	7	Sololá	701	Sololá	3	Barraneche	7	Julio	2023-01-07T00:00:00	2024-11-06T00:00:00	3	Temperatura mínima	13.1
34756	7	Sololá	701	Sololá	3	Barraneche	7	Julio	2023-01-07T00:00:00	2024-11-06T00:00:00	5	Humedad	66
34757	7	Sololá	701	Sololá	3	Barraneche	7	Julio	2023-01-07T00:00:00	2024-11-06T00:00:00	6	Velocidad del viento	3.2
34758	7	Sololá	701	Sololá	3	Barraneche	7	Julio	2023-01-07T00:00:00	2024-11-06T00:00:00	7	Dirección del viento	3.22
34759	7	Sololá	701	Sololá	3	Barraneche	7	Julio	2023-01-07T00:00:00	2024-11-06T00:00:00	1	Precipitación	0
34760	7	Sololá	701	Sololá	3	Barraneche	7	Julio	2023-01-07T00:00:00	2024-11-06T00:00:00	8	Radiación solar	0
34761	7	Sololá	701	Sololá	3	Barraneche	7	Julio	2023-01-07T00:00:00	2024-11-06T01:00:00	2	Temperatura media	15
34762	7	Sololá	701	Sololá	3	Barraneche	7	Julio	2023-01-07T00:00:00	2024-11-06T01:00:00	4	Temperatura máxima	15.1
34763	7	Sololá	701	Sololá	3	Barraneche	7	Julio	2023-01-07T00:00:00	2024-11-06T01:00:00	3	Temperatura mínima	12.8
34764	7	Sololá	701	Sololá	3	Barraneche	7	Julio	2023-01-07T00:00:00	2024-11-06T01:00:00	5	Humedad	79
34765	7	Sololá	701	Sololá	3	Barraneche	7	Julio	2023-01-07T00:00:00	2024-11-06T01:00:00	6	Velocidad del viento	0
34766	7	Sololá	701	Sololá	3	Barraneche	7	Julio	2023-01-07T00:00:00	2024-11-06T01:00:00	7	Dirección del viento	0
34767	7	Sololá	701	Sololá	3	Barraneche	7	Julio	2023-01-07T00:00:00	2024-11-06T01:00:00	1	Precipitación	0
34768	7	Sololá	701	Sololá	3	Barraneche	7	Julio	2023-01-07T00:00:00	2024-11-06T01:00:00	8	Radiación solar	0
34769	7	Sololá	701	Sololá	3	Barraneche	7	Julio	2023-01-07T00:00:00	2024-11-06T02:00:00	2	Temperatura media	13.3
34770	7	Sololá	701	Sololá	3	Barraneche	7	Julio	2023-01-07T00:00:00	2024-11-06T02:00:00	4	Temperatura máxima	15
34771	7	Sololá	701	Sololá	3	Barraneche	7	Julio	2023-01-07T00:00:00	2024-11-06T02:00:00	3	Temperatura mínima	13.2
34772	7	Sololá	701	Sololá	3	Barraneche	7	Julio	2023-01-07T00:00:00	2024-11-06T02:00:00	5	Humedad	83
34773	7	Sololá	701	Sololá	3	Barraneche	7	Julio	2023-01-07T00:00:00	2024-11-06T02:00:00	6	Velocidad del viento	0
34774	7	Sololá	701	Sololá	3	Barraneche	7	Julio	2023-01-07T00:00:00	2024-11-06T02:00:00	7	Dirección del viento	0
34775	7	Sololá	701	Sololá	3	Barraneche	7	Julio	2023-01-07T00:00:00	2024-11-06T02:00:00	1	Precipitación	0
34776	7	Sololá	701	Sololá	3	Barraneche	7	Julio	2023-01-07T00:00:00	2024-11-06T02:00:00	8	Radiación solar	0
34777	7	Sololá	701	Sololá	3	Barraneche	7	Julio	2023-01-07T00:00:00	2024-11-06T03:00:00	2	Temperatura media	12.2
34778	7	Sololá	701	Sololá	3	Barraneche	7	Julio	2023-01-07T00:00:00	2024-11-06T03:00:00	4	Temperatura máxima	13.3
34779	7	Sololá	701	Sololá	3	Barraneche	7	Julio	2023-01-07T00:00:00	2024-11-06T03:00:00	3	Temperatura mínima	11.7
34780	7	Sololá	701	Sololá	3	Barraneche	7	Julio	2023-01-07T00:00:00	2024-11-06T03:00:00	5	Humedad	66
34781	7	Sololá	701	Sololá	3	Barraneche	7	Julio	2023-01-07T00:00:00	2024-11-06T03:00:00	6	Velocidad del viento	3.2
34782	7	Sololá	701	Sololá	3	Barraneche	7	Julio	2023-01-07T00:00:00	2024-11-06T03:00:00	7	Dirección del viento	3.22
34783	7	Sololá	701	Sololá	3	Barraneche	7	Julio	2023-01-07T00:00:00	2024-11-06T03:00:00	1	Precipitación	0
34784	7	Sololá	701	Sololá	3	Barraneche	7	Julio	2023-01-07T00:00:00	2024-11-06T03:00:00	8	Radiación solar	0
34785	7	Sololá	701	Sololá	3	Barraneche	7	Julio	2023-01-07T00:00:00	2024-11-06T04:00:00	2	Temperatura media	12.1
34786	7	Sololá	701	Sololá	3	Barraneche	7	Julio	2023-01-07T00:00:00	2024-11-06T04:00:00	4	Temperatura máxima	12.2
34787	7	Sololá	701	Sololá	3	Barraneche	7	Julio	2023-01-07T00:00:00	2024-11-06T04:00:00	3	Temperatura mínima	11.7
34788	7	Sololá	701	Sololá	3	Barraneche	7	Julio	2023-01-07T00:00:00	2024-11-06T04:00:00	5	Humedad	64
34789	7	Sololá	701	Sololá	3	Barraneche	7	Julio	2023-01-07T00:00:00	2024-11-06T04:00:00	6	Velocidad del viento	6.4
34790	7	Sololá	701	Sololá	3	Barraneche	7	Julio	2023-01-07T00:00:00	2024-11-06T04:00:00	7	Dirección del viento	6.44
34791	7	Sololá	701	Sololá	3	Barraneche	7	Julio	2023-01-07T00:00:00	2024-11-06T04:00:00	1	Precipitación	0
34792	7	Sololá	701	Sololá	3	Barraneche	7	Julio	2023-01-07T00:00:00	2024-11-06T04:00:00	8	Radiación solar	0
34793	7	Sololá	701	Sololá	3	Barraneche	7	Julio	2023-01-07T00:00:00	2024-11-06T05:00:00	2	Temperatura media	11.8
34794	7	Sololá	701	Sololá	3	Barraneche	7	Julio	2023-01-07T00:00:00	2024-11-06T05:00:00	4	Temperatura máxima	12.7
34795	7	Sololá	701	Sololá	3	Barraneche	7	Julio	2023-01-07T00:00:00	2024-11-06T05:00:00	3	Temperatura mínima	11.6
34796	7	Sololá	701	Sololá	3	Barraneche	7	Julio	2023-01-07T00:00:00	2024-11-06T05:00:00	5	Humedad	66
34797	7	Sololá	701	Sololá	3	Barraneche	7	Julio	2023-01-07T00:00:00	2024-11-06T05:00:00	6	Velocidad del viento	6.4
34798	7	Sololá	701	Sololá	3	Barraneche	7	Julio	2023-01-07T00:00:00	2024-11-06T05:00:00	7	Dirección del viento	6.44
34799	7	Sololá	701	Sololá	3	Barraneche	7	Julio	2023-01-07T00:00:00	2024-11-06T05:00:00	1	Precipitación	0
34800	7	Sololá	701	Sololá	3	Barraneche	7	Julio	2023-01-07T00:00:00	2024-11-06T05:00:00	8	Radiación solar	0
34801	7	Sololá	701	Sololá	3	Barraneche	7	Julio	2023-01-07T00:00:00	2024-11-06T06:00:00	2	Temperatura media	11.2
34802	7	Sololá	701	Sololá	3	Barraneche	7	Julio	2023-01-07T00:00:00	2024-11-06T06:00:00	4	Temperatura máxima	11.9
34803	7	Sololá	701	Sololá	3	Barraneche	7	Julio	2023-01-07T00:00:00	2024-11-06T06:00:00	3	Temperatura mínima	11.2
34804	7	Sololá	701	Sololá	3	Barraneche	7	Julio	2023-01-07T00:00:00	2024-11-06T06:00:00	5	Humedad	70
34805	7	Sololá	701	Sololá	3	Barraneche	7	Julio	2023-01-07T00:00:00	2024-11-06T06:00:00	6	Velocidad del viento	4.8
34806	7	Sololá	701	Sololá	3	Barraneche	7	Julio	2023-01-07T00:00:00	2024-11-06T06:00:00	7	Dirección del viento	4.83
34807	7	Sololá	701	Sololá	3	Barraneche	7	Julio	2023-01-07T00:00:00	2024-11-06T06:00:00	1	Precipitación	0
34808	7	Sololá	701	Sololá	3	Barraneche	7	Julio	2023-01-07T00:00:00	2024-11-06T06:00:00	8	Radiación solar	3
34809	7	Sololá	701	Sololá	3	Barraneche	7	Julio	2023-01-07T00:00:00	2024-11-06T07:00:00	2	Temperatura media	13.1
34810	7	Sololá	701	Sololá	3	Barraneche	7	Julio	2023-01-07T00:00:00	2024-11-06T07:00:00	4	Temperatura máxima	13.1
34811	7	Sololá	701	Sololá	3	Barraneche	7	Julio	2023-01-07T00:00:00	2024-11-06T07:00:00	3	Temperatura mínima	11.2
34812	7	Sololá	701	Sololá	3	Barraneche	7	Julio	2023-01-07T00:00:00	2024-11-06T07:00:00	5	Humedad	69
34813	7	Sololá	701	Sololá	3	Barraneche	7	Julio	2023-01-07T00:00:00	2024-11-06T07:00:00	6	Velocidad del viento	3.2
34814	7	Sololá	701	Sololá	3	Barraneche	7	Julio	2023-01-07T00:00:00	2024-11-06T07:00:00	7	Dirección del viento	3.22
34815	7	Sololá	701	Sololá	3	Barraneche	7	Julio	2023-01-07T00:00:00	2024-11-06T07:00:00	1	Precipitación	0
34816	7	Sololá	701	Sololá	3	Barraneche	7	Julio	2023-01-07T00:00:00	2024-11-06T07:00:00	8	Radiación solar	85
34817	7	Sololá	701	Sololá	3	Barraneche	7	Julio	2023-01-07T00:00:00	2024-11-06T08:00:00	2	Temperatura media	17.2
34818	7	Sololá	701	Sololá	3	Barraneche	7	Julio	2023-01-07T00:00:00	2024-11-06T08:00:00	4	Temperatura máxima	17.3
34819	7	Sololá	701	Sololá	3	Barraneche	7	Julio	2023-01-07T00:00:00	2024-11-06T08:00:00	3	Temperatura mínima	13.1
34820	7	Sololá	701	Sololá	3	Barraneche	7	Julio	2023-01-07T00:00:00	2024-11-06T08:00:00	5	Humedad	58
34821	7	Sololá	701	Sololá	3	Barraneche	7	Julio	2023-01-07T00:00:00	2024-11-06T08:00:00	6	Velocidad del viento	1.6
34822	7	Sololá	701	Sololá	3	Barraneche	7	Julio	2023-01-07T00:00:00	2024-11-06T08:00:00	7	Dirección del viento	1.61
34823	7	Sololá	701	Sololá	3	Barraneche	7	Julio	2023-01-07T00:00:00	2024-11-06T08:00:00	1	Precipitación	0
34824	7	Sololá	701	Sololá	3	Barraneche	7	Julio	2023-01-07T00:00:00	2024-11-06T08:00:00	8	Radiación solar	303
34825	7	Sololá	701	Sololá	3	Barraneche	7	Julio	2023-01-07T00:00:00	2024-11-06T09:00:00	2	Temperatura media	18.8
34826	7	Sololá	701	Sololá	3	Barraneche	7	Julio	2023-01-07T00:00:00	2024-11-06T09:00:00	4	Temperatura máxima	18.8
34827	7	Sololá	701	Sololá	3	Barraneche	7	Julio	2023-01-07T00:00:00	2024-11-06T09:00:00	3	Temperatura mínima	16.9
34828	7	Sololá	701	Sololá	3	Barraneche	7	Julio	2023-01-07T00:00:00	2024-11-06T09:00:00	5	Humedad	54
34829	7	Sololá	701	Sololá	3	Barraneche	7	Julio	2023-01-07T00:00:00	2024-11-06T09:00:00	6	Velocidad del viento	4.8
34830	7	Sololá	701	Sololá	3	Barraneche	7	Julio	2023-01-07T00:00:00	2024-11-06T09:00:00	7	Dirección del viento	4.83
34831	7	Sololá	701	Sololá	3	Barraneche	7	Julio	2023-01-07T00:00:00	2024-11-06T09:00:00	1	Precipitación	0
34832	7	Sololá	701	Sololá	3	Barraneche	7	Julio	2023-01-07T00:00:00	2024-11-06T09:00:00	8	Radiación solar	575
34833	7	Sololá	701	Sololá	3	Barraneche	7	Julio	2023-01-07T00:00:00	2024-11-06T10:00:00	2	Temperatura media	19.7
34834	7	Sololá	701	Sololá	3	Barraneche	7	Julio	2023-01-07T00:00:00	2024-11-06T10:00:00	4	Temperatura máxima	19.7
34835	7	Sololá	701	Sololá	3	Barraneche	7	Julio	2023-01-07T00:00:00	2024-11-06T10:00:00	3	Temperatura mínima	18.4
34836	7	Sololá	701	Sololá	3	Barraneche	7	Julio	2023-01-07T00:00:00	2024-11-06T10:00:00	5	Humedad	48
34837	7	Sololá	701	Sololá	3	Barraneche	7	Julio	2023-01-07T00:00:00	2024-11-06T10:00:00	6	Velocidad del viento	9.7
34838	7	Sololá	701	Sololá	3	Barraneche	7	Julio	2023-01-07T00:00:00	2024-11-06T10:00:00	7	Dirección del viento	9.66
34839	7	Sololá	701	Sololá	3	Barraneche	7	Julio	2023-01-07T00:00:00	2024-11-06T10:00:00	1	Precipitación	0
34840	7	Sololá	701	Sololá	3	Barraneche	7	Julio	2023-01-07T00:00:00	2024-11-06T10:00:00	8	Radiación solar	842
34841	7	Sololá	701	Sololá	3	Barraneche	7	Julio	2023-01-07T00:00:00	2024-11-06T11:00:00	2	Temperatura media	20.4
34842	7	Sololá	701	Sololá	3	Barraneche	7	Julio	2023-01-07T00:00:00	2024-11-06T11:00:00	4	Temperatura máxima	20.4
34843	7	Sololá	701	Sololá	3	Barraneche	7	Julio	2023-01-07T00:00:00	2024-11-06T11:00:00	3	Temperatura mínima	19.7
34844	7	Sololá	701	Sololá	3	Barraneche	7	Julio	2023-01-07T00:00:00	2024-11-06T11:00:00	5	Humedad	47
34845	7	Sololá	701	Sololá	3	Barraneche	7	Julio	2023-01-07T00:00:00	2024-11-06T11:00:00	6	Velocidad del viento	11.3
34846	7	Sololá	701	Sololá	3	Barraneche	7	Julio	2023-01-07T00:00:00	2024-11-06T11:00:00	7	Dirección del viento	11.27
34847	7	Sololá	701	Sololá	3	Barraneche	7	Julio	2023-01-07T00:00:00	2024-11-06T11:00:00	1	Precipitación	0
34848	7	Sololá	701	Sololá	3	Barraneche	7	Julio	2023-01-07T00:00:00	2024-11-06T11:00:00	8	Radiación solar	945
34849	7	Sololá	701	Sololá	3	Barraneche	7	Julio	2023-01-07T00:00:00	2024-11-06T12:00:00	2	Temperatura media	20.2
34850	7	Sololá	701	Sololá	3	Barraneche	7	Julio	2023-01-07T00:00:00	2024-11-06T12:00:00	4	Temperatura máxima	20.8
34851	7	Sololá	701	Sololá	3	Barraneche	7	Julio	2023-01-07T00:00:00	2024-11-06T12:00:00	3	Temperatura mínima	20.1
34852	7	Sololá	701	Sololá	3	Barraneche	7	Julio	2023-01-07T00:00:00	2024-11-06T12:00:00	5	Humedad	50
34853	7	Sololá	701	Sololá	3	Barraneche	7	Julio	2023-01-07T00:00:00	2024-11-06T12:00:00	6	Velocidad del viento	12.9
34854	7	Sololá	701	Sololá	3	Barraneche	7	Julio	2023-01-07T00:00:00	2024-11-06T12:00:00	7	Dirección del viento	12.87
34855	7	Sololá	701	Sololá	3	Barraneche	7	Julio	2023-01-07T00:00:00	2024-11-06T12:00:00	1	Precipitación	0
34856	7	Sololá	701	Sololá	3	Barraneche	7	Julio	2023-01-07T00:00:00	2024-11-06T12:00:00	8	Radiación solar	1092
34857	7	Sololá	701	Sololá	3	Barraneche	7	Julio	2023-01-07T00:00:00	2024-11-06T13:00:00	2	Temperatura media	20.6
34858	7	Sololá	701	Sololá	3	Barraneche	7	Julio	2023-01-07T00:00:00	2024-11-06T13:00:00	4	Temperatura máxima	20.6
34859	7	Sololá	701	Sololá	3	Barraneche	7	Julio	2023-01-07T00:00:00	2024-11-06T13:00:00	3	Temperatura mínima	19.7
34860	7	Sololá	701	Sololá	3	Barraneche	7	Julio	2023-01-07T00:00:00	2024-11-06T13:00:00	5	Humedad	45
34861	7	Sololá	701	Sololá	3	Barraneche	7	Julio	2023-01-07T00:00:00	2024-11-06T13:00:00	6	Velocidad del viento	9.7
34862	7	Sololá	701	Sololá	3	Barraneche	7	Julio	2023-01-07T00:00:00	2024-11-06T13:00:00	7	Dirección del viento	9.66
34863	7	Sololá	701	Sololá	3	Barraneche	7	Julio	2023-01-07T00:00:00	2024-11-06T13:00:00	1	Precipitación	0
34864	7	Sololá	701	Sololá	3	Barraneche	7	Julio	2023-01-07T00:00:00	2024-11-06T13:00:00	8	Radiación solar	662
34865	7	Sololá	701	Sololá	3	Barraneche	7	Julio	2023-01-07T00:00:00	2024-11-06T14:00:00	2	Temperatura media	18.8
34866	7	Sololá	701	Sololá	3	Barraneche	7	Julio	2023-01-07T00:00:00	2024-11-06T14:00:00	4	Temperatura máxima	20.7
34867	7	Sololá	701	Sololá	3	Barraneche	7	Julio	2023-01-07T00:00:00	2024-11-06T14:00:00	3	Temperatura mínima	18.8
34868	7	Sololá	701	Sololá	3	Barraneche	7	Julio	2023-01-07T00:00:00	2024-11-06T14:00:00	5	Humedad	67
34869	7	Sololá	701	Sololá	3	Barraneche	7	Julio	2023-01-07T00:00:00	2024-11-06T14:00:00	6	Velocidad del viento	12.9
34870	7	Sololá	701	Sololá	3	Barraneche	7	Julio	2023-01-07T00:00:00	2024-11-06T14:00:00	7	Dirección del viento	12.87
34871	7	Sololá	701	Sololá	3	Barraneche	7	Julio	2023-01-07T00:00:00	2024-11-06T14:00:00	1	Precipitación	0
34872	7	Sololá	701	Sololá	3	Barraneche	7	Julio	2023-01-07T00:00:00	2024-11-06T14:00:00	8	Radiación solar	582
34873	7	Sololá	701	Sololá	3	Barraneche	7	Julio	2023-01-07T00:00:00	2024-11-06T15:00:00	2	Temperatura media	14.6
34874	7	Sololá	701	Sololá	3	Barraneche	7	Julio	2023-01-07T00:00:00	2024-11-06T15:00:00	4	Temperatura máxima	18.8
34875	7	Sololá	701	Sololá	3	Barraneche	7	Julio	2023-01-07T00:00:00	2024-11-06T15:00:00	3	Temperatura mínima	14.6
34876	7	Sololá	701	Sololá	3	Barraneche	7	Julio	2023-01-07T00:00:00	2024-11-06T15:00:00	5	Humedad	71
34877	7	Sololá	701	Sololá	3	Barraneche	7	Julio	2023-01-07T00:00:00	2024-11-06T15:00:00	6	Velocidad del viento	11.3
34878	7	Sololá	701	Sololá	3	Barraneche	7	Julio	2023-01-07T00:00:00	2024-11-06T15:00:00	7	Dirección del viento	11.27
34879	7	Sololá	701	Sololá	3	Barraneche	7	Julio	2023-01-07T00:00:00	2024-11-06T15:00:00	1	Precipitación	2.4
34880	7	Sololá	701	Sololá	3	Barraneche	7	Julio	2023-01-07T00:00:00	2024-11-06T15:00:00	8	Radiación solar	108
34881	7	Sololá	701	Sololá	3	Barraneche	7	Julio	2023-01-07T00:00:00	2024-11-06T16:00:00	2	Temperatura media	13.6
34882	7	Sololá	701	Sololá	3	Barraneche	7	Julio	2023-01-07T00:00:00	2024-11-06T16:00:00	4	Temperatura máxima	14.6
34883	7	Sololá	701	Sololá	3	Barraneche	7	Julio	2023-01-07T00:00:00	2024-11-06T16:00:00	3	Temperatura mínima	13.2
34884	7	Sololá	701	Sololá	3	Barraneche	7	Julio	2023-01-07T00:00:00	2024-11-06T16:00:00	5	Humedad	74
34885	7	Sololá	701	Sololá	3	Barraneche	7	Julio	2023-01-07T00:00:00	2024-11-06T16:00:00	6	Velocidad del viento	4.8
34886	7	Sololá	701	Sololá	3	Barraneche	7	Julio	2023-01-07T00:00:00	2024-11-06T16:00:00	7	Dirección del viento	4.83
34887	7	Sololá	701	Sololá	3	Barraneche	7	Julio	2023-01-07T00:00:00	2024-11-06T16:00:00	1	Precipitación	1.4
34888	7	Sololá	701	Sololá	3	Barraneche	7	Julio	2023-01-07T00:00:00	2024-11-06T16:00:00	8	Radiación solar	17
34889	7	Sololá	701	Sololá	3	Barraneche	7	Julio	2023-01-07T00:00:00	2024-11-06T17:00:00	2	Temperatura media	13.7
34890	7	Sololá	701	Sololá	3	Barraneche	7	Julio	2023-01-07T00:00:00	2024-11-06T17:00:00	4	Temperatura máxima	13.8
34891	7	Sololá	701	Sololá	3	Barraneche	7	Julio	2023-01-07T00:00:00	2024-11-06T17:00:00	3	Temperatura mínima	13.3
34892	7	Sololá	701	Sololá	3	Barraneche	7	Julio	2023-01-07T00:00:00	2024-11-06T17:00:00	5	Humedad	72
34893	7	Sololá	701	Sololá	3	Barraneche	7	Julio	2023-01-07T00:00:00	2024-11-06T17:00:00	6	Velocidad del viento	3.2
34894	7	Sololá	701	Sololá	3	Barraneche	7	Julio	2023-01-07T00:00:00	2024-11-06T17:00:00	7	Dirección del viento	3.22
34895	7	Sololá	701	Sololá	3	Barraneche	7	Julio	2023-01-07T00:00:00	2024-11-06T17:00:00	1	Precipitación	1.8
34896	7	Sololá	701	Sololá	3	Barraneche	7	Julio	2023-01-07T00:00:00	2024-11-06T17:00:00	8	Radiación solar	22
34897	7	Sololá	701	Sololá	3	Barraneche	7	Julio	2023-01-07T00:00:00	2024-11-06T18:00:00	2	Temperatura media	13.1
34898	7	Sololá	701	Sololá	3	Barraneche	7	Julio	2023-01-07T00:00:00	2024-11-06T18:00:00	4	Temperatura máxima	13.8
34899	7	Sololá	701	Sololá	3	Barraneche	7	Julio	2023-01-07T00:00:00	2024-11-06T18:00:00	3	Temperatura mínima	13
34900	7	Sololá	701	Sololá	3	Barraneche	7	Julio	2023-01-07T00:00:00	2024-11-06T18:00:00	5	Humedad	82
34901	7	Sololá	701	Sololá	3	Barraneche	7	Julio	2023-01-07T00:00:00	2024-11-06T18:00:00	6	Velocidad del viento	6.4
34902	7	Sololá	701	Sololá	3	Barraneche	7	Julio	2023-01-07T00:00:00	2024-11-06T18:00:00	7	Dirección del viento	6.44
34903	7	Sololá	701	Sololá	3	Barraneche	7	Julio	2023-01-07T00:00:00	2024-11-06T18:00:00	1	Precipitación	7.2
34904	7	Sololá	701	Sololá	3	Barraneche	7	Julio	2023-01-07T00:00:00	2024-11-06T18:00:00	8	Radiación solar	6
34905	7	Sololá	701	Sololá	3	Barraneche	7	Julio	2023-01-07T00:00:00	2024-11-06T19:00:00	2	Temperatura media	12.8
34906	7	Sololá	701	Sololá	3	Barraneche	7	Julio	2023-01-07T00:00:00	2024-11-06T19:00:00	4	Temperatura máxima	13.1
34907	7	Sololá	701	Sololá	3	Barraneche	7	Julio	2023-01-07T00:00:00	2024-11-06T19:00:00	3	Temperatura mínima	12.6
34908	7	Sololá	701	Sololá	3	Barraneche	7	Julio	2023-01-07T00:00:00	2024-11-06T19:00:00	5	Humedad	73
34909	7	Sololá	701	Sololá	3	Barraneche	7	Julio	2023-01-07T00:00:00	2024-11-06T19:00:00	6	Velocidad del viento	6.4
34910	7	Sololá	701	Sololá	3	Barraneche	7	Julio	2023-01-07T00:00:00	2024-11-06T19:00:00	7	Dirección del viento	6.44
34911	7	Sololá	701	Sololá	3	Barraneche	7	Julio	2023-01-07T00:00:00	2024-11-06T19:00:00	1	Precipitación	1.4
34912	7	Sololá	701	Sololá	3	Barraneche	7	Julio	2023-01-07T00:00:00	2024-11-06T19:00:00	8	Radiación solar	0
34913	7	Sololá	701	Sololá	3	Barraneche	7	Julio	2023-01-07T00:00:00	2024-11-06T20:00:00	2	Temperatura media	14.2
34914	7	Sololá	701	Sololá	3	Barraneche	7	Julio	2023-01-07T00:00:00	2024-11-06T20:00:00	4	Temperatura máxima	14.2
34915	7	Sololá	701	Sololá	3	Barraneche	7	Julio	2023-01-07T00:00:00	2024-11-06T20:00:00	3	Temperatura mínima	12.7
34916	7	Sololá	701	Sololá	3	Barraneche	7	Julio	2023-01-07T00:00:00	2024-11-06T20:00:00	5	Humedad	67
34917	7	Sololá	701	Sololá	3	Barraneche	7	Julio	2023-01-07T00:00:00	2024-11-06T20:00:00	6	Velocidad del viento	8
34918	7	Sololá	701	Sololá	3	Barraneche	7	Julio	2023-01-07T00:00:00	2024-11-06T20:00:00	7	Dirección del viento	8.05
34919	7	Sololá	701	Sololá	3	Barraneche	7	Julio	2023-01-07T00:00:00	2024-11-06T20:00:00	1	Precipitación	0.2
34920	7	Sololá	701	Sololá	3	Barraneche	7	Julio	2023-01-07T00:00:00	2024-11-06T20:00:00	8	Radiación solar	0
34921	7	Sololá	701	Sololá	3	Barraneche	7	Julio	2023-01-07T00:00:00	2024-11-06T21:00:00	2	Temperatura media	14.4
34922	7	Sololá	701	Sololá	3	Barraneche	7	Julio	2023-01-07T00:00:00	2024-11-06T21:00:00	4	Temperatura máxima	14.4
34923	7	Sololá	701	Sololá	3	Barraneche	7	Julio	2023-01-07T00:00:00	2024-11-06T21:00:00	3	Temperatura mínima	14.1
34924	7	Sololá	701	Sololá	3	Barraneche	7	Julio	2023-01-07T00:00:00	2024-11-06T21:00:00	5	Humedad	67
34925	7	Sololá	701	Sololá	3	Barraneche	7	Julio	2023-01-07T00:00:00	2024-11-06T21:00:00	6	Velocidad del viento	8
34926	7	Sololá	701	Sololá	3	Barraneche	7	Julio	2023-01-07T00:00:00	2024-11-06T21:00:00	7	Dirección del viento	8.05
34927	7	Sololá	701	Sololá	3	Barraneche	7	Julio	2023-01-07T00:00:00	2024-11-06T21:00:00	1	Precipitación	0
34928	7	Sololá	701	Sololá	3	Barraneche	7	Julio	2023-01-07T00:00:00	2024-11-06T21:00:00	8	Radiación solar	0
34929	7	Sololá	701	Sololá	3	Barraneche	7	Julio	2023-01-07T00:00:00	2024-11-06T22:00:00	2	Temperatura media	14.6
34930	7	Sololá	701	Sololá	3	Barraneche	7	Julio	2023-01-07T00:00:00	2024-11-06T22:00:00	4	Temperatura máxima	14.8
34931	7	Sololá	701	Sololá	3	Barraneche	7	Julio	2023-01-07T00:00:00	2024-11-06T22:00:00	3	Temperatura mínima	14.3
34932	7	Sololá	701	Sololá	3	Barraneche	7	Julio	2023-01-07T00:00:00	2024-11-06T22:00:00	5	Humedad	64
34933	7	Sololá	701	Sololá	3	Barraneche	7	Julio	2023-01-07T00:00:00	2024-11-06T22:00:00	6	Velocidad del viento	11.3
34934	7	Sololá	701	Sololá	3	Barraneche	7	Julio	2023-01-07T00:00:00	2024-11-06T22:00:00	7	Dirección del viento	11.27
34935	7	Sololá	701	Sololá	3	Barraneche	7	Julio	2023-01-07T00:00:00	2024-11-06T22:00:00	1	Precipitación	0
34936	7	Sololá	701	Sololá	3	Barraneche	7	Julio	2023-01-07T00:00:00	2024-11-06T22:00:00	8	Radiación solar	0
34937	7	Sololá	701	Sololá	3	Barraneche	7	Julio	2023-01-07T00:00:00	2024-11-06T23:00:00	2	Temperatura media	13.6
34938	7	Sololá	701	Sololá	3	Barraneche	7	Julio	2023-01-07T00:00:00	2024-11-06T23:00:00	4	Temperatura máxima	14.7
34939	7	Sololá	701	Sololá	3	Barraneche	7	Julio	2023-01-07T00:00:00	2024-11-06T23:00:00	3	Temperatura mínima	13.6
34940	7	Sololá	701	Sololá	3	Barraneche	7	Julio	2023-01-07T00:00:00	2024-11-06T23:00:00	5	Humedad	69
34941	7	Sololá	701	Sololá	3	Barraneche	7	Julio	2023-01-07T00:00:00	2024-11-06T23:00:00	6	Velocidad del viento	6.4
34942	7	Sololá	701	Sololá	3	Barraneche	7	Julio	2023-01-07T00:00:00	2024-11-06T23:00:00	7	Dirección del viento	6.44
34943	7	Sololá	701	Sololá	3	Barraneche	7	Julio	2023-01-07T00:00:00	2024-11-06T23:00:00	1	Precipitación	0
34944	7	Sololá	701	Sololá	3	Barraneche	7	Julio	2023-01-07T00:00:00	2024-11-06T23:00:00	8	Radiación solar	0
34945	7	Sololá	701	Sololá	3	Barraneche	7	Julio	2023-02-07T00:00:00	2024-11-06T00:00:00	2	Temperatura media	13.8
34946	7	Sololá	701	Sololá	3	Barraneche	7	Julio	2023-02-07T00:00:00	2024-11-06T00:00:00	4	Temperatura máxima	14.1
34947	7	Sololá	701	Sololá	3	Barraneche	7	Julio	2023-02-07T00:00:00	2024-11-06T00:00:00	3	Temperatura mínima	13.4
34948	7	Sololá	701	Sololá	3	Barraneche	7	Julio	2023-02-07T00:00:00	2024-11-06T00:00:00	5	Humedad	70
34949	7	Sololá	701	Sololá	3	Barraneche	7	Julio	2023-02-07T00:00:00	2024-11-06T00:00:00	6	Velocidad del viento	3.2
34950	7	Sololá	701	Sololá	3	Barraneche	7	Julio	2023-02-07T00:00:00	2024-11-06T00:00:00	7	Dirección del viento	3.22
34951	7	Sololá	701	Sololá	3	Barraneche	7	Julio	2023-02-07T00:00:00	2024-11-06T00:00:00	1	Precipitación	0
34952	7	Sololá	701	Sololá	3	Barraneche	7	Julio	2023-02-07T00:00:00	2024-11-06T00:00:00	8	Radiación solar	0
34953	7	Sololá	701	Sololá	3	Barraneche	7	Julio	2023-02-07T00:00:00	2024-11-06T01:00:00	2	Temperatura media	13.1
34954	7	Sololá	701	Sololá	3	Barraneche	7	Julio	2023-02-07T00:00:00	2024-11-06T01:00:00	4	Temperatura máxima	14.1
34955	7	Sololá	701	Sololá	3	Barraneche	7	Julio	2023-02-07T00:00:00	2024-11-06T01:00:00	3	Temperatura mínima	13
34956	7	Sololá	701	Sololá	3	Barraneche	7	Julio	2023-02-07T00:00:00	2024-11-06T01:00:00	5	Humedad	72
34957	7	Sololá	701	Sololá	3	Barraneche	7	Julio	2023-02-07T00:00:00	2024-11-06T01:00:00	6	Velocidad del viento	3.2
34958	7	Sololá	701	Sololá	3	Barraneche	7	Julio	2023-02-07T00:00:00	2024-11-06T01:00:00	7	Dirección del viento	3.22
34959	7	Sololá	701	Sololá	3	Barraneche	7	Julio	2023-02-07T00:00:00	2024-11-06T01:00:00	1	Precipitación	0
34960	7	Sololá	701	Sololá	3	Barraneche	7	Julio	2023-02-07T00:00:00	2024-11-06T01:00:00	8	Radiación solar	0
34961	7	Sololá	701	Sololá	3	Barraneche	7	Julio	2023-02-07T00:00:00	2024-11-06T02:00:00	2	Temperatura media	12.2
34962	7	Sololá	701	Sololá	3	Barraneche	7	Julio	2023-02-07T00:00:00	2024-11-06T02:00:00	4	Temperatura máxima	13.1
34963	7	Sololá	701	Sololá	3	Barraneche	7	Julio	2023-02-07T00:00:00	2024-11-06T02:00:00	3	Temperatura mínima	12.2
34964	7	Sololá	701	Sololá	3	Barraneche	7	Julio	2023-02-07T00:00:00	2024-11-06T02:00:00	5	Humedad	73
34965	7	Sololá	701	Sololá	3	Barraneche	7	Julio	2023-02-07T00:00:00	2024-11-06T02:00:00	6	Velocidad del viento	3.2
34966	7	Sololá	701	Sololá	3	Barraneche	7	Julio	2023-02-07T00:00:00	2024-11-06T02:00:00	7	Dirección del viento	3.22
34967	7	Sololá	701	Sololá	3	Barraneche	7	Julio	2023-02-07T00:00:00	2024-11-06T02:00:00	1	Precipitación	0
34968	7	Sololá	701	Sololá	3	Barraneche	7	Julio	2023-02-07T00:00:00	2024-11-06T02:00:00	8	Radiación solar	0
34969	7	Sololá	701	Sololá	3	Barraneche	7	Julio	2023-02-07T00:00:00	2024-11-06T03:00:00	2	Temperatura media	11.2
34970	7	Sololá	701	Sololá	3	Barraneche	7	Julio	2023-02-07T00:00:00	2024-11-06T03:00:00	4	Temperatura máxima	12.2
34971	7	Sololá	701	Sololá	3	Barraneche	7	Julio	2023-02-07T00:00:00	2024-11-06T03:00:00	3	Temperatura mínima	11.2
34972	7	Sololá	701	Sololá	3	Barraneche	7	Julio	2023-02-07T00:00:00	2024-11-06T03:00:00	5	Humedad	74
34973	7	Sololá	701	Sololá	3	Barraneche	7	Julio	2023-02-07T00:00:00	2024-11-06T03:00:00	6	Velocidad del viento	3.2
34974	7	Sololá	701	Sololá	3	Barraneche	7	Julio	2023-02-07T00:00:00	2024-11-06T03:00:00	7	Dirección del viento	3.22
34975	7	Sololá	701	Sololá	3	Barraneche	7	Julio	2023-02-07T00:00:00	2024-11-06T03:00:00	1	Precipitación	0
34976	7	Sololá	701	Sololá	3	Barraneche	7	Julio	2023-02-07T00:00:00	2024-11-06T03:00:00	8	Radiación solar	0
34977	7	Sololá	701	Sololá	3	Barraneche	7	Julio	2023-02-07T00:00:00	2024-11-06T04:00:00	2	Temperatura media	11.3
34978	7	Sololá	701	Sololá	3	Barraneche	7	Julio	2023-02-07T00:00:00	2024-11-06T04:00:00	4	Temperatura máxima	11.3
34979	7	Sololá	701	Sololá	3	Barraneche	7	Julio	2023-02-07T00:00:00	2024-11-06T04:00:00	3	Temperatura mínima	10.7
34980	7	Sololá	701	Sololá	3	Barraneche	7	Julio	2023-02-07T00:00:00	2024-11-06T04:00:00	5	Humedad	70
34981	7	Sololá	701	Sololá	3	Barraneche	7	Julio	2023-02-07T00:00:00	2024-11-06T04:00:00	6	Velocidad del viento	1.6
34982	7	Sololá	701	Sololá	3	Barraneche	7	Julio	2023-02-07T00:00:00	2024-11-06T04:00:00	7	Dirección del viento	1.61
34983	7	Sololá	701	Sololá	3	Barraneche	7	Julio	2023-02-07T00:00:00	2024-11-06T04:00:00	1	Precipitación	0
34984	7	Sololá	701	Sololá	3	Barraneche	7	Julio	2023-02-07T00:00:00	2024-11-06T04:00:00	8	Radiación solar	0
34985	7	Sololá	701	Sololá	3	Barraneche	7	Julio	2023-02-07T00:00:00	2024-11-06T05:00:00	2	Temperatura media	13.9
34986	7	Sololá	701	Sololá	3	Barraneche	7	Julio	2023-02-07T00:00:00	2024-11-06T05:00:00	4	Temperatura máxima	14
34987	7	Sololá	701	Sololá	3	Barraneche	7	Julio	2023-02-07T00:00:00	2024-11-06T05:00:00	3	Temperatura mínima	11.3
34988	7	Sololá	701	Sololá	3	Barraneche	7	Julio	2023-02-07T00:00:00	2024-11-06T05:00:00	5	Humedad	61
34989	7	Sololá	701	Sololá	3	Barraneche	7	Julio	2023-02-07T00:00:00	2024-11-06T05:00:00	6	Velocidad del viento	6.4
34990	7	Sololá	701	Sololá	3	Barraneche	7	Julio	2023-02-07T00:00:00	2024-11-06T05:00:00	7	Dirección del viento	6.44
34991	7	Sololá	701	Sololá	3	Barraneche	7	Julio	2023-02-07T00:00:00	2024-11-06T05:00:00	1	Precipitación	0
34992	7	Sololá	701	Sololá	3	Barraneche	7	Julio	2023-02-07T00:00:00	2024-11-06T05:00:00	8	Radiación solar	0
34993	7	Sololá	701	Sololá	3	Barraneche	7	Julio	2023-02-07T00:00:00	2024-11-06T06:00:00	2	Temperatura media	13.3
34994	7	Sololá	701	Sololá	3	Barraneche	7	Julio	2023-02-07T00:00:00	2024-11-06T06:00:00	4	Temperatura máxima	14
34995	7	Sololá	701	Sololá	3	Barraneche	7	Julio	2023-02-07T00:00:00	2024-11-06T06:00:00	3	Temperatura mínima	12.6
34996	7	Sololá	701	Sololá	3	Barraneche	7	Julio	2023-02-07T00:00:00	2024-11-06T06:00:00	5	Humedad	64
34997	7	Sololá	701	Sololá	3	Barraneche	7	Julio	2023-02-07T00:00:00	2024-11-06T06:00:00	6	Velocidad del viento	3.2
34998	7	Sololá	701	Sololá	3	Barraneche	7	Julio	2023-02-07T00:00:00	2024-11-06T06:00:00	7	Dirección del viento	3.22
34999	7	Sololá	701	Sololá	3	Barraneche	7	Julio	2023-02-07T00:00:00	2024-11-06T06:00:00	1	Precipitación	0
35000	7	Sololá	701	Sololá	3	Barraneche	7	Julio	2023-02-07T00:00:00	2024-11-06T06:00:00	8	Radiación solar	7
35001	7	Sololá	701	Sololá	3	Barraneche	7	Julio	2023-02-07T00:00:00	2024-11-06T07:00:00	2	Temperatura media	15.5
35002	7	Sololá	701	Sololá	3	Barraneche	7	Julio	2023-02-07T00:00:00	2024-11-06T07:00:00	4	Temperatura máxima	15.8
35003	7	Sololá	701	Sololá	3	Barraneche	7	Julio	2023-02-07T00:00:00	2024-11-06T07:00:00	3	Temperatura mínima	13.3
35004	7	Sololá	701	Sololá	3	Barraneche	7	Julio	2023-02-07T00:00:00	2024-11-06T07:00:00	5	Humedad	56
35005	7	Sololá	701	Sololá	3	Barraneche	7	Julio	2023-02-07T00:00:00	2024-11-06T07:00:00	6	Velocidad del viento	9.7
35006	7	Sololá	701	Sololá	3	Barraneche	7	Julio	2023-02-07T00:00:00	2024-11-06T07:00:00	7	Dirección del viento	9.66
35007	7	Sololá	701	Sololá	3	Barraneche	7	Julio	2023-02-07T00:00:00	2024-11-06T07:00:00	1	Precipitación	0
35008	7	Sololá	701	Sololá	3	Barraneche	7	Julio	2023-02-07T00:00:00	2024-11-06T07:00:00	8	Radiación solar	88
35009	7	Sololá	701	Sololá	3	Barraneche	7	Julio	2023-02-07T00:00:00	2024-11-06T08:00:00	2	Temperatura media	17.4
35010	7	Sololá	701	Sololá	3	Barraneche	7	Julio	2023-02-07T00:00:00	2024-11-06T08:00:00	4	Temperatura máxima	17.4
35011	7	Sololá	701	Sololá	3	Barraneche	7	Julio	2023-02-07T00:00:00	2024-11-06T08:00:00	3	Temperatura mínima	15.2
35012	7	Sololá	701	Sololá	3	Barraneche	7	Julio	2023-02-07T00:00:00	2024-11-06T08:00:00	5	Humedad	50
35013	7	Sololá	701	Sololá	3	Barraneche	7	Julio	2023-02-07T00:00:00	2024-11-06T08:00:00	6	Velocidad del viento	4.8
35014	7	Sololá	701	Sololá	3	Barraneche	7	Julio	2023-02-07T00:00:00	2024-11-06T08:00:00	7	Dirección del viento	4.83
35015	7	Sololá	701	Sololá	3	Barraneche	7	Julio	2023-02-07T00:00:00	2024-11-06T08:00:00	1	Precipitación	0
35016	7	Sololá	701	Sololá	3	Barraneche	7	Julio	2023-02-07T00:00:00	2024-11-06T08:00:00	8	Radiación solar	303
35017	7	Sololá	701	Sololá	3	Barraneche	7	Julio	2023-02-07T00:00:00	2024-11-06T09:00:00	2	Temperatura media	17.9
35018	7	Sololá	701	Sololá	3	Barraneche	7	Julio	2023-02-07T00:00:00	2024-11-06T09:00:00	4	Temperatura máxima	17.9
35019	7	Sololá	701	Sololá	3	Barraneche	7	Julio	2023-02-07T00:00:00	2024-11-06T09:00:00	3	Temperatura mínima	17.5
35020	7	Sololá	701	Sololá	3	Barraneche	7	Julio	2023-02-07T00:00:00	2024-11-06T09:00:00	5	Humedad	48
35021	7	Sololá	701	Sololá	3	Barraneche	7	Julio	2023-02-07T00:00:00	2024-11-06T09:00:00	6	Velocidad del viento	6.4
35022	7	Sololá	701	Sololá	3	Barraneche	7	Julio	2023-02-07T00:00:00	2024-11-06T09:00:00	7	Dirección del viento	6.44
35023	7	Sololá	701	Sololá	3	Barraneche	7	Julio	2023-02-07T00:00:00	2024-11-06T09:00:00	1	Precipitación	0
35024	7	Sololá	701	Sololá	3	Barraneche	7	Julio	2023-02-07T00:00:00	2024-11-06T09:00:00	8	Radiación solar	535
35025	7	Sololá	701	Sololá	3	Barraneche	7	Julio	2023-02-07T00:00:00	2024-11-06T10:00:00	2	Temperatura media	17.7
35026	7	Sololá	701	Sololá	3	Barraneche	7	Julio	2023-02-07T00:00:00	2024-11-06T10:00:00	4	Temperatura máxima	17.9
35027	7	Sololá	701	Sololá	3	Barraneche	7	Julio	2023-02-07T00:00:00	2024-11-06T10:00:00	3	Temperatura mínima	17.2
35028	7	Sololá	701	Sololá	3	Barraneche	7	Julio	2023-02-07T00:00:00	2024-11-06T10:00:00	5	Humedad	53
35029	7	Sololá	701	Sololá	3	Barraneche	7	Julio	2023-02-07T00:00:00	2024-11-06T10:00:00	6	Velocidad del viento	11.3
35030	7	Sololá	701	Sololá	3	Barraneche	7	Julio	2023-02-07T00:00:00	2024-11-06T10:00:00	7	Dirección del viento	11.27
35031	7	Sololá	701	Sololá	3	Barraneche	7	Julio	2023-02-07T00:00:00	2024-11-06T10:00:00	1	Precipitación	0
35032	7	Sololá	701	Sololá	3	Barraneche	7	Julio	2023-02-07T00:00:00	2024-11-06T10:00:00	8	Radiación solar	565
35033	7	Sololá	701	Sololá	3	Barraneche	7	Julio	2023-02-07T00:00:00	2024-11-06T11:00:00	2	Temperatura media	18.3
35034	7	Sololá	701	Sololá	3	Barraneche	7	Julio	2023-02-07T00:00:00	2024-11-06T11:00:00	4	Temperatura máxima	18.7
35035	7	Sololá	701	Sololá	3	Barraneche	7	Julio	2023-02-07T00:00:00	2024-11-06T11:00:00	3	Temperatura mínima	17.7
35036	7	Sololá	701	Sololá	3	Barraneche	7	Julio	2023-02-07T00:00:00	2024-11-06T11:00:00	5	Humedad	51
35037	7	Sololá	701	Sololá	3	Barraneche	7	Julio	2023-02-07T00:00:00	2024-11-06T11:00:00	6	Velocidad del viento	9.7
35038	7	Sololá	701	Sololá	3	Barraneche	7	Julio	2023-02-07T00:00:00	2024-11-06T11:00:00	7	Dirección del viento	9.66
35039	7	Sololá	701	Sololá	3	Barraneche	7	Julio	2023-02-07T00:00:00	2024-11-06T11:00:00	1	Precipitación	0
35040	7	Sololá	701	Sololá	3	Barraneche	7	Julio	2023-02-07T00:00:00	2024-11-06T11:00:00	8	Radiación solar	871
35041	7	Sololá	701	Sololá	3	Barraneche	7	Julio	2023-02-07T00:00:00	2024-11-06T12:00:00	2	Temperatura media	16.4
35042	7	Sololá	701	Sololá	3	Barraneche	7	Julio	2023-02-07T00:00:00	2024-11-06T12:00:00	4	Temperatura máxima	18.3
35043	7	Sololá	701	Sololá	3	Barraneche	7	Julio	2023-02-07T00:00:00	2024-11-06T12:00:00	3	Temperatura mínima	16.4
35044	7	Sololá	701	Sololá	3	Barraneche	7	Julio	2023-02-07T00:00:00	2024-11-06T12:00:00	5	Humedad	66
35045	7	Sololá	701	Sololá	3	Barraneche	7	Julio	2023-02-07T00:00:00	2024-11-06T12:00:00	6	Velocidad del viento	11.3
35046	7	Sololá	701	Sololá	3	Barraneche	7	Julio	2023-02-07T00:00:00	2024-11-06T12:00:00	7	Dirección del viento	11.27
35047	7	Sololá	701	Sololá	3	Barraneche	7	Julio	2023-02-07T00:00:00	2024-11-06T12:00:00	1	Precipitación	0
35048	7	Sololá	701	Sololá	3	Barraneche	7	Julio	2023-02-07T00:00:00	2024-11-06T12:00:00	8	Radiación solar	470
35049	7	Sololá	701	Sololá	3	Barraneche	7	Julio	2023-02-07T00:00:00	2024-11-06T13:00:00	2	Temperatura media	15.6
35050	7	Sololá	701	Sololá	3	Barraneche	7	Julio	2023-02-07T00:00:00	2024-11-06T13:00:00	4	Temperatura máxima	16.8
35051	7	Sololá	701	Sololá	3	Barraneche	7	Julio	2023-02-07T00:00:00	2024-11-06T13:00:00	3	Temperatura mínima	15.6
35052	7	Sololá	701	Sololá	3	Barraneche	7	Julio	2023-02-07T00:00:00	2024-11-06T13:00:00	5	Humedad	71
35053	7	Sololá	701	Sololá	3	Barraneche	7	Julio	2023-02-07T00:00:00	2024-11-06T13:00:00	6	Velocidad del viento	9.7
35054	7	Sololá	701	Sololá	3	Barraneche	7	Julio	2023-02-07T00:00:00	2024-11-06T13:00:00	7	Dirección del viento	9.66
35055	7	Sololá	701	Sololá	3	Barraneche	7	Julio	2023-02-07T00:00:00	2024-11-06T13:00:00	1	Precipitación	0
35056	7	Sololá	701	Sololá	3	Barraneche	7	Julio	2023-02-07T00:00:00	2024-11-06T13:00:00	8	Radiación solar	290
35057	7	Sololá	701	Sololá	3	Barraneche	7	Julio	2023-02-07T00:00:00	2024-11-06T14:00:00	2	Temperatura media	16.7
35058	7	Sololá	701	Sololá	3	Barraneche	7	Julio	2023-02-07T00:00:00	2024-11-06T14:00:00	4	Temperatura máxima	16.7
35059	7	Sololá	701	Sololá	3	Barraneche	7	Julio	2023-02-07T00:00:00	2024-11-06T14:00:00	3	Temperatura mínima	15.3
35060	7	Sololá	701	Sololá	3	Barraneche	7	Julio	2023-02-07T00:00:00	2024-11-06T14:00:00	5	Humedad	68
35061	7	Sololá	701	Sololá	3	Barraneche	7	Julio	2023-02-07T00:00:00	2024-11-06T14:00:00	6	Velocidad del viento	8
35062	7	Sololá	701	Sololá	3	Barraneche	7	Julio	2023-02-07T00:00:00	2024-11-06T14:00:00	7	Dirección del viento	8.05
35063	7	Sololá	701	Sololá	3	Barraneche	7	Julio	2023-02-07T00:00:00	2024-11-06T14:00:00	1	Precipitación	0
35064	7	Sololá	701	Sololá	3	Barraneche	7	Julio	2023-02-07T00:00:00	2024-11-06T14:00:00	8	Radiación solar	354
35065	7	Sololá	701	Sololá	3	Barraneche	7	Julio	2023-02-07T00:00:00	2024-11-06T15:00:00	2	Temperatura media	14.6
35066	7	Sololá	701	Sololá	3	Barraneche	7	Julio	2023-02-07T00:00:00	2024-11-06T15:00:00	4	Temperatura máxima	16.7
35067	7	Sololá	701	Sololá	3	Barraneche	7	Julio	2023-02-07T00:00:00	2024-11-06T15:00:00	3	Temperatura mínima	14.6
35068	7	Sololá	701	Sololá	3	Barraneche	7	Julio	2023-02-07T00:00:00	2024-11-06T15:00:00	5	Humedad	77
35069	7	Sololá	701	Sololá	3	Barraneche	7	Julio	2023-02-07T00:00:00	2024-11-06T15:00:00	6	Velocidad del viento	11.3
35070	7	Sololá	701	Sololá	3	Barraneche	7	Julio	2023-02-07T00:00:00	2024-11-06T15:00:00	7	Dirección del viento	11.27
35071	7	Sololá	701	Sololá	3	Barraneche	7	Julio	2023-02-07T00:00:00	2024-11-06T15:00:00	1	Precipitación	0
35072	7	Sololá	701	Sololá	3	Barraneche	7	Julio	2023-02-07T00:00:00	2024-11-06T15:00:00	8	Radiación solar	269
35073	7	Sololá	701	Sololá	3	Barraneche	7	Julio	2023-02-07T00:00:00	2024-11-06T16:00:00	2	Temperatura media	14
35074	7	Sololá	701	Sololá	3	Barraneche	7	Julio	2023-02-07T00:00:00	2024-11-06T16:00:00	4	Temperatura máxima	14.6
35075	7	Sololá	701	Sololá	3	Barraneche	7	Julio	2023-02-07T00:00:00	2024-11-06T16:00:00	3	Temperatura mínima	13.9
35076	7	Sololá	701	Sololá	3	Barraneche	7	Julio	2023-02-07T00:00:00	2024-11-06T16:00:00	5	Humedad	84
35077	7	Sololá	701	Sololá	3	Barraneche	7	Julio	2023-02-07T00:00:00	2024-11-06T16:00:00	6	Velocidad del viento	4.8
35078	7	Sololá	701	Sololá	3	Barraneche	7	Julio	2023-02-07T00:00:00	2024-11-06T16:00:00	7	Dirección del viento	4.83
35079	7	Sololá	701	Sololá	3	Barraneche	7	Julio	2023-02-07T00:00:00	2024-11-06T16:00:00	1	Precipitación	1.8
35080	7	Sololá	701	Sololá	3	Barraneche	7	Julio	2023-02-07T00:00:00	2024-11-06T16:00:00	8	Radiación solar	66
35081	7	Sololá	701	Sololá	3	Barraneche	7	Julio	2023-02-07T00:00:00	2024-11-06T17:00:00	2	Temperatura media	14.6
35082	7	Sololá	701	Sololá	3	Barraneche	7	Julio	2023-02-07T00:00:00	2024-11-06T17:00:00	4	Temperatura máxima	14.6
35083	7	Sololá	701	Sololá	3	Barraneche	7	Julio	2023-02-07T00:00:00	2024-11-06T17:00:00	3	Temperatura mínima	14
35084	7	Sololá	701	Sololá	3	Barraneche	7	Julio	2023-02-07T00:00:00	2024-11-06T17:00:00	5	Humedad	83
35085	7	Sololá	701	Sololá	3	Barraneche	7	Julio	2023-02-07T00:00:00	2024-11-06T17:00:00	6	Velocidad del viento	1.6
35086	7	Sololá	701	Sololá	3	Barraneche	7	Julio	2023-02-07T00:00:00	2024-11-06T17:00:00	7	Dirección del viento	1.61
35087	7	Sololá	701	Sololá	3	Barraneche	7	Julio	2023-02-07T00:00:00	2024-11-06T17:00:00	1	Precipitación	3
35088	7	Sololá	701	Sololá	3	Barraneche	7	Julio	2023-02-07T00:00:00	2024-11-06T17:00:00	8	Radiación solar	84
35089	7	Sololá	701	Sololá	3	Barraneche	7	Julio	2023-02-07T00:00:00	2024-11-06T18:00:00	2	Temperatura media	14.1
35090	7	Sololá	701	Sololá	3	Barraneche	7	Julio	2023-02-07T00:00:00	2024-11-06T18:00:00	4	Temperatura máxima	14.8
35091	7	Sololá	701	Sololá	3	Barraneche	7	Julio	2023-02-07T00:00:00	2024-11-06T18:00:00	3	Temperatura mínima	14
35092	7	Sololá	701	Sololá	3	Barraneche	7	Julio	2023-02-07T00:00:00	2024-11-06T18:00:00	5	Humedad	83
35093	7	Sololá	701	Sololá	3	Barraneche	7	Julio	2023-02-07T00:00:00	2024-11-06T18:00:00	6	Velocidad del viento	3.2
35094	7	Sololá	701	Sololá	3	Barraneche	7	Julio	2023-02-07T00:00:00	2024-11-06T18:00:00	7	Dirección del viento	3.22
35095	7	Sololá	701	Sololá	3	Barraneche	7	Julio	2023-02-07T00:00:00	2024-11-06T18:00:00	1	Precipitación	0
35096	7	Sololá	701	Sololá	3	Barraneche	7	Julio	2023-02-07T00:00:00	2024-11-06T18:00:00	8	Radiación solar	62
35097	7	Sololá	701	Sololá	3	Barraneche	7	Julio	2023-02-07T00:00:00	2024-11-06T19:00:00	2	Temperatura media	13.8
35098	7	Sololá	701	Sololá	3	Barraneche	7	Julio	2023-02-07T00:00:00	2024-11-06T19:00:00	4	Temperatura máxima	14.1
35099	7	Sololá	701	Sololá	3	Barraneche	7	Julio	2023-02-07T00:00:00	2024-11-06T19:00:00	3	Temperatura mínima	13.7
35100	7	Sololá	701	Sololá	3	Barraneche	7	Julio	2023-02-07T00:00:00	2024-11-06T19:00:00	5	Humedad	85
35101	7	Sololá	701	Sololá	3	Barraneche	7	Julio	2023-02-07T00:00:00	2024-11-06T19:00:00	6	Velocidad del viento	3.2
35102	7	Sololá	701	Sololá	3	Barraneche	7	Julio	2023-02-07T00:00:00	2024-11-06T19:00:00	7	Dirección del viento	3.22
35103	7	Sololá	701	Sololá	3	Barraneche	7	Julio	2023-02-07T00:00:00	2024-11-06T19:00:00	1	Precipitación	0
35104	7	Sololá	701	Sololá	3	Barraneche	7	Julio	2023-02-07T00:00:00	2024-11-06T19:00:00	8	Radiación solar	0
35105	7	Sololá	701	Sololá	3	Barraneche	7	Julio	2023-02-07T00:00:00	2024-11-06T20:00:00	2	Temperatura media	13.9
35106	7	Sololá	701	Sololá	3	Barraneche	7	Julio	2023-02-07T00:00:00	2024-11-06T20:00:00	4	Temperatura máxima	13.9
35107	7	Sololá	701	Sololá	3	Barraneche	7	Julio	2023-02-07T00:00:00	2024-11-06T20:00:00	3	Temperatura mínima	13.7
35108	7	Sololá	701	Sololá	3	Barraneche	7	Julio	2023-02-07T00:00:00	2024-11-06T20:00:00	5	Humedad	85
35109	7	Sololá	701	Sololá	3	Barraneche	7	Julio	2023-02-07T00:00:00	2024-11-06T20:00:00	6	Velocidad del viento	0
35110	7	Sololá	701	Sololá	3	Barraneche	7	Julio	2023-02-07T00:00:00	2024-11-06T20:00:00	7	Dirección del viento	0
35111	7	Sololá	701	Sololá	3	Barraneche	7	Julio	2023-02-07T00:00:00	2024-11-06T20:00:00	1	Precipitación	0
35112	7	Sololá	701	Sololá	3	Barraneche	7	Julio	2023-02-07T00:00:00	2024-11-06T20:00:00	8	Radiación solar	0
35113	7	Sololá	701	Sololá	3	Barraneche	7	Julio	2023-02-07T00:00:00	2024-11-06T21:00:00	2	Temperatura media	13.4
35114	7	Sololá	701	Sololá	3	Barraneche	7	Julio	2023-02-07T00:00:00	2024-11-06T21:00:00	4	Temperatura máxima	13.9
35115	7	Sololá	701	Sololá	3	Barraneche	7	Julio	2023-02-07T00:00:00	2024-11-06T21:00:00	3	Temperatura mínima	13.3
35116	7	Sololá	701	Sololá	3	Barraneche	7	Julio	2023-02-07T00:00:00	2024-11-06T21:00:00	5	Humedad	84
35117	7	Sololá	701	Sololá	3	Barraneche	7	Julio	2023-02-07T00:00:00	2024-11-06T21:00:00	6	Velocidad del viento	1.6
35118	7	Sololá	701	Sololá	3	Barraneche	7	Julio	2023-02-07T00:00:00	2024-11-06T21:00:00	7	Dirección del viento	1.61
35119	7	Sololá	701	Sololá	3	Barraneche	7	Julio	2023-02-07T00:00:00	2024-11-06T21:00:00	1	Precipitación	0
35120	7	Sololá	701	Sololá	3	Barraneche	7	Julio	2023-02-07T00:00:00	2024-11-06T21:00:00	8	Radiación solar	0
35121	7	Sololá	701	Sololá	3	Barraneche	7	Julio	2023-02-07T00:00:00	2024-11-06T22:00:00	2	Temperatura media	13.1
35122	7	Sololá	701	Sololá	3	Barraneche	7	Julio	2023-02-07T00:00:00	2024-11-06T22:00:00	4	Temperatura máxima	13.5
35123	7	Sololá	701	Sololá	3	Barraneche	7	Julio	2023-02-07T00:00:00	2024-11-06T22:00:00	3	Temperatura mínima	13.1
35124	7	Sololá	701	Sololá	3	Barraneche	7	Julio	2023-02-07T00:00:00	2024-11-06T22:00:00	5	Humedad	84
35125	7	Sololá	701	Sololá	3	Barraneche	7	Julio	2023-02-07T00:00:00	2024-11-06T22:00:00	6	Velocidad del viento	1.6
35126	7	Sololá	701	Sololá	3	Barraneche	7	Julio	2023-02-07T00:00:00	2024-11-06T22:00:00	7	Dirección del viento	1.61
35127	7	Sololá	701	Sololá	3	Barraneche	7	Julio	2023-02-07T00:00:00	2024-11-06T22:00:00	1	Precipitación	0
35128	7	Sololá	701	Sololá	3	Barraneche	7	Julio	2023-02-07T00:00:00	2024-11-06T22:00:00	8	Radiación solar	0
35129	7	Sololá	701	Sololá	3	Barraneche	7	Julio	2023-02-07T00:00:00	2024-11-06T23:00:00	2	Temperatura media	13.2
35130	7	Sololá	701	Sololá	3	Barraneche	7	Julio	2023-02-07T00:00:00	2024-11-06T23:00:00	4	Temperatura máxima	13.2
35131	7	Sololá	701	Sololá	3	Barraneche	7	Julio	2023-02-07T00:00:00	2024-11-06T23:00:00	3	Temperatura mínima	13
35132	7	Sololá	701	Sololá	3	Barraneche	7	Julio	2023-02-07T00:00:00	2024-11-06T23:00:00	5	Humedad	84
35133	7	Sololá	701	Sololá	3	Barraneche	7	Julio	2023-02-07T00:00:00	2024-11-06T23:00:00	6	Velocidad del viento	1.6
35134	7	Sololá	701	Sololá	3	Barraneche	7	Julio	2023-02-07T00:00:00	2024-11-06T23:00:00	7	Dirección del viento	1.61
35135	7	Sololá	701	Sololá	3	Barraneche	7	Julio	2023-02-07T00:00:00	2024-11-06T23:00:00	1	Precipitación	0
35136	7	Sololá	701	Sololá	3	Barraneche	7	Julio	2023-02-07T00:00:00	2024-11-06T23:00:00	8	Radiación solar	0
35137	7	Sololá	701	Sololá	3	Barraneche	7	Julio	2023-03-07T00:00:00	2024-11-06T00:00:00	2	Temperatura media	13.2
35138	7	Sololá	701	Sololá	3	Barraneche	7	Julio	2023-03-07T00:00:00	2024-11-06T00:00:00	4	Temperatura máxima	13.2
35139	7	Sololá	701	Sololá	3	Barraneche	7	Julio	2023-03-07T00:00:00	2024-11-06T00:00:00	3	Temperatura mínima	13.1
35140	7	Sololá	701	Sololá	3	Barraneche	7	Julio	2023-03-07T00:00:00	2024-11-06T00:00:00	5	Humedad	84
35141	7	Sololá	701	Sololá	3	Barraneche	7	Julio	2023-03-07T00:00:00	2024-11-06T00:00:00	6	Velocidad del viento	1.6
35142	7	Sololá	701	Sololá	3	Barraneche	7	Julio	2023-03-07T00:00:00	2024-11-06T00:00:00	7	Dirección del viento	1.61
35143	7	Sololá	701	Sololá	3	Barraneche	7	Julio	2023-03-07T00:00:00	2024-11-06T00:00:00	1	Precipitación	0
35144	7	Sololá	701	Sololá	3	Barraneche	7	Julio	2023-03-07T00:00:00	2024-11-06T00:00:00	8	Radiación solar	0
35145	7	Sololá	701	Sololá	3	Barraneche	7	Julio	2023-03-07T00:00:00	2024-11-06T01:00:00	2	Temperatura media	12.9
35146	7	Sololá	701	Sololá	3	Barraneche	7	Julio	2023-03-07T00:00:00	2024-11-06T01:00:00	4	Temperatura máxima	13.2
35147	7	Sololá	701	Sololá	3	Barraneche	7	Julio	2023-03-07T00:00:00	2024-11-06T01:00:00	3	Temperatura mínima	12.8
35148	7	Sololá	701	Sololá	3	Barraneche	7	Julio	2023-03-07T00:00:00	2024-11-06T01:00:00	5	Humedad	84
35149	7	Sololá	701	Sololá	3	Barraneche	7	Julio	2023-03-07T00:00:00	2024-11-06T01:00:00	6	Velocidad del viento	3.2
35150	7	Sololá	701	Sololá	3	Barraneche	7	Julio	2023-03-07T00:00:00	2024-11-06T01:00:00	7	Dirección del viento	3.22
35151	7	Sololá	701	Sololá	3	Barraneche	7	Julio	2023-03-07T00:00:00	2024-11-06T01:00:00	1	Precipitación	0
35152	7	Sololá	701	Sololá	3	Barraneche	7	Julio	2023-03-07T00:00:00	2024-11-06T01:00:00	8	Radiación solar	0
35153	7	Sololá	701	Sololá	3	Barraneche	7	Julio	2023-03-07T00:00:00	2024-11-06T02:00:00	2	Temperatura media	13
35154	7	Sololá	701	Sololá	3	Barraneche	7	Julio	2023-03-07T00:00:00	2024-11-06T02:00:00	4	Temperatura máxima	13.1
35155	7	Sololá	701	Sololá	3	Barraneche	7	Julio	2023-03-07T00:00:00	2024-11-06T02:00:00	3	Temperatura mínima	12.9
35156	7	Sololá	701	Sololá	3	Barraneche	7	Julio	2023-03-07T00:00:00	2024-11-06T02:00:00	5	Humedad	84
35157	7	Sololá	701	Sololá	3	Barraneche	7	Julio	2023-03-07T00:00:00	2024-11-06T02:00:00	6	Velocidad del viento	1.6
35158	7	Sololá	701	Sololá	3	Barraneche	7	Julio	2023-03-07T00:00:00	2024-11-06T02:00:00	7	Dirección del viento	1.61
35159	7	Sololá	701	Sololá	3	Barraneche	7	Julio	2023-03-07T00:00:00	2024-11-06T02:00:00	1	Precipitación	0
35160	7	Sololá	701	Sololá	3	Barraneche	7	Julio	2023-03-07T00:00:00	2024-11-06T02:00:00	8	Radiación solar	0
35161	7	Sololá	701	Sololá	3	Barraneche	7	Julio	2023-03-07T00:00:00	2024-11-06T03:00:00	2	Temperatura media	13.1
35162	7	Sololá	701	Sololá	3	Barraneche	7	Julio	2023-03-07T00:00:00	2024-11-06T03:00:00	4	Temperatura máxima	13.2
35163	7	Sololá	701	Sololá	3	Barraneche	7	Julio	2023-03-07T00:00:00	2024-11-06T03:00:00	3	Temperatura mínima	13
35164	7	Sololá	701	Sololá	3	Barraneche	7	Julio	2023-03-07T00:00:00	2024-11-06T03:00:00	5	Humedad	84
35165	7	Sololá	701	Sololá	3	Barraneche	7	Julio	2023-03-07T00:00:00	2024-11-06T03:00:00	6	Velocidad del viento	1.6
35166	7	Sololá	701	Sololá	3	Barraneche	7	Julio	2023-03-07T00:00:00	2024-11-06T03:00:00	7	Dirección del viento	1.61
35167	7	Sololá	701	Sololá	3	Barraneche	7	Julio	2023-03-07T00:00:00	2024-11-06T03:00:00	1	Precipitación	0
35168	7	Sololá	701	Sololá	3	Barraneche	7	Julio	2023-03-07T00:00:00	2024-11-06T03:00:00	8	Radiación solar	0
35169	7	Sololá	701	Sololá	3	Barraneche	7	Julio	2023-03-07T00:00:00	2024-11-06T04:00:00	2	Temperatura media	13
35170	7	Sololá	701	Sololá	3	Barraneche	7	Julio	2023-03-07T00:00:00	2024-11-06T04:00:00	4	Temperatura máxima	13.2
35171	7	Sololá	701	Sololá	3	Barraneche	7	Julio	2023-03-07T00:00:00	2024-11-06T04:00:00	3	Temperatura mínima	13
35172	7	Sololá	701	Sololá	3	Barraneche	7	Julio	2023-03-07T00:00:00	2024-11-06T04:00:00	5	Humedad	84
35173	7	Sololá	701	Sololá	3	Barraneche	7	Julio	2023-03-07T00:00:00	2024-11-06T04:00:00	6	Velocidad del viento	1.6
35174	7	Sololá	701	Sololá	3	Barraneche	7	Julio	2023-03-07T00:00:00	2024-11-06T04:00:00	7	Dirección del viento	1.61
35175	7	Sololá	701	Sololá	3	Barraneche	7	Julio	2023-03-07T00:00:00	2024-11-06T04:00:00	1	Precipitación	0
35176	7	Sololá	701	Sololá	3	Barraneche	7	Julio	2023-03-07T00:00:00	2024-11-06T04:00:00	8	Radiación solar	0
35177	7	Sololá	701	Sololá	3	Barraneche	7	Julio	2023-03-07T00:00:00	2024-11-06T05:00:00	2	Temperatura media	12.8
35178	7	Sololá	701	Sololá	3	Barraneche	7	Julio	2023-03-07T00:00:00	2024-11-06T05:00:00	4	Temperatura máxima	13
35179	7	Sololá	701	Sololá	3	Barraneche	7	Julio	2023-03-07T00:00:00	2024-11-06T05:00:00	3	Temperatura mínima	12.8
35180	7	Sololá	701	Sololá	3	Barraneche	7	Julio	2023-03-07T00:00:00	2024-11-06T05:00:00	5	Humedad	84
35181	7	Sololá	701	Sololá	3	Barraneche	7	Julio	2023-03-07T00:00:00	2024-11-06T05:00:00	6	Velocidad del viento	0
35182	7	Sololá	701	Sololá	3	Barraneche	7	Julio	2023-03-07T00:00:00	2024-11-06T05:00:00	7	Dirección del viento	0
35183	7	Sololá	701	Sololá	3	Barraneche	7	Julio	2023-03-07T00:00:00	2024-11-06T05:00:00	1	Precipitación	0
35184	7	Sololá	701	Sololá	3	Barraneche	7	Julio	2023-03-07T00:00:00	2024-11-06T05:00:00	8	Radiación solar	0
35185	7	Sololá	701	Sololá	3	Barraneche	7	Julio	2023-03-07T00:00:00	2024-11-06T06:00:00	2	Temperatura media	12.9
35186	7	Sololá	701	Sololá	3	Barraneche	7	Julio	2023-03-07T00:00:00	2024-11-06T06:00:00	4	Temperatura máxima	12.9
35187	7	Sololá	701	Sololá	3	Barraneche	7	Julio	2023-03-07T00:00:00	2024-11-06T06:00:00	3	Temperatura mínima	12.8
35188	7	Sololá	701	Sololá	3	Barraneche	7	Julio	2023-03-07T00:00:00	2024-11-06T06:00:00	5	Humedad	85
35189	7	Sololá	701	Sololá	3	Barraneche	7	Julio	2023-03-07T00:00:00	2024-11-06T06:00:00	6	Velocidad del viento	0
35190	7	Sololá	701	Sololá	3	Barraneche	7	Julio	2023-03-07T00:00:00	2024-11-06T06:00:00	7	Dirección del viento	0
35191	7	Sololá	701	Sololá	3	Barraneche	7	Julio	2023-03-07T00:00:00	2024-11-06T06:00:00	1	Precipitación	0
35192	7	Sololá	701	Sololá	3	Barraneche	7	Julio	2023-03-07T00:00:00	2024-11-06T06:00:00	8	Radiación solar	1
35193	7	Sololá	701	Sololá	3	Barraneche	7	Julio	2023-03-07T00:00:00	2024-11-06T07:00:00	2	Temperatura media	13.2
35194	7	Sololá	701	Sololá	3	Barraneche	7	Julio	2023-03-07T00:00:00	2024-11-06T07:00:00	4	Temperatura máxima	13.2
35195	7	Sololá	701	Sololá	3	Barraneche	7	Julio	2023-03-07T00:00:00	2024-11-06T07:00:00	3	Temperatura mínima	12.8
35196	7	Sololá	701	Sololá	3	Barraneche	7	Julio	2023-03-07T00:00:00	2024-11-06T07:00:00	5	Humedad	85
35197	7	Sololá	701	Sololá	3	Barraneche	7	Julio	2023-03-07T00:00:00	2024-11-06T07:00:00	6	Velocidad del viento	0
35198	7	Sololá	701	Sololá	3	Barraneche	7	Julio	2023-03-07T00:00:00	2024-11-06T07:00:00	7	Dirección del viento	0
35199	7	Sololá	701	Sololá	3	Barraneche	7	Julio	2023-03-07T00:00:00	2024-11-06T07:00:00	1	Precipitación	0
35200	7	Sololá	701	Sololá	3	Barraneche	7	Julio	2023-03-07T00:00:00	2024-11-06T07:00:00	8	Radiación solar	30
35201	7	Sololá	701	Sololá	3	Barraneche	7	Julio	2023-03-07T00:00:00	2024-11-06T08:00:00	2	Temperatura media	13.7
35202	7	Sololá	701	Sololá	3	Barraneche	7	Julio	2023-03-07T00:00:00	2024-11-06T08:00:00	4	Temperatura máxima	13.7
35203	7	Sololá	701	Sololá	3	Barraneche	7	Julio	2023-03-07T00:00:00	2024-11-06T08:00:00	3	Temperatura mínima	13.2
35204	7	Sololá	701	Sololá	3	Barraneche	7	Julio	2023-03-07T00:00:00	2024-11-06T08:00:00	5	Humedad	84
35205	7	Sololá	701	Sololá	3	Barraneche	7	Julio	2023-03-07T00:00:00	2024-11-06T08:00:00	6	Velocidad del viento	1.6
35206	7	Sololá	701	Sololá	3	Barraneche	7	Julio	2023-03-07T00:00:00	2024-11-06T08:00:00	7	Dirección del viento	1.61
35207	7	Sololá	701	Sololá	3	Barraneche	7	Julio	2023-03-07T00:00:00	2024-11-06T08:00:00	1	Precipitación	0
35208	7	Sololá	701	Sololá	3	Barraneche	7	Julio	2023-03-07T00:00:00	2024-11-06T08:00:00	8	Radiación solar	89
35209	7	Sololá	701	Sololá	3	Barraneche	7	Julio	2023-03-07T00:00:00	2024-11-06T09:00:00	2	Temperatura media	15.3
35210	7	Sololá	701	Sololá	3	Barraneche	7	Julio	2023-03-07T00:00:00	2024-11-06T09:00:00	4	Temperatura máxima	15.3
35211	7	Sololá	701	Sololá	3	Barraneche	7	Julio	2023-03-07T00:00:00	2024-11-06T09:00:00	3	Temperatura mínima	13.7
35212	7	Sololá	701	Sololá	3	Barraneche	7	Julio	2023-03-07T00:00:00	2024-11-06T09:00:00	5	Humedad	78
35213	7	Sololá	701	Sololá	3	Barraneche	7	Julio	2023-03-07T00:00:00	2024-11-06T09:00:00	6	Velocidad del viento	1.6
35214	7	Sololá	701	Sololá	3	Barraneche	7	Julio	2023-03-07T00:00:00	2024-11-06T09:00:00	7	Dirección del viento	1.61
35215	7	Sololá	701	Sololá	3	Barraneche	7	Julio	2023-03-07T00:00:00	2024-11-06T09:00:00	1	Precipitación	0
35216	7	Sololá	701	Sololá	3	Barraneche	7	Julio	2023-03-07T00:00:00	2024-11-06T09:00:00	8	Radiación solar	230
35217	7	Sololá	701	Sololá	3	Barraneche	7	Julio	2023-03-07T00:00:00	2024-11-06T10:00:00	2	Temperatura media	15.7
35218	7	Sololá	701	Sololá	3	Barraneche	7	Julio	2023-03-07T00:00:00	2024-11-06T10:00:00	4	Temperatura máxima	16.3
35219	7	Sololá	701	Sololá	3	Barraneche	7	Julio	2023-03-07T00:00:00	2024-11-06T10:00:00	3	Temperatura mínima	15.2
35220	7	Sololá	701	Sololá	3	Barraneche	7	Julio	2023-03-07T00:00:00	2024-11-06T10:00:00	5	Humedad	78
35221	7	Sololá	701	Sololá	3	Barraneche	7	Julio	2023-03-07T00:00:00	2024-11-06T10:00:00	6	Velocidad del viento	4.8
35222	7	Sololá	701	Sololá	3	Barraneche	7	Julio	2023-03-07T00:00:00	2024-11-06T10:00:00	7	Dirección del viento	4.83
35223	7	Sololá	701	Sololá	3	Barraneche	7	Julio	2023-03-07T00:00:00	2024-11-06T10:00:00	1	Precipitación	0
35224	7	Sololá	701	Sololá	3	Barraneche	7	Julio	2023-03-07T00:00:00	2024-11-06T10:00:00	8	Radiación solar	313
35225	7	Sololá	701	Sololá	3	Barraneche	7	Julio	2023-03-07T00:00:00	2024-11-06T11:00:00	2	Temperatura media	16.2
35226	7	Sololá	701	Sololá	3	Barraneche	7	Julio	2023-03-07T00:00:00	2024-11-06T11:00:00	4	Temperatura máxima	17.4
35227	7	Sololá	701	Sololá	3	Barraneche	7	Julio	2023-03-07T00:00:00	2024-11-06T11:00:00	3	Temperatura mínima	15.6
35228	7	Sololá	701	Sololá	3	Barraneche	7	Julio	2023-03-07T00:00:00	2024-11-06T11:00:00	5	Humedad	77
35229	7	Sololá	701	Sololá	3	Barraneche	7	Julio	2023-03-07T00:00:00	2024-11-06T11:00:00	6	Velocidad del viento	9.7
35230	7	Sololá	701	Sololá	3	Barraneche	7	Julio	2023-03-07T00:00:00	2024-11-06T11:00:00	7	Dirección del viento	9.66
35231	7	Sololá	701	Sololá	3	Barraneche	7	Julio	2023-03-07T00:00:00	2024-11-06T11:00:00	1	Precipitación	0
35232	7	Sololá	701	Sololá	3	Barraneche	7	Julio	2023-03-07T00:00:00	2024-11-06T11:00:00	8	Radiación solar	633
35233	7	Sololá	701	Sololá	3	Barraneche	7	Julio	2023-03-07T00:00:00	2024-11-06T12:00:00	2	Temperatura media	17.2
35234	7	Sololá	701	Sololá	3	Barraneche	7	Julio	2023-03-07T00:00:00	2024-11-06T12:00:00	4	Temperatura máxima	17.2
35235	7	Sololá	701	Sololá	3	Barraneche	7	Julio	2023-03-07T00:00:00	2024-11-06T12:00:00	3	Temperatura mínima	16.2
35236	7	Sololá	701	Sololá	3	Barraneche	7	Julio	2023-03-07T00:00:00	2024-11-06T12:00:00	5	Humedad	76
35237	7	Sololá	701	Sololá	3	Barraneche	7	Julio	2023-03-07T00:00:00	2024-11-06T12:00:00	6	Velocidad del viento	14.5
35238	7	Sololá	701	Sololá	3	Barraneche	7	Julio	2023-03-07T00:00:00	2024-11-06T12:00:00	7	Dirección del viento	14.48
35239	7	Sololá	701	Sololá	3	Barraneche	7	Julio	2023-03-07T00:00:00	2024-11-06T12:00:00	1	Precipitación	0
35240	7	Sololá	701	Sololá	3	Barraneche	7	Julio	2023-03-07T00:00:00	2024-11-06T12:00:00	8	Radiación solar	973
35241	7	Sololá	701	Sololá	3	Barraneche	7	Julio	2023-03-07T00:00:00	2024-11-06T13:00:00	2	Temperatura media	16.8
35242	7	Sololá	701	Sololá	3	Barraneche	7	Julio	2023-03-07T00:00:00	2024-11-06T13:00:00	4	Temperatura máxima	17.3
35243	7	Sololá	701	Sololá	3	Barraneche	7	Julio	2023-03-07T00:00:00	2024-11-06T13:00:00	3	Temperatura mínima	16.8
35244	7	Sololá	701	Sololá	3	Barraneche	7	Julio	2023-03-07T00:00:00	2024-11-06T13:00:00	5	Humedad	77
35245	7	Sololá	701	Sololá	3	Barraneche	7	Julio	2023-03-07T00:00:00	2024-11-06T13:00:00	6	Velocidad del viento	6.4
35246	7	Sololá	701	Sololá	3	Barraneche	7	Julio	2023-03-07T00:00:00	2024-11-06T13:00:00	7	Dirección del viento	6.44
35247	7	Sololá	701	Sololá	3	Barraneche	7	Julio	2023-03-07T00:00:00	2024-11-06T13:00:00	1	Precipitación	0
35248	7	Sololá	701	Sololá	3	Barraneche	7	Julio	2023-03-07T00:00:00	2024-11-06T13:00:00	8	Radiación solar	211
35249	7	Sololá	701	Sololá	3	Barraneche	7	Julio	2023-03-07T00:00:00	2024-11-06T14:00:00	2	Temperatura media	15.8
35250	7	Sololá	701	Sololá	3	Barraneche	7	Julio	2023-03-07T00:00:00	2024-11-06T14:00:00	4	Temperatura máxima	16.8
35251	7	Sololá	701	Sololá	3	Barraneche	7	Julio	2023-03-07T00:00:00	2024-11-06T14:00:00	3	Temperatura mínima	15.8
35252	7	Sololá	701	Sololá	3	Barraneche	7	Julio	2023-03-07T00:00:00	2024-11-06T14:00:00	5	Humedad	80
35253	7	Sololá	701	Sololá	3	Barraneche	7	Julio	2023-03-07T00:00:00	2024-11-06T14:00:00	6	Velocidad del viento	8
35254	7	Sololá	701	Sololá	3	Barraneche	7	Julio	2023-03-07T00:00:00	2024-11-06T14:00:00	7	Dirección del viento	8.05
35255	7	Sololá	701	Sololá	3	Barraneche	7	Julio	2023-03-07T00:00:00	2024-11-06T14:00:00	1	Precipitación	0
35256	7	Sololá	701	Sololá	3	Barraneche	7	Julio	2023-03-07T00:00:00	2024-11-06T14:00:00	8	Radiación solar	138
35257	7	Sololá	701	Sololá	3	Barraneche	7	Julio	2023-03-07T00:00:00	2024-11-06T15:00:00	2	Temperatura media	15.4
35258	7	Sololá	701	Sololá	3	Barraneche	7	Julio	2023-03-07T00:00:00	2024-11-06T15:00:00	4	Temperatura máxima	15.9
35259	7	Sololá	701	Sololá	3	Barraneche	7	Julio	2023-03-07T00:00:00	2024-11-06T15:00:00	3	Temperatura mínima	15.4
35260	7	Sololá	701	Sololá	3	Barraneche	7	Julio	2023-03-07T00:00:00	2024-11-06T15:00:00	5	Humedad	84
35261	7	Sololá	701	Sololá	3	Barraneche	7	Julio	2023-03-07T00:00:00	2024-11-06T15:00:00	6	Velocidad del viento	6.4
35262	7	Sololá	701	Sololá	3	Barraneche	7	Julio	2023-03-07T00:00:00	2024-11-06T15:00:00	7	Dirección del viento	6.44
35263	7	Sololá	701	Sololá	3	Barraneche	7	Julio	2023-03-07T00:00:00	2024-11-06T15:00:00	1	Precipitación	3.2
35264	7	Sololá	701	Sololá	3	Barraneche	7	Julio	2023-03-07T00:00:00	2024-11-06T15:00:00	8	Radiación solar	92
35265	7	Sololá	701	Sololá	3	Barraneche	7	Julio	2023-03-07T00:00:00	2024-11-06T16:00:00	2	Temperatura media	16
35266	7	Sololá	701	Sololá	3	Barraneche	7	Julio	2023-03-07T00:00:00	2024-11-06T16:00:00	4	Temperatura máxima	16
35267	7	Sololá	701	Sololá	3	Barraneche	7	Julio	2023-03-07T00:00:00	2024-11-06T16:00:00	3	Temperatura mínima	15.4
35268	7	Sololá	701	Sololá	3	Barraneche	7	Julio	2023-03-07T00:00:00	2024-11-06T16:00:00	5	Humedad	84
35269	7	Sololá	701	Sololá	3	Barraneche	7	Julio	2023-03-07T00:00:00	2024-11-06T16:00:00	6	Velocidad del viento	3.2
35270	7	Sololá	701	Sololá	3	Barraneche	7	Julio	2023-03-07T00:00:00	2024-11-06T16:00:00	7	Dirección del viento	3.22
35271	7	Sololá	701	Sololá	3	Barraneche	7	Julio	2023-03-07T00:00:00	2024-11-06T16:00:00	1	Precipitación	1
35272	7	Sololá	701	Sololá	3	Barraneche	7	Julio	2023-03-07T00:00:00	2024-11-06T16:00:00	8	Radiación solar	212
35273	7	Sololá	701	Sololá	3	Barraneche	7	Julio	2023-03-07T00:00:00	2024-11-06T17:00:00	2	Temperatura media	15.8
35274	7	Sololá	701	Sololá	3	Barraneche	7	Julio	2023-03-07T00:00:00	2024-11-06T17:00:00	4	Temperatura máxima	16.6
35275	7	Sololá	701	Sololá	3	Barraneche	7	Julio	2023-03-07T00:00:00	2024-11-06T17:00:00	3	Temperatura mínima	15.8
35276	7	Sololá	701	Sololá	3	Barraneche	7	Julio	2023-03-07T00:00:00	2024-11-06T17:00:00	5	Humedad	81
35277	7	Sololá	701	Sololá	3	Barraneche	7	Julio	2023-03-07T00:00:00	2024-11-06T17:00:00	6	Velocidad del viento	4.8
35278	7	Sololá	701	Sololá	3	Barraneche	7	Julio	2023-03-07T00:00:00	2024-11-06T17:00:00	7	Dirección del viento	4.83
35279	7	Sololá	701	Sololá	3	Barraneche	7	Julio	2023-03-07T00:00:00	2024-11-06T17:00:00	1	Precipitación	0
35280	7	Sololá	701	Sololá	3	Barraneche	7	Julio	2023-03-07T00:00:00	2024-11-06T17:00:00	8	Radiación solar	152
35281	7	Sololá	701	Sololá	3	Barraneche	7	Julio	2023-03-07T00:00:00	2024-11-06T18:00:00	2	Temperatura media	15.1
35282	7	Sololá	701	Sololá	3	Barraneche	7	Julio	2023-03-07T00:00:00	2024-11-06T18:00:00	4	Temperatura máxima	15.8
35283	7	Sololá	701	Sololá	3	Barraneche	7	Julio	2023-03-07T00:00:00	2024-11-06T18:00:00	3	Temperatura mínima	15.1
35284	7	Sololá	701	Sololá	3	Barraneche	7	Julio	2023-03-07T00:00:00	2024-11-06T18:00:00	5	Humedad	84
35285	7	Sololá	701	Sololá	3	Barraneche	7	Julio	2023-03-07T00:00:00	2024-11-06T18:00:00	6	Velocidad del viento	3.2
35286	7	Sololá	701	Sololá	3	Barraneche	7	Julio	2023-03-07T00:00:00	2024-11-06T18:00:00	7	Dirección del viento	3.22
35287	7	Sololá	701	Sololá	3	Barraneche	7	Julio	2023-03-07T00:00:00	2024-11-06T18:00:00	1	Precipitación	1
35288	7	Sololá	701	Sololá	3	Barraneche	7	Julio	2023-03-07T00:00:00	2024-11-06T18:00:00	8	Radiación solar	15
35289	7	Sololá	701	Sololá	3	Barraneche	7	Julio	2023-03-07T00:00:00	2024-11-06T19:00:00	2	Temperatura media	14.9
35290	7	Sololá	701	Sololá	3	Barraneche	7	Julio	2023-03-07T00:00:00	2024-11-06T19:00:00	4	Temperatura máxima	15.2
35291	7	Sololá	701	Sololá	3	Barraneche	7	Julio	2023-03-07T00:00:00	2024-11-06T19:00:00	3	Temperatura mínima	14.9
35292	7	Sololá	701	Sololá	3	Barraneche	7	Julio	2023-03-07T00:00:00	2024-11-06T19:00:00	5	Humedad	85
35293	7	Sololá	701	Sololá	3	Barraneche	7	Julio	2023-03-07T00:00:00	2024-11-06T19:00:00	6	Velocidad del viento	1.6
35294	7	Sololá	701	Sololá	3	Barraneche	7	Julio	2023-03-07T00:00:00	2024-11-06T19:00:00	7	Dirección del viento	1.61
35295	7	Sololá	701	Sololá	3	Barraneche	7	Julio	2023-03-07T00:00:00	2024-11-06T19:00:00	1	Precipitación	7
35296	7	Sololá	701	Sololá	3	Barraneche	7	Julio	2023-03-07T00:00:00	2024-11-06T19:00:00	8	Radiación solar	0
35297	7	Sololá	701	Sololá	3	Barraneche	7	Julio	2023-03-07T00:00:00	2024-11-06T20:00:00	2	Temperatura media	14.1
35298	7	Sololá	701	Sololá	3	Barraneche	7	Julio	2023-03-07T00:00:00	2024-11-06T20:00:00	4	Temperatura máxima	14.9
35299	7	Sololá	701	Sololá	3	Barraneche	7	Julio	2023-03-07T00:00:00	2024-11-06T20:00:00	3	Temperatura mínima	14.1
35300	7	Sololá	701	Sololá	3	Barraneche	7	Julio	2023-03-07T00:00:00	2024-11-06T20:00:00	5	Humedad	84
35301	7	Sololá	701	Sololá	3	Barraneche	7	Julio	2023-03-07T00:00:00	2024-11-06T20:00:00	6	Velocidad del viento	4.8
35302	7	Sololá	701	Sololá	3	Barraneche	7	Julio	2023-03-07T00:00:00	2024-11-06T20:00:00	7	Dirección del viento	4.83
35303	7	Sololá	701	Sololá	3	Barraneche	7	Julio	2023-03-07T00:00:00	2024-11-06T20:00:00	1	Precipitación	0.4
35304	7	Sololá	701	Sololá	3	Barraneche	7	Julio	2023-03-07T00:00:00	2024-11-06T20:00:00	8	Radiación solar	0
35305	7	Sololá	701	Sololá	3	Barraneche	7	Julio	2023-03-07T00:00:00	2024-11-06T21:00:00	2	Temperatura media	14
35306	7	Sololá	701	Sololá	3	Barraneche	7	Julio	2023-03-07T00:00:00	2024-11-06T21:00:00	4	Temperatura máxima	14.2
35307	7	Sololá	701	Sololá	3	Barraneche	7	Julio	2023-03-07T00:00:00	2024-11-06T21:00:00	3	Temperatura mínima	13.9
35308	7	Sololá	701	Sololá	3	Barraneche	7	Julio	2023-03-07T00:00:00	2024-11-06T21:00:00	5	Humedad	83
35309	7	Sololá	701	Sololá	3	Barraneche	7	Julio	2023-03-07T00:00:00	2024-11-06T21:00:00	6	Velocidad del viento	3.2
35310	7	Sololá	701	Sololá	3	Barraneche	7	Julio	2023-03-07T00:00:00	2024-11-06T21:00:00	7	Dirección del viento	3.22
35311	7	Sololá	701	Sololá	3	Barraneche	7	Julio	2023-03-07T00:00:00	2024-11-06T21:00:00	1	Precipitación	2.8
35312	7	Sololá	701	Sololá	3	Barraneche	7	Julio	2023-03-07T00:00:00	2024-11-06T21:00:00	8	Radiación solar	0
35313	7	Sololá	701	Sololá	3	Barraneche	7	Julio	2023-03-07T00:00:00	2024-11-06T22:00:00	2	Temperatura media	13.8
35314	7	Sololá	701	Sololá	3	Barraneche	7	Julio	2023-03-07T00:00:00	2024-11-06T22:00:00	4	Temperatura máxima	14
35315	7	Sololá	701	Sololá	3	Barraneche	7	Julio	2023-03-07T00:00:00	2024-11-06T22:00:00	3	Temperatura mínima	13.7
35316	7	Sololá	701	Sololá	3	Barraneche	7	Julio	2023-03-07T00:00:00	2024-11-06T22:00:00	5	Humedad	84
35317	7	Sololá	701	Sololá	3	Barraneche	7	Julio	2023-03-07T00:00:00	2024-11-06T22:00:00	6	Velocidad del viento	1.6
35318	7	Sololá	701	Sololá	3	Barraneche	7	Julio	2023-03-07T00:00:00	2024-11-06T22:00:00	7	Dirección del viento	1.61
35319	7	Sololá	701	Sololá	3	Barraneche	7	Julio	2023-03-07T00:00:00	2024-11-06T22:00:00	1	Precipitación	1.6
35320	7	Sololá	701	Sololá	3	Barraneche	7	Julio	2023-03-07T00:00:00	2024-11-06T22:00:00	8	Radiación solar	0
35321	7	Sololá	701	Sololá	3	Barraneche	7	Julio	2023-03-07T00:00:00	2024-11-06T23:00:00	2	Temperatura media	13.7
35322	7	Sololá	701	Sololá	3	Barraneche	7	Julio	2023-03-07T00:00:00	2024-11-06T23:00:00	4	Temperatura máxima	13.9
35323	7	Sololá	701	Sololá	3	Barraneche	7	Julio	2023-03-07T00:00:00	2024-11-06T23:00:00	3	Temperatura mínima	13.7
35324	7	Sololá	701	Sololá	3	Barraneche	7	Julio	2023-03-07T00:00:00	2024-11-06T23:00:00	5	Humedad	85
35325	7	Sololá	701	Sololá	3	Barraneche	7	Julio	2023-03-07T00:00:00	2024-11-06T23:00:00	6	Velocidad del viento	1.6
35326	7	Sololá	701	Sololá	3	Barraneche	7	Julio	2023-03-07T00:00:00	2024-11-06T23:00:00	7	Dirección del viento	1.61
35327	7	Sololá	701	Sololá	3	Barraneche	7	Julio	2023-03-07T00:00:00	2024-11-06T23:00:00	1	Precipitación	0.8
35328	7	Sololá	701	Sololá	3	Barraneche	7	Julio	2023-03-07T00:00:00	2024-11-06T23:00:00	8	Radiación solar	0
35329	7	Sololá	701	Sololá	3	Barraneche	7	Julio	2023-04-07T00:00:00	2024-11-06T00:00:00	2	Temperatura media	13.5
35330	7	Sololá	701	Sololá	3	Barraneche	7	Julio	2023-04-07T00:00:00	2024-11-06T00:00:00	4	Temperatura máxima	13.8
35331	7	Sololá	701	Sololá	3	Barraneche	7	Julio	2023-04-07T00:00:00	2024-11-06T00:00:00	3	Temperatura mínima	13.5
35332	7	Sololá	701	Sololá	3	Barraneche	7	Julio	2023-04-07T00:00:00	2024-11-06T00:00:00	5	Humedad	85
35333	7	Sololá	701	Sololá	3	Barraneche	7	Julio	2023-04-07T00:00:00	2024-11-06T00:00:00	6	Velocidad del viento	1.6
35334	7	Sololá	701	Sololá	3	Barraneche	7	Julio	2023-04-07T00:00:00	2024-11-06T00:00:00	7	Dirección del viento	1.61
35335	7	Sololá	701	Sololá	3	Barraneche	7	Julio	2023-04-07T00:00:00	2024-11-06T00:00:00	1	Precipitación	0.4
35336	7	Sololá	701	Sololá	3	Barraneche	7	Julio	2023-04-07T00:00:00	2024-11-06T00:00:00	8	Radiación solar	0
35337	7	Sololá	701	Sololá	3	Barraneche	7	Julio	2023-04-07T00:00:00	2024-11-06T01:00:00	2	Temperatura media	13.3
35338	7	Sololá	701	Sololá	3	Barraneche	7	Julio	2023-04-07T00:00:00	2024-11-06T01:00:00	4	Temperatura máxima	13.6
35339	7	Sololá	701	Sololá	3	Barraneche	7	Julio	2023-04-07T00:00:00	2024-11-06T01:00:00	3	Temperatura mínima	13.3
35340	7	Sololá	701	Sololá	3	Barraneche	7	Julio	2023-04-07T00:00:00	2024-11-06T01:00:00	5	Humedad	86
35341	7	Sololá	701	Sololá	3	Barraneche	7	Julio	2023-04-07T00:00:00	2024-11-06T01:00:00	6	Velocidad del viento	1.6
35342	7	Sololá	701	Sololá	3	Barraneche	7	Julio	2023-04-07T00:00:00	2024-11-06T01:00:00	7	Dirección del viento	1.61
35343	7	Sololá	701	Sololá	3	Barraneche	7	Julio	2023-04-07T00:00:00	2024-11-06T01:00:00	1	Precipitación	0
35344	7	Sololá	701	Sololá	3	Barraneche	7	Julio	2023-04-07T00:00:00	2024-11-06T01:00:00	8	Radiación solar	0
35345	7	Sololá	701	Sololá	3	Barraneche	7	Julio	2023-04-07T00:00:00	2024-11-06T02:00:00	2	Temperatura media	13.1
35346	7	Sololá	701	Sololá	3	Barraneche	7	Julio	2023-04-07T00:00:00	2024-11-06T02:00:00	4	Temperatura máxima	13.4
35347	7	Sololá	701	Sololá	3	Barraneche	7	Julio	2023-04-07T00:00:00	2024-11-06T02:00:00	3	Temperatura mínima	13.1
35348	7	Sololá	701	Sololá	3	Barraneche	7	Julio	2023-04-07T00:00:00	2024-11-06T02:00:00	5	Humedad	85
35349	7	Sololá	701	Sololá	3	Barraneche	7	Julio	2023-04-07T00:00:00	2024-11-06T02:00:00	6	Velocidad del viento	1.6
35350	7	Sololá	701	Sololá	3	Barraneche	7	Julio	2023-04-07T00:00:00	2024-11-06T02:00:00	7	Dirección del viento	1.61
35351	7	Sololá	701	Sololá	3	Barraneche	7	Julio	2023-04-07T00:00:00	2024-11-06T02:00:00	1	Precipitación	0
35352	7	Sololá	701	Sololá	3	Barraneche	7	Julio	2023-04-07T00:00:00	2024-11-06T02:00:00	8	Radiación solar	0
35353	7	Sololá	701	Sololá	3	Barraneche	7	Julio	2023-04-07T00:00:00	2024-11-06T03:00:00	2	Temperatura media	12.9
35354	7	Sololá	701	Sololá	3	Barraneche	7	Julio	2023-04-07T00:00:00	2024-11-06T03:00:00	4	Temperatura máxima	13.2
35355	7	Sololá	701	Sololá	3	Barraneche	7	Julio	2023-04-07T00:00:00	2024-11-06T03:00:00	3	Temperatura mínima	12.9
35356	7	Sololá	701	Sololá	3	Barraneche	7	Julio	2023-04-07T00:00:00	2024-11-06T03:00:00	5	Humedad	85
35357	7	Sololá	701	Sololá	3	Barraneche	7	Julio	2023-04-07T00:00:00	2024-11-06T03:00:00	6	Velocidad del viento	1.6
35358	7	Sololá	701	Sololá	3	Barraneche	7	Julio	2023-04-07T00:00:00	2024-11-06T03:00:00	7	Dirección del viento	1.61
35359	7	Sololá	701	Sololá	3	Barraneche	7	Julio	2023-04-07T00:00:00	2024-11-06T03:00:00	1	Precipitación	0
35360	7	Sololá	701	Sololá	3	Barraneche	7	Julio	2023-04-07T00:00:00	2024-11-06T03:00:00	8	Radiación solar	0
35361	7	Sololá	701	Sololá	3	Barraneche	7	Julio	2023-04-07T00:00:00	2024-11-06T04:00:00	2	Temperatura media	13.2
35362	7	Sololá	701	Sololá	3	Barraneche	7	Julio	2023-04-07T00:00:00	2024-11-06T04:00:00	4	Temperatura máxima	13.2
35363	7	Sololá	701	Sololá	3	Barraneche	7	Julio	2023-04-07T00:00:00	2024-11-06T04:00:00	3	Temperatura mínima	12.9
35364	7	Sololá	701	Sololá	3	Barraneche	7	Julio	2023-04-07T00:00:00	2024-11-06T04:00:00	5	Humedad	83
35365	7	Sololá	701	Sololá	3	Barraneche	7	Julio	2023-04-07T00:00:00	2024-11-06T04:00:00	6	Velocidad del viento	3.2
35366	7	Sololá	701	Sololá	3	Barraneche	7	Julio	2023-04-07T00:00:00	2024-11-06T04:00:00	7	Dirección del viento	3.22
35367	7	Sololá	701	Sololá	3	Barraneche	7	Julio	2023-04-07T00:00:00	2024-11-06T04:00:00	1	Precipitación	0
35368	7	Sololá	701	Sololá	3	Barraneche	7	Julio	2023-04-07T00:00:00	2024-11-06T04:00:00	8	Radiación solar	0
35369	7	Sololá	701	Sololá	3	Barraneche	7	Julio	2023-04-07T00:00:00	2024-11-06T05:00:00	2	Temperatura media	12.8
35370	7	Sololá	701	Sololá	3	Barraneche	7	Julio	2023-04-07T00:00:00	2024-11-06T05:00:00	4	Temperatura máxima	13.2
35371	7	Sololá	701	Sololá	3	Barraneche	7	Julio	2023-04-07T00:00:00	2024-11-06T05:00:00	3	Temperatura mínima	12.8
35372	7	Sololá	701	Sololá	3	Barraneche	7	Julio	2023-04-07T00:00:00	2024-11-06T05:00:00	5	Humedad	83
35373	7	Sololá	701	Sololá	3	Barraneche	7	Julio	2023-04-07T00:00:00	2024-11-06T05:00:00	6	Velocidad del viento	3.2
35374	7	Sololá	701	Sololá	3	Barraneche	7	Julio	2023-04-07T00:00:00	2024-11-06T05:00:00	7	Dirección del viento	3.22
35375	7	Sololá	701	Sololá	3	Barraneche	7	Julio	2023-04-07T00:00:00	2024-11-06T05:00:00	1	Precipitación	0
35376	7	Sololá	701	Sololá	3	Barraneche	7	Julio	2023-04-07T00:00:00	2024-11-06T05:00:00	8	Radiación solar	0
35377	7	Sololá	701	Sololá	3	Barraneche	7	Julio	2023-04-07T00:00:00	2024-11-06T06:00:00	2	Temperatura media	12.8
35378	7	Sololá	701	Sololá	3	Barraneche	7	Julio	2023-04-07T00:00:00	2024-11-06T06:00:00	4	Temperatura máxima	12.9
35379	7	Sololá	701	Sololá	3	Barraneche	7	Julio	2023-04-07T00:00:00	2024-11-06T06:00:00	3	Temperatura mínima	12.8
35380	7	Sololá	701	Sololá	3	Barraneche	7	Julio	2023-04-07T00:00:00	2024-11-06T06:00:00	5	Humedad	83
35381	7	Sololá	701	Sololá	3	Barraneche	7	Julio	2023-04-07T00:00:00	2024-11-06T06:00:00	6	Velocidad del viento	4.8
35382	7	Sololá	701	Sololá	3	Barraneche	7	Julio	2023-04-07T00:00:00	2024-11-06T06:00:00	7	Dirección del viento	4.83
35383	7	Sololá	701	Sololá	3	Barraneche	7	Julio	2023-04-07T00:00:00	2024-11-06T06:00:00	1	Precipitación	0
35384	7	Sololá	701	Sololá	3	Barraneche	7	Julio	2023-04-07T00:00:00	2024-11-06T06:00:00	8	Radiación solar	3
35385	7	Sololá	701	Sololá	3	Barraneche	7	Julio	2023-04-07T00:00:00	2024-11-06T07:00:00	2	Temperatura media	13.4
35386	7	Sololá	701	Sololá	3	Barraneche	7	Julio	2023-04-07T00:00:00	2024-11-06T07:00:00	4	Temperatura máxima	13.5
35387	7	Sololá	701	Sololá	3	Barraneche	7	Julio	2023-04-07T00:00:00	2024-11-06T07:00:00	3	Temperatura mínima	12.8
35388	7	Sololá	701	Sololá	3	Barraneche	7	Julio	2023-04-07T00:00:00	2024-11-06T07:00:00	5	Humedad	83
35389	7	Sololá	701	Sololá	3	Barraneche	7	Julio	2023-04-07T00:00:00	2024-11-06T07:00:00	6	Velocidad del viento	1.6
35390	7	Sololá	701	Sololá	3	Barraneche	7	Julio	2023-04-07T00:00:00	2024-11-06T07:00:00	7	Dirección del viento	1.61
35391	7	Sololá	701	Sololá	3	Barraneche	7	Julio	2023-04-07T00:00:00	2024-11-06T07:00:00	1	Precipitación	0
35392	7	Sololá	701	Sololá	3	Barraneche	7	Julio	2023-04-07T00:00:00	2024-11-06T07:00:00	8	Radiación solar	58
35393	7	Sololá	701	Sololá	3	Barraneche	7	Julio	2023-04-07T00:00:00	2024-11-06T08:00:00	2	Temperatura media	14.1
35394	7	Sololá	701	Sololá	3	Barraneche	7	Julio	2023-04-07T00:00:00	2024-11-06T08:00:00	4	Temperatura máxima	14.1
35395	7	Sololá	701	Sololá	3	Barraneche	7	Julio	2023-04-07T00:00:00	2024-11-06T08:00:00	3	Temperatura mínima	13.4
35396	7	Sololá	701	Sololá	3	Barraneche	7	Julio	2023-04-07T00:00:00	2024-11-06T08:00:00	5	Humedad	81
35397	7	Sololá	701	Sololá	3	Barraneche	7	Julio	2023-04-07T00:00:00	2024-11-06T08:00:00	6	Velocidad del viento	1.6
35398	7	Sololá	701	Sololá	3	Barraneche	7	Julio	2023-04-07T00:00:00	2024-11-06T08:00:00	7	Dirección del viento	1.61
35399	7	Sololá	701	Sololá	3	Barraneche	7	Julio	2023-04-07T00:00:00	2024-11-06T08:00:00	1	Precipitación	0
35400	7	Sololá	701	Sololá	3	Barraneche	7	Julio	2023-04-07T00:00:00	2024-11-06T08:00:00	8	Radiación solar	113
35401	7	Sololá	701	Sololá	3	Barraneche	7	Julio	2023-04-07T00:00:00	2024-11-06T09:00:00	2	Temperatura media	14.8
35402	7	Sololá	701	Sololá	3	Barraneche	7	Julio	2023-04-07T00:00:00	2024-11-06T09:00:00	4	Temperatura máxima	14.9
35403	7	Sololá	701	Sololá	3	Barraneche	7	Julio	2023-04-07T00:00:00	2024-11-06T09:00:00	3	Temperatura mínima	14
35404	7	Sololá	701	Sololá	3	Barraneche	7	Julio	2023-04-07T00:00:00	2024-11-06T09:00:00	5	Humedad	79
35405	7	Sololá	701	Sololá	3	Barraneche	7	Julio	2023-04-07T00:00:00	2024-11-06T09:00:00	6	Velocidad del viento	1.6
35406	7	Sololá	701	Sololá	3	Barraneche	7	Julio	2023-04-07T00:00:00	2024-11-06T09:00:00	7	Dirección del viento	1.61
35407	7	Sololá	701	Sololá	3	Barraneche	7	Julio	2023-04-07T00:00:00	2024-11-06T09:00:00	1	Precipitación	0
35408	7	Sololá	701	Sololá	3	Barraneche	7	Julio	2023-04-07T00:00:00	2024-11-06T09:00:00	8	Radiación solar	232
35409	7	Sololá	701	Sololá	3	Barraneche	7	Julio	2023-04-07T00:00:00	2024-11-06T10:00:00	2	Temperatura media	17.1
35410	7	Sololá	701	Sololá	3	Barraneche	7	Julio	2023-04-07T00:00:00	2024-11-06T10:00:00	4	Temperatura máxima	17.1
35411	7	Sololá	701	Sololá	3	Barraneche	7	Julio	2023-04-07T00:00:00	2024-11-06T10:00:00	3	Temperatura mínima	14.8
35412	7	Sololá	701	Sololá	3	Barraneche	7	Julio	2023-04-07T00:00:00	2024-11-06T10:00:00	5	Humedad	74
35413	7	Sololá	701	Sololá	3	Barraneche	7	Julio	2023-04-07T00:00:00	2024-11-06T10:00:00	6	Velocidad del viento	3.2
35414	7	Sololá	701	Sololá	3	Barraneche	7	Julio	2023-04-07T00:00:00	2024-11-06T10:00:00	7	Dirección del viento	3.22
35415	7	Sololá	701	Sololá	3	Barraneche	7	Julio	2023-04-07T00:00:00	2024-11-06T10:00:00	1	Precipitación	0
35416	7	Sololá	701	Sololá	3	Barraneche	7	Julio	2023-04-07T00:00:00	2024-11-06T10:00:00	8	Radiación solar	481
35417	7	Sololá	701	Sololá	3	Barraneche	7	Julio	2023-04-07T00:00:00	2024-11-06T11:00:00	2	Temperatura media	18.1
35418	7	Sololá	701	Sololá	3	Barraneche	7	Julio	2023-04-07T00:00:00	2024-11-06T11:00:00	4	Temperatura máxima	18.2
35419	7	Sololá	701	Sololá	3	Barraneche	7	Julio	2023-04-07T00:00:00	2024-11-06T11:00:00	3	Temperatura mínima	16.9
35420	7	Sololá	701	Sololá	3	Barraneche	7	Julio	2023-04-07T00:00:00	2024-11-06T11:00:00	5	Humedad	64
35421	7	Sololá	701	Sololá	3	Barraneche	7	Julio	2023-04-07T00:00:00	2024-11-06T11:00:00	6	Velocidad del viento	4.8
35422	7	Sololá	701	Sololá	3	Barraneche	7	Julio	2023-04-07T00:00:00	2024-11-06T11:00:00	7	Dirección del viento	4.83
35423	7	Sololá	701	Sololá	3	Barraneche	7	Julio	2023-04-07T00:00:00	2024-11-06T11:00:00	1	Precipitación	0
35424	7	Sololá	701	Sololá	3	Barraneche	7	Julio	2023-04-07T00:00:00	2024-11-06T11:00:00	8	Radiación solar	528
35425	7	Sololá	701	Sololá	3	Barraneche	7	Julio	2023-04-07T00:00:00	2024-11-06T12:00:00	2	Temperatura media	17.9
35426	7	Sololá	701	Sololá	3	Barraneche	7	Julio	2023-04-07T00:00:00	2024-11-06T12:00:00	4	Temperatura máxima	18.2
35427	7	Sololá	701	Sololá	3	Barraneche	7	Julio	2023-04-07T00:00:00	2024-11-06T12:00:00	3	Temperatura mínima	16.6
35428	7	Sololá	701	Sololá	3	Barraneche	7	Julio	2023-04-07T00:00:00	2024-11-06T12:00:00	5	Humedad	70
35429	7	Sololá	701	Sololá	3	Barraneche	7	Julio	2023-04-07T00:00:00	2024-11-06T12:00:00	6	Velocidad del viento	8
35430	7	Sololá	701	Sololá	3	Barraneche	7	Julio	2023-04-07T00:00:00	2024-11-06T12:00:00	7	Dirección del viento	8.05
35431	7	Sololá	701	Sololá	3	Barraneche	7	Julio	2023-04-07T00:00:00	2024-11-06T12:00:00	1	Precipitación	0
35432	7	Sololá	701	Sololá	3	Barraneche	7	Julio	2023-04-07T00:00:00	2024-11-06T12:00:00	8	Radiación solar	451
35433	7	Sololá	701	Sololá	3	Barraneche	7	Julio	2023-04-07T00:00:00	2024-11-06T13:00:00	2	Temperatura media	17.2
35434	7	Sololá	701	Sololá	3	Barraneche	7	Julio	2023-04-07T00:00:00	2024-11-06T13:00:00	4	Temperatura máxima	18.4
35435	7	Sololá	701	Sololá	3	Barraneche	7	Julio	2023-04-07T00:00:00	2024-11-06T13:00:00	3	Temperatura mínima	16.9
35436	7	Sololá	701	Sololá	3	Barraneche	7	Julio	2023-04-07T00:00:00	2024-11-06T13:00:00	5	Humedad	74
35437	7	Sololá	701	Sololá	3	Barraneche	7	Julio	2023-04-07T00:00:00	2024-11-06T13:00:00	6	Velocidad del viento	11.3
35438	7	Sololá	701	Sololá	3	Barraneche	7	Julio	2023-04-07T00:00:00	2024-11-06T13:00:00	7	Dirección del viento	11.27
35439	7	Sololá	701	Sololá	3	Barraneche	7	Julio	2023-04-07T00:00:00	2024-11-06T13:00:00	1	Precipitación	0
35440	7	Sololá	701	Sololá	3	Barraneche	7	Julio	2023-04-07T00:00:00	2024-11-06T13:00:00	8	Radiación solar	554
35441	7	Sololá	701	Sololá	3	Barraneche	7	Julio	2023-04-07T00:00:00	2024-11-06T14:00:00	2	Temperatura media	18.5
35442	7	Sololá	701	Sololá	3	Barraneche	7	Julio	2023-04-07T00:00:00	2024-11-06T14:00:00	4	Temperatura máxima	18.9
35443	7	Sololá	701	Sololá	3	Barraneche	7	Julio	2023-04-07T00:00:00	2024-11-06T14:00:00	3	Temperatura mínima	17.2
35444	7	Sololá	701	Sololá	3	Barraneche	7	Julio	2023-04-07T00:00:00	2024-11-06T14:00:00	5	Humedad	72
35445	7	Sololá	701	Sololá	3	Barraneche	7	Julio	2023-04-07T00:00:00	2024-11-06T14:00:00	6	Velocidad del viento	8
35446	7	Sololá	701	Sololá	3	Barraneche	7	Julio	2023-04-07T00:00:00	2024-11-06T14:00:00	7	Dirección del viento	8.05
35447	7	Sololá	701	Sololá	3	Barraneche	7	Julio	2023-04-07T00:00:00	2024-11-06T14:00:00	1	Precipitación	0
35448	7	Sololá	701	Sololá	3	Barraneche	7	Julio	2023-04-07T00:00:00	2024-11-06T14:00:00	8	Radiación solar	920
35449	7	Sololá	701	Sololá	3	Barraneche	7	Julio	2023-04-07T00:00:00	2024-11-06T15:00:00	2	Temperatura media	16.2
35450	7	Sololá	701	Sololá	3	Barraneche	7	Julio	2023-04-07T00:00:00	2024-11-06T15:00:00	4	Temperatura máxima	18.9
35451	7	Sololá	701	Sololá	3	Barraneche	7	Julio	2023-04-07T00:00:00	2024-11-06T15:00:00	3	Temperatura mínima	16.2
35452	7	Sololá	701	Sololá	3	Barraneche	7	Julio	2023-04-07T00:00:00	2024-11-06T15:00:00	5	Humedad	79
35453	7	Sololá	701	Sololá	3	Barraneche	7	Julio	2023-04-07T00:00:00	2024-11-06T15:00:00	6	Velocidad del viento	11.3
35454	7	Sololá	701	Sololá	3	Barraneche	7	Julio	2023-04-07T00:00:00	2024-11-06T15:00:00	7	Dirección del viento	11.27
35455	7	Sololá	701	Sololá	3	Barraneche	7	Julio	2023-04-07T00:00:00	2024-11-06T15:00:00	1	Precipitación	0.2
35456	7	Sololá	701	Sololá	3	Barraneche	7	Julio	2023-04-07T00:00:00	2024-11-06T15:00:00	8	Radiación solar	262
35457	7	Sololá	701	Sololá	3	Barraneche	7	Julio	2023-04-07T00:00:00	2024-11-06T16:00:00	2	Temperatura media	15.2
35458	7	Sololá	701	Sololá	3	Barraneche	7	Julio	2023-04-07T00:00:00	2024-11-06T16:00:00	4	Temperatura máxima	16.2
35459	7	Sololá	701	Sololá	3	Barraneche	7	Julio	2023-04-07T00:00:00	2024-11-06T16:00:00	3	Temperatura mínima	15.1
35460	7	Sololá	701	Sololá	3	Barraneche	7	Julio	2023-04-07T00:00:00	2024-11-06T16:00:00	5	Humedad	81
35461	7	Sololá	701	Sololá	3	Barraneche	7	Julio	2023-04-07T00:00:00	2024-11-06T16:00:00	6	Velocidad del viento	3.2
35462	7	Sololá	701	Sololá	3	Barraneche	7	Julio	2023-04-07T00:00:00	2024-11-06T16:00:00	7	Dirección del viento	3.22
35463	7	Sololá	701	Sololá	3	Barraneche	7	Julio	2023-04-07T00:00:00	2024-11-06T16:00:00	1	Precipitación	6.6
35464	7	Sololá	701	Sololá	3	Barraneche	7	Julio	2023-04-07T00:00:00	2024-11-06T16:00:00	8	Radiación solar	71
35465	7	Sololá	701	Sololá	3	Barraneche	7	Julio	2023-04-07T00:00:00	2024-11-06T17:00:00	2	Temperatura media	16.1
35466	7	Sololá	701	Sololá	3	Barraneche	7	Julio	2023-04-07T00:00:00	2024-11-06T17:00:00	4	Temperatura máxima	16.1
35467	7	Sololá	701	Sololá	3	Barraneche	7	Julio	2023-04-07T00:00:00	2024-11-06T17:00:00	3	Temperatura mínima	15.1
35468	7	Sololá	701	Sololá	3	Barraneche	7	Julio	2023-04-07T00:00:00	2024-11-06T17:00:00	5	Humedad	79
35469	7	Sololá	701	Sololá	3	Barraneche	7	Julio	2023-04-07T00:00:00	2024-11-06T17:00:00	6	Velocidad del viento	1.6
35470	7	Sololá	701	Sololá	3	Barraneche	7	Julio	2023-04-07T00:00:00	2024-11-06T17:00:00	7	Dirección del viento	1.61
35471	7	Sololá	701	Sololá	3	Barraneche	7	Julio	2023-04-07T00:00:00	2024-11-06T17:00:00	1	Precipitación	0.6
35472	7	Sololá	701	Sololá	3	Barraneche	7	Julio	2023-04-07T00:00:00	2024-11-06T17:00:00	8	Radiación solar	147
35473	7	Sololá	701	Sololá	3	Barraneche	7	Julio	2023-04-07T00:00:00	2024-11-06T18:00:00	2	Temperatura media	15.4
35474	7	Sololá	701	Sololá	3	Barraneche	7	Julio	2023-04-07T00:00:00	2024-11-06T18:00:00	4	Temperatura máxima	16.2
35475	7	Sololá	701	Sololá	3	Barraneche	7	Julio	2023-04-07T00:00:00	2024-11-06T18:00:00	3	Temperatura mínima	15.3
35476	7	Sololá	701	Sololá	3	Barraneche	7	Julio	2023-04-07T00:00:00	2024-11-06T18:00:00	5	Humedad	80
35477	7	Sololá	701	Sololá	3	Barraneche	7	Julio	2023-04-07T00:00:00	2024-11-06T18:00:00	6	Velocidad del viento	3.2
35478	7	Sololá	701	Sololá	3	Barraneche	7	Julio	2023-04-07T00:00:00	2024-11-06T18:00:00	7	Dirección del viento	3.22
35479	7	Sololá	701	Sololá	3	Barraneche	7	Julio	2023-04-07T00:00:00	2024-11-06T18:00:00	1	Precipitación	0
35480	7	Sololá	701	Sololá	3	Barraneche	7	Julio	2023-04-07T00:00:00	2024-11-06T18:00:00	8	Radiación solar	44
35481	7	Sololá	701	Sololá	3	Barraneche	7	Julio	2023-04-07T00:00:00	2024-11-06T19:00:00	2	Temperatura media	14.7
35482	7	Sololá	701	Sololá	3	Barraneche	7	Julio	2023-04-07T00:00:00	2024-11-06T19:00:00	4	Temperatura máxima	15.7
35483	7	Sololá	701	Sololá	3	Barraneche	7	Julio	2023-04-07T00:00:00	2024-11-06T19:00:00	3	Temperatura mínima	14.7
35484	7	Sololá	701	Sololá	3	Barraneche	7	Julio	2023-04-07T00:00:00	2024-11-06T19:00:00	5	Humedad	84
35485	7	Sololá	701	Sololá	3	Barraneche	7	Julio	2023-04-07T00:00:00	2024-11-06T19:00:00	6	Velocidad del viento	3.2
35486	7	Sololá	701	Sololá	3	Barraneche	7	Julio	2023-04-07T00:00:00	2024-11-06T19:00:00	7	Dirección del viento	3.22
35487	7	Sololá	701	Sololá	3	Barraneche	7	Julio	2023-04-07T00:00:00	2024-11-06T19:00:00	1	Precipitación	2
35488	7	Sololá	701	Sololá	3	Barraneche	7	Julio	2023-04-07T00:00:00	2024-11-06T19:00:00	8	Radiación solar	0
35489	7	Sololá	701	Sololá	3	Barraneche	7	Julio	2023-04-07T00:00:00	2024-11-06T20:00:00	2	Temperatura media	14.3
35490	7	Sololá	701	Sololá	3	Barraneche	7	Julio	2023-04-07T00:00:00	2024-11-06T20:00:00	4	Temperatura máxima	14.8
35491	7	Sololá	701	Sololá	3	Barraneche	7	Julio	2023-04-07T00:00:00	2024-11-06T20:00:00	3	Temperatura mínima	14.3
35492	7	Sololá	701	Sololá	3	Barraneche	7	Julio	2023-04-07T00:00:00	2024-11-06T20:00:00	5	Humedad	81
35493	7	Sololá	701	Sololá	3	Barraneche	7	Julio	2023-04-07T00:00:00	2024-11-06T20:00:00	6	Velocidad del viento	4.8
35494	7	Sololá	701	Sololá	3	Barraneche	7	Julio	2023-04-07T00:00:00	2024-11-06T20:00:00	7	Dirección del viento	4.83
35495	7	Sololá	701	Sololá	3	Barraneche	7	Julio	2023-04-07T00:00:00	2024-11-06T20:00:00	1	Precipitación	0
35496	7	Sololá	701	Sololá	3	Barraneche	7	Julio	2023-04-07T00:00:00	2024-11-06T20:00:00	8	Radiación solar	0
35497	7	Sololá	701	Sololá	3	Barraneche	7	Julio	2023-04-07T00:00:00	2024-11-06T21:00:00	2	Temperatura media	13.9
35498	7	Sololá	701	Sololá	3	Barraneche	7	Julio	2023-04-07T00:00:00	2024-11-06T21:00:00	4	Temperatura máxima	14.3
35499	7	Sololá	701	Sololá	3	Barraneche	7	Julio	2023-04-07T00:00:00	2024-11-06T21:00:00	3	Temperatura mínima	13.8
35500	7	Sololá	701	Sololá	3	Barraneche	7	Julio	2023-04-07T00:00:00	2024-11-06T21:00:00	5	Humedad	83
35501	7	Sololá	701	Sololá	3	Barraneche	7	Julio	2023-04-07T00:00:00	2024-11-06T21:00:00	6	Velocidad del viento	1.6
35502	7	Sololá	701	Sololá	3	Barraneche	7	Julio	2023-04-07T00:00:00	2024-11-06T21:00:00	7	Dirección del viento	1.61
35503	7	Sololá	701	Sololá	3	Barraneche	7	Julio	2023-04-07T00:00:00	2024-11-06T21:00:00	1	Precipitación	0.4
35504	7	Sololá	701	Sololá	3	Barraneche	7	Julio	2023-04-07T00:00:00	2024-11-06T21:00:00	8	Radiación solar	0
35505	7	Sololá	701	Sololá	3	Barraneche	7	Julio	2023-04-07T00:00:00	2024-11-06T22:00:00	2	Temperatura media	14.1
35506	7	Sololá	701	Sololá	3	Barraneche	7	Julio	2023-04-07T00:00:00	2024-11-06T22:00:00	4	Temperatura máxima	14.1
35507	7	Sololá	701	Sololá	3	Barraneche	7	Julio	2023-04-07T00:00:00	2024-11-06T22:00:00	3	Temperatura mínima	13.8
35508	7	Sololá	701	Sololá	3	Barraneche	7	Julio	2023-04-07T00:00:00	2024-11-06T22:00:00	5	Humedad	84
35509	7	Sololá	701	Sololá	3	Barraneche	7	Julio	2023-04-07T00:00:00	2024-11-06T22:00:00	6	Velocidad del viento	1.6
35510	7	Sololá	701	Sololá	3	Barraneche	7	Julio	2023-04-07T00:00:00	2024-11-06T22:00:00	7	Dirección del viento	1.61
35511	7	Sololá	701	Sololá	3	Barraneche	7	Julio	2023-04-07T00:00:00	2024-11-06T22:00:00	1	Precipitación	1.8
35512	7	Sololá	701	Sololá	3	Barraneche	7	Julio	2023-04-07T00:00:00	2024-11-06T22:00:00	8	Radiación solar	0
35513	7	Sololá	701	Sololá	3	Barraneche	7	Julio	2023-04-07T00:00:00	2024-11-06T23:00:00	2	Temperatura media	13.6
35514	7	Sololá	701	Sololá	3	Barraneche	7	Julio	2023-04-07T00:00:00	2024-11-06T23:00:00	4	Temperatura máxima	14.1
35515	7	Sololá	701	Sololá	3	Barraneche	7	Julio	2023-04-07T00:00:00	2024-11-06T23:00:00	3	Temperatura mínima	13.6
35516	7	Sololá	701	Sololá	3	Barraneche	7	Julio	2023-04-07T00:00:00	2024-11-06T23:00:00	5	Humedad	84
35517	7	Sololá	701	Sololá	3	Barraneche	7	Julio	2023-04-07T00:00:00	2024-11-06T23:00:00	6	Velocidad del viento	1.6
35518	7	Sololá	701	Sololá	3	Barraneche	7	Julio	2023-04-07T00:00:00	2024-11-06T23:00:00	7	Dirección del viento	1.61
35519	7	Sololá	701	Sololá	3	Barraneche	7	Julio	2023-04-07T00:00:00	2024-11-06T23:00:00	1	Precipitación	2.4
35520	7	Sololá	701	Sololá	3	Barraneche	7	Julio	2023-04-07T00:00:00	2024-11-06T23:00:00	8	Radiación solar	0
35521	7	Sololá	701	Sololá	3	Barraneche	7	Julio	2023-05-07T00:00:00	2024-11-06T00:00:00	2	Temperatura media	13.3
35522	7	Sololá	701	Sololá	3	Barraneche	7	Julio	2023-05-07T00:00:00	2024-11-06T00:00:00	4	Temperatura máxima	13.7
35523	7	Sololá	701	Sololá	3	Barraneche	7	Julio	2023-05-07T00:00:00	2024-11-06T00:00:00	3	Temperatura mínima	13.3
35524	7	Sololá	701	Sololá	3	Barraneche	7	Julio	2023-05-07T00:00:00	2024-11-06T00:00:00	5	Humedad	84
35525	7	Sololá	701	Sololá	3	Barraneche	7	Julio	2023-05-07T00:00:00	2024-11-06T00:00:00	6	Velocidad del viento	0
35526	7	Sololá	701	Sololá	3	Barraneche	7	Julio	2023-05-07T00:00:00	2024-11-06T00:00:00	7	Dirección del viento	0
35527	7	Sololá	701	Sololá	3	Barraneche	7	Julio	2023-05-07T00:00:00	2024-11-06T00:00:00	1	Precipitación	1.8
35528	7	Sololá	701	Sololá	3	Barraneche	7	Julio	2023-05-07T00:00:00	2024-11-06T00:00:00	8	Radiación solar	0
35529	7	Sololá	701	Sololá	3	Barraneche	7	Julio	2023-05-07T00:00:00	2024-11-06T01:00:00	2	Temperatura media	13.4
35530	7	Sololá	701	Sololá	3	Barraneche	7	Julio	2023-05-07T00:00:00	2024-11-06T01:00:00	4	Temperatura máxima	13.6
35531	7	Sololá	701	Sololá	3	Barraneche	7	Julio	2023-05-07T00:00:00	2024-11-06T01:00:00	3	Temperatura mínima	13.3
35532	7	Sololá	701	Sololá	3	Barraneche	7	Julio	2023-05-07T00:00:00	2024-11-06T01:00:00	5	Humedad	85
35533	7	Sololá	701	Sololá	3	Barraneche	7	Julio	2023-05-07T00:00:00	2024-11-06T01:00:00	6	Velocidad del viento	1.6
35534	7	Sololá	701	Sololá	3	Barraneche	7	Julio	2023-05-07T00:00:00	2024-11-06T01:00:00	7	Dirección del viento	1.61
35535	7	Sololá	701	Sololá	3	Barraneche	7	Julio	2023-05-07T00:00:00	2024-11-06T01:00:00	1	Precipitación	0.8
35536	7	Sololá	701	Sololá	3	Barraneche	7	Julio	2023-05-07T00:00:00	2024-11-06T01:00:00	8	Radiación solar	0
35537	7	Sololá	701	Sololá	3	Barraneche	7	Julio	2023-05-07T00:00:00	2024-11-06T02:00:00	2	Temperatura media	13.1
35538	7	Sololá	701	Sololá	3	Barraneche	7	Julio	2023-05-07T00:00:00	2024-11-06T02:00:00	4	Temperatura máxima	13.5
35539	7	Sololá	701	Sololá	3	Barraneche	7	Julio	2023-05-07T00:00:00	2024-11-06T02:00:00	3	Temperatura mínima	13.1
35540	7	Sololá	701	Sololá	3	Barraneche	7	Julio	2023-05-07T00:00:00	2024-11-06T02:00:00	5	Humedad	85
35541	7	Sololá	701	Sololá	3	Barraneche	7	Julio	2023-05-07T00:00:00	2024-11-06T02:00:00	6	Velocidad del viento	1.6
35542	7	Sololá	701	Sololá	3	Barraneche	7	Julio	2023-05-07T00:00:00	2024-11-06T02:00:00	7	Dirección del viento	1.61
35543	7	Sololá	701	Sololá	3	Barraneche	7	Julio	2023-05-07T00:00:00	2024-11-06T02:00:00	1	Precipitación	0
35544	7	Sololá	701	Sololá	3	Barraneche	7	Julio	2023-05-07T00:00:00	2024-11-06T02:00:00	8	Radiación solar	0
35545	7	Sololá	701	Sololá	3	Barraneche	7	Julio	2023-05-07T00:00:00	2024-11-06T03:00:00	2	Temperatura media	13
35546	7	Sololá	701	Sololá	3	Barraneche	7	Julio	2023-05-07T00:00:00	2024-11-06T03:00:00	4	Temperatura máxima	13.2
35547	7	Sololá	701	Sololá	3	Barraneche	7	Julio	2023-05-07T00:00:00	2024-11-06T03:00:00	3	Temperatura mínima	12.9
35548	7	Sololá	701	Sololá	3	Barraneche	7	Julio	2023-05-07T00:00:00	2024-11-06T03:00:00	5	Humedad	83
35549	7	Sololá	701	Sololá	3	Barraneche	7	Julio	2023-05-07T00:00:00	2024-11-06T03:00:00	6	Velocidad del viento	3.2
35550	7	Sololá	701	Sololá	3	Barraneche	7	Julio	2023-05-07T00:00:00	2024-11-06T03:00:00	7	Dirección del viento	3.22
35551	7	Sololá	701	Sololá	3	Barraneche	7	Julio	2023-05-07T00:00:00	2024-11-06T03:00:00	1	Precipitación	0
35552	7	Sololá	701	Sololá	3	Barraneche	7	Julio	2023-05-07T00:00:00	2024-11-06T03:00:00	8	Radiación solar	0
35553	7	Sololá	701	Sololá	3	Barraneche	7	Julio	2023-05-07T00:00:00	2024-11-06T04:00:00	2	Temperatura media	12.1
35554	7	Sololá	701	Sololá	3	Barraneche	7	Julio	2023-05-07T00:00:00	2024-11-06T04:00:00	4	Temperatura máxima	13
35555	7	Sololá	701	Sololá	3	Barraneche	7	Julio	2023-05-07T00:00:00	2024-11-06T04:00:00	3	Temperatura mínima	12.1
35556	7	Sololá	701	Sololá	3	Barraneche	7	Julio	2023-05-07T00:00:00	2024-11-06T04:00:00	5	Humedad	82
35557	7	Sololá	701	Sololá	3	Barraneche	7	Julio	2023-05-07T00:00:00	2024-11-06T04:00:00	6	Velocidad del viento	3.2
35558	7	Sololá	701	Sololá	3	Barraneche	7	Julio	2023-05-07T00:00:00	2024-11-06T04:00:00	7	Dirección del viento	3.22
35559	7	Sololá	701	Sololá	3	Barraneche	7	Julio	2023-05-07T00:00:00	2024-11-06T04:00:00	1	Precipitación	0
35560	7	Sololá	701	Sololá	3	Barraneche	7	Julio	2023-05-07T00:00:00	2024-11-06T04:00:00	8	Radiación solar	0
35561	7	Sololá	701	Sololá	3	Barraneche	7	Julio	2023-05-07T00:00:00	2024-11-06T05:00:00	2	Temperatura media	11.8
35562	7	Sololá	701	Sololá	3	Barraneche	7	Julio	2023-05-07T00:00:00	2024-11-06T05:00:00	4	Temperatura máxima	12.1
35563	7	Sololá	701	Sololá	3	Barraneche	7	Julio	2023-05-07T00:00:00	2024-11-06T05:00:00	3	Temperatura mínima	11.7
35564	7	Sololá	701	Sololá	3	Barraneche	7	Julio	2023-05-07T00:00:00	2024-11-06T05:00:00	5	Humedad	83
35565	7	Sololá	701	Sololá	3	Barraneche	7	Julio	2023-05-07T00:00:00	2024-11-06T05:00:00	6	Velocidad del viento	4.8
35566	7	Sololá	701	Sololá	3	Barraneche	7	Julio	2023-05-07T00:00:00	2024-11-06T05:00:00	7	Dirección del viento	4.83
35567	7	Sololá	701	Sololá	3	Barraneche	7	Julio	2023-05-07T00:00:00	2024-11-06T05:00:00	1	Precipitación	0.2
35568	7	Sololá	701	Sololá	3	Barraneche	7	Julio	2023-05-07T00:00:00	2024-11-06T05:00:00	8	Radiación solar	0
35569	7	Sololá	701	Sololá	3	Barraneche	7	Julio	2023-05-07T00:00:00	2024-11-06T06:00:00	2	Temperatura media	12.1
35570	7	Sololá	701	Sololá	3	Barraneche	7	Julio	2023-05-07T00:00:00	2024-11-06T06:00:00	4	Temperatura máxima	12.1
35571	7	Sololá	701	Sololá	3	Barraneche	7	Julio	2023-05-07T00:00:00	2024-11-06T06:00:00	3	Temperatura mínima	11.8
35572	7	Sololá	701	Sololá	3	Barraneche	7	Julio	2023-05-07T00:00:00	2024-11-06T06:00:00	5	Humedad	81
35573	7	Sololá	701	Sololá	3	Barraneche	7	Julio	2023-05-07T00:00:00	2024-11-06T06:00:00	6	Velocidad del viento	4.8
35574	7	Sololá	701	Sololá	3	Barraneche	7	Julio	2023-05-07T00:00:00	2024-11-06T06:00:00	7	Dirección del viento	4.83
35575	7	Sololá	701	Sololá	3	Barraneche	7	Julio	2023-05-07T00:00:00	2024-11-06T06:00:00	1	Precipitación	0
35576	7	Sololá	701	Sololá	3	Barraneche	7	Julio	2023-05-07T00:00:00	2024-11-06T06:00:00	8	Radiación solar	1
35577	7	Sololá	701	Sololá	3	Barraneche	7	Julio	2023-05-07T00:00:00	2024-11-06T07:00:00	2	Temperatura media	13.2
35578	7	Sololá	701	Sololá	3	Barraneche	7	Julio	2023-05-07T00:00:00	2024-11-06T07:00:00	4	Temperatura máxima	13.2
35579	7	Sololá	701	Sololá	3	Barraneche	7	Julio	2023-05-07T00:00:00	2024-11-06T07:00:00	3	Temperatura mínima	12
35580	7	Sololá	701	Sololá	3	Barraneche	7	Julio	2023-05-07T00:00:00	2024-11-06T07:00:00	5	Humedad	80
35581	7	Sololá	701	Sololá	3	Barraneche	7	Julio	2023-05-07T00:00:00	2024-11-06T07:00:00	6	Velocidad del viento	6.4
35582	7	Sololá	701	Sololá	3	Barraneche	7	Julio	2023-05-07T00:00:00	2024-11-06T07:00:00	7	Dirección del viento	6.44
35583	7	Sololá	701	Sololá	3	Barraneche	7	Julio	2023-05-07T00:00:00	2024-11-06T07:00:00	1	Precipitación	0
35584	7	Sololá	701	Sololá	3	Barraneche	7	Julio	2023-05-07T00:00:00	2024-11-06T07:00:00	8	Radiación solar	81
35585	7	Sololá	701	Sololá	3	Barraneche	7	Julio	2023-05-07T00:00:00	2024-11-06T08:00:00	2	Temperatura media	15.6
35586	7	Sololá	701	Sololá	3	Barraneche	7	Julio	2023-05-07T00:00:00	2024-11-06T08:00:00	4	Temperatura máxima	15.7
35587	7	Sololá	701	Sololá	3	Barraneche	7	Julio	2023-05-07T00:00:00	2024-11-06T08:00:00	3	Temperatura mínima	13.2
35588	7	Sololá	701	Sololá	3	Barraneche	7	Julio	2023-05-07T00:00:00	2024-11-06T08:00:00	5	Humedad	75
35589	7	Sololá	701	Sololá	3	Barraneche	7	Julio	2023-05-07T00:00:00	2024-11-06T08:00:00	6	Velocidad del viento	1.6
35590	7	Sololá	701	Sololá	3	Barraneche	7	Julio	2023-05-07T00:00:00	2024-11-06T08:00:00	7	Dirección del viento	1.61
35591	7	Sololá	701	Sololá	3	Barraneche	7	Julio	2023-05-07T00:00:00	2024-11-06T08:00:00	1	Precipitación	0
35592	7	Sololá	701	Sololá	3	Barraneche	7	Julio	2023-05-07T00:00:00	2024-11-06T08:00:00	8	Radiación solar	334
35593	7	Sololá	701	Sololá	3	Barraneche	7	Julio	2023-05-07T00:00:00	2024-11-06T09:00:00	2	Temperatura media	17
35594	7	Sololá	701	Sololá	3	Barraneche	7	Julio	2023-05-07T00:00:00	2024-11-06T09:00:00	4	Temperatura máxima	17.2
35595	7	Sololá	701	Sololá	3	Barraneche	7	Julio	2023-05-07T00:00:00	2024-11-06T09:00:00	3	Temperatura mínima	15.7
35596	7	Sololá	701	Sololá	3	Barraneche	7	Julio	2023-05-07T00:00:00	2024-11-06T09:00:00	5	Humedad	70
35597	7	Sololá	701	Sololá	3	Barraneche	7	Julio	2023-05-07T00:00:00	2024-11-06T09:00:00	6	Velocidad del viento	3.2
35598	7	Sololá	701	Sololá	3	Barraneche	7	Julio	2023-05-07T00:00:00	2024-11-06T09:00:00	7	Dirección del viento	3.22
35599	7	Sololá	701	Sololá	3	Barraneche	7	Julio	2023-05-07T00:00:00	2024-11-06T09:00:00	1	Precipitación	0
35600	7	Sololá	701	Sololá	3	Barraneche	7	Julio	2023-05-07T00:00:00	2024-11-06T09:00:00	8	Radiación solar	559
35601	7	Sololá	701	Sololá	3	Barraneche	7	Julio	2023-05-07T00:00:00	2024-11-06T10:00:00	2	Temperatura media	18.3
35602	7	Sololá	701	Sololá	3	Barraneche	7	Julio	2023-05-07T00:00:00	2024-11-06T10:00:00	4	Temperatura máxima	18.3
35603	7	Sololá	701	Sololá	3	Barraneche	7	Julio	2023-05-07T00:00:00	2024-11-06T10:00:00	3	Temperatura mínima	16.7
35604	7	Sololá	701	Sololá	3	Barraneche	7	Julio	2023-05-07T00:00:00	2024-11-06T10:00:00	5	Humedad	66
35605	7	Sololá	701	Sololá	3	Barraneche	7	Julio	2023-05-07T00:00:00	2024-11-06T10:00:00	6	Velocidad del viento	8
35606	7	Sololá	701	Sololá	3	Barraneche	7	Julio	2023-05-07T00:00:00	2024-11-06T10:00:00	7	Dirección del viento	8.05
35607	7	Sololá	701	Sololá	3	Barraneche	7	Julio	2023-05-07T00:00:00	2024-11-06T10:00:00	1	Precipitación	0
35608	7	Sololá	701	Sololá	3	Barraneche	7	Julio	2023-05-07T00:00:00	2024-11-06T10:00:00	8	Radiación solar	689
35609	7	Sololá	701	Sololá	3	Barraneche	7	Julio	2023-05-07T00:00:00	2024-11-06T11:00:00	2	Temperatura media	18.4
35610	7	Sololá	701	Sololá	3	Barraneche	7	Julio	2023-05-07T00:00:00	2024-11-06T11:00:00	4	Temperatura máxima	19.1
35611	7	Sololá	701	Sololá	3	Barraneche	7	Julio	2023-05-07T00:00:00	2024-11-06T11:00:00	3	Temperatura mínima	17.8
35612	7	Sololá	701	Sololá	3	Barraneche	7	Julio	2023-05-07T00:00:00	2024-11-06T11:00:00	5	Humedad	70
35613	7	Sololá	701	Sololá	3	Barraneche	7	Julio	2023-05-07T00:00:00	2024-11-06T11:00:00	6	Velocidad del viento	11.3
35614	7	Sololá	701	Sololá	3	Barraneche	7	Julio	2023-05-07T00:00:00	2024-11-06T11:00:00	7	Dirección del viento	11.27
35615	7	Sololá	701	Sololá	3	Barraneche	7	Julio	2023-05-07T00:00:00	2024-11-06T11:00:00	1	Precipitación	0
35616	7	Sololá	701	Sololá	3	Barraneche	7	Julio	2023-05-07T00:00:00	2024-11-06T11:00:00	8	Radiación solar	822
35617	7	Sololá	701	Sololá	3	Barraneche	7	Julio	2023-05-07T00:00:00	2024-11-06T12:00:00	2	Temperatura media	18.9
35618	7	Sololá	701	Sololá	3	Barraneche	7	Julio	2023-05-07T00:00:00	2024-11-06T12:00:00	4	Temperatura máxima	18.9
35619	7	Sololá	701	Sololá	3	Barraneche	7	Julio	2023-05-07T00:00:00	2024-11-06T12:00:00	3	Temperatura mínima	18.1
35620	7	Sololá	701	Sololá	3	Barraneche	7	Julio	2023-05-07T00:00:00	2024-11-06T12:00:00	5	Humedad	69
35621	7	Sololá	701	Sololá	3	Barraneche	7	Julio	2023-05-07T00:00:00	2024-11-06T12:00:00	6	Velocidad del viento	8
35622	7	Sololá	701	Sololá	3	Barraneche	7	Julio	2023-05-07T00:00:00	2024-11-06T12:00:00	7	Dirección del viento	8.05
35623	7	Sololá	701	Sololá	3	Barraneche	7	Julio	2023-05-07T00:00:00	2024-11-06T12:00:00	1	Precipitación	0
35624	7	Sololá	701	Sololá	3	Barraneche	7	Julio	2023-05-07T00:00:00	2024-11-06T12:00:00	8	Radiación solar	503
35625	7	Sololá	701	Sololá	3	Barraneche	7	Julio	2023-05-07T00:00:00	2024-11-06T13:00:00	2	Temperatura media	17.7
35626	7	Sololá	701	Sololá	3	Barraneche	7	Julio	2023-05-07T00:00:00	2024-11-06T13:00:00	4	Temperatura máxima	19.2
35627	7	Sololá	701	Sololá	3	Barraneche	7	Julio	2023-05-07T00:00:00	2024-11-06T13:00:00	3	Temperatura mínima	17.7
35628	7	Sololá	701	Sololá	3	Barraneche	7	Julio	2023-05-07T00:00:00	2024-11-06T13:00:00	5	Humedad	72
35629	7	Sololá	701	Sololá	3	Barraneche	7	Julio	2023-05-07T00:00:00	2024-11-06T13:00:00	6	Velocidad del viento	9.7
35630	7	Sololá	701	Sololá	3	Barraneche	7	Julio	2023-05-07T00:00:00	2024-11-06T13:00:00	7	Dirección del viento	9.66
35631	7	Sololá	701	Sololá	3	Barraneche	7	Julio	2023-05-07T00:00:00	2024-11-06T13:00:00	1	Precipitación	0
35632	7	Sololá	701	Sololá	3	Barraneche	7	Julio	2023-05-07T00:00:00	2024-11-06T13:00:00	8	Radiación solar	247
35633	7	Sololá	701	Sololá	3	Barraneche	7	Julio	2023-05-07T00:00:00	2024-11-06T14:00:00	2	Temperatura media	14.7
35634	7	Sololá	701	Sololá	3	Barraneche	7	Julio	2023-05-07T00:00:00	2024-11-06T14:00:00	4	Temperatura máxima	17.7
35635	7	Sololá	701	Sololá	3	Barraneche	7	Julio	2023-05-07T00:00:00	2024-11-06T14:00:00	3	Temperatura mínima	14.7
35636	7	Sololá	701	Sololá	3	Barraneche	7	Julio	2023-05-07T00:00:00	2024-11-06T14:00:00	5	Humedad	79
35637	7	Sololá	701	Sololá	3	Barraneche	7	Julio	2023-05-07T00:00:00	2024-11-06T14:00:00	6	Velocidad del viento	9.7
35638	7	Sololá	701	Sololá	3	Barraneche	7	Julio	2023-05-07T00:00:00	2024-11-06T14:00:00	7	Dirección del viento	9.66
35639	7	Sololá	701	Sololá	3	Barraneche	7	Julio	2023-05-07T00:00:00	2024-11-06T14:00:00	1	Precipitación	18
35640	7	Sololá	701	Sololá	3	Barraneche	7	Julio	2023-05-07T00:00:00	2024-11-06T14:00:00	8	Radiación solar	115
35641	7	Sololá	701	Sololá	3	Barraneche	7	Julio	2023-05-07T00:00:00	2024-11-06T15:00:00	2	Temperatura media	15.8
35642	7	Sololá	701	Sololá	3	Barraneche	7	Julio	2023-05-07T00:00:00	2024-11-06T15:00:00	4	Temperatura máxima	15.9
35643	7	Sololá	701	Sololá	3	Barraneche	7	Julio	2023-05-07T00:00:00	2024-11-06T15:00:00	3	Temperatura mínima	14.7
35644	7	Sololá	701	Sololá	3	Barraneche	7	Julio	2023-05-07T00:00:00	2024-11-06T15:00:00	5	Humedad	83
35645	7	Sololá	701	Sololá	3	Barraneche	7	Julio	2023-05-07T00:00:00	2024-11-06T15:00:00	6	Velocidad del viento	4.8
35646	7	Sololá	701	Sololá	3	Barraneche	7	Julio	2023-05-07T00:00:00	2024-11-06T15:00:00	7	Dirección del viento	4.83
35647	7	Sololá	701	Sololá	3	Barraneche	7	Julio	2023-05-07T00:00:00	2024-11-06T15:00:00	1	Precipitación	0.2
35648	7	Sololá	701	Sololá	3	Barraneche	7	Julio	2023-05-07T00:00:00	2024-11-06T15:00:00	8	Radiación solar	68
35649	7	Sololá	701	Sololá	3	Barraneche	7	Julio	2023-05-07T00:00:00	2024-11-06T16:00:00	2	Temperatura media	18.5
35650	7	Sololá	701	Sololá	3	Barraneche	7	Julio	2023-05-07T00:00:00	2024-11-06T16:00:00	4	Temperatura máxima	18.7
35651	7	Sololá	701	Sololá	3	Barraneche	7	Julio	2023-05-07T00:00:00	2024-11-06T16:00:00	3	Temperatura mínima	15.8
35652	7	Sololá	701	Sololá	3	Barraneche	7	Julio	2023-05-07T00:00:00	2024-11-06T16:00:00	5	Humedad	64
35653	7	Sololá	701	Sololá	3	Barraneche	7	Julio	2023-05-07T00:00:00	2024-11-06T16:00:00	6	Velocidad del viento	8
35654	7	Sololá	701	Sololá	3	Barraneche	7	Julio	2023-05-07T00:00:00	2024-11-06T16:00:00	7	Dirección del viento	8.05
35655	7	Sololá	701	Sololá	3	Barraneche	7	Julio	2023-05-07T00:00:00	2024-11-06T16:00:00	1	Precipitación	0
35656	7	Sololá	701	Sololá	3	Barraneche	7	Julio	2023-05-07T00:00:00	2024-11-06T16:00:00	8	Radiación solar	550
35657	7	Sololá	701	Sololá	3	Barraneche	7	Julio	2023-05-07T00:00:00	2024-11-06T17:00:00	2	Temperatura media	16.9
35658	7	Sololá	701	Sololá	3	Barraneche	7	Julio	2023-05-07T00:00:00	2024-11-06T17:00:00	4	Temperatura máxima	18.8
35659	7	Sololá	701	Sololá	3	Barraneche	7	Julio	2023-05-07T00:00:00	2024-11-06T17:00:00	3	Temperatura mínima	16.9
35660	7	Sololá	701	Sololá	3	Barraneche	7	Julio	2023-05-07T00:00:00	2024-11-06T17:00:00	5	Humedad	78
35661	7	Sololá	701	Sololá	3	Barraneche	7	Julio	2023-05-07T00:00:00	2024-11-06T17:00:00	6	Velocidad del viento	9.7
35662	7	Sololá	701	Sololá	3	Barraneche	7	Julio	2023-05-07T00:00:00	2024-11-06T17:00:00	7	Dirección del viento	9.66
35663	7	Sololá	701	Sololá	3	Barraneche	7	Julio	2023-05-07T00:00:00	2024-11-06T17:00:00	1	Precipitación	0
35664	7	Sololá	701	Sololá	3	Barraneche	7	Julio	2023-05-07T00:00:00	2024-11-06T17:00:00	8	Radiación solar	336
35665	7	Sololá	701	Sololá	3	Barraneche	7	Julio	2023-05-07T00:00:00	2024-11-06T18:00:00	2	Temperatura media	15.8
35666	7	Sololá	701	Sololá	3	Barraneche	7	Julio	2023-05-07T00:00:00	2024-11-06T18:00:00	4	Temperatura máxima	16.9
35667	7	Sololá	701	Sololá	3	Barraneche	7	Julio	2023-05-07T00:00:00	2024-11-06T18:00:00	3	Temperatura mínima	15.8
35668	7	Sololá	701	Sololá	3	Barraneche	7	Julio	2023-05-07T00:00:00	2024-11-06T18:00:00	5	Humedad	52
35669	7	Sololá	701	Sololá	3	Barraneche	7	Julio	2023-05-07T00:00:00	2024-11-06T18:00:00	6	Velocidad del viento	9.7
35670	7	Sololá	701	Sololá	3	Barraneche	7	Julio	2023-05-07T00:00:00	2024-11-06T18:00:00	7	Dirección del viento	9.66
35671	7	Sololá	701	Sololá	3	Barraneche	7	Julio	2023-05-07T00:00:00	2024-11-06T18:00:00	1	Precipitación	0
35672	7	Sololá	701	Sololá	3	Barraneche	7	Julio	2023-05-07T00:00:00	2024-11-06T18:00:00	8	Radiación solar	105
35673	7	Sololá	701	Sololá	3	Barraneche	7	Julio	2023-05-07T00:00:00	2024-11-06T19:00:00	2	Temperatura media	12.4
35674	7	Sololá	701	Sololá	3	Barraneche	7	Julio	2023-05-07T00:00:00	2024-11-06T19:00:00	4	Temperatura máxima	15.7
35675	7	Sololá	701	Sololá	3	Barraneche	7	Julio	2023-05-07T00:00:00	2024-11-06T19:00:00	3	Temperatura mínima	12.4
35676	7	Sololá	701	Sololá	3	Barraneche	7	Julio	2023-05-07T00:00:00	2024-11-06T19:00:00	5	Humedad	64
35677	7	Sololá	701	Sololá	3	Barraneche	7	Julio	2023-05-07T00:00:00	2024-11-06T19:00:00	6	Velocidad del viento	6.4
35678	7	Sololá	701	Sololá	3	Barraneche	7	Julio	2023-05-07T00:00:00	2024-11-06T19:00:00	7	Dirección del viento	6.44
35679	7	Sololá	701	Sololá	3	Barraneche	7	Julio	2023-05-07T00:00:00	2024-11-06T19:00:00	1	Precipitación	0
35680	7	Sololá	701	Sololá	3	Barraneche	7	Julio	2023-05-07T00:00:00	2024-11-06T19:00:00	8	Radiación solar	0
35681	7	Sololá	701	Sololá	3	Barraneche	7	Julio	2023-05-07T00:00:00	2024-11-06T20:00:00	2	Temperatura media	13.3
35682	7	Sololá	701	Sololá	3	Barraneche	7	Julio	2023-05-07T00:00:00	2024-11-06T20:00:00	4	Temperatura máxima	13.6
35683	7	Sololá	701	Sololá	3	Barraneche	7	Julio	2023-05-07T00:00:00	2024-11-06T20:00:00	3	Temperatura mínima	12.1
35684	7	Sololá	701	Sololá	3	Barraneche	7	Julio	2023-05-07T00:00:00	2024-11-06T20:00:00	5	Humedad	61
35685	7	Sololá	701	Sololá	3	Barraneche	7	Julio	2023-05-07T00:00:00	2024-11-06T20:00:00	6	Velocidad del viento	4.8
35686	7	Sololá	701	Sololá	3	Barraneche	7	Julio	2023-05-07T00:00:00	2024-11-06T20:00:00	7	Dirección del viento	4.83
35687	7	Sololá	701	Sololá	3	Barraneche	7	Julio	2023-05-07T00:00:00	2024-11-06T20:00:00	1	Precipitación	0
35688	7	Sololá	701	Sololá	3	Barraneche	7	Julio	2023-05-07T00:00:00	2024-11-06T20:00:00	8	Radiación solar	0
35689	7	Sololá	701	Sololá	3	Barraneche	7	Julio	2023-05-07T00:00:00	2024-11-06T21:00:00	2	Temperatura media	13.2
35690	7	Sololá	701	Sololá	3	Barraneche	7	Julio	2023-05-07T00:00:00	2024-11-06T21:00:00	4	Temperatura máxima	14.7
35691	7	Sololá	701	Sololá	3	Barraneche	7	Julio	2023-05-07T00:00:00	2024-11-06T21:00:00	3	Temperatura mínima	13.2
35692	7	Sololá	701	Sololá	3	Barraneche	7	Julio	2023-05-07T00:00:00	2024-11-06T21:00:00	5	Humedad	61
35693	7	Sololá	701	Sololá	3	Barraneche	7	Julio	2023-05-07T00:00:00	2024-11-06T21:00:00	6	Velocidad del viento	4.8
35694	7	Sololá	701	Sololá	3	Barraneche	7	Julio	2023-05-07T00:00:00	2024-11-06T21:00:00	7	Dirección del viento	4.83
35695	7	Sololá	701	Sololá	3	Barraneche	7	Julio	2023-05-07T00:00:00	2024-11-06T21:00:00	1	Precipitación	0
35696	7	Sololá	701	Sololá	3	Barraneche	7	Julio	2023-05-07T00:00:00	2024-11-06T21:00:00	8	Radiación solar	0
35697	7	Sololá	701	Sololá	3	Barraneche	7	Julio	2023-05-07T00:00:00	2024-11-06T22:00:00	2	Temperatura media	13.4
35698	7	Sololá	701	Sololá	3	Barraneche	7	Julio	2023-05-07T00:00:00	2024-11-06T22:00:00	4	Temperatura máxima	14.3
35699	7	Sololá	701	Sololá	3	Barraneche	7	Julio	2023-05-07T00:00:00	2024-11-06T22:00:00	3	Temperatura mínima	12.9
35700	7	Sololá	701	Sololá	3	Barraneche	7	Julio	2023-05-07T00:00:00	2024-11-06T22:00:00	5	Humedad	68
35701	7	Sololá	701	Sololá	3	Barraneche	7	Julio	2023-05-07T00:00:00	2024-11-06T22:00:00	6	Velocidad del viento	3.2
35702	7	Sololá	701	Sololá	3	Barraneche	7	Julio	2023-05-07T00:00:00	2024-11-06T22:00:00	7	Dirección del viento	3.22
35703	7	Sololá	701	Sololá	3	Barraneche	7	Julio	2023-05-07T00:00:00	2024-11-06T22:00:00	1	Precipitación	0
35704	7	Sololá	701	Sololá	3	Barraneche	7	Julio	2023-05-07T00:00:00	2024-11-06T22:00:00	8	Radiación solar	0
35705	7	Sololá	701	Sololá	3	Barraneche	7	Julio	2023-05-07T00:00:00	2024-11-06T23:00:00	2	Temperatura media	14.3
35706	7	Sololá	701	Sololá	3	Barraneche	7	Julio	2023-05-07T00:00:00	2024-11-06T23:00:00	4	Temperatura máxima	14.5
35707	7	Sololá	701	Sololá	3	Barraneche	7	Julio	2023-05-07T00:00:00	2024-11-06T23:00:00	3	Temperatura mínima	12.9
35708	7	Sololá	701	Sololá	3	Barraneche	7	Julio	2023-05-07T00:00:00	2024-11-06T23:00:00	5	Humedad	63
35709	7	Sololá	701	Sololá	3	Barraneche	7	Julio	2023-05-07T00:00:00	2024-11-06T23:00:00	6	Velocidad del viento	4.8
35710	7	Sololá	701	Sololá	3	Barraneche	7	Julio	2023-05-07T00:00:00	2024-11-06T23:00:00	7	Dirección del viento	4.83
35711	7	Sololá	701	Sololá	3	Barraneche	7	Julio	2023-05-07T00:00:00	2024-11-06T23:00:00	1	Precipitación	0
35712	7	Sololá	701	Sololá	3	Barraneche	7	Julio	2023-05-07T00:00:00	2024-11-06T23:00:00	8	Radiación solar	0
35713	7	Sololá	701	Sololá	3	Barraneche	7	Julio	2023-06-07T00:00:00	2024-11-06T00:00:00	2	Temperatura media	13.7
35714	7	Sololá	701	Sololá	3	Barraneche	7	Julio	2023-06-07T00:00:00	2024-11-06T00:00:00	4	Temperatura máxima	14.9
35715	7	Sololá	701	Sololá	3	Barraneche	7	Julio	2023-06-07T00:00:00	2024-11-06T00:00:00	3	Temperatura mínima	13.7
35716	7	Sololá	701	Sololá	3	Barraneche	7	Julio	2023-06-07T00:00:00	2024-11-06T00:00:00	5	Humedad	66
35717	7	Sololá	701	Sololá	3	Barraneche	7	Julio	2023-06-07T00:00:00	2024-11-06T00:00:00	6	Velocidad del viento	6.4
35718	7	Sololá	701	Sololá	3	Barraneche	7	Julio	2023-06-07T00:00:00	2024-11-06T00:00:00	7	Dirección del viento	6.44
35719	7	Sololá	701	Sololá	3	Barraneche	7	Julio	2023-06-07T00:00:00	2024-11-06T00:00:00	1	Precipitación	0
35720	7	Sololá	701	Sololá	3	Barraneche	7	Julio	2023-06-07T00:00:00	2024-11-06T00:00:00	8	Radiación solar	0
35721	7	Sololá	701	Sololá	3	Barraneche	7	Julio	2023-06-07T00:00:00	2024-11-06T01:00:00	2	Temperatura media	14.4
35722	7	Sololá	701	Sololá	3	Barraneche	7	Julio	2023-06-07T00:00:00	2024-11-06T01:00:00	4	Temperatura máxima	14.4
35723	7	Sololá	701	Sololá	3	Barraneche	7	Julio	2023-06-07T00:00:00	2024-11-06T01:00:00	3	Temperatura mínima	12.7
35724	7	Sololá	701	Sololá	3	Barraneche	7	Julio	2023-06-07T00:00:00	2024-11-06T01:00:00	5	Humedad	63
35725	7	Sololá	701	Sololá	3	Barraneche	7	Julio	2023-06-07T00:00:00	2024-11-06T01:00:00	6	Velocidad del viento	4.8
35726	7	Sololá	701	Sololá	3	Barraneche	7	Julio	2023-06-07T00:00:00	2024-11-06T01:00:00	7	Dirección del viento	4.83
35727	7	Sololá	701	Sololá	3	Barraneche	7	Julio	2023-06-07T00:00:00	2024-11-06T01:00:00	1	Precipitación	0
35728	7	Sololá	701	Sololá	3	Barraneche	7	Julio	2023-06-07T00:00:00	2024-11-06T01:00:00	8	Radiación solar	0
35729	7	Sololá	701	Sololá	3	Barraneche	7	Julio	2023-06-07T00:00:00	2024-11-06T02:00:00	2	Temperatura media	12.6
35730	7	Sololá	701	Sololá	3	Barraneche	7	Julio	2023-06-07T00:00:00	2024-11-06T02:00:00	4	Temperatura máxima	14.7
35731	7	Sololá	701	Sololá	3	Barraneche	7	Julio	2023-06-07T00:00:00	2024-11-06T02:00:00	3	Temperatura mínima	12.6
35732	7	Sololá	701	Sololá	3	Barraneche	7	Julio	2023-06-07T00:00:00	2024-11-06T02:00:00	5	Humedad	64
35733	7	Sololá	701	Sololá	3	Barraneche	7	Julio	2023-06-07T00:00:00	2024-11-06T02:00:00	6	Velocidad del viento	8
35734	7	Sololá	701	Sololá	3	Barraneche	7	Julio	2023-06-07T00:00:00	2024-11-06T02:00:00	7	Dirección del viento	8.05
35735	7	Sololá	701	Sololá	3	Barraneche	7	Julio	2023-06-07T00:00:00	2024-11-06T02:00:00	1	Precipitación	0
35736	7	Sololá	701	Sololá	3	Barraneche	7	Julio	2023-06-07T00:00:00	2024-11-06T02:00:00	8	Radiación solar	0
35737	7	Sololá	701	Sololá	3	Barraneche	7	Julio	2023-06-07T00:00:00	2024-11-06T03:00:00	2	Temperatura media	12.2
35738	7	Sololá	701	Sololá	3	Barraneche	7	Julio	2023-06-07T00:00:00	2024-11-06T03:00:00	4	Temperatura máxima	12.6
35739	7	Sololá	701	Sololá	3	Barraneche	7	Julio	2023-06-07T00:00:00	2024-11-06T03:00:00	3	Temperatura mínima	12
35740	7	Sololá	701	Sololá	3	Barraneche	7	Julio	2023-06-07T00:00:00	2024-11-06T03:00:00	5	Humedad	63
35741	7	Sololá	701	Sololá	3	Barraneche	7	Julio	2023-06-07T00:00:00	2024-11-06T03:00:00	6	Velocidad del viento	6.4
35742	7	Sololá	701	Sololá	3	Barraneche	7	Julio	2023-06-07T00:00:00	2024-11-06T03:00:00	7	Dirección del viento	6.44
35743	7	Sololá	701	Sololá	3	Barraneche	7	Julio	2023-06-07T00:00:00	2024-11-06T03:00:00	1	Precipitación	0
35744	7	Sololá	701	Sololá	3	Barraneche	7	Julio	2023-06-07T00:00:00	2024-11-06T03:00:00	8	Radiación solar	0
35745	7	Sololá	701	Sololá	3	Barraneche	7	Julio	2023-06-07T00:00:00	2024-11-06T04:00:00	2	Temperatura media	11.4
35746	7	Sololá	701	Sololá	3	Barraneche	7	Julio	2023-06-07T00:00:00	2024-11-06T04:00:00	4	Temperatura máxima	12.2
35747	7	Sololá	701	Sololá	3	Barraneche	7	Julio	2023-06-07T00:00:00	2024-11-06T04:00:00	3	Temperatura mínima	11.4
35748	7	Sololá	701	Sololá	3	Barraneche	7	Julio	2023-06-07T00:00:00	2024-11-06T04:00:00	5	Humedad	68
35749	7	Sololá	701	Sololá	3	Barraneche	7	Julio	2023-06-07T00:00:00	2024-11-06T04:00:00	6	Velocidad del viento	6.4
35750	7	Sololá	701	Sololá	3	Barraneche	7	Julio	2023-06-07T00:00:00	2024-11-06T04:00:00	7	Dirección del viento	6.44
35751	7	Sololá	701	Sololá	3	Barraneche	7	Julio	2023-06-07T00:00:00	2024-11-06T04:00:00	1	Precipitación	0
35752	7	Sololá	701	Sololá	3	Barraneche	7	Julio	2023-06-07T00:00:00	2024-11-06T04:00:00	8	Radiación solar	0
35753	7	Sololá	701	Sololá	3	Barraneche	7	Julio	2023-06-07T00:00:00	2024-11-06T05:00:00	2	Temperatura media	11.8
35754	7	Sololá	701	Sololá	3	Barraneche	7	Julio	2023-06-07T00:00:00	2024-11-06T05:00:00	4	Temperatura máxima	11.8
35755	7	Sololá	701	Sololá	3	Barraneche	7	Julio	2023-06-07T00:00:00	2024-11-06T05:00:00	3	Temperatura mínima	11.4
35756	7	Sololá	701	Sololá	3	Barraneche	7	Julio	2023-06-07T00:00:00	2024-11-06T05:00:00	5	Humedad	70
35757	7	Sololá	701	Sololá	3	Barraneche	7	Julio	2023-06-07T00:00:00	2024-11-06T05:00:00	6	Velocidad del viento	6.4
35758	7	Sololá	701	Sololá	3	Barraneche	7	Julio	2023-06-07T00:00:00	2024-11-06T05:00:00	7	Dirección del viento	6.44
35759	7	Sololá	701	Sololá	3	Barraneche	7	Julio	2023-06-07T00:00:00	2024-11-06T05:00:00	1	Precipitación	0
35760	7	Sololá	701	Sololá	3	Barraneche	7	Julio	2023-06-07T00:00:00	2024-11-06T05:00:00	8	Radiación solar	0
35761	7	Sololá	701	Sololá	3	Barraneche	7	Julio	2023-06-07T00:00:00	2024-11-06T06:00:00	2	Temperatura media	11
35762	7	Sololá	701	Sololá	3	Barraneche	7	Julio	2023-06-07T00:00:00	2024-11-06T06:00:00	4	Temperatura máxima	11.9
35763	7	Sololá	701	Sololá	3	Barraneche	7	Julio	2023-06-07T00:00:00	2024-11-06T06:00:00	3	Temperatura mínima	11
35764	7	Sololá	701	Sololá	3	Barraneche	7	Julio	2023-06-07T00:00:00	2024-11-06T06:00:00	5	Humedad	67
35765	7	Sololá	701	Sololá	3	Barraneche	7	Julio	2023-06-07T00:00:00	2024-11-06T06:00:00	6	Velocidad del viento	6.4
35766	7	Sololá	701	Sololá	3	Barraneche	7	Julio	2023-06-07T00:00:00	2024-11-06T06:00:00	7	Dirección del viento	6.44
35767	7	Sololá	701	Sololá	3	Barraneche	7	Julio	2023-06-07T00:00:00	2024-11-06T06:00:00	1	Precipitación	0
35768	7	Sololá	701	Sololá	3	Barraneche	7	Julio	2023-06-07T00:00:00	2024-11-06T06:00:00	8	Radiación solar	3
35769	7	Sololá	701	Sololá	3	Barraneche	7	Julio	2023-06-07T00:00:00	2024-11-06T07:00:00	2	Temperatura media	13.2
35770	7	Sololá	701	Sololá	3	Barraneche	7	Julio	2023-06-07T00:00:00	2024-11-06T07:00:00	4	Temperatura máxima	13.2
35771	7	Sololá	701	Sololá	3	Barraneche	7	Julio	2023-06-07T00:00:00	2024-11-06T07:00:00	3	Temperatura mínima	10.7
35772	7	Sololá	701	Sololá	3	Barraneche	7	Julio	2023-06-07T00:00:00	2024-11-06T07:00:00	5	Humedad	67
35773	7	Sololá	701	Sololá	3	Barraneche	7	Julio	2023-06-07T00:00:00	2024-11-06T07:00:00	6	Velocidad del viento	4.8
35774	7	Sololá	701	Sololá	3	Barraneche	7	Julio	2023-06-07T00:00:00	2024-11-06T07:00:00	7	Dirección del viento	4.83
35775	7	Sololá	701	Sololá	3	Barraneche	7	Julio	2023-06-07T00:00:00	2024-11-06T07:00:00	1	Precipitación	0
35776	7	Sololá	701	Sololá	3	Barraneche	7	Julio	2023-06-07T00:00:00	2024-11-06T07:00:00	8	Radiación solar	79
35777	7	Sololá	701	Sololá	3	Barraneche	7	Julio	2023-06-07T00:00:00	2024-11-06T08:00:00	2	Temperatura media	16.2
35778	7	Sololá	701	Sololá	3	Barraneche	7	Julio	2023-06-07T00:00:00	2024-11-06T08:00:00	4	Temperatura máxima	16.2
35779	7	Sololá	701	Sololá	3	Barraneche	7	Julio	2023-06-07T00:00:00	2024-11-06T08:00:00	3	Temperatura mínima	13.2
35780	7	Sololá	701	Sololá	3	Barraneche	7	Julio	2023-06-07T00:00:00	2024-11-06T08:00:00	5	Humedad	61
35781	7	Sololá	701	Sololá	3	Barraneche	7	Julio	2023-06-07T00:00:00	2024-11-06T08:00:00	6	Velocidad del viento	3.2
35782	7	Sololá	701	Sololá	3	Barraneche	7	Julio	2023-06-07T00:00:00	2024-11-06T08:00:00	7	Dirección del viento	3.22
35783	7	Sololá	701	Sololá	3	Barraneche	7	Julio	2023-06-07T00:00:00	2024-11-06T08:00:00	1	Precipitación	0
35784	7	Sololá	701	Sololá	3	Barraneche	7	Julio	2023-06-07T00:00:00	2024-11-06T08:00:00	8	Radiación solar	332
35785	7	Sololá	701	Sololá	3	Barraneche	7	Julio	2023-06-07T00:00:00	2024-11-06T09:00:00	2	Temperatura media	17.9
35786	7	Sololá	701	Sololá	3	Barraneche	7	Julio	2023-06-07T00:00:00	2024-11-06T09:00:00	4	Temperatura máxima	17.9
35787	7	Sololá	701	Sololá	3	Barraneche	7	Julio	2023-06-07T00:00:00	2024-11-06T09:00:00	3	Temperatura mínima	16.2
35788	7	Sololá	701	Sololá	3	Barraneche	7	Julio	2023-06-07T00:00:00	2024-11-06T09:00:00	5	Humedad	57
35789	7	Sololá	701	Sololá	3	Barraneche	7	Julio	2023-06-07T00:00:00	2024-11-06T09:00:00	6	Velocidad del viento	8
35790	7	Sololá	701	Sololá	3	Barraneche	7	Julio	2023-06-07T00:00:00	2024-11-06T09:00:00	7	Dirección del viento	8.05
35791	7	Sololá	701	Sololá	3	Barraneche	7	Julio	2023-06-07T00:00:00	2024-11-06T09:00:00	1	Precipitación	0
35792	7	Sololá	701	Sololá	3	Barraneche	7	Julio	2023-06-07T00:00:00	2024-11-06T09:00:00	8	Radiación solar	611
35793	7	Sololá	701	Sololá	3	Barraneche	7	Julio	2023-06-07T00:00:00	2024-11-06T10:00:00	2	Temperatura media	19.2
35794	7	Sololá	701	Sololá	3	Barraneche	7	Julio	2023-06-07T00:00:00	2024-11-06T10:00:00	4	Temperatura máxima	19.2
35795	7	Sololá	701	Sololá	3	Barraneche	7	Julio	2023-06-07T00:00:00	2024-11-06T10:00:00	3	Temperatura mínima	17.7
35796	7	Sololá	701	Sololá	3	Barraneche	7	Julio	2023-06-07T00:00:00	2024-11-06T10:00:00	5	Humedad	55
35797	7	Sololá	701	Sololá	3	Barraneche	7	Julio	2023-06-07T00:00:00	2024-11-06T10:00:00	6	Velocidad del viento	12.9
35798	7	Sololá	701	Sololá	3	Barraneche	7	Julio	2023-06-07T00:00:00	2024-11-06T10:00:00	7	Dirección del viento	12.87
35799	7	Sololá	701	Sololá	3	Barraneche	7	Julio	2023-06-07T00:00:00	2024-11-06T10:00:00	1	Precipitación	0
35800	7	Sololá	701	Sololá	3	Barraneche	7	Julio	2023-06-07T00:00:00	2024-11-06T10:00:00	8	Radiación solar	809
35801	7	Sololá	701	Sololá	3	Barraneche	7	Julio	2023-06-07T00:00:00	2024-11-06T11:00:00	2	Temperatura media	18.5
35802	7	Sololá	701	Sololá	3	Barraneche	7	Julio	2023-06-07T00:00:00	2024-11-06T11:00:00	4	Temperatura máxima	19.4
35803	7	Sololá	701	Sololá	3	Barraneche	7	Julio	2023-06-07T00:00:00	2024-11-06T11:00:00	3	Temperatura mínima	18.5
35804	7	Sololá	701	Sololá	3	Barraneche	7	Julio	2023-06-07T00:00:00	2024-11-06T11:00:00	5	Humedad	63
35805	7	Sololá	701	Sololá	3	Barraneche	7	Julio	2023-06-07T00:00:00	2024-11-06T11:00:00	6	Velocidad del viento	11.3
35806	7	Sololá	701	Sololá	3	Barraneche	7	Julio	2023-06-07T00:00:00	2024-11-06T11:00:00	7	Dirección del viento	11.27
35807	7	Sololá	701	Sololá	3	Barraneche	7	Julio	2023-06-07T00:00:00	2024-11-06T11:00:00	1	Precipitación	0
35808	7	Sololá	701	Sololá	3	Barraneche	7	Julio	2023-06-07T00:00:00	2024-11-06T11:00:00	8	Radiación solar	1063
35809	7	Sololá	701	Sololá	3	Barraneche	7	Julio	2023-06-07T00:00:00	2024-11-06T12:00:00	2	Temperatura media	18.3
35810	7	Sololá	701	Sololá	3	Barraneche	7	Julio	2023-06-07T00:00:00	2024-11-06T12:00:00	4	Temperatura máxima	20.1
35811	7	Sololá	701	Sololá	3	Barraneche	7	Julio	2023-06-07T00:00:00	2024-11-06T12:00:00	3	Temperatura mínima	18.3
35812	7	Sololá	701	Sololá	3	Barraneche	7	Julio	2023-06-07T00:00:00	2024-11-06T12:00:00	5	Humedad	62
35813	7	Sololá	701	Sololá	3	Barraneche	7	Julio	2023-06-07T00:00:00	2024-11-06T12:00:00	6	Velocidad del viento	11.3
35814	7	Sololá	701	Sololá	3	Barraneche	7	Julio	2023-06-07T00:00:00	2024-11-06T12:00:00	7	Dirección del viento	11.27
35815	7	Sololá	701	Sololá	3	Barraneche	7	Julio	2023-06-07T00:00:00	2024-11-06T12:00:00	1	Precipitación	0
35816	7	Sololá	701	Sololá	3	Barraneche	7	Julio	2023-06-07T00:00:00	2024-11-06T12:00:00	8	Radiación solar	948
35817	7	Sololá	701	Sololá	3	Barraneche	7	Julio	2023-06-07T00:00:00	2024-11-06T13:00:00	2	Temperatura media	18.3
35818	7	Sololá	701	Sololá	3	Barraneche	7	Julio	2023-06-07T00:00:00	2024-11-06T13:00:00	4	Temperatura máxima	18.3
35819	7	Sololá	701	Sololá	3	Barraneche	7	Julio	2023-06-07T00:00:00	2024-11-06T13:00:00	3	Temperatura mínima	17.7
35820	7	Sololá	701	Sololá	3	Barraneche	7	Julio	2023-06-07T00:00:00	2024-11-06T13:00:00	5	Humedad	61
35821	7	Sololá	701	Sololá	3	Barraneche	7	Julio	2023-06-07T00:00:00	2024-11-06T13:00:00	6	Velocidad del viento	11.3
35822	7	Sololá	701	Sololá	3	Barraneche	7	Julio	2023-06-07T00:00:00	2024-11-06T13:00:00	7	Dirección del viento	11.27
35823	7	Sololá	701	Sololá	3	Barraneche	7	Julio	2023-06-07T00:00:00	2024-11-06T13:00:00	1	Precipitación	0
35824	7	Sololá	701	Sololá	3	Barraneche	7	Julio	2023-06-07T00:00:00	2024-11-06T13:00:00	8	Radiación solar	370
35825	7	Sololá	701	Sololá	3	Barraneche	7	Julio	2023-06-07T00:00:00	2024-11-06T14:00:00	2	Temperatura media	19.9
35826	7	Sololá	701	Sololá	3	Barraneche	7	Julio	2023-06-07T00:00:00	2024-11-06T14:00:00	4	Temperatura máxima	19.9
35827	7	Sololá	701	Sololá	3	Barraneche	7	Julio	2023-06-07T00:00:00	2024-11-06T14:00:00	3	Temperatura mínima	18.3
35828	7	Sololá	701	Sololá	3	Barraneche	7	Julio	2023-06-07T00:00:00	2024-11-06T14:00:00	5	Humedad	54
35829	7	Sololá	701	Sololá	3	Barraneche	7	Julio	2023-06-07T00:00:00	2024-11-06T14:00:00	6	Velocidad del viento	9.7
35830	7	Sololá	701	Sololá	3	Barraneche	7	Julio	2023-06-07T00:00:00	2024-11-06T14:00:00	7	Dirección del viento	9.66
35831	7	Sololá	701	Sololá	3	Barraneche	7	Julio	2023-06-07T00:00:00	2024-11-06T14:00:00	1	Precipitación	0
35832	7	Sololá	701	Sololá	3	Barraneche	7	Julio	2023-06-07T00:00:00	2024-11-06T14:00:00	8	Radiación solar	717
35833	7	Sololá	701	Sololá	3	Barraneche	7	Julio	2023-06-07T00:00:00	2024-11-06T15:00:00	2	Temperatura media	20.4
35834	7	Sololá	701	Sololá	3	Barraneche	7	Julio	2023-06-07T00:00:00	2024-11-06T15:00:00	4	Temperatura máxima	20.6
35835	7	Sololá	701	Sololá	3	Barraneche	7	Julio	2023-06-07T00:00:00	2024-11-06T15:00:00	3	Temperatura mínima	20
35836	7	Sololá	701	Sololá	3	Barraneche	7	Julio	2023-06-07T00:00:00	2024-11-06T15:00:00	5	Humedad	44
35837	7	Sololá	701	Sololá	3	Barraneche	7	Julio	2023-06-07T00:00:00	2024-11-06T15:00:00	6	Velocidad del viento	12.9
35838	7	Sololá	701	Sololá	3	Barraneche	7	Julio	2023-06-07T00:00:00	2024-11-06T15:00:00	7	Dirección del viento	12.87
35839	7	Sololá	701	Sololá	3	Barraneche	7	Julio	2023-06-07T00:00:00	2024-11-06T15:00:00	1	Precipitación	0
35840	7	Sololá	701	Sololá	3	Barraneche	7	Julio	2023-06-07T00:00:00	2024-11-06T15:00:00	8	Radiación solar	884
35841	7	Sololá	701	Sololá	3	Barraneche	7	Julio	2023-06-07T00:00:00	2024-11-06T16:00:00	2	Temperatura media	18.2
35842	7	Sololá	701	Sololá	3	Barraneche	7	Julio	2023-06-07T00:00:00	2024-11-06T16:00:00	4	Temperatura máxima	20.6
35843	7	Sololá	701	Sololá	3	Barraneche	7	Julio	2023-06-07T00:00:00	2024-11-06T16:00:00	3	Temperatura mínima	18.1
35844	7	Sololá	701	Sololá	3	Barraneche	7	Julio	2023-06-07T00:00:00	2024-11-06T16:00:00	5	Humedad	67
35845	7	Sololá	701	Sololá	3	Barraneche	7	Julio	2023-06-07T00:00:00	2024-11-06T16:00:00	6	Velocidad del viento	12.9
35846	7	Sololá	701	Sololá	3	Barraneche	7	Julio	2023-06-07T00:00:00	2024-11-06T16:00:00	7	Dirección del viento	12.87
35847	7	Sololá	701	Sololá	3	Barraneche	7	Julio	2023-06-07T00:00:00	2024-11-06T16:00:00	1	Precipitación	0
35848	7	Sololá	701	Sololá	3	Barraneche	7	Julio	2023-06-07T00:00:00	2024-11-06T16:00:00	8	Radiación solar	642
35849	7	Sololá	701	Sololá	3	Barraneche	7	Julio	2023-06-07T00:00:00	2024-11-06T17:00:00	2	Temperatura media	18.7
35850	7	Sololá	701	Sololá	3	Barraneche	7	Julio	2023-06-07T00:00:00	2024-11-06T17:00:00	4	Temperatura máxima	19.4
35851	7	Sololá	701	Sololá	3	Barraneche	7	Julio	2023-06-07T00:00:00	2024-11-06T17:00:00	3	Temperatura mínima	17.9
35852	7	Sololá	701	Sololá	3	Barraneche	7	Julio	2023-06-07T00:00:00	2024-11-06T17:00:00	5	Humedad	53
35853	7	Sololá	701	Sololá	3	Barraneche	7	Julio	2023-06-07T00:00:00	2024-11-06T17:00:00	6	Velocidad del viento	9.7
35854	7	Sololá	701	Sololá	3	Barraneche	7	Julio	2023-06-07T00:00:00	2024-11-06T17:00:00	7	Dirección del viento	9.66
35855	7	Sololá	701	Sololá	3	Barraneche	7	Julio	2023-06-07T00:00:00	2024-11-06T17:00:00	1	Precipitación	0
35856	7	Sololá	701	Sololá	3	Barraneche	7	Julio	2023-06-07T00:00:00	2024-11-06T17:00:00	8	Radiación solar	351
35857	7	Sololá	701	Sololá	3	Barraneche	7	Julio	2023-06-07T00:00:00	2024-11-06T18:00:00	2	Temperatura media	17.7
35858	7	Sololá	701	Sololá	3	Barraneche	7	Julio	2023-06-07T00:00:00	2024-11-06T18:00:00	4	Temperatura máxima	18.7
35859	7	Sololá	701	Sololá	3	Barraneche	7	Julio	2023-06-07T00:00:00	2024-11-06T18:00:00	3	Temperatura mínima	17.6
35860	7	Sololá	701	Sololá	3	Barraneche	7	Julio	2023-06-07T00:00:00	2024-11-06T18:00:00	5	Humedad	57
35861	7	Sololá	701	Sololá	3	Barraneche	7	Julio	2023-06-07T00:00:00	2024-11-06T18:00:00	6	Velocidad del viento	8
35862	7	Sololá	701	Sololá	3	Barraneche	7	Julio	2023-06-07T00:00:00	2024-11-06T18:00:00	7	Dirección del viento	8.05
35863	7	Sololá	701	Sololá	3	Barraneche	7	Julio	2023-06-07T00:00:00	2024-11-06T18:00:00	1	Precipitación	0
35864	7	Sololá	701	Sololá	3	Barraneche	7	Julio	2023-06-07T00:00:00	2024-11-06T18:00:00	8	Radiación solar	151
35865	7	Sololá	701	Sololá	3	Barraneche	7	Julio	2023-06-07T00:00:00	2024-11-06T19:00:00	2	Temperatura media	15.1
35866	7	Sololá	701	Sololá	3	Barraneche	7	Julio	2023-06-07T00:00:00	2024-11-06T19:00:00	4	Temperatura máxima	17.7
35867	7	Sololá	701	Sololá	3	Barraneche	7	Julio	2023-06-07T00:00:00	2024-11-06T19:00:00	3	Temperatura mínima	15.1
35868	7	Sololá	701	Sololá	3	Barraneche	7	Julio	2023-06-07T00:00:00	2024-11-06T19:00:00	5	Humedad	64
35869	7	Sololá	701	Sololá	3	Barraneche	7	Julio	2023-06-07T00:00:00	2024-11-06T19:00:00	6	Velocidad del viento	3.2
35870	7	Sololá	701	Sololá	3	Barraneche	7	Julio	2023-06-07T00:00:00	2024-11-06T19:00:00	7	Dirección del viento	3.22
35871	7	Sololá	701	Sololá	3	Barraneche	7	Julio	2023-06-07T00:00:00	2024-11-06T19:00:00	1	Precipitación	0
35872	7	Sololá	701	Sololá	3	Barraneche	7	Julio	2023-06-07T00:00:00	2024-11-06T19:00:00	8	Radiación solar	0
35873	7	Sololá	701	Sololá	3	Barraneche	7	Julio	2023-06-07T00:00:00	2024-11-06T20:00:00	2	Temperatura media	13.5
35874	7	Sololá	701	Sololá	3	Barraneche	7	Julio	2023-06-07T00:00:00	2024-11-06T20:00:00	4	Temperatura máxima	15.1
35875	7	Sololá	701	Sololá	3	Barraneche	7	Julio	2023-06-07T00:00:00	2024-11-06T20:00:00	3	Temperatura mínima	13.5
35876	7	Sololá	701	Sololá	3	Barraneche	7	Julio	2023-06-07T00:00:00	2024-11-06T20:00:00	5	Humedad	67
35877	7	Sololá	701	Sololá	3	Barraneche	7	Julio	2023-06-07T00:00:00	2024-11-06T20:00:00	6	Velocidad del viento	1.6
35878	7	Sololá	701	Sololá	3	Barraneche	7	Julio	2023-06-07T00:00:00	2024-11-06T20:00:00	7	Dirección del viento	1.61
35879	7	Sololá	701	Sololá	3	Barraneche	7	Julio	2023-06-07T00:00:00	2024-11-06T20:00:00	1	Precipitación	0
35880	7	Sololá	701	Sololá	3	Barraneche	7	Julio	2023-06-07T00:00:00	2024-11-06T20:00:00	8	Radiación solar	0
35881	7	Sololá	701	Sololá	3	Barraneche	7	Julio	2023-06-07T00:00:00	2024-11-06T21:00:00	2	Temperatura media	14.2
35882	7	Sololá	701	Sololá	3	Barraneche	7	Julio	2023-06-07T00:00:00	2024-11-06T21:00:00	4	Temperatura máxima	14.4
35883	7	Sololá	701	Sololá	3	Barraneche	7	Julio	2023-06-07T00:00:00	2024-11-06T21:00:00	3	Temperatura mínima	13
35884	7	Sololá	701	Sololá	3	Barraneche	7	Julio	2023-06-07T00:00:00	2024-11-06T21:00:00	5	Humedad	63
35885	7	Sololá	701	Sololá	3	Barraneche	7	Julio	2023-06-07T00:00:00	2024-11-06T21:00:00	6	Velocidad del viento	3.2
35886	7	Sololá	701	Sololá	3	Barraneche	7	Julio	2023-06-07T00:00:00	2024-11-06T21:00:00	7	Dirección del viento	3.22
35887	7	Sololá	701	Sololá	3	Barraneche	7	Julio	2023-06-07T00:00:00	2024-11-06T21:00:00	1	Precipitación	0
35888	7	Sololá	701	Sololá	3	Barraneche	7	Julio	2023-06-07T00:00:00	2024-11-06T21:00:00	8	Radiación solar	0
35889	7	Sololá	701	Sololá	3	Barraneche	7	Julio	2023-06-07T00:00:00	2024-11-06T22:00:00	2	Temperatura media	14.8
35890	7	Sololá	701	Sololá	3	Barraneche	7	Julio	2023-06-07T00:00:00	2024-11-06T22:00:00	4	Temperatura máxima	14.8
35891	7	Sololá	701	Sololá	3	Barraneche	7	Julio	2023-06-07T00:00:00	2024-11-06T22:00:00	3	Temperatura mínima	13.7
35892	7	Sololá	701	Sololá	3	Barraneche	7	Julio	2023-06-07T00:00:00	2024-11-06T22:00:00	5	Humedad	62
35893	7	Sololá	701	Sololá	3	Barraneche	7	Julio	2023-06-07T00:00:00	2024-11-06T22:00:00	6	Velocidad del viento	4.8
35894	7	Sololá	701	Sololá	3	Barraneche	7	Julio	2023-06-07T00:00:00	2024-11-06T22:00:00	7	Dirección del viento	4.83
35895	7	Sololá	701	Sololá	3	Barraneche	7	Julio	2023-06-07T00:00:00	2024-11-06T22:00:00	1	Precipitación	0
35896	7	Sololá	701	Sololá	3	Barraneche	7	Julio	2023-06-07T00:00:00	2024-11-06T22:00:00	8	Radiación solar	0
35897	7	Sololá	701	Sololá	3	Barraneche	7	Julio	2023-06-07T00:00:00	2024-11-06T23:00:00	2	Temperatura media	14.8
35898	7	Sololá	701	Sololá	3	Barraneche	7	Julio	2023-06-07T00:00:00	2024-11-06T23:00:00	4	Temperatura máxima	15
35899	7	Sololá	701	Sololá	3	Barraneche	7	Julio	2023-06-07T00:00:00	2024-11-06T23:00:00	3	Temperatura mínima	14.7
35900	7	Sololá	701	Sololá	3	Barraneche	7	Julio	2023-06-07T00:00:00	2024-11-06T23:00:00	5	Humedad	59
35901	7	Sololá	701	Sololá	3	Barraneche	7	Julio	2023-06-07T00:00:00	2024-11-06T23:00:00	6	Velocidad del viento	6.4
35902	7	Sololá	701	Sololá	3	Barraneche	7	Julio	2023-06-07T00:00:00	2024-11-06T23:00:00	7	Dirección del viento	6.44
35903	7	Sololá	701	Sololá	3	Barraneche	7	Julio	2023-06-07T00:00:00	2024-11-06T23:00:00	1	Precipitación	0
35904	7	Sololá	701	Sololá	3	Barraneche	7	Julio	2023-06-07T00:00:00	2024-11-06T23:00:00	8	Radiación solar	0
35905	7	Sololá	701	Sololá	3	Barraneche	7	Julio	2023-07-07T00:00:00	2024-11-06T00:00:00	2	Temperatura media	14.1
35906	7	Sololá	701	Sololá	3	Barraneche	7	Julio	2023-07-07T00:00:00	2024-11-06T00:00:00	4	Temperatura máxima	14.8
35907	7	Sololá	701	Sololá	3	Barraneche	7	Julio	2023-07-07T00:00:00	2024-11-06T00:00:00	3	Temperatura mínima	14.1
35908	7	Sololá	701	Sololá	3	Barraneche	7	Julio	2023-07-07T00:00:00	2024-11-06T00:00:00	5	Humedad	60
35909	7	Sololá	701	Sololá	3	Barraneche	7	Julio	2023-07-07T00:00:00	2024-11-06T00:00:00	6	Velocidad del viento	4.8
35910	7	Sololá	701	Sololá	3	Barraneche	7	Julio	2023-07-07T00:00:00	2024-11-06T00:00:00	7	Dirección del viento	4.83
35911	7	Sololá	701	Sololá	3	Barraneche	7	Julio	2023-07-07T00:00:00	2024-11-06T00:00:00	1	Precipitación	0
35912	7	Sololá	701	Sololá	3	Barraneche	7	Julio	2023-07-07T00:00:00	2024-11-06T00:00:00	8	Radiación solar	0
35913	7	Sololá	701	Sololá	3	Barraneche	7	Julio	2023-07-07T00:00:00	2024-11-06T01:00:00	2	Temperatura media	14.2
35914	7	Sololá	701	Sololá	3	Barraneche	7	Julio	2023-07-07T00:00:00	2024-11-06T01:00:00	4	Temperatura máxima	14.4
35915	7	Sololá	701	Sololá	3	Barraneche	7	Julio	2023-07-07T00:00:00	2024-11-06T01:00:00	3	Temperatura mínima	13.8
35916	7	Sololá	701	Sololá	3	Barraneche	7	Julio	2023-07-07T00:00:00	2024-11-06T01:00:00	5	Humedad	61
35917	7	Sololá	701	Sololá	3	Barraneche	7	Julio	2023-07-07T00:00:00	2024-11-06T01:00:00	6	Velocidad del viento	6.4
35918	7	Sololá	701	Sololá	3	Barraneche	7	Julio	2023-07-07T00:00:00	2024-11-06T01:00:00	7	Dirección del viento	6.44
35919	7	Sololá	701	Sololá	3	Barraneche	7	Julio	2023-07-07T00:00:00	2024-11-06T01:00:00	1	Precipitación	0
35920	7	Sololá	701	Sololá	3	Barraneche	7	Julio	2023-07-07T00:00:00	2024-11-06T01:00:00	8	Radiación solar	0
35921	7	Sololá	701	Sololá	3	Barraneche	7	Julio	2023-07-07T00:00:00	2024-11-06T02:00:00	2	Temperatura media	13.2
35922	7	Sololá	701	Sololá	3	Barraneche	7	Julio	2023-07-07T00:00:00	2024-11-06T02:00:00	4	Temperatura máxima	14.3
35923	7	Sololá	701	Sololá	3	Barraneche	7	Julio	2023-07-07T00:00:00	2024-11-06T02:00:00	3	Temperatura mínima	13.2
35924	7	Sololá	701	Sololá	3	Barraneche	7	Julio	2023-07-07T00:00:00	2024-11-06T02:00:00	5	Humedad	61
35925	7	Sololá	701	Sololá	3	Barraneche	7	Julio	2023-07-07T00:00:00	2024-11-06T02:00:00	6	Velocidad del viento	6.4
35926	7	Sololá	701	Sololá	3	Barraneche	7	Julio	2023-07-07T00:00:00	2024-11-06T02:00:00	7	Dirección del viento	6.44
35927	7	Sololá	701	Sololá	3	Barraneche	7	Julio	2023-07-07T00:00:00	2024-11-06T02:00:00	1	Precipitación	0
35928	7	Sololá	701	Sololá	3	Barraneche	7	Julio	2023-07-07T00:00:00	2024-11-06T02:00:00	8	Radiación solar	0
35929	7	Sololá	701	Sololá	3	Barraneche	7	Julio	2023-07-07T00:00:00	2024-11-06T03:00:00	2	Temperatura media	12.3
35930	7	Sololá	701	Sololá	3	Barraneche	7	Julio	2023-07-07T00:00:00	2024-11-06T03:00:00	4	Temperatura máxima	13.3
35931	7	Sololá	701	Sololá	3	Barraneche	7	Julio	2023-07-07T00:00:00	2024-11-06T03:00:00	3	Temperatura mínima	11.8
35932	7	Sololá	701	Sololá	3	Barraneche	7	Julio	2023-07-07T00:00:00	2024-11-06T03:00:00	5	Humedad	64
35933	7	Sololá	701	Sololá	3	Barraneche	7	Julio	2023-07-07T00:00:00	2024-11-06T03:00:00	6	Velocidad del viento	4.8
35934	7	Sololá	701	Sololá	3	Barraneche	7	Julio	2023-07-07T00:00:00	2024-11-06T03:00:00	7	Dirección del viento	4.83
35935	7	Sololá	701	Sololá	3	Barraneche	7	Julio	2023-07-07T00:00:00	2024-11-06T03:00:00	1	Precipitación	0
35936	7	Sololá	701	Sololá	3	Barraneche	7	Julio	2023-07-07T00:00:00	2024-11-06T03:00:00	8	Radiación solar	0
35937	7	Sololá	701	Sololá	3	Barraneche	7	Julio	2023-07-07T00:00:00	2024-11-06T04:00:00	2	Temperatura media	11.8
35938	7	Sololá	701	Sololá	3	Barraneche	7	Julio	2023-07-07T00:00:00	2024-11-06T04:00:00	4	Temperatura máxima	13.4
35939	7	Sololá	701	Sololá	3	Barraneche	7	Julio	2023-07-07T00:00:00	2024-11-06T04:00:00	3	Temperatura mínima	11.7
35940	7	Sololá	701	Sololá	3	Barraneche	7	Julio	2023-07-07T00:00:00	2024-11-06T04:00:00	5	Humedad	67
35941	7	Sololá	701	Sololá	3	Barraneche	7	Julio	2023-07-07T00:00:00	2024-11-06T04:00:00	6	Velocidad del viento	4.8
35942	7	Sololá	701	Sololá	3	Barraneche	7	Julio	2023-07-07T00:00:00	2024-11-06T04:00:00	7	Dirección del viento	4.83
35943	7	Sololá	701	Sololá	3	Barraneche	7	Julio	2023-07-07T00:00:00	2024-11-06T04:00:00	1	Precipitación	0
35944	7	Sololá	701	Sololá	3	Barraneche	7	Julio	2023-07-07T00:00:00	2024-11-06T04:00:00	8	Radiación solar	0
35945	7	Sololá	701	Sololá	3	Barraneche	7	Julio	2023-07-07T00:00:00	2024-11-06T05:00:00	2	Temperatura media	11.8
35946	7	Sololá	701	Sololá	3	Barraneche	7	Julio	2023-07-07T00:00:00	2024-11-06T05:00:00	4	Temperatura máxima	11.9
35947	7	Sololá	701	Sololá	3	Barraneche	7	Julio	2023-07-07T00:00:00	2024-11-06T05:00:00	3	Temperatura mínima	11.1
35948	7	Sololá	701	Sololá	3	Barraneche	7	Julio	2023-07-07T00:00:00	2024-11-06T05:00:00	5	Humedad	63
35949	7	Sololá	701	Sololá	3	Barraneche	7	Julio	2023-07-07T00:00:00	2024-11-06T05:00:00	6	Velocidad del viento	6.4
35950	7	Sololá	701	Sololá	3	Barraneche	7	Julio	2023-07-07T00:00:00	2024-11-06T05:00:00	7	Dirección del viento	6.44
35951	7	Sololá	701	Sololá	3	Barraneche	7	Julio	2023-07-07T00:00:00	2024-11-06T05:00:00	1	Precipitación	0
35952	7	Sololá	701	Sololá	3	Barraneche	7	Julio	2023-07-07T00:00:00	2024-11-06T05:00:00	8	Radiación solar	0
35953	7	Sololá	701	Sololá	3	Barraneche	7	Julio	2023-07-07T00:00:00	2024-11-06T06:00:00	2	Temperatura media	12.2
35954	7	Sololá	701	Sololá	3	Barraneche	7	Julio	2023-07-07T00:00:00	2024-11-06T06:00:00	4	Temperatura máxima	12.4
35955	7	Sololá	701	Sololá	3	Barraneche	7	Julio	2023-07-07T00:00:00	2024-11-06T06:00:00	3	Temperatura mínima	11.5
35956	7	Sololá	701	Sololá	3	Barraneche	7	Julio	2023-07-07T00:00:00	2024-11-06T06:00:00	5	Humedad	64
35957	7	Sololá	701	Sololá	3	Barraneche	7	Julio	2023-07-07T00:00:00	2024-11-06T06:00:00	6	Velocidad del viento	6.4
35958	7	Sololá	701	Sololá	3	Barraneche	7	Julio	2023-07-07T00:00:00	2024-11-06T06:00:00	7	Dirección del viento	6.44
35959	7	Sololá	701	Sololá	3	Barraneche	7	Julio	2023-07-07T00:00:00	2024-11-06T06:00:00	1	Precipitación	0
35960	7	Sololá	701	Sololá	3	Barraneche	7	Julio	2023-07-07T00:00:00	2024-11-06T06:00:00	8	Radiación solar	3
35961	7	Sololá	701	Sololá	3	Barraneche	7	Julio	2023-07-07T00:00:00	2024-11-06T07:00:00	2	Temperatura media	13.7
35962	7	Sololá	701	Sololá	3	Barraneche	7	Julio	2023-07-07T00:00:00	2024-11-06T07:00:00	4	Temperatura máxima	13.7
35963	7	Sololá	701	Sololá	3	Barraneche	7	Julio	2023-07-07T00:00:00	2024-11-06T07:00:00	3	Temperatura mínima	12.2
35964	7	Sololá	701	Sololá	3	Barraneche	7	Julio	2023-07-07T00:00:00	2024-11-06T07:00:00	5	Humedad	60
35965	7	Sololá	701	Sololá	3	Barraneche	7	Julio	2023-07-07T00:00:00	2024-11-06T07:00:00	6	Velocidad del viento	4.8
35966	7	Sololá	701	Sololá	3	Barraneche	7	Julio	2023-07-07T00:00:00	2024-11-06T07:00:00	7	Dirección del viento	4.83
35967	7	Sololá	701	Sololá	3	Barraneche	7	Julio	2023-07-07T00:00:00	2024-11-06T07:00:00	1	Precipitación	0
35968	7	Sololá	701	Sololá	3	Barraneche	7	Julio	2023-07-07T00:00:00	2024-11-06T07:00:00	8	Radiación solar	71
35969	7	Sololá	701	Sololá	3	Barraneche	7	Julio	2023-07-07T00:00:00	2024-11-06T08:00:00	2	Temperatura media	16.5
35970	7	Sololá	701	Sololá	3	Barraneche	7	Julio	2023-07-07T00:00:00	2024-11-06T08:00:00	4	Temperatura máxima	16.5
35971	7	Sololá	701	Sololá	3	Barraneche	7	Julio	2023-07-07T00:00:00	2024-11-06T08:00:00	3	Temperatura mínima	13.7
35972	7	Sololá	701	Sololá	3	Barraneche	7	Julio	2023-07-07T00:00:00	2024-11-06T08:00:00	5	Humedad	55
35973	7	Sololá	701	Sololá	3	Barraneche	7	Julio	2023-07-07T00:00:00	2024-11-06T08:00:00	6	Velocidad del viento	1.6
35974	7	Sololá	701	Sololá	3	Barraneche	7	Julio	2023-07-07T00:00:00	2024-11-06T08:00:00	7	Dirección del viento	1.61
35975	7	Sololá	701	Sololá	3	Barraneche	7	Julio	2023-07-07T00:00:00	2024-11-06T08:00:00	1	Precipitación	0
35976	7	Sololá	701	Sololá	3	Barraneche	7	Julio	2023-07-07T00:00:00	2024-11-06T08:00:00	8	Radiación solar	331
35977	7	Sololá	701	Sololá	3	Barraneche	7	Julio	2023-07-07T00:00:00	2024-11-06T09:00:00	2	Temperatura media	19.8
35978	7	Sololá	701	Sololá	3	Barraneche	7	Julio	2023-07-07T00:00:00	2024-11-06T09:00:00	4	Temperatura máxima	19.8
35979	7	Sololá	701	Sololá	3	Barraneche	7	Julio	2023-07-07T00:00:00	2024-11-06T09:00:00	3	Temperatura mínima	16.6
35980	7	Sololá	701	Sololá	3	Barraneche	7	Julio	2023-07-07T00:00:00	2024-11-06T09:00:00	5	Humedad	46
35981	7	Sololá	701	Sololá	3	Barraneche	7	Julio	2023-07-07T00:00:00	2024-11-06T09:00:00	6	Velocidad del viento	6.4
35982	7	Sololá	701	Sololá	3	Barraneche	7	Julio	2023-07-07T00:00:00	2024-11-06T09:00:00	7	Dirección del viento	6.44
35983	7	Sololá	701	Sololá	3	Barraneche	7	Julio	2023-07-07T00:00:00	2024-11-06T09:00:00	1	Precipitación	0
35984	7	Sololá	701	Sololá	3	Barraneche	7	Julio	2023-07-07T00:00:00	2024-11-06T09:00:00	8	Radiación solar	619
35985	7	Sololá	701	Sololá	3	Barraneche	7	Julio	2023-07-07T00:00:00	2024-11-06T10:00:00	2	Temperatura media	20.7
35986	7	Sololá	701	Sololá	3	Barraneche	7	Julio	2023-07-07T00:00:00	2024-11-06T10:00:00	4	Temperatura máxima	20.7
35987	7	Sololá	701	Sololá	3	Barraneche	7	Julio	2023-07-07T00:00:00	2024-11-06T10:00:00	3	Temperatura mínima	19.8
35988	7	Sololá	701	Sololá	3	Barraneche	7	Julio	2023-07-07T00:00:00	2024-11-06T10:00:00	5	Humedad	48
35989	7	Sololá	701	Sololá	3	Barraneche	7	Julio	2023-07-07T00:00:00	2024-11-06T10:00:00	6	Velocidad del viento	14.5
35990	7	Sololá	701	Sololá	3	Barraneche	7	Julio	2023-07-07T00:00:00	2024-11-06T10:00:00	7	Dirección del viento	14.48
35991	7	Sololá	701	Sololá	3	Barraneche	7	Julio	2023-07-07T00:00:00	2024-11-06T10:00:00	1	Precipitación	0
35992	7	Sololá	701	Sololá	3	Barraneche	7	Julio	2023-07-07T00:00:00	2024-11-06T10:00:00	8	Radiación solar	819
35993	7	Sololá	701	Sololá	3	Barraneche	7	Julio	2023-07-07T00:00:00	2024-11-06T11:00:00	2	Temperatura media	20.7
35994	7	Sololá	701	Sololá	3	Barraneche	7	Julio	2023-07-07T00:00:00	2024-11-06T11:00:00	4	Temperatura máxima	21.4
35995	7	Sololá	701	Sololá	3	Barraneche	7	Julio	2023-07-07T00:00:00	2024-11-06T11:00:00	3	Temperatura mínima	20.4
35996	7	Sololá	701	Sololá	3	Barraneche	7	Julio	2023-07-07T00:00:00	2024-11-06T11:00:00	5	Humedad	50
35997	7	Sololá	701	Sololá	3	Barraneche	7	Julio	2023-07-07T00:00:00	2024-11-06T11:00:00	6	Velocidad del viento	11.3
35998	7	Sololá	701	Sololá	3	Barraneche	7	Julio	2023-07-07T00:00:00	2024-11-06T11:00:00	7	Dirección del viento	11.27
35999	7	Sololá	701	Sololá	3	Barraneche	7	Julio	2023-07-07T00:00:00	2024-11-06T11:00:00	1	Precipitación	0
36000	7	Sololá	701	Sololá	3	Barraneche	7	Julio	2023-07-07T00:00:00	2024-11-06T11:00:00	8	Radiación solar	923
36001	7	Sololá	701	Sololá	3	Barraneche	7	Julio	2023-07-07T00:00:00	2024-11-06T12:00:00	2	Temperatura media	16.7
36002	7	Sololá	701	Sololá	3	Barraneche	7	Julio	2023-07-07T00:00:00	2024-11-06T12:00:00	4	Temperatura máxima	20.7
36003	7	Sololá	701	Sololá	3	Barraneche	7	Julio	2023-07-07T00:00:00	2024-11-06T12:00:00	3	Temperatura mínima	16.7
36004	7	Sololá	701	Sololá	3	Barraneche	7	Julio	2023-07-07T00:00:00	2024-11-06T12:00:00	5	Humedad	71
36005	7	Sololá	701	Sololá	3	Barraneche	7	Julio	2023-07-07T00:00:00	2024-11-06T12:00:00	6	Velocidad del viento	17.7
36006	7	Sololá	701	Sololá	3	Barraneche	7	Julio	2023-07-07T00:00:00	2024-11-06T12:00:00	7	Dirección del viento	17.7
36007	7	Sololá	701	Sololá	3	Barraneche	7	Julio	2023-07-07T00:00:00	2024-11-06T12:00:00	1	Precipitación	0
36008	7	Sololá	701	Sololá	3	Barraneche	7	Julio	2023-07-07T00:00:00	2024-11-06T12:00:00	8	Radiación solar	850
36009	7	Sololá	701	Sololá	3	Barraneche	7	Julio	2023-07-07T00:00:00	2024-11-06T13:00:00	2	Temperatura media	16.7
36010	7	Sololá	701	Sololá	3	Barraneche	7	Julio	2023-07-07T00:00:00	2024-11-06T13:00:00	4	Temperatura máxima	17.2
36011	7	Sololá	701	Sololá	3	Barraneche	7	Julio	2023-07-07T00:00:00	2024-11-06T13:00:00	3	Temperatura mínima	16.5
36012	7	Sololá	701	Sololá	3	Barraneche	7	Julio	2023-07-07T00:00:00	2024-11-06T13:00:00	5	Humedad	70
36013	7	Sololá	701	Sololá	3	Barraneche	7	Julio	2023-07-07T00:00:00	2024-11-06T13:00:00	6	Velocidad del viento	12.9
36014	7	Sololá	701	Sololá	3	Barraneche	7	Julio	2023-07-07T00:00:00	2024-11-06T13:00:00	7	Dirección del viento	12.87
36015	7	Sololá	701	Sololá	3	Barraneche	7	Julio	2023-07-07T00:00:00	2024-11-06T13:00:00	1	Precipitación	0
36016	7	Sololá	701	Sololá	3	Barraneche	7	Julio	2023-07-07T00:00:00	2024-11-06T13:00:00	8	Radiación solar	527
36017	7	Sololá	701	Sololá	3	Barraneche	7	Julio	2023-07-07T00:00:00	2024-11-06T14:00:00	2	Temperatura media	16.4
36018	7	Sololá	701	Sololá	3	Barraneche	7	Julio	2023-07-07T00:00:00	2024-11-06T14:00:00	4	Temperatura máxima	17.6
36019	7	Sololá	701	Sololá	3	Barraneche	7	Julio	2023-07-07T00:00:00	2024-11-06T14:00:00	3	Temperatura mínima	16.4
36020	7	Sololá	701	Sololá	3	Barraneche	7	Julio	2023-07-07T00:00:00	2024-11-06T14:00:00	5	Humedad	70
36021	7	Sololá	701	Sololá	3	Barraneche	7	Julio	2023-07-07T00:00:00	2024-11-06T14:00:00	6	Velocidad del viento	9.7
36022	7	Sololá	701	Sololá	3	Barraneche	7	Julio	2023-07-07T00:00:00	2024-11-06T14:00:00	7	Dirección del viento	9.66
36023	7	Sololá	701	Sololá	3	Barraneche	7	Julio	2023-07-07T00:00:00	2024-11-06T14:00:00	1	Precipitación	0
36024	7	Sololá	701	Sololá	3	Barraneche	7	Julio	2023-07-07T00:00:00	2024-11-06T14:00:00	8	Radiación solar	291
36025	7	Sololá	701	Sololá	3	Barraneche	7	Julio	2023-07-07T00:00:00	2024-11-06T15:00:00	2	Temperatura media	14.3
36026	7	Sololá	701	Sololá	3	Barraneche	7	Julio	2023-07-07T00:00:00	2024-11-06T15:00:00	4	Temperatura máxima	16.4
36027	7	Sololá	701	Sololá	3	Barraneche	7	Julio	2023-07-07T00:00:00	2024-11-06T15:00:00	3	Temperatura mínima	14.2
36028	7	Sololá	701	Sololá	3	Barraneche	7	Julio	2023-07-07T00:00:00	2024-11-06T15:00:00	5	Humedad	78
36029	7	Sololá	701	Sololá	3	Barraneche	7	Julio	2023-07-07T00:00:00	2024-11-06T15:00:00	6	Velocidad del viento	4.8
36030	7	Sololá	701	Sololá	3	Barraneche	7	Julio	2023-07-07T00:00:00	2024-11-06T15:00:00	7	Dirección del viento	4.83
36031	7	Sololá	701	Sololá	3	Barraneche	7	Julio	2023-07-07T00:00:00	2024-11-06T15:00:00	1	Precipitación	10.8
36032	7	Sololá	701	Sololá	3	Barraneche	7	Julio	2023-07-07T00:00:00	2024-11-06T15:00:00	8	Radiación solar	24
36033	7	Sololá	701	Sololá	3	Barraneche	7	Julio	2023-07-07T00:00:00	2024-11-06T16:00:00	2	Temperatura media	14
36034	7	Sololá	701	Sololá	3	Barraneche	7	Julio	2023-07-07T00:00:00	2024-11-06T16:00:00	4	Temperatura máxima	14.3
36035	7	Sololá	701	Sololá	3	Barraneche	7	Julio	2023-07-07T00:00:00	2024-11-06T16:00:00	3	Temperatura mínima	13.9
36036	7	Sololá	701	Sololá	3	Barraneche	7	Julio	2023-07-07T00:00:00	2024-11-06T16:00:00	5	Humedad	81
36037	7	Sololá	701	Sololá	3	Barraneche	7	Julio	2023-07-07T00:00:00	2024-11-06T16:00:00	6	Velocidad del viento	3.2
36038	7	Sololá	701	Sololá	3	Barraneche	7	Julio	2023-07-07T00:00:00	2024-11-06T16:00:00	7	Dirección del viento	3.22
36039	7	Sololá	701	Sololá	3	Barraneche	7	Julio	2023-07-07T00:00:00	2024-11-06T16:00:00	1	Precipitación	2.2
36040	7	Sololá	701	Sololá	3	Barraneche	7	Julio	2023-07-07T00:00:00	2024-11-06T16:00:00	8	Radiación solar	53
36041	7	Sololá	701	Sololá	3	Barraneche	7	Julio	2023-07-07T00:00:00	2024-11-06T17:00:00	2	Temperatura media	13.2
36042	7	Sololá	701	Sololá	3	Barraneche	7	Julio	2023-07-07T00:00:00	2024-11-06T17:00:00	4	Temperatura máxima	14
36043	7	Sololá	701	Sololá	3	Barraneche	7	Julio	2023-07-07T00:00:00	2024-11-06T17:00:00	3	Temperatura mínima	13
36044	7	Sololá	701	Sololá	3	Barraneche	7	Julio	2023-07-07T00:00:00	2024-11-06T17:00:00	5	Humedad	84
36045	7	Sololá	701	Sololá	3	Barraneche	7	Julio	2023-07-07T00:00:00	2024-11-06T17:00:00	6	Velocidad del viento	4.8
36046	7	Sololá	701	Sololá	3	Barraneche	7	Julio	2023-07-07T00:00:00	2024-11-06T17:00:00	7	Dirección del viento	4.83
36047	7	Sololá	701	Sololá	3	Barraneche	7	Julio	2023-07-07T00:00:00	2024-11-06T17:00:00	1	Precipitación	6.8
36048	7	Sololá	701	Sololá	3	Barraneche	7	Julio	2023-07-07T00:00:00	2024-11-06T17:00:00	8	Radiación solar	16
36049	7	Sololá	701	Sololá	3	Barraneche	7	Julio	2023-07-07T00:00:00	2024-11-06T18:00:00	2	Temperatura media	13.4
36050	7	Sololá	701	Sololá	3	Barraneche	7	Julio	2023-07-07T00:00:00	2024-11-06T18:00:00	4	Temperatura máxima	13.4
36051	7	Sololá	701	Sololá	3	Barraneche	7	Julio	2023-07-07T00:00:00	2024-11-06T18:00:00	3	Temperatura mínima	13.2
36052	7	Sololá	701	Sololá	3	Barraneche	7	Julio	2023-07-07T00:00:00	2024-11-06T18:00:00	5	Humedad	84
36053	7	Sololá	701	Sololá	3	Barraneche	7	Julio	2023-07-07T00:00:00	2024-11-06T18:00:00	6	Velocidad del viento	1.6
36054	7	Sololá	701	Sololá	3	Barraneche	7	Julio	2023-07-07T00:00:00	2024-11-06T18:00:00	7	Dirección del viento	1.61
36055	7	Sololá	701	Sololá	3	Barraneche	7	Julio	2023-07-07T00:00:00	2024-11-06T18:00:00	1	Precipitación	0.8
36056	7	Sololá	701	Sololá	3	Barraneche	7	Julio	2023-07-07T00:00:00	2024-11-06T18:00:00	8	Radiación solar	20
36057	7	Sololá	701	Sololá	3	Barraneche	7	Julio	2023-07-07T00:00:00	2024-11-06T19:00:00	2	Temperatura media	13.6
36058	7	Sololá	701	Sololá	3	Barraneche	7	Julio	2023-07-07T00:00:00	2024-11-06T19:00:00	4	Temperatura máxima	13.6
36059	7	Sololá	701	Sololá	3	Barraneche	7	Julio	2023-07-07T00:00:00	2024-11-06T19:00:00	3	Temperatura mínima	13.3
36060	7	Sololá	701	Sololá	3	Barraneche	7	Julio	2023-07-07T00:00:00	2024-11-06T19:00:00	5	Humedad	84
36061	7	Sololá	701	Sololá	3	Barraneche	7	Julio	2023-07-07T00:00:00	2024-11-06T19:00:00	6	Velocidad del viento	1.6
36062	7	Sololá	701	Sololá	3	Barraneche	7	Julio	2023-07-07T00:00:00	2024-11-06T19:00:00	7	Dirección del viento	1.61
36063	7	Sololá	701	Sololá	3	Barraneche	7	Julio	2023-07-07T00:00:00	2024-11-06T19:00:00	1	Precipitación	0
36064	7	Sololá	701	Sololá	3	Barraneche	7	Julio	2023-07-07T00:00:00	2024-11-06T19:00:00	8	Radiación solar	0
36065	7	Sololá	701	Sololá	3	Barraneche	7	Julio	2023-07-07T00:00:00	2024-11-06T20:00:00	2	Temperatura media	13.4
36066	7	Sololá	701	Sololá	3	Barraneche	7	Julio	2023-07-07T00:00:00	2024-11-06T20:00:00	4	Temperatura máxima	13.6
36067	7	Sololá	701	Sololá	3	Barraneche	7	Julio	2023-07-07T00:00:00	2024-11-06T20:00:00	3	Temperatura mínima	13.4
36068	7	Sololá	701	Sololá	3	Barraneche	7	Julio	2023-07-07T00:00:00	2024-11-06T20:00:00	5	Humedad	85
36069	7	Sololá	701	Sololá	3	Barraneche	7	Julio	2023-07-07T00:00:00	2024-11-06T20:00:00	6	Velocidad del viento	1.6
36070	7	Sololá	701	Sololá	3	Barraneche	7	Julio	2023-07-07T00:00:00	2024-11-06T20:00:00	7	Dirección del viento	1.61
36071	7	Sololá	701	Sololá	3	Barraneche	7	Julio	2023-07-07T00:00:00	2024-11-06T20:00:00	1	Precipitación	0
36072	7	Sololá	701	Sololá	3	Barraneche	7	Julio	2023-07-07T00:00:00	2024-11-06T20:00:00	8	Radiación solar	0
36073	7	Sololá	701	Sololá	3	Barraneche	7	Julio	2023-07-07T00:00:00	2024-11-06T21:00:00	2	Temperatura media	13.1
36074	7	Sololá	701	Sololá	3	Barraneche	7	Julio	2023-07-07T00:00:00	2024-11-06T21:00:00	4	Temperatura máxima	13.4
36075	7	Sololá	701	Sololá	3	Barraneche	7	Julio	2023-07-07T00:00:00	2024-11-06T21:00:00	3	Temperatura mínima	13.1
36076	7	Sololá	701	Sololá	3	Barraneche	7	Julio	2023-07-07T00:00:00	2024-11-06T21:00:00	5	Humedad	85
36077	7	Sololá	701	Sololá	3	Barraneche	7	Julio	2023-07-07T00:00:00	2024-11-06T21:00:00	6	Velocidad del viento	1.6
36078	7	Sololá	701	Sololá	3	Barraneche	7	Julio	2023-07-07T00:00:00	2024-11-06T21:00:00	7	Dirección del viento	1.61
36079	7	Sololá	701	Sololá	3	Barraneche	7	Julio	2023-07-07T00:00:00	2024-11-06T21:00:00	1	Precipitación	0
36080	7	Sololá	701	Sololá	3	Barraneche	7	Julio	2023-07-07T00:00:00	2024-11-06T21:00:00	8	Radiación solar	0
36081	7	Sololá	701	Sololá	3	Barraneche	7	Julio	2023-07-07T00:00:00	2024-11-06T22:00:00	2	Temperatura media	12.9
36082	7	Sololá	701	Sololá	3	Barraneche	7	Julio	2023-07-07T00:00:00	2024-11-06T22:00:00	4	Temperatura máxima	13.3
36083	7	Sololá	701	Sololá	3	Barraneche	7	Julio	2023-07-07T00:00:00	2024-11-06T22:00:00	3	Temperatura mínima	12.9
36084	7	Sololá	701	Sololá	3	Barraneche	7	Julio	2023-07-07T00:00:00	2024-11-06T22:00:00	5	Humedad	85
36085	7	Sololá	701	Sololá	3	Barraneche	7	Julio	2023-07-07T00:00:00	2024-11-06T22:00:00	6	Velocidad del viento	1.6
36086	7	Sololá	701	Sololá	3	Barraneche	7	Julio	2023-07-07T00:00:00	2024-11-06T22:00:00	7	Dirección del viento	1.61
36087	7	Sololá	701	Sololá	3	Barraneche	7	Julio	2023-07-07T00:00:00	2024-11-06T22:00:00	1	Precipitación	0
36088	7	Sololá	701	Sololá	3	Barraneche	7	Julio	2023-07-07T00:00:00	2024-11-06T22:00:00	8	Radiación solar	0
36089	7	Sololá	701	Sololá	3	Barraneche	7	Julio	2023-07-07T00:00:00	2024-11-06T23:00:00	2	Temperatura media	12.3
36090	7	Sololá	701	Sololá	3	Barraneche	7	Julio	2023-07-07T00:00:00	2024-11-06T23:00:00	4	Temperatura máxima	12.9
36091	7	Sololá	701	Sololá	3	Barraneche	7	Julio	2023-07-07T00:00:00	2024-11-06T23:00:00	3	Temperatura mínima	12.3
36092	7	Sololá	701	Sololá	3	Barraneche	7	Julio	2023-07-07T00:00:00	2024-11-06T23:00:00	5	Humedad	84
36093	7	Sololá	701	Sololá	3	Barraneche	7	Julio	2023-07-07T00:00:00	2024-11-06T23:00:00	6	Velocidad del viento	3.2
36094	7	Sololá	701	Sololá	3	Barraneche	7	Julio	2023-07-07T00:00:00	2024-11-06T23:00:00	7	Dirección del viento	3.22
36095	7	Sololá	701	Sololá	3	Barraneche	7	Julio	2023-07-07T00:00:00	2024-11-06T23:00:00	1	Precipitación	0
36096	7	Sololá	701	Sololá	3	Barraneche	7	Julio	2023-07-07T00:00:00	2024-11-06T23:00:00	8	Radiación solar	0
36097	7	Sololá	701	Sololá	3	Barraneche	7	Julio	2023-08-07T00:00:00	2024-11-06T00:00:00	2	Temperatura media	12.4
36098	7	Sololá	701	Sololá	3	Barraneche	7	Julio	2023-08-07T00:00:00	2024-11-06T00:00:00	4	Temperatura máxima	12.4
36099	7	Sololá	701	Sololá	3	Barraneche	7	Julio	2023-08-07T00:00:00	2024-11-06T00:00:00	3	Temperatura mínima	12.2
36100	7	Sololá	701	Sololá	3	Barraneche	7	Julio	2023-08-07T00:00:00	2024-11-06T00:00:00	5	Humedad	84
36101	7	Sololá	701	Sololá	3	Barraneche	7	Julio	2023-08-07T00:00:00	2024-11-06T00:00:00	6	Velocidad del viento	3.2
36102	7	Sololá	701	Sololá	3	Barraneche	7	Julio	2023-08-07T00:00:00	2024-11-06T00:00:00	7	Dirección del viento	3.22
36103	7	Sololá	701	Sololá	3	Barraneche	7	Julio	2023-08-07T00:00:00	2024-11-06T00:00:00	1	Precipitación	0
36104	7	Sololá	701	Sololá	3	Barraneche	7	Julio	2023-08-07T00:00:00	2024-11-06T00:00:00	8	Radiación solar	0
36105	7	Sololá	701	Sololá	3	Barraneche	7	Julio	2023-08-07T00:00:00	2024-11-06T01:00:00	2	Temperatura media	12.6
36106	7	Sololá	701	Sololá	3	Barraneche	7	Julio	2023-08-07T00:00:00	2024-11-06T01:00:00	4	Temperatura máxima	12.7
36107	7	Sololá	701	Sololá	3	Barraneche	7	Julio	2023-08-07T00:00:00	2024-11-06T01:00:00	3	Temperatura mínima	12.4
36108	7	Sololá	701	Sololá	3	Barraneche	7	Julio	2023-08-07T00:00:00	2024-11-06T01:00:00	5	Humedad	84
36109	7	Sololá	701	Sololá	3	Barraneche	7	Julio	2023-08-07T00:00:00	2024-11-06T01:00:00	6	Velocidad del viento	3.2
36110	7	Sololá	701	Sololá	3	Barraneche	7	Julio	2023-08-07T00:00:00	2024-11-06T01:00:00	7	Dirección del viento	3.22
36111	7	Sololá	701	Sololá	3	Barraneche	7	Julio	2023-08-07T00:00:00	2024-11-06T01:00:00	1	Precipitación	0.4
36112	7	Sololá	701	Sololá	3	Barraneche	7	Julio	2023-08-07T00:00:00	2024-11-06T01:00:00	8	Radiación solar	0
36113	7	Sololá	701	Sololá	3	Barraneche	7	Julio	2023-08-07T00:00:00	2024-11-06T02:00:00	2	Temperatura media	12.7
36114	7	Sololá	701	Sololá	3	Barraneche	7	Julio	2023-08-07T00:00:00	2024-11-06T02:00:00	4	Temperatura máxima	12.7
36115	7	Sololá	701	Sololá	3	Barraneche	7	Julio	2023-08-07T00:00:00	2024-11-06T02:00:00	3	Temperatura mínima	12.6
36116	7	Sololá	701	Sololá	3	Barraneche	7	Julio	2023-08-07T00:00:00	2024-11-06T02:00:00	5	Humedad	85
36117	7	Sololá	701	Sololá	3	Barraneche	7	Julio	2023-08-07T00:00:00	2024-11-06T02:00:00	6	Velocidad del viento	1.6
36118	7	Sololá	701	Sololá	3	Barraneche	7	Julio	2023-08-07T00:00:00	2024-11-06T02:00:00	7	Dirección del viento	1.61
36119	7	Sololá	701	Sololá	3	Barraneche	7	Julio	2023-08-07T00:00:00	2024-11-06T02:00:00	1	Precipitación	0
36120	7	Sololá	701	Sololá	3	Barraneche	7	Julio	2023-08-07T00:00:00	2024-11-06T02:00:00	8	Radiación solar	0
36121	7	Sololá	701	Sololá	3	Barraneche	7	Julio	2023-08-07T00:00:00	2024-11-06T03:00:00	2	Temperatura media	12.4
36122	7	Sololá	701	Sololá	3	Barraneche	7	Julio	2023-08-07T00:00:00	2024-11-06T03:00:00	4	Temperatura máxima	12.7
36123	7	Sololá	701	Sololá	3	Barraneche	7	Julio	2023-08-07T00:00:00	2024-11-06T03:00:00	3	Temperatura mínima	12.4
36124	7	Sololá	701	Sololá	3	Barraneche	7	Julio	2023-08-07T00:00:00	2024-11-06T03:00:00	5	Humedad	85
36125	7	Sololá	701	Sololá	3	Barraneche	7	Julio	2023-08-07T00:00:00	2024-11-06T03:00:00	6	Velocidad del viento	1.6
36126	7	Sololá	701	Sololá	3	Barraneche	7	Julio	2023-08-07T00:00:00	2024-11-06T03:00:00	7	Dirección del viento	1.61
36127	7	Sololá	701	Sololá	3	Barraneche	7	Julio	2023-08-07T00:00:00	2024-11-06T03:00:00	1	Precipitación	0
36128	7	Sololá	701	Sololá	3	Barraneche	7	Julio	2023-08-07T00:00:00	2024-11-06T03:00:00	8	Radiación solar	0
36129	7	Sololá	701	Sololá	3	Barraneche	7	Julio	2023-08-07T00:00:00	2024-11-06T04:00:00	2	Temperatura media	12.2
36130	7	Sololá	701	Sololá	3	Barraneche	7	Julio	2023-08-07T00:00:00	2024-11-06T04:00:00	4	Temperatura máxima	12.4
36131	7	Sololá	701	Sololá	3	Barraneche	7	Julio	2023-08-07T00:00:00	2024-11-06T04:00:00	3	Temperatura mínima	12.1
36132	7	Sololá	701	Sololá	3	Barraneche	7	Julio	2023-08-07T00:00:00	2024-11-06T04:00:00	5	Humedad	84
36133	7	Sololá	701	Sololá	3	Barraneche	7	Julio	2023-08-07T00:00:00	2024-11-06T04:00:00	6	Velocidad del viento	3.2
36134	7	Sololá	701	Sololá	3	Barraneche	7	Julio	2023-08-07T00:00:00	2024-11-06T04:00:00	7	Dirección del viento	3.22
36135	7	Sololá	701	Sololá	3	Barraneche	7	Julio	2023-08-07T00:00:00	2024-11-06T04:00:00	1	Precipitación	0
36136	7	Sololá	701	Sololá	3	Barraneche	7	Julio	2023-08-07T00:00:00	2024-11-06T04:00:00	8	Radiación solar	0
36137	7	Sololá	701	Sololá	3	Barraneche	7	Julio	2023-08-07T00:00:00	2024-11-06T05:00:00	2	Temperatura media	11.7
36138	7	Sololá	701	Sololá	3	Barraneche	7	Julio	2023-08-07T00:00:00	2024-11-06T05:00:00	4	Temperatura máxima	12.2
36139	7	Sololá	701	Sololá	3	Barraneche	7	Julio	2023-08-07T00:00:00	2024-11-06T05:00:00	3	Temperatura mínima	11.6
36140	7	Sololá	701	Sololá	3	Barraneche	7	Julio	2023-08-07T00:00:00	2024-11-06T05:00:00	5	Humedad	84
36141	7	Sololá	701	Sololá	3	Barraneche	7	Julio	2023-08-07T00:00:00	2024-11-06T05:00:00	6	Velocidad del viento	1.6
36142	7	Sololá	701	Sololá	3	Barraneche	7	Julio	2023-08-07T00:00:00	2024-11-06T05:00:00	7	Dirección del viento	1.61
36143	7	Sololá	701	Sololá	3	Barraneche	7	Julio	2023-08-07T00:00:00	2024-11-06T05:00:00	1	Precipitación	0
36144	7	Sololá	701	Sololá	3	Barraneche	7	Julio	2023-08-07T00:00:00	2024-11-06T05:00:00	8	Radiación solar	0
36145	7	Sololá	701	Sololá	3	Barraneche	7	Julio	2023-08-07T00:00:00	2024-11-06T06:00:00	2	Temperatura media	11.4
36146	7	Sololá	701	Sololá	3	Barraneche	7	Julio	2023-08-07T00:00:00	2024-11-06T06:00:00	4	Temperatura máxima	11.7
36147	7	Sololá	701	Sololá	3	Barraneche	7	Julio	2023-08-07T00:00:00	2024-11-06T06:00:00	3	Temperatura mínima	11.2
36148	7	Sololá	701	Sololá	3	Barraneche	7	Julio	2023-08-07T00:00:00	2024-11-06T06:00:00	5	Humedad	85
36149	7	Sololá	701	Sololá	3	Barraneche	7	Julio	2023-08-07T00:00:00	2024-11-06T06:00:00	6	Velocidad del viento	3.2
36150	7	Sololá	701	Sololá	3	Barraneche	7	Julio	2023-08-07T00:00:00	2024-11-06T06:00:00	7	Dirección del viento	3.22
36151	7	Sololá	701	Sololá	3	Barraneche	7	Julio	2023-08-07T00:00:00	2024-11-06T06:00:00	1	Precipitación	0
36152	7	Sololá	701	Sololá	3	Barraneche	7	Julio	2023-08-07T00:00:00	2024-11-06T06:00:00	8	Radiación solar	2
36153	7	Sololá	701	Sololá	3	Barraneche	7	Julio	2023-08-07T00:00:00	2024-11-06T07:00:00	2	Temperatura media	12.4
36154	7	Sololá	701	Sololá	3	Barraneche	7	Julio	2023-08-07T00:00:00	2024-11-06T07:00:00	4	Temperatura máxima	12.4
36155	7	Sololá	701	Sololá	3	Barraneche	7	Julio	2023-08-07T00:00:00	2024-11-06T07:00:00	3	Temperatura mínima	11.4
36156	7	Sololá	701	Sololá	3	Barraneche	7	Julio	2023-08-07T00:00:00	2024-11-06T07:00:00	5	Humedad	85
36157	7	Sololá	701	Sololá	3	Barraneche	7	Julio	2023-08-07T00:00:00	2024-11-06T07:00:00	6	Velocidad del viento	3.2
36158	7	Sololá	701	Sololá	3	Barraneche	7	Julio	2023-08-07T00:00:00	2024-11-06T07:00:00	7	Dirección del viento	3.22
36159	7	Sololá	701	Sololá	3	Barraneche	7	Julio	2023-08-07T00:00:00	2024-11-06T07:00:00	1	Precipitación	0
36160	7	Sololá	701	Sololá	3	Barraneche	7	Julio	2023-08-07T00:00:00	2024-11-06T07:00:00	8	Radiación solar	46
36161	7	Sololá	701	Sololá	3	Barraneche	7	Julio	2023-08-07T00:00:00	2024-11-06T08:00:00	2	Temperatura media	14.3
36162	7	Sololá	701	Sololá	3	Barraneche	7	Julio	2023-08-07T00:00:00	2024-11-06T08:00:00	4	Temperatura máxima	14.3
36163	7	Sololá	701	Sololá	3	Barraneche	7	Julio	2023-08-07T00:00:00	2024-11-06T08:00:00	3	Temperatura mínima	12.5
36164	7	Sololá	701	Sololá	3	Barraneche	7	Julio	2023-08-07T00:00:00	2024-11-06T08:00:00	5	Humedad	81
36165	7	Sololá	701	Sololá	3	Barraneche	7	Julio	2023-08-07T00:00:00	2024-11-06T08:00:00	6	Velocidad del viento	1.6
36166	7	Sololá	701	Sololá	3	Barraneche	7	Julio	2023-08-07T00:00:00	2024-11-06T08:00:00	7	Dirección del viento	1.61
36167	7	Sololá	701	Sololá	3	Barraneche	7	Julio	2023-08-07T00:00:00	2024-11-06T08:00:00	1	Precipitación	0
36168	7	Sololá	701	Sololá	3	Barraneche	7	Julio	2023-08-07T00:00:00	2024-11-06T08:00:00	8	Radiación solar	145
36169	7	Sololá	701	Sololá	3	Barraneche	7	Julio	2023-08-07T00:00:00	2024-11-06T09:00:00	2	Temperatura media	14.8
36170	7	Sololá	701	Sololá	3	Barraneche	7	Julio	2023-08-07T00:00:00	2024-11-06T09:00:00	4	Temperatura máxima	15.1
36171	7	Sololá	701	Sololá	3	Barraneche	7	Julio	2023-08-07T00:00:00	2024-11-06T09:00:00	3	Temperatura mínima	14.2
36172	7	Sololá	701	Sololá	3	Barraneche	7	Julio	2023-08-07T00:00:00	2024-11-06T09:00:00	5	Humedad	79
36173	7	Sololá	701	Sololá	3	Barraneche	7	Julio	2023-08-07T00:00:00	2024-11-06T09:00:00	6	Velocidad del viento	3.2
36174	7	Sololá	701	Sololá	3	Barraneche	7	Julio	2023-08-07T00:00:00	2024-11-06T09:00:00	7	Dirección del viento	3.22
36175	7	Sololá	701	Sololá	3	Barraneche	7	Julio	2023-08-07T00:00:00	2024-11-06T09:00:00	1	Precipitación	0
36176	7	Sololá	701	Sololá	3	Barraneche	7	Julio	2023-08-07T00:00:00	2024-11-06T09:00:00	8	Radiación solar	286
36177	7	Sololá	701	Sololá	3	Barraneche	7	Julio	2023-08-07T00:00:00	2024-11-06T10:00:00	2	Temperatura media	15.6
36178	7	Sololá	701	Sololá	3	Barraneche	7	Julio	2023-08-07T00:00:00	2024-11-06T10:00:00	4	Temperatura máxima	15.6
36179	7	Sololá	701	Sololá	3	Barraneche	7	Julio	2023-08-07T00:00:00	2024-11-06T10:00:00	3	Temperatura mínima	14.6
36180	7	Sololá	701	Sololá	3	Barraneche	7	Julio	2023-08-07T00:00:00	2024-11-06T10:00:00	5	Humedad	76
36181	7	Sololá	701	Sololá	3	Barraneche	7	Julio	2023-08-07T00:00:00	2024-11-06T10:00:00	6	Velocidad del viento	3.2
36182	7	Sololá	701	Sololá	3	Barraneche	7	Julio	2023-08-07T00:00:00	2024-11-06T10:00:00	7	Dirección del viento	3.22
36183	7	Sololá	701	Sololá	3	Barraneche	7	Julio	2023-08-07T00:00:00	2024-11-06T10:00:00	1	Precipitación	0
36184	7	Sololá	701	Sololá	3	Barraneche	7	Julio	2023-08-07T00:00:00	2024-11-06T10:00:00	8	Radiación solar	332
36185	7	Sololá	701	Sololá	3	Barraneche	7	Julio	2023-08-07T00:00:00	2024-11-06T11:00:00	2	Temperatura media	15
36186	7	Sololá	701	Sololá	3	Barraneche	7	Julio	2023-08-07T00:00:00	2024-11-06T11:00:00	4	Temperatura máxima	15.8
36187	7	Sololá	701	Sololá	3	Barraneche	7	Julio	2023-08-07T00:00:00	2024-11-06T11:00:00	3	Temperatura mínima	14.9
36188	7	Sololá	701	Sololá	3	Barraneche	7	Julio	2023-08-07T00:00:00	2024-11-06T11:00:00	5	Humedad	79
36189	7	Sololá	701	Sololá	3	Barraneche	7	Julio	2023-08-07T00:00:00	2024-11-06T11:00:00	6	Velocidad del viento	6.4
36190	7	Sololá	701	Sololá	3	Barraneche	7	Julio	2023-08-07T00:00:00	2024-11-06T11:00:00	7	Dirección del viento	6.44
36191	7	Sololá	701	Sololá	3	Barraneche	7	Julio	2023-08-07T00:00:00	2024-11-06T11:00:00	1	Precipitación	0
36192	7	Sololá	701	Sololá	3	Barraneche	7	Julio	2023-08-07T00:00:00	2024-11-06T11:00:00	8	Radiación solar	174
36193	7	Sololá	701	Sololá	3	Barraneche	7	Julio	2023-08-07T00:00:00	2024-11-06T12:00:00	2	Temperatura media	14.9
36194	7	Sololá	701	Sololá	3	Barraneche	7	Julio	2023-08-07T00:00:00	2024-11-06T12:00:00	4	Temperatura máxima	15
36195	7	Sololá	701	Sololá	3	Barraneche	7	Julio	2023-08-07T00:00:00	2024-11-06T12:00:00	3	Temperatura mínima	14.3
36196	7	Sololá	701	Sololá	3	Barraneche	7	Julio	2023-08-07T00:00:00	2024-11-06T12:00:00	5	Humedad	80
36197	7	Sololá	701	Sololá	3	Barraneche	7	Julio	2023-08-07T00:00:00	2024-11-06T12:00:00	6	Velocidad del viento	3.2
36198	7	Sololá	701	Sololá	3	Barraneche	7	Julio	2023-08-07T00:00:00	2024-11-06T12:00:00	7	Dirección del viento	3.22
36199	7	Sololá	701	Sololá	3	Barraneche	7	Julio	2023-08-07T00:00:00	2024-11-06T12:00:00	1	Precipitación	0.2
36200	7	Sololá	701	Sololá	3	Barraneche	7	Julio	2023-08-07T00:00:00	2024-11-06T12:00:00	8	Radiación solar	159
36201	7	Sololá	701	Sololá	3	Barraneche	7	Julio	2023-08-07T00:00:00	2024-11-06T13:00:00	2	Temperatura media	16.4
36202	7	Sololá	701	Sololá	3	Barraneche	7	Julio	2023-08-07T00:00:00	2024-11-06T13:00:00	4	Temperatura máxima	16.4
36203	7	Sololá	701	Sololá	3	Barraneche	7	Julio	2023-08-07T00:00:00	2024-11-06T13:00:00	3	Temperatura mínima	14.9
36204	7	Sololá	701	Sololá	3	Barraneche	7	Julio	2023-08-07T00:00:00	2024-11-06T13:00:00	5	Humedad	74
36205	7	Sololá	701	Sololá	3	Barraneche	7	Julio	2023-08-07T00:00:00	2024-11-06T13:00:00	6	Velocidad del viento	3.2
36206	7	Sololá	701	Sololá	3	Barraneche	7	Julio	2023-08-07T00:00:00	2024-11-06T13:00:00	7	Dirección del viento	3.22
36207	7	Sololá	701	Sololá	3	Barraneche	7	Julio	2023-08-07T00:00:00	2024-11-06T13:00:00	1	Precipitación	0
36208	7	Sololá	701	Sololá	3	Barraneche	7	Julio	2023-08-07T00:00:00	2024-11-06T13:00:00	8	Radiación solar	373
36209	7	Sololá	701	Sololá	3	Barraneche	7	Julio	2023-08-07T00:00:00	2024-11-06T14:00:00	2	Temperatura media	15.2
36210	7	Sololá	701	Sololá	3	Barraneche	7	Julio	2023-08-07T00:00:00	2024-11-06T14:00:00	4	Temperatura máxima	16.7
36211	7	Sololá	701	Sololá	3	Barraneche	7	Julio	2023-08-07T00:00:00	2024-11-06T14:00:00	3	Temperatura mínima	14.9
36212	7	Sololá	701	Sololá	3	Barraneche	7	Julio	2023-08-07T00:00:00	2024-11-06T14:00:00	5	Humedad	80
36213	7	Sololá	701	Sololá	3	Barraneche	7	Julio	2023-08-07T00:00:00	2024-11-06T14:00:00	6	Velocidad del viento	6.4
36214	7	Sololá	701	Sololá	3	Barraneche	7	Julio	2023-08-07T00:00:00	2024-11-06T14:00:00	7	Dirección del viento	6.44
36215	7	Sololá	701	Sololá	3	Barraneche	7	Julio	2023-08-07T00:00:00	2024-11-06T14:00:00	1	Precipitación	3.4
36216	7	Sololá	701	Sololá	3	Barraneche	7	Julio	2023-08-07T00:00:00	2024-11-06T14:00:00	8	Radiación solar	223
36217	7	Sololá	701	Sololá	3	Barraneche	7	Julio	2023-08-07T00:00:00	2024-11-06T15:00:00	2	Temperatura media	16.5
36218	7	Sololá	701	Sololá	3	Barraneche	7	Julio	2023-08-07T00:00:00	2024-11-06T15:00:00	4	Temperatura máxima	16.5
36219	7	Sololá	701	Sololá	3	Barraneche	7	Julio	2023-08-07T00:00:00	2024-11-06T15:00:00	3	Temperatura mínima	15.2
36220	7	Sololá	701	Sololá	3	Barraneche	7	Julio	2023-08-07T00:00:00	2024-11-06T15:00:00	5	Humedad	74
36221	7	Sololá	701	Sololá	3	Barraneche	7	Julio	2023-08-07T00:00:00	2024-11-06T15:00:00	6	Velocidad del viento	4.8
36222	7	Sololá	701	Sololá	3	Barraneche	7	Julio	2023-08-07T00:00:00	2024-11-06T15:00:00	7	Dirección del viento	4.83
36223	7	Sololá	701	Sololá	3	Barraneche	7	Julio	2023-08-07T00:00:00	2024-11-06T15:00:00	1	Precipitación	0.2
36224	7	Sololá	701	Sololá	3	Barraneche	7	Julio	2023-08-07T00:00:00	2024-11-06T15:00:00	8	Radiación solar	462
36225	7	Sololá	701	Sololá	3	Barraneche	7	Julio	2023-08-07T00:00:00	2024-11-06T16:00:00	2	Temperatura media	14.1
36226	7	Sololá	701	Sololá	3	Barraneche	7	Julio	2023-08-07T00:00:00	2024-11-06T16:00:00	4	Temperatura máxima	16.6
36227	7	Sololá	701	Sololá	3	Barraneche	7	Julio	2023-08-07T00:00:00	2024-11-06T16:00:00	3	Temperatura mínima	14
36228	7	Sololá	701	Sololá	3	Barraneche	7	Julio	2023-08-07T00:00:00	2024-11-06T16:00:00	5	Humedad	82
36229	7	Sololá	701	Sololá	3	Barraneche	7	Julio	2023-08-07T00:00:00	2024-11-06T16:00:00	6	Velocidad del viento	8
36230	7	Sololá	701	Sololá	3	Barraneche	7	Julio	2023-08-07T00:00:00	2024-11-06T16:00:00	7	Dirección del viento	8.05
36231	7	Sololá	701	Sololá	3	Barraneche	7	Julio	2023-08-07T00:00:00	2024-11-06T16:00:00	1	Precipitación	1.6
36232	7	Sololá	701	Sololá	3	Barraneche	7	Julio	2023-08-07T00:00:00	2024-11-06T16:00:00	8	Radiación solar	244
36233	7	Sololá	701	Sololá	3	Barraneche	7	Julio	2023-08-07T00:00:00	2024-11-06T17:00:00	2	Temperatura media	13.8
36234	7	Sololá	701	Sololá	3	Barraneche	7	Julio	2023-08-07T00:00:00	2024-11-06T17:00:00	4	Temperatura máxima	14.4
36235	7	Sololá	701	Sololá	3	Barraneche	7	Julio	2023-08-07T00:00:00	2024-11-06T17:00:00	3	Temperatura mínima	13.8
36236	7	Sololá	701	Sololá	3	Barraneche	7	Julio	2023-08-07T00:00:00	2024-11-06T17:00:00	5	Humedad	81
36237	7	Sololá	701	Sololá	3	Barraneche	7	Julio	2023-08-07T00:00:00	2024-11-06T17:00:00	6	Velocidad del viento	3.2
36238	7	Sololá	701	Sololá	3	Barraneche	7	Julio	2023-08-07T00:00:00	2024-11-06T17:00:00	7	Dirección del viento	3.22
36239	7	Sololá	701	Sololá	3	Barraneche	7	Julio	2023-08-07T00:00:00	2024-11-06T17:00:00	1	Precipitación	1.6
36240	7	Sololá	701	Sololá	3	Barraneche	7	Julio	2023-08-07T00:00:00	2024-11-06T17:00:00	8	Radiación solar	95
36241	7	Sololá	701	Sololá	3	Barraneche	7	Julio	2023-08-07T00:00:00	2024-11-06T18:00:00	2	Temperatura media	13.7
36242	7	Sololá	701	Sololá	3	Barraneche	7	Julio	2023-08-07T00:00:00	2024-11-06T18:00:00	4	Temperatura máxima	13.9
36243	7	Sololá	701	Sololá	3	Barraneche	7	Julio	2023-08-07T00:00:00	2024-11-06T18:00:00	3	Temperatura mínima	13.4
36244	7	Sololá	701	Sololá	3	Barraneche	7	Julio	2023-08-07T00:00:00	2024-11-06T18:00:00	5	Humedad	83
36245	7	Sololá	701	Sololá	3	Barraneche	7	Julio	2023-08-07T00:00:00	2024-11-06T18:00:00	6	Velocidad del viento	1.6
36246	7	Sololá	701	Sololá	3	Barraneche	7	Julio	2023-08-07T00:00:00	2024-11-06T18:00:00	7	Dirección del viento	1.61
36247	7	Sololá	701	Sololá	3	Barraneche	7	Julio	2023-08-07T00:00:00	2024-11-06T18:00:00	1	Precipitación	1.6
36248	7	Sololá	701	Sololá	3	Barraneche	7	Julio	2023-08-07T00:00:00	2024-11-06T18:00:00	8	Radiación solar	19
36249	7	Sololá	701	Sololá	3	Barraneche	7	Julio	2023-08-07T00:00:00	2024-11-06T19:00:00	2	Temperatura media	13.6
36250	7	Sololá	701	Sololá	3	Barraneche	7	Julio	2023-08-07T00:00:00	2024-11-06T19:00:00	4	Temperatura máxima	13.9
36251	7	Sololá	701	Sololá	3	Barraneche	7	Julio	2023-08-07T00:00:00	2024-11-06T19:00:00	3	Temperatura mínima	13.6
36252	7	Sololá	701	Sololá	3	Barraneche	7	Julio	2023-08-07T00:00:00	2024-11-06T19:00:00	5	Humedad	83
36253	7	Sololá	701	Sololá	3	Barraneche	7	Julio	2023-08-07T00:00:00	2024-11-06T19:00:00	6	Velocidad del viento	3.2
36254	7	Sololá	701	Sololá	3	Barraneche	7	Julio	2023-08-07T00:00:00	2024-11-06T19:00:00	7	Dirección del viento	3.22
36255	7	Sololá	701	Sololá	3	Barraneche	7	Julio	2023-08-07T00:00:00	2024-11-06T19:00:00	1	Precipitación	1
36256	7	Sololá	701	Sololá	3	Barraneche	7	Julio	2023-08-07T00:00:00	2024-11-06T19:00:00	8	Radiación solar	0
36257	7	Sololá	701	Sololá	3	Barraneche	7	Julio	2023-08-07T00:00:00	2024-11-06T20:00:00	2	Temperatura media	13.3
36258	7	Sololá	701	Sololá	3	Barraneche	7	Julio	2023-08-07T00:00:00	2024-11-06T20:00:00	4	Temperatura máxima	13.6
36259	7	Sololá	701	Sololá	3	Barraneche	7	Julio	2023-08-07T00:00:00	2024-11-06T20:00:00	3	Temperatura mínima	13.2
36260	7	Sololá	701	Sololá	3	Barraneche	7	Julio	2023-08-07T00:00:00	2024-11-06T20:00:00	5	Humedad	80
36261	7	Sololá	701	Sololá	3	Barraneche	7	Julio	2023-08-07T00:00:00	2024-11-06T20:00:00	6	Velocidad del viento	6.4
36262	7	Sololá	701	Sololá	3	Barraneche	7	Julio	2023-08-07T00:00:00	2024-11-06T20:00:00	7	Dirección del viento	6.44
36263	7	Sololá	701	Sololá	3	Barraneche	7	Julio	2023-08-07T00:00:00	2024-11-06T20:00:00	1	Precipitación	1.6
36264	7	Sololá	701	Sololá	3	Barraneche	7	Julio	2023-08-07T00:00:00	2024-11-06T20:00:00	8	Radiación solar	0
36265	7	Sololá	701	Sololá	3	Barraneche	7	Julio	2023-08-07T00:00:00	2024-11-06T21:00:00	2	Temperatura media	13.1
36266	7	Sololá	701	Sololá	3	Barraneche	7	Julio	2023-08-07T00:00:00	2024-11-06T21:00:00	4	Temperatura máxima	13.3
36267	7	Sololá	701	Sololá	3	Barraneche	7	Julio	2023-08-07T00:00:00	2024-11-06T21:00:00	3	Temperatura mínima	13.1
36268	7	Sololá	701	Sololá	3	Barraneche	7	Julio	2023-08-07T00:00:00	2024-11-06T21:00:00	5	Humedad	80
36269	7	Sololá	701	Sololá	3	Barraneche	7	Julio	2023-08-07T00:00:00	2024-11-06T21:00:00	6	Velocidad del viento	4.8
36270	7	Sololá	701	Sololá	3	Barraneche	7	Julio	2023-08-07T00:00:00	2024-11-06T21:00:00	7	Dirección del viento	4.83
36271	7	Sololá	701	Sololá	3	Barraneche	7	Julio	2023-08-07T00:00:00	2024-11-06T21:00:00	1	Precipitación	0.4
36272	7	Sololá	701	Sololá	3	Barraneche	7	Julio	2023-08-07T00:00:00	2024-11-06T21:00:00	8	Radiación solar	0
36273	7	Sololá	701	Sololá	3	Barraneche	7	Julio	2023-08-07T00:00:00	2024-11-06T22:00:00	2	Temperatura media	12.7
36274	7	Sololá	701	Sololá	3	Barraneche	7	Julio	2023-08-07T00:00:00	2024-11-06T22:00:00	4	Temperatura máxima	13.2
36275	7	Sololá	701	Sololá	3	Barraneche	7	Julio	2023-08-07T00:00:00	2024-11-06T22:00:00	3	Temperatura mínima	12.7
36276	7	Sololá	701	Sololá	3	Barraneche	7	Julio	2023-08-07T00:00:00	2024-11-06T22:00:00	5	Humedad	79
36277	7	Sololá	701	Sololá	3	Barraneche	7	Julio	2023-08-07T00:00:00	2024-11-06T22:00:00	6	Velocidad del viento	6.4
36278	7	Sololá	701	Sololá	3	Barraneche	7	Julio	2023-08-07T00:00:00	2024-11-06T22:00:00	7	Dirección del viento	6.44
36279	7	Sololá	701	Sololá	3	Barraneche	7	Julio	2023-08-07T00:00:00	2024-11-06T22:00:00	1	Precipitación	0
36280	7	Sololá	701	Sololá	3	Barraneche	7	Julio	2023-08-07T00:00:00	2024-11-06T22:00:00	8	Radiación solar	0
36281	7	Sololá	701	Sololá	3	Barraneche	7	Julio	2023-08-07T00:00:00	2024-11-06T23:00:00	2	Temperatura media	12.7
36282	7	Sololá	701	Sololá	3	Barraneche	7	Julio	2023-08-07T00:00:00	2024-11-06T23:00:00	4	Temperatura máxima	12.8
36283	7	Sololá	701	Sololá	3	Barraneche	7	Julio	2023-08-07T00:00:00	2024-11-06T23:00:00	3	Temperatura mínima	12.4
36284	7	Sololá	701	Sololá	3	Barraneche	7	Julio	2023-08-07T00:00:00	2024-11-06T23:00:00	5	Humedad	81
36285	7	Sololá	701	Sololá	3	Barraneche	7	Julio	2023-08-07T00:00:00	2024-11-06T23:00:00	6	Velocidad del viento	4.8
36286	7	Sololá	701	Sololá	3	Barraneche	7	Julio	2023-08-07T00:00:00	2024-11-06T23:00:00	7	Dirección del viento	4.83
36287	7	Sololá	701	Sololá	3	Barraneche	7	Julio	2023-08-07T00:00:00	2024-11-06T23:00:00	1	Precipitación	0
36288	7	Sololá	701	Sololá	3	Barraneche	7	Julio	2023-08-07T00:00:00	2024-11-06T23:00:00	8	Radiación solar	0
36289	7	Sololá	701	Sololá	3	Barraneche	7	Julio	2023-09-07T00:00:00	2024-11-06T00:00:00	2	Temperatura media	13.7
36290	7	Sololá	701	Sololá	3	Barraneche	7	Julio	2023-09-07T00:00:00	2024-11-06T00:00:00	4	Temperatura máxima	13.7
36291	7	Sololá	701	Sololá	3	Barraneche	7	Julio	2023-09-07T00:00:00	2024-11-06T00:00:00	3	Temperatura mínima	12.7
36292	7	Sololá	701	Sololá	3	Barraneche	7	Julio	2023-09-07T00:00:00	2024-11-06T00:00:00	5	Humedad	77
36293	7	Sololá	701	Sololá	3	Barraneche	7	Julio	2023-09-07T00:00:00	2024-11-06T00:00:00	6	Velocidad del viento	4.8
36294	7	Sololá	701	Sololá	3	Barraneche	7	Julio	2023-09-07T00:00:00	2024-11-06T00:00:00	7	Dirección del viento	4.83
36295	7	Sololá	701	Sololá	3	Barraneche	7	Julio	2023-09-07T00:00:00	2024-11-06T00:00:00	1	Precipitación	0
36296	7	Sololá	701	Sololá	3	Barraneche	7	Julio	2023-09-07T00:00:00	2024-11-06T00:00:00	8	Radiación solar	0
36297	7	Sololá	701	Sololá	3	Barraneche	7	Julio	2023-09-07T00:00:00	2024-11-06T01:00:00	2	Temperatura media	13.8
36298	7	Sololá	701	Sololá	3	Barraneche	7	Julio	2023-09-07T00:00:00	2024-11-06T01:00:00	4	Temperatura máxima	13.8
36299	7	Sololá	701	Sololá	3	Barraneche	7	Julio	2023-09-07T00:00:00	2024-11-06T01:00:00	3	Temperatura mínima	13.6
36300	7	Sololá	701	Sololá	3	Barraneche	7	Julio	2023-09-07T00:00:00	2024-11-06T01:00:00	5	Humedad	77
36301	7	Sololá	701	Sololá	3	Barraneche	7	Julio	2023-09-07T00:00:00	2024-11-06T01:00:00	6	Velocidad del viento	3.2
36302	7	Sololá	701	Sololá	3	Barraneche	7	Julio	2023-09-07T00:00:00	2024-11-06T01:00:00	7	Dirección del viento	3.22
36303	7	Sololá	701	Sololá	3	Barraneche	7	Julio	2023-09-07T00:00:00	2024-11-06T01:00:00	1	Precipitación	0
36304	7	Sololá	701	Sololá	3	Barraneche	7	Julio	2023-09-07T00:00:00	2024-11-06T01:00:00	8	Radiación solar	0
36305	7	Sololá	701	Sololá	3	Barraneche	7	Julio	2023-09-07T00:00:00	2024-11-06T02:00:00	2	Temperatura media	13.6
36306	7	Sololá	701	Sololá	3	Barraneche	7	Julio	2023-09-07T00:00:00	2024-11-06T02:00:00	4	Temperatura máxima	13.9
36307	7	Sololá	701	Sololá	3	Barraneche	7	Julio	2023-09-07T00:00:00	2024-11-06T02:00:00	3	Temperatura mínima	13.6
36308	7	Sololá	701	Sololá	3	Barraneche	7	Julio	2023-09-07T00:00:00	2024-11-06T02:00:00	5	Humedad	78
36309	7	Sololá	701	Sololá	3	Barraneche	7	Julio	2023-09-07T00:00:00	2024-11-06T02:00:00	6	Velocidad del viento	3.2
36310	7	Sololá	701	Sololá	3	Barraneche	7	Julio	2023-09-07T00:00:00	2024-11-06T02:00:00	7	Dirección del viento	3.22
36311	7	Sololá	701	Sololá	3	Barraneche	7	Julio	2023-09-07T00:00:00	2024-11-06T02:00:00	1	Precipitación	0
36312	7	Sololá	701	Sololá	3	Barraneche	7	Julio	2023-09-07T00:00:00	2024-11-06T02:00:00	8	Radiación solar	0
36313	7	Sololá	701	Sololá	3	Barraneche	7	Julio	2023-09-07T00:00:00	2024-11-06T03:00:00	2	Temperatura media	12.8
36314	7	Sololá	701	Sololá	3	Barraneche	7	Julio	2023-09-07T00:00:00	2024-11-06T03:00:00	4	Temperatura máxima	13.6
36315	7	Sololá	701	Sololá	3	Barraneche	7	Julio	2023-09-07T00:00:00	2024-11-06T03:00:00	3	Temperatura mínima	12.8
36316	7	Sololá	701	Sololá	3	Barraneche	7	Julio	2023-09-07T00:00:00	2024-11-06T03:00:00	5	Humedad	80
36317	7	Sololá	701	Sololá	3	Barraneche	7	Julio	2023-09-07T00:00:00	2024-11-06T03:00:00	6	Velocidad del viento	3.2
36318	7	Sololá	701	Sololá	3	Barraneche	7	Julio	2023-09-07T00:00:00	2024-11-06T03:00:00	7	Dirección del viento	3.22
36319	7	Sololá	701	Sololá	3	Barraneche	7	Julio	2023-09-07T00:00:00	2024-11-06T03:00:00	1	Precipitación	0
36320	7	Sololá	701	Sololá	3	Barraneche	7	Julio	2023-09-07T00:00:00	2024-11-06T03:00:00	8	Radiación solar	0
36321	7	Sololá	701	Sololá	3	Barraneche	7	Julio	2023-09-07T00:00:00	2024-11-06T04:00:00	2	Temperatura media	13.4
36322	7	Sololá	701	Sololá	3	Barraneche	7	Julio	2023-09-07T00:00:00	2024-11-06T04:00:00	4	Temperatura máxima	13.7
36323	7	Sololá	701	Sololá	3	Barraneche	7	Julio	2023-09-07T00:00:00	2024-11-06T04:00:00	3	Temperatura mínima	12.8
36324	7	Sololá	701	Sololá	3	Barraneche	7	Julio	2023-09-07T00:00:00	2024-11-06T04:00:00	5	Humedad	78
36325	7	Sololá	701	Sololá	3	Barraneche	7	Julio	2023-09-07T00:00:00	2024-11-06T04:00:00	6	Velocidad del viento	4.8
36326	7	Sololá	701	Sololá	3	Barraneche	7	Julio	2023-09-07T00:00:00	2024-11-06T04:00:00	7	Dirección del viento	4.83
36327	7	Sololá	701	Sololá	3	Barraneche	7	Julio	2023-09-07T00:00:00	2024-11-06T04:00:00	1	Precipitación	0
36328	7	Sololá	701	Sololá	3	Barraneche	7	Julio	2023-09-07T00:00:00	2024-11-06T04:00:00	8	Radiación solar	0
36329	7	Sololá	701	Sololá	3	Barraneche	7	Julio	2023-09-07T00:00:00	2024-11-06T05:00:00	2	Temperatura media	12.4
36330	7	Sololá	701	Sololá	3	Barraneche	7	Julio	2023-09-07T00:00:00	2024-11-06T05:00:00	4	Temperatura máxima	13.4
36331	7	Sololá	701	Sololá	3	Barraneche	7	Julio	2023-09-07T00:00:00	2024-11-06T05:00:00	3	Temperatura mínima	12.3
36332	7	Sololá	701	Sololá	3	Barraneche	7	Julio	2023-09-07T00:00:00	2024-11-06T05:00:00	5	Humedad	78
36333	7	Sololá	701	Sololá	3	Barraneche	7	Julio	2023-09-07T00:00:00	2024-11-06T05:00:00	6	Velocidad del viento	4.8
36334	7	Sololá	701	Sololá	3	Barraneche	7	Julio	2023-09-07T00:00:00	2024-11-06T05:00:00	7	Dirección del viento	4.83
36335	7	Sololá	701	Sololá	3	Barraneche	7	Julio	2023-09-07T00:00:00	2024-11-06T05:00:00	1	Precipitación	0
36336	7	Sololá	701	Sololá	3	Barraneche	7	Julio	2023-09-07T00:00:00	2024-11-06T05:00:00	8	Radiación solar	0
36337	7	Sololá	701	Sololá	3	Barraneche	7	Julio	2023-09-07T00:00:00	2024-11-06T06:00:00	2	Temperatura media	12.6
36338	7	Sololá	701	Sololá	3	Barraneche	7	Julio	2023-09-07T00:00:00	2024-11-06T06:00:00	4	Temperatura máxima	12.6
36339	7	Sololá	701	Sololá	3	Barraneche	7	Julio	2023-09-07T00:00:00	2024-11-06T06:00:00	3	Temperatura mínima	12.2
36340	7	Sololá	701	Sololá	3	Barraneche	7	Julio	2023-09-07T00:00:00	2024-11-06T06:00:00	5	Humedad	77
36341	7	Sololá	701	Sololá	3	Barraneche	7	Julio	2023-09-07T00:00:00	2024-11-06T06:00:00	6	Velocidad del viento	6.4
36342	7	Sololá	701	Sololá	3	Barraneche	7	Julio	2023-09-07T00:00:00	2024-11-06T06:00:00	7	Dirección del viento	6.44
36343	7	Sololá	701	Sololá	3	Barraneche	7	Julio	2023-09-07T00:00:00	2024-11-06T06:00:00	1	Precipitación	0
36344	7	Sololá	701	Sololá	3	Barraneche	7	Julio	2023-09-07T00:00:00	2024-11-06T06:00:00	8	Radiación solar	4
36345	7	Sololá	701	Sololá	3	Barraneche	7	Julio	2023-09-07T00:00:00	2024-11-06T07:00:00	2	Temperatura media	13.6
36346	7	Sololá	701	Sololá	3	Barraneche	7	Julio	2023-09-07T00:00:00	2024-11-06T07:00:00	4	Temperatura máxima	13.6
36347	7	Sololá	701	Sololá	3	Barraneche	7	Julio	2023-09-07T00:00:00	2024-11-06T07:00:00	3	Temperatura mínima	12.3
36348	7	Sololá	701	Sololá	3	Barraneche	7	Julio	2023-09-07T00:00:00	2024-11-06T07:00:00	5	Humedad	76
36349	7	Sololá	701	Sololá	3	Barraneche	7	Julio	2023-09-07T00:00:00	2024-11-06T07:00:00	6	Velocidad del viento	4.8
36350	7	Sololá	701	Sololá	3	Barraneche	7	Julio	2023-09-07T00:00:00	2024-11-06T07:00:00	7	Dirección del viento	4.83
36351	7	Sololá	701	Sololá	3	Barraneche	7	Julio	2023-09-07T00:00:00	2024-11-06T07:00:00	1	Precipitación	0
36352	7	Sololá	701	Sololá	3	Barraneche	7	Julio	2023-09-07T00:00:00	2024-11-06T07:00:00	8	Radiación solar	81
36353	7	Sololá	701	Sololá	3	Barraneche	7	Julio	2023-09-07T00:00:00	2024-11-06T08:00:00	2	Temperatura media	16.1
36354	7	Sololá	701	Sololá	3	Barraneche	7	Julio	2023-09-07T00:00:00	2024-11-06T08:00:00	4	Temperatura máxima	16.1
36355	7	Sololá	701	Sololá	3	Barraneche	7	Julio	2023-09-07T00:00:00	2024-11-06T08:00:00	3	Temperatura mínima	13.5
36356	7	Sololá	701	Sololá	3	Barraneche	7	Julio	2023-09-07T00:00:00	2024-11-06T08:00:00	5	Humedad	70
36357	7	Sololá	701	Sololá	3	Barraneche	7	Julio	2023-09-07T00:00:00	2024-11-06T08:00:00	6	Velocidad del viento	4.8
36358	7	Sololá	701	Sololá	3	Barraneche	7	Julio	2023-09-07T00:00:00	2024-11-06T08:00:00	7	Dirección del viento	4.83
36359	7	Sololá	701	Sololá	3	Barraneche	7	Julio	2023-09-07T00:00:00	2024-11-06T08:00:00	1	Precipitación	0
36360	7	Sololá	701	Sololá	3	Barraneche	7	Julio	2023-09-07T00:00:00	2024-11-06T08:00:00	8	Radiación solar	237
36361	7	Sololá	701	Sololá	3	Barraneche	7	Julio	2023-09-07T00:00:00	2024-11-06T09:00:00	2	Temperatura media	16.6
36362	7	Sololá	701	Sololá	3	Barraneche	7	Julio	2023-09-07T00:00:00	2024-11-06T09:00:00	4	Temperatura máxima	17.1
36363	7	Sololá	701	Sololá	3	Barraneche	7	Julio	2023-09-07T00:00:00	2024-11-06T09:00:00	3	Temperatura mínima	16.1
36364	7	Sololá	701	Sololá	3	Barraneche	7	Julio	2023-09-07T00:00:00	2024-11-06T09:00:00	5	Humedad	71
36365	7	Sololá	701	Sololá	3	Barraneche	7	Julio	2023-09-07T00:00:00	2024-11-06T09:00:00	6	Velocidad del viento	6.4
36366	7	Sololá	701	Sololá	3	Barraneche	7	Julio	2023-09-07T00:00:00	2024-11-06T09:00:00	7	Dirección del viento	6.44
36367	7	Sololá	701	Sololá	3	Barraneche	7	Julio	2023-09-07T00:00:00	2024-11-06T09:00:00	1	Precipitación	0
36368	7	Sololá	701	Sololá	3	Barraneche	7	Julio	2023-09-07T00:00:00	2024-11-06T09:00:00	8	Radiación solar	466
36369	7	Sololá	701	Sololá	3	Barraneche	7	Julio	2023-09-07T00:00:00	2024-11-06T10:00:00	2	Temperatura media	16.9
36370	7	Sololá	701	Sololá	3	Barraneche	7	Julio	2023-09-07T00:00:00	2024-11-06T10:00:00	4	Temperatura máxima	17.6
36371	7	Sololá	701	Sololá	3	Barraneche	7	Julio	2023-09-07T00:00:00	2024-11-06T10:00:00	3	Temperatura mínima	16.5
36372	7	Sololá	701	Sololá	3	Barraneche	7	Julio	2023-09-07T00:00:00	2024-11-06T10:00:00	5	Humedad	68
36373	7	Sololá	701	Sololá	3	Barraneche	7	Julio	2023-09-07T00:00:00	2024-11-06T10:00:00	6	Velocidad del viento	8
36374	7	Sololá	701	Sololá	3	Barraneche	7	Julio	2023-09-07T00:00:00	2024-11-06T10:00:00	7	Dirección del viento	8.05
36375	7	Sololá	701	Sololá	3	Barraneche	7	Julio	2023-09-07T00:00:00	2024-11-06T10:00:00	1	Precipitación	0
36376	7	Sololá	701	Sololá	3	Barraneche	7	Julio	2023-09-07T00:00:00	2024-11-06T10:00:00	8	Radiación solar	623
36377	7	Sololá	701	Sololá	3	Barraneche	7	Julio	2023-09-07T00:00:00	2024-11-06T11:00:00	2	Temperatura media	16.8
36378	7	Sololá	701	Sololá	3	Barraneche	7	Julio	2023-09-07T00:00:00	2024-11-06T11:00:00	4	Temperatura máxima	17.2
36379	7	Sololá	701	Sololá	3	Barraneche	7	Julio	2023-09-07T00:00:00	2024-11-06T11:00:00	3	Temperatura mínima	16.7
36380	7	Sololá	701	Sololá	3	Barraneche	7	Julio	2023-09-07T00:00:00	2024-11-06T11:00:00	5	Humedad	70
36381	7	Sololá	701	Sololá	3	Barraneche	7	Julio	2023-09-07T00:00:00	2024-11-06T11:00:00	6	Velocidad del viento	8
36382	7	Sololá	701	Sololá	3	Barraneche	7	Julio	2023-09-07T00:00:00	2024-11-06T11:00:00	7	Dirección del viento	8.05
36383	7	Sololá	701	Sololá	3	Barraneche	7	Julio	2023-09-07T00:00:00	2024-11-06T11:00:00	1	Precipitación	0
36384	7	Sololá	701	Sololá	3	Barraneche	7	Julio	2023-09-07T00:00:00	2024-11-06T11:00:00	8	Radiación solar	295
36385	7	Sololá	701	Sololá	3	Barraneche	7	Julio	2023-09-07T00:00:00	2024-11-06T12:00:00	2	Temperatura media	17.9
36386	7	Sololá	701	Sololá	3	Barraneche	7	Julio	2023-09-07T00:00:00	2024-11-06T12:00:00	4	Temperatura máxima	17.9
36387	7	Sololá	701	Sololá	3	Barraneche	7	Julio	2023-09-07T00:00:00	2024-11-06T12:00:00	3	Temperatura mínima	16.7
36388	7	Sololá	701	Sololá	3	Barraneche	7	Julio	2023-09-07T00:00:00	2024-11-06T12:00:00	5	Humedad	65
36389	7	Sololá	701	Sololá	3	Barraneche	7	Julio	2023-09-07T00:00:00	2024-11-06T12:00:00	6	Velocidad del viento	8
36390	7	Sololá	701	Sololá	3	Barraneche	7	Julio	2023-09-07T00:00:00	2024-11-06T12:00:00	7	Dirección del viento	8.05
36391	7	Sololá	701	Sololá	3	Barraneche	7	Julio	2023-09-07T00:00:00	2024-11-06T12:00:00	1	Precipitación	0
36392	7	Sololá	701	Sololá	3	Barraneche	7	Julio	2023-09-07T00:00:00	2024-11-06T12:00:00	8	Radiación solar	488
36393	7	Sololá	701	Sololá	3	Barraneche	7	Julio	2023-09-07T00:00:00	2024-11-06T13:00:00	2	Temperatura media	19.2
36394	7	Sololá	701	Sololá	3	Barraneche	7	Julio	2023-09-07T00:00:00	2024-11-06T13:00:00	4	Temperatura máxima	19.2
36395	7	Sololá	701	Sololá	3	Barraneche	7	Julio	2023-09-07T00:00:00	2024-11-06T13:00:00	3	Temperatura mínima	17.9
36396	7	Sololá	701	Sololá	3	Barraneche	7	Julio	2023-09-07T00:00:00	2024-11-06T13:00:00	5	Humedad	62
36397	7	Sololá	701	Sololá	3	Barraneche	7	Julio	2023-09-07T00:00:00	2024-11-06T13:00:00	6	Velocidad del viento	6.4
36398	7	Sololá	701	Sololá	3	Barraneche	7	Julio	2023-09-07T00:00:00	2024-11-06T13:00:00	7	Dirección del viento	6.44
36399	7	Sololá	701	Sololá	3	Barraneche	7	Julio	2023-09-07T00:00:00	2024-11-06T13:00:00	1	Precipitación	0
36400	7	Sololá	701	Sololá	3	Barraneche	7	Julio	2023-09-07T00:00:00	2024-11-06T13:00:00	8	Radiación solar	579
36401	7	Sololá	701	Sololá	3	Barraneche	7	Julio	2023-09-07T00:00:00	2024-11-06T14:00:00	2	Temperatura media	18.3
36402	7	Sololá	701	Sololá	3	Barraneche	7	Julio	2023-09-07T00:00:00	2024-11-06T14:00:00	4	Temperatura máxima	19.4
36403	7	Sololá	701	Sololá	3	Barraneche	7	Julio	2023-09-07T00:00:00	2024-11-06T14:00:00	3	Temperatura mínima	18.3
36404	7	Sololá	701	Sololá	3	Barraneche	7	Julio	2023-09-07T00:00:00	2024-11-06T14:00:00	5	Humedad	68
36405	7	Sololá	701	Sololá	3	Barraneche	7	Julio	2023-09-07T00:00:00	2024-11-06T14:00:00	6	Velocidad del viento	8
36406	7	Sololá	701	Sololá	3	Barraneche	7	Julio	2023-09-07T00:00:00	2024-11-06T14:00:00	7	Dirección del viento	8.05
36407	7	Sololá	701	Sololá	3	Barraneche	7	Julio	2023-09-07T00:00:00	2024-11-06T14:00:00	1	Precipitación	0
36408	7	Sololá	701	Sololá	3	Barraneche	7	Julio	2023-09-07T00:00:00	2024-11-06T14:00:00	8	Radiación solar	369
36409	7	Sololá	701	Sololá	3	Barraneche	7	Julio	2023-09-07T00:00:00	2024-11-06T15:00:00	2	Temperatura media	17.4
36410	7	Sololá	701	Sololá	3	Barraneche	7	Julio	2023-09-07T00:00:00	2024-11-06T15:00:00	4	Temperatura máxima	18.7
36411	7	Sololá	701	Sololá	3	Barraneche	7	Julio	2023-09-07T00:00:00	2024-11-06T15:00:00	3	Temperatura mínima	17.4
36412	7	Sololá	701	Sololá	3	Barraneche	7	Julio	2023-09-07T00:00:00	2024-11-06T15:00:00	5	Humedad	69
36413	7	Sololá	701	Sololá	3	Barraneche	7	Julio	2023-09-07T00:00:00	2024-11-06T15:00:00	6	Velocidad del viento	8
36414	7	Sololá	701	Sololá	3	Barraneche	7	Julio	2023-09-07T00:00:00	2024-11-06T15:00:00	7	Dirección del viento	8.05
36415	7	Sololá	701	Sololá	3	Barraneche	7	Julio	2023-09-07T00:00:00	2024-11-06T15:00:00	1	Precipitación	0
36416	7	Sololá	701	Sololá	3	Barraneche	7	Julio	2023-09-07T00:00:00	2024-11-06T15:00:00	8	Radiación solar	232
36417	7	Sololá	701	Sololá	3	Barraneche	7	Julio	2023-09-07T00:00:00	2024-11-06T16:00:00	2	Temperatura media	15
36418	7	Sololá	701	Sololá	3	Barraneche	7	Julio	2023-09-07T00:00:00	2024-11-06T16:00:00	4	Temperatura máxima	17.4
36419	7	Sololá	701	Sololá	3	Barraneche	7	Julio	2023-09-07T00:00:00	2024-11-06T16:00:00	3	Temperatura mínima	14.5
36420	7	Sololá	701	Sololá	3	Barraneche	7	Julio	2023-09-07T00:00:00	2024-11-06T16:00:00	5	Humedad	81
36421	7	Sololá	701	Sololá	3	Barraneche	7	Julio	2023-09-07T00:00:00	2024-11-06T16:00:00	6	Velocidad del viento	6.4
36422	7	Sololá	701	Sololá	3	Barraneche	7	Julio	2023-09-07T00:00:00	2024-11-06T16:00:00	7	Dirección del viento	6.44
36423	7	Sololá	701	Sololá	3	Barraneche	7	Julio	2023-09-07T00:00:00	2024-11-06T16:00:00	1	Precipitación	15.8
36424	7	Sololá	701	Sololá	3	Barraneche	7	Julio	2023-09-07T00:00:00	2024-11-06T16:00:00	8	Radiación solar	60
36425	7	Sololá	701	Sololá	3	Barraneche	7	Julio	2023-09-07T00:00:00	2024-11-06T17:00:00	2	Temperatura media	15.3
36426	7	Sololá	701	Sololá	3	Barraneche	7	Julio	2023-09-07T00:00:00	2024-11-06T17:00:00	4	Temperatura máxima	15.3
36427	7	Sololá	701	Sololá	3	Barraneche	7	Julio	2023-09-07T00:00:00	2024-11-06T17:00:00	3	Temperatura mínima	14.8
36428	7	Sololá	701	Sololá	3	Barraneche	7	Julio	2023-09-07T00:00:00	2024-11-06T17:00:00	5	Humedad	75
36429	7	Sololá	701	Sololá	3	Barraneche	7	Julio	2023-09-07T00:00:00	2024-11-06T17:00:00	6	Velocidad del viento	4.8
36430	7	Sololá	701	Sololá	3	Barraneche	7	Julio	2023-09-07T00:00:00	2024-11-06T17:00:00	7	Dirección del viento	4.83
36431	7	Sololá	701	Sololá	3	Barraneche	7	Julio	2023-09-07T00:00:00	2024-11-06T17:00:00	1	Precipitación	0.6
36432	7	Sololá	701	Sololá	3	Barraneche	7	Julio	2023-09-07T00:00:00	2024-11-06T17:00:00	8	Radiación solar	137
36433	7	Sololá	701	Sololá	3	Barraneche	7	Julio	2023-09-07T00:00:00	2024-11-06T18:00:00	2	Temperatura media	15.4
36434	7	Sololá	701	Sololá	3	Barraneche	7	Julio	2023-09-07T00:00:00	2024-11-06T18:00:00	4	Temperatura máxima	15.6
36435	7	Sololá	701	Sololá	3	Barraneche	7	Julio	2023-09-07T00:00:00	2024-11-06T18:00:00	3	Temperatura mínima	15.2
36436	7	Sololá	701	Sololá	3	Barraneche	7	Julio	2023-09-07T00:00:00	2024-11-06T18:00:00	5	Humedad	74
36437	7	Sololá	701	Sololá	3	Barraneche	7	Julio	2023-09-07T00:00:00	2024-11-06T18:00:00	6	Velocidad del viento	3.2
36438	7	Sololá	701	Sololá	3	Barraneche	7	Julio	2023-09-07T00:00:00	2024-11-06T18:00:00	7	Dirección del viento	3.22
36439	7	Sololá	701	Sololá	3	Barraneche	7	Julio	2023-09-07T00:00:00	2024-11-06T18:00:00	1	Precipitación	0
36440	7	Sololá	701	Sololá	3	Barraneche	7	Julio	2023-09-07T00:00:00	2024-11-06T18:00:00	8	Radiación solar	81
36441	7	Sololá	701	Sololá	3	Barraneche	7	Julio	2023-09-07T00:00:00	2024-11-06T19:00:00	2	Temperatura media	14.1
36442	7	Sololá	701	Sololá	3	Barraneche	7	Julio	2023-09-07T00:00:00	2024-11-06T19:00:00	4	Temperatura máxima	15.4
36443	7	Sololá	701	Sololá	3	Barraneche	7	Julio	2023-09-07T00:00:00	2024-11-06T19:00:00	3	Temperatura mínima	14.1
36444	7	Sololá	701	Sololá	3	Barraneche	7	Julio	2023-09-07T00:00:00	2024-11-06T19:00:00	5	Humedad	76
36445	7	Sololá	701	Sololá	3	Barraneche	7	Julio	2023-09-07T00:00:00	2024-11-06T19:00:00	6	Velocidad del viento	3.2
36446	7	Sololá	701	Sololá	3	Barraneche	7	Julio	2023-09-07T00:00:00	2024-11-06T19:00:00	7	Dirección del viento	3.22
36447	7	Sololá	701	Sololá	3	Barraneche	7	Julio	2023-09-07T00:00:00	2024-11-06T19:00:00	1	Precipitación	0
36448	7	Sololá	701	Sololá	3	Barraneche	7	Julio	2023-09-07T00:00:00	2024-11-06T19:00:00	8	Radiación solar	0
36449	7	Sololá	701	Sololá	3	Barraneche	7	Julio	2023-09-07T00:00:00	2024-11-06T20:00:00	2	Temperatura media	13.2
36450	7	Sololá	701	Sololá	3	Barraneche	7	Julio	2023-09-07T00:00:00	2024-11-06T20:00:00	4	Temperatura máxima	14.1
36451	7	Sololá	701	Sololá	3	Barraneche	7	Julio	2023-09-07T00:00:00	2024-11-06T20:00:00	3	Temperatura mínima	13.1
36452	7	Sololá	701	Sololá	3	Barraneche	7	Julio	2023-09-07T00:00:00	2024-11-06T20:00:00	5	Humedad	78
36453	7	Sololá	701	Sololá	3	Barraneche	7	Julio	2023-09-07T00:00:00	2024-11-06T20:00:00	6	Velocidad del viento	1.6
36454	7	Sololá	701	Sololá	3	Barraneche	7	Julio	2023-09-07T00:00:00	2024-11-06T20:00:00	7	Dirección del viento	1.61
36455	7	Sololá	701	Sololá	3	Barraneche	7	Julio	2023-09-07T00:00:00	2024-11-06T20:00:00	1	Precipitación	0
36456	7	Sololá	701	Sololá	3	Barraneche	7	Julio	2023-09-07T00:00:00	2024-11-06T20:00:00	8	Radiación solar	0
36457	7	Sololá	701	Sololá	3	Barraneche	7	Julio	2023-09-07T00:00:00	2024-11-06T21:00:00	2	Temperatura media	12.6
36458	7	Sololá	701	Sololá	3	Barraneche	7	Julio	2023-09-07T00:00:00	2024-11-06T21:00:00	4	Temperatura máxima	13.2
36459	7	Sololá	701	Sololá	3	Barraneche	7	Julio	2023-09-07T00:00:00	2024-11-06T21:00:00	3	Temperatura mínima	12.6
36460	7	Sololá	701	Sololá	3	Barraneche	7	Julio	2023-09-07T00:00:00	2024-11-06T21:00:00	5	Humedad	80
36461	7	Sololá	701	Sololá	3	Barraneche	7	Julio	2023-09-07T00:00:00	2024-11-06T21:00:00	6	Velocidad del viento	1.6
36462	7	Sololá	701	Sololá	3	Barraneche	7	Julio	2023-09-07T00:00:00	2024-11-06T21:00:00	7	Dirección del viento	1.61
36463	7	Sololá	701	Sololá	3	Barraneche	7	Julio	2023-09-07T00:00:00	2024-11-06T21:00:00	1	Precipitación	0
36464	7	Sololá	701	Sololá	3	Barraneche	7	Julio	2023-09-07T00:00:00	2024-11-06T21:00:00	8	Radiación solar	0
36465	7	Sololá	701	Sololá	3	Barraneche	7	Julio	2023-09-07T00:00:00	2024-11-06T22:00:00	2	Temperatura media	12.9
36466	7	Sololá	701	Sololá	3	Barraneche	7	Julio	2023-09-07T00:00:00	2024-11-06T22:00:00	4	Temperatura máxima	12.9
36467	7	Sololá	701	Sololá	3	Barraneche	7	Julio	2023-09-07T00:00:00	2024-11-06T22:00:00	3	Temperatura mínima	12.5
36468	7	Sololá	701	Sololá	3	Barraneche	7	Julio	2023-09-07T00:00:00	2024-11-06T22:00:00	5	Humedad	82
36469	7	Sololá	701	Sololá	3	Barraneche	7	Julio	2023-09-07T00:00:00	2024-11-06T22:00:00	6	Velocidad del viento	1.6
36470	7	Sololá	701	Sololá	3	Barraneche	7	Julio	2023-09-07T00:00:00	2024-11-06T22:00:00	7	Dirección del viento	1.61
36471	7	Sololá	701	Sololá	3	Barraneche	7	Julio	2023-09-07T00:00:00	2024-11-06T22:00:00	1	Precipitación	0
36472	7	Sololá	701	Sololá	3	Barraneche	7	Julio	2023-09-07T00:00:00	2024-11-06T22:00:00	8	Radiación solar	0
36473	7	Sololá	701	Sololá	3	Barraneche	7	Julio	2023-09-07T00:00:00	2024-11-06T23:00:00	2	Temperatura media	14.6
36474	7	Sololá	701	Sololá	3	Barraneche	7	Julio	2023-09-07T00:00:00	2024-11-06T23:00:00	4	Temperatura máxima	14.6
36475	7	Sololá	701	Sololá	3	Barraneche	7	Julio	2023-09-07T00:00:00	2024-11-06T23:00:00	3	Temperatura mínima	12.9
36476	7	Sololá	701	Sololá	3	Barraneche	7	Julio	2023-09-07T00:00:00	2024-11-06T23:00:00	5	Humedad	75
36477	7	Sololá	701	Sololá	3	Barraneche	7	Julio	2023-09-07T00:00:00	2024-11-06T23:00:00	6	Velocidad del viento	4.8
36478	7	Sololá	701	Sololá	3	Barraneche	7	Julio	2023-09-07T00:00:00	2024-11-06T23:00:00	7	Dirección del viento	4.83
36479	7	Sololá	701	Sololá	3	Barraneche	7	Julio	2023-09-07T00:00:00	2024-11-06T23:00:00	1	Precipitación	0
36480	7	Sololá	701	Sololá	3	Barraneche	7	Julio	2023-09-07T00:00:00	2024-11-06T23:00:00	8	Radiación solar	0
36481	7	Sololá	701	Sololá	3	Barraneche	7	Julio	2023-10-07T00:00:00	2024-11-06T00:00:00	2	Temperatura media	14
36482	7	Sololá	701	Sololá	3	Barraneche	7	Julio	2023-10-07T00:00:00	2024-11-06T00:00:00	4	Temperatura máxima	14.7
36483	7	Sololá	701	Sololá	3	Barraneche	7	Julio	2023-10-07T00:00:00	2024-11-06T00:00:00	3	Temperatura mínima	13.2
36484	7	Sololá	701	Sololá	3	Barraneche	7	Julio	2023-10-07T00:00:00	2024-11-06T00:00:00	5	Humedad	75
36485	7	Sololá	701	Sololá	3	Barraneche	7	Julio	2023-10-07T00:00:00	2024-11-06T00:00:00	6	Velocidad del viento	3.2
36486	7	Sololá	701	Sololá	3	Barraneche	7	Julio	2023-10-07T00:00:00	2024-11-06T00:00:00	7	Dirección del viento	3.22
36487	7	Sololá	701	Sololá	3	Barraneche	7	Julio	2023-10-07T00:00:00	2024-11-06T00:00:00	1	Precipitación	0
36488	7	Sololá	701	Sololá	3	Barraneche	7	Julio	2023-10-07T00:00:00	2024-11-06T00:00:00	8	Radiación solar	0
36489	7	Sololá	701	Sololá	3	Barraneche	7	Julio	2023-10-07T00:00:00	2024-11-06T01:00:00	2	Temperatura media	12.8
36490	7	Sololá	701	Sololá	3	Barraneche	7	Julio	2023-10-07T00:00:00	2024-11-06T01:00:00	4	Temperatura máxima	14
36491	7	Sololá	701	Sololá	3	Barraneche	7	Julio	2023-10-07T00:00:00	2024-11-06T01:00:00	3	Temperatura mínima	12.6
36492	7	Sololá	701	Sololá	3	Barraneche	7	Julio	2023-10-07T00:00:00	2024-11-06T01:00:00	5	Humedad	76
36493	7	Sololá	701	Sololá	3	Barraneche	7	Julio	2023-10-07T00:00:00	2024-11-06T01:00:00	6	Velocidad del viento	4.8
36494	7	Sololá	701	Sololá	3	Barraneche	7	Julio	2023-10-07T00:00:00	2024-11-06T01:00:00	7	Dirección del viento	4.83
36495	7	Sololá	701	Sololá	3	Barraneche	7	Julio	2023-10-07T00:00:00	2024-11-06T01:00:00	1	Precipitación	0
36496	7	Sololá	701	Sololá	3	Barraneche	7	Julio	2023-10-07T00:00:00	2024-11-06T01:00:00	8	Radiación solar	0
36497	7	Sololá	701	Sololá	3	Barraneche	7	Julio	2023-10-07T00:00:00	2024-11-06T02:00:00	2	Temperatura media	12.3
36498	7	Sololá	701	Sololá	3	Barraneche	7	Julio	2023-10-07T00:00:00	2024-11-06T02:00:00	4	Temperatura máxima	13.2
36499	7	Sololá	701	Sololá	3	Barraneche	7	Julio	2023-10-07T00:00:00	2024-11-06T02:00:00	3	Temperatura mínima	12.3
36500	7	Sololá	701	Sololá	3	Barraneche	7	Julio	2023-10-07T00:00:00	2024-11-06T02:00:00	5	Humedad	77
36501	7	Sololá	701	Sololá	3	Barraneche	7	Julio	2023-10-07T00:00:00	2024-11-06T02:00:00	6	Velocidad del viento	4.8
36502	7	Sololá	701	Sololá	3	Barraneche	7	Julio	2023-10-07T00:00:00	2024-11-06T02:00:00	7	Dirección del viento	4.83
36503	7	Sololá	701	Sololá	3	Barraneche	7	Julio	2023-10-07T00:00:00	2024-11-06T02:00:00	1	Precipitación	0
36504	7	Sololá	701	Sololá	3	Barraneche	7	Julio	2023-10-07T00:00:00	2024-11-06T02:00:00	8	Radiación solar	0
36505	7	Sololá	701	Sololá	3	Barraneche	7	Julio	2023-10-07T00:00:00	2024-11-06T03:00:00	2	Temperatura media	11.5
36506	7	Sololá	701	Sololá	3	Barraneche	7	Julio	2023-10-07T00:00:00	2024-11-06T03:00:00	4	Temperatura máxima	12.3
36507	7	Sololá	701	Sololá	3	Barraneche	7	Julio	2023-10-07T00:00:00	2024-11-06T03:00:00	3	Temperatura mínima	11.3
36508	7	Sololá	701	Sololá	3	Barraneche	7	Julio	2023-10-07T00:00:00	2024-11-06T03:00:00	5	Humedad	78
36509	7	Sololá	701	Sololá	3	Barraneche	7	Julio	2023-10-07T00:00:00	2024-11-06T03:00:00	6	Velocidad del viento	6.4
36510	7	Sololá	701	Sololá	3	Barraneche	7	Julio	2023-10-07T00:00:00	2024-11-06T03:00:00	7	Dirección del viento	6.44
36511	7	Sololá	701	Sololá	3	Barraneche	7	Julio	2023-10-07T00:00:00	2024-11-06T03:00:00	1	Precipitación	0
36512	7	Sololá	701	Sololá	3	Barraneche	7	Julio	2023-10-07T00:00:00	2024-11-06T03:00:00	8	Radiación solar	0
36513	7	Sololá	701	Sololá	3	Barraneche	7	Julio	2023-10-07T00:00:00	2024-11-06T04:00:00	2	Temperatura media	11.8
36514	7	Sololá	701	Sololá	3	Barraneche	7	Julio	2023-10-07T00:00:00	2024-11-06T04:00:00	4	Temperatura máxima	11.8
36515	7	Sololá	701	Sololá	3	Barraneche	7	Julio	2023-10-07T00:00:00	2024-11-06T04:00:00	3	Temperatura mínima	11.2
36516	7	Sololá	701	Sololá	3	Barraneche	7	Julio	2023-10-07T00:00:00	2024-11-06T04:00:00	5	Humedad	76
36517	7	Sololá	701	Sololá	3	Barraneche	7	Julio	2023-10-07T00:00:00	2024-11-06T04:00:00	6	Velocidad del viento	4.8
36518	7	Sololá	701	Sololá	3	Barraneche	7	Julio	2023-10-07T00:00:00	2024-11-06T04:00:00	7	Dirección del viento	4.83
36519	7	Sololá	701	Sololá	3	Barraneche	7	Julio	2023-10-07T00:00:00	2024-11-06T04:00:00	1	Precipitación	0
36520	7	Sololá	701	Sololá	3	Barraneche	7	Julio	2023-10-07T00:00:00	2024-11-06T04:00:00	8	Radiación solar	0
36521	7	Sololá	701	Sololá	3	Barraneche	7	Julio	2023-10-07T00:00:00	2024-11-06T05:00:00	2	Temperatura media	11.9
36522	7	Sololá	701	Sololá	3	Barraneche	7	Julio	2023-10-07T00:00:00	2024-11-06T05:00:00	4	Temperatura máxima	13.4
36523	7	Sololá	701	Sololá	3	Barraneche	7	Julio	2023-10-07T00:00:00	2024-11-06T05:00:00	3	Temperatura mínima	11.5
36524	7	Sololá	701	Sololá	3	Barraneche	7	Julio	2023-10-07T00:00:00	2024-11-06T05:00:00	5	Humedad	78
36525	7	Sololá	701	Sololá	3	Barraneche	7	Julio	2023-10-07T00:00:00	2024-11-06T05:00:00	6	Velocidad del viento	4.8
36526	7	Sololá	701	Sololá	3	Barraneche	7	Julio	2023-10-07T00:00:00	2024-11-06T05:00:00	7	Dirección del viento	4.83
36527	7	Sololá	701	Sololá	3	Barraneche	7	Julio	2023-10-07T00:00:00	2024-11-06T05:00:00	1	Precipitación	0
36528	7	Sololá	701	Sololá	3	Barraneche	7	Julio	2023-10-07T00:00:00	2024-11-06T05:00:00	8	Radiación solar	0
36529	7	Sololá	701	Sololá	3	Barraneche	7	Julio	2023-10-07T00:00:00	2024-11-06T06:00:00	2	Temperatura media	13.7
36530	7	Sololá	701	Sololá	3	Barraneche	7	Julio	2023-10-07T00:00:00	2024-11-06T06:00:00	4	Temperatura máxima	13.7
36531	7	Sololá	701	Sololá	3	Barraneche	7	Julio	2023-10-07T00:00:00	2024-11-06T06:00:00	3	Temperatura mínima	11.9
36532	7	Sololá	701	Sololá	3	Barraneche	7	Julio	2023-10-07T00:00:00	2024-11-06T06:00:00	5	Humedad	73
36533	7	Sololá	701	Sololá	3	Barraneche	7	Julio	2023-10-07T00:00:00	2024-11-06T06:00:00	6	Velocidad del viento	3.2
36534	7	Sololá	701	Sololá	3	Barraneche	7	Julio	2023-10-07T00:00:00	2024-11-06T06:00:00	7	Dirección del viento	3.22
36535	7	Sololá	701	Sololá	3	Barraneche	7	Julio	2023-10-07T00:00:00	2024-11-06T06:00:00	1	Precipitación	0
36536	7	Sololá	701	Sololá	3	Barraneche	7	Julio	2023-10-07T00:00:00	2024-11-06T06:00:00	8	Radiación solar	1
36537	7	Sololá	701	Sololá	3	Barraneche	7	Julio	2023-10-07T00:00:00	2024-11-06T07:00:00	2	Temperatura media	12.6
36538	7	Sololá	701	Sololá	3	Barraneche	7	Julio	2023-10-07T00:00:00	2024-11-06T07:00:00	4	Temperatura máxima	13.7
36539	7	Sololá	701	Sololá	3	Barraneche	7	Julio	2023-10-07T00:00:00	2024-11-06T07:00:00	3	Temperatura mínima	12.2
36540	7	Sololá	701	Sololá	3	Barraneche	7	Julio	2023-10-07T00:00:00	2024-11-06T07:00:00	5	Humedad	78
36541	7	Sololá	701	Sololá	3	Barraneche	7	Julio	2023-10-07T00:00:00	2024-11-06T07:00:00	6	Velocidad del viento	1.6
36542	7	Sololá	701	Sololá	3	Barraneche	7	Julio	2023-10-07T00:00:00	2024-11-06T07:00:00	7	Dirección del viento	1.61
36543	7	Sololá	701	Sololá	3	Barraneche	7	Julio	2023-10-07T00:00:00	2024-11-06T07:00:00	1	Precipitación	0
36544	7	Sololá	701	Sololá	3	Barraneche	7	Julio	2023-10-07T00:00:00	2024-11-06T07:00:00	8	Radiación solar	63
36545	7	Sololá	701	Sololá	3	Barraneche	7	Julio	2023-10-07T00:00:00	2024-11-06T08:00:00	2	Temperatura media	15.3
36546	7	Sololá	701	Sololá	3	Barraneche	7	Julio	2023-10-07T00:00:00	2024-11-06T08:00:00	4	Temperatura máxima	15.3
36547	7	Sololá	701	Sololá	3	Barraneche	7	Julio	2023-10-07T00:00:00	2024-11-06T08:00:00	3	Temperatura mínima	12.6
36548	7	Sololá	701	Sololá	3	Barraneche	7	Julio	2023-10-07T00:00:00	2024-11-06T08:00:00	5	Humedad	75
36549	7	Sololá	701	Sololá	3	Barraneche	7	Julio	2023-10-07T00:00:00	2024-11-06T08:00:00	6	Velocidad del viento	4.8
36550	7	Sololá	701	Sololá	3	Barraneche	7	Julio	2023-10-07T00:00:00	2024-11-06T08:00:00	7	Dirección del viento	4.83
36551	7	Sololá	701	Sololá	3	Barraneche	7	Julio	2023-10-07T00:00:00	2024-11-06T08:00:00	1	Precipitación	0
36552	7	Sololá	701	Sololá	3	Barraneche	7	Julio	2023-10-07T00:00:00	2024-11-06T08:00:00	8	Radiación solar	291
36553	7	Sololá	701	Sololá	3	Barraneche	7	Julio	2023-10-07T00:00:00	2024-11-06T09:00:00	2	Temperatura media	17.7
36554	7	Sololá	701	Sololá	3	Barraneche	7	Julio	2023-10-07T00:00:00	2024-11-06T09:00:00	4	Temperatura máxima	17.7
36555	7	Sololá	701	Sololá	3	Barraneche	7	Julio	2023-10-07T00:00:00	2024-11-06T09:00:00	3	Temperatura mínima	15.4
36556	7	Sololá	701	Sololá	3	Barraneche	7	Julio	2023-10-07T00:00:00	2024-11-06T09:00:00	5	Humedad	62
36557	7	Sololá	701	Sololá	3	Barraneche	7	Julio	2023-10-07T00:00:00	2024-11-06T09:00:00	6	Velocidad del viento	4.8
36558	7	Sololá	701	Sololá	3	Barraneche	7	Julio	2023-10-07T00:00:00	2024-11-06T09:00:00	7	Dirección del viento	4.83
36559	7	Sololá	701	Sololá	3	Barraneche	7	Julio	2023-10-07T00:00:00	2024-11-06T09:00:00	1	Precipitación	0
36560	7	Sololá	701	Sololá	3	Barraneche	7	Julio	2023-10-07T00:00:00	2024-11-06T09:00:00	8	Radiación solar	528
36561	7	Sololá	701	Sololá	3	Barraneche	7	Julio	2023-10-07T00:00:00	2024-11-06T10:00:00	2	Temperatura media	17.6
36562	7	Sololá	701	Sololá	3	Barraneche	7	Julio	2023-10-07T00:00:00	2024-11-06T10:00:00	4	Temperatura máxima	18.2
36563	7	Sololá	701	Sololá	3	Barraneche	7	Julio	2023-10-07T00:00:00	2024-11-06T10:00:00	3	Temperatura mínima	17.2
36564	7	Sololá	701	Sololá	3	Barraneche	7	Julio	2023-10-07T00:00:00	2024-11-06T10:00:00	5	Humedad	64
36565	7	Sololá	701	Sololá	3	Barraneche	7	Julio	2023-10-07T00:00:00	2024-11-06T10:00:00	6	Velocidad del viento	11.3
36566	7	Sololá	701	Sololá	3	Barraneche	7	Julio	2023-10-07T00:00:00	2024-11-06T10:00:00	7	Dirección del viento	11.27
36567	7	Sololá	701	Sololá	3	Barraneche	7	Julio	2023-10-07T00:00:00	2024-11-06T10:00:00	1	Precipitación	0
36568	7	Sololá	701	Sololá	3	Barraneche	7	Julio	2023-10-07T00:00:00	2024-11-06T10:00:00	8	Radiación solar	818
36569	7	Sololá	701	Sololá	3	Barraneche	7	Julio	2023-10-07T00:00:00	2024-11-06T11:00:00	2	Temperatura media	17.7
36570	7	Sololá	701	Sololá	3	Barraneche	7	Julio	2023-10-07T00:00:00	2024-11-06T11:00:00	4	Temperatura máxima	18.2
36571	7	Sololá	701	Sololá	3	Barraneche	7	Julio	2023-10-07T00:00:00	2024-11-06T11:00:00	3	Temperatura mínima	17.2
36572	7	Sololá	701	Sololá	3	Barraneche	7	Julio	2023-10-07T00:00:00	2024-11-06T11:00:00	5	Humedad	63
36573	7	Sololá	701	Sololá	3	Barraneche	7	Julio	2023-10-07T00:00:00	2024-11-06T11:00:00	6	Velocidad del viento	16.1
36574	7	Sololá	701	Sololá	3	Barraneche	7	Julio	2023-10-07T00:00:00	2024-11-06T11:00:00	7	Dirección del viento	16.09
36575	7	Sololá	701	Sololá	3	Barraneche	7	Julio	2023-10-07T00:00:00	2024-11-06T11:00:00	1	Precipitación	0
36576	7	Sololá	701	Sololá	3	Barraneche	7	Julio	2023-10-07T00:00:00	2024-11-06T11:00:00	8	Radiación solar	1061
36577	7	Sololá	701	Sololá	3	Barraneche	7	Julio	2023-10-07T00:00:00	2024-11-06T12:00:00	2	Temperatura media	18.7
36578	7	Sololá	701	Sololá	3	Barraneche	7	Julio	2023-10-07T00:00:00	2024-11-06T12:00:00	4	Temperatura máxima	18.7
36579	7	Sololá	701	Sololá	3	Barraneche	7	Julio	2023-10-07T00:00:00	2024-11-06T12:00:00	3	Temperatura mínima	17.3
36580	7	Sololá	701	Sololá	3	Barraneche	7	Julio	2023-10-07T00:00:00	2024-11-06T12:00:00	5	Humedad	65
36581	7	Sololá	701	Sololá	3	Barraneche	7	Julio	2023-10-07T00:00:00	2024-11-06T12:00:00	6	Velocidad del viento	12.9
36582	7	Sololá	701	Sololá	3	Barraneche	7	Julio	2023-10-07T00:00:00	2024-11-06T12:00:00	7	Dirección del viento	12.87
36583	7	Sololá	701	Sololá	3	Barraneche	7	Julio	2023-10-07T00:00:00	2024-11-06T12:00:00	1	Precipitación	0
36584	7	Sololá	701	Sololá	3	Barraneche	7	Julio	2023-10-07T00:00:00	2024-11-06T12:00:00	8	Radiación solar	719
36585	7	Sololá	701	Sololá	3	Barraneche	7	Julio	2023-10-07T00:00:00	2024-11-06T13:00:00	2	Temperatura media	19.5
36586	7	Sololá	701	Sololá	3	Barraneche	7	Julio	2023-10-07T00:00:00	2024-11-06T13:00:00	4	Temperatura máxima	19.8
36587	7	Sololá	701	Sololá	3	Barraneche	7	Julio	2023-10-07T00:00:00	2024-11-06T13:00:00	3	Temperatura mínima	18.6
36588	7	Sololá	701	Sololá	3	Barraneche	7	Julio	2023-10-07T00:00:00	2024-11-06T13:00:00	5	Humedad	57
36589	7	Sololá	701	Sololá	3	Barraneche	7	Julio	2023-10-07T00:00:00	2024-11-06T13:00:00	6	Velocidad del viento	11.3
36590	7	Sololá	701	Sololá	3	Barraneche	7	Julio	2023-10-07T00:00:00	2024-11-06T13:00:00	7	Dirección del viento	11.27
36591	7	Sololá	701	Sololá	3	Barraneche	7	Julio	2023-10-07T00:00:00	2024-11-06T13:00:00	1	Precipitación	0
36592	7	Sololá	701	Sololá	3	Barraneche	7	Julio	2023-10-07T00:00:00	2024-11-06T13:00:00	8	Radiación solar	1080
36593	7	Sololá	701	Sololá	3	Barraneche	7	Julio	2023-10-07T00:00:00	2024-11-06T14:00:00	2	Temperatura media	19.3
36594	7	Sololá	701	Sololá	3	Barraneche	7	Julio	2023-10-07T00:00:00	2024-11-06T14:00:00	4	Temperatura máxima	19.8
36595	7	Sololá	701	Sololá	3	Barraneche	7	Julio	2023-10-07T00:00:00	2024-11-06T14:00:00	3	Temperatura mínima	19.2
36596	7	Sololá	701	Sololá	3	Barraneche	7	Julio	2023-10-07T00:00:00	2024-11-06T14:00:00	5	Humedad	62
36597	7	Sololá	701	Sololá	3	Barraneche	7	Julio	2023-10-07T00:00:00	2024-11-06T14:00:00	6	Velocidad del viento	9.7
36598	7	Sololá	701	Sololá	3	Barraneche	7	Julio	2023-10-07T00:00:00	2024-11-06T14:00:00	7	Dirección del viento	9.66
36599	7	Sololá	701	Sololá	3	Barraneche	7	Julio	2023-10-07T00:00:00	2024-11-06T14:00:00	1	Precipitación	0
36600	7	Sololá	701	Sololá	3	Barraneche	7	Julio	2023-10-07T00:00:00	2024-11-06T14:00:00	8	Radiación solar	528
36601	7	Sololá	701	Sololá	3	Barraneche	7	Julio	2023-10-07T00:00:00	2024-11-06T15:00:00	2	Temperatura media	19.9
36602	7	Sololá	701	Sololá	3	Barraneche	7	Julio	2023-10-07T00:00:00	2024-11-06T15:00:00	4	Temperatura máxima	20.1
36603	7	Sololá	701	Sololá	3	Barraneche	7	Julio	2023-10-07T00:00:00	2024-11-06T15:00:00	3	Temperatura mínima	18.9
36604	7	Sololá	701	Sololá	3	Barraneche	7	Julio	2023-10-07T00:00:00	2024-11-06T15:00:00	5	Humedad	59
36605	7	Sololá	701	Sololá	3	Barraneche	7	Julio	2023-10-07T00:00:00	2024-11-06T15:00:00	6	Velocidad del viento	6.4
36606	7	Sololá	701	Sololá	3	Barraneche	7	Julio	2023-10-07T00:00:00	2024-11-06T15:00:00	7	Dirección del viento	6.44
36607	7	Sololá	701	Sololá	3	Barraneche	7	Julio	2023-10-07T00:00:00	2024-11-06T15:00:00	1	Precipitación	0
36608	7	Sololá	701	Sololá	3	Barraneche	7	Julio	2023-10-07T00:00:00	2024-11-06T15:00:00	8	Radiación solar	370
36609	7	Sololá	701	Sololá	3	Barraneche	7	Julio	2023-10-07T00:00:00	2024-11-06T16:00:00	2	Temperatura media	20.4
36610	7	Sololá	701	Sololá	3	Barraneche	7	Julio	2023-10-07T00:00:00	2024-11-06T16:00:00	4	Temperatura máxima	20.9
36611	7	Sololá	701	Sololá	3	Barraneche	7	Julio	2023-10-07T00:00:00	2024-11-06T16:00:00	3	Temperatura mínima	19.7
36612	7	Sololá	701	Sololá	3	Barraneche	7	Julio	2023-10-07T00:00:00	2024-11-06T16:00:00	5	Humedad	53
36613	7	Sololá	701	Sololá	3	Barraneche	7	Julio	2023-10-07T00:00:00	2024-11-06T16:00:00	6	Velocidad del viento	8
36614	7	Sololá	701	Sololá	3	Barraneche	7	Julio	2023-10-07T00:00:00	2024-11-06T16:00:00	7	Dirección del viento	8.05
36615	7	Sololá	701	Sololá	3	Barraneche	7	Julio	2023-10-07T00:00:00	2024-11-06T16:00:00	1	Precipitación	0
36616	7	Sololá	701	Sololá	3	Barraneche	7	Julio	2023-10-07T00:00:00	2024-11-06T16:00:00	8	Radiación solar	556
36617	7	Sololá	701	Sololá	3	Barraneche	7	Julio	2023-10-07T00:00:00	2024-11-06T17:00:00	2	Temperatura media	16.6
36618	7	Sololá	701	Sololá	3	Barraneche	7	Julio	2023-10-07T00:00:00	2024-11-06T17:00:00	4	Temperatura máxima	20.4
36619	7	Sololá	701	Sololá	3	Barraneche	7	Julio	2023-10-07T00:00:00	2024-11-06T17:00:00	3	Temperatura mínima	16.6
36620	7	Sololá	701	Sololá	3	Barraneche	7	Julio	2023-10-07T00:00:00	2024-11-06T17:00:00	5	Humedad	77
36621	7	Sololá	701	Sololá	3	Barraneche	7	Julio	2023-10-07T00:00:00	2024-11-06T17:00:00	6	Velocidad del viento	9.7
36622	7	Sololá	701	Sololá	3	Barraneche	7	Julio	2023-10-07T00:00:00	2024-11-06T17:00:00	7	Dirección del viento	9.66
36623	7	Sololá	701	Sololá	3	Barraneche	7	Julio	2023-10-07T00:00:00	2024-11-06T17:00:00	1	Precipitación	0
36624	7	Sololá	701	Sololá	3	Barraneche	7	Julio	2023-10-07T00:00:00	2024-11-06T17:00:00	8	Radiación solar	96
36625	7	Sololá	701	Sololá	3	Barraneche	7	Julio	2023-10-07T00:00:00	2024-11-06T18:00:00	2	Temperatura media	16.4
36626	7	Sololá	701	Sololá	3	Barraneche	7	Julio	2023-10-07T00:00:00	2024-11-06T18:00:00	4	Temperatura máxima	16.8
36627	7	Sololá	701	Sololá	3	Barraneche	7	Julio	2023-10-07T00:00:00	2024-11-06T18:00:00	3	Temperatura mínima	16.3
36628	7	Sololá	701	Sololá	3	Barraneche	7	Julio	2023-10-07T00:00:00	2024-11-06T18:00:00	5	Humedad	77
36629	7	Sololá	701	Sololá	3	Barraneche	7	Julio	2023-10-07T00:00:00	2024-11-06T18:00:00	6	Velocidad del viento	4.8
36630	7	Sololá	701	Sololá	3	Barraneche	7	Julio	2023-10-07T00:00:00	2024-11-06T18:00:00	7	Dirección del viento	4.83
36631	7	Sololá	701	Sololá	3	Barraneche	7	Julio	2023-10-07T00:00:00	2024-11-06T18:00:00	1	Precipitación	0
36632	7	Sololá	701	Sololá	3	Barraneche	7	Julio	2023-10-07T00:00:00	2024-11-06T18:00:00	8	Radiación solar	37
36633	7	Sololá	701	Sololá	3	Barraneche	7	Julio	2023-10-07T00:00:00	2024-11-06T19:00:00	2	Temperatura media	16.5
36634	7	Sololá	701	Sololá	3	Barraneche	7	Julio	2023-10-07T00:00:00	2024-11-06T19:00:00	4	Temperatura máxima	16.5
36635	7	Sololá	701	Sololá	3	Barraneche	7	Julio	2023-10-07T00:00:00	2024-11-06T19:00:00	3	Temperatura mínima	16.2
36636	7	Sololá	701	Sololá	3	Barraneche	7	Julio	2023-10-07T00:00:00	2024-11-06T19:00:00	5	Humedad	74
36637	7	Sololá	701	Sololá	3	Barraneche	7	Julio	2023-10-07T00:00:00	2024-11-06T19:00:00	6	Velocidad del viento	3.2
36638	7	Sololá	701	Sololá	3	Barraneche	7	Julio	2023-10-07T00:00:00	2024-11-06T19:00:00	7	Dirección del viento	3.22
36639	7	Sololá	701	Sololá	3	Barraneche	7	Julio	2023-10-07T00:00:00	2024-11-06T19:00:00	1	Precipitación	0
36640	7	Sololá	701	Sololá	3	Barraneche	7	Julio	2023-10-07T00:00:00	2024-11-06T19:00:00	8	Radiación solar	0
36641	7	Sololá	701	Sololá	3	Barraneche	7	Julio	2023-10-07T00:00:00	2024-11-06T20:00:00	2	Temperatura media	15.4
36642	7	Sololá	701	Sololá	3	Barraneche	7	Julio	2023-10-07T00:00:00	2024-11-06T20:00:00	4	Temperatura máxima	16.5
36643	7	Sololá	701	Sololá	3	Barraneche	7	Julio	2023-10-07T00:00:00	2024-11-06T20:00:00	3	Temperatura mínima	15.2
36644	7	Sololá	701	Sololá	3	Barraneche	7	Julio	2023-10-07T00:00:00	2024-11-06T20:00:00	5	Humedad	60
36645	7	Sololá	701	Sololá	3	Barraneche	7	Julio	2023-10-07T00:00:00	2024-11-06T20:00:00	6	Velocidad del viento	9.7
36646	7	Sololá	701	Sololá	3	Barraneche	7	Julio	2023-10-07T00:00:00	2024-11-06T20:00:00	7	Dirección del viento	9.66
36647	7	Sololá	701	Sololá	3	Barraneche	7	Julio	2023-10-07T00:00:00	2024-11-06T20:00:00	1	Precipitación	0
36648	7	Sololá	701	Sololá	3	Barraneche	7	Julio	2023-10-07T00:00:00	2024-11-06T20:00:00	8	Radiación solar	0
36649	7	Sololá	701	Sololá	3	Barraneche	7	Julio	2023-10-07T00:00:00	2024-11-06T21:00:00	2	Temperatura media	14.9
36650	7	Sololá	701	Sololá	3	Barraneche	7	Julio	2023-10-07T00:00:00	2024-11-06T21:00:00	4	Temperatura máxima	15.4
36651	7	Sololá	701	Sololá	3	Barraneche	7	Julio	2023-10-07T00:00:00	2024-11-06T21:00:00	3	Temperatura mínima	13.1
36652	7	Sololá	701	Sololá	3	Barraneche	7	Julio	2023-10-07T00:00:00	2024-11-06T21:00:00	5	Humedad	70
36653	7	Sololá	701	Sololá	3	Barraneche	7	Julio	2023-10-07T00:00:00	2024-11-06T21:00:00	6	Velocidad del viento	14.5
36654	7	Sololá	701	Sololá	3	Barraneche	7	Julio	2023-10-07T00:00:00	2024-11-06T21:00:00	7	Dirección del viento	14.48
36655	7	Sololá	701	Sololá	3	Barraneche	7	Julio	2023-10-07T00:00:00	2024-11-06T21:00:00	1	Precipitación	1.2
36656	7	Sololá	701	Sololá	3	Barraneche	7	Julio	2023-10-07T00:00:00	2024-11-06T21:00:00	8	Radiación solar	0
36657	7	Sololá	701	Sololá	3	Barraneche	7	Julio	2023-10-07T00:00:00	2024-11-06T22:00:00	2	Temperatura media	14.4
36658	7	Sololá	701	Sololá	3	Barraneche	7	Julio	2023-10-07T00:00:00	2024-11-06T22:00:00	4	Temperatura máxima	15.1
36659	7	Sololá	701	Sololá	3	Barraneche	7	Julio	2023-10-07T00:00:00	2024-11-06T22:00:00	3	Temperatura mínima	14.3
36660	7	Sololá	701	Sololá	3	Barraneche	7	Julio	2023-10-07T00:00:00	2024-11-06T22:00:00	5	Humedad	69
36661	7	Sololá	701	Sololá	3	Barraneche	7	Julio	2023-10-07T00:00:00	2024-11-06T22:00:00	6	Velocidad del viento	19.3
36662	7	Sololá	701	Sololá	3	Barraneche	7	Julio	2023-10-07T00:00:00	2024-11-06T22:00:00	7	Dirección del viento	19.31
36663	7	Sololá	701	Sololá	3	Barraneche	7	Julio	2023-10-07T00:00:00	2024-11-06T22:00:00	1	Precipitación	1.2
36664	7	Sololá	701	Sololá	3	Barraneche	7	Julio	2023-10-07T00:00:00	2024-11-06T22:00:00	8	Radiación solar	0
36665	7	Sololá	701	Sololá	3	Barraneche	7	Julio	2023-10-07T00:00:00	2024-11-06T23:00:00	2	Temperatura media	14.7
36666	7	Sololá	701	Sololá	3	Barraneche	7	Julio	2023-10-07T00:00:00	2024-11-06T23:00:00	4	Temperatura máxima	14.8
36667	7	Sololá	701	Sololá	3	Barraneche	7	Julio	2023-10-07T00:00:00	2024-11-06T23:00:00	3	Temperatura mínima	14.1
36668	7	Sololá	701	Sololá	3	Barraneche	7	Julio	2023-10-07T00:00:00	2024-11-06T23:00:00	5	Humedad	65
36669	7	Sololá	701	Sololá	3	Barraneche	7	Julio	2023-10-07T00:00:00	2024-11-06T23:00:00	6	Velocidad del viento	14.5
36670	7	Sololá	701	Sololá	3	Barraneche	7	Julio	2023-10-07T00:00:00	2024-11-06T23:00:00	7	Dirección del viento	14.48
36671	7	Sololá	701	Sololá	3	Barraneche	7	Julio	2023-10-07T00:00:00	2024-11-06T23:00:00	1	Precipitación	0.4
36672	7	Sololá	701	Sololá	3	Barraneche	7	Julio	2023-10-07T00:00:00	2024-11-06T23:00:00	8	Radiación solar	0
36673	7	Sololá	701	Sololá	3	Barraneche	7	Julio	2023-11-07T00:00:00	2024-11-06T00:00:00	2	Temperatura media	13.2
36674	7	Sololá	701	Sololá	3	Barraneche	7	Julio	2023-11-07T00:00:00	2024-11-06T00:00:00	4	Temperatura máxima	14.7
36675	7	Sololá	701	Sololá	3	Barraneche	7	Julio	2023-11-07T00:00:00	2024-11-06T00:00:00	3	Temperatura mínima	12.8
36676	7	Sololá	701	Sololá	3	Barraneche	7	Julio	2023-11-07T00:00:00	2024-11-06T00:00:00	5	Humedad	69
36677	7	Sololá	701	Sololá	3	Barraneche	7	Julio	2023-11-07T00:00:00	2024-11-06T00:00:00	6	Velocidad del viento	4.8
36678	7	Sololá	701	Sololá	3	Barraneche	7	Julio	2023-11-07T00:00:00	2024-11-06T00:00:00	7	Dirección del viento	4.83
36679	7	Sololá	701	Sololá	3	Barraneche	7	Julio	2023-11-07T00:00:00	2024-11-06T00:00:00	1	Precipitación	0
36680	7	Sololá	701	Sololá	3	Barraneche	7	Julio	2023-11-07T00:00:00	2024-11-06T00:00:00	8	Radiación solar	0
36681	7	Sololá	701	Sololá	3	Barraneche	7	Julio	2023-11-07T00:00:00	2024-11-06T01:00:00	2	Temperatura media	15.2
36682	7	Sololá	701	Sololá	3	Barraneche	7	Julio	2023-11-07T00:00:00	2024-11-06T01:00:00	4	Temperatura máxima	15.6
36683	7	Sololá	701	Sololá	3	Barraneche	7	Julio	2023-11-07T00:00:00	2024-11-06T01:00:00	3	Temperatura mínima	13.2
36684	7	Sololá	701	Sololá	3	Barraneche	7	Julio	2023-11-07T00:00:00	2024-11-06T01:00:00	5	Humedad	65
36685	7	Sololá	701	Sololá	3	Barraneche	7	Julio	2023-11-07T00:00:00	2024-11-06T01:00:00	6	Velocidad del viento	8
36686	7	Sololá	701	Sololá	3	Barraneche	7	Julio	2023-11-07T00:00:00	2024-11-06T01:00:00	7	Dirección del viento	8.05
36687	7	Sololá	701	Sololá	3	Barraneche	7	Julio	2023-11-07T00:00:00	2024-11-06T01:00:00	1	Precipitación	0
36688	7	Sololá	701	Sololá	3	Barraneche	7	Julio	2023-11-07T00:00:00	2024-11-06T01:00:00	8	Radiación solar	0
36689	7	Sololá	701	Sololá	3	Barraneche	7	Julio	2023-11-07T00:00:00	2024-11-06T02:00:00	2	Temperatura media	15.2
36690	7	Sololá	701	Sololá	3	Barraneche	7	Julio	2023-11-07T00:00:00	2024-11-06T02:00:00	4	Temperatura máxima	15.6
36691	7	Sololá	701	Sololá	3	Barraneche	7	Julio	2023-11-07T00:00:00	2024-11-06T02:00:00	3	Temperatura mínima	15.1
36692	7	Sololá	701	Sololá	3	Barraneche	7	Julio	2023-11-07T00:00:00	2024-11-06T02:00:00	5	Humedad	66
36693	7	Sololá	701	Sololá	3	Barraneche	7	Julio	2023-11-07T00:00:00	2024-11-06T02:00:00	6	Velocidad del viento	16.1
36694	7	Sololá	701	Sololá	3	Barraneche	7	Julio	2023-11-07T00:00:00	2024-11-06T02:00:00	7	Dirección del viento	16.09
36695	7	Sololá	701	Sololá	3	Barraneche	7	Julio	2023-11-07T00:00:00	2024-11-06T02:00:00	1	Precipitación	0
36696	7	Sololá	701	Sololá	3	Barraneche	7	Julio	2023-11-07T00:00:00	2024-11-06T02:00:00	8	Radiación solar	0
36697	7	Sololá	701	Sololá	3	Barraneche	7	Julio	2023-11-07T00:00:00	2024-11-06T03:00:00	2	Temperatura media	15.5
36698	7	Sololá	701	Sololá	3	Barraneche	7	Julio	2023-11-07T00:00:00	2024-11-06T03:00:00	4	Temperatura máxima	15.9
36699	7	Sololá	701	Sololá	3	Barraneche	7	Julio	2023-11-07T00:00:00	2024-11-06T03:00:00	3	Temperatura mínima	15
36700	7	Sololá	701	Sololá	3	Barraneche	7	Julio	2023-11-07T00:00:00	2024-11-06T03:00:00	5	Humedad	56
36701	7	Sololá	701	Sololá	3	Barraneche	7	Julio	2023-11-07T00:00:00	2024-11-06T03:00:00	6	Velocidad del viento	12.9
36702	7	Sololá	701	Sololá	3	Barraneche	7	Julio	2023-11-07T00:00:00	2024-11-06T03:00:00	7	Dirección del viento	12.87
36703	7	Sololá	701	Sololá	3	Barraneche	7	Julio	2023-11-07T00:00:00	2024-11-06T03:00:00	1	Precipitación	0
36704	7	Sololá	701	Sololá	3	Barraneche	7	Julio	2023-11-07T00:00:00	2024-11-06T03:00:00	8	Radiación solar	0
36705	7	Sololá	701	Sololá	3	Barraneche	7	Julio	2023-11-07T00:00:00	2024-11-06T04:00:00	2	Temperatura media	15.7
36706	7	Sololá	701	Sololá	3	Barraneche	7	Julio	2023-11-07T00:00:00	2024-11-06T04:00:00	4	Temperatura máxima	16.2
36707	7	Sololá	701	Sololá	3	Barraneche	7	Julio	2023-11-07T00:00:00	2024-11-06T04:00:00	3	Temperatura mínima	15.2
36708	7	Sololá	701	Sololá	3	Barraneche	7	Julio	2023-11-07T00:00:00	2024-11-06T04:00:00	5	Humedad	58
36709	7	Sololá	701	Sololá	3	Barraneche	7	Julio	2023-11-07T00:00:00	2024-11-06T04:00:00	6	Velocidad del viento	9.7
36710	7	Sololá	701	Sololá	3	Barraneche	7	Julio	2023-11-07T00:00:00	2024-11-06T04:00:00	7	Dirección del viento	9.66
36711	7	Sololá	701	Sololá	3	Barraneche	7	Julio	2023-11-07T00:00:00	2024-11-06T04:00:00	1	Precipitación	0
36712	7	Sololá	701	Sololá	3	Barraneche	7	Julio	2023-11-07T00:00:00	2024-11-06T04:00:00	8	Radiación solar	0
36713	7	Sololá	701	Sololá	3	Barraneche	7	Julio	2023-11-07T00:00:00	2024-11-06T05:00:00	2	Temperatura media	15.2
36714	7	Sololá	701	Sololá	3	Barraneche	7	Julio	2023-11-07T00:00:00	2024-11-06T05:00:00	4	Temperatura máxima	15.8
36715	7	Sololá	701	Sololá	3	Barraneche	7	Julio	2023-11-07T00:00:00	2024-11-06T05:00:00	3	Temperatura mínima	15.1
36716	7	Sololá	701	Sololá	3	Barraneche	7	Julio	2023-11-07T00:00:00	2024-11-06T05:00:00	5	Humedad	62
36717	7	Sololá	701	Sololá	3	Barraneche	7	Julio	2023-11-07T00:00:00	2024-11-06T05:00:00	6	Velocidad del viento	14.5
36718	7	Sololá	701	Sololá	3	Barraneche	7	Julio	2023-11-07T00:00:00	2024-11-06T05:00:00	7	Dirección del viento	14.48
36719	7	Sololá	701	Sololá	3	Barraneche	7	Julio	2023-11-07T00:00:00	2024-11-06T05:00:00	1	Precipitación	0
36720	7	Sololá	701	Sololá	3	Barraneche	7	Julio	2023-11-07T00:00:00	2024-11-06T05:00:00	8	Radiación solar	0
36721	7	Sololá	701	Sololá	3	Barraneche	7	Julio	2023-11-07T00:00:00	2024-11-06T06:00:00	2	Temperatura media	15.9
36722	7	Sololá	701	Sololá	3	Barraneche	7	Julio	2023-11-07T00:00:00	2024-11-06T06:00:00	4	Temperatura máxima	15.9
36723	7	Sololá	701	Sololá	3	Barraneche	7	Julio	2023-11-07T00:00:00	2024-11-06T06:00:00	3	Temperatura mínima	15.2
36724	7	Sololá	701	Sololá	3	Barraneche	7	Julio	2023-11-07T00:00:00	2024-11-06T06:00:00	5	Humedad	58
36725	7	Sololá	701	Sololá	3	Barraneche	7	Julio	2023-11-07T00:00:00	2024-11-06T06:00:00	6	Velocidad del viento	14.5
36726	7	Sololá	701	Sololá	3	Barraneche	7	Julio	2023-11-07T00:00:00	2024-11-06T06:00:00	7	Dirección del viento	14.48
36727	7	Sololá	701	Sololá	3	Barraneche	7	Julio	2023-11-07T00:00:00	2024-11-06T06:00:00	1	Precipitación	0
36728	7	Sololá	701	Sololá	3	Barraneche	7	Julio	2023-11-07T00:00:00	2024-11-06T06:00:00	8	Radiación solar	2
36729	7	Sololá	701	Sololá	3	Barraneche	7	Julio	2023-11-07T00:00:00	2024-11-06T07:00:00	2	Temperatura media	15.4
36730	7	Sololá	701	Sololá	3	Barraneche	7	Julio	2023-11-07T00:00:00	2024-11-06T07:00:00	4	Temperatura máxima	15.9
36731	7	Sololá	701	Sololá	3	Barraneche	7	Julio	2023-11-07T00:00:00	2024-11-06T07:00:00	3	Temperatura mínima	15.1
36732	7	Sololá	701	Sololá	3	Barraneche	7	Julio	2023-11-07T00:00:00	2024-11-06T07:00:00	5	Humedad	62
36733	7	Sololá	701	Sololá	3	Barraneche	7	Julio	2023-11-07T00:00:00	2024-11-06T07:00:00	6	Velocidad del viento	19.3
36734	7	Sololá	701	Sololá	3	Barraneche	7	Julio	2023-11-07T00:00:00	2024-11-06T07:00:00	7	Dirección del viento	19.31
36735	7	Sololá	701	Sololá	3	Barraneche	7	Julio	2023-11-07T00:00:00	2024-11-06T07:00:00	1	Precipitación	0.2
36736	7	Sololá	701	Sololá	3	Barraneche	7	Julio	2023-11-07T00:00:00	2024-11-06T07:00:00	8	Radiación solar	55
36737	7	Sololá	701	Sololá	3	Barraneche	7	Julio	2023-11-07T00:00:00	2024-11-06T08:00:00	2	Temperatura media	17.3
36738	7	Sololá	701	Sololá	3	Barraneche	7	Julio	2023-11-07T00:00:00	2024-11-06T08:00:00	4	Temperatura máxima	17.3
36739	7	Sololá	701	Sololá	3	Barraneche	7	Julio	2023-11-07T00:00:00	2024-11-06T08:00:00	3	Temperatura mínima	15.4
36740	7	Sololá	701	Sololá	3	Barraneche	7	Julio	2023-11-07T00:00:00	2024-11-06T08:00:00	5	Humedad	54
36741	7	Sololá	701	Sololá	3	Barraneche	7	Julio	2023-11-07T00:00:00	2024-11-06T08:00:00	6	Velocidad del viento	14.5
36742	7	Sololá	701	Sololá	3	Barraneche	7	Julio	2023-11-07T00:00:00	2024-11-06T08:00:00	7	Dirección del viento	14.48
36743	7	Sololá	701	Sololá	3	Barraneche	7	Julio	2023-11-07T00:00:00	2024-11-06T08:00:00	1	Precipitación	0
36744	7	Sololá	701	Sololá	3	Barraneche	7	Julio	2023-11-07T00:00:00	2024-11-06T08:00:00	8	Radiación solar	235
36745	7	Sololá	701	Sololá	3	Barraneche	7	Julio	2023-11-07T00:00:00	2024-11-06T09:00:00	2	Temperatura media	17.9
36746	7	Sololá	701	Sololá	3	Barraneche	7	Julio	2023-11-07T00:00:00	2024-11-06T09:00:00	4	Temperatura máxima	17.9
36747	7	Sololá	701	Sololá	3	Barraneche	7	Julio	2023-11-07T00:00:00	2024-11-06T09:00:00	3	Temperatura mínima	17.1
36748	7	Sololá	701	Sololá	3	Barraneche	7	Julio	2023-11-07T00:00:00	2024-11-06T09:00:00	5	Humedad	56
36749	7	Sololá	701	Sololá	3	Barraneche	7	Julio	2023-11-07T00:00:00	2024-11-06T09:00:00	6	Velocidad del viento	17.7
36750	7	Sololá	701	Sololá	3	Barraneche	7	Julio	2023-11-07T00:00:00	2024-11-06T09:00:00	7	Dirección del viento	17.7
36751	7	Sololá	701	Sololá	3	Barraneche	7	Julio	2023-11-07T00:00:00	2024-11-06T09:00:00	1	Precipitación	0
36752	7	Sololá	701	Sololá	3	Barraneche	7	Julio	2023-11-07T00:00:00	2024-11-06T09:00:00	8	Radiación solar	514
36753	7	Sololá	701	Sololá	3	Barraneche	7	Julio	2023-11-07T00:00:00	2024-11-06T10:00:00	2	Temperatura media	18.4
36754	7	Sololá	701	Sololá	3	Barraneche	7	Julio	2023-11-07T00:00:00	2024-11-06T10:00:00	4	Temperatura máxima	18.4
36755	7	Sololá	701	Sololá	3	Barraneche	7	Julio	2023-11-07T00:00:00	2024-11-06T10:00:00	3	Temperatura mínima	17.8
36756	7	Sololá	701	Sololá	3	Barraneche	7	Julio	2023-11-07T00:00:00	2024-11-06T10:00:00	5	Humedad	55
36757	7	Sololá	701	Sololá	3	Barraneche	7	Julio	2023-11-07T00:00:00	2024-11-06T10:00:00	6	Velocidad del viento	20.9
36758	7	Sololá	701	Sololá	3	Barraneche	7	Julio	2023-11-07T00:00:00	2024-11-06T10:00:00	7	Dirección del viento	20.92
36759	7	Sololá	701	Sololá	3	Barraneche	7	Julio	2023-11-07T00:00:00	2024-11-06T10:00:00	1	Precipitación	0
36760	7	Sololá	701	Sololá	3	Barraneche	7	Julio	2023-11-07T00:00:00	2024-11-06T10:00:00	8	Radiación solar	826
36761	7	Sololá	701	Sololá	3	Barraneche	7	Julio	2023-11-07T00:00:00	2024-11-06T11:00:00	2	Temperatura media	18.8
36762	7	Sololá	701	Sololá	3	Barraneche	7	Julio	2023-11-07T00:00:00	2024-11-06T11:00:00	4	Temperatura máxima	18.9
36763	7	Sololá	701	Sololá	3	Barraneche	7	Julio	2023-11-07T00:00:00	2024-11-06T11:00:00	3	Temperatura mínima	18.3
36764	7	Sololá	701	Sololá	3	Barraneche	7	Julio	2023-11-07T00:00:00	2024-11-06T11:00:00	5	Humedad	53
36765	7	Sololá	701	Sololá	3	Barraneche	7	Julio	2023-11-07T00:00:00	2024-11-06T11:00:00	6	Velocidad del viento	19.3
36766	7	Sololá	701	Sololá	3	Barraneche	7	Julio	2023-11-07T00:00:00	2024-11-06T11:00:00	7	Dirección del viento	19.31
36767	7	Sololá	701	Sololá	3	Barraneche	7	Julio	2023-11-07T00:00:00	2024-11-06T11:00:00	1	Precipitación	0
36768	7	Sololá	701	Sololá	3	Barraneche	7	Julio	2023-11-07T00:00:00	2024-11-06T11:00:00	8	Radiación solar	749
36769	7	Sololá	701	Sololá	3	Barraneche	7	Julio	2023-11-07T00:00:00	2024-11-06T12:00:00	2	Temperatura media	19.4
36770	7	Sololá	701	Sololá	3	Barraneche	7	Julio	2023-11-07T00:00:00	2024-11-06T12:00:00	4	Temperatura máxima	19.6
36771	7	Sololá	701	Sololá	3	Barraneche	7	Julio	2023-11-07T00:00:00	2024-11-06T12:00:00	3	Temperatura mínima	18.6
36772	7	Sololá	701	Sololá	3	Barraneche	7	Julio	2023-11-07T00:00:00	2024-11-06T12:00:00	5	Humedad	54
36773	7	Sololá	701	Sololá	3	Barraneche	7	Julio	2023-11-07T00:00:00	2024-11-06T12:00:00	6	Velocidad del viento	17.7
36774	7	Sololá	701	Sololá	3	Barraneche	7	Julio	2023-11-07T00:00:00	2024-11-06T12:00:00	7	Dirección del viento	17.7
36775	7	Sololá	701	Sololá	3	Barraneche	7	Julio	2023-11-07T00:00:00	2024-11-06T12:00:00	1	Precipitación	0
36776	7	Sololá	701	Sololá	3	Barraneche	7	Julio	2023-11-07T00:00:00	2024-11-06T12:00:00	8	Radiación solar	910
36777	7	Sololá	701	Sololá	3	Barraneche	7	Julio	2023-11-07T00:00:00	2024-11-06T13:00:00	2	Temperatura media	19.6
36778	7	Sololá	701	Sololá	3	Barraneche	7	Julio	2023-11-07T00:00:00	2024-11-06T13:00:00	4	Temperatura máxima	20.2
36779	7	Sololá	701	Sololá	3	Barraneche	7	Julio	2023-11-07T00:00:00	2024-11-06T13:00:00	3	Temperatura mínima	19.2
36780	7	Sololá	701	Sololá	3	Barraneche	7	Julio	2023-11-07T00:00:00	2024-11-06T13:00:00	5	Humedad	52
36781	7	Sololá	701	Sololá	3	Barraneche	7	Julio	2023-11-07T00:00:00	2024-11-06T13:00:00	6	Velocidad del viento	16.1
36782	7	Sololá	701	Sololá	3	Barraneche	7	Julio	2023-11-07T00:00:00	2024-11-06T13:00:00	7	Dirección del viento	16.09
36783	7	Sololá	701	Sololá	3	Barraneche	7	Julio	2023-11-07T00:00:00	2024-11-06T13:00:00	1	Precipitación	0
36784	7	Sololá	701	Sololá	3	Barraneche	7	Julio	2023-11-07T00:00:00	2024-11-06T13:00:00	8	Radiación solar	860
36785	7	Sololá	701	Sololá	3	Barraneche	7	Julio	2023-11-07T00:00:00	2024-11-06T14:00:00	2	Temperatura media	19.8
36786	7	Sololá	701	Sololá	3	Barraneche	7	Julio	2023-11-07T00:00:00	2024-11-06T14:00:00	4	Temperatura máxima	19.9
36787	7	Sololá	701	Sololá	3	Barraneche	7	Julio	2023-11-07T00:00:00	2024-11-06T14:00:00	3	Temperatura mínima	19.5
36788	7	Sololá	701	Sololá	3	Barraneche	7	Julio	2023-11-07T00:00:00	2024-11-06T14:00:00	5	Humedad	52
36789	7	Sololá	701	Sololá	3	Barraneche	7	Julio	2023-11-07T00:00:00	2024-11-06T14:00:00	6	Velocidad del viento	14.5
36790	7	Sololá	701	Sololá	3	Barraneche	7	Julio	2023-11-07T00:00:00	2024-11-06T14:00:00	7	Dirección del viento	14.48
36791	7	Sololá	701	Sololá	3	Barraneche	7	Julio	2023-11-07T00:00:00	2024-11-06T14:00:00	1	Precipitación	0
36792	7	Sololá	701	Sololá	3	Barraneche	7	Julio	2023-11-07T00:00:00	2024-11-06T14:00:00	8	Radiación solar	691
36793	7	Sololá	701	Sololá	3	Barraneche	7	Julio	2023-11-07T00:00:00	2024-11-06T15:00:00	2	Temperatura media	19.3
36794	7	Sololá	701	Sololá	3	Barraneche	7	Julio	2023-11-07T00:00:00	2024-11-06T15:00:00	4	Temperatura máxima	20.1
36795	7	Sololá	701	Sololá	3	Barraneche	7	Julio	2023-11-07T00:00:00	2024-11-06T15:00:00	3	Temperatura mínima	19.3
36796	7	Sololá	701	Sololá	3	Barraneche	7	Julio	2023-11-07T00:00:00	2024-11-06T15:00:00	5	Humedad	55
36797	7	Sololá	701	Sololá	3	Barraneche	7	Julio	2023-11-07T00:00:00	2024-11-06T15:00:00	6	Velocidad del viento	14.5
36798	7	Sololá	701	Sololá	3	Barraneche	7	Julio	2023-11-07T00:00:00	2024-11-06T15:00:00	7	Dirección del viento	14.48
36799	7	Sololá	701	Sololá	3	Barraneche	7	Julio	2023-11-07T00:00:00	2024-11-06T15:00:00	1	Precipitación	0
36800	7	Sololá	701	Sololá	3	Barraneche	7	Julio	2023-11-07T00:00:00	2024-11-06T15:00:00	8	Radiación solar	652
36801	7	Sololá	701	Sololá	3	Barraneche	7	Julio	2023-11-07T00:00:00	2024-11-06T16:00:00	2	Temperatura media	19.7
36802	7	Sololá	701	Sololá	3	Barraneche	7	Julio	2023-11-07T00:00:00	2024-11-06T16:00:00	4	Temperatura máxima	20.1
36803	7	Sololá	701	Sololá	3	Barraneche	7	Julio	2023-11-07T00:00:00	2024-11-06T16:00:00	3	Temperatura mínima	19.2
36804	7	Sololá	701	Sololá	3	Barraneche	7	Julio	2023-11-07T00:00:00	2024-11-06T16:00:00	5	Humedad	55
36805	7	Sololá	701	Sololá	3	Barraneche	7	Julio	2023-11-07T00:00:00	2024-11-06T16:00:00	6	Velocidad del viento	12.9
36806	7	Sololá	701	Sololá	3	Barraneche	7	Julio	2023-11-07T00:00:00	2024-11-06T16:00:00	7	Dirección del viento	12.87
36807	7	Sololá	701	Sololá	3	Barraneche	7	Julio	2023-11-07T00:00:00	2024-11-06T16:00:00	1	Precipitación	0
36808	7	Sololá	701	Sololá	3	Barraneche	7	Julio	2023-11-07T00:00:00	2024-11-06T16:00:00	8	Radiación solar	555
36809	7	Sololá	701	Sololá	3	Barraneche	7	Julio	2023-11-07T00:00:00	2024-11-06T17:00:00	2	Temperatura media	18.3
36810	7	Sololá	701	Sololá	3	Barraneche	7	Julio	2023-11-07T00:00:00	2024-11-06T17:00:00	4	Temperatura máxima	19.7
36811	7	Sololá	701	Sololá	3	Barraneche	7	Julio	2023-11-07T00:00:00	2024-11-06T17:00:00	3	Temperatura mínima	18.3
36812	7	Sololá	701	Sololá	3	Barraneche	7	Julio	2023-11-07T00:00:00	2024-11-06T17:00:00	5	Humedad	59
36813	7	Sololá	701	Sololá	3	Barraneche	7	Julio	2023-11-07T00:00:00	2024-11-06T17:00:00	6	Velocidad del viento	14.5
36814	7	Sololá	701	Sololá	3	Barraneche	7	Julio	2023-11-07T00:00:00	2024-11-06T17:00:00	7	Dirección del viento	14.48
36815	7	Sololá	701	Sololá	3	Barraneche	7	Julio	2023-11-07T00:00:00	2024-11-06T17:00:00	1	Precipitación	0
36816	7	Sololá	701	Sololá	3	Barraneche	7	Julio	2023-11-07T00:00:00	2024-11-06T17:00:00	8	Radiación solar	344
36817	7	Sololá	701	Sololá	3	Barraneche	7	Julio	2023-11-07T00:00:00	2024-11-06T18:00:00	2	Temperatura media	17.1
36818	7	Sololá	701	Sololá	3	Barraneche	7	Julio	2023-11-07T00:00:00	2024-11-06T18:00:00	4	Temperatura máxima	18.3
36819	7	Sololá	701	Sololá	3	Barraneche	7	Julio	2023-11-07T00:00:00	2024-11-06T18:00:00	3	Temperatura mínima	17.1
36820	7	Sololá	701	Sololá	3	Barraneche	7	Julio	2023-11-07T00:00:00	2024-11-06T18:00:00	5	Humedad	62
36821	7	Sololá	701	Sololá	3	Barraneche	7	Julio	2023-11-07T00:00:00	2024-11-06T18:00:00	6	Velocidad del viento	12.9
36822	7	Sololá	701	Sololá	3	Barraneche	7	Julio	2023-11-07T00:00:00	2024-11-06T18:00:00	7	Dirección del viento	12.87
36823	7	Sololá	701	Sololá	3	Barraneche	7	Julio	2023-11-07T00:00:00	2024-11-06T18:00:00	1	Precipitación	0
36824	7	Sololá	701	Sololá	3	Barraneche	7	Julio	2023-11-07T00:00:00	2024-11-06T18:00:00	8	Radiación solar	44
36825	7	Sololá	701	Sololá	3	Barraneche	7	Julio	2023-11-07T00:00:00	2024-11-06T19:00:00	2	Temperatura media	16.4
36826	7	Sololá	701	Sololá	3	Barraneche	7	Julio	2023-11-07T00:00:00	2024-11-06T19:00:00	4	Temperatura máxima	17.2
36827	7	Sololá	701	Sololá	3	Barraneche	7	Julio	2023-11-07T00:00:00	2024-11-06T19:00:00	3	Temperatura mínima	16.4
36828	7	Sololá	701	Sololá	3	Barraneche	7	Julio	2023-11-07T00:00:00	2024-11-06T19:00:00	5	Humedad	64
36829	7	Sololá	701	Sololá	3	Barraneche	7	Julio	2023-11-07T00:00:00	2024-11-06T19:00:00	6	Velocidad del viento	16.1
36830	7	Sololá	701	Sololá	3	Barraneche	7	Julio	2023-11-07T00:00:00	2024-11-06T19:00:00	7	Dirección del viento	16.09
36831	7	Sololá	701	Sololá	3	Barraneche	7	Julio	2023-11-07T00:00:00	2024-11-06T19:00:00	1	Precipitación	0
36832	7	Sololá	701	Sololá	3	Barraneche	7	Julio	2023-11-07T00:00:00	2024-11-06T19:00:00	8	Radiación solar	0
36833	7	Sololá	701	Sololá	3	Barraneche	7	Julio	2023-11-07T00:00:00	2024-11-06T20:00:00	2	Temperatura media	16.1
36834	7	Sololá	701	Sololá	3	Barraneche	7	Julio	2023-11-07T00:00:00	2024-11-06T20:00:00	4	Temperatura máxima	16.5
36835	7	Sololá	701	Sololá	3	Barraneche	7	Julio	2023-11-07T00:00:00	2024-11-06T20:00:00	3	Temperatura mínima	16.1
36836	7	Sololá	701	Sololá	3	Barraneche	7	Julio	2023-11-07T00:00:00	2024-11-06T20:00:00	5	Humedad	63
36837	7	Sololá	701	Sololá	3	Barraneche	7	Julio	2023-11-07T00:00:00	2024-11-06T20:00:00	6	Velocidad del viento	17.7
36838	7	Sololá	701	Sololá	3	Barraneche	7	Julio	2023-11-07T00:00:00	2024-11-06T20:00:00	7	Dirección del viento	17.7
36839	7	Sololá	701	Sololá	3	Barraneche	7	Julio	2023-11-07T00:00:00	2024-11-06T20:00:00	1	Precipitación	0
36840	7	Sololá	701	Sololá	3	Barraneche	7	Julio	2023-11-07T00:00:00	2024-11-06T20:00:00	8	Radiación solar	0
36841	7	Sololá	701	Sololá	3	Barraneche	7	Julio	2023-11-07T00:00:00	2024-11-06T21:00:00	2	Temperatura media	16
36842	7	Sololá	701	Sololá	3	Barraneche	7	Julio	2023-11-07T00:00:00	2024-11-06T21:00:00	4	Temperatura máxima	16.3
36843	7	Sololá	701	Sololá	3	Barraneche	7	Julio	2023-11-07T00:00:00	2024-11-06T21:00:00	3	Temperatura mínima	15.9
36844	7	Sololá	701	Sololá	3	Barraneche	7	Julio	2023-11-07T00:00:00	2024-11-06T21:00:00	5	Humedad	63
36845	7	Sololá	701	Sololá	3	Barraneche	7	Julio	2023-11-07T00:00:00	2024-11-06T21:00:00	6	Velocidad del viento	19.3
36846	7	Sololá	701	Sololá	3	Barraneche	7	Julio	2023-11-07T00:00:00	2024-11-06T21:00:00	7	Dirección del viento	19.31
36847	7	Sololá	701	Sololá	3	Barraneche	7	Julio	2023-11-07T00:00:00	2024-11-06T21:00:00	1	Precipitación	0
36848	7	Sololá	701	Sololá	3	Barraneche	7	Julio	2023-11-07T00:00:00	2024-11-06T21:00:00	8	Radiación solar	0
36849	7	Sololá	701	Sololá	3	Barraneche	7	Julio	2023-11-07T00:00:00	2024-11-06T22:00:00	2	Temperatura media	15.7
36850	7	Sololá	701	Sololá	3	Barraneche	7	Julio	2023-11-07T00:00:00	2024-11-06T22:00:00	4	Temperatura máxima	16.1
36851	7	Sololá	701	Sololá	3	Barraneche	7	Julio	2023-11-07T00:00:00	2024-11-06T22:00:00	3	Temperatura mínima	15.7
36852	7	Sololá	701	Sololá	3	Barraneche	7	Julio	2023-11-07T00:00:00	2024-11-06T22:00:00	5	Humedad	65
36853	7	Sololá	701	Sololá	3	Barraneche	7	Julio	2023-11-07T00:00:00	2024-11-06T22:00:00	6	Velocidad del viento	19.3
36854	7	Sololá	701	Sololá	3	Barraneche	7	Julio	2023-11-07T00:00:00	2024-11-06T22:00:00	7	Dirección del viento	19.31
36855	7	Sololá	701	Sololá	3	Barraneche	7	Julio	2023-11-07T00:00:00	2024-11-06T22:00:00	1	Precipitación	0
36856	7	Sololá	701	Sololá	3	Barraneche	7	Julio	2023-11-07T00:00:00	2024-11-06T22:00:00	8	Radiación solar	0
36857	7	Sololá	701	Sololá	3	Barraneche	7	Julio	2023-11-07T00:00:00	2024-11-06T23:00:00	2	Temperatura media	15.6
36858	7	Sololá	701	Sololá	3	Barraneche	7	Julio	2023-11-07T00:00:00	2024-11-06T23:00:00	4	Temperatura máxima	15.8
36859	7	Sololá	701	Sololá	3	Barraneche	7	Julio	2023-11-07T00:00:00	2024-11-06T23:00:00	3	Temperatura mínima	15.3
36860	7	Sololá	701	Sololá	3	Barraneche	7	Julio	2023-11-07T00:00:00	2024-11-06T23:00:00	5	Humedad	64
36861	7	Sololá	701	Sololá	3	Barraneche	7	Julio	2023-11-07T00:00:00	2024-11-06T23:00:00	6	Velocidad del viento	19.3
36862	7	Sololá	701	Sololá	3	Barraneche	7	Julio	2023-11-07T00:00:00	2024-11-06T23:00:00	7	Dirección del viento	19.31
36863	7	Sololá	701	Sololá	3	Barraneche	7	Julio	2023-11-07T00:00:00	2024-11-06T23:00:00	1	Precipitación	0
36864	7	Sololá	701	Sololá	3	Barraneche	7	Julio	2023-11-07T00:00:00	2024-11-06T23:00:00	8	Radiación solar	0
36865	7	Sololá	701	Sololá	3	Barraneche	7	Julio	2023-12-07T00:00:00	2024-11-06T00:00:00	2	Temperatura media	15.5
36866	7	Sololá	701	Sololá	3	Barraneche	7	Julio	2023-12-07T00:00:00	2024-11-06T00:00:00	4	Temperatura máxima	15.9
36867	7	Sololá	701	Sololá	3	Barraneche	7	Julio	2023-12-07T00:00:00	2024-11-06T00:00:00	3	Temperatura mínima	15.5
36868	7	Sololá	701	Sololá	3	Barraneche	7	Julio	2023-12-07T00:00:00	2024-11-06T00:00:00	5	Humedad	64
36869	7	Sololá	701	Sololá	3	Barraneche	7	Julio	2023-12-07T00:00:00	2024-11-06T00:00:00	6	Velocidad del viento	25.7
36870	7	Sololá	701	Sololá	3	Barraneche	7	Julio	2023-12-07T00:00:00	2024-11-06T00:00:00	7	Dirección del viento	25.75
36871	7	Sololá	701	Sololá	3	Barraneche	7	Julio	2023-12-07T00:00:00	2024-11-06T00:00:00	1	Precipitación	0
36872	7	Sololá	701	Sololá	3	Barraneche	7	Julio	2023-12-07T00:00:00	2024-11-06T00:00:00	8	Radiación solar	0
36873	7	Sololá	701	Sololá	3	Barraneche	7	Julio	2023-12-07T00:00:00	2024-11-06T01:00:00	2	Temperatura media	16.6
36874	7	Sololá	701	Sololá	3	Barraneche	7	Julio	2023-12-07T00:00:00	2024-11-06T01:00:00	4	Temperatura máxima	16.6
36875	7	Sololá	701	Sololá	3	Barraneche	7	Julio	2023-12-07T00:00:00	2024-11-06T01:00:00	3	Temperatura mínima	15.3
36876	7	Sololá	701	Sololá	3	Barraneche	7	Julio	2023-12-07T00:00:00	2024-11-06T01:00:00	5	Humedad	50
36877	7	Sololá	701	Sololá	3	Barraneche	7	Julio	2023-12-07T00:00:00	2024-11-06T01:00:00	6	Velocidad del viento	22.5
36878	7	Sololá	701	Sololá	3	Barraneche	7	Julio	2023-12-07T00:00:00	2024-11-06T01:00:00	7	Dirección del viento	22.53
36879	7	Sololá	701	Sololá	3	Barraneche	7	Julio	2023-12-07T00:00:00	2024-11-06T01:00:00	1	Precipitación	0
36880	7	Sololá	701	Sololá	3	Barraneche	7	Julio	2023-12-07T00:00:00	2024-11-06T01:00:00	8	Radiación solar	0
36881	7	Sololá	701	Sololá	3	Barraneche	7	Julio	2023-12-07T00:00:00	2024-11-06T02:00:00	2	Temperatura media	16.3
36882	7	Sololá	701	Sololá	3	Barraneche	7	Julio	2023-12-07T00:00:00	2024-11-06T02:00:00	4	Temperatura máxima	17.2
36883	7	Sololá	701	Sololá	3	Barraneche	7	Julio	2023-12-07T00:00:00	2024-11-06T02:00:00	3	Temperatura mínima	16.2
36884	7	Sololá	701	Sololá	3	Barraneche	7	Julio	2023-12-07T00:00:00	2024-11-06T02:00:00	5	Humedad	52
36885	7	Sololá	701	Sololá	3	Barraneche	7	Julio	2023-12-07T00:00:00	2024-11-06T02:00:00	6	Velocidad del viento	22.5
36886	7	Sololá	701	Sololá	3	Barraneche	7	Julio	2023-12-07T00:00:00	2024-11-06T02:00:00	7	Dirección del viento	22.53
36887	7	Sololá	701	Sololá	3	Barraneche	7	Julio	2023-12-07T00:00:00	2024-11-06T02:00:00	1	Precipitación	0
36888	7	Sololá	701	Sololá	3	Barraneche	7	Julio	2023-12-07T00:00:00	2024-11-06T02:00:00	8	Radiación solar	0
36889	7	Sololá	701	Sololá	3	Barraneche	7	Julio	2023-12-07T00:00:00	2024-11-06T03:00:00	2	Temperatura media	14.8
36890	7	Sololá	701	Sololá	3	Barraneche	7	Julio	2023-12-07T00:00:00	2024-11-06T03:00:00	4	Temperatura máxima	16.3
36891	7	Sololá	701	Sololá	3	Barraneche	7	Julio	2023-12-07T00:00:00	2024-11-06T03:00:00	3	Temperatura mínima	14.7
36892	7	Sololá	701	Sololá	3	Barraneche	7	Julio	2023-12-07T00:00:00	2024-11-06T03:00:00	5	Humedad	63
36893	7	Sololá	701	Sololá	3	Barraneche	7	Julio	2023-12-07T00:00:00	2024-11-06T03:00:00	6	Velocidad del viento	22.5
36894	7	Sololá	701	Sololá	3	Barraneche	7	Julio	2023-12-07T00:00:00	2024-11-06T03:00:00	7	Dirección del viento	22.53
36895	7	Sololá	701	Sololá	3	Barraneche	7	Julio	2023-12-07T00:00:00	2024-11-06T03:00:00	1	Precipitación	0
36896	7	Sololá	701	Sololá	3	Barraneche	7	Julio	2023-12-07T00:00:00	2024-11-06T03:00:00	8	Radiación solar	0
36897	7	Sololá	701	Sololá	3	Barraneche	7	Julio	2023-12-07T00:00:00	2024-11-06T04:00:00	2	Temperatura media	14.8
36898	7	Sololá	701	Sololá	3	Barraneche	7	Julio	2023-12-07T00:00:00	2024-11-06T04:00:00	4	Temperatura máxima	15.1
36899	7	Sololá	701	Sololá	3	Barraneche	7	Julio	2023-12-07T00:00:00	2024-11-06T04:00:00	3	Temperatura mínima	14.7
36900	7	Sololá	701	Sololá	3	Barraneche	7	Julio	2023-12-07T00:00:00	2024-11-06T04:00:00	5	Humedad	64
36901	7	Sololá	701	Sololá	3	Barraneche	7	Julio	2023-12-07T00:00:00	2024-11-06T04:00:00	6	Velocidad del viento	17.7
36902	7	Sololá	701	Sololá	3	Barraneche	7	Julio	2023-12-07T00:00:00	2024-11-06T04:00:00	7	Dirección del viento	17.7
36903	7	Sololá	701	Sololá	3	Barraneche	7	Julio	2023-12-07T00:00:00	2024-11-06T04:00:00	1	Precipitación	0
36904	7	Sololá	701	Sololá	3	Barraneche	7	Julio	2023-12-07T00:00:00	2024-11-06T04:00:00	8	Radiación solar	0
36905	7	Sololá	701	Sololá	3	Barraneche	7	Julio	2023-12-07T00:00:00	2024-11-06T05:00:00	2	Temperatura media	15.2
36906	7	Sololá	701	Sololá	3	Barraneche	7	Julio	2023-12-07T00:00:00	2024-11-06T05:00:00	4	Temperatura máxima	15.2
36907	7	Sololá	701	Sololá	3	Barraneche	7	Julio	2023-12-07T00:00:00	2024-11-06T05:00:00	3	Temperatura mínima	14.8
36908	7	Sololá	701	Sololá	3	Barraneche	7	Julio	2023-12-07T00:00:00	2024-11-06T05:00:00	5	Humedad	65
36909	7	Sololá	701	Sololá	3	Barraneche	7	Julio	2023-12-07T00:00:00	2024-11-06T05:00:00	6	Velocidad del viento	20.9
36910	7	Sololá	701	Sololá	3	Barraneche	7	Julio	2023-12-07T00:00:00	2024-11-06T05:00:00	7	Dirección del viento	20.92
36911	7	Sololá	701	Sololá	3	Barraneche	7	Julio	2023-12-07T00:00:00	2024-11-06T05:00:00	1	Precipitación	0
36912	7	Sololá	701	Sololá	3	Barraneche	7	Julio	2023-12-07T00:00:00	2024-11-06T05:00:00	8	Radiación solar	0
36913	7	Sololá	701	Sololá	3	Barraneche	7	Julio	2023-12-07T00:00:00	2024-11-06T06:00:00	2	Temperatura media	14
36914	7	Sololá	701	Sololá	3	Barraneche	7	Julio	2023-12-07T00:00:00	2024-11-06T06:00:00	4	Temperatura máxima	15.2
36915	7	Sololá	701	Sololá	3	Barraneche	7	Julio	2023-12-07T00:00:00	2024-11-06T06:00:00	3	Temperatura mínima	14
36916	7	Sololá	701	Sololá	3	Barraneche	7	Julio	2023-12-07T00:00:00	2024-11-06T06:00:00	5	Humedad	68
36917	7	Sololá	701	Sololá	3	Barraneche	7	Julio	2023-12-07T00:00:00	2024-11-06T06:00:00	6	Velocidad del viento	24.1
36918	7	Sololá	701	Sololá	3	Barraneche	7	Julio	2023-12-07T00:00:00	2024-11-06T06:00:00	7	Dirección del viento	24.14
36919	7	Sololá	701	Sololá	3	Barraneche	7	Julio	2023-12-07T00:00:00	2024-11-06T06:00:00	1	Precipitación	0
36920	7	Sololá	701	Sololá	3	Barraneche	7	Julio	2023-12-07T00:00:00	2024-11-06T06:00:00	8	Radiación solar	2
36921	7	Sololá	701	Sololá	3	Barraneche	7	Julio	2023-12-07T00:00:00	2024-11-06T07:00:00	2	Temperatura media	14.8
36922	7	Sololá	701	Sololá	3	Barraneche	7	Julio	2023-12-07T00:00:00	2024-11-06T07:00:00	4	Temperatura máxima	14.8
36923	7	Sololá	701	Sololá	3	Barraneche	7	Julio	2023-12-07T00:00:00	2024-11-06T07:00:00	3	Temperatura mínima	13.9
36924	7	Sololá	701	Sololá	3	Barraneche	7	Julio	2023-12-07T00:00:00	2024-11-06T07:00:00	5	Humedad	63
36925	7	Sololá	701	Sololá	3	Barraneche	7	Julio	2023-12-07T00:00:00	2024-11-06T07:00:00	6	Velocidad del viento	14.5
36926	7	Sololá	701	Sololá	3	Barraneche	7	Julio	2023-12-07T00:00:00	2024-11-06T07:00:00	7	Dirección del viento	14.48
36927	7	Sololá	701	Sololá	3	Barraneche	7	Julio	2023-12-07T00:00:00	2024-11-06T07:00:00	1	Precipitación	0
36928	7	Sololá	701	Sololá	3	Barraneche	7	Julio	2023-12-07T00:00:00	2024-11-06T07:00:00	8	Radiación solar	99
36929	7	Sololá	701	Sololá	3	Barraneche	7	Julio	2023-12-07T00:00:00	2024-11-06T08:00:00	2	Temperatura media	15.7
36930	7	Sololá	701	Sololá	3	Barraneche	7	Julio	2023-12-07T00:00:00	2024-11-06T08:00:00	4	Temperatura máxima	15.8
36931	7	Sololá	701	Sololá	3	Barraneche	7	Julio	2023-12-07T00:00:00	2024-11-06T08:00:00	3	Temperatura mínima	14.8
36932	7	Sololá	701	Sololá	3	Barraneche	7	Julio	2023-12-07T00:00:00	2024-11-06T08:00:00	5	Humedad	62
36933	7	Sololá	701	Sololá	3	Barraneche	7	Julio	2023-12-07T00:00:00	2024-11-06T08:00:00	6	Velocidad del viento	19.3
36934	7	Sololá	701	Sololá	3	Barraneche	7	Julio	2023-12-07T00:00:00	2024-11-06T08:00:00	7	Dirección del viento	19.31
36935	7	Sololá	701	Sololá	3	Barraneche	7	Julio	2023-12-07T00:00:00	2024-11-06T08:00:00	1	Precipitación	0
36936	7	Sololá	701	Sololá	3	Barraneche	7	Julio	2023-12-07T00:00:00	2024-11-06T08:00:00	8	Radiación solar	363
36937	7	Sololá	701	Sololá	3	Barraneche	7	Julio	2023-12-07T00:00:00	2024-11-06T09:00:00	2	Temperatura media	16.8
36938	7	Sololá	701	Sololá	3	Barraneche	7	Julio	2023-12-07T00:00:00	2024-11-06T09:00:00	4	Temperatura máxima	16.9
36939	7	Sololá	701	Sololá	3	Barraneche	7	Julio	2023-12-07T00:00:00	2024-11-06T09:00:00	3	Temperatura mínima	15.7
36940	7	Sololá	701	Sololá	3	Barraneche	7	Julio	2023-12-07T00:00:00	2024-11-06T09:00:00	5	Humedad	56
36941	7	Sololá	701	Sololá	3	Barraneche	7	Julio	2023-12-07T00:00:00	2024-11-06T09:00:00	6	Velocidad del viento	20.9
36942	7	Sololá	701	Sololá	3	Barraneche	7	Julio	2023-12-07T00:00:00	2024-11-06T09:00:00	7	Dirección del viento	20.92
36943	7	Sololá	701	Sololá	3	Barraneche	7	Julio	2023-12-07T00:00:00	2024-11-06T09:00:00	1	Precipitación	0
36944	7	Sololá	701	Sololá	3	Barraneche	7	Julio	2023-12-07T00:00:00	2024-11-06T09:00:00	8	Radiación solar	565
36945	7	Sololá	701	Sololá	3	Barraneche	7	Julio	2023-12-07T00:00:00	2024-11-06T10:00:00	2	Temperatura media	18.3
36946	7	Sololá	701	Sololá	3	Barraneche	7	Julio	2023-12-07T00:00:00	2024-11-06T10:00:00	4	Temperatura máxima	18.3
36947	7	Sololá	701	Sololá	3	Barraneche	7	Julio	2023-12-07T00:00:00	2024-11-06T10:00:00	3	Temperatura mínima	16.7
36948	7	Sololá	701	Sololá	3	Barraneche	7	Julio	2023-12-07T00:00:00	2024-11-06T10:00:00	5	Humedad	54
36949	7	Sololá	701	Sololá	3	Barraneche	7	Julio	2023-12-07T00:00:00	2024-11-06T10:00:00	6	Velocidad del viento	14.5
36950	7	Sololá	701	Sololá	3	Barraneche	7	Julio	2023-12-07T00:00:00	2024-11-06T10:00:00	7	Dirección del viento	14.48
36951	7	Sololá	701	Sololá	3	Barraneche	7	Julio	2023-12-07T00:00:00	2024-11-06T10:00:00	1	Precipitación	0
36952	7	Sololá	701	Sololá	3	Barraneche	7	Julio	2023-12-07T00:00:00	2024-11-06T10:00:00	8	Radiación solar	736
36953	7	Sololá	701	Sololá	3	Barraneche	7	Julio	2023-12-07T00:00:00	2024-11-06T11:00:00	2	Temperatura media	18.6
36954	7	Sololá	701	Sololá	3	Barraneche	7	Julio	2023-12-07T00:00:00	2024-11-06T11:00:00	4	Temperatura máxima	18.8
36955	7	Sololá	701	Sololá	3	Barraneche	7	Julio	2023-12-07T00:00:00	2024-11-06T11:00:00	3	Temperatura mínima	17.8
36956	7	Sololá	701	Sololá	3	Barraneche	7	Julio	2023-12-07T00:00:00	2024-11-06T11:00:00	5	Humedad	56
36957	7	Sololá	701	Sololá	3	Barraneche	7	Julio	2023-12-07T00:00:00	2024-11-06T11:00:00	6	Velocidad del viento	11.3
36958	7	Sololá	701	Sololá	3	Barraneche	7	Julio	2023-12-07T00:00:00	2024-11-06T11:00:00	7	Dirección del viento	11.27
36959	7	Sololá	701	Sololá	3	Barraneche	7	Julio	2023-12-07T00:00:00	2024-11-06T11:00:00	1	Precipitación	0
36960	7	Sololá	701	Sololá	3	Barraneche	7	Julio	2023-12-07T00:00:00	2024-11-06T11:00:00	8	Radiación solar	875
36961	7	Sololá	701	Sololá	3	Barraneche	7	Julio	2023-12-07T00:00:00	2024-11-06T12:00:00	2	Temperatura media	18.5
36962	7	Sololá	701	Sololá	3	Barraneche	7	Julio	2023-12-07T00:00:00	2024-11-06T12:00:00	4	Temperatura máxima	19.4
36963	7	Sololá	701	Sololá	3	Barraneche	7	Julio	2023-12-07T00:00:00	2024-11-06T12:00:00	3	Temperatura mínima	18.5
36964	7	Sololá	701	Sololá	3	Barraneche	7	Julio	2023-12-07T00:00:00	2024-11-06T12:00:00	5	Humedad	55
36965	7	Sololá	701	Sololá	3	Barraneche	7	Julio	2023-12-07T00:00:00	2024-11-06T12:00:00	6	Velocidad del viento	11.3
36966	7	Sololá	701	Sololá	3	Barraneche	7	Julio	2023-12-07T00:00:00	2024-11-06T12:00:00	7	Dirección del viento	11.27
36967	7	Sololá	701	Sololá	3	Barraneche	7	Julio	2023-12-07T00:00:00	2024-11-06T12:00:00	1	Precipitación	0
36968	7	Sololá	701	Sololá	3	Barraneche	7	Julio	2023-12-07T00:00:00	2024-11-06T12:00:00	8	Radiación solar	720
36969	7	Sololá	701	Sololá	3	Barraneche	7	Julio	2023-12-07T00:00:00	2024-11-06T13:00:00	2	Temperatura media	19.5
36970	7	Sololá	701	Sololá	3	Barraneche	7	Julio	2023-12-07T00:00:00	2024-11-06T13:00:00	4	Temperatura máxima	19.6
36971	7	Sololá	701	Sololá	3	Barraneche	7	Julio	2023-12-07T00:00:00	2024-11-06T13:00:00	3	Temperatura mínima	18.4
36972	7	Sololá	701	Sololá	3	Barraneche	7	Julio	2023-12-07T00:00:00	2024-11-06T13:00:00	5	Humedad	50
36973	7	Sololá	701	Sololá	3	Barraneche	7	Julio	2023-12-07T00:00:00	2024-11-06T13:00:00	6	Velocidad del viento	12.9
36974	7	Sololá	701	Sololá	3	Barraneche	7	Julio	2023-12-07T00:00:00	2024-11-06T13:00:00	7	Dirección del viento	12.87
36975	7	Sololá	701	Sololá	3	Barraneche	7	Julio	2023-12-07T00:00:00	2024-11-06T13:00:00	1	Precipitación	0
36976	7	Sololá	701	Sololá	3	Barraneche	7	Julio	2023-12-07T00:00:00	2024-11-06T13:00:00	8	Radiación solar	986
36977	7	Sololá	701	Sololá	3	Barraneche	7	Julio	2023-12-07T00:00:00	2024-11-06T14:00:00	2	Temperatura media	19.9
36978	7	Sololá	701	Sololá	3	Barraneche	7	Julio	2023-12-07T00:00:00	2024-11-06T14:00:00	4	Temperatura máxima	20.2
36979	7	Sololá	701	Sololá	3	Barraneche	7	Julio	2023-12-07T00:00:00	2024-11-06T14:00:00	3	Temperatura mínima	19.4
36980	7	Sololá	701	Sololá	3	Barraneche	7	Julio	2023-12-07T00:00:00	2024-11-06T14:00:00	5	Humedad	50
36981	7	Sololá	701	Sololá	3	Barraneche	7	Julio	2023-12-07T00:00:00	2024-11-06T14:00:00	6	Velocidad del viento	11.3
36982	7	Sololá	701	Sololá	3	Barraneche	7	Julio	2023-12-07T00:00:00	2024-11-06T14:00:00	7	Dirección del viento	11.27
36983	7	Sololá	701	Sololá	3	Barraneche	7	Julio	2023-12-07T00:00:00	2024-11-06T14:00:00	1	Precipitación	0
36984	7	Sololá	701	Sololá	3	Barraneche	7	Julio	2023-12-07T00:00:00	2024-11-06T14:00:00	8	Radiación solar	915
36985	7	Sololá	701	Sololá	3	Barraneche	7	Julio	2023-12-07T00:00:00	2024-11-06T15:00:00	2	Temperatura media	19.8
36986	7	Sololá	701	Sololá	3	Barraneche	7	Julio	2023-12-07T00:00:00	2024-11-06T15:00:00	4	Temperatura máxima	20.2
36987	7	Sololá	701	Sololá	3	Barraneche	7	Julio	2023-12-07T00:00:00	2024-11-06T15:00:00	3	Temperatura mínima	19.5
36988	7	Sololá	701	Sololá	3	Barraneche	7	Julio	2023-12-07T00:00:00	2024-11-06T15:00:00	5	Humedad	46
36989	7	Sololá	701	Sololá	3	Barraneche	7	Julio	2023-12-07T00:00:00	2024-11-06T15:00:00	6	Velocidad del viento	12.9
36990	7	Sololá	701	Sololá	3	Barraneche	7	Julio	2023-12-07T00:00:00	2024-11-06T15:00:00	7	Dirección del viento	12.87
36991	7	Sololá	701	Sololá	3	Barraneche	7	Julio	2023-12-07T00:00:00	2024-11-06T15:00:00	1	Precipitación	0
36992	7	Sololá	701	Sololá	3	Barraneche	7	Julio	2023-12-07T00:00:00	2024-11-06T15:00:00	8	Radiación solar	702
36993	7	Sololá	701	Sololá	3	Barraneche	7	Julio	2023-12-07T00:00:00	2024-11-06T16:00:00	2	Temperatura media	19.6
36994	7	Sololá	701	Sololá	3	Barraneche	7	Julio	2023-12-07T00:00:00	2024-11-06T16:00:00	4	Temperatura máxima	19.8
36995	7	Sololá	701	Sololá	3	Barraneche	7	Julio	2023-12-07T00:00:00	2024-11-06T16:00:00	3	Temperatura mínima	19.5
36996	7	Sololá	701	Sololá	3	Barraneche	7	Julio	2023-12-07T00:00:00	2024-11-06T16:00:00	5	Humedad	51
36997	7	Sololá	701	Sololá	3	Barraneche	7	Julio	2023-12-07T00:00:00	2024-11-06T16:00:00	6	Velocidad del viento	11.3
36998	7	Sololá	701	Sololá	3	Barraneche	7	Julio	2023-12-07T00:00:00	2024-11-06T16:00:00	7	Dirección del viento	11.27
36999	7	Sololá	701	Sololá	3	Barraneche	7	Julio	2023-12-07T00:00:00	2024-11-06T16:00:00	1	Precipitación	0
37000	7	Sololá	701	Sololá	3	Barraneche	7	Julio	2023-12-07T00:00:00	2024-11-06T16:00:00	8	Radiación solar	464
37001	7	Sololá	701	Sololá	3	Barraneche	7	Julio	2023-12-07T00:00:00	2024-11-06T17:00:00	2	Temperatura media	18.9
37002	7	Sololá	701	Sololá	3	Barraneche	7	Julio	2023-12-07T00:00:00	2024-11-06T17:00:00	4	Temperatura máxima	19.9
37003	7	Sololá	701	Sololá	3	Barraneche	7	Julio	2023-12-07T00:00:00	2024-11-06T17:00:00	3	Temperatura mínima	18.9
37004	7	Sololá	701	Sololá	3	Barraneche	7	Julio	2023-12-07T00:00:00	2024-11-06T17:00:00	5	Humedad	55
37005	7	Sololá	701	Sololá	3	Barraneche	7	Julio	2023-12-07T00:00:00	2024-11-06T17:00:00	6	Velocidad del viento	9.7
37006	7	Sololá	701	Sololá	3	Barraneche	7	Julio	2023-12-07T00:00:00	2024-11-06T17:00:00	7	Dirección del viento	9.66
37007	7	Sololá	701	Sololá	3	Barraneche	7	Julio	2023-12-07T00:00:00	2024-11-06T17:00:00	1	Precipitación	0
37008	7	Sololá	701	Sololá	3	Barraneche	7	Julio	2023-12-07T00:00:00	2024-11-06T17:00:00	8	Radiación solar	385
37009	7	Sololá	701	Sololá	3	Barraneche	7	Julio	2023-12-07T00:00:00	2024-11-06T18:00:00	2	Temperatura media	17.9
37010	7	Sololá	701	Sololá	3	Barraneche	7	Julio	2023-12-07T00:00:00	2024-11-06T18:00:00	4	Temperatura máxima	18.9
37011	7	Sololá	701	Sololá	3	Barraneche	7	Julio	2023-12-07T00:00:00	2024-11-06T18:00:00	3	Temperatura mínima	17.9
37012	7	Sololá	701	Sololá	3	Barraneche	7	Julio	2023-12-07T00:00:00	2024-11-06T18:00:00	5	Humedad	58
37013	7	Sololá	701	Sololá	3	Barraneche	7	Julio	2023-12-07T00:00:00	2024-11-06T18:00:00	6	Velocidad del viento	8
37014	7	Sololá	701	Sololá	3	Barraneche	7	Julio	2023-12-07T00:00:00	2024-11-06T18:00:00	7	Dirección del viento	8.05
37015	7	Sololá	701	Sololá	3	Barraneche	7	Julio	2023-12-07T00:00:00	2024-11-06T18:00:00	1	Precipitación	0
37016	7	Sololá	701	Sololá	3	Barraneche	7	Julio	2023-12-07T00:00:00	2024-11-06T18:00:00	8	Radiación solar	134
37017	7	Sololá	701	Sololá	3	Barraneche	7	Julio	2023-12-07T00:00:00	2024-11-06T19:00:00	2	Temperatura media	16.6
37018	7	Sololá	701	Sololá	3	Barraneche	7	Julio	2023-12-07T00:00:00	2024-11-06T19:00:00	4	Temperatura máxima	18.1
37019	7	Sololá	701	Sololá	3	Barraneche	7	Julio	2023-12-07T00:00:00	2024-11-06T19:00:00	3	Temperatura mínima	16.6
37020	7	Sololá	701	Sololá	3	Barraneche	7	Julio	2023-12-07T00:00:00	2024-11-06T19:00:00	5	Humedad	65
37021	7	Sololá	701	Sololá	3	Barraneche	7	Julio	2023-12-07T00:00:00	2024-11-06T19:00:00	6	Velocidad del viento	4.8
37022	7	Sololá	701	Sololá	3	Barraneche	7	Julio	2023-12-07T00:00:00	2024-11-06T19:00:00	7	Dirección del viento	4.83
37023	7	Sololá	701	Sololá	3	Barraneche	7	Julio	2023-12-07T00:00:00	2024-11-06T19:00:00	1	Precipitación	0
37024	7	Sololá	701	Sololá	3	Barraneche	7	Julio	2023-12-07T00:00:00	2024-11-06T19:00:00	8	Radiación solar	0
37025	7	Sololá	701	Sololá	3	Barraneche	7	Julio	2023-12-07T00:00:00	2024-11-06T20:00:00	2	Temperatura media	14.5
37026	7	Sololá	701	Sololá	3	Barraneche	7	Julio	2023-12-07T00:00:00	2024-11-06T20:00:00	4	Temperatura máxima	16.6
37027	7	Sololá	701	Sololá	3	Barraneche	7	Julio	2023-12-07T00:00:00	2024-11-06T20:00:00	3	Temperatura mínima	14.5
37028	7	Sololá	701	Sololá	3	Barraneche	7	Julio	2023-12-07T00:00:00	2024-11-06T20:00:00	5	Humedad	69
37029	7	Sololá	701	Sololá	3	Barraneche	7	Julio	2023-12-07T00:00:00	2024-11-06T20:00:00	6	Velocidad del viento	8
37030	7	Sololá	701	Sololá	3	Barraneche	7	Julio	2023-12-07T00:00:00	2024-11-06T20:00:00	7	Dirección del viento	8.05
37031	7	Sololá	701	Sololá	3	Barraneche	7	Julio	2023-12-07T00:00:00	2024-11-06T20:00:00	1	Precipitación	1.4
37032	7	Sololá	701	Sololá	3	Barraneche	7	Julio	2023-12-07T00:00:00	2024-11-06T20:00:00	8	Radiación solar	0
37033	7	Sololá	701	Sololá	3	Barraneche	7	Julio	2023-12-07T00:00:00	2024-11-06T21:00:00	2	Temperatura media	13.6
37034	7	Sololá	701	Sololá	3	Barraneche	7	Julio	2023-12-07T00:00:00	2024-11-06T21:00:00	4	Temperatura máxima	14.5
37035	7	Sololá	701	Sololá	3	Barraneche	7	Julio	2023-12-07T00:00:00	2024-11-06T21:00:00	3	Temperatura mínima	13.2
37036	7	Sololá	701	Sololá	3	Barraneche	7	Julio	2023-12-07T00:00:00	2024-11-06T21:00:00	5	Humedad	69
37037	7	Sololá	701	Sololá	3	Barraneche	7	Julio	2023-12-07T00:00:00	2024-11-06T21:00:00	6	Velocidad del viento	8
37038	7	Sololá	701	Sololá	3	Barraneche	7	Julio	2023-12-07T00:00:00	2024-11-06T21:00:00	7	Dirección del viento	8.05
37039	7	Sololá	701	Sololá	3	Barraneche	7	Julio	2023-12-07T00:00:00	2024-11-06T21:00:00	1	Precipitación	5.2
37040	7	Sololá	701	Sololá	3	Barraneche	7	Julio	2023-12-07T00:00:00	2024-11-06T21:00:00	8	Radiación solar	0
37041	7	Sololá	701	Sololá	3	Barraneche	7	Julio	2023-12-07T00:00:00	2024-11-06T22:00:00	2	Temperatura media	14.1
37042	7	Sololá	701	Sololá	3	Barraneche	7	Julio	2023-12-07T00:00:00	2024-11-06T22:00:00	4	Temperatura máxima	14.3
37043	7	Sololá	701	Sololá	3	Barraneche	7	Julio	2023-12-07T00:00:00	2024-11-06T22:00:00	3	Temperatura mínima	13.6
37044	7	Sololá	701	Sololá	3	Barraneche	7	Julio	2023-12-07T00:00:00	2024-11-06T22:00:00	5	Humedad	68
37045	7	Sololá	701	Sololá	3	Barraneche	7	Julio	2023-12-07T00:00:00	2024-11-06T22:00:00	6	Velocidad del viento	19.3
37046	7	Sololá	701	Sololá	3	Barraneche	7	Julio	2023-12-07T00:00:00	2024-11-06T22:00:00	7	Dirección del viento	19.31
37047	7	Sololá	701	Sololá	3	Barraneche	7	Julio	2023-12-07T00:00:00	2024-11-06T22:00:00	1	Precipitación	2.2
37048	7	Sololá	701	Sololá	3	Barraneche	7	Julio	2023-12-07T00:00:00	2024-11-06T22:00:00	8	Radiación solar	0
37049	7	Sololá	701	Sololá	3	Barraneche	7	Julio	2023-12-07T00:00:00	2024-11-06T23:00:00	2	Temperatura media	15.1
37050	7	Sololá	701	Sololá	3	Barraneche	7	Julio	2023-12-07T00:00:00	2024-11-06T23:00:00	4	Temperatura máxima	15.2
37051	7	Sololá	701	Sololá	3	Barraneche	7	Julio	2023-12-07T00:00:00	2024-11-06T23:00:00	3	Temperatura mínima	14
37052	7	Sololá	701	Sololá	3	Barraneche	7	Julio	2023-12-07T00:00:00	2024-11-06T23:00:00	5	Humedad	66
37053	7	Sololá	701	Sololá	3	Barraneche	7	Julio	2023-12-07T00:00:00	2024-11-06T23:00:00	6	Velocidad del viento	20.9
37054	7	Sololá	701	Sololá	3	Barraneche	7	Julio	2023-12-07T00:00:00	2024-11-06T23:00:00	7	Dirección del viento	20.92
37055	7	Sololá	701	Sololá	3	Barraneche	7	Julio	2023-12-07T00:00:00	2024-11-06T23:00:00	1	Precipitación	0
37056	7	Sololá	701	Sololá	3	Barraneche	7	Julio	2023-12-07T00:00:00	2024-11-06T23:00:00	8	Radiación solar	0
37057	7	Sololá	701	Sololá	3	Barraneche	7	Julio	2023-07-13T00:00:00	2024-11-06T00:00:00	2	Temperatura media	15.1
37058	7	Sololá	701	Sololá	3	Barraneche	7	Julio	2023-07-13T00:00:00	2024-11-06T00:00:00	4	Temperatura máxima	15.4
37059	7	Sololá	701	Sololá	3	Barraneche	7	Julio	2023-07-13T00:00:00	2024-11-06T00:00:00	3	Temperatura mínima	15.1
37060	7	Sololá	701	Sololá	3	Barraneche	7	Julio	2023-07-13T00:00:00	2024-11-06T00:00:00	5	Humedad	64
37061	7	Sololá	701	Sololá	3	Barraneche	7	Julio	2023-07-13T00:00:00	2024-11-06T00:00:00	6	Velocidad del viento	20.9
37062	7	Sololá	701	Sololá	3	Barraneche	7	Julio	2023-07-13T00:00:00	2024-11-06T00:00:00	7	Dirección del viento	20.92
37063	7	Sololá	701	Sololá	3	Barraneche	7	Julio	2023-07-13T00:00:00	2024-11-06T00:00:00	1	Precipitación	0
37064	7	Sololá	701	Sololá	3	Barraneche	7	Julio	2023-07-13T00:00:00	2024-11-06T00:00:00	8	Radiación solar	0
37065	7	Sololá	701	Sololá	3	Barraneche	7	Julio	2023-07-13T00:00:00	2024-11-06T01:00:00	2	Temperatura media	14.9
37066	7	Sololá	701	Sololá	3	Barraneche	7	Julio	2023-07-13T00:00:00	2024-11-06T01:00:00	4	Temperatura máxima	15.1
37067	7	Sololá	701	Sololá	3	Barraneche	7	Julio	2023-07-13T00:00:00	2024-11-06T01:00:00	3	Temperatura mínima	14.7
37068	7	Sololá	701	Sololá	3	Barraneche	7	Julio	2023-07-13T00:00:00	2024-11-06T01:00:00	5	Humedad	63
37069	7	Sololá	701	Sololá	3	Barraneche	7	Julio	2023-07-13T00:00:00	2024-11-06T01:00:00	6	Velocidad del viento	17.7
37070	7	Sololá	701	Sololá	3	Barraneche	7	Julio	2023-07-13T00:00:00	2024-11-06T01:00:00	7	Dirección del viento	17.7
37071	7	Sololá	701	Sololá	3	Barraneche	7	Julio	2023-07-13T00:00:00	2024-11-06T01:00:00	1	Precipitación	0
37072	7	Sololá	701	Sololá	3	Barraneche	7	Julio	2023-07-13T00:00:00	2024-11-06T01:00:00	8	Radiación solar	0
37073	7	Sololá	701	Sololá	3	Barraneche	7	Julio	2023-07-13T00:00:00	2024-11-06T02:00:00	2	Temperatura media	14.9
37074	7	Sololá	701	Sololá	3	Barraneche	7	Julio	2023-07-13T00:00:00	2024-11-06T02:00:00	4	Temperatura máxima	15.3
37075	7	Sololá	701	Sololá	3	Barraneche	7	Julio	2023-07-13T00:00:00	2024-11-06T02:00:00	3	Temperatura mínima	14.8
37076	7	Sololá	701	Sololá	3	Barraneche	7	Julio	2023-07-13T00:00:00	2024-11-06T02:00:00	5	Humedad	58
37077	7	Sololá	701	Sololá	3	Barraneche	7	Julio	2023-07-13T00:00:00	2024-11-06T02:00:00	6	Velocidad del viento	19.3
37078	7	Sololá	701	Sololá	3	Barraneche	7	Julio	2023-07-13T00:00:00	2024-11-06T02:00:00	7	Dirección del viento	19.31
37079	7	Sololá	701	Sololá	3	Barraneche	7	Julio	2023-07-13T00:00:00	2024-11-06T02:00:00	1	Precipitación	0
37080	7	Sololá	701	Sololá	3	Barraneche	7	Julio	2023-07-13T00:00:00	2024-11-06T02:00:00	8	Radiación solar	0
37081	7	Sololá	701	Sololá	3	Barraneche	7	Julio	2023-07-13T00:00:00	2024-11-06T03:00:00	2	Temperatura media	14.7
37082	7	Sololá	701	Sololá	3	Barraneche	7	Julio	2023-07-13T00:00:00	2024-11-06T03:00:00	4	Temperatura máxima	15.2
37083	7	Sololá	701	Sololá	3	Barraneche	7	Julio	2023-07-13T00:00:00	2024-11-06T03:00:00	3	Temperatura mínima	14.7
37084	7	Sololá	701	Sololá	3	Barraneche	7	Julio	2023-07-13T00:00:00	2024-11-06T03:00:00	5	Humedad	57
37085	7	Sololá	701	Sololá	3	Barraneche	7	Julio	2023-07-13T00:00:00	2024-11-06T03:00:00	6	Velocidad del viento	25.7
37086	7	Sololá	701	Sololá	3	Barraneche	7	Julio	2023-07-13T00:00:00	2024-11-06T03:00:00	7	Dirección del viento	25.75
37087	7	Sololá	701	Sololá	3	Barraneche	7	Julio	2023-07-13T00:00:00	2024-11-06T03:00:00	1	Precipitación	0.2
37088	7	Sololá	701	Sololá	3	Barraneche	7	Julio	2023-07-13T00:00:00	2024-11-06T03:00:00	8	Radiación solar	0
37089	7	Sololá	701	Sololá	3	Barraneche	7	Julio	2023-07-13T00:00:00	2024-11-06T04:00:00	2	Temperatura media	14.8
37090	7	Sololá	701	Sololá	3	Barraneche	7	Julio	2023-07-13T00:00:00	2024-11-06T04:00:00	4	Temperatura máxima	14.8
37091	7	Sololá	701	Sololá	3	Barraneche	7	Julio	2023-07-13T00:00:00	2024-11-06T04:00:00	3	Temperatura mínima	13.9
37092	7	Sololá	701	Sololá	3	Barraneche	7	Julio	2023-07-13T00:00:00	2024-11-06T04:00:00	5	Humedad	55
37093	7	Sololá	701	Sololá	3	Barraneche	7	Julio	2023-07-13T00:00:00	2024-11-06T04:00:00	6	Velocidad del viento	27.4
37094	7	Sololá	701	Sololá	3	Barraneche	7	Julio	2023-07-13T00:00:00	2024-11-06T04:00:00	7	Dirección del viento	27.36
37095	7	Sololá	701	Sololá	3	Barraneche	7	Julio	2023-07-13T00:00:00	2024-11-06T04:00:00	1	Precipitación	0
37096	7	Sololá	701	Sololá	3	Barraneche	7	Julio	2023-07-13T00:00:00	2024-11-06T04:00:00	8	Radiación solar	0
37097	7	Sololá	701	Sololá	3	Barraneche	7	Julio	2023-07-13T00:00:00	2024-11-06T05:00:00	2	Temperatura media	14.4
37098	7	Sololá	701	Sololá	3	Barraneche	7	Julio	2023-07-13T00:00:00	2024-11-06T05:00:00	4	Temperatura máxima	15.1
37099	7	Sololá	701	Sololá	3	Barraneche	7	Julio	2023-07-13T00:00:00	2024-11-06T05:00:00	3	Temperatura mínima	14.4
37100	7	Sololá	701	Sololá	3	Barraneche	7	Julio	2023-07-13T00:00:00	2024-11-06T05:00:00	5	Humedad	59
37101	7	Sololá	701	Sololá	3	Barraneche	7	Julio	2023-07-13T00:00:00	2024-11-06T05:00:00	6	Velocidad del viento	19.3
37102	7	Sololá	701	Sololá	3	Barraneche	7	Julio	2023-07-13T00:00:00	2024-11-06T05:00:00	7	Dirección del viento	19.31
37103	7	Sololá	701	Sololá	3	Barraneche	7	Julio	2023-07-13T00:00:00	2024-11-06T05:00:00	1	Precipitación	0
37104	7	Sololá	701	Sololá	3	Barraneche	7	Julio	2023-07-13T00:00:00	2024-11-06T05:00:00	8	Radiación solar	0
37105	7	Sololá	701	Sololá	3	Barraneche	7	Julio	2023-07-13T00:00:00	2024-11-06T06:00:00	2	Temperatura media	14.3
37106	7	Sololá	701	Sololá	3	Barraneche	7	Julio	2023-07-13T00:00:00	2024-11-06T06:00:00	4	Temperatura máxima	14.6
37107	7	Sololá	701	Sololá	3	Barraneche	7	Julio	2023-07-13T00:00:00	2024-11-06T06:00:00	3	Temperatura mínima	14.3
37108	7	Sololá	701	Sololá	3	Barraneche	7	Julio	2023-07-13T00:00:00	2024-11-06T06:00:00	5	Humedad	65
37109	7	Sololá	701	Sololá	3	Barraneche	7	Julio	2023-07-13T00:00:00	2024-11-06T06:00:00	6	Velocidad del viento	29
37110	7	Sololá	701	Sololá	3	Barraneche	7	Julio	2023-07-13T00:00:00	2024-11-06T06:00:00	7	Dirección del viento	28.97
37111	7	Sololá	701	Sololá	3	Barraneche	7	Julio	2023-07-13T00:00:00	2024-11-06T06:00:00	1	Precipitación	0
37112	7	Sololá	701	Sololá	3	Barraneche	7	Julio	2023-07-13T00:00:00	2024-11-06T06:00:00	8	Radiación solar	3
37113	7	Sololá	701	Sololá	3	Barraneche	7	Julio	2023-07-13T00:00:00	2024-11-06T07:00:00	2	Temperatura media	14.7
37114	7	Sololá	701	Sololá	3	Barraneche	7	Julio	2023-07-13T00:00:00	2024-11-06T07:00:00	4	Temperatura máxima	14.7
37115	7	Sololá	701	Sololá	3	Barraneche	7	Julio	2023-07-13T00:00:00	2024-11-06T07:00:00	3	Temperatura mínima	14.2
37116	7	Sololá	701	Sololá	3	Barraneche	7	Julio	2023-07-13T00:00:00	2024-11-06T07:00:00	5	Humedad	66
37117	7	Sololá	701	Sololá	3	Barraneche	7	Julio	2023-07-13T00:00:00	2024-11-06T07:00:00	6	Velocidad del viento	29
37118	7	Sololá	701	Sololá	3	Barraneche	7	Julio	2023-07-13T00:00:00	2024-11-06T07:00:00	7	Dirección del viento	28.97
37119	7	Sololá	701	Sololá	3	Barraneche	7	Julio	2023-07-13T00:00:00	2024-11-06T07:00:00	1	Precipitación	0
37120	7	Sololá	701	Sololá	3	Barraneche	7	Julio	2023-07-13T00:00:00	2024-11-06T07:00:00	8	Radiación solar	90
37121	7	Sololá	701	Sololá	3	Barraneche	7	Julio	2023-07-13T00:00:00	2024-11-06T08:00:00	2	Temperatura media	15.3
37122	7	Sololá	701	Sololá	3	Barraneche	7	Julio	2023-07-13T00:00:00	2024-11-06T08:00:00	4	Temperatura máxima	15.7
37123	7	Sololá	701	Sololá	3	Barraneche	7	Julio	2023-07-13T00:00:00	2024-11-06T08:00:00	3	Temperatura mínima	14.6
37124	7	Sololá	701	Sololá	3	Barraneche	7	Julio	2023-07-13T00:00:00	2024-11-06T08:00:00	5	Humedad	63
37125	7	Sololá	701	Sololá	3	Barraneche	7	Julio	2023-07-13T00:00:00	2024-11-06T08:00:00	6	Velocidad del viento	25.7
37126	7	Sololá	701	Sololá	3	Barraneche	7	Julio	2023-07-13T00:00:00	2024-11-06T08:00:00	7	Dirección del viento	25.75
37127	7	Sololá	701	Sololá	3	Barraneche	7	Julio	2023-07-13T00:00:00	2024-11-06T08:00:00	1	Precipitación	0
37128	7	Sololá	701	Sololá	3	Barraneche	7	Julio	2023-07-13T00:00:00	2024-11-06T08:00:00	8	Radiación solar	351
37129	7	Sololá	701	Sololá	3	Barraneche	7	Julio	2023-07-13T00:00:00	2024-11-06T09:00:00	2	Temperatura media	16.3
37130	7	Sololá	701	Sololá	3	Barraneche	7	Julio	2023-07-13T00:00:00	2024-11-06T09:00:00	4	Temperatura máxima	16.3
37131	7	Sololá	701	Sololá	3	Barraneche	7	Julio	2023-07-13T00:00:00	2024-11-06T09:00:00	3	Temperatura mínima	15.3
37132	7	Sololá	701	Sololá	3	Barraneche	7	Julio	2023-07-13T00:00:00	2024-11-06T09:00:00	5	Humedad	60
37133	7	Sololá	701	Sololá	3	Barraneche	7	Julio	2023-07-13T00:00:00	2024-11-06T09:00:00	6	Velocidad del viento	22.5
37134	7	Sololá	701	Sololá	3	Barraneche	7	Julio	2023-07-13T00:00:00	2024-11-06T09:00:00	7	Dirección del viento	22.53
37135	7	Sololá	701	Sololá	3	Barraneche	7	Julio	2023-07-13T00:00:00	2024-11-06T09:00:00	1	Precipitación	0
37136	7	Sololá	701	Sololá	3	Barraneche	7	Julio	2023-07-13T00:00:00	2024-11-06T09:00:00	8	Radiación solar	588
37137	7	Sololá	701	Sololá	3	Barraneche	7	Julio	2023-07-13T00:00:00	2024-11-06T10:00:00	2	Temperatura media	17.2
37138	7	Sololá	701	Sololá	3	Barraneche	7	Julio	2023-07-13T00:00:00	2024-11-06T10:00:00	4	Temperatura máxima	17.4
37139	7	Sololá	701	Sololá	3	Barraneche	7	Julio	2023-07-13T00:00:00	2024-11-06T10:00:00	3	Temperatura mínima	16.2
37140	7	Sololá	701	Sololá	3	Barraneche	7	Julio	2023-07-13T00:00:00	2024-11-06T10:00:00	5	Humedad	58
37141	7	Sololá	701	Sololá	3	Barraneche	7	Julio	2023-07-13T00:00:00	2024-11-06T10:00:00	6	Velocidad del viento	20.9
37142	7	Sololá	701	Sololá	3	Barraneche	7	Julio	2023-07-13T00:00:00	2024-11-06T10:00:00	7	Dirección del viento	20.92
37143	7	Sololá	701	Sololá	3	Barraneche	7	Julio	2023-07-13T00:00:00	2024-11-06T10:00:00	1	Precipitación	0
37144	7	Sololá	701	Sololá	3	Barraneche	7	Julio	2023-07-13T00:00:00	2024-11-06T10:00:00	8	Radiación solar	776
37145	7	Sololá	701	Sololá	3	Barraneche	7	Julio	2023-07-13T00:00:00	2024-11-06T11:00:00	2	Temperatura media	17.5
37146	7	Sololá	701	Sololá	3	Barraneche	7	Julio	2023-07-13T00:00:00	2024-11-06T11:00:00	4	Temperatura máxima	17.7
37147	7	Sololá	701	Sololá	3	Barraneche	7	Julio	2023-07-13T00:00:00	2024-11-06T11:00:00	3	Temperatura mínima	16.7
37148	7	Sololá	701	Sololá	3	Barraneche	7	Julio	2023-07-13T00:00:00	2024-11-06T11:00:00	5	Humedad	56
37149	7	Sololá	701	Sololá	3	Barraneche	7	Julio	2023-07-13T00:00:00	2024-11-06T11:00:00	6	Velocidad del viento	16.1
37150	7	Sololá	701	Sololá	3	Barraneche	7	Julio	2023-07-13T00:00:00	2024-11-06T11:00:00	7	Dirección del viento	16.09
37151	7	Sololá	701	Sololá	3	Barraneche	7	Julio	2023-07-13T00:00:00	2024-11-06T11:00:00	1	Precipitación	0
37152	7	Sololá	701	Sololá	3	Barraneche	7	Julio	2023-07-13T00:00:00	2024-11-06T11:00:00	8	Radiación solar	917
37153	7	Sololá	701	Sololá	3	Barraneche	7	Julio	2023-07-13T00:00:00	2024-11-06T12:00:00	2	Temperatura media	18.1
37154	7	Sololá	701	Sololá	3	Barraneche	7	Julio	2023-07-13T00:00:00	2024-11-06T12:00:00	4	Temperatura máxima	18.2
37155	7	Sololá	701	Sololá	3	Barraneche	7	Julio	2023-07-13T00:00:00	2024-11-06T12:00:00	3	Temperatura mínima	17.5
37156	7	Sololá	701	Sololá	3	Barraneche	7	Julio	2023-07-13T00:00:00	2024-11-06T12:00:00	5	Humedad	55
37157	7	Sololá	701	Sololá	3	Barraneche	7	Julio	2023-07-13T00:00:00	2024-11-06T12:00:00	6	Velocidad del viento	17.7
37158	7	Sololá	701	Sololá	3	Barraneche	7	Julio	2023-07-13T00:00:00	2024-11-06T12:00:00	7	Dirección del viento	17.7
37159	7	Sololá	701	Sololá	3	Barraneche	7	Julio	2023-07-13T00:00:00	2024-11-06T12:00:00	1	Precipitación	0
37160	7	Sololá	701	Sololá	3	Barraneche	7	Julio	2023-07-13T00:00:00	2024-11-06T12:00:00	8	Radiación solar	1021
37161	7	Sololá	701	Sololá	3	Barraneche	7	Julio	2023-07-13T00:00:00	2024-11-06T13:00:00	2	Temperatura media	18.5
37162	7	Sololá	701	Sololá	3	Barraneche	7	Julio	2023-07-13T00:00:00	2024-11-06T13:00:00	4	Temperatura máxima	18.7
37163	7	Sololá	701	Sololá	3	Barraneche	7	Julio	2023-07-13T00:00:00	2024-11-06T13:00:00	3	Temperatura mínima	18.1
37164	7	Sololá	701	Sololá	3	Barraneche	7	Julio	2023-07-13T00:00:00	2024-11-06T13:00:00	5	Humedad	52
37165	7	Sololá	701	Sololá	3	Barraneche	7	Julio	2023-07-13T00:00:00	2024-11-06T13:00:00	6	Velocidad del viento	12.9
37166	7	Sololá	701	Sololá	3	Barraneche	7	Julio	2023-07-13T00:00:00	2024-11-06T13:00:00	7	Dirección del viento	12.87
37167	7	Sololá	701	Sololá	3	Barraneche	7	Julio	2023-07-13T00:00:00	2024-11-06T13:00:00	1	Precipitación	0
37168	7	Sololá	701	Sololá	3	Barraneche	7	Julio	2023-07-13T00:00:00	2024-11-06T13:00:00	8	Radiación solar	918
37169	7	Sololá	701	Sololá	3	Barraneche	7	Julio	2023-07-13T00:00:00	2024-11-06T14:00:00	2	Temperatura media	19.4
37170	7	Sololá	701	Sololá	3	Barraneche	7	Julio	2023-07-13T00:00:00	2024-11-06T14:00:00	4	Temperatura máxima	19.4
37171	7	Sololá	701	Sololá	3	Barraneche	7	Julio	2023-07-13T00:00:00	2024-11-06T14:00:00	3	Temperatura mínima	18.4
37172	7	Sololá	701	Sololá	3	Barraneche	7	Julio	2023-07-13T00:00:00	2024-11-06T14:00:00	5	Humedad	48
37173	7	Sololá	701	Sololá	3	Barraneche	7	Julio	2023-07-13T00:00:00	2024-11-06T14:00:00	6	Velocidad del viento	11.3
37174	7	Sololá	701	Sololá	3	Barraneche	7	Julio	2023-07-13T00:00:00	2024-11-06T14:00:00	7	Dirección del viento	11.27
37175	7	Sololá	701	Sololá	3	Barraneche	7	Julio	2023-07-13T00:00:00	2024-11-06T14:00:00	1	Precipitación	0
37176	7	Sololá	701	Sololá	3	Barraneche	7	Julio	2023-07-13T00:00:00	2024-11-06T14:00:00	8	Radiación solar	975
37177	7	Sololá	701	Sololá	3	Barraneche	7	Julio	2023-07-13T00:00:00	2024-11-06T15:00:00	2	Temperatura media	19.2
37178	7	Sololá	701	Sololá	3	Barraneche	7	Julio	2023-07-13T00:00:00	2024-11-06T15:00:00	4	Temperatura máxima	19.8
37179	7	Sololá	701	Sololá	3	Barraneche	7	Julio	2023-07-13T00:00:00	2024-11-06T15:00:00	3	Temperatura mínima	19.2
37180	7	Sololá	701	Sololá	3	Barraneche	7	Julio	2023-07-13T00:00:00	2024-11-06T15:00:00	5	Humedad	51
37181	7	Sololá	701	Sololá	3	Barraneche	7	Julio	2023-07-13T00:00:00	2024-11-06T15:00:00	6	Velocidad del viento	12.9
37182	7	Sololá	701	Sololá	3	Barraneche	7	Julio	2023-07-13T00:00:00	2024-11-06T15:00:00	7	Dirección del viento	12.87
37183	7	Sololá	701	Sololá	3	Barraneche	7	Julio	2023-07-13T00:00:00	2024-11-06T15:00:00	1	Precipitación	0
37184	7	Sololá	701	Sololá	3	Barraneche	7	Julio	2023-07-13T00:00:00	2024-11-06T15:00:00	8	Radiación solar	811
37185	7	Sololá	701	Sololá	3	Barraneche	7	Julio	2023-07-13T00:00:00	2024-11-06T16:00:00	2	Temperatura media	19.1
37186	7	Sololá	701	Sololá	3	Barraneche	7	Julio	2023-07-13T00:00:00	2024-11-06T16:00:00	4	Temperatura máxima	19.3
37187	7	Sololá	701	Sololá	3	Barraneche	7	Julio	2023-07-13T00:00:00	2024-11-06T16:00:00	3	Temperatura mínima	18.8
37188	7	Sololá	701	Sololá	3	Barraneche	7	Julio	2023-07-13T00:00:00	2024-11-06T16:00:00	5	Humedad	52
37189	7	Sololá	701	Sololá	3	Barraneche	7	Julio	2023-07-13T00:00:00	2024-11-06T16:00:00	6	Velocidad del viento	11.3
37190	7	Sololá	701	Sololá	3	Barraneche	7	Julio	2023-07-13T00:00:00	2024-11-06T16:00:00	7	Dirección del viento	11.27
37191	7	Sololá	701	Sololá	3	Barraneche	7	Julio	2023-07-13T00:00:00	2024-11-06T16:00:00	1	Precipitación	0
37192	7	Sololá	701	Sololá	3	Barraneche	7	Julio	2023-07-13T00:00:00	2024-11-06T16:00:00	8	Radiación solar	548
37193	7	Sololá	701	Sololá	3	Barraneche	7	Julio	2023-07-13T00:00:00	2024-11-06T17:00:00	2	Temperatura media	18.1
37194	7	Sololá	701	Sololá	3	Barraneche	7	Julio	2023-07-13T00:00:00	2024-11-06T17:00:00	4	Temperatura máxima	19.4
37195	7	Sololá	701	Sololá	3	Barraneche	7	Julio	2023-07-13T00:00:00	2024-11-06T17:00:00	3	Temperatura mínima	17.9
37196	7	Sololá	701	Sololá	3	Barraneche	7	Julio	2023-07-13T00:00:00	2024-11-06T17:00:00	5	Humedad	55
37197	7	Sololá	701	Sololá	3	Barraneche	7	Julio	2023-07-13T00:00:00	2024-11-06T17:00:00	6	Velocidad del viento	12.9
37198	7	Sololá	701	Sololá	3	Barraneche	7	Julio	2023-07-13T00:00:00	2024-11-06T17:00:00	7	Dirección del viento	12.87
37199	7	Sololá	701	Sololá	3	Barraneche	7	Julio	2023-07-13T00:00:00	2024-11-06T17:00:00	1	Precipitación	0
37200	7	Sololá	701	Sololá	3	Barraneche	7	Julio	2023-07-13T00:00:00	2024-11-06T17:00:00	8	Radiación solar	326
37201	7	Sololá	701	Sololá	3	Barraneche	7	Julio	2023-07-13T00:00:00	2024-11-06T18:00:00	2	Temperatura media	17.1
37202	7	Sololá	701	Sololá	3	Barraneche	7	Julio	2023-07-13T00:00:00	2024-11-06T18:00:00	4	Temperatura máxima	18.2
37203	7	Sololá	701	Sololá	3	Barraneche	7	Julio	2023-07-13T00:00:00	2024-11-06T18:00:00	3	Temperatura mínima	17
37204	7	Sololá	701	Sololá	3	Barraneche	7	Julio	2023-07-13T00:00:00	2024-11-06T18:00:00	5	Humedad	59
37205	7	Sololá	701	Sololá	3	Barraneche	7	Julio	2023-07-13T00:00:00	2024-11-06T18:00:00	6	Velocidad del viento	9.7
37206	7	Sololá	701	Sololá	3	Barraneche	7	Julio	2023-07-13T00:00:00	2024-11-06T18:00:00	7	Dirección del viento	9.66
37207	7	Sololá	701	Sololá	3	Barraneche	7	Julio	2023-07-13T00:00:00	2024-11-06T18:00:00	1	Precipitación	0
37208	7	Sololá	701	Sololá	3	Barraneche	7	Julio	2023-07-13T00:00:00	2024-11-06T18:00:00	8	Radiación solar	120
37209	7	Sololá	701	Sololá	3	Barraneche	7	Julio	2023-07-13T00:00:00	2024-11-06T19:00:00	2	Temperatura media	16.2
37210	7	Sololá	701	Sololá	3	Barraneche	7	Julio	2023-07-13T00:00:00	2024-11-06T19:00:00	4	Temperatura máxima	17.1
37211	7	Sololá	701	Sololá	3	Barraneche	7	Julio	2023-07-13T00:00:00	2024-11-06T19:00:00	3	Temperatura mínima	16.2
37212	7	Sololá	701	Sololá	3	Barraneche	7	Julio	2023-07-13T00:00:00	2024-11-06T19:00:00	5	Humedad	63
37213	7	Sololá	701	Sololá	3	Barraneche	7	Julio	2023-07-13T00:00:00	2024-11-06T19:00:00	6	Velocidad del viento	8
37214	7	Sololá	701	Sololá	3	Barraneche	7	Julio	2023-07-13T00:00:00	2024-11-06T19:00:00	7	Dirección del viento	8.05
37215	7	Sololá	701	Sololá	3	Barraneche	7	Julio	2023-07-13T00:00:00	2024-11-06T19:00:00	1	Precipitación	0
37216	7	Sololá	701	Sololá	3	Barraneche	7	Julio	2023-07-13T00:00:00	2024-11-06T19:00:00	8	Radiación solar	0
37217	7	Sololá	701	Sololá	3	Barraneche	7	Julio	2023-07-13T00:00:00	2024-11-06T20:00:00	2	Temperatura media	15.7
37218	7	Sololá	701	Sololá	3	Barraneche	7	Julio	2023-07-13T00:00:00	2024-11-06T20:00:00	4	Temperatura máxima	16.2
37219	7	Sololá	701	Sololá	3	Barraneche	7	Julio	2023-07-13T00:00:00	2024-11-06T20:00:00	3	Temperatura mínima	15.7
37220	7	Sololá	701	Sololá	3	Barraneche	7	Julio	2023-07-13T00:00:00	2024-11-06T20:00:00	5	Humedad	62
37221	7	Sololá	701	Sololá	3	Barraneche	7	Julio	2023-07-13T00:00:00	2024-11-06T20:00:00	6	Velocidad del viento	12.9
37222	7	Sololá	701	Sololá	3	Barraneche	7	Julio	2023-07-13T00:00:00	2024-11-06T20:00:00	7	Dirección del viento	12.87
37223	7	Sololá	701	Sololá	3	Barraneche	7	Julio	2023-07-13T00:00:00	2024-11-06T20:00:00	1	Precipitación	0
37224	7	Sololá	701	Sololá	3	Barraneche	7	Julio	2023-07-13T00:00:00	2024-11-06T20:00:00	8	Radiación solar	0
37225	7	Sololá	701	Sololá	3	Barraneche	7	Julio	2023-07-13T00:00:00	2024-11-06T21:00:00	2	Temperatura media	15.7
37226	7	Sololá	701	Sololá	3	Barraneche	7	Julio	2023-07-13T00:00:00	2024-11-06T21:00:00	4	Temperatura máxima	15.8
37227	7	Sololá	701	Sololá	3	Barraneche	7	Julio	2023-07-13T00:00:00	2024-11-06T21:00:00	3	Temperatura mínima	15.6
37228	7	Sololá	701	Sololá	3	Barraneche	7	Julio	2023-07-13T00:00:00	2024-11-06T21:00:00	5	Humedad	63
37229	7	Sololá	701	Sololá	3	Barraneche	7	Julio	2023-07-13T00:00:00	2024-11-06T21:00:00	6	Velocidad del viento	9.7
37230	7	Sololá	701	Sololá	3	Barraneche	7	Julio	2023-07-13T00:00:00	2024-11-06T21:00:00	7	Dirección del viento	9.66
37231	7	Sololá	701	Sololá	3	Barraneche	7	Julio	2023-07-13T00:00:00	2024-11-06T21:00:00	1	Precipitación	0
37232	7	Sololá	701	Sololá	3	Barraneche	7	Julio	2023-07-13T00:00:00	2024-11-06T21:00:00	8	Radiación solar	0
37233	7	Sololá	701	Sololá	3	Barraneche	7	Julio	2023-07-13T00:00:00	2024-11-06T22:00:00	2	Temperatura media	15.8
37234	7	Sololá	701	Sololá	3	Barraneche	7	Julio	2023-07-13T00:00:00	2024-11-06T22:00:00	4	Temperatura máxima	15.9
37235	7	Sololá	701	Sololá	3	Barraneche	7	Julio	2023-07-13T00:00:00	2024-11-06T22:00:00	3	Temperatura mínima	15.5
37236	7	Sololá	701	Sololá	3	Barraneche	7	Julio	2023-07-13T00:00:00	2024-11-06T22:00:00	5	Humedad	62
37237	7	Sololá	701	Sololá	3	Barraneche	7	Julio	2023-07-13T00:00:00	2024-11-06T22:00:00	6	Velocidad del viento	11.3
37238	7	Sololá	701	Sololá	3	Barraneche	7	Julio	2023-07-13T00:00:00	2024-11-06T22:00:00	7	Dirección del viento	11.27
37239	7	Sololá	701	Sololá	3	Barraneche	7	Julio	2023-07-13T00:00:00	2024-11-06T22:00:00	1	Precipitación	0
37240	7	Sololá	701	Sololá	3	Barraneche	7	Julio	2023-07-13T00:00:00	2024-11-06T22:00:00	8	Radiación solar	0
37241	7	Sololá	701	Sololá	3	Barraneche	7	Julio	2023-07-13T00:00:00	2024-11-06T23:00:00	2	Temperatura media	13.8
37242	7	Sololá	701	Sololá	3	Barraneche	7	Julio	2023-07-13T00:00:00	2024-11-06T23:00:00	4	Temperatura máxima	15.9
37243	7	Sololá	701	Sololá	3	Barraneche	7	Julio	2023-07-13T00:00:00	2024-11-06T23:00:00	3	Temperatura mínima	13.8
37244	7	Sololá	701	Sololá	3	Barraneche	7	Julio	2023-07-13T00:00:00	2024-11-06T23:00:00	5	Humedad	78
37245	7	Sololá	701	Sololá	3	Barraneche	7	Julio	2023-07-13T00:00:00	2024-11-06T23:00:00	6	Velocidad del viento	4.8
37246	7	Sololá	701	Sololá	3	Barraneche	7	Julio	2023-07-13T00:00:00	2024-11-06T23:00:00	7	Dirección del viento	4.83
37247	7	Sololá	701	Sololá	3	Barraneche	7	Julio	2023-07-13T00:00:00	2024-11-06T23:00:00	1	Precipitación	2.6
37248	7	Sololá	701	Sololá	3	Barraneche	7	Julio	2023-07-13T00:00:00	2024-11-06T23:00:00	8	Radiación solar	0
37249	7	Sololá	701	Sololá	3	Barraneche	7	Julio	2023-07-14T00:00:00	2024-11-06T00:00:00	2	Temperatura media	12.3
37250	7	Sololá	701	Sololá	3	Barraneche	7	Julio	2023-07-14T00:00:00	2024-11-06T00:00:00	4	Temperatura máxima	13.8
37251	7	Sololá	701	Sololá	3	Barraneche	7	Julio	2023-07-14T00:00:00	2024-11-06T00:00:00	3	Temperatura mínima	12.3
37252	7	Sololá	701	Sololá	3	Barraneche	7	Julio	2023-07-14T00:00:00	2024-11-06T00:00:00	5	Humedad	78
37253	7	Sololá	701	Sololá	3	Barraneche	7	Julio	2023-07-14T00:00:00	2024-11-06T00:00:00	6	Velocidad del viento	6.4
37254	7	Sololá	701	Sololá	3	Barraneche	7	Julio	2023-07-14T00:00:00	2024-11-06T00:00:00	7	Dirección del viento	6.44
37255	7	Sololá	701	Sololá	3	Barraneche	7	Julio	2023-07-14T00:00:00	2024-11-06T00:00:00	1	Precipitación	14.6
37256	7	Sololá	701	Sololá	3	Barraneche	7	Julio	2023-07-14T00:00:00	2024-11-06T00:00:00	8	Radiación solar	0
37257	7	Sololá	701	Sololá	3	Barraneche	7	Julio	2023-07-14T00:00:00	2024-11-06T01:00:00	2	Temperatura media	13.5
37258	7	Sololá	701	Sololá	3	Barraneche	7	Julio	2023-07-14T00:00:00	2024-11-06T01:00:00	4	Temperatura máxima	13.5
37259	7	Sololá	701	Sololá	3	Barraneche	7	Julio	2023-07-14T00:00:00	2024-11-06T01:00:00	3	Temperatura mínima	12.1
37260	7	Sololá	701	Sololá	3	Barraneche	7	Julio	2023-07-14T00:00:00	2024-11-06T01:00:00	5	Humedad	75
37261	7	Sololá	701	Sololá	3	Barraneche	7	Julio	2023-07-14T00:00:00	2024-11-06T01:00:00	6	Velocidad del viento	6.4
37262	7	Sololá	701	Sololá	3	Barraneche	7	Julio	2023-07-14T00:00:00	2024-11-06T01:00:00	7	Dirección del viento	6.44
37263	7	Sololá	701	Sololá	3	Barraneche	7	Julio	2023-07-14T00:00:00	2024-11-06T01:00:00	1	Precipitación	5.2
37264	7	Sololá	701	Sololá	3	Barraneche	7	Julio	2023-07-14T00:00:00	2024-11-06T01:00:00	8	Radiación solar	0
37265	7	Sololá	701	Sololá	3	Barraneche	7	Julio	2023-07-14T00:00:00	2024-11-06T02:00:00	2	Temperatura media	13.1
37266	7	Sololá	701	Sololá	3	Barraneche	7	Julio	2023-07-14T00:00:00	2024-11-06T02:00:00	4	Temperatura máxima	13.5
37267	7	Sololá	701	Sololá	3	Barraneche	7	Julio	2023-07-14T00:00:00	2024-11-06T02:00:00	3	Temperatura mínima	13.1
37268	7	Sololá	701	Sololá	3	Barraneche	7	Julio	2023-07-14T00:00:00	2024-11-06T02:00:00	5	Humedad	66
37269	7	Sololá	701	Sololá	3	Barraneche	7	Julio	2023-07-14T00:00:00	2024-11-06T02:00:00	6	Velocidad del viento	16.1
37270	7	Sololá	701	Sololá	3	Barraneche	7	Julio	2023-07-14T00:00:00	2024-11-06T02:00:00	7	Dirección del viento	16.09
37271	7	Sololá	701	Sololá	3	Barraneche	7	Julio	2023-07-14T00:00:00	2024-11-06T02:00:00	1	Precipitación	1.6
37272	7	Sololá	701	Sololá	3	Barraneche	7	Julio	2023-07-14T00:00:00	2024-11-06T02:00:00	8	Radiación solar	0
37273	7	Sololá	701	Sololá	3	Barraneche	7	Julio	2023-07-14T00:00:00	2024-11-06T03:00:00	2	Temperatura media	14.1
37274	7	Sololá	701	Sololá	3	Barraneche	7	Julio	2023-07-14T00:00:00	2024-11-06T03:00:00	4	Temperatura máxima	14.4
37275	7	Sololá	701	Sololá	3	Barraneche	7	Julio	2023-07-14T00:00:00	2024-11-06T03:00:00	3	Temperatura mínima	13
37276	7	Sololá	701	Sololá	3	Barraneche	7	Julio	2023-07-14T00:00:00	2024-11-06T03:00:00	5	Humedad	59
37277	7	Sololá	701	Sololá	3	Barraneche	7	Julio	2023-07-14T00:00:00	2024-11-06T03:00:00	6	Velocidad del viento	16.1
37278	7	Sololá	701	Sololá	3	Barraneche	7	Julio	2023-07-14T00:00:00	2024-11-06T03:00:00	7	Dirección del viento	16.09
37279	7	Sololá	701	Sololá	3	Barraneche	7	Julio	2023-07-14T00:00:00	2024-11-06T03:00:00	1	Precipitación	0
37280	7	Sololá	701	Sololá	3	Barraneche	7	Julio	2023-07-14T00:00:00	2024-11-06T03:00:00	8	Radiación solar	0
37281	7	Sololá	701	Sololá	3	Barraneche	7	Julio	2023-07-14T00:00:00	2024-11-06T04:00:00	2	Temperatura media	13.8
37282	7	Sololá	701	Sololá	3	Barraneche	7	Julio	2023-07-14T00:00:00	2024-11-06T04:00:00	4	Temperatura máxima	14.1
37283	7	Sololá	701	Sololá	3	Barraneche	7	Julio	2023-07-14T00:00:00	2024-11-06T04:00:00	3	Temperatura mínima	13.7
37284	7	Sololá	701	Sololá	3	Barraneche	7	Julio	2023-07-14T00:00:00	2024-11-06T04:00:00	5	Humedad	56
37285	7	Sololá	701	Sololá	3	Barraneche	7	Julio	2023-07-14T00:00:00	2024-11-06T04:00:00	6	Velocidad del viento	6.4
37286	7	Sololá	701	Sololá	3	Barraneche	7	Julio	2023-07-14T00:00:00	2024-11-06T04:00:00	7	Dirección del viento	6.44
37287	7	Sololá	701	Sololá	3	Barraneche	7	Julio	2023-07-14T00:00:00	2024-11-06T04:00:00	1	Precipitación	0
37288	7	Sololá	701	Sololá	3	Barraneche	7	Julio	2023-07-14T00:00:00	2024-11-06T04:00:00	8	Radiación solar	0
37289	7	Sololá	701	Sololá	3	Barraneche	7	Julio	2023-07-14T00:00:00	2024-11-06T05:00:00	2	Temperatura media	13.8
37290	7	Sololá	701	Sololá	3	Barraneche	7	Julio	2023-07-14T00:00:00	2024-11-06T05:00:00	4	Temperatura máxima	14
37291	7	Sololá	701	Sololá	3	Barraneche	7	Julio	2023-07-14T00:00:00	2024-11-06T05:00:00	3	Temperatura mínima	13.6
37292	7	Sololá	701	Sololá	3	Barraneche	7	Julio	2023-07-14T00:00:00	2024-11-06T05:00:00	5	Humedad	64
37293	7	Sololá	701	Sololá	3	Barraneche	7	Julio	2023-07-14T00:00:00	2024-11-06T05:00:00	6	Velocidad del viento	19.3
37294	7	Sololá	701	Sololá	3	Barraneche	7	Julio	2023-07-14T00:00:00	2024-11-06T05:00:00	7	Dirección del viento	19.31
37295	7	Sololá	701	Sololá	3	Barraneche	7	Julio	2023-07-14T00:00:00	2024-11-06T05:00:00	1	Precipitación	0
37296	7	Sololá	701	Sololá	3	Barraneche	7	Julio	2023-07-14T00:00:00	2024-11-06T05:00:00	8	Radiación solar	0
37297	7	Sololá	701	Sololá	3	Barraneche	7	Julio	2023-07-14T00:00:00	2024-11-06T06:00:00	2	Temperatura media	14.9
37298	7	Sololá	701	Sololá	3	Barraneche	7	Julio	2023-07-14T00:00:00	2024-11-06T06:00:00	4	Temperatura máxima	14.9
37299	7	Sololá	701	Sololá	3	Barraneche	7	Julio	2023-07-14T00:00:00	2024-11-06T06:00:00	3	Temperatura mínima	13.5
37300	7	Sololá	701	Sololá	3	Barraneche	7	Julio	2023-07-14T00:00:00	2024-11-06T06:00:00	5	Humedad	50
37301	7	Sololá	701	Sololá	3	Barraneche	7	Julio	2023-07-14T00:00:00	2024-11-06T06:00:00	6	Velocidad del viento	20.9
37302	7	Sololá	701	Sololá	3	Barraneche	7	Julio	2023-07-14T00:00:00	2024-11-06T06:00:00	7	Dirección del viento	20.92
37303	7	Sololá	701	Sololá	3	Barraneche	7	Julio	2023-07-14T00:00:00	2024-11-06T06:00:00	1	Precipitación	0
37304	7	Sololá	701	Sololá	3	Barraneche	7	Julio	2023-07-14T00:00:00	2024-11-06T06:00:00	8	Radiación solar	4
37305	7	Sololá	701	Sololá	3	Barraneche	7	Julio	2023-07-14T00:00:00	2024-11-06T07:00:00	2	Temperatura media	13.9
37306	7	Sololá	701	Sololá	3	Barraneche	7	Julio	2023-07-14T00:00:00	2024-11-06T07:00:00	4	Temperatura máxima	14.9
37307	7	Sololá	701	Sololá	3	Barraneche	7	Julio	2023-07-14T00:00:00	2024-11-06T07:00:00	3	Temperatura mínima	13.8
37308	7	Sololá	701	Sololá	3	Barraneche	7	Julio	2023-07-14T00:00:00	2024-11-06T07:00:00	5	Humedad	62
37309	7	Sololá	701	Sololá	3	Barraneche	7	Julio	2023-07-14T00:00:00	2024-11-06T07:00:00	6	Velocidad del viento	20.9
37310	7	Sololá	701	Sololá	3	Barraneche	7	Julio	2023-07-14T00:00:00	2024-11-06T07:00:00	7	Dirección del viento	20.92
37311	7	Sololá	701	Sololá	3	Barraneche	7	Julio	2023-07-14T00:00:00	2024-11-06T07:00:00	1	Precipitación	0
37312	7	Sololá	701	Sololá	3	Barraneche	7	Julio	2023-07-14T00:00:00	2024-11-06T07:00:00	8	Radiación solar	85
37313	7	Sololá	701	Sololá	3	Barraneche	7	Julio	2023-07-14T00:00:00	2024-11-06T08:00:00	2	Temperatura media	15.4
37314	7	Sololá	701	Sololá	3	Barraneche	7	Julio	2023-07-14T00:00:00	2024-11-06T08:00:00	4	Temperatura máxima	15.6
37315	7	Sololá	701	Sololá	3	Barraneche	7	Julio	2023-07-14T00:00:00	2024-11-06T08:00:00	3	Temperatura mínima	13.9
37316	7	Sololá	701	Sololá	3	Barraneche	7	Julio	2023-07-14T00:00:00	2024-11-06T08:00:00	5	Humedad	51
37317	7	Sololá	701	Sololá	3	Barraneche	7	Julio	2023-07-14T00:00:00	2024-11-06T08:00:00	6	Velocidad del viento	16.1
37318	7	Sololá	701	Sololá	3	Barraneche	7	Julio	2023-07-14T00:00:00	2024-11-06T08:00:00	7	Dirección del viento	16.09
37319	7	Sololá	701	Sololá	3	Barraneche	7	Julio	2023-07-14T00:00:00	2024-11-06T08:00:00	1	Precipitación	0
37320	7	Sololá	701	Sololá	3	Barraneche	7	Julio	2023-07-14T00:00:00	2024-11-06T08:00:00	8	Radiación solar	243
37321	7	Sololá	701	Sololá	3	Barraneche	7	Julio	2023-07-14T00:00:00	2024-11-06T09:00:00	2	Temperatura media	16.4
37322	7	Sololá	701	Sololá	3	Barraneche	7	Julio	2023-07-14T00:00:00	2024-11-06T09:00:00	4	Temperatura máxima	16.6
37323	7	Sololá	701	Sololá	3	Barraneche	7	Julio	2023-07-14T00:00:00	2024-11-06T09:00:00	3	Temperatura mínima	15.4
37324	7	Sololá	701	Sololá	3	Barraneche	7	Julio	2023-07-14T00:00:00	2024-11-06T09:00:00	5	Humedad	51
37325	7	Sololá	701	Sololá	3	Barraneche	7	Julio	2023-07-14T00:00:00	2024-11-06T09:00:00	6	Velocidad del viento	16.1
37326	7	Sololá	701	Sololá	3	Barraneche	7	Julio	2023-07-14T00:00:00	2024-11-06T09:00:00	7	Dirección del viento	16.09
37327	7	Sololá	701	Sololá	3	Barraneche	7	Julio	2023-07-14T00:00:00	2024-11-06T09:00:00	1	Precipitación	0
37328	7	Sololá	701	Sololá	3	Barraneche	7	Julio	2023-07-14T00:00:00	2024-11-06T09:00:00	8	Radiación solar	439
37329	7	Sololá	701	Sololá	3	Barraneche	7	Julio	2023-07-14T00:00:00	2024-11-06T10:00:00	2	Temperatura media	17.2
37330	7	Sololá	701	Sololá	3	Barraneche	7	Julio	2023-07-14T00:00:00	2024-11-06T10:00:00	4	Temperatura máxima	17.6
37331	7	Sololá	701	Sololá	3	Barraneche	7	Julio	2023-07-14T00:00:00	2024-11-06T10:00:00	3	Temperatura mínima	16.4
37332	7	Sololá	701	Sololá	3	Barraneche	7	Julio	2023-07-14T00:00:00	2024-11-06T10:00:00	5	Humedad	50
37333	7	Sololá	701	Sololá	3	Barraneche	7	Julio	2023-07-14T00:00:00	2024-11-06T10:00:00	6	Velocidad del viento	16.1
37334	7	Sololá	701	Sololá	3	Barraneche	7	Julio	2023-07-14T00:00:00	2024-11-06T10:00:00	7	Dirección del viento	16.09
37335	7	Sololá	701	Sololá	3	Barraneche	7	Julio	2023-07-14T00:00:00	2024-11-06T10:00:00	1	Precipitación	0
37336	7	Sololá	701	Sololá	3	Barraneche	7	Julio	2023-07-14T00:00:00	2024-11-06T10:00:00	8	Radiación solar	673
37337	7	Sololá	701	Sololá	3	Barraneche	7	Julio	2023-07-14T00:00:00	2024-11-06T11:00:00	2	Temperatura media	17.4
37338	7	Sololá	701	Sololá	3	Barraneche	7	Julio	2023-07-14T00:00:00	2024-11-06T11:00:00	4	Temperatura máxima	17.7
37339	7	Sololá	701	Sololá	3	Barraneche	7	Julio	2023-07-14T00:00:00	2024-11-06T11:00:00	3	Temperatura mínima	17.1
37340	7	Sololá	701	Sololá	3	Barraneche	7	Julio	2023-07-14T00:00:00	2024-11-06T11:00:00	5	Humedad	48
37341	7	Sololá	701	Sololá	3	Barraneche	7	Julio	2023-07-14T00:00:00	2024-11-06T11:00:00	6	Velocidad del viento	20.9
37342	7	Sololá	701	Sololá	3	Barraneche	7	Julio	2023-07-14T00:00:00	2024-11-06T11:00:00	7	Dirección del viento	20.92
37343	7	Sololá	701	Sololá	3	Barraneche	7	Julio	2023-07-14T00:00:00	2024-11-06T11:00:00	1	Precipitación	0
37344	7	Sololá	701	Sololá	3	Barraneche	7	Julio	2023-07-14T00:00:00	2024-11-06T11:00:00	8	Radiación solar	715
37345	7	Sololá	701	Sololá	3	Barraneche	7	Julio	2023-07-14T00:00:00	2024-11-06T12:00:00	2	Temperatura media	18.5
37346	7	Sololá	701	Sololá	3	Barraneche	7	Julio	2023-07-14T00:00:00	2024-11-06T12:00:00	4	Temperatura máxima	18.5
37347	7	Sololá	701	Sololá	3	Barraneche	7	Julio	2023-07-14T00:00:00	2024-11-06T12:00:00	3	Temperatura mínima	17.4
37348	7	Sololá	701	Sololá	3	Barraneche	7	Julio	2023-07-14T00:00:00	2024-11-06T12:00:00	5	Humedad	47
37349	7	Sololá	701	Sololá	3	Barraneche	7	Julio	2023-07-14T00:00:00	2024-11-06T12:00:00	6	Velocidad del viento	17.7
37350	7	Sololá	701	Sololá	3	Barraneche	7	Julio	2023-07-14T00:00:00	2024-11-06T12:00:00	7	Dirección del viento	17.7
37351	7	Sololá	701	Sololá	3	Barraneche	7	Julio	2023-07-14T00:00:00	2024-11-06T12:00:00	1	Precipitación	0
37352	7	Sololá	701	Sololá	3	Barraneche	7	Julio	2023-07-14T00:00:00	2024-11-06T12:00:00	8	Radiación solar	920
37353	7	Sololá	701	Sololá	3	Barraneche	7	Julio	2023-07-14T00:00:00	2024-11-06T13:00:00	2	Temperatura media	19.1
37354	7	Sololá	701	Sololá	3	Barraneche	7	Julio	2023-07-14T00:00:00	2024-11-06T13:00:00	4	Temperatura máxima	19.2
37355	7	Sololá	701	Sololá	3	Barraneche	7	Julio	2023-07-14T00:00:00	2024-11-06T13:00:00	3	Temperatura mínima	18.5
37356	7	Sololá	701	Sololá	3	Barraneche	7	Julio	2023-07-14T00:00:00	2024-11-06T13:00:00	5	Humedad	49
37357	7	Sololá	701	Sololá	3	Barraneche	7	Julio	2023-07-14T00:00:00	2024-11-06T13:00:00	6	Velocidad del viento	16.1
37358	7	Sololá	701	Sololá	3	Barraneche	7	Julio	2023-07-14T00:00:00	2024-11-06T13:00:00	7	Dirección del viento	16.09
37359	7	Sololá	701	Sololá	3	Barraneche	7	Julio	2023-07-14T00:00:00	2024-11-06T13:00:00	1	Precipitación	0
37360	7	Sololá	701	Sololá	3	Barraneche	7	Julio	2023-07-14T00:00:00	2024-11-06T13:00:00	8	Radiación solar	938
37361	7	Sololá	701	Sololá	3	Barraneche	7	Julio	2023-07-14T00:00:00	2024-11-06T14:00:00	2	Temperatura media	19.3
37362	7	Sololá	701	Sololá	3	Barraneche	7	Julio	2023-07-14T00:00:00	2024-11-06T14:00:00	4	Temperatura máxima	19.5
37363	7	Sololá	701	Sololá	3	Barraneche	7	Julio	2023-07-14T00:00:00	2024-11-06T14:00:00	3	Temperatura mínima	19
37364	7	Sololá	701	Sololá	3	Barraneche	7	Julio	2023-07-14T00:00:00	2024-11-06T14:00:00	5	Humedad	50
37365	7	Sololá	701	Sololá	3	Barraneche	7	Julio	2023-07-14T00:00:00	2024-11-06T14:00:00	6	Velocidad del viento	17.7
37366	7	Sololá	701	Sololá	3	Barraneche	7	Julio	2023-07-14T00:00:00	2024-11-06T14:00:00	7	Dirección del viento	17.7
37367	7	Sololá	701	Sololá	3	Barraneche	7	Julio	2023-07-14T00:00:00	2024-11-06T14:00:00	1	Precipitación	0
37368	7	Sololá	701	Sololá	3	Barraneche	7	Julio	2023-07-14T00:00:00	2024-11-06T14:00:00	8	Radiación solar	797
37369	7	Sololá	701	Sololá	3	Barraneche	7	Julio	2023-07-14T00:00:00	2024-11-06T15:00:00	2	Temperatura media	18.7
37370	7	Sololá	701	Sololá	3	Barraneche	7	Julio	2023-07-14T00:00:00	2024-11-06T15:00:00	4	Temperatura máxima	19.6
37371	7	Sololá	701	Sololá	3	Barraneche	7	Julio	2023-07-14T00:00:00	2024-11-06T15:00:00	3	Temperatura mínima	18.6
37372	7	Sololá	701	Sololá	3	Barraneche	7	Julio	2023-07-14T00:00:00	2024-11-06T15:00:00	5	Humedad	51
37373	7	Sololá	701	Sololá	3	Barraneche	7	Julio	2023-07-14T00:00:00	2024-11-06T15:00:00	6	Velocidad del viento	12.9
37374	7	Sololá	701	Sololá	3	Barraneche	7	Julio	2023-07-14T00:00:00	2024-11-06T15:00:00	7	Dirección del viento	12.87
37375	7	Sololá	701	Sololá	3	Barraneche	7	Julio	2023-07-14T00:00:00	2024-11-06T15:00:00	1	Precipitación	0
37376	7	Sololá	701	Sololá	3	Barraneche	7	Julio	2023-07-14T00:00:00	2024-11-06T15:00:00	8	Radiación solar	538
37377	7	Sololá	701	Sololá	3	Barraneche	7	Julio	2023-07-14T00:00:00	2024-11-06T16:00:00	2	Temperatura media	18.1
37378	7	Sololá	701	Sololá	3	Barraneche	7	Julio	2023-07-14T00:00:00	2024-11-06T16:00:00	4	Temperatura máxima	18.8
37379	7	Sololá	701	Sololá	3	Barraneche	7	Julio	2023-07-14T00:00:00	2024-11-06T16:00:00	3	Temperatura mínima	18.1
37380	7	Sololá	701	Sololá	3	Barraneche	7	Julio	2023-07-14T00:00:00	2024-11-06T16:00:00	5	Humedad	55
37381	7	Sololá	701	Sololá	3	Barraneche	7	Julio	2023-07-14T00:00:00	2024-11-06T16:00:00	6	Velocidad del viento	11.3
37382	7	Sololá	701	Sololá	3	Barraneche	7	Julio	2023-07-14T00:00:00	2024-11-06T16:00:00	7	Dirección del viento	11.27
37383	7	Sololá	701	Sololá	3	Barraneche	7	Julio	2023-07-14T00:00:00	2024-11-06T16:00:00	1	Precipitación	0
37384	7	Sololá	701	Sololá	3	Barraneche	7	Julio	2023-07-14T00:00:00	2024-11-06T16:00:00	8	Radiación solar	320
37385	7	Sololá	701	Sololá	3	Barraneche	7	Julio	2023-07-14T00:00:00	2024-11-06T17:00:00	2	Temperatura media	17.5
37386	7	Sololá	701	Sololá	3	Barraneche	7	Julio	2023-07-14T00:00:00	2024-11-06T17:00:00	4	Temperatura máxima	18.1
37387	7	Sololá	701	Sololá	3	Barraneche	7	Julio	2023-07-14T00:00:00	2024-11-06T17:00:00	3	Temperatura mínima	17.3
37388	7	Sololá	701	Sololá	3	Barraneche	7	Julio	2023-07-14T00:00:00	2024-11-06T17:00:00	5	Humedad	54
37389	7	Sololá	701	Sololá	3	Barraneche	7	Julio	2023-07-14T00:00:00	2024-11-06T17:00:00	6	Velocidad del viento	12.9
37390	7	Sololá	701	Sololá	3	Barraneche	7	Julio	2023-07-14T00:00:00	2024-11-06T17:00:00	7	Dirección del viento	12.87
37391	7	Sololá	701	Sololá	3	Barraneche	7	Julio	2023-07-14T00:00:00	2024-11-06T17:00:00	1	Precipitación	0
37392	7	Sololá	701	Sololá	3	Barraneche	7	Julio	2023-07-14T00:00:00	2024-11-06T17:00:00	8	Radiación solar	256
37393	7	Sololá	701	Sololá	3	Barraneche	7	Julio	2023-07-14T00:00:00	2024-11-06T18:00:00	2	Temperatura media	17.4
37394	7	Sololá	701	Sololá	3	Barraneche	7	Julio	2023-07-14T00:00:00	2024-11-06T18:00:00	4	Temperatura máxima	17.6
37395	7	Sololá	701	Sololá	3	Barraneche	7	Julio	2023-07-14T00:00:00	2024-11-06T18:00:00	3	Temperatura mínima	17.3
37396	7	Sololá	701	Sololá	3	Barraneche	7	Julio	2023-07-14T00:00:00	2024-11-06T18:00:00	5	Humedad	56
37397	7	Sololá	701	Sololá	3	Barraneche	7	Julio	2023-07-14T00:00:00	2024-11-06T18:00:00	6	Velocidad del viento	12.9
37398	7	Sololá	701	Sololá	3	Barraneche	7	Julio	2023-07-14T00:00:00	2024-11-06T18:00:00	7	Dirección del viento	12.87
37399	7	Sololá	701	Sololá	3	Barraneche	7	Julio	2023-07-14T00:00:00	2024-11-06T18:00:00	1	Precipitación	0
37400	7	Sololá	701	Sololá	3	Barraneche	7	Julio	2023-07-14T00:00:00	2024-11-06T18:00:00	8	Radiación solar	182
37401	7	Sololá	701	Sololá	3	Barraneche	7	Julio	2023-07-14T00:00:00	2024-11-06T19:00:00	2	Temperatura media	16.1
37402	7	Sololá	701	Sololá	3	Barraneche	7	Julio	2023-07-14T00:00:00	2024-11-06T19:00:00	4	Temperatura máxima	17.4
37403	7	Sololá	701	Sololá	3	Barraneche	7	Julio	2023-07-14T00:00:00	2024-11-06T19:00:00	3	Temperatura mínima	16.1
37404	7	Sololá	701	Sololá	3	Barraneche	7	Julio	2023-07-14T00:00:00	2024-11-06T19:00:00	5	Humedad	62
37405	7	Sololá	701	Sololá	3	Barraneche	7	Julio	2023-07-14T00:00:00	2024-11-06T19:00:00	6	Velocidad del viento	11.3
37406	7	Sololá	701	Sololá	3	Barraneche	7	Julio	2023-07-14T00:00:00	2024-11-06T19:00:00	7	Dirección del viento	11.27
37407	7	Sololá	701	Sololá	3	Barraneche	7	Julio	2023-07-14T00:00:00	2024-11-06T19:00:00	1	Precipitación	0
37408	7	Sololá	701	Sololá	3	Barraneche	7	Julio	2023-07-14T00:00:00	2024-11-06T19:00:00	8	Radiación solar	0
37409	7	Sololá	701	Sololá	3	Barraneche	7	Julio	2023-07-14T00:00:00	2024-11-06T20:00:00	2	Temperatura media	15.4
37410	7	Sololá	701	Sololá	3	Barraneche	7	Julio	2023-07-14T00:00:00	2024-11-06T20:00:00	4	Temperatura máxima	16.1
37411	7	Sololá	701	Sololá	3	Barraneche	7	Julio	2023-07-14T00:00:00	2024-11-06T20:00:00	3	Temperatura mínima	15.4
37412	7	Sololá	701	Sololá	3	Barraneche	7	Julio	2023-07-14T00:00:00	2024-11-06T20:00:00	5	Humedad	63
37413	7	Sololá	701	Sololá	3	Barraneche	7	Julio	2023-07-14T00:00:00	2024-11-06T20:00:00	6	Velocidad del viento	11.3
37414	7	Sololá	701	Sololá	3	Barraneche	7	Julio	2023-07-14T00:00:00	2024-11-06T20:00:00	7	Dirección del viento	11.27
37415	7	Sololá	701	Sololá	3	Barraneche	7	Julio	2023-07-14T00:00:00	2024-11-06T20:00:00	1	Precipitación	0
37416	7	Sololá	701	Sololá	3	Barraneche	7	Julio	2023-07-14T00:00:00	2024-11-06T20:00:00	8	Radiación solar	0
37417	7	Sololá	701	Sololá	3	Barraneche	7	Julio	2023-07-14T00:00:00	2024-11-06T21:00:00	2	Temperatura media	15.3
37418	7	Sololá	701	Sololá	3	Barraneche	7	Julio	2023-07-14T00:00:00	2024-11-06T21:00:00	4	Temperatura máxima	15.5
37419	7	Sololá	701	Sololá	3	Barraneche	7	Julio	2023-07-14T00:00:00	2024-11-06T21:00:00	3	Temperatura mínima	15.2
37420	7	Sololá	701	Sololá	3	Barraneche	7	Julio	2023-07-14T00:00:00	2024-11-06T21:00:00	5	Humedad	63
37421	7	Sololá	701	Sololá	3	Barraneche	7	Julio	2023-07-14T00:00:00	2024-11-06T21:00:00	6	Velocidad del viento	12.9
37422	7	Sololá	701	Sololá	3	Barraneche	7	Julio	2023-07-14T00:00:00	2024-11-06T21:00:00	7	Dirección del viento	12.87
37423	7	Sololá	701	Sololá	3	Barraneche	7	Julio	2023-07-14T00:00:00	2024-11-06T21:00:00	1	Precipitación	0
37424	7	Sololá	701	Sololá	3	Barraneche	7	Julio	2023-07-14T00:00:00	2024-11-06T21:00:00	8	Radiación solar	0
37425	7	Sololá	701	Sololá	3	Barraneche	7	Julio	2023-07-14T00:00:00	2024-11-06T22:00:00	2	Temperatura media	14.7
37426	7	Sololá	701	Sololá	3	Barraneche	7	Julio	2023-07-14T00:00:00	2024-11-06T22:00:00	4	Temperatura máxima	15.3
37427	7	Sololá	701	Sololá	3	Barraneche	7	Julio	2023-07-14T00:00:00	2024-11-06T22:00:00	3	Temperatura mínima	14.6
37428	7	Sololá	701	Sololá	3	Barraneche	7	Julio	2023-07-14T00:00:00	2024-11-06T22:00:00	5	Humedad	63
37429	7	Sololá	701	Sololá	3	Barraneche	7	Julio	2023-07-14T00:00:00	2024-11-06T22:00:00	6	Velocidad del viento	22.5
37430	7	Sololá	701	Sololá	3	Barraneche	7	Julio	2023-07-14T00:00:00	2024-11-06T22:00:00	7	Dirección del viento	22.53
37431	7	Sololá	701	Sololá	3	Barraneche	7	Julio	2023-07-14T00:00:00	2024-11-06T22:00:00	1	Precipitación	0
37432	7	Sololá	701	Sololá	3	Barraneche	7	Julio	2023-07-14T00:00:00	2024-11-06T22:00:00	8	Radiación solar	0
37433	7	Sololá	701	Sololá	3	Barraneche	7	Julio	2023-07-14T00:00:00	2024-11-06T23:00:00	2	Temperatura media	14.2
37434	7	Sololá	701	Sololá	3	Barraneche	7	Julio	2023-07-14T00:00:00	2024-11-06T23:00:00	4	Temperatura máxima	14.7
37435	7	Sololá	701	Sololá	3	Barraneche	7	Julio	2023-07-14T00:00:00	2024-11-06T23:00:00	3	Temperatura mínima	14.2
37436	7	Sololá	701	Sololá	3	Barraneche	7	Julio	2023-07-14T00:00:00	2024-11-06T23:00:00	5	Humedad	64
37437	7	Sololá	701	Sololá	3	Barraneche	7	Julio	2023-07-14T00:00:00	2024-11-06T23:00:00	6	Velocidad del viento	24.1
37438	7	Sololá	701	Sololá	3	Barraneche	7	Julio	2023-07-14T00:00:00	2024-11-06T23:00:00	7	Dirección del viento	24.14
37439	7	Sololá	701	Sololá	3	Barraneche	7	Julio	2023-07-14T00:00:00	2024-11-06T23:00:00	1	Precipitación	0
37440	7	Sololá	701	Sololá	3	Barraneche	7	Julio	2023-07-14T00:00:00	2024-11-06T23:00:00	8	Radiación solar	0
37441	7	Sololá	701	Sololá	3	Barraneche	7	Julio	2023-07-15T00:00:00	2024-11-06T00:00:00	2	Temperatura media	14.2
37442	7	Sololá	701	Sololá	3	Barraneche	7	Julio	2023-07-15T00:00:00	2024-11-06T00:00:00	4	Temperatura máxima	14.3
37443	7	Sololá	701	Sololá	3	Barraneche	7	Julio	2023-07-15T00:00:00	2024-11-06T00:00:00	3	Temperatura mínima	14.1
37444	7	Sololá	701	Sololá	3	Barraneche	7	Julio	2023-07-15T00:00:00	2024-11-06T00:00:00	5	Humedad	64
37445	7	Sololá	701	Sololá	3	Barraneche	7	Julio	2023-07-15T00:00:00	2024-11-06T00:00:00	6	Velocidad del viento	25.7
37446	7	Sololá	701	Sololá	3	Barraneche	7	Julio	2023-07-15T00:00:00	2024-11-06T00:00:00	7	Dirección del viento	25.75
37447	7	Sololá	701	Sololá	3	Barraneche	7	Julio	2023-07-15T00:00:00	2024-11-06T00:00:00	1	Precipitación	0
37448	7	Sololá	701	Sololá	3	Barraneche	7	Julio	2023-07-15T00:00:00	2024-11-06T00:00:00	8	Radiación solar	0
37449	7	Sololá	701	Sololá	3	Barraneche	7	Julio	2023-07-15T00:00:00	2024-11-06T01:00:00	2	Temperatura media	14.1
37450	7	Sololá	701	Sololá	3	Barraneche	7	Julio	2023-07-15T00:00:00	2024-11-06T01:00:00	4	Temperatura máxima	14.3
37451	7	Sololá	701	Sololá	3	Barraneche	7	Julio	2023-07-15T00:00:00	2024-11-06T01:00:00	3	Temperatura mínima	14
37452	7	Sololá	701	Sololá	3	Barraneche	7	Julio	2023-07-15T00:00:00	2024-11-06T01:00:00	5	Humedad	62
37453	7	Sololá	701	Sololá	3	Barraneche	7	Julio	2023-07-15T00:00:00	2024-11-06T01:00:00	6	Velocidad del viento	22.5
37454	7	Sololá	701	Sololá	3	Barraneche	7	Julio	2023-07-15T00:00:00	2024-11-06T01:00:00	7	Dirección del viento	22.53
37455	7	Sololá	701	Sololá	3	Barraneche	7	Julio	2023-07-15T00:00:00	2024-11-06T01:00:00	1	Precipitación	0
37456	7	Sololá	701	Sololá	3	Barraneche	7	Julio	2023-07-15T00:00:00	2024-11-06T01:00:00	8	Radiación solar	0
37457	7	Sololá	701	Sololá	3	Barraneche	7	Julio	2023-07-15T00:00:00	2024-11-06T02:00:00	2	Temperatura media	13.7
37458	7	Sololá	701	Sololá	3	Barraneche	7	Julio	2023-07-15T00:00:00	2024-11-06T02:00:00	4	Temperatura máxima	14.2
37459	7	Sololá	701	Sololá	3	Barraneche	7	Julio	2023-07-15T00:00:00	2024-11-06T02:00:00	3	Temperatura mínima	13.6
37460	7	Sololá	701	Sololá	3	Barraneche	7	Julio	2023-07-15T00:00:00	2024-11-06T02:00:00	5	Humedad	64
37461	7	Sololá	701	Sololá	3	Barraneche	7	Julio	2023-07-15T00:00:00	2024-11-06T02:00:00	6	Velocidad del viento	27.4
37462	7	Sololá	701	Sololá	3	Barraneche	7	Julio	2023-07-15T00:00:00	2024-11-06T02:00:00	7	Dirección del viento	27.36
37463	7	Sololá	701	Sololá	3	Barraneche	7	Julio	2023-07-15T00:00:00	2024-11-06T02:00:00	1	Precipitación	0
37464	7	Sololá	701	Sololá	3	Barraneche	7	Julio	2023-07-15T00:00:00	2024-11-06T02:00:00	8	Radiación solar	0
37465	7	Sololá	701	Sololá	3	Barraneche	7	Julio	2023-07-15T00:00:00	2024-11-06T03:00:00	2	Temperatura media	14
37466	7	Sololá	701	Sololá	3	Barraneche	7	Julio	2023-07-15T00:00:00	2024-11-06T03:00:00	4	Temperatura máxima	14.3
37467	7	Sololá	701	Sololá	3	Barraneche	7	Julio	2023-07-15T00:00:00	2024-11-06T03:00:00	3	Temperatura mínima	13.7
37468	7	Sololá	701	Sololá	3	Barraneche	7	Julio	2023-07-15T00:00:00	2024-11-06T03:00:00	5	Humedad	64
37469	7	Sololá	701	Sololá	3	Barraneche	7	Julio	2023-07-15T00:00:00	2024-11-06T03:00:00	6	Velocidad del viento	12.9
37470	7	Sololá	701	Sololá	3	Barraneche	7	Julio	2023-07-15T00:00:00	2024-11-06T03:00:00	7	Dirección del viento	12.87
37471	7	Sololá	701	Sololá	3	Barraneche	7	Julio	2023-07-15T00:00:00	2024-11-06T03:00:00	1	Precipitación	0
37472	7	Sololá	701	Sololá	3	Barraneche	7	Julio	2023-07-15T00:00:00	2024-11-06T03:00:00	8	Radiación solar	0
37473	7	Sololá	701	Sololá	3	Barraneche	7	Julio	2023-07-15T00:00:00	2024-11-06T04:00:00	2	Temperatura media	14.2
37474	7	Sololá	701	Sololá	3	Barraneche	7	Julio	2023-07-15T00:00:00	2024-11-06T04:00:00	4	Temperatura máxima	14.2
37475	7	Sololá	701	Sololá	3	Barraneche	7	Julio	2023-07-15T00:00:00	2024-11-06T04:00:00	3	Temperatura mínima	13.7
37476	7	Sololá	701	Sololá	3	Barraneche	7	Julio	2023-07-15T00:00:00	2024-11-06T04:00:00	5	Humedad	64
37477	7	Sololá	701	Sololá	3	Barraneche	7	Julio	2023-07-15T00:00:00	2024-11-06T04:00:00	6	Velocidad del viento	8
37478	7	Sololá	701	Sololá	3	Barraneche	7	Julio	2023-07-15T00:00:00	2024-11-06T04:00:00	7	Dirección del viento	8.05
37479	7	Sololá	701	Sololá	3	Barraneche	7	Julio	2023-07-15T00:00:00	2024-11-06T04:00:00	1	Precipitación	0
37480	7	Sololá	701	Sololá	3	Barraneche	7	Julio	2023-07-15T00:00:00	2024-11-06T04:00:00	8	Radiación solar	0
37481	7	Sololá	701	Sololá	3	Barraneche	7	Julio	2023-07-15T00:00:00	2024-11-06T05:00:00	2	Temperatura media	13.8
37482	7	Sololá	701	Sololá	3	Barraneche	7	Julio	2023-07-15T00:00:00	2024-11-06T05:00:00	4	Temperatura máxima	14.2
37483	7	Sololá	701	Sololá	3	Barraneche	7	Julio	2023-07-15T00:00:00	2024-11-06T05:00:00	3	Temperatura mínima	13.8
37484	7	Sololá	701	Sololá	3	Barraneche	7	Julio	2023-07-15T00:00:00	2024-11-06T05:00:00	5	Humedad	68
37485	7	Sololá	701	Sololá	3	Barraneche	7	Julio	2023-07-15T00:00:00	2024-11-06T05:00:00	6	Velocidad del viento	9.7
37486	7	Sololá	701	Sololá	3	Barraneche	7	Julio	2023-07-15T00:00:00	2024-11-06T05:00:00	7	Dirección del viento	9.66
37487	7	Sololá	701	Sololá	3	Barraneche	7	Julio	2023-07-15T00:00:00	2024-11-06T05:00:00	1	Precipitación	0
37488	7	Sololá	701	Sololá	3	Barraneche	7	Julio	2023-07-15T00:00:00	2024-11-06T05:00:00	8	Radiación solar	0
37489	7	Sololá	701	Sololá	3	Barraneche	7	Julio	2023-07-15T00:00:00	2024-11-06T06:00:00	2	Temperatura media	13.4
37490	7	Sololá	701	Sololá	3	Barraneche	7	Julio	2023-07-15T00:00:00	2024-11-06T06:00:00	4	Temperatura máxima	13.8
37491	7	Sololá	701	Sololá	3	Barraneche	7	Julio	2023-07-15T00:00:00	2024-11-06T06:00:00	3	Temperatura mínima	13.4
37492	7	Sololá	701	Sololá	3	Barraneche	7	Julio	2023-07-15T00:00:00	2024-11-06T06:00:00	5	Humedad	68
37493	7	Sololá	701	Sololá	3	Barraneche	7	Julio	2023-07-15T00:00:00	2024-11-06T06:00:00	6	Velocidad del viento	8
37494	7	Sololá	701	Sololá	3	Barraneche	7	Julio	2023-07-15T00:00:00	2024-11-06T06:00:00	7	Dirección del viento	8.05
37495	7	Sololá	701	Sololá	3	Barraneche	7	Julio	2023-07-15T00:00:00	2024-11-06T06:00:00	1	Precipitación	0
37496	7	Sololá	701	Sololá	3	Barraneche	7	Julio	2023-07-15T00:00:00	2024-11-06T06:00:00	8	Radiación solar	3
37497	7	Sololá	701	Sololá	3	Barraneche	7	Julio	2023-07-15T00:00:00	2024-11-06T07:00:00	2	Temperatura media	13.7
37498	7	Sololá	701	Sololá	3	Barraneche	7	Julio	2023-07-15T00:00:00	2024-11-06T07:00:00	4	Temperatura máxima	13.7
37499	7	Sololá	701	Sololá	3	Barraneche	7	Julio	2023-07-15T00:00:00	2024-11-06T07:00:00	3	Temperatura mínima	13
37500	7	Sololá	701	Sololá	3	Barraneche	7	Julio	2023-07-15T00:00:00	2024-11-06T07:00:00	5	Humedad	69
37501	7	Sololá	701	Sololá	3	Barraneche	7	Julio	2023-07-15T00:00:00	2024-11-06T07:00:00	6	Velocidad del viento	4.8
37502	7	Sololá	701	Sololá	3	Barraneche	7	Julio	2023-07-15T00:00:00	2024-11-06T07:00:00	7	Dirección del viento	4.83
37503	7	Sololá	701	Sololá	3	Barraneche	7	Julio	2023-07-15T00:00:00	2024-11-06T07:00:00	1	Precipitación	0
37504	7	Sololá	701	Sololá	3	Barraneche	7	Julio	2023-07-15T00:00:00	2024-11-06T07:00:00	8	Radiación solar	50
37505	7	Sololá	701	Sololá	3	Barraneche	7	Julio	2023-07-15T00:00:00	2024-11-06T08:00:00	2	Temperatura media	15.7
37506	7	Sololá	701	Sololá	3	Barraneche	7	Julio	2023-07-15T00:00:00	2024-11-06T08:00:00	4	Temperatura máxima	15.7
37507	7	Sololá	701	Sololá	3	Barraneche	7	Julio	2023-07-15T00:00:00	2024-11-06T08:00:00	3	Temperatura mínima	13.7
37508	7	Sololá	701	Sololá	3	Barraneche	7	Julio	2023-07-15T00:00:00	2024-11-06T08:00:00	5	Humedad	61
37509	7	Sololá	701	Sololá	3	Barraneche	7	Julio	2023-07-15T00:00:00	2024-11-06T08:00:00	6	Velocidad del viento	4.8
37510	7	Sololá	701	Sololá	3	Barraneche	7	Julio	2023-07-15T00:00:00	2024-11-06T08:00:00	7	Dirección del viento	4.83
37511	7	Sololá	701	Sololá	3	Barraneche	7	Julio	2023-07-15T00:00:00	2024-11-06T08:00:00	1	Precipitación	0
37512	7	Sololá	701	Sololá	3	Barraneche	7	Julio	2023-07-15T00:00:00	2024-11-06T08:00:00	8	Radiación solar	218
37513	7	Sololá	701	Sololá	3	Barraneche	7	Julio	2023-07-15T00:00:00	2024-11-06T09:00:00	2	Temperatura media	17.5
37514	7	Sololá	701	Sololá	3	Barraneche	7	Julio	2023-07-15T00:00:00	2024-11-06T09:00:00	4	Temperatura máxima	17.5
37515	7	Sololá	701	Sololá	3	Barraneche	7	Julio	2023-07-15T00:00:00	2024-11-06T09:00:00	3	Temperatura mínima	15.7
37516	7	Sololá	701	Sololá	3	Barraneche	7	Julio	2023-07-15T00:00:00	2024-11-06T09:00:00	5	Humedad	52
37517	7	Sololá	701	Sololá	3	Barraneche	7	Julio	2023-07-15T00:00:00	2024-11-06T09:00:00	6	Velocidad del viento	8
37518	7	Sololá	701	Sololá	3	Barraneche	7	Julio	2023-07-15T00:00:00	2024-11-06T09:00:00	7	Dirección del viento	8.05
37519	7	Sololá	701	Sololá	3	Barraneche	7	Julio	2023-07-15T00:00:00	2024-11-06T09:00:00	1	Precipitación	0
37520	7	Sololá	701	Sololá	3	Barraneche	7	Julio	2023-07-15T00:00:00	2024-11-06T09:00:00	8	Radiación solar	405
37521	7	Sololá	701	Sololá	3	Barraneche	7	Julio	2023-07-15T00:00:00	2024-11-06T10:00:00	2	Temperatura media	17.9
37522	7	Sololá	701	Sololá	3	Barraneche	7	Julio	2023-07-15T00:00:00	2024-11-06T10:00:00	4	Temperatura máxima	18.3
37523	7	Sololá	701	Sololá	3	Barraneche	7	Julio	2023-07-15T00:00:00	2024-11-06T10:00:00	3	Temperatura mínima	17.5
37524	7	Sololá	701	Sololá	3	Barraneche	7	Julio	2023-07-15T00:00:00	2024-11-06T10:00:00	5	Humedad	52
37525	7	Sololá	701	Sololá	3	Barraneche	7	Julio	2023-07-15T00:00:00	2024-11-06T10:00:00	6	Velocidad del viento	8
37526	7	Sololá	701	Sololá	3	Barraneche	7	Julio	2023-07-15T00:00:00	2024-11-06T10:00:00	7	Dirección del viento	8.05
37527	7	Sololá	701	Sololá	3	Barraneche	7	Julio	2023-07-15T00:00:00	2024-11-06T10:00:00	1	Precipitación	0
37528	7	Sololá	701	Sololá	3	Barraneche	7	Julio	2023-07-15T00:00:00	2024-11-06T10:00:00	8	Radiación solar	632
37529	7	Sololá	701	Sololá	3	Barraneche	7	Julio	2023-07-15T00:00:00	2024-11-06T11:00:00	2	Temperatura media	18.3
37530	7	Sololá	701	Sololá	3	Barraneche	7	Julio	2023-07-15T00:00:00	2024-11-06T11:00:00	4	Temperatura máxima	18.9
37531	7	Sololá	701	Sololá	3	Barraneche	7	Julio	2023-07-15T00:00:00	2024-11-06T11:00:00	3	Temperatura mínima	17.8
37532	7	Sololá	701	Sololá	3	Barraneche	7	Julio	2023-07-15T00:00:00	2024-11-06T11:00:00	5	Humedad	51
37533	7	Sololá	701	Sololá	3	Barraneche	7	Julio	2023-07-15T00:00:00	2024-11-06T11:00:00	6	Velocidad del viento	11.3
37534	7	Sololá	701	Sololá	3	Barraneche	7	Julio	2023-07-15T00:00:00	2024-11-06T11:00:00	7	Dirección del viento	11.27
37535	7	Sololá	701	Sololá	3	Barraneche	7	Julio	2023-07-15T00:00:00	2024-11-06T11:00:00	1	Precipitación	0
37536	7	Sololá	701	Sololá	3	Barraneche	7	Julio	2023-07-15T00:00:00	2024-11-06T11:00:00	8	Radiación solar	829
37537	7	Sololá	701	Sololá	3	Barraneche	7	Julio	2023-07-15T00:00:00	2024-11-06T12:00:00	2	Temperatura media	18.7
37538	7	Sololá	701	Sololá	3	Barraneche	7	Julio	2023-07-15T00:00:00	2024-11-06T12:00:00	4	Temperatura máxima	19.2
37539	7	Sololá	701	Sololá	3	Barraneche	7	Julio	2023-07-15T00:00:00	2024-11-06T12:00:00	3	Temperatura mínima	18.3
37540	7	Sololá	701	Sololá	3	Barraneche	7	Julio	2023-07-15T00:00:00	2024-11-06T12:00:00	5	Humedad	54
37541	7	Sololá	701	Sololá	3	Barraneche	7	Julio	2023-07-15T00:00:00	2024-11-06T12:00:00	6	Velocidad del viento	12.9
37542	7	Sololá	701	Sololá	3	Barraneche	7	Julio	2023-07-15T00:00:00	2024-11-06T12:00:00	7	Dirección del viento	12.87
37543	7	Sololá	701	Sololá	3	Barraneche	7	Julio	2023-07-15T00:00:00	2024-11-06T12:00:00	1	Precipitación	0
37544	7	Sololá	701	Sololá	3	Barraneche	7	Julio	2023-07-15T00:00:00	2024-11-06T12:00:00	8	Radiación solar	840
37545	7	Sololá	701	Sololá	3	Barraneche	7	Julio	2023-07-15T00:00:00	2024-11-06T13:00:00	2	Temperatura media	19.1
37546	7	Sololá	701	Sololá	3	Barraneche	7	Julio	2023-07-15T00:00:00	2024-11-06T13:00:00	4	Temperatura máxima	19.2
37547	7	Sololá	701	Sololá	3	Barraneche	7	Julio	2023-07-15T00:00:00	2024-11-06T13:00:00	3	Temperatura mínima	17.9
37548	7	Sololá	701	Sololá	3	Barraneche	7	Julio	2023-07-15T00:00:00	2024-11-06T13:00:00	5	Humedad	52
37549	7	Sololá	701	Sololá	3	Barraneche	7	Julio	2023-07-15T00:00:00	2024-11-06T13:00:00	6	Velocidad del viento	8
37550	7	Sololá	701	Sololá	3	Barraneche	7	Julio	2023-07-15T00:00:00	2024-11-06T13:00:00	7	Dirección del viento	8.05
37551	7	Sololá	701	Sololá	3	Barraneche	7	Julio	2023-07-15T00:00:00	2024-11-06T13:00:00	1	Precipitación	0
37552	7	Sololá	701	Sololá	3	Barraneche	7	Julio	2023-07-15T00:00:00	2024-11-06T13:00:00	8	Radiación solar	472
37553	7	Sololá	701	Sololá	3	Barraneche	7	Julio	2023-07-15T00:00:00	2024-11-06T14:00:00	2	Temperatura media	18
37554	7	Sololá	701	Sololá	3	Barraneche	7	Julio	2023-07-15T00:00:00	2024-11-06T14:00:00	4	Temperatura máxima	19.3
37555	7	Sololá	701	Sololá	3	Barraneche	7	Julio	2023-07-15T00:00:00	2024-11-06T14:00:00	3	Temperatura mínima	17.6
37556	7	Sololá	701	Sololá	3	Barraneche	7	Julio	2023-07-15T00:00:00	2024-11-06T14:00:00	5	Humedad	58
37557	7	Sololá	701	Sololá	3	Barraneche	7	Julio	2023-07-15T00:00:00	2024-11-06T14:00:00	6	Velocidad del viento	8
37558	7	Sololá	701	Sololá	3	Barraneche	7	Julio	2023-07-15T00:00:00	2024-11-06T14:00:00	7	Dirección del viento	8.05
37559	7	Sololá	701	Sololá	3	Barraneche	7	Julio	2023-07-15T00:00:00	2024-11-06T14:00:00	1	Precipitación	0
37560	7	Sololá	701	Sololá	3	Barraneche	7	Julio	2023-07-15T00:00:00	2024-11-06T14:00:00	8	Radiación solar	266
37561	7	Sololá	701	Sololá	3	Barraneche	7	Julio	2023-07-15T00:00:00	2024-11-06T15:00:00	2	Temperatura media	19.3
37562	7	Sololá	701	Sololá	3	Barraneche	7	Julio	2023-07-15T00:00:00	2024-11-06T15:00:00	4	Temperatura máxima	19.3
37563	7	Sololá	701	Sololá	3	Barraneche	7	Julio	2023-07-15T00:00:00	2024-11-06T15:00:00	3	Temperatura mínima	18
37564	7	Sololá	701	Sololá	3	Barraneche	7	Julio	2023-07-15T00:00:00	2024-11-06T15:00:00	5	Humedad	51
37565	7	Sololá	701	Sololá	3	Barraneche	7	Julio	2023-07-15T00:00:00	2024-11-06T15:00:00	6	Velocidad del viento	12.9
37566	7	Sololá	701	Sololá	3	Barraneche	7	Julio	2023-07-15T00:00:00	2024-11-06T15:00:00	7	Dirección del viento	12.87
37567	7	Sololá	701	Sololá	3	Barraneche	7	Julio	2023-07-15T00:00:00	2024-11-06T15:00:00	1	Precipitación	0
37568	7	Sololá	701	Sololá	3	Barraneche	7	Julio	2023-07-15T00:00:00	2024-11-06T15:00:00	8	Radiación solar	600
37569	7	Sololá	701	Sololá	3	Barraneche	7	Julio	2023-07-15T00:00:00	2024-11-06T16:00:00	2	Temperatura media	18.2
37570	7	Sololá	701	Sololá	3	Barraneche	7	Julio	2023-07-15T00:00:00	2024-11-06T16:00:00	4	Temperatura máxima	19.7
37571	7	Sololá	701	Sololá	3	Barraneche	7	Julio	2023-07-15T00:00:00	2024-11-06T16:00:00	3	Temperatura mínima	18.2
37572	7	Sololá	701	Sololá	3	Barraneche	7	Julio	2023-07-15T00:00:00	2024-11-06T16:00:00	5	Humedad	53
37573	7	Sololá	701	Sololá	3	Barraneche	7	Julio	2023-07-15T00:00:00	2024-11-06T16:00:00	6	Velocidad del viento	12.9
37574	7	Sololá	701	Sololá	3	Barraneche	7	Julio	2023-07-15T00:00:00	2024-11-06T16:00:00	7	Dirección del viento	12.87
37575	7	Sololá	701	Sololá	3	Barraneche	7	Julio	2023-07-15T00:00:00	2024-11-06T16:00:00	1	Precipitación	0
37576	7	Sololá	701	Sololá	3	Barraneche	7	Julio	2023-07-15T00:00:00	2024-11-06T16:00:00	8	Radiación solar	529
37577	7	Sololá	701	Sololá	3	Barraneche	7	Julio	2023-07-15T00:00:00	2024-11-06T17:00:00	2	Temperatura media	17
37578	7	Sololá	701	Sololá	3	Barraneche	7	Julio	2023-07-15T00:00:00	2024-11-06T17:00:00	4	Temperatura máxima	18.2
37579	7	Sololá	701	Sololá	3	Barraneche	7	Julio	2023-07-15T00:00:00	2024-11-06T17:00:00	3	Temperatura mínima	17
37580	7	Sololá	701	Sololá	3	Barraneche	7	Julio	2023-07-15T00:00:00	2024-11-06T17:00:00	5	Humedad	55
37581	7	Sololá	701	Sololá	3	Barraneche	7	Julio	2023-07-15T00:00:00	2024-11-06T17:00:00	6	Velocidad del viento	11.3
37582	7	Sololá	701	Sololá	3	Barraneche	7	Julio	2023-07-15T00:00:00	2024-11-06T17:00:00	7	Dirección del viento	11.27
37583	7	Sololá	701	Sololá	3	Barraneche	7	Julio	2023-07-15T00:00:00	2024-11-06T17:00:00	1	Precipitación	0
37584	7	Sololá	701	Sololá	3	Barraneche	7	Julio	2023-07-15T00:00:00	2024-11-06T17:00:00	8	Radiación solar	158
37585	7	Sololá	701	Sololá	3	Barraneche	7	Julio	2023-07-15T00:00:00	2024-11-06T18:00:00	2	Temperatura media	15.9
37586	7	Sololá	701	Sololá	3	Barraneche	7	Julio	2023-07-15T00:00:00	2024-11-06T18:00:00	4	Temperatura máxima	17
37587	7	Sololá	701	Sololá	3	Barraneche	7	Julio	2023-07-15T00:00:00	2024-11-06T18:00:00	3	Temperatura mínima	15.9
37588	7	Sololá	701	Sololá	3	Barraneche	7	Julio	2023-07-15T00:00:00	2024-11-06T18:00:00	5	Humedad	60
37589	7	Sololá	701	Sololá	3	Barraneche	7	Julio	2023-07-15T00:00:00	2024-11-06T18:00:00	6	Velocidad del viento	11.3
37590	7	Sololá	701	Sololá	3	Barraneche	7	Julio	2023-07-15T00:00:00	2024-11-06T18:00:00	7	Dirección del viento	11.27
37591	7	Sololá	701	Sololá	3	Barraneche	7	Julio	2023-07-15T00:00:00	2024-11-06T18:00:00	1	Precipitación	0
37592	7	Sololá	701	Sololá	3	Barraneche	7	Julio	2023-07-15T00:00:00	2024-11-06T18:00:00	8	Radiación solar	65
37593	7	Sololá	701	Sololá	3	Barraneche	7	Julio	2023-07-15T00:00:00	2024-11-06T19:00:00	2	Temperatura media	15.4
37594	7	Sololá	701	Sololá	3	Barraneche	7	Julio	2023-07-15T00:00:00	2024-11-06T19:00:00	4	Temperatura máxima	15.9
37595	7	Sololá	701	Sololá	3	Barraneche	7	Julio	2023-07-15T00:00:00	2024-11-06T19:00:00	3	Temperatura mínima	15.3
37596	7	Sololá	701	Sololá	3	Barraneche	7	Julio	2023-07-15T00:00:00	2024-11-06T19:00:00	5	Humedad	64
37597	7	Sololá	701	Sololá	3	Barraneche	7	Julio	2023-07-15T00:00:00	2024-11-06T19:00:00	6	Velocidad del viento	8
37598	7	Sololá	701	Sololá	3	Barraneche	7	Julio	2023-07-15T00:00:00	2024-11-06T19:00:00	7	Dirección del viento	8.05
37599	7	Sololá	701	Sololá	3	Barraneche	7	Julio	2023-07-15T00:00:00	2024-11-06T19:00:00	1	Precipitación	0
37600	7	Sololá	701	Sololá	3	Barraneche	7	Julio	2023-07-15T00:00:00	2024-11-06T19:00:00	8	Radiación solar	0
37601	7	Sololá	701	Sololá	3	Barraneche	7	Julio	2023-07-15T00:00:00	2024-11-06T20:00:00	2	Temperatura media	15.3
37602	7	Sololá	701	Sololá	3	Barraneche	7	Julio	2023-07-15T00:00:00	2024-11-06T20:00:00	4	Temperatura máxima	15.8
37603	7	Sololá	701	Sololá	3	Barraneche	7	Julio	2023-07-15T00:00:00	2024-11-06T20:00:00	3	Temperatura mínima	15.3
37604	7	Sololá	701	Sololá	3	Barraneche	7	Julio	2023-07-15T00:00:00	2024-11-06T20:00:00	5	Humedad	66
37605	7	Sololá	701	Sololá	3	Barraneche	7	Julio	2023-07-15T00:00:00	2024-11-06T20:00:00	6	Velocidad del viento	11.3
37606	7	Sololá	701	Sololá	3	Barraneche	7	Julio	2023-07-15T00:00:00	2024-11-06T20:00:00	7	Dirección del viento	11.27
37607	7	Sololá	701	Sololá	3	Barraneche	7	Julio	2023-07-15T00:00:00	2024-11-06T20:00:00	1	Precipitación	0
37608	7	Sololá	701	Sololá	3	Barraneche	7	Julio	2023-07-15T00:00:00	2024-11-06T20:00:00	8	Radiación solar	0
37609	7	Sololá	701	Sololá	3	Barraneche	7	Julio	2023-07-15T00:00:00	2024-11-06T21:00:00	2	Temperatura media	14.6
37610	7	Sololá	701	Sololá	3	Barraneche	7	Julio	2023-07-15T00:00:00	2024-11-06T21:00:00	4	Temperatura máxima	15.3
37611	7	Sololá	701	Sololá	3	Barraneche	7	Julio	2023-07-15T00:00:00	2024-11-06T21:00:00	3	Temperatura mínima	14.4
37612	7	Sololá	701	Sololá	3	Barraneche	7	Julio	2023-07-15T00:00:00	2024-11-06T21:00:00	5	Humedad	68
37613	7	Sololá	701	Sololá	3	Barraneche	7	Julio	2023-07-15T00:00:00	2024-11-06T21:00:00	6	Velocidad del viento	8
37614	7	Sololá	701	Sololá	3	Barraneche	7	Julio	2023-07-15T00:00:00	2024-11-06T21:00:00	7	Dirección del viento	8.05
37615	7	Sololá	701	Sololá	3	Barraneche	7	Julio	2023-07-15T00:00:00	2024-11-06T21:00:00	1	Precipitación	1
37616	7	Sololá	701	Sololá	3	Barraneche	7	Julio	2023-07-15T00:00:00	2024-11-06T21:00:00	8	Radiación solar	0
37617	7	Sololá	701	Sololá	3	Barraneche	7	Julio	2023-07-15T00:00:00	2024-11-06T22:00:00	2	Temperatura media	14.3
37618	7	Sololá	701	Sololá	3	Barraneche	7	Julio	2023-07-15T00:00:00	2024-11-06T22:00:00	4	Temperatura máxima	14.6
37619	7	Sololá	701	Sololá	3	Barraneche	7	Julio	2023-07-15T00:00:00	2024-11-06T22:00:00	3	Temperatura mínima	14.2
37620	7	Sololá	701	Sololá	3	Barraneche	7	Julio	2023-07-15T00:00:00	2024-11-06T22:00:00	5	Humedad	66
37621	7	Sololá	701	Sololá	3	Barraneche	7	Julio	2023-07-15T00:00:00	2024-11-06T22:00:00	6	Velocidad del viento	11.3
37622	7	Sololá	701	Sololá	3	Barraneche	7	Julio	2023-07-15T00:00:00	2024-11-06T22:00:00	7	Dirección del viento	11.27
37623	7	Sololá	701	Sololá	3	Barraneche	7	Julio	2023-07-15T00:00:00	2024-11-06T22:00:00	1	Precipitación	0
37624	7	Sololá	701	Sololá	3	Barraneche	7	Julio	2023-07-15T00:00:00	2024-11-06T22:00:00	8	Radiación solar	0
37625	7	Sololá	701	Sololá	3	Barraneche	7	Julio	2023-07-15T00:00:00	2024-11-06T23:00:00	2	Temperatura media	14.6
37626	7	Sololá	701	Sololá	3	Barraneche	7	Julio	2023-07-15T00:00:00	2024-11-06T23:00:00	4	Temperatura máxima	14.7
37627	7	Sololá	701	Sololá	3	Barraneche	7	Julio	2023-07-15T00:00:00	2024-11-06T23:00:00	3	Temperatura mínima	14.2
37628	7	Sololá	701	Sololá	3	Barraneche	7	Julio	2023-07-15T00:00:00	2024-11-06T23:00:00	5	Humedad	63
37629	7	Sololá	701	Sololá	3	Barraneche	7	Julio	2023-07-15T00:00:00	2024-11-06T23:00:00	6	Velocidad del viento	12.9
37630	7	Sololá	701	Sololá	3	Barraneche	7	Julio	2023-07-15T00:00:00	2024-11-06T23:00:00	7	Dirección del viento	12.87
37631	7	Sololá	701	Sololá	3	Barraneche	7	Julio	2023-07-15T00:00:00	2024-11-06T23:00:00	1	Precipitación	0
37632	7	Sololá	701	Sololá	3	Barraneche	7	Julio	2023-07-15T00:00:00	2024-11-06T23:00:00	8	Radiación solar	0
37633	7	Sololá	701	Sololá	3	Barraneche	7	Julio	2023-07-16T00:00:00	2024-11-06T00:00:00	2	Temperatura media	14.4
37634	7	Sololá	701	Sololá	3	Barraneche	7	Julio	2023-07-16T00:00:00	2024-11-06T00:00:00	4	Temperatura máxima	14.7
37635	7	Sololá	701	Sololá	3	Barraneche	7	Julio	2023-07-16T00:00:00	2024-11-06T00:00:00	3	Temperatura mínima	14.3
37636	7	Sololá	701	Sololá	3	Barraneche	7	Julio	2023-07-16T00:00:00	2024-11-06T00:00:00	5	Humedad	65
37637	7	Sololá	701	Sololá	3	Barraneche	7	Julio	2023-07-16T00:00:00	2024-11-06T00:00:00	6	Velocidad del viento	9.7
37638	7	Sololá	701	Sololá	3	Barraneche	7	Julio	2023-07-16T00:00:00	2024-11-06T00:00:00	7	Dirección del viento	9.66
37639	7	Sololá	701	Sololá	3	Barraneche	7	Julio	2023-07-16T00:00:00	2024-11-06T00:00:00	1	Precipitación	0
37640	7	Sololá	701	Sololá	3	Barraneche	7	Julio	2023-07-16T00:00:00	2024-11-06T00:00:00	8	Radiación solar	0
37641	7	Sololá	701	Sololá	3	Barraneche	7	Julio	2023-07-16T00:00:00	2024-11-06T01:00:00	2	Temperatura media	14.7
37642	7	Sololá	701	Sololá	3	Barraneche	7	Julio	2023-07-16T00:00:00	2024-11-06T01:00:00	4	Temperatura máxima	14.8
37643	7	Sololá	701	Sololá	3	Barraneche	7	Julio	2023-07-16T00:00:00	2024-11-06T01:00:00	3	Temperatura mínima	14.3
37644	7	Sololá	701	Sololá	3	Barraneche	7	Julio	2023-07-16T00:00:00	2024-11-06T01:00:00	5	Humedad	63
37645	7	Sololá	701	Sololá	3	Barraneche	7	Julio	2023-07-16T00:00:00	2024-11-06T01:00:00	6	Velocidad del viento	9.7
37646	7	Sololá	701	Sololá	3	Barraneche	7	Julio	2023-07-16T00:00:00	2024-11-06T01:00:00	7	Dirección del viento	9.66
37647	7	Sololá	701	Sololá	3	Barraneche	7	Julio	2023-07-16T00:00:00	2024-11-06T01:00:00	1	Precipitación	0
37648	7	Sololá	701	Sololá	3	Barraneche	7	Julio	2023-07-16T00:00:00	2024-11-06T01:00:00	8	Radiación solar	0
37649	7	Sololá	701	Sololá	3	Barraneche	7	Julio	2023-07-16T00:00:00	2024-11-06T02:00:00	2	Temperatura media	13.8
37650	7	Sololá	701	Sololá	3	Barraneche	7	Julio	2023-07-16T00:00:00	2024-11-06T02:00:00	4	Temperatura máxima	14.7
37651	7	Sololá	701	Sololá	3	Barraneche	7	Julio	2023-07-16T00:00:00	2024-11-06T02:00:00	3	Temperatura mínima	13.8
37652	7	Sololá	701	Sololá	3	Barraneche	7	Julio	2023-07-16T00:00:00	2024-11-06T02:00:00	5	Humedad	69
37653	7	Sololá	701	Sololá	3	Barraneche	7	Julio	2023-07-16T00:00:00	2024-11-06T02:00:00	6	Velocidad del viento	9.7
37654	7	Sololá	701	Sololá	3	Barraneche	7	Julio	2023-07-16T00:00:00	2024-11-06T02:00:00	7	Dirección del viento	9.66
37655	7	Sololá	701	Sololá	3	Barraneche	7	Julio	2023-07-16T00:00:00	2024-11-06T02:00:00	1	Precipitación	0
37656	7	Sololá	701	Sololá	3	Barraneche	7	Julio	2023-07-16T00:00:00	2024-11-06T02:00:00	8	Radiación solar	0
37657	7	Sololá	701	Sololá	3	Barraneche	7	Julio	2023-07-16T00:00:00	2024-11-06T03:00:00	2	Temperatura media	13.8
37658	7	Sololá	701	Sololá	3	Barraneche	7	Julio	2023-07-16T00:00:00	2024-11-06T03:00:00	4	Temperatura máxima	13.9
37659	7	Sololá	701	Sololá	3	Barraneche	7	Julio	2023-07-16T00:00:00	2024-11-06T03:00:00	3	Temperatura mínima	13
37660	7	Sololá	701	Sololá	3	Barraneche	7	Julio	2023-07-16T00:00:00	2024-11-06T03:00:00	5	Humedad	68
37661	7	Sololá	701	Sololá	3	Barraneche	7	Julio	2023-07-16T00:00:00	2024-11-06T03:00:00	6	Velocidad del viento	4.8
37662	7	Sololá	701	Sololá	3	Barraneche	7	Julio	2023-07-16T00:00:00	2024-11-06T03:00:00	7	Dirección del viento	4.83
37663	7	Sololá	701	Sololá	3	Barraneche	7	Julio	2023-07-16T00:00:00	2024-11-06T03:00:00	1	Precipitación	0.4
37664	7	Sololá	701	Sololá	3	Barraneche	7	Julio	2023-07-16T00:00:00	2024-11-06T03:00:00	8	Radiación solar	0
37665	7	Sololá	701	Sololá	3	Barraneche	7	Julio	2023-07-16T00:00:00	2024-11-06T04:00:00	2	Temperatura media	14.1
37666	7	Sololá	701	Sololá	3	Barraneche	7	Julio	2023-07-16T00:00:00	2024-11-06T04:00:00	4	Temperatura máxima	14.2
37667	7	Sololá	701	Sololá	3	Barraneche	7	Julio	2023-07-16T00:00:00	2024-11-06T04:00:00	3	Temperatura mínima	13.8
37668	7	Sololá	701	Sololá	3	Barraneche	7	Julio	2023-07-16T00:00:00	2024-11-06T04:00:00	5	Humedad	66
37669	7	Sololá	701	Sololá	3	Barraneche	7	Julio	2023-07-16T00:00:00	2024-11-06T04:00:00	6	Velocidad del viento	12.9
37670	7	Sololá	701	Sololá	3	Barraneche	7	Julio	2023-07-16T00:00:00	2024-11-06T04:00:00	7	Dirección del viento	12.87
37671	7	Sololá	701	Sololá	3	Barraneche	7	Julio	2023-07-16T00:00:00	2024-11-06T04:00:00	1	Precipitación	0
37672	7	Sololá	701	Sololá	3	Barraneche	7	Julio	2023-07-16T00:00:00	2024-11-06T04:00:00	8	Radiación solar	0
37673	7	Sololá	701	Sololá	3	Barraneche	7	Julio	2023-07-16T00:00:00	2024-11-06T05:00:00	2	Temperatura media	13.9
37674	7	Sololá	701	Sololá	3	Barraneche	7	Julio	2023-07-16T00:00:00	2024-11-06T05:00:00	4	Temperatura máxima	14.2
37675	7	Sololá	701	Sololá	3	Barraneche	7	Julio	2023-07-16T00:00:00	2024-11-06T05:00:00	3	Temperatura mínima	13.9
37676	7	Sololá	701	Sololá	3	Barraneche	7	Julio	2023-07-16T00:00:00	2024-11-06T05:00:00	5	Humedad	66
37677	7	Sololá	701	Sololá	3	Barraneche	7	Julio	2023-07-16T00:00:00	2024-11-06T05:00:00	6	Velocidad del viento	16.1
37678	7	Sololá	701	Sololá	3	Barraneche	7	Julio	2023-07-16T00:00:00	2024-11-06T05:00:00	7	Dirección del viento	16.09
37679	7	Sololá	701	Sololá	3	Barraneche	7	Julio	2023-07-16T00:00:00	2024-11-06T05:00:00	1	Precipitación	0
37680	7	Sololá	701	Sololá	3	Barraneche	7	Julio	2023-07-16T00:00:00	2024-11-06T05:00:00	8	Radiación solar	0
37681	7	Sololá	701	Sololá	3	Barraneche	7	Julio	2023-07-16T00:00:00	2024-11-06T06:00:00	2	Temperatura media	14.2
37682	7	Sololá	701	Sololá	3	Barraneche	7	Julio	2023-07-16T00:00:00	2024-11-06T06:00:00	4	Temperatura máxima	14.3
37683	7	Sololá	701	Sololá	3	Barraneche	7	Julio	2023-07-16T00:00:00	2024-11-06T06:00:00	3	Temperatura mínima	13.9
37684	7	Sololá	701	Sololá	3	Barraneche	7	Julio	2023-07-16T00:00:00	2024-11-06T06:00:00	5	Humedad	66
37685	7	Sololá	701	Sololá	3	Barraneche	7	Julio	2023-07-16T00:00:00	2024-11-06T06:00:00	6	Velocidad del viento	14.5
37686	7	Sololá	701	Sololá	3	Barraneche	7	Julio	2023-07-16T00:00:00	2024-11-06T06:00:00	7	Dirección del viento	14.48
37687	7	Sololá	701	Sololá	3	Barraneche	7	Julio	2023-07-16T00:00:00	2024-11-06T06:00:00	1	Precipitación	0
37688	7	Sololá	701	Sololá	3	Barraneche	7	Julio	2023-07-16T00:00:00	2024-11-06T06:00:00	8	Radiación solar	3
37689	7	Sololá	701	Sololá	3	Barraneche	7	Julio	2023-07-16T00:00:00	2024-11-06T07:00:00	2	Temperatura media	14.6
37690	7	Sololá	701	Sololá	3	Barraneche	7	Julio	2023-07-16T00:00:00	2024-11-06T07:00:00	4	Temperatura máxima	14.7
37691	7	Sololá	701	Sololá	3	Barraneche	7	Julio	2023-07-16T00:00:00	2024-11-06T07:00:00	3	Temperatura mínima	13.9
37692	7	Sololá	701	Sololá	3	Barraneche	7	Julio	2023-07-16T00:00:00	2024-11-06T07:00:00	5	Humedad	64
37693	7	Sololá	701	Sololá	3	Barraneche	7	Julio	2023-07-16T00:00:00	2024-11-06T07:00:00	6	Velocidad del viento	17.7
37694	7	Sololá	701	Sololá	3	Barraneche	7	Julio	2023-07-16T00:00:00	2024-11-06T07:00:00	7	Dirección del viento	17.7
37695	7	Sololá	701	Sololá	3	Barraneche	7	Julio	2023-07-16T00:00:00	2024-11-06T07:00:00	1	Precipitación	0
37696	7	Sololá	701	Sololá	3	Barraneche	7	Julio	2023-07-16T00:00:00	2024-11-06T07:00:00	8	Radiación solar	92
37697	7	Sololá	701	Sololá	3	Barraneche	7	Julio	2023-07-16T00:00:00	2024-11-06T08:00:00	2	Temperatura media	15.3
37698	7	Sololá	701	Sololá	3	Barraneche	7	Julio	2023-07-16T00:00:00	2024-11-06T08:00:00	4	Temperatura máxima	15.5
37699	7	Sololá	701	Sololá	3	Barraneche	7	Julio	2023-07-16T00:00:00	2024-11-06T08:00:00	3	Temperatura mínima	14.5
37700	7	Sololá	701	Sololá	3	Barraneche	7	Julio	2023-07-16T00:00:00	2024-11-06T08:00:00	5	Humedad	63
37701	7	Sololá	701	Sololá	3	Barraneche	7	Julio	2023-07-16T00:00:00	2024-11-06T08:00:00	6	Velocidad del viento	19.3
37702	7	Sololá	701	Sololá	3	Barraneche	7	Julio	2023-07-16T00:00:00	2024-11-06T08:00:00	7	Dirección del viento	19.31
37703	7	Sololá	701	Sololá	3	Barraneche	7	Julio	2023-07-16T00:00:00	2024-11-06T08:00:00	1	Precipitación	0
37704	7	Sololá	701	Sololá	3	Barraneche	7	Julio	2023-07-16T00:00:00	2024-11-06T08:00:00	8	Radiación solar	237
37705	7	Sololá	701	Sololá	3	Barraneche	7	Julio	2023-07-16T00:00:00	2024-11-06T09:00:00	2	Temperatura media	15.7
37706	7	Sololá	701	Sololá	3	Barraneche	7	Julio	2023-07-16T00:00:00	2024-11-06T09:00:00	4	Temperatura máxima	16.2
37707	7	Sololá	701	Sololá	3	Barraneche	7	Julio	2023-07-16T00:00:00	2024-11-06T09:00:00	3	Temperatura mínima	15.3
37708	7	Sololá	701	Sololá	3	Barraneche	7	Julio	2023-07-16T00:00:00	2024-11-06T09:00:00	5	Humedad	63
37709	7	Sololá	701	Sololá	3	Barraneche	7	Julio	2023-07-16T00:00:00	2024-11-06T09:00:00	6	Velocidad del viento	14.5
37710	7	Sololá	701	Sololá	3	Barraneche	7	Julio	2023-07-16T00:00:00	2024-11-06T09:00:00	7	Dirección del viento	14.48
37711	7	Sololá	701	Sololá	3	Barraneche	7	Julio	2023-07-16T00:00:00	2024-11-06T09:00:00	1	Precipitación	0
37712	7	Sololá	701	Sololá	3	Barraneche	7	Julio	2023-07-16T00:00:00	2024-11-06T09:00:00	8	Radiación solar	373
37713	7	Sololá	701	Sololá	3	Barraneche	7	Julio	2023-07-16T00:00:00	2024-11-06T10:00:00	2	Temperatura media	17.1
37714	7	Sololá	701	Sololá	3	Barraneche	7	Julio	2023-07-16T00:00:00	2024-11-06T10:00:00	4	Temperatura máxima	17.6
37715	7	Sololá	701	Sololá	3	Barraneche	7	Julio	2023-07-16T00:00:00	2024-11-06T10:00:00	3	Temperatura mínima	15.5
37716	7	Sololá	701	Sololá	3	Barraneche	7	Julio	2023-07-16T00:00:00	2024-11-06T10:00:00	5	Humedad	60
37717	7	Sololá	701	Sololá	3	Barraneche	7	Julio	2023-07-16T00:00:00	2024-11-06T10:00:00	6	Velocidad del viento	16.1
37718	7	Sololá	701	Sololá	3	Barraneche	7	Julio	2023-07-16T00:00:00	2024-11-06T10:00:00	7	Dirección del viento	16.09
37719	7	Sololá	701	Sololá	3	Barraneche	7	Julio	2023-07-16T00:00:00	2024-11-06T10:00:00	1	Precipitación	0
37720	7	Sololá	701	Sololá	3	Barraneche	7	Julio	2023-07-16T00:00:00	2024-11-06T10:00:00	8	Radiación solar	811
37721	7	Sololá	701	Sololá	3	Barraneche	7	Julio	2023-07-16T00:00:00	2024-11-06T11:00:00	2	Temperatura media	17.9
37722	7	Sololá	701	Sololá	3	Barraneche	7	Julio	2023-07-16T00:00:00	2024-11-06T11:00:00	4	Temperatura máxima	18.4
37723	7	Sololá	701	Sololá	3	Barraneche	7	Julio	2023-07-16T00:00:00	2024-11-06T11:00:00	3	Temperatura mínima	16.8
37724	7	Sololá	701	Sololá	3	Barraneche	7	Julio	2023-07-16T00:00:00	2024-11-06T11:00:00	5	Humedad	56
37725	7	Sololá	701	Sololá	3	Barraneche	7	Julio	2023-07-16T00:00:00	2024-11-06T11:00:00	6	Velocidad del viento	16.1
37726	7	Sololá	701	Sololá	3	Barraneche	7	Julio	2023-07-16T00:00:00	2024-11-06T11:00:00	7	Dirección del viento	16.09
37727	7	Sololá	701	Sololá	3	Barraneche	7	Julio	2023-07-16T00:00:00	2024-11-06T11:00:00	1	Precipitación	0
37728	7	Sololá	701	Sololá	3	Barraneche	7	Julio	2023-07-16T00:00:00	2024-11-06T11:00:00	8	Radiación solar	788
37729	7	Sololá	701	Sololá	3	Barraneche	7	Julio	2023-07-16T00:00:00	2024-11-06T12:00:00	2	Temperatura media	17.5
37730	7	Sololá	701	Sololá	3	Barraneche	7	Julio	2023-07-16T00:00:00	2024-11-06T12:00:00	4	Temperatura máxima	18.1
37731	7	Sololá	701	Sololá	3	Barraneche	7	Julio	2023-07-16T00:00:00	2024-11-06T12:00:00	3	Temperatura mínima	17.2
37732	7	Sololá	701	Sololá	3	Barraneche	7	Julio	2023-07-16T00:00:00	2024-11-06T12:00:00	5	Humedad	59
37733	7	Sololá	701	Sololá	3	Barraneche	7	Julio	2023-07-16T00:00:00	2024-11-06T12:00:00	6	Velocidad del viento	11.3
37734	7	Sololá	701	Sololá	3	Barraneche	7	Julio	2023-07-16T00:00:00	2024-11-06T12:00:00	7	Dirección del viento	11.27
37735	7	Sololá	701	Sololá	3	Barraneche	7	Julio	2023-07-16T00:00:00	2024-11-06T12:00:00	1	Precipitación	0
37736	7	Sololá	701	Sololá	3	Barraneche	7	Julio	2023-07-16T00:00:00	2024-11-06T12:00:00	8	Radiación solar	501
37737	7	Sololá	701	Sololá	3	Barraneche	7	Julio	2023-07-16T00:00:00	2024-11-06T13:00:00	2	Temperatura media	18.2
37738	7	Sololá	701	Sololá	3	Barraneche	7	Julio	2023-07-16T00:00:00	2024-11-06T13:00:00	4	Temperatura máxima	19.6
37739	7	Sololá	701	Sololá	3	Barraneche	7	Julio	2023-07-16T00:00:00	2024-11-06T13:00:00	3	Temperatura mínima	17.4
37740	7	Sololá	701	Sololá	3	Barraneche	7	Julio	2023-07-16T00:00:00	2024-11-06T13:00:00	5	Humedad	59
37741	7	Sololá	701	Sololá	3	Barraneche	7	Julio	2023-07-16T00:00:00	2024-11-06T13:00:00	6	Velocidad del viento	9.7
37742	7	Sololá	701	Sololá	3	Barraneche	7	Julio	2023-07-16T00:00:00	2024-11-06T13:00:00	7	Dirección del viento	9.66
37743	7	Sololá	701	Sololá	3	Barraneche	7	Julio	2023-07-16T00:00:00	2024-11-06T13:00:00	1	Precipitación	0
37744	7	Sololá	701	Sololá	3	Barraneche	7	Julio	2023-07-16T00:00:00	2024-11-06T13:00:00	8	Radiación solar	547
37745	7	Sololá	701	Sololá	3	Barraneche	7	Julio	2023-07-16T00:00:00	2024-11-06T14:00:00	2	Temperatura media	17.9
37746	7	Sololá	701	Sololá	3	Barraneche	7	Julio	2023-07-16T00:00:00	2024-11-06T14:00:00	4	Temperatura máxima	19.4
37747	7	Sololá	701	Sololá	3	Barraneche	7	Julio	2023-07-16T00:00:00	2024-11-06T14:00:00	3	Temperatura mínima	17.9
37748	7	Sololá	701	Sololá	3	Barraneche	7	Julio	2023-07-16T00:00:00	2024-11-06T14:00:00	5	Humedad	59
37749	7	Sololá	701	Sololá	3	Barraneche	7	Julio	2023-07-16T00:00:00	2024-11-06T14:00:00	6	Velocidad del viento	8
37750	7	Sololá	701	Sololá	3	Barraneche	7	Julio	2023-07-16T00:00:00	2024-11-06T14:00:00	7	Dirección del viento	8.05
37751	7	Sololá	701	Sololá	3	Barraneche	7	Julio	2023-07-16T00:00:00	2024-11-06T14:00:00	1	Precipitación	0.2
37752	7	Sololá	701	Sololá	3	Barraneche	7	Julio	2023-07-16T00:00:00	2024-11-06T14:00:00	8	Radiación solar	362
37753	7	Sololá	701	Sololá	3	Barraneche	7	Julio	2023-07-16T00:00:00	2024-11-06T15:00:00	2	Temperatura media	19.1
37754	7	Sololá	701	Sololá	3	Barraneche	7	Julio	2023-07-16T00:00:00	2024-11-06T15:00:00	4	Temperatura máxima	19.7
37755	7	Sololá	701	Sololá	3	Barraneche	7	Julio	2023-07-16T00:00:00	2024-11-06T15:00:00	3	Temperatura mínima	17.9
37756	7	Sololá	701	Sololá	3	Barraneche	7	Julio	2023-07-16T00:00:00	2024-11-06T15:00:00	5	Humedad	56
37757	7	Sololá	701	Sololá	3	Barraneche	7	Julio	2023-07-16T00:00:00	2024-11-06T15:00:00	6	Velocidad del viento	6.4
37758	7	Sololá	701	Sololá	3	Barraneche	7	Julio	2023-07-16T00:00:00	2024-11-06T15:00:00	7	Dirección del viento	6.44
37759	7	Sololá	701	Sololá	3	Barraneche	7	Julio	2023-07-16T00:00:00	2024-11-06T15:00:00	1	Precipitación	0
37760	7	Sololá	701	Sololá	3	Barraneche	7	Julio	2023-07-16T00:00:00	2024-11-06T15:00:00	8	Radiación solar	465
37761	7	Sololá	701	Sololá	3	Barraneche	7	Julio	2023-07-16T00:00:00	2024-11-06T16:00:00	2	Temperatura media	15.7
37762	7	Sololá	701	Sololá	3	Barraneche	7	Julio	2023-07-16T00:00:00	2024-11-06T16:00:00	4	Temperatura máxima	19.1
37763	7	Sololá	701	Sololá	3	Barraneche	7	Julio	2023-07-16T00:00:00	2024-11-06T16:00:00	3	Temperatura mínima	15.7
37764	7	Sololá	701	Sololá	3	Barraneche	7	Julio	2023-07-16T00:00:00	2024-11-06T16:00:00	5	Humedad	68
37765	7	Sololá	701	Sololá	3	Barraneche	7	Julio	2023-07-16T00:00:00	2024-11-06T16:00:00	6	Velocidad del viento	11.3
37766	7	Sololá	701	Sololá	3	Barraneche	7	Julio	2023-07-16T00:00:00	2024-11-06T16:00:00	7	Dirección del viento	11.27
37767	7	Sololá	701	Sololá	3	Barraneche	7	Julio	2023-07-16T00:00:00	2024-11-06T16:00:00	1	Precipitación	1
37768	7	Sololá	701	Sololá	3	Barraneche	7	Julio	2023-07-16T00:00:00	2024-11-06T16:00:00	8	Radiación solar	166
37769	7	Sololá	701	Sololá	3	Barraneche	7	Julio	2023-07-16T00:00:00	2024-11-06T17:00:00	2	Temperatura media	15.4
37770	7	Sololá	701	Sololá	3	Barraneche	7	Julio	2023-07-16T00:00:00	2024-11-06T17:00:00	4	Temperatura máxima	15.8
37771	7	Sololá	701	Sololá	3	Barraneche	7	Julio	2023-07-16T00:00:00	2024-11-06T17:00:00	3	Temperatura mínima	15.3
37772	7	Sololá	701	Sololá	3	Barraneche	7	Julio	2023-07-16T00:00:00	2024-11-06T17:00:00	5	Humedad	67
37773	7	Sololá	701	Sololá	3	Barraneche	7	Julio	2023-07-16T00:00:00	2024-11-06T17:00:00	6	Velocidad del viento	8
37774	7	Sololá	701	Sololá	3	Barraneche	7	Julio	2023-07-16T00:00:00	2024-11-06T17:00:00	7	Dirección del viento	8.05
37775	7	Sololá	701	Sololá	3	Barraneche	7	Julio	2023-07-16T00:00:00	2024-11-06T17:00:00	1	Precipitación	0.2
37776	7	Sololá	701	Sololá	3	Barraneche	7	Julio	2023-07-16T00:00:00	2024-11-06T17:00:00	8	Radiación solar	20
37777	7	Sololá	701	Sololá	3	Barraneche	7	Julio	2023-07-16T00:00:00	2024-11-06T18:00:00	2	Temperatura media	14.7
37778	7	Sololá	701	Sololá	3	Barraneche	7	Julio	2023-07-16T00:00:00	2024-11-06T18:00:00	4	Temperatura máxima	15.5
37779	7	Sololá	701	Sololá	3	Barraneche	7	Julio	2023-07-16T00:00:00	2024-11-06T18:00:00	3	Temperatura mínima	14.7
37780	7	Sololá	701	Sololá	3	Barraneche	7	Julio	2023-07-16T00:00:00	2024-11-06T18:00:00	5	Humedad	69
37781	7	Sololá	701	Sololá	3	Barraneche	7	Julio	2023-07-16T00:00:00	2024-11-06T18:00:00	6	Velocidad del viento	9.7
37782	7	Sololá	701	Sololá	3	Barraneche	7	Julio	2023-07-16T00:00:00	2024-11-06T18:00:00	7	Dirección del viento	9.66
37783	7	Sololá	701	Sololá	3	Barraneche	7	Julio	2023-07-16T00:00:00	2024-11-06T18:00:00	1	Precipitación	1.2
37784	7	Sololá	701	Sololá	3	Barraneche	7	Julio	2023-07-16T00:00:00	2024-11-06T18:00:00	8	Radiación solar	6
37785	7	Sololá	701	Sololá	3	Barraneche	7	Julio	2023-07-16T00:00:00	2024-11-06T19:00:00	2	Temperatura media	13.9
37786	7	Sololá	701	Sololá	3	Barraneche	7	Julio	2023-07-16T00:00:00	2024-11-06T19:00:00	4	Temperatura máxima	14.7
37787	7	Sololá	701	Sololá	3	Barraneche	7	Julio	2023-07-16T00:00:00	2024-11-06T19:00:00	3	Temperatura mínima	13.6
37788	7	Sololá	701	Sololá	3	Barraneche	7	Julio	2023-07-16T00:00:00	2024-11-06T19:00:00	5	Humedad	71
37789	7	Sololá	701	Sololá	3	Barraneche	7	Julio	2023-07-16T00:00:00	2024-11-06T19:00:00	6	Velocidad del viento	11.3
37790	7	Sololá	701	Sololá	3	Barraneche	7	Julio	2023-07-16T00:00:00	2024-11-06T19:00:00	7	Dirección del viento	11.27
37791	7	Sololá	701	Sololá	3	Barraneche	7	Julio	2023-07-16T00:00:00	2024-11-06T19:00:00	1	Precipitación	2.2
37792	7	Sololá	701	Sololá	3	Barraneche	7	Julio	2023-07-16T00:00:00	2024-11-06T19:00:00	8	Radiación solar	0
37793	7	Sololá	701	Sololá	3	Barraneche	7	Julio	2023-07-16T00:00:00	2024-11-06T20:00:00	2	Temperatura media	14.3
37794	7	Sololá	701	Sololá	3	Barraneche	7	Julio	2023-07-16T00:00:00	2024-11-06T20:00:00	4	Temperatura máxima	14.3
37795	7	Sololá	701	Sololá	3	Barraneche	7	Julio	2023-07-16T00:00:00	2024-11-06T20:00:00	3	Temperatura mínima	13.9
37796	7	Sololá	701	Sololá	3	Barraneche	7	Julio	2023-07-16T00:00:00	2024-11-06T20:00:00	5	Humedad	70
37797	7	Sololá	701	Sololá	3	Barraneche	7	Julio	2023-07-16T00:00:00	2024-11-06T20:00:00	6	Velocidad del viento	8
37798	7	Sololá	701	Sololá	3	Barraneche	7	Julio	2023-07-16T00:00:00	2024-11-06T20:00:00	7	Dirección del viento	8.05
37799	7	Sololá	701	Sololá	3	Barraneche	7	Julio	2023-07-16T00:00:00	2024-11-06T20:00:00	1	Precipitación	2
37800	7	Sololá	701	Sololá	3	Barraneche	7	Julio	2023-07-16T00:00:00	2024-11-06T20:00:00	8	Radiación solar	0
37801	7	Sololá	701	Sololá	3	Barraneche	7	Julio	2023-07-16T00:00:00	2024-11-06T21:00:00	2	Temperatura media	13.7
37802	7	Sololá	701	Sololá	3	Barraneche	7	Julio	2023-07-16T00:00:00	2024-11-06T21:00:00	4	Temperatura máxima	14.4
37803	7	Sololá	701	Sololá	3	Barraneche	7	Julio	2023-07-16T00:00:00	2024-11-06T21:00:00	3	Temperatura mínima	13.7
37804	7	Sololá	701	Sololá	3	Barraneche	7	Julio	2023-07-16T00:00:00	2024-11-06T21:00:00	5	Humedad	68
37805	7	Sololá	701	Sololá	3	Barraneche	7	Julio	2023-07-16T00:00:00	2024-11-06T21:00:00	6	Velocidad del viento	14.5
37806	7	Sololá	701	Sololá	3	Barraneche	7	Julio	2023-07-16T00:00:00	2024-11-06T21:00:00	7	Dirección del viento	14.48
37807	7	Sololá	701	Sololá	3	Barraneche	7	Julio	2023-07-16T00:00:00	2024-11-06T21:00:00	1	Precipitación	0.2
37808	7	Sololá	701	Sololá	3	Barraneche	7	Julio	2023-07-16T00:00:00	2024-11-06T21:00:00	8	Radiación solar	0
37809	7	Sololá	701	Sololá	3	Barraneche	7	Julio	2023-07-16T00:00:00	2024-11-06T22:00:00	2	Temperatura media	13.9
37810	7	Sololá	701	Sololá	3	Barraneche	7	Julio	2023-07-16T00:00:00	2024-11-06T22:00:00	4	Temperatura máxima	14
37811	7	Sololá	701	Sololá	3	Barraneche	7	Julio	2023-07-16T00:00:00	2024-11-06T22:00:00	3	Temperatura mínima	13.6
37812	7	Sololá	701	Sololá	3	Barraneche	7	Julio	2023-07-16T00:00:00	2024-11-06T22:00:00	5	Humedad	65
37813	7	Sololá	701	Sololá	3	Barraneche	7	Julio	2023-07-16T00:00:00	2024-11-06T22:00:00	6	Velocidad del viento	17.7
37814	7	Sololá	701	Sololá	3	Barraneche	7	Julio	2023-07-16T00:00:00	2024-11-06T22:00:00	7	Dirección del viento	17.7
37815	7	Sololá	701	Sololá	3	Barraneche	7	Julio	2023-07-16T00:00:00	2024-11-06T22:00:00	1	Precipitación	0
37816	7	Sololá	701	Sololá	3	Barraneche	7	Julio	2023-07-16T00:00:00	2024-11-06T22:00:00	8	Radiación solar	0
37817	7	Sololá	701	Sololá	3	Barraneche	7	Julio	2023-07-16T00:00:00	2024-11-06T23:00:00	2	Temperatura media	14.1
37818	7	Sololá	701	Sololá	3	Barraneche	7	Julio	2023-07-16T00:00:00	2024-11-06T23:00:00	4	Temperatura máxima	14.3
37819	7	Sololá	701	Sololá	3	Barraneche	7	Julio	2023-07-16T00:00:00	2024-11-06T23:00:00	3	Temperatura mínima	13.7
37820	7	Sololá	701	Sololá	3	Barraneche	7	Julio	2023-07-16T00:00:00	2024-11-06T23:00:00	5	Humedad	63
37821	7	Sololá	701	Sololá	3	Barraneche	7	Julio	2023-07-16T00:00:00	2024-11-06T23:00:00	6	Velocidad del viento	11.3
37822	7	Sololá	701	Sololá	3	Barraneche	7	Julio	2023-07-16T00:00:00	2024-11-06T23:00:00	7	Dirección del viento	11.27
37823	7	Sololá	701	Sololá	3	Barraneche	7	Julio	2023-07-16T00:00:00	2024-11-06T23:00:00	1	Precipitación	0
37824	7	Sololá	701	Sololá	3	Barraneche	7	Julio	2023-07-16T00:00:00	2024-11-06T23:00:00	8	Radiación solar	0
37825	7	Sololá	701	Sololá	3	Barraneche	7	Julio	2023-07-17T00:00:00	2024-11-06T00:00:00	2	Temperatura media	14.5
37826	7	Sololá	701	Sololá	3	Barraneche	7	Julio	2023-07-17T00:00:00	2024-11-06T00:00:00	4	Temperatura máxima	14.6
37827	7	Sololá	701	Sololá	3	Barraneche	7	Julio	2023-07-17T00:00:00	2024-11-06T00:00:00	3	Temperatura mínima	14.1
37828	7	Sololá	701	Sololá	3	Barraneche	7	Julio	2023-07-17T00:00:00	2024-11-06T00:00:00	5	Humedad	57
37829	7	Sololá	701	Sololá	3	Barraneche	7	Julio	2023-07-17T00:00:00	2024-11-06T00:00:00	6	Velocidad del viento	11.3
37830	7	Sololá	701	Sololá	3	Barraneche	7	Julio	2023-07-17T00:00:00	2024-11-06T00:00:00	7	Dirección del viento	11.27
37831	7	Sololá	701	Sololá	3	Barraneche	7	Julio	2023-07-17T00:00:00	2024-11-06T00:00:00	1	Precipitación	0
37832	7	Sololá	701	Sololá	3	Barraneche	7	Julio	2023-07-17T00:00:00	2024-11-06T00:00:00	8	Radiación solar	0
37833	7	Sololá	701	Sololá	3	Barraneche	7	Julio	2023-07-17T00:00:00	2024-11-06T01:00:00	2	Temperatura media	14.2
37834	7	Sololá	701	Sololá	3	Barraneche	7	Julio	2023-07-17T00:00:00	2024-11-06T01:00:00	4	Temperatura máxima	14.7
37835	7	Sololá	701	Sololá	3	Barraneche	7	Julio	2023-07-17T00:00:00	2024-11-06T01:00:00	3	Temperatura mínima	13.9
37836	7	Sololá	701	Sololá	3	Barraneche	7	Julio	2023-07-17T00:00:00	2024-11-06T01:00:00	5	Humedad	64
37837	7	Sololá	701	Sololá	3	Barraneche	7	Julio	2023-07-17T00:00:00	2024-11-06T01:00:00	6	Velocidad del viento	16.1
37838	7	Sololá	701	Sololá	3	Barraneche	7	Julio	2023-07-17T00:00:00	2024-11-06T01:00:00	7	Dirección del viento	16.09
37839	7	Sololá	701	Sololá	3	Barraneche	7	Julio	2023-07-17T00:00:00	2024-11-06T01:00:00	1	Precipitación	0
37840	7	Sololá	701	Sololá	3	Barraneche	7	Julio	2023-07-17T00:00:00	2024-11-06T01:00:00	8	Radiación solar	0
37841	7	Sololá	701	Sololá	3	Barraneche	7	Julio	2023-07-17T00:00:00	2024-11-06T02:00:00	2	Temperatura media	14.1
37842	7	Sololá	701	Sololá	3	Barraneche	7	Julio	2023-07-17T00:00:00	2024-11-06T02:00:00	4	Temperatura máxima	14.4
37843	7	Sololá	701	Sololá	3	Barraneche	7	Julio	2023-07-17T00:00:00	2024-11-06T02:00:00	3	Temperatura mínima	14.1
37844	7	Sololá	701	Sololá	3	Barraneche	7	Julio	2023-07-17T00:00:00	2024-11-06T02:00:00	5	Humedad	63
37845	7	Sololá	701	Sololá	3	Barraneche	7	Julio	2023-07-17T00:00:00	2024-11-06T02:00:00	6	Velocidad del viento	20.9
37846	7	Sololá	701	Sololá	3	Barraneche	7	Julio	2023-07-17T00:00:00	2024-11-06T02:00:00	7	Dirección del viento	20.92
37847	7	Sololá	701	Sololá	3	Barraneche	7	Julio	2023-07-17T00:00:00	2024-11-06T02:00:00	1	Precipitación	0
37848	7	Sololá	701	Sololá	3	Barraneche	7	Julio	2023-07-17T00:00:00	2024-11-06T02:00:00	8	Radiación solar	0
37849	7	Sololá	701	Sololá	3	Barraneche	7	Julio	2023-07-17T00:00:00	2024-11-06T03:00:00	2	Temperatura media	14.3
37850	7	Sololá	701	Sololá	3	Barraneche	7	Julio	2023-07-17T00:00:00	2024-11-06T03:00:00	4	Temperatura máxima	14.4
37851	7	Sololá	701	Sololá	3	Barraneche	7	Julio	2023-07-17T00:00:00	2024-11-06T03:00:00	3	Temperatura mínima	14.1
37852	7	Sololá	701	Sololá	3	Barraneche	7	Julio	2023-07-17T00:00:00	2024-11-06T03:00:00	5	Humedad	64
37853	7	Sololá	701	Sololá	3	Barraneche	7	Julio	2023-07-17T00:00:00	2024-11-06T03:00:00	6	Velocidad del viento	17.7
37854	7	Sololá	701	Sololá	3	Barraneche	7	Julio	2023-07-17T00:00:00	2024-11-06T03:00:00	7	Dirección del viento	17.7
37855	7	Sololá	701	Sololá	3	Barraneche	7	Julio	2023-07-17T00:00:00	2024-11-06T03:00:00	1	Precipitación	0
37856	7	Sololá	701	Sololá	3	Barraneche	7	Julio	2023-07-17T00:00:00	2024-11-06T03:00:00	8	Radiación solar	0
37857	7	Sololá	701	Sololá	3	Barraneche	7	Julio	2023-07-17T00:00:00	2024-11-06T04:00:00	2	Temperatura media	14.1
37858	7	Sololá	701	Sololá	3	Barraneche	7	Julio	2023-07-17T00:00:00	2024-11-06T04:00:00	4	Temperatura máxima	14.4
37859	7	Sololá	701	Sololá	3	Barraneche	7	Julio	2023-07-17T00:00:00	2024-11-06T04:00:00	3	Temperatura mínima	14.1
37860	7	Sololá	701	Sololá	3	Barraneche	7	Julio	2023-07-17T00:00:00	2024-11-06T04:00:00	5	Humedad	62
37861	7	Sololá	701	Sololá	3	Barraneche	7	Julio	2023-07-17T00:00:00	2024-11-06T04:00:00	6	Velocidad del viento	19.3
37862	7	Sololá	701	Sololá	3	Barraneche	7	Julio	2023-07-17T00:00:00	2024-11-06T04:00:00	7	Dirección del viento	19.31
37863	7	Sololá	701	Sololá	3	Barraneche	7	Julio	2023-07-17T00:00:00	2024-11-06T04:00:00	1	Precipitación	0
37864	7	Sololá	701	Sololá	3	Barraneche	7	Julio	2023-07-17T00:00:00	2024-11-06T04:00:00	8	Radiación solar	0
37865	7	Sololá	701	Sololá	3	Barraneche	7	Julio	2023-07-17T00:00:00	2024-11-06T05:00:00	2	Temperatura media	14.1
37866	7	Sololá	701	Sololá	3	Barraneche	7	Julio	2023-07-17T00:00:00	2024-11-06T05:00:00	4	Temperatura máxima	14.4
37867	7	Sololá	701	Sololá	3	Barraneche	7	Julio	2023-07-17T00:00:00	2024-11-06T05:00:00	3	Temperatura mínima	13.9
37868	7	Sololá	701	Sololá	3	Barraneche	7	Julio	2023-07-17T00:00:00	2024-11-06T05:00:00	5	Humedad	55
37869	7	Sololá	701	Sololá	3	Barraneche	7	Julio	2023-07-17T00:00:00	2024-11-06T05:00:00	6	Velocidad del viento	19.3
37870	7	Sololá	701	Sololá	3	Barraneche	7	Julio	2023-07-17T00:00:00	2024-11-06T05:00:00	7	Dirección del viento	19.31
37871	7	Sololá	701	Sololá	3	Barraneche	7	Julio	2023-07-17T00:00:00	2024-11-06T05:00:00	1	Precipitación	0
37872	7	Sololá	701	Sololá	3	Barraneche	7	Julio	2023-07-17T00:00:00	2024-11-06T05:00:00	8	Radiación solar	0
37873	7	Sololá	701	Sololá	3	Barraneche	7	Julio	2023-07-17T00:00:00	2024-11-06T06:00:00	2	Temperatura media	14.1
37874	7	Sololá	701	Sololá	3	Barraneche	7	Julio	2023-07-17T00:00:00	2024-11-06T06:00:00	4	Temperatura máxima	14.1
37875	7	Sololá	701	Sololá	3	Barraneche	7	Julio	2023-07-17T00:00:00	2024-11-06T06:00:00	3	Temperatura mínima	13.6
37876	7	Sololá	701	Sololá	3	Barraneche	7	Julio	2023-07-17T00:00:00	2024-11-06T06:00:00	5	Humedad	52
37877	7	Sololá	701	Sololá	3	Barraneche	7	Julio	2023-07-17T00:00:00	2024-11-06T06:00:00	6	Velocidad del viento	20.9
37878	7	Sololá	701	Sololá	3	Barraneche	7	Julio	2023-07-17T00:00:00	2024-11-06T06:00:00	7	Dirección del viento	20.92
37879	7	Sololá	701	Sololá	3	Barraneche	7	Julio	2023-07-17T00:00:00	2024-11-06T06:00:00	1	Precipitación	0
37880	7	Sololá	701	Sololá	3	Barraneche	7	Julio	2023-07-17T00:00:00	2024-11-06T06:00:00	8	Radiación solar	2
37881	7	Sololá	701	Sololá	3	Barraneche	7	Julio	2023-07-17T00:00:00	2024-11-06T07:00:00	2	Temperatura media	14.3
37882	7	Sololá	701	Sololá	3	Barraneche	7	Julio	2023-07-17T00:00:00	2024-11-06T07:00:00	4	Temperatura máxima	14.3
37883	7	Sololá	701	Sololá	3	Barraneche	7	Julio	2023-07-17T00:00:00	2024-11-06T07:00:00	3	Temperatura mínima	13.7
37884	7	Sololá	701	Sololá	3	Barraneche	7	Julio	2023-07-17T00:00:00	2024-11-06T07:00:00	5	Humedad	53
37885	7	Sololá	701	Sololá	3	Barraneche	7	Julio	2023-07-17T00:00:00	2024-11-06T07:00:00	6	Velocidad del viento	22.5
37886	7	Sololá	701	Sololá	3	Barraneche	7	Julio	2023-07-17T00:00:00	2024-11-06T07:00:00	7	Dirección del viento	22.53
37887	7	Sololá	701	Sololá	3	Barraneche	7	Julio	2023-07-17T00:00:00	2024-11-06T07:00:00	1	Precipitación	0
37888	7	Sololá	701	Sololá	3	Barraneche	7	Julio	2023-07-17T00:00:00	2024-11-06T07:00:00	8	Radiación solar	85
37889	7	Sololá	701	Sololá	3	Barraneche	7	Julio	2023-07-17T00:00:00	2024-11-06T08:00:00	2	Temperatura media	15.8
37890	7	Sololá	701	Sololá	3	Barraneche	7	Julio	2023-07-17T00:00:00	2024-11-06T08:00:00	4	Temperatura máxima	15.8
37891	7	Sololá	701	Sololá	3	Barraneche	7	Julio	2023-07-17T00:00:00	2024-11-06T08:00:00	3	Temperatura mínima	14
37892	7	Sololá	701	Sololá	3	Barraneche	7	Julio	2023-07-17T00:00:00	2024-11-06T08:00:00	5	Humedad	49
37893	7	Sololá	701	Sololá	3	Barraneche	7	Julio	2023-07-17T00:00:00	2024-11-06T08:00:00	6	Velocidad del viento	16.1
37894	7	Sololá	701	Sololá	3	Barraneche	7	Julio	2023-07-17T00:00:00	2024-11-06T08:00:00	7	Dirección del viento	16.09
37895	7	Sololá	701	Sololá	3	Barraneche	7	Julio	2023-07-17T00:00:00	2024-11-06T08:00:00	1	Precipitación	0
37896	7	Sololá	701	Sololá	3	Barraneche	7	Julio	2023-07-17T00:00:00	2024-11-06T08:00:00	8	Radiación solar	317
37897	7	Sololá	701	Sololá	3	Barraneche	7	Julio	2023-07-17T00:00:00	2024-11-06T09:00:00	2	Temperatura media	16.7
37898	7	Sololá	701	Sololá	3	Barraneche	7	Julio	2023-07-17T00:00:00	2024-11-06T09:00:00	4	Temperatura máxima	16.8
37899	7	Sololá	701	Sololá	3	Barraneche	7	Julio	2023-07-17T00:00:00	2024-11-06T09:00:00	3	Temperatura mínima	15.6
37900	7	Sololá	701	Sololá	3	Barraneche	7	Julio	2023-07-17T00:00:00	2024-11-06T09:00:00	5	Humedad	45
37901	7	Sololá	701	Sololá	3	Barraneche	7	Julio	2023-07-17T00:00:00	2024-11-06T09:00:00	6	Velocidad del viento	17.7
37902	7	Sololá	701	Sololá	3	Barraneche	7	Julio	2023-07-17T00:00:00	2024-11-06T09:00:00	7	Dirección del viento	17.7
37903	7	Sololá	701	Sololá	3	Barraneche	7	Julio	2023-07-17T00:00:00	2024-11-06T09:00:00	1	Precipitación	0
37904	7	Sololá	701	Sololá	3	Barraneche	7	Julio	2023-07-17T00:00:00	2024-11-06T09:00:00	8	Radiación solar	596
37905	7	Sololá	701	Sololá	3	Barraneche	7	Julio	2023-07-17T00:00:00	2024-11-06T10:00:00	2	Temperatura media	16.7
37906	7	Sololá	701	Sololá	3	Barraneche	7	Julio	2023-07-17T00:00:00	2024-11-06T10:00:00	4	Temperatura máxima	16.9
37907	7	Sololá	701	Sololá	3	Barraneche	7	Julio	2023-07-17T00:00:00	2024-11-06T10:00:00	3	Temperatura mínima	15.8
37908	7	Sololá	701	Sololá	3	Barraneche	7	Julio	2023-07-17T00:00:00	2024-11-06T10:00:00	5	Humedad	52
37909	7	Sololá	701	Sololá	3	Barraneche	7	Julio	2023-07-17T00:00:00	2024-11-06T10:00:00	6	Velocidad del viento	22.5
37910	7	Sololá	701	Sololá	3	Barraneche	7	Julio	2023-07-17T00:00:00	2024-11-06T10:00:00	7	Dirección del viento	22.53
37911	7	Sololá	701	Sololá	3	Barraneche	7	Julio	2023-07-17T00:00:00	2024-11-06T10:00:00	1	Precipitación	0
37912	7	Sololá	701	Sololá	3	Barraneche	7	Julio	2023-07-17T00:00:00	2024-11-06T10:00:00	8	Radiación solar	809
37913	7	Sololá	701	Sololá	3	Barraneche	7	Julio	2023-07-17T00:00:00	2024-11-06T11:00:00	2	Temperatura media	16.9
37914	7	Sololá	701	Sololá	3	Barraneche	7	Julio	2023-07-17T00:00:00	2024-11-06T11:00:00	4	Temperatura máxima	17.3
37915	7	Sololá	701	Sololá	3	Barraneche	7	Julio	2023-07-17T00:00:00	2024-11-06T11:00:00	3	Temperatura mínima	16.6
37916	7	Sololá	701	Sololá	3	Barraneche	7	Julio	2023-07-17T00:00:00	2024-11-06T11:00:00	5	Humedad	51
37917	7	Sololá	701	Sololá	3	Barraneche	7	Julio	2023-07-17T00:00:00	2024-11-06T11:00:00	6	Velocidad del viento	24.1
37918	7	Sololá	701	Sololá	3	Barraneche	7	Julio	2023-07-17T00:00:00	2024-11-06T11:00:00	7	Dirección del viento	24.14
37919	7	Sololá	701	Sololá	3	Barraneche	7	Julio	2023-07-17T00:00:00	2024-11-06T11:00:00	1	Precipitación	0
37920	7	Sololá	701	Sololá	3	Barraneche	7	Julio	2023-07-17T00:00:00	2024-11-06T11:00:00	8	Radiación solar	949
37921	7	Sololá	701	Sololá	3	Barraneche	7	Julio	2023-07-17T00:00:00	2024-11-06T12:00:00	2	Temperatura media	17.6
37922	7	Sololá	701	Sololá	3	Barraneche	7	Julio	2023-07-17T00:00:00	2024-11-06T12:00:00	4	Temperatura máxima	18
37923	7	Sololá	701	Sololá	3	Barraneche	7	Julio	2023-07-17T00:00:00	2024-11-06T12:00:00	3	Temperatura mínima	16.9
37924	7	Sololá	701	Sololá	3	Barraneche	7	Julio	2023-07-17T00:00:00	2024-11-06T12:00:00	5	Humedad	49
37925	7	Sololá	701	Sololá	3	Barraneche	7	Julio	2023-07-17T00:00:00	2024-11-06T12:00:00	6	Velocidad del viento	16.1
37926	7	Sololá	701	Sololá	3	Barraneche	7	Julio	2023-07-17T00:00:00	2024-11-06T12:00:00	7	Dirección del viento	16.09
37927	7	Sololá	701	Sololá	3	Barraneche	7	Julio	2023-07-17T00:00:00	2024-11-06T12:00:00	1	Precipitación	0
37928	7	Sololá	701	Sololá	3	Barraneche	7	Julio	2023-07-17T00:00:00	2024-11-06T12:00:00	8	Radiación solar	1013
37929	7	Sololá	701	Sololá	3	Barraneche	7	Julio	2023-07-17T00:00:00	2024-11-06T13:00:00	2	Temperatura media	18.3
37930	7	Sololá	701	Sololá	3	Barraneche	7	Julio	2023-07-17T00:00:00	2024-11-06T13:00:00	4	Temperatura máxima	18.5
37931	7	Sololá	701	Sololá	3	Barraneche	7	Julio	2023-07-17T00:00:00	2024-11-06T13:00:00	3	Temperatura mínima	17.6
37932	7	Sololá	701	Sololá	3	Barraneche	7	Julio	2023-07-17T00:00:00	2024-11-06T13:00:00	5	Humedad	48
37933	7	Sololá	701	Sololá	3	Barraneche	7	Julio	2023-07-17T00:00:00	2024-11-06T13:00:00	6	Velocidad del viento	12.9
37934	7	Sololá	701	Sololá	3	Barraneche	7	Julio	2023-07-17T00:00:00	2024-11-06T13:00:00	7	Dirección del viento	12.87
37935	7	Sololá	701	Sololá	3	Barraneche	7	Julio	2023-07-17T00:00:00	2024-11-06T13:00:00	1	Precipitación	0
37936	7	Sololá	701	Sololá	3	Barraneche	7	Julio	2023-07-17T00:00:00	2024-11-06T13:00:00	8	Radiación solar	1030
37937	7	Sololá	701	Sololá	3	Barraneche	7	Julio	2023-07-17T00:00:00	2024-11-06T14:00:00	2	Temperatura media	18.8
37938	7	Sololá	701	Sololá	3	Barraneche	7	Julio	2023-07-17T00:00:00	2024-11-06T14:00:00	4	Temperatura máxima	19
37939	7	Sololá	701	Sololá	3	Barraneche	7	Julio	2023-07-17T00:00:00	2024-11-06T14:00:00	3	Temperatura mínima	18.2
37940	7	Sololá	701	Sololá	3	Barraneche	7	Julio	2023-07-17T00:00:00	2024-11-06T14:00:00	5	Humedad	45
37941	7	Sololá	701	Sololá	3	Barraneche	7	Julio	2023-07-17T00:00:00	2024-11-06T14:00:00	6	Velocidad del viento	12.9
37942	7	Sololá	701	Sololá	3	Barraneche	7	Julio	2023-07-17T00:00:00	2024-11-06T14:00:00	7	Dirección del viento	12.87
37943	7	Sololá	701	Sololá	3	Barraneche	7	Julio	2023-07-17T00:00:00	2024-11-06T14:00:00	1	Precipitación	0
37944	7	Sololá	701	Sololá	3	Barraneche	7	Julio	2023-07-17T00:00:00	2024-11-06T14:00:00	8	Radiación solar	927
37945	7	Sololá	701	Sololá	3	Barraneche	7	Julio	2023-07-17T00:00:00	2024-11-06T15:00:00	2	Temperatura media	19.1
37946	7	Sololá	701	Sololá	3	Barraneche	7	Julio	2023-07-17T00:00:00	2024-11-06T15:00:00	4	Temperatura máxima	19.3
37947	7	Sololá	701	Sololá	3	Barraneche	7	Julio	2023-07-17T00:00:00	2024-11-06T15:00:00	3	Temperatura mínima	18.6
37948	7	Sololá	701	Sololá	3	Barraneche	7	Julio	2023-07-17T00:00:00	2024-11-06T15:00:00	5	Humedad	46
37949	7	Sololá	701	Sololá	3	Barraneche	7	Julio	2023-07-17T00:00:00	2024-11-06T15:00:00	6	Velocidad del viento	9.7
37950	7	Sololá	701	Sololá	3	Barraneche	7	Julio	2023-07-17T00:00:00	2024-11-06T15:00:00	7	Dirección del viento	9.66
37951	7	Sololá	701	Sololá	3	Barraneche	7	Julio	2023-07-17T00:00:00	2024-11-06T15:00:00	1	Precipitación	0
37952	7	Sololá	701	Sololá	3	Barraneche	7	Julio	2023-07-17T00:00:00	2024-11-06T15:00:00	8	Radiación solar	805
37953	7	Sololá	701	Sololá	3	Barraneche	7	Julio	2023-07-17T00:00:00	2024-11-06T16:00:00	2	Temperatura media	18.1
37954	7	Sololá	701	Sololá	3	Barraneche	7	Julio	2023-07-17T00:00:00	2024-11-06T16:00:00	4	Temperatura máxima	19.2
37955	7	Sololá	701	Sololá	3	Barraneche	7	Julio	2023-07-17T00:00:00	2024-11-06T16:00:00	3	Temperatura mínima	18.1
37956	7	Sololá	701	Sololá	3	Barraneche	7	Julio	2023-07-17T00:00:00	2024-11-06T16:00:00	5	Humedad	51
37957	7	Sololá	701	Sololá	3	Barraneche	7	Julio	2023-07-17T00:00:00	2024-11-06T16:00:00	6	Velocidad del viento	12.9
37958	7	Sololá	701	Sololá	3	Barraneche	7	Julio	2023-07-17T00:00:00	2024-11-06T16:00:00	7	Dirección del viento	12.87
37959	7	Sololá	701	Sololá	3	Barraneche	7	Julio	2023-07-17T00:00:00	2024-11-06T16:00:00	1	Precipitación	0
37960	7	Sololá	701	Sololá	3	Barraneche	7	Julio	2023-07-17T00:00:00	2024-11-06T16:00:00	8	Radiación solar	639
37961	7	Sololá	701	Sololá	3	Barraneche	7	Julio	2023-07-17T00:00:00	2024-11-06T17:00:00	2	Temperatura media	17.3
37962	7	Sololá	701	Sololá	3	Barraneche	7	Julio	2023-07-17T00:00:00	2024-11-06T17:00:00	4	Temperatura máxima	18.3
37963	7	Sololá	701	Sololá	3	Barraneche	7	Julio	2023-07-17T00:00:00	2024-11-06T17:00:00	3	Temperatura mínima	17.3
37964	7	Sololá	701	Sololá	3	Barraneche	7	Julio	2023-07-17T00:00:00	2024-11-06T17:00:00	5	Humedad	52
37965	7	Sololá	701	Sololá	3	Barraneche	7	Julio	2023-07-17T00:00:00	2024-11-06T17:00:00	6	Velocidad del viento	12.9
37966	7	Sololá	701	Sololá	3	Barraneche	7	Julio	2023-07-17T00:00:00	2024-11-06T17:00:00	7	Dirección del viento	12.87
37967	7	Sololá	701	Sololá	3	Barraneche	7	Julio	2023-07-17T00:00:00	2024-11-06T17:00:00	1	Precipitación	0
37968	7	Sololá	701	Sololá	3	Barraneche	7	Julio	2023-07-17T00:00:00	2024-11-06T17:00:00	8	Radiación solar	348
37969	7	Sololá	701	Sololá	3	Barraneche	7	Julio	2023-07-17T00:00:00	2024-11-06T18:00:00	2	Temperatura media	16.2
37970	7	Sololá	701	Sololá	3	Barraneche	7	Julio	2023-07-17T00:00:00	2024-11-06T18:00:00	4	Temperatura máxima	17.4
37971	7	Sololá	701	Sololá	3	Barraneche	7	Julio	2023-07-17T00:00:00	2024-11-06T18:00:00	3	Temperatura mínima	16.1
37972	7	Sololá	701	Sololá	3	Barraneche	7	Julio	2023-07-17T00:00:00	2024-11-06T18:00:00	5	Humedad	59
37973	7	Sololá	701	Sololá	3	Barraneche	7	Julio	2023-07-17T00:00:00	2024-11-06T18:00:00	6	Velocidad del viento	11.3
37974	7	Sololá	701	Sololá	3	Barraneche	7	Julio	2023-07-17T00:00:00	2024-11-06T18:00:00	7	Dirección del viento	11.27
37975	7	Sololá	701	Sololá	3	Barraneche	7	Julio	2023-07-17T00:00:00	2024-11-06T18:00:00	1	Precipitación	0
37976	7	Sololá	701	Sololá	3	Barraneche	7	Julio	2023-07-17T00:00:00	2024-11-06T18:00:00	8	Radiación solar	81
37977	7	Sololá	701	Sololá	3	Barraneche	7	Julio	2023-07-17T00:00:00	2024-11-06T19:00:00	2	Temperatura media	15.6
37978	7	Sololá	701	Sololá	3	Barraneche	7	Julio	2023-07-17T00:00:00	2024-11-06T19:00:00	4	Temperatura máxima	16.2
37979	7	Sololá	701	Sololá	3	Barraneche	7	Julio	2023-07-17T00:00:00	2024-11-06T19:00:00	3	Temperatura mínima	15.6
37980	7	Sololá	701	Sololá	3	Barraneche	7	Julio	2023-07-17T00:00:00	2024-11-06T19:00:00	5	Humedad	63
37981	7	Sololá	701	Sololá	3	Barraneche	7	Julio	2023-07-17T00:00:00	2024-11-06T19:00:00	6	Velocidad del viento	9.7
37982	7	Sololá	701	Sololá	3	Barraneche	7	Julio	2023-07-17T00:00:00	2024-11-06T19:00:00	7	Dirección del viento	9.66
37983	7	Sololá	701	Sololá	3	Barraneche	7	Julio	2023-07-17T00:00:00	2024-11-06T19:00:00	1	Precipitación	0
37984	7	Sololá	701	Sololá	3	Barraneche	7	Julio	2023-07-17T00:00:00	2024-11-06T19:00:00	8	Radiación solar	0
37985	7	Sololá	701	Sololá	3	Barraneche	7	Julio	2023-07-17T00:00:00	2024-11-06T20:00:00	2	Temperatura media	15.1
37986	7	Sololá	701	Sololá	3	Barraneche	7	Julio	2023-07-17T00:00:00	2024-11-06T20:00:00	4	Temperatura máxima	15.6
37987	7	Sololá	701	Sololá	3	Barraneche	7	Julio	2023-07-17T00:00:00	2024-11-06T20:00:00	3	Temperatura mínima	14.9
37988	7	Sololá	701	Sololá	3	Barraneche	7	Julio	2023-07-17T00:00:00	2024-11-06T20:00:00	5	Humedad	60
37989	7	Sololá	701	Sololá	3	Barraneche	7	Julio	2023-07-17T00:00:00	2024-11-06T20:00:00	6	Velocidad del viento	17.7
37990	7	Sololá	701	Sololá	3	Barraneche	7	Julio	2023-07-17T00:00:00	2024-11-06T20:00:00	7	Dirección del viento	17.7
37991	7	Sololá	701	Sololá	3	Barraneche	7	Julio	2023-07-17T00:00:00	2024-11-06T20:00:00	1	Precipitación	0
37992	7	Sololá	701	Sololá	3	Barraneche	7	Julio	2023-07-17T00:00:00	2024-11-06T20:00:00	8	Radiación solar	0
37993	7	Sololá	701	Sololá	3	Barraneche	7	Julio	2023-07-17T00:00:00	2024-11-06T21:00:00	2	Temperatura media	14.6
37994	7	Sololá	701	Sololá	3	Barraneche	7	Julio	2023-07-17T00:00:00	2024-11-06T21:00:00	4	Temperatura máxima	15.1
37995	7	Sololá	701	Sololá	3	Barraneche	7	Julio	2023-07-17T00:00:00	2024-11-06T21:00:00	3	Temperatura mínima	14.6
37996	7	Sololá	701	Sololá	3	Barraneche	7	Julio	2023-07-17T00:00:00	2024-11-06T21:00:00	5	Humedad	62
37997	7	Sololá	701	Sololá	3	Barraneche	7	Julio	2023-07-17T00:00:00	2024-11-06T21:00:00	6	Velocidad del viento	14.5
37998	7	Sololá	701	Sololá	3	Barraneche	7	Julio	2023-07-17T00:00:00	2024-11-06T21:00:00	7	Dirección del viento	14.48
37999	7	Sololá	701	Sololá	3	Barraneche	7	Julio	2023-07-17T00:00:00	2024-11-06T21:00:00	1	Precipitación	0
38000	7	Sololá	701	Sololá	3	Barraneche	7	Julio	2023-07-17T00:00:00	2024-11-06T21:00:00	8	Radiación solar	0
38001	7	Sololá	701	Sololá	3	Barraneche	7	Julio	2023-07-17T00:00:00	2024-11-06T22:00:00	2	Temperatura media	14.4
38002	7	Sololá	701	Sololá	3	Barraneche	7	Julio	2023-07-17T00:00:00	2024-11-06T22:00:00	4	Temperatura máxima	14.8
38003	7	Sololá	701	Sololá	3	Barraneche	7	Julio	2023-07-17T00:00:00	2024-11-06T22:00:00	3	Temperatura mínima	14.4
38004	7	Sololá	701	Sololá	3	Barraneche	7	Julio	2023-07-17T00:00:00	2024-11-06T22:00:00	5	Humedad	62
38005	7	Sololá	701	Sololá	3	Barraneche	7	Julio	2023-07-17T00:00:00	2024-11-06T22:00:00	6	Velocidad del viento	25.7
38006	7	Sololá	701	Sololá	3	Barraneche	7	Julio	2023-07-17T00:00:00	2024-11-06T22:00:00	7	Dirección del viento	25.75
38007	7	Sololá	701	Sololá	3	Barraneche	7	Julio	2023-07-17T00:00:00	2024-11-06T22:00:00	1	Precipitación	0
38008	7	Sololá	701	Sololá	3	Barraneche	7	Julio	2023-07-17T00:00:00	2024-11-06T22:00:00	8	Radiación solar	0
38009	7	Sololá	701	Sololá	3	Barraneche	7	Julio	2023-07-17T00:00:00	2024-11-06T23:00:00	2	Temperatura media	14.1
38010	7	Sololá	701	Sololá	3	Barraneche	7	Julio	2023-07-17T00:00:00	2024-11-06T23:00:00	4	Temperatura máxima	14.4
38011	7	Sololá	701	Sololá	3	Barraneche	7	Julio	2023-07-17T00:00:00	2024-11-06T23:00:00	3	Temperatura mínima	13.9
38012	7	Sololá	701	Sololá	3	Barraneche	7	Julio	2023-07-17T00:00:00	2024-11-06T23:00:00	5	Humedad	61
38013	7	Sololá	701	Sololá	3	Barraneche	7	Julio	2023-07-17T00:00:00	2024-11-06T23:00:00	6	Velocidad del viento	20.9
38014	7	Sololá	701	Sololá	3	Barraneche	7	Julio	2023-07-17T00:00:00	2024-11-06T23:00:00	7	Dirección del viento	20.92
38015	7	Sololá	701	Sololá	3	Barraneche	7	Julio	2023-07-17T00:00:00	2024-11-06T23:00:00	1	Precipitación	0
38016	7	Sololá	701	Sololá	3	Barraneche	7	Julio	2023-07-17T00:00:00	2024-11-06T23:00:00	8	Radiación solar	0
38017	7	Sololá	701	Sololá	3	Barraneche	7	Julio	2023-07-18T00:00:00	2024-11-06T00:00:00	2	Temperatura media	14.4
38018	7	Sololá	701	Sololá	3	Barraneche	7	Julio	2023-07-18T00:00:00	2024-11-06T00:00:00	4	Temperatura máxima	14.4
38019	7	Sololá	701	Sololá	3	Barraneche	7	Julio	2023-07-18T00:00:00	2024-11-06T00:00:00	3	Temperatura mínima	14
38020	7	Sololá	701	Sololá	3	Barraneche	7	Julio	2023-07-18T00:00:00	2024-11-06T00:00:00	5	Humedad	59
38021	7	Sololá	701	Sololá	3	Barraneche	7	Julio	2023-07-18T00:00:00	2024-11-06T00:00:00	6	Velocidad del viento	16.1
38022	7	Sololá	701	Sololá	3	Barraneche	7	Julio	2023-07-18T00:00:00	2024-11-06T00:00:00	7	Dirección del viento	16.09
38023	7	Sololá	701	Sololá	3	Barraneche	7	Julio	2023-07-18T00:00:00	2024-11-06T00:00:00	1	Precipitación	0
38024	7	Sololá	701	Sololá	3	Barraneche	7	Julio	2023-07-18T00:00:00	2024-11-06T00:00:00	8	Radiación solar	0
38025	7	Sololá	701	Sololá	3	Barraneche	7	Julio	2023-07-18T00:00:00	2024-11-06T01:00:00	2	Temperatura media	14
38026	7	Sololá	701	Sololá	3	Barraneche	7	Julio	2023-07-18T00:00:00	2024-11-06T01:00:00	4	Temperatura máxima	14.9
38027	7	Sololá	701	Sololá	3	Barraneche	7	Julio	2023-07-18T00:00:00	2024-11-06T01:00:00	3	Temperatura mínima	13.8
38028	7	Sololá	701	Sololá	3	Barraneche	7	Julio	2023-07-18T00:00:00	2024-11-06T01:00:00	5	Humedad	62
38029	7	Sololá	701	Sololá	3	Barraneche	7	Julio	2023-07-18T00:00:00	2024-11-06T01:00:00	6	Velocidad del viento	6.4
38030	7	Sololá	701	Sololá	3	Barraneche	7	Julio	2023-07-18T00:00:00	2024-11-06T01:00:00	7	Dirección del viento	6.44
38031	7	Sololá	701	Sololá	3	Barraneche	7	Julio	2023-07-18T00:00:00	2024-11-06T01:00:00	1	Precipitación	0
38032	7	Sololá	701	Sololá	3	Barraneche	7	Julio	2023-07-18T00:00:00	2024-11-06T01:00:00	8	Radiación solar	0
38033	7	Sololá	701	Sololá	3	Barraneche	7	Julio	2023-07-18T00:00:00	2024-11-06T02:00:00	2	Temperatura media	13.7
38034	7	Sololá	701	Sololá	3	Barraneche	7	Julio	2023-07-18T00:00:00	2024-11-06T02:00:00	4	Temperatura máxima	14.2
38035	7	Sololá	701	Sololá	3	Barraneche	7	Julio	2023-07-18T00:00:00	2024-11-06T02:00:00	3	Temperatura mínima	13.6
38036	7	Sololá	701	Sololá	3	Barraneche	7	Julio	2023-07-18T00:00:00	2024-11-06T02:00:00	5	Humedad	66
38037	7	Sololá	701	Sololá	3	Barraneche	7	Julio	2023-07-18T00:00:00	2024-11-06T02:00:00	6	Velocidad del viento	14.5
38038	7	Sololá	701	Sololá	3	Barraneche	7	Julio	2023-07-18T00:00:00	2024-11-06T02:00:00	7	Dirección del viento	14.48
38039	7	Sololá	701	Sololá	3	Barraneche	7	Julio	2023-07-18T00:00:00	2024-11-06T02:00:00	1	Precipitación	0
38040	7	Sololá	701	Sololá	3	Barraneche	7	Julio	2023-07-18T00:00:00	2024-11-06T02:00:00	8	Radiación solar	0
38041	7	Sololá	701	Sololá	3	Barraneche	7	Julio	2023-07-18T00:00:00	2024-11-06T03:00:00	2	Temperatura media	13.7
38042	7	Sololá	701	Sololá	3	Barraneche	7	Julio	2023-07-18T00:00:00	2024-11-06T03:00:00	4	Temperatura máxima	13.7
38043	7	Sololá	701	Sololá	3	Barraneche	7	Julio	2023-07-18T00:00:00	2024-11-06T03:00:00	3	Temperatura mínima	13.1
38044	7	Sololá	701	Sololá	3	Barraneche	7	Julio	2023-07-18T00:00:00	2024-11-06T03:00:00	5	Humedad	67
38045	7	Sololá	701	Sololá	3	Barraneche	7	Julio	2023-07-18T00:00:00	2024-11-06T03:00:00	6	Velocidad del viento	14.5
38046	7	Sololá	701	Sololá	3	Barraneche	7	Julio	2023-07-18T00:00:00	2024-11-06T03:00:00	7	Dirección del viento	14.48
38047	7	Sololá	701	Sololá	3	Barraneche	7	Julio	2023-07-18T00:00:00	2024-11-06T03:00:00	1	Precipitación	0
38048	7	Sololá	701	Sololá	3	Barraneche	7	Julio	2023-07-18T00:00:00	2024-11-06T03:00:00	8	Radiación solar	0
38049	7	Sololá	701	Sololá	3	Barraneche	7	Julio	2023-07-18T00:00:00	2024-11-06T04:00:00	2	Temperatura media	14
38050	7	Sololá	701	Sololá	3	Barraneche	7	Julio	2023-07-18T00:00:00	2024-11-06T04:00:00	4	Temperatura máxima	14
38051	7	Sololá	701	Sololá	3	Barraneche	7	Julio	2023-07-18T00:00:00	2024-11-06T04:00:00	3	Temperatura mínima	13.7
38052	7	Sololá	701	Sololá	3	Barraneche	7	Julio	2023-07-18T00:00:00	2024-11-06T04:00:00	5	Humedad	66
38053	7	Sololá	701	Sololá	3	Barraneche	7	Julio	2023-07-18T00:00:00	2024-11-06T04:00:00	6	Velocidad del viento	16.1
38054	7	Sololá	701	Sololá	3	Barraneche	7	Julio	2023-07-18T00:00:00	2024-11-06T04:00:00	7	Dirección del viento	16.09
38055	7	Sololá	701	Sololá	3	Barraneche	7	Julio	2023-07-18T00:00:00	2024-11-06T04:00:00	1	Precipitación	0
38056	7	Sololá	701	Sololá	3	Barraneche	7	Julio	2023-07-18T00:00:00	2024-11-06T04:00:00	8	Radiación solar	0
38057	7	Sololá	701	Sololá	3	Barraneche	7	Julio	2023-07-18T00:00:00	2024-11-06T05:00:00	2	Temperatura media	13.6
38058	7	Sololá	701	Sololá	3	Barraneche	7	Julio	2023-07-18T00:00:00	2024-11-06T05:00:00	4	Temperatura máxima	14.1
38059	7	Sololá	701	Sololá	3	Barraneche	7	Julio	2023-07-18T00:00:00	2024-11-06T05:00:00	3	Temperatura mínima	13.6
38060	7	Sololá	701	Sololá	3	Barraneche	7	Julio	2023-07-18T00:00:00	2024-11-06T05:00:00	5	Humedad	67
38061	7	Sololá	701	Sololá	3	Barraneche	7	Julio	2023-07-18T00:00:00	2024-11-06T05:00:00	6	Velocidad del viento	14.5
38062	7	Sololá	701	Sololá	3	Barraneche	7	Julio	2023-07-18T00:00:00	2024-11-06T05:00:00	7	Dirección del viento	14.48
38063	7	Sololá	701	Sololá	3	Barraneche	7	Julio	2023-07-18T00:00:00	2024-11-06T05:00:00	1	Precipitación	0
38064	7	Sololá	701	Sololá	3	Barraneche	7	Julio	2023-07-18T00:00:00	2024-11-06T05:00:00	8	Radiación solar	0
38065	7	Sololá	701	Sololá	3	Barraneche	7	Julio	2023-07-18T00:00:00	2024-11-06T06:00:00	2	Temperatura media	13.6
38066	7	Sololá	701	Sololá	3	Barraneche	7	Julio	2023-07-18T00:00:00	2024-11-06T06:00:00	4	Temperatura máxima	13.6
38067	7	Sololá	701	Sololá	3	Barraneche	7	Julio	2023-07-18T00:00:00	2024-11-06T06:00:00	3	Temperatura mínima	13.4
38068	7	Sololá	701	Sololá	3	Barraneche	7	Julio	2023-07-18T00:00:00	2024-11-06T06:00:00	5	Humedad	67
38069	7	Sololá	701	Sololá	3	Barraneche	7	Julio	2023-07-18T00:00:00	2024-11-06T06:00:00	6	Velocidad del viento	12.9
38070	7	Sololá	701	Sololá	3	Barraneche	7	Julio	2023-07-18T00:00:00	2024-11-06T06:00:00	7	Dirección del viento	12.87
38071	7	Sololá	701	Sololá	3	Barraneche	7	Julio	2023-07-18T00:00:00	2024-11-06T06:00:00	1	Precipitación	0
38072	7	Sololá	701	Sololá	3	Barraneche	7	Julio	2023-07-18T00:00:00	2024-11-06T06:00:00	8	Radiación solar	1
38073	7	Sololá	701	Sololá	3	Barraneche	7	Julio	2023-07-18T00:00:00	2024-11-06T07:00:00	2	Temperatura media	13.6
38074	7	Sololá	701	Sololá	3	Barraneche	7	Julio	2023-07-18T00:00:00	2024-11-06T07:00:00	4	Temperatura máxima	13.7
38075	7	Sololá	701	Sololá	3	Barraneche	7	Julio	2023-07-18T00:00:00	2024-11-06T07:00:00	3	Temperatura mínima	13.4
38076	7	Sololá	701	Sololá	3	Barraneche	7	Julio	2023-07-18T00:00:00	2024-11-06T07:00:00	5	Humedad	65
38077	7	Sololá	701	Sololá	3	Barraneche	7	Julio	2023-07-18T00:00:00	2024-11-06T07:00:00	6	Velocidad del viento	16.1
38078	7	Sololá	701	Sololá	3	Barraneche	7	Julio	2023-07-18T00:00:00	2024-11-06T07:00:00	7	Dirección del viento	16.09
38079	7	Sololá	701	Sololá	3	Barraneche	7	Julio	2023-07-18T00:00:00	2024-11-06T07:00:00	1	Precipitación	0
38080	7	Sololá	701	Sololá	3	Barraneche	7	Julio	2023-07-18T00:00:00	2024-11-06T07:00:00	8	Radiación solar	46
38081	7	Sololá	701	Sololá	3	Barraneche	7	Julio	2023-07-18T00:00:00	2024-11-06T08:00:00	2	Temperatura media	14.5
38082	7	Sololá	701	Sololá	3	Barraneche	7	Julio	2023-07-18T00:00:00	2024-11-06T08:00:00	4	Temperatura máxima	14.5
38083	7	Sololá	701	Sololá	3	Barraneche	7	Julio	2023-07-18T00:00:00	2024-11-06T08:00:00	3	Temperatura mínima	13.6
38084	7	Sololá	701	Sololá	3	Barraneche	7	Julio	2023-07-18T00:00:00	2024-11-06T08:00:00	5	Humedad	62
38085	7	Sololá	701	Sololá	3	Barraneche	7	Julio	2023-07-18T00:00:00	2024-11-06T08:00:00	6	Velocidad del viento	17.7
38086	7	Sololá	701	Sololá	3	Barraneche	7	Julio	2023-07-18T00:00:00	2024-11-06T08:00:00	7	Dirección del viento	17.7
38087	7	Sololá	701	Sololá	3	Barraneche	7	Julio	2023-07-18T00:00:00	2024-11-06T08:00:00	1	Precipitación	0
38088	7	Sololá	701	Sololá	3	Barraneche	7	Julio	2023-07-18T00:00:00	2024-11-06T08:00:00	8	Radiación solar	182
38089	7	Sololá	701	Sololá	3	Barraneche	7	Julio	2023-07-18T00:00:00	2024-11-06T09:00:00	2	Temperatura media	16.1
38090	7	Sololá	701	Sololá	3	Barraneche	7	Julio	2023-07-18T00:00:00	2024-11-06T09:00:00	4	Temperatura máxima	16.1
38091	7	Sololá	701	Sololá	3	Barraneche	7	Julio	2023-07-18T00:00:00	2024-11-06T09:00:00	3	Temperatura mínima	14.5
38092	7	Sololá	701	Sololá	3	Barraneche	7	Julio	2023-07-18T00:00:00	2024-11-06T09:00:00	5	Humedad	57
38093	7	Sololá	701	Sololá	3	Barraneche	7	Julio	2023-07-18T00:00:00	2024-11-06T09:00:00	6	Velocidad del viento	20.9
38094	7	Sololá	701	Sololá	3	Barraneche	7	Julio	2023-07-18T00:00:00	2024-11-06T09:00:00	7	Dirección del viento	20.92
38095	7	Sololá	701	Sololá	3	Barraneche	7	Julio	2023-07-18T00:00:00	2024-11-06T09:00:00	1	Precipitación	0
38096	7	Sololá	701	Sololá	3	Barraneche	7	Julio	2023-07-18T00:00:00	2024-11-06T09:00:00	8	Radiación solar	593
38097	7	Sololá	701	Sololá	3	Barraneche	7	Julio	2023-07-18T00:00:00	2024-11-06T10:00:00	2	Temperatura media	16.9
38098	7	Sololá	701	Sololá	3	Barraneche	7	Julio	2023-07-18T00:00:00	2024-11-06T10:00:00	4	Temperatura máxima	17.1
38099	7	Sololá	701	Sololá	3	Barraneche	7	Julio	2023-07-18T00:00:00	2024-11-06T10:00:00	3	Temperatura mínima	16.1
38100	7	Sololá	701	Sololá	3	Barraneche	7	Julio	2023-07-18T00:00:00	2024-11-06T10:00:00	5	Humedad	50
38101	7	Sololá	701	Sololá	3	Barraneche	7	Julio	2023-07-18T00:00:00	2024-11-06T10:00:00	6	Velocidad del viento	19.3
38102	7	Sololá	701	Sololá	3	Barraneche	7	Julio	2023-07-18T00:00:00	2024-11-06T10:00:00	7	Dirección del viento	19.31
38103	7	Sololá	701	Sololá	3	Barraneche	7	Julio	2023-07-18T00:00:00	2024-11-06T10:00:00	1	Precipitación	0
38104	7	Sololá	701	Sololá	3	Barraneche	7	Julio	2023-07-18T00:00:00	2024-11-06T10:00:00	8	Radiación solar	786
38105	7	Sololá	701	Sololá	3	Barraneche	7	Julio	2023-07-18T00:00:00	2024-11-06T11:00:00	2	Temperatura media	17.8
38106	7	Sololá	701	Sololá	3	Barraneche	7	Julio	2023-07-18T00:00:00	2024-11-06T11:00:00	4	Temperatura máxima	17.8
38107	7	Sololá	701	Sololá	3	Barraneche	7	Julio	2023-07-18T00:00:00	2024-11-06T11:00:00	3	Temperatura mínima	16.9
38108	7	Sololá	701	Sololá	3	Barraneche	7	Julio	2023-07-18T00:00:00	2024-11-06T11:00:00	5	Humedad	49
38109	7	Sololá	701	Sololá	3	Barraneche	7	Julio	2023-07-18T00:00:00	2024-11-06T11:00:00	6	Velocidad del viento	17.7
38110	7	Sololá	701	Sololá	3	Barraneche	7	Julio	2023-07-18T00:00:00	2024-11-06T11:00:00	7	Dirección del viento	17.7
38111	7	Sololá	701	Sololá	3	Barraneche	7	Julio	2023-07-18T00:00:00	2024-11-06T11:00:00	1	Precipitación	0
38112	7	Sololá	701	Sololá	3	Barraneche	7	Julio	2023-07-18T00:00:00	2024-11-06T11:00:00	8	Radiación solar	926
38113	7	Sololá	701	Sololá	3	Barraneche	7	Julio	2023-07-18T00:00:00	2024-11-06T12:00:00	2	Temperatura media	17.9
38114	7	Sololá	701	Sololá	3	Barraneche	7	Julio	2023-07-18T00:00:00	2024-11-06T12:00:00	4	Temperatura máxima	18.3
38115	7	Sololá	701	Sololá	3	Barraneche	7	Julio	2023-07-18T00:00:00	2024-11-06T12:00:00	3	Temperatura mínima	17.7
38116	7	Sololá	701	Sololá	3	Barraneche	7	Julio	2023-07-18T00:00:00	2024-11-06T12:00:00	5	Humedad	48
38117	7	Sololá	701	Sololá	3	Barraneche	7	Julio	2023-07-18T00:00:00	2024-11-06T12:00:00	6	Velocidad del viento	14.5
38118	7	Sololá	701	Sololá	3	Barraneche	7	Julio	2023-07-18T00:00:00	2024-11-06T12:00:00	7	Dirección del viento	14.48
38119	7	Sololá	701	Sololá	3	Barraneche	7	Julio	2023-07-18T00:00:00	2024-11-06T12:00:00	1	Precipitación	0
38120	7	Sololá	701	Sololá	3	Barraneche	7	Julio	2023-07-18T00:00:00	2024-11-06T12:00:00	8	Radiación solar	1017
38121	7	Sololá	701	Sololá	3	Barraneche	7	Julio	2023-07-18T00:00:00	2024-11-06T13:00:00	2	Temperatura media	18.6
38122	7	Sololá	701	Sololá	3	Barraneche	7	Julio	2023-07-18T00:00:00	2024-11-06T13:00:00	4	Temperatura máxima	18.6
38123	7	Sololá	701	Sololá	3	Barraneche	7	Julio	2023-07-18T00:00:00	2024-11-06T13:00:00	3	Temperatura mínima	18
38124	7	Sololá	701	Sololá	3	Barraneche	7	Julio	2023-07-18T00:00:00	2024-11-06T13:00:00	5	Humedad	45
38125	7	Sololá	701	Sololá	3	Barraneche	7	Julio	2023-07-18T00:00:00	2024-11-06T13:00:00	6	Velocidad del viento	14.5
38126	7	Sololá	701	Sololá	3	Barraneche	7	Julio	2023-07-18T00:00:00	2024-11-06T13:00:00	7	Dirección del viento	14.48
38127	7	Sololá	701	Sololá	3	Barraneche	7	Julio	2023-07-18T00:00:00	2024-11-06T13:00:00	1	Precipitación	0
38128	7	Sololá	701	Sololá	3	Barraneche	7	Julio	2023-07-18T00:00:00	2024-11-06T13:00:00	8	Radiación solar	1075
38129	7	Sololá	701	Sololá	3	Barraneche	7	Julio	2023-07-18T00:00:00	2024-11-06T14:00:00	2	Temperatura media	19.2
38130	7	Sololá	701	Sololá	3	Barraneche	7	Julio	2023-07-18T00:00:00	2024-11-06T14:00:00	4	Temperatura máxima	19.2
38131	7	Sololá	701	Sololá	3	Barraneche	7	Julio	2023-07-18T00:00:00	2024-11-06T14:00:00	3	Temperatura mínima	18.6
38132	7	Sololá	701	Sololá	3	Barraneche	7	Julio	2023-07-18T00:00:00	2024-11-06T14:00:00	5	Humedad	44
38133	7	Sololá	701	Sololá	3	Barraneche	7	Julio	2023-07-18T00:00:00	2024-11-06T14:00:00	6	Velocidad del viento	14.5
38134	7	Sololá	701	Sololá	3	Barraneche	7	Julio	2023-07-18T00:00:00	2024-11-06T14:00:00	7	Dirección del viento	14.48
38135	7	Sololá	701	Sololá	3	Barraneche	7	Julio	2023-07-18T00:00:00	2024-11-06T14:00:00	1	Precipitación	0
38136	7	Sololá	701	Sololá	3	Barraneche	7	Julio	2023-07-18T00:00:00	2024-11-06T14:00:00	8	Radiación solar	991
38137	7	Sololá	701	Sololá	3	Barraneche	7	Julio	2023-07-18T00:00:00	2024-11-06T15:00:00	2	Temperatura media	18.7
38138	7	Sololá	701	Sololá	3	Barraneche	7	Julio	2023-07-18T00:00:00	2024-11-06T15:00:00	4	Temperatura máxima	19.3
38139	7	Sololá	701	Sololá	3	Barraneche	7	Julio	2023-07-18T00:00:00	2024-11-06T15:00:00	3	Temperatura mínima	18.2
38140	7	Sololá	701	Sololá	3	Barraneche	7	Julio	2023-07-18T00:00:00	2024-11-06T15:00:00	5	Humedad	45
38141	7	Sololá	701	Sololá	3	Barraneche	7	Julio	2023-07-18T00:00:00	2024-11-06T15:00:00	6	Velocidad del viento	14.5
38142	7	Sololá	701	Sololá	3	Barraneche	7	Julio	2023-07-18T00:00:00	2024-11-06T15:00:00	7	Dirección del viento	14.48
38143	7	Sololá	701	Sololá	3	Barraneche	7	Julio	2023-07-18T00:00:00	2024-11-06T15:00:00	1	Precipitación	0
38144	7	Sololá	701	Sololá	3	Barraneche	7	Julio	2023-07-18T00:00:00	2024-11-06T15:00:00	8	Radiación solar	698
38145	7	Sololá	701	Sololá	3	Barraneche	7	Julio	2023-07-18T00:00:00	2024-11-06T16:00:00	2	Temperatura media	18.9
38146	7	Sololá	701	Sololá	3	Barraneche	7	Julio	2023-07-18T00:00:00	2024-11-06T16:00:00	4	Temperatura máxima	19.1
38147	7	Sololá	701	Sololá	3	Barraneche	7	Julio	2023-07-18T00:00:00	2024-11-06T16:00:00	3	Temperatura mínima	18
38148	7	Sololá	701	Sololá	3	Barraneche	7	Julio	2023-07-18T00:00:00	2024-11-06T16:00:00	5	Humedad	44
38149	7	Sololá	701	Sololá	3	Barraneche	7	Julio	2023-07-18T00:00:00	2024-11-06T16:00:00	6	Velocidad del viento	11.3
38150	7	Sololá	701	Sololá	3	Barraneche	7	Julio	2023-07-18T00:00:00	2024-11-06T16:00:00	7	Dirección del viento	11.27
38151	7	Sololá	701	Sololá	3	Barraneche	7	Julio	2023-07-18T00:00:00	2024-11-06T16:00:00	1	Precipitación	0
38152	7	Sololá	701	Sololá	3	Barraneche	7	Julio	2023-07-18T00:00:00	2024-11-06T16:00:00	8	Radiación solar	557
38153	7	Sololá	701	Sololá	3	Barraneche	7	Julio	2023-07-18T00:00:00	2024-11-06T17:00:00	2	Temperatura media	17.3
38154	7	Sololá	701	Sololá	3	Barraneche	7	Julio	2023-07-18T00:00:00	2024-11-06T17:00:00	4	Temperatura máxima	18.9
38155	7	Sololá	701	Sololá	3	Barraneche	7	Julio	2023-07-18T00:00:00	2024-11-06T17:00:00	3	Temperatura mínima	17
38156	7	Sololá	701	Sololá	3	Barraneche	7	Julio	2023-07-18T00:00:00	2024-11-06T17:00:00	5	Humedad	51
38157	7	Sololá	701	Sololá	3	Barraneche	7	Julio	2023-07-18T00:00:00	2024-11-06T17:00:00	6	Velocidad del viento	11.3
38158	7	Sololá	701	Sololá	3	Barraneche	7	Julio	2023-07-18T00:00:00	2024-11-06T17:00:00	7	Dirección del viento	11.27
38159	7	Sololá	701	Sololá	3	Barraneche	7	Julio	2023-07-18T00:00:00	2024-11-06T17:00:00	1	Precipitación	0
38160	7	Sololá	701	Sololá	3	Barraneche	7	Julio	2023-07-18T00:00:00	2024-11-06T17:00:00	8	Radiación solar	209
38161	7	Sololá	701	Sololá	3	Barraneche	7	Julio	2023-07-18T00:00:00	2024-11-06T18:00:00	2	Temperatura media	16.7
38162	7	Sololá	701	Sololá	3	Barraneche	7	Julio	2023-07-18T00:00:00	2024-11-06T18:00:00	4	Temperatura máxima	17.3
38163	7	Sololá	701	Sololá	3	Barraneche	7	Julio	2023-07-18T00:00:00	2024-11-06T18:00:00	3	Temperatura mínima	16.7
38164	7	Sololá	701	Sololá	3	Barraneche	7	Julio	2023-07-18T00:00:00	2024-11-06T18:00:00	5	Humedad	53
38165	7	Sololá	701	Sololá	3	Barraneche	7	Julio	2023-07-18T00:00:00	2024-11-06T18:00:00	6	Velocidad del viento	8
38166	7	Sololá	701	Sololá	3	Barraneche	7	Julio	2023-07-18T00:00:00	2024-11-06T18:00:00	7	Dirección del viento	8.05
38167	7	Sololá	701	Sololá	3	Barraneche	7	Julio	2023-07-18T00:00:00	2024-11-06T18:00:00	1	Precipitación	0
38168	7	Sololá	701	Sololá	3	Barraneche	7	Julio	2023-07-18T00:00:00	2024-11-06T18:00:00	8	Radiación solar	108
38169	7	Sololá	701	Sololá	3	Barraneche	7	Julio	2023-07-18T00:00:00	2024-11-06T19:00:00	2	Temperatura media	15.4
38170	7	Sololá	701	Sololá	3	Barraneche	7	Julio	2023-07-18T00:00:00	2024-11-06T19:00:00	4	Temperatura máxima	16.7
38171	7	Sololá	701	Sololá	3	Barraneche	7	Julio	2023-07-18T00:00:00	2024-11-06T19:00:00	3	Temperatura mínima	15.4
38172	7	Sololá	701	Sololá	3	Barraneche	7	Julio	2023-07-18T00:00:00	2024-11-06T19:00:00	5	Humedad	60
38173	7	Sololá	701	Sololá	3	Barraneche	7	Julio	2023-07-18T00:00:00	2024-11-06T19:00:00	6	Velocidad del viento	8
38174	7	Sololá	701	Sololá	3	Barraneche	7	Julio	2023-07-18T00:00:00	2024-11-06T19:00:00	7	Dirección del viento	8.05
38175	7	Sololá	701	Sololá	3	Barraneche	7	Julio	2023-07-18T00:00:00	2024-11-06T19:00:00	1	Precipitación	0
38176	7	Sololá	701	Sololá	3	Barraneche	7	Julio	2023-07-18T00:00:00	2024-11-06T19:00:00	8	Radiación solar	0
38177	7	Sololá	701	Sololá	3	Barraneche	7	Julio	2023-07-18T00:00:00	2024-11-06T20:00:00	2	Temperatura media	14.6
38178	7	Sololá	701	Sololá	3	Barraneche	7	Julio	2023-07-18T00:00:00	2024-11-06T20:00:00	4	Temperatura máxima	15.4
38179	7	Sololá	701	Sololá	3	Barraneche	7	Julio	2023-07-18T00:00:00	2024-11-06T20:00:00	3	Temperatura mínima	14.5
38180	7	Sololá	701	Sololá	3	Barraneche	7	Julio	2023-07-18T00:00:00	2024-11-06T20:00:00	5	Humedad	61
38181	7	Sololá	701	Sololá	3	Barraneche	7	Julio	2023-07-18T00:00:00	2024-11-06T20:00:00	6	Velocidad del viento	4.8
38182	7	Sololá	701	Sololá	3	Barraneche	7	Julio	2023-07-18T00:00:00	2024-11-06T20:00:00	7	Dirección del viento	4.83
38183	7	Sololá	701	Sololá	3	Barraneche	7	Julio	2023-07-18T00:00:00	2024-11-06T20:00:00	1	Precipitación	0
38184	7	Sololá	701	Sololá	3	Barraneche	7	Julio	2023-07-18T00:00:00	2024-11-06T20:00:00	8	Radiación solar	0
38185	7	Sololá	701	Sololá	3	Barraneche	7	Julio	2023-07-18T00:00:00	2024-11-06T21:00:00	2	Temperatura media	14.1
38186	7	Sololá	701	Sololá	3	Barraneche	7	Julio	2023-07-18T00:00:00	2024-11-06T21:00:00	4	Temperatura máxima	14.6
38187	7	Sololá	701	Sololá	3	Barraneche	7	Julio	2023-07-18T00:00:00	2024-11-06T21:00:00	3	Temperatura mínima	14.1
38188	7	Sololá	701	Sololá	3	Barraneche	7	Julio	2023-07-18T00:00:00	2024-11-06T21:00:00	5	Humedad	63
38189	7	Sololá	701	Sololá	3	Barraneche	7	Julio	2023-07-18T00:00:00	2024-11-06T21:00:00	6	Velocidad del viento	4.8
38190	7	Sololá	701	Sololá	3	Barraneche	7	Julio	2023-07-18T00:00:00	2024-11-06T21:00:00	7	Dirección del viento	4.83
38191	7	Sololá	701	Sololá	3	Barraneche	7	Julio	2023-07-18T00:00:00	2024-11-06T21:00:00	1	Precipitación	0
38192	7	Sololá	701	Sololá	3	Barraneche	7	Julio	2023-07-18T00:00:00	2024-11-06T21:00:00	8	Radiación solar	0
38193	7	Sololá	701	Sololá	3	Barraneche	7	Julio	2023-07-18T00:00:00	2024-11-06T22:00:00	2	Temperatura media	13.8
38194	7	Sololá	701	Sololá	3	Barraneche	7	Julio	2023-07-18T00:00:00	2024-11-06T22:00:00	4	Temperatura máxima	14.1
38195	7	Sololá	701	Sololá	3	Barraneche	7	Julio	2023-07-18T00:00:00	2024-11-06T22:00:00	3	Temperatura mínima	13.6
38196	7	Sololá	701	Sololá	3	Barraneche	7	Julio	2023-07-18T00:00:00	2024-11-06T22:00:00	5	Humedad	58
38197	7	Sololá	701	Sololá	3	Barraneche	7	Julio	2023-07-18T00:00:00	2024-11-06T22:00:00	6	Velocidad del viento	8
38198	7	Sololá	701	Sololá	3	Barraneche	7	Julio	2023-07-18T00:00:00	2024-11-06T22:00:00	7	Dirección del viento	8.05
38199	7	Sololá	701	Sololá	3	Barraneche	7	Julio	2023-07-18T00:00:00	2024-11-06T22:00:00	1	Precipitación	0
38200	7	Sololá	701	Sololá	3	Barraneche	7	Julio	2023-07-18T00:00:00	2024-11-06T22:00:00	8	Radiación solar	0
38201	7	Sololá	701	Sololá	3	Barraneche	7	Julio	2023-07-18T00:00:00	2024-11-06T23:00:00	2	Temperatura media	13.7
38202	7	Sololá	701	Sololá	3	Barraneche	7	Julio	2023-07-18T00:00:00	2024-11-06T23:00:00	4	Temperatura máxima	13.8
38203	7	Sololá	701	Sololá	3	Barraneche	7	Julio	2023-07-18T00:00:00	2024-11-06T23:00:00	3	Temperatura mínima	12.8
38204	7	Sololá	701	Sololá	3	Barraneche	7	Julio	2023-07-18T00:00:00	2024-11-06T23:00:00	5	Humedad	61
38205	7	Sololá	701	Sololá	3	Barraneche	7	Julio	2023-07-18T00:00:00	2024-11-06T23:00:00	6	Velocidad del viento	8
38206	7	Sololá	701	Sololá	3	Barraneche	7	Julio	2023-07-18T00:00:00	2024-11-06T23:00:00	7	Dirección del viento	8.05
38207	7	Sololá	701	Sololá	3	Barraneche	7	Julio	2023-07-18T00:00:00	2024-11-06T23:00:00	1	Precipitación	0
38208	7	Sololá	701	Sololá	3	Barraneche	7	Julio	2023-07-18T00:00:00	2024-11-06T23:00:00	8	Radiación solar	0
38209	7	Sololá	701	Sololá	3	Barraneche	7	Julio	2023-07-19T00:00:00	2024-11-06T00:00:00	2	Temperatura media	13.8
38210	7	Sololá	701	Sololá	3	Barraneche	7	Julio	2023-07-19T00:00:00	2024-11-06T00:00:00	4	Temperatura máxima	14
38211	7	Sololá	701	Sololá	3	Barraneche	7	Julio	2023-07-19T00:00:00	2024-11-06T00:00:00	3	Temperatura mínima	13.6
38212	7	Sololá	701	Sololá	3	Barraneche	7	Julio	2023-07-19T00:00:00	2024-11-06T00:00:00	5	Humedad	62
38213	7	Sololá	701	Sololá	3	Barraneche	7	Julio	2023-07-19T00:00:00	2024-11-06T00:00:00	6	Velocidad del viento	9.7
38214	7	Sololá	701	Sololá	3	Barraneche	7	Julio	2023-07-19T00:00:00	2024-11-06T00:00:00	7	Dirección del viento	9.66
38215	7	Sololá	701	Sololá	3	Barraneche	7	Julio	2023-07-19T00:00:00	2024-11-06T00:00:00	1	Precipitación	0
38216	7	Sololá	701	Sololá	3	Barraneche	7	Julio	2023-07-19T00:00:00	2024-11-06T00:00:00	8	Radiación solar	0
38217	7	Sololá	701	Sololá	3	Barraneche	7	Julio	2023-07-19T00:00:00	2024-11-06T01:00:00	2	Temperatura media	13.6
38218	7	Sololá	701	Sololá	3	Barraneche	7	Julio	2023-07-19T00:00:00	2024-11-06T01:00:00	4	Temperatura máxima	13.8
38219	7	Sololá	701	Sololá	3	Barraneche	7	Julio	2023-07-19T00:00:00	2024-11-06T01:00:00	3	Temperatura mínima	13.3
38220	7	Sololá	701	Sololá	3	Barraneche	7	Julio	2023-07-19T00:00:00	2024-11-06T01:00:00	5	Humedad	62
38221	7	Sololá	701	Sololá	3	Barraneche	7	Julio	2023-07-19T00:00:00	2024-11-06T01:00:00	6	Velocidad del viento	17.7
38222	7	Sololá	701	Sololá	3	Barraneche	7	Julio	2023-07-19T00:00:00	2024-11-06T01:00:00	7	Dirección del viento	17.7
38223	7	Sololá	701	Sololá	3	Barraneche	7	Julio	2023-07-19T00:00:00	2024-11-06T01:00:00	1	Precipitación	0
38224	7	Sololá	701	Sololá	3	Barraneche	7	Julio	2023-07-19T00:00:00	2024-11-06T01:00:00	8	Radiación solar	0
38225	7	Sololá	701	Sololá	3	Barraneche	7	Julio	2023-07-19T00:00:00	2024-11-06T02:00:00	2	Temperatura media	13.1
38226	7	Sololá	701	Sololá	3	Barraneche	7	Julio	2023-07-19T00:00:00	2024-11-06T02:00:00	4	Temperatura máxima	13.6
38227	7	Sololá	701	Sololá	3	Barraneche	7	Julio	2023-07-19T00:00:00	2024-11-06T02:00:00	3	Temperatura mínima	13.1
38228	7	Sololá	701	Sololá	3	Barraneche	7	Julio	2023-07-19T00:00:00	2024-11-06T02:00:00	5	Humedad	44
38229	7	Sololá	701	Sololá	3	Barraneche	7	Julio	2023-07-19T00:00:00	2024-11-06T02:00:00	6	Velocidad del viento	24.1
38230	7	Sololá	701	Sololá	3	Barraneche	7	Julio	2023-07-19T00:00:00	2024-11-06T02:00:00	7	Dirección del viento	24.14
38231	7	Sololá	701	Sololá	3	Barraneche	7	Julio	2023-07-19T00:00:00	2024-11-06T02:00:00	1	Precipitación	0
38232	7	Sololá	701	Sololá	3	Barraneche	7	Julio	2023-07-19T00:00:00	2024-11-06T02:00:00	8	Radiación solar	0
38233	7	Sololá	701	Sololá	3	Barraneche	7	Julio	2023-07-19T00:00:00	2024-11-06T03:00:00	2	Temperatura media	13.9
38234	7	Sololá	701	Sololá	3	Barraneche	7	Julio	2023-07-19T00:00:00	2024-11-06T03:00:00	4	Temperatura máxima	13.9
38235	7	Sololá	701	Sololá	3	Barraneche	7	Julio	2023-07-19T00:00:00	2024-11-06T03:00:00	3	Temperatura mínima	13.1
38236	7	Sololá	701	Sololá	3	Barraneche	7	Julio	2023-07-19T00:00:00	2024-11-06T03:00:00	5	Humedad	35
38237	7	Sololá	701	Sololá	3	Barraneche	7	Julio	2023-07-19T00:00:00	2024-11-06T03:00:00	6	Velocidad del viento	29
38238	7	Sololá	701	Sololá	3	Barraneche	7	Julio	2023-07-19T00:00:00	2024-11-06T03:00:00	7	Dirección del viento	28.97
38239	7	Sololá	701	Sololá	3	Barraneche	7	Julio	2023-07-19T00:00:00	2024-11-06T03:00:00	1	Precipitación	0
38240	7	Sololá	701	Sololá	3	Barraneche	7	Julio	2023-07-19T00:00:00	2024-11-06T03:00:00	8	Radiación solar	0
38241	7	Sololá	701	Sololá	3	Barraneche	7	Julio	2023-07-19T00:00:00	2024-11-06T04:00:00	2	Temperatura media	13.3
38242	7	Sololá	701	Sololá	3	Barraneche	7	Julio	2023-07-19T00:00:00	2024-11-06T04:00:00	4	Temperatura máxima	14.1
38243	7	Sololá	701	Sololá	3	Barraneche	7	Julio	2023-07-19T00:00:00	2024-11-06T04:00:00	3	Temperatura mínima	13.1
38244	7	Sololá	701	Sololá	3	Barraneche	7	Julio	2023-07-19T00:00:00	2024-11-06T04:00:00	5	Humedad	41
38245	7	Sololá	701	Sololá	3	Barraneche	7	Julio	2023-07-19T00:00:00	2024-11-06T04:00:00	6	Velocidad del viento	30.6
38246	7	Sololá	701	Sololá	3	Barraneche	7	Julio	2023-07-19T00:00:00	2024-11-06T04:00:00	7	Dirección del viento	30.58
38247	7	Sololá	701	Sololá	3	Barraneche	7	Julio	2023-07-19T00:00:00	2024-11-06T04:00:00	1	Precipitación	0
38248	7	Sololá	701	Sololá	3	Barraneche	7	Julio	2023-07-19T00:00:00	2024-11-06T04:00:00	8	Radiación solar	0
38249	7	Sololá	701	Sololá	3	Barraneche	7	Julio	2023-07-19T00:00:00	2024-11-06T05:00:00	2	Temperatura media	12.8
38250	7	Sololá	701	Sololá	3	Barraneche	7	Julio	2023-07-19T00:00:00	2024-11-06T05:00:00	4	Temperatura máxima	13.6
38251	7	Sololá	701	Sololá	3	Barraneche	7	Julio	2023-07-19T00:00:00	2024-11-06T05:00:00	3	Temperatura mínima	12.6
38252	7	Sololá	701	Sololá	3	Barraneche	7	Julio	2023-07-19T00:00:00	2024-11-06T05:00:00	5	Humedad	49
38253	7	Sololá	701	Sololá	3	Barraneche	7	Julio	2023-07-19T00:00:00	2024-11-06T05:00:00	6	Velocidad del viento	29
38254	7	Sololá	701	Sololá	3	Barraneche	7	Julio	2023-07-19T00:00:00	2024-11-06T05:00:00	7	Dirección del viento	28.97
38255	7	Sololá	701	Sololá	3	Barraneche	7	Julio	2023-07-19T00:00:00	2024-11-06T05:00:00	1	Precipitación	0
38256	7	Sololá	701	Sololá	3	Barraneche	7	Julio	2023-07-19T00:00:00	2024-11-06T05:00:00	8	Radiación solar	0
38257	7	Sololá	701	Sololá	3	Barraneche	7	Julio	2023-07-19T00:00:00	2024-11-06T06:00:00	2	Temperatura media	13.1
38258	7	Sololá	701	Sololá	3	Barraneche	7	Julio	2023-07-19T00:00:00	2024-11-06T06:00:00	4	Temperatura máxima	13.6
38259	7	Sololá	701	Sololá	3	Barraneche	7	Julio	2023-07-19T00:00:00	2024-11-06T06:00:00	3	Temperatura mínima	12.8
38260	7	Sololá	701	Sololá	3	Barraneche	7	Julio	2023-07-19T00:00:00	2024-11-06T06:00:00	5	Humedad	62
38261	7	Sololá	701	Sololá	3	Barraneche	7	Julio	2023-07-19T00:00:00	2024-11-06T06:00:00	6	Velocidad del viento	30.6
38262	7	Sololá	701	Sololá	3	Barraneche	7	Julio	2023-07-19T00:00:00	2024-11-06T06:00:00	7	Dirección del viento	30.58
38263	7	Sololá	701	Sololá	3	Barraneche	7	Julio	2023-07-19T00:00:00	2024-11-06T06:00:00	1	Precipitación	0
38264	7	Sololá	701	Sololá	3	Barraneche	7	Julio	2023-07-19T00:00:00	2024-11-06T06:00:00	8	Radiación solar	2
38265	7	Sololá	701	Sololá	3	Barraneche	7	Julio	2023-07-19T00:00:00	2024-11-06T07:00:00	2	Temperatura media	13.3
38266	7	Sololá	701	Sololá	3	Barraneche	7	Julio	2023-07-19T00:00:00	2024-11-06T07:00:00	4	Temperatura máxima	13.4
38267	7	Sololá	701	Sololá	3	Barraneche	7	Julio	2023-07-19T00:00:00	2024-11-06T07:00:00	3	Temperatura mínima	12.7
38268	7	Sololá	701	Sololá	3	Barraneche	7	Julio	2023-07-19T00:00:00	2024-11-06T07:00:00	5	Humedad	64
38269	7	Sololá	701	Sololá	3	Barraneche	7	Julio	2023-07-19T00:00:00	2024-11-06T07:00:00	6	Velocidad del viento	32.2
38270	7	Sololá	701	Sololá	3	Barraneche	7	Julio	2023-07-19T00:00:00	2024-11-06T07:00:00	7	Dirección del viento	32.19
38271	7	Sololá	701	Sololá	3	Barraneche	7	Julio	2023-07-19T00:00:00	2024-11-06T07:00:00	1	Precipitación	0
38272	7	Sololá	701	Sololá	3	Barraneche	7	Julio	2023-07-19T00:00:00	2024-11-06T07:00:00	8	Radiación solar	76
38273	7	Sololá	701	Sololá	3	Barraneche	7	Julio	2023-07-19T00:00:00	2024-11-06T08:00:00	2	Temperatura media	13
38274	7	Sololá	701	Sololá	3	Barraneche	7	Julio	2023-07-19T00:00:00	2024-11-06T08:00:00	4	Temperatura máxima	13.6
38275	7	Sololá	701	Sololá	3	Barraneche	7	Julio	2023-07-19T00:00:00	2024-11-06T08:00:00	3	Temperatura mínima	12.7
38276	7	Sololá	701	Sololá	3	Barraneche	7	Julio	2023-07-19T00:00:00	2024-11-06T08:00:00	5	Humedad	68
38277	7	Sololá	701	Sololá	3	Barraneche	7	Julio	2023-07-19T00:00:00	2024-11-06T08:00:00	6	Velocidad del viento	33.8
38278	7	Sololá	701	Sololá	3	Barraneche	7	Julio	2023-07-19T00:00:00	2024-11-06T08:00:00	7	Dirección del viento	33.8
38279	7	Sololá	701	Sololá	3	Barraneche	7	Julio	2023-07-19T00:00:00	2024-11-06T08:00:00	1	Precipitación	0
38280	7	Sololá	701	Sololá	3	Barraneche	7	Julio	2023-07-19T00:00:00	2024-11-06T08:00:00	8	Radiación solar	188
38281	7	Sololá	701	Sololá	3	Barraneche	7	Julio	2023-07-19T00:00:00	2024-11-06T09:00:00	2	Temperatura media	14.7
38282	7	Sololá	701	Sololá	3	Barraneche	7	Julio	2023-07-19T00:00:00	2024-11-06T09:00:00	4	Temperatura máxima	15.3
38283	7	Sololá	701	Sololá	3	Barraneche	7	Julio	2023-07-19T00:00:00	2024-11-06T09:00:00	3	Temperatura mínima	13.1
38284	7	Sololá	701	Sololá	3	Barraneche	7	Julio	2023-07-19T00:00:00	2024-11-06T09:00:00	5	Humedad	61
38285	7	Sololá	701	Sololá	3	Barraneche	7	Julio	2023-07-19T00:00:00	2024-11-06T09:00:00	6	Velocidad del viento	29
38286	7	Sololá	701	Sololá	3	Barraneche	7	Julio	2023-07-19T00:00:00	2024-11-06T09:00:00	7	Dirección del viento	28.97
38287	7	Sololá	701	Sololá	3	Barraneche	7	Julio	2023-07-19T00:00:00	2024-11-06T09:00:00	1	Precipitación	0
38288	7	Sololá	701	Sololá	3	Barraneche	7	Julio	2023-07-19T00:00:00	2024-11-06T09:00:00	8	Radiación solar	443
38289	7	Sololá	701	Sololá	3	Barraneche	7	Julio	2023-07-19T00:00:00	2024-11-06T10:00:00	2	Temperatura media	15.9
38290	7	Sololá	701	Sololá	3	Barraneche	7	Julio	2023-07-19T00:00:00	2024-11-06T10:00:00	4	Temperatura máxima	15.9
38291	7	Sololá	701	Sololá	3	Barraneche	7	Julio	2023-07-19T00:00:00	2024-11-06T10:00:00	3	Temperatura mínima	14.6
38292	7	Sololá	701	Sololá	3	Barraneche	7	Julio	2023-07-19T00:00:00	2024-11-06T10:00:00	5	Humedad	55
38293	7	Sololá	701	Sololá	3	Barraneche	7	Julio	2023-07-19T00:00:00	2024-11-06T10:00:00	6	Velocidad del viento	25.7
38294	7	Sololá	701	Sololá	3	Barraneche	7	Julio	2023-07-19T00:00:00	2024-11-06T10:00:00	7	Dirección del viento	25.75
38295	7	Sololá	701	Sololá	3	Barraneche	7	Julio	2023-07-19T00:00:00	2024-11-06T10:00:00	1	Precipitación	0
38296	7	Sololá	701	Sololá	3	Barraneche	7	Julio	2023-07-19T00:00:00	2024-11-06T10:00:00	8	Radiación solar	587
38297	7	Sololá	701	Sololá	3	Barraneche	7	Julio	2023-07-19T00:00:00	2024-11-06T11:00:00	2	Temperatura media	17.3
38298	7	Sololá	701	Sololá	3	Barraneche	7	Julio	2023-07-19T00:00:00	2024-11-06T11:00:00	4	Temperatura máxima	17.3
38299	7	Sololá	701	Sololá	3	Barraneche	7	Julio	2023-07-19T00:00:00	2024-11-06T11:00:00	3	Temperatura mínima	15.8
38300	7	Sololá	701	Sololá	3	Barraneche	7	Julio	2023-07-19T00:00:00	2024-11-06T11:00:00	5	Humedad	52
38301	7	Sololá	701	Sololá	3	Barraneche	7	Julio	2023-07-19T00:00:00	2024-11-06T11:00:00	6	Velocidad del viento	22.5
38302	7	Sololá	701	Sololá	3	Barraneche	7	Julio	2023-07-19T00:00:00	2024-11-06T11:00:00	7	Dirección del viento	22.53
38303	7	Sololá	701	Sololá	3	Barraneche	7	Julio	2023-07-19T00:00:00	2024-11-06T11:00:00	1	Precipitación	0
38304	7	Sololá	701	Sololá	3	Barraneche	7	Julio	2023-07-19T00:00:00	2024-11-06T11:00:00	8	Radiación solar	864
38305	7	Sololá	701	Sololá	3	Barraneche	7	Julio	2023-07-19T00:00:00	2024-11-06T12:00:00	2	Temperatura media	18.2
38306	7	Sololá	701	Sololá	3	Barraneche	7	Julio	2023-07-19T00:00:00	2024-11-06T12:00:00	4	Temperatura máxima	18.3
38307	7	Sololá	701	Sololá	3	Barraneche	7	Julio	2023-07-19T00:00:00	2024-11-06T12:00:00	3	Temperatura mínima	17.3
38308	7	Sololá	701	Sololá	3	Barraneche	7	Julio	2023-07-19T00:00:00	2024-11-06T12:00:00	5	Humedad	52
38309	7	Sololá	701	Sololá	3	Barraneche	7	Julio	2023-07-19T00:00:00	2024-11-06T12:00:00	6	Velocidad del viento	20.9
38310	7	Sololá	701	Sololá	3	Barraneche	7	Julio	2023-07-19T00:00:00	2024-11-06T12:00:00	7	Dirección del viento	20.92
38311	7	Sololá	701	Sololá	3	Barraneche	7	Julio	2023-07-19T00:00:00	2024-11-06T12:00:00	1	Precipitación	0
38312	7	Sololá	701	Sololá	3	Barraneche	7	Julio	2023-07-19T00:00:00	2024-11-06T12:00:00	8	Radiación solar	1003
38313	7	Sololá	701	Sololá	3	Barraneche	7	Julio	2023-07-19T00:00:00	2024-11-06T13:00:00	2	Temperatura media	19
38314	7	Sololá	701	Sololá	3	Barraneche	7	Julio	2023-07-19T00:00:00	2024-11-06T13:00:00	4	Temperatura máxima	19.1
38315	7	Sololá	701	Sololá	3	Barraneche	7	Julio	2023-07-19T00:00:00	2024-11-06T13:00:00	3	Temperatura mínima	18.1
38316	7	Sololá	701	Sololá	3	Barraneche	7	Julio	2023-07-19T00:00:00	2024-11-06T13:00:00	5	Humedad	51
38317	7	Sololá	701	Sololá	3	Barraneche	7	Julio	2023-07-19T00:00:00	2024-11-06T13:00:00	6	Velocidad del viento	17.7
38318	7	Sololá	701	Sololá	3	Barraneche	7	Julio	2023-07-19T00:00:00	2024-11-06T13:00:00	7	Dirección del viento	17.7
38319	7	Sololá	701	Sololá	3	Barraneche	7	Julio	2023-07-19T00:00:00	2024-11-06T13:00:00	1	Precipitación	0
38320	7	Sololá	701	Sololá	3	Barraneche	7	Julio	2023-07-19T00:00:00	2024-11-06T13:00:00	8	Radiación solar	1015
38321	7	Sololá	701	Sololá	3	Barraneche	7	Julio	2023-07-19T00:00:00	2024-11-06T14:00:00	2	Temperatura media	19.3
38322	7	Sololá	701	Sololá	3	Barraneche	7	Julio	2023-07-19T00:00:00	2024-11-06T14:00:00	4	Temperatura máxima	19.7
38323	7	Sololá	701	Sololá	3	Barraneche	7	Julio	2023-07-19T00:00:00	2024-11-06T14:00:00	3	Temperatura mínima	18.7
38324	7	Sololá	701	Sololá	3	Barraneche	7	Julio	2023-07-19T00:00:00	2024-11-06T14:00:00	5	Humedad	49
38325	7	Sololá	701	Sololá	3	Barraneche	7	Julio	2023-07-19T00:00:00	2024-11-06T14:00:00	6	Velocidad del viento	16.1
38326	7	Sololá	701	Sololá	3	Barraneche	7	Julio	2023-07-19T00:00:00	2024-11-06T14:00:00	7	Dirección del viento	16.09
38327	7	Sololá	701	Sololá	3	Barraneche	7	Julio	2023-07-19T00:00:00	2024-11-06T14:00:00	1	Precipitación	0
38328	7	Sololá	701	Sololá	3	Barraneche	7	Julio	2023-07-19T00:00:00	2024-11-06T14:00:00	8	Radiación solar	958
38329	7	Sololá	701	Sololá	3	Barraneche	7	Julio	2023-07-19T00:00:00	2024-11-06T15:00:00	2	Temperatura media	18.9
38330	7	Sololá	701	Sololá	3	Barraneche	7	Julio	2023-07-19T00:00:00	2024-11-06T15:00:00	4	Temperatura máxima	19.4
38331	7	Sololá	701	Sololá	3	Barraneche	7	Julio	2023-07-19T00:00:00	2024-11-06T15:00:00	3	Temperatura mínima	18.7
38332	7	Sololá	701	Sololá	3	Barraneche	7	Julio	2023-07-19T00:00:00	2024-11-06T15:00:00	5	Humedad	50
38333	7	Sololá	701	Sololá	3	Barraneche	7	Julio	2023-07-19T00:00:00	2024-11-06T15:00:00	6	Velocidad del viento	16.1
38334	7	Sololá	701	Sololá	3	Barraneche	7	Julio	2023-07-19T00:00:00	2024-11-06T15:00:00	7	Dirección del viento	16.09
38335	7	Sololá	701	Sololá	3	Barraneche	7	Julio	2023-07-19T00:00:00	2024-11-06T15:00:00	1	Precipitación	0
38336	7	Sololá	701	Sololá	3	Barraneche	7	Julio	2023-07-19T00:00:00	2024-11-06T15:00:00	8	Radiación solar	844
38337	7	Sololá	701	Sololá	3	Barraneche	7	Julio	2023-07-19T00:00:00	2024-11-06T16:00:00	2	Temperatura media	18.2
38338	7	Sololá	701	Sololá	3	Barraneche	7	Julio	2023-07-19T00:00:00	2024-11-06T16:00:00	4	Temperatura máxima	19.2
38339	7	Sololá	701	Sololá	3	Barraneche	7	Julio	2023-07-19T00:00:00	2024-11-06T16:00:00	3	Temperatura mínima	18.2
38340	7	Sololá	701	Sololá	3	Barraneche	7	Julio	2023-07-19T00:00:00	2024-11-06T16:00:00	5	Humedad	54
38341	7	Sololá	701	Sololá	3	Barraneche	7	Julio	2023-07-19T00:00:00	2024-11-06T16:00:00	6	Velocidad del viento	17.7
38342	7	Sololá	701	Sololá	3	Barraneche	7	Julio	2023-07-19T00:00:00	2024-11-06T16:00:00	7	Dirección del viento	17.7
38343	7	Sololá	701	Sololá	3	Barraneche	7	Julio	2023-07-19T00:00:00	2024-11-06T16:00:00	1	Precipitación	0
38344	7	Sololá	701	Sololá	3	Barraneche	7	Julio	2023-07-19T00:00:00	2024-11-06T16:00:00	8	Radiación solar	736
38345	7	Sololá	701	Sololá	3	Barraneche	7	Julio	2023-07-19T00:00:00	2024-11-06T17:00:00	2	Temperatura media	17.6
38346	7	Sololá	701	Sololá	3	Barraneche	7	Julio	2023-07-19T00:00:00	2024-11-06T17:00:00	4	Temperatura máxima	18.4
38347	7	Sololá	701	Sololá	3	Barraneche	7	Julio	2023-07-19T00:00:00	2024-11-06T17:00:00	3	Temperatura mínima	17.6
38348	7	Sololá	701	Sololá	3	Barraneche	7	Julio	2023-07-19T00:00:00	2024-11-06T17:00:00	5	Humedad	56
38349	7	Sololá	701	Sololá	3	Barraneche	7	Julio	2023-07-19T00:00:00	2024-11-06T17:00:00	6	Velocidad del viento	16.1
38350	7	Sololá	701	Sololá	3	Barraneche	7	Julio	2023-07-19T00:00:00	2024-11-06T17:00:00	7	Dirección del viento	16.09
38351	7	Sololá	701	Sololá	3	Barraneche	7	Julio	2023-07-19T00:00:00	2024-11-06T17:00:00	1	Precipitación	0
38352	7	Sololá	701	Sololá	3	Barraneche	7	Julio	2023-07-19T00:00:00	2024-11-06T17:00:00	8	Radiación solar	431
38353	7	Sololá	701	Sololá	3	Barraneche	7	Julio	2023-07-19T00:00:00	2024-11-06T18:00:00	2	Temperatura media	16
38354	7	Sololá	701	Sololá	3	Barraneche	7	Julio	2023-07-19T00:00:00	2024-11-06T18:00:00	4	Temperatura máxima	17.7
38355	7	Sololá	701	Sololá	3	Barraneche	7	Julio	2023-07-19T00:00:00	2024-11-06T18:00:00	3	Temperatura mínima	16
38356	7	Sololá	701	Sololá	3	Barraneche	7	Julio	2023-07-19T00:00:00	2024-11-06T18:00:00	5	Humedad	61
38357	7	Sololá	701	Sololá	3	Barraneche	7	Julio	2023-07-19T00:00:00	2024-11-06T18:00:00	6	Velocidad del viento	19.3
38358	7	Sololá	701	Sololá	3	Barraneche	7	Julio	2023-07-19T00:00:00	2024-11-06T18:00:00	7	Dirección del viento	19.31
38359	7	Sololá	701	Sololá	3	Barraneche	7	Julio	2023-07-19T00:00:00	2024-11-06T18:00:00	1	Precipitación	0
38360	7	Sololá	701	Sololá	3	Barraneche	7	Julio	2023-07-19T00:00:00	2024-11-06T18:00:00	8	Radiación solar	114
38361	7	Sololá	701	Sololá	3	Barraneche	7	Julio	2023-07-19T00:00:00	2024-11-06T19:00:00	2	Temperatura media	15.9
38362	7	Sololá	701	Sololá	3	Barraneche	7	Julio	2023-07-19T00:00:00	2024-11-06T19:00:00	4	Temperatura máxima	16
38363	7	Sololá	701	Sololá	3	Barraneche	7	Julio	2023-07-19T00:00:00	2024-11-06T19:00:00	3	Temperatura mínima	15.7
38364	7	Sololá	701	Sololá	3	Barraneche	7	Julio	2023-07-19T00:00:00	2024-11-06T19:00:00	5	Humedad	63
38365	7	Sololá	701	Sololá	3	Barraneche	7	Julio	2023-07-19T00:00:00	2024-11-06T19:00:00	6	Velocidad del viento	14.5
38366	7	Sololá	701	Sololá	3	Barraneche	7	Julio	2023-07-19T00:00:00	2024-11-06T19:00:00	7	Dirección del viento	14.48
38367	7	Sololá	701	Sololá	3	Barraneche	7	Julio	2023-07-19T00:00:00	2024-11-06T19:00:00	1	Precipitación	0
38368	7	Sololá	701	Sololá	3	Barraneche	7	Julio	2023-07-19T00:00:00	2024-11-06T19:00:00	8	Radiación solar	0
38369	7	Sololá	701	Sololá	3	Barraneche	7	Julio	2023-07-19T00:00:00	2024-11-06T20:00:00	2	Temperatura media	15.9
38370	7	Sololá	701	Sololá	3	Barraneche	7	Julio	2023-07-19T00:00:00	2024-11-06T20:00:00	4	Temperatura máxima	15.9
38371	7	Sololá	701	Sololá	3	Barraneche	7	Julio	2023-07-19T00:00:00	2024-11-06T20:00:00	3	Temperatura mínima	15.8
38372	7	Sololá	701	Sololá	3	Barraneche	7	Julio	2023-07-19T00:00:00	2024-11-06T20:00:00	5	Humedad	64
38373	7	Sololá	701	Sololá	3	Barraneche	7	Julio	2023-07-19T00:00:00	2024-11-06T20:00:00	6	Velocidad del viento	14.5
38374	7	Sololá	701	Sololá	3	Barraneche	7	Julio	2023-07-19T00:00:00	2024-11-06T20:00:00	7	Dirección del viento	14.48
38375	7	Sololá	701	Sololá	3	Barraneche	7	Julio	2023-07-19T00:00:00	2024-11-06T20:00:00	1	Precipitación	0
38376	7	Sololá	701	Sololá	3	Barraneche	7	Julio	2023-07-19T00:00:00	2024-11-06T20:00:00	8	Radiación solar	0
38377	7	Sololá	701	Sololá	3	Barraneche	7	Julio	2023-07-19T00:00:00	2024-11-06T21:00:00	2	Temperatura media	15.5
38378	7	Sololá	701	Sololá	3	Barraneche	7	Julio	2023-07-19T00:00:00	2024-11-06T21:00:00	4	Temperatura máxima	15.9
38379	7	Sololá	701	Sololá	3	Barraneche	7	Julio	2023-07-19T00:00:00	2024-11-06T21:00:00	3	Temperatura mínima	15.5
38380	7	Sololá	701	Sololá	3	Barraneche	7	Julio	2023-07-19T00:00:00	2024-11-06T21:00:00	5	Humedad	66
38381	7	Sololá	701	Sololá	3	Barraneche	7	Julio	2023-07-19T00:00:00	2024-11-06T21:00:00	6	Velocidad del viento	14.5
38382	7	Sololá	701	Sololá	3	Barraneche	7	Julio	2023-07-19T00:00:00	2024-11-06T21:00:00	7	Dirección del viento	14.48
38383	7	Sololá	701	Sololá	3	Barraneche	7	Julio	2023-07-19T00:00:00	2024-11-06T21:00:00	1	Precipitación	0
38384	7	Sololá	701	Sololá	3	Barraneche	7	Julio	2023-07-19T00:00:00	2024-11-06T21:00:00	8	Radiación solar	0
38385	7	Sololá	701	Sololá	3	Barraneche	7	Julio	2023-07-19T00:00:00	2024-11-06T22:00:00	2	Temperatura media	15.4
38386	7	Sololá	701	Sololá	3	Barraneche	7	Julio	2023-07-19T00:00:00	2024-11-06T22:00:00	4	Temperatura máxima	15.6
38387	7	Sololá	701	Sololá	3	Barraneche	7	Julio	2023-07-19T00:00:00	2024-11-06T22:00:00	3	Temperatura mínima	15.2
38388	7	Sololá	701	Sololá	3	Barraneche	7	Julio	2023-07-19T00:00:00	2024-11-06T22:00:00	5	Humedad	64
38389	7	Sololá	701	Sololá	3	Barraneche	7	Julio	2023-07-19T00:00:00	2024-11-06T22:00:00	6	Velocidad del viento	11.3
38390	7	Sololá	701	Sololá	3	Barraneche	7	Julio	2023-07-19T00:00:00	2024-11-06T22:00:00	7	Dirección del viento	11.27
38391	7	Sololá	701	Sololá	3	Barraneche	7	Julio	2023-07-19T00:00:00	2024-11-06T22:00:00	1	Precipitación	0
38392	7	Sololá	701	Sololá	3	Barraneche	7	Julio	2023-07-19T00:00:00	2024-11-06T22:00:00	8	Radiación solar	0
38393	7	Sololá	701	Sololá	3	Barraneche	7	Julio	2023-07-19T00:00:00	2024-11-06T23:00:00	2	Temperatura media	14.7
38394	7	Sololá	701	Sololá	3	Barraneche	7	Julio	2023-07-19T00:00:00	2024-11-06T23:00:00	4	Temperatura máxima	15.4
38395	7	Sololá	701	Sololá	3	Barraneche	7	Julio	2023-07-19T00:00:00	2024-11-06T23:00:00	3	Temperatura mínima	14.7
38396	7	Sololá	701	Sololá	3	Barraneche	7	Julio	2023-07-19T00:00:00	2024-11-06T23:00:00	5	Humedad	64
38397	7	Sololá	701	Sololá	3	Barraneche	7	Julio	2023-07-19T00:00:00	2024-11-06T23:00:00	6	Velocidad del viento	9.7
38398	7	Sololá	701	Sololá	3	Barraneche	7	Julio	2023-07-19T00:00:00	2024-11-06T23:00:00	7	Dirección del viento	9.66
38399	7	Sololá	701	Sololá	3	Barraneche	7	Julio	2023-07-19T00:00:00	2024-11-06T23:00:00	1	Precipitación	0
38400	7	Sololá	701	Sololá	3	Barraneche	7	Julio	2023-07-19T00:00:00	2024-11-06T23:00:00	8	Radiación solar	0
38401	7	Sololá	701	Sololá	3	Barraneche	7	Julio	2023-07-20T00:00:00	2024-11-06T00:00:00	2	Temperatura media	13.2
38402	7	Sololá	701	Sololá	3	Barraneche	7	Julio	2023-07-20T00:00:00	2024-11-06T00:00:00	4	Temperatura máxima	14.8
38403	7	Sololá	701	Sololá	3	Barraneche	7	Julio	2023-07-20T00:00:00	2024-11-06T00:00:00	3	Temperatura mínima	12.9
38404	7	Sololá	701	Sololá	3	Barraneche	7	Julio	2023-07-20T00:00:00	2024-11-06T00:00:00	5	Humedad	70
38405	7	Sololá	701	Sololá	3	Barraneche	7	Julio	2023-07-20T00:00:00	2024-11-06T00:00:00	6	Velocidad del viento	3.2
38406	7	Sololá	701	Sololá	3	Barraneche	7	Julio	2023-07-20T00:00:00	2024-11-06T00:00:00	7	Dirección del viento	3.22
38407	7	Sololá	701	Sololá	3	Barraneche	7	Julio	2023-07-20T00:00:00	2024-11-06T00:00:00	1	Precipitación	0
38408	7	Sololá	701	Sololá	3	Barraneche	7	Julio	2023-07-20T00:00:00	2024-11-06T00:00:00	8	Radiación solar	0
38409	7	Sololá	701	Sololá	3	Barraneche	7	Julio	2023-07-20T00:00:00	2024-11-06T01:00:00	2	Temperatura media	14.8
38410	7	Sololá	701	Sololá	3	Barraneche	7	Julio	2023-07-20T00:00:00	2024-11-06T01:00:00	4	Temperatura máxima	14.9
38411	7	Sololá	701	Sololá	3	Barraneche	7	Julio	2023-07-20T00:00:00	2024-11-06T01:00:00	3	Temperatura mínima	13.3
38412	7	Sololá	701	Sololá	3	Barraneche	7	Julio	2023-07-20T00:00:00	2024-11-06T01:00:00	5	Humedad	61
38413	7	Sololá	701	Sololá	3	Barraneche	7	Julio	2023-07-20T00:00:00	2024-11-06T01:00:00	6	Velocidad del viento	6.4
38414	7	Sololá	701	Sololá	3	Barraneche	7	Julio	2023-07-20T00:00:00	2024-11-06T01:00:00	7	Dirección del viento	6.44
38415	7	Sololá	701	Sololá	3	Barraneche	7	Julio	2023-07-20T00:00:00	2024-11-06T01:00:00	1	Precipitación	0
38416	7	Sololá	701	Sololá	3	Barraneche	7	Julio	2023-07-20T00:00:00	2024-11-06T01:00:00	8	Radiación solar	0
38417	7	Sololá	701	Sololá	3	Barraneche	7	Julio	2023-07-20T00:00:00	2024-11-06T02:00:00	2	Temperatura media	14.5
38418	7	Sololá	701	Sololá	3	Barraneche	7	Julio	2023-07-20T00:00:00	2024-11-06T02:00:00	4	Temperatura máxima	14.9
38419	7	Sololá	701	Sololá	3	Barraneche	7	Julio	2023-07-20T00:00:00	2024-11-06T02:00:00	3	Temperatura mínima	14.3
38420	7	Sololá	701	Sololá	3	Barraneche	7	Julio	2023-07-20T00:00:00	2024-11-06T02:00:00	5	Humedad	61
38421	7	Sololá	701	Sololá	3	Barraneche	7	Julio	2023-07-20T00:00:00	2024-11-06T02:00:00	6	Velocidad del viento	6.4
38422	7	Sololá	701	Sololá	3	Barraneche	7	Julio	2023-07-20T00:00:00	2024-11-06T02:00:00	7	Dirección del viento	6.44
38423	7	Sololá	701	Sololá	3	Barraneche	7	Julio	2023-07-20T00:00:00	2024-11-06T02:00:00	1	Precipitación	0
38424	7	Sololá	701	Sololá	3	Barraneche	7	Julio	2023-07-20T00:00:00	2024-11-06T02:00:00	8	Radiación solar	0
38425	7	Sololá	701	Sololá	3	Barraneche	7	Julio	2023-07-20T00:00:00	2024-11-06T03:00:00	2	Temperatura media	15
38426	7	Sololá	701	Sololá	3	Barraneche	7	Julio	2023-07-20T00:00:00	2024-11-06T03:00:00	4	Temperatura máxima	15.1
38427	7	Sololá	701	Sololá	3	Barraneche	7	Julio	2023-07-20T00:00:00	2024-11-06T03:00:00	3	Temperatura mínima	14.5
38428	7	Sololá	701	Sololá	3	Barraneche	7	Julio	2023-07-20T00:00:00	2024-11-06T03:00:00	5	Humedad	62
38429	7	Sololá	701	Sololá	3	Barraneche	7	Julio	2023-07-20T00:00:00	2024-11-06T03:00:00	6	Velocidad del viento	14.5
38430	7	Sololá	701	Sololá	3	Barraneche	7	Julio	2023-07-20T00:00:00	2024-11-06T03:00:00	7	Dirección del viento	14.48
38431	7	Sololá	701	Sololá	3	Barraneche	7	Julio	2023-07-20T00:00:00	2024-11-06T03:00:00	1	Precipitación	0
38432	7	Sololá	701	Sololá	3	Barraneche	7	Julio	2023-07-20T00:00:00	2024-11-06T03:00:00	8	Radiación solar	0
38433	7	Sololá	701	Sololá	3	Barraneche	7	Julio	2023-07-20T00:00:00	2024-11-06T04:00:00	2	Temperatura media	14.6
38434	7	Sololá	701	Sololá	3	Barraneche	7	Julio	2023-07-20T00:00:00	2024-11-06T04:00:00	4	Temperatura máxima	15
38435	7	Sololá	701	Sololá	3	Barraneche	7	Julio	2023-07-20T00:00:00	2024-11-06T04:00:00	3	Temperatura mínima	14.6
38436	7	Sololá	701	Sololá	3	Barraneche	7	Julio	2023-07-20T00:00:00	2024-11-06T04:00:00	5	Humedad	63
38437	7	Sololá	701	Sololá	3	Barraneche	7	Julio	2023-07-20T00:00:00	2024-11-06T04:00:00	6	Velocidad del viento	12.9
38438	7	Sololá	701	Sololá	3	Barraneche	7	Julio	2023-07-20T00:00:00	2024-11-06T04:00:00	7	Dirección del viento	12.87
38439	7	Sololá	701	Sololá	3	Barraneche	7	Julio	2023-07-20T00:00:00	2024-11-06T04:00:00	1	Precipitación	0
38440	7	Sololá	701	Sololá	3	Barraneche	7	Julio	2023-07-20T00:00:00	2024-11-06T04:00:00	8	Radiación solar	0
38441	7	Sololá	701	Sololá	3	Barraneche	7	Julio	2023-07-20T00:00:00	2024-11-06T05:00:00	2	Temperatura media	14.6
38442	7	Sololá	701	Sololá	3	Barraneche	7	Julio	2023-07-20T00:00:00	2024-11-06T05:00:00	4	Temperatura máxima	14.7
38443	7	Sololá	701	Sololá	3	Barraneche	7	Julio	2023-07-20T00:00:00	2024-11-06T05:00:00	3	Temperatura mínima	14.3
38444	7	Sololá	701	Sololá	3	Barraneche	7	Julio	2023-07-20T00:00:00	2024-11-06T05:00:00	5	Humedad	62
38445	7	Sololá	701	Sololá	3	Barraneche	7	Julio	2023-07-20T00:00:00	2024-11-06T05:00:00	6	Velocidad del viento	12.9
38446	7	Sololá	701	Sololá	3	Barraneche	7	Julio	2023-07-20T00:00:00	2024-11-06T05:00:00	7	Dirección del viento	12.87
38447	7	Sololá	701	Sololá	3	Barraneche	7	Julio	2023-07-20T00:00:00	2024-11-06T05:00:00	1	Precipitación	0
38448	7	Sololá	701	Sololá	3	Barraneche	7	Julio	2023-07-20T00:00:00	2024-11-06T05:00:00	8	Radiación solar	0
38449	7	Sololá	701	Sololá	3	Barraneche	7	Julio	2023-07-20T00:00:00	2024-11-06T06:00:00	2	Temperatura media	14.6
38450	7	Sololá	701	Sololá	3	Barraneche	7	Julio	2023-07-20T00:00:00	2024-11-06T06:00:00	4	Temperatura máxima	14.7
38451	7	Sololá	701	Sololá	3	Barraneche	7	Julio	2023-07-20T00:00:00	2024-11-06T06:00:00	3	Temperatura mínima	14.3
38452	7	Sololá	701	Sololá	3	Barraneche	7	Julio	2023-07-20T00:00:00	2024-11-06T06:00:00	5	Humedad	63
38453	7	Sololá	701	Sololá	3	Barraneche	7	Julio	2023-07-20T00:00:00	2024-11-06T06:00:00	6	Velocidad del viento	14.5
38454	7	Sololá	701	Sololá	3	Barraneche	7	Julio	2023-07-20T00:00:00	2024-11-06T06:00:00	7	Dirección del viento	14.48
38455	7	Sololá	701	Sololá	3	Barraneche	7	Julio	2023-07-20T00:00:00	2024-11-06T06:00:00	1	Precipitación	0
38456	7	Sololá	701	Sololá	3	Barraneche	7	Julio	2023-07-20T00:00:00	2024-11-06T06:00:00	8	Radiación solar	2
38457	7	Sololá	701	Sololá	3	Barraneche	7	Julio	2023-07-20T00:00:00	2024-11-06T07:00:00	2	Temperatura media	15.1
38458	7	Sololá	701	Sololá	3	Barraneche	7	Julio	2023-07-20T00:00:00	2024-11-06T07:00:00	4	Temperatura máxima	15.1
38459	7	Sololá	701	Sololá	3	Barraneche	7	Julio	2023-07-20T00:00:00	2024-11-06T07:00:00	3	Temperatura mínima	14.6
38460	7	Sololá	701	Sololá	3	Barraneche	7	Julio	2023-07-20T00:00:00	2024-11-06T07:00:00	5	Humedad	63
38461	7	Sololá	701	Sololá	3	Barraneche	7	Julio	2023-07-20T00:00:00	2024-11-06T07:00:00	6	Velocidad del viento	16.1
38462	7	Sololá	701	Sololá	3	Barraneche	7	Julio	2023-07-20T00:00:00	2024-11-06T07:00:00	7	Dirección del viento	16.09
38463	7	Sololá	701	Sololá	3	Barraneche	7	Julio	2023-07-20T00:00:00	2024-11-06T07:00:00	1	Precipitación	0
38464	7	Sololá	701	Sololá	3	Barraneche	7	Julio	2023-07-20T00:00:00	2024-11-06T07:00:00	8	Radiación solar	82
38465	7	Sololá	701	Sololá	3	Barraneche	7	Julio	2023-07-20T00:00:00	2024-11-06T08:00:00	2	Temperatura media	16.2
38466	7	Sololá	701	Sololá	3	Barraneche	7	Julio	2023-07-20T00:00:00	2024-11-06T08:00:00	4	Temperatura máxima	16.3
38467	7	Sololá	701	Sololá	3	Barraneche	7	Julio	2023-07-20T00:00:00	2024-11-06T08:00:00	3	Temperatura mínima	15.1
38468	7	Sololá	701	Sololá	3	Barraneche	7	Julio	2023-07-20T00:00:00	2024-11-06T08:00:00	5	Humedad	61
38469	7	Sololá	701	Sololá	3	Barraneche	7	Julio	2023-07-20T00:00:00	2024-11-06T08:00:00	6	Velocidad del viento	17.7
38470	7	Sololá	701	Sololá	3	Barraneche	7	Julio	2023-07-20T00:00:00	2024-11-06T08:00:00	7	Dirección del viento	17.7
38471	7	Sololá	701	Sololá	3	Barraneche	7	Julio	2023-07-20T00:00:00	2024-11-06T08:00:00	1	Precipitación	0
38472	7	Sololá	701	Sololá	3	Barraneche	7	Julio	2023-07-20T00:00:00	2024-11-06T08:00:00	8	Radiación solar	361
38473	7	Sololá	701	Sololá	3	Barraneche	7	Julio	2023-07-20T00:00:00	2024-11-06T09:00:00	2	Temperatura media	17.6
38474	7	Sololá	701	Sololá	3	Barraneche	7	Julio	2023-07-20T00:00:00	2024-11-06T09:00:00	4	Temperatura máxima	17.6
38475	7	Sololá	701	Sololá	3	Barraneche	7	Julio	2023-07-20T00:00:00	2024-11-06T09:00:00	3	Temperatura mínima	16.3
38476	7	Sololá	701	Sololá	3	Barraneche	7	Julio	2023-07-20T00:00:00	2024-11-06T09:00:00	5	Humedad	57
38477	7	Sololá	701	Sololá	3	Barraneche	7	Julio	2023-07-20T00:00:00	2024-11-06T09:00:00	6	Velocidad del viento	17.7
38478	7	Sololá	701	Sololá	3	Barraneche	7	Julio	2023-07-20T00:00:00	2024-11-06T09:00:00	7	Dirección del viento	17.7
38479	7	Sololá	701	Sololá	3	Barraneche	7	Julio	2023-07-20T00:00:00	2024-11-06T09:00:00	1	Precipitación	0
38480	7	Sololá	701	Sololá	3	Barraneche	7	Julio	2023-07-20T00:00:00	2024-11-06T09:00:00	8	Radiación solar	590
38481	7	Sololá	701	Sololá	3	Barraneche	7	Julio	2023-07-20T00:00:00	2024-11-06T10:00:00	2	Temperatura media	18.6
38482	7	Sololá	701	Sololá	3	Barraneche	7	Julio	2023-07-20T00:00:00	2024-11-06T10:00:00	4	Temperatura máxima	19.1
38483	7	Sololá	701	Sololá	3	Barraneche	7	Julio	2023-07-20T00:00:00	2024-11-06T10:00:00	3	Temperatura mínima	17.6
38484	7	Sololá	701	Sololá	3	Barraneche	7	Julio	2023-07-20T00:00:00	2024-11-06T10:00:00	5	Humedad	54
38485	7	Sololá	701	Sololá	3	Barraneche	7	Julio	2023-07-20T00:00:00	2024-11-06T10:00:00	6	Velocidad del viento	14.5
38486	7	Sololá	701	Sololá	3	Barraneche	7	Julio	2023-07-20T00:00:00	2024-11-06T10:00:00	7	Dirección del viento	14.48
38487	7	Sololá	701	Sololá	3	Barraneche	7	Julio	2023-07-20T00:00:00	2024-11-06T10:00:00	1	Precipitación	0
38488	7	Sololá	701	Sololá	3	Barraneche	7	Julio	2023-07-20T00:00:00	2024-11-06T10:00:00	8	Radiación solar	786
38489	7	Sololá	701	Sololá	3	Barraneche	7	Julio	2023-07-20T00:00:00	2024-11-06T11:00:00	2	Temperatura media	18.4
38490	7	Sololá	701	Sololá	3	Barraneche	7	Julio	2023-07-20T00:00:00	2024-11-06T11:00:00	4	Temperatura máxima	18.8
38491	7	Sololá	701	Sololá	3	Barraneche	7	Julio	2023-07-20T00:00:00	2024-11-06T11:00:00	3	Temperatura mínima	17.7
38492	7	Sololá	701	Sololá	3	Barraneche	7	Julio	2023-07-20T00:00:00	2024-11-06T11:00:00	5	Humedad	56
38493	7	Sololá	701	Sololá	3	Barraneche	7	Julio	2023-07-20T00:00:00	2024-11-06T11:00:00	6	Velocidad del viento	17.7
38494	7	Sololá	701	Sololá	3	Barraneche	7	Julio	2023-07-20T00:00:00	2024-11-06T11:00:00	7	Dirección del viento	17.7
38495	7	Sololá	701	Sololá	3	Barraneche	7	Julio	2023-07-20T00:00:00	2024-11-06T11:00:00	1	Precipitación	0
38496	7	Sololá	701	Sololá	3	Barraneche	7	Julio	2023-07-20T00:00:00	2024-11-06T11:00:00	8	Radiación solar	938
38497	7	Sololá	701	Sololá	3	Barraneche	7	Julio	2023-07-20T00:00:00	2024-11-06T12:00:00	2	Temperatura media	19.1
38498	7	Sololá	701	Sololá	3	Barraneche	7	Julio	2023-07-20T00:00:00	2024-11-06T12:00:00	4	Temperatura máxima	19.1
38499	7	Sololá	701	Sololá	3	Barraneche	7	Julio	2023-07-20T00:00:00	2024-11-06T12:00:00	3	Temperatura mínima	18.4
38500	7	Sololá	701	Sololá	3	Barraneche	7	Julio	2023-07-20T00:00:00	2024-11-06T12:00:00	5	Humedad	57
38501	7	Sololá	701	Sololá	3	Barraneche	7	Julio	2023-07-20T00:00:00	2024-11-06T12:00:00	6	Velocidad del viento	16.1
38502	7	Sololá	701	Sololá	3	Barraneche	7	Julio	2023-07-20T00:00:00	2024-11-06T12:00:00	7	Dirección del viento	16.09
38503	7	Sololá	701	Sololá	3	Barraneche	7	Julio	2023-07-20T00:00:00	2024-11-06T12:00:00	1	Precipitación	0
38504	7	Sololá	701	Sololá	3	Barraneche	7	Julio	2023-07-20T00:00:00	2024-11-06T12:00:00	8	Radiación solar	994
38505	7	Sololá	701	Sololá	3	Barraneche	7	Julio	2023-07-20T00:00:00	2024-11-06T13:00:00	2	Temperatura media	18.8
38506	7	Sololá	701	Sololá	3	Barraneche	7	Julio	2023-07-20T00:00:00	2024-11-06T13:00:00	4	Temperatura máxima	19.6
38507	7	Sololá	701	Sololá	3	Barraneche	7	Julio	2023-07-20T00:00:00	2024-11-06T13:00:00	3	Temperatura mínima	18.6
38508	7	Sololá	701	Sololá	3	Barraneche	7	Julio	2023-07-20T00:00:00	2024-11-06T13:00:00	5	Humedad	58
38509	7	Sololá	701	Sololá	3	Barraneche	7	Julio	2023-07-20T00:00:00	2024-11-06T13:00:00	6	Velocidad del viento	19.3
38510	7	Sololá	701	Sololá	3	Barraneche	7	Julio	2023-07-20T00:00:00	2024-11-06T13:00:00	7	Dirección del viento	19.31
38511	7	Sololá	701	Sololá	3	Barraneche	7	Julio	2023-07-20T00:00:00	2024-11-06T13:00:00	1	Precipitación	0
38512	7	Sololá	701	Sololá	3	Barraneche	7	Julio	2023-07-20T00:00:00	2024-11-06T13:00:00	8	Radiación solar	1048
38513	7	Sololá	701	Sololá	3	Barraneche	7	Julio	2023-07-20T00:00:00	2024-11-06T14:00:00	2	Temperatura media	19.3
38514	7	Sololá	701	Sololá	3	Barraneche	7	Julio	2023-07-20T00:00:00	2024-11-06T14:00:00	4	Temperatura máxima	19.6
38515	7	Sololá	701	Sololá	3	Barraneche	7	Julio	2023-07-20T00:00:00	2024-11-06T14:00:00	3	Temperatura mínima	18.7
38516	7	Sololá	701	Sololá	3	Barraneche	7	Julio	2023-07-20T00:00:00	2024-11-06T14:00:00	5	Humedad	55
38517	7	Sololá	701	Sololá	3	Barraneche	7	Julio	2023-07-20T00:00:00	2024-11-06T14:00:00	6	Velocidad del viento	17.7
38518	7	Sololá	701	Sololá	3	Barraneche	7	Julio	2023-07-20T00:00:00	2024-11-06T14:00:00	7	Dirección del viento	17.7
38519	7	Sololá	701	Sololá	3	Barraneche	7	Julio	2023-07-20T00:00:00	2024-11-06T14:00:00	1	Precipitación	0
38520	7	Sololá	701	Sololá	3	Barraneche	7	Julio	2023-07-20T00:00:00	2024-11-06T14:00:00	8	Radiación solar	993
38521	7	Sololá	701	Sololá	3	Barraneche	7	Julio	2023-07-20T00:00:00	2024-11-06T15:00:00	2	Temperatura media	18.9
38522	7	Sololá	701	Sololá	3	Barraneche	7	Julio	2023-07-20T00:00:00	2024-11-06T15:00:00	4	Temperatura máxima	19.8
38523	7	Sololá	701	Sololá	3	Barraneche	7	Julio	2023-07-20T00:00:00	2024-11-06T15:00:00	3	Temperatura mínima	18.9
38524	7	Sololá	701	Sololá	3	Barraneche	7	Julio	2023-07-20T00:00:00	2024-11-06T15:00:00	5	Humedad	56
38525	7	Sololá	701	Sololá	3	Barraneche	7	Julio	2023-07-20T00:00:00	2024-11-06T15:00:00	6	Velocidad del viento	17.7
38526	7	Sololá	701	Sololá	3	Barraneche	7	Julio	2023-07-20T00:00:00	2024-11-06T15:00:00	7	Dirección del viento	17.7
38527	7	Sololá	701	Sololá	3	Barraneche	7	Julio	2023-07-20T00:00:00	2024-11-06T15:00:00	1	Precipitación	0
38528	7	Sololá	701	Sololá	3	Barraneche	7	Julio	2023-07-20T00:00:00	2024-11-06T15:00:00	8	Radiación solar	874
38529	7	Sololá	701	Sololá	3	Barraneche	7	Julio	2023-07-20T00:00:00	2024-11-06T16:00:00	2	Temperatura media	18.4
38530	7	Sololá	701	Sololá	3	Barraneche	7	Julio	2023-07-20T00:00:00	2024-11-06T16:00:00	4	Temperatura máxima	19.4
38531	7	Sololá	701	Sololá	3	Barraneche	7	Julio	2023-07-20T00:00:00	2024-11-06T16:00:00	3	Temperatura mínima	18.2
38532	7	Sololá	701	Sololá	3	Barraneche	7	Julio	2023-07-20T00:00:00	2024-11-06T16:00:00	5	Humedad	56
38533	7	Sololá	701	Sololá	3	Barraneche	7	Julio	2023-07-20T00:00:00	2024-11-06T16:00:00	6	Velocidad del viento	17.7
38534	7	Sololá	701	Sololá	3	Barraneche	7	Julio	2023-07-20T00:00:00	2024-11-06T16:00:00	7	Dirección del viento	17.7
38535	7	Sololá	701	Sololá	3	Barraneche	7	Julio	2023-07-20T00:00:00	2024-11-06T16:00:00	1	Precipitación	0
38536	7	Sololá	701	Sololá	3	Barraneche	7	Julio	2023-07-20T00:00:00	2024-11-06T16:00:00	8	Radiación solar	636
38537	7	Sololá	701	Sololá	3	Barraneche	7	Julio	2023-07-20T00:00:00	2024-11-06T17:00:00	2	Temperatura media	18.1
38538	7	Sololá	701	Sololá	3	Barraneche	7	Julio	2023-07-20T00:00:00	2024-11-06T17:00:00	4	Temperatura máxima	18.7
38539	7	Sololá	701	Sololá	3	Barraneche	7	Julio	2023-07-20T00:00:00	2024-11-06T17:00:00	3	Temperatura mínima	18.1
38540	7	Sololá	701	Sololá	3	Barraneche	7	Julio	2023-07-20T00:00:00	2024-11-06T17:00:00	5	Humedad	56
38541	7	Sololá	701	Sololá	3	Barraneche	7	Julio	2023-07-20T00:00:00	2024-11-06T17:00:00	6	Velocidad del viento	16.1
38542	7	Sololá	701	Sololá	3	Barraneche	7	Julio	2023-07-20T00:00:00	2024-11-06T17:00:00	7	Dirección del viento	16.09
38543	7	Sololá	701	Sololá	3	Barraneche	7	Julio	2023-07-20T00:00:00	2024-11-06T17:00:00	1	Precipitación	0
38544	7	Sololá	701	Sololá	3	Barraneche	7	Julio	2023-07-20T00:00:00	2024-11-06T17:00:00	8	Radiación solar	372
38545	7	Sololá	701	Sololá	3	Barraneche	7	Julio	2023-07-20T00:00:00	2024-11-06T18:00:00	2	Temperatura media	16.3
38546	7	Sololá	701	Sololá	3	Barraneche	7	Julio	2023-07-20T00:00:00	2024-11-06T18:00:00	4	Temperatura máxima	18.2
38547	7	Sololá	701	Sololá	3	Barraneche	7	Julio	2023-07-20T00:00:00	2024-11-06T18:00:00	3	Temperatura mínima	16.3
38548	7	Sololá	701	Sololá	3	Barraneche	7	Julio	2023-07-20T00:00:00	2024-11-06T18:00:00	5	Humedad	63
38549	7	Sololá	701	Sololá	3	Barraneche	7	Julio	2023-07-20T00:00:00	2024-11-06T18:00:00	6	Velocidad del viento	12.9
38550	7	Sololá	701	Sololá	3	Barraneche	7	Julio	2023-07-20T00:00:00	2024-11-06T18:00:00	7	Dirección del viento	12.87
38551	7	Sololá	701	Sololá	3	Barraneche	7	Julio	2023-07-20T00:00:00	2024-11-06T18:00:00	1	Precipitación	0
38552	7	Sololá	701	Sololá	3	Barraneche	7	Julio	2023-07-20T00:00:00	2024-11-06T18:00:00	8	Radiación solar	144
38553	7	Sololá	701	Sololá	3	Barraneche	7	Julio	2023-07-20T00:00:00	2024-11-06T19:00:00	2	Temperatura media	15.2
38554	7	Sololá	701	Sololá	3	Barraneche	7	Julio	2023-07-20T00:00:00	2024-11-06T19:00:00	4	Temperatura máxima	16.3
38555	7	Sololá	701	Sololá	3	Barraneche	7	Julio	2023-07-20T00:00:00	2024-11-06T19:00:00	3	Temperatura mínima	15.2
38556	7	Sololá	701	Sololá	3	Barraneche	7	Julio	2023-07-20T00:00:00	2024-11-06T19:00:00	5	Humedad	64
38557	7	Sololá	701	Sololá	3	Barraneche	7	Julio	2023-07-20T00:00:00	2024-11-06T19:00:00	6	Velocidad del viento	11.3
38558	7	Sololá	701	Sololá	3	Barraneche	7	Julio	2023-07-20T00:00:00	2024-11-06T19:00:00	7	Dirección del viento	11.27
38559	7	Sololá	701	Sololá	3	Barraneche	7	Julio	2023-07-20T00:00:00	2024-11-06T19:00:00	1	Precipitación	0
38560	7	Sololá	701	Sololá	3	Barraneche	7	Julio	2023-07-20T00:00:00	2024-11-06T19:00:00	8	Radiación solar	0
38561	7	Sololá	701	Sololá	3	Barraneche	7	Julio	2023-07-20T00:00:00	2024-11-06T20:00:00	2	Temperatura media	15.2
38562	7	Sololá	701	Sololá	3	Barraneche	7	Julio	2023-07-20T00:00:00	2024-11-06T20:00:00	4	Temperatura máxima	15.3
38563	7	Sololá	701	Sololá	3	Barraneche	7	Julio	2023-07-20T00:00:00	2024-11-06T20:00:00	3	Temperatura mínima	15.1
38564	7	Sololá	701	Sololá	3	Barraneche	7	Julio	2023-07-20T00:00:00	2024-11-06T20:00:00	5	Humedad	64
38565	7	Sololá	701	Sololá	3	Barraneche	7	Julio	2023-07-20T00:00:00	2024-11-06T20:00:00	6	Velocidad del viento	9.7
38566	7	Sololá	701	Sololá	3	Barraneche	7	Julio	2023-07-20T00:00:00	2024-11-06T20:00:00	7	Dirección del viento	9.66
38567	7	Sololá	701	Sololá	3	Barraneche	7	Julio	2023-07-20T00:00:00	2024-11-06T20:00:00	1	Precipitación	0
38568	7	Sololá	701	Sololá	3	Barraneche	7	Julio	2023-07-20T00:00:00	2024-11-06T20:00:00	8	Radiación solar	0
38569	7	Sololá	701	Sololá	3	Barraneche	7	Julio	2023-07-20T00:00:00	2024-11-06T21:00:00	2	Temperatura media	15.4
38570	7	Sololá	701	Sololá	3	Barraneche	7	Julio	2023-07-20T00:00:00	2024-11-06T21:00:00	4	Temperatura máxima	15.5
38571	7	Sololá	701	Sololá	3	Barraneche	7	Julio	2023-07-20T00:00:00	2024-11-06T21:00:00	3	Temperatura mínima	15.1
38572	7	Sololá	701	Sololá	3	Barraneche	7	Julio	2023-07-20T00:00:00	2024-11-06T21:00:00	5	Humedad	61
38573	7	Sololá	701	Sololá	3	Barraneche	7	Julio	2023-07-20T00:00:00	2024-11-06T21:00:00	6	Velocidad del viento	16.1
38574	7	Sololá	701	Sololá	3	Barraneche	7	Julio	2023-07-20T00:00:00	2024-11-06T21:00:00	7	Dirección del viento	16.09
38575	7	Sololá	701	Sololá	3	Barraneche	7	Julio	2023-07-20T00:00:00	2024-11-06T21:00:00	1	Precipitación	0
38576	7	Sololá	701	Sololá	3	Barraneche	7	Julio	2023-07-20T00:00:00	2024-11-06T21:00:00	8	Radiación solar	0
38577	7	Sololá	701	Sololá	3	Barraneche	7	Julio	2023-07-20T00:00:00	2024-11-06T22:00:00	2	Temperatura media	15.7
38578	7	Sololá	701	Sololá	3	Barraneche	7	Julio	2023-07-20T00:00:00	2024-11-06T22:00:00	4	Temperatura máxima	15.7
38579	7	Sololá	701	Sololá	3	Barraneche	7	Julio	2023-07-20T00:00:00	2024-11-06T22:00:00	3	Temperatura mínima	15.4
38580	7	Sololá	701	Sololá	3	Barraneche	7	Julio	2023-07-20T00:00:00	2024-11-06T22:00:00	5	Humedad	59
38581	7	Sololá	701	Sololá	3	Barraneche	7	Julio	2023-07-20T00:00:00	2024-11-06T22:00:00	6	Velocidad del viento	14.5
38582	7	Sololá	701	Sololá	3	Barraneche	7	Julio	2023-07-20T00:00:00	2024-11-06T22:00:00	7	Dirección del viento	14.48
38583	7	Sololá	701	Sololá	3	Barraneche	7	Julio	2023-07-20T00:00:00	2024-11-06T22:00:00	1	Precipitación	0
38584	7	Sololá	701	Sololá	3	Barraneche	7	Julio	2023-07-20T00:00:00	2024-11-06T22:00:00	8	Radiación solar	0
38585	7	Sololá	701	Sololá	3	Barraneche	7	Julio	2023-07-20T00:00:00	2024-11-06T23:00:00	2	Temperatura media	15.2
38586	7	Sololá	701	Sololá	3	Barraneche	7	Julio	2023-07-20T00:00:00	2024-11-06T23:00:00	4	Temperatura máxima	15.8
38587	7	Sololá	701	Sololá	3	Barraneche	7	Julio	2023-07-20T00:00:00	2024-11-06T23:00:00	3	Temperatura mínima	15.2
38588	7	Sololá	701	Sololá	3	Barraneche	7	Julio	2023-07-20T00:00:00	2024-11-06T23:00:00	5	Humedad	60
38589	7	Sololá	701	Sololá	3	Barraneche	7	Julio	2023-07-20T00:00:00	2024-11-06T23:00:00	6	Velocidad del viento	16.1
38590	7	Sololá	701	Sololá	3	Barraneche	7	Julio	2023-07-20T00:00:00	2024-11-06T23:00:00	7	Dirección del viento	16.09
38591	7	Sololá	701	Sololá	3	Barraneche	7	Julio	2023-07-20T00:00:00	2024-11-06T23:00:00	1	Precipitación	0
38592	7	Sololá	701	Sololá	3	Barraneche	7	Julio	2023-07-20T00:00:00	2024-11-06T23:00:00	8	Radiación solar	0
38593	7	Sololá	701	Sololá	3	Barraneche	7	Julio	2023-07-21T00:00:00	2024-11-06T00:00:00	2	Temperatura media	14.8
38594	7	Sololá	701	Sololá	3	Barraneche	7	Julio	2023-07-21T00:00:00	2024-11-06T00:00:00	4	Temperatura máxima	15.3
38595	7	Sololá	701	Sololá	3	Barraneche	7	Julio	2023-07-21T00:00:00	2024-11-06T00:00:00	3	Temperatura mínima	14.7
38596	7	Sololá	701	Sololá	3	Barraneche	7	Julio	2023-07-21T00:00:00	2024-11-06T00:00:00	5	Humedad	62
38597	7	Sololá	701	Sololá	3	Barraneche	7	Julio	2023-07-21T00:00:00	2024-11-06T00:00:00	6	Velocidad del viento	9.7
38598	7	Sololá	701	Sololá	3	Barraneche	7	Julio	2023-07-21T00:00:00	2024-11-06T00:00:00	7	Dirección del viento	9.66
38599	7	Sololá	701	Sololá	3	Barraneche	7	Julio	2023-07-21T00:00:00	2024-11-06T00:00:00	1	Precipitación	0
38600	7	Sololá	701	Sololá	3	Barraneche	7	Julio	2023-07-21T00:00:00	2024-11-06T00:00:00	8	Radiación solar	0
38601	7	Sololá	701	Sololá	3	Barraneche	7	Julio	2023-07-21T00:00:00	2024-11-06T01:00:00	2	Temperatura media	14.6
38602	7	Sololá	701	Sololá	3	Barraneche	7	Julio	2023-07-21T00:00:00	2024-11-06T01:00:00	4	Temperatura máxima	14.9
38603	7	Sololá	701	Sololá	3	Barraneche	7	Julio	2023-07-21T00:00:00	2024-11-06T01:00:00	3	Temperatura mínima	14.6
38604	7	Sololá	701	Sololá	3	Barraneche	7	Julio	2023-07-21T00:00:00	2024-11-06T01:00:00	5	Humedad	63
38605	7	Sololá	701	Sololá	3	Barraneche	7	Julio	2023-07-21T00:00:00	2024-11-06T01:00:00	6	Velocidad del viento	12.9
38606	7	Sololá	701	Sololá	3	Barraneche	7	Julio	2023-07-21T00:00:00	2024-11-06T01:00:00	7	Dirección del viento	12.87
38607	7	Sololá	701	Sololá	3	Barraneche	7	Julio	2023-07-21T00:00:00	2024-11-06T01:00:00	1	Precipitación	0
38608	7	Sololá	701	Sololá	3	Barraneche	7	Julio	2023-07-21T00:00:00	2024-11-06T01:00:00	8	Radiación solar	0
38609	7	Sololá	701	Sololá	3	Barraneche	7	Julio	2023-07-21T00:00:00	2024-11-06T02:00:00	2	Temperatura media	15.6
38610	7	Sololá	701	Sololá	3	Barraneche	7	Julio	2023-07-21T00:00:00	2024-11-06T02:00:00	4	Temperatura máxima	15.8
38611	7	Sololá	701	Sololá	3	Barraneche	7	Julio	2023-07-21T00:00:00	2024-11-06T02:00:00	3	Temperatura mínima	14.6
38612	7	Sololá	701	Sololá	3	Barraneche	7	Julio	2023-07-21T00:00:00	2024-11-06T02:00:00	5	Humedad	59
38613	7	Sololá	701	Sololá	3	Barraneche	7	Julio	2023-07-21T00:00:00	2024-11-06T02:00:00	6	Velocidad del viento	16.1
38614	7	Sololá	701	Sololá	3	Barraneche	7	Julio	2023-07-21T00:00:00	2024-11-06T02:00:00	7	Dirección del viento	16.09
38615	7	Sololá	701	Sololá	3	Barraneche	7	Julio	2023-07-21T00:00:00	2024-11-06T02:00:00	1	Precipitación	0
38616	7	Sololá	701	Sololá	3	Barraneche	7	Julio	2023-07-21T00:00:00	2024-11-06T02:00:00	8	Radiación solar	0
38617	7	Sololá	701	Sololá	3	Barraneche	7	Julio	2023-07-21T00:00:00	2024-11-06T03:00:00	2	Temperatura media	15.1
38618	7	Sololá	701	Sololá	3	Barraneche	7	Julio	2023-07-21T00:00:00	2024-11-06T03:00:00	4	Temperatura máxima	15.6
38619	7	Sololá	701	Sololá	3	Barraneche	7	Julio	2023-07-21T00:00:00	2024-11-06T03:00:00	3	Temperatura mínima	14.8
38620	7	Sololá	701	Sololá	3	Barraneche	7	Julio	2023-07-21T00:00:00	2024-11-06T03:00:00	5	Humedad	61
38621	7	Sololá	701	Sololá	3	Barraneche	7	Julio	2023-07-21T00:00:00	2024-11-06T03:00:00	6	Velocidad del viento	11.3
38622	7	Sololá	701	Sololá	3	Barraneche	7	Julio	2023-07-21T00:00:00	2024-11-06T03:00:00	7	Dirección del viento	11.27
38623	7	Sololá	701	Sololá	3	Barraneche	7	Julio	2023-07-21T00:00:00	2024-11-06T03:00:00	1	Precipitación	0
38624	7	Sololá	701	Sololá	3	Barraneche	7	Julio	2023-07-21T00:00:00	2024-11-06T03:00:00	8	Radiación solar	0
38625	7	Sololá	701	Sololá	3	Barraneche	7	Julio	2023-07-21T00:00:00	2024-11-06T04:00:00	2	Temperatura media	14.4
38626	7	Sololá	701	Sololá	3	Barraneche	7	Julio	2023-07-21T00:00:00	2024-11-06T04:00:00	4	Temperatura máxima	15.2
38627	7	Sololá	701	Sololá	3	Barraneche	7	Julio	2023-07-21T00:00:00	2024-11-06T04:00:00	3	Temperatura mínima	14.4
38628	7	Sololá	701	Sololá	3	Barraneche	7	Julio	2023-07-21T00:00:00	2024-11-06T04:00:00	5	Humedad	63
38629	7	Sololá	701	Sololá	3	Barraneche	7	Julio	2023-07-21T00:00:00	2024-11-06T04:00:00	6	Velocidad del viento	8
38630	7	Sololá	701	Sololá	3	Barraneche	7	Julio	2023-07-21T00:00:00	2024-11-06T04:00:00	7	Dirección del viento	8.05
38631	7	Sololá	701	Sololá	3	Barraneche	7	Julio	2023-07-21T00:00:00	2024-11-06T04:00:00	1	Precipitación	0
38632	7	Sololá	701	Sololá	3	Barraneche	7	Julio	2023-07-21T00:00:00	2024-11-06T04:00:00	8	Radiación solar	0
38633	7	Sololá	701	Sololá	3	Barraneche	7	Julio	2023-07-21T00:00:00	2024-11-06T05:00:00	2	Temperatura media	14.3
38634	7	Sololá	701	Sololá	3	Barraneche	7	Julio	2023-07-21T00:00:00	2024-11-06T05:00:00	4	Temperatura máxima	14.6
38635	7	Sololá	701	Sololá	3	Barraneche	7	Julio	2023-07-21T00:00:00	2024-11-06T05:00:00	3	Temperatura mínima	14.1
38636	7	Sololá	701	Sololá	3	Barraneche	7	Julio	2023-07-21T00:00:00	2024-11-06T05:00:00	5	Humedad	66
38637	7	Sololá	701	Sololá	3	Barraneche	7	Julio	2023-07-21T00:00:00	2024-11-06T05:00:00	6	Velocidad del viento	14.5
38638	7	Sololá	701	Sololá	3	Barraneche	7	Julio	2023-07-21T00:00:00	2024-11-06T05:00:00	7	Dirección del viento	14.48
38639	7	Sololá	701	Sololá	3	Barraneche	7	Julio	2023-07-21T00:00:00	2024-11-06T05:00:00	1	Precipitación	0
38640	7	Sololá	701	Sololá	3	Barraneche	7	Julio	2023-07-21T00:00:00	2024-11-06T05:00:00	8	Radiación solar	0
38641	7	Sololá	701	Sololá	3	Barraneche	7	Julio	2023-07-21T00:00:00	2024-11-06T06:00:00	2	Temperatura media	14.7
38642	7	Sololá	701	Sololá	3	Barraneche	7	Julio	2023-07-21T00:00:00	2024-11-06T06:00:00	4	Temperatura máxima	14.8
38643	7	Sololá	701	Sololá	3	Barraneche	7	Julio	2023-07-21T00:00:00	2024-11-06T06:00:00	3	Temperatura mínima	14.2
38644	7	Sololá	701	Sololá	3	Barraneche	7	Julio	2023-07-21T00:00:00	2024-11-06T06:00:00	5	Humedad	64
38645	7	Sololá	701	Sololá	3	Barraneche	7	Julio	2023-07-21T00:00:00	2024-11-06T06:00:00	6	Velocidad del viento	20.9
38646	7	Sololá	701	Sololá	3	Barraneche	7	Julio	2023-07-21T00:00:00	2024-11-06T06:00:00	7	Dirección del viento	20.92
38647	7	Sololá	701	Sololá	3	Barraneche	7	Julio	2023-07-21T00:00:00	2024-11-06T06:00:00	1	Precipitación	0
38648	7	Sololá	701	Sololá	3	Barraneche	7	Julio	2023-07-21T00:00:00	2024-11-06T06:00:00	8	Radiación solar	1
38649	7	Sololá	701	Sololá	3	Barraneche	7	Julio	2023-07-21T00:00:00	2024-11-06T07:00:00	2	Temperatura media	15.1
38650	7	Sololá	701	Sololá	3	Barraneche	7	Julio	2023-07-21T00:00:00	2024-11-06T07:00:00	4	Temperatura máxima	15.2
38651	7	Sololá	701	Sololá	3	Barraneche	7	Julio	2023-07-21T00:00:00	2024-11-06T07:00:00	3	Temperatura mínima	14.3
38652	7	Sololá	701	Sololá	3	Barraneche	7	Julio	2023-07-21T00:00:00	2024-11-06T07:00:00	5	Humedad	66
38653	7	Sololá	701	Sololá	3	Barraneche	7	Julio	2023-07-21T00:00:00	2024-11-06T07:00:00	6	Velocidad del viento	16.1
38654	7	Sololá	701	Sololá	3	Barraneche	7	Julio	2023-07-21T00:00:00	2024-11-06T07:00:00	7	Dirección del viento	16.09
38655	7	Sololá	701	Sololá	3	Barraneche	7	Julio	2023-07-21T00:00:00	2024-11-06T07:00:00	1	Precipitación	0
38656	7	Sololá	701	Sololá	3	Barraneche	7	Julio	2023-07-21T00:00:00	2024-11-06T07:00:00	8	Radiación solar	64
38657	7	Sololá	701	Sololá	3	Barraneche	7	Julio	2023-07-21T00:00:00	2024-11-06T08:00:00	2	Temperatura media	16.8
38658	7	Sololá	701	Sololá	3	Barraneche	7	Julio	2023-07-21T00:00:00	2024-11-06T08:00:00	4	Temperatura máxima	16.9
38659	7	Sololá	701	Sololá	3	Barraneche	7	Julio	2023-07-21T00:00:00	2024-11-06T08:00:00	3	Temperatura mínima	15
38660	7	Sololá	701	Sololá	3	Barraneche	7	Julio	2023-07-21T00:00:00	2024-11-06T08:00:00	5	Humedad	60
38661	7	Sololá	701	Sololá	3	Barraneche	7	Julio	2023-07-21T00:00:00	2024-11-06T08:00:00	6	Velocidad del viento	17.7
38662	7	Sololá	701	Sololá	3	Barraneche	7	Julio	2023-07-21T00:00:00	2024-11-06T08:00:00	7	Dirección del viento	17.7
38663	7	Sololá	701	Sololá	3	Barraneche	7	Julio	2023-07-21T00:00:00	2024-11-06T08:00:00	1	Precipitación	0
38664	7	Sololá	701	Sololá	3	Barraneche	7	Julio	2023-07-21T00:00:00	2024-11-06T08:00:00	8	Radiación solar	353
38665	7	Sololá	701	Sololá	3	Barraneche	7	Julio	2023-07-21T00:00:00	2024-11-06T09:00:00	2	Temperatura media	17.7
38666	7	Sololá	701	Sololá	3	Barraneche	7	Julio	2023-07-21T00:00:00	2024-11-06T09:00:00	4	Temperatura máxima	18.1
38667	7	Sololá	701	Sololá	3	Barraneche	7	Julio	2023-07-21T00:00:00	2024-11-06T09:00:00	3	Temperatura mínima	16.8
38668	7	Sololá	701	Sololá	3	Barraneche	7	Julio	2023-07-21T00:00:00	2024-11-06T09:00:00	5	Humedad	58
38669	7	Sololá	701	Sololá	3	Barraneche	7	Julio	2023-07-21T00:00:00	2024-11-06T09:00:00	6	Velocidad del viento	16.1
38670	7	Sololá	701	Sololá	3	Barraneche	7	Julio	2023-07-21T00:00:00	2024-11-06T09:00:00	7	Dirección del viento	16.09
38671	7	Sololá	701	Sololá	3	Barraneche	7	Julio	2023-07-21T00:00:00	2024-11-06T09:00:00	1	Precipitación	0
38672	7	Sololá	701	Sololá	3	Barraneche	7	Julio	2023-07-21T00:00:00	2024-11-06T09:00:00	8	Radiación solar	587
38673	7	Sololá	701	Sololá	3	Barraneche	7	Julio	2023-07-21T00:00:00	2024-11-06T10:00:00	2	Temperatura media	19.4
38674	7	Sololá	701	Sololá	3	Barraneche	7	Julio	2023-07-21T00:00:00	2024-11-06T10:00:00	4	Temperatura máxima	19.4
38675	7	Sololá	701	Sololá	3	Barraneche	7	Julio	2023-07-21T00:00:00	2024-11-06T10:00:00	3	Temperatura mínima	17.5
38676	7	Sololá	701	Sololá	3	Barraneche	7	Julio	2023-07-21T00:00:00	2024-11-06T10:00:00	5	Humedad	49
38677	7	Sololá	701	Sololá	3	Barraneche	7	Julio	2023-07-21T00:00:00	2024-11-06T10:00:00	6	Velocidad del viento	16.1
38678	7	Sololá	701	Sololá	3	Barraneche	7	Julio	2023-07-21T00:00:00	2024-11-06T10:00:00	7	Dirección del viento	16.09
38679	7	Sololá	701	Sololá	3	Barraneche	7	Julio	2023-07-21T00:00:00	2024-11-06T10:00:00	1	Precipitación	0
38680	7	Sololá	701	Sololá	3	Barraneche	7	Julio	2023-07-21T00:00:00	2024-11-06T10:00:00	8	Radiación solar	775
38681	7	Sololá	701	Sololá	3	Barraneche	7	Julio	2023-07-21T00:00:00	2024-11-06T11:00:00	2	Temperatura media	19.4
38682	7	Sololá	701	Sololá	3	Barraneche	7	Julio	2023-07-21T00:00:00	2024-11-06T11:00:00	4	Temperatura máxima	19.6
38683	7	Sololá	701	Sololá	3	Barraneche	7	Julio	2023-07-21T00:00:00	2024-11-06T11:00:00	3	Temperatura mínima	19.1
38684	7	Sololá	701	Sololá	3	Barraneche	7	Julio	2023-07-21T00:00:00	2024-11-06T11:00:00	5	Humedad	52
38685	7	Sololá	701	Sololá	3	Barraneche	7	Julio	2023-07-21T00:00:00	2024-11-06T11:00:00	6	Velocidad del viento	16.1
38686	7	Sololá	701	Sololá	3	Barraneche	7	Julio	2023-07-21T00:00:00	2024-11-06T11:00:00	7	Dirección del viento	16.09
38687	7	Sololá	701	Sololá	3	Barraneche	7	Julio	2023-07-21T00:00:00	2024-11-06T11:00:00	1	Precipitación	0
38688	7	Sololá	701	Sololá	3	Barraneche	7	Julio	2023-07-21T00:00:00	2024-11-06T11:00:00	8	Radiación solar	916
38689	7	Sololá	701	Sololá	3	Barraneche	7	Julio	2023-07-21T00:00:00	2024-11-06T12:00:00	2	Temperatura media	20.3
38690	7	Sololá	701	Sololá	3	Barraneche	7	Julio	2023-07-21T00:00:00	2024-11-06T12:00:00	4	Temperatura máxima	20.3
38691	7	Sololá	701	Sololá	3	Barraneche	7	Julio	2023-07-21T00:00:00	2024-11-06T12:00:00	3	Temperatura mínima	19.4
38692	7	Sololá	701	Sololá	3	Barraneche	7	Julio	2023-07-21T00:00:00	2024-11-06T12:00:00	5	Humedad	47
38693	7	Sololá	701	Sololá	3	Barraneche	7	Julio	2023-07-21T00:00:00	2024-11-06T12:00:00	6	Velocidad del viento	16.1
38694	7	Sololá	701	Sololá	3	Barraneche	7	Julio	2023-07-21T00:00:00	2024-11-06T12:00:00	7	Dirección del viento	16.09
38695	7	Sololá	701	Sololá	3	Barraneche	7	Julio	2023-07-21T00:00:00	2024-11-06T12:00:00	1	Precipitación	0
38696	7	Sololá	701	Sololá	3	Barraneche	7	Julio	2023-07-21T00:00:00	2024-11-06T12:00:00	8	Radiación solar	1002
38697	7	Sololá	701	Sololá	3	Barraneche	7	Julio	2023-07-21T00:00:00	2024-11-06T13:00:00	2	Temperatura media	20.9
38698	7	Sololá	701	Sololá	3	Barraneche	7	Julio	2023-07-21T00:00:00	2024-11-06T13:00:00	4	Temperatura máxima	20.9
38699	7	Sololá	701	Sololá	3	Barraneche	7	Julio	2023-07-21T00:00:00	2024-11-06T13:00:00	3	Temperatura mínima	20.3
38700	7	Sololá	701	Sololá	3	Barraneche	7	Julio	2023-07-21T00:00:00	2024-11-06T13:00:00	5	Humedad	43
38701	7	Sololá	701	Sololá	3	Barraneche	7	Julio	2023-07-21T00:00:00	2024-11-06T13:00:00	6	Velocidad del viento	14.5
38702	7	Sololá	701	Sololá	3	Barraneche	7	Julio	2023-07-21T00:00:00	2024-11-06T13:00:00	7	Dirección del viento	14.48
38703	7	Sololá	701	Sololá	3	Barraneche	7	Julio	2023-07-21T00:00:00	2024-11-06T13:00:00	1	Precipitación	0
38704	7	Sololá	701	Sololá	3	Barraneche	7	Julio	2023-07-21T00:00:00	2024-11-06T13:00:00	8	Radiación solar	1026
38705	7	Sololá	701	Sololá	3	Barraneche	7	Julio	2023-07-21T00:00:00	2024-11-06T14:00:00	2	Temperatura media	21.4
38706	7	Sololá	701	Sololá	3	Barraneche	7	Julio	2023-07-21T00:00:00	2024-11-06T14:00:00	4	Temperatura máxima	21.5
38707	7	Sololá	701	Sololá	3	Barraneche	7	Julio	2023-07-21T00:00:00	2024-11-06T14:00:00	3	Temperatura mínima	20.8
38708	7	Sololá	701	Sololá	3	Barraneche	7	Julio	2023-07-21T00:00:00	2024-11-06T14:00:00	5	Humedad	44
38709	7	Sololá	701	Sololá	3	Barraneche	7	Julio	2023-07-21T00:00:00	2024-11-06T14:00:00	6	Velocidad del viento	12.9
38710	7	Sololá	701	Sololá	3	Barraneche	7	Julio	2023-07-21T00:00:00	2024-11-06T14:00:00	7	Dirección del viento	12.87
38711	7	Sololá	701	Sololá	3	Barraneche	7	Julio	2023-07-21T00:00:00	2024-11-06T14:00:00	1	Precipitación	0
38712	7	Sololá	701	Sololá	3	Barraneche	7	Julio	2023-07-21T00:00:00	2024-11-06T14:00:00	8	Radiación solar	983
38713	7	Sololá	701	Sololá	3	Barraneche	7	Julio	2023-07-21T00:00:00	2024-11-06T15:00:00	2	Temperatura media	21.2
38714	7	Sololá	701	Sololá	3	Barraneche	7	Julio	2023-07-21T00:00:00	2024-11-06T15:00:00	4	Temperatura máxima	21.8
38715	7	Sololá	701	Sololá	3	Barraneche	7	Julio	2023-07-21T00:00:00	2024-11-06T15:00:00	3	Temperatura mínima	20.6
38716	7	Sololá	701	Sololá	3	Barraneche	7	Julio	2023-07-21T00:00:00	2024-11-06T15:00:00	5	Humedad	48
38717	7	Sololá	701	Sololá	3	Barraneche	7	Julio	2023-07-21T00:00:00	2024-11-06T15:00:00	6	Velocidad del viento	9.7
38718	7	Sololá	701	Sololá	3	Barraneche	7	Julio	2023-07-21T00:00:00	2024-11-06T15:00:00	7	Dirección del viento	9.66
38719	7	Sololá	701	Sololá	3	Barraneche	7	Julio	2023-07-21T00:00:00	2024-11-06T15:00:00	1	Precipitación	0
38720	7	Sololá	701	Sololá	3	Barraneche	7	Julio	2023-07-21T00:00:00	2024-11-06T15:00:00	8	Radiación solar	705
38721	7	Sololá	701	Sololá	3	Barraneche	7	Julio	2023-07-21T00:00:00	2024-11-06T16:00:00	2	Temperatura media	20.7
38722	7	Sololá	701	Sololá	3	Barraneche	7	Julio	2023-07-21T00:00:00	2024-11-06T16:00:00	4	Temperatura máxima	21.2
38723	7	Sololá	701	Sololá	3	Barraneche	7	Julio	2023-07-21T00:00:00	2024-11-06T16:00:00	3	Temperatura mínima	20.5
38724	7	Sololá	701	Sololá	3	Barraneche	7	Julio	2023-07-21T00:00:00	2024-11-06T16:00:00	5	Humedad	49
38725	7	Sololá	701	Sololá	3	Barraneche	7	Julio	2023-07-21T00:00:00	2024-11-06T16:00:00	6	Velocidad del viento	11.3
38726	7	Sololá	701	Sololá	3	Barraneche	7	Julio	2023-07-21T00:00:00	2024-11-06T16:00:00	7	Dirección del viento	11.27
38727	7	Sololá	701	Sololá	3	Barraneche	7	Julio	2023-07-21T00:00:00	2024-11-06T16:00:00	1	Precipitación	0
38728	7	Sololá	701	Sololá	3	Barraneche	7	Julio	2023-07-21T00:00:00	2024-11-06T16:00:00	8	Radiación solar	560
38729	7	Sololá	701	Sololá	3	Barraneche	7	Julio	2023-07-21T00:00:00	2024-11-06T17:00:00	2	Temperatura media	19.9
38730	7	Sololá	701	Sololá	3	Barraneche	7	Julio	2023-07-21T00:00:00	2024-11-06T17:00:00	4	Temperatura máxima	20.8
38731	7	Sololá	701	Sololá	3	Barraneche	7	Julio	2023-07-21T00:00:00	2024-11-06T17:00:00	3	Temperatura mínima	19.9
38732	7	Sololá	701	Sololá	3	Barraneche	7	Julio	2023-07-21T00:00:00	2024-11-06T17:00:00	5	Humedad	51
38733	7	Sololá	701	Sololá	3	Barraneche	7	Julio	2023-07-21T00:00:00	2024-11-06T17:00:00	6	Velocidad del viento	12.9
38734	7	Sololá	701	Sololá	3	Barraneche	7	Julio	2023-07-21T00:00:00	2024-11-06T17:00:00	7	Dirección del viento	12.87
38735	7	Sololá	701	Sololá	3	Barraneche	7	Julio	2023-07-21T00:00:00	2024-11-06T17:00:00	1	Precipitación	0
38736	7	Sololá	701	Sololá	3	Barraneche	7	Julio	2023-07-21T00:00:00	2024-11-06T17:00:00	8	Radiación solar	353
38737	7	Sololá	701	Sololá	3	Barraneche	7	Julio	2023-07-21T00:00:00	2024-11-06T18:00:00	2	Temperatura media	18.3
38738	7	Sololá	701	Sololá	3	Barraneche	7	Julio	2023-07-21T00:00:00	2024-11-06T18:00:00	4	Temperatura máxima	19.9
38739	7	Sololá	701	Sololá	3	Barraneche	7	Julio	2023-07-21T00:00:00	2024-11-06T18:00:00	3	Temperatura mínima	18.2
38740	7	Sololá	701	Sololá	3	Barraneche	7	Julio	2023-07-21T00:00:00	2024-11-06T18:00:00	5	Humedad	60
38741	7	Sololá	701	Sololá	3	Barraneche	7	Julio	2023-07-21T00:00:00	2024-11-06T18:00:00	6	Velocidad del viento	8
38742	7	Sololá	701	Sololá	3	Barraneche	7	Julio	2023-07-21T00:00:00	2024-11-06T18:00:00	7	Dirección del viento	8.05
38743	7	Sololá	701	Sololá	3	Barraneche	7	Julio	2023-07-21T00:00:00	2024-11-06T18:00:00	1	Precipitación	0
38744	7	Sololá	701	Sololá	3	Barraneche	7	Julio	2023-07-21T00:00:00	2024-11-06T18:00:00	8	Radiación solar	43
38745	7	Sololá	701	Sololá	3	Barraneche	7	Julio	2023-07-21T00:00:00	2024-11-06T19:00:00	2	Temperatura media	16.9
38746	7	Sololá	701	Sololá	3	Barraneche	7	Julio	2023-07-21T00:00:00	2024-11-06T19:00:00	4	Temperatura máxima	18.3
38747	7	Sololá	701	Sololá	3	Barraneche	7	Julio	2023-07-21T00:00:00	2024-11-06T19:00:00	3	Temperatura mínima	16.9
38748	7	Sololá	701	Sololá	3	Barraneche	7	Julio	2023-07-21T00:00:00	2024-11-06T19:00:00	5	Humedad	64
38749	7	Sololá	701	Sololá	3	Barraneche	7	Julio	2023-07-21T00:00:00	2024-11-06T19:00:00	6	Velocidad del viento	6.4
38750	7	Sololá	701	Sololá	3	Barraneche	7	Julio	2023-07-21T00:00:00	2024-11-06T19:00:00	7	Dirección del viento	6.44
38751	7	Sololá	701	Sololá	3	Barraneche	7	Julio	2023-07-21T00:00:00	2024-11-06T19:00:00	1	Precipitación	0
38752	7	Sololá	701	Sololá	3	Barraneche	7	Julio	2023-07-21T00:00:00	2024-11-06T19:00:00	8	Radiación solar	0
38753	7	Sololá	701	Sololá	3	Barraneche	7	Julio	2023-07-21T00:00:00	2024-11-06T20:00:00	2	Temperatura media	16.4
38754	7	Sololá	701	Sololá	3	Barraneche	7	Julio	2023-07-21T00:00:00	2024-11-06T20:00:00	4	Temperatura máxima	16.9
38755	7	Sololá	701	Sololá	3	Barraneche	7	Julio	2023-07-21T00:00:00	2024-11-06T20:00:00	3	Temperatura mínima	16.4
38756	7	Sololá	701	Sololá	3	Barraneche	7	Julio	2023-07-21T00:00:00	2024-11-06T20:00:00	5	Humedad	66
38757	7	Sololá	701	Sololá	3	Barraneche	7	Julio	2023-07-21T00:00:00	2024-11-06T20:00:00	6	Velocidad del viento	3.2
38758	7	Sololá	701	Sololá	3	Barraneche	7	Julio	2023-07-21T00:00:00	2024-11-06T20:00:00	7	Dirección del viento	3.22
38759	7	Sololá	701	Sololá	3	Barraneche	7	Julio	2023-07-21T00:00:00	2024-11-06T20:00:00	1	Precipitación	0
38760	7	Sololá	701	Sololá	3	Barraneche	7	Julio	2023-07-21T00:00:00	2024-11-06T20:00:00	8	Radiación solar	0
38761	7	Sololá	701	Sololá	3	Barraneche	7	Julio	2023-07-21T00:00:00	2024-11-06T21:00:00	2	Temperatura media	16.2
38762	7	Sololá	701	Sololá	3	Barraneche	7	Julio	2023-07-21T00:00:00	2024-11-06T21:00:00	4	Temperatura máxima	16.4
38763	7	Sololá	701	Sololá	3	Barraneche	7	Julio	2023-07-21T00:00:00	2024-11-06T21:00:00	3	Temperatura mínima	16.1
38764	7	Sololá	701	Sololá	3	Barraneche	7	Julio	2023-07-21T00:00:00	2024-11-06T21:00:00	5	Humedad	66
38765	7	Sololá	701	Sololá	3	Barraneche	7	Julio	2023-07-21T00:00:00	2024-11-06T21:00:00	6	Velocidad del viento	3.2
38766	7	Sololá	701	Sololá	3	Barraneche	7	Julio	2023-07-21T00:00:00	2024-11-06T21:00:00	7	Dirección del viento	3.22
38767	7	Sololá	701	Sololá	3	Barraneche	7	Julio	2023-07-21T00:00:00	2024-11-06T21:00:00	1	Precipitación	0
38768	7	Sololá	701	Sololá	3	Barraneche	7	Julio	2023-07-21T00:00:00	2024-11-06T21:00:00	8	Radiación solar	0
38769	7	Sololá	701	Sololá	3	Barraneche	7	Julio	2023-07-21T00:00:00	2024-11-06T22:00:00	2	Temperatura media	15.8
38770	7	Sololá	701	Sololá	3	Barraneche	7	Julio	2023-07-21T00:00:00	2024-11-06T22:00:00	4	Temperatura máxima	16.2
38771	7	Sololá	701	Sololá	3	Barraneche	7	Julio	2023-07-21T00:00:00	2024-11-06T22:00:00	3	Temperatura mínima	15.8
38772	7	Sololá	701	Sololá	3	Barraneche	7	Julio	2023-07-21T00:00:00	2024-11-06T22:00:00	5	Humedad	66
38773	7	Sololá	701	Sololá	3	Barraneche	7	Julio	2023-07-21T00:00:00	2024-11-06T22:00:00	6	Velocidad del viento	4.8
38774	7	Sololá	701	Sololá	3	Barraneche	7	Julio	2023-07-21T00:00:00	2024-11-06T22:00:00	7	Dirección del viento	4.83
38775	7	Sololá	701	Sololá	3	Barraneche	7	Julio	2023-07-21T00:00:00	2024-11-06T22:00:00	1	Precipitación	0
38776	7	Sololá	701	Sololá	3	Barraneche	7	Julio	2023-07-21T00:00:00	2024-11-06T22:00:00	8	Radiación solar	0
38777	7	Sololá	701	Sololá	3	Barraneche	7	Julio	2023-07-21T00:00:00	2024-11-06T23:00:00	2	Temperatura media	13.8
38778	7	Sololá	701	Sololá	3	Barraneche	7	Julio	2023-07-21T00:00:00	2024-11-06T23:00:00	4	Temperatura máxima	15.8
38779	7	Sololá	701	Sololá	3	Barraneche	7	Julio	2023-07-21T00:00:00	2024-11-06T23:00:00	3	Temperatura mínima	13.8
38780	7	Sololá	701	Sololá	3	Barraneche	7	Julio	2023-07-21T00:00:00	2024-11-06T23:00:00	5	Humedad	71
38781	7	Sololá	701	Sololá	3	Barraneche	7	Julio	2023-07-21T00:00:00	2024-11-06T23:00:00	6	Velocidad del viento	3.2
38782	7	Sololá	701	Sololá	3	Barraneche	7	Julio	2023-07-21T00:00:00	2024-11-06T23:00:00	7	Dirección del viento	3.22
38783	7	Sololá	701	Sololá	3	Barraneche	7	Julio	2023-07-21T00:00:00	2024-11-06T23:00:00	1	Precipitación	0
38784	7	Sololá	701	Sololá	3	Barraneche	7	Julio	2023-07-21T00:00:00	2024-11-06T23:00:00	8	Radiación solar	0
38785	7	Sololá	701	Sololá	3	Barraneche	7	Julio	2023-07-22T00:00:00	2024-11-06T00:00:00	2	Temperatura media	13.2
38786	7	Sololá	701	Sololá	3	Barraneche	7	Julio	2023-07-22T00:00:00	2024-11-06T00:00:00	4	Temperatura máxima	14.1
38787	7	Sololá	701	Sololá	3	Barraneche	7	Julio	2023-07-22T00:00:00	2024-11-06T00:00:00	3	Temperatura mínima	13.2
38788	7	Sololá	701	Sololá	3	Barraneche	7	Julio	2023-07-22T00:00:00	2024-11-06T00:00:00	5	Humedad	71
38789	7	Sololá	701	Sololá	3	Barraneche	7	Julio	2023-07-22T00:00:00	2024-11-06T00:00:00	6	Velocidad del viento	1.6
38790	7	Sololá	701	Sololá	3	Barraneche	7	Julio	2023-07-22T00:00:00	2024-11-06T00:00:00	7	Dirección del viento	1.61
38791	7	Sololá	701	Sololá	3	Barraneche	7	Julio	2023-07-22T00:00:00	2024-11-06T00:00:00	1	Precipitación	0
38792	7	Sololá	701	Sololá	3	Barraneche	7	Julio	2023-07-22T00:00:00	2024-11-06T00:00:00	8	Radiación solar	0
38793	7	Sololá	701	Sololá	3	Barraneche	7	Julio	2023-07-22T00:00:00	2024-11-06T01:00:00	2	Temperatura media	12.4
38794	7	Sololá	701	Sololá	3	Barraneche	7	Julio	2023-07-22T00:00:00	2024-11-06T01:00:00	4	Temperatura máxima	13.2
38795	7	Sololá	701	Sololá	3	Barraneche	7	Julio	2023-07-22T00:00:00	2024-11-06T01:00:00	3	Temperatura mínima	12.4
38796	7	Sololá	701	Sololá	3	Barraneche	7	Julio	2023-07-22T00:00:00	2024-11-06T01:00:00	5	Humedad	71
38797	7	Sololá	701	Sololá	3	Barraneche	7	Julio	2023-07-22T00:00:00	2024-11-06T01:00:00	6	Velocidad del viento	1.6
38798	7	Sololá	701	Sololá	3	Barraneche	7	Julio	2023-07-22T00:00:00	2024-11-06T01:00:00	7	Dirección del viento	1.61
38799	7	Sololá	701	Sololá	3	Barraneche	7	Julio	2023-07-22T00:00:00	2024-11-06T01:00:00	1	Precipitación	0
38800	7	Sololá	701	Sololá	3	Barraneche	7	Julio	2023-07-22T00:00:00	2024-11-06T01:00:00	8	Radiación solar	0
38801	7	Sololá	701	Sololá	3	Barraneche	7	Julio	2023-07-22T00:00:00	2024-11-06T02:00:00	2	Temperatura media	12.2
38802	7	Sololá	701	Sololá	3	Barraneche	7	Julio	2023-07-22T00:00:00	2024-11-06T02:00:00	4	Temperatura máxima	12.6
38803	7	Sololá	701	Sololá	3	Barraneche	7	Julio	2023-07-22T00:00:00	2024-11-06T02:00:00	3	Temperatura mínima	12.2
38804	7	Sololá	701	Sololá	3	Barraneche	7	Julio	2023-07-22T00:00:00	2024-11-06T02:00:00	5	Humedad	68
38805	7	Sololá	701	Sololá	3	Barraneche	7	Julio	2023-07-22T00:00:00	2024-11-06T02:00:00	6	Velocidad del viento	4.8
38806	7	Sololá	701	Sololá	3	Barraneche	7	Julio	2023-07-22T00:00:00	2024-11-06T02:00:00	7	Dirección del viento	4.83
38807	7	Sololá	701	Sololá	3	Barraneche	7	Julio	2023-07-22T00:00:00	2024-11-06T02:00:00	1	Precipitación	0
38808	7	Sololá	701	Sololá	3	Barraneche	7	Julio	2023-07-22T00:00:00	2024-11-06T02:00:00	8	Radiación solar	0
38809	7	Sololá	701	Sololá	3	Barraneche	7	Julio	2023-07-22T00:00:00	2024-11-06T03:00:00	2	Temperatura media	11.9
38810	7	Sololá	701	Sololá	3	Barraneche	7	Julio	2023-07-22T00:00:00	2024-11-06T03:00:00	4	Temperatura máxima	12.2
38811	7	Sololá	701	Sololá	3	Barraneche	7	Julio	2023-07-22T00:00:00	2024-11-06T03:00:00	3	Temperatura mínima	11.8
38812	7	Sololá	701	Sololá	3	Barraneche	7	Julio	2023-07-22T00:00:00	2024-11-06T03:00:00	5	Humedad	69
38813	7	Sololá	701	Sololá	3	Barraneche	7	Julio	2023-07-22T00:00:00	2024-11-06T03:00:00	6	Velocidad del viento	1.6
38814	7	Sololá	701	Sololá	3	Barraneche	7	Julio	2023-07-22T00:00:00	2024-11-06T03:00:00	7	Dirección del viento	1.61
38815	7	Sololá	701	Sololá	3	Barraneche	7	Julio	2023-07-22T00:00:00	2024-11-06T03:00:00	1	Precipitación	0
38816	7	Sololá	701	Sololá	3	Barraneche	7	Julio	2023-07-22T00:00:00	2024-11-06T03:00:00	8	Radiación solar	0
38817	7	Sololá	701	Sololá	3	Barraneche	7	Julio	2023-07-22T00:00:00	2024-11-06T04:00:00	2	Temperatura media	12.4
38818	7	Sololá	701	Sololá	3	Barraneche	7	Julio	2023-07-22T00:00:00	2024-11-06T04:00:00	4	Temperatura máxima	12.7
38819	7	Sololá	701	Sololá	3	Barraneche	7	Julio	2023-07-22T00:00:00	2024-11-06T04:00:00	3	Temperatura mínima	11.9
38820	7	Sololá	701	Sololá	3	Barraneche	7	Julio	2023-07-22T00:00:00	2024-11-06T04:00:00	5	Humedad	68
38821	7	Sololá	701	Sololá	3	Barraneche	7	Julio	2023-07-22T00:00:00	2024-11-06T04:00:00	6	Velocidad del viento	4.8
38822	7	Sololá	701	Sololá	3	Barraneche	7	Julio	2023-07-22T00:00:00	2024-11-06T04:00:00	7	Dirección del viento	4.83
38823	7	Sololá	701	Sololá	3	Barraneche	7	Julio	2023-07-22T00:00:00	2024-11-06T04:00:00	1	Precipitación	0
38824	7	Sololá	701	Sololá	3	Barraneche	7	Julio	2023-07-22T00:00:00	2024-11-06T04:00:00	8	Radiación solar	0
38825	7	Sololá	701	Sololá	3	Barraneche	7	Julio	2023-07-22T00:00:00	2024-11-06T05:00:00	2	Temperatura media	11.9
38826	7	Sololá	701	Sololá	3	Barraneche	7	Julio	2023-07-22T00:00:00	2024-11-06T05:00:00	4	Temperatura máxima	12.6
38827	7	Sololá	701	Sololá	3	Barraneche	7	Julio	2023-07-22T00:00:00	2024-11-06T05:00:00	3	Temperatura mínima	11.9
38828	7	Sololá	701	Sololá	3	Barraneche	7	Julio	2023-07-22T00:00:00	2024-11-06T05:00:00	5	Humedad	68
38829	7	Sololá	701	Sololá	3	Barraneche	7	Julio	2023-07-22T00:00:00	2024-11-06T05:00:00	6	Velocidad del viento	4.8
38830	7	Sololá	701	Sololá	3	Barraneche	7	Julio	2023-07-22T00:00:00	2024-11-06T05:00:00	7	Dirección del viento	4.83
38831	7	Sololá	701	Sololá	3	Barraneche	7	Julio	2023-07-22T00:00:00	2024-11-06T05:00:00	1	Precipitación	0
38832	7	Sololá	701	Sololá	3	Barraneche	7	Julio	2023-07-22T00:00:00	2024-11-06T05:00:00	8	Radiación solar	0
38833	7	Sololá	701	Sololá	3	Barraneche	7	Julio	2023-07-22T00:00:00	2024-11-06T06:00:00	2	Temperatura media	11.9
38834	7	Sololá	701	Sololá	3	Barraneche	7	Julio	2023-07-22T00:00:00	2024-11-06T06:00:00	4	Temperatura máxima	12.4
38835	7	Sololá	701	Sololá	3	Barraneche	7	Julio	2023-07-22T00:00:00	2024-11-06T06:00:00	3	Temperatura mínima	11.7
38836	7	Sololá	701	Sololá	3	Barraneche	7	Julio	2023-07-22T00:00:00	2024-11-06T06:00:00	5	Humedad	68
38837	7	Sololá	701	Sololá	3	Barraneche	7	Julio	2023-07-22T00:00:00	2024-11-06T06:00:00	6	Velocidad del viento	4.8
38838	7	Sololá	701	Sololá	3	Barraneche	7	Julio	2023-07-22T00:00:00	2024-11-06T06:00:00	7	Dirección del viento	4.83
38839	7	Sololá	701	Sololá	3	Barraneche	7	Julio	2023-07-22T00:00:00	2024-11-06T06:00:00	1	Precipitación	0
38840	7	Sololá	701	Sololá	3	Barraneche	7	Julio	2023-07-22T00:00:00	2024-11-06T06:00:00	8	Radiación solar	1
38841	7	Sololá	701	Sololá	3	Barraneche	7	Julio	2023-07-22T00:00:00	2024-11-06T07:00:00	2	Temperatura media	13.2
38842	7	Sololá	701	Sololá	3	Barraneche	7	Julio	2023-07-22T00:00:00	2024-11-06T07:00:00	4	Temperatura máxima	13.2
38843	7	Sololá	701	Sololá	3	Barraneche	7	Julio	2023-07-22T00:00:00	2024-11-06T07:00:00	3	Temperatura mínima	11.8
38844	7	Sololá	701	Sololá	3	Barraneche	7	Julio	2023-07-22T00:00:00	2024-11-06T07:00:00	5	Humedad	68
38845	7	Sololá	701	Sololá	3	Barraneche	7	Julio	2023-07-22T00:00:00	2024-11-06T07:00:00	6	Velocidad del viento	1.6
38846	7	Sololá	701	Sololá	3	Barraneche	7	Julio	2023-07-22T00:00:00	2024-11-06T07:00:00	7	Dirección del viento	1.61
38847	7	Sololá	701	Sololá	3	Barraneche	7	Julio	2023-07-22T00:00:00	2024-11-06T07:00:00	1	Precipitación	0
38848	7	Sololá	701	Sololá	3	Barraneche	7	Julio	2023-07-22T00:00:00	2024-11-06T07:00:00	8	Radiación solar	87
38849	7	Sololá	701	Sololá	3	Barraneche	7	Julio	2023-07-22T00:00:00	2024-11-06T08:00:00	2	Temperatura media	16.3
38850	7	Sololá	701	Sololá	3	Barraneche	7	Julio	2023-07-22T00:00:00	2024-11-06T08:00:00	4	Temperatura máxima	16.4
38851	7	Sololá	701	Sololá	3	Barraneche	7	Julio	2023-07-22T00:00:00	2024-11-06T08:00:00	3	Temperatura mínima	13.2
38852	7	Sololá	701	Sololá	3	Barraneche	7	Julio	2023-07-22T00:00:00	2024-11-06T08:00:00	5	Humedad	62
38853	7	Sololá	701	Sololá	3	Barraneche	7	Julio	2023-07-22T00:00:00	2024-11-06T08:00:00	6	Velocidad del viento	4.8
38854	7	Sololá	701	Sololá	3	Barraneche	7	Julio	2023-07-22T00:00:00	2024-11-06T08:00:00	7	Dirección del viento	4.83
38855	7	Sololá	701	Sololá	3	Barraneche	7	Julio	2023-07-22T00:00:00	2024-11-06T08:00:00	1	Precipitación	0
38856	7	Sololá	701	Sololá	3	Barraneche	7	Julio	2023-07-22T00:00:00	2024-11-06T08:00:00	8	Radiación solar	316
38857	7	Sololá	701	Sololá	3	Barraneche	7	Julio	2023-07-22T00:00:00	2024-11-06T09:00:00	2	Temperatura media	18.3
38858	7	Sololá	701	Sololá	3	Barraneche	7	Julio	2023-07-22T00:00:00	2024-11-06T09:00:00	4	Temperatura máxima	18.4
38859	7	Sololá	701	Sololá	3	Barraneche	7	Julio	2023-07-22T00:00:00	2024-11-06T09:00:00	3	Temperatura mínima	16.2
38860	7	Sololá	701	Sololá	3	Barraneche	7	Julio	2023-07-22T00:00:00	2024-11-06T09:00:00	5	Humedad	57
38861	7	Sololá	701	Sololá	3	Barraneche	7	Julio	2023-07-22T00:00:00	2024-11-06T09:00:00	6	Velocidad del viento	3.2
38862	7	Sololá	701	Sololá	3	Barraneche	7	Julio	2023-07-22T00:00:00	2024-11-06T09:00:00	7	Dirección del viento	3.22
38863	7	Sololá	701	Sololá	3	Barraneche	7	Julio	2023-07-22T00:00:00	2024-11-06T09:00:00	1	Precipitación	0
38864	7	Sololá	701	Sololá	3	Barraneche	7	Julio	2023-07-22T00:00:00	2024-11-06T09:00:00	8	Radiación solar	541
38865	7	Sololá	701	Sololá	3	Barraneche	7	Julio	2023-07-22T00:00:00	2024-11-06T10:00:00	2	Temperatura media	18.2
38866	7	Sololá	701	Sololá	3	Barraneche	7	Julio	2023-07-22T00:00:00	2024-11-06T10:00:00	4	Temperatura máxima	18.8
38867	7	Sololá	701	Sololá	3	Barraneche	7	Julio	2023-07-22T00:00:00	2024-11-06T10:00:00	3	Temperatura mínima	18.1
38868	7	Sololá	701	Sololá	3	Barraneche	7	Julio	2023-07-22T00:00:00	2024-11-06T10:00:00	5	Humedad	59
38869	7	Sololá	701	Sololá	3	Barraneche	7	Julio	2023-07-22T00:00:00	2024-11-06T10:00:00	6	Velocidad del viento	8
38870	7	Sololá	701	Sololá	3	Barraneche	7	Julio	2023-07-22T00:00:00	2024-11-06T10:00:00	7	Dirección del viento	8.05
38871	7	Sololá	701	Sololá	3	Barraneche	7	Julio	2023-07-22T00:00:00	2024-11-06T10:00:00	1	Precipitación	0
38872	7	Sololá	701	Sololá	3	Barraneche	7	Julio	2023-07-22T00:00:00	2024-11-06T10:00:00	8	Radiación solar	586
38873	7	Sololá	701	Sololá	3	Barraneche	7	Julio	2023-07-22T00:00:00	2024-11-06T11:00:00	2	Temperatura media	19.3
38874	7	Sololá	701	Sololá	3	Barraneche	7	Julio	2023-07-22T00:00:00	2024-11-06T11:00:00	4	Temperatura máxima	19.4
38875	7	Sololá	701	Sololá	3	Barraneche	7	Julio	2023-07-22T00:00:00	2024-11-06T11:00:00	3	Temperatura mínima	18.1
38876	7	Sololá	701	Sololá	3	Barraneche	7	Julio	2023-07-22T00:00:00	2024-11-06T11:00:00	5	Humedad	55
38877	7	Sololá	701	Sololá	3	Barraneche	7	Julio	2023-07-22T00:00:00	2024-11-06T11:00:00	6	Velocidad del viento	6.4
38878	7	Sololá	701	Sololá	3	Barraneche	7	Julio	2023-07-22T00:00:00	2024-11-06T11:00:00	7	Dirección del viento	6.44
38879	7	Sololá	701	Sololá	3	Barraneche	7	Julio	2023-07-22T00:00:00	2024-11-06T11:00:00	1	Precipitación	0
38880	7	Sololá	701	Sololá	3	Barraneche	7	Julio	2023-07-22T00:00:00	2024-11-06T11:00:00	8	Radiación solar	426
38881	7	Sololá	701	Sololá	3	Barraneche	7	Julio	2023-07-22T00:00:00	2024-11-06T12:00:00	2	Temperatura media	17.7
38882	7	Sololá	701	Sololá	3	Barraneche	7	Julio	2023-07-22T00:00:00	2024-11-06T12:00:00	4	Temperatura máxima	19.4
38883	7	Sololá	701	Sololá	3	Barraneche	7	Julio	2023-07-22T00:00:00	2024-11-06T12:00:00	3	Temperatura mínima	17.7
38884	7	Sololá	701	Sololá	3	Barraneche	7	Julio	2023-07-22T00:00:00	2024-11-06T12:00:00	5	Humedad	64
38885	7	Sololá	701	Sololá	3	Barraneche	7	Julio	2023-07-22T00:00:00	2024-11-06T12:00:00	6	Velocidad del viento	8
38886	7	Sololá	701	Sololá	3	Barraneche	7	Julio	2023-07-22T00:00:00	2024-11-06T12:00:00	7	Dirección del viento	8.05
38887	7	Sololá	701	Sololá	3	Barraneche	7	Julio	2023-07-22T00:00:00	2024-11-06T12:00:00	1	Precipitación	0
38888	7	Sololá	701	Sololá	3	Barraneche	7	Julio	2023-07-22T00:00:00	2024-11-06T12:00:00	8	Radiación solar	244
38889	7	Sololá	701	Sololá	3	Barraneche	7	Julio	2023-07-22T00:00:00	2024-11-06T13:00:00	2	Temperatura media	12.9
38890	7	Sololá	701	Sololá	3	Barraneche	7	Julio	2023-07-22T00:00:00	2024-11-06T13:00:00	4	Temperatura máxima	17.7
38891	7	Sololá	701	Sololá	3	Barraneche	7	Julio	2023-07-22T00:00:00	2024-11-06T13:00:00	3	Temperatura mínima	12.9
38892	7	Sololá	701	Sololá	3	Barraneche	7	Julio	2023-07-22T00:00:00	2024-11-06T13:00:00	5	Humedad	72
38893	7	Sololá	701	Sololá	3	Barraneche	7	Julio	2023-07-22T00:00:00	2024-11-06T13:00:00	6	Velocidad del viento	9.7
38894	7	Sololá	701	Sololá	3	Barraneche	7	Julio	2023-07-22T00:00:00	2024-11-06T13:00:00	7	Dirección del viento	9.66
38895	7	Sololá	701	Sololá	3	Barraneche	7	Julio	2023-07-22T00:00:00	2024-11-06T13:00:00	1	Precipitación	7.4
38896	7	Sololá	701	Sololá	3	Barraneche	7	Julio	2023-07-22T00:00:00	2024-11-06T13:00:00	8	Radiación solar	60
38897	7	Sololá	701	Sololá	3	Barraneche	7	Julio	2023-07-22T00:00:00	2024-11-06T14:00:00	2	Temperatura media	14.3
38898	7	Sololá	701	Sololá	3	Barraneche	7	Julio	2023-07-22T00:00:00	2024-11-06T14:00:00	4	Temperatura máxima	14.3
38899	7	Sololá	701	Sololá	3	Barraneche	7	Julio	2023-07-22T00:00:00	2024-11-06T14:00:00	3	Temperatura mínima	12.8
38900	7	Sololá	701	Sololá	3	Barraneche	7	Julio	2023-07-22T00:00:00	2024-11-06T14:00:00	5	Humedad	76
38901	7	Sololá	701	Sololá	3	Barraneche	7	Julio	2023-07-22T00:00:00	2024-11-06T14:00:00	6	Velocidad del viento	6.4
38902	7	Sololá	701	Sololá	3	Barraneche	7	Julio	2023-07-22T00:00:00	2024-11-06T14:00:00	7	Dirección del viento	6.44
38903	7	Sololá	701	Sololá	3	Barraneche	7	Julio	2023-07-22T00:00:00	2024-11-06T14:00:00	1	Precipitación	2.2
38904	7	Sololá	701	Sololá	3	Barraneche	7	Julio	2023-07-22T00:00:00	2024-11-06T14:00:00	8	Radiación solar	133
38905	7	Sololá	701	Sololá	3	Barraneche	7	Julio	2023-07-22T00:00:00	2024-11-06T15:00:00	2	Temperatura media	16.1
38906	7	Sololá	701	Sololá	3	Barraneche	7	Julio	2023-07-22T00:00:00	2024-11-06T15:00:00	4	Temperatura máxima	16.1
38907	7	Sololá	701	Sololá	3	Barraneche	7	Julio	2023-07-22T00:00:00	2024-11-06T15:00:00	3	Temperatura mínima	14.3
38908	7	Sololá	701	Sololá	3	Barraneche	7	Julio	2023-07-22T00:00:00	2024-11-06T15:00:00	5	Humedad	68
38909	7	Sololá	701	Sololá	3	Barraneche	7	Julio	2023-07-22T00:00:00	2024-11-06T15:00:00	6	Velocidad del viento	3.2
38910	7	Sololá	701	Sololá	3	Barraneche	7	Julio	2023-07-22T00:00:00	2024-11-06T15:00:00	7	Dirección del viento	3.22
38911	7	Sololá	701	Sololá	3	Barraneche	7	Julio	2023-07-22T00:00:00	2024-11-06T15:00:00	1	Precipitación	0
38912	7	Sololá	701	Sololá	3	Barraneche	7	Julio	2023-07-22T00:00:00	2024-11-06T15:00:00	8	Radiación solar	316
38913	7	Sololá	701	Sololá	3	Barraneche	7	Julio	2023-07-22T00:00:00	2024-11-06T16:00:00	2	Temperatura media	15.4
38914	7	Sololá	701	Sololá	3	Barraneche	7	Julio	2023-07-22T00:00:00	2024-11-06T16:00:00	4	Temperatura máxima	16.2
38915	7	Sololá	701	Sololá	3	Barraneche	7	Julio	2023-07-22T00:00:00	2024-11-06T16:00:00	3	Temperatura mínima	15.4
38916	7	Sololá	701	Sololá	3	Barraneche	7	Julio	2023-07-22T00:00:00	2024-11-06T16:00:00	5	Humedad	66
38917	7	Sololá	701	Sololá	3	Barraneche	7	Julio	2023-07-22T00:00:00	2024-11-06T16:00:00	6	Velocidad del viento	3.2
38918	7	Sololá	701	Sololá	3	Barraneche	7	Julio	2023-07-22T00:00:00	2024-11-06T16:00:00	7	Dirección del viento	3.22
38919	7	Sololá	701	Sololá	3	Barraneche	7	Julio	2023-07-22T00:00:00	2024-11-06T16:00:00	1	Precipitación	0
38920	7	Sololá	701	Sololá	3	Barraneche	7	Julio	2023-07-22T00:00:00	2024-11-06T16:00:00	8	Radiación solar	132
38921	7	Sololá	701	Sololá	3	Barraneche	7	Julio	2023-07-22T00:00:00	2024-11-06T17:00:00	2	Temperatura media	14.8
38922	7	Sololá	701	Sololá	3	Barraneche	7	Julio	2023-07-22T00:00:00	2024-11-06T17:00:00	4	Temperatura máxima	15.6
38923	7	Sololá	701	Sololá	3	Barraneche	7	Julio	2023-07-22T00:00:00	2024-11-06T17:00:00	3	Temperatura mínima	14.8
38924	7	Sololá	701	Sololá	3	Barraneche	7	Julio	2023-07-22T00:00:00	2024-11-06T17:00:00	5	Humedad	74
38925	7	Sololá	701	Sololá	3	Barraneche	7	Julio	2023-07-22T00:00:00	2024-11-06T17:00:00	6	Velocidad del viento	1.6
38926	7	Sololá	701	Sololá	3	Barraneche	7	Julio	2023-07-22T00:00:00	2024-11-06T17:00:00	7	Dirección del viento	1.61
38927	7	Sololá	701	Sololá	3	Barraneche	7	Julio	2023-07-22T00:00:00	2024-11-06T17:00:00	1	Precipitación	0
38928	7	Sololá	701	Sololá	3	Barraneche	7	Julio	2023-07-22T00:00:00	2024-11-06T17:00:00	8	Radiación solar	29
38929	7	Sololá	701	Sololá	3	Barraneche	7	Julio	2023-07-22T00:00:00	2024-11-06T18:00:00	2	Temperatura media	14
38930	7	Sololá	701	Sololá	3	Barraneche	7	Julio	2023-07-22T00:00:00	2024-11-06T18:00:00	4	Temperatura máxima	14.8
38931	7	Sololá	701	Sololá	3	Barraneche	7	Julio	2023-07-22T00:00:00	2024-11-06T18:00:00	3	Temperatura mínima	14
38932	7	Sololá	701	Sololá	3	Barraneche	7	Julio	2023-07-22T00:00:00	2024-11-06T18:00:00	5	Humedad	74
38933	7	Sololá	701	Sololá	3	Barraneche	7	Julio	2023-07-22T00:00:00	2024-11-06T18:00:00	6	Velocidad del viento	4.8
38934	7	Sololá	701	Sololá	3	Barraneche	7	Julio	2023-07-22T00:00:00	2024-11-06T18:00:00	7	Dirección del viento	4.83
38935	7	Sololá	701	Sololá	3	Barraneche	7	Julio	2023-07-22T00:00:00	2024-11-06T18:00:00	1	Precipitación	0.6
38936	7	Sololá	701	Sololá	3	Barraneche	7	Julio	2023-07-22T00:00:00	2024-11-06T18:00:00	8	Radiación solar	40
38937	7	Sololá	701	Sololá	3	Barraneche	7	Julio	2023-07-22T00:00:00	2024-11-06T19:00:00	2	Temperatura media	13.2
38938	7	Sololá	701	Sololá	3	Barraneche	7	Julio	2023-07-22T00:00:00	2024-11-06T19:00:00	4	Temperatura máxima	14.1
38939	7	Sololá	701	Sololá	3	Barraneche	7	Julio	2023-07-22T00:00:00	2024-11-06T19:00:00	3	Temperatura mínima	13.2
38940	7	Sololá	701	Sololá	3	Barraneche	7	Julio	2023-07-22T00:00:00	2024-11-06T19:00:00	5	Humedad	74
38941	7	Sololá	701	Sololá	3	Barraneche	7	Julio	2023-07-22T00:00:00	2024-11-06T19:00:00	6	Velocidad del viento	4.8
38942	7	Sololá	701	Sololá	3	Barraneche	7	Julio	2023-07-22T00:00:00	2024-11-06T19:00:00	7	Dirección del viento	4.83
38943	7	Sololá	701	Sololá	3	Barraneche	7	Julio	2023-07-22T00:00:00	2024-11-06T19:00:00	1	Precipitación	0
38944	7	Sololá	701	Sololá	3	Barraneche	7	Julio	2023-07-22T00:00:00	2024-11-06T19:00:00	8	Radiación solar	0
38945	7	Sololá	701	Sololá	3	Barraneche	7	Julio	2023-07-22T00:00:00	2024-11-06T20:00:00	2	Temperatura media	12.7
38946	7	Sololá	701	Sololá	3	Barraneche	7	Julio	2023-07-22T00:00:00	2024-11-06T20:00:00	4	Temperatura máxima	13.2
38947	7	Sololá	701	Sololá	3	Barraneche	7	Julio	2023-07-22T00:00:00	2024-11-06T20:00:00	3	Temperatura mínima	12.7
38948	7	Sololá	701	Sololá	3	Barraneche	7	Julio	2023-07-22T00:00:00	2024-11-06T20:00:00	5	Humedad	76
38949	7	Sololá	701	Sololá	3	Barraneche	7	Julio	2023-07-22T00:00:00	2024-11-06T20:00:00	6	Velocidad del viento	3.2
38950	7	Sololá	701	Sololá	3	Barraneche	7	Julio	2023-07-22T00:00:00	2024-11-06T20:00:00	7	Dirección del viento	3.22
38951	7	Sololá	701	Sololá	3	Barraneche	7	Julio	2023-07-22T00:00:00	2024-11-06T20:00:00	1	Precipitación	0
38952	7	Sololá	701	Sololá	3	Barraneche	7	Julio	2023-07-22T00:00:00	2024-11-06T20:00:00	8	Radiación solar	0
38953	7	Sololá	701	Sololá	3	Barraneche	7	Julio	2023-07-22T00:00:00	2024-11-06T21:00:00	2	Temperatura media	12.3
38954	7	Sololá	701	Sololá	3	Barraneche	7	Julio	2023-07-22T00:00:00	2024-11-06T21:00:00	4	Temperatura máxima	13
38955	7	Sololá	701	Sololá	3	Barraneche	7	Julio	2023-07-22T00:00:00	2024-11-06T21:00:00	3	Temperatura mínima	12.3
38956	7	Sololá	701	Sololá	3	Barraneche	7	Julio	2023-07-22T00:00:00	2024-11-06T21:00:00	5	Humedad	76
38957	7	Sololá	701	Sololá	3	Barraneche	7	Julio	2023-07-22T00:00:00	2024-11-06T21:00:00	6	Velocidad del viento	3.2
38958	7	Sololá	701	Sololá	3	Barraneche	7	Julio	2023-07-22T00:00:00	2024-11-06T21:00:00	7	Dirección del viento	3.22
38959	7	Sololá	701	Sololá	3	Barraneche	7	Julio	2023-07-22T00:00:00	2024-11-06T21:00:00	1	Precipitación	0
38960	7	Sololá	701	Sololá	3	Barraneche	7	Julio	2023-07-22T00:00:00	2024-11-06T21:00:00	8	Radiación solar	0
38961	7	Sololá	701	Sololá	3	Barraneche	7	Julio	2023-07-22T00:00:00	2024-11-06T22:00:00	2	Temperatura media	12.1
38962	7	Sololá	701	Sololá	3	Barraneche	7	Julio	2023-07-22T00:00:00	2024-11-06T22:00:00	4	Temperatura máxima	12.4
38963	7	Sololá	701	Sololá	3	Barraneche	7	Julio	2023-07-22T00:00:00	2024-11-06T22:00:00	3	Temperatura mínima	12.1
38964	7	Sololá	701	Sololá	3	Barraneche	7	Julio	2023-07-22T00:00:00	2024-11-06T22:00:00	5	Humedad	76
38965	7	Sololá	701	Sololá	3	Barraneche	7	Julio	2023-07-22T00:00:00	2024-11-06T22:00:00	6	Velocidad del viento	4.8
38966	7	Sololá	701	Sololá	3	Barraneche	7	Julio	2023-07-22T00:00:00	2024-11-06T22:00:00	7	Dirección del viento	4.83
38967	7	Sololá	701	Sololá	3	Barraneche	7	Julio	2023-07-22T00:00:00	2024-11-06T22:00:00	1	Precipitación	0
38968	7	Sololá	701	Sololá	3	Barraneche	7	Julio	2023-07-22T00:00:00	2024-11-06T22:00:00	8	Radiación solar	0
38969	7	Sololá	701	Sololá	3	Barraneche	7	Julio	2023-07-22T00:00:00	2024-11-06T23:00:00	2	Temperatura media	12.2
38970	7	Sololá	701	Sololá	3	Barraneche	7	Julio	2023-07-22T00:00:00	2024-11-06T23:00:00	4	Temperatura máxima	12.2
38971	7	Sololá	701	Sololá	3	Barraneche	7	Julio	2023-07-22T00:00:00	2024-11-06T23:00:00	3	Temperatura mínima	12
38972	7	Sololá	701	Sololá	3	Barraneche	7	Julio	2023-07-22T00:00:00	2024-11-06T23:00:00	5	Humedad	73
38973	7	Sololá	701	Sololá	3	Barraneche	7	Julio	2023-07-22T00:00:00	2024-11-06T23:00:00	6	Velocidad del viento	4.8
38974	7	Sololá	701	Sololá	3	Barraneche	7	Julio	2023-07-22T00:00:00	2024-11-06T23:00:00	7	Dirección del viento	4.83
38975	7	Sololá	701	Sololá	3	Barraneche	7	Julio	2023-07-22T00:00:00	2024-11-06T23:00:00	1	Precipitación	0
38976	7	Sololá	701	Sololá	3	Barraneche	7	Julio	2023-07-22T00:00:00	2024-11-06T23:00:00	8	Radiación solar	0
38977	7	Sololá	701	Sololá	3	Barraneche	7	Julio	2023-07-23T00:00:00	2024-11-06T00:00:00	2	Temperatura media	11.7
38978	7	Sololá	701	Sololá	3	Barraneche	7	Julio	2023-07-23T00:00:00	2024-11-06T00:00:00	4	Temperatura máxima	12.5
38979	7	Sololá	701	Sololá	3	Barraneche	7	Julio	2023-07-23T00:00:00	2024-11-06T00:00:00	3	Temperatura mínima	11.6
38980	7	Sololá	701	Sololá	3	Barraneche	7	Julio	2023-07-23T00:00:00	2024-11-06T00:00:00	5	Humedad	73
38981	7	Sololá	701	Sololá	3	Barraneche	7	Julio	2023-07-23T00:00:00	2024-11-06T00:00:00	6	Velocidad del viento	3.2
38982	7	Sololá	701	Sololá	3	Barraneche	7	Julio	2023-07-23T00:00:00	2024-11-06T00:00:00	7	Dirección del viento	3.22
38983	7	Sololá	701	Sololá	3	Barraneche	7	Julio	2023-07-23T00:00:00	2024-11-06T00:00:00	1	Precipitación	0
38984	7	Sololá	701	Sololá	3	Barraneche	7	Julio	2023-07-23T00:00:00	2024-11-06T00:00:00	8	Radiación solar	0
38985	7	Sololá	701	Sololá	3	Barraneche	7	Julio	2023-07-23T00:00:00	2024-11-06T01:00:00	2	Temperatura media	12.2
38986	7	Sololá	701	Sololá	3	Barraneche	7	Julio	2023-07-23T00:00:00	2024-11-06T01:00:00	4	Temperatura máxima	12.2
38987	7	Sololá	701	Sololá	3	Barraneche	7	Julio	2023-07-23T00:00:00	2024-11-06T01:00:00	3	Temperatura mínima	11.4
38988	7	Sololá	701	Sololá	3	Barraneche	7	Julio	2023-07-23T00:00:00	2024-11-06T01:00:00	5	Humedad	72
38989	7	Sololá	701	Sololá	3	Barraneche	7	Julio	2023-07-23T00:00:00	2024-11-06T01:00:00	6	Velocidad del viento	4.8
38990	7	Sololá	701	Sololá	3	Barraneche	7	Julio	2023-07-23T00:00:00	2024-11-06T01:00:00	7	Dirección del viento	4.83
38991	7	Sololá	701	Sololá	3	Barraneche	7	Julio	2023-07-23T00:00:00	2024-11-06T01:00:00	1	Precipitación	0
38992	7	Sololá	701	Sololá	3	Barraneche	7	Julio	2023-07-23T00:00:00	2024-11-06T01:00:00	8	Radiación solar	0
38993	7	Sololá	701	Sololá	3	Barraneche	7	Julio	2023-07-23T00:00:00	2024-11-06T02:00:00	2	Temperatura media	12.3
38994	7	Sololá	701	Sololá	3	Barraneche	7	Julio	2023-07-23T00:00:00	2024-11-06T02:00:00	4	Temperatura máxima	12.3
38995	7	Sololá	701	Sololá	3	Barraneche	7	Julio	2023-07-23T00:00:00	2024-11-06T02:00:00	3	Temperatura mínima	12.1
38996	7	Sololá	701	Sololá	3	Barraneche	7	Julio	2023-07-23T00:00:00	2024-11-06T02:00:00	5	Humedad	70
38997	7	Sololá	701	Sololá	3	Barraneche	7	Julio	2023-07-23T00:00:00	2024-11-06T02:00:00	6	Velocidad del viento	6.4
38998	7	Sololá	701	Sololá	3	Barraneche	7	Julio	2023-07-23T00:00:00	2024-11-06T02:00:00	7	Dirección del viento	6.44
38999	7	Sololá	701	Sololá	3	Barraneche	7	Julio	2023-07-23T00:00:00	2024-11-06T02:00:00	1	Precipitación	0
39000	7	Sololá	701	Sololá	3	Barraneche	7	Julio	2023-07-23T00:00:00	2024-11-06T02:00:00	8	Radiación solar	0
39001	7	Sololá	701	Sololá	3	Barraneche	7	Julio	2023-07-23T00:00:00	2024-11-06T03:00:00	2	Temperatura media	12.9
39002	7	Sololá	701	Sololá	3	Barraneche	7	Julio	2023-07-23T00:00:00	2024-11-06T03:00:00	4	Temperatura máxima	13.7
39003	7	Sololá	701	Sololá	3	Barraneche	7	Julio	2023-07-23T00:00:00	2024-11-06T03:00:00	3	Temperatura mínima	12.1
39004	7	Sololá	701	Sololá	3	Barraneche	7	Julio	2023-07-23T00:00:00	2024-11-06T03:00:00	5	Humedad	69
39005	7	Sololá	701	Sololá	3	Barraneche	7	Julio	2023-07-23T00:00:00	2024-11-06T03:00:00	6	Velocidad del viento	4.8
39006	7	Sololá	701	Sololá	3	Barraneche	7	Julio	2023-07-23T00:00:00	2024-11-06T03:00:00	7	Dirección del viento	4.83
39007	7	Sololá	701	Sololá	3	Barraneche	7	Julio	2023-07-23T00:00:00	2024-11-06T03:00:00	1	Precipitación	0
39008	7	Sololá	701	Sololá	3	Barraneche	7	Julio	2023-07-23T00:00:00	2024-11-06T03:00:00	8	Radiación solar	0
39009	7	Sololá	701	Sololá	3	Barraneche	7	Julio	2023-07-23T00:00:00	2024-11-06T04:00:00	2	Temperatura media	12.2
39010	7	Sololá	701	Sololá	3	Barraneche	7	Julio	2023-07-23T00:00:00	2024-11-06T04:00:00	4	Temperatura máxima	12.9
39011	7	Sololá	701	Sololá	3	Barraneche	7	Julio	2023-07-23T00:00:00	2024-11-06T04:00:00	3	Temperatura mínima	12.1
39012	7	Sololá	701	Sololá	3	Barraneche	7	Julio	2023-07-23T00:00:00	2024-11-06T04:00:00	5	Humedad	71
39013	7	Sololá	701	Sololá	3	Barraneche	7	Julio	2023-07-23T00:00:00	2024-11-06T04:00:00	6	Velocidad del viento	3.2
39014	7	Sololá	701	Sololá	3	Barraneche	7	Julio	2023-07-23T00:00:00	2024-11-06T04:00:00	7	Dirección del viento	3.22
39015	7	Sololá	701	Sololá	3	Barraneche	7	Julio	2023-07-23T00:00:00	2024-11-06T04:00:00	1	Precipitación	0
39016	7	Sololá	701	Sololá	3	Barraneche	7	Julio	2023-07-23T00:00:00	2024-11-06T04:00:00	8	Radiación solar	0
39017	7	Sololá	701	Sololá	3	Barraneche	7	Julio	2023-07-23T00:00:00	2024-11-06T05:00:00	2	Temperatura media	11.7
39018	7	Sololá	701	Sololá	3	Barraneche	7	Julio	2023-07-23T00:00:00	2024-11-06T05:00:00	4	Temperatura máxima	12.3
39019	7	Sololá	701	Sololá	3	Barraneche	7	Julio	2023-07-23T00:00:00	2024-11-06T05:00:00	3	Temperatura mínima	11.5
39020	7	Sololá	701	Sololá	3	Barraneche	7	Julio	2023-07-23T00:00:00	2024-11-06T05:00:00	5	Humedad	73
39021	7	Sololá	701	Sololá	3	Barraneche	7	Julio	2023-07-23T00:00:00	2024-11-06T05:00:00	6	Velocidad del viento	3.2
39022	7	Sololá	701	Sololá	3	Barraneche	7	Julio	2023-07-23T00:00:00	2024-11-06T05:00:00	7	Dirección del viento	3.22
39023	7	Sololá	701	Sololá	3	Barraneche	7	Julio	2023-07-23T00:00:00	2024-11-06T05:00:00	1	Precipitación	0
39024	7	Sololá	701	Sololá	3	Barraneche	7	Julio	2023-07-23T00:00:00	2024-11-06T05:00:00	8	Radiación solar	0
39025	7	Sololá	701	Sololá	3	Barraneche	7	Julio	2023-07-23T00:00:00	2024-11-06T06:00:00	2	Temperatura media	11.6
39026	7	Sololá	701	Sololá	3	Barraneche	7	Julio	2023-07-23T00:00:00	2024-11-06T06:00:00	4	Temperatura máxima	12.2
39027	7	Sololá	701	Sololá	3	Barraneche	7	Julio	2023-07-23T00:00:00	2024-11-06T06:00:00	3	Temperatura mínima	11.5
39028	7	Sololá	701	Sololá	3	Barraneche	7	Julio	2023-07-23T00:00:00	2024-11-06T06:00:00	5	Humedad	72
39029	7	Sololá	701	Sololá	3	Barraneche	7	Julio	2023-07-23T00:00:00	2024-11-06T06:00:00	6	Velocidad del viento	3.2
39030	7	Sololá	701	Sololá	3	Barraneche	7	Julio	2023-07-23T00:00:00	2024-11-06T06:00:00	7	Dirección del viento	3.22
39031	7	Sololá	701	Sololá	3	Barraneche	7	Julio	2023-07-23T00:00:00	2024-11-06T06:00:00	1	Precipitación	0
39032	7	Sololá	701	Sololá	3	Barraneche	7	Julio	2023-07-23T00:00:00	2024-11-06T06:00:00	8	Radiación solar	2
39033	7	Sololá	701	Sololá	3	Barraneche	7	Julio	2023-07-23T00:00:00	2024-11-06T07:00:00	2	Temperatura media	12.6
39034	7	Sololá	701	Sololá	3	Barraneche	7	Julio	2023-07-23T00:00:00	2024-11-06T07:00:00	4	Temperatura máxima	12.6
39035	7	Sololá	701	Sololá	3	Barraneche	7	Julio	2023-07-23T00:00:00	2024-11-06T07:00:00	3	Temperatura mínima	11.4
39036	7	Sololá	701	Sololá	3	Barraneche	7	Julio	2023-07-23T00:00:00	2024-11-06T07:00:00	5	Humedad	76
39037	7	Sololá	701	Sololá	3	Barraneche	7	Julio	2023-07-23T00:00:00	2024-11-06T07:00:00	6	Velocidad del viento	3.2
39038	7	Sololá	701	Sololá	3	Barraneche	7	Julio	2023-07-23T00:00:00	2024-11-06T07:00:00	7	Dirección del viento	3.22
39039	7	Sololá	701	Sololá	3	Barraneche	7	Julio	2023-07-23T00:00:00	2024-11-06T07:00:00	1	Precipitación	0
39040	7	Sololá	701	Sololá	3	Barraneche	7	Julio	2023-07-23T00:00:00	2024-11-06T07:00:00	8	Radiación solar	80
39041	7	Sololá	701	Sololá	3	Barraneche	7	Julio	2023-07-23T00:00:00	2024-11-06T08:00:00	2	Temperatura media	16.3
39042	7	Sololá	701	Sololá	3	Barraneche	7	Julio	2023-07-23T00:00:00	2024-11-06T08:00:00	4	Temperatura máxima	16.3
39043	7	Sololá	701	Sololá	3	Barraneche	7	Julio	2023-07-23T00:00:00	2024-11-06T08:00:00	3	Temperatura mínima	12.6
39044	7	Sololá	701	Sololá	3	Barraneche	7	Julio	2023-07-23T00:00:00	2024-11-06T08:00:00	5	Humedad	62
39045	7	Sololá	701	Sololá	3	Barraneche	7	Julio	2023-07-23T00:00:00	2024-11-06T08:00:00	6	Velocidad del viento	4.8
39046	7	Sololá	701	Sololá	3	Barraneche	7	Julio	2023-07-23T00:00:00	2024-11-06T08:00:00	7	Dirección del viento	4.83
39047	7	Sololá	701	Sololá	3	Barraneche	7	Julio	2023-07-23T00:00:00	2024-11-06T08:00:00	1	Precipitación	0
39048	7	Sololá	701	Sololá	3	Barraneche	7	Julio	2023-07-23T00:00:00	2024-11-06T08:00:00	8	Radiación solar	327
39049	7	Sololá	701	Sololá	3	Barraneche	7	Julio	2023-07-23T00:00:00	2024-11-06T09:00:00	2	Temperatura media	16.9
39050	7	Sololá	701	Sololá	3	Barraneche	7	Julio	2023-07-23T00:00:00	2024-11-06T09:00:00	4	Temperatura máxima	17.2
39051	7	Sololá	701	Sololá	3	Barraneche	7	Julio	2023-07-23T00:00:00	2024-11-06T09:00:00	3	Temperatura mínima	16.3
39052	7	Sololá	701	Sololá	3	Barraneche	7	Julio	2023-07-23T00:00:00	2024-11-06T09:00:00	5	Humedad	62
39053	7	Sololá	701	Sololá	3	Barraneche	7	Julio	2023-07-23T00:00:00	2024-11-06T09:00:00	6	Velocidad del viento	8
39054	7	Sololá	701	Sololá	3	Barraneche	7	Julio	2023-07-23T00:00:00	2024-11-06T09:00:00	7	Dirección del viento	8.05
39055	7	Sololá	701	Sololá	3	Barraneche	7	Julio	2023-07-23T00:00:00	2024-11-06T09:00:00	1	Precipitación	0
39056	7	Sololá	701	Sololá	3	Barraneche	7	Julio	2023-07-23T00:00:00	2024-11-06T09:00:00	8	Radiación solar	444
39057	7	Sololá	701	Sololá	3	Barraneche	7	Julio	2023-07-23T00:00:00	2024-11-06T10:00:00	2	Temperatura media	18.3
39058	7	Sololá	701	Sololá	3	Barraneche	7	Julio	2023-07-23T00:00:00	2024-11-06T10:00:00	4	Temperatura máxima	18.4
39059	7	Sololá	701	Sololá	3	Barraneche	7	Julio	2023-07-23T00:00:00	2024-11-06T10:00:00	3	Temperatura mínima	16.9
39060	7	Sololá	701	Sololá	3	Barraneche	7	Julio	2023-07-23T00:00:00	2024-11-06T10:00:00	5	Humedad	55
39061	7	Sololá	701	Sololá	3	Barraneche	7	Julio	2023-07-23T00:00:00	2024-11-06T10:00:00	6	Velocidad del viento	8
39062	7	Sololá	701	Sololá	3	Barraneche	7	Julio	2023-07-23T00:00:00	2024-11-06T10:00:00	7	Dirección del viento	8.05
39063	7	Sololá	701	Sololá	3	Barraneche	7	Julio	2023-07-23T00:00:00	2024-11-06T10:00:00	1	Precipitación	0.2
39064	7	Sololá	701	Sololá	3	Barraneche	7	Julio	2023-07-23T00:00:00	2024-11-06T10:00:00	8	Radiación solar	784
39065	7	Sololá	701	Sololá	3	Barraneche	7	Julio	2023-07-23T00:00:00	2024-11-06T11:00:00	2	Temperatura media	19.4
39066	7	Sololá	701	Sololá	3	Barraneche	7	Julio	2023-07-23T00:00:00	2024-11-06T11:00:00	4	Temperatura máxima	19.5
39067	7	Sololá	701	Sololá	3	Barraneche	7	Julio	2023-07-23T00:00:00	2024-11-06T11:00:00	3	Temperatura mínima	18.3
39068	7	Sololá	701	Sololá	3	Barraneche	7	Julio	2023-07-23T00:00:00	2024-11-06T11:00:00	5	Humedad	56
39069	7	Sololá	701	Sololá	3	Barraneche	7	Julio	2023-07-23T00:00:00	2024-11-06T11:00:00	6	Velocidad del viento	8
39070	7	Sololá	701	Sololá	3	Barraneche	7	Julio	2023-07-23T00:00:00	2024-11-06T11:00:00	7	Dirección del viento	8.05
39071	7	Sololá	701	Sololá	3	Barraneche	7	Julio	2023-07-23T00:00:00	2024-11-06T11:00:00	1	Precipitación	0
39072	7	Sololá	701	Sololá	3	Barraneche	7	Julio	2023-07-23T00:00:00	2024-11-06T11:00:00	8	Radiación solar	851
39073	7	Sololá	701	Sololá	3	Barraneche	7	Julio	2023-07-23T00:00:00	2024-11-06T12:00:00	2	Temperatura media	16.7
39074	7	Sololá	701	Sololá	3	Barraneche	7	Julio	2023-07-23T00:00:00	2024-11-06T12:00:00	4	Temperatura máxima	19.4
39075	7	Sololá	701	Sololá	3	Barraneche	7	Julio	2023-07-23T00:00:00	2024-11-06T12:00:00	3	Temperatura mínima	16.3
39076	7	Sololá	701	Sololá	3	Barraneche	7	Julio	2023-07-23T00:00:00	2024-11-06T12:00:00	5	Humedad	69
39077	7	Sololá	701	Sololá	3	Barraneche	7	Julio	2023-07-23T00:00:00	2024-11-06T12:00:00	6	Velocidad del viento	6.4
39078	7	Sololá	701	Sololá	3	Barraneche	7	Julio	2023-07-23T00:00:00	2024-11-06T12:00:00	7	Dirección del viento	6.44
39079	7	Sololá	701	Sololá	3	Barraneche	7	Julio	2023-07-23T00:00:00	2024-11-06T12:00:00	1	Precipitación	0
39080	7	Sololá	701	Sololá	3	Barraneche	7	Julio	2023-07-23T00:00:00	2024-11-06T12:00:00	8	Radiación solar	370
39081	7	Sololá	701	Sololá	3	Barraneche	7	Julio	2023-07-23T00:00:00	2024-11-06T13:00:00	2	Temperatura media	17.6
39082	7	Sololá	701	Sololá	3	Barraneche	7	Julio	2023-07-23T00:00:00	2024-11-06T13:00:00	4	Temperatura máxima	18.1
39083	7	Sololá	701	Sololá	3	Barraneche	7	Julio	2023-07-23T00:00:00	2024-11-06T13:00:00	3	Temperatura mínima	16.5
39084	7	Sololá	701	Sololá	3	Barraneche	7	Julio	2023-07-23T00:00:00	2024-11-06T13:00:00	5	Humedad	60
39085	7	Sololá	701	Sololá	3	Barraneche	7	Julio	2023-07-23T00:00:00	2024-11-06T13:00:00	6	Velocidad del viento	6.4
39086	7	Sololá	701	Sololá	3	Barraneche	7	Julio	2023-07-23T00:00:00	2024-11-06T13:00:00	7	Dirección del viento	6.44
39087	7	Sololá	701	Sololá	3	Barraneche	7	Julio	2023-07-23T00:00:00	2024-11-06T13:00:00	1	Precipitación	0
39088	7	Sololá	701	Sololá	3	Barraneche	7	Julio	2023-07-23T00:00:00	2024-11-06T13:00:00	8	Radiación solar	401
39089	7	Sololá	701	Sololá	3	Barraneche	7	Julio	2023-07-23T00:00:00	2024-11-06T14:00:00	2	Temperatura media	16.9
39090	7	Sololá	701	Sololá	3	Barraneche	7	Julio	2023-07-23T00:00:00	2024-11-06T14:00:00	4	Temperatura máxima	17.7
39091	7	Sololá	701	Sololá	3	Barraneche	7	Julio	2023-07-23T00:00:00	2024-11-06T14:00:00	3	Temperatura mínima	16.9
39092	7	Sololá	701	Sololá	3	Barraneche	7	Julio	2023-07-23T00:00:00	2024-11-06T14:00:00	5	Humedad	67
39093	7	Sololá	701	Sololá	3	Barraneche	7	Julio	2023-07-23T00:00:00	2024-11-06T14:00:00	6	Velocidad del viento	6.4
39094	7	Sololá	701	Sololá	3	Barraneche	7	Julio	2023-07-23T00:00:00	2024-11-06T14:00:00	7	Dirección del viento	6.44
39095	7	Sololá	701	Sololá	3	Barraneche	7	Julio	2023-07-23T00:00:00	2024-11-06T14:00:00	1	Precipitación	0
39096	7	Sololá	701	Sololá	3	Barraneche	7	Julio	2023-07-23T00:00:00	2024-11-06T14:00:00	8	Radiación solar	457
39097	7	Sololá	701	Sololá	3	Barraneche	7	Julio	2023-07-23T00:00:00	2024-11-06T15:00:00	2	Temperatura media	16.3
39098	7	Sololá	701	Sololá	3	Barraneche	7	Julio	2023-07-23T00:00:00	2024-11-06T15:00:00	4	Temperatura máxima	17.2
39099	7	Sololá	701	Sololá	3	Barraneche	7	Julio	2023-07-23T00:00:00	2024-11-06T15:00:00	3	Temperatura mínima	16.3
39100	7	Sololá	701	Sololá	3	Barraneche	7	Julio	2023-07-23T00:00:00	2024-11-06T15:00:00	5	Humedad	73
39101	7	Sololá	701	Sololá	3	Barraneche	7	Julio	2023-07-23T00:00:00	2024-11-06T15:00:00	6	Velocidad del viento	6.4
39102	7	Sololá	701	Sololá	3	Barraneche	7	Julio	2023-07-23T00:00:00	2024-11-06T15:00:00	7	Dirección del viento	6.44
39103	7	Sololá	701	Sololá	3	Barraneche	7	Julio	2023-07-23T00:00:00	2024-11-06T15:00:00	1	Precipitación	1.8
39104	7	Sololá	701	Sololá	3	Barraneche	7	Julio	2023-07-23T00:00:00	2024-11-06T15:00:00	8	Radiación solar	244
39105	7	Sololá	701	Sololá	3	Barraneche	7	Julio	2023-07-23T00:00:00	2024-11-06T16:00:00	2	Temperatura media	15.2
39106	7	Sololá	701	Sololá	3	Barraneche	7	Julio	2023-07-23T00:00:00	2024-11-06T16:00:00	4	Temperatura máxima	16.3
39107	7	Sololá	701	Sololá	3	Barraneche	7	Julio	2023-07-23T00:00:00	2024-11-06T16:00:00	3	Temperatura mínima	15
39108	7	Sololá	701	Sololá	3	Barraneche	7	Julio	2023-07-23T00:00:00	2024-11-06T16:00:00	5	Humedad	83
39109	7	Sololá	701	Sololá	3	Barraneche	7	Julio	2023-07-23T00:00:00	2024-11-06T16:00:00	6	Velocidad del viento	4.8
39110	7	Sololá	701	Sololá	3	Barraneche	7	Julio	2023-07-23T00:00:00	2024-11-06T16:00:00	7	Dirección del viento	4.83
39111	7	Sololá	701	Sololá	3	Barraneche	7	Julio	2023-07-23T00:00:00	2024-11-06T16:00:00	1	Precipitación	7
39112	7	Sololá	701	Sololá	3	Barraneche	7	Julio	2023-07-23T00:00:00	2024-11-06T16:00:00	8	Radiación solar	121
39113	7	Sololá	701	Sololá	3	Barraneche	7	Julio	2023-07-23T00:00:00	2024-11-06T17:00:00	2	Temperatura media	14.6
39114	7	Sololá	701	Sololá	3	Barraneche	7	Julio	2023-07-23T00:00:00	2024-11-06T17:00:00	4	Temperatura máxima	15.3
39115	7	Sololá	701	Sololá	3	Barraneche	7	Julio	2023-07-23T00:00:00	2024-11-06T17:00:00	3	Temperatura mínima	14.3
39116	7	Sololá	701	Sololá	3	Barraneche	7	Julio	2023-07-23T00:00:00	2024-11-06T17:00:00	5	Humedad	78
39117	7	Sololá	701	Sololá	3	Barraneche	7	Julio	2023-07-23T00:00:00	2024-11-06T17:00:00	6	Velocidad del viento	3.2
39118	7	Sololá	701	Sololá	3	Barraneche	7	Julio	2023-07-23T00:00:00	2024-11-06T17:00:00	7	Dirección del viento	3.22
39119	7	Sololá	701	Sololá	3	Barraneche	7	Julio	2023-07-23T00:00:00	2024-11-06T17:00:00	1	Precipitación	3.2
39120	7	Sololá	701	Sololá	3	Barraneche	7	Julio	2023-07-23T00:00:00	2024-11-06T17:00:00	8	Radiación solar	80
39121	7	Sololá	701	Sololá	3	Barraneche	7	Julio	2023-07-23T00:00:00	2024-11-06T18:00:00	2	Temperatura media	13.8
39122	7	Sololá	701	Sololá	3	Barraneche	7	Julio	2023-07-23T00:00:00	2024-11-06T18:00:00	4	Temperatura máxima	14.7
39123	7	Sololá	701	Sololá	3	Barraneche	7	Julio	2023-07-23T00:00:00	2024-11-06T18:00:00	3	Temperatura mínima	13.8
39124	7	Sololá	701	Sololá	3	Barraneche	7	Julio	2023-07-23T00:00:00	2024-11-06T18:00:00	5	Humedad	72
39125	7	Sololá	701	Sololá	3	Barraneche	7	Julio	2023-07-23T00:00:00	2024-11-06T18:00:00	6	Velocidad del viento	6.4
39126	7	Sololá	701	Sololá	3	Barraneche	7	Julio	2023-07-23T00:00:00	2024-11-06T18:00:00	7	Dirección del viento	6.44
39127	7	Sololá	701	Sololá	3	Barraneche	7	Julio	2023-07-23T00:00:00	2024-11-06T18:00:00	1	Precipitación	0
39128	7	Sololá	701	Sololá	3	Barraneche	7	Julio	2023-07-23T00:00:00	2024-11-06T18:00:00	8	Radiación solar	94
39129	7	Sololá	701	Sololá	3	Barraneche	7	Julio	2023-07-23T00:00:00	2024-11-06T19:00:00	2	Temperatura media	12.9
39130	7	Sololá	701	Sololá	3	Barraneche	7	Julio	2023-07-23T00:00:00	2024-11-06T19:00:00	4	Temperatura máxima	13.8
39131	7	Sololá	701	Sololá	3	Barraneche	7	Julio	2023-07-23T00:00:00	2024-11-06T19:00:00	3	Temperatura mínima	12.9
39132	7	Sololá	701	Sololá	3	Barraneche	7	Julio	2023-07-23T00:00:00	2024-11-06T19:00:00	5	Humedad	71
39133	7	Sololá	701	Sololá	3	Barraneche	7	Julio	2023-07-23T00:00:00	2024-11-06T19:00:00	6	Velocidad del viento	8
39134	7	Sololá	701	Sololá	3	Barraneche	7	Julio	2023-07-23T00:00:00	2024-11-06T19:00:00	7	Dirección del viento	8.05
39135	7	Sololá	701	Sololá	3	Barraneche	7	Julio	2023-07-23T00:00:00	2024-11-06T19:00:00	1	Precipitación	0
39136	7	Sololá	701	Sololá	3	Barraneche	7	Julio	2023-07-23T00:00:00	2024-11-06T19:00:00	8	Radiación solar	0
39137	7	Sololá	701	Sololá	3	Barraneche	7	Julio	2023-07-23T00:00:00	2024-11-06T20:00:00	2	Temperatura media	12.8
39138	7	Sololá	701	Sololá	3	Barraneche	7	Julio	2023-07-23T00:00:00	2024-11-06T20:00:00	4	Temperatura máxima	12.9
39139	7	Sololá	701	Sololá	3	Barraneche	7	Julio	2023-07-23T00:00:00	2024-11-06T20:00:00	3	Temperatura mínima	12.4
39140	7	Sololá	701	Sololá	3	Barraneche	7	Julio	2023-07-23T00:00:00	2024-11-06T20:00:00	5	Humedad	72
39141	7	Sololá	701	Sololá	3	Barraneche	7	Julio	2023-07-23T00:00:00	2024-11-06T20:00:00	6	Velocidad del viento	8
39142	7	Sololá	701	Sololá	3	Barraneche	7	Julio	2023-07-23T00:00:00	2024-11-06T20:00:00	7	Dirección del viento	8.05
39143	7	Sololá	701	Sololá	3	Barraneche	7	Julio	2023-07-23T00:00:00	2024-11-06T20:00:00	1	Precipitación	0
39144	7	Sololá	701	Sololá	3	Barraneche	7	Julio	2023-07-23T00:00:00	2024-11-06T20:00:00	8	Radiación solar	0
39145	7	Sololá	701	Sololá	3	Barraneche	7	Julio	2023-07-23T00:00:00	2024-11-06T21:00:00	2	Temperatura media	12.9
39146	7	Sololá	701	Sololá	3	Barraneche	7	Julio	2023-07-23T00:00:00	2024-11-06T21:00:00	4	Temperatura máxima	13.1
39147	7	Sololá	701	Sololá	3	Barraneche	7	Julio	2023-07-23T00:00:00	2024-11-06T21:00:00	3	Temperatura mínima	12.8
39148	7	Sololá	701	Sololá	3	Barraneche	7	Julio	2023-07-23T00:00:00	2024-11-06T21:00:00	5	Humedad	75
39149	7	Sololá	701	Sololá	3	Barraneche	7	Julio	2023-07-23T00:00:00	2024-11-06T21:00:00	6	Velocidad del viento	6.4
39150	7	Sololá	701	Sololá	3	Barraneche	7	Julio	2023-07-23T00:00:00	2024-11-06T21:00:00	7	Dirección del viento	6.44
39151	7	Sololá	701	Sololá	3	Barraneche	7	Julio	2023-07-23T00:00:00	2024-11-06T21:00:00	1	Precipitación	0
39152	7	Sololá	701	Sololá	3	Barraneche	7	Julio	2023-07-23T00:00:00	2024-11-06T21:00:00	8	Radiación solar	0
39153	7	Sololá	701	Sololá	3	Barraneche	7	Julio	2023-07-23T00:00:00	2024-11-06T22:00:00	2	Temperatura media	13.5
39154	7	Sololá	701	Sololá	3	Barraneche	7	Julio	2023-07-23T00:00:00	2024-11-06T22:00:00	4	Temperatura máxima	13.6
39155	7	Sololá	701	Sololá	3	Barraneche	7	Julio	2023-07-23T00:00:00	2024-11-06T22:00:00	3	Temperatura mínima	12.9
39156	7	Sololá	701	Sololá	3	Barraneche	7	Julio	2023-07-23T00:00:00	2024-11-06T22:00:00	5	Humedad	74
39157	7	Sololá	701	Sololá	3	Barraneche	7	Julio	2023-07-23T00:00:00	2024-11-06T22:00:00	6	Velocidad del viento	4.8
39158	7	Sololá	701	Sololá	3	Barraneche	7	Julio	2023-07-23T00:00:00	2024-11-06T22:00:00	7	Dirección del viento	4.83
39159	7	Sololá	701	Sololá	3	Barraneche	7	Julio	2023-07-23T00:00:00	2024-11-06T22:00:00	1	Precipitación	0
39160	7	Sololá	701	Sololá	3	Barraneche	7	Julio	2023-07-23T00:00:00	2024-11-06T22:00:00	8	Radiación solar	0
39161	7	Sololá	701	Sololá	3	Barraneche	7	Julio	2023-07-23T00:00:00	2024-11-06T23:00:00	2	Temperatura media	13.3
39162	7	Sololá	701	Sololá	3	Barraneche	7	Julio	2023-07-23T00:00:00	2024-11-06T23:00:00	4	Temperatura máxima	13.6
39163	7	Sololá	701	Sololá	3	Barraneche	7	Julio	2023-07-23T00:00:00	2024-11-06T23:00:00	3	Temperatura mínima	13.3
39164	7	Sololá	701	Sololá	3	Barraneche	7	Julio	2023-07-23T00:00:00	2024-11-06T23:00:00	5	Humedad	75
39165	7	Sololá	701	Sololá	3	Barraneche	7	Julio	2023-07-23T00:00:00	2024-11-06T23:00:00	6	Velocidad del viento	3.2
39166	7	Sololá	701	Sololá	3	Barraneche	7	Julio	2023-07-23T00:00:00	2024-11-06T23:00:00	7	Dirección del viento	3.22
39167	7	Sololá	701	Sololá	3	Barraneche	7	Julio	2023-07-23T00:00:00	2024-11-06T23:00:00	1	Precipitación	0
39168	7	Sololá	701	Sololá	3	Barraneche	7	Julio	2023-07-23T00:00:00	2024-11-06T23:00:00	8	Radiación solar	0
39169	7	Sololá	701	Sololá	3	Barraneche	7	Julio	2023-07-24T00:00:00	2024-11-06T00:00:00	2	Temperatura media	12.7
39170	7	Sololá	701	Sololá	3	Barraneche	7	Julio	2023-07-24T00:00:00	2024-11-06T00:00:00	4	Temperatura máxima	13.3
39171	7	Sololá	701	Sololá	3	Barraneche	7	Julio	2023-07-24T00:00:00	2024-11-06T00:00:00	3	Temperatura mínima	12.7
39172	7	Sololá	701	Sololá	3	Barraneche	7	Julio	2023-07-24T00:00:00	2024-11-06T00:00:00	5	Humedad	82
39173	7	Sololá	701	Sololá	3	Barraneche	7	Julio	2023-07-24T00:00:00	2024-11-06T00:00:00	6	Velocidad del viento	3.2
39174	7	Sololá	701	Sololá	3	Barraneche	7	Julio	2023-07-24T00:00:00	2024-11-06T00:00:00	7	Dirección del viento	3.22
39175	7	Sololá	701	Sololá	3	Barraneche	7	Julio	2023-07-24T00:00:00	2024-11-06T00:00:00	1	Precipitación	0
39176	7	Sololá	701	Sololá	3	Barraneche	7	Julio	2023-07-24T00:00:00	2024-11-06T00:00:00	8	Radiación solar	0
39177	7	Sololá	701	Sololá	3	Barraneche	7	Julio	2023-07-24T00:00:00	2024-11-06T01:00:00	2	Temperatura media	12.6
39178	7	Sololá	701	Sololá	3	Barraneche	7	Julio	2023-07-24T00:00:00	2024-11-06T01:00:00	4	Temperatura máxima	12.8
39179	7	Sololá	701	Sololá	3	Barraneche	7	Julio	2023-07-24T00:00:00	2024-11-06T01:00:00	3	Temperatura mínima	12.4
39180	7	Sololá	701	Sololá	3	Barraneche	7	Julio	2023-07-24T00:00:00	2024-11-06T01:00:00	5	Humedad	82
39181	7	Sololá	701	Sololá	3	Barraneche	7	Julio	2023-07-24T00:00:00	2024-11-06T01:00:00	6	Velocidad del viento	3.2
39182	7	Sololá	701	Sololá	3	Barraneche	7	Julio	2023-07-24T00:00:00	2024-11-06T01:00:00	7	Dirección del viento	3.22
39183	7	Sololá	701	Sololá	3	Barraneche	7	Julio	2023-07-24T00:00:00	2024-11-06T01:00:00	1	Precipitación	0
39184	7	Sololá	701	Sololá	3	Barraneche	7	Julio	2023-07-24T00:00:00	2024-11-06T01:00:00	8	Radiación solar	0
39185	7	Sololá	701	Sololá	3	Barraneche	7	Julio	2023-07-24T00:00:00	2024-11-06T02:00:00	2	Temperatura media	12.9
39186	7	Sololá	701	Sololá	3	Barraneche	7	Julio	2023-07-24T00:00:00	2024-11-06T02:00:00	4	Temperatura máxima	13
39187	7	Sololá	701	Sololá	3	Barraneche	7	Julio	2023-07-24T00:00:00	2024-11-06T02:00:00	3	Temperatura mínima	12.5
39188	7	Sololá	701	Sololá	3	Barraneche	7	Julio	2023-07-24T00:00:00	2024-11-06T02:00:00	5	Humedad	82
39189	7	Sololá	701	Sololá	3	Barraneche	7	Julio	2023-07-24T00:00:00	2024-11-06T02:00:00	6	Velocidad del viento	3.2
39190	7	Sololá	701	Sololá	3	Barraneche	7	Julio	2023-07-24T00:00:00	2024-11-06T02:00:00	7	Dirección del viento	3.22
39191	7	Sololá	701	Sololá	3	Barraneche	7	Julio	2023-07-24T00:00:00	2024-11-06T02:00:00	1	Precipitación	0
39192	7	Sololá	701	Sololá	3	Barraneche	7	Julio	2023-07-24T00:00:00	2024-11-06T02:00:00	8	Radiación solar	0
39193	7	Sololá	701	Sololá	3	Barraneche	7	Julio	2023-07-24T00:00:00	2024-11-06T03:00:00	2	Temperatura media	12.3
39194	7	Sololá	701	Sololá	3	Barraneche	7	Julio	2023-07-24T00:00:00	2024-11-06T03:00:00	4	Temperatura máxima	12.9
39195	7	Sololá	701	Sololá	3	Barraneche	7	Julio	2023-07-24T00:00:00	2024-11-06T03:00:00	3	Temperatura mínima	12.3
39196	7	Sololá	701	Sololá	3	Barraneche	7	Julio	2023-07-24T00:00:00	2024-11-06T03:00:00	5	Humedad	81
39197	7	Sololá	701	Sololá	3	Barraneche	7	Julio	2023-07-24T00:00:00	2024-11-06T03:00:00	6	Velocidad del viento	3.2
39198	7	Sololá	701	Sololá	3	Barraneche	7	Julio	2023-07-24T00:00:00	2024-11-06T03:00:00	7	Dirección del viento	3.22
39199	7	Sololá	701	Sololá	3	Barraneche	7	Julio	2023-07-24T00:00:00	2024-11-06T03:00:00	1	Precipitación	0
39200	7	Sololá	701	Sololá	3	Barraneche	7	Julio	2023-07-24T00:00:00	2024-11-06T03:00:00	8	Radiación solar	0
39201	7	Sololá	701	Sololá	3	Barraneche	7	Julio	2023-07-24T00:00:00	2024-11-06T04:00:00	2	Temperatura media	12.6
39202	7	Sololá	701	Sololá	3	Barraneche	7	Julio	2023-07-24T00:00:00	2024-11-06T04:00:00	4	Temperatura máxima	12.9
39203	7	Sololá	701	Sololá	3	Barraneche	7	Julio	2023-07-24T00:00:00	2024-11-06T04:00:00	3	Temperatura mínima	12.3
39204	7	Sololá	701	Sololá	3	Barraneche	7	Julio	2023-07-24T00:00:00	2024-11-06T04:00:00	5	Humedad	77
39205	7	Sololá	701	Sololá	3	Barraneche	7	Julio	2023-07-24T00:00:00	2024-11-06T04:00:00	6	Velocidad del viento	3.2
39206	7	Sololá	701	Sololá	3	Barraneche	7	Julio	2023-07-24T00:00:00	2024-11-06T04:00:00	7	Dirección del viento	3.22
39207	7	Sololá	701	Sololá	3	Barraneche	7	Julio	2023-07-24T00:00:00	2024-11-06T04:00:00	1	Precipitación	0
39208	7	Sololá	701	Sololá	3	Barraneche	7	Julio	2023-07-24T00:00:00	2024-11-06T04:00:00	8	Radiación solar	0
39209	7	Sololá	701	Sololá	3	Barraneche	7	Julio	2023-07-24T00:00:00	2024-11-06T05:00:00	2	Temperatura media	12.3
39210	7	Sololá	701	Sololá	3	Barraneche	7	Julio	2023-07-24T00:00:00	2024-11-06T05:00:00	4	Temperatura máxima	12.6
39211	7	Sololá	701	Sololá	3	Barraneche	7	Julio	2023-07-24T00:00:00	2024-11-06T05:00:00	3	Temperatura mínima	12.3
39212	7	Sololá	701	Sololá	3	Barraneche	7	Julio	2023-07-24T00:00:00	2024-11-06T05:00:00	5	Humedad	79
39213	7	Sololá	701	Sololá	3	Barraneche	7	Julio	2023-07-24T00:00:00	2024-11-06T05:00:00	6	Velocidad del viento	3.2
39214	7	Sololá	701	Sololá	3	Barraneche	7	Julio	2023-07-24T00:00:00	2024-11-06T05:00:00	7	Dirección del viento	3.22
39215	7	Sololá	701	Sololá	3	Barraneche	7	Julio	2023-07-24T00:00:00	2024-11-06T05:00:00	1	Precipitación	0.2
39216	7	Sololá	701	Sololá	3	Barraneche	7	Julio	2023-07-24T00:00:00	2024-11-06T05:00:00	8	Radiación solar	0
39217	7	Sololá	701	Sololá	3	Barraneche	7	Julio	2023-07-24T00:00:00	2024-11-06T06:00:00	2	Temperatura media	13.3
39218	7	Sololá	701	Sololá	3	Barraneche	7	Julio	2023-07-24T00:00:00	2024-11-06T06:00:00	4	Temperatura máxima	13.3
39219	7	Sololá	701	Sololá	3	Barraneche	7	Julio	2023-07-24T00:00:00	2024-11-06T06:00:00	3	Temperatura mínima	12.3
39220	7	Sololá	701	Sololá	3	Barraneche	7	Julio	2023-07-24T00:00:00	2024-11-06T06:00:00	5	Humedad	71
39221	7	Sololá	701	Sololá	3	Barraneche	7	Julio	2023-07-24T00:00:00	2024-11-06T06:00:00	6	Velocidad del viento	4.8
39222	7	Sololá	701	Sololá	3	Barraneche	7	Julio	2023-07-24T00:00:00	2024-11-06T06:00:00	7	Dirección del viento	4.83
39223	7	Sololá	701	Sololá	3	Barraneche	7	Julio	2023-07-24T00:00:00	2024-11-06T06:00:00	1	Precipitación	0.2
39224	7	Sololá	701	Sololá	3	Barraneche	7	Julio	2023-07-24T00:00:00	2024-11-06T06:00:00	8	Radiación solar	3
39225	7	Sololá	701	Sololá	3	Barraneche	7	Julio	2023-07-24T00:00:00	2024-11-06T07:00:00	2	Temperatura media	15.3
39226	7	Sololá	701	Sololá	3	Barraneche	7	Julio	2023-07-24T00:00:00	2024-11-06T07:00:00	4	Temperatura máxima	15.3
39227	7	Sololá	701	Sololá	3	Barraneche	7	Julio	2023-07-24T00:00:00	2024-11-06T07:00:00	3	Temperatura mínima	13.3
39228	7	Sololá	701	Sololá	3	Barraneche	7	Julio	2023-07-24T00:00:00	2024-11-06T07:00:00	5	Humedad	68
39229	7	Sololá	701	Sololá	3	Barraneche	7	Julio	2023-07-24T00:00:00	2024-11-06T07:00:00	6	Velocidad del viento	8
39230	7	Sololá	701	Sololá	3	Barraneche	7	Julio	2023-07-24T00:00:00	2024-11-06T07:00:00	7	Dirección del viento	8.05
39231	7	Sololá	701	Sololá	3	Barraneche	7	Julio	2023-07-24T00:00:00	2024-11-06T07:00:00	1	Precipitación	0
39232	7	Sololá	701	Sololá	3	Barraneche	7	Julio	2023-07-24T00:00:00	2024-11-06T07:00:00	8	Radiación solar	151
39233	7	Sololá	701	Sololá	3	Barraneche	7	Julio	2023-07-24T00:00:00	2024-11-06T08:00:00	2	Temperatura media	16.4
39234	7	Sololá	701	Sololá	3	Barraneche	7	Julio	2023-07-24T00:00:00	2024-11-06T08:00:00	4	Temperatura máxima	16.7
39235	7	Sololá	701	Sololá	3	Barraneche	7	Julio	2023-07-24T00:00:00	2024-11-06T08:00:00	3	Temperatura mínima	15.3
39236	7	Sololá	701	Sololá	3	Barraneche	7	Julio	2023-07-24T00:00:00	2024-11-06T08:00:00	5	Humedad	63
39237	7	Sololá	701	Sololá	3	Barraneche	7	Julio	2023-07-24T00:00:00	2024-11-06T08:00:00	6	Velocidad del viento	6.4
39238	7	Sololá	701	Sololá	3	Barraneche	7	Julio	2023-07-24T00:00:00	2024-11-06T08:00:00	7	Dirección del viento	6.44
39239	7	Sololá	701	Sololá	3	Barraneche	7	Julio	2023-07-24T00:00:00	2024-11-06T08:00:00	1	Precipitación	0
39240	7	Sololá	701	Sololá	3	Barraneche	7	Julio	2023-07-24T00:00:00	2024-11-06T08:00:00	8	Radiación solar	332
39241	7	Sololá	701	Sololá	3	Barraneche	7	Julio	2023-07-24T00:00:00	2024-11-06T09:00:00	2	Temperatura media	16.8
39242	7	Sololá	701	Sololá	3	Barraneche	7	Julio	2023-07-24T00:00:00	2024-11-06T09:00:00	4	Temperatura máxima	17.4
39243	7	Sololá	701	Sololá	3	Barraneche	7	Julio	2023-07-24T00:00:00	2024-11-06T09:00:00	3	Temperatura mínima	15.9
39244	7	Sololá	701	Sololá	3	Barraneche	7	Julio	2023-07-24T00:00:00	2024-11-06T09:00:00	5	Humedad	62
39245	7	Sololá	701	Sololá	3	Barraneche	7	Julio	2023-07-24T00:00:00	2024-11-06T09:00:00	6	Velocidad del viento	9.7
39246	7	Sololá	701	Sololá	3	Barraneche	7	Julio	2023-07-24T00:00:00	2024-11-06T09:00:00	7	Dirección del viento	9.66
39247	7	Sololá	701	Sololá	3	Barraneche	7	Julio	2023-07-24T00:00:00	2024-11-06T09:00:00	1	Precipitación	0
39248	7	Sololá	701	Sololá	3	Barraneche	7	Julio	2023-07-24T00:00:00	2024-11-06T09:00:00	8	Radiación solar	556
39249	7	Sololá	701	Sololá	3	Barraneche	7	Julio	2023-07-24T00:00:00	2024-11-06T10:00:00	2	Temperatura media	18.3
39250	7	Sololá	701	Sololá	3	Barraneche	7	Julio	2023-07-24T00:00:00	2024-11-06T10:00:00	4	Temperatura máxima	18.3
39251	7	Sololá	701	Sololá	3	Barraneche	7	Julio	2023-07-24T00:00:00	2024-11-06T10:00:00	3	Temperatura mínima	16.6
39252	7	Sololá	701	Sololá	3	Barraneche	7	Julio	2023-07-24T00:00:00	2024-11-06T10:00:00	5	Humedad	60
39253	7	Sololá	701	Sololá	3	Barraneche	7	Julio	2023-07-24T00:00:00	2024-11-06T10:00:00	6	Velocidad del viento	11.3
39254	7	Sololá	701	Sololá	3	Barraneche	7	Julio	2023-07-24T00:00:00	2024-11-06T10:00:00	7	Dirección del viento	11.27
39255	7	Sololá	701	Sololá	3	Barraneche	7	Julio	2023-07-24T00:00:00	2024-11-06T10:00:00	1	Precipitación	0
39256	7	Sololá	701	Sololá	3	Barraneche	7	Julio	2023-07-24T00:00:00	2024-11-06T10:00:00	8	Radiación solar	649
39257	7	Sololá	701	Sololá	3	Barraneche	7	Julio	2023-07-24T00:00:00	2024-11-06T11:00:00	2	Temperatura media	19.6
39258	7	Sololá	701	Sololá	3	Barraneche	7	Julio	2023-07-24T00:00:00	2024-11-06T11:00:00	4	Temperatura máxima	19.6
39259	7	Sololá	701	Sololá	3	Barraneche	7	Julio	2023-07-24T00:00:00	2024-11-06T11:00:00	3	Temperatura mínima	18.1
39260	7	Sololá	701	Sololá	3	Barraneche	7	Julio	2023-07-24T00:00:00	2024-11-06T11:00:00	5	Humedad	55
39261	7	Sololá	701	Sololá	3	Barraneche	7	Julio	2023-07-24T00:00:00	2024-11-06T11:00:00	6	Velocidad del viento	8
39262	7	Sololá	701	Sololá	3	Barraneche	7	Julio	2023-07-24T00:00:00	2024-11-06T11:00:00	7	Dirección del viento	8.05
39263	7	Sololá	701	Sololá	3	Barraneche	7	Julio	2023-07-24T00:00:00	2024-11-06T11:00:00	1	Precipitación	0
39264	7	Sololá	701	Sololá	3	Barraneche	7	Julio	2023-07-24T00:00:00	2024-11-06T11:00:00	8	Radiación solar	976
39265	7	Sololá	701	Sololá	3	Barraneche	7	Julio	2023-07-24T00:00:00	2024-11-06T12:00:00	2	Temperatura media	20
39266	7	Sololá	701	Sololá	3	Barraneche	7	Julio	2023-07-24T00:00:00	2024-11-06T12:00:00	4	Temperatura máxima	20.1
39267	7	Sololá	701	Sololá	3	Barraneche	7	Julio	2023-07-24T00:00:00	2024-11-06T12:00:00	3	Temperatura mínima	19.3
39268	7	Sololá	701	Sololá	3	Barraneche	7	Julio	2023-07-24T00:00:00	2024-11-06T12:00:00	5	Humedad	50
39269	7	Sololá	701	Sololá	3	Barraneche	7	Julio	2023-07-24T00:00:00	2024-11-06T12:00:00	6	Velocidad del viento	11.3
39270	7	Sololá	701	Sololá	3	Barraneche	7	Julio	2023-07-24T00:00:00	2024-11-06T12:00:00	7	Dirección del viento	11.27
39271	7	Sololá	701	Sololá	3	Barraneche	7	Julio	2023-07-24T00:00:00	2024-11-06T12:00:00	1	Precipitación	0
39272	7	Sololá	701	Sololá	3	Barraneche	7	Julio	2023-07-24T00:00:00	2024-11-06T12:00:00	8	Radiación solar	1060
39273	7	Sololá	701	Sololá	3	Barraneche	7	Julio	2023-07-24T00:00:00	2024-11-06T13:00:00	2	Temperatura media	19.6
39274	7	Sololá	701	Sololá	3	Barraneche	7	Julio	2023-07-24T00:00:00	2024-11-06T13:00:00	4	Temperatura máxima	20.5
39275	7	Sololá	701	Sololá	3	Barraneche	7	Julio	2023-07-24T00:00:00	2024-11-06T13:00:00	3	Temperatura mínima	19.5
39276	7	Sololá	701	Sololá	3	Barraneche	7	Julio	2023-07-24T00:00:00	2024-11-06T13:00:00	5	Humedad	59
39277	7	Sololá	701	Sololá	3	Barraneche	7	Julio	2023-07-24T00:00:00	2024-11-06T13:00:00	6	Velocidad del viento	11.3
39278	7	Sololá	701	Sololá	3	Barraneche	7	Julio	2023-07-24T00:00:00	2024-11-06T13:00:00	7	Dirección del viento	11.27
39279	7	Sololá	701	Sololá	3	Barraneche	7	Julio	2023-07-24T00:00:00	2024-11-06T13:00:00	1	Precipitación	0
39280	7	Sololá	701	Sololá	3	Barraneche	7	Julio	2023-07-24T00:00:00	2024-11-06T13:00:00	8	Radiación solar	886
39281	7	Sololá	701	Sololá	3	Barraneche	7	Julio	2023-07-24T00:00:00	2024-11-06T14:00:00	2	Temperatura media	19.1
39282	7	Sololá	701	Sololá	3	Barraneche	7	Julio	2023-07-24T00:00:00	2024-11-06T14:00:00	4	Temperatura máxima	19.5
39283	7	Sololá	701	Sololá	3	Barraneche	7	Julio	2023-07-24T00:00:00	2024-11-06T14:00:00	3	Temperatura mínima	17.8
39284	7	Sololá	701	Sololá	3	Barraneche	7	Julio	2023-07-24T00:00:00	2024-11-06T14:00:00	5	Humedad	63
39285	7	Sololá	701	Sololá	3	Barraneche	7	Julio	2023-07-24T00:00:00	2024-11-06T14:00:00	6	Velocidad del viento	8
39286	7	Sololá	701	Sololá	3	Barraneche	7	Julio	2023-07-24T00:00:00	2024-11-06T14:00:00	7	Dirección del viento	8.05
39287	7	Sololá	701	Sololá	3	Barraneche	7	Julio	2023-07-24T00:00:00	2024-11-06T14:00:00	1	Precipitación	0
39288	7	Sololá	701	Sololá	3	Barraneche	7	Julio	2023-07-24T00:00:00	2024-11-06T14:00:00	8	Radiación solar	289
39289	7	Sololá	701	Sololá	3	Barraneche	7	Julio	2023-07-24T00:00:00	2024-11-06T15:00:00	2	Temperatura media	17.1
39290	7	Sololá	701	Sololá	3	Barraneche	7	Julio	2023-07-24T00:00:00	2024-11-06T15:00:00	4	Temperatura máxima	19.1
39291	7	Sololá	701	Sololá	3	Barraneche	7	Julio	2023-07-24T00:00:00	2024-11-06T15:00:00	3	Temperatura mínima	16.8
39292	7	Sololá	701	Sololá	3	Barraneche	7	Julio	2023-07-24T00:00:00	2024-11-06T15:00:00	5	Humedad	73
39293	7	Sololá	701	Sololá	3	Barraneche	7	Julio	2023-07-24T00:00:00	2024-11-06T15:00:00	6	Velocidad del viento	9.7
39294	7	Sololá	701	Sololá	3	Barraneche	7	Julio	2023-07-24T00:00:00	2024-11-06T15:00:00	7	Dirección del viento	9.66
39295	7	Sololá	701	Sololá	3	Barraneche	7	Julio	2023-07-24T00:00:00	2024-11-06T15:00:00	1	Precipitación	0
39296	7	Sololá	701	Sololá	3	Barraneche	7	Julio	2023-07-24T00:00:00	2024-11-06T15:00:00	8	Radiación solar	243
39297	7	Sololá	701	Sololá	3	Barraneche	7	Julio	2023-07-24T00:00:00	2024-11-06T16:00:00	2	Temperatura media	14.7
39298	7	Sololá	701	Sololá	3	Barraneche	7	Julio	2023-07-24T00:00:00	2024-11-06T16:00:00	4	Temperatura máxima	17.1
39299	7	Sololá	701	Sololá	3	Barraneche	7	Julio	2023-07-24T00:00:00	2024-11-06T16:00:00	3	Temperatura mínima	14.6
39300	7	Sololá	701	Sololá	3	Barraneche	7	Julio	2023-07-24T00:00:00	2024-11-06T16:00:00	5	Humedad	83
39301	7	Sololá	701	Sololá	3	Barraneche	7	Julio	2023-07-24T00:00:00	2024-11-06T16:00:00	6	Velocidad del viento	11.3
39302	7	Sololá	701	Sololá	3	Barraneche	7	Julio	2023-07-24T00:00:00	2024-11-06T16:00:00	7	Dirección del viento	11.27
39303	7	Sololá	701	Sololá	3	Barraneche	7	Julio	2023-07-24T00:00:00	2024-11-06T16:00:00	1	Precipitación	0
39304	7	Sololá	701	Sololá	3	Barraneche	7	Julio	2023-07-24T00:00:00	2024-11-06T16:00:00	8	Radiación solar	167
39305	7	Sololá	701	Sololá	3	Barraneche	7	Julio	2023-07-24T00:00:00	2024-11-06T17:00:00	2	Temperatura media	15.7
39306	7	Sololá	701	Sololá	3	Barraneche	7	Julio	2023-07-24T00:00:00	2024-11-06T17:00:00	4	Temperatura máxima	15.8
39307	7	Sololá	701	Sololá	3	Barraneche	7	Julio	2023-07-24T00:00:00	2024-11-06T17:00:00	3	Temperatura mínima	14.6
39308	7	Sololá	701	Sololá	3	Barraneche	7	Julio	2023-07-24T00:00:00	2024-11-06T17:00:00	5	Humedad	73
39309	7	Sololá	701	Sololá	3	Barraneche	7	Julio	2023-07-24T00:00:00	2024-11-06T17:00:00	6	Velocidad del viento	3.2
39310	7	Sololá	701	Sololá	3	Barraneche	7	Julio	2023-07-24T00:00:00	2024-11-06T17:00:00	7	Dirección del viento	3.22
39311	7	Sololá	701	Sololá	3	Barraneche	7	Julio	2023-07-24T00:00:00	2024-11-06T17:00:00	1	Precipitación	0
39312	7	Sololá	701	Sololá	3	Barraneche	7	Julio	2023-07-24T00:00:00	2024-11-06T17:00:00	8	Radiación solar	180
39313	7	Sololá	701	Sololá	3	Barraneche	7	Julio	2023-07-24T00:00:00	2024-11-06T18:00:00	2	Temperatura media	14.5
39314	7	Sololá	701	Sololá	3	Barraneche	7	Julio	2023-07-24T00:00:00	2024-11-06T18:00:00	4	Temperatura máxima	15.8
39315	7	Sololá	701	Sololá	3	Barraneche	7	Julio	2023-07-24T00:00:00	2024-11-06T18:00:00	3	Temperatura mínima	14.5
39316	7	Sololá	701	Sololá	3	Barraneche	7	Julio	2023-07-24T00:00:00	2024-11-06T18:00:00	5	Humedad	79
39317	7	Sololá	701	Sololá	3	Barraneche	7	Julio	2023-07-24T00:00:00	2024-11-06T18:00:00	6	Velocidad del viento	4.8
39318	7	Sololá	701	Sololá	3	Barraneche	7	Julio	2023-07-24T00:00:00	2024-11-06T18:00:00	7	Dirección del viento	4.83
39319	7	Sololá	701	Sololá	3	Barraneche	7	Julio	2023-07-24T00:00:00	2024-11-06T18:00:00	1	Precipitación	0.8
39320	7	Sololá	701	Sololá	3	Barraneche	7	Julio	2023-07-24T00:00:00	2024-11-06T18:00:00	8	Radiación solar	33
39321	7	Sololá	701	Sololá	3	Barraneche	7	Julio	2023-07-24T00:00:00	2024-11-06T19:00:00	2	Temperatura media	14.1
39322	7	Sololá	701	Sololá	3	Barraneche	7	Julio	2023-07-24T00:00:00	2024-11-06T19:00:00	4	Temperatura máxima	14.5
39323	7	Sololá	701	Sololá	3	Barraneche	7	Julio	2023-07-24T00:00:00	2024-11-06T19:00:00	3	Temperatura mínima	14.1
39324	7	Sololá	701	Sololá	3	Barraneche	7	Julio	2023-07-24T00:00:00	2024-11-06T19:00:00	5	Humedad	83
39325	7	Sololá	701	Sololá	3	Barraneche	7	Julio	2023-07-24T00:00:00	2024-11-06T19:00:00	6	Velocidad del viento	3.2
39326	7	Sololá	701	Sololá	3	Barraneche	7	Julio	2023-07-24T00:00:00	2024-11-06T19:00:00	7	Dirección del viento	3.22
39327	7	Sololá	701	Sololá	3	Barraneche	7	Julio	2023-07-24T00:00:00	2024-11-06T19:00:00	1	Precipitación	5.8
39328	7	Sololá	701	Sololá	3	Barraneche	7	Julio	2023-07-24T00:00:00	2024-11-06T19:00:00	8	Radiación solar	0
39329	7	Sololá	701	Sololá	3	Barraneche	7	Julio	2023-07-24T00:00:00	2024-11-06T20:00:00	2	Temperatura media	13.1
39330	7	Sololá	701	Sololá	3	Barraneche	7	Julio	2023-07-24T00:00:00	2024-11-06T20:00:00	4	Temperatura máxima	14.2
39331	7	Sololá	701	Sololá	3	Barraneche	7	Julio	2023-07-24T00:00:00	2024-11-06T20:00:00	3	Temperatura mínima	13.1
39332	7	Sololá	701	Sololá	3	Barraneche	7	Julio	2023-07-24T00:00:00	2024-11-06T20:00:00	5	Humedad	79
39333	7	Sololá	701	Sololá	3	Barraneche	7	Julio	2023-07-24T00:00:00	2024-11-06T20:00:00	6	Velocidad del viento	3.2
39334	7	Sololá	701	Sololá	3	Barraneche	7	Julio	2023-07-24T00:00:00	2024-11-06T20:00:00	7	Dirección del viento	3.22
39335	7	Sololá	701	Sololá	3	Barraneche	7	Julio	2023-07-24T00:00:00	2024-11-06T20:00:00	1	Precipitación	3.2
39336	7	Sololá	701	Sololá	3	Barraneche	7	Julio	2023-07-24T00:00:00	2024-11-06T20:00:00	8	Radiación solar	0
39337	7	Sololá	701	Sololá	3	Barraneche	7	Julio	2023-07-24T00:00:00	2024-11-06T21:00:00	2	Temperatura media	13.2
39338	7	Sololá	701	Sololá	3	Barraneche	7	Julio	2023-07-24T00:00:00	2024-11-06T21:00:00	4	Temperatura máxima	13.3
39339	7	Sololá	701	Sololá	3	Barraneche	7	Julio	2023-07-24T00:00:00	2024-11-06T21:00:00	3	Temperatura mínima	13.1
39340	7	Sololá	701	Sololá	3	Barraneche	7	Julio	2023-07-24T00:00:00	2024-11-06T21:00:00	5	Humedad	80
39341	7	Sololá	701	Sololá	3	Barraneche	7	Julio	2023-07-24T00:00:00	2024-11-06T21:00:00	6	Velocidad del viento	3.2
39342	7	Sololá	701	Sololá	3	Barraneche	7	Julio	2023-07-24T00:00:00	2024-11-06T21:00:00	7	Dirección del viento	3.22
39343	7	Sololá	701	Sololá	3	Barraneche	7	Julio	2023-07-24T00:00:00	2024-11-06T21:00:00	1	Precipitación	1.4
39344	7	Sololá	701	Sololá	3	Barraneche	7	Julio	2023-07-24T00:00:00	2024-11-06T21:00:00	8	Radiación solar	0
39345	7	Sololá	701	Sololá	3	Barraneche	7	Julio	2023-07-24T00:00:00	2024-11-06T22:00:00	2	Temperatura media	13.4
39346	7	Sololá	701	Sololá	3	Barraneche	7	Julio	2023-07-24T00:00:00	2024-11-06T22:00:00	4	Temperatura máxima	13.4
39347	7	Sololá	701	Sololá	3	Barraneche	7	Julio	2023-07-24T00:00:00	2024-11-06T22:00:00	3	Temperatura mínima	12.9
39348	7	Sololá	701	Sololá	3	Barraneche	7	Julio	2023-07-24T00:00:00	2024-11-06T22:00:00	5	Humedad	73
39349	7	Sololá	701	Sololá	3	Barraneche	7	Julio	2023-07-24T00:00:00	2024-11-06T22:00:00	6	Velocidad del viento	3.2
39350	7	Sololá	701	Sololá	3	Barraneche	7	Julio	2023-07-24T00:00:00	2024-11-06T22:00:00	7	Dirección del viento	3.22
39351	7	Sololá	701	Sololá	3	Barraneche	7	Julio	2023-07-24T00:00:00	2024-11-06T22:00:00	1	Precipitación	0
39352	7	Sololá	701	Sololá	3	Barraneche	7	Julio	2023-07-24T00:00:00	2024-11-06T22:00:00	8	Radiación solar	0
39353	7	Sololá	701	Sololá	3	Barraneche	7	Julio	2023-07-24T00:00:00	2024-11-06T23:00:00	2	Temperatura media	12.9
39354	7	Sololá	701	Sololá	3	Barraneche	7	Julio	2023-07-24T00:00:00	2024-11-06T23:00:00	4	Temperatura máxima	13.4
39355	7	Sololá	701	Sololá	3	Barraneche	7	Julio	2023-07-24T00:00:00	2024-11-06T23:00:00	3	Temperatura mínima	12.7
39356	7	Sololá	701	Sololá	3	Barraneche	7	Julio	2023-07-24T00:00:00	2024-11-06T23:00:00	5	Humedad	73
39357	7	Sololá	701	Sololá	3	Barraneche	7	Julio	2023-07-24T00:00:00	2024-11-06T23:00:00	6	Velocidad del viento	4.8
39358	7	Sololá	701	Sololá	3	Barraneche	7	Julio	2023-07-24T00:00:00	2024-11-06T23:00:00	7	Dirección del viento	4.83
39359	7	Sololá	701	Sololá	3	Barraneche	7	Julio	2023-07-24T00:00:00	2024-11-06T23:00:00	1	Precipitación	0
39360	7	Sololá	701	Sololá	3	Barraneche	7	Julio	2023-07-24T00:00:00	2024-11-06T23:00:00	8	Radiación solar	0
39361	7	Sololá	701	Sololá	3	Barraneche	7	Julio	2023-07-25T00:00:00	2024-11-06T00:00:00	2	Temperatura media	14.3
39362	7	Sololá	701	Sololá	3	Barraneche	7	Julio	2023-07-25T00:00:00	2024-11-06T00:00:00	4	Temperatura máxima	14.3
39363	7	Sololá	701	Sololá	3	Barraneche	7	Julio	2023-07-25T00:00:00	2024-11-06T00:00:00	3	Temperatura mínima	12.8
39364	7	Sololá	701	Sololá	3	Barraneche	7	Julio	2023-07-25T00:00:00	2024-11-06T00:00:00	5	Humedad	68
39365	7	Sololá	701	Sololá	3	Barraneche	7	Julio	2023-07-25T00:00:00	2024-11-06T00:00:00	6	Velocidad del viento	8
39366	7	Sololá	701	Sololá	3	Barraneche	7	Julio	2023-07-25T00:00:00	2024-11-06T00:00:00	7	Dirección del viento	8.05
39367	7	Sololá	701	Sololá	3	Barraneche	7	Julio	2023-07-25T00:00:00	2024-11-06T00:00:00	1	Precipitación	0.2
39368	7	Sololá	701	Sololá	3	Barraneche	7	Julio	2023-07-25T00:00:00	2024-11-06T00:00:00	8	Radiación solar	0
39369	7	Sololá	701	Sololá	3	Barraneche	7	Julio	2023-07-25T00:00:00	2024-11-06T01:00:00	2	Temperatura media	13.6
39370	7	Sololá	701	Sololá	3	Barraneche	7	Julio	2023-07-25T00:00:00	2024-11-06T01:00:00	4	Temperatura máxima	14.3
39371	7	Sololá	701	Sololá	3	Barraneche	7	Julio	2023-07-25T00:00:00	2024-11-06T01:00:00	3	Temperatura mínima	13.6
39372	7	Sololá	701	Sololá	3	Barraneche	7	Julio	2023-07-25T00:00:00	2024-11-06T01:00:00	5	Humedad	70
39373	7	Sololá	701	Sololá	3	Barraneche	7	Julio	2023-07-25T00:00:00	2024-11-06T01:00:00	6	Velocidad del viento	6.4
39374	7	Sololá	701	Sololá	3	Barraneche	7	Julio	2023-07-25T00:00:00	2024-11-06T01:00:00	7	Dirección del viento	6.44
39375	7	Sololá	701	Sololá	3	Barraneche	7	Julio	2023-07-25T00:00:00	2024-11-06T01:00:00	1	Precipitación	0.2
39376	7	Sololá	701	Sololá	3	Barraneche	7	Julio	2023-07-25T00:00:00	2024-11-06T01:00:00	8	Radiación solar	0
39377	7	Sololá	701	Sololá	3	Barraneche	7	Julio	2023-07-25T00:00:00	2024-11-06T02:00:00	2	Temperatura media	13.6
39378	7	Sololá	701	Sololá	3	Barraneche	7	Julio	2023-07-25T00:00:00	2024-11-06T02:00:00	4	Temperatura máxima	13.6
39379	7	Sololá	701	Sololá	3	Barraneche	7	Julio	2023-07-25T00:00:00	2024-11-06T02:00:00	3	Temperatura mínima	12.9
39380	7	Sololá	701	Sololá	3	Barraneche	7	Julio	2023-07-25T00:00:00	2024-11-06T02:00:00	5	Humedad	68
39381	7	Sololá	701	Sololá	3	Barraneche	7	Julio	2023-07-25T00:00:00	2024-11-06T02:00:00	6	Velocidad del viento	8
39382	7	Sololá	701	Sololá	3	Barraneche	7	Julio	2023-07-25T00:00:00	2024-11-06T02:00:00	7	Dirección del viento	8.05
39383	7	Sololá	701	Sololá	3	Barraneche	7	Julio	2023-07-25T00:00:00	2024-11-06T02:00:00	1	Precipitación	0
39384	7	Sololá	701	Sololá	3	Barraneche	7	Julio	2023-07-25T00:00:00	2024-11-06T02:00:00	8	Radiación solar	0
39385	7	Sololá	701	Sololá	3	Barraneche	7	Julio	2023-07-25T00:00:00	2024-11-06T03:00:00	2	Temperatura media	13.7
39386	7	Sololá	701	Sololá	3	Barraneche	7	Julio	2023-07-25T00:00:00	2024-11-06T03:00:00	4	Temperatura máxima	13.8
39387	7	Sololá	701	Sololá	3	Barraneche	7	Julio	2023-07-25T00:00:00	2024-11-06T03:00:00	3	Temperatura mínima	13.2
39388	7	Sololá	701	Sololá	3	Barraneche	7	Julio	2023-07-25T00:00:00	2024-11-06T03:00:00	5	Humedad	66
39389	7	Sololá	701	Sololá	3	Barraneche	7	Julio	2023-07-25T00:00:00	2024-11-06T03:00:00	6	Velocidad del viento	6.4
39390	7	Sololá	701	Sololá	3	Barraneche	7	Julio	2023-07-25T00:00:00	2024-11-06T03:00:00	7	Dirección del viento	6.44
39391	7	Sololá	701	Sololá	3	Barraneche	7	Julio	2023-07-25T00:00:00	2024-11-06T03:00:00	1	Precipitación	0
39392	7	Sololá	701	Sololá	3	Barraneche	7	Julio	2023-07-25T00:00:00	2024-11-06T03:00:00	8	Radiación solar	0
39393	7	Sololá	701	Sololá	3	Barraneche	7	Julio	2023-07-25T00:00:00	2024-11-06T04:00:00	2	Temperatura media	13.4
39394	7	Sololá	701	Sololá	3	Barraneche	7	Julio	2023-07-25T00:00:00	2024-11-06T04:00:00	4	Temperatura máxima	13.8
39395	7	Sololá	701	Sololá	3	Barraneche	7	Julio	2023-07-25T00:00:00	2024-11-06T04:00:00	3	Temperatura mínima	13.4
39396	7	Sololá	701	Sololá	3	Barraneche	7	Julio	2023-07-25T00:00:00	2024-11-06T04:00:00	5	Humedad	66
39397	7	Sololá	701	Sololá	3	Barraneche	7	Julio	2023-07-25T00:00:00	2024-11-06T04:00:00	6	Velocidad del viento	11.3
39398	7	Sololá	701	Sololá	3	Barraneche	7	Julio	2023-07-25T00:00:00	2024-11-06T04:00:00	7	Dirección del viento	11.27
39399	7	Sololá	701	Sololá	3	Barraneche	7	Julio	2023-07-25T00:00:00	2024-11-06T04:00:00	1	Precipitación	0
39400	7	Sololá	701	Sololá	3	Barraneche	7	Julio	2023-07-25T00:00:00	2024-11-06T04:00:00	8	Radiación solar	0
39401	7	Sololá	701	Sololá	3	Barraneche	7	Julio	2023-07-25T00:00:00	2024-11-06T05:00:00	2	Temperatura media	13.8
39402	7	Sololá	701	Sololá	3	Barraneche	7	Julio	2023-07-25T00:00:00	2024-11-06T05:00:00	4	Temperatura máxima	13.8
39403	7	Sololá	701	Sololá	3	Barraneche	7	Julio	2023-07-25T00:00:00	2024-11-06T05:00:00	3	Temperatura mínima	13.3
39404	7	Sololá	701	Sololá	3	Barraneche	7	Julio	2023-07-25T00:00:00	2024-11-06T05:00:00	5	Humedad	64
39405	7	Sololá	701	Sololá	3	Barraneche	7	Julio	2023-07-25T00:00:00	2024-11-06T05:00:00	6	Velocidad del viento	12.9
39406	7	Sololá	701	Sololá	3	Barraneche	7	Julio	2023-07-25T00:00:00	2024-11-06T05:00:00	7	Dirección del viento	12.87
39407	7	Sololá	701	Sololá	3	Barraneche	7	Julio	2023-07-25T00:00:00	2024-11-06T05:00:00	1	Precipitación	0
39408	7	Sololá	701	Sololá	3	Barraneche	7	Julio	2023-07-25T00:00:00	2024-11-06T05:00:00	8	Radiación solar	0
39409	7	Sololá	701	Sololá	3	Barraneche	7	Julio	2023-07-25T00:00:00	2024-11-06T06:00:00	2	Temperatura media	14.1
39410	7	Sololá	701	Sololá	3	Barraneche	7	Julio	2023-07-25T00:00:00	2024-11-06T06:00:00	4	Temperatura máxima	14.2
39411	7	Sololá	701	Sololá	3	Barraneche	7	Julio	2023-07-25T00:00:00	2024-11-06T06:00:00	3	Temperatura mínima	13.8
39412	7	Sololá	701	Sololá	3	Barraneche	7	Julio	2023-07-25T00:00:00	2024-11-06T06:00:00	5	Humedad	65
39413	7	Sololá	701	Sololá	3	Barraneche	7	Julio	2023-07-25T00:00:00	2024-11-06T06:00:00	6	Velocidad del viento	19.3
39414	7	Sololá	701	Sololá	3	Barraneche	7	Julio	2023-07-25T00:00:00	2024-11-06T06:00:00	7	Dirección del viento	19.31
39415	7	Sololá	701	Sololá	3	Barraneche	7	Julio	2023-07-25T00:00:00	2024-11-06T06:00:00	1	Precipitación	0
39416	7	Sololá	701	Sololá	3	Barraneche	7	Julio	2023-07-25T00:00:00	2024-11-06T06:00:00	8	Radiación solar	2
39417	7	Sololá	701	Sololá	3	Barraneche	7	Julio	2023-07-25T00:00:00	2024-11-06T07:00:00	2	Temperatura media	15.1
39418	7	Sololá	701	Sololá	3	Barraneche	7	Julio	2023-07-25T00:00:00	2024-11-06T07:00:00	4	Temperatura máxima	15.1
39419	7	Sololá	701	Sololá	3	Barraneche	7	Julio	2023-07-25T00:00:00	2024-11-06T07:00:00	3	Temperatura mínima	14
39420	7	Sololá	701	Sololá	3	Barraneche	7	Julio	2023-07-25T00:00:00	2024-11-06T07:00:00	5	Humedad	60
39421	7	Sololá	701	Sololá	3	Barraneche	7	Julio	2023-07-25T00:00:00	2024-11-06T07:00:00	6	Velocidad del viento	12.9
39422	7	Sololá	701	Sololá	3	Barraneche	7	Julio	2023-07-25T00:00:00	2024-11-06T07:00:00	7	Dirección del viento	12.87
39423	7	Sololá	701	Sololá	3	Barraneche	7	Julio	2023-07-25T00:00:00	2024-11-06T07:00:00	1	Precipitación	0
39424	7	Sololá	701	Sololá	3	Barraneche	7	Julio	2023-07-25T00:00:00	2024-11-06T07:00:00	8	Radiación solar	79
39425	7	Sololá	701	Sololá	3	Barraneche	7	Julio	2023-07-25T00:00:00	2024-11-06T08:00:00	2	Temperatura media	16.6
39426	7	Sololá	701	Sololá	3	Barraneche	7	Julio	2023-07-25T00:00:00	2024-11-06T08:00:00	4	Temperatura máxima	16.7
39427	7	Sololá	701	Sololá	3	Barraneche	7	Julio	2023-07-25T00:00:00	2024-11-06T08:00:00	3	Temperatura mínima	15.1
39428	7	Sololá	701	Sololá	3	Barraneche	7	Julio	2023-07-25T00:00:00	2024-11-06T08:00:00	5	Humedad	53
39429	7	Sololá	701	Sololá	3	Barraneche	7	Julio	2023-07-25T00:00:00	2024-11-06T08:00:00	6	Velocidad del viento	9.7
39430	7	Sololá	701	Sololá	3	Barraneche	7	Julio	2023-07-25T00:00:00	2024-11-06T08:00:00	7	Dirección del viento	9.66
39431	7	Sololá	701	Sololá	3	Barraneche	7	Julio	2023-07-25T00:00:00	2024-11-06T08:00:00	1	Precipitación	0
39432	7	Sololá	701	Sololá	3	Barraneche	7	Julio	2023-07-25T00:00:00	2024-11-06T08:00:00	8	Radiación solar	301
39433	7	Sololá	701	Sololá	3	Barraneche	7	Julio	2023-07-25T00:00:00	2024-11-06T09:00:00	2	Temperatura media	18.4
39434	7	Sololá	701	Sololá	3	Barraneche	7	Julio	2023-07-25T00:00:00	2024-11-06T09:00:00	4	Temperatura máxima	18.4
39435	7	Sololá	701	Sololá	3	Barraneche	7	Julio	2023-07-25T00:00:00	2024-11-06T09:00:00	3	Temperatura mínima	16.6
39436	7	Sololá	701	Sololá	3	Barraneche	7	Julio	2023-07-25T00:00:00	2024-11-06T09:00:00	5	Humedad	49
39437	7	Sololá	701	Sololá	3	Barraneche	7	Julio	2023-07-25T00:00:00	2024-11-06T09:00:00	6	Velocidad del viento	8
39438	7	Sololá	701	Sololá	3	Barraneche	7	Julio	2023-07-25T00:00:00	2024-11-06T09:00:00	7	Dirección del viento	8.05
39439	7	Sololá	701	Sololá	3	Barraneche	7	Julio	2023-07-25T00:00:00	2024-11-06T09:00:00	1	Precipitación	0
39440	7	Sololá	701	Sololá	3	Barraneche	7	Julio	2023-07-25T00:00:00	2024-11-06T09:00:00	8	Radiación solar	571
39441	7	Sololá	701	Sololá	3	Barraneche	7	Julio	2023-07-25T00:00:00	2024-11-06T10:00:00	2	Temperatura media	18.7
39442	7	Sololá	701	Sololá	3	Barraneche	7	Julio	2023-07-25T00:00:00	2024-11-06T10:00:00	4	Temperatura máxima	18.7
39443	7	Sololá	701	Sololá	3	Barraneche	7	Julio	2023-07-25T00:00:00	2024-11-06T10:00:00	3	Temperatura mínima	18
39444	7	Sololá	701	Sololá	3	Barraneche	7	Julio	2023-07-25T00:00:00	2024-11-06T10:00:00	5	Humedad	52
39445	7	Sololá	701	Sololá	3	Barraneche	7	Julio	2023-07-25T00:00:00	2024-11-06T10:00:00	6	Velocidad del viento	11.3
39446	7	Sololá	701	Sololá	3	Barraneche	7	Julio	2023-07-25T00:00:00	2024-11-06T10:00:00	7	Dirección del viento	11.27
39447	7	Sololá	701	Sololá	3	Barraneche	7	Julio	2023-07-25T00:00:00	2024-11-06T10:00:00	1	Precipitación	0
39448	7	Sololá	701	Sololá	3	Barraneche	7	Julio	2023-07-25T00:00:00	2024-11-06T10:00:00	8	Radiación solar	715
39449	7	Sololá	701	Sololá	3	Barraneche	7	Julio	2023-07-25T00:00:00	2024-11-06T11:00:00	2	Temperatura media	19.3
39450	7	Sololá	701	Sololá	3	Barraneche	7	Julio	2023-07-25T00:00:00	2024-11-06T11:00:00	4	Temperatura máxima	19.4
39451	7	Sololá	701	Sololá	3	Barraneche	7	Julio	2023-07-25T00:00:00	2024-11-06T11:00:00	3	Temperatura mínima	17.8
39452	7	Sololá	701	Sololá	3	Barraneche	7	Julio	2023-07-25T00:00:00	2024-11-06T11:00:00	5	Humedad	47
39453	7	Sololá	701	Sololá	3	Barraneche	7	Julio	2023-07-25T00:00:00	2024-11-06T11:00:00	6	Velocidad del viento	11.3
39454	7	Sololá	701	Sololá	3	Barraneche	7	Julio	2023-07-25T00:00:00	2024-11-06T11:00:00	7	Dirección del viento	11.27
39455	7	Sololá	701	Sololá	3	Barraneche	7	Julio	2023-07-25T00:00:00	2024-11-06T11:00:00	1	Precipitación	0
39456	7	Sololá	701	Sololá	3	Barraneche	7	Julio	2023-07-25T00:00:00	2024-11-06T11:00:00	8	Radiación solar	871
39457	7	Sololá	701	Sololá	3	Barraneche	7	Julio	2023-07-25T00:00:00	2024-11-06T12:00:00	2	Temperatura media	19.7
39458	7	Sololá	701	Sololá	3	Barraneche	7	Julio	2023-07-25T00:00:00	2024-11-06T12:00:00	4	Temperatura máxima	19.8
39459	7	Sololá	701	Sololá	3	Barraneche	7	Julio	2023-07-25T00:00:00	2024-11-06T12:00:00	3	Temperatura mínima	19.1
39460	7	Sololá	701	Sololá	3	Barraneche	7	Julio	2023-07-25T00:00:00	2024-11-06T12:00:00	5	Humedad	47
39461	7	Sololá	701	Sololá	3	Barraneche	7	Julio	2023-07-25T00:00:00	2024-11-06T12:00:00	6	Velocidad del viento	12.9
39462	7	Sololá	701	Sololá	3	Barraneche	7	Julio	2023-07-25T00:00:00	2024-11-06T12:00:00	7	Dirección del viento	12.87
39463	7	Sololá	701	Sololá	3	Barraneche	7	Julio	2023-07-25T00:00:00	2024-11-06T12:00:00	1	Precipitación	0
39464	7	Sololá	701	Sololá	3	Barraneche	7	Julio	2023-07-25T00:00:00	2024-11-06T12:00:00	8	Radiación solar	996
39465	7	Sololá	701	Sololá	3	Barraneche	7	Julio	2023-07-25T00:00:00	2024-11-06T13:00:00	2	Temperatura media	20.3
39466	7	Sololá	701	Sololá	3	Barraneche	7	Julio	2023-07-25T00:00:00	2024-11-06T13:00:00	4	Temperatura máxima	20.3
39467	7	Sololá	701	Sololá	3	Barraneche	7	Julio	2023-07-25T00:00:00	2024-11-06T13:00:00	3	Temperatura mínima	19.7
39468	7	Sololá	701	Sololá	3	Barraneche	7	Julio	2023-07-25T00:00:00	2024-11-06T13:00:00	5	Humedad	42
39469	7	Sololá	701	Sololá	3	Barraneche	7	Julio	2023-07-25T00:00:00	2024-11-06T13:00:00	6	Velocidad del viento	14.5
39470	7	Sololá	701	Sololá	3	Barraneche	7	Julio	2023-07-25T00:00:00	2024-11-06T13:00:00	7	Dirección del viento	14.48
39471	7	Sololá	701	Sololá	3	Barraneche	7	Julio	2023-07-25T00:00:00	2024-11-06T13:00:00	1	Precipitación	0
39472	7	Sololá	701	Sololá	3	Barraneche	7	Julio	2023-07-25T00:00:00	2024-11-06T13:00:00	8	Radiación solar	1021
39473	7	Sololá	701	Sololá	3	Barraneche	7	Julio	2023-07-25T00:00:00	2024-11-06T14:00:00	2	Temperatura media	20.1
39474	7	Sololá	701	Sololá	3	Barraneche	7	Julio	2023-07-25T00:00:00	2024-11-06T14:00:00	4	Temperatura máxima	20.4
39475	7	Sololá	701	Sololá	3	Barraneche	7	Julio	2023-07-25T00:00:00	2024-11-06T14:00:00	3	Temperatura mínima	19.9
39476	7	Sololá	701	Sololá	3	Barraneche	7	Julio	2023-07-25T00:00:00	2024-11-06T14:00:00	5	Humedad	45
39477	7	Sololá	701	Sololá	3	Barraneche	7	Julio	2023-07-25T00:00:00	2024-11-06T14:00:00	6	Velocidad del viento	12.9
39478	7	Sololá	701	Sololá	3	Barraneche	7	Julio	2023-07-25T00:00:00	2024-11-06T14:00:00	7	Dirección del viento	12.87
39479	7	Sololá	701	Sololá	3	Barraneche	7	Julio	2023-07-25T00:00:00	2024-11-06T14:00:00	1	Precipitación	0
39480	7	Sololá	701	Sololá	3	Barraneche	7	Julio	2023-07-25T00:00:00	2024-11-06T14:00:00	8	Radiación solar	962
39481	7	Sololá	701	Sololá	3	Barraneche	7	Julio	2023-07-25T00:00:00	2024-11-06T15:00:00	2	Temperatura media	19.8
39482	7	Sololá	701	Sololá	3	Barraneche	7	Julio	2023-07-25T00:00:00	2024-11-06T15:00:00	4	Temperatura máxima	20.7
39483	7	Sololá	701	Sololá	3	Barraneche	7	Julio	2023-07-25T00:00:00	2024-11-06T15:00:00	3	Temperatura mínima	19.2
39484	7	Sololá	701	Sololá	3	Barraneche	7	Julio	2023-07-25T00:00:00	2024-11-06T15:00:00	5	Humedad	50
39485	7	Sololá	701	Sololá	3	Barraneche	7	Julio	2023-07-25T00:00:00	2024-11-06T15:00:00	6	Velocidad del viento	11.3
39486	7	Sololá	701	Sololá	3	Barraneche	7	Julio	2023-07-25T00:00:00	2024-11-06T15:00:00	7	Dirección del viento	11.27
39487	7	Sololá	701	Sololá	3	Barraneche	7	Julio	2023-07-25T00:00:00	2024-11-06T15:00:00	1	Precipitación	0
39488	7	Sololá	701	Sololá	3	Barraneche	7	Julio	2023-07-25T00:00:00	2024-11-06T15:00:00	8	Radiación solar	824
39489	7	Sololá	701	Sololá	3	Barraneche	7	Julio	2023-07-25T00:00:00	2024-11-06T16:00:00	2	Temperatura media	19
39490	7	Sololá	701	Sololá	3	Barraneche	7	Julio	2023-07-25T00:00:00	2024-11-06T16:00:00	4	Temperatura máxima	19.9
39491	7	Sololá	701	Sololá	3	Barraneche	7	Julio	2023-07-25T00:00:00	2024-11-06T16:00:00	3	Temperatura mínima	18.9
39492	7	Sololá	701	Sololá	3	Barraneche	7	Julio	2023-07-25T00:00:00	2024-11-06T16:00:00	5	Humedad	45
39493	7	Sololá	701	Sololá	3	Barraneche	7	Julio	2023-07-25T00:00:00	2024-11-06T16:00:00	6	Velocidad del viento	11.3
39494	7	Sololá	701	Sololá	3	Barraneche	7	Julio	2023-07-25T00:00:00	2024-11-06T16:00:00	7	Dirección del viento	11.27
39495	7	Sololá	701	Sololá	3	Barraneche	7	Julio	2023-07-25T00:00:00	2024-11-06T16:00:00	1	Precipitación	0
39496	7	Sololá	701	Sololá	3	Barraneche	7	Julio	2023-07-25T00:00:00	2024-11-06T16:00:00	8	Radiación solar	646
39497	7	Sololá	701	Sololá	3	Barraneche	7	Julio	2023-07-25T00:00:00	2024-11-06T17:00:00	2	Temperatura media	17.3
39498	7	Sololá	701	Sololá	3	Barraneche	7	Julio	2023-07-25T00:00:00	2024-11-06T17:00:00	4	Temperatura máxima	19.1
39499	7	Sololá	701	Sololá	3	Barraneche	7	Julio	2023-07-25T00:00:00	2024-11-06T17:00:00	3	Temperatura mínima	17.3
39500	7	Sololá	701	Sololá	3	Barraneche	7	Julio	2023-07-25T00:00:00	2024-11-06T17:00:00	5	Humedad	55
39501	7	Sololá	701	Sololá	3	Barraneche	7	Julio	2023-07-25T00:00:00	2024-11-06T17:00:00	6	Velocidad del viento	12.9
39502	7	Sololá	701	Sololá	3	Barraneche	7	Julio	2023-07-25T00:00:00	2024-11-06T17:00:00	7	Dirección del viento	12.87
39503	7	Sololá	701	Sololá	3	Barraneche	7	Julio	2023-07-25T00:00:00	2024-11-06T17:00:00	1	Precipitación	0
39504	7	Sololá	701	Sololá	3	Barraneche	7	Julio	2023-07-25T00:00:00	2024-11-06T17:00:00	8	Radiación solar	359
39505	7	Sololá	701	Sololá	3	Barraneche	7	Julio	2023-07-25T00:00:00	2024-11-06T18:00:00	2	Temperatura media	16.4
39506	7	Sololá	701	Sololá	3	Barraneche	7	Julio	2023-07-25T00:00:00	2024-11-06T18:00:00	4	Temperatura máxima	17.3
39507	7	Sololá	701	Sololá	3	Barraneche	7	Julio	2023-07-25T00:00:00	2024-11-06T18:00:00	3	Temperatura mínima	16.4
39508	7	Sololá	701	Sololá	3	Barraneche	7	Julio	2023-07-25T00:00:00	2024-11-06T18:00:00	5	Humedad	60
39509	7	Sololá	701	Sololá	3	Barraneche	7	Julio	2023-07-25T00:00:00	2024-11-06T18:00:00	6	Velocidad del viento	14.5
39510	7	Sololá	701	Sololá	3	Barraneche	7	Julio	2023-07-25T00:00:00	2024-11-06T18:00:00	7	Dirección del viento	14.48
39511	7	Sololá	701	Sololá	3	Barraneche	7	Julio	2023-07-25T00:00:00	2024-11-06T18:00:00	1	Precipitación	0
39512	7	Sololá	701	Sololá	3	Barraneche	7	Julio	2023-07-25T00:00:00	2024-11-06T18:00:00	8	Radiación solar	88
39513	7	Sololá	701	Sololá	3	Barraneche	7	Julio	2023-07-25T00:00:00	2024-11-06T19:00:00	2	Temperatura media	15.4
39514	7	Sololá	701	Sololá	3	Barraneche	7	Julio	2023-07-25T00:00:00	2024-11-06T19:00:00	4	Temperatura máxima	16.3
39515	7	Sololá	701	Sololá	3	Barraneche	7	Julio	2023-07-25T00:00:00	2024-11-06T19:00:00	3	Temperatura mínima	15.4
39516	7	Sololá	701	Sololá	3	Barraneche	7	Julio	2023-07-25T00:00:00	2024-11-06T19:00:00	5	Humedad	60
39517	7	Sololá	701	Sololá	3	Barraneche	7	Julio	2023-07-25T00:00:00	2024-11-06T19:00:00	6	Velocidad del viento	12.9
39518	7	Sololá	701	Sololá	3	Barraneche	7	Julio	2023-07-25T00:00:00	2024-11-06T19:00:00	7	Dirección del viento	12.87
39519	7	Sololá	701	Sololá	3	Barraneche	7	Julio	2023-07-25T00:00:00	2024-11-06T19:00:00	1	Precipitación	0
39520	7	Sololá	701	Sololá	3	Barraneche	7	Julio	2023-07-25T00:00:00	2024-11-06T19:00:00	8	Radiación solar	0
39521	7	Sololá	701	Sololá	3	Barraneche	7	Julio	2023-07-25T00:00:00	2024-11-06T20:00:00	2	Temperatura media	15.3
39522	7	Sololá	701	Sololá	3	Barraneche	7	Julio	2023-07-25T00:00:00	2024-11-06T20:00:00	4	Temperatura máxima	15.6
39523	7	Sololá	701	Sololá	3	Barraneche	7	Julio	2023-07-25T00:00:00	2024-11-06T20:00:00	3	Temperatura mínima	15.3
39524	7	Sololá	701	Sololá	3	Barraneche	7	Julio	2023-07-25T00:00:00	2024-11-06T20:00:00	5	Humedad	61
39525	7	Sololá	701	Sololá	3	Barraneche	7	Julio	2023-07-25T00:00:00	2024-11-06T20:00:00	6	Velocidad del viento	12.9
39526	7	Sololá	701	Sololá	3	Barraneche	7	Julio	2023-07-25T00:00:00	2024-11-06T20:00:00	7	Dirección del viento	12.87
39527	7	Sololá	701	Sololá	3	Barraneche	7	Julio	2023-07-25T00:00:00	2024-11-06T20:00:00	1	Precipitación	0
39528	7	Sololá	701	Sololá	3	Barraneche	7	Julio	2023-07-25T00:00:00	2024-11-06T20:00:00	8	Radiación solar	0
39529	7	Sololá	701	Sololá	3	Barraneche	7	Julio	2023-07-25T00:00:00	2024-11-06T21:00:00	2	Temperatura media	14.7
39530	7	Sololá	701	Sololá	3	Barraneche	7	Julio	2023-07-25T00:00:00	2024-11-06T21:00:00	4	Temperatura máxima	15.3
39531	7	Sololá	701	Sololá	3	Barraneche	7	Julio	2023-07-25T00:00:00	2024-11-06T21:00:00	3	Temperatura mínima	14.6
39532	7	Sololá	701	Sololá	3	Barraneche	7	Julio	2023-07-25T00:00:00	2024-11-06T21:00:00	5	Humedad	62
39533	7	Sololá	701	Sololá	3	Barraneche	7	Julio	2023-07-25T00:00:00	2024-11-06T21:00:00	6	Velocidad del viento	11.3
39534	7	Sololá	701	Sololá	3	Barraneche	7	Julio	2023-07-25T00:00:00	2024-11-06T21:00:00	7	Dirección del viento	11.27
39535	7	Sololá	701	Sololá	3	Barraneche	7	Julio	2023-07-25T00:00:00	2024-11-06T21:00:00	1	Precipitación	0
39536	7	Sololá	701	Sololá	3	Barraneche	7	Julio	2023-07-25T00:00:00	2024-11-06T21:00:00	8	Radiación solar	0
39537	7	Sololá	701	Sololá	3	Barraneche	7	Julio	2023-07-25T00:00:00	2024-11-06T22:00:00	2	Temperatura media	14.1
39538	7	Sololá	701	Sololá	3	Barraneche	7	Julio	2023-07-25T00:00:00	2024-11-06T22:00:00	4	Temperatura máxima	14.7
39539	7	Sololá	701	Sololá	3	Barraneche	7	Julio	2023-07-25T00:00:00	2024-11-06T22:00:00	3	Temperatura mínima	14
39540	7	Sololá	701	Sololá	3	Barraneche	7	Julio	2023-07-25T00:00:00	2024-11-06T22:00:00	5	Humedad	56
39541	7	Sololá	701	Sololá	3	Barraneche	7	Julio	2023-07-25T00:00:00	2024-11-06T22:00:00	6	Velocidad del viento	17.7
39542	7	Sololá	701	Sololá	3	Barraneche	7	Julio	2023-07-25T00:00:00	2024-11-06T22:00:00	7	Dirección del viento	17.7
39543	7	Sololá	701	Sololá	3	Barraneche	7	Julio	2023-07-25T00:00:00	2024-11-06T22:00:00	1	Precipitación	0
39544	7	Sololá	701	Sololá	3	Barraneche	7	Julio	2023-07-25T00:00:00	2024-11-06T22:00:00	8	Radiación solar	0
39545	7	Sololá	701	Sololá	3	Barraneche	7	Julio	2023-07-25T00:00:00	2024-11-06T23:00:00	2	Temperatura media	13.3
39546	7	Sololá	701	Sololá	3	Barraneche	7	Julio	2023-07-25T00:00:00	2024-11-06T23:00:00	4	Temperatura máxima	14.1
39547	7	Sololá	701	Sololá	3	Barraneche	7	Julio	2023-07-25T00:00:00	2024-11-06T23:00:00	3	Temperatura mínima	13.2
39548	7	Sololá	701	Sololá	3	Barraneche	7	Julio	2023-07-25T00:00:00	2024-11-06T23:00:00	5	Humedad	48
39549	7	Sololá	701	Sololá	3	Barraneche	7	Julio	2023-07-25T00:00:00	2024-11-06T23:00:00	6	Velocidad del viento	22.5
39550	7	Sololá	701	Sololá	3	Barraneche	7	Julio	2023-07-25T00:00:00	2024-11-06T23:00:00	7	Dirección del viento	22.53
39551	7	Sololá	701	Sololá	3	Barraneche	7	Julio	2023-07-25T00:00:00	2024-11-06T23:00:00	1	Precipitación	0
39552	7	Sololá	701	Sololá	3	Barraneche	7	Julio	2023-07-25T00:00:00	2024-11-06T23:00:00	8	Radiación solar	0
39553	7	Sololá	701	Sololá	3	Barraneche	7	Julio	2023-07-26T00:00:00	2024-11-06T00:00:00	2	Temperatura media	14.2
39554	7	Sololá	701	Sololá	3	Barraneche	7	Julio	2023-07-26T00:00:00	2024-11-06T00:00:00	4	Temperatura máxima	14.2
39555	7	Sololá	701	Sololá	3	Barraneche	7	Julio	2023-07-26T00:00:00	2024-11-06T00:00:00	3	Temperatura mínima	13.3
39556	7	Sololá	701	Sololá	3	Barraneche	7	Julio	2023-07-26T00:00:00	2024-11-06T00:00:00	5	Humedad	46
39557	7	Sololá	701	Sololá	3	Barraneche	7	Julio	2023-07-26T00:00:00	2024-11-06T00:00:00	6	Velocidad del viento	22.5
39558	7	Sololá	701	Sololá	3	Barraneche	7	Julio	2023-07-26T00:00:00	2024-11-06T00:00:00	7	Dirección del viento	22.53
39559	7	Sololá	701	Sololá	3	Barraneche	7	Julio	2023-07-26T00:00:00	2024-11-06T00:00:00	1	Precipitación	0
39560	7	Sololá	701	Sololá	3	Barraneche	7	Julio	2023-07-26T00:00:00	2024-11-06T00:00:00	8	Radiación solar	0
39561	7	Sololá	701	Sololá	3	Barraneche	7	Julio	2023-07-26T00:00:00	2024-11-06T01:00:00	2	Temperatura media	14.6
39562	7	Sololá	701	Sololá	3	Barraneche	7	Julio	2023-07-26T00:00:00	2024-11-06T01:00:00	4	Temperatura máxima	14.6
39563	7	Sololá	701	Sololá	3	Barraneche	7	Julio	2023-07-26T00:00:00	2024-11-06T01:00:00	3	Temperatura mínima	13.7
39564	7	Sololá	701	Sololá	3	Barraneche	7	Julio	2023-07-26T00:00:00	2024-11-06T01:00:00	5	Humedad	40
39565	7	Sololá	701	Sololá	3	Barraneche	7	Julio	2023-07-26T00:00:00	2024-11-06T01:00:00	6	Velocidad del viento	11.3
39566	7	Sololá	701	Sololá	3	Barraneche	7	Julio	2023-07-26T00:00:00	2024-11-06T01:00:00	7	Dirección del viento	11.27
39567	7	Sololá	701	Sololá	3	Barraneche	7	Julio	2023-07-26T00:00:00	2024-11-06T01:00:00	1	Precipitación	0
39568	7	Sololá	701	Sololá	3	Barraneche	7	Julio	2023-07-26T00:00:00	2024-11-06T01:00:00	8	Radiación solar	0
39569	7	Sololá	701	Sololá	3	Barraneche	7	Julio	2023-07-26T00:00:00	2024-11-06T02:00:00	2	Temperatura media	14.1
39570	7	Sololá	701	Sololá	3	Barraneche	7	Julio	2023-07-26T00:00:00	2024-11-06T02:00:00	4	Temperatura máxima	15
39571	7	Sololá	701	Sololá	3	Barraneche	7	Julio	2023-07-26T00:00:00	2024-11-06T02:00:00	3	Temperatura mínima	13.3
39572	7	Sololá	701	Sololá	3	Barraneche	7	Julio	2023-07-26T00:00:00	2024-11-06T02:00:00	5	Humedad	40
39573	7	Sololá	701	Sololá	3	Barraneche	7	Julio	2023-07-26T00:00:00	2024-11-06T02:00:00	6	Velocidad del viento	11.3
39574	7	Sololá	701	Sololá	3	Barraneche	7	Julio	2023-07-26T00:00:00	2024-11-06T02:00:00	7	Dirección del viento	11.27
39575	7	Sololá	701	Sololá	3	Barraneche	7	Julio	2023-07-26T00:00:00	2024-11-06T02:00:00	1	Precipitación	0
39576	7	Sololá	701	Sololá	3	Barraneche	7	Julio	2023-07-26T00:00:00	2024-11-06T02:00:00	8	Radiación solar	0
39577	7	Sololá	701	Sololá	3	Barraneche	7	Julio	2023-07-26T00:00:00	2024-11-06T03:00:00	2	Temperatura media	13.9
39578	7	Sololá	701	Sololá	3	Barraneche	7	Julio	2023-07-26T00:00:00	2024-11-06T03:00:00	4	Temperatura máxima	14.2
39579	7	Sololá	701	Sololá	3	Barraneche	7	Julio	2023-07-26T00:00:00	2024-11-06T03:00:00	3	Temperatura mínima	12.5
39580	7	Sololá	701	Sololá	3	Barraneche	7	Julio	2023-07-26T00:00:00	2024-11-06T03:00:00	5	Humedad	50
39581	7	Sololá	701	Sololá	3	Barraneche	7	Julio	2023-07-26T00:00:00	2024-11-06T03:00:00	6	Velocidad del viento	8
39582	7	Sololá	701	Sololá	3	Barraneche	7	Julio	2023-07-26T00:00:00	2024-11-06T03:00:00	7	Dirección del viento	8.05
39583	7	Sololá	701	Sololá	3	Barraneche	7	Julio	2023-07-26T00:00:00	2024-11-06T03:00:00	1	Precipitación	0
39584	7	Sololá	701	Sololá	3	Barraneche	7	Julio	2023-07-26T00:00:00	2024-11-06T03:00:00	8	Radiación solar	0
39585	7	Sololá	701	Sololá	3	Barraneche	7	Julio	2023-07-26T00:00:00	2024-11-06T04:00:00	2	Temperatura media	14.1
39586	7	Sololá	701	Sololá	3	Barraneche	7	Julio	2023-07-26T00:00:00	2024-11-06T04:00:00	4	Temperatura máxima	14.2
39587	7	Sololá	701	Sololá	3	Barraneche	7	Julio	2023-07-26T00:00:00	2024-11-06T04:00:00	3	Temperatura mínima	13.4
39588	7	Sololá	701	Sololá	3	Barraneche	7	Julio	2023-07-26T00:00:00	2024-11-06T04:00:00	5	Humedad	49
39589	7	Sololá	701	Sololá	3	Barraneche	7	Julio	2023-07-26T00:00:00	2024-11-06T04:00:00	6	Velocidad del viento	12.9
39590	7	Sololá	701	Sololá	3	Barraneche	7	Julio	2023-07-26T00:00:00	2024-11-06T04:00:00	7	Dirección del viento	12.87
39591	7	Sololá	701	Sololá	3	Barraneche	7	Julio	2023-07-26T00:00:00	2024-11-06T04:00:00	1	Precipitación	0
39592	7	Sololá	701	Sololá	3	Barraneche	7	Julio	2023-07-26T00:00:00	2024-11-06T04:00:00	8	Radiación solar	0
39593	7	Sololá	701	Sololá	3	Barraneche	7	Julio	2023-07-26T00:00:00	2024-11-06T05:00:00	2	Temperatura media	14.4
39594	7	Sololá	701	Sololá	3	Barraneche	7	Julio	2023-07-26T00:00:00	2024-11-06T05:00:00	4	Temperatura máxima	14.7
39595	7	Sololá	701	Sololá	3	Barraneche	7	Julio	2023-07-26T00:00:00	2024-11-06T05:00:00	3	Temperatura mínima	14.1
39596	7	Sololá	701	Sololá	3	Barraneche	7	Julio	2023-07-26T00:00:00	2024-11-06T05:00:00	5	Humedad	51
39597	7	Sololá	701	Sololá	3	Barraneche	7	Julio	2023-07-26T00:00:00	2024-11-06T05:00:00	6	Velocidad del viento	16.1
39598	7	Sololá	701	Sololá	3	Barraneche	7	Julio	2023-07-26T00:00:00	2024-11-06T05:00:00	7	Dirección del viento	16.09
39599	7	Sololá	701	Sololá	3	Barraneche	7	Julio	2023-07-26T00:00:00	2024-11-06T05:00:00	1	Precipitación	0
39600	7	Sololá	701	Sololá	3	Barraneche	7	Julio	2023-07-26T00:00:00	2024-11-06T05:00:00	8	Radiación solar	0
39601	7	Sololá	701	Sololá	3	Barraneche	7	Julio	2023-07-26T00:00:00	2024-11-06T06:00:00	2	Temperatura media	13.5
39602	7	Sololá	701	Sololá	3	Barraneche	7	Julio	2023-07-26T00:00:00	2024-11-06T06:00:00	4	Temperatura máxima	14.4
39603	7	Sololá	701	Sololá	3	Barraneche	7	Julio	2023-07-26T00:00:00	2024-11-06T06:00:00	3	Temperatura mínima	13.5
39604	7	Sololá	701	Sololá	3	Barraneche	7	Julio	2023-07-26T00:00:00	2024-11-06T06:00:00	5	Humedad	54
39605	7	Sololá	701	Sololá	3	Barraneche	7	Julio	2023-07-26T00:00:00	2024-11-06T06:00:00	6	Velocidad del viento	14.5
39606	7	Sololá	701	Sololá	3	Barraneche	7	Julio	2023-07-26T00:00:00	2024-11-06T06:00:00	7	Dirección del viento	14.48
39607	7	Sololá	701	Sololá	3	Barraneche	7	Julio	2023-07-26T00:00:00	2024-11-06T06:00:00	1	Precipitación	0
39608	7	Sololá	701	Sololá	3	Barraneche	7	Julio	2023-07-26T00:00:00	2024-11-06T06:00:00	8	Radiación solar	2
39609	7	Sololá	701	Sololá	3	Barraneche	7	Julio	2023-07-26T00:00:00	2024-11-06T07:00:00	2	Temperatura media	14.3
39610	7	Sololá	701	Sololá	3	Barraneche	7	Julio	2023-07-26T00:00:00	2024-11-06T07:00:00	4	Temperatura máxima	14.4
39611	7	Sololá	701	Sololá	3	Barraneche	7	Julio	2023-07-26T00:00:00	2024-11-06T07:00:00	3	Temperatura mínima	13.3
39612	7	Sololá	701	Sololá	3	Barraneche	7	Julio	2023-07-26T00:00:00	2024-11-06T07:00:00	5	Humedad	50
39613	7	Sololá	701	Sololá	3	Barraneche	7	Julio	2023-07-26T00:00:00	2024-11-06T07:00:00	6	Velocidad del viento	14.5
39614	7	Sololá	701	Sololá	3	Barraneche	7	Julio	2023-07-26T00:00:00	2024-11-06T07:00:00	7	Dirección del viento	14.48
39615	7	Sololá	701	Sololá	3	Barraneche	7	Julio	2023-07-26T00:00:00	2024-11-06T07:00:00	1	Precipitación	0
39616	7	Sololá	701	Sololá	3	Barraneche	7	Julio	2023-07-26T00:00:00	2024-11-06T07:00:00	8	Radiación solar	72
39617	7	Sololá	701	Sololá	3	Barraneche	7	Julio	2023-07-26T00:00:00	2024-11-06T08:00:00	2	Temperatura media	15.6
39618	7	Sololá	701	Sololá	3	Barraneche	7	Julio	2023-07-26T00:00:00	2024-11-06T08:00:00	4	Temperatura máxima	15.6
39619	7	Sololá	701	Sololá	3	Barraneche	7	Julio	2023-07-26T00:00:00	2024-11-06T08:00:00	3	Temperatura mínima	14.4
39620	7	Sololá	701	Sololá	3	Barraneche	7	Julio	2023-07-26T00:00:00	2024-11-06T08:00:00	5	Humedad	49
39621	7	Sololá	701	Sololá	3	Barraneche	7	Julio	2023-07-26T00:00:00	2024-11-06T08:00:00	6	Velocidad del viento	12.9
39622	7	Sololá	701	Sololá	3	Barraneche	7	Julio	2023-07-26T00:00:00	2024-11-06T08:00:00	7	Dirección del viento	12.87
39623	7	Sololá	701	Sololá	3	Barraneche	7	Julio	2023-07-26T00:00:00	2024-11-06T08:00:00	1	Precipitación	0
39624	7	Sololá	701	Sololá	3	Barraneche	7	Julio	2023-07-26T00:00:00	2024-11-06T08:00:00	8	Radiación solar	347
39625	7	Sololá	701	Sololá	3	Barraneche	7	Julio	2023-07-26T00:00:00	2024-11-06T09:00:00	2	Temperatura media	16.8
39626	7	Sololá	701	Sololá	3	Barraneche	7	Julio	2023-07-26T00:00:00	2024-11-06T09:00:00	4	Temperatura máxima	16.8
39627	7	Sololá	701	Sololá	3	Barraneche	7	Julio	2023-07-26T00:00:00	2024-11-06T09:00:00	3	Temperatura mínima	15.6
39628	7	Sololá	701	Sololá	3	Barraneche	7	Julio	2023-07-26T00:00:00	2024-11-06T09:00:00	5	Humedad	52
39629	7	Sololá	701	Sololá	3	Barraneche	7	Julio	2023-07-26T00:00:00	2024-11-06T09:00:00	6	Velocidad del viento	14.5
39630	7	Sololá	701	Sololá	3	Barraneche	7	Julio	2023-07-26T00:00:00	2024-11-06T09:00:00	7	Dirección del viento	14.48
39631	7	Sololá	701	Sololá	3	Barraneche	7	Julio	2023-07-26T00:00:00	2024-11-06T09:00:00	1	Precipitación	0
39632	7	Sololá	701	Sololá	3	Barraneche	7	Julio	2023-07-26T00:00:00	2024-11-06T09:00:00	8	Radiación solar	592
39633	7	Sololá	701	Sololá	3	Barraneche	7	Julio	2023-07-26T00:00:00	2024-11-06T10:00:00	2	Temperatura media	18.3
39634	7	Sololá	701	Sololá	3	Barraneche	7	Julio	2023-07-26T00:00:00	2024-11-06T10:00:00	4	Temperatura máxima	18.3
39635	7	Sololá	701	Sololá	3	Barraneche	7	Julio	2023-07-26T00:00:00	2024-11-06T10:00:00	3	Temperatura mínima	16.7
39636	7	Sololá	701	Sololá	3	Barraneche	7	Julio	2023-07-26T00:00:00	2024-11-06T10:00:00	5	Humedad	49
39637	7	Sololá	701	Sololá	3	Barraneche	7	Julio	2023-07-26T00:00:00	2024-11-06T10:00:00	6	Velocidad del viento	16.1
39638	7	Sololá	701	Sololá	3	Barraneche	7	Julio	2023-07-26T00:00:00	2024-11-06T10:00:00	7	Dirección del viento	16.09
39639	7	Sololá	701	Sololá	3	Barraneche	7	Julio	2023-07-26T00:00:00	2024-11-06T10:00:00	1	Precipitación	0
39640	7	Sololá	701	Sololá	3	Barraneche	7	Julio	2023-07-26T00:00:00	2024-11-06T10:00:00	8	Radiación solar	783
39641	7	Sololá	701	Sololá	3	Barraneche	7	Julio	2023-07-26T00:00:00	2024-11-06T11:00:00	2	Temperatura media	19.2
39642	7	Sololá	701	Sololá	3	Barraneche	7	Julio	2023-07-26T00:00:00	2024-11-06T11:00:00	4	Temperatura máxima	19.6
39643	7	Sololá	701	Sololá	3	Barraneche	7	Julio	2023-07-26T00:00:00	2024-11-06T11:00:00	3	Temperatura mínima	18.3
39644	7	Sololá	701	Sololá	3	Barraneche	7	Julio	2023-07-26T00:00:00	2024-11-06T11:00:00	5	Humedad	50
39645	7	Sololá	701	Sololá	3	Barraneche	7	Julio	2023-07-26T00:00:00	2024-11-06T11:00:00	6	Velocidad del viento	16.1
39646	7	Sololá	701	Sololá	3	Barraneche	7	Julio	2023-07-26T00:00:00	2024-11-06T11:00:00	7	Dirección del viento	16.09
39647	7	Sololá	701	Sololá	3	Barraneche	7	Julio	2023-07-26T00:00:00	2024-11-06T11:00:00	1	Precipitación	0
39648	7	Sololá	701	Sololá	3	Barraneche	7	Julio	2023-07-26T00:00:00	2024-11-06T11:00:00	8	Radiación solar	933
39649	7	Sololá	701	Sololá	3	Barraneche	7	Julio	2023-07-26T00:00:00	2024-11-06T12:00:00	2	Temperatura media	19.3
39650	7	Sololá	701	Sololá	3	Barraneche	7	Julio	2023-07-26T00:00:00	2024-11-06T12:00:00	4	Temperatura máxima	19.8
39651	7	Sololá	701	Sololá	3	Barraneche	7	Julio	2023-07-26T00:00:00	2024-11-06T12:00:00	3	Temperatura mínima	19.1
39652	7	Sololá	701	Sololá	3	Barraneche	7	Julio	2023-07-26T00:00:00	2024-11-06T12:00:00	5	Humedad	49
39653	7	Sololá	701	Sololá	3	Barraneche	7	Julio	2023-07-26T00:00:00	2024-11-06T12:00:00	6	Velocidad del viento	16.1
39654	7	Sololá	701	Sololá	3	Barraneche	7	Julio	2023-07-26T00:00:00	2024-11-06T12:00:00	7	Dirección del viento	16.09
39655	7	Sololá	701	Sololá	3	Barraneche	7	Julio	2023-07-26T00:00:00	2024-11-06T12:00:00	1	Precipitación	0
39656	7	Sololá	701	Sololá	3	Barraneche	7	Julio	2023-07-26T00:00:00	2024-11-06T12:00:00	8	Radiación solar	1010
39657	7	Sololá	701	Sololá	3	Barraneche	7	Julio	2023-07-26T00:00:00	2024-11-06T13:00:00	2	Temperatura media	19.3
39658	7	Sololá	701	Sololá	3	Barraneche	7	Julio	2023-07-26T00:00:00	2024-11-06T13:00:00	4	Temperatura máxima	19.8
39659	7	Sololá	701	Sololá	3	Barraneche	7	Julio	2023-07-26T00:00:00	2024-11-06T13:00:00	3	Temperatura mínima	19.1
39660	7	Sololá	701	Sololá	3	Barraneche	7	Julio	2023-07-26T00:00:00	2024-11-06T13:00:00	5	Humedad	45
39661	7	Sololá	701	Sololá	3	Barraneche	7	Julio	2023-07-26T00:00:00	2024-11-06T13:00:00	6	Velocidad del viento	19.3
39662	7	Sololá	701	Sololá	3	Barraneche	7	Julio	2023-07-26T00:00:00	2024-11-06T13:00:00	7	Dirección del viento	19.31
39663	7	Sololá	701	Sololá	3	Barraneche	7	Julio	2023-07-26T00:00:00	2024-11-06T13:00:00	1	Precipitación	0
39664	7	Sololá	701	Sololá	3	Barraneche	7	Julio	2023-07-26T00:00:00	2024-11-06T13:00:00	8	Radiación solar	1016
39665	7	Sololá	701	Sololá	3	Barraneche	7	Julio	2023-07-26T00:00:00	2024-11-06T14:00:00	2	Temperatura media	19.4
39666	7	Sololá	701	Sololá	3	Barraneche	7	Julio	2023-07-26T00:00:00	2024-11-06T14:00:00	4	Temperatura máxima	19.9
39667	7	Sololá	701	Sololá	3	Barraneche	7	Julio	2023-07-26T00:00:00	2024-11-06T14:00:00	3	Temperatura mínima	19.1
39668	7	Sololá	701	Sololá	3	Barraneche	7	Julio	2023-07-26T00:00:00	2024-11-06T14:00:00	5	Humedad	49
39669	7	Sololá	701	Sololá	3	Barraneche	7	Julio	2023-07-26T00:00:00	2024-11-06T14:00:00	6	Velocidad del viento	17.7
39670	7	Sololá	701	Sololá	3	Barraneche	7	Julio	2023-07-26T00:00:00	2024-11-06T14:00:00	7	Dirección del viento	17.7
39671	7	Sololá	701	Sololá	3	Barraneche	7	Julio	2023-07-26T00:00:00	2024-11-06T14:00:00	1	Precipitación	0
39672	7	Sololá	701	Sololá	3	Barraneche	7	Julio	2023-07-26T00:00:00	2024-11-06T14:00:00	8	Radiación solar	964
39673	7	Sololá	701	Sololá	3	Barraneche	7	Julio	2023-07-26T00:00:00	2024-11-06T15:00:00	2	Temperatura media	19.3
39674	7	Sololá	701	Sololá	3	Barraneche	7	Julio	2023-07-26T00:00:00	2024-11-06T15:00:00	4	Temperatura máxima	19.7
39675	7	Sololá	701	Sololá	3	Barraneche	7	Julio	2023-07-26T00:00:00	2024-11-06T15:00:00	3	Temperatura mínima	19.2
39676	7	Sololá	701	Sololá	3	Barraneche	7	Julio	2023-07-26T00:00:00	2024-11-06T15:00:00	5	Humedad	50
39677	7	Sololá	701	Sololá	3	Barraneche	7	Julio	2023-07-26T00:00:00	2024-11-06T15:00:00	6	Velocidad del viento	17.7
39678	7	Sololá	701	Sololá	3	Barraneche	7	Julio	2023-07-26T00:00:00	2024-11-06T15:00:00	7	Dirección del viento	17.7
39679	7	Sololá	701	Sololá	3	Barraneche	7	Julio	2023-07-26T00:00:00	2024-11-06T15:00:00	1	Precipitación	0
39680	7	Sololá	701	Sololá	3	Barraneche	7	Julio	2023-07-26T00:00:00	2024-11-06T15:00:00	8	Radiación solar	823
39681	7	Sololá	701	Sololá	3	Barraneche	7	Julio	2023-07-26T00:00:00	2024-11-06T16:00:00	2	Temperatura media	17.7
39682	7	Sololá	701	Sololá	3	Barraneche	7	Julio	2023-07-26T00:00:00	2024-11-06T16:00:00	4	Temperatura máxima	19.6
39683	7	Sololá	701	Sololá	3	Barraneche	7	Julio	2023-07-26T00:00:00	2024-11-06T16:00:00	3	Temperatura mínima	17.7
39684	7	Sololá	701	Sololá	3	Barraneche	7	Julio	2023-07-26T00:00:00	2024-11-06T16:00:00	5	Humedad	57
39685	7	Sololá	701	Sololá	3	Barraneche	7	Julio	2023-07-26T00:00:00	2024-11-06T16:00:00	6	Velocidad del viento	19.3
39686	7	Sololá	701	Sololá	3	Barraneche	7	Julio	2023-07-26T00:00:00	2024-11-06T16:00:00	7	Dirección del viento	19.31
39687	7	Sololá	701	Sololá	3	Barraneche	7	Julio	2023-07-26T00:00:00	2024-11-06T16:00:00	1	Precipitación	0
39688	7	Sololá	701	Sololá	3	Barraneche	7	Julio	2023-07-26T00:00:00	2024-11-06T16:00:00	8	Radiación solar	583
39689	7	Sololá	701	Sololá	3	Barraneche	7	Julio	2023-07-26T00:00:00	2024-11-06T17:00:00	2	Temperatura media	16.6
39690	7	Sololá	701	Sololá	3	Barraneche	7	Julio	2023-07-26T00:00:00	2024-11-06T17:00:00	4	Temperatura máxima	17.7
39691	7	Sololá	701	Sololá	3	Barraneche	7	Julio	2023-07-26T00:00:00	2024-11-06T17:00:00	3	Temperatura mínima	16.6
39692	7	Sololá	701	Sololá	3	Barraneche	7	Julio	2023-07-26T00:00:00	2024-11-06T17:00:00	5	Humedad	59
39693	7	Sololá	701	Sololá	3	Barraneche	7	Julio	2023-07-26T00:00:00	2024-11-06T17:00:00	6	Velocidad del viento	17.7
39694	7	Sololá	701	Sololá	3	Barraneche	7	Julio	2023-07-26T00:00:00	2024-11-06T17:00:00	7	Dirección del viento	17.7
39695	7	Sololá	701	Sololá	3	Barraneche	7	Julio	2023-07-26T00:00:00	2024-11-06T17:00:00	1	Precipitación	0
39696	7	Sololá	701	Sololá	3	Barraneche	7	Julio	2023-07-26T00:00:00	2024-11-06T17:00:00	8	Radiación solar	98
39697	7	Sololá	701	Sololá	3	Barraneche	7	Julio	2023-07-26T00:00:00	2024-11-06T18:00:00	2	Temperatura media	15.8
39698	7	Sololá	701	Sololá	3	Barraneche	7	Julio	2023-07-26T00:00:00	2024-11-06T18:00:00	4	Temperatura máxima	16.6
39699	7	Sololá	701	Sololá	3	Barraneche	7	Julio	2023-07-26T00:00:00	2024-11-06T18:00:00	3	Temperatura mínima	15.8
39700	7	Sololá	701	Sololá	3	Barraneche	7	Julio	2023-07-26T00:00:00	2024-11-06T18:00:00	5	Humedad	60
39701	7	Sololá	701	Sololá	3	Barraneche	7	Julio	2023-07-26T00:00:00	2024-11-06T18:00:00	6	Velocidad del viento	17.7
39702	7	Sololá	701	Sololá	3	Barraneche	7	Julio	2023-07-26T00:00:00	2024-11-06T18:00:00	7	Dirección del viento	17.7
39703	7	Sololá	701	Sololá	3	Barraneche	7	Julio	2023-07-26T00:00:00	2024-11-06T18:00:00	1	Precipitación	0
39704	7	Sololá	701	Sololá	3	Barraneche	7	Julio	2023-07-26T00:00:00	2024-11-06T18:00:00	8	Radiación solar	43
39705	7	Sololá	701	Sololá	3	Barraneche	7	Julio	2023-07-26T00:00:00	2024-11-06T19:00:00	2	Temperatura media	14.9
39706	7	Sololá	701	Sololá	3	Barraneche	7	Julio	2023-07-26T00:00:00	2024-11-06T19:00:00	4	Temperatura máxima	15.8
39707	7	Sololá	701	Sololá	3	Barraneche	7	Julio	2023-07-26T00:00:00	2024-11-06T19:00:00	3	Temperatura mínima	14.9
39708	7	Sololá	701	Sololá	3	Barraneche	7	Julio	2023-07-26T00:00:00	2024-11-06T19:00:00	5	Humedad	61
39709	7	Sololá	701	Sololá	3	Barraneche	7	Julio	2023-07-26T00:00:00	2024-11-06T19:00:00	6	Velocidad del viento	12.9
39710	7	Sololá	701	Sololá	3	Barraneche	7	Julio	2023-07-26T00:00:00	2024-11-06T19:00:00	7	Dirección del viento	12.87
39711	7	Sololá	701	Sololá	3	Barraneche	7	Julio	2023-07-26T00:00:00	2024-11-06T19:00:00	1	Precipitación	0
39712	7	Sololá	701	Sololá	3	Barraneche	7	Julio	2023-07-26T00:00:00	2024-11-06T19:00:00	8	Radiación solar	0
39713	7	Sololá	701	Sololá	3	Barraneche	7	Julio	2023-07-26T00:00:00	2024-11-06T20:00:00	2	Temperatura media	15.2
39714	7	Sololá	701	Sololá	3	Barraneche	7	Julio	2023-07-26T00:00:00	2024-11-06T20:00:00	4	Temperatura máxima	15.2
39715	7	Sololá	701	Sololá	3	Barraneche	7	Julio	2023-07-26T00:00:00	2024-11-06T20:00:00	3	Temperatura mínima	14.8
39716	7	Sololá	701	Sololá	3	Barraneche	7	Julio	2023-07-26T00:00:00	2024-11-06T20:00:00	5	Humedad	53
39717	7	Sololá	701	Sololá	3	Barraneche	7	Julio	2023-07-26T00:00:00	2024-11-06T20:00:00	6	Velocidad del viento	16.1
39718	7	Sololá	701	Sololá	3	Barraneche	7	Julio	2023-07-26T00:00:00	2024-11-06T20:00:00	7	Dirección del viento	16.09
39719	7	Sololá	701	Sololá	3	Barraneche	7	Julio	2023-07-26T00:00:00	2024-11-06T20:00:00	1	Precipitación	0
39720	7	Sololá	701	Sololá	3	Barraneche	7	Julio	2023-07-26T00:00:00	2024-11-06T20:00:00	8	Radiación solar	0
39721	7	Sololá	701	Sololá	3	Barraneche	7	Julio	2023-07-26T00:00:00	2024-11-06T21:00:00	2	Temperatura media	14.8
39722	7	Sololá	701	Sololá	3	Barraneche	7	Julio	2023-07-26T00:00:00	2024-11-06T21:00:00	4	Temperatura máxima	16.2
39723	7	Sololá	701	Sololá	3	Barraneche	7	Julio	2023-07-26T00:00:00	2024-11-06T21:00:00	3	Temperatura mínima	14.8
39724	7	Sololá	701	Sololá	3	Barraneche	7	Julio	2023-07-26T00:00:00	2024-11-06T21:00:00	5	Humedad	75
39725	7	Sololá	701	Sololá	3	Barraneche	7	Julio	2023-07-26T00:00:00	2024-11-06T21:00:00	6	Velocidad del viento	0
39726	7	Sololá	701	Sololá	3	Barraneche	7	Julio	2023-07-26T00:00:00	2024-11-06T21:00:00	7	Dirección del viento	0
39727	7	Sololá	701	Sololá	3	Barraneche	7	Julio	2023-07-26T00:00:00	2024-11-06T21:00:00	1	Precipitación	0
39728	7	Sololá	701	Sololá	3	Barraneche	7	Julio	2023-07-26T00:00:00	2024-11-06T21:00:00	8	Radiación solar	0
39729	7	Sololá	701	Sololá	3	Barraneche	7	Julio	2023-07-26T00:00:00	2024-11-06T22:00:00	2	Temperatura media	14.9
39730	7	Sololá	701	Sololá	3	Barraneche	7	Julio	2023-07-26T00:00:00	2024-11-06T22:00:00	4	Temperatura máxima	14.9
39731	7	Sololá	701	Sololá	3	Barraneche	7	Julio	2023-07-26T00:00:00	2024-11-06T22:00:00	3	Temperatura mínima	14.5
39732	7	Sololá	701	Sololá	3	Barraneche	7	Julio	2023-07-26T00:00:00	2024-11-06T22:00:00	5	Humedad	74
39733	7	Sololá	701	Sololá	3	Barraneche	7	Julio	2023-07-26T00:00:00	2024-11-06T22:00:00	6	Velocidad del viento	0
39734	7	Sololá	701	Sololá	3	Barraneche	7	Julio	2023-07-26T00:00:00	2024-11-06T22:00:00	7	Dirección del viento	0
39735	7	Sololá	701	Sololá	3	Barraneche	7	Julio	2023-07-26T00:00:00	2024-11-06T22:00:00	1	Precipitación	0
39736	7	Sololá	701	Sololá	3	Barraneche	7	Julio	2023-07-26T00:00:00	2024-11-06T22:00:00	8	Radiación solar	0
39737	7	Sololá	701	Sololá	3	Barraneche	7	Julio	2023-07-26T00:00:00	2024-11-06T23:00:00	2	Temperatura media	14.2
39738	7	Sololá	701	Sololá	3	Barraneche	7	Julio	2023-07-26T00:00:00	2024-11-06T23:00:00	4	Temperatura máxima	14.9
39739	7	Sololá	701	Sololá	3	Barraneche	7	Julio	2023-07-26T00:00:00	2024-11-06T23:00:00	3	Temperatura mínima	14.2
39740	7	Sololá	701	Sololá	3	Barraneche	7	Julio	2023-07-26T00:00:00	2024-11-06T23:00:00	5	Humedad	80
39741	7	Sololá	701	Sololá	3	Barraneche	7	Julio	2023-07-26T00:00:00	2024-11-06T23:00:00	6	Velocidad del viento	0
39742	7	Sololá	701	Sololá	3	Barraneche	7	Julio	2023-07-26T00:00:00	2024-11-06T23:00:00	7	Dirección del viento	0
39743	7	Sololá	701	Sololá	3	Barraneche	7	Julio	2023-07-26T00:00:00	2024-11-06T23:00:00	1	Precipitación	0
39744	7	Sololá	701	Sololá	3	Barraneche	7	Julio	2023-07-26T00:00:00	2024-11-06T23:00:00	8	Radiación solar	0
39745	7	Sololá	701	Sololá	3	Barraneche	7	Julio	2023-07-27T00:00:00	2024-11-06T00:00:00	2	Temperatura media	14.2
39746	7	Sololá	701	Sololá	3	Barraneche	7	Julio	2023-07-27T00:00:00	2024-11-06T00:00:00	4	Temperatura máxima	14.3
39747	7	Sololá	701	Sololá	3	Barraneche	7	Julio	2023-07-27T00:00:00	2024-11-06T00:00:00	3	Temperatura mínima	14.1
39748	7	Sololá	701	Sololá	3	Barraneche	7	Julio	2023-07-27T00:00:00	2024-11-06T00:00:00	5	Humedad	79
39749	7	Sololá	701	Sololá	3	Barraneche	7	Julio	2023-07-27T00:00:00	2024-11-06T00:00:00	6	Velocidad del viento	0
39750	7	Sololá	701	Sololá	3	Barraneche	7	Julio	2023-07-27T00:00:00	2024-11-06T00:00:00	7	Dirección del viento	0
39751	7	Sololá	701	Sololá	3	Barraneche	7	Julio	2023-07-27T00:00:00	2024-11-06T00:00:00	1	Precipitación	0
39752	7	Sololá	701	Sololá	3	Barraneche	7	Julio	2023-07-27T00:00:00	2024-11-06T00:00:00	8	Radiación solar	0
39753	7	Sololá	701	Sololá	3	Barraneche	7	Julio	2023-07-27T00:00:00	2024-11-06T01:00:00	2	Temperatura media	14.2
39754	7	Sololá	701	Sololá	3	Barraneche	7	Julio	2023-07-27T00:00:00	2024-11-06T01:00:00	4	Temperatura máxima	14.3
39755	7	Sololá	701	Sololá	3	Barraneche	7	Julio	2023-07-27T00:00:00	2024-11-06T01:00:00	3	Temperatura mínima	14.1
39756	7	Sololá	701	Sololá	3	Barraneche	7	Julio	2023-07-27T00:00:00	2024-11-06T01:00:00	5	Humedad	78
39757	7	Sololá	701	Sololá	3	Barraneche	7	Julio	2023-07-27T00:00:00	2024-11-06T01:00:00	6	Velocidad del viento	0
39758	7	Sololá	701	Sololá	3	Barraneche	7	Julio	2023-07-27T00:00:00	2024-11-06T01:00:00	7	Dirección del viento	0
39759	7	Sololá	701	Sololá	3	Barraneche	7	Julio	2023-07-27T00:00:00	2024-11-06T01:00:00	1	Precipitación	0
39760	7	Sololá	701	Sololá	3	Barraneche	7	Julio	2023-07-27T00:00:00	2024-11-06T01:00:00	8	Radiación solar	0
39761	7	Sololá	701	Sololá	3	Barraneche	7	Julio	2023-07-27T00:00:00	2024-11-06T02:00:00	2	Temperatura media	14.5
39762	7	Sololá	701	Sololá	3	Barraneche	7	Julio	2023-07-27T00:00:00	2024-11-06T02:00:00	4	Temperatura máxima	14.7
39763	7	Sololá	701	Sololá	3	Barraneche	7	Julio	2023-07-27T00:00:00	2024-11-06T02:00:00	3	Temperatura mínima	13.6
39764	7	Sololá	701	Sololá	3	Barraneche	7	Julio	2023-07-27T00:00:00	2024-11-06T02:00:00	5	Humedad	52
39765	7	Sololá	701	Sololá	3	Barraneche	7	Julio	2023-07-27T00:00:00	2024-11-06T02:00:00	6	Velocidad del viento	14.5
39766	7	Sololá	701	Sololá	3	Barraneche	7	Julio	2023-07-27T00:00:00	2024-11-06T02:00:00	7	Dirección del viento	14.48
39767	7	Sololá	701	Sololá	3	Barraneche	7	Julio	2023-07-27T00:00:00	2024-11-06T02:00:00	1	Precipitación	0
39768	7	Sololá	701	Sololá	3	Barraneche	7	Julio	2023-07-27T00:00:00	2024-11-06T02:00:00	8	Radiación solar	0
39769	7	Sololá	701	Sololá	3	Barraneche	7	Julio	2023-07-27T00:00:00	2024-11-06T03:00:00	2	Temperatura media	13.4
39770	7	Sololá	701	Sololá	3	Barraneche	7	Julio	2023-07-27T00:00:00	2024-11-06T03:00:00	4	Temperatura máxima	14.9
39771	7	Sololá	701	Sololá	3	Barraneche	7	Julio	2023-07-27T00:00:00	2024-11-06T03:00:00	3	Temperatura mínima	12.4
39772	7	Sololá	701	Sololá	3	Barraneche	7	Julio	2023-07-27T00:00:00	2024-11-06T03:00:00	5	Humedad	59
39773	7	Sololá	701	Sololá	3	Barraneche	7	Julio	2023-07-27T00:00:00	2024-11-06T03:00:00	6	Velocidad del viento	8
39774	7	Sololá	701	Sololá	3	Barraneche	7	Julio	2023-07-27T00:00:00	2024-11-06T03:00:00	7	Dirección del viento	8.05
39775	7	Sololá	701	Sololá	3	Barraneche	7	Julio	2023-07-27T00:00:00	2024-11-06T03:00:00	1	Precipitación	0
39776	7	Sololá	701	Sololá	3	Barraneche	7	Julio	2023-07-27T00:00:00	2024-11-06T03:00:00	8	Radiación solar	0
39777	7	Sololá	701	Sololá	3	Barraneche	7	Julio	2023-07-27T00:00:00	2024-11-06T04:00:00	2	Temperatura media	12.4
39778	7	Sololá	701	Sololá	3	Barraneche	7	Julio	2023-07-27T00:00:00	2024-11-06T04:00:00	4	Temperatura máxima	13.4
39779	7	Sololá	701	Sololá	3	Barraneche	7	Julio	2023-07-27T00:00:00	2024-11-06T04:00:00	3	Temperatura mínima	12.4
39780	7	Sololá	701	Sololá	3	Barraneche	7	Julio	2023-07-27T00:00:00	2024-11-06T04:00:00	5	Humedad	62
39781	7	Sololá	701	Sololá	3	Barraneche	7	Julio	2023-07-27T00:00:00	2024-11-06T04:00:00	6	Velocidad del viento	6.4
39782	7	Sololá	701	Sololá	3	Barraneche	7	Julio	2023-07-27T00:00:00	2024-11-06T04:00:00	7	Dirección del viento	6.44
39783	7	Sololá	701	Sololá	3	Barraneche	7	Julio	2023-07-27T00:00:00	2024-11-06T04:00:00	1	Precipitación	0
39784	7	Sololá	701	Sololá	3	Barraneche	7	Julio	2023-07-27T00:00:00	2024-11-06T04:00:00	8	Radiación solar	0
39785	7	Sololá	701	Sololá	3	Barraneche	7	Julio	2023-07-27T00:00:00	2024-11-06T05:00:00	2	Temperatura media	13
39786	7	Sololá	701	Sololá	3	Barraneche	7	Julio	2023-07-27T00:00:00	2024-11-06T05:00:00	4	Temperatura máxima	13.1
39787	7	Sololá	701	Sololá	3	Barraneche	7	Julio	2023-07-27T00:00:00	2024-11-06T05:00:00	3	Temperatura mínima	12.4
39788	7	Sololá	701	Sololá	3	Barraneche	7	Julio	2023-07-27T00:00:00	2024-11-06T05:00:00	5	Humedad	59
39789	7	Sololá	701	Sololá	3	Barraneche	7	Julio	2023-07-27T00:00:00	2024-11-06T05:00:00	6	Velocidad del viento	9.7
39790	7	Sololá	701	Sololá	3	Barraneche	7	Julio	2023-07-27T00:00:00	2024-11-06T05:00:00	7	Dirección del viento	9.66
39791	7	Sololá	701	Sololá	3	Barraneche	7	Julio	2023-07-27T00:00:00	2024-11-06T05:00:00	1	Precipitación	0
39792	7	Sololá	701	Sololá	3	Barraneche	7	Julio	2023-07-27T00:00:00	2024-11-06T05:00:00	8	Radiación solar	0
39793	7	Sololá	701	Sololá	3	Barraneche	7	Julio	2023-07-27T00:00:00	2024-11-06T06:00:00	2	Temperatura media	13.1
39794	7	Sololá	701	Sololá	3	Barraneche	7	Julio	2023-07-27T00:00:00	2024-11-06T06:00:00	4	Temperatura máxima	13.1
39795	7	Sololá	701	Sololá	3	Barraneche	7	Julio	2023-07-27T00:00:00	2024-11-06T06:00:00	3	Temperatura mínima	12.7
39796	7	Sololá	701	Sololá	3	Barraneche	7	Julio	2023-07-27T00:00:00	2024-11-06T06:00:00	5	Humedad	62
39797	7	Sololá	701	Sololá	3	Barraneche	7	Julio	2023-07-27T00:00:00	2024-11-06T06:00:00	6	Velocidad del viento	9.7
39798	7	Sololá	701	Sololá	3	Barraneche	7	Julio	2023-07-27T00:00:00	2024-11-06T06:00:00	7	Dirección del viento	9.66
39799	7	Sololá	701	Sololá	3	Barraneche	7	Julio	2023-07-27T00:00:00	2024-11-06T06:00:00	1	Precipitación	0
39800	7	Sololá	701	Sololá	3	Barraneche	7	Julio	2023-07-27T00:00:00	2024-11-06T06:00:00	8	Radiación solar	2
39801	7	Sololá	701	Sololá	3	Barraneche	7	Julio	2023-07-27T00:00:00	2024-11-06T07:00:00	2	Temperatura media	14.7
39802	7	Sololá	701	Sololá	3	Barraneche	7	Julio	2023-07-27T00:00:00	2024-11-06T07:00:00	4	Temperatura máxima	14.7
39803	7	Sololá	701	Sololá	3	Barraneche	7	Julio	2023-07-27T00:00:00	2024-11-06T07:00:00	3	Temperatura mínima	12.8
39804	7	Sololá	701	Sololá	3	Barraneche	7	Julio	2023-07-27T00:00:00	2024-11-06T07:00:00	5	Humedad	59
39805	7	Sololá	701	Sololá	3	Barraneche	7	Julio	2023-07-27T00:00:00	2024-11-06T07:00:00	6	Velocidad del viento	4.8
39806	7	Sololá	701	Sololá	3	Barraneche	7	Julio	2023-07-27T00:00:00	2024-11-06T07:00:00	7	Dirección del viento	4.83
39807	7	Sololá	701	Sololá	3	Barraneche	7	Julio	2023-07-27T00:00:00	2024-11-06T07:00:00	1	Precipitación	0
39808	7	Sololá	701	Sololá	3	Barraneche	7	Julio	2023-07-27T00:00:00	2024-11-06T07:00:00	8	Radiación solar	71
39809	7	Sololá	701	Sololá	3	Barraneche	7	Julio	2023-07-27T00:00:00	2024-11-06T08:00:00	2	Temperatura media	16.8
39810	7	Sololá	701	Sololá	3	Barraneche	7	Julio	2023-07-27T00:00:00	2024-11-06T08:00:00	4	Temperatura máxima	16.9
39811	7	Sololá	701	Sololá	3	Barraneche	7	Julio	2023-07-27T00:00:00	2024-11-06T08:00:00	3	Temperatura mínima	14.7
39812	7	Sololá	701	Sololá	3	Barraneche	7	Julio	2023-07-27T00:00:00	2024-11-06T08:00:00	5	Humedad	53
39813	7	Sololá	701	Sololá	3	Barraneche	7	Julio	2023-07-27T00:00:00	2024-11-06T08:00:00	6	Velocidad del viento	6.4
39814	7	Sololá	701	Sololá	3	Barraneche	7	Julio	2023-07-27T00:00:00	2024-11-06T08:00:00	7	Dirección del viento	6.44
39815	7	Sololá	701	Sololá	3	Barraneche	7	Julio	2023-07-27T00:00:00	2024-11-06T08:00:00	1	Precipitación	0
39816	7	Sololá	701	Sololá	3	Barraneche	7	Julio	2023-07-27T00:00:00	2024-11-06T08:00:00	8	Radiación solar	345
39817	7	Sololá	701	Sololá	3	Barraneche	7	Julio	2023-07-27T00:00:00	2024-11-06T09:00:00	2	Temperatura media	17.2
39818	7	Sololá	701	Sololá	3	Barraneche	7	Julio	2023-07-27T00:00:00	2024-11-06T09:00:00	4	Temperatura máxima	17.2
39819	7	Sololá	701	Sololá	3	Barraneche	7	Julio	2023-07-27T00:00:00	2024-11-06T09:00:00	3	Temperatura mínima	16.8
39820	7	Sololá	701	Sololá	3	Barraneche	7	Julio	2023-07-27T00:00:00	2024-11-06T09:00:00	5	Humedad	55
39821	7	Sololá	701	Sololá	3	Barraneche	7	Julio	2023-07-27T00:00:00	2024-11-06T09:00:00	6	Velocidad del viento	11.3
39822	7	Sololá	701	Sololá	3	Barraneche	7	Julio	2023-07-27T00:00:00	2024-11-06T09:00:00	7	Dirección del viento	11.27
39823	7	Sololá	701	Sololá	3	Barraneche	7	Julio	2023-07-27T00:00:00	2024-11-06T09:00:00	1	Precipitación	0
39824	7	Sololá	701	Sololá	3	Barraneche	7	Julio	2023-07-27T00:00:00	2024-11-06T09:00:00	8	Radiación solar	579
39825	7	Sololá	701	Sololá	3	Barraneche	7	Julio	2023-07-27T00:00:00	2024-11-06T10:00:00	2	Temperatura media	17.8
39826	7	Sololá	701	Sololá	3	Barraneche	7	Julio	2023-07-27T00:00:00	2024-11-06T10:00:00	4	Temperatura máxima	18
39827	7	Sololá	701	Sololá	3	Barraneche	7	Julio	2023-07-27T00:00:00	2024-11-06T10:00:00	3	Temperatura mínima	16.9
39828	7	Sololá	701	Sololá	3	Barraneche	7	Julio	2023-07-27T00:00:00	2024-11-06T10:00:00	5	Humedad	53
39829	7	Sololá	701	Sololá	3	Barraneche	7	Julio	2023-07-27T00:00:00	2024-11-06T10:00:00	6	Velocidad del viento	14.5
39830	7	Sololá	701	Sololá	3	Barraneche	7	Julio	2023-07-27T00:00:00	2024-11-06T10:00:00	7	Dirección del viento	14.48
39831	7	Sololá	701	Sololá	3	Barraneche	7	Julio	2023-07-27T00:00:00	2024-11-06T10:00:00	1	Precipitación	0
39832	7	Sololá	701	Sololá	3	Barraneche	7	Julio	2023-07-27T00:00:00	2024-11-06T10:00:00	8	Radiación solar	785
39833	7	Sololá	701	Sololá	3	Barraneche	7	Julio	2023-07-27T00:00:00	2024-11-06T11:00:00	2	Temperatura media	18.3
39834	7	Sololá	701	Sololá	3	Barraneche	7	Julio	2023-07-27T00:00:00	2024-11-06T11:00:00	4	Temperatura máxima	18.3
39835	7	Sololá	701	Sololá	3	Barraneche	7	Julio	2023-07-27T00:00:00	2024-11-06T11:00:00	3	Temperatura mínima	17.6
39836	7	Sololá	701	Sololá	3	Barraneche	7	Julio	2023-07-27T00:00:00	2024-11-06T11:00:00	5	Humedad	52
39837	7	Sololá	701	Sololá	3	Barraneche	7	Julio	2023-07-27T00:00:00	2024-11-06T11:00:00	6	Velocidad del viento	16.1
39838	7	Sololá	701	Sololá	3	Barraneche	7	Julio	2023-07-27T00:00:00	2024-11-06T11:00:00	7	Dirección del viento	16.09
39839	7	Sololá	701	Sololá	3	Barraneche	7	Julio	2023-07-27T00:00:00	2024-11-06T11:00:00	1	Precipitación	0
39840	7	Sololá	701	Sololá	3	Barraneche	7	Julio	2023-07-27T00:00:00	2024-11-06T11:00:00	8	Radiación solar	935
39841	7	Sololá	701	Sololá	3	Barraneche	7	Julio	2023-07-27T00:00:00	2024-11-06T12:00:00	2	Temperatura media	19
39842	7	Sololá	701	Sololá	3	Barraneche	7	Julio	2023-07-27T00:00:00	2024-11-06T12:00:00	4	Temperatura máxima	19.1
39843	7	Sololá	701	Sololá	3	Barraneche	7	Julio	2023-07-27T00:00:00	2024-11-06T12:00:00	3	Temperatura mínima	18.2
39844	7	Sololá	701	Sololá	3	Barraneche	7	Julio	2023-07-27T00:00:00	2024-11-06T12:00:00	5	Humedad	50
39845	7	Sololá	701	Sololá	3	Barraneche	7	Julio	2023-07-27T00:00:00	2024-11-06T12:00:00	6	Velocidad del viento	17.7
39846	7	Sololá	701	Sololá	3	Barraneche	7	Julio	2023-07-27T00:00:00	2024-11-06T12:00:00	7	Dirección del viento	17.7
39847	7	Sololá	701	Sololá	3	Barraneche	7	Julio	2023-07-27T00:00:00	2024-11-06T12:00:00	1	Precipitación	0
39848	7	Sololá	701	Sololá	3	Barraneche	7	Julio	2023-07-27T00:00:00	2024-11-06T12:00:00	8	Radiación solar	1033
39849	7	Sololá	701	Sololá	3	Barraneche	7	Julio	2023-07-27T00:00:00	2024-11-06T13:00:00	2	Temperatura media	19.2
39850	7	Sololá	701	Sololá	3	Barraneche	7	Julio	2023-07-27T00:00:00	2024-11-06T13:00:00	4	Temperatura máxima	19.4
39851	7	Sololá	701	Sololá	3	Barraneche	7	Julio	2023-07-27T00:00:00	2024-11-06T13:00:00	3	Temperatura mínima	18.8
39852	7	Sololá	701	Sololá	3	Barraneche	7	Julio	2023-07-27T00:00:00	2024-11-06T13:00:00	5	Humedad	52
39853	7	Sololá	701	Sololá	3	Barraneche	7	Julio	2023-07-27T00:00:00	2024-11-06T13:00:00	6	Velocidad del viento	14.5
39854	7	Sololá	701	Sololá	3	Barraneche	7	Julio	2023-07-27T00:00:00	2024-11-06T13:00:00	7	Dirección del viento	14.48
39855	7	Sololá	701	Sololá	3	Barraneche	7	Julio	2023-07-27T00:00:00	2024-11-06T13:00:00	1	Precipitación	0
39856	7	Sololá	701	Sololá	3	Barraneche	7	Julio	2023-07-27T00:00:00	2024-11-06T13:00:00	8	Radiación solar	1089
39857	7	Sololá	701	Sololá	3	Barraneche	7	Julio	2023-07-27T00:00:00	2024-11-06T14:00:00	2	Temperatura media	20
39858	7	Sololá	701	Sololá	3	Barraneche	7	Julio	2023-07-27T00:00:00	2024-11-06T14:00:00	4	Temperatura máxima	20.1
39859	7	Sololá	701	Sololá	3	Barraneche	7	Julio	2023-07-27T00:00:00	2024-11-06T14:00:00	3	Temperatura mínima	18.9
39860	7	Sololá	701	Sololá	3	Barraneche	7	Julio	2023-07-27T00:00:00	2024-11-06T14:00:00	5	Humedad	50
39861	7	Sololá	701	Sololá	3	Barraneche	7	Julio	2023-07-27T00:00:00	2024-11-06T14:00:00	6	Velocidad del viento	12.9
39862	7	Sololá	701	Sololá	3	Barraneche	7	Julio	2023-07-27T00:00:00	2024-11-06T14:00:00	7	Dirección del viento	12.87
39863	7	Sololá	701	Sololá	3	Barraneche	7	Julio	2023-07-27T00:00:00	2024-11-06T14:00:00	1	Precipitación	0
39864	7	Sololá	701	Sololá	3	Barraneche	7	Julio	2023-07-27T00:00:00	2024-11-06T14:00:00	8	Radiación solar	1006
39865	7	Sololá	701	Sololá	3	Barraneche	7	Julio	2023-07-27T00:00:00	2024-11-06T15:00:00	2	Temperatura media	19.9
39866	7	Sololá	701	Sololá	3	Barraneche	7	Julio	2023-07-27T00:00:00	2024-11-06T15:00:00	4	Temperatura máxima	20.1
39867	7	Sololá	701	Sololá	3	Barraneche	7	Julio	2023-07-27T00:00:00	2024-11-06T15:00:00	3	Temperatura mínima	19.1
39868	7	Sololá	701	Sololá	3	Barraneche	7	Julio	2023-07-27T00:00:00	2024-11-06T15:00:00	5	Humedad	46
39869	7	Sololá	701	Sololá	3	Barraneche	7	Julio	2023-07-27T00:00:00	2024-11-06T15:00:00	6	Velocidad del viento	12.9
39870	7	Sololá	701	Sololá	3	Barraneche	7	Julio	2023-07-27T00:00:00	2024-11-06T15:00:00	7	Dirección del viento	12.87
39871	7	Sololá	701	Sololá	3	Barraneche	7	Julio	2023-07-27T00:00:00	2024-11-06T15:00:00	1	Precipitación	0
39872	7	Sololá	701	Sololá	3	Barraneche	7	Julio	2023-07-27T00:00:00	2024-11-06T15:00:00	8	Radiación solar	846
39873	7	Sololá	701	Sololá	3	Barraneche	7	Julio	2023-07-27T00:00:00	2024-11-06T16:00:00	2	Temperatura media	19.4
39874	7	Sololá	701	Sololá	3	Barraneche	7	Julio	2023-07-27T00:00:00	2024-11-06T16:00:00	4	Temperatura máxima	20.2
39875	7	Sololá	701	Sololá	3	Barraneche	7	Julio	2023-07-27T00:00:00	2024-11-06T16:00:00	3	Temperatura mínima	19.4
39876	7	Sololá	701	Sololá	3	Barraneche	7	Julio	2023-07-27T00:00:00	2024-11-06T16:00:00	5	Humedad	48
39877	7	Sololá	701	Sololá	3	Barraneche	7	Julio	2023-07-27T00:00:00	2024-11-06T16:00:00	6	Velocidad del viento	11.3
39878	7	Sololá	701	Sololá	3	Barraneche	7	Julio	2023-07-27T00:00:00	2024-11-06T16:00:00	7	Dirección del viento	11.27
39879	7	Sololá	701	Sololá	3	Barraneche	7	Julio	2023-07-27T00:00:00	2024-11-06T16:00:00	1	Precipitación	0
39880	7	Sololá	701	Sololá	3	Barraneche	7	Julio	2023-07-27T00:00:00	2024-11-06T16:00:00	8	Radiación solar	629
39881	7	Sololá	701	Sololá	3	Barraneche	7	Julio	2023-07-27T00:00:00	2024-11-06T17:00:00	2	Temperatura media	19.2
39882	7	Sololá	701	Sololá	3	Barraneche	7	Julio	2023-07-27T00:00:00	2024-11-06T17:00:00	4	Temperatura máxima	19.7
39883	7	Sololá	701	Sololá	3	Barraneche	7	Julio	2023-07-27T00:00:00	2024-11-06T17:00:00	3	Temperatura mínima	19.2
39884	7	Sololá	701	Sololá	3	Barraneche	7	Julio	2023-07-27T00:00:00	2024-11-06T17:00:00	5	Humedad	50
39885	7	Sololá	701	Sololá	3	Barraneche	7	Julio	2023-07-27T00:00:00	2024-11-06T17:00:00	6	Velocidad del viento	9.7
39886	7	Sololá	701	Sololá	3	Barraneche	7	Julio	2023-07-27T00:00:00	2024-11-06T17:00:00	7	Dirección del viento	9.66
39887	7	Sololá	701	Sololá	3	Barraneche	7	Julio	2023-07-27T00:00:00	2024-11-06T17:00:00	1	Precipitación	0
39888	7	Sololá	701	Sololá	3	Barraneche	7	Julio	2023-07-27T00:00:00	2024-11-06T17:00:00	8	Radiación solar	453
39889	7	Sololá	701	Sololá	3	Barraneche	7	Julio	2023-07-27T00:00:00	2024-11-06T18:00:00	2	Temperatura media	17.5
39890	7	Sololá	701	Sololá	3	Barraneche	7	Julio	2023-07-27T00:00:00	2024-11-06T18:00:00	4	Temperatura máxima	19.4
39891	7	Sololá	701	Sololá	3	Barraneche	7	Julio	2023-07-27T00:00:00	2024-11-06T18:00:00	3	Temperatura mínima	17.4
39892	7	Sololá	701	Sololá	3	Barraneche	7	Julio	2023-07-27T00:00:00	2024-11-06T18:00:00	5	Humedad	59
39893	7	Sololá	701	Sololá	3	Barraneche	7	Julio	2023-07-27T00:00:00	2024-11-06T18:00:00	6	Velocidad del viento	9.7
39894	7	Sololá	701	Sololá	3	Barraneche	7	Julio	2023-07-27T00:00:00	2024-11-06T18:00:00	7	Dirección del viento	9.66
39895	7	Sololá	701	Sololá	3	Barraneche	7	Julio	2023-07-27T00:00:00	2024-11-06T18:00:00	1	Precipitación	0
39896	7	Sololá	701	Sololá	3	Barraneche	7	Julio	2023-07-27T00:00:00	2024-11-06T18:00:00	8	Radiación solar	194
39897	7	Sololá	701	Sololá	3	Barraneche	7	Julio	2023-07-27T00:00:00	2024-11-06T19:00:00	2	Temperatura media	16.5
39898	7	Sololá	701	Sololá	3	Barraneche	7	Julio	2023-07-27T00:00:00	2024-11-06T19:00:00	4	Temperatura máxima	17.4
39899	7	Sololá	701	Sololá	3	Barraneche	7	Julio	2023-07-27T00:00:00	2024-11-06T19:00:00	3	Temperatura mínima	16.5
39900	7	Sololá	701	Sololá	3	Barraneche	7	Julio	2023-07-27T00:00:00	2024-11-06T19:00:00	5	Humedad	61
39901	7	Sololá	701	Sololá	3	Barraneche	7	Julio	2023-07-27T00:00:00	2024-11-06T19:00:00	6	Velocidad del viento	9.7
39902	7	Sololá	701	Sololá	3	Barraneche	7	Julio	2023-07-27T00:00:00	2024-11-06T19:00:00	7	Dirección del viento	9.66
39903	7	Sololá	701	Sololá	3	Barraneche	7	Julio	2023-07-27T00:00:00	2024-11-06T19:00:00	1	Precipitación	0
39904	7	Sololá	701	Sololá	3	Barraneche	7	Julio	2023-07-27T00:00:00	2024-11-06T19:00:00	8	Radiación solar	0
39905	7	Sololá	701	Sololá	3	Barraneche	7	Julio	2023-07-27T00:00:00	2024-11-06T20:00:00	2	Temperatura media	16
39906	7	Sololá	701	Sololá	3	Barraneche	7	Julio	2023-07-27T00:00:00	2024-11-06T20:00:00	4	Temperatura máxima	16.5
39907	7	Sololá	701	Sololá	3	Barraneche	7	Julio	2023-07-27T00:00:00	2024-11-06T20:00:00	3	Temperatura mínima	16
39908	7	Sololá	701	Sololá	3	Barraneche	7	Julio	2023-07-27T00:00:00	2024-11-06T20:00:00	5	Humedad	62
39909	7	Sololá	701	Sololá	3	Barraneche	7	Julio	2023-07-27T00:00:00	2024-11-06T20:00:00	6	Velocidad del viento	11.3
39910	7	Sololá	701	Sololá	3	Barraneche	7	Julio	2023-07-27T00:00:00	2024-11-06T20:00:00	7	Dirección del viento	11.27
39911	7	Sololá	701	Sololá	3	Barraneche	7	Julio	2023-07-27T00:00:00	2024-11-06T20:00:00	1	Precipitación	0
39912	7	Sololá	701	Sololá	3	Barraneche	7	Julio	2023-07-27T00:00:00	2024-11-06T20:00:00	8	Radiación solar	0
39913	7	Sololá	701	Sololá	3	Barraneche	7	Julio	2023-07-27T00:00:00	2024-11-06T21:00:00	2	Temperatura media	15.4
39914	7	Sololá	701	Sololá	3	Barraneche	7	Julio	2023-07-27T00:00:00	2024-11-06T21:00:00	4	Temperatura máxima	15.9
39915	7	Sololá	701	Sololá	3	Barraneche	7	Julio	2023-07-27T00:00:00	2024-11-06T21:00:00	3	Temperatura mínima	15.4
39916	7	Sololá	701	Sololá	3	Barraneche	7	Julio	2023-07-27T00:00:00	2024-11-06T21:00:00	5	Humedad	62
39917	7	Sololá	701	Sololá	3	Barraneche	7	Julio	2023-07-27T00:00:00	2024-11-06T21:00:00	6	Velocidad del viento	14.5
39918	7	Sololá	701	Sololá	3	Barraneche	7	Julio	2023-07-27T00:00:00	2024-11-06T21:00:00	7	Dirección del viento	14.48
39919	7	Sololá	701	Sololá	3	Barraneche	7	Julio	2023-07-27T00:00:00	2024-11-06T21:00:00	1	Precipitación	0
39920	7	Sololá	701	Sololá	3	Barraneche	7	Julio	2023-07-27T00:00:00	2024-11-06T21:00:00	8	Radiación solar	0
39921	7	Sololá	701	Sololá	3	Barraneche	7	Julio	2023-07-27T00:00:00	2024-11-06T22:00:00	2	Temperatura media	15
39922	7	Sololá	701	Sololá	3	Barraneche	7	Julio	2023-07-27T00:00:00	2024-11-06T22:00:00	4	Temperatura máxima	15.5
39923	7	Sololá	701	Sololá	3	Barraneche	7	Julio	2023-07-27T00:00:00	2024-11-06T22:00:00	3	Temperatura mínima	15
39924	7	Sololá	701	Sololá	3	Barraneche	7	Julio	2023-07-27T00:00:00	2024-11-06T22:00:00	5	Humedad	62
39925	7	Sololá	701	Sololá	3	Barraneche	7	Julio	2023-07-27T00:00:00	2024-11-06T22:00:00	6	Velocidad del viento	19.3
39926	7	Sololá	701	Sololá	3	Barraneche	7	Julio	2023-07-27T00:00:00	2024-11-06T22:00:00	7	Dirección del viento	19.31
39927	7	Sololá	701	Sololá	3	Barraneche	7	Julio	2023-07-27T00:00:00	2024-11-06T22:00:00	1	Precipitación	0
39928	7	Sololá	701	Sololá	3	Barraneche	7	Julio	2023-07-27T00:00:00	2024-11-06T22:00:00	8	Radiación solar	0
39929	7	Sololá	701	Sololá	3	Barraneche	7	Julio	2023-07-27T00:00:00	2024-11-06T23:00:00	2	Temperatura media	14.8
39930	7	Sololá	701	Sololá	3	Barraneche	7	Julio	2023-07-27T00:00:00	2024-11-06T23:00:00	4	Temperatura máxima	15.1
39931	7	Sololá	701	Sololá	3	Barraneche	7	Julio	2023-07-27T00:00:00	2024-11-06T23:00:00	3	Temperatura mínima	14.7
39932	7	Sololá	701	Sololá	3	Barraneche	7	Julio	2023-07-27T00:00:00	2024-11-06T23:00:00	5	Humedad	60
39933	7	Sololá	701	Sololá	3	Barraneche	7	Julio	2023-07-27T00:00:00	2024-11-06T23:00:00	6	Velocidad del viento	19.3
39934	7	Sololá	701	Sololá	3	Barraneche	7	Julio	2023-07-27T00:00:00	2024-11-06T23:00:00	7	Dirección del viento	19.31
39935	7	Sololá	701	Sololá	3	Barraneche	7	Julio	2023-07-27T00:00:00	2024-11-06T23:00:00	1	Precipitación	0
39936	7	Sololá	701	Sololá	3	Barraneche	7	Julio	2023-07-27T00:00:00	2024-11-06T23:00:00	8	Radiación solar	0
39937	7	Sololá	701	Sololá	3	Barraneche	7	Julio	2023-07-28T00:00:00	2024-11-06T00:00:00	2	Temperatura media	14.7
39938	7	Sololá	701	Sololá	3	Barraneche	7	Julio	2023-07-28T00:00:00	2024-11-06T00:00:00	4	Temperatura máxima	14.8
39939	7	Sololá	701	Sololá	3	Barraneche	7	Julio	2023-07-28T00:00:00	2024-11-06T00:00:00	3	Temperatura mínima	14.4
39940	7	Sololá	701	Sololá	3	Barraneche	7	Julio	2023-07-28T00:00:00	2024-11-06T00:00:00	5	Humedad	61
39941	7	Sololá	701	Sololá	3	Barraneche	7	Julio	2023-07-28T00:00:00	2024-11-06T00:00:00	6	Velocidad del viento	17.7
39942	7	Sololá	701	Sololá	3	Barraneche	7	Julio	2023-07-28T00:00:00	2024-11-06T00:00:00	7	Dirección del viento	17.7
39943	7	Sololá	701	Sololá	3	Barraneche	7	Julio	2023-07-28T00:00:00	2024-11-06T00:00:00	1	Precipitación	0
39944	7	Sololá	701	Sololá	3	Barraneche	7	Julio	2023-07-28T00:00:00	2024-11-06T00:00:00	8	Radiación solar	0
39945	7	Sololá	701	Sololá	3	Barraneche	7	Julio	2023-07-28T00:00:00	2024-11-06T01:00:00	2	Temperatura media	14.4
39946	7	Sololá	701	Sololá	3	Barraneche	7	Julio	2023-07-28T00:00:00	2024-11-06T01:00:00	4	Temperatura máxima	14.7
39947	7	Sololá	701	Sololá	3	Barraneche	7	Julio	2023-07-28T00:00:00	2024-11-06T01:00:00	3	Temperatura mínima	14.4
39948	7	Sololá	701	Sololá	3	Barraneche	7	Julio	2023-07-28T00:00:00	2024-11-06T01:00:00	5	Humedad	62
39949	7	Sololá	701	Sololá	3	Barraneche	7	Julio	2023-07-28T00:00:00	2024-11-06T01:00:00	6	Velocidad del viento	20.9
39950	7	Sololá	701	Sololá	3	Barraneche	7	Julio	2023-07-28T00:00:00	2024-11-06T01:00:00	7	Dirección del viento	20.92
39951	7	Sololá	701	Sololá	3	Barraneche	7	Julio	2023-07-28T00:00:00	2024-11-06T01:00:00	1	Precipitación	0
39952	7	Sololá	701	Sololá	3	Barraneche	7	Julio	2023-07-28T00:00:00	2024-11-06T01:00:00	8	Radiación solar	0
39953	7	Sololá	701	Sololá	3	Barraneche	7	Julio	2023-07-28T00:00:00	2024-11-06T02:00:00	2	Temperatura media	14.6
39954	7	Sololá	701	Sololá	3	Barraneche	7	Julio	2023-07-28T00:00:00	2024-11-06T02:00:00	4	Temperatura máxima	14.8
39955	7	Sololá	701	Sololá	3	Barraneche	7	Julio	2023-07-28T00:00:00	2024-11-06T02:00:00	3	Temperatura mínima	14.3
39956	7	Sololá	701	Sololá	3	Barraneche	7	Julio	2023-07-28T00:00:00	2024-11-06T02:00:00	5	Humedad	61
39957	7	Sololá	701	Sololá	3	Barraneche	7	Julio	2023-07-28T00:00:00	2024-11-06T02:00:00	6	Velocidad del viento	24.1
39958	7	Sololá	701	Sololá	3	Barraneche	7	Julio	2023-07-28T00:00:00	2024-11-06T02:00:00	7	Dirección del viento	24.14
39959	7	Sololá	701	Sololá	3	Barraneche	7	Julio	2023-07-28T00:00:00	2024-11-06T02:00:00	1	Precipitación	0
39960	7	Sololá	701	Sololá	3	Barraneche	7	Julio	2023-07-28T00:00:00	2024-11-06T02:00:00	8	Radiación solar	0
39961	7	Sololá	701	Sololá	3	Barraneche	7	Julio	2023-07-28T00:00:00	2024-11-06T03:00:00	2	Temperatura media	14.4
39962	7	Sololá	701	Sololá	3	Barraneche	7	Julio	2023-07-28T00:00:00	2024-11-06T03:00:00	4	Temperatura máxima	14.7
39963	7	Sololá	701	Sololá	3	Barraneche	7	Julio	2023-07-28T00:00:00	2024-11-06T03:00:00	3	Temperatura mínima	14.4
39964	7	Sololá	701	Sololá	3	Barraneche	7	Julio	2023-07-28T00:00:00	2024-11-06T03:00:00	5	Humedad	62
39965	7	Sololá	701	Sololá	3	Barraneche	7	Julio	2023-07-28T00:00:00	2024-11-06T03:00:00	6	Velocidad del viento	25.7
39966	7	Sololá	701	Sololá	3	Barraneche	7	Julio	2023-07-28T00:00:00	2024-11-06T03:00:00	7	Dirección del viento	25.75
39967	7	Sololá	701	Sololá	3	Barraneche	7	Julio	2023-07-28T00:00:00	2024-11-06T03:00:00	1	Precipitación	0
39968	7	Sololá	701	Sololá	3	Barraneche	7	Julio	2023-07-28T00:00:00	2024-11-06T03:00:00	8	Radiación solar	0
39969	7	Sololá	701	Sololá	3	Barraneche	7	Julio	2023-07-28T00:00:00	2024-11-06T04:00:00	2	Temperatura media	14.1
39970	7	Sololá	701	Sololá	3	Barraneche	7	Julio	2023-07-28T00:00:00	2024-11-06T04:00:00	4	Temperatura máxima	14.7
39971	7	Sololá	701	Sololá	3	Barraneche	7	Julio	2023-07-28T00:00:00	2024-11-06T04:00:00	3	Temperatura mínima	14.1
39972	7	Sololá	701	Sololá	3	Barraneche	7	Julio	2023-07-28T00:00:00	2024-11-06T04:00:00	5	Humedad	64
39973	7	Sololá	701	Sololá	3	Barraneche	7	Julio	2023-07-28T00:00:00	2024-11-06T04:00:00	6	Velocidad del viento	19.3
39974	7	Sololá	701	Sololá	3	Barraneche	7	Julio	2023-07-28T00:00:00	2024-11-06T04:00:00	7	Dirección del viento	19.31
39975	7	Sololá	701	Sololá	3	Barraneche	7	Julio	2023-07-28T00:00:00	2024-11-06T04:00:00	1	Precipitación	0
39976	7	Sololá	701	Sololá	3	Barraneche	7	Julio	2023-07-28T00:00:00	2024-11-06T04:00:00	8	Radiación solar	0
39977	7	Sololá	701	Sololá	3	Barraneche	7	Julio	2023-07-28T00:00:00	2024-11-06T05:00:00	2	Temperatura media	14.3
39978	7	Sololá	701	Sololá	3	Barraneche	7	Julio	2023-07-28T00:00:00	2024-11-06T05:00:00	4	Temperatura máxima	14.3
39979	7	Sololá	701	Sololá	3	Barraneche	7	Julio	2023-07-28T00:00:00	2024-11-06T05:00:00	3	Temperatura mínima	14
39980	7	Sololá	701	Sololá	3	Barraneche	7	Julio	2023-07-28T00:00:00	2024-11-06T05:00:00	5	Humedad	64
39981	7	Sololá	701	Sololá	3	Barraneche	7	Julio	2023-07-28T00:00:00	2024-11-06T05:00:00	6	Velocidad del viento	17.7
39982	7	Sololá	701	Sololá	3	Barraneche	7	Julio	2023-07-28T00:00:00	2024-11-06T05:00:00	7	Dirección del viento	17.7
39983	7	Sololá	701	Sololá	3	Barraneche	7	Julio	2023-07-28T00:00:00	2024-11-06T05:00:00	1	Precipitación	0
39984	7	Sololá	701	Sololá	3	Barraneche	7	Julio	2023-07-28T00:00:00	2024-11-06T05:00:00	8	Radiación solar	0
39985	7	Sololá	701	Sololá	3	Barraneche	7	Julio	2023-07-28T00:00:00	2024-11-06T06:00:00	2	Temperatura media	14.3
39986	7	Sololá	701	Sololá	3	Barraneche	7	Julio	2023-07-28T00:00:00	2024-11-06T06:00:00	4	Temperatura máxima	14.5
39987	7	Sololá	701	Sololá	3	Barraneche	7	Julio	2023-07-28T00:00:00	2024-11-06T06:00:00	3	Temperatura mínima	14.2
39988	7	Sololá	701	Sololá	3	Barraneche	7	Julio	2023-07-28T00:00:00	2024-11-06T06:00:00	5	Humedad	64
39989	7	Sololá	701	Sololá	3	Barraneche	7	Julio	2023-07-28T00:00:00	2024-11-06T06:00:00	6	Velocidad del viento	12.9
39990	7	Sololá	701	Sololá	3	Barraneche	7	Julio	2023-07-28T00:00:00	2024-11-06T06:00:00	7	Dirección del viento	12.87
39991	7	Sololá	701	Sololá	3	Barraneche	7	Julio	2023-07-28T00:00:00	2024-11-06T06:00:00	1	Precipitación	0
39992	7	Sololá	701	Sololá	3	Barraneche	7	Julio	2023-07-28T00:00:00	2024-11-06T06:00:00	8	Radiación solar	1
39993	7	Sololá	701	Sololá	3	Barraneche	7	Julio	2023-07-28T00:00:00	2024-11-06T07:00:00	2	Temperatura media	15.1
39994	7	Sololá	701	Sololá	3	Barraneche	7	Julio	2023-07-28T00:00:00	2024-11-06T07:00:00	4	Temperatura máxima	15.2
39995	7	Sololá	701	Sololá	3	Barraneche	7	Julio	2023-07-28T00:00:00	2024-11-06T07:00:00	3	Temperatura mínima	14.3
39996	7	Sololá	701	Sololá	3	Barraneche	7	Julio	2023-07-28T00:00:00	2024-11-06T07:00:00	5	Humedad	64
39997	7	Sololá	701	Sololá	3	Barraneche	7	Julio	2023-07-28T00:00:00	2024-11-06T07:00:00	6	Velocidad del viento	14.5
39998	7	Sololá	701	Sololá	3	Barraneche	7	Julio	2023-07-28T00:00:00	2024-11-06T07:00:00	7	Dirección del viento	14.48
39999	7	Sololá	701	Sololá	3	Barraneche	7	Julio	2023-07-28T00:00:00	2024-11-06T07:00:00	1	Precipitación	0
40000	7	Sololá	701	Sololá	3	Barraneche	7	Julio	2023-07-28T00:00:00	2024-11-06T07:00:00	8	Radiación solar	65
40001	7	Sololá	701	Sololá	3	Barraneche	7	Julio	2023-07-28T00:00:00	2024-11-06T08:00:00	2	Temperatura media	15.9
40002	7	Sololá	701	Sololá	3	Barraneche	7	Julio	2023-07-28T00:00:00	2024-11-06T08:00:00	4	Temperatura máxima	16.1
40003	7	Sololá	701	Sololá	3	Barraneche	7	Julio	2023-07-28T00:00:00	2024-11-06T08:00:00	3	Temperatura mínima	14.8
40004	7	Sololá	701	Sololá	3	Barraneche	7	Julio	2023-07-28T00:00:00	2024-11-06T08:00:00	5	Humedad	56
40005	7	Sololá	701	Sololá	3	Barraneche	7	Julio	2023-07-28T00:00:00	2024-11-06T08:00:00	6	Velocidad del viento	17.7
40006	7	Sololá	701	Sololá	3	Barraneche	7	Julio	2023-07-28T00:00:00	2024-11-06T08:00:00	7	Dirección del viento	17.7
40007	7	Sololá	701	Sololá	3	Barraneche	7	Julio	2023-07-28T00:00:00	2024-11-06T08:00:00	1	Precipitación	0
40008	7	Sololá	701	Sololá	3	Barraneche	7	Julio	2023-07-28T00:00:00	2024-11-06T08:00:00	8	Radiación solar	363
40009	7	Sololá	701	Sololá	3	Barraneche	7	Julio	2023-07-28T00:00:00	2024-11-06T09:00:00	2	Temperatura media	16.7
40010	7	Sololá	701	Sololá	3	Barraneche	7	Julio	2023-07-28T00:00:00	2024-11-06T09:00:00	4	Temperatura máxima	16.7
40011	7	Sololá	701	Sololá	3	Barraneche	7	Julio	2023-07-28T00:00:00	2024-11-06T09:00:00	3	Temperatura mínima	15.7
40012	7	Sololá	701	Sololá	3	Barraneche	7	Julio	2023-07-28T00:00:00	2024-11-06T09:00:00	5	Humedad	53
40013	7	Sololá	701	Sololá	3	Barraneche	7	Julio	2023-07-28T00:00:00	2024-11-06T09:00:00	6	Velocidad del viento	22.5
40014	7	Sololá	701	Sololá	3	Barraneche	7	Julio	2023-07-28T00:00:00	2024-11-06T09:00:00	7	Dirección del viento	22.53
40015	7	Sololá	701	Sololá	3	Barraneche	7	Julio	2023-07-28T00:00:00	2024-11-06T09:00:00	1	Precipitación	0
40016	7	Sololá	701	Sololá	3	Barraneche	7	Julio	2023-07-28T00:00:00	2024-11-06T09:00:00	8	Radiación solar	601
40017	7	Sololá	701	Sololá	3	Barraneche	7	Julio	2023-07-28T00:00:00	2024-11-06T10:00:00	2	Temperatura media	17.9
40018	7	Sololá	701	Sololá	3	Barraneche	7	Julio	2023-07-28T00:00:00	2024-11-06T10:00:00	4	Temperatura máxima	17.9
40019	7	Sololá	701	Sololá	3	Barraneche	7	Julio	2023-07-28T00:00:00	2024-11-06T10:00:00	3	Temperatura mínima	16.6
40020	7	Sololá	701	Sololá	3	Barraneche	7	Julio	2023-07-28T00:00:00	2024-11-06T10:00:00	5	Humedad	50
40021	7	Sololá	701	Sololá	3	Barraneche	7	Julio	2023-07-28T00:00:00	2024-11-06T10:00:00	6	Velocidad del viento	22.5
40022	7	Sololá	701	Sololá	3	Barraneche	7	Julio	2023-07-28T00:00:00	2024-11-06T10:00:00	7	Dirección del viento	22.53
40023	7	Sololá	701	Sololá	3	Barraneche	7	Julio	2023-07-28T00:00:00	2024-11-06T10:00:00	1	Precipitación	0
40024	7	Sololá	701	Sololá	3	Barraneche	7	Julio	2023-07-28T00:00:00	2024-11-06T10:00:00	8	Radiación solar	798
40025	7	Sololá	701	Sololá	3	Barraneche	7	Julio	2023-07-28T00:00:00	2024-11-06T11:00:00	2	Temperatura media	19.4
40026	7	Sololá	701	Sololá	3	Barraneche	7	Julio	2023-07-28T00:00:00	2024-11-06T11:00:00	4	Temperatura máxima	19.4
40027	7	Sololá	701	Sololá	3	Barraneche	7	Julio	2023-07-28T00:00:00	2024-11-06T11:00:00	3	Temperatura mínima	17.8
40028	7	Sololá	701	Sololá	3	Barraneche	7	Julio	2023-07-28T00:00:00	2024-11-06T11:00:00	5	Humedad	51
40029	7	Sololá	701	Sololá	3	Barraneche	7	Julio	2023-07-28T00:00:00	2024-11-06T11:00:00	6	Velocidad del viento	17.7
40030	7	Sololá	701	Sololá	3	Barraneche	7	Julio	2023-07-28T00:00:00	2024-11-06T11:00:00	7	Dirección del viento	17.7
40031	7	Sololá	701	Sololá	3	Barraneche	7	Julio	2023-07-28T00:00:00	2024-11-06T11:00:00	1	Precipitación	0
40032	7	Sololá	701	Sololá	3	Barraneche	7	Julio	2023-07-28T00:00:00	2024-11-06T11:00:00	8	Radiación solar	932
40033	7	Sololá	701	Sololá	3	Barraneche	7	Julio	2023-07-28T00:00:00	2024-11-06T12:00:00	2	Temperatura media	19.1
40034	7	Sololá	701	Sololá	3	Barraneche	7	Julio	2023-07-28T00:00:00	2024-11-06T12:00:00	4	Temperatura máxima	19.8
40035	7	Sololá	701	Sololá	3	Barraneche	7	Julio	2023-07-28T00:00:00	2024-11-06T12:00:00	3	Temperatura mínima	18.9
40036	7	Sololá	701	Sololá	3	Barraneche	7	Julio	2023-07-28T00:00:00	2024-11-06T12:00:00	5	Humedad	52
40037	7	Sololá	701	Sololá	3	Barraneche	7	Julio	2023-07-28T00:00:00	2024-11-06T12:00:00	6	Velocidad del viento	16.1
40038	7	Sololá	701	Sololá	3	Barraneche	7	Julio	2023-07-28T00:00:00	2024-11-06T12:00:00	7	Dirección del viento	16.09
40039	7	Sololá	701	Sololá	3	Barraneche	7	Julio	2023-07-28T00:00:00	2024-11-06T12:00:00	1	Precipitación	0
40040	7	Sololá	701	Sololá	3	Barraneche	7	Julio	2023-07-28T00:00:00	2024-11-06T12:00:00	8	Radiación solar	1011
40041	7	Sololá	701	Sololá	3	Barraneche	7	Julio	2023-07-28T00:00:00	2024-11-06T13:00:00	2	Temperatura media	19.9
40042	7	Sololá	701	Sololá	3	Barraneche	7	Julio	2023-07-28T00:00:00	2024-11-06T13:00:00	4	Temperatura máxima	19.9
40043	7	Sololá	701	Sololá	3	Barraneche	7	Julio	2023-07-28T00:00:00	2024-11-06T13:00:00	3	Temperatura mínima	18.8
40044	7	Sololá	701	Sololá	3	Barraneche	7	Julio	2023-07-28T00:00:00	2024-11-06T13:00:00	5	Humedad	51
40045	7	Sololá	701	Sololá	3	Barraneche	7	Julio	2023-07-28T00:00:00	2024-11-06T13:00:00	6	Velocidad del viento	17.7
40046	7	Sololá	701	Sololá	3	Barraneche	7	Julio	2023-07-28T00:00:00	2024-11-06T13:00:00	7	Dirección del viento	17.7
40047	7	Sololá	701	Sololá	3	Barraneche	7	Julio	2023-07-28T00:00:00	2024-11-06T13:00:00	1	Precipitación	0
40048	7	Sololá	701	Sololá	3	Barraneche	7	Julio	2023-07-28T00:00:00	2024-11-06T13:00:00	8	Radiación solar	1016
40049	7	Sololá	701	Sololá	3	Barraneche	7	Julio	2023-07-28T00:00:00	2024-11-06T14:00:00	2	Temperatura media	20.1
40050	7	Sololá	701	Sololá	3	Barraneche	7	Julio	2023-07-28T00:00:00	2024-11-06T14:00:00	4	Temperatura máxima	20.2
40051	7	Sololá	701	Sololá	3	Barraneche	7	Julio	2023-07-28T00:00:00	2024-11-06T14:00:00	3	Temperatura mínima	19.4
40052	7	Sololá	701	Sololá	3	Barraneche	7	Julio	2023-07-28T00:00:00	2024-11-06T14:00:00	5	Humedad	47
40053	7	Sololá	701	Sololá	3	Barraneche	7	Julio	2023-07-28T00:00:00	2024-11-06T14:00:00	6	Velocidad del viento	19.3
40054	7	Sololá	701	Sololá	3	Barraneche	7	Julio	2023-07-28T00:00:00	2024-11-06T14:00:00	7	Dirección del viento	19.31
40055	7	Sololá	701	Sololá	3	Barraneche	7	Julio	2023-07-28T00:00:00	2024-11-06T14:00:00	1	Precipitación	0
40056	7	Sololá	701	Sololá	3	Barraneche	7	Julio	2023-07-28T00:00:00	2024-11-06T14:00:00	8	Radiación solar	960
40057	7	Sololá	701	Sololá	3	Barraneche	7	Julio	2023-07-28T00:00:00	2024-11-06T15:00:00	2	Temperatura media	20.2
40058	7	Sololá	701	Sololá	3	Barraneche	7	Julio	2023-07-28T00:00:00	2024-11-06T15:00:00	4	Temperatura máxima	20.2
40059	7	Sololá	701	Sololá	3	Barraneche	7	Julio	2023-07-28T00:00:00	2024-11-06T15:00:00	3	Temperatura mínima	19.7
40060	7	Sololá	701	Sololá	3	Barraneche	7	Julio	2023-07-28T00:00:00	2024-11-06T15:00:00	5	Humedad	47
40061	7	Sololá	701	Sololá	3	Barraneche	7	Julio	2023-07-28T00:00:00	2024-11-06T15:00:00	6	Velocidad del viento	14.5
40062	7	Sololá	701	Sololá	3	Barraneche	7	Julio	2023-07-28T00:00:00	2024-11-06T15:00:00	7	Dirección del viento	14.48
40063	7	Sololá	701	Sololá	3	Barraneche	7	Julio	2023-07-28T00:00:00	2024-11-06T15:00:00	1	Precipitación	0
40064	7	Sololá	701	Sololá	3	Barraneche	7	Julio	2023-07-28T00:00:00	2024-11-06T15:00:00	8	Radiación solar	814
40065	7	Sololá	701	Sololá	3	Barraneche	7	Julio	2023-07-28T00:00:00	2024-11-06T16:00:00	2	Temperatura media	18.5
40066	7	Sololá	701	Sololá	3	Barraneche	7	Julio	2023-07-28T00:00:00	2024-11-06T16:00:00	4	Temperatura máxima	20.3
40067	7	Sololá	701	Sololá	3	Barraneche	7	Julio	2023-07-28T00:00:00	2024-11-06T16:00:00	3	Temperatura mínima	18.5
40068	7	Sololá	701	Sololá	3	Barraneche	7	Julio	2023-07-28T00:00:00	2024-11-06T16:00:00	5	Humedad	57
40069	7	Sololá	701	Sololá	3	Barraneche	7	Julio	2023-07-28T00:00:00	2024-11-06T16:00:00	6	Velocidad del viento	12.9
40070	7	Sololá	701	Sololá	3	Barraneche	7	Julio	2023-07-28T00:00:00	2024-11-06T16:00:00	7	Dirección del viento	12.87
40071	7	Sololá	701	Sololá	3	Barraneche	7	Julio	2023-07-28T00:00:00	2024-11-06T16:00:00	1	Precipitación	0
40072	7	Sololá	701	Sololá	3	Barraneche	7	Julio	2023-07-28T00:00:00	2024-11-06T16:00:00	8	Radiación solar	415
40073	7	Sololá	701	Sololá	3	Barraneche	7	Julio	2023-07-28T00:00:00	2024-11-06T17:00:00	2	Temperatura media	18.2
40074	7	Sololá	701	Sololá	3	Barraneche	7	Julio	2023-07-28T00:00:00	2024-11-06T17:00:00	4	Temperatura máxima	19.2
40075	7	Sololá	701	Sololá	3	Barraneche	7	Julio	2023-07-28T00:00:00	2024-11-06T17:00:00	3	Temperatura mínima	18.2
40076	7	Sololá	701	Sololá	3	Barraneche	7	Julio	2023-07-28T00:00:00	2024-11-06T17:00:00	5	Humedad	56
40077	7	Sololá	701	Sololá	3	Barraneche	7	Julio	2023-07-28T00:00:00	2024-11-06T17:00:00	6	Velocidad del viento	14.5
40078	7	Sololá	701	Sololá	3	Barraneche	7	Julio	2023-07-28T00:00:00	2024-11-06T17:00:00	7	Dirección del viento	14.48
40079	7	Sololá	701	Sololá	3	Barraneche	7	Julio	2023-07-28T00:00:00	2024-11-06T17:00:00	1	Precipitación	0
40080	7	Sololá	701	Sololá	3	Barraneche	7	Julio	2023-07-28T00:00:00	2024-11-06T17:00:00	8	Radiación solar	341
40081	7	Sololá	701	Sololá	3	Barraneche	7	Julio	2023-07-28T00:00:00	2024-11-06T18:00:00	2	Temperatura media	17.7
40082	7	Sololá	701	Sololá	3	Barraneche	7	Julio	2023-07-28T00:00:00	2024-11-06T18:00:00	4	Temperatura máxima	18.2
40083	7	Sololá	701	Sololá	3	Barraneche	7	Julio	2023-07-28T00:00:00	2024-11-06T18:00:00	3	Temperatura mínima	17.7
40084	7	Sololá	701	Sololá	3	Barraneche	7	Julio	2023-07-28T00:00:00	2024-11-06T18:00:00	5	Humedad	60
40085	7	Sololá	701	Sololá	3	Barraneche	7	Julio	2023-07-28T00:00:00	2024-11-06T18:00:00	6	Velocidad del viento	8
40086	7	Sololá	701	Sololá	3	Barraneche	7	Julio	2023-07-28T00:00:00	2024-11-06T18:00:00	7	Dirección del viento	8.05
40087	7	Sololá	701	Sololá	3	Barraneche	7	Julio	2023-07-28T00:00:00	2024-11-06T18:00:00	1	Precipitación	0
40088	7	Sololá	701	Sololá	3	Barraneche	7	Julio	2023-07-28T00:00:00	2024-11-06T18:00:00	8	Radiación solar	101
40089	7	Sololá	701	Sololá	3	Barraneche	7	Julio	2023-07-28T00:00:00	2024-11-06T19:00:00	2	Temperatura media	16.8
40090	7	Sololá	701	Sololá	3	Barraneche	7	Julio	2023-07-28T00:00:00	2024-11-06T19:00:00	4	Temperatura máxima	17.7
40091	7	Sololá	701	Sololá	3	Barraneche	7	Julio	2023-07-28T00:00:00	2024-11-06T19:00:00	3	Temperatura mínima	16.8
40092	7	Sololá	701	Sololá	3	Barraneche	7	Julio	2023-07-28T00:00:00	2024-11-06T19:00:00	5	Humedad	64
40093	7	Sololá	701	Sololá	3	Barraneche	7	Julio	2023-07-28T00:00:00	2024-11-06T19:00:00	6	Velocidad del viento	6.4
40094	7	Sololá	701	Sololá	3	Barraneche	7	Julio	2023-07-28T00:00:00	2024-11-06T19:00:00	7	Dirección del viento	6.44
40095	7	Sololá	701	Sololá	3	Barraneche	7	Julio	2023-07-28T00:00:00	2024-11-06T19:00:00	1	Precipitación	0
40096	7	Sololá	701	Sololá	3	Barraneche	7	Julio	2023-07-28T00:00:00	2024-11-06T19:00:00	8	Radiación solar	0
40097	7	Sololá	701	Sololá	3	Barraneche	7	Julio	2023-07-28T00:00:00	2024-11-06T20:00:00	2	Temperatura media	16.3
40098	7	Sololá	701	Sololá	3	Barraneche	7	Julio	2023-07-28T00:00:00	2024-11-06T20:00:00	4	Temperatura máxima	16.8
40099	7	Sololá	701	Sololá	3	Barraneche	7	Julio	2023-07-28T00:00:00	2024-11-06T20:00:00	3	Temperatura mínima	16.3
40100	7	Sololá	701	Sololá	3	Barraneche	7	Julio	2023-07-28T00:00:00	2024-11-06T20:00:00	5	Humedad	64
40101	7	Sololá	701	Sololá	3	Barraneche	7	Julio	2023-07-28T00:00:00	2024-11-06T20:00:00	6	Velocidad del viento	11.3
40102	7	Sololá	701	Sololá	3	Barraneche	7	Julio	2023-07-28T00:00:00	2024-11-06T20:00:00	7	Dirección del viento	11.27
40103	7	Sololá	701	Sololá	3	Barraneche	7	Julio	2023-07-28T00:00:00	2024-11-06T20:00:00	1	Precipitación	0
40104	7	Sololá	701	Sololá	3	Barraneche	7	Julio	2023-07-28T00:00:00	2024-11-06T20:00:00	8	Radiación solar	0
40105	7	Sololá	701	Sololá	3	Barraneche	7	Julio	2023-07-28T00:00:00	2024-11-06T21:00:00	2	Temperatura media	16.1
40106	7	Sololá	701	Sololá	3	Barraneche	7	Julio	2023-07-28T00:00:00	2024-11-06T21:00:00	4	Temperatura máxima	16.4
40107	7	Sololá	701	Sololá	3	Barraneche	7	Julio	2023-07-28T00:00:00	2024-11-06T21:00:00	3	Temperatura mínima	16
40108	7	Sololá	701	Sololá	3	Barraneche	7	Julio	2023-07-28T00:00:00	2024-11-06T21:00:00	5	Humedad	65
40109	7	Sololá	701	Sololá	3	Barraneche	7	Julio	2023-07-28T00:00:00	2024-11-06T21:00:00	6	Velocidad del viento	9.7
40110	7	Sololá	701	Sololá	3	Barraneche	7	Julio	2023-07-28T00:00:00	2024-11-06T21:00:00	7	Dirección del viento	9.66
40111	7	Sololá	701	Sololá	3	Barraneche	7	Julio	2023-07-28T00:00:00	2024-11-06T21:00:00	1	Precipitación	0
40112	7	Sololá	701	Sololá	3	Barraneche	7	Julio	2023-07-28T00:00:00	2024-11-06T21:00:00	8	Radiación solar	0
40113	7	Sololá	701	Sololá	3	Barraneche	7	Julio	2023-07-28T00:00:00	2024-11-06T22:00:00	2	Temperatura media	15.5
40114	7	Sololá	701	Sololá	3	Barraneche	7	Julio	2023-07-28T00:00:00	2024-11-06T22:00:00	4	Temperatura máxima	16.3
40115	7	Sololá	701	Sololá	3	Barraneche	7	Julio	2023-07-28T00:00:00	2024-11-06T22:00:00	3	Temperatura mínima	15.5
40116	7	Sololá	701	Sololá	3	Barraneche	7	Julio	2023-07-28T00:00:00	2024-11-06T22:00:00	5	Humedad	69
40117	7	Sololá	701	Sololá	3	Barraneche	7	Julio	2023-07-28T00:00:00	2024-11-06T22:00:00	6	Velocidad del viento	8
40118	7	Sololá	701	Sololá	3	Barraneche	7	Julio	2023-07-28T00:00:00	2024-11-06T22:00:00	7	Dirección del viento	8.05
40119	7	Sololá	701	Sololá	3	Barraneche	7	Julio	2023-07-28T00:00:00	2024-11-06T22:00:00	1	Precipitación	0.4
40120	7	Sololá	701	Sololá	3	Barraneche	7	Julio	2023-07-28T00:00:00	2024-11-06T22:00:00	8	Radiación solar	0
40121	7	Sololá	701	Sololá	3	Barraneche	7	Julio	2023-07-28T00:00:00	2024-11-06T23:00:00	2	Temperatura media	15
40122	7	Sololá	701	Sololá	3	Barraneche	7	Julio	2023-07-28T00:00:00	2024-11-06T23:00:00	4	Temperatura máxima	15.6
40123	7	Sololá	701	Sololá	3	Barraneche	7	Julio	2023-07-28T00:00:00	2024-11-06T23:00:00	3	Temperatura mínima	14.9
40124	7	Sololá	701	Sololá	3	Barraneche	7	Julio	2023-07-28T00:00:00	2024-11-06T23:00:00	5	Humedad	65
40125	7	Sololá	701	Sololá	3	Barraneche	7	Julio	2023-07-28T00:00:00	2024-11-06T23:00:00	6	Velocidad del viento	12.9
40126	7	Sololá	701	Sololá	3	Barraneche	7	Julio	2023-07-28T00:00:00	2024-11-06T23:00:00	7	Dirección del viento	12.87
40127	7	Sololá	701	Sololá	3	Barraneche	7	Julio	2023-07-28T00:00:00	2024-11-06T23:00:00	1	Precipitación	1.8
40128	7	Sololá	701	Sololá	3	Barraneche	7	Julio	2023-07-28T00:00:00	2024-11-06T23:00:00	8	Radiación solar	0
40129	7	Sololá	701	Sololá	3	Barraneche	7	Julio	2023-07-29T00:00:00	2024-11-06T00:00:00	2	Temperatura media	14.8
40130	7	Sololá	701	Sololá	3	Barraneche	7	Julio	2023-07-29T00:00:00	2024-11-06T00:00:00	4	Temperatura máxima	15.1
40131	7	Sololá	701	Sololá	3	Barraneche	7	Julio	2023-07-29T00:00:00	2024-11-06T00:00:00	3	Temperatura mínima	14.7
40132	7	Sololá	701	Sololá	3	Barraneche	7	Julio	2023-07-29T00:00:00	2024-11-06T00:00:00	5	Humedad	60
40133	7	Sololá	701	Sololá	3	Barraneche	7	Julio	2023-07-29T00:00:00	2024-11-06T00:00:00	6	Velocidad del viento	17.7
40134	7	Sololá	701	Sololá	3	Barraneche	7	Julio	2023-07-29T00:00:00	2024-11-06T00:00:00	7	Dirección del viento	17.7
40135	7	Sololá	701	Sololá	3	Barraneche	7	Julio	2023-07-29T00:00:00	2024-11-06T00:00:00	1	Precipitación	0
40136	7	Sololá	701	Sololá	3	Barraneche	7	Julio	2023-07-29T00:00:00	2024-11-06T00:00:00	8	Radiación solar	0
40137	7	Sololá	701	Sololá	3	Barraneche	7	Julio	2023-07-29T00:00:00	2024-11-06T01:00:00	2	Temperatura media	14.7
40138	7	Sololá	701	Sololá	3	Barraneche	7	Julio	2023-07-29T00:00:00	2024-11-06T01:00:00	4	Temperatura máxima	15.4
40139	7	Sololá	701	Sololá	3	Barraneche	7	Julio	2023-07-29T00:00:00	2024-11-06T01:00:00	3	Temperatura mínima	14.7
40140	7	Sololá	701	Sololá	3	Barraneche	7	Julio	2023-07-29T00:00:00	2024-11-06T01:00:00	5	Humedad	66
40141	7	Sololá	701	Sololá	3	Barraneche	7	Julio	2023-07-29T00:00:00	2024-11-06T01:00:00	6	Velocidad del viento	14.5
40142	7	Sololá	701	Sololá	3	Barraneche	7	Julio	2023-07-29T00:00:00	2024-11-06T01:00:00	7	Dirección del viento	14.48
40143	7	Sololá	701	Sololá	3	Barraneche	7	Julio	2023-07-29T00:00:00	2024-11-06T01:00:00	1	Precipitación	0
40144	7	Sololá	701	Sololá	3	Barraneche	7	Julio	2023-07-29T00:00:00	2024-11-06T01:00:00	8	Radiación solar	0
40145	7	Sololá	701	Sololá	3	Barraneche	7	Julio	2023-07-29T00:00:00	2024-11-06T02:00:00	2	Temperatura media	14.7
40146	7	Sololá	701	Sololá	3	Barraneche	7	Julio	2023-07-29T00:00:00	2024-11-06T02:00:00	4	Temperatura máxima	14.8
40147	7	Sololá	701	Sololá	3	Barraneche	7	Julio	2023-07-29T00:00:00	2024-11-06T02:00:00	3	Temperatura mínima	14.3
40148	7	Sololá	701	Sololá	3	Barraneche	7	Julio	2023-07-29T00:00:00	2024-11-06T02:00:00	5	Humedad	69
40149	7	Sololá	701	Sololá	3	Barraneche	7	Julio	2023-07-29T00:00:00	2024-11-06T02:00:00	6	Velocidad del viento	9.7
40150	7	Sololá	701	Sololá	3	Barraneche	7	Julio	2023-07-29T00:00:00	2024-11-06T02:00:00	7	Dirección del viento	9.66
40151	7	Sololá	701	Sololá	3	Barraneche	7	Julio	2023-07-29T00:00:00	2024-11-06T02:00:00	1	Precipitación	0
40152	7	Sololá	701	Sololá	3	Barraneche	7	Julio	2023-07-29T00:00:00	2024-11-06T02:00:00	8	Radiación solar	0
40153	7	Sololá	701	Sololá	3	Barraneche	7	Julio	2023-07-29T00:00:00	2024-11-06T03:00:00	2	Temperatura media	14.2
40154	7	Sololá	701	Sololá	3	Barraneche	7	Julio	2023-07-29T00:00:00	2024-11-06T03:00:00	4	Temperatura máxima	14.9
40155	7	Sololá	701	Sololá	3	Barraneche	7	Julio	2023-07-29T00:00:00	2024-11-06T03:00:00	3	Temperatura mínima	14.1
40156	7	Sololá	701	Sololá	3	Barraneche	7	Julio	2023-07-29T00:00:00	2024-11-06T03:00:00	5	Humedad	72
40157	7	Sololá	701	Sololá	3	Barraneche	7	Julio	2023-07-29T00:00:00	2024-11-06T03:00:00	6	Velocidad del viento	4.8
40158	7	Sololá	701	Sololá	3	Barraneche	7	Julio	2023-07-29T00:00:00	2024-11-06T03:00:00	7	Dirección del viento	4.83
40159	7	Sololá	701	Sololá	3	Barraneche	7	Julio	2023-07-29T00:00:00	2024-11-06T03:00:00	1	Precipitación	0.6
40160	7	Sololá	701	Sololá	3	Barraneche	7	Julio	2023-07-29T00:00:00	2024-11-06T03:00:00	8	Radiación solar	0
40161	7	Sololá	701	Sololá	3	Barraneche	7	Julio	2023-07-29T00:00:00	2024-11-06T04:00:00	2	Temperatura media	14.6
40162	7	Sololá	701	Sololá	3	Barraneche	7	Julio	2023-07-29T00:00:00	2024-11-06T04:00:00	4	Temperatura máxima	14.8
40163	7	Sololá	701	Sololá	3	Barraneche	7	Julio	2023-07-29T00:00:00	2024-11-06T04:00:00	3	Temperatura mínima	13.7
40164	7	Sololá	701	Sololá	3	Barraneche	7	Julio	2023-07-29T00:00:00	2024-11-06T04:00:00	5	Humedad	67
40165	7	Sololá	701	Sololá	3	Barraneche	7	Julio	2023-07-29T00:00:00	2024-11-06T04:00:00	6	Velocidad del viento	9.7
40166	7	Sololá	701	Sololá	3	Barraneche	7	Julio	2023-07-29T00:00:00	2024-11-06T04:00:00	7	Dirección del viento	9.66
40167	7	Sololá	701	Sololá	3	Barraneche	7	Julio	2023-07-29T00:00:00	2024-11-06T04:00:00	1	Precipitación	6
40168	7	Sololá	701	Sololá	3	Barraneche	7	Julio	2023-07-29T00:00:00	2024-11-06T04:00:00	8	Radiación solar	0
40169	7	Sololá	701	Sololá	3	Barraneche	7	Julio	2023-07-29T00:00:00	2024-11-06T05:00:00	2	Temperatura media	14.5
40170	7	Sololá	701	Sololá	3	Barraneche	7	Julio	2023-07-29T00:00:00	2024-11-06T05:00:00	4	Temperatura máxima	14.9
40171	7	Sololá	701	Sololá	3	Barraneche	7	Julio	2023-07-29T00:00:00	2024-11-06T05:00:00	3	Temperatura mínima	14.3
40172	7	Sololá	701	Sololá	3	Barraneche	7	Julio	2023-07-29T00:00:00	2024-11-06T05:00:00	5	Humedad	69
40173	7	Sololá	701	Sololá	3	Barraneche	7	Julio	2023-07-29T00:00:00	2024-11-06T05:00:00	6	Velocidad del viento	16.1
40174	7	Sololá	701	Sololá	3	Barraneche	7	Julio	2023-07-29T00:00:00	2024-11-06T05:00:00	7	Dirección del viento	16.09
40175	7	Sololá	701	Sololá	3	Barraneche	7	Julio	2023-07-29T00:00:00	2024-11-06T05:00:00	1	Precipitación	3.4
40176	7	Sololá	701	Sololá	3	Barraneche	7	Julio	2023-07-29T00:00:00	2024-11-06T05:00:00	8	Radiación solar	0
40177	7	Sololá	701	Sololá	3	Barraneche	7	Julio	2023-07-29T00:00:00	2024-11-06T06:00:00	2	Temperatura media	14.4
40178	7	Sololá	701	Sololá	3	Barraneche	7	Julio	2023-07-29T00:00:00	2024-11-06T06:00:00	4	Temperatura máxima	15
40179	7	Sololá	701	Sololá	3	Barraneche	7	Julio	2023-07-29T00:00:00	2024-11-06T06:00:00	3	Temperatura mínima	14.4
40180	7	Sololá	701	Sololá	3	Barraneche	7	Julio	2023-07-29T00:00:00	2024-11-06T06:00:00	5	Humedad	68
40181	7	Sololá	701	Sololá	3	Barraneche	7	Julio	2023-07-29T00:00:00	2024-11-06T06:00:00	6	Velocidad del viento	19.3
40182	7	Sololá	701	Sololá	3	Barraneche	7	Julio	2023-07-29T00:00:00	2024-11-06T06:00:00	7	Dirección del viento	19.31
40183	7	Sololá	701	Sololá	3	Barraneche	7	Julio	2023-07-29T00:00:00	2024-11-06T06:00:00	1	Precipitación	1.4
40184	7	Sololá	701	Sololá	3	Barraneche	7	Julio	2023-07-29T00:00:00	2024-11-06T06:00:00	8	Radiación solar	0
40185	7	Sololá	701	Sololá	3	Barraneche	7	Julio	2023-07-29T00:00:00	2024-11-06T07:00:00	2	Temperatura media	14.4
40186	7	Sololá	701	Sololá	3	Barraneche	7	Julio	2023-07-29T00:00:00	2024-11-06T07:00:00	4	Temperatura máxima	14.7
40187	7	Sololá	701	Sololá	3	Barraneche	7	Julio	2023-07-29T00:00:00	2024-11-06T07:00:00	3	Temperatura mínima	14.3
40188	7	Sololá	701	Sololá	3	Barraneche	7	Julio	2023-07-29T00:00:00	2024-11-06T07:00:00	5	Humedad	68
40189	7	Sololá	701	Sololá	3	Barraneche	7	Julio	2023-07-29T00:00:00	2024-11-06T07:00:00	6	Velocidad del viento	20.9
40190	7	Sololá	701	Sololá	3	Barraneche	7	Julio	2023-07-29T00:00:00	2024-11-06T07:00:00	7	Dirección del viento	20.92
40191	7	Sololá	701	Sololá	3	Barraneche	7	Julio	2023-07-29T00:00:00	2024-11-06T07:00:00	1	Precipitación	0.8
40192	7	Sololá	701	Sololá	3	Barraneche	7	Julio	2023-07-29T00:00:00	2024-11-06T07:00:00	8	Radiación solar	46
40193	7	Sololá	701	Sololá	3	Barraneche	7	Julio	2023-07-29T00:00:00	2024-11-06T08:00:00	2	Temperatura media	14.7
40194	7	Sololá	701	Sololá	3	Barraneche	7	Julio	2023-07-29T00:00:00	2024-11-06T08:00:00	4	Temperatura máxima	14.8
40195	7	Sololá	701	Sololá	3	Barraneche	7	Julio	2023-07-29T00:00:00	2024-11-06T08:00:00	3	Temperatura mínima	14.2
40196	7	Sololá	701	Sololá	3	Barraneche	7	Julio	2023-07-29T00:00:00	2024-11-06T08:00:00	5	Humedad	70
40197	7	Sololá	701	Sololá	3	Barraneche	7	Julio	2023-07-29T00:00:00	2024-11-06T08:00:00	6	Velocidad del viento	17.7
40198	7	Sololá	701	Sololá	3	Barraneche	7	Julio	2023-07-29T00:00:00	2024-11-06T08:00:00	7	Dirección del viento	17.7
40199	7	Sololá	701	Sololá	3	Barraneche	7	Julio	2023-07-29T00:00:00	2024-11-06T08:00:00	1	Precipitación	0.2
40200	7	Sololá	701	Sololá	3	Barraneche	7	Julio	2023-07-29T00:00:00	2024-11-06T08:00:00	8	Radiación solar	155
40201	7	Sololá	701	Sololá	3	Barraneche	7	Julio	2023-07-29T00:00:00	2024-11-06T09:00:00	2	Temperatura media	14.9
40202	7	Sololá	701	Sololá	3	Barraneche	7	Julio	2023-07-29T00:00:00	2024-11-06T09:00:00	4	Temperatura máxima	15.1
40203	7	Sololá	701	Sololá	3	Barraneche	7	Julio	2023-07-29T00:00:00	2024-11-06T09:00:00	3	Temperatura mínima	14.7
40204	7	Sololá	701	Sololá	3	Barraneche	7	Julio	2023-07-29T00:00:00	2024-11-06T09:00:00	5	Humedad	69
40205	7	Sololá	701	Sololá	3	Barraneche	7	Julio	2023-07-29T00:00:00	2024-11-06T09:00:00	6	Velocidad del viento	16.1
40206	7	Sololá	701	Sololá	3	Barraneche	7	Julio	2023-07-29T00:00:00	2024-11-06T09:00:00	7	Dirección del viento	16.09
40207	7	Sololá	701	Sololá	3	Barraneche	7	Julio	2023-07-29T00:00:00	2024-11-06T09:00:00	1	Precipitación	0.2
40208	7	Sololá	701	Sololá	3	Barraneche	7	Julio	2023-07-29T00:00:00	2024-11-06T09:00:00	8	Radiación solar	261
40209	7	Sololá	701	Sololá	3	Barraneche	7	Julio	2023-07-29T00:00:00	2024-11-06T10:00:00	2	Temperatura media	15.4
40210	7	Sololá	701	Sololá	3	Barraneche	7	Julio	2023-07-29T00:00:00	2024-11-06T10:00:00	4	Temperatura máxima	15.6
40211	7	Sololá	701	Sololá	3	Barraneche	7	Julio	2023-07-29T00:00:00	2024-11-06T10:00:00	3	Temperatura mínima	14.8
40212	7	Sololá	701	Sololá	3	Barraneche	7	Julio	2023-07-29T00:00:00	2024-11-06T10:00:00	5	Humedad	67
40213	7	Sololá	701	Sololá	3	Barraneche	7	Julio	2023-07-29T00:00:00	2024-11-06T10:00:00	6	Velocidad del viento	11.3
40214	7	Sololá	701	Sololá	3	Barraneche	7	Julio	2023-07-29T00:00:00	2024-11-06T10:00:00	7	Dirección del viento	11.27
40215	7	Sololá	701	Sololá	3	Barraneche	7	Julio	2023-07-29T00:00:00	2024-11-06T10:00:00	1	Precipitación	0.2
40216	7	Sololá	701	Sololá	3	Barraneche	7	Julio	2023-07-29T00:00:00	2024-11-06T10:00:00	8	Radiación solar	312
40217	7	Sololá	701	Sololá	3	Barraneche	7	Julio	2023-07-29T00:00:00	2024-11-06T11:00:00	2	Temperatura media	15.4
40218	7	Sololá	701	Sololá	3	Barraneche	7	Julio	2023-07-29T00:00:00	2024-11-06T11:00:00	4	Temperatura máxima	15.4
40219	7	Sololá	701	Sololá	3	Barraneche	7	Julio	2023-07-29T00:00:00	2024-11-06T11:00:00	3	Temperatura mínima	15
40220	7	Sololá	701	Sololá	3	Barraneche	7	Julio	2023-07-29T00:00:00	2024-11-06T11:00:00	5	Humedad	68
40221	7	Sololá	701	Sololá	3	Barraneche	7	Julio	2023-07-29T00:00:00	2024-11-06T11:00:00	6	Velocidad del viento	9.7
40222	7	Sololá	701	Sololá	3	Barraneche	7	Julio	2023-07-29T00:00:00	2024-11-06T11:00:00	7	Dirección del viento	9.66
40223	7	Sololá	701	Sololá	3	Barraneche	7	Julio	2023-07-29T00:00:00	2024-11-06T11:00:00	1	Precipitación	1
40224	7	Sololá	701	Sololá	3	Barraneche	7	Julio	2023-07-29T00:00:00	2024-11-06T11:00:00	8	Radiación solar	259
40225	7	Sololá	701	Sololá	3	Barraneche	7	Julio	2023-07-29T00:00:00	2024-11-06T12:00:00	2	Temperatura media	15.4
40226	7	Sololá	701	Sololá	3	Barraneche	7	Julio	2023-07-29T00:00:00	2024-11-06T12:00:00	4	Temperatura máxima	15.9
40227	7	Sololá	701	Sololá	3	Barraneche	7	Julio	2023-07-29T00:00:00	2024-11-06T12:00:00	3	Temperatura mínima	15.4
40228	7	Sololá	701	Sololá	3	Barraneche	7	Julio	2023-07-29T00:00:00	2024-11-06T12:00:00	5	Humedad	68
40229	7	Sololá	701	Sololá	3	Barraneche	7	Julio	2023-07-29T00:00:00	2024-11-06T12:00:00	6	Velocidad del viento	9.7
40230	7	Sololá	701	Sololá	3	Barraneche	7	Julio	2023-07-29T00:00:00	2024-11-06T12:00:00	7	Dirección del viento	9.66
40231	7	Sololá	701	Sololá	3	Barraneche	7	Julio	2023-07-29T00:00:00	2024-11-06T12:00:00	1	Precipitación	0
40232	7	Sololá	701	Sololá	3	Barraneche	7	Julio	2023-07-29T00:00:00	2024-11-06T12:00:00	8	Radiación solar	273
40233	7	Sololá	701	Sololá	3	Barraneche	7	Julio	2023-07-29T00:00:00	2024-11-06T13:00:00	2	Temperatura media	15.9
40234	7	Sololá	701	Sololá	3	Barraneche	7	Julio	2023-07-29T00:00:00	2024-11-06T13:00:00	4	Temperatura máxima	15.9
40235	7	Sololá	701	Sololá	3	Barraneche	7	Julio	2023-07-29T00:00:00	2024-11-06T13:00:00	3	Temperatura mínima	15.3
40236	7	Sololá	701	Sololá	3	Barraneche	7	Julio	2023-07-29T00:00:00	2024-11-06T13:00:00	5	Humedad	67
40237	7	Sololá	701	Sololá	3	Barraneche	7	Julio	2023-07-29T00:00:00	2024-11-06T13:00:00	6	Velocidad del viento	11.3
40238	7	Sololá	701	Sololá	3	Barraneche	7	Julio	2023-07-29T00:00:00	2024-11-06T13:00:00	7	Dirección del viento	11.27
40239	7	Sololá	701	Sololá	3	Barraneche	7	Julio	2023-07-29T00:00:00	2024-11-06T13:00:00	1	Precipitación	1.6
40240	7	Sololá	701	Sololá	3	Barraneche	7	Julio	2023-07-29T00:00:00	2024-11-06T13:00:00	8	Radiación solar	270
40241	7	Sololá	701	Sololá	3	Barraneche	7	Julio	2023-07-29T00:00:00	2024-11-06T14:00:00	2	Temperatura media	14.8
40242	7	Sololá	701	Sololá	3	Barraneche	7	Julio	2023-07-29T00:00:00	2024-11-06T14:00:00	4	Temperatura máxima	15.9
40243	7	Sololá	701	Sololá	3	Barraneche	7	Julio	2023-07-29T00:00:00	2024-11-06T14:00:00	3	Temperatura mínima	14.6
40244	7	Sololá	701	Sololá	3	Barraneche	7	Julio	2023-07-29T00:00:00	2024-11-06T14:00:00	5	Humedad	72
40245	7	Sololá	701	Sololá	3	Barraneche	7	Julio	2023-07-29T00:00:00	2024-11-06T14:00:00	6	Velocidad del viento	6.4
40246	7	Sololá	701	Sololá	3	Barraneche	7	Julio	2023-07-29T00:00:00	2024-11-06T14:00:00	7	Dirección del viento	6.44
40247	7	Sololá	701	Sololá	3	Barraneche	7	Julio	2023-07-29T00:00:00	2024-11-06T14:00:00	1	Precipitación	4.4
40248	7	Sololá	701	Sololá	3	Barraneche	7	Julio	2023-07-29T00:00:00	2024-11-06T14:00:00	8	Radiación solar	215
40249	7	Sololá	701	Sololá	3	Barraneche	7	Julio	2023-07-29T00:00:00	2024-11-06T15:00:00	2	Temperatura media	16.3
40250	7	Sololá	701	Sololá	3	Barraneche	7	Julio	2023-07-29T00:00:00	2024-11-06T15:00:00	4	Temperatura máxima	16.4
40251	7	Sololá	701	Sololá	3	Barraneche	7	Julio	2023-07-29T00:00:00	2024-11-06T15:00:00	3	Temperatura mínima	14.8
40252	7	Sololá	701	Sololá	3	Barraneche	7	Julio	2023-07-29T00:00:00	2024-11-06T15:00:00	5	Humedad	65
40253	7	Sololá	701	Sololá	3	Barraneche	7	Julio	2023-07-29T00:00:00	2024-11-06T15:00:00	6	Velocidad del viento	9.7
40254	7	Sololá	701	Sololá	3	Barraneche	7	Julio	2023-07-29T00:00:00	2024-11-06T15:00:00	7	Dirección del viento	9.66
40255	7	Sololá	701	Sololá	3	Barraneche	7	Julio	2023-07-29T00:00:00	2024-11-06T15:00:00	1	Precipitación	0.2
40256	7	Sololá	701	Sololá	3	Barraneche	7	Julio	2023-07-29T00:00:00	2024-11-06T15:00:00	8	Radiación solar	354
40257	7	Sololá	701	Sololá	3	Barraneche	7	Julio	2023-07-29T00:00:00	2024-11-06T16:00:00	2	Temperatura media	17.4
40258	7	Sololá	701	Sololá	3	Barraneche	7	Julio	2023-07-29T00:00:00	2024-11-06T16:00:00	4	Temperatura máxima	17.4
40259	7	Sololá	701	Sololá	3	Barraneche	7	Julio	2023-07-29T00:00:00	2024-11-06T16:00:00	3	Temperatura mínima	16.2
40260	7	Sololá	701	Sololá	3	Barraneche	7	Julio	2023-07-29T00:00:00	2024-11-06T16:00:00	5	Humedad	62
40261	7	Sololá	701	Sololá	3	Barraneche	7	Julio	2023-07-29T00:00:00	2024-11-06T16:00:00	6	Velocidad del viento	9.7
40262	7	Sololá	701	Sololá	3	Barraneche	7	Julio	2023-07-29T00:00:00	2024-11-06T16:00:00	7	Dirección del viento	9.66
40263	7	Sololá	701	Sololá	3	Barraneche	7	Julio	2023-07-29T00:00:00	2024-11-06T16:00:00	1	Precipitación	0
40264	7	Sololá	701	Sololá	3	Barraneche	7	Julio	2023-07-29T00:00:00	2024-11-06T16:00:00	8	Radiación solar	302
40265	7	Sololá	701	Sololá	3	Barraneche	7	Julio	2023-07-29T00:00:00	2024-11-06T17:00:00	2	Temperatura media	16.7
40266	7	Sololá	701	Sololá	3	Barraneche	7	Julio	2023-07-29T00:00:00	2024-11-06T17:00:00	4	Temperatura máxima	17.5
40267	7	Sololá	701	Sololá	3	Barraneche	7	Julio	2023-07-29T00:00:00	2024-11-06T17:00:00	3	Temperatura mínima	16.7
40268	7	Sololá	701	Sololá	3	Barraneche	7	Julio	2023-07-29T00:00:00	2024-11-06T17:00:00	5	Humedad	67
40269	7	Sololá	701	Sololá	3	Barraneche	7	Julio	2023-07-29T00:00:00	2024-11-06T17:00:00	6	Velocidad del viento	4.8
40270	7	Sololá	701	Sololá	3	Barraneche	7	Julio	2023-07-29T00:00:00	2024-11-06T17:00:00	7	Dirección del viento	4.83
40271	7	Sololá	701	Sololá	3	Barraneche	7	Julio	2023-07-29T00:00:00	2024-11-06T17:00:00	1	Precipitación	0
40272	7	Sololá	701	Sololá	3	Barraneche	7	Julio	2023-07-29T00:00:00	2024-11-06T17:00:00	8	Radiación solar	162
40273	7	Sololá	701	Sololá	3	Barraneche	7	Julio	2023-07-29T00:00:00	2024-11-06T18:00:00	2	Temperatura media	16.1
40274	7	Sololá	701	Sololá	3	Barraneche	7	Julio	2023-07-29T00:00:00	2024-11-06T18:00:00	4	Temperatura máxima	16.8
40275	7	Sololá	701	Sololá	3	Barraneche	7	Julio	2023-07-29T00:00:00	2024-11-06T18:00:00	3	Temperatura mínima	15.8
40276	7	Sololá	701	Sololá	3	Barraneche	7	Julio	2023-07-29T00:00:00	2024-11-06T18:00:00	5	Humedad	70
40277	7	Sololá	701	Sololá	3	Barraneche	7	Julio	2023-07-29T00:00:00	2024-11-06T18:00:00	6	Velocidad del viento	3.2
40278	7	Sololá	701	Sololá	3	Barraneche	7	Julio	2023-07-29T00:00:00	2024-11-06T18:00:00	7	Dirección del viento	3.22
40279	7	Sololá	701	Sololá	3	Barraneche	7	Julio	2023-07-29T00:00:00	2024-11-06T18:00:00	1	Precipitación	0
40280	7	Sololá	701	Sololá	3	Barraneche	7	Julio	2023-07-29T00:00:00	2024-11-06T18:00:00	8	Radiación solar	34
40281	7	Sololá	701	Sololá	3	Barraneche	7	Julio	2023-07-29T00:00:00	2024-11-06T19:00:00	2	Temperatura media	14.8
40282	7	Sololá	701	Sololá	3	Barraneche	7	Julio	2023-07-29T00:00:00	2024-11-06T19:00:00	4	Temperatura máxima	16.1
40283	7	Sololá	701	Sololá	3	Barraneche	7	Julio	2023-07-29T00:00:00	2024-11-06T19:00:00	3	Temperatura mínima	14.7
40284	7	Sololá	701	Sololá	3	Barraneche	7	Julio	2023-07-29T00:00:00	2024-11-06T19:00:00	5	Humedad	78
40285	7	Sololá	701	Sololá	3	Barraneche	7	Julio	2023-07-29T00:00:00	2024-11-06T19:00:00	6	Velocidad del viento	1.6
40286	7	Sololá	701	Sololá	3	Barraneche	7	Julio	2023-07-29T00:00:00	2024-11-06T19:00:00	7	Dirección del viento	1.61
40287	7	Sololá	701	Sololá	3	Barraneche	7	Julio	2023-07-29T00:00:00	2024-11-06T19:00:00	1	Precipitación	3
40288	7	Sololá	701	Sololá	3	Barraneche	7	Julio	2023-07-29T00:00:00	2024-11-06T19:00:00	8	Radiación solar	0
40289	7	Sololá	701	Sololá	3	Barraneche	7	Julio	2023-07-29T00:00:00	2024-11-06T20:00:00	2	Temperatura media	14.2
40290	7	Sololá	701	Sololá	3	Barraneche	7	Julio	2023-07-29T00:00:00	2024-11-06T20:00:00	4	Temperatura máxima	14.9
40291	7	Sololá	701	Sololá	3	Barraneche	7	Julio	2023-07-29T00:00:00	2024-11-06T20:00:00	3	Temperatura mínima	14.1
40292	7	Sololá	701	Sololá	3	Barraneche	7	Julio	2023-07-29T00:00:00	2024-11-06T20:00:00	5	Humedad	78
40293	7	Sololá	701	Sololá	3	Barraneche	7	Julio	2023-07-29T00:00:00	2024-11-06T20:00:00	6	Velocidad del viento	4.8
40294	7	Sololá	701	Sololá	3	Barraneche	7	Julio	2023-07-29T00:00:00	2024-11-06T20:00:00	7	Dirección del viento	4.83
40295	7	Sololá	701	Sololá	3	Barraneche	7	Julio	2023-07-29T00:00:00	2024-11-06T20:00:00	1	Precipitación	3.2
40296	7	Sololá	701	Sololá	3	Barraneche	7	Julio	2023-07-29T00:00:00	2024-11-06T20:00:00	8	Radiación solar	0
40297	7	Sololá	701	Sololá	3	Barraneche	7	Julio	2023-07-29T00:00:00	2024-11-06T21:00:00	2	Temperatura media	13.9
40298	7	Sololá	701	Sololá	3	Barraneche	7	Julio	2023-07-29T00:00:00	2024-11-06T21:00:00	4	Temperatura máxima	14.3
40299	7	Sololá	701	Sololá	3	Barraneche	7	Julio	2023-07-29T00:00:00	2024-11-06T21:00:00	3	Temperatura mínima	13.8
40300	7	Sololá	701	Sololá	3	Barraneche	7	Julio	2023-07-29T00:00:00	2024-11-06T21:00:00	5	Humedad	71
40301	7	Sololá	701	Sololá	3	Barraneche	7	Julio	2023-07-29T00:00:00	2024-11-06T21:00:00	6	Velocidad del viento	6.4
40302	7	Sololá	701	Sololá	3	Barraneche	7	Julio	2023-07-29T00:00:00	2024-11-06T21:00:00	7	Dirección del viento	6.44
40303	7	Sololá	701	Sololá	3	Barraneche	7	Julio	2023-07-29T00:00:00	2024-11-06T21:00:00	1	Precipitación	2.6
40304	7	Sololá	701	Sololá	3	Barraneche	7	Julio	2023-07-29T00:00:00	2024-11-06T21:00:00	8	Radiación solar	0
40305	7	Sololá	701	Sololá	3	Barraneche	7	Julio	2023-07-29T00:00:00	2024-11-06T22:00:00	2	Temperatura media	13.1
40306	7	Sololá	701	Sololá	3	Barraneche	7	Julio	2023-07-29T00:00:00	2024-11-06T22:00:00	4	Temperatura máxima	14.2
40307	7	Sololá	701	Sololá	3	Barraneche	7	Julio	2023-07-29T00:00:00	2024-11-06T22:00:00	3	Temperatura mínima	13
40308	7	Sololá	701	Sololá	3	Barraneche	7	Julio	2023-07-29T00:00:00	2024-11-06T22:00:00	5	Humedad	75
40309	7	Sololá	701	Sololá	3	Barraneche	7	Julio	2023-07-29T00:00:00	2024-11-06T22:00:00	6	Velocidad del viento	4.8
40310	7	Sololá	701	Sololá	3	Barraneche	7	Julio	2023-07-29T00:00:00	2024-11-06T22:00:00	7	Dirección del viento	4.83
40311	7	Sololá	701	Sololá	3	Barraneche	7	Julio	2023-07-29T00:00:00	2024-11-06T22:00:00	1	Precipitación	2.2
40312	7	Sololá	701	Sololá	3	Barraneche	7	Julio	2023-07-29T00:00:00	2024-11-06T22:00:00	8	Radiación solar	0
40313	7	Sololá	701	Sololá	3	Barraneche	7	Julio	2023-07-29T00:00:00	2024-11-06T23:00:00	2	Temperatura media	13.1
40314	7	Sololá	701	Sololá	3	Barraneche	7	Julio	2023-07-29T00:00:00	2024-11-06T23:00:00	4	Temperatura máxima	13.2
40315	7	Sololá	701	Sololá	3	Barraneche	7	Julio	2023-07-29T00:00:00	2024-11-06T23:00:00	3	Temperatura mínima	12.9
40316	7	Sololá	701	Sololá	3	Barraneche	7	Julio	2023-07-29T00:00:00	2024-11-06T23:00:00	5	Humedad	75
40317	7	Sololá	701	Sololá	3	Barraneche	7	Julio	2023-07-29T00:00:00	2024-11-06T23:00:00	6	Velocidad del viento	6.4
40318	7	Sololá	701	Sololá	3	Barraneche	7	Julio	2023-07-29T00:00:00	2024-11-06T23:00:00	7	Dirección del viento	6.44
40319	7	Sololá	701	Sololá	3	Barraneche	7	Julio	2023-07-29T00:00:00	2024-11-06T23:00:00	1	Precipitación	0.2
40320	7	Sololá	701	Sololá	3	Barraneche	7	Julio	2023-07-29T00:00:00	2024-11-06T23:00:00	8	Radiación solar	0
40321	7	Sololá	701	Sololá	3	Barraneche	7	Julio	2023-07-30T00:00:00	2024-11-06T00:00:00	2	Temperatura media	13.1
40322	7	Sololá	701	Sololá	3	Barraneche	7	Julio	2023-07-30T00:00:00	2024-11-06T00:00:00	4	Temperatura máxima	13.4
40323	7	Sololá	701	Sololá	3	Barraneche	7	Julio	2023-07-30T00:00:00	2024-11-06T00:00:00	3	Temperatura mínima	12.8
40324	7	Sololá	701	Sololá	3	Barraneche	7	Julio	2023-07-30T00:00:00	2024-11-06T00:00:00	5	Humedad	77
40325	7	Sololá	701	Sololá	3	Barraneche	7	Julio	2023-07-30T00:00:00	2024-11-06T00:00:00	6	Velocidad del viento	4.8
40326	7	Sololá	701	Sololá	3	Barraneche	7	Julio	2023-07-30T00:00:00	2024-11-06T00:00:00	7	Dirección del viento	4.83
40327	7	Sololá	701	Sololá	3	Barraneche	7	Julio	2023-07-30T00:00:00	2024-11-06T00:00:00	1	Precipitación	0
40328	7	Sololá	701	Sololá	3	Barraneche	7	Julio	2023-07-30T00:00:00	2024-11-06T00:00:00	8	Radiación solar	0
40329	7	Sololá	701	Sololá	3	Barraneche	7	Julio	2023-07-30T00:00:00	2024-11-06T01:00:00	2	Temperatura media	14.3
40330	7	Sololá	701	Sololá	3	Barraneche	7	Julio	2023-07-30T00:00:00	2024-11-06T01:00:00	4	Temperatura máxima	14.5
40331	7	Sololá	701	Sololá	3	Barraneche	7	Julio	2023-07-30T00:00:00	2024-11-06T01:00:00	3	Temperatura mínima	13.1
40332	7	Sololá	701	Sololá	3	Barraneche	7	Julio	2023-07-30T00:00:00	2024-11-06T01:00:00	5	Humedad	68
40333	7	Sololá	701	Sololá	3	Barraneche	7	Julio	2023-07-30T00:00:00	2024-11-06T01:00:00	6	Velocidad del viento	8
40334	7	Sololá	701	Sololá	3	Barraneche	7	Julio	2023-07-30T00:00:00	2024-11-06T01:00:00	7	Dirección del viento	8.05
40335	7	Sololá	701	Sololá	3	Barraneche	7	Julio	2023-07-30T00:00:00	2024-11-06T01:00:00	1	Precipitación	0
40336	7	Sololá	701	Sololá	3	Barraneche	7	Julio	2023-07-30T00:00:00	2024-11-06T01:00:00	8	Radiación solar	0
40337	7	Sololá	701	Sololá	3	Barraneche	7	Julio	2023-07-30T00:00:00	2024-11-06T02:00:00	2	Temperatura media	12.4
40338	7	Sololá	701	Sololá	3	Barraneche	7	Julio	2023-07-30T00:00:00	2024-11-06T02:00:00	4	Temperatura máxima	14.4
40339	7	Sololá	701	Sololá	3	Barraneche	7	Julio	2023-07-30T00:00:00	2024-11-06T02:00:00	3	Temperatura mínima	12.4
40340	7	Sololá	701	Sololá	3	Barraneche	7	Julio	2023-07-30T00:00:00	2024-11-06T02:00:00	5	Humedad	74
40341	7	Sololá	701	Sololá	3	Barraneche	7	Julio	2023-07-30T00:00:00	2024-11-06T02:00:00	6	Velocidad del viento	4.8
40342	7	Sololá	701	Sololá	3	Barraneche	7	Julio	2023-07-30T00:00:00	2024-11-06T02:00:00	7	Dirección del viento	4.83
40343	7	Sololá	701	Sololá	3	Barraneche	7	Julio	2023-07-30T00:00:00	2024-11-06T02:00:00	1	Precipitación	0
40344	7	Sololá	701	Sololá	3	Barraneche	7	Julio	2023-07-30T00:00:00	2024-11-06T02:00:00	8	Radiación solar	0
40345	7	Sololá	701	Sololá	3	Barraneche	7	Julio	2023-07-30T00:00:00	2024-11-06T03:00:00	2	Temperatura media	11.8
40346	7	Sololá	701	Sololá	3	Barraneche	7	Julio	2023-07-30T00:00:00	2024-11-06T03:00:00	4	Temperatura máxima	12.4
40347	7	Sololá	701	Sololá	3	Barraneche	7	Julio	2023-07-30T00:00:00	2024-11-06T03:00:00	3	Temperatura mínima	11.7
40348	7	Sololá	701	Sololá	3	Barraneche	7	Julio	2023-07-30T00:00:00	2024-11-06T03:00:00	5	Humedad	76
40349	7	Sololá	701	Sololá	3	Barraneche	7	Julio	2023-07-30T00:00:00	2024-11-06T03:00:00	6	Velocidad del viento	3.2
40350	7	Sololá	701	Sololá	3	Barraneche	7	Julio	2023-07-30T00:00:00	2024-11-06T03:00:00	7	Dirección del viento	3.22
40351	7	Sololá	701	Sololá	3	Barraneche	7	Julio	2023-07-30T00:00:00	2024-11-06T03:00:00	1	Precipitación	0
40352	7	Sololá	701	Sololá	3	Barraneche	7	Julio	2023-07-30T00:00:00	2024-11-06T03:00:00	8	Radiación solar	0
40353	7	Sololá	701	Sololá	3	Barraneche	7	Julio	2023-07-30T00:00:00	2024-11-06T04:00:00	2	Temperatura media	11.8
40354	7	Sololá	701	Sololá	3	Barraneche	7	Julio	2023-07-30T00:00:00	2024-11-06T04:00:00	4	Temperatura máxima	11.8
40355	7	Sololá	701	Sololá	3	Barraneche	7	Julio	2023-07-30T00:00:00	2024-11-06T04:00:00	3	Temperatura mínima	11.2
40356	7	Sololá	701	Sololá	3	Barraneche	7	Julio	2023-07-30T00:00:00	2024-11-06T04:00:00	5	Humedad	81
40357	7	Sololá	701	Sololá	3	Barraneche	7	Julio	2023-07-30T00:00:00	2024-11-06T04:00:00	6	Velocidad del viento	3.2
40358	7	Sololá	701	Sololá	3	Barraneche	7	Julio	2023-07-30T00:00:00	2024-11-06T04:00:00	7	Dirección del viento	3.22
40359	7	Sololá	701	Sololá	3	Barraneche	7	Julio	2023-07-30T00:00:00	2024-11-06T04:00:00	1	Precipitación	0
40360	7	Sololá	701	Sololá	3	Barraneche	7	Julio	2023-07-30T00:00:00	2024-11-06T04:00:00	8	Radiación solar	0
40361	7	Sololá	701	Sololá	3	Barraneche	7	Julio	2023-07-30T00:00:00	2024-11-06T05:00:00	2	Temperatura media	14.3
40362	7	Sololá	701	Sololá	3	Barraneche	7	Julio	2023-07-30T00:00:00	2024-11-06T05:00:00	4	Temperatura máxima	14.3
40363	7	Sololá	701	Sololá	3	Barraneche	7	Julio	2023-07-30T00:00:00	2024-11-06T05:00:00	3	Temperatura mínima	11.9
40364	7	Sololá	701	Sololá	3	Barraneche	7	Julio	2023-07-30T00:00:00	2024-11-06T05:00:00	5	Humedad	67
40365	7	Sololá	701	Sololá	3	Barraneche	7	Julio	2023-07-30T00:00:00	2024-11-06T05:00:00	6	Velocidad del viento	6.4
40366	7	Sololá	701	Sololá	3	Barraneche	7	Julio	2023-07-30T00:00:00	2024-11-06T05:00:00	7	Dirección del viento	6.44
40367	7	Sololá	701	Sololá	3	Barraneche	7	Julio	2023-07-30T00:00:00	2024-11-06T05:00:00	1	Precipitación	0
40368	7	Sololá	701	Sololá	3	Barraneche	7	Julio	2023-07-30T00:00:00	2024-11-06T05:00:00	8	Radiación solar	0
40369	7	Sololá	701	Sololá	3	Barraneche	7	Julio	2023-07-30T00:00:00	2024-11-06T06:00:00	2	Temperatura media	14.2
40370	7	Sololá	701	Sololá	3	Barraneche	7	Julio	2023-07-30T00:00:00	2024-11-06T06:00:00	4	Temperatura máxima	14.3
40371	7	Sololá	701	Sololá	3	Barraneche	7	Julio	2023-07-30T00:00:00	2024-11-06T06:00:00	3	Temperatura mínima	13.7
40372	7	Sololá	701	Sololá	3	Barraneche	7	Julio	2023-07-30T00:00:00	2024-11-06T06:00:00	5	Humedad	67
40373	7	Sololá	701	Sololá	3	Barraneche	7	Julio	2023-07-30T00:00:00	2024-11-06T06:00:00	6	Velocidad del viento	6.4
40374	7	Sololá	701	Sololá	3	Barraneche	7	Julio	2023-07-30T00:00:00	2024-11-06T06:00:00	7	Dirección del viento	6.44
40375	7	Sololá	701	Sololá	3	Barraneche	7	Julio	2023-07-30T00:00:00	2024-11-06T06:00:00	1	Precipitación	0
40376	7	Sololá	701	Sololá	3	Barraneche	7	Julio	2023-07-30T00:00:00	2024-11-06T06:00:00	8	Radiación solar	2
40377	7	Sololá	701	Sololá	3	Barraneche	7	Julio	2023-07-30T00:00:00	2024-11-06T07:00:00	2	Temperatura media	15.5
40378	7	Sololá	701	Sololá	3	Barraneche	7	Julio	2023-07-30T00:00:00	2024-11-06T07:00:00	4	Temperatura máxima	15.5
40379	7	Sololá	701	Sololá	3	Barraneche	7	Julio	2023-07-30T00:00:00	2024-11-06T07:00:00	3	Temperatura mínima	14.2
40380	7	Sololá	701	Sololá	3	Barraneche	7	Julio	2023-07-30T00:00:00	2024-11-06T07:00:00	5	Humedad	64
40381	7	Sololá	701	Sololá	3	Barraneche	7	Julio	2023-07-30T00:00:00	2024-11-06T07:00:00	6	Velocidad del viento	9.7
40382	7	Sololá	701	Sololá	3	Barraneche	7	Julio	2023-07-30T00:00:00	2024-11-06T07:00:00	7	Dirección del viento	9.66
40383	7	Sololá	701	Sololá	3	Barraneche	7	Julio	2023-07-30T00:00:00	2024-11-06T07:00:00	1	Precipitación	0
40384	7	Sololá	701	Sololá	3	Barraneche	7	Julio	2023-07-30T00:00:00	2024-11-06T07:00:00	8	Radiación solar	58
40385	7	Sololá	701	Sololá	3	Barraneche	7	Julio	2023-07-30T00:00:00	2024-11-06T08:00:00	2	Temperatura media	17.4
40386	7	Sololá	701	Sololá	3	Barraneche	7	Julio	2023-07-30T00:00:00	2024-11-06T08:00:00	4	Temperatura máxima	17.5
40387	7	Sololá	701	Sololá	3	Barraneche	7	Julio	2023-07-30T00:00:00	2024-11-06T08:00:00	3	Temperatura mínima	15.5
40388	7	Sololá	701	Sololá	3	Barraneche	7	Julio	2023-07-30T00:00:00	2024-11-06T08:00:00	5	Humedad	59
40389	7	Sololá	701	Sololá	3	Barraneche	7	Julio	2023-07-30T00:00:00	2024-11-06T08:00:00	6	Velocidad del viento	12.9
40390	7	Sololá	701	Sololá	3	Barraneche	7	Julio	2023-07-30T00:00:00	2024-11-06T08:00:00	7	Dirección del viento	12.87
40391	7	Sololá	701	Sololá	3	Barraneche	7	Julio	2023-07-30T00:00:00	2024-11-06T08:00:00	1	Precipitación	0
40392	7	Sololá	701	Sololá	3	Barraneche	7	Julio	2023-07-30T00:00:00	2024-11-06T08:00:00	8	Radiación solar	318
40393	7	Sololá	701	Sololá	3	Barraneche	7	Julio	2023-07-30T00:00:00	2024-11-06T09:00:00	2	Temperatura media	18.5
40394	7	Sololá	701	Sololá	3	Barraneche	7	Julio	2023-07-30T00:00:00	2024-11-06T09:00:00	4	Temperatura máxima	18.6
40395	7	Sololá	701	Sololá	3	Barraneche	7	Julio	2023-07-30T00:00:00	2024-11-06T09:00:00	3	Temperatura mínima	17.4
40396	7	Sololá	701	Sololá	3	Barraneche	7	Julio	2023-07-30T00:00:00	2024-11-06T09:00:00	5	Humedad	56
40397	7	Sololá	701	Sololá	3	Barraneche	7	Julio	2023-07-30T00:00:00	2024-11-06T09:00:00	6	Velocidad del viento	14.5
40398	7	Sololá	701	Sololá	3	Barraneche	7	Julio	2023-07-30T00:00:00	2024-11-06T09:00:00	7	Dirección del viento	14.48
40399	7	Sololá	701	Sololá	3	Barraneche	7	Julio	2023-07-30T00:00:00	2024-11-06T09:00:00	1	Precipitación	0
40400	7	Sololá	701	Sololá	3	Barraneche	7	Julio	2023-07-30T00:00:00	2024-11-06T09:00:00	8	Radiación solar	582
40401	7	Sololá	701	Sololá	3	Barraneche	7	Julio	2023-07-30T00:00:00	2024-11-06T10:00:00	2	Temperatura media	19.6
40402	7	Sololá	701	Sololá	3	Barraneche	7	Julio	2023-07-30T00:00:00	2024-11-06T10:00:00	4	Temperatura máxima	19.6
40403	7	Sololá	701	Sololá	3	Barraneche	7	Julio	2023-07-30T00:00:00	2024-11-06T10:00:00	3	Temperatura mínima	18.4
40404	7	Sololá	701	Sololá	3	Barraneche	7	Julio	2023-07-30T00:00:00	2024-11-06T10:00:00	5	Humedad	55
40405	7	Sololá	701	Sololá	3	Barraneche	7	Julio	2023-07-30T00:00:00	2024-11-06T10:00:00	6	Velocidad del viento	11.3
40406	7	Sololá	701	Sololá	3	Barraneche	7	Julio	2023-07-30T00:00:00	2024-11-06T10:00:00	7	Dirección del viento	11.27
40407	7	Sololá	701	Sololá	3	Barraneche	7	Julio	2023-07-30T00:00:00	2024-11-06T10:00:00	1	Precipitación	0
40408	7	Sololá	701	Sololá	3	Barraneche	7	Julio	2023-07-30T00:00:00	2024-11-06T10:00:00	8	Radiación solar	780
40409	7	Sololá	701	Sololá	3	Barraneche	7	Julio	2023-07-30T00:00:00	2024-11-06T11:00:00	2	Temperatura media	19.1
40410	7	Sololá	701	Sololá	3	Barraneche	7	Julio	2023-07-30T00:00:00	2024-11-06T11:00:00	4	Temperatura máxima	19.6
40411	7	Sololá	701	Sololá	3	Barraneche	7	Julio	2023-07-30T00:00:00	2024-11-06T11:00:00	3	Temperatura mínima	18.9
40412	7	Sololá	701	Sololá	3	Barraneche	7	Julio	2023-07-30T00:00:00	2024-11-06T11:00:00	5	Humedad	59
40413	7	Sololá	701	Sololá	3	Barraneche	7	Julio	2023-07-30T00:00:00	2024-11-06T11:00:00	6	Velocidad del viento	12.9
40414	7	Sololá	701	Sololá	3	Barraneche	7	Julio	2023-07-30T00:00:00	2024-11-06T11:00:00	7	Dirección del viento	12.87
40415	7	Sololá	701	Sololá	3	Barraneche	7	Julio	2023-07-30T00:00:00	2024-11-06T11:00:00	1	Precipitación	0
40416	7	Sololá	701	Sololá	3	Barraneche	7	Julio	2023-07-30T00:00:00	2024-11-06T11:00:00	8	Radiación solar	898
40417	7	Sololá	701	Sololá	3	Barraneche	7	Julio	2023-07-30T00:00:00	2024-11-06T12:00:00	2	Temperatura media	19.4
40418	7	Sololá	701	Sololá	3	Barraneche	7	Julio	2023-07-30T00:00:00	2024-11-06T12:00:00	4	Temperatura máxima	19.7
40419	7	Sololá	701	Sololá	3	Barraneche	7	Julio	2023-07-30T00:00:00	2024-11-06T12:00:00	3	Temperatura mínima	19.1
40420	7	Sololá	701	Sololá	3	Barraneche	7	Julio	2023-07-30T00:00:00	2024-11-06T12:00:00	5	Humedad	59
40421	7	Sololá	701	Sololá	3	Barraneche	7	Julio	2023-07-30T00:00:00	2024-11-06T12:00:00	6	Velocidad del viento	14.5
40422	7	Sololá	701	Sololá	3	Barraneche	7	Julio	2023-07-30T00:00:00	2024-11-06T12:00:00	7	Dirección del viento	14.48
40423	7	Sololá	701	Sololá	3	Barraneche	7	Julio	2023-07-30T00:00:00	2024-11-06T12:00:00	1	Precipitación	0
40424	7	Sololá	701	Sololá	3	Barraneche	7	Julio	2023-07-30T00:00:00	2024-11-06T12:00:00	8	Radiación solar	990
40425	7	Sololá	701	Sololá	3	Barraneche	7	Julio	2023-07-30T00:00:00	2024-11-06T13:00:00	2	Temperatura media	20.3
40426	7	Sololá	701	Sololá	3	Barraneche	7	Julio	2023-07-30T00:00:00	2024-11-06T13:00:00	4	Temperatura máxima	20.3
40427	7	Sololá	701	Sololá	3	Barraneche	7	Julio	2023-07-30T00:00:00	2024-11-06T13:00:00	3	Temperatura mínima	19.2
40428	7	Sololá	701	Sololá	3	Barraneche	7	Julio	2023-07-30T00:00:00	2024-11-06T13:00:00	5	Humedad	54
40429	7	Sololá	701	Sololá	3	Barraneche	7	Julio	2023-07-30T00:00:00	2024-11-06T13:00:00	6	Velocidad del viento	12.9
40430	7	Sololá	701	Sololá	3	Barraneche	7	Julio	2023-07-30T00:00:00	2024-11-06T13:00:00	7	Dirección del viento	12.87
40431	7	Sololá	701	Sololá	3	Barraneche	7	Julio	2023-07-30T00:00:00	2024-11-06T13:00:00	1	Precipitación	0
40432	7	Sololá	701	Sololá	3	Barraneche	7	Julio	2023-07-30T00:00:00	2024-11-06T13:00:00	8	Radiación solar	1071
40433	7	Sololá	701	Sololá	3	Barraneche	7	Julio	2023-07-30T00:00:00	2024-11-06T14:00:00	2	Temperatura media	20.1
40434	7	Sololá	701	Sololá	3	Barraneche	7	Julio	2023-07-30T00:00:00	2024-11-06T14:00:00	4	Temperatura máxima	20.3
40435	7	Sololá	701	Sololá	3	Barraneche	7	Julio	2023-07-30T00:00:00	2024-11-06T14:00:00	3	Temperatura mínima	18.8
40436	7	Sololá	701	Sololá	3	Barraneche	7	Julio	2023-07-30T00:00:00	2024-11-06T14:00:00	5	Humedad	56
40437	7	Sololá	701	Sololá	3	Barraneche	7	Julio	2023-07-30T00:00:00	2024-11-06T14:00:00	6	Velocidad del viento	6.4
40438	7	Sololá	701	Sololá	3	Barraneche	7	Julio	2023-07-30T00:00:00	2024-11-06T14:00:00	7	Dirección del viento	6.44
40439	7	Sololá	701	Sololá	3	Barraneche	7	Julio	2023-07-30T00:00:00	2024-11-06T14:00:00	1	Precipitación	0
40440	7	Sololá	701	Sololá	3	Barraneche	7	Julio	2023-07-30T00:00:00	2024-11-06T14:00:00	8	Radiación solar	421
40441	7	Sololá	701	Sololá	3	Barraneche	7	Julio	2023-07-30T00:00:00	2024-11-06T15:00:00	2	Temperatura media	19.6
40442	7	Sololá	701	Sololá	3	Barraneche	7	Julio	2023-07-30T00:00:00	2024-11-06T15:00:00	4	Temperatura máxima	20.2
40443	7	Sololá	701	Sololá	3	Barraneche	7	Julio	2023-07-30T00:00:00	2024-11-06T15:00:00	3	Temperatura mínima	19.3
40444	7	Sololá	701	Sololá	3	Barraneche	7	Julio	2023-07-30T00:00:00	2024-11-06T15:00:00	5	Humedad	57
40445	7	Sololá	701	Sololá	3	Barraneche	7	Julio	2023-07-30T00:00:00	2024-11-06T15:00:00	6	Velocidad del viento	11.3
40446	7	Sololá	701	Sololá	3	Barraneche	7	Julio	2023-07-30T00:00:00	2024-11-06T15:00:00	7	Dirección del viento	11.27
40447	7	Sololá	701	Sololá	3	Barraneche	7	Julio	2023-07-30T00:00:00	2024-11-06T15:00:00	1	Precipitación	0
40448	7	Sololá	701	Sololá	3	Barraneche	7	Julio	2023-07-30T00:00:00	2024-11-06T15:00:00	8	Radiación solar	541
40449	7	Sololá	701	Sololá	3	Barraneche	7	Julio	2023-07-30T00:00:00	2024-11-06T16:00:00	2	Temperatura media	19.3
40450	7	Sololá	701	Sololá	3	Barraneche	7	Julio	2023-07-30T00:00:00	2024-11-06T16:00:00	4	Temperatura máxima	20.3
40451	7	Sololá	701	Sololá	3	Barraneche	7	Julio	2023-07-30T00:00:00	2024-11-06T16:00:00	3	Temperatura mínima	19.3
40452	7	Sololá	701	Sololá	3	Barraneche	7	Julio	2023-07-30T00:00:00	2024-11-06T16:00:00	5	Humedad	59
40453	7	Sololá	701	Sololá	3	Barraneche	7	Julio	2023-07-30T00:00:00	2024-11-06T16:00:00	6	Velocidad del viento	9.7
40454	7	Sololá	701	Sololá	3	Barraneche	7	Julio	2023-07-30T00:00:00	2024-11-06T16:00:00	7	Dirección del viento	9.66
40455	7	Sololá	701	Sololá	3	Barraneche	7	Julio	2023-07-30T00:00:00	2024-11-06T16:00:00	1	Precipitación	0
40456	7	Sololá	701	Sololá	3	Barraneche	7	Julio	2023-07-30T00:00:00	2024-11-06T16:00:00	8	Radiación solar	480
40457	7	Sololá	701	Sololá	3	Barraneche	7	Julio	2023-07-30T00:00:00	2024-11-06T17:00:00	2	Temperatura media	18.4
40458	7	Sololá	701	Sololá	3	Barraneche	7	Julio	2023-07-30T00:00:00	2024-11-06T17:00:00	4	Temperatura máxima	19.5
40459	7	Sololá	701	Sololá	3	Barraneche	7	Julio	2023-07-30T00:00:00	2024-11-06T17:00:00	3	Temperatura mínima	17.6
40460	7	Sololá	701	Sololá	3	Barraneche	7	Julio	2023-07-30T00:00:00	2024-11-06T17:00:00	5	Humedad	61
40461	7	Sololá	701	Sololá	3	Barraneche	7	Julio	2023-07-30T00:00:00	2024-11-06T17:00:00	6	Velocidad del viento	8
40462	7	Sololá	701	Sololá	3	Barraneche	7	Julio	2023-07-30T00:00:00	2024-11-06T17:00:00	7	Dirección del viento	8.05
40463	7	Sololá	701	Sololá	3	Barraneche	7	Julio	2023-07-30T00:00:00	2024-11-06T17:00:00	1	Precipitación	0
40464	7	Sololá	701	Sololá	3	Barraneche	7	Julio	2023-07-30T00:00:00	2024-11-06T17:00:00	8	Radiación solar	213
40465	7	Sololá	701	Sololá	3	Barraneche	7	Julio	2023-07-30T00:00:00	2024-11-06T18:00:00	2	Temperatura media	17.4
40466	7	Sololá	701	Sololá	3	Barraneche	7	Julio	2023-07-30T00:00:00	2024-11-06T18:00:00	4	Temperatura máxima	18.6
40467	7	Sololá	701	Sololá	3	Barraneche	7	Julio	2023-07-30T00:00:00	2024-11-06T18:00:00	3	Temperatura mínima	17.3
40468	7	Sololá	701	Sololá	3	Barraneche	7	Julio	2023-07-30T00:00:00	2024-11-06T18:00:00	5	Humedad	61
40469	7	Sololá	701	Sololá	3	Barraneche	7	Julio	2023-07-30T00:00:00	2024-11-06T18:00:00	6	Velocidad del viento	12.9
40470	7	Sololá	701	Sololá	3	Barraneche	7	Julio	2023-07-30T00:00:00	2024-11-06T18:00:00	7	Dirección del viento	12.87
40471	7	Sololá	701	Sololá	3	Barraneche	7	Julio	2023-07-30T00:00:00	2024-11-06T18:00:00	1	Precipitación	0
40472	7	Sololá	701	Sololá	3	Barraneche	7	Julio	2023-07-30T00:00:00	2024-11-06T18:00:00	8	Radiación solar	111
40473	7	Sololá	701	Sololá	3	Barraneche	7	Julio	2023-07-30T00:00:00	2024-11-06T19:00:00	2	Temperatura media	15.3
40474	7	Sololá	701	Sololá	3	Barraneche	7	Julio	2023-07-30T00:00:00	2024-11-06T19:00:00	4	Temperatura máxima	17.4
40475	7	Sololá	701	Sololá	3	Barraneche	7	Julio	2023-07-30T00:00:00	2024-11-06T19:00:00	3	Temperatura mínima	15.3
40476	7	Sololá	701	Sololá	3	Barraneche	7	Julio	2023-07-30T00:00:00	2024-11-06T19:00:00	5	Humedad	71
40477	7	Sololá	701	Sololá	3	Barraneche	7	Julio	2023-07-30T00:00:00	2024-11-06T19:00:00	6	Velocidad del viento	4.8
40478	7	Sololá	701	Sololá	3	Barraneche	7	Julio	2023-07-30T00:00:00	2024-11-06T19:00:00	7	Dirección del viento	4.83
40479	7	Sololá	701	Sololá	3	Barraneche	7	Julio	2023-07-30T00:00:00	2024-11-06T19:00:00	1	Precipitación	0
40480	7	Sololá	701	Sololá	3	Barraneche	7	Julio	2023-07-30T00:00:00	2024-11-06T19:00:00	8	Radiación solar	0
40481	7	Sololá	701	Sololá	3	Barraneche	7	Julio	2023-07-30T00:00:00	2024-11-06T20:00:00	2	Temperatura media	14.2
40482	7	Sololá	701	Sololá	3	Barraneche	7	Julio	2023-07-30T00:00:00	2024-11-06T20:00:00	4	Temperatura máxima	15.4
40483	7	Sololá	701	Sololá	3	Barraneche	7	Julio	2023-07-30T00:00:00	2024-11-06T20:00:00	3	Temperatura mínima	14.2
40484	7	Sololá	701	Sololá	3	Barraneche	7	Julio	2023-07-30T00:00:00	2024-11-06T20:00:00	5	Humedad	75
40485	7	Sololá	701	Sololá	3	Barraneche	7	Julio	2023-07-30T00:00:00	2024-11-06T20:00:00	6	Velocidad del viento	3.2
40486	7	Sololá	701	Sololá	3	Barraneche	7	Julio	2023-07-30T00:00:00	2024-11-06T20:00:00	7	Dirección del viento	3.22
40487	7	Sololá	701	Sololá	3	Barraneche	7	Julio	2023-07-30T00:00:00	2024-11-06T20:00:00	1	Precipitación	0
40488	7	Sololá	701	Sololá	3	Barraneche	7	Julio	2023-07-30T00:00:00	2024-11-06T20:00:00	8	Radiación solar	0
40489	7	Sololá	701	Sololá	3	Barraneche	7	Julio	2023-07-30T00:00:00	2024-11-06T21:00:00	2	Temperatura media	14.6
40490	7	Sololá	701	Sololá	3	Barraneche	7	Julio	2023-07-30T00:00:00	2024-11-06T21:00:00	4	Temperatura máxima	14.6
40491	7	Sololá	701	Sololá	3	Barraneche	7	Julio	2023-07-30T00:00:00	2024-11-06T21:00:00	3	Temperatura mínima	14.2
40492	7	Sololá	701	Sololá	3	Barraneche	7	Julio	2023-07-30T00:00:00	2024-11-06T21:00:00	5	Humedad	75
40493	7	Sololá	701	Sololá	3	Barraneche	7	Julio	2023-07-30T00:00:00	2024-11-06T21:00:00	6	Velocidad del viento	1.6
40494	7	Sololá	701	Sololá	3	Barraneche	7	Julio	2023-07-30T00:00:00	2024-11-06T21:00:00	7	Dirección del viento	1.61
40495	7	Sololá	701	Sololá	3	Barraneche	7	Julio	2023-07-30T00:00:00	2024-11-06T21:00:00	1	Precipitación	0.2
40496	7	Sololá	701	Sololá	3	Barraneche	7	Julio	2023-07-30T00:00:00	2024-11-06T21:00:00	8	Radiación solar	0
40497	7	Sololá	701	Sololá	3	Barraneche	7	Julio	2023-07-30T00:00:00	2024-11-06T22:00:00	2	Temperatura media	14.4
40498	7	Sololá	701	Sololá	3	Barraneche	7	Julio	2023-07-30T00:00:00	2024-11-06T22:00:00	4	Temperatura máxima	14.7
40499	7	Sololá	701	Sololá	3	Barraneche	7	Julio	2023-07-30T00:00:00	2024-11-06T22:00:00	3	Temperatura mínima	14.3
40500	7	Sololá	701	Sololá	3	Barraneche	7	Julio	2023-07-30T00:00:00	2024-11-06T22:00:00	5	Humedad	72
40501	7	Sololá	701	Sololá	3	Barraneche	7	Julio	2023-07-30T00:00:00	2024-11-06T22:00:00	6	Velocidad del viento	4.8
40502	7	Sololá	701	Sololá	3	Barraneche	7	Julio	2023-07-30T00:00:00	2024-11-06T22:00:00	7	Dirección del viento	4.83
40503	7	Sololá	701	Sololá	3	Barraneche	7	Julio	2023-07-30T00:00:00	2024-11-06T22:00:00	1	Precipitación	0.2
40504	7	Sololá	701	Sololá	3	Barraneche	7	Julio	2023-07-30T00:00:00	2024-11-06T22:00:00	8	Radiación solar	0
40505	7	Sololá	701	Sololá	3	Barraneche	7	Julio	2023-07-30T00:00:00	2024-11-06T23:00:00	2	Temperatura media	13.9
40506	7	Sololá	701	Sololá	3	Barraneche	7	Julio	2023-07-30T00:00:00	2024-11-06T23:00:00	4	Temperatura máxima	14.4
40507	7	Sololá	701	Sololá	3	Barraneche	7	Julio	2023-07-30T00:00:00	2024-11-06T23:00:00	3	Temperatura mínima	13.8
40508	7	Sololá	701	Sololá	3	Barraneche	7	Julio	2023-07-30T00:00:00	2024-11-06T23:00:00	5	Humedad	78
40509	7	Sololá	701	Sololá	3	Barraneche	7	Julio	2023-07-30T00:00:00	2024-11-06T23:00:00	6	Velocidad del viento	1.6
40510	7	Sololá	701	Sololá	3	Barraneche	7	Julio	2023-07-30T00:00:00	2024-11-06T23:00:00	7	Dirección del viento	1.61
40511	7	Sololá	701	Sololá	3	Barraneche	7	Julio	2023-07-30T00:00:00	2024-11-06T23:00:00	1	Precipitación	0
40512	7	Sololá	701	Sololá	3	Barraneche	7	Julio	2023-07-30T00:00:00	2024-11-06T23:00:00	8	Radiación solar	0
40513	7	Sololá	701	Sololá	3	Barraneche	7	Julio	2023-07-31T00:00:00	2024-11-06T00:00:00	2	Temperatura media	13.7
40514	7	Sololá	701	Sololá	3	Barraneche	7	Julio	2023-07-31T00:00:00	2024-11-06T00:00:00	4	Temperatura máxima	14
40515	7	Sololá	701	Sololá	3	Barraneche	7	Julio	2023-07-31T00:00:00	2024-11-06T00:00:00	3	Temperatura mínima	13.7
40516	7	Sololá	701	Sololá	3	Barraneche	7	Julio	2023-07-31T00:00:00	2024-11-06T00:00:00	5	Humedad	82
40517	7	Sololá	701	Sololá	3	Barraneche	7	Julio	2023-07-31T00:00:00	2024-11-06T00:00:00	6	Velocidad del viento	1.6
40518	7	Sololá	701	Sololá	3	Barraneche	7	Julio	2023-07-31T00:00:00	2024-11-06T00:00:00	7	Dirección del viento	1.61
40519	7	Sololá	701	Sololá	3	Barraneche	7	Julio	2023-07-31T00:00:00	2024-11-06T00:00:00	1	Precipitación	1.2
40520	7	Sololá	701	Sololá	3	Barraneche	7	Julio	2023-07-31T00:00:00	2024-11-06T00:00:00	8	Radiación solar	0
40521	7	Sololá	701	Sololá	3	Barraneche	7	Julio	2023-07-31T00:00:00	2024-11-06T01:00:00	2	Temperatura media	13.7
40522	7	Sololá	701	Sololá	3	Barraneche	7	Julio	2023-07-31T00:00:00	2024-11-06T01:00:00	4	Temperatura máxima	13.8
40523	7	Sololá	701	Sololá	3	Barraneche	7	Julio	2023-07-31T00:00:00	2024-11-06T01:00:00	3	Temperatura mínima	13.2
40524	7	Sololá	701	Sololá	3	Barraneche	7	Julio	2023-07-31T00:00:00	2024-11-06T01:00:00	5	Humedad	74
40525	7	Sololá	701	Sololá	3	Barraneche	7	Julio	2023-07-31T00:00:00	2024-11-06T01:00:00	6	Velocidad del viento	3.2
40526	7	Sololá	701	Sololá	3	Barraneche	7	Julio	2023-07-31T00:00:00	2024-11-06T01:00:00	7	Dirección del viento	3.22
40527	7	Sololá	701	Sololá	3	Barraneche	7	Julio	2023-07-31T00:00:00	2024-11-06T01:00:00	1	Precipitación	0
40528	7	Sololá	701	Sololá	3	Barraneche	7	Julio	2023-07-31T00:00:00	2024-11-06T01:00:00	8	Radiación solar	0
40529	7	Sololá	701	Sololá	3	Barraneche	7	Julio	2023-07-31T00:00:00	2024-11-06T02:00:00	2	Temperatura media	12.8
40530	7	Sololá	701	Sololá	3	Barraneche	7	Julio	2023-07-31T00:00:00	2024-11-06T02:00:00	4	Temperatura máxima	13.6
40531	7	Sololá	701	Sololá	3	Barraneche	7	Julio	2023-07-31T00:00:00	2024-11-06T02:00:00	3	Temperatura mínima	12.8
40532	7	Sololá	701	Sololá	3	Barraneche	7	Julio	2023-07-31T00:00:00	2024-11-06T02:00:00	5	Humedad	76
40533	7	Sololá	701	Sololá	3	Barraneche	7	Julio	2023-07-31T00:00:00	2024-11-06T02:00:00	6	Velocidad del viento	4.8
40534	7	Sololá	701	Sololá	3	Barraneche	7	Julio	2023-07-31T00:00:00	2024-11-06T02:00:00	7	Dirección del viento	4.83
40535	7	Sololá	701	Sololá	3	Barraneche	7	Julio	2023-07-31T00:00:00	2024-11-06T02:00:00	1	Precipitación	2
40536	7	Sololá	701	Sololá	3	Barraneche	7	Julio	2023-07-31T00:00:00	2024-11-06T02:00:00	8	Radiación solar	0
40537	7	Sololá	701	Sololá	3	Barraneche	7	Julio	2023-07-31T00:00:00	2024-11-06T03:00:00	2	Temperatura media	13.1
40538	7	Sololá	701	Sololá	3	Barraneche	7	Julio	2023-07-31T00:00:00	2024-11-06T03:00:00	4	Temperatura máxima	13.1
40539	7	Sololá	701	Sololá	3	Barraneche	7	Julio	2023-07-31T00:00:00	2024-11-06T03:00:00	3	Temperatura mínima	12.7
40540	7	Sololá	701	Sololá	3	Barraneche	7	Julio	2023-07-31T00:00:00	2024-11-06T03:00:00	5	Humedad	71
40541	7	Sololá	701	Sololá	3	Barraneche	7	Julio	2023-07-31T00:00:00	2024-11-06T03:00:00	6	Velocidad del viento	4.8
40542	7	Sololá	701	Sololá	3	Barraneche	7	Julio	2023-07-31T00:00:00	2024-11-06T03:00:00	7	Dirección del viento	4.83
40543	7	Sololá	701	Sololá	3	Barraneche	7	Julio	2023-07-31T00:00:00	2024-11-06T03:00:00	1	Precipitación	1.8
40544	7	Sololá	701	Sololá	3	Barraneche	7	Julio	2023-07-31T00:00:00	2024-11-06T03:00:00	8	Radiación solar	0
40545	7	Sololá	701	Sololá	3	Barraneche	7	Julio	2023-07-31T00:00:00	2024-11-06T04:00:00	2	Temperatura media	13.4
40546	7	Sololá	701	Sololá	3	Barraneche	7	Julio	2023-07-31T00:00:00	2024-11-06T04:00:00	4	Temperatura máxima	14.2
40547	7	Sololá	701	Sololá	3	Barraneche	7	Julio	2023-07-31T00:00:00	2024-11-06T04:00:00	3	Temperatura mínima	12.9
40548	7	Sololá	701	Sololá	3	Barraneche	7	Julio	2023-07-31T00:00:00	2024-11-06T04:00:00	5	Humedad	67
40549	7	Sololá	701	Sololá	3	Barraneche	7	Julio	2023-07-31T00:00:00	2024-11-06T04:00:00	6	Velocidad del viento	9.7
40550	7	Sololá	701	Sololá	3	Barraneche	7	Julio	2023-07-31T00:00:00	2024-11-06T04:00:00	7	Dirección del viento	9.66
40551	7	Sololá	701	Sololá	3	Barraneche	7	Julio	2023-07-31T00:00:00	2024-11-06T04:00:00	1	Precipitación	0.2
40552	7	Sololá	701	Sololá	3	Barraneche	7	Julio	2023-07-31T00:00:00	2024-11-06T04:00:00	8	Radiación solar	0
40553	7	Sololá	701	Sololá	3	Barraneche	7	Julio	2023-07-31T00:00:00	2024-11-06T05:00:00	2	Temperatura media	12.6
40554	7	Sololá	701	Sololá	3	Barraneche	7	Julio	2023-07-31T00:00:00	2024-11-06T05:00:00	4	Temperatura máxima	13.4
40555	7	Sololá	701	Sololá	3	Barraneche	7	Julio	2023-07-31T00:00:00	2024-11-06T05:00:00	3	Temperatura mínima	12.2
40556	7	Sololá	701	Sololá	3	Barraneche	7	Julio	2023-07-31T00:00:00	2024-11-06T05:00:00	5	Humedad	70
40557	7	Sololá	701	Sololá	3	Barraneche	7	Julio	2023-07-31T00:00:00	2024-11-06T05:00:00	6	Velocidad del viento	9.7
40558	7	Sololá	701	Sololá	3	Barraneche	7	Julio	2023-07-31T00:00:00	2024-11-06T05:00:00	7	Dirección del viento	9.66
40559	7	Sololá	701	Sololá	3	Barraneche	7	Julio	2023-07-31T00:00:00	2024-11-06T05:00:00	1	Precipitación	0
40560	7	Sololá	701	Sololá	3	Barraneche	7	Julio	2023-07-31T00:00:00	2024-11-06T05:00:00	8	Radiación solar	0
40561	7	Sololá	701	Sololá	3	Barraneche	7	Julio	2023-07-31T00:00:00	2024-11-06T06:00:00	2	Temperatura media	12.8
40562	7	Sololá	701	Sololá	3	Barraneche	7	Julio	2023-07-31T00:00:00	2024-11-06T06:00:00	4	Temperatura máxima	13.1
40563	7	Sololá	701	Sololá	3	Barraneche	7	Julio	2023-07-31T00:00:00	2024-11-06T06:00:00	3	Temperatura mínima	12.2
40564	7	Sololá	701	Sololá	3	Barraneche	7	Julio	2023-07-31T00:00:00	2024-11-06T06:00:00	5	Humedad	67
40565	7	Sololá	701	Sololá	3	Barraneche	7	Julio	2023-07-31T00:00:00	2024-11-06T06:00:00	6	Velocidad del viento	6.4
40566	7	Sololá	701	Sololá	3	Barraneche	7	Julio	2023-07-31T00:00:00	2024-11-06T06:00:00	7	Dirección del viento	6.44
40567	7	Sololá	701	Sololá	3	Barraneche	7	Julio	2023-07-31T00:00:00	2024-11-06T06:00:00	1	Precipitación	0
40568	7	Sololá	701	Sololá	3	Barraneche	7	Julio	2023-07-31T00:00:00	2024-11-06T06:00:00	8	Radiación solar	2
40569	7	Sololá	701	Sololá	3	Barraneche	7	Julio	2023-07-31T00:00:00	2024-11-06T07:00:00	2	Temperatura media	14.9
40570	7	Sololá	701	Sololá	3	Barraneche	7	Julio	2023-07-31T00:00:00	2024-11-06T07:00:00	4	Temperatura máxima	14.9
40571	7	Sololá	701	Sololá	3	Barraneche	7	Julio	2023-07-31T00:00:00	2024-11-06T07:00:00	3	Temperatura mínima	12.8
40572	7	Sololá	701	Sololá	3	Barraneche	7	Julio	2023-07-31T00:00:00	2024-11-06T07:00:00	5	Humedad	61
40573	7	Sololá	701	Sololá	3	Barraneche	7	Julio	2023-07-31T00:00:00	2024-11-06T07:00:00	6	Velocidad del viento	4.8
40574	7	Sololá	701	Sololá	3	Barraneche	7	Julio	2023-07-31T00:00:00	2024-11-06T07:00:00	7	Dirección del viento	4.83
40575	7	Sololá	701	Sololá	3	Barraneche	7	Julio	2023-07-31T00:00:00	2024-11-06T07:00:00	1	Precipitación	0
40576	7	Sololá	701	Sololá	3	Barraneche	7	Julio	2023-07-31T00:00:00	2024-11-06T07:00:00	8	Radiación solar	79
40577	7	Sololá	701	Sololá	3	Barraneche	7	Julio	2023-07-31T00:00:00	2024-11-06T08:00:00	2	Temperatura media	17.1
40578	7	Sololá	701	Sololá	3	Barraneche	7	Julio	2023-07-31T00:00:00	2024-11-06T08:00:00	4	Temperatura máxima	17.1
40579	7	Sololá	701	Sololá	3	Barraneche	7	Julio	2023-07-31T00:00:00	2024-11-06T08:00:00	3	Temperatura mínima	14.9
40580	7	Sololá	701	Sololá	3	Barraneche	7	Julio	2023-07-31T00:00:00	2024-11-06T08:00:00	5	Humedad	61
40581	7	Sololá	701	Sololá	3	Barraneche	7	Julio	2023-07-31T00:00:00	2024-11-06T08:00:00	6	Velocidad del viento	4.8
40582	7	Sololá	701	Sololá	3	Barraneche	7	Julio	2023-07-31T00:00:00	2024-11-06T08:00:00	7	Dirección del viento	4.83
40583	7	Sololá	701	Sololá	3	Barraneche	7	Julio	2023-07-31T00:00:00	2024-11-06T08:00:00	1	Precipitación	0
40584	7	Sololá	701	Sololá	3	Barraneche	7	Julio	2023-07-31T00:00:00	2024-11-06T08:00:00	8	Radiación solar	282
40585	7	Sololá	701	Sololá	3	Barraneche	7	Julio	2023-07-31T00:00:00	2024-11-06T09:00:00	2	Temperatura media	18.2
40586	7	Sololá	701	Sololá	3	Barraneche	7	Julio	2023-07-31T00:00:00	2024-11-06T09:00:00	4	Temperatura máxima	18.9
40587	7	Sololá	701	Sololá	3	Barraneche	7	Julio	2023-07-31T00:00:00	2024-11-06T09:00:00	3	Temperatura mínima	17.1
40588	7	Sololá	701	Sololá	3	Barraneche	7	Julio	2023-07-31T00:00:00	2024-11-06T09:00:00	5	Humedad	60
40589	7	Sololá	701	Sololá	3	Barraneche	7	Julio	2023-07-31T00:00:00	2024-11-06T09:00:00	6	Velocidad del viento	1.6
40590	7	Sololá	701	Sololá	3	Barraneche	7	Julio	2023-07-31T00:00:00	2024-11-06T09:00:00	7	Dirección del viento	1.61
40591	7	Sololá	701	Sololá	3	Barraneche	7	Julio	2023-07-31T00:00:00	2024-11-06T09:00:00	1	Precipitación	0
40592	7	Sololá	701	Sololá	3	Barraneche	7	Julio	2023-07-31T00:00:00	2024-11-06T09:00:00	8	Radiación solar	416
40593	7	Sololá	701	Sololá	3	Barraneche	7	Julio	2023-07-31T00:00:00	2024-11-06T10:00:00	2	Temperatura media	19.9
40594	7	Sololá	701	Sololá	3	Barraneche	7	Julio	2023-07-31T00:00:00	2024-11-06T10:00:00	4	Temperatura máxima	20
40595	7	Sololá	701	Sololá	3	Barraneche	7	Julio	2023-07-31T00:00:00	2024-11-06T10:00:00	3	Temperatura mínima	17.8
40596	7	Sololá	701	Sololá	3	Barraneche	7	Julio	2023-07-31T00:00:00	2024-11-06T10:00:00	5	Humedad	48
40597	7	Sololá	701	Sololá	3	Barraneche	7	Julio	2023-07-31T00:00:00	2024-11-06T10:00:00	6	Velocidad del viento	6.4
40598	7	Sololá	701	Sololá	3	Barraneche	7	Julio	2023-07-31T00:00:00	2024-11-06T10:00:00	7	Dirección del viento	6.44
40599	7	Sololá	701	Sololá	3	Barraneche	7	Julio	2023-07-31T00:00:00	2024-11-06T10:00:00	1	Precipitación	0
40600	7	Sololá	701	Sololá	3	Barraneche	7	Julio	2023-07-31T00:00:00	2024-11-06T10:00:00	8	Radiación solar	538
40601	7	Sololá	701	Sololá	3	Barraneche	7	Julio	2023-07-31T00:00:00	2024-11-06T11:00:00	2	Temperatura media	19.9
40602	7	Sololá	701	Sololá	3	Barraneche	7	Julio	2023-07-31T00:00:00	2024-11-06T11:00:00	4	Temperatura máxima	20.3
40603	7	Sololá	701	Sololá	3	Barraneche	7	Julio	2023-07-31T00:00:00	2024-11-06T11:00:00	3	Temperatura mínima	19.5
40604	7	Sololá	701	Sololá	3	Barraneche	7	Julio	2023-07-31T00:00:00	2024-11-06T11:00:00	5	Humedad	52
40605	7	Sololá	701	Sololá	3	Barraneche	7	Julio	2023-07-31T00:00:00	2024-11-06T11:00:00	6	Velocidad del viento	12.9
40606	7	Sololá	701	Sololá	3	Barraneche	7	Julio	2023-07-31T00:00:00	2024-11-06T11:00:00	7	Dirección del viento	12.87
40607	7	Sololá	701	Sololá	3	Barraneche	7	Julio	2023-07-31T00:00:00	2024-11-06T11:00:00	1	Precipitación	0
40608	7	Sololá	701	Sololá	3	Barraneche	7	Julio	2023-07-31T00:00:00	2024-11-06T11:00:00	8	Radiación solar	554
40609	7	Sololá	701	Sololá	3	Barraneche	7	Julio	2023-07-31T00:00:00	2024-11-06T12:00:00	2	Temperatura media	19.7
40610	7	Sololá	701	Sololá	3	Barraneche	7	Julio	2023-07-31T00:00:00	2024-11-06T12:00:00	4	Temperatura máxima	20.4
40611	7	Sololá	701	Sololá	3	Barraneche	7	Julio	2023-07-31T00:00:00	2024-11-06T12:00:00	3	Temperatura mínima	19.3
40612	7	Sololá	701	Sololá	3	Barraneche	7	Julio	2023-07-31T00:00:00	2024-11-06T12:00:00	5	Humedad	54
40613	7	Sololá	701	Sololá	3	Barraneche	7	Julio	2023-07-31T00:00:00	2024-11-06T12:00:00	6	Velocidad del viento	12.9
40614	7	Sololá	701	Sololá	3	Barraneche	7	Julio	2023-07-31T00:00:00	2024-11-06T12:00:00	7	Dirección del viento	12.87
40615	7	Sololá	701	Sololá	3	Barraneche	7	Julio	2023-07-31T00:00:00	2024-11-06T12:00:00	1	Precipitación	0
40616	7	Sololá	701	Sololá	3	Barraneche	7	Julio	2023-07-31T00:00:00	2024-11-06T12:00:00	8	Radiación solar	630
40617	7	Sololá	701	Sololá	3	Barraneche	7	Julio	2023-07-31T00:00:00	2024-11-06T13:00:00	2	Temperatura media	20.8
40618	7	Sololá	701	Sololá	3	Barraneche	7	Julio	2023-07-31T00:00:00	2024-11-06T13:00:00	4	Temperatura máxima	21.2
40619	7	Sololá	701	Sololá	3	Barraneche	7	Julio	2023-07-31T00:00:00	2024-11-06T13:00:00	3	Temperatura mínima	19.7
40620	7	Sololá	701	Sololá	3	Barraneche	7	Julio	2023-07-31T00:00:00	2024-11-06T13:00:00	5	Humedad	50
40621	7	Sololá	701	Sololá	3	Barraneche	7	Julio	2023-07-31T00:00:00	2024-11-06T13:00:00	6	Velocidad del viento	12.9
40622	7	Sololá	701	Sololá	3	Barraneche	7	Julio	2023-07-31T00:00:00	2024-11-06T13:00:00	7	Dirección del viento	12.87
40623	7	Sololá	701	Sololá	3	Barraneche	7	Julio	2023-07-31T00:00:00	2024-11-06T13:00:00	1	Precipitación	0
40624	7	Sololá	701	Sololá	3	Barraneche	7	Julio	2023-07-31T00:00:00	2024-11-06T13:00:00	8	Radiación solar	1014
40625	7	Sololá	701	Sololá	3	Barraneche	7	Julio	2023-07-31T00:00:00	2024-11-06T14:00:00	2	Temperatura media	20.4
40626	7	Sololá	701	Sololá	3	Barraneche	7	Julio	2023-07-31T00:00:00	2024-11-06T14:00:00	4	Temperatura máxima	21.2
40627	7	Sololá	701	Sololá	3	Barraneche	7	Julio	2023-07-31T00:00:00	2024-11-06T14:00:00	3	Temperatura mínima	20.4
40628	7	Sololá	701	Sololá	3	Barraneche	7	Julio	2023-07-31T00:00:00	2024-11-06T14:00:00	5	Humedad	50
40629	7	Sololá	701	Sololá	3	Barraneche	7	Julio	2023-07-31T00:00:00	2024-11-06T14:00:00	6	Velocidad del viento	14.5
40630	7	Sololá	701	Sololá	3	Barraneche	7	Julio	2023-07-31T00:00:00	2024-11-06T14:00:00	7	Dirección del viento	14.48
40631	7	Sololá	701	Sololá	3	Barraneche	7	Julio	2023-07-31T00:00:00	2024-11-06T14:00:00	1	Precipitación	0
40632	7	Sololá	701	Sololá	3	Barraneche	7	Julio	2023-07-31T00:00:00	2024-11-06T14:00:00	8	Radiación solar	975
40633	7	Sololá	701	Sololá	3	Barraneche	7	Julio	2023-07-31T00:00:00	2024-11-06T15:00:00	2	Temperatura media	20.8
40634	7	Sololá	701	Sololá	3	Barraneche	7	Julio	2023-07-31T00:00:00	2024-11-06T15:00:00	4	Temperatura máxima	21.3
40635	7	Sololá	701	Sololá	3	Barraneche	7	Julio	2023-07-31T00:00:00	2024-11-06T15:00:00	3	Temperatura mínima	20.3
40636	7	Sololá	701	Sololá	3	Barraneche	7	Julio	2023-07-31T00:00:00	2024-11-06T15:00:00	5	Humedad	49
40637	7	Sololá	701	Sololá	3	Barraneche	7	Julio	2023-07-31T00:00:00	2024-11-06T15:00:00	6	Velocidad del viento	11.3
40638	7	Sololá	701	Sololá	3	Barraneche	7	Julio	2023-07-31T00:00:00	2024-11-06T15:00:00	7	Dirección del viento	11.27
40639	7	Sololá	701	Sololá	3	Barraneche	7	Julio	2023-07-31T00:00:00	2024-11-06T15:00:00	1	Precipitación	0
40640	7	Sololá	701	Sololá	3	Barraneche	7	Julio	2023-07-31T00:00:00	2024-11-06T15:00:00	8	Radiación solar	778
40641	7	Sololá	701	Sololá	3	Barraneche	7	Julio	2023-07-31T00:00:00	2024-11-06T16:00:00	2	Temperatura media	20.3
40642	7	Sololá	701	Sololá	3	Barraneche	7	Julio	2023-07-31T00:00:00	2024-11-06T16:00:00	4	Temperatura máxima	21.2
40643	7	Sololá	701	Sololá	3	Barraneche	7	Julio	2023-07-31T00:00:00	2024-11-06T16:00:00	3	Temperatura mínima	20.2
40644	7	Sololá	701	Sololá	3	Barraneche	7	Julio	2023-07-31T00:00:00	2024-11-06T16:00:00	5	Humedad	52
40645	7	Sololá	701	Sololá	3	Barraneche	7	Julio	2023-07-31T00:00:00	2024-11-06T16:00:00	6	Velocidad del viento	14.5
40646	7	Sololá	701	Sololá	3	Barraneche	7	Julio	2023-07-31T00:00:00	2024-11-06T16:00:00	7	Dirección del viento	14.48
40647	7	Sololá	701	Sololá	3	Barraneche	7	Julio	2023-07-31T00:00:00	2024-11-06T16:00:00	1	Precipitación	0
40648	7	Sololá	701	Sololá	3	Barraneche	7	Julio	2023-07-31T00:00:00	2024-11-06T16:00:00	8	Radiación solar	638
40649	7	Sololá	701	Sololá	3	Barraneche	7	Julio	2023-07-31T00:00:00	2024-11-06T17:00:00	2	Temperatura media	19.6
40650	7	Sololá	701	Sololá	3	Barraneche	7	Julio	2023-07-31T00:00:00	2024-11-06T17:00:00	4	Temperatura máxima	20.3
40651	7	Sololá	701	Sololá	3	Barraneche	7	Julio	2023-07-31T00:00:00	2024-11-06T17:00:00	3	Temperatura mínima	19.5
40652	7	Sololá	701	Sololá	3	Barraneche	7	Julio	2023-07-31T00:00:00	2024-11-06T17:00:00	5	Humedad	54
40653	7	Sololá	701	Sololá	3	Barraneche	7	Julio	2023-07-31T00:00:00	2024-11-06T17:00:00	6	Velocidad del viento	11.3
40654	7	Sololá	701	Sololá	3	Barraneche	7	Julio	2023-07-31T00:00:00	2024-11-06T17:00:00	7	Dirección del viento	11.27
40655	7	Sololá	701	Sololá	3	Barraneche	7	Julio	2023-07-31T00:00:00	2024-11-06T17:00:00	1	Precipitación	0
40656	7	Sololá	701	Sololá	3	Barraneche	7	Julio	2023-07-31T00:00:00	2024-11-06T17:00:00	8	Radiación solar	400
40657	7	Sololá	701	Sololá	3	Barraneche	7	Julio	2023-07-31T00:00:00	2024-11-06T18:00:00	2	Temperatura media	16.7
40658	7	Sololá	701	Sololá	3	Barraneche	7	Julio	2023-07-31T00:00:00	2024-11-06T18:00:00	4	Temperatura máxima	19.7
40659	7	Sololá	701	Sololá	3	Barraneche	7	Julio	2023-07-31T00:00:00	2024-11-06T18:00:00	3	Temperatura mínima	16.7
40660	7	Sololá	701	Sololá	3	Barraneche	7	Julio	2023-07-31T00:00:00	2024-11-06T18:00:00	5	Humedad	74
40661	7	Sololá	701	Sololá	3	Barraneche	7	Julio	2023-07-31T00:00:00	2024-11-06T18:00:00	6	Velocidad del viento	11.3
40662	7	Sololá	701	Sololá	3	Barraneche	7	Julio	2023-07-31T00:00:00	2024-11-06T18:00:00	7	Dirección del viento	11.27
40663	7	Sololá	701	Sololá	3	Barraneche	7	Julio	2023-07-31T00:00:00	2024-11-06T18:00:00	1	Precipitación	0.2
40664	7	Sololá	701	Sololá	3	Barraneche	7	Julio	2023-07-31T00:00:00	2024-11-06T18:00:00	8	Radiación solar	173
40665	7	Sololá	701	Sololá	3	Barraneche	7	Julio	2023-07-31T00:00:00	2024-11-06T19:00:00	2	Temperatura media	14.9
40666	7	Sololá	701	Sololá	3	Barraneche	7	Julio	2023-07-31T00:00:00	2024-11-06T19:00:00	4	Temperatura máxima	16.7
40667	7	Sololá	701	Sololá	3	Barraneche	7	Julio	2023-07-31T00:00:00	2024-11-06T19:00:00	3	Temperatura mínima	14.9
40668	7	Sololá	701	Sololá	3	Barraneche	7	Julio	2023-07-31T00:00:00	2024-11-06T19:00:00	5	Humedad	74
40669	7	Sololá	701	Sololá	3	Barraneche	7	Julio	2023-07-31T00:00:00	2024-11-06T19:00:00	6	Velocidad del viento	4.8
40670	7	Sololá	701	Sololá	3	Barraneche	7	Julio	2023-07-31T00:00:00	2024-11-06T19:00:00	7	Dirección del viento	4.83
40671	7	Sololá	701	Sololá	3	Barraneche	7	Julio	2023-07-31T00:00:00	2024-11-06T19:00:00	1	Precipitación	0.8
40672	7	Sololá	701	Sololá	3	Barraneche	7	Julio	2023-07-31T00:00:00	2024-11-06T19:00:00	8	Radiación solar	0
40673	7	Sololá	701	Sololá	3	Barraneche	7	Julio	2023-07-31T00:00:00	2024-11-06T20:00:00	2	Temperatura media	15.3
40674	7	Sololá	701	Sololá	3	Barraneche	7	Julio	2023-07-31T00:00:00	2024-11-06T20:00:00	4	Temperatura máxima	15.5
40675	7	Sololá	701	Sololá	3	Barraneche	7	Julio	2023-07-31T00:00:00	2024-11-06T20:00:00	3	Temperatura mínima	14.6
40676	7	Sololá	701	Sololá	3	Barraneche	7	Julio	2023-07-31T00:00:00	2024-11-06T20:00:00	5	Humedad	69
40677	7	Sololá	701	Sololá	3	Barraneche	7	Julio	2023-07-31T00:00:00	2024-11-06T20:00:00	6	Velocidad del viento	6.4
40678	7	Sololá	701	Sololá	3	Barraneche	7	Julio	2023-07-31T00:00:00	2024-11-06T20:00:00	7	Dirección del viento	6.44
40679	7	Sololá	701	Sololá	3	Barraneche	7	Julio	2023-07-31T00:00:00	2024-11-06T20:00:00	1	Precipitación	1.4
40680	7	Sololá	701	Sololá	3	Barraneche	7	Julio	2023-07-31T00:00:00	2024-11-06T20:00:00	8	Radiación solar	0
40681	7	Sololá	701	Sololá	3	Barraneche	7	Julio	2023-07-31T00:00:00	2024-11-06T21:00:00	2	Temperatura media	15.4
40682	7	Sololá	701	Sololá	3	Barraneche	7	Julio	2023-07-31T00:00:00	2024-11-06T21:00:00	4	Temperatura máxima	15.7
40683	7	Sololá	701	Sololá	3	Barraneche	7	Julio	2023-07-31T00:00:00	2024-11-06T21:00:00	3	Temperatura mínima	15.3
40684	7	Sololá	701	Sololá	3	Barraneche	7	Julio	2023-07-31T00:00:00	2024-11-06T21:00:00	5	Humedad	67
40685	7	Sololá	701	Sololá	3	Barraneche	7	Julio	2023-07-31T00:00:00	2024-11-06T21:00:00	6	Velocidad del viento	8
40686	7	Sololá	701	Sololá	3	Barraneche	7	Julio	2023-07-31T00:00:00	2024-11-06T21:00:00	7	Dirección del viento	8.05
40687	7	Sololá	701	Sololá	3	Barraneche	7	Julio	2023-07-31T00:00:00	2024-11-06T21:00:00	1	Precipitación	0
40688	7	Sololá	701	Sololá	3	Barraneche	7	Julio	2023-07-31T00:00:00	2024-11-06T21:00:00	8	Radiación solar	0
40689	7	Sololá	701	Sololá	3	Barraneche	7	Julio	2023-07-31T00:00:00	2024-11-06T22:00:00	2	Temperatura media	15.1
40690	7	Sololá	701	Sololá	3	Barraneche	7	Julio	2023-07-31T00:00:00	2024-11-06T22:00:00	4	Temperatura máxima	15.5
40691	7	Sololá	701	Sololá	3	Barraneche	7	Julio	2023-07-31T00:00:00	2024-11-06T22:00:00	3	Temperatura mínima	15.1
40692	7	Sololá	701	Sololá	3	Barraneche	7	Julio	2023-07-31T00:00:00	2024-11-06T22:00:00	5	Humedad	66
40693	7	Sololá	701	Sololá	3	Barraneche	7	Julio	2023-07-31T00:00:00	2024-11-06T22:00:00	6	Velocidad del viento	6.4
40694	7	Sololá	701	Sololá	3	Barraneche	7	Julio	2023-07-31T00:00:00	2024-11-06T22:00:00	7	Dirección del viento	6.44
40695	7	Sololá	701	Sololá	3	Barraneche	7	Julio	2023-07-31T00:00:00	2024-11-06T22:00:00	1	Precipitación	0
40696	7	Sololá	701	Sololá	3	Barraneche	7	Julio	2023-07-31T00:00:00	2024-11-06T22:00:00	8	Radiación solar	0
40697	7	Sololá	701	Sololá	3	Barraneche	7	Julio	2023-07-31T00:00:00	2024-11-06T23:00:00	2	Temperatura media	14.2
40698	7	Sololá	701	Sololá	3	Barraneche	7	Julio	2023-07-31T00:00:00	2024-11-06T23:00:00	4	Temperatura máxima	15.1
40699	7	Sololá	701	Sololá	3	Barraneche	7	Julio	2023-07-31T00:00:00	2024-11-06T23:00:00	3	Temperatura mínima	13.9
40700	7	Sololá	701	Sololá	3	Barraneche	7	Julio	2023-07-31T00:00:00	2024-11-06T23:00:00	5	Humedad	69
40701	7	Sololá	701	Sololá	3	Barraneche	7	Julio	2023-07-31T00:00:00	2024-11-06T23:00:00	6	Velocidad del viento	6.4
40702	7	Sololá	701	Sololá	3	Barraneche	7	Julio	2023-07-31T00:00:00	2024-11-06T23:00:00	7	Dirección del viento	6.44
40703	7	Sololá	701	Sololá	3	Barraneche	7	Julio	2023-07-31T00:00:00	2024-11-06T23:00:00	1	Precipitación	0
40704	7	Sololá	701	Sololá	3	Barraneche	7	Julio	2023-07-31T00:00:00	2024-11-06T23:00:00	8	Radiación solar	0
40705	7	Sololá	701	Sololá	3	Barraneche	8	Agosto	2023-01-08T00:00:00	2024-11-06T00:00:00	2	Temperatura media	14.1
40706	7	Sololá	701	Sololá	3	Barraneche	8	Agosto	2023-01-08T00:00:00	2024-11-06T00:00:00	4	Temperatura máxima	14.6
40707	7	Sololá	701	Sololá	3	Barraneche	8	Agosto	2023-01-08T00:00:00	2024-11-06T00:00:00	3	Temperatura mínima	13.8
40708	7	Sololá	701	Sololá	3	Barraneche	8	Agosto	2023-01-08T00:00:00	2024-11-06T00:00:00	5	Humedad	70
40709	7	Sololá	701	Sololá	3	Barraneche	8	Agosto	2023-01-08T00:00:00	2024-11-06T00:00:00	6	Velocidad del viento	4.8
40710	7	Sololá	701	Sololá	3	Barraneche	8	Agosto	2023-01-08T00:00:00	2024-11-06T00:00:00	7	Dirección del viento	4.83
40711	7	Sololá	701	Sololá	3	Barraneche	8	Agosto	2023-01-08T00:00:00	2024-11-06T00:00:00	1	Precipitación	0
40712	7	Sololá	701	Sololá	3	Barraneche	8	Agosto	2023-01-08T00:00:00	2024-11-06T00:00:00	8	Radiación solar	0
40713	7	Sololá	701	Sololá	3	Barraneche	8	Agosto	2023-01-08T00:00:00	2024-11-06T01:00:00	2	Temperatura media	14.1
40714	7	Sololá	701	Sololá	3	Barraneche	8	Agosto	2023-01-08T00:00:00	2024-11-06T01:00:00	4	Temperatura máxima	14.1
40715	7	Sololá	701	Sololá	3	Barraneche	8	Agosto	2023-01-08T00:00:00	2024-11-06T01:00:00	3	Temperatura mínima	13.7
40716	7	Sololá	701	Sololá	3	Barraneche	8	Agosto	2023-01-08T00:00:00	2024-11-06T01:00:00	5	Humedad	72
40717	7	Sololá	701	Sololá	3	Barraneche	8	Agosto	2023-01-08T00:00:00	2024-11-06T01:00:00	6	Velocidad del viento	3.2
40718	7	Sololá	701	Sololá	3	Barraneche	8	Agosto	2023-01-08T00:00:00	2024-11-06T01:00:00	7	Dirección del viento	3.22
40719	7	Sololá	701	Sololá	3	Barraneche	8	Agosto	2023-01-08T00:00:00	2024-11-06T01:00:00	1	Precipitación	0
40720	7	Sololá	701	Sololá	3	Barraneche	8	Agosto	2023-01-08T00:00:00	2024-11-06T01:00:00	8	Radiación solar	0
40721	7	Sololá	701	Sololá	3	Barraneche	8	Agosto	2023-01-08T00:00:00	2024-11-06T02:00:00	2	Temperatura media	14.6
40722	7	Sololá	701	Sololá	3	Barraneche	8	Agosto	2023-01-08T00:00:00	2024-11-06T02:00:00	4	Temperatura máxima	14.7
40723	7	Sololá	701	Sololá	3	Barraneche	8	Agosto	2023-01-08T00:00:00	2024-11-06T02:00:00	3	Temperatura mínima	14.1
40724	7	Sololá	701	Sololá	3	Barraneche	8	Agosto	2023-01-08T00:00:00	2024-11-06T02:00:00	5	Humedad	69
40725	7	Sololá	701	Sololá	3	Barraneche	8	Agosto	2023-01-08T00:00:00	2024-11-06T02:00:00	6	Velocidad del viento	11.3
40726	7	Sololá	701	Sololá	3	Barraneche	8	Agosto	2023-01-08T00:00:00	2024-11-06T02:00:00	7	Dirección del viento	11.27
40727	7	Sololá	701	Sololá	3	Barraneche	8	Agosto	2023-01-08T00:00:00	2024-11-06T02:00:00	1	Precipitación	0
40728	7	Sololá	701	Sololá	3	Barraneche	8	Agosto	2023-01-08T00:00:00	2024-11-06T02:00:00	8	Radiación solar	0
40729	7	Sololá	701	Sololá	3	Barraneche	8	Agosto	2023-01-08T00:00:00	2024-11-06T03:00:00	2	Temperatura media	14.1
40730	7	Sololá	701	Sololá	3	Barraneche	8	Agosto	2023-01-08T00:00:00	2024-11-06T03:00:00	4	Temperatura máxima	14.7
40731	7	Sololá	701	Sololá	3	Barraneche	8	Agosto	2023-01-08T00:00:00	2024-11-06T03:00:00	3	Temperatura mínima	14.1
40732	7	Sololá	701	Sololá	3	Barraneche	8	Agosto	2023-01-08T00:00:00	2024-11-06T03:00:00	5	Humedad	71
40733	7	Sololá	701	Sololá	3	Barraneche	8	Agosto	2023-01-08T00:00:00	2024-11-06T03:00:00	6	Velocidad del viento	8
40734	7	Sololá	701	Sololá	3	Barraneche	8	Agosto	2023-01-08T00:00:00	2024-11-06T03:00:00	7	Dirección del viento	8.05
40735	7	Sololá	701	Sololá	3	Barraneche	8	Agosto	2023-01-08T00:00:00	2024-11-06T03:00:00	1	Precipitación	0
40736	7	Sololá	701	Sololá	3	Barraneche	8	Agosto	2023-01-08T00:00:00	2024-11-06T03:00:00	8	Radiación solar	0
40737	7	Sololá	701	Sololá	3	Barraneche	8	Agosto	2023-01-08T00:00:00	2024-11-06T04:00:00	2	Temperatura media	13.3
40738	7	Sololá	701	Sololá	3	Barraneche	8	Agosto	2023-01-08T00:00:00	2024-11-06T04:00:00	4	Temperatura máxima	14.1
40739	7	Sololá	701	Sololá	3	Barraneche	8	Agosto	2023-01-08T00:00:00	2024-11-06T04:00:00	3	Temperatura mínima	13.3
40740	7	Sololá	701	Sololá	3	Barraneche	8	Agosto	2023-01-08T00:00:00	2024-11-06T04:00:00	5	Humedad	74
40741	7	Sololá	701	Sololá	3	Barraneche	8	Agosto	2023-01-08T00:00:00	2024-11-06T04:00:00	6	Velocidad del viento	3.2
40742	7	Sololá	701	Sololá	3	Barraneche	8	Agosto	2023-01-08T00:00:00	2024-11-06T04:00:00	7	Dirección del viento	3.22
40743	7	Sololá	701	Sololá	3	Barraneche	8	Agosto	2023-01-08T00:00:00	2024-11-06T04:00:00	1	Precipitación	0
40744	7	Sololá	701	Sololá	3	Barraneche	8	Agosto	2023-01-08T00:00:00	2024-11-06T04:00:00	8	Radiación solar	0
40745	7	Sololá	701	Sololá	3	Barraneche	8	Agosto	2023-01-08T00:00:00	2024-11-06T05:00:00	2	Temperatura media	13
40746	7	Sololá	701	Sololá	3	Barraneche	8	Agosto	2023-01-08T00:00:00	2024-11-06T05:00:00	4	Temperatura máxima	13.3
40747	7	Sololá	701	Sololá	3	Barraneche	8	Agosto	2023-01-08T00:00:00	2024-11-06T05:00:00	3	Temperatura mínima	12.4
40748	7	Sololá	701	Sololá	3	Barraneche	8	Agosto	2023-01-08T00:00:00	2024-11-06T05:00:00	5	Humedad	71
40749	7	Sololá	701	Sololá	3	Barraneche	8	Agosto	2023-01-08T00:00:00	2024-11-06T05:00:00	6	Velocidad del viento	3.2
40750	7	Sololá	701	Sololá	3	Barraneche	8	Agosto	2023-01-08T00:00:00	2024-11-06T05:00:00	7	Dirección del viento	3.22
40751	7	Sololá	701	Sololá	3	Barraneche	8	Agosto	2023-01-08T00:00:00	2024-11-06T05:00:00	1	Precipitación	0
40752	7	Sololá	701	Sololá	3	Barraneche	8	Agosto	2023-01-08T00:00:00	2024-11-06T05:00:00	8	Radiación solar	0
40753	7	Sololá	701	Sololá	3	Barraneche	8	Agosto	2023-01-08T00:00:00	2024-11-06T06:00:00	2	Temperatura media	13.5
40754	7	Sololá	701	Sololá	3	Barraneche	8	Agosto	2023-01-08T00:00:00	2024-11-06T06:00:00	4	Temperatura máxima	13.9
40755	7	Sololá	701	Sololá	3	Barraneche	8	Agosto	2023-01-08T00:00:00	2024-11-06T06:00:00	3	Temperatura mínima	12.8
40756	7	Sololá	701	Sololá	3	Barraneche	8	Agosto	2023-01-08T00:00:00	2024-11-06T06:00:00	5	Humedad	67
40757	7	Sololá	701	Sololá	3	Barraneche	8	Agosto	2023-01-08T00:00:00	2024-11-06T06:00:00	6	Velocidad del viento	4.8
40758	7	Sololá	701	Sololá	3	Barraneche	8	Agosto	2023-01-08T00:00:00	2024-11-06T06:00:00	7	Dirección del viento	4.83
40759	7	Sololá	701	Sololá	3	Barraneche	8	Agosto	2023-01-08T00:00:00	2024-11-06T06:00:00	1	Precipitación	0
40760	7	Sololá	701	Sololá	3	Barraneche	8	Agosto	2023-01-08T00:00:00	2024-11-06T06:00:00	8	Radiación solar	2
40761	7	Sololá	701	Sololá	3	Barraneche	8	Agosto	2023-01-08T00:00:00	2024-11-06T07:00:00	2	Temperatura media	13.8
40762	7	Sololá	701	Sololá	3	Barraneche	8	Agosto	2023-01-08T00:00:00	2024-11-06T07:00:00	4	Temperatura máxima	13.9
40763	7	Sololá	701	Sololá	3	Barraneche	8	Agosto	2023-01-08T00:00:00	2024-11-06T07:00:00	3	Temperatura mínima	12.8
40764	7	Sololá	701	Sololá	3	Barraneche	8	Agosto	2023-01-08T00:00:00	2024-11-06T07:00:00	5	Humedad	68
40765	7	Sololá	701	Sololá	3	Barraneche	8	Agosto	2023-01-08T00:00:00	2024-11-06T07:00:00	6	Velocidad del viento	4.8
40766	7	Sololá	701	Sololá	3	Barraneche	8	Agosto	2023-01-08T00:00:00	2024-11-06T07:00:00	7	Dirección del viento	4.83
40767	7	Sololá	701	Sololá	3	Barraneche	8	Agosto	2023-01-08T00:00:00	2024-11-06T07:00:00	1	Precipitación	0
40768	7	Sololá	701	Sololá	3	Barraneche	8	Agosto	2023-01-08T00:00:00	2024-11-06T07:00:00	8	Radiación solar	40
40769	7	Sololá	701	Sololá	3	Barraneche	8	Agosto	2023-01-08T00:00:00	2024-11-06T08:00:00	2	Temperatura media	16.1
40770	7	Sololá	701	Sololá	3	Barraneche	8	Agosto	2023-01-08T00:00:00	2024-11-06T08:00:00	4	Temperatura máxima	16.1
40771	7	Sololá	701	Sololá	3	Barraneche	8	Agosto	2023-01-08T00:00:00	2024-11-06T08:00:00	3	Temperatura mínima	13.7
40772	7	Sololá	701	Sololá	3	Barraneche	8	Agosto	2023-01-08T00:00:00	2024-11-06T08:00:00	5	Humedad	64
40773	7	Sololá	701	Sololá	3	Barraneche	8	Agosto	2023-01-08T00:00:00	2024-11-06T08:00:00	6	Velocidad del viento	3.2
40774	7	Sololá	701	Sololá	3	Barraneche	8	Agosto	2023-01-08T00:00:00	2024-11-06T08:00:00	7	Dirección del viento	3.22
40775	7	Sololá	701	Sololá	3	Barraneche	8	Agosto	2023-01-08T00:00:00	2024-11-06T08:00:00	1	Precipitación	0
40776	7	Sololá	701	Sololá	3	Barraneche	8	Agosto	2023-01-08T00:00:00	2024-11-06T08:00:00	8	Radiación solar	372
40777	7	Sololá	701	Sololá	3	Barraneche	8	Agosto	2023-01-08T00:00:00	2024-11-06T09:00:00	2	Temperatura media	16.9
40778	7	Sololá	701	Sololá	3	Barraneche	8	Agosto	2023-01-08T00:00:00	2024-11-06T09:00:00	4	Temperatura máxima	16.9
40779	7	Sololá	701	Sololá	3	Barraneche	8	Agosto	2023-01-08T00:00:00	2024-11-06T09:00:00	3	Temperatura mínima	15.9
40780	7	Sololá	701	Sololá	3	Barraneche	8	Agosto	2023-01-08T00:00:00	2024-11-06T09:00:00	5	Humedad	63
40781	7	Sololá	701	Sololá	3	Barraneche	8	Agosto	2023-01-08T00:00:00	2024-11-06T09:00:00	6	Velocidad del viento	4.8
40782	7	Sololá	701	Sololá	3	Barraneche	8	Agosto	2023-01-08T00:00:00	2024-11-06T09:00:00	7	Dirección del viento	4.83
40783	7	Sololá	701	Sololá	3	Barraneche	8	Agosto	2023-01-08T00:00:00	2024-11-06T09:00:00	1	Precipitación	0
40784	7	Sololá	701	Sololá	3	Barraneche	8	Agosto	2023-01-08T00:00:00	2024-11-06T09:00:00	8	Radiación solar	381
40785	7	Sololá	701	Sololá	3	Barraneche	8	Agosto	2023-01-08T00:00:00	2024-11-06T10:00:00	2	Temperatura media	18.4
40786	7	Sololá	701	Sololá	3	Barraneche	8	Agosto	2023-01-08T00:00:00	2024-11-06T10:00:00	4	Temperatura máxima	19.2
40787	7	Sololá	701	Sololá	3	Barraneche	8	Agosto	2023-01-08T00:00:00	2024-11-06T10:00:00	3	Temperatura mínima	16.9
40788	7	Sololá	701	Sololá	3	Barraneche	8	Agosto	2023-01-08T00:00:00	2024-11-06T10:00:00	5	Humedad	56
40789	7	Sololá	701	Sololá	3	Barraneche	8	Agosto	2023-01-08T00:00:00	2024-11-06T10:00:00	6	Velocidad del viento	9.7
40790	7	Sololá	701	Sololá	3	Barraneche	8	Agosto	2023-01-08T00:00:00	2024-11-06T10:00:00	7	Dirección del viento	9.66
40791	7	Sololá	701	Sololá	3	Barraneche	8	Agosto	2023-01-08T00:00:00	2024-11-06T10:00:00	1	Precipitación	0
40792	7	Sololá	701	Sololá	3	Barraneche	8	Agosto	2023-01-08T00:00:00	2024-11-06T10:00:00	8	Radiación solar	778
40793	7	Sololá	701	Sololá	3	Barraneche	8	Agosto	2023-01-08T00:00:00	2024-11-06T11:00:00	2	Temperatura media	19.3
40794	7	Sololá	701	Sololá	3	Barraneche	8	Agosto	2023-01-08T00:00:00	2024-11-06T11:00:00	4	Temperatura máxima	19.3
40795	7	Sololá	701	Sololá	3	Barraneche	8	Agosto	2023-01-08T00:00:00	2024-11-06T11:00:00	3	Temperatura mínima	18.2
40796	7	Sololá	701	Sololá	3	Barraneche	8	Agosto	2023-01-08T00:00:00	2024-11-06T11:00:00	5	Humedad	54
40797	7	Sololá	701	Sololá	3	Barraneche	8	Agosto	2023-01-08T00:00:00	2024-11-06T11:00:00	6	Velocidad del viento	12.9
40798	7	Sololá	701	Sololá	3	Barraneche	8	Agosto	2023-01-08T00:00:00	2024-11-06T11:00:00	7	Dirección del viento	12.87
40799	7	Sololá	701	Sololá	3	Barraneche	8	Agosto	2023-01-08T00:00:00	2024-11-06T11:00:00	1	Precipitación	0
40800	7	Sololá	701	Sololá	3	Barraneche	8	Agosto	2023-01-08T00:00:00	2024-11-06T11:00:00	8	Radiación solar	930
40801	7	Sololá	701	Sololá	3	Barraneche	8	Agosto	2023-01-08T00:00:00	2024-11-06T12:00:00	2	Temperatura media	19.8
40802	7	Sololá	701	Sololá	3	Barraneche	8	Agosto	2023-01-08T00:00:00	2024-11-06T12:00:00	4	Temperatura máxima	19.8
40803	7	Sololá	701	Sololá	3	Barraneche	8	Agosto	2023-01-08T00:00:00	2024-11-06T12:00:00	3	Temperatura mínima	19.1
40804	7	Sololá	701	Sololá	3	Barraneche	8	Agosto	2023-01-08T00:00:00	2024-11-06T12:00:00	5	Humedad	56
40805	7	Sololá	701	Sololá	3	Barraneche	8	Agosto	2023-01-08T00:00:00	2024-11-06T12:00:00	6	Velocidad del viento	12.9
40806	7	Sololá	701	Sololá	3	Barraneche	8	Agosto	2023-01-08T00:00:00	2024-11-06T12:00:00	7	Dirección del viento	12.87
40807	7	Sololá	701	Sololá	3	Barraneche	8	Agosto	2023-01-08T00:00:00	2024-11-06T12:00:00	1	Precipitación	0
40808	7	Sololá	701	Sololá	3	Barraneche	8	Agosto	2023-01-08T00:00:00	2024-11-06T12:00:00	8	Radiación solar	805
40809	7	Sololá	701	Sololá	3	Barraneche	8	Agosto	2023-01-08T00:00:00	2024-11-06T13:00:00	2	Temperatura media	20.9
40810	7	Sololá	701	Sololá	3	Barraneche	8	Agosto	2023-01-08T00:00:00	2024-11-06T13:00:00	4	Temperatura máxima	20.9
40811	7	Sololá	701	Sololá	3	Barraneche	8	Agosto	2023-01-08T00:00:00	2024-11-06T13:00:00	3	Temperatura mínima	19.4
40812	7	Sololá	701	Sololá	3	Barraneche	8	Agosto	2023-01-08T00:00:00	2024-11-06T13:00:00	5	Humedad	50
40813	7	Sololá	701	Sololá	3	Barraneche	8	Agosto	2023-01-08T00:00:00	2024-11-06T13:00:00	6	Velocidad del viento	9.7
40814	7	Sololá	701	Sololá	3	Barraneche	8	Agosto	2023-01-08T00:00:00	2024-11-06T13:00:00	7	Dirección del viento	9.66
40815	7	Sololá	701	Sololá	3	Barraneche	8	Agosto	2023-01-08T00:00:00	2024-11-06T13:00:00	1	Precipitación	0
40816	7	Sololá	701	Sololá	3	Barraneche	8	Agosto	2023-01-08T00:00:00	2024-11-06T13:00:00	8	Radiación solar	1061
40817	7	Sololá	701	Sololá	3	Barraneche	8	Agosto	2023-01-08T00:00:00	2024-11-06T14:00:00	2	Temperatura media	19.7
40818	7	Sololá	701	Sololá	3	Barraneche	8	Agosto	2023-01-08T00:00:00	2024-11-06T14:00:00	4	Temperatura máxima	21
40819	7	Sololá	701	Sololá	3	Barraneche	8	Agosto	2023-01-08T00:00:00	2024-11-06T14:00:00	3	Temperatura mínima	19.1
40820	7	Sololá	701	Sololá	3	Barraneche	8	Agosto	2023-01-08T00:00:00	2024-11-06T14:00:00	5	Humedad	59
40821	7	Sololá	701	Sololá	3	Barraneche	8	Agosto	2023-01-08T00:00:00	2024-11-06T14:00:00	6	Velocidad del viento	8
40822	7	Sololá	701	Sololá	3	Barraneche	8	Agosto	2023-01-08T00:00:00	2024-11-06T14:00:00	7	Dirección del viento	8.05
40823	7	Sololá	701	Sololá	3	Barraneche	8	Agosto	2023-01-08T00:00:00	2024-11-06T14:00:00	1	Precipitación	0
40824	7	Sololá	701	Sololá	3	Barraneche	8	Agosto	2023-01-08T00:00:00	2024-11-06T14:00:00	8	Radiación solar	716
40825	7	Sololá	701	Sololá	3	Barraneche	8	Agosto	2023-01-08T00:00:00	2024-11-06T15:00:00	2	Temperatura media	21.2
40826	7	Sololá	701	Sololá	3	Barraneche	8	Agosto	2023-01-08T00:00:00	2024-11-06T15:00:00	4	Temperatura máxima	21.2
40827	7	Sololá	701	Sololá	3	Barraneche	8	Agosto	2023-01-08T00:00:00	2024-11-06T15:00:00	3	Temperatura mínima	19.7
40828	7	Sololá	701	Sololá	3	Barraneche	8	Agosto	2023-01-08T00:00:00	2024-11-06T15:00:00	5	Humedad	50
40829	7	Sololá	701	Sololá	3	Barraneche	8	Agosto	2023-01-08T00:00:00	2024-11-06T15:00:00	6	Velocidad del viento	9.7
40830	7	Sololá	701	Sololá	3	Barraneche	8	Agosto	2023-01-08T00:00:00	2024-11-06T15:00:00	7	Dirección del viento	9.66
40831	7	Sololá	701	Sololá	3	Barraneche	8	Agosto	2023-01-08T00:00:00	2024-11-06T15:00:00	1	Precipitación	0
40832	7	Sololá	701	Sololá	3	Barraneche	8	Agosto	2023-01-08T00:00:00	2024-11-06T15:00:00	8	Radiación solar	807
40833	7	Sololá	701	Sololá	3	Barraneche	8	Agosto	2023-01-08T00:00:00	2024-11-06T16:00:00	2	Temperatura media	17.7
40834	7	Sololá	701	Sololá	3	Barraneche	8	Agosto	2023-01-08T00:00:00	2024-11-06T16:00:00	4	Temperatura máxima	21.4
40835	7	Sololá	701	Sololá	3	Barraneche	8	Agosto	2023-01-08T00:00:00	2024-11-06T16:00:00	3	Temperatura mínima	17.7
40836	7	Sololá	701	Sololá	3	Barraneche	8	Agosto	2023-01-08T00:00:00	2024-11-06T16:00:00	5	Humedad	70
40837	7	Sololá	701	Sololá	3	Barraneche	8	Agosto	2023-01-08T00:00:00	2024-11-06T16:00:00	6	Velocidad del viento	12.9
40838	7	Sololá	701	Sololá	3	Barraneche	8	Agosto	2023-01-08T00:00:00	2024-11-06T16:00:00	7	Dirección del viento	12.87
40839	7	Sololá	701	Sololá	3	Barraneche	8	Agosto	2023-01-08T00:00:00	2024-11-06T16:00:00	1	Precipitación	0
40840	7	Sololá	701	Sololá	3	Barraneche	8	Agosto	2023-01-08T00:00:00	2024-11-06T16:00:00	8	Radiación solar	435
40841	7	Sololá	701	Sololá	3	Barraneche	8	Agosto	2023-01-08T00:00:00	2024-11-06T17:00:00	2	Temperatura media	15.7
40842	7	Sololá	701	Sololá	3	Barraneche	8	Agosto	2023-01-08T00:00:00	2024-11-06T17:00:00	4	Temperatura máxima	17.7
40843	7	Sololá	701	Sololá	3	Barraneche	8	Agosto	2023-01-08T00:00:00	2024-11-06T17:00:00	3	Temperatura mínima	15.7
40844	7	Sololá	701	Sololá	3	Barraneche	8	Agosto	2023-01-08T00:00:00	2024-11-06T17:00:00	5	Humedad	70
40845	7	Sololá	701	Sololá	3	Barraneche	8	Agosto	2023-01-08T00:00:00	2024-11-06T17:00:00	6	Velocidad del viento	14.5
40846	7	Sololá	701	Sololá	3	Barraneche	8	Agosto	2023-01-08T00:00:00	2024-11-06T17:00:00	7	Dirección del viento	14.48
40847	7	Sololá	701	Sololá	3	Barraneche	8	Agosto	2023-01-08T00:00:00	2024-11-06T17:00:00	1	Precipitación	0
40848	7	Sololá	701	Sololá	3	Barraneche	8	Agosto	2023-01-08T00:00:00	2024-11-06T17:00:00	8	Radiación solar	175
40849	7	Sololá	701	Sololá	3	Barraneche	8	Agosto	2023-01-08T00:00:00	2024-11-06T18:00:00	2	Temperatura media	15.3
40850	7	Sololá	701	Sololá	3	Barraneche	8	Agosto	2023-01-08T00:00:00	2024-11-06T18:00:00	4	Temperatura máxima	15.7
40851	7	Sololá	701	Sololá	3	Barraneche	8	Agosto	2023-01-08T00:00:00	2024-11-06T18:00:00	3	Temperatura mínima	15.3
40852	7	Sololá	701	Sololá	3	Barraneche	8	Agosto	2023-01-08T00:00:00	2024-11-06T18:00:00	5	Humedad	73
40853	7	Sololá	701	Sololá	3	Barraneche	8	Agosto	2023-01-08T00:00:00	2024-11-06T18:00:00	6	Velocidad del viento	8
40854	7	Sololá	701	Sololá	3	Barraneche	8	Agosto	2023-01-08T00:00:00	2024-11-06T18:00:00	7	Dirección del viento	8.05
40855	7	Sololá	701	Sololá	3	Barraneche	8	Agosto	2023-01-08T00:00:00	2024-11-06T18:00:00	1	Precipitación	0
40856	7	Sololá	701	Sololá	3	Barraneche	8	Agosto	2023-01-08T00:00:00	2024-11-06T18:00:00	8	Radiación solar	63
40857	7	Sololá	701	Sololá	3	Barraneche	8	Agosto	2023-01-08T00:00:00	2024-11-06T19:00:00	2	Temperatura media	15.7
40858	7	Sololá	701	Sololá	3	Barraneche	8	Agosto	2023-01-08T00:00:00	2024-11-06T19:00:00	4	Temperatura máxima	15.7
40859	7	Sololá	701	Sololá	3	Barraneche	8	Agosto	2023-01-08T00:00:00	2024-11-06T19:00:00	3	Temperatura mínima	15.2
40860	7	Sololá	701	Sololá	3	Barraneche	8	Agosto	2023-01-08T00:00:00	2024-11-06T19:00:00	5	Humedad	65
40861	7	Sololá	701	Sololá	3	Barraneche	8	Agosto	2023-01-08T00:00:00	2024-11-06T19:00:00	6	Velocidad del viento	4.8
40862	7	Sololá	701	Sololá	3	Barraneche	8	Agosto	2023-01-08T00:00:00	2024-11-06T19:00:00	7	Dirección del viento	4.83
40863	7	Sololá	701	Sololá	3	Barraneche	8	Agosto	2023-01-08T00:00:00	2024-11-06T19:00:00	1	Precipitación	0
40864	7	Sololá	701	Sololá	3	Barraneche	8	Agosto	2023-01-08T00:00:00	2024-11-06T19:00:00	8	Radiación solar	0
40865	7	Sololá	701	Sololá	3	Barraneche	8	Agosto	2023-01-08T00:00:00	2024-11-06T20:00:00	2	Temperatura media	15.6
40866	7	Sololá	701	Sololá	3	Barraneche	8	Agosto	2023-01-08T00:00:00	2024-11-06T20:00:00	4	Temperatura máxima	15.7
40867	7	Sololá	701	Sololá	3	Barraneche	8	Agosto	2023-01-08T00:00:00	2024-11-06T20:00:00	3	Temperatura mínima	15.4
40868	7	Sololá	701	Sololá	3	Barraneche	8	Agosto	2023-01-08T00:00:00	2024-11-06T20:00:00	5	Humedad	66
40869	7	Sololá	701	Sololá	3	Barraneche	8	Agosto	2023-01-08T00:00:00	2024-11-06T20:00:00	6	Velocidad del viento	6.4
40870	7	Sololá	701	Sololá	3	Barraneche	8	Agosto	2023-01-08T00:00:00	2024-11-06T20:00:00	7	Dirección del viento	6.44
40871	7	Sololá	701	Sololá	3	Barraneche	8	Agosto	2023-01-08T00:00:00	2024-11-06T20:00:00	1	Precipitación	0
40872	7	Sololá	701	Sololá	3	Barraneche	8	Agosto	2023-01-08T00:00:00	2024-11-06T20:00:00	8	Radiación solar	0
40873	7	Sololá	701	Sololá	3	Barraneche	8	Agosto	2023-01-08T00:00:00	2024-11-06T21:00:00	2	Temperatura media	15
40874	7	Sololá	701	Sololá	3	Barraneche	8	Agosto	2023-01-08T00:00:00	2024-11-06T21:00:00	4	Temperatura máxima	15.7
40875	7	Sololá	701	Sololá	3	Barraneche	8	Agosto	2023-01-08T00:00:00	2024-11-06T21:00:00	3	Temperatura mínima	15
40876	7	Sololá	701	Sololá	3	Barraneche	8	Agosto	2023-01-08T00:00:00	2024-11-06T21:00:00	5	Humedad	69
40877	7	Sololá	701	Sololá	3	Barraneche	8	Agosto	2023-01-08T00:00:00	2024-11-06T21:00:00	6	Velocidad del viento	4.8
40878	7	Sololá	701	Sololá	3	Barraneche	8	Agosto	2023-01-08T00:00:00	2024-11-06T21:00:00	7	Dirección del viento	4.83
40879	7	Sololá	701	Sololá	3	Barraneche	8	Agosto	2023-01-08T00:00:00	2024-11-06T21:00:00	1	Precipitación	0
40880	7	Sololá	701	Sololá	3	Barraneche	8	Agosto	2023-01-08T00:00:00	2024-11-06T21:00:00	8	Radiación solar	0
40881	7	Sololá	701	Sololá	3	Barraneche	8	Agosto	2023-01-08T00:00:00	2024-11-06T22:00:00	2	Temperatura media	13.1
40882	7	Sololá	701	Sololá	3	Barraneche	8	Agosto	2023-01-08T00:00:00	2024-11-06T22:00:00	4	Temperatura máxima	15.1
40883	7	Sololá	701	Sololá	3	Barraneche	8	Agosto	2023-01-08T00:00:00	2024-11-06T22:00:00	3	Temperatura mínima	13.1
40884	7	Sololá	701	Sololá	3	Barraneche	8	Agosto	2023-01-08T00:00:00	2024-11-06T22:00:00	5	Humedad	69
40885	7	Sololá	701	Sololá	3	Barraneche	8	Agosto	2023-01-08T00:00:00	2024-11-06T22:00:00	6	Velocidad del viento	16.1
40886	7	Sololá	701	Sololá	3	Barraneche	8	Agosto	2023-01-08T00:00:00	2024-11-06T22:00:00	7	Dirección del viento	16.09
40887	7	Sololá	701	Sololá	3	Barraneche	8	Agosto	2023-01-08T00:00:00	2024-11-06T22:00:00	1	Precipitación	8
40888	7	Sololá	701	Sololá	3	Barraneche	8	Agosto	2023-01-08T00:00:00	2024-11-06T22:00:00	8	Radiación solar	0
40889	7	Sololá	701	Sololá	3	Barraneche	8	Agosto	2023-01-08T00:00:00	2024-11-06T23:00:00	2	Temperatura media	13.5
40890	7	Sololá	701	Sololá	3	Barraneche	8	Agosto	2023-01-08T00:00:00	2024-11-06T23:00:00	4	Temperatura máxima	13.6
40891	7	Sololá	701	Sololá	3	Barraneche	8	Agosto	2023-01-08T00:00:00	2024-11-06T23:00:00	3	Temperatura mínima	13
40892	7	Sololá	701	Sololá	3	Barraneche	8	Agosto	2023-01-08T00:00:00	2024-11-06T23:00:00	5	Humedad	66
40893	7	Sololá	701	Sololá	3	Barraneche	8	Agosto	2023-01-08T00:00:00	2024-11-06T23:00:00	6	Velocidad del viento	16.1
40894	7	Sololá	701	Sololá	3	Barraneche	8	Agosto	2023-01-08T00:00:00	2024-11-06T23:00:00	7	Dirección del viento	16.09
40895	7	Sololá	701	Sololá	3	Barraneche	8	Agosto	2023-01-08T00:00:00	2024-11-06T23:00:00	1	Precipitación	0.2
40896	7	Sololá	701	Sololá	3	Barraneche	8	Agosto	2023-01-08T00:00:00	2024-11-06T23:00:00	8	Radiación solar	0
40897	7	Sololá	701	Sololá	3	Barraneche	8	Agosto	2023-02-08T00:00:00	2024-11-06T00:00:00	2	Temperatura media	14
40898	7	Sololá	701	Sololá	3	Barraneche	8	Agosto	2023-02-08T00:00:00	2024-11-06T00:00:00	4	Temperatura máxima	14
40899	7	Sololá	701	Sololá	3	Barraneche	8	Agosto	2023-02-08T00:00:00	2024-11-06T00:00:00	3	Temperatura mínima	13.4
40900	7	Sololá	701	Sololá	3	Barraneche	8	Agosto	2023-02-08T00:00:00	2024-11-06T00:00:00	5	Humedad	62
40901	7	Sololá	701	Sololá	3	Barraneche	8	Agosto	2023-02-08T00:00:00	2024-11-06T00:00:00	6	Velocidad del viento	14.5
40902	7	Sololá	701	Sololá	3	Barraneche	8	Agosto	2023-02-08T00:00:00	2024-11-06T00:00:00	7	Dirección del viento	14.48
40903	7	Sololá	701	Sololá	3	Barraneche	8	Agosto	2023-02-08T00:00:00	2024-11-06T00:00:00	1	Precipitación	0
40904	7	Sololá	701	Sololá	3	Barraneche	8	Agosto	2023-02-08T00:00:00	2024-11-06T00:00:00	8	Radiación solar	0
40905	7	Sololá	701	Sololá	3	Barraneche	8	Agosto	2023-02-08T00:00:00	2024-11-06T01:00:00	2	Temperatura media	14.2
40906	7	Sololá	701	Sololá	3	Barraneche	8	Agosto	2023-02-08T00:00:00	2024-11-06T01:00:00	4	Temperatura máxima	14.2
40907	7	Sololá	701	Sololá	3	Barraneche	8	Agosto	2023-02-08T00:00:00	2024-11-06T01:00:00	3	Temperatura mínima	13.5
40908	7	Sololá	701	Sololá	3	Barraneche	8	Agosto	2023-02-08T00:00:00	2024-11-06T01:00:00	5	Humedad	61
40909	7	Sololá	701	Sololá	3	Barraneche	8	Agosto	2023-02-08T00:00:00	2024-11-06T01:00:00	6	Velocidad del viento	11.3
40910	7	Sololá	701	Sololá	3	Barraneche	8	Agosto	2023-02-08T00:00:00	2024-11-06T01:00:00	7	Dirección del viento	11.27
40911	7	Sololá	701	Sololá	3	Barraneche	8	Agosto	2023-02-08T00:00:00	2024-11-06T01:00:00	1	Precipitación	0
40912	7	Sololá	701	Sololá	3	Barraneche	8	Agosto	2023-02-08T00:00:00	2024-11-06T01:00:00	8	Radiación solar	0
40913	7	Sololá	701	Sololá	3	Barraneche	8	Agosto	2023-02-08T00:00:00	2024-11-06T02:00:00	2	Temperatura media	14.7
40914	7	Sololá	701	Sololá	3	Barraneche	8	Agosto	2023-02-08T00:00:00	2024-11-06T02:00:00	4	Temperatura máxima	15.1
40915	7	Sololá	701	Sololá	3	Barraneche	8	Agosto	2023-02-08T00:00:00	2024-11-06T02:00:00	3	Temperatura mínima	14.2
40916	7	Sololá	701	Sololá	3	Barraneche	8	Agosto	2023-02-08T00:00:00	2024-11-06T02:00:00	5	Humedad	59
40917	7	Sololá	701	Sololá	3	Barraneche	8	Agosto	2023-02-08T00:00:00	2024-11-06T02:00:00	6	Velocidad del viento	8
40918	7	Sololá	701	Sololá	3	Barraneche	8	Agosto	2023-02-08T00:00:00	2024-11-06T02:00:00	7	Dirección del viento	8.05
40919	7	Sololá	701	Sololá	3	Barraneche	8	Agosto	2023-02-08T00:00:00	2024-11-06T02:00:00	1	Precipitación	0
40920	7	Sololá	701	Sololá	3	Barraneche	8	Agosto	2023-02-08T00:00:00	2024-11-06T02:00:00	8	Radiación solar	0
40921	7	Sololá	701	Sololá	3	Barraneche	8	Agosto	2023-02-08T00:00:00	2024-11-06T03:00:00	2	Temperatura media	14.6
40922	7	Sololá	701	Sololá	3	Barraneche	8	Agosto	2023-02-08T00:00:00	2024-11-06T03:00:00	4	Temperatura máxima	15
40923	7	Sololá	701	Sololá	3	Barraneche	8	Agosto	2023-02-08T00:00:00	2024-11-06T03:00:00	3	Temperatura mínima	14.2
40924	7	Sololá	701	Sololá	3	Barraneche	8	Agosto	2023-02-08T00:00:00	2024-11-06T03:00:00	5	Humedad	58
40925	7	Sololá	701	Sololá	3	Barraneche	8	Agosto	2023-02-08T00:00:00	2024-11-06T03:00:00	6	Velocidad del viento	9.7
40926	7	Sololá	701	Sololá	3	Barraneche	8	Agosto	2023-02-08T00:00:00	2024-11-06T03:00:00	7	Dirección del viento	9.66
40927	7	Sololá	701	Sololá	3	Barraneche	8	Agosto	2023-02-08T00:00:00	2024-11-06T03:00:00	1	Precipitación	0
40928	7	Sololá	701	Sololá	3	Barraneche	8	Agosto	2023-02-08T00:00:00	2024-11-06T03:00:00	8	Radiación solar	0
40929	7	Sololá	701	Sololá	3	Barraneche	8	Agosto	2023-02-08T00:00:00	2024-11-06T04:00:00	2	Temperatura media	13.8
40930	7	Sololá	701	Sololá	3	Barraneche	8	Agosto	2023-02-08T00:00:00	2024-11-06T04:00:00	4	Temperatura máxima	14.6
40931	7	Sololá	701	Sololá	3	Barraneche	8	Agosto	2023-02-08T00:00:00	2024-11-06T04:00:00	3	Temperatura mínima	13.8
40932	7	Sololá	701	Sololá	3	Barraneche	8	Agosto	2023-02-08T00:00:00	2024-11-06T04:00:00	5	Humedad	63
40933	7	Sololá	701	Sololá	3	Barraneche	8	Agosto	2023-02-08T00:00:00	2024-11-06T04:00:00	6	Velocidad del viento	11.3
40934	7	Sololá	701	Sololá	3	Barraneche	8	Agosto	2023-02-08T00:00:00	2024-11-06T04:00:00	7	Dirección del viento	11.27
40935	7	Sololá	701	Sololá	3	Barraneche	8	Agosto	2023-02-08T00:00:00	2024-11-06T04:00:00	1	Precipitación	0
40936	7	Sololá	701	Sololá	3	Barraneche	8	Agosto	2023-02-08T00:00:00	2024-11-06T04:00:00	8	Radiación solar	0
40937	7	Sololá	701	Sololá	3	Barraneche	8	Agosto	2023-02-08T00:00:00	2024-11-06T05:00:00	2	Temperatura media	14.4
40938	7	Sololá	701	Sololá	3	Barraneche	8	Agosto	2023-02-08T00:00:00	2024-11-06T05:00:00	4	Temperatura máxima	14.4
40939	7	Sololá	701	Sololá	3	Barraneche	8	Agosto	2023-02-08T00:00:00	2024-11-06T05:00:00	3	Temperatura mínima	13.8
40940	7	Sololá	701	Sololá	3	Barraneche	8	Agosto	2023-02-08T00:00:00	2024-11-06T05:00:00	5	Humedad	60
40941	7	Sololá	701	Sololá	3	Barraneche	8	Agosto	2023-02-08T00:00:00	2024-11-06T05:00:00	6	Velocidad del viento	14.5
40942	7	Sololá	701	Sololá	3	Barraneche	8	Agosto	2023-02-08T00:00:00	2024-11-06T05:00:00	7	Dirección del viento	14.48
40943	7	Sololá	701	Sololá	3	Barraneche	8	Agosto	2023-02-08T00:00:00	2024-11-06T05:00:00	1	Precipitación	0
40944	7	Sololá	701	Sololá	3	Barraneche	8	Agosto	2023-02-08T00:00:00	2024-11-06T05:00:00	8	Radiación solar	0
40945	7	Sololá	701	Sololá	3	Barraneche	8	Agosto	2023-02-08T00:00:00	2024-11-06T06:00:00	2	Temperatura media	14.3
40946	7	Sololá	701	Sololá	3	Barraneche	8	Agosto	2023-02-08T00:00:00	2024-11-06T06:00:00	4	Temperatura máxima	14.7
40947	7	Sololá	701	Sololá	3	Barraneche	8	Agosto	2023-02-08T00:00:00	2024-11-06T06:00:00	3	Temperatura mínima	14.3
40948	7	Sololá	701	Sololá	3	Barraneche	8	Agosto	2023-02-08T00:00:00	2024-11-06T06:00:00	5	Humedad	61
40949	7	Sololá	701	Sololá	3	Barraneche	8	Agosto	2023-02-08T00:00:00	2024-11-06T06:00:00	6	Velocidad del viento	9.7
40950	7	Sololá	701	Sololá	3	Barraneche	8	Agosto	2023-02-08T00:00:00	2024-11-06T06:00:00	7	Dirección del viento	9.66
40951	7	Sololá	701	Sololá	3	Barraneche	8	Agosto	2023-02-08T00:00:00	2024-11-06T06:00:00	1	Precipitación	0
40952	7	Sololá	701	Sololá	3	Barraneche	8	Agosto	2023-02-08T00:00:00	2024-11-06T06:00:00	8	Radiación solar	0
40953	7	Sololá	701	Sololá	3	Barraneche	8	Agosto	2023-02-08T00:00:00	2024-11-06T07:00:00	2	Temperatura media	13.8
40954	7	Sololá	701	Sololá	3	Barraneche	8	Agosto	2023-02-08T00:00:00	2024-11-06T07:00:00	4	Temperatura máxima	14.3
40955	7	Sololá	701	Sololá	3	Barraneche	8	Agosto	2023-02-08T00:00:00	2024-11-06T07:00:00	3	Temperatura mínima	13.8
40956	7	Sololá	701	Sololá	3	Barraneche	8	Agosto	2023-02-08T00:00:00	2024-11-06T07:00:00	5	Humedad	65
40957	7	Sololá	701	Sololá	3	Barraneche	8	Agosto	2023-02-08T00:00:00	2024-11-06T07:00:00	6	Velocidad del viento	6.4
40958	7	Sololá	701	Sololá	3	Barraneche	8	Agosto	2023-02-08T00:00:00	2024-11-06T07:00:00	7	Dirección del viento	6.44
40959	7	Sololá	701	Sololá	3	Barraneche	8	Agosto	2023-02-08T00:00:00	2024-11-06T07:00:00	1	Precipitación	0
40960	7	Sololá	701	Sololá	3	Barraneche	8	Agosto	2023-02-08T00:00:00	2024-11-06T07:00:00	8	Radiación solar	17
40961	7	Sololá	701	Sololá	3	Barraneche	8	Agosto	2023-02-08T00:00:00	2024-11-06T08:00:00	2	Temperatura media	14.2
40962	7	Sololá	701	Sololá	3	Barraneche	8	Agosto	2023-02-08T00:00:00	2024-11-06T08:00:00	4	Temperatura máxima	14.2
40963	7	Sololá	701	Sololá	3	Barraneche	8	Agosto	2023-02-08T00:00:00	2024-11-06T08:00:00	3	Temperatura mínima	13.8
40964	7	Sololá	701	Sololá	3	Barraneche	8	Agosto	2023-02-08T00:00:00	2024-11-06T08:00:00	5	Humedad	66
40965	7	Sololá	701	Sololá	3	Barraneche	8	Agosto	2023-02-08T00:00:00	2024-11-06T08:00:00	6	Velocidad del viento	3.2
40966	7	Sololá	701	Sololá	3	Barraneche	8	Agosto	2023-02-08T00:00:00	2024-11-06T08:00:00	7	Dirección del viento	3.22
40967	7	Sololá	701	Sololá	3	Barraneche	8	Agosto	2023-02-08T00:00:00	2024-11-06T08:00:00	1	Precipitación	0
40968	7	Sololá	701	Sololá	3	Barraneche	8	Agosto	2023-02-08T00:00:00	2024-11-06T08:00:00	8	Radiación solar	73
40969	7	Sololá	701	Sololá	3	Barraneche	8	Agosto	2023-02-08T00:00:00	2024-11-06T09:00:00	2	Temperatura media	14.8
40970	7	Sololá	701	Sololá	3	Barraneche	8	Agosto	2023-02-08T00:00:00	2024-11-06T09:00:00	4	Temperatura máxima	14.8
40971	7	Sololá	701	Sololá	3	Barraneche	8	Agosto	2023-02-08T00:00:00	2024-11-06T09:00:00	3	Temperatura mínima	14.2
40972	7	Sololá	701	Sololá	3	Barraneche	8	Agosto	2023-02-08T00:00:00	2024-11-06T09:00:00	5	Humedad	67
40973	7	Sololá	701	Sololá	3	Barraneche	8	Agosto	2023-02-08T00:00:00	2024-11-06T09:00:00	6	Velocidad del viento	3.2
40974	7	Sololá	701	Sololá	3	Barraneche	8	Agosto	2023-02-08T00:00:00	2024-11-06T09:00:00	7	Dirección del viento	3.22
40975	7	Sololá	701	Sololá	3	Barraneche	8	Agosto	2023-02-08T00:00:00	2024-11-06T09:00:00	1	Precipitación	0
40976	7	Sololá	701	Sololá	3	Barraneche	8	Agosto	2023-02-08T00:00:00	2024-11-06T09:00:00	8	Radiación solar	191
40977	7	Sololá	701	Sololá	3	Barraneche	8	Agosto	2023-02-08T00:00:00	2024-11-06T10:00:00	2	Temperatura media	15.4
40978	7	Sololá	701	Sololá	3	Barraneche	8	Agosto	2023-02-08T00:00:00	2024-11-06T10:00:00	4	Temperatura máxima	15.8
40979	7	Sololá	701	Sololá	3	Barraneche	8	Agosto	2023-02-08T00:00:00	2024-11-06T10:00:00	3	Temperatura mínima	14.8
40980	7	Sololá	701	Sololá	3	Barraneche	8	Agosto	2023-02-08T00:00:00	2024-11-06T10:00:00	5	Humedad	65
40981	7	Sololá	701	Sololá	3	Barraneche	8	Agosto	2023-02-08T00:00:00	2024-11-06T10:00:00	6	Velocidad del viento	6.4
40982	7	Sololá	701	Sololá	3	Barraneche	8	Agosto	2023-02-08T00:00:00	2024-11-06T10:00:00	7	Dirección del viento	6.44
40983	7	Sololá	701	Sololá	3	Barraneche	8	Agosto	2023-02-08T00:00:00	2024-11-06T10:00:00	1	Precipitación	0
40984	7	Sololá	701	Sololá	3	Barraneche	8	Agosto	2023-02-08T00:00:00	2024-11-06T10:00:00	8	Radiación solar	310
40985	7	Sololá	701	Sololá	3	Barraneche	8	Agosto	2023-02-08T00:00:00	2024-11-06T11:00:00	2	Temperatura media	15.3
40986	7	Sololá	701	Sololá	3	Barraneche	8	Agosto	2023-02-08T00:00:00	2024-11-06T11:00:00	4	Temperatura máxima	15.9
40987	7	Sololá	701	Sololá	3	Barraneche	8	Agosto	2023-02-08T00:00:00	2024-11-06T11:00:00	3	Temperatura mínima	15.3
40988	7	Sololá	701	Sololá	3	Barraneche	8	Agosto	2023-02-08T00:00:00	2024-11-06T11:00:00	5	Humedad	65
40989	7	Sololá	701	Sololá	3	Barraneche	8	Agosto	2023-02-08T00:00:00	2024-11-06T11:00:00	6	Velocidad del viento	4.8
40990	7	Sololá	701	Sololá	3	Barraneche	8	Agosto	2023-02-08T00:00:00	2024-11-06T11:00:00	7	Dirección del viento	4.83
40991	7	Sololá	701	Sololá	3	Barraneche	8	Agosto	2023-02-08T00:00:00	2024-11-06T11:00:00	1	Precipitación	0
40992	7	Sololá	701	Sololá	3	Barraneche	8	Agosto	2023-02-08T00:00:00	2024-11-06T11:00:00	8	Radiación solar	224
40993	7	Sololá	701	Sololá	3	Barraneche	8	Agosto	2023-02-08T00:00:00	2024-11-06T12:00:00	2	Temperatura media	15.5
40994	7	Sololá	701	Sololá	3	Barraneche	8	Agosto	2023-02-08T00:00:00	2024-11-06T12:00:00	4	Temperatura máxima	15.9
40995	7	Sololá	701	Sololá	3	Barraneche	8	Agosto	2023-02-08T00:00:00	2024-11-06T12:00:00	3	Temperatura mínima	15.3
40996	7	Sololá	701	Sololá	3	Barraneche	8	Agosto	2023-02-08T00:00:00	2024-11-06T12:00:00	5	Humedad	66
40997	7	Sololá	701	Sololá	3	Barraneche	8	Agosto	2023-02-08T00:00:00	2024-11-06T12:00:00	6	Velocidad del viento	4.8
40998	7	Sololá	701	Sololá	3	Barraneche	8	Agosto	2023-02-08T00:00:00	2024-11-06T12:00:00	7	Dirección del viento	4.83
40999	7	Sololá	701	Sololá	3	Barraneche	8	Agosto	2023-02-08T00:00:00	2024-11-06T12:00:00	1	Precipitación	0
41000	7	Sololá	701	Sololá	3	Barraneche	8	Agosto	2023-02-08T00:00:00	2024-11-06T12:00:00	8	Radiación solar	280
41001	7	Sololá	701	Sololá	3	Barraneche	8	Agosto	2023-02-08T00:00:00	2024-11-06T13:00:00	2	Temperatura media	15.1
41002	7	Sololá	701	Sololá	3	Barraneche	8	Agosto	2023-02-08T00:00:00	2024-11-06T13:00:00	4	Temperatura máxima	15.6
41003	7	Sololá	701	Sololá	3	Barraneche	8	Agosto	2023-02-08T00:00:00	2024-11-06T13:00:00	3	Temperatura mínima	15.1
41004	7	Sololá	701	Sololá	3	Barraneche	8	Agosto	2023-02-08T00:00:00	2024-11-06T13:00:00	5	Humedad	66
41005	7	Sololá	701	Sololá	3	Barraneche	8	Agosto	2023-02-08T00:00:00	2024-11-06T13:00:00	6	Velocidad del viento	4.8
41006	7	Sololá	701	Sololá	3	Barraneche	8	Agosto	2023-02-08T00:00:00	2024-11-06T13:00:00	7	Dirección del viento	4.83
41007	7	Sololá	701	Sololá	3	Barraneche	8	Agosto	2023-02-08T00:00:00	2024-11-06T13:00:00	1	Precipitación	0
41008	7	Sololá	701	Sololá	3	Barraneche	8	Agosto	2023-02-08T00:00:00	2024-11-06T13:00:00	8	Radiación solar	110
41009	7	Sololá	701	Sololá	3	Barraneche	8	Agosto	2023-02-08T00:00:00	2024-11-06T14:00:00	2	Temperatura media	14.8
41010	7	Sololá	701	Sololá	3	Barraneche	8	Agosto	2023-02-08T00:00:00	2024-11-06T14:00:00	4	Temperatura máxima	15.3
41011	7	Sololá	701	Sololá	3	Barraneche	8	Agosto	2023-02-08T00:00:00	2024-11-06T14:00:00	3	Temperatura mínima	14.8
41012	7	Sololá	701	Sololá	3	Barraneche	8	Agosto	2023-02-08T00:00:00	2024-11-06T14:00:00	5	Humedad	68
41013	7	Sololá	701	Sololá	3	Barraneche	8	Agosto	2023-02-08T00:00:00	2024-11-06T14:00:00	6	Velocidad del viento	4.8
41014	7	Sololá	701	Sololá	3	Barraneche	8	Agosto	2023-02-08T00:00:00	2024-11-06T14:00:00	7	Dirección del viento	4.83
41015	7	Sololá	701	Sololá	3	Barraneche	8	Agosto	2023-02-08T00:00:00	2024-11-06T14:00:00	1	Precipitación	0
41016	7	Sololá	701	Sololá	3	Barraneche	8	Agosto	2023-02-08T00:00:00	2024-11-06T14:00:00	8	Radiación solar	101
41017	7	Sololá	701	Sololá	3	Barraneche	8	Agosto	2023-02-08T00:00:00	2024-11-06T15:00:00	2	Temperatura media	15.6
41018	7	Sololá	701	Sololá	3	Barraneche	8	Agosto	2023-02-08T00:00:00	2024-11-06T15:00:00	4	Temperatura máxima	15.6
41019	7	Sololá	701	Sololá	3	Barraneche	8	Agosto	2023-02-08T00:00:00	2024-11-06T15:00:00	3	Temperatura mínima	14.7
41020	7	Sololá	701	Sololá	3	Barraneche	8	Agosto	2023-02-08T00:00:00	2024-11-06T15:00:00	5	Humedad	64
41021	7	Sololá	701	Sololá	3	Barraneche	8	Agosto	2023-02-08T00:00:00	2024-11-06T15:00:00	6	Velocidad del viento	4.8
41022	7	Sololá	701	Sololá	3	Barraneche	8	Agosto	2023-02-08T00:00:00	2024-11-06T15:00:00	7	Dirección del viento	4.83
41023	7	Sololá	701	Sololá	3	Barraneche	8	Agosto	2023-02-08T00:00:00	2024-11-06T15:00:00	1	Precipitación	0
41024	7	Sololá	701	Sololá	3	Barraneche	8	Agosto	2023-02-08T00:00:00	2024-11-06T15:00:00	8	Radiación solar	158
41025	7	Sololá	701	Sololá	3	Barraneche	8	Agosto	2023-02-08T00:00:00	2024-11-06T16:00:00	2	Temperatura media	15.8
41026	7	Sololá	701	Sololá	3	Barraneche	8	Agosto	2023-02-08T00:00:00	2024-11-06T16:00:00	4	Temperatura máxima	15.8
41027	7	Sololá	701	Sololá	3	Barraneche	8	Agosto	2023-02-08T00:00:00	2024-11-06T16:00:00	3	Temperatura mínima	15.6
41028	7	Sololá	701	Sololá	3	Barraneche	8	Agosto	2023-02-08T00:00:00	2024-11-06T16:00:00	5	Humedad	63
41029	7	Sololá	701	Sololá	3	Barraneche	8	Agosto	2023-02-08T00:00:00	2024-11-06T16:00:00	6	Velocidad del viento	4.8
41030	7	Sololá	701	Sololá	3	Barraneche	8	Agosto	2023-02-08T00:00:00	2024-11-06T16:00:00	7	Dirección del viento	4.83
41031	7	Sololá	701	Sololá	3	Barraneche	8	Agosto	2023-02-08T00:00:00	2024-11-06T16:00:00	1	Precipitación	0
41032	7	Sololá	701	Sololá	3	Barraneche	8	Agosto	2023-02-08T00:00:00	2024-11-06T16:00:00	8	Radiación solar	120
41033	7	Sololá	701	Sololá	3	Barraneche	8	Agosto	2023-02-08T00:00:00	2024-11-06T17:00:00	2	Temperatura media	15.8
41034	7	Sololá	701	Sololá	3	Barraneche	8	Agosto	2023-02-08T00:00:00	2024-11-06T17:00:00	4	Temperatura máxima	15.9
41035	7	Sololá	701	Sololá	3	Barraneche	8	Agosto	2023-02-08T00:00:00	2024-11-06T17:00:00	3	Temperatura mínima	15.7
41036	7	Sololá	701	Sololá	3	Barraneche	8	Agosto	2023-02-08T00:00:00	2024-11-06T17:00:00	5	Humedad	63
41037	7	Sololá	701	Sololá	3	Barraneche	8	Agosto	2023-02-08T00:00:00	2024-11-06T17:00:00	6	Velocidad del viento	6.4
41038	7	Sololá	701	Sololá	3	Barraneche	8	Agosto	2023-02-08T00:00:00	2024-11-06T17:00:00	7	Dirección del viento	6.44
41039	7	Sololá	701	Sololá	3	Barraneche	8	Agosto	2023-02-08T00:00:00	2024-11-06T17:00:00	1	Precipitación	0
41040	7	Sololá	701	Sololá	3	Barraneche	8	Agosto	2023-02-08T00:00:00	2024-11-06T17:00:00	8	Radiación solar	133
41041	7	Sololá	701	Sololá	3	Barraneche	8	Agosto	2023-02-08T00:00:00	2024-11-06T18:00:00	2	Temperatura media	15.1
41042	7	Sololá	701	Sololá	3	Barraneche	8	Agosto	2023-02-08T00:00:00	2024-11-06T18:00:00	4	Temperatura máxima	15.8
41043	7	Sololá	701	Sololá	3	Barraneche	8	Agosto	2023-02-08T00:00:00	2024-11-06T18:00:00	3	Temperatura mínima	15.1
41044	7	Sololá	701	Sololá	3	Barraneche	8	Agosto	2023-02-08T00:00:00	2024-11-06T18:00:00	5	Humedad	65
41045	7	Sololá	701	Sololá	3	Barraneche	8	Agosto	2023-02-08T00:00:00	2024-11-06T18:00:00	6	Velocidad del viento	6.4
41046	7	Sololá	701	Sololá	3	Barraneche	8	Agosto	2023-02-08T00:00:00	2024-11-06T18:00:00	7	Dirección del viento	6.44
41047	7	Sololá	701	Sololá	3	Barraneche	8	Agosto	2023-02-08T00:00:00	2024-11-06T18:00:00	1	Precipitación	0
41048	7	Sololá	701	Sololá	3	Barraneche	8	Agosto	2023-02-08T00:00:00	2024-11-06T18:00:00	8	Radiación solar	26
41049	7	Sololá	701	Sololá	3	Barraneche	8	Agosto	2023-02-08T00:00:00	2024-11-06T19:00:00	2	Temperatura media	15.1
41050	7	Sololá	701	Sololá	3	Barraneche	8	Agosto	2023-02-08T00:00:00	2024-11-06T19:00:00	4	Temperatura máxima	15.2
41051	7	Sololá	701	Sololá	3	Barraneche	8	Agosto	2023-02-08T00:00:00	2024-11-06T19:00:00	3	Temperatura mínima	15
41052	7	Sololá	701	Sololá	3	Barraneche	8	Agosto	2023-02-08T00:00:00	2024-11-06T19:00:00	5	Humedad	65
41053	7	Sololá	701	Sololá	3	Barraneche	8	Agosto	2023-02-08T00:00:00	2024-11-06T19:00:00	6	Velocidad del viento	4.8
41054	7	Sololá	701	Sololá	3	Barraneche	8	Agosto	2023-02-08T00:00:00	2024-11-06T19:00:00	7	Dirección del viento	4.83
41055	7	Sololá	701	Sololá	3	Barraneche	8	Agosto	2023-02-08T00:00:00	2024-11-06T19:00:00	1	Precipitación	0
41056	7	Sololá	701	Sololá	3	Barraneche	8	Agosto	2023-02-08T00:00:00	2024-11-06T19:00:00	8	Radiación solar	0
41057	7	Sololá	701	Sololá	3	Barraneche	8	Agosto	2023-02-08T00:00:00	2024-11-06T20:00:00	2	Temperatura media	14.8
41058	7	Sololá	701	Sololá	3	Barraneche	8	Agosto	2023-02-08T00:00:00	2024-11-06T20:00:00	4	Temperatura máxima	15.1
41059	7	Sololá	701	Sololá	3	Barraneche	8	Agosto	2023-02-08T00:00:00	2024-11-06T20:00:00	3	Temperatura mínima	14.7
41060	7	Sololá	701	Sololá	3	Barraneche	8	Agosto	2023-02-08T00:00:00	2024-11-06T20:00:00	5	Humedad	67
41061	7	Sololá	701	Sololá	3	Barraneche	8	Agosto	2023-02-08T00:00:00	2024-11-06T20:00:00	6	Velocidad del viento	3.2
41062	7	Sololá	701	Sololá	3	Barraneche	8	Agosto	2023-02-08T00:00:00	2024-11-06T20:00:00	7	Dirección del viento	3.22
41063	7	Sololá	701	Sololá	3	Barraneche	8	Agosto	2023-02-08T00:00:00	2024-11-06T20:00:00	1	Precipitación	0
41064	7	Sololá	701	Sololá	3	Barraneche	8	Agosto	2023-02-08T00:00:00	2024-11-06T20:00:00	8	Radiación solar	0
41065	7	Sololá	701	Sololá	3	Barraneche	8	Agosto	2023-02-08T00:00:00	2024-11-06T21:00:00	2	Temperatura media	14.4
41066	7	Sololá	701	Sololá	3	Barraneche	8	Agosto	2023-02-08T00:00:00	2024-11-06T21:00:00	4	Temperatura máxima	14.8
41067	7	Sololá	701	Sololá	3	Barraneche	8	Agosto	2023-02-08T00:00:00	2024-11-06T21:00:00	3	Temperatura mínima	14.4
41068	7	Sololá	701	Sololá	3	Barraneche	8	Agosto	2023-02-08T00:00:00	2024-11-06T21:00:00	5	Humedad	69
41069	7	Sololá	701	Sololá	3	Barraneche	8	Agosto	2023-02-08T00:00:00	2024-11-06T21:00:00	6	Velocidad del viento	1.6
41070	7	Sololá	701	Sololá	3	Barraneche	8	Agosto	2023-02-08T00:00:00	2024-11-06T21:00:00	7	Dirección del viento	1.61
41071	7	Sololá	701	Sololá	3	Barraneche	8	Agosto	2023-02-08T00:00:00	2024-11-06T21:00:00	1	Precipitación	0
41072	7	Sololá	701	Sololá	3	Barraneche	8	Agosto	2023-02-08T00:00:00	2024-11-06T21:00:00	8	Radiación solar	0
41073	7	Sololá	701	Sololá	3	Barraneche	8	Agosto	2023-02-08T00:00:00	2024-11-06T22:00:00	2	Temperatura media	14.3
41074	7	Sololá	701	Sololá	3	Barraneche	8	Agosto	2023-02-08T00:00:00	2024-11-06T22:00:00	4	Temperatura máxima	14.4
41075	7	Sololá	701	Sololá	3	Barraneche	8	Agosto	2023-02-08T00:00:00	2024-11-06T22:00:00	3	Temperatura mínima	14.2
41076	7	Sololá	701	Sololá	3	Barraneche	8	Agosto	2023-02-08T00:00:00	2024-11-06T22:00:00	5	Humedad	70
41077	7	Sololá	701	Sololá	3	Barraneche	8	Agosto	2023-02-08T00:00:00	2024-11-06T22:00:00	6	Velocidad del viento	1.6
41078	7	Sololá	701	Sololá	3	Barraneche	8	Agosto	2023-02-08T00:00:00	2024-11-06T22:00:00	7	Dirección del viento	1.61
41079	7	Sololá	701	Sololá	3	Barraneche	8	Agosto	2023-02-08T00:00:00	2024-11-06T22:00:00	1	Precipitación	0
41080	7	Sololá	701	Sololá	3	Barraneche	8	Agosto	2023-02-08T00:00:00	2024-11-06T22:00:00	8	Radiación solar	0
41081	7	Sololá	701	Sololá	3	Barraneche	8	Agosto	2023-02-08T00:00:00	2024-11-06T23:00:00	2	Temperatura media	13.9
41082	7	Sololá	701	Sololá	3	Barraneche	8	Agosto	2023-02-08T00:00:00	2024-11-06T23:00:00	4	Temperatura máxima	14.3
41083	7	Sololá	701	Sololá	3	Barraneche	8	Agosto	2023-02-08T00:00:00	2024-11-06T23:00:00	3	Temperatura mínima	13.8
41084	7	Sololá	701	Sololá	3	Barraneche	8	Agosto	2023-02-08T00:00:00	2024-11-06T23:00:00	5	Humedad	70
41085	7	Sololá	701	Sololá	3	Barraneche	8	Agosto	2023-02-08T00:00:00	2024-11-06T23:00:00	6	Velocidad del viento	1.6
41086	7	Sololá	701	Sololá	3	Barraneche	8	Agosto	2023-02-08T00:00:00	2024-11-06T23:00:00	7	Dirección del viento	1.61
41087	7	Sololá	701	Sololá	3	Barraneche	8	Agosto	2023-02-08T00:00:00	2024-11-06T23:00:00	1	Precipitación	0
41088	7	Sololá	701	Sololá	3	Barraneche	8	Agosto	2023-02-08T00:00:00	2024-11-06T23:00:00	8	Radiación solar	0
41089	7	Sololá	701	Sololá	3	Barraneche	8	Agosto	2023-03-08T00:00:00	2024-11-06T00:00:00	2	Temperatura media	12.9
41090	7	Sololá	701	Sololá	3	Barraneche	8	Agosto	2023-03-08T00:00:00	2024-11-06T00:00:00	4	Temperatura máxima	13.9
41091	7	Sololá	701	Sololá	3	Barraneche	8	Agosto	2023-03-08T00:00:00	2024-11-06T00:00:00	3	Temperatura mínima	12.9
41092	7	Sololá	701	Sololá	3	Barraneche	8	Agosto	2023-03-08T00:00:00	2024-11-06T00:00:00	5	Humedad	72
41093	7	Sololá	701	Sololá	3	Barraneche	8	Agosto	2023-03-08T00:00:00	2024-11-06T00:00:00	6	Velocidad del viento	1.6
41094	7	Sololá	701	Sololá	3	Barraneche	8	Agosto	2023-03-08T00:00:00	2024-11-06T00:00:00	7	Dirección del viento	1.61
41095	7	Sololá	701	Sololá	3	Barraneche	8	Agosto	2023-03-08T00:00:00	2024-11-06T00:00:00	1	Precipitación	0
41096	7	Sololá	701	Sololá	3	Barraneche	8	Agosto	2023-03-08T00:00:00	2024-11-06T00:00:00	8	Radiación solar	0
41097	7	Sololá	701	Sololá	3	Barraneche	8	Agosto	2023-03-08T00:00:00	2024-11-06T01:00:00	2	Temperatura media	14.1
41098	7	Sololá	701	Sololá	3	Barraneche	8	Agosto	2023-03-08T00:00:00	2024-11-06T01:00:00	4	Temperatura máxima	14.1
41099	7	Sololá	701	Sololá	3	Barraneche	8	Agosto	2023-03-08T00:00:00	2024-11-06T01:00:00	3	Temperatura mínima	12.8
41100	7	Sololá	701	Sololá	3	Barraneche	8	Agosto	2023-03-08T00:00:00	2024-11-06T01:00:00	5	Humedad	67
41101	7	Sololá	701	Sololá	3	Barraneche	8	Agosto	2023-03-08T00:00:00	2024-11-06T01:00:00	6	Velocidad del viento	4.8
41102	7	Sololá	701	Sololá	3	Barraneche	8	Agosto	2023-03-08T00:00:00	2024-11-06T01:00:00	7	Dirección del viento	4.83
41103	7	Sololá	701	Sololá	3	Barraneche	8	Agosto	2023-03-08T00:00:00	2024-11-06T01:00:00	1	Precipitación	0
41104	7	Sololá	701	Sololá	3	Barraneche	8	Agosto	2023-03-08T00:00:00	2024-11-06T01:00:00	8	Radiación solar	0
41105	7	Sololá	701	Sololá	3	Barraneche	8	Agosto	2023-03-08T00:00:00	2024-11-06T02:00:00	2	Temperatura media	12.9
41106	7	Sololá	701	Sololá	3	Barraneche	8	Agosto	2023-03-08T00:00:00	2024-11-06T02:00:00	4	Temperatura máxima	14.2
41107	7	Sololá	701	Sololá	3	Barraneche	8	Agosto	2023-03-08T00:00:00	2024-11-06T02:00:00	3	Temperatura mínima	12.8
41108	7	Sololá	701	Sololá	3	Barraneche	8	Agosto	2023-03-08T00:00:00	2024-11-06T02:00:00	5	Humedad	69
41109	7	Sololá	701	Sololá	3	Barraneche	8	Agosto	2023-03-08T00:00:00	2024-11-06T02:00:00	6	Velocidad del viento	3.2
41110	7	Sololá	701	Sololá	3	Barraneche	8	Agosto	2023-03-08T00:00:00	2024-11-06T02:00:00	7	Dirección del viento	3.22
41111	7	Sololá	701	Sololá	3	Barraneche	8	Agosto	2023-03-08T00:00:00	2024-11-06T02:00:00	1	Precipitación	0
41112	7	Sololá	701	Sololá	3	Barraneche	8	Agosto	2023-03-08T00:00:00	2024-11-06T02:00:00	8	Radiación solar	0
41113	7	Sololá	701	Sololá	3	Barraneche	8	Agosto	2023-03-08T00:00:00	2024-11-06T03:00:00	2	Temperatura media	12.3
41114	7	Sololá	701	Sololá	3	Barraneche	8	Agosto	2023-03-08T00:00:00	2024-11-06T03:00:00	4	Temperatura máxima	12.9
41115	7	Sololá	701	Sololá	3	Barraneche	8	Agosto	2023-03-08T00:00:00	2024-11-06T03:00:00	3	Temperatura mínima	12.3
41116	7	Sololá	701	Sololá	3	Barraneche	8	Agosto	2023-03-08T00:00:00	2024-11-06T03:00:00	5	Humedad	71
41117	7	Sololá	701	Sololá	3	Barraneche	8	Agosto	2023-03-08T00:00:00	2024-11-06T03:00:00	6	Velocidad del viento	3.2
41118	7	Sololá	701	Sololá	3	Barraneche	8	Agosto	2023-03-08T00:00:00	2024-11-06T03:00:00	7	Dirección del viento	3.22
41119	7	Sololá	701	Sololá	3	Barraneche	8	Agosto	2023-03-08T00:00:00	2024-11-06T03:00:00	1	Precipitación	0
41120	7	Sololá	701	Sololá	3	Barraneche	8	Agosto	2023-03-08T00:00:00	2024-11-06T03:00:00	8	Radiación solar	0
41121	7	Sololá	701	Sololá	3	Barraneche	8	Agosto	2023-03-08T00:00:00	2024-11-06T04:00:00	2	Temperatura media	12.7
41122	7	Sololá	701	Sololá	3	Barraneche	8	Agosto	2023-03-08T00:00:00	2024-11-06T04:00:00	4	Temperatura máxima	12.9
41123	7	Sololá	701	Sololá	3	Barraneche	8	Agosto	2023-03-08T00:00:00	2024-11-06T04:00:00	3	Temperatura mínima	12.3
41124	7	Sololá	701	Sololá	3	Barraneche	8	Agosto	2023-03-08T00:00:00	2024-11-06T04:00:00	5	Humedad	69
41125	7	Sololá	701	Sololá	3	Barraneche	8	Agosto	2023-03-08T00:00:00	2024-11-06T04:00:00	6	Velocidad del viento	4.8
41126	7	Sololá	701	Sololá	3	Barraneche	8	Agosto	2023-03-08T00:00:00	2024-11-06T04:00:00	7	Dirección del viento	4.83
41127	7	Sololá	701	Sololá	3	Barraneche	8	Agosto	2023-03-08T00:00:00	2024-11-06T04:00:00	1	Precipitación	0
41128	7	Sololá	701	Sololá	3	Barraneche	8	Agosto	2023-03-08T00:00:00	2024-11-06T04:00:00	8	Radiación solar	0
41129	7	Sololá	701	Sololá	3	Barraneche	8	Agosto	2023-03-08T00:00:00	2024-11-06T05:00:00	2	Temperatura media	11.7
41130	7	Sololá	701	Sololá	3	Barraneche	8	Agosto	2023-03-08T00:00:00	2024-11-06T05:00:00	4	Temperatura máxima	12.7
41131	7	Sololá	701	Sololá	3	Barraneche	8	Agosto	2023-03-08T00:00:00	2024-11-06T05:00:00	3	Temperatura mínima	11.7
41132	7	Sololá	701	Sololá	3	Barraneche	8	Agosto	2023-03-08T00:00:00	2024-11-06T05:00:00	5	Humedad	69
41133	7	Sololá	701	Sololá	3	Barraneche	8	Agosto	2023-03-08T00:00:00	2024-11-06T05:00:00	6	Velocidad del viento	4.8
41134	7	Sololá	701	Sololá	3	Barraneche	8	Agosto	2023-03-08T00:00:00	2024-11-06T05:00:00	7	Dirección del viento	4.83
41135	7	Sololá	701	Sololá	3	Barraneche	8	Agosto	2023-03-08T00:00:00	2024-11-06T05:00:00	1	Precipitación	0
41136	7	Sololá	701	Sololá	3	Barraneche	8	Agosto	2023-03-08T00:00:00	2024-11-06T05:00:00	8	Radiación solar	0
41137	7	Sololá	701	Sololá	3	Barraneche	8	Agosto	2023-03-08T00:00:00	2024-11-06T06:00:00	2	Temperatura media	11.7
41138	7	Sololá	701	Sololá	3	Barraneche	8	Agosto	2023-03-08T00:00:00	2024-11-06T06:00:00	4	Temperatura máxima	12.1
41139	7	Sololá	701	Sololá	3	Barraneche	8	Agosto	2023-03-08T00:00:00	2024-11-06T06:00:00	3	Temperatura mínima	11.6
41140	7	Sololá	701	Sololá	3	Barraneche	8	Agosto	2023-03-08T00:00:00	2024-11-06T06:00:00	5	Humedad	69
41141	7	Sololá	701	Sololá	3	Barraneche	8	Agosto	2023-03-08T00:00:00	2024-11-06T06:00:00	6	Velocidad del viento	6.4
41142	7	Sololá	701	Sololá	3	Barraneche	8	Agosto	2023-03-08T00:00:00	2024-11-06T06:00:00	7	Dirección del viento	6.44
41143	7	Sololá	701	Sololá	3	Barraneche	8	Agosto	2023-03-08T00:00:00	2024-11-06T06:00:00	1	Precipitación	0
41144	7	Sololá	701	Sololá	3	Barraneche	8	Agosto	2023-03-08T00:00:00	2024-11-06T06:00:00	8	Radiación solar	1
41145	7	Sololá	701	Sololá	3	Barraneche	8	Agosto	2023-03-08T00:00:00	2024-11-06T07:00:00	2	Temperatura media	14.3
41146	7	Sololá	701	Sololá	3	Barraneche	8	Agosto	2023-03-08T00:00:00	2024-11-06T07:00:00	4	Temperatura máxima	14.3
41147	7	Sololá	701	Sololá	3	Barraneche	8	Agosto	2023-03-08T00:00:00	2024-11-06T07:00:00	3	Temperatura mínima	11.7
41148	7	Sololá	701	Sololá	3	Barraneche	8	Agosto	2023-03-08T00:00:00	2024-11-06T07:00:00	5	Humedad	65
41149	7	Sololá	701	Sololá	3	Barraneche	8	Agosto	2023-03-08T00:00:00	2024-11-06T07:00:00	6	Velocidad del viento	8
41150	7	Sololá	701	Sololá	3	Barraneche	8	Agosto	2023-03-08T00:00:00	2024-11-06T07:00:00	7	Dirección del viento	8.05
41151	7	Sololá	701	Sololá	3	Barraneche	8	Agosto	2023-03-08T00:00:00	2024-11-06T07:00:00	1	Precipitación	0
41152	7	Sololá	701	Sololá	3	Barraneche	8	Agosto	2023-03-08T00:00:00	2024-11-06T07:00:00	8	Radiación solar	72
41153	7	Sololá	701	Sololá	3	Barraneche	8	Agosto	2023-03-08T00:00:00	2024-11-06T08:00:00	2	Temperatura media	17.3
41154	7	Sololá	701	Sololá	3	Barraneche	8	Agosto	2023-03-08T00:00:00	2024-11-06T08:00:00	4	Temperatura máxima	17.3
41155	7	Sololá	701	Sololá	3	Barraneche	8	Agosto	2023-03-08T00:00:00	2024-11-06T08:00:00	3	Temperatura mínima	14.2
41156	7	Sololá	701	Sololá	3	Barraneche	8	Agosto	2023-03-08T00:00:00	2024-11-06T08:00:00	5	Humedad	59
41157	7	Sololá	701	Sololá	3	Barraneche	8	Agosto	2023-03-08T00:00:00	2024-11-06T08:00:00	6	Velocidad del viento	4.8
41158	7	Sololá	701	Sololá	3	Barraneche	8	Agosto	2023-03-08T00:00:00	2024-11-06T08:00:00	7	Dirección del viento	4.83
41159	7	Sololá	701	Sololá	3	Barraneche	8	Agosto	2023-03-08T00:00:00	2024-11-06T08:00:00	1	Precipitación	0
41160	7	Sololá	701	Sololá	3	Barraneche	8	Agosto	2023-03-08T00:00:00	2024-11-06T08:00:00	8	Radiación solar	327
41161	7	Sololá	701	Sololá	3	Barraneche	8	Agosto	2023-03-08T00:00:00	2024-11-06T09:00:00	2	Temperatura media	16.8
41162	7	Sololá	701	Sololá	3	Barraneche	8	Agosto	2023-03-08T00:00:00	2024-11-06T09:00:00	4	Temperatura máxima	17.6
41163	7	Sololá	701	Sololá	3	Barraneche	8	Agosto	2023-03-08T00:00:00	2024-11-06T09:00:00	3	Temperatura mínima	16.8
41164	7	Sololá	701	Sololá	3	Barraneche	8	Agosto	2023-03-08T00:00:00	2024-11-06T09:00:00	5	Humedad	60
41165	7	Sololá	701	Sololá	3	Barraneche	8	Agosto	2023-03-08T00:00:00	2024-11-06T09:00:00	6	Velocidad del viento	6.4
41166	7	Sololá	701	Sololá	3	Barraneche	8	Agosto	2023-03-08T00:00:00	2024-11-06T09:00:00	7	Dirección del viento	6.44
41167	7	Sololá	701	Sololá	3	Barraneche	8	Agosto	2023-03-08T00:00:00	2024-11-06T09:00:00	1	Precipitación	0
41168	7	Sololá	701	Sololá	3	Barraneche	8	Agosto	2023-03-08T00:00:00	2024-11-06T09:00:00	8	Radiación solar	308
41169	7	Sololá	701	Sololá	3	Barraneche	8	Agosto	2023-03-08T00:00:00	2024-11-06T10:00:00	2	Temperatura media	18.5
41170	7	Sololá	701	Sololá	3	Barraneche	8	Agosto	2023-03-08T00:00:00	2024-11-06T10:00:00	4	Temperatura máxima	18.5
41171	7	Sololá	701	Sololá	3	Barraneche	8	Agosto	2023-03-08T00:00:00	2024-11-06T10:00:00	3	Temperatura mínima	16.8
41172	7	Sololá	701	Sololá	3	Barraneche	8	Agosto	2023-03-08T00:00:00	2024-11-06T10:00:00	5	Humedad	58
41173	7	Sololá	701	Sololá	3	Barraneche	8	Agosto	2023-03-08T00:00:00	2024-11-06T10:00:00	6	Velocidad del viento	8
41174	7	Sololá	701	Sololá	3	Barraneche	8	Agosto	2023-03-08T00:00:00	2024-11-06T10:00:00	7	Dirección del viento	8.05
41175	7	Sololá	701	Sololá	3	Barraneche	8	Agosto	2023-03-08T00:00:00	2024-11-06T10:00:00	1	Precipitación	0
41176	7	Sololá	701	Sololá	3	Barraneche	8	Agosto	2023-03-08T00:00:00	2024-11-06T10:00:00	8	Radiación solar	573
41177	7	Sololá	701	Sololá	3	Barraneche	8	Agosto	2023-03-08T00:00:00	2024-11-06T11:00:00	2	Temperatura media	17.6
41178	7	Sololá	701	Sololá	3	Barraneche	8	Agosto	2023-03-08T00:00:00	2024-11-06T11:00:00	4	Temperatura máxima	17.9
41179	7	Sololá	701	Sololá	3	Barraneche	8	Agosto	2023-03-08T00:00:00	2024-11-06T11:00:00	3	Temperatura mínima	17.6
41180	7	Sololá	701	Sololá	3	Barraneche	8	Agosto	2023-03-08T00:00:00	2024-11-06T11:00:00	5	Humedad	80
41181	7	Sololá	701	Sololá	3	Barraneche	8	Agosto	2023-03-08T00:00:00	2024-11-06T11:00:00	6	Velocidad del viento	0
41182	7	Sololá	701	Sololá	3	Barraneche	8	Agosto	2023-03-08T00:00:00	2024-11-06T11:00:00	7	Dirección del viento	0
41183	7	Sololá	701	Sololá	3	Barraneche	8	Agosto	2023-03-08T00:00:00	2024-11-06T11:00:00	1	Precipitación	0
41184	7	Sololá	701	Sololá	3	Barraneche	8	Agosto	2023-03-08T00:00:00	2024-11-06T11:00:00	8	Radiación solar	970
41185	7	Sololá	701	Sololá	3	Barraneche	8	Agosto	2023-03-08T00:00:00	2024-11-06T12:00:00	2	Temperatura media	18.2
41186	7	Sololá	701	Sololá	3	Barraneche	8	Agosto	2023-03-08T00:00:00	2024-11-06T12:00:00	4	Temperatura máxima	18.8
41187	7	Sololá	701	Sololá	3	Barraneche	8	Agosto	2023-03-08T00:00:00	2024-11-06T12:00:00	3	Temperatura mínima	17.5
41188	7	Sololá	701	Sololá	3	Barraneche	8	Agosto	2023-03-08T00:00:00	2024-11-06T12:00:00	5	Humedad	80
41189	7	Sololá	701	Sololá	3	Barraneche	8	Agosto	2023-03-08T00:00:00	2024-11-06T12:00:00	6	Velocidad del viento	0
41190	7	Sololá	701	Sololá	3	Barraneche	8	Agosto	2023-03-08T00:00:00	2024-11-06T12:00:00	7	Dirección del viento	0
41191	7	Sololá	701	Sololá	3	Barraneche	8	Agosto	2023-03-08T00:00:00	2024-11-06T12:00:00	1	Precipitación	0
41192	7	Sololá	701	Sololá	3	Barraneche	8	Agosto	2023-03-08T00:00:00	2024-11-06T12:00:00	8	Radiación solar	502
41193	7	Sololá	701	Sololá	3	Barraneche	8	Agosto	2023-03-08T00:00:00	2024-11-06T13:00:00	2	Temperatura media	14.8
41194	7	Sololá	701	Sololá	3	Barraneche	8	Agosto	2023-03-08T00:00:00	2024-11-06T13:00:00	4	Temperatura máxima	18.2
41195	7	Sololá	701	Sololá	3	Barraneche	8	Agosto	2023-03-08T00:00:00	2024-11-06T13:00:00	3	Temperatura mínima	14.8
41196	7	Sololá	701	Sololá	3	Barraneche	8	Agosto	2023-03-08T00:00:00	2024-11-06T13:00:00	5	Humedad	73
41197	7	Sololá	701	Sololá	3	Barraneche	8	Agosto	2023-03-08T00:00:00	2024-11-06T13:00:00	6	Velocidad del viento	6.4
41198	7	Sololá	701	Sololá	3	Barraneche	8	Agosto	2023-03-08T00:00:00	2024-11-06T13:00:00	7	Dirección del viento	6.44
41199	7	Sololá	701	Sololá	3	Barraneche	8	Agosto	2023-03-08T00:00:00	2024-11-06T13:00:00	1	Precipitación	3.6
41200	7	Sololá	701	Sololá	3	Barraneche	8	Agosto	2023-03-08T00:00:00	2024-11-06T13:00:00	8	Radiación solar	98
41201	7	Sololá	701	Sololá	3	Barraneche	8	Agosto	2023-03-08T00:00:00	2024-11-06T14:00:00	2	Temperatura media	14.2
41202	7	Sololá	701	Sololá	3	Barraneche	8	Agosto	2023-03-08T00:00:00	2024-11-06T14:00:00	4	Temperatura máxima	14.8
41203	7	Sololá	701	Sololá	3	Barraneche	8	Agosto	2023-03-08T00:00:00	2024-11-06T14:00:00	3	Temperatura mínima	14.2
41204	7	Sololá	701	Sololá	3	Barraneche	8	Agosto	2023-03-08T00:00:00	2024-11-06T14:00:00	5	Humedad	74
41205	7	Sololá	701	Sololá	3	Barraneche	8	Agosto	2023-03-08T00:00:00	2024-11-06T14:00:00	6	Velocidad del viento	4.8
41206	7	Sololá	701	Sololá	3	Barraneche	8	Agosto	2023-03-08T00:00:00	2024-11-06T14:00:00	7	Dirección del viento	4.83
41207	7	Sololá	701	Sololá	3	Barraneche	8	Agosto	2023-03-08T00:00:00	2024-11-06T14:00:00	1	Precipitación	2.4
41208	7	Sololá	701	Sololá	3	Barraneche	8	Agosto	2023-03-08T00:00:00	2024-11-06T14:00:00	8	Radiación solar	85
41209	7	Sololá	701	Sololá	3	Barraneche	8	Agosto	2023-03-08T00:00:00	2024-11-06T15:00:00	2	Temperatura media	16.7
41210	7	Sololá	701	Sololá	3	Barraneche	8	Agosto	2023-03-08T00:00:00	2024-11-06T15:00:00	4	Temperatura máxima	16.8
41211	7	Sololá	701	Sololá	3	Barraneche	8	Agosto	2023-03-08T00:00:00	2024-11-06T15:00:00	3	Temperatura mínima	14.2
41212	7	Sololá	701	Sololá	3	Barraneche	8	Agosto	2023-03-08T00:00:00	2024-11-06T15:00:00	5	Humedad	66
41213	7	Sololá	701	Sololá	3	Barraneche	8	Agosto	2023-03-08T00:00:00	2024-11-06T15:00:00	6	Velocidad del viento	3.2
41214	7	Sololá	701	Sololá	3	Barraneche	8	Agosto	2023-03-08T00:00:00	2024-11-06T15:00:00	7	Dirección del viento	3.22
41215	7	Sololá	701	Sololá	3	Barraneche	8	Agosto	2023-03-08T00:00:00	2024-11-06T15:00:00	1	Precipitación	0
41216	7	Sololá	701	Sololá	3	Barraneche	8	Agosto	2023-03-08T00:00:00	2024-11-06T15:00:00	8	Radiación solar	315
41217	7	Sololá	701	Sololá	3	Barraneche	8	Agosto	2023-03-08T00:00:00	2024-11-06T16:00:00	2	Temperatura media	16.3
41218	7	Sololá	701	Sololá	3	Barraneche	8	Agosto	2023-03-08T00:00:00	2024-11-06T16:00:00	4	Temperatura máxima	16.7
41219	7	Sololá	701	Sololá	3	Barraneche	8	Agosto	2023-03-08T00:00:00	2024-11-06T16:00:00	3	Temperatura mínima	16.2
41220	7	Sololá	701	Sololá	3	Barraneche	8	Agosto	2023-03-08T00:00:00	2024-11-06T16:00:00	5	Humedad	67
41221	7	Sololá	701	Sololá	3	Barraneche	8	Agosto	2023-03-08T00:00:00	2024-11-06T16:00:00	6	Velocidad del viento	3.2
41222	7	Sololá	701	Sololá	3	Barraneche	8	Agosto	2023-03-08T00:00:00	2024-11-06T16:00:00	7	Dirección del viento	3.22
41223	7	Sololá	701	Sololá	3	Barraneche	8	Agosto	2023-03-08T00:00:00	2024-11-06T16:00:00	1	Precipitación	0.4
41224	7	Sololá	701	Sololá	3	Barraneche	8	Agosto	2023-03-08T00:00:00	2024-11-06T16:00:00	8	Radiación solar	228
41225	7	Sololá	701	Sololá	3	Barraneche	8	Agosto	2023-03-08T00:00:00	2024-11-06T17:00:00	2	Temperatura media	15.4
41226	7	Sololá	701	Sololá	3	Barraneche	8	Agosto	2023-03-08T00:00:00	2024-11-06T17:00:00	4	Temperatura máxima	16.3
41227	7	Sololá	701	Sololá	3	Barraneche	8	Agosto	2023-03-08T00:00:00	2024-11-06T17:00:00	3	Temperatura mínima	15.4
41228	7	Sololá	701	Sololá	3	Barraneche	8	Agosto	2023-03-08T00:00:00	2024-11-06T17:00:00	5	Humedad	72
41229	7	Sololá	701	Sololá	3	Barraneche	8	Agosto	2023-03-08T00:00:00	2024-11-06T17:00:00	6	Velocidad del viento	1.6
41230	7	Sololá	701	Sololá	3	Barraneche	8	Agosto	2023-03-08T00:00:00	2024-11-06T17:00:00	7	Dirección del viento	1.61
41231	7	Sololá	701	Sololá	3	Barraneche	8	Agosto	2023-03-08T00:00:00	2024-11-06T17:00:00	1	Precipitación	0.2
41232	7	Sololá	701	Sololá	3	Barraneche	8	Agosto	2023-03-08T00:00:00	2024-11-06T17:00:00	8	Radiación solar	112
41233	7	Sololá	701	Sololá	3	Barraneche	8	Agosto	2023-03-08T00:00:00	2024-11-06T18:00:00	2	Temperatura media	14.8
41234	7	Sololá	701	Sololá	3	Barraneche	8	Agosto	2023-03-08T00:00:00	2024-11-06T18:00:00	4	Temperatura máxima	15.4
41235	7	Sololá	701	Sololá	3	Barraneche	8	Agosto	2023-03-08T00:00:00	2024-11-06T18:00:00	3	Temperatura mínima	14.7
41236	7	Sololá	701	Sololá	3	Barraneche	8	Agosto	2023-03-08T00:00:00	2024-11-06T18:00:00	5	Humedad	74
41237	7	Sololá	701	Sololá	3	Barraneche	8	Agosto	2023-03-08T00:00:00	2024-11-06T18:00:00	6	Velocidad del viento	3.2
41238	7	Sololá	701	Sololá	3	Barraneche	8	Agosto	2023-03-08T00:00:00	2024-11-06T18:00:00	7	Dirección del viento	3.22
41239	7	Sololá	701	Sololá	3	Barraneche	8	Agosto	2023-03-08T00:00:00	2024-11-06T18:00:00	1	Precipitación	0
41240	7	Sololá	701	Sololá	3	Barraneche	8	Agosto	2023-03-08T00:00:00	2024-11-06T18:00:00	8	Radiación solar	44
41241	7	Sololá	701	Sololá	3	Barraneche	8	Agosto	2023-03-08T00:00:00	2024-11-06T19:00:00	2	Temperatura media	14.3
41242	7	Sololá	701	Sololá	3	Barraneche	8	Agosto	2023-03-08T00:00:00	2024-11-06T19:00:00	4	Temperatura máxima	14.8
41243	7	Sololá	701	Sololá	3	Barraneche	8	Agosto	2023-03-08T00:00:00	2024-11-06T19:00:00	3	Temperatura mínima	14.3
41244	7	Sololá	701	Sololá	3	Barraneche	8	Agosto	2023-03-08T00:00:00	2024-11-06T19:00:00	5	Humedad	76
41245	7	Sololá	701	Sololá	3	Barraneche	8	Agosto	2023-03-08T00:00:00	2024-11-06T19:00:00	6	Velocidad del viento	3.2
41246	7	Sololá	701	Sololá	3	Barraneche	8	Agosto	2023-03-08T00:00:00	2024-11-06T19:00:00	7	Dirección del viento	3.22
41247	7	Sololá	701	Sololá	3	Barraneche	8	Agosto	2023-03-08T00:00:00	2024-11-06T19:00:00	1	Precipitación	0.8
41248	7	Sololá	701	Sololá	3	Barraneche	8	Agosto	2023-03-08T00:00:00	2024-11-06T19:00:00	8	Radiación solar	0
41249	7	Sololá	701	Sololá	3	Barraneche	8	Agosto	2023-03-08T00:00:00	2024-11-06T20:00:00	2	Temperatura media	13.3
41250	7	Sololá	701	Sololá	3	Barraneche	8	Agosto	2023-03-08T00:00:00	2024-11-06T20:00:00	4	Temperatura máxima	14.3
41251	7	Sololá	701	Sololá	3	Barraneche	8	Agosto	2023-03-08T00:00:00	2024-11-06T20:00:00	3	Temperatura mínima	13.3
41252	7	Sololá	701	Sololá	3	Barraneche	8	Agosto	2023-03-08T00:00:00	2024-11-06T20:00:00	5	Humedad	76
41253	7	Sololá	701	Sololá	3	Barraneche	8	Agosto	2023-03-08T00:00:00	2024-11-06T20:00:00	6	Velocidad del viento	3.2
41254	7	Sololá	701	Sololá	3	Barraneche	8	Agosto	2023-03-08T00:00:00	2024-11-06T20:00:00	7	Dirección del viento	3.22
41255	7	Sololá	701	Sololá	3	Barraneche	8	Agosto	2023-03-08T00:00:00	2024-11-06T20:00:00	1	Precipitación	5.6
41256	7	Sololá	701	Sololá	3	Barraneche	8	Agosto	2023-03-08T00:00:00	2024-11-06T20:00:00	8	Radiación solar	0
41257	7	Sololá	701	Sololá	3	Barraneche	8	Agosto	2023-03-08T00:00:00	2024-11-06T21:00:00	2	Temperatura media	12.6
41258	7	Sololá	701	Sololá	3	Barraneche	8	Agosto	2023-03-08T00:00:00	2024-11-06T21:00:00	4	Temperatura máxima	13.4
41259	7	Sololá	701	Sololá	3	Barraneche	8	Agosto	2023-03-08T00:00:00	2024-11-06T21:00:00	3	Temperatura mínima	12.6
41260	7	Sololá	701	Sololá	3	Barraneche	8	Agosto	2023-03-08T00:00:00	2024-11-06T21:00:00	5	Humedad	73
41261	7	Sololá	701	Sololá	3	Barraneche	8	Agosto	2023-03-08T00:00:00	2024-11-06T21:00:00	6	Velocidad del viento	6.4
41262	7	Sololá	701	Sololá	3	Barraneche	8	Agosto	2023-03-08T00:00:00	2024-11-06T21:00:00	7	Dirección del viento	6.44
41263	7	Sololá	701	Sololá	3	Barraneche	8	Agosto	2023-03-08T00:00:00	2024-11-06T21:00:00	1	Precipitación	5
41264	7	Sololá	701	Sololá	3	Barraneche	8	Agosto	2023-03-08T00:00:00	2024-11-06T21:00:00	8	Radiación solar	0
41265	7	Sololá	701	Sololá	3	Barraneche	8	Agosto	2023-03-08T00:00:00	2024-11-06T22:00:00	2	Temperatura media	12.5
41266	7	Sololá	701	Sololá	3	Barraneche	8	Agosto	2023-03-08T00:00:00	2024-11-06T22:00:00	4	Temperatura máxima	12.7
41267	7	Sololá	701	Sololá	3	Barraneche	8	Agosto	2023-03-08T00:00:00	2024-11-06T22:00:00	3	Temperatura mínima	12.1
41268	7	Sololá	701	Sololá	3	Barraneche	8	Agosto	2023-03-08T00:00:00	2024-11-06T22:00:00	5	Humedad	70
41269	7	Sololá	701	Sololá	3	Barraneche	8	Agosto	2023-03-08T00:00:00	2024-11-06T22:00:00	6	Velocidad del viento	8
41270	7	Sololá	701	Sololá	3	Barraneche	8	Agosto	2023-03-08T00:00:00	2024-11-06T22:00:00	7	Dirección del viento	8.05
41271	7	Sololá	701	Sololá	3	Barraneche	8	Agosto	2023-03-08T00:00:00	2024-11-06T22:00:00	1	Precipitación	1.6
41272	7	Sololá	701	Sololá	3	Barraneche	8	Agosto	2023-03-08T00:00:00	2024-11-06T22:00:00	8	Radiación solar	0
41273	7	Sololá	701	Sololá	3	Barraneche	8	Agosto	2023-03-08T00:00:00	2024-11-06T23:00:00	2	Temperatura media	12.3
41274	7	Sololá	701	Sololá	3	Barraneche	8	Agosto	2023-03-08T00:00:00	2024-11-06T23:00:00	4	Temperatura máxima	12.5
41275	7	Sololá	701	Sololá	3	Barraneche	8	Agosto	2023-03-08T00:00:00	2024-11-06T23:00:00	3	Temperatura mínima	12.2
41276	7	Sololá	701	Sololá	3	Barraneche	8	Agosto	2023-03-08T00:00:00	2024-11-06T23:00:00	5	Humedad	71
41277	7	Sololá	701	Sololá	3	Barraneche	8	Agosto	2023-03-08T00:00:00	2024-11-06T23:00:00	6	Velocidad del viento	8
41278	7	Sololá	701	Sololá	3	Barraneche	8	Agosto	2023-03-08T00:00:00	2024-11-06T23:00:00	7	Dirección del viento	8.05
41279	7	Sololá	701	Sololá	3	Barraneche	8	Agosto	2023-03-08T00:00:00	2024-11-06T23:00:00	1	Precipitación	0
41280	7	Sololá	701	Sololá	3	Barraneche	8	Agosto	2023-03-08T00:00:00	2024-11-06T23:00:00	8	Radiación solar	0
41281	7	Sololá	701	Sololá	3	Barraneche	8	Agosto	2023-04-08T00:00:00	2024-11-06T00:00:00	2	Temperatura media	12.5
41282	7	Sololá	701	Sololá	3	Barraneche	8	Agosto	2023-04-08T00:00:00	2024-11-06T00:00:00	4	Temperatura máxima	12.6
41283	7	Sololá	701	Sololá	3	Barraneche	8	Agosto	2023-04-08T00:00:00	2024-11-06T00:00:00	3	Temperatura mínima	12.2
41284	7	Sololá	701	Sololá	3	Barraneche	8	Agosto	2023-04-08T00:00:00	2024-11-06T00:00:00	5	Humedad	70
41285	7	Sololá	701	Sololá	3	Barraneche	8	Agosto	2023-04-08T00:00:00	2024-11-06T00:00:00	6	Velocidad del viento	8
41286	7	Sololá	701	Sololá	3	Barraneche	8	Agosto	2023-04-08T00:00:00	2024-11-06T00:00:00	7	Dirección del viento	8.05
41287	7	Sololá	701	Sololá	3	Barraneche	8	Agosto	2023-04-08T00:00:00	2024-11-06T00:00:00	1	Precipitación	0.2
41288	7	Sololá	701	Sololá	3	Barraneche	8	Agosto	2023-04-08T00:00:00	2024-11-06T00:00:00	8	Radiación solar	0
41289	7	Sololá	701	Sololá	3	Barraneche	8	Agosto	2023-04-08T00:00:00	2024-11-06T01:00:00	2	Temperatura media	12.6
41290	7	Sololá	701	Sololá	3	Barraneche	8	Agosto	2023-04-08T00:00:00	2024-11-06T01:00:00	4	Temperatura máxima	12.7
41291	7	Sololá	701	Sololá	3	Barraneche	8	Agosto	2023-04-08T00:00:00	2024-11-06T01:00:00	3	Temperatura mínima	12.4
41292	7	Sololá	701	Sololá	3	Barraneche	8	Agosto	2023-04-08T00:00:00	2024-11-06T01:00:00	5	Humedad	69
41293	7	Sololá	701	Sololá	3	Barraneche	8	Agosto	2023-04-08T00:00:00	2024-11-06T01:00:00	6	Velocidad del viento	8
41294	7	Sololá	701	Sololá	3	Barraneche	8	Agosto	2023-04-08T00:00:00	2024-11-06T01:00:00	7	Dirección del viento	8.05
41295	7	Sololá	701	Sololá	3	Barraneche	8	Agosto	2023-04-08T00:00:00	2024-11-06T01:00:00	1	Precipitación	0
41296	7	Sololá	701	Sololá	3	Barraneche	8	Agosto	2023-04-08T00:00:00	2024-11-06T01:00:00	8	Radiación solar	0
41297	7	Sololá	701	Sololá	3	Barraneche	8	Agosto	2023-04-08T00:00:00	2024-11-06T02:00:00	2	Temperatura media	11.5
41298	7	Sololá	701	Sololá	3	Barraneche	8	Agosto	2023-04-08T00:00:00	2024-11-06T02:00:00	4	Temperatura máxima	12.7
41299	7	Sololá	701	Sololá	3	Barraneche	8	Agosto	2023-04-08T00:00:00	2024-11-06T02:00:00	3	Temperatura mínima	11.5
41300	7	Sololá	701	Sololá	3	Barraneche	8	Agosto	2023-04-08T00:00:00	2024-11-06T02:00:00	5	Humedad	73
41301	7	Sololá	701	Sololá	3	Barraneche	8	Agosto	2023-04-08T00:00:00	2024-11-06T02:00:00	6	Velocidad del viento	3.2
41302	7	Sololá	701	Sololá	3	Barraneche	8	Agosto	2023-04-08T00:00:00	2024-11-06T02:00:00	7	Dirección del viento	3.22
41303	7	Sololá	701	Sololá	3	Barraneche	8	Agosto	2023-04-08T00:00:00	2024-11-06T02:00:00	1	Precipitación	0
41304	7	Sololá	701	Sololá	3	Barraneche	8	Agosto	2023-04-08T00:00:00	2024-11-06T02:00:00	8	Radiación solar	0
41305	7	Sololá	701	Sololá	3	Barraneche	8	Agosto	2023-04-08T00:00:00	2024-11-06T03:00:00	2	Temperatura media	12
41306	7	Sololá	701	Sololá	3	Barraneche	8	Agosto	2023-04-08T00:00:00	2024-11-06T03:00:00	4	Temperatura máxima	12
41307	7	Sololá	701	Sololá	3	Barraneche	8	Agosto	2023-04-08T00:00:00	2024-11-06T03:00:00	3	Temperatura mínima	11.3
41308	7	Sololá	701	Sololá	3	Barraneche	8	Agosto	2023-04-08T00:00:00	2024-11-06T03:00:00	5	Humedad	69
41309	7	Sololá	701	Sololá	3	Barraneche	8	Agosto	2023-04-08T00:00:00	2024-11-06T03:00:00	6	Velocidad del viento	6.4
41310	7	Sololá	701	Sololá	3	Barraneche	8	Agosto	2023-04-08T00:00:00	2024-11-06T03:00:00	7	Dirección del viento	6.44
41311	7	Sololá	701	Sololá	3	Barraneche	8	Agosto	2023-04-08T00:00:00	2024-11-06T03:00:00	1	Precipitación	0
41312	7	Sololá	701	Sololá	3	Barraneche	8	Agosto	2023-04-08T00:00:00	2024-11-06T03:00:00	8	Radiación solar	0
41313	7	Sololá	701	Sololá	3	Barraneche	8	Agosto	2023-04-08T00:00:00	2024-11-06T04:00:00	2	Temperatura media	12.2
41314	7	Sololá	701	Sololá	3	Barraneche	8	Agosto	2023-04-08T00:00:00	2024-11-06T04:00:00	4	Temperatura máxima	12.2
41315	7	Sololá	701	Sololá	3	Barraneche	8	Agosto	2023-04-08T00:00:00	2024-11-06T04:00:00	3	Temperatura mínima	11.8
41316	7	Sololá	701	Sololá	3	Barraneche	8	Agosto	2023-04-08T00:00:00	2024-11-06T04:00:00	5	Humedad	70
41317	7	Sololá	701	Sololá	3	Barraneche	8	Agosto	2023-04-08T00:00:00	2024-11-06T04:00:00	6	Velocidad del viento	6.4
41318	7	Sololá	701	Sololá	3	Barraneche	8	Agosto	2023-04-08T00:00:00	2024-11-06T04:00:00	7	Dirección del viento	6.44
41319	7	Sololá	701	Sololá	3	Barraneche	8	Agosto	2023-04-08T00:00:00	2024-11-06T04:00:00	1	Precipitación	0
41320	7	Sololá	701	Sololá	3	Barraneche	8	Agosto	2023-04-08T00:00:00	2024-11-06T04:00:00	8	Radiación solar	0
41321	7	Sololá	701	Sololá	3	Barraneche	8	Agosto	2023-04-08T00:00:00	2024-11-06T05:00:00	2	Temperatura media	12.7
41322	7	Sololá	701	Sololá	3	Barraneche	8	Agosto	2023-04-08T00:00:00	2024-11-06T05:00:00	4	Temperatura máxima	12.7
41323	7	Sololá	701	Sololá	3	Barraneche	8	Agosto	2023-04-08T00:00:00	2024-11-06T05:00:00	3	Temperatura mínima	12.2
41324	7	Sololá	701	Sololá	3	Barraneche	8	Agosto	2023-04-08T00:00:00	2024-11-06T05:00:00	5	Humedad	69
41325	7	Sololá	701	Sololá	3	Barraneche	8	Agosto	2023-04-08T00:00:00	2024-11-06T05:00:00	6	Velocidad del viento	6.4
41326	7	Sololá	701	Sololá	3	Barraneche	8	Agosto	2023-04-08T00:00:00	2024-11-06T05:00:00	7	Dirección del viento	6.44
41327	7	Sololá	701	Sololá	3	Barraneche	8	Agosto	2023-04-08T00:00:00	2024-11-06T05:00:00	1	Precipitación	0
41328	7	Sololá	701	Sololá	3	Barraneche	8	Agosto	2023-04-08T00:00:00	2024-11-06T05:00:00	8	Radiación solar	0
41329	7	Sololá	701	Sololá	3	Barraneche	8	Agosto	2023-04-08T00:00:00	2024-11-06T06:00:00	2	Temperatura media	13.1
41330	7	Sololá	701	Sololá	3	Barraneche	8	Agosto	2023-04-08T00:00:00	2024-11-06T06:00:00	4	Temperatura máxima	13.1
41331	7	Sololá	701	Sololá	3	Barraneche	8	Agosto	2023-04-08T00:00:00	2024-11-06T06:00:00	3	Temperatura mínima	12.6
41332	7	Sololá	701	Sololá	3	Barraneche	8	Agosto	2023-04-08T00:00:00	2024-11-06T06:00:00	5	Humedad	67
41333	7	Sololá	701	Sololá	3	Barraneche	8	Agosto	2023-04-08T00:00:00	2024-11-06T06:00:00	6	Velocidad del viento	8
41334	7	Sololá	701	Sololá	3	Barraneche	8	Agosto	2023-04-08T00:00:00	2024-11-06T06:00:00	7	Dirección del viento	8.05
41335	7	Sololá	701	Sololá	3	Barraneche	8	Agosto	2023-04-08T00:00:00	2024-11-06T06:00:00	1	Precipitación	0
41336	7	Sololá	701	Sololá	3	Barraneche	8	Agosto	2023-04-08T00:00:00	2024-11-06T06:00:00	8	Radiación solar	1
41337	7	Sololá	701	Sololá	3	Barraneche	8	Agosto	2023-04-08T00:00:00	2024-11-06T07:00:00	2	Temperatura media	13.9
41338	7	Sololá	701	Sololá	3	Barraneche	8	Agosto	2023-04-08T00:00:00	2024-11-06T07:00:00	4	Temperatura máxima	13.9
41339	7	Sololá	701	Sololá	3	Barraneche	8	Agosto	2023-04-08T00:00:00	2024-11-06T07:00:00	3	Temperatura mínima	13.1
41340	7	Sololá	701	Sololá	3	Barraneche	8	Agosto	2023-04-08T00:00:00	2024-11-06T07:00:00	5	Humedad	68
41341	7	Sololá	701	Sololá	3	Barraneche	8	Agosto	2023-04-08T00:00:00	2024-11-06T07:00:00	6	Velocidad del viento	6.4
41342	7	Sololá	701	Sololá	3	Barraneche	8	Agosto	2023-04-08T00:00:00	2024-11-06T07:00:00	7	Dirección del viento	6.44
41343	7	Sololá	701	Sololá	3	Barraneche	8	Agosto	2023-04-08T00:00:00	2024-11-06T07:00:00	1	Precipitación	0
41344	7	Sololá	701	Sololá	3	Barraneche	8	Agosto	2023-04-08T00:00:00	2024-11-06T07:00:00	8	Radiación solar	63
41345	7	Sololá	701	Sololá	3	Barraneche	8	Agosto	2023-04-08T00:00:00	2024-11-06T08:00:00	2	Temperatura media	15.4
41346	7	Sololá	701	Sololá	3	Barraneche	8	Agosto	2023-04-08T00:00:00	2024-11-06T08:00:00	4	Temperatura máxima	15.4
41347	7	Sololá	701	Sololá	3	Barraneche	8	Agosto	2023-04-08T00:00:00	2024-11-06T08:00:00	3	Temperatura mínima	13.9
41348	7	Sololá	701	Sololá	3	Barraneche	8	Agosto	2023-04-08T00:00:00	2024-11-06T08:00:00	5	Humedad	67
41349	7	Sololá	701	Sololá	3	Barraneche	8	Agosto	2023-04-08T00:00:00	2024-11-06T08:00:00	6	Velocidad del viento	4.8
41350	7	Sololá	701	Sololá	3	Barraneche	8	Agosto	2023-04-08T00:00:00	2024-11-06T08:00:00	7	Dirección del viento	4.83
41351	7	Sololá	701	Sololá	3	Barraneche	8	Agosto	2023-04-08T00:00:00	2024-11-06T08:00:00	1	Precipitación	0
41352	7	Sololá	701	Sololá	3	Barraneche	8	Agosto	2023-04-08T00:00:00	2024-11-06T08:00:00	8	Radiación solar	170
41353	7	Sololá	701	Sololá	3	Barraneche	8	Agosto	2023-04-08T00:00:00	2024-11-06T09:00:00	2	Temperatura media	18.8
41354	7	Sololá	701	Sololá	3	Barraneche	8	Agosto	2023-04-08T00:00:00	2024-11-06T09:00:00	4	Temperatura máxima	18.8
41355	7	Sololá	701	Sololá	3	Barraneche	8	Agosto	2023-04-08T00:00:00	2024-11-06T09:00:00	3	Temperatura mínima	15.4
41356	7	Sololá	701	Sololá	3	Barraneche	8	Agosto	2023-04-08T00:00:00	2024-11-06T09:00:00	5	Humedad	54
41357	7	Sololá	701	Sololá	3	Barraneche	8	Agosto	2023-04-08T00:00:00	2024-11-06T09:00:00	6	Velocidad del viento	1.6
41358	7	Sololá	701	Sololá	3	Barraneche	8	Agosto	2023-04-08T00:00:00	2024-11-06T09:00:00	7	Dirección del viento	1.61
41359	7	Sololá	701	Sololá	3	Barraneche	8	Agosto	2023-04-08T00:00:00	2024-11-06T09:00:00	1	Precipitación	0
41360	7	Sololá	701	Sololá	3	Barraneche	8	Agosto	2023-04-08T00:00:00	2024-11-06T09:00:00	8	Radiación solar	408
41361	7	Sololá	701	Sololá	3	Barraneche	8	Agosto	2023-04-08T00:00:00	2024-11-06T10:00:00	2	Temperatura media	18.7
41362	7	Sololá	701	Sololá	3	Barraneche	8	Agosto	2023-04-08T00:00:00	2024-11-06T10:00:00	4	Temperatura máxima	18.8
41363	7	Sololá	701	Sololá	3	Barraneche	8	Agosto	2023-04-08T00:00:00	2024-11-06T10:00:00	3	Temperatura mínima	17.9
41364	7	Sololá	701	Sololá	3	Barraneche	8	Agosto	2023-04-08T00:00:00	2024-11-06T10:00:00	5	Humedad	57
41365	7	Sololá	701	Sololá	3	Barraneche	8	Agosto	2023-04-08T00:00:00	2024-11-06T10:00:00	6	Velocidad del viento	4.8
41366	7	Sololá	701	Sololá	3	Barraneche	8	Agosto	2023-04-08T00:00:00	2024-11-06T10:00:00	7	Dirección del viento	4.83
41367	7	Sololá	701	Sololá	3	Barraneche	8	Agosto	2023-04-08T00:00:00	2024-11-06T10:00:00	1	Precipitación	0
41368	7	Sololá	701	Sololá	3	Barraneche	8	Agosto	2023-04-08T00:00:00	2024-11-06T10:00:00	8	Radiación solar	435
41369	7	Sololá	701	Sololá	3	Barraneche	8	Agosto	2023-04-08T00:00:00	2024-11-06T11:00:00	2	Temperatura media	19.8
41370	7	Sololá	701	Sololá	3	Barraneche	8	Agosto	2023-04-08T00:00:00	2024-11-06T11:00:00	4	Temperatura máxima	19.8
41371	7	Sololá	701	Sololá	3	Barraneche	8	Agosto	2023-04-08T00:00:00	2024-11-06T11:00:00	3	Temperatura mínima	18.7
41372	7	Sololá	701	Sololá	3	Barraneche	8	Agosto	2023-04-08T00:00:00	2024-11-06T11:00:00	5	Humedad	54
41373	7	Sololá	701	Sololá	3	Barraneche	8	Agosto	2023-04-08T00:00:00	2024-11-06T11:00:00	6	Velocidad del viento	8
41374	7	Sololá	701	Sololá	3	Barraneche	8	Agosto	2023-04-08T00:00:00	2024-11-06T11:00:00	7	Dirección del viento	8.05
41375	7	Sololá	701	Sololá	3	Barraneche	8	Agosto	2023-04-08T00:00:00	2024-11-06T11:00:00	1	Precipitación	0
41376	7	Sololá	701	Sololá	3	Barraneche	8	Agosto	2023-04-08T00:00:00	2024-11-06T11:00:00	8	Radiación solar	656
41377	7	Sololá	701	Sololá	3	Barraneche	8	Agosto	2023-04-08T00:00:00	2024-11-06T12:00:00	2	Temperatura media	20.8
41378	7	Sololá	701	Sololá	3	Barraneche	8	Agosto	2023-04-08T00:00:00	2024-11-06T12:00:00	4	Temperatura máxima	21
41379	7	Sololá	701	Sololá	3	Barraneche	8	Agosto	2023-04-08T00:00:00	2024-11-06T12:00:00	3	Temperatura mínima	19.8
41380	7	Sololá	701	Sololá	3	Barraneche	8	Agosto	2023-04-08T00:00:00	2024-11-06T12:00:00	5	Humedad	48
41381	7	Sololá	701	Sololá	3	Barraneche	8	Agosto	2023-04-08T00:00:00	2024-11-06T12:00:00	6	Velocidad del viento	6.4
41382	7	Sololá	701	Sololá	3	Barraneche	8	Agosto	2023-04-08T00:00:00	2024-11-06T12:00:00	7	Dirección del viento	6.44
41383	7	Sololá	701	Sololá	3	Barraneche	8	Agosto	2023-04-08T00:00:00	2024-11-06T12:00:00	1	Precipitación	0
41384	7	Sololá	701	Sololá	3	Barraneche	8	Agosto	2023-04-08T00:00:00	2024-11-06T12:00:00	8	Radiación solar	744
41385	7	Sololá	701	Sololá	3	Barraneche	8	Agosto	2023-04-08T00:00:00	2024-11-06T13:00:00	2	Temperatura media	20
41386	7	Sololá	701	Sololá	3	Barraneche	8	Agosto	2023-04-08T00:00:00	2024-11-06T13:00:00	4	Temperatura máxima	21.1
41387	7	Sololá	701	Sololá	3	Barraneche	8	Agosto	2023-04-08T00:00:00	2024-11-06T13:00:00	3	Temperatura mínima	19.9
41388	7	Sololá	701	Sololá	3	Barraneche	8	Agosto	2023-04-08T00:00:00	2024-11-06T13:00:00	5	Humedad	49
41389	7	Sololá	701	Sololá	3	Barraneche	8	Agosto	2023-04-08T00:00:00	2024-11-06T13:00:00	6	Velocidad del viento	12.9
41390	7	Sololá	701	Sololá	3	Barraneche	8	Agosto	2023-04-08T00:00:00	2024-11-06T13:00:00	7	Dirección del viento	12.87
41391	7	Sololá	701	Sololá	3	Barraneche	8	Agosto	2023-04-08T00:00:00	2024-11-06T13:00:00	1	Precipitación	0
41392	7	Sololá	701	Sololá	3	Barraneche	8	Agosto	2023-04-08T00:00:00	2024-11-06T13:00:00	8	Radiación solar	700
41393	7	Sololá	701	Sololá	3	Barraneche	8	Agosto	2023-04-08T00:00:00	2024-11-06T14:00:00	2	Temperatura media	20.1
41394	7	Sololá	701	Sololá	3	Barraneche	8	Agosto	2023-04-08T00:00:00	2024-11-06T14:00:00	4	Temperatura máxima	20.4
41395	7	Sololá	701	Sololá	3	Barraneche	8	Agosto	2023-04-08T00:00:00	2024-11-06T14:00:00	3	Temperatura mínima	19.9
41396	7	Sololá	701	Sololá	3	Barraneche	8	Agosto	2023-04-08T00:00:00	2024-11-06T14:00:00	5	Humedad	53
41397	7	Sololá	701	Sololá	3	Barraneche	8	Agosto	2023-04-08T00:00:00	2024-11-06T14:00:00	6	Velocidad del viento	14.5
41398	7	Sololá	701	Sololá	3	Barraneche	8	Agosto	2023-04-08T00:00:00	2024-11-06T14:00:00	7	Dirección del viento	14.48
41399	7	Sololá	701	Sololá	3	Barraneche	8	Agosto	2023-04-08T00:00:00	2024-11-06T14:00:00	1	Precipitación	0
41400	7	Sololá	701	Sololá	3	Barraneche	8	Agosto	2023-04-08T00:00:00	2024-11-06T14:00:00	8	Radiación solar	932
41401	7	Sololá	701	Sololá	3	Barraneche	8	Agosto	2023-04-08T00:00:00	2024-11-06T15:00:00	2	Temperatura media	20.4
41402	7	Sololá	701	Sololá	3	Barraneche	8	Agosto	2023-04-08T00:00:00	2024-11-06T15:00:00	4	Temperatura máxima	20.4
41403	7	Sololá	701	Sololá	3	Barraneche	8	Agosto	2023-04-08T00:00:00	2024-11-06T15:00:00	3	Temperatura mínima	19.9
41404	7	Sololá	701	Sololá	3	Barraneche	8	Agosto	2023-04-08T00:00:00	2024-11-06T15:00:00	5	Humedad	47
41405	7	Sololá	701	Sololá	3	Barraneche	8	Agosto	2023-04-08T00:00:00	2024-11-06T15:00:00	6	Velocidad del viento	11.3
41406	7	Sololá	701	Sololá	3	Barraneche	8	Agosto	2023-04-08T00:00:00	2024-11-06T15:00:00	7	Dirección del viento	11.27
41407	7	Sololá	701	Sololá	3	Barraneche	8	Agosto	2023-04-08T00:00:00	2024-11-06T15:00:00	1	Precipitación	0
41408	7	Sololá	701	Sololá	3	Barraneche	8	Agosto	2023-04-08T00:00:00	2024-11-06T15:00:00	8	Radiación solar	905
41409	7	Sololá	701	Sololá	3	Barraneche	8	Agosto	2023-04-08T00:00:00	2024-11-06T16:00:00	2	Temperatura media	20.2
41410	7	Sololá	701	Sololá	3	Barraneche	8	Agosto	2023-04-08T00:00:00	2024-11-06T16:00:00	4	Temperatura máxima	20.8
41411	7	Sololá	701	Sololá	3	Barraneche	8	Agosto	2023-04-08T00:00:00	2024-11-06T16:00:00	3	Temperatura mínima	20.1
41412	7	Sololá	701	Sololá	3	Barraneche	8	Agosto	2023-04-08T00:00:00	2024-11-06T16:00:00	5	Humedad	44
41413	7	Sololá	701	Sololá	3	Barraneche	8	Agosto	2023-04-08T00:00:00	2024-11-06T16:00:00	6	Velocidad del viento	9.7
41414	7	Sololá	701	Sololá	3	Barraneche	8	Agosto	2023-04-08T00:00:00	2024-11-06T16:00:00	7	Dirección del viento	9.66
41415	7	Sololá	701	Sololá	3	Barraneche	8	Agosto	2023-04-08T00:00:00	2024-11-06T16:00:00	1	Precipitación	0
41416	7	Sololá	701	Sololá	3	Barraneche	8	Agosto	2023-04-08T00:00:00	2024-11-06T16:00:00	8	Radiación solar	562
41417	7	Sololá	701	Sololá	3	Barraneche	8	Agosto	2023-04-08T00:00:00	2024-11-06T17:00:00	2	Temperatura media	19.3
41418	7	Sololá	701	Sololá	3	Barraneche	8	Agosto	2023-04-08T00:00:00	2024-11-06T17:00:00	4	Temperatura máxima	20.2
41419	7	Sololá	701	Sololá	3	Barraneche	8	Agosto	2023-04-08T00:00:00	2024-11-06T17:00:00	3	Temperatura mínima	19.1
41420	7	Sololá	701	Sololá	3	Barraneche	8	Agosto	2023-04-08T00:00:00	2024-11-06T17:00:00	5	Humedad	63
41421	7	Sololá	701	Sololá	3	Barraneche	8	Agosto	2023-04-08T00:00:00	2024-11-06T17:00:00	6	Velocidad del viento	6.4
41422	7	Sololá	701	Sololá	3	Barraneche	8	Agosto	2023-04-08T00:00:00	2024-11-06T17:00:00	7	Dirección del viento	6.44
41423	7	Sololá	701	Sololá	3	Barraneche	8	Agosto	2023-04-08T00:00:00	2024-11-06T17:00:00	1	Precipitación	0
41424	7	Sololá	701	Sololá	3	Barraneche	8	Agosto	2023-04-08T00:00:00	2024-11-06T17:00:00	8	Radiación solar	194
41425	7	Sololá	701	Sololá	3	Barraneche	8	Agosto	2023-04-08T00:00:00	2024-11-06T18:00:00	2	Temperatura media	17.1
41426	7	Sololá	701	Sololá	3	Barraneche	8	Agosto	2023-04-08T00:00:00	2024-11-06T18:00:00	4	Temperatura máxima	19.2
41427	7	Sololá	701	Sololá	3	Barraneche	8	Agosto	2023-04-08T00:00:00	2024-11-06T18:00:00	3	Temperatura mínima	17.1
41428	7	Sololá	701	Sololá	3	Barraneche	8	Agosto	2023-04-08T00:00:00	2024-11-06T18:00:00	5	Humedad	70
41429	7	Sololá	701	Sololá	3	Barraneche	8	Agosto	2023-04-08T00:00:00	2024-11-06T18:00:00	6	Velocidad del viento	6.4
41430	7	Sololá	701	Sololá	3	Barraneche	8	Agosto	2023-04-08T00:00:00	2024-11-06T18:00:00	7	Dirección del viento	6.44
41431	7	Sololá	701	Sololá	3	Barraneche	8	Agosto	2023-04-08T00:00:00	2024-11-06T18:00:00	1	Precipitación	0
41432	7	Sololá	701	Sololá	3	Barraneche	8	Agosto	2023-04-08T00:00:00	2024-11-06T18:00:00	8	Radiación solar	127
41433	7	Sololá	701	Sololá	3	Barraneche	8	Agosto	2023-04-08T00:00:00	2024-11-06T19:00:00	2	Temperatura media	15.5
41434	7	Sololá	701	Sololá	3	Barraneche	8	Agosto	2023-04-08T00:00:00	2024-11-06T19:00:00	4	Temperatura máxima	17.1
41435	7	Sololá	701	Sololá	3	Barraneche	8	Agosto	2023-04-08T00:00:00	2024-11-06T19:00:00	3	Temperatura mínima	15.5
41436	7	Sololá	701	Sololá	3	Barraneche	8	Agosto	2023-04-08T00:00:00	2024-11-06T19:00:00	5	Humedad	73
41437	7	Sololá	701	Sololá	3	Barraneche	8	Agosto	2023-04-08T00:00:00	2024-11-06T19:00:00	6	Velocidad del viento	4.8
41438	7	Sololá	701	Sololá	3	Barraneche	8	Agosto	2023-04-08T00:00:00	2024-11-06T19:00:00	7	Dirección del viento	4.83
41439	7	Sololá	701	Sololá	3	Barraneche	8	Agosto	2023-04-08T00:00:00	2024-11-06T19:00:00	1	Precipitación	0
41440	7	Sololá	701	Sololá	3	Barraneche	8	Agosto	2023-04-08T00:00:00	2024-11-06T19:00:00	8	Radiación solar	0
41441	7	Sololá	701	Sololá	3	Barraneche	8	Agosto	2023-04-08T00:00:00	2024-11-06T20:00:00	2	Temperatura media	14.1
41442	7	Sololá	701	Sololá	3	Barraneche	8	Agosto	2023-04-08T00:00:00	2024-11-06T20:00:00	4	Temperatura máxima	15.4
41443	7	Sololá	701	Sololá	3	Barraneche	8	Agosto	2023-04-08T00:00:00	2024-11-06T20:00:00	3	Temperatura mínima	14.1
41444	7	Sololá	701	Sololá	3	Barraneche	8	Agosto	2023-04-08T00:00:00	2024-11-06T20:00:00	5	Humedad	69
41445	7	Sololá	701	Sololá	3	Barraneche	8	Agosto	2023-04-08T00:00:00	2024-11-06T20:00:00	6	Velocidad del viento	3.2
41446	7	Sololá	701	Sololá	3	Barraneche	8	Agosto	2023-04-08T00:00:00	2024-11-06T20:00:00	7	Dirección del viento	3.22
41447	7	Sololá	701	Sololá	3	Barraneche	8	Agosto	2023-04-08T00:00:00	2024-11-06T20:00:00	1	Precipitación	0
41448	7	Sololá	701	Sololá	3	Barraneche	8	Agosto	2023-04-08T00:00:00	2024-11-06T20:00:00	8	Radiación solar	0
41449	7	Sololá	701	Sololá	3	Barraneche	8	Agosto	2023-04-08T00:00:00	2024-11-06T21:00:00	2	Temperatura media	13.6
41450	7	Sololá	701	Sololá	3	Barraneche	8	Agosto	2023-04-08T00:00:00	2024-11-06T21:00:00	4	Temperatura máxima	14.1
41451	7	Sololá	701	Sololá	3	Barraneche	8	Agosto	2023-04-08T00:00:00	2024-11-06T21:00:00	3	Temperatura mínima	13.6
41452	7	Sololá	701	Sololá	3	Barraneche	8	Agosto	2023-04-08T00:00:00	2024-11-06T21:00:00	5	Humedad	69
41453	7	Sololá	701	Sololá	3	Barraneche	8	Agosto	2023-04-08T00:00:00	2024-11-06T21:00:00	6	Velocidad del viento	4.8
41454	7	Sololá	701	Sololá	3	Barraneche	8	Agosto	2023-04-08T00:00:00	2024-11-06T21:00:00	7	Dirección del viento	4.83
41455	7	Sololá	701	Sololá	3	Barraneche	8	Agosto	2023-04-08T00:00:00	2024-11-06T21:00:00	1	Precipitación	0
41456	7	Sololá	701	Sololá	3	Barraneche	8	Agosto	2023-04-08T00:00:00	2024-11-06T21:00:00	8	Radiación solar	0
41457	7	Sololá	701	Sololá	3	Barraneche	8	Agosto	2023-04-08T00:00:00	2024-11-06T22:00:00	2	Temperatura media	13.3
41458	7	Sololá	701	Sololá	3	Barraneche	8	Agosto	2023-04-08T00:00:00	2024-11-06T22:00:00	4	Temperatura máxima	13.9
41459	7	Sololá	701	Sololá	3	Barraneche	8	Agosto	2023-04-08T00:00:00	2024-11-06T22:00:00	3	Temperatura mínima	13.2
41460	7	Sololá	701	Sololá	3	Barraneche	8	Agosto	2023-04-08T00:00:00	2024-11-06T22:00:00	5	Humedad	67
41461	7	Sololá	701	Sololá	3	Barraneche	8	Agosto	2023-04-08T00:00:00	2024-11-06T22:00:00	6	Velocidad del viento	4.8
41462	7	Sololá	701	Sololá	3	Barraneche	8	Agosto	2023-04-08T00:00:00	2024-11-06T22:00:00	7	Dirección del viento	4.83
41463	7	Sololá	701	Sololá	3	Barraneche	8	Agosto	2023-04-08T00:00:00	2024-11-06T22:00:00	1	Precipitación	0
41464	7	Sololá	701	Sololá	3	Barraneche	8	Agosto	2023-04-08T00:00:00	2024-11-06T22:00:00	8	Radiación solar	0
41465	7	Sololá	701	Sololá	3	Barraneche	8	Agosto	2023-04-08T00:00:00	2024-11-06T23:00:00	2	Temperatura media	13.3
41466	7	Sololá	701	Sololá	3	Barraneche	8	Agosto	2023-04-08T00:00:00	2024-11-06T23:00:00	4	Temperatura máxima	13.9
41467	7	Sololá	701	Sololá	3	Barraneche	8	Agosto	2023-04-08T00:00:00	2024-11-06T23:00:00	3	Temperatura mínima	13.2
41468	7	Sololá	701	Sololá	3	Barraneche	8	Agosto	2023-04-08T00:00:00	2024-11-06T23:00:00	5	Humedad	66
41469	7	Sololá	701	Sololá	3	Barraneche	8	Agosto	2023-04-08T00:00:00	2024-11-06T23:00:00	6	Velocidad del viento	4.8
41470	7	Sololá	701	Sololá	3	Barraneche	8	Agosto	2023-04-08T00:00:00	2024-11-06T23:00:00	7	Dirección del viento	4.83
41471	7	Sololá	701	Sololá	3	Barraneche	8	Agosto	2023-04-08T00:00:00	2024-11-06T23:00:00	1	Precipitación	0
41472	7	Sololá	701	Sololá	3	Barraneche	8	Agosto	2023-04-08T00:00:00	2024-11-06T23:00:00	8	Radiación solar	0
41473	7	Sololá	701	Sololá	3	Barraneche	8	Agosto	2023-05-08T00:00:00	2024-11-06T00:00:00	2	Temperatura media	12.4
41474	7	Sololá	701	Sololá	3	Barraneche	8	Agosto	2023-05-08T00:00:00	2024-11-06T00:00:00	4	Temperatura máxima	13.3
41475	7	Sololá	701	Sololá	3	Barraneche	8	Agosto	2023-05-08T00:00:00	2024-11-06T00:00:00	3	Temperatura mínima	12.4
41476	7	Sololá	701	Sololá	3	Barraneche	8	Agosto	2023-05-08T00:00:00	2024-11-06T00:00:00	5	Humedad	68
41477	7	Sololá	701	Sololá	3	Barraneche	8	Agosto	2023-05-08T00:00:00	2024-11-06T00:00:00	6	Velocidad del viento	4.8
41478	7	Sololá	701	Sololá	3	Barraneche	8	Agosto	2023-05-08T00:00:00	2024-11-06T00:00:00	7	Dirección del viento	4.83
41479	7	Sololá	701	Sololá	3	Barraneche	8	Agosto	2023-05-08T00:00:00	2024-11-06T00:00:00	1	Precipitación	0
41480	7	Sololá	701	Sololá	3	Barraneche	8	Agosto	2023-05-08T00:00:00	2024-11-06T00:00:00	8	Radiación solar	0
41481	7	Sololá	701	Sololá	3	Barraneche	8	Agosto	2023-05-08T00:00:00	2024-11-06T01:00:00	2	Temperatura media	11.7
41482	7	Sololá	701	Sololá	3	Barraneche	8	Agosto	2023-05-08T00:00:00	2024-11-06T01:00:00	4	Temperatura máxima	12.6
41483	7	Sololá	701	Sololá	3	Barraneche	8	Agosto	2023-05-08T00:00:00	2024-11-06T01:00:00	3	Temperatura mínima	11.5
41484	7	Sololá	701	Sololá	3	Barraneche	8	Agosto	2023-05-08T00:00:00	2024-11-06T01:00:00	5	Humedad	68
41485	7	Sololá	701	Sololá	3	Barraneche	8	Agosto	2023-05-08T00:00:00	2024-11-06T01:00:00	6	Velocidad del viento	4.8
41486	7	Sololá	701	Sololá	3	Barraneche	8	Agosto	2023-05-08T00:00:00	2024-11-06T01:00:00	7	Dirección del viento	4.83
41487	7	Sololá	701	Sololá	3	Barraneche	8	Agosto	2023-05-08T00:00:00	2024-11-06T01:00:00	1	Precipitación	0
41488	7	Sololá	701	Sololá	3	Barraneche	8	Agosto	2023-05-08T00:00:00	2024-11-06T01:00:00	8	Radiación solar	0
41489	7	Sololá	701	Sololá	3	Barraneche	8	Agosto	2023-05-08T00:00:00	2024-11-06T02:00:00	2	Temperatura media	12
41490	7	Sololá	701	Sololá	3	Barraneche	8	Agosto	2023-05-08T00:00:00	2024-11-06T02:00:00	4	Temperatura máxima	12
41491	7	Sololá	701	Sololá	3	Barraneche	8	Agosto	2023-05-08T00:00:00	2024-11-06T02:00:00	3	Temperatura mínima	11.4
41492	7	Sololá	701	Sololá	3	Barraneche	8	Agosto	2023-05-08T00:00:00	2024-11-06T02:00:00	5	Humedad	68
41493	7	Sololá	701	Sololá	3	Barraneche	8	Agosto	2023-05-08T00:00:00	2024-11-06T02:00:00	6	Velocidad del viento	4.8
41494	7	Sololá	701	Sololá	3	Barraneche	8	Agosto	2023-05-08T00:00:00	2024-11-06T02:00:00	7	Dirección del viento	4.83
41495	7	Sololá	701	Sololá	3	Barraneche	8	Agosto	2023-05-08T00:00:00	2024-11-06T02:00:00	1	Precipitación	0
41496	7	Sololá	701	Sololá	3	Barraneche	8	Agosto	2023-05-08T00:00:00	2024-11-06T02:00:00	8	Radiación solar	0
41497	7	Sololá	701	Sololá	3	Barraneche	8	Agosto	2023-05-08T00:00:00	2024-11-06T03:00:00	2	Temperatura media	11.8
41498	7	Sololá	701	Sololá	3	Barraneche	8	Agosto	2023-05-08T00:00:00	2024-11-06T03:00:00	4	Temperatura máxima	12.2
41499	7	Sololá	701	Sololá	3	Barraneche	8	Agosto	2023-05-08T00:00:00	2024-11-06T03:00:00	3	Temperatura mínima	11.6
41500	7	Sololá	701	Sololá	3	Barraneche	8	Agosto	2023-05-08T00:00:00	2024-11-06T03:00:00	5	Humedad	65
41501	7	Sololá	701	Sololá	3	Barraneche	8	Agosto	2023-05-08T00:00:00	2024-11-06T03:00:00	6	Velocidad del viento	4.8
41502	7	Sololá	701	Sololá	3	Barraneche	8	Agosto	2023-05-08T00:00:00	2024-11-06T03:00:00	7	Dirección del viento	4.83
41503	7	Sololá	701	Sololá	3	Barraneche	8	Agosto	2023-05-08T00:00:00	2024-11-06T03:00:00	1	Precipitación	0
41504	7	Sololá	701	Sololá	3	Barraneche	8	Agosto	2023-05-08T00:00:00	2024-11-06T03:00:00	8	Radiación solar	0
41505	7	Sololá	701	Sololá	3	Barraneche	8	Agosto	2023-05-08T00:00:00	2024-11-06T04:00:00	2	Temperatura media	13
41506	7	Sololá	701	Sololá	3	Barraneche	8	Agosto	2023-05-08T00:00:00	2024-11-06T04:00:00	4	Temperatura máxima	13
41507	7	Sololá	701	Sololá	3	Barraneche	8	Agosto	2023-05-08T00:00:00	2024-11-06T04:00:00	3	Temperatura mínima	11.2
41508	7	Sololá	701	Sololá	3	Barraneche	8	Agosto	2023-05-08T00:00:00	2024-11-06T04:00:00	5	Humedad	68
41509	7	Sololá	701	Sololá	3	Barraneche	8	Agosto	2023-05-08T00:00:00	2024-11-06T04:00:00	6	Velocidad del viento	4.8
41510	7	Sololá	701	Sololá	3	Barraneche	8	Agosto	2023-05-08T00:00:00	2024-11-06T04:00:00	7	Dirección del viento	4.83
41511	7	Sololá	701	Sololá	3	Barraneche	8	Agosto	2023-05-08T00:00:00	2024-11-06T04:00:00	1	Precipitación	0
41512	7	Sololá	701	Sololá	3	Barraneche	8	Agosto	2023-05-08T00:00:00	2024-11-06T04:00:00	8	Radiación solar	0
41513	7	Sololá	701	Sololá	3	Barraneche	8	Agosto	2023-05-08T00:00:00	2024-11-06T05:00:00	2	Temperatura media	14.8
41514	7	Sololá	701	Sololá	3	Barraneche	8	Agosto	2023-05-08T00:00:00	2024-11-06T05:00:00	4	Temperatura máxima	14.8
41515	7	Sololá	701	Sololá	3	Barraneche	8	Agosto	2023-05-08T00:00:00	2024-11-06T05:00:00	3	Temperatura mínima	13.1
41516	7	Sololá	701	Sololá	3	Barraneche	8	Agosto	2023-05-08T00:00:00	2024-11-06T05:00:00	5	Humedad	64
41517	7	Sololá	701	Sololá	3	Barraneche	8	Agosto	2023-05-08T00:00:00	2024-11-06T05:00:00	6	Velocidad del viento	9.7
41518	7	Sololá	701	Sololá	3	Barraneche	8	Agosto	2023-05-08T00:00:00	2024-11-06T05:00:00	7	Dirección del viento	9.66
41519	7	Sololá	701	Sololá	3	Barraneche	8	Agosto	2023-05-08T00:00:00	2024-11-06T05:00:00	1	Precipitación	0
41520	7	Sololá	701	Sololá	3	Barraneche	8	Agosto	2023-05-08T00:00:00	2024-11-06T05:00:00	8	Radiación solar	0
41521	7	Sololá	701	Sololá	3	Barraneche	8	Agosto	2023-05-08T00:00:00	2024-11-06T06:00:00	2	Temperatura media	12.8
41522	7	Sololá	701	Sololá	3	Barraneche	8	Agosto	2023-05-08T00:00:00	2024-11-06T06:00:00	4	Temperatura máxima	14.8
41523	7	Sololá	701	Sololá	3	Barraneche	8	Agosto	2023-05-08T00:00:00	2024-11-06T06:00:00	3	Temperatura mínima	12.8
41524	7	Sololá	701	Sololá	3	Barraneche	8	Agosto	2023-05-08T00:00:00	2024-11-06T06:00:00	5	Humedad	67
41525	7	Sololá	701	Sololá	3	Barraneche	8	Agosto	2023-05-08T00:00:00	2024-11-06T06:00:00	6	Velocidad del viento	6.4
41526	7	Sololá	701	Sololá	3	Barraneche	8	Agosto	2023-05-08T00:00:00	2024-11-06T06:00:00	7	Dirección del viento	6.44
41527	7	Sololá	701	Sololá	3	Barraneche	8	Agosto	2023-05-08T00:00:00	2024-11-06T06:00:00	1	Precipitación	0
41528	7	Sololá	701	Sololá	3	Barraneche	8	Agosto	2023-05-08T00:00:00	2024-11-06T06:00:00	8	Radiación solar	1
41529	7	Sololá	701	Sololá	3	Barraneche	8	Agosto	2023-05-08T00:00:00	2024-11-06T07:00:00	2	Temperatura media	12.4
41530	7	Sololá	701	Sololá	3	Barraneche	8	Agosto	2023-05-08T00:00:00	2024-11-06T07:00:00	4	Temperatura máxima	12.9
41531	7	Sololá	701	Sololá	3	Barraneche	8	Agosto	2023-05-08T00:00:00	2024-11-06T07:00:00	3	Temperatura mínima	11.4
41532	7	Sololá	701	Sololá	3	Barraneche	8	Agosto	2023-05-08T00:00:00	2024-11-06T07:00:00	5	Humedad	76
41533	7	Sololá	701	Sololá	3	Barraneche	8	Agosto	2023-05-08T00:00:00	2024-11-06T07:00:00	6	Velocidad del viento	4.8
41534	7	Sololá	701	Sololá	3	Barraneche	8	Agosto	2023-05-08T00:00:00	2024-11-06T07:00:00	7	Dirección del viento	4.83
41535	7	Sololá	701	Sololá	3	Barraneche	8	Agosto	2023-05-08T00:00:00	2024-11-06T07:00:00	1	Precipitación	0
41536	7	Sololá	701	Sololá	3	Barraneche	8	Agosto	2023-05-08T00:00:00	2024-11-06T07:00:00	8	Radiación solar	34
41537	7	Sololá	701	Sololá	3	Barraneche	8	Agosto	2023-05-08T00:00:00	2024-11-06T08:00:00	2	Temperatura media	17.6
41538	7	Sololá	701	Sololá	3	Barraneche	8	Agosto	2023-05-08T00:00:00	2024-11-06T08:00:00	4	Temperatura máxima	17.6
41539	7	Sololá	701	Sololá	3	Barraneche	8	Agosto	2023-05-08T00:00:00	2024-11-06T08:00:00	3	Temperatura mínima	12.4
41540	7	Sololá	701	Sololá	3	Barraneche	8	Agosto	2023-05-08T00:00:00	2024-11-06T08:00:00	5	Humedad	57
41541	7	Sololá	701	Sololá	3	Barraneche	8	Agosto	2023-05-08T00:00:00	2024-11-06T08:00:00	6	Velocidad del viento	12.9
41542	7	Sololá	701	Sololá	3	Barraneche	8	Agosto	2023-05-08T00:00:00	2024-11-06T08:00:00	7	Dirección del viento	12.87
41543	7	Sololá	701	Sololá	3	Barraneche	8	Agosto	2023-05-08T00:00:00	2024-11-06T08:00:00	1	Precipitación	0
41544	7	Sololá	701	Sololá	3	Barraneche	8	Agosto	2023-05-08T00:00:00	2024-11-06T08:00:00	8	Radiación solar	320
41545	7	Sololá	701	Sololá	3	Barraneche	8	Agosto	2023-05-08T00:00:00	2024-11-06T09:00:00	2	Temperatura media	19.8
41546	7	Sololá	701	Sololá	3	Barraneche	8	Agosto	2023-05-08T00:00:00	2024-11-06T09:00:00	4	Temperatura máxima	19.8
41547	7	Sololá	701	Sololá	3	Barraneche	8	Agosto	2023-05-08T00:00:00	2024-11-06T09:00:00	3	Temperatura mínima	17.6
41548	7	Sololá	701	Sololá	3	Barraneche	8	Agosto	2023-05-08T00:00:00	2024-11-06T09:00:00	5	Humedad	44
41549	7	Sololá	701	Sololá	3	Barraneche	8	Agosto	2023-05-08T00:00:00	2024-11-06T09:00:00	6	Velocidad del viento	6.4
41550	7	Sololá	701	Sololá	3	Barraneche	8	Agosto	2023-05-08T00:00:00	2024-11-06T09:00:00	7	Dirección del viento	6.44
41551	7	Sololá	701	Sololá	3	Barraneche	8	Agosto	2023-05-08T00:00:00	2024-11-06T09:00:00	1	Precipitación	0
41552	7	Sololá	701	Sololá	3	Barraneche	8	Agosto	2023-05-08T00:00:00	2024-11-06T09:00:00	8	Radiación solar	546
41553	7	Sololá	701	Sololá	3	Barraneche	8	Agosto	2023-05-08T00:00:00	2024-11-06T10:00:00	2	Temperatura media	19.9
41554	7	Sololá	701	Sololá	3	Barraneche	8	Agosto	2023-05-08T00:00:00	2024-11-06T10:00:00	4	Temperatura máxima	20
41555	7	Sololá	701	Sololá	3	Barraneche	8	Agosto	2023-05-08T00:00:00	2024-11-06T10:00:00	3	Temperatura mínima	19.2
41556	7	Sololá	701	Sololá	3	Barraneche	8	Agosto	2023-05-08T00:00:00	2024-11-06T10:00:00	5	Humedad	30
41557	7	Sololá	701	Sololá	3	Barraneche	8	Agosto	2023-05-08T00:00:00	2024-11-06T10:00:00	6	Velocidad del viento	11.3
41558	7	Sololá	701	Sololá	3	Barraneche	8	Agosto	2023-05-08T00:00:00	2024-11-06T10:00:00	7	Dirección del viento	11.27
41559	7	Sololá	701	Sololá	3	Barraneche	8	Agosto	2023-05-08T00:00:00	2024-11-06T10:00:00	1	Precipitación	0
41560	7	Sololá	701	Sololá	3	Barraneche	8	Agosto	2023-05-08T00:00:00	2024-11-06T10:00:00	8	Radiación solar	800
41561	7	Sololá	701	Sololá	3	Barraneche	8	Agosto	2023-05-08T00:00:00	2024-11-06T11:00:00	2	Temperatura media	20.3
41562	7	Sololá	701	Sololá	3	Barraneche	8	Agosto	2023-05-08T00:00:00	2024-11-06T11:00:00	4	Temperatura máxima	20.4
41563	7	Sololá	701	Sololá	3	Barraneche	8	Agosto	2023-05-08T00:00:00	2024-11-06T11:00:00	3	Temperatura mínima	19.4
41564	7	Sololá	701	Sololá	3	Barraneche	8	Agosto	2023-05-08T00:00:00	2024-11-06T11:00:00	5	Humedad	32
41565	7	Sololá	701	Sololá	3	Barraneche	8	Agosto	2023-05-08T00:00:00	2024-11-06T11:00:00	6	Velocidad del viento	11.3
41566	7	Sololá	701	Sololá	3	Barraneche	8	Agosto	2023-05-08T00:00:00	2024-11-06T11:00:00	7	Dirección del viento	11.27
41567	7	Sololá	701	Sololá	3	Barraneche	8	Agosto	2023-05-08T00:00:00	2024-11-06T11:00:00	1	Precipitación	0
41568	7	Sololá	701	Sololá	3	Barraneche	8	Agosto	2023-05-08T00:00:00	2024-11-06T11:00:00	8	Radiación solar	863
41569	7	Sololá	701	Sololá	3	Barraneche	8	Agosto	2023-05-08T00:00:00	2024-11-06T12:00:00	2	Temperatura media	20.7
41570	7	Sololá	701	Sololá	3	Barraneche	8	Agosto	2023-05-08T00:00:00	2024-11-06T12:00:00	4	Temperatura máxima	20.7
41571	7	Sololá	701	Sololá	3	Barraneche	8	Agosto	2023-05-08T00:00:00	2024-11-06T12:00:00	3	Temperatura mínima	20.3
41572	7	Sololá	701	Sololá	3	Barraneche	8	Agosto	2023-05-08T00:00:00	2024-11-06T12:00:00	5	Humedad	38
41573	7	Sololá	701	Sololá	3	Barraneche	8	Agosto	2023-05-08T00:00:00	2024-11-06T12:00:00	6	Velocidad del viento	11.3
41574	7	Sololá	701	Sololá	3	Barraneche	8	Agosto	2023-05-08T00:00:00	2024-11-06T12:00:00	7	Dirección del viento	11.27
41575	7	Sololá	701	Sololá	3	Barraneche	8	Agosto	2023-05-08T00:00:00	2024-11-06T12:00:00	1	Precipitación	0
41576	7	Sololá	701	Sololá	3	Barraneche	8	Agosto	2023-05-08T00:00:00	2024-11-06T12:00:00	8	Radiación solar	1024
41577	7	Sololá	701	Sololá	3	Barraneche	8	Agosto	2023-05-08T00:00:00	2024-11-06T13:00:00	2	Temperatura media	20.6
41578	7	Sololá	701	Sololá	3	Barraneche	8	Agosto	2023-05-08T00:00:00	2024-11-06T13:00:00	4	Temperatura máxima	20.8
41579	7	Sololá	701	Sololá	3	Barraneche	8	Agosto	2023-05-08T00:00:00	2024-11-06T13:00:00	3	Temperatura mínima	20.2
41580	7	Sololá	701	Sololá	3	Barraneche	8	Agosto	2023-05-08T00:00:00	2024-11-06T13:00:00	5	Humedad	33
41581	7	Sololá	701	Sololá	3	Barraneche	8	Agosto	2023-05-08T00:00:00	2024-11-06T13:00:00	6	Velocidad del viento	12.9
41582	7	Sololá	701	Sololá	3	Barraneche	8	Agosto	2023-05-08T00:00:00	2024-11-06T13:00:00	7	Dirección del viento	12.87
41583	7	Sololá	701	Sololá	3	Barraneche	8	Agosto	2023-05-08T00:00:00	2024-11-06T13:00:00	1	Precipitación	0
41584	7	Sololá	701	Sololá	3	Barraneche	8	Agosto	2023-05-08T00:00:00	2024-11-06T13:00:00	8	Radiación solar	1032
41585	7	Sololá	701	Sololá	3	Barraneche	8	Agosto	2023-05-08T00:00:00	2024-11-06T14:00:00	2	Temperatura media	20.9
41586	7	Sololá	701	Sololá	3	Barraneche	8	Agosto	2023-05-08T00:00:00	2024-11-06T14:00:00	4	Temperatura máxima	21.4
41587	7	Sololá	701	Sololá	3	Barraneche	8	Agosto	2023-05-08T00:00:00	2024-11-06T14:00:00	3	Temperatura mínima	20.4
41588	7	Sololá	701	Sololá	3	Barraneche	8	Agosto	2023-05-08T00:00:00	2024-11-06T14:00:00	5	Humedad	39
41589	7	Sololá	701	Sololá	3	Barraneche	8	Agosto	2023-05-08T00:00:00	2024-11-06T14:00:00	6	Velocidad del viento	11.3
41590	7	Sololá	701	Sololá	3	Barraneche	8	Agosto	2023-05-08T00:00:00	2024-11-06T14:00:00	7	Dirección del viento	11.27
41591	7	Sololá	701	Sololá	3	Barraneche	8	Agosto	2023-05-08T00:00:00	2024-11-06T14:00:00	1	Precipitación	0
41592	7	Sololá	701	Sololá	3	Barraneche	8	Agosto	2023-05-08T00:00:00	2024-11-06T14:00:00	8	Radiación solar	981
41593	7	Sololá	701	Sololá	3	Barraneche	8	Agosto	2023-05-08T00:00:00	2024-11-06T15:00:00	2	Temperatura media	20.5
41594	7	Sololá	701	Sololá	3	Barraneche	8	Agosto	2023-05-08T00:00:00	2024-11-06T15:00:00	4	Temperatura máxima	21
41595	7	Sololá	701	Sololá	3	Barraneche	8	Agosto	2023-05-08T00:00:00	2024-11-06T15:00:00	3	Temperatura mínima	20.2
41596	7	Sololá	701	Sololá	3	Barraneche	8	Agosto	2023-05-08T00:00:00	2024-11-06T15:00:00	5	Humedad	39
41597	7	Sololá	701	Sololá	3	Barraneche	8	Agosto	2023-05-08T00:00:00	2024-11-06T15:00:00	6	Velocidad del viento	12.9
41598	7	Sololá	701	Sololá	3	Barraneche	8	Agosto	2023-05-08T00:00:00	2024-11-06T15:00:00	7	Dirección del viento	12.87
41599	7	Sololá	701	Sololá	3	Barraneche	8	Agosto	2023-05-08T00:00:00	2024-11-06T15:00:00	1	Precipitación	0
41600	7	Sololá	701	Sololá	3	Barraneche	8	Agosto	2023-05-08T00:00:00	2024-11-06T15:00:00	8	Radiación solar	795
41601	7	Sololá	701	Sololá	3	Barraneche	8	Agosto	2023-05-08T00:00:00	2024-11-06T16:00:00	2	Temperatura media	20.9
41602	7	Sololá	701	Sololá	3	Barraneche	8	Agosto	2023-05-08T00:00:00	2024-11-06T16:00:00	4	Temperatura máxima	21.4
41603	7	Sololá	701	Sololá	3	Barraneche	8	Agosto	2023-05-08T00:00:00	2024-11-06T16:00:00	3	Temperatura mínima	20.5
41604	7	Sololá	701	Sololá	3	Barraneche	8	Agosto	2023-05-08T00:00:00	2024-11-06T16:00:00	5	Humedad	37
41605	7	Sololá	701	Sololá	3	Barraneche	8	Agosto	2023-05-08T00:00:00	2024-11-06T16:00:00	6	Velocidad del viento	9.7
41606	7	Sololá	701	Sololá	3	Barraneche	8	Agosto	2023-05-08T00:00:00	2024-11-06T16:00:00	7	Dirección del viento	9.66
41607	7	Sololá	701	Sololá	3	Barraneche	8	Agosto	2023-05-08T00:00:00	2024-11-06T16:00:00	1	Precipitación	0
41608	7	Sololá	701	Sololá	3	Barraneche	8	Agosto	2023-05-08T00:00:00	2024-11-06T16:00:00	8	Radiación solar	635
41609	7	Sololá	701	Sololá	3	Barraneche	8	Agosto	2023-05-08T00:00:00	2024-11-06T17:00:00	2	Temperatura media	20.1
41610	7	Sololá	701	Sololá	3	Barraneche	8	Agosto	2023-05-08T00:00:00	2024-11-06T17:00:00	4	Temperatura máxima	20.9
41611	7	Sololá	701	Sololá	3	Barraneche	8	Agosto	2023-05-08T00:00:00	2024-11-06T17:00:00	3	Temperatura mínima	19.9
41612	7	Sololá	701	Sololá	3	Barraneche	8	Agosto	2023-05-08T00:00:00	2024-11-06T17:00:00	5	Humedad	44
41613	7	Sololá	701	Sololá	3	Barraneche	8	Agosto	2023-05-08T00:00:00	2024-11-06T17:00:00	6	Velocidad del viento	12.9
41614	7	Sololá	701	Sololá	3	Barraneche	8	Agosto	2023-05-08T00:00:00	2024-11-06T17:00:00	7	Dirección del viento	12.87
41615	7	Sololá	701	Sololá	3	Barraneche	8	Agosto	2023-05-08T00:00:00	2024-11-06T17:00:00	1	Precipitación	0
41616	7	Sololá	701	Sololá	3	Barraneche	8	Agosto	2023-05-08T00:00:00	2024-11-06T17:00:00	8	Radiación solar	422
41617	7	Sololá	701	Sololá	3	Barraneche	8	Agosto	2023-05-08T00:00:00	2024-11-06T18:00:00	2	Temperatura media	18.5
41618	7	Sololá	701	Sololá	3	Barraneche	8	Agosto	2023-05-08T00:00:00	2024-11-06T18:00:00	4	Temperatura máxima	20.1
41619	7	Sololá	701	Sololá	3	Barraneche	8	Agosto	2023-05-08T00:00:00	2024-11-06T18:00:00	3	Temperatura mínima	18.5
41620	7	Sololá	701	Sololá	3	Barraneche	8	Agosto	2023-05-08T00:00:00	2024-11-06T18:00:00	5	Humedad	55
41621	7	Sololá	701	Sololá	3	Barraneche	8	Agosto	2023-05-08T00:00:00	2024-11-06T18:00:00	6	Velocidad del viento	8
41622	7	Sololá	701	Sololá	3	Barraneche	8	Agosto	2023-05-08T00:00:00	2024-11-06T18:00:00	7	Dirección del viento	8.05
41623	7	Sololá	701	Sololá	3	Barraneche	8	Agosto	2023-05-08T00:00:00	2024-11-06T18:00:00	1	Precipitación	0
41624	7	Sololá	701	Sololá	3	Barraneche	8	Agosto	2023-05-08T00:00:00	2024-11-06T18:00:00	8	Radiación solar	174
41625	7	Sololá	701	Sololá	3	Barraneche	8	Agosto	2023-05-08T00:00:00	2024-11-06T19:00:00	2	Temperatura media	16.6
41626	7	Sololá	701	Sololá	3	Barraneche	8	Agosto	2023-05-08T00:00:00	2024-11-06T19:00:00	4	Temperatura máxima	18.5
41627	7	Sololá	701	Sololá	3	Barraneche	8	Agosto	2023-05-08T00:00:00	2024-11-06T19:00:00	3	Temperatura mínima	16.5
41628	7	Sololá	701	Sololá	3	Barraneche	8	Agosto	2023-05-08T00:00:00	2024-11-06T19:00:00	5	Humedad	60
41629	7	Sololá	701	Sololá	3	Barraneche	8	Agosto	2023-05-08T00:00:00	2024-11-06T19:00:00	6	Velocidad del viento	11.3
41630	7	Sololá	701	Sololá	3	Barraneche	8	Agosto	2023-05-08T00:00:00	2024-11-06T19:00:00	7	Dirección del viento	11.27
41631	7	Sololá	701	Sololá	3	Barraneche	8	Agosto	2023-05-08T00:00:00	2024-11-06T19:00:00	1	Precipitación	0
41632	7	Sololá	701	Sololá	3	Barraneche	8	Agosto	2023-05-08T00:00:00	2024-11-06T19:00:00	8	Radiación solar	0
41633	7	Sololá	701	Sololá	3	Barraneche	8	Agosto	2023-05-08T00:00:00	2024-11-06T20:00:00	2	Temperatura media	15.8
41634	7	Sololá	701	Sololá	3	Barraneche	8	Agosto	2023-05-08T00:00:00	2024-11-06T20:00:00	4	Temperatura máxima	16.6
41635	7	Sololá	701	Sololá	3	Barraneche	8	Agosto	2023-05-08T00:00:00	2024-11-06T20:00:00	3	Temperatura mínima	15.8
41636	7	Sololá	701	Sololá	3	Barraneche	8	Agosto	2023-05-08T00:00:00	2024-11-06T20:00:00	5	Humedad	62
41637	7	Sololá	701	Sololá	3	Barraneche	8	Agosto	2023-05-08T00:00:00	2024-11-06T20:00:00	6	Velocidad del viento	16.1
41638	7	Sololá	701	Sololá	3	Barraneche	8	Agosto	2023-05-08T00:00:00	2024-11-06T20:00:00	7	Dirección del viento	16.09
41639	7	Sololá	701	Sololá	3	Barraneche	8	Agosto	2023-05-08T00:00:00	2024-11-06T20:00:00	1	Precipitación	0
41640	7	Sololá	701	Sololá	3	Barraneche	8	Agosto	2023-05-08T00:00:00	2024-11-06T20:00:00	8	Radiación solar	0
41641	7	Sololá	701	Sololá	3	Barraneche	8	Agosto	2023-05-08T00:00:00	2024-11-06T21:00:00	2	Temperatura media	15.4
41642	7	Sololá	701	Sololá	3	Barraneche	8	Agosto	2023-05-08T00:00:00	2024-11-06T21:00:00	4	Temperatura máxima	15.9
41643	7	Sololá	701	Sololá	3	Barraneche	8	Agosto	2023-05-08T00:00:00	2024-11-06T21:00:00	3	Temperatura mínima	15.4
41644	7	Sololá	701	Sololá	3	Barraneche	8	Agosto	2023-05-08T00:00:00	2024-11-06T21:00:00	5	Humedad	65
41645	7	Sololá	701	Sololá	3	Barraneche	8	Agosto	2023-05-08T00:00:00	2024-11-06T21:00:00	6	Velocidad del viento	16.1
41646	7	Sololá	701	Sololá	3	Barraneche	8	Agosto	2023-05-08T00:00:00	2024-11-06T21:00:00	7	Dirección del viento	16.09
41647	7	Sololá	701	Sololá	3	Barraneche	8	Agosto	2023-05-08T00:00:00	2024-11-06T21:00:00	1	Precipitación	0
41648	7	Sololá	701	Sololá	3	Barraneche	8	Agosto	2023-05-08T00:00:00	2024-11-06T21:00:00	8	Radiación solar	0
41649	7	Sololá	701	Sololá	3	Barraneche	8	Agosto	2023-05-08T00:00:00	2024-11-06T22:00:00	2	Temperatura media	15.5
41650	7	Sololá	701	Sololá	3	Barraneche	8	Agosto	2023-05-08T00:00:00	2024-11-06T22:00:00	4	Temperatura máxima	15.7
41651	7	Sololá	701	Sololá	3	Barraneche	8	Agosto	2023-05-08T00:00:00	2024-11-06T22:00:00	3	Temperatura mínima	15.3
41652	7	Sololá	701	Sololá	3	Barraneche	8	Agosto	2023-05-08T00:00:00	2024-11-06T22:00:00	5	Humedad	60
41653	7	Sololá	701	Sololá	3	Barraneche	8	Agosto	2023-05-08T00:00:00	2024-11-06T22:00:00	6	Velocidad del viento	6.4
41654	7	Sololá	701	Sololá	3	Barraneche	8	Agosto	2023-05-08T00:00:00	2024-11-06T22:00:00	7	Dirección del viento	6.44
41655	7	Sololá	701	Sololá	3	Barraneche	8	Agosto	2023-05-08T00:00:00	2024-11-06T22:00:00	1	Precipitación	0
41656	7	Sololá	701	Sololá	3	Barraneche	8	Agosto	2023-05-08T00:00:00	2024-11-06T22:00:00	8	Radiación solar	0
41657	7	Sololá	701	Sololá	3	Barraneche	8	Agosto	2023-05-08T00:00:00	2024-11-06T23:00:00	2	Temperatura media	15.1
41658	7	Sololá	701	Sololá	3	Barraneche	8	Agosto	2023-05-08T00:00:00	2024-11-06T23:00:00	4	Temperatura máxima	15.6
41659	7	Sololá	701	Sololá	3	Barraneche	8	Agosto	2023-05-08T00:00:00	2024-11-06T23:00:00	3	Temperatura mínima	15.1
41660	7	Sololá	701	Sololá	3	Barraneche	8	Agosto	2023-05-08T00:00:00	2024-11-06T23:00:00	5	Humedad	60
41661	7	Sololá	701	Sololá	3	Barraneche	8	Agosto	2023-05-08T00:00:00	2024-11-06T23:00:00	6	Velocidad del viento	9.7
41662	7	Sololá	701	Sololá	3	Barraneche	8	Agosto	2023-05-08T00:00:00	2024-11-06T23:00:00	7	Dirección del viento	9.66
41663	7	Sololá	701	Sololá	3	Barraneche	8	Agosto	2023-05-08T00:00:00	2024-11-06T23:00:00	1	Precipitación	0
41664	7	Sololá	701	Sololá	3	Barraneche	8	Agosto	2023-05-08T00:00:00	2024-11-06T23:00:00	8	Radiación solar	0
41665	7	Sololá	701	Sololá	3	Barraneche	8	Agosto	2023-06-08T00:00:00	2024-11-06T00:00:00	2	Temperatura media	15.3
41666	7	Sololá	701	Sololá	3	Barraneche	8	Agosto	2023-06-08T00:00:00	2024-11-06T00:00:00	4	Temperatura máxima	15.3
41667	7	Sololá	701	Sololá	3	Barraneche	8	Agosto	2023-06-08T00:00:00	2024-11-06T00:00:00	3	Temperatura mínima	14.6
41668	7	Sololá	701	Sololá	3	Barraneche	8	Agosto	2023-06-08T00:00:00	2024-11-06T00:00:00	5	Humedad	51
41669	7	Sololá	701	Sololá	3	Barraneche	8	Agosto	2023-06-08T00:00:00	2024-11-06T00:00:00	6	Velocidad del viento	8
41670	7	Sololá	701	Sololá	3	Barraneche	8	Agosto	2023-06-08T00:00:00	2024-11-06T00:00:00	7	Dirección del viento	8.05
41671	7	Sololá	701	Sololá	3	Barraneche	8	Agosto	2023-06-08T00:00:00	2024-11-06T00:00:00	1	Precipitación	0
41672	7	Sololá	701	Sololá	3	Barraneche	8	Agosto	2023-06-08T00:00:00	2024-11-06T00:00:00	8	Radiación solar	0
41673	7	Sololá	701	Sololá	3	Barraneche	8	Agosto	2023-06-08T00:00:00	2024-11-06T01:00:00	2	Temperatura media	14.8
41674	7	Sololá	701	Sololá	3	Barraneche	8	Agosto	2023-06-08T00:00:00	2024-11-06T01:00:00	4	Temperatura máxima	15.7
41675	7	Sololá	701	Sololá	3	Barraneche	8	Agosto	2023-06-08T00:00:00	2024-11-06T01:00:00	3	Temperatura mínima	14.7
41676	7	Sololá	701	Sololá	3	Barraneche	8	Agosto	2023-06-08T00:00:00	2024-11-06T01:00:00	5	Humedad	51
41677	7	Sololá	701	Sololá	3	Barraneche	8	Agosto	2023-06-08T00:00:00	2024-11-06T01:00:00	6	Velocidad del viento	4.8
41678	7	Sololá	701	Sololá	3	Barraneche	8	Agosto	2023-06-08T00:00:00	2024-11-06T01:00:00	7	Dirección del viento	4.83
41679	7	Sololá	701	Sololá	3	Barraneche	8	Agosto	2023-06-08T00:00:00	2024-11-06T01:00:00	1	Precipitación	0
41680	7	Sololá	701	Sololá	3	Barraneche	8	Agosto	2023-06-08T00:00:00	2024-11-06T01:00:00	8	Radiación solar	0
41681	7	Sololá	701	Sololá	3	Barraneche	8	Agosto	2023-06-08T00:00:00	2024-11-06T02:00:00	2	Temperatura media	14.8
41682	7	Sololá	701	Sololá	3	Barraneche	8	Agosto	2023-06-08T00:00:00	2024-11-06T02:00:00	4	Temperatura máxima	14.9
41683	7	Sololá	701	Sololá	3	Barraneche	8	Agosto	2023-06-08T00:00:00	2024-11-06T02:00:00	3	Temperatura mínima	12.4
41684	7	Sololá	701	Sololá	3	Barraneche	8	Agosto	2023-06-08T00:00:00	2024-11-06T02:00:00	5	Humedad	51
41685	7	Sololá	701	Sololá	3	Barraneche	8	Agosto	2023-06-08T00:00:00	2024-11-06T02:00:00	6	Velocidad del viento	4.8
41686	7	Sololá	701	Sololá	3	Barraneche	8	Agosto	2023-06-08T00:00:00	2024-11-06T02:00:00	7	Dirección del viento	4.83
41687	7	Sololá	701	Sololá	3	Barraneche	8	Agosto	2023-06-08T00:00:00	2024-11-06T02:00:00	1	Precipitación	0
41688	7	Sololá	701	Sololá	3	Barraneche	8	Agosto	2023-06-08T00:00:00	2024-11-06T02:00:00	8	Radiación solar	0
41689	7	Sololá	701	Sololá	3	Barraneche	8	Agosto	2023-06-08T00:00:00	2024-11-06T03:00:00	2	Temperatura media	14.2
41690	7	Sololá	701	Sololá	3	Barraneche	8	Agosto	2023-06-08T00:00:00	2024-11-06T03:00:00	4	Temperatura máxima	15.1
41691	7	Sololá	701	Sololá	3	Barraneche	8	Agosto	2023-06-08T00:00:00	2024-11-06T03:00:00	3	Temperatura mínima	13.9
41692	7	Sololá	701	Sololá	3	Barraneche	8	Agosto	2023-06-08T00:00:00	2024-11-06T03:00:00	5	Humedad	56
41693	7	Sololá	701	Sololá	3	Barraneche	8	Agosto	2023-06-08T00:00:00	2024-11-06T03:00:00	6	Velocidad del viento	9.7
41694	7	Sololá	701	Sololá	3	Barraneche	8	Agosto	2023-06-08T00:00:00	2024-11-06T03:00:00	7	Dirección del viento	9.66
41695	7	Sololá	701	Sololá	3	Barraneche	8	Agosto	2023-06-08T00:00:00	2024-11-06T03:00:00	1	Precipitación	0
41696	7	Sololá	701	Sololá	3	Barraneche	8	Agosto	2023-06-08T00:00:00	2024-11-06T03:00:00	8	Radiación solar	0
41697	7	Sololá	701	Sololá	3	Barraneche	8	Agosto	2023-06-08T00:00:00	2024-11-06T04:00:00	2	Temperatura media	14.5
41698	7	Sololá	701	Sololá	3	Barraneche	8	Agosto	2023-06-08T00:00:00	2024-11-06T04:00:00	4	Temperatura máxima	14.6
41699	7	Sololá	701	Sololá	3	Barraneche	8	Agosto	2023-06-08T00:00:00	2024-11-06T04:00:00	3	Temperatura mínima	13.1
41700	7	Sololá	701	Sololá	3	Barraneche	8	Agosto	2023-06-08T00:00:00	2024-11-06T04:00:00	5	Humedad	56
41701	7	Sololá	701	Sololá	3	Barraneche	8	Agosto	2023-06-08T00:00:00	2024-11-06T04:00:00	6	Velocidad del viento	6.4
41702	7	Sololá	701	Sololá	3	Barraneche	8	Agosto	2023-06-08T00:00:00	2024-11-06T04:00:00	7	Dirección del viento	6.44
41703	7	Sololá	701	Sololá	3	Barraneche	8	Agosto	2023-06-08T00:00:00	2024-11-06T04:00:00	1	Precipitación	0
41704	7	Sololá	701	Sololá	3	Barraneche	8	Agosto	2023-06-08T00:00:00	2024-11-06T04:00:00	8	Radiación solar	0
41705	7	Sololá	701	Sololá	3	Barraneche	8	Agosto	2023-06-08T00:00:00	2024-11-06T05:00:00	2	Temperatura media	13.4
41706	7	Sololá	701	Sololá	3	Barraneche	8	Agosto	2023-06-08T00:00:00	2024-11-06T05:00:00	4	Temperatura máxima	14.5
41707	7	Sololá	701	Sololá	3	Barraneche	8	Agosto	2023-06-08T00:00:00	2024-11-06T05:00:00	3	Temperatura mínima	13.4
41708	7	Sololá	701	Sololá	3	Barraneche	8	Agosto	2023-06-08T00:00:00	2024-11-06T05:00:00	5	Humedad	62
41709	7	Sololá	701	Sololá	3	Barraneche	8	Agosto	2023-06-08T00:00:00	2024-11-06T05:00:00	6	Velocidad del viento	6.4
41710	7	Sololá	701	Sololá	3	Barraneche	8	Agosto	2023-06-08T00:00:00	2024-11-06T05:00:00	7	Dirección del viento	6.44
41711	7	Sololá	701	Sololá	3	Barraneche	8	Agosto	2023-06-08T00:00:00	2024-11-06T05:00:00	1	Precipitación	0
41712	7	Sololá	701	Sololá	3	Barraneche	8	Agosto	2023-06-08T00:00:00	2024-11-06T05:00:00	8	Radiación solar	0
41713	7	Sololá	701	Sololá	3	Barraneche	8	Agosto	2023-06-08T00:00:00	2024-11-06T06:00:00	2	Temperatura media	14.7
41714	7	Sololá	701	Sololá	3	Barraneche	8	Agosto	2023-06-08T00:00:00	2024-11-06T06:00:00	4	Temperatura máxima	14.7
41715	7	Sololá	701	Sololá	3	Barraneche	8	Agosto	2023-06-08T00:00:00	2024-11-06T06:00:00	3	Temperatura mínima	12.5
41716	7	Sololá	701	Sololá	3	Barraneche	8	Agosto	2023-06-08T00:00:00	2024-11-06T06:00:00	5	Humedad	55
41717	7	Sololá	701	Sololá	3	Barraneche	8	Agosto	2023-06-08T00:00:00	2024-11-06T06:00:00	6	Velocidad del viento	6.4
41718	7	Sololá	701	Sololá	3	Barraneche	8	Agosto	2023-06-08T00:00:00	2024-11-06T06:00:00	7	Dirección del viento	6.44
41719	7	Sololá	701	Sololá	3	Barraneche	8	Agosto	2023-06-08T00:00:00	2024-11-06T06:00:00	1	Precipitación	0
41720	7	Sololá	701	Sololá	3	Barraneche	8	Agosto	2023-06-08T00:00:00	2024-11-06T06:00:00	8	Radiación solar	1
41721	7	Sololá	701	Sololá	3	Barraneche	8	Agosto	2023-06-08T00:00:00	2024-11-06T07:00:00	2	Temperatura media	14.4
41722	7	Sololá	701	Sololá	3	Barraneche	8	Agosto	2023-06-08T00:00:00	2024-11-06T07:00:00	4	Temperatura máxima	14.9
41723	7	Sololá	701	Sololá	3	Barraneche	8	Agosto	2023-06-08T00:00:00	2024-11-06T07:00:00	3	Temperatura mínima	13.1
41724	7	Sololá	701	Sololá	3	Barraneche	8	Agosto	2023-06-08T00:00:00	2024-11-06T07:00:00	5	Humedad	60
41725	7	Sololá	701	Sololá	3	Barraneche	8	Agosto	2023-06-08T00:00:00	2024-11-06T07:00:00	6	Velocidad del viento	3.2
41726	7	Sololá	701	Sololá	3	Barraneche	8	Agosto	2023-06-08T00:00:00	2024-11-06T07:00:00	7	Dirección del viento	3.22
41727	7	Sololá	701	Sololá	3	Barraneche	8	Agosto	2023-06-08T00:00:00	2024-11-06T07:00:00	1	Precipitación	0
41728	7	Sololá	701	Sololá	3	Barraneche	8	Agosto	2023-06-08T00:00:00	2024-11-06T07:00:00	8	Radiación solar	58
41729	7	Sololá	701	Sololá	3	Barraneche	8	Agosto	2023-06-08T00:00:00	2024-11-06T08:00:00	2	Temperatura media	17.5
41730	7	Sololá	701	Sololá	3	Barraneche	8	Agosto	2023-06-08T00:00:00	2024-11-06T08:00:00	4	Temperatura máxima	17.6
41731	7	Sololá	701	Sololá	3	Barraneche	8	Agosto	2023-06-08T00:00:00	2024-11-06T08:00:00	3	Temperatura mínima	14.4
41732	7	Sololá	701	Sololá	3	Barraneche	8	Agosto	2023-06-08T00:00:00	2024-11-06T08:00:00	5	Humedad	51
41733	7	Sololá	701	Sololá	3	Barraneche	8	Agosto	2023-06-08T00:00:00	2024-11-06T08:00:00	6	Velocidad del viento	8
41734	7	Sololá	701	Sololá	3	Barraneche	8	Agosto	2023-06-08T00:00:00	2024-11-06T08:00:00	7	Dirección del viento	8.05
41735	7	Sololá	701	Sololá	3	Barraneche	8	Agosto	2023-06-08T00:00:00	2024-11-06T08:00:00	1	Precipitación	0
41736	7	Sololá	701	Sololá	3	Barraneche	8	Agosto	2023-06-08T00:00:00	2024-11-06T08:00:00	8	Radiación solar	349
41737	7	Sololá	701	Sololá	3	Barraneche	8	Agosto	2023-06-08T00:00:00	2024-11-06T09:00:00	2	Temperatura media	18.6
41738	7	Sololá	701	Sololá	3	Barraneche	8	Agosto	2023-06-08T00:00:00	2024-11-06T09:00:00	4	Temperatura máxima	18.7
41739	7	Sololá	701	Sololá	3	Barraneche	8	Agosto	2023-06-08T00:00:00	2024-11-06T09:00:00	3	Temperatura mínima	17.5
41740	7	Sololá	701	Sololá	3	Barraneche	8	Agosto	2023-06-08T00:00:00	2024-11-06T09:00:00	5	Humedad	49
41741	7	Sololá	701	Sololá	3	Barraneche	8	Agosto	2023-06-08T00:00:00	2024-11-06T09:00:00	6	Velocidad del viento	14.5
41742	7	Sololá	701	Sololá	3	Barraneche	8	Agosto	2023-06-08T00:00:00	2024-11-06T09:00:00	7	Dirección del viento	14.48
41743	7	Sololá	701	Sololá	3	Barraneche	8	Agosto	2023-06-08T00:00:00	2024-11-06T09:00:00	1	Precipitación	0
41744	7	Sololá	701	Sololá	3	Barraneche	8	Agosto	2023-06-08T00:00:00	2024-11-06T09:00:00	8	Radiación solar	595
41745	7	Sololá	701	Sololá	3	Barraneche	8	Agosto	2023-06-08T00:00:00	2024-11-06T10:00:00	2	Temperatura media	19
41746	7	Sololá	701	Sololá	3	Barraneche	8	Agosto	2023-06-08T00:00:00	2024-11-06T10:00:00	4	Temperatura máxima	19.2
41747	7	Sololá	701	Sololá	3	Barraneche	8	Agosto	2023-06-08T00:00:00	2024-11-06T10:00:00	3	Temperatura mínima	18.6
41748	7	Sololá	701	Sololá	3	Barraneche	8	Agosto	2023-06-08T00:00:00	2024-11-06T10:00:00	5	Humedad	46
41749	7	Sololá	701	Sololá	3	Barraneche	8	Agosto	2023-06-08T00:00:00	2024-11-06T10:00:00	6	Velocidad del viento	17.7
41750	7	Sololá	701	Sololá	3	Barraneche	8	Agosto	2023-06-08T00:00:00	2024-11-06T10:00:00	7	Dirección del viento	17.7
41751	7	Sololá	701	Sololá	3	Barraneche	8	Agosto	2023-06-08T00:00:00	2024-11-06T10:00:00	1	Precipitación	0
41752	7	Sololá	701	Sololá	3	Barraneche	8	Agosto	2023-06-08T00:00:00	2024-11-06T10:00:00	8	Radiación solar	802
41753	7	Sololá	701	Sololá	3	Barraneche	8	Agosto	2023-06-08T00:00:00	2024-11-06T11:00:00	2	Temperatura media	19.8
41754	7	Sololá	701	Sololá	3	Barraneche	8	Agosto	2023-06-08T00:00:00	2024-11-06T11:00:00	4	Temperatura máxima	19.9
41755	7	Sololá	701	Sololá	3	Barraneche	8	Agosto	2023-06-08T00:00:00	2024-11-06T11:00:00	3	Temperatura mínima	19
41756	7	Sololá	701	Sololá	3	Barraneche	8	Agosto	2023-06-08T00:00:00	2024-11-06T11:00:00	5	Humedad	41
41757	7	Sololá	701	Sololá	3	Barraneche	8	Agosto	2023-06-08T00:00:00	2024-11-06T11:00:00	6	Velocidad del viento	20.9
41758	7	Sololá	701	Sololá	3	Barraneche	8	Agosto	2023-06-08T00:00:00	2024-11-06T11:00:00	7	Dirección del viento	20.92
41759	7	Sololá	701	Sololá	3	Barraneche	8	Agosto	2023-06-08T00:00:00	2024-11-06T11:00:00	1	Precipitación	0
41760	7	Sololá	701	Sololá	3	Barraneche	8	Agosto	2023-06-08T00:00:00	2024-11-06T11:00:00	8	Radiación solar	950
41761	7	Sololá	701	Sololá	3	Barraneche	8	Agosto	2023-06-08T00:00:00	2024-11-06T12:00:00	2	Temperatura media	20.3
41762	7	Sololá	701	Sololá	3	Barraneche	8	Agosto	2023-06-08T00:00:00	2024-11-06T12:00:00	4	Temperatura máxima	20.7
41763	7	Sololá	701	Sololá	3	Barraneche	8	Agosto	2023-06-08T00:00:00	2024-11-06T12:00:00	3	Temperatura mínima	19.7
41764	7	Sololá	701	Sololá	3	Barraneche	8	Agosto	2023-06-08T00:00:00	2024-11-06T12:00:00	5	Humedad	43
41765	7	Sololá	701	Sololá	3	Barraneche	8	Agosto	2023-06-08T00:00:00	2024-11-06T12:00:00	6	Velocidad del viento	16.1
41766	7	Sololá	701	Sololá	3	Barraneche	8	Agosto	2023-06-08T00:00:00	2024-11-06T12:00:00	7	Dirección del viento	16.09
41767	7	Sololá	701	Sololá	3	Barraneche	8	Agosto	2023-06-08T00:00:00	2024-11-06T12:00:00	1	Precipitación	0
41768	7	Sololá	701	Sololá	3	Barraneche	8	Agosto	2023-06-08T00:00:00	2024-11-06T12:00:00	8	Radiación solar	1019
41769	7	Sololá	701	Sololá	3	Barraneche	8	Agosto	2023-06-08T00:00:00	2024-11-06T13:00:00	2	Temperatura media	21.2
41770	7	Sololá	701	Sololá	3	Barraneche	8	Agosto	2023-06-08T00:00:00	2024-11-06T13:00:00	4	Temperatura máxima	21.3
41771	7	Sololá	701	Sololá	3	Barraneche	8	Agosto	2023-06-08T00:00:00	2024-11-06T13:00:00	3	Temperatura mínima	20.3
41772	7	Sololá	701	Sololá	3	Barraneche	8	Agosto	2023-06-08T00:00:00	2024-11-06T13:00:00	5	Humedad	42
41773	7	Sololá	701	Sololá	3	Barraneche	8	Agosto	2023-06-08T00:00:00	2024-11-06T13:00:00	6	Velocidad del viento	11.3
41774	7	Sololá	701	Sololá	3	Barraneche	8	Agosto	2023-06-08T00:00:00	2024-11-06T13:00:00	7	Dirección del viento	11.27
41775	7	Sololá	701	Sololá	3	Barraneche	8	Agosto	2023-06-08T00:00:00	2024-11-06T13:00:00	1	Precipitación	0
41776	7	Sololá	701	Sololá	3	Barraneche	8	Agosto	2023-06-08T00:00:00	2024-11-06T13:00:00	8	Radiación solar	1036
41777	7	Sololá	701	Sololá	3	Barraneche	8	Agosto	2023-06-08T00:00:00	2024-11-06T14:00:00	2	Temperatura media	20.7
41778	7	Sololá	701	Sololá	3	Barraneche	8	Agosto	2023-06-08T00:00:00	2024-11-06T14:00:00	4	Temperatura máxima	21.3
41779	7	Sololá	701	Sololá	3	Barraneche	8	Agosto	2023-06-08T00:00:00	2024-11-06T14:00:00	3	Temperatura mínima	20.7
41780	7	Sololá	701	Sololá	3	Barraneche	8	Agosto	2023-06-08T00:00:00	2024-11-06T14:00:00	5	Humedad	37
41781	7	Sololá	701	Sololá	3	Barraneche	8	Agosto	2023-06-08T00:00:00	2024-11-06T14:00:00	6	Velocidad del viento	12.9
41782	7	Sololá	701	Sololá	3	Barraneche	8	Agosto	2023-06-08T00:00:00	2024-11-06T14:00:00	7	Dirección del viento	12.87
41783	7	Sololá	701	Sololá	3	Barraneche	8	Agosto	2023-06-08T00:00:00	2024-11-06T14:00:00	1	Precipitación	0
41784	7	Sololá	701	Sololá	3	Barraneche	8	Agosto	2023-06-08T00:00:00	2024-11-06T14:00:00	8	Radiación solar	980
41785	7	Sololá	701	Sololá	3	Barraneche	8	Agosto	2023-06-08T00:00:00	2024-11-06T15:00:00	2	Temperatura media	20.7
41786	7	Sololá	701	Sololá	3	Barraneche	8	Agosto	2023-06-08T00:00:00	2024-11-06T15:00:00	4	Temperatura máxima	21.2
41787	7	Sololá	701	Sololá	3	Barraneche	8	Agosto	2023-06-08T00:00:00	2024-11-06T15:00:00	3	Temperatura mínima	20.7
41788	7	Sololá	701	Sololá	3	Barraneche	8	Agosto	2023-06-08T00:00:00	2024-11-06T15:00:00	5	Humedad	41
41789	7	Sololá	701	Sololá	3	Barraneche	8	Agosto	2023-06-08T00:00:00	2024-11-06T15:00:00	6	Velocidad del viento	12.9
41790	7	Sololá	701	Sololá	3	Barraneche	8	Agosto	2023-06-08T00:00:00	2024-11-06T15:00:00	7	Dirección del viento	12.87
41791	7	Sololá	701	Sololá	3	Barraneche	8	Agosto	2023-06-08T00:00:00	2024-11-06T15:00:00	1	Precipitación	0
41792	7	Sololá	701	Sololá	3	Barraneche	8	Agosto	2023-06-08T00:00:00	2024-11-06T15:00:00	8	Radiación solar	804
41793	7	Sololá	701	Sololá	3	Barraneche	8	Agosto	2023-06-08T00:00:00	2024-11-06T16:00:00	2	Temperatura media	20.3
41794	7	Sololá	701	Sololá	3	Barraneche	8	Agosto	2023-06-08T00:00:00	2024-11-06T16:00:00	4	Temperatura máxima	20.8
41795	7	Sololá	701	Sololá	3	Barraneche	8	Agosto	2023-06-08T00:00:00	2024-11-06T16:00:00	3	Temperatura mínima	20.2
41796	7	Sololá	701	Sololá	3	Barraneche	8	Agosto	2023-06-08T00:00:00	2024-11-06T16:00:00	5	Humedad	46
41797	7	Sololá	701	Sololá	3	Barraneche	8	Agosto	2023-06-08T00:00:00	2024-11-06T16:00:00	6	Velocidad del viento	14.5
41798	7	Sololá	701	Sololá	3	Barraneche	8	Agosto	2023-06-08T00:00:00	2024-11-06T16:00:00	7	Dirección del viento	14.48
41799	7	Sololá	701	Sololá	3	Barraneche	8	Agosto	2023-06-08T00:00:00	2024-11-06T16:00:00	1	Precipitación	0
41800	7	Sololá	701	Sololá	3	Barraneche	8	Agosto	2023-06-08T00:00:00	2024-11-06T16:00:00	8	Radiación solar	647
41801	7	Sololá	701	Sololá	3	Barraneche	8	Agosto	2023-06-08T00:00:00	2024-11-06T17:00:00	2	Temperatura media	18.6
41802	7	Sololá	701	Sololá	3	Barraneche	8	Agosto	2023-06-08T00:00:00	2024-11-06T17:00:00	4	Temperatura máxima	20.3
41803	7	Sololá	701	Sololá	3	Barraneche	8	Agosto	2023-06-08T00:00:00	2024-11-06T17:00:00	3	Temperatura mínima	18.6
41804	7	Sololá	701	Sololá	3	Barraneche	8	Agosto	2023-06-08T00:00:00	2024-11-06T17:00:00	5	Humedad	51
41805	7	Sololá	701	Sololá	3	Barraneche	8	Agosto	2023-06-08T00:00:00	2024-11-06T17:00:00	6	Velocidad del viento	9.7
41806	7	Sololá	701	Sololá	3	Barraneche	8	Agosto	2023-06-08T00:00:00	2024-11-06T17:00:00	7	Dirección del viento	9.66
41807	7	Sololá	701	Sololá	3	Barraneche	8	Agosto	2023-06-08T00:00:00	2024-11-06T17:00:00	1	Precipitación	0
41808	7	Sololá	701	Sololá	3	Barraneche	8	Agosto	2023-06-08T00:00:00	2024-11-06T17:00:00	8	Radiación solar	211
41809	7	Sololá	701	Sololá	3	Barraneche	8	Agosto	2023-06-08T00:00:00	2024-11-06T18:00:00	2	Temperatura media	17.1
41810	7	Sololá	701	Sololá	3	Barraneche	8	Agosto	2023-06-08T00:00:00	2024-11-06T18:00:00	4	Temperatura máxima	18.6
41811	7	Sololá	701	Sololá	3	Barraneche	8	Agosto	2023-06-08T00:00:00	2024-11-06T18:00:00	3	Temperatura mínima	17.1
41812	7	Sololá	701	Sololá	3	Barraneche	8	Agosto	2023-06-08T00:00:00	2024-11-06T18:00:00	5	Humedad	58
41813	7	Sololá	701	Sololá	3	Barraneche	8	Agosto	2023-06-08T00:00:00	2024-11-06T18:00:00	6	Velocidad del viento	8
41814	7	Sololá	701	Sololá	3	Barraneche	8	Agosto	2023-06-08T00:00:00	2024-11-06T18:00:00	7	Dirección del viento	8.05
41815	7	Sololá	701	Sololá	3	Barraneche	8	Agosto	2023-06-08T00:00:00	2024-11-06T18:00:00	1	Precipitación	0
41816	7	Sololá	701	Sololá	3	Barraneche	8	Agosto	2023-06-08T00:00:00	2024-11-06T18:00:00	8	Radiación solar	54
41817	7	Sololá	701	Sololá	3	Barraneche	8	Agosto	2023-06-08T00:00:00	2024-11-06T19:00:00	2	Temperatura media	16.6
41818	7	Sololá	701	Sololá	3	Barraneche	8	Agosto	2023-06-08T00:00:00	2024-11-06T19:00:00	4	Temperatura máxima	17.1
41819	7	Sololá	701	Sololá	3	Barraneche	8	Agosto	2023-06-08T00:00:00	2024-11-06T19:00:00	3	Temperatura mínima	16.5
41820	7	Sololá	701	Sololá	3	Barraneche	8	Agosto	2023-06-08T00:00:00	2024-11-06T19:00:00	5	Humedad	62
41821	7	Sololá	701	Sololá	3	Barraneche	8	Agosto	2023-06-08T00:00:00	2024-11-06T19:00:00	6	Velocidad del viento	9.7
41822	7	Sololá	701	Sololá	3	Barraneche	8	Agosto	2023-06-08T00:00:00	2024-11-06T19:00:00	7	Dirección del viento	9.66
41823	7	Sololá	701	Sololá	3	Barraneche	8	Agosto	2023-06-08T00:00:00	2024-11-06T19:00:00	1	Precipitación	0
41824	7	Sololá	701	Sololá	3	Barraneche	8	Agosto	2023-06-08T00:00:00	2024-11-06T19:00:00	8	Radiación solar	0
41825	7	Sololá	701	Sololá	3	Barraneche	8	Agosto	2023-06-08T00:00:00	2024-11-06T20:00:00	2	Temperatura media	15.8
41826	7	Sololá	701	Sololá	3	Barraneche	8	Agosto	2023-06-08T00:00:00	2024-11-06T20:00:00	4	Temperatura máxima	16.6
41827	7	Sololá	701	Sololá	3	Barraneche	8	Agosto	2023-06-08T00:00:00	2024-11-06T20:00:00	3	Temperatura mínima	15.8
41828	7	Sololá	701	Sololá	3	Barraneche	8	Agosto	2023-06-08T00:00:00	2024-11-06T20:00:00	5	Humedad	63
41829	7	Sololá	701	Sololá	3	Barraneche	8	Agosto	2023-06-08T00:00:00	2024-11-06T20:00:00	6	Velocidad del viento	12.9
41830	7	Sololá	701	Sololá	3	Barraneche	8	Agosto	2023-06-08T00:00:00	2024-11-06T20:00:00	7	Dirección del viento	12.87
41831	7	Sololá	701	Sololá	3	Barraneche	8	Agosto	2023-06-08T00:00:00	2024-11-06T20:00:00	1	Precipitación	0
41832	7	Sololá	701	Sololá	3	Barraneche	8	Agosto	2023-06-08T00:00:00	2024-11-06T20:00:00	8	Radiación solar	0
41833	7	Sololá	701	Sololá	3	Barraneche	8	Agosto	2023-06-08T00:00:00	2024-11-06T21:00:00	2	Temperatura media	15.9
41834	7	Sololá	701	Sololá	3	Barraneche	8	Agosto	2023-06-08T00:00:00	2024-11-06T21:00:00	4	Temperatura máxima	16.2
41835	7	Sololá	701	Sololá	3	Barraneche	8	Agosto	2023-06-08T00:00:00	2024-11-06T21:00:00	3	Temperatura mínima	15.8
41836	7	Sololá	701	Sololá	3	Barraneche	8	Agosto	2023-06-08T00:00:00	2024-11-06T21:00:00	5	Humedad	63
41837	7	Sololá	701	Sololá	3	Barraneche	8	Agosto	2023-06-08T00:00:00	2024-11-06T21:00:00	6	Velocidad del viento	9.7
41838	7	Sololá	701	Sololá	3	Barraneche	8	Agosto	2023-06-08T00:00:00	2024-11-06T21:00:00	7	Dirección del viento	9.66
41839	7	Sololá	701	Sololá	3	Barraneche	8	Agosto	2023-06-08T00:00:00	2024-11-06T21:00:00	1	Precipitación	0
41840	7	Sololá	701	Sololá	3	Barraneche	8	Agosto	2023-06-08T00:00:00	2024-11-06T21:00:00	8	Radiación solar	0
41841	7	Sololá	701	Sololá	3	Barraneche	8	Agosto	2023-06-08T00:00:00	2024-11-06T22:00:00	2	Temperatura media	15.6
41842	7	Sololá	701	Sololá	3	Barraneche	8	Agosto	2023-06-08T00:00:00	2024-11-06T22:00:00	4	Temperatura máxima	15.9
41843	7	Sololá	701	Sololá	3	Barraneche	8	Agosto	2023-06-08T00:00:00	2024-11-06T22:00:00	3	Temperatura mínima	15.6
41844	7	Sololá	701	Sololá	3	Barraneche	8	Agosto	2023-06-08T00:00:00	2024-11-06T22:00:00	5	Humedad	63
41845	7	Sololá	701	Sololá	3	Barraneche	8	Agosto	2023-06-08T00:00:00	2024-11-06T22:00:00	6	Velocidad del viento	9.7
41846	7	Sololá	701	Sololá	3	Barraneche	8	Agosto	2023-06-08T00:00:00	2024-11-06T22:00:00	7	Dirección del viento	9.66
41847	7	Sololá	701	Sololá	3	Barraneche	8	Agosto	2023-06-08T00:00:00	2024-11-06T22:00:00	1	Precipitación	0
41848	7	Sololá	701	Sololá	3	Barraneche	8	Agosto	2023-06-08T00:00:00	2024-11-06T22:00:00	8	Radiación solar	0
41849	7	Sololá	701	Sololá	3	Barraneche	8	Agosto	2023-06-08T00:00:00	2024-11-06T23:00:00	2	Temperatura media	14.7
41850	7	Sololá	701	Sololá	3	Barraneche	8	Agosto	2023-06-08T00:00:00	2024-11-06T23:00:00	4	Temperatura máxima	15.6
41851	7	Sololá	701	Sololá	3	Barraneche	8	Agosto	2023-06-08T00:00:00	2024-11-06T23:00:00	3	Temperatura mínima	14.7
41852	7	Sololá	701	Sololá	3	Barraneche	8	Agosto	2023-06-08T00:00:00	2024-11-06T23:00:00	5	Humedad	62
41853	7	Sololá	701	Sololá	3	Barraneche	8	Agosto	2023-06-08T00:00:00	2024-11-06T23:00:00	6	Velocidad del viento	14.5
41854	7	Sololá	701	Sololá	3	Barraneche	8	Agosto	2023-06-08T00:00:00	2024-11-06T23:00:00	7	Dirección del viento	14.48
41855	7	Sololá	701	Sololá	3	Barraneche	8	Agosto	2023-06-08T00:00:00	2024-11-06T23:00:00	1	Precipitación	0
41856	7	Sololá	701	Sololá	3	Barraneche	8	Agosto	2023-06-08T00:00:00	2024-11-06T23:00:00	8	Radiación solar	0
41857	7	Sololá	701	Sololá	3	Barraneche	8	Agosto	2023-07-08T00:00:00	2024-11-06T00:00:00	2	Temperatura media	14.1
41858	7	Sololá	701	Sololá	3	Barraneche	8	Agosto	2023-07-08T00:00:00	2024-11-06T00:00:00	4	Temperatura máxima	14.8
41859	7	Sololá	701	Sololá	3	Barraneche	8	Agosto	2023-07-08T00:00:00	2024-11-06T00:00:00	3	Temperatura mínima	14
41860	7	Sololá	701	Sololá	3	Barraneche	8	Agosto	2023-07-08T00:00:00	2024-11-06T00:00:00	5	Humedad	64
41861	7	Sololá	701	Sololá	3	Barraneche	8	Agosto	2023-07-08T00:00:00	2024-11-06T00:00:00	6	Velocidad del viento	11.3
41862	7	Sololá	701	Sololá	3	Barraneche	8	Agosto	2023-07-08T00:00:00	2024-11-06T00:00:00	7	Dirección del viento	11.27
41863	7	Sololá	701	Sololá	3	Barraneche	8	Agosto	2023-07-08T00:00:00	2024-11-06T00:00:00	1	Precipitación	0
41864	7	Sololá	701	Sololá	3	Barraneche	8	Agosto	2023-07-08T00:00:00	2024-11-06T00:00:00	8	Radiación solar	0
41865	7	Sololá	701	Sololá	3	Barraneche	8	Agosto	2023-07-08T00:00:00	2024-11-06T01:00:00	2	Temperatura media	14.3
41866	7	Sololá	701	Sololá	3	Barraneche	8	Agosto	2023-07-08T00:00:00	2024-11-06T01:00:00	4	Temperatura máxima	14.3
41867	7	Sololá	701	Sololá	3	Barraneche	8	Agosto	2023-07-08T00:00:00	2024-11-06T01:00:00	3	Temperatura mínima	12.7
41868	7	Sololá	701	Sololá	3	Barraneche	8	Agosto	2023-07-08T00:00:00	2024-11-06T01:00:00	5	Humedad	63
41869	7	Sololá	701	Sololá	3	Barraneche	8	Agosto	2023-07-08T00:00:00	2024-11-06T01:00:00	6	Velocidad del viento	4.8
41870	7	Sololá	701	Sololá	3	Barraneche	8	Agosto	2023-07-08T00:00:00	2024-11-06T01:00:00	7	Dirección del viento	4.83
41871	7	Sololá	701	Sololá	3	Barraneche	8	Agosto	2023-07-08T00:00:00	2024-11-06T01:00:00	1	Precipitación	0
41872	7	Sololá	701	Sololá	3	Barraneche	8	Agosto	2023-07-08T00:00:00	2024-11-06T01:00:00	8	Radiación solar	0
41873	7	Sololá	701	Sololá	3	Barraneche	8	Agosto	2023-07-08T00:00:00	2024-11-06T02:00:00	2	Temperatura media	16.1
41874	7	Sololá	701	Sololá	3	Barraneche	8	Agosto	2023-07-08T00:00:00	2024-11-06T02:00:00	4	Temperatura máxima	16.3
41875	7	Sololá	701	Sololá	3	Barraneche	8	Agosto	2023-07-08T00:00:00	2024-11-06T02:00:00	3	Temperatura mínima	14.3
41876	7	Sololá	701	Sololá	3	Barraneche	8	Agosto	2023-07-08T00:00:00	2024-11-06T02:00:00	5	Humedad	53
41877	7	Sololá	701	Sololá	3	Barraneche	8	Agosto	2023-07-08T00:00:00	2024-11-06T02:00:00	6	Velocidad del viento	9.7
41878	7	Sololá	701	Sololá	3	Barraneche	8	Agosto	2023-07-08T00:00:00	2024-11-06T02:00:00	7	Dirección del viento	9.66
41879	7	Sololá	701	Sololá	3	Barraneche	8	Agosto	2023-07-08T00:00:00	2024-11-06T02:00:00	1	Precipitación	0
41880	7	Sololá	701	Sololá	3	Barraneche	8	Agosto	2023-07-08T00:00:00	2024-11-06T02:00:00	8	Radiación solar	0
41881	7	Sololá	701	Sololá	3	Barraneche	8	Agosto	2023-07-08T00:00:00	2024-11-06T03:00:00	2	Temperatura media	14.9
41882	7	Sololá	701	Sololá	3	Barraneche	8	Agosto	2023-07-08T00:00:00	2024-11-06T03:00:00	4	Temperatura máxima	16.3
41883	7	Sololá	701	Sololá	3	Barraneche	8	Agosto	2023-07-08T00:00:00	2024-11-06T03:00:00	3	Temperatura mínima	14.9
41884	7	Sololá	701	Sololá	3	Barraneche	8	Agosto	2023-07-08T00:00:00	2024-11-06T03:00:00	5	Humedad	58
41885	7	Sololá	701	Sololá	3	Barraneche	8	Agosto	2023-07-08T00:00:00	2024-11-06T03:00:00	6	Velocidad del viento	9.7
41886	7	Sololá	701	Sololá	3	Barraneche	8	Agosto	2023-07-08T00:00:00	2024-11-06T03:00:00	7	Dirección del viento	9.66
41887	7	Sololá	701	Sololá	3	Barraneche	8	Agosto	2023-07-08T00:00:00	2024-11-06T03:00:00	1	Precipitación	0
41888	7	Sololá	701	Sololá	3	Barraneche	8	Agosto	2023-07-08T00:00:00	2024-11-06T03:00:00	8	Radiación solar	0
41889	7	Sololá	701	Sololá	3	Barraneche	8	Agosto	2023-07-08T00:00:00	2024-11-06T04:00:00	2	Temperatura media	12
41890	7	Sololá	701	Sololá	3	Barraneche	8	Agosto	2023-07-08T00:00:00	2024-11-06T04:00:00	4	Temperatura máxima	14.9
41891	7	Sololá	701	Sololá	3	Barraneche	8	Agosto	2023-07-08T00:00:00	2024-11-06T04:00:00	3	Temperatura mínima	12
41892	7	Sololá	701	Sololá	3	Barraneche	8	Agosto	2023-07-08T00:00:00	2024-11-06T04:00:00	5	Humedad	67
41893	7	Sololá	701	Sololá	3	Barraneche	8	Agosto	2023-07-08T00:00:00	2024-11-06T04:00:00	6	Velocidad del viento	3.2
41894	7	Sololá	701	Sololá	3	Barraneche	8	Agosto	2023-07-08T00:00:00	2024-11-06T04:00:00	7	Dirección del viento	3.22
41895	7	Sololá	701	Sololá	3	Barraneche	8	Agosto	2023-07-08T00:00:00	2024-11-06T04:00:00	1	Precipitación	0
41896	7	Sololá	701	Sololá	3	Barraneche	8	Agosto	2023-07-08T00:00:00	2024-11-06T04:00:00	8	Radiación solar	0
41897	7	Sololá	701	Sololá	3	Barraneche	8	Agosto	2023-07-08T00:00:00	2024-11-06T05:00:00	2	Temperatura media	14
41898	7	Sololá	701	Sololá	3	Barraneche	8	Agosto	2023-07-08T00:00:00	2024-11-06T05:00:00	4	Temperatura máxima	14.2
41899	7	Sololá	701	Sololá	3	Barraneche	8	Agosto	2023-07-08T00:00:00	2024-11-06T05:00:00	3	Temperatura mínima	11.8
41900	7	Sololá	701	Sololá	3	Barraneche	8	Agosto	2023-07-08T00:00:00	2024-11-06T05:00:00	5	Humedad	66
41901	7	Sololá	701	Sololá	3	Barraneche	8	Agosto	2023-07-08T00:00:00	2024-11-06T05:00:00	6	Velocidad del viento	9.7
41902	7	Sololá	701	Sololá	3	Barraneche	8	Agosto	2023-07-08T00:00:00	2024-11-06T05:00:00	7	Dirección del viento	9.66
41903	7	Sololá	701	Sololá	3	Barraneche	8	Agosto	2023-07-08T00:00:00	2024-11-06T05:00:00	1	Precipitación	0
41904	7	Sololá	701	Sololá	3	Barraneche	8	Agosto	2023-07-08T00:00:00	2024-11-06T05:00:00	8	Radiación solar	0
41905	7	Sololá	701	Sololá	3	Barraneche	8	Agosto	2023-07-08T00:00:00	2024-11-06T06:00:00	2	Temperatura media	14.5
41906	7	Sololá	701	Sololá	3	Barraneche	8	Agosto	2023-07-08T00:00:00	2024-11-06T06:00:00	4	Temperatura máxima	14.7
41907	7	Sololá	701	Sololá	3	Barraneche	8	Agosto	2023-07-08T00:00:00	2024-11-06T06:00:00	3	Temperatura mínima	14
41908	7	Sololá	701	Sololá	3	Barraneche	8	Agosto	2023-07-08T00:00:00	2024-11-06T06:00:00	5	Humedad	64
41909	7	Sololá	701	Sololá	3	Barraneche	8	Agosto	2023-07-08T00:00:00	2024-11-06T06:00:00	6	Velocidad del viento	12.9
41910	7	Sololá	701	Sololá	3	Barraneche	8	Agosto	2023-07-08T00:00:00	2024-11-06T06:00:00	7	Dirección del viento	12.87
41911	7	Sololá	701	Sololá	3	Barraneche	8	Agosto	2023-07-08T00:00:00	2024-11-06T06:00:00	1	Precipitación	0
41912	7	Sololá	701	Sololá	3	Barraneche	8	Agosto	2023-07-08T00:00:00	2024-11-06T06:00:00	8	Radiación solar	1
41913	7	Sololá	701	Sololá	3	Barraneche	8	Agosto	2023-07-08T00:00:00	2024-11-06T07:00:00	2	Temperatura media	14.9
41914	7	Sololá	701	Sololá	3	Barraneche	8	Agosto	2023-07-08T00:00:00	2024-11-06T07:00:00	4	Temperatura máxima	14.9
41915	7	Sololá	701	Sololá	3	Barraneche	8	Agosto	2023-07-08T00:00:00	2024-11-06T07:00:00	3	Temperatura mínima	14.4
41916	7	Sololá	701	Sololá	3	Barraneche	8	Agosto	2023-07-08T00:00:00	2024-11-06T07:00:00	5	Humedad	63
41917	7	Sololá	701	Sololá	3	Barraneche	8	Agosto	2023-07-08T00:00:00	2024-11-06T07:00:00	6	Velocidad del viento	17.7
41918	7	Sololá	701	Sololá	3	Barraneche	8	Agosto	2023-07-08T00:00:00	2024-11-06T07:00:00	7	Dirección del viento	17.7
41919	7	Sololá	701	Sololá	3	Barraneche	8	Agosto	2023-07-08T00:00:00	2024-11-06T07:00:00	1	Precipitación	0
41920	7	Sololá	701	Sololá	3	Barraneche	8	Agosto	2023-07-08T00:00:00	2024-11-06T07:00:00	8	Radiación solar	60
41921	7	Sololá	701	Sololá	3	Barraneche	8	Agosto	2023-07-08T00:00:00	2024-11-06T08:00:00	2	Temperatura media	16
41922	7	Sololá	701	Sololá	3	Barraneche	8	Agosto	2023-07-08T00:00:00	2024-11-06T08:00:00	4	Temperatura máxima	16.2
41923	7	Sololá	701	Sololá	3	Barraneche	8	Agosto	2023-07-08T00:00:00	2024-11-06T08:00:00	3	Temperatura mínima	14.9
41924	7	Sololá	701	Sololá	3	Barraneche	8	Agosto	2023-07-08T00:00:00	2024-11-06T08:00:00	5	Humedad	57
41925	7	Sololá	701	Sololá	3	Barraneche	8	Agosto	2023-07-08T00:00:00	2024-11-06T08:00:00	6	Velocidad del viento	19.3
41926	7	Sololá	701	Sololá	3	Barraneche	8	Agosto	2023-07-08T00:00:00	2024-11-06T08:00:00	7	Dirección del viento	19.31
41927	7	Sololá	701	Sololá	3	Barraneche	8	Agosto	2023-07-08T00:00:00	2024-11-06T08:00:00	1	Precipitación	0
41928	7	Sololá	701	Sololá	3	Barraneche	8	Agosto	2023-07-08T00:00:00	2024-11-06T08:00:00	8	Radiación solar	346
41929	7	Sololá	701	Sololá	3	Barraneche	8	Agosto	2023-07-08T00:00:00	2024-11-06T09:00:00	2	Temperatura media	17.7
41930	7	Sololá	701	Sololá	3	Barraneche	8	Agosto	2023-07-08T00:00:00	2024-11-06T09:00:00	4	Temperatura máxima	17.7
41931	7	Sololá	701	Sololá	3	Barraneche	8	Agosto	2023-07-08T00:00:00	2024-11-06T09:00:00	3	Temperatura mínima	16
41932	7	Sololá	701	Sololá	3	Barraneche	8	Agosto	2023-07-08T00:00:00	2024-11-06T09:00:00	5	Humedad	51
41933	7	Sololá	701	Sololá	3	Barraneche	8	Agosto	2023-07-08T00:00:00	2024-11-06T09:00:00	6	Velocidad del viento	16.1
41934	7	Sololá	701	Sololá	3	Barraneche	8	Agosto	2023-07-08T00:00:00	2024-11-06T09:00:00	7	Dirección del viento	16.09
41935	7	Sololá	701	Sololá	3	Barraneche	8	Agosto	2023-07-08T00:00:00	2024-11-06T09:00:00	1	Precipitación	0
41936	7	Sololá	701	Sololá	3	Barraneche	8	Agosto	2023-07-08T00:00:00	2024-11-06T09:00:00	8	Radiación solar	585
41937	7	Sololá	701	Sololá	3	Barraneche	8	Agosto	2023-07-08T00:00:00	2024-11-06T10:00:00	2	Temperatura media	18.7
41938	7	Sololá	701	Sololá	3	Barraneche	8	Agosto	2023-07-08T00:00:00	2024-11-06T10:00:00	4	Temperatura máxima	18.9
41939	7	Sololá	701	Sololá	3	Barraneche	8	Agosto	2023-07-08T00:00:00	2024-11-06T10:00:00	3	Temperatura mínima	17.4
41940	7	Sololá	701	Sololá	3	Barraneche	8	Agosto	2023-07-08T00:00:00	2024-11-06T10:00:00	5	Humedad	51
41941	7	Sololá	701	Sololá	3	Barraneche	8	Agosto	2023-07-08T00:00:00	2024-11-06T10:00:00	6	Velocidad del viento	16.1
41942	7	Sololá	701	Sololá	3	Barraneche	8	Agosto	2023-07-08T00:00:00	2024-11-06T10:00:00	7	Dirección del viento	16.09
41943	7	Sololá	701	Sololá	3	Barraneche	8	Agosto	2023-07-08T00:00:00	2024-11-06T10:00:00	1	Precipitación	0
41944	7	Sololá	701	Sololá	3	Barraneche	8	Agosto	2023-07-08T00:00:00	2024-11-06T10:00:00	8	Radiación solar	769
41945	7	Sololá	701	Sololá	3	Barraneche	8	Agosto	2023-07-08T00:00:00	2024-11-06T11:00:00	2	Temperatura media	18.9
41946	7	Sololá	701	Sololá	3	Barraneche	8	Agosto	2023-07-08T00:00:00	2024-11-06T11:00:00	4	Temperatura máxima	19.2
41947	7	Sololá	701	Sololá	3	Barraneche	8	Agosto	2023-07-08T00:00:00	2024-11-06T11:00:00	3	Temperatura mínima	18.7
41948	7	Sololá	701	Sololá	3	Barraneche	8	Agosto	2023-07-08T00:00:00	2024-11-06T11:00:00	5	Humedad	53
41949	7	Sololá	701	Sololá	3	Barraneche	8	Agosto	2023-07-08T00:00:00	2024-11-06T11:00:00	6	Velocidad del viento	16.1
41950	7	Sololá	701	Sololá	3	Barraneche	8	Agosto	2023-07-08T00:00:00	2024-11-06T11:00:00	7	Dirección del viento	16.09
41951	7	Sololá	701	Sololá	3	Barraneche	8	Agosto	2023-07-08T00:00:00	2024-11-06T11:00:00	1	Precipitación	0
41952	7	Sololá	701	Sololá	3	Barraneche	8	Agosto	2023-07-08T00:00:00	2024-11-06T11:00:00	8	Radiación solar	941
41953	7	Sololá	701	Sololá	3	Barraneche	8	Agosto	2023-07-08T00:00:00	2024-11-06T12:00:00	2	Temperatura media	18.9
41954	7	Sololá	701	Sololá	3	Barraneche	8	Agosto	2023-07-08T00:00:00	2024-11-06T12:00:00	4	Temperatura máxima	18.9
41955	7	Sololá	701	Sololá	3	Barraneche	8	Agosto	2023-07-08T00:00:00	2024-11-06T12:00:00	3	Temperatura mínima	17.9
41956	7	Sololá	701	Sololá	3	Barraneche	8	Agosto	2023-07-08T00:00:00	2024-11-06T12:00:00	5	Humedad	55
41957	7	Sololá	701	Sololá	3	Barraneche	8	Agosto	2023-07-08T00:00:00	2024-11-06T12:00:00	6	Velocidad del viento	17.7
41958	7	Sololá	701	Sololá	3	Barraneche	8	Agosto	2023-07-08T00:00:00	2024-11-06T12:00:00	7	Dirección del viento	17.7
41959	7	Sololá	701	Sololá	3	Barraneche	8	Agosto	2023-07-08T00:00:00	2024-11-06T12:00:00	1	Precipitación	0
41960	7	Sololá	701	Sololá	3	Barraneche	8	Agosto	2023-07-08T00:00:00	2024-11-06T12:00:00	8	Radiación solar	902
41961	7	Sololá	701	Sololá	3	Barraneche	8	Agosto	2023-07-08T00:00:00	2024-11-06T13:00:00	2	Temperatura media	19.7
41962	7	Sololá	701	Sololá	3	Barraneche	8	Agosto	2023-07-08T00:00:00	2024-11-06T13:00:00	4	Temperatura máxima	20.2
41963	7	Sololá	701	Sololá	3	Barraneche	8	Agosto	2023-07-08T00:00:00	2024-11-06T13:00:00	3	Temperatura mínima	18.9
41964	7	Sololá	701	Sololá	3	Barraneche	8	Agosto	2023-07-08T00:00:00	2024-11-06T13:00:00	5	Humedad	51
41965	7	Sololá	701	Sololá	3	Barraneche	8	Agosto	2023-07-08T00:00:00	2024-11-06T13:00:00	6	Velocidad del viento	12.9
41966	7	Sololá	701	Sololá	3	Barraneche	8	Agosto	2023-07-08T00:00:00	2024-11-06T13:00:00	7	Dirección del viento	12.87
41967	7	Sololá	701	Sololá	3	Barraneche	8	Agosto	2023-07-08T00:00:00	2024-11-06T13:00:00	1	Precipitación	0
41968	7	Sololá	701	Sololá	3	Barraneche	8	Agosto	2023-07-08T00:00:00	2024-11-06T13:00:00	8	Radiación solar	1078
41969	7	Sololá	701	Sololá	3	Barraneche	8	Agosto	2023-07-08T00:00:00	2024-11-06T14:00:00	2	Temperatura media	20.3
41970	7	Sololá	701	Sololá	3	Barraneche	8	Agosto	2023-07-08T00:00:00	2024-11-06T14:00:00	4	Temperatura máxima	20.7
41971	7	Sololá	701	Sololá	3	Barraneche	8	Agosto	2023-07-08T00:00:00	2024-11-06T14:00:00	3	Temperatura mínima	19.6
41972	7	Sololá	701	Sololá	3	Barraneche	8	Agosto	2023-07-08T00:00:00	2024-11-06T14:00:00	5	Humedad	52
41973	7	Sololá	701	Sololá	3	Barraneche	8	Agosto	2023-07-08T00:00:00	2024-11-06T14:00:00	6	Velocidad del viento	12.9
41974	7	Sololá	701	Sololá	3	Barraneche	8	Agosto	2023-07-08T00:00:00	2024-11-06T14:00:00	7	Dirección del viento	12.87
41975	7	Sololá	701	Sololá	3	Barraneche	8	Agosto	2023-07-08T00:00:00	2024-11-06T14:00:00	1	Precipitación	0
41976	7	Sololá	701	Sololá	3	Barraneche	8	Agosto	2023-07-08T00:00:00	2024-11-06T14:00:00	8	Radiación solar	1009
41977	7	Sololá	701	Sololá	3	Barraneche	8	Agosto	2023-07-08T00:00:00	2024-11-06T15:00:00	2	Temperatura media	19.6
41978	7	Sololá	701	Sololá	3	Barraneche	8	Agosto	2023-07-08T00:00:00	2024-11-06T15:00:00	4	Temperatura máxima	20.2
41979	7	Sololá	701	Sololá	3	Barraneche	8	Agosto	2023-07-08T00:00:00	2024-11-06T15:00:00	3	Temperatura mínima	18.9
41980	7	Sololá	701	Sololá	3	Barraneche	8	Agosto	2023-07-08T00:00:00	2024-11-06T15:00:00	5	Humedad	54
41981	7	Sololá	701	Sololá	3	Barraneche	8	Agosto	2023-07-08T00:00:00	2024-11-06T15:00:00	6	Velocidad del viento	12.9
41982	7	Sololá	701	Sololá	3	Barraneche	8	Agosto	2023-07-08T00:00:00	2024-11-06T15:00:00	7	Dirección del viento	12.87
41983	7	Sololá	701	Sololá	3	Barraneche	8	Agosto	2023-07-08T00:00:00	2024-11-06T15:00:00	1	Precipitación	0
41984	7	Sololá	701	Sololá	3	Barraneche	8	Agosto	2023-07-08T00:00:00	2024-11-06T15:00:00	8	Radiación solar	598
41985	7	Sololá	701	Sololá	3	Barraneche	8	Agosto	2023-07-08T00:00:00	2024-11-06T16:00:00	2	Temperatura media	20.1
41986	7	Sololá	701	Sololá	3	Barraneche	8	Agosto	2023-07-08T00:00:00	2024-11-06T16:00:00	4	Temperatura máxima	20.4
41987	7	Sololá	701	Sololá	3	Barraneche	8	Agosto	2023-07-08T00:00:00	2024-11-06T16:00:00	3	Temperatura mínima	19.6
41988	7	Sololá	701	Sololá	3	Barraneche	8	Agosto	2023-07-08T00:00:00	2024-11-06T16:00:00	5	Humedad	50
41989	7	Sololá	701	Sololá	3	Barraneche	8	Agosto	2023-07-08T00:00:00	2024-11-06T16:00:00	6	Velocidad del viento	11.3
41990	7	Sololá	701	Sololá	3	Barraneche	8	Agosto	2023-07-08T00:00:00	2024-11-06T16:00:00	7	Dirección del viento	11.27
41991	7	Sololá	701	Sololá	3	Barraneche	8	Agosto	2023-07-08T00:00:00	2024-11-06T16:00:00	1	Precipitación	0
41992	7	Sololá	701	Sololá	3	Barraneche	8	Agosto	2023-07-08T00:00:00	2024-11-06T16:00:00	8	Radiación solar	573
41993	7	Sololá	701	Sololá	3	Barraneche	8	Agosto	2023-07-08T00:00:00	2024-11-06T17:00:00	2	Temperatura media	19.2
41994	7	Sololá	701	Sololá	3	Barraneche	8	Agosto	2023-07-08T00:00:00	2024-11-06T17:00:00	4	Temperatura máxima	20.1
41995	7	Sololá	701	Sololá	3	Barraneche	8	Agosto	2023-07-08T00:00:00	2024-11-06T17:00:00	3	Temperatura mínima	19.2
41996	7	Sololá	701	Sololá	3	Barraneche	8	Agosto	2023-07-08T00:00:00	2024-11-06T17:00:00	5	Humedad	54
41997	7	Sololá	701	Sololá	3	Barraneche	8	Agosto	2023-07-08T00:00:00	2024-11-06T17:00:00	6	Velocidad del viento	9.7
41998	7	Sololá	701	Sololá	3	Barraneche	8	Agosto	2023-07-08T00:00:00	2024-11-06T17:00:00	7	Dirección del viento	9.66
41999	7	Sololá	701	Sololá	3	Barraneche	8	Agosto	2023-07-08T00:00:00	2024-11-06T17:00:00	1	Precipitación	0
42000	7	Sololá	701	Sololá	3	Barraneche	8	Agosto	2023-07-08T00:00:00	2024-11-06T17:00:00	8	Radiación solar	392
42001	7	Sololá	701	Sololá	3	Barraneche	8	Agosto	2023-07-08T00:00:00	2024-11-06T18:00:00	2	Temperatura media	18.7
42002	7	Sololá	701	Sololá	3	Barraneche	8	Agosto	2023-07-08T00:00:00	2024-11-06T18:00:00	4	Temperatura máxima	19.4
42003	7	Sololá	701	Sololá	3	Barraneche	8	Agosto	2023-07-08T00:00:00	2024-11-06T18:00:00	3	Temperatura mínima	18.7
42004	7	Sololá	701	Sololá	3	Barraneche	8	Agosto	2023-07-08T00:00:00	2024-11-06T18:00:00	5	Humedad	56
42005	7	Sololá	701	Sololá	3	Barraneche	8	Agosto	2023-07-08T00:00:00	2024-11-06T18:00:00	6	Velocidad del viento	8
42006	7	Sololá	701	Sololá	3	Barraneche	8	Agosto	2023-07-08T00:00:00	2024-11-06T18:00:00	7	Dirección del viento	8.05
42007	7	Sololá	701	Sololá	3	Barraneche	8	Agosto	2023-07-08T00:00:00	2024-11-06T18:00:00	1	Precipitación	0
42008	7	Sololá	701	Sololá	3	Barraneche	8	Agosto	2023-07-08T00:00:00	2024-11-06T18:00:00	8	Radiación solar	204
42009	7	Sololá	701	Sololá	3	Barraneche	8	Agosto	2023-07-08T00:00:00	2024-11-06T19:00:00	2	Temperatura media	16.4
42010	7	Sololá	701	Sololá	3	Barraneche	8	Agosto	2023-07-08T00:00:00	2024-11-06T19:00:00	4	Temperatura máxima	18.7
42011	7	Sololá	701	Sololá	3	Barraneche	8	Agosto	2023-07-08T00:00:00	2024-11-06T19:00:00	3	Temperatura mínima	16.3
42012	7	Sololá	701	Sololá	3	Barraneche	8	Agosto	2023-07-08T00:00:00	2024-11-06T19:00:00	5	Humedad	63
42013	7	Sololá	701	Sololá	3	Barraneche	8	Agosto	2023-07-08T00:00:00	2024-11-06T19:00:00	6	Velocidad del viento	11.3
42014	7	Sololá	701	Sololá	3	Barraneche	8	Agosto	2023-07-08T00:00:00	2024-11-06T19:00:00	7	Dirección del viento	11.27
42015	7	Sololá	701	Sololá	3	Barraneche	8	Agosto	2023-07-08T00:00:00	2024-11-06T19:00:00	1	Precipitación	0
42016	7	Sololá	701	Sololá	3	Barraneche	8	Agosto	2023-07-08T00:00:00	2024-11-06T19:00:00	8	Radiación solar	0
42017	7	Sololá	701	Sololá	3	Barraneche	8	Agosto	2023-07-08T00:00:00	2024-11-06T20:00:00	2	Temperatura media	16.3
42018	7	Sololá	701	Sololá	3	Barraneche	8	Agosto	2023-07-08T00:00:00	2024-11-06T20:00:00	4	Temperatura máxima	16.4
42019	7	Sololá	701	Sololá	3	Barraneche	8	Agosto	2023-07-08T00:00:00	2024-11-06T20:00:00	3	Temperatura mínima	16.3
42020	7	Sololá	701	Sololá	3	Barraneche	8	Agosto	2023-07-08T00:00:00	2024-11-06T20:00:00	5	Humedad	64
42021	7	Sololá	701	Sololá	3	Barraneche	8	Agosto	2023-07-08T00:00:00	2024-11-06T20:00:00	6	Velocidad del viento	12.9
42022	7	Sololá	701	Sololá	3	Barraneche	8	Agosto	2023-07-08T00:00:00	2024-11-06T20:00:00	7	Dirección del viento	12.87
42023	7	Sololá	701	Sololá	3	Barraneche	8	Agosto	2023-07-08T00:00:00	2024-11-06T20:00:00	1	Precipitación	0
42024	7	Sololá	701	Sololá	3	Barraneche	8	Agosto	2023-07-08T00:00:00	2024-11-06T20:00:00	8	Radiación solar	0
42025	7	Sololá	701	Sololá	3	Barraneche	8	Agosto	2023-07-08T00:00:00	2024-11-06T21:00:00	2	Temperatura media	16.2
42026	7	Sololá	701	Sololá	3	Barraneche	8	Agosto	2023-07-08T00:00:00	2024-11-06T21:00:00	4	Temperatura máxima	16.4
42027	7	Sololá	701	Sololá	3	Barraneche	8	Agosto	2023-07-08T00:00:00	2024-11-06T21:00:00	3	Temperatura mínima	16.2
42028	7	Sololá	701	Sololá	3	Barraneche	8	Agosto	2023-07-08T00:00:00	2024-11-06T21:00:00	5	Humedad	64
42029	7	Sololá	701	Sololá	3	Barraneche	8	Agosto	2023-07-08T00:00:00	2024-11-06T21:00:00	6	Velocidad del viento	11.3
42030	7	Sololá	701	Sololá	3	Barraneche	8	Agosto	2023-07-08T00:00:00	2024-11-06T21:00:00	7	Dirección del viento	11.27
42031	7	Sololá	701	Sololá	3	Barraneche	8	Agosto	2023-07-08T00:00:00	2024-11-06T21:00:00	1	Precipitación	0
42032	7	Sololá	701	Sololá	3	Barraneche	8	Agosto	2023-07-08T00:00:00	2024-11-06T21:00:00	8	Radiación solar	0
42033	7	Sololá	701	Sololá	3	Barraneche	8	Agosto	2023-07-08T00:00:00	2024-11-06T22:00:00	2	Temperatura media	16.3
42034	7	Sololá	701	Sololá	3	Barraneche	8	Agosto	2023-07-08T00:00:00	2024-11-06T22:00:00	4	Temperatura máxima	16.4
42035	7	Sololá	701	Sololá	3	Barraneche	8	Agosto	2023-07-08T00:00:00	2024-11-06T22:00:00	3	Temperatura mínima	16.2
42036	7	Sololá	701	Sololá	3	Barraneche	8	Agosto	2023-07-08T00:00:00	2024-11-06T22:00:00	5	Humedad	62
42037	7	Sololá	701	Sololá	3	Barraneche	8	Agosto	2023-07-08T00:00:00	2024-11-06T22:00:00	6	Velocidad del viento	9.7
42038	7	Sololá	701	Sololá	3	Barraneche	8	Agosto	2023-07-08T00:00:00	2024-11-06T22:00:00	7	Dirección del viento	9.66
42039	7	Sololá	701	Sololá	3	Barraneche	8	Agosto	2023-07-08T00:00:00	2024-11-06T22:00:00	1	Precipitación	0
42040	7	Sololá	701	Sololá	3	Barraneche	8	Agosto	2023-07-08T00:00:00	2024-11-06T22:00:00	8	Radiación solar	0
42041	7	Sololá	701	Sololá	3	Barraneche	8	Agosto	2023-07-08T00:00:00	2024-11-06T23:00:00	2	Temperatura media	15.8
42042	7	Sololá	701	Sololá	3	Barraneche	8	Agosto	2023-07-08T00:00:00	2024-11-06T23:00:00	4	Temperatura máxima	16.4
42043	7	Sololá	701	Sololá	3	Barraneche	8	Agosto	2023-07-08T00:00:00	2024-11-06T23:00:00	3	Temperatura mínima	15.7
42044	7	Sololá	701	Sololá	3	Barraneche	8	Agosto	2023-07-08T00:00:00	2024-11-06T23:00:00	5	Humedad	63
42045	7	Sololá	701	Sololá	3	Barraneche	8	Agosto	2023-07-08T00:00:00	2024-11-06T23:00:00	6	Velocidad del viento	14.5
42046	7	Sololá	701	Sololá	3	Barraneche	8	Agosto	2023-07-08T00:00:00	2024-11-06T23:00:00	7	Dirección del viento	14.48
42047	7	Sololá	701	Sololá	3	Barraneche	8	Agosto	2023-07-08T00:00:00	2024-11-06T23:00:00	1	Precipitación	0
42048	7	Sololá	701	Sololá	3	Barraneche	8	Agosto	2023-07-08T00:00:00	2024-11-06T23:00:00	8	Radiación solar	0
42049	7	Sololá	701	Sololá	3	Barraneche	8	Agosto	2023-08-08T00:00:00	2024-11-06T00:00:00	2	Temperatura media	15.2
42050	7	Sololá	701	Sololá	3	Barraneche	8	Agosto	2023-08-08T00:00:00	2024-11-06T00:00:00	4	Temperatura máxima	15.8
42051	7	Sololá	701	Sololá	3	Barraneche	8	Agosto	2023-08-08T00:00:00	2024-11-06T00:00:00	3	Temperatura mínima	15.2
42052	7	Sololá	701	Sololá	3	Barraneche	8	Agosto	2023-08-08T00:00:00	2024-11-06T00:00:00	5	Humedad	66
42053	7	Sololá	701	Sololá	3	Barraneche	8	Agosto	2023-08-08T00:00:00	2024-11-06T00:00:00	6	Velocidad del viento	9.7
42054	7	Sololá	701	Sololá	3	Barraneche	8	Agosto	2023-08-08T00:00:00	2024-11-06T00:00:00	7	Dirección del viento	9.66
42055	7	Sololá	701	Sololá	3	Barraneche	8	Agosto	2023-08-08T00:00:00	2024-11-06T00:00:00	1	Precipitación	0
42056	7	Sololá	701	Sololá	3	Barraneche	8	Agosto	2023-08-08T00:00:00	2024-11-06T00:00:00	8	Radiación solar	0
42057	7	Sololá	701	Sololá	3	Barraneche	8	Agosto	2023-08-08T00:00:00	2024-11-06T01:00:00	2	Temperatura media	15.5
42058	7	Sololá	701	Sololá	3	Barraneche	8	Agosto	2023-08-08T00:00:00	2024-11-06T01:00:00	4	Temperatura máxima	15.6
42059	7	Sololá	701	Sololá	3	Barraneche	8	Agosto	2023-08-08T00:00:00	2024-11-06T01:00:00	3	Temperatura mínima	15.1
42060	7	Sololá	701	Sololá	3	Barraneche	8	Agosto	2023-08-08T00:00:00	2024-11-06T01:00:00	5	Humedad	65
42061	7	Sololá	701	Sololá	3	Barraneche	8	Agosto	2023-08-08T00:00:00	2024-11-06T01:00:00	6	Velocidad del viento	4.8
42062	7	Sololá	701	Sololá	3	Barraneche	8	Agosto	2023-08-08T00:00:00	2024-11-06T01:00:00	7	Dirección del viento	4.83
42063	7	Sololá	701	Sololá	3	Barraneche	8	Agosto	2023-08-08T00:00:00	2024-11-06T01:00:00	1	Precipitación	0
42064	7	Sololá	701	Sololá	3	Barraneche	8	Agosto	2023-08-08T00:00:00	2024-11-06T01:00:00	8	Radiación solar	0
42065	7	Sololá	701	Sololá	3	Barraneche	8	Agosto	2023-08-08T00:00:00	2024-11-06T02:00:00	2	Temperatura media	15.5
42066	7	Sololá	701	Sololá	3	Barraneche	8	Agosto	2023-08-08T00:00:00	2024-11-06T02:00:00	4	Temperatura máxima	15.5
42067	7	Sololá	701	Sololá	3	Barraneche	8	Agosto	2023-08-08T00:00:00	2024-11-06T02:00:00	3	Temperatura mínima	15
42068	7	Sololá	701	Sololá	3	Barraneche	8	Agosto	2023-08-08T00:00:00	2024-11-06T02:00:00	5	Humedad	64
42069	7	Sololá	701	Sololá	3	Barraneche	8	Agosto	2023-08-08T00:00:00	2024-11-06T02:00:00	6	Velocidad del viento	9.7
42070	7	Sololá	701	Sololá	3	Barraneche	8	Agosto	2023-08-08T00:00:00	2024-11-06T02:00:00	7	Dirección del viento	9.66
42071	7	Sololá	701	Sololá	3	Barraneche	8	Agosto	2023-08-08T00:00:00	2024-11-06T02:00:00	1	Precipitación	0
42072	7	Sololá	701	Sololá	3	Barraneche	8	Agosto	2023-08-08T00:00:00	2024-11-06T02:00:00	8	Radiación solar	0
42073	7	Sololá	701	Sololá	3	Barraneche	8	Agosto	2023-08-08T00:00:00	2024-11-06T03:00:00	2	Temperatura media	15.7
42074	7	Sololá	701	Sololá	3	Barraneche	8	Agosto	2023-08-08T00:00:00	2024-11-06T03:00:00	4	Temperatura máxima	15.7
42075	7	Sololá	701	Sololá	3	Barraneche	8	Agosto	2023-08-08T00:00:00	2024-11-06T03:00:00	3	Temperatura mínima	15.2
42076	7	Sololá	701	Sololá	3	Barraneche	8	Agosto	2023-08-08T00:00:00	2024-11-06T03:00:00	5	Humedad	60
42077	7	Sololá	701	Sololá	3	Barraneche	8	Agosto	2023-08-08T00:00:00	2024-11-06T03:00:00	6	Velocidad del viento	12.9
42078	7	Sololá	701	Sololá	3	Barraneche	8	Agosto	2023-08-08T00:00:00	2024-11-06T03:00:00	7	Dirección del viento	12.87
42079	7	Sololá	701	Sololá	3	Barraneche	8	Agosto	2023-08-08T00:00:00	2024-11-06T03:00:00	1	Precipitación	0
42080	7	Sololá	701	Sololá	3	Barraneche	8	Agosto	2023-08-08T00:00:00	2024-11-06T03:00:00	8	Radiación solar	0
42081	7	Sololá	701	Sololá	3	Barraneche	8	Agosto	2023-08-08T00:00:00	2024-11-06T04:00:00	2	Temperatura media	15.7
42082	7	Sololá	701	Sololá	3	Barraneche	8	Agosto	2023-08-08T00:00:00	2024-11-06T04:00:00	4	Temperatura máxima	16.1
42083	7	Sololá	701	Sololá	3	Barraneche	8	Agosto	2023-08-08T00:00:00	2024-11-06T04:00:00	3	Temperatura mínima	15.7
42084	7	Sololá	701	Sololá	3	Barraneche	8	Agosto	2023-08-08T00:00:00	2024-11-06T04:00:00	5	Humedad	60
42085	7	Sololá	701	Sololá	3	Barraneche	8	Agosto	2023-08-08T00:00:00	2024-11-06T04:00:00	6	Velocidad del viento	12.9
42086	7	Sololá	701	Sololá	3	Barraneche	8	Agosto	2023-08-08T00:00:00	2024-11-06T04:00:00	7	Dirección del viento	12.87
42087	7	Sololá	701	Sololá	3	Barraneche	8	Agosto	2023-08-08T00:00:00	2024-11-06T04:00:00	1	Precipitación	0
42088	7	Sololá	701	Sololá	3	Barraneche	8	Agosto	2023-08-08T00:00:00	2024-11-06T04:00:00	8	Radiación solar	0
42089	7	Sololá	701	Sololá	3	Barraneche	8	Agosto	2023-08-08T00:00:00	2024-11-06T05:00:00	2	Temperatura media	16.9
42090	7	Sololá	701	Sololá	3	Barraneche	8	Agosto	2023-08-08T00:00:00	2024-11-06T05:00:00	4	Temperatura máxima	17.2
42091	7	Sololá	701	Sololá	3	Barraneche	8	Agosto	2023-08-08T00:00:00	2024-11-06T05:00:00	3	Temperatura mínima	15.6
42092	7	Sololá	701	Sololá	3	Barraneche	8	Agosto	2023-08-08T00:00:00	2024-11-06T05:00:00	5	Humedad	52
42093	7	Sololá	701	Sololá	3	Barraneche	8	Agosto	2023-08-08T00:00:00	2024-11-06T05:00:00	6	Velocidad del viento	20.9
42094	7	Sololá	701	Sololá	3	Barraneche	8	Agosto	2023-08-08T00:00:00	2024-11-06T05:00:00	7	Dirección del viento	20.92
42095	7	Sololá	701	Sololá	3	Barraneche	8	Agosto	2023-08-08T00:00:00	2024-11-06T05:00:00	1	Precipitación	0
42096	7	Sololá	701	Sololá	3	Barraneche	8	Agosto	2023-08-08T00:00:00	2024-11-06T05:00:00	8	Radiación solar	0
42097	7	Sololá	701	Sololá	3	Barraneche	8	Agosto	2023-08-08T00:00:00	2024-11-06T06:00:00	2	Temperatura media	16.1
42098	7	Sololá	701	Sololá	3	Barraneche	8	Agosto	2023-08-08T00:00:00	2024-11-06T06:00:00	4	Temperatura máxima	17.3
42099	7	Sololá	701	Sololá	3	Barraneche	8	Agosto	2023-08-08T00:00:00	2024-11-06T06:00:00	3	Temperatura mínima	15.8
42100	7	Sololá	701	Sololá	3	Barraneche	8	Agosto	2023-08-08T00:00:00	2024-11-06T06:00:00	5	Humedad	56
42101	7	Sololá	701	Sololá	3	Barraneche	8	Agosto	2023-08-08T00:00:00	2024-11-06T06:00:00	6	Velocidad del viento	22.5
42102	7	Sololá	701	Sololá	3	Barraneche	8	Agosto	2023-08-08T00:00:00	2024-11-06T06:00:00	7	Dirección del viento	22.53
42103	7	Sololá	701	Sololá	3	Barraneche	8	Agosto	2023-08-08T00:00:00	2024-11-06T06:00:00	1	Precipitación	0
42104	7	Sololá	701	Sololá	3	Barraneche	8	Agosto	2023-08-08T00:00:00	2024-11-06T06:00:00	8	Radiación solar	1
42105	7	Sololá	701	Sololá	3	Barraneche	8	Agosto	2023-08-08T00:00:00	2024-11-06T07:00:00	2	Temperatura media	15.9
42106	7	Sololá	701	Sololá	3	Barraneche	8	Agosto	2023-08-08T00:00:00	2024-11-06T07:00:00	4	Temperatura máxima	16.4
42107	7	Sololá	701	Sololá	3	Barraneche	8	Agosto	2023-08-08T00:00:00	2024-11-06T07:00:00	3	Temperatura mínima	15.3
42108	7	Sololá	701	Sololá	3	Barraneche	8	Agosto	2023-08-08T00:00:00	2024-11-06T07:00:00	5	Humedad	61
42109	7	Sololá	701	Sololá	3	Barraneche	8	Agosto	2023-08-08T00:00:00	2024-11-06T07:00:00	6	Velocidad del viento	24.1
42110	7	Sololá	701	Sololá	3	Barraneche	8	Agosto	2023-08-08T00:00:00	2024-11-06T07:00:00	7	Dirección del viento	24.14
42111	7	Sololá	701	Sololá	3	Barraneche	8	Agosto	2023-08-08T00:00:00	2024-11-06T07:00:00	1	Precipitación	0
42112	7	Sololá	701	Sololá	3	Barraneche	8	Agosto	2023-08-08T00:00:00	2024-11-06T07:00:00	8	Radiación solar	74
42113	7	Sololá	701	Sololá	3	Barraneche	8	Agosto	2023-08-08T00:00:00	2024-11-06T08:00:00	2	Temperatura media	16.8
42114	7	Sololá	701	Sololá	3	Barraneche	8	Agosto	2023-08-08T00:00:00	2024-11-06T08:00:00	4	Temperatura máxima	16.8
42115	7	Sololá	701	Sololá	3	Barraneche	8	Agosto	2023-08-08T00:00:00	2024-11-06T08:00:00	3	Temperatura mínima	15.9
42116	7	Sololá	701	Sololá	3	Barraneche	8	Agosto	2023-08-08T00:00:00	2024-11-06T08:00:00	5	Humedad	60
42117	7	Sololá	701	Sololá	3	Barraneche	8	Agosto	2023-08-08T00:00:00	2024-11-06T08:00:00	6	Velocidad del viento	25.7
42118	7	Sololá	701	Sololá	3	Barraneche	8	Agosto	2023-08-08T00:00:00	2024-11-06T08:00:00	7	Dirección del viento	25.75
42119	7	Sololá	701	Sololá	3	Barraneche	8	Agosto	2023-08-08T00:00:00	2024-11-06T08:00:00	1	Precipitación	0
42120	7	Sololá	701	Sololá	3	Barraneche	8	Agosto	2023-08-08T00:00:00	2024-11-06T08:00:00	8	Radiación solar	376
42121	7	Sololá	701	Sololá	3	Barraneche	8	Agosto	2023-08-08T00:00:00	2024-11-06T09:00:00	2	Temperatura media	18
42122	7	Sololá	701	Sololá	3	Barraneche	8	Agosto	2023-08-08T00:00:00	2024-11-06T09:00:00	4	Temperatura máxima	18.1
42123	7	Sololá	701	Sololá	3	Barraneche	8	Agosto	2023-08-08T00:00:00	2024-11-06T09:00:00	3	Temperatura mínima	16.7
42124	7	Sololá	701	Sololá	3	Barraneche	8	Agosto	2023-08-08T00:00:00	2024-11-06T09:00:00	5	Humedad	57
42125	7	Sololá	701	Sololá	3	Barraneche	8	Agosto	2023-08-08T00:00:00	2024-11-06T09:00:00	6	Velocidad del viento	24.1
42126	7	Sololá	701	Sololá	3	Barraneche	8	Agosto	2023-08-08T00:00:00	2024-11-06T09:00:00	7	Dirección del viento	24.14
42127	7	Sololá	701	Sololá	3	Barraneche	8	Agosto	2023-08-08T00:00:00	2024-11-06T09:00:00	1	Precipitación	0
42128	7	Sololá	701	Sololá	3	Barraneche	8	Agosto	2023-08-08T00:00:00	2024-11-06T09:00:00	8	Radiación solar	669
42129	7	Sololá	701	Sololá	3	Barraneche	8	Agosto	2023-08-08T00:00:00	2024-11-06T10:00:00	2	Temperatura media	18.6
42130	7	Sololá	701	Sololá	3	Barraneche	8	Agosto	2023-08-08T00:00:00	2024-11-06T10:00:00	4	Temperatura máxima	18.9
42131	7	Sololá	701	Sololá	3	Barraneche	8	Agosto	2023-08-08T00:00:00	2024-11-06T10:00:00	3	Temperatura mínima	17.2
42132	7	Sololá	701	Sololá	3	Barraneche	8	Agosto	2023-08-08T00:00:00	2024-11-06T10:00:00	5	Humedad	55
42133	7	Sololá	701	Sololá	3	Barraneche	8	Agosto	2023-08-08T00:00:00	2024-11-06T10:00:00	6	Velocidad del viento	24.1
42134	7	Sololá	701	Sololá	3	Barraneche	8	Agosto	2023-08-08T00:00:00	2024-11-06T10:00:00	7	Dirección del viento	24.14
42135	7	Sololá	701	Sololá	3	Barraneche	8	Agosto	2023-08-08T00:00:00	2024-11-06T10:00:00	1	Precipitación	0
42136	7	Sololá	701	Sololá	3	Barraneche	8	Agosto	2023-08-08T00:00:00	2024-11-06T10:00:00	8	Radiación solar	752
42137	7	Sololá	701	Sololá	3	Barraneche	8	Agosto	2023-08-08T00:00:00	2024-11-06T11:00:00	2	Temperatura media	19.3
42138	7	Sololá	701	Sololá	3	Barraneche	8	Agosto	2023-08-08T00:00:00	2024-11-06T11:00:00	4	Temperatura máxima	19.4
42139	7	Sololá	701	Sololá	3	Barraneche	8	Agosto	2023-08-08T00:00:00	2024-11-06T11:00:00	3	Temperatura mínima	18.5
42140	7	Sololá	701	Sololá	3	Barraneche	8	Agosto	2023-08-08T00:00:00	2024-11-06T11:00:00	5	Humedad	55
42141	7	Sololá	701	Sololá	3	Barraneche	8	Agosto	2023-08-08T00:00:00	2024-11-06T11:00:00	6	Velocidad del viento	20.9
42142	7	Sololá	701	Sololá	3	Barraneche	8	Agosto	2023-08-08T00:00:00	2024-11-06T11:00:00	7	Dirección del viento	20.92
42143	7	Sololá	701	Sololá	3	Barraneche	8	Agosto	2023-08-08T00:00:00	2024-11-06T11:00:00	1	Precipitación	0
42144	7	Sololá	701	Sololá	3	Barraneche	8	Agosto	2023-08-08T00:00:00	2024-11-06T11:00:00	8	Radiación solar	974
42145	7	Sololá	701	Sololá	3	Barraneche	8	Agosto	2023-08-08T00:00:00	2024-11-06T12:00:00	2	Temperatura media	20.1
42146	7	Sololá	701	Sololá	3	Barraneche	8	Agosto	2023-08-08T00:00:00	2024-11-06T12:00:00	4	Temperatura máxima	20.1
42147	7	Sololá	701	Sololá	3	Barraneche	8	Agosto	2023-08-08T00:00:00	2024-11-06T12:00:00	3	Temperatura mínima	19
42148	7	Sololá	701	Sololá	3	Barraneche	8	Agosto	2023-08-08T00:00:00	2024-11-06T12:00:00	5	Humedad	51
42149	7	Sololá	701	Sololá	3	Barraneche	8	Agosto	2023-08-08T00:00:00	2024-11-06T12:00:00	6	Velocidad del viento	16.1
42150	7	Sololá	701	Sololá	3	Barraneche	8	Agosto	2023-08-08T00:00:00	2024-11-06T12:00:00	7	Dirección del viento	16.09
42151	7	Sololá	701	Sololá	3	Barraneche	8	Agosto	2023-08-08T00:00:00	2024-11-06T12:00:00	1	Precipitación	0
42152	7	Sololá	701	Sololá	3	Barraneche	8	Agosto	2023-08-08T00:00:00	2024-11-06T12:00:00	8	Radiación solar	1072
42153	7	Sololá	701	Sololá	3	Barraneche	8	Agosto	2023-08-08T00:00:00	2024-11-06T13:00:00	2	Temperatura media	20.4
42154	7	Sololá	701	Sololá	3	Barraneche	8	Agosto	2023-08-08T00:00:00	2024-11-06T13:00:00	4	Temperatura máxima	20.8
42155	7	Sololá	701	Sololá	3	Barraneche	8	Agosto	2023-08-08T00:00:00	2024-11-06T13:00:00	3	Temperatura mínima	19.9
42156	7	Sololá	701	Sololá	3	Barraneche	8	Agosto	2023-08-08T00:00:00	2024-11-06T13:00:00	5	Humedad	47
42157	7	Sololá	701	Sololá	3	Barraneche	8	Agosto	2023-08-08T00:00:00	2024-11-06T13:00:00	6	Velocidad del viento	12.9
42158	7	Sololá	701	Sololá	3	Barraneche	8	Agosto	2023-08-08T00:00:00	2024-11-06T13:00:00	7	Dirección del viento	12.87
42159	7	Sololá	701	Sololá	3	Barraneche	8	Agosto	2023-08-08T00:00:00	2024-11-06T13:00:00	1	Precipitación	0
42160	7	Sololá	701	Sololá	3	Barraneche	8	Agosto	2023-08-08T00:00:00	2024-11-06T13:00:00	8	Radiación solar	1145
42161	7	Sololá	701	Sololá	3	Barraneche	8	Agosto	2023-08-08T00:00:00	2024-11-06T14:00:00	2	Temperatura media	21.3
42162	7	Sololá	701	Sololá	3	Barraneche	8	Agosto	2023-08-08T00:00:00	2024-11-06T14:00:00	4	Temperatura máxima	21.6
42163	7	Sololá	701	Sololá	3	Barraneche	8	Agosto	2023-08-08T00:00:00	2024-11-06T14:00:00	3	Temperatura mínima	20.2
42164	7	Sololá	701	Sololá	3	Barraneche	8	Agosto	2023-08-08T00:00:00	2024-11-06T14:00:00	5	Humedad	47
42165	7	Sololá	701	Sololá	3	Barraneche	8	Agosto	2023-08-08T00:00:00	2024-11-06T14:00:00	6	Velocidad del viento	11.3
42166	7	Sololá	701	Sololá	3	Barraneche	8	Agosto	2023-08-08T00:00:00	2024-11-06T14:00:00	7	Dirección del viento	11.27
42167	7	Sololá	701	Sololá	3	Barraneche	8	Agosto	2023-08-08T00:00:00	2024-11-06T14:00:00	1	Precipitación	0
42168	7	Sololá	701	Sololá	3	Barraneche	8	Agosto	2023-08-08T00:00:00	2024-11-06T14:00:00	8	Radiación solar	1058
42169	7	Sololá	701	Sololá	3	Barraneche	8	Agosto	2023-08-08T00:00:00	2024-11-06T15:00:00	2	Temperatura media	20.4
42170	7	Sololá	701	Sololá	3	Barraneche	8	Agosto	2023-08-08T00:00:00	2024-11-06T15:00:00	4	Temperatura máxima	21.4
42171	7	Sololá	701	Sololá	3	Barraneche	8	Agosto	2023-08-08T00:00:00	2024-11-06T15:00:00	3	Temperatura mínima	19.9
42172	7	Sololá	701	Sololá	3	Barraneche	8	Agosto	2023-08-08T00:00:00	2024-11-06T15:00:00	5	Humedad	55
42173	7	Sololá	701	Sololá	3	Barraneche	8	Agosto	2023-08-08T00:00:00	2024-11-06T15:00:00	6	Velocidad del viento	9.7
42174	7	Sololá	701	Sololá	3	Barraneche	8	Agosto	2023-08-08T00:00:00	2024-11-06T15:00:00	7	Dirección del viento	9.66
42175	7	Sololá	701	Sololá	3	Barraneche	8	Agosto	2023-08-08T00:00:00	2024-11-06T15:00:00	1	Precipitación	0
42176	7	Sololá	701	Sololá	3	Barraneche	8	Agosto	2023-08-08T00:00:00	2024-11-06T15:00:00	8	Radiación solar	821
42177	7	Sololá	701	Sololá	3	Barraneche	8	Agosto	2023-08-08T00:00:00	2024-11-06T16:00:00	2	Temperatura media	20.3
42178	7	Sololá	701	Sololá	3	Barraneche	8	Agosto	2023-08-08T00:00:00	2024-11-06T16:00:00	4	Temperatura máxima	20.7
42179	7	Sololá	701	Sololá	3	Barraneche	8	Agosto	2023-08-08T00:00:00	2024-11-06T16:00:00	3	Temperatura mínima	19.8
42180	7	Sololá	701	Sololá	3	Barraneche	8	Agosto	2023-08-08T00:00:00	2024-11-06T16:00:00	5	Humedad	51
42181	7	Sololá	701	Sololá	3	Barraneche	8	Agosto	2023-08-08T00:00:00	2024-11-06T16:00:00	6	Velocidad del viento	9.7
42182	7	Sololá	701	Sololá	3	Barraneche	8	Agosto	2023-08-08T00:00:00	2024-11-06T16:00:00	7	Dirección del viento	9.66
42183	7	Sololá	701	Sololá	3	Barraneche	8	Agosto	2023-08-08T00:00:00	2024-11-06T16:00:00	1	Precipitación	0
42184	7	Sololá	701	Sololá	3	Barraneche	8	Agosto	2023-08-08T00:00:00	2024-11-06T16:00:00	8	Radiación solar	543
42185	7	Sololá	701	Sololá	3	Barraneche	8	Agosto	2023-08-08T00:00:00	2024-11-06T17:00:00	2	Temperatura media	20.1
42186	7	Sololá	701	Sololá	3	Barraneche	8	Agosto	2023-08-08T00:00:00	2024-11-06T17:00:00	4	Temperatura máxima	20.9
42187	7	Sololá	701	Sololá	3	Barraneche	8	Agosto	2023-08-08T00:00:00	2024-11-06T17:00:00	3	Temperatura mínima	19.8
42188	7	Sololá	701	Sololá	3	Barraneche	8	Agosto	2023-08-08T00:00:00	2024-11-06T17:00:00	5	Humedad	38
42189	7	Sololá	701	Sololá	3	Barraneche	8	Agosto	2023-08-08T00:00:00	2024-11-06T17:00:00	6	Velocidad del viento	11.3
42190	7	Sololá	701	Sololá	3	Barraneche	8	Agosto	2023-08-08T00:00:00	2024-11-06T17:00:00	7	Dirección del viento	11.27
42191	7	Sololá	701	Sololá	3	Barraneche	8	Agosto	2023-08-08T00:00:00	2024-11-06T17:00:00	1	Precipitación	0
42192	7	Sololá	701	Sololá	3	Barraneche	8	Agosto	2023-08-08T00:00:00	2024-11-06T17:00:00	8	Radiación solar	414
42193	7	Sololá	701	Sololá	3	Barraneche	8	Agosto	2023-08-08T00:00:00	2024-11-06T18:00:00	2	Temperatura media	17.9
42194	7	Sololá	701	Sololá	3	Barraneche	8	Agosto	2023-08-08T00:00:00	2024-11-06T18:00:00	4	Temperatura máxima	20.1
42195	7	Sololá	701	Sololá	3	Barraneche	8	Agosto	2023-08-08T00:00:00	2024-11-06T18:00:00	3	Temperatura mínima	17.9
42196	7	Sololá	701	Sololá	3	Barraneche	8	Agosto	2023-08-08T00:00:00	2024-11-06T18:00:00	5	Humedad	56
42197	7	Sololá	701	Sololá	3	Barraneche	8	Agosto	2023-08-08T00:00:00	2024-11-06T18:00:00	6	Velocidad del viento	9.7
42198	7	Sololá	701	Sololá	3	Barraneche	8	Agosto	2023-08-08T00:00:00	2024-11-06T18:00:00	7	Dirección del viento	9.66
42199	7	Sololá	701	Sololá	3	Barraneche	8	Agosto	2023-08-08T00:00:00	2024-11-06T18:00:00	1	Precipitación	0
42200	7	Sololá	701	Sololá	3	Barraneche	8	Agosto	2023-08-08T00:00:00	2024-11-06T18:00:00	8	Radiación solar	149
42201	7	Sololá	701	Sololá	3	Barraneche	8	Agosto	2023-08-08T00:00:00	2024-11-06T19:00:00	2	Temperatura media	15.6
42202	7	Sololá	701	Sololá	3	Barraneche	8	Agosto	2023-08-08T00:00:00	2024-11-06T19:00:00	4	Temperatura máxima	17.9
42203	7	Sololá	701	Sololá	3	Barraneche	8	Agosto	2023-08-08T00:00:00	2024-11-06T19:00:00	3	Temperatura mínima	15.6
42204	7	Sololá	701	Sololá	3	Barraneche	8	Agosto	2023-08-08T00:00:00	2024-11-06T19:00:00	5	Humedad	64
42205	7	Sololá	701	Sololá	3	Barraneche	8	Agosto	2023-08-08T00:00:00	2024-11-06T19:00:00	6	Velocidad del viento	6.4
42206	7	Sololá	701	Sololá	3	Barraneche	8	Agosto	2023-08-08T00:00:00	2024-11-06T19:00:00	7	Dirección del viento	6.44
42207	7	Sololá	701	Sololá	3	Barraneche	8	Agosto	2023-08-08T00:00:00	2024-11-06T19:00:00	1	Precipitación	0
42208	7	Sololá	701	Sololá	3	Barraneche	8	Agosto	2023-08-08T00:00:00	2024-11-06T19:00:00	8	Radiación solar	0
42209	7	Sololá	701	Sololá	3	Barraneche	8	Agosto	2023-08-08T00:00:00	2024-11-06T20:00:00	2	Temperatura media	15.4
42210	7	Sololá	701	Sololá	3	Barraneche	8	Agosto	2023-08-08T00:00:00	2024-11-06T20:00:00	4	Temperatura máxima	15.7
42211	7	Sololá	701	Sololá	3	Barraneche	8	Agosto	2023-08-08T00:00:00	2024-11-06T20:00:00	3	Temperatura mínima	14.9
42212	7	Sololá	701	Sololá	3	Barraneche	8	Agosto	2023-08-08T00:00:00	2024-11-06T20:00:00	5	Humedad	62
42213	7	Sololá	701	Sololá	3	Barraneche	8	Agosto	2023-08-08T00:00:00	2024-11-06T20:00:00	6	Velocidad del viento	4.8
42214	7	Sololá	701	Sololá	3	Barraneche	8	Agosto	2023-08-08T00:00:00	2024-11-06T20:00:00	7	Dirección del viento	4.83
42215	7	Sololá	701	Sololá	3	Barraneche	8	Agosto	2023-08-08T00:00:00	2024-11-06T20:00:00	1	Precipitación	0
42216	7	Sololá	701	Sololá	3	Barraneche	8	Agosto	2023-08-08T00:00:00	2024-11-06T20:00:00	8	Radiación solar	0
42217	7	Sololá	701	Sololá	3	Barraneche	8	Agosto	2023-08-08T00:00:00	2024-11-06T21:00:00	2	Temperatura media	13.8
42218	7	Sololá	701	Sololá	3	Barraneche	8	Agosto	2023-08-08T00:00:00	2024-11-06T21:00:00	4	Temperatura máxima	15.6
42219	7	Sololá	701	Sololá	3	Barraneche	8	Agosto	2023-08-08T00:00:00	2024-11-06T21:00:00	3	Temperatura mínima	13.8
42220	7	Sololá	701	Sololá	3	Barraneche	8	Agosto	2023-08-08T00:00:00	2024-11-06T21:00:00	5	Humedad	68
42221	7	Sololá	701	Sololá	3	Barraneche	8	Agosto	2023-08-08T00:00:00	2024-11-06T21:00:00	6	Velocidad del viento	3.2
42222	7	Sololá	701	Sololá	3	Barraneche	8	Agosto	2023-08-08T00:00:00	2024-11-06T21:00:00	7	Dirección del viento	3.22
42223	7	Sololá	701	Sololá	3	Barraneche	8	Agosto	2023-08-08T00:00:00	2024-11-06T21:00:00	1	Precipitación	0
42224	7	Sololá	701	Sololá	3	Barraneche	8	Agosto	2023-08-08T00:00:00	2024-11-06T21:00:00	8	Radiación solar	0
42225	7	Sololá	701	Sololá	3	Barraneche	8	Agosto	2023-08-08T00:00:00	2024-11-06T22:00:00	2	Temperatura media	15.3
42226	7	Sololá	701	Sololá	3	Barraneche	8	Agosto	2023-08-08T00:00:00	2024-11-06T22:00:00	4	Temperatura máxima	15.3
42227	7	Sololá	701	Sololá	3	Barraneche	8	Agosto	2023-08-08T00:00:00	2024-11-06T22:00:00	3	Temperatura mínima	12.8
42228	7	Sololá	701	Sololá	3	Barraneche	8	Agosto	2023-08-08T00:00:00	2024-11-06T22:00:00	5	Humedad	63
42229	7	Sololá	701	Sololá	3	Barraneche	8	Agosto	2023-08-08T00:00:00	2024-11-06T22:00:00	6	Velocidad del viento	6.4
42230	7	Sololá	701	Sololá	3	Barraneche	8	Agosto	2023-08-08T00:00:00	2024-11-06T22:00:00	7	Dirección del viento	6.44
42231	7	Sololá	701	Sololá	3	Barraneche	8	Agosto	2023-08-08T00:00:00	2024-11-06T22:00:00	1	Precipitación	0
42232	7	Sololá	701	Sololá	3	Barraneche	8	Agosto	2023-08-08T00:00:00	2024-11-06T22:00:00	8	Radiación solar	0
42233	7	Sololá	701	Sololá	3	Barraneche	8	Agosto	2023-08-08T00:00:00	2024-11-06T23:00:00	2	Temperatura media	15.1
42234	7	Sololá	701	Sololá	3	Barraneche	8	Agosto	2023-08-08T00:00:00	2024-11-06T23:00:00	4	Temperatura máxima	15.4
42235	7	Sololá	701	Sololá	3	Barraneche	8	Agosto	2023-08-08T00:00:00	2024-11-06T23:00:00	3	Temperatura mínima	14.9
42236	7	Sololá	701	Sololá	3	Barraneche	8	Agosto	2023-08-08T00:00:00	2024-11-06T23:00:00	5	Humedad	62
42237	7	Sololá	701	Sololá	3	Barraneche	8	Agosto	2023-08-08T00:00:00	2024-11-06T23:00:00	6	Velocidad del viento	6.4
42238	7	Sololá	701	Sololá	3	Barraneche	8	Agosto	2023-08-08T00:00:00	2024-11-06T23:00:00	7	Dirección del viento	6.44
42239	7	Sololá	701	Sololá	3	Barraneche	8	Agosto	2023-08-08T00:00:00	2024-11-06T23:00:00	1	Precipitación	0
42240	7	Sololá	701	Sololá	3	Barraneche	8	Agosto	2023-08-08T00:00:00	2024-11-06T23:00:00	8	Radiación solar	0
42241	7	Sololá	701	Sololá	3	Barraneche	8	Agosto	2023-09-08T00:00:00	2024-11-06T00:00:00	2	Temperatura media	12.1
42242	7	Sololá	701	Sololá	3	Barraneche	8	Agosto	2023-09-08T00:00:00	2024-11-06T00:00:00	4	Temperatura máxima	15.1
42243	7	Sololá	701	Sololá	3	Barraneche	8	Agosto	2023-09-08T00:00:00	2024-11-06T00:00:00	3	Temperatura mínima	12.1
42244	7	Sololá	701	Sololá	3	Barraneche	8	Agosto	2023-09-08T00:00:00	2024-11-06T00:00:00	5	Humedad	69
42245	7	Sololá	701	Sololá	3	Barraneche	8	Agosto	2023-09-08T00:00:00	2024-11-06T00:00:00	6	Velocidad del viento	3.2
42246	7	Sololá	701	Sololá	3	Barraneche	8	Agosto	2023-09-08T00:00:00	2024-11-06T00:00:00	7	Dirección del viento	3.22
42247	7	Sololá	701	Sololá	3	Barraneche	8	Agosto	2023-09-08T00:00:00	2024-11-06T00:00:00	1	Precipitación	0
42248	7	Sololá	701	Sololá	3	Barraneche	8	Agosto	2023-09-08T00:00:00	2024-11-06T00:00:00	8	Radiación solar	0
42249	7	Sololá	701	Sololá	3	Barraneche	8	Agosto	2023-09-08T00:00:00	2024-11-06T01:00:00	2	Temperatura media	11.9
42250	7	Sololá	701	Sololá	3	Barraneche	8	Agosto	2023-09-08T00:00:00	2024-11-06T01:00:00	4	Temperatura máxima	12.5
42251	7	Sololá	701	Sololá	3	Barraneche	8	Agosto	2023-09-08T00:00:00	2024-11-06T01:00:00	3	Temperatura mínima	11.8
42252	7	Sololá	701	Sololá	3	Barraneche	8	Agosto	2023-09-08T00:00:00	2024-11-06T01:00:00	5	Humedad	69
42253	7	Sololá	701	Sololá	3	Barraneche	8	Agosto	2023-09-08T00:00:00	2024-11-06T01:00:00	6	Velocidad del viento	3.2
42254	7	Sololá	701	Sololá	3	Barraneche	8	Agosto	2023-09-08T00:00:00	2024-11-06T01:00:00	7	Dirección del viento	3.22
42255	7	Sololá	701	Sololá	3	Barraneche	8	Agosto	2023-09-08T00:00:00	2024-11-06T01:00:00	1	Precipitación	0
42256	7	Sololá	701	Sololá	3	Barraneche	8	Agosto	2023-09-08T00:00:00	2024-11-06T01:00:00	8	Radiación solar	0
42257	7	Sololá	701	Sololá	3	Barraneche	8	Agosto	2023-09-08T00:00:00	2024-11-06T02:00:00	2	Temperatura media	11.4
42258	7	Sololá	701	Sololá	3	Barraneche	8	Agosto	2023-09-08T00:00:00	2024-11-06T02:00:00	4	Temperatura máxima	12.2
42259	7	Sololá	701	Sololá	3	Barraneche	8	Agosto	2023-09-08T00:00:00	2024-11-06T02:00:00	3	Temperatura mínima	11.2
42260	7	Sololá	701	Sololá	3	Barraneche	8	Agosto	2023-09-08T00:00:00	2024-11-06T02:00:00	5	Humedad	71
42261	7	Sololá	701	Sololá	3	Barraneche	8	Agosto	2023-09-08T00:00:00	2024-11-06T02:00:00	6	Velocidad del viento	3.2
42262	7	Sololá	701	Sololá	3	Barraneche	8	Agosto	2023-09-08T00:00:00	2024-11-06T02:00:00	7	Dirección del viento	3.22
42263	7	Sololá	701	Sololá	3	Barraneche	8	Agosto	2023-09-08T00:00:00	2024-11-06T02:00:00	1	Precipitación	0
42264	7	Sololá	701	Sololá	3	Barraneche	8	Agosto	2023-09-08T00:00:00	2024-11-06T02:00:00	8	Radiación solar	0
42265	7	Sololá	701	Sololá	3	Barraneche	8	Agosto	2023-09-08T00:00:00	2024-11-06T03:00:00	2	Temperatura media	13
42266	7	Sololá	701	Sololá	3	Barraneche	8	Agosto	2023-09-08T00:00:00	2024-11-06T03:00:00	4	Temperatura máxima	13
42267	7	Sololá	701	Sololá	3	Barraneche	8	Agosto	2023-09-08T00:00:00	2024-11-06T03:00:00	3	Temperatura mínima	11.3
42268	7	Sololá	701	Sololá	3	Barraneche	8	Agosto	2023-09-08T00:00:00	2024-11-06T03:00:00	5	Humedad	64
42269	7	Sololá	701	Sololá	3	Barraneche	8	Agosto	2023-09-08T00:00:00	2024-11-06T03:00:00	6	Velocidad del viento	4.8
42270	7	Sololá	701	Sololá	3	Barraneche	8	Agosto	2023-09-08T00:00:00	2024-11-06T03:00:00	7	Dirección del viento	4.83
42271	7	Sololá	701	Sololá	3	Barraneche	8	Agosto	2023-09-08T00:00:00	2024-11-06T03:00:00	1	Precipitación	0
42272	7	Sololá	701	Sololá	3	Barraneche	8	Agosto	2023-09-08T00:00:00	2024-11-06T03:00:00	8	Radiación solar	0
42273	7	Sololá	701	Sololá	3	Barraneche	8	Agosto	2023-09-08T00:00:00	2024-11-06T04:00:00	2	Temperatura media	11.1
42274	7	Sololá	701	Sololá	3	Barraneche	8	Agosto	2023-09-08T00:00:00	2024-11-06T04:00:00	4	Temperatura máxima	13
42275	7	Sololá	701	Sololá	3	Barraneche	8	Agosto	2023-09-08T00:00:00	2024-11-06T04:00:00	3	Temperatura mínima	11.1
42276	7	Sololá	701	Sololá	3	Barraneche	8	Agosto	2023-09-08T00:00:00	2024-11-06T04:00:00	5	Humedad	69
42277	7	Sololá	701	Sololá	3	Barraneche	8	Agosto	2023-09-08T00:00:00	2024-11-06T04:00:00	6	Velocidad del viento	3.2
42278	7	Sololá	701	Sololá	3	Barraneche	8	Agosto	2023-09-08T00:00:00	2024-11-06T04:00:00	7	Dirección del viento	3.22
42279	7	Sololá	701	Sololá	3	Barraneche	8	Agosto	2023-09-08T00:00:00	2024-11-06T04:00:00	1	Precipitación	0
42280	7	Sololá	701	Sololá	3	Barraneche	8	Agosto	2023-09-08T00:00:00	2024-11-06T04:00:00	8	Radiación solar	0
42281	7	Sololá	701	Sololá	3	Barraneche	8	Agosto	2023-09-08T00:00:00	2024-11-06T05:00:00	2	Temperatura media	12.3
42282	7	Sololá	701	Sololá	3	Barraneche	8	Agosto	2023-09-08T00:00:00	2024-11-06T05:00:00	4	Temperatura máxima	12.7
42283	7	Sololá	701	Sololá	3	Barraneche	8	Agosto	2023-09-08T00:00:00	2024-11-06T05:00:00	3	Temperatura mínima	11.2
42284	7	Sololá	701	Sololá	3	Barraneche	8	Agosto	2023-09-08T00:00:00	2024-11-06T05:00:00	5	Humedad	65
42285	7	Sololá	701	Sololá	3	Barraneche	8	Agosto	2023-09-08T00:00:00	2024-11-06T05:00:00	6	Velocidad del viento	6.4
42286	7	Sololá	701	Sololá	3	Barraneche	8	Agosto	2023-09-08T00:00:00	2024-11-06T05:00:00	7	Dirección del viento	6.44
42287	7	Sololá	701	Sololá	3	Barraneche	8	Agosto	2023-09-08T00:00:00	2024-11-06T05:00:00	1	Precipitación	0
42288	7	Sololá	701	Sololá	3	Barraneche	8	Agosto	2023-09-08T00:00:00	2024-11-06T05:00:00	8	Radiación solar	0
42289	7	Sololá	701	Sololá	3	Barraneche	8	Agosto	2023-09-08T00:00:00	2024-11-06T06:00:00	2	Temperatura media	11.3
42290	7	Sololá	701	Sololá	3	Barraneche	8	Agosto	2023-09-08T00:00:00	2024-11-06T06:00:00	4	Temperatura máxima	12.3
42291	7	Sololá	701	Sololá	3	Barraneche	8	Agosto	2023-09-08T00:00:00	2024-11-06T06:00:00	3	Temperatura mínima	11
42292	7	Sololá	701	Sololá	3	Barraneche	8	Agosto	2023-09-08T00:00:00	2024-11-06T06:00:00	5	Humedad	66
42293	7	Sololá	701	Sololá	3	Barraneche	8	Agosto	2023-09-08T00:00:00	2024-11-06T06:00:00	6	Velocidad del viento	4.8
42294	7	Sololá	701	Sololá	3	Barraneche	8	Agosto	2023-09-08T00:00:00	2024-11-06T06:00:00	7	Dirección del viento	4.83
42295	7	Sololá	701	Sololá	3	Barraneche	8	Agosto	2023-09-08T00:00:00	2024-11-06T06:00:00	1	Precipitación	0
42296	7	Sololá	701	Sololá	3	Barraneche	8	Agosto	2023-09-08T00:00:00	2024-11-06T06:00:00	8	Radiación solar	1
42297	7	Sololá	701	Sololá	3	Barraneche	8	Agosto	2023-09-08T00:00:00	2024-11-06T07:00:00	2	Temperatura media	12.5
42298	7	Sololá	701	Sololá	3	Barraneche	8	Agosto	2023-09-08T00:00:00	2024-11-06T07:00:00	4	Temperatura máxima	12.5
42299	7	Sololá	701	Sololá	3	Barraneche	8	Agosto	2023-09-08T00:00:00	2024-11-06T07:00:00	3	Temperatura mínima	11.1
42300	7	Sololá	701	Sololá	3	Barraneche	8	Agosto	2023-09-08T00:00:00	2024-11-06T07:00:00	5	Humedad	65
42301	7	Sololá	701	Sololá	3	Barraneche	8	Agosto	2023-09-08T00:00:00	2024-11-06T07:00:00	6	Velocidad del viento	1.6
42302	7	Sololá	701	Sololá	3	Barraneche	8	Agosto	2023-09-08T00:00:00	2024-11-06T07:00:00	7	Dirección del viento	1.61
42303	7	Sololá	701	Sololá	3	Barraneche	8	Agosto	2023-09-08T00:00:00	2024-11-06T07:00:00	1	Precipitación	0
42304	7	Sololá	701	Sololá	3	Barraneche	8	Agosto	2023-09-08T00:00:00	2024-11-06T07:00:00	8	Radiación solar	62
42305	7	Sololá	701	Sololá	3	Barraneche	8	Agosto	2023-09-08T00:00:00	2024-11-06T08:00:00	2	Temperatura media	16.8
42306	7	Sololá	701	Sololá	3	Barraneche	8	Agosto	2023-09-08T00:00:00	2024-11-06T08:00:00	4	Temperatura máxima	16.8
42307	7	Sololá	701	Sololá	3	Barraneche	8	Agosto	2023-09-08T00:00:00	2024-11-06T08:00:00	3	Temperatura mínima	12.5
42308	7	Sololá	701	Sololá	3	Barraneche	8	Agosto	2023-09-08T00:00:00	2024-11-06T08:00:00	5	Humedad	56
42309	7	Sololá	701	Sololá	3	Barraneche	8	Agosto	2023-09-08T00:00:00	2024-11-06T08:00:00	6	Velocidad del viento	1.6
42310	7	Sololá	701	Sololá	3	Barraneche	8	Agosto	2023-09-08T00:00:00	2024-11-06T08:00:00	7	Dirección del viento	1.61
42311	7	Sololá	701	Sololá	3	Barraneche	8	Agosto	2023-09-08T00:00:00	2024-11-06T08:00:00	1	Precipitación	0
42312	7	Sololá	701	Sololá	3	Barraneche	8	Agosto	2023-09-08T00:00:00	2024-11-06T08:00:00	8	Radiación solar	350
42313	7	Sololá	701	Sololá	3	Barraneche	8	Agosto	2023-09-08T00:00:00	2024-11-06T09:00:00	2	Temperatura media	18.2
42314	7	Sololá	701	Sololá	3	Barraneche	8	Agosto	2023-09-08T00:00:00	2024-11-06T09:00:00	4	Temperatura máxima	18.4
42315	7	Sololá	701	Sololá	3	Barraneche	8	Agosto	2023-09-08T00:00:00	2024-11-06T09:00:00	3	Temperatura mínima	16.8
42316	7	Sololá	701	Sololá	3	Barraneche	8	Agosto	2023-09-08T00:00:00	2024-11-06T09:00:00	5	Humedad	54
42317	7	Sololá	701	Sololá	3	Barraneche	8	Agosto	2023-09-08T00:00:00	2024-11-06T09:00:00	6	Velocidad del viento	1.6
42318	7	Sololá	701	Sololá	3	Barraneche	8	Agosto	2023-09-08T00:00:00	2024-11-06T09:00:00	7	Dirección del viento	1.61
42319	7	Sololá	701	Sololá	3	Barraneche	8	Agosto	2023-09-08T00:00:00	2024-11-06T09:00:00	1	Precipitación	0
42320	7	Sololá	701	Sololá	3	Barraneche	8	Agosto	2023-09-08T00:00:00	2024-11-06T09:00:00	8	Radiación solar	437
42321	7	Sololá	701	Sololá	3	Barraneche	8	Agosto	2023-09-08T00:00:00	2024-11-06T10:00:00	2	Temperatura media	19.6
42322	7	Sololá	701	Sololá	3	Barraneche	8	Agosto	2023-09-08T00:00:00	2024-11-06T10:00:00	4	Temperatura máxima	19.6
42323	7	Sololá	701	Sololá	3	Barraneche	8	Agosto	2023-09-08T00:00:00	2024-11-06T10:00:00	3	Temperatura mínima	18.2
42324	7	Sololá	701	Sololá	3	Barraneche	8	Agosto	2023-09-08T00:00:00	2024-11-06T10:00:00	5	Humedad	47
42325	7	Sololá	701	Sololá	3	Barraneche	8	Agosto	2023-09-08T00:00:00	2024-11-06T10:00:00	6	Velocidad del viento	11.3
42326	7	Sololá	701	Sololá	3	Barraneche	8	Agosto	2023-09-08T00:00:00	2024-11-06T10:00:00	7	Dirección del viento	11.27
42327	7	Sololá	701	Sololá	3	Barraneche	8	Agosto	2023-09-08T00:00:00	2024-11-06T10:00:00	1	Precipitación	0
42328	7	Sololá	701	Sololá	3	Barraneche	8	Agosto	2023-09-08T00:00:00	2024-11-06T10:00:00	8	Radiación solar	855
42329	7	Sololá	701	Sololá	3	Barraneche	8	Agosto	2023-09-08T00:00:00	2024-11-06T11:00:00	2	Temperatura media	20.3
42330	7	Sololá	701	Sololá	3	Barraneche	8	Agosto	2023-09-08T00:00:00	2024-11-06T11:00:00	4	Temperatura máxima	20.3
42331	7	Sololá	701	Sololá	3	Barraneche	8	Agosto	2023-09-08T00:00:00	2024-11-06T11:00:00	3	Temperatura mínima	19.6
42332	7	Sololá	701	Sololá	3	Barraneche	8	Agosto	2023-09-08T00:00:00	2024-11-06T11:00:00	5	Humedad	52
42333	7	Sololá	701	Sololá	3	Barraneche	8	Agosto	2023-09-08T00:00:00	2024-11-06T11:00:00	6	Velocidad del viento	11.3
42334	7	Sololá	701	Sololá	3	Barraneche	8	Agosto	2023-09-08T00:00:00	2024-11-06T11:00:00	7	Dirección del viento	11.27
42335	7	Sololá	701	Sololá	3	Barraneche	8	Agosto	2023-09-08T00:00:00	2024-11-06T11:00:00	1	Precipitación	0
42336	7	Sololá	701	Sololá	3	Barraneche	8	Agosto	2023-09-08T00:00:00	2024-11-06T11:00:00	8	Radiación solar	984
42337	7	Sololá	701	Sololá	3	Barraneche	8	Agosto	2023-09-08T00:00:00	2024-11-06T12:00:00	2	Temperatura media	20.2
42338	7	Sololá	701	Sololá	3	Barraneche	8	Agosto	2023-09-08T00:00:00	2024-11-06T12:00:00	4	Temperatura máxima	20.5
42339	7	Sololá	701	Sololá	3	Barraneche	8	Agosto	2023-09-08T00:00:00	2024-11-06T12:00:00	3	Temperatura mínima	19.9
42340	7	Sololá	701	Sololá	3	Barraneche	8	Agosto	2023-09-08T00:00:00	2024-11-06T12:00:00	5	Humedad	52
42341	7	Sololá	701	Sololá	3	Barraneche	8	Agosto	2023-09-08T00:00:00	2024-11-06T12:00:00	6	Velocidad del viento	12.9
42342	7	Sololá	701	Sololá	3	Barraneche	8	Agosto	2023-09-08T00:00:00	2024-11-06T12:00:00	7	Dirección del viento	12.87
42343	7	Sololá	701	Sololá	3	Barraneche	8	Agosto	2023-09-08T00:00:00	2024-11-06T12:00:00	1	Precipitación	0
42344	7	Sololá	701	Sololá	3	Barraneche	8	Agosto	2023-09-08T00:00:00	2024-11-06T12:00:00	8	Radiación solar	674
42345	7	Sololá	701	Sololá	3	Barraneche	8	Agosto	2023-09-08T00:00:00	2024-11-06T13:00:00	2	Temperatura media	20.7
42346	7	Sololá	701	Sololá	3	Barraneche	8	Agosto	2023-09-08T00:00:00	2024-11-06T13:00:00	4	Temperatura máxima	21
42347	7	Sololá	701	Sololá	3	Barraneche	8	Agosto	2023-09-08T00:00:00	2024-11-06T13:00:00	3	Temperatura mínima	20.1
42348	7	Sololá	701	Sololá	3	Barraneche	8	Agosto	2023-09-08T00:00:00	2024-11-06T13:00:00	5	Humedad	54
42349	7	Sololá	701	Sololá	3	Barraneche	8	Agosto	2023-09-08T00:00:00	2024-11-06T13:00:00	6	Velocidad del viento	12.9
42350	7	Sololá	701	Sololá	3	Barraneche	8	Agosto	2023-09-08T00:00:00	2024-11-06T13:00:00	7	Dirección del viento	12.87
42351	7	Sololá	701	Sololá	3	Barraneche	8	Agosto	2023-09-08T00:00:00	2024-11-06T13:00:00	1	Precipitación	0
42352	7	Sololá	701	Sololá	3	Barraneche	8	Agosto	2023-09-08T00:00:00	2024-11-06T13:00:00	8	Radiación solar	866
42353	7	Sololá	701	Sololá	3	Barraneche	8	Agosto	2023-09-08T00:00:00	2024-11-06T14:00:00	2	Temperatura media	20
42354	7	Sololá	701	Sololá	3	Barraneche	8	Agosto	2023-09-08T00:00:00	2024-11-06T14:00:00	4	Temperatura máxima	20.8
42355	7	Sololá	701	Sololá	3	Barraneche	8	Agosto	2023-09-08T00:00:00	2024-11-06T14:00:00	3	Temperatura mínima	19.9
42356	7	Sololá	701	Sololá	3	Barraneche	8	Agosto	2023-09-08T00:00:00	2024-11-06T14:00:00	5	Humedad	62
42357	7	Sololá	701	Sololá	3	Barraneche	8	Agosto	2023-09-08T00:00:00	2024-11-06T14:00:00	6	Velocidad del viento	14.5
42358	7	Sololá	701	Sololá	3	Barraneche	8	Agosto	2023-09-08T00:00:00	2024-11-06T14:00:00	7	Dirección del viento	14.48
42359	7	Sololá	701	Sololá	3	Barraneche	8	Agosto	2023-09-08T00:00:00	2024-11-06T14:00:00	1	Precipitación	0
42360	7	Sololá	701	Sololá	3	Barraneche	8	Agosto	2023-09-08T00:00:00	2024-11-06T14:00:00	8	Radiación solar	1070
42361	7	Sololá	701	Sololá	3	Barraneche	8	Agosto	2023-09-08T00:00:00	2024-11-06T15:00:00	2	Temperatura media	15.8
42362	7	Sololá	701	Sololá	3	Barraneche	8	Agosto	2023-09-08T00:00:00	2024-11-06T15:00:00	4	Temperatura máxima	20.2
42363	7	Sololá	701	Sololá	3	Barraneche	8	Agosto	2023-09-08T00:00:00	2024-11-06T15:00:00	3	Temperatura mínima	15.8
42364	7	Sololá	701	Sololá	3	Barraneche	8	Agosto	2023-09-08T00:00:00	2024-11-06T15:00:00	5	Humedad	71
42365	7	Sololá	701	Sololá	3	Barraneche	8	Agosto	2023-09-08T00:00:00	2024-11-06T15:00:00	6	Velocidad del viento	8
42366	7	Sololá	701	Sololá	3	Barraneche	8	Agosto	2023-09-08T00:00:00	2024-11-06T15:00:00	7	Dirección del viento	8.05
42367	7	Sololá	701	Sololá	3	Barraneche	8	Agosto	2023-09-08T00:00:00	2024-11-06T15:00:00	1	Precipitación	1.4
42368	7	Sololá	701	Sololá	3	Barraneche	8	Agosto	2023-09-08T00:00:00	2024-11-06T15:00:00	8	Radiación solar	196
42369	7	Sololá	701	Sololá	3	Barraneche	8	Agosto	2023-09-08T00:00:00	2024-11-06T16:00:00	2	Temperatura media	18.2
42370	7	Sololá	701	Sololá	3	Barraneche	8	Agosto	2023-09-08T00:00:00	2024-11-06T16:00:00	4	Temperatura máxima	18.2
42371	7	Sololá	701	Sololá	3	Barraneche	8	Agosto	2023-09-08T00:00:00	2024-11-06T16:00:00	3	Temperatura mínima	15.8
42372	7	Sololá	701	Sololá	3	Barraneche	8	Agosto	2023-09-08T00:00:00	2024-11-06T16:00:00	5	Humedad	63
42373	7	Sololá	701	Sololá	3	Barraneche	8	Agosto	2023-09-08T00:00:00	2024-11-06T16:00:00	6	Velocidad del viento	6.4
42374	7	Sololá	701	Sololá	3	Barraneche	8	Agosto	2023-09-08T00:00:00	2024-11-06T16:00:00	7	Dirección del viento	6.44
42375	7	Sololá	701	Sololá	3	Barraneche	8	Agosto	2023-09-08T00:00:00	2024-11-06T16:00:00	1	Precipitación	0
42376	7	Sololá	701	Sololá	3	Barraneche	8	Agosto	2023-09-08T00:00:00	2024-11-06T16:00:00	8	Radiación solar	492
42377	7	Sololá	701	Sololá	3	Barraneche	8	Agosto	2023-09-08T00:00:00	2024-11-06T17:00:00	2	Temperatura media	16.8
42378	7	Sololá	701	Sololá	3	Barraneche	8	Agosto	2023-09-08T00:00:00	2024-11-06T17:00:00	4	Temperatura máxima	18.7
42379	7	Sololá	701	Sololá	3	Barraneche	8	Agosto	2023-09-08T00:00:00	2024-11-06T17:00:00	3	Temperatura mínima	16.8
42380	7	Sololá	701	Sololá	3	Barraneche	8	Agosto	2023-09-08T00:00:00	2024-11-06T17:00:00	5	Humedad	70
42381	7	Sololá	701	Sololá	3	Barraneche	8	Agosto	2023-09-08T00:00:00	2024-11-06T17:00:00	6	Velocidad del viento	8
42382	7	Sololá	701	Sololá	3	Barraneche	8	Agosto	2023-09-08T00:00:00	2024-11-06T17:00:00	7	Dirección del viento	8.05
42383	7	Sololá	701	Sololá	3	Barraneche	8	Agosto	2023-09-08T00:00:00	2024-11-06T17:00:00	1	Precipitación	0
42384	7	Sololá	701	Sololá	3	Barraneche	8	Agosto	2023-09-08T00:00:00	2024-11-06T17:00:00	8	Radiación solar	360
42385	7	Sololá	701	Sololá	3	Barraneche	8	Agosto	2023-09-08T00:00:00	2024-11-06T18:00:00	2	Temperatura media	17.2
42386	7	Sololá	701	Sololá	3	Barraneche	8	Agosto	2023-09-08T00:00:00	2024-11-06T18:00:00	4	Temperatura máxima	18.1
42387	7	Sololá	701	Sololá	3	Barraneche	8	Agosto	2023-09-08T00:00:00	2024-11-06T18:00:00	3	Temperatura mínima	16.7
42388	7	Sololá	701	Sololá	3	Barraneche	8	Agosto	2023-09-08T00:00:00	2024-11-06T18:00:00	5	Humedad	68
42389	7	Sololá	701	Sololá	3	Barraneche	8	Agosto	2023-09-08T00:00:00	2024-11-06T18:00:00	6	Velocidad del viento	3.2
42390	7	Sololá	701	Sololá	3	Barraneche	8	Agosto	2023-09-08T00:00:00	2024-11-06T18:00:00	7	Dirección del viento	3.22
42391	7	Sololá	701	Sololá	3	Barraneche	8	Agosto	2023-09-08T00:00:00	2024-11-06T18:00:00	1	Precipitación	0
42392	7	Sololá	701	Sololá	3	Barraneche	8	Agosto	2023-09-08T00:00:00	2024-11-06T18:00:00	8	Radiación solar	151
42393	7	Sololá	701	Sololá	3	Barraneche	8	Agosto	2023-09-08T00:00:00	2024-11-06T19:00:00	2	Temperatura media	14.9
42394	7	Sololá	701	Sololá	3	Barraneche	8	Agosto	2023-09-08T00:00:00	2024-11-06T19:00:00	4	Temperatura máxima	17.2
42395	7	Sololá	701	Sololá	3	Barraneche	8	Agosto	2023-09-08T00:00:00	2024-11-06T19:00:00	3	Temperatura mínima	14.7
42396	7	Sololá	701	Sololá	3	Barraneche	8	Agosto	2023-09-08T00:00:00	2024-11-06T19:00:00	5	Humedad	72
42397	7	Sololá	701	Sololá	3	Barraneche	8	Agosto	2023-09-08T00:00:00	2024-11-06T19:00:00	6	Velocidad del viento	4.8
42398	7	Sololá	701	Sololá	3	Barraneche	8	Agosto	2023-09-08T00:00:00	2024-11-06T19:00:00	7	Dirección del viento	4.83
42399	7	Sololá	701	Sololá	3	Barraneche	8	Agosto	2023-09-08T00:00:00	2024-11-06T19:00:00	1	Precipitación	0
42400	7	Sololá	701	Sololá	3	Barraneche	8	Agosto	2023-09-08T00:00:00	2024-11-06T19:00:00	8	Radiación solar	0
42401	7	Sololá	701	Sololá	3	Barraneche	8	Agosto	2023-09-08T00:00:00	2024-11-06T20:00:00	2	Temperatura media	13.7
42402	7	Sololá	701	Sololá	3	Barraneche	8	Agosto	2023-09-08T00:00:00	2024-11-06T20:00:00	4	Temperatura máxima	15
42403	7	Sololá	701	Sololá	3	Barraneche	8	Agosto	2023-09-08T00:00:00	2024-11-06T20:00:00	3	Temperatura mínima	13.5
42404	7	Sololá	701	Sololá	3	Barraneche	8	Agosto	2023-09-08T00:00:00	2024-11-06T20:00:00	5	Humedad	74
42405	7	Sololá	701	Sololá	3	Barraneche	8	Agosto	2023-09-08T00:00:00	2024-11-06T20:00:00	6	Velocidad del viento	3.2
42406	7	Sololá	701	Sololá	3	Barraneche	8	Agosto	2023-09-08T00:00:00	2024-11-06T20:00:00	7	Dirección del viento	3.22
42407	7	Sololá	701	Sololá	3	Barraneche	8	Agosto	2023-09-08T00:00:00	2024-11-06T20:00:00	1	Precipitación	0
42408	7	Sololá	701	Sololá	3	Barraneche	8	Agosto	2023-09-08T00:00:00	2024-11-06T20:00:00	8	Radiación solar	0
42409	7	Sololá	701	Sololá	3	Barraneche	8	Agosto	2023-09-08T00:00:00	2024-11-06T21:00:00	2	Temperatura media	13.8
42410	7	Sololá	701	Sololá	3	Barraneche	8	Agosto	2023-09-08T00:00:00	2024-11-06T21:00:00	4	Temperatura máxima	14.2
42411	7	Sololá	701	Sololá	3	Barraneche	8	Agosto	2023-09-08T00:00:00	2024-11-06T21:00:00	3	Temperatura mínima	13.5
42412	7	Sololá	701	Sololá	3	Barraneche	8	Agosto	2023-09-08T00:00:00	2024-11-06T21:00:00	5	Humedad	71
42413	7	Sololá	701	Sololá	3	Barraneche	8	Agosto	2023-09-08T00:00:00	2024-11-06T21:00:00	6	Velocidad del viento	3.2
42414	7	Sololá	701	Sololá	3	Barraneche	8	Agosto	2023-09-08T00:00:00	2024-11-06T21:00:00	7	Dirección del viento	3.22
42415	7	Sololá	701	Sololá	3	Barraneche	8	Agosto	2023-09-08T00:00:00	2024-11-06T21:00:00	1	Precipitación	0
42416	7	Sololá	701	Sololá	3	Barraneche	8	Agosto	2023-09-08T00:00:00	2024-11-06T21:00:00	8	Radiación solar	0
42417	7	Sololá	701	Sololá	3	Barraneche	8	Agosto	2023-09-08T00:00:00	2024-11-06T22:00:00	2	Temperatura media	13.3
42418	7	Sololá	701	Sololá	3	Barraneche	8	Agosto	2023-09-08T00:00:00	2024-11-06T22:00:00	4	Temperatura máxima	13.7
42419	7	Sololá	701	Sololá	3	Barraneche	8	Agosto	2023-09-08T00:00:00	2024-11-06T22:00:00	3	Temperatura mínima	13.1
42420	7	Sololá	701	Sololá	3	Barraneche	8	Agosto	2023-09-08T00:00:00	2024-11-06T22:00:00	5	Humedad	69
42421	7	Sololá	701	Sololá	3	Barraneche	8	Agosto	2023-09-08T00:00:00	2024-11-06T22:00:00	6	Velocidad del viento	4.8
42422	7	Sololá	701	Sololá	3	Barraneche	8	Agosto	2023-09-08T00:00:00	2024-11-06T22:00:00	7	Dirección del viento	4.83
42423	7	Sololá	701	Sololá	3	Barraneche	8	Agosto	2023-09-08T00:00:00	2024-11-06T22:00:00	1	Precipitación	0
42424	7	Sololá	701	Sololá	3	Barraneche	8	Agosto	2023-09-08T00:00:00	2024-11-06T22:00:00	8	Radiación solar	0
42425	7	Sololá	701	Sololá	3	Barraneche	8	Agosto	2023-09-08T00:00:00	2024-11-06T23:00:00	2	Temperatura media	12.8
42426	7	Sololá	701	Sololá	3	Barraneche	8	Agosto	2023-09-08T00:00:00	2024-11-06T23:00:00	4	Temperatura máxima	13.3
42427	7	Sololá	701	Sololá	3	Barraneche	8	Agosto	2023-09-08T00:00:00	2024-11-06T23:00:00	3	Temperatura mínima	12.5
42428	7	Sololá	701	Sololá	3	Barraneche	8	Agosto	2023-09-08T00:00:00	2024-11-06T23:00:00	5	Humedad	70
42429	7	Sololá	701	Sololá	3	Barraneche	8	Agosto	2023-09-08T00:00:00	2024-11-06T23:00:00	6	Velocidad del viento	3.2
42430	7	Sololá	701	Sololá	3	Barraneche	8	Agosto	2023-09-08T00:00:00	2024-11-06T23:00:00	7	Dirección del viento	3.22
42431	7	Sololá	701	Sololá	3	Barraneche	8	Agosto	2023-09-08T00:00:00	2024-11-06T23:00:00	1	Precipitación	0
42432	7	Sololá	701	Sololá	3	Barraneche	8	Agosto	2023-09-08T00:00:00	2024-11-06T23:00:00	8	Radiación solar	0
42433	7	Sololá	701	Sololá	3	Barraneche	8	Agosto	2023-10-08T00:00:00	2024-11-06T00:00:00	2	Temperatura media	12.3
42434	7	Sololá	701	Sololá	3	Barraneche	8	Agosto	2023-10-08T00:00:00	2024-11-06T00:00:00	4	Temperatura máxima	12.8
42435	7	Sololá	701	Sololá	3	Barraneche	8	Agosto	2023-10-08T00:00:00	2024-11-06T00:00:00	3	Temperatura mínima	12.3
42436	7	Sololá	701	Sololá	3	Barraneche	8	Agosto	2023-10-08T00:00:00	2024-11-06T00:00:00	5	Humedad	70
42437	7	Sololá	701	Sololá	3	Barraneche	8	Agosto	2023-10-08T00:00:00	2024-11-06T00:00:00	6	Velocidad del viento	4.8
42438	7	Sololá	701	Sololá	3	Barraneche	8	Agosto	2023-10-08T00:00:00	2024-11-06T00:00:00	7	Dirección del viento	4.83
42439	7	Sololá	701	Sololá	3	Barraneche	8	Agosto	2023-10-08T00:00:00	2024-11-06T00:00:00	1	Precipitación	0
42440	7	Sololá	701	Sololá	3	Barraneche	8	Agosto	2023-10-08T00:00:00	2024-11-06T00:00:00	8	Radiación solar	0
42441	7	Sololá	701	Sololá	3	Barraneche	8	Agosto	2023-10-08T00:00:00	2024-11-06T01:00:00	2	Temperatura media	13.6
42442	7	Sololá	701	Sololá	3	Barraneche	8	Agosto	2023-10-08T00:00:00	2024-11-06T01:00:00	4	Temperatura máxima	13.6
42443	7	Sololá	701	Sololá	3	Barraneche	8	Agosto	2023-10-08T00:00:00	2024-11-06T01:00:00	3	Temperatura mínima	12.3
42444	7	Sololá	701	Sololá	3	Barraneche	8	Agosto	2023-10-08T00:00:00	2024-11-06T01:00:00	5	Humedad	66
42445	7	Sololá	701	Sololá	3	Barraneche	8	Agosto	2023-10-08T00:00:00	2024-11-06T01:00:00	6	Velocidad del viento	6.4
42446	7	Sololá	701	Sololá	3	Barraneche	8	Agosto	2023-10-08T00:00:00	2024-11-06T01:00:00	7	Dirección del viento	6.44
42447	7	Sololá	701	Sololá	3	Barraneche	8	Agosto	2023-10-08T00:00:00	2024-11-06T01:00:00	1	Precipitación	0
42448	7	Sololá	701	Sololá	3	Barraneche	8	Agosto	2023-10-08T00:00:00	2024-11-06T01:00:00	8	Radiación solar	0
42449	7	Sololá	701	Sololá	3	Barraneche	8	Agosto	2023-10-08T00:00:00	2024-11-06T02:00:00	2	Temperatura media	13.2
42450	7	Sololá	701	Sololá	3	Barraneche	8	Agosto	2023-10-08T00:00:00	2024-11-06T02:00:00	4	Temperatura máxima	13.8
42451	7	Sololá	701	Sololá	3	Barraneche	8	Agosto	2023-10-08T00:00:00	2024-11-06T02:00:00	3	Temperatura mínima	13
42452	7	Sololá	701	Sololá	3	Barraneche	8	Agosto	2023-10-08T00:00:00	2024-11-06T02:00:00	5	Humedad	68
42453	7	Sololá	701	Sololá	3	Barraneche	8	Agosto	2023-10-08T00:00:00	2024-11-06T02:00:00	6	Velocidad del viento	8
42454	7	Sololá	701	Sololá	3	Barraneche	8	Agosto	2023-10-08T00:00:00	2024-11-06T02:00:00	7	Dirección del viento	8.05
42455	7	Sololá	701	Sololá	3	Barraneche	8	Agosto	2023-10-08T00:00:00	2024-11-06T02:00:00	1	Precipitación	0
42456	7	Sololá	701	Sololá	3	Barraneche	8	Agosto	2023-10-08T00:00:00	2024-11-06T02:00:00	8	Radiación solar	0
42457	7	Sololá	701	Sololá	3	Barraneche	8	Agosto	2023-10-08T00:00:00	2024-11-06T03:00:00	2	Temperatura media	12.7
42458	7	Sololá	701	Sololá	3	Barraneche	8	Agosto	2023-10-08T00:00:00	2024-11-06T03:00:00	4	Temperatura máxima	13.3
42459	7	Sololá	701	Sololá	3	Barraneche	8	Agosto	2023-10-08T00:00:00	2024-11-06T03:00:00	3	Temperatura mínima	12.4
42460	7	Sololá	701	Sololá	3	Barraneche	8	Agosto	2023-10-08T00:00:00	2024-11-06T03:00:00	5	Humedad	70
42461	7	Sololá	701	Sololá	3	Barraneche	8	Agosto	2023-10-08T00:00:00	2024-11-06T03:00:00	6	Velocidad del viento	6.4
42462	7	Sololá	701	Sololá	3	Barraneche	8	Agosto	2023-10-08T00:00:00	2024-11-06T03:00:00	7	Dirección del viento	6.44
42463	7	Sololá	701	Sololá	3	Barraneche	8	Agosto	2023-10-08T00:00:00	2024-11-06T03:00:00	1	Precipitación	0
42464	7	Sololá	701	Sololá	3	Barraneche	8	Agosto	2023-10-08T00:00:00	2024-11-06T03:00:00	8	Radiación solar	0
42465	7	Sololá	701	Sololá	3	Barraneche	8	Agosto	2023-10-08T00:00:00	2024-11-06T04:00:00	2	Temperatura media	13.2
42466	7	Sololá	701	Sololá	3	Barraneche	8	Agosto	2023-10-08T00:00:00	2024-11-06T04:00:00	4	Temperatura máxima	13.3
42467	7	Sololá	701	Sololá	3	Barraneche	8	Agosto	2023-10-08T00:00:00	2024-11-06T04:00:00	3	Temperatura mínima	12.7
42468	7	Sololá	701	Sololá	3	Barraneche	8	Agosto	2023-10-08T00:00:00	2024-11-06T04:00:00	5	Humedad	68
42469	7	Sololá	701	Sololá	3	Barraneche	8	Agosto	2023-10-08T00:00:00	2024-11-06T04:00:00	6	Velocidad del viento	6.4
42470	7	Sololá	701	Sololá	3	Barraneche	8	Agosto	2023-10-08T00:00:00	2024-11-06T04:00:00	7	Dirección del viento	6.44
42471	7	Sololá	701	Sololá	3	Barraneche	8	Agosto	2023-10-08T00:00:00	2024-11-06T04:00:00	1	Precipitación	0
42472	7	Sololá	701	Sololá	3	Barraneche	8	Agosto	2023-10-08T00:00:00	2024-11-06T04:00:00	8	Radiación solar	0
42473	7	Sololá	701	Sololá	3	Barraneche	8	Agosto	2023-10-08T00:00:00	2024-11-06T05:00:00	2	Temperatura media	13.4
42474	7	Sololá	701	Sololá	3	Barraneche	8	Agosto	2023-10-08T00:00:00	2024-11-06T05:00:00	4	Temperatura máxima	13.6
42475	7	Sololá	701	Sololá	3	Barraneche	8	Agosto	2023-10-08T00:00:00	2024-11-06T05:00:00	3	Temperatura mínima	13.1
42476	7	Sololá	701	Sololá	3	Barraneche	8	Agosto	2023-10-08T00:00:00	2024-11-06T05:00:00	5	Humedad	68
42477	7	Sololá	701	Sololá	3	Barraneche	8	Agosto	2023-10-08T00:00:00	2024-11-06T05:00:00	6	Velocidad del viento	6.4
42478	7	Sololá	701	Sololá	3	Barraneche	8	Agosto	2023-10-08T00:00:00	2024-11-06T05:00:00	7	Dirección del viento	6.44
42479	7	Sololá	701	Sololá	3	Barraneche	8	Agosto	2023-10-08T00:00:00	2024-11-06T05:00:00	1	Precipitación	0
42480	7	Sololá	701	Sololá	3	Barraneche	8	Agosto	2023-10-08T00:00:00	2024-11-06T05:00:00	8	Radiación solar	0
42481	7	Sololá	701	Sololá	3	Barraneche	8	Agosto	2023-10-08T00:00:00	2024-11-06T06:00:00	2	Temperatura media	12.4
42482	7	Sololá	701	Sololá	3	Barraneche	8	Agosto	2023-10-08T00:00:00	2024-11-06T06:00:00	4	Temperatura máxima	13.5
42483	7	Sololá	701	Sololá	3	Barraneche	8	Agosto	2023-10-08T00:00:00	2024-11-06T06:00:00	3	Temperatura mínima	12.4
42484	7	Sololá	701	Sololá	3	Barraneche	8	Agosto	2023-10-08T00:00:00	2024-11-06T06:00:00	5	Humedad	70
42485	7	Sololá	701	Sololá	3	Barraneche	8	Agosto	2023-10-08T00:00:00	2024-11-06T06:00:00	6	Velocidad del viento	6.4
42486	7	Sololá	701	Sololá	3	Barraneche	8	Agosto	2023-10-08T00:00:00	2024-11-06T06:00:00	7	Dirección del viento	6.44
42487	7	Sololá	701	Sololá	3	Barraneche	8	Agosto	2023-10-08T00:00:00	2024-11-06T06:00:00	1	Precipitación	0
42488	7	Sololá	701	Sololá	3	Barraneche	8	Agosto	2023-10-08T00:00:00	2024-11-06T06:00:00	8	Radiación solar	1
42489	7	Sololá	701	Sololá	3	Barraneche	8	Agosto	2023-10-08T00:00:00	2024-11-06T07:00:00	2	Temperatura media	14.1
42490	7	Sololá	701	Sololá	3	Barraneche	8	Agosto	2023-10-08T00:00:00	2024-11-06T07:00:00	4	Temperatura máxima	14.1
42491	7	Sololá	701	Sololá	3	Barraneche	8	Agosto	2023-10-08T00:00:00	2024-11-06T07:00:00	3	Temperatura mínima	12.3
42492	7	Sololá	701	Sololá	3	Barraneche	8	Agosto	2023-10-08T00:00:00	2024-11-06T07:00:00	5	Humedad	68
42493	7	Sololá	701	Sololá	3	Barraneche	8	Agosto	2023-10-08T00:00:00	2024-11-06T07:00:00	6	Velocidad del viento	4.8
42494	7	Sololá	701	Sololá	3	Barraneche	8	Agosto	2023-10-08T00:00:00	2024-11-06T07:00:00	7	Dirección del viento	4.83
42495	7	Sololá	701	Sololá	3	Barraneche	8	Agosto	2023-10-08T00:00:00	2024-11-06T07:00:00	1	Precipitación	0
42496	7	Sololá	701	Sololá	3	Barraneche	8	Agosto	2023-10-08T00:00:00	2024-11-06T07:00:00	8	Radiación solar	71
42497	7	Sololá	701	Sololá	3	Barraneche	8	Agosto	2023-10-08T00:00:00	2024-11-06T08:00:00	2	Temperatura media	16
42498	7	Sololá	701	Sololá	3	Barraneche	8	Agosto	2023-10-08T00:00:00	2024-11-06T08:00:00	4	Temperatura máxima	16.1
42499	7	Sololá	701	Sololá	3	Barraneche	8	Agosto	2023-10-08T00:00:00	2024-11-06T08:00:00	3	Temperatura mínima	14.1
42500	7	Sololá	701	Sololá	3	Barraneche	8	Agosto	2023-10-08T00:00:00	2024-11-06T08:00:00	5	Humedad	65
42501	7	Sololá	701	Sololá	3	Barraneche	8	Agosto	2023-10-08T00:00:00	2024-11-06T08:00:00	6	Velocidad del viento	3.2
42502	7	Sololá	701	Sololá	3	Barraneche	8	Agosto	2023-10-08T00:00:00	2024-11-06T08:00:00	7	Dirección del viento	3.22
42503	7	Sololá	701	Sololá	3	Barraneche	8	Agosto	2023-10-08T00:00:00	2024-11-06T08:00:00	1	Precipitación	0
42504	7	Sololá	701	Sololá	3	Barraneche	8	Agosto	2023-10-08T00:00:00	2024-11-06T08:00:00	8	Radiación solar	205
42505	7	Sololá	701	Sololá	3	Barraneche	8	Agosto	2023-10-08T00:00:00	2024-11-06T09:00:00	2	Temperatura media	17.2
42506	7	Sololá	701	Sololá	3	Barraneche	8	Agosto	2023-10-08T00:00:00	2024-11-06T09:00:00	4	Temperatura máxima	17.2
42507	7	Sololá	701	Sololá	3	Barraneche	8	Agosto	2023-10-08T00:00:00	2024-11-06T09:00:00	3	Temperatura mínima	15.7
42508	7	Sololá	701	Sololá	3	Barraneche	8	Agosto	2023-10-08T00:00:00	2024-11-06T09:00:00	5	Humedad	62
42509	7	Sololá	701	Sololá	3	Barraneche	8	Agosto	2023-10-08T00:00:00	2024-11-06T09:00:00	6	Velocidad del viento	1.6
42510	7	Sololá	701	Sololá	3	Barraneche	8	Agosto	2023-10-08T00:00:00	2024-11-06T09:00:00	7	Dirección del viento	1.61
42511	7	Sololá	701	Sololá	3	Barraneche	8	Agosto	2023-10-08T00:00:00	2024-11-06T09:00:00	1	Precipitación	0
42512	7	Sololá	701	Sololá	3	Barraneche	8	Agosto	2023-10-08T00:00:00	2024-11-06T09:00:00	8	Radiación solar	188
42513	7	Sololá	701	Sololá	3	Barraneche	8	Agosto	2023-10-08T00:00:00	2024-11-06T10:00:00	2	Temperatura media	18.4
42514	7	Sololá	701	Sololá	3	Barraneche	8	Agosto	2023-10-08T00:00:00	2024-11-06T10:00:00	4	Temperatura máxima	18.8
42515	7	Sololá	701	Sololá	3	Barraneche	8	Agosto	2023-10-08T00:00:00	2024-11-06T10:00:00	3	Temperatura mínima	17.2
42516	7	Sololá	701	Sololá	3	Barraneche	8	Agosto	2023-10-08T00:00:00	2024-11-06T10:00:00	5	Humedad	61
42517	7	Sololá	701	Sololá	3	Barraneche	8	Agosto	2023-10-08T00:00:00	2024-11-06T10:00:00	6	Velocidad del viento	4.8
42518	7	Sololá	701	Sololá	3	Barraneche	8	Agosto	2023-10-08T00:00:00	2024-11-06T10:00:00	7	Dirección del viento	4.83
42519	7	Sololá	701	Sololá	3	Barraneche	8	Agosto	2023-10-08T00:00:00	2024-11-06T10:00:00	1	Precipitación	0
42520	7	Sololá	701	Sololá	3	Barraneche	8	Agosto	2023-10-08T00:00:00	2024-11-06T10:00:00	8	Radiación solar	365
42521	7	Sololá	701	Sololá	3	Barraneche	8	Agosto	2023-10-08T00:00:00	2024-11-06T11:00:00	2	Temperatura media	19.3
42522	7	Sololá	701	Sololá	3	Barraneche	8	Agosto	2023-10-08T00:00:00	2024-11-06T11:00:00	4	Temperatura máxima	19.7
42523	7	Sololá	701	Sololá	3	Barraneche	8	Agosto	2023-10-08T00:00:00	2024-11-06T11:00:00	3	Temperatura mínima	18.3
42524	7	Sololá	701	Sololá	3	Barraneche	8	Agosto	2023-10-08T00:00:00	2024-11-06T11:00:00	5	Humedad	62
42525	7	Sololá	701	Sololá	3	Barraneche	8	Agosto	2023-10-08T00:00:00	2024-11-06T11:00:00	6	Velocidad del viento	6.4
42526	7	Sololá	701	Sololá	3	Barraneche	8	Agosto	2023-10-08T00:00:00	2024-11-06T11:00:00	7	Dirección del viento	6.44
42527	7	Sololá	701	Sololá	3	Barraneche	8	Agosto	2023-10-08T00:00:00	2024-11-06T11:00:00	1	Precipitación	0
42528	7	Sololá	701	Sololá	3	Barraneche	8	Agosto	2023-10-08T00:00:00	2024-11-06T11:00:00	8	Radiación solar	558
42529	7	Sololá	701	Sololá	3	Barraneche	8	Agosto	2023-10-08T00:00:00	2024-11-06T12:00:00	2	Temperatura media	20.1
42530	7	Sololá	701	Sololá	3	Barraneche	8	Agosto	2023-10-08T00:00:00	2024-11-06T12:00:00	4	Temperatura máxima	20.2
42531	7	Sololá	701	Sololá	3	Barraneche	8	Agosto	2023-10-08T00:00:00	2024-11-06T12:00:00	3	Temperatura mínima	18.9
42532	7	Sololá	701	Sololá	3	Barraneche	8	Agosto	2023-10-08T00:00:00	2024-11-06T12:00:00	5	Humedad	59
42533	7	Sololá	701	Sololá	3	Barraneche	8	Agosto	2023-10-08T00:00:00	2024-11-06T12:00:00	6	Velocidad del viento	11.3
42534	7	Sololá	701	Sololá	3	Barraneche	8	Agosto	2023-10-08T00:00:00	2024-11-06T12:00:00	7	Dirección del viento	11.27
42535	7	Sololá	701	Sololá	3	Barraneche	8	Agosto	2023-10-08T00:00:00	2024-11-06T12:00:00	1	Precipitación	0
42536	7	Sololá	701	Sololá	3	Barraneche	8	Agosto	2023-10-08T00:00:00	2024-11-06T12:00:00	8	Radiación solar	788
42537	7	Sololá	701	Sololá	3	Barraneche	8	Agosto	2023-10-08T00:00:00	2024-11-06T13:00:00	2	Temperatura media	17.8
42538	7	Sololá	701	Sololá	3	Barraneche	8	Agosto	2023-10-08T00:00:00	2024-11-06T13:00:00	4	Temperatura máxima	20.1
42539	7	Sololá	701	Sololá	3	Barraneche	8	Agosto	2023-10-08T00:00:00	2024-11-06T13:00:00	3	Temperatura mínima	17.7
42540	7	Sololá	701	Sololá	3	Barraneche	8	Agosto	2023-10-08T00:00:00	2024-11-06T13:00:00	5	Humedad	69
42541	7	Sololá	701	Sololá	3	Barraneche	8	Agosto	2023-10-08T00:00:00	2024-11-06T13:00:00	6	Velocidad del viento	8
42542	7	Sololá	701	Sololá	3	Barraneche	8	Agosto	2023-10-08T00:00:00	2024-11-06T13:00:00	7	Dirección del viento	8.05
42543	7	Sololá	701	Sololá	3	Barraneche	8	Agosto	2023-10-08T00:00:00	2024-11-06T13:00:00	1	Precipitación	0
42544	7	Sololá	701	Sololá	3	Barraneche	8	Agosto	2023-10-08T00:00:00	2024-11-06T13:00:00	8	Radiación solar	176
42545	7	Sololá	701	Sololá	3	Barraneche	8	Agosto	2023-10-08T00:00:00	2024-11-06T14:00:00	2	Temperatura media	18.1
42546	7	Sololá	701	Sololá	3	Barraneche	8	Agosto	2023-10-08T00:00:00	2024-11-06T14:00:00	4	Temperatura máxima	18.2
42547	7	Sololá	701	Sololá	3	Barraneche	8	Agosto	2023-10-08T00:00:00	2024-11-06T14:00:00	3	Temperatura mínima	17.7
42548	7	Sololá	701	Sololá	3	Barraneche	8	Agosto	2023-10-08T00:00:00	2024-11-06T14:00:00	5	Humedad	69
42549	7	Sololá	701	Sololá	3	Barraneche	8	Agosto	2023-10-08T00:00:00	2024-11-06T14:00:00	6	Velocidad del viento	4.8
42550	7	Sololá	701	Sololá	3	Barraneche	8	Agosto	2023-10-08T00:00:00	2024-11-06T14:00:00	7	Dirección del viento	4.83
42551	7	Sololá	701	Sololá	3	Barraneche	8	Agosto	2023-10-08T00:00:00	2024-11-06T14:00:00	1	Precipitación	0
42552	7	Sololá	701	Sololá	3	Barraneche	8	Agosto	2023-10-08T00:00:00	2024-11-06T14:00:00	8	Radiación solar	179
42553	7	Sololá	701	Sololá	3	Barraneche	8	Agosto	2023-10-08T00:00:00	2024-11-06T15:00:00	2	Temperatura media	18
42554	7	Sololá	701	Sololá	3	Barraneche	8	Agosto	2023-10-08T00:00:00	2024-11-06T15:00:00	4	Temperatura máxima	18.1
42555	7	Sololá	701	Sololá	3	Barraneche	8	Agosto	2023-10-08T00:00:00	2024-11-06T15:00:00	3	Temperatura mínima	17.6
42556	7	Sololá	701	Sololá	3	Barraneche	8	Agosto	2023-10-08T00:00:00	2024-11-06T15:00:00	5	Humedad	70
42557	7	Sololá	701	Sololá	3	Barraneche	8	Agosto	2023-10-08T00:00:00	2024-11-06T15:00:00	6	Velocidad del viento	9.7
42558	7	Sololá	701	Sololá	3	Barraneche	8	Agosto	2023-10-08T00:00:00	2024-11-06T15:00:00	7	Dirección del viento	9.66
42559	7	Sololá	701	Sololá	3	Barraneche	8	Agosto	2023-10-08T00:00:00	2024-11-06T15:00:00	1	Precipitación	0
42560	7	Sololá	701	Sololá	3	Barraneche	8	Agosto	2023-10-08T00:00:00	2024-11-06T15:00:00	8	Radiación solar	364
42561	7	Sololá	701	Sololá	3	Barraneche	8	Agosto	2023-10-08T00:00:00	2024-11-06T16:00:00	2	Temperatura media	18.3
42562	7	Sololá	701	Sololá	3	Barraneche	8	Agosto	2023-10-08T00:00:00	2024-11-06T16:00:00	4	Temperatura máxima	18.3
42563	7	Sololá	701	Sololá	3	Barraneche	8	Agosto	2023-10-08T00:00:00	2024-11-06T16:00:00	3	Temperatura mínima	17.6
42564	7	Sololá	701	Sololá	3	Barraneche	8	Agosto	2023-10-08T00:00:00	2024-11-06T16:00:00	5	Humedad	63
42565	7	Sololá	701	Sololá	3	Barraneche	8	Agosto	2023-10-08T00:00:00	2024-11-06T16:00:00	6	Velocidad del viento	6.4
42566	7	Sololá	701	Sololá	3	Barraneche	8	Agosto	2023-10-08T00:00:00	2024-11-06T16:00:00	7	Dirección del viento	6.44
42567	7	Sololá	701	Sololá	3	Barraneche	8	Agosto	2023-10-08T00:00:00	2024-11-06T16:00:00	1	Precipitación	0
42568	7	Sololá	701	Sololá	3	Barraneche	8	Agosto	2023-10-08T00:00:00	2024-11-06T16:00:00	8	Radiación solar	297
42569	7	Sololá	701	Sololá	3	Barraneche	8	Agosto	2023-10-08T00:00:00	2024-11-06T17:00:00	2	Temperatura media	18.3
42570	7	Sololá	701	Sololá	3	Barraneche	8	Agosto	2023-10-08T00:00:00	2024-11-06T17:00:00	4	Temperatura máxima	19.4
42571	7	Sololá	701	Sololá	3	Barraneche	8	Agosto	2023-10-08T00:00:00	2024-11-06T17:00:00	3	Temperatura mínima	18.3
42572	7	Sololá	701	Sololá	3	Barraneche	8	Agosto	2023-10-08T00:00:00	2024-11-06T17:00:00	5	Humedad	54
42573	7	Sololá	701	Sololá	3	Barraneche	8	Agosto	2023-10-08T00:00:00	2024-11-06T17:00:00	6	Velocidad del viento	4.8
42574	7	Sololá	701	Sololá	3	Barraneche	8	Agosto	2023-10-08T00:00:00	2024-11-06T17:00:00	7	Dirección del viento	4.83
42575	7	Sololá	701	Sololá	3	Barraneche	8	Agosto	2023-10-08T00:00:00	2024-11-06T17:00:00	1	Precipitación	0
42576	7	Sololá	701	Sololá	3	Barraneche	8	Agosto	2023-10-08T00:00:00	2024-11-06T17:00:00	8	Radiación solar	219
42577	7	Sololá	701	Sololá	3	Barraneche	8	Agosto	2023-10-08T00:00:00	2024-11-06T18:00:00	2	Temperatura media	17.1
42578	7	Sololá	701	Sololá	3	Barraneche	8	Agosto	2023-10-08T00:00:00	2024-11-06T18:00:00	4	Temperatura máxima	18.3
42579	7	Sololá	701	Sololá	3	Barraneche	8	Agosto	2023-10-08T00:00:00	2024-11-06T18:00:00	3	Temperatura mínima	17
42580	7	Sololá	701	Sololá	3	Barraneche	8	Agosto	2023-10-08T00:00:00	2024-11-06T18:00:00	5	Humedad	63
42581	7	Sololá	701	Sololá	3	Barraneche	8	Agosto	2023-10-08T00:00:00	2024-11-06T18:00:00	6	Velocidad del viento	12.9
42582	7	Sololá	701	Sololá	3	Barraneche	8	Agosto	2023-10-08T00:00:00	2024-11-06T18:00:00	7	Dirección del viento	12.87
42583	7	Sololá	701	Sololá	3	Barraneche	8	Agosto	2023-10-08T00:00:00	2024-11-06T18:00:00	1	Precipitación	0
42584	7	Sololá	701	Sololá	3	Barraneche	8	Agosto	2023-10-08T00:00:00	2024-11-06T18:00:00	8	Radiación solar	49
42585	7	Sololá	701	Sololá	3	Barraneche	8	Agosto	2023-10-08T00:00:00	2024-11-06T19:00:00	2	Temperatura media	16.9
42586	7	Sololá	701	Sololá	3	Barraneche	8	Agosto	2023-10-08T00:00:00	2024-11-06T19:00:00	4	Temperatura máxima	17.1
42587	7	Sololá	701	Sololá	3	Barraneche	8	Agosto	2023-10-08T00:00:00	2024-11-06T19:00:00	3	Temperatura mínima	16.8
42588	7	Sololá	701	Sololá	3	Barraneche	8	Agosto	2023-10-08T00:00:00	2024-11-06T19:00:00	5	Humedad	63
42589	7	Sololá	701	Sololá	3	Barraneche	8	Agosto	2023-10-08T00:00:00	2024-11-06T19:00:00	6	Velocidad del viento	6.4
42590	7	Sololá	701	Sololá	3	Barraneche	8	Agosto	2023-10-08T00:00:00	2024-11-06T19:00:00	7	Dirección del viento	6.44
42591	7	Sololá	701	Sololá	3	Barraneche	8	Agosto	2023-10-08T00:00:00	2024-11-06T19:00:00	1	Precipitación	0
42592	7	Sololá	701	Sololá	3	Barraneche	8	Agosto	2023-10-08T00:00:00	2024-11-06T19:00:00	8	Radiación solar	0
42593	7	Sololá	701	Sololá	3	Barraneche	8	Agosto	2023-10-08T00:00:00	2024-11-06T20:00:00	2	Temperatura media	16.7
42594	7	Sololá	701	Sololá	3	Barraneche	8	Agosto	2023-10-08T00:00:00	2024-11-06T20:00:00	4	Temperatura máxima	16.9
42595	7	Sololá	701	Sololá	3	Barraneche	8	Agosto	2023-10-08T00:00:00	2024-11-06T20:00:00	3	Temperatura mínima	15.9
42596	7	Sololá	701	Sololá	3	Barraneche	8	Agosto	2023-10-08T00:00:00	2024-11-06T20:00:00	5	Humedad	60
42597	7	Sololá	701	Sololá	3	Barraneche	8	Agosto	2023-10-08T00:00:00	2024-11-06T20:00:00	6	Velocidad del viento	8
42598	7	Sololá	701	Sololá	3	Barraneche	8	Agosto	2023-10-08T00:00:00	2024-11-06T20:00:00	7	Dirección del viento	8.05
42599	7	Sololá	701	Sololá	3	Barraneche	8	Agosto	2023-10-08T00:00:00	2024-11-06T20:00:00	1	Precipitación	0
42600	7	Sololá	701	Sololá	3	Barraneche	8	Agosto	2023-10-08T00:00:00	2024-11-06T20:00:00	8	Radiación solar	0
42601	7	Sololá	701	Sololá	3	Barraneche	8	Agosto	2023-10-08T00:00:00	2024-11-06T21:00:00	2	Temperatura media	16.7
42602	7	Sololá	701	Sololá	3	Barraneche	8	Agosto	2023-10-08T00:00:00	2024-11-06T21:00:00	4	Temperatura máxima	16.8
42603	7	Sololá	701	Sololá	3	Barraneche	8	Agosto	2023-10-08T00:00:00	2024-11-06T21:00:00	3	Temperatura mínima	16.4
42604	7	Sololá	701	Sololá	3	Barraneche	8	Agosto	2023-10-08T00:00:00	2024-11-06T21:00:00	5	Humedad	56
42605	7	Sololá	701	Sololá	3	Barraneche	8	Agosto	2023-10-08T00:00:00	2024-11-06T21:00:00	6	Velocidad del viento	6.4
42606	7	Sololá	701	Sololá	3	Barraneche	8	Agosto	2023-10-08T00:00:00	2024-11-06T21:00:00	7	Dirección del viento	6.44
42607	7	Sololá	701	Sololá	3	Barraneche	8	Agosto	2023-10-08T00:00:00	2024-11-06T21:00:00	1	Precipitación	0
42608	7	Sololá	701	Sololá	3	Barraneche	8	Agosto	2023-10-08T00:00:00	2024-11-06T21:00:00	8	Radiación solar	0
42609	7	Sololá	701	Sololá	3	Barraneche	8	Agosto	2023-10-08T00:00:00	2024-11-06T22:00:00	2	Temperatura media	15.1
42610	7	Sololá	701	Sololá	3	Barraneche	8	Agosto	2023-10-08T00:00:00	2024-11-06T22:00:00	4	Temperatura máxima	16.7
42611	7	Sololá	701	Sololá	3	Barraneche	8	Agosto	2023-10-08T00:00:00	2024-11-06T22:00:00	3	Temperatura mínima	14.2
42612	7	Sololá	701	Sololá	3	Barraneche	8	Agosto	2023-10-08T00:00:00	2024-11-06T22:00:00	5	Humedad	66
42613	7	Sololá	701	Sololá	3	Barraneche	8	Agosto	2023-10-08T00:00:00	2024-11-06T22:00:00	6	Velocidad del viento	4.8
42614	7	Sololá	701	Sololá	3	Barraneche	8	Agosto	2023-10-08T00:00:00	2024-11-06T22:00:00	7	Dirección del viento	4.83
42615	7	Sololá	701	Sololá	3	Barraneche	8	Agosto	2023-10-08T00:00:00	2024-11-06T22:00:00	1	Precipitación	0
42616	7	Sololá	701	Sololá	3	Barraneche	8	Agosto	2023-10-08T00:00:00	2024-11-06T22:00:00	8	Radiación solar	0
42617	7	Sololá	701	Sololá	3	Barraneche	8	Agosto	2023-10-08T00:00:00	2024-11-06T23:00:00	2	Temperatura media	14.4
42618	7	Sololá	701	Sololá	3	Barraneche	8	Agosto	2023-10-08T00:00:00	2024-11-06T23:00:00	4	Temperatura máxima	15.8
42619	7	Sololá	701	Sololá	3	Barraneche	8	Agosto	2023-10-08T00:00:00	2024-11-06T23:00:00	3	Temperatura mínima	14.4
42620	7	Sololá	701	Sololá	3	Barraneche	8	Agosto	2023-10-08T00:00:00	2024-11-06T23:00:00	5	Humedad	64
42621	7	Sololá	701	Sololá	3	Barraneche	8	Agosto	2023-10-08T00:00:00	2024-11-06T23:00:00	6	Velocidad del viento	4.8
42622	7	Sololá	701	Sololá	3	Barraneche	8	Agosto	2023-10-08T00:00:00	2024-11-06T23:00:00	7	Dirección del viento	4.83
42623	7	Sololá	701	Sololá	3	Barraneche	8	Agosto	2023-10-08T00:00:00	2024-11-06T23:00:00	1	Precipitación	0
42624	7	Sololá	701	Sololá	3	Barraneche	8	Agosto	2023-10-08T00:00:00	2024-11-06T23:00:00	8	Radiación solar	0
42625	7	Sololá	701	Sololá	3	Barraneche	8	Agosto	2023-11-08T00:00:00	2024-11-06T00:00:00	2	Temperatura media	13.2
42626	7	Sololá	701	Sololá	3	Barraneche	8	Agosto	2023-11-08T00:00:00	2024-11-06T00:00:00	4	Temperatura máxima	14.4
42627	7	Sololá	701	Sololá	3	Barraneche	8	Agosto	2023-11-08T00:00:00	2024-11-06T00:00:00	3	Temperatura mínima	13.2
42628	7	Sololá	701	Sololá	3	Barraneche	8	Agosto	2023-11-08T00:00:00	2024-11-06T00:00:00	5	Humedad	70
42629	7	Sololá	701	Sololá	3	Barraneche	8	Agosto	2023-11-08T00:00:00	2024-11-06T00:00:00	6	Velocidad del viento	3.2
42630	7	Sololá	701	Sololá	3	Barraneche	8	Agosto	2023-11-08T00:00:00	2024-11-06T00:00:00	7	Dirección del viento	3.22
42631	7	Sololá	701	Sololá	3	Barraneche	8	Agosto	2023-11-08T00:00:00	2024-11-06T00:00:00	1	Precipitación	0
42632	7	Sololá	701	Sololá	3	Barraneche	8	Agosto	2023-11-08T00:00:00	2024-11-06T00:00:00	8	Radiación solar	0
42633	7	Sololá	701	Sololá	3	Barraneche	8	Agosto	2023-11-08T00:00:00	2024-11-06T01:00:00	2	Temperatura media	16.1
42634	7	Sololá	701	Sololá	3	Barraneche	8	Agosto	2023-11-08T00:00:00	2024-11-06T01:00:00	4	Temperatura máxima	16.2
42635	7	Sololá	701	Sololá	3	Barraneche	8	Agosto	2023-11-08T00:00:00	2024-11-06T01:00:00	3	Temperatura mínima	12.9
42636	7	Sololá	701	Sololá	3	Barraneche	8	Agosto	2023-11-08T00:00:00	2024-11-06T01:00:00	5	Humedad	54
42637	7	Sololá	701	Sololá	3	Barraneche	8	Agosto	2023-11-08T00:00:00	2024-11-06T01:00:00	6	Velocidad del viento	6.4
42638	7	Sololá	701	Sololá	3	Barraneche	8	Agosto	2023-11-08T00:00:00	2024-11-06T01:00:00	7	Dirección del viento	6.44
42639	7	Sololá	701	Sololá	3	Barraneche	8	Agosto	2023-11-08T00:00:00	2024-11-06T01:00:00	1	Precipitación	0
42640	7	Sololá	701	Sololá	3	Barraneche	8	Agosto	2023-11-08T00:00:00	2024-11-06T01:00:00	8	Radiación solar	0
42641	7	Sololá	701	Sololá	3	Barraneche	8	Agosto	2023-11-08T00:00:00	2024-11-06T02:00:00	2	Temperatura media	15.4
42642	7	Sololá	701	Sololá	3	Barraneche	8	Agosto	2023-11-08T00:00:00	2024-11-06T02:00:00	4	Temperatura máxima	16.1
42643	7	Sololá	701	Sololá	3	Barraneche	8	Agosto	2023-11-08T00:00:00	2024-11-06T02:00:00	3	Temperatura mínima	15.4
42644	7	Sololá	701	Sololá	3	Barraneche	8	Agosto	2023-11-08T00:00:00	2024-11-06T02:00:00	5	Humedad	51
42645	7	Sololá	701	Sololá	3	Barraneche	8	Agosto	2023-11-08T00:00:00	2024-11-06T02:00:00	6	Velocidad del viento	3.2
42646	7	Sololá	701	Sololá	3	Barraneche	8	Agosto	2023-11-08T00:00:00	2024-11-06T02:00:00	7	Dirección del viento	3.22
42647	7	Sololá	701	Sololá	3	Barraneche	8	Agosto	2023-11-08T00:00:00	2024-11-06T02:00:00	1	Precipitación	0
42648	7	Sololá	701	Sololá	3	Barraneche	8	Agosto	2023-11-08T00:00:00	2024-11-06T02:00:00	8	Radiación solar	0
42649	7	Sololá	701	Sololá	3	Barraneche	8	Agosto	2023-11-08T00:00:00	2024-11-06T03:00:00	2	Temperatura media	14.2
42650	7	Sololá	701	Sololá	3	Barraneche	8	Agosto	2023-11-08T00:00:00	2024-11-06T03:00:00	4	Temperatura máxima	15.4
42651	7	Sololá	701	Sololá	3	Barraneche	8	Agosto	2023-11-08T00:00:00	2024-11-06T03:00:00	3	Temperatura mínima	14.2
42652	7	Sololá	701	Sololá	3	Barraneche	8	Agosto	2023-11-08T00:00:00	2024-11-06T03:00:00	5	Humedad	54
42653	7	Sololá	701	Sololá	3	Barraneche	8	Agosto	2023-11-08T00:00:00	2024-11-06T03:00:00	6	Velocidad del viento	3.2
42654	7	Sololá	701	Sololá	3	Barraneche	8	Agosto	2023-11-08T00:00:00	2024-11-06T03:00:00	7	Dirección del viento	3.22
42655	7	Sololá	701	Sololá	3	Barraneche	8	Agosto	2023-11-08T00:00:00	2024-11-06T03:00:00	1	Precipitación	0
42656	7	Sololá	701	Sololá	3	Barraneche	8	Agosto	2023-11-08T00:00:00	2024-11-06T03:00:00	8	Radiación solar	0
42657	7	Sololá	701	Sololá	3	Barraneche	8	Agosto	2023-11-08T00:00:00	2024-11-06T04:00:00	2	Temperatura media	12.9
42658	7	Sololá	701	Sololá	3	Barraneche	8	Agosto	2023-11-08T00:00:00	2024-11-06T04:00:00	4	Temperatura máxima	15.1
42659	7	Sololá	701	Sololá	3	Barraneche	8	Agosto	2023-11-08T00:00:00	2024-11-06T04:00:00	3	Temperatura mínima	12.9
42660	7	Sololá	701	Sololá	3	Barraneche	8	Agosto	2023-11-08T00:00:00	2024-11-06T04:00:00	5	Humedad	60
42661	7	Sololá	701	Sololá	3	Barraneche	8	Agosto	2023-11-08T00:00:00	2024-11-06T04:00:00	6	Velocidad del viento	3.2
42662	7	Sololá	701	Sololá	3	Barraneche	8	Agosto	2023-11-08T00:00:00	2024-11-06T04:00:00	7	Dirección del viento	3.22
42663	7	Sololá	701	Sololá	3	Barraneche	8	Agosto	2023-11-08T00:00:00	2024-11-06T04:00:00	1	Precipitación	0
42664	7	Sololá	701	Sololá	3	Barraneche	8	Agosto	2023-11-08T00:00:00	2024-11-06T04:00:00	8	Radiación solar	0
42665	7	Sololá	701	Sololá	3	Barraneche	8	Agosto	2023-11-08T00:00:00	2024-11-06T05:00:00	2	Temperatura media	12.7
42666	7	Sololá	701	Sololá	3	Barraneche	8	Agosto	2023-11-08T00:00:00	2024-11-06T05:00:00	4	Temperatura máxima	12.9
42667	7	Sololá	701	Sololá	3	Barraneche	8	Agosto	2023-11-08T00:00:00	2024-11-06T05:00:00	3	Temperatura mínima	11.6
42668	7	Sololá	701	Sololá	3	Barraneche	8	Agosto	2023-11-08T00:00:00	2024-11-06T05:00:00	5	Humedad	56
42669	7	Sololá	701	Sololá	3	Barraneche	8	Agosto	2023-11-08T00:00:00	2024-11-06T05:00:00	6	Velocidad del viento	4.8
42670	7	Sololá	701	Sololá	3	Barraneche	8	Agosto	2023-11-08T00:00:00	2024-11-06T05:00:00	7	Dirección del viento	4.83
42671	7	Sololá	701	Sololá	3	Barraneche	8	Agosto	2023-11-08T00:00:00	2024-11-06T05:00:00	1	Precipitación	0
42672	7	Sololá	701	Sololá	3	Barraneche	8	Agosto	2023-11-08T00:00:00	2024-11-06T05:00:00	8	Radiación solar	0
42673	7	Sololá	701	Sololá	3	Barraneche	8	Agosto	2023-11-08T00:00:00	2024-11-06T06:00:00	2	Temperatura media	13.6
42674	7	Sololá	701	Sololá	3	Barraneche	8	Agosto	2023-11-08T00:00:00	2024-11-06T06:00:00	4	Temperatura máxima	13.6
42675	7	Sololá	701	Sololá	3	Barraneche	8	Agosto	2023-11-08T00:00:00	2024-11-06T06:00:00	3	Temperatura mínima	12.7
42676	7	Sololá	701	Sololá	3	Barraneche	8	Agosto	2023-11-08T00:00:00	2024-11-06T06:00:00	5	Humedad	51
42677	7	Sololá	701	Sololá	3	Barraneche	8	Agosto	2023-11-08T00:00:00	2024-11-06T06:00:00	6	Velocidad del viento	3.2
42678	7	Sololá	701	Sololá	3	Barraneche	8	Agosto	2023-11-08T00:00:00	2024-11-06T06:00:00	7	Dirección del viento	3.22
42679	7	Sololá	701	Sololá	3	Barraneche	8	Agosto	2023-11-08T00:00:00	2024-11-06T06:00:00	1	Precipitación	0
42680	7	Sololá	701	Sololá	3	Barraneche	8	Agosto	2023-11-08T00:00:00	2024-11-06T06:00:00	8	Radiación solar	1
42681	7	Sololá	701	Sololá	3	Barraneche	8	Agosto	2023-11-08T00:00:00	2024-11-06T07:00:00	2	Temperatura media	13.6
42682	7	Sololá	701	Sololá	3	Barraneche	8	Agosto	2023-11-08T00:00:00	2024-11-06T07:00:00	4	Temperatura máxima	13.7
42683	7	Sololá	701	Sololá	3	Barraneche	8	Agosto	2023-11-08T00:00:00	2024-11-06T07:00:00	3	Temperatura mínima	12.3
42684	7	Sololá	701	Sololá	3	Barraneche	8	Agosto	2023-11-08T00:00:00	2024-11-06T07:00:00	5	Humedad	57
42685	7	Sololá	701	Sololá	3	Barraneche	8	Agosto	2023-11-08T00:00:00	2024-11-06T07:00:00	6	Velocidad del viento	1.6
42686	7	Sololá	701	Sololá	3	Barraneche	8	Agosto	2023-11-08T00:00:00	2024-11-06T07:00:00	7	Dirección del viento	1.61
42687	7	Sololá	701	Sololá	3	Barraneche	8	Agosto	2023-11-08T00:00:00	2024-11-06T07:00:00	1	Precipitación	0
42688	7	Sololá	701	Sololá	3	Barraneche	8	Agosto	2023-11-08T00:00:00	2024-11-06T07:00:00	8	Radiación solar	58
42689	7	Sololá	701	Sololá	3	Barraneche	8	Agosto	2023-11-08T00:00:00	2024-11-06T08:00:00	2	Temperatura media	18.3
42690	7	Sololá	701	Sololá	3	Barraneche	8	Agosto	2023-11-08T00:00:00	2024-11-06T08:00:00	4	Temperatura máxima	18.3
42691	7	Sololá	701	Sololá	3	Barraneche	8	Agosto	2023-11-08T00:00:00	2024-11-06T08:00:00	3	Temperatura mínima	13.6
42692	7	Sololá	701	Sololá	3	Barraneche	8	Agosto	2023-11-08T00:00:00	2024-11-06T08:00:00	5	Humedad	49
42693	7	Sololá	701	Sololá	3	Barraneche	8	Agosto	2023-11-08T00:00:00	2024-11-06T08:00:00	6	Velocidad del viento	1.6
42694	7	Sololá	701	Sololá	3	Barraneche	8	Agosto	2023-11-08T00:00:00	2024-11-06T08:00:00	7	Dirección del viento	1.61
42695	7	Sololá	701	Sololá	3	Barraneche	8	Agosto	2023-11-08T00:00:00	2024-11-06T08:00:00	1	Precipitación	0
42696	7	Sololá	701	Sololá	3	Barraneche	8	Agosto	2023-11-08T00:00:00	2024-11-06T08:00:00	8	Radiación solar	344
42697	7	Sololá	701	Sololá	3	Barraneche	8	Agosto	2023-11-08T00:00:00	2024-11-06T09:00:00	2	Temperatura media	19.7
42698	7	Sololá	701	Sololá	3	Barraneche	8	Agosto	2023-11-08T00:00:00	2024-11-06T09:00:00	4	Temperatura máxima	19.7
42699	7	Sololá	701	Sololá	3	Barraneche	8	Agosto	2023-11-08T00:00:00	2024-11-06T09:00:00	3	Temperatura mínima	18.3
42700	7	Sololá	701	Sololá	3	Barraneche	8	Agosto	2023-11-08T00:00:00	2024-11-06T09:00:00	5	Humedad	40
42701	7	Sololá	701	Sololá	3	Barraneche	8	Agosto	2023-11-08T00:00:00	2024-11-06T09:00:00	6	Velocidad del viento	8
42702	7	Sololá	701	Sololá	3	Barraneche	8	Agosto	2023-11-08T00:00:00	2024-11-06T09:00:00	7	Dirección del viento	8.05
42703	7	Sololá	701	Sololá	3	Barraneche	8	Agosto	2023-11-08T00:00:00	2024-11-06T09:00:00	1	Precipitación	0
42704	7	Sololá	701	Sololá	3	Barraneche	8	Agosto	2023-11-08T00:00:00	2024-11-06T09:00:00	8	Radiación solar	513
42705	7	Sololá	701	Sololá	3	Barraneche	8	Agosto	2023-11-08T00:00:00	2024-11-06T10:00:00	2	Temperatura media	20.3
42706	7	Sololá	701	Sololá	3	Barraneche	8	Agosto	2023-11-08T00:00:00	2024-11-06T10:00:00	4	Temperatura máxima	20.4
42707	7	Sololá	701	Sololá	3	Barraneche	8	Agosto	2023-11-08T00:00:00	2024-11-06T10:00:00	3	Temperatura mínima	19.7
42708	7	Sololá	701	Sololá	3	Barraneche	8	Agosto	2023-11-08T00:00:00	2024-11-06T10:00:00	5	Humedad	45
42709	7	Sololá	701	Sololá	3	Barraneche	8	Agosto	2023-11-08T00:00:00	2024-11-06T10:00:00	6	Velocidad del viento	9.7
42710	7	Sololá	701	Sololá	3	Barraneche	8	Agosto	2023-11-08T00:00:00	2024-11-06T10:00:00	7	Dirección del viento	9.66
42711	7	Sololá	701	Sololá	3	Barraneche	8	Agosto	2023-11-08T00:00:00	2024-11-06T10:00:00	1	Precipitación	0
42712	7	Sololá	701	Sololá	3	Barraneche	8	Agosto	2023-11-08T00:00:00	2024-11-06T10:00:00	8	Radiación solar	602
42713	7	Sololá	701	Sololá	3	Barraneche	8	Agosto	2023-11-08T00:00:00	2024-11-06T11:00:00	2	Temperatura media	20.9
42714	7	Sololá	701	Sololá	3	Barraneche	8	Agosto	2023-11-08T00:00:00	2024-11-06T11:00:00	4	Temperatura máxima	20.9
42715	7	Sololá	701	Sololá	3	Barraneche	8	Agosto	2023-11-08T00:00:00	2024-11-06T11:00:00	3	Temperatura mínima	20.3
42716	7	Sololá	701	Sololá	3	Barraneche	8	Agosto	2023-11-08T00:00:00	2024-11-06T11:00:00	5	Humedad	43
42717	7	Sololá	701	Sololá	3	Barraneche	8	Agosto	2023-11-08T00:00:00	2024-11-06T11:00:00	6	Velocidad del viento	8
42718	7	Sololá	701	Sololá	3	Barraneche	8	Agosto	2023-11-08T00:00:00	2024-11-06T11:00:00	7	Dirección del viento	8.05
42719	7	Sololá	701	Sololá	3	Barraneche	8	Agosto	2023-11-08T00:00:00	2024-11-06T11:00:00	1	Precipitación	0
42720	7	Sololá	701	Sololá	3	Barraneche	8	Agosto	2023-11-08T00:00:00	2024-11-06T11:00:00	8	Radiación solar	713
42721	7	Sololá	701	Sololá	3	Barraneche	8	Agosto	2023-11-08T00:00:00	2024-11-06T12:00:00	2	Temperatura media	20.6
42722	7	Sololá	701	Sololá	3	Barraneche	8	Agosto	2023-11-08T00:00:00	2024-11-06T12:00:00	4	Temperatura máxima	21.8
42723	7	Sololá	701	Sololá	3	Barraneche	8	Agosto	2023-11-08T00:00:00	2024-11-06T12:00:00	3	Temperatura mínima	20.6
42724	7	Sololá	701	Sololá	3	Barraneche	8	Agosto	2023-11-08T00:00:00	2024-11-06T12:00:00	5	Humedad	41
42725	7	Sololá	701	Sololá	3	Barraneche	8	Agosto	2023-11-08T00:00:00	2024-11-06T12:00:00	6	Velocidad del viento	8
42726	7	Sololá	701	Sololá	3	Barraneche	8	Agosto	2023-11-08T00:00:00	2024-11-06T12:00:00	7	Dirección del viento	8.05
42727	7	Sololá	701	Sololá	3	Barraneche	8	Agosto	2023-11-08T00:00:00	2024-11-06T12:00:00	1	Precipitación	0
42728	7	Sololá	701	Sololá	3	Barraneche	8	Agosto	2023-11-08T00:00:00	2024-11-06T12:00:00	8	Radiación solar	855
42729	7	Sololá	701	Sololá	3	Barraneche	8	Agosto	2023-11-08T00:00:00	2024-11-06T13:00:00	2	Temperatura media	20.3
42730	7	Sololá	701	Sololá	3	Barraneche	8	Agosto	2023-11-08T00:00:00	2024-11-06T13:00:00	4	Temperatura máxima	20.6
42731	7	Sololá	701	Sololá	3	Barraneche	8	Agosto	2023-11-08T00:00:00	2024-11-06T13:00:00	3	Temperatura mínima	19.3
42732	7	Sololá	701	Sololá	3	Barraneche	8	Agosto	2023-11-08T00:00:00	2024-11-06T13:00:00	5	Humedad	48
42733	7	Sololá	701	Sololá	3	Barraneche	8	Agosto	2023-11-08T00:00:00	2024-11-06T13:00:00	6	Velocidad del viento	16.1
42734	7	Sololá	701	Sololá	3	Barraneche	8	Agosto	2023-11-08T00:00:00	2024-11-06T13:00:00	7	Dirección del viento	16.09
42735	7	Sololá	701	Sololá	3	Barraneche	8	Agosto	2023-11-08T00:00:00	2024-11-06T13:00:00	1	Precipitación	0
42736	7	Sololá	701	Sololá	3	Barraneche	8	Agosto	2023-11-08T00:00:00	2024-11-06T13:00:00	8	Radiación solar	778
42737	7	Sololá	701	Sololá	3	Barraneche	8	Agosto	2023-11-08T00:00:00	2024-11-06T14:00:00	2	Temperatura media	19.8
42738	7	Sololá	701	Sololá	3	Barraneche	8	Agosto	2023-11-08T00:00:00	2024-11-06T14:00:00	4	Temperatura máxima	20.6
42739	7	Sololá	701	Sololá	3	Barraneche	8	Agosto	2023-11-08T00:00:00	2024-11-06T14:00:00	3	Temperatura mínima	19.3
42740	7	Sololá	701	Sololá	3	Barraneche	8	Agosto	2023-11-08T00:00:00	2024-11-06T14:00:00	5	Humedad	57
42741	7	Sololá	701	Sololá	3	Barraneche	8	Agosto	2023-11-08T00:00:00	2024-11-06T14:00:00	6	Velocidad del viento	16.1
42742	7	Sololá	701	Sololá	3	Barraneche	8	Agosto	2023-11-08T00:00:00	2024-11-06T14:00:00	7	Dirección del viento	16.09
42743	7	Sololá	701	Sololá	3	Barraneche	8	Agosto	2023-11-08T00:00:00	2024-11-06T14:00:00	1	Precipitación	0
42744	7	Sololá	701	Sololá	3	Barraneche	8	Agosto	2023-11-08T00:00:00	2024-11-06T14:00:00	8	Radiación solar	829
42745	7	Sololá	701	Sololá	3	Barraneche	8	Agosto	2023-11-08T00:00:00	2024-11-06T15:00:00	2	Temperatura media	19.5
42746	7	Sololá	701	Sololá	3	Barraneche	8	Agosto	2023-11-08T00:00:00	2024-11-06T15:00:00	4	Temperatura máxima	20.6
42747	7	Sololá	701	Sololá	3	Barraneche	8	Agosto	2023-11-08T00:00:00	2024-11-06T15:00:00	3	Temperatura mínima	19.4
42748	7	Sololá	701	Sololá	3	Barraneche	8	Agosto	2023-11-08T00:00:00	2024-11-06T15:00:00	5	Humedad	62
42749	7	Sololá	701	Sololá	3	Barraneche	8	Agosto	2023-11-08T00:00:00	2024-11-06T15:00:00	6	Velocidad del viento	14.5
42750	7	Sololá	701	Sololá	3	Barraneche	8	Agosto	2023-11-08T00:00:00	2024-11-06T15:00:00	7	Dirección del viento	14.48
42751	7	Sololá	701	Sololá	3	Barraneche	8	Agosto	2023-11-08T00:00:00	2024-11-06T15:00:00	1	Precipitación	0
42752	7	Sololá	701	Sololá	3	Barraneche	8	Agosto	2023-11-08T00:00:00	2024-11-06T15:00:00	8	Radiación solar	616
42753	7	Sololá	701	Sololá	3	Barraneche	8	Agosto	2023-11-08T00:00:00	2024-11-06T16:00:00	2	Temperatura media	18.6
42754	7	Sololá	701	Sololá	3	Barraneche	8	Agosto	2023-11-08T00:00:00	2024-11-06T16:00:00	4	Temperatura máxima	19.7
42755	7	Sololá	701	Sololá	3	Barraneche	8	Agosto	2023-11-08T00:00:00	2024-11-06T16:00:00	3	Temperatura mínima	18.6
42756	7	Sololá	701	Sololá	3	Barraneche	8	Agosto	2023-11-08T00:00:00	2024-11-06T16:00:00	5	Humedad	67
42757	7	Sololá	701	Sololá	3	Barraneche	8	Agosto	2023-11-08T00:00:00	2024-11-06T16:00:00	6	Velocidad del viento	12.9
42758	7	Sololá	701	Sololá	3	Barraneche	8	Agosto	2023-11-08T00:00:00	2024-11-06T16:00:00	7	Dirección del viento	12.87
42759	7	Sololá	701	Sololá	3	Barraneche	8	Agosto	2023-11-08T00:00:00	2024-11-06T16:00:00	1	Precipitación	0
42760	7	Sololá	701	Sololá	3	Barraneche	8	Agosto	2023-11-08T00:00:00	2024-11-06T16:00:00	8	Radiación solar	441
42761	7	Sololá	701	Sololá	3	Barraneche	8	Agosto	2023-11-08T00:00:00	2024-11-06T17:00:00	2	Temperatura media	19.2
42762	7	Sololá	701	Sololá	3	Barraneche	8	Agosto	2023-11-08T00:00:00	2024-11-06T17:00:00	4	Temperatura máxima	19.3
42763	7	Sololá	701	Sololá	3	Barraneche	8	Agosto	2023-11-08T00:00:00	2024-11-06T17:00:00	3	Temperatura mínima	18.4
42764	7	Sololá	701	Sololá	3	Barraneche	8	Agosto	2023-11-08T00:00:00	2024-11-06T17:00:00	5	Humedad	58
42765	7	Sololá	701	Sololá	3	Barraneche	8	Agosto	2023-11-08T00:00:00	2024-11-06T17:00:00	6	Velocidad del viento	6.4
42766	7	Sololá	701	Sololá	3	Barraneche	8	Agosto	2023-11-08T00:00:00	2024-11-06T17:00:00	7	Dirección del viento	6.44
42767	7	Sololá	701	Sololá	3	Barraneche	8	Agosto	2023-11-08T00:00:00	2024-11-06T17:00:00	1	Precipitación	0
42768	7	Sololá	701	Sololá	3	Barraneche	8	Agosto	2023-11-08T00:00:00	2024-11-06T17:00:00	8	Radiación solar	228
42769	7	Sololá	701	Sololá	3	Barraneche	8	Agosto	2023-11-08T00:00:00	2024-11-06T18:00:00	2	Temperatura media	18.1
42770	7	Sololá	701	Sololá	3	Barraneche	8	Agosto	2023-11-08T00:00:00	2024-11-06T18:00:00	4	Temperatura máxima	19.2
42771	7	Sololá	701	Sololá	3	Barraneche	8	Agosto	2023-11-08T00:00:00	2024-11-06T18:00:00	3	Temperatura mínima	18.1
42772	7	Sololá	701	Sololá	3	Barraneche	8	Agosto	2023-11-08T00:00:00	2024-11-06T18:00:00	5	Humedad	60
42773	7	Sololá	701	Sololá	3	Barraneche	8	Agosto	2023-11-08T00:00:00	2024-11-06T18:00:00	6	Velocidad del viento	9.7
42774	7	Sololá	701	Sololá	3	Barraneche	8	Agosto	2023-11-08T00:00:00	2024-11-06T18:00:00	7	Dirección del viento	9.66
42775	7	Sololá	701	Sololá	3	Barraneche	8	Agosto	2023-11-08T00:00:00	2024-11-06T18:00:00	1	Precipitación	0
42776	7	Sololá	701	Sololá	3	Barraneche	8	Agosto	2023-11-08T00:00:00	2024-11-06T18:00:00	8	Radiación solar	68
42777	7	Sololá	701	Sololá	3	Barraneche	8	Agosto	2023-11-08T00:00:00	2024-11-06T19:00:00	2	Temperatura media	17.7
42778	7	Sololá	701	Sololá	3	Barraneche	8	Agosto	2023-11-08T00:00:00	2024-11-06T19:00:00	4	Temperatura máxima	18
42779	7	Sololá	701	Sololá	3	Barraneche	8	Agosto	2023-11-08T00:00:00	2024-11-06T19:00:00	3	Temperatura mínima	17.4
42780	7	Sololá	701	Sololá	3	Barraneche	8	Agosto	2023-11-08T00:00:00	2024-11-06T19:00:00	5	Humedad	62
42781	7	Sololá	701	Sololá	3	Barraneche	8	Agosto	2023-11-08T00:00:00	2024-11-06T19:00:00	6	Velocidad del viento	11.3
42782	7	Sololá	701	Sololá	3	Barraneche	8	Agosto	2023-11-08T00:00:00	2024-11-06T19:00:00	7	Dirección del viento	11.27
42783	7	Sololá	701	Sololá	3	Barraneche	8	Agosto	2023-11-08T00:00:00	2024-11-06T19:00:00	1	Precipitación	0
42784	7	Sololá	701	Sololá	3	Barraneche	8	Agosto	2023-11-08T00:00:00	2024-11-06T19:00:00	8	Radiación solar	0
42785	7	Sololá	701	Sololá	3	Barraneche	8	Agosto	2023-11-08T00:00:00	2024-11-06T20:00:00	2	Temperatura media	17.3
42786	7	Sololá	701	Sololá	3	Barraneche	8	Agosto	2023-11-08T00:00:00	2024-11-06T20:00:00	4	Temperatura máxima	17.7
42787	7	Sololá	701	Sololá	3	Barraneche	8	Agosto	2023-11-08T00:00:00	2024-11-06T20:00:00	3	Temperatura mínima	17.3
42788	7	Sololá	701	Sololá	3	Barraneche	8	Agosto	2023-11-08T00:00:00	2024-11-06T20:00:00	5	Humedad	61
42789	7	Sololá	701	Sololá	3	Barraneche	8	Agosto	2023-11-08T00:00:00	2024-11-06T20:00:00	6	Velocidad del viento	16.1
42790	7	Sololá	701	Sololá	3	Barraneche	8	Agosto	2023-11-08T00:00:00	2024-11-06T20:00:00	7	Dirección del viento	16.09
42791	7	Sololá	701	Sololá	3	Barraneche	8	Agosto	2023-11-08T00:00:00	2024-11-06T20:00:00	1	Precipitación	0
42792	7	Sololá	701	Sololá	3	Barraneche	8	Agosto	2023-11-08T00:00:00	2024-11-06T20:00:00	8	Radiación solar	0
42793	7	Sololá	701	Sololá	3	Barraneche	8	Agosto	2023-11-08T00:00:00	2024-11-06T21:00:00	2	Temperatura media	16.6
42794	7	Sololá	701	Sololá	3	Barraneche	8	Agosto	2023-11-08T00:00:00	2024-11-06T21:00:00	4	Temperatura máxima	17.3
42795	7	Sololá	701	Sololá	3	Barraneche	8	Agosto	2023-11-08T00:00:00	2024-11-06T21:00:00	3	Temperatura mínima	16.5
42796	7	Sololá	701	Sololá	3	Barraneche	8	Agosto	2023-11-08T00:00:00	2024-11-06T21:00:00	5	Humedad	62
42797	7	Sololá	701	Sololá	3	Barraneche	8	Agosto	2023-11-08T00:00:00	2024-11-06T21:00:00	6	Velocidad del viento	11.3
42798	7	Sololá	701	Sololá	3	Barraneche	8	Agosto	2023-11-08T00:00:00	2024-11-06T21:00:00	7	Dirección del viento	11.27
42799	7	Sololá	701	Sololá	3	Barraneche	8	Agosto	2023-11-08T00:00:00	2024-11-06T21:00:00	1	Precipitación	0
42800	7	Sololá	701	Sololá	3	Barraneche	8	Agosto	2023-11-08T00:00:00	2024-11-06T21:00:00	8	Radiación solar	0
42801	7	Sololá	701	Sololá	3	Barraneche	8	Agosto	2023-11-08T00:00:00	2024-11-06T22:00:00	2	Temperatura media	16
42802	7	Sololá	701	Sololá	3	Barraneche	8	Agosto	2023-11-08T00:00:00	2024-11-06T22:00:00	4	Temperatura máxima	16.6
42803	7	Sololá	701	Sololá	3	Barraneche	8	Agosto	2023-11-08T00:00:00	2024-11-06T22:00:00	3	Temperatura mínima	15.9
42804	7	Sololá	701	Sololá	3	Barraneche	8	Agosto	2023-11-08T00:00:00	2024-11-06T22:00:00	5	Humedad	64
42805	7	Sololá	701	Sololá	3	Barraneche	8	Agosto	2023-11-08T00:00:00	2024-11-06T22:00:00	6	Velocidad del viento	6.4
42806	7	Sololá	701	Sololá	3	Barraneche	8	Agosto	2023-11-08T00:00:00	2024-11-06T22:00:00	7	Dirección del viento	6.44
42807	7	Sololá	701	Sololá	3	Barraneche	8	Agosto	2023-11-08T00:00:00	2024-11-06T22:00:00	1	Precipitación	0
42808	7	Sololá	701	Sololá	3	Barraneche	8	Agosto	2023-11-08T00:00:00	2024-11-06T22:00:00	8	Radiación solar	0
42809	7	Sololá	701	Sololá	3	Barraneche	8	Agosto	2023-11-08T00:00:00	2024-11-06T23:00:00	2	Temperatura media	15.7
42810	7	Sololá	701	Sololá	3	Barraneche	8	Agosto	2023-11-08T00:00:00	2024-11-06T23:00:00	4	Temperatura máxima	16
42811	7	Sololá	701	Sololá	3	Barraneche	8	Agosto	2023-11-08T00:00:00	2024-11-06T23:00:00	3	Temperatura mínima	15.7
42812	7	Sololá	701	Sololá	3	Barraneche	8	Agosto	2023-11-08T00:00:00	2024-11-06T23:00:00	5	Humedad	64
42813	7	Sololá	701	Sololá	3	Barraneche	8	Agosto	2023-11-08T00:00:00	2024-11-06T23:00:00	6	Velocidad del viento	6.4
42814	7	Sololá	701	Sololá	3	Barraneche	8	Agosto	2023-11-08T00:00:00	2024-11-06T23:00:00	7	Dirección del viento	6.44
42815	7	Sololá	701	Sololá	3	Barraneche	8	Agosto	2023-11-08T00:00:00	2024-11-06T23:00:00	1	Precipitación	0
42816	7	Sololá	701	Sololá	3	Barraneche	8	Agosto	2023-11-08T00:00:00	2024-11-06T23:00:00	8	Radiación solar	0
42817	7	Sololá	701	Sololá	3	Barraneche	8	Agosto	2023-12-08T00:00:00	2024-11-06T00:00:00	2	Temperatura media	15.5
42818	7	Sololá	701	Sololá	3	Barraneche	8	Agosto	2023-12-08T00:00:00	2024-11-06T00:00:00	4	Temperatura máxima	15.7
42819	7	Sololá	701	Sololá	3	Barraneche	8	Agosto	2023-12-08T00:00:00	2024-11-06T00:00:00	3	Temperatura mínima	15.3
42820	7	Sololá	701	Sololá	3	Barraneche	8	Agosto	2023-12-08T00:00:00	2024-11-06T00:00:00	5	Humedad	64
42821	7	Sololá	701	Sololá	3	Barraneche	8	Agosto	2023-12-08T00:00:00	2024-11-06T00:00:00	6	Velocidad del viento	9.7
42822	7	Sololá	701	Sololá	3	Barraneche	8	Agosto	2023-12-08T00:00:00	2024-11-06T00:00:00	7	Dirección del viento	9.66
42823	7	Sololá	701	Sololá	3	Barraneche	8	Agosto	2023-12-08T00:00:00	2024-11-06T00:00:00	1	Precipitación	0
42824	7	Sololá	701	Sololá	3	Barraneche	8	Agosto	2023-12-08T00:00:00	2024-11-06T00:00:00	8	Radiación solar	0
42825	7	Sololá	701	Sololá	3	Barraneche	8	Agosto	2023-12-08T00:00:00	2024-11-06T01:00:00	2	Temperatura media	14.6
42826	7	Sololá	701	Sololá	3	Barraneche	8	Agosto	2023-12-08T00:00:00	2024-11-06T01:00:00	4	Temperatura máxima	15.6
42827	7	Sololá	701	Sololá	3	Barraneche	8	Agosto	2023-12-08T00:00:00	2024-11-06T01:00:00	3	Temperatura mínima	14.5
42828	7	Sololá	701	Sololá	3	Barraneche	8	Agosto	2023-12-08T00:00:00	2024-11-06T01:00:00	5	Humedad	65
42829	7	Sololá	701	Sololá	3	Barraneche	8	Agosto	2023-12-08T00:00:00	2024-11-06T01:00:00	6	Velocidad del viento	8
42830	7	Sololá	701	Sololá	3	Barraneche	8	Agosto	2023-12-08T00:00:00	2024-11-06T01:00:00	7	Dirección del viento	8.05
42831	7	Sololá	701	Sololá	3	Barraneche	8	Agosto	2023-12-08T00:00:00	2024-11-06T01:00:00	1	Precipitación	0
42832	7	Sololá	701	Sololá	3	Barraneche	8	Agosto	2023-12-08T00:00:00	2024-11-06T01:00:00	8	Radiación solar	0
42833	7	Sololá	701	Sololá	3	Barraneche	8	Agosto	2023-12-08T00:00:00	2024-11-06T02:00:00	2	Temperatura media	14.8
42834	7	Sololá	701	Sololá	3	Barraneche	8	Agosto	2023-12-08T00:00:00	2024-11-06T02:00:00	4	Temperatura máxima	14.8
42835	7	Sololá	701	Sololá	3	Barraneche	8	Agosto	2023-12-08T00:00:00	2024-11-06T02:00:00	3	Temperatura mínima	14.1
42836	7	Sololá	701	Sololá	3	Barraneche	8	Agosto	2023-12-08T00:00:00	2024-11-06T02:00:00	5	Humedad	61
42837	7	Sololá	701	Sololá	3	Barraneche	8	Agosto	2023-12-08T00:00:00	2024-11-06T02:00:00	6	Velocidad del viento	3.2
42838	7	Sololá	701	Sololá	3	Barraneche	8	Agosto	2023-12-08T00:00:00	2024-11-06T02:00:00	7	Dirección del viento	3.22
42839	7	Sololá	701	Sololá	3	Barraneche	8	Agosto	2023-12-08T00:00:00	2024-11-06T02:00:00	1	Precipitación	0
42840	7	Sololá	701	Sololá	3	Barraneche	8	Agosto	2023-12-08T00:00:00	2024-11-06T02:00:00	8	Radiación solar	0
42841	7	Sololá	701	Sololá	3	Barraneche	8	Agosto	2023-12-08T00:00:00	2024-11-06T03:00:00	2	Temperatura media	15.4
42842	7	Sololá	701	Sololá	3	Barraneche	8	Agosto	2023-12-08T00:00:00	2024-11-06T03:00:00	4	Temperatura máxima	15.4
42843	7	Sololá	701	Sololá	3	Barraneche	8	Agosto	2023-12-08T00:00:00	2024-11-06T03:00:00	3	Temperatura mínima	14.3
42844	7	Sololá	701	Sololá	3	Barraneche	8	Agosto	2023-12-08T00:00:00	2024-11-06T03:00:00	5	Humedad	57
42845	7	Sololá	701	Sololá	3	Barraneche	8	Agosto	2023-12-08T00:00:00	2024-11-06T03:00:00	6	Velocidad del viento	4.8
42846	7	Sololá	701	Sololá	3	Barraneche	8	Agosto	2023-12-08T00:00:00	2024-11-06T03:00:00	7	Dirección del viento	4.83
42847	7	Sololá	701	Sololá	3	Barraneche	8	Agosto	2023-12-08T00:00:00	2024-11-06T03:00:00	1	Precipitación	0
42848	7	Sololá	701	Sololá	3	Barraneche	8	Agosto	2023-12-08T00:00:00	2024-11-06T03:00:00	8	Radiación solar	0
42849	7	Sololá	701	Sololá	3	Barraneche	8	Agosto	2023-12-08T00:00:00	2024-11-06T04:00:00	2	Temperatura media	12.7
42850	7	Sololá	701	Sololá	3	Barraneche	8	Agosto	2023-12-08T00:00:00	2024-11-06T04:00:00	4	Temperatura máxima	15.4
42851	7	Sololá	701	Sololá	3	Barraneche	8	Agosto	2023-12-08T00:00:00	2024-11-06T04:00:00	3	Temperatura mínima	12.6
42852	7	Sololá	701	Sololá	3	Barraneche	8	Agosto	2023-12-08T00:00:00	2024-11-06T04:00:00	5	Humedad	69
42853	7	Sololá	701	Sololá	3	Barraneche	8	Agosto	2023-12-08T00:00:00	2024-11-06T04:00:00	6	Velocidad del viento	3.2
42854	7	Sololá	701	Sololá	3	Barraneche	8	Agosto	2023-12-08T00:00:00	2024-11-06T04:00:00	7	Dirección del viento	3.22
42855	7	Sololá	701	Sololá	3	Barraneche	8	Agosto	2023-12-08T00:00:00	2024-11-06T04:00:00	1	Precipitación	0
42856	7	Sololá	701	Sololá	3	Barraneche	8	Agosto	2023-12-08T00:00:00	2024-11-06T04:00:00	8	Radiación solar	0
42857	7	Sololá	701	Sololá	3	Barraneche	8	Agosto	2023-12-08T00:00:00	2024-11-06T05:00:00	2	Temperatura media	12.3
42858	7	Sololá	701	Sololá	3	Barraneche	8	Agosto	2023-12-08T00:00:00	2024-11-06T05:00:00	4	Temperatura máxima	12.7
42859	7	Sololá	701	Sololá	3	Barraneche	8	Agosto	2023-12-08T00:00:00	2024-11-06T05:00:00	3	Temperatura mínima	12.3
42860	7	Sololá	701	Sololá	3	Barraneche	8	Agosto	2023-12-08T00:00:00	2024-11-06T05:00:00	5	Humedad	70
42861	7	Sololá	701	Sololá	3	Barraneche	8	Agosto	2023-12-08T00:00:00	2024-11-06T05:00:00	6	Velocidad del viento	1.6
42862	7	Sololá	701	Sololá	3	Barraneche	8	Agosto	2023-12-08T00:00:00	2024-11-06T05:00:00	7	Dirección del viento	1.61
42863	7	Sololá	701	Sololá	3	Barraneche	8	Agosto	2023-12-08T00:00:00	2024-11-06T05:00:00	1	Precipitación	0
42864	7	Sololá	701	Sololá	3	Barraneche	8	Agosto	2023-12-08T00:00:00	2024-11-06T05:00:00	8	Radiación solar	0
42865	7	Sololá	701	Sololá	3	Barraneche	8	Agosto	2023-12-08T00:00:00	2024-11-06T06:00:00	2	Temperatura media	14.9
42866	7	Sololá	701	Sololá	3	Barraneche	8	Agosto	2023-12-08T00:00:00	2024-11-06T06:00:00	4	Temperatura máxima	14.9
42867	7	Sololá	701	Sololá	3	Barraneche	8	Agosto	2023-12-08T00:00:00	2024-11-06T06:00:00	3	Temperatura mínima	12.3
42868	7	Sololá	701	Sololá	3	Barraneche	8	Agosto	2023-12-08T00:00:00	2024-11-06T06:00:00	5	Humedad	62
42869	7	Sololá	701	Sololá	3	Barraneche	8	Agosto	2023-12-08T00:00:00	2024-11-06T06:00:00	6	Velocidad del viento	9.7
42870	7	Sololá	701	Sololá	3	Barraneche	8	Agosto	2023-12-08T00:00:00	2024-11-06T06:00:00	7	Dirección del viento	9.66
42871	7	Sololá	701	Sololá	3	Barraneche	8	Agosto	2023-12-08T00:00:00	2024-11-06T06:00:00	1	Precipitación	0
42872	7	Sololá	701	Sololá	3	Barraneche	8	Agosto	2023-12-08T00:00:00	2024-11-06T06:00:00	8	Radiación solar	2
42873	7	Sololá	701	Sololá	3	Barraneche	8	Agosto	2023-12-08T00:00:00	2024-11-06T07:00:00	2	Temperatura media	15.5
42874	7	Sololá	701	Sololá	3	Barraneche	8	Agosto	2023-12-08T00:00:00	2024-11-06T07:00:00	4	Temperatura máxima	15.5
42875	7	Sololá	701	Sololá	3	Barraneche	8	Agosto	2023-12-08T00:00:00	2024-11-06T07:00:00	3	Temperatura mínima	14.8
42876	7	Sololá	701	Sololá	3	Barraneche	8	Agosto	2023-12-08T00:00:00	2024-11-06T07:00:00	5	Humedad	60
42877	7	Sololá	701	Sololá	3	Barraneche	8	Agosto	2023-12-08T00:00:00	2024-11-06T07:00:00	6	Velocidad del viento	9.7
42878	7	Sololá	701	Sololá	3	Barraneche	8	Agosto	2023-12-08T00:00:00	2024-11-06T07:00:00	7	Dirección del viento	9.66
42879	7	Sololá	701	Sololá	3	Barraneche	8	Agosto	2023-12-08T00:00:00	2024-11-06T07:00:00	1	Precipitación	0
42880	7	Sololá	701	Sololá	3	Barraneche	8	Agosto	2023-12-08T00:00:00	2024-11-06T07:00:00	8	Radiación solar	56
42881	7	Sololá	701	Sololá	3	Barraneche	8	Agosto	2023-12-08T00:00:00	2024-11-06T08:00:00	2	Temperatura media	16
42882	7	Sololá	701	Sololá	3	Barraneche	8	Agosto	2023-12-08T00:00:00	2024-11-06T08:00:00	4	Temperatura máxima	16
42883	7	Sololá	701	Sololá	3	Barraneche	8	Agosto	2023-12-08T00:00:00	2024-11-06T08:00:00	3	Temperatura mínima	15.4
42884	7	Sololá	701	Sololá	3	Barraneche	8	Agosto	2023-12-08T00:00:00	2024-11-06T08:00:00	5	Humedad	60
42885	7	Sololá	701	Sololá	3	Barraneche	8	Agosto	2023-12-08T00:00:00	2024-11-06T08:00:00	6	Velocidad del viento	3.2
42886	7	Sololá	701	Sololá	3	Barraneche	8	Agosto	2023-12-08T00:00:00	2024-11-06T08:00:00	7	Dirección del viento	3.22
42887	7	Sololá	701	Sololá	3	Barraneche	8	Agosto	2023-12-08T00:00:00	2024-11-06T08:00:00	1	Precipitación	0
42888	7	Sololá	701	Sololá	3	Barraneche	8	Agosto	2023-12-08T00:00:00	2024-11-06T08:00:00	8	Radiación solar	181
42889	7	Sololá	701	Sololá	3	Barraneche	8	Agosto	2023-12-08T00:00:00	2024-11-06T09:00:00	2	Temperatura media	19.1
42890	7	Sololá	701	Sololá	3	Barraneche	8	Agosto	2023-12-08T00:00:00	2024-11-06T09:00:00	4	Temperatura máxima	19.1
42891	7	Sololá	701	Sololá	3	Barraneche	8	Agosto	2023-12-08T00:00:00	2024-11-06T09:00:00	3	Temperatura mínima	15.9
42892	7	Sololá	701	Sololá	3	Barraneche	8	Agosto	2023-12-08T00:00:00	2024-11-06T09:00:00	5	Humedad	51
42893	7	Sololá	701	Sololá	3	Barraneche	8	Agosto	2023-12-08T00:00:00	2024-11-06T09:00:00	6	Velocidad del viento	3.2
42894	7	Sololá	701	Sololá	3	Barraneche	8	Agosto	2023-12-08T00:00:00	2024-11-06T09:00:00	7	Dirección del viento	3.22
42895	7	Sololá	701	Sololá	3	Barraneche	8	Agosto	2023-12-08T00:00:00	2024-11-06T09:00:00	1	Precipitación	0
42896	7	Sololá	701	Sololá	3	Barraneche	8	Agosto	2023-12-08T00:00:00	2024-11-06T09:00:00	8	Radiación solar	510
42897	7	Sololá	701	Sololá	3	Barraneche	8	Agosto	2023-12-08T00:00:00	2024-11-06T10:00:00	2	Temperatura media	20.9
42898	7	Sololá	701	Sololá	3	Barraneche	8	Agosto	2023-12-08T00:00:00	2024-11-06T10:00:00	4	Temperatura máxima	20.9
42899	7	Sololá	701	Sololá	3	Barraneche	8	Agosto	2023-12-08T00:00:00	2024-11-06T10:00:00	3	Temperatura mínima	19.1
42900	7	Sololá	701	Sololá	3	Barraneche	8	Agosto	2023-12-08T00:00:00	2024-11-06T10:00:00	5	Humedad	49
42901	7	Sololá	701	Sololá	3	Barraneche	8	Agosto	2023-12-08T00:00:00	2024-11-06T10:00:00	6	Velocidad del viento	4.8
42902	7	Sololá	701	Sololá	3	Barraneche	8	Agosto	2023-12-08T00:00:00	2024-11-06T10:00:00	7	Dirección del viento	4.83
42903	7	Sololá	701	Sololá	3	Barraneche	8	Agosto	2023-12-08T00:00:00	2024-11-06T10:00:00	1	Precipitación	0
42904	7	Sololá	701	Sololá	3	Barraneche	8	Agosto	2023-12-08T00:00:00	2024-11-06T10:00:00	8	Radiación solar	760
42905	7	Sololá	701	Sololá	3	Barraneche	8	Agosto	2023-12-08T00:00:00	2024-11-06T11:00:00	2	Temperatura media	21.9
42906	7	Sololá	701	Sololá	3	Barraneche	8	Agosto	2023-12-08T00:00:00	2024-11-06T11:00:00	4	Temperatura máxima	22
42907	7	Sololá	701	Sololá	3	Barraneche	8	Agosto	2023-12-08T00:00:00	2024-11-06T11:00:00	3	Temperatura mínima	20.4
42908	7	Sololá	701	Sololá	3	Barraneche	8	Agosto	2023-12-08T00:00:00	2024-11-06T11:00:00	5	Humedad	42
42909	7	Sololá	701	Sololá	3	Barraneche	8	Agosto	2023-12-08T00:00:00	2024-11-06T11:00:00	6	Velocidad del viento	11.3
42910	7	Sololá	701	Sololá	3	Barraneche	8	Agosto	2023-12-08T00:00:00	2024-11-06T11:00:00	7	Dirección del viento	11.27
42911	7	Sololá	701	Sololá	3	Barraneche	8	Agosto	2023-12-08T00:00:00	2024-11-06T11:00:00	1	Precipitación	0
42912	7	Sololá	701	Sololá	3	Barraneche	8	Agosto	2023-12-08T00:00:00	2024-11-06T11:00:00	8	Radiación solar	879
42913	7	Sololá	701	Sololá	3	Barraneche	8	Agosto	2023-12-08T00:00:00	2024-11-06T12:00:00	2	Temperatura media	21.3
42914	7	Sololá	701	Sololá	3	Barraneche	8	Agosto	2023-12-08T00:00:00	2024-11-06T12:00:00	4	Temperatura máxima	22.6
42915	7	Sololá	701	Sololá	3	Barraneche	8	Agosto	2023-12-08T00:00:00	2024-11-06T12:00:00	3	Temperatura mínima	21.3
42916	7	Sololá	701	Sololá	3	Barraneche	8	Agosto	2023-12-08T00:00:00	2024-11-06T12:00:00	5	Humedad	49
42917	7	Sololá	701	Sololá	3	Barraneche	8	Agosto	2023-12-08T00:00:00	2024-11-06T12:00:00	6	Velocidad del viento	14.5
42918	7	Sololá	701	Sololá	3	Barraneche	8	Agosto	2023-12-08T00:00:00	2024-11-06T12:00:00	7	Dirección del viento	14.48
42919	7	Sololá	701	Sololá	3	Barraneche	8	Agosto	2023-12-08T00:00:00	2024-11-06T12:00:00	1	Precipitación	0
42920	7	Sololá	701	Sololá	3	Barraneche	8	Agosto	2023-12-08T00:00:00	2024-11-06T12:00:00	8	Radiación solar	1055
42921	7	Sololá	701	Sololá	3	Barraneche	8	Agosto	2023-12-08T00:00:00	2024-11-06T13:00:00	2	Temperatura media	21.9
42922	7	Sololá	701	Sololá	3	Barraneche	8	Agosto	2023-12-08T00:00:00	2024-11-06T13:00:00	4	Temperatura máxima	22.2
42923	7	Sololá	701	Sololá	3	Barraneche	8	Agosto	2023-12-08T00:00:00	2024-11-06T13:00:00	3	Temperatura mínima	21.1
42924	7	Sololá	701	Sololá	3	Barraneche	8	Agosto	2023-12-08T00:00:00	2024-11-06T13:00:00	5	Humedad	47
42925	7	Sololá	701	Sololá	3	Barraneche	8	Agosto	2023-12-08T00:00:00	2024-11-06T13:00:00	6	Velocidad del viento	14.5
42926	7	Sololá	701	Sololá	3	Barraneche	8	Agosto	2023-12-08T00:00:00	2024-11-06T13:00:00	7	Dirección del viento	14.48
42927	7	Sololá	701	Sololá	3	Barraneche	8	Agosto	2023-12-08T00:00:00	2024-11-06T13:00:00	1	Precipitación	0
42928	7	Sololá	701	Sololá	3	Barraneche	8	Agosto	2023-12-08T00:00:00	2024-11-06T13:00:00	8	Radiación solar	1072
42929	7	Sololá	701	Sololá	3	Barraneche	8	Agosto	2023-12-08T00:00:00	2024-11-06T14:00:00	2	Temperatura media	20.8
42930	7	Sololá	701	Sololá	3	Barraneche	8	Agosto	2023-12-08T00:00:00	2024-11-06T14:00:00	4	Temperatura máxima	21.8
42931	7	Sololá	701	Sololá	3	Barraneche	8	Agosto	2023-12-08T00:00:00	2024-11-06T14:00:00	3	Temperatura mínima	20.8
42932	7	Sololá	701	Sololá	3	Barraneche	8	Agosto	2023-12-08T00:00:00	2024-11-06T14:00:00	5	Humedad	50
42933	7	Sololá	701	Sololá	3	Barraneche	8	Agosto	2023-12-08T00:00:00	2024-11-06T14:00:00	6	Velocidad del viento	11.3
42934	7	Sololá	701	Sololá	3	Barraneche	8	Agosto	2023-12-08T00:00:00	2024-11-06T14:00:00	7	Dirección del viento	11.27
42935	7	Sololá	701	Sololá	3	Barraneche	8	Agosto	2023-12-08T00:00:00	2024-11-06T14:00:00	1	Precipitación	0
42936	7	Sololá	701	Sololá	3	Barraneche	8	Agosto	2023-12-08T00:00:00	2024-11-06T14:00:00	8	Radiación solar	663
42937	7	Sololá	701	Sololá	3	Barraneche	8	Agosto	2023-12-08T00:00:00	2024-11-06T15:00:00	2	Temperatura media	19.9
42938	7	Sololá	701	Sololá	3	Barraneche	8	Agosto	2023-12-08T00:00:00	2024-11-06T15:00:00	4	Temperatura máxima	20.8
42939	7	Sololá	701	Sololá	3	Barraneche	8	Agosto	2023-12-08T00:00:00	2024-11-06T15:00:00	3	Temperatura mínima	19.9
42940	7	Sololá	701	Sololá	3	Barraneche	8	Agosto	2023-12-08T00:00:00	2024-11-06T15:00:00	5	Humedad	53
42941	7	Sololá	701	Sololá	3	Barraneche	8	Agosto	2023-12-08T00:00:00	2024-11-06T15:00:00	6	Velocidad del viento	11.3
42942	7	Sololá	701	Sololá	3	Barraneche	8	Agosto	2023-12-08T00:00:00	2024-11-06T15:00:00	7	Dirección del viento	11.27
42943	7	Sololá	701	Sololá	3	Barraneche	8	Agosto	2023-12-08T00:00:00	2024-11-06T15:00:00	1	Precipitación	0
42944	7	Sololá	701	Sololá	3	Barraneche	8	Agosto	2023-12-08T00:00:00	2024-11-06T15:00:00	8	Radiación solar	488
42945	7	Sololá	701	Sololá	3	Barraneche	8	Agosto	2023-12-08T00:00:00	2024-11-06T16:00:00	2	Temperatura media	20.8
42946	7	Sololá	701	Sololá	3	Barraneche	8	Agosto	2023-12-08T00:00:00	2024-11-06T16:00:00	4	Temperatura máxima	20.8
42947	7	Sololá	701	Sololá	3	Barraneche	8	Agosto	2023-12-08T00:00:00	2024-11-06T16:00:00	3	Temperatura mínima	19.9
42948	7	Sololá	701	Sololá	3	Barraneche	8	Agosto	2023-12-08T00:00:00	2024-11-06T16:00:00	5	Humedad	47
42949	7	Sololá	701	Sololá	3	Barraneche	8	Agosto	2023-12-08T00:00:00	2024-11-06T16:00:00	6	Velocidad del viento	12.9
42950	7	Sololá	701	Sololá	3	Barraneche	8	Agosto	2023-12-08T00:00:00	2024-11-06T16:00:00	7	Dirección del viento	12.87
42951	7	Sololá	701	Sololá	3	Barraneche	8	Agosto	2023-12-08T00:00:00	2024-11-06T16:00:00	1	Precipitación	0
42952	7	Sololá	701	Sololá	3	Barraneche	8	Agosto	2023-12-08T00:00:00	2024-11-06T16:00:00	8	Radiación solar	583
42953	7	Sololá	701	Sololá	3	Barraneche	8	Agosto	2023-12-08T00:00:00	2024-11-06T17:00:00	2	Temperatura media	20.3
42954	7	Sololá	701	Sololá	3	Barraneche	8	Agosto	2023-12-08T00:00:00	2024-11-06T17:00:00	4	Temperatura máxima	20.9
42955	7	Sololá	701	Sololá	3	Barraneche	8	Agosto	2023-12-08T00:00:00	2024-11-06T17:00:00	3	Temperatura mínima	20.2
42956	7	Sololá	701	Sololá	3	Barraneche	8	Agosto	2023-12-08T00:00:00	2024-11-06T17:00:00	5	Humedad	50
42957	7	Sololá	701	Sololá	3	Barraneche	8	Agosto	2023-12-08T00:00:00	2024-11-06T17:00:00	6	Velocidad del viento	11.3
42958	7	Sololá	701	Sololá	3	Barraneche	8	Agosto	2023-12-08T00:00:00	2024-11-06T17:00:00	7	Dirección del viento	11.27
42959	7	Sololá	701	Sololá	3	Barraneche	8	Agosto	2023-12-08T00:00:00	2024-11-06T17:00:00	1	Precipitación	0
42960	7	Sololá	701	Sololá	3	Barraneche	8	Agosto	2023-12-08T00:00:00	2024-11-06T17:00:00	8	Radiación solar	363
42961	7	Sololá	701	Sololá	3	Barraneche	8	Agosto	2023-12-08T00:00:00	2024-11-06T18:00:00	2	Temperatura media	18.2
42962	7	Sololá	701	Sololá	3	Barraneche	8	Agosto	2023-12-08T00:00:00	2024-11-06T18:00:00	4	Temperatura máxima	20.3
42963	7	Sololá	701	Sololá	3	Barraneche	8	Agosto	2023-12-08T00:00:00	2024-11-06T18:00:00	3	Temperatura mínima	18.1
42964	7	Sololá	701	Sololá	3	Barraneche	8	Agosto	2023-12-08T00:00:00	2024-11-06T18:00:00	5	Humedad	62
42965	7	Sololá	701	Sololá	3	Barraneche	8	Agosto	2023-12-08T00:00:00	2024-11-06T18:00:00	6	Velocidad del viento	11.3
42966	7	Sololá	701	Sololá	3	Barraneche	8	Agosto	2023-12-08T00:00:00	2024-11-06T18:00:00	7	Dirección del viento	11.27
42967	7	Sololá	701	Sololá	3	Barraneche	8	Agosto	2023-12-08T00:00:00	2024-11-06T18:00:00	1	Precipitación	0
42968	7	Sololá	701	Sololá	3	Barraneche	8	Agosto	2023-12-08T00:00:00	2024-11-06T18:00:00	8	Radiación solar	73
42969	7	Sololá	701	Sololá	3	Barraneche	8	Agosto	2023-12-08T00:00:00	2024-11-06T19:00:00	2	Temperatura media	16.7
42970	7	Sololá	701	Sololá	3	Barraneche	8	Agosto	2023-12-08T00:00:00	2024-11-06T19:00:00	4	Temperatura máxima	18.2
42971	7	Sololá	701	Sololá	3	Barraneche	8	Agosto	2023-12-08T00:00:00	2024-11-06T19:00:00	3	Temperatura mínima	16.7
42972	7	Sololá	701	Sololá	3	Barraneche	8	Agosto	2023-12-08T00:00:00	2024-11-06T19:00:00	5	Humedad	66
42973	7	Sololá	701	Sololá	3	Barraneche	8	Agosto	2023-12-08T00:00:00	2024-11-06T19:00:00	6	Velocidad del viento	11.3
42974	7	Sololá	701	Sololá	3	Barraneche	8	Agosto	2023-12-08T00:00:00	2024-11-06T19:00:00	7	Dirección del viento	11.27
42975	7	Sololá	701	Sololá	3	Barraneche	8	Agosto	2023-12-08T00:00:00	2024-11-06T19:00:00	1	Precipitación	0
42976	7	Sololá	701	Sololá	3	Barraneche	8	Agosto	2023-12-08T00:00:00	2024-11-06T19:00:00	8	Radiación solar	0
42977	7	Sololá	701	Sololá	3	Barraneche	8	Agosto	2023-12-08T00:00:00	2024-11-06T20:00:00	2	Temperatura media	15.8
42978	7	Sololá	701	Sololá	3	Barraneche	8	Agosto	2023-12-08T00:00:00	2024-11-06T20:00:00	4	Temperatura máxima	16.9
42979	7	Sololá	701	Sololá	3	Barraneche	8	Agosto	2023-12-08T00:00:00	2024-11-06T20:00:00	3	Temperatura mínima	15.8
42980	7	Sololá	701	Sololá	3	Barraneche	8	Agosto	2023-12-08T00:00:00	2024-11-06T20:00:00	5	Humedad	70
42981	7	Sololá	701	Sololá	3	Barraneche	8	Agosto	2023-12-08T00:00:00	2024-11-06T20:00:00	6	Velocidad del viento	9.7
42982	7	Sololá	701	Sololá	3	Barraneche	8	Agosto	2023-12-08T00:00:00	2024-11-06T20:00:00	7	Dirección del viento	9.66
42983	7	Sololá	701	Sololá	3	Barraneche	8	Agosto	2023-12-08T00:00:00	2024-11-06T20:00:00	1	Precipitación	0.8
42984	7	Sololá	701	Sololá	3	Barraneche	8	Agosto	2023-12-08T00:00:00	2024-11-06T20:00:00	8	Radiación solar	0
42985	7	Sololá	701	Sololá	3	Barraneche	8	Agosto	2023-12-08T00:00:00	2024-11-06T21:00:00	2	Temperatura media	14.9
42986	7	Sololá	701	Sololá	3	Barraneche	8	Agosto	2023-12-08T00:00:00	2024-11-06T21:00:00	4	Temperatura máxima	15.8
42987	7	Sololá	701	Sololá	3	Barraneche	8	Agosto	2023-12-08T00:00:00	2024-11-06T21:00:00	3	Temperatura mínima	14.9
42988	7	Sololá	701	Sololá	3	Barraneche	8	Agosto	2023-12-08T00:00:00	2024-11-06T21:00:00	5	Humedad	68
42989	7	Sololá	701	Sololá	3	Barraneche	8	Agosto	2023-12-08T00:00:00	2024-11-06T21:00:00	6	Velocidad del viento	14.5
42990	7	Sololá	701	Sololá	3	Barraneche	8	Agosto	2023-12-08T00:00:00	2024-11-06T21:00:00	7	Dirección del viento	14.48
42991	7	Sololá	701	Sololá	3	Barraneche	8	Agosto	2023-12-08T00:00:00	2024-11-06T21:00:00	1	Precipitación	0.4
42992	7	Sololá	701	Sololá	3	Barraneche	8	Agosto	2023-12-08T00:00:00	2024-11-06T21:00:00	8	Radiación solar	0
42993	7	Sololá	701	Sololá	3	Barraneche	8	Agosto	2023-12-08T00:00:00	2024-11-06T22:00:00	2	Temperatura media	14.8
42994	7	Sololá	701	Sololá	3	Barraneche	8	Agosto	2023-12-08T00:00:00	2024-11-06T22:00:00	4	Temperatura máxima	14.9
42995	7	Sololá	701	Sololá	3	Barraneche	8	Agosto	2023-12-08T00:00:00	2024-11-06T22:00:00	3	Temperatura mínima	14.6
42996	7	Sololá	701	Sololá	3	Barraneche	8	Agosto	2023-12-08T00:00:00	2024-11-06T22:00:00	5	Humedad	68
42997	7	Sololá	701	Sololá	3	Barraneche	8	Agosto	2023-12-08T00:00:00	2024-11-06T22:00:00	6	Velocidad del viento	19.3
42998	7	Sololá	701	Sololá	3	Barraneche	8	Agosto	2023-12-08T00:00:00	2024-11-06T22:00:00	7	Dirección del viento	19.31
42999	7	Sololá	701	Sololá	3	Barraneche	8	Agosto	2023-12-08T00:00:00	2024-11-06T22:00:00	1	Precipitación	0
43000	7	Sololá	701	Sololá	3	Barraneche	8	Agosto	2023-12-08T00:00:00	2024-11-06T22:00:00	8	Radiación solar	0
43001	7	Sololá	701	Sololá	3	Barraneche	8	Agosto	2023-12-08T00:00:00	2024-11-06T23:00:00	2	Temperatura media	14.8
43002	7	Sololá	701	Sololá	3	Barraneche	8	Agosto	2023-12-08T00:00:00	2024-11-06T23:00:00	4	Temperatura máxima	15.2
43003	7	Sololá	701	Sololá	3	Barraneche	8	Agosto	2023-12-08T00:00:00	2024-11-06T23:00:00	3	Temperatura mínima	14.8
43004	7	Sololá	701	Sololá	3	Barraneche	8	Agosto	2023-12-08T00:00:00	2024-11-06T23:00:00	5	Humedad	64
43005	7	Sololá	701	Sololá	3	Barraneche	8	Agosto	2023-12-08T00:00:00	2024-11-06T23:00:00	6	Velocidad del viento	9.7
43006	7	Sololá	701	Sololá	3	Barraneche	8	Agosto	2023-12-08T00:00:00	2024-11-06T23:00:00	7	Dirección del viento	9.66
43007	7	Sololá	701	Sololá	3	Barraneche	8	Agosto	2023-12-08T00:00:00	2024-11-06T23:00:00	1	Precipitación	0
43008	7	Sololá	701	Sololá	3	Barraneche	8	Agosto	2023-12-08T00:00:00	2024-11-06T23:00:00	8	Radiación solar	0
43009	7	Sololá	701	Sololá	3	Barraneche	8	Agosto	2023-08-13T00:00:00	2024-11-06T00:00:00	2	Temperatura media	14
43010	7	Sololá	701	Sololá	3	Barraneche	8	Agosto	2023-08-13T00:00:00	2024-11-06T00:00:00	4	Temperatura máxima	14.7
43011	7	Sololá	701	Sololá	3	Barraneche	8	Agosto	2023-08-13T00:00:00	2024-11-06T00:00:00	3	Temperatura mínima	13.9
43012	7	Sololá	701	Sololá	3	Barraneche	8	Agosto	2023-08-13T00:00:00	2024-11-06T00:00:00	5	Humedad	62
43013	7	Sololá	701	Sololá	3	Barraneche	8	Agosto	2023-08-13T00:00:00	2024-11-06T00:00:00	6	Velocidad del viento	14.5
43014	7	Sololá	701	Sololá	3	Barraneche	8	Agosto	2023-08-13T00:00:00	2024-11-06T00:00:00	7	Dirección del viento	14.48
43015	7	Sololá	701	Sololá	3	Barraneche	8	Agosto	2023-08-13T00:00:00	2024-11-06T00:00:00	1	Precipitación	0
43016	7	Sololá	701	Sololá	3	Barraneche	8	Agosto	2023-08-13T00:00:00	2024-11-06T00:00:00	8	Radiación solar	0
43017	7	Sololá	701	Sololá	3	Barraneche	8	Agosto	2023-08-13T00:00:00	2024-11-06T01:00:00	2	Temperatura media	13.9
43018	7	Sololá	701	Sololá	3	Barraneche	8	Agosto	2023-08-13T00:00:00	2024-11-06T01:00:00	4	Temperatura máxima	14
43019	7	Sololá	701	Sololá	3	Barraneche	8	Agosto	2023-08-13T00:00:00	2024-11-06T01:00:00	3	Temperatura mínima	13.5
43020	7	Sololá	701	Sololá	3	Barraneche	8	Agosto	2023-08-13T00:00:00	2024-11-06T01:00:00	5	Humedad	53
43021	7	Sololá	701	Sololá	3	Barraneche	8	Agosto	2023-08-13T00:00:00	2024-11-06T01:00:00	6	Velocidad del viento	8
43022	7	Sololá	701	Sololá	3	Barraneche	8	Agosto	2023-08-13T00:00:00	2024-11-06T01:00:00	7	Dirección del viento	8.05
43023	7	Sololá	701	Sololá	3	Barraneche	8	Agosto	2023-08-13T00:00:00	2024-11-06T01:00:00	1	Precipitación	0
43024	7	Sololá	701	Sololá	3	Barraneche	8	Agosto	2023-08-13T00:00:00	2024-11-06T01:00:00	8	Radiación solar	0
43025	7	Sololá	701	Sololá	3	Barraneche	8	Agosto	2023-08-13T00:00:00	2024-11-06T02:00:00	2	Temperatura media	14
43026	7	Sololá	701	Sololá	3	Barraneche	8	Agosto	2023-08-13T00:00:00	2024-11-06T02:00:00	4	Temperatura máxima	14.2
43027	7	Sololá	701	Sololá	3	Barraneche	8	Agosto	2023-08-13T00:00:00	2024-11-06T02:00:00	3	Temperatura mínima	13.7
43028	7	Sololá	701	Sololá	3	Barraneche	8	Agosto	2023-08-13T00:00:00	2024-11-06T02:00:00	5	Humedad	52
43029	7	Sololá	701	Sololá	3	Barraneche	8	Agosto	2023-08-13T00:00:00	2024-11-06T02:00:00	6	Velocidad del viento	17.7
43030	7	Sololá	701	Sololá	3	Barraneche	8	Agosto	2023-08-13T00:00:00	2024-11-06T02:00:00	7	Dirección del viento	17.7
43031	7	Sololá	701	Sololá	3	Barraneche	8	Agosto	2023-08-13T00:00:00	2024-11-06T02:00:00	1	Precipitación	0
43032	7	Sololá	701	Sololá	3	Barraneche	8	Agosto	2023-08-13T00:00:00	2024-11-06T02:00:00	8	Radiación solar	0
43033	7	Sololá	701	Sololá	3	Barraneche	8	Agosto	2023-08-13T00:00:00	2024-11-06T03:00:00	2	Temperatura media	13.7
43034	7	Sololá	701	Sololá	3	Barraneche	8	Agosto	2023-08-13T00:00:00	2024-11-06T03:00:00	4	Temperatura máxima	14.2
43035	7	Sololá	701	Sololá	3	Barraneche	8	Agosto	2023-08-13T00:00:00	2024-11-06T03:00:00	3	Temperatura mínima	13.7
43036	7	Sololá	701	Sololá	3	Barraneche	8	Agosto	2023-08-13T00:00:00	2024-11-06T03:00:00	5	Humedad	57
43037	7	Sololá	701	Sololá	3	Barraneche	8	Agosto	2023-08-13T00:00:00	2024-11-06T03:00:00	6	Velocidad del viento	19.3
43038	7	Sololá	701	Sololá	3	Barraneche	8	Agosto	2023-08-13T00:00:00	2024-11-06T03:00:00	7	Dirección del viento	19.31
43039	7	Sololá	701	Sololá	3	Barraneche	8	Agosto	2023-08-13T00:00:00	2024-11-06T03:00:00	1	Precipitación	0
43040	7	Sololá	701	Sololá	3	Barraneche	8	Agosto	2023-08-13T00:00:00	2024-11-06T03:00:00	8	Radiación solar	0
43041	7	Sololá	701	Sololá	3	Barraneche	8	Agosto	2023-08-13T00:00:00	2024-11-06T04:00:00	2	Temperatura media	15.4
43042	7	Sololá	701	Sololá	3	Barraneche	8	Agosto	2023-08-13T00:00:00	2024-11-06T04:00:00	4	Temperatura máxima	15.4
43043	7	Sololá	701	Sololá	3	Barraneche	8	Agosto	2023-08-13T00:00:00	2024-11-06T04:00:00	3	Temperatura mínima	13.7
43044	7	Sololá	701	Sololá	3	Barraneche	8	Agosto	2023-08-13T00:00:00	2024-11-06T04:00:00	5	Humedad	56
43045	7	Sololá	701	Sololá	3	Barraneche	8	Agosto	2023-08-13T00:00:00	2024-11-06T04:00:00	6	Velocidad del viento	20.9
43046	7	Sololá	701	Sololá	3	Barraneche	8	Agosto	2023-08-13T00:00:00	2024-11-06T04:00:00	7	Dirección del viento	20.92
43047	7	Sololá	701	Sololá	3	Barraneche	8	Agosto	2023-08-13T00:00:00	2024-11-06T04:00:00	1	Precipitación	0
43048	7	Sololá	701	Sololá	3	Barraneche	8	Agosto	2023-08-13T00:00:00	2024-11-06T04:00:00	8	Radiación solar	0
43049	7	Sololá	701	Sololá	3	Barraneche	8	Agosto	2023-08-13T00:00:00	2024-11-06T05:00:00	2	Temperatura media	14.6
43050	7	Sololá	701	Sololá	3	Barraneche	8	Agosto	2023-08-13T00:00:00	2024-11-06T05:00:00	4	Temperatura máxima	15.8
43051	7	Sololá	701	Sololá	3	Barraneche	8	Agosto	2023-08-13T00:00:00	2024-11-06T05:00:00	3	Temperatura mínima	14.6
43052	7	Sololá	701	Sololá	3	Barraneche	8	Agosto	2023-08-13T00:00:00	2024-11-06T05:00:00	5	Humedad	62
43053	7	Sololá	701	Sololá	3	Barraneche	8	Agosto	2023-08-13T00:00:00	2024-11-06T05:00:00	6	Velocidad del viento	12.9
43054	7	Sololá	701	Sololá	3	Barraneche	8	Agosto	2023-08-13T00:00:00	2024-11-06T05:00:00	7	Dirección del viento	12.87
43055	7	Sololá	701	Sololá	3	Barraneche	8	Agosto	2023-08-13T00:00:00	2024-11-06T05:00:00	1	Precipitación	0
43056	7	Sololá	701	Sololá	3	Barraneche	8	Agosto	2023-08-13T00:00:00	2024-11-06T05:00:00	8	Radiación solar	0
43057	7	Sololá	701	Sololá	3	Barraneche	8	Agosto	2023-08-13T00:00:00	2024-11-06T06:00:00	2	Temperatura media	15.3
43058	7	Sololá	701	Sololá	3	Barraneche	8	Agosto	2023-08-13T00:00:00	2024-11-06T06:00:00	4	Temperatura máxima	15.3
43059	7	Sololá	701	Sololá	3	Barraneche	8	Agosto	2023-08-13T00:00:00	2024-11-06T06:00:00	3	Temperatura mínima	14.2
43060	7	Sololá	701	Sololá	3	Barraneche	8	Agosto	2023-08-13T00:00:00	2024-11-06T06:00:00	5	Humedad	60
43061	7	Sololá	701	Sololá	3	Barraneche	8	Agosto	2023-08-13T00:00:00	2024-11-06T06:00:00	6	Velocidad del viento	16.1
43062	7	Sololá	701	Sololá	3	Barraneche	8	Agosto	2023-08-13T00:00:00	2024-11-06T06:00:00	7	Dirección del viento	16.09
43063	7	Sololá	701	Sololá	3	Barraneche	8	Agosto	2023-08-13T00:00:00	2024-11-06T06:00:00	1	Precipitación	0
43064	7	Sololá	701	Sololá	3	Barraneche	8	Agosto	2023-08-13T00:00:00	2024-11-06T06:00:00	8	Radiación solar	0
43065	7	Sololá	701	Sololá	3	Barraneche	8	Agosto	2023-08-13T00:00:00	2024-11-06T07:00:00	2	Temperatura media	15.2
43066	7	Sololá	701	Sololá	3	Barraneche	8	Agosto	2023-08-13T00:00:00	2024-11-06T07:00:00	4	Temperatura máxima	15.6
43067	7	Sololá	701	Sololá	3	Barraneche	8	Agosto	2023-08-13T00:00:00	2024-11-06T07:00:00	3	Temperatura mínima	14.9
43068	7	Sololá	701	Sololá	3	Barraneche	8	Agosto	2023-08-13T00:00:00	2024-11-06T07:00:00	5	Humedad	63
43069	7	Sololá	701	Sololá	3	Barraneche	8	Agosto	2023-08-13T00:00:00	2024-11-06T07:00:00	6	Velocidad del viento	20.9
43070	7	Sololá	701	Sololá	3	Barraneche	8	Agosto	2023-08-13T00:00:00	2024-11-06T07:00:00	7	Dirección del viento	20.92
43071	7	Sololá	701	Sololá	3	Barraneche	8	Agosto	2023-08-13T00:00:00	2024-11-06T07:00:00	1	Precipitación	0
43072	7	Sololá	701	Sololá	3	Barraneche	8	Agosto	2023-08-13T00:00:00	2024-11-06T07:00:00	8	Radiación solar	47
43073	7	Sololá	701	Sololá	3	Barraneche	8	Agosto	2023-08-13T00:00:00	2024-11-06T08:00:00	2	Temperatura media	15.9
43074	7	Sololá	701	Sololá	3	Barraneche	8	Agosto	2023-08-13T00:00:00	2024-11-06T08:00:00	4	Temperatura máxima	16
43075	7	Sololá	701	Sololá	3	Barraneche	8	Agosto	2023-08-13T00:00:00	2024-11-06T08:00:00	3	Temperatura mínima	15.2
43076	7	Sololá	701	Sololá	3	Barraneche	8	Agosto	2023-08-13T00:00:00	2024-11-06T08:00:00	5	Humedad	62
43077	7	Sololá	701	Sololá	3	Barraneche	8	Agosto	2023-08-13T00:00:00	2024-11-06T08:00:00	6	Velocidad del viento	22.5
43078	7	Sololá	701	Sololá	3	Barraneche	8	Agosto	2023-08-13T00:00:00	2024-11-06T08:00:00	7	Dirección del viento	22.53
43079	7	Sololá	701	Sololá	3	Barraneche	8	Agosto	2023-08-13T00:00:00	2024-11-06T08:00:00	1	Precipitación	0
43080	7	Sololá	701	Sololá	3	Barraneche	8	Agosto	2023-08-13T00:00:00	2024-11-06T08:00:00	8	Radiación solar	240
43081	7	Sololá	701	Sololá	3	Barraneche	8	Agosto	2023-08-13T00:00:00	2024-11-06T09:00:00	2	Temperatura media	16.9
43082	7	Sololá	701	Sololá	3	Barraneche	8	Agosto	2023-08-13T00:00:00	2024-11-06T09:00:00	4	Temperatura máxima	16.9
43083	7	Sololá	701	Sololá	3	Barraneche	8	Agosto	2023-08-13T00:00:00	2024-11-06T09:00:00	3	Temperatura mínima	15.9
43084	7	Sololá	701	Sololá	3	Barraneche	8	Agosto	2023-08-13T00:00:00	2024-11-06T09:00:00	5	Humedad	61
43085	7	Sololá	701	Sololá	3	Barraneche	8	Agosto	2023-08-13T00:00:00	2024-11-06T09:00:00	6	Velocidad del viento	16.1
43086	7	Sololá	701	Sololá	3	Barraneche	8	Agosto	2023-08-13T00:00:00	2024-11-06T09:00:00	7	Dirección del viento	16.09
43087	7	Sololá	701	Sololá	3	Barraneche	8	Agosto	2023-08-13T00:00:00	2024-11-06T09:00:00	1	Precipitación	0
43088	7	Sololá	701	Sololá	3	Barraneche	8	Agosto	2023-08-13T00:00:00	2024-11-06T09:00:00	8	Radiación solar	564
43089	7	Sololá	701	Sololá	3	Barraneche	8	Agosto	2023-08-13T00:00:00	2024-11-06T10:00:00	2	Temperatura media	17.3
43090	7	Sololá	701	Sololá	3	Barraneche	8	Agosto	2023-08-13T00:00:00	2024-11-06T10:00:00	4	Temperatura máxima	17.7
43091	7	Sololá	701	Sololá	3	Barraneche	8	Agosto	2023-08-13T00:00:00	2024-11-06T10:00:00	3	Temperatura mínima	16.7
43092	7	Sololá	701	Sololá	3	Barraneche	8	Agosto	2023-08-13T00:00:00	2024-11-06T10:00:00	5	Humedad	62
43093	7	Sololá	701	Sololá	3	Barraneche	8	Agosto	2023-08-13T00:00:00	2024-11-06T10:00:00	6	Velocidad del viento	14.5
43094	7	Sololá	701	Sololá	3	Barraneche	8	Agosto	2023-08-13T00:00:00	2024-11-06T10:00:00	7	Dirección del viento	14.48
43095	7	Sololá	701	Sololá	3	Barraneche	8	Agosto	2023-08-13T00:00:00	2024-11-06T10:00:00	1	Precipitación	0
43096	7	Sololá	701	Sololá	3	Barraneche	8	Agosto	2023-08-13T00:00:00	2024-11-06T10:00:00	8	Radiación solar	619
43097	7	Sololá	701	Sololá	3	Barraneche	8	Agosto	2023-08-13T00:00:00	2024-11-06T11:00:00	2	Temperatura media	18.1
43098	7	Sololá	701	Sololá	3	Barraneche	8	Agosto	2023-08-13T00:00:00	2024-11-06T11:00:00	4	Temperatura máxima	18.1
43099	7	Sololá	701	Sololá	3	Barraneche	8	Agosto	2023-08-13T00:00:00	2024-11-06T11:00:00	3	Temperatura mínima	16.9
43100	7	Sololá	701	Sololá	3	Barraneche	8	Agosto	2023-08-13T00:00:00	2024-11-06T11:00:00	5	Humedad	60
43101	7	Sololá	701	Sololá	3	Barraneche	8	Agosto	2023-08-13T00:00:00	2024-11-06T11:00:00	6	Velocidad del viento	9.7
43102	7	Sololá	701	Sololá	3	Barraneche	8	Agosto	2023-08-13T00:00:00	2024-11-06T11:00:00	7	Dirección del viento	9.66
43103	7	Sololá	701	Sololá	3	Barraneche	8	Agosto	2023-08-13T00:00:00	2024-11-06T11:00:00	1	Precipitación	0
43104	7	Sololá	701	Sololá	3	Barraneche	8	Agosto	2023-08-13T00:00:00	2024-11-06T11:00:00	8	Radiación solar	514
43105	7	Sololá	701	Sololá	3	Barraneche	8	Agosto	2023-08-13T00:00:00	2024-11-06T12:00:00	2	Temperatura media	17.7
43106	7	Sololá	701	Sololá	3	Barraneche	8	Agosto	2023-08-13T00:00:00	2024-11-06T12:00:00	4	Temperatura máxima	18.3
43107	7	Sololá	701	Sololá	3	Barraneche	8	Agosto	2023-08-13T00:00:00	2024-11-06T12:00:00	3	Temperatura mínima	17.6
43108	7	Sololá	701	Sololá	3	Barraneche	8	Agosto	2023-08-13T00:00:00	2024-11-06T12:00:00	5	Humedad	59
43109	7	Sololá	701	Sololá	3	Barraneche	8	Agosto	2023-08-13T00:00:00	2024-11-06T12:00:00	6	Velocidad del viento	8
43110	7	Sololá	701	Sololá	3	Barraneche	8	Agosto	2023-08-13T00:00:00	2024-11-06T12:00:00	7	Dirección del viento	8.05
43111	7	Sololá	701	Sololá	3	Barraneche	8	Agosto	2023-08-13T00:00:00	2024-11-06T12:00:00	1	Precipitación	0
43112	7	Sololá	701	Sololá	3	Barraneche	8	Agosto	2023-08-13T00:00:00	2024-11-06T12:00:00	8	Radiación solar	384
43113	7	Sololá	701	Sololá	3	Barraneche	8	Agosto	2023-08-13T00:00:00	2024-11-06T13:00:00	2	Temperatura media	19.2
43114	7	Sololá	701	Sololá	3	Barraneche	8	Agosto	2023-08-13T00:00:00	2024-11-06T13:00:00	4	Temperatura máxima	19.4
43115	7	Sololá	701	Sololá	3	Barraneche	8	Agosto	2023-08-13T00:00:00	2024-11-06T13:00:00	3	Temperatura mínima	17.7
43116	7	Sololá	701	Sololá	3	Barraneche	8	Agosto	2023-08-13T00:00:00	2024-11-06T13:00:00	5	Humedad	53
43117	7	Sololá	701	Sololá	3	Barraneche	8	Agosto	2023-08-13T00:00:00	2024-11-06T13:00:00	6	Velocidad del viento	11.3
43118	7	Sololá	701	Sololá	3	Barraneche	8	Agosto	2023-08-13T00:00:00	2024-11-06T13:00:00	7	Dirección del viento	11.27
43119	7	Sololá	701	Sololá	3	Barraneche	8	Agosto	2023-08-13T00:00:00	2024-11-06T13:00:00	1	Precipitación	0
43120	7	Sololá	701	Sololá	3	Barraneche	8	Agosto	2023-08-13T00:00:00	2024-11-06T13:00:00	8	Radiación solar	510
43121	7	Sololá	701	Sololá	3	Barraneche	8	Agosto	2023-08-13T00:00:00	2024-11-06T14:00:00	2	Temperatura media	19.5
43122	7	Sololá	701	Sololá	3	Barraneche	8	Agosto	2023-08-13T00:00:00	2024-11-06T14:00:00	4	Temperatura máxima	19.9
43123	7	Sololá	701	Sololá	3	Barraneche	8	Agosto	2023-08-13T00:00:00	2024-11-06T14:00:00	3	Temperatura mínima	19.1
43124	7	Sololá	701	Sololá	3	Barraneche	8	Agosto	2023-08-13T00:00:00	2024-11-06T14:00:00	5	Humedad	54
43125	7	Sololá	701	Sololá	3	Barraneche	8	Agosto	2023-08-13T00:00:00	2024-11-06T14:00:00	6	Velocidad del viento	16.1
43126	7	Sololá	701	Sololá	3	Barraneche	8	Agosto	2023-08-13T00:00:00	2024-11-06T14:00:00	7	Dirección del viento	16.09
43127	7	Sololá	701	Sololá	3	Barraneche	8	Agosto	2023-08-13T00:00:00	2024-11-06T14:00:00	1	Precipitación	0
43128	7	Sololá	701	Sololá	3	Barraneche	8	Agosto	2023-08-13T00:00:00	2024-11-06T14:00:00	8	Radiación solar	945
43129	7	Sololá	701	Sololá	3	Barraneche	8	Agosto	2023-08-13T00:00:00	2024-11-06T15:00:00	2	Temperatura media	19.9
43130	7	Sololá	701	Sololá	3	Barraneche	8	Agosto	2023-08-13T00:00:00	2024-11-06T15:00:00	4	Temperatura máxima	20.5
43131	7	Sololá	701	Sololá	3	Barraneche	8	Agosto	2023-08-13T00:00:00	2024-11-06T15:00:00	3	Temperatura mínima	19.4
43132	7	Sololá	701	Sololá	3	Barraneche	8	Agosto	2023-08-13T00:00:00	2024-11-06T15:00:00	5	Humedad	52
43133	7	Sololá	701	Sololá	3	Barraneche	8	Agosto	2023-08-13T00:00:00	2024-11-06T15:00:00	6	Velocidad del viento	12.9
43134	7	Sololá	701	Sololá	3	Barraneche	8	Agosto	2023-08-13T00:00:00	2024-11-06T15:00:00	7	Dirección del viento	12.87
43135	7	Sololá	701	Sololá	3	Barraneche	8	Agosto	2023-08-13T00:00:00	2024-11-06T15:00:00	1	Precipitación	0
43136	7	Sololá	701	Sololá	3	Barraneche	8	Agosto	2023-08-13T00:00:00	2024-11-06T15:00:00	8	Radiación solar	603
43137	7	Sololá	701	Sololá	3	Barraneche	8	Agosto	2023-08-13T00:00:00	2024-11-06T16:00:00	2	Temperatura media	19
43138	7	Sololá	701	Sololá	3	Barraneche	8	Agosto	2023-08-13T00:00:00	2024-11-06T16:00:00	4	Temperatura máxima	20
43139	7	Sololá	701	Sololá	3	Barraneche	8	Agosto	2023-08-13T00:00:00	2024-11-06T16:00:00	3	Temperatura mínima	18.9
43140	7	Sololá	701	Sololá	3	Barraneche	8	Agosto	2023-08-13T00:00:00	2024-11-06T16:00:00	5	Humedad	57
43141	7	Sololá	701	Sololá	3	Barraneche	8	Agosto	2023-08-13T00:00:00	2024-11-06T16:00:00	6	Velocidad del viento	9.7
43142	7	Sololá	701	Sololá	3	Barraneche	8	Agosto	2023-08-13T00:00:00	2024-11-06T16:00:00	7	Dirección del viento	9.66
43143	7	Sololá	701	Sololá	3	Barraneche	8	Agosto	2023-08-13T00:00:00	2024-11-06T16:00:00	1	Precipitación	0
43144	7	Sololá	701	Sololá	3	Barraneche	8	Agosto	2023-08-13T00:00:00	2024-11-06T16:00:00	8	Radiación solar	315
43145	7	Sololá	701	Sololá	3	Barraneche	8	Agosto	2023-08-13T00:00:00	2024-11-06T17:00:00	2	Temperatura media	17.5
43146	7	Sololá	701	Sololá	3	Barraneche	8	Agosto	2023-08-13T00:00:00	2024-11-06T17:00:00	4	Temperatura máxima	19.2
43147	7	Sololá	701	Sololá	3	Barraneche	8	Agosto	2023-08-13T00:00:00	2024-11-06T17:00:00	3	Temperatura mínima	17.5
43148	7	Sololá	701	Sololá	3	Barraneche	8	Agosto	2023-08-13T00:00:00	2024-11-06T17:00:00	5	Humedad	69
43149	7	Sololá	701	Sololá	3	Barraneche	8	Agosto	2023-08-13T00:00:00	2024-11-06T17:00:00	6	Velocidad del viento	8
43150	7	Sololá	701	Sololá	3	Barraneche	8	Agosto	2023-08-13T00:00:00	2024-11-06T17:00:00	7	Dirección del viento	8.05
43151	7	Sololá	701	Sololá	3	Barraneche	8	Agosto	2023-08-13T00:00:00	2024-11-06T17:00:00	1	Precipitación	0
43152	7	Sololá	701	Sololá	3	Barraneche	8	Agosto	2023-08-13T00:00:00	2024-11-06T17:00:00	8	Radiación solar	181
43153	7	Sololá	701	Sololá	3	Barraneche	8	Agosto	2023-08-13T00:00:00	2024-11-06T18:00:00	2	Temperatura media	15.8
43154	7	Sololá	701	Sololá	3	Barraneche	8	Agosto	2023-08-13T00:00:00	2024-11-06T18:00:00	4	Temperatura máxima	17.5
43155	7	Sololá	701	Sololá	3	Barraneche	8	Agosto	2023-08-13T00:00:00	2024-11-06T18:00:00	3	Temperatura mínima	15.7
43156	7	Sololá	701	Sololá	3	Barraneche	8	Agosto	2023-08-13T00:00:00	2024-11-06T18:00:00	5	Humedad	74
43157	7	Sololá	701	Sololá	3	Barraneche	8	Agosto	2023-08-13T00:00:00	2024-11-06T18:00:00	6	Velocidad del viento	8
43158	7	Sololá	701	Sololá	3	Barraneche	8	Agosto	2023-08-13T00:00:00	2024-11-06T18:00:00	7	Dirección del viento	8.05
43159	7	Sololá	701	Sololá	3	Barraneche	8	Agosto	2023-08-13T00:00:00	2024-11-06T18:00:00	1	Precipitación	0
43160	7	Sololá	701	Sololá	3	Barraneche	8	Agosto	2023-08-13T00:00:00	2024-11-06T18:00:00	8	Radiación solar	84
43161	7	Sololá	701	Sololá	3	Barraneche	8	Agosto	2023-08-13T00:00:00	2024-11-06T19:00:00	2	Temperatura media	13.8
43162	7	Sololá	701	Sololá	3	Barraneche	8	Agosto	2023-08-13T00:00:00	2024-11-06T19:00:00	4	Temperatura máxima	15.9
43163	7	Sololá	701	Sololá	3	Barraneche	8	Agosto	2023-08-13T00:00:00	2024-11-06T19:00:00	3	Temperatura mínima	13.8
43164	7	Sololá	701	Sololá	3	Barraneche	8	Agosto	2023-08-13T00:00:00	2024-11-06T19:00:00	5	Humedad	73
43165	7	Sololá	701	Sololá	3	Barraneche	8	Agosto	2023-08-13T00:00:00	2024-11-06T19:00:00	6	Velocidad del viento	8
43166	7	Sololá	701	Sololá	3	Barraneche	8	Agosto	2023-08-13T00:00:00	2024-11-06T19:00:00	7	Dirección del viento	8.05
43167	7	Sololá	701	Sololá	3	Barraneche	8	Agosto	2023-08-13T00:00:00	2024-11-06T19:00:00	1	Precipitación	9.8
43168	7	Sololá	701	Sololá	3	Barraneche	8	Agosto	2023-08-13T00:00:00	2024-11-06T19:00:00	8	Radiación solar	0
43169	7	Sololá	701	Sololá	3	Barraneche	8	Agosto	2023-08-13T00:00:00	2024-11-06T20:00:00	2	Temperatura media	12.7
43170	7	Sololá	701	Sololá	3	Barraneche	8	Agosto	2023-08-13T00:00:00	2024-11-06T20:00:00	4	Temperatura máxima	13.8
43171	7	Sololá	701	Sololá	3	Barraneche	8	Agosto	2023-08-13T00:00:00	2024-11-06T20:00:00	3	Temperatura mínima	12.7
43172	7	Sololá	701	Sololá	3	Barraneche	8	Agosto	2023-08-13T00:00:00	2024-11-06T20:00:00	5	Humedad	71
43173	7	Sololá	701	Sololá	3	Barraneche	8	Agosto	2023-08-13T00:00:00	2024-11-06T20:00:00	6	Velocidad del viento	6.4
43174	7	Sololá	701	Sololá	3	Barraneche	8	Agosto	2023-08-13T00:00:00	2024-11-06T20:00:00	7	Dirección del viento	6.44
43175	7	Sololá	701	Sololá	3	Barraneche	8	Agosto	2023-08-13T00:00:00	2024-11-06T20:00:00	1	Precipitación	0.6
43176	7	Sololá	701	Sololá	3	Barraneche	8	Agosto	2023-08-13T00:00:00	2024-11-06T20:00:00	8	Radiación solar	0
43177	7	Sololá	701	Sololá	3	Barraneche	8	Agosto	2023-08-13T00:00:00	2024-11-06T21:00:00	2	Temperatura media	13.8
43178	7	Sololá	701	Sololá	3	Barraneche	8	Agosto	2023-08-13T00:00:00	2024-11-06T21:00:00	4	Temperatura máxima	14.2
43179	7	Sololá	701	Sololá	3	Barraneche	8	Agosto	2023-08-13T00:00:00	2024-11-06T21:00:00	3	Temperatura mínima	12.7
43180	7	Sololá	701	Sololá	3	Barraneche	8	Agosto	2023-08-13T00:00:00	2024-11-06T21:00:00	5	Humedad	68
43181	7	Sololá	701	Sololá	3	Barraneche	8	Agosto	2023-08-13T00:00:00	2024-11-06T21:00:00	6	Velocidad del viento	6.4
43182	7	Sololá	701	Sololá	3	Barraneche	8	Agosto	2023-08-13T00:00:00	2024-11-06T21:00:00	7	Dirección del viento	6.44
43183	7	Sololá	701	Sololá	3	Barraneche	8	Agosto	2023-08-13T00:00:00	2024-11-06T21:00:00	1	Precipitación	0
43184	7	Sololá	701	Sololá	3	Barraneche	8	Agosto	2023-08-13T00:00:00	2024-11-06T21:00:00	8	Radiación solar	0
43185	7	Sololá	701	Sololá	3	Barraneche	8	Agosto	2023-08-13T00:00:00	2024-11-06T22:00:00	2	Temperatura media	14.7
43186	7	Sololá	701	Sololá	3	Barraneche	8	Agosto	2023-08-13T00:00:00	2024-11-06T22:00:00	4	Temperatura máxima	14.8
43187	7	Sololá	701	Sololá	3	Barraneche	8	Agosto	2023-08-13T00:00:00	2024-11-06T22:00:00	3	Temperatura mínima	13.8
43188	7	Sololá	701	Sololá	3	Barraneche	8	Agosto	2023-08-13T00:00:00	2024-11-06T22:00:00	5	Humedad	68
43189	7	Sololá	701	Sololá	3	Barraneche	8	Agosto	2023-08-13T00:00:00	2024-11-06T22:00:00	6	Velocidad del viento	11.3
43190	7	Sololá	701	Sololá	3	Barraneche	8	Agosto	2023-08-13T00:00:00	2024-11-06T22:00:00	7	Dirección del viento	11.27
43191	7	Sololá	701	Sololá	3	Barraneche	8	Agosto	2023-08-13T00:00:00	2024-11-06T22:00:00	1	Precipitación	0
43192	7	Sololá	701	Sololá	3	Barraneche	8	Agosto	2023-08-13T00:00:00	2024-11-06T22:00:00	8	Radiación solar	0
43193	7	Sololá	701	Sololá	3	Barraneche	8	Agosto	2023-08-13T00:00:00	2024-11-06T23:00:00	2	Temperatura media	14.4
43194	7	Sololá	701	Sololá	3	Barraneche	8	Agosto	2023-08-13T00:00:00	2024-11-06T23:00:00	4	Temperatura máxima	14.8
43195	7	Sololá	701	Sololá	3	Barraneche	8	Agosto	2023-08-13T00:00:00	2024-11-06T23:00:00	3	Temperatura mínima	14.4
43196	7	Sololá	701	Sololá	3	Barraneche	8	Agosto	2023-08-13T00:00:00	2024-11-06T23:00:00	5	Humedad	68
43197	7	Sololá	701	Sololá	3	Barraneche	8	Agosto	2023-08-13T00:00:00	2024-11-06T23:00:00	6	Velocidad del viento	6.4
43198	7	Sololá	701	Sololá	3	Barraneche	8	Agosto	2023-08-13T00:00:00	2024-11-06T23:00:00	7	Dirección del viento	6.44
43199	7	Sololá	701	Sololá	3	Barraneche	8	Agosto	2023-08-13T00:00:00	2024-11-06T23:00:00	1	Precipitación	0
43200	7	Sololá	701	Sololá	3	Barraneche	8	Agosto	2023-08-13T00:00:00	2024-11-06T23:00:00	8	Radiación solar	0
43201	7	Sololá	701	Sololá	3	Barraneche	8	Agosto	2023-08-14T00:00:00	2024-11-06T00:00:00	2	Temperatura media	14.3
43202	7	Sololá	701	Sololá	3	Barraneche	8	Agosto	2023-08-14T00:00:00	2024-11-06T00:00:00	4	Temperatura máxima	14.6
43203	7	Sololá	701	Sololá	3	Barraneche	8	Agosto	2023-08-14T00:00:00	2024-11-06T00:00:00	3	Temperatura mínima	14.3
43204	7	Sololá	701	Sololá	3	Barraneche	8	Agosto	2023-08-14T00:00:00	2024-11-06T00:00:00	5	Humedad	68
43205	7	Sololá	701	Sololá	3	Barraneche	8	Agosto	2023-08-14T00:00:00	2024-11-06T00:00:00	6	Velocidad del viento	8
43206	7	Sololá	701	Sololá	3	Barraneche	8	Agosto	2023-08-14T00:00:00	2024-11-06T00:00:00	7	Dirección del viento	8.05
43207	7	Sololá	701	Sololá	3	Barraneche	8	Agosto	2023-08-14T00:00:00	2024-11-06T00:00:00	1	Precipitación	0
43208	7	Sololá	701	Sololá	3	Barraneche	8	Agosto	2023-08-14T00:00:00	2024-11-06T00:00:00	8	Radiación solar	0
43209	7	Sololá	701	Sololá	3	Barraneche	8	Agosto	2023-08-14T00:00:00	2024-11-06T01:00:00	2	Temperatura media	14.2
43210	7	Sololá	701	Sololá	3	Barraneche	8	Agosto	2023-08-14T00:00:00	2024-11-06T01:00:00	4	Temperatura máxima	14.4
43211	7	Sololá	701	Sololá	3	Barraneche	8	Agosto	2023-08-14T00:00:00	2024-11-06T01:00:00	3	Temperatura mínima	14.2
43212	7	Sololá	701	Sololá	3	Barraneche	8	Agosto	2023-08-14T00:00:00	2024-11-06T01:00:00	5	Humedad	69
43213	7	Sololá	701	Sololá	3	Barraneche	8	Agosto	2023-08-14T00:00:00	2024-11-06T01:00:00	6	Velocidad del viento	4.8
43214	7	Sololá	701	Sololá	3	Barraneche	8	Agosto	2023-08-14T00:00:00	2024-11-06T01:00:00	7	Dirección del viento	4.83
43215	7	Sololá	701	Sololá	3	Barraneche	8	Agosto	2023-08-14T00:00:00	2024-11-06T01:00:00	1	Precipitación	0
43216	7	Sololá	701	Sololá	3	Barraneche	8	Agosto	2023-08-14T00:00:00	2024-11-06T01:00:00	8	Radiación solar	0
43217	7	Sololá	701	Sololá	3	Barraneche	8	Agosto	2023-08-14T00:00:00	2024-11-06T02:00:00	2	Temperatura media	13.9
43218	7	Sololá	701	Sololá	3	Barraneche	8	Agosto	2023-08-14T00:00:00	2024-11-06T02:00:00	4	Temperatura máxima	14.4
43219	7	Sololá	701	Sololá	3	Barraneche	8	Agosto	2023-08-14T00:00:00	2024-11-06T02:00:00	3	Temperatura mínima	13.9
43220	7	Sololá	701	Sololá	3	Barraneche	8	Agosto	2023-08-14T00:00:00	2024-11-06T02:00:00	5	Humedad	66
43221	7	Sololá	701	Sololá	3	Barraneche	8	Agosto	2023-08-14T00:00:00	2024-11-06T02:00:00	6	Velocidad del viento	9.7
43222	7	Sololá	701	Sololá	3	Barraneche	8	Agosto	2023-08-14T00:00:00	2024-11-06T02:00:00	7	Dirección del viento	9.66
43223	7	Sololá	701	Sololá	3	Barraneche	8	Agosto	2023-08-14T00:00:00	2024-11-06T02:00:00	1	Precipitación	0
43224	7	Sololá	701	Sololá	3	Barraneche	8	Agosto	2023-08-14T00:00:00	2024-11-06T02:00:00	8	Radiación solar	0
43225	7	Sololá	701	Sololá	3	Barraneche	8	Agosto	2023-08-14T00:00:00	2024-11-06T03:00:00	2	Temperatura media	13.6
43226	7	Sololá	701	Sololá	3	Barraneche	8	Agosto	2023-08-14T00:00:00	2024-11-06T03:00:00	4	Temperatura máxima	13.9
43227	7	Sololá	701	Sololá	3	Barraneche	8	Agosto	2023-08-14T00:00:00	2024-11-06T03:00:00	3	Temperatura mínima	13.5
43228	7	Sololá	701	Sololá	3	Barraneche	8	Agosto	2023-08-14T00:00:00	2024-11-06T03:00:00	5	Humedad	65
43229	7	Sololá	701	Sololá	3	Barraneche	8	Agosto	2023-08-14T00:00:00	2024-11-06T03:00:00	6	Velocidad del viento	12.9
43230	7	Sololá	701	Sololá	3	Barraneche	8	Agosto	2023-08-14T00:00:00	2024-11-06T03:00:00	7	Dirección del viento	12.87
43231	7	Sololá	701	Sololá	3	Barraneche	8	Agosto	2023-08-14T00:00:00	2024-11-06T03:00:00	1	Precipitación	0
43232	7	Sololá	701	Sololá	3	Barraneche	8	Agosto	2023-08-14T00:00:00	2024-11-06T03:00:00	8	Radiación solar	0
43233	7	Sololá	701	Sololá	3	Barraneche	8	Agosto	2023-08-14T00:00:00	2024-11-06T04:00:00	2	Temperatura media	13.3
43234	7	Sololá	701	Sololá	3	Barraneche	8	Agosto	2023-08-14T00:00:00	2024-11-06T04:00:00	4	Temperatura máxima	13.6
43235	7	Sololá	701	Sololá	3	Barraneche	8	Agosto	2023-08-14T00:00:00	2024-11-06T04:00:00	3	Temperatura mínima	13.1
43236	7	Sololá	701	Sololá	3	Barraneche	8	Agosto	2023-08-14T00:00:00	2024-11-06T04:00:00	5	Humedad	65
43237	7	Sololá	701	Sololá	3	Barraneche	8	Agosto	2023-08-14T00:00:00	2024-11-06T04:00:00	6	Velocidad del viento	11.3
43238	7	Sololá	701	Sololá	3	Barraneche	8	Agosto	2023-08-14T00:00:00	2024-11-06T04:00:00	7	Dirección del viento	11.27
43239	7	Sololá	701	Sololá	3	Barraneche	8	Agosto	2023-08-14T00:00:00	2024-11-06T04:00:00	1	Precipitación	0
43240	7	Sololá	701	Sololá	3	Barraneche	8	Agosto	2023-08-14T00:00:00	2024-11-06T04:00:00	8	Radiación solar	0
43241	7	Sololá	701	Sololá	3	Barraneche	8	Agosto	2023-08-14T00:00:00	2024-11-06T05:00:00	2	Temperatura media	13.8
43242	7	Sololá	701	Sololá	3	Barraneche	8	Agosto	2023-08-14T00:00:00	2024-11-06T05:00:00	4	Temperatura máxima	13.8
43243	7	Sololá	701	Sololá	3	Barraneche	8	Agosto	2023-08-14T00:00:00	2024-11-06T05:00:00	3	Temperatura mínima	13.3
43244	7	Sololá	701	Sololá	3	Barraneche	8	Agosto	2023-08-14T00:00:00	2024-11-06T05:00:00	5	Humedad	64
43245	7	Sololá	701	Sololá	3	Barraneche	8	Agosto	2023-08-14T00:00:00	2024-11-06T05:00:00	6	Velocidad del viento	12.9
43246	7	Sololá	701	Sololá	3	Barraneche	8	Agosto	2023-08-14T00:00:00	2024-11-06T05:00:00	7	Dirección del viento	12.87
43247	7	Sololá	701	Sololá	3	Barraneche	8	Agosto	2023-08-14T00:00:00	2024-11-06T05:00:00	1	Precipitación	0
43248	7	Sololá	701	Sololá	3	Barraneche	8	Agosto	2023-08-14T00:00:00	2024-11-06T05:00:00	8	Radiación solar	0
43249	7	Sololá	701	Sololá	3	Barraneche	8	Agosto	2023-08-14T00:00:00	2024-11-06T06:00:00	2	Temperatura media	13.7
43250	7	Sololá	701	Sololá	3	Barraneche	8	Agosto	2023-08-14T00:00:00	2024-11-06T06:00:00	4	Temperatura máxima	13.8
43251	7	Sololá	701	Sololá	3	Barraneche	8	Agosto	2023-08-14T00:00:00	2024-11-06T06:00:00	3	Temperatura mínima	13.5
43252	7	Sololá	701	Sololá	3	Barraneche	8	Agosto	2023-08-14T00:00:00	2024-11-06T06:00:00	5	Humedad	65
43253	7	Sololá	701	Sololá	3	Barraneche	8	Agosto	2023-08-14T00:00:00	2024-11-06T06:00:00	6	Velocidad del viento	12.9
43254	7	Sololá	701	Sololá	3	Barraneche	8	Agosto	2023-08-14T00:00:00	2024-11-06T06:00:00	7	Dirección del viento	12.87
43255	7	Sololá	701	Sololá	3	Barraneche	8	Agosto	2023-08-14T00:00:00	2024-11-06T06:00:00	1	Precipitación	0
43256	7	Sololá	701	Sololá	3	Barraneche	8	Agosto	2023-08-14T00:00:00	2024-11-06T06:00:00	8	Radiación solar	1
43257	7	Sololá	701	Sololá	3	Barraneche	8	Agosto	2023-08-14T00:00:00	2024-11-06T07:00:00	2	Temperatura media	14.2
43258	7	Sololá	701	Sololá	3	Barraneche	8	Agosto	2023-08-14T00:00:00	2024-11-06T07:00:00	4	Temperatura máxima	14.2
43259	7	Sololá	701	Sololá	3	Barraneche	8	Agosto	2023-08-14T00:00:00	2024-11-06T07:00:00	3	Temperatura mínima	13.7
43260	7	Sololá	701	Sololá	3	Barraneche	8	Agosto	2023-08-14T00:00:00	2024-11-06T07:00:00	5	Humedad	64
43261	7	Sololá	701	Sololá	3	Barraneche	8	Agosto	2023-08-14T00:00:00	2024-11-06T07:00:00	6	Velocidad del viento	8
43262	7	Sololá	701	Sololá	3	Barraneche	8	Agosto	2023-08-14T00:00:00	2024-11-06T07:00:00	7	Dirección del viento	8.05
43263	7	Sololá	701	Sololá	3	Barraneche	8	Agosto	2023-08-14T00:00:00	2024-11-06T07:00:00	1	Precipitación	0
43264	7	Sololá	701	Sololá	3	Barraneche	8	Agosto	2023-08-14T00:00:00	2024-11-06T07:00:00	8	Radiación solar	38
43265	7	Sololá	701	Sololá	3	Barraneche	8	Agosto	2023-08-14T00:00:00	2024-11-06T08:00:00	2	Temperatura media	14.7
43266	7	Sololá	701	Sololá	3	Barraneche	8	Agosto	2023-08-14T00:00:00	2024-11-06T08:00:00	4	Temperatura máxima	14.7
43267	7	Sololá	701	Sololá	3	Barraneche	8	Agosto	2023-08-14T00:00:00	2024-11-06T08:00:00	3	Temperatura mínima	14.1
43268	7	Sololá	701	Sololá	3	Barraneche	8	Agosto	2023-08-14T00:00:00	2024-11-06T08:00:00	5	Humedad	63
43269	7	Sololá	701	Sololá	3	Barraneche	8	Agosto	2023-08-14T00:00:00	2024-11-06T08:00:00	6	Velocidad del viento	9.7
43270	7	Sololá	701	Sololá	3	Barraneche	8	Agosto	2023-08-14T00:00:00	2024-11-06T08:00:00	7	Dirección del viento	9.66
43271	7	Sololá	701	Sololá	3	Barraneche	8	Agosto	2023-08-14T00:00:00	2024-11-06T08:00:00	1	Precipitación	0
43272	7	Sololá	701	Sololá	3	Barraneche	8	Agosto	2023-08-14T00:00:00	2024-11-06T08:00:00	8	Radiación solar	161
43273	7	Sololá	701	Sololá	3	Barraneche	8	Agosto	2023-08-14T00:00:00	2024-11-06T09:00:00	2	Temperatura media	15
43274	7	Sololá	701	Sololá	3	Barraneche	8	Agosto	2023-08-14T00:00:00	2024-11-06T09:00:00	4	Temperatura máxima	15
43275	7	Sololá	701	Sololá	3	Barraneche	8	Agosto	2023-08-14T00:00:00	2024-11-06T09:00:00	3	Temperatura mínima	14.6
43276	7	Sololá	701	Sololá	3	Barraneche	8	Agosto	2023-08-14T00:00:00	2024-11-06T09:00:00	5	Humedad	61
43277	7	Sololá	701	Sololá	3	Barraneche	8	Agosto	2023-08-14T00:00:00	2024-11-06T09:00:00	6	Velocidad del viento	11.3
43278	7	Sololá	701	Sololá	3	Barraneche	8	Agosto	2023-08-14T00:00:00	2024-11-06T09:00:00	7	Dirección del viento	11.27
43279	7	Sololá	701	Sololá	3	Barraneche	8	Agosto	2023-08-14T00:00:00	2024-11-06T09:00:00	1	Precipitación	0
43280	7	Sololá	701	Sololá	3	Barraneche	8	Agosto	2023-08-14T00:00:00	2024-11-06T09:00:00	8	Radiación solar	237
43281	7	Sololá	701	Sololá	3	Barraneche	8	Agosto	2023-08-14T00:00:00	2024-11-06T10:00:00	2	Temperatura media	16.6
43282	7	Sololá	701	Sololá	3	Barraneche	8	Agosto	2023-08-14T00:00:00	2024-11-06T10:00:00	4	Temperatura máxima	16.8
43283	7	Sololá	701	Sololá	3	Barraneche	8	Agosto	2023-08-14T00:00:00	2024-11-06T10:00:00	3	Temperatura mínima	14.9
43284	7	Sololá	701	Sololá	3	Barraneche	8	Agosto	2023-08-14T00:00:00	2024-11-06T10:00:00	5	Humedad	56
43285	7	Sololá	701	Sololá	3	Barraneche	8	Agosto	2023-08-14T00:00:00	2024-11-06T10:00:00	6	Velocidad del viento	12.9
43286	7	Sololá	701	Sololá	3	Barraneche	8	Agosto	2023-08-14T00:00:00	2024-11-06T10:00:00	7	Dirección del viento	12.87
43287	7	Sololá	701	Sololá	3	Barraneche	8	Agosto	2023-08-14T00:00:00	2024-11-06T10:00:00	1	Precipitación	0
43288	7	Sololá	701	Sololá	3	Barraneche	8	Agosto	2023-08-14T00:00:00	2024-11-06T10:00:00	8	Radiación solar	846
43289	7	Sololá	701	Sololá	3	Barraneche	8	Agosto	2023-08-14T00:00:00	2024-11-06T11:00:00	2	Temperatura media	17.4
43290	7	Sololá	701	Sololá	3	Barraneche	8	Agosto	2023-08-14T00:00:00	2024-11-06T11:00:00	4	Temperatura máxima	17.7
43291	7	Sololá	701	Sololá	3	Barraneche	8	Agosto	2023-08-14T00:00:00	2024-11-06T11:00:00	3	Temperatura mínima	16.6
43292	7	Sololá	701	Sololá	3	Barraneche	8	Agosto	2023-08-14T00:00:00	2024-11-06T11:00:00	5	Humedad	53
43293	7	Sololá	701	Sololá	3	Barraneche	8	Agosto	2023-08-14T00:00:00	2024-11-06T11:00:00	6	Velocidad del viento	12.9
43294	7	Sololá	701	Sololá	3	Barraneche	8	Agosto	2023-08-14T00:00:00	2024-11-06T11:00:00	7	Dirección del viento	12.87
43295	7	Sololá	701	Sololá	3	Barraneche	8	Agosto	2023-08-14T00:00:00	2024-11-06T11:00:00	1	Precipitación	0
43296	7	Sololá	701	Sololá	3	Barraneche	8	Agosto	2023-08-14T00:00:00	2024-11-06T11:00:00	8	Radiación solar	1041
43297	7	Sololá	701	Sololá	3	Barraneche	8	Agosto	2023-08-14T00:00:00	2024-11-06T12:00:00	2	Temperatura media	18.2
43298	7	Sololá	701	Sololá	3	Barraneche	8	Agosto	2023-08-14T00:00:00	2024-11-06T12:00:00	4	Temperatura máxima	18.2
43299	7	Sololá	701	Sololá	3	Barraneche	8	Agosto	2023-08-14T00:00:00	2024-11-06T12:00:00	3	Temperatura mínima	17.4
43300	7	Sololá	701	Sololá	3	Barraneche	8	Agosto	2023-08-14T00:00:00	2024-11-06T12:00:00	5	Humedad	49
43301	7	Sololá	701	Sololá	3	Barraneche	8	Agosto	2023-08-14T00:00:00	2024-11-06T12:00:00	6	Velocidad del viento	11.3
43302	7	Sololá	701	Sololá	3	Barraneche	8	Agosto	2023-08-14T00:00:00	2024-11-06T12:00:00	7	Dirección del viento	11.27
43303	7	Sololá	701	Sololá	3	Barraneche	8	Agosto	2023-08-14T00:00:00	2024-11-06T12:00:00	1	Precipitación	0
43304	7	Sololá	701	Sololá	3	Barraneche	8	Agosto	2023-08-14T00:00:00	2024-11-06T12:00:00	8	Radiación solar	1098
43305	7	Sololá	701	Sololá	3	Barraneche	8	Agosto	2023-08-14T00:00:00	2024-11-06T13:00:00	2	Temperatura media	18.7
43306	7	Sololá	701	Sololá	3	Barraneche	8	Agosto	2023-08-14T00:00:00	2024-11-06T13:00:00	4	Temperatura máxima	19.3
43307	7	Sololá	701	Sololá	3	Barraneche	8	Agosto	2023-08-14T00:00:00	2024-11-06T13:00:00	3	Temperatura mínima	18.2
43308	7	Sololá	701	Sololá	3	Barraneche	8	Agosto	2023-08-14T00:00:00	2024-11-06T13:00:00	5	Humedad	48
43309	7	Sololá	701	Sololá	3	Barraneche	8	Agosto	2023-08-14T00:00:00	2024-11-06T13:00:00	6	Velocidad del viento	11.3
43310	7	Sololá	701	Sololá	3	Barraneche	8	Agosto	2023-08-14T00:00:00	2024-11-06T13:00:00	7	Dirección del viento	11.27
43311	7	Sololá	701	Sololá	3	Barraneche	8	Agosto	2023-08-14T00:00:00	2024-11-06T13:00:00	1	Precipitación	0
43312	7	Sololá	701	Sololá	3	Barraneche	8	Agosto	2023-08-14T00:00:00	2024-11-06T13:00:00	8	Radiación solar	1075
43313	7	Sololá	701	Sololá	3	Barraneche	8	Agosto	2023-08-14T00:00:00	2024-11-06T14:00:00	2	Temperatura media	19.3
43314	7	Sololá	701	Sololá	3	Barraneche	8	Agosto	2023-08-14T00:00:00	2024-11-06T14:00:00	4	Temperatura máxima	19.5
43315	7	Sololá	701	Sololá	3	Barraneche	8	Agosto	2023-08-14T00:00:00	2024-11-06T14:00:00	3	Temperatura mínima	18.2
43316	7	Sololá	701	Sololá	3	Barraneche	8	Agosto	2023-08-14T00:00:00	2024-11-06T14:00:00	5	Humedad	48
43317	7	Sololá	701	Sololá	3	Barraneche	8	Agosto	2023-08-14T00:00:00	2024-11-06T14:00:00	6	Velocidad del viento	12.9
43318	7	Sololá	701	Sololá	3	Barraneche	8	Agosto	2023-08-14T00:00:00	2024-11-06T14:00:00	7	Dirección del viento	12.87
43319	7	Sololá	701	Sololá	3	Barraneche	8	Agosto	2023-08-14T00:00:00	2024-11-06T14:00:00	1	Precipitación	0
43320	7	Sololá	701	Sololá	3	Barraneche	8	Agosto	2023-08-14T00:00:00	2024-11-06T14:00:00	8	Radiación solar	916
43321	7	Sololá	701	Sololá	3	Barraneche	8	Agosto	2023-08-14T00:00:00	2024-11-06T15:00:00	2	Temperatura media	17.2
43322	7	Sololá	701	Sololá	3	Barraneche	8	Agosto	2023-08-14T00:00:00	2024-11-06T15:00:00	4	Temperatura máxima	19.6
43323	7	Sololá	701	Sololá	3	Barraneche	8	Agosto	2023-08-14T00:00:00	2024-11-06T15:00:00	3	Temperatura mínima	17.2
43324	7	Sololá	701	Sololá	3	Barraneche	8	Agosto	2023-08-14T00:00:00	2024-11-06T15:00:00	5	Humedad	59
43325	7	Sololá	701	Sololá	3	Barraneche	8	Agosto	2023-08-14T00:00:00	2024-11-06T15:00:00	6	Velocidad del viento	12.9
43326	7	Sololá	701	Sololá	3	Barraneche	8	Agosto	2023-08-14T00:00:00	2024-11-06T15:00:00	7	Dirección del viento	12.87
43327	7	Sololá	701	Sololá	3	Barraneche	8	Agosto	2023-08-14T00:00:00	2024-11-06T15:00:00	1	Precipitación	0
43328	7	Sololá	701	Sololá	3	Barraneche	8	Agosto	2023-08-14T00:00:00	2024-11-06T15:00:00	8	Radiación solar	341
43329	7	Sololá	701	Sololá	3	Barraneche	8	Agosto	2023-08-14T00:00:00	2024-11-06T16:00:00	2	Temperatura media	18.2
43330	7	Sololá	701	Sololá	3	Barraneche	8	Agosto	2023-08-14T00:00:00	2024-11-06T16:00:00	4	Temperatura máxima	18.6
43331	7	Sololá	701	Sololá	3	Barraneche	8	Agosto	2023-08-14T00:00:00	2024-11-06T16:00:00	3	Temperatura mínima	17.2
43332	7	Sololá	701	Sololá	3	Barraneche	8	Agosto	2023-08-14T00:00:00	2024-11-06T16:00:00	5	Humedad	54
43333	7	Sololá	701	Sololá	3	Barraneche	8	Agosto	2023-08-14T00:00:00	2024-11-06T16:00:00	6	Velocidad del viento	9.7
43334	7	Sololá	701	Sololá	3	Barraneche	8	Agosto	2023-08-14T00:00:00	2024-11-06T16:00:00	7	Dirección del viento	9.66
43335	7	Sololá	701	Sololá	3	Barraneche	8	Agosto	2023-08-14T00:00:00	2024-11-06T16:00:00	1	Precipitación	0
43336	7	Sololá	701	Sololá	3	Barraneche	8	Agosto	2023-08-14T00:00:00	2024-11-06T16:00:00	8	Radiación solar	434
43337	7	Sololá	701	Sololá	3	Barraneche	8	Agosto	2023-08-14T00:00:00	2024-11-06T17:00:00	2	Temperatura media	16.8
43338	7	Sololá	701	Sololá	3	Barraneche	8	Agosto	2023-08-14T00:00:00	2024-11-06T17:00:00	4	Temperatura máxima	18.3
43339	7	Sololá	701	Sololá	3	Barraneche	8	Agosto	2023-08-14T00:00:00	2024-11-06T17:00:00	3	Temperatura mínima	16.8
43340	7	Sololá	701	Sololá	3	Barraneche	8	Agosto	2023-08-14T00:00:00	2024-11-06T17:00:00	5	Humedad	59
43341	7	Sololá	701	Sololá	3	Barraneche	8	Agosto	2023-08-14T00:00:00	2024-11-06T17:00:00	6	Velocidad del viento	9.7
43342	7	Sololá	701	Sololá	3	Barraneche	8	Agosto	2023-08-14T00:00:00	2024-11-06T17:00:00	7	Dirección del viento	9.66
43343	7	Sololá	701	Sololá	3	Barraneche	8	Agosto	2023-08-14T00:00:00	2024-11-06T17:00:00	1	Precipitación	0
43344	7	Sololá	701	Sololá	3	Barraneche	8	Agosto	2023-08-14T00:00:00	2024-11-06T17:00:00	8	Radiación solar	158
43345	7	Sololá	701	Sololá	3	Barraneche	8	Agosto	2023-08-14T00:00:00	2024-11-06T18:00:00	2	Temperatura media	15.6
43346	7	Sololá	701	Sololá	3	Barraneche	8	Agosto	2023-08-14T00:00:00	2024-11-06T18:00:00	4	Temperatura máxima	16.9
43347	7	Sololá	701	Sololá	3	Barraneche	8	Agosto	2023-08-14T00:00:00	2024-11-06T18:00:00	3	Temperatura mínima	15.6
43348	7	Sololá	701	Sololá	3	Barraneche	8	Agosto	2023-08-14T00:00:00	2024-11-06T18:00:00	5	Humedad	62
43349	7	Sololá	701	Sololá	3	Barraneche	8	Agosto	2023-08-14T00:00:00	2024-11-06T18:00:00	6	Velocidad del viento	9.7
43350	7	Sololá	701	Sololá	3	Barraneche	8	Agosto	2023-08-14T00:00:00	2024-11-06T18:00:00	7	Dirección del viento	9.66
43351	7	Sololá	701	Sololá	3	Barraneche	8	Agosto	2023-08-14T00:00:00	2024-11-06T18:00:00	1	Precipitación	0
43352	7	Sololá	701	Sololá	3	Barraneche	8	Agosto	2023-08-14T00:00:00	2024-11-06T18:00:00	8	Radiación solar	91
43353	7	Sololá	701	Sololá	3	Barraneche	8	Agosto	2023-08-14T00:00:00	2024-11-06T19:00:00	2	Temperatura media	14.9
43354	7	Sololá	701	Sololá	3	Barraneche	8	Agosto	2023-08-14T00:00:00	2024-11-06T19:00:00	4	Temperatura máxima	15.7
43355	7	Sololá	701	Sololá	3	Barraneche	8	Agosto	2023-08-14T00:00:00	2024-11-06T19:00:00	3	Temperatura mínima	14.6
43356	7	Sololá	701	Sololá	3	Barraneche	8	Agosto	2023-08-14T00:00:00	2024-11-06T19:00:00	5	Humedad	65
43357	7	Sololá	701	Sololá	3	Barraneche	8	Agosto	2023-08-14T00:00:00	2024-11-06T19:00:00	6	Velocidad del viento	4.8
43358	7	Sololá	701	Sololá	3	Barraneche	8	Agosto	2023-08-14T00:00:00	2024-11-06T19:00:00	7	Dirección del viento	4.83
43359	7	Sololá	701	Sololá	3	Barraneche	8	Agosto	2023-08-14T00:00:00	2024-11-06T19:00:00	1	Precipitación	0
43360	7	Sololá	701	Sololá	3	Barraneche	8	Agosto	2023-08-14T00:00:00	2024-11-06T19:00:00	8	Radiación solar	0
43361	7	Sololá	701	Sololá	3	Barraneche	8	Agosto	2023-08-14T00:00:00	2024-11-06T20:00:00	2	Temperatura media	14.9
43362	7	Sololá	701	Sololá	3	Barraneche	8	Agosto	2023-08-14T00:00:00	2024-11-06T20:00:00	4	Temperatura máxima	15.1
43363	7	Sololá	701	Sololá	3	Barraneche	8	Agosto	2023-08-14T00:00:00	2024-11-06T20:00:00	3	Temperatura mínima	14.8
43364	7	Sololá	701	Sololá	3	Barraneche	8	Agosto	2023-08-14T00:00:00	2024-11-06T20:00:00	5	Humedad	65
43365	7	Sololá	701	Sololá	3	Barraneche	8	Agosto	2023-08-14T00:00:00	2024-11-06T20:00:00	6	Velocidad del viento	16.1
43366	7	Sololá	701	Sololá	3	Barraneche	8	Agosto	2023-08-14T00:00:00	2024-11-06T20:00:00	7	Dirección del viento	16.09
43367	7	Sololá	701	Sololá	3	Barraneche	8	Agosto	2023-08-14T00:00:00	2024-11-06T20:00:00	1	Precipitación	0
43368	7	Sololá	701	Sololá	3	Barraneche	8	Agosto	2023-08-14T00:00:00	2024-11-06T20:00:00	8	Radiación solar	0
43369	7	Sololá	701	Sololá	3	Barraneche	8	Agosto	2023-08-14T00:00:00	2024-11-06T21:00:00	2	Temperatura media	14.2
43370	7	Sololá	701	Sololá	3	Barraneche	8	Agosto	2023-08-14T00:00:00	2024-11-06T21:00:00	4	Temperatura máxima	15.2
43371	7	Sololá	701	Sololá	3	Barraneche	8	Agosto	2023-08-14T00:00:00	2024-11-06T21:00:00	3	Temperatura mínima	14.2
43372	7	Sololá	701	Sololá	3	Barraneche	8	Agosto	2023-08-14T00:00:00	2024-11-06T21:00:00	5	Humedad	70
43373	7	Sololá	701	Sololá	3	Barraneche	8	Agosto	2023-08-14T00:00:00	2024-11-06T21:00:00	6	Velocidad del viento	9.7
43374	7	Sololá	701	Sololá	3	Barraneche	8	Agosto	2023-08-14T00:00:00	2024-11-06T21:00:00	7	Dirección del viento	9.66
43375	7	Sololá	701	Sololá	3	Barraneche	8	Agosto	2023-08-14T00:00:00	2024-11-06T21:00:00	1	Precipitación	0
43376	7	Sololá	701	Sololá	3	Barraneche	8	Agosto	2023-08-14T00:00:00	2024-11-06T21:00:00	8	Radiación solar	0
43377	7	Sololá	701	Sololá	3	Barraneche	8	Agosto	2023-08-14T00:00:00	2024-11-06T22:00:00	2	Temperatura media	14.9
43378	7	Sololá	701	Sololá	3	Barraneche	8	Agosto	2023-08-14T00:00:00	2024-11-06T22:00:00	4	Temperatura máxima	14.9
43379	7	Sololá	701	Sololá	3	Barraneche	8	Agosto	2023-08-14T00:00:00	2024-11-06T22:00:00	3	Temperatura mínima	14.1
43380	7	Sololá	701	Sololá	3	Barraneche	8	Agosto	2023-08-14T00:00:00	2024-11-06T22:00:00	5	Humedad	64
43381	7	Sololá	701	Sololá	3	Barraneche	8	Agosto	2023-08-14T00:00:00	2024-11-06T22:00:00	6	Velocidad del viento	12.9
43382	7	Sololá	701	Sololá	3	Barraneche	8	Agosto	2023-08-14T00:00:00	2024-11-06T22:00:00	7	Dirección del viento	12.87
43383	7	Sololá	701	Sololá	3	Barraneche	8	Agosto	2023-08-14T00:00:00	2024-11-06T22:00:00	1	Precipitación	0
43384	7	Sololá	701	Sololá	3	Barraneche	8	Agosto	2023-08-14T00:00:00	2024-11-06T22:00:00	8	Radiación solar	0
43385	7	Sololá	701	Sololá	3	Barraneche	8	Agosto	2023-08-14T00:00:00	2024-11-06T23:00:00	2	Temperatura media	14.6
43386	7	Sololá	701	Sololá	3	Barraneche	8	Agosto	2023-08-14T00:00:00	2024-11-06T23:00:00	4	Temperatura máxima	14.9
43387	7	Sololá	701	Sololá	3	Barraneche	8	Agosto	2023-08-14T00:00:00	2024-11-06T23:00:00	3	Temperatura mínima	14.6
43388	7	Sololá	701	Sololá	3	Barraneche	8	Agosto	2023-08-14T00:00:00	2024-11-06T23:00:00	5	Humedad	66
43389	7	Sololá	701	Sololá	3	Barraneche	8	Agosto	2023-08-14T00:00:00	2024-11-06T23:00:00	6	Velocidad del viento	9.7
43390	7	Sololá	701	Sololá	3	Barraneche	8	Agosto	2023-08-14T00:00:00	2024-11-06T23:00:00	7	Dirección del viento	9.66
43391	7	Sololá	701	Sololá	3	Barraneche	8	Agosto	2023-08-14T00:00:00	2024-11-06T23:00:00	1	Precipitación	0
43392	7	Sololá	701	Sololá	3	Barraneche	8	Agosto	2023-08-14T00:00:00	2024-11-06T23:00:00	8	Radiación solar	0
43393	7	Sololá	701	Sololá	3	Barraneche	8	Agosto	2023-08-15T00:00:00	2024-11-06T00:00:00	2	Temperatura media	13.2
43394	7	Sololá	701	Sololá	3	Barraneche	8	Agosto	2023-08-15T00:00:00	2024-11-06T00:00:00	4	Temperatura máxima	14.6
43395	7	Sololá	701	Sololá	3	Barraneche	8	Agosto	2023-08-15T00:00:00	2024-11-06T00:00:00	3	Temperatura mínima	13.2
43396	7	Sololá	701	Sololá	3	Barraneche	8	Agosto	2023-08-15T00:00:00	2024-11-06T00:00:00	5	Humedad	79
43397	7	Sololá	701	Sololá	3	Barraneche	8	Agosto	2023-08-15T00:00:00	2024-11-06T00:00:00	6	Velocidad del viento	3.2
43398	7	Sololá	701	Sololá	3	Barraneche	8	Agosto	2023-08-15T00:00:00	2024-11-06T00:00:00	7	Dirección del viento	3.22
43399	7	Sololá	701	Sololá	3	Barraneche	8	Agosto	2023-08-15T00:00:00	2024-11-06T00:00:00	1	Precipitación	1.6
43400	7	Sololá	701	Sololá	3	Barraneche	8	Agosto	2023-08-15T00:00:00	2024-11-06T00:00:00	8	Radiación solar	0
43401	7	Sololá	701	Sololá	3	Barraneche	8	Agosto	2023-08-15T00:00:00	2024-11-06T01:00:00	2	Temperatura media	13.3
43402	7	Sololá	701	Sololá	3	Barraneche	8	Agosto	2023-08-15T00:00:00	2024-11-06T01:00:00	4	Temperatura máxima	13.5
43403	7	Sololá	701	Sololá	3	Barraneche	8	Agosto	2023-08-15T00:00:00	2024-11-06T01:00:00	3	Temperatura mínima	13
43404	7	Sololá	701	Sololá	3	Barraneche	8	Agosto	2023-08-15T00:00:00	2024-11-06T01:00:00	5	Humedad	70
43405	7	Sololá	701	Sololá	3	Barraneche	8	Agosto	2023-08-15T00:00:00	2024-11-06T01:00:00	6	Velocidad del viento	9.7
43406	7	Sololá	701	Sololá	3	Barraneche	8	Agosto	2023-08-15T00:00:00	2024-11-06T01:00:00	7	Dirección del viento	9.66
43407	7	Sololá	701	Sololá	3	Barraneche	8	Agosto	2023-08-15T00:00:00	2024-11-06T01:00:00	1	Precipitación	2.8
43408	7	Sololá	701	Sololá	3	Barraneche	8	Agosto	2023-08-15T00:00:00	2024-11-06T01:00:00	8	Radiación solar	0
43409	7	Sololá	701	Sololá	3	Barraneche	8	Agosto	2023-08-15T00:00:00	2024-11-06T02:00:00	2	Temperatura media	13
43410	7	Sololá	701	Sololá	3	Barraneche	8	Agosto	2023-08-15T00:00:00	2024-11-06T02:00:00	4	Temperatura máxima	13.3
43411	7	Sololá	701	Sololá	3	Barraneche	8	Agosto	2023-08-15T00:00:00	2024-11-06T02:00:00	3	Temperatura mínima	12.9
43412	7	Sololá	701	Sololá	3	Barraneche	8	Agosto	2023-08-15T00:00:00	2024-11-06T02:00:00	5	Humedad	66
43413	7	Sololá	701	Sololá	3	Barraneche	8	Agosto	2023-08-15T00:00:00	2024-11-06T02:00:00	6	Velocidad del viento	14.5
43414	7	Sololá	701	Sololá	3	Barraneche	8	Agosto	2023-08-15T00:00:00	2024-11-06T02:00:00	7	Dirección del viento	14.48
43415	7	Sololá	701	Sololá	3	Barraneche	8	Agosto	2023-08-15T00:00:00	2024-11-06T02:00:00	1	Precipitación	0.2
43416	7	Sololá	701	Sololá	3	Barraneche	8	Agosto	2023-08-15T00:00:00	2024-11-06T02:00:00	8	Radiación solar	0
43417	7	Sololá	701	Sololá	3	Barraneche	8	Agosto	2023-08-15T00:00:00	2024-11-06T03:00:00	2	Temperatura media	12.8
43418	7	Sololá	701	Sololá	3	Barraneche	8	Agosto	2023-08-15T00:00:00	2024-11-06T03:00:00	4	Temperatura máxima	13.1
43419	7	Sololá	701	Sololá	3	Barraneche	8	Agosto	2023-08-15T00:00:00	2024-11-06T03:00:00	3	Temperatura mínima	12.6
43420	7	Sololá	701	Sololá	3	Barraneche	8	Agosto	2023-08-15T00:00:00	2024-11-06T03:00:00	5	Humedad	68
43421	7	Sololá	701	Sololá	3	Barraneche	8	Agosto	2023-08-15T00:00:00	2024-11-06T03:00:00	6	Velocidad del viento	8
43422	7	Sololá	701	Sololá	3	Barraneche	8	Agosto	2023-08-15T00:00:00	2024-11-06T03:00:00	7	Dirección del viento	8.05
43423	7	Sololá	701	Sololá	3	Barraneche	8	Agosto	2023-08-15T00:00:00	2024-11-06T03:00:00	1	Precipitación	0
43424	7	Sololá	701	Sololá	3	Barraneche	8	Agosto	2023-08-15T00:00:00	2024-11-06T03:00:00	8	Radiación solar	0
43425	7	Sololá	701	Sololá	3	Barraneche	8	Agosto	2023-08-15T00:00:00	2024-11-06T04:00:00	2	Temperatura media	12.6
43426	7	Sololá	701	Sololá	3	Barraneche	8	Agosto	2023-08-15T00:00:00	2024-11-06T04:00:00	4	Temperatura máxima	12.8
43427	7	Sololá	701	Sololá	3	Barraneche	8	Agosto	2023-08-15T00:00:00	2024-11-06T04:00:00	3	Temperatura mínima	12.6
43428	7	Sololá	701	Sololá	3	Barraneche	8	Agosto	2023-08-15T00:00:00	2024-11-06T04:00:00	5	Humedad	69
43429	7	Sololá	701	Sololá	3	Barraneche	8	Agosto	2023-08-15T00:00:00	2024-11-06T04:00:00	6	Velocidad del viento	9.7
43430	7	Sololá	701	Sololá	3	Barraneche	8	Agosto	2023-08-15T00:00:00	2024-11-06T04:00:00	7	Dirección del viento	9.66
43431	7	Sololá	701	Sololá	3	Barraneche	8	Agosto	2023-08-15T00:00:00	2024-11-06T04:00:00	1	Precipitación	0
43432	7	Sololá	701	Sololá	3	Barraneche	8	Agosto	2023-08-15T00:00:00	2024-11-06T04:00:00	8	Radiación solar	0
43433	7	Sololá	701	Sololá	3	Barraneche	8	Agosto	2023-08-15T00:00:00	2024-11-06T05:00:00	2	Temperatura media	12.7
43434	7	Sololá	701	Sololá	3	Barraneche	8	Agosto	2023-08-15T00:00:00	2024-11-06T05:00:00	4	Temperatura máxima	12.8
43435	7	Sololá	701	Sololá	3	Barraneche	8	Agosto	2023-08-15T00:00:00	2024-11-06T05:00:00	3	Temperatura mínima	12.5
43436	7	Sololá	701	Sololá	3	Barraneche	8	Agosto	2023-08-15T00:00:00	2024-11-06T05:00:00	5	Humedad	68
43437	7	Sololá	701	Sololá	3	Barraneche	8	Agosto	2023-08-15T00:00:00	2024-11-06T05:00:00	6	Velocidad del viento	9.7
43438	7	Sololá	701	Sololá	3	Barraneche	8	Agosto	2023-08-15T00:00:00	2024-11-06T05:00:00	7	Dirección del viento	9.66
43439	7	Sololá	701	Sololá	3	Barraneche	8	Agosto	2023-08-15T00:00:00	2024-11-06T05:00:00	1	Precipitación	0
43440	7	Sololá	701	Sololá	3	Barraneche	8	Agosto	2023-08-15T00:00:00	2024-11-06T05:00:00	8	Radiación solar	0
43441	7	Sololá	701	Sololá	3	Barraneche	8	Agosto	2023-08-15T00:00:00	2024-11-06T06:00:00	2	Temperatura media	13.3
43442	7	Sololá	701	Sololá	3	Barraneche	8	Agosto	2023-08-15T00:00:00	2024-11-06T06:00:00	4	Temperatura máxima	13.4
43443	7	Sololá	701	Sololá	3	Barraneche	8	Agosto	2023-08-15T00:00:00	2024-11-06T06:00:00	3	Temperatura mínima	12.6
43444	7	Sololá	701	Sololá	3	Barraneche	8	Agosto	2023-08-15T00:00:00	2024-11-06T06:00:00	5	Humedad	65
43445	7	Sololá	701	Sololá	3	Barraneche	8	Agosto	2023-08-15T00:00:00	2024-11-06T06:00:00	6	Velocidad del viento	8
43446	7	Sololá	701	Sololá	3	Barraneche	8	Agosto	2023-08-15T00:00:00	2024-11-06T06:00:00	7	Dirección del viento	8.05
43447	7	Sololá	701	Sololá	3	Barraneche	8	Agosto	2023-08-15T00:00:00	2024-11-06T06:00:00	1	Precipitación	0
43448	7	Sololá	701	Sololá	3	Barraneche	8	Agosto	2023-08-15T00:00:00	2024-11-06T06:00:00	8	Radiación solar	1
43449	7	Sololá	701	Sololá	3	Barraneche	8	Agosto	2023-08-15T00:00:00	2024-11-06T07:00:00	2	Temperatura media	14.6
43450	7	Sololá	701	Sololá	3	Barraneche	8	Agosto	2023-08-15T00:00:00	2024-11-06T07:00:00	4	Temperatura máxima	14.6
43451	7	Sololá	701	Sololá	3	Barraneche	8	Agosto	2023-08-15T00:00:00	2024-11-06T07:00:00	3	Temperatura mínima	13.3
43452	7	Sololá	701	Sololá	3	Barraneche	8	Agosto	2023-08-15T00:00:00	2024-11-06T07:00:00	5	Humedad	59
43453	7	Sololá	701	Sololá	3	Barraneche	8	Agosto	2023-08-15T00:00:00	2024-11-06T07:00:00	6	Velocidad del viento	9.7
43454	7	Sololá	701	Sololá	3	Barraneche	8	Agosto	2023-08-15T00:00:00	2024-11-06T07:00:00	7	Dirección del viento	9.66
43455	7	Sololá	701	Sololá	3	Barraneche	8	Agosto	2023-08-15T00:00:00	2024-11-06T07:00:00	1	Precipitación	0
43456	7	Sololá	701	Sololá	3	Barraneche	8	Agosto	2023-08-15T00:00:00	2024-11-06T07:00:00	8	Radiación solar	56
43457	7	Sololá	701	Sololá	3	Barraneche	8	Agosto	2023-08-15T00:00:00	2024-11-06T08:00:00	2	Temperatura media	15.7
43458	7	Sololá	701	Sololá	3	Barraneche	8	Agosto	2023-08-15T00:00:00	2024-11-06T08:00:00	4	Temperatura máxima	15.7
43459	7	Sololá	701	Sololá	3	Barraneche	8	Agosto	2023-08-15T00:00:00	2024-11-06T08:00:00	3	Temperatura mínima	14.3
43460	7	Sololá	701	Sololá	3	Barraneche	8	Agosto	2023-08-15T00:00:00	2024-11-06T08:00:00	5	Humedad	61
43461	7	Sololá	701	Sololá	3	Barraneche	8	Agosto	2023-08-15T00:00:00	2024-11-06T08:00:00	6	Velocidad del viento	1.6
43462	7	Sololá	701	Sololá	3	Barraneche	8	Agosto	2023-08-15T00:00:00	2024-11-06T08:00:00	7	Dirección del viento	1.61
43463	7	Sololá	701	Sololá	3	Barraneche	8	Agosto	2023-08-15T00:00:00	2024-11-06T08:00:00	1	Precipitación	0
43464	7	Sololá	701	Sololá	3	Barraneche	8	Agosto	2023-08-15T00:00:00	2024-11-06T08:00:00	8	Radiación solar	229
43465	7	Sololá	701	Sololá	3	Barraneche	8	Agosto	2023-08-15T00:00:00	2024-11-06T09:00:00	2	Temperatura media	17.7
43466	7	Sololá	701	Sololá	3	Barraneche	8	Agosto	2023-08-15T00:00:00	2024-11-06T09:00:00	4	Temperatura máxima	17.7
43467	7	Sololá	701	Sololá	3	Barraneche	8	Agosto	2023-08-15T00:00:00	2024-11-06T09:00:00	3	Temperatura mínima	15.7
43468	7	Sololá	701	Sololá	3	Barraneche	8	Agosto	2023-08-15T00:00:00	2024-11-06T09:00:00	5	Humedad	52
43469	7	Sololá	701	Sololá	3	Barraneche	8	Agosto	2023-08-15T00:00:00	2024-11-06T09:00:00	6	Velocidad del viento	3.2
43470	7	Sololá	701	Sololá	3	Barraneche	8	Agosto	2023-08-15T00:00:00	2024-11-06T09:00:00	7	Dirección del viento	3.22
43471	7	Sololá	701	Sololá	3	Barraneche	8	Agosto	2023-08-15T00:00:00	2024-11-06T09:00:00	1	Precipitación	0
43472	7	Sololá	701	Sololá	3	Barraneche	8	Agosto	2023-08-15T00:00:00	2024-11-06T09:00:00	8	Radiación solar	574
43473	7	Sololá	701	Sololá	3	Barraneche	8	Agosto	2023-08-15T00:00:00	2024-11-06T10:00:00	2	Temperatura media	15.2
43474	7	Sololá	701	Sololá	3	Barraneche	8	Agosto	2023-08-15T00:00:00	2024-11-06T10:00:00	4	Temperatura máxima	17.8
43475	7	Sololá	701	Sololá	3	Barraneche	8	Agosto	2023-08-15T00:00:00	2024-11-06T10:00:00	3	Temperatura mínima	15.2
43476	7	Sololá	701	Sololá	3	Barraneche	8	Agosto	2023-08-15T00:00:00	2024-11-06T10:00:00	5	Humedad	62
43477	7	Sololá	701	Sololá	3	Barraneche	8	Agosto	2023-08-15T00:00:00	2024-11-06T10:00:00	6	Velocidad del viento	6.4
43478	7	Sololá	701	Sololá	3	Barraneche	8	Agosto	2023-08-15T00:00:00	2024-11-06T10:00:00	7	Dirección del viento	6.44
43479	7	Sololá	701	Sololá	3	Barraneche	8	Agosto	2023-08-15T00:00:00	2024-11-06T10:00:00	1	Precipitación	0
43480	7	Sololá	701	Sololá	3	Barraneche	8	Agosto	2023-08-15T00:00:00	2024-11-06T10:00:00	8	Radiación solar	118
43481	7	Sololá	701	Sololá	3	Barraneche	8	Agosto	2023-08-15T00:00:00	2024-11-06T11:00:00	2	Temperatura media	15.6
43482	7	Sololá	701	Sololá	3	Barraneche	8	Agosto	2023-08-15T00:00:00	2024-11-06T11:00:00	4	Temperatura máxima	15.6
43483	7	Sololá	701	Sololá	3	Barraneche	8	Agosto	2023-08-15T00:00:00	2024-11-06T11:00:00	3	Temperatura mínima	14.8
43484	7	Sololá	701	Sololá	3	Barraneche	8	Agosto	2023-08-15T00:00:00	2024-11-06T11:00:00	5	Humedad	63
43485	7	Sololá	701	Sololá	3	Barraneche	8	Agosto	2023-08-15T00:00:00	2024-11-06T11:00:00	6	Velocidad del viento	11.3
43486	7	Sololá	701	Sololá	3	Barraneche	8	Agosto	2023-08-15T00:00:00	2024-11-06T11:00:00	7	Dirección del viento	11.27
43487	7	Sololá	701	Sololá	3	Barraneche	8	Agosto	2023-08-15T00:00:00	2024-11-06T11:00:00	1	Precipitación	0
43488	7	Sololá	701	Sololá	3	Barraneche	8	Agosto	2023-08-15T00:00:00	2024-11-06T11:00:00	8	Radiación solar	294
43489	7	Sololá	701	Sololá	3	Barraneche	8	Agosto	2023-08-15T00:00:00	2024-11-06T12:00:00	2	Temperatura media	18.2
43490	7	Sololá	701	Sololá	3	Barraneche	8	Agosto	2023-08-15T00:00:00	2024-11-06T12:00:00	4	Temperatura máxima	18.2
43491	7	Sololá	701	Sololá	3	Barraneche	8	Agosto	2023-08-15T00:00:00	2024-11-06T12:00:00	3	Temperatura mínima	15.6
43492	7	Sololá	701	Sololá	3	Barraneche	8	Agosto	2023-08-15T00:00:00	2024-11-06T12:00:00	5	Humedad	55
43493	7	Sololá	701	Sololá	3	Barraneche	8	Agosto	2023-08-15T00:00:00	2024-11-06T12:00:00	6	Velocidad del viento	12.9
43494	7	Sololá	701	Sololá	3	Barraneche	8	Agosto	2023-08-15T00:00:00	2024-11-06T12:00:00	7	Dirección del viento	12.87
43495	7	Sololá	701	Sololá	3	Barraneche	8	Agosto	2023-08-15T00:00:00	2024-11-06T12:00:00	1	Precipitación	0
43496	7	Sololá	701	Sololá	3	Barraneche	8	Agosto	2023-08-15T00:00:00	2024-11-06T12:00:00	8	Radiación solar	672
43497	7	Sololá	701	Sololá	3	Barraneche	8	Agosto	2023-08-15T00:00:00	2024-11-06T13:00:00	2	Temperatura media	16.8
43498	7	Sololá	701	Sololá	3	Barraneche	8	Agosto	2023-08-15T00:00:00	2024-11-06T13:00:00	4	Temperatura máxima	18.6
43499	7	Sololá	701	Sololá	3	Barraneche	8	Agosto	2023-08-15T00:00:00	2024-11-06T13:00:00	3	Temperatura mínima	16.8
43500	7	Sololá	701	Sololá	3	Barraneche	8	Agosto	2023-08-15T00:00:00	2024-11-06T13:00:00	5	Humedad	57
43501	7	Sololá	701	Sololá	3	Barraneche	8	Agosto	2023-08-15T00:00:00	2024-11-06T13:00:00	6	Velocidad del viento	8
43502	7	Sololá	701	Sololá	3	Barraneche	8	Agosto	2023-08-15T00:00:00	2024-11-06T13:00:00	7	Dirección del viento	8.05
43503	7	Sololá	701	Sololá	3	Barraneche	8	Agosto	2023-08-15T00:00:00	2024-11-06T13:00:00	1	Precipitación	0
43504	7	Sololá	701	Sololá	3	Barraneche	8	Agosto	2023-08-15T00:00:00	2024-11-06T13:00:00	8	Radiación solar	453
43505	7	Sololá	701	Sololá	3	Barraneche	8	Agosto	2023-08-15T00:00:00	2024-11-06T14:00:00	2	Temperatura media	15.4
43506	7	Sololá	701	Sololá	3	Barraneche	8	Agosto	2023-08-15T00:00:00	2024-11-06T14:00:00	4	Temperatura máxima	16.8
43507	7	Sololá	701	Sololá	3	Barraneche	8	Agosto	2023-08-15T00:00:00	2024-11-06T14:00:00	3	Temperatura mínima	15.4
43508	7	Sololá	701	Sololá	3	Barraneche	8	Agosto	2023-08-15T00:00:00	2024-11-06T14:00:00	5	Humedad	64
43509	7	Sololá	701	Sololá	3	Barraneche	8	Agosto	2023-08-15T00:00:00	2024-11-06T14:00:00	6	Velocidad del viento	8
43510	7	Sololá	701	Sololá	3	Barraneche	8	Agosto	2023-08-15T00:00:00	2024-11-06T14:00:00	7	Dirección del viento	8.05
43511	7	Sololá	701	Sololá	3	Barraneche	8	Agosto	2023-08-15T00:00:00	2024-11-06T14:00:00	1	Precipitación	0
43512	7	Sololá	701	Sololá	3	Barraneche	8	Agosto	2023-08-15T00:00:00	2024-11-06T14:00:00	8	Radiación solar	124
43513	7	Sololá	701	Sololá	3	Barraneche	8	Agosto	2023-08-15T00:00:00	2024-11-06T15:00:00	2	Temperatura media	15.8
43514	7	Sololá	701	Sololá	3	Barraneche	8	Agosto	2023-08-15T00:00:00	2024-11-06T15:00:00	4	Temperatura máxima	15.9
43515	7	Sololá	701	Sololá	3	Barraneche	8	Agosto	2023-08-15T00:00:00	2024-11-06T15:00:00	3	Temperatura mínima	15.2
43516	7	Sololá	701	Sololá	3	Barraneche	8	Agosto	2023-08-15T00:00:00	2024-11-06T15:00:00	5	Humedad	62
43517	7	Sololá	701	Sololá	3	Barraneche	8	Agosto	2023-08-15T00:00:00	2024-11-06T15:00:00	6	Velocidad del viento	8
43518	7	Sololá	701	Sololá	3	Barraneche	8	Agosto	2023-08-15T00:00:00	2024-11-06T15:00:00	7	Dirección del viento	8.05
43519	7	Sololá	701	Sololá	3	Barraneche	8	Agosto	2023-08-15T00:00:00	2024-11-06T15:00:00	1	Precipitación	0
43520	7	Sololá	701	Sololá	3	Barraneche	8	Agosto	2023-08-15T00:00:00	2024-11-06T15:00:00	8	Radiación solar	195
43521	7	Sololá	701	Sololá	3	Barraneche	8	Agosto	2023-08-15T00:00:00	2024-11-06T16:00:00	2	Temperatura media	16.4
43522	7	Sololá	701	Sololá	3	Barraneche	8	Agosto	2023-08-15T00:00:00	2024-11-06T16:00:00	4	Temperatura máxima	17.2
43523	7	Sololá	701	Sololá	3	Barraneche	8	Agosto	2023-08-15T00:00:00	2024-11-06T16:00:00	3	Temperatura mínima	15.8
43524	7	Sololá	701	Sololá	3	Barraneche	8	Agosto	2023-08-15T00:00:00	2024-11-06T16:00:00	5	Humedad	61
43525	7	Sololá	701	Sololá	3	Barraneche	8	Agosto	2023-08-15T00:00:00	2024-11-06T16:00:00	6	Velocidad del viento	11.3
43526	7	Sololá	701	Sololá	3	Barraneche	8	Agosto	2023-08-15T00:00:00	2024-11-06T16:00:00	7	Dirección del viento	11.27
43527	7	Sololá	701	Sololá	3	Barraneche	8	Agosto	2023-08-15T00:00:00	2024-11-06T16:00:00	1	Precipitación	0
43528	7	Sololá	701	Sololá	3	Barraneche	8	Agosto	2023-08-15T00:00:00	2024-11-06T16:00:00	8	Radiación solar	375
43529	7	Sololá	701	Sololá	3	Barraneche	8	Agosto	2023-08-15T00:00:00	2024-11-06T17:00:00	2	Temperatura media	16.1
43530	7	Sololá	701	Sololá	3	Barraneche	8	Agosto	2023-08-15T00:00:00	2024-11-06T17:00:00	4	Temperatura máxima	16.4
43531	7	Sololá	701	Sololá	3	Barraneche	8	Agosto	2023-08-15T00:00:00	2024-11-06T17:00:00	3	Temperatura mínima	15.9
43532	7	Sololá	701	Sololá	3	Barraneche	8	Agosto	2023-08-15T00:00:00	2024-11-06T17:00:00	5	Humedad	63
43533	7	Sololá	701	Sololá	3	Barraneche	8	Agosto	2023-08-15T00:00:00	2024-11-06T17:00:00	6	Velocidad del viento	6.4
43534	7	Sololá	701	Sololá	3	Barraneche	8	Agosto	2023-08-15T00:00:00	2024-11-06T17:00:00	7	Dirección del viento	6.44
43535	7	Sololá	701	Sololá	3	Barraneche	8	Agosto	2023-08-15T00:00:00	2024-11-06T17:00:00	1	Precipitación	0
43536	7	Sololá	701	Sololá	3	Barraneche	8	Agosto	2023-08-15T00:00:00	2024-11-06T17:00:00	8	Radiación solar	129
43537	7	Sololá	701	Sololá	3	Barraneche	8	Agosto	2023-08-15T00:00:00	2024-11-06T18:00:00	2	Temperatura media	15.6
43538	7	Sololá	701	Sololá	3	Barraneche	8	Agosto	2023-08-15T00:00:00	2024-11-06T18:00:00	4	Temperatura máxima	16.2
43539	7	Sololá	701	Sololá	3	Barraneche	8	Agosto	2023-08-15T00:00:00	2024-11-06T18:00:00	3	Temperatura mínima	15.6
43540	7	Sololá	701	Sololá	3	Barraneche	8	Agosto	2023-08-15T00:00:00	2024-11-06T18:00:00	5	Humedad	64
43541	7	Sololá	701	Sololá	3	Barraneche	8	Agosto	2023-08-15T00:00:00	2024-11-06T18:00:00	6	Velocidad del viento	3.2
43542	7	Sololá	701	Sololá	3	Barraneche	8	Agosto	2023-08-15T00:00:00	2024-11-06T18:00:00	7	Dirección del viento	3.22
43543	7	Sololá	701	Sololá	3	Barraneche	8	Agosto	2023-08-15T00:00:00	2024-11-06T18:00:00	1	Precipitación	0
43544	7	Sololá	701	Sololá	3	Barraneche	8	Agosto	2023-08-15T00:00:00	2024-11-06T18:00:00	8	Radiación solar	56
43545	7	Sololá	701	Sololá	3	Barraneche	8	Agosto	2023-08-15T00:00:00	2024-11-06T19:00:00	2	Temperatura media	15.1
43546	7	Sololá	701	Sololá	3	Barraneche	8	Agosto	2023-08-15T00:00:00	2024-11-06T19:00:00	4	Temperatura máxima	15.6
43547	7	Sololá	701	Sololá	3	Barraneche	8	Agosto	2023-08-15T00:00:00	2024-11-06T19:00:00	3	Temperatura mínima	15.1
43548	7	Sololá	701	Sololá	3	Barraneche	8	Agosto	2023-08-15T00:00:00	2024-11-06T19:00:00	5	Humedad	63
43549	7	Sololá	701	Sololá	3	Barraneche	8	Agosto	2023-08-15T00:00:00	2024-11-06T19:00:00	6	Velocidad del viento	3.2
43550	7	Sololá	701	Sololá	3	Barraneche	8	Agosto	2023-08-15T00:00:00	2024-11-06T19:00:00	7	Dirección del viento	3.22
43551	7	Sololá	701	Sololá	3	Barraneche	8	Agosto	2023-08-15T00:00:00	2024-11-06T19:00:00	1	Precipitación	0
43552	7	Sololá	701	Sololá	3	Barraneche	8	Agosto	2023-08-15T00:00:00	2024-11-06T19:00:00	8	Radiación solar	0
43553	7	Sololá	701	Sololá	3	Barraneche	8	Agosto	2023-08-15T00:00:00	2024-11-06T20:00:00	2	Temperatura media	14.2
43554	7	Sololá	701	Sololá	3	Barraneche	8	Agosto	2023-08-15T00:00:00	2024-11-06T20:00:00	4	Temperatura máxima	15.2
43555	7	Sololá	701	Sololá	3	Barraneche	8	Agosto	2023-08-15T00:00:00	2024-11-06T20:00:00	3	Temperatura mínima	14.2
43556	7	Sololá	701	Sololá	3	Barraneche	8	Agosto	2023-08-15T00:00:00	2024-11-06T20:00:00	5	Humedad	67
43557	7	Sololá	701	Sololá	3	Barraneche	8	Agosto	2023-08-15T00:00:00	2024-11-06T20:00:00	6	Velocidad del viento	3.2
43558	7	Sololá	701	Sololá	3	Barraneche	8	Agosto	2023-08-15T00:00:00	2024-11-06T20:00:00	7	Dirección del viento	3.22
43559	7	Sololá	701	Sololá	3	Barraneche	8	Agosto	2023-08-15T00:00:00	2024-11-06T20:00:00	1	Precipitación	0
43560	7	Sololá	701	Sololá	3	Barraneche	8	Agosto	2023-08-15T00:00:00	2024-11-06T20:00:00	8	Radiación solar	0
43561	7	Sololá	701	Sololá	3	Barraneche	8	Agosto	2023-08-15T00:00:00	2024-11-06T21:00:00	2	Temperatura media	13.7
43562	7	Sololá	701	Sololá	3	Barraneche	8	Agosto	2023-08-15T00:00:00	2024-11-06T21:00:00	4	Temperatura máxima	14.7
43563	7	Sololá	701	Sololá	3	Barraneche	8	Agosto	2023-08-15T00:00:00	2024-11-06T21:00:00	3	Temperatura mínima	13.7
43564	7	Sololá	701	Sololá	3	Barraneche	8	Agosto	2023-08-15T00:00:00	2024-11-06T21:00:00	5	Humedad	69
43565	7	Sololá	701	Sololá	3	Barraneche	8	Agosto	2023-08-15T00:00:00	2024-11-06T21:00:00	6	Velocidad del viento	4.8
43566	7	Sololá	701	Sololá	3	Barraneche	8	Agosto	2023-08-15T00:00:00	2024-11-06T21:00:00	7	Dirección del viento	4.83
43567	7	Sololá	701	Sololá	3	Barraneche	8	Agosto	2023-08-15T00:00:00	2024-11-06T21:00:00	1	Precipitación	0
43568	7	Sololá	701	Sololá	3	Barraneche	8	Agosto	2023-08-15T00:00:00	2024-11-06T21:00:00	8	Radiación solar	0
43569	7	Sololá	701	Sololá	3	Barraneche	8	Agosto	2023-08-15T00:00:00	2024-11-06T22:00:00	2	Temperatura media	13.2
43570	7	Sololá	701	Sololá	3	Barraneche	8	Agosto	2023-08-15T00:00:00	2024-11-06T22:00:00	4	Temperatura máxima	13.8
43571	7	Sololá	701	Sololá	3	Barraneche	8	Agosto	2023-08-15T00:00:00	2024-11-06T22:00:00	3	Temperatura mínima	13.2
43572	7	Sololá	701	Sololá	3	Barraneche	8	Agosto	2023-08-15T00:00:00	2024-11-06T22:00:00	5	Humedad	70
43573	7	Sololá	701	Sololá	3	Barraneche	8	Agosto	2023-08-15T00:00:00	2024-11-06T22:00:00	6	Velocidad del viento	4.8
43574	7	Sololá	701	Sololá	3	Barraneche	8	Agosto	2023-08-15T00:00:00	2024-11-06T22:00:00	7	Dirección del viento	4.83
43575	7	Sololá	701	Sololá	3	Barraneche	8	Agosto	2023-08-15T00:00:00	2024-11-06T22:00:00	1	Precipitación	0
43576	7	Sololá	701	Sololá	3	Barraneche	8	Agosto	2023-08-15T00:00:00	2024-11-06T22:00:00	8	Radiación solar	0
43577	7	Sololá	701	Sololá	3	Barraneche	8	Agosto	2023-08-15T00:00:00	2024-11-06T23:00:00	2	Temperatura media	14.3
43578	7	Sololá	701	Sololá	3	Barraneche	8	Agosto	2023-08-15T00:00:00	2024-11-06T23:00:00	4	Temperatura máxima	14.3
43579	7	Sololá	701	Sololá	3	Barraneche	8	Agosto	2023-08-15T00:00:00	2024-11-06T23:00:00	3	Temperatura mínima	13.2
43580	7	Sololá	701	Sololá	3	Barraneche	8	Agosto	2023-08-15T00:00:00	2024-11-06T23:00:00	5	Humedad	65
43581	7	Sololá	701	Sololá	3	Barraneche	8	Agosto	2023-08-15T00:00:00	2024-11-06T23:00:00	6	Velocidad del viento	4.8
43582	7	Sololá	701	Sololá	3	Barraneche	8	Agosto	2023-08-15T00:00:00	2024-11-06T23:00:00	7	Dirección del viento	4.83
43583	7	Sololá	701	Sololá	3	Barraneche	8	Agosto	2023-08-15T00:00:00	2024-11-06T23:00:00	1	Precipitación	0
43584	7	Sololá	701	Sololá	3	Barraneche	8	Agosto	2023-08-15T00:00:00	2024-11-06T23:00:00	8	Radiación solar	0
43585	7	Sololá	701	Sololá	3	Barraneche	8	Agosto	2023-08-16T00:00:00	2024-11-06T00:00:00	2	Temperatura media	13.7
43586	7	Sololá	701	Sololá	3	Barraneche	8	Agosto	2023-08-16T00:00:00	2024-11-06T00:00:00	4	Temperatura máxima	14.4
43587	7	Sololá	701	Sololá	3	Barraneche	8	Agosto	2023-08-16T00:00:00	2024-11-06T00:00:00	3	Temperatura mínima	13.6
43588	7	Sololá	701	Sololá	3	Barraneche	8	Agosto	2023-08-16T00:00:00	2024-11-06T00:00:00	5	Humedad	68
43589	7	Sololá	701	Sololá	3	Barraneche	8	Agosto	2023-08-16T00:00:00	2024-11-06T00:00:00	6	Velocidad del viento	4.8
43590	7	Sololá	701	Sololá	3	Barraneche	8	Agosto	2023-08-16T00:00:00	2024-11-06T00:00:00	7	Dirección del viento	4.83
43591	7	Sololá	701	Sololá	3	Barraneche	8	Agosto	2023-08-16T00:00:00	2024-11-06T00:00:00	1	Precipitación	0
43592	7	Sololá	701	Sololá	3	Barraneche	8	Agosto	2023-08-16T00:00:00	2024-11-06T00:00:00	8	Radiación solar	0
43593	7	Sololá	701	Sololá	3	Barraneche	8	Agosto	2023-08-16T00:00:00	2024-11-06T01:00:00	2	Temperatura media	13.3
43594	7	Sololá	701	Sololá	3	Barraneche	8	Agosto	2023-08-16T00:00:00	2024-11-06T01:00:00	4	Temperatura máxima	14.1
43595	7	Sololá	701	Sololá	3	Barraneche	8	Agosto	2023-08-16T00:00:00	2024-11-06T01:00:00	3	Temperatura mínima	13.1
43596	7	Sololá	701	Sololá	3	Barraneche	8	Agosto	2023-08-16T00:00:00	2024-11-06T01:00:00	5	Humedad	66
43597	7	Sololá	701	Sololá	3	Barraneche	8	Agosto	2023-08-16T00:00:00	2024-11-06T01:00:00	6	Velocidad del viento	4.8
43598	7	Sololá	701	Sololá	3	Barraneche	8	Agosto	2023-08-16T00:00:00	2024-11-06T01:00:00	7	Dirección del viento	4.83
43599	7	Sololá	701	Sololá	3	Barraneche	8	Agosto	2023-08-16T00:00:00	2024-11-06T01:00:00	1	Precipitación	0
43600	7	Sololá	701	Sololá	3	Barraneche	8	Agosto	2023-08-16T00:00:00	2024-11-06T01:00:00	8	Radiación solar	0
43601	7	Sololá	701	Sololá	3	Barraneche	8	Agosto	2023-08-16T00:00:00	2024-11-06T02:00:00	2	Temperatura media	11.9
43602	7	Sololá	701	Sololá	3	Barraneche	8	Agosto	2023-08-16T00:00:00	2024-11-06T02:00:00	4	Temperatura máxima	13.3
43603	7	Sololá	701	Sololá	3	Barraneche	8	Agosto	2023-08-16T00:00:00	2024-11-06T02:00:00	3	Temperatura mínima	11.9
43604	7	Sololá	701	Sololá	3	Barraneche	8	Agosto	2023-08-16T00:00:00	2024-11-06T02:00:00	5	Humedad	69
43605	7	Sololá	701	Sololá	3	Barraneche	8	Agosto	2023-08-16T00:00:00	2024-11-06T02:00:00	6	Velocidad del viento	3.2
43606	7	Sololá	701	Sololá	3	Barraneche	8	Agosto	2023-08-16T00:00:00	2024-11-06T02:00:00	7	Dirección del viento	3.22
43607	7	Sololá	701	Sololá	3	Barraneche	8	Agosto	2023-08-16T00:00:00	2024-11-06T02:00:00	1	Precipitación	0
43608	7	Sololá	701	Sololá	3	Barraneche	8	Agosto	2023-08-16T00:00:00	2024-11-06T02:00:00	8	Radiación solar	0
43609	7	Sololá	701	Sololá	3	Barraneche	8	Agosto	2023-08-16T00:00:00	2024-11-06T03:00:00	2	Temperatura media	12.3
43610	7	Sololá	701	Sololá	3	Barraneche	8	Agosto	2023-08-16T00:00:00	2024-11-06T03:00:00	4	Temperatura máxima	12.3
43611	7	Sololá	701	Sololá	3	Barraneche	8	Agosto	2023-08-16T00:00:00	2024-11-06T03:00:00	3	Temperatura mínima	11.8
43612	7	Sololá	701	Sololá	3	Barraneche	8	Agosto	2023-08-16T00:00:00	2024-11-06T03:00:00	5	Humedad	69
43613	7	Sololá	701	Sololá	3	Barraneche	8	Agosto	2023-08-16T00:00:00	2024-11-06T03:00:00	6	Velocidad del viento	3.2
43614	7	Sololá	701	Sololá	3	Barraneche	8	Agosto	2023-08-16T00:00:00	2024-11-06T03:00:00	7	Dirección del viento	3.22
43615	7	Sololá	701	Sololá	3	Barraneche	8	Agosto	2023-08-16T00:00:00	2024-11-06T03:00:00	1	Precipitación	0
43616	7	Sololá	701	Sololá	3	Barraneche	8	Agosto	2023-08-16T00:00:00	2024-11-06T03:00:00	8	Radiación solar	0
43617	7	Sololá	701	Sololá	3	Barraneche	8	Agosto	2023-08-16T00:00:00	2024-11-06T04:00:00	2	Temperatura media	12.2
43618	7	Sololá	701	Sololá	3	Barraneche	8	Agosto	2023-08-16T00:00:00	2024-11-06T04:00:00	4	Temperatura máxima	12.3
43619	7	Sololá	701	Sololá	3	Barraneche	8	Agosto	2023-08-16T00:00:00	2024-11-06T04:00:00	3	Temperatura mínima	11.7
43620	7	Sololá	701	Sololá	3	Barraneche	8	Agosto	2023-08-16T00:00:00	2024-11-06T04:00:00	5	Humedad	70
43621	7	Sololá	701	Sololá	3	Barraneche	8	Agosto	2023-08-16T00:00:00	2024-11-06T04:00:00	6	Velocidad del viento	3.2
43622	7	Sololá	701	Sololá	3	Barraneche	8	Agosto	2023-08-16T00:00:00	2024-11-06T04:00:00	7	Dirección del viento	3.22
43623	7	Sololá	701	Sololá	3	Barraneche	8	Agosto	2023-08-16T00:00:00	2024-11-06T04:00:00	1	Precipitación	0
43624	7	Sololá	701	Sololá	3	Barraneche	8	Agosto	2023-08-16T00:00:00	2024-11-06T04:00:00	8	Radiación solar	0
43625	7	Sololá	701	Sololá	3	Barraneche	8	Agosto	2023-08-16T00:00:00	2024-11-06T05:00:00	2	Temperatura media	14.7
43626	7	Sololá	701	Sololá	3	Barraneche	8	Agosto	2023-08-16T00:00:00	2024-11-06T05:00:00	4	Temperatura máxima	14.8
43627	7	Sololá	701	Sololá	3	Barraneche	8	Agosto	2023-08-16T00:00:00	2024-11-06T05:00:00	3	Temperatura mínima	12.1
43628	7	Sololá	701	Sololá	3	Barraneche	8	Agosto	2023-08-16T00:00:00	2024-11-06T05:00:00	5	Humedad	60
43629	7	Sololá	701	Sololá	3	Barraneche	8	Agosto	2023-08-16T00:00:00	2024-11-06T05:00:00	6	Velocidad del viento	6.4
43630	7	Sololá	701	Sololá	3	Barraneche	8	Agosto	2023-08-16T00:00:00	2024-11-06T05:00:00	7	Dirección del viento	6.44
43631	7	Sololá	701	Sololá	3	Barraneche	8	Agosto	2023-08-16T00:00:00	2024-11-06T05:00:00	1	Precipitación	0
43632	7	Sololá	701	Sololá	3	Barraneche	8	Agosto	2023-08-16T00:00:00	2024-11-06T05:00:00	8	Radiación solar	0
43633	7	Sololá	701	Sololá	3	Barraneche	8	Agosto	2023-08-16T00:00:00	2024-11-06T06:00:00	2	Temperatura media	14.2
43634	7	Sololá	701	Sololá	3	Barraneche	8	Agosto	2023-08-16T00:00:00	2024-11-06T06:00:00	4	Temperatura máxima	14.7
43635	7	Sololá	701	Sololá	3	Barraneche	8	Agosto	2023-08-16T00:00:00	2024-11-06T06:00:00	3	Temperatura mínima	13.8
43636	7	Sololá	701	Sololá	3	Barraneche	8	Agosto	2023-08-16T00:00:00	2024-11-06T06:00:00	5	Humedad	60
43637	7	Sololá	701	Sololá	3	Barraneche	8	Agosto	2023-08-16T00:00:00	2024-11-06T06:00:00	6	Velocidad del viento	6.4
43638	7	Sololá	701	Sololá	3	Barraneche	8	Agosto	2023-08-16T00:00:00	2024-11-06T06:00:00	7	Dirección del viento	6.44
43639	7	Sololá	701	Sololá	3	Barraneche	8	Agosto	2023-08-16T00:00:00	2024-11-06T06:00:00	1	Precipitación	0
43640	7	Sololá	701	Sololá	3	Barraneche	8	Agosto	2023-08-16T00:00:00	2024-11-06T06:00:00	8	Radiación solar	1
43641	7	Sololá	701	Sololá	3	Barraneche	8	Agosto	2023-08-16T00:00:00	2024-11-06T07:00:00	2	Temperatura media	13.5
43642	7	Sololá	701	Sololá	3	Barraneche	8	Agosto	2023-08-16T00:00:00	2024-11-06T07:00:00	4	Temperatura máxima	14.2
43643	7	Sololá	701	Sololá	3	Barraneche	8	Agosto	2023-08-16T00:00:00	2024-11-06T07:00:00	3	Temperatura mínima	13.2
43644	7	Sololá	701	Sololá	3	Barraneche	8	Agosto	2023-08-16T00:00:00	2024-11-06T07:00:00	5	Humedad	65
43645	7	Sololá	701	Sololá	3	Barraneche	8	Agosto	2023-08-16T00:00:00	2024-11-06T07:00:00	6	Velocidad del viento	4.8
43646	7	Sololá	701	Sololá	3	Barraneche	8	Agosto	2023-08-16T00:00:00	2024-11-06T07:00:00	7	Dirección del viento	4.83
43647	7	Sololá	701	Sololá	3	Barraneche	8	Agosto	2023-08-16T00:00:00	2024-11-06T07:00:00	1	Precipitación	0
43648	7	Sololá	701	Sololá	3	Barraneche	8	Agosto	2023-08-16T00:00:00	2024-11-06T07:00:00	8	Radiación solar	52
43649	7	Sololá	701	Sololá	3	Barraneche	8	Agosto	2023-08-16T00:00:00	2024-11-06T08:00:00	2	Temperatura media	14.6
43650	7	Sololá	701	Sololá	3	Barraneche	8	Agosto	2023-08-16T00:00:00	2024-11-06T08:00:00	4	Temperatura máxima	14.7
43651	7	Sololá	701	Sololá	3	Barraneche	8	Agosto	2023-08-16T00:00:00	2024-11-06T08:00:00	3	Temperatura mínima	13.4
43652	7	Sololá	701	Sololá	3	Barraneche	8	Agosto	2023-08-16T00:00:00	2024-11-06T08:00:00	5	Humedad	66
43653	7	Sololá	701	Sololá	3	Barraneche	8	Agosto	2023-08-16T00:00:00	2024-11-06T08:00:00	6	Velocidad del viento	1.6
43654	7	Sololá	701	Sololá	3	Barraneche	8	Agosto	2023-08-16T00:00:00	2024-11-06T08:00:00	7	Dirección del viento	1.61
43655	7	Sololá	701	Sololá	3	Barraneche	8	Agosto	2023-08-16T00:00:00	2024-11-06T08:00:00	1	Precipitación	0
43656	7	Sololá	701	Sololá	3	Barraneche	8	Agosto	2023-08-16T00:00:00	2024-11-06T08:00:00	8	Radiación solar	183
43657	7	Sololá	701	Sololá	3	Barraneche	8	Agosto	2023-08-16T00:00:00	2024-11-06T09:00:00	2	Temperatura media	17.1
43658	7	Sololá	701	Sololá	3	Barraneche	8	Agosto	2023-08-16T00:00:00	2024-11-06T09:00:00	4	Temperatura máxima	17.1
43659	7	Sololá	701	Sololá	3	Barraneche	8	Agosto	2023-08-16T00:00:00	2024-11-06T09:00:00	3	Temperatura mínima	14.6
43660	7	Sololá	701	Sololá	3	Barraneche	8	Agosto	2023-08-16T00:00:00	2024-11-06T09:00:00	5	Humedad	56
43661	7	Sololá	701	Sololá	3	Barraneche	8	Agosto	2023-08-16T00:00:00	2024-11-06T09:00:00	6	Velocidad del viento	8
43662	7	Sololá	701	Sololá	3	Barraneche	8	Agosto	2023-08-16T00:00:00	2024-11-06T09:00:00	7	Dirección del viento	8.05
43663	7	Sololá	701	Sololá	3	Barraneche	8	Agosto	2023-08-16T00:00:00	2024-11-06T09:00:00	1	Precipitación	0
43664	7	Sololá	701	Sololá	3	Barraneche	8	Agosto	2023-08-16T00:00:00	2024-11-06T09:00:00	8	Radiación solar	511
43665	7	Sololá	701	Sololá	3	Barraneche	8	Agosto	2023-08-16T00:00:00	2024-11-06T10:00:00	2	Temperatura media	17.3
43666	7	Sololá	701	Sololá	3	Barraneche	8	Agosto	2023-08-16T00:00:00	2024-11-06T10:00:00	4	Temperatura máxima	17.3
43667	7	Sololá	701	Sololá	3	Barraneche	8	Agosto	2023-08-16T00:00:00	2024-11-06T10:00:00	3	Temperatura mínima	16.3
43668	7	Sololá	701	Sololá	3	Barraneche	8	Agosto	2023-08-16T00:00:00	2024-11-06T10:00:00	5	Humedad	57
43669	7	Sololá	701	Sololá	3	Barraneche	8	Agosto	2023-08-16T00:00:00	2024-11-06T10:00:00	6	Velocidad del viento	16.1
43670	7	Sololá	701	Sololá	3	Barraneche	8	Agosto	2023-08-16T00:00:00	2024-11-06T10:00:00	7	Dirección del viento	16.09
43671	7	Sololá	701	Sololá	3	Barraneche	8	Agosto	2023-08-16T00:00:00	2024-11-06T10:00:00	1	Precipitación	0
43672	7	Sololá	701	Sololá	3	Barraneche	8	Agosto	2023-08-16T00:00:00	2024-11-06T10:00:00	8	Radiación solar	819
43673	7	Sololá	701	Sololá	3	Barraneche	8	Agosto	2023-08-16T00:00:00	2024-11-06T11:00:00	2	Temperatura media	19.2
43674	7	Sololá	701	Sololá	3	Barraneche	8	Agosto	2023-08-16T00:00:00	2024-11-06T11:00:00	4	Temperatura máxima	19.4
43675	7	Sololá	701	Sololá	3	Barraneche	8	Agosto	2023-08-16T00:00:00	2024-11-06T11:00:00	3	Temperatura mínima	17.3
43676	7	Sololá	701	Sololá	3	Barraneche	8	Agosto	2023-08-16T00:00:00	2024-11-06T11:00:00	5	Humedad	52
43677	7	Sololá	701	Sololá	3	Barraneche	8	Agosto	2023-08-16T00:00:00	2024-11-06T11:00:00	6	Velocidad del viento	14.5
43678	7	Sololá	701	Sololá	3	Barraneche	8	Agosto	2023-08-16T00:00:00	2024-11-06T11:00:00	7	Dirección del viento	14.48
43679	7	Sololá	701	Sololá	3	Barraneche	8	Agosto	2023-08-16T00:00:00	2024-11-06T11:00:00	1	Precipitación	0
43680	7	Sololá	701	Sololá	3	Barraneche	8	Agosto	2023-08-16T00:00:00	2024-11-06T11:00:00	8	Radiación solar	894
43681	7	Sololá	701	Sololá	3	Barraneche	8	Agosto	2023-08-16T00:00:00	2024-11-06T12:00:00	2	Temperatura media	19.1
43682	7	Sololá	701	Sololá	3	Barraneche	8	Agosto	2023-08-16T00:00:00	2024-11-06T12:00:00	4	Temperatura máxima	19.6
43683	7	Sololá	701	Sololá	3	Barraneche	8	Agosto	2023-08-16T00:00:00	2024-11-06T12:00:00	3	Temperatura mínima	18.6
43684	7	Sololá	701	Sololá	3	Barraneche	8	Agosto	2023-08-16T00:00:00	2024-11-06T12:00:00	5	Humedad	55
43685	7	Sololá	701	Sololá	3	Barraneche	8	Agosto	2023-08-16T00:00:00	2024-11-06T12:00:00	6	Velocidad del viento	9.7
43686	7	Sololá	701	Sololá	3	Barraneche	8	Agosto	2023-08-16T00:00:00	2024-11-06T12:00:00	7	Dirección del viento	9.66
43687	7	Sololá	701	Sololá	3	Barraneche	8	Agosto	2023-08-16T00:00:00	2024-11-06T12:00:00	1	Precipitación	0
43688	7	Sololá	701	Sololá	3	Barraneche	8	Agosto	2023-08-16T00:00:00	2024-11-06T12:00:00	8	Radiación solar	763
43689	7	Sololá	701	Sololá	3	Barraneche	8	Agosto	2023-08-16T00:00:00	2024-11-06T13:00:00	2	Temperatura media	19.9
43690	7	Sololá	701	Sololá	3	Barraneche	8	Agosto	2023-08-16T00:00:00	2024-11-06T13:00:00	4	Temperatura máxima	19.9
43691	7	Sololá	701	Sololá	3	Barraneche	8	Agosto	2023-08-16T00:00:00	2024-11-06T13:00:00	3	Temperatura mínima	17.8
43692	7	Sololá	701	Sololá	3	Barraneche	8	Agosto	2023-08-16T00:00:00	2024-11-06T13:00:00	5	Humedad	53
43693	7	Sololá	701	Sololá	3	Barraneche	8	Agosto	2023-08-16T00:00:00	2024-11-06T13:00:00	6	Velocidad del viento	11.3
43694	7	Sololá	701	Sololá	3	Barraneche	8	Agosto	2023-08-16T00:00:00	2024-11-06T13:00:00	7	Dirección del viento	11.27
43695	7	Sololá	701	Sololá	3	Barraneche	8	Agosto	2023-08-16T00:00:00	2024-11-06T13:00:00	1	Precipitación	0
43696	7	Sololá	701	Sololá	3	Barraneche	8	Agosto	2023-08-16T00:00:00	2024-11-06T13:00:00	8	Radiación solar	794
43697	7	Sololá	701	Sololá	3	Barraneche	8	Agosto	2023-08-16T00:00:00	2024-11-06T14:00:00	2	Temperatura media	19.2
43698	7	Sololá	701	Sololá	3	Barraneche	8	Agosto	2023-08-16T00:00:00	2024-11-06T14:00:00	4	Temperatura máxima	19.9
43699	7	Sololá	701	Sololá	3	Barraneche	8	Agosto	2023-08-16T00:00:00	2024-11-06T14:00:00	3	Temperatura mínima	18.7
43700	7	Sololá	701	Sololá	3	Barraneche	8	Agosto	2023-08-16T00:00:00	2024-11-06T14:00:00	5	Humedad	54
43701	7	Sololá	701	Sololá	3	Barraneche	8	Agosto	2023-08-16T00:00:00	2024-11-06T14:00:00	6	Velocidad del viento	8
43702	7	Sololá	701	Sololá	3	Barraneche	8	Agosto	2023-08-16T00:00:00	2024-11-06T14:00:00	7	Dirección del viento	8.05
43703	7	Sololá	701	Sololá	3	Barraneche	8	Agosto	2023-08-16T00:00:00	2024-11-06T14:00:00	1	Precipitación	0
43704	7	Sololá	701	Sololá	3	Barraneche	8	Agosto	2023-08-16T00:00:00	2024-11-06T14:00:00	8	Radiación solar	439
43705	7	Sololá	701	Sololá	3	Barraneche	8	Agosto	2023-08-16T00:00:00	2024-11-06T15:00:00	2	Temperatura media	19.4
43706	7	Sololá	701	Sololá	3	Barraneche	8	Agosto	2023-08-16T00:00:00	2024-11-06T15:00:00	4	Temperatura máxima	19.6
43707	7	Sololá	701	Sololá	3	Barraneche	8	Agosto	2023-08-16T00:00:00	2024-11-06T15:00:00	3	Temperatura mínima	18.6
43708	7	Sololá	701	Sololá	3	Barraneche	8	Agosto	2023-08-16T00:00:00	2024-11-06T15:00:00	5	Humedad	55
43709	7	Sololá	701	Sololá	3	Barraneche	8	Agosto	2023-08-16T00:00:00	2024-11-06T15:00:00	6	Velocidad del viento	11.3
43710	7	Sololá	701	Sololá	3	Barraneche	8	Agosto	2023-08-16T00:00:00	2024-11-06T15:00:00	7	Dirección del viento	11.27
43711	7	Sololá	701	Sololá	3	Barraneche	8	Agosto	2023-08-16T00:00:00	2024-11-06T15:00:00	1	Precipitación	0
43712	7	Sololá	701	Sololá	3	Barraneche	8	Agosto	2023-08-16T00:00:00	2024-11-06T15:00:00	8	Radiación solar	401
43713	7	Sololá	701	Sololá	3	Barraneche	8	Agosto	2023-08-16T00:00:00	2024-11-06T16:00:00	2	Temperatura media	17.3
43714	7	Sololá	701	Sololá	3	Barraneche	8	Agosto	2023-08-16T00:00:00	2024-11-06T16:00:00	4	Temperatura máxima	19.4
43715	7	Sololá	701	Sololá	3	Barraneche	8	Agosto	2023-08-16T00:00:00	2024-11-06T16:00:00	3	Temperatura mínima	17.2
43716	7	Sololá	701	Sololá	3	Barraneche	8	Agosto	2023-08-16T00:00:00	2024-11-06T16:00:00	5	Humedad	59
43717	7	Sololá	701	Sololá	3	Barraneche	8	Agosto	2023-08-16T00:00:00	2024-11-06T16:00:00	6	Velocidad del viento	11.3
43718	7	Sololá	701	Sololá	3	Barraneche	8	Agosto	2023-08-16T00:00:00	2024-11-06T16:00:00	7	Dirección del viento	11.27
43719	7	Sololá	701	Sololá	3	Barraneche	8	Agosto	2023-08-16T00:00:00	2024-11-06T16:00:00	1	Precipitación	0
43720	7	Sololá	701	Sololá	3	Barraneche	8	Agosto	2023-08-16T00:00:00	2024-11-06T16:00:00	8	Radiación solar	260
43721	7	Sololá	701	Sololá	3	Barraneche	8	Agosto	2023-08-16T00:00:00	2024-11-06T17:00:00	2	Temperatura media	16.7
43722	7	Sololá	701	Sololá	3	Barraneche	8	Agosto	2023-08-16T00:00:00	2024-11-06T17:00:00	4	Temperatura máxima	17.4
43723	7	Sololá	701	Sololá	3	Barraneche	8	Agosto	2023-08-16T00:00:00	2024-11-06T17:00:00	3	Temperatura mínima	16.6
43724	7	Sololá	701	Sololá	3	Barraneche	8	Agosto	2023-08-16T00:00:00	2024-11-06T17:00:00	5	Humedad	59
43725	7	Sololá	701	Sololá	3	Barraneche	8	Agosto	2023-08-16T00:00:00	2024-11-06T17:00:00	6	Velocidad del viento	6.4
43726	7	Sololá	701	Sololá	3	Barraneche	8	Agosto	2023-08-16T00:00:00	2024-11-06T17:00:00	7	Dirección del viento	6.44
43727	7	Sololá	701	Sololá	3	Barraneche	8	Agosto	2023-08-16T00:00:00	2024-11-06T17:00:00	1	Precipitación	0
43728	7	Sololá	701	Sololá	3	Barraneche	8	Agosto	2023-08-16T00:00:00	2024-11-06T17:00:00	8	Radiación solar	111
43729	7	Sololá	701	Sololá	3	Barraneche	8	Agosto	2023-08-16T00:00:00	2024-11-06T18:00:00	2	Temperatura media	15.9
43730	7	Sololá	701	Sololá	3	Barraneche	8	Agosto	2023-08-16T00:00:00	2024-11-06T18:00:00	4	Temperatura máxima	16.7
43731	7	Sololá	701	Sololá	3	Barraneche	8	Agosto	2023-08-16T00:00:00	2024-11-06T18:00:00	3	Temperatura mínima	15.9
43732	7	Sololá	701	Sololá	3	Barraneche	8	Agosto	2023-08-16T00:00:00	2024-11-06T18:00:00	5	Humedad	62
43733	7	Sololá	701	Sololá	3	Barraneche	8	Agosto	2023-08-16T00:00:00	2024-11-06T18:00:00	6	Velocidad del viento	6.4
43734	7	Sololá	701	Sololá	3	Barraneche	8	Agosto	2023-08-16T00:00:00	2024-11-06T18:00:00	7	Dirección del viento	6.44
43735	7	Sololá	701	Sololá	3	Barraneche	8	Agosto	2023-08-16T00:00:00	2024-11-06T18:00:00	1	Precipitación	0
43736	7	Sololá	701	Sololá	3	Barraneche	8	Agosto	2023-08-16T00:00:00	2024-11-06T18:00:00	8	Radiación solar	52
43737	7	Sololá	701	Sololá	3	Barraneche	8	Agosto	2023-08-16T00:00:00	2024-11-06T19:00:00	2	Temperatura media	15.1
43738	7	Sololá	701	Sololá	3	Barraneche	8	Agosto	2023-08-16T00:00:00	2024-11-06T19:00:00	4	Temperatura máxima	15.9
43739	7	Sololá	701	Sololá	3	Barraneche	8	Agosto	2023-08-16T00:00:00	2024-11-06T19:00:00	3	Temperatura mínima	15.1
43740	7	Sololá	701	Sololá	3	Barraneche	8	Agosto	2023-08-16T00:00:00	2024-11-06T19:00:00	5	Humedad	63
43741	7	Sololá	701	Sololá	3	Barraneche	8	Agosto	2023-08-16T00:00:00	2024-11-06T19:00:00	6	Velocidad del viento	8
43742	7	Sololá	701	Sololá	3	Barraneche	8	Agosto	2023-08-16T00:00:00	2024-11-06T19:00:00	7	Dirección del viento	8.05
43743	7	Sololá	701	Sololá	3	Barraneche	8	Agosto	2023-08-16T00:00:00	2024-11-06T19:00:00	1	Precipitación	0
43744	7	Sololá	701	Sololá	3	Barraneche	8	Agosto	2023-08-16T00:00:00	2024-11-06T19:00:00	8	Radiación solar	0
43745	7	Sololá	701	Sololá	3	Barraneche	8	Agosto	2023-08-16T00:00:00	2024-11-06T20:00:00	2	Temperatura media	15.1
43746	7	Sololá	701	Sololá	3	Barraneche	8	Agosto	2023-08-16T00:00:00	2024-11-06T20:00:00	4	Temperatura máxima	15.2
43747	7	Sololá	701	Sololá	3	Barraneche	8	Agosto	2023-08-16T00:00:00	2024-11-06T20:00:00	3	Temperatura mínima	14.9
43748	7	Sololá	701	Sololá	3	Barraneche	8	Agosto	2023-08-16T00:00:00	2024-11-06T20:00:00	5	Humedad	65
43749	7	Sololá	701	Sololá	3	Barraneche	8	Agosto	2023-08-16T00:00:00	2024-11-06T20:00:00	6	Velocidad del viento	4.8
43750	7	Sololá	701	Sololá	3	Barraneche	8	Agosto	2023-08-16T00:00:00	2024-11-06T20:00:00	7	Dirección del viento	4.83
43751	7	Sololá	701	Sololá	3	Barraneche	8	Agosto	2023-08-16T00:00:00	2024-11-06T20:00:00	1	Precipitación	0
43752	7	Sololá	701	Sololá	3	Barraneche	8	Agosto	2023-08-16T00:00:00	2024-11-06T20:00:00	8	Radiación solar	0
43753	7	Sololá	701	Sololá	3	Barraneche	8	Agosto	2023-08-16T00:00:00	2024-11-06T21:00:00	2	Temperatura media	15.2
43754	7	Sololá	701	Sololá	3	Barraneche	8	Agosto	2023-08-16T00:00:00	2024-11-06T21:00:00	4	Temperatura máxima	15.2
43755	7	Sololá	701	Sololá	3	Barraneche	8	Agosto	2023-08-16T00:00:00	2024-11-06T21:00:00	3	Temperatura mínima	14.9
43756	7	Sololá	701	Sololá	3	Barraneche	8	Agosto	2023-08-16T00:00:00	2024-11-06T21:00:00	5	Humedad	63
43757	7	Sololá	701	Sololá	3	Barraneche	8	Agosto	2023-08-16T00:00:00	2024-11-06T21:00:00	6	Velocidad del viento	4.8
43758	7	Sololá	701	Sololá	3	Barraneche	8	Agosto	2023-08-16T00:00:00	2024-11-06T21:00:00	7	Dirección del viento	4.83
43759	7	Sololá	701	Sololá	3	Barraneche	8	Agosto	2023-08-16T00:00:00	2024-11-06T21:00:00	1	Precipitación	0
43760	7	Sololá	701	Sololá	3	Barraneche	8	Agosto	2023-08-16T00:00:00	2024-11-06T21:00:00	8	Radiación solar	0
43761	7	Sololá	701	Sololá	3	Barraneche	8	Agosto	2023-08-16T00:00:00	2024-11-06T22:00:00	2	Temperatura media	14.2
43762	7	Sololá	701	Sololá	3	Barraneche	8	Agosto	2023-08-16T00:00:00	2024-11-06T22:00:00	4	Temperatura máxima	15.2
43763	7	Sololá	701	Sololá	3	Barraneche	8	Agosto	2023-08-16T00:00:00	2024-11-06T22:00:00	3	Temperatura mínima	14.2
43764	7	Sololá	701	Sololá	3	Barraneche	8	Agosto	2023-08-16T00:00:00	2024-11-06T22:00:00	5	Humedad	63
43765	7	Sololá	701	Sololá	3	Barraneche	8	Agosto	2023-08-16T00:00:00	2024-11-06T22:00:00	6	Velocidad del viento	3.2
43766	7	Sololá	701	Sololá	3	Barraneche	8	Agosto	2023-08-16T00:00:00	2024-11-06T22:00:00	7	Dirección del viento	3.22
43767	7	Sololá	701	Sololá	3	Barraneche	8	Agosto	2023-08-16T00:00:00	2024-11-06T22:00:00	1	Precipitación	0
43768	7	Sololá	701	Sololá	3	Barraneche	8	Agosto	2023-08-16T00:00:00	2024-11-06T22:00:00	8	Radiación solar	0
43769	7	Sololá	701	Sololá	3	Barraneche	8	Agosto	2023-08-16T00:00:00	2024-11-06T23:00:00	2	Temperatura media	13.8
43770	7	Sololá	701	Sololá	3	Barraneche	8	Agosto	2023-08-16T00:00:00	2024-11-06T23:00:00	4	Temperatura máxima	14.4
43771	7	Sololá	701	Sololá	3	Barraneche	8	Agosto	2023-08-16T00:00:00	2024-11-06T23:00:00	3	Temperatura mínima	12.8
43772	7	Sololá	701	Sololá	3	Barraneche	8	Agosto	2023-08-16T00:00:00	2024-11-06T23:00:00	5	Humedad	65
43773	7	Sololá	701	Sololá	3	Barraneche	8	Agosto	2023-08-16T00:00:00	2024-11-06T23:00:00	6	Velocidad del viento	3.2
43774	7	Sololá	701	Sololá	3	Barraneche	8	Agosto	2023-08-16T00:00:00	2024-11-06T23:00:00	7	Dirección del viento	3.22
43775	7	Sololá	701	Sololá	3	Barraneche	8	Agosto	2023-08-16T00:00:00	2024-11-06T23:00:00	1	Precipitación	0
43776	7	Sololá	701	Sololá	3	Barraneche	8	Agosto	2023-08-16T00:00:00	2024-11-06T23:00:00	8	Radiación solar	0
43777	7	Sololá	701	Sololá	3	Barraneche	8	Agosto	2023-08-17T00:00:00	2024-11-06T00:00:00	2	Temperatura media	14.1
43778	7	Sololá	701	Sololá	3	Barraneche	8	Agosto	2023-08-17T00:00:00	2024-11-06T00:00:00	4	Temperatura máxima	14.7
43779	7	Sololá	701	Sololá	3	Barraneche	8	Agosto	2023-08-17T00:00:00	2024-11-06T00:00:00	3	Temperatura mínima	13.8
43780	7	Sololá	701	Sololá	3	Barraneche	8	Agosto	2023-08-17T00:00:00	2024-11-06T00:00:00	5	Humedad	63
43781	7	Sololá	701	Sololá	3	Barraneche	8	Agosto	2023-08-17T00:00:00	2024-11-06T00:00:00	6	Velocidad del viento	8
43782	7	Sololá	701	Sololá	3	Barraneche	8	Agosto	2023-08-17T00:00:00	2024-11-06T00:00:00	7	Dirección del viento	8.05
43783	7	Sololá	701	Sololá	3	Barraneche	8	Agosto	2023-08-17T00:00:00	2024-11-06T00:00:00	1	Precipitación	0
43784	7	Sololá	701	Sololá	3	Barraneche	8	Agosto	2023-08-17T00:00:00	2024-11-06T00:00:00	8	Radiación solar	0
43785	7	Sololá	701	Sololá	3	Barraneche	8	Agosto	2023-08-17T00:00:00	2024-11-06T01:00:00	2	Temperatura media	13.8
43786	7	Sololá	701	Sololá	3	Barraneche	8	Agosto	2023-08-17T00:00:00	2024-11-06T01:00:00	4	Temperatura máxima	14.1
43787	7	Sololá	701	Sololá	3	Barraneche	8	Agosto	2023-08-17T00:00:00	2024-11-06T01:00:00	3	Temperatura mínima	13.7
43788	7	Sololá	701	Sololá	3	Barraneche	8	Agosto	2023-08-17T00:00:00	2024-11-06T01:00:00	5	Humedad	64
43789	7	Sololá	701	Sololá	3	Barraneche	8	Agosto	2023-08-17T00:00:00	2024-11-06T01:00:00	6	Velocidad del viento	9.7
43790	7	Sololá	701	Sololá	3	Barraneche	8	Agosto	2023-08-17T00:00:00	2024-11-06T01:00:00	7	Dirección del viento	9.66
43791	7	Sololá	701	Sololá	3	Barraneche	8	Agosto	2023-08-17T00:00:00	2024-11-06T01:00:00	1	Precipitación	0
43792	7	Sololá	701	Sololá	3	Barraneche	8	Agosto	2023-08-17T00:00:00	2024-11-06T01:00:00	8	Radiación solar	0
43793	7	Sololá	701	Sololá	3	Barraneche	8	Agosto	2023-08-17T00:00:00	2024-11-06T02:00:00	2	Temperatura media	12.8
43794	7	Sololá	701	Sololá	3	Barraneche	8	Agosto	2023-08-17T00:00:00	2024-11-06T02:00:00	4	Temperatura máxima	13.8
43795	7	Sololá	701	Sololá	3	Barraneche	8	Agosto	2023-08-17T00:00:00	2024-11-06T02:00:00	3	Temperatura mínima	12.7
43796	7	Sololá	701	Sololá	3	Barraneche	8	Agosto	2023-08-17T00:00:00	2024-11-06T02:00:00	5	Humedad	67
43797	7	Sololá	701	Sololá	3	Barraneche	8	Agosto	2023-08-17T00:00:00	2024-11-06T02:00:00	6	Velocidad del viento	4.8
43798	7	Sololá	701	Sololá	3	Barraneche	8	Agosto	2023-08-17T00:00:00	2024-11-06T02:00:00	7	Dirección del viento	4.83
43799	7	Sololá	701	Sololá	3	Barraneche	8	Agosto	2023-08-17T00:00:00	2024-11-06T02:00:00	1	Precipitación	0
43800	7	Sololá	701	Sololá	3	Barraneche	8	Agosto	2023-08-17T00:00:00	2024-11-06T02:00:00	8	Radiación solar	0
43801	7	Sololá	701	Sololá	3	Barraneche	8	Agosto	2023-08-17T00:00:00	2024-11-06T03:00:00	2	Temperatura media	11.6
43802	7	Sololá	701	Sololá	3	Barraneche	8	Agosto	2023-08-17T00:00:00	2024-11-06T03:00:00	4	Temperatura máxima	13.2
43803	7	Sololá	701	Sololá	3	Barraneche	8	Agosto	2023-08-17T00:00:00	2024-11-06T03:00:00	3	Temperatura mínima	11.6
43804	7	Sololá	701	Sololá	3	Barraneche	8	Agosto	2023-08-17T00:00:00	2024-11-06T03:00:00	5	Humedad	69
43805	7	Sololá	701	Sololá	3	Barraneche	8	Agosto	2023-08-17T00:00:00	2024-11-06T03:00:00	6	Velocidad del viento	3.2
43806	7	Sololá	701	Sololá	3	Barraneche	8	Agosto	2023-08-17T00:00:00	2024-11-06T03:00:00	7	Dirección del viento	3.22
43807	7	Sololá	701	Sololá	3	Barraneche	8	Agosto	2023-08-17T00:00:00	2024-11-06T03:00:00	1	Precipitación	0
43808	7	Sololá	701	Sololá	3	Barraneche	8	Agosto	2023-08-17T00:00:00	2024-11-06T03:00:00	8	Radiación solar	0
43809	7	Sololá	701	Sololá	3	Barraneche	8	Agosto	2023-08-17T00:00:00	2024-11-06T04:00:00	2	Temperatura media	12.8
43810	7	Sololá	701	Sololá	3	Barraneche	8	Agosto	2023-08-17T00:00:00	2024-11-06T04:00:00	4	Temperatura máxima	13.1
43811	7	Sololá	701	Sololá	3	Barraneche	8	Agosto	2023-08-17T00:00:00	2024-11-06T04:00:00	3	Temperatura mínima	10.8
43812	7	Sololá	701	Sololá	3	Barraneche	8	Agosto	2023-08-17T00:00:00	2024-11-06T04:00:00	5	Humedad	65
43813	7	Sololá	701	Sololá	3	Barraneche	8	Agosto	2023-08-17T00:00:00	2024-11-06T04:00:00	6	Velocidad del viento	3.2
43814	7	Sololá	701	Sololá	3	Barraneche	8	Agosto	2023-08-17T00:00:00	2024-11-06T04:00:00	7	Dirección del viento	3.22
43815	7	Sololá	701	Sololá	3	Barraneche	8	Agosto	2023-08-17T00:00:00	2024-11-06T04:00:00	1	Precipitación	0
43816	7	Sololá	701	Sololá	3	Barraneche	8	Agosto	2023-08-17T00:00:00	2024-11-06T04:00:00	8	Radiación solar	0
43817	7	Sololá	701	Sololá	3	Barraneche	8	Agosto	2023-08-17T00:00:00	2024-11-06T05:00:00	2	Temperatura media	11.2
43818	7	Sololá	701	Sololá	3	Barraneche	8	Agosto	2023-08-17T00:00:00	2024-11-06T05:00:00	4	Temperatura máxima	12.9
43819	7	Sololá	701	Sololá	3	Barraneche	8	Agosto	2023-08-17T00:00:00	2024-11-06T05:00:00	3	Temperatura mínima	11.2
43820	7	Sololá	701	Sololá	3	Barraneche	8	Agosto	2023-08-17T00:00:00	2024-11-06T05:00:00	5	Humedad	68
43821	7	Sololá	701	Sololá	3	Barraneche	8	Agosto	2023-08-17T00:00:00	2024-11-06T05:00:00	6	Velocidad del viento	3.2
43822	7	Sololá	701	Sololá	3	Barraneche	8	Agosto	2023-08-17T00:00:00	2024-11-06T05:00:00	7	Dirección del viento	3.22
43823	7	Sololá	701	Sololá	3	Barraneche	8	Agosto	2023-08-17T00:00:00	2024-11-06T05:00:00	1	Precipitación	0
43824	7	Sololá	701	Sololá	3	Barraneche	8	Agosto	2023-08-17T00:00:00	2024-11-06T05:00:00	8	Radiación solar	0
43825	7	Sololá	701	Sololá	3	Barraneche	8	Agosto	2023-08-17T00:00:00	2024-11-06T06:00:00	2	Temperatura media	10.2
43826	7	Sololá	701	Sololá	3	Barraneche	8	Agosto	2023-08-17T00:00:00	2024-11-06T06:00:00	4	Temperatura máxima	11.2
43827	7	Sololá	701	Sololá	3	Barraneche	8	Agosto	2023-08-17T00:00:00	2024-11-06T06:00:00	3	Temperatura mínima	10.1
43828	7	Sololá	701	Sololá	3	Barraneche	8	Agosto	2023-08-17T00:00:00	2024-11-06T06:00:00	5	Humedad	69
43829	7	Sololá	701	Sololá	3	Barraneche	8	Agosto	2023-08-17T00:00:00	2024-11-06T06:00:00	6	Velocidad del viento	4.8
43830	7	Sololá	701	Sololá	3	Barraneche	8	Agosto	2023-08-17T00:00:00	2024-11-06T06:00:00	7	Dirección del viento	4.83
43831	7	Sololá	701	Sololá	3	Barraneche	8	Agosto	2023-08-17T00:00:00	2024-11-06T06:00:00	1	Precipitación	0
43832	7	Sololá	701	Sololá	3	Barraneche	8	Agosto	2023-08-17T00:00:00	2024-11-06T06:00:00	8	Radiación solar	1
43833	7	Sololá	701	Sololá	3	Barraneche	8	Agosto	2023-08-17T00:00:00	2024-11-06T07:00:00	2	Temperatura media	10.9
43834	7	Sololá	701	Sololá	3	Barraneche	8	Agosto	2023-08-17T00:00:00	2024-11-06T07:00:00	4	Temperatura máxima	10.9
43835	7	Sololá	701	Sololá	3	Barraneche	8	Agosto	2023-08-17T00:00:00	2024-11-06T07:00:00	3	Temperatura mínima	10.1
43836	7	Sololá	701	Sololá	3	Barraneche	8	Agosto	2023-08-17T00:00:00	2024-11-06T07:00:00	5	Humedad	68
43837	7	Sololá	701	Sololá	3	Barraneche	8	Agosto	2023-08-17T00:00:00	2024-11-06T07:00:00	6	Velocidad del viento	4.8
43838	7	Sololá	701	Sololá	3	Barraneche	8	Agosto	2023-08-17T00:00:00	2024-11-06T07:00:00	7	Dirección del viento	4.83
43839	7	Sololá	701	Sololá	3	Barraneche	8	Agosto	2023-08-17T00:00:00	2024-11-06T07:00:00	1	Precipitación	0
43840	7	Sololá	701	Sololá	3	Barraneche	8	Agosto	2023-08-17T00:00:00	2024-11-06T07:00:00	8	Radiación solar	30
43841	7	Sololá	701	Sololá	3	Barraneche	8	Agosto	2023-08-17T00:00:00	2024-11-06T08:00:00	2	Temperatura media	15.9
43842	7	Sololá	701	Sololá	3	Barraneche	8	Agosto	2023-08-17T00:00:00	2024-11-06T08:00:00	4	Temperatura máxima	15.9
43843	7	Sololá	701	Sololá	3	Barraneche	8	Agosto	2023-08-17T00:00:00	2024-11-06T08:00:00	3	Temperatura mínima	10.9
43844	7	Sololá	701	Sololá	3	Barraneche	8	Agosto	2023-08-17T00:00:00	2024-11-06T08:00:00	5	Humedad	58
43845	7	Sololá	701	Sololá	3	Barraneche	8	Agosto	2023-08-17T00:00:00	2024-11-06T08:00:00	6	Velocidad del viento	1.6
43846	7	Sololá	701	Sololá	3	Barraneche	8	Agosto	2023-08-17T00:00:00	2024-11-06T08:00:00	7	Dirección del viento	1.61
43847	7	Sololá	701	Sololá	3	Barraneche	8	Agosto	2023-08-17T00:00:00	2024-11-06T08:00:00	1	Precipitación	0
43848	7	Sololá	701	Sololá	3	Barraneche	8	Agosto	2023-08-17T00:00:00	2024-11-06T08:00:00	8	Radiación solar	263
43849	7	Sololá	701	Sololá	3	Barraneche	8	Agosto	2023-08-17T00:00:00	2024-11-06T09:00:00	2	Temperatura media	17.2
43850	7	Sololá	701	Sololá	3	Barraneche	8	Agosto	2023-08-17T00:00:00	2024-11-06T09:00:00	4	Temperatura máxima	17.4
43851	7	Sololá	701	Sololá	3	Barraneche	8	Agosto	2023-08-17T00:00:00	2024-11-06T09:00:00	3	Temperatura mínima	15.9
43852	7	Sololá	701	Sololá	3	Barraneche	8	Agosto	2023-08-17T00:00:00	2024-11-06T09:00:00	5	Humedad	49
43853	7	Sololá	701	Sololá	3	Barraneche	8	Agosto	2023-08-17T00:00:00	2024-11-06T09:00:00	6	Velocidad del viento	4.8
43854	7	Sololá	701	Sololá	3	Barraneche	8	Agosto	2023-08-17T00:00:00	2024-11-06T09:00:00	7	Dirección del viento	4.83
43855	7	Sololá	701	Sololá	3	Barraneche	8	Agosto	2023-08-17T00:00:00	2024-11-06T09:00:00	1	Precipitación	0
43856	7	Sololá	701	Sololá	3	Barraneche	8	Agosto	2023-08-17T00:00:00	2024-11-06T09:00:00	8	Radiación solar	483
43857	7	Sololá	701	Sololá	3	Barraneche	8	Agosto	2023-08-17T00:00:00	2024-11-06T10:00:00	2	Temperatura media	17.6
43858	7	Sololá	701	Sololá	3	Barraneche	8	Agosto	2023-08-17T00:00:00	2024-11-06T10:00:00	4	Temperatura máxima	17.7
43859	7	Sololá	701	Sololá	3	Barraneche	8	Agosto	2023-08-17T00:00:00	2024-11-06T10:00:00	3	Temperatura mínima	17.1
43860	7	Sololá	701	Sololá	3	Barraneche	8	Agosto	2023-08-17T00:00:00	2024-11-06T10:00:00	5	Humedad	53
43861	7	Sololá	701	Sololá	3	Barraneche	8	Agosto	2023-08-17T00:00:00	2024-11-06T10:00:00	6	Velocidad del viento	16.1
43862	7	Sololá	701	Sololá	3	Barraneche	8	Agosto	2023-08-17T00:00:00	2024-11-06T10:00:00	7	Dirección del viento	16.09
43863	7	Sololá	701	Sololá	3	Barraneche	8	Agosto	2023-08-17T00:00:00	2024-11-06T10:00:00	1	Precipitación	0
43864	7	Sololá	701	Sololá	3	Barraneche	8	Agosto	2023-08-17T00:00:00	2024-11-06T10:00:00	8	Radiación solar	796
43865	7	Sololá	701	Sololá	3	Barraneche	8	Agosto	2023-08-17T00:00:00	2024-11-06T11:00:00	2	Temperatura media	18.2
43866	7	Sololá	701	Sololá	3	Barraneche	8	Agosto	2023-08-17T00:00:00	2024-11-06T11:00:00	4	Temperatura máxima	18.2
43867	7	Sololá	701	Sololá	3	Barraneche	8	Agosto	2023-08-17T00:00:00	2024-11-06T11:00:00	3	Temperatura mínima	17.4
43868	7	Sololá	701	Sololá	3	Barraneche	8	Agosto	2023-08-17T00:00:00	2024-11-06T11:00:00	5	Humedad	50
43869	7	Sololá	701	Sololá	3	Barraneche	8	Agosto	2023-08-17T00:00:00	2024-11-06T11:00:00	6	Velocidad del viento	14.5
43870	7	Sololá	701	Sololá	3	Barraneche	8	Agosto	2023-08-17T00:00:00	2024-11-06T11:00:00	7	Dirección del viento	14.48
43871	7	Sololá	701	Sololá	3	Barraneche	8	Agosto	2023-08-17T00:00:00	2024-11-06T11:00:00	1	Precipitación	0
43872	7	Sololá	701	Sololá	3	Barraneche	8	Agosto	2023-08-17T00:00:00	2024-11-06T11:00:00	8	Radiación solar	952
43873	7	Sololá	701	Sololá	3	Barraneche	8	Agosto	2023-08-17T00:00:00	2024-11-06T12:00:00	2	Temperatura media	19.4
43874	7	Sololá	701	Sololá	3	Barraneche	8	Agosto	2023-08-17T00:00:00	2024-11-06T12:00:00	4	Temperatura máxima	19.4
43875	7	Sololá	701	Sololá	3	Barraneche	8	Agosto	2023-08-17T00:00:00	2024-11-06T12:00:00	3	Temperatura mínima	18.2
43876	7	Sololá	701	Sololá	3	Barraneche	8	Agosto	2023-08-17T00:00:00	2024-11-06T12:00:00	5	Humedad	49
43877	7	Sololá	701	Sololá	3	Barraneche	8	Agosto	2023-08-17T00:00:00	2024-11-06T12:00:00	6	Velocidad del viento	14.5
43878	7	Sololá	701	Sololá	3	Barraneche	8	Agosto	2023-08-17T00:00:00	2024-11-06T12:00:00	7	Dirección del viento	14.48
43879	7	Sololá	701	Sololá	3	Barraneche	8	Agosto	2023-08-17T00:00:00	2024-11-06T12:00:00	1	Precipitación	0
43880	7	Sololá	701	Sololá	3	Barraneche	8	Agosto	2023-08-17T00:00:00	2024-11-06T12:00:00	8	Radiación solar	1046
43881	7	Sololá	701	Sololá	3	Barraneche	8	Agosto	2023-08-17T00:00:00	2024-11-06T13:00:00	2	Temperatura media	19.2
43882	7	Sololá	701	Sololá	3	Barraneche	8	Agosto	2023-08-17T00:00:00	2024-11-06T13:00:00	4	Temperatura máxima	19.7
43883	7	Sololá	701	Sololá	3	Barraneche	8	Agosto	2023-08-17T00:00:00	2024-11-06T13:00:00	3	Temperatura mínima	18.5
43884	7	Sololá	701	Sololá	3	Barraneche	8	Agosto	2023-08-17T00:00:00	2024-11-06T13:00:00	5	Humedad	49
43885	7	Sololá	701	Sololá	3	Barraneche	8	Agosto	2023-08-17T00:00:00	2024-11-06T13:00:00	6	Velocidad del viento	11.3
43886	7	Sololá	701	Sololá	3	Barraneche	8	Agosto	2023-08-17T00:00:00	2024-11-06T13:00:00	7	Dirección del viento	11.27
43887	7	Sololá	701	Sololá	3	Barraneche	8	Agosto	2023-08-17T00:00:00	2024-11-06T13:00:00	1	Precipitación	0
43888	7	Sololá	701	Sololá	3	Barraneche	8	Agosto	2023-08-17T00:00:00	2024-11-06T13:00:00	8	Radiación solar	880
43889	7	Sololá	701	Sololá	3	Barraneche	8	Agosto	2023-08-17T00:00:00	2024-11-06T14:00:00	2	Temperatura media	19.2
43890	7	Sololá	701	Sololá	3	Barraneche	8	Agosto	2023-08-17T00:00:00	2024-11-06T14:00:00	4	Temperatura máxima	19.4
43891	7	Sololá	701	Sololá	3	Barraneche	8	Agosto	2023-08-17T00:00:00	2024-11-06T14:00:00	3	Temperatura mínima	18.8
43892	7	Sololá	701	Sololá	3	Barraneche	8	Agosto	2023-08-17T00:00:00	2024-11-06T14:00:00	5	Humedad	45
43893	7	Sololá	701	Sololá	3	Barraneche	8	Agosto	2023-08-17T00:00:00	2024-11-06T14:00:00	6	Velocidad del viento	14.5
43894	7	Sololá	701	Sololá	3	Barraneche	8	Agosto	2023-08-17T00:00:00	2024-11-06T14:00:00	7	Dirección del viento	14.48
43895	7	Sololá	701	Sololá	3	Barraneche	8	Agosto	2023-08-17T00:00:00	2024-11-06T14:00:00	1	Precipitación	0
43896	7	Sololá	701	Sololá	3	Barraneche	8	Agosto	2023-08-17T00:00:00	2024-11-06T14:00:00	8	Radiación solar	994
43897	7	Sololá	701	Sololá	3	Barraneche	8	Agosto	2023-08-17T00:00:00	2024-11-06T15:00:00	2	Temperatura media	20.2
43898	7	Sololá	701	Sololá	3	Barraneche	8	Agosto	2023-08-17T00:00:00	2024-11-06T15:00:00	4	Temperatura máxima	20.3
43899	7	Sololá	701	Sololá	3	Barraneche	8	Agosto	2023-08-17T00:00:00	2024-11-06T15:00:00	3	Temperatura mínima	19.2
43900	7	Sololá	701	Sololá	3	Barraneche	8	Agosto	2023-08-17T00:00:00	2024-11-06T15:00:00	5	Humedad	43
43901	7	Sololá	701	Sololá	3	Barraneche	8	Agosto	2023-08-17T00:00:00	2024-11-06T15:00:00	6	Velocidad del viento	11.3
43902	7	Sololá	701	Sololá	3	Barraneche	8	Agosto	2023-08-17T00:00:00	2024-11-06T15:00:00	7	Dirección del viento	11.27
43903	7	Sololá	701	Sololá	3	Barraneche	8	Agosto	2023-08-17T00:00:00	2024-11-06T15:00:00	1	Precipitación	0
43904	7	Sololá	701	Sololá	3	Barraneche	8	Agosto	2023-08-17T00:00:00	2024-11-06T15:00:00	8	Radiación solar	709
43905	7	Sololá	701	Sololá	3	Barraneche	8	Agosto	2023-08-17T00:00:00	2024-11-06T16:00:00	2	Temperatura media	19.1
43906	7	Sololá	701	Sololá	3	Barraneche	8	Agosto	2023-08-17T00:00:00	2024-11-06T16:00:00	4	Temperatura máxima	20.3
43907	7	Sololá	701	Sololá	3	Barraneche	8	Agosto	2023-08-17T00:00:00	2024-11-06T16:00:00	3	Temperatura mínima	18.9
43908	7	Sololá	701	Sololá	3	Barraneche	8	Agosto	2023-08-17T00:00:00	2024-11-06T16:00:00	5	Humedad	51
43909	7	Sololá	701	Sololá	3	Barraneche	8	Agosto	2023-08-17T00:00:00	2024-11-06T16:00:00	6	Velocidad del viento	9.7
43910	7	Sololá	701	Sololá	3	Barraneche	8	Agosto	2023-08-17T00:00:00	2024-11-06T16:00:00	7	Dirección del viento	9.66
43911	7	Sololá	701	Sololá	3	Barraneche	8	Agosto	2023-08-17T00:00:00	2024-11-06T16:00:00	1	Precipitación	0
43912	7	Sololá	701	Sololá	3	Barraneche	8	Agosto	2023-08-17T00:00:00	2024-11-06T16:00:00	8	Radiación solar	329
43913	7	Sololá	701	Sololá	3	Barraneche	8	Agosto	2023-08-17T00:00:00	2024-11-06T17:00:00	2	Temperatura media	19.2
43914	7	Sololá	701	Sololá	3	Barraneche	8	Agosto	2023-08-17T00:00:00	2024-11-06T17:00:00	4	Temperatura máxima	19.8
43915	7	Sololá	701	Sololá	3	Barraneche	8	Agosto	2023-08-17T00:00:00	2024-11-06T17:00:00	3	Temperatura mínima	18.9
43916	7	Sololá	701	Sololá	3	Barraneche	8	Agosto	2023-08-17T00:00:00	2024-11-06T17:00:00	5	Humedad	51
43917	7	Sololá	701	Sololá	3	Barraneche	8	Agosto	2023-08-17T00:00:00	2024-11-06T17:00:00	6	Velocidad del viento	11.3
43918	7	Sololá	701	Sololá	3	Barraneche	8	Agosto	2023-08-17T00:00:00	2024-11-06T17:00:00	7	Dirección del viento	11.27
43919	7	Sololá	701	Sololá	3	Barraneche	8	Agosto	2023-08-17T00:00:00	2024-11-06T17:00:00	1	Precipitación	0
43920	7	Sololá	701	Sololá	3	Barraneche	8	Agosto	2023-08-17T00:00:00	2024-11-06T17:00:00	8	Radiación solar	332
43921	7	Sololá	701	Sololá	3	Barraneche	8	Agosto	2023-08-17T00:00:00	2024-11-06T18:00:00	2	Temperatura media	17.7
43922	7	Sololá	701	Sololá	3	Barraneche	8	Agosto	2023-08-17T00:00:00	2024-11-06T18:00:00	4	Temperatura máxima	19.4
43923	7	Sololá	701	Sololá	3	Barraneche	8	Agosto	2023-08-17T00:00:00	2024-11-06T18:00:00	3	Temperatura mínima	17.7
43924	7	Sololá	701	Sololá	3	Barraneche	8	Agosto	2023-08-17T00:00:00	2024-11-06T18:00:00	5	Humedad	55
43925	7	Sololá	701	Sololá	3	Barraneche	8	Agosto	2023-08-17T00:00:00	2024-11-06T18:00:00	6	Velocidad del viento	9.7
43926	7	Sololá	701	Sololá	3	Barraneche	8	Agosto	2023-08-17T00:00:00	2024-11-06T18:00:00	7	Dirección del viento	9.66
43927	7	Sololá	701	Sololá	3	Barraneche	8	Agosto	2023-08-17T00:00:00	2024-11-06T18:00:00	1	Precipitación	0
43928	7	Sololá	701	Sololá	3	Barraneche	8	Agosto	2023-08-17T00:00:00	2024-11-06T18:00:00	8	Radiación solar	124
43929	7	Sololá	701	Sololá	3	Barraneche	8	Agosto	2023-08-17T00:00:00	2024-11-06T19:00:00	2	Temperatura media	16.1
43930	7	Sololá	701	Sololá	3	Barraneche	8	Agosto	2023-08-17T00:00:00	2024-11-06T19:00:00	4	Temperatura máxima	17.7
43931	7	Sololá	701	Sololá	3	Barraneche	8	Agosto	2023-08-17T00:00:00	2024-11-06T19:00:00	3	Temperatura mínima	16.1
43932	7	Sololá	701	Sololá	3	Barraneche	8	Agosto	2023-08-17T00:00:00	2024-11-06T19:00:00	5	Humedad	64
43933	7	Sololá	701	Sololá	3	Barraneche	8	Agosto	2023-08-17T00:00:00	2024-11-06T19:00:00	6	Velocidad del viento	4.8
43934	7	Sololá	701	Sololá	3	Barraneche	8	Agosto	2023-08-17T00:00:00	2024-11-06T19:00:00	7	Dirección del viento	4.83
43935	7	Sololá	701	Sololá	3	Barraneche	8	Agosto	2023-08-17T00:00:00	2024-11-06T19:00:00	1	Precipitación	0
43936	7	Sololá	701	Sololá	3	Barraneche	8	Agosto	2023-08-17T00:00:00	2024-11-06T19:00:00	8	Radiación solar	0
43937	7	Sololá	701	Sololá	3	Barraneche	8	Agosto	2023-08-17T00:00:00	2024-11-06T20:00:00	2	Temperatura media	15.8
43938	7	Sololá	701	Sololá	3	Barraneche	8	Agosto	2023-08-17T00:00:00	2024-11-06T20:00:00	4	Temperatura máxima	16.2
43939	7	Sololá	701	Sololá	3	Barraneche	8	Agosto	2023-08-17T00:00:00	2024-11-06T20:00:00	3	Temperatura mínima	15.7
43940	7	Sololá	701	Sololá	3	Barraneche	8	Agosto	2023-08-17T00:00:00	2024-11-06T20:00:00	5	Humedad	66
43941	7	Sololá	701	Sololá	3	Barraneche	8	Agosto	2023-08-17T00:00:00	2024-11-06T20:00:00	6	Velocidad del viento	9.7
43942	7	Sololá	701	Sololá	3	Barraneche	8	Agosto	2023-08-17T00:00:00	2024-11-06T20:00:00	7	Dirección del viento	9.66
43943	7	Sololá	701	Sololá	3	Barraneche	8	Agosto	2023-08-17T00:00:00	2024-11-06T20:00:00	1	Precipitación	0
43944	7	Sololá	701	Sololá	3	Barraneche	8	Agosto	2023-08-17T00:00:00	2024-11-06T20:00:00	8	Radiación solar	0
43945	7	Sololá	701	Sololá	3	Barraneche	8	Agosto	2023-08-17T00:00:00	2024-11-06T21:00:00	2	Temperatura media	15.3
43946	7	Sololá	701	Sololá	3	Barraneche	8	Agosto	2023-08-17T00:00:00	2024-11-06T21:00:00	4	Temperatura máxima	15.9
43947	7	Sololá	701	Sololá	3	Barraneche	8	Agosto	2023-08-17T00:00:00	2024-11-06T21:00:00	3	Temperatura mínima	15.3
43948	7	Sololá	701	Sololá	3	Barraneche	8	Agosto	2023-08-17T00:00:00	2024-11-06T21:00:00	5	Humedad	64
43949	7	Sololá	701	Sololá	3	Barraneche	8	Agosto	2023-08-17T00:00:00	2024-11-06T21:00:00	6	Velocidad del viento	11.3
43950	7	Sololá	701	Sololá	3	Barraneche	8	Agosto	2023-08-17T00:00:00	2024-11-06T21:00:00	7	Dirección del viento	11.27
43951	7	Sololá	701	Sololá	3	Barraneche	8	Agosto	2023-08-17T00:00:00	2024-11-06T21:00:00	1	Precipitación	0
43952	7	Sololá	701	Sololá	3	Barraneche	8	Agosto	2023-08-17T00:00:00	2024-11-06T21:00:00	8	Radiación solar	0
43953	7	Sololá	701	Sololá	3	Barraneche	8	Agosto	2023-08-17T00:00:00	2024-11-06T22:00:00	2	Temperatura media	15.4
43954	7	Sololá	701	Sololá	3	Barraneche	8	Agosto	2023-08-17T00:00:00	2024-11-06T22:00:00	4	Temperatura máxima	15.4
43955	7	Sololá	701	Sololá	3	Barraneche	8	Agosto	2023-08-17T00:00:00	2024-11-06T22:00:00	3	Temperatura mínima	14.9
43956	7	Sololá	701	Sololá	3	Barraneche	8	Agosto	2023-08-17T00:00:00	2024-11-06T22:00:00	5	Humedad	62
43957	7	Sololá	701	Sololá	3	Barraneche	8	Agosto	2023-08-17T00:00:00	2024-11-06T22:00:00	6	Velocidad del viento	9.7
43958	7	Sololá	701	Sololá	3	Barraneche	8	Agosto	2023-08-17T00:00:00	2024-11-06T22:00:00	7	Dirección del viento	9.66
43959	7	Sololá	701	Sololá	3	Barraneche	8	Agosto	2023-08-17T00:00:00	2024-11-06T22:00:00	1	Precipitación	0
43960	7	Sololá	701	Sololá	3	Barraneche	8	Agosto	2023-08-17T00:00:00	2024-11-06T22:00:00	8	Radiación solar	0
43961	7	Sololá	701	Sololá	3	Barraneche	8	Agosto	2023-08-17T00:00:00	2024-11-06T23:00:00	2	Temperatura media	14.2
43962	7	Sololá	701	Sololá	3	Barraneche	8	Agosto	2023-08-17T00:00:00	2024-11-06T23:00:00	4	Temperatura máxima	15.4
43963	7	Sololá	701	Sololá	3	Barraneche	8	Agosto	2023-08-17T00:00:00	2024-11-06T23:00:00	3	Temperatura mínima	14.2
43964	7	Sololá	701	Sololá	3	Barraneche	8	Agosto	2023-08-17T00:00:00	2024-11-06T23:00:00	5	Humedad	65
43965	7	Sololá	701	Sololá	3	Barraneche	8	Agosto	2023-08-17T00:00:00	2024-11-06T23:00:00	6	Velocidad del viento	6.4
43966	7	Sololá	701	Sololá	3	Barraneche	8	Agosto	2023-08-17T00:00:00	2024-11-06T23:00:00	7	Dirección del viento	6.44
43967	7	Sololá	701	Sololá	3	Barraneche	8	Agosto	2023-08-17T00:00:00	2024-11-06T23:00:00	1	Precipitación	0
43968	7	Sololá	701	Sololá	3	Barraneche	8	Agosto	2023-08-17T00:00:00	2024-11-06T23:00:00	8	Radiación solar	0
43969	7	Sololá	701	Sololá	3	Barraneche	8	Agosto	2023-08-18T00:00:00	2024-11-06T00:00:00	2	Temperatura media	14.1
43970	7	Sololá	701	Sololá	3	Barraneche	8	Agosto	2023-08-18T00:00:00	2024-11-06T00:00:00	4	Temperatura máxima	14.9
43971	7	Sololá	701	Sololá	3	Barraneche	8	Agosto	2023-08-18T00:00:00	2024-11-06T00:00:00	3	Temperatura mínima	13.8
43972	7	Sololá	701	Sololá	3	Barraneche	8	Agosto	2023-08-18T00:00:00	2024-11-06T00:00:00	5	Humedad	64
43973	7	Sololá	701	Sololá	3	Barraneche	8	Agosto	2023-08-18T00:00:00	2024-11-06T00:00:00	6	Velocidad del viento	6.4
43974	7	Sololá	701	Sololá	3	Barraneche	8	Agosto	2023-08-18T00:00:00	2024-11-06T00:00:00	7	Dirección del viento	6.44
43975	7	Sololá	701	Sololá	3	Barraneche	8	Agosto	2023-08-18T00:00:00	2024-11-06T00:00:00	1	Precipitación	0
43976	7	Sololá	701	Sololá	3	Barraneche	8	Agosto	2023-08-18T00:00:00	2024-11-06T00:00:00	8	Radiación solar	0
43977	7	Sololá	701	Sololá	3	Barraneche	8	Agosto	2023-08-18T00:00:00	2024-11-06T01:00:00	2	Temperatura media	14.3
43978	7	Sololá	701	Sololá	3	Barraneche	8	Agosto	2023-08-18T00:00:00	2024-11-06T01:00:00	4	Temperatura máxima	14.5
43979	7	Sololá	701	Sololá	3	Barraneche	8	Agosto	2023-08-18T00:00:00	2024-11-06T01:00:00	3	Temperatura mínima	12.8
43980	7	Sololá	701	Sololá	3	Barraneche	8	Agosto	2023-08-18T00:00:00	2024-11-06T01:00:00	5	Humedad	64
43981	7	Sololá	701	Sololá	3	Barraneche	8	Agosto	2023-08-18T00:00:00	2024-11-06T01:00:00	6	Velocidad del viento	6.4
43982	7	Sololá	701	Sololá	3	Barraneche	8	Agosto	2023-08-18T00:00:00	2024-11-06T01:00:00	7	Dirección del viento	6.44
43983	7	Sololá	701	Sololá	3	Barraneche	8	Agosto	2023-08-18T00:00:00	2024-11-06T01:00:00	1	Precipitación	0
43984	7	Sololá	701	Sololá	3	Barraneche	8	Agosto	2023-08-18T00:00:00	2024-11-06T01:00:00	8	Radiación solar	0
43985	7	Sololá	701	Sololá	3	Barraneche	8	Agosto	2023-08-18T00:00:00	2024-11-06T02:00:00	2	Temperatura media	14.5
43986	7	Sololá	701	Sololá	3	Barraneche	8	Agosto	2023-08-18T00:00:00	2024-11-06T02:00:00	4	Temperatura máxima	14.5
43987	7	Sololá	701	Sololá	3	Barraneche	8	Agosto	2023-08-18T00:00:00	2024-11-06T02:00:00	3	Temperatura mínima	13.8
43988	7	Sololá	701	Sololá	3	Barraneche	8	Agosto	2023-08-18T00:00:00	2024-11-06T02:00:00	5	Humedad	65
43989	7	Sololá	701	Sololá	3	Barraneche	8	Agosto	2023-08-18T00:00:00	2024-11-06T02:00:00	6	Velocidad del viento	4.8
43990	7	Sololá	701	Sololá	3	Barraneche	8	Agosto	2023-08-18T00:00:00	2024-11-06T02:00:00	7	Dirección del viento	4.83
43991	7	Sololá	701	Sololá	3	Barraneche	8	Agosto	2023-08-18T00:00:00	2024-11-06T02:00:00	1	Precipitación	0
43992	7	Sololá	701	Sololá	3	Barraneche	8	Agosto	2023-08-18T00:00:00	2024-11-06T02:00:00	8	Radiación solar	0
43993	7	Sololá	701	Sololá	3	Barraneche	8	Agosto	2023-08-18T00:00:00	2024-11-06T03:00:00	2	Temperatura media	14.7
43994	7	Sololá	701	Sololá	3	Barraneche	8	Agosto	2023-08-18T00:00:00	2024-11-06T03:00:00	4	Temperatura máxima	14.8
43995	7	Sololá	701	Sololá	3	Barraneche	8	Agosto	2023-08-18T00:00:00	2024-11-06T03:00:00	3	Temperatura mínima	13.9
43996	7	Sololá	701	Sololá	3	Barraneche	8	Agosto	2023-08-18T00:00:00	2024-11-06T03:00:00	5	Humedad	66
43997	7	Sololá	701	Sololá	3	Barraneche	8	Agosto	2023-08-18T00:00:00	2024-11-06T03:00:00	6	Velocidad del viento	4.8
43998	7	Sololá	701	Sololá	3	Barraneche	8	Agosto	2023-08-18T00:00:00	2024-11-06T03:00:00	7	Dirección del viento	4.83
43999	7	Sololá	701	Sololá	3	Barraneche	8	Agosto	2023-08-18T00:00:00	2024-11-06T03:00:00	1	Precipitación	0
44000	7	Sololá	701	Sololá	3	Barraneche	8	Agosto	2023-08-18T00:00:00	2024-11-06T03:00:00	8	Radiación solar	0
44001	7	Sololá	701	Sololá	3	Barraneche	8	Agosto	2023-08-18T00:00:00	2024-11-06T04:00:00	2	Temperatura media	14.1
44002	7	Sololá	701	Sololá	3	Barraneche	8	Agosto	2023-08-18T00:00:00	2024-11-06T04:00:00	4	Temperatura máxima	14.7
44003	7	Sololá	701	Sololá	3	Barraneche	8	Agosto	2023-08-18T00:00:00	2024-11-06T04:00:00	3	Temperatura mínima	13.8
44004	7	Sololá	701	Sololá	3	Barraneche	8	Agosto	2023-08-18T00:00:00	2024-11-06T04:00:00	5	Humedad	69
44005	7	Sololá	701	Sololá	3	Barraneche	8	Agosto	2023-08-18T00:00:00	2024-11-06T04:00:00	6	Velocidad del viento	4.8
44006	7	Sololá	701	Sololá	3	Barraneche	8	Agosto	2023-08-18T00:00:00	2024-11-06T04:00:00	7	Dirección del viento	4.83
44007	7	Sololá	701	Sololá	3	Barraneche	8	Agosto	2023-08-18T00:00:00	2024-11-06T04:00:00	1	Precipitación	0
44008	7	Sololá	701	Sololá	3	Barraneche	8	Agosto	2023-08-18T00:00:00	2024-11-06T04:00:00	8	Radiación solar	0
44009	7	Sololá	701	Sololá	3	Barraneche	8	Agosto	2023-08-18T00:00:00	2024-11-06T05:00:00	2	Temperatura media	14.4
44010	7	Sololá	701	Sololá	3	Barraneche	8	Agosto	2023-08-18T00:00:00	2024-11-06T05:00:00	4	Temperatura máxima	14.6
44011	7	Sololá	701	Sololá	3	Barraneche	8	Agosto	2023-08-18T00:00:00	2024-11-06T05:00:00	3	Temperatura mínima	13.6
44012	7	Sololá	701	Sololá	3	Barraneche	8	Agosto	2023-08-18T00:00:00	2024-11-06T05:00:00	5	Humedad	67
44013	7	Sololá	701	Sololá	3	Barraneche	8	Agosto	2023-08-18T00:00:00	2024-11-06T05:00:00	6	Velocidad del viento	6.4
44014	7	Sololá	701	Sololá	3	Barraneche	8	Agosto	2023-08-18T00:00:00	2024-11-06T05:00:00	7	Dirección del viento	6.44
44015	7	Sololá	701	Sololá	3	Barraneche	8	Agosto	2023-08-18T00:00:00	2024-11-06T05:00:00	1	Precipitación	0
44016	7	Sololá	701	Sololá	3	Barraneche	8	Agosto	2023-08-18T00:00:00	2024-11-06T05:00:00	8	Radiación solar	0
44017	7	Sololá	701	Sololá	3	Barraneche	8	Agosto	2023-08-18T00:00:00	2024-11-06T06:00:00	2	Temperatura media	14
44018	7	Sololá	701	Sololá	3	Barraneche	8	Agosto	2023-08-18T00:00:00	2024-11-06T06:00:00	4	Temperatura máxima	14.5
44019	7	Sololá	701	Sololá	3	Barraneche	8	Agosto	2023-08-18T00:00:00	2024-11-06T06:00:00	3	Temperatura mínima	13.9
44020	7	Sololá	701	Sololá	3	Barraneche	8	Agosto	2023-08-18T00:00:00	2024-11-06T06:00:00	5	Humedad	66
44021	7	Sololá	701	Sololá	3	Barraneche	8	Agosto	2023-08-18T00:00:00	2024-11-06T06:00:00	6	Velocidad del viento	6.4
44022	7	Sololá	701	Sololá	3	Barraneche	8	Agosto	2023-08-18T00:00:00	2024-11-06T06:00:00	7	Dirección del viento	6.44
44023	7	Sololá	701	Sololá	3	Barraneche	8	Agosto	2023-08-18T00:00:00	2024-11-06T06:00:00	1	Precipitación	0
44024	7	Sololá	701	Sololá	3	Barraneche	8	Agosto	2023-08-18T00:00:00	2024-11-06T06:00:00	8	Radiación solar	0
44025	7	Sololá	701	Sololá	3	Barraneche	8	Agosto	2023-08-18T00:00:00	2024-11-06T07:00:00	2	Temperatura media	15.8
44026	7	Sololá	701	Sololá	3	Barraneche	8	Agosto	2023-08-18T00:00:00	2024-11-06T07:00:00	4	Temperatura máxima	15.8
44027	7	Sololá	701	Sololá	3	Barraneche	8	Agosto	2023-08-18T00:00:00	2024-11-06T07:00:00	3	Temperatura mínima	13.6
44028	7	Sololá	701	Sololá	3	Barraneche	8	Agosto	2023-08-18T00:00:00	2024-11-06T07:00:00	5	Humedad	60
44029	7	Sololá	701	Sololá	3	Barraneche	8	Agosto	2023-08-18T00:00:00	2024-11-06T07:00:00	6	Velocidad del viento	6.4
44030	7	Sololá	701	Sololá	3	Barraneche	8	Agosto	2023-08-18T00:00:00	2024-11-06T07:00:00	7	Dirección del viento	6.44
44031	7	Sololá	701	Sololá	3	Barraneche	8	Agosto	2023-08-18T00:00:00	2024-11-06T07:00:00	1	Precipitación	0
44032	7	Sololá	701	Sololá	3	Barraneche	8	Agosto	2023-08-18T00:00:00	2024-11-06T07:00:00	8	Radiación solar	58
44033	7	Sololá	701	Sololá	3	Barraneche	8	Agosto	2023-08-18T00:00:00	2024-11-06T08:00:00	2	Temperatura media	16.2
44034	7	Sololá	701	Sololá	3	Barraneche	8	Agosto	2023-08-18T00:00:00	2024-11-06T08:00:00	4	Temperatura máxima	16.3
44035	7	Sololá	701	Sololá	3	Barraneche	8	Agosto	2023-08-18T00:00:00	2024-11-06T08:00:00	3	Temperatura mínima	15.4
44036	7	Sololá	701	Sololá	3	Barraneche	8	Agosto	2023-08-18T00:00:00	2024-11-06T08:00:00	5	Humedad	60
44037	7	Sololá	701	Sololá	3	Barraneche	8	Agosto	2023-08-18T00:00:00	2024-11-06T08:00:00	6	Velocidad del viento	9.7
44038	7	Sololá	701	Sololá	3	Barraneche	8	Agosto	2023-08-18T00:00:00	2024-11-06T08:00:00	7	Dirección del viento	9.66
44039	7	Sololá	701	Sololá	3	Barraneche	8	Agosto	2023-08-18T00:00:00	2024-11-06T08:00:00	1	Precipitación	0
44040	7	Sololá	701	Sololá	3	Barraneche	8	Agosto	2023-08-18T00:00:00	2024-11-06T08:00:00	8	Radiación solar	340
44041	7	Sololá	701	Sololá	3	Barraneche	8	Agosto	2023-08-18T00:00:00	2024-11-06T09:00:00	2	Temperatura media	17.4
44042	7	Sololá	701	Sololá	3	Barraneche	8	Agosto	2023-08-18T00:00:00	2024-11-06T09:00:00	4	Temperatura máxima	17.5
44043	7	Sololá	701	Sololá	3	Barraneche	8	Agosto	2023-08-18T00:00:00	2024-11-06T09:00:00	3	Temperatura mínima	16.1
44044	7	Sololá	701	Sololá	3	Barraneche	8	Agosto	2023-08-18T00:00:00	2024-11-06T09:00:00	5	Humedad	56
44045	7	Sololá	701	Sololá	3	Barraneche	8	Agosto	2023-08-18T00:00:00	2024-11-06T09:00:00	6	Velocidad del viento	12.9
44046	7	Sololá	701	Sololá	3	Barraneche	8	Agosto	2023-08-18T00:00:00	2024-11-06T09:00:00	7	Dirección del viento	12.87
44047	7	Sololá	701	Sololá	3	Barraneche	8	Agosto	2023-08-18T00:00:00	2024-11-06T09:00:00	1	Precipitación	0
44048	7	Sololá	701	Sololá	3	Barraneche	8	Agosto	2023-08-18T00:00:00	2024-11-06T09:00:00	8	Radiación solar	609
44049	7	Sololá	701	Sololá	3	Barraneche	8	Agosto	2023-08-18T00:00:00	2024-11-06T10:00:00	2	Temperatura media	17.3
44050	7	Sololá	701	Sololá	3	Barraneche	8	Agosto	2023-08-18T00:00:00	2024-11-06T10:00:00	4	Temperatura máxima	17.8
44051	7	Sololá	701	Sololá	3	Barraneche	8	Agosto	2023-08-18T00:00:00	2024-11-06T10:00:00	3	Temperatura mínima	17.1
44052	7	Sololá	701	Sololá	3	Barraneche	8	Agosto	2023-08-18T00:00:00	2024-11-06T10:00:00	5	Humedad	58
44053	7	Sololá	701	Sololá	3	Barraneche	8	Agosto	2023-08-18T00:00:00	2024-11-06T10:00:00	6	Velocidad del viento	16.1
44054	7	Sololá	701	Sololá	3	Barraneche	8	Agosto	2023-08-18T00:00:00	2024-11-06T10:00:00	7	Dirección del viento	16.09
44055	7	Sololá	701	Sololá	3	Barraneche	8	Agosto	2023-08-18T00:00:00	2024-11-06T10:00:00	1	Precipitación	0
44056	7	Sololá	701	Sololá	3	Barraneche	8	Agosto	2023-08-18T00:00:00	2024-11-06T10:00:00	8	Radiación solar	803
44057	7	Sololá	701	Sololá	3	Barraneche	8	Agosto	2023-08-18T00:00:00	2024-11-06T11:00:00	2	Temperatura media	18.4
44058	7	Sololá	701	Sololá	3	Barraneche	8	Agosto	2023-08-18T00:00:00	2024-11-06T11:00:00	4	Temperatura máxima	18.7
44059	7	Sololá	701	Sololá	3	Barraneche	8	Agosto	2023-08-18T00:00:00	2024-11-06T11:00:00	3	Temperatura mínima	17.3
44060	7	Sololá	701	Sololá	3	Barraneche	8	Agosto	2023-08-18T00:00:00	2024-11-06T11:00:00	5	Humedad	54
44061	7	Sololá	701	Sololá	3	Barraneche	8	Agosto	2023-08-18T00:00:00	2024-11-06T11:00:00	6	Velocidad del viento	14.5
44062	7	Sololá	701	Sololá	3	Barraneche	8	Agosto	2023-08-18T00:00:00	2024-11-06T11:00:00	7	Dirección del viento	14.48
44063	7	Sololá	701	Sololá	3	Barraneche	8	Agosto	2023-08-18T00:00:00	2024-11-06T11:00:00	1	Precipitación	0
44064	7	Sololá	701	Sololá	3	Barraneche	8	Agosto	2023-08-18T00:00:00	2024-11-06T11:00:00	8	Radiación solar	956
44065	7	Sololá	701	Sololá	3	Barraneche	8	Agosto	2023-08-18T00:00:00	2024-11-06T12:00:00	2	Temperatura media	19
44066	7	Sololá	701	Sololá	3	Barraneche	8	Agosto	2023-08-18T00:00:00	2024-11-06T12:00:00	4	Temperatura máxima	19.3
44067	7	Sololá	701	Sololá	3	Barraneche	8	Agosto	2023-08-18T00:00:00	2024-11-06T12:00:00	3	Temperatura mínima	18.4
44068	7	Sololá	701	Sololá	3	Barraneche	8	Agosto	2023-08-18T00:00:00	2024-11-06T12:00:00	5	Humedad	51
44069	7	Sololá	701	Sololá	3	Barraneche	8	Agosto	2023-08-18T00:00:00	2024-11-06T12:00:00	6	Velocidad del viento	16.1
44070	7	Sololá	701	Sololá	3	Barraneche	8	Agosto	2023-08-18T00:00:00	2024-11-06T12:00:00	7	Dirección del viento	16.09
44071	7	Sololá	701	Sololá	3	Barraneche	8	Agosto	2023-08-18T00:00:00	2024-11-06T12:00:00	1	Precipitación	0
44072	7	Sololá	701	Sololá	3	Barraneche	8	Agosto	2023-08-18T00:00:00	2024-11-06T12:00:00	8	Radiación solar	1045
44073	7	Sololá	701	Sololá	3	Barraneche	8	Agosto	2023-08-18T00:00:00	2024-11-06T13:00:00	2	Temperatura media	17.9
44074	7	Sololá	701	Sololá	3	Barraneche	8	Agosto	2023-08-18T00:00:00	2024-11-06T13:00:00	4	Temperatura máxima	19.4
44075	7	Sololá	701	Sololá	3	Barraneche	8	Agosto	2023-08-18T00:00:00	2024-11-06T13:00:00	3	Temperatura mínima	17.9
44076	7	Sololá	701	Sololá	3	Barraneche	8	Agosto	2023-08-18T00:00:00	2024-11-06T13:00:00	5	Humedad	56
44077	7	Sololá	701	Sololá	3	Barraneche	8	Agosto	2023-08-18T00:00:00	2024-11-06T13:00:00	6	Velocidad del viento	11.3
44078	7	Sololá	701	Sololá	3	Barraneche	8	Agosto	2023-08-18T00:00:00	2024-11-06T13:00:00	7	Dirección del viento	11.27
44079	7	Sololá	701	Sololá	3	Barraneche	8	Agosto	2023-08-18T00:00:00	2024-11-06T13:00:00	1	Precipitación	0
44080	7	Sololá	701	Sololá	3	Barraneche	8	Agosto	2023-08-18T00:00:00	2024-11-06T13:00:00	8	Radiación solar	401
44081	7	Sololá	701	Sololá	3	Barraneche	8	Agosto	2023-08-18T00:00:00	2024-11-06T14:00:00	2	Temperatura media	18.6
44082	7	Sololá	701	Sololá	3	Barraneche	8	Agosto	2023-08-18T00:00:00	2024-11-06T14:00:00	4	Temperatura máxima	19.4
44083	7	Sololá	701	Sololá	3	Barraneche	8	Agosto	2023-08-18T00:00:00	2024-11-06T14:00:00	3	Temperatura mínima	17.9
44084	7	Sololá	701	Sololá	3	Barraneche	8	Agosto	2023-08-18T00:00:00	2024-11-06T14:00:00	5	Humedad	55
44085	7	Sololá	701	Sololá	3	Barraneche	8	Agosto	2023-08-18T00:00:00	2024-11-06T14:00:00	6	Velocidad del viento	11.3
44086	7	Sololá	701	Sololá	3	Barraneche	8	Agosto	2023-08-18T00:00:00	2024-11-06T14:00:00	7	Dirección del viento	11.27
44087	7	Sololá	701	Sololá	3	Barraneche	8	Agosto	2023-08-18T00:00:00	2024-11-06T14:00:00	1	Precipitación	0
44088	7	Sololá	701	Sololá	3	Barraneche	8	Agosto	2023-08-18T00:00:00	2024-11-06T14:00:00	8	Radiación solar	569
44089	7	Sololá	701	Sololá	3	Barraneche	8	Agosto	2023-08-18T00:00:00	2024-11-06T15:00:00	2	Temperatura media	18.9
44090	7	Sololá	701	Sololá	3	Barraneche	8	Agosto	2023-08-18T00:00:00	2024-11-06T15:00:00	4	Temperatura máxima	18.9
44091	7	Sololá	701	Sololá	3	Barraneche	8	Agosto	2023-08-18T00:00:00	2024-11-06T15:00:00	3	Temperatura mínima	17.6
44092	7	Sololá	701	Sololá	3	Barraneche	8	Agosto	2023-08-18T00:00:00	2024-11-06T15:00:00	5	Humedad	54
44093	7	Sololá	701	Sololá	3	Barraneche	8	Agosto	2023-08-18T00:00:00	2024-11-06T15:00:00	6	Velocidad del viento	11.3
44094	7	Sololá	701	Sololá	3	Barraneche	8	Agosto	2023-08-18T00:00:00	2024-11-06T15:00:00	7	Dirección del viento	11.27
44095	7	Sololá	701	Sololá	3	Barraneche	8	Agosto	2023-08-18T00:00:00	2024-11-06T15:00:00	1	Precipitación	0
44096	7	Sololá	701	Sololá	3	Barraneche	8	Agosto	2023-08-18T00:00:00	2024-11-06T15:00:00	8	Radiación solar	304
44097	7	Sololá	701	Sololá	3	Barraneche	8	Agosto	2023-08-18T00:00:00	2024-11-06T16:00:00	2	Temperatura media	19.1
44098	7	Sololá	701	Sololá	3	Barraneche	8	Agosto	2023-08-18T00:00:00	2024-11-06T16:00:00	4	Temperatura máxima	19.6
44099	7	Sololá	701	Sololá	3	Barraneche	8	Agosto	2023-08-18T00:00:00	2024-11-06T16:00:00	3	Temperatura mínima	18.7
44100	7	Sololá	701	Sololá	3	Barraneche	8	Agosto	2023-08-18T00:00:00	2024-11-06T16:00:00	5	Humedad	41
44101	7	Sololá	701	Sololá	3	Barraneche	8	Agosto	2023-08-18T00:00:00	2024-11-06T16:00:00	6	Velocidad del viento	12.9
44102	7	Sololá	701	Sololá	3	Barraneche	8	Agosto	2023-08-18T00:00:00	2024-11-06T16:00:00	7	Dirección del viento	12.87
44103	7	Sololá	701	Sololá	3	Barraneche	8	Agosto	2023-08-18T00:00:00	2024-11-06T16:00:00	1	Precipitación	0
44104	7	Sololá	701	Sololá	3	Barraneche	8	Agosto	2023-08-18T00:00:00	2024-11-06T16:00:00	8	Radiación solar	483
44105	7	Sololá	701	Sololá	3	Barraneche	8	Agosto	2023-08-18T00:00:00	2024-11-06T17:00:00	2	Temperatura media	17.9
44106	7	Sololá	701	Sololá	3	Barraneche	8	Agosto	2023-08-18T00:00:00	2024-11-06T17:00:00	4	Temperatura máxima	19.2
44107	7	Sololá	701	Sololá	3	Barraneche	8	Agosto	2023-08-18T00:00:00	2024-11-06T17:00:00	3	Temperatura mínima	17.7
44108	7	Sololá	701	Sololá	3	Barraneche	8	Agosto	2023-08-18T00:00:00	2024-11-06T17:00:00	5	Humedad	52
44109	7	Sololá	701	Sololá	3	Barraneche	8	Agosto	2023-08-18T00:00:00	2024-11-06T17:00:00	6	Velocidad del viento	12.9
44110	7	Sololá	701	Sololá	3	Barraneche	8	Agosto	2023-08-18T00:00:00	2024-11-06T17:00:00	7	Dirección del viento	12.87
44111	7	Sololá	701	Sololá	3	Barraneche	8	Agosto	2023-08-18T00:00:00	2024-11-06T17:00:00	1	Precipitación	0
44112	7	Sololá	701	Sololá	3	Barraneche	8	Agosto	2023-08-18T00:00:00	2024-11-06T17:00:00	8	Radiación solar	295
44113	7	Sololá	701	Sololá	3	Barraneche	8	Agosto	2023-08-18T00:00:00	2024-11-06T18:00:00	2	Temperatura media	16.9
44114	7	Sololá	701	Sololá	3	Barraneche	8	Agosto	2023-08-18T00:00:00	2024-11-06T18:00:00	4	Temperatura máxima	17.9
44115	7	Sololá	701	Sololá	3	Barraneche	8	Agosto	2023-08-18T00:00:00	2024-11-06T18:00:00	3	Temperatura mínima	16.9
44116	7	Sololá	701	Sololá	3	Barraneche	8	Agosto	2023-08-18T00:00:00	2024-11-06T18:00:00	5	Humedad	59
44117	7	Sololá	701	Sololá	3	Barraneche	8	Agosto	2023-08-18T00:00:00	2024-11-06T18:00:00	6	Velocidad del viento	11.3
44118	7	Sololá	701	Sololá	3	Barraneche	8	Agosto	2023-08-18T00:00:00	2024-11-06T18:00:00	7	Dirección del viento	11.27
44119	7	Sololá	701	Sololá	3	Barraneche	8	Agosto	2023-08-18T00:00:00	2024-11-06T18:00:00	1	Precipitación	0
44120	7	Sololá	701	Sololá	3	Barraneche	8	Agosto	2023-08-18T00:00:00	2024-11-06T18:00:00	8	Radiación solar	90
44121	7	Sololá	701	Sololá	3	Barraneche	8	Agosto	2023-08-18T00:00:00	2024-11-06T19:00:00	2	Temperatura media	15.6
44122	7	Sololá	701	Sololá	3	Barraneche	8	Agosto	2023-08-18T00:00:00	2024-11-06T19:00:00	4	Temperatura máxima	16.9
44123	7	Sololá	701	Sololá	3	Barraneche	8	Agosto	2023-08-18T00:00:00	2024-11-06T19:00:00	3	Temperatura mínima	15.6
44124	7	Sololá	701	Sololá	3	Barraneche	8	Agosto	2023-08-18T00:00:00	2024-11-06T19:00:00	5	Humedad	62
44125	7	Sololá	701	Sololá	3	Barraneche	8	Agosto	2023-08-18T00:00:00	2024-11-06T19:00:00	6	Velocidad del viento	9.7
44126	7	Sololá	701	Sololá	3	Barraneche	8	Agosto	2023-08-18T00:00:00	2024-11-06T19:00:00	7	Dirección del viento	9.66
44127	7	Sololá	701	Sololá	3	Barraneche	8	Agosto	2023-08-18T00:00:00	2024-11-06T19:00:00	1	Precipitación	0
44128	7	Sololá	701	Sololá	3	Barraneche	8	Agosto	2023-08-18T00:00:00	2024-11-06T19:00:00	8	Radiación solar	0
44129	7	Sololá	701	Sololá	3	Barraneche	8	Agosto	2023-08-18T00:00:00	2024-11-06T20:00:00	2	Temperatura media	15.3
44130	7	Sololá	701	Sololá	3	Barraneche	8	Agosto	2023-08-18T00:00:00	2024-11-06T20:00:00	4	Temperatura máxima	15.6
44131	7	Sololá	701	Sololá	3	Barraneche	8	Agosto	2023-08-18T00:00:00	2024-11-06T20:00:00	3	Temperatura mínima	15.2
44132	7	Sololá	701	Sololá	3	Barraneche	8	Agosto	2023-08-18T00:00:00	2024-11-06T20:00:00	5	Humedad	62
44133	7	Sololá	701	Sololá	3	Barraneche	8	Agosto	2023-08-18T00:00:00	2024-11-06T20:00:00	6	Velocidad del viento	11.3
44134	7	Sololá	701	Sololá	3	Barraneche	8	Agosto	2023-08-18T00:00:00	2024-11-06T20:00:00	7	Dirección del viento	11.27
44135	7	Sololá	701	Sololá	3	Barraneche	8	Agosto	2023-08-18T00:00:00	2024-11-06T20:00:00	1	Precipitación	0
44136	7	Sololá	701	Sololá	3	Barraneche	8	Agosto	2023-08-18T00:00:00	2024-11-06T20:00:00	8	Radiación solar	0
44137	7	Sololá	701	Sololá	3	Barraneche	8	Agosto	2023-08-18T00:00:00	2024-11-06T21:00:00	2	Temperatura media	14.7
44138	7	Sololá	701	Sololá	3	Barraneche	8	Agosto	2023-08-18T00:00:00	2024-11-06T21:00:00	4	Temperatura máxima	15.3
44139	7	Sololá	701	Sololá	3	Barraneche	8	Agosto	2023-08-18T00:00:00	2024-11-06T21:00:00	3	Temperatura mínima	14.7
44140	7	Sololá	701	Sololá	3	Barraneche	8	Agosto	2023-08-18T00:00:00	2024-11-06T21:00:00	5	Humedad	60
44141	7	Sololá	701	Sololá	3	Barraneche	8	Agosto	2023-08-18T00:00:00	2024-11-06T21:00:00	6	Velocidad del viento	11.3
44142	7	Sololá	701	Sololá	3	Barraneche	8	Agosto	2023-08-18T00:00:00	2024-11-06T21:00:00	7	Dirección del viento	11.27
44143	7	Sololá	701	Sololá	3	Barraneche	8	Agosto	2023-08-18T00:00:00	2024-11-06T21:00:00	1	Precipitación	0
44144	7	Sololá	701	Sololá	3	Barraneche	8	Agosto	2023-08-18T00:00:00	2024-11-06T21:00:00	8	Radiación solar	0
44145	7	Sololá	701	Sololá	3	Barraneche	8	Agosto	2023-08-18T00:00:00	2024-11-06T22:00:00	2	Temperatura media	14.2
44146	7	Sololá	701	Sololá	3	Barraneche	8	Agosto	2023-08-18T00:00:00	2024-11-06T22:00:00	4	Temperatura máxima	14.7
44147	7	Sololá	701	Sololá	3	Barraneche	8	Agosto	2023-08-18T00:00:00	2024-11-06T22:00:00	3	Temperatura mínima	14.1
44148	7	Sololá	701	Sololá	3	Barraneche	8	Agosto	2023-08-18T00:00:00	2024-11-06T22:00:00	5	Humedad	61
44149	7	Sololá	701	Sololá	3	Barraneche	8	Agosto	2023-08-18T00:00:00	2024-11-06T22:00:00	6	Velocidad del viento	9.7
44150	7	Sololá	701	Sololá	3	Barraneche	8	Agosto	2023-08-18T00:00:00	2024-11-06T22:00:00	7	Dirección del viento	9.66
44151	7	Sololá	701	Sololá	3	Barraneche	8	Agosto	2023-08-18T00:00:00	2024-11-06T22:00:00	1	Precipitación	0
44152	7	Sololá	701	Sololá	3	Barraneche	8	Agosto	2023-08-18T00:00:00	2024-11-06T22:00:00	8	Radiación solar	0
44153	7	Sololá	701	Sololá	3	Barraneche	8	Agosto	2023-08-18T00:00:00	2024-11-06T23:00:00	2	Temperatura media	14
44154	7	Sololá	701	Sololá	3	Barraneche	8	Agosto	2023-08-18T00:00:00	2024-11-06T23:00:00	4	Temperatura máxima	14.3
44155	7	Sololá	701	Sololá	3	Barraneche	8	Agosto	2023-08-18T00:00:00	2024-11-06T23:00:00	3	Temperatura mínima	14
44156	7	Sololá	701	Sololá	3	Barraneche	8	Agosto	2023-08-18T00:00:00	2024-11-06T23:00:00	5	Humedad	58
44157	7	Sololá	701	Sololá	3	Barraneche	8	Agosto	2023-08-18T00:00:00	2024-11-06T23:00:00	6	Velocidad del viento	14.5
44158	7	Sololá	701	Sololá	3	Barraneche	8	Agosto	2023-08-18T00:00:00	2024-11-06T23:00:00	7	Dirección del viento	14.48
44159	7	Sololá	701	Sololá	3	Barraneche	8	Agosto	2023-08-18T00:00:00	2024-11-06T23:00:00	1	Precipitación	0
44160	7	Sololá	701	Sololá	3	Barraneche	8	Agosto	2023-08-18T00:00:00	2024-11-06T23:00:00	8	Radiación solar	0
44161	7	Sololá	701	Sololá	3	Barraneche	8	Agosto	2023-08-19T00:00:00	2024-11-06T00:00:00	2	Temperatura media	13.8
44162	7	Sololá	701	Sololá	3	Barraneche	8	Agosto	2023-08-19T00:00:00	2024-11-06T00:00:00	4	Temperatura máxima	14
44163	7	Sololá	701	Sololá	3	Barraneche	8	Agosto	2023-08-19T00:00:00	2024-11-06T00:00:00	3	Temperatura mínima	13.7
44164	7	Sololá	701	Sololá	3	Barraneche	8	Agosto	2023-08-19T00:00:00	2024-11-06T00:00:00	5	Humedad	58
44165	7	Sololá	701	Sololá	3	Barraneche	8	Agosto	2023-08-19T00:00:00	2024-11-06T00:00:00	6	Velocidad del viento	17.7
44166	7	Sololá	701	Sololá	3	Barraneche	8	Agosto	2023-08-19T00:00:00	2024-11-06T00:00:00	7	Dirección del viento	17.7
44167	7	Sololá	701	Sololá	3	Barraneche	8	Agosto	2023-08-19T00:00:00	2024-11-06T00:00:00	1	Precipitación	0
44168	7	Sololá	701	Sololá	3	Barraneche	8	Agosto	2023-08-19T00:00:00	2024-11-06T00:00:00	8	Radiación solar	0
44169	7	Sololá	701	Sololá	3	Barraneche	8	Agosto	2023-08-19T00:00:00	2024-11-06T01:00:00	2	Temperatura media	13.4
44170	7	Sololá	701	Sololá	3	Barraneche	8	Agosto	2023-08-19T00:00:00	2024-11-06T01:00:00	4	Temperatura máxima	13.8
44171	7	Sololá	701	Sololá	3	Barraneche	8	Agosto	2023-08-19T00:00:00	2024-11-06T01:00:00	3	Temperatura mínima	13.4
44172	7	Sololá	701	Sololá	3	Barraneche	8	Agosto	2023-08-19T00:00:00	2024-11-06T01:00:00	5	Humedad	58
44173	7	Sololá	701	Sololá	3	Barraneche	8	Agosto	2023-08-19T00:00:00	2024-11-06T01:00:00	6	Velocidad del viento	14.5
44174	7	Sololá	701	Sololá	3	Barraneche	8	Agosto	2023-08-19T00:00:00	2024-11-06T01:00:00	7	Dirección del viento	14.48
44175	7	Sololá	701	Sololá	3	Barraneche	8	Agosto	2023-08-19T00:00:00	2024-11-06T01:00:00	1	Precipitación	0
44176	7	Sololá	701	Sololá	3	Barraneche	8	Agosto	2023-08-19T00:00:00	2024-11-06T01:00:00	8	Radiación solar	0
44177	7	Sololá	701	Sololá	3	Barraneche	8	Agosto	2023-08-19T00:00:00	2024-11-06T02:00:00	2	Temperatura media	13.1
44178	7	Sololá	701	Sololá	3	Barraneche	8	Agosto	2023-08-19T00:00:00	2024-11-06T02:00:00	4	Temperatura máxima	13.6
44179	7	Sololá	701	Sololá	3	Barraneche	8	Agosto	2023-08-19T00:00:00	2024-11-06T02:00:00	3	Temperatura mínima	13.1
44180	7	Sololá	701	Sololá	3	Barraneche	8	Agosto	2023-08-19T00:00:00	2024-11-06T02:00:00	5	Humedad	57
44181	7	Sololá	701	Sololá	3	Barraneche	8	Agosto	2023-08-19T00:00:00	2024-11-06T02:00:00	6	Velocidad del viento	8
44182	7	Sololá	701	Sololá	3	Barraneche	8	Agosto	2023-08-19T00:00:00	2024-11-06T02:00:00	7	Dirección del viento	8.05
44183	7	Sololá	701	Sololá	3	Barraneche	8	Agosto	2023-08-19T00:00:00	2024-11-06T02:00:00	1	Precipitación	0
44184	7	Sololá	701	Sololá	3	Barraneche	8	Agosto	2023-08-19T00:00:00	2024-11-06T02:00:00	8	Radiación solar	0
44185	7	Sololá	701	Sololá	3	Barraneche	8	Agosto	2023-08-19T00:00:00	2024-11-06T03:00:00	2	Temperatura media	13.7
44186	7	Sololá	701	Sololá	3	Barraneche	8	Agosto	2023-08-19T00:00:00	2024-11-06T03:00:00	4	Temperatura máxima	13.7
44187	7	Sololá	701	Sololá	3	Barraneche	8	Agosto	2023-08-19T00:00:00	2024-11-06T03:00:00	3	Temperatura mínima	12.7
44188	7	Sololá	701	Sololá	3	Barraneche	8	Agosto	2023-08-19T00:00:00	2024-11-06T03:00:00	5	Humedad	43
44189	7	Sololá	701	Sololá	3	Barraneche	8	Agosto	2023-08-19T00:00:00	2024-11-06T03:00:00	6	Velocidad del viento	9.7
44190	7	Sololá	701	Sololá	3	Barraneche	8	Agosto	2023-08-19T00:00:00	2024-11-06T03:00:00	7	Dirección del viento	9.66
44191	7	Sololá	701	Sololá	3	Barraneche	8	Agosto	2023-08-19T00:00:00	2024-11-06T03:00:00	1	Precipitación	0
44192	7	Sololá	701	Sololá	3	Barraneche	8	Agosto	2023-08-19T00:00:00	2024-11-06T03:00:00	8	Radiación solar	0
44193	7	Sololá	701	Sololá	3	Barraneche	8	Agosto	2023-08-19T00:00:00	2024-11-06T04:00:00	2	Temperatura media	13.5
44194	7	Sololá	701	Sololá	3	Barraneche	8	Agosto	2023-08-19T00:00:00	2024-11-06T04:00:00	4	Temperatura máxima	13.8
44195	7	Sololá	701	Sololá	3	Barraneche	8	Agosto	2023-08-19T00:00:00	2024-11-06T04:00:00	3	Temperatura mínima	13.3
44196	7	Sololá	701	Sololá	3	Barraneche	8	Agosto	2023-08-19T00:00:00	2024-11-06T04:00:00	5	Humedad	40
44197	7	Sololá	701	Sololá	3	Barraneche	8	Agosto	2023-08-19T00:00:00	2024-11-06T04:00:00	6	Velocidad del viento	9.7
44198	7	Sololá	701	Sololá	3	Barraneche	8	Agosto	2023-08-19T00:00:00	2024-11-06T04:00:00	7	Dirección del viento	9.66
44199	7	Sololá	701	Sololá	3	Barraneche	8	Agosto	2023-08-19T00:00:00	2024-11-06T04:00:00	1	Precipitación	0
44200	7	Sololá	701	Sololá	3	Barraneche	8	Agosto	2023-08-19T00:00:00	2024-11-06T04:00:00	8	Radiación solar	0
44201	7	Sololá	701	Sololá	3	Barraneche	8	Agosto	2023-08-19T00:00:00	2024-11-06T05:00:00	2	Temperatura media	13.4
44202	7	Sololá	701	Sololá	3	Barraneche	8	Agosto	2023-08-19T00:00:00	2024-11-06T05:00:00	4	Temperatura máxima	13.6
44203	7	Sololá	701	Sololá	3	Barraneche	8	Agosto	2023-08-19T00:00:00	2024-11-06T05:00:00	3	Temperatura mínima	13.2
44204	7	Sololá	701	Sololá	3	Barraneche	8	Agosto	2023-08-19T00:00:00	2024-11-06T05:00:00	5	Humedad	41
44205	7	Sololá	701	Sololá	3	Barraneche	8	Agosto	2023-08-19T00:00:00	2024-11-06T05:00:00	6	Velocidad del viento	9.7
44206	7	Sololá	701	Sololá	3	Barraneche	8	Agosto	2023-08-19T00:00:00	2024-11-06T05:00:00	7	Dirección del viento	9.66
44207	7	Sololá	701	Sololá	3	Barraneche	8	Agosto	2023-08-19T00:00:00	2024-11-06T05:00:00	1	Precipitación	0
44208	7	Sololá	701	Sololá	3	Barraneche	8	Agosto	2023-08-19T00:00:00	2024-11-06T05:00:00	8	Radiación solar	0
44209	7	Sololá	701	Sololá	3	Barraneche	8	Agosto	2023-08-19T00:00:00	2024-11-06T06:00:00	2	Temperatura media	13.8
44210	7	Sololá	701	Sololá	3	Barraneche	8	Agosto	2023-08-19T00:00:00	2024-11-06T06:00:00	4	Temperatura máxima	13.8
44211	7	Sololá	701	Sololá	3	Barraneche	8	Agosto	2023-08-19T00:00:00	2024-11-06T06:00:00	3	Temperatura mínima	13.4
44212	7	Sololá	701	Sololá	3	Barraneche	8	Agosto	2023-08-19T00:00:00	2024-11-06T06:00:00	5	Humedad	53
44213	7	Sololá	701	Sololá	3	Barraneche	8	Agosto	2023-08-19T00:00:00	2024-11-06T06:00:00	6	Velocidad del viento	20.9
44214	7	Sololá	701	Sololá	3	Barraneche	8	Agosto	2023-08-19T00:00:00	2024-11-06T06:00:00	7	Dirección del viento	20.92
44215	7	Sololá	701	Sololá	3	Barraneche	8	Agosto	2023-08-19T00:00:00	2024-11-06T06:00:00	1	Precipitación	0
44216	7	Sololá	701	Sololá	3	Barraneche	8	Agosto	2023-08-19T00:00:00	2024-11-06T06:00:00	8	Radiación solar	3
44217	7	Sololá	701	Sololá	3	Barraneche	8	Agosto	2023-08-19T00:00:00	2024-11-06T07:00:00	2	Temperatura media	14.2
44218	7	Sololá	701	Sololá	3	Barraneche	8	Agosto	2023-08-19T00:00:00	2024-11-06T07:00:00	4	Temperatura máxima	14.2
44219	7	Sololá	701	Sololá	3	Barraneche	8	Agosto	2023-08-19T00:00:00	2024-11-06T07:00:00	3	Temperatura mínima	13.6
44220	7	Sololá	701	Sololá	3	Barraneche	8	Agosto	2023-08-19T00:00:00	2024-11-06T07:00:00	5	Humedad	53
44221	7	Sololá	701	Sololá	3	Barraneche	8	Agosto	2023-08-19T00:00:00	2024-11-06T07:00:00	6	Velocidad del viento	22.5
44222	7	Sololá	701	Sololá	3	Barraneche	8	Agosto	2023-08-19T00:00:00	2024-11-06T07:00:00	7	Dirección del viento	22.53
44223	7	Sololá	701	Sololá	3	Barraneche	8	Agosto	2023-08-19T00:00:00	2024-11-06T07:00:00	1	Precipitación	0
44224	7	Sololá	701	Sololá	3	Barraneche	8	Agosto	2023-08-19T00:00:00	2024-11-06T07:00:00	8	Radiación solar	68
44225	7	Sololá	701	Sololá	3	Barraneche	8	Agosto	2023-08-19T00:00:00	2024-11-06T08:00:00	2	Temperatura media	15.8
44226	7	Sololá	701	Sololá	3	Barraneche	8	Agosto	2023-08-19T00:00:00	2024-11-06T08:00:00	4	Temperatura máxima	15.9
44227	7	Sololá	701	Sololá	3	Barraneche	8	Agosto	2023-08-19T00:00:00	2024-11-06T08:00:00	3	Temperatura mínima	14.2
44228	7	Sololá	701	Sololá	3	Barraneche	8	Agosto	2023-08-19T00:00:00	2024-11-06T08:00:00	5	Humedad	44
44229	7	Sololá	701	Sololá	3	Barraneche	8	Agosto	2023-08-19T00:00:00	2024-11-06T08:00:00	6	Velocidad del viento	19.3
44230	7	Sololá	701	Sololá	3	Barraneche	8	Agosto	2023-08-19T00:00:00	2024-11-06T08:00:00	7	Dirección del viento	19.31
44231	7	Sololá	701	Sololá	3	Barraneche	8	Agosto	2023-08-19T00:00:00	2024-11-06T08:00:00	1	Precipitación	0
44232	7	Sololá	701	Sololá	3	Barraneche	8	Agosto	2023-08-19T00:00:00	2024-11-06T08:00:00	8	Radiación solar	344
44233	7	Sololá	701	Sololá	3	Barraneche	8	Agosto	2023-08-19T00:00:00	2024-11-06T09:00:00	2	Temperatura media	17
44234	7	Sololá	701	Sololá	3	Barraneche	8	Agosto	2023-08-19T00:00:00	2024-11-06T09:00:00	4	Temperatura máxima	17
44235	7	Sololá	701	Sololá	3	Barraneche	8	Agosto	2023-08-19T00:00:00	2024-11-06T09:00:00	3	Temperatura mínima	15.8
44236	7	Sololá	701	Sololá	3	Barraneche	8	Agosto	2023-08-19T00:00:00	2024-11-06T09:00:00	5	Humedad	49
44237	7	Sololá	701	Sololá	3	Barraneche	8	Agosto	2023-08-19T00:00:00	2024-11-06T09:00:00	6	Velocidad del viento	16.1
44238	7	Sololá	701	Sololá	3	Barraneche	8	Agosto	2023-08-19T00:00:00	2024-11-06T09:00:00	7	Dirección del viento	16.09
44239	7	Sololá	701	Sololá	3	Barraneche	8	Agosto	2023-08-19T00:00:00	2024-11-06T09:00:00	1	Precipitación	0
44240	7	Sololá	701	Sololá	3	Barraneche	8	Agosto	2023-08-19T00:00:00	2024-11-06T09:00:00	8	Radiación solar	596
44241	7	Sololá	701	Sololá	3	Barraneche	8	Agosto	2023-08-19T00:00:00	2024-11-06T10:00:00	2	Temperatura media	17.9
44242	7	Sololá	701	Sololá	3	Barraneche	8	Agosto	2023-08-19T00:00:00	2024-11-06T10:00:00	4	Temperatura máxima	17.9
44243	7	Sololá	701	Sololá	3	Barraneche	8	Agosto	2023-08-19T00:00:00	2024-11-06T10:00:00	3	Temperatura mínima	16.7
44244	7	Sololá	701	Sololá	3	Barraneche	8	Agosto	2023-08-19T00:00:00	2024-11-06T10:00:00	5	Humedad	44
44245	7	Sololá	701	Sololá	3	Barraneche	8	Agosto	2023-08-19T00:00:00	2024-11-06T10:00:00	6	Velocidad del viento	12.9
44246	7	Sololá	701	Sololá	3	Barraneche	8	Agosto	2023-08-19T00:00:00	2024-11-06T10:00:00	7	Dirección del viento	12.87
44247	7	Sololá	701	Sololá	3	Barraneche	8	Agosto	2023-08-19T00:00:00	2024-11-06T10:00:00	1	Precipitación	0
44248	7	Sololá	701	Sololá	3	Barraneche	8	Agosto	2023-08-19T00:00:00	2024-11-06T10:00:00	8	Radiación solar	798
44249	7	Sololá	701	Sololá	3	Barraneche	8	Agosto	2023-08-19T00:00:00	2024-11-06T11:00:00	2	Temperatura media	18.1
44250	7	Sololá	701	Sololá	3	Barraneche	8	Agosto	2023-08-19T00:00:00	2024-11-06T11:00:00	4	Temperatura máxima	18.2
44251	7	Sololá	701	Sololá	3	Barraneche	8	Agosto	2023-08-19T00:00:00	2024-11-06T11:00:00	3	Temperatura mínima	17.7
44252	7	Sololá	701	Sololá	3	Barraneche	8	Agosto	2023-08-19T00:00:00	2024-11-06T11:00:00	5	Humedad	51
44253	7	Sololá	701	Sololá	3	Barraneche	8	Agosto	2023-08-19T00:00:00	2024-11-06T11:00:00	6	Velocidad del viento	14.5
44254	7	Sololá	701	Sololá	3	Barraneche	8	Agosto	2023-08-19T00:00:00	2024-11-06T11:00:00	7	Dirección del viento	14.48
44255	7	Sololá	701	Sololá	3	Barraneche	8	Agosto	2023-08-19T00:00:00	2024-11-06T11:00:00	1	Precipitación	0
44256	7	Sololá	701	Sololá	3	Barraneche	8	Agosto	2023-08-19T00:00:00	2024-11-06T11:00:00	8	Radiación solar	955
44257	7	Sololá	701	Sololá	3	Barraneche	8	Agosto	2023-08-19T00:00:00	2024-11-06T12:00:00	2	Temperatura media	18.7
44258	7	Sololá	701	Sololá	3	Barraneche	8	Agosto	2023-08-19T00:00:00	2024-11-06T12:00:00	4	Temperatura máxima	18.9
44259	7	Sololá	701	Sololá	3	Barraneche	8	Agosto	2023-08-19T00:00:00	2024-11-06T12:00:00	3	Temperatura mínima	17.8
44260	7	Sololá	701	Sololá	3	Barraneche	8	Agosto	2023-08-19T00:00:00	2024-11-06T12:00:00	5	Humedad	50
44261	7	Sololá	701	Sololá	3	Barraneche	8	Agosto	2023-08-19T00:00:00	2024-11-06T12:00:00	6	Velocidad del viento	12.9
44262	7	Sololá	701	Sololá	3	Barraneche	8	Agosto	2023-08-19T00:00:00	2024-11-06T12:00:00	7	Dirección del viento	12.87
44263	7	Sololá	701	Sololá	3	Barraneche	8	Agosto	2023-08-19T00:00:00	2024-11-06T12:00:00	1	Precipitación	0
44264	7	Sololá	701	Sololá	3	Barraneche	8	Agosto	2023-08-19T00:00:00	2024-11-06T12:00:00	8	Radiación solar	989
44265	7	Sololá	701	Sololá	3	Barraneche	8	Agosto	2023-08-19T00:00:00	2024-11-06T13:00:00	2	Temperatura media	18
44266	7	Sololá	701	Sololá	3	Barraneche	8	Agosto	2023-08-19T00:00:00	2024-11-06T13:00:00	4	Temperatura máxima	19
44267	7	Sololá	701	Sololá	3	Barraneche	8	Agosto	2023-08-19T00:00:00	2024-11-06T13:00:00	3	Temperatura mínima	17.3
44268	7	Sololá	701	Sololá	3	Barraneche	8	Agosto	2023-08-19T00:00:00	2024-11-06T13:00:00	5	Humedad	54
44269	7	Sololá	701	Sololá	3	Barraneche	8	Agosto	2023-08-19T00:00:00	2024-11-06T13:00:00	6	Velocidad del viento	14.5
44270	7	Sololá	701	Sololá	3	Barraneche	8	Agosto	2023-08-19T00:00:00	2024-11-06T13:00:00	7	Dirección del viento	14.48
44271	7	Sololá	701	Sololá	3	Barraneche	8	Agosto	2023-08-19T00:00:00	2024-11-06T13:00:00	1	Precipitación	0
44272	7	Sololá	701	Sololá	3	Barraneche	8	Agosto	2023-08-19T00:00:00	2024-11-06T13:00:00	8	Radiación solar	704
44273	7	Sololá	701	Sololá	3	Barraneche	8	Agosto	2023-08-19T00:00:00	2024-11-06T14:00:00	2	Temperatura media	19.4
44274	7	Sololá	701	Sololá	3	Barraneche	8	Agosto	2023-08-19T00:00:00	2024-11-06T14:00:00	4	Temperatura máxima	19.6
44275	7	Sololá	701	Sololá	3	Barraneche	8	Agosto	2023-08-19T00:00:00	2024-11-06T14:00:00	3	Temperatura mínima	17.9
44276	7	Sololá	701	Sololá	3	Barraneche	8	Agosto	2023-08-19T00:00:00	2024-11-06T14:00:00	5	Humedad	49
44277	7	Sololá	701	Sololá	3	Barraneche	8	Agosto	2023-08-19T00:00:00	2024-11-06T14:00:00	6	Velocidad del viento	8
44278	7	Sololá	701	Sololá	3	Barraneche	8	Agosto	2023-08-19T00:00:00	2024-11-06T14:00:00	7	Dirección del viento	8.05
44279	7	Sololá	701	Sololá	3	Barraneche	8	Agosto	2023-08-19T00:00:00	2024-11-06T14:00:00	1	Precipitación	0
44280	7	Sololá	701	Sololá	3	Barraneche	8	Agosto	2023-08-19T00:00:00	2024-11-06T14:00:00	8	Radiación solar	570
44281	7	Sololá	701	Sololá	3	Barraneche	8	Agosto	2023-08-19T00:00:00	2024-11-06T15:00:00	2	Temperatura media	18.8
44282	7	Sololá	701	Sololá	3	Barraneche	8	Agosto	2023-08-19T00:00:00	2024-11-06T15:00:00	4	Temperatura máxima	19.4
44283	7	Sololá	701	Sololá	3	Barraneche	8	Agosto	2023-08-19T00:00:00	2024-11-06T15:00:00	3	Temperatura mínima	17.7
44284	7	Sololá	701	Sololá	3	Barraneche	8	Agosto	2023-08-19T00:00:00	2024-11-06T15:00:00	5	Humedad	53
44285	7	Sololá	701	Sololá	3	Barraneche	8	Agosto	2023-08-19T00:00:00	2024-11-06T15:00:00	6	Velocidad del viento	12.9
44286	7	Sololá	701	Sololá	3	Barraneche	8	Agosto	2023-08-19T00:00:00	2024-11-06T15:00:00	7	Dirección del viento	12.87
44287	7	Sololá	701	Sololá	3	Barraneche	8	Agosto	2023-08-19T00:00:00	2024-11-06T15:00:00	1	Precipitación	0
44288	7	Sololá	701	Sololá	3	Barraneche	8	Agosto	2023-08-19T00:00:00	2024-11-06T15:00:00	8	Radiación solar	423
44289	7	Sololá	701	Sololá	3	Barraneche	8	Agosto	2023-08-19T00:00:00	2024-11-06T16:00:00	2	Temperatura media	16.7
44290	7	Sololá	701	Sololá	3	Barraneche	8	Agosto	2023-08-19T00:00:00	2024-11-06T16:00:00	4	Temperatura máxima	18.9
44291	7	Sololá	701	Sololá	3	Barraneche	8	Agosto	2023-08-19T00:00:00	2024-11-06T16:00:00	3	Temperatura mínima	16.6
44292	7	Sololá	701	Sololá	3	Barraneche	8	Agosto	2023-08-19T00:00:00	2024-11-06T16:00:00	5	Humedad	58
44293	7	Sololá	701	Sololá	3	Barraneche	8	Agosto	2023-08-19T00:00:00	2024-11-06T16:00:00	6	Velocidad del viento	14.5
44294	7	Sololá	701	Sololá	3	Barraneche	8	Agosto	2023-08-19T00:00:00	2024-11-06T16:00:00	7	Dirección del viento	14.48
44295	7	Sololá	701	Sololá	3	Barraneche	8	Agosto	2023-08-19T00:00:00	2024-11-06T16:00:00	1	Precipitación	0
44296	7	Sololá	701	Sololá	3	Barraneche	8	Agosto	2023-08-19T00:00:00	2024-11-06T16:00:00	8	Radiación solar	167
44297	7	Sololá	701	Sololá	3	Barraneche	8	Agosto	2023-08-19T00:00:00	2024-11-06T17:00:00	2	Temperatura media	17.6
44298	7	Sololá	701	Sololá	3	Barraneche	8	Agosto	2023-08-19T00:00:00	2024-11-06T17:00:00	4	Temperatura máxima	18.2
44299	7	Sololá	701	Sololá	3	Barraneche	8	Agosto	2023-08-19T00:00:00	2024-11-06T17:00:00	3	Temperatura mínima	16.7
44300	7	Sololá	701	Sololá	3	Barraneche	8	Agosto	2023-08-19T00:00:00	2024-11-06T17:00:00	5	Humedad	55
44301	7	Sololá	701	Sololá	3	Barraneche	8	Agosto	2023-08-19T00:00:00	2024-11-06T17:00:00	6	Velocidad del viento	11.3
44302	7	Sololá	701	Sololá	3	Barraneche	8	Agosto	2023-08-19T00:00:00	2024-11-06T17:00:00	7	Dirección del viento	11.27
44303	7	Sololá	701	Sololá	3	Barraneche	8	Agosto	2023-08-19T00:00:00	2024-11-06T17:00:00	1	Precipitación	0
44304	7	Sololá	701	Sololá	3	Barraneche	8	Agosto	2023-08-19T00:00:00	2024-11-06T17:00:00	8	Radiación solar	216
44305	7	Sololá	701	Sololá	3	Barraneche	8	Agosto	2023-08-19T00:00:00	2024-11-06T18:00:00	2	Temperatura media	16.3
44306	7	Sololá	701	Sololá	3	Barraneche	8	Agosto	2023-08-19T00:00:00	2024-11-06T18:00:00	4	Temperatura máxima	17.6
44307	7	Sololá	701	Sololá	3	Barraneche	8	Agosto	2023-08-19T00:00:00	2024-11-06T18:00:00	3	Temperatura mínima	16.2
44308	7	Sololá	701	Sololá	3	Barraneche	8	Agosto	2023-08-19T00:00:00	2024-11-06T18:00:00	5	Humedad	61
44309	7	Sololá	701	Sololá	3	Barraneche	8	Agosto	2023-08-19T00:00:00	2024-11-06T18:00:00	6	Velocidad del viento	8
44310	7	Sololá	701	Sololá	3	Barraneche	8	Agosto	2023-08-19T00:00:00	2024-11-06T18:00:00	7	Dirección del viento	8.05
44311	7	Sololá	701	Sololá	3	Barraneche	8	Agosto	2023-08-19T00:00:00	2024-11-06T18:00:00	1	Precipitación	0
44312	7	Sololá	701	Sololá	3	Barraneche	8	Agosto	2023-08-19T00:00:00	2024-11-06T18:00:00	8	Radiación solar	37
44313	7	Sololá	701	Sololá	3	Barraneche	8	Agosto	2023-08-19T00:00:00	2024-11-06T19:00:00	2	Temperatura media	14.8
44314	7	Sololá	701	Sololá	3	Barraneche	8	Agosto	2023-08-19T00:00:00	2024-11-06T19:00:00	4	Temperatura máxima	16.3
44315	7	Sololá	701	Sololá	3	Barraneche	8	Agosto	2023-08-19T00:00:00	2024-11-06T19:00:00	3	Temperatura mínima	14.7
44316	7	Sololá	701	Sololá	3	Barraneche	8	Agosto	2023-08-19T00:00:00	2024-11-06T19:00:00	5	Humedad	67
44317	7	Sololá	701	Sololá	3	Barraneche	8	Agosto	2023-08-19T00:00:00	2024-11-06T19:00:00	6	Velocidad del viento	6.4
44318	7	Sololá	701	Sololá	3	Barraneche	8	Agosto	2023-08-19T00:00:00	2024-11-06T19:00:00	7	Dirección del viento	6.44
44319	7	Sololá	701	Sololá	3	Barraneche	8	Agosto	2023-08-19T00:00:00	2024-11-06T19:00:00	1	Precipitación	0.2
44320	7	Sololá	701	Sololá	3	Barraneche	8	Agosto	2023-08-19T00:00:00	2024-11-06T19:00:00	8	Radiación solar	0
44321	7	Sololá	701	Sololá	3	Barraneche	8	Agosto	2023-08-19T00:00:00	2024-11-06T20:00:00	2	Temperatura media	13.6
44322	7	Sololá	701	Sololá	3	Barraneche	8	Agosto	2023-08-19T00:00:00	2024-11-06T20:00:00	4	Temperatura máxima	14.8
44323	7	Sololá	701	Sololá	3	Barraneche	8	Agosto	2023-08-19T00:00:00	2024-11-06T20:00:00	3	Temperatura mínima	13.6
44324	7	Sololá	701	Sololá	3	Barraneche	8	Agosto	2023-08-19T00:00:00	2024-11-06T20:00:00	5	Humedad	66
44325	7	Sololá	701	Sololá	3	Barraneche	8	Agosto	2023-08-19T00:00:00	2024-11-06T20:00:00	6	Velocidad del viento	11.3
44326	7	Sololá	701	Sololá	3	Barraneche	8	Agosto	2023-08-19T00:00:00	2024-11-06T20:00:00	7	Dirección del viento	11.27
44327	7	Sololá	701	Sololá	3	Barraneche	8	Agosto	2023-08-19T00:00:00	2024-11-06T20:00:00	1	Precipitación	0
44328	7	Sololá	701	Sololá	3	Barraneche	8	Agosto	2023-08-19T00:00:00	2024-11-06T20:00:00	8	Radiación solar	0
44329	7	Sololá	701	Sololá	3	Barraneche	8	Agosto	2023-08-19T00:00:00	2024-11-06T21:00:00	2	Temperatura media	13.3
44330	7	Sololá	701	Sololá	3	Barraneche	8	Agosto	2023-08-19T00:00:00	2024-11-06T21:00:00	4	Temperatura máxima	13.6
44331	7	Sololá	701	Sololá	3	Barraneche	8	Agosto	2023-08-19T00:00:00	2024-11-06T21:00:00	3	Temperatura mínima	13.3
44332	7	Sololá	701	Sololá	3	Barraneche	8	Agosto	2023-08-19T00:00:00	2024-11-06T21:00:00	5	Humedad	67
44333	7	Sololá	701	Sololá	3	Barraneche	8	Agosto	2023-08-19T00:00:00	2024-11-06T21:00:00	6	Velocidad del viento	11.3
44334	7	Sololá	701	Sololá	3	Barraneche	8	Agosto	2023-08-19T00:00:00	2024-11-06T21:00:00	7	Dirección del viento	11.27
44335	7	Sololá	701	Sololá	3	Barraneche	8	Agosto	2023-08-19T00:00:00	2024-11-06T21:00:00	1	Precipitación	0
44336	7	Sololá	701	Sololá	3	Barraneche	8	Agosto	2023-08-19T00:00:00	2024-11-06T21:00:00	8	Radiación solar	0
44337	7	Sololá	701	Sololá	3	Barraneche	8	Agosto	2023-08-19T00:00:00	2024-11-06T22:00:00	2	Temperatura media	13.2
44338	7	Sololá	701	Sololá	3	Barraneche	8	Agosto	2023-08-19T00:00:00	2024-11-06T22:00:00	4	Temperatura máxima	13.4
44339	7	Sololá	701	Sololá	3	Barraneche	8	Agosto	2023-08-19T00:00:00	2024-11-06T22:00:00	3	Temperatura mínima	13.1
44340	7	Sololá	701	Sololá	3	Barraneche	8	Agosto	2023-08-19T00:00:00	2024-11-06T22:00:00	5	Humedad	62
44341	7	Sololá	701	Sololá	3	Barraneche	8	Agosto	2023-08-19T00:00:00	2024-11-06T22:00:00	6	Velocidad del viento	12.9
44342	7	Sololá	701	Sololá	3	Barraneche	8	Agosto	2023-08-19T00:00:00	2024-11-06T22:00:00	7	Dirección del viento	12.87
44343	7	Sololá	701	Sololá	3	Barraneche	8	Agosto	2023-08-19T00:00:00	2024-11-06T22:00:00	1	Precipitación	0
44344	7	Sololá	701	Sololá	3	Barraneche	8	Agosto	2023-08-19T00:00:00	2024-11-06T22:00:00	8	Radiación solar	0
44345	7	Sololá	701	Sololá	3	Barraneche	8	Agosto	2023-08-19T00:00:00	2024-11-06T23:00:00	2	Temperatura media	12.8
44346	7	Sololá	701	Sololá	3	Barraneche	8	Agosto	2023-08-19T00:00:00	2024-11-06T23:00:00	4	Temperatura máxima	13.3
44347	7	Sololá	701	Sololá	3	Barraneche	8	Agosto	2023-08-19T00:00:00	2024-11-06T23:00:00	3	Temperatura mínima	12.8
44348	7	Sololá	701	Sololá	3	Barraneche	8	Agosto	2023-08-19T00:00:00	2024-11-06T23:00:00	5	Humedad	61
44349	7	Sololá	701	Sololá	3	Barraneche	8	Agosto	2023-08-19T00:00:00	2024-11-06T23:00:00	6	Velocidad del viento	12.9
44350	7	Sololá	701	Sololá	3	Barraneche	8	Agosto	2023-08-19T00:00:00	2024-11-06T23:00:00	7	Dirección del viento	12.87
44351	7	Sololá	701	Sololá	3	Barraneche	8	Agosto	2023-08-19T00:00:00	2024-11-06T23:00:00	1	Precipitación	0
44352	7	Sololá	701	Sololá	3	Barraneche	8	Agosto	2023-08-19T00:00:00	2024-11-06T23:00:00	8	Radiación solar	0
44353	7	Sololá	701	Sololá	3	Barraneche	8	Agosto	2023-08-20T00:00:00	2024-11-06T00:00:00	2	Temperatura media	12.9
44354	7	Sololá	701	Sololá	3	Barraneche	8	Agosto	2023-08-20T00:00:00	2024-11-06T00:00:00	4	Temperatura máxima	13.1
44355	7	Sololá	701	Sololá	3	Barraneche	8	Agosto	2023-08-20T00:00:00	2024-11-06T00:00:00	3	Temperatura mínima	12.8
44356	7	Sololá	701	Sololá	3	Barraneche	8	Agosto	2023-08-20T00:00:00	2024-11-06T00:00:00	5	Humedad	63
44357	7	Sololá	701	Sololá	3	Barraneche	8	Agosto	2023-08-20T00:00:00	2024-11-06T00:00:00	6	Velocidad del viento	20.9
44358	7	Sololá	701	Sololá	3	Barraneche	8	Agosto	2023-08-20T00:00:00	2024-11-06T00:00:00	7	Dirección del viento	20.92
44359	7	Sololá	701	Sololá	3	Barraneche	8	Agosto	2023-08-20T00:00:00	2024-11-06T00:00:00	1	Precipitación	0
44360	7	Sololá	701	Sololá	3	Barraneche	8	Agosto	2023-08-20T00:00:00	2024-11-06T00:00:00	8	Radiación solar	0
44361	7	Sololá	701	Sololá	3	Barraneche	8	Agosto	2023-08-20T00:00:00	2024-11-06T01:00:00	2	Temperatura media	13
44362	7	Sololá	701	Sololá	3	Barraneche	8	Agosto	2023-08-20T00:00:00	2024-11-06T01:00:00	4	Temperatura máxima	13.1
44363	7	Sololá	701	Sololá	3	Barraneche	8	Agosto	2023-08-20T00:00:00	2024-11-06T01:00:00	3	Temperatura mínima	12.8
44364	7	Sololá	701	Sololá	3	Barraneche	8	Agosto	2023-08-20T00:00:00	2024-11-06T01:00:00	5	Humedad	59
44365	7	Sololá	701	Sololá	3	Barraneche	8	Agosto	2023-08-20T00:00:00	2024-11-06T01:00:00	6	Velocidad del viento	25.7
44366	7	Sololá	701	Sololá	3	Barraneche	8	Agosto	2023-08-20T00:00:00	2024-11-06T01:00:00	7	Dirección del viento	25.75
44367	7	Sololá	701	Sololá	3	Barraneche	8	Agosto	2023-08-20T00:00:00	2024-11-06T01:00:00	1	Precipitación	0
44368	7	Sololá	701	Sololá	3	Barraneche	8	Agosto	2023-08-20T00:00:00	2024-11-06T01:00:00	8	Radiación solar	0
44369	7	Sololá	701	Sololá	3	Barraneche	8	Agosto	2023-08-20T00:00:00	2024-11-06T02:00:00	2	Temperatura media	12.9
44370	7	Sololá	701	Sololá	3	Barraneche	8	Agosto	2023-08-20T00:00:00	2024-11-06T02:00:00	4	Temperatura máxima	13
44371	7	Sololá	701	Sololá	3	Barraneche	8	Agosto	2023-08-20T00:00:00	2024-11-06T02:00:00	3	Temperatura mínima	12.8
44372	7	Sololá	701	Sololá	3	Barraneche	8	Agosto	2023-08-20T00:00:00	2024-11-06T02:00:00	5	Humedad	59
44373	7	Sololá	701	Sololá	3	Barraneche	8	Agosto	2023-08-20T00:00:00	2024-11-06T02:00:00	6	Velocidad del viento	14.5
44374	7	Sololá	701	Sololá	3	Barraneche	8	Agosto	2023-08-20T00:00:00	2024-11-06T02:00:00	7	Dirección del viento	14.48
44375	7	Sololá	701	Sololá	3	Barraneche	8	Agosto	2023-08-20T00:00:00	2024-11-06T02:00:00	1	Precipitación	0
44376	7	Sololá	701	Sololá	3	Barraneche	8	Agosto	2023-08-20T00:00:00	2024-11-06T02:00:00	8	Radiación solar	0
44377	7	Sololá	701	Sololá	3	Barraneche	8	Agosto	2023-08-20T00:00:00	2024-11-06T03:00:00	2	Temperatura media	13.2
44378	7	Sololá	701	Sololá	3	Barraneche	8	Agosto	2023-08-20T00:00:00	2024-11-06T03:00:00	4	Temperatura máxima	13.4
44379	7	Sololá	701	Sololá	3	Barraneche	8	Agosto	2023-08-20T00:00:00	2024-11-06T03:00:00	3	Temperatura mínima	12.9
44380	7	Sololá	701	Sololá	3	Barraneche	8	Agosto	2023-08-20T00:00:00	2024-11-06T03:00:00	5	Humedad	52
44381	7	Sololá	701	Sololá	3	Barraneche	8	Agosto	2023-08-20T00:00:00	2024-11-06T03:00:00	6	Velocidad del viento	12.9
44382	7	Sololá	701	Sololá	3	Barraneche	8	Agosto	2023-08-20T00:00:00	2024-11-06T03:00:00	7	Dirección del viento	12.87
44383	7	Sololá	701	Sololá	3	Barraneche	8	Agosto	2023-08-20T00:00:00	2024-11-06T03:00:00	1	Precipitación	0
44384	7	Sololá	701	Sololá	3	Barraneche	8	Agosto	2023-08-20T00:00:00	2024-11-06T03:00:00	8	Radiación solar	0
44385	7	Sololá	701	Sololá	3	Barraneche	8	Agosto	2023-08-20T00:00:00	2024-11-06T04:00:00	2	Temperatura media	13.1
44386	7	Sololá	701	Sololá	3	Barraneche	8	Agosto	2023-08-20T00:00:00	2024-11-06T04:00:00	4	Temperatura máxima	13.3
44387	7	Sololá	701	Sololá	3	Barraneche	8	Agosto	2023-08-20T00:00:00	2024-11-06T04:00:00	3	Temperatura mínima	13.1
44388	7	Sololá	701	Sololá	3	Barraneche	8	Agosto	2023-08-20T00:00:00	2024-11-06T04:00:00	5	Humedad	48
44389	7	Sololá	701	Sololá	3	Barraneche	8	Agosto	2023-08-20T00:00:00	2024-11-06T04:00:00	6	Velocidad del viento	12.9
44390	7	Sololá	701	Sololá	3	Barraneche	8	Agosto	2023-08-20T00:00:00	2024-11-06T04:00:00	7	Dirección del viento	12.87
44391	7	Sololá	701	Sololá	3	Barraneche	8	Agosto	2023-08-20T00:00:00	2024-11-06T04:00:00	1	Precipitación	0
44392	7	Sololá	701	Sololá	3	Barraneche	8	Agosto	2023-08-20T00:00:00	2024-11-06T04:00:00	8	Radiación solar	0
44393	7	Sololá	701	Sololá	3	Barraneche	8	Agosto	2023-08-20T00:00:00	2024-11-06T05:00:00	2	Temperatura media	12.8
44394	7	Sololá	701	Sololá	3	Barraneche	8	Agosto	2023-08-20T00:00:00	2024-11-06T05:00:00	4	Temperatura máxima	13.1
44395	7	Sololá	701	Sololá	3	Barraneche	8	Agosto	2023-08-20T00:00:00	2024-11-06T05:00:00	3	Temperatura mínima	12.6
44396	7	Sololá	701	Sololá	3	Barraneche	8	Agosto	2023-08-20T00:00:00	2024-11-06T05:00:00	5	Humedad	55
44397	7	Sololá	701	Sololá	3	Barraneche	8	Agosto	2023-08-20T00:00:00	2024-11-06T05:00:00	6	Velocidad del viento	8
44398	7	Sololá	701	Sololá	3	Barraneche	8	Agosto	2023-08-20T00:00:00	2024-11-06T05:00:00	7	Dirección del viento	8.05
44399	7	Sololá	701	Sololá	3	Barraneche	8	Agosto	2023-08-20T00:00:00	2024-11-06T05:00:00	1	Precipitación	0
44400	7	Sololá	701	Sololá	3	Barraneche	8	Agosto	2023-08-20T00:00:00	2024-11-06T05:00:00	8	Radiación solar	0
44401	7	Sololá	701	Sololá	3	Barraneche	8	Agosto	2023-08-20T00:00:00	2024-11-06T06:00:00	2	Temperatura media	12.3
44402	7	Sololá	701	Sololá	3	Barraneche	8	Agosto	2023-08-20T00:00:00	2024-11-06T06:00:00	4	Temperatura máxima	12.8
44403	7	Sololá	701	Sololá	3	Barraneche	8	Agosto	2023-08-20T00:00:00	2024-11-06T06:00:00	3	Temperatura mínima	12.2
44404	7	Sololá	701	Sololá	3	Barraneche	8	Agosto	2023-08-20T00:00:00	2024-11-06T06:00:00	5	Humedad	55
44405	7	Sololá	701	Sololá	3	Barraneche	8	Agosto	2023-08-20T00:00:00	2024-11-06T06:00:00	6	Velocidad del viento	8
44406	7	Sololá	701	Sololá	3	Barraneche	8	Agosto	2023-08-20T00:00:00	2024-11-06T06:00:00	7	Dirección del viento	8.05
44407	7	Sololá	701	Sololá	3	Barraneche	8	Agosto	2023-08-20T00:00:00	2024-11-06T06:00:00	1	Precipitación	0
44408	7	Sololá	701	Sololá	3	Barraneche	8	Agosto	2023-08-20T00:00:00	2024-11-06T06:00:00	8	Radiación solar	1
44409	7	Sololá	701	Sololá	3	Barraneche	8	Agosto	2023-08-20T00:00:00	2024-11-06T07:00:00	2	Temperatura media	13.1
44410	7	Sololá	701	Sololá	3	Barraneche	8	Agosto	2023-08-20T00:00:00	2024-11-06T07:00:00	4	Temperatura máxima	13.1
44411	7	Sololá	701	Sololá	3	Barraneche	8	Agosto	2023-08-20T00:00:00	2024-11-06T07:00:00	3	Temperatura mínima	11.8
44412	7	Sololá	701	Sololá	3	Barraneche	8	Agosto	2023-08-20T00:00:00	2024-11-06T07:00:00	5	Humedad	55
44413	7	Sololá	701	Sololá	3	Barraneche	8	Agosto	2023-08-20T00:00:00	2024-11-06T07:00:00	6	Velocidad del viento	3.2
44414	7	Sololá	701	Sololá	3	Barraneche	8	Agosto	2023-08-20T00:00:00	2024-11-06T07:00:00	7	Dirección del viento	3.22
44415	7	Sololá	701	Sololá	3	Barraneche	8	Agosto	2023-08-20T00:00:00	2024-11-06T07:00:00	1	Precipitación	0
44416	7	Sololá	701	Sololá	3	Barraneche	8	Agosto	2023-08-20T00:00:00	2024-11-06T07:00:00	8	Radiación solar	63
44417	7	Sololá	701	Sololá	3	Barraneche	8	Agosto	2023-08-20T00:00:00	2024-11-06T08:00:00	2	Temperatura media	17
44418	7	Sololá	701	Sololá	3	Barraneche	8	Agosto	2023-08-20T00:00:00	2024-11-06T08:00:00	4	Temperatura máxima	17
44419	7	Sololá	701	Sololá	3	Barraneche	8	Agosto	2023-08-20T00:00:00	2024-11-06T08:00:00	3	Temperatura mínima	13.1
44420	7	Sololá	701	Sololá	3	Barraneche	8	Agosto	2023-08-20T00:00:00	2024-11-06T08:00:00	5	Humedad	45
44421	7	Sololá	701	Sololá	3	Barraneche	8	Agosto	2023-08-20T00:00:00	2024-11-06T08:00:00	6	Velocidad del viento	4.8
44422	7	Sololá	701	Sololá	3	Barraneche	8	Agosto	2023-08-20T00:00:00	2024-11-06T08:00:00	7	Dirección del viento	4.83
44423	7	Sololá	701	Sololá	3	Barraneche	8	Agosto	2023-08-20T00:00:00	2024-11-06T08:00:00	1	Precipitación	0
44424	7	Sololá	701	Sololá	3	Barraneche	8	Agosto	2023-08-20T00:00:00	2024-11-06T08:00:00	8	Radiación solar	351
44425	7	Sololá	701	Sololá	3	Barraneche	8	Agosto	2023-08-20T00:00:00	2024-11-06T09:00:00	2	Temperatura media	18.3
44426	7	Sololá	701	Sololá	3	Barraneche	8	Agosto	2023-08-20T00:00:00	2024-11-06T09:00:00	4	Temperatura máxima	18.4
44427	7	Sololá	701	Sololá	3	Barraneche	8	Agosto	2023-08-20T00:00:00	2024-11-06T09:00:00	3	Temperatura mínima	17
44428	7	Sololá	701	Sololá	3	Barraneche	8	Agosto	2023-08-20T00:00:00	2024-11-06T09:00:00	5	Humedad	43
44429	7	Sololá	701	Sololá	3	Barraneche	8	Agosto	2023-08-20T00:00:00	2024-11-06T09:00:00	6	Velocidad del viento	9.7
44430	7	Sololá	701	Sololá	3	Barraneche	8	Agosto	2023-08-20T00:00:00	2024-11-06T09:00:00	7	Dirección del viento	9.66
44431	7	Sololá	701	Sololá	3	Barraneche	8	Agosto	2023-08-20T00:00:00	2024-11-06T09:00:00	1	Precipitación	0
44432	7	Sololá	701	Sololá	3	Barraneche	8	Agosto	2023-08-20T00:00:00	2024-11-06T09:00:00	8	Radiación solar	601
44433	7	Sololá	701	Sololá	3	Barraneche	8	Agosto	2023-08-20T00:00:00	2024-11-06T10:00:00	2	Temperatura media	19.3
44434	7	Sololá	701	Sololá	3	Barraneche	8	Agosto	2023-08-20T00:00:00	2024-11-06T10:00:00	4	Temperatura máxima	19.3
44435	7	Sololá	701	Sololá	3	Barraneche	8	Agosto	2023-08-20T00:00:00	2024-11-06T10:00:00	3	Temperatura mínima	18.2
44436	7	Sololá	701	Sololá	3	Barraneche	8	Agosto	2023-08-20T00:00:00	2024-11-06T10:00:00	5	Humedad	42
44437	7	Sololá	701	Sololá	3	Barraneche	8	Agosto	2023-08-20T00:00:00	2024-11-06T10:00:00	6	Velocidad del viento	12.9
44438	7	Sololá	701	Sololá	3	Barraneche	8	Agosto	2023-08-20T00:00:00	2024-11-06T10:00:00	7	Dirección del viento	12.87
44439	7	Sololá	701	Sololá	3	Barraneche	8	Agosto	2023-08-20T00:00:00	2024-11-06T10:00:00	1	Precipitación	0
44440	7	Sololá	701	Sololá	3	Barraneche	8	Agosto	2023-08-20T00:00:00	2024-11-06T10:00:00	8	Radiación solar	806
44441	7	Sololá	701	Sololá	3	Barraneche	8	Agosto	2023-08-20T00:00:00	2024-11-06T11:00:00	2	Temperatura media	19.4
44442	7	Sololá	701	Sololá	3	Barraneche	8	Agosto	2023-08-20T00:00:00	2024-11-06T11:00:00	4	Temperatura máxima	19.5
44443	7	Sololá	701	Sololá	3	Barraneche	8	Agosto	2023-08-20T00:00:00	2024-11-06T11:00:00	3	Temperatura mínima	19.1
44444	7	Sololá	701	Sololá	3	Barraneche	8	Agosto	2023-08-20T00:00:00	2024-11-06T11:00:00	5	Humedad	46
44445	7	Sololá	701	Sololá	3	Barraneche	8	Agosto	2023-08-20T00:00:00	2024-11-06T11:00:00	6	Velocidad del viento	16.1
44446	7	Sololá	701	Sololá	3	Barraneche	8	Agosto	2023-08-20T00:00:00	2024-11-06T11:00:00	7	Dirección del viento	16.09
44447	7	Sololá	701	Sololá	3	Barraneche	8	Agosto	2023-08-20T00:00:00	2024-11-06T11:00:00	1	Precipitación	0
44448	7	Sololá	701	Sololá	3	Barraneche	8	Agosto	2023-08-20T00:00:00	2024-11-06T11:00:00	8	Radiación solar	948
44449	7	Sololá	701	Sololá	3	Barraneche	8	Agosto	2023-08-20T00:00:00	2024-11-06T12:00:00	2	Temperatura media	19.7
44450	7	Sololá	701	Sololá	3	Barraneche	8	Agosto	2023-08-20T00:00:00	2024-11-06T12:00:00	4	Temperatura máxima	19.7
44451	7	Sololá	701	Sololá	3	Barraneche	8	Agosto	2023-08-20T00:00:00	2024-11-06T12:00:00	3	Temperatura mínima	19.3
44452	7	Sololá	701	Sololá	3	Barraneche	8	Agosto	2023-08-20T00:00:00	2024-11-06T12:00:00	5	Humedad	47
44453	7	Sololá	701	Sololá	3	Barraneche	8	Agosto	2023-08-20T00:00:00	2024-11-06T12:00:00	6	Velocidad del viento	17.7
44454	7	Sololá	701	Sololá	3	Barraneche	8	Agosto	2023-08-20T00:00:00	2024-11-06T12:00:00	7	Dirección del viento	17.7
44455	7	Sololá	701	Sololá	3	Barraneche	8	Agosto	2023-08-20T00:00:00	2024-11-06T12:00:00	1	Precipitación	0
44456	7	Sololá	701	Sololá	3	Barraneche	8	Agosto	2023-08-20T00:00:00	2024-11-06T12:00:00	8	Radiación solar	1026
44457	7	Sololá	701	Sololá	3	Barraneche	8	Agosto	2023-08-20T00:00:00	2024-11-06T13:00:00	2	Temperatura media	19.9
44458	7	Sololá	701	Sololá	3	Barraneche	8	Agosto	2023-08-20T00:00:00	2024-11-06T13:00:00	4	Temperatura máxima	20.1
44459	7	Sololá	701	Sololá	3	Barraneche	8	Agosto	2023-08-20T00:00:00	2024-11-06T13:00:00	3	Temperatura mínima	19.6
44460	7	Sololá	701	Sololá	3	Barraneche	8	Agosto	2023-08-20T00:00:00	2024-11-06T13:00:00	5	Humedad	47
44461	7	Sololá	701	Sololá	3	Barraneche	8	Agosto	2023-08-20T00:00:00	2024-11-06T13:00:00	6	Velocidad del viento	17.7
44462	7	Sololá	701	Sololá	3	Barraneche	8	Agosto	2023-08-20T00:00:00	2024-11-06T13:00:00	7	Dirección del viento	17.7
44463	7	Sololá	701	Sololá	3	Barraneche	8	Agosto	2023-08-20T00:00:00	2024-11-06T13:00:00	1	Precipitación	0
44464	7	Sololá	701	Sololá	3	Barraneche	8	Agosto	2023-08-20T00:00:00	2024-11-06T13:00:00	8	Radiación solar	1040
44465	7	Sololá	701	Sololá	3	Barraneche	8	Agosto	2023-08-20T00:00:00	2024-11-06T14:00:00	2	Temperatura media	19.8
44466	7	Sololá	701	Sololá	3	Barraneche	8	Agosto	2023-08-20T00:00:00	2024-11-06T14:00:00	4	Temperatura máxima	20.2
44467	7	Sololá	701	Sololá	3	Barraneche	8	Agosto	2023-08-20T00:00:00	2024-11-06T14:00:00	3	Temperatura mínima	19.4
44468	7	Sololá	701	Sololá	3	Barraneche	8	Agosto	2023-08-20T00:00:00	2024-11-06T14:00:00	5	Humedad	50
44469	7	Sololá	701	Sololá	3	Barraneche	8	Agosto	2023-08-20T00:00:00	2024-11-06T14:00:00	6	Velocidad del viento	16.1
44470	7	Sololá	701	Sololá	3	Barraneche	8	Agosto	2023-08-20T00:00:00	2024-11-06T14:00:00	7	Dirección del viento	16.09
44471	7	Sololá	701	Sololá	3	Barraneche	8	Agosto	2023-08-20T00:00:00	2024-11-06T14:00:00	1	Precipitación	0
44472	7	Sololá	701	Sololá	3	Barraneche	8	Agosto	2023-08-20T00:00:00	2024-11-06T14:00:00	8	Radiación solar	965
44473	7	Sololá	701	Sololá	3	Barraneche	8	Agosto	2023-08-20T00:00:00	2024-11-06T15:00:00	2	Temperatura media	19.2
44474	7	Sololá	701	Sololá	3	Barraneche	8	Agosto	2023-08-20T00:00:00	2024-11-06T15:00:00	4	Temperatura máxima	19.9
44475	7	Sololá	701	Sololá	3	Barraneche	8	Agosto	2023-08-20T00:00:00	2024-11-06T15:00:00	3	Temperatura mínima	18.9
44476	7	Sololá	701	Sololá	3	Barraneche	8	Agosto	2023-08-20T00:00:00	2024-11-06T15:00:00	5	Humedad	52
44477	7	Sololá	701	Sololá	3	Barraneche	8	Agosto	2023-08-20T00:00:00	2024-11-06T15:00:00	6	Velocidad del viento	17.7
44478	7	Sololá	701	Sololá	3	Barraneche	8	Agosto	2023-08-20T00:00:00	2024-11-06T15:00:00	7	Dirección del viento	17.7
44479	7	Sololá	701	Sololá	3	Barraneche	8	Agosto	2023-08-20T00:00:00	2024-11-06T15:00:00	1	Precipitación	0
44480	7	Sololá	701	Sololá	3	Barraneche	8	Agosto	2023-08-20T00:00:00	2024-11-06T15:00:00	8	Radiación solar	665
44481	7	Sololá	701	Sololá	3	Barraneche	8	Agosto	2023-08-20T00:00:00	2024-11-06T16:00:00	2	Temperatura media	18.2
44482	7	Sololá	701	Sololá	3	Barraneche	8	Agosto	2023-08-20T00:00:00	2024-11-06T16:00:00	4	Temperatura máxima	19.2
44483	7	Sololá	701	Sololá	3	Barraneche	8	Agosto	2023-08-20T00:00:00	2024-11-06T16:00:00	3	Temperatura mínima	18.2
44484	7	Sololá	701	Sololá	3	Barraneche	8	Agosto	2023-08-20T00:00:00	2024-11-06T16:00:00	5	Humedad	55
44485	7	Sololá	701	Sololá	3	Barraneche	8	Agosto	2023-08-20T00:00:00	2024-11-06T16:00:00	6	Velocidad del viento	17.7
44486	7	Sololá	701	Sololá	3	Barraneche	8	Agosto	2023-08-20T00:00:00	2024-11-06T16:00:00	7	Dirección del viento	17.7
44487	7	Sololá	701	Sololá	3	Barraneche	8	Agosto	2023-08-20T00:00:00	2024-11-06T16:00:00	1	Precipitación	0
44488	7	Sololá	701	Sololá	3	Barraneche	8	Agosto	2023-08-20T00:00:00	2024-11-06T16:00:00	8	Radiación solar	471
44489	7	Sololá	701	Sololá	3	Barraneche	8	Agosto	2023-08-20T00:00:00	2024-11-06T17:00:00	2	Temperatura media	17.4
44490	7	Sololá	701	Sololá	3	Barraneche	8	Agosto	2023-08-20T00:00:00	2024-11-06T17:00:00	4	Temperatura máxima	18.9
44491	7	Sololá	701	Sololá	3	Barraneche	8	Agosto	2023-08-20T00:00:00	2024-11-06T17:00:00	3	Temperatura mínima	17.3
44492	7	Sololá	701	Sololá	3	Barraneche	8	Agosto	2023-08-20T00:00:00	2024-11-06T17:00:00	5	Humedad	58
44493	7	Sololá	701	Sololá	3	Barraneche	8	Agosto	2023-08-20T00:00:00	2024-11-06T17:00:00	6	Velocidad del viento	16.1
44494	7	Sololá	701	Sololá	3	Barraneche	8	Agosto	2023-08-20T00:00:00	2024-11-06T17:00:00	7	Dirección del viento	16.09
44495	7	Sololá	701	Sololá	3	Barraneche	8	Agosto	2023-08-20T00:00:00	2024-11-06T17:00:00	1	Precipitación	0
44496	7	Sololá	701	Sololá	3	Barraneche	8	Agosto	2023-08-20T00:00:00	2024-11-06T17:00:00	8	Radiación solar	239
44497	7	Sololá	701	Sololá	3	Barraneche	8	Agosto	2023-08-20T00:00:00	2024-11-06T18:00:00	2	Temperatura media	16.5
44498	7	Sololá	701	Sololá	3	Barraneche	8	Agosto	2023-08-20T00:00:00	2024-11-06T18:00:00	4	Temperatura máxima	17.4
44499	7	Sololá	701	Sololá	3	Barraneche	8	Agosto	2023-08-20T00:00:00	2024-11-06T18:00:00	3	Temperatura mínima	16.5
44500	7	Sololá	701	Sololá	3	Barraneche	8	Agosto	2023-08-20T00:00:00	2024-11-06T18:00:00	5	Humedad	60
44501	7	Sololá	701	Sololá	3	Barraneche	8	Agosto	2023-08-20T00:00:00	2024-11-06T18:00:00	6	Velocidad del viento	11.3
44502	7	Sololá	701	Sololá	3	Barraneche	8	Agosto	2023-08-20T00:00:00	2024-11-06T18:00:00	7	Dirección del viento	11.27
44503	7	Sololá	701	Sololá	3	Barraneche	8	Agosto	2023-08-20T00:00:00	2024-11-06T18:00:00	1	Precipitación	0
44504	7	Sololá	701	Sololá	3	Barraneche	8	Agosto	2023-08-20T00:00:00	2024-11-06T18:00:00	8	Radiación solar	78
44505	7	Sololá	701	Sololá	3	Barraneche	8	Agosto	2023-08-20T00:00:00	2024-11-06T19:00:00	2	Temperatura media	15.9
44506	7	Sololá	701	Sololá	3	Barraneche	8	Agosto	2023-08-20T00:00:00	2024-11-06T19:00:00	4	Temperatura máxima	16.5
44507	7	Sololá	701	Sololá	3	Barraneche	8	Agosto	2023-08-20T00:00:00	2024-11-06T19:00:00	3	Temperatura mínima	15.9
44508	7	Sololá	701	Sololá	3	Barraneche	8	Agosto	2023-08-20T00:00:00	2024-11-06T19:00:00	5	Humedad	62
44509	7	Sololá	701	Sololá	3	Barraneche	8	Agosto	2023-08-20T00:00:00	2024-11-06T19:00:00	6	Velocidad del viento	11.3
44510	7	Sololá	701	Sololá	3	Barraneche	8	Agosto	2023-08-20T00:00:00	2024-11-06T19:00:00	7	Dirección del viento	11.27
44511	7	Sololá	701	Sololá	3	Barraneche	8	Agosto	2023-08-20T00:00:00	2024-11-06T19:00:00	1	Precipitación	0
44512	7	Sololá	701	Sololá	3	Barraneche	8	Agosto	2023-08-20T00:00:00	2024-11-06T19:00:00	8	Radiación solar	0
44513	7	Sololá	701	Sololá	3	Barraneche	8	Agosto	2023-08-20T00:00:00	2024-11-06T20:00:00	2	Temperatura media	15.8
44514	7	Sololá	701	Sololá	3	Barraneche	8	Agosto	2023-08-20T00:00:00	2024-11-06T20:00:00	4	Temperatura máxima	15.9
44515	7	Sololá	701	Sololá	3	Barraneche	8	Agosto	2023-08-20T00:00:00	2024-11-06T20:00:00	3	Temperatura mínima	15.6
44516	7	Sololá	701	Sololá	3	Barraneche	8	Agosto	2023-08-20T00:00:00	2024-11-06T20:00:00	5	Humedad	62
44517	7	Sololá	701	Sololá	3	Barraneche	8	Agosto	2023-08-20T00:00:00	2024-11-06T20:00:00	6	Velocidad del viento	9.7
44518	7	Sololá	701	Sololá	3	Barraneche	8	Agosto	2023-08-20T00:00:00	2024-11-06T20:00:00	7	Dirección del viento	9.66
44519	7	Sololá	701	Sololá	3	Barraneche	8	Agosto	2023-08-20T00:00:00	2024-11-06T20:00:00	1	Precipitación	0
44520	7	Sololá	701	Sololá	3	Barraneche	8	Agosto	2023-08-20T00:00:00	2024-11-06T20:00:00	8	Radiación solar	0
44521	7	Sololá	701	Sololá	3	Barraneche	8	Agosto	2023-08-20T00:00:00	2024-11-06T21:00:00	2	Temperatura media	15.3
44522	7	Sololá	701	Sololá	3	Barraneche	8	Agosto	2023-08-20T00:00:00	2024-11-06T21:00:00	4	Temperatura máxima	15.8
44523	7	Sololá	701	Sololá	3	Barraneche	8	Agosto	2023-08-20T00:00:00	2024-11-06T21:00:00	3	Temperatura mínima	15.3
44524	7	Sololá	701	Sololá	3	Barraneche	8	Agosto	2023-08-20T00:00:00	2024-11-06T21:00:00	5	Humedad	64
44525	7	Sololá	701	Sololá	3	Barraneche	8	Agosto	2023-08-20T00:00:00	2024-11-06T21:00:00	6	Velocidad del viento	8
44526	7	Sololá	701	Sololá	3	Barraneche	8	Agosto	2023-08-20T00:00:00	2024-11-06T21:00:00	7	Dirección del viento	8.05
44527	7	Sololá	701	Sololá	3	Barraneche	8	Agosto	2023-08-20T00:00:00	2024-11-06T21:00:00	1	Precipitación	0
44528	7	Sololá	701	Sololá	3	Barraneche	8	Agosto	2023-08-20T00:00:00	2024-11-06T21:00:00	8	Radiación solar	0
44529	7	Sololá	701	Sololá	3	Barraneche	8	Agosto	2023-08-20T00:00:00	2024-11-06T22:00:00	2	Temperatura media	15.1
44530	7	Sololá	701	Sololá	3	Barraneche	8	Agosto	2023-08-20T00:00:00	2024-11-06T22:00:00	4	Temperatura máxima	15.4
44531	7	Sololá	701	Sololá	3	Barraneche	8	Agosto	2023-08-20T00:00:00	2024-11-06T22:00:00	3	Temperatura mínima	15.1
44532	7	Sololá	701	Sololá	3	Barraneche	8	Agosto	2023-08-20T00:00:00	2024-11-06T22:00:00	5	Humedad	62
44533	7	Sololá	701	Sololá	3	Barraneche	8	Agosto	2023-08-20T00:00:00	2024-11-06T22:00:00	6	Velocidad del viento	11.3
44534	7	Sololá	701	Sololá	3	Barraneche	8	Agosto	2023-08-20T00:00:00	2024-11-06T22:00:00	7	Dirección del viento	11.27
44535	7	Sololá	701	Sololá	3	Barraneche	8	Agosto	2023-08-20T00:00:00	2024-11-06T22:00:00	1	Precipitación	0
44536	7	Sololá	701	Sololá	3	Barraneche	8	Agosto	2023-08-20T00:00:00	2024-11-06T22:00:00	8	Radiación solar	0
44537	7	Sololá	701	Sololá	3	Barraneche	8	Agosto	2023-08-20T00:00:00	2024-11-06T23:00:00	2	Temperatura media	15.2
44538	7	Sololá	701	Sololá	3	Barraneche	8	Agosto	2023-08-20T00:00:00	2024-11-06T23:00:00	4	Temperatura máxima	15.2
44539	7	Sololá	701	Sololá	3	Barraneche	8	Agosto	2023-08-20T00:00:00	2024-11-06T23:00:00	3	Temperatura mínima	15.1
44540	7	Sololá	701	Sololá	3	Barraneche	8	Agosto	2023-08-20T00:00:00	2024-11-06T23:00:00	5	Humedad	62
44541	7	Sololá	701	Sololá	3	Barraneche	8	Agosto	2023-08-20T00:00:00	2024-11-06T23:00:00	6	Velocidad del viento	9.7
44542	7	Sololá	701	Sololá	3	Barraneche	8	Agosto	2023-08-20T00:00:00	2024-11-06T23:00:00	7	Dirección del viento	9.66
44543	7	Sololá	701	Sololá	3	Barraneche	8	Agosto	2023-08-20T00:00:00	2024-11-06T23:00:00	1	Precipitación	0
44544	7	Sololá	701	Sololá	3	Barraneche	8	Agosto	2023-08-20T00:00:00	2024-11-06T23:00:00	8	Radiación solar	0
44545	7	Sololá	701	Sololá	3	Barraneche	8	Agosto	2023-08-21T00:00:00	2024-11-06T00:00:00	2	Temperatura media	14.6
44546	7	Sololá	701	Sololá	3	Barraneche	8	Agosto	2023-08-21T00:00:00	2024-11-06T00:00:00	4	Temperatura máxima	15.2
44547	7	Sololá	701	Sololá	3	Barraneche	8	Agosto	2023-08-21T00:00:00	2024-11-06T00:00:00	3	Temperatura mínima	14.6
44548	7	Sololá	701	Sololá	3	Barraneche	8	Agosto	2023-08-21T00:00:00	2024-11-06T00:00:00	5	Humedad	64
44549	7	Sololá	701	Sololá	3	Barraneche	8	Agosto	2023-08-21T00:00:00	2024-11-06T00:00:00	6	Velocidad del viento	8
44550	7	Sololá	701	Sololá	3	Barraneche	8	Agosto	2023-08-21T00:00:00	2024-11-06T00:00:00	7	Dirección del viento	8.05
44551	7	Sololá	701	Sololá	3	Barraneche	8	Agosto	2023-08-21T00:00:00	2024-11-06T00:00:00	1	Precipitación	0
44552	7	Sololá	701	Sololá	3	Barraneche	8	Agosto	2023-08-21T00:00:00	2024-11-06T00:00:00	8	Radiación solar	0
44553	7	Sololá	701	Sololá	3	Barraneche	8	Agosto	2023-08-21T00:00:00	2024-11-06T01:00:00	2	Temperatura media	14.3
44554	7	Sololá	701	Sololá	3	Barraneche	8	Agosto	2023-08-21T00:00:00	2024-11-06T01:00:00	4	Temperatura máxima	14.6
44555	7	Sololá	701	Sololá	3	Barraneche	8	Agosto	2023-08-21T00:00:00	2024-11-06T01:00:00	3	Temperatura mínima	14.2
44556	7	Sololá	701	Sololá	3	Barraneche	8	Agosto	2023-08-21T00:00:00	2024-11-06T01:00:00	5	Humedad	64
44557	7	Sololá	701	Sololá	3	Barraneche	8	Agosto	2023-08-21T00:00:00	2024-11-06T01:00:00	6	Velocidad del viento	6.4
44558	7	Sololá	701	Sololá	3	Barraneche	8	Agosto	2023-08-21T00:00:00	2024-11-06T01:00:00	7	Dirección del viento	6.44
44559	7	Sololá	701	Sololá	3	Barraneche	8	Agosto	2023-08-21T00:00:00	2024-11-06T01:00:00	1	Precipitación	0
44560	7	Sololá	701	Sololá	3	Barraneche	8	Agosto	2023-08-21T00:00:00	2024-11-06T01:00:00	8	Radiación solar	0
44561	7	Sololá	701	Sololá	3	Barraneche	8	Agosto	2023-08-21T00:00:00	2024-11-06T02:00:00	2	Temperatura media	14.4
44562	7	Sololá	701	Sololá	3	Barraneche	8	Agosto	2023-08-21T00:00:00	2024-11-06T02:00:00	4	Temperatura máxima	14.7
44563	7	Sololá	701	Sololá	3	Barraneche	8	Agosto	2023-08-21T00:00:00	2024-11-06T02:00:00	3	Temperatura mínima	14.3
44564	7	Sololá	701	Sololá	3	Barraneche	8	Agosto	2023-08-21T00:00:00	2024-11-06T02:00:00	5	Humedad	62
44565	7	Sololá	701	Sololá	3	Barraneche	8	Agosto	2023-08-21T00:00:00	2024-11-06T02:00:00	6	Velocidad del viento	9.7
44566	7	Sololá	701	Sololá	3	Barraneche	8	Agosto	2023-08-21T00:00:00	2024-11-06T02:00:00	7	Dirección del viento	9.66
44567	7	Sololá	701	Sololá	3	Barraneche	8	Agosto	2023-08-21T00:00:00	2024-11-06T02:00:00	1	Precipitación	0
44568	7	Sololá	701	Sololá	3	Barraneche	8	Agosto	2023-08-21T00:00:00	2024-11-06T02:00:00	8	Radiación solar	0
44569	7	Sololá	701	Sololá	3	Barraneche	8	Agosto	2023-08-21T00:00:00	2024-11-06T03:00:00	2	Temperatura media	13.8
44570	7	Sololá	701	Sololá	3	Barraneche	8	Agosto	2023-08-21T00:00:00	2024-11-06T03:00:00	4	Temperatura máxima	14.4
44571	7	Sololá	701	Sololá	3	Barraneche	8	Agosto	2023-08-21T00:00:00	2024-11-06T03:00:00	3	Temperatura mínima	13.8
44572	7	Sololá	701	Sololá	3	Barraneche	8	Agosto	2023-08-21T00:00:00	2024-11-06T03:00:00	5	Humedad	64
44573	7	Sololá	701	Sololá	3	Barraneche	8	Agosto	2023-08-21T00:00:00	2024-11-06T03:00:00	6	Velocidad del viento	8
44574	7	Sololá	701	Sololá	3	Barraneche	8	Agosto	2023-08-21T00:00:00	2024-11-06T03:00:00	7	Dirección del viento	8.05
44575	7	Sololá	701	Sololá	3	Barraneche	8	Agosto	2023-08-21T00:00:00	2024-11-06T03:00:00	1	Precipitación	0
44576	7	Sololá	701	Sololá	3	Barraneche	8	Agosto	2023-08-21T00:00:00	2024-11-06T03:00:00	8	Radiación solar	0
44577	7	Sololá	701	Sololá	3	Barraneche	8	Agosto	2023-08-21T00:00:00	2024-11-06T04:00:00	2	Temperatura media	13.4
44578	7	Sololá	701	Sololá	3	Barraneche	8	Agosto	2023-08-21T00:00:00	2024-11-06T04:00:00	4	Temperatura máxima	13.9
44579	7	Sololá	701	Sololá	3	Barraneche	8	Agosto	2023-08-21T00:00:00	2024-11-06T04:00:00	3	Temperatura mínima	13.4
44580	7	Sololá	701	Sololá	3	Barraneche	8	Agosto	2023-08-21T00:00:00	2024-11-06T04:00:00	5	Humedad	65
44581	7	Sololá	701	Sololá	3	Barraneche	8	Agosto	2023-08-21T00:00:00	2024-11-06T04:00:00	6	Velocidad del viento	9.7
44582	7	Sololá	701	Sololá	3	Barraneche	8	Agosto	2023-08-21T00:00:00	2024-11-06T04:00:00	7	Dirección del viento	9.66
44583	7	Sololá	701	Sololá	3	Barraneche	8	Agosto	2023-08-21T00:00:00	2024-11-06T04:00:00	1	Precipitación	0
44584	7	Sololá	701	Sololá	3	Barraneche	8	Agosto	2023-08-21T00:00:00	2024-11-06T04:00:00	8	Radiación solar	0
44585	7	Sololá	701	Sololá	3	Barraneche	8	Agosto	2023-08-21T00:00:00	2024-11-06T05:00:00	2	Temperatura media	12.6
44586	7	Sololá	701	Sololá	3	Barraneche	8	Agosto	2023-08-21T00:00:00	2024-11-06T05:00:00	4	Temperatura máxima	13.6
44587	7	Sololá	701	Sololá	3	Barraneche	8	Agosto	2023-08-21T00:00:00	2024-11-06T05:00:00	3	Temperatura mínima	12.4
44588	7	Sololá	701	Sololá	3	Barraneche	8	Agosto	2023-08-21T00:00:00	2024-11-06T05:00:00	5	Humedad	68
44589	7	Sololá	701	Sololá	3	Barraneche	8	Agosto	2023-08-21T00:00:00	2024-11-06T05:00:00	6	Velocidad del viento	4.8
44590	7	Sololá	701	Sololá	3	Barraneche	8	Agosto	2023-08-21T00:00:00	2024-11-06T05:00:00	7	Dirección del viento	4.83
44591	7	Sololá	701	Sololá	3	Barraneche	8	Agosto	2023-08-21T00:00:00	2024-11-06T05:00:00	1	Precipitación	0
44592	7	Sololá	701	Sololá	3	Barraneche	8	Agosto	2023-08-21T00:00:00	2024-11-06T05:00:00	8	Radiación solar	0
44593	7	Sololá	701	Sololá	3	Barraneche	8	Agosto	2023-08-21T00:00:00	2024-11-06T06:00:00	2	Temperatura media	11.9
44594	7	Sololá	701	Sololá	3	Barraneche	8	Agosto	2023-08-21T00:00:00	2024-11-06T06:00:00	4	Temperatura máxima	12.6
44595	7	Sololá	701	Sololá	3	Barraneche	8	Agosto	2023-08-21T00:00:00	2024-11-06T06:00:00	3	Temperatura mínima	11.8
44596	7	Sololá	701	Sololá	3	Barraneche	8	Agosto	2023-08-21T00:00:00	2024-11-06T06:00:00	5	Humedad	70
44597	7	Sololá	701	Sololá	3	Barraneche	8	Agosto	2023-08-21T00:00:00	2024-11-06T06:00:00	6	Velocidad del viento	3.2
44598	7	Sololá	701	Sololá	3	Barraneche	8	Agosto	2023-08-21T00:00:00	2024-11-06T06:00:00	7	Dirección del viento	3.22
44599	7	Sololá	701	Sololá	3	Barraneche	8	Agosto	2023-08-21T00:00:00	2024-11-06T06:00:00	1	Precipitación	0
44600	7	Sololá	701	Sololá	3	Barraneche	8	Agosto	2023-08-21T00:00:00	2024-11-06T06:00:00	8	Radiación solar	0
44601	7	Sololá	701	Sololá	3	Barraneche	8	Agosto	2023-08-21T00:00:00	2024-11-06T07:00:00	2	Temperatura media	13.8
44602	7	Sololá	701	Sololá	3	Barraneche	8	Agosto	2023-08-21T00:00:00	2024-11-06T07:00:00	4	Temperatura máxima	14.1
44603	7	Sololá	701	Sololá	3	Barraneche	8	Agosto	2023-08-21T00:00:00	2024-11-06T07:00:00	3	Temperatura mínima	11.8
44604	7	Sololá	701	Sololá	3	Barraneche	8	Agosto	2023-08-21T00:00:00	2024-11-06T07:00:00	5	Humedad	63
44605	7	Sololá	701	Sololá	3	Barraneche	8	Agosto	2023-08-21T00:00:00	2024-11-06T07:00:00	6	Velocidad del viento	6.4
44606	7	Sololá	701	Sololá	3	Barraneche	8	Agosto	2023-08-21T00:00:00	2024-11-06T07:00:00	7	Dirección del viento	6.44
44607	7	Sololá	701	Sololá	3	Barraneche	8	Agosto	2023-08-21T00:00:00	2024-11-06T07:00:00	1	Precipitación	0
44608	7	Sololá	701	Sololá	3	Barraneche	8	Agosto	2023-08-21T00:00:00	2024-11-06T07:00:00	8	Radiación solar	43
44609	7	Sololá	701	Sololá	3	Barraneche	8	Agosto	2023-08-21T00:00:00	2024-11-06T08:00:00	2	Temperatura media	15.8
44610	7	Sololá	701	Sololá	3	Barraneche	8	Agosto	2023-08-21T00:00:00	2024-11-06T08:00:00	4	Temperatura máxima	15.8
44611	7	Sololá	701	Sololá	3	Barraneche	8	Agosto	2023-08-21T00:00:00	2024-11-06T08:00:00	3	Temperatura mínima	13.8
44612	7	Sololá	701	Sololá	3	Barraneche	8	Agosto	2023-08-21T00:00:00	2024-11-06T08:00:00	5	Humedad	59
44613	7	Sololá	701	Sololá	3	Barraneche	8	Agosto	2023-08-21T00:00:00	2024-11-06T08:00:00	6	Velocidad del viento	1.6
44614	7	Sololá	701	Sololá	3	Barraneche	8	Agosto	2023-08-21T00:00:00	2024-11-06T08:00:00	7	Dirección del viento	1.61
44615	7	Sololá	701	Sololá	3	Barraneche	8	Agosto	2023-08-21T00:00:00	2024-11-06T08:00:00	1	Precipitación	0
44616	7	Sololá	701	Sololá	3	Barraneche	8	Agosto	2023-08-21T00:00:00	2024-11-06T08:00:00	8	Radiación solar	202
44617	7	Sololá	701	Sololá	3	Barraneche	8	Agosto	2023-08-21T00:00:00	2024-11-06T09:00:00	2	Temperatura media	18.9
44618	7	Sololá	701	Sololá	3	Barraneche	8	Agosto	2023-08-21T00:00:00	2024-11-06T09:00:00	4	Temperatura máxima	18.9
44619	7	Sololá	701	Sololá	3	Barraneche	8	Agosto	2023-08-21T00:00:00	2024-11-06T09:00:00	3	Temperatura mínima	15.8
44620	7	Sololá	701	Sololá	3	Barraneche	8	Agosto	2023-08-21T00:00:00	2024-11-06T09:00:00	5	Humedad	48
44621	7	Sololá	701	Sololá	3	Barraneche	8	Agosto	2023-08-21T00:00:00	2024-11-06T09:00:00	6	Velocidad del viento	1.6
44622	7	Sololá	701	Sololá	3	Barraneche	8	Agosto	2023-08-21T00:00:00	2024-11-06T09:00:00	7	Dirección del viento	1.61
44623	7	Sololá	701	Sololá	3	Barraneche	8	Agosto	2023-08-21T00:00:00	2024-11-06T09:00:00	1	Precipitación	0
44624	7	Sololá	701	Sololá	3	Barraneche	8	Agosto	2023-08-21T00:00:00	2024-11-06T09:00:00	8	Radiación solar	434
44625	7	Sololá	701	Sololá	3	Barraneche	8	Agosto	2023-08-21T00:00:00	2024-11-06T10:00:00	2	Temperatura media	19.1
44626	7	Sololá	701	Sololá	3	Barraneche	8	Agosto	2023-08-21T00:00:00	2024-11-06T10:00:00	4	Temperatura máxima	19.5
44627	7	Sololá	701	Sololá	3	Barraneche	8	Agosto	2023-08-21T00:00:00	2024-11-06T10:00:00	3	Temperatura mínima	18.9
44628	7	Sololá	701	Sololá	3	Barraneche	8	Agosto	2023-08-21T00:00:00	2024-11-06T10:00:00	5	Humedad	47
44629	7	Sololá	701	Sololá	3	Barraneche	8	Agosto	2023-08-21T00:00:00	2024-11-06T10:00:00	6	Velocidad del viento	8
44630	7	Sololá	701	Sololá	3	Barraneche	8	Agosto	2023-08-21T00:00:00	2024-11-06T10:00:00	7	Dirección del viento	8.05
44631	7	Sololá	701	Sololá	3	Barraneche	8	Agosto	2023-08-21T00:00:00	2024-11-06T10:00:00	1	Precipitación	0
44632	7	Sololá	701	Sololá	3	Barraneche	8	Agosto	2023-08-21T00:00:00	2024-11-06T10:00:00	8	Radiación solar	570
44633	7	Sololá	701	Sololá	3	Barraneche	8	Agosto	2023-08-21T00:00:00	2024-11-06T11:00:00	2	Temperatura media	19.4
44634	7	Sololá	701	Sololá	3	Barraneche	8	Agosto	2023-08-21T00:00:00	2024-11-06T11:00:00	4	Temperatura máxima	19.8
44635	7	Sololá	701	Sololá	3	Barraneche	8	Agosto	2023-08-21T00:00:00	2024-11-06T11:00:00	3	Temperatura mínima	19
44636	7	Sololá	701	Sololá	3	Barraneche	8	Agosto	2023-08-21T00:00:00	2024-11-06T11:00:00	5	Humedad	48
44637	7	Sololá	701	Sololá	3	Barraneche	8	Agosto	2023-08-21T00:00:00	2024-11-06T11:00:00	6	Velocidad del viento	14.5
44638	7	Sololá	701	Sololá	3	Barraneche	8	Agosto	2023-08-21T00:00:00	2024-11-06T11:00:00	7	Dirección del viento	14.48
44639	7	Sololá	701	Sololá	3	Barraneche	8	Agosto	2023-08-21T00:00:00	2024-11-06T11:00:00	1	Precipitación	0
44640	7	Sololá	701	Sololá	3	Barraneche	8	Agosto	2023-08-21T00:00:00	2024-11-06T11:00:00	8	Radiación solar	840
44641	7	Sololá	701	Sololá	3	Barraneche	8	Agosto	2023-08-21T00:00:00	2024-11-06T12:00:00	2	Temperatura media	19.8
44642	7	Sololá	701	Sololá	3	Barraneche	8	Agosto	2023-08-21T00:00:00	2024-11-06T12:00:00	4	Temperatura máxima	19.9
44643	7	Sololá	701	Sololá	3	Barraneche	8	Agosto	2023-08-21T00:00:00	2024-11-06T12:00:00	3	Temperatura mínima	19.3
44644	7	Sololá	701	Sololá	3	Barraneche	8	Agosto	2023-08-21T00:00:00	2024-11-06T12:00:00	5	Humedad	48
44645	7	Sololá	701	Sololá	3	Barraneche	8	Agosto	2023-08-21T00:00:00	2024-11-06T12:00:00	6	Velocidad del viento	11.3
44646	7	Sololá	701	Sololá	3	Barraneche	8	Agosto	2023-08-21T00:00:00	2024-11-06T12:00:00	7	Dirección del viento	11.27
44647	7	Sololá	701	Sololá	3	Barraneche	8	Agosto	2023-08-21T00:00:00	2024-11-06T12:00:00	1	Precipitación	0
44648	7	Sololá	701	Sololá	3	Barraneche	8	Agosto	2023-08-21T00:00:00	2024-11-06T12:00:00	8	Radiación solar	707
44649	7	Sololá	701	Sololá	3	Barraneche	8	Agosto	2023-08-21T00:00:00	2024-11-06T13:00:00	2	Temperatura media	20.2
44650	7	Sololá	701	Sololá	3	Barraneche	8	Agosto	2023-08-21T00:00:00	2024-11-06T13:00:00	4	Temperatura máxima	21
44651	7	Sololá	701	Sololá	3	Barraneche	8	Agosto	2023-08-21T00:00:00	2024-11-06T13:00:00	3	Temperatura mínima	19.8
44652	7	Sololá	701	Sololá	3	Barraneche	8	Agosto	2023-08-21T00:00:00	2024-11-06T13:00:00	5	Humedad	56
44653	7	Sololá	701	Sololá	3	Barraneche	8	Agosto	2023-08-21T00:00:00	2024-11-06T13:00:00	6	Velocidad del viento	11.3
44654	7	Sololá	701	Sololá	3	Barraneche	8	Agosto	2023-08-21T00:00:00	2024-11-06T13:00:00	7	Dirección del viento	11.27
44655	7	Sololá	701	Sololá	3	Barraneche	8	Agosto	2023-08-21T00:00:00	2024-11-06T13:00:00	1	Precipitación	0
44656	7	Sololá	701	Sololá	3	Barraneche	8	Agosto	2023-08-21T00:00:00	2024-11-06T13:00:00	8	Radiación solar	954
44657	7	Sololá	701	Sololá	3	Barraneche	8	Agosto	2023-08-21T00:00:00	2024-11-06T14:00:00	2	Temperatura media	19.1
44658	7	Sololá	701	Sololá	3	Barraneche	8	Agosto	2023-08-21T00:00:00	2024-11-06T14:00:00	4	Temperatura máxima	20.2
44659	7	Sololá	701	Sololá	3	Barraneche	8	Agosto	2023-08-21T00:00:00	2024-11-06T14:00:00	3	Temperatura mínima	18.9
44660	7	Sololá	701	Sololá	3	Barraneche	8	Agosto	2023-08-21T00:00:00	2024-11-06T14:00:00	5	Humedad	61
44661	7	Sololá	701	Sololá	3	Barraneche	8	Agosto	2023-08-21T00:00:00	2024-11-06T14:00:00	6	Velocidad del viento	11.3
44662	7	Sololá	701	Sololá	3	Barraneche	8	Agosto	2023-08-21T00:00:00	2024-11-06T14:00:00	7	Dirección del viento	11.27
44663	7	Sololá	701	Sololá	3	Barraneche	8	Agosto	2023-08-21T00:00:00	2024-11-06T14:00:00	1	Precipitación	0
44664	7	Sololá	701	Sololá	3	Barraneche	8	Agosto	2023-08-21T00:00:00	2024-11-06T14:00:00	8	Radiación solar	330
44665	7	Sololá	701	Sololá	3	Barraneche	8	Agosto	2023-08-21T00:00:00	2024-11-06T15:00:00	2	Temperatura media	19.7
44666	7	Sololá	701	Sololá	3	Barraneche	8	Agosto	2023-08-21T00:00:00	2024-11-06T15:00:00	4	Temperatura máxima	20.1
44667	7	Sololá	701	Sololá	3	Barraneche	8	Agosto	2023-08-21T00:00:00	2024-11-06T15:00:00	3	Temperatura mínima	18.4
44668	7	Sololá	701	Sololá	3	Barraneche	8	Agosto	2023-08-21T00:00:00	2024-11-06T15:00:00	5	Humedad	62
44669	7	Sololá	701	Sololá	3	Barraneche	8	Agosto	2023-08-21T00:00:00	2024-11-06T15:00:00	6	Velocidad del viento	9.7
44670	7	Sololá	701	Sololá	3	Barraneche	8	Agosto	2023-08-21T00:00:00	2024-11-06T15:00:00	7	Dirección del viento	9.66
44671	7	Sololá	701	Sololá	3	Barraneche	8	Agosto	2023-08-21T00:00:00	2024-11-06T15:00:00	1	Precipitación	0
44672	7	Sololá	701	Sololá	3	Barraneche	8	Agosto	2023-08-21T00:00:00	2024-11-06T15:00:00	8	Radiación solar	364
44673	7	Sololá	701	Sololá	3	Barraneche	8	Agosto	2023-08-21T00:00:00	2024-11-06T16:00:00	2	Temperatura media	16.2
44674	7	Sololá	701	Sololá	3	Barraneche	8	Agosto	2023-08-21T00:00:00	2024-11-06T16:00:00	4	Temperatura máxima	19.6
44675	7	Sololá	701	Sololá	3	Barraneche	8	Agosto	2023-08-21T00:00:00	2024-11-06T16:00:00	3	Temperatura mínima	16.2
44676	7	Sololá	701	Sololá	3	Barraneche	8	Agosto	2023-08-21T00:00:00	2024-11-06T16:00:00	5	Humedad	73
44677	7	Sololá	701	Sololá	3	Barraneche	8	Agosto	2023-08-21T00:00:00	2024-11-06T16:00:00	6	Velocidad del viento	12.9
44678	7	Sololá	701	Sololá	3	Barraneche	8	Agosto	2023-08-21T00:00:00	2024-11-06T16:00:00	7	Dirección del viento	12.87
44679	7	Sololá	701	Sololá	3	Barraneche	8	Agosto	2023-08-21T00:00:00	2024-11-06T16:00:00	1	Precipitación	1.6
44680	7	Sololá	701	Sololá	3	Barraneche	8	Agosto	2023-08-21T00:00:00	2024-11-06T16:00:00	8	Radiación solar	261
44681	7	Sololá	701	Sololá	3	Barraneche	8	Agosto	2023-08-21T00:00:00	2024-11-06T17:00:00	2	Temperatura media	15.2
44682	7	Sololá	701	Sololá	3	Barraneche	8	Agosto	2023-08-21T00:00:00	2024-11-06T17:00:00	4	Temperatura máxima	16.1
44683	7	Sololá	701	Sololá	3	Barraneche	8	Agosto	2023-08-21T00:00:00	2024-11-06T17:00:00	3	Temperatura mínima	15.2
44684	7	Sololá	701	Sololá	3	Barraneche	8	Agosto	2023-08-21T00:00:00	2024-11-06T17:00:00	5	Humedad	73
44685	7	Sololá	701	Sololá	3	Barraneche	8	Agosto	2023-08-21T00:00:00	2024-11-06T17:00:00	6	Velocidad del viento	6.4
44686	7	Sololá	701	Sololá	3	Barraneche	8	Agosto	2023-08-21T00:00:00	2024-11-06T17:00:00	7	Dirección del viento	6.44
44687	7	Sololá	701	Sololá	3	Barraneche	8	Agosto	2023-08-21T00:00:00	2024-11-06T17:00:00	1	Precipitación	0.6
44688	7	Sololá	701	Sololá	3	Barraneche	8	Agosto	2023-08-21T00:00:00	2024-11-06T17:00:00	8	Radiación solar	22
44689	7	Sololá	701	Sololá	3	Barraneche	8	Agosto	2023-08-21T00:00:00	2024-11-06T18:00:00	2	Temperatura media	15.3
44690	7	Sololá	701	Sololá	3	Barraneche	8	Agosto	2023-08-21T00:00:00	2024-11-06T18:00:00	4	Temperatura máxima	15.6
44691	7	Sololá	701	Sololá	3	Barraneche	8	Agosto	2023-08-21T00:00:00	2024-11-06T18:00:00	3	Temperatura mínima	15.2
44692	7	Sololá	701	Sololá	3	Barraneche	8	Agosto	2023-08-21T00:00:00	2024-11-06T18:00:00	5	Humedad	68
44693	7	Sololá	701	Sololá	3	Barraneche	8	Agosto	2023-08-21T00:00:00	2024-11-06T18:00:00	6	Velocidad del viento	4.8
44694	7	Sololá	701	Sololá	3	Barraneche	8	Agosto	2023-08-21T00:00:00	2024-11-06T18:00:00	7	Dirección del viento	4.83
44695	7	Sololá	701	Sololá	3	Barraneche	8	Agosto	2023-08-21T00:00:00	2024-11-06T18:00:00	1	Precipitación	0
44696	7	Sololá	701	Sololá	3	Barraneche	8	Agosto	2023-08-21T00:00:00	2024-11-06T18:00:00	8	Radiación solar	20
44697	7	Sololá	701	Sololá	3	Barraneche	8	Agosto	2023-08-21T00:00:00	2024-11-06T19:00:00	2	Temperatura media	14.9
44698	7	Sololá	701	Sololá	3	Barraneche	8	Agosto	2023-08-21T00:00:00	2024-11-06T19:00:00	4	Temperatura máxima	15.4
44699	7	Sololá	701	Sololá	3	Barraneche	8	Agosto	2023-08-21T00:00:00	2024-11-06T19:00:00	3	Temperatura mínima	14.9
44700	7	Sololá	701	Sololá	3	Barraneche	8	Agosto	2023-08-21T00:00:00	2024-11-06T19:00:00	5	Humedad	70
44701	7	Sololá	701	Sololá	3	Barraneche	8	Agosto	2023-08-21T00:00:00	2024-11-06T19:00:00	6	Velocidad del viento	6.4
44702	7	Sololá	701	Sololá	3	Barraneche	8	Agosto	2023-08-21T00:00:00	2024-11-06T19:00:00	7	Dirección del viento	6.44
44703	7	Sololá	701	Sololá	3	Barraneche	8	Agosto	2023-08-21T00:00:00	2024-11-06T19:00:00	1	Precipitación	0
44704	7	Sololá	701	Sololá	3	Barraneche	8	Agosto	2023-08-21T00:00:00	2024-11-06T19:00:00	8	Radiación solar	0
44705	7	Sololá	701	Sololá	3	Barraneche	8	Agosto	2023-08-21T00:00:00	2024-11-06T20:00:00	2	Temperatura media	14.8
44706	7	Sololá	701	Sololá	3	Barraneche	8	Agosto	2023-08-21T00:00:00	2024-11-06T20:00:00	4	Temperatura máxima	15.2
44707	7	Sololá	701	Sololá	3	Barraneche	8	Agosto	2023-08-21T00:00:00	2024-11-06T20:00:00	3	Temperatura mínima	14.8
44708	7	Sololá	701	Sololá	3	Barraneche	8	Agosto	2023-08-21T00:00:00	2024-11-06T20:00:00	5	Humedad	70
44709	7	Sololá	701	Sololá	3	Barraneche	8	Agosto	2023-08-21T00:00:00	2024-11-06T20:00:00	6	Velocidad del viento	6.4
44710	7	Sololá	701	Sololá	3	Barraneche	8	Agosto	2023-08-21T00:00:00	2024-11-06T20:00:00	7	Dirección del viento	6.44
44711	7	Sololá	701	Sololá	3	Barraneche	8	Agosto	2023-08-21T00:00:00	2024-11-06T20:00:00	1	Precipitación	0
44712	7	Sololá	701	Sololá	3	Barraneche	8	Agosto	2023-08-21T00:00:00	2024-11-06T20:00:00	8	Radiación solar	0
44713	7	Sololá	701	Sololá	3	Barraneche	8	Agosto	2023-08-21T00:00:00	2024-11-06T21:00:00	2	Temperatura media	14.9
44714	7	Sololá	701	Sololá	3	Barraneche	8	Agosto	2023-08-21T00:00:00	2024-11-06T21:00:00	4	Temperatura máxima	15.3
44715	7	Sololá	701	Sololá	3	Barraneche	8	Agosto	2023-08-21T00:00:00	2024-11-06T21:00:00	3	Temperatura mínima	14.7
44716	7	Sololá	701	Sololá	3	Barraneche	8	Agosto	2023-08-21T00:00:00	2024-11-06T21:00:00	5	Humedad	68
44717	7	Sololá	701	Sololá	3	Barraneche	8	Agosto	2023-08-21T00:00:00	2024-11-06T21:00:00	6	Velocidad del viento	8
44718	7	Sololá	701	Sololá	3	Barraneche	8	Agosto	2023-08-21T00:00:00	2024-11-06T21:00:00	7	Dirección del viento	8.05
44719	7	Sololá	701	Sololá	3	Barraneche	8	Agosto	2023-08-21T00:00:00	2024-11-06T21:00:00	1	Precipitación	0
44720	7	Sololá	701	Sololá	3	Barraneche	8	Agosto	2023-08-21T00:00:00	2024-11-06T21:00:00	8	Radiación solar	0
44721	7	Sololá	701	Sololá	3	Barraneche	8	Agosto	2023-08-21T00:00:00	2024-11-06T22:00:00	2	Temperatura media	14.6
44722	7	Sololá	701	Sololá	3	Barraneche	8	Agosto	2023-08-21T00:00:00	2024-11-06T22:00:00	4	Temperatura máxima	14.9
44723	7	Sololá	701	Sololá	3	Barraneche	8	Agosto	2023-08-21T00:00:00	2024-11-06T22:00:00	3	Temperatura mínima	14.6
44724	7	Sololá	701	Sololá	3	Barraneche	8	Agosto	2023-08-21T00:00:00	2024-11-06T22:00:00	5	Humedad	67
44725	7	Sololá	701	Sololá	3	Barraneche	8	Agosto	2023-08-21T00:00:00	2024-11-06T22:00:00	6	Velocidad del viento	6.4
44726	7	Sololá	701	Sololá	3	Barraneche	8	Agosto	2023-08-21T00:00:00	2024-11-06T22:00:00	7	Dirección del viento	6.44
44727	7	Sololá	701	Sololá	3	Barraneche	8	Agosto	2023-08-21T00:00:00	2024-11-06T22:00:00	1	Precipitación	0
44728	7	Sololá	701	Sololá	3	Barraneche	8	Agosto	2023-08-21T00:00:00	2024-11-06T22:00:00	8	Radiación solar	0
44729	7	Sololá	701	Sololá	3	Barraneche	8	Agosto	2023-08-21T00:00:00	2024-11-06T23:00:00	2	Temperatura media	14.7
44730	7	Sololá	701	Sololá	3	Barraneche	8	Agosto	2023-08-21T00:00:00	2024-11-06T23:00:00	4	Temperatura máxima	14.8
44731	7	Sololá	701	Sololá	3	Barraneche	8	Agosto	2023-08-21T00:00:00	2024-11-06T23:00:00	3	Temperatura mínima	14.4
44732	7	Sololá	701	Sololá	3	Barraneche	8	Agosto	2023-08-21T00:00:00	2024-11-06T23:00:00	5	Humedad	66
44733	7	Sololá	701	Sololá	3	Barraneche	8	Agosto	2023-08-21T00:00:00	2024-11-06T23:00:00	6	Velocidad del viento	4.8
44734	7	Sololá	701	Sololá	3	Barraneche	8	Agosto	2023-08-21T00:00:00	2024-11-06T23:00:00	7	Dirección del viento	4.83
44735	7	Sololá	701	Sololá	3	Barraneche	8	Agosto	2023-08-21T00:00:00	2024-11-06T23:00:00	1	Precipitación	0
44736	7	Sololá	701	Sololá	3	Barraneche	8	Agosto	2023-08-21T00:00:00	2024-11-06T23:00:00	8	Radiación solar	0
44737	7	Sololá	701	Sololá	3	Barraneche	8	Agosto	2023-08-22T00:00:00	2024-11-06T00:00:00	2	Temperatura media	14.7
44738	7	Sololá	701	Sololá	3	Barraneche	8	Agosto	2023-08-22T00:00:00	2024-11-06T00:00:00	4	Temperatura máxima	14.7
44739	7	Sololá	701	Sololá	3	Barraneche	8	Agosto	2023-08-22T00:00:00	2024-11-06T00:00:00	3	Temperatura mínima	14.4
44740	7	Sololá	701	Sololá	3	Barraneche	8	Agosto	2023-08-22T00:00:00	2024-11-06T00:00:00	5	Humedad	64
44741	7	Sololá	701	Sololá	3	Barraneche	8	Agosto	2023-08-22T00:00:00	2024-11-06T00:00:00	6	Velocidad del viento	8
44742	7	Sololá	701	Sololá	3	Barraneche	8	Agosto	2023-08-22T00:00:00	2024-11-06T00:00:00	7	Dirección del viento	8.05
44743	7	Sololá	701	Sololá	3	Barraneche	8	Agosto	2023-08-22T00:00:00	2024-11-06T00:00:00	1	Precipitación	0
44744	7	Sololá	701	Sololá	3	Barraneche	8	Agosto	2023-08-22T00:00:00	2024-11-06T00:00:00	8	Radiación solar	0
44745	7	Sololá	701	Sololá	3	Barraneche	8	Agosto	2023-08-22T00:00:00	2024-11-06T01:00:00	2	Temperatura media	14.3
44746	7	Sololá	701	Sololá	3	Barraneche	8	Agosto	2023-08-22T00:00:00	2024-11-06T01:00:00	4	Temperatura máxima	14.7
44747	7	Sololá	701	Sololá	3	Barraneche	8	Agosto	2023-08-22T00:00:00	2024-11-06T01:00:00	3	Temperatura mínima	14.3
44748	7	Sololá	701	Sololá	3	Barraneche	8	Agosto	2023-08-22T00:00:00	2024-11-06T01:00:00	5	Humedad	63
44749	7	Sololá	701	Sololá	3	Barraneche	8	Agosto	2023-08-22T00:00:00	2024-11-06T01:00:00	6	Velocidad del viento	9.7
44750	7	Sololá	701	Sololá	3	Barraneche	8	Agosto	2023-08-22T00:00:00	2024-11-06T01:00:00	7	Dirección del viento	9.66
44751	7	Sololá	701	Sololá	3	Barraneche	8	Agosto	2023-08-22T00:00:00	2024-11-06T01:00:00	1	Precipitación	0
44752	7	Sololá	701	Sololá	3	Barraneche	8	Agosto	2023-08-22T00:00:00	2024-11-06T01:00:00	8	Radiación solar	0
44753	7	Sololá	701	Sololá	3	Barraneche	8	Agosto	2023-08-22T00:00:00	2024-11-06T02:00:00	2	Temperatura media	13.9
44754	7	Sololá	701	Sololá	3	Barraneche	8	Agosto	2023-08-22T00:00:00	2024-11-06T02:00:00	4	Temperatura máxima	14.3
44755	7	Sololá	701	Sololá	3	Barraneche	8	Agosto	2023-08-22T00:00:00	2024-11-06T02:00:00	3	Temperatura mínima	13.9
44756	7	Sololá	701	Sololá	3	Barraneche	8	Agosto	2023-08-22T00:00:00	2024-11-06T02:00:00	5	Humedad	62
44757	7	Sololá	701	Sololá	3	Barraneche	8	Agosto	2023-08-22T00:00:00	2024-11-06T02:00:00	6	Velocidad del viento	9.7
44758	7	Sololá	701	Sololá	3	Barraneche	8	Agosto	2023-08-22T00:00:00	2024-11-06T02:00:00	7	Dirección del viento	9.66
44759	7	Sololá	701	Sololá	3	Barraneche	8	Agosto	2023-08-22T00:00:00	2024-11-06T02:00:00	1	Precipitación	0
44760	7	Sololá	701	Sololá	3	Barraneche	8	Agosto	2023-08-22T00:00:00	2024-11-06T02:00:00	8	Radiación solar	0
44761	7	Sololá	701	Sololá	3	Barraneche	8	Agosto	2023-08-22T00:00:00	2024-11-06T03:00:00	2	Temperatura media	13.7
44762	7	Sololá	701	Sololá	3	Barraneche	8	Agosto	2023-08-22T00:00:00	2024-11-06T03:00:00	4	Temperatura máxima	14.1
44763	7	Sololá	701	Sololá	3	Barraneche	8	Agosto	2023-08-22T00:00:00	2024-11-06T03:00:00	3	Temperatura mínima	13.4
44764	7	Sololá	701	Sololá	3	Barraneche	8	Agosto	2023-08-22T00:00:00	2024-11-06T03:00:00	5	Humedad	62
44765	7	Sololá	701	Sololá	3	Barraneche	8	Agosto	2023-08-22T00:00:00	2024-11-06T03:00:00	6	Velocidad del viento	8
44766	7	Sololá	701	Sololá	3	Barraneche	8	Agosto	2023-08-22T00:00:00	2024-11-06T03:00:00	7	Dirección del viento	8.05
44767	7	Sololá	701	Sololá	3	Barraneche	8	Agosto	2023-08-22T00:00:00	2024-11-06T03:00:00	1	Precipitación	0
44768	7	Sololá	701	Sololá	3	Barraneche	8	Agosto	2023-08-22T00:00:00	2024-11-06T03:00:00	8	Radiación solar	0
44769	7	Sololá	701	Sololá	3	Barraneche	8	Agosto	2023-08-22T00:00:00	2024-11-06T04:00:00	2	Temperatura media	13.3
44770	7	Sololá	701	Sololá	3	Barraneche	8	Agosto	2023-08-22T00:00:00	2024-11-06T04:00:00	4	Temperatura máxima	13.8
44771	7	Sololá	701	Sololá	3	Barraneche	8	Agosto	2023-08-22T00:00:00	2024-11-06T04:00:00	3	Temperatura mínima	12.9
44772	7	Sololá	701	Sololá	3	Barraneche	8	Agosto	2023-08-22T00:00:00	2024-11-06T04:00:00	5	Humedad	60
44773	7	Sololá	701	Sololá	3	Barraneche	8	Agosto	2023-08-22T00:00:00	2024-11-06T04:00:00	6	Velocidad del viento	6.4
44774	7	Sololá	701	Sololá	3	Barraneche	8	Agosto	2023-08-22T00:00:00	2024-11-06T04:00:00	7	Dirección del viento	6.44
44775	7	Sololá	701	Sololá	3	Barraneche	8	Agosto	2023-08-22T00:00:00	2024-11-06T04:00:00	1	Precipitación	0
44776	7	Sololá	701	Sololá	3	Barraneche	8	Agosto	2023-08-22T00:00:00	2024-11-06T04:00:00	8	Radiación solar	0
44777	7	Sololá	701	Sololá	3	Barraneche	8	Agosto	2023-08-22T00:00:00	2024-11-06T05:00:00	2	Temperatura media	12.6
44778	7	Sololá	701	Sololá	3	Barraneche	8	Agosto	2023-08-22T00:00:00	2024-11-06T05:00:00	4	Temperatura máxima	14
44779	7	Sololá	701	Sololá	3	Barraneche	8	Agosto	2023-08-22T00:00:00	2024-11-06T05:00:00	3	Temperatura mínima	12.6
44780	7	Sololá	701	Sololá	3	Barraneche	8	Agosto	2023-08-22T00:00:00	2024-11-06T05:00:00	5	Humedad	63
44781	7	Sololá	701	Sololá	3	Barraneche	8	Agosto	2023-08-22T00:00:00	2024-11-06T05:00:00	6	Velocidad del viento	6.4
44782	7	Sololá	701	Sololá	3	Barraneche	8	Agosto	2023-08-22T00:00:00	2024-11-06T05:00:00	7	Dirección del viento	6.44
44783	7	Sololá	701	Sololá	3	Barraneche	8	Agosto	2023-08-22T00:00:00	2024-11-06T05:00:00	1	Precipitación	0
44784	7	Sololá	701	Sololá	3	Barraneche	8	Agosto	2023-08-22T00:00:00	2024-11-06T05:00:00	8	Radiación solar	0
44785	7	Sololá	701	Sololá	3	Barraneche	8	Agosto	2023-08-22T00:00:00	2024-11-06T06:00:00	2	Temperatura media	11.5
44786	7	Sololá	701	Sololá	3	Barraneche	8	Agosto	2023-08-22T00:00:00	2024-11-06T06:00:00	4	Temperatura máxima	12.7
44787	7	Sololá	701	Sololá	3	Barraneche	8	Agosto	2023-08-22T00:00:00	2024-11-06T06:00:00	3	Temperatura mínima	11.5
44788	7	Sololá	701	Sololá	3	Barraneche	8	Agosto	2023-08-22T00:00:00	2024-11-06T06:00:00	5	Humedad	69
44789	7	Sololá	701	Sololá	3	Barraneche	8	Agosto	2023-08-22T00:00:00	2024-11-06T06:00:00	6	Velocidad del viento	3.2
44790	7	Sololá	701	Sololá	3	Barraneche	8	Agosto	2023-08-22T00:00:00	2024-11-06T06:00:00	7	Dirección del viento	3.22
44791	7	Sololá	701	Sololá	3	Barraneche	8	Agosto	2023-08-22T00:00:00	2024-11-06T06:00:00	1	Precipitación	0
44792	7	Sololá	701	Sololá	3	Barraneche	8	Agosto	2023-08-22T00:00:00	2024-11-06T06:00:00	8	Radiación solar	0
44793	7	Sololá	701	Sololá	3	Barraneche	8	Agosto	2023-08-22T00:00:00	2024-11-06T07:00:00	2	Temperatura media	12.9
44794	7	Sololá	701	Sololá	3	Barraneche	8	Agosto	2023-08-22T00:00:00	2024-11-06T07:00:00	4	Temperatura máxima	12.9
44795	7	Sololá	701	Sololá	3	Barraneche	8	Agosto	2023-08-22T00:00:00	2024-11-06T07:00:00	3	Temperatura mínima	11.1
44796	7	Sololá	701	Sololá	3	Barraneche	8	Agosto	2023-08-22T00:00:00	2024-11-06T07:00:00	5	Humedad	65
44797	7	Sololá	701	Sololá	3	Barraneche	8	Agosto	2023-08-22T00:00:00	2024-11-06T07:00:00	6	Velocidad del viento	4.8
44798	7	Sololá	701	Sololá	3	Barraneche	8	Agosto	2023-08-22T00:00:00	2024-11-06T07:00:00	7	Dirección del viento	4.83
44799	7	Sololá	701	Sololá	3	Barraneche	8	Agosto	2023-08-22T00:00:00	2024-11-06T07:00:00	1	Precipitación	0
44800	7	Sololá	701	Sololá	3	Barraneche	8	Agosto	2023-08-22T00:00:00	2024-11-06T07:00:00	8	Radiación solar	74
44801	7	Sololá	701	Sololá	3	Barraneche	8	Agosto	2023-08-22T00:00:00	2024-11-06T08:00:00	2	Temperatura media	17.3
44802	7	Sololá	701	Sololá	3	Barraneche	8	Agosto	2023-08-22T00:00:00	2024-11-06T08:00:00	4	Temperatura máxima	17.3
44803	7	Sololá	701	Sololá	3	Barraneche	8	Agosto	2023-08-22T00:00:00	2024-11-06T08:00:00	3	Temperatura mínima	12.9
44804	7	Sololá	701	Sololá	3	Barraneche	8	Agosto	2023-08-22T00:00:00	2024-11-06T08:00:00	5	Humedad	54
44805	7	Sololá	701	Sololá	3	Barraneche	8	Agosto	2023-08-22T00:00:00	2024-11-06T08:00:00	6	Velocidad del viento	3.2
44806	7	Sololá	701	Sololá	3	Barraneche	8	Agosto	2023-08-22T00:00:00	2024-11-06T08:00:00	7	Dirección del viento	3.22
44807	7	Sololá	701	Sololá	3	Barraneche	8	Agosto	2023-08-22T00:00:00	2024-11-06T08:00:00	1	Precipitación	0
44808	7	Sololá	701	Sololá	3	Barraneche	8	Agosto	2023-08-22T00:00:00	2024-11-06T08:00:00	8	Radiación solar	321
44809	7	Sololá	701	Sololá	3	Barraneche	8	Agosto	2023-08-22T00:00:00	2024-11-06T09:00:00	2	Temperatura media	18.2
44810	7	Sololá	701	Sololá	3	Barraneche	8	Agosto	2023-08-22T00:00:00	2024-11-06T09:00:00	4	Temperatura máxima	18.2
44811	7	Sololá	701	Sololá	3	Barraneche	8	Agosto	2023-08-22T00:00:00	2024-11-06T09:00:00	3	Temperatura mínima	17.2
44812	7	Sololá	701	Sololá	3	Barraneche	8	Agosto	2023-08-22T00:00:00	2024-11-06T09:00:00	5	Humedad	57
44813	7	Sololá	701	Sololá	3	Barraneche	8	Agosto	2023-08-22T00:00:00	2024-11-06T09:00:00	6	Velocidad del viento	9.7
44814	7	Sololá	701	Sololá	3	Barraneche	8	Agosto	2023-08-22T00:00:00	2024-11-06T09:00:00	7	Dirección del viento	9.66
44815	7	Sololá	701	Sololá	3	Barraneche	8	Agosto	2023-08-22T00:00:00	2024-11-06T09:00:00	1	Precipitación	0
44816	7	Sololá	701	Sololá	3	Barraneche	8	Agosto	2023-08-22T00:00:00	2024-11-06T09:00:00	8	Radiación solar	598
44817	7	Sololá	701	Sololá	3	Barraneche	8	Agosto	2023-08-22T00:00:00	2024-11-06T10:00:00	2	Temperatura media	19.2
44818	7	Sololá	701	Sololá	3	Barraneche	8	Agosto	2023-08-22T00:00:00	2024-11-06T10:00:00	4	Temperatura máxima	19.2
44819	7	Sololá	701	Sololá	3	Barraneche	8	Agosto	2023-08-22T00:00:00	2024-11-06T10:00:00	3	Temperatura mínima	18.1
44820	7	Sololá	701	Sololá	3	Barraneche	8	Agosto	2023-08-22T00:00:00	2024-11-06T10:00:00	5	Humedad	39
44821	7	Sololá	701	Sololá	3	Barraneche	8	Agosto	2023-08-22T00:00:00	2024-11-06T10:00:00	6	Velocidad del viento	17.7
44822	7	Sololá	701	Sololá	3	Barraneche	8	Agosto	2023-08-22T00:00:00	2024-11-06T10:00:00	7	Dirección del viento	17.7
44823	7	Sololá	701	Sololá	3	Barraneche	8	Agosto	2023-08-22T00:00:00	2024-11-06T10:00:00	1	Precipitación	0
44824	7	Sololá	701	Sololá	3	Barraneche	8	Agosto	2023-08-22T00:00:00	2024-11-06T10:00:00	8	Radiación solar	797
44825	7	Sololá	701	Sololá	3	Barraneche	8	Agosto	2023-08-22T00:00:00	2024-11-06T11:00:00	2	Temperatura media	19.6
44826	7	Sololá	701	Sololá	3	Barraneche	8	Agosto	2023-08-22T00:00:00	2024-11-06T11:00:00	4	Temperatura máxima	20.2
44827	7	Sololá	701	Sololá	3	Barraneche	8	Agosto	2023-08-22T00:00:00	2024-11-06T11:00:00	3	Temperatura mínima	19.2
44828	7	Sololá	701	Sololá	3	Barraneche	8	Agosto	2023-08-22T00:00:00	2024-11-06T11:00:00	5	Humedad	46
44829	7	Sololá	701	Sololá	3	Barraneche	8	Agosto	2023-08-22T00:00:00	2024-11-06T11:00:00	6	Velocidad del viento	14.5
44830	7	Sololá	701	Sololá	3	Barraneche	8	Agosto	2023-08-22T00:00:00	2024-11-06T11:00:00	7	Dirección del viento	14.48
44831	7	Sololá	701	Sololá	3	Barraneche	8	Agosto	2023-08-22T00:00:00	2024-11-06T11:00:00	1	Precipitación	0
44832	7	Sololá	701	Sololá	3	Barraneche	8	Agosto	2023-08-22T00:00:00	2024-11-06T11:00:00	8	Radiación solar	971
44833	7	Sololá	701	Sololá	3	Barraneche	8	Agosto	2023-08-22T00:00:00	2024-11-06T12:00:00	2	Temperatura media	19.4
44834	7	Sololá	701	Sololá	3	Barraneche	8	Agosto	2023-08-22T00:00:00	2024-11-06T12:00:00	4	Temperatura máxima	19.8
44835	7	Sololá	701	Sololá	3	Barraneche	8	Agosto	2023-08-22T00:00:00	2024-11-06T12:00:00	3	Temperatura mínima	18.9
44836	7	Sololá	701	Sololá	3	Barraneche	8	Agosto	2023-08-22T00:00:00	2024-11-06T12:00:00	5	Humedad	44
44837	7	Sololá	701	Sololá	3	Barraneche	8	Agosto	2023-08-22T00:00:00	2024-11-06T12:00:00	6	Velocidad del viento	14.5
44838	7	Sololá	701	Sololá	3	Barraneche	8	Agosto	2023-08-22T00:00:00	2024-11-06T12:00:00	7	Dirección del viento	14.48
44839	7	Sololá	701	Sololá	3	Barraneche	8	Agosto	2023-08-22T00:00:00	2024-11-06T12:00:00	1	Precipitación	0
44840	7	Sololá	701	Sololá	3	Barraneche	8	Agosto	2023-08-22T00:00:00	2024-11-06T12:00:00	8	Radiación solar	1056
44841	7	Sololá	701	Sololá	3	Barraneche	8	Agosto	2023-08-22T00:00:00	2024-11-06T13:00:00	2	Temperatura media	19.6
44842	7	Sololá	701	Sololá	3	Barraneche	8	Agosto	2023-08-22T00:00:00	2024-11-06T13:00:00	4	Temperatura máxima	19.9
44843	7	Sololá	701	Sololá	3	Barraneche	8	Agosto	2023-08-22T00:00:00	2024-11-06T13:00:00	3	Temperatura mínima	19.4
44844	7	Sololá	701	Sololá	3	Barraneche	8	Agosto	2023-08-22T00:00:00	2024-11-06T13:00:00	5	Humedad	46
44845	7	Sololá	701	Sololá	3	Barraneche	8	Agosto	2023-08-22T00:00:00	2024-11-06T13:00:00	6	Velocidad del viento	12.9
44846	7	Sololá	701	Sololá	3	Barraneche	8	Agosto	2023-08-22T00:00:00	2024-11-06T13:00:00	7	Dirección del viento	12.87
44847	7	Sololá	701	Sololá	3	Barraneche	8	Agosto	2023-08-22T00:00:00	2024-11-06T13:00:00	1	Precipitación	0
44848	7	Sololá	701	Sololá	3	Barraneche	8	Agosto	2023-08-22T00:00:00	2024-11-06T13:00:00	8	Radiación solar	1169
44849	7	Sololá	701	Sololá	3	Barraneche	8	Agosto	2023-08-22T00:00:00	2024-11-06T14:00:00	2	Temperatura media	19.7
44850	7	Sololá	701	Sololá	3	Barraneche	8	Agosto	2023-08-22T00:00:00	2024-11-06T14:00:00	4	Temperatura máxima	20.1
44851	7	Sololá	701	Sololá	3	Barraneche	8	Agosto	2023-08-22T00:00:00	2024-11-06T14:00:00	3	Temperatura mínima	19.1
44852	7	Sololá	701	Sololá	3	Barraneche	8	Agosto	2023-08-22T00:00:00	2024-11-06T14:00:00	5	Humedad	47
44853	7	Sololá	701	Sololá	3	Barraneche	8	Agosto	2023-08-22T00:00:00	2024-11-06T14:00:00	6	Velocidad del viento	12.9
44854	7	Sololá	701	Sololá	3	Barraneche	8	Agosto	2023-08-22T00:00:00	2024-11-06T14:00:00	7	Dirección del viento	12.87
44855	7	Sololá	701	Sololá	3	Barraneche	8	Agosto	2023-08-22T00:00:00	2024-11-06T14:00:00	1	Precipitación	0
44856	7	Sololá	701	Sololá	3	Barraneche	8	Agosto	2023-08-22T00:00:00	2024-11-06T14:00:00	8	Radiación solar	904
44857	7	Sololá	701	Sololá	3	Barraneche	8	Agosto	2023-08-22T00:00:00	2024-11-06T15:00:00	2	Temperatura media	19.3
44858	7	Sololá	701	Sololá	3	Barraneche	8	Agosto	2023-08-22T00:00:00	2024-11-06T15:00:00	4	Temperatura máxima	19.8
44859	7	Sololá	701	Sololá	3	Barraneche	8	Agosto	2023-08-22T00:00:00	2024-11-06T15:00:00	3	Temperatura mínima	18.9
44860	7	Sololá	701	Sololá	3	Barraneche	8	Agosto	2023-08-22T00:00:00	2024-11-06T15:00:00	5	Humedad	48
44861	7	Sololá	701	Sololá	3	Barraneche	8	Agosto	2023-08-22T00:00:00	2024-11-06T15:00:00	6	Velocidad del viento	11.3
44862	7	Sololá	701	Sololá	3	Barraneche	8	Agosto	2023-08-22T00:00:00	2024-11-06T15:00:00	7	Dirección del viento	11.27
44863	7	Sololá	701	Sololá	3	Barraneche	8	Agosto	2023-08-22T00:00:00	2024-11-06T15:00:00	1	Precipitación	0
44864	7	Sololá	701	Sololá	3	Barraneche	8	Agosto	2023-08-22T00:00:00	2024-11-06T15:00:00	8	Radiación solar	464
44865	7	Sololá	701	Sololá	3	Barraneche	8	Agosto	2023-08-22T00:00:00	2024-11-06T16:00:00	2	Temperatura media	19.1
44866	7	Sololá	701	Sololá	3	Barraneche	8	Agosto	2023-08-22T00:00:00	2024-11-06T16:00:00	4	Temperatura máxima	19.5
44867	7	Sololá	701	Sololá	3	Barraneche	8	Agosto	2023-08-22T00:00:00	2024-11-06T16:00:00	3	Temperatura mínima	18.3
44868	7	Sololá	701	Sololá	3	Barraneche	8	Agosto	2023-08-22T00:00:00	2024-11-06T16:00:00	5	Humedad	51
44869	7	Sololá	701	Sololá	3	Barraneche	8	Agosto	2023-08-22T00:00:00	2024-11-06T16:00:00	6	Velocidad del viento	9.7
44870	7	Sololá	701	Sololá	3	Barraneche	8	Agosto	2023-08-22T00:00:00	2024-11-06T16:00:00	7	Dirección del viento	9.66
44871	7	Sololá	701	Sololá	3	Barraneche	8	Agosto	2023-08-22T00:00:00	2024-11-06T16:00:00	1	Precipitación	0
44872	7	Sololá	701	Sololá	3	Barraneche	8	Agosto	2023-08-22T00:00:00	2024-11-06T16:00:00	8	Radiación solar	324
44873	7	Sololá	701	Sololá	3	Barraneche	8	Agosto	2023-08-22T00:00:00	2024-11-06T17:00:00	2	Temperatura media	17.2
44874	7	Sololá	701	Sololá	3	Barraneche	8	Agosto	2023-08-22T00:00:00	2024-11-06T17:00:00	4	Temperatura máxima	19.4
44875	7	Sololá	701	Sololá	3	Barraneche	8	Agosto	2023-08-22T00:00:00	2024-11-06T17:00:00	3	Temperatura mínima	17.2
44876	7	Sololá	701	Sololá	3	Barraneche	8	Agosto	2023-08-22T00:00:00	2024-11-06T17:00:00	5	Humedad	69
44877	7	Sololá	701	Sololá	3	Barraneche	8	Agosto	2023-08-22T00:00:00	2024-11-06T17:00:00	6	Velocidad del viento	6.4
44878	7	Sololá	701	Sololá	3	Barraneche	8	Agosto	2023-08-22T00:00:00	2024-11-06T17:00:00	7	Dirección del viento	6.44
44879	7	Sololá	701	Sololá	3	Barraneche	8	Agosto	2023-08-22T00:00:00	2024-11-06T17:00:00	1	Precipitación	0
44880	7	Sololá	701	Sololá	3	Barraneche	8	Agosto	2023-08-22T00:00:00	2024-11-06T17:00:00	8	Radiación solar	228
44881	7	Sololá	701	Sololá	3	Barraneche	8	Agosto	2023-08-22T00:00:00	2024-11-06T18:00:00	2	Temperatura media	16.1
44882	7	Sololá	701	Sololá	3	Barraneche	8	Agosto	2023-08-22T00:00:00	2024-11-06T18:00:00	4	Temperatura máxima	17.2
44883	7	Sololá	701	Sololá	3	Barraneche	8	Agosto	2023-08-22T00:00:00	2024-11-06T18:00:00	3	Temperatura mínima	16
44884	7	Sololá	701	Sololá	3	Barraneche	8	Agosto	2023-08-22T00:00:00	2024-11-06T18:00:00	5	Humedad	71
44885	7	Sololá	701	Sololá	3	Barraneche	8	Agosto	2023-08-22T00:00:00	2024-11-06T18:00:00	6	Velocidad del viento	8
44886	7	Sololá	701	Sololá	3	Barraneche	8	Agosto	2023-08-22T00:00:00	2024-11-06T18:00:00	7	Dirección del viento	8.05
44887	7	Sololá	701	Sololá	3	Barraneche	8	Agosto	2023-08-22T00:00:00	2024-11-06T18:00:00	1	Precipitación	0
44888	7	Sololá	701	Sololá	3	Barraneche	8	Agosto	2023-08-22T00:00:00	2024-11-06T18:00:00	8	Radiación solar	48
44889	7	Sololá	701	Sololá	3	Barraneche	8	Agosto	2023-08-22T00:00:00	2024-11-06T19:00:00	2	Temperatura media	16.3
44890	7	Sololá	701	Sololá	3	Barraneche	8	Agosto	2023-08-22T00:00:00	2024-11-06T19:00:00	4	Temperatura máxima	16.4
44891	7	Sololá	701	Sololá	3	Barraneche	8	Agosto	2023-08-22T00:00:00	2024-11-06T19:00:00	3	Temperatura mínima	15.8
44892	7	Sololá	701	Sololá	3	Barraneche	8	Agosto	2023-08-22T00:00:00	2024-11-06T19:00:00	5	Humedad	63
44893	7	Sololá	701	Sololá	3	Barraneche	8	Agosto	2023-08-22T00:00:00	2024-11-06T19:00:00	6	Velocidad del viento	6.4
44894	7	Sololá	701	Sololá	3	Barraneche	8	Agosto	2023-08-22T00:00:00	2024-11-06T19:00:00	7	Dirección del viento	6.44
44895	7	Sololá	701	Sololá	3	Barraneche	8	Agosto	2023-08-22T00:00:00	2024-11-06T19:00:00	1	Precipitación	0
44896	7	Sololá	701	Sololá	3	Barraneche	8	Agosto	2023-08-22T00:00:00	2024-11-06T19:00:00	8	Radiación solar	0
44897	7	Sololá	701	Sololá	3	Barraneche	8	Agosto	2023-08-22T00:00:00	2024-11-06T20:00:00	2	Temperatura media	15.1
44898	7	Sololá	701	Sololá	3	Barraneche	8	Agosto	2023-08-22T00:00:00	2024-11-06T20:00:00	4	Temperatura máxima	16.4
44899	7	Sololá	701	Sololá	3	Barraneche	8	Agosto	2023-08-22T00:00:00	2024-11-06T20:00:00	3	Temperatura mínima	15.1
44900	7	Sololá	701	Sololá	3	Barraneche	8	Agosto	2023-08-22T00:00:00	2024-11-06T20:00:00	5	Humedad	67
44901	7	Sololá	701	Sololá	3	Barraneche	8	Agosto	2023-08-22T00:00:00	2024-11-06T20:00:00	6	Velocidad del viento	9.7
44902	7	Sololá	701	Sololá	3	Barraneche	8	Agosto	2023-08-22T00:00:00	2024-11-06T20:00:00	7	Dirección del viento	9.66
44903	7	Sololá	701	Sololá	3	Barraneche	8	Agosto	2023-08-22T00:00:00	2024-11-06T20:00:00	1	Precipitación	0.2
44904	7	Sololá	701	Sololá	3	Barraneche	8	Agosto	2023-08-22T00:00:00	2024-11-06T20:00:00	8	Radiación solar	0
44905	7	Sololá	701	Sololá	3	Barraneche	8	Agosto	2023-08-22T00:00:00	2024-11-06T21:00:00	2	Temperatura media	14.4
44906	7	Sololá	701	Sololá	3	Barraneche	8	Agosto	2023-08-22T00:00:00	2024-11-06T21:00:00	4	Temperatura máxima	15.2
44907	7	Sololá	701	Sololá	3	Barraneche	8	Agosto	2023-08-22T00:00:00	2024-11-06T21:00:00	3	Temperatura mínima	14.4
44908	7	Sololá	701	Sololá	3	Barraneche	8	Agosto	2023-08-22T00:00:00	2024-11-06T21:00:00	5	Humedad	64
44909	7	Sololá	701	Sololá	3	Barraneche	8	Agosto	2023-08-22T00:00:00	2024-11-06T21:00:00	6	Velocidad del viento	11.3
44910	7	Sololá	701	Sololá	3	Barraneche	8	Agosto	2023-08-22T00:00:00	2024-11-06T21:00:00	7	Dirección del viento	11.27
44911	7	Sololá	701	Sololá	3	Barraneche	8	Agosto	2023-08-22T00:00:00	2024-11-06T21:00:00	1	Precipitación	0
44912	7	Sololá	701	Sololá	3	Barraneche	8	Agosto	2023-08-22T00:00:00	2024-11-06T21:00:00	8	Radiación solar	0
44913	7	Sololá	701	Sololá	3	Barraneche	8	Agosto	2023-08-22T00:00:00	2024-11-06T22:00:00	2	Temperatura media	13.9
44914	7	Sololá	701	Sololá	3	Barraneche	8	Agosto	2023-08-22T00:00:00	2024-11-06T22:00:00	4	Temperatura máxima	14.4
44915	7	Sololá	701	Sololá	3	Barraneche	8	Agosto	2023-08-22T00:00:00	2024-11-06T22:00:00	3	Temperatura mínima	13.7
44916	7	Sololá	701	Sololá	3	Barraneche	8	Agosto	2023-08-22T00:00:00	2024-11-06T22:00:00	5	Humedad	63
44917	7	Sololá	701	Sololá	3	Barraneche	8	Agosto	2023-08-22T00:00:00	2024-11-06T22:00:00	6	Velocidad del viento	6.4
44918	7	Sololá	701	Sololá	3	Barraneche	8	Agosto	2023-08-22T00:00:00	2024-11-06T22:00:00	7	Dirección del viento	6.44
44919	7	Sololá	701	Sololá	3	Barraneche	8	Agosto	2023-08-22T00:00:00	2024-11-06T22:00:00	1	Precipitación	0
44920	7	Sololá	701	Sololá	3	Barraneche	8	Agosto	2023-08-22T00:00:00	2024-11-06T22:00:00	8	Radiación solar	0
44921	7	Sololá	701	Sololá	3	Barraneche	8	Agosto	2023-08-22T00:00:00	2024-11-06T23:00:00	2	Temperatura media	13.7
44922	7	Sololá	701	Sololá	3	Barraneche	8	Agosto	2023-08-22T00:00:00	2024-11-06T23:00:00	4	Temperatura máxima	14.2
44923	7	Sololá	701	Sololá	3	Barraneche	8	Agosto	2023-08-22T00:00:00	2024-11-06T23:00:00	3	Temperatura mínima	13.6
44924	7	Sololá	701	Sololá	3	Barraneche	8	Agosto	2023-08-22T00:00:00	2024-11-06T23:00:00	5	Humedad	62
44925	7	Sololá	701	Sololá	3	Barraneche	8	Agosto	2023-08-22T00:00:00	2024-11-06T23:00:00	6	Velocidad del viento	8
44926	7	Sololá	701	Sololá	3	Barraneche	8	Agosto	2023-08-22T00:00:00	2024-11-06T23:00:00	7	Dirección del viento	8.05
44927	7	Sololá	701	Sololá	3	Barraneche	8	Agosto	2023-08-22T00:00:00	2024-11-06T23:00:00	1	Precipitación	0
44928	7	Sololá	701	Sololá	3	Barraneche	8	Agosto	2023-08-22T00:00:00	2024-11-06T23:00:00	8	Radiación solar	0
44929	7	Sololá	701	Sololá	3	Barraneche	8	Agosto	2023-08-23T00:00:00	2024-11-06T00:00:00	2	Temperatura media	12.6
44930	7	Sololá	701	Sololá	3	Barraneche	8	Agosto	2023-08-23T00:00:00	2024-11-06T00:00:00	4	Temperatura máxima	13.7
44931	7	Sololá	701	Sololá	3	Barraneche	8	Agosto	2023-08-23T00:00:00	2024-11-06T00:00:00	3	Temperatura mínima	12.3
44932	7	Sololá	701	Sololá	3	Barraneche	8	Agosto	2023-08-23T00:00:00	2024-11-06T00:00:00	5	Humedad	67
44933	7	Sololá	701	Sololá	3	Barraneche	8	Agosto	2023-08-23T00:00:00	2024-11-06T00:00:00	6	Velocidad del viento	3.2
44934	7	Sololá	701	Sololá	3	Barraneche	8	Agosto	2023-08-23T00:00:00	2024-11-06T00:00:00	7	Dirección del viento	3.22
44935	7	Sololá	701	Sololá	3	Barraneche	8	Agosto	2023-08-23T00:00:00	2024-11-06T00:00:00	1	Precipitación	0
44936	7	Sololá	701	Sololá	3	Barraneche	8	Agosto	2023-08-23T00:00:00	2024-11-06T00:00:00	8	Radiación solar	0
44937	7	Sololá	701	Sololá	3	Barraneche	8	Agosto	2023-08-23T00:00:00	2024-11-06T01:00:00	2	Temperatura media	13.5
44938	7	Sololá	701	Sololá	3	Barraneche	8	Agosto	2023-08-23T00:00:00	2024-11-06T01:00:00	4	Temperatura máxima	13.6
44939	7	Sololá	701	Sololá	3	Barraneche	8	Agosto	2023-08-23T00:00:00	2024-11-06T01:00:00	3	Temperatura mínima	12.6
44940	7	Sololá	701	Sololá	3	Barraneche	8	Agosto	2023-08-23T00:00:00	2024-11-06T01:00:00	5	Humedad	62
44941	7	Sololá	701	Sololá	3	Barraneche	8	Agosto	2023-08-23T00:00:00	2024-11-06T01:00:00	6	Velocidad del viento	4.8
44942	7	Sololá	701	Sololá	3	Barraneche	8	Agosto	2023-08-23T00:00:00	2024-11-06T01:00:00	7	Dirección del viento	4.83
44943	7	Sololá	701	Sololá	3	Barraneche	8	Agosto	2023-08-23T00:00:00	2024-11-06T01:00:00	1	Precipitación	0
44944	7	Sololá	701	Sololá	3	Barraneche	8	Agosto	2023-08-23T00:00:00	2024-11-06T01:00:00	8	Radiación solar	0
44945	7	Sololá	701	Sololá	3	Barraneche	8	Agosto	2023-08-23T00:00:00	2024-11-06T02:00:00	2	Temperatura media	13.1
44946	7	Sololá	701	Sololá	3	Barraneche	8	Agosto	2023-08-23T00:00:00	2024-11-06T02:00:00	4	Temperatura máxima	13.6
44947	7	Sololá	701	Sololá	3	Barraneche	8	Agosto	2023-08-23T00:00:00	2024-11-06T02:00:00	3	Temperatura mínima	13.1
44948	7	Sololá	701	Sololá	3	Barraneche	8	Agosto	2023-08-23T00:00:00	2024-11-06T02:00:00	5	Humedad	61
44949	7	Sololá	701	Sololá	3	Barraneche	8	Agosto	2023-08-23T00:00:00	2024-11-06T02:00:00	6	Velocidad del viento	6.4
44950	7	Sololá	701	Sololá	3	Barraneche	8	Agosto	2023-08-23T00:00:00	2024-11-06T02:00:00	7	Dirección del viento	6.44
44951	7	Sololá	701	Sololá	3	Barraneche	8	Agosto	2023-08-23T00:00:00	2024-11-06T02:00:00	1	Precipitación	0
44952	7	Sololá	701	Sololá	3	Barraneche	8	Agosto	2023-08-23T00:00:00	2024-11-06T02:00:00	8	Radiación solar	0
44953	7	Sololá	701	Sololá	3	Barraneche	8	Agosto	2023-08-23T00:00:00	2024-11-06T03:00:00	2	Temperatura media	12.9
44954	7	Sololá	701	Sololá	3	Barraneche	8	Agosto	2023-08-23T00:00:00	2024-11-06T03:00:00	4	Temperatura máxima	13.1
44955	7	Sololá	701	Sololá	3	Barraneche	8	Agosto	2023-08-23T00:00:00	2024-11-06T03:00:00	3	Temperatura mínima	12.6
44956	7	Sololá	701	Sololá	3	Barraneche	8	Agosto	2023-08-23T00:00:00	2024-11-06T03:00:00	5	Humedad	59
44957	7	Sololá	701	Sololá	3	Barraneche	8	Agosto	2023-08-23T00:00:00	2024-11-06T03:00:00	6	Velocidad del viento	8
44958	7	Sololá	701	Sololá	3	Barraneche	8	Agosto	2023-08-23T00:00:00	2024-11-06T03:00:00	7	Dirección del viento	8.05
44959	7	Sololá	701	Sololá	3	Barraneche	8	Agosto	2023-08-23T00:00:00	2024-11-06T03:00:00	1	Precipitación	0
44960	7	Sololá	701	Sololá	3	Barraneche	8	Agosto	2023-08-23T00:00:00	2024-11-06T03:00:00	8	Radiación solar	0
44961	7	Sololá	701	Sololá	3	Barraneche	8	Agosto	2023-08-23T00:00:00	2024-11-06T04:00:00	2	Temperatura media	13.9
44962	7	Sololá	701	Sololá	3	Barraneche	8	Agosto	2023-08-23T00:00:00	2024-11-06T04:00:00	4	Temperatura máxima	13.9
44963	7	Sololá	701	Sololá	3	Barraneche	8	Agosto	2023-08-23T00:00:00	2024-11-06T04:00:00	3	Temperatura mínima	12.8
44964	7	Sololá	701	Sololá	3	Barraneche	8	Agosto	2023-08-23T00:00:00	2024-11-06T04:00:00	5	Humedad	48
44965	7	Sololá	701	Sololá	3	Barraneche	8	Agosto	2023-08-23T00:00:00	2024-11-06T04:00:00	6	Velocidad del viento	8
44966	7	Sololá	701	Sololá	3	Barraneche	8	Agosto	2023-08-23T00:00:00	2024-11-06T04:00:00	7	Dirección del viento	8.05
44967	7	Sololá	701	Sololá	3	Barraneche	8	Agosto	2023-08-23T00:00:00	2024-11-06T04:00:00	1	Precipitación	0
44968	7	Sololá	701	Sololá	3	Barraneche	8	Agosto	2023-08-23T00:00:00	2024-11-06T04:00:00	8	Radiación solar	0
44969	7	Sololá	701	Sololá	3	Barraneche	8	Agosto	2023-08-23T00:00:00	2024-11-06T05:00:00	2	Temperatura media	14.2
44970	7	Sololá	701	Sololá	3	Barraneche	8	Agosto	2023-08-23T00:00:00	2024-11-06T05:00:00	4	Temperatura máxima	14.2
44971	7	Sololá	701	Sololá	3	Barraneche	8	Agosto	2023-08-23T00:00:00	2024-11-06T05:00:00	3	Temperatura mínima	13.2
44972	7	Sololá	701	Sololá	3	Barraneche	8	Agosto	2023-08-23T00:00:00	2024-11-06T05:00:00	5	Humedad	48
44973	7	Sololá	701	Sololá	3	Barraneche	8	Agosto	2023-08-23T00:00:00	2024-11-06T05:00:00	6	Velocidad del viento	9.7
44974	7	Sololá	701	Sololá	3	Barraneche	8	Agosto	2023-08-23T00:00:00	2024-11-06T05:00:00	7	Dirección del viento	9.66
44975	7	Sololá	701	Sololá	3	Barraneche	8	Agosto	2023-08-23T00:00:00	2024-11-06T05:00:00	1	Precipitación	0
44976	7	Sololá	701	Sololá	3	Barraneche	8	Agosto	2023-08-23T00:00:00	2024-11-06T05:00:00	8	Radiación solar	0
44977	7	Sololá	701	Sololá	3	Barraneche	8	Agosto	2023-08-23T00:00:00	2024-11-06T06:00:00	2	Temperatura media	14.1
44978	7	Sololá	701	Sololá	3	Barraneche	8	Agosto	2023-08-23T00:00:00	2024-11-06T06:00:00	4	Temperatura máxima	14.3
44979	7	Sololá	701	Sololá	3	Barraneche	8	Agosto	2023-08-23T00:00:00	2024-11-06T06:00:00	3	Temperatura mínima	13.7
44980	7	Sololá	701	Sololá	3	Barraneche	8	Agosto	2023-08-23T00:00:00	2024-11-06T06:00:00	5	Humedad	46
44981	7	Sololá	701	Sololá	3	Barraneche	8	Agosto	2023-08-23T00:00:00	2024-11-06T06:00:00	6	Velocidad del viento	8
44982	7	Sololá	701	Sololá	3	Barraneche	8	Agosto	2023-08-23T00:00:00	2024-11-06T06:00:00	7	Dirección del viento	8.05
44983	7	Sololá	701	Sololá	3	Barraneche	8	Agosto	2023-08-23T00:00:00	2024-11-06T06:00:00	1	Precipitación	0
44984	7	Sololá	701	Sololá	3	Barraneche	8	Agosto	2023-08-23T00:00:00	2024-11-06T06:00:00	8	Radiación solar	0
44985	7	Sololá	701	Sololá	3	Barraneche	8	Agosto	2023-08-23T00:00:00	2024-11-06T07:00:00	2	Temperatura media	14.3
44986	7	Sololá	701	Sololá	3	Barraneche	8	Agosto	2023-08-23T00:00:00	2024-11-06T07:00:00	4	Temperatura máxima	14.4
44987	7	Sololá	701	Sololá	3	Barraneche	8	Agosto	2023-08-23T00:00:00	2024-11-06T07:00:00	3	Temperatura mínima	13.9
44988	7	Sololá	701	Sololá	3	Barraneche	8	Agosto	2023-08-23T00:00:00	2024-11-06T07:00:00	5	Humedad	48
44989	7	Sololá	701	Sololá	3	Barraneche	8	Agosto	2023-08-23T00:00:00	2024-11-06T07:00:00	6	Velocidad del viento	4.8
44990	7	Sololá	701	Sololá	3	Barraneche	8	Agosto	2023-08-23T00:00:00	2024-11-06T07:00:00	7	Dirección del viento	4.83
44991	7	Sololá	701	Sololá	3	Barraneche	8	Agosto	2023-08-23T00:00:00	2024-11-06T07:00:00	1	Precipitación	0
44992	7	Sololá	701	Sololá	3	Barraneche	8	Agosto	2023-08-23T00:00:00	2024-11-06T07:00:00	8	Radiación solar	45
44993	7	Sololá	701	Sololá	3	Barraneche	8	Agosto	2023-08-23T00:00:00	2024-11-06T08:00:00	2	Temperatura media	14.8
44994	7	Sololá	701	Sololá	3	Barraneche	8	Agosto	2023-08-23T00:00:00	2024-11-06T08:00:00	4	Temperatura máxima	14.8
44995	7	Sololá	701	Sololá	3	Barraneche	8	Agosto	2023-08-23T00:00:00	2024-11-06T08:00:00	3	Temperatura mínima	13.6
44996	7	Sololá	701	Sololá	3	Barraneche	8	Agosto	2023-08-23T00:00:00	2024-11-06T08:00:00	5	Humedad	54
44997	7	Sololá	701	Sololá	3	Barraneche	8	Agosto	2023-08-23T00:00:00	2024-11-06T08:00:00	6	Velocidad del viento	4.8
44998	7	Sololá	701	Sololá	3	Barraneche	8	Agosto	2023-08-23T00:00:00	2024-11-06T08:00:00	7	Dirección del viento	4.83
44999	7	Sololá	701	Sololá	3	Barraneche	8	Agosto	2023-08-23T00:00:00	2024-11-06T08:00:00	1	Precipitación	0
45000	7	Sololá	701	Sololá	3	Barraneche	8	Agosto	2023-08-23T00:00:00	2024-11-06T08:00:00	8	Radiación solar	193
45001	7	Sololá	701	Sololá	3	Barraneche	8	Agosto	2023-08-23T00:00:00	2024-11-06T09:00:00	2	Temperatura media	17.2
45002	7	Sololá	701	Sololá	3	Barraneche	8	Agosto	2023-08-23T00:00:00	2024-11-06T09:00:00	4	Temperatura máxima	17.9
45003	7	Sololá	701	Sololá	3	Barraneche	8	Agosto	2023-08-23T00:00:00	2024-11-06T09:00:00	3	Temperatura mínima	14.8
45004	7	Sololá	701	Sololá	3	Barraneche	8	Agosto	2023-08-23T00:00:00	2024-11-06T09:00:00	5	Humedad	44
45005	7	Sololá	701	Sololá	3	Barraneche	8	Agosto	2023-08-23T00:00:00	2024-11-06T09:00:00	6	Velocidad del viento	6.4
45006	7	Sololá	701	Sololá	3	Barraneche	8	Agosto	2023-08-23T00:00:00	2024-11-06T09:00:00	7	Dirección del viento	6.44
45007	7	Sololá	701	Sololá	3	Barraneche	8	Agosto	2023-08-23T00:00:00	2024-11-06T09:00:00	1	Precipitación	0
45008	7	Sololá	701	Sololá	3	Barraneche	8	Agosto	2023-08-23T00:00:00	2024-11-06T09:00:00	8	Radiación solar	491
45009	7	Sololá	701	Sololá	3	Barraneche	8	Agosto	2023-08-23T00:00:00	2024-11-06T10:00:00	2	Temperatura media	17.4
45010	7	Sololá	701	Sololá	3	Barraneche	8	Agosto	2023-08-23T00:00:00	2024-11-06T10:00:00	4	Temperatura máxima	17.6
45011	7	Sololá	701	Sololá	3	Barraneche	8	Agosto	2023-08-23T00:00:00	2024-11-06T10:00:00	3	Temperatura mínima	17.2
45012	7	Sololá	701	Sololá	3	Barraneche	8	Agosto	2023-08-23T00:00:00	2024-11-06T10:00:00	5	Humedad	45
45013	7	Sololá	701	Sololá	3	Barraneche	8	Agosto	2023-08-23T00:00:00	2024-11-06T10:00:00	6	Velocidad del viento	11.3
45014	7	Sololá	701	Sololá	3	Barraneche	8	Agosto	2023-08-23T00:00:00	2024-11-06T10:00:00	7	Dirección del viento	11.27
45015	7	Sololá	701	Sololá	3	Barraneche	8	Agosto	2023-08-23T00:00:00	2024-11-06T10:00:00	1	Precipitación	0
45016	7	Sololá	701	Sololá	3	Barraneche	8	Agosto	2023-08-23T00:00:00	2024-11-06T10:00:00	8	Radiación solar	415
45017	7	Sololá	701	Sololá	3	Barraneche	8	Agosto	2023-08-23T00:00:00	2024-11-06T11:00:00	2	Temperatura media	18.1
45018	7	Sololá	701	Sololá	3	Barraneche	8	Agosto	2023-08-23T00:00:00	2024-11-06T11:00:00	4	Temperatura máxima	18.1
45019	7	Sololá	701	Sololá	3	Barraneche	8	Agosto	2023-08-23T00:00:00	2024-11-06T11:00:00	3	Temperatura mínima	17.3
45020	7	Sololá	701	Sololá	3	Barraneche	8	Agosto	2023-08-23T00:00:00	2024-11-06T11:00:00	5	Humedad	45
45021	7	Sololá	701	Sololá	3	Barraneche	8	Agosto	2023-08-23T00:00:00	2024-11-06T11:00:00	6	Velocidad del viento	9.7
45022	7	Sololá	701	Sololá	3	Barraneche	8	Agosto	2023-08-23T00:00:00	2024-11-06T11:00:00	7	Dirección del viento	9.66
45023	7	Sololá	701	Sololá	3	Barraneche	8	Agosto	2023-08-23T00:00:00	2024-11-06T11:00:00	1	Precipitación	0
45024	7	Sololá	701	Sololá	3	Barraneche	8	Agosto	2023-08-23T00:00:00	2024-11-06T11:00:00	8	Radiación solar	472
45025	7	Sololá	701	Sololá	3	Barraneche	8	Agosto	2023-08-23T00:00:00	2024-11-06T12:00:00	2	Temperatura media	17.9
45026	7	Sololá	701	Sololá	3	Barraneche	8	Agosto	2023-08-23T00:00:00	2024-11-06T12:00:00	4	Temperatura máxima	18.3
45027	7	Sololá	701	Sololá	3	Barraneche	8	Agosto	2023-08-23T00:00:00	2024-11-06T12:00:00	3	Temperatura mínima	17.9
45028	7	Sololá	701	Sololá	3	Barraneche	8	Agosto	2023-08-23T00:00:00	2024-11-06T12:00:00	5	Humedad	46
45029	7	Sololá	701	Sololá	3	Barraneche	8	Agosto	2023-08-23T00:00:00	2024-11-06T12:00:00	6	Velocidad del viento	11.3
45030	7	Sololá	701	Sololá	3	Barraneche	8	Agosto	2023-08-23T00:00:00	2024-11-06T12:00:00	7	Dirección del viento	11.27
45031	7	Sololá	701	Sololá	3	Barraneche	8	Agosto	2023-08-23T00:00:00	2024-11-06T12:00:00	1	Precipitación	0
45032	7	Sololá	701	Sololá	3	Barraneche	8	Agosto	2023-08-23T00:00:00	2024-11-06T12:00:00	8	Radiación solar	584
45033	7	Sololá	701	Sololá	3	Barraneche	8	Agosto	2023-08-23T00:00:00	2024-11-06T13:00:00	2	Temperatura media	18.4
45034	7	Sololá	701	Sololá	3	Barraneche	8	Agosto	2023-08-23T00:00:00	2024-11-06T13:00:00	4	Temperatura máxima	18.6
45035	7	Sololá	701	Sololá	3	Barraneche	8	Agosto	2023-08-23T00:00:00	2024-11-06T13:00:00	3	Temperatura mínima	17.8
45036	7	Sololá	701	Sololá	3	Barraneche	8	Agosto	2023-08-23T00:00:00	2024-11-06T13:00:00	5	Humedad	51
45037	7	Sololá	701	Sololá	3	Barraneche	8	Agosto	2023-08-23T00:00:00	2024-11-06T13:00:00	6	Velocidad del viento	11.3
45038	7	Sololá	701	Sololá	3	Barraneche	8	Agosto	2023-08-23T00:00:00	2024-11-06T13:00:00	7	Dirección del viento	11.27
45039	7	Sololá	701	Sololá	3	Barraneche	8	Agosto	2023-08-23T00:00:00	2024-11-06T13:00:00	1	Precipitación	0
45040	7	Sololá	701	Sololá	3	Barraneche	8	Agosto	2023-08-23T00:00:00	2024-11-06T13:00:00	8	Radiación solar	622
45041	7	Sololá	701	Sololá	3	Barraneche	8	Agosto	2023-08-23T00:00:00	2024-11-06T14:00:00	2	Temperatura media	17.4
45042	7	Sololá	701	Sololá	3	Barraneche	8	Agosto	2023-08-23T00:00:00	2024-11-06T14:00:00	4	Temperatura máxima	18.4
45043	7	Sololá	701	Sololá	3	Barraneche	8	Agosto	2023-08-23T00:00:00	2024-11-06T14:00:00	3	Temperatura mínima	17.4
45044	7	Sololá	701	Sololá	3	Barraneche	8	Agosto	2023-08-23T00:00:00	2024-11-06T14:00:00	5	Humedad	56
45045	7	Sololá	701	Sololá	3	Barraneche	8	Agosto	2023-08-23T00:00:00	2024-11-06T14:00:00	6	Velocidad del viento	11.3
45046	7	Sololá	701	Sololá	3	Barraneche	8	Agosto	2023-08-23T00:00:00	2024-11-06T14:00:00	7	Dirección del viento	11.27
45047	7	Sololá	701	Sololá	3	Barraneche	8	Agosto	2023-08-23T00:00:00	2024-11-06T14:00:00	1	Precipitación	0
45048	7	Sololá	701	Sololá	3	Barraneche	8	Agosto	2023-08-23T00:00:00	2024-11-06T14:00:00	8	Radiación solar	536
45049	7	Sololá	701	Sololá	3	Barraneche	8	Agosto	2023-08-23T00:00:00	2024-11-06T15:00:00	2	Temperatura media	17.6
45050	7	Sololá	701	Sololá	3	Barraneche	8	Agosto	2023-08-23T00:00:00	2024-11-06T15:00:00	4	Temperatura máxima	17.6
45051	7	Sololá	701	Sololá	3	Barraneche	8	Agosto	2023-08-23T00:00:00	2024-11-06T15:00:00	3	Temperatura mínima	16.9
45052	7	Sololá	701	Sololá	3	Barraneche	8	Agosto	2023-08-23T00:00:00	2024-11-06T15:00:00	5	Humedad	55
45053	7	Sololá	701	Sololá	3	Barraneche	8	Agosto	2023-08-23T00:00:00	2024-11-06T15:00:00	6	Velocidad del viento	9.7
45054	7	Sololá	701	Sololá	3	Barraneche	8	Agosto	2023-08-23T00:00:00	2024-11-06T15:00:00	7	Dirección del viento	9.66
45055	7	Sololá	701	Sololá	3	Barraneche	8	Agosto	2023-08-23T00:00:00	2024-11-06T15:00:00	1	Precipitación	0
45056	7	Sololá	701	Sololá	3	Barraneche	8	Agosto	2023-08-23T00:00:00	2024-11-06T15:00:00	8	Radiación solar	475
45057	7	Sololá	701	Sololá	3	Barraneche	8	Agosto	2023-08-23T00:00:00	2024-11-06T16:00:00	2	Temperatura media	17.6
45058	7	Sololá	701	Sololá	3	Barraneche	8	Agosto	2023-08-23T00:00:00	2024-11-06T16:00:00	4	Temperatura máxima	17.8
45059	7	Sololá	701	Sololá	3	Barraneche	8	Agosto	2023-08-23T00:00:00	2024-11-06T16:00:00	3	Temperatura mínima	17.4
45060	7	Sololá	701	Sololá	3	Barraneche	8	Agosto	2023-08-23T00:00:00	2024-11-06T16:00:00	5	Humedad	52
45061	7	Sololá	701	Sololá	3	Barraneche	8	Agosto	2023-08-23T00:00:00	2024-11-06T16:00:00	6	Velocidad del viento	11.3
45062	7	Sololá	701	Sololá	3	Barraneche	8	Agosto	2023-08-23T00:00:00	2024-11-06T16:00:00	7	Dirección del viento	11.27
45063	7	Sololá	701	Sololá	3	Barraneche	8	Agosto	2023-08-23T00:00:00	2024-11-06T16:00:00	1	Precipitación	0
45064	7	Sololá	701	Sololá	3	Barraneche	8	Agosto	2023-08-23T00:00:00	2024-11-06T16:00:00	8	Radiación solar	347
45065	7	Sololá	701	Sololá	3	Barraneche	8	Agosto	2023-08-23T00:00:00	2024-11-06T17:00:00	2	Temperatura media	17.2
45066	7	Sololá	701	Sololá	3	Barraneche	8	Agosto	2023-08-23T00:00:00	2024-11-06T17:00:00	4	Temperatura máxima	17.7
45067	7	Sololá	701	Sololá	3	Barraneche	8	Agosto	2023-08-23T00:00:00	2024-11-06T17:00:00	3	Temperatura mínima	17.2
45068	7	Sololá	701	Sololá	3	Barraneche	8	Agosto	2023-08-23T00:00:00	2024-11-06T17:00:00	5	Humedad	53
45069	7	Sololá	701	Sololá	3	Barraneche	8	Agosto	2023-08-23T00:00:00	2024-11-06T17:00:00	6	Velocidad del viento	8
45070	7	Sololá	701	Sololá	3	Barraneche	8	Agosto	2023-08-23T00:00:00	2024-11-06T17:00:00	7	Dirección del viento	8.05
45071	7	Sololá	701	Sololá	3	Barraneche	8	Agosto	2023-08-23T00:00:00	2024-11-06T17:00:00	1	Precipitación	0
45072	7	Sololá	701	Sololá	3	Barraneche	8	Agosto	2023-08-23T00:00:00	2024-11-06T17:00:00	8	Radiación solar	209
45073	7	Sololá	701	Sololá	3	Barraneche	8	Agosto	2023-08-23T00:00:00	2024-11-06T18:00:00	2	Temperatura media	16.1
45074	7	Sololá	701	Sololá	3	Barraneche	8	Agosto	2023-08-23T00:00:00	2024-11-06T18:00:00	4	Temperatura máxima	17.3
45075	7	Sololá	701	Sololá	3	Barraneche	8	Agosto	2023-08-23T00:00:00	2024-11-06T18:00:00	3	Temperatura mínima	16.1
45076	7	Sololá	701	Sololá	3	Barraneche	8	Agosto	2023-08-23T00:00:00	2024-11-06T18:00:00	5	Humedad	63
45077	7	Sololá	701	Sololá	3	Barraneche	8	Agosto	2023-08-23T00:00:00	2024-11-06T18:00:00	6	Velocidad del viento	3.2
45078	7	Sololá	701	Sololá	3	Barraneche	8	Agosto	2023-08-23T00:00:00	2024-11-06T18:00:00	7	Dirección del viento	3.22
45079	7	Sololá	701	Sololá	3	Barraneche	8	Agosto	2023-08-23T00:00:00	2024-11-06T18:00:00	1	Precipitación	0
45080	7	Sololá	701	Sololá	3	Barraneche	8	Agosto	2023-08-23T00:00:00	2024-11-06T18:00:00	8	Radiación solar	75
45081	7	Sololá	701	Sololá	3	Barraneche	8	Agosto	2023-08-23T00:00:00	2024-11-06T19:00:00	2	Temperatura media	14.4
45082	7	Sololá	701	Sololá	3	Barraneche	8	Agosto	2023-08-23T00:00:00	2024-11-06T19:00:00	4	Temperatura máxima	16.1
45083	7	Sololá	701	Sololá	3	Barraneche	8	Agosto	2023-08-23T00:00:00	2024-11-06T19:00:00	3	Temperatura mínima	14.2
45084	7	Sololá	701	Sololá	3	Barraneche	8	Agosto	2023-08-23T00:00:00	2024-11-06T19:00:00	5	Humedad	67
45085	7	Sololá	701	Sololá	3	Barraneche	8	Agosto	2023-08-23T00:00:00	2024-11-06T19:00:00	6	Velocidad del viento	3.2
45086	7	Sololá	701	Sololá	3	Barraneche	8	Agosto	2023-08-23T00:00:00	2024-11-06T19:00:00	7	Dirección del viento	3.22
45087	7	Sololá	701	Sololá	3	Barraneche	8	Agosto	2023-08-23T00:00:00	2024-11-06T19:00:00	1	Precipitación	0
45088	7	Sololá	701	Sololá	3	Barraneche	8	Agosto	2023-08-23T00:00:00	2024-11-06T19:00:00	8	Radiación solar	0
45089	7	Sololá	701	Sololá	3	Barraneche	8	Agosto	2023-08-23T00:00:00	2024-11-06T20:00:00	2	Temperatura media	14.3
45090	7	Sololá	701	Sololá	3	Barraneche	8	Agosto	2023-08-23T00:00:00	2024-11-06T20:00:00	4	Temperatura máxima	15.3
45091	7	Sololá	701	Sololá	3	Barraneche	8	Agosto	2023-08-23T00:00:00	2024-11-06T20:00:00	3	Temperatura mínima	14.3
45092	7	Sololá	701	Sololá	3	Barraneche	8	Agosto	2023-08-23T00:00:00	2024-11-06T20:00:00	5	Humedad	67
45093	7	Sololá	701	Sololá	3	Barraneche	8	Agosto	2023-08-23T00:00:00	2024-11-06T20:00:00	6	Velocidad del viento	4.8
45094	7	Sololá	701	Sololá	3	Barraneche	8	Agosto	2023-08-23T00:00:00	2024-11-06T20:00:00	7	Dirección del viento	4.83
45095	7	Sololá	701	Sololá	3	Barraneche	8	Agosto	2023-08-23T00:00:00	2024-11-06T20:00:00	1	Precipitación	0
45096	7	Sololá	701	Sololá	3	Barraneche	8	Agosto	2023-08-23T00:00:00	2024-11-06T20:00:00	8	Radiación solar	0
45097	7	Sololá	701	Sololá	3	Barraneche	8	Agosto	2023-08-23T00:00:00	2024-11-06T21:00:00	2	Temperatura media	14.8
45098	7	Sololá	701	Sololá	3	Barraneche	8	Agosto	2023-08-23T00:00:00	2024-11-06T21:00:00	4	Temperatura máxima	14.8
45099	7	Sololá	701	Sololá	3	Barraneche	8	Agosto	2023-08-23T00:00:00	2024-11-06T21:00:00	3	Temperatura mínima	14.1
45100	7	Sololá	701	Sololá	3	Barraneche	8	Agosto	2023-08-23T00:00:00	2024-11-06T21:00:00	5	Humedad	66
45101	7	Sololá	701	Sololá	3	Barraneche	8	Agosto	2023-08-23T00:00:00	2024-11-06T21:00:00	6	Velocidad del viento	3.2
45102	7	Sololá	701	Sololá	3	Barraneche	8	Agosto	2023-08-23T00:00:00	2024-11-06T21:00:00	7	Dirección del viento	3.22
45103	7	Sololá	701	Sololá	3	Barraneche	8	Agosto	2023-08-23T00:00:00	2024-11-06T21:00:00	1	Precipitación	0
45104	7	Sololá	701	Sololá	3	Barraneche	8	Agosto	2023-08-23T00:00:00	2024-11-06T21:00:00	8	Radiación solar	0
45105	7	Sololá	701	Sololá	3	Barraneche	8	Agosto	2023-08-23T00:00:00	2024-11-06T22:00:00	2	Temperatura media	14.7
45106	7	Sololá	701	Sololá	3	Barraneche	8	Agosto	2023-08-23T00:00:00	2024-11-06T22:00:00	4	Temperatura máxima	15.1
45107	7	Sololá	701	Sololá	3	Barraneche	8	Agosto	2023-08-23T00:00:00	2024-11-06T22:00:00	3	Temperatura mínima	14.7
45108	7	Sololá	701	Sololá	3	Barraneche	8	Agosto	2023-08-23T00:00:00	2024-11-06T22:00:00	5	Humedad	64
45109	7	Sololá	701	Sololá	3	Barraneche	8	Agosto	2023-08-23T00:00:00	2024-11-06T22:00:00	6	Velocidad del viento	9.7
45110	7	Sololá	701	Sololá	3	Barraneche	8	Agosto	2023-08-23T00:00:00	2024-11-06T22:00:00	7	Dirección del viento	9.66
45111	7	Sololá	701	Sololá	3	Barraneche	8	Agosto	2023-08-23T00:00:00	2024-11-06T22:00:00	1	Precipitación	0
45112	7	Sololá	701	Sololá	3	Barraneche	8	Agosto	2023-08-23T00:00:00	2024-11-06T22:00:00	8	Radiación solar	0
45113	7	Sololá	701	Sololá	3	Barraneche	8	Agosto	2023-08-23T00:00:00	2024-11-06T23:00:00	2	Temperatura media	13.8
45114	7	Sololá	701	Sololá	3	Barraneche	8	Agosto	2023-08-23T00:00:00	2024-11-06T23:00:00	4	Temperatura máxima	14.7
45115	7	Sololá	701	Sololá	3	Barraneche	8	Agosto	2023-08-23T00:00:00	2024-11-06T23:00:00	3	Temperatura mínima	13.7
45116	7	Sololá	701	Sololá	3	Barraneche	8	Agosto	2023-08-23T00:00:00	2024-11-06T23:00:00	5	Humedad	68
45117	7	Sololá	701	Sololá	3	Barraneche	8	Agosto	2023-08-23T00:00:00	2024-11-06T23:00:00	6	Velocidad del viento	16.1
45118	7	Sololá	701	Sololá	3	Barraneche	8	Agosto	2023-08-23T00:00:00	2024-11-06T23:00:00	7	Dirección del viento	16.09
45119	7	Sololá	701	Sololá	3	Barraneche	8	Agosto	2023-08-23T00:00:00	2024-11-06T23:00:00	1	Precipitación	0
45120	7	Sololá	701	Sololá	3	Barraneche	8	Agosto	2023-08-23T00:00:00	2024-11-06T23:00:00	8	Radiación solar	0
45121	7	Sololá	701	Sololá	3	Barraneche	8	Agosto	2023-08-24T00:00:00	2024-11-06T00:00:00	2	Temperatura media	14.6
45122	7	Sololá	701	Sololá	3	Barraneche	8	Agosto	2023-08-24T00:00:00	2024-11-06T00:00:00	4	Temperatura máxima	15.2
45123	7	Sololá	701	Sololá	3	Barraneche	8	Agosto	2023-08-24T00:00:00	2024-11-06T00:00:00	3	Temperatura mínima	13.8
45124	7	Sololá	701	Sololá	3	Barraneche	8	Agosto	2023-08-24T00:00:00	2024-11-06T00:00:00	5	Humedad	63
45125	7	Sololá	701	Sololá	3	Barraneche	8	Agosto	2023-08-24T00:00:00	2024-11-06T00:00:00	6	Velocidad del viento	8
45126	7	Sololá	701	Sololá	3	Barraneche	8	Agosto	2023-08-24T00:00:00	2024-11-06T00:00:00	7	Dirección del viento	8.05
45127	7	Sololá	701	Sololá	3	Barraneche	8	Agosto	2023-08-24T00:00:00	2024-11-06T00:00:00	1	Precipitación	0
45128	7	Sololá	701	Sololá	3	Barraneche	8	Agosto	2023-08-24T00:00:00	2024-11-06T00:00:00	8	Radiación solar	0
45129	7	Sololá	701	Sololá	3	Barraneche	8	Agosto	2023-08-24T00:00:00	2024-11-06T01:00:00	2	Temperatura media	12.7
45130	7	Sololá	701	Sololá	3	Barraneche	8	Agosto	2023-08-24T00:00:00	2024-11-06T01:00:00	4	Temperatura máxima	14.7
45131	7	Sololá	701	Sololá	3	Barraneche	8	Agosto	2023-08-24T00:00:00	2024-11-06T01:00:00	3	Temperatura mínima	12.6
45132	7	Sololá	701	Sololá	3	Barraneche	8	Agosto	2023-08-24T00:00:00	2024-11-06T01:00:00	5	Humedad	71
45133	7	Sololá	701	Sololá	3	Barraneche	8	Agosto	2023-08-24T00:00:00	2024-11-06T01:00:00	6	Velocidad del viento	3.2
45134	7	Sololá	701	Sololá	3	Barraneche	8	Agosto	2023-08-24T00:00:00	2024-11-06T01:00:00	7	Dirección del viento	3.22
45135	7	Sololá	701	Sololá	3	Barraneche	8	Agosto	2023-08-24T00:00:00	2024-11-06T01:00:00	1	Precipitación	0
45136	7	Sololá	701	Sololá	3	Barraneche	8	Agosto	2023-08-24T00:00:00	2024-11-06T01:00:00	8	Radiación solar	0
45137	7	Sololá	701	Sololá	3	Barraneche	8	Agosto	2023-08-24T00:00:00	2024-11-06T02:00:00	2	Temperatura media	12.2
45138	7	Sololá	701	Sololá	3	Barraneche	8	Agosto	2023-08-24T00:00:00	2024-11-06T02:00:00	4	Temperatura máxima	12.7
45139	7	Sololá	701	Sololá	3	Barraneche	8	Agosto	2023-08-24T00:00:00	2024-11-06T02:00:00	3	Temperatura mínima	12.2
45140	7	Sololá	701	Sololá	3	Barraneche	8	Agosto	2023-08-24T00:00:00	2024-11-06T02:00:00	5	Humedad	70
45141	7	Sololá	701	Sololá	3	Barraneche	8	Agosto	2023-08-24T00:00:00	2024-11-06T02:00:00	6	Velocidad del viento	4.8
45142	7	Sololá	701	Sololá	3	Barraneche	8	Agosto	2023-08-24T00:00:00	2024-11-06T02:00:00	7	Dirección del viento	4.83
45143	7	Sololá	701	Sololá	3	Barraneche	8	Agosto	2023-08-24T00:00:00	2024-11-06T02:00:00	1	Precipitación	0
45144	7	Sololá	701	Sololá	3	Barraneche	8	Agosto	2023-08-24T00:00:00	2024-11-06T02:00:00	8	Radiación solar	0
45145	7	Sololá	701	Sololá	3	Barraneche	8	Agosto	2023-08-24T00:00:00	2024-11-06T03:00:00	2	Temperatura media	12
45146	7	Sololá	701	Sololá	3	Barraneche	8	Agosto	2023-08-24T00:00:00	2024-11-06T03:00:00	4	Temperatura máxima	12.2
45147	7	Sololá	701	Sololá	3	Barraneche	8	Agosto	2023-08-24T00:00:00	2024-11-06T03:00:00	3	Temperatura mínima	11.9
45148	7	Sololá	701	Sololá	3	Barraneche	8	Agosto	2023-08-24T00:00:00	2024-11-06T03:00:00	5	Humedad	71
45149	7	Sololá	701	Sololá	3	Barraneche	8	Agosto	2023-08-24T00:00:00	2024-11-06T03:00:00	6	Velocidad del viento	3.2
45150	7	Sololá	701	Sololá	3	Barraneche	8	Agosto	2023-08-24T00:00:00	2024-11-06T03:00:00	7	Dirección del viento	3.22
45151	7	Sololá	701	Sololá	3	Barraneche	8	Agosto	2023-08-24T00:00:00	2024-11-06T03:00:00	1	Precipitación	0
45152	7	Sololá	701	Sololá	3	Barraneche	8	Agosto	2023-08-24T00:00:00	2024-11-06T03:00:00	8	Radiación solar	0
45153	7	Sololá	701	Sololá	3	Barraneche	8	Agosto	2023-08-24T00:00:00	2024-11-06T04:00:00	2	Temperatura media	11.6
45154	7	Sololá	701	Sololá	3	Barraneche	8	Agosto	2023-08-24T00:00:00	2024-11-06T04:00:00	4	Temperatura máxima	12.1
45155	7	Sololá	701	Sololá	3	Barraneche	8	Agosto	2023-08-24T00:00:00	2024-11-06T04:00:00	3	Temperatura mínima	11.5
45156	7	Sololá	701	Sololá	3	Barraneche	8	Agosto	2023-08-24T00:00:00	2024-11-06T04:00:00	5	Humedad	72
45157	7	Sololá	701	Sololá	3	Barraneche	8	Agosto	2023-08-24T00:00:00	2024-11-06T04:00:00	6	Velocidad del viento	3.2
45158	7	Sololá	701	Sololá	3	Barraneche	8	Agosto	2023-08-24T00:00:00	2024-11-06T04:00:00	7	Dirección del viento	3.22
45159	7	Sololá	701	Sololá	3	Barraneche	8	Agosto	2023-08-24T00:00:00	2024-11-06T04:00:00	1	Precipitación	0
45160	7	Sololá	701	Sololá	3	Barraneche	8	Agosto	2023-08-24T00:00:00	2024-11-06T04:00:00	8	Radiación solar	0
45161	7	Sololá	701	Sololá	3	Barraneche	8	Agosto	2023-08-24T00:00:00	2024-11-06T05:00:00	2	Temperatura media	11.3
45162	7	Sololá	701	Sololá	3	Barraneche	8	Agosto	2023-08-24T00:00:00	2024-11-06T05:00:00	4	Temperatura máxima	11.6
45163	7	Sololá	701	Sololá	3	Barraneche	8	Agosto	2023-08-24T00:00:00	2024-11-06T05:00:00	3	Temperatura mínima	11.2
45164	7	Sololá	701	Sololá	3	Barraneche	8	Agosto	2023-08-24T00:00:00	2024-11-06T05:00:00	5	Humedad	72
45165	7	Sololá	701	Sololá	3	Barraneche	8	Agosto	2023-08-24T00:00:00	2024-11-06T05:00:00	6	Velocidad del viento	4.8
45166	7	Sololá	701	Sololá	3	Barraneche	8	Agosto	2023-08-24T00:00:00	2024-11-06T05:00:00	7	Dirección del viento	4.83
45167	7	Sololá	701	Sololá	3	Barraneche	8	Agosto	2023-08-24T00:00:00	2024-11-06T05:00:00	1	Precipitación	0
45168	7	Sololá	701	Sololá	3	Barraneche	8	Agosto	2023-08-24T00:00:00	2024-11-06T05:00:00	8	Radiación solar	0
45169	7	Sololá	701	Sololá	3	Barraneche	8	Agosto	2023-08-24T00:00:00	2024-11-06T06:00:00	2	Temperatura media	11.4
45170	7	Sololá	701	Sololá	3	Barraneche	8	Agosto	2023-08-24T00:00:00	2024-11-06T06:00:00	4	Temperatura máxima	11.5
45171	7	Sololá	701	Sololá	3	Barraneche	8	Agosto	2023-08-24T00:00:00	2024-11-06T06:00:00	3	Temperatura mínima	11.3
45172	7	Sololá	701	Sololá	3	Barraneche	8	Agosto	2023-08-24T00:00:00	2024-11-06T06:00:00	5	Humedad	71
45173	7	Sololá	701	Sololá	3	Barraneche	8	Agosto	2023-08-24T00:00:00	2024-11-06T06:00:00	6	Velocidad del viento	3.2
45174	7	Sololá	701	Sololá	3	Barraneche	8	Agosto	2023-08-24T00:00:00	2024-11-06T06:00:00	7	Dirección del viento	3.22
45175	7	Sololá	701	Sololá	3	Barraneche	8	Agosto	2023-08-24T00:00:00	2024-11-06T06:00:00	1	Precipitación	0
45176	7	Sololá	701	Sololá	3	Barraneche	8	Agosto	2023-08-24T00:00:00	2024-11-06T06:00:00	8	Radiación solar	0
45177	7	Sololá	701	Sololá	3	Barraneche	8	Agosto	2023-08-24T00:00:00	2024-11-06T07:00:00	2	Temperatura media	12.2
45178	7	Sololá	701	Sololá	3	Barraneche	8	Agosto	2023-08-24T00:00:00	2024-11-06T07:00:00	4	Temperatura máxima	12.3
45179	7	Sololá	701	Sololá	3	Barraneche	8	Agosto	2023-08-24T00:00:00	2024-11-06T07:00:00	3	Temperatura mínima	11.4
45180	7	Sololá	701	Sololá	3	Barraneche	8	Agosto	2023-08-24T00:00:00	2024-11-06T07:00:00	5	Humedad	70
45181	7	Sololá	701	Sololá	3	Barraneche	8	Agosto	2023-08-24T00:00:00	2024-11-06T07:00:00	6	Velocidad del viento	1.6
45182	7	Sololá	701	Sololá	3	Barraneche	8	Agosto	2023-08-24T00:00:00	2024-11-06T07:00:00	7	Dirección del viento	1.61
45183	7	Sololá	701	Sololá	3	Barraneche	8	Agosto	2023-08-24T00:00:00	2024-11-06T07:00:00	1	Precipitación	0
45184	7	Sololá	701	Sololá	3	Barraneche	8	Agosto	2023-08-24T00:00:00	2024-11-06T07:00:00	8	Radiación solar	39
45185	7	Sololá	701	Sololá	3	Barraneche	8	Agosto	2023-08-24T00:00:00	2024-11-06T08:00:00	2	Temperatura media	14.2
45186	7	Sololá	701	Sololá	3	Barraneche	8	Agosto	2023-08-24T00:00:00	2024-11-06T08:00:00	4	Temperatura máxima	14.2
45187	7	Sololá	701	Sololá	3	Barraneche	8	Agosto	2023-08-24T00:00:00	2024-11-06T08:00:00	3	Temperatura mínima	12.3
45188	7	Sololá	701	Sololá	3	Barraneche	8	Agosto	2023-08-24T00:00:00	2024-11-06T08:00:00	5	Humedad	66
45189	7	Sololá	701	Sololá	3	Barraneche	8	Agosto	2023-08-24T00:00:00	2024-11-06T08:00:00	6	Velocidad del viento	1.6
45190	7	Sololá	701	Sololá	3	Barraneche	8	Agosto	2023-08-24T00:00:00	2024-11-06T08:00:00	7	Dirección del viento	1.61
45191	7	Sololá	701	Sololá	3	Barraneche	8	Agosto	2023-08-24T00:00:00	2024-11-06T08:00:00	1	Precipitación	0
45192	7	Sololá	701	Sololá	3	Barraneche	8	Agosto	2023-08-24T00:00:00	2024-11-06T08:00:00	8	Radiación solar	152
45193	7	Sololá	701	Sololá	3	Barraneche	8	Agosto	2023-08-24T00:00:00	2024-11-06T09:00:00	2	Temperatura media	15.6
45194	7	Sololá	701	Sololá	3	Barraneche	8	Agosto	2023-08-24T00:00:00	2024-11-06T09:00:00	4	Temperatura máxima	15.6
45195	7	Sololá	701	Sololá	3	Barraneche	8	Agosto	2023-08-24T00:00:00	2024-11-06T09:00:00	3	Temperatura mínima	14.2
45196	7	Sololá	701	Sololá	3	Barraneche	8	Agosto	2023-08-24T00:00:00	2024-11-06T09:00:00	5	Humedad	61
45197	7	Sololá	701	Sololá	3	Barraneche	8	Agosto	2023-08-24T00:00:00	2024-11-06T09:00:00	6	Velocidad del viento	0
45198	7	Sololá	701	Sololá	3	Barraneche	8	Agosto	2023-08-24T00:00:00	2024-11-06T09:00:00	7	Dirección del viento	0
45199	7	Sololá	701	Sololá	3	Barraneche	8	Agosto	2023-08-24T00:00:00	2024-11-06T09:00:00	1	Precipitación	0
45200	7	Sololá	701	Sololá	3	Barraneche	8	Agosto	2023-08-24T00:00:00	2024-11-06T09:00:00	8	Radiación solar	201
45201	7	Sololá	701	Sololá	3	Barraneche	8	Agosto	2023-08-24T00:00:00	2024-11-06T10:00:00	2	Temperatura media	16.4
45202	7	Sololá	701	Sololá	3	Barraneche	8	Agosto	2023-08-24T00:00:00	2024-11-06T10:00:00	4	Temperatura máxima	16.4
45203	7	Sololá	701	Sololá	3	Barraneche	8	Agosto	2023-08-24T00:00:00	2024-11-06T10:00:00	3	Temperatura mínima	15.6
45204	7	Sololá	701	Sololá	3	Barraneche	8	Agosto	2023-08-24T00:00:00	2024-11-06T10:00:00	5	Humedad	59
45205	7	Sololá	701	Sololá	3	Barraneche	8	Agosto	2023-08-24T00:00:00	2024-11-06T10:00:00	6	Velocidad del viento	1.6
45206	7	Sololá	701	Sololá	3	Barraneche	8	Agosto	2023-08-24T00:00:00	2024-11-06T10:00:00	7	Dirección del viento	1.61
45207	7	Sololá	701	Sololá	3	Barraneche	8	Agosto	2023-08-24T00:00:00	2024-11-06T10:00:00	1	Precipitación	0
45208	7	Sololá	701	Sololá	3	Barraneche	8	Agosto	2023-08-24T00:00:00	2024-11-06T10:00:00	8	Radiación solar	278
45209	7	Sololá	701	Sololá	3	Barraneche	8	Agosto	2023-08-24T00:00:00	2024-11-06T11:00:00	2	Temperatura media	17.3
45210	7	Sololá	701	Sololá	3	Barraneche	8	Agosto	2023-08-24T00:00:00	2024-11-06T11:00:00	4	Temperatura máxima	17.4
45211	7	Sololá	701	Sololá	3	Barraneche	8	Agosto	2023-08-24T00:00:00	2024-11-06T11:00:00	3	Temperatura mínima	16.4
45212	7	Sololá	701	Sololá	3	Barraneche	8	Agosto	2023-08-24T00:00:00	2024-11-06T11:00:00	5	Humedad	58
45213	7	Sololá	701	Sololá	3	Barraneche	8	Agosto	2023-08-24T00:00:00	2024-11-06T11:00:00	6	Velocidad del viento	3.2
45214	7	Sololá	701	Sololá	3	Barraneche	8	Agosto	2023-08-24T00:00:00	2024-11-06T11:00:00	7	Dirección del viento	3.22
45215	7	Sololá	701	Sololá	3	Barraneche	8	Agosto	2023-08-24T00:00:00	2024-11-06T11:00:00	1	Precipitación	0
45216	7	Sololá	701	Sololá	3	Barraneche	8	Agosto	2023-08-24T00:00:00	2024-11-06T11:00:00	8	Radiación solar	374
45217	7	Sololá	701	Sololá	3	Barraneche	8	Agosto	2023-08-24T00:00:00	2024-11-06T12:00:00	2	Temperatura media	17
45218	7	Sololá	701	Sololá	3	Barraneche	8	Agosto	2023-08-24T00:00:00	2024-11-06T12:00:00	4	Temperatura máxima	17.3
45219	7	Sololá	701	Sololá	3	Barraneche	8	Agosto	2023-08-24T00:00:00	2024-11-06T12:00:00	3	Temperatura mínima	16.3
45220	7	Sololá	701	Sololá	3	Barraneche	8	Agosto	2023-08-24T00:00:00	2024-11-06T12:00:00	5	Humedad	66
45221	7	Sololá	701	Sololá	3	Barraneche	8	Agosto	2023-08-24T00:00:00	2024-11-06T12:00:00	6	Velocidad del viento	12.9
45222	7	Sololá	701	Sololá	3	Barraneche	8	Agosto	2023-08-24T00:00:00	2024-11-06T12:00:00	7	Dirección del viento	12.87
45223	7	Sololá	701	Sololá	3	Barraneche	8	Agosto	2023-08-24T00:00:00	2024-11-06T12:00:00	1	Precipitación	0
45224	7	Sololá	701	Sololá	3	Barraneche	8	Agosto	2023-08-24T00:00:00	2024-11-06T12:00:00	8	Radiación solar	486
45225	7	Sololá	701	Sololá	3	Barraneche	8	Agosto	2023-08-24T00:00:00	2024-11-06T13:00:00	2	Temperatura media	16
45226	7	Sololá	701	Sololá	3	Barraneche	8	Agosto	2023-08-24T00:00:00	2024-11-06T13:00:00	4	Temperatura máxima	17.3
45227	7	Sololá	701	Sololá	3	Barraneche	8	Agosto	2023-08-24T00:00:00	2024-11-06T13:00:00	3	Temperatura mínima	15.9
45228	7	Sololá	701	Sololá	3	Barraneche	8	Agosto	2023-08-24T00:00:00	2024-11-06T13:00:00	5	Humedad	68
45229	7	Sololá	701	Sololá	3	Barraneche	8	Agosto	2023-08-24T00:00:00	2024-11-06T13:00:00	6	Velocidad del viento	12.9
45230	7	Sololá	701	Sololá	3	Barraneche	8	Agosto	2023-08-24T00:00:00	2024-11-06T13:00:00	7	Dirección del viento	12.87
45231	7	Sololá	701	Sololá	3	Barraneche	8	Agosto	2023-08-24T00:00:00	2024-11-06T13:00:00	1	Precipitación	0
45232	7	Sololá	701	Sololá	3	Barraneche	8	Agosto	2023-08-24T00:00:00	2024-11-06T13:00:00	8	Radiación solar	362
45233	7	Sololá	701	Sololá	3	Barraneche	8	Agosto	2023-08-24T00:00:00	2024-11-06T14:00:00	2	Temperatura media	14.8
45234	7	Sololá	701	Sololá	3	Barraneche	8	Agosto	2023-08-24T00:00:00	2024-11-06T14:00:00	4	Temperatura máxima	16
45235	7	Sololá	701	Sololá	3	Barraneche	8	Agosto	2023-08-24T00:00:00	2024-11-06T14:00:00	3	Temperatura mínima	14.8
45236	7	Sololá	701	Sololá	3	Barraneche	8	Agosto	2023-08-24T00:00:00	2024-11-06T14:00:00	5	Humedad	73
45237	7	Sololá	701	Sololá	3	Barraneche	8	Agosto	2023-08-24T00:00:00	2024-11-06T14:00:00	6	Velocidad del viento	8
45238	7	Sololá	701	Sololá	3	Barraneche	8	Agosto	2023-08-24T00:00:00	2024-11-06T14:00:00	7	Dirección del viento	8.05
45239	7	Sololá	701	Sololá	3	Barraneche	8	Agosto	2023-08-24T00:00:00	2024-11-06T14:00:00	1	Precipitación	0.2
45240	7	Sololá	701	Sololá	3	Barraneche	8	Agosto	2023-08-24T00:00:00	2024-11-06T14:00:00	8	Radiación solar	100
45241	7	Sololá	701	Sololá	3	Barraneche	8	Agosto	2023-08-24T00:00:00	2024-11-06T15:00:00	2	Temperatura media	14.4
45242	7	Sololá	701	Sololá	3	Barraneche	8	Agosto	2023-08-24T00:00:00	2024-11-06T15:00:00	4	Temperatura máxima	14.8
45243	7	Sololá	701	Sololá	3	Barraneche	8	Agosto	2023-08-24T00:00:00	2024-11-06T15:00:00	3	Temperatura mínima	14.4
45244	7	Sololá	701	Sololá	3	Barraneche	8	Agosto	2023-08-24T00:00:00	2024-11-06T15:00:00	5	Humedad	78
45245	7	Sololá	701	Sololá	3	Barraneche	8	Agosto	2023-08-24T00:00:00	2024-11-06T15:00:00	6	Velocidad del viento	3.2
45246	7	Sololá	701	Sololá	3	Barraneche	8	Agosto	2023-08-24T00:00:00	2024-11-06T15:00:00	7	Dirección del viento	3.22
45247	7	Sololá	701	Sololá	3	Barraneche	8	Agosto	2023-08-24T00:00:00	2024-11-06T15:00:00	1	Precipitación	3.8
45248	7	Sololá	701	Sololá	3	Barraneche	8	Agosto	2023-08-24T00:00:00	2024-11-06T15:00:00	8	Radiación solar	66
45249	7	Sololá	701	Sololá	3	Barraneche	8	Agosto	2023-08-24T00:00:00	2024-11-06T16:00:00	2	Temperatura media	14.7
45250	7	Sololá	701	Sololá	3	Barraneche	8	Agosto	2023-08-24T00:00:00	2024-11-06T16:00:00	4	Temperatura máxima	14.7
45251	7	Sololá	701	Sololá	3	Barraneche	8	Agosto	2023-08-24T00:00:00	2024-11-06T16:00:00	3	Temperatura mínima	14.4
45252	7	Sololá	701	Sololá	3	Barraneche	8	Agosto	2023-08-24T00:00:00	2024-11-06T16:00:00	5	Humedad	75
45253	7	Sololá	701	Sololá	3	Barraneche	8	Agosto	2023-08-24T00:00:00	2024-11-06T16:00:00	6	Velocidad del viento	1.6
45254	7	Sololá	701	Sololá	3	Barraneche	8	Agosto	2023-08-24T00:00:00	2024-11-06T16:00:00	7	Dirección del viento	1.61
45255	7	Sololá	701	Sololá	3	Barraneche	8	Agosto	2023-08-24T00:00:00	2024-11-06T16:00:00	1	Precipitación	2
45256	7	Sololá	701	Sololá	3	Barraneche	8	Agosto	2023-08-24T00:00:00	2024-11-06T16:00:00	8	Radiación solar	118
45257	7	Sololá	701	Sololá	3	Barraneche	8	Agosto	2023-08-24T00:00:00	2024-11-06T17:00:00	2	Temperatura media	14.6
45258	7	Sololá	701	Sololá	3	Barraneche	8	Agosto	2023-08-24T00:00:00	2024-11-06T17:00:00	4	Temperatura máxima	14.7
45259	7	Sololá	701	Sololá	3	Barraneche	8	Agosto	2023-08-24T00:00:00	2024-11-06T17:00:00	3	Temperatura mínima	14.5
45260	7	Sololá	701	Sololá	3	Barraneche	8	Agosto	2023-08-24T00:00:00	2024-11-06T17:00:00	5	Humedad	74
45261	7	Sololá	701	Sololá	3	Barraneche	8	Agosto	2023-08-24T00:00:00	2024-11-06T17:00:00	6	Velocidad del viento	1.6
45262	7	Sololá	701	Sololá	3	Barraneche	8	Agosto	2023-08-24T00:00:00	2024-11-06T17:00:00	7	Dirección del viento	1.61
45263	7	Sololá	701	Sololá	3	Barraneche	8	Agosto	2023-08-24T00:00:00	2024-11-06T17:00:00	1	Precipitación	0
45264	7	Sololá	701	Sololá	3	Barraneche	8	Agosto	2023-08-24T00:00:00	2024-11-06T17:00:00	8	Radiación solar	77
45265	7	Sololá	701	Sololá	3	Barraneche	8	Agosto	2023-08-24T00:00:00	2024-11-06T18:00:00	2	Temperatura media	14.6
45266	7	Sololá	701	Sololá	3	Barraneche	8	Agosto	2023-08-24T00:00:00	2024-11-06T18:00:00	4	Temperatura máxima	14.6
45267	7	Sololá	701	Sololá	3	Barraneche	8	Agosto	2023-08-24T00:00:00	2024-11-06T18:00:00	3	Temperatura mínima	14.4
45268	7	Sololá	701	Sololá	3	Barraneche	8	Agosto	2023-08-24T00:00:00	2024-11-06T18:00:00	5	Humedad	76
45269	7	Sololá	701	Sololá	3	Barraneche	8	Agosto	2023-08-24T00:00:00	2024-11-06T18:00:00	6	Velocidad del viento	3.2
45270	7	Sololá	701	Sololá	3	Barraneche	8	Agosto	2023-08-24T00:00:00	2024-11-06T18:00:00	7	Dirección del viento	3.22
45271	7	Sololá	701	Sololá	3	Barraneche	8	Agosto	2023-08-24T00:00:00	2024-11-06T18:00:00	1	Precipitación	0
45272	7	Sololá	701	Sololá	3	Barraneche	8	Agosto	2023-08-24T00:00:00	2024-11-06T18:00:00	8	Radiación solar	50
45273	7	Sololá	701	Sololá	3	Barraneche	8	Agosto	2023-08-24T00:00:00	2024-11-06T19:00:00	2	Temperatura media	13.5
45274	7	Sololá	701	Sololá	3	Barraneche	8	Agosto	2023-08-24T00:00:00	2024-11-06T19:00:00	4	Temperatura máxima	14.6
45275	7	Sololá	701	Sololá	3	Barraneche	8	Agosto	2023-08-24T00:00:00	2024-11-06T19:00:00	3	Temperatura mínima	13.4
45276	7	Sololá	701	Sololá	3	Barraneche	8	Agosto	2023-08-24T00:00:00	2024-11-06T19:00:00	5	Humedad	77
45277	7	Sololá	701	Sololá	3	Barraneche	8	Agosto	2023-08-24T00:00:00	2024-11-06T19:00:00	6	Velocidad del viento	3.2
45278	7	Sololá	701	Sololá	3	Barraneche	8	Agosto	2023-08-24T00:00:00	2024-11-06T19:00:00	7	Dirección del viento	3.22
45279	7	Sololá	701	Sololá	3	Barraneche	8	Agosto	2023-08-24T00:00:00	2024-11-06T19:00:00	1	Precipitación	0
45280	7	Sololá	701	Sololá	3	Barraneche	8	Agosto	2023-08-24T00:00:00	2024-11-06T19:00:00	8	Radiación solar	0
45281	7	Sololá	701	Sololá	3	Barraneche	8	Agosto	2023-08-24T00:00:00	2024-11-06T20:00:00	2	Temperatura media	13.1
45282	7	Sololá	701	Sololá	3	Barraneche	8	Agosto	2023-08-24T00:00:00	2024-11-06T20:00:00	4	Temperatura máxima	13.5
45283	7	Sololá	701	Sololá	3	Barraneche	8	Agosto	2023-08-24T00:00:00	2024-11-06T20:00:00	3	Temperatura mínima	13
45284	7	Sololá	701	Sololá	3	Barraneche	8	Agosto	2023-08-24T00:00:00	2024-11-06T20:00:00	5	Humedad	76
45285	7	Sololá	701	Sololá	3	Barraneche	8	Agosto	2023-08-24T00:00:00	2024-11-06T20:00:00	6	Velocidad del viento	4.8
45286	7	Sololá	701	Sololá	3	Barraneche	8	Agosto	2023-08-24T00:00:00	2024-11-06T20:00:00	7	Dirección del viento	4.83
45287	7	Sololá	701	Sololá	3	Barraneche	8	Agosto	2023-08-24T00:00:00	2024-11-06T20:00:00	1	Precipitación	0
45288	7	Sololá	701	Sololá	3	Barraneche	8	Agosto	2023-08-24T00:00:00	2024-11-06T20:00:00	8	Radiación solar	0
45289	7	Sololá	701	Sololá	3	Barraneche	8	Agosto	2023-08-24T00:00:00	2024-11-06T21:00:00	2	Temperatura media	13.2
45290	7	Sololá	701	Sololá	3	Barraneche	8	Agosto	2023-08-24T00:00:00	2024-11-06T21:00:00	4	Temperatura máxima	13.2
45291	7	Sololá	701	Sololá	3	Barraneche	8	Agosto	2023-08-24T00:00:00	2024-11-06T21:00:00	3	Temperatura mínima	12.9
45292	7	Sololá	701	Sololá	3	Barraneche	8	Agosto	2023-08-24T00:00:00	2024-11-06T21:00:00	5	Humedad	75
45293	7	Sololá	701	Sololá	3	Barraneche	8	Agosto	2023-08-24T00:00:00	2024-11-06T21:00:00	6	Velocidad del viento	4.8
45294	7	Sololá	701	Sololá	3	Barraneche	8	Agosto	2023-08-24T00:00:00	2024-11-06T21:00:00	7	Dirección del viento	4.83
45295	7	Sololá	701	Sololá	3	Barraneche	8	Agosto	2023-08-24T00:00:00	2024-11-06T21:00:00	1	Precipitación	0
45296	7	Sololá	701	Sololá	3	Barraneche	8	Agosto	2023-08-24T00:00:00	2024-11-06T21:00:00	8	Radiación solar	0
45297	7	Sololá	701	Sololá	3	Barraneche	8	Agosto	2023-08-24T00:00:00	2024-11-06T22:00:00	2	Temperatura media	12.5
45298	7	Sololá	701	Sololá	3	Barraneche	8	Agosto	2023-08-24T00:00:00	2024-11-06T22:00:00	4	Temperatura máxima	13.2
45299	7	Sololá	701	Sololá	3	Barraneche	8	Agosto	2023-08-24T00:00:00	2024-11-06T22:00:00	3	Temperatura mínima	12.5
45300	7	Sololá	701	Sololá	3	Barraneche	8	Agosto	2023-08-24T00:00:00	2024-11-06T22:00:00	5	Humedad	74
45301	7	Sololá	701	Sololá	3	Barraneche	8	Agosto	2023-08-24T00:00:00	2024-11-06T22:00:00	6	Velocidad del viento	4.8
45302	7	Sololá	701	Sololá	3	Barraneche	8	Agosto	2023-08-24T00:00:00	2024-11-06T22:00:00	7	Dirección del viento	4.83
45303	7	Sololá	701	Sololá	3	Barraneche	8	Agosto	2023-08-24T00:00:00	2024-11-06T22:00:00	1	Precipitación	0
45304	7	Sololá	701	Sololá	3	Barraneche	8	Agosto	2023-08-24T00:00:00	2024-11-06T22:00:00	8	Radiación solar	0
45305	7	Sololá	701	Sololá	3	Barraneche	8	Agosto	2023-08-24T00:00:00	2024-11-06T23:00:00	2	Temperatura media	11.5
45306	7	Sololá	701	Sololá	3	Barraneche	8	Agosto	2023-08-24T00:00:00	2024-11-06T23:00:00	4	Temperatura máxima	12.5
45307	7	Sololá	701	Sololá	3	Barraneche	8	Agosto	2023-08-24T00:00:00	2024-11-06T23:00:00	3	Temperatura mínima	11.5
45308	7	Sololá	701	Sololá	3	Barraneche	8	Agosto	2023-08-24T00:00:00	2024-11-06T23:00:00	5	Humedad	78
45309	7	Sololá	701	Sololá	3	Barraneche	8	Agosto	2023-08-24T00:00:00	2024-11-06T23:00:00	6	Velocidad del viento	3.2
45310	7	Sololá	701	Sololá	3	Barraneche	8	Agosto	2023-08-24T00:00:00	2024-11-06T23:00:00	7	Dirección del viento	3.22
45311	7	Sololá	701	Sololá	3	Barraneche	8	Agosto	2023-08-24T00:00:00	2024-11-06T23:00:00	1	Precipitación	0
45312	7	Sololá	701	Sololá	3	Barraneche	8	Agosto	2023-08-24T00:00:00	2024-11-06T23:00:00	8	Radiación solar	0
45313	7	Sololá	701	Sololá	3	Barraneche	8	Agosto	2023-08-25T00:00:00	2024-11-06T00:00:00	2	Temperatura media	11.2
45314	7	Sololá	701	Sololá	3	Barraneche	8	Agosto	2023-08-25T00:00:00	2024-11-06T00:00:00	4	Temperatura máxima	11.5
45315	7	Sololá	701	Sololá	3	Barraneche	8	Agosto	2023-08-25T00:00:00	2024-11-06T00:00:00	3	Temperatura mínima	11.2
45316	7	Sololá	701	Sololá	3	Barraneche	8	Agosto	2023-08-25T00:00:00	2024-11-06T00:00:00	5	Humedad	79
45317	7	Sololá	701	Sololá	3	Barraneche	8	Agosto	2023-08-25T00:00:00	2024-11-06T00:00:00	6	Velocidad del viento	3.2
45318	7	Sololá	701	Sololá	3	Barraneche	8	Agosto	2023-08-25T00:00:00	2024-11-06T00:00:00	7	Dirección del viento	3.22
45319	7	Sololá	701	Sololá	3	Barraneche	8	Agosto	2023-08-25T00:00:00	2024-11-06T00:00:00	1	Precipitación	0
45320	7	Sololá	701	Sololá	3	Barraneche	8	Agosto	2023-08-25T00:00:00	2024-11-06T00:00:00	8	Radiación solar	0
45321	7	Sololá	701	Sololá	3	Barraneche	8	Agosto	2023-08-25T00:00:00	2024-11-06T01:00:00	2	Temperatura media	11.6
45322	7	Sololá	701	Sololá	3	Barraneche	8	Agosto	2023-08-25T00:00:00	2024-11-06T01:00:00	4	Temperatura máxima	11.6
45323	7	Sololá	701	Sololá	3	Barraneche	8	Agosto	2023-08-25T00:00:00	2024-11-06T01:00:00	3	Temperatura mínima	11.1
45324	7	Sololá	701	Sololá	3	Barraneche	8	Agosto	2023-08-25T00:00:00	2024-11-06T01:00:00	5	Humedad	81
45325	7	Sololá	701	Sololá	3	Barraneche	8	Agosto	2023-08-25T00:00:00	2024-11-06T01:00:00	6	Velocidad del viento	3.2
45326	7	Sololá	701	Sololá	3	Barraneche	8	Agosto	2023-08-25T00:00:00	2024-11-06T01:00:00	7	Dirección del viento	3.22
45327	7	Sololá	701	Sololá	3	Barraneche	8	Agosto	2023-08-25T00:00:00	2024-11-06T01:00:00	1	Precipitación	0
45328	7	Sololá	701	Sololá	3	Barraneche	8	Agosto	2023-08-25T00:00:00	2024-11-06T01:00:00	8	Radiación solar	0
45329	7	Sololá	701	Sololá	3	Barraneche	8	Agosto	2023-08-25T00:00:00	2024-11-06T02:00:00	2	Temperatura media	11.6
45330	7	Sololá	701	Sololá	3	Barraneche	8	Agosto	2023-08-25T00:00:00	2024-11-06T02:00:00	4	Temperatura máxima	11.7
45331	7	Sololá	701	Sololá	3	Barraneche	8	Agosto	2023-08-25T00:00:00	2024-11-06T02:00:00	3	Temperatura mínima	11.4
45332	7	Sololá	701	Sololá	3	Barraneche	8	Agosto	2023-08-25T00:00:00	2024-11-06T02:00:00	5	Humedad	81
45333	7	Sololá	701	Sololá	3	Barraneche	8	Agosto	2023-08-25T00:00:00	2024-11-06T02:00:00	6	Velocidad del viento	3.2
45334	7	Sololá	701	Sololá	3	Barraneche	8	Agosto	2023-08-25T00:00:00	2024-11-06T02:00:00	7	Dirección del viento	3.22
45335	7	Sololá	701	Sololá	3	Barraneche	8	Agosto	2023-08-25T00:00:00	2024-11-06T02:00:00	1	Precipitación	0
45336	7	Sololá	701	Sololá	3	Barraneche	8	Agosto	2023-08-25T00:00:00	2024-11-06T02:00:00	8	Radiación solar	0
45337	7	Sololá	701	Sololá	3	Barraneche	8	Agosto	2023-08-25T00:00:00	2024-11-06T03:00:00	2	Temperatura media	11.7
45338	7	Sololá	701	Sololá	3	Barraneche	8	Agosto	2023-08-25T00:00:00	2024-11-06T03:00:00	4	Temperatura máxima	11.8
45339	7	Sololá	701	Sololá	3	Barraneche	8	Agosto	2023-08-25T00:00:00	2024-11-06T03:00:00	3	Temperatura mínima	11.2
45340	7	Sololá	701	Sololá	3	Barraneche	8	Agosto	2023-08-25T00:00:00	2024-11-06T03:00:00	5	Humedad	79
45341	7	Sololá	701	Sololá	3	Barraneche	8	Agosto	2023-08-25T00:00:00	2024-11-06T03:00:00	6	Velocidad del viento	3.2
45342	7	Sololá	701	Sololá	3	Barraneche	8	Agosto	2023-08-25T00:00:00	2024-11-06T03:00:00	7	Dirección del viento	3.22
45343	7	Sololá	701	Sololá	3	Barraneche	8	Agosto	2023-08-25T00:00:00	2024-11-06T03:00:00	1	Precipitación	0
45344	7	Sololá	701	Sololá	3	Barraneche	8	Agosto	2023-08-25T00:00:00	2024-11-06T03:00:00	8	Radiación solar	0
45345	7	Sololá	701	Sololá	3	Barraneche	8	Agosto	2023-08-25T00:00:00	2024-11-06T04:00:00	2	Temperatura media	11.6
45346	7	Sololá	701	Sololá	3	Barraneche	8	Agosto	2023-08-25T00:00:00	2024-11-06T04:00:00	4	Temperatura máxima	11.8
45347	7	Sololá	701	Sololá	3	Barraneche	8	Agosto	2023-08-25T00:00:00	2024-11-06T04:00:00	3	Temperatura mínima	11.5
45348	7	Sololá	701	Sololá	3	Barraneche	8	Agosto	2023-08-25T00:00:00	2024-11-06T04:00:00	5	Humedad	78
45349	7	Sololá	701	Sololá	3	Barraneche	8	Agosto	2023-08-25T00:00:00	2024-11-06T04:00:00	6	Velocidad del viento	3.2
45350	7	Sololá	701	Sololá	3	Barraneche	8	Agosto	2023-08-25T00:00:00	2024-11-06T04:00:00	7	Dirección del viento	3.22
45351	7	Sololá	701	Sololá	3	Barraneche	8	Agosto	2023-08-25T00:00:00	2024-11-06T04:00:00	1	Precipitación	0
45352	7	Sololá	701	Sololá	3	Barraneche	8	Agosto	2023-08-25T00:00:00	2024-11-06T04:00:00	8	Radiación solar	0
45353	7	Sololá	701	Sololá	3	Barraneche	8	Agosto	2023-08-25T00:00:00	2024-11-06T05:00:00	2	Temperatura media	11.8
45354	7	Sololá	701	Sololá	3	Barraneche	8	Agosto	2023-08-25T00:00:00	2024-11-06T05:00:00	4	Temperatura máxima	11.9
45355	7	Sololá	701	Sololá	3	Barraneche	8	Agosto	2023-08-25T00:00:00	2024-11-06T05:00:00	3	Temperatura mínima	11.6
45356	7	Sololá	701	Sololá	3	Barraneche	8	Agosto	2023-08-25T00:00:00	2024-11-06T05:00:00	5	Humedad	76
45357	7	Sololá	701	Sololá	3	Barraneche	8	Agosto	2023-08-25T00:00:00	2024-11-06T05:00:00	6	Velocidad del viento	3.2
45358	7	Sololá	701	Sololá	3	Barraneche	8	Agosto	2023-08-25T00:00:00	2024-11-06T05:00:00	7	Dirección del viento	3.22
45359	7	Sololá	701	Sololá	3	Barraneche	8	Agosto	2023-08-25T00:00:00	2024-11-06T05:00:00	1	Precipitación	0
45360	7	Sololá	701	Sololá	3	Barraneche	8	Agosto	2023-08-25T00:00:00	2024-11-06T05:00:00	8	Radiación solar	0
45361	7	Sololá	701	Sololá	3	Barraneche	8	Agosto	2023-08-25T00:00:00	2024-11-06T06:00:00	2	Temperatura media	11.8
45362	7	Sololá	701	Sololá	3	Barraneche	8	Agosto	2023-08-25T00:00:00	2024-11-06T06:00:00	4	Temperatura máxima	11.8
45363	7	Sololá	701	Sololá	3	Barraneche	8	Agosto	2023-08-25T00:00:00	2024-11-06T06:00:00	3	Temperatura mínima	11.6
45364	7	Sololá	701	Sololá	3	Barraneche	8	Agosto	2023-08-25T00:00:00	2024-11-06T06:00:00	5	Humedad	75
45365	7	Sololá	701	Sololá	3	Barraneche	8	Agosto	2023-08-25T00:00:00	2024-11-06T06:00:00	6	Velocidad del viento	3.2
45366	7	Sololá	701	Sololá	3	Barraneche	8	Agosto	2023-08-25T00:00:00	2024-11-06T06:00:00	7	Dirección del viento	3.22
45367	7	Sololá	701	Sololá	3	Barraneche	8	Agosto	2023-08-25T00:00:00	2024-11-06T06:00:00	1	Precipitación	0
45368	7	Sololá	701	Sololá	3	Barraneche	8	Agosto	2023-08-25T00:00:00	2024-11-06T06:00:00	8	Radiación solar	2
45369	7	Sololá	701	Sololá	3	Barraneche	8	Agosto	2023-08-25T00:00:00	2024-11-06T07:00:00	2	Temperatura media	12.1
45370	7	Sololá	701	Sololá	3	Barraneche	8	Agosto	2023-08-25T00:00:00	2024-11-06T07:00:00	4	Temperatura máxima	12.1
45371	7	Sololá	701	Sololá	3	Barraneche	8	Agosto	2023-08-25T00:00:00	2024-11-06T07:00:00	3	Temperatura mínima	11.7
45372	7	Sololá	701	Sololá	3	Barraneche	8	Agosto	2023-08-25T00:00:00	2024-11-06T07:00:00	5	Humedad	74
45373	7	Sololá	701	Sololá	3	Barraneche	8	Agosto	2023-08-25T00:00:00	2024-11-06T07:00:00	6	Velocidad del viento	3.2
45374	7	Sololá	701	Sololá	3	Barraneche	8	Agosto	2023-08-25T00:00:00	2024-11-06T07:00:00	7	Dirección del viento	3.22
45375	7	Sololá	701	Sololá	3	Barraneche	8	Agosto	2023-08-25T00:00:00	2024-11-06T07:00:00	1	Precipitación	0
45376	7	Sololá	701	Sololá	3	Barraneche	8	Agosto	2023-08-25T00:00:00	2024-11-06T07:00:00	8	Radiación solar	45
45377	7	Sololá	701	Sololá	3	Barraneche	8	Agosto	2023-08-25T00:00:00	2024-11-06T08:00:00	2	Temperatura media	14.8
45378	7	Sololá	701	Sololá	3	Barraneche	8	Agosto	2023-08-25T00:00:00	2024-11-06T08:00:00	4	Temperatura máxima	14.8
45379	7	Sololá	701	Sololá	3	Barraneche	8	Agosto	2023-08-25T00:00:00	2024-11-06T08:00:00	3	Temperatura mínima	12.1
45380	7	Sololá	701	Sololá	3	Barraneche	8	Agosto	2023-08-25T00:00:00	2024-11-06T08:00:00	5	Humedad	67
45381	7	Sololá	701	Sololá	3	Barraneche	8	Agosto	2023-08-25T00:00:00	2024-11-06T08:00:00	6	Velocidad del viento	3.2
45382	7	Sololá	701	Sololá	3	Barraneche	8	Agosto	2023-08-25T00:00:00	2024-11-06T08:00:00	7	Dirección del viento	3.22
45383	7	Sololá	701	Sololá	3	Barraneche	8	Agosto	2023-08-25T00:00:00	2024-11-06T08:00:00	1	Precipitación	0
45384	7	Sololá	701	Sololá	3	Barraneche	8	Agosto	2023-08-25T00:00:00	2024-11-06T08:00:00	8	Radiación solar	205
45385	7	Sololá	701	Sololá	3	Barraneche	8	Agosto	2023-08-25T00:00:00	2024-11-06T09:00:00	2	Temperatura media	17.9
45386	7	Sololá	701	Sololá	3	Barraneche	8	Agosto	2023-08-25T00:00:00	2024-11-06T09:00:00	4	Temperatura máxima	17.9
45387	7	Sololá	701	Sololá	3	Barraneche	8	Agosto	2023-08-25T00:00:00	2024-11-06T09:00:00	3	Temperatura mínima	14.9
45388	7	Sololá	701	Sololá	3	Barraneche	8	Agosto	2023-08-25T00:00:00	2024-11-06T09:00:00	5	Humedad	59
45389	7	Sololá	701	Sololá	3	Barraneche	8	Agosto	2023-08-25T00:00:00	2024-11-06T09:00:00	6	Velocidad del viento	3.2
45390	7	Sololá	701	Sololá	3	Barraneche	8	Agosto	2023-08-25T00:00:00	2024-11-06T09:00:00	7	Dirección del viento	3.22
45391	7	Sololá	701	Sololá	3	Barraneche	8	Agosto	2023-08-25T00:00:00	2024-11-06T09:00:00	1	Precipitación	0
45392	7	Sololá	701	Sololá	3	Barraneche	8	Agosto	2023-08-25T00:00:00	2024-11-06T09:00:00	8	Radiación solar	548
45393	7	Sololá	701	Sololá	3	Barraneche	8	Agosto	2023-08-25T00:00:00	2024-11-06T10:00:00	2	Temperatura media	18.4
45394	7	Sololá	701	Sololá	3	Barraneche	8	Agosto	2023-08-25T00:00:00	2024-11-06T10:00:00	4	Temperatura máxima	18.5
45395	7	Sololá	701	Sololá	3	Barraneche	8	Agosto	2023-08-25T00:00:00	2024-11-06T10:00:00	3	Temperatura mínima	17.9
45396	7	Sololá	701	Sololá	3	Barraneche	8	Agosto	2023-08-25T00:00:00	2024-11-06T10:00:00	5	Humedad	64
45397	7	Sololá	701	Sololá	3	Barraneche	8	Agosto	2023-08-25T00:00:00	2024-11-06T10:00:00	6	Velocidad del viento	8
45398	7	Sololá	701	Sololá	3	Barraneche	8	Agosto	2023-08-25T00:00:00	2024-11-06T10:00:00	7	Dirección del viento	8.05
45399	7	Sololá	701	Sololá	3	Barraneche	8	Agosto	2023-08-25T00:00:00	2024-11-06T10:00:00	1	Precipitación	0
45400	7	Sololá	701	Sololá	3	Barraneche	8	Agosto	2023-08-25T00:00:00	2024-11-06T10:00:00	8	Radiación solar	840
45401	7	Sololá	701	Sololá	3	Barraneche	8	Agosto	2023-08-25T00:00:00	2024-11-06T11:00:00	2	Temperatura media	18.2
45402	7	Sololá	701	Sololá	3	Barraneche	8	Agosto	2023-08-25T00:00:00	2024-11-06T11:00:00	4	Temperatura máxima	18.4
45403	7	Sololá	701	Sololá	3	Barraneche	8	Agosto	2023-08-25T00:00:00	2024-11-06T11:00:00	3	Temperatura mínima	17.6
45404	7	Sololá	701	Sololá	3	Barraneche	8	Agosto	2023-08-25T00:00:00	2024-11-06T11:00:00	5	Humedad	66
45405	7	Sololá	701	Sololá	3	Barraneche	8	Agosto	2023-08-25T00:00:00	2024-11-06T11:00:00	6	Velocidad del viento	12.9
45406	7	Sololá	701	Sololá	3	Barraneche	8	Agosto	2023-08-25T00:00:00	2024-11-06T11:00:00	7	Dirección del viento	12.87
45407	7	Sololá	701	Sololá	3	Barraneche	8	Agosto	2023-08-25T00:00:00	2024-11-06T11:00:00	1	Precipitación	0.2
45408	7	Sololá	701	Sololá	3	Barraneche	8	Agosto	2023-08-25T00:00:00	2024-11-06T11:00:00	8	Radiación solar	1063
45409	7	Sololá	701	Sololá	3	Barraneche	8	Agosto	2023-08-25T00:00:00	2024-11-06T12:00:00	2	Temperatura media	18.7
45410	7	Sololá	701	Sololá	3	Barraneche	8	Agosto	2023-08-25T00:00:00	2024-11-06T12:00:00	4	Temperatura máxima	19.2
45411	7	Sololá	701	Sololá	3	Barraneche	8	Agosto	2023-08-25T00:00:00	2024-11-06T12:00:00	3	Temperatura mínima	18.2
45412	7	Sololá	701	Sololá	3	Barraneche	8	Agosto	2023-08-25T00:00:00	2024-11-06T12:00:00	5	Humedad	60
45413	7	Sololá	701	Sololá	3	Barraneche	8	Agosto	2023-08-25T00:00:00	2024-11-06T12:00:00	6	Velocidad del viento	9.7
45414	7	Sololá	701	Sololá	3	Barraneche	8	Agosto	2023-08-25T00:00:00	2024-11-06T12:00:00	7	Dirección del viento	9.66
45415	7	Sololá	701	Sololá	3	Barraneche	8	Agosto	2023-08-25T00:00:00	2024-11-06T12:00:00	1	Precipitación	0
45416	7	Sololá	701	Sololá	3	Barraneche	8	Agosto	2023-08-25T00:00:00	2024-11-06T12:00:00	8	Radiación solar	993
45417	7	Sololá	701	Sololá	3	Barraneche	8	Agosto	2023-08-25T00:00:00	2024-11-06T13:00:00	2	Temperatura media	17.8
45418	7	Sololá	701	Sololá	3	Barraneche	8	Agosto	2023-08-25T00:00:00	2024-11-06T13:00:00	4	Temperatura máxima	19
45419	7	Sololá	701	Sololá	3	Barraneche	8	Agosto	2023-08-25T00:00:00	2024-11-06T13:00:00	3	Temperatura mínima	17.8
45420	7	Sololá	701	Sololá	3	Barraneche	8	Agosto	2023-08-25T00:00:00	2024-11-06T13:00:00	5	Humedad	68
45421	7	Sololá	701	Sololá	3	Barraneche	8	Agosto	2023-08-25T00:00:00	2024-11-06T13:00:00	6	Velocidad del viento	12.9
45422	7	Sololá	701	Sololá	3	Barraneche	8	Agosto	2023-08-25T00:00:00	2024-11-06T13:00:00	7	Dirección del viento	12.87
45423	7	Sololá	701	Sololá	3	Barraneche	8	Agosto	2023-08-25T00:00:00	2024-11-06T13:00:00	1	Precipitación	0
45424	7	Sololá	701	Sololá	3	Barraneche	8	Agosto	2023-08-25T00:00:00	2024-11-06T13:00:00	8	Radiación solar	501
45425	7	Sololá	701	Sololá	3	Barraneche	8	Agosto	2023-08-25T00:00:00	2024-11-06T14:00:00	2	Temperatura media	17.1
45426	7	Sololá	701	Sololá	3	Barraneche	8	Agosto	2023-08-25T00:00:00	2024-11-06T14:00:00	4	Temperatura máxima	17.8
45427	7	Sololá	701	Sololá	3	Barraneche	8	Agosto	2023-08-25T00:00:00	2024-11-06T14:00:00	3	Temperatura mínima	16.8
45428	7	Sololá	701	Sololá	3	Barraneche	8	Agosto	2023-08-25T00:00:00	2024-11-06T14:00:00	5	Humedad	69
45429	7	Sololá	701	Sololá	3	Barraneche	8	Agosto	2023-08-25T00:00:00	2024-11-06T14:00:00	6	Velocidad del viento	9.7
45430	7	Sololá	701	Sololá	3	Barraneche	8	Agosto	2023-08-25T00:00:00	2024-11-06T14:00:00	7	Dirección del viento	9.66
45431	7	Sololá	701	Sololá	3	Barraneche	8	Agosto	2023-08-25T00:00:00	2024-11-06T14:00:00	1	Precipitación	0
45432	7	Sololá	701	Sololá	3	Barraneche	8	Agosto	2023-08-25T00:00:00	2024-11-06T14:00:00	8	Radiación solar	279
45433	7	Sololá	701	Sololá	3	Barraneche	8	Agosto	2023-08-25T00:00:00	2024-11-06T15:00:00	2	Temperatura media	16.7
45434	7	Sololá	701	Sololá	3	Barraneche	8	Agosto	2023-08-25T00:00:00	2024-11-06T15:00:00	4	Temperatura máxima	17.2
45435	7	Sololá	701	Sololá	3	Barraneche	8	Agosto	2023-08-25T00:00:00	2024-11-06T15:00:00	3	Temperatura mínima	16.7
45436	7	Sololá	701	Sololá	3	Barraneche	8	Agosto	2023-08-25T00:00:00	2024-11-06T15:00:00	5	Humedad	71
45437	7	Sololá	701	Sololá	3	Barraneche	8	Agosto	2023-08-25T00:00:00	2024-11-06T15:00:00	6	Velocidad del viento	8
45438	7	Sololá	701	Sololá	3	Barraneche	8	Agosto	2023-08-25T00:00:00	2024-11-06T15:00:00	7	Dirección del viento	8.05
45439	7	Sololá	701	Sololá	3	Barraneche	8	Agosto	2023-08-25T00:00:00	2024-11-06T15:00:00	1	Precipitación	0
45440	7	Sololá	701	Sololá	3	Barraneche	8	Agosto	2023-08-25T00:00:00	2024-11-06T15:00:00	8	Radiación solar	225
45441	7	Sololá	701	Sololá	3	Barraneche	8	Agosto	2023-08-25T00:00:00	2024-11-06T16:00:00	2	Temperatura media	16.2
45442	7	Sololá	701	Sololá	3	Barraneche	8	Agosto	2023-08-25T00:00:00	2024-11-06T16:00:00	4	Temperatura máxima	16.7
45443	7	Sololá	701	Sololá	3	Barraneche	8	Agosto	2023-08-25T00:00:00	2024-11-06T16:00:00	3	Temperatura mínima	16.2
45444	7	Sololá	701	Sololá	3	Barraneche	8	Agosto	2023-08-25T00:00:00	2024-11-06T16:00:00	5	Humedad	72
45445	7	Sololá	701	Sololá	3	Barraneche	8	Agosto	2023-08-25T00:00:00	2024-11-06T16:00:00	6	Velocidad del viento	11.3
45446	7	Sololá	701	Sololá	3	Barraneche	8	Agosto	2023-08-25T00:00:00	2024-11-06T16:00:00	7	Dirección del viento	11.27
45447	7	Sololá	701	Sololá	3	Barraneche	8	Agosto	2023-08-25T00:00:00	2024-11-06T16:00:00	1	Precipitación	0
45448	7	Sololá	701	Sololá	3	Barraneche	8	Agosto	2023-08-25T00:00:00	2024-11-06T16:00:00	8	Radiación solar	157
45449	7	Sololá	701	Sololá	3	Barraneche	8	Agosto	2023-08-25T00:00:00	2024-11-06T17:00:00	2	Temperatura media	16.1
45450	7	Sololá	701	Sololá	3	Barraneche	8	Agosto	2023-08-25T00:00:00	2024-11-06T17:00:00	4	Temperatura máxima	16.2
45451	7	Sololá	701	Sololá	3	Barraneche	8	Agosto	2023-08-25T00:00:00	2024-11-06T17:00:00	3	Temperatura mínima	15.8
45452	7	Sololá	701	Sololá	3	Barraneche	8	Agosto	2023-08-25T00:00:00	2024-11-06T17:00:00	5	Humedad	73
45453	7	Sololá	701	Sololá	3	Barraneche	8	Agosto	2023-08-25T00:00:00	2024-11-06T17:00:00	6	Velocidad del viento	8
45454	7	Sololá	701	Sololá	3	Barraneche	8	Agosto	2023-08-25T00:00:00	2024-11-06T17:00:00	7	Dirección del viento	8.05
45455	7	Sololá	701	Sololá	3	Barraneche	8	Agosto	2023-08-25T00:00:00	2024-11-06T17:00:00	1	Precipitación	0
45456	7	Sololá	701	Sololá	3	Barraneche	8	Agosto	2023-08-25T00:00:00	2024-11-06T17:00:00	8	Radiación solar	104
45457	7	Sololá	701	Sololá	3	Barraneche	8	Agosto	2023-08-25T00:00:00	2024-11-06T18:00:00	2	Temperatura media	16
45458	7	Sololá	701	Sololá	3	Barraneche	8	Agosto	2023-08-25T00:00:00	2024-11-06T18:00:00	4	Temperatura máxima	16.2
45459	7	Sololá	701	Sololá	3	Barraneche	8	Agosto	2023-08-25T00:00:00	2024-11-06T18:00:00	3	Temperatura mínima	15.9
45460	7	Sololá	701	Sololá	3	Barraneche	8	Agosto	2023-08-25T00:00:00	2024-11-06T18:00:00	5	Humedad	72
45461	7	Sololá	701	Sololá	3	Barraneche	8	Agosto	2023-08-25T00:00:00	2024-11-06T18:00:00	6	Velocidad del viento	4.8
45462	7	Sololá	701	Sololá	3	Barraneche	8	Agosto	2023-08-25T00:00:00	2024-11-06T18:00:00	7	Dirección del viento	4.83
45463	7	Sololá	701	Sololá	3	Barraneche	8	Agosto	2023-08-25T00:00:00	2024-11-06T18:00:00	1	Precipitación	0
45464	7	Sololá	701	Sololá	3	Barraneche	8	Agosto	2023-08-25T00:00:00	2024-11-06T18:00:00	8	Radiación solar	69
45465	7	Sololá	701	Sololá	3	Barraneche	8	Agosto	2023-08-25T00:00:00	2024-11-06T19:00:00	2	Temperatura media	15.1
45466	7	Sololá	701	Sololá	3	Barraneche	8	Agosto	2023-08-25T00:00:00	2024-11-06T19:00:00	4	Temperatura máxima	16
45467	7	Sololá	701	Sololá	3	Barraneche	8	Agosto	2023-08-25T00:00:00	2024-11-06T19:00:00	3	Temperatura mínima	15.1
45468	7	Sololá	701	Sololá	3	Barraneche	8	Agosto	2023-08-25T00:00:00	2024-11-06T19:00:00	5	Humedad	81
45469	7	Sololá	701	Sololá	3	Barraneche	8	Agosto	2023-08-25T00:00:00	2024-11-06T19:00:00	6	Velocidad del viento	3.2
45470	7	Sololá	701	Sololá	3	Barraneche	8	Agosto	2023-08-25T00:00:00	2024-11-06T19:00:00	7	Dirección del viento	3.22
45471	7	Sololá	701	Sololá	3	Barraneche	8	Agosto	2023-08-25T00:00:00	2024-11-06T19:00:00	1	Precipitación	0
45472	7	Sololá	701	Sololá	3	Barraneche	8	Agosto	2023-08-25T00:00:00	2024-11-06T19:00:00	8	Radiación solar	0
45473	7	Sololá	701	Sololá	3	Barraneche	8	Agosto	2023-08-25T00:00:00	2024-11-06T20:00:00	2	Temperatura media	14.9
45474	7	Sololá	701	Sololá	3	Barraneche	8	Agosto	2023-08-25T00:00:00	2024-11-06T20:00:00	4	Temperatura máxima	15.1
45475	7	Sololá	701	Sololá	3	Barraneche	8	Agosto	2023-08-25T00:00:00	2024-11-06T20:00:00	3	Temperatura mínima	14.9
45476	7	Sololá	701	Sololá	3	Barraneche	8	Agosto	2023-08-25T00:00:00	2024-11-06T20:00:00	5	Humedad	84
45477	7	Sololá	701	Sololá	3	Barraneche	8	Agosto	2023-08-25T00:00:00	2024-11-06T20:00:00	6	Velocidad del viento	1.6
45478	7	Sololá	701	Sololá	3	Barraneche	8	Agosto	2023-08-25T00:00:00	2024-11-06T20:00:00	7	Dirección del viento	1.61
45479	7	Sololá	701	Sololá	3	Barraneche	8	Agosto	2023-08-25T00:00:00	2024-11-06T20:00:00	1	Precipitación	0
45480	7	Sololá	701	Sololá	3	Barraneche	8	Agosto	2023-08-25T00:00:00	2024-11-06T20:00:00	8	Radiación solar	0
45481	7	Sololá	701	Sololá	3	Barraneche	8	Agosto	2023-08-25T00:00:00	2024-11-06T21:00:00	2	Temperatura media	14.8
45482	7	Sololá	701	Sololá	3	Barraneche	8	Agosto	2023-08-25T00:00:00	2024-11-06T21:00:00	4	Temperatura máxima	15.1
45483	7	Sololá	701	Sololá	3	Barraneche	8	Agosto	2023-08-25T00:00:00	2024-11-06T21:00:00	3	Temperatura mínima	14.8
45484	7	Sololá	701	Sololá	3	Barraneche	8	Agosto	2023-08-25T00:00:00	2024-11-06T21:00:00	5	Humedad	85
45485	7	Sololá	701	Sololá	3	Barraneche	8	Agosto	2023-08-25T00:00:00	2024-11-06T21:00:00	6	Velocidad del viento	1.6
45486	7	Sololá	701	Sololá	3	Barraneche	8	Agosto	2023-08-25T00:00:00	2024-11-06T21:00:00	7	Dirección del viento	1.61
45487	7	Sololá	701	Sololá	3	Barraneche	8	Agosto	2023-08-25T00:00:00	2024-11-06T21:00:00	1	Precipitación	0
45488	7	Sololá	701	Sololá	3	Barraneche	8	Agosto	2023-08-25T00:00:00	2024-11-06T21:00:00	8	Radiación solar	0
45489	7	Sololá	701	Sololá	3	Barraneche	8	Agosto	2023-08-25T00:00:00	2024-11-06T22:00:00	2	Temperatura media	13.9
45490	7	Sololá	701	Sololá	3	Barraneche	8	Agosto	2023-08-25T00:00:00	2024-11-06T22:00:00	4	Temperatura máxima	14.8
45491	7	Sololá	701	Sololá	3	Barraneche	8	Agosto	2023-08-25T00:00:00	2024-11-06T22:00:00	3	Temperatura mínima	13.9
45492	7	Sololá	701	Sololá	3	Barraneche	8	Agosto	2023-08-25T00:00:00	2024-11-06T22:00:00	5	Humedad	84
45493	7	Sololá	701	Sololá	3	Barraneche	8	Agosto	2023-08-25T00:00:00	2024-11-06T22:00:00	6	Velocidad del viento	1.6
45494	7	Sololá	701	Sololá	3	Barraneche	8	Agosto	2023-08-25T00:00:00	2024-11-06T22:00:00	7	Dirección del viento	1.61
45495	7	Sololá	701	Sololá	3	Barraneche	8	Agosto	2023-08-25T00:00:00	2024-11-06T22:00:00	1	Precipitación	0
45496	7	Sololá	701	Sololá	3	Barraneche	8	Agosto	2023-08-25T00:00:00	2024-11-06T22:00:00	8	Radiación solar	0
45497	7	Sololá	701	Sololá	3	Barraneche	8	Agosto	2023-08-25T00:00:00	2024-11-06T23:00:00	2	Temperatura media	13.6
45498	7	Sololá	701	Sololá	3	Barraneche	8	Agosto	2023-08-25T00:00:00	2024-11-06T23:00:00	4	Temperatura máxima	14
45499	7	Sololá	701	Sololá	3	Barraneche	8	Agosto	2023-08-25T00:00:00	2024-11-06T23:00:00	3	Temperatura mínima	13.6
45500	7	Sololá	701	Sololá	3	Barraneche	8	Agosto	2023-08-25T00:00:00	2024-11-06T23:00:00	5	Humedad	79
45501	7	Sololá	701	Sololá	3	Barraneche	8	Agosto	2023-08-25T00:00:00	2024-11-06T23:00:00	6	Velocidad del viento	3.2
45502	7	Sololá	701	Sololá	3	Barraneche	8	Agosto	2023-08-25T00:00:00	2024-11-06T23:00:00	7	Dirección del viento	3.22
45503	7	Sololá	701	Sololá	3	Barraneche	8	Agosto	2023-08-25T00:00:00	2024-11-06T23:00:00	1	Precipitación	0
45504	7	Sololá	701	Sololá	3	Barraneche	8	Agosto	2023-08-25T00:00:00	2024-11-06T23:00:00	8	Radiación solar	0
45505	7	Sololá	701	Sololá	3	Barraneche	8	Agosto	2023-08-26T00:00:00	2024-11-06T00:00:00	2	Temperatura media	13.2
45506	7	Sololá	701	Sololá	3	Barraneche	8	Agosto	2023-08-26T00:00:00	2024-11-06T00:00:00	4	Temperatura máxima	13.6
45507	7	Sololá	701	Sololá	3	Barraneche	8	Agosto	2023-08-26T00:00:00	2024-11-06T00:00:00	3	Temperatura mínima	13.2
45508	7	Sololá	701	Sololá	3	Barraneche	8	Agosto	2023-08-26T00:00:00	2024-11-06T00:00:00	5	Humedad	76
45509	7	Sololá	701	Sololá	3	Barraneche	8	Agosto	2023-08-26T00:00:00	2024-11-06T00:00:00	6	Velocidad del viento	3.2
45510	7	Sololá	701	Sololá	3	Barraneche	8	Agosto	2023-08-26T00:00:00	2024-11-06T00:00:00	7	Dirección del viento	3.22
45511	7	Sololá	701	Sololá	3	Barraneche	8	Agosto	2023-08-26T00:00:00	2024-11-06T00:00:00	1	Precipitación	0
45512	7	Sololá	701	Sololá	3	Barraneche	8	Agosto	2023-08-26T00:00:00	2024-11-06T00:00:00	8	Radiación solar	0
45513	7	Sololá	701	Sololá	3	Barraneche	8	Agosto	2023-08-26T00:00:00	2024-11-06T01:00:00	2	Temperatura media	12.5
45514	7	Sololá	701	Sololá	3	Barraneche	8	Agosto	2023-08-26T00:00:00	2024-11-06T01:00:00	4	Temperatura máxima	13.2
45515	7	Sololá	701	Sololá	3	Barraneche	8	Agosto	2023-08-26T00:00:00	2024-11-06T01:00:00	3	Temperatura mínima	12.3
45516	7	Sololá	701	Sololá	3	Barraneche	8	Agosto	2023-08-26T00:00:00	2024-11-06T01:00:00	5	Humedad	77
45517	7	Sololá	701	Sololá	3	Barraneche	8	Agosto	2023-08-26T00:00:00	2024-11-06T01:00:00	6	Velocidad del viento	4.8
45518	7	Sololá	701	Sololá	3	Barraneche	8	Agosto	2023-08-26T00:00:00	2024-11-06T01:00:00	7	Dirección del viento	4.83
45519	7	Sololá	701	Sololá	3	Barraneche	8	Agosto	2023-08-26T00:00:00	2024-11-06T01:00:00	1	Precipitación	0
45520	7	Sololá	701	Sololá	3	Barraneche	8	Agosto	2023-08-26T00:00:00	2024-11-06T01:00:00	8	Radiación solar	0
45521	7	Sololá	701	Sololá	3	Barraneche	8	Agosto	2023-08-26T00:00:00	2024-11-06T02:00:00	2	Temperatura media	12.9
45522	7	Sololá	701	Sololá	3	Barraneche	8	Agosto	2023-08-26T00:00:00	2024-11-06T02:00:00	4	Temperatura máxima	13.2
45523	7	Sololá	701	Sololá	3	Barraneche	8	Agosto	2023-08-26T00:00:00	2024-11-06T02:00:00	3	Temperatura mínima	12.5
45524	7	Sololá	701	Sololá	3	Barraneche	8	Agosto	2023-08-26T00:00:00	2024-11-06T02:00:00	5	Humedad	74
45525	7	Sololá	701	Sololá	3	Barraneche	8	Agosto	2023-08-26T00:00:00	2024-11-06T02:00:00	6	Velocidad del viento	4.8
45526	7	Sololá	701	Sololá	3	Barraneche	8	Agosto	2023-08-26T00:00:00	2024-11-06T02:00:00	7	Dirección del viento	4.83
45527	7	Sololá	701	Sololá	3	Barraneche	8	Agosto	2023-08-26T00:00:00	2024-11-06T02:00:00	1	Precipitación	0
45528	7	Sololá	701	Sololá	3	Barraneche	8	Agosto	2023-08-26T00:00:00	2024-11-06T02:00:00	8	Radiación solar	0
45529	7	Sololá	701	Sololá	3	Barraneche	8	Agosto	2023-08-26T00:00:00	2024-11-06T03:00:00	2	Temperatura media	12.1
45530	7	Sololá	701	Sololá	3	Barraneche	8	Agosto	2023-08-26T00:00:00	2024-11-06T03:00:00	4	Temperatura máxima	12.9
45531	7	Sololá	701	Sololá	3	Barraneche	8	Agosto	2023-08-26T00:00:00	2024-11-06T03:00:00	3	Temperatura mínima	12.1
45532	7	Sololá	701	Sololá	3	Barraneche	8	Agosto	2023-08-26T00:00:00	2024-11-06T03:00:00	5	Humedad	76
45533	7	Sololá	701	Sololá	3	Barraneche	8	Agosto	2023-08-26T00:00:00	2024-11-06T03:00:00	6	Velocidad del viento	3.2
45534	7	Sololá	701	Sololá	3	Barraneche	8	Agosto	2023-08-26T00:00:00	2024-11-06T03:00:00	7	Dirección del viento	3.22
45535	7	Sololá	701	Sololá	3	Barraneche	8	Agosto	2023-08-26T00:00:00	2024-11-06T03:00:00	1	Precipitación	0
45536	7	Sololá	701	Sololá	3	Barraneche	8	Agosto	2023-08-26T00:00:00	2024-11-06T03:00:00	8	Radiación solar	0
45537	7	Sololá	701	Sololá	3	Barraneche	8	Agosto	2023-08-26T00:00:00	2024-11-06T04:00:00	2	Temperatura media	11.8
45538	7	Sololá	701	Sololá	3	Barraneche	8	Agosto	2023-08-26T00:00:00	2024-11-06T04:00:00	4	Temperatura máxima	12.1
45539	7	Sololá	701	Sololá	3	Barraneche	8	Agosto	2023-08-26T00:00:00	2024-11-06T04:00:00	3	Temperatura mínima	11.7
45540	7	Sololá	701	Sololá	3	Barraneche	8	Agosto	2023-08-26T00:00:00	2024-11-06T04:00:00	5	Humedad	77
45541	7	Sololá	701	Sololá	3	Barraneche	8	Agosto	2023-08-26T00:00:00	2024-11-06T04:00:00	6	Velocidad del viento	3.2
45542	7	Sololá	701	Sololá	3	Barraneche	8	Agosto	2023-08-26T00:00:00	2024-11-06T04:00:00	7	Dirección del viento	3.22
45543	7	Sololá	701	Sololá	3	Barraneche	8	Agosto	2023-08-26T00:00:00	2024-11-06T04:00:00	1	Precipitación	0
45544	7	Sololá	701	Sololá	3	Barraneche	8	Agosto	2023-08-26T00:00:00	2024-11-06T04:00:00	8	Radiación solar	0
45545	7	Sololá	701	Sololá	3	Barraneche	8	Agosto	2023-08-26T00:00:00	2024-11-06T05:00:00	2	Temperatura media	11.9
45546	7	Sololá	701	Sololá	3	Barraneche	8	Agosto	2023-08-26T00:00:00	2024-11-06T05:00:00	4	Temperatura máxima	11.9
45547	7	Sololá	701	Sololá	3	Barraneche	8	Agosto	2023-08-26T00:00:00	2024-11-06T05:00:00	3	Temperatura mínima	11.7
45548	7	Sololá	701	Sololá	3	Barraneche	8	Agosto	2023-08-26T00:00:00	2024-11-06T05:00:00	5	Humedad	77
45549	7	Sololá	701	Sololá	3	Barraneche	8	Agosto	2023-08-26T00:00:00	2024-11-06T05:00:00	6	Velocidad del viento	3.2
45550	7	Sololá	701	Sololá	3	Barraneche	8	Agosto	2023-08-26T00:00:00	2024-11-06T05:00:00	7	Dirección del viento	3.22
45551	7	Sololá	701	Sololá	3	Barraneche	8	Agosto	2023-08-26T00:00:00	2024-11-06T05:00:00	1	Precipitación	0
45552	7	Sololá	701	Sololá	3	Barraneche	8	Agosto	2023-08-26T00:00:00	2024-11-06T05:00:00	8	Radiación solar	0
45553	7	Sololá	701	Sololá	3	Barraneche	8	Agosto	2023-08-26T00:00:00	2024-11-06T06:00:00	2	Temperatura media	12.1
45554	7	Sololá	701	Sololá	3	Barraneche	8	Agosto	2023-08-26T00:00:00	2024-11-06T06:00:00	4	Temperatura máxima	12.1
45555	7	Sololá	701	Sololá	3	Barraneche	8	Agosto	2023-08-26T00:00:00	2024-11-06T06:00:00	3	Temperatura mínima	11.8
45556	7	Sololá	701	Sololá	3	Barraneche	8	Agosto	2023-08-26T00:00:00	2024-11-06T06:00:00	5	Humedad	77
45557	7	Sololá	701	Sololá	3	Barraneche	8	Agosto	2023-08-26T00:00:00	2024-11-06T06:00:00	6	Velocidad del viento	3.2
45558	7	Sololá	701	Sololá	3	Barraneche	8	Agosto	2023-08-26T00:00:00	2024-11-06T06:00:00	7	Dirección del viento	3.22
45559	7	Sololá	701	Sololá	3	Barraneche	8	Agosto	2023-08-26T00:00:00	2024-11-06T06:00:00	1	Precipitación	0
45560	7	Sololá	701	Sololá	3	Barraneche	8	Agosto	2023-08-26T00:00:00	2024-11-06T06:00:00	8	Radiación solar	0
45561	7	Sololá	701	Sololá	3	Barraneche	8	Agosto	2023-08-26T00:00:00	2024-11-06T07:00:00	2	Temperatura media	14.2
45562	7	Sololá	701	Sololá	3	Barraneche	8	Agosto	2023-08-26T00:00:00	2024-11-06T07:00:00	4	Temperatura máxima	14.2
45563	7	Sololá	701	Sololá	3	Barraneche	8	Agosto	2023-08-26T00:00:00	2024-11-06T07:00:00	3	Temperatura mínima	12.1
45564	7	Sololá	701	Sololá	3	Barraneche	8	Agosto	2023-08-26T00:00:00	2024-11-06T07:00:00	5	Humedad	73
45565	7	Sololá	701	Sololá	3	Barraneche	8	Agosto	2023-08-26T00:00:00	2024-11-06T07:00:00	6	Velocidad del viento	3.2
45566	7	Sololá	701	Sololá	3	Barraneche	8	Agosto	2023-08-26T00:00:00	2024-11-06T07:00:00	7	Dirección del viento	3.22
45567	7	Sololá	701	Sololá	3	Barraneche	8	Agosto	2023-08-26T00:00:00	2024-11-06T07:00:00	1	Precipitación	0
45568	7	Sololá	701	Sololá	3	Barraneche	8	Agosto	2023-08-26T00:00:00	2024-11-06T07:00:00	8	Radiación solar	91
45569	7	Sololá	701	Sololá	3	Barraneche	8	Agosto	2023-08-26T00:00:00	2024-11-06T08:00:00	2	Temperatura media	17.2
45570	7	Sololá	701	Sololá	3	Barraneche	8	Agosto	2023-08-26T00:00:00	2024-11-06T08:00:00	4	Temperatura máxima	17.2
45571	7	Sololá	701	Sololá	3	Barraneche	8	Agosto	2023-08-26T00:00:00	2024-11-06T08:00:00	3	Temperatura mínima	14.2
45572	7	Sololá	701	Sololá	3	Barraneche	8	Agosto	2023-08-26T00:00:00	2024-11-06T08:00:00	5	Humedad	67
45573	7	Sololá	701	Sololá	3	Barraneche	8	Agosto	2023-08-26T00:00:00	2024-11-06T08:00:00	6	Velocidad del viento	3.2
45574	7	Sololá	701	Sololá	3	Barraneche	8	Agosto	2023-08-26T00:00:00	2024-11-06T08:00:00	7	Dirección del viento	3.22
45575	7	Sololá	701	Sololá	3	Barraneche	8	Agosto	2023-08-26T00:00:00	2024-11-06T08:00:00	1	Precipitación	0
45576	7	Sololá	701	Sololá	3	Barraneche	8	Agosto	2023-08-26T00:00:00	2024-11-06T08:00:00	8	Radiación solar	343
45577	7	Sololá	701	Sololá	3	Barraneche	8	Agosto	2023-08-26T00:00:00	2024-11-06T09:00:00	2	Temperatura media	18.9
45578	7	Sololá	701	Sololá	3	Barraneche	8	Agosto	2023-08-26T00:00:00	2024-11-06T09:00:00	4	Temperatura máxima	18.9
45579	7	Sololá	701	Sololá	3	Barraneche	8	Agosto	2023-08-26T00:00:00	2024-11-06T09:00:00	3	Temperatura mínima	17.2
45580	7	Sololá	701	Sololá	3	Barraneche	8	Agosto	2023-08-26T00:00:00	2024-11-06T09:00:00	5	Humedad	62
45581	7	Sololá	701	Sololá	3	Barraneche	8	Agosto	2023-08-26T00:00:00	2024-11-06T09:00:00	6	Velocidad del viento	4.8
45582	7	Sololá	701	Sololá	3	Barraneche	8	Agosto	2023-08-26T00:00:00	2024-11-06T09:00:00	7	Dirección del viento	4.83
45583	7	Sololá	701	Sololá	3	Barraneche	8	Agosto	2023-08-26T00:00:00	2024-11-06T09:00:00	1	Precipitación	0
45584	7	Sololá	701	Sololá	3	Barraneche	8	Agosto	2023-08-26T00:00:00	2024-11-06T09:00:00	8	Radiación solar	579
45585	7	Sololá	701	Sololá	3	Barraneche	8	Agosto	2023-08-26T00:00:00	2024-11-06T10:00:00	2	Temperatura media	18.9
45586	7	Sololá	701	Sololá	3	Barraneche	8	Agosto	2023-08-26T00:00:00	2024-11-06T10:00:00	4	Temperatura máxima	19.2
45587	7	Sololá	701	Sololá	3	Barraneche	8	Agosto	2023-08-26T00:00:00	2024-11-06T10:00:00	3	Temperatura mínima	18.8
45588	7	Sololá	701	Sololá	3	Barraneche	8	Agosto	2023-08-26T00:00:00	2024-11-06T10:00:00	5	Humedad	68
45589	7	Sololá	701	Sololá	3	Barraneche	8	Agosto	2023-08-26T00:00:00	2024-11-06T10:00:00	6	Velocidad del viento	9.7
45590	7	Sololá	701	Sololá	3	Barraneche	8	Agosto	2023-08-26T00:00:00	2024-11-06T10:00:00	7	Dirección del viento	9.66
45591	7	Sololá	701	Sololá	3	Barraneche	8	Agosto	2023-08-26T00:00:00	2024-11-06T10:00:00	1	Precipitación	0
45592	7	Sololá	701	Sololá	3	Barraneche	8	Agosto	2023-08-26T00:00:00	2024-11-06T10:00:00	8	Radiación solar	793
45593	7	Sololá	701	Sololá	3	Barraneche	8	Agosto	2023-08-26T00:00:00	2024-11-06T11:00:00	2	Temperatura media	19.9
45594	7	Sololá	701	Sololá	3	Barraneche	8	Agosto	2023-08-26T00:00:00	2024-11-06T11:00:00	4	Temperatura máxima	20.2
45595	7	Sololá	701	Sololá	3	Barraneche	8	Agosto	2023-08-26T00:00:00	2024-11-06T11:00:00	3	Temperatura mínima	18.8
45596	7	Sololá	701	Sololá	3	Barraneche	8	Agosto	2023-08-26T00:00:00	2024-11-06T11:00:00	5	Humedad	65
45597	7	Sololá	701	Sololá	3	Barraneche	8	Agosto	2023-08-26T00:00:00	2024-11-06T11:00:00	6	Velocidad del viento	11.3
45598	7	Sololá	701	Sololá	3	Barraneche	8	Agosto	2023-08-26T00:00:00	2024-11-06T11:00:00	7	Dirección del viento	11.27
45599	7	Sololá	701	Sololá	3	Barraneche	8	Agosto	2023-08-26T00:00:00	2024-11-06T11:00:00	1	Precipitación	0
45600	7	Sololá	701	Sololá	3	Barraneche	8	Agosto	2023-08-26T00:00:00	2024-11-06T11:00:00	8	Radiación solar	1013
45601	7	Sololá	701	Sololá	3	Barraneche	8	Agosto	2023-08-26T00:00:00	2024-11-06T12:00:00	2	Temperatura media	19.6
45602	7	Sololá	701	Sololá	3	Barraneche	8	Agosto	2023-08-26T00:00:00	2024-11-06T12:00:00	4	Temperatura máxima	20.1
45603	7	Sololá	701	Sololá	3	Barraneche	8	Agosto	2023-08-26T00:00:00	2024-11-06T12:00:00	3	Temperatura mínima	19.4
45604	7	Sololá	701	Sololá	3	Barraneche	8	Agosto	2023-08-26T00:00:00	2024-11-06T12:00:00	5	Humedad	67
45605	7	Sololá	701	Sololá	3	Barraneche	8	Agosto	2023-08-26T00:00:00	2024-11-06T12:00:00	6	Velocidad del viento	14.5
45606	7	Sololá	701	Sololá	3	Barraneche	8	Agosto	2023-08-26T00:00:00	2024-11-06T12:00:00	7	Dirección del viento	14.48
45607	7	Sololá	701	Sololá	3	Barraneche	8	Agosto	2023-08-26T00:00:00	2024-11-06T12:00:00	1	Precipitación	0
45608	7	Sololá	701	Sololá	3	Barraneche	8	Agosto	2023-08-26T00:00:00	2024-11-06T12:00:00	8	Radiación solar	1053
45609	7	Sololá	701	Sololá	3	Barraneche	8	Agosto	2023-08-26T00:00:00	2024-11-06T13:00:00	2	Temperatura media	19
45610	7	Sololá	701	Sololá	3	Barraneche	8	Agosto	2023-08-26T00:00:00	2024-11-06T13:00:00	4	Temperatura máxima	19.8
45611	7	Sololá	701	Sololá	3	Barraneche	8	Agosto	2023-08-26T00:00:00	2024-11-06T13:00:00	3	Temperatura mínima	18.9
45612	7	Sololá	701	Sololá	3	Barraneche	8	Agosto	2023-08-26T00:00:00	2024-11-06T13:00:00	5	Humedad	69
45613	7	Sololá	701	Sololá	3	Barraneche	8	Agosto	2023-08-26T00:00:00	2024-11-06T13:00:00	6	Velocidad del viento	14.5
45614	7	Sololá	701	Sololá	3	Barraneche	8	Agosto	2023-08-26T00:00:00	2024-11-06T13:00:00	7	Dirección del viento	14.48
45615	7	Sololá	701	Sololá	3	Barraneche	8	Agosto	2023-08-26T00:00:00	2024-11-06T13:00:00	1	Precipitación	0
45616	7	Sololá	701	Sololá	3	Barraneche	8	Agosto	2023-08-26T00:00:00	2024-11-06T13:00:00	8	Radiación solar	1048
45617	7	Sololá	701	Sololá	3	Barraneche	8	Agosto	2023-08-26T00:00:00	2024-11-06T14:00:00	2	Temperatura media	18.1
45618	7	Sololá	701	Sololá	3	Barraneche	8	Agosto	2023-08-26T00:00:00	2024-11-06T14:00:00	4	Temperatura máxima	19.1
45619	7	Sololá	701	Sololá	3	Barraneche	8	Agosto	2023-08-26T00:00:00	2024-11-06T14:00:00	3	Temperatura mínima	17.9
45620	7	Sololá	701	Sololá	3	Barraneche	8	Agosto	2023-08-26T00:00:00	2024-11-06T14:00:00	5	Humedad	72
45621	7	Sololá	701	Sololá	3	Barraneche	8	Agosto	2023-08-26T00:00:00	2024-11-06T14:00:00	6	Velocidad del viento	12.9
45622	7	Sololá	701	Sololá	3	Barraneche	8	Agosto	2023-08-26T00:00:00	2024-11-06T14:00:00	7	Dirección del viento	12.87
45623	7	Sololá	701	Sololá	3	Barraneche	8	Agosto	2023-08-26T00:00:00	2024-11-06T14:00:00	1	Precipitación	0
45624	7	Sololá	701	Sololá	3	Barraneche	8	Agosto	2023-08-26T00:00:00	2024-11-06T14:00:00	8	Radiación solar	367
45625	7	Sololá	701	Sololá	3	Barraneche	8	Agosto	2023-08-26T00:00:00	2024-11-06T15:00:00	2	Temperatura media	17.2
45626	7	Sololá	701	Sololá	3	Barraneche	8	Agosto	2023-08-26T00:00:00	2024-11-06T15:00:00	4	Temperatura máxima	18.4
45627	7	Sololá	701	Sololá	3	Barraneche	8	Agosto	2023-08-26T00:00:00	2024-11-06T15:00:00	3	Temperatura mínima	17.1
45628	7	Sololá	701	Sololá	3	Barraneche	8	Agosto	2023-08-26T00:00:00	2024-11-06T15:00:00	5	Humedad	73
45629	7	Sololá	701	Sololá	3	Barraneche	8	Agosto	2023-08-26T00:00:00	2024-11-06T15:00:00	6	Velocidad del viento	12.9
45630	7	Sololá	701	Sololá	3	Barraneche	8	Agosto	2023-08-26T00:00:00	2024-11-06T15:00:00	7	Dirección del viento	12.87
45631	7	Sololá	701	Sololá	3	Barraneche	8	Agosto	2023-08-26T00:00:00	2024-11-06T15:00:00	1	Precipitación	0
45632	7	Sololá	701	Sololá	3	Barraneche	8	Agosto	2023-08-26T00:00:00	2024-11-06T15:00:00	8	Radiación solar	268
45633	7	Sololá	701	Sololá	3	Barraneche	8	Agosto	2023-08-26T00:00:00	2024-11-06T16:00:00	2	Temperatura media	16.7
45634	7	Sololá	701	Sololá	3	Barraneche	8	Agosto	2023-08-26T00:00:00	2024-11-06T16:00:00	4	Temperatura máxima	17.2
45635	7	Sololá	701	Sololá	3	Barraneche	8	Agosto	2023-08-26T00:00:00	2024-11-06T16:00:00	3	Temperatura mínima	16.6
45636	7	Sololá	701	Sololá	3	Barraneche	8	Agosto	2023-08-26T00:00:00	2024-11-06T16:00:00	5	Humedad	74
45637	7	Sololá	701	Sololá	3	Barraneche	8	Agosto	2023-08-26T00:00:00	2024-11-06T16:00:00	6	Velocidad del viento	11.3
45638	7	Sololá	701	Sololá	3	Barraneche	8	Agosto	2023-08-26T00:00:00	2024-11-06T16:00:00	7	Dirección del viento	11.27
45639	7	Sololá	701	Sololá	3	Barraneche	8	Agosto	2023-08-26T00:00:00	2024-11-06T16:00:00	1	Precipitación	0
45640	7	Sololá	701	Sololá	3	Barraneche	8	Agosto	2023-08-26T00:00:00	2024-11-06T16:00:00	8	Radiación solar	186
45641	7	Sololá	701	Sololá	3	Barraneche	8	Agosto	2023-08-26T00:00:00	2024-11-06T17:00:00	2	Temperatura media	16.7
45642	7	Sololá	701	Sololá	3	Barraneche	8	Agosto	2023-08-26T00:00:00	2024-11-06T17:00:00	4	Temperatura máxima	16.7
45643	7	Sololá	701	Sololá	3	Barraneche	8	Agosto	2023-08-26T00:00:00	2024-11-06T17:00:00	3	Temperatura mínima	16.4
45644	7	Sololá	701	Sololá	3	Barraneche	8	Agosto	2023-08-26T00:00:00	2024-11-06T17:00:00	5	Humedad	73
45645	7	Sololá	701	Sololá	3	Barraneche	8	Agosto	2023-08-26T00:00:00	2024-11-06T17:00:00	6	Velocidad del viento	9.7
45646	7	Sololá	701	Sololá	3	Barraneche	8	Agosto	2023-08-26T00:00:00	2024-11-06T17:00:00	7	Dirección del viento	9.66
45647	7	Sololá	701	Sololá	3	Barraneche	8	Agosto	2023-08-26T00:00:00	2024-11-06T17:00:00	1	Precipitación	0
45648	7	Sololá	701	Sololá	3	Barraneche	8	Agosto	2023-08-26T00:00:00	2024-11-06T17:00:00	8	Radiación solar	191
45649	7	Sololá	701	Sololá	3	Barraneche	8	Agosto	2023-08-26T00:00:00	2024-11-06T18:00:00	2	Temperatura media	16.8
45650	7	Sololá	701	Sololá	3	Barraneche	8	Agosto	2023-08-26T00:00:00	2024-11-06T18:00:00	4	Temperatura máxima	17.2
45651	7	Sololá	701	Sololá	3	Barraneche	8	Agosto	2023-08-26T00:00:00	2024-11-06T18:00:00	3	Temperatura mínima	16.6
45652	7	Sololá	701	Sololá	3	Barraneche	8	Agosto	2023-08-26T00:00:00	2024-11-06T18:00:00	5	Humedad	73
45653	7	Sololá	701	Sololá	3	Barraneche	8	Agosto	2023-08-26T00:00:00	2024-11-06T18:00:00	6	Velocidad del viento	6.4
45654	7	Sololá	701	Sololá	3	Barraneche	8	Agosto	2023-08-26T00:00:00	2024-11-06T18:00:00	7	Dirección del viento	6.44
45655	7	Sololá	701	Sololá	3	Barraneche	8	Agosto	2023-08-26T00:00:00	2024-11-06T18:00:00	1	Precipitación	0
45656	7	Sololá	701	Sololá	3	Barraneche	8	Agosto	2023-08-26T00:00:00	2024-11-06T18:00:00	8	Radiación solar	130
45657	7	Sololá	701	Sololá	3	Barraneche	8	Agosto	2023-08-26T00:00:00	2024-11-06T19:00:00	2	Temperatura media	15.7
45658	7	Sololá	701	Sololá	3	Barraneche	8	Agosto	2023-08-26T00:00:00	2024-11-06T19:00:00	4	Temperatura máxima	16.8
45659	7	Sololá	701	Sololá	3	Barraneche	8	Agosto	2023-08-26T00:00:00	2024-11-06T19:00:00	3	Temperatura mínima	15.7
45660	7	Sololá	701	Sololá	3	Barraneche	8	Agosto	2023-08-26T00:00:00	2024-11-06T19:00:00	5	Humedad	77
45661	7	Sololá	701	Sololá	3	Barraneche	8	Agosto	2023-08-26T00:00:00	2024-11-06T19:00:00	6	Velocidad del viento	3.2
45662	7	Sololá	701	Sololá	3	Barraneche	8	Agosto	2023-08-26T00:00:00	2024-11-06T19:00:00	7	Dirección del viento	3.22
45663	7	Sololá	701	Sololá	3	Barraneche	8	Agosto	2023-08-26T00:00:00	2024-11-06T19:00:00	1	Precipitación	0
45664	7	Sololá	701	Sololá	3	Barraneche	8	Agosto	2023-08-26T00:00:00	2024-11-06T19:00:00	8	Radiación solar	0
45665	7	Sololá	701	Sololá	3	Barraneche	8	Agosto	2023-08-26T00:00:00	2024-11-06T20:00:00	2	Temperatura media	15.6
45666	7	Sololá	701	Sololá	3	Barraneche	8	Agosto	2023-08-26T00:00:00	2024-11-06T20:00:00	4	Temperatura máxima	15.7
45667	7	Sololá	701	Sololá	3	Barraneche	8	Agosto	2023-08-26T00:00:00	2024-11-06T20:00:00	3	Temperatura mínima	15.5
45668	7	Sololá	701	Sololá	3	Barraneche	8	Agosto	2023-08-26T00:00:00	2024-11-06T20:00:00	5	Humedad	79
45669	7	Sololá	701	Sololá	3	Barraneche	8	Agosto	2023-08-26T00:00:00	2024-11-06T20:00:00	6	Velocidad del viento	1.6
45670	7	Sololá	701	Sololá	3	Barraneche	8	Agosto	2023-08-26T00:00:00	2024-11-06T20:00:00	7	Dirección del viento	1.61
45671	7	Sololá	701	Sololá	3	Barraneche	8	Agosto	2023-08-26T00:00:00	2024-11-06T20:00:00	1	Precipitación	0
45672	7	Sololá	701	Sololá	3	Barraneche	8	Agosto	2023-08-26T00:00:00	2024-11-06T20:00:00	8	Radiación solar	0
45673	7	Sololá	701	Sololá	3	Barraneche	8	Agosto	2023-08-26T00:00:00	2024-11-06T21:00:00	2	Temperatura media	15.4
45674	7	Sololá	701	Sololá	3	Barraneche	8	Agosto	2023-08-26T00:00:00	2024-11-06T21:00:00	4	Temperatura máxima	15.6
45675	7	Sololá	701	Sololá	3	Barraneche	8	Agosto	2023-08-26T00:00:00	2024-11-06T21:00:00	3	Temperatura mínima	15.4
45676	7	Sololá	701	Sololá	3	Barraneche	8	Agosto	2023-08-26T00:00:00	2024-11-06T21:00:00	5	Humedad	79
45677	7	Sololá	701	Sololá	3	Barraneche	8	Agosto	2023-08-26T00:00:00	2024-11-06T21:00:00	6	Velocidad del viento	1.6
45678	7	Sololá	701	Sololá	3	Barraneche	8	Agosto	2023-08-26T00:00:00	2024-11-06T21:00:00	7	Dirección del viento	1.61
45679	7	Sololá	701	Sololá	3	Barraneche	8	Agosto	2023-08-26T00:00:00	2024-11-06T21:00:00	1	Precipitación	0
45680	7	Sololá	701	Sololá	3	Barraneche	8	Agosto	2023-08-26T00:00:00	2024-11-06T21:00:00	8	Radiación solar	0
45681	7	Sololá	701	Sololá	3	Barraneche	8	Agosto	2023-08-26T00:00:00	2024-11-06T22:00:00	2	Temperatura media	14.8
45682	7	Sololá	701	Sololá	3	Barraneche	8	Agosto	2023-08-26T00:00:00	2024-11-06T22:00:00	4	Temperatura máxima	15.4
45683	7	Sololá	701	Sololá	3	Barraneche	8	Agosto	2023-08-26T00:00:00	2024-11-06T22:00:00	3	Temperatura mínima	14.8
45684	7	Sololá	701	Sololá	3	Barraneche	8	Agosto	2023-08-26T00:00:00	2024-11-06T22:00:00	5	Humedad	77
45685	7	Sololá	701	Sololá	3	Barraneche	8	Agosto	2023-08-26T00:00:00	2024-11-06T22:00:00	6	Velocidad del viento	1.6
45686	7	Sololá	701	Sololá	3	Barraneche	8	Agosto	2023-08-26T00:00:00	2024-11-06T22:00:00	7	Dirección del viento	1.61
45687	7	Sololá	701	Sololá	3	Barraneche	8	Agosto	2023-08-26T00:00:00	2024-11-06T22:00:00	1	Precipitación	0
45688	7	Sololá	701	Sololá	3	Barraneche	8	Agosto	2023-08-26T00:00:00	2024-11-06T22:00:00	8	Radiación solar	0
45689	7	Sololá	701	Sololá	3	Barraneche	8	Agosto	2023-08-26T00:00:00	2024-11-06T23:00:00	2	Temperatura media	14.8
45690	7	Sololá	701	Sololá	3	Barraneche	8	Agosto	2023-08-26T00:00:00	2024-11-06T23:00:00	4	Temperatura máxima	15
45691	7	Sololá	701	Sololá	3	Barraneche	8	Agosto	2023-08-26T00:00:00	2024-11-06T23:00:00	3	Temperatura mínima	14.8
45692	7	Sololá	701	Sololá	3	Barraneche	8	Agosto	2023-08-26T00:00:00	2024-11-06T23:00:00	5	Humedad	82
45693	7	Sololá	701	Sololá	3	Barraneche	8	Agosto	2023-08-26T00:00:00	2024-11-06T23:00:00	6	Velocidad del viento	1.6
45694	7	Sololá	701	Sololá	3	Barraneche	8	Agosto	2023-08-26T00:00:00	2024-11-06T23:00:00	7	Dirección del viento	1.61
45695	7	Sololá	701	Sololá	3	Barraneche	8	Agosto	2023-08-26T00:00:00	2024-11-06T23:00:00	1	Precipitación	0
45696	7	Sololá	701	Sololá	3	Barraneche	8	Agosto	2023-08-26T00:00:00	2024-11-06T23:00:00	8	Radiación solar	0
45697	7	Sololá	701	Sololá	3	Barraneche	8	Agosto	2023-08-27T00:00:00	2024-11-06T00:00:00	2	Temperatura media	14.7
45698	7	Sololá	701	Sololá	3	Barraneche	8	Agosto	2023-08-27T00:00:00	2024-11-06T00:00:00	4	Temperatura máxima	14.8
45699	7	Sololá	701	Sololá	3	Barraneche	8	Agosto	2023-08-27T00:00:00	2024-11-06T00:00:00	3	Temperatura mínima	14.6
45700	7	Sololá	701	Sololá	3	Barraneche	8	Agosto	2023-08-27T00:00:00	2024-11-06T00:00:00	5	Humedad	81
45701	7	Sololá	701	Sololá	3	Barraneche	8	Agosto	2023-08-27T00:00:00	2024-11-06T00:00:00	6	Velocidad del viento	1.6
45702	7	Sololá	701	Sololá	3	Barraneche	8	Agosto	2023-08-27T00:00:00	2024-11-06T00:00:00	7	Dirección del viento	1.61
45703	7	Sololá	701	Sololá	3	Barraneche	8	Agosto	2023-08-27T00:00:00	2024-11-06T00:00:00	1	Precipitación	0
45704	7	Sololá	701	Sololá	3	Barraneche	8	Agosto	2023-08-27T00:00:00	2024-11-06T00:00:00	8	Radiación solar	0
45705	7	Sololá	701	Sololá	3	Barraneche	8	Agosto	2023-08-27T00:00:00	2024-11-06T01:00:00	2	Temperatura media	14.2
45706	7	Sololá	701	Sololá	3	Barraneche	8	Agosto	2023-08-27T00:00:00	2024-11-06T01:00:00	4	Temperatura máxima	14.7
45707	7	Sololá	701	Sololá	3	Barraneche	8	Agosto	2023-08-27T00:00:00	2024-11-06T01:00:00	3	Temperatura mínima	14.1
45708	7	Sololá	701	Sololá	3	Barraneche	8	Agosto	2023-08-27T00:00:00	2024-11-06T01:00:00	5	Humedad	81
45709	7	Sololá	701	Sololá	3	Barraneche	8	Agosto	2023-08-27T00:00:00	2024-11-06T01:00:00	6	Velocidad del viento	1.6
45710	7	Sololá	701	Sololá	3	Barraneche	8	Agosto	2023-08-27T00:00:00	2024-11-06T01:00:00	7	Dirección del viento	1.61
45711	7	Sololá	701	Sololá	3	Barraneche	8	Agosto	2023-08-27T00:00:00	2024-11-06T01:00:00	1	Precipitación	0
45712	7	Sololá	701	Sololá	3	Barraneche	8	Agosto	2023-08-27T00:00:00	2024-11-06T01:00:00	8	Radiación solar	0
45713	7	Sololá	701	Sololá	3	Barraneche	8	Agosto	2023-08-27T00:00:00	2024-11-06T02:00:00	2	Temperatura media	13.9
45714	7	Sololá	701	Sololá	3	Barraneche	8	Agosto	2023-08-27T00:00:00	2024-11-06T02:00:00	4	Temperatura máxima	14.2
45715	7	Sololá	701	Sololá	3	Barraneche	8	Agosto	2023-08-27T00:00:00	2024-11-06T02:00:00	3	Temperatura mínima	13.8
45716	7	Sololá	701	Sololá	3	Barraneche	8	Agosto	2023-08-27T00:00:00	2024-11-06T02:00:00	5	Humedad	80
45717	7	Sololá	701	Sololá	3	Barraneche	8	Agosto	2023-08-27T00:00:00	2024-11-06T02:00:00	6	Velocidad del viento	1.6
45718	7	Sololá	701	Sololá	3	Barraneche	8	Agosto	2023-08-27T00:00:00	2024-11-06T02:00:00	7	Dirección del viento	1.61
45719	7	Sololá	701	Sololá	3	Barraneche	8	Agosto	2023-08-27T00:00:00	2024-11-06T02:00:00	1	Precipitación	0
45720	7	Sololá	701	Sololá	3	Barraneche	8	Agosto	2023-08-27T00:00:00	2024-11-06T02:00:00	8	Radiación solar	0
45721	7	Sololá	701	Sololá	3	Barraneche	8	Agosto	2023-08-27T00:00:00	2024-11-06T03:00:00	2	Temperatura media	13.6
45722	7	Sololá	701	Sololá	3	Barraneche	8	Agosto	2023-08-27T00:00:00	2024-11-06T03:00:00	4	Temperatura máxima	13.9
45723	7	Sololá	701	Sololá	3	Barraneche	8	Agosto	2023-08-27T00:00:00	2024-11-06T03:00:00	3	Temperatura mínima	13.6
45724	7	Sololá	701	Sololá	3	Barraneche	8	Agosto	2023-08-27T00:00:00	2024-11-06T03:00:00	5	Humedad	79
45725	7	Sololá	701	Sololá	3	Barraneche	8	Agosto	2023-08-27T00:00:00	2024-11-06T03:00:00	6	Velocidad del viento	1.6
45726	7	Sololá	701	Sololá	3	Barraneche	8	Agosto	2023-08-27T00:00:00	2024-11-06T03:00:00	7	Dirección del viento	1.61
45727	7	Sololá	701	Sololá	3	Barraneche	8	Agosto	2023-08-27T00:00:00	2024-11-06T03:00:00	1	Precipitación	0
45728	7	Sololá	701	Sololá	3	Barraneche	8	Agosto	2023-08-27T00:00:00	2024-11-06T03:00:00	8	Radiación solar	0
45729	7	Sololá	701	Sololá	3	Barraneche	8	Agosto	2023-08-27T00:00:00	2024-11-06T04:00:00	2	Temperatura media	13.6
45730	7	Sololá	701	Sololá	3	Barraneche	8	Agosto	2023-08-27T00:00:00	2024-11-06T04:00:00	4	Temperatura máxima	13.7
45731	7	Sololá	701	Sololá	3	Barraneche	8	Agosto	2023-08-27T00:00:00	2024-11-06T04:00:00	3	Temperatura mínima	13.6
45732	7	Sololá	701	Sololá	3	Barraneche	8	Agosto	2023-08-27T00:00:00	2024-11-06T04:00:00	5	Humedad	79
45733	7	Sololá	701	Sololá	3	Barraneche	8	Agosto	2023-08-27T00:00:00	2024-11-06T04:00:00	6	Velocidad del viento	1.6
45734	7	Sololá	701	Sololá	3	Barraneche	8	Agosto	2023-08-27T00:00:00	2024-11-06T04:00:00	7	Dirección del viento	1.61
45735	7	Sololá	701	Sololá	3	Barraneche	8	Agosto	2023-08-27T00:00:00	2024-11-06T04:00:00	1	Precipitación	0
45736	7	Sololá	701	Sololá	3	Barraneche	8	Agosto	2023-08-27T00:00:00	2024-11-06T04:00:00	8	Radiación solar	0
45737	7	Sololá	701	Sololá	3	Barraneche	8	Agosto	2023-08-27T00:00:00	2024-11-06T05:00:00	2	Temperatura media	12.9
45738	7	Sololá	701	Sololá	3	Barraneche	8	Agosto	2023-08-27T00:00:00	2024-11-06T05:00:00	4	Temperatura máxima	13.6
45739	7	Sololá	701	Sololá	3	Barraneche	8	Agosto	2023-08-27T00:00:00	2024-11-06T05:00:00	3	Temperatura mínima	12.8
45740	7	Sololá	701	Sololá	3	Barraneche	8	Agosto	2023-08-27T00:00:00	2024-11-06T05:00:00	5	Humedad	79
45741	7	Sololá	701	Sololá	3	Barraneche	8	Agosto	2023-08-27T00:00:00	2024-11-06T05:00:00	6	Velocidad del viento	3.2
45742	7	Sololá	701	Sololá	3	Barraneche	8	Agosto	2023-08-27T00:00:00	2024-11-06T05:00:00	7	Dirección del viento	3.22
45743	7	Sololá	701	Sololá	3	Barraneche	8	Agosto	2023-08-27T00:00:00	2024-11-06T05:00:00	1	Precipitación	0
45744	7	Sololá	701	Sololá	3	Barraneche	8	Agosto	2023-08-27T00:00:00	2024-11-06T05:00:00	8	Radiación solar	0
45745	7	Sololá	701	Sololá	3	Barraneche	8	Agosto	2023-08-27T00:00:00	2024-11-06T06:00:00	2	Temperatura media	12.5
45746	7	Sololá	701	Sololá	3	Barraneche	8	Agosto	2023-08-27T00:00:00	2024-11-06T06:00:00	4	Temperatura máxima	12.9
45747	7	Sololá	701	Sololá	3	Barraneche	8	Agosto	2023-08-27T00:00:00	2024-11-06T06:00:00	3	Temperatura mínima	12.4
45748	7	Sololá	701	Sololá	3	Barraneche	8	Agosto	2023-08-27T00:00:00	2024-11-06T06:00:00	5	Humedad	77
45749	7	Sololá	701	Sololá	3	Barraneche	8	Agosto	2023-08-27T00:00:00	2024-11-06T06:00:00	6	Velocidad del viento	3.2
45750	7	Sololá	701	Sololá	3	Barraneche	8	Agosto	2023-08-27T00:00:00	2024-11-06T06:00:00	7	Dirección del viento	3.22
45751	7	Sololá	701	Sololá	3	Barraneche	8	Agosto	2023-08-27T00:00:00	2024-11-06T06:00:00	1	Precipitación	0
45752	7	Sololá	701	Sololá	3	Barraneche	8	Agosto	2023-08-27T00:00:00	2024-11-06T06:00:00	8	Radiación solar	0
45753	7	Sololá	701	Sololá	3	Barraneche	8	Agosto	2023-08-27T00:00:00	2024-11-06T07:00:00	2	Temperatura media	13.8
45754	7	Sololá	701	Sololá	3	Barraneche	8	Agosto	2023-08-27T00:00:00	2024-11-06T07:00:00	4	Temperatura máxima	13.8
45755	7	Sololá	701	Sololá	3	Barraneche	8	Agosto	2023-08-27T00:00:00	2024-11-06T07:00:00	3	Temperatura mínima	12.4
45756	7	Sololá	701	Sololá	3	Barraneche	8	Agosto	2023-08-27T00:00:00	2024-11-06T07:00:00	5	Humedad	75
45757	7	Sololá	701	Sololá	3	Barraneche	8	Agosto	2023-08-27T00:00:00	2024-11-06T07:00:00	6	Velocidad del viento	3.2
45758	7	Sololá	701	Sololá	3	Barraneche	8	Agosto	2023-08-27T00:00:00	2024-11-06T07:00:00	7	Dirección del viento	3.22
45759	7	Sololá	701	Sololá	3	Barraneche	8	Agosto	2023-08-27T00:00:00	2024-11-06T07:00:00	1	Precipitación	0
45760	7	Sololá	701	Sololá	3	Barraneche	8	Agosto	2023-08-27T00:00:00	2024-11-06T07:00:00	8	Radiación solar	67
45761	7	Sololá	701	Sololá	3	Barraneche	8	Agosto	2023-08-27T00:00:00	2024-11-06T08:00:00	2	Temperatura media	17.5
45762	7	Sololá	701	Sololá	3	Barraneche	8	Agosto	2023-08-27T00:00:00	2024-11-06T08:00:00	4	Temperatura máxima	17.6
45763	7	Sololá	701	Sololá	3	Barraneche	8	Agosto	2023-08-27T00:00:00	2024-11-06T08:00:00	3	Temperatura mínima	13.8
45764	7	Sololá	701	Sololá	3	Barraneche	8	Agosto	2023-08-27T00:00:00	2024-11-06T08:00:00	5	Humedad	61
45765	7	Sololá	701	Sololá	3	Barraneche	8	Agosto	2023-08-27T00:00:00	2024-11-06T08:00:00	6	Velocidad del viento	3.2
45766	7	Sololá	701	Sololá	3	Barraneche	8	Agosto	2023-08-27T00:00:00	2024-11-06T08:00:00	7	Dirección del viento	3.22
45767	7	Sololá	701	Sololá	3	Barraneche	8	Agosto	2023-08-27T00:00:00	2024-11-06T08:00:00	1	Precipitación	0
45768	7	Sololá	701	Sololá	3	Barraneche	8	Agosto	2023-08-27T00:00:00	2024-11-06T08:00:00	8	Radiación solar	336
45769	7	Sololá	701	Sololá	3	Barraneche	8	Agosto	2023-08-27T00:00:00	2024-11-06T09:00:00	2	Temperatura media	18.8
45770	7	Sololá	701	Sololá	3	Barraneche	8	Agosto	2023-08-27T00:00:00	2024-11-06T09:00:00	4	Temperatura máxima	18.8
45771	7	Sololá	701	Sololá	3	Barraneche	8	Agosto	2023-08-27T00:00:00	2024-11-06T09:00:00	3	Temperatura mínima	17.4
45772	7	Sololá	701	Sololá	3	Barraneche	8	Agosto	2023-08-27T00:00:00	2024-11-06T09:00:00	5	Humedad	50
45773	7	Sololá	701	Sololá	3	Barraneche	8	Agosto	2023-08-27T00:00:00	2024-11-06T09:00:00	6	Velocidad del viento	6.4
45774	7	Sololá	701	Sololá	3	Barraneche	8	Agosto	2023-08-27T00:00:00	2024-11-06T09:00:00	7	Dirección del viento	6.44
45775	7	Sololá	701	Sololá	3	Barraneche	8	Agosto	2023-08-27T00:00:00	2024-11-06T09:00:00	1	Precipitación	0
45776	7	Sololá	701	Sololá	3	Barraneche	8	Agosto	2023-08-27T00:00:00	2024-11-06T09:00:00	8	Radiación solar	584
45777	7	Sololá	701	Sololá	3	Barraneche	8	Agosto	2023-08-27T00:00:00	2024-11-06T10:00:00	2	Temperatura media	18.8
45778	7	Sololá	701	Sololá	3	Barraneche	8	Agosto	2023-08-27T00:00:00	2024-11-06T10:00:00	4	Temperatura máxima	19.8
45779	7	Sololá	701	Sololá	3	Barraneche	8	Agosto	2023-08-27T00:00:00	2024-11-06T10:00:00	3	Temperatura mínima	18.8
45780	7	Sololá	701	Sololá	3	Barraneche	8	Agosto	2023-08-27T00:00:00	2024-11-06T10:00:00	5	Humedad	64
45781	7	Sololá	701	Sololá	3	Barraneche	8	Agosto	2023-08-27T00:00:00	2024-11-06T10:00:00	6	Velocidad del viento	8
45782	7	Sololá	701	Sololá	3	Barraneche	8	Agosto	2023-08-27T00:00:00	2024-11-06T10:00:00	7	Dirección del viento	8.05
45783	7	Sololá	701	Sololá	3	Barraneche	8	Agosto	2023-08-27T00:00:00	2024-11-06T10:00:00	1	Precipitación	0
45784	7	Sololá	701	Sololá	3	Barraneche	8	Agosto	2023-08-27T00:00:00	2024-11-06T10:00:00	8	Radiación solar	783
45785	7	Sololá	701	Sololá	3	Barraneche	8	Agosto	2023-08-27T00:00:00	2024-11-06T11:00:00	2	Temperatura media	19.1
45786	7	Sololá	701	Sololá	3	Barraneche	8	Agosto	2023-08-27T00:00:00	2024-11-06T11:00:00	4	Temperatura máxima	19.2
45787	7	Sololá	701	Sololá	3	Barraneche	8	Agosto	2023-08-27T00:00:00	2024-11-06T11:00:00	3	Temperatura mínima	18.7
45788	7	Sololá	701	Sololá	3	Barraneche	8	Agosto	2023-08-27T00:00:00	2024-11-06T11:00:00	5	Humedad	66
45789	7	Sololá	701	Sololá	3	Barraneche	8	Agosto	2023-08-27T00:00:00	2024-11-06T11:00:00	6	Velocidad del viento	12.9
45790	7	Sololá	701	Sololá	3	Barraneche	8	Agosto	2023-08-27T00:00:00	2024-11-06T11:00:00	7	Dirección del viento	12.87
45791	7	Sololá	701	Sololá	3	Barraneche	8	Agosto	2023-08-27T00:00:00	2024-11-06T11:00:00	1	Precipitación	0
45792	7	Sololá	701	Sololá	3	Barraneche	8	Agosto	2023-08-27T00:00:00	2024-11-06T11:00:00	8	Radiación solar	948
45793	7	Sololá	701	Sololá	3	Barraneche	8	Agosto	2023-08-27T00:00:00	2024-11-06T12:00:00	2	Temperatura media	19.3
45794	7	Sololá	701	Sololá	3	Barraneche	8	Agosto	2023-08-27T00:00:00	2024-11-06T12:00:00	4	Temperatura máxima	19.6
45795	7	Sololá	701	Sololá	3	Barraneche	8	Agosto	2023-08-27T00:00:00	2024-11-06T12:00:00	3	Temperatura mínima	19.1
45796	7	Sololá	701	Sololá	3	Barraneche	8	Agosto	2023-08-27T00:00:00	2024-11-06T12:00:00	5	Humedad	67
45797	7	Sololá	701	Sololá	3	Barraneche	8	Agosto	2023-08-27T00:00:00	2024-11-06T12:00:00	6	Velocidad del viento	12.9
45798	7	Sololá	701	Sololá	3	Barraneche	8	Agosto	2023-08-27T00:00:00	2024-11-06T12:00:00	7	Dirección del viento	12.87
45799	7	Sololá	701	Sololá	3	Barraneche	8	Agosto	2023-08-27T00:00:00	2024-11-06T12:00:00	1	Precipitación	0
45800	7	Sololá	701	Sololá	3	Barraneche	8	Agosto	2023-08-27T00:00:00	2024-11-06T12:00:00	8	Radiación solar	1090
45801	7	Sololá	701	Sololá	3	Barraneche	8	Agosto	2023-08-27T00:00:00	2024-11-06T13:00:00	2	Temperatura media	17.8
45802	7	Sololá	701	Sololá	3	Barraneche	8	Agosto	2023-08-27T00:00:00	2024-11-06T13:00:00	4	Temperatura máxima	19.3
45803	7	Sololá	701	Sololá	3	Barraneche	8	Agosto	2023-08-27T00:00:00	2024-11-06T13:00:00	3	Temperatura mínima	17.8
45804	7	Sololá	701	Sololá	3	Barraneche	8	Agosto	2023-08-27T00:00:00	2024-11-06T13:00:00	5	Humedad	69
45805	7	Sololá	701	Sololá	3	Barraneche	8	Agosto	2023-08-27T00:00:00	2024-11-06T13:00:00	6	Velocidad del viento	14.5
45806	7	Sololá	701	Sololá	3	Barraneche	8	Agosto	2023-08-27T00:00:00	2024-11-06T13:00:00	7	Dirección del viento	14.48
45807	7	Sololá	701	Sololá	3	Barraneche	8	Agosto	2023-08-27T00:00:00	2024-11-06T13:00:00	1	Precipitación	0
45808	7	Sololá	701	Sololá	3	Barraneche	8	Agosto	2023-08-27T00:00:00	2024-11-06T13:00:00	8	Radiación solar	541
45809	7	Sololá	701	Sololá	3	Barraneche	8	Agosto	2023-08-27T00:00:00	2024-11-06T14:00:00	2	Temperatura media	17.1
45810	7	Sololá	701	Sololá	3	Barraneche	8	Agosto	2023-08-27T00:00:00	2024-11-06T14:00:00	4	Temperatura máxima	18.1
45811	7	Sololá	701	Sololá	3	Barraneche	8	Agosto	2023-08-27T00:00:00	2024-11-06T14:00:00	3	Temperatura mínima	17.1
45812	7	Sololá	701	Sololá	3	Barraneche	8	Agosto	2023-08-27T00:00:00	2024-11-06T14:00:00	5	Humedad	71
45813	7	Sololá	701	Sololá	3	Barraneche	8	Agosto	2023-08-27T00:00:00	2024-11-06T14:00:00	6	Velocidad del viento	12.9
45814	7	Sololá	701	Sololá	3	Barraneche	8	Agosto	2023-08-27T00:00:00	2024-11-06T14:00:00	7	Dirección del viento	12.87
45815	7	Sololá	701	Sololá	3	Barraneche	8	Agosto	2023-08-27T00:00:00	2024-11-06T14:00:00	1	Precipitación	0
45816	7	Sololá	701	Sololá	3	Barraneche	8	Agosto	2023-08-27T00:00:00	2024-11-06T14:00:00	8	Radiación solar	255
45817	7	Sololá	701	Sololá	3	Barraneche	8	Agosto	2023-08-27T00:00:00	2024-11-06T15:00:00	2	Temperatura media	16.8
45818	7	Sololá	701	Sololá	3	Barraneche	8	Agosto	2023-08-27T00:00:00	2024-11-06T15:00:00	4	Temperatura máxima	17.3
45819	7	Sololá	701	Sololá	3	Barraneche	8	Agosto	2023-08-27T00:00:00	2024-11-06T15:00:00	3	Temperatura mínima	16.7
45820	7	Sololá	701	Sololá	3	Barraneche	8	Agosto	2023-08-27T00:00:00	2024-11-06T15:00:00	5	Humedad	72
45821	7	Sololá	701	Sololá	3	Barraneche	8	Agosto	2023-08-27T00:00:00	2024-11-06T15:00:00	6	Velocidad del viento	11.3
45822	7	Sololá	701	Sololá	3	Barraneche	8	Agosto	2023-08-27T00:00:00	2024-11-06T15:00:00	7	Dirección del viento	11.27
45823	7	Sololá	701	Sololá	3	Barraneche	8	Agosto	2023-08-27T00:00:00	2024-11-06T15:00:00	1	Precipitación	0
45824	7	Sololá	701	Sololá	3	Barraneche	8	Agosto	2023-08-27T00:00:00	2024-11-06T15:00:00	8	Radiación solar	151
45825	7	Sololá	701	Sololá	3	Barraneche	8	Agosto	2023-08-27T00:00:00	2024-11-06T16:00:00	2	Temperatura media	17.5
45826	7	Sololá	701	Sololá	3	Barraneche	8	Agosto	2023-08-27T00:00:00	2024-11-06T16:00:00	4	Temperatura máxima	18.1
45827	7	Sololá	701	Sololá	3	Barraneche	8	Agosto	2023-08-27T00:00:00	2024-11-06T16:00:00	3	Temperatura mínima	16.8
45828	7	Sololá	701	Sololá	3	Barraneche	8	Agosto	2023-08-27T00:00:00	2024-11-06T16:00:00	5	Humedad	70
45829	7	Sololá	701	Sololá	3	Barraneche	8	Agosto	2023-08-27T00:00:00	2024-11-06T16:00:00	6	Velocidad del viento	8
45830	7	Sololá	701	Sololá	3	Barraneche	8	Agosto	2023-08-27T00:00:00	2024-11-06T16:00:00	7	Dirección del viento	8.05
45831	7	Sololá	701	Sololá	3	Barraneche	8	Agosto	2023-08-27T00:00:00	2024-11-06T16:00:00	1	Precipitación	0
45832	7	Sololá	701	Sololá	3	Barraneche	8	Agosto	2023-08-27T00:00:00	2024-11-06T16:00:00	8	Radiación solar	196
45833	7	Sololá	701	Sololá	3	Barraneche	8	Agosto	2023-08-27T00:00:00	2024-11-06T17:00:00	2	Temperatura media	17.9
45834	7	Sololá	701	Sololá	3	Barraneche	8	Agosto	2023-08-27T00:00:00	2024-11-06T17:00:00	4	Temperatura máxima	18
45835	7	Sololá	701	Sololá	3	Barraneche	8	Agosto	2023-08-27T00:00:00	2024-11-06T17:00:00	3	Temperatura mínima	16.7
45836	7	Sololá	701	Sololá	3	Barraneche	8	Agosto	2023-08-27T00:00:00	2024-11-06T17:00:00	5	Humedad	65
45837	7	Sololá	701	Sololá	3	Barraneche	8	Agosto	2023-08-27T00:00:00	2024-11-06T17:00:00	6	Velocidad del viento	8
45838	7	Sololá	701	Sololá	3	Barraneche	8	Agosto	2023-08-27T00:00:00	2024-11-06T17:00:00	7	Dirección del viento	8.05
45839	7	Sololá	701	Sololá	3	Barraneche	8	Agosto	2023-08-27T00:00:00	2024-11-06T17:00:00	1	Precipitación	0
45840	7	Sololá	701	Sololá	3	Barraneche	8	Agosto	2023-08-27T00:00:00	2024-11-06T17:00:00	8	Radiación solar	163
45841	7	Sololá	701	Sololá	3	Barraneche	8	Agosto	2023-08-27T00:00:00	2024-11-06T18:00:00	2	Temperatura media	16.7
45842	7	Sololá	701	Sololá	3	Barraneche	8	Agosto	2023-08-27T00:00:00	2024-11-06T18:00:00	4	Temperatura máxima	17.9
45843	7	Sololá	701	Sololá	3	Barraneche	8	Agosto	2023-08-27T00:00:00	2024-11-06T18:00:00	3	Temperatura mínima	16.6
45844	7	Sololá	701	Sololá	3	Barraneche	8	Agosto	2023-08-27T00:00:00	2024-11-06T18:00:00	5	Humedad	70
45845	7	Sololá	701	Sololá	3	Barraneche	8	Agosto	2023-08-27T00:00:00	2024-11-06T18:00:00	6	Velocidad del viento	4.8
45846	7	Sololá	701	Sololá	3	Barraneche	8	Agosto	2023-08-27T00:00:00	2024-11-06T18:00:00	7	Dirección del viento	4.83
45847	7	Sololá	701	Sololá	3	Barraneche	8	Agosto	2023-08-27T00:00:00	2024-11-06T18:00:00	1	Precipitación	0
45848	7	Sololá	701	Sololá	3	Barraneche	8	Agosto	2023-08-27T00:00:00	2024-11-06T18:00:00	8	Radiación solar	28
45849	7	Sololá	701	Sololá	3	Barraneche	8	Agosto	2023-08-27T00:00:00	2024-11-06T19:00:00	2	Temperatura media	15.8
45850	7	Sololá	701	Sololá	3	Barraneche	8	Agosto	2023-08-27T00:00:00	2024-11-06T19:00:00	4	Temperatura máxima	16.7
45851	7	Sololá	701	Sololá	3	Barraneche	8	Agosto	2023-08-27T00:00:00	2024-11-06T19:00:00	3	Temperatura mínima	15.8
45852	7	Sololá	701	Sololá	3	Barraneche	8	Agosto	2023-08-27T00:00:00	2024-11-06T19:00:00	5	Humedad	76
45853	7	Sololá	701	Sololá	3	Barraneche	8	Agosto	2023-08-27T00:00:00	2024-11-06T19:00:00	6	Velocidad del viento	3.2
45854	7	Sololá	701	Sololá	3	Barraneche	8	Agosto	2023-08-27T00:00:00	2024-11-06T19:00:00	7	Dirección del viento	3.22
45855	7	Sololá	701	Sololá	3	Barraneche	8	Agosto	2023-08-27T00:00:00	2024-11-06T19:00:00	1	Precipitación	0
45856	7	Sololá	701	Sololá	3	Barraneche	8	Agosto	2023-08-27T00:00:00	2024-11-06T19:00:00	8	Radiación solar	0
45857	7	Sololá	701	Sololá	3	Barraneche	8	Agosto	2023-08-27T00:00:00	2024-11-06T20:00:00	2	Temperatura media	15.4
45858	7	Sololá	701	Sololá	3	Barraneche	8	Agosto	2023-08-27T00:00:00	2024-11-06T20:00:00	4	Temperatura máxima	15.8
45859	7	Sololá	701	Sololá	3	Barraneche	8	Agosto	2023-08-27T00:00:00	2024-11-06T20:00:00	3	Temperatura mínima	15.3
45860	7	Sololá	701	Sololá	3	Barraneche	8	Agosto	2023-08-27T00:00:00	2024-11-06T20:00:00	5	Humedad	81
45861	7	Sololá	701	Sololá	3	Barraneche	8	Agosto	2023-08-27T00:00:00	2024-11-06T20:00:00	6	Velocidad del viento	3.2
45862	7	Sololá	701	Sololá	3	Barraneche	8	Agosto	2023-08-27T00:00:00	2024-11-06T20:00:00	7	Dirección del viento	3.22
45863	7	Sololá	701	Sololá	3	Barraneche	8	Agosto	2023-08-27T00:00:00	2024-11-06T20:00:00	1	Precipitación	0
45864	7	Sololá	701	Sololá	3	Barraneche	8	Agosto	2023-08-27T00:00:00	2024-11-06T20:00:00	8	Radiación solar	0
45865	7	Sololá	701	Sololá	3	Barraneche	8	Agosto	2023-08-27T00:00:00	2024-11-06T21:00:00	2	Temperatura media	15.2
45866	7	Sololá	701	Sololá	3	Barraneche	8	Agosto	2023-08-27T00:00:00	2024-11-06T21:00:00	4	Temperatura máxima	15.5
45867	7	Sololá	701	Sololá	3	Barraneche	8	Agosto	2023-08-27T00:00:00	2024-11-06T21:00:00	3	Temperatura mínima	15.2
45868	7	Sololá	701	Sololá	3	Barraneche	8	Agosto	2023-08-27T00:00:00	2024-11-06T21:00:00	5	Humedad	82
45869	7	Sololá	701	Sololá	3	Barraneche	8	Agosto	2023-08-27T00:00:00	2024-11-06T21:00:00	6	Velocidad del viento	1.6
45870	7	Sololá	701	Sololá	3	Barraneche	8	Agosto	2023-08-27T00:00:00	2024-11-06T21:00:00	7	Dirección del viento	1.61
45871	7	Sololá	701	Sololá	3	Barraneche	8	Agosto	2023-08-27T00:00:00	2024-11-06T21:00:00	1	Precipitación	0
45872	7	Sololá	701	Sololá	3	Barraneche	8	Agosto	2023-08-27T00:00:00	2024-11-06T21:00:00	8	Radiación solar	0
45873	7	Sololá	701	Sololá	3	Barraneche	8	Agosto	2023-08-27T00:00:00	2024-11-06T22:00:00	2	Temperatura media	14.6
45874	7	Sololá	701	Sololá	3	Barraneche	8	Agosto	2023-08-27T00:00:00	2024-11-06T22:00:00	4	Temperatura máxima	15.2
45875	7	Sololá	701	Sololá	3	Barraneche	8	Agosto	2023-08-27T00:00:00	2024-11-06T22:00:00	3	Temperatura mínima	14.6
45876	7	Sololá	701	Sololá	3	Barraneche	8	Agosto	2023-08-27T00:00:00	2024-11-06T22:00:00	5	Humedad	79
45877	7	Sololá	701	Sololá	3	Barraneche	8	Agosto	2023-08-27T00:00:00	2024-11-06T22:00:00	6	Velocidad del viento	3.2
45878	7	Sololá	701	Sololá	3	Barraneche	8	Agosto	2023-08-27T00:00:00	2024-11-06T22:00:00	7	Dirección del viento	3.22
45879	7	Sololá	701	Sololá	3	Barraneche	8	Agosto	2023-08-27T00:00:00	2024-11-06T22:00:00	1	Precipitación	0.8
45880	7	Sololá	701	Sololá	3	Barraneche	8	Agosto	2023-08-27T00:00:00	2024-11-06T22:00:00	8	Radiación solar	0
45881	7	Sololá	701	Sololá	3	Barraneche	8	Agosto	2023-08-27T00:00:00	2024-11-06T23:00:00	2	Temperatura media	14.2
45882	7	Sololá	701	Sololá	3	Barraneche	8	Agosto	2023-08-27T00:00:00	2024-11-06T23:00:00	4	Temperatura máxima	14.6
45883	7	Sololá	701	Sololá	3	Barraneche	8	Agosto	2023-08-27T00:00:00	2024-11-06T23:00:00	3	Temperatura mínima	14.2
45884	7	Sololá	701	Sololá	3	Barraneche	8	Agosto	2023-08-27T00:00:00	2024-11-06T23:00:00	5	Humedad	84
45885	7	Sololá	701	Sololá	3	Barraneche	8	Agosto	2023-08-27T00:00:00	2024-11-06T23:00:00	6	Velocidad del viento	1.6
45886	7	Sololá	701	Sololá	3	Barraneche	8	Agosto	2023-08-27T00:00:00	2024-11-06T23:00:00	7	Dirección del viento	1.61
45887	7	Sololá	701	Sololá	3	Barraneche	8	Agosto	2023-08-27T00:00:00	2024-11-06T23:00:00	1	Precipitación	1.2
45888	7	Sololá	701	Sololá	3	Barraneche	8	Agosto	2023-08-27T00:00:00	2024-11-06T23:00:00	8	Radiación solar	0
45889	7	Sololá	701	Sololá	3	Barraneche	8	Agosto	2023-08-28T00:00:00	2024-11-06T00:00:00	2	Temperatura media	13.2
45890	7	Sololá	701	Sololá	3	Barraneche	8	Agosto	2023-08-28T00:00:00	2024-11-06T00:00:00	4	Temperatura máxima	14.2
45891	7	Sololá	701	Sololá	3	Barraneche	8	Agosto	2023-08-28T00:00:00	2024-11-06T00:00:00	3	Temperatura mínima	13.1
45892	7	Sololá	701	Sololá	3	Barraneche	8	Agosto	2023-08-28T00:00:00	2024-11-06T00:00:00	5	Humedad	77
45893	7	Sololá	701	Sololá	3	Barraneche	8	Agosto	2023-08-28T00:00:00	2024-11-06T00:00:00	6	Velocidad del viento	4.8
45894	7	Sololá	701	Sololá	3	Barraneche	8	Agosto	2023-08-28T00:00:00	2024-11-06T00:00:00	7	Dirección del viento	4.83
45895	7	Sololá	701	Sololá	3	Barraneche	8	Agosto	2023-08-28T00:00:00	2024-11-06T00:00:00	1	Precipitación	0.6
45896	7	Sololá	701	Sololá	3	Barraneche	8	Agosto	2023-08-28T00:00:00	2024-11-06T00:00:00	8	Radiación solar	0
45897	7	Sololá	701	Sololá	3	Barraneche	8	Agosto	2023-08-28T00:00:00	2024-11-06T01:00:00	2	Temperatura media	13.3
45898	7	Sololá	701	Sololá	3	Barraneche	8	Agosto	2023-08-28T00:00:00	2024-11-06T01:00:00	4	Temperatura máxima	13.4
45899	7	Sololá	701	Sololá	3	Barraneche	8	Agosto	2023-08-28T00:00:00	2024-11-06T01:00:00	3	Temperatura mínima	13.1
45900	7	Sololá	701	Sololá	3	Barraneche	8	Agosto	2023-08-28T00:00:00	2024-11-06T01:00:00	5	Humedad	77
45901	7	Sololá	701	Sololá	3	Barraneche	8	Agosto	2023-08-28T00:00:00	2024-11-06T01:00:00	6	Velocidad del viento	4.8
45902	7	Sololá	701	Sololá	3	Barraneche	8	Agosto	2023-08-28T00:00:00	2024-11-06T01:00:00	7	Dirección del viento	4.83
45903	7	Sololá	701	Sololá	3	Barraneche	8	Agosto	2023-08-28T00:00:00	2024-11-06T01:00:00	1	Precipitación	0
45904	7	Sololá	701	Sololá	3	Barraneche	8	Agosto	2023-08-28T00:00:00	2024-11-06T01:00:00	8	Radiación solar	0
45905	7	Sololá	701	Sololá	3	Barraneche	8	Agosto	2023-08-28T00:00:00	2024-11-06T02:00:00	2	Temperatura media	13.1
45906	7	Sololá	701	Sololá	3	Barraneche	8	Agosto	2023-08-28T00:00:00	2024-11-06T02:00:00	4	Temperatura máxima	13.4
45907	7	Sololá	701	Sololá	3	Barraneche	8	Agosto	2023-08-28T00:00:00	2024-11-06T02:00:00	3	Temperatura mínima	13.1
45908	7	Sololá	701	Sololá	3	Barraneche	8	Agosto	2023-08-28T00:00:00	2024-11-06T02:00:00	5	Humedad	80
45909	7	Sololá	701	Sololá	3	Barraneche	8	Agosto	2023-08-28T00:00:00	2024-11-06T02:00:00	6	Velocidad del viento	1.6
45910	7	Sololá	701	Sololá	3	Barraneche	8	Agosto	2023-08-28T00:00:00	2024-11-06T02:00:00	7	Dirección del viento	1.61
45911	7	Sololá	701	Sololá	3	Barraneche	8	Agosto	2023-08-28T00:00:00	2024-11-06T02:00:00	1	Precipitación	0.4
45912	7	Sololá	701	Sololá	3	Barraneche	8	Agosto	2023-08-28T00:00:00	2024-11-06T02:00:00	8	Radiación solar	0
45913	7	Sololá	701	Sololá	3	Barraneche	8	Agosto	2023-08-28T00:00:00	2024-11-06T03:00:00	2	Temperatura media	12.9
45914	7	Sololá	701	Sololá	3	Barraneche	8	Agosto	2023-08-28T00:00:00	2024-11-06T03:00:00	4	Temperatura máxima	13.2
45915	7	Sololá	701	Sololá	3	Barraneche	8	Agosto	2023-08-28T00:00:00	2024-11-06T03:00:00	3	Temperatura mínima	12.9
45916	7	Sololá	701	Sololá	3	Barraneche	8	Agosto	2023-08-28T00:00:00	2024-11-06T03:00:00	5	Humedad	85
45917	7	Sololá	701	Sololá	3	Barraneche	8	Agosto	2023-08-28T00:00:00	2024-11-06T03:00:00	6	Velocidad del viento	1.6
45918	7	Sololá	701	Sololá	3	Barraneche	8	Agosto	2023-08-28T00:00:00	2024-11-06T03:00:00	7	Dirección del viento	1.61
45919	7	Sololá	701	Sololá	3	Barraneche	8	Agosto	2023-08-28T00:00:00	2024-11-06T03:00:00	1	Precipitación	0.6
45920	7	Sololá	701	Sololá	3	Barraneche	8	Agosto	2023-08-28T00:00:00	2024-11-06T03:00:00	8	Radiación solar	0
45921	7	Sololá	701	Sololá	3	Barraneche	8	Agosto	2023-08-28T00:00:00	2024-11-06T04:00:00	2	Temperatura media	12.8
45922	7	Sololá	701	Sololá	3	Barraneche	8	Agosto	2023-08-28T00:00:00	2024-11-06T04:00:00	4	Temperatura máxima	12.9
45923	7	Sololá	701	Sololá	3	Barraneche	8	Agosto	2023-08-28T00:00:00	2024-11-06T04:00:00	3	Temperatura mínima	12.8
45924	7	Sololá	701	Sololá	3	Barraneche	8	Agosto	2023-08-28T00:00:00	2024-11-06T04:00:00	5	Humedad	85
45925	7	Sololá	701	Sololá	3	Barraneche	8	Agosto	2023-08-28T00:00:00	2024-11-06T04:00:00	6	Velocidad del viento	1.6
45926	7	Sololá	701	Sololá	3	Barraneche	8	Agosto	2023-08-28T00:00:00	2024-11-06T04:00:00	7	Dirección del viento	1.61
45927	7	Sololá	701	Sololá	3	Barraneche	8	Agosto	2023-08-28T00:00:00	2024-11-06T04:00:00	1	Precipitación	0
45928	7	Sololá	701	Sololá	3	Barraneche	8	Agosto	2023-08-28T00:00:00	2024-11-06T04:00:00	8	Radiación solar	0
45929	7	Sololá	701	Sololá	3	Barraneche	8	Agosto	2023-08-28T00:00:00	2024-11-06T05:00:00	2	Temperatura media	12.8
45930	7	Sololá	701	Sololá	3	Barraneche	8	Agosto	2023-08-28T00:00:00	2024-11-06T05:00:00	4	Temperatura máxima	12.9
45931	7	Sololá	701	Sololá	3	Barraneche	8	Agosto	2023-08-28T00:00:00	2024-11-06T05:00:00	3	Temperatura mínima	12.7
45932	7	Sololá	701	Sololá	3	Barraneche	8	Agosto	2023-08-28T00:00:00	2024-11-06T05:00:00	5	Humedad	81
45933	7	Sololá	701	Sololá	3	Barraneche	8	Agosto	2023-08-28T00:00:00	2024-11-06T05:00:00	6	Velocidad del viento	3.2
45934	7	Sololá	701	Sololá	3	Barraneche	8	Agosto	2023-08-28T00:00:00	2024-11-06T05:00:00	7	Dirección del viento	3.22
45935	7	Sololá	701	Sololá	3	Barraneche	8	Agosto	2023-08-28T00:00:00	2024-11-06T05:00:00	1	Precipitación	0.2
45936	7	Sololá	701	Sololá	3	Barraneche	8	Agosto	2023-08-28T00:00:00	2024-11-06T05:00:00	8	Radiación solar	0
45937	7	Sololá	701	Sololá	3	Barraneche	8	Agosto	2023-08-28T00:00:00	2024-11-06T06:00:00	2	Temperatura media	12.2
45938	7	Sololá	701	Sololá	3	Barraneche	8	Agosto	2023-08-28T00:00:00	2024-11-06T06:00:00	4	Temperatura máxima	12.8
45939	7	Sololá	701	Sololá	3	Barraneche	8	Agosto	2023-08-28T00:00:00	2024-11-06T06:00:00	3	Temperatura mínima	12.1
45940	7	Sololá	701	Sololá	3	Barraneche	8	Agosto	2023-08-28T00:00:00	2024-11-06T06:00:00	5	Humedad	77
45941	7	Sololá	701	Sololá	3	Barraneche	8	Agosto	2023-08-28T00:00:00	2024-11-06T06:00:00	6	Velocidad del viento	4.8
45942	7	Sololá	701	Sololá	3	Barraneche	8	Agosto	2023-08-28T00:00:00	2024-11-06T06:00:00	7	Dirección del viento	4.83
45943	7	Sololá	701	Sololá	3	Barraneche	8	Agosto	2023-08-28T00:00:00	2024-11-06T06:00:00	1	Precipitación	0
45944	7	Sololá	701	Sololá	3	Barraneche	8	Agosto	2023-08-28T00:00:00	2024-11-06T06:00:00	8	Radiación solar	0
45945	7	Sololá	701	Sololá	3	Barraneche	8	Agosto	2023-08-28T00:00:00	2024-11-06T07:00:00	2	Temperatura media	13.1
45946	7	Sololá	701	Sololá	3	Barraneche	8	Agosto	2023-08-28T00:00:00	2024-11-06T07:00:00	4	Temperatura máxima	13.1
45947	7	Sololá	701	Sololá	3	Barraneche	8	Agosto	2023-08-28T00:00:00	2024-11-06T07:00:00	3	Temperatura mínima	12.2
45948	7	Sololá	701	Sololá	3	Barraneche	8	Agosto	2023-08-28T00:00:00	2024-11-06T07:00:00	5	Humedad	76
45949	7	Sololá	701	Sololá	3	Barraneche	8	Agosto	2023-08-28T00:00:00	2024-11-06T07:00:00	6	Velocidad del viento	3.2
45950	7	Sololá	701	Sololá	3	Barraneche	8	Agosto	2023-08-28T00:00:00	2024-11-06T07:00:00	7	Dirección del viento	3.22
45951	7	Sololá	701	Sololá	3	Barraneche	8	Agosto	2023-08-28T00:00:00	2024-11-06T07:00:00	1	Precipitación	0
45952	7	Sololá	701	Sololá	3	Barraneche	8	Agosto	2023-08-28T00:00:00	2024-11-06T07:00:00	8	Radiación solar	58
45953	7	Sololá	701	Sololá	3	Barraneche	8	Agosto	2023-08-28T00:00:00	2024-11-06T08:00:00	2	Temperatura media	16.3
45954	7	Sololá	701	Sololá	3	Barraneche	8	Agosto	2023-08-28T00:00:00	2024-11-06T08:00:00	4	Temperatura máxima	16.4
45955	7	Sololá	701	Sololá	3	Barraneche	8	Agosto	2023-08-28T00:00:00	2024-11-06T08:00:00	3	Temperatura mínima	13.1
45956	7	Sololá	701	Sololá	3	Barraneche	8	Agosto	2023-08-28T00:00:00	2024-11-06T08:00:00	5	Humedad	68
45957	7	Sololá	701	Sololá	3	Barraneche	8	Agosto	2023-08-28T00:00:00	2024-11-06T08:00:00	6	Velocidad del viento	3.2
45958	7	Sololá	701	Sololá	3	Barraneche	8	Agosto	2023-08-28T00:00:00	2024-11-06T08:00:00	7	Dirección del viento	3.22
45959	7	Sololá	701	Sololá	3	Barraneche	8	Agosto	2023-08-28T00:00:00	2024-11-06T08:00:00	1	Precipitación	0
45960	7	Sololá	701	Sololá	3	Barraneche	8	Agosto	2023-08-28T00:00:00	2024-11-06T08:00:00	8	Radiación solar	356
45961	7	Sololá	701	Sololá	3	Barraneche	8	Agosto	2023-08-28T00:00:00	2024-11-06T09:00:00	2	Temperatura media	16.4
45962	7	Sololá	701	Sololá	3	Barraneche	8	Agosto	2023-08-28T00:00:00	2024-11-06T09:00:00	4	Temperatura máxima	16.4
45963	7	Sololá	701	Sololá	3	Barraneche	8	Agosto	2023-08-28T00:00:00	2024-11-06T09:00:00	3	Temperatura mínima	15.7
45964	7	Sololá	701	Sololá	3	Barraneche	8	Agosto	2023-08-28T00:00:00	2024-11-06T09:00:00	5	Humedad	72
45965	7	Sololá	701	Sololá	3	Barraneche	8	Agosto	2023-08-28T00:00:00	2024-11-06T09:00:00	6	Velocidad del viento	6.4
45966	7	Sololá	701	Sololá	3	Barraneche	8	Agosto	2023-08-28T00:00:00	2024-11-06T09:00:00	7	Dirección del viento	6.44
45967	7	Sololá	701	Sololá	3	Barraneche	8	Agosto	2023-08-28T00:00:00	2024-11-06T09:00:00	1	Precipitación	0
45968	7	Sololá	701	Sololá	3	Barraneche	8	Agosto	2023-08-28T00:00:00	2024-11-06T09:00:00	8	Radiación solar	427
45969	7	Sololá	701	Sololá	3	Barraneche	8	Agosto	2023-08-28T00:00:00	2024-11-06T10:00:00	2	Temperatura media	17.8
45970	7	Sololá	701	Sololá	3	Barraneche	8	Agosto	2023-08-28T00:00:00	2024-11-06T10:00:00	4	Temperatura máxima	18.2
45971	7	Sololá	701	Sololá	3	Barraneche	8	Agosto	2023-08-28T00:00:00	2024-11-06T10:00:00	3	Temperatura mínima	16.5
45972	7	Sololá	701	Sololá	3	Barraneche	8	Agosto	2023-08-28T00:00:00	2024-11-06T10:00:00	5	Humedad	69
45973	7	Sololá	701	Sololá	3	Barraneche	8	Agosto	2023-08-28T00:00:00	2024-11-06T10:00:00	6	Velocidad del viento	8
45974	7	Sololá	701	Sololá	3	Barraneche	8	Agosto	2023-08-28T00:00:00	2024-11-06T10:00:00	7	Dirección del viento	8.05
45975	7	Sololá	701	Sololá	3	Barraneche	8	Agosto	2023-08-28T00:00:00	2024-11-06T10:00:00	1	Precipitación	0
45976	7	Sololá	701	Sololá	3	Barraneche	8	Agosto	2023-08-28T00:00:00	2024-11-06T10:00:00	8	Radiación solar	837
45977	7	Sololá	701	Sololá	3	Barraneche	8	Agosto	2023-08-28T00:00:00	2024-11-06T11:00:00	2	Temperatura media	17.8
45978	7	Sololá	701	Sololá	3	Barraneche	8	Agosto	2023-08-28T00:00:00	2024-11-06T11:00:00	4	Temperatura máxima	18.4
45979	7	Sololá	701	Sololá	3	Barraneche	8	Agosto	2023-08-28T00:00:00	2024-11-06T11:00:00	3	Temperatura mínima	17.8
45980	7	Sololá	701	Sololá	3	Barraneche	8	Agosto	2023-08-28T00:00:00	2024-11-06T11:00:00	5	Humedad	69
45981	7	Sololá	701	Sololá	3	Barraneche	8	Agosto	2023-08-28T00:00:00	2024-11-06T11:00:00	6	Velocidad del viento	9.7
45982	7	Sololá	701	Sololá	3	Barraneche	8	Agosto	2023-08-28T00:00:00	2024-11-06T11:00:00	7	Dirección del viento	9.66
45983	7	Sololá	701	Sololá	3	Barraneche	8	Agosto	2023-08-28T00:00:00	2024-11-06T11:00:00	1	Precipitación	0
45984	7	Sololá	701	Sololá	3	Barraneche	8	Agosto	2023-08-28T00:00:00	2024-11-06T11:00:00	8	Radiación solar	797
45985	7	Sololá	701	Sololá	3	Barraneche	8	Agosto	2023-08-28T00:00:00	2024-11-06T12:00:00	2	Temperatura media	17.3
45986	7	Sololá	701	Sololá	3	Barraneche	8	Agosto	2023-08-28T00:00:00	2024-11-06T12:00:00	4	Temperatura máxima	18.9
45987	7	Sololá	701	Sololá	3	Barraneche	8	Agosto	2023-08-28T00:00:00	2024-11-06T12:00:00	3	Temperatura mínima	17.2
45988	7	Sololá	701	Sololá	3	Barraneche	8	Agosto	2023-08-28T00:00:00	2024-11-06T12:00:00	5	Humedad	73
45989	7	Sololá	701	Sololá	3	Barraneche	8	Agosto	2023-08-28T00:00:00	2024-11-06T12:00:00	6	Velocidad del viento	9.7
45990	7	Sololá	701	Sololá	3	Barraneche	8	Agosto	2023-08-28T00:00:00	2024-11-06T12:00:00	7	Dirección del viento	9.66
45991	7	Sololá	701	Sololá	3	Barraneche	8	Agosto	2023-08-28T00:00:00	2024-11-06T12:00:00	1	Precipitación	0
45992	7	Sololá	701	Sololá	3	Barraneche	8	Agosto	2023-08-28T00:00:00	2024-11-06T12:00:00	8	Radiación solar	574
45993	7	Sololá	701	Sololá	3	Barraneche	8	Agosto	2023-08-28T00:00:00	2024-11-06T13:00:00	2	Temperatura media	16.3
45994	7	Sololá	701	Sololá	3	Barraneche	8	Agosto	2023-08-28T00:00:00	2024-11-06T13:00:00	4	Temperatura máxima	17.4
45995	7	Sololá	701	Sololá	3	Barraneche	8	Agosto	2023-08-28T00:00:00	2024-11-06T13:00:00	3	Temperatura mínima	16.3
45996	7	Sololá	701	Sololá	3	Barraneche	8	Agosto	2023-08-28T00:00:00	2024-11-06T13:00:00	5	Humedad	75
45997	7	Sololá	701	Sololá	3	Barraneche	8	Agosto	2023-08-28T00:00:00	2024-11-06T13:00:00	6	Velocidad del viento	11.3
45998	7	Sololá	701	Sololá	3	Barraneche	8	Agosto	2023-08-28T00:00:00	2024-11-06T13:00:00	7	Dirección del viento	11.27
45999	7	Sololá	701	Sololá	3	Barraneche	8	Agosto	2023-08-28T00:00:00	2024-11-06T13:00:00	1	Precipitación	0
46000	7	Sololá	701	Sololá	3	Barraneche	8	Agosto	2023-08-28T00:00:00	2024-11-06T13:00:00	8	Radiación solar	224
46001	7	Sololá	701	Sololá	3	Barraneche	8	Agosto	2023-08-28T00:00:00	2024-11-06T14:00:00	2	Temperatura media	16
46002	7	Sololá	701	Sololá	3	Barraneche	8	Agosto	2023-08-28T00:00:00	2024-11-06T14:00:00	4	Temperatura máxima	16.4
46003	7	Sololá	701	Sololá	3	Barraneche	8	Agosto	2023-08-28T00:00:00	2024-11-06T14:00:00	3	Temperatura mínima	16
46004	7	Sololá	701	Sololá	3	Barraneche	8	Agosto	2023-08-28T00:00:00	2024-11-06T14:00:00	5	Humedad	75
46005	7	Sololá	701	Sololá	3	Barraneche	8	Agosto	2023-08-28T00:00:00	2024-11-06T14:00:00	6	Velocidad del viento	11.3
46006	7	Sololá	701	Sololá	3	Barraneche	8	Agosto	2023-08-28T00:00:00	2024-11-06T14:00:00	7	Dirección del viento	11.27
46007	7	Sololá	701	Sololá	3	Barraneche	8	Agosto	2023-08-28T00:00:00	2024-11-06T14:00:00	1	Precipitación	0
46008	7	Sololá	701	Sololá	3	Barraneche	8	Agosto	2023-08-28T00:00:00	2024-11-06T14:00:00	8	Radiación solar	165
46009	7	Sololá	701	Sololá	3	Barraneche	8	Agosto	2023-08-28T00:00:00	2024-11-06T15:00:00	2	Temperatura media	15.4
46010	7	Sololá	701	Sololá	3	Barraneche	8	Agosto	2023-08-28T00:00:00	2024-11-06T15:00:00	4	Temperatura máxima	16.1
46011	7	Sololá	701	Sololá	3	Barraneche	8	Agosto	2023-08-28T00:00:00	2024-11-06T15:00:00	3	Temperatura mínima	15.2
46012	7	Sololá	701	Sololá	3	Barraneche	8	Agosto	2023-08-28T00:00:00	2024-11-06T15:00:00	5	Humedad	73
46013	7	Sololá	701	Sololá	3	Barraneche	8	Agosto	2023-08-28T00:00:00	2024-11-06T15:00:00	6	Velocidad del viento	6.4
46014	7	Sololá	701	Sololá	3	Barraneche	8	Agosto	2023-08-28T00:00:00	2024-11-06T15:00:00	7	Dirección del viento	6.44
46015	7	Sololá	701	Sololá	3	Barraneche	8	Agosto	2023-08-28T00:00:00	2024-11-06T15:00:00	1	Precipitación	0
46016	7	Sololá	701	Sololá	3	Barraneche	8	Agosto	2023-08-28T00:00:00	2024-11-06T15:00:00	8	Radiación solar	30
46017	7	Sololá	701	Sololá	3	Barraneche	8	Agosto	2023-08-28T00:00:00	2024-11-06T16:00:00	2	Temperatura media	15.1
46018	7	Sololá	701	Sololá	3	Barraneche	8	Agosto	2023-08-28T00:00:00	2024-11-06T16:00:00	4	Temperatura máxima	15.4
46019	7	Sololá	701	Sololá	3	Barraneche	8	Agosto	2023-08-28T00:00:00	2024-11-06T16:00:00	3	Temperatura mínima	15.1
46020	7	Sololá	701	Sololá	3	Barraneche	8	Agosto	2023-08-28T00:00:00	2024-11-06T16:00:00	5	Humedad	76
46021	7	Sololá	701	Sololá	3	Barraneche	8	Agosto	2023-08-28T00:00:00	2024-11-06T16:00:00	6	Velocidad del viento	1.6
46022	7	Sololá	701	Sololá	3	Barraneche	8	Agosto	2023-08-28T00:00:00	2024-11-06T16:00:00	7	Dirección del viento	1.61
46023	7	Sololá	701	Sololá	3	Barraneche	8	Agosto	2023-08-28T00:00:00	2024-11-06T16:00:00	1	Precipitación	1.4
46024	7	Sololá	701	Sololá	3	Barraneche	8	Agosto	2023-08-28T00:00:00	2024-11-06T16:00:00	8	Radiación solar	43
46025	7	Sololá	701	Sololá	3	Barraneche	8	Agosto	2023-08-28T00:00:00	2024-11-06T17:00:00	2	Temperatura media	14.7
46026	7	Sololá	701	Sololá	3	Barraneche	8	Agosto	2023-08-28T00:00:00	2024-11-06T17:00:00	4	Temperatura máxima	15.1
46027	7	Sololá	701	Sololá	3	Barraneche	8	Agosto	2023-08-28T00:00:00	2024-11-06T17:00:00	3	Temperatura mínima	14.6
46028	7	Sololá	701	Sololá	3	Barraneche	8	Agosto	2023-08-28T00:00:00	2024-11-06T17:00:00	5	Humedad	83
46029	7	Sololá	701	Sololá	3	Barraneche	8	Agosto	2023-08-28T00:00:00	2024-11-06T17:00:00	6	Velocidad del viento	3.2
46030	7	Sololá	701	Sololá	3	Barraneche	8	Agosto	2023-08-28T00:00:00	2024-11-06T17:00:00	7	Dirección del viento	3.22
46031	7	Sololá	701	Sololá	3	Barraneche	8	Agosto	2023-08-28T00:00:00	2024-11-06T17:00:00	1	Precipitación	1.8
46032	7	Sololá	701	Sololá	3	Barraneche	8	Agosto	2023-08-28T00:00:00	2024-11-06T17:00:00	8	Radiación solar	28
46033	7	Sololá	701	Sololá	3	Barraneche	8	Agosto	2023-08-28T00:00:00	2024-11-06T18:00:00	2	Temperatura media	14.5
46034	7	Sololá	701	Sololá	3	Barraneche	8	Agosto	2023-08-28T00:00:00	2024-11-06T18:00:00	4	Temperatura máxima	14.7
46035	7	Sololá	701	Sololá	3	Barraneche	8	Agosto	2023-08-28T00:00:00	2024-11-06T18:00:00	3	Temperatura mínima	14.4
46036	7	Sololá	701	Sololá	3	Barraneche	8	Agosto	2023-08-28T00:00:00	2024-11-06T18:00:00	5	Humedad	85
46037	7	Sololá	701	Sololá	3	Barraneche	8	Agosto	2023-08-28T00:00:00	2024-11-06T18:00:00	6	Velocidad del viento	3.2
46038	7	Sololá	701	Sololá	3	Barraneche	8	Agosto	2023-08-28T00:00:00	2024-11-06T18:00:00	7	Dirección del viento	3.22
46039	7	Sololá	701	Sololá	3	Barraneche	8	Agosto	2023-08-28T00:00:00	2024-11-06T18:00:00	1	Precipitación	0.2
46040	7	Sololá	701	Sololá	3	Barraneche	8	Agosto	2023-08-28T00:00:00	2024-11-06T18:00:00	8	Radiación solar	29
46041	7	Sololá	701	Sololá	3	Barraneche	8	Agosto	2023-08-28T00:00:00	2024-11-06T19:00:00	2	Temperatura media	14.1
46042	7	Sololá	701	Sololá	3	Barraneche	8	Agosto	2023-08-28T00:00:00	2024-11-06T19:00:00	4	Temperatura máxima	14.5
46043	7	Sololá	701	Sololá	3	Barraneche	8	Agosto	2023-08-28T00:00:00	2024-11-06T19:00:00	3	Temperatura mínima	14.1
46044	7	Sololá	701	Sololá	3	Barraneche	8	Agosto	2023-08-28T00:00:00	2024-11-06T19:00:00	5	Humedad	86
46045	7	Sololá	701	Sololá	3	Barraneche	8	Agosto	2023-08-28T00:00:00	2024-11-06T19:00:00	6	Velocidad del viento	3.2
46046	7	Sololá	701	Sololá	3	Barraneche	8	Agosto	2023-08-28T00:00:00	2024-11-06T19:00:00	7	Dirección del viento	3.22
46047	7	Sololá	701	Sololá	3	Barraneche	8	Agosto	2023-08-28T00:00:00	2024-11-06T19:00:00	1	Precipitación	0
46048	7	Sololá	701	Sololá	3	Barraneche	8	Agosto	2023-08-28T00:00:00	2024-11-06T19:00:00	8	Radiación solar	0
46049	7	Sololá	701	Sololá	3	Barraneche	8	Agosto	2023-08-28T00:00:00	2024-11-06T20:00:00	2	Temperatura media	13.6
46050	7	Sololá	701	Sololá	3	Barraneche	8	Agosto	2023-08-28T00:00:00	2024-11-06T20:00:00	4	Temperatura máxima	14.2
46051	7	Sololá	701	Sololá	3	Barraneche	8	Agosto	2023-08-28T00:00:00	2024-11-06T20:00:00	3	Temperatura mínima	13.6
46052	7	Sololá	701	Sololá	3	Barraneche	8	Agosto	2023-08-28T00:00:00	2024-11-06T20:00:00	5	Humedad	86
46053	7	Sololá	701	Sololá	3	Barraneche	8	Agosto	2023-08-28T00:00:00	2024-11-06T20:00:00	6	Velocidad del viento	1.6
46054	7	Sololá	701	Sololá	3	Barraneche	8	Agosto	2023-08-28T00:00:00	2024-11-06T20:00:00	7	Dirección del viento	1.61
46055	7	Sololá	701	Sololá	3	Barraneche	8	Agosto	2023-08-28T00:00:00	2024-11-06T20:00:00	1	Precipitación	0
46056	7	Sololá	701	Sololá	3	Barraneche	8	Agosto	2023-08-28T00:00:00	2024-11-06T20:00:00	8	Radiación solar	0
46057	7	Sololá	701	Sololá	3	Barraneche	8	Agosto	2023-08-28T00:00:00	2024-11-06T21:00:00	2	Temperatura media	13.8
46058	7	Sololá	701	Sololá	3	Barraneche	8	Agosto	2023-08-28T00:00:00	2024-11-06T21:00:00	4	Temperatura máxima	13.9
46059	7	Sololá	701	Sololá	3	Barraneche	8	Agosto	2023-08-28T00:00:00	2024-11-06T21:00:00	3	Temperatura mínima	13.3
46060	7	Sololá	701	Sololá	3	Barraneche	8	Agosto	2023-08-28T00:00:00	2024-11-06T21:00:00	5	Humedad	86
46061	7	Sololá	701	Sololá	3	Barraneche	8	Agosto	2023-08-28T00:00:00	2024-11-06T21:00:00	6	Velocidad del viento	3.2
46062	7	Sololá	701	Sololá	3	Barraneche	8	Agosto	2023-08-28T00:00:00	2024-11-06T21:00:00	7	Dirección del viento	3.22
46063	7	Sololá	701	Sololá	3	Barraneche	8	Agosto	2023-08-28T00:00:00	2024-11-06T21:00:00	1	Precipitación	0.2
46064	7	Sololá	701	Sololá	3	Barraneche	8	Agosto	2023-08-28T00:00:00	2024-11-06T21:00:00	8	Radiación solar	0
46065	7	Sololá	701	Sololá	3	Barraneche	8	Agosto	2023-08-28T00:00:00	2024-11-06T22:00:00	2	Temperatura media	13.4
46066	7	Sololá	701	Sololá	3	Barraneche	8	Agosto	2023-08-28T00:00:00	2024-11-06T22:00:00	4	Temperatura máxima	13.8
46067	7	Sololá	701	Sololá	3	Barraneche	8	Agosto	2023-08-28T00:00:00	2024-11-06T22:00:00	3	Temperatura mínima	13.2
46068	7	Sololá	701	Sololá	3	Barraneche	8	Agosto	2023-08-28T00:00:00	2024-11-06T22:00:00	5	Humedad	85
46069	7	Sololá	701	Sololá	3	Barraneche	8	Agosto	2023-08-28T00:00:00	2024-11-06T22:00:00	6	Velocidad del viento	1.6
46070	7	Sololá	701	Sololá	3	Barraneche	8	Agosto	2023-08-28T00:00:00	2024-11-06T22:00:00	7	Dirección del viento	1.61
46071	7	Sololá	701	Sololá	3	Barraneche	8	Agosto	2023-08-28T00:00:00	2024-11-06T22:00:00	1	Precipitación	0
46072	7	Sololá	701	Sololá	3	Barraneche	8	Agosto	2023-08-28T00:00:00	2024-11-06T22:00:00	8	Radiación solar	0
46073	7	Sololá	701	Sololá	3	Barraneche	8	Agosto	2023-08-28T00:00:00	2024-11-06T23:00:00	2	Temperatura media	13
46074	7	Sololá	701	Sololá	3	Barraneche	8	Agosto	2023-08-28T00:00:00	2024-11-06T23:00:00	4	Temperatura máxima	13.5
46075	7	Sololá	701	Sololá	3	Barraneche	8	Agosto	2023-08-28T00:00:00	2024-11-06T23:00:00	3	Temperatura mínima	13
46076	7	Sololá	701	Sololá	3	Barraneche	8	Agosto	2023-08-28T00:00:00	2024-11-06T23:00:00	5	Humedad	84
46077	7	Sololá	701	Sololá	3	Barraneche	8	Agosto	2023-08-28T00:00:00	2024-11-06T23:00:00	6	Velocidad del viento	3.2
46078	7	Sololá	701	Sololá	3	Barraneche	8	Agosto	2023-08-28T00:00:00	2024-11-06T23:00:00	7	Dirección del viento	3.22
46079	7	Sololá	701	Sololá	3	Barraneche	8	Agosto	2023-08-28T00:00:00	2024-11-06T23:00:00	1	Precipitación	0
46080	7	Sololá	701	Sololá	3	Barraneche	8	Agosto	2023-08-28T00:00:00	2024-11-06T23:00:00	8	Radiación solar	0
46081	7	Sololá	701	Sololá	3	Barraneche	8	Agosto	2023-08-29T00:00:00	2024-11-06T00:00:00	2	Temperatura media	12.6
46082	7	Sololá	701	Sololá	3	Barraneche	8	Agosto	2023-08-29T00:00:00	2024-11-06T00:00:00	4	Temperatura máxima	13
46083	7	Sololá	701	Sololá	3	Barraneche	8	Agosto	2023-08-29T00:00:00	2024-11-06T00:00:00	3	Temperatura mínima	12.5
46084	7	Sololá	701	Sololá	3	Barraneche	8	Agosto	2023-08-29T00:00:00	2024-11-06T00:00:00	5	Humedad	82
46085	7	Sololá	701	Sololá	3	Barraneche	8	Agosto	2023-08-29T00:00:00	2024-11-06T00:00:00	6	Velocidad del viento	3.2
46086	7	Sololá	701	Sololá	3	Barraneche	8	Agosto	2023-08-29T00:00:00	2024-11-06T00:00:00	7	Dirección del viento	3.22
46087	7	Sololá	701	Sololá	3	Barraneche	8	Agosto	2023-08-29T00:00:00	2024-11-06T00:00:00	1	Precipitación	0
46088	7	Sololá	701	Sololá	3	Barraneche	8	Agosto	2023-08-29T00:00:00	2024-11-06T00:00:00	8	Radiación solar	0
46089	7	Sololá	701	Sololá	3	Barraneche	8	Agosto	2023-08-29T00:00:00	2024-11-06T01:00:00	2	Temperatura media	12.2
46090	7	Sololá	701	Sololá	3	Barraneche	8	Agosto	2023-08-29T00:00:00	2024-11-06T01:00:00	4	Temperatura máxima	12.7
46091	7	Sololá	701	Sololá	3	Barraneche	8	Agosto	2023-08-29T00:00:00	2024-11-06T01:00:00	3	Temperatura mínima	12.2
46092	7	Sololá	701	Sololá	3	Barraneche	8	Agosto	2023-08-29T00:00:00	2024-11-06T01:00:00	5	Humedad	82
46093	7	Sololá	701	Sololá	3	Barraneche	8	Agosto	2023-08-29T00:00:00	2024-11-06T01:00:00	6	Velocidad del viento	3.2
46094	7	Sololá	701	Sololá	3	Barraneche	8	Agosto	2023-08-29T00:00:00	2024-11-06T01:00:00	7	Dirección del viento	3.22
46095	7	Sololá	701	Sololá	3	Barraneche	8	Agosto	2023-08-29T00:00:00	2024-11-06T01:00:00	1	Precipitación	0
46096	7	Sololá	701	Sololá	3	Barraneche	8	Agosto	2023-08-29T00:00:00	2024-11-06T01:00:00	8	Radiación solar	0
46097	7	Sololá	701	Sololá	3	Barraneche	8	Agosto	2023-08-29T00:00:00	2024-11-06T02:00:00	2	Temperatura media	12.5
46098	7	Sololá	701	Sololá	3	Barraneche	8	Agosto	2023-08-29T00:00:00	2024-11-06T02:00:00	4	Temperatura máxima	12.6
46099	7	Sololá	701	Sololá	3	Barraneche	8	Agosto	2023-08-29T00:00:00	2024-11-06T02:00:00	3	Temperatura mínima	12.2
46100	7	Sololá	701	Sololá	3	Barraneche	8	Agosto	2023-08-29T00:00:00	2024-11-06T02:00:00	5	Humedad	81
46101	7	Sololá	701	Sololá	3	Barraneche	8	Agosto	2023-08-29T00:00:00	2024-11-06T02:00:00	6	Velocidad del viento	4.8
46102	7	Sololá	701	Sololá	3	Barraneche	8	Agosto	2023-08-29T00:00:00	2024-11-06T02:00:00	7	Dirección del viento	4.83
46103	7	Sololá	701	Sololá	3	Barraneche	8	Agosto	2023-08-29T00:00:00	2024-11-06T02:00:00	1	Precipitación	0
46104	7	Sololá	701	Sololá	3	Barraneche	8	Agosto	2023-08-29T00:00:00	2024-11-06T02:00:00	8	Radiación solar	0
46105	7	Sololá	701	Sololá	3	Barraneche	8	Agosto	2023-08-29T00:00:00	2024-11-06T03:00:00	2	Temperatura media	12.5
46106	7	Sololá	701	Sololá	3	Barraneche	8	Agosto	2023-08-29T00:00:00	2024-11-06T03:00:00	4	Temperatura máxima	12.7
46107	7	Sololá	701	Sololá	3	Barraneche	8	Agosto	2023-08-29T00:00:00	2024-11-06T03:00:00	3	Temperatura mínima	12.5
46108	7	Sololá	701	Sololá	3	Barraneche	8	Agosto	2023-08-29T00:00:00	2024-11-06T03:00:00	5	Humedad	81
46109	7	Sololá	701	Sololá	3	Barraneche	8	Agosto	2023-08-29T00:00:00	2024-11-06T03:00:00	6	Velocidad del viento	3.2
46110	7	Sololá	701	Sololá	3	Barraneche	8	Agosto	2023-08-29T00:00:00	2024-11-06T03:00:00	7	Dirección del viento	3.22
46111	7	Sololá	701	Sololá	3	Barraneche	8	Agosto	2023-08-29T00:00:00	2024-11-06T03:00:00	1	Precipitación	0
46112	7	Sololá	701	Sololá	3	Barraneche	8	Agosto	2023-08-29T00:00:00	2024-11-06T03:00:00	8	Radiación solar	0
46113	7	Sololá	701	Sololá	3	Barraneche	8	Agosto	2023-08-29T00:00:00	2024-11-06T04:00:00	2	Temperatura media	12.2
46114	7	Sololá	701	Sololá	3	Barraneche	8	Agosto	2023-08-29T00:00:00	2024-11-06T04:00:00	4	Temperatura máxima	12.7
46115	7	Sololá	701	Sololá	3	Barraneche	8	Agosto	2023-08-29T00:00:00	2024-11-06T04:00:00	3	Temperatura mínima	12.1
46116	7	Sololá	701	Sololá	3	Barraneche	8	Agosto	2023-08-29T00:00:00	2024-11-06T04:00:00	5	Humedad	81
46117	7	Sololá	701	Sololá	3	Barraneche	8	Agosto	2023-08-29T00:00:00	2024-11-06T04:00:00	6	Velocidad del viento	3.2
46118	7	Sololá	701	Sololá	3	Barraneche	8	Agosto	2023-08-29T00:00:00	2024-11-06T04:00:00	7	Dirección del viento	3.22
46119	7	Sololá	701	Sololá	3	Barraneche	8	Agosto	2023-08-29T00:00:00	2024-11-06T04:00:00	1	Precipitación	0
46120	7	Sololá	701	Sololá	3	Barraneche	8	Agosto	2023-08-29T00:00:00	2024-11-06T04:00:00	8	Radiación solar	0
46121	7	Sololá	701	Sololá	3	Barraneche	8	Agosto	2023-08-29T00:00:00	2024-11-06T05:00:00	2	Temperatura media	11.8
46122	7	Sololá	701	Sololá	3	Barraneche	8	Agosto	2023-08-29T00:00:00	2024-11-06T05:00:00	4	Temperatura máxima	12.3
46123	7	Sololá	701	Sololá	3	Barraneche	8	Agosto	2023-08-29T00:00:00	2024-11-06T05:00:00	3	Temperatura mínima	11.8
46124	7	Sololá	701	Sololá	3	Barraneche	8	Agosto	2023-08-29T00:00:00	2024-11-06T05:00:00	5	Humedad	81
46125	7	Sololá	701	Sololá	3	Barraneche	8	Agosto	2023-08-29T00:00:00	2024-11-06T05:00:00	6	Velocidad del viento	4.8
46126	7	Sololá	701	Sololá	3	Barraneche	8	Agosto	2023-08-29T00:00:00	2024-11-06T05:00:00	7	Dirección del viento	4.83
46127	7	Sololá	701	Sololá	3	Barraneche	8	Agosto	2023-08-29T00:00:00	2024-11-06T05:00:00	1	Precipitación	0
46128	7	Sololá	701	Sololá	3	Barraneche	8	Agosto	2023-08-29T00:00:00	2024-11-06T05:00:00	8	Radiación solar	0
46129	7	Sololá	701	Sololá	3	Barraneche	8	Agosto	2023-08-29T00:00:00	2024-11-06T06:00:00	2	Temperatura media	11.4
46130	7	Sololá	701	Sololá	3	Barraneche	8	Agosto	2023-08-29T00:00:00	2024-11-06T06:00:00	4	Temperatura máxima	11.8
46131	7	Sololá	701	Sololá	3	Barraneche	8	Agosto	2023-08-29T00:00:00	2024-11-06T06:00:00	3	Temperatura mínima	11.3
46132	7	Sololá	701	Sololá	3	Barraneche	8	Agosto	2023-08-29T00:00:00	2024-11-06T06:00:00	5	Humedad	82
46133	7	Sololá	701	Sololá	3	Barraneche	8	Agosto	2023-08-29T00:00:00	2024-11-06T06:00:00	6	Velocidad del viento	3.2
46134	7	Sololá	701	Sololá	3	Barraneche	8	Agosto	2023-08-29T00:00:00	2024-11-06T06:00:00	7	Dirección del viento	3.22
46135	7	Sololá	701	Sololá	3	Barraneche	8	Agosto	2023-08-29T00:00:00	2024-11-06T06:00:00	1	Precipitación	0
46136	7	Sololá	701	Sololá	3	Barraneche	8	Agosto	2023-08-29T00:00:00	2024-11-06T06:00:00	8	Radiación solar	0
46137	7	Sololá	701	Sololá	3	Barraneche	8	Agosto	2023-08-29T00:00:00	2024-11-06T07:00:00	2	Temperatura media	12.3
46138	7	Sololá	701	Sololá	3	Barraneche	8	Agosto	2023-08-29T00:00:00	2024-11-06T07:00:00	4	Temperatura máxima	12.3
46139	7	Sololá	701	Sololá	3	Barraneche	8	Agosto	2023-08-29T00:00:00	2024-11-06T07:00:00	3	Temperatura mínima	11.3
46140	7	Sololá	701	Sololá	3	Barraneche	8	Agosto	2023-08-29T00:00:00	2024-11-06T07:00:00	5	Humedad	83
46141	7	Sololá	701	Sololá	3	Barraneche	8	Agosto	2023-08-29T00:00:00	2024-11-06T07:00:00	6	Velocidad del viento	3.2
46142	7	Sololá	701	Sololá	3	Barraneche	8	Agosto	2023-08-29T00:00:00	2024-11-06T07:00:00	7	Dirección del viento	3.22
46143	7	Sololá	701	Sololá	3	Barraneche	8	Agosto	2023-08-29T00:00:00	2024-11-06T07:00:00	1	Precipitación	0
46144	7	Sololá	701	Sololá	3	Barraneche	8	Agosto	2023-08-29T00:00:00	2024-11-06T07:00:00	8	Radiación solar	55
46145	7	Sololá	701	Sololá	3	Barraneche	8	Agosto	2023-08-29T00:00:00	2024-11-06T08:00:00	2	Temperatura media	13.7
46146	7	Sololá	701	Sololá	3	Barraneche	8	Agosto	2023-08-29T00:00:00	2024-11-06T08:00:00	4	Temperatura máxima	13.7
46147	7	Sololá	701	Sololá	3	Barraneche	8	Agosto	2023-08-29T00:00:00	2024-11-06T08:00:00	3	Temperatura mínima	12.3
46148	7	Sololá	701	Sololá	3	Barraneche	8	Agosto	2023-08-29T00:00:00	2024-11-06T08:00:00	5	Humedad	80
46149	7	Sololá	701	Sololá	3	Barraneche	8	Agosto	2023-08-29T00:00:00	2024-11-06T08:00:00	6	Velocidad del viento	1.6
46150	7	Sololá	701	Sololá	3	Barraneche	8	Agosto	2023-08-29T00:00:00	2024-11-06T08:00:00	7	Dirección del viento	1.61
46151	7	Sololá	701	Sololá	3	Barraneche	8	Agosto	2023-08-29T00:00:00	2024-11-06T08:00:00	1	Precipitación	0
46152	7	Sololá	701	Sololá	3	Barraneche	8	Agosto	2023-08-29T00:00:00	2024-11-06T08:00:00	8	Radiación solar	169
46153	7	Sololá	701	Sololá	3	Barraneche	8	Agosto	2023-08-29T00:00:00	2024-11-06T09:00:00	2	Temperatura media	15.4
46154	7	Sololá	701	Sololá	3	Barraneche	8	Agosto	2023-08-29T00:00:00	2024-11-06T09:00:00	4	Temperatura máxima	15.4
46155	7	Sololá	701	Sololá	3	Barraneche	8	Agosto	2023-08-29T00:00:00	2024-11-06T09:00:00	3	Temperatura mínima	13.7
46156	7	Sololá	701	Sololá	3	Barraneche	8	Agosto	2023-08-29T00:00:00	2024-11-06T09:00:00	5	Humedad	77
46157	7	Sololá	701	Sololá	3	Barraneche	8	Agosto	2023-08-29T00:00:00	2024-11-06T09:00:00	6	Velocidad del viento	3.2
46158	7	Sololá	701	Sololá	3	Barraneche	8	Agosto	2023-08-29T00:00:00	2024-11-06T09:00:00	7	Dirección del viento	3.22
46159	7	Sololá	701	Sololá	3	Barraneche	8	Agosto	2023-08-29T00:00:00	2024-11-06T09:00:00	1	Precipitación	0
46160	7	Sololá	701	Sololá	3	Barraneche	8	Agosto	2023-08-29T00:00:00	2024-11-06T09:00:00	8	Radiación solar	411
46161	7	Sololá	701	Sololá	3	Barraneche	8	Agosto	2023-08-29T00:00:00	2024-11-06T10:00:00	2	Temperatura media	17.9
46162	7	Sololá	701	Sololá	3	Barraneche	8	Agosto	2023-08-29T00:00:00	2024-11-06T10:00:00	4	Temperatura máxima	17.9
46163	7	Sololá	701	Sololá	3	Barraneche	8	Agosto	2023-08-29T00:00:00	2024-11-06T10:00:00	3	Temperatura mínima	15.4
46164	7	Sololá	701	Sololá	3	Barraneche	8	Agosto	2023-08-29T00:00:00	2024-11-06T10:00:00	5	Humedad	70
46165	7	Sololá	701	Sololá	3	Barraneche	8	Agosto	2023-08-29T00:00:00	2024-11-06T10:00:00	6	Velocidad del viento	4.8
46166	7	Sololá	701	Sololá	3	Barraneche	8	Agosto	2023-08-29T00:00:00	2024-11-06T10:00:00	7	Dirección del viento	4.83
46167	7	Sololá	701	Sololá	3	Barraneche	8	Agosto	2023-08-29T00:00:00	2024-11-06T10:00:00	1	Precipitación	0
46168	7	Sololá	701	Sololá	3	Barraneche	8	Agosto	2023-08-29T00:00:00	2024-11-06T10:00:00	8	Radiación solar	769
46169	7	Sololá	701	Sololá	3	Barraneche	8	Agosto	2023-08-29T00:00:00	2024-11-06T11:00:00	2	Temperatura media	18
46170	7	Sololá	701	Sololá	3	Barraneche	8	Agosto	2023-08-29T00:00:00	2024-11-06T11:00:00	4	Temperatura máxima	18.6
46171	7	Sololá	701	Sololá	3	Barraneche	8	Agosto	2023-08-29T00:00:00	2024-11-06T11:00:00	3	Temperatura mínima	17.9
46172	7	Sololá	701	Sololá	3	Barraneche	8	Agosto	2023-08-29T00:00:00	2024-11-06T11:00:00	5	Humedad	74
46173	7	Sololá	701	Sololá	3	Barraneche	8	Agosto	2023-08-29T00:00:00	2024-11-06T11:00:00	6	Velocidad del viento	9.7
46174	7	Sololá	701	Sololá	3	Barraneche	8	Agosto	2023-08-29T00:00:00	2024-11-06T11:00:00	7	Dirección del viento	9.66
46175	7	Sololá	701	Sololá	3	Barraneche	8	Agosto	2023-08-29T00:00:00	2024-11-06T11:00:00	1	Precipitación	0
46176	7	Sololá	701	Sololá	3	Barraneche	8	Agosto	2023-08-29T00:00:00	2024-11-06T11:00:00	8	Radiación solar	826
46177	7	Sololá	701	Sololá	3	Barraneche	8	Agosto	2023-08-29T00:00:00	2024-11-06T12:00:00	2	Temperatura media	16.5
46178	7	Sololá	701	Sololá	3	Barraneche	8	Agosto	2023-08-29T00:00:00	2024-11-06T12:00:00	4	Temperatura máxima	18.1
46179	7	Sololá	701	Sololá	3	Barraneche	8	Agosto	2023-08-29T00:00:00	2024-11-06T12:00:00	3	Temperatura mínima	16.5
46180	7	Sololá	701	Sololá	3	Barraneche	8	Agosto	2023-08-29T00:00:00	2024-11-06T12:00:00	5	Humedad	77
46181	7	Sololá	701	Sololá	3	Barraneche	8	Agosto	2023-08-29T00:00:00	2024-11-06T12:00:00	6	Velocidad del viento	11.3
46182	7	Sololá	701	Sololá	3	Barraneche	8	Agosto	2023-08-29T00:00:00	2024-11-06T12:00:00	7	Dirección del viento	11.27
46183	7	Sololá	701	Sololá	3	Barraneche	8	Agosto	2023-08-29T00:00:00	2024-11-06T12:00:00	1	Precipitación	0
46184	7	Sololá	701	Sololá	3	Barraneche	8	Agosto	2023-08-29T00:00:00	2024-11-06T12:00:00	8	Radiación solar	360
46185	7	Sololá	701	Sololá	3	Barraneche	8	Agosto	2023-08-29T00:00:00	2024-11-06T13:00:00	2	Temperatura media	15.7
46186	7	Sololá	701	Sololá	3	Barraneche	8	Agosto	2023-08-29T00:00:00	2024-11-06T13:00:00	4	Temperatura máxima	16.6
46187	7	Sololá	701	Sololá	3	Barraneche	8	Agosto	2023-08-29T00:00:00	2024-11-06T13:00:00	3	Temperatura mínima	15.7
46188	7	Sololá	701	Sololá	3	Barraneche	8	Agosto	2023-08-29T00:00:00	2024-11-06T13:00:00	5	Humedad	80
46189	7	Sololá	701	Sololá	3	Barraneche	8	Agosto	2023-08-29T00:00:00	2024-11-06T13:00:00	6	Velocidad del viento	9.7
46190	7	Sololá	701	Sololá	3	Barraneche	8	Agosto	2023-08-29T00:00:00	2024-11-06T13:00:00	7	Dirección del viento	9.66
46191	7	Sololá	701	Sololá	3	Barraneche	8	Agosto	2023-08-29T00:00:00	2024-11-06T13:00:00	1	Precipitación	0
46192	7	Sololá	701	Sololá	3	Barraneche	8	Agosto	2023-08-29T00:00:00	2024-11-06T13:00:00	8	Radiación solar	121
46193	7	Sololá	701	Sololá	3	Barraneche	8	Agosto	2023-08-29T00:00:00	2024-11-06T14:00:00	2	Temperatura media	15.9
46194	7	Sololá	701	Sololá	3	Barraneche	8	Agosto	2023-08-29T00:00:00	2024-11-06T14:00:00	4	Temperatura máxima	16
46195	7	Sololá	701	Sololá	3	Barraneche	8	Agosto	2023-08-29T00:00:00	2024-11-06T14:00:00	3	Temperatura mínima	15.5
46196	7	Sololá	701	Sololá	3	Barraneche	8	Agosto	2023-08-29T00:00:00	2024-11-06T14:00:00	5	Humedad	79
46197	7	Sololá	701	Sololá	3	Barraneche	8	Agosto	2023-08-29T00:00:00	2024-11-06T14:00:00	6	Velocidad del viento	4.8
46198	7	Sololá	701	Sololá	3	Barraneche	8	Agosto	2023-08-29T00:00:00	2024-11-06T14:00:00	7	Dirección del viento	4.83
46199	7	Sololá	701	Sololá	3	Barraneche	8	Agosto	2023-08-29T00:00:00	2024-11-06T14:00:00	1	Precipitación	0
46200	7	Sololá	701	Sololá	3	Barraneche	8	Agosto	2023-08-29T00:00:00	2024-11-06T14:00:00	8	Radiación solar	101
46201	7	Sololá	701	Sololá	3	Barraneche	8	Agosto	2023-08-29T00:00:00	2024-11-06T15:00:00	2	Temperatura media	15.5
46202	7	Sololá	701	Sololá	3	Barraneche	8	Agosto	2023-08-29T00:00:00	2024-11-06T15:00:00	4	Temperatura máxima	15.9
46203	7	Sololá	701	Sololá	3	Barraneche	8	Agosto	2023-08-29T00:00:00	2024-11-06T15:00:00	3	Temperatura mínima	15.4
46204	7	Sololá	701	Sololá	3	Barraneche	8	Agosto	2023-08-29T00:00:00	2024-11-06T15:00:00	5	Humedad	78
46205	7	Sololá	701	Sololá	3	Barraneche	8	Agosto	2023-08-29T00:00:00	2024-11-06T15:00:00	6	Velocidad del viento	3.2
46206	7	Sololá	701	Sololá	3	Barraneche	8	Agosto	2023-08-29T00:00:00	2024-11-06T15:00:00	7	Dirección del viento	3.22
46207	7	Sololá	701	Sololá	3	Barraneche	8	Agosto	2023-08-29T00:00:00	2024-11-06T15:00:00	1	Precipitación	0.2
46208	7	Sololá	701	Sololá	3	Barraneche	8	Agosto	2023-08-29T00:00:00	2024-11-06T15:00:00	8	Radiación solar	32
46209	7	Sololá	701	Sololá	3	Barraneche	8	Agosto	2023-08-29T00:00:00	2024-11-06T16:00:00	2	Temperatura media	15.8
46210	7	Sololá	701	Sololá	3	Barraneche	8	Agosto	2023-08-29T00:00:00	2024-11-06T16:00:00	4	Temperatura máxima	15.9
46211	7	Sololá	701	Sololá	3	Barraneche	8	Agosto	2023-08-29T00:00:00	2024-11-06T16:00:00	3	Temperatura mínima	15.4
46212	7	Sololá	701	Sololá	3	Barraneche	8	Agosto	2023-08-29T00:00:00	2024-11-06T16:00:00	5	Humedad	76
46213	7	Sololá	701	Sololá	3	Barraneche	8	Agosto	2023-08-29T00:00:00	2024-11-06T16:00:00	6	Velocidad del viento	1.6
46214	7	Sololá	701	Sololá	3	Barraneche	8	Agosto	2023-08-29T00:00:00	2024-11-06T16:00:00	7	Dirección del viento	1.61
46215	7	Sololá	701	Sololá	3	Barraneche	8	Agosto	2023-08-29T00:00:00	2024-11-06T16:00:00	1	Precipitación	0
46216	7	Sololá	701	Sololá	3	Barraneche	8	Agosto	2023-08-29T00:00:00	2024-11-06T16:00:00	8	Radiación solar	76
46217	7	Sololá	701	Sololá	3	Barraneche	8	Agosto	2023-08-29T00:00:00	2024-11-06T17:00:00	2	Temperatura media	14.9
46218	7	Sololá	701	Sololá	3	Barraneche	8	Agosto	2023-08-29T00:00:00	2024-11-06T17:00:00	4	Temperatura máxima	15.8
46219	7	Sololá	701	Sololá	3	Barraneche	8	Agosto	2023-08-29T00:00:00	2024-11-06T17:00:00	3	Temperatura mínima	14.9
46220	7	Sololá	701	Sololá	3	Barraneche	8	Agosto	2023-08-29T00:00:00	2024-11-06T17:00:00	5	Humedad	80
46221	7	Sololá	701	Sololá	3	Barraneche	8	Agosto	2023-08-29T00:00:00	2024-11-06T17:00:00	6	Velocidad del viento	1.6
46222	7	Sololá	701	Sololá	3	Barraneche	8	Agosto	2023-08-29T00:00:00	2024-11-06T17:00:00	7	Dirección del viento	1.61
46223	7	Sololá	701	Sololá	3	Barraneche	8	Agosto	2023-08-29T00:00:00	2024-11-06T17:00:00	1	Precipitación	0
46224	7	Sololá	701	Sololá	3	Barraneche	8	Agosto	2023-08-29T00:00:00	2024-11-06T17:00:00	8	Radiación solar	24
46225	7	Sololá	701	Sololá	3	Barraneche	8	Agosto	2023-08-29T00:00:00	2024-11-06T18:00:00	2	Temperatura media	14.6
46226	7	Sololá	701	Sololá	3	Barraneche	8	Agosto	2023-08-29T00:00:00	2024-11-06T18:00:00	4	Temperatura máxima	15
46227	7	Sololá	701	Sololá	3	Barraneche	8	Agosto	2023-08-29T00:00:00	2024-11-06T18:00:00	3	Temperatura mínima	14.6
46228	7	Sololá	701	Sololá	3	Barraneche	8	Agosto	2023-08-29T00:00:00	2024-11-06T18:00:00	5	Humedad	81
46229	7	Sololá	701	Sololá	3	Barraneche	8	Agosto	2023-08-29T00:00:00	2024-11-06T18:00:00	6	Velocidad del viento	1.6
46230	7	Sololá	701	Sololá	3	Barraneche	8	Agosto	2023-08-29T00:00:00	2024-11-06T18:00:00	7	Dirección del viento	1.61
46231	7	Sololá	701	Sololá	3	Barraneche	8	Agosto	2023-08-29T00:00:00	2024-11-06T18:00:00	1	Precipitación	0.2
46232	7	Sololá	701	Sololá	3	Barraneche	8	Agosto	2023-08-29T00:00:00	2024-11-06T18:00:00	8	Radiación solar	12
46233	7	Sololá	701	Sololá	3	Barraneche	8	Agosto	2023-08-29T00:00:00	2024-11-06T19:00:00	2	Temperatura media	14.2
46234	7	Sololá	701	Sololá	3	Barraneche	8	Agosto	2023-08-29T00:00:00	2024-11-06T19:00:00	4	Temperatura máxima	14.6
46235	7	Sololá	701	Sololá	3	Barraneche	8	Agosto	2023-08-29T00:00:00	2024-11-06T19:00:00	3	Temperatura mínima	14.1
46236	7	Sololá	701	Sololá	3	Barraneche	8	Agosto	2023-08-29T00:00:00	2024-11-06T19:00:00	5	Humedad	81
46237	7	Sololá	701	Sololá	3	Barraneche	8	Agosto	2023-08-29T00:00:00	2024-11-06T19:00:00	6	Velocidad del viento	1.6
46238	7	Sololá	701	Sololá	3	Barraneche	8	Agosto	2023-08-29T00:00:00	2024-11-06T19:00:00	7	Dirección del viento	1.61
46239	7	Sololá	701	Sololá	3	Barraneche	8	Agosto	2023-08-29T00:00:00	2024-11-06T19:00:00	1	Precipitación	0
46240	7	Sololá	701	Sololá	3	Barraneche	8	Agosto	2023-08-29T00:00:00	2024-11-06T19:00:00	8	Radiación solar	0
46241	7	Sololá	701	Sololá	3	Barraneche	8	Agosto	2023-08-29T00:00:00	2024-11-06T20:00:00	2	Temperatura media	14.2
46242	7	Sololá	701	Sololá	3	Barraneche	8	Agosto	2023-08-29T00:00:00	2024-11-06T20:00:00	4	Temperatura máxima	14.2
46243	7	Sololá	701	Sololá	3	Barraneche	8	Agosto	2023-08-29T00:00:00	2024-11-06T20:00:00	3	Temperatura mínima	14.1
46244	7	Sololá	701	Sololá	3	Barraneche	8	Agosto	2023-08-29T00:00:00	2024-11-06T20:00:00	5	Humedad	83
46245	7	Sololá	701	Sololá	3	Barraneche	8	Agosto	2023-08-29T00:00:00	2024-11-06T20:00:00	6	Velocidad del viento	1.6
46246	7	Sololá	701	Sololá	3	Barraneche	8	Agosto	2023-08-29T00:00:00	2024-11-06T20:00:00	7	Dirección del viento	1.61
46247	7	Sololá	701	Sololá	3	Barraneche	8	Agosto	2023-08-29T00:00:00	2024-11-06T20:00:00	1	Precipitación	0
46248	7	Sololá	701	Sololá	3	Barraneche	8	Agosto	2023-08-29T00:00:00	2024-11-06T20:00:00	8	Radiación solar	0
46249	7	Sololá	701	Sololá	3	Barraneche	8	Agosto	2023-08-29T00:00:00	2024-11-06T21:00:00	2	Temperatura media	14.1
46250	7	Sololá	701	Sololá	3	Barraneche	8	Agosto	2023-08-29T00:00:00	2024-11-06T21:00:00	4	Temperatura máxima	14.3
46251	7	Sololá	701	Sololá	3	Barraneche	8	Agosto	2023-08-29T00:00:00	2024-11-06T21:00:00	3	Temperatura mínima	14.1
46252	7	Sololá	701	Sololá	3	Barraneche	8	Agosto	2023-08-29T00:00:00	2024-11-06T21:00:00	5	Humedad	83
46253	7	Sololá	701	Sololá	3	Barraneche	8	Agosto	2023-08-29T00:00:00	2024-11-06T21:00:00	6	Velocidad del viento	1.6
46254	7	Sololá	701	Sololá	3	Barraneche	8	Agosto	2023-08-29T00:00:00	2024-11-06T21:00:00	7	Dirección del viento	1.61
46255	7	Sololá	701	Sololá	3	Barraneche	8	Agosto	2023-08-29T00:00:00	2024-11-06T21:00:00	1	Precipitación	0
46256	7	Sololá	701	Sololá	3	Barraneche	8	Agosto	2023-08-29T00:00:00	2024-11-06T21:00:00	8	Radiación solar	0
46257	7	Sololá	701	Sololá	3	Barraneche	8	Agosto	2023-08-29T00:00:00	2024-11-06T22:00:00	2	Temperatura media	13.8
46258	7	Sololá	701	Sololá	3	Barraneche	8	Agosto	2023-08-29T00:00:00	2024-11-06T22:00:00	4	Temperatura máxima	14.1
46259	7	Sololá	701	Sololá	3	Barraneche	8	Agosto	2023-08-29T00:00:00	2024-11-06T22:00:00	3	Temperatura mínima	13.8
46260	7	Sololá	701	Sololá	3	Barraneche	8	Agosto	2023-08-29T00:00:00	2024-11-06T22:00:00	5	Humedad	83
46261	7	Sololá	701	Sololá	3	Barraneche	8	Agosto	2023-08-29T00:00:00	2024-11-06T22:00:00	6	Velocidad del viento	1.6
46262	7	Sololá	701	Sololá	3	Barraneche	8	Agosto	2023-08-29T00:00:00	2024-11-06T22:00:00	7	Dirección del viento	1.61
46263	7	Sololá	701	Sololá	3	Barraneche	8	Agosto	2023-08-29T00:00:00	2024-11-06T22:00:00	1	Precipitación	0
46264	7	Sololá	701	Sololá	3	Barraneche	8	Agosto	2023-08-29T00:00:00	2024-11-06T22:00:00	8	Radiación solar	0
46265	7	Sololá	701	Sololá	3	Barraneche	8	Agosto	2023-08-29T00:00:00	2024-11-06T23:00:00	2	Temperatura media	13.7
46266	7	Sololá	701	Sololá	3	Barraneche	8	Agosto	2023-08-29T00:00:00	2024-11-06T23:00:00	4	Temperatura máxima	13.8
46267	7	Sololá	701	Sololá	3	Barraneche	8	Agosto	2023-08-29T00:00:00	2024-11-06T23:00:00	3	Temperatura mínima	13.7
46268	7	Sololá	701	Sololá	3	Barraneche	8	Agosto	2023-08-29T00:00:00	2024-11-06T23:00:00	5	Humedad	83
46269	7	Sololá	701	Sololá	3	Barraneche	8	Agosto	2023-08-29T00:00:00	2024-11-06T23:00:00	6	Velocidad del viento	3.2
46270	7	Sololá	701	Sololá	3	Barraneche	8	Agosto	2023-08-29T00:00:00	2024-11-06T23:00:00	7	Dirección del viento	3.22
46271	7	Sololá	701	Sololá	3	Barraneche	8	Agosto	2023-08-29T00:00:00	2024-11-06T23:00:00	1	Precipitación	0.4
46272	7	Sololá	701	Sololá	3	Barraneche	8	Agosto	2023-08-29T00:00:00	2024-11-06T23:00:00	8	Radiación solar	0
46273	7	Sololá	701	Sololá	3	Barraneche	8	Agosto	2023-08-30T00:00:00	2024-11-06T00:00:00	2	Temperatura media	13.7
46274	7	Sololá	701	Sololá	3	Barraneche	8	Agosto	2023-08-30T00:00:00	2024-11-06T00:00:00	4	Temperatura máxima	13.8
46275	7	Sololá	701	Sololá	3	Barraneche	8	Agosto	2023-08-30T00:00:00	2024-11-06T00:00:00	3	Temperatura mínima	13.7
46276	7	Sololá	701	Sololá	3	Barraneche	8	Agosto	2023-08-30T00:00:00	2024-11-06T00:00:00	5	Humedad	84
46277	7	Sololá	701	Sololá	3	Barraneche	8	Agosto	2023-08-30T00:00:00	2024-11-06T00:00:00	6	Velocidad del viento	3.2
46278	7	Sololá	701	Sololá	3	Barraneche	8	Agosto	2023-08-30T00:00:00	2024-11-06T00:00:00	7	Dirección del viento	3.22
46279	7	Sololá	701	Sololá	3	Barraneche	8	Agosto	2023-08-30T00:00:00	2024-11-06T00:00:00	1	Precipitación	0
46280	7	Sololá	701	Sololá	3	Barraneche	8	Agosto	2023-08-30T00:00:00	2024-11-06T00:00:00	8	Radiación solar	0
46281	7	Sololá	701	Sololá	3	Barraneche	8	Agosto	2023-08-30T00:00:00	2024-11-06T01:00:00	2	Temperatura media	13.8
46282	7	Sololá	701	Sololá	3	Barraneche	8	Agosto	2023-08-30T00:00:00	2024-11-06T01:00:00	4	Temperatura máxima	14.1
46283	7	Sololá	701	Sololá	3	Barraneche	8	Agosto	2023-08-30T00:00:00	2024-11-06T01:00:00	3	Temperatura mínima	13.7
46284	7	Sololá	701	Sololá	3	Barraneche	8	Agosto	2023-08-30T00:00:00	2024-11-06T01:00:00	5	Humedad	80
46285	7	Sololá	701	Sololá	3	Barraneche	8	Agosto	2023-08-30T00:00:00	2024-11-06T01:00:00	6	Velocidad del viento	4.8
46286	7	Sololá	701	Sololá	3	Barraneche	8	Agosto	2023-08-30T00:00:00	2024-11-06T01:00:00	7	Dirección del viento	4.83
46287	7	Sololá	701	Sololá	3	Barraneche	8	Agosto	2023-08-30T00:00:00	2024-11-06T01:00:00	1	Precipitación	0.4
46288	7	Sololá	701	Sololá	3	Barraneche	8	Agosto	2023-08-30T00:00:00	2024-11-06T01:00:00	8	Radiación solar	0
46289	7	Sololá	701	Sololá	3	Barraneche	8	Agosto	2023-08-30T00:00:00	2024-11-06T02:00:00	2	Temperatura media	13.4
46290	7	Sololá	701	Sololá	3	Barraneche	8	Agosto	2023-08-30T00:00:00	2024-11-06T02:00:00	4	Temperatura máxima	13.8
46291	7	Sololá	701	Sololá	3	Barraneche	8	Agosto	2023-08-30T00:00:00	2024-11-06T02:00:00	3	Temperatura mínima	13.4
46292	7	Sololá	701	Sololá	3	Barraneche	8	Agosto	2023-08-30T00:00:00	2024-11-06T02:00:00	5	Humedad	81
46293	7	Sololá	701	Sololá	3	Barraneche	8	Agosto	2023-08-30T00:00:00	2024-11-06T02:00:00	6	Velocidad del viento	4.8
46294	7	Sololá	701	Sololá	3	Barraneche	8	Agosto	2023-08-30T00:00:00	2024-11-06T02:00:00	7	Dirección del viento	4.83
46295	7	Sololá	701	Sololá	3	Barraneche	8	Agosto	2023-08-30T00:00:00	2024-11-06T02:00:00	1	Precipitación	0.8
46296	7	Sololá	701	Sololá	3	Barraneche	8	Agosto	2023-08-30T00:00:00	2024-11-06T02:00:00	8	Radiación solar	0
46297	7	Sololá	701	Sololá	3	Barraneche	8	Agosto	2023-08-30T00:00:00	2024-11-06T03:00:00	2	Temperatura media	13.3
46298	7	Sololá	701	Sololá	3	Barraneche	8	Agosto	2023-08-30T00:00:00	2024-11-06T03:00:00	4	Temperatura máxima	13.4
46299	7	Sololá	701	Sololá	3	Barraneche	8	Agosto	2023-08-30T00:00:00	2024-11-06T03:00:00	3	Temperatura mínima	13.2
46300	7	Sololá	701	Sololá	3	Barraneche	8	Agosto	2023-08-30T00:00:00	2024-11-06T03:00:00	5	Humedad	81
46301	7	Sololá	701	Sololá	3	Barraneche	8	Agosto	2023-08-30T00:00:00	2024-11-06T03:00:00	6	Velocidad del viento	4.8
46302	7	Sololá	701	Sololá	3	Barraneche	8	Agosto	2023-08-30T00:00:00	2024-11-06T03:00:00	7	Dirección del viento	4.83
46303	7	Sololá	701	Sololá	3	Barraneche	8	Agosto	2023-08-30T00:00:00	2024-11-06T03:00:00	1	Precipitación	0.6
46304	7	Sololá	701	Sololá	3	Barraneche	8	Agosto	2023-08-30T00:00:00	2024-11-06T03:00:00	8	Radiación solar	0
46305	7	Sololá	701	Sololá	3	Barraneche	8	Agosto	2023-08-30T00:00:00	2024-11-06T04:00:00	2	Temperatura media	13.3
46306	7	Sololá	701	Sololá	3	Barraneche	8	Agosto	2023-08-30T00:00:00	2024-11-06T04:00:00	4	Temperatura máxima	13.4
46307	7	Sololá	701	Sololá	3	Barraneche	8	Agosto	2023-08-30T00:00:00	2024-11-06T04:00:00	3	Temperatura mínima	13.2
46308	7	Sololá	701	Sololá	3	Barraneche	8	Agosto	2023-08-30T00:00:00	2024-11-06T04:00:00	5	Humedad	81
46309	7	Sololá	701	Sololá	3	Barraneche	8	Agosto	2023-08-30T00:00:00	2024-11-06T04:00:00	6	Velocidad del viento	6.4
46310	7	Sololá	701	Sololá	3	Barraneche	8	Agosto	2023-08-30T00:00:00	2024-11-06T04:00:00	7	Dirección del viento	6.44
46311	7	Sololá	701	Sololá	3	Barraneche	8	Agosto	2023-08-30T00:00:00	2024-11-06T04:00:00	1	Precipitación	0.8
46312	7	Sololá	701	Sololá	3	Barraneche	8	Agosto	2023-08-30T00:00:00	2024-11-06T04:00:00	8	Radiación solar	0
46313	7	Sololá	701	Sololá	3	Barraneche	8	Agosto	2023-08-30T00:00:00	2024-11-06T05:00:00	2	Temperatura media	13.4
46314	7	Sololá	701	Sololá	3	Barraneche	8	Agosto	2023-08-30T00:00:00	2024-11-06T05:00:00	4	Temperatura máxima	13.8
46315	7	Sololá	701	Sololá	3	Barraneche	8	Agosto	2023-08-30T00:00:00	2024-11-06T05:00:00	3	Temperatura mínima	13.3
46316	7	Sololá	701	Sololá	3	Barraneche	8	Agosto	2023-08-30T00:00:00	2024-11-06T05:00:00	5	Humedad	79
46317	7	Sololá	701	Sololá	3	Barraneche	8	Agosto	2023-08-30T00:00:00	2024-11-06T05:00:00	6	Velocidad del viento	8
46318	7	Sololá	701	Sololá	3	Barraneche	8	Agosto	2023-08-30T00:00:00	2024-11-06T05:00:00	7	Dirección del viento	8.05
46319	7	Sololá	701	Sololá	3	Barraneche	8	Agosto	2023-08-30T00:00:00	2024-11-06T05:00:00	1	Precipitación	0
46320	7	Sololá	701	Sololá	3	Barraneche	8	Agosto	2023-08-30T00:00:00	2024-11-06T05:00:00	8	Radiación solar	0
46321	7	Sololá	701	Sololá	3	Barraneche	8	Agosto	2023-08-30T00:00:00	2024-11-06T06:00:00	2	Temperatura media	13.3
46322	7	Sololá	701	Sololá	3	Barraneche	8	Agosto	2023-08-30T00:00:00	2024-11-06T06:00:00	4	Temperatura máxima	13.6
46323	7	Sololá	701	Sololá	3	Barraneche	8	Agosto	2023-08-30T00:00:00	2024-11-06T06:00:00	3	Temperatura mínima	13.2
46324	7	Sololá	701	Sololá	3	Barraneche	8	Agosto	2023-08-30T00:00:00	2024-11-06T06:00:00	5	Humedad	78
46325	7	Sololá	701	Sololá	3	Barraneche	8	Agosto	2023-08-30T00:00:00	2024-11-06T06:00:00	6	Velocidad del viento	8
46326	7	Sololá	701	Sololá	3	Barraneche	8	Agosto	2023-08-30T00:00:00	2024-11-06T06:00:00	7	Dirección del viento	8.05
46327	7	Sololá	701	Sololá	3	Barraneche	8	Agosto	2023-08-30T00:00:00	2024-11-06T06:00:00	1	Precipitación	0
46328	7	Sololá	701	Sololá	3	Barraneche	8	Agosto	2023-08-30T00:00:00	2024-11-06T06:00:00	8	Radiación solar	0
46329	7	Sololá	701	Sololá	3	Barraneche	8	Agosto	2023-08-30T00:00:00	2024-11-06T07:00:00	2	Temperatura media	13.8
46330	7	Sololá	701	Sololá	3	Barraneche	8	Agosto	2023-08-30T00:00:00	2024-11-06T07:00:00	4	Temperatura máxima	13.8
46331	7	Sololá	701	Sololá	3	Barraneche	8	Agosto	2023-08-30T00:00:00	2024-11-06T07:00:00	3	Temperatura mínima	13.1
46332	7	Sololá	701	Sololá	3	Barraneche	8	Agosto	2023-08-30T00:00:00	2024-11-06T07:00:00	5	Humedad	77
46333	7	Sololá	701	Sololá	3	Barraneche	8	Agosto	2023-08-30T00:00:00	2024-11-06T07:00:00	6	Velocidad del viento	6.4
46334	7	Sololá	701	Sololá	3	Barraneche	8	Agosto	2023-08-30T00:00:00	2024-11-06T07:00:00	7	Dirección del viento	6.44
46335	7	Sololá	701	Sololá	3	Barraneche	8	Agosto	2023-08-30T00:00:00	2024-11-06T07:00:00	1	Precipitación	0
46336	7	Sololá	701	Sololá	3	Barraneche	8	Agosto	2023-08-30T00:00:00	2024-11-06T07:00:00	8	Radiación solar	35
46337	7	Sololá	701	Sololá	3	Barraneche	8	Agosto	2023-08-30T00:00:00	2024-11-06T08:00:00	2	Temperatura media	15.6
46338	7	Sololá	701	Sololá	3	Barraneche	8	Agosto	2023-08-30T00:00:00	2024-11-06T08:00:00	4	Temperatura máxima	15.6
46339	7	Sololá	701	Sololá	3	Barraneche	8	Agosto	2023-08-30T00:00:00	2024-11-06T08:00:00	3	Temperatura mínima	13.8
46340	7	Sololá	701	Sololá	3	Barraneche	8	Agosto	2023-08-30T00:00:00	2024-11-06T08:00:00	5	Humedad	76
46341	7	Sololá	701	Sololá	3	Barraneche	8	Agosto	2023-08-30T00:00:00	2024-11-06T08:00:00	6	Velocidad del viento	4.8
46342	7	Sololá	701	Sololá	3	Barraneche	8	Agosto	2023-08-30T00:00:00	2024-11-06T08:00:00	7	Dirección del viento	4.83
46343	7	Sololá	701	Sololá	3	Barraneche	8	Agosto	2023-08-30T00:00:00	2024-11-06T08:00:00	1	Precipitación	0
46344	7	Sololá	701	Sololá	3	Barraneche	8	Agosto	2023-08-30T00:00:00	2024-11-06T08:00:00	8	Radiación solar	144
46345	7	Sololá	701	Sololá	3	Barraneche	8	Agosto	2023-08-30T00:00:00	2024-11-06T09:00:00	2	Temperatura media	16.8
46346	7	Sololá	701	Sololá	3	Barraneche	8	Agosto	2023-08-30T00:00:00	2024-11-06T09:00:00	4	Temperatura máxima	17.3
46347	7	Sololá	701	Sololá	3	Barraneche	8	Agosto	2023-08-30T00:00:00	2024-11-06T09:00:00	3	Temperatura mínima	15.6
46348	7	Sololá	701	Sololá	3	Barraneche	8	Agosto	2023-08-30T00:00:00	2024-11-06T09:00:00	5	Humedad	73
46349	7	Sololá	701	Sololá	3	Barraneche	8	Agosto	2023-08-30T00:00:00	2024-11-06T09:00:00	6	Velocidad del viento	3.2
46350	7	Sololá	701	Sololá	3	Barraneche	8	Agosto	2023-08-30T00:00:00	2024-11-06T09:00:00	7	Dirección del viento	3.22
46351	7	Sololá	701	Sololá	3	Barraneche	8	Agosto	2023-08-30T00:00:00	2024-11-06T09:00:00	1	Precipitación	0
46352	7	Sololá	701	Sololá	3	Barraneche	8	Agosto	2023-08-30T00:00:00	2024-11-06T09:00:00	8	Radiación solar	271
46353	7	Sololá	701	Sololá	3	Barraneche	8	Agosto	2023-08-30T00:00:00	2024-11-06T10:00:00	2	Temperatura media	17.9
46354	7	Sololá	701	Sololá	3	Barraneche	8	Agosto	2023-08-30T00:00:00	2024-11-06T10:00:00	4	Temperatura máxima	17.9
46355	7	Sololá	701	Sololá	3	Barraneche	8	Agosto	2023-08-30T00:00:00	2024-11-06T10:00:00	3	Temperatura mínima	16.8
46356	7	Sololá	701	Sololá	3	Barraneche	8	Agosto	2023-08-30T00:00:00	2024-11-06T10:00:00	5	Humedad	67
46357	7	Sololá	701	Sololá	3	Barraneche	8	Agosto	2023-08-30T00:00:00	2024-11-06T10:00:00	6	Velocidad del viento	4.8
46358	7	Sololá	701	Sololá	3	Barraneche	8	Agosto	2023-08-30T00:00:00	2024-11-06T10:00:00	7	Dirección del viento	4.83
46359	7	Sololá	701	Sololá	3	Barraneche	8	Agosto	2023-08-30T00:00:00	2024-11-06T10:00:00	1	Precipitación	0
46360	7	Sololá	701	Sololá	3	Barraneche	8	Agosto	2023-08-30T00:00:00	2024-11-06T10:00:00	8	Radiación solar	443
46361	7	Sololá	701	Sololá	3	Barraneche	8	Agosto	2023-08-30T00:00:00	2024-11-06T11:00:00	2	Temperatura media	18.2
46362	7	Sololá	701	Sololá	3	Barraneche	8	Agosto	2023-08-30T00:00:00	2024-11-06T11:00:00	4	Temperatura máxima	19.1
46363	7	Sololá	701	Sololá	3	Barraneche	8	Agosto	2023-08-30T00:00:00	2024-11-06T11:00:00	3	Temperatura mínima	17.9
46364	7	Sololá	701	Sololá	3	Barraneche	8	Agosto	2023-08-30T00:00:00	2024-11-06T11:00:00	5	Humedad	73
46365	7	Sololá	701	Sololá	3	Barraneche	8	Agosto	2023-08-30T00:00:00	2024-11-06T11:00:00	6	Velocidad del viento	9.7
46366	7	Sololá	701	Sololá	3	Barraneche	8	Agosto	2023-08-30T00:00:00	2024-11-06T11:00:00	7	Dirección del viento	9.66
46367	7	Sololá	701	Sololá	3	Barraneche	8	Agosto	2023-08-30T00:00:00	2024-11-06T11:00:00	1	Precipitación	0.2
46368	7	Sololá	701	Sololá	3	Barraneche	8	Agosto	2023-08-30T00:00:00	2024-11-06T11:00:00	8	Radiación solar	897
46369	7	Sololá	701	Sololá	3	Barraneche	8	Agosto	2023-08-30T00:00:00	2024-11-06T12:00:00	2	Temperatura media	18.4
46370	7	Sololá	701	Sololá	3	Barraneche	8	Agosto	2023-08-30T00:00:00	2024-11-06T12:00:00	4	Temperatura máxima	18.6
46371	7	Sololá	701	Sololá	3	Barraneche	8	Agosto	2023-08-30T00:00:00	2024-11-06T12:00:00	3	Temperatura mínima	17.7
46372	7	Sololá	701	Sololá	3	Barraneche	8	Agosto	2023-08-30T00:00:00	2024-11-06T12:00:00	5	Humedad	67
46373	7	Sololá	701	Sololá	3	Barraneche	8	Agosto	2023-08-30T00:00:00	2024-11-06T12:00:00	6	Velocidad del viento	9.7
46374	7	Sololá	701	Sololá	3	Barraneche	8	Agosto	2023-08-30T00:00:00	2024-11-06T12:00:00	7	Dirección del viento	9.66
46375	7	Sololá	701	Sololá	3	Barraneche	8	Agosto	2023-08-30T00:00:00	2024-11-06T12:00:00	1	Precipitación	0
46376	7	Sololá	701	Sololá	3	Barraneche	8	Agosto	2023-08-30T00:00:00	2024-11-06T12:00:00	8	Radiación solar	698
46377	7	Sololá	701	Sololá	3	Barraneche	8	Agosto	2023-08-30T00:00:00	2024-11-06T13:00:00	2	Temperatura media	18.9
46378	7	Sololá	701	Sololá	3	Barraneche	8	Agosto	2023-08-30T00:00:00	2024-11-06T13:00:00	4	Temperatura máxima	19.8
46379	7	Sololá	701	Sololá	3	Barraneche	8	Agosto	2023-08-30T00:00:00	2024-11-06T13:00:00	3	Temperatura mínima	18.4
46380	7	Sololá	701	Sololá	3	Barraneche	8	Agosto	2023-08-30T00:00:00	2024-11-06T13:00:00	5	Humedad	67
46381	7	Sololá	701	Sololá	3	Barraneche	8	Agosto	2023-08-30T00:00:00	2024-11-06T13:00:00	6	Velocidad del viento	11.3
46382	7	Sololá	701	Sololá	3	Barraneche	8	Agosto	2023-08-30T00:00:00	2024-11-06T13:00:00	7	Dirección del viento	11.27
46383	7	Sololá	701	Sololá	3	Barraneche	8	Agosto	2023-08-30T00:00:00	2024-11-06T13:00:00	1	Precipitación	0
46384	7	Sololá	701	Sololá	3	Barraneche	8	Agosto	2023-08-30T00:00:00	2024-11-06T13:00:00	8	Radiación solar	955
46385	7	Sololá	701	Sololá	3	Barraneche	8	Agosto	2023-08-30T00:00:00	2024-11-06T14:00:00	2	Temperatura media	18.3
46386	7	Sololá	701	Sololá	3	Barraneche	8	Agosto	2023-08-30T00:00:00	2024-11-06T14:00:00	4	Temperatura máxima	18.9
46387	7	Sololá	701	Sololá	3	Barraneche	8	Agosto	2023-08-30T00:00:00	2024-11-06T14:00:00	3	Temperatura mínima	17.7
46388	7	Sololá	701	Sololá	3	Barraneche	8	Agosto	2023-08-30T00:00:00	2024-11-06T14:00:00	5	Humedad	70
46389	7	Sololá	701	Sololá	3	Barraneche	8	Agosto	2023-08-30T00:00:00	2024-11-06T14:00:00	6	Velocidad del viento	9.7
46390	7	Sololá	701	Sololá	3	Barraneche	8	Agosto	2023-08-30T00:00:00	2024-11-06T14:00:00	7	Dirección del viento	9.66
46391	7	Sololá	701	Sololá	3	Barraneche	8	Agosto	2023-08-30T00:00:00	2024-11-06T14:00:00	1	Precipitación	0
46392	7	Sololá	701	Sololá	3	Barraneche	8	Agosto	2023-08-30T00:00:00	2024-11-06T14:00:00	8	Radiación solar	695
46393	7	Sololá	701	Sololá	3	Barraneche	8	Agosto	2023-08-30T00:00:00	2024-11-06T15:00:00	2	Temperatura media	17.2
46394	7	Sololá	701	Sololá	3	Barraneche	8	Agosto	2023-08-30T00:00:00	2024-11-06T15:00:00	4	Temperatura máxima	18.7
46395	7	Sololá	701	Sololá	3	Barraneche	8	Agosto	2023-08-30T00:00:00	2024-11-06T15:00:00	3	Temperatura mínima	17.2
46396	7	Sololá	701	Sololá	3	Barraneche	8	Agosto	2023-08-30T00:00:00	2024-11-06T15:00:00	5	Humedad	75
46397	7	Sololá	701	Sololá	3	Barraneche	8	Agosto	2023-08-30T00:00:00	2024-11-06T15:00:00	6	Velocidad del viento	9.7
46398	7	Sololá	701	Sololá	3	Barraneche	8	Agosto	2023-08-30T00:00:00	2024-11-06T15:00:00	7	Dirección del viento	9.66
46399	7	Sololá	701	Sololá	3	Barraneche	8	Agosto	2023-08-30T00:00:00	2024-11-06T15:00:00	1	Precipitación	0
46400	7	Sololá	701	Sololá	3	Barraneche	8	Agosto	2023-08-30T00:00:00	2024-11-06T15:00:00	8	Radiación solar	277
46401	7	Sololá	701	Sololá	3	Barraneche	8	Agosto	2023-08-30T00:00:00	2024-11-06T16:00:00	2	Temperatura media	16.4
46402	7	Sololá	701	Sololá	3	Barraneche	8	Agosto	2023-08-30T00:00:00	2024-11-06T16:00:00	4	Temperatura máxima	17.2
46403	7	Sololá	701	Sololá	3	Barraneche	8	Agosto	2023-08-30T00:00:00	2024-11-06T16:00:00	3	Temperatura mínima	16.4
46404	7	Sololá	701	Sololá	3	Barraneche	8	Agosto	2023-08-30T00:00:00	2024-11-06T16:00:00	5	Humedad	78
46405	7	Sololá	701	Sololá	3	Barraneche	8	Agosto	2023-08-30T00:00:00	2024-11-06T16:00:00	6	Velocidad del viento	4.8
46406	7	Sololá	701	Sololá	3	Barraneche	8	Agosto	2023-08-30T00:00:00	2024-11-06T16:00:00	7	Dirección del viento	4.83
46407	7	Sololá	701	Sololá	3	Barraneche	8	Agosto	2023-08-30T00:00:00	2024-11-06T16:00:00	1	Precipitación	0
46408	7	Sololá	701	Sololá	3	Barraneche	8	Agosto	2023-08-30T00:00:00	2024-11-06T16:00:00	8	Radiación solar	115
46409	7	Sololá	701	Sololá	3	Barraneche	8	Agosto	2023-08-30T00:00:00	2024-11-06T17:00:00	2	Temperatura media	15.7
46410	7	Sololá	701	Sololá	3	Barraneche	8	Agosto	2023-08-30T00:00:00	2024-11-06T17:00:00	4	Temperatura máxima	16.4
46411	7	Sololá	701	Sololá	3	Barraneche	8	Agosto	2023-08-30T00:00:00	2024-11-06T17:00:00	3	Temperatura mínima	15.6
46412	7	Sololá	701	Sololá	3	Barraneche	8	Agosto	2023-08-30T00:00:00	2024-11-06T17:00:00	5	Humedad	80
46413	7	Sololá	701	Sololá	3	Barraneche	8	Agosto	2023-08-30T00:00:00	2024-11-06T17:00:00	6	Velocidad del viento	4.8
46414	7	Sololá	701	Sololá	3	Barraneche	8	Agosto	2023-08-30T00:00:00	2024-11-06T17:00:00	7	Dirección del viento	4.83
46415	7	Sololá	701	Sololá	3	Barraneche	8	Agosto	2023-08-30T00:00:00	2024-11-06T17:00:00	1	Precipitación	0
46416	7	Sololá	701	Sololá	3	Barraneche	8	Agosto	2023-08-30T00:00:00	2024-11-06T17:00:00	8	Radiación solar	43
46417	7	Sololá	701	Sololá	3	Barraneche	8	Agosto	2023-08-30T00:00:00	2024-11-06T18:00:00	2	Temperatura media	15.6
46418	7	Sololá	701	Sololá	3	Barraneche	8	Agosto	2023-08-30T00:00:00	2024-11-06T18:00:00	4	Temperatura máxima	15.8
46419	7	Sololá	701	Sololá	3	Barraneche	8	Agosto	2023-08-30T00:00:00	2024-11-06T18:00:00	3	Temperatura mínima	15.5
46420	7	Sololá	701	Sololá	3	Barraneche	8	Agosto	2023-08-30T00:00:00	2024-11-06T18:00:00	5	Humedad	81
46421	7	Sololá	701	Sololá	3	Barraneche	8	Agosto	2023-08-30T00:00:00	2024-11-06T18:00:00	6	Velocidad del viento	3.2
46422	7	Sololá	701	Sololá	3	Barraneche	8	Agosto	2023-08-30T00:00:00	2024-11-06T18:00:00	7	Dirección del viento	3.22
46423	7	Sololá	701	Sololá	3	Barraneche	8	Agosto	2023-08-30T00:00:00	2024-11-06T18:00:00	1	Precipitación	0
46424	7	Sololá	701	Sololá	3	Barraneche	8	Agosto	2023-08-30T00:00:00	2024-11-06T18:00:00	8	Radiación solar	11
46425	7	Sololá	701	Sololá	3	Barraneche	8	Agosto	2023-08-30T00:00:00	2024-11-06T19:00:00	2	Temperatura media	14.7
46426	7	Sololá	701	Sololá	3	Barraneche	8	Agosto	2023-08-30T00:00:00	2024-11-06T19:00:00	4	Temperatura máxima	15.6
46427	7	Sololá	701	Sololá	3	Barraneche	8	Agosto	2023-08-30T00:00:00	2024-11-06T19:00:00	3	Temperatura mínima	14.7
46428	7	Sololá	701	Sololá	3	Barraneche	8	Agosto	2023-08-30T00:00:00	2024-11-06T19:00:00	5	Humedad	81
46429	7	Sololá	701	Sololá	3	Barraneche	8	Agosto	2023-08-30T00:00:00	2024-11-06T19:00:00	6	Velocidad del viento	3.2
46430	7	Sololá	701	Sololá	3	Barraneche	8	Agosto	2023-08-30T00:00:00	2024-11-06T19:00:00	7	Dirección del viento	3.22
46431	7	Sololá	701	Sololá	3	Barraneche	8	Agosto	2023-08-30T00:00:00	2024-11-06T19:00:00	1	Precipitación	0.2
46432	7	Sololá	701	Sololá	3	Barraneche	8	Agosto	2023-08-30T00:00:00	2024-11-06T19:00:00	8	Radiación solar	0
46433	7	Sololá	701	Sololá	3	Barraneche	8	Agosto	2023-08-30T00:00:00	2024-11-06T20:00:00	2	Temperatura media	14.3
46434	7	Sololá	701	Sololá	3	Barraneche	8	Agosto	2023-08-30T00:00:00	2024-11-06T20:00:00	4	Temperatura máxima	14.7
46435	7	Sololá	701	Sololá	3	Barraneche	8	Agosto	2023-08-30T00:00:00	2024-11-06T20:00:00	3	Temperatura mínima	14.3
46436	7	Sololá	701	Sololá	3	Barraneche	8	Agosto	2023-08-30T00:00:00	2024-11-06T20:00:00	5	Humedad	78
46437	7	Sololá	701	Sololá	3	Barraneche	8	Agosto	2023-08-30T00:00:00	2024-11-06T20:00:00	6	Velocidad del viento	4.8
46438	7	Sololá	701	Sololá	3	Barraneche	8	Agosto	2023-08-30T00:00:00	2024-11-06T20:00:00	7	Dirección del viento	4.83
46439	7	Sololá	701	Sololá	3	Barraneche	8	Agosto	2023-08-30T00:00:00	2024-11-06T20:00:00	1	Precipitación	0
46440	7	Sololá	701	Sololá	3	Barraneche	8	Agosto	2023-08-30T00:00:00	2024-11-06T20:00:00	8	Radiación solar	0
46441	7	Sololá	701	Sololá	3	Barraneche	8	Agosto	2023-08-30T00:00:00	2024-11-06T21:00:00	2	Temperatura media	13.8
46442	7	Sololá	701	Sololá	3	Barraneche	8	Agosto	2023-08-30T00:00:00	2024-11-06T21:00:00	4	Temperatura máxima	14.4
46443	7	Sololá	701	Sololá	3	Barraneche	8	Agosto	2023-08-30T00:00:00	2024-11-06T21:00:00	3	Temperatura mínima	13.7
46444	7	Sololá	701	Sololá	3	Barraneche	8	Agosto	2023-08-30T00:00:00	2024-11-06T21:00:00	5	Humedad	79
46445	7	Sololá	701	Sololá	3	Barraneche	8	Agosto	2023-08-30T00:00:00	2024-11-06T21:00:00	6	Velocidad del viento	4.8
46446	7	Sololá	701	Sololá	3	Barraneche	8	Agosto	2023-08-30T00:00:00	2024-11-06T21:00:00	7	Dirección del viento	4.83
46447	7	Sololá	701	Sololá	3	Barraneche	8	Agosto	2023-08-30T00:00:00	2024-11-06T21:00:00	1	Precipitación	0
46448	7	Sololá	701	Sololá	3	Barraneche	8	Agosto	2023-08-30T00:00:00	2024-11-06T21:00:00	8	Radiación solar	0
46449	7	Sololá	701	Sololá	3	Barraneche	8	Agosto	2023-08-30T00:00:00	2024-11-06T22:00:00	2	Temperatura media	13.8
46450	7	Sololá	701	Sololá	3	Barraneche	8	Agosto	2023-08-30T00:00:00	2024-11-06T22:00:00	4	Temperatura máxima	13.9
46451	7	Sololá	701	Sololá	3	Barraneche	8	Agosto	2023-08-30T00:00:00	2024-11-06T22:00:00	3	Temperatura mínima	13.8
46452	7	Sololá	701	Sololá	3	Barraneche	8	Agosto	2023-08-30T00:00:00	2024-11-06T22:00:00	5	Humedad	80
46453	7	Sololá	701	Sololá	3	Barraneche	8	Agosto	2023-08-30T00:00:00	2024-11-06T22:00:00	6	Velocidad del viento	3.2
46454	7	Sololá	701	Sololá	3	Barraneche	8	Agosto	2023-08-30T00:00:00	2024-11-06T22:00:00	7	Dirección del viento	3.22
46455	7	Sololá	701	Sololá	3	Barraneche	8	Agosto	2023-08-30T00:00:00	2024-11-06T22:00:00	1	Precipitación	0
46456	7	Sololá	701	Sololá	3	Barraneche	8	Agosto	2023-08-30T00:00:00	2024-11-06T22:00:00	8	Radiación solar	0
46457	7	Sololá	701	Sololá	3	Barraneche	8	Agosto	2023-08-30T00:00:00	2024-11-06T23:00:00	2	Temperatura media	13.7
46458	7	Sololá	701	Sololá	3	Barraneche	8	Agosto	2023-08-30T00:00:00	2024-11-06T23:00:00	4	Temperatura máxima	13.9
46459	7	Sololá	701	Sololá	3	Barraneche	8	Agosto	2023-08-30T00:00:00	2024-11-06T23:00:00	3	Temperatura mínima	13.4
46460	7	Sololá	701	Sololá	3	Barraneche	8	Agosto	2023-08-30T00:00:00	2024-11-06T23:00:00	5	Humedad	79
46461	7	Sololá	701	Sololá	3	Barraneche	8	Agosto	2023-08-30T00:00:00	2024-11-06T23:00:00	6	Velocidad del viento	4.8
46462	7	Sololá	701	Sololá	3	Barraneche	8	Agosto	2023-08-30T00:00:00	2024-11-06T23:00:00	7	Dirección del viento	4.83
46463	7	Sololá	701	Sololá	3	Barraneche	8	Agosto	2023-08-30T00:00:00	2024-11-06T23:00:00	1	Precipitación	0
46464	7	Sololá	701	Sololá	3	Barraneche	8	Agosto	2023-08-30T00:00:00	2024-11-06T23:00:00	8	Radiación solar	0
46465	7	Sololá	701	Sololá	3	Barraneche	8	Agosto	2023-08-31T00:00:00	2024-11-06T00:00:00	2	Temperatura media	13.8
46466	7	Sololá	701	Sololá	3	Barraneche	8	Agosto	2023-08-31T00:00:00	2024-11-06T00:00:00	4	Temperatura máxima	13.9
46467	7	Sololá	701	Sololá	3	Barraneche	8	Agosto	2023-08-31T00:00:00	2024-11-06T00:00:00	3	Temperatura mínima	13.6
46468	7	Sololá	701	Sololá	3	Barraneche	8	Agosto	2023-08-31T00:00:00	2024-11-06T00:00:00	5	Humedad	78
46469	7	Sololá	701	Sololá	3	Barraneche	8	Agosto	2023-08-31T00:00:00	2024-11-06T00:00:00	6	Velocidad del viento	4.8
46470	7	Sololá	701	Sololá	3	Barraneche	8	Agosto	2023-08-31T00:00:00	2024-11-06T00:00:00	7	Dirección del viento	4.83
46471	7	Sololá	701	Sololá	3	Barraneche	8	Agosto	2023-08-31T00:00:00	2024-11-06T00:00:00	1	Precipitación	0
46472	7	Sololá	701	Sololá	3	Barraneche	8	Agosto	2023-08-31T00:00:00	2024-11-06T00:00:00	8	Radiación solar	0
46473	7	Sololá	701	Sololá	3	Barraneche	8	Agosto	2023-08-31T00:00:00	2024-11-06T01:00:00	2	Temperatura media	13.5
46474	7	Sololá	701	Sololá	3	Barraneche	8	Agosto	2023-08-31T00:00:00	2024-11-06T01:00:00	4	Temperatura máxima	13.9
46475	7	Sololá	701	Sololá	3	Barraneche	8	Agosto	2023-08-31T00:00:00	2024-11-06T01:00:00	3	Temperatura mínima	13.4
46476	7	Sololá	701	Sololá	3	Barraneche	8	Agosto	2023-08-31T00:00:00	2024-11-06T01:00:00	5	Humedad	78
46477	7	Sololá	701	Sololá	3	Barraneche	8	Agosto	2023-08-31T00:00:00	2024-11-06T01:00:00	6	Velocidad del viento	3.2
46478	7	Sololá	701	Sololá	3	Barraneche	8	Agosto	2023-08-31T00:00:00	2024-11-06T01:00:00	7	Dirección del viento	3.22
46479	7	Sololá	701	Sololá	3	Barraneche	8	Agosto	2023-08-31T00:00:00	2024-11-06T01:00:00	1	Precipitación	0
46480	7	Sololá	701	Sololá	3	Barraneche	8	Agosto	2023-08-31T00:00:00	2024-11-06T01:00:00	8	Radiación solar	0
46481	7	Sololá	701	Sololá	3	Barraneche	8	Agosto	2023-08-31T00:00:00	2024-11-06T02:00:00	2	Temperatura media	13.2
46482	7	Sololá	701	Sololá	3	Barraneche	8	Agosto	2023-08-31T00:00:00	2024-11-06T02:00:00	4	Temperatura máxima	13.6
46483	7	Sololá	701	Sololá	3	Barraneche	8	Agosto	2023-08-31T00:00:00	2024-11-06T02:00:00	3	Temperatura mínima	13.2
46484	7	Sololá	701	Sololá	3	Barraneche	8	Agosto	2023-08-31T00:00:00	2024-11-06T02:00:00	5	Humedad	78
46485	7	Sololá	701	Sololá	3	Barraneche	8	Agosto	2023-08-31T00:00:00	2024-11-06T02:00:00	6	Velocidad del viento	3.2
46486	7	Sololá	701	Sololá	3	Barraneche	8	Agosto	2023-08-31T00:00:00	2024-11-06T02:00:00	7	Dirección del viento	3.22
46487	7	Sololá	701	Sololá	3	Barraneche	8	Agosto	2023-08-31T00:00:00	2024-11-06T02:00:00	1	Precipitación	0
46488	7	Sololá	701	Sololá	3	Barraneche	8	Agosto	2023-08-31T00:00:00	2024-11-06T02:00:00	8	Radiación solar	0
46489	7	Sololá	701	Sololá	3	Barraneche	8	Agosto	2023-08-31T00:00:00	2024-11-06T03:00:00	2	Temperatura media	13.1
46490	7	Sololá	701	Sololá	3	Barraneche	8	Agosto	2023-08-31T00:00:00	2024-11-06T03:00:00	4	Temperatura máxima	13.2
46491	7	Sololá	701	Sololá	3	Barraneche	8	Agosto	2023-08-31T00:00:00	2024-11-06T03:00:00	3	Temperatura mínima	13
46492	7	Sololá	701	Sololá	3	Barraneche	8	Agosto	2023-08-31T00:00:00	2024-11-06T03:00:00	5	Humedad	78
46493	7	Sololá	701	Sololá	3	Barraneche	8	Agosto	2023-08-31T00:00:00	2024-11-06T03:00:00	6	Velocidad del viento	4.8
46494	7	Sololá	701	Sololá	3	Barraneche	8	Agosto	2023-08-31T00:00:00	2024-11-06T03:00:00	7	Dirección del viento	4.83
46495	7	Sololá	701	Sololá	3	Barraneche	8	Agosto	2023-08-31T00:00:00	2024-11-06T03:00:00	1	Precipitación	0
46496	7	Sololá	701	Sololá	3	Barraneche	8	Agosto	2023-08-31T00:00:00	2024-11-06T03:00:00	8	Radiación solar	0
46497	7	Sololá	701	Sololá	3	Barraneche	8	Agosto	2023-08-31T00:00:00	2024-11-06T04:00:00	2	Temperatura media	13.2
46498	7	Sololá	701	Sololá	3	Barraneche	8	Agosto	2023-08-31T00:00:00	2024-11-06T04:00:00	4	Temperatura máxima	13.2
46499	7	Sololá	701	Sololá	3	Barraneche	8	Agosto	2023-08-31T00:00:00	2024-11-06T04:00:00	3	Temperatura mínima	12.9
46500	7	Sololá	701	Sololá	3	Barraneche	8	Agosto	2023-08-31T00:00:00	2024-11-06T04:00:00	5	Humedad	78
46501	7	Sololá	701	Sololá	3	Barraneche	8	Agosto	2023-08-31T00:00:00	2024-11-06T04:00:00	6	Velocidad del viento	4.8
46502	7	Sololá	701	Sololá	3	Barraneche	8	Agosto	2023-08-31T00:00:00	2024-11-06T04:00:00	7	Dirección del viento	4.83
46503	7	Sololá	701	Sololá	3	Barraneche	8	Agosto	2023-08-31T00:00:00	2024-11-06T04:00:00	1	Precipitación	0
46504	7	Sololá	701	Sololá	3	Barraneche	8	Agosto	2023-08-31T00:00:00	2024-11-06T04:00:00	8	Radiación solar	0
46505	7	Sololá	701	Sololá	3	Barraneche	8	Agosto	2023-08-31T00:00:00	2024-11-06T05:00:00	2	Temperatura media	12.8
46506	7	Sololá	701	Sololá	3	Barraneche	8	Agosto	2023-08-31T00:00:00	2024-11-06T05:00:00	4	Temperatura máxima	13.2
46507	7	Sololá	701	Sololá	3	Barraneche	8	Agosto	2023-08-31T00:00:00	2024-11-06T05:00:00	3	Temperatura mínima	12.8
46508	7	Sololá	701	Sololá	3	Barraneche	8	Agosto	2023-08-31T00:00:00	2024-11-06T05:00:00	5	Humedad	76
46509	7	Sololá	701	Sololá	3	Barraneche	8	Agosto	2023-08-31T00:00:00	2024-11-06T05:00:00	6	Velocidad del viento	4.8
46510	7	Sololá	701	Sololá	3	Barraneche	8	Agosto	2023-08-31T00:00:00	2024-11-06T05:00:00	7	Dirección del viento	4.83
46511	7	Sololá	701	Sololá	3	Barraneche	8	Agosto	2023-08-31T00:00:00	2024-11-06T05:00:00	1	Precipitación	0
46512	7	Sololá	701	Sololá	3	Barraneche	8	Agosto	2023-08-31T00:00:00	2024-11-06T05:00:00	8	Radiación solar	0
46513	7	Sololá	701	Sololá	3	Barraneche	8	Agosto	2023-08-31T00:00:00	2024-11-06T06:00:00	2	Temperatura media	12.6
46514	7	Sololá	701	Sololá	3	Barraneche	8	Agosto	2023-08-31T00:00:00	2024-11-06T06:00:00	4	Temperatura máxima	12.8
46515	7	Sololá	701	Sololá	3	Barraneche	8	Agosto	2023-08-31T00:00:00	2024-11-06T06:00:00	3	Temperatura mínima	12.5
46516	7	Sololá	701	Sololá	3	Barraneche	8	Agosto	2023-08-31T00:00:00	2024-11-06T06:00:00	5	Humedad	75
46517	7	Sololá	701	Sololá	3	Barraneche	8	Agosto	2023-08-31T00:00:00	2024-11-06T06:00:00	6	Velocidad del viento	4.8
46518	7	Sololá	701	Sololá	3	Barraneche	8	Agosto	2023-08-31T00:00:00	2024-11-06T06:00:00	7	Dirección del viento	4.83
46519	7	Sololá	701	Sololá	3	Barraneche	8	Agosto	2023-08-31T00:00:00	2024-11-06T06:00:00	1	Precipitación	0
46520	7	Sololá	701	Sololá	3	Barraneche	8	Agosto	2023-08-31T00:00:00	2024-11-06T06:00:00	8	Radiación solar	0
46521	7	Sololá	701	Sololá	3	Barraneche	8	Agosto	2023-08-31T00:00:00	2024-11-06T07:00:00	2	Temperatura media	13.7
46522	7	Sololá	701	Sololá	3	Barraneche	8	Agosto	2023-08-31T00:00:00	2024-11-06T07:00:00	4	Temperatura máxima	13.7
46523	7	Sololá	701	Sololá	3	Barraneche	8	Agosto	2023-08-31T00:00:00	2024-11-06T07:00:00	3	Temperatura mínima	12.3
46524	7	Sololá	701	Sololá	3	Barraneche	8	Agosto	2023-08-31T00:00:00	2024-11-06T07:00:00	5	Humedad	74
46525	7	Sololá	701	Sololá	3	Barraneche	8	Agosto	2023-08-31T00:00:00	2024-11-06T07:00:00	6	Velocidad del viento	4.8
46526	7	Sololá	701	Sololá	3	Barraneche	8	Agosto	2023-08-31T00:00:00	2024-11-06T07:00:00	7	Dirección del viento	4.83
46527	7	Sololá	701	Sololá	3	Barraneche	8	Agosto	2023-08-31T00:00:00	2024-11-06T07:00:00	1	Precipitación	0
46528	7	Sololá	701	Sololá	3	Barraneche	8	Agosto	2023-08-31T00:00:00	2024-11-06T07:00:00	8	Radiación solar	62
46529	7	Sololá	701	Sololá	3	Barraneche	8	Agosto	2023-08-31T00:00:00	2024-11-06T08:00:00	2	Temperatura media	18.3
46530	7	Sololá	701	Sololá	3	Barraneche	8	Agosto	2023-08-31T00:00:00	2024-11-06T08:00:00	4	Temperatura máxima	18.3
46531	7	Sololá	701	Sololá	3	Barraneche	8	Agosto	2023-08-31T00:00:00	2024-11-06T08:00:00	3	Temperatura mínima	13.7
46532	7	Sololá	701	Sololá	3	Barraneche	8	Agosto	2023-08-31T00:00:00	2024-11-06T08:00:00	5	Humedad	64
46533	7	Sololá	701	Sololá	3	Barraneche	8	Agosto	2023-08-31T00:00:00	2024-11-06T08:00:00	6	Velocidad del viento	3.2
46534	7	Sololá	701	Sololá	3	Barraneche	8	Agosto	2023-08-31T00:00:00	2024-11-06T08:00:00	7	Dirección del viento	3.22
46535	7	Sololá	701	Sololá	3	Barraneche	8	Agosto	2023-08-31T00:00:00	2024-11-06T08:00:00	1	Precipitación	0
46536	7	Sololá	701	Sololá	3	Barraneche	8	Agosto	2023-08-31T00:00:00	2024-11-06T08:00:00	8	Radiación solar	374
46537	7	Sololá	701	Sololá	3	Barraneche	8	Agosto	2023-08-31T00:00:00	2024-11-06T09:00:00	2	Temperatura media	20.4
46538	7	Sololá	701	Sololá	3	Barraneche	8	Agosto	2023-08-31T00:00:00	2024-11-06T09:00:00	4	Temperatura máxima	20.5
46539	7	Sololá	701	Sololá	3	Barraneche	8	Agosto	2023-08-31T00:00:00	2024-11-06T09:00:00	3	Temperatura mínima	18.4
46540	7	Sololá	701	Sololá	3	Barraneche	8	Agosto	2023-08-31T00:00:00	2024-11-06T09:00:00	5	Humedad	42
46541	7	Sololá	701	Sololá	3	Barraneche	8	Agosto	2023-08-31T00:00:00	2024-11-06T09:00:00	6	Velocidad del viento	3.2
46542	7	Sololá	701	Sololá	3	Barraneche	8	Agosto	2023-08-31T00:00:00	2024-11-06T09:00:00	7	Dirección del viento	3.22
46543	7	Sololá	701	Sololá	3	Barraneche	8	Agosto	2023-08-31T00:00:00	2024-11-06T09:00:00	1	Precipitación	0
46544	7	Sololá	701	Sololá	3	Barraneche	8	Agosto	2023-08-31T00:00:00	2024-11-06T09:00:00	8	Radiación solar	596
46545	7	Sololá	701	Sololá	3	Barraneche	8	Agosto	2023-08-31T00:00:00	2024-11-06T10:00:00	2	Temperatura media	20.8
46546	7	Sololá	701	Sololá	3	Barraneche	8	Agosto	2023-08-31T00:00:00	2024-11-06T10:00:00	4	Temperatura máxima	21
46547	7	Sololá	701	Sololá	3	Barraneche	8	Agosto	2023-08-31T00:00:00	2024-11-06T10:00:00	3	Temperatura mínima	20.2
46548	7	Sololá	701	Sololá	3	Barraneche	8	Agosto	2023-08-31T00:00:00	2024-11-06T10:00:00	5	Humedad	47
46549	7	Sololá	701	Sololá	3	Barraneche	8	Agosto	2023-08-31T00:00:00	2024-11-06T10:00:00	6	Velocidad del viento	4.8
46550	7	Sololá	701	Sololá	3	Barraneche	8	Agosto	2023-08-31T00:00:00	2024-11-06T10:00:00	7	Dirección del viento	4.83
46551	7	Sololá	701	Sololá	3	Barraneche	8	Agosto	2023-08-31T00:00:00	2024-11-06T10:00:00	1	Precipitación	0
46552	7	Sololá	701	Sololá	3	Barraneche	8	Agosto	2023-08-31T00:00:00	2024-11-06T10:00:00	8	Radiación solar	755
46553	7	Sololá	701	Sololá	3	Barraneche	8	Agosto	2023-08-31T00:00:00	2024-11-06T11:00:00	2	Temperatura media	21.7
46554	7	Sololá	701	Sololá	3	Barraneche	8	Agosto	2023-08-31T00:00:00	2024-11-06T11:00:00	4	Temperatura máxima	21.7
46555	7	Sololá	701	Sololá	3	Barraneche	8	Agosto	2023-08-31T00:00:00	2024-11-06T11:00:00	3	Temperatura mínima	20.1
46556	7	Sololá	701	Sololá	3	Barraneche	8	Agosto	2023-08-31T00:00:00	2024-11-06T11:00:00	5	Humedad	43
46557	7	Sololá	701	Sololá	3	Barraneche	8	Agosto	2023-08-31T00:00:00	2024-11-06T11:00:00	6	Velocidad del viento	8
46558	7	Sololá	701	Sololá	3	Barraneche	8	Agosto	2023-08-31T00:00:00	2024-11-06T11:00:00	7	Dirección del viento	8.05
46559	7	Sololá	701	Sololá	3	Barraneche	8	Agosto	2023-08-31T00:00:00	2024-11-06T11:00:00	1	Precipitación	0
46560	7	Sololá	701	Sololá	3	Barraneche	8	Agosto	2023-08-31T00:00:00	2024-11-06T11:00:00	8	Radiación solar	894
46561	7	Sololá	701	Sololá	3	Barraneche	8	Agosto	2023-08-31T00:00:00	2024-11-06T12:00:00	2	Temperatura media	20.1
46562	7	Sololá	701	Sololá	3	Barraneche	8	Agosto	2023-08-31T00:00:00	2024-11-06T12:00:00	4	Temperatura máxima	21.7
46563	7	Sololá	701	Sololá	3	Barraneche	8	Agosto	2023-08-31T00:00:00	2024-11-06T12:00:00	3	Temperatura mínima	20.1
46564	7	Sololá	701	Sololá	3	Barraneche	8	Agosto	2023-08-31T00:00:00	2024-11-06T12:00:00	5	Humedad	60
46565	7	Sololá	701	Sololá	3	Barraneche	8	Agosto	2023-08-31T00:00:00	2024-11-06T12:00:00	6	Velocidad del viento	12.9
46566	7	Sololá	701	Sololá	3	Barraneche	8	Agosto	2023-08-31T00:00:00	2024-11-06T12:00:00	7	Dirección del viento	12.87
46567	7	Sololá	701	Sololá	3	Barraneche	8	Agosto	2023-08-31T00:00:00	2024-11-06T12:00:00	1	Precipitación	0
46568	7	Sololá	701	Sololá	3	Barraneche	8	Agosto	2023-08-31T00:00:00	2024-11-06T12:00:00	8	Radiación solar	1060
46569	7	Sololá	701	Sololá	3	Barraneche	8	Agosto	2023-08-31T00:00:00	2024-11-06T13:00:00	2	Temperatura media	18.2
46570	7	Sololá	701	Sololá	3	Barraneche	8	Agosto	2023-08-31T00:00:00	2024-11-06T13:00:00	4	Temperatura máxima	20.1
46571	7	Sololá	701	Sololá	3	Barraneche	8	Agosto	2023-08-31T00:00:00	2024-11-06T13:00:00	3	Temperatura mínima	18.2
46572	7	Sololá	701	Sololá	3	Barraneche	8	Agosto	2023-08-31T00:00:00	2024-11-06T13:00:00	5	Humedad	68
46573	7	Sololá	701	Sololá	3	Barraneche	8	Agosto	2023-08-31T00:00:00	2024-11-06T13:00:00	6	Velocidad del viento	12.9
46574	7	Sololá	701	Sololá	3	Barraneche	8	Agosto	2023-08-31T00:00:00	2024-11-06T13:00:00	7	Dirección del viento	12.87
46575	7	Sololá	701	Sololá	3	Barraneche	8	Agosto	2023-08-31T00:00:00	2024-11-06T13:00:00	1	Precipitación	0
46576	7	Sololá	701	Sololá	3	Barraneche	8	Agosto	2023-08-31T00:00:00	2024-11-06T13:00:00	8	Radiación solar	649
46577	7	Sololá	701	Sololá	3	Barraneche	8	Agosto	2023-08-31T00:00:00	2024-11-06T14:00:00	2	Temperatura media	15.9
46578	7	Sololá	701	Sololá	3	Barraneche	8	Agosto	2023-08-31T00:00:00	2024-11-06T14:00:00	4	Temperatura máxima	18.3
46579	7	Sololá	701	Sololá	3	Barraneche	8	Agosto	2023-08-31T00:00:00	2024-11-06T14:00:00	3	Temperatura mínima	15.9
46580	7	Sololá	701	Sololá	3	Barraneche	8	Agosto	2023-08-31T00:00:00	2024-11-06T14:00:00	5	Humedad	70
46581	7	Sololá	701	Sololá	3	Barraneche	8	Agosto	2023-08-31T00:00:00	2024-11-06T14:00:00	6	Velocidad del viento	9.7
46582	7	Sololá	701	Sololá	3	Barraneche	8	Agosto	2023-08-31T00:00:00	2024-11-06T14:00:00	7	Dirección del viento	9.66
46583	7	Sololá	701	Sololá	3	Barraneche	8	Agosto	2023-08-31T00:00:00	2024-11-06T14:00:00	1	Precipitación	5
46584	7	Sololá	701	Sololá	3	Barraneche	8	Agosto	2023-08-31T00:00:00	2024-11-06T14:00:00	8	Radiación solar	179
46585	7	Sololá	701	Sololá	3	Barraneche	8	Agosto	2023-08-31T00:00:00	2024-11-06T15:00:00	2	Temperatura media	14.2
46586	7	Sololá	701	Sololá	3	Barraneche	8	Agosto	2023-08-31T00:00:00	2024-11-06T15:00:00	4	Temperatura máxima	15.8
46587	7	Sololá	701	Sololá	3	Barraneche	8	Agosto	2023-08-31T00:00:00	2024-11-06T15:00:00	3	Temperatura mínima	13.8
46588	7	Sololá	701	Sololá	3	Barraneche	8	Agosto	2023-08-31T00:00:00	2024-11-06T15:00:00	5	Humedad	79
46589	7	Sololá	701	Sololá	3	Barraneche	8	Agosto	2023-08-31T00:00:00	2024-11-06T15:00:00	6	Velocidad del viento	4.8
46590	7	Sololá	701	Sololá	3	Barraneche	8	Agosto	2023-08-31T00:00:00	2024-11-06T15:00:00	7	Dirección del viento	4.83
46591	7	Sololá	701	Sololá	3	Barraneche	8	Agosto	2023-08-31T00:00:00	2024-11-06T15:00:00	1	Precipitación	7.4
46592	7	Sololá	701	Sololá	3	Barraneche	8	Agosto	2023-08-31T00:00:00	2024-11-06T15:00:00	8	Radiación solar	27
46593	7	Sololá	701	Sololá	3	Barraneche	8	Agosto	2023-08-31T00:00:00	2024-11-06T16:00:00	2	Temperatura media	14.3
46594	7	Sololá	701	Sololá	3	Barraneche	8	Agosto	2023-08-31T00:00:00	2024-11-06T16:00:00	4	Temperatura máxima	14.3
46595	7	Sololá	701	Sololá	3	Barraneche	8	Agosto	2023-08-31T00:00:00	2024-11-06T16:00:00	3	Temperatura mínima	13.7
46596	7	Sololá	701	Sololá	3	Barraneche	8	Agosto	2023-08-31T00:00:00	2024-11-06T16:00:00	5	Humedad	80
46597	7	Sololá	701	Sololá	3	Barraneche	8	Agosto	2023-08-31T00:00:00	2024-11-06T16:00:00	6	Velocidad del viento	4.8
46598	7	Sololá	701	Sololá	3	Barraneche	8	Agosto	2023-08-31T00:00:00	2024-11-06T16:00:00	7	Dirección del viento	4.83
46599	7	Sololá	701	Sololá	3	Barraneche	8	Agosto	2023-08-31T00:00:00	2024-11-06T16:00:00	1	Precipitación	0.4
46600	7	Sololá	701	Sololá	3	Barraneche	8	Agosto	2023-08-31T00:00:00	2024-11-06T16:00:00	8	Radiación solar	38
46601	7	Sololá	701	Sololá	3	Barraneche	8	Agosto	2023-08-31T00:00:00	2024-11-06T17:00:00	2	Temperatura media	13.8
46602	7	Sololá	701	Sololá	3	Barraneche	8	Agosto	2023-08-31T00:00:00	2024-11-06T17:00:00	4	Temperatura máxima	14.4
46603	7	Sololá	701	Sololá	3	Barraneche	8	Agosto	2023-08-31T00:00:00	2024-11-06T17:00:00	3	Temperatura mínima	13.8
46604	7	Sololá	701	Sololá	3	Barraneche	8	Agosto	2023-08-31T00:00:00	2024-11-06T17:00:00	5	Humedad	75
46605	7	Sololá	701	Sololá	3	Barraneche	8	Agosto	2023-08-31T00:00:00	2024-11-06T17:00:00	6	Velocidad del viento	4.8
46606	7	Sololá	701	Sololá	3	Barraneche	8	Agosto	2023-08-31T00:00:00	2024-11-06T17:00:00	7	Dirección del viento	4.83
46607	7	Sololá	701	Sololá	3	Barraneche	8	Agosto	2023-08-31T00:00:00	2024-11-06T17:00:00	1	Precipitación	0.2
46608	7	Sololá	701	Sololá	3	Barraneche	8	Agosto	2023-08-31T00:00:00	2024-11-06T17:00:00	8	Radiación solar	47
46609	7	Sololá	701	Sololá	3	Barraneche	8	Agosto	2023-08-31T00:00:00	2024-11-06T18:00:00	2	Temperatura media	13.4
46610	7	Sololá	701	Sololá	3	Barraneche	8	Agosto	2023-08-31T00:00:00	2024-11-06T18:00:00	4	Temperatura máxima	13.8
46611	7	Sololá	701	Sololá	3	Barraneche	8	Agosto	2023-08-31T00:00:00	2024-11-06T18:00:00	3	Temperatura mínima	13.3
46612	7	Sololá	701	Sololá	3	Barraneche	8	Agosto	2023-08-31T00:00:00	2024-11-06T18:00:00	5	Humedad	72
46613	7	Sololá	701	Sololá	3	Barraneche	8	Agosto	2023-08-31T00:00:00	2024-11-06T18:00:00	6	Velocidad del viento	4.8
46614	7	Sololá	701	Sololá	3	Barraneche	8	Agosto	2023-08-31T00:00:00	2024-11-06T18:00:00	7	Dirección del viento	4.83
46615	7	Sololá	701	Sololá	3	Barraneche	8	Agosto	2023-08-31T00:00:00	2024-11-06T18:00:00	1	Precipitación	0
46616	7	Sololá	701	Sololá	3	Barraneche	8	Agosto	2023-08-31T00:00:00	2024-11-06T18:00:00	8	Radiación solar	5
46617	7	Sololá	701	Sololá	3	Barraneche	8	Agosto	2023-08-31T00:00:00	2024-11-06T19:00:00	2	Temperatura media	13.2
46618	7	Sololá	701	Sololá	3	Barraneche	8	Agosto	2023-08-31T00:00:00	2024-11-06T19:00:00	4	Temperatura máxima	13.4
46619	7	Sololá	701	Sololá	3	Barraneche	8	Agosto	2023-08-31T00:00:00	2024-11-06T19:00:00	3	Temperatura mínima	13
46620	7	Sololá	701	Sololá	3	Barraneche	8	Agosto	2023-08-31T00:00:00	2024-11-06T19:00:00	5	Humedad	73
46621	7	Sololá	701	Sololá	3	Barraneche	8	Agosto	2023-08-31T00:00:00	2024-11-06T19:00:00	6	Velocidad del viento	4.8
46622	7	Sololá	701	Sololá	3	Barraneche	8	Agosto	2023-08-31T00:00:00	2024-11-06T19:00:00	7	Dirección del viento	4.83
46623	7	Sololá	701	Sololá	3	Barraneche	8	Agosto	2023-08-31T00:00:00	2024-11-06T19:00:00	1	Precipitación	0
46624	7	Sololá	701	Sololá	3	Barraneche	8	Agosto	2023-08-31T00:00:00	2024-11-06T19:00:00	8	Radiación solar	0
46625	7	Sololá	701	Sololá	3	Barraneche	8	Agosto	2023-08-31T00:00:00	2024-11-06T20:00:00	2	Temperatura media	13.1
46626	7	Sololá	701	Sololá	3	Barraneche	8	Agosto	2023-08-31T00:00:00	2024-11-06T20:00:00	4	Temperatura máxima	13.4
46627	7	Sololá	701	Sololá	3	Barraneche	8	Agosto	2023-08-31T00:00:00	2024-11-06T20:00:00	3	Temperatura mínima	13.1
46628	7	Sololá	701	Sololá	3	Barraneche	8	Agosto	2023-08-31T00:00:00	2024-11-06T20:00:00	5	Humedad	74
46629	7	Sololá	701	Sololá	3	Barraneche	8	Agosto	2023-08-31T00:00:00	2024-11-06T20:00:00	6	Velocidad del viento	6.4
46630	7	Sololá	701	Sololá	3	Barraneche	8	Agosto	2023-08-31T00:00:00	2024-11-06T20:00:00	7	Dirección del viento	6.44
46631	7	Sololá	701	Sololá	3	Barraneche	8	Agosto	2023-08-31T00:00:00	2024-11-06T20:00:00	1	Precipitación	1.4
46632	7	Sololá	701	Sololá	3	Barraneche	8	Agosto	2023-08-31T00:00:00	2024-11-06T20:00:00	8	Radiación solar	0
46633	7	Sololá	701	Sololá	3	Barraneche	8	Agosto	2023-08-31T00:00:00	2024-11-06T21:00:00	2	Temperatura media	12.9
46634	7	Sololá	701	Sololá	3	Barraneche	8	Agosto	2023-08-31T00:00:00	2024-11-06T21:00:00	4	Temperatura máxima	13.1
46635	7	Sololá	701	Sololá	3	Barraneche	8	Agosto	2023-08-31T00:00:00	2024-11-06T21:00:00	3	Temperatura mínima	12.7
46636	7	Sololá	701	Sololá	3	Barraneche	8	Agosto	2023-08-31T00:00:00	2024-11-06T21:00:00	5	Humedad	71
46637	7	Sololá	701	Sololá	3	Barraneche	8	Agosto	2023-08-31T00:00:00	2024-11-06T21:00:00	6	Velocidad del viento	8
46638	7	Sololá	701	Sololá	3	Barraneche	8	Agosto	2023-08-31T00:00:00	2024-11-06T21:00:00	7	Dirección del viento	8.05
46639	7	Sololá	701	Sololá	3	Barraneche	8	Agosto	2023-08-31T00:00:00	2024-11-06T21:00:00	1	Precipitación	0.4
46640	7	Sololá	701	Sololá	3	Barraneche	8	Agosto	2023-08-31T00:00:00	2024-11-06T21:00:00	8	Radiación solar	0
46641	7	Sololá	701	Sololá	3	Barraneche	8	Agosto	2023-08-31T00:00:00	2024-11-06T22:00:00	2	Temperatura media	12.7
46642	7	Sololá	701	Sololá	3	Barraneche	8	Agosto	2023-08-31T00:00:00	2024-11-06T22:00:00	4	Temperatura máxima	13.3
46643	7	Sololá	701	Sololá	3	Barraneche	8	Agosto	2023-08-31T00:00:00	2024-11-06T22:00:00	3	Temperatura mínima	12.7
46644	7	Sololá	701	Sololá	3	Barraneche	8	Agosto	2023-08-31T00:00:00	2024-11-06T22:00:00	5	Humedad	72
46645	7	Sololá	701	Sololá	3	Barraneche	8	Agosto	2023-08-31T00:00:00	2024-11-06T22:00:00	6	Velocidad del viento	6.4
46646	7	Sololá	701	Sololá	3	Barraneche	8	Agosto	2023-08-31T00:00:00	2024-11-06T22:00:00	7	Dirección del viento	6.44
46647	7	Sololá	701	Sololá	3	Barraneche	8	Agosto	2023-08-31T00:00:00	2024-11-06T22:00:00	1	Precipitación	0
46648	7	Sololá	701	Sololá	3	Barraneche	8	Agosto	2023-08-31T00:00:00	2024-11-06T22:00:00	8	Radiación solar	0
46649	7	Sololá	701	Sololá	3	Barraneche	8	Agosto	2023-08-31T00:00:00	2024-11-06T23:00:00	2	Temperatura media	12.4
46650	7	Sololá	701	Sololá	3	Barraneche	8	Agosto	2023-08-31T00:00:00	2024-11-06T23:00:00	4	Temperatura máxima	12.7
46651	7	Sololá	701	Sololá	3	Barraneche	8	Agosto	2023-08-31T00:00:00	2024-11-06T23:00:00	3	Temperatura mínima	12.4
46652	7	Sololá	701	Sololá	3	Barraneche	8	Agosto	2023-08-31T00:00:00	2024-11-06T23:00:00	5	Humedad	78
46653	7	Sololá	701	Sololá	3	Barraneche	8	Agosto	2023-08-31T00:00:00	2024-11-06T23:00:00	6	Velocidad del viento	3.2
46654	7	Sololá	701	Sololá	3	Barraneche	8	Agosto	2023-08-31T00:00:00	2024-11-06T23:00:00	7	Dirección del viento	3.22
46655	7	Sololá	701	Sololá	3	Barraneche	8	Agosto	2023-08-31T00:00:00	2024-11-06T23:00:00	1	Precipitación	0
46656	7	Sololá	701	Sololá	3	Barraneche	8	Agosto	2023-08-31T00:00:00	2024-11-06T23:00:00	8	Radiación solar	0
46657	7	Sololá	701	Sololá	3	Barraneche	9	Septiembre	2023-01-09T00:00:00	2024-11-06T00:00:00	2	Temperatura media	13.8
46658	7	Sololá	701	Sololá	3	Barraneche	9	Septiembre	2023-01-09T00:00:00	2024-11-06T00:00:00	4	Temperatura máxima	13.8
46659	7	Sololá	701	Sololá	3	Barraneche	9	Septiembre	2023-01-09T00:00:00	2024-11-06T00:00:00	3	Temperatura mínima	12.4
46660	7	Sololá	701	Sololá	3	Barraneche	9	Septiembre	2023-01-09T00:00:00	2024-11-06T00:00:00	5	Humedad	64
46661	7	Sololá	701	Sololá	3	Barraneche	9	Septiembre	2023-01-09T00:00:00	2024-11-06T00:00:00	6	Velocidad del viento	6.4
46662	7	Sololá	701	Sololá	3	Barraneche	9	Septiembre	2023-01-09T00:00:00	2024-11-06T00:00:00	7	Dirección del viento	6.44
46663	7	Sololá	701	Sololá	3	Barraneche	9	Septiembre	2023-01-09T00:00:00	2024-11-06T00:00:00	1	Precipitación	0
46664	7	Sololá	701	Sololá	3	Barraneche	9	Septiembre	2023-01-09T00:00:00	2024-11-06T00:00:00	8	Radiación solar	0
46665	7	Sololá	701	Sololá	3	Barraneche	9	Septiembre	2023-01-09T00:00:00	2024-11-06T01:00:00	2	Temperatura media	13.7
46666	7	Sololá	701	Sololá	3	Barraneche	9	Septiembre	2023-01-09T00:00:00	2024-11-06T01:00:00	4	Temperatura máxima	13.8
46667	7	Sololá	701	Sololá	3	Barraneche	9	Septiembre	2023-01-09T00:00:00	2024-11-06T01:00:00	3	Temperatura mínima	12.8
46668	7	Sololá	701	Sololá	3	Barraneche	9	Septiembre	2023-01-09T00:00:00	2024-11-06T01:00:00	5	Humedad	63
46669	7	Sololá	701	Sololá	3	Barraneche	9	Septiembre	2023-01-09T00:00:00	2024-11-06T01:00:00	6	Velocidad del viento	11.3
46670	7	Sololá	701	Sololá	3	Barraneche	9	Septiembre	2023-01-09T00:00:00	2024-11-06T01:00:00	7	Dirección del viento	11.27
46671	7	Sololá	701	Sololá	3	Barraneche	9	Septiembre	2023-01-09T00:00:00	2024-11-06T01:00:00	1	Precipitación	0.6
46672	7	Sololá	701	Sololá	3	Barraneche	9	Septiembre	2023-01-09T00:00:00	2024-11-06T01:00:00	8	Radiación solar	0
46673	7	Sololá	701	Sololá	3	Barraneche	9	Septiembre	2023-01-09T00:00:00	2024-11-06T02:00:00	2	Temperatura media	12.8
46674	7	Sololá	701	Sololá	3	Barraneche	9	Septiembre	2023-01-09T00:00:00	2024-11-06T02:00:00	4	Temperatura máxima	14.1
46675	7	Sololá	701	Sololá	3	Barraneche	9	Septiembre	2023-01-09T00:00:00	2024-11-06T02:00:00	3	Temperatura mínima	12.6
46676	7	Sololá	701	Sololá	3	Barraneche	9	Septiembre	2023-01-09T00:00:00	2024-11-06T02:00:00	5	Humedad	69
46677	7	Sololá	701	Sololá	3	Barraneche	9	Septiembre	2023-01-09T00:00:00	2024-11-06T02:00:00	6	Velocidad del viento	6.4
46678	7	Sololá	701	Sololá	3	Barraneche	9	Septiembre	2023-01-09T00:00:00	2024-11-06T02:00:00	7	Dirección del viento	6.44
46679	7	Sololá	701	Sololá	3	Barraneche	9	Septiembre	2023-01-09T00:00:00	2024-11-06T02:00:00	1	Precipitación	0
46680	7	Sololá	701	Sololá	3	Barraneche	9	Septiembre	2023-01-09T00:00:00	2024-11-06T02:00:00	8	Radiación solar	0
46681	7	Sololá	701	Sololá	3	Barraneche	9	Septiembre	2023-01-09T00:00:00	2024-11-06T03:00:00	2	Temperatura media	12.8
46682	7	Sololá	701	Sololá	3	Barraneche	9	Septiembre	2023-01-09T00:00:00	2024-11-06T03:00:00	4	Temperatura máxima	13.3
46683	7	Sololá	701	Sololá	3	Barraneche	9	Septiembre	2023-01-09T00:00:00	2024-11-06T03:00:00	3	Temperatura mínima	12.8
46684	7	Sololá	701	Sololá	3	Barraneche	9	Septiembre	2023-01-09T00:00:00	2024-11-06T03:00:00	5	Humedad	68
46685	7	Sololá	701	Sololá	3	Barraneche	9	Septiembre	2023-01-09T00:00:00	2024-11-06T03:00:00	6	Velocidad del viento	6.4
46686	7	Sololá	701	Sololá	3	Barraneche	9	Septiembre	2023-01-09T00:00:00	2024-11-06T03:00:00	7	Dirección del viento	6.44
46687	7	Sololá	701	Sololá	3	Barraneche	9	Septiembre	2023-01-09T00:00:00	2024-11-06T03:00:00	1	Precipitación	0
46688	7	Sololá	701	Sololá	3	Barraneche	9	Septiembre	2023-01-09T00:00:00	2024-11-06T03:00:00	8	Radiación solar	0
46689	7	Sololá	701	Sololá	3	Barraneche	9	Septiembre	2023-01-09T00:00:00	2024-11-06T04:00:00	2	Temperatura media	13.3
46690	7	Sololá	701	Sololá	3	Barraneche	9	Septiembre	2023-01-09T00:00:00	2024-11-06T04:00:00	4	Temperatura máxima	13.3
46691	7	Sololá	701	Sololá	3	Barraneche	9	Septiembre	2023-01-09T00:00:00	2024-11-06T04:00:00	3	Temperatura mínima	12.5
46692	7	Sololá	701	Sololá	3	Barraneche	9	Septiembre	2023-01-09T00:00:00	2024-11-06T04:00:00	5	Humedad	65
46693	7	Sololá	701	Sololá	3	Barraneche	9	Septiembre	2023-01-09T00:00:00	2024-11-06T04:00:00	6	Velocidad del viento	6.4
46694	7	Sololá	701	Sololá	3	Barraneche	9	Septiembre	2023-01-09T00:00:00	2024-11-06T04:00:00	7	Dirección del viento	6.44
46695	7	Sololá	701	Sololá	3	Barraneche	9	Septiembre	2023-01-09T00:00:00	2024-11-06T04:00:00	1	Precipitación	0
46696	7	Sololá	701	Sololá	3	Barraneche	9	Septiembre	2023-01-09T00:00:00	2024-11-06T04:00:00	8	Radiación solar	0
46697	7	Sololá	701	Sololá	3	Barraneche	9	Septiembre	2023-01-09T00:00:00	2024-11-06T05:00:00	2	Temperatura media	12.3
46698	7	Sololá	701	Sololá	3	Barraneche	9	Septiembre	2023-01-09T00:00:00	2024-11-06T05:00:00	4	Temperatura máxima	13.7
46699	7	Sololá	701	Sololá	3	Barraneche	9	Septiembre	2023-01-09T00:00:00	2024-11-06T05:00:00	3	Temperatura mínima	12.2
46700	7	Sololá	701	Sololá	3	Barraneche	9	Septiembre	2023-01-09T00:00:00	2024-11-06T05:00:00	5	Humedad	68
46701	7	Sololá	701	Sololá	3	Barraneche	9	Septiembre	2023-01-09T00:00:00	2024-11-06T05:00:00	6	Velocidad del viento	4.8
46702	7	Sololá	701	Sololá	3	Barraneche	9	Septiembre	2023-01-09T00:00:00	2024-11-06T05:00:00	7	Dirección del viento	4.83
46703	7	Sololá	701	Sololá	3	Barraneche	9	Septiembre	2023-01-09T00:00:00	2024-11-06T05:00:00	1	Precipitación	0
46704	7	Sololá	701	Sololá	3	Barraneche	9	Septiembre	2023-01-09T00:00:00	2024-11-06T05:00:00	8	Radiación solar	0
46705	7	Sololá	701	Sololá	3	Barraneche	9	Septiembre	2023-01-09T00:00:00	2024-11-06T06:00:00	2	Temperatura media	13.8
46706	7	Sololá	701	Sololá	3	Barraneche	9	Septiembre	2023-01-09T00:00:00	2024-11-06T06:00:00	4	Temperatura máxima	13.8
46707	7	Sololá	701	Sololá	3	Barraneche	9	Septiembre	2023-01-09T00:00:00	2024-11-06T06:00:00	3	Temperatura mínima	12.3
46708	7	Sololá	701	Sololá	3	Barraneche	9	Septiembre	2023-01-09T00:00:00	2024-11-06T06:00:00	5	Humedad	63
46709	7	Sololá	701	Sololá	3	Barraneche	9	Septiembre	2023-01-09T00:00:00	2024-11-06T06:00:00	6	Velocidad del viento	8
46710	7	Sololá	701	Sololá	3	Barraneche	9	Septiembre	2023-01-09T00:00:00	2024-11-06T06:00:00	7	Dirección del viento	8.05
46711	7	Sololá	701	Sololá	3	Barraneche	9	Septiembre	2023-01-09T00:00:00	2024-11-06T06:00:00	1	Precipitación	0
46712	7	Sololá	701	Sololá	3	Barraneche	9	Septiembre	2023-01-09T00:00:00	2024-11-06T06:00:00	8	Radiación solar	1
46713	7	Sololá	701	Sololá	3	Barraneche	9	Septiembre	2023-01-09T00:00:00	2024-11-06T07:00:00	2	Temperatura media	15.6
46714	7	Sololá	701	Sololá	3	Barraneche	9	Septiembre	2023-01-09T00:00:00	2024-11-06T07:00:00	4	Temperatura máxima	15.6
46715	7	Sololá	701	Sololá	3	Barraneche	9	Septiembre	2023-01-09T00:00:00	2024-11-06T07:00:00	3	Temperatura mínima	13.8
46716	7	Sololá	701	Sololá	3	Barraneche	9	Septiembre	2023-01-09T00:00:00	2024-11-06T07:00:00	5	Humedad	60
46717	7	Sololá	701	Sololá	3	Barraneche	9	Septiembre	2023-01-09T00:00:00	2024-11-06T07:00:00	6	Velocidad del viento	6.4
46718	7	Sololá	701	Sololá	3	Barraneche	9	Septiembre	2023-01-09T00:00:00	2024-11-06T07:00:00	7	Dirección del viento	6.44
46719	7	Sololá	701	Sololá	3	Barraneche	9	Septiembre	2023-01-09T00:00:00	2024-11-06T07:00:00	1	Precipitación	0
46720	7	Sololá	701	Sololá	3	Barraneche	9	Septiembre	2023-01-09T00:00:00	2024-11-06T07:00:00	8	Radiación solar	53
46721	7	Sololá	701	Sololá	3	Barraneche	9	Septiembre	2023-01-09T00:00:00	2024-11-06T08:00:00	2	Temperatura media	18.1
46722	7	Sololá	701	Sololá	3	Barraneche	9	Septiembre	2023-01-09T00:00:00	2024-11-06T08:00:00	4	Temperatura máxima	18.1
46723	7	Sololá	701	Sololá	3	Barraneche	9	Septiembre	2023-01-09T00:00:00	2024-11-06T08:00:00	3	Temperatura mínima	15.5
46724	7	Sololá	701	Sololá	3	Barraneche	9	Septiembre	2023-01-09T00:00:00	2024-11-06T08:00:00	5	Humedad	52
46725	7	Sololá	701	Sololá	3	Barraneche	9	Septiembre	2023-01-09T00:00:00	2024-11-06T08:00:00	6	Velocidad del viento	6.4
46726	7	Sololá	701	Sololá	3	Barraneche	9	Septiembre	2023-01-09T00:00:00	2024-11-06T08:00:00	7	Dirección del viento	6.44
46727	7	Sololá	701	Sololá	3	Barraneche	9	Septiembre	2023-01-09T00:00:00	2024-11-06T08:00:00	1	Precipitación	0
46728	7	Sololá	701	Sololá	3	Barraneche	9	Septiembre	2023-01-09T00:00:00	2024-11-06T08:00:00	8	Radiación solar	299
46729	7	Sololá	701	Sololá	3	Barraneche	9	Septiembre	2023-01-09T00:00:00	2024-11-06T09:00:00	2	Temperatura media	19.1
46730	7	Sololá	701	Sololá	3	Barraneche	9	Septiembre	2023-01-09T00:00:00	2024-11-06T09:00:00	4	Temperatura máxima	19.1
46731	7	Sololá	701	Sololá	3	Barraneche	9	Septiembre	2023-01-09T00:00:00	2024-11-06T09:00:00	3	Temperatura mínima	18.1
46732	7	Sololá	701	Sololá	3	Barraneche	9	Septiembre	2023-01-09T00:00:00	2024-11-06T09:00:00	5	Humedad	51
46733	7	Sololá	701	Sololá	3	Barraneche	9	Septiembre	2023-01-09T00:00:00	2024-11-06T09:00:00	6	Velocidad del viento	11.3
46734	7	Sololá	701	Sololá	3	Barraneche	9	Septiembre	2023-01-09T00:00:00	2024-11-06T09:00:00	7	Dirección del viento	11.27
46735	7	Sololá	701	Sololá	3	Barraneche	9	Septiembre	2023-01-09T00:00:00	2024-11-06T09:00:00	1	Precipitación	0
46736	7	Sololá	701	Sololá	3	Barraneche	9	Septiembre	2023-01-09T00:00:00	2024-11-06T09:00:00	8	Radiación solar	601
46737	7	Sololá	701	Sololá	3	Barraneche	9	Septiembre	2023-01-09T00:00:00	2024-11-06T10:00:00	2	Temperatura media	19.9
46738	7	Sololá	701	Sololá	3	Barraneche	9	Septiembre	2023-01-09T00:00:00	2024-11-06T10:00:00	4	Temperatura máxima	20.1
46739	7	Sololá	701	Sololá	3	Barraneche	9	Septiembre	2023-01-09T00:00:00	2024-11-06T10:00:00	3	Temperatura mínima	18.9
46740	7	Sololá	701	Sololá	3	Barraneche	9	Septiembre	2023-01-09T00:00:00	2024-11-06T10:00:00	5	Humedad	48
46741	7	Sololá	701	Sololá	3	Barraneche	9	Septiembre	2023-01-09T00:00:00	2024-11-06T10:00:00	6	Velocidad del viento	14.5
46742	7	Sololá	701	Sololá	3	Barraneche	9	Septiembre	2023-01-09T00:00:00	2024-11-06T10:00:00	7	Dirección del viento	14.48
46743	7	Sololá	701	Sololá	3	Barraneche	9	Septiembre	2023-01-09T00:00:00	2024-11-06T10:00:00	1	Precipitación	0
46744	7	Sololá	701	Sololá	3	Barraneche	9	Septiembre	2023-01-09T00:00:00	2024-11-06T10:00:00	8	Radiación solar	787
46745	7	Sololá	701	Sololá	3	Barraneche	9	Septiembre	2023-01-09T00:00:00	2024-11-06T11:00:00	2	Temperatura media	20.6
46746	7	Sololá	701	Sololá	3	Barraneche	9	Septiembre	2023-01-09T00:00:00	2024-11-06T11:00:00	4	Temperatura máxima	20.6
46747	7	Sololá	701	Sololá	3	Barraneche	9	Septiembre	2023-01-09T00:00:00	2024-11-06T11:00:00	3	Temperatura mínima	19.9
46748	7	Sololá	701	Sololá	3	Barraneche	9	Septiembre	2023-01-09T00:00:00	2024-11-06T11:00:00	5	Humedad	50
46749	7	Sololá	701	Sololá	3	Barraneche	9	Septiembre	2023-01-09T00:00:00	2024-11-06T11:00:00	6	Velocidad del viento	14.5
46750	7	Sololá	701	Sololá	3	Barraneche	9	Septiembre	2023-01-09T00:00:00	2024-11-06T11:00:00	7	Dirección del viento	14.48
46751	7	Sololá	701	Sololá	3	Barraneche	9	Septiembre	2023-01-09T00:00:00	2024-11-06T11:00:00	1	Precipitación	0
46752	7	Sololá	701	Sololá	3	Barraneche	9	Septiembre	2023-01-09T00:00:00	2024-11-06T11:00:00	8	Radiación solar	943
46753	7	Sololá	701	Sololá	3	Barraneche	9	Septiembre	2023-01-09T00:00:00	2024-11-06T12:00:00	2	Temperatura media	20.9
46754	7	Sololá	701	Sololá	3	Barraneche	9	Septiembre	2023-01-09T00:00:00	2024-11-06T12:00:00	4	Temperatura máxima	21.1
46755	7	Sololá	701	Sololá	3	Barraneche	9	Septiembre	2023-01-09T00:00:00	2024-11-06T12:00:00	3	Temperatura mínima	20.4
46756	7	Sololá	701	Sololá	3	Barraneche	9	Septiembre	2023-01-09T00:00:00	2024-11-06T12:00:00	5	Humedad	47
46757	7	Sololá	701	Sololá	3	Barraneche	9	Septiembre	2023-01-09T00:00:00	2024-11-06T12:00:00	6	Velocidad del viento	14.5
46758	7	Sololá	701	Sololá	3	Barraneche	9	Septiembre	2023-01-09T00:00:00	2024-11-06T12:00:00	7	Dirección del viento	14.48
46759	7	Sololá	701	Sololá	3	Barraneche	9	Septiembre	2023-01-09T00:00:00	2024-11-06T12:00:00	1	Precipitación	0
46760	7	Sololá	701	Sololá	3	Barraneche	9	Septiembre	2023-01-09T00:00:00	2024-11-06T12:00:00	8	Radiación solar	1021
46761	7	Sololá	701	Sololá	3	Barraneche	9	Septiembre	2023-01-09T00:00:00	2024-11-06T13:00:00	2	Temperatura media	20.5
46762	7	Sololá	701	Sololá	3	Barraneche	9	Septiembre	2023-01-09T00:00:00	2024-11-06T13:00:00	4	Temperatura máxima	20.9
46763	7	Sololá	701	Sololá	3	Barraneche	9	Septiembre	2023-01-09T00:00:00	2024-11-06T13:00:00	3	Temperatura mínima	20.1
46764	7	Sololá	701	Sololá	3	Barraneche	9	Septiembre	2023-01-09T00:00:00	2024-11-06T13:00:00	5	Humedad	49
46765	7	Sololá	701	Sololá	3	Barraneche	9	Septiembre	2023-01-09T00:00:00	2024-11-06T13:00:00	6	Velocidad del viento	14.5
46766	7	Sololá	701	Sololá	3	Barraneche	9	Septiembre	2023-01-09T00:00:00	2024-11-06T13:00:00	7	Dirección del viento	14.48
46767	7	Sololá	701	Sololá	3	Barraneche	9	Septiembre	2023-01-09T00:00:00	2024-11-06T13:00:00	1	Precipitación	0
46768	7	Sololá	701	Sololá	3	Barraneche	9	Septiembre	2023-01-09T00:00:00	2024-11-06T13:00:00	8	Radiación solar	1002
46769	7	Sololá	701	Sololá	3	Barraneche	9	Septiembre	2023-01-09T00:00:00	2024-11-06T14:00:00	2	Temperatura media	21.2
46770	7	Sololá	701	Sololá	3	Barraneche	9	Septiembre	2023-01-09T00:00:00	2024-11-06T14:00:00	4	Temperatura máxima	21.4
46771	7	Sololá	701	Sololá	3	Barraneche	9	Septiembre	2023-01-09T00:00:00	2024-11-06T14:00:00	3	Temperatura mínima	20.4
46772	7	Sololá	701	Sololá	3	Barraneche	9	Septiembre	2023-01-09T00:00:00	2024-11-06T14:00:00	5	Humedad	50
46773	7	Sololá	701	Sololá	3	Barraneche	9	Septiembre	2023-01-09T00:00:00	2024-11-06T14:00:00	6	Velocidad del viento	12.9
46774	7	Sololá	701	Sololá	3	Barraneche	9	Septiembre	2023-01-09T00:00:00	2024-11-06T14:00:00	7	Dirección del viento	12.87
46775	7	Sololá	701	Sololá	3	Barraneche	9	Septiembre	2023-01-09T00:00:00	2024-11-06T14:00:00	1	Precipitación	0
46776	7	Sololá	701	Sololá	3	Barraneche	9	Septiembre	2023-01-09T00:00:00	2024-11-06T14:00:00	8	Radiación solar	810
46777	7	Sololá	701	Sololá	3	Barraneche	9	Septiembre	2023-01-09T00:00:00	2024-11-06T15:00:00	2	Temperatura media	20.7
46778	7	Sololá	701	Sololá	3	Barraneche	9	Septiembre	2023-01-09T00:00:00	2024-11-06T15:00:00	4	Temperatura máxima	21.5
46779	7	Sololá	701	Sololá	3	Barraneche	9	Septiembre	2023-01-09T00:00:00	2024-11-06T15:00:00	3	Temperatura mínima	20.7
46780	7	Sololá	701	Sololá	3	Barraneche	9	Septiembre	2023-01-09T00:00:00	2024-11-06T15:00:00	5	Humedad	46
46781	7	Sololá	701	Sololá	3	Barraneche	9	Septiembre	2023-01-09T00:00:00	2024-11-06T15:00:00	6	Velocidad del viento	12.9
46782	7	Sololá	701	Sololá	3	Barraneche	9	Septiembre	2023-01-09T00:00:00	2024-11-06T15:00:00	7	Dirección del viento	12.87
46783	7	Sololá	701	Sololá	3	Barraneche	9	Septiembre	2023-01-09T00:00:00	2024-11-06T15:00:00	1	Precipitación	0
46784	7	Sololá	701	Sololá	3	Barraneche	9	Septiembre	2023-01-09T00:00:00	2024-11-06T15:00:00	8	Radiación solar	860
46785	7	Sololá	701	Sololá	3	Barraneche	9	Septiembre	2023-01-09T00:00:00	2024-11-06T16:00:00	2	Temperatura media	19.9
46786	7	Sololá	701	Sololá	3	Barraneche	9	Septiembre	2023-01-09T00:00:00	2024-11-06T16:00:00	4	Temperatura máxima	21
46787	7	Sololá	701	Sololá	3	Barraneche	9	Septiembre	2023-01-09T00:00:00	2024-11-06T16:00:00	3	Temperatura mínima	19.8
46788	7	Sololá	701	Sololá	3	Barraneche	9	Septiembre	2023-01-09T00:00:00	2024-11-06T16:00:00	5	Humedad	52
46789	7	Sololá	701	Sololá	3	Barraneche	9	Septiembre	2023-01-09T00:00:00	2024-11-06T16:00:00	6	Velocidad del viento	11.3
46790	7	Sololá	701	Sololá	3	Barraneche	9	Septiembre	2023-01-09T00:00:00	2024-11-06T16:00:00	7	Dirección del viento	11.27
46791	7	Sololá	701	Sololá	3	Barraneche	9	Septiembre	2023-01-09T00:00:00	2024-11-06T16:00:00	1	Precipitación	0
46792	7	Sololá	701	Sololá	3	Barraneche	9	Septiembre	2023-01-09T00:00:00	2024-11-06T16:00:00	8	Radiación solar	481
46793	7	Sololá	701	Sololá	3	Barraneche	9	Septiembre	2023-01-09T00:00:00	2024-11-06T17:00:00	2	Temperatura media	19.7
46794	7	Sololá	701	Sololá	3	Barraneche	9	Septiembre	2023-01-09T00:00:00	2024-11-06T17:00:00	4	Temperatura máxima	20.3
46795	7	Sololá	701	Sololá	3	Barraneche	9	Septiembre	2023-01-09T00:00:00	2024-11-06T17:00:00	3	Temperatura mínima	19.7
46796	7	Sololá	701	Sololá	3	Barraneche	9	Septiembre	2023-01-09T00:00:00	2024-11-06T17:00:00	5	Humedad	52
46797	7	Sololá	701	Sololá	3	Barraneche	9	Septiembre	2023-01-09T00:00:00	2024-11-06T17:00:00	6	Velocidad del viento	11.3
46798	7	Sololá	701	Sololá	3	Barraneche	9	Septiembre	2023-01-09T00:00:00	2024-11-06T17:00:00	7	Dirección del viento	11.27
46799	7	Sololá	701	Sololá	3	Barraneche	9	Septiembre	2023-01-09T00:00:00	2024-11-06T17:00:00	1	Precipitación	0
46800	7	Sololá	701	Sololá	3	Barraneche	9	Septiembre	2023-01-09T00:00:00	2024-11-06T17:00:00	8	Radiación solar	277
46801	7	Sololá	701	Sololá	3	Barraneche	9	Septiembre	2023-01-09T00:00:00	2024-11-06T18:00:00	2	Temperatura media	18.1
46802	7	Sololá	701	Sololá	3	Barraneche	9	Septiembre	2023-01-09T00:00:00	2024-11-06T18:00:00	4	Temperatura máxima	19.8
46803	7	Sololá	701	Sololá	3	Barraneche	9	Septiembre	2023-01-09T00:00:00	2024-11-06T18:00:00	3	Temperatura mínima	18.1
46804	7	Sololá	701	Sololá	3	Barraneche	9	Septiembre	2023-01-09T00:00:00	2024-11-06T18:00:00	5	Humedad	61
46805	7	Sololá	701	Sololá	3	Barraneche	9	Septiembre	2023-01-09T00:00:00	2024-11-06T18:00:00	6	Velocidad del viento	6.4
46806	7	Sololá	701	Sololá	3	Barraneche	9	Septiembre	2023-01-09T00:00:00	2024-11-06T18:00:00	7	Dirección del viento	6.44
46807	7	Sololá	701	Sololá	3	Barraneche	9	Septiembre	2023-01-09T00:00:00	2024-11-06T18:00:00	1	Precipitación	0
46808	7	Sololá	701	Sololá	3	Barraneche	9	Septiembre	2023-01-09T00:00:00	2024-11-06T18:00:00	8	Radiación solar	59
46809	7	Sololá	701	Sololá	3	Barraneche	9	Septiembre	2023-01-09T00:00:00	2024-11-06T19:00:00	2	Temperatura media	14.9
46810	7	Sololá	701	Sololá	3	Barraneche	9	Septiembre	2023-01-09T00:00:00	2024-11-06T19:00:00	4	Temperatura máxima	18.1
46811	7	Sololá	701	Sololá	3	Barraneche	9	Septiembre	2023-01-09T00:00:00	2024-11-06T19:00:00	3	Temperatura mínima	14.9
46812	7	Sololá	701	Sololá	3	Barraneche	9	Septiembre	2023-01-09T00:00:00	2024-11-06T19:00:00	5	Humedad	67
46813	7	Sololá	701	Sololá	3	Barraneche	9	Septiembre	2023-01-09T00:00:00	2024-11-06T19:00:00	6	Velocidad del viento	9.7
46814	7	Sololá	701	Sololá	3	Barraneche	9	Septiembre	2023-01-09T00:00:00	2024-11-06T19:00:00	7	Dirección del viento	9.66
46815	7	Sololá	701	Sololá	3	Barraneche	9	Septiembre	2023-01-09T00:00:00	2024-11-06T19:00:00	1	Precipitación	3
46816	7	Sololá	701	Sololá	3	Barraneche	9	Septiembre	2023-01-09T00:00:00	2024-11-06T19:00:00	8	Radiación solar	0
46817	7	Sololá	701	Sololá	3	Barraneche	9	Septiembre	2023-01-09T00:00:00	2024-11-06T20:00:00	2	Temperatura media	14.6
46818	7	Sololá	701	Sololá	3	Barraneche	9	Septiembre	2023-01-09T00:00:00	2024-11-06T20:00:00	4	Temperatura máxima	14.9
46819	7	Sololá	701	Sololá	3	Barraneche	9	Septiembre	2023-01-09T00:00:00	2024-11-06T20:00:00	3	Temperatura mínima	12.9
46820	7	Sololá	701	Sololá	3	Barraneche	9	Septiembre	2023-01-09T00:00:00	2024-11-06T20:00:00	5	Humedad	69
46821	7	Sololá	701	Sololá	3	Barraneche	9	Septiembre	2023-01-09T00:00:00	2024-11-06T20:00:00	6	Velocidad del viento	9.7
46822	7	Sololá	701	Sololá	3	Barraneche	9	Septiembre	2023-01-09T00:00:00	2024-11-06T20:00:00	7	Dirección del viento	9.66
46823	7	Sololá	701	Sololá	3	Barraneche	9	Septiembre	2023-01-09T00:00:00	2024-11-06T20:00:00	1	Precipitación	13.2
46824	7	Sololá	701	Sololá	3	Barraneche	9	Septiembre	2023-01-09T00:00:00	2024-11-06T20:00:00	8	Radiación solar	0
46825	7	Sololá	701	Sololá	3	Barraneche	9	Septiembre	2023-01-09T00:00:00	2024-11-06T21:00:00	2	Temperatura media	14.4
46826	7	Sololá	701	Sololá	3	Barraneche	9	Septiembre	2023-01-09T00:00:00	2024-11-06T21:00:00	4	Temperatura máxima	14.9
46827	7	Sololá	701	Sololá	3	Barraneche	9	Septiembre	2023-01-09T00:00:00	2024-11-06T21:00:00	3	Temperatura mínima	14.3
46828	7	Sololá	701	Sololá	3	Barraneche	9	Septiembre	2023-01-09T00:00:00	2024-11-06T21:00:00	5	Humedad	68
46829	7	Sololá	701	Sololá	3	Barraneche	9	Septiembre	2023-01-09T00:00:00	2024-11-06T21:00:00	6	Velocidad del viento	8
46830	7	Sololá	701	Sololá	3	Barraneche	9	Septiembre	2023-01-09T00:00:00	2024-11-06T21:00:00	7	Dirección del viento	8.05
46831	7	Sololá	701	Sololá	3	Barraneche	9	Septiembre	2023-01-09T00:00:00	2024-11-06T21:00:00	1	Precipitación	2
46832	7	Sololá	701	Sololá	3	Barraneche	9	Septiembre	2023-01-09T00:00:00	2024-11-06T21:00:00	8	Radiación solar	0
46833	7	Sololá	701	Sololá	3	Barraneche	9	Septiembre	2023-01-09T00:00:00	2024-11-06T22:00:00	2	Temperatura media	14.1
46834	7	Sololá	701	Sololá	3	Barraneche	9	Septiembre	2023-01-09T00:00:00	2024-11-06T22:00:00	4	Temperatura máxima	14.6
46835	7	Sololá	701	Sololá	3	Barraneche	9	Septiembre	2023-01-09T00:00:00	2024-11-06T22:00:00	3	Temperatura mínima	13.8
46836	7	Sololá	701	Sololá	3	Barraneche	9	Septiembre	2023-01-09T00:00:00	2024-11-06T22:00:00	5	Humedad	64
46837	7	Sololá	701	Sololá	3	Barraneche	9	Septiembre	2023-01-09T00:00:00	2024-11-06T22:00:00	6	Velocidad del viento	14.5
46838	7	Sololá	701	Sololá	3	Barraneche	9	Septiembre	2023-01-09T00:00:00	2024-11-06T22:00:00	7	Dirección del viento	14.48
46839	7	Sololá	701	Sololá	3	Barraneche	9	Septiembre	2023-01-09T00:00:00	2024-11-06T22:00:00	1	Precipitación	0.2
46840	7	Sololá	701	Sololá	3	Barraneche	9	Septiembre	2023-01-09T00:00:00	2024-11-06T22:00:00	8	Radiación solar	0
46841	7	Sololá	701	Sololá	3	Barraneche	9	Septiembre	2023-01-09T00:00:00	2024-11-06T23:00:00	2	Temperatura media	14.6
46842	7	Sololá	701	Sololá	3	Barraneche	9	Septiembre	2023-01-09T00:00:00	2024-11-06T23:00:00	4	Temperatura máxima	14.6
46843	7	Sololá	701	Sololá	3	Barraneche	9	Septiembre	2023-01-09T00:00:00	2024-11-06T23:00:00	3	Temperatura mínima	14
46844	7	Sololá	701	Sololá	3	Barraneche	9	Septiembre	2023-01-09T00:00:00	2024-11-06T23:00:00	5	Humedad	65
46845	7	Sololá	701	Sololá	3	Barraneche	9	Septiembre	2023-01-09T00:00:00	2024-11-06T23:00:00	6	Velocidad del viento	12.9
46846	7	Sololá	701	Sololá	3	Barraneche	9	Septiembre	2023-01-09T00:00:00	2024-11-06T23:00:00	7	Dirección del viento	12.87
46847	7	Sololá	701	Sololá	3	Barraneche	9	Septiembre	2023-01-09T00:00:00	2024-11-06T23:00:00	1	Precipitación	0
46848	7	Sololá	701	Sololá	3	Barraneche	9	Septiembre	2023-01-09T00:00:00	2024-11-06T23:00:00	8	Radiación solar	0
46849	7	Sololá	701	Sololá	3	Barraneche	9	Septiembre	2023-02-09T00:00:00	2024-11-06T00:00:00	2	Temperatura media	14.9
46850	7	Sololá	701	Sololá	3	Barraneche	9	Septiembre	2023-02-09T00:00:00	2024-11-06T00:00:00	4	Temperatura máxima	14.9
46851	7	Sololá	701	Sololá	3	Barraneche	9	Septiembre	2023-02-09T00:00:00	2024-11-06T00:00:00	3	Temperatura mínima	14.4
46852	7	Sololá	701	Sololá	3	Barraneche	9	Septiembre	2023-02-09T00:00:00	2024-11-06T00:00:00	5	Humedad	64
46853	7	Sololá	701	Sololá	3	Barraneche	9	Septiembre	2023-02-09T00:00:00	2024-11-06T00:00:00	6	Velocidad del viento	11.3
46854	7	Sololá	701	Sololá	3	Barraneche	9	Septiembre	2023-02-09T00:00:00	2024-11-06T00:00:00	7	Dirección del viento	11.27
46855	7	Sololá	701	Sololá	3	Barraneche	9	Septiembre	2023-02-09T00:00:00	2024-11-06T00:00:00	1	Precipitación	0
46856	7	Sololá	701	Sololá	3	Barraneche	9	Septiembre	2023-02-09T00:00:00	2024-11-06T00:00:00	8	Radiación solar	0
46857	7	Sololá	701	Sololá	3	Barraneche	9	Septiembre	2023-02-09T00:00:00	2024-11-06T01:00:00	2	Temperatura media	14.8
46858	7	Sololá	701	Sololá	3	Barraneche	9	Septiembre	2023-02-09T00:00:00	2024-11-06T01:00:00	4	Temperatura máxima	15.7
46859	7	Sololá	701	Sololá	3	Barraneche	9	Septiembre	2023-02-09T00:00:00	2024-11-06T01:00:00	3	Temperatura mínima	14.8
46860	7	Sololá	701	Sololá	3	Barraneche	9	Septiembre	2023-02-09T00:00:00	2024-11-06T01:00:00	5	Humedad	64
46861	7	Sololá	701	Sololá	3	Barraneche	9	Septiembre	2023-02-09T00:00:00	2024-11-06T01:00:00	6	Velocidad del viento	14.5
46862	7	Sololá	701	Sololá	3	Barraneche	9	Septiembre	2023-02-09T00:00:00	2024-11-06T01:00:00	7	Dirección del viento	14.48
46863	7	Sololá	701	Sololá	3	Barraneche	9	Septiembre	2023-02-09T00:00:00	2024-11-06T01:00:00	1	Precipitación	0
46864	7	Sololá	701	Sololá	3	Barraneche	9	Septiembre	2023-02-09T00:00:00	2024-11-06T01:00:00	8	Radiación solar	0
46865	7	Sololá	701	Sololá	3	Barraneche	9	Septiembre	2023-02-09T00:00:00	2024-11-06T02:00:00	2	Temperatura media	14.8
46866	7	Sololá	701	Sololá	3	Barraneche	9	Septiembre	2023-02-09T00:00:00	2024-11-06T02:00:00	4	Temperatura máxima	14.9
46867	7	Sololá	701	Sololá	3	Barraneche	9	Septiembre	2023-02-09T00:00:00	2024-11-06T02:00:00	3	Temperatura mínima	14.6
46868	7	Sololá	701	Sololá	3	Barraneche	9	Septiembre	2023-02-09T00:00:00	2024-11-06T02:00:00	5	Humedad	65
46869	7	Sololá	701	Sololá	3	Barraneche	9	Septiembre	2023-02-09T00:00:00	2024-11-06T02:00:00	6	Velocidad del viento	11.3
46870	7	Sololá	701	Sololá	3	Barraneche	9	Septiembre	2023-02-09T00:00:00	2024-11-06T02:00:00	7	Dirección del viento	11.27
46871	7	Sololá	701	Sololá	3	Barraneche	9	Septiembre	2023-02-09T00:00:00	2024-11-06T02:00:00	1	Precipitación	0
46872	7	Sololá	701	Sololá	3	Barraneche	9	Septiembre	2023-02-09T00:00:00	2024-11-06T02:00:00	8	Radiación solar	0
46873	7	Sololá	701	Sololá	3	Barraneche	9	Septiembre	2023-02-09T00:00:00	2024-11-06T03:00:00	2	Temperatura media	14.4
46874	7	Sololá	701	Sololá	3	Barraneche	9	Septiembre	2023-02-09T00:00:00	2024-11-06T03:00:00	4	Temperatura máxima	14.8
46875	7	Sololá	701	Sololá	3	Barraneche	9	Septiembre	2023-02-09T00:00:00	2024-11-06T03:00:00	3	Temperatura mínima	14.3
46876	7	Sololá	701	Sololá	3	Barraneche	9	Septiembre	2023-02-09T00:00:00	2024-11-06T03:00:00	5	Humedad	64
46877	7	Sololá	701	Sololá	3	Barraneche	9	Septiembre	2023-02-09T00:00:00	2024-11-06T03:00:00	6	Velocidad del viento	14.5
46878	7	Sololá	701	Sololá	3	Barraneche	9	Septiembre	2023-02-09T00:00:00	2024-11-06T03:00:00	7	Dirección del viento	14.48
46879	7	Sololá	701	Sololá	3	Barraneche	9	Septiembre	2023-02-09T00:00:00	2024-11-06T03:00:00	1	Precipitación	0
46880	7	Sololá	701	Sololá	3	Barraneche	9	Septiembre	2023-02-09T00:00:00	2024-11-06T03:00:00	8	Radiación solar	0
46881	7	Sololá	701	Sololá	3	Barraneche	9	Septiembre	2023-02-09T00:00:00	2024-11-06T04:00:00	2	Temperatura media	14.2
46882	7	Sololá	701	Sololá	3	Barraneche	9	Septiembre	2023-02-09T00:00:00	2024-11-06T04:00:00	4	Temperatura máxima	14.4
46883	7	Sololá	701	Sololá	3	Barraneche	9	Septiembre	2023-02-09T00:00:00	2024-11-06T04:00:00	3	Temperatura mínima	14.2
46884	7	Sololá	701	Sololá	3	Barraneche	9	Septiembre	2023-02-09T00:00:00	2024-11-06T04:00:00	5	Humedad	64
46885	7	Sololá	701	Sololá	3	Barraneche	9	Septiembre	2023-02-09T00:00:00	2024-11-06T04:00:00	6	Velocidad del viento	12.9
46886	7	Sololá	701	Sololá	3	Barraneche	9	Septiembre	2023-02-09T00:00:00	2024-11-06T04:00:00	7	Dirección del viento	12.87
46887	7	Sololá	701	Sololá	3	Barraneche	9	Septiembre	2023-02-09T00:00:00	2024-11-06T04:00:00	1	Precipitación	0
46888	7	Sololá	701	Sololá	3	Barraneche	9	Septiembre	2023-02-09T00:00:00	2024-11-06T04:00:00	8	Radiación solar	0
46889	7	Sololá	701	Sololá	3	Barraneche	9	Septiembre	2023-02-09T00:00:00	2024-11-06T05:00:00	2	Temperatura media	15.7
46890	7	Sololá	701	Sololá	3	Barraneche	9	Septiembre	2023-02-09T00:00:00	2024-11-06T05:00:00	4	Temperatura máxima	15.7
46891	7	Sololá	701	Sololá	3	Barraneche	9	Septiembre	2023-02-09T00:00:00	2024-11-06T05:00:00	3	Temperatura mínima	14.2
46892	7	Sololá	701	Sololá	3	Barraneche	9	Septiembre	2023-02-09T00:00:00	2024-11-06T05:00:00	5	Humedad	56
46893	7	Sololá	701	Sololá	3	Barraneche	9	Septiembre	2023-02-09T00:00:00	2024-11-06T05:00:00	6	Velocidad del viento	11.3
46894	7	Sololá	701	Sololá	3	Barraneche	9	Septiembre	2023-02-09T00:00:00	2024-11-06T05:00:00	7	Dirección del viento	11.27
46895	7	Sololá	701	Sololá	3	Barraneche	9	Septiembre	2023-02-09T00:00:00	2024-11-06T05:00:00	1	Precipitación	0
46896	7	Sololá	701	Sololá	3	Barraneche	9	Septiembre	2023-02-09T00:00:00	2024-11-06T05:00:00	8	Radiación solar	0
46897	7	Sololá	701	Sololá	3	Barraneche	9	Septiembre	2023-02-09T00:00:00	2024-11-06T06:00:00	2	Temperatura media	14.3
46898	7	Sololá	701	Sololá	3	Barraneche	9	Septiembre	2023-02-09T00:00:00	2024-11-06T06:00:00	4	Temperatura máxima	15.8
46899	7	Sololá	701	Sololá	3	Barraneche	9	Septiembre	2023-02-09T00:00:00	2024-11-06T06:00:00	3	Temperatura mínima	13.7
46900	7	Sololá	701	Sololá	3	Barraneche	9	Septiembre	2023-02-09T00:00:00	2024-11-06T06:00:00	5	Humedad	60
46901	7	Sololá	701	Sololá	3	Barraneche	9	Septiembre	2023-02-09T00:00:00	2024-11-06T06:00:00	6	Velocidad del viento	6.4
46902	7	Sololá	701	Sololá	3	Barraneche	9	Septiembre	2023-02-09T00:00:00	2024-11-06T06:00:00	7	Dirección del viento	6.44
46903	7	Sololá	701	Sololá	3	Barraneche	9	Septiembre	2023-02-09T00:00:00	2024-11-06T06:00:00	1	Precipitación	0
46904	7	Sololá	701	Sololá	3	Barraneche	9	Septiembre	2023-02-09T00:00:00	2024-11-06T06:00:00	8	Radiación solar	1
46905	7	Sololá	701	Sololá	3	Barraneche	9	Septiembre	2023-02-09T00:00:00	2024-11-06T07:00:00	2	Temperatura media	14.2
46906	7	Sololá	701	Sololá	3	Barraneche	9	Septiembre	2023-02-09T00:00:00	2024-11-06T07:00:00	4	Temperatura máxima	15.1
46907	7	Sololá	701	Sololá	3	Barraneche	9	Septiembre	2023-02-09T00:00:00	2024-11-06T07:00:00	3	Temperatura mínima	13.7
46908	7	Sololá	701	Sololá	3	Barraneche	9	Septiembre	2023-02-09T00:00:00	2024-11-06T07:00:00	5	Humedad	65
46909	7	Sololá	701	Sololá	3	Barraneche	9	Septiembre	2023-02-09T00:00:00	2024-11-06T07:00:00	6	Velocidad del viento	8
46910	7	Sololá	701	Sololá	3	Barraneche	9	Septiembre	2023-02-09T00:00:00	2024-11-06T07:00:00	7	Dirección del viento	8.05
46911	7	Sololá	701	Sololá	3	Barraneche	9	Septiembre	2023-02-09T00:00:00	2024-11-06T07:00:00	1	Precipitación	0
46912	7	Sololá	701	Sololá	3	Barraneche	9	Septiembre	2023-02-09T00:00:00	2024-11-06T07:00:00	8	Radiación solar	61
46913	7	Sololá	701	Sololá	3	Barraneche	9	Septiembre	2023-02-09T00:00:00	2024-11-06T08:00:00	2	Temperatura media	17
46914	7	Sololá	701	Sololá	3	Barraneche	9	Septiembre	2023-02-09T00:00:00	2024-11-06T08:00:00	4	Temperatura máxima	17.1
46915	7	Sololá	701	Sololá	3	Barraneche	9	Septiembre	2023-02-09T00:00:00	2024-11-06T08:00:00	3	Temperatura mínima	14.1
46916	7	Sololá	701	Sololá	3	Barraneche	9	Septiembre	2023-02-09T00:00:00	2024-11-06T08:00:00	5	Humedad	57
46917	7	Sololá	701	Sololá	3	Barraneche	9	Septiembre	2023-02-09T00:00:00	2024-11-06T08:00:00	6	Velocidad del viento	6.4
46918	7	Sololá	701	Sololá	3	Barraneche	9	Septiembre	2023-02-09T00:00:00	2024-11-06T08:00:00	7	Dirección del viento	6.44
46919	7	Sololá	701	Sololá	3	Barraneche	9	Septiembre	2023-02-09T00:00:00	2024-11-06T08:00:00	1	Precipitación	0
46920	7	Sololá	701	Sololá	3	Barraneche	9	Septiembre	2023-02-09T00:00:00	2024-11-06T08:00:00	8	Radiación solar	329
46921	7	Sololá	701	Sololá	3	Barraneche	9	Septiembre	2023-02-09T00:00:00	2024-11-06T09:00:00	2	Temperatura media	17.9
46922	7	Sololá	701	Sololá	3	Barraneche	9	Septiembre	2023-02-09T00:00:00	2024-11-06T09:00:00	4	Temperatura máxima	17.9
46923	7	Sololá	701	Sololá	3	Barraneche	9	Septiembre	2023-02-09T00:00:00	2024-11-06T09:00:00	3	Temperatura mínima	17
46924	7	Sololá	701	Sololá	3	Barraneche	9	Septiembre	2023-02-09T00:00:00	2024-11-06T09:00:00	5	Humedad	55
46925	7	Sololá	701	Sololá	3	Barraneche	9	Septiembre	2023-02-09T00:00:00	2024-11-06T09:00:00	6	Velocidad del viento	6.4
46926	7	Sololá	701	Sololá	3	Barraneche	9	Septiembre	2023-02-09T00:00:00	2024-11-06T09:00:00	7	Dirección del viento	6.44
46927	7	Sololá	701	Sololá	3	Barraneche	9	Septiembre	2023-02-09T00:00:00	2024-11-06T09:00:00	1	Precipitación	0
46928	7	Sololá	701	Sololá	3	Barraneche	9	Septiembre	2023-02-09T00:00:00	2024-11-06T09:00:00	8	Radiación solar	583
46929	7	Sololá	701	Sololá	3	Barraneche	9	Septiembre	2023-02-09T00:00:00	2024-11-06T10:00:00	2	Temperatura media	18.3
46930	7	Sololá	701	Sololá	3	Barraneche	9	Septiembre	2023-02-09T00:00:00	2024-11-06T10:00:00	4	Temperatura máxima	18.5
46931	7	Sololá	701	Sololá	3	Barraneche	9	Septiembre	2023-02-09T00:00:00	2024-11-06T10:00:00	3	Temperatura mínima	17.9
46932	7	Sololá	701	Sololá	3	Barraneche	9	Septiembre	2023-02-09T00:00:00	2024-11-06T10:00:00	5	Humedad	55
46933	7	Sololá	701	Sololá	3	Barraneche	9	Septiembre	2023-02-09T00:00:00	2024-11-06T10:00:00	6	Velocidad del viento	8
46934	7	Sololá	701	Sololá	3	Barraneche	9	Septiembre	2023-02-09T00:00:00	2024-11-06T10:00:00	7	Dirección del viento	8.05
46935	7	Sololá	701	Sololá	3	Barraneche	9	Septiembre	2023-02-09T00:00:00	2024-11-06T10:00:00	1	Precipitación	0
46936	7	Sololá	701	Sololá	3	Barraneche	9	Septiembre	2023-02-09T00:00:00	2024-11-06T10:00:00	8	Radiación solar	585
46937	7	Sololá	701	Sololá	3	Barraneche	9	Septiembre	2023-02-09T00:00:00	2024-11-06T11:00:00	2	Temperatura media	18.9
46938	7	Sololá	701	Sololá	3	Barraneche	9	Septiembre	2023-02-09T00:00:00	2024-11-06T11:00:00	4	Temperatura máxima	19.2
46939	7	Sololá	701	Sololá	3	Barraneche	9	Septiembre	2023-02-09T00:00:00	2024-11-06T11:00:00	3	Temperatura mínima	18.2
46940	7	Sololá	701	Sololá	3	Barraneche	9	Septiembre	2023-02-09T00:00:00	2024-11-06T11:00:00	5	Humedad	52
46941	7	Sololá	701	Sololá	3	Barraneche	9	Septiembre	2023-02-09T00:00:00	2024-11-06T11:00:00	6	Velocidad del viento	11.3
46942	7	Sololá	701	Sololá	3	Barraneche	9	Septiembre	2023-02-09T00:00:00	2024-11-06T11:00:00	7	Dirección del viento	11.27
46943	7	Sololá	701	Sololá	3	Barraneche	9	Septiembre	2023-02-09T00:00:00	2024-11-06T11:00:00	1	Precipitación	0
46944	7	Sololá	701	Sololá	3	Barraneche	9	Septiembre	2023-02-09T00:00:00	2024-11-06T11:00:00	8	Radiación solar	778
46945	7	Sololá	701	Sololá	3	Barraneche	9	Septiembre	2023-02-09T00:00:00	2024-11-06T12:00:00	2	Temperatura media	19.1
46946	7	Sololá	701	Sololá	3	Barraneche	9	Septiembre	2023-02-09T00:00:00	2024-11-06T12:00:00	4	Temperatura máxima	19.8
46947	7	Sololá	701	Sololá	3	Barraneche	9	Septiembre	2023-02-09T00:00:00	2024-11-06T12:00:00	3	Temperatura mínima	18.8
46948	7	Sololá	701	Sololá	3	Barraneche	9	Septiembre	2023-02-09T00:00:00	2024-11-06T12:00:00	5	Humedad	53
46949	7	Sololá	701	Sololá	3	Barraneche	9	Septiembre	2023-02-09T00:00:00	2024-11-06T12:00:00	6	Velocidad del viento	12.9
46950	7	Sololá	701	Sololá	3	Barraneche	9	Septiembre	2023-02-09T00:00:00	2024-11-06T12:00:00	7	Dirección del viento	12.87
46951	7	Sololá	701	Sololá	3	Barraneche	9	Septiembre	2023-02-09T00:00:00	2024-11-06T12:00:00	1	Precipitación	0
46952	7	Sololá	701	Sololá	3	Barraneche	9	Septiembre	2023-02-09T00:00:00	2024-11-06T12:00:00	8	Radiación solar	935
46953	7	Sololá	701	Sololá	3	Barraneche	9	Septiembre	2023-02-09T00:00:00	2024-11-06T13:00:00	2	Temperatura media	19.8
46954	7	Sololá	701	Sololá	3	Barraneche	9	Septiembre	2023-02-09T00:00:00	2024-11-06T13:00:00	4	Temperatura máxima	19.9
46955	7	Sololá	701	Sololá	3	Barraneche	9	Septiembre	2023-02-09T00:00:00	2024-11-06T13:00:00	3	Temperatura mínima	19
46956	7	Sololá	701	Sololá	3	Barraneche	9	Septiembre	2023-02-09T00:00:00	2024-11-06T13:00:00	5	Humedad	49
46957	7	Sololá	701	Sololá	3	Barraneche	9	Septiembre	2023-02-09T00:00:00	2024-11-06T13:00:00	6	Velocidad del viento	11.3
46958	7	Sololá	701	Sololá	3	Barraneche	9	Septiembre	2023-02-09T00:00:00	2024-11-06T13:00:00	7	Dirección del viento	11.27
46959	7	Sololá	701	Sololá	3	Barraneche	9	Septiembre	2023-02-09T00:00:00	2024-11-06T13:00:00	1	Precipitación	0
46960	7	Sololá	701	Sololá	3	Barraneche	9	Septiembre	2023-02-09T00:00:00	2024-11-06T13:00:00	8	Radiación solar	863
46961	7	Sololá	701	Sololá	3	Barraneche	9	Septiembre	2023-02-09T00:00:00	2024-11-06T14:00:00	2	Temperatura media	19.5
46962	7	Sololá	701	Sololá	3	Barraneche	9	Septiembre	2023-02-09T00:00:00	2024-11-06T14:00:00	4	Temperatura máxima	20.2
46963	7	Sololá	701	Sololá	3	Barraneche	9	Septiembre	2023-02-09T00:00:00	2024-11-06T14:00:00	3	Temperatura mínima	19.3
46964	7	Sololá	701	Sololá	3	Barraneche	9	Septiembre	2023-02-09T00:00:00	2024-11-06T14:00:00	5	Humedad	49
46965	7	Sololá	701	Sololá	3	Barraneche	9	Septiembre	2023-02-09T00:00:00	2024-11-06T14:00:00	6	Velocidad del viento	14.5
46966	7	Sololá	701	Sololá	3	Barraneche	9	Septiembre	2023-02-09T00:00:00	2024-11-06T14:00:00	7	Dirección del viento	14.48
46967	7	Sololá	701	Sololá	3	Barraneche	9	Septiembre	2023-02-09T00:00:00	2024-11-06T14:00:00	1	Precipitación	0
46968	7	Sololá	701	Sololá	3	Barraneche	9	Septiembre	2023-02-09T00:00:00	2024-11-06T14:00:00	8	Radiación solar	901
46969	7	Sololá	701	Sololá	3	Barraneche	9	Septiembre	2023-02-09T00:00:00	2024-11-06T15:00:00	2	Temperatura media	17.1
46970	7	Sololá	701	Sololá	3	Barraneche	9	Septiembre	2023-02-09T00:00:00	2024-11-06T15:00:00	4	Temperatura máxima	19.8
46971	7	Sololá	701	Sololá	3	Barraneche	9	Septiembre	2023-02-09T00:00:00	2024-11-06T15:00:00	3	Temperatura mínima	16.8
46972	7	Sololá	701	Sololá	3	Barraneche	9	Septiembre	2023-02-09T00:00:00	2024-11-06T15:00:00	5	Humedad	67
46973	7	Sololá	701	Sololá	3	Barraneche	9	Septiembre	2023-02-09T00:00:00	2024-11-06T15:00:00	6	Velocidad del viento	14.5
46974	7	Sololá	701	Sololá	3	Barraneche	9	Septiembre	2023-02-09T00:00:00	2024-11-06T15:00:00	7	Dirección del viento	14.48
46975	7	Sololá	701	Sololá	3	Barraneche	9	Septiembre	2023-02-09T00:00:00	2024-11-06T15:00:00	1	Precipitación	0
46976	7	Sololá	701	Sololá	3	Barraneche	9	Septiembre	2023-02-09T00:00:00	2024-11-06T15:00:00	8	Radiación solar	461
46977	7	Sololá	701	Sololá	3	Barraneche	9	Septiembre	2023-02-09T00:00:00	2024-11-06T16:00:00	2	Temperatura media	17.6
46978	7	Sololá	701	Sololá	3	Barraneche	9	Septiembre	2023-02-09T00:00:00	2024-11-06T16:00:00	4	Temperatura máxima	18.3
46979	7	Sololá	701	Sololá	3	Barraneche	9	Septiembre	2023-02-09T00:00:00	2024-11-06T16:00:00	3	Temperatura mínima	17.1
46980	7	Sololá	701	Sololá	3	Barraneche	9	Septiembre	2023-02-09T00:00:00	2024-11-06T16:00:00	5	Humedad	55
46981	7	Sololá	701	Sololá	3	Barraneche	9	Septiembre	2023-02-09T00:00:00	2024-11-06T16:00:00	6	Velocidad del viento	9.7
46982	7	Sololá	701	Sololá	3	Barraneche	9	Septiembre	2023-02-09T00:00:00	2024-11-06T16:00:00	7	Dirección del viento	9.66
46983	7	Sololá	701	Sololá	3	Barraneche	9	Septiembre	2023-02-09T00:00:00	2024-11-06T16:00:00	1	Precipitación	0
46984	7	Sololá	701	Sololá	3	Barraneche	9	Septiembre	2023-02-09T00:00:00	2024-11-06T16:00:00	8	Radiación solar	201
46985	7	Sololá	701	Sololá	3	Barraneche	9	Septiembre	2023-02-09T00:00:00	2024-11-06T17:00:00	2	Temperatura media	16.8
46986	7	Sololá	701	Sololá	3	Barraneche	9	Septiembre	2023-02-09T00:00:00	2024-11-06T17:00:00	4	Temperatura máxima	17.7
46987	7	Sololá	701	Sololá	3	Barraneche	9	Septiembre	2023-02-09T00:00:00	2024-11-06T17:00:00	3	Temperatura mínima	16.8
46988	7	Sololá	701	Sololá	3	Barraneche	9	Septiembre	2023-02-09T00:00:00	2024-11-06T17:00:00	5	Humedad	60
46989	7	Sololá	701	Sololá	3	Barraneche	9	Septiembre	2023-02-09T00:00:00	2024-11-06T17:00:00	6	Velocidad del viento	6.4
46990	7	Sololá	701	Sololá	3	Barraneche	9	Septiembre	2023-02-09T00:00:00	2024-11-06T17:00:00	7	Dirección del viento	6.44
46991	7	Sololá	701	Sololá	3	Barraneche	9	Septiembre	2023-02-09T00:00:00	2024-11-06T17:00:00	1	Precipitación	0
46992	7	Sololá	701	Sololá	3	Barraneche	9	Septiembre	2023-02-09T00:00:00	2024-11-06T17:00:00	8	Radiación solar	93
46993	7	Sololá	701	Sololá	3	Barraneche	9	Septiembre	2023-02-09T00:00:00	2024-11-06T18:00:00	2	Temperatura media	16.3
46994	7	Sololá	701	Sololá	3	Barraneche	9	Septiembre	2023-02-09T00:00:00	2024-11-06T18:00:00	4	Temperatura máxima	16.8
46995	7	Sololá	701	Sololá	3	Barraneche	9	Septiembre	2023-02-09T00:00:00	2024-11-06T18:00:00	3	Temperatura mínima	16.2
46996	7	Sololá	701	Sololá	3	Barraneche	9	Septiembre	2023-02-09T00:00:00	2024-11-06T18:00:00	5	Humedad	61
46997	7	Sololá	701	Sololá	3	Barraneche	9	Septiembre	2023-02-09T00:00:00	2024-11-06T18:00:00	6	Velocidad del viento	8
46998	7	Sololá	701	Sololá	3	Barraneche	9	Septiembre	2023-02-09T00:00:00	2024-11-06T18:00:00	7	Dirección del viento	8.05
46999	7	Sololá	701	Sololá	3	Barraneche	9	Septiembre	2023-02-09T00:00:00	2024-11-06T18:00:00	1	Precipitación	0
47000	7	Sololá	701	Sololá	3	Barraneche	9	Septiembre	2023-02-09T00:00:00	2024-11-06T18:00:00	8	Radiación solar	69
47001	7	Sololá	701	Sololá	3	Barraneche	9	Septiembre	2023-02-09T00:00:00	2024-11-06T19:00:00	2	Temperatura media	15.7
47002	7	Sololá	701	Sololá	3	Barraneche	9	Septiembre	2023-02-09T00:00:00	2024-11-06T19:00:00	4	Temperatura máxima	16.3
47003	7	Sololá	701	Sololá	3	Barraneche	9	Septiembre	2023-02-09T00:00:00	2024-11-06T19:00:00	3	Temperatura mínima	15.7
47004	7	Sololá	701	Sololá	3	Barraneche	9	Septiembre	2023-02-09T00:00:00	2024-11-06T19:00:00	5	Humedad	64
47005	7	Sololá	701	Sololá	3	Barraneche	9	Septiembre	2023-02-09T00:00:00	2024-11-06T19:00:00	6	Velocidad del viento	8
47006	7	Sololá	701	Sololá	3	Barraneche	9	Septiembre	2023-02-09T00:00:00	2024-11-06T19:00:00	7	Dirección del viento	8.05
47007	7	Sololá	701	Sololá	3	Barraneche	9	Septiembre	2023-02-09T00:00:00	2024-11-06T19:00:00	1	Precipitación	0
47008	7	Sololá	701	Sololá	3	Barraneche	9	Septiembre	2023-02-09T00:00:00	2024-11-06T19:00:00	8	Radiación solar	0
47009	7	Sololá	701	Sololá	3	Barraneche	9	Septiembre	2023-02-09T00:00:00	2024-11-06T20:00:00	2	Temperatura media	15.2
47010	7	Sololá	701	Sololá	3	Barraneche	9	Septiembre	2023-02-09T00:00:00	2024-11-06T20:00:00	4	Temperatura máxima	15.9
47011	7	Sololá	701	Sololá	3	Barraneche	9	Septiembre	2023-02-09T00:00:00	2024-11-06T20:00:00	3	Temperatura mínima	15.2
47012	7	Sololá	701	Sololá	3	Barraneche	9	Septiembre	2023-02-09T00:00:00	2024-11-06T20:00:00	5	Humedad	65
47013	7	Sololá	701	Sololá	3	Barraneche	9	Septiembre	2023-02-09T00:00:00	2024-11-06T20:00:00	6	Velocidad del viento	12.9
47014	7	Sololá	701	Sololá	3	Barraneche	9	Septiembre	2023-02-09T00:00:00	2024-11-06T20:00:00	7	Dirección del viento	12.87
47015	7	Sololá	701	Sololá	3	Barraneche	9	Septiembre	2023-02-09T00:00:00	2024-11-06T20:00:00	1	Precipitación	0
47016	7	Sololá	701	Sololá	3	Barraneche	9	Septiembre	2023-02-09T00:00:00	2024-11-06T20:00:00	8	Radiación solar	0
47017	7	Sololá	701	Sololá	3	Barraneche	9	Septiembre	2023-02-09T00:00:00	2024-11-06T21:00:00	2	Temperatura media	14.7
47018	7	Sololá	701	Sololá	3	Barraneche	9	Septiembre	2023-02-09T00:00:00	2024-11-06T21:00:00	4	Temperatura máxima	15.2
47019	7	Sololá	701	Sololá	3	Barraneche	9	Septiembre	2023-02-09T00:00:00	2024-11-06T21:00:00	3	Temperatura mínima	14.6
47020	7	Sololá	701	Sololá	3	Barraneche	9	Septiembre	2023-02-09T00:00:00	2024-11-06T21:00:00	5	Humedad	67
47021	7	Sololá	701	Sololá	3	Barraneche	9	Septiembre	2023-02-09T00:00:00	2024-11-06T21:00:00	6	Velocidad del viento	9.7
47022	7	Sololá	701	Sololá	3	Barraneche	9	Septiembre	2023-02-09T00:00:00	2024-11-06T21:00:00	7	Dirección del viento	9.66
47023	7	Sololá	701	Sololá	3	Barraneche	9	Septiembre	2023-02-09T00:00:00	2024-11-06T21:00:00	1	Precipitación	0.2
47024	7	Sololá	701	Sololá	3	Barraneche	9	Septiembre	2023-02-09T00:00:00	2024-11-06T21:00:00	8	Radiación solar	0
47025	7	Sololá	701	Sololá	3	Barraneche	9	Septiembre	2023-02-09T00:00:00	2024-11-06T22:00:00	2	Temperatura media	15.2
47026	7	Sololá	701	Sololá	3	Barraneche	9	Septiembre	2023-02-09T00:00:00	2024-11-06T22:00:00	4	Temperatura máxima	15.2
47027	7	Sololá	701	Sololá	3	Barraneche	9	Septiembre	2023-02-09T00:00:00	2024-11-06T22:00:00	3	Temperatura mínima	14.7
47028	7	Sololá	701	Sololá	3	Barraneche	9	Septiembre	2023-02-09T00:00:00	2024-11-06T22:00:00	5	Humedad	64
47029	7	Sololá	701	Sololá	3	Barraneche	9	Septiembre	2023-02-09T00:00:00	2024-11-06T22:00:00	6	Velocidad del viento	12.9
47030	7	Sololá	701	Sololá	3	Barraneche	9	Septiembre	2023-02-09T00:00:00	2024-11-06T22:00:00	7	Dirección del viento	12.87
47031	7	Sololá	701	Sololá	3	Barraneche	9	Septiembre	2023-02-09T00:00:00	2024-11-06T22:00:00	1	Precipitación	0
47032	7	Sololá	701	Sololá	3	Barraneche	9	Septiembre	2023-02-09T00:00:00	2024-11-06T22:00:00	8	Radiación solar	0
47033	7	Sololá	701	Sololá	3	Barraneche	9	Septiembre	2023-02-09T00:00:00	2024-11-06T23:00:00	2	Temperatura media	15.2
47034	7	Sololá	701	Sololá	3	Barraneche	9	Septiembre	2023-02-09T00:00:00	2024-11-06T23:00:00	4	Temperatura máxima	15.4
47035	7	Sololá	701	Sololá	3	Barraneche	9	Septiembre	2023-02-09T00:00:00	2024-11-06T23:00:00	3	Temperatura mínima	15.1
47036	7	Sololá	701	Sololá	3	Barraneche	9	Septiembre	2023-02-09T00:00:00	2024-11-06T23:00:00	5	Humedad	64
47037	7	Sololá	701	Sololá	3	Barraneche	9	Septiembre	2023-02-09T00:00:00	2024-11-06T23:00:00	6	Velocidad del viento	8
47038	7	Sololá	701	Sololá	3	Barraneche	9	Septiembre	2023-02-09T00:00:00	2024-11-06T23:00:00	7	Dirección del viento	8.05
47039	7	Sololá	701	Sololá	3	Barraneche	9	Septiembre	2023-02-09T00:00:00	2024-11-06T23:00:00	1	Precipitación	0
47040	7	Sololá	701	Sololá	3	Barraneche	9	Septiembre	2023-02-09T00:00:00	2024-11-06T23:00:00	8	Radiación solar	0
47041	7	Sololá	701	Sololá	3	Barraneche	9	Septiembre	2023-03-09T00:00:00	2024-11-06T00:00:00	2	Temperatura media	15.1
47042	7	Sololá	701	Sololá	3	Barraneche	9	Septiembre	2023-03-09T00:00:00	2024-11-06T00:00:00	4	Temperatura máxima	15.3
47043	7	Sololá	701	Sololá	3	Barraneche	9	Septiembre	2023-03-09T00:00:00	2024-11-06T00:00:00	3	Temperatura mínima	15.1
47044	7	Sololá	701	Sololá	3	Barraneche	9	Septiembre	2023-03-09T00:00:00	2024-11-06T00:00:00	5	Humedad	61
47045	7	Sololá	701	Sololá	3	Barraneche	9	Septiembre	2023-03-09T00:00:00	2024-11-06T00:00:00	6	Velocidad del viento	16.1
47046	7	Sololá	701	Sololá	3	Barraneche	9	Septiembre	2023-03-09T00:00:00	2024-11-06T00:00:00	7	Dirección del viento	16.09
47047	7	Sololá	701	Sololá	3	Barraneche	9	Septiembre	2023-03-09T00:00:00	2024-11-06T00:00:00	1	Precipitación	0
47048	7	Sololá	701	Sololá	3	Barraneche	9	Septiembre	2023-03-09T00:00:00	2024-11-06T00:00:00	8	Radiación solar	0
47049	7	Sololá	701	Sololá	3	Barraneche	9	Septiembre	2023-03-09T00:00:00	2024-11-06T01:00:00	2	Temperatura media	14.7
47050	7	Sololá	701	Sololá	3	Barraneche	9	Septiembre	2023-03-09T00:00:00	2024-11-06T01:00:00	4	Temperatura máxima	15.3
47051	7	Sololá	701	Sololá	3	Barraneche	9	Septiembre	2023-03-09T00:00:00	2024-11-06T01:00:00	3	Temperatura mínima	14.7
47052	7	Sololá	701	Sololá	3	Barraneche	9	Septiembre	2023-03-09T00:00:00	2024-11-06T01:00:00	5	Humedad	64
47053	7	Sololá	701	Sololá	3	Barraneche	9	Septiembre	2023-03-09T00:00:00	2024-11-06T01:00:00	6	Velocidad del viento	12.9
47054	7	Sololá	701	Sololá	3	Barraneche	9	Septiembre	2023-03-09T00:00:00	2024-11-06T01:00:00	7	Dirección del viento	12.87
47055	7	Sololá	701	Sololá	3	Barraneche	9	Septiembre	2023-03-09T00:00:00	2024-11-06T01:00:00	1	Precipitación	0
47056	7	Sololá	701	Sololá	3	Barraneche	9	Septiembre	2023-03-09T00:00:00	2024-11-06T01:00:00	8	Radiación solar	0
47057	7	Sololá	701	Sololá	3	Barraneche	9	Septiembre	2023-03-09T00:00:00	2024-11-06T02:00:00	2	Temperatura media	14.4
47058	7	Sololá	701	Sololá	3	Barraneche	9	Septiembre	2023-03-09T00:00:00	2024-11-06T02:00:00	4	Temperatura máxima	14.8
47059	7	Sololá	701	Sololá	3	Barraneche	9	Septiembre	2023-03-09T00:00:00	2024-11-06T02:00:00	3	Temperatura mínima	14.4
47060	7	Sololá	701	Sololá	3	Barraneche	9	Septiembre	2023-03-09T00:00:00	2024-11-06T02:00:00	5	Humedad	66
47061	7	Sololá	701	Sololá	3	Barraneche	9	Septiembre	2023-03-09T00:00:00	2024-11-06T02:00:00	6	Velocidad del viento	12.9
47062	7	Sololá	701	Sololá	3	Barraneche	9	Septiembre	2023-03-09T00:00:00	2024-11-06T02:00:00	7	Dirección del viento	12.87
47063	7	Sololá	701	Sololá	3	Barraneche	9	Septiembre	2023-03-09T00:00:00	2024-11-06T02:00:00	1	Precipitación	0
47064	7	Sololá	701	Sololá	3	Barraneche	9	Septiembre	2023-03-09T00:00:00	2024-11-06T02:00:00	8	Radiación solar	0
47065	7	Sololá	701	Sololá	3	Barraneche	9	Septiembre	2023-03-09T00:00:00	2024-11-06T03:00:00	2	Temperatura media	14.1
47066	7	Sololá	701	Sololá	3	Barraneche	9	Septiembre	2023-03-09T00:00:00	2024-11-06T03:00:00	4	Temperatura máxima	14.5
47067	7	Sololá	701	Sololá	3	Barraneche	9	Septiembre	2023-03-09T00:00:00	2024-11-06T03:00:00	3	Temperatura mínima	14.1
47068	7	Sololá	701	Sololá	3	Barraneche	9	Septiembre	2023-03-09T00:00:00	2024-11-06T03:00:00	5	Humedad	68
47069	7	Sololá	701	Sololá	3	Barraneche	9	Septiembre	2023-03-09T00:00:00	2024-11-06T03:00:00	6	Velocidad del viento	11.3
47070	7	Sololá	701	Sololá	3	Barraneche	9	Septiembre	2023-03-09T00:00:00	2024-11-06T03:00:00	7	Dirección del viento	11.27
47071	7	Sololá	701	Sololá	3	Barraneche	9	Septiembre	2023-03-09T00:00:00	2024-11-06T03:00:00	1	Precipitación	0
47072	7	Sololá	701	Sololá	3	Barraneche	9	Septiembre	2023-03-09T00:00:00	2024-11-06T03:00:00	8	Radiación solar	0
47073	7	Sololá	701	Sololá	3	Barraneche	9	Septiembre	2023-03-09T00:00:00	2024-11-06T04:00:00	2	Temperatura media	14.6
47074	7	Sololá	701	Sololá	3	Barraneche	9	Septiembre	2023-03-09T00:00:00	2024-11-06T04:00:00	4	Temperatura máxima	14.6
47075	7	Sololá	701	Sololá	3	Barraneche	9	Septiembre	2023-03-09T00:00:00	2024-11-06T04:00:00	3	Temperatura mínima	14
47076	7	Sololá	701	Sololá	3	Barraneche	9	Septiembre	2023-03-09T00:00:00	2024-11-06T04:00:00	5	Humedad	63
47077	7	Sololá	701	Sololá	3	Barraneche	9	Septiembre	2023-03-09T00:00:00	2024-11-06T04:00:00	6	Velocidad del viento	12.9
47078	7	Sololá	701	Sololá	3	Barraneche	9	Septiembre	2023-03-09T00:00:00	2024-11-06T04:00:00	7	Dirección del viento	12.87
47079	7	Sololá	701	Sololá	3	Barraneche	9	Septiembre	2023-03-09T00:00:00	2024-11-06T04:00:00	1	Precipitación	0
47080	7	Sololá	701	Sololá	3	Barraneche	9	Septiembre	2023-03-09T00:00:00	2024-11-06T04:00:00	8	Radiación solar	0
47081	7	Sololá	701	Sololá	3	Barraneche	9	Septiembre	2023-03-09T00:00:00	2024-11-06T05:00:00	2	Temperatura media	14.1
47082	7	Sololá	701	Sololá	3	Barraneche	9	Septiembre	2023-03-09T00:00:00	2024-11-06T05:00:00	4	Temperatura máxima	14.7
47083	7	Sololá	701	Sololá	3	Barraneche	9	Septiembre	2023-03-09T00:00:00	2024-11-06T05:00:00	3	Temperatura mínima	14.1
47084	7	Sololá	701	Sololá	3	Barraneche	9	Septiembre	2023-03-09T00:00:00	2024-11-06T05:00:00	5	Humedad	64
47085	7	Sololá	701	Sololá	3	Barraneche	9	Septiembre	2023-03-09T00:00:00	2024-11-06T05:00:00	6	Velocidad del viento	16.1
47086	7	Sololá	701	Sololá	3	Barraneche	9	Septiembre	2023-03-09T00:00:00	2024-11-06T05:00:00	7	Dirección del viento	16.09
47087	7	Sololá	701	Sololá	3	Barraneche	9	Septiembre	2023-03-09T00:00:00	2024-11-06T05:00:00	1	Precipitación	0
47088	7	Sololá	701	Sololá	3	Barraneche	9	Septiembre	2023-03-09T00:00:00	2024-11-06T05:00:00	8	Radiación solar	0
47089	7	Sololá	701	Sololá	3	Barraneche	9	Septiembre	2023-03-09T00:00:00	2024-11-06T06:00:00	2	Temperatura media	13.9
47090	7	Sololá	701	Sololá	3	Barraneche	9	Septiembre	2023-03-09T00:00:00	2024-11-06T06:00:00	4	Temperatura máxima	14.3
47091	7	Sololá	701	Sololá	3	Barraneche	9	Septiembre	2023-03-09T00:00:00	2024-11-06T06:00:00	3	Temperatura mínima	13.8
47092	7	Sololá	701	Sololá	3	Barraneche	9	Septiembre	2023-03-09T00:00:00	2024-11-06T06:00:00	5	Humedad	66
47093	7	Sololá	701	Sololá	3	Barraneche	9	Septiembre	2023-03-09T00:00:00	2024-11-06T06:00:00	6	Velocidad del viento	17.7
47094	7	Sololá	701	Sololá	3	Barraneche	9	Septiembre	2023-03-09T00:00:00	2024-11-06T06:00:00	7	Dirección del viento	17.7
47095	7	Sololá	701	Sololá	3	Barraneche	9	Septiembre	2023-03-09T00:00:00	2024-11-06T06:00:00	1	Precipitación	0
47096	7	Sololá	701	Sololá	3	Barraneche	9	Septiembre	2023-03-09T00:00:00	2024-11-06T06:00:00	8	Radiación solar	1
47097	7	Sololá	701	Sololá	3	Barraneche	9	Septiembre	2023-03-09T00:00:00	2024-11-06T07:00:00	2	Temperatura media	14.8
47098	7	Sololá	701	Sololá	3	Barraneche	9	Septiembre	2023-03-09T00:00:00	2024-11-06T07:00:00	4	Temperatura máxima	14.8
47099	7	Sololá	701	Sololá	3	Barraneche	9	Septiembre	2023-03-09T00:00:00	2024-11-06T07:00:00	3	Temperatura mínima	13.9
47100	7	Sololá	701	Sololá	3	Barraneche	9	Septiembre	2023-03-09T00:00:00	2024-11-06T07:00:00	5	Humedad	62
47101	7	Sololá	701	Sololá	3	Barraneche	9	Septiembre	2023-03-09T00:00:00	2024-11-06T07:00:00	6	Velocidad del viento	17.7
47102	7	Sololá	701	Sololá	3	Barraneche	9	Septiembre	2023-03-09T00:00:00	2024-11-06T07:00:00	7	Dirección del viento	17.7
47103	7	Sololá	701	Sololá	3	Barraneche	9	Septiembre	2023-03-09T00:00:00	2024-11-06T07:00:00	1	Precipitación	0
47104	7	Sololá	701	Sololá	3	Barraneche	9	Septiembre	2023-03-09T00:00:00	2024-11-06T07:00:00	8	Radiación solar	56
47105	7	Sololá	701	Sololá	3	Barraneche	9	Septiembre	2023-03-09T00:00:00	2024-11-06T08:00:00	2	Temperatura media	17.1
47106	7	Sololá	701	Sololá	3	Barraneche	9	Septiembre	2023-03-09T00:00:00	2024-11-06T08:00:00	4	Temperatura máxima	17.4
47107	7	Sololá	701	Sololá	3	Barraneche	9	Septiembre	2023-03-09T00:00:00	2024-11-06T08:00:00	3	Temperatura mínima	14.8
47108	7	Sololá	701	Sololá	3	Barraneche	9	Septiembre	2023-03-09T00:00:00	2024-11-06T08:00:00	5	Humedad	54
47109	7	Sololá	701	Sololá	3	Barraneche	9	Septiembre	2023-03-09T00:00:00	2024-11-06T08:00:00	6	Velocidad del viento	6.4
47110	7	Sololá	701	Sololá	3	Barraneche	9	Septiembre	2023-03-09T00:00:00	2024-11-06T08:00:00	7	Dirección del viento	6.44
47111	7	Sololá	701	Sololá	3	Barraneche	9	Septiembre	2023-03-09T00:00:00	2024-11-06T08:00:00	1	Precipitación	0
47112	7	Sololá	701	Sololá	3	Barraneche	9	Septiembre	2023-03-09T00:00:00	2024-11-06T08:00:00	8	Radiación solar	285
47113	7	Sololá	701	Sololá	3	Barraneche	9	Septiembre	2023-03-09T00:00:00	2024-11-06T09:00:00	2	Temperatura media	18.1
47114	7	Sololá	701	Sololá	3	Barraneche	9	Septiembre	2023-03-09T00:00:00	2024-11-06T09:00:00	4	Temperatura máxima	18.3
47115	7	Sololá	701	Sololá	3	Barraneche	9	Septiembre	2023-03-09T00:00:00	2024-11-06T09:00:00	3	Temperatura mínima	17.1
47116	7	Sololá	701	Sololá	3	Barraneche	9	Septiembre	2023-03-09T00:00:00	2024-11-06T09:00:00	5	Humedad	53
47117	7	Sololá	701	Sololá	3	Barraneche	9	Septiembre	2023-03-09T00:00:00	2024-11-06T09:00:00	6	Velocidad del viento	9.7
47118	7	Sololá	701	Sololá	3	Barraneche	9	Septiembre	2023-03-09T00:00:00	2024-11-06T09:00:00	7	Dirección del viento	9.66
47119	7	Sololá	701	Sololá	3	Barraneche	9	Septiembre	2023-03-09T00:00:00	2024-11-06T09:00:00	1	Precipitación	0
47120	7	Sololá	701	Sololá	3	Barraneche	9	Septiembre	2023-03-09T00:00:00	2024-11-06T09:00:00	8	Radiación solar	572
47121	7	Sololá	701	Sololá	3	Barraneche	9	Septiembre	2023-03-09T00:00:00	2024-11-06T10:00:00	2	Temperatura media	19.6
47122	7	Sololá	701	Sololá	3	Barraneche	9	Septiembre	2023-03-09T00:00:00	2024-11-06T10:00:00	4	Temperatura máxima	19.7
47123	7	Sololá	701	Sololá	3	Barraneche	9	Septiembre	2023-03-09T00:00:00	2024-11-06T10:00:00	3	Temperatura mínima	18
47124	7	Sololá	701	Sololá	3	Barraneche	9	Septiembre	2023-03-09T00:00:00	2024-11-06T10:00:00	5	Humedad	46
47125	7	Sololá	701	Sololá	3	Barraneche	9	Septiembre	2023-03-09T00:00:00	2024-11-06T10:00:00	6	Velocidad del viento	11.3
47126	7	Sololá	701	Sololá	3	Barraneche	9	Septiembre	2023-03-09T00:00:00	2024-11-06T10:00:00	7	Dirección del viento	11.27
47127	7	Sololá	701	Sololá	3	Barraneche	9	Septiembre	2023-03-09T00:00:00	2024-11-06T10:00:00	1	Precipitación	0
47128	7	Sololá	701	Sololá	3	Barraneche	9	Septiembre	2023-03-09T00:00:00	2024-11-06T10:00:00	8	Radiación solar	786
47129	7	Sololá	701	Sololá	3	Barraneche	9	Septiembre	2023-03-09T00:00:00	2024-11-06T11:00:00	2	Temperatura media	18.9
47130	7	Sololá	701	Sololá	3	Barraneche	9	Septiembre	2023-03-09T00:00:00	2024-11-06T11:00:00	4	Temperatura máxima	19.9
47131	7	Sololá	701	Sololá	3	Barraneche	9	Septiembre	2023-03-09T00:00:00	2024-11-06T11:00:00	3	Temperatura mínima	18.9
47132	7	Sololá	701	Sololá	3	Barraneche	9	Septiembre	2023-03-09T00:00:00	2024-11-06T11:00:00	5	Humedad	51
47133	7	Sololá	701	Sololá	3	Barraneche	9	Septiembre	2023-03-09T00:00:00	2024-11-06T11:00:00	6	Velocidad del viento	11.3
47134	7	Sololá	701	Sololá	3	Barraneche	9	Septiembre	2023-03-09T00:00:00	2024-11-06T11:00:00	7	Dirección del viento	11.27
47135	7	Sololá	701	Sololá	3	Barraneche	9	Septiembre	2023-03-09T00:00:00	2024-11-06T11:00:00	1	Precipitación	0
47136	7	Sololá	701	Sololá	3	Barraneche	9	Septiembre	2023-03-09T00:00:00	2024-11-06T11:00:00	8	Radiación solar	645
47137	7	Sololá	701	Sololá	3	Barraneche	9	Septiembre	2023-03-09T00:00:00	2024-11-06T12:00:00	2	Temperatura media	19.4
47138	7	Sololá	701	Sololá	3	Barraneche	9	Septiembre	2023-03-09T00:00:00	2024-11-06T12:00:00	4	Temperatura máxima	20
47139	7	Sololá	701	Sololá	3	Barraneche	9	Septiembre	2023-03-09T00:00:00	2024-11-06T12:00:00	3	Temperatura mínima	18.9
47140	7	Sololá	701	Sololá	3	Barraneche	9	Septiembre	2023-03-09T00:00:00	2024-11-06T12:00:00	5	Humedad	51
47141	7	Sololá	701	Sololá	3	Barraneche	9	Septiembre	2023-03-09T00:00:00	2024-11-06T12:00:00	6	Velocidad del viento	11.3
47142	7	Sololá	701	Sololá	3	Barraneche	9	Septiembre	2023-03-09T00:00:00	2024-11-06T12:00:00	7	Dirección del viento	11.27
47143	7	Sololá	701	Sololá	3	Barraneche	9	Septiembre	2023-03-09T00:00:00	2024-11-06T12:00:00	1	Precipitación	0
47144	7	Sololá	701	Sololá	3	Barraneche	9	Septiembre	2023-03-09T00:00:00	2024-11-06T12:00:00	8	Radiación solar	875
47145	7	Sololá	701	Sololá	3	Barraneche	9	Septiembre	2023-03-09T00:00:00	2024-11-06T13:00:00	2	Temperatura media	20.6
47146	7	Sololá	701	Sololá	3	Barraneche	9	Septiembre	2023-03-09T00:00:00	2024-11-06T13:00:00	4	Temperatura máxima	20.7
47147	7	Sololá	701	Sololá	3	Barraneche	9	Septiembre	2023-03-09T00:00:00	2024-11-06T13:00:00	3	Temperatura mínima	19.1
47148	7	Sololá	701	Sololá	3	Barraneche	9	Septiembre	2023-03-09T00:00:00	2024-11-06T13:00:00	5	Humedad	47
47149	7	Sololá	701	Sololá	3	Barraneche	9	Septiembre	2023-03-09T00:00:00	2024-11-06T13:00:00	6	Velocidad del viento	11.3
47150	7	Sololá	701	Sololá	3	Barraneche	9	Septiembre	2023-03-09T00:00:00	2024-11-06T13:00:00	7	Dirección del viento	11.27
47151	7	Sololá	701	Sololá	3	Barraneche	9	Septiembre	2023-03-09T00:00:00	2024-11-06T13:00:00	1	Precipitación	0
47152	7	Sololá	701	Sololá	3	Barraneche	9	Septiembre	2023-03-09T00:00:00	2024-11-06T13:00:00	8	Radiación solar	1048
47153	7	Sololá	701	Sololá	3	Barraneche	9	Septiembre	2023-03-09T00:00:00	2024-11-06T14:00:00	2	Temperatura media	20.2
47154	7	Sololá	701	Sololá	3	Barraneche	9	Septiembre	2023-03-09T00:00:00	2024-11-06T14:00:00	4	Temperatura máxima	20.6
47155	7	Sololá	701	Sololá	3	Barraneche	9	Septiembre	2023-03-09T00:00:00	2024-11-06T14:00:00	3	Temperatura mínima	19.7
47156	7	Sololá	701	Sololá	3	Barraneche	9	Septiembre	2023-03-09T00:00:00	2024-11-06T14:00:00	5	Humedad	44
47157	7	Sololá	701	Sololá	3	Barraneche	9	Septiembre	2023-03-09T00:00:00	2024-11-06T14:00:00	6	Velocidad del viento	11.3
47158	7	Sololá	701	Sololá	3	Barraneche	9	Septiembre	2023-03-09T00:00:00	2024-11-06T14:00:00	7	Dirección del viento	11.27
47159	7	Sololá	701	Sololá	3	Barraneche	9	Septiembre	2023-03-09T00:00:00	2024-11-06T14:00:00	1	Precipitación	0
47160	7	Sololá	701	Sololá	3	Barraneche	9	Septiembre	2023-03-09T00:00:00	2024-11-06T14:00:00	8	Radiación solar	767
47161	7	Sololá	701	Sololá	3	Barraneche	9	Septiembre	2023-03-09T00:00:00	2024-11-06T15:00:00	2	Temperatura media	20.7
47162	7	Sololá	701	Sololá	3	Barraneche	9	Septiembre	2023-03-09T00:00:00	2024-11-06T15:00:00	4	Temperatura máxima	20.8
47163	7	Sololá	701	Sololá	3	Barraneche	9	Septiembre	2023-03-09T00:00:00	2024-11-06T15:00:00	3	Temperatura mínima	20.1
47164	7	Sololá	701	Sololá	3	Barraneche	9	Septiembre	2023-03-09T00:00:00	2024-11-06T15:00:00	5	Humedad	43
47165	7	Sololá	701	Sololá	3	Barraneche	9	Septiembre	2023-03-09T00:00:00	2024-11-06T15:00:00	6	Velocidad del viento	12.9
47166	7	Sololá	701	Sololá	3	Barraneche	9	Septiembre	2023-03-09T00:00:00	2024-11-06T15:00:00	7	Dirección del viento	12.87
47167	7	Sololá	701	Sololá	3	Barraneche	9	Septiembre	2023-03-09T00:00:00	2024-11-06T15:00:00	1	Precipitación	0
47168	7	Sololá	701	Sololá	3	Barraneche	9	Septiembre	2023-03-09T00:00:00	2024-11-06T15:00:00	8	Radiación solar	855
47169	7	Sololá	701	Sololá	3	Barraneche	9	Septiembre	2023-03-09T00:00:00	2024-11-06T16:00:00	2	Temperatura media	18.2
47170	7	Sololá	701	Sololá	3	Barraneche	9	Septiembre	2023-03-09T00:00:00	2024-11-06T16:00:00	4	Temperatura máxima	20.9
47171	7	Sololá	701	Sololá	3	Barraneche	9	Septiembre	2023-03-09T00:00:00	2024-11-06T16:00:00	3	Temperatura mínima	18.2
47172	7	Sololá	701	Sololá	3	Barraneche	9	Septiembre	2023-03-09T00:00:00	2024-11-06T16:00:00	5	Humedad	67
47173	7	Sololá	701	Sololá	3	Barraneche	9	Septiembre	2023-03-09T00:00:00	2024-11-06T16:00:00	6	Velocidad del viento	11.3
47174	7	Sololá	701	Sololá	3	Barraneche	9	Septiembre	2023-03-09T00:00:00	2024-11-06T16:00:00	7	Dirección del viento	11.27
47175	7	Sololá	701	Sololá	3	Barraneche	9	Septiembre	2023-03-09T00:00:00	2024-11-06T16:00:00	1	Precipitación	0
47176	7	Sololá	701	Sololá	3	Barraneche	9	Septiembre	2023-03-09T00:00:00	2024-11-06T16:00:00	8	Radiación solar	481
47177	7	Sololá	701	Sololá	3	Barraneche	9	Septiembre	2023-03-09T00:00:00	2024-11-06T17:00:00	2	Temperatura media	14.9
47178	7	Sololá	701	Sololá	3	Barraneche	9	Septiembre	2023-03-09T00:00:00	2024-11-06T17:00:00	4	Temperatura máxima	18.2
47179	7	Sololá	701	Sololá	3	Barraneche	9	Septiembre	2023-03-09T00:00:00	2024-11-06T17:00:00	3	Temperatura mínima	14.9
47180	7	Sololá	701	Sololá	3	Barraneche	9	Septiembre	2023-03-09T00:00:00	2024-11-06T17:00:00	5	Humedad	70
47181	7	Sololá	701	Sololá	3	Barraneche	9	Septiembre	2023-03-09T00:00:00	2024-11-06T17:00:00	6	Velocidad del viento	9.7
47182	7	Sololá	701	Sololá	3	Barraneche	9	Septiembre	2023-03-09T00:00:00	2024-11-06T17:00:00	7	Dirección del viento	9.66
47183	7	Sololá	701	Sololá	3	Barraneche	9	Septiembre	2023-03-09T00:00:00	2024-11-06T17:00:00	1	Precipitación	2.2
47184	7	Sololá	701	Sololá	3	Barraneche	9	Septiembre	2023-03-09T00:00:00	2024-11-06T17:00:00	8	Radiación solar	127
47185	7	Sololá	701	Sololá	3	Barraneche	9	Septiembre	2023-03-09T00:00:00	2024-11-06T18:00:00	2	Temperatura media	15.1
47186	7	Sololá	701	Sololá	3	Barraneche	9	Septiembre	2023-03-09T00:00:00	2024-11-06T18:00:00	4	Temperatura máxima	15.6
47187	7	Sololá	701	Sololá	3	Barraneche	9	Septiembre	2023-03-09T00:00:00	2024-11-06T18:00:00	3	Temperatura mínima	14.9
47188	7	Sololá	701	Sololá	3	Barraneche	9	Septiembre	2023-03-09T00:00:00	2024-11-06T18:00:00	5	Humedad	67
47189	7	Sololá	701	Sololá	3	Barraneche	9	Septiembre	2023-03-09T00:00:00	2024-11-06T18:00:00	6	Velocidad del viento	6.4
47190	7	Sololá	701	Sololá	3	Barraneche	9	Septiembre	2023-03-09T00:00:00	2024-11-06T18:00:00	7	Dirección del viento	6.44
47191	7	Sololá	701	Sololá	3	Barraneche	9	Septiembre	2023-03-09T00:00:00	2024-11-06T18:00:00	1	Precipitación	0
47192	7	Sololá	701	Sololá	3	Barraneche	9	Septiembre	2023-03-09T00:00:00	2024-11-06T18:00:00	8	Radiación solar	68
47193	7	Sololá	701	Sololá	3	Barraneche	9	Septiembre	2023-03-09T00:00:00	2024-11-06T19:00:00	2	Temperatura media	14.6
47194	7	Sololá	701	Sololá	3	Barraneche	9	Septiembre	2023-03-09T00:00:00	2024-11-06T19:00:00	4	Temperatura máxima	15.1
47195	7	Sololá	701	Sololá	3	Barraneche	9	Septiembre	2023-03-09T00:00:00	2024-11-06T19:00:00	3	Temperatura mínima	14.4
47196	7	Sololá	701	Sololá	3	Barraneche	9	Septiembre	2023-03-09T00:00:00	2024-11-06T19:00:00	5	Humedad	70
47197	7	Sololá	701	Sololá	3	Barraneche	9	Septiembre	2023-03-09T00:00:00	2024-11-06T19:00:00	6	Velocidad del viento	4.8
47198	7	Sololá	701	Sololá	3	Barraneche	9	Septiembre	2023-03-09T00:00:00	2024-11-06T19:00:00	7	Dirección del viento	4.83
47199	7	Sololá	701	Sololá	3	Barraneche	9	Septiembre	2023-03-09T00:00:00	2024-11-06T19:00:00	1	Precipitación	0.2
47200	7	Sololá	701	Sololá	3	Barraneche	9	Septiembre	2023-03-09T00:00:00	2024-11-06T19:00:00	8	Radiación solar	0
47201	7	Sololá	701	Sololá	3	Barraneche	9	Septiembre	2023-03-09T00:00:00	2024-11-06T20:00:00	2	Temperatura media	13.9
47202	7	Sololá	701	Sololá	3	Barraneche	9	Septiembre	2023-03-09T00:00:00	2024-11-06T20:00:00	4	Temperatura máxima	14.6
47203	7	Sololá	701	Sololá	3	Barraneche	9	Septiembre	2023-03-09T00:00:00	2024-11-06T20:00:00	3	Temperatura mínima	13.9
47204	7	Sololá	701	Sololá	3	Barraneche	9	Septiembre	2023-03-09T00:00:00	2024-11-06T20:00:00	5	Humedad	69
47205	7	Sololá	701	Sololá	3	Barraneche	9	Septiembre	2023-03-09T00:00:00	2024-11-06T20:00:00	6	Velocidad del viento	3.2
47206	7	Sololá	701	Sololá	3	Barraneche	9	Septiembre	2023-03-09T00:00:00	2024-11-06T20:00:00	7	Dirección del viento	3.22
47207	7	Sololá	701	Sololá	3	Barraneche	9	Septiembre	2023-03-09T00:00:00	2024-11-06T20:00:00	1	Precipitación	0.6
47208	7	Sololá	701	Sololá	3	Barraneche	9	Septiembre	2023-03-09T00:00:00	2024-11-06T20:00:00	8	Radiación solar	0
47209	7	Sololá	701	Sololá	3	Barraneche	9	Septiembre	2023-03-09T00:00:00	2024-11-06T21:00:00	2	Temperatura media	13.1
47210	7	Sololá	701	Sololá	3	Barraneche	9	Septiembre	2023-03-09T00:00:00	2024-11-06T21:00:00	4	Temperatura máxima	14
47211	7	Sololá	701	Sololá	3	Barraneche	9	Septiembre	2023-03-09T00:00:00	2024-11-06T21:00:00	3	Temperatura mínima	13
47212	7	Sololá	701	Sololá	3	Barraneche	9	Septiembre	2023-03-09T00:00:00	2024-11-06T21:00:00	5	Humedad	75
47213	7	Sololá	701	Sololá	3	Barraneche	9	Septiembre	2023-03-09T00:00:00	2024-11-06T21:00:00	6	Velocidad del viento	1.6
47214	7	Sololá	701	Sololá	3	Barraneche	9	Septiembre	2023-03-09T00:00:00	2024-11-06T21:00:00	7	Dirección del viento	1.61
47215	7	Sololá	701	Sololá	3	Barraneche	9	Septiembre	2023-03-09T00:00:00	2024-11-06T21:00:00	1	Precipitación	0.2
47216	7	Sololá	701	Sololá	3	Barraneche	9	Septiembre	2023-03-09T00:00:00	2024-11-06T21:00:00	8	Radiación solar	0
47217	7	Sololá	701	Sololá	3	Barraneche	9	Septiembre	2023-03-09T00:00:00	2024-11-06T22:00:00	2	Temperatura media	13.3
47218	7	Sololá	701	Sololá	3	Barraneche	9	Septiembre	2023-03-09T00:00:00	2024-11-06T22:00:00	4	Temperatura máxima	13.5
47219	7	Sololá	701	Sololá	3	Barraneche	9	Septiembre	2023-03-09T00:00:00	2024-11-06T22:00:00	3	Temperatura mínima	12.9
47220	7	Sololá	701	Sololá	3	Barraneche	9	Septiembre	2023-03-09T00:00:00	2024-11-06T22:00:00	5	Humedad	81
47221	7	Sololá	701	Sololá	3	Barraneche	9	Septiembre	2023-03-09T00:00:00	2024-11-06T22:00:00	6	Velocidad del viento	1.6
47222	7	Sololá	701	Sololá	3	Barraneche	9	Septiembre	2023-03-09T00:00:00	2024-11-06T22:00:00	7	Dirección del viento	1.61
47223	7	Sololá	701	Sololá	3	Barraneche	9	Septiembre	2023-03-09T00:00:00	2024-11-06T22:00:00	1	Precipitación	0.4
47224	7	Sololá	701	Sololá	3	Barraneche	9	Septiembre	2023-03-09T00:00:00	2024-11-06T22:00:00	8	Radiación solar	0
47225	7	Sololá	701	Sololá	3	Barraneche	9	Septiembre	2023-03-09T00:00:00	2024-11-06T23:00:00	2	Temperatura media	13.1
47226	7	Sololá	701	Sololá	3	Barraneche	9	Septiembre	2023-03-09T00:00:00	2024-11-06T23:00:00	4	Temperatura máxima	13.3
47227	7	Sololá	701	Sololá	3	Barraneche	9	Septiembre	2023-03-09T00:00:00	2024-11-06T23:00:00	3	Temperatura mínima	13
47228	7	Sololá	701	Sololá	3	Barraneche	9	Septiembre	2023-03-09T00:00:00	2024-11-06T23:00:00	5	Humedad	82
47229	7	Sololá	701	Sololá	3	Barraneche	9	Septiembre	2023-03-09T00:00:00	2024-11-06T23:00:00	6	Velocidad del viento	3.2
47230	7	Sololá	701	Sololá	3	Barraneche	9	Septiembre	2023-03-09T00:00:00	2024-11-06T23:00:00	7	Dirección del viento	3.22
47231	7	Sololá	701	Sololá	3	Barraneche	9	Septiembre	2023-03-09T00:00:00	2024-11-06T23:00:00	1	Precipitación	3.4
47232	7	Sololá	701	Sololá	3	Barraneche	9	Septiembre	2023-03-09T00:00:00	2024-11-06T23:00:00	8	Radiación solar	0
47233	7	Sololá	701	Sololá	3	Barraneche	9	Septiembre	2023-04-09T00:00:00	2024-11-06T00:00:00	2	Temperatura media	13.3
47234	7	Sololá	701	Sololá	3	Barraneche	9	Septiembre	2023-04-09T00:00:00	2024-11-06T00:00:00	4	Temperatura máxima	13.4
47235	7	Sololá	701	Sololá	3	Barraneche	9	Septiembre	2023-04-09T00:00:00	2024-11-06T00:00:00	3	Temperatura mínima	12.9
47236	7	Sololá	701	Sololá	3	Barraneche	9	Septiembre	2023-04-09T00:00:00	2024-11-06T00:00:00	5	Humedad	75
47237	7	Sololá	701	Sololá	3	Barraneche	9	Septiembre	2023-04-09T00:00:00	2024-11-06T00:00:00	6	Velocidad del viento	3.2
47238	7	Sololá	701	Sololá	3	Barraneche	9	Septiembre	2023-04-09T00:00:00	2024-11-06T00:00:00	7	Dirección del viento	3.22
47239	7	Sololá	701	Sololá	3	Barraneche	9	Septiembre	2023-04-09T00:00:00	2024-11-06T00:00:00	1	Precipitación	0.4
47240	7	Sololá	701	Sololá	3	Barraneche	9	Septiembre	2023-04-09T00:00:00	2024-11-06T00:00:00	8	Radiación solar	0
47241	7	Sololá	701	Sololá	3	Barraneche	9	Septiembre	2023-04-09T00:00:00	2024-11-06T01:00:00	2	Temperatura media	13.6
47242	7	Sololá	701	Sololá	3	Barraneche	9	Septiembre	2023-04-09T00:00:00	2024-11-06T01:00:00	4	Temperatura máxima	13.7
47243	7	Sololá	701	Sololá	3	Barraneche	9	Septiembre	2023-04-09T00:00:00	2024-11-06T01:00:00	3	Temperatura mínima	13.1
47244	7	Sololá	701	Sololá	3	Barraneche	9	Septiembre	2023-04-09T00:00:00	2024-11-06T01:00:00	5	Humedad	69
47245	7	Sololá	701	Sololá	3	Barraneche	9	Septiembre	2023-04-09T00:00:00	2024-11-06T01:00:00	6	Velocidad del viento	8
47246	7	Sololá	701	Sololá	3	Barraneche	9	Septiembre	2023-04-09T00:00:00	2024-11-06T01:00:00	7	Dirección del viento	8.05
47247	7	Sololá	701	Sololá	3	Barraneche	9	Septiembre	2023-04-09T00:00:00	2024-11-06T01:00:00	1	Precipitación	0.2
47248	7	Sololá	701	Sololá	3	Barraneche	9	Septiembre	2023-04-09T00:00:00	2024-11-06T01:00:00	8	Radiación solar	0
47249	7	Sololá	701	Sololá	3	Barraneche	9	Septiembre	2023-04-09T00:00:00	2024-11-06T02:00:00	2	Temperatura media	12.4
47250	7	Sololá	701	Sololá	3	Barraneche	9	Septiembre	2023-04-09T00:00:00	2024-11-06T02:00:00	4	Temperatura máxima	13.6
47251	7	Sololá	701	Sololá	3	Barraneche	9	Septiembre	2023-04-09T00:00:00	2024-11-06T02:00:00	3	Temperatura mínima	12.4
47252	7	Sololá	701	Sololá	3	Barraneche	9	Septiembre	2023-04-09T00:00:00	2024-11-06T02:00:00	5	Humedad	72
47253	7	Sololá	701	Sololá	3	Barraneche	9	Septiembre	2023-04-09T00:00:00	2024-11-06T02:00:00	6	Velocidad del viento	4.8
47254	7	Sololá	701	Sololá	3	Barraneche	9	Septiembre	2023-04-09T00:00:00	2024-11-06T02:00:00	7	Dirección del viento	4.83
47255	7	Sololá	701	Sololá	3	Barraneche	9	Septiembre	2023-04-09T00:00:00	2024-11-06T02:00:00	1	Precipitación	0
47256	7	Sololá	701	Sololá	3	Barraneche	9	Septiembre	2023-04-09T00:00:00	2024-11-06T02:00:00	8	Radiación solar	0
47257	7	Sololá	701	Sololá	3	Barraneche	9	Septiembre	2023-04-09T00:00:00	2024-11-06T03:00:00	2	Temperatura media	11.9
47258	7	Sololá	701	Sololá	3	Barraneche	9	Septiembre	2023-04-09T00:00:00	2024-11-06T03:00:00	4	Temperatura máxima	12.4
47259	7	Sololá	701	Sololá	3	Barraneche	9	Septiembre	2023-04-09T00:00:00	2024-11-06T03:00:00	3	Temperatura mínima	11.6
47260	7	Sololá	701	Sololá	3	Barraneche	9	Septiembre	2023-04-09T00:00:00	2024-11-06T03:00:00	5	Humedad	72
47261	7	Sololá	701	Sololá	3	Barraneche	9	Septiembre	2023-04-09T00:00:00	2024-11-06T03:00:00	6	Velocidad del viento	3.2
47262	7	Sololá	701	Sololá	3	Barraneche	9	Septiembre	2023-04-09T00:00:00	2024-11-06T03:00:00	7	Dirección del viento	3.22
47263	7	Sololá	701	Sololá	3	Barraneche	9	Septiembre	2023-04-09T00:00:00	2024-11-06T03:00:00	1	Precipitación	0
47264	7	Sololá	701	Sololá	3	Barraneche	9	Septiembre	2023-04-09T00:00:00	2024-11-06T03:00:00	8	Radiación solar	0
47265	7	Sololá	701	Sololá	3	Barraneche	9	Septiembre	2023-04-09T00:00:00	2024-11-06T04:00:00	2	Temperatura media	10.4
47266	7	Sololá	701	Sololá	3	Barraneche	9	Septiembre	2023-04-09T00:00:00	2024-11-06T04:00:00	4	Temperatura máxima	11.9
47267	7	Sololá	701	Sololá	3	Barraneche	9	Septiembre	2023-04-09T00:00:00	2024-11-06T04:00:00	3	Temperatura mínima	10.4
47268	7	Sololá	701	Sololá	3	Barraneche	9	Septiembre	2023-04-09T00:00:00	2024-11-06T04:00:00	5	Humedad	76
47269	7	Sololá	701	Sololá	3	Barraneche	9	Septiembre	2023-04-09T00:00:00	2024-11-06T04:00:00	6	Velocidad del viento	3.2
47270	7	Sololá	701	Sololá	3	Barraneche	9	Septiembre	2023-04-09T00:00:00	2024-11-06T04:00:00	7	Dirección del viento	3.22
47271	7	Sololá	701	Sololá	3	Barraneche	9	Septiembre	2023-04-09T00:00:00	2024-11-06T04:00:00	1	Precipitación	0
47272	7	Sololá	701	Sololá	3	Barraneche	9	Septiembre	2023-04-09T00:00:00	2024-11-06T04:00:00	8	Radiación solar	0
47273	7	Sololá	701	Sololá	3	Barraneche	9	Septiembre	2023-04-09T00:00:00	2024-11-06T05:00:00	2	Temperatura media	10.1
47274	7	Sololá	701	Sololá	3	Barraneche	9	Septiembre	2023-04-09T00:00:00	2024-11-06T05:00:00	4	Temperatura máxima	10.6
47275	7	Sololá	701	Sololá	3	Barraneche	9	Septiembre	2023-04-09T00:00:00	2024-11-06T05:00:00	3	Temperatura mínima	10.1
47276	7	Sololá	701	Sololá	3	Barraneche	9	Septiembre	2023-04-09T00:00:00	2024-11-06T05:00:00	5	Humedad	78
47277	7	Sololá	701	Sololá	3	Barraneche	9	Septiembre	2023-04-09T00:00:00	2024-11-06T05:00:00	6	Velocidad del viento	3.2
47278	7	Sololá	701	Sololá	3	Barraneche	9	Septiembre	2023-04-09T00:00:00	2024-11-06T05:00:00	7	Dirección del viento	3.22
47279	7	Sololá	701	Sololá	3	Barraneche	9	Septiembre	2023-04-09T00:00:00	2024-11-06T05:00:00	1	Precipitación	0
47280	7	Sololá	701	Sololá	3	Barraneche	9	Septiembre	2023-04-09T00:00:00	2024-11-06T05:00:00	8	Radiación solar	0
47281	7	Sololá	701	Sololá	3	Barraneche	9	Septiembre	2023-04-09T00:00:00	2024-11-06T06:00:00	2	Temperatura media	9.8
47282	7	Sololá	701	Sololá	3	Barraneche	9	Septiembre	2023-04-09T00:00:00	2024-11-06T06:00:00	4	Temperatura máxima	10.1
47283	7	Sololá	701	Sololá	3	Barraneche	9	Septiembre	2023-04-09T00:00:00	2024-11-06T06:00:00	3	Temperatura mínima	9.8
47284	7	Sololá	701	Sololá	3	Barraneche	9	Septiembre	2023-04-09T00:00:00	2024-11-06T06:00:00	5	Humedad	78
47285	7	Sololá	701	Sololá	3	Barraneche	9	Septiembre	2023-04-09T00:00:00	2024-11-06T06:00:00	6	Velocidad del viento	3.2
47286	7	Sololá	701	Sololá	3	Barraneche	9	Septiembre	2023-04-09T00:00:00	2024-11-06T06:00:00	7	Dirección del viento	3.22
47287	7	Sololá	701	Sololá	3	Barraneche	9	Septiembre	2023-04-09T00:00:00	2024-11-06T06:00:00	1	Precipitación	0
47288	7	Sololá	701	Sololá	3	Barraneche	9	Septiembre	2023-04-09T00:00:00	2024-11-06T06:00:00	8	Radiación solar	0
47289	7	Sololá	701	Sololá	3	Barraneche	9	Septiembre	2023-04-09T00:00:00	2024-11-06T07:00:00	2	Temperatura media	11.3
47290	7	Sololá	701	Sololá	3	Barraneche	9	Septiembre	2023-04-09T00:00:00	2024-11-06T07:00:00	4	Temperatura máxima	11.3
47291	7	Sololá	701	Sololá	3	Barraneche	9	Septiembre	2023-04-09T00:00:00	2024-11-06T07:00:00	3	Temperatura mínima	9.8
47292	7	Sololá	701	Sololá	3	Barraneche	9	Septiembre	2023-04-09T00:00:00	2024-11-06T07:00:00	5	Humedad	77
47293	7	Sololá	701	Sololá	3	Barraneche	9	Septiembre	2023-04-09T00:00:00	2024-11-06T07:00:00	6	Velocidad del viento	4.8
47294	7	Sololá	701	Sololá	3	Barraneche	9	Septiembre	2023-04-09T00:00:00	2024-11-06T07:00:00	7	Dirección del viento	4.83
47295	7	Sololá	701	Sololá	3	Barraneche	9	Septiembre	2023-04-09T00:00:00	2024-11-06T07:00:00	1	Precipitación	0
47296	7	Sololá	701	Sololá	3	Barraneche	9	Septiembre	2023-04-09T00:00:00	2024-11-06T07:00:00	8	Radiación solar	66
47297	7	Sololá	701	Sololá	3	Barraneche	9	Septiembre	2023-04-09T00:00:00	2024-11-06T08:00:00	2	Temperatura media	15.7
47298	7	Sololá	701	Sololá	3	Barraneche	9	Septiembre	2023-04-09T00:00:00	2024-11-06T08:00:00	4	Temperatura máxima	15.7
47299	7	Sololá	701	Sololá	3	Barraneche	9	Septiembre	2023-04-09T00:00:00	2024-11-06T08:00:00	3	Temperatura mínima	11.4
47300	7	Sololá	701	Sololá	3	Barraneche	9	Septiembre	2023-04-09T00:00:00	2024-11-06T08:00:00	5	Humedad	65
47301	7	Sololá	701	Sololá	3	Barraneche	9	Septiembre	2023-04-09T00:00:00	2024-11-06T08:00:00	6	Velocidad del viento	3.2
47302	7	Sololá	701	Sololá	3	Barraneche	9	Septiembre	2023-04-09T00:00:00	2024-11-06T08:00:00	7	Dirección del viento	3.22
47303	7	Sololá	701	Sololá	3	Barraneche	9	Septiembre	2023-04-09T00:00:00	2024-11-06T08:00:00	1	Precipitación	0
47304	7	Sololá	701	Sololá	3	Barraneche	9	Septiembre	2023-04-09T00:00:00	2024-11-06T08:00:00	8	Radiación solar	322
47305	7	Sololá	701	Sololá	3	Barraneche	9	Septiembre	2023-04-09T00:00:00	2024-11-06T09:00:00	2	Temperatura media	17.4
47306	7	Sololá	701	Sololá	3	Barraneche	9	Septiembre	2023-04-09T00:00:00	2024-11-06T09:00:00	4	Temperatura máxima	17.4
47307	7	Sololá	701	Sololá	3	Barraneche	9	Septiembre	2023-04-09T00:00:00	2024-11-06T09:00:00	3	Temperatura mínima	15.7
47308	7	Sololá	701	Sololá	3	Barraneche	9	Septiembre	2023-04-09T00:00:00	2024-11-06T09:00:00	5	Humedad	57
47309	7	Sololá	701	Sololá	3	Barraneche	9	Septiembre	2023-04-09T00:00:00	2024-11-06T09:00:00	6	Velocidad del viento	11.3
47310	7	Sololá	701	Sololá	3	Barraneche	9	Septiembre	2023-04-09T00:00:00	2024-11-06T09:00:00	7	Dirección del viento	11.27
47311	7	Sololá	701	Sololá	3	Barraneche	9	Septiembre	2023-04-09T00:00:00	2024-11-06T09:00:00	1	Precipitación	0
47312	7	Sololá	701	Sololá	3	Barraneche	9	Septiembre	2023-04-09T00:00:00	2024-11-06T09:00:00	8	Radiación solar	597
47313	7	Sololá	701	Sololá	3	Barraneche	9	Septiembre	2023-04-09T00:00:00	2024-11-06T10:00:00	2	Temperatura media	19.1
47314	7	Sololá	701	Sololá	3	Barraneche	9	Septiembre	2023-04-09T00:00:00	2024-11-06T10:00:00	4	Temperatura máxima	19.1
47315	7	Sololá	701	Sololá	3	Barraneche	9	Septiembre	2023-04-09T00:00:00	2024-11-06T10:00:00	3	Temperatura mínima	17.4
47316	7	Sololá	701	Sololá	3	Barraneche	9	Septiembre	2023-04-09T00:00:00	2024-11-06T10:00:00	5	Humedad	57
47317	7	Sololá	701	Sololá	3	Barraneche	9	Septiembre	2023-04-09T00:00:00	2024-11-06T10:00:00	6	Velocidad del viento	8
47318	7	Sololá	701	Sololá	3	Barraneche	9	Septiembre	2023-04-09T00:00:00	2024-11-06T10:00:00	7	Dirección del viento	8.05
47319	7	Sololá	701	Sololá	3	Barraneche	9	Septiembre	2023-04-09T00:00:00	2024-11-06T10:00:00	1	Precipitación	0.2
47320	7	Sololá	701	Sololá	3	Barraneche	9	Septiembre	2023-04-09T00:00:00	2024-11-06T10:00:00	8	Radiación solar	783
47321	7	Sololá	701	Sololá	3	Barraneche	9	Septiembre	2023-04-09T00:00:00	2024-11-06T11:00:00	2	Temperatura media	19.1
47322	7	Sololá	701	Sololá	3	Barraneche	9	Septiembre	2023-04-09T00:00:00	2024-11-06T11:00:00	4	Temperatura máxima	19.1
47323	7	Sololá	701	Sololá	3	Barraneche	9	Septiembre	2023-04-09T00:00:00	2024-11-06T11:00:00	3	Temperatura mínima	18.2
47324	7	Sololá	701	Sololá	3	Barraneche	9	Septiembre	2023-04-09T00:00:00	2024-11-06T11:00:00	5	Humedad	54
47325	7	Sololá	701	Sololá	3	Barraneche	9	Septiembre	2023-04-09T00:00:00	2024-11-06T11:00:00	6	Velocidad del viento	12.9
47326	7	Sololá	701	Sololá	3	Barraneche	9	Septiembre	2023-04-09T00:00:00	2024-11-06T11:00:00	7	Dirección del viento	12.87
47327	7	Sololá	701	Sololá	3	Barraneche	9	Septiembre	2023-04-09T00:00:00	2024-11-06T11:00:00	1	Precipitación	0
47328	7	Sololá	701	Sololá	3	Barraneche	9	Septiembre	2023-04-09T00:00:00	2024-11-06T11:00:00	8	Radiación solar	979
47329	7	Sololá	701	Sololá	3	Barraneche	9	Septiembre	2023-04-09T00:00:00	2024-11-06T12:00:00	2	Temperatura media	19.6
47330	7	Sololá	701	Sololá	3	Barraneche	9	Septiembre	2023-04-09T00:00:00	2024-11-06T12:00:00	4	Temperatura máxima	20.1
47331	7	Sololá	701	Sololá	3	Barraneche	9	Septiembre	2023-04-09T00:00:00	2024-11-06T12:00:00	3	Temperatura mínima	19.1
47332	7	Sololá	701	Sololá	3	Barraneche	9	Septiembre	2023-04-09T00:00:00	2024-11-06T12:00:00	5	Humedad	52
47333	7	Sololá	701	Sololá	3	Barraneche	9	Septiembre	2023-04-09T00:00:00	2024-11-06T12:00:00	6	Velocidad del viento	11.3
47334	7	Sololá	701	Sololá	3	Barraneche	9	Septiembre	2023-04-09T00:00:00	2024-11-06T12:00:00	7	Dirección del viento	11.27
47335	7	Sololá	701	Sololá	3	Barraneche	9	Septiembre	2023-04-09T00:00:00	2024-11-06T12:00:00	1	Precipitación	0
47336	7	Sololá	701	Sololá	3	Barraneche	9	Septiembre	2023-04-09T00:00:00	2024-11-06T12:00:00	8	Radiación solar	955
47337	7	Sololá	701	Sololá	3	Barraneche	9	Septiembre	2023-04-09T00:00:00	2024-11-06T13:00:00	2	Temperatura media	20
47338	7	Sololá	701	Sololá	3	Barraneche	9	Septiembre	2023-04-09T00:00:00	2024-11-06T13:00:00	4	Temperatura máxima	20.1
47339	7	Sololá	701	Sololá	3	Barraneche	9	Septiembre	2023-04-09T00:00:00	2024-11-06T13:00:00	3	Temperatura mínima	19.1
47340	7	Sololá	701	Sololá	3	Barraneche	9	Septiembre	2023-04-09T00:00:00	2024-11-06T13:00:00	5	Humedad	51
47341	7	Sololá	701	Sololá	3	Barraneche	9	Septiembre	2023-04-09T00:00:00	2024-11-06T13:00:00	6	Velocidad del viento	11.3
47342	7	Sololá	701	Sololá	3	Barraneche	9	Septiembre	2023-04-09T00:00:00	2024-11-06T13:00:00	7	Dirección del viento	11.27
47343	7	Sololá	701	Sololá	3	Barraneche	9	Septiembre	2023-04-09T00:00:00	2024-11-06T13:00:00	1	Precipitación	0
47344	7	Sololá	701	Sololá	3	Barraneche	9	Septiembre	2023-04-09T00:00:00	2024-11-06T13:00:00	8	Radiación solar	687
47345	7	Sololá	701	Sololá	3	Barraneche	9	Septiembre	2023-04-09T00:00:00	2024-11-06T14:00:00	2	Temperatura media	17.7
47346	7	Sololá	701	Sololá	3	Barraneche	9	Septiembre	2023-04-09T00:00:00	2024-11-06T14:00:00	4	Temperatura máxima	20.5
47347	7	Sololá	701	Sololá	3	Barraneche	9	Septiembre	2023-04-09T00:00:00	2024-11-06T14:00:00	3	Temperatura mínima	17.7
47348	7	Sololá	701	Sololá	3	Barraneche	9	Septiembre	2023-04-09T00:00:00	2024-11-06T14:00:00	5	Humedad	69
47349	7	Sololá	701	Sololá	3	Barraneche	9	Septiembre	2023-04-09T00:00:00	2024-11-06T14:00:00	6	Velocidad del viento	12.9
47350	7	Sololá	701	Sololá	3	Barraneche	9	Septiembre	2023-04-09T00:00:00	2024-11-06T14:00:00	7	Dirección del viento	12.87
47351	7	Sololá	701	Sololá	3	Barraneche	9	Septiembre	2023-04-09T00:00:00	2024-11-06T14:00:00	1	Precipitación	0
47352	7	Sololá	701	Sololá	3	Barraneche	9	Septiembre	2023-04-09T00:00:00	2024-11-06T14:00:00	8	Radiación solar	648
47353	7	Sololá	701	Sololá	3	Barraneche	9	Septiembre	2023-04-09T00:00:00	2024-11-06T15:00:00	2	Temperatura media	16.4
47354	7	Sololá	701	Sololá	3	Barraneche	9	Septiembre	2023-04-09T00:00:00	2024-11-06T15:00:00	4	Temperatura máxima	17.7
47355	7	Sololá	701	Sololá	3	Barraneche	9	Septiembre	2023-04-09T00:00:00	2024-11-06T15:00:00	3	Temperatura mínima	16.2
47356	7	Sololá	701	Sololá	3	Barraneche	9	Septiembre	2023-04-09T00:00:00	2024-11-06T15:00:00	5	Humedad	69
47357	7	Sololá	701	Sololá	3	Barraneche	9	Septiembre	2023-04-09T00:00:00	2024-11-06T15:00:00	6	Velocidad del viento	12.9
47358	7	Sololá	701	Sololá	3	Barraneche	9	Septiembre	2023-04-09T00:00:00	2024-11-06T15:00:00	7	Dirección del viento	12.87
47359	7	Sololá	701	Sololá	3	Barraneche	9	Septiembre	2023-04-09T00:00:00	2024-11-06T15:00:00	1	Precipitación	0
47360	7	Sololá	701	Sololá	3	Barraneche	9	Septiembre	2023-04-09T00:00:00	2024-11-06T15:00:00	8	Radiación solar	281
47361	7	Sololá	701	Sololá	3	Barraneche	9	Septiembre	2023-04-09T00:00:00	2024-11-06T16:00:00	2	Temperatura media	14.8
47362	7	Sololá	701	Sololá	3	Barraneche	9	Septiembre	2023-04-09T00:00:00	2024-11-06T16:00:00	4	Temperatura máxima	16.8
47363	7	Sololá	701	Sololá	3	Barraneche	9	Septiembre	2023-04-09T00:00:00	2024-11-06T16:00:00	3	Temperatura mínima	14.8
47364	7	Sololá	701	Sololá	3	Barraneche	9	Septiembre	2023-04-09T00:00:00	2024-11-06T16:00:00	5	Humedad	83
47365	7	Sololá	701	Sololá	3	Barraneche	9	Septiembre	2023-04-09T00:00:00	2024-11-06T16:00:00	6	Velocidad del viento	11.3
47366	7	Sololá	701	Sololá	3	Barraneche	9	Septiembre	2023-04-09T00:00:00	2024-11-06T16:00:00	7	Dirección del viento	11.27
47367	7	Sololá	701	Sololá	3	Barraneche	9	Septiembre	2023-04-09T00:00:00	2024-11-06T16:00:00	1	Precipitación	1.4
47368	7	Sololá	701	Sololá	3	Barraneche	9	Septiembre	2023-04-09T00:00:00	2024-11-06T16:00:00	8	Radiación solar	93
47369	7	Sololá	701	Sololá	3	Barraneche	9	Septiembre	2023-04-09T00:00:00	2024-11-06T17:00:00	2	Temperatura media	14.2
47370	7	Sololá	701	Sololá	3	Barraneche	9	Septiembre	2023-04-09T00:00:00	2024-11-06T17:00:00	4	Temperatura máxima	14.8
47371	7	Sololá	701	Sololá	3	Barraneche	9	Septiembre	2023-04-09T00:00:00	2024-11-06T17:00:00	3	Temperatura mínima	14.2
47372	7	Sololá	701	Sololá	3	Barraneche	9	Septiembre	2023-04-09T00:00:00	2024-11-06T17:00:00	5	Humedad	85
47373	7	Sololá	701	Sololá	3	Barraneche	9	Septiembre	2023-04-09T00:00:00	2024-11-06T17:00:00	6	Velocidad del viento	4.8
47374	7	Sololá	701	Sololá	3	Barraneche	9	Septiembre	2023-04-09T00:00:00	2024-11-06T17:00:00	7	Dirección del viento	4.83
47375	7	Sololá	701	Sololá	3	Barraneche	9	Septiembre	2023-04-09T00:00:00	2024-11-06T17:00:00	1	Precipitación	3.2
47376	7	Sololá	701	Sololá	3	Barraneche	9	Septiembre	2023-04-09T00:00:00	2024-11-06T17:00:00	8	Radiación solar	30
47377	7	Sololá	701	Sololá	3	Barraneche	9	Septiembre	2023-04-09T00:00:00	2024-11-06T18:00:00	2	Temperatura media	13.7
47378	7	Sololá	701	Sololá	3	Barraneche	9	Septiembre	2023-04-09T00:00:00	2024-11-06T18:00:00	4	Temperatura máxima	14.3
47379	7	Sololá	701	Sololá	3	Barraneche	9	Septiembre	2023-04-09T00:00:00	2024-11-06T18:00:00	3	Temperatura mínima	13.7
47380	7	Sololá	701	Sololá	3	Barraneche	9	Septiembre	2023-04-09T00:00:00	2024-11-06T18:00:00	5	Humedad	86
47381	7	Sololá	701	Sololá	3	Barraneche	9	Septiembre	2023-04-09T00:00:00	2024-11-06T18:00:00	6	Velocidad del viento	4.8
47382	7	Sololá	701	Sololá	3	Barraneche	9	Septiembre	2023-04-09T00:00:00	2024-11-06T18:00:00	7	Dirección del viento	4.83
47383	7	Sololá	701	Sololá	3	Barraneche	9	Septiembre	2023-04-09T00:00:00	2024-11-06T18:00:00	1	Precipitación	1.8
47384	7	Sololá	701	Sololá	3	Barraneche	9	Septiembre	2023-04-09T00:00:00	2024-11-06T18:00:00	8	Radiación solar	17
47385	7	Sololá	701	Sololá	3	Barraneche	9	Septiembre	2023-04-09T00:00:00	2024-11-06T19:00:00	2	Temperatura media	13.4
47386	7	Sololá	701	Sololá	3	Barraneche	9	Septiembre	2023-04-09T00:00:00	2024-11-06T19:00:00	4	Temperatura máxima	13.8
47387	7	Sololá	701	Sololá	3	Barraneche	9	Septiembre	2023-04-09T00:00:00	2024-11-06T19:00:00	3	Temperatura mínima	13.4
47388	7	Sololá	701	Sololá	3	Barraneche	9	Septiembre	2023-04-09T00:00:00	2024-11-06T19:00:00	5	Humedad	85
47389	7	Sololá	701	Sololá	3	Barraneche	9	Septiembre	2023-04-09T00:00:00	2024-11-06T19:00:00	6	Velocidad del viento	1.6
47390	7	Sololá	701	Sololá	3	Barraneche	9	Septiembre	2023-04-09T00:00:00	2024-11-06T19:00:00	7	Dirección del viento	1.61
47391	7	Sololá	701	Sololá	3	Barraneche	9	Septiembre	2023-04-09T00:00:00	2024-11-06T19:00:00	1	Precipitación	1.2
47392	7	Sololá	701	Sololá	3	Barraneche	9	Septiembre	2023-04-09T00:00:00	2024-11-06T19:00:00	8	Radiación solar	0
47393	7	Sololá	701	Sololá	3	Barraneche	9	Septiembre	2023-04-09T00:00:00	2024-11-06T20:00:00	2	Temperatura media	13.3
47394	7	Sololá	701	Sololá	3	Barraneche	9	Septiembre	2023-04-09T00:00:00	2024-11-06T20:00:00	4	Temperatura máxima	13.4
47395	7	Sololá	701	Sololá	3	Barraneche	9	Septiembre	2023-04-09T00:00:00	2024-11-06T20:00:00	3	Temperatura mínima	13.1
47396	7	Sololá	701	Sololá	3	Barraneche	9	Septiembre	2023-04-09T00:00:00	2024-11-06T20:00:00	5	Humedad	85
47397	7	Sololá	701	Sololá	3	Barraneche	9	Septiembre	2023-04-09T00:00:00	2024-11-06T20:00:00	6	Velocidad del viento	1.6
47398	7	Sololá	701	Sololá	3	Barraneche	9	Septiembre	2023-04-09T00:00:00	2024-11-06T20:00:00	7	Dirección del viento	1.61
47399	7	Sololá	701	Sololá	3	Barraneche	9	Septiembre	2023-04-09T00:00:00	2024-11-06T20:00:00	1	Precipitación	0.2
47400	7	Sololá	701	Sololá	3	Barraneche	9	Septiembre	2023-04-09T00:00:00	2024-11-06T20:00:00	8	Radiación solar	0
47401	7	Sololá	701	Sololá	3	Barraneche	9	Septiembre	2023-04-09T00:00:00	2024-11-06T21:00:00	2	Temperatura media	13.4
47402	7	Sololá	701	Sololá	3	Barraneche	9	Septiembre	2023-04-09T00:00:00	2024-11-06T21:00:00	4	Temperatura máxima	13.4
47403	7	Sololá	701	Sololá	3	Barraneche	9	Septiembre	2023-04-09T00:00:00	2024-11-06T21:00:00	3	Temperatura mínima	13.2
47404	7	Sololá	701	Sololá	3	Barraneche	9	Septiembre	2023-04-09T00:00:00	2024-11-06T21:00:00	5	Humedad	85
47405	7	Sololá	701	Sololá	3	Barraneche	9	Septiembre	2023-04-09T00:00:00	2024-11-06T21:00:00	6	Velocidad del viento	1.6
47406	7	Sololá	701	Sololá	3	Barraneche	9	Septiembre	2023-04-09T00:00:00	2024-11-06T21:00:00	7	Dirección del viento	1.61
47407	7	Sololá	701	Sololá	3	Barraneche	9	Septiembre	2023-04-09T00:00:00	2024-11-06T21:00:00	1	Precipitación	0
47408	7	Sololá	701	Sololá	3	Barraneche	9	Septiembre	2023-04-09T00:00:00	2024-11-06T21:00:00	8	Radiación solar	0
47409	7	Sololá	701	Sololá	3	Barraneche	9	Septiembre	2023-04-09T00:00:00	2024-11-06T22:00:00	2	Temperatura media	13.1
47410	7	Sololá	701	Sololá	3	Barraneche	9	Septiembre	2023-04-09T00:00:00	2024-11-06T22:00:00	4	Temperatura máxima	13.4
47411	7	Sololá	701	Sololá	3	Barraneche	9	Septiembre	2023-04-09T00:00:00	2024-11-06T22:00:00	3	Temperatura mínima	13.1
47412	7	Sololá	701	Sololá	3	Barraneche	9	Septiembre	2023-04-09T00:00:00	2024-11-06T22:00:00	5	Humedad	85
47413	7	Sololá	701	Sololá	3	Barraneche	9	Septiembre	2023-04-09T00:00:00	2024-11-06T22:00:00	6	Velocidad del viento	1.6
47414	7	Sololá	701	Sololá	3	Barraneche	9	Septiembre	2023-04-09T00:00:00	2024-11-06T22:00:00	7	Dirección del viento	1.61
47415	7	Sololá	701	Sololá	3	Barraneche	9	Septiembre	2023-04-09T00:00:00	2024-11-06T22:00:00	1	Precipitación	0.2
47416	7	Sololá	701	Sololá	3	Barraneche	9	Septiembre	2023-04-09T00:00:00	2024-11-06T22:00:00	8	Radiación solar	0
47417	7	Sololá	701	Sololá	3	Barraneche	9	Septiembre	2023-04-09T00:00:00	2024-11-06T23:00:00	2	Temperatura media	13.1
47418	7	Sololá	701	Sololá	3	Barraneche	9	Septiembre	2023-04-09T00:00:00	2024-11-06T23:00:00	4	Temperatura máxima	13.1
47419	7	Sololá	701	Sololá	3	Barraneche	9	Septiembre	2023-04-09T00:00:00	2024-11-06T23:00:00	3	Temperatura mínima	12.9
47420	7	Sololá	701	Sololá	3	Barraneche	9	Septiembre	2023-04-09T00:00:00	2024-11-06T23:00:00	5	Humedad	85
47421	7	Sololá	701	Sololá	3	Barraneche	9	Septiembre	2023-04-09T00:00:00	2024-11-06T23:00:00	6	Velocidad del viento	1.6
47422	7	Sololá	701	Sololá	3	Barraneche	9	Septiembre	2023-04-09T00:00:00	2024-11-06T23:00:00	7	Dirección del viento	1.61
47423	7	Sololá	701	Sololá	3	Barraneche	9	Septiembre	2023-04-09T00:00:00	2024-11-06T23:00:00	1	Precipitación	0.2
47424	7	Sololá	701	Sololá	3	Barraneche	9	Septiembre	2023-04-09T00:00:00	2024-11-06T23:00:00	8	Radiación solar	0
47425	7	Sololá	701	Sololá	3	Barraneche	9	Septiembre	2023-05-09T00:00:00	2024-11-06T00:00:00	2	Temperatura media	12.9
47426	7	Sololá	701	Sololá	3	Barraneche	9	Septiembre	2023-05-09T00:00:00	2024-11-06T00:00:00	4	Temperatura máxima	13.1
47427	7	Sololá	701	Sololá	3	Barraneche	9	Septiembre	2023-05-09T00:00:00	2024-11-06T00:00:00	3	Temperatura mínima	12.8
47428	7	Sololá	701	Sololá	3	Barraneche	9	Septiembre	2023-05-09T00:00:00	2024-11-06T00:00:00	5	Humedad	85
47429	7	Sololá	701	Sololá	3	Barraneche	9	Septiembre	2023-05-09T00:00:00	2024-11-06T00:00:00	6	Velocidad del viento	1.6
47430	7	Sololá	701	Sololá	3	Barraneche	9	Septiembre	2023-05-09T00:00:00	2024-11-06T00:00:00	7	Dirección del viento	1.61
47431	7	Sololá	701	Sololá	3	Barraneche	9	Septiembre	2023-05-09T00:00:00	2024-11-06T00:00:00	1	Precipitación	0
47432	7	Sololá	701	Sololá	3	Barraneche	9	Septiembre	2023-05-09T00:00:00	2024-11-06T00:00:00	8	Radiación solar	0
47433	7	Sololá	701	Sololá	3	Barraneche	9	Septiembre	2023-05-09T00:00:00	2024-11-06T01:00:00	2	Temperatura media	12.5
47434	7	Sololá	701	Sololá	3	Barraneche	9	Septiembre	2023-05-09T00:00:00	2024-11-06T01:00:00	4	Temperatura máxima	12.9
47435	7	Sololá	701	Sololá	3	Barraneche	9	Septiembre	2023-05-09T00:00:00	2024-11-06T01:00:00	3	Temperatura mínima	12.4
47436	7	Sololá	701	Sololá	3	Barraneche	9	Septiembre	2023-05-09T00:00:00	2024-11-06T01:00:00	5	Humedad	84
47437	7	Sololá	701	Sololá	3	Barraneche	9	Septiembre	2023-05-09T00:00:00	2024-11-06T01:00:00	6	Velocidad del viento	1.6
47438	7	Sololá	701	Sololá	3	Barraneche	9	Septiembre	2023-05-09T00:00:00	2024-11-06T01:00:00	7	Dirección del viento	1.61
47439	7	Sololá	701	Sololá	3	Barraneche	9	Septiembre	2023-05-09T00:00:00	2024-11-06T01:00:00	1	Precipitación	0
47440	7	Sololá	701	Sololá	3	Barraneche	9	Septiembre	2023-05-09T00:00:00	2024-11-06T01:00:00	8	Radiación solar	0
47441	7	Sololá	701	Sololá	3	Barraneche	9	Septiembre	2023-05-09T00:00:00	2024-11-06T02:00:00	2	Temperatura media	12.3
47442	7	Sololá	701	Sololá	3	Barraneche	9	Septiembre	2023-05-09T00:00:00	2024-11-06T02:00:00	4	Temperatura máxima	12.6
47443	7	Sololá	701	Sololá	3	Barraneche	9	Septiembre	2023-05-09T00:00:00	2024-11-06T02:00:00	3	Temperatura mínima	12.3
47444	7	Sololá	701	Sololá	3	Barraneche	9	Septiembre	2023-05-09T00:00:00	2024-11-06T02:00:00	5	Humedad	84
47445	7	Sololá	701	Sololá	3	Barraneche	9	Septiembre	2023-05-09T00:00:00	2024-11-06T02:00:00	6	Velocidad del viento	3.2
47446	7	Sololá	701	Sololá	3	Barraneche	9	Septiembre	2023-05-09T00:00:00	2024-11-06T02:00:00	7	Dirección del viento	3.22
47447	7	Sololá	701	Sololá	3	Barraneche	9	Septiembre	2023-05-09T00:00:00	2024-11-06T02:00:00	1	Precipitación	0
47448	7	Sololá	701	Sololá	3	Barraneche	9	Septiembre	2023-05-09T00:00:00	2024-11-06T02:00:00	8	Radiación solar	0
47449	7	Sololá	701	Sololá	3	Barraneche	9	Septiembre	2023-05-09T00:00:00	2024-11-06T03:00:00	2	Temperatura media	11.6
47450	7	Sololá	701	Sololá	3	Barraneche	9	Septiembre	2023-05-09T00:00:00	2024-11-06T03:00:00	4	Temperatura máxima	12.3
47451	7	Sololá	701	Sololá	3	Barraneche	9	Septiembre	2023-05-09T00:00:00	2024-11-06T03:00:00	3	Temperatura mínima	11.6
47452	7	Sololá	701	Sololá	3	Barraneche	9	Septiembre	2023-05-09T00:00:00	2024-11-06T03:00:00	5	Humedad	83
47453	7	Sololá	701	Sololá	3	Barraneche	9	Septiembre	2023-05-09T00:00:00	2024-11-06T03:00:00	6	Velocidad del viento	4.8
47454	7	Sololá	701	Sololá	3	Barraneche	9	Septiembre	2023-05-09T00:00:00	2024-11-06T03:00:00	7	Dirección del viento	4.83
47455	7	Sololá	701	Sololá	3	Barraneche	9	Septiembre	2023-05-09T00:00:00	2024-11-06T03:00:00	1	Precipitación	0
47456	7	Sololá	701	Sololá	3	Barraneche	9	Septiembre	2023-05-09T00:00:00	2024-11-06T03:00:00	8	Radiación solar	0
47457	7	Sololá	701	Sololá	3	Barraneche	9	Septiembre	2023-05-09T00:00:00	2024-11-06T04:00:00	2	Temperatura media	11.6
47458	7	Sololá	701	Sololá	3	Barraneche	9	Septiembre	2023-05-09T00:00:00	2024-11-06T04:00:00	4	Temperatura máxima	11.7
47459	7	Sololá	701	Sololá	3	Barraneche	9	Septiembre	2023-05-09T00:00:00	2024-11-06T04:00:00	3	Temperatura mínima	11.3
47460	7	Sololá	701	Sololá	3	Barraneche	9	Septiembre	2023-05-09T00:00:00	2024-11-06T04:00:00	5	Humedad	80
47461	7	Sololá	701	Sololá	3	Barraneche	9	Septiembre	2023-05-09T00:00:00	2024-11-06T04:00:00	6	Velocidad del viento	6.4
47462	7	Sololá	701	Sololá	3	Barraneche	9	Septiembre	2023-05-09T00:00:00	2024-11-06T04:00:00	7	Dirección del viento	6.44
47463	7	Sololá	701	Sololá	3	Barraneche	9	Septiembre	2023-05-09T00:00:00	2024-11-06T04:00:00	1	Precipitación	0
47464	7	Sololá	701	Sololá	3	Barraneche	9	Septiembre	2023-05-09T00:00:00	2024-11-06T04:00:00	8	Radiación solar	0
47465	7	Sololá	701	Sololá	3	Barraneche	9	Septiembre	2023-05-09T00:00:00	2024-11-06T05:00:00	2	Temperatura media	10.9
47466	7	Sololá	701	Sololá	3	Barraneche	9	Septiembre	2023-05-09T00:00:00	2024-11-06T05:00:00	4	Temperatura máxima	11.6
47467	7	Sololá	701	Sololá	3	Barraneche	9	Septiembre	2023-05-09T00:00:00	2024-11-06T05:00:00	3	Temperatura mínima	10.8
47468	7	Sololá	701	Sololá	3	Barraneche	9	Septiembre	2023-05-09T00:00:00	2024-11-06T05:00:00	5	Humedad	79
47469	7	Sololá	701	Sololá	3	Barraneche	9	Septiembre	2023-05-09T00:00:00	2024-11-06T05:00:00	6	Velocidad del viento	8
47470	7	Sololá	701	Sololá	3	Barraneche	9	Septiembre	2023-05-09T00:00:00	2024-11-06T05:00:00	7	Dirección del viento	8.05
47471	7	Sololá	701	Sololá	3	Barraneche	9	Septiembre	2023-05-09T00:00:00	2024-11-06T05:00:00	1	Precipitación	0
47472	7	Sololá	701	Sololá	3	Barraneche	9	Septiembre	2023-05-09T00:00:00	2024-11-06T05:00:00	8	Radiación solar	0
47473	7	Sololá	701	Sololá	3	Barraneche	9	Septiembre	2023-05-09T00:00:00	2024-11-06T06:00:00	2	Temperatura media	10.8
47474	7	Sololá	701	Sololá	3	Barraneche	9	Septiembre	2023-05-09T00:00:00	2024-11-06T06:00:00	4	Temperatura máxima	11.2
47475	7	Sololá	701	Sololá	3	Barraneche	9	Septiembre	2023-05-09T00:00:00	2024-11-06T06:00:00	3	Temperatura mínima	10.8
47476	7	Sololá	701	Sololá	3	Barraneche	9	Septiembre	2023-05-09T00:00:00	2024-11-06T06:00:00	5	Humedad	78
47477	7	Sololá	701	Sololá	3	Barraneche	9	Septiembre	2023-05-09T00:00:00	2024-11-06T06:00:00	6	Velocidad del viento	8
47478	7	Sololá	701	Sololá	3	Barraneche	9	Septiembre	2023-05-09T00:00:00	2024-11-06T06:00:00	7	Dirección del viento	8.05
47479	7	Sololá	701	Sololá	3	Barraneche	9	Septiembre	2023-05-09T00:00:00	2024-11-06T06:00:00	1	Precipitación	0
47480	7	Sololá	701	Sololá	3	Barraneche	9	Septiembre	2023-05-09T00:00:00	2024-11-06T06:00:00	8	Radiación solar	1
47481	7	Sololá	701	Sololá	3	Barraneche	9	Septiembre	2023-05-09T00:00:00	2024-11-06T07:00:00	2	Temperatura media	12.3
47482	7	Sololá	701	Sololá	3	Barraneche	9	Septiembre	2023-05-09T00:00:00	2024-11-06T07:00:00	4	Temperatura máxima	12.3
47483	7	Sololá	701	Sololá	3	Barraneche	9	Septiembre	2023-05-09T00:00:00	2024-11-06T07:00:00	3	Temperatura mínima	10.4
47484	7	Sololá	701	Sololá	3	Barraneche	9	Septiembre	2023-05-09T00:00:00	2024-11-06T07:00:00	5	Humedad	78
47485	7	Sololá	701	Sololá	3	Barraneche	9	Septiembre	2023-05-09T00:00:00	2024-11-06T07:00:00	6	Velocidad del viento	6.4
47486	7	Sololá	701	Sololá	3	Barraneche	9	Septiembre	2023-05-09T00:00:00	2024-11-06T07:00:00	7	Dirección del viento	6.44
47487	7	Sololá	701	Sololá	3	Barraneche	9	Septiembre	2023-05-09T00:00:00	2024-11-06T07:00:00	1	Precipitación	0
47488	7	Sololá	701	Sololá	3	Barraneche	9	Septiembre	2023-05-09T00:00:00	2024-11-06T07:00:00	8	Radiación solar	61
47489	7	Sololá	701	Sololá	3	Barraneche	9	Septiembre	2023-05-09T00:00:00	2024-11-06T08:00:00	2	Temperatura media	16.4
47490	7	Sololá	701	Sololá	3	Barraneche	9	Septiembre	2023-05-09T00:00:00	2024-11-06T08:00:00	4	Temperatura máxima	16.4
47491	7	Sololá	701	Sololá	3	Barraneche	9	Septiembre	2023-05-09T00:00:00	2024-11-06T08:00:00	3	Temperatura mínima	12.3
47492	7	Sololá	701	Sololá	3	Barraneche	9	Septiembre	2023-05-09T00:00:00	2024-11-06T08:00:00	5	Humedad	70
47493	7	Sololá	701	Sololá	3	Barraneche	9	Septiembre	2023-05-09T00:00:00	2024-11-06T08:00:00	6	Velocidad del viento	3.2
47494	7	Sololá	701	Sololá	3	Barraneche	9	Septiembre	2023-05-09T00:00:00	2024-11-06T08:00:00	7	Dirección del viento	3.22
47495	7	Sololá	701	Sololá	3	Barraneche	9	Septiembre	2023-05-09T00:00:00	2024-11-06T08:00:00	1	Precipitación	0
47496	7	Sololá	701	Sololá	3	Barraneche	9	Septiembre	2023-05-09T00:00:00	2024-11-06T08:00:00	8	Radiación solar	373
47497	7	Sololá	701	Sololá	3	Barraneche	9	Septiembre	2023-05-09T00:00:00	2024-11-06T09:00:00	2	Temperatura media	17.7
47498	7	Sololá	701	Sololá	3	Barraneche	9	Septiembre	2023-05-09T00:00:00	2024-11-06T09:00:00	4	Temperatura máxima	17.7
47499	7	Sololá	701	Sololá	3	Barraneche	9	Septiembre	2023-05-09T00:00:00	2024-11-06T09:00:00	3	Temperatura mínima	16.4
47500	7	Sololá	701	Sololá	3	Barraneche	9	Septiembre	2023-05-09T00:00:00	2024-11-06T09:00:00	5	Humedad	64
47501	7	Sololá	701	Sololá	3	Barraneche	9	Septiembre	2023-05-09T00:00:00	2024-11-06T09:00:00	6	Velocidad del viento	4.8
47502	7	Sololá	701	Sololá	3	Barraneche	9	Septiembre	2023-05-09T00:00:00	2024-11-06T09:00:00	7	Dirección del viento	4.83
47503	7	Sololá	701	Sololá	3	Barraneche	9	Septiembre	2023-05-09T00:00:00	2024-11-06T09:00:00	1	Precipitación	0
47504	7	Sololá	701	Sololá	3	Barraneche	9	Septiembre	2023-05-09T00:00:00	2024-11-06T09:00:00	8	Radiación solar	580
47505	7	Sololá	701	Sololá	3	Barraneche	9	Septiembre	2023-05-09T00:00:00	2024-11-06T10:00:00	2	Temperatura media	17.8
47506	7	Sololá	701	Sololá	3	Barraneche	9	Septiembre	2023-05-09T00:00:00	2024-11-06T10:00:00	4	Temperatura máxima	17.9
47507	7	Sololá	701	Sololá	3	Barraneche	9	Septiembre	2023-05-09T00:00:00	2024-11-06T10:00:00	3	Temperatura mínima	17.5
47508	7	Sololá	701	Sololá	3	Barraneche	9	Septiembre	2023-05-09T00:00:00	2024-11-06T10:00:00	5	Humedad	67
47509	7	Sololá	701	Sololá	3	Barraneche	9	Septiembre	2023-05-09T00:00:00	2024-11-06T10:00:00	6	Velocidad del viento	9.7
47510	7	Sololá	701	Sololá	3	Barraneche	9	Septiembre	2023-05-09T00:00:00	2024-11-06T10:00:00	7	Dirección del viento	9.66
47511	7	Sololá	701	Sololá	3	Barraneche	9	Septiembre	2023-05-09T00:00:00	2024-11-06T10:00:00	1	Precipitación	0
47512	7	Sololá	701	Sololá	3	Barraneche	9	Septiembre	2023-05-09T00:00:00	2024-11-06T10:00:00	8	Radiación solar	809
47513	7	Sololá	701	Sololá	3	Barraneche	9	Septiembre	2023-05-09T00:00:00	2024-11-06T11:00:00	2	Temperatura media	18.5
47514	7	Sololá	701	Sololá	3	Barraneche	9	Septiembre	2023-05-09T00:00:00	2024-11-06T11:00:00	4	Temperatura máxima	18.6
47515	7	Sololá	701	Sololá	3	Barraneche	9	Septiembre	2023-05-09T00:00:00	2024-11-06T11:00:00	3	Temperatura mínima	17.4
47516	7	Sololá	701	Sololá	3	Barraneche	9	Septiembre	2023-05-09T00:00:00	2024-11-06T11:00:00	5	Humedad	65
47517	7	Sololá	701	Sololá	3	Barraneche	9	Septiembre	2023-05-09T00:00:00	2024-11-06T11:00:00	6	Velocidad del viento	8
47518	7	Sololá	701	Sololá	3	Barraneche	9	Septiembre	2023-05-09T00:00:00	2024-11-06T11:00:00	7	Dirección del viento	8.05
47519	7	Sololá	701	Sololá	3	Barraneche	9	Septiembre	2023-05-09T00:00:00	2024-11-06T11:00:00	1	Precipitación	0
47520	7	Sololá	701	Sololá	3	Barraneche	9	Septiembre	2023-05-09T00:00:00	2024-11-06T11:00:00	8	Radiación solar	738
47521	7	Sololá	701	Sololá	3	Barraneche	9	Septiembre	2023-05-09T00:00:00	2024-11-06T12:00:00	2	Temperatura media	17.8
47522	7	Sololá	701	Sololá	3	Barraneche	9	Septiembre	2023-05-09T00:00:00	2024-11-06T12:00:00	4	Temperatura máxima	18.9
47523	7	Sololá	701	Sololá	3	Barraneche	9	Septiembre	2023-05-09T00:00:00	2024-11-06T12:00:00	3	Temperatura mínima	17.8
47524	7	Sololá	701	Sololá	3	Barraneche	9	Septiembre	2023-05-09T00:00:00	2024-11-06T12:00:00	5	Humedad	71
47525	7	Sololá	701	Sololá	3	Barraneche	9	Septiembre	2023-05-09T00:00:00	2024-11-06T12:00:00	6	Velocidad del viento	11.3
47526	7	Sololá	701	Sololá	3	Barraneche	9	Septiembre	2023-05-09T00:00:00	2024-11-06T12:00:00	7	Dirección del viento	11.27
47527	7	Sololá	701	Sololá	3	Barraneche	9	Septiembre	2023-05-09T00:00:00	2024-11-06T12:00:00	1	Precipitación	0
47528	7	Sololá	701	Sololá	3	Barraneche	9	Septiembre	2023-05-09T00:00:00	2024-11-06T12:00:00	8	Radiación solar	861
47529	7	Sololá	701	Sololá	3	Barraneche	9	Septiembre	2023-05-09T00:00:00	2024-11-06T13:00:00	2	Temperatura media	18.2
47530	7	Sololá	701	Sololá	3	Barraneche	9	Septiembre	2023-05-09T00:00:00	2024-11-06T13:00:00	4	Temperatura máxima	18.2
47531	7	Sololá	701	Sololá	3	Barraneche	9	Septiembre	2023-05-09T00:00:00	2024-11-06T13:00:00	3	Temperatura mínima	17
47532	7	Sololá	701	Sololá	3	Barraneche	9	Septiembre	2023-05-09T00:00:00	2024-11-06T13:00:00	5	Humedad	70
47533	7	Sololá	701	Sololá	3	Barraneche	9	Septiembre	2023-05-09T00:00:00	2024-11-06T13:00:00	6	Velocidad del viento	9.7
47534	7	Sololá	701	Sololá	3	Barraneche	9	Septiembre	2023-05-09T00:00:00	2024-11-06T13:00:00	7	Dirección del viento	9.66
47535	7	Sololá	701	Sololá	3	Barraneche	9	Septiembre	2023-05-09T00:00:00	2024-11-06T13:00:00	1	Precipitación	0
47536	7	Sololá	701	Sololá	3	Barraneche	9	Septiembre	2023-05-09T00:00:00	2024-11-06T13:00:00	8	Radiación solar	642
47537	7	Sololá	701	Sololá	3	Barraneche	9	Septiembre	2023-05-09T00:00:00	2024-11-06T14:00:00	2	Temperatura media	17.6
47538	7	Sololá	701	Sololá	3	Barraneche	9	Septiembre	2023-05-09T00:00:00	2024-11-06T14:00:00	4	Temperatura máxima	18.7
47539	7	Sololá	701	Sololá	3	Barraneche	9	Septiembre	2023-05-09T00:00:00	2024-11-06T14:00:00	3	Temperatura mínima	17.6
47540	7	Sololá	701	Sololá	3	Barraneche	9	Septiembre	2023-05-09T00:00:00	2024-11-06T14:00:00	5	Humedad	75
47541	7	Sololá	701	Sololá	3	Barraneche	9	Septiembre	2023-05-09T00:00:00	2024-11-06T14:00:00	6	Velocidad del viento	9.7
47542	7	Sololá	701	Sololá	3	Barraneche	9	Septiembre	2023-05-09T00:00:00	2024-11-06T14:00:00	7	Dirección del viento	9.66
47543	7	Sololá	701	Sololá	3	Barraneche	9	Septiembre	2023-05-09T00:00:00	2024-11-06T14:00:00	1	Precipitación	0
47544	7	Sololá	701	Sololá	3	Barraneche	9	Septiembre	2023-05-09T00:00:00	2024-11-06T14:00:00	8	Radiación solar	418
47545	7	Sololá	701	Sololá	3	Barraneche	9	Septiembre	2023-05-09T00:00:00	2024-11-06T15:00:00	2	Temperatura media	13.7
47546	7	Sololá	701	Sololá	3	Barraneche	9	Septiembre	2023-05-09T00:00:00	2024-11-06T15:00:00	4	Temperatura máxima	17.6
47547	7	Sololá	701	Sololá	3	Barraneche	9	Septiembre	2023-05-09T00:00:00	2024-11-06T15:00:00	3	Temperatura mínima	13.4
47548	7	Sololá	701	Sololá	3	Barraneche	9	Septiembre	2023-05-09T00:00:00	2024-11-06T15:00:00	5	Humedad	81
47549	7	Sololá	701	Sololá	3	Barraneche	9	Septiembre	2023-05-09T00:00:00	2024-11-06T15:00:00	6	Velocidad del viento	8
47550	7	Sololá	701	Sololá	3	Barraneche	9	Septiembre	2023-05-09T00:00:00	2024-11-06T15:00:00	7	Dirección del viento	8.05
47551	7	Sololá	701	Sololá	3	Barraneche	9	Septiembre	2023-05-09T00:00:00	2024-11-06T15:00:00	1	Precipitación	4.8
47552	7	Sololá	701	Sololá	3	Barraneche	9	Septiembre	2023-05-09T00:00:00	2024-11-06T15:00:00	8	Radiación solar	38
47553	7	Sololá	701	Sololá	3	Barraneche	9	Septiembre	2023-05-09T00:00:00	2024-11-06T16:00:00	2	Temperatura media	13.4
47554	7	Sololá	701	Sololá	3	Barraneche	9	Septiembre	2023-05-09T00:00:00	2024-11-06T16:00:00	4	Temperatura máxima	13.8
47555	7	Sololá	701	Sololá	3	Barraneche	9	Septiembre	2023-05-09T00:00:00	2024-11-06T16:00:00	3	Temperatura mínima	13.4
47556	7	Sololá	701	Sololá	3	Barraneche	9	Septiembre	2023-05-09T00:00:00	2024-11-06T16:00:00	5	Humedad	81
47557	7	Sololá	701	Sololá	3	Barraneche	9	Septiembre	2023-05-09T00:00:00	2024-11-06T16:00:00	6	Velocidad del viento	1.6
47558	7	Sololá	701	Sololá	3	Barraneche	9	Septiembre	2023-05-09T00:00:00	2024-11-06T16:00:00	7	Dirección del viento	1.61
47559	7	Sololá	701	Sololá	3	Barraneche	9	Septiembre	2023-05-09T00:00:00	2024-11-06T16:00:00	1	Precipitación	0
47560	7	Sololá	701	Sololá	3	Barraneche	9	Septiembre	2023-05-09T00:00:00	2024-11-06T16:00:00	8	Radiación solar	39
47561	7	Sololá	701	Sololá	3	Barraneche	9	Septiembre	2023-05-09T00:00:00	2024-11-06T17:00:00	2	Temperatura media	13
47562	7	Sololá	701	Sololá	3	Barraneche	9	Septiembre	2023-05-09T00:00:00	2024-11-06T17:00:00	4	Temperatura máxima	13.4
47563	7	Sololá	701	Sololá	3	Barraneche	9	Septiembre	2023-05-09T00:00:00	2024-11-06T17:00:00	3	Temperatura mínima	13
47564	7	Sololá	701	Sololá	3	Barraneche	9	Septiembre	2023-05-09T00:00:00	2024-11-06T17:00:00	5	Humedad	81
47565	7	Sololá	701	Sololá	3	Barraneche	9	Septiembre	2023-05-09T00:00:00	2024-11-06T17:00:00	6	Velocidad del viento	4.8
47566	7	Sololá	701	Sololá	3	Barraneche	9	Septiembre	2023-05-09T00:00:00	2024-11-06T17:00:00	7	Dirección del viento	4.83
47567	7	Sololá	701	Sololá	3	Barraneche	9	Septiembre	2023-05-09T00:00:00	2024-11-06T17:00:00	1	Precipitación	1.2
47568	7	Sololá	701	Sololá	3	Barraneche	9	Septiembre	2023-05-09T00:00:00	2024-11-06T17:00:00	8	Radiación solar	18
47569	7	Sololá	701	Sololá	3	Barraneche	9	Septiembre	2023-05-09T00:00:00	2024-11-06T18:00:00	2	Temperatura media	12.5
47570	7	Sololá	701	Sololá	3	Barraneche	9	Septiembre	2023-05-09T00:00:00	2024-11-06T18:00:00	4	Temperatura máxima	13
47571	7	Sololá	701	Sololá	3	Barraneche	9	Septiembre	2023-05-09T00:00:00	2024-11-06T18:00:00	3	Temperatura mínima	12.4
47572	7	Sololá	701	Sololá	3	Barraneche	9	Septiembre	2023-05-09T00:00:00	2024-11-06T18:00:00	5	Humedad	82
47573	7	Sololá	701	Sololá	3	Barraneche	9	Septiembre	2023-05-09T00:00:00	2024-11-06T18:00:00	6	Velocidad del viento	4.8
47574	7	Sololá	701	Sololá	3	Barraneche	9	Septiembre	2023-05-09T00:00:00	2024-11-06T18:00:00	7	Dirección del viento	4.83
47575	7	Sololá	701	Sololá	3	Barraneche	9	Septiembre	2023-05-09T00:00:00	2024-11-06T18:00:00	1	Precipitación	0.2
47576	7	Sololá	701	Sololá	3	Barraneche	9	Septiembre	2023-05-09T00:00:00	2024-11-06T18:00:00	8	Radiación solar	7
47577	7	Sololá	701	Sololá	3	Barraneche	9	Septiembre	2023-05-09T00:00:00	2024-11-06T19:00:00	2	Temperatura media	12.8
47578	7	Sololá	701	Sololá	3	Barraneche	9	Septiembre	2023-05-09T00:00:00	2024-11-06T19:00:00	4	Temperatura máxima	12.8
47579	7	Sololá	701	Sololá	3	Barraneche	9	Septiembre	2023-05-09T00:00:00	2024-11-06T19:00:00	3	Temperatura mínima	12.4
47580	7	Sololá	701	Sololá	3	Barraneche	9	Septiembre	2023-05-09T00:00:00	2024-11-06T19:00:00	5	Humedad	82
47581	7	Sololá	701	Sololá	3	Barraneche	9	Septiembre	2023-05-09T00:00:00	2024-11-06T19:00:00	6	Velocidad del viento	3.2
47582	7	Sololá	701	Sololá	3	Barraneche	9	Septiembre	2023-05-09T00:00:00	2024-11-06T19:00:00	7	Dirección del viento	3.22
47583	7	Sololá	701	Sololá	3	Barraneche	9	Septiembre	2023-05-09T00:00:00	2024-11-06T19:00:00	1	Precipitación	0.2
47584	7	Sololá	701	Sololá	3	Barraneche	9	Septiembre	2023-05-09T00:00:00	2024-11-06T19:00:00	8	Radiación solar	0
47585	7	Sololá	701	Sololá	3	Barraneche	9	Septiembre	2023-05-09T00:00:00	2024-11-06T20:00:00	2	Temperatura media	12.8
47586	7	Sololá	701	Sololá	3	Barraneche	9	Septiembre	2023-05-09T00:00:00	2024-11-06T20:00:00	4	Temperatura máxima	12.9
47587	7	Sololá	701	Sololá	3	Barraneche	9	Septiembre	2023-05-09T00:00:00	2024-11-06T20:00:00	3	Temperatura mínima	12.7
47588	7	Sololá	701	Sololá	3	Barraneche	9	Septiembre	2023-05-09T00:00:00	2024-11-06T20:00:00	5	Humedad	80
47589	7	Sololá	701	Sololá	3	Barraneche	9	Septiembre	2023-05-09T00:00:00	2024-11-06T20:00:00	6	Velocidad del viento	4.8
47590	7	Sololá	701	Sololá	3	Barraneche	9	Septiembre	2023-05-09T00:00:00	2024-11-06T20:00:00	7	Dirección del viento	4.83
47591	7	Sololá	701	Sololá	3	Barraneche	9	Septiembre	2023-05-09T00:00:00	2024-11-06T20:00:00	1	Precipitación	0
47592	7	Sololá	701	Sololá	3	Barraneche	9	Septiembre	2023-05-09T00:00:00	2024-11-06T20:00:00	8	Radiación solar	0
47593	7	Sololá	701	Sololá	3	Barraneche	9	Septiembre	2023-05-09T00:00:00	2024-11-06T21:00:00	2	Temperatura media	13.8
47594	7	Sololá	701	Sololá	3	Barraneche	9	Septiembre	2023-05-09T00:00:00	2024-11-06T21:00:00	4	Temperatura máxima	13.8
47595	7	Sololá	701	Sololá	3	Barraneche	9	Septiembre	2023-05-09T00:00:00	2024-11-06T21:00:00	3	Temperatura mínima	12.8
47596	7	Sololá	701	Sololá	3	Barraneche	9	Septiembre	2023-05-09T00:00:00	2024-11-06T21:00:00	5	Humedad	76
47597	7	Sololá	701	Sololá	3	Barraneche	9	Septiembre	2023-05-09T00:00:00	2024-11-06T21:00:00	6	Velocidad del viento	4.8
47598	7	Sololá	701	Sololá	3	Barraneche	9	Septiembre	2023-05-09T00:00:00	2024-11-06T21:00:00	7	Dirección del viento	4.83
47599	7	Sololá	701	Sololá	3	Barraneche	9	Septiembre	2023-05-09T00:00:00	2024-11-06T21:00:00	1	Precipitación	0
47600	7	Sololá	701	Sololá	3	Barraneche	9	Septiembre	2023-05-09T00:00:00	2024-11-06T21:00:00	8	Radiación solar	0
47601	7	Sololá	701	Sololá	3	Barraneche	9	Septiembre	2023-05-09T00:00:00	2024-11-06T22:00:00	2	Temperatura media	14.1
47602	7	Sololá	701	Sololá	3	Barraneche	9	Septiembre	2023-05-09T00:00:00	2024-11-06T22:00:00	4	Temperatura máxima	14.2
47603	7	Sololá	701	Sololá	3	Barraneche	9	Septiembre	2023-05-09T00:00:00	2024-11-06T22:00:00	3	Temperatura mínima	13.3
47604	7	Sololá	701	Sololá	3	Barraneche	9	Septiembre	2023-05-09T00:00:00	2024-11-06T22:00:00	5	Humedad	74
47605	7	Sololá	701	Sololá	3	Barraneche	9	Septiembre	2023-05-09T00:00:00	2024-11-06T22:00:00	6	Velocidad del viento	4.8
47606	7	Sololá	701	Sololá	3	Barraneche	9	Septiembre	2023-05-09T00:00:00	2024-11-06T22:00:00	7	Dirección del viento	4.83
47607	7	Sololá	701	Sololá	3	Barraneche	9	Septiembre	2023-05-09T00:00:00	2024-11-06T22:00:00	1	Precipitación	0
47608	7	Sololá	701	Sololá	3	Barraneche	9	Septiembre	2023-05-09T00:00:00	2024-11-06T22:00:00	8	Radiación solar	0
47609	7	Sololá	701	Sololá	3	Barraneche	9	Septiembre	2023-05-09T00:00:00	2024-11-06T23:00:00	2	Temperatura media	12.9
47610	7	Sololá	701	Sololá	3	Barraneche	9	Septiembre	2023-05-09T00:00:00	2024-11-06T23:00:00	4	Temperatura máxima	14.1
47611	7	Sololá	701	Sololá	3	Barraneche	9	Septiembre	2023-05-09T00:00:00	2024-11-06T23:00:00	3	Temperatura mínima	12.9
47612	7	Sololá	701	Sololá	3	Barraneche	9	Septiembre	2023-05-09T00:00:00	2024-11-06T23:00:00	5	Humedad	79
47613	7	Sololá	701	Sololá	3	Barraneche	9	Septiembre	2023-05-09T00:00:00	2024-11-06T23:00:00	6	Velocidad del viento	4.8
47614	7	Sololá	701	Sololá	3	Barraneche	9	Septiembre	2023-05-09T00:00:00	2024-11-06T23:00:00	7	Dirección del viento	4.83
47615	7	Sololá	701	Sololá	3	Barraneche	9	Septiembre	2023-05-09T00:00:00	2024-11-06T23:00:00	1	Precipitación	0
47616	7	Sololá	701	Sololá	3	Barraneche	9	Septiembre	2023-05-09T00:00:00	2024-11-06T23:00:00	8	Radiación solar	0
47617	7	Sololá	701	Sololá	3	Barraneche	9	Septiembre	2023-06-09T00:00:00	2024-11-06T00:00:00	2	Temperatura media	13.9
47618	7	Sololá	701	Sololá	3	Barraneche	9	Septiembre	2023-06-09T00:00:00	2024-11-06T00:00:00	4	Temperatura máxima	13.9
47619	7	Sololá	701	Sololá	3	Barraneche	9	Septiembre	2023-06-09T00:00:00	2024-11-06T00:00:00	3	Temperatura mínima	12.4
47620	7	Sololá	701	Sololá	3	Barraneche	9	Septiembre	2023-06-09T00:00:00	2024-11-06T00:00:00	5	Humedad	75
47621	7	Sololá	701	Sololá	3	Barraneche	9	Septiembre	2023-06-09T00:00:00	2024-11-06T00:00:00	6	Velocidad del viento	4.8
47622	7	Sololá	701	Sololá	3	Barraneche	9	Septiembre	2023-06-09T00:00:00	2024-11-06T00:00:00	7	Dirección del viento	4.83
47623	7	Sololá	701	Sololá	3	Barraneche	9	Septiembre	2023-06-09T00:00:00	2024-11-06T00:00:00	1	Precipitación	0
47624	7	Sololá	701	Sololá	3	Barraneche	9	Septiembre	2023-06-09T00:00:00	2024-11-06T00:00:00	8	Radiación solar	0
47625	7	Sololá	701	Sololá	3	Barraneche	9	Septiembre	2023-06-09T00:00:00	2024-11-06T01:00:00	2	Temperatura media	14.4
47626	7	Sololá	701	Sololá	3	Barraneche	9	Septiembre	2023-06-09T00:00:00	2024-11-06T01:00:00	4	Temperatura máxima	14.4
47627	7	Sololá	701	Sololá	3	Barraneche	9	Septiembre	2023-06-09T00:00:00	2024-11-06T01:00:00	3	Temperatura mínima	13.9
47628	7	Sololá	701	Sololá	3	Barraneche	9	Septiembre	2023-06-09T00:00:00	2024-11-06T01:00:00	5	Humedad	73
47629	7	Sololá	701	Sololá	3	Barraneche	9	Septiembre	2023-06-09T00:00:00	2024-11-06T01:00:00	6	Velocidad del viento	11.3
47630	7	Sololá	701	Sololá	3	Barraneche	9	Septiembre	2023-06-09T00:00:00	2024-11-06T01:00:00	7	Dirección del viento	11.27
47631	7	Sololá	701	Sololá	3	Barraneche	9	Septiembre	2023-06-09T00:00:00	2024-11-06T01:00:00	1	Precipitación	0
47632	7	Sololá	701	Sololá	3	Barraneche	9	Septiembre	2023-06-09T00:00:00	2024-11-06T01:00:00	8	Radiación solar	0
47633	7	Sololá	701	Sololá	3	Barraneche	9	Septiembre	2023-06-09T00:00:00	2024-11-06T02:00:00	2	Temperatura media	12.6
47634	7	Sololá	701	Sololá	3	Barraneche	9	Septiembre	2023-06-09T00:00:00	2024-11-06T02:00:00	4	Temperatura máxima	14.4
47635	7	Sololá	701	Sololá	3	Barraneche	9	Septiembre	2023-06-09T00:00:00	2024-11-06T02:00:00	3	Temperatura mínima	12.6
47636	7	Sololá	701	Sololá	3	Barraneche	9	Septiembre	2023-06-09T00:00:00	2024-11-06T02:00:00	5	Humedad	79
47637	7	Sololá	701	Sololá	3	Barraneche	9	Septiembre	2023-06-09T00:00:00	2024-11-06T02:00:00	6	Velocidad del viento	3.2
47638	7	Sololá	701	Sololá	3	Barraneche	9	Septiembre	2023-06-09T00:00:00	2024-11-06T02:00:00	7	Dirección del viento	3.22
47639	7	Sololá	701	Sololá	3	Barraneche	9	Septiembre	2023-06-09T00:00:00	2024-11-06T02:00:00	1	Precipitación	0
47640	7	Sololá	701	Sololá	3	Barraneche	9	Septiembre	2023-06-09T00:00:00	2024-11-06T02:00:00	8	Radiación solar	0
47641	7	Sololá	701	Sololá	3	Barraneche	9	Septiembre	2023-06-09T00:00:00	2024-11-06T03:00:00	2	Temperatura media	11.8
47642	7	Sololá	701	Sololá	3	Barraneche	9	Septiembre	2023-06-09T00:00:00	2024-11-06T03:00:00	4	Temperatura máxima	12.6
47643	7	Sololá	701	Sololá	3	Barraneche	9	Septiembre	2023-06-09T00:00:00	2024-11-06T03:00:00	3	Temperatura mínima	11.7
47644	7	Sololá	701	Sololá	3	Barraneche	9	Septiembre	2023-06-09T00:00:00	2024-11-06T03:00:00	5	Humedad	81
47645	7	Sololá	701	Sololá	3	Barraneche	9	Septiembre	2023-06-09T00:00:00	2024-11-06T03:00:00	6	Velocidad del viento	1.6
47646	7	Sololá	701	Sololá	3	Barraneche	9	Septiembre	2023-06-09T00:00:00	2024-11-06T03:00:00	7	Dirección del viento	1.61
47647	7	Sololá	701	Sololá	3	Barraneche	9	Septiembre	2023-06-09T00:00:00	2024-11-06T03:00:00	1	Precipitación	0
47648	7	Sololá	701	Sololá	3	Barraneche	9	Septiembre	2023-06-09T00:00:00	2024-11-06T03:00:00	8	Radiación solar	0
47649	7	Sololá	701	Sololá	3	Barraneche	9	Septiembre	2023-06-09T00:00:00	2024-11-06T04:00:00	2	Temperatura media	11.3
47650	7	Sololá	701	Sololá	3	Barraneche	9	Septiembre	2023-06-09T00:00:00	2024-11-06T04:00:00	4	Temperatura máxima	11.8
47651	7	Sololá	701	Sololá	3	Barraneche	9	Septiembre	2023-06-09T00:00:00	2024-11-06T04:00:00	3	Temperatura mínima	11.3
47652	7	Sololá	701	Sololá	3	Barraneche	9	Septiembre	2023-06-09T00:00:00	2024-11-06T04:00:00	5	Humedad	82
47653	7	Sololá	701	Sololá	3	Barraneche	9	Septiembre	2023-06-09T00:00:00	2024-11-06T04:00:00	6	Velocidad del viento	1.6
47654	7	Sololá	701	Sololá	3	Barraneche	9	Septiembre	2023-06-09T00:00:00	2024-11-06T04:00:00	7	Dirección del viento	1.61
47655	7	Sololá	701	Sololá	3	Barraneche	9	Septiembre	2023-06-09T00:00:00	2024-11-06T04:00:00	1	Precipitación	0
47656	7	Sololá	701	Sololá	3	Barraneche	9	Septiembre	2023-06-09T00:00:00	2024-11-06T04:00:00	8	Radiación solar	0
47657	7	Sololá	701	Sololá	3	Barraneche	9	Septiembre	2023-06-09T00:00:00	2024-11-06T05:00:00	2	Temperatura media	12.4
47658	7	Sololá	701	Sololá	3	Barraneche	9	Septiembre	2023-06-09T00:00:00	2024-11-06T05:00:00	4	Temperatura máxima	12.4
47659	7	Sololá	701	Sololá	3	Barraneche	9	Septiembre	2023-06-09T00:00:00	2024-11-06T05:00:00	3	Temperatura mínima	11.3
47660	7	Sololá	701	Sololá	3	Barraneche	9	Septiembre	2023-06-09T00:00:00	2024-11-06T05:00:00	5	Humedad	78
47661	7	Sololá	701	Sololá	3	Barraneche	9	Septiembre	2023-06-09T00:00:00	2024-11-06T05:00:00	6	Velocidad del viento	4.8
47662	7	Sololá	701	Sololá	3	Barraneche	9	Septiembre	2023-06-09T00:00:00	2024-11-06T05:00:00	7	Dirección del viento	4.83
47663	7	Sololá	701	Sololá	3	Barraneche	9	Septiembre	2023-06-09T00:00:00	2024-11-06T05:00:00	1	Precipitación	0
47664	7	Sololá	701	Sololá	3	Barraneche	9	Septiembre	2023-06-09T00:00:00	2024-11-06T05:00:00	8	Radiación solar	0
47665	7	Sololá	701	Sololá	3	Barraneche	9	Septiembre	2023-06-09T00:00:00	2024-11-06T06:00:00	2	Temperatura media	12.3
47666	7	Sololá	701	Sololá	3	Barraneche	9	Septiembre	2023-06-09T00:00:00	2024-11-06T06:00:00	4	Temperatura máxima	13.2
47667	7	Sololá	701	Sololá	3	Barraneche	9	Septiembre	2023-06-09T00:00:00	2024-11-06T06:00:00	3	Temperatura mínima	12.2
47668	7	Sololá	701	Sololá	3	Barraneche	9	Septiembre	2023-06-09T00:00:00	2024-11-06T06:00:00	5	Humedad	79
47669	7	Sololá	701	Sololá	3	Barraneche	9	Septiembre	2023-06-09T00:00:00	2024-11-06T06:00:00	6	Velocidad del viento	3.2
47670	7	Sololá	701	Sololá	3	Barraneche	9	Septiembre	2023-06-09T00:00:00	2024-11-06T06:00:00	7	Dirección del viento	3.22
47671	7	Sololá	701	Sololá	3	Barraneche	9	Septiembre	2023-06-09T00:00:00	2024-11-06T06:00:00	1	Precipitación	0
47672	7	Sololá	701	Sololá	3	Barraneche	9	Septiembre	2023-06-09T00:00:00	2024-11-06T06:00:00	8	Radiación solar	0
47673	7	Sololá	701	Sololá	3	Barraneche	9	Septiembre	2023-06-09T00:00:00	2024-11-06T07:00:00	2	Temperatura media	12.3
47674	7	Sololá	701	Sololá	3	Barraneche	9	Septiembre	2023-06-09T00:00:00	2024-11-06T07:00:00	4	Temperatura máxima	12.3
47675	7	Sololá	701	Sololá	3	Barraneche	9	Septiembre	2023-06-09T00:00:00	2024-11-06T07:00:00	3	Temperatura mínima	11.9
47676	7	Sololá	701	Sololá	3	Barraneche	9	Septiembre	2023-06-09T00:00:00	2024-11-06T07:00:00	5	Humedad	80
47677	7	Sololá	701	Sololá	3	Barraneche	9	Septiembre	2023-06-09T00:00:00	2024-11-06T07:00:00	6	Velocidad del viento	1.6
47678	7	Sololá	701	Sololá	3	Barraneche	9	Septiembre	2023-06-09T00:00:00	2024-11-06T07:00:00	7	Dirección del viento	1.61
47679	7	Sololá	701	Sololá	3	Barraneche	9	Septiembre	2023-06-09T00:00:00	2024-11-06T07:00:00	1	Precipitación	0
47680	7	Sololá	701	Sololá	3	Barraneche	9	Septiembre	2023-06-09T00:00:00	2024-11-06T07:00:00	8	Radiación solar	45
47681	7	Sololá	701	Sololá	3	Barraneche	9	Septiembre	2023-06-09T00:00:00	2024-11-06T08:00:00	2	Temperatura media	15.5
47682	7	Sololá	701	Sololá	3	Barraneche	9	Septiembre	2023-06-09T00:00:00	2024-11-06T08:00:00	4	Temperatura máxima	15.5
47683	7	Sololá	701	Sololá	3	Barraneche	9	Septiembre	2023-06-09T00:00:00	2024-11-06T08:00:00	3	Temperatura mínima	12.3
47684	7	Sololá	701	Sololá	3	Barraneche	9	Septiembre	2023-06-09T00:00:00	2024-11-06T08:00:00	5	Humedad	70
47685	7	Sololá	701	Sololá	3	Barraneche	9	Septiembre	2023-06-09T00:00:00	2024-11-06T08:00:00	6	Velocidad del viento	3.2
47686	7	Sololá	701	Sololá	3	Barraneche	9	Septiembre	2023-06-09T00:00:00	2024-11-06T08:00:00	7	Dirección del viento	3.22
47687	7	Sololá	701	Sololá	3	Barraneche	9	Septiembre	2023-06-09T00:00:00	2024-11-06T08:00:00	1	Precipitación	0
47688	7	Sololá	701	Sololá	3	Barraneche	9	Septiembre	2023-06-09T00:00:00	2024-11-06T08:00:00	8	Radiación solar	228
47689	7	Sololá	701	Sololá	3	Barraneche	9	Septiembre	2023-06-09T00:00:00	2024-11-06T09:00:00	2	Temperatura media	15.7
47690	7	Sololá	701	Sololá	3	Barraneche	9	Septiembre	2023-06-09T00:00:00	2024-11-06T09:00:00	4	Temperatura máxima	15.7
47691	7	Sololá	701	Sololá	3	Barraneche	9	Septiembre	2023-06-09T00:00:00	2024-11-06T09:00:00	3	Temperatura mínima	15.4
47692	7	Sololá	701	Sololá	3	Barraneche	9	Septiembre	2023-06-09T00:00:00	2024-11-06T09:00:00	5	Humedad	67
47693	7	Sololá	701	Sololá	3	Barraneche	9	Septiembre	2023-06-09T00:00:00	2024-11-06T09:00:00	6	Velocidad del viento	4.8
47694	7	Sololá	701	Sololá	3	Barraneche	9	Septiembre	2023-06-09T00:00:00	2024-11-06T09:00:00	7	Dirección del viento	4.83
47695	7	Sololá	701	Sololá	3	Barraneche	9	Septiembre	2023-06-09T00:00:00	2024-11-06T09:00:00	1	Precipitación	0
47696	7	Sololá	701	Sololá	3	Barraneche	9	Septiembre	2023-06-09T00:00:00	2024-11-06T09:00:00	8	Radiación solar	234
47697	7	Sololá	701	Sololá	3	Barraneche	9	Septiembre	2023-06-09T00:00:00	2024-11-06T10:00:00	2	Temperatura media	16.4
47698	7	Sololá	701	Sololá	3	Barraneche	9	Septiembre	2023-06-09T00:00:00	2024-11-06T10:00:00	4	Temperatura máxima	16.4
47699	7	Sololá	701	Sololá	3	Barraneche	9	Septiembre	2023-06-09T00:00:00	2024-11-06T10:00:00	3	Temperatura mínima	15.7
47700	7	Sololá	701	Sololá	3	Barraneche	9	Septiembre	2023-06-09T00:00:00	2024-11-06T10:00:00	5	Humedad	70
47701	7	Sololá	701	Sololá	3	Barraneche	9	Septiembre	2023-06-09T00:00:00	2024-11-06T10:00:00	6	Velocidad del viento	4.8
47702	7	Sololá	701	Sololá	3	Barraneche	9	Septiembre	2023-06-09T00:00:00	2024-11-06T10:00:00	7	Dirección del viento	4.83
47703	7	Sololá	701	Sololá	3	Barraneche	9	Septiembre	2023-06-09T00:00:00	2024-11-06T10:00:00	1	Precipitación	0
47704	7	Sololá	701	Sololá	3	Barraneche	9	Septiembre	2023-06-09T00:00:00	2024-11-06T10:00:00	8	Radiación solar	409
47705	7	Sololá	701	Sololá	3	Barraneche	9	Septiembre	2023-06-09T00:00:00	2024-11-06T11:00:00	2	Temperatura media	17.3
47706	7	Sololá	701	Sololá	3	Barraneche	9	Septiembre	2023-06-09T00:00:00	2024-11-06T11:00:00	4	Temperatura máxima	17.3
47707	7	Sololá	701	Sololá	3	Barraneche	9	Septiembre	2023-06-09T00:00:00	2024-11-06T11:00:00	3	Temperatura mínima	16.3
47708	7	Sololá	701	Sololá	3	Barraneche	9	Septiembre	2023-06-09T00:00:00	2024-11-06T11:00:00	5	Humedad	69
47709	7	Sololá	701	Sololá	3	Barraneche	9	Septiembre	2023-06-09T00:00:00	2024-11-06T11:00:00	6	Velocidad del viento	8
47710	7	Sololá	701	Sololá	3	Barraneche	9	Septiembre	2023-06-09T00:00:00	2024-11-06T11:00:00	7	Dirección del viento	8.05
47711	7	Sololá	701	Sololá	3	Barraneche	9	Septiembre	2023-06-09T00:00:00	2024-11-06T11:00:00	1	Precipitación	0
47712	7	Sololá	701	Sololá	3	Barraneche	9	Septiembre	2023-06-09T00:00:00	2024-11-06T11:00:00	8	Radiación solar	568
47713	7	Sololá	701	Sololá	3	Barraneche	9	Septiembre	2023-06-09T00:00:00	2024-11-06T12:00:00	2	Temperatura media	17.6
47714	7	Sololá	701	Sololá	3	Barraneche	9	Septiembre	2023-06-09T00:00:00	2024-11-06T12:00:00	4	Temperatura máxima	18
47715	7	Sololá	701	Sololá	3	Barraneche	9	Septiembre	2023-06-09T00:00:00	2024-11-06T12:00:00	3	Temperatura mínima	17.2
47716	7	Sololá	701	Sololá	3	Barraneche	9	Septiembre	2023-06-09T00:00:00	2024-11-06T12:00:00	5	Humedad	70
47717	7	Sololá	701	Sololá	3	Barraneche	9	Septiembre	2023-06-09T00:00:00	2024-11-06T12:00:00	6	Velocidad del viento	9.7
47718	7	Sololá	701	Sololá	3	Barraneche	9	Septiembre	2023-06-09T00:00:00	2024-11-06T12:00:00	7	Dirección del viento	9.66
47719	7	Sololá	701	Sololá	3	Barraneche	9	Septiembre	2023-06-09T00:00:00	2024-11-06T12:00:00	1	Precipitación	0
47720	7	Sololá	701	Sololá	3	Barraneche	9	Septiembre	2023-06-09T00:00:00	2024-11-06T12:00:00	8	Radiación solar	657
47721	7	Sololá	701	Sololá	3	Barraneche	9	Septiembre	2023-06-09T00:00:00	2024-11-06T13:00:00	2	Temperatura media	18.4
47722	7	Sololá	701	Sololá	3	Barraneche	9	Septiembre	2023-06-09T00:00:00	2024-11-06T13:00:00	4	Temperatura máxima	18.4
47723	7	Sololá	701	Sololá	3	Barraneche	9	Septiembre	2023-06-09T00:00:00	2024-11-06T13:00:00	3	Temperatura mínima	17.3
47724	7	Sololá	701	Sololá	3	Barraneche	9	Septiembre	2023-06-09T00:00:00	2024-11-06T13:00:00	5	Humedad	65
47725	7	Sololá	701	Sololá	3	Barraneche	9	Septiembre	2023-06-09T00:00:00	2024-11-06T13:00:00	6	Velocidad del viento	8
47726	7	Sololá	701	Sololá	3	Barraneche	9	Septiembre	2023-06-09T00:00:00	2024-11-06T13:00:00	7	Dirección del viento	8.05
47727	7	Sololá	701	Sololá	3	Barraneche	9	Septiembre	2023-06-09T00:00:00	2024-11-06T13:00:00	1	Precipitación	0
47728	7	Sololá	701	Sololá	3	Barraneche	9	Septiembre	2023-06-09T00:00:00	2024-11-06T13:00:00	8	Radiación solar	494
47729	7	Sololá	701	Sololá	3	Barraneche	9	Septiembre	2023-06-09T00:00:00	2024-11-06T14:00:00	2	Temperatura media	19.8
47730	7	Sololá	701	Sololá	3	Barraneche	9	Septiembre	2023-06-09T00:00:00	2024-11-06T14:00:00	4	Temperatura máxima	19.8
47731	7	Sololá	701	Sololá	3	Barraneche	9	Septiembre	2023-06-09T00:00:00	2024-11-06T14:00:00	3	Temperatura mínima	18.3
47732	7	Sololá	701	Sololá	3	Barraneche	9	Septiembre	2023-06-09T00:00:00	2024-11-06T14:00:00	5	Humedad	65
47733	7	Sololá	701	Sololá	3	Barraneche	9	Septiembre	2023-06-09T00:00:00	2024-11-06T14:00:00	6	Velocidad del viento	8
47734	7	Sololá	701	Sololá	3	Barraneche	9	Septiembre	2023-06-09T00:00:00	2024-11-06T14:00:00	7	Dirección del viento	8.05
47735	7	Sololá	701	Sololá	3	Barraneche	9	Septiembre	2023-06-09T00:00:00	2024-11-06T14:00:00	1	Precipitación	0
47736	7	Sololá	701	Sololá	3	Barraneche	9	Septiembre	2023-06-09T00:00:00	2024-11-06T14:00:00	8	Radiación solar	931
47737	7	Sololá	701	Sololá	3	Barraneche	9	Septiembre	2023-06-09T00:00:00	2024-11-06T15:00:00	2	Temperatura media	18.7
47738	7	Sololá	701	Sololá	3	Barraneche	9	Septiembre	2023-06-09T00:00:00	2024-11-06T15:00:00	4	Temperatura máxima	20.2
47739	7	Sololá	701	Sololá	3	Barraneche	9	Septiembre	2023-06-09T00:00:00	2024-11-06T15:00:00	3	Temperatura mínima	18.6
47740	7	Sololá	701	Sololá	3	Barraneche	9	Septiembre	2023-06-09T00:00:00	2024-11-06T15:00:00	5	Humedad	69
47741	7	Sololá	701	Sololá	3	Barraneche	9	Septiembre	2023-06-09T00:00:00	2024-11-06T15:00:00	6	Velocidad del viento	11.3
47742	7	Sololá	701	Sololá	3	Barraneche	9	Septiembre	2023-06-09T00:00:00	2024-11-06T15:00:00	7	Dirección del viento	11.27
47743	7	Sololá	701	Sololá	3	Barraneche	9	Septiembre	2023-06-09T00:00:00	2024-11-06T15:00:00	1	Precipitación	0
47744	7	Sololá	701	Sololá	3	Barraneche	9	Septiembre	2023-06-09T00:00:00	2024-11-06T15:00:00	8	Radiación solar	766
47745	7	Sololá	701	Sololá	3	Barraneche	9	Septiembre	2023-06-09T00:00:00	2024-11-06T16:00:00	2	Temperatura media	16
47746	7	Sololá	701	Sololá	3	Barraneche	9	Septiembre	2023-06-09T00:00:00	2024-11-06T16:00:00	4	Temperatura máxima	18.8
47747	7	Sololá	701	Sololá	3	Barraneche	9	Septiembre	2023-06-09T00:00:00	2024-11-06T16:00:00	3	Temperatura mínima	16
47748	7	Sololá	701	Sololá	3	Barraneche	9	Septiembre	2023-06-09T00:00:00	2024-11-06T16:00:00	5	Humedad	77
47749	7	Sololá	701	Sololá	3	Barraneche	9	Septiembre	2023-06-09T00:00:00	2024-11-06T16:00:00	6	Velocidad del viento	11.3
47750	7	Sololá	701	Sololá	3	Barraneche	9	Septiembre	2023-06-09T00:00:00	2024-11-06T16:00:00	7	Dirección del viento	11.27
47751	7	Sololá	701	Sololá	3	Barraneche	9	Septiembre	2023-06-09T00:00:00	2024-11-06T16:00:00	1	Precipitación	2
47752	7	Sololá	701	Sololá	3	Barraneche	9	Septiembre	2023-06-09T00:00:00	2024-11-06T16:00:00	8	Radiación solar	274
47753	7	Sololá	701	Sololá	3	Barraneche	9	Septiembre	2023-06-09T00:00:00	2024-11-06T17:00:00	2	Temperatura media	17.1
47754	7	Sololá	701	Sololá	3	Barraneche	9	Septiembre	2023-06-09T00:00:00	2024-11-06T17:00:00	4	Temperatura máxima	17.4
47755	7	Sololá	701	Sololá	3	Barraneche	9	Septiembre	2023-06-09T00:00:00	2024-11-06T17:00:00	3	Temperatura mínima	15.7
47756	7	Sololá	701	Sololá	3	Barraneche	9	Septiembre	2023-06-09T00:00:00	2024-11-06T17:00:00	5	Humedad	71
47757	7	Sololá	701	Sololá	3	Barraneche	9	Septiembre	2023-06-09T00:00:00	2024-11-06T17:00:00	6	Velocidad del viento	8
47758	7	Sololá	701	Sololá	3	Barraneche	9	Septiembre	2023-06-09T00:00:00	2024-11-06T17:00:00	7	Dirección del viento	8.05
47759	7	Sololá	701	Sololá	3	Barraneche	9	Septiembre	2023-06-09T00:00:00	2024-11-06T17:00:00	1	Precipitación	0
47760	7	Sololá	701	Sololá	3	Barraneche	9	Septiembre	2023-06-09T00:00:00	2024-11-06T17:00:00	8	Radiación solar	239
47761	7	Sololá	701	Sololá	3	Barraneche	9	Septiembre	2023-06-09T00:00:00	2024-11-06T18:00:00	2	Temperatura media	16.4
47762	7	Sololá	701	Sololá	3	Barraneche	9	Septiembre	2023-06-09T00:00:00	2024-11-06T18:00:00	4	Temperatura máxima	17.2
47763	7	Sololá	701	Sololá	3	Barraneche	9	Septiembre	2023-06-09T00:00:00	2024-11-06T18:00:00	3	Temperatura mínima	16.4
47764	7	Sololá	701	Sololá	3	Barraneche	9	Septiembre	2023-06-09T00:00:00	2024-11-06T18:00:00	5	Humedad	73
47765	7	Sololá	701	Sololá	3	Barraneche	9	Septiembre	2023-06-09T00:00:00	2024-11-06T18:00:00	6	Velocidad del viento	4.8
47766	7	Sololá	701	Sololá	3	Barraneche	9	Septiembre	2023-06-09T00:00:00	2024-11-06T18:00:00	7	Dirección del viento	4.83
47767	7	Sololá	701	Sololá	3	Barraneche	9	Septiembre	2023-06-09T00:00:00	2024-11-06T18:00:00	1	Precipitación	0
47768	7	Sololá	701	Sololá	3	Barraneche	9	Septiembre	2023-06-09T00:00:00	2024-11-06T18:00:00	8	Radiación solar	108
47769	7	Sololá	701	Sololá	3	Barraneche	9	Septiembre	2023-06-09T00:00:00	2024-11-06T19:00:00	2	Temperatura media	14.3
47770	7	Sololá	701	Sololá	3	Barraneche	9	Septiembre	2023-06-09T00:00:00	2024-11-06T19:00:00	4	Temperatura máxima	16.4
47771	7	Sololá	701	Sololá	3	Barraneche	9	Septiembre	2023-06-09T00:00:00	2024-11-06T19:00:00	3	Temperatura mínima	14.3
47772	7	Sololá	701	Sololá	3	Barraneche	9	Septiembre	2023-06-09T00:00:00	2024-11-06T19:00:00	5	Humedad	77
47773	7	Sololá	701	Sololá	3	Barraneche	9	Septiembre	2023-06-09T00:00:00	2024-11-06T19:00:00	6	Velocidad del viento	4.8
47774	7	Sololá	701	Sololá	3	Barraneche	9	Septiembre	2023-06-09T00:00:00	2024-11-06T19:00:00	7	Dirección del viento	4.83
47775	7	Sololá	701	Sololá	3	Barraneche	9	Septiembre	2023-06-09T00:00:00	2024-11-06T19:00:00	1	Precipitación	0
47776	7	Sololá	701	Sololá	3	Barraneche	9	Septiembre	2023-06-09T00:00:00	2024-11-06T19:00:00	8	Radiación solar	0
47777	7	Sololá	701	Sololá	3	Barraneche	9	Septiembre	2023-06-09T00:00:00	2024-11-06T20:00:00	2	Temperatura media	15.3
47778	7	Sololá	701	Sololá	3	Barraneche	9	Septiembre	2023-06-09T00:00:00	2024-11-06T20:00:00	4	Temperatura máxima	15.4
47779	7	Sololá	701	Sololá	3	Barraneche	9	Septiembre	2023-06-09T00:00:00	2024-11-06T20:00:00	3	Temperatura mínima	14.2
47780	7	Sololá	701	Sololá	3	Barraneche	9	Septiembre	2023-06-09T00:00:00	2024-11-06T20:00:00	5	Humedad	73
47781	7	Sololá	701	Sololá	3	Barraneche	9	Septiembre	2023-06-09T00:00:00	2024-11-06T20:00:00	6	Velocidad del viento	4.8
47782	7	Sololá	701	Sololá	3	Barraneche	9	Septiembre	2023-06-09T00:00:00	2024-11-06T20:00:00	7	Dirección del viento	4.83
47783	7	Sololá	701	Sololá	3	Barraneche	9	Septiembre	2023-06-09T00:00:00	2024-11-06T20:00:00	1	Precipitación	0
47784	7	Sololá	701	Sololá	3	Barraneche	9	Septiembre	2023-06-09T00:00:00	2024-11-06T20:00:00	8	Radiación solar	0
47785	7	Sololá	701	Sololá	3	Barraneche	9	Septiembre	2023-06-09T00:00:00	2024-11-06T21:00:00	2	Temperatura media	14.7
47786	7	Sololá	701	Sololá	3	Barraneche	9	Septiembre	2023-06-09T00:00:00	2024-11-06T21:00:00	4	Temperatura máxima	15.3
47787	7	Sololá	701	Sololá	3	Barraneche	9	Septiembre	2023-06-09T00:00:00	2024-11-06T21:00:00	3	Temperatura mínima	14.6
47788	7	Sololá	701	Sololá	3	Barraneche	9	Septiembre	2023-06-09T00:00:00	2024-11-06T21:00:00	5	Humedad	76
47789	7	Sololá	701	Sololá	3	Barraneche	9	Septiembre	2023-06-09T00:00:00	2024-11-06T21:00:00	6	Velocidad del viento	4.8
47790	7	Sololá	701	Sololá	3	Barraneche	9	Septiembre	2023-06-09T00:00:00	2024-11-06T21:00:00	7	Dirección del viento	4.83
47791	7	Sololá	701	Sololá	3	Barraneche	9	Septiembre	2023-06-09T00:00:00	2024-11-06T21:00:00	1	Precipitación	0
47792	7	Sololá	701	Sololá	3	Barraneche	9	Septiembre	2023-06-09T00:00:00	2024-11-06T21:00:00	8	Radiación solar	0
47793	7	Sololá	701	Sololá	3	Barraneche	9	Septiembre	2023-06-09T00:00:00	2024-11-06T22:00:00	2	Temperatura media	12.9
47794	7	Sololá	701	Sololá	3	Barraneche	9	Septiembre	2023-06-09T00:00:00	2024-11-06T22:00:00	4	Temperatura máxima	14.9
47795	7	Sololá	701	Sololá	3	Barraneche	9	Septiembre	2023-06-09T00:00:00	2024-11-06T22:00:00	3	Temperatura mínima	12.9
47796	7	Sololá	701	Sololá	3	Barraneche	9	Septiembre	2023-06-09T00:00:00	2024-11-06T22:00:00	5	Humedad	79
47797	7	Sololá	701	Sololá	3	Barraneche	9	Septiembre	2023-06-09T00:00:00	2024-11-06T22:00:00	6	Velocidad del viento	3.2
47798	7	Sololá	701	Sololá	3	Barraneche	9	Septiembre	2023-06-09T00:00:00	2024-11-06T22:00:00	7	Dirección del viento	3.22
47799	7	Sololá	701	Sololá	3	Barraneche	9	Septiembre	2023-06-09T00:00:00	2024-11-06T22:00:00	1	Precipitación	0
47800	7	Sololá	701	Sololá	3	Barraneche	9	Septiembre	2023-06-09T00:00:00	2024-11-06T22:00:00	8	Radiación solar	0
47801	7	Sololá	701	Sololá	3	Barraneche	9	Septiembre	2023-06-09T00:00:00	2024-11-06T23:00:00	2	Temperatura media	12.6
47802	7	Sololá	701	Sololá	3	Barraneche	9	Septiembre	2023-06-09T00:00:00	2024-11-06T23:00:00	4	Temperatura máxima	13.1
47803	7	Sololá	701	Sololá	3	Barraneche	9	Septiembre	2023-06-09T00:00:00	2024-11-06T23:00:00	3	Temperatura mínima	12.5
47804	7	Sololá	701	Sololá	3	Barraneche	9	Septiembre	2023-06-09T00:00:00	2024-11-06T23:00:00	5	Humedad	79
47805	7	Sololá	701	Sololá	3	Barraneche	9	Septiembre	2023-06-09T00:00:00	2024-11-06T23:00:00	6	Velocidad del viento	3.2
47806	7	Sololá	701	Sololá	3	Barraneche	9	Septiembre	2023-06-09T00:00:00	2024-11-06T23:00:00	7	Dirección del viento	3.22
47807	7	Sololá	701	Sololá	3	Barraneche	9	Septiembre	2023-06-09T00:00:00	2024-11-06T23:00:00	1	Precipitación	0
47808	7	Sololá	701	Sololá	3	Barraneche	9	Septiembre	2023-06-09T00:00:00	2024-11-06T23:00:00	8	Radiación solar	0
47809	7	Sololá	701	Sololá	3	Barraneche	9	Septiembre	2023-07-09T00:00:00	2024-11-06T00:00:00	2	Temperatura media	12.9
47810	7	Sololá	701	Sololá	3	Barraneche	9	Septiembre	2023-07-09T00:00:00	2024-11-06T00:00:00	4	Temperatura máxima	12.9
47811	7	Sololá	701	Sololá	3	Barraneche	9	Septiembre	2023-07-09T00:00:00	2024-11-06T00:00:00	3	Temperatura mínima	12.2
47812	7	Sololá	701	Sololá	3	Barraneche	9	Septiembre	2023-07-09T00:00:00	2024-11-06T00:00:00	5	Humedad	78
47813	7	Sololá	701	Sololá	3	Barraneche	9	Septiembre	2023-07-09T00:00:00	2024-11-06T00:00:00	6	Velocidad del viento	4.8
47814	7	Sololá	701	Sololá	3	Barraneche	9	Septiembre	2023-07-09T00:00:00	2024-11-06T00:00:00	7	Dirección del viento	4.83
47815	7	Sololá	701	Sololá	3	Barraneche	9	Septiembre	2023-07-09T00:00:00	2024-11-06T00:00:00	1	Precipitación	0
47816	7	Sololá	701	Sololá	3	Barraneche	9	Septiembre	2023-07-09T00:00:00	2024-11-06T00:00:00	8	Radiación solar	0
47817	7	Sololá	701	Sololá	3	Barraneche	9	Septiembre	2023-07-09T00:00:00	2024-11-06T01:00:00	2	Temperatura media	12.3
47818	7	Sololá	701	Sololá	3	Barraneche	9	Septiembre	2023-07-09T00:00:00	2024-11-06T01:00:00	4	Temperatura máxima	12.9
47819	7	Sololá	701	Sololá	3	Barraneche	9	Septiembre	2023-07-09T00:00:00	2024-11-06T01:00:00	3	Temperatura mínima	12.1
47820	7	Sololá	701	Sololá	3	Barraneche	9	Septiembre	2023-07-09T00:00:00	2024-11-06T01:00:00	5	Humedad	79
47821	7	Sololá	701	Sololá	3	Barraneche	9	Septiembre	2023-07-09T00:00:00	2024-11-06T01:00:00	6	Velocidad del viento	4.8
47822	7	Sololá	701	Sololá	3	Barraneche	9	Septiembre	2023-07-09T00:00:00	2024-11-06T01:00:00	7	Dirección del viento	4.83
47823	7	Sololá	701	Sololá	3	Barraneche	9	Septiembre	2023-07-09T00:00:00	2024-11-06T01:00:00	1	Precipitación	0
47824	7	Sololá	701	Sololá	3	Barraneche	9	Septiembre	2023-07-09T00:00:00	2024-11-06T01:00:00	8	Radiación solar	0
47825	7	Sololá	701	Sololá	3	Barraneche	9	Septiembre	2023-07-09T00:00:00	2024-11-06T02:00:00	2	Temperatura media	11.8
47826	7	Sololá	701	Sololá	3	Barraneche	9	Septiembre	2023-07-09T00:00:00	2024-11-06T02:00:00	4	Temperatura máxima	12.4
47827	7	Sololá	701	Sololá	3	Barraneche	9	Septiembre	2023-07-09T00:00:00	2024-11-06T02:00:00	3	Temperatura mínima	11.6
47828	7	Sololá	701	Sololá	3	Barraneche	9	Septiembre	2023-07-09T00:00:00	2024-11-06T02:00:00	5	Humedad	80
47829	7	Sololá	701	Sololá	3	Barraneche	9	Septiembre	2023-07-09T00:00:00	2024-11-06T02:00:00	6	Velocidad del viento	3.2
47830	7	Sololá	701	Sololá	3	Barraneche	9	Septiembre	2023-07-09T00:00:00	2024-11-06T02:00:00	7	Dirección del viento	3.22
47831	7	Sololá	701	Sololá	3	Barraneche	9	Septiembre	2023-07-09T00:00:00	2024-11-06T02:00:00	1	Precipitación	0
47832	7	Sololá	701	Sololá	3	Barraneche	9	Septiembre	2023-07-09T00:00:00	2024-11-06T02:00:00	8	Radiación solar	0
47833	7	Sololá	701	Sololá	3	Barraneche	9	Septiembre	2023-07-09T00:00:00	2024-11-06T03:00:00	2	Temperatura media	11.9
47834	7	Sololá	701	Sololá	3	Barraneche	9	Septiembre	2023-07-09T00:00:00	2024-11-06T03:00:00	4	Temperatura máxima	11.9
47835	7	Sololá	701	Sololá	3	Barraneche	9	Septiembre	2023-07-09T00:00:00	2024-11-06T03:00:00	3	Temperatura mínima	11.7
47836	7	Sololá	701	Sololá	3	Barraneche	9	Septiembre	2023-07-09T00:00:00	2024-11-06T03:00:00	5	Humedad	80
47837	7	Sololá	701	Sololá	3	Barraneche	9	Septiembre	2023-07-09T00:00:00	2024-11-06T03:00:00	6	Velocidad del viento	3.2
47838	7	Sololá	701	Sololá	3	Barraneche	9	Septiembre	2023-07-09T00:00:00	2024-11-06T03:00:00	7	Dirección del viento	3.22
47839	7	Sololá	701	Sololá	3	Barraneche	9	Septiembre	2023-07-09T00:00:00	2024-11-06T03:00:00	1	Precipitación	0
47840	7	Sololá	701	Sololá	3	Barraneche	9	Septiembre	2023-07-09T00:00:00	2024-11-06T03:00:00	8	Radiación solar	0
47841	7	Sololá	701	Sololá	3	Barraneche	9	Septiembre	2023-07-09T00:00:00	2024-11-06T04:00:00	2	Temperatura media	11.7
47842	7	Sololá	701	Sololá	3	Barraneche	9	Septiembre	2023-07-09T00:00:00	2024-11-06T04:00:00	4	Temperatura máxima	12.1
47843	7	Sololá	701	Sololá	3	Barraneche	9	Septiembre	2023-07-09T00:00:00	2024-11-06T04:00:00	3	Temperatura mínima	11.3
47844	7	Sololá	701	Sololá	3	Barraneche	9	Septiembre	2023-07-09T00:00:00	2024-11-06T04:00:00	5	Humedad	81
47845	7	Sololá	701	Sololá	3	Barraneche	9	Septiembre	2023-07-09T00:00:00	2024-11-06T04:00:00	6	Velocidad del viento	3.2
47846	7	Sololá	701	Sololá	3	Barraneche	9	Septiembre	2023-07-09T00:00:00	2024-11-06T04:00:00	7	Dirección del viento	3.22
47847	7	Sololá	701	Sololá	3	Barraneche	9	Septiembre	2023-07-09T00:00:00	2024-11-06T04:00:00	1	Precipitación	0
47848	7	Sololá	701	Sololá	3	Barraneche	9	Septiembre	2023-07-09T00:00:00	2024-11-06T04:00:00	8	Radiación solar	0
47849	7	Sololá	701	Sololá	3	Barraneche	9	Septiembre	2023-07-09T00:00:00	2024-11-06T05:00:00	2	Temperatura media	11.3
47850	7	Sololá	701	Sololá	3	Barraneche	9	Septiembre	2023-07-09T00:00:00	2024-11-06T05:00:00	4	Temperatura máxima	11.9
47851	7	Sololá	701	Sololá	3	Barraneche	9	Septiembre	2023-07-09T00:00:00	2024-11-06T05:00:00	3	Temperatura mínima	11.3
47852	7	Sololá	701	Sololá	3	Barraneche	9	Septiembre	2023-07-09T00:00:00	2024-11-06T05:00:00	5	Humedad	80
47853	7	Sololá	701	Sololá	3	Barraneche	9	Septiembre	2023-07-09T00:00:00	2024-11-06T05:00:00	6	Velocidad del viento	3.2
47854	7	Sololá	701	Sololá	3	Barraneche	9	Septiembre	2023-07-09T00:00:00	2024-11-06T05:00:00	7	Dirección del viento	3.22
47855	7	Sololá	701	Sololá	3	Barraneche	9	Septiembre	2023-07-09T00:00:00	2024-11-06T05:00:00	1	Precipitación	0
47856	7	Sololá	701	Sololá	3	Barraneche	9	Septiembre	2023-07-09T00:00:00	2024-11-06T05:00:00	8	Radiación solar	0
47857	7	Sololá	701	Sololá	3	Barraneche	9	Septiembre	2023-07-09T00:00:00	2024-11-06T06:00:00	2	Temperatura media	11.7
47858	7	Sololá	701	Sololá	3	Barraneche	9	Septiembre	2023-07-09T00:00:00	2024-11-06T06:00:00	4	Temperatura máxima	12.2
47859	7	Sololá	701	Sololá	3	Barraneche	9	Septiembre	2023-07-09T00:00:00	2024-11-06T06:00:00	3	Temperatura mínima	11.3
47860	7	Sololá	701	Sololá	3	Barraneche	9	Septiembre	2023-07-09T00:00:00	2024-11-06T06:00:00	5	Humedad	80
47861	7	Sololá	701	Sololá	3	Barraneche	9	Septiembre	2023-07-09T00:00:00	2024-11-06T06:00:00	6	Velocidad del viento	1.6
47862	7	Sololá	701	Sololá	3	Barraneche	9	Septiembre	2023-07-09T00:00:00	2024-11-06T06:00:00	7	Dirección del viento	1.61
47863	7	Sololá	701	Sololá	3	Barraneche	9	Septiembre	2023-07-09T00:00:00	2024-11-06T06:00:00	1	Precipitación	0
47864	7	Sololá	701	Sololá	3	Barraneche	9	Septiembre	2023-07-09T00:00:00	2024-11-06T06:00:00	8	Radiación solar	0
47865	7	Sololá	701	Sololá	3	Barraneche	9	Septiembre	2023-07-09T00:00:00	2024-11-06T07:00:00	2	Temperatura media	12.8
47866	7	Sololá	701	Sololá	3	Barraneche	9	Septiembre	2023-07-09T00:00:00	2024-11-06T07:00:00	4	Temperatura máxima	12.8
47867	7	Sololá	701	Sololá	3	Barraneche	9	Septiembre	2023-07-09T00:00:00	2024-11-06T07:00:00	3	Temperatura mínima	11.7
47868	7	Sololá	701	Sololá	3	Barraneche	9	Septiembre	2023-07-09T00:00:00	2024-11-06T07:00:00	5	Humedad	80
47869	7	Sololá	701	Sololá	3	Barraneche	9	Septiembre	2023-07-09T00:00:00	2024-11-06T07:00:00	6	Velocidad del viento	1.6
47870	7	Sololá	701	Sololá	3	Barraneche	9	Septiembre	2023-07-09T00:00:00	2024-11-06T07:00:00	7	Dirección del viento	1.61
47871	7	Sololá	701	Sololá	3	Barraneche	9	Septiembre	2023-07-09T00:00:00	2024-11-06T07:00:00	1	Precipitación	0
47872	7	Sololá	701	Sololá	3	Barraneche	9	Septiembre	2023-07-09T00:00:00	2024-11-06T07:00:00	8	Radiación solar	66
47873	7	Sololá	701	Sololá	3	Barraneche	9	Septiembre	2023-07-09T00:00:00	2024-11-06T08:00:00	2	Temperatura media	17.2
47874	7	Sololá	701	Sololá	3	Barraneche	9	Septiembre	2023-07-09T00:00:00	2024-11-06T08:00:00	4	Temperatura máxima	17.2
47875	7	Sololá	701	Sololá	3	Barraneche	9	Septiembre	2023-07-09T00:00:00	2024-11-06T08:00:00	3	Temperatura mínima	12.8
47876	7	Sololá	701	Sololá	3	Barraneche	9	Septiembre	2023-07-09T00:00:00	2024-11-06T08:00:00	5	Humedad	68
47877	7	Sololá	701	Sololá	3	Barraneche	9	Septiembre	2023-07-09T00:00:00	2024-11-06T08:00:00	6	Velocidad del viento	4.8
47878	7	Sololá	701	Sololá	3	Barraneche	9	Septiembre	2023-07-09T00:00:00	2024-11-06T08:00:00	7	Dirección del viento	4.83
47879	7	Sololá	701	Sololá	3	Barraneche	9	Septiembre	2023-07-09T00:00:00	2024-11-06T08:00:00	1	Precipitación	0
47880	7	Sololá	701	Sololá	3	Barraneche	9	Septiembre	2023-07-09T00:00:00	2024-11-06T08:00:00	8	Radiación solar	349
47881	7	Sololá	701	Sololá	3	Barraneche	9	Septiembre	2023-07-09T00:00:00	2024-11-06T09:00:00	2	Temperatura media	18.9
47882	7	Sololá	701	Sololá	3	Barraneche	9	Septiembre	2023-07-09T00:00:00	2024-11-06T09:00:00	4	Temperatura máxima	18.9
47883	7	Sololá	701	Sololá	3	Barraneche	9	Septiembre	2023-07-09T00:00:00	2024-11-06T09:00:00	3	Temperatura mínima	17.2
47884	7	Sololá	701	Sololá	3	Barraneche	9	Septiembre	2023-07-09T00:00:00	2024-11-06T09:00:00	5	Humedad	63
47885	7	Sololá	701	Sololá	3	Barraneche	9	Septiembre	2023-07-09T00:00:00	2024-11-06T09:00:00	6	Velocidad del viento	6.4
47886	7	Sololá	701	Sololá	3	Barraneche	9	Septiembre	2023-07-09T00:00:00	2024-11-06T09:00:00	7	Dirección del viento	6.44
47887	7	Sololá	701	Sololá	3	Barraneche	9	Septiembre	2023-07-09T00:00:00	2024-11-06T09:00:00	1	Precipitación	0
47888	7	Sololá	701	Sololá	3	Barraneche	9	Septiembre	2023-07-09T00:00:00	2024-11-06T09:00:00	8	Radiación solar	599
47889	7	Sololá	701	Sololá	3	Barraneche	9	Septiembre	2023-07-09T00:00:00	2024-11-06T10:00:00	2	Temperatura media	20.1
47890	7	Sololá	701	Sololá	3	Barraneche	9	Septiembre	2023-07-09T00:00:00	2024-11-06T10:00:00	4	Temperatura máxima	20.1
47891	7	Sololá	701	Sololá	3	Barraneche	9	Septiembre	2023-07-09T00:00:00	2024-11-06T10:00:00	3	Temperatura mínima	18.9
47892	7	Sololá	701	Sololá	3	Barraneche	9	Septiembre	2023-07-09T00:00:00	2024-11-06T10:00:00	5	Humedad	44
47893	7	Sololá	701	Sololá	3	Barraneche	9	Septiembre	2023-07-09T00:00:00	2024-11-06T10:00:00	6	Velocidad del viento	9.7
47894	7	Sololá	701	Sololá	3	Barraneche	9	Septiembre	2023-07-09T00:00:00	2024-11-06T10:00:00	7	Dirección del viento	9.66
47895	7	Sololá	701	Sololá	3	Barraneche	9	Septiembre	2023-07-09T00:00:00	2024-11-06T10:00:00	1	Precipitación	0
47896	7	Sololá	701	Sololá	3	Barraneche	9	Septiembre	2023-07-09T00:00:00	2024-11-06T10:00:00	8	Radiación solar	774
47897	7	Sololá	701	Sololá	3	Barraneche	9	Septiembre	2023-07-09T00:00:00	2024-11-06T11:00:00	2	Temperatura media	20.8
47898	7	Sololá	701	Sololá	3	Barraneche	9	Septiembre	2023-07-09T00:00:00	2024-11-06T11:00:00	4	Temperatura máxima	21.1
47899	7	Sololá	701	Sololá	3	Barraneche	9	Septiembre	2023-07-09T00:00:00	2024-11-06T11:00:00	3	Temperatura mínima	20.1
47900	7	Sololá	701	Sololá	3	Barraneche	9	Septiembre	2023-07-09T00:00:00	2024-11-06T11:00:00	5	Humedad	43
47901	7	Sololá	701	Sololá	3	Barraneche	9	Septiembre	2023-07-09T00:00:00	2024-11-06T11:00:00	6	Velocidad del viento	11.3
47902	7	Sololá	701	Sololá	3	Barraneche	9	Septiembre	2023-07-09T00:00:00	2024-11-06T11:00:00	7	Dirección del viento	11.27
47903	7	Sololá	701	Sololá	3	Barraneche	9	Septiembre	2023-07-09T00:00:00	2024-11-06T11:00:00	1	Precipitación	0
47904	7	Sololá	701	Sololá	3	Barraneche	9	Septiembre	2023-07-09T00:00:00	2024-11-06T11:00:00	8	Radiación solar	858
47905	7	Sololá	701	Sololá	3	Barraneche	9	Septiembre	2023-07-09T00:00:00	2024-11-06T12:00:00	2	Temperatura media	21.9
47906	7	Sololá	701	Sololá	3	Barraneche	9	Septiembre	2023-07-09T00:00:00	2024-11-06T12:00:00	4	Temperatura máxima	21.9
47907	7	Sololá	701	Sololá	3	Barraneche	9	Septiembre	2023-07-09T00:00:00	2024-11-06T12:00:00	3	Temperatura mínima	20.8
47908	7	Sololá	701	Sololá	3	Barraneche	9	Septiembre	2023-07-09T00:00:00	2024-11-06T12:00:00	5	Humedad	37
47909	7	Sololá	701	Sololá	3	Barraneche	9	Septiembre	2023-07-09T00:00:00	2024-11-06T12:00:00	6	Velocidad del viento	9.7
47910	7	Sololá	701	Sololá	3	Barraneche	9	Septiembre	2023-07-09T00:00:00	2024-11-06T12:00:00	7	Dirección del viento	9.66
47911	7	Sololá	701	Sololá	3	Barraneche	9	Septiembre	2023-07-09T00:00:00	2024-11-06T12:00:00	1	Precipitación	0
47912	7	Sololá	701	Sololá	3	Barraneche	9	Septiembre	2023-07-09T00:00:00	2024-11-06T12:00:00	8	Radiación solar	920
47913	7	Sololá	701	Sololá	3	Barraneche	9	Septiembre	2023-07-09T00:00:00	2024-11-06T13:00:00	2	Temperatura media	22.3
47914	7	Sololá	701	Sololá	3	Barraneche	9	Septiembre	2023-07-09T00:00:00	2024-11-06T13:00:00	4	Temperatura máxima	22.4
47915	7	Sololá	701	Sololá	3	Barraneche	9	Septiembre	2023-07-09T00:00:00	2024-11-06T13:00:00	3	Temperatura mínima	21.8
47916	7	Sololá	701	Sololá	3	Barraneche	9	Septiembre	2023-07-09T00:00:00	2024-11-06T13:00:00	5	Humedad	42
47917	7	Sololá	701	Sololá	3	Barraneche	9	Septiembre	2023-07-09T00:00:00	2024-11-06T13:00:00	6	Velocidad del viento	8
47918	7	Sololá	701	Sololá	3	Barraneche	9	Septiembre	2023-07-09T00:00:00	2024-11-06T13:00:00	7	Dirección del viento	8.05
47919	7	Sololá	701	Sololá	3	Barraneche	9	Septiembre	2023-07-09T00:00:00	2024-11-06T13:00:00	1	Precipitación	0
47920	7	Sololá	701	Sololá	3	Barraneche	9	Septiembre	2023-07-09T00:00:00	2024-11-06T13:00:00	8	Radiación solar	963
47921	7	Sololá	701	Sololá	3	Barraneche	9	Septiembre	2023-07-09T00:00:00	2024-11-06T14:00:00	2	Temperatura media	21.9
47922	7	Sololá	701	Sololá	3	Barraneche	9	Septiembre	2023-07-09T00:00:00	2024-11-06T14:00:00	4	Temperatura máxima	23.1
47923	7	Sololá	701	Sololá	3	Barraneche	9	Septiembre	2023-07-09T00:00:00	2024-11-06T14:00:00	3	Temperatura mínima	21.9
47924	7	Sololá	701	Sololá	3	Barraneche	9	Septiembre	2023-07-09T00:00:00	2024-11-06T14:00:00	5	Humedad	59
47925	7	Sololá	701	Sololá	3	Barraneche	9	Septiembre	2023-07-09T00:00:00	2024-11-06T14:00:00	6	Velocidad del viento	9.7
47926	7	Sololá	701	Sololá	3	Barraneche	9	Septiembre	2023-07-09T00:00:00	2024-11-06T14:00:00	7	Dirección del viento	9.66
47927	7	Sololá	701	Sololá	3	Barraneche	9	Septiembre	2023-07-09T00:00:00	2024-11-06T14:00:00	1	Precipitación	0
47928	7	Sololá	701	Sololá	3	Barraneche	9	Septiembre	2023-07-09T00:00:00	2024-11-06T14:00:00	8	Radiación solar	883
47929	7	Sololá	701	Sololá	3	Barraneche	9	Septiembre	2023-07-09T00:00:00	2024-11-06T15:00:00	2	Temperatura media	18.4
47930	7	Sololá	701	Sololá	3	Barraneche	9	Septiembre	2023-07-09T00:00:00	2024-11-06T15:00:00	4	Temperatura máxima	21.9
47931	7	Sololá	701	Sololá	3	Barraneche	9	Septiembre	2023-07-09T00:00:00	2024-11-06T15:00:00	3	Temperatura mínima	18
47932	7	Sololá	701	Sololá	3	Barraneche	9	Septiembre	2023-07-09T00:00:00	2024-11-06T15:00:00	5	Humedad	68
47933	7	Sololá	701	Sololá	3	Barraneche	9	Septiembre	2023-07-09T00:00:00	2024-11-06T15:00:00	6	Velocidad del viento	16.1
47934	7	Sololá	701	Sololá	3	Barraneche	9	Septiembre	2023-07-09T00:00:00	2024-11-06T15:00:00	7	Dirección del viento	16.09
47935	7	Sololá	701	Sololá	3	Barraneche	9	Septiembre	2023-07-09T00:00:00	2024-11-06T15:00:00	1	Precipitación	0
47936	7	Sololá	701	Sololá	3	Barraneche	9	Septiembre	2023-07-09T00:00:00	2024-11-06T15:00:00	8	Radiación solar	515
47937	7	Sololá	701	Sololá	3	Barraneche	9	Septiembre	2023-07-09T00:00:00	2024-11-06T16:00:00	2	Temperatura media	17.2
47938	7	Sololá	701	Sololá	3	Barraneche	9	Septiembre	2023-07-09T00:00:00	2024-11-06T16:00:00	4	Temperatura máxima	18.4
47939	7	Sololá	701	Sololá	3	Barraneche	9	Septiembre	2023-07-09T00:00:00	2024-11-06T16:00:00	3	Temperatura mínima	17.2
47940	7	Sololá	701	Sololá	3	Barraneche	9	Septiembre	2023-07-09T00:00:00	2024-11-06T16:00:00	5	Humedad	71
47941	7	Sololá	701	Sololá	3	Barraneche	9	Septiembre	2023-07-09T00:00:00	2024-11-06T16:00:00	6	Velocidad del viento	11.3
47942	7	Sololá	701	Sololá	3	Barraneche	9	Septiembre	2023-07-09T00:00:00	2024-11-06T16:00:00	7	Dirección del viento	11.27
47943	7	Sololá	701	Sololá	3	Barraneche	9	Septiembre	2023-07-09T00:00:00	2024-11-06T16:00:00	1	Precipitación	0
47944	7	Sololá	701	Sololá	3	Barraneche	9	Septiembre	2023-07-09T00:00:00	2024-11-06T16:00:00	8	Radiación solar	250
47945	7	Sololá	701	Sololá	3	Barraneche	9	Septiembre	2023-07-09T00:00:00	2024-11-06T17:00:00	2	Temperatura media	16.5
47946	7	Sololá	701	Sololá	3	Barraneche	9	Septiembre	2023-07-09T00:00:00	2024-11-06T17:00:00	4	Temperatura máxima	17.2
47947	7	Sololá	701	Sololá	3	Barraneche	9	Septiembre	2023-07-09T00:00:00	2024-11-06T17:00:00	3	Temperatura mínima	16.5
47948	7	Sololá	701	Sololá	3	Barraneche	9	Septiembre	2023-07-09T00:00:00	2024-11-06T17:00:00	5	Humedad	75
47949	7	Sololá	701	Sololá	3	Barraneche	9	Septiembre	2023-07-09T00:00:00	2024-11-06T17:00:00	6	Velocidad del viento	8
47950	7	Sololá	701	Sololá	3	Barraneche	9	Septiembre	2023-07-09T00:00:00	2024-11-06T17:00:00	7	Dirección del viento	8.05
47951	7	Sololá	701	Sololá	3	Barraneche	9	Septiembre	2023-07-09T00:00:00	2024-11-06T17:00:00	1	Precipitación	0
47952	7	Sololá	701	Sololá	3	Barraneche	9	Septiembre	2023-07-09T00:00:00	2024-11-06T17:00:00	8	Radiación solar	96
47953	7	Sololá	701	Sololá	3	Barraneche	9	Septiembre	2023-07-09T00:00:00	2024-11-06T18:00:00	2	Temperatura media	14.6
47954	7	Sololá	701	Sololá	3	Barraneche	9	Septiembre	2023-07-09T00:00:00	2024-11-06T18:00:00	4	Temperatura máxima	16.6
47955	7	Sololá	701	Sololá	3	Barraneche	9	Septiembre	2023-07-09T00:00:00	2024-11-06T18:00:00	3	Temperatura mínima	14.6
47956	7	Sololá	701	Sololá	3	Barraneche	9	Septiembre	2023-07-09T00:00:00	2024-11-06T18:00:00	5	Humedad	65
47957	7	Sololá	701	Sololá	3	Barraneche	9	Septiembre	2023-07-09T00:00:00	2024-11-06T18:00:00	6	Velocidad del viento	11.3
47958	7	Sololá	701	Sololá	3	Barraneche	9	Septiembre	2023-07-09T00:00:00	2024-11-06T18:00:00	7	Dirección del viento	11.27
47959	7	Sololá	701	Sololá	3	Barraneche	9	Septiembre	2023-07-09T00:00:00	2024-11-06T18:00:00	1	Precipitación	0.4
47960	7	Sololá	701	Sololá	3	Barraneche	9	Septiembre	2023-07-09T00:00:00	2024-11-06T18:00:00	8	Radiación solar	22
47961	7	Sololá	701	Sololá	3	Barraneche	9	Septiembre	2023-07-09T00:00:00	2024-11-06T19:00:00	2	Temperatura media	14.6
47962	7	Sololá	701	Sololá	3	Barraneche	9	Septiembre	2023-07-09T00:00:00	2024-11-06T19:00:00	4	Temperatura máxima	14.8
47963	7	Sololá	701	Sololá	3	Barraneche	9	Septiembre	2023-07-09T00:00:00	2024-11-06T19:00:00	3	Temperatura mínima	14.5
47964	7	Sololá	701	Sololá	3	Barraneche	9	Septiembre	2023-07-09T00:00:00	2024-11-06T19:00:00	5	Humedad	70
47965	7	Sololá	701	Sololá	3	Barraneche	9	Septiembre	2023-07-09T00:00:00	2024-11-06T19:00:00	6	Velocidad del viento	3.2
47966	7	Sololá	701	Sololá	3	Barraneche	9	Septiembre	2023-07-09T00:00:00	2024-11-06T19:00:00	7	Dirección del viento	3.22
47967	7	Sololá	701	Sololá	3	Barraneche	9	Septiembre	2023-07-09T00:00:00	2024-11-06T19:00:00	1	Precipitación	0
47968	7	Sololá	701	Sololá	3	Barraneche	9	Septiembre	2023-07-09T00:00:00	2024-11-06T19:00:00	8	Radiación solar	0
47969	7	Sololá	701	Sololá	3	Barraneche	9	Septiembre	2023-07-09T00:00:00	2024-11-06T20:00:00	2	Temperatura media	14.7
47970	7	Sololá	701	Sololá	3	Barraneche	9	Septiembre	2023-07-09T00:00:00	2024-11-06T20:00:00	4	Temperatura máxima	14.8
47971	7	Sololá	701	Sololá	3	Barraneche	9	Septiembre	2023-07-09T00:00:00	2024-11-06T20:00:00	3	Temperatura mínima	14.4
47972	7	Sololá	701	Sololá	3	Barraneche	9	Septiembre	2023-07-09T00:00:00	2024-11-06T20:00:00	5	Humedad	69
47973	7	Sololá	701	Sololá	3	Barraneche	9	Septiembre	2023-07-09T00:00:00	2024-11-06T20:00:00	6	Velocidad del viento	11.3
47974	7	Sololá	701	Sololá	3	Barraneche	9	Septiembre	2023-07-09T00:00:00	2024-11-06T20:00:00	7	Dirección del viento	11.27
47975	7	Sololá	701	Sololá	3	Barraneche	9	Septiembre	2023-07-09T00:00:00	2024-11-06T20:00:00	1	Precipitación	0
47976	7	Sololá	701	Sololá	3	Barraneche	9	Septiembre	2023-07-09T00:00:00	2024-11-06T20:00:00	8	Radiación solar	0
47977	7	Sololá	701	Sololá	3	Barraneche	9	Septiembre	2023-07-09T00:00:00	2024-11-06T21:00:00	2	Temperatura media	15.2
47978	7	Sololá	701	Sololá	3	Barraneche	9	Septiembre	2023-07-09T00:00:00	2024-11-06T21:00:00	4	Temperatura máxima	15.2
47979	7	Sololá	701	Sololá	3	Barraneche	9	Septiembre	2023-07-09T00:00:00	2024-11-06T21:00:00	3	Temperatura mínima	14.7
47980	7	Sololá	701	Sololá	3	Barraneche	9	Septiembre	2023-07-09T00:00:00	2024-11-06T21:00:00	5	Humedad	65
47981	7	Sololá	701	Sololá	3	Barraneche	9	Septiembre	2023-07-09T00:00:00	2024-11-06T21:00:00	6	Velocidad del viento	8
47982	7	Sololá	701	Sololá	3	Barraneche	9	Septiembre	2023-07-09T00:00:00	2024-11-06T21:00:00	7	Dirección del viento	8.05
47983	7	Sololá	701	Sololá	3	Barraneche	9	Septiembre	2023-07-09T00:00:00	2024-11-06T21:00:00	1	Precipitación	0
47984	7	Sololá	701	Sololá	3	Barraneche	9	Septiembre	2023-07-09T00:00:00	2024-11-06T21:00:00	8	Radiación solar	0
47985	7	Sololá	701	Sololá	3	Barraneche	9	Septiembre	2023-07-09T00:00:00	2024-11-06T22:00:00	2	Temperatura media	15.1
47986	7	Sololá	701	Sololá	3	Barraneche	9	Septiembre	2023-07-09T00:00:00	2024-11-06T22:00:00	4	Temperatura máxima	15.2
47987	7	Sololá	701	Sololá	3	Barraneche	9	Septiembre	2023-07-09T00:00:00	2024-11-06T22:00:00	3	Temperatura mínima	14.9
47988	7	Sololá	701	Sololá	3	Barraneche	9	Septiembre	2023-07-09T00:00:00	2024-11-06T22:00:00	5	Humedad	65
47989	7	Sololá	701	Sololá	3	Barraneche	9	Septiembre	2023-07-09T00:00:00	2024-11-06T22:00:00	6	Velocidad del viento	9.7
47990	7	Sololá	701	Sololá	3	Barraneche	9	Septiembre	2023-07-09T00:00:00	2024-11-06T22:00:00	7	Dirección del viento	9.66
47991	7	Sololá	701	Sololá	3	Barraneche	9	Septiembre	2023-07-09T00:00:00	2024-11-06T22:00:00	1	Precipitación	0
47992	7	Sololá	701	Sololá	3	Barraneche	9	Septiembre	2023-07-09T00:00:00	2024-11-06T22:00:00	8	Radiación solar	0
47993	7	Sololá	701	Sololá	3	Barraneche	9	Septiembre	2023-07-09T00:00:00	2024-11-06T23:00:00	2	Temperatura media	14.8
47994	7	Sololá	701	Sololá	3	Barraneche	9	Septiembre	2023-07-09T00:00:00	2024-11-06T23:00:00	4	Temperatura máxima	15.1
47995	7	Sololá	701	Sololá	3	Barraneche	9	Septiembre	2023-07-09T00:00:00	2024-11-06T23:00:00	3	Temperatura mínima	14.8
47996	7	Sololá	701	Sololá	3	Barraneche	9	Septiembre	2023-07-09T00:00:00	2024-11-06T23:00:00	5	Humedad	63
47997	7	Sololá	701	Sololá	3	Barraneche	9	Septiembre	2023-07-09T00:00:00	2024-11-06T23:00:00	6	Velocidad del viento	9.7
47998	7	Sololá	701	Sololá	3	Barraneche	9	Septiembre	2023-07-09T00:00:00	2024-11-06T23:00:00	7	Dirección del viento	9.66
47999	7	Sololá	701	Sololá	3	Barraneche	9	Septiembre	2023-07-09T00:00:00	2024-11-06T23:00:00	1	Precipitación	0
48000	7	Sololá	701	Sololá	3	Barraneche	9	Septiembre	2023-07-09T00:00:00	2024-11-06T23:00:00	8	Radiación solar	0
48001	7	Sololá	701	Sololá	3	Barraneche	9	Septiembre	2023-08-09T00:00:00	2024-11-06T00:00:00	2	Temperatura media	13.9
48002	7	Sololá	701	Sololá	3	Barraneche	9	Septiembre	2023-08-09T00:00:00	2024-11-06T00:00:00	4	Temperatura máxima	14.9
48003	7	Sololá	701	Sololá	3	Barraneche	9	Septiembre	2023-08-09T00:00:00	2024-11-06T00:00:00	3	Temperatura mínima	13.9
48004	7	Sololá	701	Sololá	3	Barraneche	9	Septiembre	2023-08-09T00:00:00	2024-11-06T00:00:00	5	Humedad	62
48005	7	Sololá	701	Sololá	3	Barraneche	9	Septiembre	2023-08-09T00:00:00	2024-11-06T00:00:00	6	Velocidad del viento	6.4
48006	7	Sololá	701	Sololá	3	Barraneche	9	Septiembre	2023-08-09T00:00:00	2024-11-06T00:00:00	7	Dirección del viento	6.44
48007	7	Sololá	701	Sololá	3	Barraneche	9	Septiembre	2023-08-09T00:00:00	2024-11-06T00:00:00	1	Precipitación	0
48008	7	Sololá	701	Sololá	3	Barraneche	9	Septiembre	2023-08-09T00:00:00	2024-11-06T00:00:00	8	Radiación solar	0
48009	7	Sololá	701	Sololá	3	Barraneche	9	Septiembre	2023-08-09T00:00:00	2024-11-06T01:00:00	2	Temperatura media	13.5
48010	7	Sololá	701	Sololá	3	Barraneche	9	Septiembre	2023-08-09T00:00:00	2024-11-06T01:00:00	4	Temperatura máxima	14.1
48011	7	Sololá	701	Sololá	3	Barraneche	9	Septiembre	2023-08-09T00:00:00	2024-11-06T01:00:00	3	Temperatura mínima	13.5
48012	7	Sololá	701	Sololá	3	Barraneche	9	Septiembre	2023-08-09T00:00:00	2024-11-06T01:00:00	5	Humedad	63
48013	7	Sololá	701	Sololá	3	Barraneche	9	Septiembre	2023-08-09T00:00:00	2024-11-06T01:00:00	6	Velocidad del viento	6.4
48014	7	Sololá	701	Sololá	3	Barraneche	9	Septiembre	2023-08-09T00:00:00	2024-11-06T01:00:00	7	Dirección del viento	6.44
48015	7	Sololá	701	Sololá	3	Barraneche	9	Septiembre	2023-08-09T00:00:00	2024-11-06T01:00:00	1	Precipitación	0
48016	7	Sololá	701	Sololá	3	Barraneche	9	Septiembre	2023-08-09T00:00:00	2024-11-06T01:00:00	8	Radiación solar	0
48017	7	Sololá	701	Sololá	3	Barraneche	9	Septiembre	2023-08-09T00:00:00	2024-11-06T02:00:00	2	Temperatura media	13.2
48018	7	Sololá	701	Sololá	3	Barraneche	9	Septiembre	2023-08-09T00:00:00	2024-11-06T02:00:00	4	Temperatura máxima	13.5
48019	7	Sololá	701	Sololá	3	Barraneche	9	Septiembre	2023-08-09T00:00:00	2024-11-06T02:00:00	3	Temperatura mínima	12.7
48020	7	Sololá	701	Sololá	3	Barraneche	9	Septiembre	2023-08-09T00:00:00	2024-11-06T02:00:00	5	Humedad	64
48021	7	Sololá	701	Sololá	3	Barraneche	9	Septiembre	2023-08-09T00:00:00	2024-11-06T02:00:00	6	Velocidad del viento	4.8
48022	7	Sololá	701	Sololá	3	Barraneche	9	Septiembre	2023-08-09T00:00:00	2024-11-06T02:00:00	7	Dirección del viento	4.83
48023	7	Sololá	701	Sololá	3	Barraneche	9	Septiembre	2023-08-09T00:00:00	2024-11-06T02:00:00	1	Precipitación	0
48024	7	Sololá	701	Sololá	3	Barraneche	9	Septiembre	2023-08-09T00:00:00	2024-11-06T02:00:00	8	Radiación solar	0
48025	7	Sololá	701	Sololá	3	Barraneche	9	Septiembre	2023-08-09T00:00:00	2024-11-06T03:00:00	2	Temperatura media	11.5
48026	7	Sololá	701	Sololá	3	Barraneche	9	Septiembre	2023-08-09T00:00:00	2024-11-06T03:00:00	4	Temperatura máxima	14.3
48027	7	Sololá	701	Sololá	3	Barraneche	9	Septiembre	2023-08-09T00:00:00	2024-11-06T03:00:00	3	Temperatura mínima	11.5
48028	7	Sololá	701	Sololá	3	Barraneche	9	Septiembre	2023-08-09T00:00:00	2024-11-06T03:00:00	5	Humedad	67
48029	7	Sololá	701	Sololá	3	Barraneche	9	Septiembre	2023-08-09T00:00:00	2024-11-06T03:00:00	6	Velocidad del viento	4.8
48030	7	Sololá	701	Sololá	3	Barraneche	9	Septiembre	2023-08-09T00:00:00	2024-11-06T03:00:00	7	Dirección del viento	4.83
48031	7	Sololá	701	Sololá	3	Barraneche	9	Septiembre	2023-08-09T00:00:00	2024-11-06T03:00:00	1	Precipitación	0
48032	7	Sololá	701	Sololá	3	Barraneche	9	Septiembre	2023-08-09T00:00:00	2024-11-06T03:00:00	8	Radiación solar	0
48033	7	Sololá	701	Sololá	3	Barraneche	9	Septiembre	2023-08-09T00:00:00	2024-11-06T04:00:00	2	Temperatura media	13.2
48034	7	Sololá	701	Sololá	3	Barraneche	9	Septiembre	2023-08-09T00:00:00	2024-11-06T04:00:00	4	Temperatura máxima	13.6
48035	7	Sololá	701	Sololá	3	Barraneche	9	Septiembre	2023-08-09T00:00:00	2024-11-06T04:00:00	3	Temperatura mínima	11.4
48036	7	Sololá	701	Sololá	3	Barraneche	9	Septiembre	2023-08-09T00:00:00	2024-11-06T04:00:00	5	Humedad	64
48037	7	Sololá	701	Sololá	3	Barraneche	9	Septiembre	2023-08-09T00:00:00	2024-11-06T04:00:00	6	Velocidad del viento	6.4
48038	7	Sololá	701	Sololá	3	Barraneche	9	Septiembre	2023-08-09T00:00:00	2024-11-06T04:00:00	7	Dirección del viento	6.44
48039	7	Sololá	701	Sololá	3	Barraneche	9	Septiembre	2023-08-09T00:00:00	2024-11-06T04:00:00	1	Precipitación	0
48040	7	Sololá	701	Sololá	3	Barraneche	9	Septiembre	2023-08-09T00:00:00	2024-11-06T04:00:00	8	Radiación solar	0
48041	7	Sololá	701	Sololá	3	Barraneche	9	Septiembre	2023-08-09T00:00:00	2024-11-06T05:00:00	2	Temperatura media	13.9
48042	7	Sololá	701	Sololá	3	Barraneche	9	Septiembre	2023-08-09T00:00:00	2024-11-06T05:00:00	4	Temperatura máxima	14.1
48043	7	Sololá	701	Sololá	3	Barraneche	9	Septiembre	2023-08-09T00:00:00	2024-11-06T05:00:00	3	Temperatura mínima	13.2
48044	7	Sololá	701	Sololá	3	Barraneche	9	Septiembre	2023-08-09T00:00:00	2024-11-06T05:00:00	5	Humedad	56
48045	7	Sololá	701	Sololá	3	Barraneche	9	Septiembre	2023-08-09T00:00:00	2024-11-06T05:00:00	6	Velocidad del viento	8
48046	7	Sololá	701	Sololá	3	Barraneche	9	Septiembre	2023-08-09T00:00:00	2024-11-06T05:00:00	7	Dirección del viento	8.05
48047	7	Sololá	701	Sololá	3	Barraneche	9	Septiembre	2023-08-09T00:00:00	2024-11-06T05:00:00	1	Precipitación	0
48048	7	Sololá	701	Sololá	3	Barraneche	9	Septiembre	2023-08-09T00:00:00	2024-11-06T05:00:00	8	Radiación solar	0
48049	7	Sololá	701	Sololá	3	Barraneche	9	Septiembre	2023-08-09T00:00:00	2024-11-06T06:00:00	2	Temperatura media	14.6
48050	7	Sololá	701	Sololá	3	Barraneche	9	Septiembre	2023-08-09T00:00:00	2024-11-06T06:00:00	4	Temperatura máxima	14.6
48051	7	Sololá	701	Sololá	3	Barraneche	9	Septiembre	2023-08-09T00:00:00	2024-11-06T06:00:00	3	Temperatura mínima	13.5
48052	7	Sololá	701	Sololá	3	Barraneche	9	Septiembre	2023-08-09T00:00:00	2024-11-06T06:00:00	5	Humedad	53
48053	7	Sololá	701	Sololá	3	Barraneche	9	Septiembre	2023-08-09T00:00:00	2024-11-06T06:00:00	6	Velocidad del viento	8
48054	7	Sololá	701	Sololá	3	Barraneche	9	Septiembre	2023-08-09T00:00:00	2024-11-06T06:00:00	7	Dirección del viento	8.05
48055	7	Sololá	701	Sololá	3	Barraneche	9	Septiembre	2023-08-09T00:00:00	2024-11-06T06:00:00	1	Precipitación	0
48056	7	Sololá	701	Sololá	3	Barraneche	9	Septiembre	2023-08-09T00:00:00	2024-11-06T06:00:00	8	Radiación solar	1
48057	7	Sololá	701	Sololá	3	Barraneche	9	Septiembre	2023-08-09T00:00:00	2024-11-06T07:00:00	2	Temperatura media	16.3
48058	7	Sololá	701	Sololá	3	Barraneche	9	Septiembre	2023-08-09T00:00:00	2024-11-06T07:00:00	4	Temperatura máxima	16.3
48059	7	Sololá	701	Sololá	3	Barraneche	9	Septiembre	2023-08-09T00:00:00	2024-11-06T07:00:00	3	Temperatura mínima	14.2
48060	7	Sololá	701	Sololá	3	Barraneche	9	Septiembre	2023-08-09T00:00:00	2024-11-06T07:00:00	5	Humedad	49
48061	7	Sololá	701	Sololá	3	Barraneche	9	Septiembre	2023-08-09T00:00:00	2024-11-06T07:00:00	6	Velocidad del viento	6.4
48062	7	Sololá	701	Sololá	3	Barraneche	9	Septiembre	2023-08-09T00:00:00	2024-11-06T07:00:00	7	Dirección del viento	6.44
48063	7	Sololá	701	Sololá	3	Barraneche	9	Septiembre	2023-08-09T00:00:00	2024-11-06T07:00:00	1	Precipitación	0
48064	7	Sololá	701	Sololá	3	Barraneche	9	Septiembre	2023-08-09T00:00:00	2024-11-06T07:00:00	8	Radiación solar	65
48065	7	Sololá	701	Sololá	3	Barraneche	9	Septiembre	2023-08-09T00:00:00	2024-11-06T08:00:00	2	Temperatura media	18.3
48066	7	Sololá	701	Sololá	3	Barraneche	9	Septiembre	2023-08-09T00:00:00	2024-11-06T08:00:00	4	Temperatura máxima	18.3
48067	7	Sololá	701	Sololá	3	Barraneche	9	Septiembre	2023-08-09T00:00:00	2024-11-06T08:00:00	3	Temperatura mínima	16.1
48068	7	Sololá	701	Sololá	3	Barraneche	9	Septiembre	2023-08-09T00:00:00	2024-11-06T08:00:00	5	Humedad	47
48069	7	Sololá	701	Sololá	3	Barraneche	9	Septiembre	2023-08-09T00:00:00	2024-11-06T08:00:00	6	Velocidad del viento	4.8
48070	7	Sololá	701	Sololá	3	Barraneche	9	Septiembre	2023-08-09T00:00:00	2024-11-06T08:00:00	7	Dirección del viento	4.83
48071	7	Sololá	701	Sololá	3	Barraneche	9	Septiembre	2023-08-09T00:00:00	2024-11-06T08:00:00	1	Precipitación	0
48072	7	Sololá	701	Sololá	3	Barraneche	9	Septiembre	2023-08-09T00:00:00	2024-11-06T08:00:00	8	Radiación solar	333
48073	7	Sololá	701	Sololá	3	Barraneche	9	Septiembre	2023-08-09T00:00:00	2024-11-06T09:00:00	2	Temperatura media	19.5
48074	7	Sololá	701	Sololá	3	Barraneche	9	Septiembre	2023-08-09T00:00:00	2024-11-06T09:00:00	4	Temperatura máxima	19.6
48075	7	Sololá	701	Sololá	3	Barraneche	9	Septiembre	2023-08-09T00:00:00	2024-11-06T09:00:00	3	Temperatura mínima	18.3
48076	7	Sololá	701	Sololá	3	Barraneche	9	Septiembre	2023-08-09T00:00:00	2024-11-06T09:00:00	5	Humedad	42
48077	7	Sololá	701	Sololá	3	Barraneche	9	Septiembre	2023-08-09T00:00:00	2024-11-06T09:00:00	6	Velocidad del viento	9.7
48078	7	Sololá	701	Sololá	3	Barraneche	9	Septiembre	2023-08-09T00:00:00	2024-11-06T09:00:00	7	Dirección del viento	9.66
48079	7	Sololá	701	Sololá	3	Barraneche	9	Septiembre	2023-08-09T00:00:00	2024-11-06T09:00:00	1	Precipitación	0
48080	7	Sololá	701	Sololá	3	Barraneche	9	Septiembre	2023-08-09T00:00:00	2024-11-06T09:00:00	8	Radiación solar	566
48081	7	Sololá	701	Sololá	3	Barraneche	9	Septiembre	2023-08-09T00:00:00	2024-11-06T10:00:00	2	Temperatura media	20.6
48082	7	Sololá	701	Sololá	3	Barraneche	9	Septiembre	2023-08-09T00:00:00	2024-11-06T10:00:00	4	Temperatura máxima	20.8
48083	7	Sololá	701	Sololá	3	Barraneche	9	Septiembre	2023-08-09T00:00:00	2024-11-06T10:00:00	3	Temperatura mínima	19.4
48084	7	Sololá	701	Sololá	3	Barraneche	9	Septiembre	2023-08-09T00:00:00	2024-11-06T10:00:00	5	Humedad	48
48085	7	Sololá	701	Sololá	3	Barraneche	9	Septiembre	2023-08-09T00:00:00	2024-11-06T10:00:00	6	Velocidad del viento	9.7
48086	7	Sololá	701	Sololá	3	Barraneche	9	Septiembre	2023-08-09T00:00:00	2024-11-06T10:00:00	7	Dirección del viento	9.66
48087	7	Sololá	701	Sololá	3	Barraneche	9	Septiembre	2023-08-09T00:00:00	2024-11-06T10:00:00	1	Precipitación	0
48088	7	Sololá	701	Sololá	3	Barraneche	9	Septiembre	2023-08-09T00:00:00	2024-11-06T10:00:00	8	Radiación solar	773
48089	7	Sololá	701	Sololá	3	Barraneche	9	Septiembre	2023-08-09T00:00:00	2024-11-06T11:00:00	2	Temperatura media	20.2
48090	7	Sololá	701	Sololá	3	Barraneche	9	Septiembre	2023-08-09T00:00:00	2024-11-06T11:00:00	4	Temperatura máxima	20.9
48091	7	Sololá	701	Sololá	3	Barraneche	9	Septiembre	2023-08-09T00:00:00	2024-11-06T11:00:00	3	Temperatura mínima	20.1
48092	7	Sololá	701	Sololá	3	Barraneche	9	Septiembre	2023-08-09T00:00:00	2024-11-06T11:00:00	5	Humedad	51
48093	7	Sololá	701	Sololá	3	Barraneche	9	Septiembre	2023-08-09T00:00:00	2024-11-06T11:00:00	6	Velocidad del viento	11.3
48094	7	Sololá	701	Sololá	3	Barraneche	9	Septiembre	2023-08-09T00:00:00	2024-11-06T11:00:00	7	Dirección del viento	11.27
48095	7	Sololá	701	Sololá	3	Barraneche	9	Septiembre	2023-08-09T00:00:00	2024-11-06T11:00:00	1	Precipitación	0
48096	7	Sololá	701	Sololá	3	Barraneche	9	Septiembre	2023-08-09T00:00:00	2024-11-06T11:00:00	8	Radiación solar	929
48097	7	Sololá	701	Sololá	3	Barraneche	9	Septiembre	2023-08-09T00:00:00	2024-11-06T12:00:00	2	Temperatura media	20.1
48098	7	Sololá	701	Sololá	3	Barraneche	9	Septiembre	2023-08-09T00:00:00	2024-11-06T12:00:00	4	Temperatura máxima	20.3
48099	7	Sololá	701	Sololá	3	Barraneche	9	Septiembre	2023-08-09T00:00:00	2024-11-06T12:00:00	3	Temperatura mínima	19.6
48100	7	Sololá	701	Sololá	3	Barraneche	9	Septiembre	2023-08-09T00:00:00	2024-11-06T12:00:00	5	Humedad	53
48101	7	Sololá	701	Sololá	3	Barraneche	9	Septiembre	2023-08-09T00:00:00	2024-11-06T12:00:00	6	Velocidad del viento	12.9
48102	7	Sololá	701	Sololá	3	Barraneche	9	Septiembre	2023-08-09T00:00:00	2024-11-06T12:00:00	7	Dirección del viento	12.87
48103	7	Sololá	701	Sololá	3	Barraneche	9	Septiembre	2023-08-09T00:00:00	2024-11-06T12:00:00	1	Precipitación	0
48104	7	Sololá	701	Sololá	3	Barraneche	9	Septiembre	2023-08-09T00:00:00	2024-11-06T12:00:00	8	Radiación solar	1057
48105	7	Sololá	701	Sololá	3	Barraneche	9	Septiembre	2023-08-09T00:00:00	2024-11-06T13:00:00	2	Temperatura media	20.1
48106	7	Sololá	701	Sololá	3	Barraneche	9	Septiembre	2023-08-09T00:00:00	2024-11-06T13:00:00	4	Temperatura máxima	20.4
48107	7	Sololá	701	Sololá	3	Barraneche	9	Septiembre	2023-08-09T00:00:00	2024-11-06T13:00:00	3	Temperatura mínima	19.8
48108	7	Sololá	701	Sololá	3	Barraneche	9	Septiembre	2023-08-09T00:00:00	2024-11-06T13:00:00	5	Humedad	54
48109	7	Sololá	701	Sololá	3	Barraneche	9	Septiembre	2023-08-09T00:00:00	2024-11-06T13:00:00	6	Velocidad del viento	11.3
48110	7	Sololá	701	Sololá	3	Barraneche	9	Septiembre	2023-08-09T00:00:00	2024-11-06T13:00:00	7	Dirección del viento	11.27
48111	7	Sololá	701	Sololá	3	Barraneche	9	Septiembre	2023-08-09T00:00:00	2024-11-06T13:00:00	1	Precipitación	0
48112	7	Sololá	701	Sololá	3	Barraneche	9	Septiembre	2023-08-09T00:00:00	2024-11-06T13:00:00	8	Radiación solar	1014
48113	7	Sololá	701	Sololá	3	Barraneche	9	Septiembre	2023-08-09T00:00:00	2024-11-06T14:00:00	2	Temperatura media	20.7
48114	7	Sololá	701	Sololá	3	Barraneche	9	Septiembre	2023-08-09T00:00:00	2024-11-06T14:00:00	4	Temperatura máxima	20.9
48115	7	Sololá	701	Sololá	3	Barraneche	9	Septiembre	2023-08-09T00:00:00	2024-11-06T14:00:00	3	Temperatura mínima	19.7
48116	7	Sololá	701	Sololá	3	Barraneche	9	Septiembre	2023-08-09T00:00:00	2024-11-06T14:00:00	5	Humedad	47
48117	7	Sololá	701	Sololá	3	Barraneche	9	Septiembre	2023-08-09T00:00:00	2024-11-06T14:00:00	6	Velocidad del viento	11.3
48118	7	Sololá	701	Sololá	3	Barraneche	9	Septiembre	2023-08-09T00:00:00	2024-11-06T14:00:00	7	Dirección del viento	11.27
48119	7	Sololá	701	Sololá	3	Barraneche	9	Septiembre	2023-08-09T00:00:00	2024-11-06T14:00:00	1	Precipitación	0
48120	7	Sololá	701	Sololá	3	Barraneche	9	Septiembre	2023-08-09T00:00:00	2024-11-06T14:00:00	8	Radiación solar	1040
48121	7	Sololá	701	Sololá	3	Barraneche	9	Septiembre	2023-08-09T00:00:00	2024-11-06T15:00:00	2	Temperatura media	20.4
48122	7	Sololá	701	Sololá	3	Barraneche	9	Septiembre	2023-08-09T00:00:00	2024-11-06T15:00:00	4	Temperatura máxima	20.7
48123	7	Sololá	701	Sololá	3	Barraneche	9	Septiembre	2023-08-09T00:00:00	2024-11-06T15:00:00	3	Temperatura mínima	19.5
48124	7	Sololá	701	Sololá	3	Barraneche	9	Septiembre	2023-08-09T00:00:00	2024-11-06T15:00:00	5	Humedad	46
48125	7	Sololá	701	Sololá	3	Barraneche	9	Septiembre	2023-08-09T00:00:00	2024-11-06T15:00:00	6	Velocidad del viento	12.9
48126	7	Sololá	701	Sololá	3	Barraneche	9	Septiembre	2023-08-09T00:00:00	2024-11-06T15:00:00	7	Dirección del viento	12.87
48127	7	Sololá	701	Sololá	3	Barraneche	9	Septiembre	2023-08-09T00:00:00	2024-11-06T15:00:00	1	Precipitación	0
48128	7	Sololá	701	Sololá	3	Barraneche	9	Septiembre	2023-08-09T00:00:00	2024-11-06T15:00:00	8	Radiación solar	767
48129	7	Sololá	701	Sololá	3	Barraneche	9	Septiembre	2023-08-09T00:00:00	2024-11-06T16:00:00	2	Temperatura media	17.6
48130	7	Sololá	701	Sololá	3	Barraneche	9	Septiembre	2023-08-09T00:00:00	2024-11-06T16:00:00	4	Temperatura máxima	20.4
48131	7	Sololá	701	Sololá	3	Barraneche	9	Septiembre	2023-08-09T00:00:00	2024-11-06T16:00:00	3	Temperatura mínima	17.6
48132	7	Sololá	701	Sololá	3	Barraneche	9	Septiembre	2023-08-09T00:00:00	2024-11-06T16:00:00	5	Humedad	69
48133	7	Sololá	701	Sololá	3	Barraneche	9	Septiembre	2023-08-09T00:00:00	2024-11-06T16:00:00	6	Velocidad del viento	11.3
48134	7	Sololá	701	Sololá	3	Barraneche	9	Septiembre	2023-08-09T00:00:00	2024-11-06T16:00:00	7	Dirección del viento	11.27
48135	7	Sololá	701	Sololá	3	Barraneche	9	Septiembre	2023-08-09T00:00:00	2024-11-06T16:00:00	1	Precipitación	0
48136	7	Sololá	701	Sololá	3	Barraneche	9	Septiembre	2023-08-09T00:00:00	2024-11-06T16:00:00	8	Radiación solar	192
48137	7	Sololá	701	Sololá	3	Barraneche	9	Septiembre	2023-08-09T00:00:00	2024-11-06T17:00:00	2	Temperatura media	16.7
48138	7	Sololá	701	Sololá	3	Barraneche	9	Septiembre	2023-08-09T00:00:00	2024-11-06T17:00:00	4	Temperatura máxima	17.6
48139	7	Sololá	701	Sololá	3	Barraneche	9	Septiembre	2023-08-09T00:00:00	2024-11-06T17:00:00	3	Temperatura mínima	16.4
48140	7	Sololá	701	Sololá	3	Barraneche	9	Septiembre	2023-08-09T00:00:00	2024-11-06T17:00:00	5	Humedad	71
48141	7	Sololá	701	Sololá	3	Barraneche	9	Septiembre	2023-08-09T00:00:00	2024-11-06T17:00:00	6	Velocidad del viento	8
48142	7	Sololá	701	Sololá	3	Barraneche	9	Septiembre	2023-08-09T00:00:00	2024-11-06T17:00:00	7	Dirección del viento	8.05
48143	7	Sololá	701	Sololá	3	Barraneche	9	Septiembre	2023-08-09T00:00:00	2024-11-06T17:00:00	1	Precipitación	0
48144	7	Sololá	701	Sololá	3	Barraneche	9	Septiembre	2023-08-09T00:00:00	2024-11-06T17:00:00	8	Radiación solar	96
48145	7	Sololá	701	Sololá	3	Barraneche	9	Septiembre	2023-08-09T00:00:00	2024-11-06T18:00:00	2	Temperatura media	15.9
48146	7	Sololá	701	Sololá	3	Barraneche	9	Septiembre	2023-08-09T00:00:00	2024-11-06T18:00:00	4	Temperatura máxima	16.8
48147	7	Sololá	701	Sololá	3	Barraneche	9	Septiembre	2023-08-09T00:00:00	2024-11-06T18:00:00	3	Temperatura mínima	15.8
48148	7	Sololá	701	Sololá	3	Barraneche	9	Septiembre	2023-08-09T00:00:00	2024-11-06T18:00:00	5	Humedad	73
48149	7	Sololá	701	Sololá	3	Barraneche	9	Septiembre	2023-08-09T00:00:00	2024-11-06T18:00:00	6	Velocidad del viento	3.2
48150	7	Sololá	701	Sololá	3	Barraneche	9	Septiembre	2023-08-09T00:00:00	2024-11-06T18:00:00	7	Dirección del viento	3.22
48151	7	Sololá	701	Sololá	3	Barraneche	9	Septiembre	2023-08-09T00:00:00	2024-11-06T18:00:00	1	Precipitación	0
48152	7	Sololá	701	Sololá	3	Barraneche	9	Septiembre	2023-08-09T00:00:00	2024-11-06T18:00:00	8	Radiación solar	28
48153	7	Sololá	701	Sololá	3	Barraneche	9	Septiembre	2023-08-09T00:00:00	2024-11-06T19:00:00	2	Temperatura media	15.5
48154	7	Sololá	701	Sololá	3	Barraneche	9	Septiembre	2023-08-09T00:00:00	2024-11-06T19:00:00	4	Temperatura máxima	15.9
48155	7	Sololá	701	Sololá	3	Barraneche	9	Septiembre	2023-08-09T00:00:00	2024-11-06T19:00:00	3	Temperatura mínima	15.4
48156	7	Sololá	701	Sololá	3	Barraneche	9	Septiembre	2023-08-09T00:00:00	2024-11-06T19:00:00	5	Humedad	66
48157	7	Sololá	701	Sololá	3	Barraneche	9	Septiembre	2023-08-09T00:00:00	2024-11-06T19:00:00	6	Velocidad del viento	9.7
48158	7	Sololá	701	Sololá	3	Barraneche	9	Septiembre	2023-08-09T00:00:00	2024-11-06T19:00:00	7	Dirección del viento	9.66
48159	7	Sololá	701	Sololá	3	Barraneche	9	Septiembre	2023-08-09T00:00:00	2024-11-06T19:00:00	1	Precipitación	0
48160	7	Sololá	701	Sololá	3	Barraneche	9	Septiembre	2023-08-09T00:00:00	2024-11-06T19:00:00	8	Radiación solar	0
48161	7	Sololá	701	Sololá	3	Barraneche	9	Septiembre	2023-08-09T00:00:00	2024-11-06T20:00:00	2	Temperatura media	14.8
48162	7	Sololá	701	Sololá	3	Barraneche	9	Septiembre	2023-08-09T00:00:00	2024-11-06T20:00:00	4	Temperatura máxima	15.7
48163	7	Sololá	701	Sololá	3	Barraneche	9	Septiembre	2023-08-09T00:00:00	2024-11-06T20:00:00	3	Temperatura mínima	14.8
48164	7	Sololá	701	Sololá	3	Barraneche	9	Septiembre	2023-08-09T00:00:00	2024-11-06T20:00:00	5	Humedad	70
48165	7	Sololá	701	Sololá	3	Barraneche	9	Septiembre	2023-08-09T00:00:00	2024-11-06T20:00:00	6	Velocidad del viento	4.8
48166	7	Sololá	701	Sololá	3	Barraneche	9	Septiembre	2023-08-09T00:00:00	2024-11-06T20:00:00	7	Dirección del viento	4.83
48167	7	Sololá	701	Sololá	3	Barraneche	9	Septiembre	2023-08-09T00:00:00	2024-11-06T20:00:00	1	Precipitación	1
48168	7	Sololá	701	Sololá	3	Barraneche	9	Septiembre	2023-08-09T00:00:00	2024-11-06T20:00:00	8	Radiación solar	0
48169	7	Sololá	701	Sololá	3	Barraneche	9	Septiembre	2023-08-09T00:00:00	2024-11-06T21:00:00	2	Temperatura media	14
48170	7	Sololá	701	Sololá	3	Barraneche	9	Septiembre	2023-08-09T00:00:00	2024-11-06T21:00:00	4	Temperatura máxima	14.9
48171	7	Sololá	701	Sololá	3	Barraneche	9	Septiembre	2023-08-09T00:00:00	2024-11-06T21:00:00	3	Temperatura mínima	14
48172	7	Sololá	701	Sololá	3	Barraneche	9	Septiembre	2023-08-09T00:00:00	2024-11-06T21:00:00	5	Humedad	79
48173	7	Sololá	701	Sololá	3	Barraneche	9	Septiembre	2023-08-09T00:00:00	2024-11-06T21:00:00	6	Velocidad del viento	1.6
48174	7	Sololá	701	Sololá	3	Barraneche	9	Septiembre	2023-08-09T00:00:00	2024-11-06T21:00:00	7	Dirección del viento	1.61
48175	7	Sololá	701	Sololá	3	Barraneche	9	Septiembre	2023-08-09T00:00:00	2024-11-06T21:00:00	1	Precipitación	0.4
48176	7	Sololá	701	Sololá	3	Barraneche	9	Septiembre	2023-08-09T00:00:00	2024-11-06T21:00:00	8	Radiación solar	0
48177	7	Sololá	701	Sololá	3	Barraneche	9	Septiembre	2023-08-09T00:00:00	2024-11-06T22:00:00	2	Temperatura media	13.1
48178	7	Sololá	701	Sololá	3	Barraneche	9	Septiembre	2023-08-09T00:00:00	2024-11-06T22:00:00	4	Temperatura máxima	14
48179	7	Sololá	701	Sololá	3	Barraneche	9	Septiembre	2023-08-09T00:00:00	2024-11-06T22:00:00	3	Temperatura mínima	13.1
48180	7	Sololá	701	Sololá	3	Barraneche	9	Septiembre	2023-08-09T00:00:00	2024-11-06T22:00:00	5	Humedad	82
48181	7	Sololá	701	Sololá	3	Barraneche	9	Septiembre	2023-08-09T00:00:00	2024-11-06T22:00:00	6	Velocidad del viento	1.6
48182	7	Sololá	701	Sololá	3	Barraneche	9	Septiembre	2023-08-09T00:00:00	2024-11-06T22:00:00	7	Dirección del viento	1.61
48183	7	Sololá	701	Sololá	3	Barraneche	9	Septiembre	2023-08-09T00:00:00	2024-11-06T22:00:00	1	Precipitación	0
48184	7	Sololá	701	Sololá	3	Barraneche	9	Septiembre	2023-08-09T00:00:00	2024-11-06T22:00:00	8	Radiación solar	0
48185	7	Sololá	701	Sololá	3	Barraneche	9	Septiembre	2023-08-09T00:00:00	2024-11-06T23:00:00	2	Temperatura media	13
48186	7	Sololá	701	Sololá	3	Barraneche	9	Septiembre	2023-08-09T00:00:00	2024-11-06T23:00:00	4	Temperatura máxima	13.4
48187	7	Sololá	701	Sololá	3	Barraneche	9	Septiembre	2023-08-09T00:00:00	2024-11-06T23:00:00	3	Temperatura mínima	13
48188	7	Sololá	701	Sololá	3	Barraneche	9	Septiembre	2023-08-09T00:00:00	2024-11-06T23:00:00	5	Humedad	80
48189	7	Sololá	701	Sololá	3	Barraneche	9	Septiembre	2023-08-09T00:00:00	2024-11-06T23:00:00	6	Velocidad del viento	3.2
48190	7	Sololá	701	Sololá	3	Barraneche	9	Septiembre	2023-08-09T00:00:00	2024-11-06T23:00:00	7	Dirección del viento	3.22
48191	7	Sololá	701	Sololá	3	Barraneche	9	Septiembre	2023-08-09T00:00:00	2024-11-06T23:00:00	1	Precipitación	0
48192	7	Sololá	701	Sololá	3	Barraneche	9	Septiembre	2023-08-09T00:00:00	2024-11-06T23:00:00	8	Radiación solar	0
48193	7	Sololá	701	Sololá	3	Barraneche	9	Septiembre	2023-09-09T00:00:00	2024-11-06T00:00:00	2	Temperatura media	12.5
48194	7	Sololá	701	Sololá	3	Barraneche	9	Septiembre	2023-09-09T00:00:00	2024-11-06T00:00:00	4	Temperatura máxima	13.1
48195	7	Sololá	701	Sololá	3	Barraneche	9	Septiembre	2023-09-09T00:00:00	2024-11-06T00:00:00	3	Temperatura mínima	12.5
48196	7	Sololá	701	Sololá	3	Barraneche	9	Septiembre	2023-09-09T00:00:00	2024-11-06T00:00:00	5	Humedad	79
48197	7	Sololá	701	Sololá	3	Barraneche	9	Septiembre	2023-09-09T00:00:00	2024-11-06T00:00:00	6	Velocidad del viento	1.6
48198	7	Sololá	701	Sololá	3	Barraneche	9	Septiembre	2023-09-09T00:00:00	2024-11-06T00:00:00	7	Dirección del viento	1.61
48199	7	Sololá	701	Sololá	3	Barraneche	9	Septiembre	2023-09-09T00:00:00	2024-11-06T00:00:00	1	Precipitación	0
48200	7	Sololá	701	Sololá	3	Barraneche	9	Septiembre	2023-09-09T00:00:00	2024-11-06T00:00:00	8	Radiación solar	0
48201	7	Sololá	701	Sololá	3	Barraneche	9	Septiembre	2023-09-09T00:00:00	2024-11-06T01:00:00	2	Temperatura media	12.4
48202	7	Sololá	701	Sololá	3	Barraneche	9	Septiembre	2023-09-09T00:00:00	2024-11-06T01:00:00	4	Temperatura máxima	12.5
48203	7	Sololá	701	Sololá	3	Barraneche	9	Septiembre	2023-09-09T00:00:00	2024-11-06T01:00:00	3	Temperatura mínima	12.2
48204	7	Sololá	701	Sololá	3	Barraneche	9	Septiembre	2023-09-09T00:00:00	2024-11-06T01:00:00	5	Humedad	76
48205	7	Sololá	701	Sololá	3	Barraneche	9	Septiembre	2023-09-09T00:00:00	2024-11-06T01:00:00	6	Velocidad del viento	3.2
48206	7	Sololá	701	Sololá	3	Barraneche	9	Septiembre	2023-09-09T00:00:00	2024-11-06T01:00:00	7	Dirección del viento	3.22
48207	7	Sololá	701	Sololá	3	Barraneche	9	Septiembre	2023-09-09T00:00:00	2024-11-06T01:00:00	1	Precipitación	0
48208	7	Sololá	701	Sololá	3	Barraneche	9	Septiembre	2023-09-09T00:00:00	2024-11-06T01:00:00	8	Radiación solar	0
48209	7	Sololá	701	Sololá	3	Barraneche	9	Septiembre	2023-09-09T00:00:00	2024-11-06T02:00:00	2	Temperatura media	12.4
48210	7	Sololá	701	Sololá	3	Barraneche	9	Septiembre	2023-09-09T00:00:00	2024-11-06T02:00:00	4	Temperatura máxima	12.4
48211	7	Sololá	701	Sololá	3	Barraneche	9	Septiembre	2023-09-09T00:00:00	2024-11-06T02:00:00	3	Temperatura mínima	12.3
48212	7	Sololá	701	Sololá	3	Barraneche	9	Septiembre	2023-09-09T00:00:00	2024-11-06T02:00:00	5	Humedad	77
48213	7	Sololá	701	Sololá	3	Barraneche	9	Septiembre	2023-09-09T00:00:00	2024-11-06T02:00:00	6	Velocidad del viento	1.6
48214	7	Sololá	701	Sololá	3	Barraneche	9	Septiembre	2023-09-09T00:00:00	2024-11-06T02:00:00	7	Dirección del viento	1.61
48215	7	Sololá	701	Sololá	3	Barraneche	9	Septiembre	2023-09-09T00:00:00	2024-11-06T02:00:00	1	Precipitación	0
48216	7	Sololá	701	Sololá	3	Barraneche	9	Septiembre	2023-09-09T00:00:00	2024-11-06T02:00:00	8	Radiación solar	0
48217	7	Sololá	701	Sololá	3	Barraneche	9	Septiembre	2023-09-09T00:00:00	2024-11-06T03:00:00	2	Temperatura media	12.2
48218	7	Sololá	701	Sololá	3	Barraneche	9	Septiembre	2023-09-09T00:00:00	2024-11-06T03:00:00	4	Temperatura máxima	12.4
48219	7	Sololá	701	Sololá	3	Barraneche	9	Septiembre	2023-09-09T00:00:00	2024-11-06T03:00:00	3	Temperatura mínima	12.1
48220	7	Sololá	701	Sololá	3	Barraneche	9	Septiembre	2023-09-09T00:00:00	2024-11-06T03:00:00	5	Humedad	77
48221	7	Sololá	701	Sololá	3	Barraneche	9	Septiembre	2023-09-09T00:00:00	2024-11-06T03:00:00	6	Velocidad del viento	3.2
48222	7	Sololá	701	Sololá	3	Barraneche	9	Septiembre	2023-09-09T00:00:00	2024-11-06T03:00:00	7	Dirección del viento	3.22
48223	7	Sololá	701	Sololá	3	Barraneche	9	Septiembre	2023-09-09T00:00:00	2024-11-06T03:00:00	1	Precipitación	0
48224	7	Sololá	701	Sololá	3	Barraneche	9	Septiembre	2023-09-09T00:00:00	2024-11-06T03:00:00	8	Radiación solar	0
48225	7	Sololá	701	Sololá	3	Barraneche	9	Septiembre	2023-09-09T00:00:00	2024-11-06T04:00:00	2	Temperatura media	13.1
48226	7	Sololá	701	Sololá	3	Barraneche	9	Septiembre	2023-09-09T00:00:00	2024-11-06T04:00:00	4	Temperatura máxima	13.6
48227	7	Sololá	701	Sololá	3	Barraneche	9	Septiembre	2023-09-09T00:00:00	2024-11-06T04:00:00	3	Temperatura mínima	12.1
48228	7	Sololá	701	Sololá	3	Barraneche	9	Septiembre	2023-09-09T00:00:00	2024-11-06T04:00:00	5	Humedad	69
48229	7	Sololá	701	Sololá	3	Barraneche	9	Septiembre	2023-09-09T00:00:00	2024-11-06T04:00:00	6	Velocidad del viento	4.8
48230	7	Sololá	701	Sololá	3	Barraneche	9	Septiembre	2023-09-09T00:00:00	2024-11-06T04:00:00	7	Dirección del viento	4.83
48231	7	Sololá	701	Sololá	3	Barraneche	9	Septiembre	2023-09-09T00:00:00	2024-11-06T04:00:00	1	Precipitación	0.4
48232	7	Sololá	701	Sololá	3	Barraneche	9	Septiembre	2023-09-09T00:00:00	2024-11-06T04:00:00	8	Radiación solar	0
48233	7	Sololá	701	Sololá	3	Barraneche	9	Septiembre	2023-09-09T00:00:00	2024-11-06T05:00:00	2	Temperatura media	11.6
48234	7	Sololá	701	Sololá	3	Barraneche	9	Septiembre	2023-09-09T00:00:00	2024-11-06T05:00:00	4	Temperatura máxima	13.1
48235	7	Sololá	701	Sololá	3	Barraneche	9	Septiembre	2023-09-09T00:00:00	2024-11-06T05:00:00	3	Temperatura mínima	11.6
48236	7	Sololá	701	Sololá	3	Barraneche	9	Septiembre	2023-09-09T00:00:00	2024-11-06T05:00:00	5	Humedad	75
48237	7	Sololá	701	Sololá	3	Barraneche	9	Septiembre	2023-09-09T00:00:00	2024-11-06T05:00:00	6	Velocidad del viento	3.2
48238	7	Sololá	701	Sololá	3	Barraneche	9	Septiembre	2023-09-09T00:00:00	2024-11-06T05:00:00	7	Dirección del viento	3.22
48239	7	Sololá	701	Sololá	3	Barraneche	9	Septiembre	2023-09-09T00:00:00	2024-11-06T05:00:00	1	Precipitación	0.2
48240	7	Sololá	701	Sololá	3	Barraneche	9	Septiembre	2023-09-09T00:00:00	2024-11-06T05:00:00	8	Radiación solar	0
48241	7	Sololá	701	Sololá	3	Barraneche	9	Septiembre	2023-09-09T00:00:00	2024-11-06T06:00:00	2	Temperatura media	10.9
48242	7	Sololá	701	Sololá	3	Barraneche	9	Septiembre	2023-09-09T00:00:00	2024-11-06T06:00:00	4	Temperatura máxima	11.6
48243	7	Sololá	701	Sololá	3	Barraneche	9	Septiembre	2023-09-09T00:00:00	2024-11-06T06:00:00	3	Temperatura mínima	10.8
48244	7	Sololá	701	Sololá	3	Barraneche	9	Septiembre	2023-09-09T00:00:00	2024-11-06T06:00:00	5	Humedad	74
48245	7	Sololá	701	Sololá	3	Barraneche	9	Septiembre	2023-09-09T00:00:00	2024-11-06T06:00:00	6	Velocidad del viento	3.2
48246	7	Sololá	701	Sololá	3	Barraneche	9	Septiembre	2023-09-09T00:00:00	2024-11-06T06:00:00	7	Dirección del viento	3.22
48247	7	Sololá	701	Sololá	3	Barraneche	9	Septiembre	2023-09-09T00:00:00	2024-11-06T06:00:00	1	Precipitación	0
48248	7	Sololá	701	Sololá	3	Barraneche	9	Septiembre	2023-09-09T00:00:00	2024-11-06T06:00:00	8	Radiación solar	2
48249	7	Sololá	701	Sololá	3	Barraneche	9	Septiembre	2023-09-09T00:00:00	2024-11-06T07:00:00	2	Temperatura media	11.7
48250	7	Sololá	701	Sololá	3	Barraneche	9	Septiembre	2023-09-09T00:00:00	2024-11-06T07:00:00	4	Temperatura máxima	11.7
48251	7	Sololá	701	Sololá	3	Barraneche	9	Septiembre	2023-09-09T00:00:00	2024-11-06T07:00:00	3	Temperatura mínima	10.8
48252	7	Sololá	701	Sololá	3	Barraneche	9	Septiembre	2023-09-09T00:00:00	2024-11-06T07:00:00	5	Humedad	77
48253	7	Sololá	701	Sololá	3	Barraneche	9	Septiembre	2023-09-09T00:00:00	2024-11-06T07:00:00	6	Velocidad del viento	1.6
48254	7	Sololá	701	Sololá	3	Barraneche	9	Septiembre	2023-09-09T00:00:00	2024-11-06T07:00:00	7	Dirección del viento	1.61
48255	7	Sololá	701	Sololá	3	Barraneche	9	Septiembre	2023-09-09T00:00:00	2024-11-06T07:00:00	1	Precipitación	0
48256	7	Sololá	701	Sololá	3	Barraneche	9	Septiembre	2023-09-09T00:00:00	2024-11-06T07:00:00	8	Radiación solar	55
48257	7	Sololá	701	Sololá	3	Barraneche	9	Septiembre	2023-09-09T00:00:00	2024-11-06T08:00:00	2	Temperatura media	15.1
48258	7	Sololá	701	Sololá	3	Barraneche	9	Septiembre	2023-09-09T00:00:00	2024-11-06T08:00:00	4	Temperatura máxima	15.1
48259	7	Sololá	701	Sololá	3	Barraneche	9	Septiembre	2023-09-09T00:00:00	2024-11-06T08:00:00	3	Temperatura mínima	11.7
48260	7	Sololá	701	Sololá	3	Barraneche	9	Septiembre	2023-09-09T00:00:00	2024-11-06T08:00:00	5	Humedad	64
48261	7	Sololá	701	Sololá	3	Barraneche	9	Septiembre	2023-09-09T00:00:00	2024-11-06T08:00:00	6	Velocidad del viento	3.2
48262	7	Sololá	701	Sololá	3	Barraneche	9	Septiembre	2023-09-09T00:00:00	2024-11-06T08:00:00	7	Dirección del viento	3.22
48263	7	Sololá	701	Sololá	3	Barraneche	9	Septiembre	2023-09-09T00:00:00	2024-11-06T08:00:00	1	Precipitación	0
48264	7	Sololá	701	Sololá	3	Barraneche	9	Septiembre	2023-09-09T00:00:00	2024-11-06T08:00:00	8	Radiación solar	315
48265	7	Sololá	701	Sololá	3	Barraneche	9	Septiembre	2023-09-09T00:00:00	2024-11-06T09:00:00	2	Temperatura media	15.7
48266	7	Sololá	701	Sololá	3	Barraneche	9	Septiembre	2023-09-09T00:00:00	2024-11-06T09:00:00	4	Temperatura máxima	15.8
48267	7	Sololá	701	Sololá	3	Barraneche	9	Septiembre	2023-09-09T00:00:00	2024-11-06T09:00:00	3	Temperatura mínima	15.1
48268	7	Sololá	701	Sololá	3	Barraneche	9	Septiembre	2023-09-09T00:00:00	2024-11-06T09:00:00	5	Humedad	61
48269	7	Sololá	701	Sololá	3	Barraneche	9	Septiembre	2023-09-09T00:00:00	2024-11-06T09:00:00	6	Velocidad del viento	3.2
48270	7	Sololá	701	Sololá	3	Barraneche	9	Septiembre	2023-09-09T00:00:00	2024-11-06T09:00:00	7	Dirección del viento	3.22
48271	7	Sololá	701	Sololá	3	Barraneche	9	Septiembre	2023-09-09T00:00:00	2024-11-06T09:00:00	1	Precipitación	0
48272	7	Sololá	701	Sololá	3	Barraneche	9	Septiembre	2023-09-09T00:00:00	2024-11-06T09:00:00	8	Radiación solar	288
48273	7	Sololá	701	Sololá	3	Barraneche	9	Septiembre	2023-09-09T00:00:00	2024-11-06T10:00:00	2	Temperatura media	16.3
48274	7	Sololá	701	Sololá	3	Barraneche	9	Septiembre	2023-09-09T00:00:00	2024-11-06T10:00:00	4	Temperatura máxima	16.3
48275	7	Sololá	701	Sololá	3	Barraneche	9	Septiembre	2023-09-09T00:00:00	2024-11-06T10:00:00	3	Temperatura mínima	15.7
48276	7	Sololá	701	Sololá	3	Barraneche	9	Septiembre	2023-09-09T00:00:00	2024-11-06T10:00:00	5	Humedad	62
48277	7	Sololá	701	Sololá	3	Barraneche	9	Septiembre	2023-09-09T00:00:00	2024-11-06T10:00:00	6	Velocidad del viento	6.4
48278	7	Sololá	701	Sololá	3	Barraneche	9	Septiembre	2023-09-09T00:00:00	2024-11-06T10:00:00	7	Dirección del viento	6.44
48279	7	Sololá	701	Sololá	3	Barraneche	9	Septiembre	2023-09-09T00:00:00	2024-11-06T10:00:00	1	Precipitación	0
48280	7	Sololá	701	Sololá	3	Barraneche	9	Septiembre	2023-09-09T00:00:00	2024-11-06T10:00:00	8	Radiación solar	365
48281	7	Sololá	701	Sololá	3	Barraneche	9	Septiembre	2023-09-09T00:00:00	2024-11-06T11:00:00	2	Temperatura media	16.9
48282	7	Sololá	701	Sololá	3	Barraneche	9	Septiembre	2023-09-09T00:00:00	2024-11-06T11:00:00	4	Temperatura máxima	16.9
48283	7	Sololá	701	Sololá	3	Barraneche	9	Septiembre	2023-09-09T00:00:00	2024-11-06T11:00:00	3	Temperatura mínima	16.3
48284	7	Sololá	701	Sololá	3	Barraneche	9	Septiembre	2023-09-09T00:00:00	2024-11-06T11:00:00	5	Humedad	64
48285	7	Sololá	701	Sololá	3	Barraneche	9	Septiembre	2023-09-09T00:00:00	2024-11-06T11:00:00	6	Velocidad del viento	4.8
48286	7	Sololá	701	Sololá	3	Barraneche	9	Septiembre	2023-09-09T00:00:00	2024-11-06T11:00:00	7	Dirección del viento	4.83
48287	7	Sololá	701	Sololá	3	Barraneche	9	Septiembre	2023-09-09T00:00:00	2024-11-06T11:00:00	1	Precipitación	0
48288	7	Sololá	701	Sololá	3	Barraneche	9	Septiembre	2023-09-09T00:00:00	2024-11-06T11:00:00	8	Radiación solar	306
48289	7	Sololá	701	Sololá	3	Barraneche	9	Septiembre	2023-09-09T00:00:00	2024-11-06T12:00:00	2	Temperatura media	17.8
48290	7	Sololá	701	Sololá	3	Barraneche	9	Septiembre	2023-09-09T00:00:00	2024-11-06T12:00:00	4	Temperatura máxima	17.8
48291	7	Sololá	701	Sololá	3	Barraneche	9	Septiembre	2023-09-09T00:00:00	2024-11-06T12:00:00	3	Temperatura mínima	16.9
48292	7	Sololá	701	Sololá	3	Barraneche	9	Septiembre	2023-09-09T00:00:00	2024-11-06T12:00:00	5	Humedad	64
48293	7	Sololá	701	Sololá	3	Barraneche	9	Septiembre	2023-09-09T00:00:00	2024-11-06T12:00:00	6	Velocidad del viento	8
48294	7	Sololá	701	Sololá	3	Barraneche	9	Septiembre	2023-09-09T00:00:00	2024-11-06T12:00:00	7	Dirección del viento	8.05
48295	7	Sololá	701	Sololá	3	Barraneche	9	Septiembre	2023-09-09T00:00:00	2024-11-06T12:00:00	1	Precipitación	0.2
48296	7	Sololá	701	Sololá	3	Barraneche	9	Septiembre	2023-09-09T00:00:00	2024-11-06T12:00:00	8	Radiación solar	418
48297	7	Sololá	701	Sololá	3	Barraneche	9	Septiembre	2023-09-09T00:00:00	2024-11-06T13:00:00	2	Temperatura media	16.8
48298	7	Sololá	701	Sololá	3	Barraneche	9	Septiembre	2023-09-09T00:00:00	2024-11-06T13:00:00	4	Temperatura máxima	17.9
48299	7	Sololá	701	Sololá	3	Barraneche	9	Septiembre	2023-09-09T00:00:00	2024-11-06T13:00:00	3	Temperatura mínima	16.8
48300	7	Sololá	701	Sololá	3	Barraneche	9	Septiembre	2023-09-09T00:00:00	2024-11-06T13:00:00	5	Humedad	68
48301	7	Sololá	701	Sololá	3	Barraneche	9	Septiembre	2023-09-09T00:00:00	2024-11-06T13:00:00	6	Velocidad del viento	6.4
48302	7	Sololá	701	Sololá	3	Barraneche	9	Septiembre	2023-09-09T00:00:00	2024-11-06T13:00:00	7	Dirección del viento	6.44
48303	7	Sololá	701	Sololá	3	Barraneche	9	Septiembre	2023-09-09T00:00:00	2024-11-06T13:00:00	1	Precipitación	0
48304	7	Sololá	701	Sololá	3	Barraneche	9	Septiembre	2023-09-09T00:00:00	2024-11-06T13:00:00	8	Radiación solar	174
48305	7	Sololá	701	Sololá	3	Barraneche	9	Septiembre	2023-09-09T00:00:00	2024-11-06T14:00:00	2	Temperatura media	18.1
48306	7	Sololá	701	Sololá	3	Barraneche	9	Septiembre	2023-09-09T00:00:00	2024-11-06T14:00:00	4	Temperatura máxima	18.1
48307	7	Sololá	701	Sololá	3	Barraneche	9	Septiembre	2023-09-09T00:00:00	2024-11-06T14:00:00	3	Temperatura mínima	16.7
48308	7	Sololá	701	Sololá	3	Barraneche	9	Septiembre	2023-09-09T00:00:00	2024-11-06T14:00:00	5	Humedad	62
48309	7	Sololá	701	Sololá	3	Barraneche	9	Septiembre	2023-09-09T00:00:00	2024-11-06T14:00:00	6	Velocidad del viento	3.2
48310	7	Sololá	701	Sololá	3	Barraneche	9	Septiembre	2023-09-09T00:00:00	2024-11-06T14:00:00	7	Dirección del viento	3.22
48311	7	Sololá	701	Sololá	3	Barraneche	9	Septiembre	2023-09-09T00:00:00	2024-11-06T14:00:00	1	Precipitación	0
48312	7	Sololá	701	Sololá	3	Barraneche	9	Septiembre	2023-09-09T00:00:00	2024-11-06T14:00:00	8	Radiación solar	256
48313	7	Sololá	701	Sololá	3	Barraneche	9	Septiembre	2023-09-09T00:00:00	2024-11-06T15:00:00	2	Temperatura media	16.4
48314	7	Sololá	701	Sololá	3	Barraneche	9	Septiembre	2023-09-09T00:00:00	2024-11-06T15:00:00	4	Temperatura máxima	18.3
48315	7	Sololá	701	Sololá	3	Barraneche	9	Septiembre	2023-09-09T00:00:00	2024-11-06T15:00:00	3	Temperatura mínima	16.4
48316	7	Sololá	701	Sololá	3	Barraneche	9	Septiembre	2023-09-09T00:00:00	2024-11-06T15:00:00	5	Humedad	71
48317	7	Sololá	701	Sololá	3	Barraneche	9	Septiembre	2023-09-09T00:00:00	2024-11-06T15:00:00	6	Velocidad del viento	8
48318	7	Sololá	701	Sololá	3	Barraneche	9	Septiembre	2023-09-09T00:00:00	2024-11-06T15:00:00	7	Dirección del viento	8.05
48319	7	Sololá	701	Sololá	3	Barraneche	9	Septiembre	2023-09-09T00:00:00	2024-11-06T15:00:00	1	Precipitación	0
48320	7	Sololá	701	Sololá	3	Barraneche	9	Septiembre	2023-09-09T00:00:00	2024-11-06T15:00:00	8	Radiación solar	188
48321	7	Sololá	701	Sololá	3	Barraneche	9	Septiembre	2023-09-09T00:00:00	2024-11-06T16:00:00	2	Temperatura media	14.4
48322	7	Sololá	701	Sololá	3	Barraneche	9	Septiembre	2023-09-09T00:00:00	2024-11-06T16:00:00	4	Temperatura máxima	16.5
48323	7	Sololá	701	Sololá	3	Barraneche	9	Septiembre	2023-09-09T00:00:00	2024-11-06T16:00:00	3	Temperatura mínima	14.4
48324	7	Sololá	701	Sololá	3	Barraneche	9	Septiembre	2023-09-09T00:00:00	2024-11-06T16:00:00	5	Humedad	75
48325	7	Sololá	701	Sololá	3	Barraneche	9	Septiembre	2023-09-09T00:00:00	2024-11-06T16:00:00	6	Velocidad del viento	8
48326	7	Sololá	701	Sololá	3	Barraneche	9	Septiembre	2023-09-09T00:00:00	2024-11-06T16:00:00	7	Dirección del viento	8.05
48327	7	Sololá	701	Sololá	3	Barraneche	9	Septiembre	2023-09-09T00:00:00	2024-11-06T16:00:00	1	Precipitación	0.2
48328	7	Sololá	701	Sololá	3	Barraneche	9	Septiembre	2023-09-09T00:00:00	2024-11-06T16:00:00	8	Radiación solar	61
48329	7	Sololá	701	Sololá	3	Barraneche	9	Septiembre	2023-09-09T00:00:00	2024-11-06T17:00:00	2	Temperatura media	14.6
48330	7	Sololá	701	Sololá	3	Barraneche	9	Septiembre	2023-09-09T00:00:00	2024-11-06T17:00:00	4	Temperatura máxima	14.6
48331	7	Sololá	701	Sololá	3	Barraneche	9	Septiembre	2023-09-09T00:00:00	2024-11-06T17:00:00	3	Temperatura mínima	14.4
48332	7	Sololá	701	Sololá	3	Barraneche	9	Septiembre	2023-09-09T00:00:00	2024-11-06T17:00:00	5	Humedad	78
48333	7	Sololá	701	Sololá	3	Barraneche	9	Septiembre	2023-09-09T00:00:00	2024-11-06T17:00:00	6	Velocidad del viento	1.6
48334	7	Sololá	701	Sololá	3	Barraneche	9	Septiembre	2023-09-09T00:00:00	2024-11-06T17:00:00	7	Dirección del viento	1.61
48335	7	Sololá	701	Sololá	3	Barraneche	9	Septiembre	2023-09-09T00:00:00	2024-11-06T17:00:00	1	Precipitación	0
48336	7	Sololá	701	Sololá	3	Barraneche	9	Septiembre	2023-09-09T00:00:00	2024-11-06T17:00:00	8	Radiación solar	10
48337	7	Sololá	701	Sololá	3	Barraneche	9	Septiembre	2023-09-09T00:00:00	2024-11-06T18:00:00	2	Temperatura media	14.3
48338	7	Sololá	701	Sololá	3	Barraneche	9	Septiembre	2023-09-09T00:00:00	2024-11-06T18:00:00	4	Temperatura máxima	14.6
48339	7	Sololá	701	Sololá	3	Barraneche	9	Septiembre	2023-09-09T00:00:00	2024-11-06T18:00:00	3	Temperatura mínima	14.2
48340	7	Sololá	701	Sololá	3	Barraneche	9	Septiembre	2023-09-09T00:00:00	2024-11-06T18:00:00	5	Humedad	82
48341	7	Sololá	701	Sololá	3	Barraneche	9	Septiembre	2023-09-09T00:00:00	2024-11-06T18:00:00	6	Velocidad del viento	1.6
48342	7	Sololá	701	Sololá	3	Barraneche	9	Septiembre	2023-09-09T00:00:00	2024-11-06T18:00:00	7	Dirección del viento	1.61
48343	7	Sololá	701	Sololá	3	Barraneche	9	Septiembre	2023-09-09T00:00:00	2024-11-06T18:00:00	1	Precipitación	8.8
48344	7	Sololá	701	Sololá	3	Barraneche	9	Septiembre	2023-09-09T00:00:00	2024-11-06T18:00:00	8	Radiación solar	6
48345	7	Sololá	701	Sololá	3	Barraneche	9	Septiembre	2023-09-09T00:00:00	2024-11-06T19:00:00	2	Temperatura media	13.1
48346	7	Sololá	701	Sololá	3	Barraneche	9	Septiembre	2023-09-09T00:00:00	2024-11-06T19:00:00	4	Temperatura máxima	14.3
48347	7	Sololá	701	Sololá	3	Barraneche	9	Septiembre	2023-09-09T00:00:00	2024-11-06T19:00:00	3	Temperatura mínima	13.1
48348	7	Sololá	701	Sololá	3	Barraneche	9	Septiembre	2023-09-09T00:00:00	2024-11-06T19:00:00	5	Humedad	80
48349	7	Sololá	701	Sololá	3	Barraneche	9	Septiembre	2023-09-09T00:00:00	2024-11-06T19:00:00	6	Velocidad del viento	4.8
48350	7	Sololá	701	Sololá	3	Barraneche	9	Septiembre	2023-09-09T00:00:00	2024-11-06T19:00:00	7	Dirección del viento	4.83
48351	7	Sololá	701	Sololá	3	Barraneche	9	Septiembre	2023-09-09T00:00:00	2024-11-06T19:00:00	1	Precipitación	0
48352	7	Sololá	701	Sololá	3	Barraneche	9	Septiembre	2023-09-09T00:00:00	2024-11-06T19:00:00	8	Radiación solar	0
48353	7	Sololá	701	Sololá	3	Barraneche	9	Septiembre	2023-09-09T00:00:00	2024-11-06T20:00:00	2	Temperatura media	12.9
48354	7	Sololá	701	Sololá	3	Barraneche	9	Septiembre	2023-09-09T00:00:00	2024-11-06T20:00:00	4	Temperatura máxima	13.2
48355	7	Sololá	701	Sololá	3	Barraneche	9	Septiembre	2023-09-09T00:00:00	2024-11-06T20:00:00	3	Temperatura mínima	12.9
48356	7	Sololá	701	Sololá	3	Barraneche	9	Septiembre	2023-09-09T00:00:00	2024-11-06T20:00:00	5	Humedad	76
48357	7	Sololá	701	Sololá	3	Barraneche	9	Septiembre	2023-09-09T00:00:00	2024-11-06T20:00:00	6	Velocidad del viento	6.4
48358	7	Sololá	701	Sololá	3	Barraneche	9	Septiembre	2023-09-09T00:00:00	2024-11-06T20:00:00	7	Dirección del viento	6.44
48359	7	Sololá	701	Sololá	3	Barraneche	9	Septiembre	2023-09-09T00:00:00	2024-11-06T20:00:00	1	Precipitación	0
48360	7	Sololá	701	Sololá	3	Barraneche	9	Septiembre	2023-09-09T00:00:00	2024-11-06T20:00:00	8	Radiación solar	0
48361	7	Sololá	701	Sololá	3	Barraneche	9	Septiembre	2023-09-09T00:00:00	2024-11-06T21:00:00	2	Temperatura media	12.9
48362	7	Sololá	701	Sololá	3	Barraneche	9	Septiembre	2023-09-09T00:00:00	2024-11-06T21:00:00	4	Temperatura máxima	13.4
48363	7	Sololá	701	Sololá	3	Barraneche	9	Septiembre	2023-09-09T00:00:00	2024-11-06T21:00:00	3	Temperatura mínima	12.8
48364	7	Sololá	701	Sololá	3	Barraneche	9	Septiembre	2023-09-09T00:00:00	2024-11-06T21:00:00	5	Humedad	74
48365	7	Sololá	701	Sololá	3	Barraneche	9	Septiembre	2023-09-09T00:00:00	2024-11-06T21:00:00	6	Velocidad del viento	6.4
48366	7	Sololá	701	Sololá	3	Barraneche	9	Septiembre	2023-09-09T00:00:00	2024-11-06T21:00:00	7	Dirección del viento	6.44
48367	7	Sololá	701	Sololá	3	Barraneche	9	Septiembre	2023-09-09T00:00:00	2024-11-06T21:00:00	1	Precipitación	0
48368	7	Sololá	701	Sololá	3	Barraneche	9	Septiembre	2023-09-09T00:00:00	2024-11-06T21:00:00	8	Radiación solar	0
48369	7	Sololá	701	Sololá	3	Barraneche	9	Septiembre	2023-09-09T00:00:00	2024-11-06T22:00:00	2	Temperatura media	12.8
48370	7	Sololá	701	Sololá	3	Barraneche	9	Septiembre	2023-09-09T00:00:00	2024-11-06T22:00:00	4	Temperatura máxima	12.9
48371	7	Sololá	701	Sololá	3	Barraneche	9	Septiembre	2023-09-09T00:00:00	2024-11-06T22:00:00	3	Temperatura mínima	12.8
48372	7	Sololá	701	Sololá	3	Barraneche	9	Septiembre	2023-09-09T00:00:00	2024-11-06T22:00:00	5	Humedad	75
48373	7	Sololá	701	Sololá	3	Barraneche	9	Septiembre	2023-09-09T00:00:00	2024-11-06T22:00:00	6	Velocidad del viento	3.2
48374	7	Sololá	701	Sololá	3	Barraneche	9	Septiembre	2023-09-09T00:00:00	2024-11-06T22:00:00	7	Dirección del viento	3.22
48375	7	Sololá	701	Sololá	3	Barraneche	9	Septiembre	2023-09-09T00:00:00	2024-11-06T22:00:00	1	Precipitación	0
48376	7	Sololá	701	Sololá	3	Barraneche	9	Septiembre	2023-09-09T00:00:00	2024-11-06T22:00:00	8	Radiación solar	0
48377	7	Sololá	701	Sololá	3	Barraneche	9	Septiembre	2023-09-09T00:00:00	2024-11-06T23:00:00	2	Temperatura media	13.5
48378	7	Sololá	701	Sololá	3	Barraneche	9	Septiembre	2023-09-09T00:00:00	2024-11-06T23:00:00	4	Temperatura máxima	13.5
48379	7	Sololá	701	Sololá	3	Barraneche	9	Septiembre	2023-09-09T00:00:00	2024-11-06T23:00:00	3	Temperatura mínima	12.7
48380	7	Sololá	701	Sololá	3	Barraneche	9	Septiembre	2023-09-09T00:00:00	2024-11-06T23:00:00	5	Humedad	71
48381	7	Sololá	701	Sololá	3	Barraneche	9	Septiembre	2023-09-09T00:00:00	2024-11-06T23:00:00	6	Velocidad del viento	3.2
48382	7	Sololá	701	Sololá	3	Barraneche	9	Septiembre	2023-09-09T00:00:00	2024-11-06T23:00:00	7	Dirección del viento	3.22
48383	7	Sololá	701	Sololá	3	Barraneche	9	Septiembre	2023-09-09T00:00:00	2024-11-06T23:00:00	1	Precipitación	0
48384	7	Sololá	701	Sololá	3	Barraneche	9	Septiembre	2023-09-09T00:00:00	2024-11-06T23:00:00	8	Radiación solar	0
48385	7	Sololá	701	Sololá	3	Barraneche	9	Septiembre	2023-10-09T00:00:00	2024-11-06T00:00:00	2	Temperatura media	14.1
48386	7	Sololá	701	Sololá	3	Barraneche	9	Septiembre	2023-10-09T00:00:00	2024-11-06T00:00:00	4	Temperatura máxima	14.1
48387	7	Sololá	701	Sololá	3	Barraneche	9	Septiembre	2023-10-09T00:00:00	2024-11-06T00:00:00	3	Temperatura mínima	13.6
48388	7	Sololá	701	Sololá	3	Barraneche	9	Septiembre	2023-10-09T00:00:00	2024-11-06T00:00:00	5	Humedad	66
48389	7	Sololá	701	Sololá	3	Barraneche	9	Septiembre	2023-10-09T00:00:00	2024-11-06T00:00:00	6	Velocidad del viento	6.4
48390	7	Sololá	701	Sololá	3	Barraneche	9	Septiembre	2023-10-09T00:00:00	2024-11-06T00:00:00	7	Dirección del viento	6.44
48391	7	Sololá	701	Sololá	3	Barraneche	9	Septiembre	2023-10-09T00:00:00	2024-11-06T00:00:00	1	Precipitación	0
48392	7	Sololá	701	Sololá	3	Barraneche	9	Septiembre	2023-10-09T00:00:00	2024-11-06T00:00:00	8	Radiación solar	0
48393	7	Sololá	701	Sololá	3	Barraneche	9	Septiembre	2023-10-09T00:00:00	2024-11-06T01:00:00	2	Temperatura media	14.1
48394	7	Sololá	701	Sololá	3	Barraneche	9	Septiembre	2023-10-09T00:00:00	2024-11-06T01:00:00	4	Temperatura máxima	14.2
48395	7	Sololá	701	Sololá	3	Barraneche	9	Septiembre	2023-10-09T00:00:00	2024-11-06T01:00:00	3	Temperatura mínima	13.7
48396	7	Sololá	701	Sololá	3	Barraneche	9	Septiembre	2023-10-09T00:00:00	2024-11-06T01:00:00	5	Humedad	65
48397	7	Sololá	701	Sololá	3	Barraneche	9	Septiembre	2023-10-09T00:00:00	2024-11-06T01:00:00	6	Velocidad del viento	4.8
48398	7	Sololá	701	Sololá	3	Barraneche	9	Septiembre	2023-10-09T00:00:00	2024-11-06T01:00:00	7	Dirección del viento	4.83
48399	7	Sololá	701	Sololá	3	Barraneche	9	Septiembre	2023-10-09T00:00:00	2024-11-06T01:00:00	1	Precipitación	0
48400	7	Sololá	701	Sololá	3	Barraneche	9	Septiembre	2023-10-09T00:00:00	2024-11-06T01:00:00	8	Radiación solar	0
48401	7	Sololá	701	Sololá	3	Barraneche	9	Septiembre	2023-10-09T00:00:00	2024-11-06T02:00:00	2	Temperatura media	12.9
48402	7	Sololá	701	Sololá	3	Barraneche	9	Septiembre	2023-10-09T00:00:00	2024-11-06T02:00:00	4	Temperatura máxima	14.1
48403	7	Sololá	701	Sololá	3	Barraneche	9	Septiembre	2023-10-09T00:00:00	2024-11-06T02:00:00	3	Temperatura mínima	12.9
48404	7	Sololá	701	Sololá	3	Barraneche	9	Septiembre	2023-10-09T00:00:00	2024-11-06T02:00:00	5	Humedad	71
48405	7	Sololá	701	Sololá	3	Barraneche	9	Septiembre	2023-10-09T00:00:00	2024-11-06T02:00:00	6	Velocidad del viento	3.2
48406	7	Sololá	701	Sololá	3	Barraneche	9	Septiembre	2023-10-09T00:00:00	2024-11-06T02:00:00	7	Dirección del viento	3.22
48407	7	Sololá	701	Sololá	3	Barraneche	9	Septiembre	2023-10-09T00:00:00	2024-11-06T02:00:00	1	Precipitación	0
48408	7	Sololá	701	Sololá	3	Barraneche	9	Septiembre	2023-10-09T00:00:00	2024-11-06T02:00:00	8	Radiación solar	0
48409	7	Sololá	701	Sololá	3	Barraneche	9	Septiembre	2023-10-09T00:00:00	2024-11-06T03:00:00	2	Temperatura media	12.1
48410	7	Sololá	701	Sololá	3	Barraneche	9	Septiembre	2023-10-09T00:00:00	2024-11-06T03:00:00	4	Temperatura máxima	12.9
48411	7	Sololá	701	Sololá	3	Barraneche	9	Septiembre	2023-10-09T00:00:00	2024-11-06T03:00:00	3	Temperatura mínima	12.1
48412	7	Sololá	701	Sololá	3	Barraneche	9	Septiembre	2023-10-09T00:00:00	2024-11-06T03:00:00	5	Humedad	72
48413	7	Sololá	701	Sololá	3	Barraneche	9	Septiembre	2023-10-09T00:00:00	2024-11-06T03:00:00	6	Velocidad del viento	1.6
48414	7	Sololá	701	Sololá	3	Barraneche	9	Septiembre	2023-10-09T00:00:00	2024-11-06T03:00:00	7	Dirección del viento	1.61
48415	7	Sololá	701	Sololá	3	Barraneche	9	Septiembre	2023-10-09T00:00:00	2024-11-06T03:00:00	1	Precipitación	0
48416	7	Sololá	701	Sololá	3	Barraneche	9	Septiembre	2023-10-09T00:00:00	2024-11-06T03:00:00	8	Radiación solar	0
48417	7	Sololá	701	Sololá	3	Barraneche	9	Septiembre	2023-10-09T00:00:00	2024-11-06T04:00:00	2	Temperatura media	11.8
48418	7	Sololá	701	Sololá	3	Barraneche	9	Septiembre	2023-10-09T00:00:00	2024-11-06T04:00:00	4	Temperatura máxima	12.2
48419	7	Sololá	701	Sololá	3	Barraneche	9	Septiembre	2023-10-09T00:00:00	2024-11-06T04:00:00	3	Temperatura mínima	11.8
48420	7	Sololá	701	Sololá	3	Barraneche	9	Septiembre	2023-10-09T00:00:00	2024-11-06T04:00:00	5	Humedad	73
48421	7	Sololá	701	Sololá	3	Barraneche	9	Septiembre	2023-10-09T00:00:00	2024-11-06T04:00:00	6	Velocidad del viento	3.2
48422	7	Sololá	701	Sololá	3	Barraneche	9	Septiembre	2023-10-09T00:00:00	2024-11-06T04:00:00	7	Dirección del viento	3.22
48423	7	Sololá	701	Sololá	3	Barraneche	9	Septiembre	2023-10-09T00:00:00	2024-11-06T04:00:00	1	Precipitación	0
48424	7	Sololá	701	Sololá	3	Barraneche	9	Septiembre	2023-10-09T00:00:00	2024-11-06T04:00:00	8	Radiación solar	0
48425	7	Sololá	701	Sololá	3	Barraneche	9	Septiembre	2023-10-09T00:00:00	2024-11-06T05:00:00	2	Temperatura media	12.1
48426	7	Sololá	701	Sololá	3	Barraneche	9	Septiembre	2023-10-09T00:00:00	2024-11-06T05:00:00	4	Temperatura máxima	12.1
48427	7	Sololá	701	Sololá	3	Barraneche	9	Septiembre	2023-10-09T00:00:00	2024-11-06T05:00:00	3	Temperatura mínima	11.6
48428	7	Sololá	701	Sololá	3	Barraneche	9	Septiembre	2023-10-09T00:00:00	2024-11-06T05:00:00	5	Humedad	71
48429	7	Sololá	701	Sololá	3	Barraneche	9	Septiembre	2023-10-09T00:00:00	2024-11-06T05:00:00	6	Velocidad del viento	3.2
48430	7	Sololá	701	Sololá	3	Barraneche	9	Septiembre	2023-10-09T00:00:00	2024-11-06T05:00:00	7	Dirección del viento	3.22
48431	7	Sololá	701	Sololá	3	Barraneche	9	Septiembre	2023-10-09T00:00:00	2024-11-06T05:00:00	1	Precipitación	0
48432	7	Sololá	701	Sololá	3	Barraneche	9	Septiembre	2023-10-09T00:00:00	2024-11-06T05:00:00	8	Radiación solar	0
48433	7	Sololá	701	Sololá	3	Barraneche	9	Septiembre	2023-10-09T00:00:00	2024-11-06T06:00:00	2	Temperatura media	12.9
48434	7	Sololá	701	Sololá	3	Barraneche	9	Septiembre	2023-10-09T00:00:00	2024-11-06T06:00:00	4	Temperatura máxima	13.5
48435	7	Sololá	701	Sololá	3	Barraneche	9	Septiembre	2023-10-09T00:00:00	2024-11-06T06:00:00	3	Temperatura mínima	12.1
48436	7	Sololá	701	Sololá	3	Barraneche	9	Septiembre	2023-10-09T00:00:00	2024-11-06T06:00:00	5	Humedad	68
48437	7	Sololá	701	Sololá	3	Barraneche	9	Septiembre	2023-10-09T00:00:00	2024-11-06T06:00:00	6	Velocidad del viento	4.8
48438	7	Sololá	701	Sololá	3	Barraneche	9	Septiembre	2023-10-09T00:00:00	2024-11-06T06:00:00	7	Dirección del viento	4.83
48439	7	Sololá	701	Sololá	3	Barraneche	9	Septiembre	2023-10-09T00:00:00	2024-11-06T06:00:00	1	Precipitación	0
48440	7	Sololá	701	Sololá	3	Barraneche	9	Septiembre	2023-10-09T00:00:00	2024-11-06T06:00:00	8	Radiación solar	0
48441	7	Sololá	701	Sololá	3	Barraneche	9	Septiembre	2023-10-09T00:00:00	2024-11-06T07:00:00	2	Temperatura media	12.8
48442	7	Sololá	701	Sololá	3	Barraneche	9	Septiembre	2023-10-09T00:00:00	2024-11-06T07:00:00	4	Temperatura máxima	13.1
48443	7	Sololá	701	Sololá	3	Barraneche	9	Septiembre	2023-10-09T00:00:00	2024-11-06T07:00:00	3	Temperatura mínima	12.5
48444	7	Sololá	701	Sololá	3	Barraneche	9	Septiembre	2023-10-09T00:00:00	2024-11-06T07:00:00	5	Humedad	71
48445	7	Sololá	701	Sololá	3	Barraneche	9	Septiembre	2023-10-09T00:00:00	2024-11-06T07:00:00	6	Velocidad del viento	3.2
48446	7	Sololá	701	Sololá	3	Barraneche	9	Septiembre	2023-10-09T00:00:00	2024-11-06T07:00:00	7	Dirección del viento	3.22
48447	7	Sololá	701	Sololá	3	Barraneche	9	Septiembre	2023-10-09T00:00:00	2024-11-06T07:00:00	1	Precipitación	0
48448	7	Sololá	701	Sololá	3	Barraneche	9	Septiembre	2023-10-09T00:00:00	2024-11-06T07:00:00	8	Radiación solar	27
48449	7	Sololá	701	Sololá	3	Barraneche	9	Septiembre	2023-10-09T00:00:00	2024-11-06T08:00:00	2	Temperatura media	13.9
48450	7	Sololá	701	Sololá	3	Barraneche	9	Septiembre	2023-10-09T00:00:00	2024-11-06T08:00:00	4	Temperatura máxima	14.1
48451	7	Sololá	701	Sololá	3	Barraneche	9	Septiembre	2023-10-09T00:00:00	2024-11-06T08:00:00	3	Temperatura mínima	12.8
48452	7	Sololá	701	Sololá	3	Barraneche	9	Septiembre	2023-10-09T00:00:00	2024-11-06T08:00:00	5	Humedad	71
48453	7	Sololá	701	Sololá	3	Barraneche	9	Septiembre	2023-10-09T00:00:00	2024-11-06T08:00:00	6	Velocidad del viento	1.6
48454	7	Sololá	701	Sololá	3	Barraneche	9	Septiembre	2023-10-09T00:00:00	2024-11-06T08:00:00	7	Dirección del viento	1.61
48455	7	Sololá	701	Sololá	3	Barraneche	9	Septiembre	2023-10-09T00:00:00	2024-11-06T08:00:00	1	Precipitación	0
48456	7	Sololá	701	Sololá	3	Barraneche	9	Septiembre	2023-10-09T00:00:00	2024-11-06T08:00:00	8	Radiación solar	119
48457	7	Sololá	701	Sololá	3	Barraneche	9	Septiembre	2023-10-09T00:00:00	2024-11-06T09:00:00	2	Temperatura media	15.1
48458	7	Sololá	701	Sololá	3	Barraneche	9	Septiembre	2023-10-09T00:00:00	2024-11-06T09:00:00	4	Temperatura máxima	15.1
48459	7	Sololá	701	Sololá	3	Barraneche	9	Septiembre	2023-10-09T00:00:00	2024-11-06T09:00:00	3	Temperatura mínima	13.9
48460	7	Sololá	701	Sololá	3	Barraneche	9	Septiembre	2023-10-09T00:00:00	2024-11-06T09:00:00	5	Humedad	66
48461	7	Sololá	701	Sololá	3	Barraneche	9	Septiembre	2023-10-09T00:00:00	2024-11-06T09:00:00	6	Velocidad del viento	1.6
48462	7	Sololá	701	Sololá	3	Barraneche	9	Septiembre	2023-10-09T00:00:00	2024-11-06T09:00:00	7	Dirección del viento	1.61
48463	7	Sololá	701	Sololá	3	Barraneche	9	Septiembre	2023-10-09T00:00:00	2024-11-06T09:00:00	1	Precipitación	0
48464	7	Sololá	701	Sololá	3	Barraneche	9	Septiembre	2023-10-09T00:00:00	2024-11-06T09:00:00	8	Radiación solar	213
48465	7	Sololá	701	Sololá	3	Barraneche	9	Septiembre	2023-10-09T00:00:00	2024-11-06T10:00:00	2	Temperatura media	17.1
48466	7	Sololá	701	Sololá	3	Barraneche	9	Septiembre	2023-10-09T00:00:00	2024-11-06T10:00:00	4	Temperatura máxima	17.1
48467	7	Sololá	701	Sololá	3	Barraneche	9	Septiembre	2023-10-09T00:00:00	2024-11-06T10:00:00	3	Temperatura mínima	15.1
48468	7	Sololá	701	Sololá	3	Barraneche	9	Septiembre	2023-10-09T00:00:00	2024-11-06T10:00:00	5	Humedad	63
48469	7	Sololá	701	Sololá	3	Barraneche	9	Septiembre	2023-10-09T00:00:00	2024-11-06T10:00:00	6	Velocidad del viento	3.2
48470	7	Sololá	701	Sololá	3	Barraneche	9	Septiembre	2023-10-09T00:00:00	2024-11-06T10:00:00	7	Dirección del viento	3.22
48471	7	Sololá	701	Sololá	3	Barraneche	9	Septiembre	2023-10-09T00:00:00	2024-11-06T10:00:00	1	Precipitación	0
48472	7	Sololá	701	Sololá	3	Barraneche	9	Septiembre	2023-10-09T00:00:00	2024-11-06T10:00:00	8	Radiación solar	382
48473	7	Sololá	701	Sololá	3	Barraneche	9	Septiembre	2023-10-09T00:00:00	2024-11-06T11:00:00	2	Temperatura media	19
48474	7	Sololá	701	Sololá	3	Barraneche	9	Septiembre	2023-10-09T00:00:00	2024-11-06T11:00:00	4	Temperatura máxima	19.3
48475	7	Sololá	701	Sololá	3	Barraneche	9	Septiembre	2023-10-09T00:00:00	2024-11-06T11:00:00	3	Temperatura mínima	17.1
48476	7	Sololá	701	Sololá	3	Barraneche	9	Septiembre	2023-10-09T00:00:00	2024-11-06T11:00:00	5	Humedad	52
48477	7	Sololá	701	Sololá	3	Barraneche	9	Septiembre	2023-10-09T00:00:00	2024-11-06T11:00:00	6	Velocidad del viento	9.7
48478	7	Sololá	701	Sololá	3	Barraneche	9	Septiembre	2023-10-09T00:00:00	2024-11-06T11:00:00	7	Dirección del viento	9.66
48479	7	Sololá	701	Sololá	3	Barraneche	9	Septiembre	2023-10-09T00:00:00	2024-11-06T11:00:00	1	Precipitación	0
48480	7	Sololá	701	Sololá	3	Barraneche	9	Septiembre	2023-10-09T00:00:00	2024-11-06T11:00:00	8	Radiación solar	909
48481	7	Sololá	701	Sololá	3	Barraneche	9	Septiembre	2023-10-09T00:00:00	2024-11-06T12:00:00	2	Temperatura media	20.3
48482	7	Sololá	701	Sololá	3	Barraneche	9	Septiembre	2023-10-09T00:00:00	2024-11-06T12:00:00	4	Temperatura máxima	20.6
48483	7	Sololá	701	Sololá	3	Barraneche	9	Septiembre	2023-10-09T00:00:00	2024-11-06T12:00:00	3	Temperatura mínima	19
48484	7	Sololá	701	Sololá	3	Barraneche	9	Septiembre	2023-10-09T00:00:00	2024-11-06T12:00:00	5	Humedad	50
48485	7	Sololá	701	Sololá	3	Barraneche	9	Septiembre	2023-10-09T00:00:00	2024-11-06T12:00:00	6	Velocidad del viento	9.7
48486	7	Sololá	701	Sololá	3	Barraneche	9	Septiembre	2023-10-09T00:00:00	2024-11-06T12:00:00	7	Dirección del viento	9.66
48487	7	Sololá	701	Sololá	3	Barraneche	9	Septiembre	2023-10-09T00:00:00	2024-11-06T12:00:00	1	Precipitación	0
48488	7	Sololá	701	Sololá	3	Barraneche	9	Septiembre	2023-10-09T00:00:00	2024-11-06T12:00:00	8	Radiación solar	1108
48489	7	Sololá	701	Sololá	3	Barraneche	9	Septiembre	2023-10-09T00:00:00	2024-11-06T13:00:00	2	Temperatura media	19.6
48490	7	Sololá	701	Sololá	3	Barraneche	9	Septiembre	2023-10-09T00:00:00	2024-11-06T13:00:00	4	Temperatura máxima	20.3
48491	7	Sololá	701	Sololá	3	Barraneche	9	Septiembre	2023-10-09T00:00:00	2024-11-06T13:00:00	3	Temperatura mínima	19.2
48492	7	Sololá	701	Sololá	3	Barraneche	9	Septiembre	2023-10-09T00:00:00	2024-11-06T13:00:00	5	Humedad	48
48493	7	Sololá	701	Sololá	3	Barraneche	9	Septiembre	2023-10-09T00:00:00	2024-11-06T13:00:00	6	Velocidad del viento	9.7
48494	7	Sololá	701	Sololá	3	Barraneche	9	Septiembre	2023-10-09T00:00:00	2024-11-06T13:00:00	7	Dirección del viento	9.66
48495	7	Sololá	701	Sololá	3	Barraneche	9	Septiembre	2023-10-09T00:00:00	2024-11-06T13:00:00	1	Precipitación	0
48496	7	Sololá	701	Sololá	3	Barraneche	9	Septiembre	2023-10-09T00:00:00	2024-11-06T13:00:00	8	Radiación solar	817
48497	7	Sololá	701	Sololá	3	Barraneche	9	Septiembre	2023-10-09T00:00:00	2024-11-06T14:00:00	2	Temperatura media	20.4
48498	7	Sololá	701	Sololá	3	Barraneche	9	Septiembre	2023-10-09T00:00:00	2024-11-06T14:00:00	4	Temperatura máxima	20.4
48499	7	Sololá	701	Sololá	3	Barraneche	9	Septiembre	2023-10-09T00:00:00	2024-11-06T14:00:00	3	Temperatura mínima	18.1
48500	7	Sololá	701	Sololá	3	Barraneche	9	Septiembre	2023-10-09T00:00:00	2024-11-06T14:00:00	5	Humedad	45
48501	7	Sololá	701	Sololá	3	Barraneche	9	Septiembre	2023-10-09T00:00:00	2024-11-06T14:00:00	6	Velocidad del viento	11.3
48502	7	Sololá	701	Sololá	3	Barraneche	9	Septiembre	2023-10-09T00:00:00	2024-11-06T14:00:00	7	Dirección del viento	11.27
48503	7	Sololá	701	Sololá	3	Barraneche	9	Septiembre	2023-10-09T00:00:00	2024-11-06T14:00:00	1	Precipitación	0
48504	7	Sololá	701	Sololá	3	Barraneche	9	Septiembre	2023-10-09T00:00:00	2024-11-06T14:00:00	8	Radiación solar	630
48505	7	Sololá	701	Sololá	3	Barraneche	9	Septiembre	2023-10-09T00:00:00	2024-11-06T15:00:00	2	Temperatura media	20.2
48506	7	Sololá	701	Sololá	3	Barraneche	9	Septiembre	2023-10-09T00:00:00	2024-11-06T15:00:00	4	Temperatura máxima	20.8
48507	7	Sololá	701	Sololá	3	Barraneche	9	Septiembre	2023-10-09T00:00:00	2024-11-06T15:00:00	3	Temperatura mínima	20.2
48508	7	Sololá	701	Sololá	3	Barraneche	9	Septiembre	2023-10-09T00:00:00	2024-11-06T15:00:00	5	Humedad	47
48509	7	Sololá	701	Sololá	3	Barraneche	9	Septiembre	2023-10-09T00:00:00	2024-11-06T15:00:00	6	Velocidad del viento	11.3
48510	7	Sololá	701	Sololá	3	Barraneche	9	Septiembre	2023-10-09T00:00:00	2024-11-06T15:00:00	7	Dirección del viento	11.27
48511	7	Sololá	701	Sololá	3	Barraneche	9	Septiembre	2023-10-09T00:00:00	2024-11-06T15:00:00	1	Precipitación	0
48512	7	Sololá	701	Sololá	3	Barraneche	9	Septiembre	2023-10-09T00:00:00	2024-11-06T15:00:00	8	Radiación solar	810
48513	7	Sololá	701	Sololá	3	Barraneche	9	Septiembre	2023-10-09T00:00:00	2024-11-06T16:00:00	2	Temperatura media	18.8
48514	7	Sololá	701	Sololá	3	Barraneche	9	Septiembre	2023-10-09T00:00:00	2024-11-06T16:00:00	4	Temperatura máxima	20.2
48515	7	Sololá	701	Sololá	3	Barraneche	9	Septiembre	2023-10-09T00:00:00	2024-11-06T16:00:00	3	Temperatura mínima	18.1
48516	7	Sololá	701	Sololá	3	Barraneche	9	Septiembre	2023-10-09T00:00:00	2024-11-06T16:00:00	5	Humedad	53
48517	7	Sololá	701	Sololá	3	Barraneche	9	Septiembre	2023-10-09T00:00:00	2024-11-06T16:00:00	6	Velocidad del viento	9.7
48518	7	Sololá	701	Sololá	3	Barraneche	9	Septiembre	2023-10-09T00:00:00	2024-11-06T16:00:00	7	Dirección del viento	9.66
48519	7	Sololá	701	Sololá	3	Barraneche	9	Septiembre	2023-10-09T00:00:00	2024-11-06T16:00:00	1	Precipitación	0
48520	7	Sololá	701	Sololá	3	Barraneche	9	Septiembre	2023-10-09T00:00:00	2024-11-06T16:00:00	8	Radiación solar	264
48521	7	Sololá	701	Sololá	3	Barraneche	9	Septiembre	2023-10-09T00:00:00	2024-11-06T17:00:00	2	Temperatura media	16.4
48522	7	Sololá	701	Sololá	3	Barraneche	9	Septiembre	2023-10-09T00:00:00	2024-11-06T17:00:00	4	Temperatura máxima	18.8
48523	7	Sololá	701	Sololá	3	Barraneche	9	Septiembre	2023-10-09T00:00:00	2024-11-06T17:00:00	3	Temperatura mínima	16.4
48524	7	Sololá	701	Sololá	3	Barraneche	9	Septiembre	2023-10-09T00:00:00	2024-11-06T17:00:00	5	Humedad	71
48525	7	Sololá	701	Sololá	3	Barraneche	9	Septiembre	2023-10-09T00:00:00	2024-11-06T17:00:00	6	Velocidad del viento	6.4
48526	7	Sololá	701	Sololá	3	Barraneche	9	Septiembre	2023-10-09T00:00:00	2024-11-06T17:00:00	7	Dirección del viento	6.44
48527	7	Sololá	701	Sololá	3	Barraneche	9	Septiembre	2023-10-09T00:00:00	2024-11-06T17:00:00	1	Precipitación	0
48528	7	Sololá	701	Sololá	3	Barraneche	9	Septiembre	2023-10-09T00:00:00	2024-11-06T17:00:00	8	Radiación solar	95
48529	7	Sololá	701	Sololá	3	Barraneche	9	Septiembre	2023-10-09T00:00:00	2024-11-06T18:00:00	2	Temperatura media	16.1
48530	7	Sololá	701	Sololá	3	Barraneche	9	Septiembre	2023-10-09T00:00:00	2024-11-06T18:00:00	4	Temperatura máxima	16.4
48531	7	Sololá	701	Sololá	3	Barraneche	9	Septiembre	2023-10-09T00:00:00	2024-11-06T18:00:00	3	Temperatura mínima	16.1
48532	7	Sololá	701	Sololá	3	Barraneche	9	Septiembre	2023-10-09T00:00:00	2024-11-06T18:00:00	5	Humedad	73
48533	7	Sololá	701	Sololá	3	Barraneche	9	Septiembre	2023-10-09T00:00:00	2024-11-06T18:00:00	6	Velocidad del viento	4.8
48534	7	Sololá	701	Sololá	3	Barraneche	9	Septiembre	2023-10-09T00:00:00	2024-11-06T18:00:00	7	Dirección del viento	4.83
48535	7	Sololá	701	Sololá	3	Barraneche	9	Septiembre	2023-10-09T00:00:00	2024-11-06T18:00:00	1	Precipitación	0
48536	7	Sololá	701	Sololá	3	Barraneche	9	Septiembre	2023-10-09T00:00:00	2024-11-06T18:00:00	8	Radiación solar	46
48537	7	Sololá	701	Sololá	3	Barraneche	9	Septiembre	2023-10-09T00:00:00	2024-11-06T19:00:00	2	Temperatura media	14.3
48538	7	Sololá	701	Sololá	3	Barraneche	9	Septiembre	2023-10-09T00:00:00	2024-11-06T19:00:00	4	Temperatura máxima	16.1
48539	7	Sololá	701	Sololá	3	Barraneche	9	Septiembre	2023-10-09T00:00:00	2024-11-06T19:00:00	3	Temperatura mínima	14.3
48540	7	Sololá	701	Sololá	3	Barraneche	9	Septiembre	2023-10-09T00:00:00	2024-11-06T19:00:00	5	Humedad	72
48541	7	Sololá	701	Sololá	3	Barraneche	9	Septiembre	2023-10-09T00:00:00	2024-11-06T19:00:00	6	Velocidad del viento	3.2
48542	7	Sololá	701	Sololá	3	Barraneche	9	Septiembre	2023-10-09T00:00:00	2024-11-06T19:00:00	7	Dirección del viento	3.22
48543	7	Sololá	701	Sololá	3	Barraneche	9	Septiembre	2023-10-09T00:00:00	2024-11-06T19:00:00	1	Precipitación	0.2
48544	7	Sololá	701	Sololá	3	Barraneche	9	Septiembre	2023-10-09T00:00:00	2024-11-06T19:00:00	8	Radiación solar	0
48545	7	Sololá	701	Sololá	3	Barraneche	9	Septiembre	2023-10-09T00:00:00	2024-11-06T20:00:00	2	Temperatura media	14
48546	7	Sololá	701	Sololá	3	Barraneche	9	Septiembre	2023-10-09T00:00:00	2024-11-06T20:00:00	4	Temperatura máxima	14.3
48547	7	Sololá	701	Sololá	3	Barraneche	9	Septiembre	2023-10-09T00:00:00	2024-11-06T20:00:00	3	Temperatura mínima	13.9
48548	7	Sololá	701	Sololá	3	Barraneche	9	Septiembre	2023-10-09T00:00:00	2024-11-06T20:00:00	5	Humedad	81
48549	7	Sololá	701	Sololá	3	Barraneche	9	Septiembre	2023-10-09T00:00:00	2024-11-06T20:00:00	6	Velocidad del viento	3.2
48550	7	Sololá	701	Sololá	3	Barraneche	9	Septiembre	2023-10-09T00:00:00	2024-11-06T20:00:00	7	Dirección del viento	3.22
48551	7	Sololá	701	Sololá	3	Barraneche	9	Septiembre	2023-10-09T00:00:00	2024-11-06T20:00:00	1	Precipitación	5.8
48552	7	Sololá	701	Sololá	3	Barraneche	9	Septiembre	2023-10-09T00:00:00	2024-11-06T20:00:00	8	Radiación solar	0
48553	7	Sololá	701	Sololá	3	Barraneche	9	Septiembre	2023-10-09T00:00:00	2024-11-06T21:00:00	2	Temperatura media	13.9
48554	7	Sololá	701	Sololá	3	Barraneche	9	Septiembre	2023-10-09T00:00:00	2024-11-06T21:00:00	4	Temperatura máxima	14.1
48555	7	Sololá	701	Sololá	3	Barraneche	9	Septiembre	2023-10-09T00:00:00	2024-11-06T21:00:00	3	Temperatura mínima	13.8
48556	7	Sololá	701	Sololá	3	Barraneche	9	Septiembre	2023-10-09T00:00:00	2024-11-06T21:00:00	5	Humedad	75
48557	7	Sololá	701	Sololá	3	Barraneche	9	Septiembre	2023-10-09T00:00:00	2024-11-06T21:00:00	6	Velocidad del viento	1.6
48558	7	Sololá	701	Sololá	3	Barraneche	9	Septiembre	2023-10-09T00:00:00	2024-11-06T21:00:00	7	Dirección del viento	1.61
48559	7	Sololá	701	Sololá	3	Barraneche	9	Septiembre	2023-10-09T00:00:00	2024-11-06T21:00:00	1	Precipitación	0
48560	7	Sololá	701	Sololá	3	Barraneche	9	Septiembre	2023-10-09T00:00:00	2024-11-06T21:00:00	8	Radiación solar	0
48561	7	Sololá	701	Sololá	3	Barraneche	9	Septiembre	2023-10-09T00:00:00	2024-11-06T22:00:00	2	Temperatura media	13.9
48562	7	Sololá	701	Sololá	3	Barraneche	9	Septiembre	2023-10-09T00:00:00	2024-11-06T22:00:00	4	Temperatura máxima	14.3
48563	7	Sololá	701	Sololá	3	Barraneche	9	Septiembre	2023-10-09T00:00:00	2024-11-06T22:00:00	3	Temperatura mínima	13.5
48564	7	Sololá	701	Sololá	3	Barraneche	9	Septiembre	2023-10-09T00:00:00	2024-11-06T22:00:00	5	Humedad	72
48565	7	Sololá	701	Sololá	3	Barraneche	9	Septiembre	2023-10-09T00:00:00	2024-11-06T22:00:00	6	Velocidad del viento	3.2
48566	7	Sololá	701	Sololá	3	Barraneche	9	Septiembre	2023-10-09T00:00:00	2024-11-06T22:00:00	7	Dirección del viento	3.22
48567	7	Sololá	701	Sololá	3	Barraneche	9	Septiembre	2023-10-09T00:00:00	2024-11-06T22:00:00	1	Precipitación	0
48568	7	Sololá	701	Sololá	3	Barraneche	9	Septiembre	2023-10-09T00:00:00	2024-11-06T22:00:00	8	Radiación solar	0
48569	7	Sololá	701	Sololá	3	Barraneche	9	Septiembre	2023-10-09T00:00:00	2024-11-06T23:00:00	2	Temperatura media	14.4
48570	7	Sololá	701	Sololá	3	Barraneche	9	Septiembre	2023-10-09T00:00:00	2024-11-06T23:00:00	4	Temperatura máxima	14.6
48571	7	Sololá	701	Sololá	3	Barraneche	9	Septiembre	2023-10-09T00:00:00	2024-11-06T23:00:00	3	Temperatura mínima	13.6
48572	7	Sololá	701	Sololá	3	Barraneche	9	Septiembre	2023-10-09T00:00:00	2024-11-06T23:00:00	5	Humedad	70
48573	7	Sololá	701	Sololá	3	Barraneche	9	Septiembre	2023-10-09T00:00:00	2024-11-06T23:00:00	6	Velocidad del viento	3.2
48574	7	Sololá	701	Sololá	3	Barraneche	9	Septiembre	2023-10-09T00:00:00	2024-11-06T23:00:00	7	Dirección del viento	3.22
48575	7	Sololá	701	Sololá	3	Barraneche	9	Septiembre	2023-10-09T00:00:00	2024-11-06T23:00:00	1	Precipitación	0
48576	7	Sololá	701	Sololá	3	Barraneche	9	Septiembre	2023-10-09T00:00:00	2024-11-06T23:00:00	8	Radiación solar	0
48577	7	Sololá	701	Sololá	3	Barraneche	9	Septiembre	2023-11-09T00:00:00	2024-11-06T00:00:00	2	Temperatura media	13.6
48578	7	Sololá	701	Sololá	3	Barraneche	9	Septiembre	2023-11-09T00:00:00	2024-11-06T00:00:00	4	Temperatura máxima	14.4
48579	7	Sololá	701	Sololá	3	Barraneche	9	Septiembre	2023-11-09T00:00:00	2024-11-06T00:00:00	3	Temperatura mínima	13.6
48580	7	Sololá	701	Sololá	3	Barraneche	9	Septiembre	2023-11-09T00:00:00	2024-11-06T00:00:00	5	Humedad	70
48581	7	Sololá	701	Sololá	3	Barraneche	9	Septiembre	2023-11-09T00:00:00	2024-11-06T00:00:00	6	Velocidad del viento	4.8
48582	7	Sololá	701	Sololá	3	Barraneche	9	Septiembre	2023-11-09T00:00:00	2024-11-06T00:00:00	7	Dirección del viento	4.83
48583	7	Sololá	701	Sololá	3	Barraneche	9	Septiembre	2023-11-09T00:00:00	2024-11-06T00:00:00	1	Precipitación	0
48584	7	Sololá	701	Sololá	3	Barraneche	9	Septiembre	2023-11-09T00:00:00	2024-11-06T00:00:00	8	Radiación solar	0
48585	7	Sololá	701	Sololá	3	Barraneche	9	Septiembre	2023-11-09T00:00:00	2024-11-06T01:00:00	2	Temperatura media	12.8
48586	7	Sololá	701	Sololá	3	Barraneche	9	Septiembre	2023-11-09T00:00:00	2024-11-06T01:00:00	4	Temperatura máxima	13.6
48587	7	Sololá	701	Sololá	3	Barraneche	9	Septiembre	2023-11-09T00:00:00	2024-11-06T01:00:00	3	Temperatura mínima	12.6
48588	7	Sololá	701	Sololá	3	Barraneche	9	Septiembre	2023-11-09T00:00:00	2024-11-06T01:00:00	5	Humedad	71
48589	7	Sololá	701	Sololá	3	Barraneche	9	Septiembre	2023-11-09T00:00:00	2024-11-06T01:00:00	6	Velocidad del viento	1.6
48590	7	Sololá	701	Sololá	3	Barraneche	9	Septiembre	2023-11-09T00:00:00	2024-11-06T01:00:00	7	Dirección del viento	1.61
48591	7	Sololá	701	Sololá	3	Barraneche	9	Septiembre	2023-11-09T00:00:00	2024-11-06T01:00:00	1	Precipitación	0
48592	7	Sololá	701	Sololá	3	Barraneche	9	Septiembre	2023-11-09T00:00:00	2024-11-06T01:00:00	8	Radiación solar	0
48593	7	Sololá	701	Sololá	3	Barraneche	9	Septiembre	2023-11-09T00:00:00	2024-11-06T02:00:00	2	Temperatura media	12.6
48594	7	Sololá	701	Sololá	3	Barraneche	9	Septiembre	2023-11-09T00:00:00	2024-11-06T02:00:00	4	Temperatura máxima	13.3
48595	7	Sololá	701	Sololá	3	Barraneche	9	Septiembre	2023-11-09T00:00:00	2024-11-06T02:00:00	3	Temperatura mínima	12.5
48596	7	Sololá	701	Sololá	3	Barraneche	9	Septiembre	2023-11-09T00:00:00	2024-11-06T02:00:00	5	Humedad	72
48597	7	Sololá	701	Sololá	3	Barraneche	9	Septiembre	2023-11-09T00:00:00	2024-11-06T02:00:00	6	Velocidad del viento	4.8
48598	7	Sololá	701	Sololá	3	Barraneche	9	Septiembre	2023-11-09T00:00:00	2024-11-06T02:00:00	7	Dirección del viento	4.83
48599	7	Sololá	701	Sololá	3	Barraneche	9	Septiembre	2023-11-09T00:00:00	2024-11-06T02:00:00	1	Precipitación	0
48600	7	Sololá	701	Sololá	3	Barraneche	9	Septiembre	2023-11-09T00:00:00	2024-11-06T02:00:00	8	Radiación solar	0
48601	7	Sololá	701	Sololá	3	Barraneche	9	Septiembre	2023-11-09T00:00:00	2024-11-06T03:00:00	2	Temperatura media	13.1
48602	7	Sololá	701	Sololá	3	Barraneche	9	Septiembre	2023-11-09T00:00:00	2024-11-06T03:00:00	4	Temperatura máxima	13.5
48603	7	Sololá	701	Sololá	3	Barraneche	9	Septiembre	2023-11-09T00:00:00	2024-11-06T03:00:00	3	Temperatura mínima	11.9
48604	7	Sololá	701	Sololá	3	Barraneche	9	Septiembre	2023-11-09T00:00:00	2024-11-06T03:00:00	5	Humedad	68
48605	7	Sololá	701	Sololá	3	Barraneche	9	Septiembre	2023-11-09T00:00:00	2024-11-06T03:00:00	6	Velocidad del viento	4.8
48606	7	Sololá	701	Sololá	3	Barraneche	9	Septiembre	2023-11-09T00:00:00	2024-11-06T03:00:00	7	Dirección del viento	4.83
48607	7	Sololá	701	Sololá	3	Barraneche	9	Septiembre	2023-11-09T00:00:00	2024-11-06T03:00:00	1	Precipitación	0
48608	7	Sololá	701	Sololá	3	Barraneche	9	Septiembre	2023-11-09T00:00:00	2024-11-06T03:00:00	8	Radiación solar	0
48609	7	Sololá	701	Sololá	3	Barraneche	9	Septiembre	2023-11-09T00:00:00	2024-11-06T04:00:00	2	Temperatura media	13.4
48610	7	Sololá	701	Sololá	3	Barraneche	9	Septiembre	2023-11-09T00:00:00	2024-11-06T04:00:00	4	Temperatura máxima	13.4
48611	7	Sololá	701	Sololá	3	Barraneche	9	Septiembre	2023-11-09T00:00:00	2024-11-06T04:00:00	3	Temperatura mínima	12.8
48612	7	Sololá	701	Sololá	3	Barraneche	9	Septiembre	2023-11-09T00:00:00	2024-11-06T04:00:00	5	Humedad	65
48613	7	Sololá	701	Sololá	3	Barraneche	9	Septiembre	2023-11-09T00:00:00	2024-11-06T04:00:00	6	Velocidad del viento	6.4
48614	7	Sololá	701	Sololá	3	Barraneche	9	Septiembre	2023-11-09T00:00:00	2024-11-06T04:00:00	7	Dirección del viento	6.44
48615	7	Sololá	701	Sololá	3	Barraneche	9	Septiembre	2023-11-09T00:00:00	2024-11-06T04:00:00	1	Precipitación	0
48616	7	Sololá	701	Sololá	3	Barraneche	9	Septiembre	2023-11-09T00:00:00	2024-11-06T04:00:00	8	Radiación solar	0
48617	7	Sololá	701	Sololá	3	Barraneche	9	Septiembre	2023-11-09T00:00:00	2024-11-06T05:00:00	2	Temperatura media	12.2
48618	7	Sololá	701	Sololá	3	Barraneche	9	Septiembre	2023-11-09T00:00:00	2024-11-06T05:00:00	4	Temperatura máxima	14.4
48619	7	Sololá	701	Sololá	3	Barraneche	9	Septiembre	2023-11-09T00:00:00	2024-11-06T05:00:00	3	Temperatura mínima	12.2
48620	7	Sololá	701	Sololá	3	Barraneche	9	Septiembre	2023-11-09T00:00:00	2024-11-06T05:00:00	5	Humedad	67
48621	7	Sololá	701	Sololá	3	Barraneche	9	Septiembre	2023-11-09T00:00:00	2024-11-06T05:00:00	6	Velocidad del viento	6.4
48622	7	Sololá	701	Sololá	3	Barraneche	9	Septiembre	2023-11-09T00:00:00	2024-11-06T05:00:00	7	Dirección del viento	6.44
48623	7	Sololá	701	Sololá	3	Barraneche	9	Septiembre	2023-11-09T00:00:00	2024-11-06T05:00:00	1	Precipitación	0
48624	7	Sololá	701	Sololá	3	Barraneche	9	Septiembre	2023-11-09T00:00:00	2024-11-06T05:00:00	8	Radiación solar	0
48625	7	Sololá	701	Sololá	3	Barraneche	9	Septiembre	2023-11-09T00:00:00	2024-11-06T06:00:00	2	Temperatura media	11.6
48626	7	Sololá	701	Sololá	3	Barraneche	9	Septiembre	2023-11-09T00:00:00	2024-11-06T06:00:00	4	Temperatura máxima	12.2
48627	7	Sololá	701	Sololá	3	Barraneche	9	Septiembre	2023-11-09T00:00:00	2024-11-06T06:00:00	3	Temperatura mínima	11.6
48628	7	Sololá	701	Sololá	3	Barraneche	9	Septiembre	2023-11-09T00:00:00	2024-11-06T06:00:00	5	Humedad	70
48629	7	Sololá	701	Sololá	3	Barraneche	9	Septiembre	2023-11-09T00:00:00	2024-11-06T06:00:00	6	Velocidad del viento	4.8
48630	7	Sololá	701	Sololá	3	Barraneche	9	Septiembre	2023-11-09T00:00:00	2024-11-06T06:00:00	7	Dirección del viento	4.83
48631	7	Sololá	701	Sololá	3	Barraneche	9	Septiembre	2023-11-09T00:00:00	2024-11-06T06:00:00	1	Precipitación	0
48632	7	Sololá	701	Sololá	3	Barraneche	9	Septiembre	2023-11-09T00:00:00	2024-11-06T06:00:00	8	Radiación solar	0
48633	7	Sololá	701	Sololá	3	Barraneche	9	Septiembre	2023-11-09T00:00:00	2024-11-06T07:00:00	2	Temperatura media	12.2
48634	7	Sololá	701	Sololá	3	Barraneche	9	Septiembre	2023-11-09T00:00:00	2024-11-06T07:00:00	4	Temperatura máxima	12.2
48635	7	Sololá	701	Sololá	3	Barraneche	9	Septiembre	2023-11-09T00:00:00	2024-11-06T07:00:00	3	Temperatura mínima	11.3
48636	7	Sololá	701	Sololá	3	Barraneche	9	Septiembre	2023-11-09T00:00:00	2024-11-06T07:00:00	5	Humedad	72
48637	7	Sololá	701	Sololá	3	Barraneche	9	Septiembre	2023-11-09T00:00:00	2024-11-06T07:00:00	6	Velocidad del viento	3.2
48638	7	Sololá	701	Sololá	3	Barraneche	9	Septiembre	2023-11-09T00:00:00	2024-11-06T07:00:00	7	Dirección del viento	3.22
48639	7	Sololá	701	Sololá	3	Barraneche	9	Septiembre	2023-11-09T00:00:00	2024-11-06T07:00:00	1	Precipitación	0
48640	7	Sololá	701	Sololá	3	Barraneche	9	Septiembre	2023-11-09T00:00:00	2024-11-06T07:00:00	8	Radiación solar	72
48641	7	Sololá	701	Sololá	3	Barraneche	9	Septiembre	2023-11-09T00:00:00	2024-11-06T08:00:00	2	Temperatura media	15.2
48642	7	Sololá	701	Sololá	3	Barraneche	9	Septiembre	2023-11-09T00:00:00	2024-11-06T08:00:00	4	Temperatura máxima	15.3
48643	7	Sololá	701	Sololá	3	Barraneche	9	Septiembre	2023-11-09T00:00:00	2024-11-06T08:00:00	3	Temperatura mínima	12.2
48644	7	Sololá	701	Sololá	3	Barraneche	9	Septiembre	2023-11-09T00:00:00	2024-11-06T08:00:00	5	Humedad	66
48645	7	Sololá	701	Sololá	3	Barraneche	9	Septiembre	2023-11-09T00:00:00	2024-11-06T08:00:00	6	Velocidad del viento	4.8
48646	7	Sololá	701	Sololá	3	Barraneche	9	Septiembre	2023-11-09T00:00:00	2024-11-06T08:00:00	7	Dirección del viento	4.83
48647	7	Sololá	701	Sololá	3	Barraneche	9	Septiembre	2023-11-09T00:00:00	2024-11-06T08:00:00	1	Precipitación	0.2
48648	7	Sololá	701	Sololá	3	Barraneche	9	Septiembre	2023-11-09T00:00:00	2024-11-06T08:00:00	8	Radiación solar	226
48649	7	Sololá	701	Sololá	3	Barraneche	9	Septiembre	2023-11-09T00:00:00	2024-11-06T09:00:00	2	Temperatura media	17.4
48650	7	Sololá	701	Sololá	3	Barraneche	9	Septiembre	2023-11-09T00:00:00	2024-11-06T09:00:00	4	Temperatura máxima	17.4
48651	7	Sololá	701	Sololá	3	Barraneche	9	Septiembre	2023-11-09T00:00:00	2024-11-06T09:00:00	3	Temperatura mínima	15.2
48652	7	Sololá	701	Sololá	3	Barraneche	9	Septiembre	2023-11-09T00:00:00	2024-11-06T09:00:00	5	Humedad	55
48653	7	Sololá	701	Sololá	3	Barraneche	9	Septiembre	2023-11-09T00:00:00	2024-11-06T09:00:00	6	Velocidad del viento	8
48654	7	Sololá	701	Sololá	3	Barraneche	9	Septiembre	2023-11-09T00:00:00	2024-11-06T09:00:00	7	Dirección del viento	8.05
48655	7	Sololá	701	Sololá	3	Barraneche	9	Septiembre	2023-11-09T00:00:00	2024-11-06T09:00:00	1	Precipitación	0
48656	7	Sololá	701	Sololá	3	Barraneche	9	Septiembre	2023-11-09T00:00:00	2024-11-06T09:00:00	8	Radiación solar	558
48657	7	Sololá	701	Sololá	3	Barraneche	9	Septiembre	2023-11-09T00:00:00	2024-11-06T10:00:00	2	Temperatura media	18.8
48658	7	Sololá	701	Sololá	3	Barraneche	9	Septiembre	2023-11-09T00:00:00	2024-11-06T10:00:00	4	Temperatura máxima	18.8
48659	7	Sololá	701	Sololá	3	Barraneche	9	Septiembre	2023-11-09T00:00:00	2024-11-06T10:00:00	3	Temperatura mínima	17.4
48660	7	Sololá	701	Sololá	3	Barraneche	9	Septiembre	2023-11-09T00:00:00	2024-11-06T10:00:00	5	Humedad	51
48661	7	Sololá	701	Sololá	3	Barraneche	9	Septiembre	2023-11-09T00:00:00	2024-11-06T10:00:00	6	Velocidad del viento	6.4
48662	7	Sololá	701	Sololá	3	Barraneche	9	Septiembre	2023-11-09T00:00:00	2024-11-06T10:00:00	7	Dirección del viento	6.44
48663	7	Sololá	701	Sololá	3	Barraneche	9	Septiembre	2023-11-09T00:00:00	2024-11-06T10:00:00	1	Precipitación	0
48664	7	Sololá	701	Sololá	3	Barraneche	9	Septiembre	2023-11-09T00:00:00	2024-11-06T10:00:00	8	Radiación solar	755
48665	7	Sololá	701	Sololá	3	Barraneche	9	Septiembre	2023-11-09T00:00:00	2024-11-06T11:00:00	2	Temperatura media	19.2
48666	7	Sololá	701	Sololá	3	Barraneche	9	Septiembre	2023-11-09T00:00:00	2024-11-06T11:00:00	4	Temperatura máxima	19.3
48667	7	Sololá	701	Sololá	3	Barraneche	9	Septiembre	2023-11-09T00:00:00	2024-11-06T11:00:00	3	Temperatura mínima	18.7
48668	7	Sololá	701	Sololá	3	Barraneche	9	Septiembre	2023-11-09T00:00:00	2024-11-06T11:00:00	5	Humedad	51
48669	7	Sololá	701	Sololá	3	Barraneche	9	Septiembre	2023-11-09T00:00:00	2024-11-06T11:00:00	6	Velocidad del viento	11.3
48670	7	Sololá	701	Sololá	3	Barraneche	9	Septiembre	2023-11-09T00:00:00	2024-11-06T11:00:00	7	Dirección del viento	11.27
48671	7	Sololá	701	Sololá	3	Barraneche	9	Septiembre	2023-11-09T00:00:00	2024-11-06T11:00:00	1	Precipitación	0
48672	7	Sololá	701	Sololá	3	Barraneche	9	Septiembre	2023-11-09T00:00:00	2024-11-06T11:00:00	8	Radiación solar	957
48673	7	Sololá	701	Sololá	3	Barraneche	9	Septiembre	2023-11-09T00:00:00	2024-11-06T12:00:00	2	Temperatura media	19.4
48674	7	Sololá	701	Sololá	3	Barraneche	9	Septiembre	2023-11-09T00:00:00	2024-11-06T12:00:00	4	Temperatura máxima	19.8
48675	7	Sololá	701	Sololá	3	Barraneche	9	Septiembre	2023-11-09T00:00:00	2024-11-06T12:00:00	3	Temperatura mínima	19
48676	7	Sololá	701	Sololá	3	Barraneche	9	Septiembre	2023-11-09T00:00:00	2024-11-06T12:00:00	5	Humedad	51
48677	7	Sololá	701	Sololá	3	Barraneche	9	Septiembre	2023-11-09T00:00:00	2024-11-06T12:00:00	6	Velocidad del viento	11.3
48678	7	Sololá	701	Sololá	3	Barraneche	9	Septiembre	2023-11-09T00:00:00	2024-11-06T12:00:00	7	Dirección del viento	11.27
48679	7	Sololá	701	Sololá	3	Barraneche	9	Septiembre	2023-11-09T00:00:00	2024-11-06T12:00:00	1	Precipitación	0
48680	7	Sololá	701	Sololá	3	Barraneche	9	Septiembre	2023-11-09T00:00:00	2024-11-06T12:00:00	8	Radiación solar	1045
48681	7	Sololá	701	Sololá	3	Barraneche	9	Septiembre	2023-11-09T00:00:00	2024-11-06T13:00:00	2	Temperatura media	18.7
48682	7	Sololá	701	Sololá	3	Barraneche	9	Septiembre	2023-11-09T00:00:00	2024-11-06T13:00:00	4	Temperatura máxima	19.8
48683	7	Sololá	701	Sololá	3	Barraneche	9	Septiembre	2023-11-09T00:00:00	2024-11-06T13:00:00	3	Temperatura mínima	18.4
48684	7	Sololá	701	Sololá	3	Barraneche	9	Septiembre	2023-11-09T00:00:00	2024-11-06T13:00:00	5	Humedad	56
48685	7	Sololá	701	Sololá	3	Barraneche	9	Septiembre	2023-11-09T00:00:00	2024-11-06T13:00:00	6	Velocidad del viento	12.9
48686	7	Sololá	701	Sololá	3	Barraneche	9	Septiembre	2023-11-09T00:00:00	2024-11-06T13:00:00	7	Dirección del viento	12.87
48687	7	Sololá	701	Sololá	3	Barraneche	9	Septiembre	2023-11-09T00:00:00	2024-11-06T13:00:00	1	Precipitación	0
48688	7	Sololá	701	Sololá	3	Barraneche	9	Septiembre	2023-11-09T00:00:00	2024-11-06T13:00:00	8	Radiación solar	567
48689	7	Sololá	701	Sololá	3	Barraneche	9	Septiembre	2023-11-09T00:00:00	2024-11-06T14:00:00	2	Temperatura media	19.8
48690	7	Sololá	701	Sololá	3	Barraneche	9	Septiembre	2023-11-09T00:00:00	2024-11-06T14:00:00	4	Temperatura máxima	19.9
48691	7	Sololá	701	Sololá	3	Barraneche	9	Septiembre	2023-11-09T00:00:00	2024-11-06T14:00:00	3	Temperatura mínima	18.1
48692	7	Sololá	701	Sololá	3	Barraneche	9	Septiembre	2023-11-09T00:00:00	2024-11-06T14:00:00	5	Humedad	52
48693	7	Sololá	701	Sololá	3	Barraneche	9	Septiembre	2023-11-09T00:00:00	2024-11-06T14:00:00	6	Velocidad del viento	12.9
48694	7	Sololá	701	Sololá	3	Barraneche	9	Septiembre	2023-11-09T00:00:00	2024-11-06T14:00:00	7	Dirección del viento	12.87
48695	7	Sololá	701	Sololá	3	Barraneche	9	Septiembre	2023-11-09T00:00:00	2024-11-06T14:00:00	1	Precipitación	0
48696	7	Sololá	701	Sololá	3	Barraneche	9	Septiembre	2023-11-09T00:00:00	2024-11-06T14:00:00	8	Radiación solar	717
48697	7	Sololá	701	Sololá	3	Barraneche	9	Septiembre	2023-11-09T00:00:00	2024-11-06T15:00:00	2	Temperatura media	20.7
48698	7	Sololá	701	Sololá	3	Barraneche	9	Septiembre	2023-11-09T00:00:00	2024-11-06T15:00:00	4	Temperatura máxima	20.9
48699	7	Sololá	701	Sololá	3	Barraneche	9	Septiembre	2023-11-09T00:00:00	2024-11-06T15:00:00	3	Temperatura mínima	19.8
48700	7	Sololá	701	Sololá	3	Barraneche	9	Septiembre	2023-11-09T00:00:00	2024-11-06T15:00:00	5	Humedad	53
48701	7	Sololá	701	Sololá	3	Barraneche	9	Septiembre	2023-11-09T00:00:00	2024-11-06T15:00:00	6	Velocidad del viento	12.9
48702	7	Sololá	701	Sololá	3	Barraneche	9	Septiembre	2023-11-09T00:00:00	2024-11-06T15:00:00	7	Dirección del viento	12.87
48703	7	Sololá	701	Sololá	3	Barraneche	9	Septiembre	2023-11-09T00:00:00	2024-11-06T15:00:00	1	Precipitación	0
48704	7	Sololá	701	Sololá	3	Barraneche	9	Septiembre	2023-11-09T00:00:00	2024-11-06T15:00:00	8	Radiación solar	846
48705	7	Sololá	701	Sololá	3	Barraneche	9	Septiembre	2023-11-09T00:00:00	2024-11-06T16:00:00	2	Temperatura media	18.6
48706	7	Sololá	701	Sololá	3	Barraneche	9	Septiembre	2023-11-09T00:00:00	2024-11-06T16:00:00	4	Temperatura máxima	20.7
48707	7	Sololá	701	Sololá	3	Barraneche	9	Septiembre	2023-11-09T00:00:00	2024-11-06T16:00:00	3	Temperatura mínima	18.6
48708	7	Sololá	701	Sololá	3	Barraneche	9	Septiembre	2023-11-09T00:00:00	2024-11-06T16:00:00	5	Humedad	55
48709	7	Sololá	701	Sololá	3	Barraneche	9	Septiembre	2023-11-09T00:00:00	2024-11-06T16:00:00	6	Velocidad del viento	12.9
48710	7	Sololá	701	Sololá	3	Barraneche	9	Septiembre	2023-11-09T00:00:00	2024-11-06T16:00:00	7	Dirección del viento	12.87
48711	7	Sololá	701	Sololá	3	Barraneche	9	Septiembre	2023-11-09T00:00:00	2024-11-06T16:00:00	1	Precipitación	0
48712	7	Sololá	701	Sololá	3	Barraneche	9	Septiembre	2023-11-09T00:00:00	2024-11-06T16:00:00	8	Radiación solar	431
48713	7	Sololá	701	Sololá	3	Barraneche	9	Septiembre	2023-11-09T00:00:00	2024-11-06T17:00:00	2	Temperatura media	16.8
48714	7	Sololá	701	Sololá	3	Barraneche	9	Septiembre	2023-11-09T00:00:00	2024-11-06T17:00:00	4	Temperatura máxima	18.6
48715	7	Sololá	701	Sololá	3	Barraneche	9	Septiembre	2023-11-09T00:00:00	2024-11-06T17:00:00	3	Temperatura mínima	16.8
48716	7	Sololá	701	Sololá	3	Barraneche	9	Septiembre	2023-11-09T00:00:00	2024-11-06T17:00:00	5	Humedad	62
48717	7	Sololá	701	Sololá	3	Barraneche	9	Septiembre	2023-11-09T00:00:00	2024-11-06T17:00:00	6	Velocidad del viento	9.7
48718	7	Sololá	701	Sololá	3	Barraneche	9	Septiembre	2023-11-09T00:00:00	2024-11-06T17:00:00	7	Dirección del viento	9.66
48719	7	Sololá	701	Sololá	3	Barraneche	9	Septiembre	2023-11-09T00:00:00	2024-11-06T17:00:00	1	Precipitación	0
48720	7	Sololá	701	Sololá	3	Barraneche	9	Septiembre	2023-11-09T00:00:00	2024-11-06T17:00:00	8	Radiación solar	109
48721	7	Sololá	701	Sololá	3	Barraneche	9	Septiembre	2023-11-09T00:00:00	2024-11-06T18:00:00	2	Temperatura media	16.1
48722	7	Sololá	701	Sololá	3	Barraneche	9	Septiembre	2023-11-09T00:00:00	2024-11-06T18:00:00	4	Temperatura máxima	16.8
48723	7	Sololá	701	Sololá	3	Barraneche	9	Septiembre	2023-11-09T00:00:00	2024-11-06T18:00:00	3	Temperatura mínima	16.1
48724	7	Sololá	701	Sololá	3	Barraneche	9	Septiembre	2023-11-09T00:00:00	2024-11-06T18:00:00	5	Humedad	65
48725	7	Sololá	701	Sololá	3	Barraneche	9	Septiembre	2023-11-09T00:00:00	2024-11-06T18:00:00	6	Velocidad del viento	8
48726	7	Sololá	701	Sololá	3	Barraneche	9	Septiembre	2023-11-09T00:00:00	2024-11-06T18:00:00	7	Dirección del viento	8.05
48727	7	Sololá	701	Sololá	3	Barraneche	9	Septiembre	2023-11-09T00:00:00	2024-11-06T18:00:00	1	Precipitación	0
48728	7	Sololá	701	Sololá	3	Barraneche	9	Septiembre	2023-11-09T00:00:00	2024-11-06T18:00:00	8	Radiación solar	12
48729	7	Sololá	701	Sololá	3	Barraneche	9	Septiembre	2023-11-09T00:00:00	2024-11-06T19:00:00	2	Temperatura media	14.7
48730	7	Sololá	701	Sololá	3	Barraneche	9	Septiembre	2023-11-09T00:00:00	2024-11-06T19:00:00	4	Temperatura máxima	16.2
48731	7	Sololá	701	Sololá	3	Barraneche	9	Septiembre	2023-11-09T00:00:00	2024-11-06T19:00:00	3	Temperatura mínima	14.6
48732	7	Sololá	701	Sololá	3	Barraneche	9	Septiembre	2023-11-09T00:00:00	2024-11-06T19:00:00	5	Humedad	71
48733	7	Sololá	701	Sololá	3	Barraneche	9	Septiembre	2023-11-09T00:00:00	2024-11-06T19:00:00	6	Velocidad del viento	4.8
48734	7	Sololá	701	Sololá	3	Barraneche	9	Septiembre	2023-11-09T00:00:00	2024-11-06T19:00:00	7	Dirección del viento	4.83
48735	7	Sololá	701	Sololá	3	Barraneche	9	Septiembre	2023-11-09T00:00:00	2024-11-06T19:00:00	1	Precipitación	0
48736	7	Sololá	701	Sololá	3	Barraneche	9	Septiembre	2023-11-09T00:00:00	2024-11-06T19:00:00	8	Radiación solar	0
48737	7	Sololá	701	Sololá	3	Barraneche	9	Septiembre	2023-11-09T00:00:00	2024-11-06T20:00:00	2	Temperatura media	14.4
48738	7	Sololá	701	Sololá	3	Barraneche	9	Septiembre	2023-11-09T00:00:00	2024-11-06T20:00:00	4	Temperatura máxima	14.7
48739	7	Sololá	701	Sololá	3	Barraneche	9	Septiembre	2023-11-09T00:00:00	2024-11-06T20:00:00	3	Temperatura mínima	14.2
48740	7	Sololá	701	Sololá	3	Barraneche	9	Septiembre	2023-11-09T00:00:00	2024-11-06T20:00:00	5	Humedad	72
48741	7	Sololá	701	Sololá	3	Barraneche	9	Septiembre	2023-11-09T00:00:00	2024-11-06T20:00:00	6	Velocidad del viento	1.6
48742	7	Sololá	701	Sololá	3	Barraneche	9	Septiembre	2023-11-09T00:00:00	2024-11-06T20:00:00	7	Dirección del viento	1.61
48743	7	Sololá	701	Sololá	3	Barraneche	9	Septiembre	2023-11-09T00:00:00	2024-11-06T20:00:00	1	Precipitación	0.4
48744	7	Sololá	701	Sololá	3	Barraneche	9	Septiembre	2023-11-09T00:00:00	2024-11-06T20:00:00	8	Radiación solar	0
48745	7	Sololá	701	Sololá	3	Barraneche	9	Septiembre	2023-11-09T00:00:00	2024-11-06T21:00:00	2	Temperatura media	14.2
48746	7	Sololá	701	Sololá	3	Barraneche	9	Septiembre	2023-11-09T00:00:00	2024-11-06T21:00:00	4	Temperatura máxima	14.5
48747	7	Sololá	701	Sololá	3	Barraneche	9	Septiembre	2023-11-09T00:00:00	2024-11-06T21:00:00	3	Temperatura mínima	14.1
48748	7	Sololá	701	Sololá	3	Barraneche	9	Septiembre	2023-11-09T00:00:00	2024-11-06T21:00:00	5	Humedad	75
48749	7	Sololá	701	Sololá	3	Barraneche	9	Septiembre	2023-11-09T00:00:00	2024-11-06T21:00:00	6	Velocidad del viento	4.8
48750	7	Sololá	701	Sololá	3	Barraneche	9	Septiembre	2023-11-09T00:00:00	2024-11-06T21:00:00	7	Dirección del viento	4.83
48751	7	Sololá	701	Sololá	3	Barraneche	9	Septiembre	2023-11-09T00:00:00	2024-11-06T21:00:00	1	Precipitación	0.8
48752	7	Sololá	701	Sololá	3	Barraneche	9	Septiembre	2023-11-09T00:00:00	2024-11-06T21:00:00	8	Radiación solar	0
48753	7	Sololá	701	Sololá	3	Barraneche	9	Septiembre	2023-11-09T00:00:00	2024-11-06T22:00:00	2	Temperatura media	14.4
48754	7	Sololá	701	Sololá	3	Barraneche	9	Septiembre	2023-11-09T00:00:00	2024-11-06T22:00:00	4	Temperatura máxima	14.6
48755	7	Sololá	701	Sololá	3	Barraneche	9	Septiembre	2023-11-09T00:00:00	2024-11-06T22:00:00	3	Temperatura mínima	14.2
48756	7	Sololá	701	Sololá	3	Barraneche	9	Septiembre	2023-11-09T00:00:00	2024-11-06T22:00:00	5	Humedad	69
48757	7	Sololá	701	Sololá	3	Barraneche	9	Septiembre	2023-11-09T00:00:00	2024-11-06T22:00:00	6	Velocidad del viento	3.2
48758	7	Sololá	701	Sololá	3	Barraneche	9	Septiembre	2023-11-09T00:00:00	2024-11-06T22:00:00	7	Dirección del viento	3.22
48759	7	Sololá	701	Sololá	3	Barraneche	9	Septiembre	2023-11-09T00:00:00	2024-11-06T22:00:00	1	Precipitación	0
48760	7	Sololá	701	Sololá	3	Barraneche	9	Septiembre	2023-11-09T00:00:00	2024-11-06T22:00:00	8	Radiación solar	0
48761	7	Sololá	701	Sololá	3	Barraneche	9	Septiembre	2023-11-09T00:00:00	2024-11-06T23:00:00	2	Temperatura media	14.2
48762	7	Sololá	701	Sololá	3	Barraneche	9	Septiembre	2023-11-09T00:00:00	2024-11-06T23:00:00	4	Temperatura máxima	14.6
48763	7	Sololá	701	Sololá	3	Barraneche	9	Septiembre	2023-11-09T00:00:00	2024-11-06T23:00:00	3	Temperatura mínima	13.9
48764	7	Sololá	701	Sololá	3	Barraneche	9	Septiembre	2023-11-09T00:00:00	2024-11-06T23:00:00	5	Humedad	71
48765	7	Sololá	701	Sololá	3	Barraneche	9	Septiembre	2023-11-09T00:00:00	2024-11-06T23:00:00	6	Velocidad del viento	4.8
48766	7	Sololá	701	Sololá	3	Barraneche	9	Septiembre	2023-11-09T00:00:00	2024-11-06T23:00:00	7	Dirección del viento	4.83
48767	7	Sololá	701	Sololá	3	Barraneche	9	Septiembre	2023-11-09T00:00:00	2024-11-06T23:00:00	1	Precipitación	0
48768	7	Sololá	701	Sololá	3	Barraneche	9	Septiembre	2023-11-09T00:00:00	2024-11-06T23:00:00	8	Radiación solar	0
48769	7	Sololá	701	Sololá	3	Barraneche	9	Septiembre	2023-12-09T00:00:00	2024-11-06T00:00:00	2	Temperatura media	13.8
48770	7	Sololá	701	Sololá	3	Barraneche	9	Septiembre	2023-12-09T00:00:00	2024-11-06T00:00:00	4	Temperatura máxima	14.2
48771	7	Sololá	701	Sololá	3	Barraneche	9	Septiembre	2023-12-09T00:00:00	2024-11-06T00:00:00	3	Temperatura mínima	13.6
48772	7	Sololá	701	Sololá	3	Barraneche	9	Septiembre	2023-12-09T00:00:00	2024-11-06T00:00:00	5	Humedad	74
48773	7	Sololá	701	Sololá	3	Barraneche	9	Septiembre	2023-12-09T00:00:00	2024-11-06T00:00:00	6	Velocidad del viento	1.6
48774	7	Sololá	701	Sololá	3	Barraneche	9	Septiembre	2023-12-09T00:00:00	2024-11-06T00:00:00	7	Dirección del viento	1.61
48775	7	Sololá	701	Sololá	3	Barraneche	9	Septiembre	2023-12-09T00:00:00	2024-11-06T00:00:00	1	Precipitación	0
48776	7	Sololá	701	Sololá	3	Barraneche	9	Septiembre	2023-12-09T00:00:00	2024-11-06T00:00:00	8	Radiación solar	0
48777	7	Sololá	701	Sololá	3	Barraneche	9	Septiembre	2023-12-09T00:00:00	2024-11-06T01:00:00	2	Temperatura media	13.3
48778	7	Sololá	701	Sololá	3	Barraneche	9	Septiembre	2023-12-09T00:00:00	2024-11-06T01:00:00	4	Temperatura máxima	13.8
48779	7	Sololá	701	Sololá	3	Barraneche	9	Septiembre	2023-12-09T00:00:00	2024-11-06T01:00:00	3	Temperatura mínima	13.2
48780	7	Sololá	701	Sololá	3	Barraneche	9	Septiembre	2023-12-09T00:00:00	2024-11-06T01:00:00	5	Humedad	81
48781	7	Sololá	701	Sololá	3	Barraneche	9	Septiembre	2023-12-09T00:00:00	2024-11-06T01:00:00	6	Velocidad del viento	1.6
48782	7	Sololá	701	Sololá	3	Barraneche	9	Septiembre	2023-12-09T00:00:00	2024-11-06T01:00:00	7	Dirección del viento	1.61
48783	7	Sololá	701	Sololá	3	Barraneche	9	Septiembre	2023-12-09T00:00:00	2024-11-06T01:00:00	1	Precipitación	0
48784	7	Sololá	701	Sololá	3	Barraneche	9	Septiembre	2023-12-09T00:00:00	2024-11-06T01:00:00	8	Radiación solar	0
48785	7	Sololá	701	Sololá	3	Barraneche	9	Septiembre	2023-12-09T00:00:00	2024-11-06T02:00:00	2	Temperatura media	12.7
48786	7	Sololá	701	Sololá	3	Barraneche	9	Septiembre	2023-12-09T00:00:00	2024-11-06T02:00:00	4	Temperatura máxima	13.3
48787	7	Sololá	701	Sololá	3	Barraneche	9	Septiembre	2023-12-09T00:00:00	2024-11-06T02:00:00	3	Temperatura mínima	12.7
48788	7	Sololá	701	Sololá	3	Barraneche	9	Septiembre	2023-12-09T00:00:00	2024-11-06T02:00:00	5	Humedad	83
48789	7	Sololá	701	Sololá	3	Barraneche	9	Septiembre	2023-12-09T00:00:00	2024-11-06T02:00:00	6	Velocidad del viento	1.6
48790	7	Sololá	701	Sololá	3	Barraneche	9	Septiembre	2023-12-09T00:00:00	2024-11-06T02:00:00	7	Dirección del viento	1.61
48791	7	Sololá	701	Sololá	3	Barraneche	9	Septiembre	2023-12-09T00:00:00	2024-11-06T02:00:00	1	Precipitación	0
48792	7	Sololá	701	Sololá	3	Barraneche	9	Septiembre	2023-12-09T00:00:00	2024-11-06T02:00:00	8	Radiación solar	0
48793	7	Sololá	701	Sololá	3	Barraneche	9	Septiembre	2023-12-09T00:00:00	2024-11-06T03:00:00	2	Temperatura media	12.6
48794	7	Sololá	701	Sololá	3	Barraneche	9	Septiembre	2023-12-09T00:00:00	2024-11-06T03:00:00	4	Temperatura máxima	12.8
48795	7	Sololá	701	Sololá	3	Barraneche	9	Septiembre	2023-12-09T00:00:00	2024-11-06T03:00:00	3	Temperatura mínima	12.6
48796	7	Sololá	701	Sololá	3	Barraneche	9	Septiembre	2023-12-09T00:00:00	2024-11-06T03:00:00	5	Humedad	84
48797	7	Sololá	701	Sololá	3	Barraneche	9	Septiembre	2023-12-09T00:00:00	2024-11-06T03:00:00	6	Velocidad del viento	3.2
48798	7	Sololá	701	Sololá	3	Barraneche	9	Septiembre	2023-12-09T00:00:00	2024-11-06T03:00:00	7	Dirección del viento	3.22
48799	7	Sololá	701	Sololá	3	Barraneche	9	Septiembre	2023-12-09T00:00:00	2024-11-06T03:00:00	1	Precipitación	0
48800	7	Sololá	701	Sololá	3	Barraneche	9	Septiembre	2023-12-09T00:00:00	2024-11-06T03:00:00	8	Radiación solar	0
48801	7	Sololá	701	Sololá	3	Barraneche	9	Septiembre	2023-12-09T00:00:00	2024-11-06T04:00:00	2	Temperatura media	11.8
48802	7	Sololá	701	Sololá	3	Barraneche	9	Septiembre	2023-12-09T00:00:00	2024-11-06T04:00:00	4	Temperatura máxima	12.7
48803	7	Sololá	701	Sololá	3	Barraneche	9	Septiembre	2023-12-09T00:00:00	2024-11-06T04:00:00	3	Temperatura mínima	11.8
48804	7	Sololá	701	Sololá	3	Barraneche	9	Septiembre	2023-12-09T00:00:00	2024-11-06T04:00:00	5	Humedad	83
48805	7	Sololá	701	Sololá	3	Barraneche	9	Septiembre	2023-12-09T00:00:00	2024-11-06T04:00:00	6	Velocidad del viento	1.6
48806	7	Sololá	701	Sololá	3	Barraneche	9	Septiembre	2023-12-09T00:00:00	2024-11-06T04:00:00	7	Dirección del viento	1.61
48807	7	Sololá	701	Sololá	3	Barraneche	9	Septiembre	2023-12-09T00:00:00	2024-11-06T04:00:00	1	Precipitación	0
48808	7	Sololá	701	Sololá	3	Barraneche	9	Septiembre	2023-12-09T00:00:00	2024-11-06T04:00:00	8	Radiación solar	0
48809	7	Sololá	701	Sololá	3	Barraneche	9	Septiembre	2023-12-09T00:00:00	2024-11-06T05:00:00	2	Temperatura media	11.7
48810	7	Sololá	701	Sololá	3	Barraneche	9	Septiembre	2023-12-09T00:00:00	2024-11-06T05:00:00	4	Temperatura máxima	11.9
48811	7	Sololá	701	Sololá	3	Barraneche	9	Septiembre	2023-12-09T00:00:00	2024-11-06T05:00:00	3	Temperatura mínima	11.6
48812	7	Sololá	701	Sololá	3	Barraneche	9	Septiembre	2023-12-09T00:00:00	2024-11-06T05:00:00	5	Humedad	76
48813	7	Sololá	701	Sololá	3	Barraneche	9	Septiembre	2023-12-09T00:00:00	2024-11-06T05:00:00	6	Velocidad del viento	3.2
48814	7	Sololá	701	Sololá	3	Barraneche	9	Septiembre	2023-12-09T00:00:00	2024-11-06T05:00:00	7	Dirección del viento	3.22
48815	7	Sololá	701	Sololá	3	Barraneche	9	Septiembre	2023-12-09T00:00:00	2024-11-06T05:00:00	1	Precipitación	0
48816	7	Sololá	701	Sololá	3	Barraneche	9	Septiembre	2023-12-09T00:00:00	2024-11-06T05:00:00	8	Radiación solar	0
48817	7	Sololá	701	Sololá	3	Barraneche	9	Septiembre	2023-12-09T00:00:00	2024-11-06T06:00:00	2	Temperatura media	11.3
48818	7	Sololá	701	Sololá	3	Barraneche	9	Septiembre	2023-12-09T00:00:00	2024-11-06T06:00:00	4	Temperatura máxima	11.8
48819	7	Sololá	701	Sololá	3	Barraneche	9	Septiembre	2023-12-09T00:00:00	2024-11-06T06:00:00	3	Temperatura mínima	11.2
48820	7	Sololá	701	Sololá	3	Barraneche	9	Septiembre	2023-12-09T00:00:00	2024-11-06T06:00:00	5	Humedad	70
48821	7	Sololá	701	Sololá	3	Barraneche	9	Septiembre	2023-12-09T00:00:00	2024-11-06T06:00:00	6	Velocidad del viento	6.4
48822	7	Sololá	701	Sololá	3	Barraneche	9	Septiembre	2023-12-09T00:00:00	2024-11-06T06:00:00	7	Dirección del viento	6.44
48823	7	Sololá	701	Sololá	3	Barraneche	9	Septiembre	2023-12-09T00:00:00	2024-11-06T06:00:00	1	Precipitación	0.2
48824	7	Sololá	701	Sololá	3	Barraneche	9	Septiembre	2023-12-09T00:00:00	2024-11-06T06:00:00	8	Radiación solar	1
48825	7	Sololá	701	Sololá	3	Barraneche	9	Septiembre	2023-12-09T00:00:00	2024-11-06T07:00:00	2	Temperatura media	12.6
48826	7	Sololá	701	Sololá	3	Barraneche	9	Septiembre	2023-12-09T00:00:00	2024-11-06T07:00:00	4	Temperatura máxima	12.6
48827	7	Sololá	701	Sololá	3	Barraneche	9	Septiembre	2023-12-09T00:00:00	2024-11-06T07:00:00	3	Temperatura mínima	11.3
48828	7	Sololá	701	Sololá	3	Barraneche	9	Septiembre	2023-12-09T00:00:00	2024-11-06T07:00:00	5	Humedad	70
48829	7	Sololá	701	Sololá	3	Barraneche	9	Septiembre	2023-12-09T00:00:00	2024-11-06T07:00:00	6	Velocidad del viento	3.2
48830	7	Sololá	701	Sololá	3	Barraneche	9	Septiembre	2023-12-09T00:00:00	2024-11-06T07:00:00	7	Dirección del viento	3.22
48831	7	Sololá	701	Sololá	3	Barraneche	9	Septiembre	2023-12-09T00:00:00	2024-11-06T07:00:00	1	Precipitación	0
48832	7	Sololá	701	Sololá	3	Barraneche	9	Septiembre	2023-12-09T00:00:00	2024-11-06T07:00:00	8	Radiación solar	56
48833	7	Sololá	701	Sololá	3	Barraneche	9	Septiembre	2023-12-09T00:00:00	2024-11-06T08:00:00	2	Temperatura media	16.9
48834	7	Sololá	701	Sololá	3	Barraneche	9	Septiembre	2023-12-09T00:00:00	2024-11-06T08:00:00	4	Temperatura máxima	16.9
48835	7	Sololá	701	Sololá	3	Barraneche	9	Septiembre	2023-12-09T00:00:00	2024-11-06T08:00:00	3	Temperatura mínima	12.6
48836	7	Sololá	701	Sololá	3	Barraneche	9	Septiembre	2023-12-09T00:00:00	2024-11-06T08:00:00	5	Humedad	59
48837	7	Sololá	701	Sololá	3	Barraneche	9	Septiembre	2023-12-09T00:00:00	2024-11-06T08:00:00	6	Velocidad del viento	4.8
48838	7	Sololá	701	Sololá	3	Barraneche	9	Septiembre	2023-12-09T00:00:00	2024-11-06T08:00:00	7	Dirección del viento	4.83
48839	7	Sololá	701	Sololá	3	Barraneche	9	Septiembre	2023-12-09T00:00:00	2024-11-06T08:00:00	1	Precipitación	0
48840	7	Sololá	701	Sololá	3	Barraneche	9	Septiembre	2023-12-09T00:00:00	2024-11-06T08:00:00	8	Radiación solar	350
48841	7	Sololá	701	Sololá	3	Barraneche	9	Septiembre	2023-12-09T00:00:00	2024-11-06T09:00:00	2	Temperatura media	19.2
48842	7	Sololá	701	Sololá	3	Barraneche	9	Septiembre	2023-12-09T00:00:00	2024-11-06T09:00:00	4	Temperatura máxima	19.2
48843	7	Sololá	701	Sololá	3	Barraneche	9	Septiembre	2023-12-09T00:00:00	2024-11-06T09:00:00	3	Temperatura mínima	16.9
48844	7	Sololá	701	Sololá	3	Barraneche	9	Septiembre	2023-12-09T00:00:00	2024-11-06T09:00:00	5	Humedad	51
48845	7	Sololá	701	Sololá	3	Barraneche	9	Septiembre	2023-12-09T00:00:00	2024-11-06T09:00:00	6	Velocidad del viento	6.4
48846	7	Sololá	701	Sololá	3	Barraneche	9	Septiembre	2023-12-09T00:00:00	2024-11-06T09:00:00	7	Dirección del viento	6.44
48847	7	Sololá	701	Sololá	3	Barraneche	9	Septiembre	2023-12-09T00:00:00	2024-11-06T09:00:00	1	Precipitación	0
48848	7	Sololá	701	Sololá	3	Barraneche	9	Septiembre	2023-12-09T00:00:00	2024-11-06T09:00:00	8	Radiación solar	593
48849	7	Sololá	701	Sololá	3	Barraneche	9	Septiembre	2023-12-09T00:00:00	2024-11-06T10:00:00	2	Temperatura media	19.4
48850	7	Sololá	701	Sololá	3	Barraneche	9	Septiembre	2023-12-09T00:00:00	2024-11-06T10:00:00	4	Temperatura máxima	19.6
48851	7	Sololá	701	Sololá	3	Barraneche	9	Septiembre	2023-12-09T00:00:00	2024-11-06T10:00:00	3	Temperatura mínima	19.2
48852	7	Sololá	701	Sololá	3	Barraneche	9	Septiembre	2023-12-09T00:00:00	2024-11-06T10:00:00	5	Humedad	46
48853	7	Sololá	701	Sololá	3	Barraneche	9	Septiembre	2023-12-09T00:00:00	2024-11-06T10:00:00	6	Velocidad del viento	9.7
48854	7	Sololá	701	Sololá	3	Barraneche	9	Septiembre	2023-12-09T00:00:00	2024-11-06T10:00:00	7	Dirección del viento	9.66
48855	7	Sololá	701	Sololá	3	Barraneche	9	Septiembre	2023-12-09T00:00:00	2024-11-06T10:00:00	1	Precipitación	0
48856	7	Sololá	701	Sololá	3	Barraneche	9	Septiembre	2023-12-09T00:00:00	2024-11-06T10:00:00	8	Radiación solar	792
48857	7	Sololá	701	Sololá	3	Barraneche	9	Septiembre	2023-12-09T00:00:00	2024-11-06T11:00:00	2	Temperatura media	20.4
48858	7	Sololá	701	Sololá	3	Barraneche	9	Septiembre	2023-12-09T00:00:00	2024-11-06T11:00:00	4	Temperatura máxima	24.3
48859	7	Sololá	701	Sololá	3	Barraneche	9	Septiembre	2023-12-09T00:00:00	2024-11-06T11:00:00	3	Temperatura mínima	19.4
48860	7	Sololá	701	Sololá	3	Barraneche	9	Septiembre	2023-12-09T00:00:00	2024-11-06T11:00:00	5	Humedad	49
48861	7	Sololá	701	Sololá	3	Barraneche	9	Septiembre	2023-12-09T00:00:00	2024-11-06T11:00:00	6	Velocidad del viento	6.4
48862	7	Sololá	701	Sololá	3	Barraneche	9	Septiembre	2023-12-09T00:00:00	2024-11-06T11:00:00	7	Dirección del viento	6.44
48863	7	Sololá	701	Sololá	3	Barraneche	9	Septiembre	2023-12-09T00:00:00	2024-11-06T11:00:00	1	Precipitación	0
48864	7	Sololá	701	Sololá	3	Barraneche	9	Septiembre	2023-12-09T00:00:00	2024-11-06T11:00:00	8	Radiación solar	962
48865	7	Sololá	701	Sololá	3	Barraneche	9	Septiembre	2023-12-09T00:00:00	2024-11-06T12:00:00	2	Temperatura media	20.2
48866	7	Sololá	701	Sololá	3	Barraneche	9	Septiembre	2023-12-09T00:00:00	2024-11-06T12:00:00	4	Temperatura máxima	20.4
48867	7	Sololá	701	Sololá	3	Barraneche	9	Septiembre	2023-12-09T00:00:00	2024-11-06T12:00:00	3	Temperatura mínima	19.2
48868	7	Sololá	701	Sololá	3	Barraneche	9	Septiembre	2023-12-09T00:00:00	2024-11-06T12:00:00	5	Humedad	57
48869	7	Sololá	701	Sololá	3	Barraneche	9	Septiembre	2023-12-09T00:00:00	2024-11-06T12:00:00	6	Velocidad del viento	14.5
48870	7	Sololá	701	Sololá	3	Barraneche	9	Septiembre	2023-12-09T00:00:00	2024-11-06T12:00:00	7	Dirección del viento	14.48
48871	7	Sololá	701	Sololá	3	Barraneche	9	Septiembre	2023-12-09T00:00:00	2024-11-06T12:00:00	1	Precipitación	0
48872	7	Sololá	701	Sololá	3	Barraneche	9	Septiembre	2023-12-09T00:00:00	2024-11-06T12:00:00	8	Radiación solar	1145
48873	7	Sololá	701	Sololá	3	Barraneche	9	Septiembre	2023-12-09T00:00:00	2024-11-06T13:00:00	2	Temperatura media	19.9
48874	7	Sololá	701	Sololá	3	Barraneche	9	Septiembre	2023-12-09T00:00:00	2024-11-06T13:00:00	4	Temperatura máxima	20.5
48875	7	Sololá	701	Sololá	3	Barraneche	9	Septiembre	2023-12-09T00:00:00	2024-11-06T13:00:00	3	Temperatura mínima	19.8
48876	7	Sololá	701	Sololá	3	Barraneche	9	Septiembre	2023-12-09T00:00:00	2024-11-06T13:00:00	5	Humedad	60
48877	7	Sololá	701	Sololá	3	Barraneche	9	Septiembre	2023-12-09T00:00:00	2024-11-06T13:00:00	6	Velocidad del viento	14.5
48878	7	Sololá	701	Sololá	3	Barraneche	9	Septiembre	2023-12-09T00:00:00	2024-11-06T13:00:00	7	Dirección del viento	14.48
48879	7	Sololá	701	Sololá	3	Barraneche	9	Septiembre	2023-12-09T00:00:00	2024-11-06T13:00:00	1	Precipitación	0
48880	7	Sololá	701	Sololá	3	Barraneche	9	Septiembre	2023-12-09T00:00:00	2024-11-06T13:00:00	8	Radiación solar	953
48881	7	Sololá	701	Sololá	3	Barraneche	9	Septiembre	2023-12-09T00:00:00	2024-11-06T14:00:00	2	Temperatura media	19.9
48882	7	Sololá	701	Sololá	3	Barraneche	9	Septiembre	2023-12-09T00:00:00	2024-11-06T14:00:00	4	Temperatura máxima	20.9
48883	7	Sololá	701	Sololá	3	Barraneche	9	Septiembre	2023-12-09T00:00:00	2024-11-06T14:00:00	3	Temperatura mínima	19.8
48884	7	Sololá	701	Sololá	3	Barraneche	9	Septiembre	2023-12-09T00:00:00	2024-11-06T14:00:00	5	Humedad	64
48885	7	Sololá	701	Sololá	3	Barraneche	9	Septiembre	2023-12-09T00:00:00	2024-11-06T14:00:00	6	Velocidad del viento	9.7
48886	7	Sololá	701	Sololá	3	Barraneche	9	Septiembre	2023-12-09T00:00:00	2024-11-06T14:00:00	7	Dirección del viento	9.66
48887	7	Sololá	701	Sololá	3	Barraneche	9	Septiembre	2023-12-09T00:00:00	2024-11-06T14:00:00	1	Precipitación	0
48888	7	Sololá	701	Sololá	3	Barraneche	9	Septiembre	2023-12-09T00:00:00	2024-11-06T14:00:00	8	Radiación solar	578
48889	7	Sololá	701	Sololá	3	Barraneche	9	Septiembre	2023-12-09T00:00:00	2024-11-06T15:00:00	2	Temperatura media	19.2
48890	7	Sololá	701	Sololá	3	Barraneche	9	Septiembre	2023-12-09T00:00:00	2024-11-06T15:00:00	4	Temperatura máxima	19.9
48891	7	Sololá	701	Sololá	3	Barraneche	9	Septiembre	2023-12-09T00:00:00	2024-11-06T15:00:00	3	Temperatura mínima	18.8
48892	7	Sololá	701	Sololá	3	Barraneche	9	Septiembre	2023-12-09T00:00:00	2024-11-06T15:00:00	5	Humedad	67
48893	7	Sololá	701	Sololá	3	Barraneche	9	Septiembre	2023-12-09T00:00:00	2024-11-06T15:00:00	6	Velocidad del viento	14.5
48894	7	Sololá	701	Sololá	3	Barraneche	9	Septiembre	2023-12-09T00:00:00	2024-11-06T15:00:00	7	Dirección del viento	14.48
48895	7	Sololá	701	Sololá	3	Barraneche	9	Septiembre	2023-12-09T00:00:00	2024-11-06T15:00:00	1	Precipitación	0
48896	7	Sololá	701	Sololá	3	Barraneche	9	Septiembre	2023-12-09T00:00:00	2024-11-06T15:00:00	8	Radiación solar	825
48897	7	Sololá	701	Sololá	3	Barraneche	9	Septiembre	2023-12-09T00:00:00	2024-11-06T16:00:00	2	Temperatura media	18
48898	7	Sololá	701	Sololá	3	Barraneche	9	Septiembre	2023-12-09T00:00:00	2024-11-06T16:00:00	4	Temperatura máxima	19.2
48899	7	Sololá	701	Sololá	3	Barraneche	9	Septiembre	2023-12-09T00:00:00	2024-11-06T16:00:00	3	Temperatura mínima	17.3
48900	7	Sololá	701	Sololá	3	Barraneche	9	Septiembre	2023-12-09T00:00:00	2024-11-06T16:00:00	5	Humedad	69
48901	7	Sololá	701	Sololá	3	Barraneche	9	Septiembre	2023-12-09T00:00:00	2024-11-06T16:00:00	6	Velocidad del viento	9.7
48902	7	Sololá	701	Sololá	3	Barraneche	9	Septiembre	2023-12-09T00:00:00	2024-11-06T16:00:00	7	Dirección del viento	9.66
48903	7	Sololá	701	Sololá	3	Barraneche	9	Septiembre	2023-12-09T00:00:00	2024-11-06T16:00:00	1	Precipitación	0
48904	7	Sololá	701	Sololá	3	Barraneche	9	Septiembre	2023-12-09T00:00:00	2024-11-06T16:00:00	8	Radiación solar	212
48905	7	Sololá	701	Sololá	3	Barraneche	9	Septiembre	2023-12-09T00:00:00	2024-11-06T17:00:00	2	Temperatura media	16.8
48906	7	Sololá	701	Sololá	3	Barraneche	9	Septiembre	2023-12-09T00:00:00	2024-11-06T17:00:00	4	Temperatura máxima	18.2
48907	7	Sololá	701	Sololá	3	Barraneche	9	Septiembre	2023-12-09T00:00:00	2024-11-06T17:00:00	3	Temperatura mínima	16.8
48908	7	Sololá	701	Sololá	3	Barraneche	9	Septiembre	2023-12-09T00:00:00	2024-11-06T17:00:00	5	Humedad	73
48909	7	Sololá	701	Sololá	3	Barraneche	9	Septiembre	2023-12-09T00:00:00	2024-11-06T17:00:00	6	Velocidad del viento	9.7
48910	7	Sololá	701	Sololá	3	Barraneche	9	Septiembre	2023-12-09T00:00:00	2024-11-06T17:00:00	7	Dirección del viento	9.66
48911	7	Sololá	701	Sololá	3	Barraneche	9	Septiembre	2023-12-09T00:00:00	2024-11-06T17:00:00	1	Precipitación	0
48912	7	Sololá	701	Sololá	3	Barraneche	9	Septiembre	2023-12-09T00:00:00	2024-11-06T17:00:00	8	Radiación solar	123
48913	7	Sololá	701	Sololá	3	Barraneche	9	Septiembre	2023-12-09T00:00:00	2024-11-06T18:00:00	2	Temperatura media	17
48914	7	Sololá	701	Sololá	3	Barraneche	9	Septiembre	2023-12-09T00:00:00	2024-11-06T18:00:00	4	Temperatura máxima	17
48915	7	Sololá	701	Sololá	3	Barraneche	9	Septiembre	2023-12-09T00:00:00	2024-11-06T18:00:00	3	Temperatura mínima	16.7
48916	7	Sololá	701	Sololá	3	Barraneche	9	Septiembre	2023-12-09T00:00:00	2024-11-06T18:00:00	5	Humedad	64
48917	7	Sololá	701	Sololá	3	Barraneche	9	Septiembre	2023-12-09T00:00:00	2024-11-06T18:00:00	6	Velocidad del viento	6.4
48918	7	Sololá	701	Sololá	3	Barraneche	9	Septiembre	2023-12-09T00:00:00	2024-11-06T18:00:00	7	Dirección del viento	6.44
48919	7	Sololá	701	Sololá	3	Barraneche	9	Septiembre	2023-12-09T00:00:00	2024-11-06T18:00:00	1	Precipitación	0
48920	7	Sololá	701	Sololá	3	Barraneche	9	Septiembre	2023-12-09T00:00:00	2024-11-06T18:00:00	8	Radiación solar	59
48921	7	Sololá	701	Sololá	3	Barraneche	9	Septiembre	2023-12-09T00:00:00	2024-11-06T19:00:00	2	Temperatura media	16.2
48922	7	Sololá	701	Sololá	3	Barraneche	9	Septiembre	2023-12-09T00:00:00	2024-11-06T19:00:00	4	Temperatura máxima	17.1
48923	7	Sololá	701	Sololá	3	Barraneche	9	Septiembre	2023-12-09T00:00:00	2024-11-06T19:00:00	3	Temperatura mínima	16.2
48924	7	Sololá	701	Sololá	3	Barraneche	9	Septiembre	2023-12-09T00:00:00	2024-11-06T19:00:00	5	Humedad	64
48925	7	Sololá	701	Sololá	3	Barraneche	9	Septiembre	2023-12-09T00:00:00	2024-11-06T19:00:00	6	Velocidad del viento	4.8
48926	7	Sololá	701	Sololá	3	Barraneche	9	Septiembre	2023-12-09T00:00:00	2024-11-06T19:00:00	7	Dirección del viento	4.83
48927	7	Sololá	701	Sololá	3	Barraneche	9	Septiembre	2023-12-09T00:00:00	2024-11-06T19:00:00	1	Precipitación	0
48928	7	Sololá	701	Sololá	3	Barraneche	9	Septiembre	2023-12-09T00:00:00	2024-11-06T19:00:00	8	Radiación solar	0
48929	7	Sololá	701	Sololá	3	Barraneche	9	Septiembre	2023-12-09T00:00:00	2024-11-06T20:00:00	2	Temperatura media	15
48930	7	Sololá	701	Sololá	3	Barraneche	9	Septiembre	2023-12-09T00:00:00	2024-11-06T20:00:00	4	Temperatura máxima	16.2
48931	7	Sololá	701	Sololá	3	Barraneche	9	Septiembre	2023-12-09T00:00:00	2024-11-06T20:00:00	3	Temperatura mínima	15
48932	7	Sololá	701	Sololá	3	Barraneche	9	Septiembre	2023-12-09T00:00:00	2024-11-06T20:00:00	5	Humedad	69
48933	7	Sololá	701	Sololá	3	Barraneche	9	Septiembre	2023-12-09T00:00:00	2024-11-06T20:00:00	6	Velocidad del viento	3.2
48934	7	Sololá	701	Sololá	3	Barraneche	9	Septiembre	2023-12-09T00:00:00	2024-11-06T20:00:00	7	Dirección del viento	3.22
48935	7	Sololá	701	Sololá	3	Barraneche	9	Septiembre	2023-12-09T00:00:00	2024-11-06T20:00:00	1	Precipitación	0
48936	7	Sololá	701	Sololá	3	Barraneche	9	Septiembre	2023-12-09T00:00:00	2024-11-06T20:00:00	8	Radiación solar	0
48937	7	Sololá	701	Sololá	3	Barraneche	9	Septiembre	2023-12-09T00:00:00	2024-11-06T21:00:00	2	Temperatura media	14.6
48938	7	Sololá	701	Sololá	3	Barraneche	9	Septiembre	2023-12-09T00:00:00	2024-11-06T21:00:00	4	Temperatura máxima	15.1
48939	7	Sololá	701	Sololá	3	Barraneche	9	Septiembre	2023-12-09T00:00:00	2024-11-06T21:00:00	3	Temperatura mínima	14.5
48940	7	Sololá	701	Sololá	3	Barraneche	9	Septiembre	2023-12-09T00:00:00	2024-11-06T21:00:00	5	Humedad	71
48941	7	Sololá	701	Sololá	3	Barraneche	9	Septiembre	2023-12-09T00:00:00	2024-11-06T21:00:00	6	Velocidad del viento	3.2
48942	7	Sololá	701	Sololá	3	Barraneche	9	Septiembre	2023-12-09T00:00:00	2024-11-06T21:00:00	7	Dirección del viento	3.22
48943	7	Sololá	701	Sololá	3	Barraneche	9	Septiembre	2023-12-09T00:00:00	2024-11-06T21:00:00	1	Precipitación	0
48944	7	Sololá	701	Sololá	3	Barraneche	9	Septiembre	2023-12-09T00:00:00	2024-11-06T21:00:00	8	Radiación solar	0
48945	7	Sololá	701	Sololá	3	Barraneche	9	Septiembre	2023-12-09T00:00:00	2024-11-06T22:00:00	2	Temperatura media	14.3
48946	7	Sololá	701	Sololá	3	Barraneche	9	Septiembre	2023-12-09T00:00:00	2024-11-06T22:00:00	4	Temperatura máxima	14.6
48947	7	Sololá	701	Sololá	3	Barraneche	9	Septiembre	2023-12-09T00:00:00	2024-11-06T22:00:00	3	Temperatura mínima	14.2
48948	7	Sololá	701	Sololá	3	Barraneche	9	Septiembre	2023-12-09T00:00:00	2024-11-06T22:00:00	5	Humedad	71
48949	7	Sololá	701	Sololá	3	Barraneche	9	Septiembre	2023-12-09T00:00:00	2024-11-06T22:00:00	6	Velocidad del viento	1.6
48950	7	Sololá	701	Sololá	3	Barraneche	9	Septiembre	2023-12-09T00:00:00	2024-11-06T22:00:00	7	Dirección del viento	1.61
48951	7	Sololá	701	Sololá	3	Barraneche	9	Septiembre	2023-12-09T00:00:00	2024-11-06T22:00:00	1	Precipitación	0
48952	7	Sololá	701	Sololá	3	Barraneche	9	Septiembre	2023-12-09T00:00:00	2024-11-06T22:00:00	8	Radiación solar	0
48953	7	Sololá	701	Sololá	3	Barraneche	9	Septiembre	2023-12-09T00:00:00	2024-11-06T23:00:00	2	Temperatura media	14.1
48954	7	Sololá	701	Sololá	3	Barraneche	9	Septiembre	2023-12-09T00:00:00	2024-11-06T23:00:00	4	Temperatura máxima	14.4
48955	7	Sololá	701	Sololá	3	Barraneche	9	Septiembre	2023-12-09T00:00:00	2024-11-06T23:00:00	3	Temperatura mínima	14.1
48956	7	Sololá	701	Sololá	3	Barraneche	9	Septiembre	2023-12-09T00:00:00	2024-11-06T23:00:00	5	Humedad	72
48957	7	Sololá	701	Sololá	3	Barraneche	9	Septiembre	2023-12-09T00:00:00	2024-11-06T23:00:00	6	Velocidad del viento	1.6
48958	7	Sololá	701	Sololá	3	Barraneche	9	Septiembre	2023-12-09T00:00:00	2024-11-06T23:00:00	7	Dirección del viento	1.61
48959	7	Sololá	701	Sololá	3	Barraneche	9	Septiembre	2023-12-09T00:00:00	2024-11-06T23:00:00	1	Precipitación	0
48960	7	Sololá	701	Sololá	3	Barraneche	9	Septiembre	2023-12-09T00:00:00	2024-11-06T23:00:00	8	Radiación solar	0
48961	7	Sololá	701	Sololá	3	Barraneche	9	Septiembre	2023-09-13T00:00:00	2024-11-06T00:00:00	2	Temperatura media	14.3
48962	7	Sololá	701	Sololá	3	Barraneche	9	Septiembre	2023-09-13T00:00:00	2024-11-06T00:00:00	4	Temperatura máxima	14.3
48963	7	Sololá	701	Sololá	3	Barraneche	9	Septiembre	2023-09-13T00:00:00	2024-11-06T00:00:00	3	Temperatura mínima	14.1
48964	7	Sololá	701	Sololá	3	Barraneche	9	Septiembre	2023-09-13T00:00:00	2024-11-06T00:00:00	5	Humedad	72
48965	7	Sololá	701	Sololá	3	Barraneche	9	Septiembre	2023-09-13T00:00:00	2024-11-06T00:00:00	6	Velocidad del viento	1.6
48966	7	Sololá	701	Sololá	3	Barraneche	9	Septiembre	2023-09-13T00:00:00	2024-11-06T00:00:00	7	Dirección del viento	1.61
48967	7	Sololá	701	Sololá	3	Barraneche	9	Septiembre	2023-09-13T00:00:00	2024-11-06T00:00:00	1	Precipitación	0
48968	7	Sololá	701	Sololá	3	Barraneche	9	Septiembre	2023-09-13T00:00:00	2024-11-06T00:00:00	8	Radiación solar	0
48969	7	Sololá	701	Sololá	3	Barraneche	9	Septiembre	2023-09-13T00:00:00	2024-11-06T01:00:00	2	Temperatura media	14.3
48970	7	Sololá	701	Sololá	3	Barraneche	9	Septiembre	2023-09-13T00:00:00	2024-11-06T01:00:00	4	Temperatura máxima	14.4
48971	7	Sololá	701	Sololá	3	Barraneche	9	Septiembre	2023-09-13T00:00:00	2024-11-06T01:00:00	3	Temperatura mínima	14.3
48972	7	Sololá	701	Sololá	3	Barraneche	9	Septiembre	2023-09-13T00:00:00	2024-11-06T01:00:00	5	Humedad	73
48973	7	Sololá	701	Sololá	3	Barraneche	9	Septiembre	2023-09-13T00:00:00	2024-11-06T01:00:00	6	Velocidad del viento	1.6
48974	7	Sololá	701	Sololá	3	Barraneche	9	Septiembre	2023-09-13T00:00:00	2024-11-06T01:00:00	7	Dirección del viento	1.61
48975	7	Sololá	701	Sololá	3	Barraneche	9	Septiembre	2023-09-13T00:00:00	2024-11-06T01:00:00	1	Precipitación	0
48976	7	Sololá	701	Sololá	3	Barraneche	9	Septiembre	2023-09-13T00:00:00	2024-11-06T01:00:00	8	Radiación solar	0
48977	7	Sololá	701	Sololá	3	Barraneche	9	Septiembre	2023-09-13T00:00:00	2024-11-06T02:00:00	2	Temperatura media	14.1
48978	7	Sololá	701	Sololá	3	Barraneche	9	Septiembre	2023-09-13T00:00:00	2024-11-06T02:00:00	4	Temperatura máxima	14.3
48979	7	Sololá	701	Sololá	3	Barraneche	9	Septiembre	2023-09-13T00:00:00	2024-11-06T02:00:00	3	Temperatura mínima	14.1
48980	7	Sololá	701	Sololá	3	Barraneche	9	Septiembre	2023-09-13T00:00:00	2024-11-06T02:00:00	5	Humedad	74
48981	7	Sololá	701	Sololá	3	Barraneche	9	Septiembre	2023-09-13T00:00:00	2024-11-06T02:00:00	6	Velocidad del viento	1.6
48982	7	Sololá	701	Sololá	3	Barraneche	9	Septiembre	2023-09-13T00:00:00	2024-11-06T02:00:00	7	Dirección del viento	1.61
48983	7	Sololá	701	Sololá	3	Barraneche	9	Septiembre	2023-09-13T00:00:00	2024-11-06T02:00:00	1	Precipitación	0
48984	7	Sololá	701	Sololá	3	Barraneche	9	Septiembre	2023-09-13T00:00:00	2024-11-06T02:00:00	8	Radiación solar	0
48985	7	Sololá	701	Sololá	3	Barraneche	9	Septiembre	2023-09-13T00:00:00	2024-11-06T03:00:00	2	Temperatura media	13.6
48986	7	Sololá	701	Sololá	3	Barraneche	9	Septiembre	2023-09-13T00:00:00	2024-11-06T03:00:00	4	Temperatura máxima	14.1
48987	7	Sololá	701	Sololá	3	Barraneche	9	Septiembre	2023-09-13T00:00:00	2024-11-06T03:00:00	3	Temperatura mínima	13.6
48988	7	Sololá	701	Sololá	3	Barraneche	9	Septiembre	2023-09-13T00:00:00	2024-11-06T03:00:00	5	Humedad	79
48989	7	Sololá	701	Sololá	3	Barraneche	9	Septiembre	2023-09-13T00:00:00	2024-11-06T03:00:00	6	Velocidad del viento	1.6
48990	7	Sololá	701	Sololá	3	Barraneche	9	Septiembre	2023-09-13T00:00:00	2024-11-06T03:00:00	7	Dirección del viento	1.61
48991	7	Sololá	701	Sololá	3	Barraneche	9	Septiembre	2023-09-13T00:00:00	2024-11-06T03:00:00	1	Precipitación	0.6
48992	7	Sololá	701	Sololá	3	Barraneche	9	Septiembre	2023-09-13T00:00:00	2024-11-06T03:00:00	8	Radiación solar	0
48993	7	Sololá	701	Sololá	3	Barraneche	9	Septiembre	2023-09-13T00:00:00	2024-11-06T04:00:00	2	Temperatura media	12.6
48994	7	Sololá	701	Sololá	3	Barraneche	9	Septiembre	2023-09-13T00:00:00	2024-11-06T04:00:00	4	Temperatura máxima	13.6
48995	7	Sololá	701	Sololá	3	Barraneche	9	Septiembre	2023-09-13T00:00:00	2024-11-06T04:00:00	3	Temperatura mínima	12.5
48996	7	Sololá	701	Sololá	3	Barraneche	9	Septiembre	2023-09-13T00:00:00	2024-11-06T04:00:00	5	Humedad	82
48997	7	Sololá	701	Sololá	3	Barraneche	9	Septiembre	2023-09-13T00:00:00	2024-11-06T04:00:00	6	Velocidad del viento	1.6
48998	7	Sololá	701	Sololá	3	Barraneche	9	Septiembre	2023-09-13T00:00:00	2024-11-06T04:00:00	7	Dirección del viento	1.61
48999	7	Sololá	701	Sololá	3	Barraneche	9	Septiembre	2023-09-13T00:00:00	2024-11-06T04:00:00	1	Precipitación	0.2
49000	7	Sololá	701	Sololá	3	Barraneche	9	Septiembre	2023-09-13T00:00:00	2024-11-06T04:00:00	8	Radiación solar	0
49001	7	Sololá	701	Sololá	3	Barraneche	9	Septiembre	2023-09-13T00:00:00	2024-11-06T05:00:00	2	Temperatura media	12.4
49002	7	Sololá	701	Sololá	3	Barraneche	9	Septiembre	2023-09-13T00:00:00	2024-11-06T05:00:00	4	Temperatura máxima	12.8
49003	7	Sololá	701	Sololá	3	Barraneche	9	Septiembre	2023-09-13T00:00:00	2024-11-06T05:00:00	3	Temperatura mínima	12.4
49004	7	Sololá	701	Sololá	3	Barraneche	9	Septiembre	2023-09-13T00:00:00	2024-11-06T05:00:00	5	Humedad	81
49005	7	Sololá	701	Sololá	3	Barraneche	9	Septiembre	2023-09-13T00:00:00	2024-11-06T05:00:00	6	Velocidad del viento	3.2
49006	7	Sololá	701	Sololá	3	Barraneche	9	Septiembre	2023-09-13T00:00:00	2024-11-06T05:00:00	7	Dirección del viento	3.22
49007	7	Sololá	701	Sololá	3	Barraneche	9	Septiembre	2023-09-13T00:00:00	2024-11-06T05:00:00	1	Precipitación	0
49008	7	Sololá	701	Sololá	3	Barraneche	9	Septiembre	2023-09-13T00:00:00	2024-11-06T05:00:00	8	Radiación solar	0
49009	7	Sololá	701	Sololá	3	Barraneche	9	Septiembre	2023-09-13T00:00:00	2024-11-06T06:00:00	2	Temperatura media	12.3
49010	7	Sololá	701	Sololá	3	Barraneche	9	Septiembre	2023-09-13T00:00:00	2024-11-06T06:00:00	4	Temperatura máxima	12.5
49011	7	Sololá	701	Sololá	3	Barraneche	9	Septiembre	2023-09-13T00:00:00	2024-11-06T06:00:00	3	Temperatura mínima	12.2
49012	7	Sololá	701	Sololá	3	Barraneche	9	Septiembre	2023-09-13T00:00:00	2024-11-06T06:00:00	5	Humedad	76
49013	7	Sololá	701	Sololá	3	Barraneche	9	Septiembre	2023-09-13T00:00:00	2024-11-06T06:00:00	6	Velocidad del viento	3.2
49014	7	Sololá	701	Sololá	3	Barraneche	9	Septiembre	2023-09-13T00:00:00	2024-11-06T06:00:00	7	Dirección del viento	3.22
49015	7	Sololá	701	Sololá	3	Barraneche	9	Septiembre	2023-09-13T00:00:00	2024-11-06T06:00:00	1	Precipitación	0
49016	7	Sololá	701	Sololá	3	Barraneche	9	Septiembre	2023-09-13T00:00:00	2024-11-06T06:00:00	8	Radiación solar	0
49017	7	Sololá	701	Sololá	3	Barraneche	9	Septiembre	2023-09-13T00:00:00	2024-11-06T07:00:00	2	Temperatura media	13.3
49018	7	Sololá	701	Sololá	3	Barraneche	9	Septiembre	2023-09-13T00:00:00	2024-11-06T07:00:00	4	Temperatura máxima	13.3
49019	7	Sololá	701	Sololá	3	Barraneche	9	Septiembre	2023-09-13T00:00:00	2024-11-06T07:00:00	3	Temperatura mínima	12.2
49020	7	Sololá	701	Sololá	3	Barraneche	9	Septiembre	2023-09-13T00:00:00	2024-11-06T07:00:00	5	Humedad	74
49021	7	Sololá	701	Sololá	3	Barraneche	9	Septiembre	2023-09-13T00:00:00	2024-11-06T07:00:00	6	Velocidad del viento	3.2
49022	7	Sololá	701	Sololá	3	Barraneche	9	Septiembre	2023-09-13T00:00:00	2024-11-06T07:00:00	7	Dirección del viento	3.22
49023	7	Sololá	701	Sololá	3	Barraneche	9	Septiembre	2023-09-13T00:00:00	2024-11-06T07:00:00	1	Precipitación	0
49024	7	Sololá	701	Sololá	3	Barraneche	9	Septiembre	2023-09-13T00:00:00	2024-11-06T07:00:00	8	Radiación solar	63
49025	7	Sololá	701	Sololá	3	Barraneche	9	Septiembre	2023-09-13T00:00:00	2024-11-06T08:00:00	2	Temperatura media	15.5
49026	7	Sololá	701	Sololá	3	Barraneche	9	Septiembre	2023-09-13T00:00:00	2024-11-06T08:00:00	4	Temperatura máxima	15.5
49027	7	Sololá	701	Sololá	3	Barraneche	9	Septiembre	2023-09-13T00:00:00	2024-11-06T08:00:00	3	Temperatura mínima	13.3
49028	7	Sololá	701	Sololá	3	Barraneche	9	Septiembre	2023-09-13T00:00:00	2024-11-06T08:00:00	5	Humedad	70
49029	7	Sololá	701	Sololá	3	Barraneche	9	Septiembre	2023-09-13T00:00:00	2024-11-06T08:00:00	6	Velocidad del viento	3.2
49030	7	Sololá	701	Sololá	3	Barraneche	9	Septiembre	2023-09-13T00:00:00	2024-11-06T08:00:00	7	Dirección del viento	3.22
49031	7	Sololá	701	Sololá	3	Barraneche	9	Septiembre	2023-09-13T00:00:00	2024-11-06T08:00:00	1	Precipitación	0
49032	7	Sololá	701	Sololá	3	Barraneche	9	Septiembre	2023-09-13T00:00:00	2024-11-06T08:00:00	8	Radiación solar	143
49033	7	Sololá	701	Sololá	3	Barraneche	9	Septiembre	2023-09-13T00:00:00	2024-11-06T09:00:00	2	Temperatura media	19.2
49034	7	Sololá	701	Sololá	3	Barraneche	9	Septiembre	2023-09-13T00:00:00	2024-11-06T09:00:00	4	Temperatura máxima	19.2
49035	7	Sololá	701	Sololá	3	Barraneche	9	Septiembre	2023-09-13T00:00:00	2024-11-06T09:00:00	3	Temperatura mínima	15.4
49036	7	Sololá	701	Sololá	3	Barraneche	9	Septiembre	2023-09-13T00:00:00	2024-11-06T09:00:00	5	Humedad	61
49037	7	Sololá	701	Sololá	3	Barraneche	9	Septiembre	2023-09-13T00:00:00	2024-11-06T09:00:00	6	Velocidad del viento	3.2
49038	7	Sololá	701	Sololá	3	Barraneche	9	Septiembre	2023-09-13T00:00:00	2024-11-06T09:00:00	7	Dirección del viento	3.22
49039	7	Sololá	701	Sololá	3	Barraneche	9	Septiembre	2023-09-13T00:00:00	2024-11-06T09:00:00	1	Precipitación	0
49040	7	Sololá	701	Sololá	3	Barraneche	9	Septiembre	2023-09-13T00:00:00	2024-11-06T09:00:00	8	Radiación solar	544
49041	7	Sololá	701	Sololá	3	Barraneche	9	Septiembre	2023-09-13T00:00:00	2024-11-06T10:00:00	2	Temperatura media	18.8
49042	7	Sololá	701	Sololá	3	Barraneche	9	Septiembre	2023-09-13T00:00:00	2024-11-06T10:00:00	4	Temperatura máxima	19.6
49043	7	Sololá	701	Sololá	3	Barraneche	9	Septiembre	2023-09-13T00:00:00	2024-11-06T10:00:00	3	Temperatura mínima	18.7
49044	7	Sololá	701	Sololá	3	Barraneche	9	Septiembre	2023-09-13T00:00:00	2024-11-06T10:00:00	5	Humedad	68
49045	7	Sololá	701	Sololá	3	Barraneche	9	Septiembre	2023-09-13T00:00:00	2024-11-06T10:00:00	6	Velocidad del viento	11.3
49046	7	Sololá	701	Sololá	3	Barraneche	9	Septiembre	2023-09-13T00:00:00	2024-11-06T10:00:00	7	Dirección del viento	11.27
49047	7	Sololá	701	Sololá	3	Barraneche	9	Septiembre	2023-09-13T00:00:00	2024-11-06T10:00:00	1	Precipitación	0
49048	7	Sololá	701	Sololá	3	Barraneche	9	Septiembre	2023-09-13T00:00:00	2024-11-06T10:00:00	8	Radiación solar	723
49049	7	Sololá	701	Sololá	3	Barraneche	9	Septiembre	2023-09-13T00:00:00	2024-11-06T11:00:00	2	Temperatura media	19.4
49050	7	Sololá	701	Sololá	3	Barraneche	9	Septiembre	2023-09-13T00:00:00	2024-11-06T11:00:00	4	Temperatura máxima	20.4
49051	7	Sololá	701	Sololá	3	Barraneche	9	Septiembre	2023-09-13T00:00:00	2024-11-06T11:00:00	3	Temperatura mínima	18.8
49052	7	Sololá	701	Sololá	3	Barraneche	9	Septiembre	2023-09-13T00:00:00	2024-11-06T11:00:00	5	Humedad	57
49053	7	Sololá	701	Sololá	3	Barraneche	9	Septiembre	2023-09-13T00:00:00	2024-11-06T11:00:00	6	Velocidad del viento	14.5
49054	7	Sololá	701	Sololá	3	Barraneche	9	Septiembre	2023-09-13T00:00:00	2024-11-06T11:00:00	7	Dirección del viento	14.48
49055	7	Sololá	701	Sololá	3	Barraneche	9	Septiembre	2023-09-13T00:00:00	2024-11-06T11:00:00	1	Precipitación	0
49056	7	Sololá	701	Sololá	3	Barraneche	9	Septiembre	2023-09-13T00:00:00	2024-11-06T11:00:00	8	Radiación solar	871
49057	7	Sololá	701	Sololá	3	Barraneche	9	Septiembre	2023-09-13T00:00:00	2024-11-06T12:00:00	2	Temperatura media	20.7
49058	7	Sololá	701	Sololá	3	Barraneche	9	Septiembre	2023-09-13T00:00:00	2024-11-06T12:00:00	4	Temperatura máxima	20.7
49059	7	Sololá	701	Sololá	3	Barraneche	9	Septiembre	2023-09-13T00:00:00	2024-11-06T12:00:00	3	Temperatura mínima	19.4
49060	7	Sololá	701	Sololá	3	Barraneche	9	Septiembre	2023-09-13T00:00:00	2024-11-06T12:00:00	5	Humedad	55
49061	7	Sololá	701	Sololá	3	Barraneche	9	Septiembre	2023-09-13T00:00:00	2024-11-06T12:00:00	6	Velocidad del viento	9.7
49062	7	Sololá	701	Sololá	3	Barraneche	9	Septiembre	2023-09-13T00:00:00	2024-11-06T12:00:00	7	Dirección del viento	9.66
49063	7	Sololá	701	Sololá	3	Barraneche	9	Septiembre	2023-09-13T00:00:00	2024-11-06T12:00:00	1	Precipitación	0
49064	7	Sololá	701	Sololá	3	Barraneche	9	Septiembre	2023-09-13T00:00:00	2024-11-06T12:00:00	8	Radiación solar	472
49065	7	Sololá	701	Sololá	3	Barraneche	9	Septiembre	2023-09-13T00:00:00	2024-11-06T13:00:00	2	Temperatura media	19.6
49066	7	Sololá	701	Sololá	3	Barraneche	9	Septiembre	2023-09-13T00:00:00	2024-11-06T13:00:00	4	Temperatura máxima	20.7
49067	7	Sololá	701	Sololá	3	Barraneche	9	Septiembre	2023-09-13T00:00:00	2024-11-06T13:00:00	3	Temperatura mínima	19.4
49068	7	Sololá	701	Sololá	3	Barraneche	9	Septiembre	2023-09-13T00:00:00	2024-11-06T13:00:00	5	Humedad	67
49069	7	Sololá	701	Sololá	3	Barraneche	9	Septiembre	2023-09-13T00:00:00	2024-11-06T13:00:00	6	Velocidad del viento	14.5
49070	7	Sololá	701	Sololá	3	Barraneche	9	Septiembre	2023-09-13T00:00:00	2024-11-06T13:00:00	7	Dirección del viento	14.48
49071	7	Sololá	701	Sololá	3	Barraneche	9	Septiembre	2023-09-13T00:00:00	2024-11-06T13:00:00	1	Precipitación	0
49072	7	Sololá	701	Sololá	3	Barraneche	9	Septiembre	2023-09-13T00:00:00	2024-11-06T13:00:00	8	Radiación solar	895
49073	7	Sololá	701	Sololá	3	Barraneche	9	Septiembre	2023-09-13T00:00:00	2024-11-06T14:00:00	2	Temperatura media	17.4
49074	7	Sololá	701	Sololá	3	Barraneche	9	Septiembre	2023-09-13T00:00:00	2024-11-06T14:00:00	4	Temperatura máxima	19.6
49075	7	Sololá	701	Sololá	3	Barraneche	9	Septiembre	2023-09-13T00:00:00	2024-11-06T14:00:00	3	Temperatura mínima	17.4
49076	7	Sololá	701	Sololá	3	Barraneche	9	Septiembre	2023-09-13T00:00:00	2024-11-06T14:00:00	5	Humedad	71
49077	7	Sololá	701	Sololá	3	Barraneche	9	Septiembre	2023-09-13T00:00:00	2024-11-06T14:00:00	6	Velocidad del viento	14.5
49078	7	Sololá	701	Sololá	3	Barraneche	9	Septiembre	2023-09-13T00:00:00	2024-11-06T14:00:00	7	Dirección del viento	14.48
49079	7	Sololá	701	Sololá	3	Barraneche	9	Septiembre	2023-09-13T00:00:00	2024-11-06T14:00:00	1	Precipitación	0
49080	7	Sololá	701	Sololá	3	Barraneche	9	Septiembre	2023-09-13T00:00:00	2024-11-06T14:00:00	8	Radiación solar	329
49081	7	Sololá	701	Sololá	3	Barraneche	9	Septiembre	2023-09-13T00:00:00	2024-11-06T15:00:00	2	Temperatura media	17.6
49082	7	Sololá	701	Sololá	3	Barraneche	9	Septiembre	2023-09-13T00:00:00	2024-11-06T15:00:00	4	Temperatura máxima	17.8
49083	7	Sololá	701	Sololá	3	Barraneche	9	Septiembre	2023-09-13T00:00:00	2024-11-06T15:00:00	3	Temperatura mínima	16.9
49084	7	Sololá	701	Sololá	3	Barraneche	9	Septiembre	2023-09-13T00:00:00	2024-11-06T15:00:00	5	Humedad	69
49085	7	Sololá	701	Sololá	3	Barraneche	9	Septiembre	2023-09-13T00:00:00	2024-11-06T15:00:00	6	Velocidad del viento	8
49086	7	Sololá	701	Sololá	3	Barraneche	9	Septiembre	2023-09-13T00:00:00	2024-11-06T15:00:00	7	Dirección del viento	8.05
49087	7	Sololá	701	Sololá	3	Barraneche	9	Septiembre	2023-09-13T00:00:00	2024-11-06T15:00:00	1	Precipitación	0
49088	7	Sololá	701	Sololá	3	Barraneche	9	Septiembre	2023-09-13T00:00:00	2024-11-06T15:00:00	8	Radiación solar	178
49089	7	Sololá	701	Sololá	3	Barraneche	9	Septiembre	2023-09-13T00:00:00	2024-11-06T16:00:00	2	Temperatura media	16.1
49090	7	Sololá	701	Sololá	3	Barraneche	9	Septiembre	2023-09-13T00:00:00	2024-11-06T16:00:00	4	Temperatura máxima	17.6
49091	7	Sololá	701	Sololá	3	Barraneche	9	Septiembre	2023-09-13T00:00:00	2024-11-06T16:00:00	3	Temperatura mínima	15.9
49092	7	Sololá	701	Sololá	3	Barraneche	9	Septiembre	2023-09-13T00:00:00	2024-11-06T16:00:00	5	Humedad	72
49093	7	Sololá	701	Sololá	3	Barraneche	9	Septiembre	2023-09-13T00:00:00	2024-11-06T16:00:00	6	Velocidad del viento	4.8
49094	7	Sololá	701	Sololá	3	Barraneche	9	Septiembre	2023-09-13T00:00:00	2024-11-06T16:00:00	7	Dirección del viento	4.83
49095	7	Sololá	701	Sololá	3	Barraneche	9	Septiembre	2023-09-13T00:00:00	2024-11-06T16:00:00	1	Precipitación	0
49096	7	Sololá	701	Sololá	3	Barraneche	9	Septiembre	2023-09-13T00:00:00	2024-11-06T16:00:00	8	Radiación solar	43
49097	7	Sololá	701	Sololá	3	Barraneche	9	Septiembre	2023-09-13T00:00:00	2024-11-06T17:00:00	2	Temperatura media	16.6
49098	7	Sololá	701	Sololá	3	Barraneche	9	Septiembre	2023-09-13T00:00:00	2024-11-06T17:00:00	4	Temperatura máxima	16.6
49099	7	Sololá	701	Sololá	3	Barraneche	9	Septiembre	2023-09-13T00:00:00	2024-11-06T17:00:00	3	Temperatura mínima	16.1
49100	7	Sololá	701	Sololá	3	Barraneche	9	Septiembre	2023-09-13T00:00:00	2024-11-06T17:00:00	5	Humedad	72
49101	7	Sololá	701	Sololá	3	Barraneche	9	Septiembre	2023-09-13T00:00:00	2024-11-06T17:00:00	6	Velocidad del viento	1.6
49102	7	Sololá	701	Sololá	3	Barraneche	9	Septiembre	2023-09-13T00:00:00	2024-11-06T17:00:00	7	Dirección del viento	1.61
49103	7	Sololá	701	Sololá	3	Barraneche	9	Septiembre	2023-09-13T00:00:00	2024-11-06T17:00:00	1	Precipitación	0
49104	7	Sololá	701	Sololá	3	Barraneche	9	Septiembre	2023-09-13T00:00:00	2024-11-06T17:00:00	8	Radiación solar	90
49105	7	Sololá	701	Sololá	3	Barraneche	9	Septiembre	2023-09-13T00:00:00	2024-11-06T18:00:00	2	Temperatura media	15.9
49106	7	Sololá	701	Sololá	3	Barraneche	9	Septiembre	2023-09-13T00:00:00	2024-11-06T18:00:00	4	Temperatura máxima	16.7
49107	7	Sololá	701	Sololá	3	Barraneche	9	Septiembre	2023-09-13T00:00:00	2024-11-06T18:00:00	3	Temperatura mínima	15.9
49108	7	Sololá	701	Sololá	3	Barraneche	9	Septiembre	2023-09-13T00:00:00	2024-11-06T18:00:00	5	Humedad	75
49109	7	Sololá	701	Sololá	3	Barraneche	9	Septiembre	2023-09-13T00:00:00	2024-11-06T18:00:00	6	Velocidad del viento	3.2
49110	7	Sololá	701	Sololá	3	Barraneche	9	Septiembre	2023-09-13T00:00:00	2024-11-06T18:00:00	7	Dirección del viento	3.22
49111	7	Sololá	701	Sololá	3	Barraneche	9	Septiembre	2023-09-13T00:00:00	2024-11-06T18:00:00	1	Precipitación	0
49112	7	Sololá	701	Sololá	3	Barraneche	9	Septiembre	2023-09-13T00:00:00	2024-11-06T18:00:00	8	Radiación solar	67
49113	7	Sololá	701	Sololá	3	Barraneche	9	Septiembre	2023-09-13T00:00:00	2024-11-06T19:00:00	2	Temperatura media	15.7
49114	7	Sololá	701	Sololá	3	Barraneche	9	Septiembre	2023-09-13T00:00:00	2024-11-06T19:00:00	4	Temperatura máxima	16.3
49115	7	Sololá	701	Sololá	3	Barraneche	9	Septiembre	2023-09-13T00:00:00	2024-11-06T19:00:00	3	Temperatura mínima	15.7
49116	7	Sololá	701	Sololá	3	Barraneche	9	Septiembre	2023-09-13T00:00:00	2024-11-06T19:00:00	5	Humedad	68
49117	7	Sololá	701	Sololá	3	Barraneche	9	Septiembre	2023-09-13T00:00:00	2024-11-06T19:00:00	6	Velocidad del viento	4.8
49118	7	Sololá	701	Sololá	3	Barraneche	9	Septiembre	2023-09-13T00:00:00	2024-11-06T19:00:00	7	Dirección del viento	4.83
49119	7	Sololá	701	Sololá	3	Barraneche	9	Septiembre	2023-09-13T00:00:00	2024-11-06T19:00:00	1	Precipitación	0.2
49120	7	Sololá	701	Sololá	3	Barraneche	9	Septiembre	2023-09-13T00:00:00	2024-11-06T19:00:00	8	Radiación solar	0
49121	7	Sololá	701	Sololá	3	Barraneche	9	Septiembre	2023-09-13T00:00:00	2024-11-06T20:00:00	2	Temperatura media	14.8
49122	7	Sololá	701	Sololá	3	Barraneche	9	Septiembre	2023-09-13T00:00:00	2024-11-06T20:00:00	4	Temperatura máxima	15.7
49123	7	Sololá	701	Sololá	3	Barraneche	9	Septiembre	2023-09-13T00:00:00	2024-11-06T20:00:00	3	Temperatura mínima	14.8
49124	7	Sololá	701	Sololá	3	Barraneche	9	Septiembre	2023-09-13T00:00:00	2024-11-06T20:00:00	5	Humedad	73
49125	7	Sololá	701	Sololá	3	Barraneche	9	Septiembre	2023-09-13T00:00:00	2024-11-06T20:00:00	6	Velocidad del viento	4.8
49126	7	Sololá	701	Sololá	3	Barraneche	9	Septiembre	2023-09-13T00:00:00	2024-11-06T20:00:00	7	Dirección del viento	4.83
49127	7	Sololá	701	Sololá	3	Barraneche	9	Septiembre	2023-09-13T00:00:00	2024-11-06T20:00:00	1	Precipitación	2
49128	7	Sololá	701	Sololá	3	Barraneche	9	Septiembre	2023-09-13T00:00:00	2024-11-06T20:00:00	8	Radiación solar	0
49129	7	Sololá	701	Sololá	3	Barraneche	9	Septiembre	2023-09-13T00:00:00	2024-11-06T21:00:00	2	Temperatura media	14.7
49130	7	Sololá	701	Sololá	3	Barraneche	9	Septiembre	2023-09-13T00:00:00	2024-11-06T21:00:00	4	Temperatura máxima	14.8
49131	7	Sololá	701	Sololá	3	Barraneche	9	Septiembre	2023-09-13T00:00:00	2024-11-06T21:00:00	3	Temperatura mínima	14.6
49132	7	Sololá	701	Sololá	3	Barraneche	9	Septiembre	2023-09-13T00:00:00	2024-11-06T21:00:00	5	Humedad	81
49133	7	Sololá	701	Sololá	3	Barraneche	9	Septiembre	2023-09-13T00:00:00	2024-11-06T21:00:00	6	Velocidad del viento	3.2
49134	7	Sololá	701	Sololá	3	Barraneche	9	Septiembre	2023-09-13T00:00:00	2024-11-06T21:00:00	7	Dirección del viento	3.22
49135	7	Sololá	701	Sololá	3	Barraneche	9	Septiembre	2023-09-13T00:00:00	2024-11-06T21:00:00	1	Precipitación	0.2
49136	7	Sololá	701	Sololá	3	Barraneche	9	Septiembre	2023-09-13T00:00:00	2024-11-06T21:00:00	8	Radiación solar	0
49137	7	Sololá	701	Sololá	3	Barraneche	9	Septiembre	2023-09-13T00:00:00	2024-11-06T22:00:00	2	Temperatura media	14.4
49138	7	Sololá	701	Sololá	3	Barraneche	9	Septiembre	2023-09-13T00:00:00	2024-11-06T22:00:00	4	Temperatura máxima	14.7
49139	7	Sololá	701	Sololá	3	Barraneche	9	Septiembre	2023-09-13T00:00:00	2024-11-06T22:00:00	3	Temperatura mínima	14.4
49140	7	Sololá	701	Sololá	3	Barraneche	9	Septiembre	2023-09-13T00:00:00	2024-11-06T22:00:00	5	Humedad	83
49141	7	Sololá	701	Sololá	3	Barraneche	9	Septiembre	2023-09-13T00:00:00	2024-11-06T22:00:00	6	Velocidad del viento	3.2
49142	7	Sololá	701	Sololá	3	Barraneche	9	Septiembre	2023-09-13T00:00:00	2024-11-06T22:00:00	7	Dirección del viento	3.22
49143	7	Sololá	701	Sololá	3	Barraneche	9	Septiembre	2023-09-13T00:00:00	2024-11-06T22:00:00	1	Precipitación	0
49144	7	Sololá	701	Sololá	3	Barraneche	9	Septiembre	2023-09-13T00:00:00	2024-11-06T22:00:00	8	Radiación solar	0
49145	7	Sololá	701	Sololá	3	Barraneche	9	Septiembre	2023-09-13T00:00:00	2024-11-06T23:00:00	2	Temperatura media	14.3
49146	7	Sololá	701	Sololá	3	Barraneche	9	Septiembre	2023-09-13T00:00:00	2024-11-06T23:00:00	4	Temperatura máxima	14.4
49147	7	Sololá	701	Sololá	3	Barraneche	9	Septiembre	2023-09-13T00:00:00	2024-11-06T23:00:00	3	Temperatura mínima	14.2
49148	7	Sololá	701	Sololá	3	Barraneche	9	Septiembre	2023-09-13T00:00:00	2024-11-06T23:00:00	5	Humedad	73
49149	7	Sololá	701	Sololá	3	Barraneche	9	Septiembre	2023-09-13T00:00:00	2024-11-06T23:00:00	6	Velocidad del viento	4.8
49150	7	Sololá	701	Sololá	3	Barraneche	9	Septiembre	2023-09-13T00:00:00	2024-11-06T23:00:00	7	Dirección del viento	4.83
49151	7	Sololá	701	Sololá	3	Barraneche	9	Septiembre	2023-09-13T00:00:00	2024-11-06T23:00:00	1	Precipitación	0.4
49152	7	Sololá	701	Sololá	3	Barraneche	9	Septiembre	2023-09-13T00:00:00	2024-11-06T23:00:00	8	Radiación solar	0
49153	7	Sololá	701	Sololá	3	Barraneche	9	Septiembre	2023-09-14T00:00:00	2024-11-06T00:00:00	2	Temperatura media	14.3
49154	7	Sololá	701	Sololá	3	Barraneche	9	Septiembre	2023-09-14T00:00:00	2024-11-06T00:00:00	4	Temperatura máxima	14.4
49155	7	Sololá	701	Sololá	3	Barraneche	9	Septiembre	2023-09-14T00:00:00	2024-11-06T00:00:00	3	Temperatura mínima	14.2
49156	7	Sololá	701	Sololá	3	Barraneche	9	Septiembre	2023-09-14T00:00:00	2024-11-06T00:00:00	5	Humedad	70
49157	7	Sololá	701	Sololá	3	Barraneche	9	Septiembre	2023-09-14T00:00:00	2024-11-06T00:00:00	6	Velocidad del viento	3.2
49158	7	Sololá	701	Sololá	3	Barraneche	9	Septiembre	2023-09-14T00:00:00	2024-11-06T00:00:00	7	Dirección del viento	3.22
49159	7	Sololá	701	Sololá	3	Barraneche	9	Septiembre	2023-09-14T00:00:00	2024-11-06T00:00:00	1	Precipitación	0
49160	7	Sololá	701	Sololá	3	Barraneche	9	Septiembre	2023-09-14T00:00:00	2024-11-06T00:00:00	8	Radiación solar	0
49161	7	Sololá	701	Sololá	3	Barraneche	9	Septiembre	2023-09-14T00:00:00	2024-11-06T01:00:00	2	Temperatura media	14.6
49162	7	Sololá	701	Sololá	3	Barraneche	9	Septiembre	2023-09-14T00:00:00	2024-11-06T01:00:00	4	Temperatura máxima	14.6
49163	7	Sololá	701	Sololá	3	Barraneche	9	Septiembre	2023-09-14T00:00:00	2024-11-06T01:00:00	3	Temperatura mínima	14.3
49164	7	Sololá	701	Sololá	3	Barraneche	9	Septiembre	2023-09-14T00:00:00	2024-11-06T01:00:00	5	Humedad	65
49165	7	Sololá	701	Sololá	3	Barraneche	9	Septiembre	2023-09-14T00:00:00	2024-11-06T01:00:00	6	Velocidad del viento	8
49166	7	Sololá	701	Sololá	3	Barraneche	9	Septiembre	2023-09-14T00:00:00	2024-11-06T01:00:00	7	Dirección del viento	8.05
49167	7	Sololá	701	Sololá	3	Barraneche	9	Septiembre	2023-09-14T00:00:00	2024-11-06T01:00:00	1	Precipitación	0
49168	7	Sololá	701	Sololá	3	Barraneche	9	Septiembre	2023-09-14T00:00:00	2024-11-06T01:00:00	8	Radiación solar	0
49169	7	Sololá	701	Sololá	3	Barraneche	9	Septiembre	2023-09-14T00:00:00	2024-11-06T02:00:00	2	Temperatura media	13.2
49170	7	Sololá	701	Sololá	3	Barraneche	9	Septiembre	2023-09-14T00:00:00	2024-11-06T02:00:00	4	Temperatura máxima	14.6
49171	7	Sololá	701	Sololá	3	Barraneche	9	Septiembre	2023-09-14T00:00:00	2024-11-06T02:00:00	3	Temperatura mínima	13.2
49172	7	Sololá	701	Sololá	3	Barraneche	9	Septiembre	2023-09-14T00:00:00	2024-11-06T02:00:00	5	Humedad	72
49173	7	Sololá	701	Sololá	3	Barraneche	9	Septiembre	2023-09-14T00:00:00	2024-11-06T02:00:00	6	Velocidad del viento	3.2
49174	7	Sololá	701	Sololá	3	Barraneche	9	Septiembre	2023-09-14T00:00:00	2024-11-06T02:00:00	7	Dirección del viento	3.22
49175	7	Sololá	701	Sololá	3	Barraneche	9	Septiembre	2023-09-14T00:00:00	2024-11-06T02:00:00	1	Precipitación	0
49176	7	Sololá	701	Sololá	3	Barraneche	9	Septiembre	2023-09-14T00:00:00	2024-11-06T02:00:00	8	Radiación solar	0
49177	7	Sololá	701	Sololá	3	Barraneche	9	Septiembre	2023-09-14T00:00:00	2024-11-06T03:00:00	2	Temperatura media	12.2
49178	7	Sololá	701	Sololá	3	Barraneche	9	Septiembre	2023-09-14T00:00:00	2024-11-06T03:00:00	4	Temperatura máxima	13.2
49179	7	Sololá	701	Sololá	3	Barraneche	9	Septiembre	2023-09-14T00:00:00	2024-11-06T03:00:00	3	Temperatura mínima	11.9
49180	7	Sololá	701	Sololá	3	Barraneche	9	Septiembre	2023-09-14T00:00:00	2024-11-06T03:00:00	5	Humedad	72
49181	7	Sololá	701	Sololá	3	Barraneche	9	Septiembre	2023-09-14T00:00:00	2024-11-06T03:00:00	6	Velocidad del viento	4.8
49182	7	Sololá	701	Sololá	3	Barraneche	9	Septiembre	2023-09-14T00:00:00	2024-11-06T03:00:00	7	Dirección del viento	4.83
49183	7	Sololá	701	Sololá	3	Barraneche	9	Septiembre	2023-09-14T00:00:00	2024-11-06T03:00:00	1	Precipitación	0
49184	7	Sololá	701	Sololá	3	Barraneche	9	Septiembre	2023-09-14T00:00:00	2024-11-06T03:00:00	8	Radiación solar	0
49185	7	Sololá	701	Sololá	3	Barraneche	9	Septiembre	2023-09-14T00:00:00	2024-11-06T04:00:00	2	Temperatura media	11.8
49186	7	Sololá	701	Sololá	3	Barraneche	9	Septiembre	2023-09-14T00:00:00	2024-11-06T04:00:00	4	Temperatura máxima	12.1
49187	7	Sololá	701	Sololá	3	Barraneche	9	Septiembre	2023-09-14T00:00:00	2024-11-06T04:00:00	3	Temperatura mínima	11.4
49188	7	Sololá	701	Sololá	3	Barraneche	9	Septiembre	2023-09-14T00:00:00	2024-11-06T04:00:00	5	Humedad	74
49189	7	Sololá	701	Sololá	3	Barraneche	9	Septiembre	2023-09-14T00:00:00	2024-11-06T04:00:00	6	Velocidad del viento	3.2
49190	7	Sololá	701	Sololá	3	Barraneche	9	Septiembre	2023-09-14T00:00:00	2024-11-06T04:00:00	7	Dirección del viento	3.22
49191	7	Sololá	701	Sololá	3	Barraneche	9	Septiembre	2023-09-14T00:00:00	2024-11-06T04:00:00	1	Precipitación	0
49192	7	Sololá	701	Sololá	3	Barraneche	9	Septiembre	2023-09-14T00:00:00	2024-11-06T04:00:00	8	Radiación solar	0
49193	7	Sololá	701	Sololá	3	Barraneche	9	Septiembre	2023-09-14T00:00:00	2024-11-06T05:00:00	2	Temperatura media	11.7
49194	7	Sololá	701	Sololá	3	Barraneche	9	Septiembre	2023-09-14T00:00:00	2024-11-06T05:00:00	4	Temperatura máxima	11.8
49195	7	Sololá	701	Sololá	3	Barraneche	9	Septiembre	2023-09-14T00:00:00	2024-11-06T05:00:00	3	Temperatura mínima	11.3
49196	7	Sololá	701	Sololá	3	Barraneche	9	Septiembre	2023-09-14T00:00:00	2024-11-06T05:00:00	5	Humedad	78
49197	7	Sololá	701	Sololá	3	Barraneche	9	Septiembre	2023-09-14T00:00:00	2024-11-06T05:00:00	6	Velocidad del viento	3.2
49198	7	Sololá	701	Sololá	3	Barraneche	9	Septiembre	2023-09-14T00:00:00	2024-11-06T05:00:00	7	Dirección del viento	3.22
49199	7	Sololá	701	Sololá	3	Barraneche	9	Septiembre	2023-09-14T00:00:00	2024-11-06T05:00:00	1	Precipitación	0
49200	7	Sololá	701	Sololá	3	Barraneche	9	Septiembre	2023-09-14T00:00:00	2024-11-06T05:00:00	8	Radiación solar	0
49201	7	Sololá	701	Sololá	3	Barraneche	9	Septiembre	2023-09-14T00:00:00	2024-11-06T06:00:00	2	Temperatura media	11.6
49202	7	Sololá	701	Sololá	3	Barraneche	9	Septiembre	2023-09-14T00:00:00	2024-11-06T06:00:00	4	Temperatura máxima	12.3
49203	7	Sololá	701	Sololá	3	Barraneche	9	Septiembre	2023-09-14T00:00:00	2024-11-06T06:00:00	3	Temperatura mínima	11.6
49204	7	Sololá	701	Sololá	3	Barraneche	9	Septiembre	2023-09-14T00:00:00	2024-11-06T06:00:00	5	Humedad	73
49205	7	Sololá	701	Sololá	3	Barraneche	9	Septiembre	2023-09-14T00:00:00	2024-11-06T06:00:00	6	Velocidad del viento	4.8
49206	7	Sololá	701	Sololá	3	Barraneche	9	Septiembre	2023-09-14T00:00:00	2024-11-06T06:00:00	7	Dirección del viento	4.83
49207	7	Sololá	701	Sololá	3	Barraneche	9	Septiembre	2023-09-14T00:00:00	2024-11-06T06:00:00	1	Precipitación	0
49208	7	Sololá	701	Sololá	3	Barraneche	9	Septiembre	2023-09-14T00:00:00	2024-11-06T06:00:00	8	Radiación solar	0
49209	7	Sololá	701	Sololá	3	Barraneche	9	Septiembre	2023-09-14T00:00:00	2024-11-06T07:00:00	2	Temperatura media	12.4
49210	7	Sololá	701	Sololá	3	Barraneche	9	Septiembre	2023-09-14T00:00:00	2024-11-06T07:00:00	4	Temperatura máxima	12.4
49211	7	Sololá	701	Sololá	3	Barraneche	9	Septiembre	2023-09-14T00:00:00	2024-11-06T07:00:00	3	Temperatura mínima	11.1
49212	7	Sololá	701	Sololá	3	Barraneche	9	Septiembre	2023-09-14T00:00:00	2024-11-06T07:00:00	5	Humedad	70
49213	7	Sololá	701	Sololá	3	Barraneche	9	Septiembre	2023-09-14T00:00:00	2024-11-06T07:00:00	6	Velocidad del viento	4.8
49214	7	Sololá	701	Sololá	3	Barraneche	9	Septiembre	2023-09-14T00:00:00	2024-11-06T07:00:00	7	Dirección del viento	4.83
49215	7	Sololá	701	Sololá	3	Barraneche	9	Septiembre	2023-09-14T00:00:00	2024-11-06T07:00:00	1	Precipitación	0
49216	7	Sololá	701	Sololá	3	Barraneche	9	Septiembre	2023-09-14T00:00:00	2024-11-06T07:00:00	8	Radiación solar	63
49217	7	Sololá	701	Sololá	3	Barraneche	9	Septiembre	2023-09-14T00:00:00	2024-11-06T08:00:00	2	Temperatura media	13.6
49218	7	Sololá	701	Sololá	3	Barraneche	9	Septiembre	2023-09-14T00:00:00	2024-11-06T08:00:00	4	Temperatura máxima	13.6
49219	7	Sololá	701	Sololá	3	Barraneche	9	Septiembre	2023-09-14T00:00:00	2024-11-06T08:00:00	3	Temperatura mínima	12.4
49220	7	Sololá	701	Sololá	3	Barraneche	9	Septiembre	2023-09-14T00:00:00	2024-11-06T08:00:00	5	Humedad	72
49221	7	Sololá	701	Sololá	3	Barraneche	9	Septiembre	2023-09-14T00:00:00	2024-11-06T08:00:00	6	Velocidad del viento	1.6
49222	7	Sololá	701	Sololá	3	Barraneche	9	Septiembre	2023-09-14T00:00:00	2024-11-06T08:00:00	7	Dirección del viento	1.61
49223	7	Sololá	701	Sololá	3	Barraneche	9	Septiembre	2023-09-14T00:00:00	2024-11-06T08:00:00	1	Precipitación	0
49224	7	Sololá	701	Sololá	3	Barraneche	9	Septiembre	2023-09-14T00:00:00	2024-11-06T08:00:00	8	Radiación solar	116
49225	7	Sololá	701	Sololá	3	Barraneche	9	Septiembre	2023-09-14T00:00:00	2024-11-06T09:00:00	2	Temperatura media	15.3
49226	7	Sololá	701	Sololá	3	Barraneche	9	Septiembre	2023-09-14T00:00:00	2024-11-06T09:00:00	4	Temperatura máxima	15.3
49227	7	Sololá	701	Sololá	3	Barraneche	9	Septiembre	2023-09-14T00:00:00	2024-11-06T09:00:00	3	Temperatura mínima	13.6
49228	7	Sololá	701	Sololá	3	Barraneche	9	Septiembre	2023-09-14T00:00:00	2024-11-06T09:00:00	5	Humedad	68
49229	7	Sololá	701	Sololá	3	Barraneche	9	Septiembre	2023-09-14T00:00:00	2024-11-06T09:00:00	6	Velocidad del viento	1.6
49230	7	Sololá	701	Sololá	3	Barraneche	9	Septiembre	2023-09-14T00:00:00	2024-11-06T09:00:00	7	Dirección del viento	1.61
49231	7	Sololá	701	Sololá	3	Barraneche	9	Septiembre	2023-09-14T00:00:00	2024-11-06T09:00:00	1	Precipitación	0
49232	7	Sololá	701	Sololá	3	Barraneche	9	Septiembre	2023-09-14T00:00:00	2024-11-06T09:00:00	8	Radiación solar	198
49233	7	Sololá	701	Sololá	3	Barraneche	9	Septiembre	2023-09-14T00:00:00	2024-11-06T10:00:00	2	Temperatura media	18.1
49234	7	Sololá	701	Sololá	3	Barraneche	9	Septiembre	2023-09-14T00:00:00	2024-11-06T10:00:00	4	Temperatura máxima	18.2
49235	7	Sololá	701	Sololá	3	Barraneche	9	Septiembre	2023-09-14T00:00:00	2024-11-06T10:00:00	3	Temperatura mínima	15.3
49236	7	Sololá	701	Sololá	3	Barraneche	9	Septiembre	2023-09-14T00:00:00	2024-11-06T10:00:00	5	Humedad	58
49237	7	Sololá	701	Sololá	3	Barraneche	9	Septiembre	2023-09-14T00:00:00	2024-11-06T10:00:00	6	Velocidad del viento	6.4
49238	7	Sololá	701	Sololá	3	Barraneche	9	Septiembre	2023-09-14T00:00:00	2024-11-06T10:00:00	7	Dirección del viento	6.44
49239	7	Sololá	701	Sololá	3	Barraneche	9	Septiembre	2023-09-14T00:00:00	2024-11-06T10:00:00	1	Precipitación	0
49240	7	Sololá	701	Sololá	3	Barraneche	9	Septiembre	2023-09-14T00:00:00	2024-11-06T10:00:00	8	Radiación solar	667
49241	7	Sololá	701	Sololá	3	Barraneche	9	Septiembre	2023-09-14T00:00:00	2024-11-06T11:00:00	2	Temperatura media	18.5
49242	7	Sololá	701	Sololá	3	Barraneche	9	Septiembre	2023-09-14T00:00:00	2024-11-06T11:00:00	4	Temperatura máxima	19.1
49243	7	Sololá	701	Sololá	3	Barraneche	9	Septiembre	2023-09-14T00:00:00	2024-11-06T11:00:00	3	Temperatura mínima	17.9
49244	7	Sololá	701	Sololá	3	Barraneche	9	Septiembre	2023-09-14T00:00:00	2024-11-06T11:00:00	5	Humedad	61
49245	7	Sololá	701	Sololá	3	Barraneche	9	Septiembre	2023-09-14T00:00:00	2024-11-06T11:00:00	6	Velocidad del viento	8
49246	7	Sololá	701	Sololá	3	Barraneche	9	Septiembre	2023-09-14T00:00:00	2024-11-06T11:00:00	7	Dirección del viento	8.05
49247	7	Sololá	701	Sololá	3	Barraneche	9	Septiembre	2023-09-14T00:00:00	2024-11-06T11:00:00	1	Precipitación	0
49248	7	Sololá	701	Sololá	3	Barraneche	9	Septiembre	2023-09-14T00:00:00	2024-11-06T11:00:00	8	Radiación solar	933
49249	7	Sololá	701	Sololá	3	Barraneche	9	Septiembre	2023-09-14T00:00:00	2024-11-06T12:00:00	2	Temperatura media	18.9
49250	7	Sololá	701	Sololá	3	Barraneche	9	Septiembre	2023-09-14T00:00:00	2024-11-06T12:00:00	4	Temperatura máxima	19
49251	7	Sololá	701	Sololá	3	Barraneche	9	Septiembre	2023-09-14T00:00:00	2024-11-06T12:00:00	3	Temperatura mínima	18.3
49252	7	Sololá	701	Sololá	3	Barraneche	9	Septiembre	2023-09-14T00:00:00	2024-11-06T12:00:00	5	Humedad	66
49253	7	Sololá	701	Sololá	3	Barraneche	9	Septiembre	2023-09-14T00:00:00	2024-11-06T12:00:00	6	Velocidad del viento	11.3
49254	7	Sololá	701	Sololá	3	Barraneche	9	Septiembre	2023-09-14T00:00:00	2024-11-06T12:00:00	7	Dirección del viento	11.27
49255	7	Sololá	701	Sololá	3	Barraneche	9	Septiembre	2023-09-14T00:00:00	2024-11-06T12:00:00	1	Precipitación	0
49256	7	Sololá	701	Sololá	3	Barraneche	9	Septiembre	2023-09-14T00:00:00	2024-11-06T12:00:00	8	Radiación solar	517
49257	7	Sololá	701	Sololá	3	Barraneche	9	Septiembre	2023-09-14T00:00:00	2024-11-06T13:00:00	2	Temperatura media	20.9
49258	7	Sololá	701	Sololá	3	Barraneche	9	Septiembre	2023-09-14T00:00:00	2024-11-06T13:00:00	4	Temperatura máxima	20.9
49259	7	Sololá	701	Sololá	3	Barraneche	9	Septiembre	2023-09-14T00:00:00	2024-11-06T13:00:00	3	Temperatura mínima	18.8
49260	7	Sololá	701	Sololá	3	Barraneche	9	Septiembre	2023-09-14T00:00:00	2024-11-06T13:00:00	5	Humedad	54
49261	7	Sololá	701	Sololá	3	Barraneche	9	Septiembre	2023-09-14T00:00:00	2024-11-06T13:00:00	6	Velocidad del viento	11.3
49262	7	Sololá	701	Sololá	3	Barraneche	9	Septiembre	2023-09-14T00:00:00	2024-11-06T13:00:00	7	Dirección del viento	11.27
49263	7	Sololá	701	Sololá	3	Barraneche	9	Septiembre	2023-09-14T00:00:00	2024-11-06T13:00:00	1	Precipitación	0
49264	7	Sololá	701	Sololá	3	Barraneche	9	Septiembre	2023-09-14T00:00:00	2024-11-06T13:00:00	8	Radiación solar	851
49265	7	Sololá	701	Sololá	3	Barraneche	9	Septiembre	2023-09-14T00:00:00	2024-11-06T14:00:00	2	Temperatura media	20.1
49266	7	Sololá	701	Sololá	3	Barraneche	9	Septiembre	2023-09-14T00:00:00	2024-11-06T14:00:00	4	Temperatura máxima	21.3
49267	7	Sololá	701	Sololá	3	Barraneche	9	Septiembre	2023-09-14T00:00:00	2024-11-06T14:00:00	3	Temperatura mínima	19.8
49268	7	Sololá	701	Sololá	3	Barraneche	9	Septiembre	2023-09-14T00:00:00	2024-11-06T14:00:00	5	Humedad	55
49269	7	Sololá	701	Sololá	3	Barraneche	9	Septiembre	2023-09-14T00:00:00	2024-11-06T14:00:00	6	Velocidad del viento	8
49270	7	Sololá	701	Sololá	3	Barraneche	9	Septiembre	2023-09-14T00:00:00	2024-11-06T14:00:00	7	Dirección del viento	8.05
49271	7	Sololá	701	Sololá	3	Barraneche	9	Septiembre	2023-09-14T00:00:00	2024-11-06T14:00:00	1	Precipitación	0
49272	7	Sololá	701	Sololá	3	Barraneche	9	Septiembre	2023-09-14T00:00:00	2024-11-06T14:00:00	8	Radiación solar	505
49273	7	Sololá	701	Sololá	3	Barraneche	9	Septiembre	2023-09-14T00:00:00	2024-11-06T15:00:00	2	Temperatura media	18.6
49274	7	Sololá	701	Sololá	3	Barraneche	9	Septiembre	2023-09-14T00:00:00	2024-11-06T15:00:00	4	Temperatura máxima	20.1
49275	7	Sololá	701	Sololá	3	Barraneche	9	Septiembre	2023-09-14T00:00:00	2024-11-06T15:00:00	3	Temperatura mínima	17.9
49276	7	Sololá	701	Sololá	3	Barraneche	9	Septiembre	2023-09-14T00:00:00	2024-11-06T15:00:00	5	Humedad	69
49277	7	Sololá	701	Sololá	3	Barraneche	9	Septiembre	2023-09-14T00:00:00	2024-11-06T15:00:00	6	Velocidad del viento	12.9
49278	7	Sololá	701	Sololá	3	Barraneche	9	Septiembre	2023-09-14T00:00:00	2024-11-06T15:00:00	7	Dirección del viento	12.87
49279	7	Sololá	701	Sololá	3	Barraneche	9	Septiembre	2023-09-14T00:00:00	2024-11-06T15:00:00	1	Precipitación	0
49280	7	Sololá	701	Sololá	3	Barraneche	9	Septiembre	2023-09-14T00:00:00	2024-11-06T15:00:00	8	Radiación solar	306
49281	7	Sololá	701	Sololá	3	Barraneche	9	Septiembre	2023-09-14T00:00:00	2024-11-06T16:00:00	2	Temperatura media	17.7
49282	7	Sololá	701	Sololá	3	Barraneche	9	Septiembre	2023-09-14T00:00:00	2024-11-06T16:00:00	4	Temperatura máxima	18.8
49283	7	Sololá	701	Sololá	3	Barraneche	9	Septiembre	2023-09-14T00:00:00	2024-11-06T16:00:00	3	Temperatura mínima	17.7
49284	7	Sololá	701	Sololá	3	Barraneche	9	Septiembre	2023-09-14T00:00:00	2024-11-06T16:00:00	5	Humedad	72
49285	7	Sololá	701	Sololá	3	Barraneche	9	Septiembre	2023-09-14T00:00:00	2024-11-06T16:00:00	6	Velocidad del viento	11.3
49286	7	Sololá	701	Sololá	3	Barraneche	9	Septiembre	2023-09-14T00:00:00	2024-11-06T16:00:00	7	Dirección del viento	11.27
49287	7	Sololá	701	Sololá	3	Barraneche	9	Septiembre	2023-09-14T00:00:00	2024-11-06T16:00:00	1	Precipitación	0
49288	7	Sololá	701	Sololá	3	Barraneche	9	Septiembre	2023-09-14T00:00:00	2024-11-06T16:00:00	8	Radiación solar	344
49289	7	Sololá	701	Sololá	3	Barraneche	9	Septiembre	2023-09-14T00:00:00	2024-11-06T17:00:00	2	Temperatura media	16.6
49290	7	Sololá	701	Sololá	3	Barraneche	9	Septiembre	2023-09-14T00:00:00	2024-11-06T17:00:00	4	Temperatura máxima	17.7
49291	7	Sololá	701	Sololá	3	Barraneche	9	Septiembre	2023-09-14T00:00:00	2024-11-06T17:00:00	3	Temperatura mínima	16.6
49292	7	Sololá	701	Sololá	3	Barraneche	9	Septiembre	2023-09-14T00:00:00	2024-11-06T17:00:00	5	Humedad	73
49293	7	Sololá	701	Sololá	3	Barraneche	9	Septiembre	2023-09-14T00:00:00	2024-11-06T17:00:00	6	Velocidad del viento	11.3
49294	7	Sololá	701	Sololá	3	Barraneche	9	Septiembre	2023-09-14T00:00:00	2024-11-06T17:00:00	7	Dirección del viento	11.27
49295	7	Sololá	701	Sololá	3	Barraneche	9	Septiembre	2023-09-14T00:00:00	2024-11-06T17:00:00	1	Precipitación	0
49296	7	Sololá	701	Sololá	3	Barraneche	9	Septiembre	2023-09-14T00:00:00	2024-11-06T17:00:00	8	Radiación solar	271
49297	7	Sololá	701	Sololá	3	Barraneche	9	Septiembre	2023-09-14T00:00:00	2024-11-06T18:00:00	2	Temperatura media	16.4
49298	7	Sololá	701	Sololá	3	Barraneche	9	Septiembre	2023-09-14T00:00:00	2024-11-06T18:00:00	4	Temperatura máxima	17.2
49299	7	Sololá	701	Sololá	3	Barraneche	9	Septiembre	2023-09-14T00:00:00	2024-11-06T18:00:00	3	Temperatura mínima	16.2
49300	7	Sololá	701	Sololá	3	Barraneche	9	Septiembre	2023-09-14T00:00:00	2024-11-06T18:00:00	5	Humedad	72
49301	7	Sololá	701	Sololá	3	Barraneche	9	Septiembre	2023-09-14T00:00:00	2024-11-06T18:00:00	6	Velocidad del viento	8
49302	7	Sololá	701	Sololá	3	Barraneche	9	Septiembre	2023-09-14T00:00:00	2024-11-06T18:00:00	7	Dirección del viento	8.05
49303	7	Sololá	701	Sololá	3	Barraneche	9	Septiembre	2023-09-14T00:00:00	2024-11-06T18:00:00	1	Precipitación	0
49304	7	Sololá	701	Sololá	3	Barraneche	9	Septiembre	2023-09-14T00:00:00	2024-11-06T18:00:00	8	Radiación solar	54
49305	7	Sololá	701	Sololá	3	Barraneche	9	Septiembre	2023-09-14T00:00:00	2024-11-06T19:00:00	2	Temperatura media	15.3
49306	7	Sololá	701	Sololá	3	Barraneche	9	Septiembre	2023-09-14T00:00:00	2024-11-06T19:00:00	4	Temperatura máxima	16.4
49307	7	Sololá	701	Sololá	3	Barraneche	9	Septiembre	2023-09-14T00:00:00	2024-11-06T19:00:00	3	Temperatura mínima	15.3
49308	7	Sololá	701	Sololá	3	Barraneche	9	Septiembre	2023-09-14T00:00:00	2024-11-06T19:00:00	5	Humedad	78
49309	7	Sololá	701	Sololá	3	Barraneche	9	Septiembre	2023-09-14T00:00:00	2024-11-06T19:00:00	6	Velocidad del viento	3.2
49310	7	Sololá	701	Sololá	3	Barraneche	9	Septiembre	2023-09-14T00:00:00	2024-11-06T19:00:00	7	Dirección del viento	3.22
49311	7	Sololá	701	Sololá	3	Barraneche	9	Septiembre	2023-09-14T00:00:00	2024-11-06T19:00:00	1	Precipitación	0
49312	7	Sololá	701	Sololá	3	Barraneche	9	Septiembre	2023-09-14T00:00:00	2024-11-06T19:00:00	8	Radiación solar	0
49313	7	Sololá	701	Sololá	3	Barraneche	9	Septiembre	2023-09-14T00:00:00	2024-11-06T20:00:00	2	Temperatura media	14.3
49314	7	Sololá	701	Sololá	3	Barraneche	9	Septiembre	2023-09-14T00:00:00	2024-11-06T20:00:00	4	Temperatura máxima	15.3
49315	7	Sololá	701	Sololá	3	Barraneche	9	Septiembre	2023-09-14T00:00:00	2024-11-06T20:00:00	3	Temperatura mínima	14.3
49316	7	Sololá	701	Sololá	3	Barraneche	9	Septiembre	2023-09-14T00:00:00	2024-11-06T20:00:00	5	Humedad	78
49317	7	Sololá	701	Sololá	3	Barraneche	9	Septiembre	2023-09-14T00:00:00	2024-11-06T20:00:00	6	Velocidad del viento	1.6
49318	7	Sololá	701	Sololá	3	Barraneche	9	Septiembre	2023-09-14T00:00:00	2024-11-06T20:00:00	7	Dirección del viento	1.61
49319	7	Sololá	701	Sololá	3	Barraneche	9	Septiembre	2023-09-14T00:00:00	2024-11-06T20:00:00	1	Precipitación	0
49320	7	Sololá	701	Sololá	3	Barraneche	9	Septiembre	2023-09-14T00:00:00	2024-11-06T20:00:00	8	Radiación solar	0
49321	7	Sololá	701	Sololá	3	Barraneche	9	Septiembre	2023-09-14T00:00:00	2024-11-06T21:00:00	2	Temperatura media	14.5
49322	7	Sololá	701	Sololá	3	Barraneche	9	Septiembre	2023-09-14T00:00:00	2024-11-06T21:00:00	4	Temperatura máxima	15.1
49323	7	Sololá	701	Sololá	3	Barraneche	9	Septiembre	2023-09-14T00:00:00	2024-11-06T21:00:00	3	Temperatura mínima	14.3
49324	7	Sololá	701	Sololá	3	Barraneche	9	Septiembre	2023-09-14T00:00:00	2024-11-06T21:00:00	5	Humedad	71
49325	7	Sololá	701	Sololá	3	Barraneche	9	Septiembre	2023-09-14T00:00:00	2024-11-06T21:00:00	6	Velocidad del viento	3.2
49326	7	Sololá	701	Sololá	3	Barraneche	9	Septiembre	2023-09-14T00:00:00	2024-11-06T21:00:00	7	Dirección del viento	3.22
49327	7	Sololá	701	Sololá	3	Barraneche	9	Septiembre	2023-09-14T00:00:00	2024-11-06T21:00:00	1	Precipitación	0
49328	7	Sololá	701	Sololá	3	Barraneche	9	Septiembre	2023-09-14T00:00:00	2024-11-06T21:00:00	8	Radiación solar	0
49329	7	Sololá	701	Sololá	3	Barraneche	9	Septiembre	2023-09-14T00:00:00	2024-11-06T22:00:00	2	Temperatura media	15.6
49330	7	Sololá	701	Sololá	3	Barraneche	9	Septiembre	2023-09-14T00:00:00	2024-11-06T22:00:00	4	Temperatura máxima	15.8
49331	7	Sololá	701	Sololá	3	Barraneche	9	Septiembre	2023-09-14T00:00:00	2024-11-06T22:00:00	3	Temperatura mínima	14.5
49332	7	Sololá	701	Sololá	3	Barraneche	9	Septiembre	2023-09-14T00:00:00	2024-11-06T22:00:00	5	Humedad	68
49333	7	Sololá	701	Sololá	3	Barraneche	9	Septiembre	2023-09-14T00:00:00	2024-11-06T22:00:00	6	Velocidad del viento	3.2
49334	7	Sololá	701	Sololá	3	Barraneche	9	Septiembre	2023-09-14T00:00:00	2024-11-06T22:00:00	7	Dirección del viento	3.22
49335	7	Sololá	701	Sololá	3	Barraneche	9	Septiembre	2023-09-14T00:00:00	2024-11-06T22:00:00	1	Precipitación	0
49336	7	Sololá	701	Sololá	3	Barraneche	9	Septiembre	2023-09-14T00:00:00	2024-11-06T22:00:00	8	Radiación solar	0
49337	7	Sololá	701	Sololá	3	Barraneche	9	Septiembre	2023-09-14T00:00:00	2024-11-06T23:00:00	2	Temperatura media	14.4
49338	7	Sololá	701	Sololá	3	Barraneche	9	Septiembre	2023-09-14T00:00:00	2024-11-06T23:00:00	4	Temperatura máxima	15.8
49339	7	Sololá	701	Sololá	3	Barraneche	9	Septiembre	2023-09-14T00:00:00	2024-11-06T23:00:00	3	Temperatura mínima	14.4
49340	7	Sololá	701	Sololá	3	Barraneche	9	Septiembre	2023-09-14T00:00:00	2024-11-06T23:00:00	5	Humedad	74
49341	7	Sololá	701	Sololá	3	Barraneche	9	Septiembre	2023-09-14T00:00:00	2024-11-06T23:00:00	6	Velocidad del viento	3.2
49342	7	Sololá	701	Sololá	3	Barraneche	9	Septiembre	2023-09-14T00:00:00	2024-11-06T23:00:00	7	Dirección del viento	3.22
49343	7	Sololá	701	Sololá	3	Barraneche	9	Septiembre	2023-09-14T00:00:00	2024-11-06T23:00:00	1	Precipitación	0.4
49344	7	Sololá	701	Sololá	3	Barraneche	9	Septiembre	2023-09-14T00:00:00	2024-11-06T23:00:00	8	Radiación solar	0
49345	7	Sololá	701	Sololá	3	Barraneche	9	Septiembre	2023-09-15T00:00:00	2024-11-06T00:00:00	2	Temperatura media	14.2
49346	7	Sololá	701	Sololá	3	Barraneche	9	Septiembre	2023-09-15T00:00:00	2024-11-06T00:00:00	4	Temperatura máxima	14.6
49347	7	Sololá	701	Sololá	3	Barraneche	9	Septiembre	2023-09-15T00:00:00	2024-11-06T00:00:00	3	Temperatura mínima	14
49348	7	Sololá	701	Sololá	3	Barraneche	9	Septiembre	2023-09-15T00:00:00	2024-11-06T00:00:00	5	Humedad	72
49349	7	Sololá	701	Sololá	3	Barraneche	9	Septiembre	2023-09-15T00:00:00	2024-11-06T00:00:00	6	Velocidad del viento	3.2
49350	7	Sololá	701	Sololá	3	Barraneche	9	Septiembre	2023-09-15T00:00:00	2024-11-06T00:00:00	7	Dirección del viento	3.22
49351	7	Sololá	701	Sololá	3	Barraneche	9	Septiembre	2023-09-15T00:00:00	2024-11-06T00:00:00	1	Precipitación	0
49352	7	Sololá	701	Sololá	3	Barraneche	9	Septiembre	2023-09-15T00:00:00	2024-11-06T00:00:00	8	Radiación solar	0
49353	7	Sololá	701	Sololá	3	Barraneche	9	Septiembre	2023-09-15T00:00:00	2024-11-06T01:00:00	2	Temperatura media	13.7
49354	7	Sololá	701	Sololá	3	Barraneche	9	Septiembre	2023-09-15T00:00:00	2024-11-06T01:00:00	4	Temperatura máxima	14.8
49355	7	Sololá	701	Sololá	3	Barraneche	9	Septiembre	2023-09-15T00:00:00	2024-11-06T01:00:00	3	Temperatura mínima	13.7
49356	7	Sololá	701	Sololá	3	Barraneche	9	Septiembre	2023-09-15T00:00:00	2024-11-06T01:00:00	5	Humedad	74
49357	7	Sololá	701	Sololá	3	Barraneche	9	Septiembre	2023-09-15T00:00:00	2024-11-06T01:00:00	6	Velocidad del viento	3.2
49358	7	Sololá	701	Sololá	3	Barraneche	9	Septiembre	2023-09-15T00:00:00	2024-11-06T01:00:00	7	Dirección del viento	3.22
49359	7	Sololá	701	Sololá	3	Barraneche	9	Septiembre	2023-09-15T00:00:00	2024-11-06T01:00:00	1	Precipitación	0
49360	7	Sololá	701	Sololá	3	Barraneche	9	Septiembre	2023-09-15T00:00:00	2024-11-06T01:00:00	8	Radiación solar	0
49361	7	Sololá	701	Sololá	3	Barraneche	9	Septiembre	2023-09-15T00:00:00	2024-11-06T02:00:00	2	Temperatura media	12.4
49362	7	Sololá	701	Sololá	3	Barraneche	9	Septiembre	2023-09-15T00:00:00	2024-11-06T02:00:00	4	Temperatura máxima	13.7
49363	7	Sololá	701	Sololá	3	Barraneche	9	Septiembre	2023-09-15T00:00:00	2024-11-06T02:00:00	3	Temperatura mínima	12.4
49364	7	Sololá	701	Sololá	3	Barraneche	9	Septiembre	2023-09-15T00:00:00	2024-11-06T02:00:00	5	Humedad	75
49365	7	Sololá	701	Sololá	3	Barraneche	9	Septiembre	2023-09-15T00:00:00	2024-11-06T02:00:00	6	Velocidad del viento	3.2
49366	7	Sololá	701	Sololá	3	Barraneche	9	Septiembre	2023-09-15T00:00:00	2024-11-06T02:00:00	7	Dirección del viento	3.22
49367	7	Sololá	701	Sololá	3	Barraneche	9	Septiembre	2023-09-15T00:00:00	2024-11-06T02:00:00	1	Precipitación	0
49368	7	Sololá	701	Sololá	3	Barraneche	9	Septiembre	2023-09-15T00:00:00	2024-11-06T02:00:00	8	Radiación solar	0
49369	7	Sololá	701	Sololá	3	Barraneche	9	Septiembre	2023-09-15T00:00:00	2024-11-06T03:00:00	2	Temperatura media	11.6
49370	7	Sololá	701	Sololá	3	Barraneche	9	Septiembre	2023-09-15T00:00:00	2024-11-06T03:00:00	4	Temperatura máxima	12.4
49371	7	Sololá	701	Sololá	3	Barraneche	9	Septiembre	2023-09-15T00:00:00	2024-11-06T03:00:00	3	Temperatura mínima	11.6
49372	7	Sololá	701	Sololá	3	Barraneche	9	Septiembre	2023-09-15T00:00:00	2024-11-06T03:00:00	5	Humedad	79
49373	7	Sololá	701	Sololá	3	Barraneche	9	Septiembre	2023-09-15T00:00:00	2024-11-06T03:00:00	6	Velocidad del viento	3.2
49374	7	Sololá	701	Sololá	3	Barraneche	9	Septiembre	2023-09-15T00:00:00	2024-11-06T03:00:00	7	Dirección del viento	3.22
49375	7	Sololá	701	Sololá	3	Barraneche	9	Septiembre	2023-09-15T00:00:00	2024-11-06T03:00:00	1	Precipitación	0
49376	7	Sololá	701	Sololá	3	Barraneche	9	Septiembre	2023-09-15T00:00:00	2024-11-06T03:00:00	8	Radiación solar	0
49377	7	Sololá	701	Sololá	3	Barraneche	9	Septiembre	2023-09-15T00:00:00	2024-11-06T04:00:00	2	Temperatura media	11.1
49378	7	Sololá	701	Sololá	3	Barraneche	9	Septiembre	2023-09-15T00:00:00	2024-11-06T04:00:00	4	Temperatura máxima	11.7
49379	7	Sololá	701	Sololá	3	Barraneche	9	Septiembre	2023-09-15T00:00:00	2024-11-06T04:00:00	3	Temperatura mínima	11
49380	7	Sololá	701	Sololá	3	Barraneche	9	Septiembre	2023-09-15T00:00:00	2024-11-06T04:00:00	5	Humedad	76
49381	7	Sololá	701	Sololá	3	Barraneche	9	Septiembre	2023-09-15T00:00:00	2024-11-06T04:00:00	6	Velocidad del viento	3.2
49382	7	Sololá	701	Sololá	3	Barraneche	9	Septiembre	2023-09-15T00:00:00	2024-11-06T04:00:00	7	Dirección del viento	3.22
49383	7	Sololá	701	Sololá	3	Barraneche	9	Septiembre	2023-09-15T00:00:00	2024-11-06T04:00:00	1	Precipitación	0
49384	7	Sololá	701	Sololá	3	Barraneche	9	Septiembre	2023-09-15T00:00:00	2024-11-06T04:00:00	8	Radiación solar	0
49385	7	Sololá	701	Sololá	3	Barraneche	9	Septiembre	2023-09-15T00:00:00	2024-11-06T05:00:00	2	Temperatura media	10.4
49386	7	Sololá	701	Sololá	3	Barraneche	9	Septiembre	2023-09-15T00:00:00	2024-11-06T05:00:00	4	Temperatura máxima	11.2
49387	7	Sololá	701	Sololá	3	Barraneche	9	Septiembre	2023-09-15T00:00:00	2024-11-06T05:00:00	3	Temperatura mínima	10.4
49388	7	Sololá	701	Sololá	3	Barraneche	9	Septiembre	2023-09-15T00:00:00	2024-11-06T05:00:00	5	Humedad	75
49389	7	Sololá	701	Sololá	3	Barraneche	9	Septiembre	2023-09-15T00:00:00	2024-11-06T05:00:00	6	Velocidad del viento	3.2
49390	7	Sololá	701	Sololá	3	Barraneche	9	Septiembre	2023-09-15T00:00:00	2024-11-06T05:00:00	7	Dirección del viento	3.22
49391	7	Sololá	701	Sololá	3	Barraneche	9	Septiembre	2023-09-15T00:00:00	2024-11-06T05:00:00	1	Precipitación	0
49392	7	Sololá	701	Sololá	3	Barraneche	9	Septiembre	2023-09-15T00:00:00	2024-11-06T05:00:00	8	Radiación solar	0
49393	7	Sololá	701	Sololá	3	Barraneche	9	Septiembre	2023-09-15T00:00:00	2024-11-06T06:00:00	2	Temperatura media	10.6
49394	7	Sololá	701	Sololá	3	Barraneche	9	Septiembre	2023-09-15T00:00:00	2024-11-06T06:00:00	4	Temperatura máxima	10.6
49395	7	Sololá	701	Sololá	3	Barraneche	9	Septiembre	2023-09-15T00:00:00	2024-11-06T06:00:00	3	Temperatura mínima	10.4
49396	7	Sololá	701	Sololá	3	Barraneche	9	Septiembre	2023-09-15T00:00:00	2024-11-06T06:00:00	5	Humedad	77
49397	7	Sololá	701	Sololá	3	Barraneche	9	Septiembre	2023-09-15T00:00:00	2024-11-06T06:00:00	6	Velocidad del viento	4.8
49398	7	Sololá	701	Sololá	3	Barraneche	9	Septiembre	2023-09-15T00:00:00	2024-11-06T06:00:00	7	Dirección del viento	4.83
49399	7	Sololá	701	Sololá	3	Barraneche	9	Septiembre	2023-09-15T00:00:00	2024-11-06T06:00:00	1	Precipitación	0
49400	7	Sololá	701	Sololá	3	Barraneche	9	Septiembre	2023-09-15T00:00:00	2024-11-06T06:00:00	8	Radiación solar	1
49401	7	Sololá	701	Sololá	3	Barraneche	9	Septiembre	2023-09-15T00:00:00	2024-11-06T07:00:00	2	Temperatura media	12.8
49402	7	Sololá	701	Sololá	3	Barraneche	9	Septiembre	2023-09-15T00:00:00	2024-11-06T07:00:00	4	Temperatura máxima	12.8
49403	7	Sololá	701	Sololá	3	Barraneche	9	Septiembre	2023-09-15T00:00:00	2024-11-06T07:00:00	3	Temperatura mínima	10.6
49404	7	Sololá	701	Sololá	3	Barraneche	9	Septiembre	2023-09-15T00:00:00	2024-11-06T07:00:00	5	Humedad	71
49405	7	Sololá	701	Sololá	3	Barraneche	9	Septiembre	2023-09-15T00:00:00	2024-11-06T07:00:00	6	Velocidad del viento	4.8
49406	7	Sololá	701	Sololá	3	Barraneche	9	Septiembre	2023-09-15T00:00:00	2024-11-06T07:00:00	7	Dirección del viento	4.83
49407	7	Sololá	701	Sololá	3	Barraneche	9	Septiembre	2023-09-15T00:00:00	2024-11-06T07:00:00	1	Precipitación	0
49408	7	Sololá	701	Sololá	3	Barraneche	9	Septiembre	2023-09-15T00:00:00	2024-11-06T07:00:00	8	Radiación solar	58
49409	7	Sololá	701	Sololá	3	Barraneche	9	Septiembre	2023-09-15T00:00:00	2024-11-06T08:00:00	2	Temperatura media	14.9
49410	7	Sololá	701	Sololá	3	Barraneche	9	Septiembre	2023-09-15T00:00:00	2024-11-06T08:00:00	4	Temperatura máxima	16.6
49411	7	Sololá	701	Sololá	3	Barraneche	9	Septiembre	2023-09-15T00:00:00	2024-11-06T08:00:00	3	Temperatura mínima	12.8
49412	7	Sololá	701	Sololá	3	Barraneche	9	Septiembre	2023-09-15T00:00:00	2024-11-06T08:00:00	5	Humedad	68
49413	7	Sololá	701	Sololá	3	Barraneche	9	Septiembre	2023-09-15T00:00:00	2024-11-06T08:00:00	6	Velocidad del viento	3.2
49414	7	Sololá	701	Sololá	3	Barraneche	9	Septiembre	2023-09-15T00:00:00	2024-11-06T08:00:00	7	Dirección del viento	3.22
49415	7	Sololá	701	Sololá	3	Barraneche	9	Septiembre	2023-09-15T00:00:00	2024-11-06T08:00:00	1	Precipitación	0
49416	7	Sololá	701	Sololá	3	Barraneche	9	Septiembre	2023-09-15T00:00:00	2024-11-06T08:00:00	8	Radiación solar	257
49417	7	Sololá	701	Sololá	3	Barraneche	9	Septiembre	2023-09-15T00:00:00	2024-11-06T09:00:00	2	Temperatura media	17.6
49418	7	Sololá	701	Sololá	3	Barraneche	9	Septiembre	2023-09-15T00:00:00	2024-11-06T09:00:00	4	Temperatura máxima	17.7
49419	7	Sololá	701	Sololá	3	Barraneche	9	Septiembre	2023-09-15T00:00:00	2024-11-06T09:00:00	3	Temperatura mínima	14.9
49420	7	Sololá	701	Sololá	3	Barraneche	9	Septiembre	2023-09-15T00:00:00	2024-11-06T09:00:00	5	Humedad	57
49421	7	Sololá	701	Sololá	3	Barraneche	9	Septiembre	2023-09-15T00:00:00	2024-11-06T09:00:00	6	Velocidad del viento	6.4
49422	7	Sololá	701	Sololá	3	Barraneche	9	Septiembre	2023-09-15T00:00:00	2024-11-06T09:00:00	7	Dirección del viento	6.44
49423	7	Sololá	701	Sololá	3	Barraneche	9	Septiembre	2023-09-15T00:00:00	2024-11-06T09:00:00	1	Precipitación	0
49424	7	Sololá	701	Sololá	3	Barraneche	9	Septiembre	2023-09-15T00:00:00	2024-11-06T09:00:00	8	Radiación solar	550
49425	7	Sololá	701	Sololá	3	Barraneche	9	Septiembre	2023-09-15T00:00:00	2024-11-06T10:00:00	2	Temperatura media	19.2
49426	7	Sololá	701	Sololá	3	Barraneche	9	Septiembre	2023-09-15T00:00:00	2024-11-06T10:00:00	4	Temperatura máxima	19.2
49427	7	Sololá	701	Sololá	3	Barraneche	9	Septiembre	2023-09-15T00:00:00	2024-11-06T10:00:00	3	Temperatura mínima	17.6
49428	7	Sololá	701	Sololá	3	Barraneche	9	Septiembre	2023-09-15T00:00:00	2024-11-06T10:00:00	5	Humedad	54
49429	7	Sololá	701	Sololá	3	Barraneche	9	Septiembre	2023-09-15T00:00:00	2024-11-06T10:00:00	6	Velocidad del viento	9.7
49430	7	Sololá	701	Sololá	3	Barraneche	9	Septiembre	2023-09-15T00:00:00	2024-11-06T10:00:00	7	Dirección del viento	9.66
49431	7	Sololá	701	Sololá	3	Barraneche	9	Septiembre	2023-09-15T00:00:00	2024-11-06T10:00:00	1	Precipitación	0
49432	7	Sololá	701	Sololá	3	Barraneche	9	Septiembre	2023-09-15T00:00:00	2024-11-06T10:00:00	8	Radiación solar	863
49433	7	Sololá	701	Sololá	3	Barraneche	9	Septiembre	2023-09-15T00:00:00	2024-11-06T11:00:00	2	Temperatura media	19.7
49434	7	Sololá	701	Sololá	3	Barraneche	9	Septiembre	2023-09-15T00:00:00	2024-11-06T11:00:00	4	Temperatura máxima	20.4
49435	7	Sololá	701	Sololá	3	Barraneche	9	Septiembre	2023-09-15T00:00:00	2024-11-06T11:00:00	3	Temperatura mínima	18.9
49436	7	Sololá	701	Sololá	3	Barraneche	9	Septiembre	2023-09-15T00:00:00	2024-11-06T11:00:00	5	Humedad	52
49437	7	Sololá	701	Sololá	3	Barraneche	9	Septiembre	2023-09-15T00:00:00	2024-11-06T11:00:00	6	Velocidad del viento	9.7
49438	7	Sololá	701	Sololá	3	Barraneche	9	Septiembre	2023-09-15T00:00:00	2024-11-06T11:00:00	7	Dirección del viento	9.66
49439	7	Sololá	701	Sololá	3	Barraneche	9	Septiembre	2023-09-15T00:00:00	2024-11-06T11:00:00	1	Precipitación	0
49440	7	Sololá	701	Sololá	3	Barraneche	9	Septiembre	2023-09-15T00:00:00	2024-11-06T11:00:00	8	Radiación solar	1012
49441	7	Sololá	701	Sololá	3	Barraneche	9	Septiembre	2023-09-15T00:00:00	2024-11-06T12:00:00	2	Temperatura media	20.8
49442	7	Sololá	701	Sololá	3	Barraneche	9	Septiembre	2023-09-15T00:00:00	2024-11-06T12:00:00	4	Temperatura máxima	20.8
49443	7	Sololá	701	Sololá	3	Barraneche	9	Septiembre	2023-09-15T00:00:00	2024-11-06T12:00:00	3	Temperatura mínima	19.6
49444	7	Sololá	701	Sololá	3	Barraneche	9	Septiembre	2023-09-15T00:00:00	2024-11-06T12:00:00	5	Humedad	46
49445	7	Sololá	701	Sololá	3	Barraneche	9	Septiembre	2023-09-15T00:00:00	2024-11-06T12:00:00	6	Velocidad del viento	9.7
49446	7	Sololá	701	Sololá	3	Barraneche	9	Septiembre	2023-09-15T00:00:00	2024-11-06T12:00:00	7	Dirección del viento	9.66
49447	7	Sololá	701	Sololá	3	Barraneche	9	Septiembre	2023-09-15T00:00:00	2024-11-06T12:00:00	1	Precipitación	0
49448	7	Sololá	701	Sololá	3	Barraneche	9	Septiembre	2023-09-15T00:00:00	2024-11-06T12:00:00	8	Radiación solar	1062
49449	7	Sololá	701	Sololá	3	Barraneche	9	Septiembre	2023-09-15T00:00:00	2024-11-06T13:00:00	2	Temperatura media	20.8
49450	7	Sololá	701	Sololá	3	Barraneche	9	Septiembre	2023-09-15T00:00:00	2024-11-06T13:00:00	4	Temperatura máxima	21.1
49451	7	Sololá	701	Sololá	3	Barraneche	9	Septiembre	2023-09-15T00:00:00	2024-11-06T13:00:00	3	Temperatura mínima	20.2
49452	7	Sololá	701	Sololá	3	Barraneche	9	Septiembre	2023-09-15T00:00:00	2024-11-06T13:00:00	5	Humedad	46
49453	7	Sololá	701	Sololá	3	Barraneche	9	Septiembre	2023-09-15T00:00:00	2024-11-06T13:00:00	6	Velocidad del viento	11.3
49454	7	Sololá	701	Sololá	3	Barraneche	9	Septiembre	2023-09-15T00:00:00	2024-11-06T13:00:00	7	Dirección del viento	11.27
49455	7	Sololá	701	Sololá	3	Barraneche	9	Septiembre	2023-09-15T00:00:00	2024-11-06T13:00:00	1	Precipitación	0
49456	7	Sololá	701	Sololá	3	Barraneche	9	Septiembre	2023-09-15T00:00:00	2024-11-06T13:00:00	8	Radiación solar	1067
49457	7	Sololá	701	Sololá	3	Barraneche	9	Septiembre	2023-09-15T00:00:00	2024-11-06T14:00:00	2	Temperatura media	18.8
49458	7	Sololá	701	Sololá	3	Barraneche	9	Septiembre	2023-09-15T00:00:00	2024-11-06T14:00:00	4	Temperatura máxima	21.4
49459	7	Sololá	701	Sololá	3	Barraneche	9	Septiembre	2023-09-15T00:00:00	2024-11-06T14:00:00	3	Temperatura mínima	18.8
49460	7	Sololá	701	Sololá	3	Barraneche	9	Septiembre	2023-09-15T00:00:00	2024-11-06T14:00:00	5	Humedad	67
49461	7	Sololá	701	Sololá	3	Barraneche	9	Septiembre	2023-09-15T00:00:00	2024-11-06T14:00:00	6	Velocidad del viento	9.7
49462	7	Sololá	701	Sololá	3	Barraneche	9	Septiembre	2023-09-15T00:00:00	2024-11-06T14:00:00	7	Dirección del viento	9.66
49463	7	Sololá	701	Sololá	3	Barraneche	9	Septiembre	2023-09-15T00:00:00	2024-11-06T14:00:00	1	Precipitación	0
49464	7	Sololá	701	Sololá	3	Barraneche	9	Septiembre	2023-09-15T00:00:00	2024-11-06T14:00:00	8	Radiación solar	559
49465	7	Sololá	701	Sololá	3	Barraneche	9	Septiembre	2023-09-15T00:00:00	2024-11-06T15:00:00	2	Temperatura media	18.8
49466	7	Sololá	701	Sololá	3	Barraneche	9	Septiembre	2023-09-15T00:00:00	2024-11-06T15:00:00	4	Temperatura máxima	19.2
49467	7	Sololá	701	Sololá	3	Barraneche	9	Septiembre	2023-09-15T00:00:00	2024-11-06T15:00:00	3	Temperatura mínima	17.8
49468	7	Sololá	701	Sololá	3	Barraneche	9	Septiembre	2023-09-15T00:00:00	2024-11-06T15:00:00	5	Humedad	58
49469	7	Sololá	701	Sololá	3	Barraneche	9	Septiembre	2023-09-15T00:00:00	2024-11-06T15:00:00	6	Velocidad del viento	11.3
49470	7	Sololá	701	Sololá	3	Barraneche	9	Septiembre	2023-09-15T00:00:00	2024-11-06T15:00:00	7	Dirección del viento	11.27
49471	7	Sololá	701	Sololá	3	Barraneche	9	Septiembre	2023-09-15T00:00:00	2024-11-06T15:00:00	1	Precipitación	0
49472	7	Sololá	701	Sololá	3	Barraneche	9	Septiembre	2023-09-15T00:00:00	2024-11-06T15:00:00	8	Radiación solar	342
49473	7	Sololá	701	Sololá	3	Barraneche	9	Septiembre	2023-09-15T00:00:00	2024-11-06T16:00:00	2	Temperatura media	18.3
49474	7	Sololá	701	Sololá	3	Barraneche	9	Septiembre	2023-09-15T00:00:00	2024-11-06T16:00:00	4	Temperatura máxima	19.1
49475	7	Sololá	701	Sololá	3	Barraneche	9	Septiembre	2023-09-15T00:00:00	2024-11-06T16:00:00	3	Temperatura mínima	17.7
49476	7	Sololá	701	Sololá	3	Barraneche	9	Septiembre	2023-09-15T00:00:00	2024-11-06T16:00:00	5	Humedad	60
49477	7	Sololá	701	Sololá	3	Barraneche	9	Septiembre	2023-09-15T00:00:00	2024-11-06T16:00:00	6	Velocidad del viento	9.7
49478	7	Sololá	701	Sololá	3	Barraneche	9	Septiembre	2023-09-15T00:00:00	2024-11-06T16:00:00	7	Dirección del viento	9.66
49479	7	Sololá	701	Sololá	3	Barraneche	9	Septiembre	2023-09-15T00:00:00	2024-11-06T16:00:00	1	Precipitación	0
49480	7	Sololá	701	Sololá	3	Barraneche	9	Septiembre	2023-09-15T00:00:00	2024-11-06T16:00:00	8	Radiación solar	289
49481	7	Sololá	701	Sololá	3	Barraneche	9	Septiembre	2023-09-15T00:00:00	2024-11-06T17:00:00	2	Temperatura media	17.6
49482	7	Sololá	701	Sololá	3	Barraneche	9	Septiembre	2023-09-15T00:00:00	2024-11-06T17:00:00	4	Temperatura máxima	18.5
49483	7	Sololá	701	Sololá	3	Barraneche	9	Septiembre	2023-09-15T00:00:00	2024-11-06T17:00:00	3	Temperatura mínima	17.6
49484	7	Sololá	701	Sololá	3	Barraneche	9	Septiembre	2023-09-15T00:00:00	2024-11-06T17:00:00	5	Humedad	60
49485	7	Sololá	701	Sololá	3	Barraneche	9	Septiembre	2023-09-15T00:00:00	2024-11-06T17:00:00	6	Velocidad del viento	6.4
49486	7	Sololá	701	Sololá	3	Barraneche	9	Septiembre	2023-09-15T00:00:00	2024-11-06T17:00:00	7	Dirección del viento	6.44
49487	7	Sololá	701	Sololá	3	Barraneche	9	Septiembre	2023-09-15T00:00:00	2024-11-06T17:00:00	1	Precipitación	0
49488	7	Sololá	701	Sololá	3	Barraneche	9	Septiembre	2023-09-15T00:00:00	2024-11-06T17:00:00	8	Radiación solar	149
49489	7	Sololá	701	Sololá	3	Barraneche	9	Septiembre	2023-09-15T00:00:00	2024-11-06T18:00:00	2	Temperatura media	16.2
49490	7	Sololá	701	Sololá	3	Barraneche	9	Septiembre	2023-09-15T00:00:00	2024-11-06T18:00:00	4	Temperatura máxima	17.6
49491	7	Sololá	701	Sololá	3	Barraneche	9	Septiembre	2023-09-15T00:00:00	2024-11-06T18:00:00	3	Temperatura mínima	16.2
49492	7	Sololá	701	Sololá	3	Barraneche	9	Septiembre	2023-09-15T00:00:00	2024-11-06T18:00:00	5	Humedad	63
49493	7	Sololá	701	Sololá	3	Barraneche	9	Septiembre	2023-09-15T00:00:00	2024-11-06T18:00:00	6	Velocidad del viento	6.4
49494	7	Sololá	701	Sololá	3	Barraneche	9	Septiembre	2023-09-15T00:00:00	2024-11-06T18:00:00	7	Dirección del viento	6.44
49495	7	Sololá	701	Sololá	3	Barraneche	9	Septiembre	2023-09-15T00:00:00	2024-11-06T18:00:00	1	Precipitación	0
49496	7	Sololá	701	Sololá	3	Barraneche	9	Septiembre	2023-09-15T00:00:00	2024-11-06T18:00:00	8	Radiación solar	37
49497	7	Sololá	701	Sololá	3	Barraneche	9	Septiembre	2023-09-15T00:00:00	2024-11-06T19:00:00	2	Temperatura media	15.8
49498	7	Sololá	701	Sololá	3	Barraneche	9	Septiembre	2023-09-15T00:00:00	2024-11-06T19:00:00	4	Temperatura máxima	16.2
49499	7	Sololá	701	Sololá	3	Barraneche	9	Septiembre	2023-09-15T00:00:00	2024-11-06T19:00:00	3	Temperatura mínima	15.7
49500	7	Sololá	701	Sololá	3	Barraneche	9	Septiembre	2023-09-15T00:00:00	2024-11-06T19:00:00	5	Humedad	65
49501	7	Sololá	701	Sololá	3	Barraneche	9	Septiembre	2023-09-15T00:00:00	2024-11-06T19:00:00	6	Velocidad del viento	6.4
49502	7	Sololá	701	Sololá	3	Barraneche	9	Septiembre	2023-09-15T00:00:00	2024-11-06T19:00:00	7	Dirección del viento	6.44
49503	7	Sololá	701	Sololá	3	Barraneche	9	Septiembre	2023-09-15T00:00:00	2024-11-06T19:00:00	1	Precipitación	0
49504	7	Sololá	701	Sololá	3	Barraneche	9	Septiembre	2023-09-15T00:00:00	2024-11-06T19:00:00	8	Radiación solar	0
49505	7	Sololá	701	Sololá	3	Barraneche	9	Septiembre	2023-09-15T00:00:00	2024-11-06T20:00:00	2	Temperatura media	15.7
49506	7	Sololá	701	Sololá	3	Barraneche	9	Septiembre	2023-09-15T00:00:00	2024-11-06T20:00:00	4	Temperatura máxima	15.8
49507	7	Sololá	701	Sololá	3	Barraneche	9	Septiembre	2023-09-15T00:00:00	2024-11-06T20:00:00	3	Temperatura mínima	15.2
49508	7	Sololá	701	Sololá	3	Barraneche	9	Septiembre	2023-09-15T00:00:00	2024-11-06T20:00:00	5	Humedad	66
49509	7	Sololá	701	Sololá	3	Barraneche	9	Septiembre	2023-09-15T00:00:00	2024-11-06T20:00:00	6	Velocidad del viento	4.8
49510	7	Sololá	701	Sololá	3	Barraneche	9	Septiembre	2023-09-15T00:00:00	2024-11-06T20:00:00	7	Dirección del viento	4.83
49511	7	Sololá	701	Sololá	3	Barraneche	9	Septiembre	2023-09-15T00:00:00	2024-11-06T20:00:00	1	Precipitación	0
49512	7	Sololá	701	Sololá	3	Barraneche	9	Septiembre	2023-09-15T00:00:00	2024-11-06T20:00:00	8	Radiación solar	0
49513	7	Sololá	701	Sololá	3	Barraneche	9	Septiembre	2023-09-15T00:00:00	2024-11-06T21:00:00	2	Temperatura media	14.9
49514	7	Sololá	701	Sololá	3	Barraneche	9	Septiembre	2023-09-15T00:00:00	2024-11-06T21:00:00	4	Temperatura máxima	15.8
49515	7	Sololá	701	Sololá	3	Barraneche	9	Septiembre	2023-09-15T00:00:00	2024-11-06T21:00:00	3	Temperatura mínima	14.9
49516	7	Sololá	701	Sololá	3	Barraneche	9	Septiembre	2023-09-15T00:00:00	2024-11-06T21:00:00	5	Humedad	66
49517	7	Sololá	701	Sololá	3	Barraneche	9	Septiembre	2023-09-15T00:00:00	2024-11-06T21:00:00	6	Velocidad del viento	4.8
49518	7	Sololá	701	Sololá	3	Barraneche	9	Septiembre	2023-09-15T00:00:00	2024-11-06T21:00:00	7	Dirección del viento	4.83
49519	7	Sololá	701	Sololá	3	Barraneche	9	Septiembre	2023-09-15T00:00:00	2024-11-06T21:00:00	1	Precipitación	0
49520	7	Sololá	701	Sololá	3	Barraneche	9	Septiembre	2023-09-15T00:00:00	2024-11-06T21:00:00	8	Radiación solar	0
49521	7	Sololá	701	Sololá	3	Barraneche	9	Septiembre	2023-09-15T00:00:00	2024-11-06T22:00:00	2	Temperatura media	14.6
49522	7	Sololá	701	Sololá	3	Barraneche	9	Septiembre	2023-09-15T00:00:00	2024-11-06T22:00:00	4	Temperatura máxima	15.2
49523	7	Sololá	701	Sololá	3	Barraneche	9	Septiembre	2023-09-15T00:00:00	2024-11-06T22:00:00	3	Temperatura mínima	14.6
49524	7	Sololá	701	Sololá	3	Barraneche	9	Septiembre	2023-09-15T00:00:00	2024-11-06T22:00:00	5	Humedad	69
49525	7	Sololá	701	Sololá	3	Barraneche	9	Septiembre	2023-09-15T00:00:00	2024-11-06T22:00:00	6	Velocidad del viento	4.8
49526	7	Sololá	701	Sololá	3	Barraneche	9	Septiembre	2023-09-15T00:00:00	2024-11-06T22:00:00	7	Dirección del viento	4.83
49527	7	Sololá	701	Sololá	3	Barraneche	9	Septiembre	2023-09-15T00:00:00	2024-11-06T22:00:00	1	Precipitación	0
49528	7	Sololá	701	Sololá	3	Barraneche	9	Septiembre	2023-09-15T00:00:00	2024-11-06T22:00:00	8	Radiación solar	0
49529	7	Sololá	701	Sololá	3	Barraneche	9	Septiembre	2023-09-15T00:00:00	2024-11-06T23:00:00	2	Temperatura media	13.2
49530	7	Sololá	701	Sololá	3	Barraneche	9	Septiembre	2023-09-15T00:00:00	2024-11-06T23:00:00	4	Temperatura máxima	14.6
49531	7	Sololá	701	Sololá	3	Barraneche	9	Septiembre	2023-09-15T00:00:00	2024-11-06T23:00:00	3	Temperatura mínima	13.2
49532	7	Sololá	701	Sololá	3	Barraneche	9	Septiembre	2023-09-15T00:00:00	2024-11-06T23:00:00	5	Humedad	72
49533	7	Sololá	701	Sololá	3	Barraneche	9	Septiembre	2023-09-15T00:00:00	2024-11-06T23:00:00	6	Velocidad del viento	3.2
49534	7	Sololá	701	Sololá	3	Barraneche	9	Septiembre	2023-09-15T00:00:00	2024-11-06T23:00:00	7	Dirección del viento	3.22
49535	7	Sololá	701	Sololá	3	Barraneche	9	Septiembre	2023-09-15T00:00:00	2024-11-06T23:00:00	1	Precipitación	0
49536	7	Sololá	701	Sololá	3	Barraneche	9	Septiembre	2023-09-15T00:00:00	2024-11-06T23:00:00	8	Radiación solar	0
49537	7	Sololá	701	Sololá	3	Barraneche	9	Septiembre	2023-09-16T00:00:00	2024-11-06T00:00:00	2	Temperatura media	12.7
49538	7	Sololá	701	Sololá	3	Barraneche	9	Septiembre	2023-09-16T00:00:00	2024-11-06T00:00:00	4	Temperatura máxima	13.2
49539	7	Sololá	701	Sololá	3	Barraneche	9	Septiembre	2023-09-16T00:00:00	2024-11-06T00:00:00	3	Temperatura mínima	12.6
49540	7	Sololá	701	Sololá	3	Barraneche	9	Septiembre	2023-09-16T00:00:00	2024-11-06T00:00:00	5	Humedad	68
49541	7	Sololá	701	Sololá	3	Barraneche	9	Septiembre	2023-09-16T00:00:00	2024-11-06T00:00:00	6	Velocidad del viento	3.2
49542	7	Sololá	701	Sololá	3	Barraneche	9	Septiembre	2023-09-16T00:00:00	2024-11-06T00:00:00	7	Dirección del viento	3.22
49543	7	Sololá	701	Sololá	3	Barraneche	9	Septiembre	2023-09-16T00:00:00	2024-11-06T00:00:00	1	Precipitación	0
49544	7	Sololá	701	Sololá	3	Barraneche	9	Septiembre	2023-09-16T00:00:00	2024-11-06T00:00:00	8	Radiación solar	0
49545	7	Sololá	701	Sololá	3	Barraneche	9	Septiembre	2023-09-16T00:00:00	2024-11-06T01:00:00	2	Temperatura media	11.7
49546	7	Sololá	701	Sololá	3	Barraneche	9	Septiembre	2023-09-16T00:00:00	2024-11-06T01:00:00	4	Temperatura máxima	12.8
49547	7	Sololá	701	Sololá	3	Barraneche	9	Septiembre	2023-09-16T00:00:00	2024-11-06T01:00:00	3	Temperatura mínima	11.2
49548	7	Sololá	701	Sololá	3	Barraneche	9	Septiembre	2023-09-16T00:00:00	2024-11-06T01:00:00	5	Humedad	67
49549	7	Sololá	701	Sololá	3	Barraneche	9	Septiembre	2023-09-16T00:00:00	2024-11-06T01:00:00	6	Velocidad del viento	4.8
49550	7	Sololá	701	Sololá	3	Barraneche	9	Septiembre	2023-09-16T00:00:00	2024-11-06T01:00:00	7	Dirección del viento	4.83
49551	7	Sololá	701	Sololá	3	Barraneche	9	Septiembre	2023-09-16T00:00:00	2024-11-06T01:00:00	1	Precipitación	0
49552	7	Sololá	701	Sololá	3	Barraneche	9	Septiembre	2023-09-16T00:00:00	2024-11-06T01:00:00	8	Radiación solar	0
49553	7	Sololá	701	Sololá	3	Barraneche	9	Septiembre	2023-09-16T00:00:00	2024-11-06T02:00:00	2	Temperatura media	11.7
49554	7	Sololá	701	Sololá	3	Barraneche	9	Septiembre	2023-09-16T00:00:00	2024-11-06T02:00:00	4	Temperatura máxima	13.3
49555	7	Sololá	701	Sololá	3	Barraneche	9	Septiembre	2023-09-16T00:00:00	2024-11-06T02:00:00	3	Temperatura mínima	11.7
49556	7	Sololá	701	Sololá	3	Barraneche	9	Septiembre	2023-09-16T00:00:00	2024-11-06T02:00:00	5	Humedad	68
49557	7	Sololá	701	Sololá	3	Barraneche	9	Septiembre	2023-09-16T00:00:00	2024-11-06T02:00:00	6	Velocidad del viento	4.8
49558	7	Sololá	701	Sololá	3	Barraneche	9	Septiembre	2023-09-16T00:00:00	2024-11-06T02:00:00	7	Dirección del viento	4.83
49559	7	Sololá	701	Sololá	3	Barraneche	9	Septiembre	2023-09-16T00:00:00	2024-11-06T02:00:00	1	Precipitación	0
49560	7	Sololá	701	Sololá	3	Barraneche	9	Septiembre	2023-09-16T00:00:00	2024-11-06T02:00:00	8	Radiación solar	0
49561	7	Sololá	701	Sololá	3	Barraneche	9	Septiembre	2023-09-16T00:00:00	2024-11-06T03:00:00	2	Temperatura media	13.1
49562	7	Sololá	701	Sololá	3	Barraneche	9	Septiembre	2023-09-16T00:00:00	2024-11-06T03:00:00	4	Temperatura máxima	13.3
49563	7	Sololá	701	Sololá	3	Barraneche	9	Septiembre	2023-09-16T00:00:00	2024-11-06T03:00:00	3	Temperatura mínima	11.6
49564	7	Sololá	701	Sololá	3	Barraneche	9	Septiembre	2023-09-16T00:00:00	2024-11-06T03:00:00	5	Humedad	60
49565	7	Sololá	701	Sololá	3	Barraneche	9	Septiembre	2023-09-16T00:00:00	2024-11-06T03:00:00	6	Velocidad del viento	6.4
49566	7	Sololá	701	Sololá	3	Barraneche	9	Septiembre	2023-09-16T00:00:00	2024-11-06T03:00:00	7	Dirección del viento	6.44
49567	7	Sololá	701	Sololá	3	Barraneche	9	Septiembre	2023-09-16T00:00:00	2024-11-06T03:00:00	1	Precipitación	0
49568	7	Sololá	701	Sololá	3	Barraneche	9	Septiembre	2023-09-16T00:00:00	2024-11-06T03:00:00	8	Radiación solar	0
49569	7	Sololá	701	Sololá	3	Barraneche	9	Septiembre	2023-09-16T00:00:00	2024-11-06T04:00:00	2	Temperatura media	13.3
49570	7	Sololá	701	Sololá	3	Barraneche	9	Septiembre	2023-09-16T00:00:00	2024-11-06T04:00:00	4	Temperatura máxima	13.3
49571	7	Sololá	701	Sololá	3	Barraneche	9	Septiembre	2023-09-16T00:00:00	2024-11-06T04:00:00	3	Temperatura mínima	11.8
49572	7	Sololá	701	Sololá	3	Barraneche	9	Septiembre	2023-09-16T00:00:00	2024-11-06T04:00:00	5	Humedad	62
49573	7	Sololá	701	Sololá	3	Barraneche	9	Septiembre	2023-09-16T00:00:00	2024-11-06T04:00:00	6	Velocidad del viento	6.4
49574	7	Sololá	701	Sololá	3	Barraneche	9	Septiembre	2023-09-16T00:00:00	2024-11-06T04:00:00	7	Dirección del viento	6.44
49575	7	Sololá	701	Sololá	3	Barraneche	9	Septiembre	2023-09-16T00:00:00	2024-11-06T04:00:00	1	Precipitación	0
49576	7	Sololá	701	Sololá	3	Barraneche	9	Septiembre	2023-09-16T00:00:00	2024-11-06T04:00:00	8	Radiación solar	0
49577	7	Sololá	701	Sololá	3	Barraneche	9	Septiembre	2023-09-16T00:00:00	2024-11-06T05:00:00	2	Temperatura media	13.2
49578	7	Sololá	701	Sololá	3	Barraneche	9	Septiembre	2023-09-16T00:00:00	2024-11-06T05:00:00	4	Temperatura máxima	13.7
49579	7	Sololá	701	Sololá	3	Barraneche	9	Septiembre	2023-09-16T00:00:00	2024-11-06T05:00:00	3	Temperatura mínima	13.1
49580	7	Sololá	701	Sololá	3	Barraneche	9	Septiembre	2023-09-16T00:00:00	2024-11-06T05:00:00	5	Humedad	63
49581	7	Sololá	701	Sololá	3	Barraneche	9	Septiembre	2023-09-16T00:00:00	2024-11-06T05:00:00	6	Velocidad del viento	6.4
49582	7	Sololá	701	Sololá	3	Barraneche	9	Septiembre	2023-09-16T00:00:00	2024-11-06T05:00:00	7	Dirección del viento	6.44
49583	7	Sololá	701	Sololá	3	Barraneche	9	Septiembre	2023-09-16T00:00:00	2024-11-06T05:00:00	1	Precipitación	0
49584	7	Sololá	701	Sololá	3	Barraneche	9	Septiembre	2023-09-16T00:00:00	2024-11-06T05:00:00	8	Radiación solar	0
49585	7	Sololá	701	Sololá	3	Barraneche	9	Septiembre	2023-09-16T00:00:00	2024-11-06T06:00:00	2	Temperatura media	12.8
49586	7	Sololá	701	Sololá	3	Barraneche	9	Septiembre	2023-09-16T00:00:00	2024-11-06T06:00:00	4	Temperatura máxima	13.2
49587	7	Sololá	701	Sololá	3	Barraneche	9	Septiembre	2023-09-16T00:00:00	2024-11-06T06:00:00	3	Temperatura mínima	12.6
49588	7	Sololá	701	Sololá	3	Barraneche	9	Septiembre	2023-09-16T00:00:00	2024-11-06T06:00:00	5	Humedad	64
49589	7	Sololá	701	Sololá	3	Barraneche	9	Septiembre	2023-09-16T00:00:00	2024-11-06T06:00:00	6	Velocidad del viento	4.8
49590	7	Sololá	701	Sololá	3	Barraneche	9	Septiembre	2023-09-16T00:00:00	2024-11-06T06:00:00	7	Dirección del viento	4.83
49591	7	Sololá	701	Sololá	3	Barraneche	9	Septiembre	2023-09-16T00:00:00	2024-11-06T06:00:00	1	Precipitación	0
49592	7	Sololá	701	Sololá	3	Barraneche	9	Septiembre	2023-09-16T00:00:00	2024-11-06T06:00:00	8	Radiación solar	1
49593	7	Sololá	701	Sololá	3	Barraneche	9	Septiembre	2023-09-16T00:00:00	2024-11-06T07:00:00	2	Temperatura media	14.6
49594	7	Sololá	701	Sololá	3	Barraneche	9	Septiembre	2023-09-16T00:00:00	2024-11-06T07:00:00	4	Temperatura máxima	14.6
49595	7	Sololá	701	Sololá	3	Barraneche	9	Septiembre	2023-09-16T00:00:00	2024-11-06T07:00:00	3	Temperatura mínima	12.8
49596	7	Sololá	701	Sololá	3	Barraneche	9	Septiembre	2023-09-16T00:00:00	2024-11-06T07:00:00	5	Humedad	60
49597	7	Sololá	701	Sololá	3	Barraneche	9	Septiembre	2023-09-16T00:00:00	2024-11-06T07:00:00	6	Velocidad del viento	6.4
49598	7	Sololá	701	Sololá	3	Barraneche	9	Septiembre	2023-09-16T00:00:00	2024-11-06T07:00:00	7	Dirección del viento	6.44
49599	7	Sololá	701	Sololá	3	Barraneche	9	Septiembre	2023-09-16T00:00:00	2024-11-06T07:00:00	1	Precipitación	0
49600	7	Sololá	701	Sololá	3	Barraneche	9	Septiembre	2023-09-16T00:00:00	2024-11-06T07:00:00	8	Radiación solar	62
49601	7	Sololá	701	Sololá	3	Barraneche	9	Septiembre	2023-09-16T00:00:00	2024-11-06T08:00:00	2	Temperatura media	15.9
49602	7	Sololá	701	Sololá	3	Barraneche	9	Septiembre	2023-09-16T00:00:00	2024-11-06T08:00:00	4	Temperatura máxima	16.1
49603	7	Sololá	701	Sololá	3	Barraneche	9	Septiembre	2023-09-16T00:00:00	2024-11-06T08:00:00	3	Temperatura mínima	14.6
49604	7	Sololá	701	Sololá	3	Barraneche	9	Septiembre	2023-09-16T00:00:00	2024-11-06T08:00:00	5	Humedad	58
49605	7	Sololá	701	Sololá	3	Barraneche	9	Septiembre	2023-09-16T00:00:00	2024-11-06T08:00:00	6	Velocidad del viento	9.7
49606	7	Sololá	701	Sololá	3	Barraneche	9	Septiembre	2023-09-16T00:00:00	2024-11-06T08:00:00	7	Dirección del viento	9.66
49607	7	Sololá	701	Sololá	3	Barraneche	9	Septiembre	2023-09-16T00:00:00	2024-11-06T08:00:00	1	Precipitación	0
49608	7	Sololá	701	Sololá	3	Barraneche	9	Septiembre	2023-09-16T00:00:00	2024-11-06T08:00:00	8	Radiación solar	352
49609	7	Sololá	701	Sololá	3	Barraneche	9	Septiembre	2023-09-16T00:00:00	2024-11-06T09:00:00	2	Temperatura media	17.9
49610	7	Sololá	701	Sololá	3	Barraneche	9	Septiembre	2023-09-16T00:00:00	2024-11-06T09:00:00	4	Temperatura máxima	17.9
49611	7	Sololá	701	Sololá	3	Barraneche	9	Septiembre	2023-09-16T00:00:00	2024-11-06T09:00:00	3	Temperatura mínima	15.8
49612	7	Sololá	701	Sololá	3	Barraneche	9	Septiembre	2023-09-16T00:00:00	2024-11-06T09:00:00	5	Humedad	52
49613	7	Sololá	701	Sololá	3	Barraneche	9	Septiembre	2023-09-16T00:00:00	2024-11-06T09:00:00	6	Velocidad del viento	11.3
49614	7	Sololá	701	Sololá	3	Barraneche	9	Septiembre	2023-09-16T00:00:00	2024-11-06T09:00:00	7	Dirección del viento	11.27
49615	7	Sololá	701	Sololá	3	Barraneche	9	Septiembre	2023-09-16T00:00:00	2024-11-06T09:00:00	1	Precipitación	0
49616	7	Sololá	701	Sololá	3	Barraneche	9	Septiembre	2023-09-16T00:00:00	2024-11-06T09:00:00	8	Radiación solar	601
49617	7	Sololá	701	Sololá	3	Barraneche	9	Septiembre	2023-09-16T00:00:00	2024-11-06T10:00:00	2	Temperatura media	20.2
49618	7	Sololá	701	Sololá	3	Barraneche	9	Septiembre	2023-09-16T00:00:00	2024-11-06T10:00:00	4	Temperatura máxima	20.2
49619	7	Sololá	701	Sololá	3	Barraneche	9	Septiembre	2023-09-16T00:00:00	2024-11-06T10:00:00	3	Temperatura mínima	17.9
49620	7	Sololá	701	Sololá	3	Barraneche	9	Septiembre	2023-09-16T00:00:00	2024-11-06T10:00:00	5	Humedad	45
49621	7	Sololá	701	Sololá	3	Barraneche	9	Septiembre	2023-09-16T00:00:00	2024-11-06T10:00:00	6	Velocidad del viento	6.4
49622	7	Sololá	701	Sololá	3	Barraneche	9	Septiembre	2023-09-16T00:00:00	2024-11-06T10:00:00	7	Dirección del viento	6.44
49623	7	Sololá	701	Sololá	3	Barraneche	9	Septiembre	2023-09-16T00:00:00	2024-11-06T10:00:00	1	Precipitación	0
49624	7	Sololá	701	Sololá	3	Barraneche	9	Septiembre	2023-09-16T00:00:00	2024-11-06T10:00:00	8	Radiación solar	801
49625	7	Sololá	701	Sololá	3	Barraneche	9	Septiembre	2023-09-16T00:00:00	2024-11-06T11:00:00	2	Temperatura media	19.8
49626	7	Sololá	701	Sololá	3	Barraneche	9	Septiembre	2023-09-16T00:00:00	2024-11-06T11:00:00	4	Temperatura máxima	20.5
49627	7	Sololá	701	Sololá	3	Barraneche	9	Septiembre	2023-09-16T00:00:00	2024-11-06T11:00:00	3	Temperatura mínima	19.7
49628	7	Sololá	701	Sololá	3	Barraneche	9	Septiembre	2023-09-16T00:00:00	2024-11-06T11:00:00	5	Humedad	49
49629	7	Sololá	701	Sololá	3	Barraneche	9	Septiembre	2023-09-16T00:00:00	2024-11-06T11:00:00	6	Velocidad del viento	12.9
49630	7	Sololá	701	Sololá	3	Barraneche	9	Septiembre	2023-09-16T00:00:00	2024-11-06T11:00:00	7	Dirección del viento	12.87
49631	7	Sololá	701	Sololá	3	Barraneche	9	Septiembre	2023-09-16T00:00:00	2024-11-06T11:00:00	1	Precipitación	0
49632	7	Sololá	701	Sololá	3	Barraneche	9	Septiembre	2023-09-16T00:00:00	2024-11-06T11:00:00	8	Radiación solar	946
49633	7	Sololá	701	Sololá	3	Barraneche	9	Septiembre	2023-09-16T00:00:00	2024-11-06T12:00:00	2	Temperatura media	19.6
49634	7	Sololá	701	Sololá	3	Barraneche	9	Septiembre	2023-09-16T00:00:00	2024-11-06T12:00:00	4	Temperatura máxima	20.1
49635	7	Sololá	701	Sololá	3	Barraneche	9	Septiembre	2023-09-16T00:00:00	2024-11-06T12:00:00	3	Temperatura mínima	19.5
49636	7	Sololá	701	Sololá	3	Barraneche	9	Septiembre	2023-09-16T00:00:00	2024-11-06T12:00:00	5	Humedad	50
49637	7	Sololá	701	Sololá	3	Barraneche	9	Septiembre	2023-09-16T00:00:00	2024-11-06T12:00:00	6	Velocidad del viento	17.7
49638	7	Sololá	701	Sololá	3	Barraneche	9	Septiembre	2023-09-16T00:00:00	2024-11-06T12:00:00	7	Dirección del viento	17.7
49639	7	Sololá	701	Sololá	3	Barraneche	9	Septiembre	2023-09-16T00:00:00	2024-11-06T12:00:00	1	Precipitación	0
49640	7	Sololá	701	Sololá	3	Barraneche	9	Septiembre	2023-09-16T00:00:00	2024-11-06T12:00:00	8	Radiación solar	1033
49641	7	Sololá	701	Sololá	3	Barraneche	9	Septiembre	2023-09-16T00:00:00	2024-11-06T13:00:00	2	Temperatura media	19.7
49642	7	Sololá	701	Sololá	3	Barraneche	9	Septiembre	2023-09-16T00:00:00	2024-11-06T13:00:00	4	Temperatura máxima	19.8
49643	7	Sololá	701	Sololá	3	Barraneche	9	Septiembre	2023-09-16T00:00:00	2024-11-06T13:00:00	3	Temperatura mínima	19.3
49644	7	Sololá	701	Sololá	3	Barraneche	9	Septiembre	2023-09-16T00:00:00	2024-11-06T13:00:00	5	Humedad	52
49645	7	Sololá	701	Sololá	3	Barraneche	9	Septiembre	2023-09-16T00:00:00	2024-11-06T13:00:00	6	Velocidad del viento	17.7
49646	7	Sololá	701	Sololá	3	Barraneche	9	Septiembre	2023-09-16T00:00:00	2024-11-06T13:00:00	7	Dirección del viento	17.7
49647	7	Sololá	701	Sololá	3	Barraneche	9	Septiembre	2023-09-16T00:00:00	2024-11-06T13:00:00	1	Precipitación	0
49648	7	Sololá	701	Sololá	3	Barraneche	9	Septiembre	2023-09-16T00:00:00	2024-11-06T13:00:00	8	Radiación solar	1027
49649	7	Sololá	701	Sololá	3	Barraneche	9	Septiembre	2023-09-16T00:00:00	2024-11-06T14:00:00	2	Temperatura media	20.7
49650	7	Sololá	701	Sololá	3	Barraneche	9	Septiembre	2023-09-16T00:00:00	2024-11-06T14:00:00	4	Temperatura máxima	20.7
49651	7	Sololá	701	Sololá	3	Barraneche	9	Septiembre	2023-09-16T00:00:00	2024-11-06T14:00:00	3	Temperatura mínima	19.7
49652	7	Sololá	701	Sololá	3	Barraneche	9	Septiembre	2023-09-16T00:00:00	2024-11-06T14:00:00	5	Humedad	50
49653	7	Sololá	701	Sololá	3	Barraneche	9	Septiembre	2023-09-16T00:00:00	2024-11-06T14:00:00	6	Velocidad del viento	11.3
49654	7	Sololá	701	Sololá	3	Barraneche	9	Septiembre	2023-09-16T00:00:00	2024-11-06T14:00:00	7	Dirección del viento	11.27
49655	7	Sololá	701	Sololá	3	Barraneche	9	Septiembre	2023-09-16T00:00:00	2024-11-06T14:00:00	1	Precipitación	0
49656	7	Sololá	701	Sololá	3	Barraneche	9	Septiembre	2023-09-16T00:00:00	2024-11-06T14:00:00	8	Radiación solar	963
49657	7	Sololá	701	Sololá	3	Barraneche	9	Septiembre	2023-09-16T00:00:00	2024-11-06T15:00:00	2	Temperatura media	20.4
49658	7	Sololá	701	Sololá	3	Barraneche	9	Septiembre	2023-09-16T00:00:00	2024-11-06T15:00:00	4	Temperatura máxima	20.7
49659	7	Sololá	701	Sololá	3	Barraneche	9	Septiembre	2023-09-16T00:00:00	2024-11-06T15:00:00	3	Temperatura mínima	19.8
49660	7	Sololá	701	Sololá	3	Barraneche	9	Septiembre	2023-09-16T00:00:00	2024-11-06T15:00:00	5	Humedad	48
49661	7	Sololá	701	Sololá	3	Barraneche	9	Septiembre	2023-09-16T00:00:00	2024-11-06T15:00:00	6	Velocidad del viento	12.9
49662	7	Sololá	701	Sololá	3	Barraneche	9	Septiembre	2023-09-16T00:00:00	2024-11-06T15:00:00	7	Dirección del viento	12.87
49663	7	Sololá	701	Sololá	3	Barraneche	9	Septiembre	2023-09-16T00:00:00	2024-11-06T15:00:00	1	Precipitación	0
49664	7	Sololá	701	Sololá	3	Barraneche	9	Septiembre	2023-09-16T00:00:00	2024-11-06T15:00:00	8	Radiación solar	758
49665	7	Sololá	701	Sololá	3	Barraneche	9	Septiembre	2023-09-16T00:00:00	2024-11-06T16:00:00	2	Temperatura media	19.8
49666	7	Sololá	701	Sololá	3	Barraneche	9	Septiembre	2023-09-16T00:00:00	2024-11-06T16:00:00	4	Temperatura máxima	20.9
49667	7	Sololá	701	Sololá	3	Barraneche	9	Septiembre	2023-09-16T00:00:00	2024-11-06T16:00:00	3	Temperatura mínima	19.7
49668	7	Sololá	701	Sololá	3	Barraneche	9	Septiembre	2023-09-16T00:00:00	2024-11-06T16:00:00	5	Humedad	49
49669	7	Sololá	701	Sololá	3	Barraneche	9	Septiembre	2023-09-16T00:00:00	2024-11-06T16:00:00	6	Velocidad del viento	11.3
49670	7	Sololá	701	Sololá	3	Barraneche	9	Septiembre	2023-09-16T00:00:00	2024-11-06T16:00:00	7	Dirección del viento	11.27
49671	7	Sololá	701	Sololá	3	Barraneche	9	Septiembre	2023-09-16T00:00:00	2024-11-06T16:00:00	1	Precipitación	0
49672	7	Sololá	701	Sololá	3	Barraneche	9	Septiembre	2023-09-16T00:00:00	2024-11-06T16:00:00	8	Radiación solar	523
49673	7	Sololá	701	Sololá	3	Barraneche	9	Septiembre	2023-09-16T00:00:00	2024-11-06T17:00:00	2	Temperatura media	19.2
49674	7	Sololá	701	Sololá	3	Barraneche	9	Septiembre	2023-09-16T00:00:00	2024-11-06T17:00:00	4	Temperatura máxima	20.2
49675	7	Sololá	701	Sololá	3	Barraneche	9	Septiembre	2023-09-16T00:00:00	2024-11-06T17:00:00	3	Temperatura mínima	19.2
49676	7	Sololá	701	Sololá	3	Barraneche	9	Septiembre	2023-09-16T00:00:00	2024-11-06T17:00:00	5	Humedad	54
49677	7	Sololá	701	Sololá	3	Barraneche	9	Septiembre	2023-09-16T00:00:00	2024-11-06T17:00:00	6	Velocidad del viento	9.7
49678	7	Sololá	701	Sololá	3	Barraneche	9	Septiembre	2023-09-16T00:00:00	2024-11-06T17:00:00	7	Dirección del viento	9.66
49679	7	Sololá	701	Sololá	3	Barraneche	9	Septiembre	2023-09-16T00:00:00	2024-11-06T17:00:00	1	Precipitación	0
49680	7	Sololá	701	Sololá	3	Barraneche	9	Septiembre	2023-09-16T00:00:00	2024-11-06T17:00:00	8	Radiación solar	285
49681	7	Sololá	701	Sololá	3	Barraneche	9	Septiembre	2023-09-16T00:00:00	2024-11-06T18:00:00	2	Temperatura media	17.5
49682	7	Sololá	701	Sololá	3	Barraneche	9	Septiembre	2023-09-16T00:00:00	2024-11-06T18:00:00	4	Temperatura máxima	19.2
49683	7	Sololá	701	Sololá	3	Barraneche	9	Septiembre	2023-09-16T00:00:00	2024-11-06T18:00:00	3	Temperatura mínima	17.5
49684	7	Sololá	701	Sololá	3	Barraneche	9	Septiembre	2023-09-16T00:00:00	2024-11-06T18:00:00	5	Humedad	61
49685	7	Sololá	701	Sololá	3	Barraneche	9	Septiembre	2023-09-16T00:00:00	2024-11-06T18:00:00	6	Velocidad del viento	8
49686	7	Sololá	701	Sololá	3	Barraneche	9	Septiembre	2023-09-16T00:00:00	2024-11-06T18:00:00	7	Dirección del viento	8.05
49687	7	Sololá	701	Sololá	3	Barraneche	9	Septiembre	2023-09-16T00:00:00	2024-11-06T18:00:00	1	Precipitación	0
49688	7	Sololá	701	Sololá	3	Barraneche	9	Septiembre	2023-09-16T00:00:00	2024-11-06T18:00:00	8	Radiación solar	61
49689	7	Sololá	701	Sololá	3	Barraneche	9	Septiembre	2023-09-16T00:00:00	2024-11-06T19:00:00	2	Temperatura media	16.3
49690	7	Sololá	701	Sololá	3	Barraneche	9	Septiembre	2023-09-16T00:00:00	2024-11-06T19:00:00	4	Temperatura máxima	17.5
49691	7	Sololá	701	Sololá	3	Barraneche	9	Septiembre	2023-09-16T00:00:00	2024-11-06T19:00:00	3	Temperatura mínima	16.3
49692	7	Sololá	701	Sololá	3	Barraneche	9	Septiembre	2023-09-16T00:00:00	2024-11-06T19:00:00	5	Humedad	65
49693	7	Sololá	701	Sololá	3	Barraneche	9	Septiembre	2023-09-16T00:00:00	2024-11-06T19:00:00	6	Velocidad del viento	8
49694	7	Sololá	701	Sololá	3	Barraneche	9	Septiembre	2023-09-16T00:00:00	2024-11-06T19:00:00	7	Dirección del viento	8.05
49695	7	Sololá	701	Sololá	3	Barraneche	9	Septiembre	2023-09-16T00:00:00	2024-11-06T19:00:00	1	Precipitación	0
49696	7	Sololá	701	Sololá	3	Barraneche	9	Septiembre	2023-09-16T00:00:00	2024-11-06T19:00:00	8	Radiación solar	0
49697	7	Sololá	701	Sololá	3	Barraneche	9	Septiembre	2023-09-16T00:00:00	2024-11-06T20:00:00	2	Temperatura media	16.1
49698	7	Sololá	701	Sololá	3	Barraneche	9	Septiembre	2023-09-16T00:00:00	2024-11-06T20:00:00	4	Temperatura máxima	16.3
49699	7	Sololá	701	Sololá	3	Barraneche	9	Septiembre	2023-09-16T00:00:00	2024-11-06T20:00:00	3	Temperatura mínima	16.1
49700	7	Sololá	701	Sololá	3	Barraneche	9	Septiembre	2023-09-16T00:00:00	2024-11-06T20:00:00	5	Humedad	67
49701	7	Sololá	701	Sololá	3	Barraneche	9	Septiembre	2023-09-16T00:00:00	2024-11-06T20:00:00	6	Velocidad del viento	8
49702	7	Sololá	701	Sololá	3	Barraneche	9	Septiembre	2023-09-16T00:00:00	2024-11-06T20:00:00	7	Dirección del viento	8.05
49703	7	Sololá	701	Sololá	3	Barraneche	9	Septiembre	2023-09-16T00:00:00	2024-11-06T20:00:00	1	Precipitación	0
49704	7	Sololá	701	Sololá	3	Barraneche	9	Septiembre	2023-09-16T00:00:00	2024-11-06T20:00:00	8	Radiación solar	0
49705	7	Sololá	701	Sololá	3	Barraneche	9	Septiembre	2023-09-16T00:00:00	2024-11-06T21:00:00	2	Temperatura media	15.2
49706	7	Sololá	701	Sololá	3	Barraneche	9	Septiembre	2023-09-16T00:00:00	2024-11-06T21:00:00	4	Temperatura máxima	16.1
49707	7	Sololá	701	Sololá	3	Barraneche	9	Septiembre	2023-09-16T00:00:00	2024-11-06T21:00:00	3	Temperatura mínima	15.2
49708	7	Sololá	701	Sololá	3	Barraneche	9	Septiembre	2023-09-16T00:00:00	2024-11-06T21:00:00	5	Humedad	69
49709	7	Sololá	701	Sololá	3	Barraneche	9	Septiembre	2023-09-16T00:00:00	2024-11-06T21:00:00	6	Velocidad del viento	9.7
49710	7	Sololá	701	Sololá	3	Barraneche	9	Septiembre	2023-09-16T00:00:00	2024-11-06T21:00:00	7	Dirección del viento	9.66
49711	7	Sololá	701	Sololá	3	Barraneche	9	Septiembre	2023-09-16T00:00:00	2024-11-06T21:00:00	1	Precipitación	0
49712	7	Sololá	701	Sololá	3	Barraneche	9	Septiembre	2023-09-16T00:00:00	2024-11-06T21:00:00	8	Radiación solar	0
49713	7	Sololá	701	Sololá	3	Barraneche	9	Septiembre	2023-09-16T00:00:00	2024-11-06T22:00:00	2	Temperatura media	14.9
49714	7	Sololá	701	Sololá	3	Barraneche	9	Septiembre	2023-09-16T00:00:00	2024-11-06T22:00:00	4	Temperatura máxima	15.4
49715	7	Sololá	701	Sololá	3	Barraneche	9	Septiembre	2023-09-16T00:00:00	2024-11-06T22:00:00	3	Temperatura mínima	14.9
49716	7	Sololá	701	Sololá	3	Barraneche	9	Septiembre	2023-09-16T00:00:00	2024-11-06T22:00:00	5	Humedad	65
49717	7	Sololá	701	Sololá	3	Barraneche	9	Septiembre	2023-09-16T00:00:00	2024-11-06T22:00:00	6	Velocidad del viento	6.4
49718	7	Sololá	701	Sololá	3	Barraneche	9	Septiembre	2023-09-16T00:00:00	2024-11-06T22:00:00	7	Dirección del viento	6.44
49719	7	Sololá	701	Sololá	3	Barraneche	9	Septiembre	2023-09-16T00:00:00	2024-11-06T22:00:00	1	Precipitación	0
49720	7	Sololá	701	Sololá	3	Barraneche	9	Septiembre	2023-09-16T00:00:00	2024-11-06T22:00:00	8	Radiación solar	0
49721	7	Sololá	701	Sololá	3	Barraneche	9	Septiembre	2023-09-16T00:00:00	2024-11-06T23:00:00	2	Temperatura media	14.8
49722	7	Sololá	701	Sololá	3	Barraneche	9	Septiembre	2023-09-16T00:00:00	2024-11-06T23:00:00	4	Temperatura máxima	14.9
49723	7	Sololá	701	Sololá	3	Barraneche	9	Septiembre	2023-09-16T00:00:00	2024-11-06T23:00:00	3	Temperatura mínima	13.9
49724	7	Sololá	701	Sololá	3	Barraneche	9	Septiembre	2023-09-16T00:00:00	2024-11-06T23:00:00	5	Humedad	65
49725	7	Sololá	701	Sololá	3	Barraneche	9	Septiembre	2023-09-16T00:00:00	2024-11-06T23:00:00	6	Velocidad del viento	6.4
49726	7	Sololá	701	Sololá	3	Barraneche	9	Septiembre	2023-09-16T00:00:00	2024-11-06T23:00:00	7	Dirección del viento	6.44
49727	7	Sololá	701	Sololá	3	Barraneche	9	Septiembre	2023-09-16T00:00:00	2024-11-06T23:00:00	1	Precipitación	0
49728	7	Sololá	701	Sololá	3	Barraneche	9	Septiembre	2023-09-16T00:00:00	2024-11-06T23:00:00	8	Radiación solar	0
49729	7	Sololá	701	Sololá	3	Barraneche	9	Septiembre	2023-09-17T00:00:00	2024-11-06T00:00:00	2	Temperatura media	14.3
49730	7	Sololá	701	Sololá	3	Barraneche	9	Septiembre	2023-09-17T00:00:00	2024-11-06T00:00:00	4	Temperatura máxima	14.8
49731	7	Sololá	701	Sololá	3	Barraneche	9	Septiembre	2023-09-17T00:00:00	2024-11-06T00:00:00	3	Temperatura mínima	14.2
49732	7	Sololá	701	Sololá	3	Barraneche	9	Septiembre	2023-09-17T00:00:00	2024-11-06T00:00:00	5	Humedad	65
49733	7	Sololá	701	Sololá	3	Barraneche	9	Septiembre	2023-09-17T00:00:00	2024-11-06T00:00:00	6	Velocidad del viento	4.8
49734	7	Sololá	701	Sololá	3	Barraneche	9	Septiembre	2023-09-17T00:00:00	2024-11-06T00:00:00	7	Dirección del viento	4.83
49735	7	Sololá	701	Sololá	3	Barraneche	9	Septiembre	2023-09-17T00:00:00	2024-11-06T00:00:00	1	Precipitación	0
49736	7	Sololá	701	Sololá	3	Barraneche	9	Septiembre	2023-09-17T00:00:00	2024-11-06T00:00:00	8	Radiación solar	0
49737	7	Sololá	701	Sololá	3	Barraneche	9	Septiembre	2023-09-17T00:00:00	2024-11-06T01:00:00	2	Temperatura media	11.4
49738	7	Sololá	701	Sololá	3	Barraneche	9	Septiembre	2023-09-17T00:00:00	2024-11-06T01:00:00	4	Temperatura máxima	14.3
49739	7	Sololá	701	Sololá	3	Barraneche	9	Septiembre	2023-09-17T00:00:00	2024-11-06T01:00:00	3	Temperatura mínima	11.4
49740	7	Sololá	701	Sololá	3	Barraneche	9	Septiembre	2023-09-17T00:00:00	2024-11-06T01:00:00	5	Humedad	71
49741	7	Sololá	701	Sololá	3	Barraneche	9	Septiembre	2023-09-17T00:00:00	2024-11-06T01:00:00	6	Velocidad del viento	3.2
49742	7	Sololá	701	Sololá	3	Barraneche	9	Septiembre	2023-09-17T00:00:00	2024-11-06T01:00:00	7	Dirección del viento	3.22
49743	7	Sololá	701	Sololá	3	Barraneche	9	Septiembre	2023-09-17T00:00:00	2024-11-06T01:00:00	1	Precipitación	0
49744	7	Sololá	701	Sololá	3	Barraneche	9	Septiembre	2023-09-17T00:00:00	2024-11-06T01:00:00	8	Radiación solar	0
49745	7	Sololá	701	Sololá	3	Barraneche	9	Septiembre	2023-09-17T00:00:00	2024-11-06T02:00:00	2	Temperatura media	10.5
49746	7	Sololá	701	Sololá	3	Barraneche	9	Septiembre	2023-09-17T00:00:00	2024-11-06T02:00:00	4	Temperatura máxima	11.4
49747	7	Sololá	701	Sololá	3	Barraneche	9	Septiembre	2023-09-17T00:00:00	2024-11-06T02:00:00	3	Temperatura mínima	10.5
49748	7	Sololá	701	Sololá	3	Barraneche	9	Septiembre	2023-09-17T00:00:00	2024-11-06T02:00:00	5	Humedad	67
49749	7	Sololá	701	Sololá	3	Barraneche	9	Septiembre	2023-09-17T00:00:00	2024-11-06T02:00:00	6	Velocidad del viento	6.4
49750	7	Sololá	701	Sololá	3	Barraneche	9	Septiembre	2023-09-17T00:00:00	2024-11-06T02:00:00	7	Dirección del viento	6.44
49751	7	Sololá	701	Sololá	3	Barraneche	9	Septiembre	2023-09-17T00:00:00	2024-11-06T02:00:00	1	Precipitación	0
49752	7	Sololá	701	Sololá	3	Barraneche	9	Septiembre	2023-09-17T00:00:00	2024-11-06T02:00:00	8	Radiación solar	0
49753	7	Sololá	701	Sololá	3	Barraneche	9	Septiembre	2023-09-17T00:00:00	2024-11-06T03:00:00	2	Temperatura media	10.7
49754	7	Sololá	701	Sololá	3	Barraneche	9	Septiembre	2023-09-17T00:00:00	2024-11-06T03:00:00	4	Temperatura máxima	10.9
49755	7	Sololá	701	Sololá	3	Barraneche	9	Septiembre	2023-09-17T00:00:00	2024-11-06T03:00:00	3	Temperatura mínima	9.9
49756	7	Sololá	701	Sololá	3	Barraneche	9	Septiembre	2023-09-17T00:00:00	2024-11-06T03:00:00	5	Humedad	65
49757	7	Sololá	701	Sololá	3	Barraneche	9	Septiembre	2023-09-17T00:00:00	2024-11-06T03:00:00	6	Velocidad del viento	6.4
49758	7	Sololá	701	Sololá	3	Barraneche	9	Septiembre	2023-09-17T00:00:00	2024-11-06T03:00:00	7	Dirección del viento	6.44
49759	7	Sololá	701	Sololá	3	Barraneche	9	Septiembre	2023-09-17T00:00:00	2024-11-06T03:00:00	1	Precipitación	0
49760	7	Sololá	701	Sololá	3	Barraneche	9	Septiembre	2023-09-17T00:00:00	2024-11-06T03:00:00	8	Radiación solar	0
49761	7	Sololá	701	Sololá	3	Barraneche	9	Septiembre	2023-09-17T00:00:00	2024-11-06T04:00:00	2	Temperatura media	10.9
49762	7	Sololá	701	Sololá	3	Barraneche	9	Septiembre	2023-09-17T00:00:00	2024-11-06T04:00:00	4	Temperatura máxima	11.4
49763	7	Sololá	701	Sololá	3	Barraneche	9	Septiembre	2023-09-17T00:00:00	2024-11-06T04:00:00	3	Temperatura mínima	10.3
49764	7	Sololá	701	Sololá	3	Barraneche	9	Septiembre	2023-09-17T00:00:00	2024-11-06T04:00:00	5	Humedad	63
49765	7	Sololá	701	Sololá	3	Barraneche	9	Septiembre	2023-09-17T00:00:00	2024-11-06T04:00:00	6	Velocidad del viento	4.8
49766	7	Sololá	701	Sololá	3	Barraneche	9	Septiembre	2023-09-17T00:00:00	2024-11-06T04:00:00	7	Dirección del viento	4.83
49767	7	Sololá	701	Sololá	3	Barraneche	9	Septiembre	2023-09-17T00:00:00	2024-11-06T04:00:00	1	Precipitación	0
49768	7	Sololá	701	Sololá	3	Barraneche	9	Septiembre	2023-09-17T00:00:00	2024-11-06T04:00:00	8	Radiación solar	0
49769	7	Sololá	701	Sololá	3	Barraneche	9	Septiembre	2023-09-17T00:00:00	2024-11-06T05:00:00	2	Temperatura media	10
49770	7	Sololá	701	Sololá	3	Barraneche	9	Septiembre	2023-09-17T00:00:00	2024-11-06T05:00:00	4	Temperatura máxima	11.1
49771	7	Sololá	701	Sololá	3	Barraneche	9	Septiembre	2023-09-17T00:00:00	2024-11-06T05:00:00	3	Temperatura mínima	9.8
49772	7	Sololá	701	Sololá	3	Barraneche	9	Septiembre	2023-09-17T00:00:00	2024-11-06T05:00:00	5	Humedad	64
49773	7	Sololá	701	Sololá	3	Barraneche	9	Septiembre	2023-09-17T00:00:00	2024-11-06T05:00:00	6	Velocidad del viento	6.4
49774	7	Sololá	701	Sololá	3	Barraneche	9	Septiembre	2023-09-17T00:00:00	2024-11-06T05:00:00	7	Dirección del viento	6.44
49775	7	Sololá	701	Sololá	3	Barraneche	9	Septiembre	2023-09-17T00:00:00	2024-11-06T05:00:00	1	Precipitación	0
49776	7	Sololá	701	Sololá	3	Barraneche	9	Septiembre	2023-09-17T00:00:00	2024-11-06T05:00:00	8	Radiación solar	0
49777	7	Sololá	701	Sololá	3	Barraneche	9	Septiembre	2023-09-17T00:00:00	2024-11-06T06:00:00	2	Temperatura media	10.9
49778	7	Sololá	701	Sololá	3	Barraneche	9	Septiembre	2023-09-17T00:00:00	2024-11-06T06:00:00	4	Temperatura máxima	10.9
49779	7	Sololá	701	Sololá	3	Barraneche	9	Septiembre	2023-09-17T00:00:00	2024-11-06T06:00:00	3	Temperatura mínima	10.1
49780	7	Sololá	701	Sololá	3	Barraneche	9	Septiembre	2023-09-17T00:00:00	2024-11-06T06:00:00	5	Humedad	59
49781	7	Sololá	701	Sololá	3	Barraneche	9	Septiembre	2023-09-17T00:00:00	2024-11-06T06:00:00	6	Velocidad del viento	6.4
49782	7	Sololá	701	Sololá	3	Barraneche	9	Septiembre	2023-09-17T00:00:00	2024-11-06T06:00:00	7	Dirección del viento	6.44
49783	7	Sololá	701	Sololá	3	Barraneche	9	Septiembre	2023-09-17T00:00:00	2024-11-06T06:00:00	1	Precipitación	0
49784	7	Sololá	701	Sololá	3	Barraneche	9	Septiembre	2023-09-17T00:00:00	2024-11-06T06:00:00	8	Radiación solar	1
49785	7	Sololá	701	Sololá	3	Barraneche	9	Septiembre	2023-09-17T00:00:00	2024-11-06T07:00:00	2	Temperatura media	14.1
49786	7	Sololá	701	Sololá	3	Barraneche	9	Septiembre	2023-09-17T00:00:00	2024-11-06T07:00:00	4	Temperatura máxima	14.1
49787	7	Sololá	701	Sololá	3	Barraneche	9	Septiembre	2023-09-17T00:00:00	2024-11-06T07:00:00	3	Temperatura mínima	11
49788	7	Sololá	701	Sololá	3	Barraneche	9	Septiembre	2023-09-17T00:00:00	2024-11-06T07:00:00	5	Humedad	60
49789	7	Sololá	701	Sololá	3	Barraneche	9	Septiembre	2023-09-17T00:00:00	2024-11-06T07:00:00	6	Velocidad del viento	11.3
49790	7	Sololá	701	Sololá	3	Barraneche	9	Septiembre	2023-09-17T00:00:00	2024-11-06T07:00:00	7	Dirección del viento	11.27
49791	7	Sololá	701	Sololá	3	Barraneche	9	Septiembre	2023-09-17T00:00:00	2024-11-06T07:00:00	1	Precipitación	0
49792	7	Sololá	701	Sololá	3	Barraneche	9	Septiembre	2023-09-17T00:00:00	2024-11-06T07:00:00	8	Radiación solar	60
49793	7	Sololá	701	Sololá	3	Barraneche	9	Septiembre	2023-09-17T00:00:00	2024-11-06T08:00:00	2	Temperatura media	16.4
49794	7	Sololá	701	Sololá	3	Barraneche	9	Septiembre	2023-09-17T00:00:00	2024-11-06T08:00:00	4	Temperatura máxima	16.4
49795	7	Sololá	701	Sololá	3	Barraneche	9	Septiembre	2023-09-17T00:00:00	2024-11-06T08:00:00	3	Temperatura mínima	14.1
49796	7	Sololá	701	Sololá	3	Barraneche	9	Septiembre	2023-09-17T00:00:00	2024-11-06T08:00:00	5	Humedad	53
49797	7	Sololá	701	Sololá	3	Barraneche	9	Septiembre	2023-09-17T00:00:00	2024-11-06T08:00:00	6	Velocidad del viento	9.7
49798	7	Sololá	701	Sololá	3	Barraneche	9	Septiembre	2023-09-17T00:00:00	2024-11-06T08:00:00	7	Dirección del viento	9.66
49799	7	Sololá	701	Sololá	3	Barraneche	9	Septiembre	2023-09-17T00:00:00	2024-11-06T08:00:00	1	Precipitación	0
49800	7	Sololá	701	Sololá	3	Barraneche	9	Septiembre	2023-09-17T00:00:00	2024-11-06T08:00:00	8	Radiación solar	344
49801	7	Sololá	701	Sololá	3	Barraneche	9	Septiembre	2023-09-17T00:00:00	2024-11-06T09:00:00	2	Temperatura media	18.4
49802	7	Sololá	701	Sololá	3	Barraneche	9	Septiembre	2023-09-17T00:00:00	2024-11-06T09:00:00	4	Temperatura máxima	18.4
49803	7	Sololá	701	Sololá	3	Barraneche	9	Septiembre	2023-09-17T00:00:00	2024-11-06T09:00:00	3	Temperatura mínima	16.3
49804	7	Sololá	701	Sololá	3	Barraneche	9	Septiembre	2023-09-17T00:00:00	2024-11-06T09:00:00	5	Humedad	48
49805	7	Sololá	701	Sololá	3	Barraneche	9	Septiembre	2023-09-17T00:00:00	2024-11-06T09:00:00	6	Velocidad del viento	4.8
49806	7	Sololá	701	Sololá	3	Barraneche	9	Septiembre	2023-09-17T00:00:00	2024-11-06T09:00:00	7	Dirección del viento	4.83
49807	7	Sololá	701	Sololá	3	Barraneche	9	Septiembre	2023-09-17T00:00:00	2024-11-06T09:00:00	1	Precipitación	0
49808	7	Sololá	701	Sololá	3	Barraneche	9	Septiembre	2023-09-17T00:00:00	2024-11-06T09:00:00	8	Radiación solar	595
49809	7	Sololá	701	Sololá	3	Barraneche	9	Septiembre	2023-09-17T00:00:00	2024-11-06T10:00:00	2	Temperatura media	18.6
49810	7	Sololá	701	Sololá	3	Barraneche	9	Septiembre	2023-09-17T00:00:00	2024-11-06T10:00:00	4	Temperatura máxima	18.6
49811	7	Sololá	701	Sololá	3	Barraneche	9	Septiembre	2023-09-17T00:00:00	2024-11-06T10:00:00	3	Temperatura mínima	17.9
49812	7	Sololá	701	Sololá	3	Barraneche	9	Septiembre	2023-09-17T00:00:00	2024-11-06T10:00:00	5	Humedad	44
49813	7	Sololá	701	Sololá	3	Barraneche	9	Septiembre	2023-09-17T00:00:00	2024-11-06T10:00:00	6	Velocidad del viento	14.5
49814	7	Sololá	701	Sololá	3	Barraneche	9	Septiembre	2023-09-17T00:00:00	2024-11-06T10:00:00	7	Dirección del viento	14.48
49815	7	Sololá	701	Sololá	3	Barraneche	9	Septiembre	2023-09-17T00:00:00	2024-11-06T10:00:00	1	Precipitación	0
49816	7	Sololá	701	Sololá	3	Barraneche	9	Septiembre	2023-09-17T00:00:00	2024-11-06T10:00:00	8	Radiación solar	803
49817	7	Sololá	701	Sololá	3	Barraneche	9	Septiembre	2023-09-17T00:00:00	2024-11-06T11:00:00	2	Temperatura media	19.2
49818	7	Sololá	701	Sololá	3	Barraneche	9	Septiembre	2023-09-17T00:00:00	2024-11-06T11:00:00	4	Temperatura máxima	19.4
49819	7	Sololá	701	Sololá	3	Barraneche	9	Septiembre	2023-09-17T00:00:00	2024-11-06T11:00:00	3	Temperatura mínima	18.6
49820	7	Sololá	701	Sololá	3	Barraneche	9	Septiembre	2023-09-17T00:00:00	2024-11-06T11:00:00	5	Humedad	45
49821	7	Sololá	701	Sololá	3	Barraneche	9	Septiembre	2023-09-17T00:00:00	2024-11-06T11:00:00	6	Velocidad del viento	9.7
49822	7	Sololá	701	Sololá	3	Barraneche	9	Septiembre	2023-09-17T00:00:00	2024-11-06T11:00:00	7	Dirección del viento	9.66
49823	7	Sololá	701	Sololá	3	Barraneche	9	Septiembre	2023-09-17T00:00:00	2024-11-06T11:00:00	1	Precipitación	0
49824	7	Sololá	701	Sololá	3	Barraneche	9	Septiembre	2023-09-17T00:00:00	2024-11-06T11:00:00	8	Radiación solar	951
49825	7	Sololá	701	Sololá	3	Barraneche	9	Septiembre	2023-09-17T00:00:00	2024-11-06T12:00:00	2	Temperatura media	19.4
49826	7	Sololá	701	Sololá	3	Barraneche	9	Septiembre	2023-09-17T00:00:00	2024-11-06T12:00:00	4	Temperatura máxima	19.8
49827	7	Sololá	701	Sololá	3	Barraneche	9	Septiembre	2023-09-17T00:00:00	2024-11-06T12:00:00	3	Temperatura mínima	19
49828	7	Sololá	701	Sololá	3	Barraneche	9	Septiembre	2023-09-17T00:00:00	2024-11-06T12:00:00	5	Humedad	48
49829	7	Sololá	701	Sololá	3	Barraneche	9	Septiembre	2023-09-17T00:00:00	2024-11-06T12:00:00	6	Velocidad del viento	9.7
49830	7	Sololá	701	Sololá	3	Barraneche	9	Septiembre	2023-09-17T00:00:00	2024-11-06T12:00:00	7	Dirección del viento	9.66
49831	7	Sololá	701	Sololá	3	Barraneche	9	Septiembre	2023-09-17T00:00:00	2024-11-06T12:00:00	1	Precipitación	0
49832	7	Sololá	701	Sololá	3	Barraneche	9	Septiembre	2023-09-17T00:00:00	2024-11-06T12:00:00	8	Radiación solar	1037
49833	7	Sololá	701	Sololá	3	Barraneche	9	Septiembre	2023-09-17T00:00:00	2024-11-06T13:00:00	2	Temperatura media	20.3
49834	7	Sololá	701	Sololá	3	Barraneche	9	Septiembre	2023-09-17T00:00:00	2024-11-06T13:00:00	4	Temperatura máxima	20.6
49835	7	Sololá	701	Sololá	3	Barraneche	9	Septiembre	2023-09-17T00:00:00	2024-11-06T13:00:00	3	Temperatura mínima	19.4
49836	7	Sololá	701	Sololá	3	Barraneche	9	Septiembre	2023-09-17T00:00:00	2024-11-06T13:00:00	5	Humedad	50
49837	7	Sololá	701	Sololá	3	Barraneche	9	Septiembre	2023-09-17T00:00:00	2024-11-06T13:00:00	6	Velocidad del viento	9.7
49838	7	Sololá	701	Sololá	3	Barraneche	9	Septiembre	2023-09-17T00:00:00	2024-11-06T13:00:00	7	Dirección del viento	9.66
49839	7	Sololá	701	Sololá	3	Barraneche	9	Septiembre	2023-09-17T00:00:00	2024-11-06T13:00:00	1	Precipitación	0
49840	7	Sololá	701	Sololá	3	Barraneche	9	Septiembre	2023-09-17T00:00:00	2024-11-06T13:00:00	8	Radiación solar	979
49841	7	Sololá	701	Sololá	3	Barraneche	9	Septiembre	2023-09-17T00:00:00	2024-11-06T14:00:00	2	Temperatura media	19.2
49842	7	Sololá	701	Sololá	3	Barraneche	9	Septiembre	2023-09-17T00:00:00	2024-11-06T14:00:00	4	Temperatura máxima	20.7
49843	7	Sololá	701	Sololá	3	Barraneche	9	Septiembre	2023-09-17T00:00:00	2024-11-06T14:00:00	3	Temperatura mínima	18.7
49844	7	Sololá	701	Sololá	3	Barraneche	9	Septiembre	2023-09-17T00:00:00	2024-11-06T14:00:00	5	Humedad	60
49845	7	Sololá	701	Sololá	3	Barraneche	9	Septiembre	2023-09-17T00:00:00	2024-11-06T14:00:00	6	Velocidad del viento	9.7
49846	7	Sololá	701	Sololá	3	Barraneche	9	Septiembre	2023-09-17T00:00:00	2024-11-06T14:00:00	7	Dirección del viento	9.66
49847	7	Sololá	701	Sololá	3	Barraneche	9	Septiembre	2023-09-17T00:00:00	2024-11-06T14:00:00	1	Precipitación	0
49848	7	Sololá	701	Sololá	3	Barraneche	9	Septiembre	2023-09-17T00:00:00	2024-11-06T14:00:00	8	Radiación solar	562
49849	7	Sololá	701	Sololá	3	Barraneche	9	Septiembre	2023-09-17T00:00:00	2024-11-06T15:00:00	2	Temperatura media	19.9
49850	7	Sololá	701	Sololá	3	Barraneche	9	Septiembre	2023-09-17T00:00:00	2024-11-06T15:00:00	4	Temperatura máxima	19.9
49851	7	Sololá	701	Sololá	3	Barraneche	9	Septiembre	2023-09-17T00:00:00	2024-11-06T15:00:00	3	Temperatura mínima	19.1
49852	7	Sololá	701	Sololá	3	Barraneche	9	Septiembre	2023-09-17T00:00:00	2024-11-06T15:00:00	5	Humedad	54
49853	7	Sololá	701	Sololá	3	Barraneche	9	Septiembre	2023-09-17T00:00:00	2024-11-06T15:00:00	6	Velocidad del viento	9.7
49854	7	Sololá	701	Sololá	3	Barraneche	9	Septiembre	2023-09-17T00:00:00	2024-11-06T15:00:00	7	Dirección del viento	9.66
49855	7	Sololá	701	Sololá	3	Barraneche	9	Septiembre	2023-09-17T00:00:00	2024-11-06T15:00:00	1	Precipitación	0
49856	7	Sololá	701	Sololá	3	Barraneche	9	Septiembre	2023-09-17T00:00:00	2024-11-06T15:00:00	8	Radiación solar	452
49857	7	Sololá	701	Sololá	3	Barraneche	9	Septiembre	2023-09-17T00:00:00	2024-11-06T16:00:00	2	Temperatura media	20.4
49858	7	Sololá	701	Sololá	3	Barraneche	9	Septiembre	2023-09-17T00:00:00	2024-11-06T16:00:00	4	Temperatura máxima	20.6
49859	7	Sololá	701	Sololá	3	Barraneche	9	Septiembre	2023-09-17T00:00:00	2024-11-06T16:00:00	3	Temperatura mínima	19.9
49860	7	Sololá	701	Sololá	3	Barraneche	9	Septiembre	2023-09-17T00:00:00	2024-11-06T16:00:00	5	Humedad	49
49861	7	Sololá	701	Sololá	3	Barraneche	9	Septiembre	2023-09-17T00:00:00	2024-11-06T16:00:00	6	Velocidad del viento	12.9
49862	7	Sololá	701	Sololá	3	Barraneche	9	Septiembre	2023-09-17T00:00:00	2024-11-06T16:00:00	7	Dirección del viento	12.87
49863	7	Sololá	701	Sololá	3	Barraneche	9	Septiembre	2023-09-17T00:00:00	2024-11-06T16:00:00	1	Precipitación	0
49864	7	Sololá	701	Sololá	3	Barraneche	9	Septiembre	2023-09-17T00:00:00	2024-11-06T16:00:00	8	Radiación solar	529
49865	7	Sololá	701	Sololá	3	Barraneche	9	Septiembre	2023-09-17T00:00:00	2024-11-06T17:00:00	2	Temperatura media	19.8
49866	7	Sololá	701	Sololá	3	Barraneche	9	Septiembre	2023-09-17T00:00:00	2024-11-06T17:00:00	4	Temperatura máxima	20.6
49867	7	Sololá	701	Sololá	3	Barraneche	9	Septiembre	2023-09-17T00:00:00	2024-11-06T17:00:00	3	Temperatura mínima	19.8
49868	7	Sololá	701	Sololá	3	Barraneche	9	Septiembre	2023-09-17T00:00:00	2024-11-06T17:00:00	5	Humedad	49
49869	7	Sololá	701	Sololá	3	Barraneche	9	Septiembre	2023-09-17T00:00:00	2024-11-06T17:00:00	6	Velocidad del viento	11.3
49870	7	Sololá	701	Sololá	3	Barraneche	9	Septiembre	2023-09-17T00:00:00	2024-11-06T17:00:00	7	Dirección del viento	11.27
49871	7	Sololá	701	Sololá	3	Barraneche	9	Septiembre	2023-09-17T00:00:00	2024-11-06T17:00:00	1	Precipitación	0
49872	7	Sololá	701	Sololá	3	Barraneche	9	Septiembre	2023-09-17T00:00:00	2024-11-06T17:00:00	8	Radiación solar	265
49873	7	Sololá	701	Sololá	3	Barraneche	9	Septiembre	2023-09-17T00:00:00	2024-11-06T18:00:00	2	Temperatura media	17.7
49874	7	Sololá	701	Sololá	3	Barraneche	9	Septiembre	2023-09-17T00:00:00	2024-11-06T18:00:00	4	Temperatura máxima	19.8
49875	7	Sololá	701	Sololá	3	Barraneche	9	Septiembre	2023-09-17T00:00:00	2024-11-06T18:00:00	3	Temperatura mínima	17.7
49876	7	Sololá	701	Sololá	3	Barraneche	9	Septiembre	2023-09-17T00:00:00	2024-11-06T18:00:00	5	Humedad	53
49877	7	Sololá	701	Sololá	3	Barraneche	9	Septiembre	2023-09-17T00:00:00	2024-11-06T18:00:00	6	Velocidad del viento	4.8
49878	7	Sololá	701	Sololá	3	Barraneche	9	Septiembre	2023-09-17T00:00:00	2024-11-06T18:00:00	7	Dirección del viento	4.83
49879	7	Sololá	701	Sololá	3	Barraneche	9	Septiembre	2023-09-17T00:00:00	2024-11-06T18:00:00	1	Precipitación	0
49880	7	Sololá	701	Sololá	3	Barraneche	9	Septiembre	2023-09-17T00:00:00	2024-11-06T18:00:00	8	Radiación solar	51
49881	7	Sololá	701	Sololá	3	Barraneche	9	Septiembre	2023-09-17T00:00:00	2024-11-06T19:00:00	2	Temperatura media	16.3
49882	7	Sololá	701	Sololá	3	Barraneche	9	Septiembre	2023-09-17T00:00:00	2024-11-06T19:00:00	4	Temperatura máxima	17.7
49883	7	Sololá	701	Sololá	3	Barraneche	9	Septiembre	2023-09-17T00:00:00	2024-11-06T19:00:00	3	Temperatura mínima	16.3
49884	7	Sololá	701	Sololá	3	Barraneche	9	Septiembre	2023-09-17T00:00:00	2024-11-06T19:00:00	5	Humedad	64
49885	7	Sololá	701	Sololá	3	Barraneche	9	Septiembre	2023-09-17T00:00:00	2024-11-06T19:00:00	6	Velocidad del viento	1.6
49886	7	Sololá	701	Sololá	3	Barraneche	9	Septiembre	2023-09-17T00:00:00	2024-11-06T19:00:00	7	Dirección del viento	1.61
49887	7	Sololá	701	Sololá	3	Barraneche	9	Septiembre	2023-09-17T00:00:00	2024-11-06T19:00:00	1	Precipitación	0
49888	7	Sololá	701	Sololá	3	Barraneche	9	Septiembre	2023-09-17T00:00:00	2024-11-06T19:00:00	8	Radiación solar	0
49889	7	Sololá	701	Sololá	3	Barraneche	9	Septiembre	2023-09-17T00:00:00	2024-11-06T20:00:00	2	Temperatura media	15.5
49890	7	Sololá	701	Sololá	3	Barraneche	9	Septiembre	2023-09-17T00:00:00	2024-11-06T20:00:00	4	Temperatura máxima	16.3
49891	7	Sololá	701	Sololá	3	Barraneche	9	Septiembre	2023-09-17T00:00:00	2024-11-06T20:00:00	3	Temperatura mínima	15.5
49892	7	Sololá	701	Sololá	3	Barraneche	9	Septiembre	2023-09-17T00:00:00	2024-11-06T20:00:00	5	Humedad	67
49893	7	Sololá	701	Sololá	3	Barraneche	9	Septiembre	2023-09-17T00:00:00	2024-11-06T20:00:00	6	Velocidad del viento	3.2
49894	7	Sololá	701	Sololá	3	Barraneche	9	Septiembre	2023-09-17T00:00:00	2024-11-06T20:00:00	7	Dirección del viento	3.22
49895	7	Sololá	701	Sololá	3	Barraneche	9	Septiembre	2023-09-17T00:00:00	2024-11-06T20:00:00	1	Precipitación	0
49896	7	Sololá	701	Sololá	3	Barraneche	9	Septiembre	2023-09-17T00:00:00	2024-11-06T20:00:00	8	Radiación solar	0
49897	7	Sololá	701	Sololá	3	Barraneche	9	Septiembre	2023-09-17T00:00:00	2024-11-06T21:00:00	2	Temperatura media	15.3
49898	7	Sololá	701	Sololá	3	Barraneche	9	Septiembre	2023-09-17T00:00:00	2024-11-06T21:00:00	4	Temperatura máxima	15.6
49899	7	Sololá	701	Sololá	3	Barraneche	9	Septiembre	2023-09-17T00:00:00	2024-11-06T21:00:00	3	Temperatura mínima	15.3
49900	7	Sololá	701	Sololá	3	Barraneche	9	Septiembre	2023-09-17T00:00:00	2024-11-06T21:00:00	5	Humedad	68
49901	7	Sololá	701	Sololá	3	Barraneche	9	Septiembre	2023-09-17T00:00:00	2024-11-06T21:00:00	6	Velocidad del viento	1.6
49902	7	Sololá	701	Sololá	3	Barraneche	9	Septiembre	2023-09-17T00:00:00	2024-11-06T21:00:00	7	Dirección del viento	1.61
49903	7	Sololá	701	Sololá	3	Barraneche	9	Septiembre	2023-09-17T00:00:00	2024-11-06T21:00:00	1	Precipitación	0
49904	7	Sololá	701	Sololá	3	Barraneche	9	Septiembre	2023-09-17T00:00:00	2024-11-06T21:00:00	8	Radiación solar	0
49905	7	Sololá	701	Sololá	3	Barraneche	9	Septiembre	2023-09-17T00:00:00	2024-11-06T22:00:00	2	Temperatura media	14.9
49906	7	Sololá	701	Sololá	3	Barraneche	9	Septiembre	2023-09-17T00:00:00	2024-11-06T22:00:00	4	Temperatura máxima	15.5
49907	7	Sololá	701	Sololá	3	Barraneche	9	Septiembre	2023-09-17T00:00:00	2024-11-06T22:00:00	3	Temperatura mínima	14.9
49908	7	Sololá	701	Sololá	3	Barraneche	9	Septiembre	2023-09-17T00:00:00	2024-11-06T22:00:00	5	Humedad	70
49909	7	Sololá	701	Sololá	3	Barraneche	9	Septiembre	2023-09-17T00:00:00	2024-11-06T22:00:00	6	Velocidad del viento	3.2
49910	7	Sololá	701	Sololá	3	Barraneche	9	Septiembre	2023-09-17T00:00:00	2024-11-06T22:00:00	7	Dirección del viento	3.22
49911	7	Sololá	701	Sololá	3	Barraneche	9	Septiembre	2023-09-17T00:00:00	2024-11-06T22:00:00	1	Precipitación	0.8
49912	7	Sololá	701	Sololá	3	Barraneche	9	Septiembre	2023-09-17T00:00:00	2024-11-06T22:00:00	8	Radiación solar	0
49913	7	Sololá	701	Sololá	3	Barraneche	9	Septiembre	2023-09-17T00:00:00	2024-11-06T23:00:00	2	Temperatura media	13.6
49914	7	Sololá	701	Sololá	3	Barraneche	9	Septiembre	2023-09-17T00:00:00	2024-11-06T23:00:00	4	Temperatura máxima	14.9
49915	7	Sololá	701	Sololá	3	Barraneche	9	Septiembre	2023-09-17T00:00:00	2024-11-06T23:00:00	3	Temperatura mínima	13.6
49916	7	Sololá	701	Sololá	3	Barraneche	9	Septiembre	2023-09-17T00:00:00	2024-11-06T23:00:00	5	Humedad	81
49917	7	Sololá	701	Sololá	3	Barraneche	9	Septiembre	2023-09-17T00:00:00	2024-11-06T23:00:00	6	Velocidad del viento	3.2
49918	7	Sololá	701	Sololá	3	Barraneche	9	Septiembre	2023-09-17T00:00:00	2024-11-06T23:00:00	7	Dirección del viento	3.22
49919	7	Sololá	701	Sololá	3	Barraneche	9	Septiembre	2023-09-17T00:00:00	2024-11-06T23:00:00	1	Precipitación	10.8
49920	7	Sololá	701	Sololá	3	Barraneche	9	Septiembre	2023-09-17T00:00:00	2024-11-06T23:00:00	8	Radiación solar	0
49921	7	Sololá	701	Sololá	3	Barraneche	9	Septiembre	2023-09-18T00:00:00	2024-11-06T00:00:00	2	Temperatura media	13.1
49922	7	Sololá	701	Sololá	3	Barraneche	9	Septiembre	2023-09-18T00:00:00	2024-11-06T00:00:00	4	Temperatura máxima	13.6
49923	7	Sololá	701	Sololá	3	Barraneche	9	Septiembre	2023-09-18T00:00:00	2024-11-06T00:00:00	3	Temperatura mínima	13
49924	7	Sololá	701	Sololá	3	Barraneche	9	Septiembre	2023-09-18T00:00:00	2024-11-06T00:00:00	5	Humedad	75
49925	7	Sololá	701	Sololá	3	Barraneche	9	Septiembre	2023-09-18T00:00:00	2024-11-06T00:00:00	6	Velocidad del viento	3.2
49926	7	Sololá	701	Sololá	3	Barraneche	9	Septiembre	2023-09-18T00:00:00	2024-11-06T00:00:00	7	Dirección del viento	3.22
49927	7	Sololá	701	Sololá	3	Barraneche	9	Septiembre	2023-09-18T00:00:00	2024-11-06T00:00:00	1	Precipitación	10.2
49928	7	Sololá	701	Sololá	3	Barraneche	9	Septiembre	2023-09-18T00:00:00	2024-11-06T00:00:00	8	Radiación solar	0
49929	7	Sololá	701	Sololá	3	Barraneche	9	Septiembre	2023-09-18T00:00:00	2024-11-06T01:00:00	2	Temperatura media	12.9
49930	7	Sololá	701	Sololá	3	Barraneche	9	Septiembre	2023-09-18T00:00:00	2024-11-06T01:00:00	4	Temperatura máxima	13.1
49931	7	Sololá	701	Sololá	3	Barraneche	9	Septiembre	2023-09-18T00:00:00	2024-11-06T01:00:00	3	Temperatura mínima	12.7
49932	7	Sololá	701	Sololá	3	Barraneche	9	Septiembre	2023-09-18T00:00:00	2024-11-06T01:00:00	5	Humedad	67
49933	7	Sololá	701	Sololá	3	Barraneche	9	Septiembre	2023-09-18T00:00:00	2024-11-06T01:00:00	6	Velocidad del viento	3.2
49934	7	Sololá	701	Sololá	3	Barraneche	9	Septiembre	2023-09-18T00:00:00	2024-11-06T01:00:00	7	Dirección del viento	3.22
49935	7	Sololá	701	Sololá	3	Barraneche	9	Septiembre	2023-09-18T00:00:00	2024-11-06T01:00:00	1	Precipitación	0
49936	7	Sololá	701	Sololá	3	Barraneche	9	Septiembre	2023-09-18T00:00:00	2024-11-06T01:00:00	8	Radiación solar	0
49937	7	Sololá	701	Sololá	3	Barraneche	9	Septiembre	2023-09-18T00:00:00	2024-11-06T02:00:00	2	Temperatura media	13
49938	7	Sololá	701	Sololá	3	Barraneche	9	Septiembre	2023-09-18T00:00:00	2024-11-06T02:00:00	4	Temperatura máxima	13.1
49939	7	Sololá	701	Sololá	3	Barraneche	9	Septiembre	2023-09-18T00:00:00	2024-11-06T02:00:00	3	Temperatura mínima	12.7
49940	7	Sololá	701	Sololá	3	Barraneche	9	Septiembre	2023-09-18T00:00:00	2024-11-06T02:00:00	5	Humedad	61
49941	7	Sololá	701	Sololá	3	Barraneche	9	Septiembre	2023-09-18T00:00:00	2024-11-06T02:00:00	6	Velocidad del viento	11.3
49942	7	Sololá	701	Sololá	3	Barraneche	9	Septiembre	2023-09-18T00:00:00	2024-11-06T02:00:00	7	Dirección del viento	11.27
49943	7	Sololá	701	Sololá	3	Barraneche	9	Septiembre	2023-09-18T00:00:00	2024-11-06T02:00:00	1	Precipitación	0
49944	7	Sololá	701	Sololá	3	Barraneche	9	Septiembre	2023-09-18T00:00:00	2024-11-06T02:00:00	8	Radiación solar	0
49945	7	Sololá	701	Sololá	3	Barraneche	9	Septiembre	2023-09-18T00:00:00	2024-11-06T03:00:00	2	Temperatura media	13.2
49946	7	Sololá	701	Sololá	3	Barraneche	9	Septiembre	2023-09-18T00:00:00	2024-11-06T03:00:00	4	Temperatura máxima	13.2
49947	7	Sololá	701	Sololá	3	Barraneche	9	Septiembre	2023-09-18T00:00:00	2024-11-06T03:00:00	3	Temperatura mínima	12.8
49948	7	Sololá	701	Sololá	3	Barraneche	9	Septiembre	2023-09-18T00:00:00	2024-11-06T03:00:00	5	Humedad	62
49949	7	Sololá	701	Sololá	3	Barraneche	9	Septiembre	2023-09-18T00:00:00	2024-11-06T03:00:00	6	Velocidad del viento	12.9
49950	7	Sololá	701	Sololá	3	Barraneche	9	Septiembre	2023-09-18T00:00:00	2024-11-06T03:00:00	7	Dirección del viento	12.87
49951	7	Sololá	701	Sololá	3	Barraneche	9	Septiembre	2023-09-18T00:00:00	2024-11-06T03:00:00	1	Precipitación	0
49952	7	Sololá	701	Sololá	3	Barraneche	9	Septiembre	2023-09-18T00:00:00	2024-11-06T03:00:00	8	Radiación solar	0
49953	7	Sololá	701	Sololá	3	Barraneche	9	Septiembre	2023-09-18T00:00:00	2024-11-06T04:00:00	2	Temperatura media	12.9
49954	7	Sololá	701	Sololá	3	Barraneche	9	Septiembre	2023-09-18T00:00:00	2024-11-06T04:00:00	4	Temperatura máxima	13.2
49955	7	Sololá	701	Sololá	3	Barraneche	9	Septiembre	2023-09-18T00:00:00	2024-11-06T04:00:00	3	Temperatura mínima	12.7
49956	7	Sololá	701	Sololá	3	Barraneche	9	Septiembre	2023-09-18T00:00:00	2024-11-06T04:00:00	5	Humedad	66
49957	7	Sololá	701	Sololá	3	Barraneche	9	Septiembre	2023-09-18T00:00:00	2024-11-06T04:00:00	6	Velocidad del viento	12.9
49958	7	Sololá	701	Sololá	3	Barraneche	9	Septiembre	2023-09-18T00:00:00	2024-11-06T04:00:00	7	Dirección del viento	12.87
49959	7	Sololá	701	Sololá	3	Barraneche	9	Septiembre	2023-09-18T00:00:00	2024-11-06T04:00:00	1	Precipitación	0
49960	7	Sololá	701	Sololá	3	Barraneche	9	Septiembre	2023-09-18T00:00:00	2024-11-06T04:00:00	8	Radiación solar	0
49961	7	Sololá	701	Sololá	3	Barraneche	9	Septiembre	2023-09-18T00:00:00	2024-11-06T05:00:00	2	Temperatura media	13.3
49962	7	Sololá	701	Sololá	3	Barraneche	9	Septiembre	2023-09-18T00:00:00	2024-11-06T05:00:00	4	Temperatura máxima	13.4
49963	7	Sololá	701	Sololá	3	Barraneche	9	Septiembre	2023-09-18T00:00:00	2024-11-06T05:00:00	3	Temperatura mínima	12.9
49964	7	Sololá	701	Sololá	3	Barraneche	9	Septiembre	2023-09-18T00:00:00	2024-11-06T05:00:00	5	Humedad	64
49965	7	Sololá	701	Sololá	3	Barraneche	9	Septiembre	2023-09-18T00:00:00	2024-11-06T05:00:00	6	Velocidad del viento	22.5
49966	7	Sololá	701	Sololá	3	Barraneche	9	Septiembre	2023-09-18T00:00:00	2024-11-06T05:00:00	7	Dirección del viento	22.53
49967	7	Sololá	701	Sololá	3	Barraneche	9	Septiembre	2023-09-18T00:00:00	2024-11-06T05:00:00	1	Precipitación	0.2
49968	7	Sololá	701	Sololá	3	Barraneche	9	Septiembre	2023-09-18T00:00:00	2024-11-06T05:00:00	8	Radiación solar	0
49969	7	Sololá	701	Sololá	3	Barraneche	9	Septiembre	2023-09-18T00:00:00	2024-11-06T06:00:00	2	Temperatura media	13.3
49970	7	Sololá	701	Sololá	3	Barraneche	9	Septiembre	2023-09-18T00:00:00	2024-11-06T06:00:00	4	Temperatura máxima	13.3
49971	7	Sololá	701	Sololá	3	Barraneche	9	Septiembre	2023-09-18T00:00:00	2024-11-06T06:00:00	3	Temperatura mínima	13.1
49972	7	Sololá	701	Sololá	3	Barraneche	9	Septiembre	2023-09-18T00:00:00	2024-11-06T06:00:00	5	Humedad	58
49973	7	Sololá	701	Sololá	3	Barraneche	9	Septiembre	2023-09-18T00:00:00	2024-11-06T06:00:00	6	Velocidad del viento	20.9
49974	7	Sololá	701	Sololá	3	Barraneche	9	Septiembre	2023-09-18T00:00:00	2024-11-06T06:00:00	7	Dirección del viento	20.92
49975	7	Sololá	701	Sololá	3	Barraneche	9	Septiembre	2023-09-18T00:00:00	2024-11-06T06:00:00	1	Precipitación	0
49976	7	Sololá	701	Sololá	3	Barraneche	9	Septiembre	2023-09-18T00:00:00	2024-11-06T06:00:00	8	Radiación solar	0
49977	7	Sololá	701	Sololá	3	Barraneche	9	Septiembre	2023-09-18T00:00:00	2024-11-06T07:00:00	2	Temperatura media	13.9
49978	7	Sololá	701	Sololá	3	Barraneche	9	Septiembre	2023-09-18T00:00:00	2024-11-06T07:00:00	4	Temperatura máxima	13.9
49979	7	Sololá	701	Sololá	3	Barraneche	9	Septiembre	2023-09-18T00:00:00	2024-11-06T07:00:00	3	Temperatura mínima	13.2
49980	7	Sololá	701	Sololá	3	Barraneche	9	Septiembre	2023-09-18T00:00:00	2024-11-06T07:00:00	5	Humedad	54
49981	7	Sololá	701	Sololá	3	Barraneche	9	Septiembre	2023-09-18T00:00:00	2024-11-06T07:00:00	6	Velocidad del viento	16.1
49982	7	Sololá	701	Sololá	3	Barraneche	9	Septiembre	2023-09-18T00:00:00	2024-11-06T07:00:00	7	Dirección del viento	16.09
49983	7	Sololá	701	Sololá	3	Barraneche	9	Septiembre	2023-09-18T00:00:00	2024-11-06T07:00:00	1	Precipitación	0
49984	7	Sololá	701	Sololá	3	Barraneche	9	Septiembre	2023-09-18T00:00:00	2024-11-06T07:00:00	8	Radiación solar	60
49985	7	Sololá	701	Sololá	3	Barraneche	9	Septiembre	2023-09-18T00:00:00	2024-11-06T08:00:00	2	Temperatura media	15.6
49986	7	Sololá	701	Sololá	3	Barraneche	9	Septiembre	2023-09-18T00:00:00	2024-11-06T08:00:00	4	Temperatura máxima	15.7
49987	7	Sololá	701	Sololá	3	Barraneche	9	Septiembre	2023-09-18T00:00:00	2024-11-06T08:00:00	3	Temperatura mínima	13.9
49988	7	Sololá	701	Sololá	3	Barraneche	9	Septiembre	2023-09-18T00:00:00	2024-11-06T08:00:00	5	Humedad	49
49989	7	Sololá	701	Sololá	3	Barraneche	9	Septiembre	2023-09-18T00:00:00	2024-11-06T08:00:00	6	Velocidad del viento	17.7
49990	7	Sololá	701	Sololá	3	Barraneche	9	Septiembre	2023-09-18T00:00:00	2024-11-06T08:00:00	7	Dirección del viento	17.7
49991	7	Sololá	701	Sololá	3	Barraneche	9	Septiembre	2023-09-18T00:00:00	2024-11-06T08:00:00	1	Precipitación	0
49992	7	Sololá	701	Sololá	3	Barraneche	9	Septiembre	2023-09-18T00:00:00	2024-11-06T08:00:00	8	Radiación solar	269
49993	7	Sololá	701	Sololá	3	Barraneche	9	Septiembre	2023-09-18T00:00:00	2024-11-06T09:00:00	2	Temperatura media	18.3
49994	7	Sololá	701	Sololá	3	Barraneche	9	Septiembre	2023-09-18T00:00:00	2024-11-06T09:00:00	4	Temperatura máxima	18.3
49995	7	Sololá	701	Sololá	3	Barraneche	9	Septiembre	2023-09-18T00:00:00	2024-11-06T09:00:00	3	Temperatura mínima	15.5
49996	7	Sololá	701	Sololá	3	Barraneche	9	Septiembre	2023-09-18T00:00:00	2024-11-06T09:00:00	5	Humedad	42
49997	7	Sololá	701	Sololá	3	Barraneche	9	Septiembre	2023-09-18T00:00:00	2024-11-06T09:00:00	6	Velocidad del viento	17.7
49998	7	Sololá	701	Sololá	3	Barraneche	9	Septiembre	2023-09-18T00:00:00	2024-11-06T09:00:00	7	Dirección del viento	17.7
49999	7	Sololá	701	Sololá	3	Barraneche	9	Septiembre	2023-09-18T00:00:00	2024-11-06T09:00:00	1	Precipitación	0
50000	7	Sololá	701	Sololá	3	Barraneche	9	Septiembre	2023-09-18T00:00:00	2024-11-06T09:00:00	8	Radiación solar	615
50001	7	Sololá	701	Sololá	3	Barraneche	9	Septiembre	2023-09-18T00:00:00	2024-11-06T10:00:00	2	Temperatura media	19.1
50002	7	Sololá	701	Sololá	3	Barraneche	9	Septiembre	2023-09-18T00:00:00	2024-11-06T10:00:00	4	Temperatura máxima	19.6
50003	7	Sololá	701	Sololá	3	Barraneche	9	Septiembre	2023-09-18T00:00:00	2024-11-06T10:00:00	3	Temperatura mínima	18.3
50004	7	Sololá	701	Sololá	3	Barraneche	9	Septiembre	2023-09-18T00:00:00	2024-11-06T10:00:00	5	Humedad	45
50005	7	Sololá	701	Sololá	3	Barraneche	9	Septiembre	2023-09-18T00:00:00	2024-11-06T10:00:00	6	Velocidad del viento	12.9
50006	7	Sololá	701	Sololá	3	Barraneche	9	Septiembre	2023-09-18T00:00:00	2024-11-06T10:00:00	7	Dirección del viento	12.87
50007	7	Sololá	701	Sololá	3	Barraneche	9	Septiembre	2023-09-18T00:00:00	2024-11-06T10:00:00	1	Precipitación	0
50008	7	Sololá	701	Sololá	3	Barraneche	9	Septiembre	2023-09-18T00:00:00	2024-11-06T10:00:00	8	Radiación solar	814
50009	7	Sololá	701	Sololá	3	Barraneche	9	Septiembre	2023-09-18T00:00:00	2024-11-06T11:00:00	2	Temperatura media	19.3
50010	7	Sololá	701	Sololá	3	Barraneche	9	Septiembre	2023-09-18T00:00:00	2024-11-06T11:00:00	4	Temperatura máxima	20.2
50011	7	Sololá	701	Sololá	3	Barraneche	9	Septiembre	2023-09-18T00:00:00	2024-11-06T11:00:00	3	Temperatura mínima	19.1
50012	7	Sololá	701	Sololá	3	Barraneche	9	Septiembre	2023-09-18T00:00:00	2024-11-06T11:00:00	5	Humedad	46
50013	7	Sololá	701	Sololá	3	Barraneche	9	Septiembre	2023-09-18T00:00:00	2024-11-06T11:00:00	6	Velocidad del viento	11.3
50014	7	Sololá	701	Sololá	3	Barraneche	9	Septiembre	2023-09-18T00:00:00	2024-11-06T11:00:00	7	Dirección del viento	11.27
50015	7	Sololá	701	Sololá	3	Barraneche	9	Septiembre	2023-09-18T00:00:00	2024-11-06T11:00:00	1	Precipitación	0
50016	7	Sololá	701	Sololá	3	Barraneche	9	Septiembre	2023-09-18T00:00:00	2024-11-06T11:00:00	8	Radiación solar	959
50017	7	Sololá	701	Sololá	3	Barraneche	9	Septiembre	2023-09-18T00:00:00	2024-11-06T12:00:00	2	Temperatura media	19.9
50018	7	Sololá	701	Sololá	3	Barraneche	9	Septiembre	2023-09-18T00:00:00	2024-11-06T12:00:00	4	Temperatura máxima	20.1
50019	7	Sololá	701	Sololá	3	Barraneche	9	Septiembre	2023-09-18T00:00:00	2024-11-06T12:00:00	3	Temperatura mínima	19.3
50020	7	Sololá	701	Sololá	3	Barraneche	9	Septiembre	2023-09-18T00:00:00	2024-11-06T12:00:00	5	Humedad	43
50021	7	Sololá	701	Sololá	3	Barraneche	9	Septiembre	2023-09-18T00:00:00	2024-11-06T12:00:00	6	Velocidad del viento	11.3
50022	7	Sololá	701	Sololá	3	Barraneche	9	Septiembre	2023-09-18T00:00:00	2024-11-06T12:00:00	7	Dirección del viento	11.27
50023	7	Sololá	701	Sololá	3	Barraneche	9	Septiembre	2023-09-18T00:00:00	2024-11-06T12:00:00	1	Precipitación	0
50024	7	Sololá	701	Sololá	3	Barraneche	9	Septiembre	2023-09-18T00:00:00	2024-11-06T12:00:00	8	Radiación solar	1050
50025	7	Sololá	701	Sololá	3	Barraneche	9	Septiembre	2023-09-18T00:00:00	2024-11-06T13:00:00	2	Temperatura media	20.2
50026	7	Sololá	701	Sololá	3	Barraneche	9	Septiembre	2023-09-18T00:00:00	2024-11-06T13:00:00	4	Temperatura máxima	20.8
50027	7	Sololá	701	Sololá	3	Barraneche	9	Septiembre	2023-09-18T00:00:00	2024-11-06T13:00:00	3	Temperatura mínima	19.9
50028	7	Sololá	701	Sololá	3	Barraneche	9	Septiembre	2023-09-18T00:00:00	2024-11-06T13:00:00	5	Humedad	54
50029	7	Sololá	701	Sololá	3	Barraneche	9	Septiembre	2023-09-18T00:00:00	2024-11-06T13:00:00	6	Velocidad del viento	11.3
50030	7	Sololá	701	Sololá	3	Barraneche	9	Septiembre	2023-09-18T00:00:00	2024-11-06T13:00:00	7	Dirección del viento	11.27
50031	7	Sololá	701	Sololá	3	Barraneche	9	Septiembre	2023-09-18T00:00:00	2024-11-06T13:00:00	1	Precipitación	0
50032	7	Sololá	701	Sololá	3	Barraneche	9	Septiembre	2023-09-18T00:00:00	2024-11-06T13:00:00	8	Radiación solar	1090
50033	7	Sololá	701	Sololá	3	Barraneche	9	Septiembre	2023-09-18T00:00:00	2024-11-06T14:00:00	2	Temperatura media	20.2
50034	7	Sololá	701	Sololá	3	Barraneche	9	Septiembre	2023-09-18T00:00:00	2024-11-06T14:00:00	4	Temperatura máxima	20.8
50035	7	Sololá	701	Sololá	3	Barraneche	9	Septiembre	2023-09-18T00:00:00	2024-11-06T14:00:00	3	Temperatura mínima	19.7
50036	7	Sololá	701	Sololá	3	Barraneche	9	Septiembre	2023-09-18T00:00:00	2024-11-06T14:00:00	5	Humedad	40
50037	7	Sololá	701	Sololá	3	Barraneche	9	Septiembre	2023-09-18T00:00:00	2024-11-06T14:00:00	6	Velocidad del viento	14.5
50038	7	Sololá	701	Sololá	3	Barraneche	9	Septiembre	2023-09-18T00:00:00	2024-11-06T14:00:00	7	Dirección del viento	14.48
50039	7	Sololá	701	Sololá	3	Barraneche	9	Septiembre	2023-09-18T00:00:00	2024-11-06T14:00:00	1	Precipitación	0
50040	7	Sololá	701	Sololá	3	Barraneche	9	Septiembre	2023-09-18T00:00:00	2024-11-06T14:00:00	8	Radiación solar	1022
50041	7	Sololá	701	Sololá	3	Barraneche	9	Septiembre	2023-09-18T00:00:00	2024-11-06T15:00:00	2	Temperatura media	19.1
50042	7	Sololá	701	Sololá	3	Barraneche	9	Septiembre	2023-09-18T00:00:00	2024-11-06T15:00:00	4	Temperatura máxima	20.7
50043	7	Sololá	701	Sololá	3	Barraneche	9	Septiembre	2023-09-18T00:00:00	2024-11-06T15:00:00	3	Temperatura mínima	19.1
50044	7	Sololá	701	Sololá	3	Barraneche	9	Septiembre	2023-09-18T00:00:00	2024-11-06T15:00:00	5	Humedad	48
50045	7	Sololá	701	Sololá	3	Barraneche	9	Septiembre	2023-09-18T00:00:00	2024-11-06T15:00:00	6	Velocidad del viento	11.3
50046	7	Sololá	701	Sololá	3	Barraneche	9	Septiembre	2023-09-18T00:00:00	2024-11-06T15:00:00	7	Dirección del viento	11.27
50047	7	Sololá	701	Sololá	3	Barraneche	9	Septiembre	2023-09-18T00:00:00	2024-11-06T15:00:00	1	Precipitación	0
50048	7	Sololá	701	Sololá	3	Barraneche	9	Septiembre	2023-09-18T00:00:00	2024-11-06T15:00:00	8	Radiación solar	625
50049	7	Sololá	701	Sololá	3	Barraneche	9	Septiembre	2023-09-18T00:00:00	2024-11-06T16:00:00	2	Temperatura media	17.2
50050	7	Sololá	701	Sololá	3	Barraneche	9	Septiembre	2023-09-18T00:00:00	2024-11-06T16:00:00	4	Temperatura máxima	19.1
50051	7	Sololá	701	Sololá	3	Barraneche	9	Septiembre	2023-09-18T00:00:00	2024-11-06T16:00:00	3	Temperatura mínima	17.2
50052	7	Sololá	701	Sololá	3	Barraneche	9	Septiembre	2023-09-18T00:00:00	2024-11-06T16:00:00	5	Humedad	55
50053	7	Sololá	701	Sololá	3	Barraneche	9	Septiembre	2023-09-18T00:00:00	2024-11-06T16:00:00	6	Velocidad del viento	11.3
50054	7	Sololá	701	Sololá	3	Barraneche	9	Septiembre	2023-09-18T00:00:00	2024-11-06T16:00:00	7	Dirección del viento	11.27
50055	7	Sololá	701	Sololá	3	Barraneche	9	Septiembre	2023-09-18T00:00:00	2024-11-06T16:00:00	1	Precipitación	0
50056	7	Sololá	701	Sololá	3	Barraneche	9	Septiembre	2023-09-18T00:00:00	2024-11-06T16:00:00	8	Radiación solar	176
50057	7	Sololá	701	Sololá	3	Barraneche	9	Septiembre	2023-09-18T00:00:00	2024-11-06T17:00:00	2	Temperatura media	16.9
50058	7	Sololá	701	Sololá	3	Barraneche	9	Septiembre	2023-09-18T00:00:00	2024-11-06T17:00:00	4	Temperatura máxima	17.2
50059	7	Sololá	701	Sololá	3	Barraneche	9	Septiembre	2023-09-18T00:00:00	2024-11-06T17:00:00	3	Temperatura mínima	16.8
50060	7	Sololá	701	Sololá	3	Barraneche	9	Septiembre	2023-09-18T00:00:00	2024-11-06T17:00:00	5	Humedad	58
50061	7	Sololá	701	Sololá	3	Barraneche	9	Septiembre	2023-09-18T00:00:00	2024-11-06T17:00:00	6	Velocidad del viento	6.4
50062	7	Sololá	701	Sololá	3	Barraneche	9	Septiembre	2023-09-18T00:00:00	2024-11-06T17:00:00	7	Dirección del viento	6.44
50063	7	Sololá	701	Sololá	3	Barraneche	9	Septiembre	2023-09-18T00:00:00	2024-11-06T17:00:00	1	Precipitación	0
50064	7	Sololá	701	Sololá	3	Barraneche	9	Septiembre	2023-09-18T00:00:00	2024-11-06T17:00:00	8	Radiación solar	107
50065	7	Sololá	701	Sololá	3	Barraneche	9	Septiembre	2023-09-18T00:00:00	2024-11-06T18:00:00	2	Temperatura media	16.1
50066	7	Sololá	701	Sololá	3	Barraneche	9	Septiembre	2023-09-18T00:00:00	2024-11-06T18:00:00	4	Temperatura máxima	16.9
50067	7	Sololá	701	Sololá	3	Barraneche	9	Septiembre	2023-09-18T00:00:00	2024-11-06T18:00:00	3	Temperatura mínima	16.1
50068	7	Sololá	701	Sololá	3	Barraneche	9	Septiembre	2023-09-18T00:00:00	2024-11-06T18:00:00	5	Humedad	61
50069	7	Sololá	701	Sololá	3	Barraneche	9	Septiembre	2023-09-18T00:00:00	2024-11-06T18:00:00	6	Velocidad del viento	4.8
50070	7	Sololá	701	Sololá	3	Barraneche	9	Septiembre	2023-09-18T00:00:00	2024-11-06T18:00:00	7	Dirección del viento	4.83
50071	7	Sololá	701	Sololá	3	Barraneche	9	Septiembre	2023-09-18T00:00:00	2024-11-06T18:00:00	1	Precipitación	0
50072	7	Sololá	701	Sololá	3	Barraneche	9	Septiembre	2023-09-18T00:00:00	2024-11-06T18:00:00	8	Radiación solar	26
50073	7	Sololá	701	Sololá	3	Barraneche	9	Septiembre	2023-09-18T00:00:00	2024-11-06T19:00:00	2	Temperatura media	15.2
50074	7	Sololá	701	Sololá	3	Barraneche	9	Septiembre	2023-09-18T00:00:00	2024-11-06T19:00:00	4	Temperatura máxima	16.1
50075	7	Sololá	701	Sololá	3	Barraneche	9	Septiembre	2023-09-18T00:00:00	2024-11-06T19:00:00	3	Temperatura mínima	15.2
50076	7	Sololá	701	Sololá	3	Barraneche	9	Septiembre	2023-09-18T00:00:00	2024-11-06T19:00:00	5	Humedad	63
50077	7	Sololá	701	Sololá	3	Barraneche	9	Septiembre	2023-09-18T00:00:00	2024-11-06T19:00:00	6	Velocidad del viento	6.4
50078	7	Sololá	701	Sololá	3	Barraneche	9	Septiembre	2023-09-18T00:00:00	2024-11-06T19:00:00	7	Dirección del viento	6.44
50079	7	Sololá	701	Sololá	3	Barraneche	9	Septiembre	2023-09-18T00:00:00	2024-11-06T19:00:00	1	Precipitación	0
50080	7	Sololá	701	Sololá	3	Barraneche	9	Septiembre	2023-09-18T00:00:00	2024-11-06T19:00:00	8	Radiación solar	0
50081	7	Sololá	701	Sololá	3	Barraneche	9	Septiembre	2023-09-18T00:00:00	2024-11-06T20:00:00	2	Temperatura media	15.2
50082	7	Sololá	701	Sololá	3	Barraneche	9	Septiembre	2023-09-18T00:00:00	2024-11-06T20:00:00	4	Temperatura máxima	15.3
50083	7	Sololá	701	Sololá	3	Barraneche	9	Septiembre	2023-09-18T00:00:00	2024-11-06T20:00:00	3	Temperatura mínima	15.1
50084	7	Sololá	701	Sololá	3	Barraneche	9	Septiembre	2023-09-18T00:00:00	2024-11-06T20:00:00	5	Humedad	64
50085	7	Sololá	701	Sololá	3	Barraneche	9	Septiembre	2023-09-18T00:00:00	2024-11-06T20:00:00	6	Velocidad del viento	6.4
50086	7	Sololá	701	Sololá	3	Barraneche	9	Septiembre	2023-09-18T00:00:00	2024-11-06T20:00:00	7	Dirección del viento	6.44
50087	7	Sololá	701	Sololá	3	Barraneche	9	Septiembre	2023-09-18T00:00:00	2024-11-06T20:00:00	1	Precipitación	0
50088	7	Sololá	701	Sololá	3	Barraneche	9	Septiembre	2023-09-18T00:00:00	2024-11-06T20:00:00	8	Radiación solar	0
50089	7	Sololá	701	Sololá	3	Barraneche	9	Septiembre	2023-09-18T00:00:00	2024-11-06T21:00:00	2	Temperatura media	14.6
50090	7	Sololá	701	Sololá	3	Barraneche	9	Septiembre	2023-09-18T00:00:00	2024-11-06T21:00:00	4	Temperatura máxima	15.3
50091	7	Sololá	701	Sololá	3	Barraneche	9	Septiembre	2023-09-18T00:00:00	2024-11-06T21:00:00	3	Temperatura mínima	14.6
50092	7	Sololá	701	Sololá	3	Barraneche	9	Septiembre	2023-09-18T00:00:00	2024-11-06T21:00:00	5	Humedad	65
50093	7	Sololá	701	Sololá	3	Barraneche	9	Septiembre	2023-09-18T00:00:00	2024-11-06T21:00:00	6	Velocidad del viento	8
50094	7	Sololá	701	Sololá	3	Barraneche	9	Septiembre	2023-09-18T00:00:00	2024-11-06T21:00:00	7	Dirección del viento	8.05
50095	7	Sololá	701	Sololá	3	Barraneche	9	Septiembre	2023-09-18T00:00:00	2024-11-06T21:00:00	1	Precipitación	0
50096	7	Sololá	701	Sololá	3	Barraneche	9	Septiembre	2023-09-18T00:00:00	2024-11-06T21:00:00	8	Radiación solar	0
50097	7	Sololá	701	Sololá	3	Barraneche	9	Septiembre	2023-09-18T00:00:00	2024-11-06T22:00:00	2	Temperatura media	14.3
50098	7	Sololá	701	Sololá	3	Barraneche	9	Septiembre	2023-09-18T00:00:00	2024-11-06T22:00:00	4	Temperatura máxima	14.6
50099	7	Sololá	701	Sololá	3	Barraneche	9	Septiembre	2023-09-18T00:00:00	2024-11-06T22:00:00	3	Temperatura mínima	14.2
50100	7	Sololá	701	Sololá	3	Barraneche	9	Septiembre	2023-09-18T00:00:00	2024-11-06T22:00:00	5	Humedad	65
50101	7	Sololá	701	Sololá	3	Barraneche	9	Septiembre	2023-09-18T00:00:00	2024-11-06T22:00:00	6	Velocidad del viento	8
50102	7	Sololá	701	Sololá	3	Barraneche	9	Septiembre	2023-09-18T00:00:00	2024-11-06T22:00:00	7	Dirección del viento	8.05
50103	7	Sololá	701	Sololá	3	Barraneche	9	Septiembre	2023-09-18T00:00:00	2024-11-06T22:00:00	1	Precipitación	0
50104	7	Sololá	701	Sololá	3	Barraneche	9	Septiembre	2023-09-18T00:00:00	2024-11-06T22:00:00	8	Radiación solar	0
50105	7	Sololá	701	Sololá	3	Barraneche	9	Septiembre	2023-09-18T00:00:00	2024-11-06T23:00:00	2	Temperatura media	14.2
50106	7	Sololá	701	Sololá	3	Barraneche	9	Septiembre	2023-09-18T00:00:00	2024-11-06T23:00:00	4	Temperatura máxima	14.3
50107	7	Sololá	701	Sololá	3	Barraneche	9	Septiembre	2023-09-18T00:00:00	2024-11-06T23:00:00	3	Temperatura mínima	14.1
50108	7	Sololá	701	Sololá	3	Barraneche	9	Septiembre	2023-09-18T00:00:00	2024-11-06T23:00:00	5	Humedad	64
50109	7	Sololá	701	Sololá	3	Barraneche	9	Septiembre	2023-09-18T00:00:00	2024-11-06T23:00:00	6	Velocidad del viento	4.8
50110	7	Sololá	701	Sololá	3	Barraneche	9	Septiembre	2023-09-18T00:00:00	2024-11-06T23:00:00	7	Dirección del viento	4.83
50111	7	Sololá	701	Sololá	3	Barraneche	9	Septiembre	2023-09-18T00:00:00	2024-11-06T23:00:00	1	Precipitación	0
50112	7	Sololá	701	Sololá	3	Barraneche	9	Septiembre	2023-09-18T00:00:00	2024-11-06T23:00:00	8	Radiación solar	0
50113	7	Sololá	701	Sololá	3	Barraneche	9	Septiembre	2023-09-19T00:00:00	2024-11-06T00:00:00	2	Temperatura media	12.9
50114	7	Sololá	701	Sololá	3	Barraneche	9	Septiembre	2023-09-19T00:00:00	2024-11-06T00:00:00	4	Temperatura máxima	14.3
50115	7	Sololá	701	Sololá	3	Barraneche	9	Septiembre	2023-09-19T00:00:00	2024-11-06T00:00:00	3	Temperatura mínima	12.8
50116	7	Sololá	701	Sololá	3	Barraneche	9	Septiembre	2023-09-19T00:00:00	2024-11-06T00:00:00	5	Humedad	68
50117	7	Sololá	701	Sololá	3	Barraneche	9	Septiembre	2023-09-19T00:00:00	2024-11-06T00:00:00	6	Velocidad del viento	4.8
50118	7	Sololá	701	Sololá	3	Barraneche	9	Septiembre	2023-09-19T00:00:00	2024-11-06T00:00:00	7	Dirección del viento	4.83
50119	7	Sololá	701	Sololá	3	Barraneche	9	Septiembre	2023-09-19T00:00:00	2024-11-06T00:00:00	1	Precipitación	0
50120	7	Sololá	701	Sololá	3	Barraneche	9	Septiembre	2023-09-19T00:00:00	2024-11-06T00:00:00	8	Radiación solar	0
50121	7	Sololá	701	Sololá	3	Barraneche	9	Septiembre	2023-09-19T00:00:00	2024-11-06T01:00:00	2	Temperatura media	13.8
50122	7	Sololá	701	Sololá	3	Barraneche	9	Septiembre	2023-09-19T00:00:00	2024-11-06T01:00:00	4	Temperatura máxima	13.8
50123	7	Sololá	701	Sololá	3	Barraneche	9	Septiembre	2023-09-19T00:00:00	2024-11-06T01:00:00	3	Temperatura mínima	12.7
50124	7	Sololá	701	Sololá	3	Barraneche	9	Septiembre	2023-09-19T00:00:00	2024-11-06T01:00:00	5	Humedad	61
50125	7	Sololá	701	Sololá	3	Barraneche	9	Septiembre	2023-09-19T00:00:00	2024-11-06T01:00:00	6	Velocidad del viento	4.8
50126	7	Sololá	701	Sololá	3	Barraneche	9	Septiembre	2023-09-19T00:00:00	2024-11-06T01:00:00	7	Dirección del viento	4.83
50127	7	Sololá	701	Sololá	3	Barraneche	9	Septiembre	2023-09-19T00:00:00	2024-11-06T01:00:00	1	Precipitación	0
50128	7	Sololá	701	Sololá	3	Barraneche	9	Septiembre	2023-09-19T00:00:00	2024-11-06T01:00:00	8	Radiación solar	0
50129	7	Sololá	701	Sololá	3	Barraneche	9	Septiembre	2023-09-19T00:00:00	2024-11-06T02:00:00	2	Temperatura media	13.7
50130	7	Sololá	701	Sololá	3	Barraneche	9	Septiembre	2023-09-19T00:00:00	2024-11-06T02:00:00	4	Temperatura máxima	14
50131	7	Sololá	701	Sololá	3	Barraneche	9	Septiembre	2023-09-19T00:00:00	2024-11-06T02:00:00	3	Temperatura mínima	13.3
50132	7	Sololá	701	Sololá	3	Barraneche	9	Septiembre	2023-09-19T00:00:00	2024-11-06T02:00:00	5	Humedad	62
50133	7	Sololá	701	Sololá	3	Barraneche	9	Septiembre	2023-09-19T00:00:00	2024-11-06T02:00:00	6	Velocidad del viento	6.4
50134	7	Sololá	701	Sololá	3	Barraneche	9	Septiembre	2023-09-19T00:00:00	2024-11-06T02:00:00	7	Dirección del viento	6.44
50135	7	Sololá	701	Sololá	3	Barraneche	9	Septiembre	2023-09-19T00:00:00	2024-11-06T02:00:00	1	Precipitación	0
50136	7	Sololá	701	Sololá	3	Barraneche	9	Septiembre	2023-09-19T00:00:00	2024-11-06T02:00:00	8	Radiación solar	0
50137	7	Sololá	701	Sololá	3	Barraneche	9	Septiembre	2023-09-19T00:00:00	2024-11-06T03:00:00	2	Temperatura media	13.3
50138	7	Sololá	701	Sololá	3	Barraneche	9	Septiembre	2023-09-19T00:00:00	2024-11-06T03:00:00	4	Temperatura máxima	13.7
50139	7	Sololá	701	Sololá	3	Barraneche	9	Septiembre	2023-09-19T00:00:00	2024-11-06T03:00:00	3	Temperatura mínima	13.3
50140	7	Sololá	701	Sololá	3	Barraneche	9	Septiembre	2023-09-19T00:00:00	2024-11-06T03:00:00	5	Humedad	58
50141	7	Sololá	701	Sololá	3	Barraneche	9	Septiembre	2023-09-19T00:00:00	2024-11-06T03:00:00	6	Velocidad del viento	9.7
50142	7	Sololá	701	Sololá	3	Barraneche	9	Septiembre	2023-09-19T00:00:00	2024-11-06T03:00:00	7	Dirección del viento	9.66
50143	7	Sololá	701	Sololá	3	Barraneche	9	Septiembre	2023-09-19T00:00:00	2024-11-06T03:00:00	1	Precipitación	0
50144	7	Sololá	701	Sololá	3	Barraneche	9	Septiembre	2023-09-19T00:00:00	2024-11-06T03:00:00	8	Radiación solar	0
50145	7	Sololá	701	Sololá	3	Barraneche	9	Septiembre	2023-09-19T00:00:00	2024-11-06T04:00:00	2	Temperatura media	13.3
50146	7	Sololá	701	Sololá	3	Barraneche	9	Septiembre	2023-09-19T00:00:00	2024-11-06T04:00:00	4	Temperatura máxima	13.4
50147	7	Sololá	701	Sololá	3	Barraneche	9	Septiembre	2023-09-19T00:00:00	2024-11-06T04:00:00	3	Temperatura mínima	12.8
50148	7	Sololá	701	Sololá	3	Barraneche	9	Septiembre	2023-09-19T00:00:00	2024-11-06T04:00:00	5	Humedad	56
50149	7	Sololá	701	Sololá	3	Barraneche	9	Septiembre	2023-09-19T00:00:00	2024-11-06T04:00:00	6	Velocidad del viento	11.3
50150	7	Sololá	701	Sololá	3	Barraneche	9	Septiembre	2023-09-19T00:00:00	2024-11-06T04:00:00	7	Dirección del viento	11.27
50151	7	Sololá	701	Sololá	3	Barraneche	9	Septiembre	2023-09-19T00:00:00	2024-11-06T04:00:00	1	Precipitación	0
50152	7	Sololá	701	Sololá	3	Barraneche	9	Septiembre	2023-09-19T00:00:00	2024-11-06T04:00:00	8	Radiación solar	0
50153	7	Sololá	701	Sololá	3	Barraneche	9	Septiembre	2023-09-19T00:00:00	2024-11-06T05:00:00	2	Temperatura media	12.9
50154	7	Sololá	701	Sololá	3	Barraneche	9	Septiembre	2023-09-19T00:00:00	2024-11-06T05:00:00	4	Temperatura máxima	13.3
50155	7	Sololá	701	Sololá	3	Barraneche	9	Septiembre	2023-09-19T00:00:00	2024-11-06T05:00:00	3	Temperatura mínima	12.8
50156	7	Sololá	701	Sololá	3	Barraneche	9	Septiembre	2023-09-19T00:00:00	2024-11-06T05:00:00	5	Humedad	52
50157	7	Sololá	701	Sololá	3	Barraneche	9	Septiembre	2023-09-19T00:00:00	2024-11-06T05:00:00	6	Velocidad del viento	12.9
50158	7	Sololá	701	Sololá	3	Barraneche	9	Septiembre	2023-09-19T00:00:00	2024-11-06T05:00:00	7	Dirección del viento	12.87
50159	7	Sololá	701	Sololá	3	Barraneche	9	Septiembre	2023-09-19T00:00:00	2024-11-06T05:00:00	1	Precipitación	0
50160	7	Sololá	701	Sololá	3	Barraneche	9	Septiembre	2023-09-19T00:00:00	2024-11-06T05:00:00	8	Radiación solar	0
50161	7	Sololá	701	Sololá	3	Barraneche	9	Septiembre	2023-09-19T00:00:00	2024-11-06T06:00:00	2	Temperatura media	13.3
50162	7	Sololá	701	Sololá	3	Barraneche	9	Septiembre	2023-09-19T00:00:00	2024-11-06T06:00:00	4	Temperatura máxima	13.8
50163	7	Sololá	701	Sololá	3	Barraneche	9	Septiembre	2023-09-19T00:00:00	2024-11-06T06:00:00	3	Temperatura mínima	12.9
50164	7	Sololá	701	Sololá	3	Barraneche	9	Septiembre	2023-09-19T00:00:00	2024-11-06T06:00:00	5	Humedad	45
50165	7	Sololá	701	Sololá	3	Barraneche	9	Septiembre	2023-09-19T00:00:00	2024-11-06T06:00:00	6	Velocidad del viento	12.9
50166	7	Sololá	701	Sololá	3	Barraneche	9	Septiembre	2023-09-19T00:00:00	2024-11-06T06:00:00	7	Dirección del viento	12.87
50167	7	Sololá	701	Sololá	3	Barraneche	9	Septiembre	2023-09-19T00:00:00	2024-11-06T06:00:00	1	Precipitación	0
50168	7	Sololá	701	Sololá	3	Barraneche	9	Septiembre	2023-09-19T00:00:00	2024-11-06T06:00:00	8	Radiación solar	1
50169	7	Sololá	701	Sololá	3	Barraneche	9	Septiembre	2023-09-19T00:00:00	2024-11-06T07:00:00	2	Temperatura media	13.4
50170	7	Sololá	701	Sololá	3	Barraneche	9	Septiembre	2023-09-19T00:00:00	2024-11-06T07:00:00	4	Temperatura máxima	13.4
50171	7	Sololá	701	Sololá	3	Barraneche	9	Septiembre	2023-09-19T00:00:00	2024-11-06T07:00:00	3	Temperatura mínima	13.1
50172	7	Sololá	701	Sololá	3	Barraneche	9	Septiembre	2023-09-19T00:00:00	2024-11-06T07:00:00	5	Humedad	43
50173	7	Sololá	701	Sololá	3	Barraneche	9	Septiembre	2023-09-19T00:00:00	2024-11-06T07:00:00	6	Velocidad del viento	8
50174	7	Sololá	701	Sololá	3	Barraneche	9	Septiembre	2023-09-19T00:00:00	2024-11-06T07:00:00	7	Dirección del viento	8.05
50175	7	Sololá	701	Sololá	3	Barraneche	9	Septiembre	2023-09-19T00:00:00	2024-11-06T07:00:00	1	Precipitación	0
50176	7	Sololá	701	Sololá	3	Barraneche	9	Septiembre	2023-09-19T00:00:00	2024-11-06T07:00:00	8	Radiación solar	64
50177	7	Sololá	701	Sololá	3	Barraneche	9	Septiembre	2023-09-19T00:00:00	2024-11-06T08:00:00	2	Temperatura media	15.9
50178	7	Sololá	701	Sololá	3	Barraneche	9	Septiembre	2023-09-19T00:00:00	2024-11-06T08:00:00	4	Temperatura máxima	16.8
50179	7	Sololá	701	Sololá	3	Barraneche	9	Septiembre	2023-09-19T00:00:00	2024-11-06T08:00:00	3	Temperatura mínima	13.4
50180	7	Sololá	701	Sololá	3	Barraneche	9	Septiembre	2023-09-19T00:00:00	2024-11-06T08:00:00	5	Humedad	39
50181	7	Sololá	701	Sololá	3	Barraneche	9	Septiembre	2023-09-19T00:00:00	2024-11-06T08:00:00	6	Velocidad del viento	4.8
50182	7	Sololá	701	Sololá	3	Barraneche	9	Septiembre	2023-09-19T00:00:00	2024-11-06T08:00:00	7	Dirección del viento	4.83
50183	7	Sololá	701	Sololá	3	Barraneche	9	Septiembre	2023-09-19T00:00:00	2024-11-06T08:00:00	1	Precipitación	0
50184	7	Sololá	701	Sololá	3	Barraneche	9	Septiembre	2023-09-19T00:00:00	2024-11-06T08:00:00	8	Radiación solar	282
50185	7	Sololá	701	Sololá	3	Barraneche	9	Septiembre	2023-09-19T00:00:00	2024-11-06T09:00:00	2	Temperatura media	18.1
50186	7	Sololá	701	Sololá	3	Barraneche	9	Septiembre	2023-09-19T00:00:00	2024-11-06T09:00:00	4	Temperatura máxima	18.2
50187	7	Sololá	701	Sololá	3	Barraneche	9	Septiembre	2023-09-19T00:00:00	2024-11-06T09:00:00	3	Temperatura mínima	15.8
50188	7	Sololá	701	Sololá	3	Barraneche	9	Septiembre	2023-09-19T00:00:00	2024-11-06T09:00:00	5	Humedad	29
50189	7	Sololá	701	Sololá	3	Barraneche	9	Septiembre	2023-09-19T00:00:00	2024-11-06T09:00:00	6	Velocidad del viento	9.7
50190	7	Sololá	701	Sololá	3	Barraneche	9	Septiembre	2023-09-19T00:00:00	2024-11-06T09:00:00	7	Dirección del viento	9.66
50191	7	Sololá	701	Sololá	3	Barraneche	9	Septiembre	2023-09-19T00:00:00	2024-11-06T09:00:00	1	Precipitación	0
50192	7	Sololá	701	Sololá	3	Barraneche	9	Septiembre	2023-09-19T00:00:00	2024-11-06T09:00:00	8	Radiación solar	484
50193	7	Sololá	701	Sololá	3	Barraneche	9	Septiembre	2023-09-19T00:00:00	2024-11-06T10:00:00	2	Temperatura media	19.1
50194	7	Sololá	701	Sololá	3	Barraneche	9	Septiembre	2023-09-19T00:00:00	2024-11-06T10:00:00	4	Temperatura máxima	19.1
50195	7	Sololá	701	Sololá	3	Barraneche	9	Septiembre	2023-09-19T00:00:00	2024-11-06T10:00:00	3	Temperatura mínima	18
50196	7	Sololá	701	Sololá	3	Barraneche	9	Septiembre	2023-09-19T00:00:00	2024-11-06T10:00:00	5	Humedad	28
50197	7	Sololá	701	Sololá	3	Barraneche	9	Septiembre	2023-09-19T00:00:00	2024-11-06T10:00:00	6	Velocidad del viento	11.3
50198	7	Sololá	701	Sololá	3	Barraneche	9	Septiembre	2023-09-19T00:00:00	2024-11-06T10:00:00	7	Dirección del viento	11.27
50199	7	Sololá	701	Sololá	3	Barraneche	9	Septiembre	2023-09-19T00:00:00	2024-11-06T10:00:00	1	Precipitación	0
50200	7	Sololá	701	Sololá	3	Barraneche	9	Septiembre	2023-09-19T00:00:00	2024-11-06T10:00:00	8	Radiación solar	794
50201	7	Sololá	701	Sololá	3	Barraneche	9	Septiembre	2023-09-19T00:00:00	2024-11-06T11:00:00	2	Temperatura media	19.6
50202	7	Sololá	701	Sololá	3	Barraneche	9	Septiembre	2023-09-19T00:00:00	2024-11-06T11:00:00	4	Temperatura máxima	19.9
50203	7	Sololá	701	Sololá	3	Barraneche	9	Septiembre	2023-09-19T00:00:00	2024-11-06T11:00:00	3	Temperatura mínima	19
50204	7	Sololá	701	Sololá	3	Barraneche	9	Septiembre	2023-09-19T00:00:00	2024-11-06T11:00:00	5	Humedad	30
50205	7	Sololá	701	Sololá	3	Barraneche	9	Septiembre	2023-09-19T00:00:00	2024-11-06T11:00:00	6	Velocidad del viento	9.7
50206	7	Sololá	701	Sololá	3	Barraneche	9	Septiembre	2023-09-19T00:00:00	2024-11-06T11:00:00	7	Dirección del viento	9.66
50207	7	Sololá	701	Sololá	3	Barraneche	9	Septiembre	2023-09-19T00:00:00	2024-11-06T11:00:00	1	Precipitación	0
50208	7	Sololá	701	Sololá	3	Barraneche	9	Septiembre	2023-09-19T00:00:00	2024-11-06T11:00:00	8	Radiación solar	932
50209	7	Sololá	701	Sololá	3	Barraneche	9	Septiembre	2023-09-19T00:00:00	2024-11-06T12:00:00	2	Temperatura media	19.9
50210	7	Sololá	701	Sololá	3	Barraneche	9	Septiembre	2023-09-19T00:00:00	2024-11-06T12:00:00	4	Temperatura máxima	19.9
50211	7	Sololá	701	Sololá	3	Barraneche	9	Septiembre	2023-09-19T00:00:00	2024-11-06T12:00:00	3	Temperatura mínima	19.1
50212	7	Sololá	701	Sololá	3	Barraneche	9	Septiembre	2023-09-19T00:00:00	2024-11-06T12:00:00	5	Humedad	32
50213	7	Sololá	701	Sololá	3	Barraneche	9	Septiembre	2023-09-19T00:00:00	2024-11-06T12:00:00	6	Velocidad del viento	11.3
50214	7	Sololá	701	Sololá	3	Barraneche	9	Septiembre	2023-09-19T00:00:00	2024-11-06T12:00:00	7	Dirección del viento	11.27
50215	7	Sololá	701	Sololá	3	Barraneche	9	Septiembre	2023-09-19T00:00:00	2024-11-06T12:00:00	1	Precipitación	0
50216	7	Sololá	701	Sololá	3	Barraneche	9	Septiembre	2023-09-19T00:00:00	2024-11-06T12:00:00	8	Radiación solar	1002
50217	7	Sololá	701	Sololá	3	Barraneche	9	Septiembre	2023-09-19T00:00:00	2024-11-06T13:00:00	2	Temperatura media	19.9
50218	7	Sololá	701	Sololá	3	Barraneche	9	Septiembre	2023-09-19T00:00:00	2024-11-06T13:00:00	4	Temperatura máxima	20.1
50219	7	Sololá	701	Sololá	3	Barraneche	9	Septiembre	2023-09-19T00:00:00	2024-11-06T13:00:00	3	Temperatura mínima	19.6
50220	7	Sololá	701	Sololá	3	Barraneche	9	Septiembre	2023-09-19T00:00:00	2024-11-06T13:00:00	5	Humedad	34
50221	7	Sololá	701	Sololá	3	Barraneche	9	Septiembre	2023-09-19T00:00:00	2024-11-06T13:00:00	6	Velocidad del viento	11.3
50222	7	Sololá	701	Sololá	3	Barraneche	9	Septiembre	2023-09-19T00:00:00	2024-11-06T13:00:00	7	Dirección del viento	11.27
50223	7	Sololá	701	Sololá	3	Barraneche	9	Septiembre	2023-09-19T00:00:00	2024-11-06T13:00:00	1	Precipitación	0
50224	7	Sololá	701	Sololá	3	Barraneche	9	Septiembre	2023-09-19T00:00:00	2024-11-06T13:00:00	8	Radiación solar	1003
50225	7	Sololá	701	Sololá	3	Barraneche	9	Septiembre	2023-09-19T00:00:00	2024-11-06T14:00:00	2	Temperatura media	20.2
50226	7	Sololá	701	Sololá	3	Barraneche	9	Septiembre	2023-09-19T00:00:00	2024-11-06T14:00:00	4	Temperatura máxima	20.4
50227	7	Sololá	701	Sololá	3	Barraneche	9	Septiembre	2023-09-19T00:00:00	2024-11-06T14:00:00	3	Temperatura mínima	19.7
50228	7	Sololá	701	Sololá	3	Barraneche	9	Septiembre	2023-09-19T00:00:00	2024-11-06T14:00:00	5	Humedad	34
50229	7	Sololá	701	Sololá	3	Barraneche	9	Septiembre	2023-09-19T00:00:00	2024-11-06T14:00:00	6	Velocidad del viento	11.3
50230	7	Sololá	701	Sololá	3	Barraneche	9	Septiembre	2023-09-19T00:00:00	2024-11-06T14:00:00	7	Dirección del viento	11.27
50231	7	Sololá	701	Sololá	3	Barraneche	9	Septiembre	2023-09-19T00:00:00	2024-11-06T14:00:00	1	Precipitación	0
50232	7	Sololá	701	Sololá	3	Barraneche	9	Septiembre	2023-09-19T00:00:00	2024-11-06T14:00:00	8	Radiación solar	923
50233	7	Sololá	701	Sololá	3	Barraneche	9	Septiembre	2023-09-19T00:00:00	2024-11-06T15:00:00	2	Temperatura media	19.9
50234	7	Sololá	701	Sololá	3	Barraneche	9	Septiembre	2023-09-19T00:00:00	2024-11-06T15:00:00	4	Temperatura máxima	20.3
50235	7	Sololá	701	Sololá	3	Barraneche	9	Septiembre	2023-09-19T00:00:00	2024-11-06T15:00:00	3	Temperatura mínima	19.6
50236	7	Sololá	701	Sololá	3	Barraneche	9	Septiembre	2023-09-19T00:00:00	2024-11-06T15:00:00	5	Humedad	38
50237	7	Sololá	701	Sololá	3	Barraneche	9	Septiembre	2023-09-19T00:00:00	2024-11-06T15:00:00	6	Velocidad del viento	11.3
50238	7	Sololá	701	Sololá	3	Barraneche	9	Septiembre	2023-09-19T00:00:00	2024-11-06T15:00:00	7	Dirección del viento	11.27
50239	7	Sololá	701	Sololá	3	Barraneche	9	Septiembre	2023-09-19T00:00:00	2024-11-06T15:00:00	1	Precipitación	0
50240	7	Sololá	701	Sololá	3	Barraneche	9	Septiembre	2023-09-19T00:00:00	2024-11-06T15:00:00	8	Radiación solar	767
50241	7	Sololá	701	Sololá	3	Barraneche	9	Septiembre	2023-09-19T00:00:00	2024-11-06T16:00:00	2	Temperatura media	19.6
50242	7	Sololá	701	Sololá	3	Barraneche	9	Septiembre	2023-09-19T00:00:00	2024-11-06T16:00:00	4	Temperatura máxima	20
50243	7	Sololá	701	Sololá	3	Barraneche	9	Septiembre	2023-09-19T00:00:00	2024-11-06T16:00:00	3	Temperatura mínima	19.4
50244	7	Sololá	701	Sololá	3	Barraneche	9	Septiembre	2023-09-19T00:00:00	2024-11-06T16:00:00	5	Humedad	40
50245	7	Sololá	701	Sololá	3	Barraneche	9	Septiembre	2023-09-19T00:00:00	2024-11-06T16:00:00	6	Velocidad del viento	9.7
50246	7	Sololá	701	Sololá	3	Barraneche	9	Septiembre	2023-09-19T00:00:00	2024-11-06T16:00:00	7	Dirección del viento	9.66
50247	7	Sololá	701	Sololá	3	Barraneche	9	Septiembre	2023-09-19T00:00:00	2024-11-06T16:00:00	1	Precipitación	0
50248	7	Sololá	701	Sololá	3	Barraneche	9	Septiembre	2023-09-19T00:00:00	2024-11-06T16:00:00	8	Radiación solar	535
50249	7	Sololá	701	Sololá	3	Barraneche	9	Septiembre	2023-09-19T00:00:00	2024-11-06T17:00:00	2	Temperatura media	18.3
50250	7	Sololá	701	Sololá	3	Barraneche	9	Septiembre	2023-09-19T00:00:00	2024-11-06T17:00:00	4	Temperatura máxima	19.6
50251	7	Sololá	701	Sololá	3	Barraneche	9	Septiembre	2023-09-19T00:00:00	2024-11-06T17:00:00	3	Temperatura mínima	18.3
50252	7	Sololá	701	Sololá	3	Barraneche	9	Septiembre	2023-09-19T00:00:00	2024-11-06T17:00:00	5	Humedad	50
50253	7	Sololá	701	Sololá	3	Barraneche	9	Septiembre	2023-09-19T00:00:00	2024-11-06T17:00:00	6	Velocidad del viento	12.9
50254	7	Sololá	701	Sololá	3	Barraneche	9	Septiembre	2023-09-19T00:00:00	2024-11-06T17:00:00	7	Dirección del viento	12.87
50255	7	Sololá	701	Sololá	3	Barraneche	9	Septiembre	2023-09-19T00:00:00	2024-11-06T17:00:00	1	Precipitación	0
50256	7	Sololá	701	Sololá	3	Barraneche	9	Septiembre	2023-09-19T00:00:00	2024-11-06T17:00:00	8	Radiación solar	245
50257	7	Sololá	701	Sololá	3	Barraneche	9	Septiembre	2023-09-19T00:00:00	2024-11-06T18:00:00	2	Temperatura media	15.9
50258	7	Sololá	701	Sololá	3	Barraneche	9	Septiembre	2023-09-19T00:00:00	2024-11-06T18:00:00	4	Temperatura máxima	18.3
50259	7	Sololá	701	Sololá	3	Barraneche	9	Septiembre	2023-09-19T00:00:00	2024-11-06T18:00:00	3	Temperatura mínima	15.9
50260	7	Sololá	701	Sololá	3	Barraneche	9	Septiembre	2023-09-19T00:00:00	2024-11-06T18:00:00	5	Humedad	56
50261	7	Sololá	701	Sololá	3	Barraneche	9	Septiembre	2023-09-19T00:00:00	2024-11-06T18:00:00	6	Velocidad del viento	8
50262	7	Sololá	701	Sololá	3	Barraneche	9	Septiembre	2023-09-19T00:00:00	2024-11-06T18:00:00	7	Dirección del viento	8.05
50263	7	Sololá	701	Sololá	3	Barraneche	9	Septiembre	2023-09-19T00:00:00	2024-11-06T18:00:00	1	Precipitación	0
50264	7	Sololá	701	Sololá	3	Barraneche	9	Septiembre	2023-09-19T00:00:00	2024-11-06T18:00:00	8	Radiación solar	50
50265	7	Sololá	701	Sololá	3	Barraneche	9	Septiembre	2023-09-19T00:00:00	2024-11-06T19:00:00	2	Temperatura media	15.2
50266	7	Sololá	701	Sololá	3	Barraneche	9	Septiembre	2023-09-19T00:00:00	2024-11-06T19:00:00	4	Temperatura máxima	16
50267	7	Sololá	701	Sololá	3	Barraneche	9	Septiembre	2023-09-19T00:00:00	2024-11-06T19:00:00	3	Temperatura mínima	15.2
50268	7	Sololá	701	Sololá	3	Barraneche	9	Septiembre	2023-09-19T00:00:00	2024-11-06T19:00:00	5	Humedad	63
50269	7	Sololá	701	Sololá	3	Barraneche	9	Septiembre	2023-09-19T00:00:00	2024-11-06T19:00:00	6	Velocidad del viento	6.4
50270	7	Sololá	701	Sololá	3	Barraneche	9	Septiembre	2023-09-19T00:00:00	2024-11-06T19:00:00	7	Dirección del viento	6.44
50271	7	Sololá	701	Sololá	3	Barraneche	9	Septiembre	2023-09-19T00:00:00	2024-11-06T19:00:00	1	Precipitación	0
50272	7	Sololá	701	Sololá	3	Barraneche	9	Septiembre	2023-09-19T00:00:00	2024-11-06T19:00:00	8	Radiación solar	0
50273	7	Sololá	701	Sololá	3	Barraneche	9	Septiembre	2023-09-19T00:00:00	2024-11-06T20:00:00	2	Temperatura media	15
50274	7	Sololá	701	Sololá	3	Barraneche	9	Septiembre	2023-09-19T00:00:00	2024-11-06T20:00:00	4	Temperatura máxima	15.2
50275	7	Sololá	701	Sololá	3	Barraneche	9	Septiembre	2023-09-19T00:00:00	2024-11-06T20:00:00	3	Temperatura mínima	14.6
50276	7	Sololá	701	Sololá	3	Barraneche	9	Septiembre	2023-09-19T00:00:00	2024-11-06T20:00:00	5	Humedad	65
50277	7	Sololá	701	Sololá	3	Barraneche	9	Septiembre	2023-09-19T00:00:00	2024-11-06T20:00:00	6	Velocidad del viento	4.8
50278	7	Sololá	701	Sololá	3	Barraneche	9	Septiembre	2023-09-19T00:00:00	2024-11-06T20:00:00	7	Dirección del viento	4.83
50279	7	Sololá	701	Sololá	3	Barraneche	9	Septiembre	2023-09-19T00:00:00	2024-11-06T20:00:00	1	Precipitación	0
50280	7	Sololá	701	Sololá	3	Barraneche	9	Septiembre	2023-09-19T00:00:00	2024-11-06T20:00:00	8	Radiación solar	0
50281	7	Sololá	701	Sololá	3	Barraneche	9	Septiembre	2023-09-19T00:00:00	2024-11-06T21:00:00	2	Temperatura media	14.8
50282	7	Sololá	701	Sololá	3	Barraneche	9	Septiembre	2023-09-19T00:00:00	2024-11-06T21:00:00	4	Temperatura máxima	15.2
50283	7	Sololá	701	Sololá	3	Barraneche	9	Septiembre	2023-09-19T00:00:00	2024-11-06T21:00:00	3	Temperatura mínima	14.6
50284	7	Sololá	701	Sololá	3	Barraneche	9	Septiembre	2023-09-19T00:00:00	2024-11-06T21:00:00	5	Humedad	64
50285	7	Sololá	701	Sololá	3	Barraneche	9	Septiembre	2023-09-19T00:00:00	2024-11-06T21:00:00	6	Velocidad del viento	6.4
50286	7	Sololá	701	Sololá	3	Barraneche	9	Septiembre	2023-09-19T00:00:00	2024-11-06T21:00:00	7	Dirección del viento	6.44
50287	7	Sololá	701	Sololá	3	Barraneche	9	Septiembre	2023-09-19T00:00:00	2024-11-06T21:00:00	1	Precipitación	0
50288	7	Sololá	701	Sololá	3	Barraneche	9	Septiembre	2023-09-19T00:00:00	2024-11-06T21:00:00	8	Radiación solar	0
50289	7	Sololá	701	Sololá	3	Barraneche	9	Septiembre	2023-09-19T00:00:00	2024-11-06T22:00:00	2	Temperatura media	13.4
50290	7	Sololá	701	Sololá	3	Barraneche	9	Septiembre	2023-09-19T00:00:00	2024-11-06T22:00:00	4	Temperatura máxima	14.8
50291	7	Sololá	701	Sololá	3	Barraneche	9	Septiembre	2023-09-19T00:00:00	2024-11-06T22:00:00	3	Temperatura mínima	13.4
50292	7	Sololá	701	Sololá	3	Barraneche	9	Septiembre	2023-09-19T00:00:00	2024-11-06T22:00:00	5	Humedad	67
50293	7	Sololá	701	Sololá	3	Barraneche	9	Septiembre	2023-09-19T00:00:00	2024-11-06T22:00:00	6	Velocidad del viento	4.8
50294	7	Sololá	701	Sololá	3	Barraneche	9	Septiembre	2023-09-19T00:00:00	2024-11-06T22:00:00	7	Dirección del viento	4.83
50295	7	Sololá	701	Sololá	3	Barraneche	9	Septiembre	2023-09-19T00:00:00	2024-11-06T22:00:00	1	Precipitación	0
50296	7	Sololá	701	Sololá	3	Barraneche	9	Septiembre	2023-09-19T00:00:00	2024-11-06T22:00:00	8	Radiación solar	0
50297	7	Sololá	701	Sololá	3	Barraneche	9	Septiembre	2023-09-19T00:00:00	2024-11-06T23:00:00	2	Temperatura media	13.1
50298	7	Sololá	701	Sololá	3	Barraneche	9	Septiembre	2023-09-19T00:00:00	2024-11-06T23:00:00	4	Temperatura máxima	13.8
50299	7	Sololá	701	Sololá	3	Barraneche	9	Septiembre	2023-09-19T00:00:00	2024-11-06T23:00:00	3	Temperatura mínima	12.7
50300	7	Sololá	701	Sololá	3	Barraneche	9	Septiembre	2023-09-19T00:00:00	2024-11-06T23:00:00	5	Humedad	68
50301	7	Sololá	701	Sololá	3	Barraneche	9	Septiembre	2023-09-19T00:00:00	2024-11-06T23:00:00	6	Velocidad del viento	3.2
50302	7	Sololá	701	Sololá	3	Barraneche	9	Septiembre	2023-09-19T00:00:00	2024-11-06T23:00:00	7	Dirección del viento	3.22
50303	7	Sololá	701	Sololá	3	Barraneche	9	Septiembre	2023-09-19T00:00:00	2024-11-06T23:00:00	1	Precipitación	0
50304	7	Sololá	701	Sololá	3	Barraneche	9	Septiembre	2023-09-19T00:00:00	2024-11-06T23:00:00	8	Radiación solar	0
50305	7	Sololá	701	Sololá	3	Barraneche	9	Septiembre	2023-09-20T00:00:00	2024-11-06T00:00:00	2	Temperatura media	13.2
50306	7	Sololá	701	Sololá	3	Barraneche	9	Septiembre	2023-09-20T00:00:00	2024-11-06T00:00:00	4	Temperatura máxima	13.6
50307	7	Sololá	701	Sololá	3	Barraneche	9	Septiembre	2023-09-20T00:00:00	2024-11-06T00:00:00	3	Temperatura mínima	12.8
50308	7	Sololá	701	Sololá	3	Barraneche	9	Septiembre	2023-09-20T00:00:00	2024-11-06T00:00:00	5	Humedad	64
50309	7	Sololá	701	Sololá	3	Barraneche	9	Septiembre	2023-09-20T00:00:00	2024-11-06T00:00:00	6	Velocidad del viento	3.2
50310	7	Sololá	701	Sololá	3	Barraneche	9	Septiembre	2023-09-20T00:00:00	2024-11-06T00:00:00	7	Dirección del viento	3.22
50311	7	Sololá	701	Sololá	3	Barraneche	9	Septiembre	2023-09-20T00:00:00	2024-11-06T00:00:00	1	Precipitación	0
50312	7	Sololá	701	Sololá	3	Barraneche	9	Septiembre	2023-09-20T00:00:00	2024-11-06T00:00:00	8	Radiación solar	0
50313	7	Sololá	701	Sololá	3	Barraneche	9	Septiembre	2023-09-20T00:00:00	2024-11-06T01:00:00	2	Temperatura media	14.1
50314	7	Sololá	701	Sololá	3	Barraneche	9	Septiembre	2023-09-20T00:00:00	2024-11-06T01:00:00	4	Temperatura máxima	14.1
50315	7	Sololá	701	Sololá	3	Barraneche	9	Septiembre	2023-09-20T00:00:00	2024-11-06T01:00:00	3	Temperatura mínima	13.2
50316	7	Sololá	701	Sololá	3	Barraneche	9	Septiembre	2023-09-20T00:00:00	2024-11-06T01:00:00	5	Humedad	59
50317	7	Sololá	701	Sololá	3	Barraneche	9	Septiembre	2023-09-20T00:00:00	2024-11-06T01:00:00	6	Velocidad del viento	11.3
50318	7	Sololá	701	Sololá	3	Barraneche	9	Septiembre	2023-09-20T00:00:00	2024-11-06T01:00:00	7	Dirección del viento	11.27
50319	7	Sololá	701	Sololá	3	Barraneche	9	Septiembre	2023-09-20T00:00:00	2024-11-06T01:00:00	1	Precipitación	0
50320	7	Sololá	701	Sololá	3	Barraneche	9	Septiembre	2023-09-20T00:00:00	2024-11-06T01:00:00	8	Radiación solar	0
50321	7	Sololá	701	Sololá	3	Barraneche	9	Septiembre	2023-09-20T00:00:00	2024-11-06T02:00:00	2	Temperatura media	11.9
50322	7	Sololá	701	Sololá	3	Barraneche	9	Septiembre	2023-09-20T00:00:00	2024-11-06T02:00:00	4	Temperatura máxima	14.1
50323	7	Sololá	701	Sololá	3	Barraneche	9	Septiembre	2023-09-20T00:00:00	2024-11-06T02:00:00	3	Temperatura mínima	11.9
50324	7	Sololá	701	Sololá	3	Barraneche	9	Septiembre	2023-09-20T00:00:00	2024-11-06T02:00:00	5	Humedad	66
50325	7	Sololá	701	Sololá	3	Barraneche	9	Septiembre	2023-09-20T00:00:00	2024-11-06T02:00:00	6	Velocidad del viento	8
50326	7	Sololá	701	Sololá	3	Barraneche	9	Septiembre	2023-09-20T00:00:00	2024-11-06T02:00:00	7	Dirección del viento	8.05
50327	7	Sololá	701	Sololá	3	Barraneche	9	Septiembre	2023-09-20T00:00:00	2024-11-06T02:00:00	1	Precipitación	0
50328	7	Sololá	701	Sololá	3	Barraneche	9	Septiembre	2023-09-20T00:00:00	2024-11-06T02:00:00	8	Radiación solar	0
50329	7	Sololá	701	Sololá	3	Barraneche	9	Septiembre	2023-09-20T00:00:00	2024-11-06T03:00:00	2	Temperatura media	11.9
50330	7	Sololá	701	Sololá	3	Barraneche	9	Septiembre	2023-09-20T00:00:00	2024-11-06T03:00:00	4	Temperatura máxima	13.2
50331	7	Sololá	701	Sololá	3	Barraneche	9	Septiembre	2023-09-20T00:00:00	2024-11-06T03:00:00	3	Temperatura mínima	11.7
50332	7	Sololá	701	Sololá	3	Barraneche	9	Septiembre	2023-09-20T00:00:00	2024-11-06T03:00:00	5	Humedad	65
50333	7	Sololá	701	Sololá	3	Barraneche	9	Septiembre	2023-09-20T00:00:00	2024-11-06T03:00:00	6	Velocidad del viento	4.8
50334	7	Sololá	701	Sololá	3	Barraneche	9	Septiembre	2023-09-20T00:00:00	2024-11-06T03:00:00	7	Dirección del viento	4.83
50335	7	Sololá	701	Sololá	3	Barraneche	9	Septiembre	2023-09-20T00:00:00	2024-11-06T03:00:00	1	Precipitación	0
50336	7	Sololá	701	Sololá	3	Barraneche	9	Septiembre	2023-09-20T00:00:00	2024-11-06T03:00:00	8	Radiación solar	0
50337	7	Sololá	701	Sololá	3	Barraneche	9	Septiembre	2023-09-20T00:00:00	2024-11-06T04:00:00	2	Temperatura media	10.3
50338	7	Sololá	701	Sololá	3	Barraneche	9	Septiembre	2023-09-20T00:00:00	2024-11-06T04:00:00	4	Temperatura máxima	11.9
50339	7	Sololá	701	Sololá	3	Barraneche	9	Septiembre	2023-09-20T00:00:00	2024-11-06T04:00:00	3	Temperatura mínima	10.3
50340	7	Sololá	701	Sololá	3	Barraneche	9	Septiembre	2023-09-20T00:00:00	2024-11-06T04:00:00	5	Humedad	69
50341	7	Sololá	701	Sololá	3	Barraneche	9	Septiembre	2023-09-20T00:00:00	2024-11-06T04:00:00	6	Velocidad del viento	4.8
50342	7	Sololá	701	Sololá	3	Barraneche	9	Septiembre	2023-09-20T00:00:00	2024-11-06T04:00:00	7	Dirección del viento	4.83
50343	7	Sololá	701	Sololá	3	Barraneche	9	Septiembre	2023-09-20T00:00:00	2024-11-06T04:00:00	1	Precipitación	0
50344	7	Sololá	701	Sololá	3	Barraneche	9	Septiembre	2023-09-20T00:00:00	2024-11-06T04:00:00	8	Radiación solar	0
50345	7	Sololá	701	Sololá	3	Barraneche	9	Septiembre	2023-09-20T00:00:00	2024-11-06T05:00:00	2	Temperatura media	9.9
50346	7	Sololá	701	Sololá	3	Barraneche	9	Septiembre	2023-09-20T00:00:00	2024-11-06T05:00:00	4	Temperatura máxima	10.3
50347	7	Sololá	701	Sololá	3	Barraneche	9	Septiembre	2023-09-20T00:00:00	2024-11-06T05:00:00	3	Temperatura mínima	9.9
50348	7	Sololá	701	Sololá	3	Barraneche	9	Septiembre	2023-09-20T00:00:00	2024-11-06T05:00:00	5	Humedad	69
50349	7	Sololá	701	Sololá	3	Barraneche	9	Septiembre	2023-09-20T00:00:00	2024-11-06T05:00:00	6	Velocidad del viento	3.2
50350	7	Sololá	701	Sololá	3	Barraneche	9	Septiembre	2023-09-20T00:00:00	2024-11-06T05:00:00	7	Dirección del viento	3.22
50351	7	Sololá	701	Sololá	3	Barraneche	9	Septiembre	2023-09-20T00:00:00	2024-11-06T05:00:00	1	Precipitación	0
50352	7	Sololá	701	Sololá	3	Barraneche	9	Septiembre	2023-09-20T00:00:00	2024-11-06T05:00:00	8	Radiación solar	0
50353	7	Sololá	701	Sololá	3	Barraneche	9	Septiembre	2023-09-20T00:00:00	2024-11-06T06:00:00	2	Temperatura media	9.7
50354	7	Sololá	701	Sololá	3	Barraneche	9	Septiembre	2023-09-20T00:00:00	2024-11-06T06:00:00	4	Temperatura máxima	9.9
50355	7	Sololá	701	Sololá	3	Barraneche	9	Septiembre	2023-09-20T00:00:00	2024-11-06T06:00:00	3	Temperatura mínima	9.3
50356	7	Sololá	701	Sololá	3	Barraneche	9	Septiembre	2023-09-20T00:00:00	2024-11-06T06:00:00	5	Humedad	69
50357	7	Sololá	701	Sololá	3	Barraneche	9	Septiembre	2023-09-20T00:00:00	2024-11-06T06:00:00	6	Velocidad del viento	3.2
50358	7	Sololá	701	Sololá	3	Barraneche	9	Septiembre	2023-09-20T00:00:00	2024-11-06T06:00:00	7	Dirección del viento	3.22
50359	7	Sololá	701	Sololá	3	Barraneche	9	Septiembre	2023-09-20T00:00:00	2024-11-06T06:00:00	1	Precipitación	0
50360	7	Sololá	701	Sololá	3	Barraneche	9	Septiembre	2023-09-20T00:00:00	2024-11-06T06:00:00	8	Radiación solar	0
50361	7	Sololá	701	Sololá	3	Barraneche	9	Septiembre	2023-09-20T00:00:00	2024-11-06T07:00:00	2	Temperatura media	10.9
50362	7	Sololá	701	Sololá	3	Barraneche	9	Septiembre	2023-09-20T00:00:00	2024-11-06T07:00:00	4	Temperatura máxima	10.9
50363	7	Sololá	701	Sololá	3	Barraneche	9	Septiembre	2023-09-20T00:00:00	2024-11-06T07:00:00	3	Temperatura mínima	9.6
50364	7	Sololá	701	Sololá	3	Barraneche	9	Septiembre	2023-09-20T00:00:00	2024-11-06T07:00:00	5	Humedad	69
50365	7	Sololá	701	Sololá	3	Barraneche	9	Septiembre	2023-09-20T00:00:00	2024-11-06T07:00:00	6	Velocidad del viento	3.2
50366	7	Sololá	701	Sololá	3	Barraneche	9	Septiembre	2023-09-20T00:00:00	2024-11-06T07:00:00	7	Dirección del viento	3.22
50367	7	Sololá	701	Sololá	3	Barraneche	9	Septiembre	2023-09-20T00:00:00	2024-11-06T07:00:00	1	Precipitación	0
50368	7	Sololá	701	Sololá	3	Barraneche	9	Septiembre	2023-09-20T00:00:00	2024-11-06T07:00:00	8	Radiación solar	59
50369	7	Sololá	701	Sololá	3	Barraneche	9	Septiembre	2023-09-20T00:00:00	2024-11-06T08:00:00	2	Temperatura media	15.5
50370	7	Sololá	701	Sololá	3	Barraneche	9	Septiembre	2023-09-20T00:00:00	2024-11-06T08:00:00	4	Temperatura máxima	15.5
50371	7	Sololá	701	Sololá	3	Barraneche	9	Septiembre	2023-09-20T00:00:00	2024-11-06T08:00:00	3	Temperatura mínima	10.9
50372	7	Sololá	701	Sololá	3	Barraneche	9	Septiembre	2023-09-20T00:00:00	2024-11-06T08:00:00	5	Humedad	59
50373	7	Sololá	701	Sololá	3	Barraneche	9	Septiembre	2023-09-20T00:00:00	2024-11-06T08:00:00	6	Velocidad del viento	3.2
50374	7	Sololá	701	Sololá	3	Barraneche	9	Septiembre	2023-09-20T00:00:00	2024-11-06T08:00:00	7	Dirección del viento	3.22
50375	7	Sololá	701	Sololá	3	Barraneche	9	Septiembre	2023-09-20T00:00:00	2024-11-06T08:00:00	1	Precipitación	0
50376	7	Sololá	701	Sololá	3	Barraneche	9	Septiembre	2023-09-20T00:00:00	2024-11-06T08:00:00	8	Radiación solar	302
50377	7	Sololá	701	Sololá	3	Barraneche	9	Septiembre	2023-09-20T00:00:00	2024-11-06T09:00:00	2	Temperatura media	18.7
50378	7	Sololá	701	Sololá	3	Barraneche	9	Septiembre	2023-09-20T00:00:00	2024-11-06T09:00:00	4	Temperatura máxima	18.8
50379	7	Sololá	701	Sololá	3	Barraneche	9	Septiembre	2023-09-20T00:00:00	2024-11-06T09:00:00	3	Temperatura mínima	15.5
50380	7	Sololá	701	Sololá	3	Barraneche	9	Septiembre	2023-09-20T00:00:00	2024-11-06T09:00:00	5	Humedad	53
50381	7	Sololá	701	Sololá	3	Barraneche	9	Septiembre	2023-09-20T00:00:00	2024-11-06T09:00:00	6	Velocidad del viento	4.8
50382	7	Sololá	701	Sololá	3	Barraneche	9	Septiembre	2023-09-20T00:00:00	2024-11-06T09:00:00	7	Dirección del viento	4.83
50383	7	Sololá	701	Sololá	3	Barraneche	9	Septiembre	2023-09-20T00:00:00	2024-11-06T09:00:00	1	Precipitación	0
50384	7	Sololá	701	Sololá	3	Barraneche	9	Septiembre	2023-09-20T00:00:00	2024-11-06T09:00:00	8	Radiación solar	576
50385	7	Sololá	701	Sololá	3	Barraneche	9	Septiembre	2023-09-20T00:00:00	2024-11-06T10:00:00	2	Temperatura media	19.8
50386	7	Sololá	701	Sololá	3	Barraneche	9	Septiembre	2023-09-20T00:00:00	2024-11-06T10:00:00	4	Temperatura máxima	19.8
50387	7	Sololá	701	Sololá	3	Barraneche	9	Septiembre	2023-09-20T00:00:00	2024-11-06T10:00:00	3	Temperatura mínima	18.6
50388	7	Sololá	701	Sololá	3	Barraneche	9	Septiembre	2023-09-20T00:00:00	2024-11-06T10:00:00	5	Humedad	47
50389	7	Sololá	701	Sololá	3	Barraneche	9	Septiembre	2023-09-20T00:00:00	2024-11-06T10:00:00	6	Velocidad del viento	11.3
50390	7	Sololá	701	Sololá	3	Barraneche	9	Septiembre	2023-09-20T00:00:00	2024-11-06T10:00:00	7	Dirección del viento	11.27
50391	7	Sololá	701	Sololá	3	Barraneche	9	Septiembre	2023-09-20T00:00:00	2024-11-06T10:00:00	1	Precipitación	0
50392	7	Sololá	701	Sololá	3	Barraneche	9	Septiembre	2023-09-20T00:00:00	2024-11-06T10:00:00	8	Radiación solar	814
50393	7	Sololá	701	Sololá	3	Barraneche	9	Septiembre	2023-09-20T00:00:00	2024-11-06T11:00:00	2	Temperatura media	19.6
50394	7	Sololá	701	Sololá	3	Barraneche	9	Septiembre	2023-09-20T00:00:00	2024-11-06T11:00:00	4	Temperatura máxima	20.1
50395	7	Sololá	701	Sololá	3	Barraneche	9	Septiembre	2023-09-20T00:00:00	2024-11-06T11:00:00	3	Temperatura mínima	19.2
50396	7	Sololá	701	Sololá	3	Barraneche	9	Septiembre	2023-09-20T00:00:00	2024-11-06T11:00:00	5	Humedad	48
50397	7	Sololá	701	Sololá	3	Barraneche	9	Septiembre	2023-09-20T00:00:00	2024-11-06T11:00:00	6	Velocidad del viento	12.9
50398	7	Sololá	701	Sololá	3	Barraneche	9	Septiembre	2023-09-20T00:00:00	2024-11-06T11:00:00	7	Dirección del viento	12.87
50399	7	Sololá	701	Sololá	3	Barraneche	9	Septiembre	2023-09-20T00:00:00	2024-11-06T11:00:00	1	Precipitación	0
50400	7	Sololá	701	Sololá	3	Barraneche	9	Septiembre	2023-09-20T00:00:00	2024-11-06T11:00:00	8	Radiación solar	741
50401	7	Sololá	701	Sololá	3	Barraneche	9	Septiembre	2023-09-20T00:00:00	2024-11-06T12:00:00	2	Temperatura media	19.9
50402	7	Sololá	701	Sololá	3	Barraneche	9	Septiembre	2023-09-20T00:00:00	2024-11-06T12:00:00	4	Temperatura máxima	20.1
50403	7	Sololá	701	Sololá	3	Barraneche	9	Septiembre	2023-09-20T00:00:00	2024-11-06T12:00:00	3	Temperatura mínima	19.6
50404	7	Sololá	701	Sololá	3	Barraneche	9	Septiembre	2023-09-20T00:00:00	2024-11-06T12:00:00	5	Humedad	48
50405	7	Sololá	701	Sololá	3	Barraneche	9	Septiembre	2023-09-20T00:00:00	2024-11-06T12:00:00	6	Velocidad del viento	11.3
50406	7	Sololá	701	Sololá	3	Barraneche	9	Septiembre	2023-09-20T00:00:00	2024-11-06T12:00:00	7	Dirección del viento	11.27
50407	7	Sololá	701	Sololá	3	Barraneche	9	Septiembre	2023-09-20T00:00:00	2024-11-06T12:00:00	1	Precipitación	0
50408	7	Sololá	701	Sololá	3	Barraneche	9	Septiembre	2023-09-20T00:00:00	2024-11-06T12:00:00	8	Radiación solar	787
50409	7	Sololá	701	Sololá	3	Barraneche	9	Septiembre	2023-09-20T00:00:00	2024-11-06T13:00:00	2	Temperatura media	19.8
50410	7	Sololá	701	Sololá	3	Barraneche	9	Septiembre	2023-09-20T00:00:00	2024-11-06T13:00:00	4	Temperatura máxima	20.2
50411	7	Sololá	701	Sololá	3	Barraneche	9	Septiembre	2023-09-20T00:00:00	2024-11-06T13:00:00	3	Temperatura mínima	19.7
50412	7	Sololá	701	Sololá	3	Barraneche	9	Septiembre	2023-09-20T00:00:00	2024-11-06T13:00:00	5	Humedad	49
50413	7	Sololá	701	Sololá	3	Barraneche	9	Septiembre	2023-09-20T00:00:00	2024-11-06T13:00:00	6	Velocidad del viento	9.7
50414	7	Sololá	701	Sololá	3	Barraneche	9	Septiembre	2023-09-20T00:00:00	2024-11-06T13:00:00	7	Dirección del viento	9.66
50415	7	Sololá	701	Sololá	3	Barraneche	9	Septiembre	2023-09-20T00:00:00	2024-11-06T13:00:00	1	Precipitación	0
50416	7	Sololá	701	Sololá	3	Barraneche	9	Septiembre	2023-09-20T00:00:00	2024-11-06T13:00:00	8	Radiación solar	615
50417	7	Sololá	701	Sololá	3	Barraneche	9	Septiembre	2023-09-20T00:00:00	2024-11-06T14:00:00	2	Temperatura media	19.8
50418	7	Sololá	701	Sololá	3	Barraneche	9	Septiembre	2023-09-20T00:00:00	2024-11-06T14:00:00	4	Temperatura máxima	20.6
50419	7	Sololá	701	Sololá	3	Barraneche	9	Septiembre	2023-09-20T00:00:00	2024-11-06T14:00:00	3	Temperatura mínima	19.7
50420	7	Sololá	701	Sololá	3	Barraneche	9	Septiembre	2023-09-20T00:00:00	2024-11-06T14:00:00	5	Humedad	48
50421	7	Sololá	701	Sololá	3	Barraneche	9	Septiembre	2023-09-20T00:00:00	2024-11-06T14:00:00	6	Velocidad del viento	8
50422	7	Sololá	701	Sololá	3	Barraneche	9	Septiembre	2023-09-20T00:00:00	2024-11-06T14:00:00	7	Dirección del viento	8.05
50423	7	Sololá	701	Sololá	3	Barraneche	9	Septiembre	2023-09-20T00:00:00	2024-11-06T14:00:00	1	Precipitación	0
50424	7	Sololá	701	Sololá	3	Barraneche	9	Septiembre	2023-09-20T00:00:00	2024-11-06T14:00:00	8	Radiación solar	544
50425	7	Sololá	701	Sololá	3	Barraneche	9	Septiembre	2023-09-20T00:00:00	2024-11-06T15:00:00	2	Temperatura media	17.9
50426	7	Sololá	701	Sololá	3	Barraneche	9	Septiembre	2023-09-20T00:00:00	2024-11-06T15:00:00	4	Temperatura máxima	19.8
50427	7	Sololá	701	Sololá	3	Barraneche	9	Septiembre	2023-09-20T00:00:00	2024-11-06T15:00:00	3	Temperatura mínima	17.7
50428	7	Sololá	701	Sololá	3	Barraneche	9	Septiembre	2023-09-20T00:00:00	2024-11-06T15:00:00	5	Humedad	58
50429	7	Sololá	701	Sololá	3	Barraneche	9	Septiembre	2023-09-20T00:00:00	2024-11-06T15:00:00	6	Velocidad del viento	8
50430	7	Sololá	701	Sololá	3	Barraneche	9	Septiembre	2023-09-20T00:00:00	2024-11-06T15:00:00	7	Dirección del viento	8.05
50431	7	Sololá	701	Sololá	3	Barraneche	9	Septiembre	2023-09-20T00:00:00	2024-11-06T15:00:00	1	Precipitación	0
50432	7	Sololá	701	Sololá	3	Barraneche	9	Septiembre	2023-09-20T00:00:00	2024-11-06T15:00:00	8	Radiación solar	183
50433	7	Sololá	701	Sololá	3	Barraneche	9	Septiembre	2023-09-20T00:00:00	2024-11-06T16:00:00	2	Temperatura media	17.2
50434	7	Sololá	701	Sololá	3	Barraneche	9	Septiembre	2023-09-20T00:00:00	2024-11-06T16:00:00	4	Temperatura máxima	18.7
50435	7	Sololá	701	Sololá	3	Barraneche	9	Septiembre	2023-09-20T00:00:00	2024-11-06T16:00:00	3	Temperatura mínima	17.2
50436	7	Sololá	701	Sololá	3	Barraneche	9	Septiembre	2023-09-20T00:00:00	2024-11-06T16:00:00	5	Humedad	69
50437	7	Sololá	701	Sololá	3	Barraneche	9	Septiembre	2023-09-20T00:00:00	2024-11-06T16:00:00	6	Velocidad del viento	9.7
50438	7	Sololá	701	Sololá	3	Barraneche	9	Septiembre	2023-09-20T00:00:00	2024-11-06T16:00:00	7	Dirección del viento	9.66
50439	7	Sololá	701	Sololá	3	Barraneche	9	Septiembre	2023-09-20T00:00:00	2024-11-06T16:00:00	1	Precipitación	0
50440	7	Sololá	701	Sololá	3	Barraneche	9	Septiembre	2023-09-20T00:00:00	2024-11-06T16:00:00	8	Radiación solar	245
50441	7	Sololá	701	Sololá	3	Barraneche	9	Septiembre	2023-09-20T00:00:00	2024-11-06T17:00:00	2	Temperatura media	15.9
50442	7	Sololá	701	Sololá	3	Barraneche	9	Septiembre	2023-09-20T00:00:00	2024-11-06T17:00:00	4	Temperatura máxima	17.3
50443	7	Sololá	701	Sololá	3	Barraneche	9	Septiembre	2023-09-20T00:00:00	2024-11-06T17:00:00	3	Temperatura mínima	15.9
50444	7	Sololá	701	Sololá	3	Barraneche	9	Septiembre	2023-09-20T00:00:00	2024-11-06T17:00:00	5	Humedad	72
50445	7	Sololá	701	Sololá	3	Barraneche	9	Septiembre	2023-09-20T00:00:00	2024-11-06T17:00:00	6	Velocidad del viento	11.3
50446	7	Sololá	701	Sololá	3	Barraneche	9	Septiembre	2023-09-20T00:00:00	2024-11-06T17:00:00	7	Dirección del viento	11.27
50447	7	Sololá	701	Sololá	3	Barraneche	9	Septiembre	2023-09-20T00:00:00	2024-11-06T17:00:00	1	Precipitación	0
50448	7	Sololá	701	Sololá	3	Barraneche	9	Septiembre	2023-09-20T00:00:00	2024-11-06T17:00:00	8	Radiación solar	219
50449	7	Sololá	701	Sololá	3	Barraneche	9	Septiembre	2023-09-20T00:00:00	2024-11-06T18:00:00	2	Temperatura media	15.3
50450	7	Sololá	701	Sololá	3	Barraneche	9	Septiembre	2023-09-20T00:00:00	2024-11-06T18:00:00	4	Temperatura máxima	15.9
50451	7	Sololá	701	Sololá	3	Barraneche	9	Septiembre	2023-09-20T00:00:00	2024-11-06T18:00:00	3	Temperatura mínima	15.2
50452	7	Sololá	701	Sololá	3	Barraneche	9	Septiembre	2023-09-20T00:00:00	2024-11-06T18:00:00	5	Humedad	75
50453	7	Sololá	701	Sololá	3	Barraneche	9	Septiembre	2023-09-20T00:00:00	2024-11-06T18:00:00	6	Velocidad del viento	3.2
50454	7	Sololá	701	Sololá	3	Barraneche	9	Septiembre	2023-09-20T00:00:00	2024-11-06T18:00:00	7	Dirección del viento	3.22
50455	7	Sololá	701	Sololá	3	Barraneche	9	Septiembre	2023-09-20T00:00:00	2024-11-06T18:00:00	1	Precipitación	0
50456	7	Sololá	701	Sololá	3	Barraneche	9	Septiembre	2023-09-20T00:00:00	2024-11-06T18:00:00	8	Radiación solar	24
50457	7	Sololá	701	Sololá	3	Barraneche	9	Septiembre	2023-09-20T00:00:00	2024-11-06T19:00:00	2	Temperatura media	14.1
50458	7	Sololá	701	Sololá	3	Barraneche	9	Septiembre	2023-09-20T00:00:00	2024-11-06T19:00:00	4	Temperatura máxima	15.3
50459	7	Sololá	701	Sololá	3	Barraneche	9	Septiembre	2023-09-20T00:00:00	2024-11-06T19:00:00	3	Temperatura mínima	13.4
50460	7	Sololá	701	Sololá	3	Barraneche	9	Septiembre	2023-09-20T00:00:00	2024-11-06T19:00:00	5	Humedad	67
50461	7	Sololá	701	Sololá	3	Barraneche	9	Septiembre	2023-09-20T00:00:00	2024-11-06T19:00:00	6	Velocidad del viento	3.2
50462	7	Sololá	701	Sololá	3	Barraneche	9	Septiembre	2023-09-20T00:00:00	2024-11-06T19:00:00	7	Dirección del viento	3.22
50463	7	Sololá	701	Sololá	3	Barraneche	9	Septiembre	2023-09-20T00:00:00	2024-11-06T19:00:00	1	Precipitación	0
50464	7	Sololá	701	Sololá	3	Barraneche	9	Septiembre	2023-09-20T00:00:00	2024-11-06T19:00:00	8	Radiación solar	0
50465	7	Sololá	701	Sololá	3	Barraneche	9	Septiembre	2023-09-20T00:00:00	2024-11-06T20:00:00	2	Temperatura media	13.7
50466	7	Sololá	701	Sololá	3	Barraneche	9	Septiembre	2023-09-20T00:00:00	2024-11-06T20:00:00	4	Temperatura máxima	14.1
50467	7	Sololá	701	Sololá	3	Barraneche	9	Septiembre	2023-09-20T00:00:00	2024-11-06T20:00:00	3	Temperatura mínima	13.3
50468	7	Sololá	701	Sololá	3	Barraneche	9	Septiembre	2023-09-20T00:00:00	2024-11-06T20:00:00	5	Humedad	68
50469	7	Sololá	701	Sololá	3	Barraneche	9	Septiembre	2023-09-20T00:00:00	2024-11-06T20:00:00	6	Velocidad del viento	3.2
50470	7	Sololá	701	Sololá	3	Barraneche	9	Septiembre	2023-09-20T00:00:00	2024-11-06T20:00:00	7	Dirección del viento	3.22
50471	7	Sololá	701	Sololá	3	Barraneche	9	Septiembre	2023-09-20T00:00:00	2024-11-06T20:00:00	1	Precipitación	0
50472	7	Sololá	701	Sololá	3	Barraneche	9	Septiembre	2023-09-20T00:00:00	2024-11-06T20:00:00	8	Radiación solar	0
50473	7	Sololá	701	Sololá	3	Barraneche	9	Septiembre	2023-09-20T00:00:00	2024-11-06T21:00:00	2	Temperatura media	13.9
50474	7	Sololá	701	Sololá	3	Barraneche	9	Septiembre	2023-09-20T00:00:00	2024-11-06T21:00:00	4	Temperatura máxima	14.1
50475	7	Sololá	701	Sololá	3	Barraneche	9	Septiembre	2023-09-20T00:00:00	2024-11-06T21:00:00	3	Temperatura mínima	13.7
50476	7	Sololá	701	Sololá	3	Barraneche	9	Septiembre	2023-09-20T00:00:00	2024-11-06T21:00:00	5	Humedad	70
50477	7	Sololá	701	Sololá	3	Barraneche	9	Septiembre	2023-09-20T00:00:00	2024-11-06T21:00:00	6	Velocidad del viento	1.6
50478	7	Sololá	701	Sololá	3	Barraneche	9	Septiembre	2023-09-20T00:00:00	2024-11-06T21:00:00	7	Dirección del viento	1.61
50479	7	Sololá	701	Sololá	3	Barraneche	9	Septiembre	2023-09-20T00:00:00	2024-11-06T21:00:00	1	Precipitación	0
50480	7	Sololá	701	Sololá	3	Barraneche	9	Septiembre	2023-09-20T00:00:00	2024-11-06T21:00:00	8	Radiación solar	0
50481	7	Sololá	701	Sololá	3	Barraneche	9	Septiembre	2023-09-20T00:00:00	2024-11-06T22:00:00	2	Temperatura media	15.4
50482	7	Sololá	701	Sololá	3	Barraneche	9	Septiembre	2023-09-20T00:00:00	2024-11-06T22:00:00	4	Temperatura máxima	15.4
50483	7	Sololá	701	Sololá	3	Barraneche	9	Septiembre	2023-09-20T00:00:00	2024-11-06T22:00:00	3	Temperatura mínima	13.9
50484	7	Sololá	701	Sololá	3	Barraneche	9	Septiembre	2023-09-20T00:00:00	2024-11-06T22:00:00	5	Humedad	66
50485	7	Sololá	701	Sololá	3	Barraneche	9	Septiembre	2023-09-20T00:00:00	2024-11-06T22:00:00	6	Velocidad del viento	3.2
50486	7	Sololá	701	Sololá	3	Barraneche	9	Septiembre	2023-09-20T00:00:00	2024-11-06T22:00:00	7	Dirección del viento	3.22
50487	7	Sololá	701	Sololá	3	Barraneche	9	Septiembre	2023-09-20T00:00:00	2024-11-06T22:00:00	1	Precipitación	0
50488	7	Sololá	701	Sololá	3	Barraneche	9	Septiembre	2023-09-20T00:00:00	2024-11-06T22:00:00	8	Radiación solar	0
50489	7	Sololá	701	Sololá	3	Barraneche	9	Septiembre	2023-09-20T00:00:00	2024-11-06T23:00:00	2	Temperatura media	15.3
50490	7	Sololá	701	Sololá	3	Barraneche	9	Septiembre	2023-09-20T00:00:00	2024-11-06T23:00:00	4	Temperatura máxima	15.8
50491	7	Sololá	701	Sololá	3	Barraneche	9	Septiembre	2023-09-20T00:00:00	2024-11-06T23:00:00	3	Temperatura mínima	14.6
50492	7	Sololá	701	Sololá	3	Barraneche	9	Septiembre	2023-09-20T00:00:00	2024-11-06T23:00:00	5	Humedad	66
50493	7	Sololá	701	Sololá	3	Barraneche	9	Septiembre	2023-09-20T00:00:00	2024-11-06T23:00:00	6	Velocidad del viento	6.4
50494	7	Sololá	701	Sololá	3	Barraneche	9	Septiembre	2023-09-20T00:00:00	2024-11-06T23:00:00	7	Dirección del viento	6.44
50495	7	Sololá	701	Sololá	3	Barraneche	9	Septiembre	2023-09-20T00:00:00	2024-11-06T23:00:00	1	Precipitación	0
50496	7	Sololá	701	Sololá	3	Barraneche	9	Septiembre	2023-09-20T00:00:00	2024-11-06T23:00:00	8	Radiación solar	0
50497	7	Sololá	701	Sololá	3	Barraneche	9	Septiembre	2023-09-21T00:00:00	2024-11-06T00:00:00	2	Temperatura media	14.8
50498	7	Sololá	701	Sololá	3	Barraneche	9	Septiembre	2023-09-21T00:00:00	2024-11-06T00:00:00	4	Temperatura máxima	15.3
50499	7	Sololá	701	Sololá	3	Barraneche	9	Septiembre	2023-09-21T00:00:00	2024-11-06T00:00:00	3	Temperatura mínima	14.8
50500	7	Sololá	701	Sololá	3	Barraneche	9	Septiembre	2023-09-21T00:00:00	2024-11-06T00:00:00	5	Humedad	65
50501	7	Sololá	701	Sololá	3	Barraneche	9	Septiembre	2023-09-21T00:00:00	2024-11-06T00:00:00	6	Velocidad del viento	8
50502	7	Sololá	701	Sololá	3	Barraneche	9	Septiembre	2023-09-21T00:00:00	2024-11-06T00:00:00	7	Dirección del viento	8.05
50503	7	Sololá	701	Sololá	3	Barraneche	9	Septiembre	2023-09-21T00:00:00	2024-11-06T00:00:00	1	Precipitación	0
50504	7	Sololá	701	Sololá	3	Barraneche	9	Septiembre	2023-09-21T00:00:00	2024-11-06T00:00:00	8	Radiación solar	0
50505	7	Sololá	701	Sololá	3	Barraneche	9	Septiembre	2023-09-21T00:00:00	2024-11-06T01:00:00	2	Temperatura media	14.6
50506	7	Sololá	701	Sololá	3	Barraneche	9	Septiembre	2023-09-21T00:00:00	2024-11-06T01:00:00	4	Temperatura máxima	14.8
50507	7	Sololá	701	Sololá	3	Barraneche	9	Septiembre	2023-09-21T00:00:00	2024-11-06T01:00:00	3	Temperatura mínima	14.6
50508	7	Sololá	701	Sololá	3	Barraneche	9	Septiembre	2023-09-21T00:00:00	2024-11-06T01:00:00	5	Humedad	66
50509	7	Sololá	701	Sololá	3	Barraneche	9	Septiembre	2023-09-21T00:00:00	2024-11-06T01:00:00	6	Velocidad del viento	4.8
50510	7	Sololá	701	Sololá	3	Barraneche	9	Septiembre	2023-09-21T00:00:00	2024-11-06T01:00:00	7	Dirección del viento	4.83
50511	7	Sololá	701	Sololá	3	Barraneche	9	Septiembre	2023-09-21T00:00:00	2024-11-06T01:00:00	1	Precipitación	0
50512	7	Sololá	701	Sololá	3	Barraneche	9	Septiembre	2023-09-21T00:00:00	2024-11-06T01:00:00	8	Radiación solar	0
50513	7	Sololá	701	Sololá	3	Barraneche	9	Septiembre	2023-09-21T00:00:00	2024-11-06T02:00:00	2	Temperatura media	12.7
50514	7	Sololá	701	Sololá	3	Barraneche	9	Septiembre	2023-09-21T00:00:00	2024-11-06T02:00:00	4	Temperatura máxima	14.5
50515	7	Sololá	701	Sololá	3	Barraneche	9	Septiembre	2023-09-21T00:00:00	2024-11-06T02:00:00	3	Temperatura mínima	12.7
50516	7	Sololá	701	Sololá	3	Barraneche	9	Septiembre	2023-09-21T00:00:00	2024-11-06T02:00:00	5	Humedad	72
50517	7	Sololá	701	Sololá	3	Barraneche	9	Septiembre	2023-09-21T00:00:00	2024-11-06T02:00:00	6	Velocidad del viento	3.2
50518	7	Sololá	701	Sololá	3	Barraneche	9	Septiembre	2023-09-21T00:00:00	2024-11-06T02:00:00	7	Dirección del viento	3.22
50519	7	Sololá	701	Sololá	3	Barraneche	9	Septiembre	2023-09-21T00:00:00	2024-11-06T02:00:00	1	Precipitación	0
50520	7	Sololá	701	Sololá	3	Barraneche	9	Septiembre	2023-09-21T00:00:00	2024-11-06T02:00:00	8	Radiación solar	0
50521	7	Sololá	701	Sololá	3	Barraneche	9	Septiembre	2023-09-21T00:00:00	2024-11-06T03:00:00	2	Temperatura media	12.4
50522	7	Sololá	701	Sololá	3	Barraneche	9	Septiembre	2023-09-21T00:00:00	2024-11-06T03:00:00	4	Temperatura máxima	12.8
50523	7	Sololá	701	Sololá	3	Barraneche	9	Septiembre	2023-09-21T00:00:00	2024-11-06T03:00:00	3	Temperatura mínima	12.3
50524	7	Sololá	701	Sololá	3	Barraneche	9	Septiembre	2023-09-21T00:00:00	2024-11-06T03:00:00	5	Humedad	70
50525	7	Sololá	701	Sololá	3	Barraneche	9	Septiembre	2023-09-21T00:00:00	2024-11-06T03:00:00	6	Velocidad del viento	3.2
50526	7	Sololá	701	Sololá	3	Barraneche	9	Septiembre	2023-09-21T00:00:00	2024-11-06T03:00:00	7	Dirección del viento	3.22
50527	7	Sololá	701	Sololá	3	Barraneche	9	Septiembre	2023-09-21T00:00:00	2024-11-06T03:00:00	1	Precipitación	0
50528	7	Sololá	701	Sololá	3	Barraneche	9	Septiembre	2023-09-21T00:00:00	2024-11-06T03:00:00	8	Radiación solar	0
50529	7	Sololá	701	Sololá	3	Barraneche	9	Septiembre	2023-09-21T00:00:00	2024-11-06T04:00:00	2	Temperatura media	12
50530	7	Sololá	701	Sololá	3	Barraneche	9	Septiembre	2023-09-21T00:00:00	2024-11-06T04:00:00	4	Temperatura máxima	13.7
50531	7	Sololá	701	Sololá	3	Barraneche	9	Septiembre	2023-09-21T00:00:00	2024-11-06T04:00:00	3	Temperatura mínima	12
50532	7	Sololá	701	Sololá	3	Barraneche	9	Septiembre	2023-09-21T00:00:00	2024-11-06T04:00:00	5	Humedad	71
50533	7	Sololá	701	Sololá	3	Barraneche	9	Septiembre	2023-09-21T00:00:00	2024-11-06T04:00:00	6	Velocidad del viento	4.8
50534	7	Sololá	701	Sololá	3	Barraneche	9	Septiembre	2023-09-21T00:00:00	2024-11-06T04:00:00	7	Dirección del viento	4.83
50535	7	Sololá	701	Sololá	3	Barraneche	9	Septiembre	2023-09-21T00:00:00	2024-11-06T04:00:00	1	Precipitación	0
50536	7	Sololá	701	Sololá	3	Barraneche	9	Septiembre	2023-09-21T00:00:00	2024-11-06T04:00:00	8	Radiación solar	0
50537	7	Sololá	701	Sololá	3	Barraneche	9	Septiembre	2023-09-21T00:00:00	2024-11-06T05:00:00	2	Temperatura media	11.3
50538	7	Sololá	701	Sololá	3	Barraneche	9	Septiembre	2023-09-21T00:00:00	2024-11-06T05:00:00	4	Temperatura máxima	12
50539	7	Sololá	701	Sololá	3	Barraneche	9	Septiembre	2023-09-21T00:00:00	2024-11-06T05:00:00	3	Temperatura mínima	11.3
50540	7	Sololá	701	Sololá	3	Barraneche	9	Septiembre	2023-09-21T00:00:00	2024-11-06T05:00:00	5	Humedad	71
50541	7	Sololá	701	Sololá	3	Barraneche	9	Septiembre	2023-09-21T00:00:00	2024-11-06T05:00:00	6	Velocidad del viento	3.2
50542	7	Sololá	701	Sololá	3	Barraneche	9	Septiembre	2023-09-21T00:00:00	2024-11-06T05:00:00	7	Dirección del viento	3.22
50543	7	Sololá	701	Sololá	3	Barraneche	9	Septiembre	2023-09-21T00:00:00	2024-11-06T05:00:00	1	Precipitación	0
50544	7	Sololá	701	Sololá	3	Barraneche	9	Septiembre	2023-09-21T00:00:00	2024-11-06T05:00:00	8	Radiación solar	0
50545	7	Sololá	701	Sololá	3	Barraneche	9	Septiembre	2023-09-21T00:00:00	2024-11-06T06:00:00	2	Temperatura media	13
50546	7	Sololá	701	Sololá	3	Barraneche	9	Septiembre	2023-09-21T00:00:00	2024-11-06T06:00:00	4	Temperatura máxima	13
50547	7	Sololá	701	Sololá	3	Barraneche	9	Septiembre	2023-09-21T00:00:00	2024-11-06T06:00:00	3	Temperatura mínima	11
50548	7	Sololá	701	Sololá	3	Barraneche	9	Septiembre	2023-09-21T00:00:00	2024-11-06T06:00:00	5	Humedad	62
50549	7	Sololá	701	Sololá	3	Barraneche	9	Septiembre	2023-09-21T00:00:00	2024-11-06T06:00:00	6	Velocidad del viento	4.8
50550	7	Sololá	701	Sololá	3	Barraneche	9	Septiembre	2023-09-21T00:00:00	2024-11-06T06:00:00	7	Dirección del viento	4.83
50551	7	Sololá	701	Sololá	3	Barraneche	9	Septiembre	2023-09-21T00:00:00	2024-11-06T06:00:00	1	Precipitación	0
50552	7	Sololá	701	Sololá	3	Barraneche	9	Septiembre	2023-09-21T00:00:00	2024-11-06T06:00:00	8	Radiación solar	0
50553	7	Sololá	701	Sololá	3	Barraneche	9	Septiembre	2023-09-21T00:00:00	2024-11-06T07:00:00	2	Temperatura media	14.7
50554	7	Sololá	701	Sololá	3	Barraneche	9	Septiembre	2023-09-21T00:00:00	2024-11-06T07:00:00	4	Temperatura máxima	14.7
50555	7	Sololá	701	Sololá	3	Barraneche	9	Septiembre	2023-09-21T00:00:00	2024-11-06T07:00:00	3	Temperatura mínima	12.9
50556	7	Sololá	701	Sololá	3	Barraneche	9	Septiembre	2023-09-21T00:00:00	2024-11-06T07:00:00	5	Humedad	60
50557	7	Sololá	701	Sololá	3	Barraneche	9	Septiembre	2023-09-21T00:00:00	2024-11-06T07:00:00	6	Velocidad del viento	9.7
50558	7	Sololá	701	Sololá	3	Barraneche	9	Septiembre	2023-09-21T00:00:00	2024-11-06T07:00:00	7	Dirección del viento	9.66
50559	7	Sololá	701	Sololá	3	Barraneche	9	Septiembre	2023-09-21T00:00:00	2024-11-06T07:00:00	1	Precipitación	0
50560	7	Sololá	701	Sololá	3	Barraneche	9	Septiembre	2023-09-21T00:00:00	2024-11-06T07:00:00	8	Radiación solar	64
50561	7	Sololá	701	Sololá	3	Barraneche	9	Septiembre	2023-09-21T00:00:00	2024-11-06T08:00:00	2	Temperatura media	16.3
50562	7	Sololá	701	Sololá	3	Barraneche	9	Septiembre	2023-09-21T00:00:00	2024-11-06T08:00:00	4	Temperatura máxima	16.3
50563	7	Sololá	701	Sololá	3	Barraneche	9	Septiembre	2023-09-21T00:00:00	2024-11-06T08:00:00	3	Temperatura mínima	14.7
50564	7	Sololá	701	Sololá	3	Barraneche	9	Septiembre	2023-09-21T00:00:00	2024-11-06T08:00:00	5	Humedad	59
50565	7	Sololá	701	Sololá	3	Barraneche	9	Septiembre	2023-09-21T00:00:00	2024-11-06T08:00:00	6	Velocidad del viento	8
50566	7	Sololá	701	Sololá	3	Barraneche	9	Septiembre	2023-09-21T00:00:00	2024-11-06T08:00:00	7	Dirección del viento	8.05
50567	7	Sololá	701	Sololá	3	Barraneche	9	Septiembre	2023-09-21T00:00:00	2024-11-06T08:00:00	1	Precipitación	0
50568	7	Sololá	701	Sololá	3	Barraneche	9	Septiembre	2023-09-21T00:00:00	2024-11-06T08:00:00	8	Radiación solar	234
50569	7	Sololá	701	Sololá	3	Barraneche	9	Septiembre	2023-09-21T00:00:00	2024-11-06T09:00:00	2	Temperatura media	18.2
50570	7	Sololá	701	Sololá	3	Barraneche	9	Septiembre	2023-09-21T00:00:00	2024-11-06T09:00:00	4	Temperatura máxima	18.2
50571	7	Sololá	701	Sololá	3	Barraneche	9	Septiembre	2023-09-21T00:00:00	2024-11-06T09:00:00	3	Temperatura mínima	16.3
50572	7	Sololá	701	Sololá	3	Barraneche	9	Septiembre	2023-09-21T00:00:00	2024-11-06T09:00:00	5	Humedad	56
50573	7	Sololá	701	Sololá	3	Barraneche	9	Septiembre	2023-09-21T00:00:00	2024-11-06T09:00:00	6	Velocidad del viento	12.9
50574	7	Sololá	701	Sololá	3	Barraneche	9	Septiembre	2023-09-21T00:00:00	2024-11-06T09:00:00	7	Dirección del viento	12.87
50575	7	Sololá	701	Sololá	3	Barraneche	9	Septiembre	2023-09-21T00:00:00	2024-11-06T09:00:00	1	Precipitación	0
50576	7	Sololá	701	Sololá	3	Barraneche	9	Septiembre	2023-09-21T00:00:00	2024-11-06T09:00:00	8	Radiación solar	680
50577	7	Sololá	701	Sololá	3	Barraneche	9	Septiembre	2023-09-21T00:00:00	2024-11-06T10:00:00	2	Temperatura media	18.4
50578	7	Sololá	701	Sololá	3	Barraneche	9	Septiembre	2023-09-21T00:00:00	2024-11-06T10:00:00	4	Temperatura máxima	18.8
50579	7	Sololá	701	Sololá	3	Barraneche	9	Septiembre	2023-09-21T00:00:00	2024-11-06T10:00:00	3	Temperatura mínima	17.9
50580	7	Sololá	701	Sololá	3	Barraneche	9	Septiembre	2023-09-21T00:00:00	2024-11-06T10:00:00	5	Humedad	54
50581	7	Sololá	701	Sololá	3	Barraneche	9	Septiembre	2023-09-21T00:00:00	2024-11-06T10:00:00	6	Velocidad del viento	16.1
50582	7	Sololá	701	Sololá	3	Barraneche	9	Septiembre	2023-09-21T00:00:00	2024-11-06T10:00:00	7	Dirección del viento	16.09
50583	7	Sololá	701	Sololá	3	Barraneche	9	Septiembre	2023-09-21T00:00:00	2024-11-06T10:00:00	1	Precipitación	0
50584	7	Sololá	701	Sololá	3	Barraneche	9	Septiembre	2023-09-21T00:00:00	2024-11-06T10:00:00	8	Radiación solar	764
50585	7	Sololá	701	Sololá	3	Barraneche	9	Septiembre	2023-09-21T00:00:00	2024-11-06T11:00:00	2	Temperatura media	18
50586	7	Sololá	701	Sololá	3	Barraneche	9	Septiembre	2023-09-21T00:00:00	2024-11-06T11:00:00	4	Temperatura máxima	19.1
50587	7	Sololá	701	Sololá	3	Barraneche	9	Septiembre	2023-09-21T00:00:00	2024-11-06T11:00:00	3	Temperatura mínima	17.9
50588	7	Sololá	701	Sololá	3	Barraneche	9	Septiembre	2023-09-21T00:00:00	2024-11-06T11:00:00	5	Humedad	57
50589	7	Sololá	701	Sololá	3	Barraneche	9	Septiembre	2023-09-21T00:00:00	2024-11-06T11:00:00	6	Velocidad del viento	11.3
50590	7	Sololá	701	Sololá	3	Barraneche	9	Septiembre	2023-09-21T00:00:00	2024-11-06T11:00:00	7	Dirección del viento	11.27
50591	7	Sololá	701	Sololá	3	Barraneche	9	Septiembre	2023-09-21T00:00:00	2024-11-06T11:00:00	1	Precipitación	0
50592	7	Sololá	701	Sololá	3	Barraneche	9	Septiembre	2023-09-21T00:00:00	2024-11-06T11:00:00	8	Radiación solar	535
50593	7	Sololá	701	Sololá	3	Barraneche	9	Septiembre	2023-09-21T00:00:00	2024-11-06T12:00:00	2	Temperatura media	19.2
50594	7	Sololá	701	Sololá	3	Barraneche	9	Septiembre	2023-09-21T00:00:00	2024-11-06T12:00:00	4	Temperatura máxima	19.3
50595	7	Sololá	701	Sololá	3	Barraneche	9	Septiembre	2023-09-21T00:00:00	2024-11-06T12:00:00	3	Temperatura mínima	17.9
50596	7	Sololá	701	Sololá	3	Barraneche	9	Septiembre	2023-09-21T00:00:00	2024-11-06T12:00:00	5	Humedad	55
50597	7	Sololá	701	Sololá	3	Barraneche	9	Septiembre	2023-09-21T00:00:00	2024-11-06T12:00:00	6	Velocidad del viento	12.9
50598	7	Sololá	701	Sololá	3	Barraneche	9	Septiembre	2023-09-21T00:00:00	2024-11-06T12:00:00	7	Dirección del viento	12.87
50599	7	Sololá	701	Sololá	3	Barraneche	9	Septiembre	2023-09-21T00:00:00	2024-11-06T12:00:00	1	Precipitación	0
50600	7	Sololá	701	Sololá	3	Barraneche	9	Septiembre	2023-09-21T00:00:00	2024-11-06T12:00:00	8	Radiación solar	550
50601	7	Sololá	701	Sololá	3	Barraneche	9	Septiembre	2023-09-21T00:00:00	2024-11-06T13:00:00	2	Temperatura media	19.5
50602	7	Sololá	701	Sololá	3	Barraneche	9	Septiembre	2023-09-21T00:00:00	2024-11-06T13:00:00	4	Temperatura máxima	19.9
50603	7	Sololá	701	Sololá	3	Barraneche	9	Septiembre	2023-09-21T00:00:00	2024-11-06T13:00:00	3	Temperatura mínima	19.2
50604	7	Sololá	701	Sololá	3	Barraneche	9	Septiembre	2023-09-21T00:00:00	2024-11-06T13:00:00	5	Humedad	53
50605	7	Sololá	701	Sololá	3	Barraneche	9	Septiembre	2023-09-21T00:00:00	2024-11-06T13:00:00	6	Velocidad del viento	12.9
50606	7	Sololá	701	Sololá	3	Barraneche	9	Septiembre	2023-09-21T00:00:00	2024-11-06T13:00:00	7	Dirección del viento	12.87
50607	7	Sololá	701	Sololá	3	Barraneche	9	Septiembre	2023-09-21T00:00:00	2024-11-06T13:00:00	1	Precipitación	0
50608	7	Sololá	701	Sololá	3	Barraneche	9	Septiembre	2023-09-21T00:00:00	2024-11-06T13:00:00	8	Radiación solar	710
50609	7	Sololá	701	Sololá	3	Barraneche	9	Septiembre	2023-09-21T00:00:00	2024-11-06T14:00:00	2	Temperatura media	20.8
50610	7	Sololá	701	Sololá	3	Barraneche	9	Septiembre	2023-09-21T00:00:00	2024-11-06T14:00:00	4	Temperatura máxima	20.8
50611	7	Sololá	701	Sololá	3	Barraneche	9	Septiembre	2023-09-21T00:00:00	2024-11-06T14:00:00	3	Temperatura mínima	19.3
50612	7	Sololá	701	Sololá	3	Barraneche	9	Septiembre	2023-09-21T00:00:00	2024-11-06T14:00:00	5	Humedad	53
50613	7	Sololá	701	Sololá	3	Barraneche	9	Septiembre	2023-09-21T00:00:00	2024-11-06T14:00:00	6	Velocidad del viento	12.9
50614	7	Sololá	701	Sololá	3	Barraneche	9	Septiembre	2023-09-21T00:00:00	2024-11-06T14:00:00	7	Dirección del viento	12.87
50615	7	Sololá	701	Sololá	3	Barraneche	9	Septiembre	2023-09-21T00:00:00	2024-11-06T14:00:00	1	Precipitación	0
50616	7	Sololá	701	Sololá	3	Barraneche	9	Septiembre	2023-09-21T00:00:00	2024-11-06T14:00:00	8	Radiación solar	836
50617	7	Sololá	701	Sololá	3	Barraneche	9	Septiembre	2023-09-21T00:00:00	2024-11-06T15:00:00	2	Temperatura media	20.3
50618	7	Sololá	701	Sololá	3	Barraneche	9	Septiembre	2023-09-21T00:00:00	2024-11-06T15:00:00	4	Temperatura máxima	20.8
50619	7	Sololá	701	Sololá	3	Barraneche	9	Septiembre	2023-09-21T00:00:00	2024-11-06T15:00:00	3	Temperatura mínima	19.7
50620	7	Sololá	701	Sololá	3	Barraneche	9	Septiembre	2023-09-21T00:00:00	2024-11-06T15:00:00	5	Humedad	53
50621	7	Sololá	701	Sololá	3	Barraneche	9	Septiembre	2023-09-21T00:00:00	2024-11-06T15:00:00	6	Velocidad del viento	11.3
50622	7	Sololá	701	Sololá	3	Barraneche	9	Septiembre	2023-09-21T00:00:00	2024-11-06T15:00:00	7	Dirección del viento	11.27
50623	7	Sololá	701	Sololá	3	Barraneche	9	Septiembre	2023-09-21T00:00:00	2024-11-06T15:00:00	1	Precipitación	0
50624	7	Sololá	701	Sololá	3	Barraneche	9	Septiembre	2023-09-21T00:00:00	2024-11-06T15:00:00	8	Radiación solar	606
50625	7	Sololá	701	Sololá	3	Barraneche	9	Septiembre	2023-09-21T00:00:00	2024-11-06T16:00:00	2	Temperatura media	19.7
50626	7	Sololá	701	Sololá	3	Barraneche	9	Septiembre	2023-09-21T00:00:00	2024-11-06T16:00:00	4	Temperatura máxima	20.4
50627	7	Sololá	701	Sololá	3	Barraneche	9	Septiembre	2023-09-21T00:00:00	2024-11-06T16:00:00	3	Temperatura mínima	19.4
50628	7	Sololá	701	Sololá	3	Barraneche	9	Septiembre	2023-09-21T00:00:00	2024-11-06T16:00:00	5	Humedad	55
50629	7	Sololá	701	Sololá	3	Barraneche	9	Septiembre	2023-09-21T00:00:00	2024-11-06T16:00:00	6	Velocidad del viento	11.3
50630	7	Sololá	701	Sololá	3	Barraneche	9	Septiembre	2023-09-21T00:00:00	2024-11-06T16:00:00	7	Dirección del viento	11.27
50631	7	Sololá	701	Sololá	3	Barraneche	9	Septiembre	2023-09-21T00:00:00	2024-11-06T16:00:00	1	Precipitación	0
50632	7	Sololá	701	Sololá	3	Barraneche	9	Septiembre	2023-09-21T00:00:00	2024-11-06T16:00:00	8	Radiación solar	367
50633	7	Sololá	701	Sololá	3	Barraneche	9	Septiembre	2023-09-21T00:00:00	2024-11-06T17:00:00	2	Temperatura media	20
50634	7	Sololá	701	Sololá	3	Barraneche	9	Septiembre	2023-09-21T00:00:00	2024-11-06T17:00:00	4	Temperatura máxima	20.1
50635	7	Sololá	701	Sololá	3	Barraneche	9	Septiembre	2023-09-21T00:00:00	2024-11-06T17:00:00	3	Temperatura mínima	19.2
50636	7	Sololá	701	Sololá	3	Barraneche	9	Septiembre	2023-09-21T00:00:00	2024-11-06T17:00:00	5	Humedad	54
50637	7	Sololá	701	Sololá	3	Barraneche	9	Septiembre	2023-09-21T00:00:00	2024-11-06T17:00:00	6	Velocidad del viento	9.7
50638	7	Sololá	701	Sololá	3	Barraneche	9	Septiembre	2023-09-21T00:00:00	2024-11-06T17:00:00	7	Dirección del viento	9.66
50639	7	Sololá	701	Sololá	3	Barraneche	9	Septiembre	2023-09-21T00:00:00	2024-11-06T17:00:00	1	Precipitación	0
50640	7	Sololá	701	Sololá	3	Barraneche	9	Septiembre	2023-09-21T00:00:00	2024-11-06T17:00:00	8	Radiación solar	231
50641	7	Sololá	701	Sololá	3	Barraneche	9	Septiembre	2023-09-21T00:00:00	2024-11-06T18:00:00	2	Temperatura media	16.4
50642	7	Sololá	701	Sololá	3	Barraneche	9	Septiembre	2023-09-21T00:00:00	2024-11-06T18:00:00	4	Temperatura máxima	20.1
50643	7	Sololá	701	Sololá	3	Barraneche	9	Septiembre	2023-09-21T00:00:00	2024-11-06T18:00:00	3	Temperatura mínima	16.4
50644	7	Sololá	701	Sololá	3	Barraneche	9	Septiembre	2023-09-21T00:00:00	2024-11-06T18:00:00	5	Humedad	72
50645	7	Sololá	701	Sololá	3	Barraneche	9	Septiembre	2023-09-21T00:00:00	2024-11-06T18:00:00	6	Velocidad del viento	8
50646	7	Sololá	701	Sololá	3	Barraneche	9	Septiembre	2023-09-21T00:00:00	2024-11-06T18:00:00	7	Dirección del viento	8.05
50647	7	Sololá	701	Sololá	3	Barraneche	9	Septiembre	2023-09-21T00:00:00	2024-11-06T18:00:00	1	Precipitación	0
50648	7	Sololá	701	Sololá	3	Barraneche	9	Septiembre	2023-09-21T00:00:00	2024-11-06T18:00:00	8	Radiación solar	37
50649	7	Sololá	701	Sololá	3	Barraneche	9	Septiembre	2023-09-21T00:00:00	2024-11-06T19:00:00	2	Temperatura media	15.7
50650	7	Sololá	701	Sololá	3	Barraneche	9	Septiembre	2023-09-21T00:00:00	2024-11-06T19:00:00	4	Temperatura máxima	16.4
50651	7	Sololá	701	Sololá	3	Barraneche	9	Septiembre	2023-09-21T00:00:00	2024-11-06T19:00:00	3	Temperatura mínima	15.7
50652	7	Sololá	701	Sololá	3	Barraneche	9	Septiembre	2023-09-21T00:00:00	2024-11-06T19:00:00	5	Humedad	75
50653	7	Sololá	701	Sololá	3	Barraneche	9	Septiembre	2023-09-21T00:00:00	2024-11-06T19:00:00	6	Velocidad del viento	1.6
50654	7	Sololá	701	Sololá	3	Barraneche	9	Septiembre	2023-09-21T00:00:00	2024-11-06T19:00:00	7	Dirección del viento	1.61
50655	7	Sololá	701	Sololá	3	Barraneche	9	Septiembre	2023-09-21T00:00:00	2024-11-06T19:00:00	1	Precipitación	0
50656	7	Sololá	701	Sololá	3	Barraneche	9	Septiembre	2023-09-21T00:00:00	2024-11-06T19:00:00	8	Radiación solar	0
50657	7	Sololá	701	Sololá	3	Barraneche	9	Septiembre	2023-09-21T00:00:00	2024-11-06T20:00:00	2	Temperatura media	14.2
50658	7	Sololá	701	Sololá	3	Barraneche	9	Septiembre	2023-09-21T00:00:00	2024-11-06T20:00:00	4	Temperatura máxima	15.6
50659	7	Sololá	701	Sololá	3	Barraneche	9	Septiembre	2023-09-21T00:00:00	2024-11-06T20:00:00	3	Temperatura mínima	14.1
50660	7	Sololá	701	Sololá	3	Barraneche	9	Septiembre	2023-09-21T00:00:00	2024-11-06T20:00:00	5	Humedad	73
50661	7	Sololá	701	Sololá	3	Barraneche	9	Septiembre	2023-09-21T00:00:00	2024-11-06T20:00:00	6	Velocidad del viento	3.2
50662	7	Sololá	701	Sololá	3	Barraneche	9	Septiembre	2023-09-21T00:00:00	2024-11-06T20:00:00	7	Dirección del viento	3.22
50663	7	Sololá	701	Sololá	3	Barraneche	9	Septiembre	2023-09-21T00:00:00	2024-11-06T20:00:00	1	Precipitación	0.2
50664	7	Sololá	701	Sololá	3	Barraneche	9	Septiembre	2023-09-21T00:00:00	2024-11-06T20:00:00	8	Radiación solar	0
50665	7	Sololá	701	Sololá	3	Barraneche	9	Septiembre	2023-09-21T00:00:00	2024-11-06T21:00:00	2	Temperatura media	14.5
50666	7	Sololá	701	Sololá	3	Barraneche	9	Septiembre	2023-09-21T00:00:00	2024-11-06T21:00:00	4	Temperatura máxima	14.6
50667	7	Sololá	701	Sololá	3	Barraneche	9	Septiembre	2023-09-21T00:00:00	2024-11-06T21:00:00	3	Temperatura mínima	14.2
50668	7	Sololá	701	Sololá	3	Barraneche	9	Septiembre	2023-09-21T00:00:00	2024-11-06T21:00:00	5	Humedad	76
50669	7	Sololá	701	Sololá	3	Barraneche	9	Septiembre	2023-09-21T00:00:00	2024-11-06T21:00:00	6	Velocidad del viento	3.2
50670	7	Sololá	701	Sololá	3	Barraneche	9	Septiembre	2023-09-21T00:00:00	2024-11-06T21:00:00	7	Dirección del viento	3.22
50671	7	Sololá	701	Sololá	3	Barraneche	9	Septiembre	2023-09-21T00:00:00	2024-11-06T21:00:00	1	Precipitación	0
50672	7	Sololá	701	Sololá	3	Barraneche	9	Septiembre	2023-09-21T00:00:00	2024-11-06T21:00:00	8	Radiación solar	0
50673	7	Sololá	701	Sololá	3	Barraneche	9	Septiembre	2023-09-21T00:00:00	2024-11-06T22:00:00	2	Temperatura media	14.3
50674	7	Sololá	701	Sololá	3	Barraneche	9	Septiembre	2023-09-21T00:00:00	2024-11-06T22:00:00	4	Temperatura máxima	14.7
50675	7	Sololá	701	Sololá	3	Barraneche	9	Septiembre	2023-09-21T00:00:00	2024-11-06T22:00:00	3	Temperatura mínima	14.3
50676	7	Sololá	701	Sololá	3	Barraneche	9	Septiembre	2023-09-21T00:00:00	2024-11-06T22:00:00	5	Humedad	83
50677	7	Sololá	701	Sololá	3	Barraneche	9	Septiembre	2023-09-21T00:00:00	2024-11-06T22:00:00	6	Velocidad del viento	4.8
50678	7	Sololá	701	Sololá	3	Barraneche	9	Septiembre	2023-09-21T00:00:00	2024-11-06T22:00:00	7	Dirección del viento	4.83
50679	7	Sololá	701	Sololá	3	Barraneche	9	Septiembre	2023-09-21T00:00:00	2024-11-06T22:00:00	1	Precipitación	15.6
50680	7	Sololá	701	Sololá	3	Barraneche	9	Septiembre	2023-09-21T00:00:00	2024-11-06T22:00:00	8	Radiación solar	0
50681	7	Sololá	701	Sololá	3	Barraneche	9	Septiembre	2023-09-21T00:00:00	2024-11-06T23:00:00	2	Temperatura media	14.2
50682	7	Sololá	701	Sololá	3	Barraneche	9	Septiembre	2023-09-21T00:00:00	2024-11-06T23:00:00	4	Temperatura máxima	14.4
50683	7	Sololá	701	Sololá	3	Barraneche	9	Septiembre	2023-09-21T00:00:00	2024-11-06T23:00:00	3	Temperatura mínima	14.1
50684	7	Sololá	701	Sololá	3	Barraneche	9	Septiembre	2023-09-21T00:00:00	2024-11-06T23:00:00	5	Humedad	84
50685	7	Sololá	701	Sololá	3	Barraneche	9	Septiembre	2023-09-21T00:00:00	2024-11-06T23:00:00	6	Velocidad del viento	4.8
50686	7	Sololá	701	Sololá	3	Barraneche	9	Septiembre	2023-09-21T00:00:00	2024-11-06T23:00:00	7	Dirección del viento	4.83
50687	7	Sololá	701	Sololá	3	Barraneche	9	Septiembre	2023-09-21T00:00:00	2024-11-06T23:00:00	1	Precipitación	19.6
50688	7	Sololá	701	Sololá	3	Barraneche	9	Septiembre	2023-09-21T00:00:00	2024-11-06T23:00:00	8	Radiación solar	0
50689	7	Sololá	701	Sololá	3	Barraneche	9	Septiembre	2023-09-22T00:00:00	2024-11-06T00:00:00	2	Temperatura media	14.2
50690	7	Sololá	701	Sololá	3	Barraneche	9	Septiembre	2023-09-22T00:00:00	2024-11-06T00:00:00	4	Temperatura máxima	14.3
50691	7	Sololá	701	Sololá	3	Barraneche	9	Septiembre	2023-09-22T00:00:00	2024-11-06T00:00:00	3	Temperatura mínima	14
50692	7	Sololá	701	Sololá	3	Barraneche	9	Septiembre	2023-09-22T00:00:00	2024-11-06T00:00:00	5	Humedad	73
50693	7	Sololá	701	Sololá	3	Barraneche	9	Septiembre	2023-09-22T00:00:00	2024-11-06T00:00:00	6	Velocidad del viento	6.4
50694	7	Sololá	701	Sololá	3	Barraneche	9	Septiembre	2023-09-22T00:00:00	2024-11-06T00:00:00	7	Dirección del viento	6.44
50695	7	Sololá	701	Sololá	3	Barraneche	9	Septiembre	2023-09-22T00:00:00	2024-11-06T00:00:00	1	Precipitación	0
50696	7	Sololá	701	Sololá	3	Barraneche	9	Septiembre	2023-09-22T00:00:00	2024-11-06T00:00:00	8	Radiación solar	0
50697	7	Sololá	701	Sololá	3	Barraneche	9	Septiembre	2023-09-22T00:00:00	2024-11-06T01:00:00	2	Temperatura media	14.2
50698	7	Sololá	701	Sololá	3	Barraneche	9	Septiembre	2023-09-22T00:00:00	2024-11-06T01:00:00	4	Temperatura máxima	14.2
50699	7	Sololá	701	Sololá	3	Barraneche	9	Septiembre	2023-09-22T00:00:00	2024-11-06T01:00:00	3	Temperatura mínima	13.8
50700	7	Sololá	701	Sololá	3	Barraneche	9	Septiembre	2023-09-22T00:00:00	2024-11-06T01:00:00	5	Humedad	74
50701	7	Sololá	701	Sololá	3	Barraneche	9	Septiembre	2023-09-22T00:00:00	2024-11-06T01:00:00	6	Velocidad del viento	6.4
50702	7	Sololá	701	Sololá	3	Barraneche	9	Septiembre	2023-09-22T00:00:00	2024-11-06T01:00:00	7	Dirección del viento	6.44
50703	7	Sololá	701	Sololá	3	Barraneche	9	Septiembre	2023-09-22T00:00:00	2024-11-06T01:00:00	1	Precipitación	0.2
50704	7	Sololá	701	Sololá	3	Barraneche	9	Septiembre	2023-09-22T00:00:00	2024-11-06T01:00:00	8	Radiación solar	0
50705	7	Sololá	701	Sololá	3	Barraneche	9	Septiembre	2023-09-22T00:00:00	2024-11-06T02:00:00	2	Temperatura media	14.1
50706	7	Sololá	701	Sololá	3	Barraneche	9	Septiembre	2023-09-22T00:00:00	2024-11-06T02:00:00	4	Temperatura máxima	14.5
50707	7	Sololá	701	Sololá	3	Barraneche	9	Septiembre	2023-09-22T00:00:00	2024-11-06T02:00:00	3	Temperatura mínima	13.8
50708	7	Sololá	701	Sololá	3	Barraneche	9	Septiembre	2023-09-22T00:00:00	2024-11-06T02:00:00	5	Humedad	74
50709	7	Sololá	701	Sololá	3	Barraneche	9	Septiembre	2023-09-22T00:00:00	2024-11-06T02:00:00	6	Velocidad del viento	8
50710	7	Sololá	701	Sololá	3	Barraneche	9	Septiembre	2023-09-22T00:00:00	2024-11-06T02:00:00	7	Dirección del viento	8.05
50711	7	Sololá	701	Sololá	3	Barraneche	9	Septiembre	2023-09-22T00:00:00	2024-11-06T02:00:00	1	Precipitación	0.2
50712	7	Sololá	701	Sololá	3	Barraneche	9	Septiembre	2023-09-22T00:00:00	2024-11-06T02:00:00	8	Radiación solar	0
50713	7	Sololá	701	Sololá	3	Barraneche	9	Septiembre	2023-09-22T00:00:00	2024-11-06T03:00:00	2	Temperatura media	14.2
50714	7	Sololá	701	Sololá	3	Barraneche	9	Septiembre	2023-09-22T00:00:00	2024-11-06T03:00:00	4	Temperatura máxima	14.3
50715	7	Sololá	701	Sololá	3	Barraneche	9	Septiembre	2023-09-22T00:00:00	2024-11-06T03:00:00	3	Temperatura mínima	14.1
50716	7	Sololá	701	Sololá	3	Barraneche	9	Septiembre	2023-09-22T00:00:00	2024-11-06T03:00:00	5	Humedad	73
50717	7	Sololá	701	Sololá	3	Barraneche	9	Septiembre	2023-09-22T00:00:00	2024-11-06T03:00:00	6	Velocidad del viento	9.7
50718	7	Sololá	701	Sololá	3	Barraneche	9	Septiembre	2023-09-22T00:00:00	2024-11-06T03:00:00	7	Dirección del viento	9.66
50719	7	Sololá	701	Sololá	3	Barraneche	9	Septiembre	2023-09-22T00:00:00	2024-11-06T03:00:00	1	Precipitación	0
50720	7	Sololá	701	Sololá	3	Barraneche	9	Septiembre	2023-09-22T00:00:00	2024-11-06T03:00:00	8	Radiación solar	0
50721	7	Sololá	701	Sololá	3	Barraneche	9	Septiembre	2023-09-22T00:00:00	2024-11-06T04:00:00	2	Temperatura media	14.3
50722	7	Sololá	701	Sololá	3	Barraneche	9	Septiembre	2023-09-22T00:00:00	2024-11-06T04:00:00	4	Temperatura máxima	14.4
50723	7	Sololá	701	Sololá	3	Barraneche	9	Septiembre	2023-09-22T00:00:00	2024-11-06T04:00:00	3	Temperatura mínima	14.2
50724	7	Sololá	701	Sololá	3	Barraneche	9	Septiembre	2023-09-22T00:00:00	2024-11-06T04:00:00	5	Humedad	70
50725	7	Sololá	701	Sololá	3	Barraneche	9	Septiembre	2023-09-22T00:00:00	2024-11-06T04:00:00	6	Velocidad del viento	8
50726	7	Sololá	701	Sololá	3	Barraneche	9	Septiembre	2023-09-22T00:00:00	2024-11-06T04:00:00	7	Dirección del viento	8.05
50727	7	Sololá	701	Sololá	3	Barraneche	9	Septiembre	2023-09-22T00:00:00	2024-11-06T04:00:00	1	Precipitación	0
50728	7	Sololá	701	Sololá	3	Barraneche	9	Septiembre	2023-09-22T00:00:00	2024-11-06T04:00:00	8	Radiación solar	0
50729	7	Sololá	701	Sololá	3	Barraneche	9	Septiembre	2023-09-22T00:00:00	2024-11-06T05:00:00	2	Temperatura media	13.1
50730	7	Sololá	701	Sololá	3	Barraneche	9	Septiembre	2023-09-22T00:00:00	2024-11-06T05:00:00	4	Temperatura máxima	14.6
50731	7	Sololá	701	Sololá	3	Barraneche	9	Septiembre	2023-09-22T00:00:00	2024-11-06T05:00:00	3	Temperatura mínima	13.1
50732	7	Sololá	701	Sololá	3	Barraneche	9	Septiembre	2023-09-22T00:00:00	2024-11-06T05:00:00	5	Humedad	74
50733	7	Sololá	701	Sololá	3	Barraneche	9	Septiembre	2023-09-22T00:00:00	2024-11-06T05:00:00	6	Velocidad del viento	4.8
50734	7	Sololá	701	Sololá	3	Barraneche	9	Septiembre	2023-09-22T00:00:00	2024-11-06T05:00:00	7	Dirección del viento	4.83
50735	7	Sololá	701	Sololá	3	Barraneche	9	Septiembre	2023-09-22T00:00:00	2024-11-06T05:00:00	1	Precipitación	0
50736	7	Sololá	701	Sololá	3	Barraneche	9	Septiembre	2023-09-22T00:00:00	2024-11-06T05:00:00	8	Radiación solar	0
50737	7	Sololá	701	Sololá	3	Barraneche	9	Septiembre	2023-09-22T00:00:00	2024-11-06T06:00:00	2	Temperatura media	12.8
50738	7	Sololá	701	Sololá	3	Barraneche	9	Septiembre	2023-09-22T00:00:00	2024-11-06T06:00:00	4	Temperatura máxima	13.6
50739	7	Sololá	701	Sololá	3	Barraneche	9	Septiembre	2023-09-22T00:00:00	2024-11-06T06:00:00	3	Temperatura mínima	12.3
50740	7	Sololá	701	Sololá	3	Barraneche	9	Septiembre	2023-09-22T00:00:00	2024-11-06T06:00:00	5	Humedad	73
50741	7	Sololá	701	Sololá	3	Barraneche	9	Septiembre	2023-09-22T00:00:00	2024-11-06T06:00:00	6	Velocidad del viento	3.2
50742	7	Sololá	701	Sololá	3	Barraneche	9	Septiembre	2023-09-22T00:00:00	2024-11-06T06:00:00	7	Dirección del viento	3.22
50743	7	Sololá	701	Sololá	3	Barraneche	9	Septiembre	2023-09-22T00:00:00	2024-11-06T06:00:00	1	Precipitación	0
50744	7	Sololá	701	Sololá	3	Barraneche	9	Septiembre	2023-09-22T00:00:00	2024-11-06T06:00:00	8	Radiación solar	1
50745	7	Sololá	701	Sololá	3	Barraneche	9	Septiembre	2023-09-22T00:00:00	2024-11-06T07:00:00	2	Temperatura media	14.8
50746	7	Sololá	701	Sololá	3	Barraneche	9	Septiembre	2023-09-22T00:00:00	2024-11-06T07:00:00	4	Temperatura máxima	14.8
50747	7	Sololá	701	Sololá	3	Barraneche	9	Septiembre	2023-09-22T00:00:00	2024-11-06T07:00:00	3	Temperatura mínima	12.5
50748	7	Sololá	701	Sololá	3	Barraneche	9	Septiembre	2023-09-22T00:00:00	2024-11-06T07:00:00	5	Humedad	69
50749	7	Sololá	701	Sololá	3	Barraneche	9	Septiembre	2023-09-22T00:00:00	2024-11-06T07:00:00	6	Velocidad del viento	4.8
50750	7	Sololá	701	Sololá	3	Barraneche	9	Septiembre	2023-09-22T00:00:00	2024-11-06T07:00:00	7	Dirección del viento	4.83
50751	7	Sololá	701	Sololá	3	Barraneche	9	Septiembre	2023-09-22T00:00:00	2024-11-06T07:00:00	1	Precipitación	0
50752	7	Sololá	701	Sololá	3	Barraneche	9	Septiembre	2023-09-22T00:00:00	2024-11-06T07:00:00	8	Radiación solar	60
50753	7	Sololá	701	Sololá	3	Barraneche	9	Septiembre	2023-09-22T00:00:00	2024-11-06T08:00:00	2	Temperatura media	17.3
50754	7	Sololá	701	Sololá	3	Barraneche	9	Septiembre	2023-09-22T00:00:00	2024-11-06T08:00:00	4	Temperatura máxima	17.3
50755	7	Sololá	701	Sololá	3	Barraneche	9	Septiembre	2023-09-22T00:00:00	2024-11-06T08:00:00	3	Temperatura mínima	14.8
50756	7	Sololá	701	Sololá	3	Barraneche	9	Septiembre	2023-09-22T00:00:00	2024-11-06T08:00:00	5	Humedad	64
50757	7	Sololá	701	Sololá	3	Barraneche	9	Septiembre	2023-09-22T00:00:00	2024-11-06T08:00:00	6	Velocidad del viento	12.9
50758	7	Sololá	701	Sololá	3	Barraneche	9	Septiembre	2023-09-22T00:00:00	2024-11-06T08:00:00	7	Dirección del viento	12.87
50759	7	Sololá	701	Sololá	3	Barraneche	9	Septiembre	2023-09-22T00:00:00	2024-11-06T08:00:00	1	Precipitación	0
50760	7	Sololá	701	Sololá	3	Barraneche	9	Septiembre	2023-09-22T00:00:00	2024-11-06T08:00:00	8	Radiación solar	318
50761	7	Sololá	701	Sololá	3	Barraneche	9	Septiembre	2023-09-22T00:00:00	2024-11-06T09:00:00	2	Temperatura media	18
50762	7	Sololá	701	Sololá	3	Barraneche	9	Septiembre	2023-09-22T00:00:00	2024-11-06T09:00:00	4	Temperatura máxima	18.2
50763	7	Sololá	701	Sololá	3	Barraneche	9	Septiembre	2023-09-22T00:00:00	2024-11-06T09:00:00	3	Temperatura mínima	17.3
50764	7	Sololá	701	Sololá	3	Barraneche	9	Septiembre	2023-09-22T00:00:00	2024-11-06T09:00:00	5	Humedad	60
50765	7	Sololá	701	Sololá	3	Barraneche	9	Septiembre	2023-09-22T00:00:00	2024-11-06T09:00:00	6	Velocidad del viento	11.3
50766	7	Sololá	701	Sololá	3	Barraneche	9	Septiembre	2023-09-22T00:00:00	2024-11-06T09:00:00	7	Dirección del viento	11.27
50767	7	Sololá	701	Sololá	3	Barraneche	9	Septiembre	2023-09-22T00:00:00	2024-11-06T09:00:00	1	Precipitación	0
50768	7	Sololá	701	Sololá	3	Barraneche	9	Septiembre	2023-09-22T00:00:00	2024-11-06T09:00:00	8	Radiación solar	596
50769	7	Sololá	701	Sololá	3	Barraneche	9	Septiembre	2023-09-22T00:00:00	2024-11-06T10:00:00	2	Temperatura media	16.9
50770	7	Sololá	701	Sololá	3	Barraneche	9	Septiembre	2023-09-22T00:00:00	2024-11-06T10:00:00	4	Temperatura máxima	18.3
50771	7	Sololá	701	Sololá	3	Barraneche	9	Septiembre	2023-09-22T00:00:00	2024-11-06T10:00:00	3	Temperatura mínima	16.9
50772	7	Sololá	701	Sololá	3	Barraneche	9	Septiembre	2023-09-22T00:00:00	2024-11-06T10:00:00	5	Humedad	61
50773	7	Sololá	701	Sololá	3	Barraneche	9	Septiembre	2023-09-22T00:00:00	2024-11-06T10:00:00	6	Velocidad del viento	11.3
50774	7	Sololá	701	Sololá	3	Barraneche	9	Septiembre	2023-09-22T00:00:00	2024-11-06T10:00:00	7	Dirección del viento	11.27
50775	7	Sololá	701	Sololá	3	Barraneche	9	Septiembre	2023-09-22T00:00:00	2024-11-06T10:00:00	1	Precipitación	0
50776	7	Sololá	701	Sololá	3	Barraneche	9	Septiembre	2023-09-22T00:00:00	2024-11-06T10:00:00	8	Radiación solar	606
50777	7	Sololá	701	Sololá	3	Barraneche	9	Septiembre	2023-09-22T00:00:00	2024-11-06T11:00:00	2	Temperatura media	18.7
50778	7	Sololá	701	Sololá	3	Barraneche	9	Septiembre	2023-09-22T00:00:00	2024-11-06T11:00:00	4	Temperatura máxima	18.8
50779	7	Sololá	701	Sololá	3	Barraneche	9	Septiembre	2023-09-22T00:00:00	2024-11-06T11:00:00	3	Temperatura mínima	16.9
50780	7	Sololá	701	Sololá	3	Barraneche	9	Septiembre	2023-09-22T00:00:00	2024-11-06T11:00:00	5	Humedad	57
50781	7	Sololá	701	Sololá	3	Barraneche	9	Septiembre	2023-09-22T00:00:00	2024-11-06T11:00:00	6	Velocidad del viento	8
50782	7	Sololá	701	Sololá	3	Barraneche	9	Septiembre	2023-09-22T00:00:00	2024-11-06T11:00:00	7	Dirección del viento	8.05
50783	7	Sololá	701	Sololá	3	Barraneche	9	Septiembre	2023-09-22T00:00:00	2024-11-06T11:00:00	1	Precipitación	0
50784	7	Sololá	701	Sololá	3	Barraneche	9	Septiembre	2023-09-22T00:00:00	2024-11-06T11:00:00	8	Radiación solar	773
50785	7	Sololá	701	Sololá	3	Barraneche	9	Septiembre	2023-09-22T00:00:00	2024-11-06T12:00:00	2	Temperatura media	19.9
50786	7	Sololá	701	Sololá	3	Barraneche	9	Septiembre	2023-09-22T00:00:00	2024-11-06T12:00:00	4	Temperatura máxima	20.1
50787	7	Sololá	701	Sololá	3	Barraneche	9	Septiembre	2023-09-22T00:00:00	2024-11-06T12:00:00	3	Temperatura mínima	18.6
50788	7	Sololá	701	Sololá	3	Barraneche	9	Septiembre	2023-09-22T00:00:00	2024-11-06T12:00:00	5	Humedad	56
50789	7	Sololá	701	Sololá	3	Barraneche	9	Septiembre	2023-09-22T00:00:00	2024-11-06T12:00:00	6	Velocidad del viento	9.7
50790	7	Sololá	701	Sololá	3	Barraneche	9	Septiembre	2023-09-22T00:00:00	2024-11-06T12:00:00	7	Dirección del viento	9.66
50791	7	Sololá	701	Sololá	3	Barraneche	9	Septiembre	2023-09-22T00:00:00	2024-11-06T12:00:00	1	Precipitación	0
50792	7	Sololá	701	Sololá	3	Barraneche	9	Septiembre	2023-09-22T00:00:00	2024-11-06T12:00:00	8	Radiación solar	1091
50793	7	Sololá	701	Sololá	3	Barraneche	9	Septiembre	2023-09-22T00:00:00	2024-11-06T13:00:00	2	Temperatura media	19.6
50794	7	Sololá	701	Sololá	3	Barraneche	9	Septiembre	2023-09-22T00:00:00	2024-11-06T13:00:00	4	Temperatura máxima	20.4
50795	7	Sololá	701	Sololá	3	Barraneche	9	Septiembre	2023-09-22T00:00:00	2024-11-06T13:00:00	3	Temperatura mínima	19.6
50796	7	Sololá	701	Sololá	3	Barraneche	9	Septiembre	2023-09-22T00:00:00	2024-11-06T13:00:00	5	Humedad	46
50797	7	Sololá	701	Sololá	3	Barraneche	9	Septiembre	2023-09-22T00:00:00	2024-11-06T13:00:00	6	Velocidad del viento	11.3
50798	7	Sololá	701	Sololá	3	Barraneche	9	Septiembre	2023-09-22T00:00:00	2024-11-06T13:00:00	7	Dirección del viento	11.27
50799	7	Sololá	701	Sololá	3	Barraneche	9	Septiembre	2023-09-22T00:00:00	2024-11-06T13:00:00	1	Precipitación	0
50800	7	Sololá	701	Sololá	3	Barraneche	9	Septiembre	2023-09-22T00:00:00	2024-11-06T13:00:00	8	Radiación solar	1064
50801	7	Sololá	701	Sololá	3	Barraneche	9	Septiembre	2023-09-22T00:00:00	2024-11-06T14:00:00	2	Temperatura media	19.4
50802	7	Sololá	701	Sololá	3	Barraneche	9	Septiembre	2023-09-22T00:00:00	2024-11-06T14:00:00	4	Temperatura máxima	20.8
50803	7	Sololá	701	Sololá	3	Barraneche	9	Septiembre	2023-09-22T00:00:00	2024-11-06T14:00:00	3	Temperatura mínima	19.4
50804	7	Sololá	701	Sololá	3	Barraneche	9	Septiembre	2023-09-22T00:00:00	2024-11-06T14:00:00	5	Humedad	51
50805	7	Sololá	701	Sololá	3	Barraneche	9	Septiembre	2023-09-22T00:00:00	2024-11-06T14:00:00	6	Velocidad del viento	11.3
50806	7	Sololá	701	Sololá	3	Barraneche	9	Septiembre	2023-09-22T00:00:00	2024-11-06T14:00:00	7	Dirección del viento	11.27
50807	7	Sololá	701	Sololá	3	Barraneche	9	Septiembre	2023-09-22T00:00:00	2024-11-06T14:00:00	1	Precipitación	0
50808	7	Sololá	701	Sololá	3	Barraneche	9	Septiembre	2023-09-22T00:00:00	2024-11-06T14:00:00	8	Radiación solar	871
50809	7	Sololá	701	Sololá	3	Barraneche	9	Septiembre	2023-09-22T00:00:00	2024-11-06T15:00:00	2	Temperatura media	20.4
50810	7	Sololá	701	Sololá	3	Barraneche	9	Septiembre	2023-09-22T00:00:00	2024-11-06T15:00:00	4	Temperatura máxima	21
50811	7	Sololá	701	Sololá	3	Barraneche	9	Septiembre	2023-09-22T00:00:00	2024-11-06T15:00:00	3	Temperatura mínima	19.4
50812	7	Sololá	701	Sololá	3	Barraneche	9	Septiembre	2023-09-22T00:00:00	2024-11-06T15:00:00	5	Humedad	53
50813	7	Sololá	701	Sololá	3	Barraneche	9	Septiembre	2023-09-22T00:00:00	2024-11-06T15:00:00	6	Velocidad del viento	9.7
50814	7	Sololá	701	Sololá	3	Barraneche	9	Septiembre	2023-09-22T00:00:00	2024-11-06T15:00:00	7	Dirección del viento	9.66
50815	7	Sololá	701	Sololá	3	Barraneche	9	Septiembre	2023-09-22T00:00:00	2024-11-06T15:00:00	1	Precipitación	0
50816	7	Sololá	701	Sololá	3	Barraneche	9	Septiembre	2023-09-22T00:00:00	2024-11-06T15:00:00	8	Radiación solar	737
50817	7	Sololá	701	Sololá	3	Barraneche	9	Septiembre	2023-09-22T00:00:00	2024-11-06T16:00:00	2	Temperatura media	18.4
50818	7	Sololá	701	Sololá	3	Barraneche	9	Septiembre	2023-09-22T00:00:00	2024-11-06T16:00:00	4	Temperatura máxima	20.4
50819	7	Sololá	701	Sololá	3	Barraneche	9	Septiembre	2023-09-22T00:00:00	2024-11-06T16:00:00	3	Temperatura mínima	18.3
50820	7	Sololá	701	Sololá	3	Barraneche	9	Septiembre	2023-09-22T00:00:00	2024-11-06T16:00:00	5	Humedad	57
50821	7	Sololá	701	Sololá	3	Barraneche	9	Septiembre	2023-09-22T00:00:00	2024-11-06T16:00:00	6	Velocidad del viento	12.9
50822	7	Sololá	701	Sololá	3	Barraneche	9	Septiembre	2023-09-22T00:00:00	2024-11-06T16:00:00	7	Dirección del viento	12.87
50823	7	Sololá	701	Sololá	3	Barraneche	9	Septiembre	2023-09-22T00:00:00	2024-11-06T16:00:00	1	Precipitación	0
50824	7	Sololá	701	Sololá	3	Barraneche	9	Septiembre	2023-09-22T00:00:00	2024-11-06T16:00:00	8	Radiación solar	403
50825	7	Sololá	701	Sololá	3	Barraneche	9	Septiembre	2023-09-22T00:00:00	2024-11-06T17:00:00	2	Temperatura media	18.6
50826	7	Sololá	701	Sololá	3	Barraneche	9	Septiembre	2023-09-22T00:00:00	2024-11-06T17:00:00	4	Temperatura máxima	19.2
50827	7	Sololá	701	Sololá	3	Barraneche	9	Septiembre	2023-09-22T00:00:00	2024-11-06T17:00:00	3	Temperatura mínima	18.4
50828	7	Sololá	701	Sololá	3	Barraneche	9	Septiembre	2023-09-22T00:00:00	2024-11-06T17:00:00	5	Humedad	55
50829	7	Sololá	701	Sololá	3	Barraneche	9	Septiembre	2023-09-22T00:00:00	2024-11-06T17:00:00	6	Velocidad del viento	11.3
50830	7	Sololá	701	Sololá	3	Barraneche	9	Septiembre	2023-09-22T00:00:00	2024-11-06T17:00:00	7	Dirección del viento	11.27
50831	7	Sololá	701	Sololá	3	Barraneche	9	Septiembre	2023-09-22T00:00:00	2024-11-06T17:00:00	1	Precipitación	0
50832	7	Sololá	701	Sololá	3	Barraneche	9	Septiembre	2023-09-22T00:00:00	2024-11-06T17:00:00	8	Radiación solar	252
50833	7	Sololá	701	Sololá	3	Barraneche	9	Septiembre	2023-09-22T00:00:00	2024-11-06T18:00:00	2	Temperatura media	17.7
50834	7	Sololá	701	Sololá	3	Barraneche	9	Septiembre	2023-09-22T00:00:00	2024-11-06T18:00:00	4	Temperatura máxima	18.8
50835	7	Sololá	701	Sololá	3	Barraneche	9	Septiembre	2023-09-22T00:00:00	2024-11-06T18:00:00	3	Temperatura mínima	17.7
50836	7	Sololá	701	Sololá	3	Barraneche	9	Septiembre	2023-09-22T00:00:00	2024-11-06T18:00:00	5	Humedad	59
50837	7	Sololá	701	Sololá	3	Barraneche	9	Septiembre	2023-09-22T00:00:00	2024-11-06T18:00:00	6	Velocidad del viento	8
50838	7	Sololá	701	Sololá	3	Barraneche	9	Septiembre	2023-09-22T00:00:00	2024-11-06T18:00:00	7	Dirección del viento	8.05
50839	7	Sololá	701	Sololá	3	Barraneche	9	Septiembre	2023-09-22T00:00:00	2024-11-06T18:00:00	1	Precipitación	0
50840	7	Sololá	701	Sololá	3	Barraneche	9	Septiembre	2023-09-22T00:00:00	2024-11-06T18:00:00	8	Radiación solar	143
50841	7	Sololá	701	Sololá	3	Barraneche	9	Septiembre	2023-09-22T00:00:00	2024-11-06T19:00:00	2	Temperatura media	16.9
50842	7	Sololá	701	Sololá	3	Barraneche	9	Septiembre	2023-09-22T00:00:00	2024-11-06T19:00:00	4	Temperatura máxima	17.7
50843	7	Sololá	701	Sololá	3	Barraneche	9	Septiembre	2023-09-22T00:00:00	2024-11-06T19:00:00	3	Temperatura mínima	16.8
50844	7	Sololá	701	Sololá	3	Barraneche	9	Septiembre	2023-09-22T00:00:00	2024-11-06T19:00:00	5	Humedad	64
50845	7	Sololá	701	Sololá	3	Barraneche	9	Septiembre	2023-09-22T00:00:00	2024-11-06T19:00:00	6	Velocidad del viento	6.4
50846	7	Sololá	701	Sololá	3	Barraneche	9	Septiembre	2023-09-22T00:00:00	2024-11-06T19:00:00	7	Dirección del viento	6.44
50847	7	Sololá	701	Sololá	3	Barraneche	9	Septiembre	2023-09-22T00:00:00	2024-11-06T19:00:00	1	Precipitación	0
50848	7	Sololá	701	Sololá	3	Barraneche	9	Septiembre	2023-09-22T00:00:00	2024-11-06T19:00:00	8	Radiación solar	0
50849	7	Sololá	701	Sololá	3	Barraneche	9	Septiembre	2023-09-22T00:00:00	2024-11-06T20:00:00	2	Temperatura media	15.6
50850	7	Sololá	701	Sololá	3	Barraneche	9	Septiembre	2023-09-22T00:00:00	2024-11-06T20:00:00	4	Temperatura máxima	16.9
50851	7	Sololá	701	Sololá	3	Barraneche	9	Septiembre	2023-09-22T00:00:00	2024-11-06T20:00:00	3	Temperatura mínima	15.4
50852	7	Sololá	701	Sololá	3	Barraneche	9	Septiembre	2023-09-22T00:00:00	2024-11-06T20:00:00	5	Humedad	70
50853	7	Sololá	701	Sololá	3	Barraneche	9	Septiembre	2023-09-22T00:00:00	2024-11-06T20:00:00	6	Velocidad del viento	4.8
50854	7	Sololá	701	Sololá	3	Barraneche	9	Septiembre	2023-09-22T00:00:00	2024-11-06T20:00:00	7	Dirección del viento	4.83
50855	7	Sololá	701	Sololá	3	Barraneche	9	Septiembre	2023-09-22T00:00:00	2024-11-06T20:00:00	1	Precipitación	2
50856	7	Sololá	701	Sololá	3	Barraneche	9	Septiembre	2023-09-22T00:00:00	2024-11-06T20:00:00	8	Radiación solar	0
50857	7	Sololá	701	Sololá	3	Barraneche	9	Septiembre	2023-09-22T00:00:00	2024-11-06T21:00:00	2	Temperatura media	15.2
50858	7	Sololá	701	Sololá	3	Barraneche	9	Septiembre	2023-09-22T00:00:00	2024-11-06T21:00:00	4	Temperatura máxima	15.6
50859	7	Sololá	701	Sololá	3	Barraneche	9	Septiembre	2023-09-22T00:00:00	2024-11-06T21:00:00	3	Temperatura mínima	15.2
50860	7	Sololá	701	Sololá	3	Barraneche	9	Septiembre	2023-09-22T00:00:00	2024-11-06T21:00:00	5	Humedad	71
50861	7	Sololá	701	Sololá	3	Barraneche	9	Septiembre	2023-09-22T00:00:00	2024-11-06T21:00:00	6	Velocidad del viento	6.4
50862	7	Sololá	701	Sololá	3	Barraneche	9	Septiembre	2023-09-22T00:00:00	2024-11-06T21:00:00	7	Dirección del viento	6.44
50863	7	Sololá	701	Sololá	3	Barraneche	9	Septiembre	2023-09-22T00:00:00	2024-11-06T21:00:00	1	Precipitación	0
50864	7	Sololá	701	Sololá	3	Barraneche	9	Septiembre	2023-09-22T00:00:00	2024-11-06T21:00:00	8	Radiación solar	0
50865	7	Sololá	701	Sololá	3	Barraneche	9	Septiembre	2023-09-22T00:00:00	2024-11-06T22:00:00	2	Temperatura media	14.8
50866	7	Sololá	701	Sololá	3	Barraneche	9	Septiembre	2023-09-22T00:00:00	2024-11-06T22:00:00	4	Temperatura máxima	15.2
50867	7	Sololá	701	Sololá	3	Barraneche	9	Septiembre	2023-09-22T00:00:00	2024-11-06T22:00:00	3	Temperatura mínima	14.5
50868	7	Sololá	701	Sololá	3	Barraneche	9	Septiembre	2023-09-22T00:00:00	2024-11-06T22:00:00	5	Humedad	70
50869	7	Sololá	701	Sololá	3	Barraneche	9	Septiembre	2023-09-22T00:00:00	2024-11-06T22:00:00	6	Velocidad del viento	4.8
50870	7	Sololá	701	Sololá	3	Barraneche	9	Septiembre	2023-09-22T00:00:00	2024-11-06T22:00:00	7	Dirección del viento	4.83
50871	7	Sololá	701	Sololá	3	Barraneche	9	Septiembre	2023-09-22T00:00:00	2024-11-06T22:00:00	1	Precipitación	0
50872	7	Sololá	701	Sololá	3	Barraneche	9	Septiembre	2023-09-22T00:00:00	2024-11-06T22:00:00	8	Radiación solar	0
50873	7	Sololá	701	Sololá	3	Barraneche	9	Septiembre	2023-09-22T00:00:00	2024-11-06T23:00:00	2	Temperatura media	14.7
50874	7	Sololá	701	Sololá	3	Barraneche	9	Septiembre	2023-09-22T00:00:00	2024-11-06T23:00:00	4	Temperatura máxima	14.8
50875	7	Sololá	701	Sololá	3	Barraneche	9	Septiembre	2023-09-22T00:00:00	2024-11-06T23:00:00	3	Temperatura mínima	14.6
50876	7	Sololá	701	Sololá	3	Barraneche	9	Septiembre	2023-09-22T00:00:00	2024-11-06T23:00:00	5	Humedad	64
50877	7	Sololá	701	Sololá	3	Barraneche	9	Septiembre	2023-09-22T00:00:00	2024-11-06T23:00:00	6	Velocidad del viento	6.4
50878	7	Sololá	701	Sololá	3	Barraneche	9	Septiembre	2023-09-22T00:00:00	2024-11-06T23:00:00	7	Dirección del viento	6.44
50879	7	Sololá	701	Sololá	3	Barraneche	9	Septiembre	2023-09-22T00:00:00	2024-11-06T23:00:00	1	Precipitación	0
50880	7	Sololá	701	Sololá	3	Barraneche	9	Septiembre	2023-09-22T00:00:00	2024-11-06T23:00:00	8	Radiación solar	0
50881	7	Sololá	701	Sololá	3	Barraneche	9	Septiembre	2023-09-23T00:00:00	2024-11-06T00:00:00	2	Temperatura media	13.6
50882	7	Sololá	701	Sololá	3	Barraneche	9	Septiembre	2023-09-23T00:00:00	2024-11-06T00:00:00	4	Temperatura máxima	14.7
50883	7	Sololá	701	Sololá	3	Barraneche	9	Septiembre	2023-09-23T00:00:00	2024-11-06T00:00:00	3	Temperatura mínima	13.4
50884	7	Sololá	701	Sololá	3	Barraneche	9	Septiembre	2023-09-23T00:00:00	2024-11-06T00:00:00	5	Humedad	70
50885	7	Sololá	701	Sololá	3	Barraneche	9	Septiembre	2023-09-23T00:00:00	2024-11-06T00:00:00	6	Velocidad del viento	3.2
50886	7	Sololá	701	Sololá	3	Barraneche	9	Septiembre	2023-09-23T00:00:00	2024-11-06T00:00:00	7	Dirección del viento	3.22
50887	7	Sololá	701	Sololá	3	Barraneche	9	Septiembre	2023-09-23T00:00:00	2024-11-06T00:00:00	1	Precipitación	0
50888	7	Sololá	701	Sololá	3	Barraneche	9	Septiembre	2023-09-23T00:00:00	2024-11-06T00:00:00	8	Radiación solar	0
50889	7	Sololá	701	Sololá	3	Barraneche	9	Septiembre	2023-09-23T00:00:00	2024-11-06T01:00:00	2	Temperatura media	12.6
50890	7	Sololá	701	Sololá	3	Barraneche	9	Septiembre	2023-09-23T00:00:00	2024-11-06T01:00:00	4	Temperatura máxima	13.6
50891	7	Sololá	701	Sololá	3	Barraneche	9	Septiembre	2023-09-23T00:00:00	2024-11-06T01:00:00	3	Temperatura mínima	12.4
50892	7	Sololá	701	Sololá	3	Barraneche	9	Septiembre	2023-09-23T00:00:00	2024-11-06T01:00:00	5	Humedad	68
50893	7	Sololá	701	Sololá	3	Barraneche	9	Septiembre	2023-09-23T00:00:00	2024-11-06T01:00:00	6	Velocidad del viento	3.2
50894	7	Sololá	701	Sololá	3	Barraneche	9	Septiembre	2023-09-23T00:00:00	2024-11-06T01:00:00	7	Dirección del viento	3.22
50895	7	Sololá	701	Sololá	3	Barraneche	9	Septiembre	2023-09-23T00:00:00	2024-11-06T01:00:00	1	Precipitación	0
50896	7	Sololá	701	Sololá	3	Barraneche	9	Septiembre	2023-09-23T00:00:00	2024-11-06T01:00:00	8	Radiación solar	0
50897	7	Sololá	701	Sololá	3	Barraneche	9	Septiembre	2023-09-23T00:00:00	2024-11-06T02:00:00	2	Temperatura media	11.6
50898	7	Sololá	701	Sololá	3	Barraneche	9	Septiembre	2023-09-23T00:00:00	2024-11-06T02:00:00	4	Temperatura máxima	12.7
50899	7	Sololá	701	Sololá	3	Barraneche	9	Septiembre	2023-09-23T00:00:00	2024-11-06T02:00:00	3	Temperatura mínima	11.6
50900	7	Sololá	701	Sololá	3	Barraneche	9	Septiembre	2023-09-23T00:00:00	2024-11-06T02:00:00	5	Humedad	70
50901	7	Sololá	701	Sololá	3	Barraneche	9	Septiembre	2023-09-23T00:00:00	2024-11-06T02:00:00	6	Velocidad del viento	3.2
50902	7	Sololá	701	Sololá	3	Barraneche	9	Septiembre	2023-09-23T00:00:00	2024-11-06T02:00:00	7	Dirección del viento	3.22
50903	7	Sololá	701	Sololá	3	Barraneche	9	Septiembre	2023-09-23T00:00:00	2024-11-06T02:00:00	1	Precipitación	0
50904	7	Sololá	701	Sololá	3	Barraneche	9	Septiembre	2023-09-23T00:00:00	2024-11-06T02:00:00	8	Radiación solar	0
50905	7	Sololá	701	Sololá	3	Barraneche	9	Septiembre	2023-09-23T00:00:00	2024-11-06T03:00:00	2	Temperatura media	12.1
50906	7	Sololá	701	Sololá	3	Barraneche	9	Septiembre	2023-09-23T00:00:00	2024-11-06T03:00:00	4	Temperatura máxima	12.1
50907	7	Sololá	701	Sololá	3	Barraneche	9	Septiembre	2023-09-23T00:00:00	2024-11-06T03:00:00	3	Temperatura mínima	11.2
50908	7	Sololá	701	Sololá	3	Barraneche	9	Septiembre	2023-09-23T00:00:00	2024-11-06T03:00:00	5	Humedad	65
50909	7	Sololá	701	Sololá	3	Barraneche	9	Septiembre	2023-09-23T00:00:00	2024-11-06T03:00:00	6	Velocidad del viento	4.8
50910	7	Sololá	701	Sololá	3	Barraneche	9	Septiembre	2023-09-23T00:00:00	2024-11-06T03:00:00	7	Dirección del viento	4.83
50911	7	Sololá	701	Sololá	3	Barraneche	9	Septiembre	2023-09-23T00:00:00	2024-11-06T03:00:00	1	Precipitación	0
50912	7	Sololá	701	Sololá	3	Barraneche	9	Septiembre	2023-09-23T00:00:00	2024-11-06T03:00:00	8	Radiación solar	0
50913	7	Sololá	701	Sololá	3	Barraneche	9	Septiembre	2023-09-23T00:00:00	2024-11-06T04:00:00	2	Temperatura media	11.1
50914	7	Sololá	701	Sololá	3	Barraneche	9	Septiembre	2023-09-23T00:00:00	2024-11-06T04:00:00	4	Temperatura máxima	12.5
50915	7	Sololá	701	Sololá	3	Barraneche	9	Septiembre	2023-09-23T00:00:00	2024-11-06T04:00:00	3	Temperatura mínima	10.8
50916	7	Sololá	701	Sololá	3	Barraneche	9	Septiembre	2023-09-23T00:00:00	2024-11-06T04:00:00	5	Humedad	69
50917	7	Sololá	701	Sololá	3	Barraneche	9	Septiembre	2023-09-23T00:00:00	2024-11-06T04:00:00	6	Velocidad del viento	3.2
50918	7	Sololá	701	Sololá	3	Barraneche	9	Septiembre	2023-09-23T00:00:00	2024-11-06T04:00:00	7	Dirección del viento	3.22
50919	7	Sololá	701	Sololá	3	Barraneche	9	Septiembre	2023-09-23T00:00:00	2024-11-06T04:00:00	1	Precipitación	0
50920	7	Sololá	701	Sololá	3	Barraneche	9	Septiembre	2023-09-23T00:00:00	2024-11-06T04:00:00	8	Radiación solar	0
50921	7	Sololá	701	Sololá	3	Barraneche	9	Septiembre	2023-09-23T00:00:00	2024-11-06T05:00:00	2	Temperatura media	11
50922	7	Sololá	701	Sololá	3	Barraneche	9	Septiembre	2023-09-23T00:00:00	2024-11-06T05:00:00	4	Temperatura máxima	11.5
50923	7	Sololá	701	Sololá	3	Barraneche	9	Septiembre	2023-09-23T00:00:00	2024-11-06T05:00:00	3	Temperatura mínima	10.9
50924	7	Sololá	701	Sololá	3	Barraneche	9	Septiembre	2023-09-23T00:00:00	2024-11-06T05:00:00	5	Humedad	66
50925	7	Sololá	701	Sololá	3	Barraneche	9	Septiembre	2023-09-23T00:00:00	2024-11-06T05:00:00	6	Velocidad del viento	4.8
50926	7	Sololá	701	Sololá	3	Barraneche	9	Septiembre	2023-09-23T00:00:00	2024-11-06T05:00:00	7	Dirección del viento	4.83
50927	7	Sololá	701	Sololá	3	Barraneche	9	Septiembre	2023-09-23T00:00:00	2024-11-06T05:00:00	1	Precipitación	0
50928	7	Sololá	701	Sololá	3	Barraneche	9	Septiembre	2023-09-23T00:00:00	2024-11-06T05:00:00	8	Radiación solar	0
50929	7	Sololá	701	Sololá	3	Barraneche	9	Septiembre	2023-09-23T00:00:00	2024-11-06T06:00:00	2	Temperatura media	12.2
50930	7	Sololá	701	Sololá	3	Barraneche	9	Septiembre	2023-09-23T00:00:00	2024-11-06T06:00:00	4	Temperatura máxima	12.9
50931	7	Sololá	701	Sololá	3	Barraneche	9	Septiembre	2023-09-23T00:00:00	2024-11-06T06:00:00	3	Temperatura mínima	11.1
50932	7	Sololá	701	Sololá	3	Barraneche	9	Septiembre	2023-09-23T00:00:00	2024-11-06T06:00:00	5	Humedad	61
50933	7	Sololá	701	Sololá	3	Barraneche	9	Septiembre	2023-09-23T00:00:00	2024-11-06T06:00:00	6	Velocidad del viento	4.8
50934	7	Sololá	701	Sololá	3	Barraneche	9	Septiembre	2023-09-23T00:00:00	2024-11-06T06:00:00	7	Dirección del viento	4.83
50935	7	Sololá	701	Sololá	3	Barraneche	9	Septiembre	2023-09-23T00:00:00	2024-11-06T06:00:00	1	Precipitación	0
50936	7	Sololá	701	Sololá	3	Barraneche	9	Septiembre	2023-09-23T00:00:00	2024-11-06T06:00:00	8	Radiación solar	1
50937	7	Sololá	701	Sololá	3	Barraneche	9	Septiembre	2023-09-23T00:00:00	2024-11-06T07:00:00	2	Temperatura media	13.3
50938	7	Sololá	701	Sololá	3	Barraneche	9	Septiembre	2023-09-23T00:00:00	2024-11-06T07:00:00	4	Temperatura máxima	13.3
50939	7	Sololá	701	Sololá	3	Barraneche	9	Septiembre	2023-09-23T00:00:00	2024-11-06T07:00:00	3	Temperatura mínima	11.9
50940	7	Sololá	701	Sololá	3	Barraneche	9	Septiembre	2023-09-23T00:00:00	2024-11-06T07:00:00	5	Humedad	60
50941	7	Sololá	701	Sololá	3	Barraneche	9	Septiembre	2023-09-23T00:00:00	2024-11-06T07:00:00	6	Velocidad del viento	4.8
50942	7	Sololá	701	Sololá	3	Barraneche	9	Septiembre	2023-09-23T00:00:00	2024-11-06T07:00:00	7	Dirección del viento	4.83
50943	7	Sololá	701	Sololá	3	Barraneche	9	Septiembre	2023-09-23T00:00:00	2024-11-06T07:00:00	1	Precipitación	0
50944	7	Sololá	701	Sololá	3	Barraneche	9	Septiembre	2023-09-23T00:00:00	2024-11-06T07:00:00	8	Radiación solar	49
50945	7	Sololá	701	Sololá	3	Barraneche	9	Septiembre	2023-09-23T00:00:00	2024-11-06T08:00:00	2	Temperatura media	16.8
50946	7	Sololá	701	Sololá	3	Barraneche	9	Septiembre	2023-09-23T00:00:00	2024-11-06T08:00:00	4	Temperatura máxima	16.8
50947	7	Sololá	701	Sololá	3	Barraneche	9	Septiembre	2023-09-23T00:00:00	2024-11-06T08:00:00	3	Temperatura mínima	13.3
50948	7	Sololá	701	Sololá	3	Barraneche	9	Septiembre	2023-09-23T00:00:00	2024-11-06T08:00:00	5	Humedad	52
50949	7	Sololá	701	Sololá	3	Barraneche	9	Septiembre	2023-09-23T00:00:00	2024-11-06T08:00:00	6	Velocidad del viento	3.2
50950	7	Sololá	701	Sololá	3	Barraneche	9	Septiembre	2023-09-23T00:00:00	2024-11-06T08:00:00	7	Dirección del viento	3.22
50951	7	Sololá	701	Sololá	3	Barraneche	9	Septiembre	2023-09-23T00:00:00	2024-11-06T08:00:00	1	Precipitación	0
50952	7	Sololá	701	Sololá	3	Barraneche	9	Septiembre	2023-09-23T00:00:00	2024-11-06T08:00:00	8	Radiación solar	327
50953	7	Sololá	701	Sololá	3	Barraneche	9	Septiembre	2023-09-23T00:00:00	2024-11-06T09:00:00	2	Temperatura media	18.2
50954	7	Sololá	701	Sololá	3	Barraneche	9	Septiembre	2023-09-23T00:00:00	2024-11-06T09:00:00	4	Temperatura máxima	18.3
50955	7	Sololá	701	Sololá	3	Barraneche	9	Septiembre	2023-09-23T00:00:00	2024-11-06T09:00:00	3	Temperatura mínima	16.8
50956	7	Sololá	701	Sololá	3	Barraneche	9	Septiembre	2023-09-23T00:00:00	2024-11-06T09:00:00	5	Humedad	47
50957	7	Sololá	701	Sololá	3	Barraneche	9	Septiembre	2023-09-23T00:00:00	2024-11-06T09:00:00	6	Velocidad del viento	11.3
50958	7	Sololá	701	Sololá	3	Barraneche	9	Septiembre	2023-09-23T00:00:00	2024-11-06T09:00:00	7	Dirección del viento	11.27
50959	7	Sololá	701	Sololá	3	Barraneche	9	Septiembre	2023-09-23T00:00:00	2024-11-06T09:00:00	1	Precipitación	0
50960	7	Sololá	701	Sololá	3	Barraneche	9	Septiembre	2023-09-23T00:00:00	2024-11-06T09:00:00	8	Radiación solar	571
50961	7	Sololá	701	Sololá	3	Barraneche	9	Septiembre	2023-09-23T00:00:00	2024-11-06T10:00:00	2	Temperatura media	19.2
50962	7	Sololá	701	Sololá	3	Barraneche	9	Septiembre	2023-09-23T00:00:00	2024-11-06T10:00:00	4	Temperatura máxima	19.2
50963	7	Sololá	701	Sololá	3	Barraneche	9	Septiembre	2023-09-23T00:00:00	2024-11-06T10:00:00	3	Temperatura mínima	18.1
50964	7	Sololá	701	Sololá	3	Barraneche	9	Septiembre	2023-09-23T00:00:00	2024-11-06T10:00:00	5	Humedad	43
50965	7	Sololá	701	Sololá	3	Barraneche	9	Septiembre	2023-09-23T00:00:00	2024-11-06T10:00:00	6	Velocidad del viento	11.3
50966	7	Sololá	701	Sololá	3	Barraneche	9	Septiembre	2023-09-23T00:00:00	2024-11-06T10:00:00	7	Dirección del viento	11.27
50967	7	Sololá	701	Sololá	3	Barraneche	9	Septiembre	2023-09-23T00:00:00	2024-11-06T10:00:00	1	Precipitación	0
50968	7	Sololá	701	Sololá	3	Barraneche	9	Septiembre	2023-09-23T00:00:00	2024-11-06T10:00:00	8	Radiación solar	788
50969	7	Sololá	701	Sololá	3	Barraneche	9	Septiembre	2023-09-23T00:00:00	2024-11-06T11:00:00	2	Temperatura media	19.5
50970	7	Sololá	701	Sololá	3	Barraneche	9	Septiembre	2023-09-23T00:00:00	2024-11-06T11:00:00	4	Temperatura máxima	19.6
50971	7	Sololá	701	Sololá	3	Barraneche	9	Septiembre	2023-09-23T00:00:00	2024-11-06T11:00:00	3	Temperatura mínima	19.1
50972	7	Sololá	701	Sololá	3	Barraneche	9	Septiembre	2023-09-23T00:00:00	2024-11-06T11:00:00	5	Humedad	47
50973	7	Sololá	701	Sololá	3	Barraneche	9	Septiembre	2023-09-23T00:00:00	2024-11-06T11:00:00	6	Velocidad del viento	12.9
50974	7	Sololá	701	Sololá	3	Barraneche	9	Septiembre	2023-09-23T00:00:00	2024-11-06T11:00:00	7	Dirección del viento	12.87
50975	7	Sololá	701	Sololá	3	Barraneche	9	Septiembre	2023-09-23T00:00:00	2024-11-06T11:00:00	1	Precipitación	0
50976	7	Sololá	701	Sololá	3	Barraneche	9	Septiembre	2023-09-23T00:00:00	2024-11-06T11:00:00	8	Radiación solar	939
50977	7	Sololá	701	Sololá	3	Barraneche	9	Septiembre	2023-09-23T00:00:00	2024-11-06T12:00:00	2	Temperatura media	19.9
50978	7	Sololá	701	Sololá	3	Barraneche	9	Septiembre	2023-09-23T00:00:00	2024-11-06T12:00:00	4	Temperatura máxima	20.2
50979	7	Sololá	701	Sololá	3	Barraneche	9	Septiembre	2023-09-23T00:00:00	2024-11-06T12:00:00	3	Temperatura mínima	19.3
50980	7	Sololá	701	Sololá	3	Barraneche	9	Septiembre	2023-09-23T00:00:00	2024-11-06T12:00:00	5	Humedad	50
50981	7	Sololá	701	Sololá	3	Barraneche	9	Septiembre	2023-09-23T00:00:00	2024-11-06T12:00:00	6	Velocidad del viento	11.3
50982	7	Sololá	701	Sololá	3	Barraneche	9	Septiembre	2023-09-23T00:00:00	2024-11-06T12:00:00	7	Dirección del viento	11.27
50983	7	Sololá	701	Sololá	3	Barraneche	9	Septiembre	2023-09-23T00:00:00	2024-11-06T12:00:00	1	Precipitación	0
50984	7	Sololá	701	Sololá	3	Barraneche	9	Septiembre	2023-09-23T00:00:00	2024-11-06T12:00:00	8	Radiación solar	1030
50985	7	Sololá	701	Sololá	3	Barraneche	9	Septiembre	2023-09-23T00:00:00	2024-11-06T13:00:00	2	Temperatura media	20.6
50986	7	Sololá	701	Sololá	3	Barraneche	9	Septiembre	2023-09-23T00:00:00	2024-11-06T13:00:00	4	Temperatura máxima	20.7
50987	7	Sololá	701	Sololá	3	Barraneche	9	Septiembre	2023-09-23T00:00:00	2024-11-06T13:00:00	3	Temperatura mínima	19.8
50988	7	Sololá	701	Sololá	3	Barraneche	9	Septiembre	2023-09-23T00:00:00	2024-11-06T13:00:00	5	Humedad	49
50989	7	Sololá	701	Sololá	3	Barraneche	9	Septiembre	2023-09-23T00:00:00	2024-11-06T13:00:00	6	Velocidad del viento	11.3
50990	7	Sololá	701	Sololá	3	Barraneche	9	Septiembre	2023-09-23T00:00:00	2024-11-06T13:00:00	7	Dirección del viento	11.27
50991	7	Sololá	701	Sololá	3	Barraneche	9	Septiembre	2023-09-23T00:00:00	2024-11-06T13:00:00	1	Precipitación	0
50992	7	Sololá	701	Sololá	3	Barraneche	9	Septiembre	2023-09-23T00:00:00	2024-11-06T13:00:00	8	Radiación solar	1007
50993	7	Sololá	701	Sololá	3	Barraneche	9	Septiembre	2023-09-23T00:00:00	2024-11-06T14:00:00	2	Temperatura media	20.6
50994	7	Sololá	701	Sololá	3	Barraneche	9	Septiembre	2023-09-23T00:00:00	2024-11-06T14:00:00	4	Temperatura máxima	20.9
50995	7	Sololá	701	Sololá	3	Barraneche	9	Septiembre	2023-09-23T00:00:00	2024-11-06T14:00:00	3	Temperatura mínima	20.3
50996	7	Sololá	701	Sololá	3	Barraneche	9	Septiembre	2023-09-23T00:00:00	2024-11-06T14:00:00	5	Humedad	48
50997	7	Sololá	701	Sololá	3	Barraneche	9	Septiembre	2023-09-23T00:00:00	2024-11-06T14:00:00	6	Velocidad del viento	11.3
50998	7	Sololá	701	Sololá	3	Barraneche	9	Septiembre	2023-09-23T00:00:00	2024-11-06T14:00:00	7	Dirección del viento	11.27
50999	7	Sololá	701	Sololá	3	Barraneche	9	Septiembre	2023-09-23T00:00:00	2024-11-06T14:00:00	1	Precipitación	0
51000	7	Sololá	701	Sololá	3	Barraneche	9	Septiembre	2023-09-23T00:00:00	2024-11-06T14:00:00	8	Radiación solar	893
51001	7	Sololá	701	Sololá	3	Barraneche	9	Septiembre	2023-09-23T00:00:00	2024-11-06T15:00:00	2	Temperatura media	20.8
51002	7	Sololá	701	Sololá	3	Barraneche	9	Septiembre	2023-09-23T00:00:00	2024-11-06T15:00:00	4	Temperatura máxima	21.3
51003	7	Sololá	701	Sololá	3	Barraneche	9	Septiembre	2023-09-23T00:00:00	2024-11-06T15:00:00	3	Temperatura mínima	20.4
51004	7	Sololá	701	Sololá	3	Barraneche	9	Septiembre	2023-09-23T00:00:00	2024-11-06T15:00:00	5	Humedad	45
51005	7	Sololá	701	Sololá	3	Barraneche	9	Septiembre	2023-09-23T00:00:00	2024-11-06T15:00:00	6	Velocidad del viento	9.7
51006	7	Sololá	701	Sololá	3	Barraneche	9	Septiembre	2023-09-23T00:00:00	2024-11-06T15:00:00	7	Dirección del viento	9.66
51007	7	Sololá	701	Sololá	3	Barraneche	9	Septiembre	2023-09-23T00:00:00	2024-11-06T15:00:00	1	Precipitación	0
51008	7	Sololá	701	Sololá	3	Barraneche	9	Septiembre	2023-09-23T00:00:00	2024-11-06T15:00:00	8	Radiación solar	750
51009	7	Sololá	701	Sololá	3	Barraneche	9	Septiembre	2023-09-23T00:00:00	2024-11-06T16:00:00	2	Temperatura media	18.2
51010	7	Sololá	701	Sololá	3	Barraneche	9	Septiembre	2023-09-23T00:00:00	2024-11-06T16:00:00	4	Temperatura máxima	20.8
51011	7	Sololá	701	Sololá	3	Barraneche	9	Septiembre	2023-09-23T00:00:00	2024-11-06T16:00:00	3	Temperatura mínima	18.1
51012	7	Sololá	701	Sololá	3	Barraneche	9	Septiembre	2023-09-23T00:00:00	2024-11-06T16:00:00	5	Humedad	69
51013	7	Sololá	701	Sololá	3	Barraneche	9	Septiembre	2023-09-23T00:00:00	2024-11-06T16:00:00	6	Velocidad del viento	9.7
51014	7	Sololá	701	Sololá	3	Barraneche	9	Septiembre	2023-09-23T00:00:00	2024-11-06T16:00:00	7	Dirección del viento	9.66
51015	7	Sololá	701	Sololá	3	Barraneche	9	Septiembre	2023-09-23T00:00:00	2024-11-06T16:00:00	1	Precipitación	0
51016	7	Sololá	701	Sololá	3	Barraneche	9	Septiembre	2023-09-23T00:00:00	2024-11-06T16:00:00	8	Radiación solar	275
51017	7	Sololá	701	Sololá	3	Barraneche	9	Septiembre	2023-09-23T00:00:00	2024-11-06T17:00:00	2	Temperatura media	19.1
51018	7	Sololá	701	Sololá	3	Barraneche	9	Septiembre	2023-09-23T00:00:00	2024-11-06T17:00:00	4	Temperatura máxima	19.4
51019	7	Sololá	701	Sololá	3	Barraneche	9	Septiembre	2023-09-23T00:00:00	2024-11-06T17:00:00	3	Temperatura mínima	18.1
51020	7	Sololá	701	Sololá	3	Barraneche	9	Septiembre	2023-09-23T00:00:00	2024-11-06T17:00:00	5	Humedad	53
51021	7	Sololá	701	Sololá	3	Barraneche	9	Septiembre	2023-09-23T00:00:00	2024-11-06T17:00:00	6	Velocidad del viento	6.4
51022	7	Sololá	701	Sololá	3	Barraneche	9	Septiembre	2023-09-23T00:00:00	2024-11-06T17:00:00	7	Dirección del viento	6.44
51023	7	Sololá	701	Sololá	3	Barraneche	9	Septiembre	2023-09-23T00:00:00	2024-11-06T17:00:00	1	Precipitación	0
51024	7	Sololá	701	Sololá	3	Barraneche	9	Septiembre	2023-09-23T00:00:00	2024-11-06T17:00:00	8	Radiación solar	104
51025	7	Sololá	701	Sololá	3	Barraneche	9	Septiembre	2023-09-23T00:00:00	2024-11-06T18:00:00	2	Temperatura media	16.6
51026	7	Sololá	701	Sololá	3	Barraneche	9	Septiembre	2023-09-23T00:00:00	2024-11-06T18:00:00	4	Temperatura máxima	19.1
51027	7	Sololá	701	Sololá	3	Barraneche	9	Septiembre	2023-09-23T00:00:00	2024-11-06T18:00:00	3	Temperatura mínima	16.6
51028	7	Sololá	701	Sololá	3	Barraneche	9	Septiembre	2023-09-23T00:00:00	2024-11-06T18:00:00	5	Humedad	71
51029	7	Sololá	701	Sololá	3	Barraneche	9	Septiembre	2023-09-23T00:00:00	2024-11-06T18:00:00	6	Velocidad del viento	6.4
51030	7	Sololá	701	Sololá	3	Barraneche	9	Septiembre	2023-09-23T00:00:00	2024-11-06T18:00:00	7	Dirección del viento	6.44
51031	7	Sololá	701	Sololá	3	Barraneche	9	Septiembre	2023-09-23T00:00:00	2024-11-06T18:00:00	1	Precipitación	0
51032	7	Sololá	701	Sololá	3	Barraneche	9	Septiembre	2023-09-23T00:00:00	2024-11-06T18:00:00	8	Radiación solar	25
51033	7	Sololá	701	Sololá	3	Barraneche	9	Septiembre	2023-09-23T00:00:00	2024-11-06T19:00:00	2	Temperatura media	15.6
51034	7	Sololá	701	Sololá	3	Barraneche	9	Septiembre	2023-09-23T00:00:00	2024-11-06T19:00:00	4	Temperatura máxima	16.6
51035	7	Sololá	701	Sololá	3	Barraneche	9	Septiembre	2023-09-23T00:00:00	2024-11-06T19:00:00	3	Temperatura mínima	15.3
51036	7	Sololá	701	Sololá	3	Barraneche	9	Septiembre	2023-09-23T00:00:00	2024-11-06T19:00:00	5	Humedad	74
51037	7	Sololá	701	Sololá	3	Barraneche	9	Septiembre	2023-09-23T00:00:00	2024-11-06T19:00:00	6	Velocidad del viento	1.6
51038	7	Sololá	701	Sololá	3	Barraneche	9	Septiembre	2023-09-23T00:00:00	2024-11-06T19:00:00	7	Dirección del viento	1.61
51039	7	Sololá	701	Sololá	3	Barraneche	9	Septiembre	2023-09-23T00:00:00	2024-11-06T19:00:00	1	Precipitación	0
51040	7	Sololá	701	Sololá	3	Barraneche	9	Septiembre	2023-09-23T00:00:00	2024-11-06T19:00:00	8	Radiación solar	0
51041	7	Sololá	701	Sololá	3	Barraneche	9	Septiembre	2023-09-23T00:00:00	2024-11-06T20:00:00	2	Temperatura media	15.1
51042	7	Sololá	701	Sololá	3	Barraneche	9	Septiembre	2023-09-23T00:00:00	2024-11-06T20:00:00	4	Temperatura máxima	15.9
51043	7	Sololá	701	Sololá	3	Barraneche	9	Septiembre	2023-09-23T00:00:00	2024-11-06T20:00:00	3	Temperatura mínima	15.1
51044	7	Sololá	701	Sololá	3	Barraneche	9	Septiembre	2023-09-23T00:00:00	2024-11-06T20:00:00	5	Humedad	75
51045	7	Sololá	701	Sololá	3	Barraneche	9	Septiembre	2023-09-23T00:00:00	2024-11-06T20:00:00	6	Velocidad del viento	3.2
51046	7	Sololá	701	Sololá	3	Barraneche	9	Septiembre	2023-09-23T00:00:00	2024-11-06T20:00:00	7	Dirección del viento	3.22
51047	7	Sololá	701	Sololá	3	Barraneche	9	Septiembre	2023-09-23T00:00:00	2024-11-06T20:00:00	1	Precipitación	0.4
51048	7	Sololá	701	Sololá	3	Barraneche	9	Septiembre	2023-09-23T00:00:00	2024-11-06T20:00:00	8	Radiación solar	0
51049	7	Sololá	701	Sololá	3	Barraneche	9	Septiembre	2023-09-23T00:00:00	2024-11-06T21:00:00	2	Temperatura media	13.4
51050	7	Sololá	701	Sololá	3	Barraneche	9	Septiembre	2023-09-23T00:00:00	2024-11-06T21:00:00	4	Temperatura máxima	15.1
51051	7	Sololá	701	Sololá	3	Barraneche	9	Septiembre	2023-09-23T00:00:00	2024-11-06T21:00:00	3	Temperatura mínima	13.4
51052	7	Sololá	701	Sololá	3	Barraneche	9	Septiembre	2023-09-23T00:00:00	2024-11-06T21:00:00	5	Humedad	74
51053	7	Sololá	701	Sololá	3	Barraneche	9	Septiembre	2023-09-23T00:00:00	2024-11-06T21:00:00	6	Velocidad del viento	3.2
51054	7	Sololá	701	Sololá	3	Barraneche	9	Septiembre	2023-09-23T00:00:00	2024-11-06T21:00:00	7	Dirección del viento	3.22
51055	7	Sololá	701	Sololá	3	Barraneche	9	Septiembre	2023-09-23T00:00:00	2024-11-06T21:00:00	1	Precipitación	0
51056	7	Sololá	701	Sololá	3	Barraneche	9	Septiembre	2023-09-23T00:00:00	2024-11-06T21:00:00	8	Radiación solar	0
51057	7	Sololá	701	Sololá	3	Barraneche	9	Septiembre	2023-09-23T00:00:00	2024-11-06T22:00:00	2	Temperatura media	12.4
51058	7	Sololá	701	Sololá	3	Barraneche	9	Septiembre	2023-09-23T00:00:00	2024-11-06T22:00:00	4	Temperatura máxima	13.7
51059	7	Sololá	701	Sololá	3	Barraneche	9	Septiembre	2023-09-23T00:00:00	2024-11-06T22:00:00	3	Temperatura mínima	12.4
51060	7	Sololá	701	Sololá	3	Barraneche	9	Septiembre	2023-09-23T00:00:00	2024-11-06T22:00:00	5	Humedad	73
51061	7	Sololá	701	Sololá	3	Barraneche	9	Septiembre	2023-09-23T00:00:00	2024-11-06T22:00:00	6	Velocidad del viento	3.2
51062	7	Sololá	701	Sololá	3	Barraneche	9	Septiembre	2023-09-23T00:00:00	2024-11-06T22:00:00	7	Dirección del viento	3.22
51063	7	Sololá	701	Sololá	3	Barraneche	9	Septiembre	2023-09-23T00:00:00	2024-11-06T22:00:00	1	Precipitación	0
51064	7	Sololá	701	Sololá	3	Barraneche	9	Septiembre	2023-09-23T00:00:00	2024-11-06T22:00:00	8	Radiación solar	0
51065	7	Sololá	701	Sololá	3	Barraneche	9	Septiembre	2023-09-23T00:00:00	2024-11-06T23:00:00	2	Temperatura media	12.2
51066	7	Sololá	701	Sololá	3	Barraneche	9	Septiembre	2023-09-23T00:00:00	2024-11-06T23:00:00	4	Temperatura máxima	12.4
51067	7	Sololá	701	Sololá	3	Barraneche	9	Septiembre	2023-09-23T00:00:00	2024-11-06T23:00:00	3	Temperatura mínima	11.9
51068	7	Sololá	701	Sololá	3	Barraneche	9	Septiembre	2023-09-23T00:00:00	2024-11-06T23:00:00	5	Humedad	73
51069	7	Sololá	701	Sololá	3	Barraneche	9	Septiembre	2023-09-23T00:00:00	2024-11-06T23:00:00	6	Velocidad del viento	6.4
51070	7	Sololá	701	Sololá	3	Barraneche	9	Septiembre	2023-09-23T00:00:00	2024-11-06T23:00:00	7	Dirección del viento	6.44
51071	7	Sololá	701	Sololá	3	Barraneche	9	Septiembre	2023-09-23T00:00:00	2024-11-06T23:00:00	1	Precipitación	0
51072	7	Sololá	701	Sololá	3	Barraneche	9	Septiembre	2023-09-23T00:00:00	2024-11-06T23:00:00	8	Radiación solar	0
51073	7	Sololá	701	Sololá	3	Barraneche	9	Septiembre	2023-09-24T00:00:00	2024-11-06T00:00:00	2	Temperatura media	12.1
51074	7	Sololá	701	Sololá	3	Barraneche	9	Septiembre	2023-09-24T00:00:00	2024-11-06T00:00:00	4	Temperatura máxima	12.6
51075	7	Sololá	701	Sololá	3	Barraneche	9	Septiembre	2023-09-24T00:00:00	2024-11-06T00:00:00	3	Temperatura mínima	12.1
51076	7	Sololá	701	Sololá	3	Barraneche	9	Septiembre	2023-09-24T00:00:00	2024-11-06T00:00:00	5	Humedad	72
51077	7	Sololá	701	Sololá	3	Barraneche	9	Septiembre	2023-09-24T00:00:00	2024-11-06T00:00:00	6	Velocidad del viento	6.4
51078	7	Sololá	701	Sololá	3	Barraneche	9	Septiembre	2023-09-24T00:00:00	2024-11-06T00:00:00	7	Dirección del viento	6.44
51079	7	Sololá	701	Sololá	3	Barraneche	9	Septiembre	2023-09-24T00:00:00	2024-11-06T00:00:00	1	Precipitación	0
51080	7	Sololá	701	Sololá	3	Barraneche	9	Septiembre	2023-09-24T00:00:00	2024-11-06T00:00:00	8	Radiación solar	0
51081	7	Sololá	701	Sololá	3	Barraneche	9	Septiembre	2023-09-24T00:00:00	2024-11-06T01:00:00	2	Temperatura media	11.9
51082	7	Sololá	701	Sololá	3	Barraneche	9	Septiembre	2023-09-24T00:00:00	2024-11-06T01:00:00	4	Temperatura máxima	12.3
51083	7	Sololá	701	Sololá	3	Barraneche	9	Septiembre	2023-09-24T00:00:00	2024-11-06T01:00:00	3	Temperatura mínima	11.9
51084	7	Sololá	701	Sololá	3	Barraneche	9	Septiembre	2023-09-24T00:00:00	2024-11-06T01:00:00	5	Humedad	70
51085	7	Sololá	701	Sololá	3	Barraneche	9	Septiembre	2023-09-24T00:00:00	2024-11-06T01:00:00	6	Velocidad del viento	6.4
51086	7	Sololá	701	Sololá	3	Barraneche	9	Septiembre	2023-09-24T00:00:00	2024-11-06T01:00:00	7	Dirección del viento	6.44
51087	7	Sololá	701	Sololá	3	Barraneche	9	Septiembre	2023-09-24T00:00:00	2024-11-06T01:00:00	1	Precipitación	0
51088	7	Sololá	701	Sololá	3	Barraneche	9	Septiembre	2023-09-24T00:00:00	2024-11-06T01:00:00	8	Radiación solar	0
51089	7	Sololá	701	Sololá	3	Barraneche	9	Septiembre	2023-09-24T00:00:00	2024-11-06T02:00:00	2	Temperatura media	11.4
51090	7	Sololá	701	Sololá	3	Barraneche	9	Septiembre	2023-09-24T00:00:00	2024-11-06T02:00:00	4	Temperatura máxima	11.9
51091	7	Sololá	701	Sololá	3	Barraneche	9	Septiembre	2023-09-24T00:00:00	2024-11-06T02:00:00	3	Temperatura mínima	11.1
51092	7	Sololá	701	Sololá	3	Barraneche	9	Septiembre	2023-09-24T00:00:00	2024-11-06T02:00:00	5	Humedad	73
51093	7	Sololá	701	Sololá	3	Barraneche	9	Septiembre	2023-09-24T00:00:00	2024-11-06T02:00:00	6	Velocidad del viento	4.8
51094	7	Sololá	701	Sololá	3	Barraneche	9	Septiembre	2023-09-24T00:00:00	2024-11-06T02:00:00	7	Dirección del viento	4.83
51095	7	Sololá	701	Sololá	3	Barraneche	9	Septiembre	2023-09-24T00:00:00	2024-11-06T02:00:00	1	Precipitación	0
51096	7	Sololá	701	Sololá	3	Barraneche	9	Septiembre	2023-09-24T00:00:00	2024-11-06T02:00:00	8	Radiación solar	0
51097	7	Sololá	701	Sololá	3	Barraneche	9	Septiembre	2023-09-24T00:00:00	2024-11-06T03:00:00	2	Temperatura media	10.8
51098	7	Sololá	701	Sololá	3	Barraneche	9	Septiembre	2023-09-24T00:00:00	2024-11-06T03:00:00	4	Temperatura máxima	11.7
51099	7	Sololá	701	Sololá	3	Barraneche	9	Septiembre	2023-09-24T00:00:00	2024-11-06T03:00:00	3	Temperatura mínima	10.8
51100	7	Sololá	701	Sololá	3	Barraneche	9	Septiembre	2023-09-24T00:00:00	2024-11-06T03:00:00	5	Humedad	71
51101	7	Sololá	701	Sololá	3	Barraneche	9	Septiembre	2023-09-24T00:00:00	2024-11-06T03:00:00	6	Velocidad del viento	4.8
51102	7	Sololá	701	Sololá	3	Barraneche	9	Septiembre	2023-09-24T00:00:00	2024-11-06T03:00:00	7	Dirección del viento	4.83
51103	7	Sololá	701	Sololá	3	Barraneche	9	Septiembre	2023-09-24T00:00:00	2024-11-06T03:00:00	1	Precipitación	0
51104	7	Sololá	701	Sololá	3	Barraneche	9	Septiembre	2023-09-24T00:00:00	2024-11-06T03:00:00	8	Radiación solar	0
51105	7	Sololá	701	Sololá	3	Barraneche	9	Septiembre	2023-09-24T00:00:00	2024-11-06T04:00:00	2	Temperatura media	10.9
51106	7	Sololá	701	Sololá	3	Barraneche	9	Septiembre	2023-09-24T00:00:00	2024-11-06T04:00:00	4	Temperatura máxima	11.3
51107	7	Sololá	701	Sololá	3	Barraneche	9	Septiembre	2023-09-24T00:00:00	2024-11-06T04:00:00	3	Temperatura mínima	10.6
51108	7	Sololá	701	Sololá	3	Barraneche	9	Septiembre	2023-09-24T00:00:00	2024-11-06T04:00:00	5	Humedad	70
51109	7	Sololá	701	Sololá	3	Barraneche	9	Septiembre	2023-09-24T00:00:00	2024-11-06T04:00:00	6	Velocidad del viento	6.4
51110	7	Sololá	701	Sololá	3	Barraneche	9	Septiembre	2023-09-24T00:00:00	2024-11-06T04:00:00	7	Dirección del viento	6.44
51111	7	Sololá	701	Sololá	3	Barraneche	9	Septiembre	2023-09-24T00:00:00	2024-11-06T04:00:00	1	Precipitación	0
51112	7	Sololá	701	Sololá	3	Barraneche	9	Septiembre	2023-09-24T00:00:00	2024-11-06T04:00:00	8	Radiación solar	0
51113	7	Sololá	701	Sololá	3	Barraneche	9	Septiembre	2023-09-24T00:00:00	2024-11-06T05:00:00	2	Temperatura media	10.9
51114	7	Sololá	701	Sololá	3	Barraneche	9	Septiembre	2023-09-24T00:00:00	2024-11-06T05:00:00	4	Temperatura máxima	11.3
51115	7	Sololá	701	Sololá	3	Barraneche	9	Septiembre	2023-09-24T00:00:00	2024-11-06T05:00:00	3	Temperatura mínima	10.8
51116	7	Sololá	701	Sololá	3	Barraneche	9	Septiembre	2023-09-24T00:00:00	2024-11-06T05:00:00	5	Humedad	71
51117	7	Sololá	701	Sololá	3	Barraneche	9	Septiembre	2023-09-24T00:00:00	2024-11-06T05:00:00	6	Velocidad del viento	6.4
51118	7	Sololá	701	Sololá	3	Barraneche	9	Septiembre	2023-09-24T00:00:00	2024-11-06T05:00:00	7	Dirección del viento	6.44
51119	7	Sololá	701	Sololá	3	Barraneche	9	Septiembre	2023-09-24T00:00:00	2024-11-06T05:00:00	1	Precipitación	0
51120	7	Sololá	701	Sololá	3	Barraneche	9	Septiembre	2023-09-24T00:00:00	2024-11-06T05:00:00	8	Radiación solar	0
51121	7	Sololá	701	Sololá	3	Barraneche	9	Septiembre	2023-09-24T00:00:00	2024-11-06T06:00:00	2	Temperatura media	11.2
51122	7	Sololá	701	Sololá	3	Barraneche	9	Septiembre	2023-09-24T00:00:00	2024-11-06T06:00:00	4	Temperatura máxima	11.4
51123	7	Sololá	701	Sololá	3	Barraneche	9	Septiembre	2023-09-24T00:00:00	2024-11-06T06:00:00	3	Temperatura mínima	10.9
51124	7	Sololá	701	Sololá	3	Barraneche	9	Septiembre	2023-09-24T00:00:00	2024-11-06T06:00:00	5	Humedad	70
51125	7	Sololá	701	Sololá	3	Barraneche	9	Septiembre	2023-09-24T00:00:00	2024-11-06T06:00:00	6	Velocidad del viento	4.8
51126	7	Sololá	701	Sololá	3	Barraneche	9	Septiembre	2023-09-24T00:00:00	2024-11-06T06:00:00	7	Dirección del viento	4.83
51127	7	Sololá	701	Sololá	3	Barraneche	9	Septiembre	2023-09-24T00:00:00	2024-11-06T06:00:00	1	Precipitación	0
51128	7	Sololá	701	Sololá	3	Barraneche	9	Septiembre	2023-09-24T00:00:00	2024-11-06T06:00:00	8	Radiación solar	3
51129	7	Sololá	701	Sololá	3	Barraneche	9	Septiembre	2023-09-24T00:00:00	2024-11-06T07:00:00	2	Temperatura media	12.8
51130	7	Sololá	701	Sololá	3	Barraneche	9	Septiembre	2023-09-24T00:00:00	2024-11-06T07:00:00	4	Temperatura máxima	12.8
51131	7	Sololá	701	Sololá	3	Barraneche	9	Septiembre	2023-09-24T00:00:00	2024-11-06T07:00:00	3	Temperatura mínima	11
51132	7	Sololá	701	Sololá	3	Barraneche	9	Septiembre	2023-09-24T00:00:00	2024-11-06T07:00:00	5	Humedad	69
51133	7	Sololá	701	Sololá	3	Barraneche	9	Septiembre	2023-09-24T00:00:00	2024-11-06T07:00:00	6	Velocidad del viento	4.8
51134	7	Sololá	701	Sololá	3	Barraneche	9	Septiembre	2023-09-24T00:00:00	2024-11-06T07:00:00	7	Dirección del viento	4.83
51135	7	Sololá	701	Sololá	3	Barraneche	9	Septiembre	2023-09-24T00:00:00	2024-11-06T07:00:00	1	Precipitación	0
51136	7	Sololá	701	Sololá	3	Barraneche	9	Septiembre	2023-09-24T00:00:00	2024-11-06T07:00:00	8	Radiación solar	68
51137	7	Sololá	701	Sololá	3	Barraneche	9	Septiembre	2023-09-24T00:00:00	2024-11-06T08:00:00	2	Temperatura media	14.9
51138	7	Sololá	701	Sololá	3	Barraneche	9	Septiembre	2023-09-24T00:00:00	2024-11-06T08:00:00	4	Temperatura máxima	15.6
51139	7	Sololá	701	Sololá	3	Barraneche	9	Septiembre	2023-09-24T00:00:00	2024-11-06T08:00:00	3	Temperatura mínima	12.8
51140	7	Sololá	701	Sololá	3	Barraneche	9	Septiembre	2023-09-24T00:00:00	2024-11-06T08:00:00	5	Humedad	68
51141	7	Sololá	701	Sololá	3	Barraneche	9	Septiembre	2023-09-24T00:00:00	2024-11-06T08:00:00	6	Velocidad del viento	4.8
51142	7	Sololá	701	Sololá	3	Barraneche	9	Septiembre	2023-09-24T00:00:00	2024-11-06T08:00:00	7	Dirección del viento	4.83
51143	7	Sololá	701	Sololá	3	Barraneche	9	Septiembre	2023-09-24T00:00:00	2024-11-06T08:00:00	1	Precipitación	0
51144	7	Sololá	701	Sololá	3	Barraneche	9	Septiembre	2023-09-24T00:00:00	2024-11-06T08:00:00	8	Radiación solar	324
51145	7	Sololá	701	Sololá	3	Barraneche	9	Septiembre	2023-09-24T00:00:00	2024-11-06T09:00:00	2	Temperatura media	16
51146	7	Sololá	701	Sololá	3	Barraneche	9	Septiembre	2023-09-24T00:00:00	2024-11-06T09:00:00	4	Temperatura máxima	16
51147	7	Sololá	701	Sololá	3	Barraneche	9	Septiembre	2023-09-24T00:00:00	2024-11-06T09:00:00	3	Temperatura mínima	14.9
51148	7	Sololá	701	Sololá	3	Barraneche	9	Septiembre	2023-09-24T00:00:00	2024-11-06T09:00:00	5	Humedad	64
51149	7	Sololá	701	Sololá	3	Barraneche	9	Septiembre	2023-09-24T00:00:00	2024-11-06T09:00:00	6	Velocidad del viento	4.8
51150	7	Sololá	701	Sololá	3	Barraneche	9	Septiembre	2023-09-24T00:00:00	2024-11-06T09:00:00	7	Dirección del viento	4.83
51151	7	Sololá	701	Sololá	3	Barraneche	9	Septiembre	2023-09-24T00:00:00	2024-11-06T09:00:00	1	Precipitación	0
51152	7	Sololá	701	Sololá	3	Barraneche	9	Septiembre	2023-09-24T00:00:00	2024-11-06T09:00:00	8	Radiación solar	419
51153	7	Sololá	701	Sololá	3	Barraneche	9	Septiembre	2023-09-24T00:00:00	2024-11-06T10:00:00	2	Temperatura media	18.6
51154	7	Sololá	701	Sololá	3	Barraneche	9	Septiembre	2023-09-24T00:00:00	2024-11-06T10:00:00	4	Temperatura máxima	18.6
51155	7	Sololá	701	Sololá	3	Barraneche	9	Septiembre	2023-09-24T00:00:00	2024-11-06T10:00:00	3	Temperatura mínima	16
51156	7	Sololá	701	Sololá	3	Barraneche	9	Septiembre	2023-09-24T00:00:00	2024-11-06T10:00:00	5	Humedad	49
51157	7	Sololá	701	Sololá	3	Barraneche	9	Septiembre	2023-09-24T00:00:00	2024-11-06T10:00:00	6	Velocidad del viento	3.2
51158	7	Sololá	701	Sololá	3	Barraneche	9	Septiembre	2023-09-24T00:00:00	2024-11-06T10:00:00	7	Dirección del viento	3.22
51159	7	Sololá	701	Sololá	3	Barraneche	9	Septiembre	2023-09-24T00:00:00	2024-11-06T10:00:00	1	Precipitación	0
51160	7	Sololá	701	Sololá	3	Barraneche	9	Septiembre	2023-09-24T00:00:00	2024-11-06T10:00:00	8	Radiación solar	490
51161	7	Sololá	701	Sololá	3	Barraneche	9	Septiembre	2023-09-24T00:00:00	2024-11-06T11:00:00	2	Temperatura media	19.3
51162	7	Sololá	701	Sololá	3	Barraneche	9	Septiembre	2023-09-24T00:00:00	2024-11-06T11:00:00	4	Temperatura máxima	19.6
51163	7	Sololá	701	Sololá	3	Barraneche	9	Septiembre	2023-09-24T00:00:00	2024-11-06T11:00:00	3	Temperatura mínima	18.5
51164	7	Sololá	701	Sololá	3	Barraneche	9	Septiembre	2023-09-24T00:00:00	2024-11-06T11:00:00	5	Humedad	53
51165	7	Sololá	701	Sololá	3	Barraneche	9	Septiembre	2023-09-24T00:00:00	2024-11-06T11:00:00	6	Velocidad del viento	6.4
51166	7	Sololá	701	Sololá	3	Barraneche	9	Septiembre	2023-09-24T00:00:00	2024-11-06T11:00:00	7	Dirección del viento	6.44
51167	7	Sololá	701	Sololá	3	Barraneche	9	Septiembre	2023-09-24T00:00:00	2024-11-06T11:00:00	1	Precipitación	0
51168	7	Sololá	701	Sololá	3	Barraneche	9	Septiembre	2023-09-24T00:00:00	2024-11-06T11:00:00	8	Radiación solar	885
51169	7	Sololá	701	Sololá	3	Barraneche	9	Septiembre	2023-09-24T00:00:00	2024-11-06T12:00:00	2	Temperatura media	17.3
51170	7	Sololá	701	Sololá	3	Barraneche	9	Septiembre	2023-09-24T00:00:00	2024-11-06T12:00:00	4	Temperatura máxima	19.3
51171	7	Sololá	701	Sololá	3	Barraneche	9	Septiembre	2023-09-24T00:00:00	2024-11-06T12:00:00	3	Temperatura mínima	17.3
51172	7	Sololá	701	Sololá	3	Barraneche	9	Septiembre	2023-09-24T00:00:00	2024-11-06T12:00:00	5	Humedad	67
51173	7	Sololá	701	Sololá	3	Barraneche	9	Septiembre	2023-09-24T00:00:00	2024-11-06T12:00:00	6	Velocidad del viento	12.9
51174	7	Sololá	701	Sololá	3	Barraneche	9	Septiembre	2023-09-24T00:00:00	2024-11-06T12:00:00	7	Dirección del viento	12.87
51175	7	Sololá	701	Sololá	3	Barraneche	9	Septiembre	2023-09-24T00:00:00	2024-11-06T12:00:00	1	Precipitación	0
51176	7	Sololá	701	Sololá	3	Barraneche	9	Septiembre	2023-09-24T00:00:00	2024-11-06T12:00:00	8	Radiación solar	517
51177	7	Sololá	701	Sololá	3	Barraneche	9	Septiembre	2023-09-24T00:00:00	2024-11-06T13:00:00	2	Temperatura media	16.6
51178	7	Sololá	701	Sololá	3	Barraneche	9	Septiembre	2023-09-24T00:00:00	2024-11-06T13:00:00	4	Temperatura máxima	17.3
51179	7	Sololá	701	Sololá	3	Barraneche	9	Septiembre	2023-09-24T00:00:00	2024-11-06T13:00:00	3	Temperatura mínima	16.4
51180	7	Sololá	701	Sololá	3	Barraneche	9	Septiembre	2023-09-24T00:00:00	2024-11-06T13:00:00	5	Humedad	72
51181	7	Sololá	701	Sololá	3	Barraneche	9	Septiembre	2023-09-24T00:00:00	2024-11-06T13:00:00	6	Velocidad del viento	6.4
51182	7	Sololá	701	Sololá	3	Barraneche	9	Septiembre	2023-09-24T00:00:00	2024-11-06T13:00:00	7	Dirección del viento	6.44
51183	7	Sololá	701	Sololá	3	Barraneche	9	Septiembre	2023-09-24T00:00:00	2024-11-06T13:00:00	1	Precipitación	0.6
51184	7	Sololá	701	Sololá	3	Barraneche	9	Septiembre	2023-09-24T00:00:00	2024-11-06T13:00:00	8	Radiación solar	178
51185	7	Sololá	701	Sololá	3	Barraneche	9	Septiembre	2023-09-24T00:00:00	2024-11-06T14:00:00	2	Temperatura media	15.9
51186	7	Sololá	701	Sololá	3	Barraneche	9	Septiembre	2023-09-24T00:00:00	2024-11-06T14:00:00	4	Temperatura máxima	16.6
51187	7	Sololá	701	Sololá	3	Barraneche	9	Septiembre	2023-09-24T00:00:00	2024-11-06T14:00:00	3	Temperatura mínima	15.8
51188	7	Sololá	701	Sololá	3	Barraneche	9	Septiembre	2023-09-24T00:00:00	2024-11-06T14:00:00	5	Humedad	70
51189	7	Sololá	701	Sololá	3	Barraneche	9	Septiembre	2023-09-24T00:00:00	2024-11-06T14:00:00	6	Velocidad del viento	6.4
51190	7	Sololá	701	Sololá	3	Barraneche	9	Septiembre	2023-09-24T00:00:00	2024-11-06T14:00:00	7	Dirección del viento	6.44
51191	7	Sololá	701	Sololá	3	Barraneche	9	Septiembre	2023-09-24T00:00:00	2024-11-06T14:00:00	1	Precipitación	0
51192	7	Sololá	701	Sololá	3	Barraneche	9	Septiembre	2023-09-24T00:00:00	2024-11-06T14:00:00	8	Radiación solar	138
51193	7	Sololá	701	Sololá	3	Barraneche	9	Septiembre	2023-09-24T00:00:00	2024-11-06T15:00:00	2	Temperatura media	15.9
51194	7	Sololá	701	Sololá	3	Barraneche	9	Septiembre	2023-09-24T00:00:00	2024-11-06T15:00:00	4	Temperatura máxima	15.9
51195	7	Sololá	701	Sololá	3	Barraneche	9	Septiembre	2023-09-24T00:00:00	2024-11-06T15:00:00	3	Temperatura mínima	15.4
51196	7	Sololá	701	Sololá	3	Barraneche	9	Septiembre	2023-09-24T00:00:00	2024-11-06T15:00:00	5	Humedad	69
51197	7	Sololá	701	Sololá	3	Barraneche	9	Septiembre	2023-09-24T00:00:00	2024-11-06T15:00:00	6	Velocidad del viento	3.2
51198	7	Sololá	701	Sololá	3	Barraneche	9	Septiembre	2023-09-24T00:00:00	2024-11-06T15:00:00	7	Dirección del viento	3.22
51199	7	Sololá	701	Sololá	3	Barraneche	9	Septiembre	2023-09-24T00:00:00	2024-11-06T15:00:00	1	Precipitación	0
51200	7	Sololá	701	Sololá	3	Barraneche	9	Septiembre	2023-09-24T00:00:00	2024-11-06T15:00:00	8	Radiación solar	199
51201	7	Sololá	701	Sololá	3	Barraneche	9	Septiembre	2023-09-24T00:00:00	2024-11-06T16:00:00	2	Temperatura media	16.3
51202	7	Sololá	701	Sololá	3	Barraneche	9	Septiembre	2023-09-24T00:00:00	2024-11-06T16:00:00	4	Temperatura máxima	16.4
51203	7	Sololá	701	Sololá	3	Barraneche	9	Septiembre	2023-09-24T00:00:00	2024-11-06T16:00:00	3	Temperatura mínima	15.9
51204	7	Sololá	701	Sololá	3	Barraneche	9	Septiembre	2023-09-24T00:00:00	2024-11-06T16:00:00	5	Humedad	66
51205	7	Sololá	701	Sololá	3	Barraneche	9	Septiembre	2023-09-24T00:00:00	2024-11-06T16:00:00	6	Velocidad del viento	3.2
51206	7	Sololá	701	Sololá	3	Barraneche	9	Septiembre	2023-09-24T00:00:00	2024-11-06T16:00:00	7	Dirección del viento	3.22
51207	7	Sololá	701	Sololá	3	Barraneche	9	Septiembre	2023-09-24T00:00:00	2024-11-06T16:00:00	1	Precipitación	0
51208	7	Sololá	701	Sololá	3	Barraneche	9	Septiembre	2023-09-24T00:00:00	2024-11-06T16:00:00	8	Radiación solar	208
51209	7	Sololá	701	Sololá	3	Barraneche	9	Septiembre	2023-09-24T00:00:00	2024-11-06T17:00:00	2	Temperatura media	15.3
51210	7	Sololá	701	Sololá	3	Barraneche	9	Septiembre	2023-09-24T00:00:00	2024-11-06T17:00:00	4	Temperatura máxima	16.6
51211	7	Sololá	701	Sololá	3	Barraneche	9	Septiembre	2023-09-24T00:00:00	2024-11-06T17:00:00	3	Temperatura mínima	15.2
51212	7	Sololá	701	Sololá	3	Barraneche	9	Septiembre	2023-09-24T00:00:00	2024-11-06T17:00:00	5	Humedad	73
51213	7	Sololá	701	Sololá	3	Barraneche	9	Septiembre	2023-09-24T00:00:00	2024-11-06T17:00:00	6	Velocidad del viento	3.2
51214	7	Sololá	701	Sololá	3	Barraneche	9	Septiembre	2023-09-24T00:00:00	2024-11-06T17:00:00	7	Dirección del viento	3.22
51215	7	Sololá	701	Sololá	3	Barraneche	9	Septiembre	2023-09-24T00:00:00	2024-11-06T17:00:00	1	Precipitación	0
51216	7	Sololá	701	Sololá	3	Barraneche	9	Septiembre	2023-09-24T00:00:00	2024-11-06T17:00:00	8	Radiación solar	63
51217	7	Sololá	701	Sololá	3	Barraneche	9	Septiembre	2023-09-24T00:00:00	2024-11-06T18:00:00	2	Temperatura media	14.8
51218	7	Sololá	701	Sololá	3	Barraneche	9	Septiembre	2023-09-24T00:00:00	2024-11-06T18:00:00	4	Temperatura máxima	15.3
51219	7	Sololá	701	Sololá	3	Barraneche	9	Septiembre	2023-09-24T00:00:00	2024-11-06T18:00:00	3	Temperatura mínima	14.8
51220	7	Sololá	701	Sololá	3	Barraneche	9	Septiembre	2023-09-24T00:00:00	2024-11-06T18:00:00	5	Humedad	75
51221	7	Sololá	701	Sololá	3	Barraneche	9	Septiembre	2023-09-24T00:00:00	2024-11-06T18:00:00	6	Velocidad del viento	3.2
51222	7	Sololá	701	Sololá	3	Barraneche	9	Septiembre	2023-09-24T00:00:00	2024-11-06T18:00:00	7	Dirección del viento	3.22
51223	7	Sololá	701	Sololá	3	Barraneche	9	Septiembre	2023-09-24T00:00:00	2024-11-06T18:00:00	1	Precipitación	0
51224	7	Sololá	701	Sololá	3	Barraneche	9	Septiembre	2023-09-24T00:00:00	2024-11-06T18:00:00	8	Radiación solar	14
51225	7	Sololá	701	Sololá	3	Barraneche	9	Septiembre	2023-09-24T00:00:00	2024-11-06T19:00:00	2	Temperatura media	14.5
51226	7	Sololá	701	Sololá	3	Barraneche	9	Septiembre	2023-09-24T00:00:00	2024-11-06T19:00:00	4	Temperatura máxima	14.8
51227	7	Sololá	701	Sololá	3	Barraneche	9	Septiembre	2023-09-24T00:00:00	2024-11-06T19:00:00	3	Temperatura mínima	14.4
51228	7	Sololá	701	Sololá	3	Barraneche	9	Septiembre	2023-09-24T00:00:00	2024-11-06T19:00:00	5	Humedad	79
51229	7	Sololá	701	Sololá	3	Barraneche	9	Septiembre	2023-09-24T00:00:00	2024-11-06T19:00:00	6	Velocidad del viento	1.6
51230	7	Sololá	701	Sololá	3	Barraneche	9	Septiembre	2023-09-24T00:00:00	2024-11-06T19:00:00	7	Dirección del viento	1.61
51231	7	Sololá	701	Sololá	3	Barraneche	9	Septiembre	2023-09-24T00:00:00	2024-11-06T19:00:00	1	Precipitación	0
51232	7	Sololá	701	Sololá	3	Barraneche	9	Septiembre	2023-09-24T00:00:00	2024-11-06T19:00:00	8	Radiación solar	0
51233	7	Sololá	701	Sololá	3	Barraneche	9	Septiembre	2023-09-24T00:00:00	2024-11-06T20:00:00	2	Temperatura media	13.9
51234	7	Sololá	701	Sololá	3	Barraneche	9	Septiembre	2023-09-24T00:00:00	2024-11-06T20:00:00	4	Temperatura máxima	14.5
51235	7	Sololá	701	Sololá	3	Barraneche	9	Septiembre	2023-09-24T00:00:00	2024-11-06T20:00:00	3	Temperatura mínima	13.9
51236	7	Sololá	701	Sololá	3	Barraneche	9	Septiembre	2023-09-24T00:00:00	2024-11-06T20:00:00	5	Humedad	83
51237	7	Sololá	701	Sololá	3	Barraneche	9	Septiembre	2023-09-24T00:00:00	2024-11-06T20:00:00	6	Velocidad del viento	3.2
51238	7	Sololá	701	Sololá	3	Barraneche	9	Septiembre	2023-09-24T00:00:00	2024-11-06T20:00:00	7	Dirección del viento	3.22
51239	7	Sololá	701	Sololá	3	Barraneche	9	Septiembre	2023-09-24T00:00:00	2024-11-06T20:00:00	1	Precipitación	9.8
51240	7	Sololá	701	Sololá	3	Barraneche	9	Septiembre	2023-09-24T00:00:00	2024-11-06T20:00:00	8	Radiación solar	0
51241	7	Sololá	701	Sololá	3	Barraneche	9	Septiembre	2023-09-24T00:00:00	2024-11-06T21:00:00	2	Temperatura media	13.8
51242	7	Sololá	701	Sololá	3	Barraneche	9	Septiembre	2023-09-24T00:00:00	2024-11-06T21:00:00	4	Temperatura máxima	14.1
51243	7	Sololá	701	Sololá	3	Barraneche	9	Septiembre	2023-09-24T00:00:00	2024-11-06T21:00:00	3	Temperatura mínima	13.8
51244	7	Sololá	701	Sololá	3	Barraneche	9	Septiembre	2023-09-24T00:00:00	2024-11-06T21:00:00	5	Humedad	85
51245	7	Sololá	701	Sololá	3	Barraneche	9	Septiembre	2023-09-24T00:00:00	2024-11-06T21:00:00	6	Velocidad del viento	1.6
51246	7	Sololá	701	Sololá	3	Barraneche	9	Septiembre	2023-09-24T00:00:00	2024-11-06T21:00:00	7	Dirección del viento	1.61
51247	7	Sololá	701	Sololá	3	Barraneche	9	Septiembre	2023-09-24T00:00:00	2024-11-06T21:00:00	1	Precipitación	4.4
51248	7	Sololá	701	Sololá	3	Barraneche	9	Septiembre	2023-09-24T00:00:00	2024-11-06T21:00:00	8	Radiación solar	0
51249	7	Sololá	701	Sololá	3	Barraneche	9	Septiembre	2023-09-24T00:00:00	2024-11-06T22:00:00	2	Temperatura media	13.8
51250	7	Sololá	701	Sololá	3	Barraneche	9	Septiembre	2023-09-24T00:00:00	2024-11-06T22:00:00	4	Temperatura máxima	13.9
51251	7	Sololá	701	Sololá	3	Barraneche	9	Septiembre	2023-09-24T00:00:00	2024-11-06T22:00:00	3	Temperatura mínima	13.7
51252	7	Sololá	701	Sololá	3	Barraneche	9	Septiembre	2023-09-24T00:00:00	2024-11-06T22:00:00	5	Humedad	85
51253	7	Sololá	701	Sololá	3	Barraneche	9	Septiembre	2023-09-24T00:00:00	2024-11-06T22:00:00	6	Velocidad del viento	1.6
51254	7	Sololá	701	Sololá	3	Barraneche	9	Septiembre	2023-09-24T00:00:00	2024-11-06T22:00:00	7	Dirección del viento	1.61
51255	7	Sololá	701	Sololá	3	Barraneche	9	Septiembre	2023-09-24T00:00:00	2024-11-06T22:00:00	1	Precipitación	0.6
51256	7	Sololá	701	Sololá	3	Barraneche	9	Septiembre	2023-09-24T00:00:00	2024-11-06T22:00:00	8	Radiación solar	0
51257	7	Sololá	701	Sololá	3	Barraneche	9	Septiembre	2023-09-24T00:00:00	2024-11-06T23:00:00	2	Temperatura media	13.6
51258	7	Sololá	701	Sololá	3	Barraneche	9	Septiembre	2023-09-24T00:00:00	2024-11-06T23:00:00	4	Temperatura máxima	13.8
51259	7	Sololá	701	Sololá	3	Barraneche	9	Septiembre	2023-09-24T00:00:00	2024-11-06T23:00:00	3	Temperatura mínima	13.6
51260	7	Sololá	701	Sololá	3	Barraneche	9	Septiembre	2023-09-24T00:00:00	2024-11-06T23:00:00	5	Humedad	85
51261	7	Sololá	701	Sololá	3	Barraneche	9	Septiembre	2023-09-24T00:00:00	2024-11-06T23:00:00	6	Velocidad del viento	1.6
51262	7	Sololá	701	Sololá	3	Barraneche	9	Septiembre	2023-09-24T00:00:00	2024-11-06T23:00:00	7	Dirección del viento	1.61
51263	7	Sololá	701	Sololá	3	Barraneche	9	Septiembre	2023-09-24T00:00:00	2024-11-06T23:00:00	1	Precipitación	1
51264	7	Sololá	701	Sololá	3	Barraneche	9	Septiembre	2023-09-24T00:00:00	2024-11-06T23:00:00	8	Radiación solar	0
51265	7	Sololá	701	Sololá	3	Barraneche	9	Septiembre	2023-09-25T00:00:00	2024-11-06T00:00:00	2	Temperatura media	13.8
51266	7	Sololá	701	Sololá	3	Barraneche	9	Septiembre	2023-09-25T00:00:00	2024-11-06T00:00:00	4	Temperatura máxima	13.8
51267	7	Sololá	701	Sololá	3	Barraneche	9	Septiembre	2023-09-25T00:00:00	2024-11-06T00:00:00	3	Temperatura mínima	13.6
51268	7	Sololá	701	Sololá	3	Barraneche	9	Septiembre	2023-09-25T00:00:00	2024-11-06T00:00:00	5	Humedad	85
51269	7	Sololá	701	Sololá	3	Barraneche	9	Septiembre	2023-09-25T00:00:00	2024-11-06T00:00:00	6	Velocidad del viento	1.6
51270	7	Sololá	701	Sololá	3	Barraneche	9	Septiembre	2023-09-25T00:00:00	2024-11-06T00:00:00	7	Dirección del viento	1.61
51271	7	Sololá	701	Sololá	3	Barraneche	9	Septiembre	2023-09-25T00:00:00	2024-11-06T00:00:00	1	Precipitación	0
51272	7	Sololá	701	Sololá	3	Barraneche	9	Septiembre	2023-09-25T00:00:00	2024-11-06T00:00:00	8	Radiación solar	0
51273	7	Sololá	701	Sololá	3	Barraneche	9	Septiembre	2023-09-25T00:00:00	2024-11-06T01:00:00	2	Temperatura media	13.3
51274	7	Sololá	701	Sololá	3	Barraneche	9	Septiembre	2023-09-25T00:00:00	2024-11-06T01:00:00	4	Temperatura máxima	13.8
51275	7	Sololá	701	Sololá	3	Barraneche	9	Septiembre	2023-09-25T00:00:00	2024-11-06T01:00:00	3	Temperatura mínima	13.3
51276	7	Sololá	701	Sololá	3	Barraneche	9	Septiembre	2023-09-25T00:00:00	2024-11-06T01:00:00	5	Humedad	85
51277	7	Sololá	701	Sololá	3	Barraneche	9	Septiembre	2023-09-25T00:00:00	2024-11-06T01:00:00	6	Velocidad del viento	1.6
51278	7	Sololá	701	Sololá	3	Barraneche	9	Septiembre	2023-09-25T00:00:00	2024-11-06T01:00:00	7	Dirección del viento	1.61
51279	7	Sololá	701	Sololá	3	Barraneche	9	Septiembre	2023-09-25T00:00:00	2024-11-06T01:00:00	1	Precipitación	0
51280	7	Sololá	701	Sololá	3	Barraneche	9	Septiembre	2023-09-25T00:00:00	2024-11-06T01:00:00	8	Radiación solar	0
51281	7	Sololá	701	Sololá	3	Barraneche	9	Septiembre	2023-09-25T00:00:00	2024-11-06T02:00:00	2	Temperatura media	13.2
51282	7	Sololá	701	Sololá	3	Barraneche	9	Septiembre	2023-09-25T00:00:00	2024-11-06T02:00:00	4	Temperatura máxima	13.3
51283	7	Sololá	701	Sololá	3	Barraneche	9	Septiembre	2023-09-25T00:00:00	2024-11-06T02:00:00	3	Temperatura mínima	13.2
51284	7	Sololá	701	Sololá	3	Barraneche	9	Septiembre	2023-09-25T00:00:00	2024-11-06T02:00:00	5	Humedad	86
51285	7	Sololá	701	Sololá	3	Barraneche	9	Septiembre	2023-09-25T00:00:00	2024-11-06T02:00:00	6	Velocidad del viento	1.6
51286	7	Sololá	701	Sololá	3	Barraneche	9	Septiembre	2023-09-25T00:00:00	2024-11-06T02:00:00	7	Dirección del viento	1.61
51287	7	Sololá	701	Sololá	3	Barraneche	9	Septiembre	2023-09-25T00:00:00	2024-11-06T02:00:00	1	Precipitación	0.2
51288	7	Sololá	701	Sololá	3	Barraneche	9	Septiembre	2023-09-25T00:00:00	2024-11-06T02:00:00	8	Radiación solar	0
51289	7	Sololá	701	Sololá	3	Barraneche	9	Septiembre	2023-09-25T00:00:00	2024-11-06T03:00:00	2	Temperatura media	13.1
51290	7	Sololá	701	Sololá	3	Barraneche	9	Septiembre	2023-09-25T00:00:00	2024-11-06T03:00:00	4	Temperatura máxima	13.2
51291	7	Sololá	701	Sololá	3	Barraneche	9	Septiembre	2023-09-25T00:00:00	2024-11-06T03:00:00	3	Temperatura mínima	13
51292	7	Sololá	701	Sololá	3	Barraneche	9	Septiembre	2023-09-25T00:00:00	2024-11-06T03:00:00	5	Humedad	85
51293	7	Sololá	701	Sololá	3	Barraneche	9	Septiembre	2023-09-25T00:00:00	2024-11-06T03:00:00	6	Velocidad del viento	1.6
51294	7	Sololá	701	Sololá	3	Barraneche	9	Septiembre	2023-09-25T00:00:00	2024-11-06T03:00:00	7	Dirección del viento	1.61
51295	7	Sololá	701	Sololá	3	Barraneche	9	Septiembre	2023-09-25T00:00:00	2024-11-06T03:00:00	1	Precipitación	0
51296	7	Sololá	701	Sololá	3	Barraneche	9	Septiembre	2023-09-25T00:00:00	2024-11-06T03:00:00	8	Radiación solar	0
51297	7	Sololá	701	Sololá	3	Barraneche	9	Septiembre	2023-09-25T00:00:00	2024-11-06T04:00:00	2	Temperatura media	12.5
51298	7	Sololá	701	Sololá	3	Barraneche	9	Septiembre	2023-09-25T00:00:00	2024-11-06T04:00:00	4	Temperatura máxima	13.1
51299	7	Sololá	701	Sololá	3	Barraneche	9	Septiembre	2023-09-25T00:00:00	2024-11-06T04:00:00	3	Temperatura mínima	12.4
51300	7	Sololá	701	Sololá	3	Barraneche	9	Septiembre	2023-09-25T00:00:00	2024-11-06T04:00:00	5	Humedad	82
51301	7	Sololá	701	Sololá	3	Barraneche	9	Septiembre	2023-09-25T00:00:00	2024-11-06T04:00:00	6	Velocidad del viento	3.2
51302	7	Sololá	701	Sololá	3	Barraneche	9	Septiembre	2023-09-25T00:00:00	2024-11-06T04:00:00	7	Dirección del viento	3.22
51303	7	Sololá	701	Sololá	3	Barraneche	9	Septiembre	2023-09-25T00:00:00	2024-11-06T04:00:00	1	Precipitación	0
51304	7	Sololá	701	Sololá	3	Barraneche	9	Septiembre	2023-09-25T00:00:00	2024-11-06T04:00:00	8	Radiación solar	0
51305	7	Sololá	701	Sololá	3	Barraneche	9	Septiembre	2023-09-25T00:00:00	2024-11-06T05:00:00	2	Temperatura media	12.2
51306	7	Sololá	701	Sololá	3	Barraneche	9	Septiembre	2023-09-25T00:00:00	2024-11-06T05:00:00	4	Temperatura máxima	12.6
51307	7	Sololá	701	Sololá	3	Barraneche	9	Septiembre	2023-09-25T00:00:00	2024-11-06T05:00:00	3	Temperatura mínima	12.1
51308	7	Sololá	701	Sololá	3	Barraneche	9	Septiembre	2023-09-25T00:00:00	2024-11-06T05:00:00	5	Humedad	81
51309	7	Sololá	701	Sololá	3	Barraneche	9	Septiembre	2023-09-25T00:00:00	2024-11-06T05:00:00	6	Velocidad del viento	4.8
51310	7	Sololá	701	Sololá	3	Barraneche	9	Septiembre	2023-09-25T00:00:00	2024-11-06T05:00:00	7	Dirección del viento	4.83
51311	7	Sololá	701	Sololá	3	Barraneche	9	Septiembre	2023-09-25T00:00:00	2024-11-06T05:00:00	1	Precipitación	0.2
51312	7	Sololá	701	Sololá	3	Barraneche	9	Septiembre	2023-09-25T00:00:00	2024-11-06T05:00:00	8	Radiación solar	0
51313	7	Sololá	701	Sololá	3	Barraneche	9	Septiembre	2023-09-25T00:00:00	2024-11-06T06:00:00	2	Temperatura media	11.9
51314	7	Sololá	701	Sololá	3	Barraneche	9	Septiembre	2023-09-25T00:00:00	2024-11-06T06:00:00	4	Temperatura máxima	12.3
51315	7	Sololá	701	Sololá	3	Barraneche	9	Septiembre	2023-09-25T00:00:00	2024-11-06T06:00:00	3	Temperatura mínima	11.9
51316	7	Sololá	701	Sololá	3	Barraneche	9	Septiembre	2023-09-25T00:00:00	2024-11-06T06:00:00	5	Humedad	83
51317	7	Sololá	701	Sololá	3	Barraneche	9	Septiembre	2023-09-25T00:00:00	2024-11-06T06:00:00	6	Velocidad del viento	3.2
51318	7	Sololá	701	Sololá	3	Barraneche	9	Septiembre	2023-09-25T00:00:00	2024-11-06T06:00:00	7	Dirección del viento	3.22
51319	7	Sololá	701	Sololá	3	Barraneche	9	Septiembre	2023-09-25T00:00:00	2024-11-06T06:00:00	1	Precipitación	0
51320	7	Sololá	701	Sololá	3	Barraneche	9	Septiembre	2023-09-25T00:00:00	2024-11-06T06:00:00	8	Radiación solar	0
51321	7	Sololá	701	Sololá	3	Barraneche	9	Septiembre	2023-09-25T00:00:00	2024-11-06T07:00:00	2	Temperatura media	12.4
51322	7	Sololá	701	Sololá	3	Barraneche	9	Septiembre	2023-09-25T00:00:00	2024-11-06T07:00:00	4	Temperatura máxima	12.4
51323	7	Sololá	701	Sololá	3	Barraneche	9	Septiembre	2023-09-25T00:00:00	2024-11-06T07:00:00	3	Temperatura mínima	11.9
51324	7	Sololá	701	Sololá	3	Barraneche	9	Septiembre	2023-09-25T00:00:00	2024-11-06T07:00:00	5	Humedad	83
51325	7	Sololá	701	Sololá	3	Barraneche	9	Septiembre	2023-09-25T00:00:00	2024-11-06T07:00:00	6	Velocidad del viento	3.2
51326	7	Sololá	701	Sololá	3	Barraneche	9	Septiembre	2023-09-25T00:00:00	2024-11-06T07:00:00	7	Dirección del viento	3.22
51327	7	Sololá	701	Sololá	3	Barraneche	9	Septiembre	2023-09-25T00:00:00	2024-11-06T07:00:00	1	Precipitación	0
51328	7	Sololá	701	Sololá	3	Barraneche	9	Septiembre	2023-09-25T00:00:00	2024-11-06T07:00:00	8	Radiación solar	37
51329	7	Sololá	701	Sololá	3	Barraneche	9	Septiembre	2023-09-25T00:00:00	2024-11-06T08:00:00	2	Temperatura media	13.9
51330	7	Sololá	701	Sololá	3	Barraneche	9	Septiembre	2023-09-25T00:00:00	2024-11-06T08:00:00	4	Temperatura máxima	13.9
51331	7	Sololá	701	Sololá	3	Barraneche	9	Septiembre	2023-09-25T00:00:00	2024-11-06T08:00:00	3	Temperatura mínima	12.4
51332	7	Sololá	701	Sololá	3	Barraneche	9	Septiembre	2023-09-25T00:00:00	2024-11-06T08:00:00	5	Humedad	78
51333	7	Sololá	701	Sololá	3	Barraneche	9	Septiembre	2023-09-25T00:00:00	2024-11-06T08:00:00	6	Velocidad del viento	3.2
51334	7	Sololá	701	Sololá	3	Barraneche	9	Septiembre	2023-09-25T00:00:00	2024-11-06T08:00:00	7	Dirección del viento	3.22
51335	7	Sololá	701	Sololá	3	Barraneche	9	Septiembre	2023-09-25T00:00:00	2024-11-06T08:00:00	1	Precipitación	0
51336	7	Sololá	701	Sololá	3	Barraneche	9	Septiembre	2023-09-25T00:00:00	2024-11-06T08:00:00	8	Radiación solar	175
51337	7	Sololá	701	Sololá	3	Barraneche	9	Septiembre	2023-09-25T00:00:00	2024-11-06T09:00:00	2	Temperatura media	16.2
51338	7	Sololá	701	Sololá	3	Barraneche	9	Septiembre	2023-09-25T00:00:00	2024-11-06T09:00:00	4	Temperatura máxima	16.3
51339	7	Sololá	701	Sololá	3	Barraneche	9	Septiembre	2023-09-25T00:00:00	2024-11-06T09:00:00	3	Temperatura mínima	13.9
51340	7	Sololá	701	Sololá	3	Barraneche	9	Septiembre	2023-09-25T00:00:00	2024-11-06T09:00:00	5	Humedad	70
51341	7	Sololá	701	Sololá	3	Barraneche	9	Septiembre	2023-09-25T00:00:00	2024-11-06T09:00:00	6	Velocidad del viento	1.6
51342	7	Sololá	701	Sololá	3	Barraneche	9	Septiembre	2023-09-25T00:00:00	2024-11-06T09:00:00	7	Dirección del viento	1.61
51343	7	Sololá	701	Sololá	3	Barraneche	9	Septiembre	2023-09-25T00:00:00	2024-11-06T09:00:00	1	Precipitación	0
51344	7	Sololá	701	Sololá	3	Barraneche	9	Septiembre	2023-09-25T00:00:00	2024-11-06T09:00:00	8	Radiación solar	373
51345	7	Sololá	701	Sololá	3	Barraneche	9	Septiembre	2023-09-25T00:00:00	2024-11-06T10:00:00	2	Temperatura media	18.7
51346	7	Sololá	701	Sololá	3	Barraneche	9	Septiembre	2023-09-25T00:00:00	2024-11-06T10:00:00	4	Temperatura máxima	18.7
51347	7	Sololá	701	Sololá	3	Barraneche	9	Septiembre	2023-09-25T00:00:00	2024-11-06T10:00:00	3	Temperatura mínima	16.2
51348	7	Sololá	701	Sololá	3	Barraneche	9	Septiembre	2023-09-25T00:00:00	2024-11-06T10:00:00	5	Humedad	61
51349	7	Sololá	701	Sololá	3	Barraneche	9	Septiembre	2023-09-25T00:00:00	2024-11-06T10:00:00	6	Velocidad del viento	3.2
51350	7	Sololá	701	Sololá	3	Barraneche	9	Septiembre	2023-09-25T00:00:00	2024-11-06T10:00:00	7	Dirección del viento	3.22
51351	7	Sololá	701	Sololá	3	Barraneche	9	Septiembre	2023-09-25T00:00:00	2024-11-06T10:00:00	1	Precipitación	0
51352	7	Sololá	701	Sololá	3	Barraneche	9	Septiembre	2023-09-25T00:00:00	2024-11-06T10:00:00	8	Radiación solar	705
51353	7	Sololá	701	Sololá	3	Barraneche	9	Septiembre	2023-09-25T00:00:00	2024-11-06T11:00:00	2	Temperatura media	20
51354	7	Sololá	701	Sololá	3	Barraneche	9	Septiembre	2023-09-25T00:00:00	2024-11-06T11:00:00	4	Temperatura máxima	20.1
51355	7	Sololá	701	Sololá	3	Barraneche	9	Septiembre	2023-09-25T00:00:00	2024-11-06T11:00:00	3	Temperatura mínima	18.7
51356	7	Sololá	701	Sololá	3	Barraneche	9	Septiembre	2023-09-25T00:00:00	2024-11-06T11:00:00	5	Humedad	51
51357	7	Sololá	701	Sololá	3	Barraneche	9	Septiembre	2023-09-25T00:00:00	2024-11-06T11:00:00	6	Velocidad del viento	6.4
51358	7	Sololá	701	Sololá	3	Barraneche	9	Septiembre	2023-09-25T00:00:00	2024-11-06T11:00:00	7	Dirección del viento	6.44
51359	7	Sololá	701	Sololá	3	Barraneche	9	Septiembre	2023-09-25T00:00:00	2024-11-06T11:00:00	1	Precipitación	0
51360	7	Sololá	701	Sololá	3	Barraneche	9	Septiembre	2023-09-25T00:00:00	2024-11-06T11:00:00	8	Radiación solar	922
51361	7	Sololá	701	Sololá	3	Barraneche	9	Septiembre	2023-09-25T00:00:00	2024-11-06T12:00:00	2	Temperatura media	18.4
51362	7	Sololá	701	Sololá	3	Barraneche	9	Septiembre	2023-09-25T00:00:00	2024-11-06T12:00:00	4	Temperatura máxima	20.1
51363	7	Sololá	701	Sololá	3	Barraneche	9	Septiembre	2023-09-25T00:00:00	2024-11-06T12:00:00	3	Temperatura mínima	18.4
51364	7	Sololá	701	Sololá	3	Barraneche	9	Septiembre	2023-09-25T00:00:00	2024-11-06T12:00:00	5	Humedad	62
51365	7	Sololá	701	Sololá	3	Barraneche	9	Septiembre	2023-09-25T00:00:00	2024-11-06T12:00:00	6	Velocidad del viento	12.9
51366	7	Sololá	701	Sololá	3	Barraneche	9	Septiembre	2023-09-25T00:00:00	2024-11-06T12:00:00	7	Dirección del viento	12.87
51367	7	Sololá	701	Sololá	3	Barraneche	9	Septiembre	2023-09-25T00:00:00	2024-11-06T12:00:00	1	Precipitación	0
51368	7	Sololá	701	Sololá	3	Barraneche	9	Septiembre	2023-09-25T00:00:00	2024-11-06T12:00:00	8	Radiación solar	892
51369	7	Sololá	701	Sololá	3	Barraneche	9	Septiembre	2023-09-25T00:00:00	2024-11-06T13:00:00	2	Temperatura media	17.6
51370	7	Sololá	701	Sololá	3	Barraneche	9	Septiembre	2023-09-25T00:00:00	2024-11-06T13:00:00	4	Temperatura máxima	18.4
51371	7	Sololá	701	Sololá	3	Barraneche	9	Septiembre	2023-09-25T00:00:00	2024-11-06T13:00:00	3	Temperatura mínima	17.6
51372	7	Sololá	701	Sololá	3	Barraneche	9	Septiembre	2023-09-25T00:00:00	2024-11-06T13:00:00	5	Humedad	69
51373	7	Sololá	701	Sololá	3	Barraneche	9	Septiembre	2023-09-25T00:00:00	2024-11-06T13:00:00	6	Velocidad del viento	12.9
51374	7	Sololá	701	Sololá	3	Barraneche	9	Septiembre	2023-09-25T00:00:00	2024-11-06T13:00:00	7	Dirección del viento	12.87
51375	7	Sololá	701	Sololá	3	Barraneche	9	Septiembre	2023-09-25T00:00:00	2024-11-06T13:00:00	1	Precipitación	0
51376	7	Sololá	701	Sololá	3	Barraneche	9	Septiembre	2023-09-25T00:00:00	2024-11-06T13:00:00	8	Radiación solar	1026
51377	7	Sololá	701	Sololá	3	Barraneche	9	Septiembre	2023-09-25T00:00:00	2024-11-06T14:00:00	2	Temperatura media	15.7
51378	7	Sololá	701	Sololá	3	Barraneche	9	Septiembre	2023-09-25T00:00:00	2024-11-06T14:00:00	4	Temperatura máxima	17.5
51379	7	Sololá	701	Sololá	3	Barraneche	9	Septiembre	2023-09-25T00:00:00	2024-11-06T14:00:00	3	Temperatura mínima	15.6
51380	7	Sololá	701	Sololá	3	Barraneche	9	Septiembre	2023-09-25T00:00:00	2024-11-06T14:00:00	5	Humedad	72
51381	7	Sololá	701	Sololá	3	Barraneche	9	Septiembre	2023-09-25T00:00:00	2024-11-06T14:00:00	6	Velocidad del viento	9.7
51382	7	Sololá	701	Sololá	3	Barraneche	9	Septiembre	2023-09-25T00:00:00	2024-11-06T14:00:00	7	Dirección del viento	9.66
51383	7	Sololá	701	Sololá	3	Barraneche	9	Septiembre	2023-09-25T00:00:00	2024-11-06T14:00:00	1	Precipitación	0
51384	7	Sololá	701	Sololá	3	Barraneche	9	Septiembre	2023-09-25T00:00:00	2024-11-06T14:00:00	8	Radiación solar	210
51385	7	Sololá	701	Sololá	3	Barraneche	9	Septiembre	2023-09-25T00:00:00	2024-11-06T15:00:00	2	Temperatura media	15.4
51386	7	Sololá	701	Sololá	3	Barraneche	9	Septiembre	2023-09-25T00:00:00	2024-11-06T15:00:00	4	Temperatura máxima	15.7
51387	7	Sololá	701	Sololá	3	Barraneche	9	Septiembre	2023-09-25T00:00:00	2024-11-06T15:00:00	3	Temperatura mínima	15.2
51388	7	Sololá	701	Sololá	3	Barraneche	9	Septiembre	2023-09-25T00:00:00	2024-11-06T15:00:00	5	Humedad	73
51389	7	Sololá	701	Sololá	3	Barraneche	9	Septiembre	2023-09-25T00:00:00	2024-11-06T15:00:00	6	Velocidad del viento	4.8
51390	7	Sololá	701	Sololá	3	Barraneche	9	Septiembre	2023-09-25T00:00:00	2024-11-06T15:00:00	7	Dirección del viento	4.83
51391	7	Sololá	701	Sololá	3	Barraneche	9	Septiembre	2023-09-25T00:00:00	2024-11-06T15:00:00	1	Precipitación	0
51392	7	Sololá	701	Sololá	3	Barraneche	9	Septiembre	2023-09-25T00:00:00	2024-11-06T15:00:00	8	Radiación solar	68
51393	7	Sololá	701	Sololá	3	Barraneche	9	Septiembre	2023-09-25T00:00:00	2024-11-06T16:00:00	2	Temperatura media	15.3
51394	7	Sololá	701	Sololá	3	Barraneche	9	Septiembre	2023-09-25T00:00:00	2024-11-06T16:00:00	4	Temperatura máxima	15.4
51395	7	Sololá	701	Sololá	3	Barraneche	9	Septiembre	2023-09-25T00:00:00	2024-11-06T16:00:00	3	Temperatura mínima	15.2
51396	7	Sololá	701	Sololá	3	Barraneche	9	Septiembre	2023-09-25T00:00:00	2024-11-06T16:00:00	5	Humedad	76
51397	7	Sololá	701	Sololá	3	Barraneche	9	Septiembre	2023-09-25T00:00:00	2024-11-06T16:00:00	6	Velocidad del viento	3.2
51398	7	Sololá	701	Sololá	3	Barraneche	9	Septiembre	2023-09-25T00:00:00	2024-11-06T16:00:00	7	Dirección del viento	3.22
51399	7	Sololá	701	Sololá	3	Barraneche	9	Septiembre	2023-09-25T00:00:00	2024-11-06T16:00:00	1	Precipitación	0
51400	7	Sololá	701	Sololá	3	Barraneche	9	Septiembre	2023-09-25T00:00:00	2024-11-06T16:00:00	8	Radiación solar	73
51401	7	Sololá	701	Sololá	3	Barraneche	9	Septiembre	2023-09-25T00:00:00	2024-11-06T17:00:00	2	Temperatura media	14.9
51402	7	Sololá	701	Sololá	3	Barraneche	9	Septiembre	2023-09-25T00:00:00	2024-11-06T17:00:00	4	Temperatura máxima	15.3
51403	7	Sololá	701	Sololá	3	Barraneche	9	Septiembre	2023-09-25T00:00:00	2024-11-06T17:00:00	3	Temperatura mínima	14.9
51404	7	Sololá	701	Sololá	3	Barraneche	9	Septiembre	2023-09-25T00:00:00	2024-11-06T17:00:00	5	Humedad	79
51405	7	Sololá	701	Sololá	3	Barraneche	9	Septiembre	2023-09-25T00:00:00	2024-11-06T17:00:00	6	Velocidad del viento	4.8
51406	7	Sololá	701	Sololá	3	Barraneche	9	Septiembre	2023-09-25T00:00:00	2024-11-06T17:00:00	7	Dirección del viento	4.83
51407	7	Sololá	701	Sololá	3	Barraneche	9	Septiembre	2023-09-25T00:00:00	2024-11-06T17:00:00	1	Precipitación	0
51408	7	Sololá	701	Sololá	3	Barraneche	9	Septiembre	2023-09-25T00:00:00	2024-11-06T17:00:00	8	Radiación solar	73
51409	7	Sololá	701	Sololá	3	Barraneche	9	Septiembre	2023-09-25T00:00:00	2024-11-06T18:00:00	2	Temperatura media	14.6
51410	7	Sololá	701	Sololá	3	Barraneche	9	Septiembre	2023-09-25T00:00:00	2024-11-06T18:00:00	4	Temperatura máxima	14.9
51411	7	Sololá	701	Sololá	3	Barraneche	9	Septiembre	2023-09-25T00:00:00	2024-11-06T18:00:00	3	Temperatura mínima	14.6
51412	7	Sololá	701	Sololá	3	Barraneche	9	Septiembre	2023-09-25T00:00:00	2024-11-06T18:00:00	5	Humedad	82
51413	7	Sololá	701	Sololá	3	Barraneche	9	Septiembre	2023-09-25T00:00:00	2024-11-06T18:00:00	6	Velocidad del viento	3.2
51414	7	Sololá	701	Sololá	3	Barraneche	9	Septiembre	2023-09-25T00:00:00	2024-11-06T18:00:00	7	Dirección del viento	3.22
51415	7	Sololá	701	Sololá	3	Barraneche	9	Septiembre	2023-09-25T00:00:00	2024-11-06T18:00:00	1	Precipitación	0
51416	7	Sololá	701	Sololá	3	Barraneche	9	Septiembre	2023-09-25T00:00:00	2024-11-06T18:00:00	8	Radiación solar	19
51417	7	Sololá	701	Sololá	3	Barraneche	9	Septiembre	2023-09-25T00:00:00	2024-11-06T19:00:00	2	Temperatura media	14.4
51418	7	Sololá	701	Sololá	3	Barraneche	9	Septiembre	2023-09-25T00:00:00	2024-11-06T19:00:00	4	Temperatura máxima	14.6
51419	7	Sololá	701	Sololá	3	Barraneche	9	Septiembre	2023-09-25T00:00:00	2024-11-06T19:00:00	3	Temperatura mínima	14.3
51420	7	Sololá	701	Sololá	3	Barraneche	9	Septiembre	2023-09-25T00:00:00	2024-11-06T19:00:00	5	Humedad	84
51421	7	Sololá	701	Sololá	3	Barraneche	9	Septiembre	2023-09-25T00:00:00	2024-11-06T19:00:00	6	Velocidad del viento	1.6
51422	7	Sololá	701	Sololá	3	Barraneche	9	Septiembre	2023-09-25T00:00:00	2024-11-06T19:00:00	7	Dirección del viento	1.61
51423	7	Sololá	701	Sololá	3	Barraneche	9	Septiembre	2023-09-25T00:00:00	2024-11-06T19:00:00	1	Precipitación	0
51424	7	Sololá	701	Sololá	3	Barraneche	9	Septiembre	2023-09-25T00:00:00	2024-11-06T19:00:00	8	Radiación solar	0
51425	7	Sololá	701	Sololá	3	Barraneche	9	Septiembre	2023-09-25T00:00:00	2024-11-06T20:00:00	2	Temperatura media	13.8
51426	7	Sololá	701	Sololá	3	Barraneche	9	Septiembre	2023-09-25T00:00:00	2024-11-06T20:00:00	4	Temperatura máxima	14.6
51427	7	Sololá	701	Sololá	3	Barraneche	9	Septiembre	2023-09-25T00:00:00	2024-11-06T20:00:00	3	Temperatura mínima	13.7
51428	7	Sololá	701	Sololá	3	Barraneche	9	Septiembre	2023-09-25T00:00:00	2024-11-06T20:00:00	5	Humedad	83
51429	7	Sololá	701	Sololá	3	Barraneche	9	Septiembre	2023-09-25T00:00:00	2024-11-06T20:00:00	6	Velocidad del viento	1.6
51430	7	Sololá	701	Sololá	3	Barraneche	9	Septiembre	2023-09-25T00:00:00	2024-11-06T20:00:00	7	Dirección del viento	1.61
51431	7	Sololá	701	Sololá	3	Barraneche	9	Septiembre	2023-09-25T00:00:00	2024-11-06T20:00:00	1	Precipitación	0
51432	7	Sololá	701	Sololá	3	Barraneche	9	Septiembre	2023-09-25T00:00:00	2024-11-06T20:00:00	8	Radiación solar	0
51433	7	Sololá	701	Sololá	3	Barraneche	9	Septiembre	2023-09-25T00:00:00	2024-11-06T21:00:00	2	Temperatura media	13.2
51434	7	Sololá	701	Sololá	3	Barraneche	9	Septiembre	2023-09-25T00:00:00	2024-11-06T21:00:00	4	Temperatura máxima	13.8
51435	7	Sololá	701	Sololá	3	Barraneche	9	Septiembre	2023-09-25T00:00:00	2024-11-06T21:00:00	3	Temperatura mínima	13.2
51436	7	Sololá	701	Sololá	3	Barraneche	9	Septiembre	2023-09-25T00:00:00	2024-11-06T21:00:00	5	Humedad	73
51437	7	Sololá	701	Sololá	3	Barraneche	9	Septiembre	2023-09-25T00:00:00	2024-11-06T21:00:00	6	Velocidad del viento	4.8
51438	7	Sololá	701	Sololá	3	Barraneche	9	Septiembre	2023-09-25T00:00:00	2024-11-06T21:00:00	7	Dirección del viento	4.83
51439	7	Sololá	701	Sololá	3	Barraneche	9	Septiembre	2023-09-25T00:00:00	2024-11-06T21:00:00	1	Precipitación	0
51440	7	Sololá	701	Sololá	3	Barraneche	9	Septiembre	2023-09-25T00:00:00	2024-11-06T21:00:00	8	Radiación solar	0
51441	7	Sololá	701	Sololá	3	Barraneche	9	Septiembre	2023-09-25T00:00:00	2024-11-06T22:00:00	2	Temperatura media	13.1
51442	7	Sololá	701	Sololá	3	Barraneche	9	Septiembre	2023-09-25T00:00:00	2024-11-06T22:00:00	4	Temperatura máxima	13.3
51443	7	Sololá	701	Sololá	3	Barraneche	9	Septiembre	2023-09-25T00:00:00	2024-11-06T22:00:00	3	Temperatura mínima	13.1
51444	7	Sololá	701	Sololá	3	Barraneche	9	Septiembre	2023-09-25T00:00:00	2024-11-06T22:00:00	5	Humedad	73
51445	7	Sololá	701	Sololá	3	Barraneche	9	Septiembre	2023-09-25T00:00:00	2024-11-06T22:00:00	6	Velocidad del viento	3.2
51446	7	Sololá	701	Sololá	3	Barraneche	9	Septiembre	2023-09-25T00:00:00	2024-11-06T22:00:00	7	Dirección del viento	3.22
51447	7	Sololá	701	Sololá	3	Barraneche	9	Septiembre	2023-09-25T00:00:00	2024-11-06T22:00:00	1	Precipitación	0
51448	7	Sololá	701	Sololá	3	Barraneche	9	Septiembre	2023-09-25T00:00:00	2024-11-06T22:00:00	8	Radiación solar	0
51449	7	Sololá	701	Sololá	3	Barraneche	9	Septiembre	2023-09-25T00:00:00	2024-11-06T23:00:00	2	Temperatura media	13.3
51450	7	Sololá	701	Sololá	3	Barraneche	9	Septiembre	2023-09-25T00:00:00	2024-11-06T23:00:00	4	Temperatura máxima	13.3
51451	7	Sololá	701	Sololá	3	Barraneche	9	Septiembre	2023-09-25T00:00:00	2024-11-06T23:00:00	3	Temperatura mínima	12.9
51452	7	Sololá	701	Sololá	3	Barraneche	9	Septiembre	2023-09-25T00:00:00	2024-11-06T23:00:00	5	Humedad	73
51453	7	Sololá	701	Sololá	3	Barraneche	9	Septiembre	2023-09-25T00:00:00	2024-11-06T23:00:00	6	Velocidad del viento	3.2
51454	7	Sololá	701	Sololá	3	Barraneche	9	Septiembre	2023-09-25T00:00:00	2024-11-06T23:00:00	7	Dirección del viento	3.22
51455	7	Sololá	701	Sololá	3	Barraneche	9	Septiembre	2023-09-25T00:00:00	2024-11-06T23:00:00	1	Precipitación	0
51456	7	Sololá	701	Sololá	3	Barraneche	9	Septiembre	2023-09-25T00:00:00	2024-11-06T23:00:00	8	Radiación solar	0
51457	7	Sololá	701	Sololá	3	Barraneche	9	Septiembre	2023-09-26T00:00:00	2024-11-06T00:00:00	2	Temperatura media	13.4
51458	7	Sololá	701	Sololá	3	Barraneche	9	Septiembre	2023-09-26T00:00:00	2024-11-06T00:00:00	4	Temperatura máxima	13.6
51459	7	Sololá	701	Sololá	3	Barraneche	9	Septiembre	2023-09-26T00:00:00	2024-11-06T00:00:00	3	Temperatura mínima	13.3
51460	7	Sololá	701	Sololá	3	Barraneche	9	Septiembre	2023-09-26T00:00:00	2024-11-06T00:00:00	5	Humedad	75
51461	7	Sololá	701	Sololá	3	Barraneche	9	Septiembre	2023-09-26T00:00:00	2024-11-06T00:00:00	6	Velocidad del viento	1.6
51462	7	Sololá	701	Sololá	3	Barraneche	9	Septiembre	2023-09-26T00:00:00	2024-11-06T00:00:00	7	Dirección del viento	1.61
51463	7	Sololá	701	Sololá	3	Barraneche	9	Septiembre	2023-09-26T00:00:00	2024-11-06T00:00:00	1	Precipitación	0
51464	7	Sololá	701	Sololá	3	Barraneche	9	Septiembre	2023-09-26T00:00:00	2024-11-06T00:00:00	8	Radiación solar	0
51465	7	Sololá	701	Sololá	3	Barraneche	9	Septiembre	2023-09-26T00:00:00	2024-11-06T01:00:00	2	Temperatura media	13.6
51466	7	Sololá	701	Sololá	3	Barraneche	9	Septiembre	2023-09-26T00:00:00	2024-11-06T01:00:00	4	Temperatura máxima	13.6
51467	7	Sololá	701	Sololá	3	Barraneche	9	Septiembre	2023-09-26T00:00:00	2024-11-06T01:00:00	3	Temperatura mínima	13.4
51468	7	Sololá	701	Sololá	3	Barraneche	9	Septiembre	2023-09-26T00:00:00	2024-11-06T01:00:00	5	Humedad	80
51469	7	Sololá	701	Sololá	3	Barraneche	9	Septiembre	2023-09-26T00:00:00	2024-11-06T01:00:00	6	Velocidad del viento	0
51470	7	Sololá	701	Sololá	3	Barraneche	9	Septiembre	2023-09-26T00:00:00	2024-11-06T01:00:00	7	Dirección del viento	0
51471	7	Sololá	701	Sololá	3	Barraneche	9	Septiembre	2023-09-26T00:00:00	2024-11-06T01:00:00	1	Precipitación	0
51472	7	Sololá	701	Sololá	3	Barraneche	9	Septiembre	2023-09-26T00:00:00	2024-11-06T01:00:00	8	Radiación solar	0
51473	7	Sololá	701	Sololá	3	Barraneche	9	Septiembre	2023-09-26T00:00:00	2024-11-06T02:00:00	2	Temperatura media	12.8
51474	7	Sololá	701	Sololá	3	Barraneche	9	Septiembre	2023-09-26T00:00:00	2024-11-06T02:00:00	4	Temperatura máxima	13.6
51475	7	Sololá	701	Sololá	3	Barraneche	9	Septiembre	2023-09-26T00:00:00	2024-11-06T02:00:00	3	Temperatura mínima	12.7
51476	7	Sololá	701	Sololá	3	Barraneche	9	Septiembre	2023-09-26T00:00:00	2024-11-06T02:00:00	5	Humedad	81
51477	7	Sololá	701	Sololá	3	Barraneche	9	Septiembre	2023-09-26T00:00:00	2024-11-06T02:00:00	6	Velocidad del viento	1.6
51478	7	Sololá	701	Sololá	3	Barraneche	9	Septiembre	2023-09-26T00:00:00	2024-11-06T02:00:00	7	Dirección del viento	1.61
51479	7	Sololá	701	Sololá	3	Barraneche	9	Septiembre	2023-09-26T00:00:00	2024-11-06T02:00:00	1	Precipitación	0.6
51480	7	Sololá	701	Sololá	3	Barraneche	9	Septiembre	2023-09-26T00:00:00	2024-11-06T02:00:00	8	Radiación solar	0
51481	7	Sololá	701	Sololá	3	Barraneche	9	Septiembre	2023-09-26T00:00:00	2024-11-06T03:00:00	2	Temperatura media	12.3
51482	7	Sololá	701	Sololá	3	Barraneche	9	Septiembre	2023-09-26T00:00:00	2024-11-06T03:00:00	4	Temperatura máxima	12.8
51483	7	Sololá	701	Sololá	3	Barraneche	9	Septiembre	2023-09-26T00:00:00	2024-11-06T03:00:00	3	Temperatura mínima	12.3
51484	7	Sololá	701	Sololá	3	Barraneche	9	Septiembre	2023-09-26T00:00:00	2024-11-06T03:00:00	5	Humedad	79
51485	7	Sololá	701	Sololá	3	Barraneche	9	Septiembre	2023-09-26T00:00:00	2024-11-06T03:00:00	6	Velocidad del viento	3.2
51486	7	Sololá	701	Sololá	3	Barraneche	9	Septiembre	2023-09-26T00:00:00	2024-11-06T03:00:00	7	Dirección del viento	3.22
51487	7	Sololá	701	Sololá	3	Barraneche	9	Septiembre	2023-09-26T00:00:00	2024-11-06T03:00:00	1	Precipitación	1.8
51488	7	Sololá	701	Sololá	3	Barraneche	9	Septiembre	2023-09-26T00:00:00	2024-11-06T03:00:00	8	Radiación solar	0
51489	7	Sololá	701	Sololá	3	Barraneche	9	Septiembre	2023-09-26T00:00:00	2024-11-06T04:00:00	2	Temperatura media	12.1
51490	7	Sololá	701	Sololá	3	Barraneche	9	Septiembre	2023-09-26T00:00:00	2024-11-06T04:00:00	4	Temperatura máxima	12.4
51491	7	Sololá	701	Sololá	3	Barraneche	9	Septiembre	2023-09-26T00:00:00	2024-11-06T04:00:00	3	Temperatura mínima	12.1
51492	7	Sololá	701	Sololá	3	Barraneche	9	Septiembre	2023-09-26T00:00:00	2024-11-06T04:00:00	5	Humedad	77
51493	7	Sololá	701	Sololá	3	Barraneche	9	Septiembre	2023-09-26T00:00:00	2024-11-06T04:00:00	6	Velocidad del viento	6.4
51494	7	Sololá	701	Sololá	3	Barraneche	9	Septiembre	2023-09-26T00:00:00	2024-11-06T04:00:00	7	Dirección del viento	6.44
51495	7	Sololá	701	Sololá	3	Barraneche	9	Septiembre	2023-09-26T00:00:00	2024-11-06T04:00:00	1	Precipitación	0
51496	7	Sololá	701	Sololá	3	Barraneche	9	Septiembre	2023-09-26T00:00:00	2024-11-06T04:00:00	8	Radiación solar	0
51497	7	Sololá	701	Sololá	3	Barraneche	9	Septiembre	2023-09-26T00:00:00	2024-11-06T05:00:00	2	Temperatura media	11.7
51498	7	Sololá	701	Sololá	3	Barraneche	9	Septiembre	2023-09-26T00:00:00	2024-11-06T05:00:00	4	Temperatura máxima	12.3
51499	7	Sololá	701	Sololá	3	Barraneche	9	Septiembre	2023-09-26T00:00:00	2024-11-06T05:00:00	3	Temperatura mínima	11.7
51500	7	Sololá	701	Sololá	3	Barraneche	9	Septiembre	2023-09-26T00:00:00	2024-11-06T05:00:00	5	Humedad	74
51501	7	Sololá	701	Sololá	3	Barraneche	9	Septiembre	2023-09-26T00:00:00	2024-11-06T05:00:00	6	Velocidad del viento	6.4
51502	7	Sololá	701	Sololá	3	Barraneche	9	Septiembre	2023-09-26T00:00:00	2024-11-06T05:00:00	7	Dirección del viento	6.44
51503	7	Sololá	701	Sololá	3	Barraneche	9	Septiembre	2023-09-26T00:00:00	2024-11-06T05:00:00	1	Precipitación	0
51504	7	Sololá	701	Sololá	3	Barraneche	9	Septiembre	2023-09-26T00:00:00	2024-11-06T05:00:00	8	Radiación solar	0
51505	7	Sololá	701	Sololá	3	Barraneche	9	Septiembre	2023-09-26T00:00:00	2024-11-06T06:00:00	2	Temperatura media	10.9
51506	7	Sololá	701	Sololá	3	Barraneche	9	Septiembre	2023-09-26T00:00:00	2024-11-06T06:00:00	4	Temperatura máxima	11.7
51507	7	Sololá	701	Sololá	3	Barraneche	9	Septiembre	2023-09-26T00:00:00	2024-11-06T06:00:00	3	Temperatura mínima	10.8
51508	7	Sololá	701	Sololá	3	Barraneche	9	Septiembre	2023-09-26T00:00:00	2024-11-06T06:00:00	5	Humedad	74
51509	7	Sololá	701	Sololá	3	Barraneche	9	Septiembre	2023-09-26T00:00:00	2024-11-06T06:00:00	6	Velocidad del viento	6.4
51510	7	Sololá	701	Sololá	3	Barraneche	9	Septiembre	2023-09-26T00:00:00	2024-11-06T06:00:00	7	Dirección del viento	6.44
51511	7	Sololá	701	Sololá	3	Barraneche	9	Septiembre	2023-09-26T00:00:00	2024-11-06T06:00:00	1	Precipitación	0
51512	7	Sololá	701	Sololá	3	Barraneche	9	Septiembre	2023-09-26T00:00:00	2024-11-06T06:00:00	8	Radiación solar	1
51513	7	Sololá	701	Sololá	3	Barraneche	9	Septiembre	2023-09-26T00:00:00	2024-11-06T07:00:00	2	Temperatura media	12.3
51514	7	Sololá	701	Sololá	3	Barraneche	9	Septiembre	2023-09-26T00:00:00	2024-11-06T07:00:00	4	Temperatura máxima	12.3
51515	7	Sololá	701	Sololá	3	Barraneche	9	Septiembre	2023-09-26T00:00:00	2024-11-06T07:00:00	3	Temperatura mínima	10.7
51516	7	Sololá	701	Sololá	3	Barraneche	9	Septiembre	2023-09-26T00:00:00	2024-11-06T07:00:00	5	Humedad	73
51517	7	Sololá	701	Sololá	3	Barraneche	9	Septiembre	2023-09-26T00:00:00	2024-11-06T07:00:00	6	Velocidad del viento	6.4
51518	7	Sololá	701	Sololá	3	Barraneche	9	Septiembre	2023-09-26T00:00:00	2024-11-06T07:00:00	7	Dirección del viento	6.44
51519	7	Sololá	701	Sololá	3	Barraneche	9	Septiembre	2023-09-26T00:00:00	2024-11-06T07:00:00	1	Precipitación	0
51520	7	Sololá	701	Sololá	3	Barraneche	9	Septiembre	2023-09-26T00:00:00	2024-11-06T07:00:00	8	Radiación solar	57
51521	7	Sololá	701	Sololá	3	Barraneche	9	Septiembre	2023-09-26T00:00:00	2024-11-06T08:00:00	2	Temperatura media	15.6
51522	7	Sololá	701	Sololá	3	Barraneche	9	Septiembre	2023-09-26T00:00:00	2024-11-06T08:00:00	4	Temperatura máxima	15.6
51523	7	Sololá	701	Sololá	3	Barraneche	9	Septiembre	2023-09-26T00:00:00	2024-11-06T08:00:00	3	Temperatura mínima	12.3
51524	7	Sololá	701	Sololá	3	Barraneche	9	Septiembre	2023-09-26T00:00:00	2024-11-06T08:00:00	5	Humedad	66
51525	7	Sololá	701	Sololá	3	Barraneche	9	Septiembre	2023-09-26T00:00:00	2024-11-06T08:00:00	6	Velocidad del viento	3.2
51526	7	Sololá	701	Sololá	3	Barraneche	9	Septiembre	2023-09-26T00:00:00	2024-11-06T08:00:00	7	Dirección del viento	3.22
51527	7	Sololá	701	Sololá	3	Barraneche	9	Septiembre	2023-09-26T00:00:00	2024-11-06T08:00:00	1	Precipitación	0
51528	7	Sololá	701	Sololá	3	Barraneche	9	Septiembre	2023-09-26T00:00:00	2024-11-06T08:00:00	8	Radiación solar	341
51529	7	Sololá	701	Sololá	3	Barraneche	9	Septiembre	2023-09-26T00:00:00	2024-11-06T09:00:00	2	Temperatura media	17.8
51530	7	Sololá	701	Sololá	3	Barraneche	9	Septiembre	2023-09-26T00:00:00	2024-11-06T09:00:00	4	Temperatura máxima	17.8
51531	7	Sololá	701	Sololá	3	Barraneche	9	Septiembre	2023-09-26T00:00:00	2024-11-06T09:00:00	3	Temperatura mínima	15.6
51532	7	Sololá	701	Sololá	3	Barraneche	9	Septiembre	2023-09-26T00:00:00	2024-11-06T09:00:00	5	Humedad	60
51533	7	Sololá	701	Sololá	3	Barraneche	9	Septiembre	2023-09-26T00:00:00	2024-11-06T09:00:00	6	Velocidad del viento	3.2
51534	7	Sololá	701	Sololá	3	Barraneche	9	Septiembre	2023-09-26T00:00:00	2024-11-06T09:00:00	7	Dirección del viento	3.22
51535	7	Sololá	701	Sololá	3	Barraneche	9	Septiembre	2023-09-26T00:00:00	2024-11-06T09:00:00	1	Precipitación	0
51536	7	Sololá	701	Sololá	3	Barraneche	9	Septiembre	2023-09-26T00:00:00	2024-11-06T09:00:00	8	Radiación solar	565
51537	7	Sololá	701	Sololá	3	Barraneche	9	Septiembre	2023-09-26T00:00:00	2024-11-06T10:00:00	2	Temperatura media	19.3
51538	7	Sololá	701	Sololá	3	Barraneche	9	Septiembre	2023-09-26T00:00:00	2024-11-06T10:00:00	4	Temperatura máxima	19.5
51539	7	Sololá	701	Sololá	3	Barraneche	9	Septiembre	2023-09-26T00:00:00	2024-11-06T10:00:00	3	Temperatura mínima	17.7
51540	7	Sololá	701	Sololá	3	Barraneche	9	Septiembre	2023-09-26T00:00:00	2024-11-06T10:00:00	5	Humedad	54
51541	7	Sololá	701	Sololá	3	Barraneche	9	Septiembre	2023-09-26T00:00:00	2024-11-06T10:00:00	6	Velocidad del viento	8
51542	7	Sololá	701	Sololá	3	Barraneche	9	Septiembre	2023-09-26T00:00:00	2024-11-06T10:00:00	7	Dirección del viento	8.05
51543	7	Sololá	701	Sololá	3	Barraneche	9	Septiembre	2023-09-26T00:00:00	2024-11-06T10:00:00	1	Precipitación	0
51544	7	Sololá	701	Sololá	3	Barraneche	9	Septiembre	2023-09-26T00:00:00	2024-11-06T10:00:00	8	Radiación solar	821
51545	7	Sololá	701	Sololá	3	Barraneche	9	Septiembre	2023-09-26T00:00:00	2024-11-06T11:00:00	2	Temperatura media	21.1
51546	7	Sololá	701	Sololá	3	Barraneche	9	Septiembre	2023-09-26T00:00:00	2024-11-06T11:00:00	4	Temperatura máxima	21.3
51547	7	Sololá	701	Sololá	3	Barraneche	9	Septiembre	2023-09-26T00:00:00	2024-11-06T11:00:00	3	Temperatura mínima	19.3
51548	7	Sololá	701	Sololá	3	Barraneche	9	Septiembre	2023-09-26T00:00:00	2024-11-06T11:00:00	5	Humedad	48
51549	7	Sololá	701	Sololá	3	Barraneche	9	Septiembre	2023-09-26T00:00:00	2024-11-06T11:00:00	6	Velocidad del viento	8
51550	7	Sololá	701	Sololá	3	Barraneche	9	Septiembre	2023-09-26T00:00:00	2024-11-06T11:00:00	7	Dirección del viento	8.05
51551	7	Sololá	701	Sololá	3	Barraneche	9	Septiembre	2023-09-26T00:00:00	2024-11-06T11:00:00	1	Precipitación	0
51552	7	Sololá	701	Sololá	3	Barraneche	9	Septiembre	2023-09-26T00:00:00	2024-11-06T11:00:00	8	Radiación solar	1035
51553	7	Sololá	701	Sololá	3	Barraneche	9	Septiembre	2023-09-26T00:00:00	2024-11-06T12:00:00	2	Temperatura media	20.1
51554	7	Sololá	701	Sololá	3	Barraneche	9	Septiembre	2023-09-26T00:00:00	2024-11-06T12:00:00	4	Temperatura máxima	21.1
51555	7	Sololá	701	Sololá	3	Barraneche	9	Septiembre	2023-09-26T00:00:00	2024-11-06T12:00:00	3	Temperatura mínima	19.8
51556	7	Sololá	701	Sololá	3	Barraneche	9	Septiembre	2023-09-26T00:00:00	2024-11-06T12:00:00	5	Humedad	51
51557	7	Sololá	701	Sololá	3	Barraneche	9	Septiembre	2023-09-26T00:00:00	2024-11-06T12:00:00	6	Velocidad del viento	6.4
51558	7	Sololá	701	Sololá	3	Barraneche	9	Septiembre	2023-09-26T00:00:00	2024-11-06T12:00:00	7	Dirección del viento	6.44
51559	7	Sololá	701	Sololá	3	Barraneche	9	Septiembre	2023-09-26T00:00:00	2024-11-06T12:00:00	1	Precipitación	0
51560	7	Sololá	701	Sololá	3	Barraneche	9	Septiembre	2023-09-26T00:00:00	2024-11-06T12:00:00	8	Radiación solar	282
51561	7	Sololá	701	Sololá	3	Barraneche	9	Septiembre	2023-09-26T00:00:00	2024-11-06T13:00:00	2	Temperatura media	19.2
51562	7	Sololá	701	Sololá	3	Barraneche	9	Septiembre	2023-09-26T00:00:00	2024-11-06T13:00:00	4	Temperatura máxima	20.1
51563	7	Sololá	701	Sololá	3	Barraneche	9	Septiembre	2023-09-26T00:00:00	2024-11-06T13:00:00	3	Temperatura mínima	19.1
51564	7	Sololá	701	Sololá	3	Barraneche	9	Septiembre	2023-09-26T00:00:00	2024-11-06T13:00:00	5	Humedad	63
51565	7	Sololá	701	Sololá	3	Barraneche	9	Septiembre	2023-09-26T00:00:00	2024-11-06T13:00:00	6	Velocidad del viento	11.3
51566	7	Sololá	701	Sololá	3	Barraneche	9	Septiembre	2023-09-26T00:00:00	2024-11-06T13:00:00	7	Dirección del viento	11.27
51567	7	Sololá	701	Sololá	3	Barraneche	9	Septiembre	2023-09-26T00:00:00	2024-11-06T13:00:00	1	Precipitación	0
51568	7	Sololá	701	Sololá	3	Barraneche	9	Septiembre	2023-09-26T00:00:00	2024-11-06T13:00:00	8	Radiación solar	489
51569	7	Sololá	701	Sololá	3	Barraneche	9	Septiembre	2023-09-26T00:00:00	2024-11-06T14:00:00	2	Temperatura media	17.8
51570	7	Sololá	701	Sololá	3	Barraneche	9	Septiembre	2023-09-26T00:00:00	2024-11-06T14:00:00	4	Temperatura máxima	19.2
51571	7	Sololá	701	Sololá	3	Barraneche	9	Septiembre	2023-09-26T00:00:00	2024-11-06T14:00:00	3	Temperatura mínima	17.8
51572	7	Sololá	701	Sololá	3	Barraneche	9	Septiembre	2023-09-26T00:00:00	2024-11-06T14:00:00	5	Humedad	70
51573	7	Sololá	701	Sololá	3	Barraneche	9	Septiembre	2023-09-26T00:00:00	2024-11-06T14:00:00	6	Velocidad del viento	12.9
51574	7	Sololá	701	Sololá	3	Barraneche	9	Septiembre	2023-09-26T00:00:00	2024-11-06T14:00:00	7	Dirección del viento	12.87
51575	7	Sololá	701	Sololá	3	Barraneche	9	Septiembre	2023-09-26T00:00:00	2024-11-06T14:00:00	1	Precipitación	0
51576	7	Sololá	701	Sololá	3	Barraneche	9	Septiembre	2023-09-26T00:00:00	2024-11-06T14:00:00	8	Radiación solar	181
51577	7	Sololá	701	Sololá	3	Barraneche	9	Septiembre	2023-09-26T00:00:00	2024-11-06T15:00:00	2	Temperatura media	16.1
51578	7	Sololá	701	Sololá	3	Barraneche	9	Septiembre	2023-09-26T00:00:00	2024-11-06T15:00:00	4	Temperatura máxima	17.8
51579	7	Sololá	701	Sololá	3	Barraneche	9	Septiembre	2023-09-26T00:00:00	2024-11-06T15:00:00	3	Temperatura mínima	16.1
51580	7	Sololá	701	Sololá	3	Barraneche	9	Septiembre	2023-09-26T00:00:00	2024-11-06T15:00:00	5	Humedad	71
51581	7	Sololá	701	Sololá	3	Barraneche	9	Septiembre	2023-09-26T00:00:00	2024-11-06T15:00:00	6	Velocidad del viento	4.8
51582	7	Sololá	701	Sololá	3	Barraneche	9	Septiembre	2023-09-26T00:00:00	2024-11-06T15:00:00	7	Dirección del viento	4.83
51583	7	Sololá	701	Sololá	3	Barraneche	9	Septiembre	2023-09-26T00:00:00	2024-11-06T15:00:00	1	Precipitación	1.2
51584	7	Sololá	701	Sololá	3	Barraneche	9	Septiembre	2023-09-26T00:00:00	2024-11-06T15:00:00	8	Radiación solar	43
51585	7	Sololá	701	Sololá	3	Barraneche	9	Septiembre	2023-09-26T00:00:00	2024-11-06T16:00:00	2	Temperatura media	15.9
51586	7	Sololá	701	Sololá	3	Barraneche	9	Septiembre	2023-09-26T00:00:00	2024-11-06T16:00:00	4	Temperatura máxima	16
51587	7	Sololá	701	Sololá	3	Barraneche	9	Septiembre	2023-09-26T00:00:00	2024-11-06T16:00:00	3	Temperatura mínima	14.9
51588	7	Sololá	701	Sololá	3	Barraneche	9	Septiembre	2023-09-26T00:00:00	2024-11-06T16:00:00	5	Humedad	72
51589	7	Sololá	701	Sololá	3	Barraneche	9	Septiembre	2023-09-26T00:00:00	2024-11-06T16:00:00	6	Velocidad del viento	4.8
51590	7	Sololá	701	Sololá	3	Barraneche	9	Septiembre	2023-09-26T00:00:00	2024-11-06T16:00:00	7	Dirección del viento	4.83
51591	7	Sololá	701	Sololá	3	Barraneche	9	Septiembre	2023-09-26T00:00:00	2024-11-06T16:00:00	1	Precipitación	4.6
51592	7	Sololá	701	Sololá	3	Barraneche	9	Septiembre	2023-09-26T00:00:00	2024-11-06T16:00:00	8	Radiación solar	130
51593	7	Sololá	701	Sololá	3	Barraneche	9	Septiembre	2023-09-26T00:00:00	2024-11-06T17:00:00	2	Temperatura media	15
51594	7	Sololá	701	Sololá	3	Barraneche	9	Septiembre	2023-09-26T00:00:00	2024-11-06T17:00:00	4	Temperatura máxima	16.2
51595	7	Sololá	701	Sololá	3	Barraneche	9	Septiembre	2023-09-26T00:00:00	2024-11-06T17:00:00	3	Temperatura mínima	14.9
51596	7	Sololá	701	Sololá	3	Barraneche	9	Septiembre	2023-09-26T00:00:00	2024-11-06T17:00:00	5	Humedad	81
51597	7	Sololá	701	Sololá	3	Barraneche	9	Septiembre	2023-09-26T00:00:00	2024-11-06T17:00:00	6	Velocidad del viento	4.8
51598	7	Sololá	701	Sololá	3	Barraneche	9	Septiembre	2023-09-26T00:00:00	2024-11-06T17:00:00	7	Dirección del viento	4.83
51599	7	Sololá	701	Sololá	3	Barraneche	9	Septiembre	2023-09-26T00:00:00	2024-11-06T17:00:00	1	Precipitación	0.2
51600	7	Sololá	701	Sololá	3	Barraneche	9	Septiembre	2023-09-26T00:00:00	2024-11-06T17:00:00	8	Radiación solar	43
51601	7	Sololá	701	Sololá	3	Barraneche	9	Septiembre	2023-09-26T00:00:00	2024-11-06T18:00:00	2	Temperatura media	14.5
51602	7	Sololá	701	Sololá	3	Barraneche	9	Septiembre	2023-09-26T00:00:00	2024-11-06T18:00:00	4	Temperatura máxima	15
51603	7	Sololá	701	Sololá	3	Barraneche	9	Septiembre	2023-09-26T00:00:00	2024-11-06T18:00:00	3	Temperatura mínima	14.3
51604	7	Sololá	701	Sololá	3	Barraneche	9	Septiembre	2023-09-26T00:00:00	2024-11-06T18:00:00	5	Humedad	84
51605	7	Sololá	701	Sololá	3	Barraneche	9	Septiembre	2023-09-26T00:00:00	2024-11-06T18:00:00	6	Velocidad del viento	3.2
51606	7	Sololá	701	Sololá	3	Barraneche	9	Septiembre	2023-09-26T00:00:00	2024-11-06T18:00:00	7	Dirección del viento	3.22
51607	7	Sololá	701	Sololá	3	Barraneche	9	Septiembre	2023-09-26T00:00:00	2024-11-06T18:00:00	1	Precipitación	0
51608	7	Sololá	701	Sololá	3	Barraneche	9	Septiembre	2023-09-26T00:00:00	2024-11-06T18:00:00	8	Radiación solar	0
51609	7	Sololá	701	Sololá	3	Barraneche	9	Septiembre	2023-09-26T00:00:00	2024-11-06T19:00:00	2	Temperatura media	14.4
51610	7	Sololá	701	Sololá	3	Barraneche	9	Septiembre	2023-09-26T00:00:00	2024-11-06T19:00:00	4	Temperatura máxima	14.6
51611	7	Sololá	701	Sololá	3	Barraneche	9	Septiembre	2023-09-26T00:00:00	2024-11-06T19:00:00	3	Temperatura mínima	14.3
51612	7	Sololá	701	Sololá	3	Barraneche	9	Septiembre	2023-09-26T00:00:00	2024-11-06T19:00:00	5	Humedad	85
51613	7	Sololá	701	Sololá	3	Barraneche	9	Septiembre	2023-09-26T00:00:00	2024-11-06T19:00:00	6	Velocidad del viento	1.6
51614	7	Sololá	701	Sololá	3	Barraneche	9	Septiembre	2023-09-26T00:00:00	2024-11-06T19:00:00	7	Dirección del viento	1.61
51615	7	Sololá	701	Sololá	3	Barraneche	9	Septiembre	2023-09-26T00:00:00	2024-11-06T19:00:00	1	Precipitación	1
51616	7	Sololá	701	Sololá	3	Barraneche	9	Septiembre	2023-09-26T00:00:00	2024-11-06T19:00:00	8	Radiación solar	0
51617	7	Sololá	701	Sololá	3	Barraneche	9	Septiembre	2023-09-26T00:00:00	2024-11-06T20:00:00	2	Temperatura media	13.9
51618	7	Sololá	701	Sololá	3	Barraneche	9	Septiembre	2023-09-26T00:00:00	2024-11-06T20:00:00	4	Temperatura máxima	14.4
51619	7	Sololá	701	Sololá	3	Barraneche	9	Septiembre	2023-09-26T00:00:00	2024-11-06T20:00:00	3	Temperatura mínima	13.9
51620	7	Sololá	701	Sololá	3	Barraneche	9	Septiembre	2023-09-26T00:00:00	2024-11-06T20:00:00	5	Humedad	84
51621	7	Sololá	701	Sololá	3	Barraneche	9	Septiembre	2023-09-26T00:00:00	2024-11-06T20:00:00	6	Velocidad del viento	1.6
51622	7	Sololá	701	Sololá	3	Barraneche	9	Septiembre	2023-09-26T00:00:00	2024-11-06T20:00:00	7	Dirección del viento	1.61
51623	7	Sololá	701	Sololá	3	Barraneche	9	Septiembre	2023-09-26T00:00:00	2024-11-06T20:00:00	1	Precipitación	0.8
51624	7	Sololá	701	Sololá	3	Barraneche	9	Septiembre	2023-09-26T00:00:00	2024-11-06T20:00:00	8	Radiación solar	0
51625	7	Sololá	701	Sololá	3	Barraneche	9	Septiembre	2023-09-26T00:00:00	2024-11-06T21:00:00	2	Temperatura media	13.8
51626	7	Sololá	701	Sololá	3	Barraneche	9	Septiembre	2023-09-26T00:00:00	2024-11-06T21:00:00	4	Temperatura máxima	14.1
51627	7	Sololá	701	Sololá	3	Barraneche	9	Septiembre	2023-09-26T00:00:00	2024-11-06T21:00:00	3	Temperatura mínima	13.8
51628	7	Sololá	701	Sololá	3	Barraneche	9	Septiembre	2023-09-26T00:00:00	2024-11-06T21:00:00	5	Humedad	84
51629	7	Sololá	701	Sololá	3	Barraneche	9	Septiembre	2023-09-26T00:00:00	2024-11-06T21:00:00	6	Velocidad del viento	1.6
51630	7	Sololá	701	Sololá	3	Barraneche	9	Septiembre	2023-09-26T00:00:00	2024-11-06T21:00:00	7	Dirección del viento	1.61
51631	7	Sololá	701	Sololá	3	Barraneche	9	Septiembre	2023-09-26T00:00:00	2024-11-06T21:00:00	1	Precipitación	0
51632	7	Sololá	701	Sololá	3	Barraneche	9	Septiembre	2023-09-26T00:00:00	2024-11-06T21:00:00	8	Radiación solar	0
51633	7	Sololá	701	Sololá	3	Barraneche	9	Septiembre	2023-09-26T00:00:00	2024-11-06T22:00:00	2	Temperatura media	14.1
51634	7	Sololá	701	Sololá	3	Barraneche	9	Septiembre	2023-09-26T00:00:00	2024-11-06T22:00:00	4	Temperatura máxima	14.1
51635	7	Sololá	701	Sololá	3	Barraneche	9	Septiembre	2023-09-26T00:00:00	2024-11-06T22:00:00	3	Temperatura mínima	13.7
51636	7	Sololá	701	Sololá	3	Barraneche	9	Septiembre	2023-09-26T00:00:00	2024-11-06T22:00:00	5	Humedad	72
51637	7	Sololá	701	Sololá	3	Barraneche	9	Septiembre	2023-09-26T00:00:00	2024-11-06T22:00:00	6	Velocidad del viento	3.2
51638	7	Sololá	701	Sololá	3	Barraneche	9	Septiembre	2023-09-26T00:00:00	2024-11-06T22:00:00	7	Dirección del viento	3.22
51639	7	Sololá	701	Sololá	3	Barraneche	9	Septiembre	2023-09-26T00:00:00	2024-11-06T22:00:00	1	Precipitación	0
51640	7	Sololá	701	Sololá	3	Barraneche	9	Septiembre	2023-09-26T00:00:00	2024-11-06T22:00:00	8	Radiación solar	0
51641	7	Sololá	701	Sololá	3	Barraneche	9	Septiembre	2023-09-26T00:00:00	2024-11-06T23:00:00	2	Temperatura media	12.8
51642	7	Sololá	701	Sololá	3	Barraneche	9	Septiembre	2023-09-26T00:00:00	2024-11-06T23:00:00	4	Temperatura máxima	14.3
51643	7	Sololá	701	Sololá	3	Barraneche	9	Septiembre	2023-09-26T00:00:00	2024-11-06T23:00:00	3	Temperatura mínima	12.8
51644	7	Sololá	701	Sololá	3	Barraneche	9	Septiembre	2023-09-26T00:00:00	2024-11-06T23:00:00	5	Humedad	78
51645	7	Sololá	701	Sololá	3	Barraneche	9	Septiembre	2023-09-26T00:00:00	2024-11-06T23:00:00	6	Velocidad del viento	3.2
51646	7	Sololá	701	Sololá	3	Barraneche	9	Septiembre	2023-09-26T00:00:00	2024-11-06T23:00:00	7	Dirección del viento	3.22
51647	7	Sololá	701	Sololá	3	Barraneche	9	Septiembre	2023-09-26T00:00:00	2024-11-06T23:00:00	1	Precipitación	0
51648	7	Sololá	701	Sololá	3	Barraneche	9	Septiembre	2023-09-26T00:00:00	2024-11-06T23:00:00	8	Radiación solar	0
51649	7	Sololá	701	Sololá	3	Barraneche	9	Septiembre	2023-09-27T00:00:00	2024-11-06T00:00:00	2	Temperatura media	12.4
51650	7	Sololá	701	Sololá	3	Barraneche	9	Septiembre	2023-09-27T00:00:00	2024-11-06T00:00:00	4	Temperatura máxima	12.9
51651	7	Sololá	701	Sololá	3	Barraneche	9	Septiembre	2023-09-27T00:00:00	2024-11-06T00:00:00	3	Temperatura mínima	12.4
51652	7	Sololá	701	Sololá	3	Barraneche	9	Septiembre	2023-09-27T00:00:00	2024-11-06T00:00:00	5	Humedad	80
51653	7	Sololá	701	Sololá	3	Barraneche	9	Septiembre	2023-09-27T00:00:00	2024-11-06T00:00:00	6	Velocidad del viento	3.2
51654	7	Sololá	701	Sololá	3	Barraneche	9	Septiembre	2023-09-27T00:00:00	2024-11-06T00:00:00	7	Dirección del viento	3.22
51655	7	Sololá	701	Sololá	3	Barraneche	9	Septiembre	2023-09-27T00:00:00	2024-11-06T00:00:00	1	Precipitación	0
51656	7	Sololá	701	Sololá	3	Barraneche	9	Septiembre	2023-09-27T00:00:00	2024-11-06T00:00:00	8	Radiación solar	0
51657	7	Sololá	701	Sololá	3	Barraneche	9	Septiembre	2023-09-27T00:00:00	2024-11-06T01:00:00	2	Temperatura media	11.9
51658	7	Sololá	701	Sololá	3	Barraneche	9	Septiembre	2023-09-27T00:00:00	2024-11-06T01:00:00	4	Temperatura máxima	12.5
51659	7	Sololá	701	Sololá	3	Barraneche	9	Septiembre	2023-09-27T00:00:00	2024-11-06T01:00:00	3	Temperatura mínima	11.9
51660	7	Sololá	701	Sololá	3	Barraneche	9	Septiembre	2023-09-27T00:00:00	2024-11-06T01:00:00	5	Humedad	82
51661	7	Sololá	701	Sololá	3	Barraneche	9	Septiembre	2023-09-27T00:00:00	2024-11-06T01:00:00	6	Velocidad del viento	3.2
51662	7	Sololá	701	Sololá	3	Barraneche	9	Septiembre	2023-09-27T00:00:00	2024-11-06T01:00:00	7	Dirección del viento	3.22
51663	7	Sololá	701	Sololá	3	Barraneche	9	Septiembre	2023-09-27T00:00:00	2024-11-06T01:00:00	1	Precipitación	0
51664	7	Sololá	701	Sololá	3	Barraneche	9	Septiembre	2023-09-27T00:00:00	2024-11-06T01:00:00	8	Radiación solar	0
51665	7	Sololá	701	Sololá	3	Barraneche	9	Septiembre	2023-09-27T00:00:00	2024-11-06T02:00:00	2	Temperatura media	12.2
51666	7	Sololá	701	Sololá	3	Barraneche	9	Septiembre	2023-09-27T00:00:00	2024-11-06T02:00:00	4	Temperatura máxima	12.3
51667	7	Sololá	701	Sololá	3	Barraneche	9	Septiembre	2023-09-27T00:00:00	2024-11-06T02:00:00	3	Temperatura mínima	11.9
51668	7	Sololá	701	Sololá	3	Barraneche	9	Septiembre	2023-09-27T00:00:00	2024-11-06T02:00:00	5	Humedad	82
51669	7	Sololá	701	Sololá	3	Barraneche	9	Septiembre	2023-09-27T00:00:00	2024-11-06T02:00:00	6	Velocidad del viento	3.2
51670	7	Sololá	701	Sololá	3	Barraneche	9	Septiembre	2023-09-27T00:00:00	2024-11-06T02:00:00	7	Dirección del viento	3.22
51671	7	Sololá	701	Sololá	3	Barraneche	9	Septiembre	2023-09-27T00:00:00	2024-11-06T02:00:00	1	Precipitación	0
51672	7	Sololá	701	Sololá	3	Barraneche	9	Septiembre	2023-09-27T00:00:00	2024-11-06T02:00:00	8	Radiación solar	0
51673	7	Sololá	701	Sololá	3	Barraneche	9	Septiembre	2023-09-27T00:00:00	2024-11-06T03:00:00	2	Temperatura media	12.3
51674	7	Sololá	701	Sololá	3	Barraneche	9	Septiembre	2023-09-27T00:00:00	2024-11-06T03:00:00	4	Temperatura máxima	12.4
51675	7	Sololá	701	Sololá	3	Barraneche	9	Septiembre	2023-09-27T00:00:00	2024-11-06T03:00:00	3	Temperatura mínima	12.2
51676	7	Sololá	701	Sololá	3	Barraneche	9	Septiembre	2023-09-27T00:00:00	2024-11-06T03:00:00	5	Humedad	81
51677	7	Sololá	701	Sololá	3	Barraneche	9	Septiembre	2023-09-27T00:00:00	2024-11-06T03:00:00	6	Velocidad del viento	3.2
51678	7	Sololá	701	Sololá	3	Barraneche	9	Septiembre	2023-09-27T00:00:00	2024-11-06T03:00:00	7	Dirección del viento	3.22
51679	7	Sololá	701	Sololá	3	Barraneche	9	Septiembre	2023-09-27T00:00:00	2024-11-06T03:00:00	1	Precipitación	0
51680	7	Sololá	701	Sololá	3	Barraneche	9	Septiembre	2023-09-27T00:00:00	2024-11-06T03:00:00	8	Radiación solar	0
51681	7	Sololá	701	Sololá	3	Barraneche	9	Septiembre	2023-09-27T00:00:00	2024-11-06T04:00:00	2	Temperatura media	12.1
51682	7	Sololá	701	Sololá	3	Barraneche	9	Septiembre	2023-09-27T00:00:00	2024-11-06T04:00:00	4	Temperatura máxima	12.4
51683	7	Sololá	701	Sololá	3	Barraneche	9	Septiembre	2023-09-27T00:00:00	2024-11-06T04:00:00	3	Temperatura mínima	11.8
51684	7	Sololá	701	Sololá	3	Barraneche	9	Septiembre	2023-09-27T00:00:00	2024-11-06T04:00:00	5	Humedad	81
51685	7	Sololá	701	Sololá	3	Barraneche	9	Septiembre	2023-09-27T00:00:00	2024-11-06T04:00:00	6	Velocidad del viento	3.2
51686	7	Sololá	701	Sololá	3	Barraneche	9	Septiembre	2023-09-27T00:00:00	2024-11-06T04:00:00	7	Dirección del viento	3.22
51687	7	Sololá	701	Sololá	3	Barraneche	9	Septiembre	2023-09-27T00:00:00	2024-11-06T04:00:00	1	Precipitación	0
51688	7	Sololá	701	Sololá	3	Barraneche	9	Septiembre	2023-09-27T00:00:00	2024-11-06T04:00:00	8	Radiación solar	0
51689	7	Sololá	701	Sololá	3	Barraneche	9	Septiembre	2023-09-27T00:00:00	2024-11-06T05:00:00	2	Temperatura media	11.6
51690	7	Sololá	701	Sololá	3	Barraneche	9	Septiembre	2023-09-27T00:00:00	2024-11-06T05:00:00	4	Temperatura máxima	12.1
51691	7	Sololá	701	Sololá	3	Barraneche	9	Septiembre	2023-09-27T00:00:00	2024-11-06T05:00:00	3	Temperatura mínima	11.3
51692	7	Sololá	701	Sololá	3	Barraneche	9	Septiembre	2023-09-27T00:00:00	2024-11-06T05:00:00	5	Humedad	80
51693	7	Sololá	701	Sololá	3	Barraneche	9	Septiembre	2023-09-27T00:00:00	2024-11-06T05:00:00	6	Velocidad del viento	4.8
51694	7	Sololá	701	Sololá	3	Barraneche	9	Septiembre	2023-09-27T00:00:00	2024-11-06T05:00:00	7	Dirección del viento	4.83
51695	7	Sololá	701	Sololá	3	Barraneche	9	Septiembre	2023-09-27T00:00:00	2024-11-06T05:00:00	1	Precipitación	0
51696	7	Sololá	701	Sololá	3	Barraneche	9	Septiembre	2023-09-27T00:00:00	2024-11-06T05:00:00	8	Radiación solar	0
51697	7	Sololá	701	Sololá	3	Barraneche	9	Septiembre	2023-09-27T00:00:00	2024-11-06T06:00:00	2	Temperatura media	11.3
51698	7	Sololá	701	Sololá	3	Barraneche	9	Septiembre	2023-09-27T00:00:00	2024-11-06T06:00:00	4	Temperatura máxima	11.7
51699	7	Sololá	701	Sololá	3	Barraneche	9	Septiembre	2023-09-27T00:00:00	2024-11-06T06:00:00	3	Temperatura mínima	11.3
51700	7	Sololá	701	Sololá	3	Barraneche	9	Septiembre	2023-09-27T00:00:00	2024-11-06T06:00:00	5	Humedad	77
51701	7	Sololá	701	Sololá	3	Barraneche	9	Septiembre	2023-09-27T00:00:00	2024-11-06T06:00:00	6	Velocidad del viento	6.4
51702	7	Sololá	701	Sololá	3	Barraneche	9	Septiembre	2023-09-27T00:00:00	2024-11-06T06:00:00	7	Dirección del viento	6.44
51703	7	Sololá	701	Sololá	3	Barraneche	9	Septiembre	2023-09-27T00:00:00	2024-11-06T06:00:00	1	Precipitación	0
51704	7	Sololá	701	Sololá	3	Barraneche	9	Septiembre	2023-09-27T00:00:00	2024-11-06T06:00:00	8	Radiación solar	1
51705	7	Sololá	701	Sololá	3	Barraneche	9	Septiembre	2023-09-27T00:00:00	2024-11-06T07:00:00	2	Temperatura media	12.6
51706	7	Sololá	701	Sololá	3	Barraneche	9	Septiembre	2023-09-27T00:00:00	2024-11-06T07:00:00	4	Temperatura máxima	12.6
51707	7	Sololá	701	Sololá	3	Barraneche	9	Septiembre	2023-09-27T00:00:00	2024-11-06T07:00:00	3	Temperatura mínima	11.3
51708	7	Sololá	701	Sololá	3	Barraneche	9	Septiembre	2023-09-27T00:00:00	2024-11-06T07:00:00	5	Humedad	75
51709	7	Sololá	701	Sololá	3	Barraneche	9	Septiembre	2023-09-27T00:00:00	2024-11-06T07:00:00	6	Velocidad del viento	4.8
51710	7	Sololá	701	Sololá	3	Barraneche	9	Septiembre	2023-09-27T00:00:00	2024-11-06T07:00:00	7	Dirección del viento	4.83
51711	7	Sololá	701	Sololá	3	Barraneche	9	Septiembre	2023-09-27T00:00:00	2024-11-06T07:00:00	1	Precipitación	0
51712	7	Sololá	701	Sololá	3	Barraneche	9	Septiembre	2023-09-27T00:00:00	2024-11-06T07:00:00	8	Radiación solar	50
51713	7	Sololá	701	Sololá	3	Barraneche	9	Septiembre	2023-09-27T00:00:00	2024-11-06T08:00:00	2	Temperatura media	16.1
51714	7	Sololá	701	Sololá	3	Barraneche	9	Septiembre	2023-09-27T00:00:00	2024-11-06T08:00:00	4	Temperatura máxima	16.1
51715	7	Sololá	701	Sololá	3	Barraneche	9	Septiembre	2023-09-27T00:00:00	2024-11-06T08:00:00	3	Temperatura mínima	12.6
51716	7	Sololá	701	Sololá	3	Barraneche	9	Septiembre	2023-09-27T00:00:00	2024-11-06T08:00:00	5	Humedad	67
51717	7	Sololá	701	Sololá	3	Barraneche	9	Septiembre	2023-09-27T00:00:00	2024-11-06T08:00:00	6	Velocidad del viento	3.2
51718	7	Sololá	701	Sololá	3	Barraneche	9	Septiembre	2023-09-27T00:00:00	2024-11-06T08:00:00	7	Dirección del viento	3.22
51719	7	Sololá	701	Sololá	3	Barraneche	9	Septiembre	2023-09-27T00:00:00	2024-11-06T08:00:00	1	Precipitación	0
51720	7	Sololá	701	Sololá	3	Barraneche	9	Septiembre	2023-09-27T00:00:00	2024-11-06T08:00:00	8	Radiación solar	312
51721	7	Sololá	701	Sololá	3	Barraneche	9	Septiembre	2023-09-27T00:00:00	2024-11-06T09:00:00	2	Temperatura media	18.3
51722	7	Sololá	701	Sololá	3	Barraneche	9	Septiembre	2023-09-27T00:00:00	2024-11-06T09:00:00	4	Temperatura máxima	18.3
51723	7	Sololá	701	Sololá	3	Barraneche	9	Septiembre	2023-09-27T00:00:00	2024-11-06T09:00:00	3	Temperatura mínima	16.1
51724	7	Sololá	701	Sololá	3	Barraneche	9	Septiembre	2023-09-27T00:00:00	2024-11-06T09:00:00	5	Humedad	62
51725	7	Sololá	701	Sololá	3	Barraneche	9	Septiembre	2023-09-27T00:00:00	2024-11-06T09:00:00	6	Velocidad del viento	3.2
51726	7	Sololá	701	Sololá	3	Barraneche	9	Septiembre	2023-09-27T00:00:00	2024-11-06T09:00:00	7	Dirección del viento	3.22
51727	7	Sololá	701	Sololá	3	Barraneche	9	Septiembre	2023-09-27T00:00:00	2024-11-06T09:00:00	1	Precipitación	0
51728	7	Sololá	701	Sololá	3	Barraneche	9	Septiembre	2023-09-27T00:00:00	2024-11-06T09:00:00	8	Radiación solar	569
51729	7	Sololá	701	Sololá	3	Barraneche	9	Septiembre	2023-09-27T00:00:00	2024-11-06T10:00:00	2	Temperatura media	18.6
51730	7	Sololá	701	Sololá	3	Barraneche	9	Septiembre	2023-09-27T00:00:00	2024-11-06T10:00:00	4	Temperatura máxima	18.9
51731	7	Sololá	701	Sololá	3	Barraneche	9	Septiembre	2023-09-27T00:00:00	2024-11-06T10:00:00	3	Temperatura mínima	18.2
51732	7	Sololá	701	Sololá	3	Barraneche	9	Septiembre	2023-09-27T00:00:00	2024-11-06T10:00:00	5	Humedad	68
51733	7	Sololá	701	Sololá	3	Barraneche	9	Septiembre	2023-09-27T00:00:00	2024-11-06T10:00:00	6	Velocidad del viento	8
51734	7	Sololá	701	Sololá	3	Barraneche	9	Septiembre	2023-09-27T00:00:00	2024-11-06T10:00:00	7	Dirección del viento	8.05
51735	7	Sololá	701	Sololá	3	Barraneche	9	Septiembre	2023-09-27T00:00:00	2024-11-06T10:00:00	1	Precipitación	0
51736	7	Sololá	701	Sololá	3	Barraneche	9	Septiembre	2023-09-27T00:00:00	2024-11-06T10:00:00	8	Radiación solar	686
51737	7	Sololá	701	Sololá	3	Barraneche	9	Septiembre	2023-09-27T00:00:00	2024-11-06T11:00:00	2	Temperatura media	19.4
51738	7	Sololá	701	Sololá	3	Barraneche	9	Septiembre	2023-09-27T00:00:00	2024-11-06T11:00:00	4	Temperatura máxima	19.4
51739	7	Sololá	701	Sololá	3	Barraneche	9	Septiembre	2023-09-27T00:00:00	2024-11-06T11:00:00	3	Temperatura mínima	18.6
51740	7	Sololá	701	Sololá	3	Barraneche	9	Septiembre	2023-09-27T00:00:00	2024-11-06T11:00:00	5	Humedad	65
51741	7	Sololá	701	Sololá	3	Barraneche	9	Septiembre	2023-09-27T00:00:00	2024-11-06T11:00:00	6	Velocidad del viento	9.7
51742	7	Sololá	701	Sololá	3	Barraneche	9	Septiembre	2023-09-27T00:00:00	2024-11-06T11:00:00	7	Dirección del viento	9.66
51743	7	Sololá	701	Sololá	3	Barraneche	9	Septiembre	2023-09-27T00:00:00	2024-11-06T11:00:00	1	Precipitación	0
51744	7	Sololá	701	Sololá	3	Barraneche	9	Septiembre	2023-09-27T00:00:00	2024-11-06T11:00:00	8	Radiación solar	945
51745	7	Sololá	701	Sololá	3	Barraneche	9	Septiembre	2023-09-27T00:00:00	2024-11-06T12:00:00	2	Temperatura media	18.9
51746	7	Sololá	701	Sololá	3	Barraneche	9	Septiembre	2023-09-27T00:00:00	2024-11-06T12:00:00	4	Temperatura máxima	20.2
51747	7	Sololá	701	Sololá	3	Barraneche	9	Septiembre	2023-09-27T00:00:00	2024-11-06T12:00:00	3	Temperatura mínima	18.9
51748	7	Sololá	701	Sololá	3	Barraneche	9	Septiembre	2023-09-27T00:00:00	2024-11-06T12:00:00	5	Humedad	65
51749	7	Sololá	701	Sololá	3	Barraneche	9	Septiembre	2023-09-27T00:00:00	2024-11-06T12:00:00	6	Velocidad del viento	9.7
51750	7	Sololá	701	Sololá	3	Barraneche	9	Septiembre	2023-09-27T00:00:00	2024-11-06T12:00:00	7	Dirección del viento	9.66
51751	7	Sololá	701	Sololá	3	Barraneche	9	Septiembre	2023-09-27T00:00:00	2024-11-06T12:00:00	1	Precipitación	0
51752	7	Sololá	701	Sololá	3	Barraneche	9	Septiembre	2023-09-27T00:00:00	2024-11-06T12:00:00	8	Radiación solar	688
51753	7	Sololá	701	Sololá	3	Barraneche	9	Septiembre	2023-09-27T00:00:00	2024-11-06T13:00:00	2	Temperatura media	20.1
51754	7	Sololá	701	Sololá	3	Barraneche	9	Septiembre	2023-09-27T00:00:00	2024-11-06T13:00:00	4	Temperatura máxima	20.1
51755	7	Sololá	701	Sololá	3	Barraneche	9	Septiembre	2023-09-27T00:00:00	2024-11-06T13:00:00	3	Temperatura mínima	18.9
51756	7	Sololá	701	Sololá	3	Barraneche	9	Septiembre	2023-09-27T00:00:00	2024-11-06T13:00:00	5	Humedad	64
51757	7	Sololá	701	Sololá	3	Barraneche	9	Septiembre	2023-09-27T00:00:00	2024-11-06T13:00:00	6	Velocidad del viento	9.7
51758	7	Sololá	701	Sololá	3	Barraneche	9	Septiembre	2023-09-27T00:00:00	2024-11-06T13:00:00	7	Dirección del viento	9.66
51759	7	Sololá	701	Sololá	3	Barraneche	9	Septiembre	2023-09-27T00:00:00	2024-11-06T13:00:00	1	Precipitación	0
51760	7	Sololá	701	Sololá	3	Barraneche	9	Septiembre	2023-09-27T00:00:00	2024-11-06T13:00:00	8	Radiación solar	839
51761	7	Sololá	701	Sololá	3	Barraneche	9	Septiembre	2023-09-27T00:00:00	2024-11-06T14:00:00	2	Temperatura media	18.2
51762	7	Sololá	701	Sololá	3	Barraneche	9	Septiembre	2023-09-27T00:00:00	2024-11-06T14:00:00	4	Temperatura máxima	20
51763	7	Sololá	701	Sololá	3	Barraneche	9	Septiembre	2023-09-27T00:00:00	2024-11-06T14:00:00	3	Temperatura mínima	18.2
51764	7	Sololá	701	Sololá	3	Barraneche	9	Septiembre	2023-09-27T00:00:00	2024-11-06T14:00:00	5	Humedad	71
51765	7	Sololá	701	Sololá	3	Barraneche	9	Septiembre	2023-09-27T00:00:00	2024-11-06T14:00:00	6	Velocidad del viento	11.3
51766	7	Sololá	701	Sololá	3	Barraneche	9	Septiembre	2023-09-27T00:00:00	2024-11-06T14:00:00	7	Dirección del viento	11.27
51767	7	Sololá	701	Sololá	3	Barraneche	9	Septiembre	2023-09-27T00:00:00	2024-11-06T14:00:00	1	Precipitación	0
51768	7	Sololá	701	Sololá	3	Barraneche	9	Septiembre	2023-09-27T00:00:00	2024-11-06T14:00:00	8	Radiación solar	280
51769	7	Sololá	701	Sololá	3	Barraneche	9	Septiembre	2023-09-27T00:00:00	2024-11-06T15:00:00	2	Temperatura media	15.1
51770	7	Sololá	701	Sololá	3	Barraneche	9	Septiembre	2023-09-27T00:00:00	2024-11-06T15:00:00	4	Temperatura máxima	18.3
51771	7	Sololá	701	Sololá	3	Barraneche	9	Septiembre	2023-09-27T00:00:00	2024-11-06T15:00:00	3	Temperatura mínima	15.1
51772	7	Sololá	701	Sololá	3	Barraneche	9	Septiembre	2023-09-27T00:00:00	2024-11-06T15:00:00	5	Humedad	80
51773	7	Sololá	701	Sololá	3	Barraneche	9	Septiembre	2023-09-27T00:00:00	2024-11-06T15:00:00	6	Velocidad del viento	11.3
51774	7	Sololá	701	Sololá	3	Barraneche	9	Septiembre	2023-09-27T00:00:00	2024-11-06T15:00:00	7	Dirección del viento	11.27
51775	7	Sololá	701	Sololá	3	Barraneche	9	Septiembre	2023-09-27T00:00:00	2024-11-06T15:00:00	1	Precipitación	11.8
51776	7	Sololá	701	Sololá	3	Barraneche	9	Septiembre	2023-09-27T00:00:00	2024-11-06T15:00:00	8	Radiación solar	62
51777	7	Sololá	701	Sololá	3	Barraneche	9	Septiembre	2023-09-27T00:00:00	2024-11-06T16:00:00	2	Temperatura media	14.9
51778	7	Sololá	701	Sololá	3	Barraneche	9	Septiembre	2023-09-27T00:00:00	2024-11-06T16:00:00	4	Temperatura máxima	15.1
51779	7	Sololá	701	Sololá	3	Barraneche	9	Septiembre	2023-09-27T00:00:00	2024-11-06T16:00:00	3	Temperatura mínima	14.7
51780	7	Sololá	701	Sololá	3	Barraneche	9	Septiembre	2023-09-27T00:00:00	2024-11-06T16:00:00	5	Humedad	85
51781	7	Sololá	701	Sololá	3	Barraneche	9	Septiembre	2023-09-27T00:00:00	2024-11-06T16:00:00	6	Velocidad del viento	3.2
51782	7	Sololá	701	Sololá	3	Barraneche	9	Septiembre	2023-09-27T00:00:00	2024-11-06T16:00:00	7	Dirección del viento	3.22
51783	7	Sololá	701	Sololá	3	Barraneche	9	Septiembre	2023-09-27T00:00:00	2024-11-06T16:00:00	1	Precipitación	5.4
51784	7	Sololá	701	Sololá	3	Barraneche	9	Septiembre	2023-09-27T00:00:00	2024-11-06T16:00:00	8	Radiación solar	12
51785	7	Sololá	701	Sololá	3	Barraneche	9	Septiembre	2023-09-27T00:00:00	2024-11-06T17:00:00	2	Temperatura media	14.6
51786	7	Sololá	701	Sololá	3	Barraneche	9	Septiembre	2023-09-27T00:00:00	2024-11-06T17:00:00	4	Temperatura máxima	15
51787	7	Sololá	701	Sololá	3	Barraneche	9	Septiembre	2023-09-27T00:00:00	2024-11-06T17:00:00	3	Temperatura mínima	14.6
51788	7	Sololá	701	Sololá	3	Barraneche	9	Septiembre	2023-09-27T00:00:00	2024-11-06T17:00:00	5	Humedad	84
51789	7	Sololá	701	Sololá	3	Barraneche	9	Septiembre	2023-09-27T00:00:00	2024-11-06T17:00:00	6	Velocidad del viento	1.6
51790	7	Sololá	701	Sololá	3	Barraneche	9	Septiembre	2023-09-27T00:00:00	2024-11-06T17:00:00	7	Dirección del viento	1.61
51791	7	Sololá	701	Sololá	3	Barraneche	9	Septiembre	2023-09-27T00:00:00	2024-11-06T17:00:00	1	Precipitación	1.2
51792	7	Sololá	701	Sololá	3	Barraneche	9	Septiembre	2023-09-27T00:00:00	2024-11-06T17:00:00	8	Radiación solar	22
51793	7	Sololá	701	Sololá	3	Barraneche	9	Septiembre	2023-09-27T00:00:00	2024-11-06T18:00:00	2	Temperatura media	14.6
51794	7	Sololá	701	Sololá	3	Barraneche	9	Septiembre	2023-09-27T00:00:00	2024-11-06T18:00:00	4	Temperatura máxima	14.7
51795	7	Sololá	701	Sololá	3	Barraneche	9	Septiembre	2023-09-27T00:00:00	2024-11-06T18:00:00	3	Temperatura mínima	14.4
51796	7	Sololá	701	Sololá	3	Barraneche	9	Septiembre	2023-09-27T00:00:00	2024-11-06T18:00:00	5	Humedad	84
51797	7	Sololá	701	Sololá	3	Barraneche	9	Septiembre	2023-09-27T00:00:00	2024-11-06T18:00:00	6	Velocidad del viento	3.2
51798	7	Sololá	701	Sololá	3	Barraneche	9	Septiembre	2023-09-27T00:00:00	2024-11-06T18:00:00	7	Dirección del viento	3.22
51799	7	Sololá	701	Sololá	3	Barraneche	9	Septiembre	2023-09-27T00:00:00	2024-11-06T18:00:00	1	Precipitación	0.2
51800	7	Sololá	701	Sololá	3	Barraneche	9	Septiembre	2023-09-27T00:00:00	2024-11-06T18:00:00	8	Radiación solar	10
51801	7	Sololá	701	Sololá	3	Barraneche	9	Septiembre	2023-09-27T00:00:00	2024-11-06T19:00:00	2	Temperatura media	14.7
51802	7	Sololá	701	Sololá	3	Barraneche	9	Septiembre	2023-09-27T00:00:00	2024-11-06T19:00:00	4	Temperatura máxima	14.8
51803	7	Sololá	701	Sololá	3	Barraneche	9	Septiembre	2023-09-27T00:00:00	2024-11-06T19:00:00	3	Temperatura mínima	14.4
51804	7	Sololá	701	Sololá	3	Barraneche	9	Septiembre	2023-09-27T00:00:00	2024-11-06T19:00:00	5	Humedad	79
51805	7	Sololá	701	Sololá	3	Barraneche	9	Septiembre	2023-09-27T00:00:00	2024-11-06T19:00:00	6	Velocidad del viento	3.2
51806	7	Sololá	701	Sololá	3	Barraneche	9	Septiembre	2023-09-27T00:00:00	2024-11-06T19:00:00	7	Dirección del viento	3.22
51807	7	Sololá	701	Sololá	3	Barraneche	9	Septiembre	2023-09-27T00:00:00	2024-11-06T19:00:00	1	Precipitación	0
51808	7	Sololá	701	Sololá	3	Barraneche	9	Septiembre	2023-09-27T00:00:00	2024-11-06T19:00:00	8	Radiación solar	0
51809	7	Sololá	701	Sololá	3	Barraneche	9	Septiembre	2023-09-27T00:00:00	2024-11-06T20:00:00	2	Temperatura media	14.3
51810	7	Sololá	701	Sololá	3	Barraneche	9	Septiembre	2023-09-27T00:00:00	2024-11-06T20:00:00	4	Temperatura máxima	14.7
51811	7	Sololá	701	Sololá	3	Barraneche	9	Septiembre	2023-09-27T00:00:00	2024-11-06T20:00:00	3	Temperatura mínima	14.3
51812	7	Sololá	701	Sololá	3	Barraneche	9	Septiembre	2023-09-27T00:00:00	2024-11-06T20:00:00	5	Humedad	85
51813	7	Sololá	701	Sololá	3	Barraneche	9	Septiembre	2023-09-27T00:00:00	2024-11-06T20:00:00	6	Velocidad del viento	1.6
51814	7	Sololá	701	Sololá	3	Barraneche	9	Septiembre	2023-09-27T00:00:00	2024-11-06T20:00:00	7	Dirección del viento	1.61
51815	7	Sololá	701	Sololá	3	Barraneche	9	Septiembre	2023-09-27T00:00:00	2024-11-06T20:00:00	1	Precipitación	0.8
51816	7	Sololá	701	Sololá	3	Barraneche	9	Septiembre	2023-09-27T00:00:00	2024-11-06T20:00:00	8	Radiación solar	0
51817	7	Sololá	701	Sololá	3	Barraneche	9	Septiembre	2023-09-27T00:00:00	2024-11-06T21:00:00	2	Temperatura media	14.5
51818	7	Sololá	701	Sololá	3	Barraneche	9	Septiembre	2023-09-27T00:00:00	2024-11-06T21:00:00	4	Temperatura máxima	14.5
51819	7	Sololá	701	Sololá	3	Barraneche	9	Septiembre	2023-09-27T00:00:00	2024-11-06T21:00:00	3	Temperatura mínima	13.9
51820	7	Sololá	701	Sololá	3	Barraneche	9	Septiembre	2023-09-27T00:00:00	2024-11-06T21:00:00	5	Humedad	73
51821	7	Sololá	701	Sololá	3	Barraneche	9	Septiembre	2023-09-27T00:00:00	2024-11-06T21:00:00	6	Velocidad del viento	4.8
51822	7	Sololá	701	Sololá	3	Barraneche	9	Septiembre	2023-09-27T00:00:00	2024-11-06T21:00:00	7	Dirección del viento	4.83
51823	7	Sololá	701	Sololá	3	Barraneche	9	Septiembre	2023-09-27T00:00:00	2024-11-06T21:00:00	1	Precipitación	0.4
51824	7	Sololá	701	Sololá	3	Barraneche	9	Septiembre	2023-09-27T00:00:00	2024-11-06T21:00:00	8	Radiación solar	0
51825	7	Sololá	701	Sololá	3	Barraneche	9	Septiembre	2023-09-27T00:00:00	2024-11-06T22:00:00	2	Temperatura media	13.8
51826	7	Sololá	701	Sololá	3	Barraneche	9	Septiembre	2023-09-27T00:00:00	2024-11-06T22:00:00	4	Temperatura máxima	14.6
51827	7	Sololá	701	Sololá	3	Barraneche	9	Septiembre	2023-09-27T00:00:00	2024-11-06T22:00:00	3	Temperatura mínima	13.7
51828	7	Sololá	701	Sololá	3	Barraneche	9	Septiembre	2023-09-27T00:00:00	2024-11-06T22:00:00	5	Humedad	77
51829	7	Sololá	701	Sololá	3	Barraneche	9	Septiembre	2023-09-27T00:00:00	2024-11-06T22:00:00	6	Velocidad del viento	3.2
51830	7	Sololá	701	Sololá	3	Barraneche	9	Septiembre	2023-09-27T00:00:00	2024-11-06T22:00:00	7	Dirección del viento	3.22
51831	7	Sololá	701	Sololá	3	Barraneche	9	Septiembre	2023-09-27T00:00:00	2024-11-06T22:00:00	1	Precipitación	0
51832	7	Sololá	701	Sololá	3	Barraneche	9	Septiembre	2023-09-27T00:00:00	2024-11-06T22:00:00	8	Radiación solar	0
51833	7	Sololá	701	Sololá	3	Barraneche	9	Septiembre	2023-09-27T00:00:00	2024-11-06T23:00:00	2	Temperatura media	13.5
51834	7	Sololá	701	Sololá	3	Barraneche	9	Septiembre	2023-09-27T00:00:00	2024-11-06T23:00:00	4	Temperatura máxima	14
51835	7	Sololá	701	Sololá	3	Barraneche	9	Septiembre	2023-09-27T00:00:00	2024-11-06T23:00:00	3	Temperatura mínima	13.5
51836	7	Sololá	701	Sololá	3	Barraneche	9	Septiembre	2023-09-27T00:00:00	2024-11-06T23:00:00	5	Humedad	83
51837	7	Sololá	701	Sololá	3	Barraneche	9	Septiembre	2023-09-27T00:00:00	2024-11-06T23:00:00	6	Velocidad del viento	3.2
51838	7	Sololá	701	Sololá	3	Barraneche	9	Septiembre	2023-09-27T00:00:00	2024-11-06T23:00:00	7	Dirección del viento	3.22
51839	7	Sololá	701	Sololá	3	Barraneche	9	Septiembre	2023-09-27T00:00:00	2024-11-06T23:00:00	1	Precipitación	0
51840	7	Sololá	701	Sololá	3	Barraneche	9	Septiembre	2023-09-27T00:00:00	2024-11-06T23:00:00	8	Radiación solar	0
51841	7	Sololá	701	Sololá	3	Barraneche	9	Septiembre	2023-09-28T00:00:00	2024-11-06T00:00:00	2	Temperatura media	13.3
51842	7	Sololá	701	Sololá	3	Barraneche	9	Septiembre	2023-09-28T00:00:00	2024-11-06T00:00:00	4	Temperatura máxima	13.5
51843	7	Sololá	701	Sololá	3	Barraneche	9	Septiembre	2023-09-28T00:00:00	2024-11-06T00:00:00	3	Temperatura mínima	13.2
51844	7	Sololá	701	Sololá	3	Barraneche	9	Septiembre	2023-09-28T00:00:00	2024-11-06T00:00:00	5	Humedad	84
51845	7	Sololá	701	Sololá	3	Barraneche	9	Septiembre	2023-09-28T00:00:00	2024-11-06T00:00:00	6	Velocidad del viento	1.6
51846	7	Sololá	701	Sololá	3	Barraneche	9	Septiembre	2023-09-28T00:00:00	2024-11-06T00:00:00	7	Dirección del viento	1.61
51847	7	Sololá	701	Sololá	3	Barraneche	9	Septiembre	2023-09-28T00:00:00	2024-11-06T00:00:00	1	Precipitación	0.2
51848	7	Sololá	701	Sololá	3	Barraneche	9	Septiembre	2023-09-28T00:00:00	2024-11-06T00:00:00	8	Radiación solar	0
51849	7	Sololá	701	Sololá	3	Barraneche	9	Septiembre	2023-09-28T00:00:00	2024-11-06T01:00:00	2	Temperatura media	14.4
51850	7	Sololá	701	Sololá	3	Barraneche	9	Septiembre	2023-09-28T00:00:00	2024-11-06T01:00:00	4	Temperatura máxima	14.6
51851	7	Sololá	701	Sololá	3	Barraneche	9	Septiembre	2023-09-28T00:00:00	2024-11-06T01:00:00	3	Temperatura mínima	13.2
51852	7	Sololá	701	Sololá	3	Barraneche	9	Septiembre	2023-09-28T00:00:00	2024-11-06T01:00:00	5	Humedad	73
51853	7	Sololá	701	Sololá	3	Barraneche	9	Septiembre	2023-09-28T00:00:00	2024-11-06T01:00:00	6	Velocidad del viento	4.8
51854	7	Sololá	701	Sololá	3	Barraneche	9	Septiembre	2023-09-28T00:00:00	2024-11-06T01:00:00	7	Dirección del viento	4.83
51855	7	Sololá	701	Sololá	3	Barraneche	9	Septiembre	2023-09-28T00:00:00	2024-11-06T01:00:00	1	Precipitación	0
51856	7	Sololá	701	Sololá	3	Barraneche	9	Septiembre	2023-09-28T00:00:00	2024-11-06T01:00:00	8	Radiación solar	0
51857	7	Sololá	701	Sololá	3	Barraneche	9	Septiembre	2023-09-28T00:00:00	2024-11-06T02:00:00	2	Temperatura media	13.1
51858	7	Sololá	701	Sololá	3	Barraneche	9	Septiembre	2023-09-28T00:00:00	2024-11-06T02:00:00	4	Temperatura máxima	14.4
51859	7	Sololá	701	Sololá	3	Barraneche	9	Septiembre	2023-09-28T00:00:00	2024-11-06T02:00:00	3	Temperatura mínima	13
51860	7	Sololá	701	Sololá	3	Barraneche	9	Septiembre	2023-09-28T00:00:00	2024-11-06T02:00:00	5	Humedad	77
51861	7	Sololá	701	Sololá	3	Barraneche	9	Septiembre	2023-09-28T00:00:00	2024-11-06T02:00:00	6	Velocidad del viento	3.2
51862	7	Sololá	701	Sololá	3	Barraneche	9	Septiembre	2023-09-28T00:00:00	2024-11-06T02:00:00	7	Dirección del viento	3.22
51863	7	Sololá	701	Sololá	3	Barraneche	9	Septiembre	2023-09-28T00:00:00	2024-11-06T02:00:00	1	Precipitación	0
51864	7	Sololá	701	Sololá	3	Barraneche	9	Septiembre	2023-09-28T00:00:00	2024-11-06T02:00:00	8	Radiación solar	0
51865	7	Sololá	701	Sololá	3	Barraneche	9	Septiembre	2023-09-28T00:00:00	2024-11-06T03:00:00	2	Temperatura media	13
51866	7	Sololá	701	Sololá	3	Barraneche	9	Septiembre	2023-09-28T00:00:00	2024-11-06T03:00:00	4	Temperatura máxima	13.1
51867	7	Sololá	701	Sololá	3	Barraneche	9	Septiembre	2023-09-28T00:00:00	2024-11-06T03:00:00	3	Temperatura mínima	12.8
51868	7	Sololá	701	Sololá	3	Barraneche	9	Septiembre	2023-09-28T00:00:00	2024-11-06T03:00:00	5	Humedad	79
51869	7	Sololá	701	Sololá	3	Barraneche	9	Septiembre	2023-09-28T00:00:00	2024-11-06T03:00:00	6	Velocidad del viento	3.2
51870	7	Sololá	701	Sololá	3	Barraneche	9	Septiembre	2023-09-28T00:00:00	2024-11-06T03:00:00	7	Dirección del viento	3.22
51871	7	Sololá	701	Sololá	3	Barraneche	9	Septiembre	2023-09-28T00:00:00	2024-11-06T03:00:00	1	Precipitación	0
51872	7	Sololá	701	Sololá	3	Barraneche	9	Septiembre	2023-09-28T00:00:00	2024-11-06T03:00:00	8	Radiación solar	0
51873	7	Sololá	701	Sololá	3	Barraneche	9	Septiembre	2023-09-28T00:00:00	2024-11-06T04:00:00	2	Temperatura media	12.8
51874	7	Sololá	701	Sololá	3	Barraneche	9	Septiembre	2023-09-28T00:00:00	2024-11-06T04:00:00	4	Temperatura máxima	13
51875	7	Sololá	701	Sololá	3	Barraneche	9	Septiembre	2023-09-28T00:00:00	2024-11-06T04:00:00	3	Temperatura mínima	12.8
51876	7	Sololá	701	Sololá	3	Barraneche	9	Septiembre	2023-09-28T00:00:00	2024-11-06T04:00:00	5	Humedad	82
51877	7	Sololá	701	Sololá	3	Barraneche	9	Septiembre	2023-09-28T00:00:00	2024-11-06T04:00:00	6	Velocidad del viento	1.6
51878	7	Sololá	701	Sololá	3	Barraneche	9	Septiembre	2023-09-28T00:00:00	2024-11-06T04:00:00	7	Dirección del viento	1.61
51879	7	Sololá	701	Sololá	3	Barraneche	9	Septiembre	2023-09-28T00:00:00	2024-11-06T04:00:00	1	Precipitación	0
51880	7	Sololá	701	Sololá	3	Barraneche	9	Septiembre	2023-09-28T00:00:00	2024-11-06T04:00:00	8	Radiación solar	0
51881	7	Sololá	701	Sololá	3	Barraneche	9	Septiembre	2023-09-28T00:00:00	2024-11-06T05:00:00	2	Temperatura media	12.2
51882	7	Sololá	701	Sololá	3	Barraneche	9	Septiembre	2023-09-28T00:00:00	2024-11-06T05:00:00	4	Temperatura máxima	12.8
51883	7	Sololá	701	Sololá	3	Barraneche	9	Septiembre	2023-09-28T00:00:00	2024-11-06T05:00:00	3	Temperatura mínima	12.2
51884	7	Sololá	701	Sololá	3	Barraneche	9	Septiembre	2023-09-28T00:00:00	2024-11-06T05:00:00	5	Humedad	81
51885	7	Sololá	701	Sololá	3	Barraneche	9	Septiembre	2023-09-28T00:00:00	2024-11-06T05:00:00	6	Velocidad del viento	3.2
51886	7	Sololá	701	Sololá	3	Barraneche	9	Septiembre	2023-09-28T00:00:00	2024-11-06T05:00:00	7	Dirección del viento	3.22
51887	7	Sololá	701	Sololá	3	Barraneche	9	Septiembre	2023-09-28T00:00:00	2024-11-06T05:00:00	1	Precipitación	0
51888	7	Sololá	701	Sololá	3	Barraneche	9	Septiembre	2023-09-28T00:00:00	2024-11-06T05:00:00	8	Radiación solar	0
51889	7	Sololá	701	Sololá	3	Barraneche	9	Septiembre	2023-09-28T00:00:00	2024-11-06T06:00:00	2	Temperatura media	11.9
51890	7	Sololá	701	Sololá	3	Barraneche	9	Septiembre	2023-09-28T00:00:00	2024-11-06T06:00:00	4	Temperatura máxima	12.2
51891	7	Sololá	701	Sololá	3	Barraneche	9	Septiembre	2023-09-28T00:00:00	2024-11-06T06:00:00	3	Temperatura mínima	11.9
51892	7	Sololá	701	Sololá	3	Barraneche	9	Septiembre	2023-09-28T00:00:00	2024-11-06T06:00:00	5	Humedad	78
51893	7	Sololá	701	Sololá	3	Barraneche	9	Septiembre	2023-09-28T00:00:00	2024-11-06T06:00:00	6	Velocidad del viento	4.8
51894	7	Sololá	701	Sololá	3	Barraneche	9	Septiembre	2023-09-28T00:00:00	2024-11-06T06:00:00	7	Dirección del viento	4.83
51895	7	Sololá	701	Sololá	3	Barraneche	9	Septiembre	2023-09-28T00:00:00	2024-11-06T06:00:00	1	Precipitación	0
51896	7	Sololá	701	Sololá	3	Barraneche	9	Septiembre	2023-09-28T00:00:00	2024-11-06T06:00:00	8	Radiación solar	0
51897	7	Sololá	701	Sololá	3	Barraneche	9	Septiembre	2023-09-28T00:00:00	2024-11-06T07:00:00	2	Temperatura media	13.8
51898	7	Sololá	701	Sololá	3	Barraneche	9	Septiembre	2023-09-28T00:00:00	2024-11-06T07:00:00	4	Temperatura máxima	13.8
51899	7	Sololá	701	Sololá	3	Barraneche	9	Septiembre	2023-09-28T00:00:00	2024-11-06T07:00:00	3	Temperatura mínima	11.9
51900	7	Sololá	701	Sololá	3	Barraneche	9	Septiembre	2023-09-28T00:00:00	2024-11-06T07:00:00	5	Humedad	74
51901	7	Sololá	701	Sololá	3	Barraneche	9	Septiembre	2023-09-28T00:00:00	2024-11-06T07:00:00	6	Velocidad del viento	6.4
51902	7	Sololá	701	Sololá	3	Barraneche	9	Septiembre	2023-09-28T00:00:00	2024-11-06T07:00:00	7	Dirección del viento	6.44
51903	7	Sololá	701	Sololá	3	Barraneche	9	Septiembre	2023-09-28T00:00:00	2024-11-06T07:00:00	1	Precipitación	0
51904	7	Sololá	701	Sololá	3	Barraneche	9	Septiembre	2023-09-28T00:00:00	2024-11-06T07:00:00	8	Radiación solar	64
51905	7	Sololá	701	Sololá	3	Barraneche	9	Septiembre	2023-09-28T00:00:00	2024-11-06T08:00:00	2	Temperatura media	16.7
51906	7	Sololá	701	Sololá	3	Barraneche	9	Septiembre	2023-09-28T00:00:00	2024-11-06T08:00:00	4	Temperatura máxima	16.7
51907	7	Sololá	701	Sololá	3	Barraneche	9	Septiembre	2023-09-28T00:00:00	2024-11-06T08:00:00	3	Temperatura mínima	13.8
51908	7	Sololá	701	Sololá	3	Barraneche	9	Septiembre	2023-09-28T00:00:00	2024-11-06T08:00:00	5	Humedad	71
51909	7	Sololá	701	Sololá	3	Barraneche	9	Septiembre	2023-09-28T00:00:00	2024-11-06T08:00:00	6	Velocidad del viento	3.2
51910	7	Sololá	701	Sololá	3	Barraneche	9	Septiembre	2023-09-28T00:00:00	2024-11-06T08:00:00	7	Dirección del viento	3.22
51911	7	Sololá	701	Sololá	3	Barraneche	9	Septiembre	2023-09-28T00:00:00	2024-11-06T08:00:00	1	Precipitación	0
51912	7	Sololá	701	Sololá	3	Barraneche	9	Septiembre	2023-09-28T00:00:00	2024-11-06T08:00:00	8	Radiación solar	306
51913	7	Sololá	701	Sololá	3	Barraneche	9	Septiembre	2023-09-28T00:00:00	2024-11-06T09:00:00	2	Temperatura media	17.7
51914	7	Sololá	701	Sololá	3	Barraneche	9	Septiembre	2023-09-28T00:00:00	2024-11-06T09:00:00	4	Temperatura máxima	17.8
51915	7	Sololá	701	Sololá	3	Barraneche	9	Septiembre	2023-09-28T00:00:00	2024-11-06T09:00:00	3	Temperatura mínima	16.7
51916	7	Sololá	701	Sololá	3	Barraneche	9	Septiembre	2023-09-28T00:00:00	2024-11-06T09:00:00	5	Humedad	63
51917	7	Sololá	701	Sololá	3	Barraneche	9	Septiembre	2023-09-28T00:00:00	2024-11-06T09:00:00	6	Velocidad del viento	8
51918	7	Sololá	701	Sololá	3	Barraneche	9	Septiembre	2023-09-28T00:00:00	2024-11-06T09:00:00	7	Dirección del viento	8.05
51919	7	Sololá	701	Sololá	3	Barraneche	9	Septiembre	2023-09-28T00:00:00	2024-11-06T09:00:00	1	Precipitación	0
51920	7	Sololá	701	Sololá	3	Barraneche	9	Septiembre	2023-09-28T00:00:00	2024-11-06T09:00:00	8	Radiación solar	470
51921	7	Sololá	701	Sololá	3	Barraneche	9	Septiembre	2023-09-28T00:00:00	2024-11-06T10:00:00	2	Temperatura media	19
51922	7	Sololá	701	Sololá	3	Barraneche	9	Septiembre	2023-09-28T00:00:00	2024-11-06T10:00:00	4	Temperatura máxima	19.1
51923	7	Sololá	701	Sololá	3	Barraneche	9	Septiembre	2023-09-28T00:00:00	2024-11-06T10:00:00	3	Temperatura mínima	17.7
51924	7	Sololá	701	Sololá	3	Barraneche	9	Septiembre	2023-09-28T00:00:00	2024-11-06T10:00:00	5	Humedad	60
51925	7	Sololá	701	Sololá	3	Barraneche	9	Septiembre	2023-09-28T00:00:00	2024-11-06T10:00:00	6	Velocidad del viento	6.4
51926	7	Sololá	701	Sololá	3	Barraneche	9	Septiembre	2023-09-28T00:00:00	2024-11-06T10:00:00	7	Dirección del viento	6.44
51927	7	Sololá	701	Sololá	3	Barraneche	9	Septiembre	2023-09-28T00:00:00	2024-11-06T10:00:00	1	Precipitación	0
51928	7	Sololá	701	Sololá	3	Barraneche	9	Septiembre	2023-09-28T00:00:00	2024-11-06T10:00:00	8	Radiación solar	444
51929	7	Sololá	701	Sololá	3	Barraneche	9	Septiembre	2023-09-28T00:00:00	2024-11-06T11:00:00	2	Temperatura media	19.1
51930	7	Sololá	701	Sololá	3	Barraneche	9	Septiembre	2023-09-28T00:00:00	2024-11-06T11:00:00	4	Temperatura máxima	19.6
51931	7	Sololá	701	Sololá	3	Barraneche	9	Septiembre	2023-09-28T00:00:00	2024-11-06T11:00:00	3	Temperatura mínima	18.8
51932	7	Sololá	701	Sololá	3	Barraneche	9	Septiembre	2023-09-28T00:00:00	2024-11-06T11:00:00	5	Humedad	63
51933	7	Sololá	701	Sololá	3	Barraneche	9	Septiembre	2023-09-28T00:00:00	2024-11-06T11:00:00	6	Velocidad del viento	8
51934	7	Sololá	701	Sololá	3	Barraneche	9	Septiembre	2023-09-28T00:00:00	2024-11-06T11:00:00	7	Dirección del viento	8.05
51935	7	Sololá	701	Sololá	3	Barraneche	9	Septiembre	2023-09-28T00:00:00	2024-11-06T11:00:00	1	Precipitación	0
51936	7	Sololá	701	Sololá	3	Barraneche	9	Septiembre	2023-09-28T00:00:00	2024-11-06T11:00:00	8	Radiación solar	462
51937	7	Sololá	701	Sololá	3	Barraneche	9	Septiembre	2023-09-28T00:00:00	2024-11-06T12:00:00	2	Temperatura media	20.3
51938	7	Sololá	701	Sololá	3	Barraneche	9	Septiembre	2023-09-28T00:00:00	2024-11-06T12:00:00	4	Temperatura máxima	20.8
51939	7	Sololá	701	Sololá	3	Barraneche	9	Septiembre	2023-09-28T00:00:00	2024-11-06T12:00:00	3	Temperatura mínima	18.9
51940	7	Sololá	701	Sololá	3	Barraneche	9	Septiembre	2023-09-28T00:00:00	2024-11-06T12:00:00	5	Humedad	65
51941	7	Sololá	701	Sololá	3	Barraneche	9	Septiembre	2023-09-28T00:00:00	2024-11-06T12:00:00	6	Velocidad del viento	9.7
51942	7	Sololá	701	Sololá	3	Barraneche	9	Septiembre	2023-09-28T00:00:00	2024-11-06T12:00:00	7	Dirección del viento	9.66
51943	7	Sololá	701	Sololá	3	Barraneche	9	Septiembre	2023-09-28T00:00:00	2024-11-06T12:00:00	1	Precipitación	0
51944	7	Sololá	701	Sololá	3	Barraneche	9	Septiembre	2023-09-28T00:00:00	2024-11-06T12:00:00	8	Radiación solar	935
51945	7	Sololá	701	Sololá	3	Barraneche	9	Septiembre	2023-09-28T00:00:00	2024-11-06T13:00:00	2	Temperatura media	21
51946	7	Sololá	701	Sololá	3	Barraneche	9	Septiembre	2023-09-28T00:00:00	2024-11-06T13:00:00	4	Temperatura máxima	21.4
51947	7	Sololá	701	Sololá	3	Barraneche	9	Septiembre	2023-09-28T00:00:00	2024-11-06T13:00:00	3	Temperatura mínima	19.8
51948	7	Sololá	701	Sololá	3	Barraneche	9	Septiembre	2023-09-28T00:00:00	2024-11-06T13:00:00	5	Humedad	56
51949	7	Sololá	701	Sololá	3	Barraneche	9	Septiembre	2023-09-28T00:00:00	2024-11-06T13:00:00	6	Velocidad del viento	12.9
51950	7	Sololá	701	Sololá	3	Barraneche	9	Septiembre	2023-09-28T00:00:00	2024-11-06T13:00:00	7	Dirección del viento	12.87
51951	7	Sololá	701	Sololá	3	Barraneche	9	Septiembre	2023-09-28T00:00:00	2024-11-06T13:00:00	1	Precipitación	0
51952	7	Sololá	701	Sololá	3	Barraneche	9	Septiembre	2023-09-28T00:00:00	2024-11-06T13:00:00	8	Radiación solar	1081
51953	7	Sololá	701	Sololá	3	Barraneche	9	Septiembre	2023-09-28T00:00:00	2024-11-06T14:00:00	2	Temperatura media	19.8
51954	7	Sololá	701	Sololá	3	Barraneche	9	Septiembre	2023-09-28T00:00:00	2024-11-06T14:00:00	4	Temperatura máxima	21.2
51955	7	Sololá	701	Sololá	3	Barraneche	9	Septiembre	2023-09-28T00:00:00	2024-11-06T14:00:00	3	Temperatura mínima	19.2
51956	7	Sololá	701	Sololá	3	Barraneche	9	Septiembre	2023-09-28T00:00:00	2024-11-06T14:00:00	5	Humedad	63
51957	7	Sololá	701	Sololá	3	Barraneche	9	Septiembre	2023-09-28T00:00:00	2024-11-06T14:00:00	6	Velocidad del viento	9.7
51958	7	Sololá	701	Sololá	3	Barraneche	9	Septiembre	2023-09-28T00:00:00	2024-11-06T14:00:00	7	Dirección del viento	9.66
51959	7	Sololá	701	Sololá	3	Barraneche	9	Septiembre	2023-09-28T00:00:00	2024-11-06T14:00:00	1	Precipitación	0
51960	7	Sololá	701	Sololá	3	Barraneche	9	Septiembre	2023-09-28T00:00:00	2024-11-06T14:00:00	8	Radiación solar	710
51961	7	Sololá	701	Sololá	3	Barraneche	9	Septiembre	2023-09-28T00:00:00	2024-11-06T15:00:00	2	Temperatura media	17
51962	7	Sololá	701	Sololá	3	Barraneche	9	Septiembre	2023-09-28T00:00:00	2024-11-06T15:00:00	4	Temperatura máxima	20.1
51963	7	Sololá	701	Sololá	3	Barraneche	9	Septiembre	2023-09-28T00:00:00	2024-11-06T15:00:00	3	Temperatura mínima	17
51964	7	Sololá	701	Sololá	3	Barraneche	9	Septiembre	2023-09-28T00:00:00	2024-11-06T15:00:00	5	Humedad	76
51965	7	Sololá	701	Sololá	3	Barraneche	9	Septiembre	2023-09-28T00:00:00	2024-11-06T15:00:00	6	Velocidad del viento	11.3
51966	7	Sololá	701	Sololá	3	Barraneche	9	Septiembre	2023-09-28T00:00:00	2024-11-06T15:00:00	7	Dirección del viento	11.27
51967	7	Sololá	701	Sololá	3	Barraneche	9	Septiembre	2023-09-28T00:00:00	2024-11-06T15:00:00	1	Precipitación	0
51968	7	Sololá	701	Sololá	3	Barraneche	9	Septiembre	2023-09-28T00:00:00	2024-11-06T15:00:00	8	Radiación solar	184
51969	7	Sololá	701	Sololá	3	Barraneche	9	Septiembre	2023-09-28T00:00:00	2024-11-06T16:00:00	2	Temperatura media	15.1
51970	7	Sololá	701	Sololá	3	Barraneche	9	Septiembre	2023-09-28T00:00:00	2024-11-06T16:00:00	4	Temperatura máxima	17
51971	7	Sololá	701	Sololá	3	Barraneche	9	Septiembre	2023-09-28T00:00:00	2024-11-06T16:00:00	3	Temperatura mínima	15.1
51972	7	Sololá	701	Sololá	3	Barraneche	9	Septiembre	2023-09-28T00:00:00	2024-11-06T16:00:00	5	Humedad	85
51973	7	Sololá	701	Sololá	3	Barraneche	9	Septiembre	2023-09-28T00:00:00	2024-11-06T16:00:00	6	Velocidad del viento	9.7
51974	7	Sololá	701	Sololá	3	Barraneche	9	Septiembre	2023-09-28T00:00:00	2024-11-06T16:00:00	7	Dirección del viento	9.66
51975	7	Sololá	701	Sololá	3	Barraneche	9	Septiembre	2023-09-28T00:00:00	2024-11-06T16:00:00	1	Precipitación	0
51976	7	Sololá	701	Sololá	3	Barraneche	9	Septiembre	2023-09-28T00:00:00	2024-11-06T16:00:00	8	Radiación solar	30
51977	7	Sololá	701	Sololá	3	Barraneche	9	Septiembre	2023-09-28T00:00:00	2024-11-06T17:00:00	2	Temperatura media	15.2
51978	7	Sololá	701	Sololá	3	Barraneche	9	Septiembre	2023-09-28T00:00:00	2024-11-06T17:00:00	4	Temperatura máxima	15.3
51979	7	Sololá	701	Sololá	3	Barraneche	9	Septiembre	2023-09-28T00:00:00	2024-11-06T17:00:00	3	Temperatura mínima	15.1
51980	7	Sololá	701	Sololá	3	Barraneche	9	Septiembre	2023-09-28T00:00:00	2024-11-06T17:00:00	5	Humedad	85
51981	7	Sololá	701	Sololá	3	Barraneche	9	Septiembre	2023-09-28T00:00:00	2024-11-06T17:00:00	6	Velocidad del viento	4.8
51982	7	Sololá	701	Sololá	3	Barraneche	9	Septiembre	2023-09-28T00:00:00	2024-11-06T17:00:00	7	Dirección del viento	4.83
51983	7	Sololá	701	Sololá	3	Barraneche	9	Septiembre	2023-09-28T00:00:00	2024-11-06T17:00:00	1	Precipitación	0
51984	7	Sololá	701	Sololá	3	Barraneche	9	Septiembre	2023-09-28T00:00:00	2024-11-06T17:00:00	8	Radiación solar	22
51985	7	Sololá	701	Sololá	3	Barraneche	9	Septiembre	2023-09-28T00:00:00	2024-11-06T18:00:00	2	Temperatura media	15.4
51986	7	Sololá	701	Sololá	3	Barraneche	9	Septiembre	2023-09-28T00:00:00	2024-11-06T18:00:00	4	Temperatura máxima	15.4
51987	7	Sololá	701	Sololá	3	Barraneche	9	Septiembre	2023-09-28T00:00:00	2024-11-06T18:00:00	3	Temperatura mínima	15.2
51988	7	Sololá	701	Sololá	3	Barraneche	9	Septiembre	2023-09-28T00:00:00	2024-11-06T18:00:00	5	Humedad	85
51989	7	Sololá	701	Sololá	3	Barraneche	9	Septiembre	2023-09-28T00:00:00	2024-11-06T18:00:00	6	Velocidad del viento	1.6
51990	7	Sololá	701	Sololá	3	Barraneche	9	Septiembre	2023-09-28T00:00:00	2024-11-06T18:00:00	7	Dirección del viento	1.61
51991	7	Sololá	701	Sololá	3	Barraneche	9	Septiembre	2023-09-28T00:00:00	2024-11-06T18:00:00	1	Precipitación	0
51992	7	Sololá	701	Sololá	3	Barraneche	9	Septiembre	2023-09-28T00:00:00	2024-11-06T18:00:00	8	Radiación solar	3
51993	7	Sololá	701	Sololá	3	Barraneche	9	Septiembre	2023-09-28T00:00:00	2024-11-06T19:00:00	2	Temperatura media	15.4
51994	7	Sololá	701	Sololá	3	Barraneche	9	Septiembre	2023-09-28T00:00:00	2024-11-06T19:00:00	4	Temperatura máxima	15.4
51995	7	Sololá	701	Sololá	3	Barraneche	9	Septiembre	2023-09-28T00:00:00	2024-11-06T19:00:00	3	Temperatura mínima	15.3
51996	7	Sololá	701	Sololá	3	Barraneche	9	Septiembre	2023-09-28T00:00:00	2024-11-06T19:00:00	5	Humedad	85
51997	7	Sololá	701	Sololá	3	Barraneche	9	Septiembre	2023-09-28T00:00:00	2024-11-06T19:00:00	6	Velocidad del viento	1.6
51998	7	Sololá	701	Sololá	3	Barraneche	9	Septiembre	2023-09-28T00:00:00	2024-11-06T19:00:00	7	Dirección del viento	1.61
51999	7	Sololá	701	Sololá	3	Barraneche	9	Septiembre	2023-09-28T00:00:00	2024-11-06T19:00:00	1	Precipitación	0
52000	7	Sololá	701	Sololá	3	Barraneche	9	Septiembre	2023-09-28T00:00:00	2024-11-06T19:00:00	8	Radiación solar	0
52001	7	Sololá	701	Sololá	3	Barraneche	9	Septiembre	2023-09-28T00:00:00	2024-11-06T20:00:00	2	Temperatura media	15.1
52002	7	Sololá	701	Sololá	3	Barraneche	9	Septiembre	2023-09-28T00:00:00	2024-11-06T20:00:00	4	Temperatura máxima	15.4
52003	7	Sololá	701	Sololá	3	Barraneche	9	Septiembre	2023-09-28T00:00:00	2024-11-06T20:00:00	3	Temperatura mínima	15.1
52004	7	Sololá	701	Sololá	3	Barraneche	9	Septiembre	2023-09-28T00:00:00	2024-11-06T20:00:00	5	Humedad	85
52005	7	Sololá	701	Sololá	3	Barraneche	9	Septiembre	2023-09-28T00:00:00	2024-11-06T20:00:00	6	Velocidad del viento	1.6
52006	7	Sololá	701	Sololá	3	Barraneche	9	Septiembre	2023-09-28T00:00:00	2024-11-06T20:00:00	7	Dirección del viento	1.61
52007	7	Sololá	701	Sololá	3	Barraneche	9	Septiembre	2023-09-28T00:00:00	2024-11-06T20:00:00	1	Precipitación	0.2
52008	7	Sololá	701	Sololá	3	Barraneche	9	Septiembre	2023-09-28T00:00:00	2024-11-06T20:00:00	8	Radiación solar	0
52009	7	Sololá	701	Sololá	3	Barraneche	9	Septiembre	2023-09-28T00:00:00	2024-11-06T21:00:00	2	Temperatura media	14.6
52010	7	Sololá	701	Sololá	3	Barraneche	9	Septiembre	2023-09-28T00:00:00	2024-11-06T21:00:00	4	Temperatura máxima	15.1
52011	7	Sololá	701	Sololá	3	Barraneche	9	Septiembre	2023-09-28T00:00:00	2024-11-06T21:00:00	3	Temperatura mínima	14.6
52012	7	Sololá	701	Sololá	3	Barraneche	9	Septiembre	2023-09-28T00:00:00	2024-11-06T21:00:00	5	Humedad	84
52013	7	Sololá	701	Sololá	3	Barraneche	9	Septiembre	2023-09-28T00:00:00	2024-11-06T21:00:00	6	Velocidad del viento	1.6
52014	7	Sololá	701	Sololá	3	Barraneche	9	Septiembre	2023-09-28T00:00:00	2024-11-06T21:00:00	7	Dirección del viento	1.61
52015	7	Sololá	701	Sololá	3	Barraneche	9	Septiembre	2023-09-28T00:00:00	2024-11-06T21:00:00	1	Precipitación	0.2
52016	7	Sololá	701	Sololá	3	Barraneche	9	Septiembre	2023-09-28T00:00:00	2024-11-06T21:00:00	8	Radiación solar	0
52017	7	Sololá	701	Sololá	3	Barraneche	9	Septiembre	2023-09-28T00:00:00	2024-11-06T22:00:00	2	Temperatura media	14.2
52018	7	Sololá	701	Sololá	3	Barraneche	9	Septiembre	2023-09-28T00:00:00	2024-11-06T22:00:00	4	Temperatura máxima	14.7
52019	7	Sololá	701	Sololá	3	Barraneche	9	Septiembre	2023-09-28T00:00:00	2024-11-06T22:00:00	3	Temperatura mínima	14.2
52020	7	Sololá	701	Sololá	3	Barraneche	9	Septiembre	2023-09-28T00:00:00	2024-11-06T22:00:00	5	Humedad	85
52021	7	Sololá	701	Sololá	3	Barraneche	9	Septiembre	2023-09-28T00:00:00	2024-11-06T22:00:00	6	Velocidad del viento	3.2
52022	7	Sololá	701	Sololá	3	Barraneche	9	Septiembre	2023-09-28T00:00:00	2024-11-06T22:00:00	7	Dirección del viento	3.22
52023	7	Sololá	701	Sololá	3	Barraneche	9	Septiembre	2023-09-28T00:00:00	2024-11-06T22:00:00	1	Precipitación	5.6
52024	7	Sololá	701	Sololá	3	Barraneche	9	Septiembre	2023-09-28T00:00:00	2024-11-06T22:00:00	8	Radiación solar	0
52025	7	Sololá	701	Sololá	3	Barraneche	9	Septiembre	2023-09-28T00:00:00	2024-11-06T23:00:00	2	Temperatura media	14.1
52026	7	Sololá	701	Sololá	3	Barraneche	9	Septiembre	2023-09-28T00:00:00	2024-11-06T23:00:00	4	Temperatura máxima	14.3
52027	7	Sololá	701	Sololá	3	Barraneche	9	Septiembre	2023-09-28T00:00:00	2024-11-06T23:00:00	3	Temperatura mínima	14.1
52028	7	Sololá	701	Sololá	3	Barraneche	9	Septiembre	2023-09-28T00:00:00	2024-11-06T23:00:00	5	Humedad	85
52029	7	Sololá	701	Sololá	3	Barraneche	9	Septiembre	2023-09-28T00:00:00	2024-11-06T23:00:00	6	Velocidad del viento	1.6
52030	7	Sololá	701	Sololá	3	Barraneche	9	Septiembre	2023-09-28T00:00:00	2024-11-06T23:00:00	7	Dirección del viento	1.61
52031	7	Sololá	701	Sololá	3	Barraneche	9	Septiembre	2023-09-28T00:00:00	2024-11-06T23:00:00	1	Precipitación	0.6
52032	7	Sololá	701	Sololá	3	Barraneche	9	Septiembre	2023-09-28T00:00:00	2024-11-06T23:00:00	8	Radiación solar	0
52033	7	Sololá	701	Sololá	3	Barraneche	9	Septiembre	2023-09-29T00:00:00	2024-11-06T00:00:00	2	Temperatura media	13.7
52034	7	Sololá	701	Sololá	3	Barraneche	9	Septiembre	2023-09-29T00:00:00	2024-11-06T00:00:00	4	Temperatura máxima	14.1
52035	7	Sololá	701	Sololá	3	Barraneche	9	Septiembre	2023-09-29T00:00:00	2024-11-06T00:00:00	3	Temperatura mínima	13.7
52036	7	Sololá	701	Sololá	3	Barraneche	9	Septiembre	2023-09-29T00:00:00	2024-11-06T00:00:00	5	Humedad	84
52037	7	Sololá	701	Sololá	3	Barraneche	9	Septiembre	2023-09-29T00:00:00	2024-11-06T00:00:00	6	Velocidad del viento	1.6
52038	7	Sololá	701	Sololá	3	Barraneche	9	Septiembre	2023-09-29T00:00:00	2024-11-06T00:00:00	7	Dirección del viento	1.61
52039	7	Sololá	701	Sololá	3	Barraneche	9	Septiembre	2023-09-29T00:00:00	2024-11-06T00:00:00	1	Precipitación	0.2
52040	7	Sololá	701	Sololá	3	Barraneche	9	Septiembre	2023-09-29T00:00:00	2024-11-06T00:00:00	8	Radiación solar	0
52041	7	Sololá	701	Sololá	3	Barraneche	9	Septiembre	2023-09-29T00:00:00	2024-11-06T01:00:00	2	Temperatura media	13.5
52042	7	Sololá	701	Sololá	3	Barraneche	9	Septiembre	2023-09-29T00:00:00	2024-11-06T01:00:00	4	Temperatura máxima	13.7
52043	7	Sololá	701	Sololá	3	Barraneche	9	Septiembre	2023-09-29T00:00:00	2024-11-06T01:00:00	3	Temperatura mínima	13.5
52044	7	Sololá	701	Sololá	3	Barraneche	9	Septiembre	2023-09-29T00:00:00	2024-11-06T01:00:00	5	Humedad	85
52045	7	Sololá	701	Sololá	3	Barraneche	9	Septiembre	2023-09-29T00:00:00	2024-11-06T01:00:00	6	Velocidad del viento	3.2
52046	7	Sololá	701	Sololá	3	Barraneche	9	Septiembre	2023-09-29T00:00:00	2024-11-06T01:00:00	7	Dirección del viento	3.22
52047	7	Sololá	701	Sololá	3	Barraneche	9	Septiembre	2023-09-29T00:00:00	2024-11-06T01:00:00	1	Precipitación	0.2
52048	7	Sololá	701	Sololá	3	Barraneche	9	Septiembre	2023-09-29T00:00:00	2024-11-06T01:00:00	8	Radiación solar	0
52049	7	Sololá	701	Sololá	3	Barraneche	9	Septiembre	2023-09-29T00:00:00	2024-11-06T02:00:00	2	Temperatura media	13.2
52050	7	Sololá	701	Sololá	3	Barraneche	9	Septiembre	2023-09-29T00:00:00	2024-11-06T02:00:00	4	Temperatura máxima	13.6
52051	7	Sololá	701	Sololá	3	Barraneche	9	Septiembre	2023-09-29T00:00:00	2024-11-06T02:00:00	3	Temperatura mínima	13.2
52052	7	Sololá	701	Sololá	3	Barraneche	9	Septiembre	2023-09-29T00:00:00	2024-11-06T02:00:00	5	Humedad	85
52053	7	Sololá	701	Sololá	3	Barraneche	9	Septiembre	2023-09-29T00:00:00	2024-11-06T02:00:00	6	Velocidad del viento	1.6
52054	7	Sololá	701	Sololá	3	Barraneche	9	Septiembre	2023-09-29T00:00:00	2024-11-06T02:00:00	7	Dirección del viento	1.61
52055	7	Sololá	701	Sololá	3	Barraneche	9	Septiembre	2023-09-29T00:00:00	2024-11-06T02:00:00	1	Precipitación	0
52056	7	Sololá	701	Sololá	3	Barraneche	9	Septiembre	2023-09-29T00:00:00	2024-11-06T02:00:00	8	Radiación solar	0
52057	7	Sololá	701	Sololá	3	Barraneche	9	Septiembre	2023-09-29T00:00:00	2024-11-06T03:00:00	2	Temperatura media	13.1
52058	7	Sololá	701	Sololá	3	Barraneche	9	Septiembre	2023-09-29T00:00:00	2024-11-06T03:00:00	4	Temperatura máxima	13.3
52059	7	Sololá	701	Sololá	3	Barraneche	9	Septiembre	2023-09-29T00:00:00	2024-11-06T03:00:00	3	Temperatura mínima	13.1
52060	7	Sololá	701	Sololá	3	Barraneche	9	Septiembre	2023-09-29T00:00:00	2024-11-06T03:00:00	5	Humedad	85
52061	7	Sololá	701	Sololá	3	Barraneche	9	Septiembre	2023-09-29T00:00:00	2024-11-06T03:00:00	6	Velocidad del viento	3.2
52062	7	Sololá	701	Sololá	3	Barraneche	9	Septiembre	2023-09-29T00:00:00	2024-11-06T03:00:00	7	Dirección del viento	3.22
52063	7	Sololá	701	Sololá	3	Barraneche	9	Septiembre	2023-09-29T00:00:00	2024-11-06T03:00:00	1	Precipitación	0
52064	7	Sololá	701	Sololá	3	Barraneche	9	Septiembre	2023-09-29T00:00:00	2024-11-06T03:00:00	8	Radiación solar	0
52065	7	Sololá	701	Sololá	3	Barraneche	9	Septiembre	2023-09-29T00:00:00	2024-11-06T04:00:00	2	Temperatura media	13
52066	7	Sololá	701	Sololá	3	Barraneche	9	Septiembre	2023-09-29T00:00:00	2024-11-06T04:00:00	4	Temperatura máxima	13.2
52067	7	Sololá	701	Sololá	3	Barraneche	9	Septiembre	2023-09-29T00:00:00	2024-11-06T04:00:00	3	Temperatura mínima	12.9
52068	7	Sololá	701	Sololá	3	Barraneche	9	Septiembre	2023-09-29T00:00:00	2024-11-06T04:00:00	5	Humedad	85
52069	7	Sololá	701	Sololá	3	Barraneche	9	Septiembre	2023-09-29T00:00:00	2024-11-06T04:00:00	6	Velocidad del viento	1.6
52070	7	Sololá	701	Sololá	3	Barraneche	9	Septiembre	2023-09-29T00:00:00	2024-11-06T04:00:00	7	Dirección del viento	1.61
52071	7	Sololá	701	Sololá	3	Barraneche	9	Septiembre	2023-09-29T00:00:00	2024-11-06T04:00:00	1	Precipitación	0
52072	7	Sololá	701	Sololá	3	Barraneche	9	Septiembre	2023-09-29T00:00:00	2024-11-06T04:00:00	8	Radiación solar	0
52073	7	Sololá	701	Sololá	3	Barraneche	9	Septiembre	2023-09-29T00:00:00	2024-11-06T05:00:00	2	Temperatura media	12.6
52074	7	Sololá	701	Sololá	3	Barraneche	9	Septiembre	2023-09-29T00:00:00	2024-11-06T05:00:00	4	Temperatura máxima	13
52075	7	Sololá	701	Sololá	3	Barraneche	9	Septiembre	2023-09-29T00:00:00	2024-11-06T05:00:00	3	Temperatura mínima	12.6
52076	7	Sololá	701	Sololá	3	Barraneche	9	Septiembre	2023-09-29T00:00:00	2024-11-06T05:00:00	5	Humedad	85
52077	7	Sololá	701	Sololá	3	Barraneche	9	Septiembre	2023-09-29T00:00:00	2024-11-06T05:00:00	6	Velocidad del viento	3.2
52078	7	Sololá	701	Sololá	3	Barraneche	9	Septiembre	2023-09-29T00:00:00	2024-11-06T05:00:00	7	Dirección del viento	3.22
52079	7	Sololá	701	Sololá	3	Barraneche	9	Septiembre	2023-09-29T00:00:00	2024-11-06T05:00:00	1	Precipitación	0
52080	7	Sololá	701	Sololá	3	Barraneche	9	Septiembre	2023-09-29T00:00:00	2024-11-06T05:00:00	8	Radiación solar	0
52081	7	Sololá	701	Sololá	3	Barraneche	9	Septiembre	2023-09-29T00:00:00	2024-11-06T06:00:00	2	Temperatura media	12.7
52082	7	Sololá	701	Sololá	3	Barraneche	9	Septiembre	2023-09-29T00:00:00	2024-11-06T06:00:00	4	Temperatura máxima	12.8
52083	7	Sololá	701	Sololá	3	Barraneche	9	Septiembre	2023-09-29T00:00:00	2024-11-06T06:00:00	3	Temperatura mínima	12.6
52084	7	Sololá	701	Sololá	3	Barraneche	9	Septiembre	2023-09-29T00:00:00	2024-11-06T06:00:00	5	Humedad	85
52085	7	Sololá	701	Sololá	3	Barraneche	9	Septiembre	2023-09-29T00:00:00	2024-11-06T06:00:00	6	Velocidad del viento	3.2
52086	7	Sololá	701	Sololá	3	Barraneche	9	Septiembre	2023-09-29T00:00:00	2024-11-06T06:00:00	7	Dirección del viento	3.22
52087	7	Sololá	701	Sololá	3	Barraneche	9	Septiembre	2023-09-29T00:00:00	2024-11-06T06:00:00	1	Precipitación	0
52088	7	Sololá	701	Sololá	3	Barraneche	9	Septiembre	2023-09-29T00:00:00	2024-11-06T06:00:00	8	Radiación solar	0
52089	7	Sololá	701	Sololá	3	Barraneche	9	Septiembre	2023-09-29T00:00:00	2024-11-06T07:00:00	2	Temperatura media	13.2
52090	7	Sololá	701	Sololá	3	Barraneche	9	Septiembre	2023-09-29T00:00:00	2024-11-06T07:00:00	4	Temperatura máxima	13.2
52091	7	Sololá	701	Sololá	3	Barraneche	9	Septiembre	2023-09-29T00:00:00	2024-11-06T07:00:00	3	Temperatura mínima	12.7
52092	7	Sololá	701	Sololá	3	Barraneche	9	Septiembre	2023-09-29T00:00:00	2024-11-06T07:00:00	5	Humedad	86
52093	7	Sololá	701	Sololá	3	Barraneche	9	Septiembre	2023-09-29T00:00:00	2024-11-06T07:00:00	6	Velocidad del viento	1.6
52094	7	Sololá	701	Sololá	3	Barraneche	9	Septiembre	2023-09-29T00:00:00	2024-11-06T07:00:00	7	Dirección del viento	1.61
52095	7	Sololá	701	Sololá	3	Barraneche	9	Septiembre	2023-09-29T00:00:00	2024-11-06T07:00:00	1	Precipitación	0
52096	7	Sololá	701	Sololá	3	Barraneche	9	Septiembre	2023-09-29T00:00:00	2024-11-06T07:00:00	8	Radiación solar	34
52097	7	Sololá	701	Sololá	3	Barraneche	9	Septiembre	2023-09-29T00:00:00	2024-11-06T08:00:00	2	Temperatura media	14.3
52098	7	Sololá	701	Sololá	3	Barraneche	9	Septiembre	2023-09-29T00:00:00	2024-11-06T08:00:00	4	Temperatura máxima	14.3
52099	7	Sololá	701	Sololá	3	Barraneche	9	Septiembre	2023-09-29T00:00:00	2024-11-06T08:00:00	3	Temperatura mínima	13.2
52100	7	Sololá	701	Sololá	3	Barraneche	9	Septiembre	2023-09-29T00:00:00	2024-11-06T08:00:00	5	Humedad	77
52101	7	Sololá	701	Sololá	3	Barraneche	9	Septiembre	2023-09-29T00:00:00	2024-11-06T08:00:00	6	Velocidad del viento	1.6
52102	7	Sololá	701	Sololá	3	Barraneche	9	Septiembre	2023-09-29T00:00:00	2024-11-06T08:00:00	7	Dirección del viento	1.61
52103	7	Sololá	701	Sololá	3	Barraneche	9	Septiembre	2023-09-29T00:00:00	2024-11-06T08:00:00	1	Precipitación	0
52104	7	Sololá	701	Sololá	3	Barraneche	9	Septiembre	2023-09-29T00:00:00	2024-11-06T08:00:00	8	Radiación solar	100
52105	7	Sololá	701	Sololá	3	Barraneche	9	Septiembre	2023-09-29T00:00:00	2024-11-06T09:00:00	2	Temperatura media	16.4
52106	7	Sololá	701	Sololá	3	Barraneche	9	Septiembre	2023-09-29T00:00:00	2024-11-06T09:00:00	4	Temperatura máxima	16.4
52107	7	Sololá	701	Sololá	3	Barraneche	9	Septiembre	2023-09-29T00:00:00	2024-11-06T09:00:00	3	Temperatura mínima	14.4
52108	7	Sololá	701	Sololá	3	Barraneche	9	Septiembre	2023-09-29T00:00:00	2024-11-06T09:00:00	5	Humedad	71
52109	7	Sololá	701	Sololá	3	Barraneche	9	Septiembre	2023-09-29T00:00:00	2024-11-06T09:00:00	6	Velocidad del viento	6.4
52110	7	Sololá	701	Sololá	3	Barraneche	9	Septiembre	2023-09-29T00:00:00	2024-11-06T09:00:00	7	Dirección del viento	6.44
52111	7	Sololá	701	Sololá	3	Barraneche	9	Septiembre	2023-09-29T00:00:00	2024-11-06T09:00:00	1	Precipitación	0
52112	7	Sololá	701	Sololá	3	Barraneche	9	Septiembre	2023-09-29T00:00:00	2024-11-06T09:00:00	8	Radiación solar	254
52113	7	Sololá	701	Sololá	3	Barraneche	9	Septiembre	2023-09-29T00:00:00	2024-11-06T10:00:00	2	Temperatura media	18.5
52114	7	Sololá	701	Sololá	3	Barraneche	9	Septiembre	2023-09-29T00:00:00	2024-11-06T10:00:00	4	Temperatura máxima	18.5
52115	7	Sololá	701	Sololá	3	Barraneche	9	Septiembre	2023-09-29T00:00:00	2024-11-06T10:00:00	3	Temperatura mínima	16.4
52116	7	Sololá	701	Sololá	3	Barraneche	9	Septiembre	2023-09-29T00:00:00	2024-11-06T10:00:00	5	Humedad	65
52117	7	Sololá	701	Sololá	3	Barraneche	9	Septiembre	2023-09-29T00:00:00	2024-11-06T10:00:00	6	Velocidad del viento	6.4
52118	7	Sololá	701	Sololá	3	Barraneche	9	Septiembre	2023-09-29T00:00:00	2024-11-06T10:00:00	7	Dirección del viento	6.44
52119	7	Sololá	701	Sololá	3	Barraneche	9	Septiembre	2023-09-29T00:00:00	2024-11-06T10:00:00	1	Precipitación	0
52120	7	Sololá	701	Sololá	3	Barraneche	9	Septiembre	2023-09-29T00:00:00	2024-11-06T10:00:00	8	Radiación solar	456
52121	7	Sololá	701	Sololá	3	Barraneche	9	Septiembre	2023-09-29T00:00:00	2024-11-06T11:00:00	2	Temperatura media	20.4
52122	7	Sololá	701	Sololá	3	Barraneche	9	Septiembre	2023-09-29T00:00:00	2024-11-06T11:00:00	4	Temperatura máxima	20.5
52123	7	Sololá	701	Sololá	3	Barraneche	9	Septiembre	2023-09-29T00:00:00	2024-11-06T11:00:00	3	Temperatura mínima	18.5
52124	7	Sololá	701	Sololá	3	Barraneche	9	Septiembre	2023-09-29T00:00:00	2024-11-06T11:00:00	5	Humedad	58
52125	7	Sololá	701	Sololá	3	Barraneche	9	Septiembre	2023-09-29T00:00:00	2024-11-06T11:00:00	6	Velocidad del viento	9.7
52126	7	Sololá	701	Sololá	3	Barraneche	9	Septiembre	2023-09-29T00:00:00	2024-11-06T11:00:00	7	Dirección del viento	9.66
52127	7	Sololá	701	Sololá	3	Barraneche	9	Septiembre	2023-09-29T00:00:00	2024-11-06T11:00:00	1	Precipitación	0
52128	7	Sololá	701	Sololá	3	Barraneche	9	Septiembre	2023-09-29T00:00:00	2024-11-06T11:00:00	8	Radiación solar	868
52129	7	Sololá	701	Sololá	3	Barraneche	9	Septiembre	2023-09-29T00:00:00	2024-11-06T12:00:00	2	Temperatura media	20.1
52130	7	Sololá	701	Sololá	3	Barraneche	9	Septiembre	2023-09-29T00:00:00	2024-11-06T12:00:00	4	Temperatura máxima	20.5
52131	7	Sololá	701	Sololá	3	Barraneche	9	Septiembre	2023-09-29T00:00:00	2024-11-06T12:00:00	3	Temperatura mínima	19.9
52132	7	Sololá	701	Sololá	3	Barraneche	9	Septiembre	2023-09-29T00:00:00	2024-11-06T12:00:00	5	Humedad	59
52133	7	Sololá	701	Sololá	3	Barraneche	9	Septiembre	2023-09-29T00:00:00	2024-11-06T12:00:00	6	Velocidad del viento	9.7
52134	7	Sololá	701	Sololá	3	Barraneche	9	Septiembre	2023-09-29T00:00:00	2024-11-06T12:00:00	7	Dirección del viento	9.66
52135	7	Sololá	701	Sololá	3	Barraneche	9	Septiembre	2023-09-29T00:00:00	2024-11-06T12:00:00	1	Precipitación	0
52136	7	Sololá	701	Sololá	3	Barraneche	9	Septiembre	2023-09-29T00:00:00	2024-11-06T12:00:00	8	Radiación solar	673
52137	7	Sololá	701	Sololá	3	Barraneche	9	Septiembre	2023-09-29T00:00:00	2024-11-06T13:00:00	2	Temperatura media	18.1
52138	7	Sololá	701	Sololá	3	Barraneche	9	Septiembre	2023-09-29T00:00:00	2024-11-06T13:00:00	4	Temperatura máxima	20.2
52139	7	Sololá	701	Sololá	3	Barraneche	9	Septiembre	2023-09-29T00:00:00	2024-11-06T13:00:00	3	Temperatura mínima	18.1
52140	7	Sololá	701	Sololá	3	Barraneche	9	Septiembre	2023-09-29T00:00:00	2024-11-06T13:00:00	5	Humedad	72
52141	7	Sololá	701	Sololá	3	Barraneche	9	Septiembre	2023-09-29T00:00:00	2024-11-06T13:00:00	6	Velocidad del viento	9.7
52142	7	Sololá	701	Sololá	3	Barraneche	9	Septiembre	2023-09-29T00:00:00	2024-11-06T13:00:00	7	Dirección del viento	9.66
52143	7	Sololá	701	Sololá	3	Barraneche	9	Septiembre	2023-09-29T00:00:00	2024-11-06T13:00:00	1	Precipitación	0
52144	7	Sololá	701	Sololá	3	Barraneche	9	Septiembre	2023-09-29T00:00:00	2024-11-06T13:00:00	8	Radiación solar	332
52145	7	Sololá	701	Sololá	3	Barraneche	9	Septiembre	2023-09-29T00:00:00	2024-11-06T14:00:00	2	Temperatura media	16.3
52146	7	Sololá	701	Sololá	3	Barraneche	9	Septiembre	2023-09-29T00:00:00	2024-11-06T14:00:00	4	Temperatura máxima	18.1
52147	7	Sololá	701	Sololá	3	Barraneche	9	Septiembre	2023-09-29T00:00:00	2024-11-06T14:00:00	3	Temperatura mínima	16.2
52148	7	Sololá	701	Sololá	3	Barraneche	9	Septiembre	2023-09-29T00:00:00	2024-11-06T14:00:00	5	Humedad	80
52149	7	Sololá	701	Sololá	3	Barraneche	9	Septiembre	2023-09-29T00:00:00	2024-11-06T14:00:00	6	Velocidad del viento	6.4
52150	7	Sololá	701	Sololá	3	Barraneche	9	Septiembre	2023-09-29T00:00:00	2024-11-06T14:00:00	7	Dirección del viento	6.44
52151	7	Sololá	701	Sololá	3	Barraneche	9	Septiembre	2023-09-29T00:00:00	2024-11-06T14:00:00	1	Precipitación	0.2
52152	7	Sololá	701	Sololá	3	Barraneche	9	Septiembre	2023-09-29T00:00:00	2024-11-06T14:00:00	8	Radiación solar	124
52153	7	Sololá	701	Sololá	3	Barraneche	9	Septiembre	2023-09-29T00:00:00	2024-11-06T15:00:00	2	Temperatura media	16.3
52154	7	Sololá	701	Sololá	3	Barraneche	9	Septiembre	2023-09-29T00:00:00	2024-11-06T15:00:00	4	Temperatura máxima	16.6
52155	7	Sololá	701	Sololá	3	Barraneche	9	Septiembre	2023-09-29T00:00:00	2024-11-06T15:00:00	3	Temperatura mínima	15.9
52156	7	Sololá	701	Sololá	3	Barraneche	9	Septiembre	2023-09-29T00:00:00	2024-11-06T15:00:00	5	Humedad	75
52157	7	Sololá	701	Sololá	3	Barraneche	9	Septiembre	2023-09-29T00:00:00	2024-11-06T15:00:00	6	Velocidad del viento	6.4
52158	7	Sololá	701	Sololá	3	Barraneche	9	Septiembre	2023-09-29T00:00:00	2024-11-06T15:00:00	7	Dirección del viento	6.44
52159	7	Sololá	701	Sololá	3	Barraneche	9	Septiembre	2023-09-29T00:00:00	2024-11-06T15:00:00	1	Precipitación	0
52160	7	Sololá	701	Sololá	3	Barraneche	9	Septiembre	2023-09-29T00:00:00	2024-11-06T15:00:00	8	Radiación solar	119
52161	7	Sololá	701	Sololá	3	Barraneche	9	Septiembre	2023-09-29T00:00:00	2024-11-06T16:00:00	2	Temperatura media	16.3
52162	7	Sololá	701	Sololá	3	Barraneche	9	Septiembre	2023-09-29T00:00:00	2024-11-06T16:00:00	4	Temperatura máxima	17.1
52163	7	Sololá	701	Sololá	3	Barraneche	9	Septiembre	2023-09-29T00:00:00	2024-11-06T16:00:00	3	Temperatura mínima	16.3
52164	7	Sololá	701	Sololá	3	Barraneche	9	Septiembre	2023-09-29T00:00:00	2024-11-06T16:00:00	5	Humedad	77
52165	7	Sololá	701	Sololá	3	Barraneche	9	Septiembre	2023-09-29T00:00:00	2024-11-06T16:00:00	6	Velocidad del viento	4.8
52166	7	Sololá	701	Sololá	3	Barraneche	9	Septiembre	2023-09-29T00:00:00	2024-11-06T16:00:00	7	Dirección del viento	4.83
52167	7	Sololá	701	Sololá	3	Barraneche	9	Septiembre	2023-09-29T00:00:00	2024-11-06T16:00:00	1	Precipitación	0
52168	7	Sololá	701	Sololá	3	Barraneche	9	Septiembre	2023-09-29T00:00:00	2024-11-06T16:00:00	8	Radiación solar	185
52169	7	Sololá	701	Sololá	3	Barraneche	9	Septiembre	2023-09-29T00:00:00	2024-11-06T17:00:00	2	Temperatura media	15.2
52170	7	Sololá	701	Sololá	3	Barraneche	9	Septiembre	2023-09-29T00:00:00	2024-11-06T17:00:00	4	Temperatura máxima	16.3
52171	7	Sololá	701	Sololá	3	Barraneche	9	Septiembre	2023-09-29T00:00:00	2024-11-06T17:00:00	3	Temperatura mínima	15.2
52172	7	Sololá	701	Sololá	3	Barraneche	9	Septiembre	2023-09-29T00:00:00	2024-11-06T17:00:00	5	Humedad	85
52173	7	Sololá	701	Sololá	3	Barraneche	9	Septiembre	2023-09-29T00:00:00	2024-11-06T17:00:00	6	Velocidad del viento	3.2
52174	7	Sololá	701	Sololá	3	Barraneche	9	Septiembre	2023-09-29T00:00:00	2024-11-06T17:00:00	7	Dirección del viento	3.22
52175	7	Sololá	701	Sololá	3	Barraneche	9	Septiembre	2023-09-29T00:00:00	2024-11-06T17:00:00	1	Precipitación	1.2
52176	7	Sololá	701	Sololá	3	Barraneche	9	Septiembre	2023-09-29T00:00:00	2024-11-06T17:00:00	8	Radiación solar	4
52177	7	Sololá	701	Sololá	3	Barraneche	9	Septiembre	2023-09-29T00:00:00	2024-11-06T18:00:00	2	Temperatura media	14.7
52178	7	Sololá	701	Sololá	3	Barraneche	9	Septiembre	2023-09-29T00:00:00	2024-11-06T18:00:00	4	Temperatura máxima	15.2
52179	7	Sololá	701	Sololá	3	Barraneche	9	Septiembre	2023-09-29T00:00:00	2024-11-06T18:00:00	3	Temperatura mínima	14.6
52180	7	Sololá	701	Sololá	3	Barraneche	9	Septiembre	2023-09-29T00:00:00	2024-11-06T18:00:00	5	Humedad	85
52181	7	Sololá	701	Sololá	3	Barraneche	9	Septiembre	2023-09-29T00:00:00	2024-11-06T18:00:00	6	Velocidad del viento	3.2
52182	7	Sololá	701	Sololá	3	Barraneche	9	Septiembre	2023-09-29T00:00:00	2024-11-06T18:00:00	7	Dirección del viento	3.22
52183	7	Sololá	701	Sololá	3	Barraneche	9	Septiembre	2023-09-29T00:00:00	2024-11-06T18:00:00	1	Precipitación	0.4
52184	7	Sololá	701	Sololá	3	Barraneche	9	Septiembre	2023-09-29T00:00:00	2024-11-06T18:00:00	8	Radiación solar	0
52185	7	Sololá	701	Sololá	3	Barraneche	9	Septiembre	2023-09-29T00:00:00	2024-11-06T19:00:00	2	Temperatura media	14.7
52186	7	Sololá	701	Sololá	3	Barraneche	9	Septiembre	2023-09-29T00:00:00	2024-11-06T19:00:00	4	Temperatura máxima	14.9
52187	7	Sololá	701	Sololá	3	Barraneche	9	Septiembre	2023-09-29T00:00:00	2024-11-06T19:00:00	3	Temperatura mínima	14.7
52188	7	Sololá	701	Sololá	3	Barraneche	9	Septiembre	2023-09-29T00:00:00	2024-11-06T19:00:00	5	Humedad	85
52189	7	Sololá	701	Sololá	3	Barraneche	9	Septiembre	2023-09-29T00:00:00	2024-11-06T19:00:00	6	Velocidad del viento	1.6
52190	7	Sololá	701	Sololá	3	Barraneche	9	Septiembre	2023-09-29T00:00:00	2024-11-06T19:00:00	7	Dirección del viento	1.61
52191	7	Sololá	701	Sololá	3	Barraneche	9	Septiembre	2023-09-29T00:00:00	2024-11-06T19:00:00	1	Precipitación	1
52192	7	Sololá	701	Sololá	3	Barraneche	9	Septiembre	2023-09-29T00:00:00	2024-11-06T19:00:00	8	Radiación solar	0
52193	7	Sololá	701	Sololá	3	Barraneche	9	Septiembre	2023-09-29T00:00:00	2024-11-06T20:00:00	2	Temperatura media	14.4
52194	7	Sololá	701	Sololá	3	Barraneche	9	Septiembre	2023-09-29T00:00:00	2024-11-06T20:00:00	4	Temperatura máxima	14.8
52195	7	Sololá	701	Sololá	3	Barraneche	9	Septiembre	2023-09-29T00:00:00	2024-11-06T20:00:00	3	Temperatura mínima	14.4
52196	7	Sololá	701	Sololá	3	Barraneche	9	Septiembre	2023-09-29T00:00:00	2024-11-06T20:00:00	5	Humedad	85
52197	7	Sololá	701	Sololá	3	Barraneche	9	Septiembre	2023-09-29T00:00:00	2024-11-06T20:00:00	6	Velocidad del viento	1.6
52198	7	Sololá	701	Sololá	3	Barraneche	9	Septiembre	2023-09-29T00:00:00	2024-11-06T20:00:00	7	Dirección del viento	1.61
52199	7	Sololá	701	Sololá	3	Barraneche	9	Septiembre	2023-09-29T00:00:00	2024-11-06T20:00:00	1	Precipitación	1.2
52200	7	Sololá	701	Sololá	3	Barraneche	9	Septiembre	2023-09-29T00:00:00	2024-11-06T20:00:00	8	Radiación solar	0
52201	7	Sololá	701	Sololá	3	Barraneche	9	Septiembre	2023-09-29T00:00:00	2024-11-06T21:00:00	2	Temperatura media	14.2
52202	7	Sololá	701	Sololá	3	Barraneche	9	Septiembre	2023-09-29T00:00:00	2024-11-06T21:00:00	4	Temperatura máxima	14.4
52203	7	Sololá	701	Sololá	3	Barraneche	9	Septiembre	2023-09-29T00:00:00	2024-11-06T21:00:00	3	Temperatura mínima	14.2
52204	7	Sololá	701	Sololá	3	Barraneche	9	Septiembre	2023-09-29T00:00:00	2024-11-06T21:00:00	5	Humedad	84
52205	7	Sololá	701	Sololá	3	Barraneche	9	Septiembre	2023-09-29T00:00:00	2024-11-06T21:00:00	6	Velocidad del viento	1.6
52206	7	Sololá	701	Sololá	3	Barraneche	9	Septiembre	2023-09-29T00:00:00	2024-11-06T21:00:00	7	Dirección del viento	1.61
52207	7	Sololá	701	Sololá	3	Barraneche	9	Septiembre	2023-09-29T00:00:00	2024-11-06T21:00:00	1	Precipitación	0.2
52208	7	Sololá	701	Sololá	3	Barraneche	9	Septiembre	2023-09-29T00:00:00	2024-11-06T21:00:00	8	Radiación solar	0
52209	7	Sololá	701	Sololá	3	Barraneche	9	Septiembre	2023-09-29T00:00:00	2024-11-06T22:00:00	2	Temperatura media	14.2
52210	7	Sololá	701	Sololá	3	Barraneche	9	Septiembre	2023-09-29T00:00:00	2024-11-06T22:00:00	4	Temperatura máxima	14.3
52211	7	Sololá	701	Sololá	3	Barraneche	9	Septiembre	2023-09-29T00:00:00	2024-11-06T22:00:00	3	Temperatura mínima	14.2
52212	7	Sololá	701	Sololá	3	Barraneche	9	Septiembre	2023-09-29T00:00:00	2024-11-06T22:00:00	5	Humedad	85
52213	7	Sololá	701	Sololá	3	Barraneche	9	Septiembre	2023-09-29T00:00:00	2024-11-06T22:00:00	6	Velocidad del viento	1.6
52214	7	Sololá	701	Sololá	3	Barraneche	9	Septiembre	2023-09-29T00:00:00	2024-11-06T22:00:00	7	Dirección del viento	1.61
52215	7	Sololá	701	Sololá	3	Barraneche	9	Septiembre	2023-09-29T00:00:00	2024-11-06T22:00:00	1	Precipitación	0
52216	7	Sololá	701	Sololá	3	Barraneche	9	Septiembre	2023-09-29T00:00:00	2024-11-06T22:00:00	8	Radiación solar	0
52217	7	Sololá	701	Sololá	3	Barraneche	9	Septiembre	2023-09-29T00:00:00	2024-11-06T23:00:00	2	Temperatura media	13.9
52218	7	Sololá	701	Sololá	3	Barraneche	9	Septiembre	2023-09-29T00:00:00	2024-11-06T23:00:00	4	Temperatura máxima	14.2
52219	7	Sololá	701	Sololá	3	Barraneche	9	Septiembre	2023-09-29T00:00:00	2024-11-06T23:00:00	3	Temperatura mínima	13.8
52220	7	Sololá	701	Sololá	3	Barraneche	9	Septiembre	2023-09-29T00:00:00	2024-11-06T23:00:00	5	Humedad	85
52221	7	Sololá	701	Sololá	3	Barraneche	9	Septiembre	2023-09-29T00:00:00	2024-11-06T23:00:00	6	Velocidad del viento	1.6
52222	7	Sololá	701	Sololá	3	Barraneche	9	Septiembre	2023-09-29T00:00:00	2024-11-06T23:00:00	7	Dirección del viento	1.61
52223	7	Sololá	701	Sololá	3	Barraneche	9	Septiembre	2023-09-29T00:00:00	2024-11-06T23:00:00	1	Precipitación	0
52224	7	Sololá	701	Sololá	3	Barraneche	9	Septiembre	2023-09-29T00:00:00	2024-11-06T23:00:00	8	Radiación solar	0
52225	7	Sololá	701	Sololá	3	Barraneche	9	Septiembre	2023-09-30T00:00:00	2024-11-06T00:00:00	2	Temperatura media	13.2
52226	7	Sololá	701	Sololá	3	Barraneche	9	Septiembre	2023-09-30T00:00:00	2024-11-06T00:00:00	4	Temperatura máxima	13.9
52227	7	Sololá	701	Sololá	3	Barraneche	9	Septiembre	2023-09-30T00:00:00	2024-11-06T00:00:00	3	Temperatura mínima	13.2
52228	7	Sololá	701	Sololá	3	Barraneche	9	Septiembre	2023-09-30T00:00:00	2024-11-06T00:00:00	5	Humedad	84
52229	7	Sololá	701	Sololá	3	Barraneche	9	Septiembre	2023-09-30T00:00:00	2024-11-06T00:00:00	6	Velocidad del viento	3.2
52230	7	Sololá	701	Sololá	3	Barraneche	9	Septiembre	2023-09-30T00:00:00	2024-11-06T00:00:00	7	Dirección del viento	3.22
52231	7	Sololá	701	Sololá	3	Barraneche	9	Septiembre	2023-09-30T00:00:00	2024-11-06T00:00:00	1	Precipitación	0
52232	7	Sololá	701	Sololá	3	Barraneche	9	Septiembre	2023-09-30T00:00:00	2024-11-06T00:00:00	8	Radiación solar	0
52233	7	Sololá	701	Sololá	3	Barraneche	9	Septiembre	2023-09-30T00:00:00	2024-11-06T01:00:00	2	Temperatura media	13.4
52234	7	Sololá	701	Sololá	3	Barraneche	9	Septiembre	2023-09-30T00:00:00	2024-11-06T01:00:00	4	Temperatura máxima	13.4
52235	7	Sololá	701	Sololá	3	Barraneche	9	Septiembre	2023-09-30T00:00:00	2024-11-06T01:00:00	3	Temperatura mínima	13.2
52236	7	Sololá	701	Sololá	3	Barraneche	9	Septiembre	2023-09-30T00:00:00	2024-11-06T01:00:00	5	Humedad	85
52237	7	Sololá	701	Sololá	3	Barraneche	9	Septiembre	2023-09-30T00:00:00	2024-11-06T01:00:00	6	Velocidad del viento	1.6
52238	7	Sololá	701	Sololá	3	Barraneche	9	Septiembre	2023-09-30T00:00:00	2024-11-06T01:00:00	7	Dirección del viento	1.61
52239	7	Sololá	701	Sololá	3	Barraneche	9	Septiembre	2023-09-30T00:00:00	2024-11-06T01:00:00	1	Precipitación	0.2
52240	7	Sololá	701	Sololá	3	Barraneche	9	Septiembre	2023-09-30T00:00:00	2024-11-06T01:00:00	8	Radiación solar	0
52241	7	Sololá	701	Sololá	3	Barraneche	9	Septiembre	2023-09-30T00:00:00	2024-11-06T02:00:00	2	Temperatura media	13.6
52242	7	Sololá	701	Sololá	3	Barraneche	9	Septiembre	2023-09-30T00:00:00	2024-11-06T02:00:00	4	Temperatura máxima	13.6
52243	7	Sololá	701	Sololá	3	Barraneche	9	Septiembre	2023-09-30T00:00:00	2024-11-06T02:00:00	3	Temperatura mínima	13.4
52244	7	Sololá	701	Sololá	3	Barraneche	9	Septiembre	2023-09-30T00:00:00	2024-11-06T02:00:00	5	Humedad	85
52245	7	Sololá	701	Sololá	3	Barraneche	9	Septiembre	2023-09-30T00:00:00	2024-11-06T02:00:00	6	Velocidad del viento	1.6
52246	7	Sololá	701	Sololá	3	Barraneche	9	Septiembre	2023-09-30T00:00:00	2024-11-06T02:00:00	7	Dirección del viento	1.61
52247	7	Sololá	701	Sololá	3	Barraneche	9	Septiembre	2023-09-30T00:00:00	2024-11-06T02:00:00	1	Precipitación	0.2
52248	7	Sololá	701	Sololá	3	Barraneche	9	Septiembre	2023-09-30T00:00:00	2024-11-06T02:00:00	8	Radiación solar	0
52249	7	Sololá	701	Sololá	3	Barraneche	9	Septiembre	2023-09-30T00:00:00	2024-11-06T03:00:00	2	Temperatura media	13.1
52250	7	Sololá	701	Sololá	3	Barraneche	9	Septiembre	2023-09-30T00:00:00	2024-11-06T03:00:00	4	Temperatura máxima	13.6
52251	7	Sololá	701	Sololá	3	Barraneche	9	Septiembre	2023-09-30T00:00:00	2024-11-06T03:00:00	3	Temperatura mínima	13.1
52252	7	Sololá	701	Sololá	3	Barraneche	9	Septiembre	2023-09-30T00:00:00	2024-11-06T03:00:00	5	Humedad	84
52253	7	Sololá	701	Sololá	3	Barraneche	9	Septiembre	2023-09-30T00:00:00	2024-11-06T03:00:00	6	Velocidad del viento	3.2
52254	7	Sololá	701	Sololá	3	Barraneche	9	Septiembre	2023-09-30T00:00:00	2024-11-06T03:00:00	7	Dirección del viento	3.22
52255	7	Sololá	701	Sololá	3	Barraneche	9	Septiembre	2023-09-30T00:00:00	2024-11-06T03:00:00	1	Precipitación	0
52256	7	Sololá	701	Sololá	3	Barraneche	9	Septiembre	2023-09-30T00:00:00	2024-11-06T03:00:00	8	Radiación solar	0
52257	7	Sololá	701	Sololá	3	Barraneche	9	Septiembre	2023-09-30T00:00:00	2024-11-06T04:00:00	2	Temperatura media	12.4
52258	7	Sololá	701	Sololá	3	Barraneche	9	Septiembre	2023-09-30T00:00:00	2024-11-06T04:00:00	4	Temperatura máxima	13.1
52259	7	Sololá	701	Sololá	3	Barraneche	9	Septiembre	2023-09-30T00:00:00	2024-11-06T04:00:00	3	Temperatura mínima	12.4
52260	7	Sololá	701	Sololá	3	Barraneche	9	Septiembre	2023-09-30T00:00:00	2024-11-06T04:00:00	5	Humedad	84
52261	7	Sololá	701	Sololá	3	Barraneche	9	Septiembre	2023-09-30T00:00:00	2024-11-06T04:00:00	6	Velocidad del viento	3.2
52262	7	Sololá	701	Sololá	3	Barraneche	9	Septiembre	2023-09-30T00:00:00	2024-11-06T04:00:00	7	Dirección del viento	3.22
52263	7	Sololá	701	Sololá	3	Barraneche	9	Septiembre	2023-09-30T00:00:00	2024-11-06T04:00:00	1	Precipitación	0
52264	7	Sololá	701	Sololá	3	Barraneche	9	Septiembre	2023-09-30T00:00:00	2024-11-06T04:00:00	8	Radiación solar	0
52265	7	Sololá	701	Sololá	3	Barraneche	9	Septiembre	2023-09-30T00:00:00	2024-11-06T05:00:00	2	Temperatura media	12.4
52266	7	Sololá	701	Sololá	3	Barraneche	9	Septiembre	2023-09-30T00:00:00	2024-11-06T05:00:00	4	Temperatura máxima	12.6
52267	7	Sololá	701	Sololá	3	Barraneche	9	Septiembre	2023-09-30T00:00:00	2024-11-06T05:00:00	3	Temperatura mínima	12.3
52268	7	Sololá	701	Sololá	3	Barraneche	9	Septiembre	2023-09-30T00:00:00	2024-11-06T05:00:00	5	Humedad	82
52269	7	Sololá	701	Sololá	3	Barraneche	9	Septiembre	2023-09-30T00:00:00	2024-11-06T05:00:00	6	Velocidad del viento	4.8
52270	7	Sololá	701	Sololá	3	Barraneche	9	Septiembre	2023-09-30T00:00:00	2024-11-06T05:00:00	7	Dirección del viento	4.83
52271	7	Sololá	701	Sololá	3	Barraneche	9	Septiembre	2023-09-30T00:00:00	2024-11-06T05:00:00	1	Precipitación	0
52272	7	Sololá	701	Sololá	3	Barraneche	9	Septiembre	2023-09-30T00:00:00	2024-11-06T05:00:00	8	Radiación solar	0
52273	7	Sololá	701	Sololá	3	Barraneche	9	Septiembre	2023-09-30T00:00:00	2024-11-06T06:00:00	2	Temperatura media	13.1
52274	7	Sololá	701	Sololá	3	Barraneche	9	Septiembre	2023-09-30T00:00:00	2024-11-06T06:00:00	4	Temperatura máxima	13.1
52275	7	Sololá	701	Sololá	3	Barraneche	9	Septiembre	2023-09-30T00:00:00	2024-11-06T06:00:00	3	Temperatura mínima	12.3
52276	7	Sololá	701	Sololá	3	Barraneche	9	Septiembre	2023-09-30T00:00:00	2024-11-06T06:00:00	5	Humedad	76
52277	7	Sololá	701	Sololá	3	Barraneche	9	Septiembre	2023-09-30T00:00:00	2024-11-06T06:00:00	6	Velocidad del viento	4.8
52278	7	Sololá	701	Sololá	3	Barraneche	9	Septiembre	2023-09-30T00:00:00	2024-11-06T06:00:00	7	Dirección del viento	4.83
52279	7	Sololá	701	Sololá	3	Barraneche	9	Septiembre	2023-09-30T00:00:00	2024-11-06T06:00:00	1	Precipitación	0
52280	7	Sololá	701	Sololá	3	Barraneche	9	Septiembre	2023-09-30T00:00:00	2024-11-06T06:00:00	8	Radiación solar	0
52281	7	Sololá	701	Sololá	3	Barraneche	9	Septiembre	2023-09-30T00:00:00	2024-11-06T07:00:00	2	Temperatura media	14.2
52282	7	Sololá	701	Sololá	3	Barraneche	9	Septiembre	2023-09-30T00:00:00	2024-11-06T07:00:00	4	Temperatura máxima	14.2
52283	7	Sololá	701	Sololá	3	Barraneche	9	Septiembre	2023-09-30T00:00:00	2024-11-06T07:00:00	3	Temperatura mínima	13.1
52284	7	Sololá	701	Sololá	3	Barraneche	9	Septiembre	2023-09-30T00:00:00	2024-11-06T07:00:00	5	Humedad	77
52285	7	Sololá	701	Sololá	3	Barraneche	9	Septiembre	2023-09-30T00:00:00	2024-11-06T07:00:00	6	Velocidad del viento	3.2
52286	7	Sololá	701	Sololá	3	Barraneche	9	Septiembre	2023-09-30T00:00:00	2024-11-06T07:00:00	7	Dirección del viento	3.22
52287	7	Sololá	701	Sololá	3	Barraneche	9	Septiembre	2023-09-30T00:00:00	2024-11-06T07:00:00	1	Precipitación	0
52288	7	Sololá	701	Sololá	3	Barraneche	9	Septiembre	2023-09-30T00:00:00	2024-11-06T07:00:00	8	Radiación solar	72
52289	7	Sololá	701	Sololá	3	Barraneche	9	Septiembre	2023-09-30T00:00:00	2024-11-06T08:00:00	2	Temperatura media	16.4
52290	7	Sololá	701	Sololá	3	Barraneche	9	Septiembre	2023-09-30T00:00:00	2024-11-06T08:00:00	4	Temperatura máxima	16.4
52291	7	Sololá	701	Sololá	3	Barraneche	9	Septiembre	2023-09-30T00:00:00	2024-11-06T08:00:00	3	Temperatura mínima	14.2
52292	7	Sololá	701	Sololá	3	Barraneche	9	Septiembre	2023-09-30T00:00:00	2024-11-06T08:00:00	5	Humedad	74
52293	7	Sololá	701	Sololá	3	Barraneche	9	Septiembre	2023-09-30T00:00:00	2024-11-06T08:00:00	6	Velocidad del viento	3.2
52294	7	Sololá	701	Sololá	3	Barraneche	9	Septiembre	2023-09-30T00:00:00	2024-11-06T08:00:00	7	Dirección del viento	3.22
52295	7	Sololá	701	Sololá	3	Barraneche	9	Septiembre	2023-09-30T00:00:00	2024-11-06T08:00:00	1	Precipitación	0
52296	7	Sololá	701	Sololá	3	Barraneche	9	Septiembre	2023-09-30T00:00:00	2024-11-06T08:00:00	8	Radiación solar	301
52297	7	Sololá	701	Sololá	3	Barraneche	9	Septiembre	2023-09-30T00:00:00	2024-11-06T09:00:00	2	Temperatura media	17.8
52298	7	Sololá	701	Sololá	3	Barraneche	9	Septiembre	2023-09-30T00:00:00	2024-11-06T09:00:00	4	Temperatura máxima	17.9
52299	7	Sololá	701	Sololá	3	Barraneche	9	Septiembre	2023-09-30T00:00:00	2024-11-06T09:00:00	3	Temperatura mínima	16.4
52300	7	Sololá	701	Sololá	3	Barraneche	9	Septiembre	2023-09-30T00:00:00	2024-11-06T09:00:00	5	Humedad	68
52301	7	Sololá	701	Sololá	3	Barraneche	9	Septiembre	2023-09-30T00:00:00	2024-11-06T09:00:00	6	Velocidad del viento	9.7
52302	7	Sololá	701	Sololá	3	Barraneche	9	Septiembre	2023-09-30T00:00:00	2024-11-06T09:00:00	7	Dirección del viento	9.66
52303	7	Sololá	701	Sololá	3	Barraneche	9	Septiembre	2023-09-30T00:00:00	2024-11-06T09:00:00	1	Precipitación	0
52304	7	Sololá	701	Sololá	3	Barraneche	9	Septiembre	2023-09-30T00:00:00	2024-11-06T09:00:00	8	Radiación solar	493
52305	7	Sololá	701	Sololá	3	Barraneche	9	Septiembre	2023-09-30T00:00:00	2024-11-06T10:00:00	2	Temperatura media	19.4
52306	7	Sololá	701	Sololá	3	Barraneche	9	Septiembre	2023-09-30T00:00:00	2024-11-06T10:00:00	4	Temperatura máxima	19.4
52307	7	Sololá	701	Sololá	3	Barraneche	9	Septiembre	2023-09-30T00:00:00	2024-11-06T10:00:00	3	Temperatura mínima	17.1
52308	7	Sololá	701	Sololá	3	Barraneche	9	Septiembre	2023-09-30T00:00:00	2024-11-06T10:00:00	5	Humedad	61
52309	7	Sololá	701	Sololá	3	Barraneche	9	Septiembre	2023-09-30T00:00:00	2024-11-06T10:00:00	6	Velocidad del viento	11.3
52310	7	Sololá	701	Sololá	3	Barraneche	9	Septiembre	2023-09-30T00:00:00	2024-11-06T10:00:00	7	Dirección del viento	11.27
52311	7	Sololá	701	Sololá	3	Barraneche	9	Septiembre	2023-09-30T00:00:00	2024-11-06T10:00:00	1	Precipitación	0
52312	7	Sololá	701	Sololá	3	Barraneche	9	Septiembre	2023-09-30T00:00:00	2024-11-06T10:00:00	8	Radiación solar	710
52313	7	Sololá	701	Sololá	3	Barraneche	9	Septiembre	2023-09-30T00:00:00	2024-11-06T11:00:00	2	Temperatura media	20.3
52314	7	Sololá	701	Sololá	3	Barraneche	9	Septiembre	2023-09-30T00:00:00	2024-11-06T11:00:00	4	Temperatura máxima	20.4
52315	7	Sololá	701	Sololá	3	Barraneche	9	Septiembre	2023-09-30T00:00:00	2024-11-06T11:00:00	3	Temperatura mínima	19.4
52316	7	Sololá	701	Sololá	3	Barraneche	9	Septiembre	2023-09-30T00:00:00	2024-11-06T11:00:00	5	Humedad	60
52317	7	Sololá	701	Sololá	3	Barraneche	9	Septiembre	2023-09-30T00:00:00	2024-11-06T11:00:00	6	Velocidad del viento	11.3
52318	7	Sololá	701	Sololá	3	Barraneche	9	Septiembre	2023-09-30T00:00:00	2024-11-06T11:00:00	7	Dirección del viento	11.27
52319	7	Sololá	701	Sololá	3	Barraneche	9	Septiembre	2023-09-30T00:00:00	2024-11-06T11:00:00	1	Precipitación	0
52320	7	Sololá	701	Sololá	3	Barraneche	9	Septiembre	2023-09-30T00:00:00	2024-11-06T11:00:00	8	Radiación solar	934
52321	7	Sololá	701	Sololá	3	Barraneche	9	Septiembre	2023-09-30T00:00:00	2024-11-06T12:00:00	2	Temperatura media	20.6
52322	7	Sololá	701	Sololá	3	Barraneche	9	Septiembre	2023-09-30T00:00:00	2024-11-06T12:00:00	4	Temperatura máxima	20.8
52323	7	Sololá	701	Sololá	3	Barraneche	9	Septiembre	2023-09-30T00:00:00	2024-11-06T12:00:00	3	Temperatura mínima	19.7
52324	7	Sololá	701	Sololá	3	Barraneche	9	Septiembre	2023-09-30T00:00:00	2024-11-06T12:00:00	5	Humedad	55
52325	7	Sololá	701	Sololá	3	Barraneche	9	Septiembre	2023-09-30T00:00:00	2024-11-06T12:00:00	6	Velocidad del viento	8
52326	7	Sololá	701	Sololá	3	Barraneche	9	Septiembre	2023-09-30T00:00:00	2024-11-06T12:00:00	7	Dirección del viento	8.05
52327	7	Sololá	701	Sololá	3	Barraneche	9	Septiembre	2023-09-30T00:00:00	2024-11-06T12:00:00	1	Precipitación	0
52328	7	Sololá	701	Sololá	3	Barraneche	9	Septiembre	2023-09-30T00:00:00	2024-11-06T12:00:00	8	Radiación solar	923
52329	7	Sololá	701	Sololá	3	Barraneche	9	Septiembre	2023-09-30T00:00:00	2024-11-06T13:00:00	2	Temperatura media	20.1
52330	7	Sololá	701	Sololá	3	Barraneche	9	Septiembre	2023-09-30T00:00:00	2024-11-06T13:00:00	4	Temperatura máxima	21.3
52331	7	Sololá	701	Sololá	3	Barraneche	9	Septiembre	2023-09-30T00:00:00	2024-11-06T13:00:00	3	Temperatura mínima	19.9
52332	7	Sololá	701	Sololá	3	Barraneche	9	Septiembre	2023-09-30T00:00:00	2024-11-06T13:00:00	5	Humedad	62
52333	7	Sololá	701	Sololá	3	Barraneche	9	Septiembre	2023-09-30T00:00:00	2024-11-06T13:00:00	6	Velocidad del viento	8
52334	7	Sololá	701	Sololá	3	Barraneche	9	Septiembre	2023-09-30T00:00:00	2024-11-06T13:00:00	7	Dirección del viento	8.05
52335	7	Sololá	701	Sololá	3	Barraneche	9	Septiembre	2023-09-30T00:00:00	2024-11-06T13:00:00	1	Precipitación	0
52336	7	Sololá	701	Sololá	3	Barraneche	9	Septiembre	2023-09-30T00:00:00	2024-11-06T13:00:00	8	Radiación solar	607
52337	7	Sololá	701	Sololá	3	Barraneche	9	Septiembre	2023-09-30T00:00:00	2024-11-06T14:00:00	2	Temperatura media	18
52338	7	Sololá	701	Sololá	3	Barraneche	9	Septiembre	2023-09-30T00:00:00	2024-11-06T14:00:00	4	Temperatura máxima	20.7
52339	7	Sololá	701	Sololá	3	Barraneche	9	Septiembre	2023-09-30T00:00:00	2024-11-06T14:00:00	3	Temperatura mínima	18
52340	7	Sololá	701	Sololá	3	Barraneche	9	Septiembre	2023-09-30T00:00:00	2024-11-06T14:00:00	5	Humedad	74
52341	7	Sololá	701	Sololá	3	Barraneche	9	Septiembre	2023-09-30T00:00:00	2024-11-06T14:00:00	6	Velocidad del viento	9.7
52342	7	Sololá	701	Sololá	3	Barraneche	9	Septiembre	2023-09-30T00:00:00	2024-11-06T14:00:00	7	Dirección del viento	9.66
52343	7	Sololá	701	Sololá	3	Barraneche	9	Septiembre	2023-09-30T00:00:00	2024-11-06T14:00:00	1	Precipitación	0
52344	7	Sololá	701	Sololá	3	Barraneche	9	Septiembre	2023-09-30T00:00:00	2024-11-06T14:00:00	8	Radiación solar	342
52345	7	Sololá	701	Sololá	3	Barraneche	9	Septiembre	2023-09-30T00:00:00	2024-11-06T15:00:00	2	Temperatura media	16.7
52346	7	Sololá	701	Sololá	3	Barraneche	9	Septiembre	2023-09-30T00:00:00	2024-11-06T15:00:00	4	Temperatura máxima	18.1
52347	7	Sololá	701	Sololá	3	Barraneche	9	Septiembre	2023-09-30T00:00:00	2024-11-06T15:00:00	3	Temperatura mínima	16.5
52348	7	Sololá	701	Sololá	3	Barraneche	9	Septiembre	2023-09-30T00:00:00	2024-11-06T15:00:00	5	Humedad	73
52349	7	Sololá	701	Sololá	3	Barraneche	9	Septiembre	2023-09-30T00:00:00	2024-11-06T15:00:00	6	Velocidad del viento	6.4
52350	7	Sololá	701	Sololá	3	Barraneche	9	Septiembre	2023-09-30T00:00:00	2024-11-06T15:00:00	7	Dirección del viento	6.44
52351	7	Sololá	701	Sololá	3	Barraneche	9	Septiembre	2023-09-30T00:00:00	2024-11-06T15:00:00	1	Precipitación	0
52352	7	Sololá	701	Sololá	3	Barraneche	9	Septiembre	2023-09-30T00:00:00	2024-11-06T15:00:00	8	Radiación solar	106
52353	7	Sololá	701	Sololá	3	Barraneche	9	Septiembre	2023-09-30T00:00:00	2024-11-06T16:00:00	2	Temperatura media	17.1
52354	7	Sololá	701	Sololá	3	Barraneche	9	Septiembre	2023-09-30T00:00:00	2024-11-06T16:00:00	4	Temperatura máxima	17.3
52355	7	Sololá	701	Sololá	3	Barraneche	9	Septiembre	2023-09-30T00:00:00	2024-11-06T16:00:00	3	Temperatura mínima	16.7
52356	7	Sololá	701	Sololá	3	Barraneche	9	Septiembre	2023-09-30T00:00:00	2024-11-06T16:00:00	5	Humedad	74
52357	7	Sololá	701	Sololá	3	Barraneche	9	Septiembre	2023-09-30T00:00:00	2024-11-06T16:00:00	6	Velocidad del viento	3.2
52358	7	Sololá	701	Sololá	3	Barraneche	9	Septiembre	2023-09-30T00:00:00	2024-11-06T16:00:00	7	Dirección del viento	3.22
52359	7	Sololá	701	Sololá	3	Barraneche	9	Septiembre	2023-09-30T00:00:00	2024-11-06T16:00:00	1	Precipitación	0
52360	7	Sololá	701	Sololá	3	Barraneche	9	Septiembre	2023-09-30T00:00:00	2024-11-06T16:00:00	8	Radiación solar	157
52361	7	Sololá	701	Sololá	3	Barraneche	9	Septiembre	2023-09-30T00:00:00	2024-11-06T17:00:00	2	Temperatura media	17.3
52362	7	Sololá	701	Sololá	3	Barraneche	9	Septiembre	2023-09-30T00:00:00	2024-11-06T17:00:00	4	Temperatura máxima	17.3
52363	7	Sololá	701	Sololá	3	Barraneche	9	Septiembre	2023-09-30T00:00:00	2024-11-06T17:00:00	3	Temperatura mínima	17
52364	7	Sololá	701	Sololá	3	Barraneche	9	Septiembre	2023-09-30T00:00:00	2024-11-06T17:00:00	5	Humedad	73
52365	7	Sololá	701	Sololá	3	Barraneche	9	Septiembre	2023-09-30T00:00:00	2024-11-06T17:00:00	6	Velocidad del viento	1.6
52366	7	Sololá	701	Sololá	3	Barraneche	9	Septiembre	2023-09-30T00:00:00	2024-11-06T17:00:00	7	Dirección del viento	1.61
52367	7	Sololá	701	Sololá	3	Barraneche	9	Septiembre	2023-09-30T00:00:00	2024-11-06T17:00:00	1	Precipitación	0
52368	7	Sololá	701	Sololá	3	Barraneche	9	Septiembre	2023-09-30T00:00:00	2024-11-06T17:00:00	8	Radiación solar	124
52369	7	Sololá	701	Sololá	3	Barraneche	9	Septiembre	2023-09-30T00:00:00	2024-11-06T18:00:00	2	Temperatura media	16.3
52370	7	Sololá	701	Sololá	3	Barraneche	9	Septiembre	2023-09-30T00:00:00	2024-11-06T18:00:00	4	Temperatura máxima	17.4
52371	7	Sololá	701	Sololá	3	Barraneche	9	Septiembre	2023-09-30T00:00:00	2024-11-06T18:00:00	3	Temperatura mínima	16.3
52372	7	Sololá	701	Sololá	3	Barraneche	9	Septiembre	2023-09-30T00:00:00	2024-11-06T18:00:00	5	Humedad	77
52373	7	Sololá	701	Sololá	3	Barraneche	9	Septiembre	2023-09-30T00:00:00	2024-11-06T18:00:00	6	Velocidad del viento	1.6
52374	7	Sololá	701	Sololá	3	Barraneche	9	Septiembre	2023-09-30T00:00:00	2024-11-06T18:00:00	7	Dirección del viento	1.61
52375	7	Sololá	701	Sololá	3	Barraneche	9	Septiembre	2023-09-30T00:00:00	2024-11-06T18:00:00	1	Precipitación	0
52376	7	Sololá	701	Sololá	3	Barraneche	9	Septiembre	2023-09-30T00:00:00	2024-11-06T18:00:00	8	Radiación solar	24
52377	7	Sololá	701	Sololá	3	Barraneche	9	Septiembre	2023-09-30T00:00:00	2024-11-06T19:00:00	2	Temperatura media	14.4
52378	7	Sololá	701	Sololá	3	Barraneche	9	Septiembre	2023-09-30T00:00:00	2024-11-06T19:00:00	4	Temperatura máxima	16.3
52379	7	Sololá	701	Sololá	3	Barraneche	9	Septiembre	2023-09-30T00:00:00	2024-11-06T19:00:00	3	Temperatura mínima	14.4
52380	7	Sololá	701	Sololá	3	Barraneche	9	Septiembre	2023-09-30T00:00:00	2024-11-06T19:00:00	5	Humedad	77
52381	7	Sololá	701	Sololá	3	Barraneche	9	Septiembre	2023-09-30T00:00:00	2024-11-06T19:00:00	6	Velocidad del viento	1.6
52382	7	Sololá	701	Sololá	3	Barraneche	9	Septiembre	2023-09-30T00:00:00	2024-11-06T19:00:00	7	Dirección del viento	1.61
52383	7	Sololá	701	Sololá	3	Barraneche	9	Septiembre	2023-09-30T00:00:00	2024-11-06T19:00:00	1	Precipitación	0
52384	7	Sololá	701	Sololá	3	Barraneche	9	Septiembre	2023-09-30T00:00:00	2024-11-06T19:00:00	8	Radiación solar	0
52385	7	Sololá	701	Sololá	3	Barraneche	9	Septiembre	2023-09-30T00:00:00	2024-11-06T20:00:00	2	Temperatura media	14.4
52386	7	Sololá	701	Sololá	3	Barraneche	9	Septiembre	2023-09-30T00:00:00	2024-11-06T20:00:00	4	Temperatura máxima	14.6
52387	7	Sololá	701	Sololá	3	Barraneche	9	Septiembre	2023-09-30T00:00:00	2024-11-06T20:00:00	3	Temperatura mínima	14.3
52388	7	Sololá	701	Sololá	3	Barraneche	9	Septiembre	2023-09-30T00:00:00	2024-11-06T20:00:00	5	Humedad	80
52389	7	Sololá	701	Sololá	3	Barraneche	9	Septiembre	2023-09-30T00:00:00	2024-11-06T20:00:00	6	Velocidad del viento	3.2
52390	7	Sololá	701	Sololá	3	Barraneche	9	Septiembre	2023-09-30T00:00:00	2024-11-06T20:00:00	7	Dirección del viento	3.22
52391	7	Sololá	701	Sololá	3	Barraneche	9	Septiembre	2023-09-30T00:00:00	2024-11-06T20:00:00	1	Precipitación	1.2
52392	7	Sololá	701	Sololá	3	Barraneche	9	Septiembre	2023-09-30T00:00:00	2024-11-06T20:00:00	8	Radiación solar	0
52393	7	Sololá	701	Sololá	3	Barraneche	9	Septiembre	2023-09-30T00:00:00	2024-11-06T21:00:00	2	Temperatura media	14.1
52394	7	Sololá	701	Sololá	3	Barraneche	9	Septiembre	2023-09-30T00:00:00	2024-11-06T21:00:00	4	Temperatura máxima	14.4
52395	7	Sololá	701	Sololá	3	Barraneche	9	Septiembre	2023-09-30T00:00:00	2024-11-06T21:00:00	3	Temperatura mínima	14.1
52396	7	Sololá	701	Sololá	3	Barraneche	9	Septiembre	2023-09-30T00:00:00	2024-11-06T21:00:00	5	Humedad	84
52397	7	Sololá	701	Sololá	3	Barraneche	9	Septiembre	2023-09-30T00:00:00	2024-11-06T21:00:00	6	Velocidad del viento	1.6
52398	7	Sololá	701	Sololá	3	Barraneche	9	Septiembre	2023-09-30T00:00:00	2024-11-06T21:00:00	7	Dirección del viento	1.61
52399	7	Sololá	701	Sololá	3	Barraneche	9	Septiembre	2023-09-30T00:00:00	2024-11-06T21:00:00	1	Precipitación	4
52400	7	Sololá	701	Sololá	3	Barraneche	9	Septiembre	2023-09-30T00:00:00	2024-11-06T21:00:00	8	Radiación solar	0
52401	7	Sololá	701	Sololá	3	Barraneche	9	Septiembre	2023-09-30T00:00:00	2024-11-06T22:00:00	2	Temperatura media	13.9
52402	7	Sololá	701	Sololá	3	Barraneche	9	Septiembre	2023-09-30T00:00:00	2024-11-06T22:00:00	4	Temperatura máxima	14.1
52403	7	Sololá	701	Sololá	3	Barraneche	9	Septiembre	2023-09-30T00:00:00	2024-11-06T22:00:00	3	Temperatura mínima	13.6
52404	7	Sololá	701	Sololá	3	Barraneche	9	Septiembre	2023-09-30T00:00:00	2024-11-06T22:00:00	5	Humedad	84
52405	7	Sololá	701	Sololá	3	Barraneche	9	Septiembre	2023-09-30T00:00:00	2024-11-06T22:00:00	6	Velocidad del viento	3.2
52406	7	Sololá	701	Sololá	3	Barraneche	9	Septiembre	2023-09-30T00:00:00	2024-11-06T22:00:00	7	Dirección del viento	3.22
52407	7	Sololá	701	Sololá	3	Barraneche	9	Septiembre	2023-09-30T00:00:00	2024-11-06T22:00:00	1	Precipitación	2.6
52408	7	Sololá	701	Sololá	3	Barraneche	9	Septiembre	2023-09-30T00:00:00	2024-11-06T22:00:00	8	Radiación solar	0
52409	7	Sololá	701	Sololá	3	Barraneche	9	Septiembre	2023-09-30T00:00:00	2024-11-06T23:00:00	2	Temperatura media	14.6
52410	7	Sololá	701	Sololá	3	Barraneche	9	Septiembre	2023-09-30T00:00:00	2024-11-06T23:00:00	4	Temperatura máxima	14.6
52411	7	Sololá	701	Sololá	3	Barraneche	9	Septiembre	2023-09-30T00:00:00	2024-11-06T23:00:00	3	Temperatura mínima	13.8
52412	7	Sololá	701	Sololá	3	Barraneche	9	Septiembre	2023-09-30T00:00:00	2024-11-06T23:00:00	5	Humedad	75
52413	7	Sololá	701	Sololá	3	Barraneche	9	Septiembre	2023-09-30T00:00:00	2024-11-06T23:00:00	6	Velocidad del viento	3.2
52414	7	Sololá	701	Sololá	3	Barraneche	9	Septiembre	2023-09-30T00:00:00	2024-11-06T23:00:00	7	Dirección del viento	3.22
52415	7	Sololá	701	Sololá	3	Barraneche	9	Septiembre	2023-09-30T00:00:00	2024-11-06T23:00:00	1	Precipitación	0.2
52416	7	Sololá	701	Sololá	3	Barraneche	9	Septiembre	2023-09-30T00:00:00	2024-11-06T23:00:00	8	Radiación solar	0
52417	7	Sololá	701	Sololá	3	Barraneche	10	Octubre	2023-01-10T00:00:00	2024-11-06T00:00:00	2	Temperatura media	14.3
52418	7	Sololá	701	Sololá	3	Barraneche	10	Octubre	2023-01-10T00:00:00	2024-11-06T00:00:00	4	Temperatura máxima	14.8
52419	7	Sololá	701	Sololá	3	Barraneche	10	Octubre	2023-01-10T00:00:00	2024-11-06T00:00:00	3	Temperatura mínima	14.1
52420	7	Sololá	701	Sololá	3	Barraneche	10	Octubre	2023-01-10T00:00:00	2024-11-06T00:00:00	5	Humedad	76
52421	7	Sololá	701	Sololá	3	Barraneche	10	Octubre	2023-01-10T00:00:00	2024-11-06T00:00:00	6	Velocidad del viento	4.8
52422	7	Sololá	701	Sololá	3	Barraneche	10	Octubre	2023-01-10T00:00:00	2024-11-06T00:00:00	7	Dirección del viento	4.83
52423	7	Sololá	701	Sololá	3	Barraneche	10	Octubre	2023-01-10T00:00:00	2024-11-06T00:00:00	1	Precipitación	0
52424	7	Sololá	701	Sololá	3	Barraneche	10	Octubre	2023-01-10T00:00:00	2024-11-06T00:00:00	8	Radiación solar	0
52425	7	Sololá	701	Sololá	3	Barraneche	10	Octubre	2023-01-10T00:00:00	2024-11-06T01:00:00	2	Temperatura media	13.5
52426	7	Sololá	701	Sololá	3	Barraneche	10	Octubre	2023-01-10T00:00:00	2024-11-06T01:00:00	4	Temperatura máxima	14.5
52427	7	Sololá	701	Sololá	3	Barraneche	10	Octubre	2023-01-10T00:00:00	2024-11-06T01:00:00	3	Temperatura mínima	13.3
52428	7	Sololá	701	Sololá	3	Barraneche	10	Octubre	2023-01-10T00:00:00	2024-11-06T01:00:00	5	Humedad	77
52429	7	Sololá	701	Sololá	3	Barraneche	10	Octubre	2023-01-10T00:00:00	2024-11-06T01:00:00	6	Velocidad del viento	1.6
52430	7	Sololá	701	Sololá	3	Barraneche	10	Octubre	2023-01-10T00:00:00	2024-11-06T01:00:00	7	Dirección del viento	1.61
52431	7	Sololá	701	Sololá	3	Barraneche	10	Octubre	2023-01-10T00:00:00	2024-11-06T01:00:00	1	Precipitación	0
52432	7	Sololá	701	Sololá	3	Barraneche	10	Octubre	2023-01-10T00:00:00	2024-11-06T01:00:00	8	Radiación solar	0
52433	7	Sololá	701	Sololá	3	Barraneche	10	Octubre	2023-01-10T00:00:00	2024-11-06T02:00:00	2	Temperatura media	12.7
52434	7	Sololá	701	Sololá	3	Barraneche	10	Octubre	2023-01-10T00:00:00	2024-11-06T02:00:00	4	Temperatura máxima	13.7
52435	7	Sololá	701	Sololá	3	Barraneche	10	Octubre	2023-01-10T00:00:00	2024-11-06T02:00:00	3	Temperatura mínima	12.7
52436	7	Sololá	701	Sololá	3	Barraneche	10	Octubre	2023-01-10T00:00:00	2024-11-06T02:00:00	5	Humedad	76
52437	7	Sololá	701	Sololá	3	Barraneche	10	Octubre	2023-01-10T00:00:00	2024-11-06T02:00:00	6	Velocidad del viento	1.6
52438	7	Sololá	701	Sololá	3	Barraneche	10	Octubre	2023-01-10T00:00:00	2024-11-06T02:00:00	7	Dirección del viento	1.61
52439	7	Sololá	701	Sololá	3	Barraneche	10	Octubre	2023-01-10T00:00:00	2024-11-06T02:00:00	1	Precipitación	0
52440	7	Sololá	701	Sololá	3	Barraneche	10	Octubre	2023-01-10T00:00:00	2024-11-06T02:00:00	8	Radiación solar	0
52441	7	Sololá	701	Sololá	3	Barraneche	10	Octubre	2023-01-10T00:00:00	2024-11-06T03:00:00	2	Temperatura media	12.9
52442	7	Sololá	701	Sololá	3	Barraneche	10	Octubre	2023-01-10T00:00:00	2024-11-06T03:00:00	4	Temperatura máxima	13.6
52443	7	Sololá	701	Sololá	3	Barraneche	10	Octubre	2023-01-10T00:00:00	2024-11-06T03:00:00	3	Temperatura mínima	12.7
52444	7	Sololá	701	Sololá	3	Barraneche	10	Octubre	2023-01-10T00:00:00	2024-11-06T03:00:00	5	Humedad	74
52445	7	Sololá	701	Sololá	3	Barraneche	10	Octubre	2023-01-10T00:00:00	2024-11-06T03:00:00	6	Velocidad del viento	4.8
52446	7	Sololá	701	Sololá	3	Barraneche	10	Octubre	2023-01-10T00:00:00	2024-11-06T03:00:00	7	Dirección del viento	4.83
52447	7	Sololá	701	Sololá	3	Barraneche	10	Octubre	2023-01-10T00:00:00	2024-11-06T03:00:00	1	Precipitación	0
52448	7	Sololá	701	Sololá	3	Barraneche	10	Octubre	2023-01-10T00:00:00	2024-11-06T03:00:00	8	Radiación solar	0
52449	7	Sololá	701	Sololá	3	Barraneche	10	Octubre	2023-01-10T00:00:00	2024-11-06T04:00:00	2	Temperatura media	12.6
52450	7	Sololá	701	Sololá	3	Barraneche	10	Octubre	2023-01-10T00:00:00	2024-11-06T04:00:00	4	Temperatura máxima	13
52451	7	Sololá	701	Sololá	3	Barraneche	10	Octubre	2023-01-10T00:00:00	2024-11-06T04:00:00	3	Temperatura mínima	11.9
52452	7	Sololá	701	Sololá	3	Barraneche	10	Octubre	2023-01-10T00:00:00	2024-11-06T04:00:00	5	Humedad	73
52453	7	Sololá	701	Sololá	3	Barraneche	10	Octubre	2023-01-10T00:00:00	2024-11-06T04:00:00	6	Velocidad del viento	4.8
52454	7	Sololá	701	Sololá	3	Barraneche	10	Octubre	2023-01-10T00:00:00	2024-11-06T04:00:00	7	Dirección del viento	4.83
52455	7	Sololá	701	Sololá	3	Barraneche	10	Octubre	2023-01-10T00:00:00	2024-11-06T04:00:00	1	Precipitación	0
52456	7	Sololá	701	Sololá	3	Barraneche	10	Octubre	2023-01-10T00:00:00	2024-11-06T04:00:00	8	Radiación solar	0
52457	7	Sololá	701	Sololá	3	Barraneche	10	Octubre	2023-01-10T00:00:00	2024-11-06T05:00:00	2	Temperatura media	11.1
52458	7	Sololá	701	Sololá	3	Barraneche	10	Octubre	2023-01-10T00:00:00	2024-11-06T05:00:00	4	Temperatura máxima	12.7
52459	7	Sololá	701	Sololá	3	Barraneche	10	Octubre	2023-01-10T00:00:00	2024-11-06T05:00:00	3	Temperatura mínima	11.1
52460	7	Sololá	701	Sololá	3	Barraneche	10	Octubre	2023-01-10T00:00:00	2024-11-06T05:00:00	5	Humedad	75
52461	7	Sololá	701	Sololá	3	Barraneche	10	Octubre	2023-01-10T00:00:00	2024-11-06T05:00:00	6	Velocidad del viento	4.8
52462	7	Sololá	701	Sololá	3	Barraneche	10	Octubre	2023-01-10T00:00:00	2024-11-06T05:00:00	7	Dirección del viento	4.83
52463	7	Sololá	701	Sololá	3	Barraneche	10	Octubre	2023-01-10T00:00:00	2024-11-06T05:00:00	1	Precipitación	0
52464	7	Sololá	701	Sololá	3	Barraneche	10	Octubre	2023-01-10T00:00:00	2024-11-06T05:00:00	8	Radiación solar	0
52465	7	Sololá	701	Sololá	3	Barraneche	10	Octubre	2023-01-10T00:00:00	2024-11-06T06:00:00	2	Temperatura media	12.2
52466	7	Sololá	701	Sololá	3	Barraneche	10	Octubre	2023-01-10T00:00:00	2024-11-06T06:00:00	4	Temperatura máxima	12.2
52467	7	Sololá	701	Sololá	3	Barraneche	10	Octubre	2023-01-10T00:00:00	2024-11-06T06:00:00	3	Temperatura mínima	10.8
52468	7	Sololá	701	Sololá	3	Barraneche	10	Octubre	2023-01-10T00:00:00	2024-11-06T06:00:00	5	Humedad	73
52469	7	Sololá	701	Sololá	3	Barraneche	10	Octubre	2023-01-10T00:00:00	2024-11-06T06:00:00	6	Velocidad del viento	4.8
52470	7	Sololá	701	Sololá	3	Barraneche	10	Octubre	2023-01-10T00:00:00	2024-11-06T06:00:00	7	Dirección del viento	4.83
52471	7	Sololá	701	Sololá	3	Barraneche	10	Octubre	2023-01-10T00:00:00	2024-11-06T06:00:00	1	Precipitación	0
52472	7	Sololá	701	Sololá	3	Barraneche	10	Octubre	2023-01-10T00:00:00	2024-11-06T06:00:00	8	Radiación solar	1
52473	7	Sololá	701	Sololá	3	Barraneche	10	Octubre	2023-01-10T00:00:00	2024-11-06T07:00:00	2	Temperatura media	13.8
52474	7	Sololá	701	Sololá	3	Barraneche	10	Octubre	2023-01-10T00:00:00	2024-11-06T07:00:00	4	Temperatura máxima	13.8
52475	7	Sololá	701	Sololá	3	Barraneche	10	Octubre	2023-01-10T00:00:00	2024-11-06T07:00:00	3	Temperatura mínima	11.8
52476	7	Sololá	701	Sololá	3	Barraneche	10	Octubre	2023-01-10T00:00:00	2024-11-06T07:00:00	5	Humedad	69
52477	7	Sololá	701	Sololá	3	Barraneche	10	Octubre	2023-01-10T00:00:00	2024-11-06T07:00:00	6	Velocidad del viento	3.2
52478	7	Sololá	701	Sololá	3	Barraneche	10	Octubre	2023-01-10T00:00:00	2024-11-06T07:00:00	7	Dirección del viento	3.22
52479	7	Sololá	701	Sololá	3	Barraneche	10	Octubre	2023-01-10T00:00:00	2024-11-06T07:00:00	1	Precipitación	0
52480	7	Sololá	701	Sololá	3	Barraneche	10	Octubre	2023-01-10T00:00:00	2024-11-06T07:00:00	8	Radiación solar	60
52481	7	Sololá	701	Sololá	3	Barraneche	10	Octubre	2023-01-10T00:00:00	2024-11-06T08:00:00	2	Temperatura media	16.3
52482	7	Sololá	701	Sololá	3	Barraneche	10	Octubre	2023-01-10T00:00:00	2024-11-06T08:00:00	4	Temperatura máxima	16.3
52483	7	Sololá	701	Sololá	3	Barraneche	10	Octubre	2023-01-10T00:00:00	2024-11-06T08:00:00	3	Temperatura mínima	13.8
52484	7	Sololá	701	Sololá	3	Barraneche	10	Octubre	2023-01-10T00:00:00	2024-11-06T08:00:00	5	Humedad	68
52485	7	Sololá	701	Sololá	3	Barraneche	10	Octubre	2023-01-10T00:00:00	2024-11-06T08:00:00	6	Velocidad del viento	1.6
52486	7	Sololá	701	Sololá	3	Barraneche	10	Octubre	2023-01-10T00:00:00	2024-11-06T08:00:00	7	Dirección del viento	1.61
52487	7	Sololá	701	Sololá	3	Barraneche	10	Octubre	2023-01-10T00:00:00	2024-11-06T08:00:00	1	Precipitación	0
52488	7	Sololá	701	Sololá	3	Barraneche	10	Octubre	2023-01-10T00:00:00	2024-11-06T08:00:00	8	Radiación solar	330
52489	7	Sololá	701	Sololá	3	Barraneche	10	Octubre	2023-01-10T00:00:00	2024-11-06T09:00:00	2	Temperatura media	18.8
52490	7	Sololá	701	Sololá	3	Barraneche	10	Octubre	2023-01-10T00:00:00	2024-11-06T09:00:00	4	Temperatura máxima	18.9
52491	7	Sololá	701	Sololá	3	Barraneche	10	Octubre	2023-01-10T00:00:00	2024-11-06T09:00:00	3	Temperatura mínima	16.3
52492	7	Sololá	701	Sololá	3	Barraneche	10	Octubre	2023-01-10T00:00:00	2024-11-06T09:00:00	5	Humedad	62
52493	7	Sololá	701	Sololá	3	Barraneche	10	Octubre	2023-01-10T00:00:00	2024-11-06T09:00:00	6	Velocidad del viento	4.8
52494	7	Sololá	701	Sololá	3	Barraneche	10	Octubre	2023-01-10T00:00:00	2024-11-06T09:00:00	7	Dirección del viento	4.83
52495	7	Sololá	701	Sololá	3	Barraneche	10	Octubre	2023-01-10T00:00:00	2024-11-06T09:00:00	1	Precipitación	0
52496	7	Sololá	701	Sololá	3	Barraneche	10	Octubre	2023-01-10T00:00:00	2024-11-06T09:00:00	8	Radiación solar	572
52497	7	Sololá	701	Sololá	3	Barraneche	10	Octubre	2023-01-10T00:00:00	2024-11-06T10:00:00	2	Temperatura media	19.6
52498	7	Sololá	701	Sololá	3	Barraneche	10	Octubre	2023-01-10T00:00:00	2024-11-06T10:00:00	4	Temperatura máxima	19.7
52499	7	Sololá	701	Sololá	3	Barraneche	10	Octubre	2023-01-10T00:00:00	2024-11-06T10:00:00	3	Temperatura mínima	18.7
52500	7	Sololá	701	Sololá	3	Barraneche	10	Octubre	2023-01-10T00:00:00	2024-11-06T10:00:00	5	Humedad	56
52501	7	Sololá	701	Sololá	3	Barraneche	10	Octubre	2023-01-10T00:00:00	2024-11-06T10:00:00	6	Velocidad del viento	9.7
52502	7	Sololá	701	Sololá	3	Barraneche	10	Octubre	2023-01-10T00:00:00	2024-11-06T10:00:00	7	Dirección del viento	9.66
52503	7	Sololá	701	Sololá	3	Barraneche	10	Octubre	2023-01-10T00:00:00	2024-11-06T10:00:00	1	Precipitación	0
52504	7	Sololá	701	Sololá	3	Barraneche	10	Octubre	2023-01-10T00:00:00	2024-11-06T10:00:00	8	Radiación solar	781
52505	7	Sololá	701	Sololá	3	Barraneche	10	Octubre	2023-01-10T00:00:00	2024-11-06T11:00:00	2	Temperatura media	20.2
52506	7	Sololá	701	Sololá	3	Barraneche	10	Octubre	2023-01-10T00:00:00	2024-11-06T11:00:00	4	Temperatura máxima	20.3
52507	7	Sololá	701	Sololá	3	Barraneche	10	Octubre	2023-01-10T00:00:00	2024-11-06T11:00:00	3	Temperatura mínima	19.5
52508	7	Sololá	701	Sololá	3	Barraneche	10	Octubre	2023-01-10T00:00:00	2024-11-06T11:00:00	5	Humedad	58
52509	7	Sololá	701	Sololá	3	Barraneche	10	Octubre	2023-01-10T00:00:00	2024-11-06T11:00:00	6	Velocidad del viento	11.3
52510	7	Sololá	701	Sololá	3	Barraneche	10	Octubre	2023-01-10T00:00:00	2024-11-06T11:00:00	7	Dirección del viento	11.27
52511	7	Sololá	701	Sololá	3	Barraneche	10	Octubre	2023-01-10T00:00:00	2024-11-06T11:00:00	1	Precipitación	0
52512	7	Sololá	701	Sololá	3	Barraneche	10	Octubre	2023-01-10T00:00:00	2024-11-06T11:00:00	8	Radiación solar	853
52513	7	Sololá	701	Sololá	3	Barraneche	10	Octubre	2023-01-10T00:00:00	2024-11-06T12:00:00	2	Temperatura media	20.6
52514	7	Sololá	701	Sololá	3	Barraneche	10	Octubre	2023-01-10T00:00:00	2024-11-06T12:00:00	4	Temperatura máxima	21
52515	7	Sololá	701	Sololá	3	Barraneche	10	Octubre	2023-01-10T00:00:00	2024-11-06T12:00:00	3	Temperatura mínima	20.2
52516	7	Sololá	701	Sololá	3	Barraneche	10	Octubre	2023-01-10T00:00:00	2024-11-06T12:00:00	5	Humedad	51
52517	7	Sololá	701	Sololá	3	Barraneche	10	Octubre	2023-01-10T00:00:00	2024-11-06T12:00:00	6	Velocidad del viento	11.3
52518	7	Sololá	701	Sololá	3	Barraneche	10	Octubre	2023-01-10T00:00:00	2024-11-06T12:00:00	7	Dirección del viento	11.27
52519	7	Sololá	701	Sololá	3	Barraneche	10	Octubre	2023-01-10T00:00:00	2024-11-06T12:00:00	1	Precipitación	0
52520	7	Sololá	701	Sololá	3	Barraneche	10	Octubre	2023-01-10T00:00:00	2024-11-06T12:00:00	8	Radiación solar	1037
52521	7	Sololá	701	Sololá	3	Barraneche	10	Octubre	2023-01-10T00:00:00	2024-11-06T13:00:00	2	Temperatura media	20.8
52522	7	Sololá	701	Sololá	3	Barraneche	10	Octubre	2023-01-10T00:00:00	2024-11-06T13:00:00	4	Temperatura máxima	20.9
52523	7	Sololá	701	Sololá	3	Barraneche	10	Octubre	2023-01-10T00:00:00	2024-11-06T13:00:00	3	Temperatura mínima	19.1
52524	7	Sololá	701	Sololá	3	Barraneche	10	Octubre	2023-01-10T00:00:00	2024-11-06T13:00:00	5	Humedad	55
52525	7	Sololá	701	Sololá	3	Barraneche	10	Octubre	2023-01-10T00:00:00	2024-11-06T13:00:00	6	Velocidad del viento	12.9
52526	7	Sololá	701	Sololá	3	Barraneche	10	Octubre	2023-01-10T00:00:00	2024-11-06T13:00:00	7	Dirección del viento	12.87
52527	7	Sololá	701	Sololá	3	Barraneche	10	Octubre	2023-01-10T00:00:00	2024-11-06T13:00:00	1	Precipitación	0
52528	7	Sololá	701	Sololá	3	Barraneche	10	Octubre	2023-01-10T00:00:00	2024-11-06T13:00:00	8	Radiación solar	912
52529	7	Sololá	701	Sololá	3	Barraneche	10	Octubre	2023-01-10T00:00:00	2024-11-06T14:00:00	2	Temperatura media	20.2
52530	7	Sololá	701	Sololá	3	Barraneche	10	Octubre	2023-01-10T00:00:00	2024-11-06T14:00:00	4	Temperatura máxima	21.1
52531	7	Sololá	701	Sololá	3	Barraneche	10	Octubre	2023-01-10T00:00:00	2024-11-06T14:00:00	3	Temperatura mínima	20.1
52532	7	Sololá	701	Sololá	3	Barraneche	10	Octubre	2023-01-10T00:00:00	2024-11-06T14:00:00	5	Humedad	54
52533	7	Sololá	701	Sololá	3	Barraneche	10	Octubre	2023-01-10T00:00:00	2024-11-06T14:00:00	6	Velocidad del viento	12.9
52534	7	Sololá	701	Sololá	3	Barraneche	10	Octubre	2023-01-10T00:00:00	2024-11-06T14:00:00	7	Dirección del viento	12.87
52535	7	Sololá	701	Sololá	3	Barraneche	10	Octubre	2023-01-10T00:00:00	2024-11-06T14:00:00	1	Precipitación	0
52536	7	Sololá	701	Sololá	3	Barraneche	10	Octubre	2023-01-10T00:00:00	2024-11-06T14:00:00	8	Radiación solar	845
52537	7	Sololá	701	Sololá	3	Barraneche	10	Octubre	2023-01-10T00:00:00	2024-11-06T15:00:00	2	Temperatura media	19
52538	7	Sololá	701	Sololá	3	Barraneche	10	Octubre	2023-01-10T00:00:00	2024-11-06T15:00:00	4	Temperatura máxima	20.8
52539	7	Sololá	701	Sololá	3	Barraneche	10	Octubre	2023-01-10T00:00:00	2024-11-06T15:00:00	3	Temperatura mínima	18.4
52540	7	Sololá	701	Sololá	3	Barraneche	10	Octubre	2023-01-10T00:00:00	2024-11-06T15:00:00	5	Humedad	67
52541	7	Sololá	701	Sololá	3	Barraneche	10	Octubre	2023-01-10T00:00:00	2024-11-06T15:00:00	6	Velocidad del viento	12.9
52542	7	Sololá	701	Sololá	3	Barraneche	10	Octubre	2023-01-10T00:00:00	2024-11-06T15:00:00	7	Dirección del viento	12.87
52543	7	Sololá	701	Sololá	3	Barraneche	10	Octubre	2023-01-10T00:00:00	2024-11-06T15:00:00	1	Precipitación	0
52544	7	Sololá	701	Sololá	3	Barraneche	10	Octubre	2023-01-10T00:00:00	2024-11-06T15:00:00	8	Radiación solar	526
52545	7	Sololá	701	Sololá	3	Barraneche	10	Octubre	2023-01-10T00:00:00	2024-11-06T16:00:00	2	Temperatura media	17.6
52546	7	Sololá	701	Sololá	3	Barraneche	10	Octubre	2023-01-10T00:00:00	2024-11-06T16:00:00	4	Temperatura máxima	19
52547	7	Sololá	701	Sololá	3	Barraneche	10	Octubre	2023-01-10T00:00:00	2024-11-06T16:00:00	3	Temperatura mínima	17.6
52548	7	Sololá	701	Sololá	3	Barraneche	10	Octubre	2023-01-10T00:00:00	2024-11-06T16:00:00	5	Humedad	73
52549	7	Sololá	701	Sololá	3	Barraneche	10	Octubre	2023-01-10T00:00:00	2024-11-06T16:00:00	6	Velocidad del viento	11.3
52550	7	Sololá	701	Sololá	3	Barraneche	10	Octubre	2023-01-10T00:00:00	2024-11-06T16:00:00	7	Dirección del viento	11.27
52551	7	Sololá	701	Sololá	3	Barraneche	10	Octubre	2023-01-10T00:00:00	2024-11-06T16:00:00	1	Precipitación	0
52552	7	Sololá	701	Sololá	3	Barraneche	10	Octubre	2023-01-10T00:00:00	2024-11-06T16:00:00	8	Radiación solar	250
52553	7	Sololá	701	Sololá	3	Barraneche	10	Octubre	2023-01-10T00:00:00	2024-11-06T17:00:00	2	Temperatura media	17.5
52554	7	Sololá	701	Sololá	3	Barraneche	10	Octubre	2023-01-10T00:00:00	2024-11-06T17:00:00	4	Temperatura máxima	17.7
52555	7	Sololá	701	Sololá	3	Barraneche	10	Octubre	2023-01-10T00:00:00	2024-11-06T17:00:00	3	Temperatura mínima	17.1
52556	7	Sololá	701	Sololá	3	Barraneche	10	Octubre	2023-01-10T00:00:00	2024-11-06T17:00:00	5	Humedad	66
52557	7	Sololá	701	Sololá	3	Barraneche	10	Octubre	2023-01-10T00:00:00	2024-11-06T17:00:00	6	Velocidad del viento	6.4
52558	7	Sololá	701	Sololá	3	Barraneche	10	Octubre	2023-01-10T00:00:00	2024-11-06T17:00:00	7	Dirección del viento	6.44
52559	7	Sololá	701	Sololá	3	Barraneche	10	Octubre	2023-01-10T00:00:00	2024-11-06T17:00:00	1	Precipitación	0
52560	7	Sololá	701	Sololá	3	Barraneche	10	Octubre	2023-01-10T00:00:00	2024-11-06T17:00:00	8	Radiación solar	71
52561	7	Sololá	701	Sololá	3	Barraneche	10	Octubre	2023-01-10T00:00:00	2024-11-06T18:00:00	2	Temperatura media	16.5
52562	7	Sololá	701	Sololá	3	Barraneche	10	Octubre	2023-01-10T00:00:00	2024-11-06T18:00:00	4	Temperatura máxima	17.5
52563	7	Sololá	701	Sololá	3	Barraneche	10	Octubre	2023-01-10T00:00:00	2024-11-06T18:00:00	3	Temperatura mínima	16.5
52564	7	Sololá	701	Sololá	3	Barraneche	10	Octubre	2023-01-10T00:00:00	2024-11-06T18:00:00	5	Humedad	67
52565	7	Sololá	701	Sololá	3	Barraneche	10	Octubre	2023-01-10T00:00:00	2024-11-06T18:00:00	6	Velocidad del viento	4.8
52566	7	Sololá	701	Sololá	3	Barraneche	10	Octubre	2023-01-10T00:00:00	2024-11-06T18:00:00	7	Dirección del viento	4.83
52567	7	Sololá	701	Sololá	3	Barraneche	10	Octubre	2023-01-10T00:00:00	2024-11-06T18:00:00	1	Precipitación	0
52568	7	Sololá	701	Sololá	3	Barraneche	10	Octubre	2023-01-10T00:00:00	2024-11-06T18:00:00	8	Radiación solar	30
52569	7	Sololá	701	Sololá	3	Barraneche	10	Octubre	2023-01-10T00:00:00	2024-11-06T19:00:00	2	Temperatura media	15.2
52570	7	Sololá	701	Sololá	3	Barraneche	10	Octubre	2023-01-10T00:00:00	2024-11-06T19:00:00	4	Temperatura máxima	16.5
52571	7	Sololá	701	Sololá	3	Barraneche	10	Octubre	2023-01-10T00:00:00	2024-11-06T19:00:00	3	Temperatura mínima	15.2
52572	7	Sololá	701	Sololá	3	Barraneche	10	Octubre	2023-01-10T00:00:00	2024-11-06T19:00:00	5	Humedad	78
52573	7	Sololá	701	Sololá	3	Barraneche	10	Octubre	2023-01-10T00:00:00	2024-11-06T19:00:00	6	Velocidad del viento	3.2
52574	7	Sololá	701	Sololá	3	Barraneche	10	Octubre	2023-01-10T00:00:00	2024-11-06T19:00:00	7	Dirección del viento	3.22
52575	7	Sololá	701	Sololá	3	Barraneche	10	Octubre	2023-01-10T00:00:00	2024-11-06T19:00:00	1	Precipitación	0
52576	7	Sololá	701	Sololá	3	Barraneche	10	Octubre	2023-01-10T00:00:00	2024-11-06T19:00:00	8	Radiación solar	0
52577	7	Sololá	701	Sololá	3	Barraneche	10	Octubre	2023-01-10T00:00:00	2024-11-06T20:00:00	2	Temperatura media	15.1
52578	7	Sololá	701	Sololá	3	Barraneche	10	Octubre	2023-01-10T00:00:00	2024-11-06T20:00:00	4	Temperatura máxima	15.2
52579	7	Sololá	701	Sololá	3	Barraneche	10	Octubre	2023-01-10T00:00:00	2024-11-06T20:00:00	3	Temperatura mínima	15
52580	7	Sololá	701	Sololá	3	Barraneche	10	Octubre	2023-01-10T00:00:00	2024-11-06T20:00:00	5	Humedad	83
52581	7	Sololá	701	Sololá	3	Barraneche	10	Octubre	2023-01-10T00:00:00	2024-11-06T20:00:00	6	Velocidad del viento	1.6
52582	7	Sololá	701	Sololá	3	Barraneche	10	Octubre	2023-01-10T00:00:00	2024-11-06T20:00:00	7	Dirección del viento	1.61
52583	7	Sololá	701	Sololá	3	Barraneche	10	Octubre	2023-01-10T00:00:00	2024-11-06T20:00:00	1	Precipitación	0
52584	7	Sololá	701	Sololá	3	Barraneche	10	Octubre	2023-01-10T00:00:00	2024-11-06T20:00:00	8	Radiación solar	0
52585	7	Sololá	701	Sololá	3	Barraneche	10	Octubre	2023-01-10T00:00:00	2024-11-06T21:00:00	2	Temperatura media	14.9
52586	7	Sololá	701	Sololá	3	Barraneche	10	Octubre	2023-01-10T00:00:00	2024-11-06T21:00:00	4	Temperatura máxima	15.2
52587	7	Sololá	701	Sololá	3	Barraneche	10	Octubre	2023-01-10T00:00:00	2024-11-06T21:00:00	3	Temperatura mínima	14.9
52588	7	Sololá	701	Sololá	3	Barraneche	10	Octubre	2023-01-10T00:00:00	2024-11-06T21:00:00	5	Humedad	83
52589	7	Sololá	701	Sololá	3	Barraneche	10	Octubre	2023-01-10T00:00:00	2024-11-06T21:00:00	6	Velocidad del viento	1.6
52590	7	Sololá	701	Sololá	3	Barraneche	10	Octubre	2023-01-10T00:00:00	2024-11-06T21:00:00	7	Dirección del viento	1.61
52591	7	Sololá	701	Sololá	3	Barraneche	10	Octubre	2023-01-10T00:00:00	2024-11-06T21:00:00	1	Precipitación	2
52592	7	Sololá	701	Sololá	3	Barraneche	10	Octubre	2023-01-10T00:00:00	2024-11-06T21:00:00	8	Radiación solar	0
52593	7	Sololá	701	Sololá	3	Barraneche	10	Octubre	2023-01-10T00:00:00	2024-11-06T22:00:00	2	Temperatura media	14.8
52594	7	Sololá	701	Sololá	3	Barraneche	10	Octubre	2023-01-10T00:00:00	2024-11-06T22:00:00	4	Temperatura máxima	14.9
52595	7	Sololá	701	Sololá	3	Barraneche	10	Octubre	2023-01-10T00:00:00	2024-11-06T22:00:00	3	Temperatura mínima	14.6
52596	7	Sololá	701	Sololá	3	Barraneche	10	Octubre	2023-01-10T00:00:00	2024-11-06T22:00:00	5	Humedad	78
52597	7	Sololá	701	Sololá	3	Barraneche	10	Octubre	2023-01-10T00:00:00	2024-11-06T22:00:00	6	Velocidad del viento	3.2
52598	7	Sololá	701	Sololá	3	Barraneche	10	Octubre	2023-01-10T00:00:00	2024-11-06T22:00:00	7	Dirección del viento	3.22
52599	7	Sololá	701	Sololá	3	Barraneche	10	Octubre	2023-01-10T00:00:00	2024-11-06T22:00:00	1	Precipitación	0.4
52600	7	Sololá	701	Sololá	3	Barraneche	10	Octubre	2023-01-10T00:00:00	2024-11-06T22:00:00	8	Radiación solar	0
52601	7	Sololá	701	Sololá	3	Barraneche	10	Octubre	2023-01-10T00:00:00	2024-11-06T23:00:00	2	Temperatura media	14.7
52602	7	Sololá	701	Sololá	3	Barraneche	10	Octubre	2023-01-10T00:00:00	2024-11-06T23:00:00	4	Temperatura máxima	15.2
52603	7	Sololá	701	Sololá	3	Barraneche	10	Octubre	2023-01-10T00:00:00	2024-11-06T23:00:00	3	Temperatura mínima	14.7
52604	7	Sololá	701	Sololá	3	Barraneche	10	Octubre	2023-01-10T00:00:00	2024-11-06T23:00:00	5	Humedad	73
52605	7	Sololá	701	Sololá	3	Barraneche	10	Octubre	2023-01-10T00:00:00	2024-11-06T23:00:00	6	Velocidad del viento	4.8
52606	7	Sololá	701	Sololá	3	Barraneche	10	Octubre	2023-01-10T00:00:00	2024-11-06T23:00:00	7	Dirección del viento	4.83
52607	7	Sololá	701	Sololá	3	Barraneche	10	Octubre	2023-01-10T00:00:00	2024-11-06T23:00:00	1	Precipitación	0
52608	7	Sololá	701	Sololá	3	Barraneche	10	Octubre	2023-01-10T00:00:00	2024-11-06T23:00:00	8	Radiación solar	0
52609	7	Sololá	701	Sololá	3	Barraneche	10	Octubre	2023-02-10T00:00:00	2024-11-06T00:00:00	2	Temperatura media	14
52610	7	Sololá	701	Sololá	3	Barraneche	10	Octubre	2023-02-10T00:00:00	2024-11-06T00:00:00	4	Temperatura máxima	14.8
52611	7	Sololá	701	Sololá	3	Barraneche	10	Octubre	2023-02-10T00:00:00	2024-11-06T00:00:00	3	Temperatura mínima	13.9
52612	7	Sololá	701	Sololá	3	Barraneche	10	Octubre	2023-02-10T00:00:00	2024-11-06T00:00:00	5	Humedad	80
52613	7	Sololá	701	Sololá	3	Barraneche	10	Octubre	2023-02-10T00:00:00	2024-11-06T00:00:00	6	Velocidad del viento	1.6
52614	7	Sololá	701	Sololá	3	Barraneche	10	Octubre	2023-02-10T00:00:00	2024-11-06T00:00:00	7	Dirección del viento	1.61
52615	7	Sololá	701	Sololá	3	Barraneche	10	Octubre	2023-02-10T00:00:00	2024-11-06T00:00:00	1	Precipitación	0
52616	7	Sololá	701	Sololá	3	Barraneche	10	Octubre	2023-02-10T00:00:00	2024-11-06T00:00:00	8	Radiación solar	0
52617	7	Sololá	701	Sololá	3	Barraneche	10	Octubre	2023-02-10T00:00:00	2024-11-06T01:00:00	2	Temperatura media	13.9
52618	7	Sololá	701	Sololá	3	Barraneche	10	Octubre	2023-02-10T00:00:00	2024-11-06T01:00:00	4	Temperatura máxima	14.1
52619	7	Sololá	701	Sololá	3	Barraneche	10	Octubre	2023-02-10T00:00:00	2024-11-06T01:00:00	3	Temperatura mínima	13.8
52620	7	Sololá	701	Sololá	3	Barraneche	10	Octubre	2023-02-10T00:00:00	2024-11-06T01:00:00	5	Humedad	84
52621	7	Sololá	701	Sololá	3	Barraneche	10	Octubre	2023-02-10T00:00:00	2024-11-06T01:00:00	6	Velocidad del viento	1.6
52622	7	Sololá	701	Sololá	3	Barraneche	10	Octubre	2023-02-10T00:00:00	2024-11-06T01:00:00	7	Dirección del viento	1.61
52623	7	Sololá	701	Sololá	3	Barraneche	10	Octubre	2023-02-10T00:00:00	2024-11-06T01:00:00	1	Precipitación	0
52624	7	Sololá	701	Sololá	3	Barraneche	10	Octubre	2023-02-10T00:00:00	2024-11-06T01:00:00	8	Radiación solar	0
52625	7	Sololá	701	Sololá	3	Barraneche	10	Octubre	2023-02-10T00:00:00	2024-11-06T02:00:00	2	Temperatura media	13.7
52626	7	Sololá	701	Sololá	3	Barraneche	10	Octubre	2023-02-10T00:00:00	2024-11-06T02:00:00	4	Temperatura máxima	13.9
52627	7	Sololá	701	Sololá	3	Barraneche	10	Octubre	2023-02-10T00:00:00	2024-11-06T02:00:00	3	Temperatura mínima	13.7
52628	7	Sololá	701	Sololá	3	Barraneche	10	Octubre	2023-02-10T00:00:00	2024-11-06T02:00:00	5	Humedad	84
52629	7	Sololá	701	Sololá	3	Barraneche	10	Octubre	2023-02-10T00:00:00	2024-11-06T02:00:00	6	Velocidad del viento	1.6
52630	7	Sololá	701	Sololá	3	Barraneche	10	Octubre	2023-02-10T00:00:00	2024-11-06T02:00:00	7	Dirección del viento	1.61
52631	7	Sololá	701	Sololá	3	Barraneche	10	Octubre	2023-02-10T00:00:00	2024-11-06T02:00:00	1	Precipitación	0
52632	7	Sololá	701	Sololá	3	Barraneche	10	Octubre	2023-02-10T00:00:00	2024-11-06T02:00:00	8	Radiación solar	0
52633	7	Sololá	701	Sololá	3	Barraneche	10	Octubre	2023-02-10T00:00:00	2024-11-06T03:00:00	2	Temperatura media	13.1
52634	7	Sololá	701	Sololá	3	Barraneche	10	Octubre	2023-02-10T00:00:00	2024-11-06T03:00:00	4	Temperatura máxima	13.7
52635	7	Sololá	701	Sololá	3	Barraneche	10	Octubre	2023-02-10T00:00:00	2024-11-06T03:00:00	3	Temperatura mínima	13
52636	7	Sololá	701	Sololá	3	Barraneche	10	Octubre	2023-02-10T00:00:00	2024-11-06T03:00:00	5	Humedad	84
52637	7	Sololá	701	Sololá	3	Barraneche	10	Octubre	2023-02-10T00:00:00	2024-11-06T03:00:00	6	Velocidad del viento	1.6
52638	7	Sololá	701	Sololá	3	Barraneche	10	Octubre	2023-02-10T00:00:00	2024-11-06T03:00:00	7	Dirección del viento	1.61
52639	7	Sololá	701	Sololá	3	Barraneche	10	Octubre	2023-02-10T00:00:00	2024-11-06T03:00:00	1	Precipitación	0
52640	7	Sololá	701	Sololá	3	Barraneche	10	Octubre	2023-02-10T00:00:00	2024-11-06T03:00:00	8	Radiación solar	0
52641	7	Sololá	701	Sololá	3	Barraneche	10	Octubre	2023-02-10T00:00:00	2024-11-06T04:00:00	2	Temperatura media	12.9
52642	7	Sololá	701	Sololá	3	Barraneche	10	Octubre	2023-02-10T00:00:00	2024-11-06T04:00:00	4	Temperatura máxima	13.1
52643	7	Sololá	701	Sololá	3	Barraneche	10	Octubre	2023-02-10T00:00:00	2024-11-06T04:00:00	3	Temperatura mínima	12.8
52644	7	Sololá	701	Sololá	3	Barraneche	10	Octubre	2023-02-10T00:00:00	2024-11-06T04:00:00	5	Humedad	84
52645	7	Sololá	701	Sololá	3	Barraneche	10	Octubre	2023-02-10T00:00:00	2024-11-06T04:00:00	6	Velocidad del viento	1.6
52646	7	Sololá	701	Sololá	3	Barraneche	10	Octubre	2023-02-10T00:00:00	2024-11-06T04:00:00	7	Dirección del viento	1.61
52647	7	Sololá	701	Sololá	3	Barraneche	10	Octubre	2023-02-10T00:00:00	2024-11-06T04:00:00	1	Precipitación	0.2
52648	7	Sololá	701	Sololá	3	Barraneche	10	Octubre	2023-02-10T00:00:00	2024-11-06T04:00:00	8	Radiación solar	0
52649	7	Sololá	701	Sololá	3	Barraneche	10	Octubre	2023-02-10T00:00:00	2024-11-06T05:00:00	2	Temperatura media	12.3
52650	7	Sololá	701	Sololá	3	Barraneche	10	Octubre	2023-02-10T00:00:00	2024-11-06T05:00:00	4	Temperatura máxima	13
52651	7	Sololá	701	Sololá	3	Barraneche	10	Octubre	2023-02-10T00:00:00	2024-11-06T05:00:00	3	Temperatura mínima	12.3
52652	7	Sololá	701	Sololá	3	Barraneche	10	Octubre	2023-02-10T00:00:00	2024-11-06T05:00:00	5	Humedad	84
52653	7	Sololá	701	Sololá	3	Barraneche	10	Octubre	2023-02-10T00:00:00	2024-11-06T05:00:00	6	Velocidad del viento	1.6
52654	7	Sololá	701	Sololá	3	Barraneche	10	Octubre	2023-02-10T00:00:00	2024-11-06T05:00:00	7	Dirección del viento	1.61
52655	7	Sololá	701	Sololá	3	Barraneche	10	Octubre	2023-02-10T00:00:00	2024-11-06T05:00:00	1	Precipitación	0
52656	7	Sololá	701	Sololá	3	Barraneche	10	Octubre	2023-02-10T00:00:00	2024-11-06T05:00:00	8	Radiación solar	0
52657	7	Sololá	701	Sololá	3	Barraneche	10	Octubre	2023-02-10T00:00:00	2024-11-06T06:00:00	2	Temperatura media	11.9
52658	7	Sololá	701	Sololá	3	Barraneche	10	Octubre	2023-02-10T00:00:00	2024-11-06T06:00:00	4	Temperatura máxima	12.3
52659	7	Sololá	701	Sololá	3	Barraneche	10	Octubre	2023-02-10T00:00:00	2024-11-06T06:00:00	3	Temperatura mínima	11.9
52660	7	Sololá	701	Sololá	3	Barraneche	10	Octubre	2023-02-10T00:00:00	2024-11-06T06:00:00	5	Humedad	83
52661	7	Sololá	701	Sololá	3	Barraneche	10	Octubre	2023-02-10T00:00:00	2024-11-06T06:00:00	6	Velocidad del viento	1.6
52662	7	Sololá	701	Sololá	3	Barraneche	10	Octubre	2023-02-10T00:00:00	2024-11-06T06:00:00	7	Dirección del viento	1.61
52663	7	Sololá	701	Sololá	3	Barraneche	10	Octubre	2023-02-10T00:00:00	2024-11-06T06:00:00	1	Precipitación	0
52664	7	Sololá	701	Sololá	3	Barraneche	10	Octubre	2023-02-10T00:00:00	2024-11-06T06:00:00	8	Radiación solar	0
52665	7	Sololá	701	Sololá	3	Barraneche	10	Octubre	2023-02-10T00:00:00	2024-11-06T07:00:00	2	Temperatura media	12.4
52666	7	Sololá	701	Sololá	3	Barraneche	10	Octubre	2023-02-10T00:00:00	2024-11-06T07:00:00	4	Temperatura máxima	12.4
52667	7	Sololá	701	Sololá	3	Barraneche	10	Octubre	2023-02-10T00:00:00	2024-11-06T07:00:00	3	Temperatura mínima	11.8
52668	7	Sololá	701	Sololá	3	Barraneche	10	Octubre	2023-02-10T00:00:00	2024-11-06T07:00:00	5	Humedad	81
52669	7	Sololá	701	Sololá	3	Barraneche	10	Octubre	2023-02-10T00:00:00	2024-11-06T07:00:00	6	Velocidad del viento	3.2
52670	7	Sololá	701	Sololá	3	Barraneche	10	Octubre	2023-02-10T00:00:00	2024-11-06T07:00:00	7	Dirección del viento	3.22
52671	7	Sololá	701	Sololá	3	Barraneche	10	Octubre	2023-02-10T00:00:00	2024-11-06T07:00:00	1	Precipitación	0
52672	7	Sololá	701	Sololá	3	Barraneche	10	Octubre	2023-02-10T00:00:00	2024-11-06T07:00:00	8	Radiación solar	63
52673	7	Sololá	701	Sololá	3	Barraneche	10	Octubre	2023-02-10T00:00:00	2024-11-06T08:00:00	2	Temperatura media	14.8
52674	7	Sololá	701	Sololá	3	Barraneche	10	Octubre	2023-02-10T00:00:00	2024-11-06T08:00:00	4	Temperatura máxima	14.8
52675	7	Sololá	701	Sololá	3	Barraneche	10	Octubre	2023-02-10T00:00:00	2024-11-06T08:00:00	3	Temperatura mínima	12.4
52676	7	Sololá	701	Sololá	3	Barraneche	10	Octubre	2023-02-10T00:00:00	2024-11-06T08:00:00	5	Humedad	72
52677	7	Sololá	701	Sololá	3	Barraneche	10	Octubre	2023-02-10T00:00:00	2024-11-06T08:00:00	6	Velocidad del viento	1.6
52678	7	Sololá	701	Sololá	3	Barraneche	10	Octubre	2023-02-10T00:00:00	2024-11-06T08:00:00	7	Dirección del viento	1.61
52679	7	Sololá	701	Sololá	3	Barraneche	10	Octubre	2023-02-10T00:00:00	2024-11-06T08:00:00	1	Precipitación	0
52680	7	Sololá	701	Sololá	3	Barraneche	10	Octubre	2023-02-10T00:00:00	2024-11-06T08:00:00	8	Radiación solar	190
52681	7	Sololá	701	Sololá	3	Barraneche	10	Octubre	2023-02-10T00:00:00	2024-11-06T09:00:00	2	Temperatura media	17.8
52682	7	Sololá	701	Sololá	3	Barraneche	10	Octubre	2023-02-10T00:00:00	2024-11-06T09:00:00	4	Temperatura máxima	17.8
52683	7	Sololá	701	Sololá	3	Barraneche	10	Octubre	2023-02-10T00:00:00	2024-11-06T09:00:00	3	Temperatura mínima	14.8
52684	7	Sololá	701	Sololá	3	Barraneche	10	Octubre	2023-02-10T00:00:00	2024-11-06T09:00:00	5	Humedad	61
52685	7	Sololá	701	Sololá	3	Barraneche	10	Octubre	2023-02-10T00:00:00	2024-11-06T09:00:00	6	Velocidad del viento	4.8
52686	7	Sololá	701	Sololá	3	Barraneche	10	Octubre	2023-02-10T00:00:00	2024-11-06T09:00:00	7	Dirección del viento	4.83
52687	7	Sololá	701	Sololá	3	Barraneche	10	Octubre	2023-02-10T00:00:00	2024-11-06T09:00:00	1	Precipitación	0
52688	7	Sololá	701	Sololá	3	Barraneche	10	Octubre	2023-02-10T00:00:00	2024-11-06T09:00:00	8	Radiación solar	568
52689	7	Sololá	701	Sololá	3	Barraneche	10	Octubre	2023-02-10T00:00:00	2024-11-06T10:00:00	2	Temperatura media	19.3
52690	7	Sololá	701	Sololá	3	Barraneche	10	Octubre	2023-02-10T00:00:00	2024-11-06T10:00:00	4	Temperatura máxima	19.4
52691	7	Sololá	701	Sololá	3	Barraneche	10	Octubre	2023-02-10T00:00:00	2024-11-06T10:00:00	3	Temperatura mínima	17.8
52692	7	Sololá	701	Sololá	3	Barraneche	10	Octubre	2023-02-10T00:00:00	2024-11-06T10:00:00	5	Humedad	56
52693	7	Sololá	701	Sololá	3	Barraneche	10	Octubre	2023-02-10T00:00:00	2024-11-06T10:00:00	6	Velocidad del viento	12.9
52694	7	Sololá	701	Sololá	3	Barraneche	10	Octubre	2023-02-10T00:00:00	2024-11-06T10:00:00	7	Dirección del viento	12.87
52695	7	Sololá	701	Sololá	3	Barraneche	10	Octubre	2023-02-10T00:00:00	2024-11-06T10:00:00	1	Precipitación	0
52696	7	Sololá	701	Sololá	3	Barraneche	10	Octubre	2023-02-10T00:00:00	2024-11-06T10:00:00	8	Radiación solar	788
52697	7	Sololá	701	Sololá	3	Barraneche	10	Octubre	2023-02-10T00:00:00	2024-11-06T11:00:00	2	Temperatura media	20.2
52698	7	Sololá	701	Sololá	3	Barraneche	10	Octubre	2023-02-10T00:00:00	2024-11-06T11:00:00	4	Temperatura máxima	20.3
52699	7	Sololá	701	Sololá	3	Barraneche	10	Octubre	2023-02-10T00:00:00	2024-11-06T11:00:00	3	Temperatura mínima	19.3
52700	7	Sololá	701	Sololá	3	Barraneche	10	Octubre	2023-02-10T00:00:00	2024-11-06T11:00:00	5	Humedad	55
52701	7	Sololá	701	Sololá	3	Barraneche	10	Octubre	2023-02-10T00:00:00	2024-11-06T11:00:00	6	Velocidad del viento	14.5
52702	7	Sololá	701	Sololá	3	Barraneche	10	Octubre	2023-02-10T00:00:00	2024-11-06T11:00:00	7	Dirección del viento	14.48
52703	7	Sololá	701	Sololá	3	Barraneche	10	Octubre	2023-02-10T00:00:00	2024-11-06T11:00:00	1	Precipitación	0
52704	7	Sololá	701	Sololá	3	Barraneche	10	Octubre	2023-02-10T00:00:00	2024-11-06T11:00:00	8	Radiación solar	908
52705	7	Sololá	701	Sololá	3	Barraneche	10	Octubre	2023-02-10T00:00:00	2024-11-06T12:00:00	2	Temperatura media	20.3
52706	7	Sololá	701	Sololá	3	Barraneche	10	Octubre	2023-02-10T00:00:00	2024-11-06T12:00:00	4	Temperatura máxima	20.7
52707	7	Sololá	701	Sololá	3	Barraneche	10	Octubre	2023-02-10T00:00:00	2024-11-06T12:00:00	3	Temperatura mínima	19.8
52708	7	Sololá	701	Sololá	3	Barraneche	10	Octubre	2023-02-10T00:00:00	2024-11-06T12:00:00	5	Humedad	55
52709	7	Sololá	701	Sololá	3	Barraneche	10	Octubre	2023-02-10T00:00:00	2024-11-06T12:00:00	6	Velocidad del viento	14.5
52710	7	Sololá	701	Sololá	3	Barraneche	10	Octubre	2023-02-10T00:00:00	2024-11-06T12:00:00	7	Dirección del viento	14.48
52711	7	Sololá	701	Sololá	3	Barraneche	10	Octubre	2023-02-10T00:00:00	2024-11-06T12:00:00	1	Precipitación	0
52712	7	Sololá	701	Sololá	3	Barraneche	10	Octubre	2023-02-10T00:00:00	2024-11-06T12:00:00	8	Radiación solar	934
52713	7	Sololá	701	Sololá	3	Barraneche	10	Octubre	2023-02-10T00:00:00	2024-11-06T13:00:00	2	Temperatura media	21.1
52714	7	Sololá	701	Sololá	3	Barraneche	10	Octubre	2023-02-10T00:00:00	2024-11-06T13:00:00	4	Temperatura máxima	21.3
52715	7	Sololá	701	Sololá	3	Barraneche	10	Octubre	2023-02-10T00:00:00	2024-11-06T13:00:00	3	Temperatura mínima	19.9
52716	7	Sololá	701	Sololá	3	Barraneche	10	Octubre	2023-02-10T00:00:00	2024-11-06T13:00:00	5	Humedad	54
52717	7	Sololá	701	Sololá	3	Barraneche	10	Octubre	2023-02-10T00:00:00	2024-11-06T13:00:00	6	Velocidad del viento	11.3
52718	7	Sololá	701	Sololá	3	Barraneche	10	Octubre	2023-02-10T00:00:00	2024-11-06T13:00:00	7	Dirección del viento	11.27
52719	7	Sololá	701	Sololá	3	Barraneche	10	Octubre	2023-02-10T00:00:00	2024-11-06T13:00:00	1	Precipitación	0
52720	7	Sololá	701	Sololá	3	Barraneche	10	Octubre	2023-02-10T00:00:00	2024-11-06T13:00:00	8	Radiación solar	967
52721	7	Sololá	701	Sololá	3	Barraneche	10	Octubre	2023-02-10T00:00:00	2024-11-06T14:00:00	2	Temperatura media	21.4
52722	7	Sololá	701	Sololá	3	Barraneche	10	Octubre	2023-02-10T00:00:00	2024-11-06T14:00:00	4	Temperatura máxima	21.8
52723	7	Sololá	701	Sololá	3	Barraneche	10	Octubre	2023-02-10T00:00:00	2024-11-06T14:00:00	3	Temperatura mínima	20.9
52724	7	Sololá	701	Sololá	3	Barraneche	10	Octubre	2023-02-10T00:00:00	2024-11-06T14:00:00	5	Humedad	52
52725	7	Sololá	701	Sololá	3	Barraneche	10	Octubre	2023-02-10T00:00:00	2024-11-06T14:00:00	6	Velocidad del viento	9.7
52726	7	Sololá	701	Sololá	3	Barraneche	10	Octubre	2023-02-10T00:00:00	2024-11-06T14:00:00	7	Dirección del viento	9.66
52727	7	Sololá	701	Sololá	3	Barraneche	10	Octubre	2023-02-10T00:00:00	2024-11-06T14:00:00	1	Precipitación	0
52728	7	Sololá	701	Sololá	3	Barraneche	10	Octubre	2023-02-10T00:00:00	2024-11-06T14:00:00	8	Radiación solar	900
52729	7	Sololá	701	Sololá	3	Barraneche	10	Octubre	2023-02-10T00:00:00	2024-11-06T15:00:00	2	Temperatura media	19.5
52730	7	Sololá	701	Sololá	3	Barraneche	10	Octubre	2023-02-10T00:00:00	2024-11-06T15:00:00	4	Temperatura máxima	21.6
52731	7	Sololá	701	Sololá	3	Barraneche	10	Octubre	2023-02-10T00:00:00	2024-11-06T15:00:00	3	Temperatura mínima	18
52732	7	Sololá	701	Sololá	3	Barraneche	10	Octubre	2023-02-10T00:00:00	2024-11-06T15:00:00	5	Humedad	67
52733	7	Sololá	701	Sololá	3	Barraneche	10	Octubre	2023-02-10T00:00:00	2024-11-06T15:00:00	6	Velocidad del viento	12.9
52734	7	Sololá	701	Sololá	3	Barraneche	10	Octubre	2023-02-10T00:00:00	2024-11-06T15:00:00	7	Dirección del viento	12.87
52735	7	Sololá	701	Sololá	3	Barraneche	10	Octubre	2023-02-10T00:00:00	2024-11-06T15:00:00	1	Precipitación	0
52736	7	Sololá	701	Sololá	3	Barraneche	10	Octubre	2023-02-10T00:00:00	2024-11-06T15:00:00	8	Radiación solar	479
52737	7	Sololá	701	Sololá	3	Barraneche	10	Octubre	2023-02-10T00:00:00	2024-11-06T16:00:00	2	Temperatura media	18.8
52738	7	Sololá	701	Sololá	3	Barraneche	10	Octubre	2023-02-10T00:00:00	2024-11-06T16:00:00	4	Temperatura máxima	19.7
52739	7	Sololá	701	Sololá	3	Barraneche	10	Octubre	2023-02-10T00:00:00	2024-11-06T16:00:00	3	Temperatura mínima	18.6
52740	7	Sololá	701	Sololá	3	Barraneche	10	Octubre	2023-02-10T00:00:00	2024-11-06T16:00:00	5	Humedad	61
52741	7	Sololá	701	Sololá	3	Barraneche	10	Octubre	2023-02-10T00:00:00	2024-11-06T16:00:00	6	Velocidad del viento	9.7
52742	7	Sololá	701	Sololá	3	Barraneche	10	Octubre	2023-02-10T00:00:00	2024-11-06T16:00:00	7	Dirección del viento	9.66
52743	7	Sololá	701	Sololá	3	Barraneche	10	Octubre	2023-02-10T00:00:00	2024-11-06T16:00:00	1	Precipitación	0
52744	7	Sololá	701	Sololá	3	Barraneche	10	Octubre	2023-02-10T00:00:00	2024-11-06T16:00:00	8	Radiación solar	248
52745	7	Sololá	701	Sololá	3	Barraneche	10	Octubre	2023-02-10T00:00:00	2024-11-06T17:00:00	2	Temperatura media	17.3
52746	7	Sololá	701	Sololá	3	Barraneche	10	Octubre	2023-02-10T00:00:00	2024-11-06T17:00:00	4	Temperatura máxima	19.6
52747	7	Sololá	701	Sololá	3	Barraneche	10	Octubre	2023-02-10T00:00:00	2024-11-06T17:00:00	3	Temperatura mínima	17.3
52748	7	Sololá	701	Sololá	3	Barraneche	10	Octubre	2023-02-10T00:00:00	2024-11-06T17:00:00	5	Humedad	71
52749	7	Sololá	701	Sololá	3	Barraneche	10	Octubre	2023-02-10T00:00:00	2024-11-06T17:00:00	6	Velocidad del viento	9.7
52750	7	Sololá	701	Sololá	3	Barraneche	10	Octubre	2023-02-10T00:00:00	2024-11-06T17:00:00	7	Dirección del viento	9.66
52751	7	Sololá	701	Sololá	3	Barraneche	10	Octubre	2023-02-10T00:00:00	2024-11-06T17:00:00	1	Precipitación	0
52752	7	Sololá	701	Sololá	3	Barraneche	10	Octubre	2023-02-10T00:00:00	2024-11-06T17:00:00	8	Radiación solar	175
52753	7	Sololá	701	Sololá	3	Barraneche	10	Octubre	2023-02-10T00:00:00	2024-11-06T18:00:00	2	Temperatura media	15.2
52754	7	Sololá	701	Sololá	3	Barraneche	10	Octubre	2023-02-10T00:00:00	2024-11-06T18:00:00	4	Temperatura máxima	17.2
52755	7	Sololá	701	Sololá	3	Barraneche	10	Octubre	2023-02-10T00:00:00	2024-11-06T18:00:00	3	Temperatura mínima	15.1
52756	7	Sololá	701	Sololá	3	Barraneche	10	Octubre	2023-02-10T00:00:00	2024-11-06T18:00:00	5	Humedad	85
52757	7	Sololá	701	Sololá	3	Barraneche	10	Octubre	2023-02-10T00:00:00	2024-11-06T18:00:00	6	Velocidad del viento	8
52758	7	Sololá	701	Sololá	3	Barraneche	10	Octubre	2023-02-10T00:00:00	2024-11-06T18:00:00	7	Dirección del viento	8.05
52759	7	Sololá	701	Sololá	3	Barraneche	10	Octubre	2023-02-10T00:00:00	2024-11-06T18:00:00	1	Precipitación	0
52760	7	Sololá	701	Sololá	3	Barraneche	10	Octubre	2023-02-10T00:00:00	2024-11-06T18:00:00	8	Radiación solar	9
52761	7	Sololá	701	Sololá	3	Barraneche	10	Octubre	2023-02-10T00:00:00	2024-11-06T19:00:00	2	Temperatura media	14.3
52762	7	Sololá	701	Sololá	3	Barraneche	10	Octubre	2023-02-10T00:00:00	2024-11-06T19:00:00	4	Temperatura máxima	15.2
52763	7	Sololá	701	Sololá	3	Barraneche	10	Octubre	2023-02-10T00:00:00	2024-11-06T19:00:00	3	Temperatura mínima	14.3
52764	7	Sololá	701	Sololá	3	Barraneche	10	Octubre	2023-02-10T00:00:00	2024-11-06T19:00:00	5	Humedad	85
52765	7	Sololá	701	Sololá	3	Barraneche	10	Octubre	2023-02-10T00:00:00	2024-11-06T19:00:00	6	Velocidad del viento	8
52766	7	Sololá	701	Sololá	3	Barraneche	10	Octubre	2023-02-10T00:00:00	2024-11-06T19:00:00	7	Dirección del viento	8.05
52767	7	Sololá	701	Sololá	3	Barraneche	10	Octubre	2023-02-10T00:00:00	2024-11-06T19:00:00	1	Precipitación	0
52768	7	Sololá	701	Sololá	3	Barraneche	10	Octubre	2023-02-10T00:00:00	2024-11-06T19:00:00	8	Radiación solar	0
52769	7	Sololá	701	Sololá	3	Barraneche	10	Octubre	2023-02-10T00:00:00	2024-11-06T20:00:00	2	Temperatura media	14.1
52770	7	Sololá	701	Sololá	3	Barraneche	10	Octubre	2023-02-10T00:00:00	2024-11-06T20:00:00	4	Temperatura máxima	14.3
52771	7	Sololá	701	Sololá	3	Barraneche	10	Octubre	2023-02-10T00:00:00	2024-11-06T20:00:00	3	Temperatura mínima	13.9
52772	7	Sololá	701	Sololá	3	Barraneche	10	Octubre	2023-02-10T00:00:00	2024-11-06T20:00:00	5	Humedad	86
52773	7	Sololá	701	Sololá	3	Barraneche	10	Octubre	2023-02-10T00:00:00	2024-11-06T20:00:00	6	Velocidad del viento	3.2
52774	7	Sololá	701	Sololá	3	Barraneche	10	Octubre	2023-02-10T00:00:00	2024-11-06T20:00:00	7	Dirección del viento	3.22
52775	7	Sololá	701	Sololá	3	Barraneche	10	Octubre	2023-02-10T00:00:00	2024-11-06T20:00:00	1	Precipitación	2.8
52776	7	Sololá	701	Sololá	3	Barraneche	10	Octubre	2023-02-10T00:00:00	2024-11-06T20:00:00	8	Radiación solar	0
52777	7	Sololá	701	Sololá	3	Barraneche	10	Octubre	2023-02-10T00:00:00	2024-11-06T21:00:00	2	Temperatura media	13.3
52778	7	Sololá	701	Sololá	3	Barraneche	10	Octubre	2023-02-10T00:00:00	2024-11-06T21:00:00	4	Temperatura máxima	14.1
52779	7	Sololá	701	Sololá	3	Barraneche	10	Octubre	2023-02-10T00:00:00	2024-11-06T21:00:00	3	Temperatura mínima	13.3
52780	7	Sololá	701	Sololá	3	Barraneche	10	Octubre	2023-02-10T00:00:00	2024-11-06T21:00:00	5	Humedad	85
52781	7	Sololá	701	Sololá	3	Barraneche	10	Octubre	2023-02-10T00:00:00	2024-11-06T21:00:00	6	Velocidad del viento	4.8
52782	7	Sololá	701	Sololá	3	Barraneche	10	Octubre	2023-02-10T00:00:00	2024-11-06T21:00:00	7	Dirección del viento	4.83
52783	7	Sololá	701	Sololá	3	Barraneche	10	Octubre	2023-02-10T00:00:00	2024-11-06T21:00:00	1	Precipitación	14
52784	7	Sololá	701	Sololá	3	Barraneche	10	Octubre	2023-02-10T00:00:00	2024-11-06T21:00:00	8	Radiación solar	0
52785	7	Sololá	701	Sololá	3	Barraneche	10	Octubre	2023-02-10T00:00:00	2024-11-06T22:00:00	2	Temperatura media	13.4
52786	7	Sololá	701	Sololá	3	Barraneche	10	Octubre	2023-02-10T00:00:00	2024-11-06T22:00:00	4	Temperatura máxima	13.5
52787	7	Sololá	701	Sololá	3	Barraneche	10	Octubre	2023-02-10T00:00:00	2024-11-06T22:00:00	3	Temperatura mínima	13.3
52788	7	Sololá	701	Sololá	3	Barraneche	10	Octubre	2023-02-10T00:00:00	2024-11-06T22:00:00	5	Humedad	85
52789	7	Sololá	701	Sololá	3	Barraneche	10	Octubre	2023-02-10T00:00:00	2024-11-06T22:00:00	6	Velocidad del viento	3.2
52790	7	Sololá	701	Sololá	3	Barraneche	10	Octubre	2023-02-10T00:00:00	2024-11-06T22:00:00	7	Dirección del viento	3.22
52791	7	Sololá	701	Sololá	3	Barraneche	10	Octubre	2023-02-10T00:00:00	2024-11-06T22:00:00	1	Precipitación	0.8
52792	7	Sololá	701	Sololá	3	Barraneche	10	Octubre	2023-02-10T00:00:00	2024-11-06T22:00:00	8	Radiación solar	0
52793	7	Sololá	701	Sololá	3	Barraneche	10	Octubre	2023-02-10T00:00:00	2024-11-06T23:00:00	2	Temperatura media	13.5
52794	7	Sololá	701	Sololá	3	Barraneche	10	Octubre	2023-02-10T00:00:00	2024-11-06T23:00:00	4	Temperatura máxima	13.7
52795	7	Sololá	701	Sololá	3	Barraneche	10	Octubre	2023-02-10T00:00:00	2024-11-06T23:00:00	3	Temperatura mínima	13.4
52796	7	Sololá	701	Sololá	3	Barraneche	10	Octubre	2023-02-10T00:00:00	2024-11-06T23:00:00	5	Humedad	85
52797	7	Sololá	701	Sololá	3	Barraneche	10	Octubre	2023-02-10T00:00:00	2024-11-06T23:00:00	6	Velocidad del viento	3.2
52798	7	Sololá	701	Sololá	3	Barraneche	10	Octubre	2023-02-10T00:00:00	2024-11-06T23:00:00	7	Dirección del viento	3.22
52799	7	Sololá	701	Sololá	3	Barraneche	10	Octubre	2023-02-10T00:00:00	2024-11-06T23:00:00	1	Precipitación	0
52800	7	Sololá	701	Sololá	3	Barraneche	10	Octubre	2023-02-10T00:00:00	2024-11-06T23:00:00	8	Radiación solar	0
52801	7	Sololá	701	Sololá	3	Barraneche	10	Octubre	2023-03-10T00:00:00	2024-11-06T00:00:00	2	Temperatura media	14.1
52802	7	Sololá	701	Sololá	3	Barraneche	10	Octubre	2023-03-10T00:00:00	2024-11-06T00:00:00	4	Temperatura máxima	14.1
52803	7	Sololá	701	Sololá	3	Barraneche	10	Octubre	2023-03-10T00:00:00	2024-11-06T00:00:00	3	Temperatura mínima	13.4
52804	7	Sololá	701	Sololá	3	Barraneche	10	Octubre	2023-03-10T00:00:00	2024-11-06T00:00:00	5	Humedad	81
52805	7	Sololá	701	Sololá	3	Barraneche	10	Octubre	2023-03-10T00:00:00	2024-11-06T00:00:00	6	Velocidad del viento	3.2
52806	7	Sololá	701	Sololá	3	Barraneche	10	Octubre	2023-03-10T00:00:00	2024-11-06T00:00:00	7	Dirección del viento	3.22
52807	7	Sololá	701	Sololá	3	Barraneche	10	Octubre	2023-03-10T00:00:00	2024-11-06T00:00:00	1	Precipitación	0
52808	7	Sololá	701	Sololá	3	Barraneche	10	Octubre	2023-03-10T00:00:00	2024-11-06T00:00:00	8	Radiación solar	0
52809	7	Sololá	701	Sololá	3	Barraneche	10	Octubre	2023-03-10T00:00:00	2024-11-06T01:00:00	2	Temperatura media	13.3
52810	7	Sololá	701	Sololá	3	Barraneche	10	Octubre	2023-03-10T00:00:00	2024-11-06T01:00:00	4	Temperatura máxima	14.2
52811	7	Sololá	701	Sololá	3	Barraneche	10	Octubre	2023-03-10T00:00:00	2024-11-06T01:00:00	3	Temperatura mínima	13.2
52812	7	Sololá	701	Sololá	3	Barraneche	10	Octubre	2023-03-10T00:00:00	2024-11-06T01:00:00	5	Humedad	82
52813	7	Sololá	701	Sololá	3	Barraneche	10	Octubre	2023-03-10T00:00:00	2024-11-06T01:00:00	6	Velocidad del viento	3.2
52814	7	Sololá	701	Sololá	3	Barraneche	10	Octubre	2023-03-10T00:00:00	2024-11-06T01:00:00	7	Dirección del viento	3.22
52815	7	Sololá	701	Sololá	3	Barraneche	10	Octubre	2023-03-10T00:00:00	2024-11-06T01:00:00	1	Precipitación	0
52816	7	Sololá	701	Sololá	3	Barraneche	10	Octubre	2023-03-10T00:00:00	2024-11-06T01:00:00	8	Radiación solar	0
52817	7	Sololá	701	Sololá	3	Barraneche	10	Octubre	2023-03-10T00:00:00	2024-11-06T02:00:00	2	Temperatura media	13.9
52818	7	Sololá	701	Sololá	3	Barraneche	10	Octubre	2023-03-10T00:00:00	2024-11-06T02:00:00	4	Temperatura máxima	14.2
52819	7	Sololá	701	Sololá	3	Barraneche	10	Octubre	2023-03-10T00:00:00	2024-11-06T02:00:00	3	Temperatura mínima	13.1
52820	7	Sololá	701	Sololá	3	Barraneche	10	Octubre	2023-03-10T00:00:00	2024-11-06T02:00:00	5	Humedad	80
52821	7	Sololá	701	Sololá	3	Barraneche	10	Octubre	2023-03-10T00:00:00	2024-11-06T02:00:00	6	Velocidad del viento	3.2
52822	7	Sololá	701	Sololá	3	Barraneche	10	Octubre	2023-03-10T00:00:00	2024-11-06T02:00:00	7	Dirección del viento	3.22
52823	7	Sololá	701	Sololá	3	Barraneche	10	Octubre	2023-03-10T00:00:00	2024-11-06T02:00:00	1	Precipitación	0
52824	7	Sololá	701	Sololá	3	Barraneche	10	Octubre	2023-03-10T00:00:00	2024-11-06T02:00:00	8	Radiación solar	0
52825	7	Sololá	701	Sololá	3	Barraneche	10	Octubre	2023-03-10T00:00:00	2024-11-06T03:00:00	2	Temperatura media	14.2
52826	7	Sololá	701	Sololá	3	Barraneche	10	Octubre	2023-03-10T00:00:00	2024-11-06T03:00:00	4	Temperatura máxima	14.4
52827	7	Sololá	701	Sololá	3	Barraneche	10	Octubre	2023-03-10T00:00:00	2024-11-06T03:00:00	3	Temperatura mínima	13.7
52828	7	Sololá	701	Sololá	3	Barraneche	10	Octubre	2023-03-10T00:00:00	2024-11-06T03:00:00	5	Humedad	79
52829	7	Sololá	701	Sololá	3	Barraneche	10	Octubre	2023-03-10T00:00:00	2024-11-06T03:00:00	6	Velocidad del viento	4.8
52830	7	Sololá	701	Sololá	3	Barraneche	10	Octubre	2023-03-10T00:00:00	2024-11-06T03:00:00	7	Dirección del viento	4.83
52831	7	Sololá	701	Sololá	3	Barraneche	10	Octubre	2023-03-10T00:00:00	2024-11-06T03:00:00	1	Precipitación	0
52832	7	Sololá	701	Sololá	3	Barraneche	10	Octubre	2023-03-10T00:00:00	2024-11-06T03:00:00	8	Radiación solar	0
52833	7	Sololá	701	Sololá	3	Barraneche	10	Octubre	2023-03-10T00:00:00	2024-11-06T04:00:00	2	Temperatura media	12.3
52834	7	Sololá	701	Sololá	3	Barraneche	10	Octubre	2023-03-10T00:00:00	2024-11-06T04:00:00	4	Temperatura máxima	14.2
52835	7	Sololá	701	Sololá	3	Barraneche	10	Octubre	2023-03-10T00:00:00	2024-11-06T04:00:00	3	Temperatura mínima	12.3
52836	7	Sololá	701	Sololá	3	Barraneche	10	Octubre	2023-03-10T00:00:00	2024-11-06T04:00:00	5	Humedad	83
52837	7	Sololá	701	Sololá	3	Barraneche	10	Octubre	2023-03-10T00:00:00	2024-11-06T04:00:00	6	Velocidad del viento	1.6
52838	7	Sololá	701	Sololá	3	Barraneche	10	Octubre	2023-03-10T00:00:00	2024-11-06T04:00:00	7	Dirección del viento	1.61
52839	7	Sololá	701	Sololá	3	Barraneche	10	Octubre	2023-03-10T00:00:00	2024-11-06T04:00:00	1	Precipitación	0
52840	7	Sololá	701	Sololá	3	Barraneche	10	Octubre	2023-03-10T00:00:00	2024-11-06T04:00:00	8	Radiación solar	0
52841	7	Sololá	701	Sololá	3	Barraneche	10	Octubre	2023-03-10T00:00:00	2024-11-06T05:00:00	2	Temperatura media	11.8
52842	7	Sololá	701	Sololá	3	Barraneche	10	Octubre	2023-03-10T00:00:00	2024-11-06T05:00:00	4	Temperatura máxima	12.3
52843	7	Sololá	701	Sololá	3	Barraneche	10	Octubre	2023-03-10T00:00:00	2024-11-06T05:00:00	3	Temperatura mínima	11.8
52844	7	Sololá	701	Sololá	3	Barraneche	10	Octubre	2023-03-10T00:00:00	2024-11-06T05:00:00	5	Humedad	84
52845	7	Sololá	701	Sololá	3	Barraneche	10	Octubre	2023-03-10T00:00:00	2024-11-06T05:00:00	6	Velocidad del viento	1.6
52846	7	Sololá	701	Sololá	3	Barraneche	10	Octubre	2023-03-10T00:00:00	2024-11-06T05:00:00	7	Dirección del viento	1.61
52847	7	Sololá	701	Sololá	3	Barraneche	10	Octubre	2023-03-10T00:00:00	2024-11-06T05:00:00	1	Precipitación	0
52848	7	Sololá	701	Sololá	3	Barraneche	10	Octubre	2023-03-10T00:00:00	2024-11-06T05:00:00	8	Radiación solar	0
52849	7	Sololá	701	Sololá	3	Barraneche	10	Octubre	2023-03-10T00:00:00	2024-11-06T06:00:00	2	Temperatura media	11.5
52850	7	Sololá	701	Sololá	3	Barraneche	10	Octubre	2023-03-10T00:00:00	2024-11-06T06:00:00	4	Temperatura máxima	11.9
52851	7	Sololá	701	Sololá	3	Barraneche	10	Octubre	2023-03-10T00:00:00	2024-11-06T06:00:00	3	Temperatura mínima	11.3
52852	7	Sololá	701	Sololá	3	Barraneche	10	Octubre	2023-03-10T00:00:00	2024-11-06T06:00:00	5	Humedad	85
52853	7	Sololá	701	Sololá	3	Barraneche	10	Octubre	2023-03-10T00:00:00	2024-11-06T06:00:00	6	Velocidad del viento	3.2
52854	7	Sololá	701	Sololá	3	Barraneche	10	Octubre	2023-03-10T00:00:00	2024-11-06T06:00:00	7	Dirección del viento	3.22
52855	7	Sololá	701	Sololá	3	Barraneche	10	Octubre	2023-03-10T00:00:00	2024-11-06T06:00:00	1	Precipitación	0
52856	7	Sololá	701	Sololá	3	Barraneche	10	Octubre	2023-03-10T00:00:00	2024-11-06T06:00:00	8	Radiación solar	2
52857	7	Sololá	701	Sololá	3	Barraneche	10	Octubre	2023-03-10T00:00:00	2024-11-06T07:00:00	2	Temperatura media	12.2
52858	7	Sololá	701	Sololá	3	Barraneche	10	Octubre	2023-03-10T00:00:00	2024-11-06T07:00:00	4	Temperatura máxima	12.2
52859	7	Sololá	701	Sololá	3	Barraneche	10	Octubre	2023-03-10T00:00:00	2024-11-06T07:00:00	3	Temperatura mínima	11.4
52860	7	Sololá	701	Sololá	3	Barraneche	10	Octubre	2023-03-10T00:00:00	2024-11-06T07:00:00	5	Humedad	85
52861	7	Sololá	701	Sololá	3	Barraneche	10	Octubre	2023-03-10T00:00:00	2024-11-06T07:00:00	6	Velocidad del viento	3.2
52862	7	Sololá	701	Sololá	3	Barraneche	10	Octubre	2023-03-10T00:00:00	2024-11-06T07:00:00	7	Dirección del viento	3.22
52863	7	Sololá	701	Sololá	3	Barraneche	10	Octubre	2023-03-10T00:00:00	2024-11-06T07:00:00	1	Precipitación	0
52864	7	Sololá	701	Sololá	3	Barraneche	10	Octubre	2023-03-10T00:00:00	2024-11-06T07:00:00	8	Radiación solar	42
52865	7	Sololá	701	Sololá	3	Barraneche	10	Octubre	2023-03-10T00:00:00	2024-11-06T08:00:00	2	Temperatura media	16
52866	7	Sololá	701	Sololá	3	Barraneche	10	Octubre	2023-03-10T00:00:00	2024-11-06T08:00:00	4	Temperatura máxima	16
52867	7	Sololá	701	Sololá	3	Barraneche	10	Octubre	2023-03-10T00:00:00	2024-11-06T08:00:00	3	Temperatura mínima	12.2
52868	7	Sololá	701	Sololá	3	Barraneche	10	Octubre	2023-03-10T00:00:00	2024-11-06T08:00:00	5	Humedad	77
52869	7	Sololá	701	Sololá	3	Barraneche	10	Octubre	2023-03-10T00:00:00	2024-11-06T08:00:00	6	Velocidad del viento	1.6
52870	7	Sololá	701	Sololá	3	Barraneche	10	Octubre	2023-03-10T00:00:00	2024-11-06T08:00:00	7	Dirección del viento	1.61
52871	7	Sololá	701	Sololá	3	Barraneche	10	Octubre	2023-03-10T00:00:00	2024-11-06T08:00:00	1	Precipitación	0
52872	7	Sololá	701	Sololá	3	Barraneche	10	Octubre	2023-03-10T00:00:00	2024-11-06T08:00:00	8	Radiación solar	340
52873	7	Sololá	701	Sololá	3	Barraneche	10	Octubre	2023-03-10T00:00:00	2024-11-06T09:00:00	2	Temperatura media	17.6
52874	7	Sololá	701	Sololá	3	Barraneche	10	Octubre	2023-03-10T00:00:00	2024-11-06T09:00:00	4	Temperatura máxima	18.2
52875	7	Sololá	701	Sololá	3	Barraneche	10	Octubre	2023-03-10T00:00:00	2024-11-06T09:00:00	3	Temperatura mínima	16
52876	7	Sololá	701	Sololá	3	Barraneche	10	Octubre	2023-03-10T00:00:00	2024-11-06T09:00:00	5	Humedad	68
52877	7	Sololá	701	Sololá	3	Barraneche	10	Octubre	2023-03-10T00:00:00	2024-11-06T09:00:00	6	Velocidad del viento	4.8
52878	7	Sololá	701	Sololá	3	Barraneche	10	Octubre	2023-03-10T00:00:00	2024-11-06T09:00:00	7	Dirección del viento	4.83
52879	7	Sololá	701	Sololá	3	Barraneche	10	Octubre	2023-03-10T00:00:00	2024-11-06T09:00:00	1	Precipitación	0
52880	7	Sololá	701	Sololá	3	Barraneche	10	Octubre	2023-03-10T00:00:00	2024-11-06T09:00:00	8	Radiación solar	546
52881	7	Sololá	701	Sololá	3	Barraneche	10	Octubre	2023-03-10T00:00:00	2024-11-06T10:00:00	2	Temperatura media	19.1
52882	7	Sololá	701	Sololá	3	Barraneche	10	Octubre	2023-03-10T00:00:00	2024-11-06T10:00:00	4	Temperatura máxima	19.1
52883	7	Sololá	701	Sololá	3	Barraneche	10	Octubre	2023-03-10T00:00:00	2024-11-06T10:00:00	3	Temperatura mínima	17.5
52884	7	Sololá	701	Sololá	3	Barraneche	10	Octubre	2023-03-10T00:00:00	2024-11-06T10:00:00	5	Humedad	65
52885	7	Sololá	701	Sololá	3	Barraneche	10	Octubre	2023-03-10T00:00:00	2024-11-06T10:00:00	6	Velocidad del viento	14.5
52886	7	Sololá	701	Sololá	3	Barraneche	10	Octubre	2023-03-10T00:00:00	2024-11-06T10:00:00	7	Dirección del viento	14.48
52887	7	Sololá	701	Sololá	3	Barraneche	10	Octubre	2023-03-10T00:00:00	2024-11-06T10:00:00	1	Precipitación	0
52888	7	Sololá	701	Sololá	3	Barraneche	10	Octubre	2023-03-10T00:00:00	2024-11-06T10:00:00	8	Radiación solar	1004
52889	7	Sololá	701	Sololá	3	Barraneche	10	Octubre	2023-03-10T00:00:00	2024-11-06T11:00:00	2	Temperatura media	18.7
52890	7	Sololá	701	Sololá	3	Barraneche	10	Octubre	2023-03-10T00:00:00	2024-11-06T11:00:00	4	Temperatura máxima	19.8
52891	7	Sololá	701	Sololá	3	Barraneche	10	Octubre	2023-03-10T00:00:00	2024-11-06T11:00:00	3	Temperatura mínima	18.7
52892	7	Sololá	701	Sololá	3	Barraneche	10	Octubre	2023-03-10T00:00:00	2024-11-06T11:00:00	5	Humedad	70
52893	7	Sololá	701	Sololá	3	Barraneche	10	Octubre	2023-03-10T00:00:00	2024-11-06T11:00:00	6	Velocidad del viento	11.3
52894	7	Sololá	701	Sololá	3	Barraneche	10	Octubre	2023-03-10T00:00:00	2024-11-06T11:00:00	7	Dirección del viento	11.27
52895	7	Sololá	701	Sololá	3	Barraneche	10	Octubre	2023-03-10T00:00:00	2024-11-06T11:00:00	1	Precipitación	0
52896	7	Sololá	701	Sololá	3	Barraneche	10	Octubre	2023-03-10T00:00:00	2024-11-06T11:00:00	8	Radiación solar	859
52897	7	Sololá	701	Sololá	3	Barraneche	10	Octubre	2023-03-10T00:00:00	2024-11-06T12:00:00	2	Temperatura media	18.6
52898	7	Sololá	701	Sololá	3	Barraneche	10	Octubre	2023-03-10T00:00:00	2024-11-06T12:00:00	4	Temperatura máxima	18.7
52899	7	Sololá	701	Sololá	3	Barraneche	10	Octubre	2023-03-10T00:00:00	2024-11-06T12:00:00	3	Temperatura mínima	17.6
52900	7	Sololá	701	Sololá	3	Barraneche	10	Octubre	2023-03-10T00:00:00	2024-11-06T12:00:00	5	Humedad	71
52901	7	Sololá	701	Sololá	3	Barraneche	10	Octubre	2023-03-10T00:00:00	2024-11-06T12:00:00	6	Velocidad del viento	12.9
52902	7	Sololá	701	Sololá	3	Barraneche	10	Octubre	2023-03-10T00:00:00	2024-11-06T12:00:00	7	Dirección del viento	12.87
52903	7	Sololá	701	Sololá	3	Barraneche	10	Octubre	2023-03-10T00:00:00	2024-11-06T12:00:00	1	Precipitación	0
52904	7	Sololá	701	Sololá	3	Barraneche	10	Octubre	2023-03-10T00:00:00	2024-11-06T12:00:00	8	Radiación solar	556
52905	7	Sololá	701	Sololá	3	Barraneche	10	Octubre	2023-03-10T00:00:00	2024-11-06T13:00:00	2	Temperatura media	19.5
52906	7	Sololá	701	Sololá	3	Barraneche	10	Octubre	2023-03-10T00:00:00	2024-11-06T13:00:00	4	Temperatura máxima	19.8
52907	7	Sololá	701	Sololá	3	Barraneche	10	Octubre	2023-03-10T00:00:00	2024-11-06T13:00:00	3	Temperatura mínima	18.2
52908	7	Sololá	701	Sololá	3	Barraneche	10	Octubre	2023-03-10T00:00:00	2024-11-06T13:00:00	5	Humedad	65
52909	7	Sololá	701	Sololá	3	Barraneche	10	Octubre	2023-03-10T00:00:00	2024-11-06T13:00:00	6	Velocidad del viento	9.7
52910	7	Sololá	701	Sololá	3	Barraneche	10	Octubre	2023-03-10T00:00:00	2024-11-06T13:00:00	7	Dirección del viento	9.66
52911	7	Sololá	701	Sololá	3	Barraneche	10	Octubre	2023-03-10T00:00:00	2024-11-06T13:00:00	1	Precipitación	0
52912	7	Sololá	701	Sololá	3	Barraneche	10	Octubre	2023-03-10T00:00:00	2024-11-06T13:00:00	8	Radiación solar	634
52913	7	Sololá	701	Sololá	3	Barraneche	10	Octubre	2023-03-10T00:00:00	2024-11-06T14:00:00	2	Temperatura media	18.2
52914	7	Sololá	701	Sololá	3	Barraneche	10	Octubre	2023-03-10T00:00:00	2024-11-06T14:00:00	4	Temperatura máxima	20.2
52915	7	Sololá	701	Sololá	3	Barraneche	10	Octubre	2023-03-10T00:00:00	2024-11-06T14:00:00	3	Temperatura mínima	18.2
52916	7	Sololá	701	Sololá	3	Barraneche	10	Octubre	2023-03-10T00:00:00	2024-11-06T14:00:00	5	Humedad	75
52917	7	Sololá	701	Sololá	3	Barraneche	10	Octubre	2023-03-10T00:00:00	2024-11-06T14:00:00	6	Velocidad del viento	9.7
52918	7	Sololá	701	Sololá	3	Barraneche	10	Octubre	2023-03-10T00:00:00	2024-11-06T14:00:00	7	Dirección del viento	9.66
52919	7	Sololá	701	Sololá	3	Barraneche	10	Octubre	2023-03-10T00:00:00	2024-11-06T14:00:00	1	Precipitación	0
52920	7	Sololá	701	Sololá	3	Barraneche	10	Octubre	2023-03-10T00:00:00	2024-11-06T14:00:00	8	Radiación solar	262
52921	7	Sololá	701	Sololá	3	Barraneche	10	Octubre	2023-03-10T00:00:00	2024-11-06T15:00:00	2	Temperatura media	17.2
52922	7	Sololá	701	Sololá	3	Barraneche	10	Octubre	2023-03-10T00:00:00	2024-11-06T15:00:00	4	Temperatura máxima	19.8
52923	7	Sololá	701	Sololá	3	Barraneche	10	Octubre	2023-03-10T00:00:00	2024-11-06T15:00:00	3	Temperatura mínima	17.2
52924	7	Sololá	701	Sololá	3	Barraneche	10	Octubre	2023-03-10T00:00:00	2024-11-06T15:00:00	5	Humedad	80
52925	7	Sololá	701	Sololá	3	Barraneche	10	Octubre	2023-03-10T00:00:00	2024-11-06T15:00:00	6	Velocidad del viento	12.9
52926	7	Sololá	701	Sololá	3	Barraneche	10	Octubre	2023-03-10T00:00:00	2024-11-06T15:00:00	7	Dirección del viento	12.87
52927	7	Sololá	701	Sololá	3	Barraneche	10	Octubre	2023-03-10T00:00:00	2024-11-06T15:00:00	1	Precipitación	0
52928	7	Sololá	701	Sololá	3	Barraneche	10	Octubre	2023-03-10T00:00:00	2024-11-06T15:00:00	8	Radiación solar	483
52929	7	Sololá	701	Sololá	3	Barraneche	10	Octubre	2023-03-10T00:00:00	2024-11-06T16:00:00	2	Temperatura media	16.3
52930	7	Sololá	701	Sololá	3	Barraneche	10	Octubre	2023-03-10T00:00:00	2024-11-06T16:00:00	4	Temperatura máxima	18.4
52931	7	Sololá	701	Sololá	3	Barraneche	10	Octubre	2023-03-10T00:00:00	2024-11-06T16:00:00	3	Temperatura mínima	16.2
52932	7	Sololá	701	Sololá	3	Barraneche	10	Octubre	2023-03-10T00:00:00	2024-11-06T16:00:00	5	Humedad	84
52933	7	Sololá	701	Sololá	3	Barraneche	10	Octubre	2023-03-10T00:00:00	2024-11-06T16:00:00	6	Velocidad del viento	11.3
52934	7	Sololá	701	Sololá	3	Barraneche	10	Octubre	2023-03-10T00:00:00	2024-11-06T16:00:00	7	Dirección del viento	11.27
52935	7	Sololá	701	Sololá	3	Barraneche	10	Octubre	2023-03-10T00:00:00	2024-11-06T16:00:00	1	Precipitación	0
52936	7	Sololá	701	Sololá	3	Barraneche	10	Octubre	2023-03-10T00:00:00	2024-11-06T16:00:00	8	Radiación solar	261
52937	7	Sololá	701	Sololá	3	Barraneche	10	Octubre	2023-03-10T00:00:00	2024-11-06T17:00:00	2	Temperatura media	14.9
52938	7	Sololá	701	Sololá	3	Barraneche	10	Octubre	2023-03-10T00:00:00	2024-11-06T17:00:00	4	Temperatura máxima	16.3
52939	7	Sololá	701	Sololá	3	Barraneche	10	Octubre	2023-03-10T00:00:00	2024-11-06T17:00:00	3	Temperatura mínima	14.9
52940	7	Sololá	701	Sololá	3	Barraneche	10	Octubre	2023-03-10T00:00:00	2024-11-06T17:00:00	5	Humedad	85
52941	7	Sololá	701	Sololá	3	Barraneche	10	Octubre	2023-03-10T00:00:00	2024-11-06T17:00:00	6	Velocidad del viento	9.7
52942	7	Sololá	701	Sololá	3	Barraneche	10	Octubre	2023-03-10T00:00:00	2024-11-06T17:00:00	7	Dirección del viento	9.66
52943	7	Sololá	701	Sololá	3	Barraneche	10	Octubre	2023-03-10T00:00:00	2024-11-06T17:00:00	1	Precipitación	0
52944	7	Sololá	701	Sololá	3	Barraneche	10	Octubre	2023-03-10T00:00:00	2024-11-06T17:00:00	8	Radiación solar	56
52945	7	Sololá	701	Sololá	3	Barraneche	10	Octubre	2023-03-10T00:00:00	2024-11-06T18:00:00	2	Temperatura media	14.5
52946	7	Sololá	701	Sololá	3	Barraneche	10	Octubre	2023-03-10T00:00:00	2024-11-06T18:00:00	4	Temperatura máxima	15.1
52947	7	Sololá	701	Sololá	3	Barraneche	10	Octubre	2023-03-10T00:00:00	2024-11-06T18:00:00	3	Temperatura mínima	14.5
52948	7	Sololá	701	Sololá	3	Barraneche	10	Octubre	2023-03-10T00:00:00	2024-11-06T18:00:00	5	Humedad	86
52949	7	Sololá	701	Sololá	3	Barraneche	10	Octubre	2023-03-10T00:00:00	2024-11-06T18:00:00	6	Velocidad del viento	6.4
52950	7	Sololá	701	Sololá	3	Barraneche	10	Octubre	2023-03-10T00:00:00	2024-11-06T18:00:00	7	Dirección del viento	6.44
52951	7	Sololá	701	Sololá	3	Barraneche	10	Octubre	2023-03-10T00:00:00	2024-11-06T18:00:00	1	Precipitación	0
52952	7	Sololá	701	Sololá	3	Barraneche	10	Octubre	2023-03-10T00:00:00	2024-11-06T18:00:00	8	Radiación solar	12
52953	7	Sololá	701	Sololá	3	Barraneche	10	Octubre	2023-03-10T00:00:00	2024-11-06T19:00:00	2	Temperatura media	14.6
52954	7	Sololá	701	Sololá	3	Barraneche	10	Octubre	2023-03-10T00:00:00	2024-11-06T19:00:00	4	Temperatura máxima	14.7
52955	7	Sololá	701	Sololá	3	Barraneche	10	Octubre	2023-03-10T00:00:00	2024-11-06T19:00:00	3	Temperatura mínima	14.4
52956	7	Sololá	701	Sololá	3	Barraneche	10	Octubre	2023-03-10T00:00:00	2024-11-06T19:00:00	5	Humedad	85
52957	7	Sololá	701	Sololá	3	Barraneche	10	Octubre	2023-03-10T00:00:00	2024-11-06T19:00:00	6	Velocidad del viento	1.6
52958	7	Sololá	701	Sololá	3	Barraneche	10	Octubre	2023-03-10T00:00:00	2024-11-06T19:00:00	7	Dirección del viento	1.61
52959	7	Sololá	701	Sololá	3	Barraneche	10	Octubre	2023-03-10T00:00:00	2024-11-06T19:00:00	1	Precipitación	0
52960	7	Sololá	701	Sololá	3	Barraneche	10	Octubre	2023-03-10T00:00:00	2024-11-06T19:00:00	8	Radiación solar	0
52961	7	Sololá	701	Sololá	3	Barraneche	10	Octubre	2023-03-10T00:00:00	2024-11-06T20:00:00	2	Temperatura media	14.1
52962	7	Sololá	701	Sololá	3	Barraneche	10	Octubre	2023-03-10T00:00:00	2024-11-06T20:00:00	4	Temperatura máxima	14.6
52963	7	Sololá	701	Sololá	3	Barraneche	10	Octubre	2023-03-10T00:00:00	2024-11-06T20:00:00	3	Temperatura mínima	13.9
52964	7	Sololá	701	Sololá	3	Barraneche	10	Octubre	2023-03-10T00:00:00	2024-11-06T20:00:00	5	Humedad	83
52965	7	Sololá	701	Sololá	3	Barraneche	10	Octubre	2023-03-10T00:00:00	2024-11-06T20:00:00	6	Velocidad del viento	1.6
52966	7	Sololá	701	Sololá	3	Barraneche	10	Octubre	2023-03-10T00:00:00	2024-11-06T20:00:00	7	Dirección del viento	1.61
52967	7	Sololá	701	Sololá	3	Barraneche	10	Octubre	2023-03-10T00:00:00	2024-11-06T20:00:00	1	Precipitación	0
52968	7	Sololá	701	Sololá	3	Barraneche	10	Octubre	2023-03-10T00:00:00	2024-11-06T20:00:00	8	Radiación solar	0
52969	7	Sololá	701	Sololá	3	Barraneche	10	Octubre	2023-03-10T00:00:00	2024-11-06T21:00:00	2	Temperatura media	14.2
52970	7	Sololá	701	Sololá	3	Barraneche	10	Octubre	2023-03-10T00:00:00	2024-11-06T21:00:00	4	Temperatura máxima	14.4
52971	7	Sololá	701	Sololá	3	Barraneche	10	Octubre	2023-03-10T00:00:00	2024-11-06T21:00:00	3	Temperatura mínima	14.1
52972	7	Sololá	701	Sololá	3	Barraneche	10	Octubre	2023-03-10T00:00:00	2024-11-06T21:00:00	5	Humedad	85
52973	7	Sololá	701	Sololá	3	Barraneche	10	Octubre	2023-03-10T00:00:00	2024-11-06T21:00:00	6	Velocidad del viento	1.6
52974	7	Sololá	701	Sololá	3	Barraneche	10	Octubre	2023-03-10T00:00:00	2024-11-06T21:00:00	7	Dirección del viento	1.61
52975	7	Sololá	701	Sololá	3	Barraneche	10	Octubre	2023-03-10T00:00:00	2024-11-06T21:00:00	1	Precipitación	2.6
52976	7	Sololá	701	Sololá	3	Barraneche	10	Octubre	2023-03-10T00:00:00	2024-11-06T21:00:00	8	Radiación solar	0
52977	7	Sololá	701	Sololá	3	Barraneche	10	Octubre	2023-03-10T00:00:00	2024-11-06T22:00:00	2	Temperatura media	13.9
52978	7	Sololá	701	Sololá	3	Barraneche	10	Octubre	2023-03-10T00:00:00	2024-11-06T22:00:00	4	Temperatura máxima	14.2
52979	7	Sololá	701	Sololá	3	Barraneche	10	Octubre	2023-03-10T00:00:00	2024-11-06T22:00:00	3	Temperatura mínima	13.9
52980	7	Sololá	701	Sololá	3	Barraneche	10	Octubre	2023-03-10T00:00:00	2024-11-06T22:00:00	5	Humedad	85
52981	7	Sololá	701	Sololá	3	Barraneche	10	Octubre	2023-03-10T00:00:00	2024-11-06T22:00:00	6	Velocidad del viento	1.6
52982	7	Sololá	701	Sololá	3	Barraneche	10	Octubre	2023-03-10T00:00:00	2024-11-06T22:00:00	7	Dirección del viento	1.61
52983	7	Sololá	701	Sololá	3	Barraneche	10	Octubre	2023-03-10T00:00:00	2024-11-06T22:00:00	1	Precipitación	4.4
52984	7	Sololá	701	Sololá	3	Barraneche	10	Octubre	2023-03-10T00:00:00	2024-11-06T22:00:00	8	Radiación solar	0
52985	7	Sololá	701	Sololá	3	Barraneche	10	Octubre	2023-03-10T00:00:00	2024-11-06T23:00:00	2	Temperatura media	13.2
52986	7	Sololá	701	Sololá	3	Barraneche	10	Octubre	2023-03-10T00:00:00	2024-11-06T23:00:00	4	Temperatura máxima	14
52987	7	Sololá	701	Sololá	3	Barraneche	10	Octubre	2023-03-10T00:00:00	2024-11-06T23:00:00	3	Temperatura mínima	13.2
52988	7	Sololá	701	Sololá	3	Barraneche	10	Octubre	2023-03-10T00:00:00	2024-11-06T23:00:00	5	Humedad	84
52989	7	Sololá	701	Sololá	3	Barraneche	10	Octubre	2023-03-10T00:00:00	2024-11-06T23:00:00	6	Velocidad del viento	3.2
52990	7	Sololá	701	Sololá	3	Barraneche	10	Octubre	2023-03-10T00:00:00	2024-11-06T23:00:00	7	Dirección del viento	3.22
52991	7	Sololá	701	Sololá	3	Barraneche	10	Octubre	2023-03-10T00:00:00	2024-11-06T23:00:00	1	Precipitación	2.2
52992	7	Sololá	701	Sololá	3	Barraneche	10	Octubre	2023-03-10T00:00:00	2024-11-06T23:00:00	8	Radiación solar	0
52993	7	Sololá	701	Sololá	3	Barraneche	10	Octubre	2023-04-10T00:00:00	2024-11-06T00:00:00	2	Temperatura media	12.8
52994	7	Sololá	701	Sololá	3	Barraneche	10	Octubre	2023-04-10T00:00:00	2024-11-06T00:00:00	4	Temperatura máxima	13.2
52995	7	Sololá	701	Sololá	3	Barraneche	10	Octubre	2023-04-10T00:00:00	2024-11-06T00:00:00	3	Temperatura mínima	12.8
52996	7	Sololá	701	Sololá	3	Barraneche	10	Octubre	2023-04-10T00:00:00	2024-11-06T00:00:00	5	Humedad	85
52997	7	Sololá	701	Sololá	3	Barraneche	10	Octubre	2023-04-10T00:00:00	2024-11-06T00:00:00	6	Velocidad del viento	1.6
52998	7	Sololá	701	Sololá	3	Barraneche	10	Octubre	2023-04-10T00:00:00	2024-11-06T00:00:00	7	Dirección del viento	1.61
52999	7	Sololá	701	Sololá	3	Barraneche	10	Octubre	2023-04-10T00:00:00	2024-11-06T00:00:00	1	Precipitación	0.2
53000	7	Sololá	701	Sololá	3	Barraneche	10	Octubre	2023-04-10T00:00:00	2024-11-06T00:00:00	8	Radiación solar	0
53001	7	Sololá	701	Sololá	3	Barraneche	10	Octubre	2023-04-10T00:00:00	2024-11-06T01:00:00	2	Temperatura media	12.1
53002	7	Sololá	701	Sololá	3	Barraneche	10	Octubre	2023-04-10T00:00:00	2024-11-06T01:00:00	4	Temperatura máxima	12.9
53003	7	Sololá	701	Sololá	3	Barraneche	10	Octubre	2023-04-10T00:00:00	2024-11-06T01:00:00	3	Temperatura mínima	12.1
53004	7	Sololá	701	Sololá	3	Barraneche	10	Octubre	2023-04-10T00:00:00	2024-11-06T01:00:00	5	Humedad	84
53005	7	Sololá	701	Sololá	3	Barraneche	10	Octubre	2023-04-10T00:00:00	2024-11-06T01:00:00	6	Velocidad del viento	1.6
53006	7	Sololá	701	Sololá	3	Barraneche	10	Octubre	2023-04-10T00:00:00	2024-11-06T01:00:00	7	Dirección del viento	1.61
53007	7	Sololá	701	Sololá	3	Barraneche	10	Octubre	2023-04-10T00:00:00	2024-11-06T01:00:00	1	Precipitación	0
53008	7	Sololá	701	Sololá	3	Barraneche	10	Octubre	2023-04-10T00:00:00	2024-11-06T01:00:00	8	Radiación solar	0
53009	7	Sololá	701	Sololá	3	Barraneche	10	Octubre	2023-04-10T00:00:00	2024-11-06T02:00:00	2	Temperatura media	12.4
53010	7	Sololá	701	Sololá	3	Barraneche	10	Octubre	2023-04-10T00:00:00	2024-11-06T02:00:00	4	Temperatura máxima	12.6
53011	7	Sololá	701	Sololá	3	Barraneche	10	Octubre	2023-04-10T00:00:00	2024-11-06T02:00:00	3	Temperatura mínima	12.1
53012	7	Sololá	701	Sololá	3	Barraneche	10	Octubre	2023-04-10T00:00:00	2024-11-06T02:00:00	5	Humedad	84
53013	7	Sololá	701	Sololá	3	Barraneche	10	Octubre	2023-04-10T00:00:00	2024-11-06T02:00:00	6	Velocidad del viento	3.2
53014	7	Sololá	701	Sololá	3	Barraneche	10	Octubre	2023-04-10T00:00:00	2024-11-06T02:00:00	7	Dirección del viento	3.22
53015	7	Sololá	701	Sololá	3	Barraneche	10	Octubre	2023-04-10T00:00:00	2024-11-06T02:00:00	1	Precipitación	0
53016	7	Sololá	701	Sololá	3	Barraneche	10	Octubre	2023-04-10T00:00:00	2024-11-06T02:00:00	8	Radiación solar	0
53017	7	Sololá	701	Sololá	3	Barraneche	10	Octubre	2023-04-10T00:00:00	2024-11-06T03:00:00	2	Temperatura media	12.1
53018	7	Sololá	701	Sololá	3	Barraneche	10	Octubre	2023-04-10T00:00:00	2024-11-06T03:00:00	4	Temperatura máxima	12.6
53019	7	Sololá	701	Sololá	3	Barraneche	10	Octubre	2023-04-10T00:00:00	2024-11-06T03:00:00	3	Temperatura mínima	12.1
53020	7	Sololá	701	Sololá	3	Barraneche	10	Octubre	2023-04-10T00:00:00	2024-11-06T03:00:00	5	Humedad	84
53021	7	Sololá	701	Sololá	3	Barraneche	10	Octubre	2023-04-10T00:00:00	2024-11-06T03:00:00	6	Velocidad del viento	1.6
53022	7	Sololá	701	Sololá	3	Barraneche	10	Octubre	2023-04-10T00:00:00	2024-11-06T03:00:00	7	Dirección del viento	1.61
53023	7	Sololá	701	Sololá	3	Barraneche	10	Octubre	2023-04-10T00:00:00	2024-11-06T03:00:00	1	Precipitación	0
53024	7	Sololá	701	Sololá	3	Barraneche	10	Octubre	2023-04-10T00:00:00	2024-11-06T03:00:00	8	Radiación solar	0
53025	7	Sololá	701	Sololá	3	Barraneche	10	Octubre	2023-04-10T00:00:00	2024-11-06T04:00:00	2	Temperatura media	11.8
53026	7	Sololá	701	Sololá	3	Barraneche	10	Octubre	2023-04-10T00:00:00	2024-11-06T04:00:00	4	Temperatura máxima	12.2
53027	7	Sololá	701	Sololá	3	Barraneche	10	Octubre	2023-04-10T00:00:00	2024-11-06T04:00:00	3	Temperatura mínima	11.8
53028	7	Sololá	701	Sololá	3	Barraneche	10	Octubre	2023-04-10T00:00:00	2024-11-06T04:00:00	5	Humedad	84
53029	7	Sololá	701	Sololá	3	Barraneche	10	Octubre	2023-04-10T00:00:00	2024-11-06T04:00:00	6	Velocidad del viento	3.2
53030	7	Sololá	701	Sololá	3	Barraneche	10	Octubre	2023-04-10T00:00:00	2024-11-06T04:00:00	7	Dirección del viento	3.22
53031	7	Sololá	701	Sololá	3	Barraneche	10	Octubre	2023-04-10T00:00:00	2024-11-06T04:00:00	1	Precipitación	0
53032	7	Sololá	701	Sololá	3	Barraneche	10	Octubre	2023-04-10T00:00:00	2024-11-06T04:00:00	8	Radiación solar	0
53033	7	Sololá	701	Sololá	3	Barraneche	10	Octubre	2023-04-10T00:00:00	2024-11-06T05:00:00	2	Temperatura media	11.8
53034	7	Sololá	701	Sololá	3	Barraneche	10	Octubre	2023-04-10T00:00:00	2024-11-06T05:00:00	4	Temperatura máxima	12.2
53035	7	Sololá	701	Sololá	3	Barraneche	10	Octubre	2023-04-10T00:00:00	2024-11-06T05:00:00	3	Temperatura mínima	11.7
53036	7	Sololá	701	Sololá	3	Barraneche	10	Octubre	2023-04-10T00:00:00	2024-11-06T05:00:00	5	Humedad	85
53037	7	Sololá	701	Sololá	3	Barraneche	10	Octubre	2023-04-10T00:00:00	2024-11-06T05:00:00	6	Velocidad del viento	3.2
53038	7	Sololá	701	Sololá	3	Barraneche	10	Octubre	2023-04-10T00:00:00	2024-11-06T05:00:00	7	Dirección del viento	3.22
53039	7	Sololá	701	Sololá	3	Barraneche	10	Octubre	2023-04-10T00:00:00	2024-11-06T05:00:00	1	Precipitación	0
53040	7	Sololá	701	Sololá	3	Barraneche	10	Octubre	2023-04-10T00:00:00	2024-11-06T05:00:00	8	Radiación solar	0
53041	7	Sololá	701	Sololá	3	Barraneche	10	Octubre	2023-04-10T00:00:00	2024-11-06T06:00:00	2	Temperatura media	12.4
53042	7	Sololá	701	Sololá	3	Barraneche	10	Octubre	2023-04-10T00:00:00	2024-11-06T06:00:00	4	Temperatura máxima	12.7
53043	7	Sololá	701	Sololá	3	Barraneche	10	Octubre	2023-04-10T00:00:00	2024-11-06T06:00:00	3	Temperatura mínima	11.9
53044	7	Sololá	701	Sololá	3	Barraneche	10	Octubre	2023-04-10T00:00:00	2024-11-06T06:00:00	5	Humedad	84
53045	7	Sololá	701	Sololá	3	Barraneche	10	Octubre	2023-04-10T00:00:00	2024-11-06T06:00:00	6	Velocidad del viento	3.2
53046	7	Sololá	701	Sololá	3	Barraneche	10	Octubre	2023-04-10T00:00:00	2024-11-06T06:00:00	7	Dirección del viento	3.22
53047	7	Sololá	701	Sololá	3	Barraneche	10	Octubre	2023-04-10T00:00:00	2024-11-06T06:00:00	1	Precipitación	0
53048	7	Sololá	701	Sololá	3	Barraneche	10	Octubre	2023-04-10T00:00:00	2024-11-06T06:00:00	8	Radiación solar	0
53049	7	Sololá	701	Sololá	3	Barraneche	10	Octubre	2023-04-10T00:00:00	2024-11-06T07:00:00	2	Temperatura media	13.1
53050	7	Sololá	701	Sololá	3	Barraneche	10	Octubre	2023-04-10T00:00:00	2024-11-06T07:00:00	4	Temperatura máxima	13.1
53051	7	Sololá	701	Sololá	3	Barraneche	10	Octubre	2023-04-10T00:00:00	2024-11-06T07:00:00	3	Temperatura mínima	12.1
53052	7	Sololá	701	Sololá	3	Barraneche	10	Octubre	2023-04-10T00:00:00	2024-11-06T07:00:00	5	Humedad	83
53053	7	Sololá	701	Sololá	3	Barraneche	10	Octubre	2023-04-10T00:00:00	2024-11-06T07:00:00	6	Velocidad del viento	3.2
53054	7	Sololá	701	Sololá	3	Barraneche	10	Octubre	2023-04-10T00:00:00	2024-11-06T07:00:00	7	Dirección del viento	3.22
53055	7	Sololá	701	Sololá	3	Barraneche	10	Octubre	2023-04-10T00:00:00	2024-11-06T07:00:00	1	Precipitación	0
53056	7	Sololá	701	Sololá	3	Barraneche	10	Octubre	2023-04-10T00:00:00	2024-11-06T07:00:00	8	Radiación solar	59
53057	7	Sololá	701	Sololá	3	Barraneche	10	Octubre	2023-04-10T00:00:00	2024-11-06T08:00:00	2	Temperatura media	16.5
53058	7	Sololá	701	Sololá	3	Barraneche	10	Octubre	2023-04-10T00:00:00	2024-11-06T08:00:00	4	Temperatura máxima	16.5
53059	7	Sololá	701	Sololá	3	Barraneche	10	Octubre	2023-04-10T00:00:00	2024-11-06T08:00:00	3	Temperatura mínima	13.2
53060	7	Sololá	701	Sololá	3	Barraneche	10	Octubre	2023-04-10T00:00:00	2024-11-06T08:00:00	5	Humedad	76
53061	7	Sololá	701	Sololá	3	Barraneche	10	Octubre	2023-04-10T00:00:00	2024-11-06T08:00:00	6	Velocidad del viento	3.2
53062	7	Sololá	701	Sololá	3	Barraneche	10	Octubre	2023-04-10T00:00:00	2024-11-06T08:00:00	7	Dirección del viento	3.22
53063	7	Sololá	701	Sololá	3	Barraneche	10	Octubre	2023-04-10T00:00:00	2024-11-06T08:00:00	1	Precipitación	0.2
53064	7	Sololá	701	Sololá	3	Barraneche	10	Octubre	2023-04-10T00:00:00	2024-11-06T08:00:00	8	Radiación solar	346
53065	7	Sololá	701	Sololá	3	Barraneche	10	Octubre	2023-04-10T00:00:00	2024-11-06T09:00:00	2	Temperatura media	17.6
53066	7	Sololá	701	Sololá	3	Barraneche	10	Octubre	2023-04-10T00:00:00	2024-11-06T09:00:00	4	Temperatura máxima	17.7
53067	7	Sololá	701	Sololá	3	Barraneche	10	Octubre	2023-04-10T00:00:00	2024-11-06T09:00:00	3	Temperatura mínima	16.4
53068	7	Sololá	701	Sololá	3	Barraneche	10	Octubre	2023-04-10T00:00:00	2024-11-06T09:00:00	5	Humedad	71
53069	7	Sololá	701	Sololá	3	Barraneche	10	Octubre	2023-04-10T00:00:00	2024-11-06T09:00:00	6	Velocidad del viento	12.9
53070	7	Sololá	701	Sololá	3	Barraneche	10	Octubre	2023-04-10T00:00:00	2024-11-06T09:00:00	7	Dirección del viento	12.87
53071	7	Sololá	701	Sololá	3	Barraneche	10	Octubre	2023-04-10T00:00:00	2024-11-06T09:00:00	1	Precipitación	0
53072	7	Sololá	701	Sololá	3	Barraneche	10	Octubre	2023-04-10T00:00:00	2024-11-06T09:00:00	8	Radiación solar	584
53073	7	Sololá	701	Sololá	3	Barraneche	10	Octubre	2023-04-10T00:00:00	2024-11-06T10:00:00	2	Temperatura media	20.1
53074	7	Sololá	701	Sololá	3	Barraneche	10	Octubre	2023-04-10T00:00:00	2024-11-06T10:00:00	4	Temperatura máxima	20.1
53075	7	Sololá	701	Sololá	3	Barraneche	10	Octubre	2023-04-10T00:00:00	2024-11-06T10:00:00	3	Temperatura mínima	17.6
53076	7	Sololá	701	Sololá	3	Barraneche	10	Octubre	2023-04-10T00:00:00	2024-11-06T10:00:00	5	Humedad	63
53077	7	Sololá	701	Sololá	3	Barraneche	10	Octubre	2023-04-10T00:00:00	2024-11-06T10:00:00	6	Velocidad del viento	11.3
53078	7	Sololá	701	Sololá	3	Barraneche	10	Octubre	2023-04-10T00:00:00	2024-11-06T10:00:00	7	Dirección del viento	11.27
53079	7	Sololá	701	Sololá	3	Barraneche	10	Octubre	2023-04-10T00:00:00	2024-11-06T10:00:00	1	Precipitación	0
53080	7	Sololá	701	Sololá	3	Barraneche	10	Octubre	2023-04-10T00:00:00	2024-11-06T10:00:00	8	Radiación solar	781
53081	7	Sololá	701	Sololá	3	Barraneche	10	Octubre	2023-04-10T00:00:00	2024-11-06T11:00:00	2	Temperatura media	20.1
53082	7	Sololá	701	Sololá	3	Barraneche	10	Octubre	2023-04-10T00:00:00	2024-11-06T11:00:00	4	Temperatura máxima	20.4
53083	7	Sololá	701	Sololá	3	Barraneche	10	Octubre	2023-04-10T00:00:00	2024-11-06T11:00:00	3	Temperatura mínima	20
53084	7	Sololá	701	Sololá	3	Barraneche	10	Octubre	2023-04-10T00:00:00	2024-11-06T11:00:00	5	Humedad	52
53085	7	Sololá	701	Sololá	3	Barraneche	10	Octubre	2023-04-10T00:00:00	2024-11-06T11:00:00	6	Velocidad del viento	8
53086	7	Sololá	701	Sololá	3	Barraneche	10	Octubre	2023-04-10T00:00:00	2024-11-06T11:00:00	7	Dirección del viento	8.05
53087	7	Sololá	701	Sololá	3	Barraneche	10	Octubre	2023-04-10T00:00:00	2024-11-06T11:00:00	1	Precipitación	0
53088	7	Sololá	701	Sololá	3	Barraneche	10	Octubre	2023-04-10T00:00:00	2024-11-06T11:00:00	8	Radiación solar	923
53089	7	Sololá	701	Sololá	3	Barraneche	10	Octubre	2023-04-10T00:00:00	2024-11-06T12:00:00	2	Temperatura media	19.1
53090	7	Sololá	701	Sololá	3	Barraneche	10	Octubre	2023-04-10T00:00:00	2024-11-06T12:00:00	4	Temperatura máxima	20.4
53091	7	Sololá	701	Sololá	3	Barraneche	10	Octubre	2023-04-10T00:00:00	2024-11-06T12:00:00	3	Temperatura mínima	19.1
53092	7	Sololá	701	Sololá	3	Barraneche	10	Octubre	2023-04-10T00:00:00	2024-11-06T12:00:00	5	Humedad	62
53093	7	Sololá	701	Sololá	3	Barraneche	10	Octubre	2023-04-10T00:00:00	2024-11-06T12:00:00	6	Velocidad del viento	9.7
53094	7	Sololá	701	Sololá	3	Barraneche	10	Octubre	2023-04-10T00:00:00	2024-11-06T12:00:00	7	Dirección del viento	9.66
53095	7	Sololá	701	Sololá	3	Barraneche	10	Octubre	2023-04-10T00:00:00	2024-11-06T12:00:00	1	Precipitación	0
53096	7	Sololá	701	Sololá	3	Barraneche	10	Octubre	2023-04-10T00:00:00	2024-11-06T12:00:00	8	Radiación solar	636
53097	7	Sololá	701	Sololá	3	Barraneche	10	Octubre	2023-04-10T00:00:00	2024-11-06T13:00:00	2	Temperatura media	17.9
53098	7	Sololá	701	Sololá	3	Barraneche	10	Octubre	2023-04-10T00:00:00	2024-11-06T13:00:00	4	Temperatura máxima	19.2
53099	7	Sololá	701	Sololá	3	Barraneche	10	Octubre	2023-04-10T00:00:00	2024-11-06T13:00:00	3	Temperatura mínima	17.9
53100	7	Sololá	701	Sololá	3	Barraneche	10	Octubre	2023-04-10T00:00:00	2024-11-06T13:00:00	5	Humedad	65
53101	7	Sololá	701	Sololá	3	Barraneche	10	Octubre	2023-04-10T00:00:00	2024-11-06T13:00:00	6	Velocidad del viento	8
53102	7	Sololá	701	Sololá	3	Barraneche	10	Octubre	2023-04-10T00:00:00	2024-11-06T13:00:00	7	Dirección del viento	8.05
53103	7	Sololá	701	Sololá	3	Barraneche	10	Octubre	2023-04-10T00:00:00	2024-11-06T13:00:00	1	Precipitación	0
53104	7	Sololá	701	Sololá	3	Barraneche	10	Octubre	2023-04-10T00:00:00	2024-11-06T13:00:00	8	Radiación solar	329
53105	7	Sololá	701	Sololá	3	Barraneche	10	Octubre	2023-04-10T00:00:00	2024-11-06T14:00:00	2	Temperatura media	17.6
53106	7	Sololá	701	Sololá	3	Barraneche	10	Octubre	2023-04-10T00:00:00	2024-11-06T14:00:00	4	Temperatura máxima	17.9
53107	7	Sololá	701	Sololá	3	Barraneche	10	Octubre	2023-04-10T00:00:00	2024-11-06T14:00:00	3	Temperatura mínima	16.6
53108	7	Sololá	701	Sololá	3	Barraneche	10	Octubre	2023-04-10T00:00:00	2024-11-06T14:00:00	5	Humedad	71
53109	7	Sololá	701	Sololá	3	Barraneche	10	Octubre	2023-04-10T00:00:00	2024-11-06T14:00:00	6	Velocidad del viento	4.8
53110	7	Sololá	701	Sololá	3	Barraneche	10	Octubre	2023-04-10T00:00:00	2024-11-06T14:00:00	7	Dirección del viento	4.83
53111	7	Sololá	701	Sololá	3	Barraneche	10	Octubre	2023-04-10T00:00:00	2024-11-06T14:00:00	1	Precipitación	0.6
53112	7	Sololá	701	Sololá	3	Barraneche	10	Octubre	2023-04-10T00:00:00	2024-11-06T14:00:00	8	Radiación solar	268
53113	7	Sololá	701	Sololá	3	Barraneche	10	Octubre	2023-04-10T00:00:00	2024-11-06T15:00:00	2	Temperatura media	16.2
53114	7	Sololá	701	Sololá	3	Barraneche	10	Octubre	2023-04-10T00:00:00	2024-11-06T15:00:00	4	Temperatura máxima	18.1
53115	7	Sololá	701	Sololá	3	Barraneche	10	Octubre	2023-04-10T00:00:00	2024-11-06T15:00:00	3	Temperatura mínima	16.2
53116	7	Sololá	701	Sololá	3	Barraneche	10	Octubre	2023-04-10T00:00:00	2024-11-06T15:00:00	5	Humedad	80
53117	7	Sololá	701	Sololá	3	Barraneche	10	Octubre	2023-04-10T00:00:00	2024-11-06T15:00:00	6	Velocidad del viento	6.4
53118	7	Sololá	701	Sololá	3	Barraneche	10	Octubre	2023-04-10T00:00:00	2024-11-06T15:00:00	7	Dirección del viento	6.44
53119	7	Sololá	701	Sololá	3	Barraneche	10	Octubre	2023-04-10T00:00:00	2024-11-06T15:00:00	1	Precipitación	0
53120	7	Sololá	701	Sololá	3	Barraneche	10	Octubre	2023-04-10T00:00:00	2024-11-06T15:00:00	8	Radiación solar	185
53121	7	Sololá	701	Sololá	3	Barraneche	10	Octubre	2023-04-10T00:00:00	2024-11-06T16:00:00	2	Temperatura media	15.7
53122	7	Sololá	701	Sololá	3	Barraneche	10	Octubre	2023-04-10T00:00:00	2024-11-06T16:00:00	4	Temperatura máxima	16.3
53123	7	Sololá	701	Sololá	3	Barraneche	10	Octubre	2023-04-10T00:00:00	2024-11-06T16:00:00	3	Temperatura mínima	15.7
53124	7	Sololá	701	Sololá	3	Barraneche	10	Octubre	2023-04-10T00:00:00	2024-11-06T16:00:00	5	Humedad	83
53125	7	Sololá	701	Sololá	3	Barraneche	10	Octubre	2023-04-10T00:00:00	2024-11-06T16:00:00	6	Velocidad del viento	4.8
53126	7	Sololá	701	Sololá	3	Barraneche	10	Octubre	2023-04-10T00:00:00	2024-11-06T16:00:00	7	Dirección del viento	4.83
53127	7	Sololá	701	Sololá	3	Barraneche	10	Octubre	2023-04-10T00:00:00	2024-11-06T16:00:00	1	Precipitación	0
53128	7	Sololá	701	Sololá	3	Barraneche	10	Octubre	2023-04-10T00:00:00	2024-11-06T16:00:00	8	Radiación solar	27
53129	7	Sololá	701	Sololá	3	Barraneche	10	Octubre	2023-04-10T00:00:00	2024-11-06T17:00:00	2	Temperatura media	14.9
53130	7	Sololá	701	Sololá	3	Barraneche	10	Octubre	2023-04-10T00:00:00	2024-11-06T17:00:00	4	Temperatura máxima	15.7
53131	7	Sololá	701	Sololá	3	Barraneche	10	Octubre	2023-04-10T00:00:00	2024-11-06T17:00:00	3	Temperatura mínima	14.8
53132	7	Sololá	701	Sololá	3	Barraneche	10	Octubre	2023-04-10T00:00:00	2024-11-06T17:00:00	5	Humedad	82
53133	7	Sololá	701	Sololá	3	Barraneche	10	Octubre	2023-04-10T00:00:00	2024-11-06T17:00:00	6	Velocidad del viento	4.8
53134	7	Sololá	701	Sololá	3	Barraneche	10	Octubre	2023-04-10T00:00:00	2024-11-06T17:00:00	7	Dirección del viento	4.83
53135	7	Sololá	701	Sololá	3	Barraneche	10	Octubre	2023-04-10T00:00:00	2024-11-06T17:00:00	1	Precipitación	1.6
53136	7	Sololá	701	Sololá	3	Barraneche	10	Octubre	2023-04-10T00:00:00	2024-11-06T17:00:00	8	Radiación solar	9
53137	7	Sololá	701	Sololá	3	Barraneche	10	Octubre	2023-04-10T00:00:00	2024-11-06T18:00:00	2	Temperatura media	14.8
53138	7	Sololá	701	Sololá	3	Barraneche	10	Octubre	2023-04-10T00:00:00	2024-11-06T18:00:00	4	Temperatura máxima	14.9
53139	7	Sololá	701	Sololá	3	Barraneche	10	Octubre	2023-04-10T00:00:00	2024-11-06T18:00:00	3	Temperatura mínima	14.7
53140	7	Sololá	701	Sololá	3	Barraneche	10	Octubre	2023-04-10T00:00:00	2024-11-06T18:00:00	5	Humedad	84
53141	7	Sololá	701	Sololá	3	Barraneche	10	Octubre	2023-04-10T00:00:00	2024-11-06T18:00:00	6	Velocidad del viento	1.6
53142	7	Sololá	701	Sololá	3	Barraneche	10	Octubre	2023-04-10T00:00:00	2024-11-06T18:00:00	7	Dirección del viento	1.61
53143	7	Sololá	701	Sololá	3	Barraneche	10	Octubre	2023-04-10T00:00:00	2024-11-06T18:00:00	1	Precipitación	1.2
53144	7	Sololá	701	Sololá	3	Barraneche	10	Octubre	2023-04-10T00:00:00	2024-11-06T18:00:00	8	Radiación solar	5
53145	7	Sololá	701	Sololá	3	Barraneche	10	Octubre	2023-04-10T00:00:00	2024-11-06T19:00:00	2	Temperatura media	14.3
53146	7	Sololá	701	Sololá	3	Barraneche	10	Octubre	2023-04-10T00:00:00	2024-11-06T19:00:00	4	Temperatura máxima	14.8
53147	7	Sololá	701	Sololá	3	Barraneche	10	Octubre	2023-04-10T00:00:00	2024-11-06T19:00:00	3	Temperatura mínima	14.3
53148	7	Sololá	701	Sololá	3	Barraneche	10	Octubre	2023-04-10T00:00:00	2024-11-06T19:00:00	5	Humedad	84
53149	7	Sololá	701	Sololá	3	Barraneche	10	Octubre	2023-04-10T00:00:00	2024-11-06T19:00:00	6	Velocidad del viento	1.6
53150	7	Sololá	701	Sololá	3	Barraneche	10	Octubre	2023-04-10T00:00:00	2024-11-06T19:00:00	7	Dirección del viento	1.61
53151	7	Sololá	701	Sololá	3	Barraneche	10	Octubre	2023-04-10T00:00:00	2024-11-06T19:00:00	1	Precipitación	0
53152	7	Sololá	701	Sololá	3	Barraneche	10	Octubre	2023-04-10T00:00:00	2024-11-06T19:00:00	8	Radiación solar	0
53153	7	Sololá	701	Sololá	3	Barraneche	10	Octubre	2023-04-10T00:00:00	2024-11-06T20:00:00	2	Temperatura media	13.6
53154	7	Sololá	701	Sololá	3	Barraneche	10	Octubre	2023-04-10T00:00:00	2024-11-06T20:00:00	4	Temperatura máxima	14.3
53155	7	Sololá	701	Sololá	3	Barraneche	10	Octubre	2023-04-10T00:00:00	2024-11-06T20:00:00	3	Temperatura mínima	13.4
53156	7	Sololá	701	Sololá	3	Barraneche	10	Octubre	2023-04-10T00:00:00	2024-11-06T20:00:00	5	Humedad	80
53157	7	Sololá	701	Sololá	3	Barraneche	10	Octubre	2023-04-10T00:00:00	2024-11-06T20:00:00	6	Velocidad del viento	4.8
53158	7	Sololá	701	Sololá	3	Barraneche	10	Octubre	2023-04-10T00:00:00	2024-11-06T20:00:00	7	Dirección del viento	4.83
53159	7	Sololá	701	Sololá	3	Barraneche	10	Octubre	2023-04-10T00:00:00	2024-11-06T20:00:00	1	Precipitación	0
53160	7	Sololá	701	Sololá	3	Barraneche	10	Octubre	2023-04-10T00:00:00	2024-11-06T20:00:00	8	Radiación solar	0
53161	7	Sololá	701	Sololá	3	Barraneche	10	Octubre	2023-04-10T00:00:00	2024-11-06T21:00:00	2	Temperatura media	13.3
53162	7	Sololá	701	Sololá	3	Barraneche	10	Octubre	2023-04-10T00:00:00	2024-11-06T21:00:00	4	Temperatura máxima	13.6
53163	7	Sololá	701	Sololá	3	Barraneche	10	Octubre	2023-04-10T00:00:00	2024-11-06T21:00:00	3	Temperatura mínima	13.2
53164	7	Sololá	701	Sololá	3	Barraneche	10	Octubre	2023-04-10T00:00:00	2024-11-06T21:00:00	5	Humedad	83
53165	7	Sololá	701	Sololá	3	Barraneche	10	Octubre	2023-04-10T00:00:00	2024-11-06T21:00:00	6	Velocidad del viento	3.2
53166	7	Sololá	701	Sololá	3	Barraneche	10	Octubre	2023-04-10T00:00:00	2024-11-06T21:00:00	7	Dirección del viento	3.22
53167	7	Sololá	701	Sololá	3	Barraneche	10	Octubre	2023-04-10T00:00:00	2024-11-06T21:00:00	1	Precipitación	0
53168	7	Sololá	701	Sololá	3	Barraneche	10	Octubre	2023-04-10T00:00:00	2024-11-06T21:00:00	8	Radiación solar	0
53169	7	Sololá	701	Sololá	3	Barraneche	10	Octubre	2023-04-10T00:00:00	2024-11-06T22:00:00	2	Temperatura media	13.5
53170	7	Sololá	701	Sololá	3	Barraneche	10	Octubre	2023-04-10T00:00:00	2024-11-06T22:00:00	4	Temperatura máxima	13.5
53171	7	Sololá	701	Sololá	3	Barraneche	10	Octubre	2023-04-10T00:00:00	2024-11-06T22:00:00	3	Temperatura mínima	13.2
53172	7	Sololá	701	Sololá	3	Barraneche	10	Octubre	2023-04-10T00:00:00	2024-11-06T22:00:00	5	Humedad	85
53173	7	Sololá	701	Sololá	3	Barraneche	10	Octubre	2023-04-10T00:00:00	2024-11-06T22:00:00	6	Velocidad del viento	1.6
53174	7	Sololá	701	Sololá	3	Barraneche	10	Octubre	2023-04-10T00:00:00	2024-11-06T22:00:00	7	Dirección del viento	1.61
53175	7	Sololá	701	Sololá	3	Barraneche	10	Octubre	2023-04-10T00:00:00	2024-11-06T22:00:00	1	Precipitación	0
53176	7	Sololá	701	Sololá	3	Barraneche	10	Octubre	2023-04-10T00:00:00	2024-11-06T22:00:00	8	Radiación solar	0
53177	7	Sololá	701	Sololá	3	Barraneche	10	Octubre	2023-04-10T00:00:00	2024-11-06T23:00:00	2	Temperatura media	13.9
53178	7	Sololá	701	Sololá	3	Barraneche	10	Octubre	2023-04-10T00:00:00	2024-11-06T23:00:00	4	Temperatura máxima	13.9
53179	7	Sololá	701	Sololá	3	Barraneche	10	Octubre	2023-04-10T00:00:00	2024-11-06T23:00:00	3	Temperatura mínima	13.4
53180	7	Sololá	701	Sololá	3	Barraneche	10	Octubre	2023-04-10T00:00:00	2024-11-06T23:00:00	5	Humedad	85
53181	7	Sololá	701	Sololá	3	Barraneche	10	Octubre	2023-04-10T00:00:00	2024-11-06T23:00:00	6	Velocidad del viento	1.6
53182	7	Sololá	701	Sololá	3	Barraneche	10	Octubre	2023-04-10T00:00:00	2024-11-06T23:00:00	7	Dirección del viento	1.61
53183	7	Sololá	701	Sololá	3	Barraneche	10	Octubre	2023-04-10T00:00:00	2024-11-06T23:00:00	1	Precipitación	0
53184	7	Sololá	701	Sololá	3	Barraneche	10	Octubre	2023-04-10T00:00:00	2024-11-06T23:00:00	8	Radiación solar	0
53185	7	Sololá	701	Sololá	3	Barraneche	10	Octubre	2023-05-10T00:00:00	2024-11-06T00:00:00	2	Temperatura media	13.6
53186	7	Sololá	701	Sololá	3	Barraneche	10	Octubre	2023-05-10T00:00:00	2024-11-06T00:00:00	4	Temperatura máxima	13.9
53187	7	Sololá	701	Sololá	3	Barraneche	10	Octubre	2023-05-10T00:00:00	2024-11-06T00:00:00	3	Temperatura mínima	13.6
53188	7	Sololá	701	Sololá	3	Barraneche	10	Octubre	2023-05-10T00:00:00	2024-11-06T00:00:00	5	Humedad	77
53189	7	Sololá	701	Sololá	3	Barraneche	10	Octubre	2023-05-10T00:00:00	2024-11-06T00:00:00	6	Velocidad del viento	4.8
53190	7	Sololá	701	Sololá	3	Barraneche	10	Octubre	2023-05-10T00:00:00	2024-11-06T00:00:00	7	Dirección del viento	4.83
53191	7	Sololá	701	Sololá	3	Barraneche	10	Octubre	2023-05-10T00:00:00	2024-11-06T00:00:00	1	Precipitación	0
53192	7	Sololá	701	Sololá	3	Barraneche	10	Octubre	2023-05-10T00:00:00	2024-11-06T00:00:00	8	Radiación solar	0
53193	7	Sololá	701	Sololá	3	Barraneche	10	Octubre	2023-05-10T00:00:00	2024-11-06T01:00:00	2	Temperatura media	12.8
53194	7	Sololá	701	Sololá	3	Barraneche	10	Octubre	2023-05-10T00:00:00	2024-11-06T01:00:00	4	Temperatura máxima	13.6
53195	7	Sololá	701	Sololá	3	Barraneche	10	Octubre	2023-05-10T00:00:00	2024-11-06T01:00:00	3	Temperatura mínima	12.8
53196	7	Sololá	701	Sololá	3	Barraneche	10	Octubre	2023-05-10T00:00:00	2024-11-06T01:00:00	5	Humedad	82
53197	7	Sololá	701	Sololá	3	Barraneche	10	Octubre	2023-05-10T00:00:00	2024-11-06T01:00:00	6	Velocidad del viento	1.6
53198	7	Sololá	701	Sololá	3	Barraneche	10	Octubre	2023-05-10T00:00:00	2024-11-06T01:00:00	7	Dirección del viento	1.61
53199	7	Sololá	701	Sololá	3	Barraneche	10	Octubre	2023-05-10T00:00:00	2024-11-06T01:00:00	1	Precipitación	0
53200	7	Sololá	701	Sololá	3	Barraneche	10	Octubre	2023-05-10T00:00:00	2024-11-06T01:00:00	8	Radiación solar	0
53201	7	Sololá	701	Sololá	3	Barraneche	10	Octubre	2023-05-10T00:00:00	2024-11-06T02:00:00	2	Temperatura media	12.4
53202	7	Sololá	701	Sololá	3	Barraneche	10	Octubre	2023-05-10T00:00:00	2024-11-06T02:00:00	4	Temperatura máxima	12.8
53203	7	Sololá	701	Sololá	3	Barraneche	10	Octubre	2023-05-10T00:00:00	2024-11-06T02:00:00	3	Temperatura mínima	12.4
53204	7	Sololá	701	Sololá	3	Barraneche	10	Octubre	2023-05-10T00:00:00	2024-11-06T02:00:00	5	Humedad	82
53205	7	Sololá	701	Sololá	3	Barraneche	10	Octubre	2023-05-10T00:00:00	2024-11-06T02:00:00	6	Velocidad del viento	4.8
53206	7	Sololá	701	Sololá	3	Barraneche	10	Octubre	2023-05-10T00:00:00	2024-11-06T02:00:00	7	Dirección del viento	4.83
53207	7	Sololá	701	Sololá	3	Barraneche	10	Octubre	2023-05-10T00:00:00	2024-11-06T02:00:00	1	Precipitación	0
53208	7	Sololá	701	Sololá	3	Barraneche	10	Octubre	2023-05-10T00:00:00	2024-11-06T02:00:00	8	Radiación solar	0
53209	7	Sololá	701	Sololá	3	Barraneche	10	Octubre	2023-05-10T00:00:00	2024-11-06T03:00:00	2	Temperatura media	12.3
53210	7	Sololá	701	Sololá	3	Barraneche	10	Octubre	2023-05-10T00:00:00	2024-11-06T03:00:00	4	Temperatura máxima	12.6
53211	7	Sololá	701	Sololá	3	Barraneche	10	Octubre	2023-05-10T00:00:00	2024-11-06T03:00:00	3	Temperatura mínima	12.3
53212	7	Sololá	701	Sololá	3	Barraneche	10	Octubre	2023-05-10T00:00:00	2024-11-06T03:00:00	5	Humedad	77
53213	7	Sololá	701	Sololá	3	Barraneche	10	Octubre	2023-05-10T00:00:00	2024-11-06T03:00:00	6	Velocidad del viento	4.8
53214	7	Sololá	701	Sololá	3	Barraneche	10	Octubre	2023-05-10T00:00:00	2024-11-06T03:00:00	7	Dirección del viento	4.83
53215	7	Sololá	701	Sololá	3	Barraneche	10	Octubre	2023-05-10T00:00:00	2024-11-06T03:00:00	1	Precipitación	0
53216	7	Sololá	701	Sololá	3	Barraneche	10	Octubre	2023-05-10T00:00:00	2024-11-06T03:00:00	8	Radiación solar	0
53217	7	Sololá	701	Sololá	3	Barraneche	10	Octubre	2023-05-10T00:00:00	2024-11-06T04:00:00	2	Temperatura media	12.1
53218	7	Sololá	701	Sololá	3	Barraneche	10	Octubre	2023-05-10T00:00:00	2024-11-06T04:00:00	4	Temperatura máxima	12.4
53219	7	Sololá	701	Sololá	3	Barraneche	10	Octubre	2023-05-10T00:00:00	2024-11-06T04:00:00	3	Temperatura mínima	12
53220	7	Sololá	701	Sololá	3	Barraneche	10	Octubre	2023-05-10T00:00:00	2024-11-06T04:00:00	5	Humedad	75
53221	7	Sololá	701	Sololá	3	Barraneche	10	Octubre	2023-05-10T00:00:00	2024-11-06T04:00:00	6	Velocidad del viento	6.4
53222	7	Sololá	701	Sololá	3	Barraneche	10	Octubre	2023-05-10T00:00:00	2024-11-06T04:00:00	7	Dirección del viento	6.44
53223	7	Sololá	701	Sololá	3	Barraneche	10	Octubre	2023-05-10T00:00:00	2024-11-06T04:00:00	1	Precipitación	0
53224	7	Sololá	701	Sololá	3	Barraneche	10	Octubre	2023-05-10T00:00:00	2024-11-06T04:00:00	8	Radiación solar	0
53225	7	Sololá	701	Sololá	3	Barraneche	10	Octubre	2023-05-10T00:00:00	2024-11-06T05:00:00	2	Temperatura media	12.3
53226	7	Sololá	701	Sololá	3	Barraneche	10	Octubre	2023-05-10T00:00:00	2024-11-06T05:00:00	4	Temperatura máxima	12.3
53227	7	Sololá	701	Sololá	3	Barraneche	10	Octubre	2023-05-10T00:00:00	2024-11-06T05:00:00	3	Temperatura mínima	11.7
53228	7	Sololá	701	Sololá	3	Barraneche	10	Octubre	2023-05-10T00:00:00	2024-11-06T05:00:00	5	Humedad	74
53229	7	Sololá	701	Sololá	3	Barraneche	10	Octubre	2023-05-10T00:00:00	2024-11-06T05:00:00	6	Velocidad del viento	8
53230	7	Sololá	701	Sololá	3	Barraneche	10	Octubre	2023-05-10T00:00:00	2024-11-06T05:00:00	7	Dirección del viento	8.05
53231	7	Sololá	701	Sololá	3	Barraneche	10	Octubre	2023-05-10T00:00:00	2024-11-06T05:00:00	1	Precipitación	0
53232	7	Sololá	701	Sololá	3	Barraneche	10	Octubre	2023-05-10T00:00:00	2024-11-06T05:00:00	8	Radiación solar	0
53233	7	Sololá	701	Sololá	3	Barraneche	10	Octubre	2023-05-10T00:00:00	2024-11-06T06:00:00	2	Temperatura media	11.8
53234	7	Sololá	701	Sololá	3	Barraneche	10	Octubre	2023-05-10T00:00:00	2024-11-06T06:00:00	4	Temperatura máxima	12.3
53235	7	Sololá	701	Sololá	3	Barraneche	10	Octubre	2023-05-10T00:00:00	2024-11-06T06:00:00	3	Temperatura mínima	11.7
53236	7	Sololá	701	Sololá	3	Barraneche	10	Octubre	2023-05-10T00:00:00	2024-11-06T06:00:00	5	Humedad	75
53237	7	Sololá	701	Sololá	3	Barraneche	10	Octubre	2023-05-10T00:00:00	2024-11-06T06:00:00	6	Velocidad del viento	4.8
53238	7	Sololá	701	Sololá	3	Barraneche	10	Octubre	2023-05-10T00:00:00	2024-11-06T06:00:00	7	Dirección del viento	4.83
53239	7	Sololá	701	Sololá	3	Barraneche	10	Octubre	2023-05-10T00:00:00	2024-11-06T06:00:00	1	Precipitación	0
53240	7	Sololá	701	Sololá	3	Barraneche	10	Octubre	2023-05-10T00:00:00	2024-11-06T06:00:00	8	Radiación solar	1
53241	7	Sololá	701	Sololá	3	Barraneche	10	Octubre	2023-05-10T00:00:00	2024-11-06T07:00:00	2	Temperatura media	13.1
53242	7	Sololá	701	Sololá	3	Barraneche	10	Octubre	2023-05-10T00:00:00	2024-11-06T07:00:00	4	Temperatura máxima	13.1
53243	7	Sololá	701	Sololá	3	Barraneche	10	Octubre	2023-05-10T00:00:00	2024-11-06T07:00:00	3	Temperatura mínima	11.6
53244	7	Sololá	701	Sololá	3	Barraneche	10	Octubre	2023-05-10T00:00:00	2024-11-06T07:00:00	5	Humedad	74
53245	7	Sololá	701	Sololá	3	Barraneche	10	Octubre	2023-05-10T00:00:00	2024-11-06T07:00:00	6	Velocidad del viento	4.8
53246	7	Sololá	701	Sololá	3	Barraneche	10	Octubre	2023-05-10T00:00:00	2024-11-06T07:00:00	7	Dirección del viento	4.83
53247	7	Sololá	701	Sololá	3	Barraneche	10	Octubre	2023-05-10T00:00:00	2024-11-06T07:00:00	1	Precipitación	0
53248	7	Sololá	701	Sololá	3	Barraneche	10	Octubre	2023-05-10T00:00:00	2024-11-06T07:00:00	8	Radiación solar	56
53249	7	Sololá	701	Sololá	3	Barraneche	10	Octubre	2023-05-10T00:00:00	2024-11-06T08:00:00	2	Temperatura media	17.1
53250	7	Sololá	701	Sololá	3	Barraneche	10	Octubre	2023-05-10T00:00:00	2024-11-06T08:00:00	4	Temperatura máxima	17.1
53251	7	Sololá	701	Sololá	3	Barraneche	10	Octubre	2023-05-10T00:00:00	2024-11-06T08:00:00	3	Temperatura mínima	13.2
53252	7	Sololá	701	Sololá	3	Barraneche	10	Octubre	2023-05-10T00:00:00	2024-11-06T08:00:00	5	Humedad	67
53253	7	Sololá	701	Sololá	3	Barraneche	10	Octubre	2023-05-10T00:00:00	2024-11-06T08:00:00	6	Velocidad del viento	3.2
53254	7	Sololá	701	Sololá	3	Barraneche	10	Octubre	2023-05-10T00:00:00	2024-11-06T08:00:00	7	Dirección del viento	3.22
53255	7	Sololá	701	Sololá	3	Barraneche	10	Octubre	2023-05-10T00:00:00	2024-11-06T08:00:00	1	Precipitación	0
53256	7	Sololá	701	Sololá	3	Barraneche	10	Octubre	2023-05-10T00:00:00	2024-11-06T08:00:00	8	Radiación solar	334
53257	7	Sololá	701	Sololá	3	Barraneche	10	Octubre	2023-05-10T00:00:00	2024-11-06T09:00:00	2	Temperatura media	19.7
53258	7	Sololá	701	Sololá	3	Barraneche	10	Octubre	2023-05-10T00:00:00	2024-11-06T09:00:00	4	Temperatura máxima	19.7
53259	7	Sololá	701	Sololá	3	Barraneche	10	Octubre	2023-05-10T00:00:00	2024-11-06T09:00:00	3	Temperatura mínima	17
53260	7	Sololá	701	Sololá	3	Barraneche	10	Octubre	2023-05-10T00:00:00	2024-11-06T09:00:00	5	Humedad	59
53261	7	Sololá	701	Sololá	3	Barraneche	10	Octubre	2023-05-10T00:00:00	2024-11-06T09:00:00	6	Velocidad del viento	6.4
53262	7	Sololá	701	Sololá	3	Barraneche	10	Octubre	2023-05-10T00:00:00	2024-11-06T09:00:00	7	Dirección del viento	6.44
53263	7	Sololá	701	Sololá	3	Barraneche	10	Octubre	2023-05-10T00:00:00	2024-11-06T09:00:00	1	Precipitación	0
53264	7	Sololá	701	Sololá	3	Barraneche	10	Octubre	2023-05-10T00:00:00	2024-11-06T09:00:00	8	Radiación solar	578
53265	7	Sololá	701	Sololá	3	Barraneche	10	Octubre	2023-05-10T00:00:00	2024-11-06T10:00:00	2	Temperatura media	19.7
53266	7	Sololá	701	Sololá	3	Barraneche	10	Octubre	2023-05-10T00:00:00	2024-11-06T10:00:00	4	Temperatura máxima	19.8
53267	7	Sololá	701	Sololá	3	Barraneche	10	Octubre	2023-05-10T00:00:00	2024-11-06T10:00:00	3	Temperatura mínima	19.4
53268	7	Sololá	701	Sololá	3	Barraneche	10	Octubre	2023-05-10T00:00:00	2024-11-06T10:00:00	5	Humedad	60
53269	7	Sololá	701	Sololá	3	Barraneche	10	Octubre	2023-05-10T00:00:00	2024-11-06T10:00:00	6	Velocidad del viento	14.5
53270	7	Sololá	701	Sololá	3	Barraneche	10	Octubre	2023-05-10T00:00:00	2024-11-06T10:00:00	7	Dirección del viento	14.48
53271	7	Sololá	701	Sololá	3	Barraneche	10	Octubre	2023-05-10T00:00:00	2024-11-06T10:00:00	1	Precipitación	0
53272	7	Sololá	701	Sololá	3	Barraneche	10	Octubre	2023-05-10T00:00:00	2024-11-06T10:00:00	8	Radiación solar	785
53273	7	Sololá	701	Sololá	3	Barraneche	10	Octubre	2023-05-10T00:00:00	2024-11-06T11:00:00	2	Temperatura media	19.7
53274	7	Sololá	701	Sololá	3	Barraneche	10	Octubre	2023-05-10T00:00:00	2024-11-06T11:00:00	4	Temperatura máxima	19.9
53275	7	Sololá	701	Sololá	3	Barraneche	10	Octubre	2023-05-10T00:00:00	2024-11-06T11:00:00	3	Temperatura mínima	19.2
53276	7	Sololá	701	Sololá	3	Barraneche	10	Octubre	2023-05-10T00:00:00	2024-11-06T11:00:00	5	Humedad	66
53277	7	Sololá	701	Sololá	3	Barraneche	10	Octubre	2023-05-10T00:00:00	2024-11-06T11:00:00	6	Velocidad del viento	14.5
53278	7	Sololá	701	Sololá	3	Barraneche	10	Octubre	2023-05-10T00:00:00	2024-11-06T11:00:00	7	Dirección del viento	14.48
53279	7	Sololá	701	Sololá	3	Barraneche	10	Octubre	2023-05-10T00:00:00	2024-11-06T11:00:00	1	Precipitación	0.2
53280	7	Sololá	701	Sololá	3	Barraneche	10	Octubre	2023-05-10T00:00:00	2024-11-06T11:00:00	8	Radiación solar	944
53281	7	Sololá	701	Sololá	3	Barraneche	10	Octubre	2023-05-10T00:00:00	2024-11-06T12:00:00	2	Temperatura media	20.1
53282	7	Sololá	701	Sololá	3	Barraneche	10	Octubre	2023-05-10T00:00:00	2024-11-06T12:00:00	4	Temperatura máxima	20.1
53283	7	Sololá	701	Sololá	3	Barraneche	10	Octubre	2023-05-10T00:00:00	2024-11-06T12:00:00	3	Temperatura mínima	19.1
53284	7	Sololá	701	Sololá	3	Barraneche	10	Octubre	2023-05-10T00:00:00	2024-11-06T12:00:00	5	Humedad	67
53285	7	Sololá	701	Sololá	3	Barraneche	10	Octubre	2023-05-10T00:00:00	2024-11-06T12:00:00	6	Velocidad del viento	12.9
53286	7	Sololá	701	Sololá	3	Barraneche	10	Octubre	2023-05-10T00:00:00	2024-11-06T12:00:00	7	Dirección del viento	12.87
53287	7	Sololá	701	Sololá	3	Barraneche	10	Octubre	2023-05-10T00:00:00	2024-11-06T12:00:00	1	Precipitación	0
53288	7	Sololá	701	Sololá	3	Barraneche	10	Octubre	2023-05-10T00:00:00	2024-11-06T12:00:00	8	Radiación solar	1063
53289	7	Sololá	701	Sololá	3	Barraneche	10	Octubre	2023-05-10T00:00:00	2024-11-06T13:00:00	2	Temperatura media	19.1
53290	7	Sololá	701	Sololá	3	Barraneche	10	Octubre	2023-05-10T00:00:00	2024-11-06T13:00:00	4	Temperatura máxima	20.1
53291	7	Sololá	701	Sololá	3	Barraneche	10	Octubre	2023-05-10T00:00:00	2024-11-06T13:00:00	3	Temperatura mínima	18.8
53292	7	Sololá	701	Sololá	3	Barraneche	10	Octubre	2023-05-10T00:00:00	2024-11-06T13:00:00	5	Humedad	71
53293	7	Sololá	701	Sololá	3	Barraneche	10	Octubre	2023-05-10T00:00:00	2024-11-06T13:00:00	6	Velocidad del viento	12.9
53294	7	Sololá	701	Sololá	3	Barraneche	10	Octubre	2023-05-10T00:00:00	2024-11-06T13:00:00	7	Dirección del viento	12.87
53295	7	Sololá	701	Sololá	3	Barraneche	10	Octubre	2023-05-10T00:00:00	2024-11-06T13:00:00	1	Precipitación	0
53296	7	Sololá	701	Sololá	3	Barraneche	10	Octubre	2023-05-10T00:00:00	2024-11-06T13:00:00	8	Radiación solar	885
53297	7	Sololá	701	Sololá	3	Barraneche	10	Octubre	2023-05-10T00:00:00	2024-11-06T14:00:00	2	Temperatura media	19.1
53298	7	Sololá	701	Sololá	3	Barraneche	10	Octubre	2023-05-10T00:00:00	2024-11-06T14:00:00	4	Temperatura máxima	19.2
53299	7	Sololá	701	Sololá	3	Barraneche	10	Octubre	2023-05-10T00:00:00	2024-11-06T14:00:00	3	Temperatura mínima	18.5
53300	7	Sololá	701	Sololá	3	Barraneche	10	Octubre	2023-05-10T00:00:00	2024-11-06T14:00:00	5	Humedad	70
53301	7	Sololá	701	Sololá	3	Barraneche	10	Octubre	2023-05-10T00:00:00	2024-11-06T14:00:00	6	Velocidad del viento	12.9
53302	7	Sololá	701	Sololá	3	Barraneche	10	Octubre	2023-05-10T00:00:00	2024-11-06T14:00:00	7	Dirección del viento	12.87
53303	7	Sololá	701	Sololá	3	Barraneche	10	Octubre	2023-05-10T00:00:00	2024-11-06T14:00:00	1	Precipitación	0
53304	7	Sololá	701	Sololá	3	Barraneche	10	Octubre	2023-05-10T00:00:00	2024-11-06T14:00:00	8	Radiación solar	898
53305	7	Sololá	701	Sololá	3	Barraneche	10	Octubre	2023-05-10T00:00:00	2024-11-06T15:00:00	2	Temperatura media	17.8
53306	7	Sololá	701	Sololá	3	Barraneche	10	Octubre	2023-05-10T00:00:00	2024-11-06T15:00:00	4	Temperatura máxima	19.1
53307	7	Sololá	701	Sololá	3	Barraneche	10	Octubre	2023-05-10T00:00:00	2024-11-06T15:00:00	3	Temperatura mínima	17.8
53308	7	Sololá	701	Sololá	3	Barraneche	10	Octubre	2023-05-10T00:00:00	2024-11-06T15:00:00	5	Humedad	73
53309	7	Sololá	701	Sololá	3	Barraneche	10	Octubre	2023-05-10T00:00:00	2024-11-06T15:00:00	6	Velocidad del viento	9.7
53310	7	Sololá	701	Sololá	3	Barraneche	10	Octubre	2023-05-10T00:00:00	2024-11-06T15:00:00	7	Dirección del viento	9.66
53311	7	Sololá	701	Sololá	3	Barraneche	10	Octubre	2023-05-10T00:00:00	2024-11-06T15:00:00	1	Precipitación	0
53312	7	Sololá	701	Sololá	3	Barraneche	10	Octubre	2023-05-10T00:00:00	2024-11-06T15:00:00	8	Radiación solar	350
53313	7	Sololá	701	Sololá	3	Barraneche	10	Octubre	2023-05-10T00:00:00	2024-11-06T16:00:00	2	Temperatura media	16.8
53314	7	Sololá	701	Sololá	3	Barraneche	10	Octubre	2023-05-10T00:00:00	2024-11-06T16:00:00	4	Temperatura máxima	18.4
53315	7	Sololá	701	Sololá	3	Barraneche	10	Octubre	2023-05-10T00:00:00	2024-11-06T16:00:00	3	Temperatura mínima	16.8
53316	7	Sololá	701	Sololá	3	Barraneche	10	Octubre	2023-05-10T00:00:00	2024-11-06T16:00:00	5	Humedad	74
53317	7	Sololá	701	Sololá	3	Barraneche	10	Octubre	2023-05-10T00:00:00	2024-11-06T16:00:00	6	Velocidad del viento	8
53318	7	Sololá	701	Sololá	3	Barraneche	10	Octubre	2023-05-10T00:00:00	2024-11-06T16:00:00	7	Dirección del viento	8.05
53319	7	Sololá	701	Sololá	3	Barraneche	10	Octubre	2023-05-10T00:00:00	2024-11-06T16:00:00	1	Precipitación	0
53320	7	Sololá	701	Sololá	3	Barraneche	10	Octubre	2023-05-10T00:00:00	2024-11-06T16:00:00	8	Radiación solar	386
53321	7	Sololá	701	Sololá	3	Barraneche	10	Octubre	2023-05-10T00:00:00	2024-11-06T17:00:00	2	Temperatura media	16.6
53322	7	Sololá	701	Sololá	3	Barraneche	10	Octubre	2023-05-10T00:00:00	2024-11-06T17:00:00	4	Temperatura máxima	17.7
53323	7	Sololá	701	Sololá	3	Barraneche	10	Octubre	2023-05-10T00:00:00	2024-11-06T17:00:00	3	Temperatura mínima	16.6
53324	7	Sololá	701	Sololá	3	Barraneche	10	Octubre	2023-05-10T00:00:00	2024-11-06T17:00:00	5	Humedad	75
53325	7	Sololá	701	Sololá	3	Barraneche	10	Octubre	2023-05-10T00:00:00	2024-11-06T17:00:00	6	Velocidad del viento	4.8
53326	7	Sololá	701	Sololá	3	Barraneche	10	Octubre	2023-05-10T00:00:00	2024-11-06T17:00:00	7	Dirección del viento	4.83
53327	7	Sololá	701	Sololá	3	Barraneche	10	Octubre	2023-05-10T00:00:00	2024-11-06T17:00:00	1	Precipitación	0
53328	7	Sololá	701	Sololá	3	Barraneche	10	Octubre	2023-05-10T00:00:00	2024-11-06T17:00:00	8	Radiación solar	191
53329	7	Sololá	701	Sololá	3	Barraneche	10	Octubre	2023-05-10T00:00:00	2024-11-06T18:00:00	2	Temperatura media	15.6
53330	7	Sololá	701	Sololá	3	Barraneche	10	Octubre	2023-05-10T00:00:00	2024-11-06T18:00:00	4	Temperatura máxima	16.7
53331	7	Sololá	701	Sololá	3	Barraneche	10	Octubre	2023-05-10T00:00:00	2024-11-06T18:00:00	3	Temperatura mínima	15.6
53332	7	Sololá	701	Sololá	3	Barraneche	10	Octubre	2023-05-10T00:00:00	2024-11-06T18:00:00	5	Humedad	82
53333	7	Sololá	701	Sololá	3	Barraneche	10	Octubre	2023-05-10T00:00:00	2024-11-06T18:00:00	6	Velocidad del viento	6.4
53334	7	Sololá	701	Sololá	3	Barraneche	10	Octubre	2023-05-10T00:00:00	2024-11-06T18:00:00	7	Dirección del viento	6.44
53335	7	Sololá	701	Sololá	3	Barraneche	10	Octubre	2023-05-10T00:00:00	2024-11-06T18:00:00	1	Precipitación	0
53336	7	Sololá	701	Sololá	3	Barraneche	10	Octubre	2023-05-10T00:00:00	2024-11-06T18:00:00	8	Radiación solar	18
53337	7	Sololá	701	Sololá	3	Barraneche	10	Octubre	2023-05-10T00:00:00	2024-11-06T19:00:00	2	Temperatura media	15.1
53338	7	Sololá	701	Sololá	3	Barraneche	10	Octubre	2023-05-10T00:00:00	2024-11-06T19:00:00	4	Temperatura máxima	15.6
53339	7	Sololá	701	Sololá	3	Barraneche	10	Octubre	2023-05-10T00:00:00	2024-11-06T19:00:00	3	Temperatura mínima	14.8
53340	7	Sololá	701	Sololá	3	Barraneche	10	Octubre	2023-05-10T00:00:00	2024-11-06T19:00:00	5	Humedad	85
53341	7	Sololá	701	Sololá	3	Barraneche	10	Octubre	2023-05-10T00:00:00	2024-11-06T19:00:00	6	Velocidad del viento	3.2
53342	7	Sololá	701	Sololá	3	Barraneche	10	Octubre	2023-05-10T00:00:00	2024-11-06T19:00:00	7	Dirección del viento	3.22
53343	7	Sololá	701	Sololá	3	Barraneche	10	Octubre	2023-05-10T00:00:00	2024-11-06T19:00:00	1	Precipitación	0
53344	7	Sololá	701	Sololá	3	Barraneche	10	Octubre	2023-05-10T00:00:00	2024-11-06T19:00:00	8	Radiación solar	0
53345	7	Sololá	701	Sololá	3	Barraneche	10	Octubre	2023-05-10T00:00:00	2024-11-06T20:00:00	2	Temperatura media	14.3
53346	7	Sololá	701	Sololá	3	Barraneche	10	Octubre	2023-05-10T00:00:00	2024-11-06T20:00:00	4	Temperatura máxima	15.1
53347	7	Sololá	701	Sololá	3	Barraneche	10	Octubre	2023-05-10T00:00:00	2024-11-06T20:00:00	3	Temperatura mínima	14.2
53348	7	Sololá	701	Sololá	3	Barraneche	10	Octubre	2023-05-10T00:00:00	2024-11-06T20:00:00	5	Humedad	85
53349	7	Sololá	701	Sololá	3	Barraneche	10	Octubre	2023-05-10T00:00:00	2024-11-06T20:00:00	6	Velocidad del viento	3.2
53350	7	Sololá	701	Sololá	3	Barraneche	10	Octubre	2023-05-10T00:00:00	2024-11-06T20:00:00	7	Dirección del viento	3.22
53351	7	Sololá	701	Sololá	3	Barraneche	10	Octubre	2023-05-10T00:00:00	2024-11-06T20:00:00	1	Precipitación	0
53352	7	Sololá	701	Sololá	3	Barraneche	10	Octubre	2023-05-10T00:00:00	2024-11-06T20:00:00	8	Radiación solar	0
53353	7	Sololá	701	Sololá	3	Barraneche	10	Octubre	2023-05-10T00:00:00	2024-11-06T21:00:00	2	Temperatura media	13.7
53354	7	Sololá	701	Sololá	3	Barraneche	10	Octubre	2023-05-10T00:00:00	2024-11-06T21:00:00	4	Temperatura máxima	14.3
53355	7	Sololá	701	Sololá	3	Barraneche	10	Octubre	2023-05-10T00:00:00	2024-11-06T21:00:00	3	Temperatura mínima	13.6
53356	7	Sololá	701	Sololá	3	Barraneche	10	Octubre	2023-05-10T00:00:00	2024-11-06T21:00:00	5	Humedad	84
53357	7	Sololá	701	Sololá	3	Barraneche	10	Octubre	2023-05-10T00:00:00	2024-11-06T21:00:00	6	Velocidad del viento	3.2
53358	7	Sololá	701	Sololá	3	Barraneche	10	Octubre	2023-05-10T00:00:00	2024-11-06T21:00:00	7	Dirección del viento	3.22
53359	7	Sololá	701	Sololá	3	Barraneche	10	Octubre	2023-05-10T00:00:00	2024-11-06T21:00:00	1	Precipitación	0
53360	7	Sololá	701	Sololá	3	Barraneche	10	Octubre	2023-05-10T00:00:00	2024-11-06T21:00:00	8	Radiación solar	0
53361	7	Sololá	701	Sololá	3	Barraneche	10	Octubre	2023-05-10T00:00:00	2024-11-06T22:00:00	2	Temperatura media	13.8
53362	7	Sololá	701	Sololá	3	Barraneche	10	Octubre	2023-05-10T00:00:00	2024-11-06T22:00:00	4	Temperatura máxima	14.3
53363	7	Sololá	701	Sololá	3	Barraneche	10	Octubre	2023-05-10T00:00:00	2024-11-06T22:00:00	3	Temperatura mínima	13.6
53364	7	Sololá	701	Sololá	3	Barraneche	10	Octubre	2023-05-10T00:00:00	2024-11-06T22:00:00	5	Humedad	81
53365	7	Sololá	701	Sololá	3	Barraneche	10	Octubre	2023-05-10T00:00:00	2024-11-06T22:00:00	6	Velocidad del viento	4.8
53366	7	Sololá	701	Sololá	3	Barraneche	10	Octubre	2023-05-10T00:00:00	2024-11-06T22:00:00	7	Dirección del viento	4.83
53367	7	Sololá	701	Sololá	3	Barraneche	10	Octubre	2023-05-10T00:00:00	2024-11-06T22:00:00	1	Precipitación	0
53368	7	Sololá	701	Sololá	3	Barraneche	10	Octubre	2023-05-10T00:00:00	2024-11-06T22:00:00	8	Radiación solar	0
53369	7	Sololá	701	Sololá	3	Barraneche	10	Octubre	2023-05-10T00:00:00	2024-11-06T23:00:00	2	Temperatura media	14
53370	7	Sololá	701	Sololá	3	Barraneche	10	Octubre	2023-05-10T00:00:00	2024-11-06T23:00:00	4	Temperatura máxima	14.2
53371	7	Sololá	701	Sololá	3	Barraneche	10	Octubre	2023-05-10T00:00:00	2024-11-06T23:00:00	3	Temperatura mínima	13.7
53372	7	Sololá	701	Sololá	3	Barraneche	10	Octubre	2023-05-10T00:00:00	2024-11-06T23:00:00	5	Humedad	80
53373	7	Sololá	701	Sololá	3	Barraneche	10	Octubre	2023-05-10T00:00:00	2024-11-06T23:00:00	6	Velocidad del viento	4.8
53374	7	Sololá	701	Sololá	3	Barraneche	10	Octubre	2023-05-10T00:00:00	2024-11-06T23:00:00	7	Dirección del viento	4.83
53375	7	Sololá	701	Sololá	3	Barraneche	10	Octubre	2023-05-10T00:00:00	2024-11-06T23:00:00	1	Precipitación	0
53376	7	Sololá	701	Sololá	3	Barraneche	10	Octubre	2023-05-10T00:00:00	2024-11-06T23:00:00	8	Radiación solar	0
53377	7	Sololá	701	Sololá	3	Barraneche	10	Octubre	2023-06-10T00:00:00	2024-11-06T00:00:00	2	Temperatura media	14.6
53378	7	Sololá	701	Sololá	3	Barraneche	10	Octubre	2023-06-10T00:00:00	2024-11-06T00:00:00	4	Temperatura máxima	14.8
53379	7	Sololá	701	Sololá	3	Barraneche	10	Octubre	2023-06-10T00:00:00	2024-11-06T00:00:00	3	Temperatura mínima	14.1
53380	7	Sololá	701	Sololá	3	Barraneche	10	Octubre	2023-06-10T00:00:00	2024-11-06T00:00:00	5	Humedad	74
53381	7	Sololá	701	Sololá	3	Barraneche	10	Octubre	2023-06-10T00:00:00	2024-11-06T00:00:00	6	Velocidad del viento	8
53382	7	Sololá	701	Sololá	3	Barraneche	10	Octubre	2023-06-10T00:00:00	2024-11-06T00:00:00	7	Dirección del viento	8.05
53383	7	Sololá	701	Sololá	3	Barraneche	10	Octubre	2023-06-10T00:00:00	2024-11-06T00:00:00	1	Precipitación	0
53384	7	Sololá	701	Sololá	3	Barraneche	10	Octubre	2023-06-10T00:00:00	2024-11-06T00:00:00	8	Radiación solar	0
53385	7	Sololá	701	Sololá	3	Barraneche	10	Octubre	2023-06-10T00:00:00	2024-11-06T01:00:00	2	Temperatura media	14.6
53386	7	Sololá	701	Sololá	3	Barraneche	10	Octubre	2023-06-10T00:00:00	2024-11-06T01:00:00	4	Temperatura máxima	14.8
53387	7	Sololá	701	Sololá	3	Barraneche	10	Octubre	2023-06-10T00:00:00	2024-11-06T01:00:00	3	Temperatura mínima	13.9
53388	7	Sololá	701	Sololá	3	Barraneche	10	Octubre	2023-06-10T00:00:00	2024-11-06T01:00:00	5	Humedad	72
53389	7	Sololá	701	Sololá	3	Barraneche	10	Octubre	2023-06-10T00:00:00	2024-11-06T01:00:00	6	Velocidad del viento	8
53390	7	Sololá	701	Sololá	3	Barraneche	10	Octubre	2023-06-10T00:00:00	2024-11-06T01:00:00	7	Dirección del viento	8.05
53391	7	Sololá	701	Sololá	3	Barraneche	10	Octubre	2023-06-10T00:00:00	2024-11-06T01:00:00	1	Precipitación	0
53392	7	Sololá	701	Sololá	3	Barraneche	10	Octubre	2023-06-10T00:00:00	2024-11-06T01:00:00	8	Radiación solar	0
53393	7	Sololá	701	Sololá	3	Barraneche	10	Octubre	2023-06-10T00:00:00	2024-11-06T02:00:00	2	Temperatura media	12.2
53394	7	Sololá	701	Sololá	3	Barraneche	10	Octubre	2023-06-10T00:00:00	2024-11-06T02:00:00	4	Temperatura máxima	14.6
53395	7	Sololá	701	Sololá	3	Barraneche	10	Octubre	2023-06-10T00:00:00	2024-11-06T02:00:00	3	Temperatura mínima	12.2
53396	7	Sololá	701	Sololá	3	Barraneche	10	Octubre	2023-06-10T00:00:00	2024-11-06T02:00:00	5	Humedad	79
53397	7	Sololá	701	Sololá	3	Barraneche	10	Octubre	2023-06-10T00:00:00	2024-11-06T02:00:00	6	Velocidad del viento	3.2
53398	7	Sololá	701	Sololá	3	Barraneche	10	Octubre	2023-06-10T00:00:00	2024-11-06T02:00:00	7	Dirección del viento	3.22
53399	7	Sololá	701	Sololá	3	Barraneche	10	Octubre	2023-06-10T00:00:00	2024-11-06T02:00:00	1	Precipitación	0
53400	7	Sololá	701	Sololá	3	Barraneche	10	Octubre	2023-06-10T00:00:00	2024-11-06T02:00:00	8	Radiación solar	0
53401	7	Sololá	701	Sololá	3	Barraneche	10	Octubre	2023-06-10T00:00:00	2024-11-06T03:00:00	2	Temperatura media	12
53402	7	Sololá	701	Sololá	3	Barraneche	10	Octubre	2023-06-10T00:00:00	2024-11-06T03:00:00	4	Temperatura máxima	12.7
53403	7	Sololá	701	Sololá	3	Barraneche	10	Octubre	2023-06-10T00:00:00	2024-11-06T03:00:00	3	Temperatura mínima	11.9
53404	7	Sololá	701	Sololá	3	Barraneche	10	Octubre	2023-06-10T00:00:00	2024-11-06T03:00:00	5	Humedad	79
53405	7	Sololá	701	Sololá	3	Barraneche	10	Octubre	2023-06-10T00:00:00	2024-11-06T03:00:00	6	Velocidad del viento	3.2
53406	7	Sololá	701	Sololá	3	Barraneche	10	Octubre	2023-06-10T00:00:00	2024-11-06T03:00:00	7	Dirección del viento	3.22
53407	7	Sololá	701	Sololá	3	Barraneche	10	Octubre	2023-06-10T00:00:00	2024-11-06T03:00:00	1	Precipitación	0
53408	7	Sololá	701	Sololá	3	Barraneche	10	Octubre	2023-06-10T00:00:00	2024-11-06T03:00:00	8	Radiación solar	0
53409	7	Sololá	701	Sololá	3	Barraneche	10	Octubre	2023-06-10T00:00:00	2024-11-06T04:00:00	2	Temperatura media	11.1
53410	7	Sololá	701	Sololá	3	Barraneche	10	Octubre	2023-06-10T00:00:00	2024-11-06T04:00:00	4	Temperatura máxima	12
53411	7	Sololá	701	Sololá	3	Barraneche	10	Octubre	2023-06-10T00:00:00	2024-11-06T04:00:00	3	Temperatura mínima	11
53412	7	Sololá	701	Sololá	3	Barraneche	10	Octubre	2023-06-10T00:00:00	2024-11-06T04:00:00	5	Humedad	81
53413	7	Sololá	701	Sololá	3	Barraneche	10	Octubre	2023-06-10T00:00:00	2024-11-06T04:00:00	6	Velocidad del viento	3.2
53414	7	Sololá	701	Sololá	3	Barraneche	10	Octubre	2023-06-10T00:00:00	2024-11-06T04:00:00	7	Dirección del viento	3.22
53415	7	Sololá	701	Sololá	3	Barraneche	10	Octubre	2023-06-10T00:00:00	2024-11-06T04:00:00	1	Precipitación	0
53416	7	Sololá	701	Sololá	3	Barraneche	10	Octubre	2023-06-10T00:00:00	2024-11-06T04:00:00	8	Radiación solar	0
53417	7	Sololá	701	Sololá	3	Barraneche	10	Octubre	2023-06-10T00:00:00	2024-11-06T05:00:00	2	Temperatura media	10.8
53418	7	Sololá	701	Sololá	3	Barraneche	10	Octubre	2023-06-10T00:00:00	2024-11-06T05:00:00	4	Temperatura máxima	11.3
53419	7	Sololá	701	Sololá	3	Barraneche	10	Octubre	2023-06-10T00:00:00	2024-11-06T05:00:00	3	Temperatura mínima	10.8
53420	7	Sololá	701	Sololá	3	Barraneche	10	Octubre	2023-06-10T00:00:00	2024-11-06T05:00:00	5	Humedad	82
53421	7	Sololá	701	Sololá	3	Barraneche	10	Octubre	2023-06-10T00:00:00	2024-11-06T05:00:00	6	Velocidad del viento	3.2
53422	7	Sololá	701	Sololá	3	Barraneche	10	Octubre	2023-06-10T00:00:00	2024-11-06T05:00:00	7	Dirección del viento	3.22
53423	7	Sololá	701	Sololá	3	Barraneche	10	Octubre	2023-06-10T00:00:00	2024-11-06T05:00:00	1	Precipitación	0
53424	7	Sololá	701	Sololá	3	Barraneche	10	Octubre	2023-06-10T00:00:00	2024-11-06T05:00:00	8	Radiación solar	0
53425	7	Sololá	701	Sololá	3	Barraneche	10	Octubre	2023-06-10T00:00:00	2024-11-06T06:00:00	2	Temperatura media	10.8
53426	7	Sololá	701	Sololá	3	Barraneche	10	Octubre	2023-06-10T00:00:00	2024-11-06T06:00:00	4	Temperatura máxima	10.9
53427	7	Sololá	701	Sololá	3	Barraneche	10	Octubre	2023-06-10T00:00:00	2024-11-06T06:00:00	3	Temperatura mínima	10.7
53428	7	Sololá	701	Sololá	3	Barraneche	10	Octubre	2023-06-10T00:00:00	2024-11-06T06:00:00	5	Humedad	82
53429	7	Sololá	701	Sololá	3	Barraneche	10	Octubre	2023-06-10T00:00:00	2024-11-06T06:00:00	6	Velocidad del viento	4.8
53430	7	Sololá	701	Sololá	3	Barraneche	10	Octubre	2023-06-10T00:00:00	2024-11-06T06:00:00	7	Dirección del viento	4.83
53431	7	Sololá	701	Sololá	3	Barraneche	10	Octubre	2023-06-10T00:00:00	2024-11-06T06:00:00	1	Precipitación	0
53432	7	Sololá	701	Sololá	3	Barraneche	10	Octubre	2023-06-10T00:00:00	2024-11-06T06:00:00	8	Radiación solar	1
53433	7	Sololá	701	Sololá	3	Barraneche	10	Octubre	2023-06-10T00:00:00	2024-11-06T07:00:00	2	Temperatura media	12.3
53434	7	Sololá	701	Sololá	3	Barraneche	10	Octubre	2023-06-10T00:00:00	2024-11-06T07:00:00	4	Temperatura máxima	12.3
53435	7	Sololá	701	Sololá	3	Barraneche	10	Octubre	2023-06-10T00:00:00	2024-11-06T07:00:00	3	Temperatura mínima	10.8
53436	7	Sololá	701	Sololá	3	Barraneche	10	Octubre	2023-06-10T00:00:00	2024-11-06T07:00:00	5	Humedad	82
53437	7	Sololá	701	Sololá	3	Barraneche	10	Octubre	2023-06-10T00:00:00	2024-11-06T07:00:00	6	Velocidad del viento	3.2
53438	7	Sololá	701	Sololá	3	Barraneche	10	Octubre	2023-06-10T00:00:00	2024-11-06T07:00:00	7	Dirección del viento	3.22
53439	7	Sololá	701	Sololá	3	Barraneche	10	Octubre	2023-06-10T00:00:00	2024-11-06T07:00:00	1	Precipitación	0
53440	7	Sololá	701	Sololá	3	Barraneche	10	Octubre	2023-06-10T00:00:00	2024-11-06T07:00:00	8	Radiación solar	56
53441	7	Sololá	701	Sololá	3	Barraneche	10	Octubre	2023-06-10T00:00:00	2024-11-06T08:00:00	2	Temperatura media	16.8
53442	7	Sololá	701	Sololá	3	Barraneche	10	Octubre	2023-06-10T00:00:00	2024-11-06T08:00:00	4	Temperatura máxima	16.8
53443	7	Sololá	701	Sololá	3	Barraneche	10	Octubre	2023-06-10T00:00:00	2024-11-06T08:00:00	3	Temperatura mínima	12.3
53444	7	Sololá	701	Sololá	3	Barraneche	10	Octubre	2023-06-10T00:00:00	2024-11-06T08:00:00	5	Humedad	73
53445	7	Sololá	701	Sololá	3	Barraneche	10	Octubre	2023-06-10T00:00:00	2024-11-06T08:00:00	6	Velocidad del viento	3.2
53446	7	Sololá	701	Sololá	3	Barraneche	10	Octubre	2023-06-10T00:00:00	2024-11-06T08:00:00	7	Dirección del viento	3.22
53447	7	Sololá	701	Sololá	3	Barraneche	10	Octubre	2023-06-10T00:00:00	2024-11-06T08:00:00	1	Precipitación	0
53448	7	Sololá	701	Sololá	3	Barraneche	10	Octubre	2023-06-10T00:00:00	2024-11-06T08:00:00	8	Radiación solar	318
53449	7	Sololá	701	Sololá	3	Barraneche	10	Octubre	2023-06-10T00:00:00	2024-11-06T09:00:00	2	Temperatura media	18.3
53450	7	Sololá	701	Sololá	3	Barraneche	10	Octubre	2023-06-10T00:00:00	2024-11-06T09:00:00	4	Temperatura máxima	18.6
53451	7	Sololá	701	Sololá	3	Barraneche	10	Octubre	2023-06-10T00:00:00	2024-11-06T09:00:00	3	Temperatura mínima	16.8
53452	7	Sololá	701	Sololá	3	Barraneche	10	Octubre	2023-06-10T00:00:00	2024-11-06T09:00:00	5	Humedad	68
53453	7	Sololá	701	Sololá	3	Barraneche	10	Octubre	2023-06-10T00:00:00	2024-11-06T09:00:00	6	Velocidad del viento	4.8
53454	7	Sololá	701	Sololá	3	Barraneche	10	Octubre	2023-06-10T00:00:00	2024-11-06T09:00:00	7	Dirección del viento	4.83
53455	7	Sololá	701	Sololá	3	Barraneche	10	Octubre	2023-06-10T00:00:00	2024-11-06T09:00:00	1	Precipitación	0
53456	7	Sololá	701	Sololá	3	Barraneche	10	Octubre	2023-06-10T00:00:00	2024-11-06T09:00:00	8	Radiación solar	545
53457	7	Sololá	701	Sololá	3	Barraneche	10	Octubre	2023-06-10T00:00:00	2024-11-06T10:00:00	2	Temperatura media	19.1
53458	7	Sololá	701	Sololá	3	Barraneche	10	Octubre	2023-06-10T00:00:00	2024-11-06T10:00:00	4	Temperatura máxima	19.8
53459	7	Sololá	701	Sololá	3	Barraneche	10	Octubre	2023-06-10T00:00:00	2024-11-06T10:00:00	3	Temperatura mínima	18.3
53460	7	Sololá	701	Sololá	3	Barraneche	10	Octubre	2023-06-10T00:00:00	2024-11-06T10:00:00	5	Humedad	69
53461	7	Sololá	701	Sololá	3	Barraneche	10	Octubre	2023-06-10T00:00:00	2024-11-06T10:00:00	6	Velocidad del viento	11.3
53462	7	Sololá	701	Sololá	3	Barraneche	10	Octubre	2023-06-10T00:00:00	2024-11-06T10:00:00	7	Dirección del viento	11.27
53463	7	Sololá	701	Sololá	3	Barraneche	10	Octubre	2023-06-10T00:00:00	2024-11-06T10:00:00	1	Precipitación	0
53464	7	Sololá	701	Sololá	3	Barraneche	10	Octubre	2023-06-10T00:00:00	2024-11-06T10:00:00	8	Radiación solar	855
53465	7	Sololá	701	Sololá	3	Barraneche	10	Octubre	2023-06-10T00:00:00	2024-11-06T11:00:00	2	Temperatura media	18.4
53466	7	Sololá	701	Sololá	3	Barraneche	10	Octubre	2023-06-10T00:00:00	2024-11-06T11:00:00	4	Temperatura máxima	19.4
53467	7	Sololá	701	Sololá	3	Barraneche	10	Octubre	2023-06-10T00:00:00	2024-11-06T11:00:00	3	Temperatura mínima	18.3
53468	7	Sololá	701	Sololá	3	Barraneche	10	Octubre	2023-06-10T00:00:00	2024-11-06T11:00:00	5	Humedad	73
53469	7	Sololá	701	Sololá	3	Barraneche	10	Octubre	2023-06-10T00:00:00	2024-11-06T11:00:00	6	Velocidad del viento	11.3
53470	7	Sololá	701	Sololá	3	Barraneche	10	Octubre	2023-06-10T00:00:00	2024-11-06T11:00:00	7	Dirección del viento	11.27
53471	7	Sololá	701	Sololá	3	Barraneche	10	Octubre	2023-06-10T00:00:00	2024-11-06T11:00:00	1	Precipitación	0
53472	7	Sololá	701	Sololá	3	Barraneche	10	Octubre	2023-06-10T00:00:00	2024-11-06T11:00:00	8	Radiación solar	464
53473	7	Sololá	701	Sololá	3	Barraneche	10	Octubre	2023-06-10T00:00:00	2024-11-06T12:00:00	2	Temperatura media	18.8
53474	7	Sololá	701	Sololá	3	Barraneche	10	Octubre	2023-06-10T00:00:00	2024-11-06T12:00:00	4	Temperatura máxima	18.9
53475	7	Sololá	701	Sololá	3	Barraneche	10	Octubre	2023-06-10T00:00:00	2024-11-06T12:00:00	3	Temperatura mínima	18.3
53476	7	Sololá	701	Sololá	3	Barraneche	10	Octubre	2023-06-10T00:00:00	2024-11-06T12:00:00	5	Humedad	74
53477	7	Sololá	701	Sololá	3	Barraneche	10	Octubre	2023-06-10T00:00:00	2024-11-06T12:00:00	6	Velocidad del viento	6.4
53478	7	Sololá	701	Sololá	3	Barraneche	10	Octubre	2023-06-10T00:00:00	2024-11-06T12:00:00	7	Dirección del viento	6.44
53479	7	Sololá	701	Sololá	3	Barraneche	10	Octubre	2023-06-10T00:00:00	2024-11-06T12:00:00	1	Precipitación	0
53480	7	Sololá	701	Sololá	3	Barraneche	10	Octubre	2023-06-10T00:00:00	2024-11-06T12:00:00	8	Radiación solar	248
53481	7	Sololá	701	Sololá	3	Barraneche	10	Octubre	2023-06-10T00:00:00	2024-11-06T13:00:00	2	Temperatura media	19.4
53482	7	Sololá	701	Sololá	3	Barraneche	10	Octubre	2023-06-10T00:00:00	2024-11-06T13:00:00	4	Temperatura máxima	19.4
53483	7	Sololá	701	Sololá	3	Barraneche	10	Octubre	2023-06-10T00:00:00	2024-11-06T13:00:00	3	Temperatura mínima	18.5
53484	7	Sololá	701	Sololá	3	Barraneche	10	Octubre	2023-06-10T00:00:00	2024-11-06T13:00:00	5	Humedad	74
53485	7	Sololá	701	Sololá	3	Barraneche	10	Octubre	2023-06-10T00:00:00	2024-11-06T13:00:00	6	Velocidad del viento	12.9
53486	7	Sololá	701	Sololá	3	Barraneche	10	Octubre	2023-06-10T00:00:00	2024-11-06T13:00:00	7	Dirección del viento	12.87
53487	7	Sololá	701	Sololá	3	Barraneche	10	Octubre	2023-06-10T00:00:00	2024-11-06T13:00:00	1	Precipitación	0
53488	7	Sololá	701	Sololá	3	Barraneche	10	Octubre	2023-06-10T00:00:00	2024-11-06T13:00:00	8	Radiación solar	470
53489	7	Sololá	701	Sololá	3	Barraneche	10	Octubre	2023-06-10T00:00:00	2024-11-06T14:00:00	2	Temperatura media	18.3
53490	7	Sololá	701	Sololá	3	Barraneche	10	Octubre	2023-06-10T00:00:00	2024-11-06T14:00:00	4	Temperatura máxima	19.4
53491	7	Sololá	701	Sololá	3	Barraneche	10	Octubre	2023-06-10T00:00:00	2024-11-06T14:00:00	3	Temperatura mínima	18.3
53492	7	Sololá	701	Sololá	3	Barraneche	10	Octubre	2023-06-10T00:00:00	2024-11-06T14:00:00	5	Humedad	77
53493	7	Sololá	701	Sololá	3	Barraneche	10	Octubre	2023-06-10T00:00:00	2024-11-06T14:00:00	6	Velocidad del viento	11.3
53494	7	Sololá	701	Sololá	3	Barraneche	10	Octubre	2023-06-10T00:00:00	2024-11-06T14:00:00	7	Dirección del viento	11.27
53495	7	Sololá	701	Sololá	3	Barraneche	10	Octubre	2023-06-10T00:00:00	2024-11-06T14:00:00	1	Precipitación	0
53496	7	Sololá	701	Sololá	3	Barraneche	10	Octubre	2023-06-10T00:00:00	2024-11-06T14:00:00	8	Radiación solar	336
53497	7	Sololá	701	Sololá	3	Barraneche	10	Octubre	2023-06-10T00:00:00	2024-11-06T15:00:00	2	Temperatura media	17.4
53498	7	Sololá	701	Sololá	3	Barraneche	10	Octubre	2023-06-10T00:00:00	2024-11-06T15:00:00	4	Temperatura máxima	18.7
53499	7	Sololá	701	Sololá	3	Barraneche	10	Octubre	2023-06-10T00:00:00	2024-11-06T15:00:00	3	Temperatura mínima	17.3
53500	7	Sololá	701	Sololá	3	Barraneche	10	Octubre	2023-06-10T00:00:00	2024-11-06T15:00:00	5	Humedad	79
53501	7	Sololá	701	Sololá	3	Barraneche	10	Octubre	2023-06-10T00:00:00	2024-11-06T15:00:00	6	Velocidad del viento	9.7
53502	7	Sololá	701	Sololá	3	Barraneche	10	Octubre	2023-06-10T00:00:00	2024-11-06T15:00:00	7	Dirección del viento	9.66
53503	7	Sololá	701	Sololá	3	Barraneche	10	Octubre	2023-06-10T00:00:00	2024-11-06T15:00:00	1	Precipitación	0
53504	7	Sololá	701	Sololá	3	Barraneche	10	Octubre	2023-06-10T00:00:00	2024-11-06T15:00:00	8	Radiación solar	225
53505	7	Sololá	701	Sololá	3	Barraneche	10	Octubre	2023-06-10T00:00:00	2024-11-06T16:00:00	2	Temperatura media	18.3
53506	7	Sololá	701	Sololá	3	Barraneche	10	Octubre	2023-06-10T00:00:00	2024-11-06T16:00:00	4	Temperatura máxima	18.6
53507	7	Sololá	701	Sololá	3	Barraneche	10	Octubre	2023-06-10T00:00:00	2024-11-06T16:00:00	3	Temperatura mínima	17.4
53508	7	Sololá	701	Sololá	3	Barraneche	10	Octubre	2023-06-10T00:00:00	2024-11-06T16:00:00	5	Humedad	78
53509	7	Sololá	701	Sololá	3	Barraneche	10	Octubre	2023-06-10T00:00:00	2024-11-06T16:00:00	6	Velocidad del viento	6.4
53510	7	Sololá	701	Sololá	3	Barraneche	10	Octubre	2023-06-10T00:00:00	2024-11-06T16:00:00	7	Dirección del viento	6.44
53511	7	Sololá	701	Sololá	3	Barraneche	10	Octubre	2023-06-10T00:00:00	2024-11-06T16:00:00	1	Precipitación	0
53512	7	Sololá	701	Sololá	3	Barraneche	10	Octubre	2023-06-10T00:00:00	2024-11-06T16:00:00	8	Radiación solar	340
53513	7	Sololá	701	Sololá	3	Barraneche	10	Octubre	2023-06-10T00:00:00	2024-11-06T17:00:00	2	Temperatura media	17.5
53514	7	Sololá	701	Sololá	3	Barraneche	10	Octubre	2023-06-10T00:00:00	2024-11-06T17:00:00	4	Temperatura máxima	18.3
53515	7	Sololá	701	Sololá	3	Barraneche	10	Octubre	2023-06-10T00:00:00	2024-11-06T17:00:00	3	Temperatura mínima	17.5
53516	7	Sololá	701	Sololá	3	Barraneche	10	Octubre	2023-06-10T00:00:00	2024-11-06T17:00:00	5	Humedad	80
53517	7	Sololá	701	Sololá	3	Barraneche	10	Octubre	2023-06-10T00:00:00	2024-11-06T17:00:00	6	Velocidad del viento	6.4
53518	7	Sololá	701	Sololá	3	Barraneche	10	Octubre	2023-06-10T00:00:00	2024-11-06T17:00:00	7	Dirección del viento	6.44
53519	7	Sololá	701	Sololá	3	Barraneche	10	Octubre	2023-06-10T00:00:00	2024-11-06T17:00:00	1	Precipitación	0
53520	7	Sololá	701	Sololá	3	Barraneche	10	Octubre	2023-06-10T00:00:00	2024-11-06T17:00:00	8	Radiación solar	185
53521	7	Sololá	701	Sololá	3	Barraneche	10	Octubre	2023-06-10T00:00:00	2024-11-06T18:00:00	2	Temperatura media	16.6
53522	7	Sololá	701	Sololá	3	Barraneche	10	Octubre	2023-06-10T00:00:00	2024-11-06T18:00:00	4	Temperatura máxima	17.5
53523	7	Sololá	701	Sololá	3	Barraneche	10	Octubre	2023-06-10T00:00:00	2024-11-06T18:00:00	3	Temperatura mínima	16.6
53524	7	Sololá	701	Sololá	3	Barraneche	10	Octubre	2023-06-10T00:00:00	2024-11-06T18:00:00	5	Humedad	82
53525	7	Sololá	701	Sololá	3	Barraneche	10	Octubre	2023-06-10T00:00:00	2024-11-06T18:00:00	6	Velocidad del viento	4.8
53526	7	Sololá	701	Sololá	3	Barraneche	10	Octubre	2023-06-10T00:00:00	2024-11-06T18:00:00	7	Dirección del viento	4.83
53527	7	Sololá	701	Sololá	3	Barraneche	10	Octubre	2023-06-10T00:00:00	2024-11-06T18:00:00	1	Precipitación	0
53528	7	Sololá	701	Sololá	3	Barraneche	10	Octubre	2023-06-10T00:00:00	2024-11-06T18:00:00	8	Radiación solar	15
53529	7	Sololá	701	Sololá	3	Barraneche	10	Octubre	2023-06-10T00:00:00	2024-11-06T19:00:00	2	Temperatura media	16.1
53530	7	Sololá	701	Sololá	3	Barraneche	10	Octubre	2023-06-10T00:00:00	2024-11-06T19:00:00	4	Temperatura máxima	16.6
53531	7	Sololá	701	Sololá	3	Barraneche	10	Octubre	2023-06-10T00:00:00	2024-11-06T19:00:00	3	Temperatura mínima	16.1
53532	7	Sololá	701	Sololá	3	Barraneche	10	Octubre	2023-06-10T00:00:00	2024-11-06T19:00:00	5	Humedad	83
53533	7	Sololá	701	Sololá	3	Barraneche	10	Octubre	2023-06-10T00:00:00	2024-11-06T19:00:00	6	Velocidad del viento	3.2
53534	7	Sololá	701	Sololá	3	Barraneche	10	Octubre	2023-06-10T00:00:00	2024-11-06T19:00:00	7	Dirección del viento	3.22
53535	7	Sololá	701	Sololá	3	Barraneche	10	Octubre	2023-06-10T00:00:00	2024-11-06T19:00:00	1	Precipitación	0
53536	7	Sololá	701	Sololá	3	Barraneche	10	Octubre	2023-06-10T00:00:00	2024-11-06T19:00:00	8	Radiación solar	0
53537	7	Sololá	701	Sololá	3	Barraneche	10	Octubre	2023-06-10T00:00:00	2024-11-06T20:00:00	2	Temperatura media	15.3
53538	7	Sololá	701	Sololá	3	Barraneche	10	Octubre	2023-06-10T00:00:00	2024-11-06T20:00:00	4	Temperatura máxima	16.1
53539	7	Sololá	701	Sololá	3	Barraneche	10	Octubre	2023-06-10T00:00:00	2024-11-06T20:00:00	3	Temperatura mínima	15.3
53540	7	Sololá	701	Sololá	3	Barraneche	10	Octubre	2023-06-10T00:00:00	2024-11-06T20:00:00	5	Humedad	85
53541	7	Sololá	701	Sololá	3	Barraneche	10	Octubre	2023-06-10T00:00:00	2024-11-06T20:00:00	6	Velocidad del viento	6.4
53542	7	Sololá	701	Sololá	3	Barraneche	10	Octubre	2023-06-10T00:00:00	2024-11-06T20:00:00	7	Dirección del viento	6.44
53543	7	Sololá	701	Sololá	3	Barraneche	10	Octubre	2023-06-10T00:00:00	2024-11-06T20:00:00	1	Precipitación	0
53544	7	Sololá	701	Sololá	3	Barraneche	10	Octubre	2023-06-10T00:00:00	2024-11-06T20:00:00	8	Radiación solar	0
53545	7	Sololá	701	Sololá	3	Barraneche	10	Octubre	2023-06-10T00:00:00	2024-11-06T21:00:00	2	Temperatura media	14.9
53546	7	Sololá	701	Sololá	3	Barraneche	10	Octubre	2023-06-10T00:00:00	2024-11-06T21:00:00	4	Temperatura máxima	15.3
53547	7	Sololá	701	Sololá	3	Barraneche	10	Octubre	2023-06-10T00:00:00	2024-11-06T21:00:00	3	Temperatura mínima	14.9
53548	7	Sololá	701	Sololá	3	Barraneche	10	Octubre	2023-06-10T00:00:00	2024-11-06T21:00:00	5	Humedad	86
53549	7	Sololá	701	Sololá	3	Barraneche	10	Octubre	2023-06-10T00:00:00	2024-11-06T21:00:00	6	Velocidad del viento	3.2
53550	7	Sololá	701	Sololá	3	Barraneche	10	Octubre	2023-06-10T00:00:00	2024-11-06T21:00:00	7	Dirección del viento	3.22
53551	7	Sololá	701	Sololá	3	Barraneche	10	Octubre	2023-06-10T00:00:00	2024-11-06T21:00:00	1	Precipitación	0
53552	7	Sololá	701	Sololá	3	Barraneche	10	Octubre	2023-06-10T00:00:00	2024-11-06T21:00:00	8	Radiación solar	0
53553	7	Sololá	701	Sololá	3	Barraneche	10	Octubre	2023-06-10T00:00:00	2024-11-06T22:00:00	2	Temperatura media	14.7
53554	7	Sololá	701	Sololá	3	Barraneche	10	Octubre	2023-06-10T00:00:00	2024-11-06T22:00:00	4	Temperatura máxima	15
53555	7	Sololá	701	Sololá	3	Barraneche	10	Octubre	2023-06-10T00:00:00	2024-11-06T22:00:00	3	Temperatura mínima	14.7
53556	7	Sololá	701	Sololá	3	Barraneche	10	Octubre	2023-06-10T00:00:00	2024-11-06T22:00:00	5	Humedad	85
53557	7	Sololá	701	Sololá	3	Barraneche	10	Octubre	2023-06-10T00:00:00	2024-11-06T22:00:00	6	Velocidad del viento	3.2
53558	7	Sololá	701	Sololá	3	Barraneche	10	Octubre	2023-06-10T00:00:00	2024-11-06T22:00:00	7	Dirección del viento	3.22
53559	7	Sololá	701	Sololá	3	Barraneche	10	Octubre	2023-06-10T00:00:00	2024-11-06T22:00:00	1	Precipitación	0.2
53560	7	Sololá	701	Sololá	3	Barraneche	10	Octubre	2023-06-10T00:00:00	2024-11-06T22:00:00	8	Radiación solar	0
53561	7	Sololá	701	Sololá	3	Barraneche	10	Octubre	2023-06-10T00:00:00	2024-11-06T23:00:00	2	Temperatura media	14.6
53562	7	Sololá	701	Sololá	3	Barraneche	10	Octubre	2023-06-10T00:00:00	2024-11-06T23:00:00	4	Temperatura máxima	14.8
53563	7	Sololá	701	Sololá	3	Barraneche	10	Octubre	2023-06-10T00:00:00	2024-11-06T23:00:00	3	Temperatura mínima	14.6
53564	7	Sololá	701	Sololá	3	Barraneche	10	Octubre	2023-06-10T00:00:00	2024-11-06T23:00:00	5	Humedad	85
53565	7	Sololá	701	Sololá	3	Barraneche	10	Octubre	2023-06-10T00:00:00	2024-11-06T23:00:00	6	Velocidad del viento	3.2
53566	7	Sololá	701	Sololá	3	Barraneche	10	Octubre	2023-06-10T00:00:00	2024-11-06T23:00:00	7	Dirección del viento	3.22
53567	7	Sololá	701	Sololá	3	Barraneche	10	Octubre	2023-06-10T00:00:00	2024-11-06T23:00:00	1	Precipitación	0.6
53568	7	Sololá	701	Sololá	3	Barraneche	10	Octubre	2023-06-10T00:00:00	2024-11-06T23:00:00	8	Radiación solar	0
53569	7	Sololá	701	Sololá	3	Barraneche	10	Octubre	2023-07-10T00:00:00	2024-11-06T00:00:00	2	Temperatura media	14.6
53570	7	Sololá	701	Sololá	3	Barraneche	10	Octubre	2023-07-10T00:00:00	2024-11-06T00:00:00	4	Temperatura máxima	14.7
53571	7	Sololá	701	Sololá	3	Barraneche	10	Octubre	2023-07-10T00:00:00	2024-11-06T00:00:00	3	Temperatura mínima	14.6
53572	7	Sololá	701	Sololá	3	Barraneche	10	Octubre	2023-07-10T00:00:00	2024-11-06T00:00:00	5	Humedad	85
53573	7	Sololá	701	Sololá	3	Barraneche	10	Octubre	2023-07-10T00:00:00	2024-11-06T00:00:00	6	Velocidad del viento	1.6
53574	7	Sololá	701	Sololá	3	Barraneche	10	Octubre	2023-07-10T00:00:00	2024-11-06T00:00:00	7	Dirección del viento	1.61
53575	7	Sololá	701	Sololá	3	Barraneche	10	Octubre	2023-07-10T00:00:00	2024-11-06T00:00:00	1	Precipitación	0.2
53576	7	Sololá	701	Sololá	3	Barraneche	10	Octubre	2023-07-10T00:00:00	2024-11-06T00:00:00	8	Radiación solar	0
53577	7	Sololá	701	Sololá	3	Barraneche	10	Octubre	2023-07-10T00:00:00	2024-11-06T01:00:00	2	Temperatura media	14
53578	7	Sololá	701	Sololá	3	Barraneche	10	Octubre	2023-07-10T00:00:00	2024-11-06T01:00:00	4	Temperatura máxima	14.7
53579	7	Sololá	701	Sololá	3	Barraneche	10	Octubre	2023-07-10T00:00:00	2024-11-06T01:00:00	3	Temperatura mínima	13.9
53580	7	Sololá	701	Sololá	3	Barraneche	10	Octubre	2023-07-10T00:00:00	2024-11-06T01:00:00	5	Humedad	85
53581	7	Sololá	701	Sololá	3	Barraneche	10	Octubre	2023-07-10T00:00:00	2024-11-06T01:00:00	6	Velocidad del viento	3.2
53582	7	Sololá	701	Sololá	3	Barraneche	10	Octubre	2023-07-10T00:00:00	2024-11-06T01:00:00	7	Dirección del viento	3.22
53583	7	Sololá	701	Sololá	3	Barraneche	10	Octubre	2023-07-10T00:00:00	2024-11-06T01:00:00	1	Precipitación	0.2
53584	7	Sololá	701	Sololá	3	Barraneche	10	Octubre	2023-07-10T00:00:00	2024-11-06T01:00:00	8	Radiación solar	0
53585	7	Sololá	701	Sololá	3	Barraneche	10	Octubre	2023-07-10T00:00:00	2024-11-06T02:00:00	2	Temperatura media	13.7
53586	7	Sololá	701	Sololá	3	Barraneche	10	Octubre	2023-07-10T00:00:00	2024-11-06T02:00:00	4	Temperatura máxima	13.9
53587	7	Sololá	701	Sololá	3	Barraneche	10	Octubre	2023-07-10T00:00:00	2024-11-06T02:00:00	3	Temperatura mínima	13.6
53588	7	Sololá	701	Sololá	3	Barraneche	10	Octubre	2023-07-10T00:00:00	2024-11-06T02:00:00	5	Humedad	82
53589	7	Sololá	701	Sololá	3	Barraneche	10	Octubre	2023-07-10T00:00:00	2024-11-06T02:00:00	6	Velocidad del viento	4.8
53590	7	Sololá	701	Sololá	3	Barraneche	10	Octubre	2023-07-10T00:00:00	2024-11-06T02:00:00	7	Dirección del viento	4.83
53591	7	Sololá	701	Sololá	3	Barraneche	10	Octubre	2023-07-10T00:00:00	2024-11-06T02:00:00	1	Precipitación	0
53592	7	Sololá	701	Sololá	3	Barraneche	10	Octubre	2023-07-10T00:00:00	2024-11-06T02:00:00	8	Radiación solar	0
53593	7	Sololá	701	Sololá	3	Barraneche	10	Octubre	2023-07-10T00:00:00	2024-11-06T03:00:00	2	Temperatura media	13.4
53594	7	Sololá	701	Sololá	3	Barraneche	10	Octubre	2023-07-10T00:00:00	2024-11-06T03:00:00	4	Temperatura máxima	13.9
53595	7	Sololá	701	Sololá	3	Barraneche	10	Octubre	2023-07-10T00:00:00	2024-11-06T03:00:00	3	Temperatura mínima	13.4
53596	7	Sololá	701	Sololá	3	Barraneche	10	Octubre	2023-07-10T00:00:00	2024-11-06T03:00:00	5	Humedad	83
53597	7	Sololá	701	Sololá	3	Barraneche	10	Octubre	2023-07-10T00:00:00	2024-11-06T03:00:00	6	Velocidad del viento	4.8
53598	7	Sololá	701	Sololá	3	Barraneche	10	Octubre	2023-07-10T00:00:00	2024-11-06T03:00:00	7	Dirección del viento	4.83
53599	7	Sololá	701	Sololá	3	Barraneche	10	Octubre	2023-07-10T00:00:00	2024-11-06T03:00:00	1	Precipitación	0
53600	7	Sololá	701	Sololá	3	Barraneche	10	Octubre	2023-07-10T00:00:00	2024-11-06T03:00:00	8	Radiación solar	0
53601	7	Sololá	701	Sololá	3	Barraneche	10	Octubre	2023-07-10T00:00:00	2024-11-06T04:00:00	2	Temperatura media	13.6
53602	7	Sololá	701	Sololá	3	Barraneche	10	Octubre	2023-07-10T00:00:00	2024-11-06T04:00:00	4	Temperatura máxima	13.9
53603	7	Sololá	701	Sololá	3	Barraneche	10	Octubre	2023-07-10T00:00:00	2024-11-06T04:00:00	3	Temperatura mínima	13.4
53604	7	Sololá	701	Sololá	3	Barraneche	10	Octubre	2023-07-10T00:00:00	2024-11-06T04:00:00	5	Humedad	83
53605	7	Sololá	701	Sololá	3	Barraneche	10	Octubre	2023-07-10T00:00:00	2024-11-06T04:00:00	6	Velocidad del viento	4.8
53606	7	Sololá	701	Sololá	3	Barraneche	10	Octubre	2023-07-10T00:00:00	2024-11-06T04:00:00	7	Dirección del viento	4.83
53607	7	Sololá	701	Sololá	3	Barraneche	10	Octubre	2023-07-10T00:00:00	2024-11-06T04:00:00	1	Precipitación	0
53608	7	Sololá	701	Sololá	3	Barraneche	10	Octubre	2023-07-10T00:00:00	2024-11-06T04:00:00	8	Radiación solar	0
53609	7	Sololá	701	Sololá	3	Barraneche	10	Octubre	2023-07-10T00:00:00	2024-11-06T05:00:00	2	Temperatura media	13.6
53610	7	Sololá	701	Sololá	3	Barraneche	10	Octubre	2023-07-10T00:00:00	2024-11-06T05:00:00	4	Temperatura máxima	13.9
53611	7	Sololá	701	Sololá	3	Barraneche	10	Octubre	2023-07-10T00:00:00	2024-11-06T05:00:00	3	Temperatura mínima	13.4
53612	7	Sololá	701	Sololá	3	Barraneche	10	Octubre	2023-07-10T00:00:00	2024-11-06T05:00:00	5	Humedad	82
53613	7	Sololá	701	Sololá	3	Barraneche	10	Octubre	2023-07-10T00:00:00	2024-11-06T05:00:00	6	Velocidad del viento	4.8
53614	7	Sololá	701	Sololá	3	Barraneche	10	Octubre	2023-07-10T00:00:00	2024-11-06T05:00:00	7	Dirección del viento	4.83
53615	7	Sololá	701	Sololá	3	Barraneche	10	Octubre	2023-07-10T00:00:00	2024-11-06T05:00:00	1	Precipitación	0
53616	7	Sololá	701	Sololá	3	Barraneche	10	Octubre	2023-07-10T00:00:00	2024-11-06T05:00:00	8	Radiación solar	0
53617	7	Sololá	701	Sololá	3	Barraneche	10	Octubre	2023-07-10T00:00:00	2024-11-06T06:00:00	2	Temperatura media	13.2
53618	7	Sololá	701	Sololá	3	Barraneche	10	Octubre	2023-07-10T00:00:00	2024-11-06T06:00:00	4	Temperatura máxima	13.7
53619	7	Sololá	701	Sololá	3	Barraneche	10	Octubre	2023-07-10T00:00:00	2024-11-06T06:00:00	3	Temperatura mínima	13.1
53620	7	Sololá	701	Sololá	3	Barraneche	10	Octubre	2023-07-10T00:00:00	2024-11-06T06:00:00	5	Humedad	83
53621	7	Sololá	701	Sololá	3	Barraneche	10	Octubre	2023-07-10T00:00:00	2024-11-06T06:00:00	6	Velocidad del viento	1.6
53622	7	Sololá	701	Sololá	3	Barraneche	10	Octubre	2023-07-10T00:00:00	2024-11-06T06:00:00	7	Dirección del viento	1.61
53623	7	Sololá	701	Sololá	3	Barraneche	10	Octubre	2023-07-10T00:00:00	2024-11-06T06:00:00	1	Precipitación	0
53624	7	Sololá	701	Sololá	3	Barraneche	10	Octubre	2023-07-10T00:00:00	2024-11-06T06:00:00	8	Radiación solar	2
53625	7	Sololá	701	Sololá	3	Barraneche	10	Octubre	2023-07-10T00:00:00	2024-11-06T07:00:00	2	Temperatura media	14.4
53626	7	Sololá	701	Sololá	3	Barraneche	10	Octubre	2023-07-10T00:00:00	2024-11-06T07:00:00	4	Temperatura máxima	14.4
53627	7	Sololá	701	Sololá	3	Barraneche	10	Octubre	2023-07-10T00:00:00	2024-11-06T07:00:00	3	Temperatura mínima	13.2
53628	7	Sololá	701	Sololá	3	Barraneche	10	Octubre	2023-07-10T00:00:00	2024-11-06T07:00:00	5	Humedad	83
53629	7	Sololá	701	Sololá	3	Barraneche	10	Octubre	2023-07-10T00:00:00	2024-11-06T07:00:00	6	Velocidad del viento	1.6
53630	7	Sololá	701	Sololá	3	Barraneche	10	Octubre	2023-07-10T00:00:00	2024-11-06T07:00:00	7	Dirección del viento	1.61
53631	7	Sololá	701	Sololá	3	Barraneche	10	Octubre	2023-07-10T00:00:00	2024-11-06T07:00:00	1	Precipitación	0
53632	7	Sololá	701	Sololá	3	Barraneche	10	Octubre	2023-07-10T00:00:00	2024-11-06T07:00:00	8	Radiación solar	69
53633	7	Sololá	701	Sololá	3	Barraneche	10	Octubre	2023-07-10T00:00:00	2024-11-06T08:00:00	2	Temperatura media	16.2
53634	7	Sololá	701	Sololá	3	Barraneche	10	Octubre	2023-07-10T00:00:00	2024-11-06T08:00:00	4	Temperatura máxima	16.2
53635	7	Sololá	701	Sololá	3	Barraneche	10	Octubre	2023-07-10T00:00:00	2024-11-06T08:00:00	3	Temperatura mínima	14.4
53636	7	Sololá	701	Sololá	3	Barraneche	10	Octubre	2023-07-10T00:00:00	2024-11-06T08:00:00	5	Humedad	79
53637	7	Sololá	701	Sololá	3	Barraneche	10	Octubre	2023-07-10T00:00:00	2024-11-06T08:00:00	6	Velocidad del viento	3.2
53638	7	Sololá	701	Sololá	3	Barraneche	10	Octubre	2023-07-10T00:00:00	2024-11-06T08:00:00	7	Dirección del viento	3.22
53639	7	Sololá	701	Sololá	3	Barraneche	10	Octubre	2023-07-10T00:00:00	2024-11-06T08:00:00	1	Precipitación	0
53640	7	Sololá	701	Sololá	3	Barraneche	10	Octubre	2023-07-10T00:00:00	2024-11-06T08:00:00	8	Radiación solar	224
53641	7	Sololá	701	Sololá	3	Barraneche	10	Octubre	2023-07-10T00:00:00	2024-11-06T09:00:00	2	Temperatura media	16.8
53642	7	Sololá	701	Sololá	3	Barraneche	10	Octubre	2023-07-10T00:00:00	2024-11-06T09:00:00	4	Temperatura máxima	16.8
53643	7	Sololá	701	Sololá	3	Barraneche	10	Octubre	2023-07-10T00:00:00	2024-11-06T09:00:00	3	Temperatura mínima	16
53644	7	Sololá	701	Sololá	3	Barraneche	10	Octubre	2023-07-10T00:00:00	2024-11-06T09:00:00	5	Humedad	77
53645	7	Sololá	701	Sololá	3	Barraneche	10	Octubre	2023-07-10T00:00:00	2024-11-06T09:00:00	6	Velocidad del viento	3.2
53646	7	Sololá	701	Sololá	3	Barraneche	10	Octubre	2023-07-10T00:00:00	2024-11-06T09:00:00	7	Dirección del viento	3.22
53647	7	Sololá	701	Sololá	3	Barraneche	10	Octubre	2023-07-10T00:00:00	2024-11-06T09:00:00	1	Precipitación	0
53648	7	Sololá	701	Sololá	3	Barraneche	10	Octubre	2023-07-10T00:00:00	2024-11-06T09:00:00	8	Radiación solar	216
53649	7	Sololá	701	Sololá	3	Barraneche	10	Octubre	2023-07-10T00:00:00	2024-11-06T10:00:00	2	Temperatura media	18.4
53650	7	Sololá	701	Sololá	3	Barraneche	10	Octubre	2023-07-10T00:00:00	2024-11-06T10:00:00	4	Temperatura máxima	18.5
53651	7	Sololá	701	Sololá	3	Barraneche	10	Octubre	2023-07-10T00:00:00	2024-11-06T10:00:00	3	Temperatura mínima	16.8
53652	7	Sololá	701	Sololá	3	Barraneche	10	Octubre	2023-07-10T00:00:00	2024-11-06T10:00:00	5	Humedad	73
53653	7	Sololá	701	Sololá	3	Barraneche	10	Octubre	2023-07-10T00:00:00	2024-11-06T10:00:00	6	Velocidad del viento	4.8
53654	7	Sololá	701	Sololá	3	Barraneche	10	Octubre	2023-07-10T00:00:00	2024-11-06T10:00:00	7	Dirección del viento	4.83
53655	7	Sololá	701	Sololá	3	Barraneche	10	Octubre	2023-07-10T00:00:00	2024-11-06T10:00:00	1	Precipitación	0
53656	7	Sololá	701	Sololá	3	Barraneche	10	Octubre	2023-07-10T00:00:00	2024-11-06T10:00:00	8	Radiación solar	445
53657	7	Sololá	701	Sololá	3	Barraneche	10	Octubre	2023-07-10T00:00:00	2024-11-06T11:00:00	2	Temperatura media	20.6
53658	7	Sololá	701	Sololá	3	Barraneche	10	Octubre	2023-07-10T00:00:00	2024-11-06T11:00:00	4	Temperatura máxima	20.6
53659	7	Sololá	701	Sololá	3	Barraneche	10	Octubre	2023-07-10T00:00:00	2024-11-06T11:00:00	3	Temperatura mínima	18.4
53660	7	Sololá	701	Sololá	3	Barraneche	10	Octubre	2023-07-10T00:00:00	2024-11-06T11:00:00	5	Humedad	66
53661	7	Sololá	701	Sololá	3	Barraneche	10	Octubre	2023-07-10T00:00:00	2024-11-06T11:00:00	6	Velocidad del viento	6.4
53662	7	Sololá	701	Sololá	3	Barraneche	10	Octubre	2023-07-10T00:00:00	2024-11-06T11:00:00	7	Dirección del viento	6.44
53663	7	Sololá	701	Sololá	3	Barraneche	10	Octubre	2023-07-10T00:00:00	2024-11-06T11:00:00	1	Precipitación	0
53664	7	Sololá	701	Sololá	3	Barraneche	10	Octubre	2023-07-10T00:00:00	2024-11-06T11:00:00	8	Radiación solar	353
53665	7	Sololá	701	Sololá	3	Barraneche	10	Octubre	2023-07-10T00:00:00	2024-11-06T12:00:00	2	Temperatura media	20.4
53666	7	Sololá	701	Sololá	3	Barraneche	10	Octubre	2023-07-10T00:00:00	2024-11-06T12:00:00	4	Temperatura máxima	20.6
53667	7	Sololá	701	Sololá	3	Barraneche	10	Octubre	2023-07-10T00:00:00	2024-11-06T12:00:00	3	Temperatura mínima	19.9
53668	7	Sololá	701	Sololá	3	Barraneche	10	Octubre	2023-07-10T00:00:00	2024-11-06T12:00:00	5	Humedad	62
53669	7	Sololá	701	Sololá	3	Barraneche	10	Octubre	2023-07-10T00:00:00	2024-11-06T12:00:00	6	Velocidad del viento	8
53670	7	Sololá	701	Sololá	3	Barraneche	10	Octubre	2023-07-10T00:00:00	2024-11-06T12:00:00	7	Dirección del viento	8.05
53671	7	Sololá	701	Sololá	3	Barraneche	10	Octubre	2023-07-10T00:00:00	2024-11-06T12:00:00	1	Precipitación	0
53672	7	Sololá	701	Sololá	3	Barraneche	10	Octubre	2023-07-10T00:00:00	2024-11-06T12:00:00	8	Radiación solar	267
53673	7	Sololá	701	Sololá	3	Barraneche	10	Octubre	2023-07-10T00:00:00	2024-11-06T13:00:00	2	Temperatura media	20.6
53674	7	Sololá	701	Sololá	3	Barraneche	10	Octubre	2023-07-10T00:00:00	2024-11-06T13:00:00	4	Temperatura máxima	20.6
53675	7	Sololá	701	Sololá	3	Barraneche	10	Octubre	2023-07-10T00:00:00	2024-11-06T13:00:00	3	Temperatura mínima	19.8
53676	7	Sololá	701	Sololá	3	Barraneche	10	Octubre	2023-07-10T00:00:00	2024-11-06T13:00:00	5	Humedad	65
53677	7	Sololá	701	Sololá	3	Barraneche	10	Octubre	2023-07-10T00:00:00	2024-11-06T13:00:00	6	Velocidad del viento	6.4
53678	7	Sololá	701	Sololá	3	Barraneche	10	Octubre	2023-07-10T00:00:00	2024-11-06T13:00:00	7	Dirección del viento	6.44
53679	7	Sololá	701	Sololá	3	Barraneche	10	Octubre	2023-07-10T00:00:00	2024-11-06T13:00:00	1	Precipitación	0
53680	7	Sololá	701	Sololá	3	Barraneche	10	Octubre	2023-07-10T00:00:00	2024-11-06T13:00:00	8	Radiación solar	249
53681	7	Sololá	701	Sololá	3	Barraneche	10	Octubre	2023-07-10T00:00:00	2024-11-06T14:00:00	2	Temperatura media	19.8
53682	7	Sololá	701	Sololá	3	Barraneche	10	Octubre	2023-07-10T00:00:00	2024-11-06T14:00:00	4	Temperatura máxima	21.4
53683	7	Sololá	701	Sololá	3	Barraneche	10	Octubre	2023-07-10T00:00:00	2024-11-06T14:00:00	3	Temperatura mínima	19.8
53684	7	Sololá	701	Sololá	3	Barraneche	10	Octubre	2023-07-10T00:00:00	2024-11-06T14:00:00	5	Humedad	74
53685	7	Sololá	701	Sololá	3	Barraneche	10	Octubre	2023-07-10T00:00:00	2024-11-06T14:00:00	6	Velocidad del viento	8
53686	7	Sololá	701	Sololá	3	Barraneche	10	Octubre	2023-07-10T00:00:00	2024-11-06T14:00:00	7	Dirección del viento	8.05
53687	7	Sololá	701	Sololá	3	Barraneche	10	Octubre	2023-07-10T00:00:00	2024-11-06T14:00:00	1	Precipitación	0
53688	7	Sololá	701	Sololá	3	Barraneche	10	Octubre	2023-07-10T00:00:00	2024-11-06T14:00:00	8	Radiación solar	395
53689	7	Sololá	701	Sololá	3	Barraneche	10	Octubre	2023-07-10T00:00:00	2024-11-06T15:00:00	2	Temperatura media	18.3
53690	7	Sololá	701	Sololá	3	Barraneche	10	Octubre	2023-07-10T00:00:00	2024-11-06T15:00:00	4	Temperatura máxima	19.9
53691	7	Sololá	701	Sololá	3	Barraneche	10	Octubre	2023-07-10T00:00:00	2024-11-06T15:00:00	3	Temperatura mínima	18.1
53692	7	Sololá	701	Sololá	3	Barraneche	10	Octubre	2023-07-10T00:00:00	2024-11-06T15:00:00	5	Humedad	80
53693	7	Sololá	701	Sololá	3	Barraneche	10	Octubre	2023-07-10T00:00:00	2024-11-06T15:00:00	6	Velocidad del viento	9.7
53694	7	Sololá	701	Sololá	3	Barraneche	10	Octubre	2023-07-10T00:00:00	2024-11-06T15:00:00	7	Dirección del viento	9.66
53695	7	Sololá	701	Sololá	3	Barraneche	10	Octubre	2023-07-10T00:00:00	2024-11-06T15:00:00	1	Precipitación	0
53696	7	Sololá	701	Sololá	3	Barraneche	10	Octubre	2023-07-10T00:00:00	2024-11-06T15:00:00	8	Radiación solar	169
53697	7	Sololá	701	Sololá	3	Barraneche	10	Octubre	2023-07-10T00:00:00	2024-11-06T16:00:00	2	Temperatura media	16.3
53698	7	Sololá	701	Sololá	3	Barraneche	10	Octubre	2023-07-10T00:00:00	2024-11-06T16:00:00	4	Temperatura máxima	18.3
53699	7	Sololá	701	Sololá	3	Barraneche	10	Octubre	2023-07-10T00:00:00	2024-11-06T16:00:00	3	Temperatura mínima	16.3
53700	7	Sololá	701	Sololá	3	Barraneche	10	Octubre	2023-07-10T00:00:00	2024-11-06T16:00:00	5	Humedad	83
53701	7	Sololá	701	Sololá	3	Barraneche	10	Octubre	2023-07-10T00:00:00	2024-11-06T16:00:00	6	Velocidad del viento	9.7
53702	7	Sololá	701	Sololá	3	Barraneche	10	Octubre	2023-07-10T00:00:00	2024-11-06T16:00:00	7	Dirección del viento	9.66
53703	7	Sololá	701	Sololá	3	Barraneche	10	Octubre	2023-07-10T00:00:00	2024-11-06T16:00:00	1	Precipitación	4.4
53704	7	Sololá	701	Sololá	3	Barraneche	10	Octubre	2023-07-10T00:00:00	2024-11-06T16:00:00	8	Radiación solar	120
53705	7	Sololá	701	Sololá	3	Barraneche	10	Octubre	2023-07-10T00:00:00	2024-11-06T17:00:00	2	Temperatura media	16
53706	7	Sololá	701	Sololá	3	Barraneche	10	Octubre	2023-07-10T00:00:00	2024-11-06T17:00:00	4	Temperatura máxima	16.3
53707	7	Sololá	701	Sololá	3	Barraneche	10	Octubre	2023-07-10T00:00:00	2024-11-06T17:00:00	3	Temperatura mínima	15.8
53708	7	Sololá	701	Sololá	3	Barraneche	10	Octubre	2023-07-10T00:00:00	2024-11-06T17:00:00	5	Humedad	84
53709	7	Sololá	701	Sololá	3	Barraneche	10	Octubre	2023-07-10T00:00:00	2024-11-06T17:00:00	6	Velocidad del viento	1.6
53710	7	Sololá	701	Sololá	3	Barraneche	10	Octubre	2023-07-10T00:00:00	2024-11-06T17:00:00	7	Dirección del viento	1.61
53711	7	Sololá	701	Sololá	3	Barraneche	10	Octubre	2023-07-10T00:00:00	2024-11-06T17:00:00	1	Precipitación	0
53712	7	Sololá	701	Sololá	3	Barraneche	10	Octubre	2023-07-10T00:00:00	2024-11-06T17:00:00	8	Radiación solar	22
53713	7	Sololá	701	Sololá	3	Barraneche	10	Octubre	2023-07-10T00:00:00	2024-11-06T18:00:00	2	Temperatura media	15.3
53714	7	Sololá	701	Sololá	3	Barraneche	10	Octubre	2023-07-10T00:00:00	2024-11-06T18:00:00	4	Temperatura máxima	16.1
53715	7	Sololá	701	Sololá	3	Barraneche	10	Octubre	2023-07-10T00:00:00	2024-11-06T18:00:00	3	Temperatura mínima	15.3
53716	7	Sololá	701	Sololá	3	Barraneche	10	Octubre	2023-07-10T00:00:00	2024-11-06T18:00:00	5	Humedad	84
53717	7	Sololá	701	Sololá	3	Barraneche	10	Octubre	2023-07-10T00:00:00	2024-11-06T18:00:00	6	Velocidad del viento	1.6
53718	7	Sololá	701	Sololá	3	Barraneche	10	Octubre	2023-07-10T00:00:00	2024-11-06T18:00:00	7	Dirección del viento	1.61
53719	7	Sololá	701	Sololá	3	Barraneche	10	Octubre	2023-07-10T00:00:00	2024-11-06T18:00:00	1	Precipitación	0
53720	7	Sololá	701	Sololá	3	Barraneche	10	Octubre	2023-07-10T00:00:00	2024-11-06T18:00:00	8	Radiación solar	7
53721	7	Sololá	701	Sololá	3	Barraneche	10	Octubre	2023-07-10T00:00:00	2024-11-06T19:00:00	2	Temperatura media	15.6
53722	7	Sololá	701	Sololá	3	Barraneche	10	Octubre	2023-07-10T00:00:00	2024-11-06T19:00:00	4	Temperatura máxima	15.6
53723	7	Sololá	701	Sololá	3	Barraneche	10	Octubre	2023-07-10T00:00:00	2024-11-06T19:00:00	3	Temperatura mínima	15.3
53724	7	Sololá	701	Sololá	3	Barraneche	10	Octubre	2023-07-10T00:00:00	2024-11-06T19:00:00	5	Humedad	85
53725	7	Sololá	701	Sololá	3	Barraneche	10	Octubre	2023-07-10T00:00:00	2024-11-06T19:00:00	6	Velocidad del viento	1.6
53726	7	Sololá	701	Sololá	3	Barraneche	10	Octubre	2023-07-10T00:00:00	2024-11-06T19:00:00	7	Dirección del viento	1.61
53727	7	Sololá	701	Sololá	3	Barraneche	10	Octubre	2023-07-10T00:00:00	2024-11-06T19:00:00	1	Precipitación	0
53728	7	Sololá	701	Sololá	3	Barraneche	10	Octubre	2023-07-10T00:00:00	2024-11-06T19:00:00	8	Radiación solar	0
53729	7	Sololá	701	Sololá	3	Barraneche	10	Octubre	2023-07-10T00:00:00	2024-11-06T20:00:00	2	Temperatura media	13.8
53730	7	Sololá	701	Sololá	3	Barraneche	10	Octubre	2023-07-10T00:00:00	2024-11-06T20:00:00	4	Temperatura máxima	15.6
53731	7	Sololá	701	Sololá	3	Barraneche	10	Octubre	2023-07-10T00:00:00	2024-11-06T20:00:00	3	Temperatura mínima	13.7
53732	7	Sololá	701	Sololá	3	Barraneche	10	Octubre	2023-07-10T00:00:00	2024-11-06T20:00:00	5	Humedad	84
53733	7	Sololá	701	Sololá	3	Barraneche	10	Octubre	2023-07-10T00:00:00	2024-11-06T20:00:00	6	Velocidad del viento	4.8
53734	7	Sololá	701	Sololá	3	Barraneche	10	Octubre	2023-07-10T00:00:00	2024-11-06T20:00:00	7	Dirección del viento	4.83
53735	7	Sololá	701	Sololá	3	Barraneche	10	Octubre	2023-07-10T00:00:00	2024-11-06T20:00:00	1	Precipitación	16
53736	7	Sololá	701	Sololá	3	Barraneche	10	Octubre	2023-07-10T00:00:00	2024-11-06T20:00:00	8	Radiación solar	0
53737	7	Sololá	701	Sololá	3	Barraneche	10	Octubre	2023-07-10T00:00:00	2024-11-06T21:00:00	2	Temperatura media	13.8
53738	7	Sololá	701	Sololá	3	Barraneche	10	Octubre	2023-07-10T00:00:00	2024-11-06T21:00:00	4	Temperatura máxima	13.9
53739	7	Sololá	701	Sololá	3	Barraneche	10	Octubre	2023-07-10T00:00:00	2024-11-06T21:00:00	3	Temperatura mínima	13.8
53740	7	Sololá	701	Sololá	3	Barraneche	10	Octubre	2023-07-10T00:00:00	2024-11-06T21:00:00	5	Humedad	84
53741	7	Sololá	701	Sololá	3	Barraneche	10	Octubre	2023-07-10T00:00:00	2024-11-06T21:00:00	6	Velocidad del viento	3.2
53742	7	Sololá	701	Sololá	3	Barraneche	10	Octubre	2023-07-10T00:00:00	2024-11-06T21:00:00	7	Dirección del viento	3.22
53743	7	Sololá	701	Sololá	3	Barraneche	10	Octubre	2023-07-10T00:00:00	2024-11-06T21:00:00	1	Precipitación	9
53744	7	Sololá	701	Sololá	3	Barraneche	10	Octubre	2023-07-10T00:00:00	2024-11-06T21:00:00	8	Radiación solar	0
53745	7	Sololá	701	Sololá	3	Barraneche	10	Octubre	2023-07-10T00:00:00	2024-11-06T22:00:00	2	Temperatura media	13.3
53746	7	Sololá	701	Sololá	3	Barraneche	10	Octubre	2023-07-10T00:00:00	2024-11-06T22:00:00	4	Temperatura máxima	13.8
53747	7	Sololá	701	Sololá	3	Barraneche	10	Octubre	2023-07-10T00:00:00	2024-11-06T22:00:00	3	Temperatura mínima	13.2
53748	7	Sololá	701	Sololá	3	Barraneche	10	Octubre	2023-07-10T00:00:00	2024-11-06T22:00:00	5	Humedad	85
53749	7	Sololá	701	Sololá	3	Barraneche	10	Octubre	2023-07-10T00:00:00	2024-11-06T22:00:00	6	Velocidad del viento	3.2
53750	7	Sololá	701	Sololá	3	Barraneche	10	Octubre	2023-07-10T00:00:00	2024-11-06T22:00:00	7	Dirección del viento	3.22
53751	7	Sololá	701	Sololá	3	Barraneche	10	Octubre	2023-07-10T00:00:00	2024-11-06T22:00:00	1	Precipitación	7.4
53752	7	Sololá	701	Sololá	3	Barraneche	10	Octubre	2023-07-10T00:00:00	2024-11-06T22:00:00	8	Radiación solar	0
53753	7	Sololá	701	Sololá	3	Barraneche	10	Octubre	2023-07-10T00:00:00	2024-11-06T23:00:00	2	Temperatura media	13.3
53754	7	Sololá	701	Sololá	3	Barraneche	10	Octubre	2023-07-10T00:00:00	2024-11-06T23:00:00	4	Temperatura máxima	13.4
53755	7	Sololá	701	Sololá	3	Barraneche	10	Octubre	2023-07-10T00:00:00	2024-11-06T23:00:00	3	Temperatura mínima	13.3
53756	7	Sololá	701	Sololá	3	Barraneche	10	Octubre	2023-07-10T00:00:00	2024-11-06T23:00:00	5	Humedad	85
53757	7	Sololá	701	Sololá	3	Barraneche	10	Octubre	2023-07-10T00:00:00	2024-11-06T23:00:00	6	Velocidad del viento	1.6
53758	7	Sololá	701	Sololá	3	Barraneche	10	Octubre	2023-07-10T00:00:00	2024-11-06T23:00:00	7	Dirección del viento	1.61
53759	7	Sololá	701	Sololá	3	Barraneche	10	Octubre	2023-07-10T00:00:00	2024-11-06T23:00:00	1	Precipitación	2.8
53760	7	Sololá	701	Sololá	3	Barraneche	10	Octubre	2023-07-10T00:00:00	2024-11-06T23:00:00	8	Radiación solar	0
53761	7	Sololá	701	Sololá	3	Barraneche	10	Octubre	2023-08-10T00:00:00	2024-11-06T00:00:00	2	Temperatura media	12.9
53762	7	Sololá	701	Sololá	3	Barraneche	10	Octubre	2023-08-10T00:00:00	2024-11-06T00:00:00	4	Temperatura máxima	13.3
53763	7	Sololá	701	Sololá	3	Barraneche	10	Octubre	2023-08-10T00:00:00	2024-11-06T00:00:00	3	Temperatura mínima	12.8
53764	7	Sololá	701	Sololá	3	Barraneche	10	Octubre	2023-08-10T00:00:00	2024-11-06T00:00:00	5	Humedad	84
53765	7	Sololá	701	Sololá	3	Barraneche	10	Octubre	2023-08-10T00:00:00	2024-11-06T00:00:00	6	Velocidad del viento	1.6
53766	7	Sololá	701	Sololá	3	Barraneche	10	Octubre	2023-08-10T00:00:00	2024-11-06T00:00:00	7	Dirección del viento	1.61
53767	7	Sololá	701	Sololá	3	Barraneche	10	Octubre	2023-08-10T00:00:00	2024-11-06T00:00:00	1	Precipitación	4
53768	7	Sololá	701	Sololá	3	Barraneche	10	Octubre	2023-08-10T00:00:00	2024-11-06T00:00:00	8	Radiación solar	0
53769	7	Sololá	701	Sololá	3	Barraneche	10	Octubre	2023-08-10T00:00:00	2024-11-06T01:00:00	2	Temperatura media	12.4
53770	7	Sololá	701	Sololá	3	Barraneche	10	Octubre	2023-08-10T00:00:00	2024-11-06T01:00:00	4	Temperatura máxima	12.9
53771	7	Sololá	701	Sololá	3	Barraneche	10	Octubre	2023-08-10T00:00:00	2024-11-06T01:00:00	3	Temperatura mínima	12.4
53772	7	Sololá	701	Sololá	3	Barraneche	10	Octubre	2023-08-10T00:00:00	2024-11-06T01:00:00	5	Humedad	84
53773	7	Sololá	701	Sololá	3	Barraneche	10	Octubre	2023-08-10T00:00:00	2024-11-06T01:00:00	6	Velocidad del viento	3.2
53774	7	Sololá	701	Sololá	3	Barraneche	10	Octubre	2023-08-10T00:00:00	2024-11-06T01:00:00	7	Dirección del viento	3.22
53775	7	Sololá	701	Sololá	3	Barraneche	10	Octubre	2023-08-10T00:00:00	2024-11-06T01:00:00	1	Precipitación	2.2
53776	7	Sololá	701	Sololá	3	Barraneche	10	Octubre	2023-08-10T00:00:00	2024-11-06T01:00:00	8	Radiación solar	0
53777	7	Sololá	701	Sololá	3	Barraneche	10	Octubre	2023-08-10T00:00:00	2024-11-06T02:00:00	2	Temperatura media	12.8
53778	7	Sololá	701	Sololá	3	Barraneche	10	Octubre	2023-08-10T00:00:00	2024-11-06T02:00:00	4	Temperatura máxima	12.8
53779	7	Sololá	701	Sololá	3	Barraneche	10	Octubre	2023-08-10T00:00:00	2024-11-06T02:00:00	3	Temperatura mínima	12.3
53780	7	Sololá	701	Sololá	3	Barraneche	10	Octubre	2023-08-10T00:00:00	2024-11-06T02:00:00	5	Humedad	84
53781	7	Sololá	701	Sololá	3	Barraneche	10	Octubre	2023-08-10T00:00:00	2024-11-06T02:00:00	6	Velocidad del viento	4.8
53782	7	Sololá	701	Sololá	3	Barraneche	10	Octubre	2023-08-10T00:00:00	2024-11-06T02:00:00	7	Dirección del viento	4.83
53783	7	Sololá	701	Sololá	3	Barraneche	10	Octubre	2023-08-10T00:00:00	2024-11-06T02:00:00	1	Precipitación	1
53784	7	Sololá	701	Sololá	3	Barraneche	10	Octubre	2023-08-10T00:00:00	2024-11-06T02:00:00	8	Radiación solar	0
53785	7	Sololá	701	Sololá	3	Barraneche	10	Octubre	2023-08-10T00:00:00	2024-11-06T03:00:00	2	Temperatura media	13.1
53786	7	Sololá	701	Sololá	3	Barraneche	10	Octubre	2023-08-10T00:00:00	2024-11-06T03:00:00	4	Temperatura máxima	13.5
53787	7	Sololá	701	Sololá	3	Barraneche	10	Octubre	2023-08-10T00:00:00	2024-11-06T03:00:00	3	Temperatura mínima	12.8
53788	7	Sololá	701	Sololá	3	Barraneche	10	Octubre	2023-08-10T00:00:00	2024-11-06T03:00:00	5	Humedad	82
53789	7	Sololá	701	Sololá	3	Barraneche	10	Octubre	2023-08-10T00:00:00	2024-11-06T03:00:00	6	Velocidad del viento	6.4
53790	7	Sololá	701	Sololá	3	Barraneche	10	Octubre	2023-08-10T00:00:00	2024-11-06T03:00:00	7	Dirección del viento	6.44
53791	7	Sololá	701	Sololá	3	Barraneche	10	Octubre	2023-08-10T00:00:00	2024-11-06T03:00:00	1	Precipitación	0
53792	7	Sololá	701	Sololá	3	Barraneche	10	Octubre	2023-08-10T00:00:00	2024-11-06T03:00:00	8	Radiación solar	0
53793	7	Sololá	701	Sololá	3	Barraneche	10	Octubre	2023-08-10T00:00:00	2024-11-06T04:00:00	2	Temperatura media	12.5
53794	7	Sololá	701	Sololá	3	Barraneche	10	Octubre	2023-08-10T00:00:00	2024-11-06T04:00:00	4	Temperatura máxima	13
53795	7	Sololá	701	Sololá	3	Barraneche	10	Octubre	2023-08-10T00:00:00	2024-11-06T04:00:00	3	Temperatura mínima	12.3
53796	7	Sololá	701	Sololá	3	Barraneche	10	Octubre	2023-08-10T00:00:00	2024-11-06T04:00:00	5	Humedad	82
53797	7	Sololá	701	Sololá	3	Barraneche	10	Octubre	2023-08-10T00:00:00	2024-11-06T04:00:00	6	Velocidad del viento	4.8
53798	7	Sololá	701	Sololá	3	Barraneche	10	Octubre	2023-08-10T00:00:00	2024-11-06T04:00:00	7	Dirección del viento	4.83
53799	7	Sololá	701	Sololá	3	Barraneche	10	Octubre	2023-08-10T00:00:00	2024-11-06T04:00:00	1	Precipitación	0
53800	7	Sololá	701	Sololá	3	Barraneche	10	Octubre	2023-08-10T00:00:00	2024-11-06T04:00:00	8	Radiación solar	0
53801	7	Sololá	701	Sololá	3	Barraneche	10	Octubre	2023-08-10T00:00:00	2024-11-06T05:00:00	2	Temperatura media	12.8
53802	7	Sololá	701	Sololá	3	Barraneche	10	Octubre	2023-08-10T00:00:00	2024-11-06T05:00:00	4	Temperatura máxima	12.9
53803	7	Sololá	701	Sololá	3	Barraneche	10	Octubre	2023-08-10T00:00:00	2024-11-06T05:00:00	3	Temperatura mínima	12.4
53804	7	Sololá	701	Sololá	3	Barraneche	10	Octubre	2023-08-10T00:00:00	2024-11-06T05:00:00	5	Humedad	82
53805	7	Sololá	701	Sololá	3	Barraneche	10	Octubre	2023-08-10T00:00:00	2024-11-06T05:00:00	6	Velocidad del viento	4.8
53806	7	Sololá	701	Sololá	3	Barraneche	10	Octubre	2023-08-10T00:00:00	2024-11-06T05:00:00	7	Dirección del viento	4.83
53807	7	Sololá	701	Sololá	3	Barraneche	10	Octubre	2023-08-10T00:00:00	2024-11-06T05:00:00	1	Precipitación	0
53808	7	Sololá	701	Sololá	3	Barraneche	10	Octubre	2023-08-10T00:00:00	2024-11-06T05:00:00	8	Radiación solar	0
53809	7	Sololá	701	Sololá	3	Barraneche	10	Octubre	2023-08-10T00:00:00	2024-11-06T06:00:00	2	Temperatura media	12.8
53810	7	Sololá	701	Sololá	3	Barraneche	10	Octubre	2023-08-10T00:00:00	2024-11-06T06:00:00	4	Temperatura máxima	12.9
53811	7	Sololá	701	Sololá	3	Barraneche	10	Octubre	2023-08-10T00:00:00	2024-11-06T06:00:00	3	Temperatura mínima	12.7
53812	7	Sololá	701	Sololá	3	Barraneche	10	Octubre	2023-08-10T00:00:00	2024-11-06T06:00:00	5	Humedad	83
53813	7	Sololá	701	Sololá	3	Barraneche	10	Octubre	2023-08-10T00:00:00	2024-11-06T06:00:00	6	Velocidad del viento	3.2
53814	7	Sololá	701	Sololá	3	Barraneche	10	Octubre	2023-08-10T00:00:00	2024-11-06T06:00:00	7	Dirección del viento	3.22
53815	7	Sololá	701	Sololá	3	Barraneche	10	Octubre	2023-08-10T00:00:00	2024-11-06T06:00:00	1	Precipitación	0
53816	7	Sololá	701	Sololá	3	Barraneche	10	Octubre	2023-08-10T00:00:00	2024-11-06T06:00:00	8	Radiación solar	0
53817	7	Sololá	701	Sololá	3	Barraneche	10	Octubre	2023-08-10T00:00:00	2024-11-06T07:00:00	2	Temperatura media	13
53818	7	Sololá	701	Sololá	3	Barraneche	10	Octubre	2023-08-10T00:00:00	2024-11-06T07:00:00	4	Temperatura máxima	13.1
53819	7	Sololá	701	Sololá	3	Barraneche	10	Octubre	2023-08-10T00:00:00	2024-11-06T07:00:00	3	Temperatura mínima	12.7
53820	7	Sololá	701	Sololá	3	Barraneche	10	Octubre	2023-08-10T00:00:00	2024-11-06T07:00:00	5	Humedad	84
53821	7	Sololá	701	Sololá	3	Barraneche	10	Octubre	2023-08-10T00:00:00	2024-11-06T07:00:00	6	Velocidad del viento	3.2
53822	7	Sololá	701	Sololá	3	Barraneche	10	Octubre	2023-08-10T00:00:00	2024-11-06T07:00:00	7	Dirección del viento	3.22
53823	7	Sololá	701	Sololá	3	Barraneche	10	Octubre	2023-08-10T00:00:00	2024-11-06T07:00:00	1	Precipitación	0
53824	7	Sololá	701	Sololá	3	Barraneche	10	Octubre	2023-08-10T00:00:00	2024-11-06T07:00:00	8	Radiación solar	24
53825	7	Sololá	701	Sololá	3	Barraneche	10	Octubre	2023-08-10T00:00:00	2024-11-06T08:00:00	2	Temperatura media	14.3
53826	7	Sololá	701	Sololá	3	Barraneche	10	Octubre	2023-08-10T00:00:00	2024-11-06T08:00:00	4	Temperatura máxima	14.3
53827	7	Sololá	701	Sololá	3	Barraneche	10	Octubre	2023-08-10T00:00:00	2024-11-06T08:00:00	3	Temperatura mínima	13
53828	7	Sololá	701	Sololá	3	Barraneche	10	Octubre	2023-08-10T00:00:00	2024-11-06T08:00:00	5	Humedad	81
53829	7	Sololá	701	Sololá	3	Barraneche	10	Octubre	2023-08-10T00:00:00	2024-11-06T08:00:00	6	Velocidad del viento	0
53830	7	Sololá	701	Sololá	3	Barraneche	10	Octubre	2023-08-10T00:00:00	2024-11-06T08:00:00	7	Dirección del viento	0
53831	7	Sololá	701	Sololá	3	Barraneche	10	Octubre	2023-08-10T00:00:00	2024-11-06T08:00:00	1	Precipitación	0
53832	7	Sololá	701	Sololá	3	Barraneche	10	Octubre	2023-08-10T00:00:00	2024-11-06T08:00:00	8	Radiación solar	125
53833	7	Sololá	701	Sololá	3	Barraneche	10	Octubre	2023-08-10T00:00:00	2024-11-06T09:00:00	2	Temperatura media	16.8
53834	7	Sololá	701	Sololá	3	Barraneche	10	Octubre	2023-08-10T00:00:00	2024-11-06T09:00:00	4	Temperatura máxima	16.8
53835	7	Sololá	701	Sololá	3	Barraneche	10	Octubre	2023-08-10T00:00:00	2024-11-06T09:00:00	3	Temperatura mínima	14.3
53836	7	Sololá	701	Sololá	3	Barraneche	10	Octubre	2023-08-10T00:00:00	2024-11-06T09:00:00	5	Humedad	76
53837	7	Sololá	701	Sololá	3	Barraneche	10	Octubre	2023-08-10T00:00:00	2024-11-06T09:00:00	6	Velocidad del viento	3.2
53838	7	Sololá	701	Sololá	3	Barraneche	10	Octubre	2023-08-10T00:00:00	2024-11-06T09:00:00	7	Dirección del viento	3.22
53839	7	Sololá	701	Sololá	3	Barraneche	10	Octubre	2023-08-10T00:00:00	2024-11-06T09:00:00	1	Precipitación	0.2
53840	7	Sololá	701	Sololá	3	Barraneche	10	Octubre	2023-08-10T00:00:00	2024-11-06T09:00:00	8	Radiación solar	437
53841	7	Sololá	701	Sololá	3	Barraneche	10	Octubre	2023-08-10T00:00:00	2024-11-06T10:00:00	2	Temperatura media	17.5
53842	7	Sololá	701	Sololá	3	Barraneche	10	Octubre	2023-08-10T00:00:00	2024-11-06T10:00:00	4	Temperatura máxima	17.5
53843	7	Sololá	701	Sololá	3	Barraneche	10	Octubre	2023-08-10T00:00:00	2024-11-06T10:00:00	3	Temperatura mínima	16.7
53844	7	Sololá	701	Sololá	3	Barraneche	10	Octubre	2023-08-10T00:00:00	2024-11-06T10:00:00	5	Humedad	74
53845	7	Sololá	701	Sololá	3	Barraneche	10	Octubre	2023-08-10T00:00:00	2024-11-06T10:00:00	6	Velocidad del viento	4.8
53846	7	Sololá	701	Sololá	3	Barraneche	10	Octubre	2023-08-10T00:00:00	2024-11-06T10:00:00	7	Dirección del viento	4.83
53847	7	Sololá	701	Sololá	3	Barraneche	10	Octubre	2023-08-10T00:00:00	2024-11-06T10:00:00	1	Precipitación	0
53848	7	Sololá	701	Sololá	3	Barraneche	10	Octubre	2023-08-10T00:00:00	2024-11-06T10:00:00	8	Radiación solar	385
53849	7	Sololá	701	Sololá	3	Barraneche	10	Octubre	2023-08-10T00:00:00	2024-11-06T11:00:00	2	Temperatura media	18.4
53850	7	Sololá	701	Sololá	3	Barraneche	10	Octubre	2023-08-10T00:00:00	2024-11-06T11:00:00	4	Temperatura máxima	18.5
53851	7	Sololá	701	Sololá	3	Barraneche	10	Octubre	2023-08-10T00:00:00	2024-11-06T11:00:00	3	Temperatura mínima	17.4
53852	7	Sololá	701	Sololá	3	Barraneche	10	Octubre	2023-08-10T00:00:00	2024-11-06T11:00:00	5	Humedad	72
53853	7	Sololá	701	Sololá	3	Barraneche	10	Octubre	2023-08-10T00:00:00	2024-11-06T11:00:00	6	Velocidad del viento	4.8
53854	7	Sololá	701	Sololá	3	Barraneche	10	Octubre	2023-08-10T00:00:00	2024-11-06T11:00:00	7	Dirección del viento	4.83
53855	7	Sololá	701	Sololá	3	Barraneche	10	Octubre	2023-08-10T00:00:00	2024-11-06T11:00:00	1	Precipitación	0
53856	7	Sololá	701	Sololá	3	Barraneche	10	Octubre	2023-08-10T00:00:00	2024-11-06T11:00:00	8	Radiación solar	465
53857	7	Sololá	701	Sololá	3	Barraneche	10	Octubre	2023-08-10T00:00:00	2024-11-06T12:00:00	2	Temperatura media	19.9
53858	7	Sololá	701	Sololá	3	Barraneche	10	Octubre	2023-08-10T00:00:00	2024-11-06T12:00:00	4	Temperatura máxima	19.9
53859	7	Sololá	701	Sololá	3	Barraneche	10	Octubre	2023-08-10T00:00:00	2024-11-06T12:00:00	3	Temperatura mínima	18.4
53860	7	Sololá	701	Sololá	3	Barraneche	10	Octubre	2023-08-10T00:00:00	2024-11-06T12:00:00	5	Humedad	73
53861	7	Sololá	701	Sololá	3	Barraneche	10	Octubre	2023-08-10T00:00:00	2024-11-06T12:00:00	6	Velocidad del viento	8
53862	7	Sololá	701	Sololá	3	Barraneche	10	Octubre	2023-08-10T00:00:00	2024-11-06T12:00:00	7	Dirección del viento	8.05
53863	7	Sololá	701	Sololá	3	Barraneche	10	Octubre	2023-08-10T00:00:00	2024-11-06T12:00:00	1	Precipitación	0
53864	7	Sololá	701	Sololá	3	Barraneche	10	Octubre	2023-08-10T00:00:00	2024-11-06T12:00:00	8	Radiación solar	996
53865	7	Sololá	701	Sololá	3	Barraneche	10	Octubre	2023-08-10T00:00:00	2024-11-06T13:00:00	2	Temperatura media	20.1
53866	7	Sololá	701	Sololá	3	Barraneche	10	Octubre	2023-08-10T00:00:00	2024-11-06T13:00:00	4	Temperatura máxima	20.1
53867	7	Sololá	701	Sololá	3	Barraneche	10	Octubre	2023-08-10T00:00:00	2024-11-06T13:00:00	3	Temperatura mínima	18.6
53868	7	Sololá	701	Sololá	3	Barraneche	10	Octubre	2023-08-10T00:00:00	2024-11-06T13:00:00	5	Humedad	68
53869	7	Sololá	701	Sololá	3	Barraneche	10	Octubre	2023-08-10T00:00:00	2024-11-06T13:00:00	6	Velocidad del viento	9.7
53870	7	Sololá	701	Sololá	3	Barraneche	10	Octubre	2023-08-10T00:00:00	2024-11-06T13:00:00	7	Dirección del viento	9.66
53871	7	Sololá	701	Sololá	3	Barraneche	10	Octubre	2023-08-10T00:00:00	2024-11-06T13:00:00	1	Precipitación	0
53872	7	Sololá	701	Sololá	3	Barraneche	10	Octubre	2023-08-10T00:00:00	2024-11-06T13:00:00	8	Radiación solar	449
53873	7	Sololá	701	Sololá	3	Barraneche	10	Octubre	2023-08-10T00:00:00	2024-11-06T14:00:00	2	Temperatura media	21.1
53874	7	Sololá	701	Sololá	3	Barraneche	10	Octubre	2023-08-10T00:00:00	2024-11-06T14:00:00	4	Temperatura máxima	21.2
53875	7	Sololá	701	Sololá	3	Barraneche	10	Octubre	2023-08-10T00:00:00	2024-11-06T14:00:00	3	Temperatura mínima	19.9
53876	7	Sololá	701	Sololá	3	Barraneche	10	Octubre	2023-08-10T00:00:00	2024-11-06T14:00:00	5	Humedad	67
53877	7	Sololá	701	Sololá	3	Barraneche	10	Octubre	2023-08-10T00:00:00	2024-11-06T14:00:00	6	Velocidad del viento	9.7
53878	7	Sololá	701	Sololá	3	Barraneche	10	Octubre	2023-08-10T00:00:00	2024-11-06T14:00:00	7	Dirección del viento	9.66
53879	7	Sololá	701	Sololá	3	Barraneche	10	Octubre	2023-08-10T00:00:00	2024-11-06T14:00:00	1	Precipitación	0
53880	7	Sololá	701	Sololá	3	Barraneche	10	Octubre	2023-08-10T00:00:00	2024-11-06T14:00:00	8	Radiación solar	517
53881	7	Sololá	701	Sololá	3	Barraneche	10	Octubre	2023-08-10T00:00:00	2024-11-06T15:00:00	2	Temperatura media	20.3
53882	7	Sololá	701	Sololá	3	Barraneche	10	Octubre	2023-08-10T00:00:00	2024-11-06T15:00:00	4	Temperatura máxima	21.3
53883	7	Sololá	701	Sololá	3	Barraneche	10	Octubre	2023-08-10T00:00:00	2024-11-06T15:00:00	3	Temperatura mínima	20.2
53884	7	Sololá	701	Sololá	3	Barraneche	10	Octubre	2023-08-10T00:00:00	2024-11-06T15:00:00	5	Humedad	65
53885	7	Sololá	701	Sololá	3	Barraneche	10	Octubre	2023-08-10T00:00:00	2024-11-06T15:00:00	6	Velocidad del viento	9.7
53886	7	Sololá	701	Sololá	3	Barraneche	10	Octubre	2023-08-10T00:00:00	2024-11-06T15:00:00	7	Dirección del viento	9.66
53887	7	Sololá	701	Sololá	3	Barraneche	10	Octubre	2023-08-10T00:00:00	2024-11-06T15:00:00	1	Precipitación	0
53888	7	Sololá	701	Sololá	3	Barraneche	10	Octubre	2023-08-10T00:00:00	2024-11-06T15:00:00	8	Radiación solar	576
53889	7	Sololá	701	Sololá	3	Barraneche	10	Octubre	2023-08-10T00:00:00	2024-11-06T16:00:00	2	Temperatura media	17.9
53890	7	Sololá	701	Sololá	3	Barraneche	10	Octubre	2023-08-10T00:00:00	2024-11-06T16:00:00	4	Temperatura máxima	20.4
53891	7	Sololá	701	Sololá	3	Barraneche	10	Octubre	2023-08-10T00:00:00	2024-11-06T16:00:00	3	Temperatura mínima	17.9
53892	7	Sololá	701	Sololá	3	Barraneche	10	Octubre	2023-08-10T00:00:00	2024-11-06T16:00:00	5	Humedad	79
53893	7	Sololá	701	Sololá	3	Barraneche	10	Octubre	2023-08-10T00:00:00	2024-11-06T16:00:00	6	Velocidad del viento	9.7
53894	7	Sololá	701	Sololá	3	Barraneche	10	Octubre	2023-08-10T00:00:00	2024-11-06T16:00:00	7	Dirección del viento	9.66
53895	7	Sololá	701	Sololá	3	Barraneche	10	Octubre	2023-08-10T00:00:00	2024-11-06T16:00:00	1	Precipitación	0.2
53896	7	Sololá	701	Sololá	3	Barraneche	10	Octubre	2023-08-10T00:00:00	2024-11-06T16:00:00	8	Radiación solar	180
53897	7	Sololá	701	Sololá	3	Barraneche	10	Octubre	2023-08-10T00:00:00	2024-11-06T17:00:00	2	Temperatura media	15.6
53898	7	Sololá	701	Sololá	3	Barraneche	10	Octubre	2023-08-10T00:00:00	2024-11-06T17:00:00	4	Temperatura máxima	17.9
53899	7	Sololá	701	Sololá	3	Barraneche	10	Octubre	2023-08-10T00:00:00	2024-11-06T17:00:00	3	Temperatura mínima	15.6
53900	7	Sololá	701	Sololá	3	Barraneche	10	Octubre	2023-08-10T00:00:00	2024-11-06T17:00:00	5	Humedad	84
53901	7	Sololá	701	Sololá	3	Barraneche	10	Octubre	2023-08-10T00:00:00	2024-11-06T17:00:00	6	Velocidad del viento	9.7
53902	7	Sololá	701	Sololá	3	Barraneche	10	Octubre	2023-08-10T00:00:00	2024-11-06T17:00:00	7	Dirección del viento	9.66
53903	7	Sololá	701	Sololá	3	Barraneche	10	Octubre	2023-08-10T00:00:00	2024-11-06T17:00:00	1	Precipitación	1.8
53904	7	Sololá	701	Sololá	3	Barraneche	10	Octubre	2023-08-10T00:00:00	2024-11-06T17:00:00	8	Radiación solar	22
53905	7	Sololá	701	Sololá	3	Barraneche	10	Octubre	2023-08-10T00:00:00	2024-11-06T18:00:00	2	Temperatura media	15
53906	7	Sololá	701	Sololá	3	Barraneche	10	Octubre	2023-08-10T00:00:00	2024-11-06T18:00:00	4	Temperatura máxima	15.6
53907	7	Sololá	701	Sololá	3	Barraneche	10	Octubre	2023-08-10T00:00:00	2024-11-06T18:00:00	3	Temperatura mínima	14.9
53908	7	Sololá	701	Sololá	3	Barraneche	10	Octubre	2023-08-10T00:00:00	2024-11-06T18:00:00	5	Humedad	83
53909	7	Sololá	701	Sololá	3	Barraneche	10	Octubre	2023-08-10T00:00:00	2024-11-06T18:00:00	6	Velocidad del viento	1.6
53910	7	Sololá	701	Sololá	3	Barraneche	10	Octubre	2023-08-10T00:00:00	2024-11-06T18:00:00	7	Dirección del viento	1.61
53911	7	Sololá	701	Sololá	3	Barraneche	10	Octubre	2023-08-10T00:00:00	2024-11-06T18:00:00	1	Precipitación	1
53912	7	Sololá	701	Sololá	3	Barraneche	10	Octubre	2023-08-10T00:00:00	2024-11-06T18:00:00	8	Radiación solar	4
53913	7	Sololá	701	Sololá	3	Barraneche	10	Octubre	2023-08-10T00:00:00	2024-11-06T19:00:00	2	Temperatura media	14.5
53914	7	Sololá	701	Sololá	3	Barraneche	10	Octubre	2023-08-10T00:00:00	2024-11-06T19:00:00	4	Temperatura máxima	15
53915	7	Sololá	701	Sololá	3	Barraneche	10	Octubre	2023-08-10T00:00:00	2024-11-06T19:00:00	3	Temperatura mínima	14.4
53916	7	Sololá	701	Sololá	3	Barraneche	10	Octubre	2023-08-10T00:00:00	2024-11-06T19:00:00	5	Humedad	84
53917	7	Sololá	701	Sololá	3	Barraneche	10	Octubre	2023-08-10T00:00:00	2024-11-06T19:00:00	6	Velocidad del viento	1.6
53918	7	Sololá	701	Sololá	3	Barraneche	10	Octubre	2023-08-10T00:00:00	2024-11-06T19:00:00	7	Dirección del viento	1.61
53919	7	Sololá	701	Sololá	3	Barraneche	10	Octubre	2023-08-10T00:00:00	2024-11-06T19:00:00	1	Precipitación	0
53920	7	Sololá	701	Sololá	3	Barraneche	10	Octubre	2023-08-10T00:00:00	2024-11-06T19:00:00	8	Radiación solar	0
53921	7	Sololá	701	Sololá	3	Barraneche	10	Octubre	2023-08-10T00:00:00	2024-11-06T20:00:00	2	Temperatura media	14.1
53922	7	Sololá	701	Sololá	3	Barraneche	10	Octubre	2023-08-10T00:00:00	2024-11-06T20:00:00	4	Temperatura máxima	14.6
53923	7	Sololá	701	Sololá	3	Barraneche	10	Octubre	2023-08-10T00:00:00	2024-11-06T20:00:00	3	Temperatura mínima	13.9
53924	7	Sololá	701	Sololá	3	Barraneche	10	Octubre	2023-08-10T00:00:00	2024-11-06T20:00:00	5	Humedad	84
53925	7	Sololá	701	Sololá	3	Barraneche	10	Octubre	2023-08-10T00:00:00	2024-11-06T20:00:00	6	Velocidad del viento	3.2
53926	7	Sololá	701	Sololá	3	Barraneche	10	Octubre	2023-08-10T00:00:00	2024-11-06T20:00:00	7	Dirección del viento	3.22
53927	7	Sololá	701	Sololá	3	Barraneche	10	Octubre	2023-08-10T00:00:00	2024-11-06T20:00:00	1	Precipitación	0
53928	7	Sololá	701	Sololá	3	Barraneche	10	Octubre	2023-08-10T00:00:00	2024-11-06T20:00:00	8	Radiación solar	0
53929	7	Sololá	701	Sololá	3	Barraneche	10	Octubre	2023-08-10T00:00:00	2024-11-06T21:00:00	2	Temperatura media	13.9
53930	7	Sololá	701	Sololá	3	Barraneche	10	Octubre	2023-08-10T00:00:00	2024-11-06T21:00:00	4	Temperatura máxima	14.2
53931	7	Sololá	701	Sololá	3	Barraneche	10	Octubre	2023-08-10T00:00:00	2024-11-06T21:00:00	3	Temperatura mínima	13.9
53932	7	Sololá	701	Sololá	3	Barraneche	10	Octubre	2023-08-10T00:00:00	2024-11-06T21:00:00	5	Humedad	84
53933	7	Sololá	701	Sololá	3	Barraneche	10	Octubre	2023-08-10T00:00:00	2024-11-06T21:00:00	6	Velocidad del viento	3.2
53934	7	Sololá	701	Sololá	3	Barraneche	10	Octubre	2023-08-10T00:00:00	2024-11-06T21:00:00	7	Dirección del viento	3.22
53935	7	Sololá	701	Sololá	3	Barraneche	10	Octubre	2023-08-10T00:00:00	2024-11-06T21:00:00	1	Precipitación	0
53936	7	Sololá	701	Sololá	3	Barraneche	10	Octubre	2023-08-10T00:00:00	2024-11-06T21:00:00	8	Radiación solar	0
53937	7	Sololá	701	Sololá	3	Barraneche	10	Octubre	2023-08-10T00:00:00	2024-11-06T22:00:00	2	Temperatura media	14.2
53938	7	Sololá	701	Sololá	3	Barraneche	10	Octubre	2023-08-10T00:00:00	2024-11-06T22:00:00	4	Temperatura máxima	14.2
53939	7	Sololá	701	Sololá	3	Barraneche	10	Octubre	2023-08-10T00:00:00	2024-11-06T22:00:00	3	Temperatura mínima	13.9
53940	7	Sololá	701	Sololá	3	Barraneche	10	Octubre	2023-08-10T00:00:00	2024-11-06T22:00:00	5	Humedad	84
53941	7	Sololá	701	Sololá	3	Barraneche	10	Octubre	2023-08-10T00:00:00	2024-11-06T22:00:00	6	Velocidad del viento	3.2
53942	7	Sololá	701	Sololá	3	Barraneche	10	Octubre	2023-08-10T00:00:00	2024-11-06T22:00:00	7	Dirección del viento	3.22
53943	7	Sololá	701	Sololá	3	Barraneche	10	Octubre	2023-08-10T00:00:00	2024-11-06T22:00:00	1	Precipitación	0
53944	7	Sololá	701	Sololá	3	Barraneche	10	Octubre	2023-08-10T00:00:00	2024-11-06T22:00:00	8	Radiación solar	0
53945	7	Sololá	701	Sololá	3	Barraneche	10	Octubre	2023-08-10T00:00:00	2024-11-06T23:00:00	2	Temperatura media	14.2
53946	7	Sololá	701	Sololá	3	Barraneche	10	Octubre	2023-08-10T00:00:00	2024-11-06T23:00:00	4	Temperatura máxima	14.3
53947	7	Sololá	701	Sololá	3	Barraneche	10	Octubre	2023-08-10T00:00:00	2024-11-06T23:00:00	3	Temperatura mínima	14.2
53948	7	Sololá	701	Sololá	3	Barraneche	10	Octubre	2023-08-10T00:00:00	2024-11-06T23:00:00	5	Humedad	84
53949	7	Sololá	701	Sololá	3	Barraneche	10	Octubre	2023-08-10T00:00:00	2024-11-06T23:00:00	6	Velocidad del viento	1.6
53950	7	Sololá	701	Sololá	3	Barraneche	10	Octubre	2023-08-10T00:00:00	2024-11-06T23:00:00	7	Dirección del viento	1.61
53951	7	Sololá	701	Sololá	3	Barraneche	10	Octubre	2023-08-10T00:00:00	2024-11-06T23:00:00	1	Precipitación	0.6
53952	7	Sololá	701	Sololá	3	Barraneche	10	Octubre	2023-08-10T00:00:00	2024-11-06T23:00:00	8	Radiación solar	0
53953	7	Sololá	701	Sololá	3	Barraneche	10	Octubre	2023-09-10T00:00:00	2024-11-06T00:00:00	2	Temperatura media	14.1
53954	7	Sololá	701	Sololá	3	Barraneche	10	Octubre	2023-09-10T00:00:00	2024-11-06T00:00:00	4	Temperatura máxima	14.2
53955	7	Sololá	701	Sololá	3	Barraneche	10	Octubre	2023-09-10T00:00:00	2024-11-06T00:00:00	3	Temperatura mínima	14.1
53956	7	Sololá	701	Sololá	3	Barraneche	10	Octubre	2023-09-10T00:00:00	2024-11-06T00:00:00	5	Humedad	85
53957	7	Sololá	701	Sololá	3	Barraneche	10	Octubre	2023-09-10T00:00:00	2024-11-06T00:00:00	6	Velocidad del viento	1.6
53958	7	Sololá	701	Sololá	3	Barraneche	10	Octubre	2023-09-10T00:00:00	2024-11-06T00:00:00	7	Dirección del viento	1.61
53959	7	Sololá	701	Sololá	3	Barraneche	10	Octubre	2023-09-10T00:00:00	2024-11-06T00:00:00	1	Precipitación	0.8
53960	7	Sololá	701	Sololá	3	Barraneche	10	Octubre	2023-09-10T00:00:00	2024-11-06T00:00:00	8	Radiación solar	0
53961	7	Sololá	701	Sololá	3	Barraneche	10	Octubre	2023-09-10T00:00:00	2024-11-06T01:00:00	2	Temperatura media	13.8
53962	7	Sololá	701	Sololá	3	Barraneche	10	Octubre	2023-09-10T00:00:00	2024-11-06T01:00:00	4	Temperatura máxima	14.2
53963	7	Sololá	701	Sololá	3	Barraneche	10	Octubre	2023-09-10T00:00:00	2024-11-06T01:00:00	3	Temperatura mínima	13.8
53964	7	Sololá	701	Sololá	3	Barraneche	10	Octubre	2023-09-10T00:00:00	2024-11-06T01:00:00	5	Humedad	85
53965	7	Sololá	701	Sololá	3	Barraneche	10	Octubre	2023-09-10T00:00:00	2024-11-06T01:00:00	6	Velocidad del viento	1.6
53966	7	Sololá	701	Sololá	3	Barraneche	10	Octubre	2023-09-10T00:00:00	2024-11-06T01:00:00	7	Dirección del viento	1.61
53967	7	Sololá	701	Sololá	3	Barraneche	10	Octubre	2023-09-10T00:00:00	2024-11-06T01:00:00	1	Precipitación	0.8
53968	7	Sololá	701	Sololá	3	Barraneche	10	Octubre	2023-09-10T00:00:00	2024-11-06T01:00:00	8	Radiación solar	0
53969	7	Sololá	701	Sololá	3	Barraneche	10	Octubre	2023-09-10T00:00:00	2024-11-06T02:00:00	2	Temperatura media	13.6
53970	7	Sololá	701	Sololá	3	Barraneche	10	Octubre	2023-09-10T00:00:00	2024-11-06T02:00:00	4	Temperatura máxima	13.8
53971	7	Sololá	701	Sololá	3	Barraneche	10	Octubre	2023-09-10T00:00:00	2024-11-06T02:00:00	3	Temperatura mínima	13.6
53972	7	Sololá	701	Sololá	3	Barraneche	10	Octubre	2023-09-10T00:00:00	2024-11-06T02:00:00	5	Humedad	84
53973	7	Sololá	701	Sololá	3	Barraneche	10	Octubre	2023-09-10T00:00:00	2024-11-06T02:00:00	6	Velocidad del viento	1.6
53974	7	Sololá	701	Sololá	3	Barraneche	10	Octubre	2023-09-10T00:00:00	2024-11-06T02:00:00	7	Dirección del viento	1.61
53975	7	Sololá	701	Sololá	3	Barraneche	10	Octubre	2023-09-10T00:00:00	2024-11-06T02:00:00	1	Precipitación	0.6
53976	7	Sololá	701	Sololá	3	Barraneche	10	Octubre	2023-09-10T00:00:00	2024-11-06T02:00:00	8	Radiación solar	0
53977	7	Sololá	701	Sololá	3	Barraneche	10	Octubre	2023-09-10T00:00:00	2024-11-06T03:00:00	2	Temperatura media	12.8
53978	7	Sololá	701	Sololá	3	Barraneche	10	Octubre	2023-09-10T00:00:00	2024-11-06T03:00:00	4	Temperatura máxima	13.7
53979	7	Sololá	701	Sololá	3	Barraneche	10	Octubre	2023-09-10T00:00:00	2024-11-06T03:00:00	3	Temperatura mínima	12.8
53980	7	Sololá	701	Sololá	3	Barraneche	10	Octubre	2023-09-10T00:00:00	2024-11-06T03:00:00	5	Humedad	83
53981	7	Sololá	701	Sololá	3	Barraneche	10	Octubre	2023-09-10T00:00:00	2024-11-06T03:00:00	6	Velocidad del viento	4.8
53982	7	Sololá	701	Sololá	3	Barraneche	10	Octubre	2023-09-10T00:00:00	2024-11-06T03:00:00	7	Dirección del viento	4.83
53983	7	Sololá	701	Sololá	3	Barraneche	10	Octubre	2023-09-10T00:00:00	2024-11-06T03:00:00	1	Precipitación	0
53984	7	Sololá	701	Sololá	3	Barraneche	10	Octubre	2023-09-10T00:00:00	2024-11-06T03:00:00	8	Radiación solar	0
53985	7	Sololá	701	Sololá	3	Barraneche	10	Octubre	2023-09-10T00:00:00	2024-11-06T04:00:00	2	Temperatura media	12.1
53986	7	Sololá	701	Sololá	3	Barraneche	10	Octubre	2023-09-10T00:00:00	2024-11-06T04:00:00	4	Temperatura máxima	12.8
53987	7	Sololá	701	Sololá	3	Barraneche	10	Octubre	2023-09-10T00:00:00	2024-11-06T04:00:00	3	Temperatura mínima	11.9
53988	7	Sololá	701	Sololá	3	Barraneche	10	Octubre	2023-09-10T00:00:00	2024-11-06T04:00:00	5	Humedad	81
53989	7	Sololá	701	Sololá	3	Barraneche	10	Octubre	2023-09-10T00:00:00	2024-11-06T04:00:00	6	Velocidad del viento	4.8
53990	7	Sololá	701	Sololá	3	Barraneche	10	Octubre	2023-09-10T00:00:00	2024-11-06T04:00:00	7	Dirección del viento	4.83
53991	7	Sololá	701	Sololá	3	Barraneche	10	Octubre	2023-09-10T00:00:00	2024-11-06T04:00:00	1	Precipitación	0
53992	7	Sololá	701	Sololá	3	Barraneche	10	Octubre	2023-09-10T00:00:00	2024-11-06T04:00:00	8	Radiación solar	0
53993	7	Sololá	701	Sololá	3	Barraneche	10	Octubre	2023-09-10T00:00:00	2024-11-06T05:00:00	2	Temperatura media	11.7
53994	7	Sololá	701	Sololá	3	Barraneche	10	Octubre	2023-09-10T00:00:00	2024-11-06T05:00:00	4	Temperatura máxima	12.1
53995	7	Sololá	701	Sololá	3	Barraneche	10	Octubre	2023-09-10T00:00:00	2024-11-06T05:00:00	3	Temperatura mínima	11.7
53996	7	Sololá	701	Sololá	3	Barraneche	10	Octubre	2023-09-10T00:00:00	2024-11-06T05:00:00	5	Humedad	82
53997	7	Sololá	701	Sololá	3	Barraneche	10	Octubre	2023-09-10T00:00:00	2024-11-06T05:00:00	6	Velocidad del viento	4.8
53998	7	Sololá	701	Sololá	3	Barraneche	10	Octubre	2023-09-10T00:00:00	2024-11-06T05:00:00	7	Dirección del viento	4.83
53999	7	Sololá	701	Sololá	3	Barraneche	10	Octubre	2023-09-10T00:00:00	2024-11-06T05:00:00	1	Precipitación	0
54000	7	Sololá	701	Sololá	3	Barraneche	10	Octubre	2023-09-10T00:00:00	2024-11-06T05:00:00	8	Radiación solar	0
54001	7	Sololá	701	Sololá	3	Barraneche	10	Octubre	2023-09-10T00:00:00	2024-11-06T06:00:00	2	Temperatura media	12.6
54002	7	Sololá	701	Sololá	3	Barraneche	10	Octubre	2023-09-10T00:00:00	2024-11-06T06:00:00	4	Temperatura máxima	12.7
54003	7	Sololá	701	Sololá	3	Barraneche	10	Octubre	2023-09-10T00:00:00	2024-11-06T06:00:00	3	Temperatura mínima	11.7
54004	7	Sololá	701	Sololá	3	Barraneche	10	Octubre	2023-09-10T00:00:00	2024-11-06T06:00:00	5	Humedad	84
54005	7	Sololá	701	Sololá	3	Barraneche	10	Octubre	2023-09-10T00:00:00	2024-11-06T06:00:00	6	Velocidad del viento	3.2
54006	7	Sololá	701	Sololá	3	Barraneche	10	Octubre	2023-09-10T00:00:00	2024-11-06T06:00:00	7	Dirección del viento	3.22
54007	7	Sololá	701	Sololá	3	Barraneche	10	Octubre	2023-09-10T00:00:00	2024-11-06T06:00:00	1	Precipitación	0
54008	7	Sololá	701	Sololá	3	Barraneche	10	Octubre	2023-09-10T00:00:00	2024-11-06T06:00:00	8	Radiación solar	0
54009	7	Sololá	701	Sololá	3	Barraneche	10	Octubre	2023-09-10T00:00:00	2024-11-06T07:00:00	2	Temperatura media	13.3
54010	7	Sololá	701	Sololá	3	Barraneche	10	Octubre	2023-09-10T00:00:00	2024-11-06T07:00:00	4	Temperatura máxima	13.3
54011	7	Sololá	701	Sololá	3	Barraneche	10	Octubre	2023-09-10T00:00:00	2024-11-06T07:00:00	3	Temperatura mínima	12.6
54012	7	Sololá	701	Sololá	3	Barraneche	10	Octubre	2023-09-10T00:00:00	2024-11-06T07:00:00	5	Humedad	84
54013	7	Sololá	701	Sololá	3	Barraneche	10	Octubre	2023-09-10T00:00:00	2024-11-06T07:00:00	6	Velocidad del viento	3.2
54014	7	Sololá	701	Sololá	3	Barraneche	10	Octubre	2023-09-10T00:00:00	2024-11-06T07:00:00	7	Dirección del viento	3.22
54015	7	Sololá	701	Sololá	3	Barraneche	10	Octubre	2023-09-10T00:00:00	2024-11-06T07:00:00	1	Precipitación	0
54016	7	Sololá	701	Sololá	3	Barraneche	10	Octubre	2023-09-10T00:00:00	2024-11-06T07:00:00	8	Radiación solar	11
54017	7	Sololá	701	Sololá	3	Barraneche	10	Octubre	2023-09-10T00:00:00	2024-11-06T08:00:00	2	Temperatura media	14.3
54018	7	Sololá	701	Sololá	3	Barraneche	10	Octubre	2023-09-10T00:00:00	2024-11-06T08:00:00	4	Temperatura máxima	14.3
54019	7	Sololá	701	Sololá	3	Barraneche	10	Octubre	2023-09-10T00:00:00	2024-11-06T08:00:00	3	Temperatura mínima	13.3
54020	7	Sololá	701	Sololá	3	Barraneche	10	Octubre	2023-09-10T00:00:00	2024-11-06T08:00:00	5	Humedad	83
54021	7	Sololá	701	Sololá	3	Barraneche	10	Octubre	2023-09-10T00:00:00	2024-11-06T08:00:00	6	Velocidad del viento	1.6
54022	7	Sololá	701	Sololá	3	Barraneche	10	Octubre	2023-09-10T00:00:00	2024-11-06T08:00:00	7	Dirección del viento	1.61
54023	7	Sololá	701	Sololá	3	Barraneche	10	Octubre	2023-09-10T00:00:00	2024-11-06T08:00:00	1	Precipitación	0
54024	7	Sololá	701	Sololá	3	Barraneche	10	Octubre	2023-09-10T00:00:00	2024-11-06T08:00:00	8	Radiación solar	67
54025	7	Sololá	701	Sololá	3	Barraneche	10	Octubre	2023-09-10T00:00:00	2024-11-06T09:00:00	2	Temperatura media	16.2
54026	7	Sololá	701	Sololá	3	Barraneche	10	Octubre	2023-09-10T00:00:00	2024-11-06T09:00:00	4	Temperatura máxima	16.2
54027	7	Sololá	701	Sololá	3	Barraneche	10	Octubre	2023-09-10T00:00:00	2024-11-06T09:00:00	3	Temperatura mínima	14.2
54028	7	Sololá	701	Sololá	3	Barraneche	10	Octubre	2023-09-10T00:00:00	2024-11-06T09:00:00	5	Humedad	78
54029	7	Sololá	701	Sololá	3	Barraneche	10	Octubre	2023-09-10T00:00:00	2024-11-06T09:00:00	6	Velocidad del viento	3.2
54030	7	Sololá	701	Sololá	3	Barraneche	10	Octubre	2023-09-10T00:00:00	2024-11-06T09:00:00	7	Dirección del viento	3.22
54031	7	Sololá	701	Sololá	3	Barraneche	10	Octubre	2023-09-10T00:00:00	2024-11-06T09:00:00	1	Precipitación	0
54032	7	Sololá	701	Sololá	3	Barraneche	10	Octubre	2023-09-10T00:00:00	2024-11-06T09:00:00	8	Radiación solar	338
54033	7	Sololá	701	Sololá	3	Barraneche	10	Octubre	2023-09-10T00:00:00	2024-11-06T10:00:00	2	Temperatura media	17.7
54034	7	Sololá	701	Sololá	3	Barraneche	10	Octubre	2023-09-10T00:00:00	2024-11-06T10:00:00	4	Temperatura máxima	17.7
54035	7	Sololá	701	Sololá	3	Barraneche	10	Octubre	2023-09-10T00:00:00	2024-11-06T10:00:00	3	Temperatura mínima	16.2
54036	7	Sololá	701	Sololá	3	Barraneche	10	Octubre	2023-09-10T00:00:00	2024-11-06T10:00:00	5	Humedad	76
54037	7	Sololá	701	Sololá	3	Barraneche	10	Octubre	2023-09-10T00:00:00	2024-11-06T10:00:00	6	Velocidad del viento	3.2
54038	7	Sololá	701	Sololá	3	Barraneche	10	Octubre	2023-09-10T00:00:00	2024-11-06T10:00:00	7	Dirección del viento	3.22
54039	7	Sololá	701	Sololá	3	Barraneche	10	Octubre	2023-09-10T00:00:00	2024-11-06T10:00:00	1	Precipitación	0
54040	7	Sololá	701	Sololá	3	Barraneche	10	Octubre	2023-09-10T00:00:00	2024-11-06T10:00:00	8	Radiación solar	458
54041	7	Sololá	701	Sololá	3	Barraneche	10	Octubre	2023-09-10T00:00:00	2024-11-06T11:00:00	2	Temperatura media	20.1
54042	7	Sololá	701	Sololá	3	Barraneche	10	Octubre	2023-09-10T00:00:00	2024-11-06T11:00:00	4	Temperatura máxima	20.1
54043	7	Sololá	701	Sololá	3	Barraneche	10	Octubre	2023-09-10T00:00:00	2024-11-06T11:00:00	3	Temperatura mínima	17.7
54044	7	Sololá	701	Sololá	3	Barraneche	10	Octubre	2023-09-10T00:00:00	2024-11-06T11:00:00	5	Humedad	71
54045	7	Sololá	701	Sololá	3	Barraneche	10	Octubre	2023-09-10T00:00:00	2024-11-06T11:00:00	6	Velocidad del viento	4.8
54046	7	Sololá	701	Sololá	3	Barraneche	10	Octubre	2023-09-10T00:00:00	2024-11-06T11:00:00	7	Dirección del viento	4.83
54047	7	Sololá	701	Sololá	3	Barraneche	10	Octubre	2023-09-10T00:00:00	2024-11-06T11:00:00	1	Precipitación	0
54048	7	Sololá	701	Sololá	3	Barraneche	10	Octubre	2023-09-10T00:00:00	2024-11-06T11:00:00	8	Radiación solar	613
54049	7	Sololá	701	Sololá	3	Barraneche	10	Octubre	2023-09-10T00:00:00	2024-11-06T12:00:00	2	Temperatura media	20.8
54050	7	Sololá	701	Sololá	3	Barraneche	10	Octubre	2023-09-10T00:00:00	2024-11-06T12:00:00	4	Temperatura máxima	21.4
54051	7	Sololá	701	Sololá	3	Barraneche	10	Octubre	2023-09-10T00:00:00	2024-11-06T12:00:00	3	Temperatura mínima	20.1
54052	7	Sololá	701	Sololá	3	Barraneche	10	Octubre	2023-09-10T00:00:00	2024-11-06T12:00:00	5	Humedad	60
54053	7	Sololá	701	Sololá	3	Barraneche	10	Octubre	2023-09-10T00:00:00	2024-11-06T12:00:00	6	Velocidad del viento	9.7
54054	7	Sololá	701	Sololá	3	Barraneche	10	Octubre	2023-09-10T00:00:00	2024-11-06T12:00:00	7	Dirección del viento	9.66
54055	7	Sololá	701	Sololá	3	Barraneche	10	Octubre	2023-09-10T00:00:00	2024-11-06T12:00:00	1	Precipitación	0.2
54056	7	Sololá	701	Sololá	3	Barraneche	10	Octubre	2023-09-10T00:00:00	2024-11-06T12:00:00	8	Radiación solar	915
54057	7	Sololá	701	Sololá	3	Barraneche	10	Octubre	2023-09-10T00:00:00	2024-11-06T13:00:00	2	Temperatura media	19.3
54058	7	Sololá	701	Sololá	3	Barraneche	10	Octubre	2023-09-10T00:00:00	2024-11-06T13:00:00	4	Temperatura máxima	20.9
54059	7	Sololá	701	Sololá	3	Barraneche	10	Octubre	2023-09-10T00:00:00	2024-11-06T13:00:00	3	Temperatura mínima	19.3
54060	7	Sololá	701	Sololá	3	Barraneche	10	Octubre	2023-09-10T00:00:00	2024-11-06T13:00:00	5	Humedad	66
54061	7	Sololá	701	Sololá	3	Barraneche	10	Octubre	2023-09-10T00:00:00	2024-11-06T13:00:00	6	Velocidad del viento	14.5
54062	7	Sololá	701	Sololá	3	Barraneche	10	Octubre	2023-09-10T00:00:00	2024-11-06T13:00:00	7	Dirección del viento	14.48
54063	7	Sololá	701	Sololá	3	Barraneche	10	Octubre	2023-09-10T00:00:00	2024-11-06T13:00:00	1	Precipitación	0
54064	7	Sololá	701	Sololá	3	Barraneche	10	Octubre	2023-09-10T00:00:00	2024-11-06T13:00:00	8	Radiación solar	1091
54065	7	Sololá	701	Sololá	3	Barraneche	10	Octubre	2023-09-10T00:00:00	2024-11-06T14:00:00	2	Temperatura media	16.1
54066	7	Sololá	701	Sololá	3	Barraneche	10	Octubre	2023-09-10T00:00:00	2024-11-06T14:00:00	4	Temperatura máxima	19.5
54067	7	Sololá	701	Sololá	3	Barraneche	10	Octubre	2023-09-10T00:00:00	2024-11-06T14:00:00	3	Temperatura mínima	16.1
54068	7	Sololá	701	Sololá	3	Barraneche	10	Octubre	2023-09-10T00:00:00	2024-11-06T14:00:00	5	Humedad	81
54069	7	Sololá	701	Sololá	3	Barraneche	10	Octubre	2023-09-10T00:00:00	2024-11-06T14:00:00	6	Velocidad del viento	11.3
54070	7	Sololá	701	Sololá	3	Barraneche	10	Octubre	2023-09-10T00:00:00	2024-11-06T14:00:00	7	Dirección del viento	11.27
54071	7	Sololá	701	Sololá	3	Barraneche	10	Octubre	2023-09-10T00:00:00	2024-11-06T14:00:00	1	Precipitación	2.6
54072	7	Sololá	701	Sololá	3	Barraneche	10	Octubre	2023-09-10T00:00:00	2024-11-06T14:00:00	8	Radiación solar	269
54073	7	Sololá	701	Sololá	3	Barraneche	10	Octubre	2023-09-10T00:00:00	2024-11-06T15:00:00	2	Temperatura media	15.2
54074	7	Sololá	701	Sololá	3	Barraneche	10	Octubre	2023-09-10T00:00:00	2024-11-06T15:00:00	4	Temperatura máxima	16.1
54075	7	Sololá	701	Sololá	3	Barraneche	10	Octubre	2023-09-10T00:00:00	2024-11-06T15:00:00	3	Temperatura mínima	15.2
54076	7	Sololá	701	Sololá	3	Barraneche	10	Octubre	2023-09-10T00:00:00	2024-11-06T15:00:00	5	Humedad	79
54077	7	Sololá	701	Sololá	3	Barraneche	10	Octubre	2023-09-10T00:00:00	2024-11-06T15:00:00	6	Velocidad del viento	3.2
54078	7	Sololá	701	Sololá	3	Barraneche	10	Octubre	2023-09-10T00:00:00	2024-11-06T15:00:00	7	Dirección del viento	3.22
54079	7	Sololá	701	Sololá	3	Barraneche	10	Octubre	2023-09-10T00:00:00	2024-11-06T15:00:00	1	Precipitación	3
54080	7	Sololá	701	Sololá	3	Barraneche	10	Octubre	2023-09-10T00:00:00	2024-11-06T15:00:00	8	Radiación solar	26
54081	7	Sololá	701	Sololá	3	Barraneche	10	Octubre	2023-09-10T00:00:00	2024-11-06T16:00:00	2	Temperatura media	15.3
54082	7	Sololá	701	Sololá	3	Barraneche	10	Octubre	2023-09-10T00:00:00	2024-11-06T16:00:00	4	Temperatura máxima	15.4
54083	7	Sololá	701	Sololá	3	Barraneche	10	Octubre	2023-09-10T00:00:00	2024-11-06T16:00:00	3	Temperatura mínima	15.2
54084	7	Sololá	701	Sololá	3	Barraneche	10	Octubre	2023-09-10T00:00:00	2024-11-06T16:00:00	5	Humedad	83
54085	7	Sololá	701	Sololá	3	Barraneche	10	Octubre	2023-09-10T00:00:00	2024-11-06T16:00:00	6	Velocidad del viento	3.2
54086	7	Sololá	701	Sololá	3	Barraneche	10	Octubre	2023-09-10T00:00:00	2024-11-06T16:00:00	7	Dirección del viento	3.22
54087	7	Sololá	701	Sololá	3	Barraneche	10	Octubre	2023-09-10T00:00:00	2024-11-06T16:00:00	1	Precipitación	0.2
54088	7	Sololá	701	Sololá	3	Barraneche	10	Octubre	2023-09-10T00:00:00	2024-11-06T16:00:00	8	Radiación solar	49
54089	7	Sololá	701	Sololá	3	Barraneche	10	Octubre	2023-09-10T00:00:00	2024-11-06T17:00:00	2	Temperatura media	14.8
54090	7	Sololá	701	Sololá	3	Barraneche	10	Octubre	2023-09-10T00:00:00	2024-11-06T17:00:00	4	Temperatura máxima	15.3
54091	7	Sololá	701	Sololá	3	Barraneche	10	Octubre	2023-09-10T00:00:00	2024-11-06T17:00:00	3	Temperatura mínima	14.8
54092	7	Sololá	701	Sololá	3	Barraneche	10	Octubre	2023-09-10T00:00:00	2024-11-06T17:00:00	5	Humedad	85
54093	7	Sololá	701	Sololá	3	Barraneche	10	Octubre	2023-09-10T00:00:00	2024-11-06T17:00:00	6	Velocidad del viento	3.2
54094	7	Sololá	701	Sololá	3	Barraneche	10	Octubre	2023-09-10T00:00:00	2024-11-06T17:00:00	7	Dirección del viento	3.22
54095	7	Sololá	701	Sololá	3	Barraneche	10	Octubre	2023-09-10T00:00:00	2024-11-06T17:00:00	1	Precipitación	3.8
54096	7	Sololá	701	Sololá	3	Barraneche	10	Octubre	2023-09-10T00:00:00	2024-11-06T17:00:00	8	Radiación solar	39
54097	7	Sololá	701	Sololá	3	Barraneche	10	Octubre	2023-09-10T00:00:00	2024-11-06T18:00:00	2	Temperatura media	14.8
54098	7	Sololá	701	Sololá	3	Barraneche	10	Octubre	2023-09-10T00:00:00	2024-11-06T18:00:00	4	Temperatura máxima	14.9
54099	7	Sololá	701	Sololá	3	Barraneche	10	Octubre	2023-09-10T00:00:00	2024-11-06T18:00:00	3	Temperatura mínima	14.6
54100	7	Sololá	701	Sololá	3	Barraneche	10	Octubre	2023-09-10T00:00:00	2024-11-06T18:00:00	5	Humedad	85
54101	7	Sololá	701	Sololá	3	Barraneche	10	Octubre	2023-09-10T00:00:00	2024-11-06T18:00:00	6	Velocidad del viento	1.6
54102	7	Sololá	701	Sololá	3	Barraneche	10	Octubre	2023-09-10T00:00:00	2024-11-06T18:00:00	7	Dirección del viento	1.61
54103	7	Sololá	701	Sololá	3	Barraneche	10	Octubre	2023-09-10T00:00:00	2024-11-06T18:00:00	1	Precipitación	0
54104	7	Sololá	701	Sololá	3	Barraneche	10	Octubre	2023-09-10T00:00:00	2024-11-06T18:00:00	8	Radiación solar	9
54105	7	Sololá	701	Sololá	3	Barraneche	10	Octubre	2023-09-10T00:00:00	2024-11-06T19:00:00	2	Temperatura media	14.7
54106	7	Sololá	701	Sololá	3	Barraneche	10	Octubre	2023-09-10T00:00:00	2024-11-06T19:00:00	4	Temperatura máxima	14.8
54107	7	Sololá	701	Sololá	3	Barraneche	10	Octubre	2023-09-10T00:00:00	2024-11-06T19:00:00	3	Temperatura mínima	14.4
54108	7	Sololá	701	Sololá	3	Barraneche	10	Octubre	2023-09-10T00:00:00	2024-11-06T19:00:00	5	Humedad	85
54109	7	Sololá	701	Sololá	3	Barraneche	10	Octubre	2023-09-10T00:00:00	2024-11-06T19:00:00	6	Velocidad del viento	1.6
54110	7	Sololá	701	Sololá	3	Barraneche	10	Octubre	2023-09-10T00:00:00	2024-11-06T19:00:00	7	Dirección del viento	1.61
54111	7	Sololá	701	Sololá	3	Barraneche	10	Octubre	2023-09-10T00:00:00	2024-11-06T19:00:00	1	Precipitación	0
54112	7	Sololá	701	Sololá	3	Barraneche	10	Octubre	2023-09-10T00:00:00	2024-11-06T19:00:00	8	Radiación solar	0
54113	7	Sololá	701	Sololá	3	Barraneche	10	Octubre	2023-09-10T00:00:00	2024-11-06T20:00:00	2	Temperatura media	14.5
54114	7	Sololá	701	Sololá	3	Barraneche	10	Octubre	2023-09-10T00:00:00	2024-11-06T20:00:00	4	Temperatura máxima	14.8
54115	7	Sololá	701	Sololá	3	Barraneche	10	Octubre	2023-09-10T00:00:00	2024-11-06T20:00:00	3	Temperatura mínima	14.5
54116	7	Sololá	701	Sololá	3	Barraneche	10	Octubre	2023-09-10T00:00:00	2024-11-06T20:00:00	5	Humedad	85
54117	7	Sololá	701	Sololá	3	Barraneche	10	Octubre	2023-09-10T00:00:00	2024-11-06T20:00:00	6	Velocidad del viento	1.6
54118	7	Sololá	701	Sololá	3	Barraneche	10	Octubre	2023-09-10T00:00:00	2024-11-06T20:00:00	7	Dirección del viento	1.61
54119	7	Sololá	701	Sololá	3	Barraneche	10	Octubre	2023-09-10T00:00:00	2024-11-06T20:00:00	1	Precipitación	0
54120	7	Sololá	701	Sololá	3	Barraneche	10	Octubre	2023-09-10T00:00:00	2024-11-06T20:00:00	8	Radiación solar	0
54121	7	Sololá	701	Sololá	3	Barraneche	10	Octubre	2023-09-10T00:00:00	2024-11-06T21:00:00	2	Temperatura media	14.1
54122	7	Sololá	701	Sololá	3	Barraneche	10	Octubre	2023-09-10T00:00:00	2024-11-06T21:00:00	4	Temperatura máxima	14.5
54123	7	Sololá	701	Sololá	3	Barraneche	10	Octubre	2023-09-10T00:00:00	2024-11-06T21:00:00	3	Temperatura mínima	14.1
54124	7	Sololá	701	Sololá	3	Barraneche	10	Octubre	2023-09-10T00:00:00	2024-11-06T21:00:00	5	Humedad	84
54125	7	Sololá	701	Sololá	3	Barraneche	10	Octubre	2023-09-10T00:00:00	2024-11-06T21:00:00	6	Velocidad del viento	3.2
54126	7	Sololá	701	Sololá	3	Barraneche	10	Octubre	2023-09-10T00:00:00	2024-11-06T21:00:00	7	Dirección del viento	3.22
54127	7	Sololá	701	Sololá	3	Barraneche	10	Octubre	2023-09-10T00:00:00	2024-11-06T21:00:00	1	Precipitación	0
54128	7	Sololá	701	Sololá	3	Barraneche	10	Octubre	2023-09-10T00:00:00	2024-11-06T21:00:00	8	Radiación solar	0
54129	7	Sololá	701	Sololá	3	Barraneche	10	Octubre	2023-09-10T00:00:00	2024-11-06T22:00:00	2	Temperatura media	13.4
54130	7	Sololá	701	Sololá	3	Barraneche	10	Octubre	2023-09-10T00:00:00	2024-11-06T22:00:00	4	Temperatura máxima	14.2
54131	7	Sololá	701	Sololá	3	Barraneche	10	Octubre	2023-09-10T00:00:00	2024-11-06T22:00:00	3	Temperatura mínima	13.4
54132	7	Sololá	701	Sololá	3	Barraneche	10	Octubre	2023-09-10T00:00:00	2024-11-06T22:00:00	5	Humedad	84
54133	7	Sololá	701	Sololá	3	Barraneche	10	Octubre	2023-09-10T00:00:00	2024-11-06T22:00:00	6	Velocidad del viento	3.2
54134	7	Sololá	701	Sololá	3	Barraneche	10	Octubre	2023-09-10T00:00:00	2024-11-06T22:00:00	7	Dirección del viento	3.22
54135	7	Sololá	701	Sololá	3	Barraneche	10	Octubre	2023-09-10T00:00:00	2024-11-06T22:00:00	1	Precipitación	0
54136	7	Sololá	701	Sololá	3	Barraneche	10	Octubre	2023-09-10T00:00:00	2024-11-06T22:00:00	8	Radiación solar	0
54137	7	Sololá	701	Sololá	3	Barraneche	10	Octubre	2023-09-10T00:00:00	2024-11-06T23:00:00	2	Temperatura media	14
54138	7	Sololá	701	Sololá	3	Barraneche	10	Octubre	2023-09-10T00:00:00	2024-11-06T23:00:00	4	Temperatura máxima	14
54139	7	Sololá	701	Sololá	3	Barraneche	10	Octubre	2023-09-10T00:00:00	2024-11-06T23:00:00	3	Temperatura mínima	13.4
54140	7	Sololá	701	Sololá	3	Barraneche	10	Octubre	2023-09-10T00:00:00	2024-11-06T23:00:00	5	Humedad	85
54141	7	Sololá	701	Sololá	3	Barraneche	10	Octubre	2023-09-10T00:00:00	2024-11-06T23:00:00	6	Velocidad del viento	1.6
54142	7	Sololá	701	Sololá	3	Barraneche	10	Octubre	2023-09-10T00:00:00	2024-11-06T23:00:00	7	Dirección del viento	1.61
54143	7	Sololá	701	Sololá	3	Barraneche	10	Octubre	2023-09-10T00:00:00	2024-11-06T23:00:00	1	Precipitación	0
54144	7	Sololá	701	Sololá	3	Barraneche	10	Octubre	2023-09-10T00:00:00	2024-11-06T23:00:00	8	Radiación solar	0
54145	7	Sololá	701	Sololá	3	Barraneche	10	Octubre	2023-10-10T00:00:00	2024-11-06T00:00:00	2	Temperatura media	13.8
54146	7	Sololá	701	Sololá	3	Barraneche	10	Octubre	2023-10-10T00:00:00	2024-11-06T00:00:00	4	Temperatura máxima	14
54147	7	Sololá	701	Sololá	3	Barraneche	10	Octubre	2023-10-10T00:00:00	2024-11-06T00:00:00	3	Temperatura mínima	13.7
54148	7	Sololá	701	Sololá	3	Barraneche	10	Octubre	2023-10-10T00:00:00	2024-11-06T00:00:00	5	Humedad	85
54149	7	Sololá	701	Sololá	3	Barraneche	10	Octubre	2023-10-10T00:00:00	2024-11-06T00:00:00	6	Velocidad del viento	1.6
54150	7	Sololá	701	Sololá	3	Barraneche	10	Octubre	2023-10-10T00:00:00	2024-11-06T00:00:00	7	Dirección del viento	1.61
54151	7	Sololá	701	Sololá	3	Barraneche	10	Octubre	2023-10-10T00:00:00	2024-11-06T00:00:00	1	Precipitación	0
54152	7	Sololá	701	Sololá	3	Barraneche	10	Octubre	2023-10-10T00:00:00	2024-11-06T00:00:00	8	Radiación solar	0
54153	7	Sololá	701	Sololá	3	Barraneche	10	Octubre	2023-10-10T00:00:00	2024-11-06T01:00:00	2	Temperatura media	13.8
54154	7	Sololá	701	Sololá	3	Barraneche	10	Octubre	2023-10-10T00:00:00	2024-11-06T01:00:00	4	Temperatura máxima	13.8
54155	7	Sololá	701	Sololá	3	Barraneche	10	Octubre	2023-10-10T00:00:00	2024-11-06T01:00:00	3	Temperatura mínima	13.8
54156	7	Sololá	701	Sololá	3	Barraneche	10	Octubre	2023-10-10T00:00:00	2024-11-06T01:00:00	5	Humedad	85
54157	7	Sololá	701	Sololá	3	Barraneche	10	Octubre	2023-10-10T00:00:00	2024-11-06T01:00:00	6	Velocidad del viento	1.6
54158	7	Sololá	701	Sololá	3	Barraneche	10	Octubre	2023-10-10T00:00:00	2024-11-06T01:00:00	7	Dirección del viento	1.61
54159	7	Sololá	701	Sololá	3	Barraneche	10	Octubre	2023-10-10T00:00:00	2024-11-06T01:00:00	1	Precipitación	0
54160	7	Sololá	701	Sololá	3	Barraneche	10	Octubre	2023-10-10T00:00:00	2024-11-06T01:00:00	8	Radiación solar	0
54161	7	Sololá	701	Sololá	3	Barraneche	10	Octubre	2023-10-10T00:00:00	2024-11-06T02:00:00	2	Temperatura media	13
54162	7	Sololá	701	Sololá	3	Barraneche	10	Octubre	2023-10-10T00:00:00	2024-11-06T02:00:00	4	Temperatura máxima	13.8
54163	7	Sololá	701	Sololá	3	Barraneche	10	Octubre	2023-10-10T00:00:00	2024-11-06T02:00:00	3	Temperatura mínima	13
54164	7	Sololá	701	Sololá	3	Barraneche	10	Octubre	2023-10-10T00:00:00	2024-11-06T02:00:00	5	Humedad	85
54165	7	Sololá	701	Sololá	3	Barraneche	10	Octubre	2023-10-10T00:00:00	2024-11-06T02:00:00	6	Velocidad del viento	1.6
54166	7	Sololá	701	Sololá	3	Barraneche	10	Octubre	2023-10-10T00:00:00	2024-11-06T02:00:00	7	Dirección del viento	1.61
54167	7	Sololá	701	Sololá	3	Barraneche	10	Octubre	2023-10-10T00:00:00	2024-11-06T02:00:00	1	Precipitación	0
54168	7	Sololá	701	Sololá	3	Barraneche	10	Octubre	2023-10-10T00:00:00	2024-11-06T02:00:00	8	Radiación solar	0
54169	7	Sololá	701	Sololá	3	Barraneche	10	Octubre	2023-10-10T00:00:00	2024-11-06T03:00:00	2	Temperatura media	12.4
54170	7	Sololá	701	Sololá	3	Barraneche	10	Octubre	2023-10-10T00:00:00	2024-11-06T03:00:00	4	Temperatura máxima	13.1
54171	7	Sololá	701	Sololá	3	Barraneche	10	Octubre	2023-10-10T00:00:00	2024-11-06T03:00:00	3	Temperatura mínima	12.4
54172	7	Sololá	701	Sololá	3	Barraneche	10	Octubre	2023-10-10T00:00:00	2024-11-06T03:00:00	5	Humedad	83
54173	7	Sololá	701	Sololá	3	Barraneche	10	Octubre	2023-10-10T00:00:00	2024-11-06T03:00:00	6	Velocidad del viento	4.8
54174	7	Sololá	701	Sololá	3	Barraneche	10	Octubre	2023-10-10T00:00:00	2024-11-06T03:00:00	7	Dirección del viento	4.83
54175	7	Sololá	701	Sololá	3	Barraneche	10	Octubre	2023-10-10T00:00:00	2024-11-06T03:00:00	1	Precipitación	0.2
54176	7	Sololá	701	Sololá	3	Barraneche	10	Octubre	2023-10-10T00:00:00	2024-11-06T03:00:00	8	Radiación solar	0
54177	7	Sololá	701	Sololá	3	Barraneche	10	Octubre	2023-10-10T00:00:00	2024-11-06T04:00:00	2	Temperatura media	12.2
54178	7	Sololá	701	Sololá	3	Barraneche	10	Octubre	2023-10-10T00:00:00	2024-11-06T04:00:00	4	Temperatura máxima	12.5
54179	7	Sololá	701	Sololá	3	Barraneche	10	Octubre	2023-10-10T00:00:00	2024-11-06T04:00:00	3	Temperatura mínima	12.2
54180	7	Sololá	701	Sololá	3	Barraneche	10	Octubre	2023-10-10T00:00:00	2024-11-06T04:00:00	5	Humedad	83
54181	7	Sololá	701	Sololá	3	Barraneche	10	Octubre	2023-10-10T00:00:00	2024-11-06T04:00:00	6	Velocidad del viento	4.8
54182	7	Sololá	701	Sololá	3	Barraneche	10	Octubre	2023-10-10T00:00:00	2024-11-06T04:00:00	7	Dirección del viento	4.83
54183	7	Sololá	701	Sololá	3	Barraneche	10	Octubre	2023-10-10T00:00:00	2024-11-06T04:00:00	1	Precipitación	0
54184	7	Sololá	701	Sololá	3	Barraneche	10	Octubre	2023-10-10T00:00:00	2024-11-06T04:00:00	8	Radiación solar	0
54185	7	Sololá	701	Sololá	3	Barraneche	10	Octubre	2023-10-10T00:00:00	2024-11-06T05:00:00	2	Temperatura media	12.4
54186	7	Sololá	701	Sololá	3	Barraneche	10	Octubre	2023-10-10T00:00:00	2024-11-06T05:00:00	4	Temperatura máxima	12.4
54187	7	Sololá	701	Sololá	3	Barraneche	10	Octubre	2023-10-10T00:00:00	2024-11-06T05:00:00	3	Temperatura mínima	12.2
54188	7	Sololá	701	Sololá	3	Barraneche	10	Octubre	2023-10-10T00:00:00	2024-11-06T05:00:00	5	Humedad	84
54189	7	Sololá	701	Sololá	3	Barraneche	10	Octubre	2023-10-10T00:00:00	2024-11-06T05:00:00	6	Velocidad del viento	4.8
54190	7	Sololá	701	Sololá	3	Barraneche	10	Octubre	2023-10-10T00:00:00	2024-11-06T05:00:00	7	Dirección del viento	4.83
54191	7	Sololá	701	Sololá	3	Barraneche	10	Octubre	2023-10-10T00:00:00	2024-11-06T05:00:00	1	Precipitación	0
54192	7	Sololá	701	Sololá	3	Barraneche	10	Octubre	2023-10-10T00:00:00	2024-11-06T05:00:00	8	Radiación solar	0
54193	7	Sololá	701	Sololá	3	Barraneche	10	Octubre	2023-10-10T00:00:00	2024-11-06T06:00:00	2	Temperatura media	12.1
54194	7	Sololá	701	Sololá	3	Barraneche	10	Octubre	2023-10-10T00:00:00	2024-11-06T06:00:00	4	Temperatura máxima	12.5
54195	7	Sololá	701	Sololá	3	Barraneche	10	Octubre	2023-10-10T00:00:00	2024-11-06T06:00:00	3	Temperatura mínima	12
54196	7	Sololá	701	Sololá	3	Barraneche	10	Octubre	2023-10-10T00:00:00	2024-11-06T06:00:00	5	Humedad	84
54197	7	Sololá	701	Sololá	3	Barraneche	10	Octubre	2023-10-10T00:00:00	2024-11-06T06:00:00	6	Velocidad del viento	3.2
54198	7	Sololá	701	Sololá	3	Barraneche	10	Octubre	2023-10-10T00:00:00	2024-11-06T06:00:00	7	Dirección del viento	3.22
54199	7	Sololá	701	Sololá	3	Barraneche	10	Octubre	2023-10-10T00:00:00	2024-11-06T06:00:00	1	Precipitación	0
54200	7	Sololá	701	Sololá	3	Barraneche	10	Octubre	2023-10-10T00:00:00	2024-11-06T06:00:00	8	Radiación solar	0
54201	7	Sololá	701	Sololá	3	Barraneche	10	Octubre	2023-10-10T00:00:00	2024-11-06T07:00:00	2	Temperatura media	12.5
54202	7	Sololá	701	Sololá	3	Barraneche	10	Octubre	2023-10-10T00:00:00	2024-11-06T07:00:00	4	Temperatura máxima	12.5
54203	7	Sololá	701	Sololá	3	Barraneche	10	Octubre	2023-10-10T00:00:00	2024-11-06T07:00:00	3	Temperatura mínima	11.9
54204	7	Sololá	701	Sololá	3	Barraneche	10	Octubre	2023-10-10T00:00:00	2024-11-06T07:00:00	5	Humedad	85
54205	7	Sololá	701	Sololá	3	Barraneche	10	Octubre	2023-10-10T00:00:00	2024-11-06T07:00:00	6	Velocidad del viento	1.6
54206	7	Sololá	701	Sololá	3	Barraneche	10	Octubre	2023-10-10T00:00:00	2024-11-06T07:00:00	7	Dirección del viento	1.61
54207	7	Sololá	701	Sololá	3	Barraneche	10	Octubre	2023-10-10T00:00:00	2024-11-06T07:00:00	1	Precipitación	0
54208	7	Sololá	701	Sololá	3	Barraneche	10	Octubre	2023-10-10T00:00:00	2024-11-06T07:00:00	8	Radiación solar	59
54209	7	Sololá	701	Sololá	3	Barraneche	10	Octubre	2023-10-10T00:00:00	2024-11-06T08:00:00	2	Temperatura media	14.9
54210	7	Sololá	701	Sololá	3	Barraneche	10	Octubre	2023-10-10T00:00:00	2024-11-06T08:00:00	4	Temperatura máxima	14.9
54211	7	Sololá	701	Sololá	3	Barraneche	10	Octubre	2023-10-10T00:00:00	2024-11-06T08:00:00	3	Temperatura mínima	12.5
54212	7	Sololá	701	Sololá	3	Barraneche	10	Octubre	2023-10-10T00:00:00	2024-11-06T08:00:00	5	Humedad	79
54213	7	Sololá	701	Sololá	3	Barraneche	10	Octubre	2023-10-10T00:00:00	2024-11-06T08:00:00	6	Velocidad del viento	0
54214	7	Sololá	701	Sololá	3	Barraneche	10	Octubre	2023-10-10T00:00:00	2024-11-06T08:00:00	7	Dirección del viento	0
54215	7	Sololá	701	Sololá	3	Barraneche	10	Octubre	2023-10-10T00:00:00	2024-11-06T08:00:00	1	Precipitación	0
54216	7	Sololá	701	Sololá	3	Barraneche	10	Octubre	2023-10-10T00:00:00	2024-11-06T08:00:00	8	Radiación solar	249
54217	7	Sololá	701	Sololá	3	Barraneche	10	Octubre	2023-10-10T00:00:00	2024-11-06T09:00:00	2	Temperatura media	17.7
54218	7	Sololá	701	Sololá	3	Barraneche	10	Octubre	2023-10-10T00:00:00	2024-11-06T09:00:00	4	Temperatura máxima	17.7
54219	7	Sololá	701	Sololá	3	Barraneche	10	Octubre	2023-10-10T00:00:00	2024-11-06T09:00:00	3	Temperatura mínima	14.9
54220	7	Sololá	701	Sololá	3	Barraneche	10	Octubre	2023-10-10T00:00:00	2024-11-06T09:00:00	5	Humedad	73
54221	7	Sololá	701	Sololá	3	Barraneche	10	Octubre	2023-10-10T00:00:00	2024-11-06T09:00:00	6	Velocidad del viento	3.2
54222	7	Sololá	701	Sololá	3	Barraneche	10	Octubre	2023-10-10T00:00:00	2024-11-06T09:00:00	7	Dirección del viento	3.22
54223	7	Sololá	701	Sololá	3	Barraneche	10	Octubre	2023-10-10T00:00:00	2024-11-06T09:00:00	1	Precipitación	0
54224	7	Sololá	701	Sololá	3	Barraneche	10	Octubre	2023-10-10T00:00:00	2024-11-06T09:00:00	8	Radiación solar	575
54225	7	Sololá	701	Sololá	3	Barraneche	10	Octubre	2023-10-10T00:00:00	2024-11-06T10:00:00	2	Temperatura media	19.7
54226	7	Sololá	701	Sololá	3	Barraneche	10	Octubre	2023-10-10T00:00:00	2024-11-06T10:00:00	4	Temperatura máxima	19.8
54227	7	Sololá	701	Sololá	3	Barraneche	10	Octubre	2023-10-10T00:00:00	2024-11-06T10:00:00	3	Temperatura mínima	17.7
54228	7	Sololá	701	Sololá	3	Barraneche	10	Octubre	2023-10-10T00:00:00	2024-11-06T10:00:00	5	Humedad	67
54229	7	Sololá	701	Sololá	3	Barraneche	10	Octubre	2023-10-10T00:00:00	2024-11-06T10:00:00	6	Velocidad del viento	6.4
54230	7	Sololá	701	Sololá	3	Barraneche	10	Octubre	2023-10-10T00:00:00	2024-11-06T10:00:00	7	Dirección del viento	6.44
54231	7	Sololá	701	Sololá	3	Barraneche	10	Octubre	2023-10-10T00:00:00	2024-11-06T10:00:00	1	Precipitación	0
54232	7	Sololá	701	Sololá	3	Barraneche	10	Octubre	2023-10-10T00:00:00	2024-11-06T10:00:00	8	Radiación solar	782
54233	7	Sololá	701	Sololá	3	Barraneche	10	Octubre	2023-10-10T00:00:00	2024-11-06T11:00:00	2	Temperatura media	19.4
54234	7	Sololá	701	Sololá	3	Barraneche	10	Octubre	2023-10-10T00:00:00	2024-11-06T11:00:00	4	Temperatura máxima	19.7
54235	7	Sololá	701	Sololá	3	Barraneche	10	Octubre	2023-10-10T00:00:00	2024-11-06T11:00:00	3	Temperatura mínima	18.8
54236	7	Sololá	701	Sololá	3	Barraneche	10	Octubre	2023-10-10T00:00:00	2024-11-06T11:00:00	5	Humedad	62
54237	7	Sololá	701	Sololá	3	Barraneche	10	Octubre	2023-10-10T00:00:00	2024-11-06T11:00:00	6	Velocidad del viento	11.3
54238	7	Sololá	701	Sololá	3	Barraneche	10	Octubre	2023-10-10T00:00:00	2024-11-06T11:00:00	7	Dirección del viento	11.27
54239	7	Sololá	701	Sololá	3	Barraneche	10	Octubre	2023-10-10T00:00:00	2024-11-06T11:00:00	1	Precipitación	0
54240	7	Sololá	701	Sololá	3	Barraneche	10	Octubre	2023-10-10T00:00:00	2024-11-06T11:00:00	8	Radiación solar	934
54241	7	Sololá	701	Sololá	3	Barraneche	10	Octubre	2023-10-10T00:00:00	2024-11-06T12:00:00	2	Temperatura media	19.1
54242	7	Sololá	701	Sololá	3	Barraneche	10	Octubre	2023-10-10T00:00:00	2024-11-06T12:00:00	4	Temperatura máxima	19.7
54243	7	Sololá	701	Sololá	3	Barraneche	10	Octubre	2023-10-10T00:00:00	2024-11-06T12:00:00	3	Temperatura mínima	18.9
54244	7	Sololá	701	Sololá	3	Barraneche	10	Octubre	2023-10-10T00:00:00	2024-11-06T12:00:00	5	Humedad	71
54245	7	Sololá	701	Sololá	3	Barraneche	10	Octubre	2023-10-10T00:00:00	2024-11-06T12:00:00	6	Velocidad del viento	12.9
54246	7	Sololá	701	Sololá	3	Barraneche	10	Octubre	2023-10-10T00:00:00	2024-11-06T12:00:00	7	Dirección del viento	12.87
54247	7	Sololá	701	Sololá	3	Barraneche	10	Octubre	2023-10-10T00:00:00	2024-11-06T12:00:00	1	Precipitación	0
54248	7	Sololá	701	Sololá	3	Barraneche	10	Octubre	2023-10-10T00:00:00	2024-11-06T12:00:00	8	Radiación solar	1029
54249	7	Sololá	701	Sololá	3	Barraneche	10	Octubre	2023-10-10T00:00:00	2024-11-06T13:00:00	2	Temperatura media	19.4
54250	7	Sololá	701	Sololá	3	Barraneche	10	Octubre	2023-10-10T00:00:00	2024-11-06T13:00:00	4	Temperatura máxima	19.6
54251	7	Sololá	701	Sololá	3	Barraneche	10	Octubre	2023-10-10T00:00:00	2024-11-06T13:00:00	3	Temperatura mínima	18.4
54252	7	Sololá	701	Sololá	3	Barraneche	10	Octubre	2023-10-10T00:00:00	2024-11-06T13:00:00	5	Humedad	69
54253	7	Sololá	701	Sololá	3	Barraneche	10	Octubre	2023-10-10T00:00:00	2024-11-06T13:00:00	6	Velocidad del viento	12.9
54254	7	Sololá	701	Sololá	3	Barraneche	10	Octubre	2023-10-10T00:00:00	2024-11-06T13:00:00	7	Dirección del viento	12.87
54255	7	Sololá	701	Sololá	3	Barraneche	10	Octubre	2023-10-10T00:00:00	2024-11-06T13:00:00	1	Precipitación	0
54256	7	Sololá	701	Sololá	3	Barraneche	10	Octubre	2023-10-10T00:00:00	2024-11-06T13:00:00	8	Radiación solar	1143
54257	7	Sololá	701	Sololá	3	Barraneche	10	Octubre	2023-10-10T00:00:00	2024-11-06T14:00:00	2	Temperatura media	17.8
54258	7	Sololá	701	Sololá	3	Barraneche	10	Octubre	2023-10-10T00:00:00	2024-11-06T14:00:00	4	Temperatura máxima	19.5
54259	7	Sololá	701	Sololá	3	Barraneche	10	Octubre	2023-10-10T00:00:00	2024-11-06T14:00:00	3	Temperatura mínima	17.7
54260	7	Sololá	701	Sololá	3	Barraneche	10	Octubre	2023-10-10T00:00:00	2024-11-06T14:00:00	5	Humedad	76
54261	7	Sololá	701	Sololá	3	Barraneche	10	Octubre	2023-10-10T00:00:00	2024-11-06T14:00:00	6	Velocidad del viento	12.9
54262	7	Sololá	701	Sololá	3	Barraneche	10	Octubre	2023-10-10T00:00:00	2024-11-06T14:00:00	7	Dirección del viento	12.87
54263	7	Sololá	701	Sololá	3	Barraneche	10	Octubre	2023-10-10T00:00:00	2024-11-06T14:00:00	1	Precipitación	0
54264	7	Sololá	701	Sololá	3	Barraneche	10	Octubre	2023-10-10T00:00:00	2024-11-06T14:00:00	8	Radiación solar	771
54265	7	Sololá	701	Sololá	3	Barraneche	10	Octubre	2023-10-10T00:00:00	2024-11-06T15:00:00	2	Temperatura media	17.6
54266	7	Sololá	701	Sololá	3	Barraneche	10	Octubre	2023-10-10T00:00:00	2024-11-06T15:00:00	4	Temperatura máxima	18.8
54267	7	Sololá	701	Sololá	3	Barraneche	10	Octubre	2023-10-10T00:00:00	2024-11-06T15:00:00	3	Temperatura mínima	17.4
54268	7	Sololá	701	Sololá	3	Barraneche	10	Octubre	2023-10-10T00:00:00	2024-11-06T15:00:00	5	Humedad	76
54269	7	Sololá	701	Sololá	3	Barraneche	10	Octubre	2023-10-10T00:00:00	2024-11-06T15:00:00	6	Velocidad del viento	9.7
54270	7	Sololá	701	Sololá	3	Barraneche	10	Octubre	2023-10-10T00:00:00	2024-11-06T15:00:00	7	Dirección del viento	9.66
54271	7	Sololá	701	Sololá	3	Barraneche	10	Octubre	2023-10-10T00:00:00	2024-11-06T15:00:00	1	Precipitación	0
54272	7	Sololá	701	Sololá	3	Barraneche	10	Octubre	2023-10-10T00:00:00	2024-11-06T15:00:00	8	Radiación solar	379
54273	7	Sololá	701	Sololá	3	Barraneche	10	Octubre	2023-10-10T00:00:00	2024-11-06T16:00:00	2	Temperatura media	16.4
54274	7	Sololá	701	Sololá	3	Barraneche	10	Octubre	2023-10-10T00:00:00	2024-11-06T16:00:00	4	Temperatura máxima	17.8
54275	7	Sololá	701	Sololá	3	Barraneche	10	Octubre	2023-10-10T00:00:00	2024-11-06T16:00:00	3	Temperatura mínima	16.4
54276	7	Sololá	701	Sololá	3	Barraneche	10	Octubre	2023-10-10T00:00:00	2024-11-06T16:00:00	5	Humedad	81
54277	7	Sololá	701	Sololá	3	Barraneche	10	Octubre	2023-10-10T00:00:00	2024-11-06T16:00:00	6	Velocidad del viento	8
54278	7	Sololá	701	Sololá	3	Barraneche	10	Octubre	2023-10-10T00:00:00	2024-11-06T16:00:00	7	Dirección del viento	8.05
54279	7	Sololá	701	Sololá	3	Barraneche	10	Octubre	2023-10-10T00:00:00	2024-11-06T16:00:00	1	Precipitación	0.2
54280	7	Sololá	701	Sololá	3	Barraneche	10	Octubre	2023-10-10T00:00:00	2024-11-06T16:00:00	8	Radiación solar	199
54281	7	Sololá	701	Sololá	3	Barraneche	10	Octubre	2023-10-10T00:00:00	2024-11-06T17:00:00	2	Temperatura media	15.6
54282	7	Sololá	701	Sololá	3	Barraneche	10	Octubre	2023-10-10T00:00:00	2024-11-06T17:00:00	4	Temperatura máxima	16.4
54283	7	Sololá	701	Sololá	3	Barraneche	10	Octubre	2023-10-10T00:00:00	2024-11-06T17:00:00	3	Temperatura mínima	15.6
54284	7	Sololá	701	Sololá	3	Barraneche	10	Octubre	2023-10-10T00:00:00	2024-11-06T17:00:00	5	Humedad	84
54285	7	Sololá	701	Sololá	3	Barraneche	10	Octubre	2023-10-10T00:00:00	2024-11-06T17:00:00	6	Velocidad del viento	4.8
54286	7	Sololá	701	Sololá	3	Barraneche	10	Octubre	2023-10-10T00:00:00	2024-11-06T17:00:00	7	Dirección del viento	4.83
54287	7	Sololá	701	Sololá	3	Barraneche	10	Octubre	2023-10-10T00:00:00	2024-11-06T17:00:00	1	Precipitación	0.4
54288	7	Sololá	701	Sololá	3	Barraneche	10	Octubre	2023-10-10T00:00:00	2024-11-06T17:00:00	8	Radiación solar	56
54289	7	Sololá	701	Sololá	3	Barraneche	10	Octubre	2023-10-10T00:00:00	2024-11-06T18:00:00	2	Temperatura media	15.3
54290	7	Sololá	701	Sololá	3	Barraneche	10	Octubre	2023-10-10T00:00:00	2024-11-06T18:00:00	4	Temperatura máxima	15.7
54291	7	Sololá	701	Sololá	3	Barraneche	10	Octubre	2023-10-10T00:00:00	2024-11-06T18:00:00	3	Temperatura mínima	15.3
54292	7	Sololá	701	Sololá	3	Barraneche	10	Octubre	2023-10-10T00:00:00	2024-11-06T18:00:00	5	Humedad	84
54293	7	Sololá	701	Sololá	3	Barraneche	10	Octubre	2023-10-10T00:00:00	2024-11-06T18:00:00	6	Velocidad del viento	1.6
54294	7	Sololá	701	Sololá	3	Barraneche	10	Octubre	2023-10-10T00:00:00	2024-11-06T18:00:00	7	Dirección del viento	1.61
54295	7	Sololá	701	Sololá	3	Barraneche	10	Octubre	2023-10-10T00:00:00	2024-11-06T18:00:00	1	Precipitación	0
54296	7	Sololá	701	Sololá	3	Barraneche	10	Octubre	2023-10-10T00:00:00	2024-11-06T18:00:00	8	Radiación solar	6
54297	7	Sololá	701	Sololá	3	Barraneche	10	Octubre	2023-10-10T00:00:00	2024-11-06T19:00:00	2	Temperatura media	14.8
54298	7	Sololá	701	Sololá	3	Barraneche	10	Octubre	2023-10-10T00:00:00	2024-11-06T19:00:00	4	Temperatura máxima	15.3
54299	7	Sololá	701	Sololá	3	Barraneche	10	Octubre	2023-10-10T00:00:00	2024-11-06T19:00:00	3	Temperatura mínima	14.8
54300	7	Sololá	701	Sololá	3	Barraneche	10	Octubre	2023-10-10T00:00:00	2024-11-06T19:00:00	5	Humedad	85
54301	7	Sololá	701	Sololá	3	Barraneche	10	Octubre	2023-10-10T00:00:00	2024-11-06T19:00:00	6	Velocidad del viento	3.2
54302	7	Sololá	701	Sololá	3	Barraneche	10	Octubre	2023-10-10T00:00:00	2024-11-06T19:00:00	7	Dirección del viento	3.22
54303	7	Sololá	701	Sololá	3	Barraneche	10	Octubre	2023-10-10T00:00:00	2024-11-06T19:00:00	1	Precipitación	4.2
54304	7	Sololá	701	Sololá	3	Barraneche	10	Octubre	2023-10-10T00:00:00	2024-11-06T19:00:00	8	Radiación solar	0
54305	7	Sololá	701	Sololá	3	Barraneche	10	Octubre	2023-10-10T00:00:00	2024-11-06T20:00:00	2	Temperatura media	14.7
54306	7	Sololá	701	Sololá	3	Barraneche	10	Octubre	2023-10-10T00:00:00	2024-11-06T20:00:00	4	Temperatura máxima	14.9
54307	7	Sololá	701	Sololá	3	Barraneche	10	Octubre	2023-10-10T00:00:00	2024-11-06T20:00:00	3	Temperatura mínima	14.6
54308	7	Sololá	701	Sololá	3	Barraneche	10	Octubre	2023-10-10T00:00:00	2024-11-06T20:00:00	5	Humedad	85
54309	7	Sololá	701	Sololá	3	Barraneche	10	Octubre	2023-10-10T00:00:00	2024-11-06T20:00:00	6	Velocidad del viento	1.6
54310	7	Sololá	701	Sololá	3	Barraneche	10	Octubre	2023-10-10T00:00:00	2024-11-06T20:00:00	7	Dirección del viento	1.61
54311	7	Sololá	701	Sololá	3	Barraneche	10	Octubre	2023-10-10T00:00:00	2024-11-06T20:00:00	1	Precipitación	0
54312	7	Sololá	701	Sololá	3	Barraneche	10	Octubre	2023-10-10T00:00:00	2024-11-06T20:00:00	8	Radiación solar	0
54313	7	Sololá	701	Sololá	3	Barraneche	10	Octubre	2023-10-10T00:00:00	2024-11-06T21:00:00	2	Temperatura media	14.7
54314	7	Sololá	701	Sololá	3	Barraneche	10	Octubre	2023-10-10T00:00:00	2024-11-06T21:00:00	4	Temperatura máxima	14.8
54315	7	Sololá	701	Sololá	3	Barraneche	10	Octubre	2023-10-10T00:00:00	2024-11-06T21:00:00	3	Temperatura mínima	14.7
54316	7	Sololá	701	Sololá	3	Barraneche	10	Octubre	2023-10-10T00:00:00	2024-11-06T21:00:00	5	Humedad	85
54317	7	Sololá	701	Sololá	3	Barraneche	10	Octubre	2023-10-10T00:00:00	2024-11-06T21:00:00	6	Velocidad del viento	0
54318	7	Sololá	701	Sololá	3	Barraneche	10	Octubre	2023-10-10T00:00:00	2024-11-06T21:00:00	7	Dirección del viento	0
54319	7	Sololá	701	Sololá	3	Barraneche	10	Octubre	2023-10-10T00:00:00	2024-11-06T21:00:00	1	Precipitación	0
54320	7	Sololá	701	Sololá	3	Barraneche	10	Octubre	2023-10-10T00:00:00	2024-11-06T21:00:00	8	Radiación solar	0
54321	7	Sololá	701	Sololá	3	Barraneche	10	Octubre	2023-10-10T00:00:00	2024-11-06T22:00:00	2	Temperatura media	14.7
54322	7	Sololá	701	Sololá	3	Barraneche	10	Octubre	2023-10-10T00:00:00	2024-11-06T22:00:00	4	Temperatura máxima	14.8
54323	7	Sololá	701	Sololá	3	Barraneche	10	Octubre	2023-10-10T00:00:00	2024-11-06T22:00:00	3	Temperatura mínima	14.6
54324	7	Sololá	701	Sololá	3	Barraneche	10	Octubre	2023-10-10T00:00:00	2024-11-06T22:00:00	5	Humedad	85
54325	7	Sololá	701	Sololá	3	Barraneche	10	Octubre	2023-10-10T00:00:00	2024-11-06T22:00:00	6	Velocidad del viento	1.6
54326	7	Sololá	701	Sololá	3	Barraneche	10	Octubre	2023-10-10T00:00:00	2024-11-06T22:00:00	7	Dirección del viento	1.61
54327	7	Sololá	701	Sololá	3	Barraneche	10	Octubre	2023-10-10T00:00:00	2024-11-06T22:00:00	1	Precipitación	0.2
54328	7	Sololá	701	Sololá	3	Barraneche	10	Octubre	2023-10-10T00:00:00	2024-11-06T22:00:00	8	Radiación solar	0
54329	7	Sololá	701	Sololá	3	Barraneche	10	Octubre	2023-10-10T00:00:00	2024-11-06T23:00:00	2	Temperatura media	14.5
54330	7	Sololá	701	Sololá	3	Barraneche	10	Octubre	2023-10-10T00:00:00	2024-11-06T23:00:00	4	Temperatura máxima	14.7
54331	7	Sololá	701	Sololá	3	Barraneche	10	Octubre	2023-10-10T00:00:00	2024-11-06T23:00:00	3	Temperatura mínima	14.5
54332	7	Sololá	701	Sololá	3	Barraneche	10	Octubre	2023-10-10T00:00:00	2024-11-06T23:00:00	5	Humedad	85
54333	7	Sololá	701	Sololá	3	Barraneche	10	Octubre	2023-10-10T00:00:00	2024-11-06T23:00:00	6	Velocidad del viento	1.6
54334	7	Sololá	701	Sololá	3	Barraneche	10	Octubre	2023-10-10T00:00:00	2024-11-06T23:00:00	7	Dirección del viento	1.61
54335	7	Sololá	701	Sololá	3	Barraneche	10	Octubre	2023-10-10T00:00:00	2024-11-06T23:00:00	1	Precipitación	0
54336	7	Sololá	701	Sololá	3	Barraneche	10	Octubre	2023-10-10T00:00:00	2024-11-06T23:00:00	8	Radiación solar	0
54337	7	Sololá	701	Sololá	3	Barraneche	10	Octubre	2023-11-10T00:00:00	2024-11-06T00:00:00	2	Temperatura media	13.9
54338	7	Sololá	701	Sololá	3	Barraneche	10	Octubre	2023-11-10T00:00:00	2024-11-06T00:00:00	4	Temperatura máxima	14.5
54339	7	Sololá	701	Sololá	3	Barraneche	10	Octubre	2023-11-10T00:00:00	2024-11-06T00:00:00	3	Temperatura mínima	13.9
54340	7	Sololá	701	Sololá	3	Barraneche	10	Octubre	2023-11-10T00:00:00	2024-11-06T00:00:00	5	Humedad	85
54341	7	Sololá	701	Sololá	3	Barraneche	10	Octubre	2023-11-10T00:00:00	2024-11-06T00:00:00	6	Velocidad del viento	3.2
54342	7	Sololá	701	Sololá	3	Barraneche	10	Octubre	2023-11-10T00:00:00	2024-11-06T00:00:00	7	Dirección del viento	3.22
54343	7	Sololá	701	Sololá	3	Barraneche	10	Octubre	2023-11-10T00:00:00	2024-11-06T00:00:00	1	Precipitación	0
54344	7	Sololá	701	Sololá	3	Barraneche	10	Octubre	2023-11-10T00:00:00	2024-11-06T00:00:00	8	Radiación solar	0
54345	7	Sololá	701	Sololá	3	Barraneche	10	Octubre	2023-11-10T00:00:00	2024-11-06T01:00:00	2	Temperatura media	13.9
54346	7	Sololá	701	Sololá	3	Barraneche	10	Octubre	2023-11-10T00:00:00	2024-11-06T01:00:00	4	Temperatura máxima	14
54347	7	Sololá	701	Sololá	3	Barraneche	10	Octubre	2023-11-10T00:00:00	2024-11-06T01:00:00	3	Temperatura mínima	13.8
54348	7	Sololá	701	Sololá	3	Barraneche	10	Octubre	2023-11-10T00:00:00	2024-11-06T01:00:00	5	Humedad	85
54349	7	Sololá	701	Sololá	3	Barraneche	10	Octubre	2023-11-10T00:00:00	2024-11-06T01:00:00	6	Velocidad del viento	1.6
54350	7	Sololá	701	Sololá	3	Barraneche	10	Octubre	2023-11-10T00:00:00	2024-11-06T01:00:00	7	Dirección del viento	1.61
54351	7	Sololá	701	Sololá	3	Barraneche	10	Octubre	2023-11-10T00:00:00	2024-11-06T01:00:00	1	Precipitación	0
54352	7	Sololá	701	Sololá	3	Barraneche	10	Octubre	2023-11-10T00:00:00	2024-11-06T01:00:00	8	Radiación solar	0
54353	7	Sololá	701	Sololá	3	Barraneche	10	Octubre	2023-11-10T00:00:00	2024-11-06T02:00:00	2	Temperatura media	13.8
54354	7	Sololá	701	Sololá	3	Barraneche	10	Octubre	2023-11-10T00:00:00	2024-11-06T02:00:00	4	Temperatura máxima	13.9
54355	7	Sololá	701	Sololá	3	Barraneche	10	Octubre	2023-11-10T00:00:00	2024-11-06T02:00:00	3	Temperatura mínima	13.7
54356	7	Sololá	701	Sololá	3	Barraneche	10	Octubre	2023-11-10T00:00:00	2024-11-06T02:00:00	5	Humedad	85
54357	7	Sololá	701	Sololá	3	Barraneche	10	Octubre	2023-11-10T00:00:00	2024-11-06T02:00:00	6	Velocidad del viento	1.6
54358	7	Sololá	701	Sololá	3	Barraneche	10	Octubre	2023-11-10T00:00:00	2024-11-06T02:00:00	7	Dirección del viento	1.61
54359	7	Sololá	701	Sololá	3	Barraneche	10	Octubre	2023-11-10T00:00:00	2024-11-06T02:00:00	1	Precipitación	0.2
54360	7	Sololá	701	Sololá	3	Barraneche	10	Octubre	2023-11-10T00:00:00	2024-11-06T02:00:00	8	Radiación solar	0
54361	7	Sololá	701	Sololá	3	Barraneche	10	Octubre	2023-11-10T00:00:00	2024-11-06T03:00:00	2	Temperatura media	13.7
54362	7	Sololá	701	Sololá	3	Barraneche	10	Octubre	2023-11-10T00:00:00	2024-11-06T03:00:00	4	Temperatura máxima	13.9
54363	7	Sololá	701	Sololá	3	Barraneche	10	Octubre	2023-11-10T00:00:00	2024-11-06T03:00:00	3	Temperatura mínima	13.6
54364	7	Sololá	701	Sololá	3	Barraneche	10	Octubre	2023-11-10T00:00:00	2024-11-06T03:00:00	5	Humedad	85
54365	7	Sololá	701	Sololá	3	Barraneche	10	Octubre	2023-11-10T00:00:00	2024-11-06T03:00:00	6	Velocidad del viento	1.6
54366	7	Sololá	701	Sololá	3	Barraneche	10	Octubre	2023-11-10T00:00:00	2024-11-06T03:00:00	7	Dirección del viento	1.61
54367	7	Sololá	701	Sololá	3	Barraneche	10	Octubre	2023-11-10T00:00:00	2024-11-06T03:00:00	1	Precipitación	0
54368	7	Sololá	701	Sololá	3	Barraneche	10	Octubre	2023-11-10T00:00:00	2024-11-06T03:00:00	8	Radiación solar	0
54369	7	Sololá	701	Sololá	3	Barraneche	10	Octubre	2023-11-10T00:00:00	2024-11-06T04:00:00	2	Temperatura media	13.2
54370	7	Sololá	701	Sololá	3	Barraneche	10	Octubre	2023-11-10T00:00:00	2024-11-06T04:00:00	4	Temperatura máxima	13.7
54371	7	Sololá	701	Sololá	3	Barraneche	10	Octubre	2023-11-10T00:00:00	2024-11-06T04:00:00	3	Temperatura mínima	13.1
54372	7	Sololá	701	Sololá	3	Barraneche	10	Octubre	2023-11-10T00:00:00	2024-11-06T04:00:00	5	Humedad	85
54373	7	Sololá	701	Sololá	3	Barraneche	10	Octubre	2023-11-10T00:00:00	2024-11-06T04:00:00	6	Velocidad del viento	1.6
54374	7	Sololá	701	Sololá	3	Barraneche	10	Octubre	2023-11-10T00:00:00	2024-11-06T04:00:00	7	Dirección del viento	1.61
54375	7	Sololá	701	Sololá	3	Barraneche	10	Octubre	2023-11-10T00:00:00	2024-11-06T04:00:00	1	Precipitación	0
54376	7	Sololá	701	Sololá	3	Barraneche	10	Octubre	2023-11-10T00:00:00	2024-11-06T04:00:00	8	Radiación solar	0
54377	7	Sololá	701	Sololá	3	Barraneche	10	Octubre	2023-11-10T00:00:00	2024-11-06T05:00:00	2	Temperatura media	13.1
54378	7	Sololá	701	Sololá	3	Barraneche	10	Octubre	2023-11-10T00:00:00	2024-11-06T05:00:00	4	Temperatura máxima	13.2
54379	7	Sololá	701	Sololá	3	Barraneche	10	Octubre	2023-11-10T00:00:00	2024-11-06T05:00:00	3	Temperatura mínima	13
54380	7	Sololá	701	Sololá	3	Barraneche	10	Octubre	2023-11-10T00:00:00	2024-11-06T05:00:00	5	Humedad	85
54381	7	Sololá	701	Sololá	3	Barraneche	10	Octubre	2023-11-10T00:00:00	2024-11-06T05:00:00	6	Velocidad del viento	1.6
54382	7	Sololá	701	Sololá	3	Barraneche	10	Octubre	2023-11-10T00:00:00	2024-11-06T05:00:00	7	Dirección del viento	1.61
54383	7	Sololá	701	Sololá	3	Barraneche	10	Octubre	2023-11-10T00:00:00	2024-11-06T05:00:00	1	Precipitación	0
54384	7	Sololá	701	Sololá	3	Barraneche	10	Octubre	2023-11-10T00:00:00	2024-11-06T05:00:00	8	Radiación solar	0
54385	7	Sololá	701	Sololá	3	Barraneche	10	Octubre	2023-11-10T00:00:00	2024-11-06T06:00:00	2	Temperatura media	12.3
54386	7	Sololá	701	Sololá	3	Barraneche	10	Octubre	2023-11-10T00:00:00	2024-11-06T06:00:00	4	Temperatura máxima	13.3
54387	7	Sololá	701	Sololá	3	Barraneche	10	Octubre	2023-11-10T00:00:00	2024-11-06T06:00:00	3	Temperatura mínima	12.3
54388	7	Sololá	701	Sololá	3	Barraneche	10	Octubre	2023-11-10T00:00:00	2024-11-06T06:00:00	5	Humedad	84
54389	7	Sololá	701	Sololá	3	Barraneche	10	Octubre	2023-11-10T00:00:00	2024-11-06T06:00:00	6	Velocidad del viento	3.2
54390	7	Sololá	701	Sololá	3	Barraneche	10	Octubre	2023-11-10T00:00:00	2024-11-06T06:00:00	7	Dirección del viento	3.22
54391	7	Sololá	701	Sololá	3	Barraneche	10	Octubre	2023-11-10T00:00:00	2024-11-06T06:00:00	1	Precipitación	0
54392	7	Sololá	701	Sololá	3	Barraneche	10	Octubre	2023-11-10T00:00:00	2024-11-06T06:00:00	8	Radiación solar	1
54393	7	Sololá	701	Sololá	3	Barraneche	10	Octubre	2023-11-10T00:00:00	2024-11-06T07:00:00	2	Temperatura media	13.3
54394	7	Sololá	701	Sololá	3	Barraneche	10	Octubre	2023-11-10T00:00:00	2024-11-06T07:00:00	4	Temperatura máxima	13.3
54395	7	Sololá	701	Sololá	3	Barraneche	10	Octubre	2023-11-10T00:00:00	2024-11-06T07:00:00	3	Temperatura mínima	12.1
54396	7	Sololá	701	Sololá	3	Barraneche	10	Octubre	2023-11-10T00:00:00	2024-11-06T07:00:00	5	Humedad	83
54397	7	Sololá	701	Sololá	3	Barraneche	10	Octubre	2023-11-10T00:00:00	2024-11-06T07:00:00	6	Velocidad del viento	4.8
54398	7	Sololá	701	Sololá	3	Barraneche	10	Octubre	2023-11-10T00:00:00	2024-11-06T07:00:00	7	Dirección del viento	4.83
54399	7	Sololá	701	Sololá	3	Barraneche	10	Octubre	2023-11-10T00:00:00	2024-11-06T07:00:00	1	Precipitación	0
54400	7	Sololá	701	Sololá	3	Barraneche	10	Octubre	2023-11-10T00:00:00	2024-11-06T07:00:00	8	Radiación solar	58
54401	7	Sololá	701	Sololá	3	Barraneche	10	Octubre	2023-11-10T00:00:00	2024-11-06T08:00:00	2	Temperatura media	15.9
54402	7	Sololá	701	Sololá	3	Barraneche	10	Octubre	2023-11-10T00:00:00	2024-11-06T08:00:00	4	Temperatura máxima	15.9
54403	7	Sololá	701	Sololá	3	Barraneche	10	Octubre	2023-11-10T00:00:00	2024-11-06T08:00:00	3	Temperatura mínima	13.3
54404	7	Sololá	701	Sololá	3	Barraneche	10	Octubre	2023-11-10T00:00:00	2024-11-06T08:00:00	5	Humedad	79
54405	7	Sololá	701	Sololá	3	Barraneche	10	Octubre	2023-11-10T00:00:00	2024-11-06T08:00:00	6	Velocidad del viento	3.2
54406	7	Sololá	701	Sololá	3	Barraneche	10	Octubre	2023-11-10T00:00:00	2024-11-06T08:00:00	7	Dirección del viento	3.22
54407	7	Sololá	701	Sololá	3	Barraneche	10	Octubre	2023-11-10T00:00:00	2024-11-06T08:00:00	1	Precipitación	0
54408	7	Sololá	701	Sololá	3	Barraneche	10	Octubre	2023-11-10T00:00:00	2024-11-06T08:00:00	8	Radiación solar	280
54409	7	Sololá	701	Sololá	3	Barraneche	10	Octubre	2023-11-10T00:00:00	2024-11-06T09:00:00	2	Temperatura media	18.1
54410	7	Sololá	701	Sololá	3	Barraneche	10	Octubre	2023-11-10T00:00:00	2024-11-06T09:00:00	4	Temperatura máxima	18.1
54411	7	Sololá	701	Sololá	3	Barraneche	10	Octubre	2023-11-10T00:00:00	2024-11-06T09:00:00	3	Temperatura mínima	15.9
54412	7	Sololá	701	Sololá	3	Barraneche	10	Octubre	2023-11-10T00:00:00	2024-11-06T09:00:00	5	Humedad	74
54413	7	Sololá	701	Sololá	3	Barraneche	10	Octubre	2023-11-10T00:00:00	2024-11-06T09:00:00	6	Velocidad del viento	3.2
54414	7	Sololá	701	Sololá	3	Barraneche	10	Octubre	2023-11-10T00:00:00	2024-11-06T09:00:00	7	Dirección del viento	3.22
54415	7	Sololá	701	Sololá	3	Barraneche	10	Octubre	2023-11-10T00:00:00	2024-11-06T09:00:00	1	Precipitación	0
54416	7	Sololá	701	Sololá	3	Barraneche	10	Octubre	2023-11-10T00:00:00	2024-11-06T09:00:00	8	Radiación solar	538
54417	7	Sololá	701	Sololá	3	Barraneche	10	Octubre	2023-11-10T00:00:00	2024-11-06T10:00:00	2	Temperatura media	17.6
54418	7	Sololá	701	Sololá	3	Barraneche	10	Octubre	2023-11-10T00:00:00	2024-11-06T10:00:00	4	Temperatura máxima	18.2
54419	7	Sololá	701	Sololá	3	Barraneche	10	Octubre	2023-11-10T00:00:00	2024-11-06T10:00:00	3	Temperatura mínima	17.2
54420	7	Sololá	701	Sololá	3	Barraneche	10	Octubre	2023-11-10T00:00:00	2024-11-06T10:00:00	5	Humedad	76
54421	7	Sololá	701	Sololá	3	Barraneche	10	Octubre	2023-11-10T00:00:00	2024-11-06T10:00:00	6	Velocidad del viento	8
54422	7	Sololá	701	Sololá	3	Barraneche	10	Octubre	2023-11-10T00:00:00	2024-11-06T10:00:00	7	Dirección del viento	8.05
54423	7	Sololá	701	Sololá	3	Barraneche	10	Octubre	2023-11-10T00:00:00	2024-11-06T10:00:00	1	Precipitación	0
54424	7	Sololá	701	Sololá	3	Barraneche	10	Octubre	2023-11-10T00:00:00	2024-11-06T10:00:00	8	Radiación solar	662
54425	7	Sololá	701	Sololá	3	Barraneche	10	Octubre	2023-11-10T00:00:00	2024-11-06T11:00:00	2	Temperatura media	16.3
54426	7	Sololá	701	Sololá	3	Barraneche	10	Octubre	2023-11-10T00:00:00	2024-11-06T11:00:00	4	Temperatura máxima	17.7
54427	7	Sololá	701	Sololá	3	Barraneche	10	Octubre	2023-11-10T00:00:00	2024-11-06T11:00:00	3	Temperatura mínima	16.1
54428	7	Sololá	701	Sololá	3	Barraneche	10	Octubre	2023-11-10T00:00:00	2024-11-06T11:00:00	5	Humedad	81
54429	7	Sololá	701	Sololá	3	Barraneche	10	Octubre	2023-11-10T00:00:00	2024-11-06T11:00:00	6	Velocidad del viento	9.7
54430	7	Sololá	701	Sololá	3	Barraneche	10	Octubre	2023-11-10T00:00:00	2024-11-06T11:00:00	7	Dirección del viento	9.66
54431	7	Sololá	701	Sololá	3	Barraneche	10	Octubre	2023-11-10T00:00:00	2024-11-06T11:00:00	1	Precipitación	0
54432	7	Sololá	701	Sololá	3	Barraneche	10	Octubre	2023-11-10T00:00:00	2024-11-06T11:00:00	8	Radiación solar	344
54433	7	Sololá	701	Sololá	3	Barraneche	10	Octubre	2023-11-10T00:00:00	2024-11-06T12:00:00	2	Temperatura media	16.5
54434	7	Sololá	701	Sololá	3	Barraneche	10	Octubre	2023-11-10T00:00:00	2024-11-06T12:00:00	4	Temperatura máxima	16.6
54435	7	Sololá	701	Sololá	3	Barraneche	10	Octubre	2023-11-10T00:00:00	2024-11-06T12:00:00	3	Temperatura mínima	15.9
54436	7	Sololá	701	Sololá	3	Barraneche	10	Octubre	2023-11-10T00:00:00	2024-11-06T12:00:00	5	Humedad	80
54437	7	Sololá	701	Sololá	3	Barraneche	10	Octubre	2023-11-10T00:00:00	2024-11-06T12:00:00	6	Velocidad del viento	8
54438	7	Sololá	701	Sololá	3	Barraneche	10	Octubre	2023-11-10T00:00:00	2024-11-06T12:00:00	7	Dirección del viento	8.05
54439	7	Sololá	701	Sololá	3	Barraneche	10	Octubre	2023-11-10T00:00:00	2024-11-06T12:00:00	1	Precipitación	0
54440	7	Sololá	701	Sololá	3	Barraneche	10	Octubre	2023-11-10T00:00:00	2024-11-06T12:00:00	8	Radiación solar	271
54441	7	Sololá	701	Sololá	3	Barraneche	10	Octubre	2023-11-10T00:00:00	2024-11-06T13:00:00	2	Temperatura media	16.4
54442	7	Sololá	701	Sololá	3	Barraneche	10	Octubre	2023-11-10T00:00:00	2024-11-06T13:00:00	4	Temperatura máxima	16.6
54443	7	Sololá	701	Sololá	3	Barraneche	10	Octubre	2023-11-10T00:00:00	2024-11-06T13:00:00	3	Temperatura mínima	16.2
54444	7	Sololá	701	Sololá	3	Barraneche	10	Octubre	2023-11-10T00:00:00	2024-11-06T13:00:00	5	Humedad	80
54445	7	Sololá	701	Sololá	3	Barraneche	10	Octubre	2023-11-10T00:00:00	2024-11-06T13:00:00	6	Velocidad del viento	8
54446	7	Sololá	701	Sololá	3	Barraneche	10	Octubre	2023-11-10T00:00:00	2024-11-06T13:00:00	7	Dirección del viento	8.05
54447	7	Sololá	701	Sololá	3	Barraneche	10	Octubre	2023-11-10T00:00:00	2024-11-06T13:00:00	1	Precipitación	0
54448	7	Sololá	701	Sololá	3	Barraneche	10	Octubre	2023-11-10T00:00:00	2024-11-06T13:00:00	8	Radiación solar	268
54449	7	Sololá	701	Sololá	3	Barraneche	10	Octubre	2023-11-10T00:00:00	2024-11-06T14:00:00	2	Temperatura media	16.5
54450	7	Sololá	701	Sololá	3	Barraneche	10	Octubre	2023-11-10T00:00:00	2024-11-06T14:00:00	4	Temperatura máxima	16.7
54451	7	Sololá	701	Sololá	3	Barraneche	10	Octubre	2023-11-10T00:00:00	2024-11-06T14:00:00	3	Temperatura mínima	16.4
54452	7	Sololá	701	Sololá	3	Barraneche	10	Octubre	2023-11-10T00:00:00	2024-11-06T14:00:00	5	Humedad	81
54453	7	Sololá	701	Sololá	3	Barraneche	10	Octubre	2023-11-10T00:00:00	2024-11-06T14:00:00	6	Velocidad del viento	6.4
54454	7	Sololá	701	Sololá	3	Barraneche	10	Octubre	2023-11-10T00:00:00	2024-11-06T14:00:00	7	Dirección del viento	6.44
54455	7	Sololá	701	Sololá	3	Barraneche	10	Octubre	2023-11-10T00:00:00	2024-11-06T14:00:00	1	Precipitación	0
54456	7	Sololá	701	Sololá	3	Barraneche	10	Octubre	2023-11-10T00:00:00	2024-11-06T14:00:00	8	Radiación solar	185
54457	7	Sololá	701	Sololá	3	Barraneche	10	Octubre	2023-11-10T00:00:00	2024-11-06T15:00:00	2	Temperatura media	17.1
54458	7	Sololá	701	Sololá	3	Barraneche	10	Octubre	2023-11-10T00:00:00	2024-11-06T15:00:00	4	Temperatura máxima	17.1
54459	7	Sololá	701	Sololá	3	Barraneche	10	Octubre	2023-11-10T00:00:00	2024-11-06T15:00:00	3	Temperatura mínima	16
54460	7	Sololá	701	Sololá	3	Barraneche	10	Octubre	2023-11-10T00:00:00	2024-11-06T15:00:00	5	Humedad	79
54461	7	Sololá	701	Sololá	3	Barraneche	10	Octubre	2023-11-10T00:00:00	2024-11-06T15:00:00	6	Velocidad del viento	4.8
54462	7	Sololá	701	Sololá	3	Barraneche	10	Octubre	2023-11-10T00:00:00	2024-11-06T15:00:00	7	Dirección del viento	4.83
54463	7	Sololá	701	Sololá	3	Barraneche	10	Octubre	2023-11-10T00:00:00	2024-11-06T15:00:00	1	Precipitación	0
54464	7	Sololá	701	Sololá	3	Barraneche	10	Octubre	2023-11-10T00:00:00	2024-11-06T15:00:00	8	Radiación solar	184
54465	7	Sololá	701	Sololá	3	Barraneche	10	Octubre	2023-11-10T00:00:00	2024-11-06T16:00:00	2	Temperatura media	15.6
54466	7	Sololá	701	Sololá	3	Barraneche	10	Octubre	2023-11-10T00:00:00	2024-11-06T16:00:00	4	Temperatura máxima	17.3
54467	7	Sololá	701	Sololá	3	Barraneche	10	Octubre	2023-11-10T00:00:00	2024-11-06T16:00:00	3	Temperatura mínima	15.6
54468	7	Sololá	701	Sololá	3	Barraneche	10	Octubre	2023-11-10T00:00:00	2024-11-06T16:00:00	5	Humedad	84
54469	7	Sololá	701	Sololá	3	Barraneche	10	Octubre	2023-11-10T00:00:00	2024-11-06T16:00:00	6	Velocidad del viento	6.4
54470	7	Sololá	701	Sololá	3	Barraneche	10	Octubre	2023-11-10T00:00:00	2024-11-06T16:00:00	7	Dirección del viento	6.44
54471	7	Sololá	701	Sololá	3	Barraneche	10	Octubre	2023-11-10T00:00:00	2024-11-06T16:00:00	1	Precipitación	0
54472	7	Sololá	701	Sololá	3	Barraneche	10	Octubre	2023-11-10T00:00:00	2024-11-06T16:00:00	8	Radiación solar	92
54473	7	Sololá	701	Sololá	3	Barraneche	10	Octubre	2023-11-10T00:00:00	2024-11-06T17:00:00	2	Temperatura media	15.3
54474	7	Sololá	701	Sololá	3	Barraneche	10	Octubre	2023-11-10T00:00:00	2024-11-06T17:00:00	4	Temperatura máxima	15.6
54475	7	Sololá	701	Sololá	3	Barraneche	10	Octubre	2023-11-10T00:00:00	2024-11-06T17:00:00	3	Temperatura mínima	15.2
54476	7	Sololá	701	Sololá	3	Barraneche	10	Octubre	2023-11-10T00:00:00	2024-11-06T17:00:00	5	Humedad	84
54477	7	Sololá	701	Sololá	3	Barraneche	10	Octubre	2023-11-10T00:00:00	2024-11-06T17:00:00	6	Velocidad del viento	4.8
54478	7	Sololá	701	Sololá	3	Barraneche	10	Octubre	2023-11-10T00:00:00	2024-11-06T17:00:00	7	Dirección del viento	4.83
54479	7	Sololá	701	Sololá	3	Barraneche	10	Octubre	2023-11-10T00:00:00	2024-11-06T17:00:00	1	Precipitación	0
54480	7	Sololá	701	Sololá	3	Barraneche	10	Octubre	2023-11-10T00:00:00	2024-11-06T17:00:00	8	Radiación solar	18
54481	7	Sololá	701	Sololá	3	Barraneche	10	Octubre	2023-11-10T00:00:00	2024-11-06T18:00:00	2	Temperatura media	15.3
54482	7	Sololá	701	Sololá	3	Barraneche	10	Octubre	2023-11-10T00:00:00	2024-11-06T18:00:00	4	Temperatura máxima	15.4
54483	7	Sololá	701	Sololá	3	Barraneche	10	Octubre	2023-11-10T00:00:00	2024-11-06T18:00:00	3	Temperatura mínima	15.2
54484	7	Sololá	701	Sololá	3	Barraneche	10	Octubre	2023-11-10T00:00:00	2024-11-06T18:00:00	5	Humedad	84
54485	7	Sololá	701	Sololá	3	Barraneche	10	Octubre	2023-11-10T00:00:00	2024-11-06T18:00:00	6	Velocidad del viento	1.6
54486	7	Sololá	701	Sololá	3	Barraneche	10	Octubre	2023-11-10T00:00:00	2024-11-06T18:00:00	7	Dirección del viento	1.61
54487	7	Sololá	701	Sololá	3	Barraneche	10	Octubre	2023-11-10T00:00:00	2024-11-06T18:00:00	1	Precipitación	0
54488	7	Sololá	701	Sololá	3	Barraneche	10	Octubre	2023-11-10T00:00:00	2024-11-06T18:00:00	8	Radiación solar	1
54489	7	Sololá	701	Sololá	3	Barraneche	10	Octubre	2023-11-10T00:00:00	2024-11-06T19:00:00	2	Temperatura media	15.2
54490	7	Sololá	701	Sololá	3	Barraneche	10	Octubre	2023-11-10T00:00:00	2024-11-06T19:00:00	4	Temperatura máxima	15.3
54491	7	Sololá	701	Sololá	3	Barraneche	10	Octubre	2023-11-10T00:00:00	2024-11-06T19:00:00	3	Temperatura mínima	15.2
54492	7	Sololá	701	Sololá	3	Barraneche	10	Octubre	2023-11-10T00:00:00	2024-11-06T19:00:00	5	Humedad	85
54493	7	Sololá	701	Sololá	3	Barraneche	10	Octubre	2023-11-10T00:00:00	2024-11-06T19:00:00	6	Velocidad del viento	1.6
54494	7	Sololá	701	Sololá	3	Barraneche	10	Octubre	2023-11-10T00:00:00	2024-11-06T19:00:00	7	Dirección del viento	1.61
54495	7	Sololá	701	Sololá	3	Barraneche	10	Octubre	2023-11-10T00:00:00	2024-11-06T19:00:00	1	Precipitación	4
54496	7	Sololá	701	Sololá	3	Barraneche	10	Octubre	2023-11-10T00:00:00	2024-11-06T19:00:00	8	Radiación solar	0
54497	7	Sololá	701	Sololá	3	Barraneche	10	Octubre	2023-11-10T00:00:00	2024-11-06T20:00:00	2	Temperatura media	14.9
54498	7	Sololá	701	Sololá	3	Barraneche	10	Octubre	2023-11-10T00:00:00	2024-11-06T20:00:00	4	Temperatura máxima	15.2
54499	7	Sololá	701	Sololá	3	Barraneche	10	Octubre	2023-11-10T00:00:00	2024-11-06T20:00:00	3	Temperatura mínima	14.9
54500	7	Sololá	701	Sololá	3	Barraneche	10	Octubre	2023-11-10T00:00:00	2024-11-06T20:00:00	5	Humedad	85
54501	7	Sololá	701	Sololá	3	Barraneche	10	Octubre	2023-11-10T00:00:00	2024-11-06T20:00:00	6	Velocidad del viento	3.2
54502	7	Sololá	701	Sololá	3	Barraneche	10	Octubre	2023-11-10T00:00:00	2024-11-06T20:00:00	7	Dirección del viento	3.22
54503	7	Sololá	701	Sololá	3	Barraneche	10	Octubre	2023-11-10T00:00:00	2024-11-06T20:00:00	1	Precipitación	2.4
54504	7	Sololá	701	Sololá	3	Barraneche	10	Octubre	2023-11-10T00:00:00	2024-11-06T20:00:00	8	Radiación solar	0
54505	7	Sololá	701	Sololá	3	Barraneche	10	Octubre	2023-11-10T00:00:00	2024-11-06T21:00:00	2	Temperatura media	14.7
54506	7	Sololá	701	Sololá	3	Barraneche	10	Octubre	2023-11-10T00:00:00	2024-11-06T21:00:00	4	Temperatura máxima	15
54507	7	Sololá	701	Sololá	3	Barraneche	10	Octubre	2023-11-10T00:00:00	2024-11-06T21:00:00	3	Temperatura mínima	14.6
54508	7	Sololá	701	Sololá	3	Barraneche	10	Octubre	2023-11-10T00:00:00	2024-11-06T21:00:00	5	Humedad	86
54509	7	Sololá	701	Sololá	3	Barraneche	10	Octubre	2023-11-10T00:00:00	2024-11-06T21:00:00	6	Velocidad del viento	1.6
54510	7	Sololá	701	Sololá	3	Barraneche	10	Octubre	2023-11-10T00:00:00	2024-11-06T21:00:00	7	Dirección del viento	1.61
54511	7	Sololá	701	Sololá	3	Barraneche	10	Octubre	2023-11-10T00:00:00	2024-11-06T21:00:00	1	Precipitación	0.4
54512	7	Sololá	701	Sololá	3	Barraneche	10	Octubre	2023-11-10T00:00:00	2024-11-06T21:00:00	8	Radiación solar	0
54513	7	Sololá	701	Sololá	3	Barraneche	10	Octubre	2023-11-10T00:00:00	2024-11-06T22:00:00	2	Temperatura media	14.7
54514	7	Sololá	701	Sololá	3	Barraneche	10	Octubre	2023-11-10T00:00:00	2024-11-06T22:00:00	4	Temperatura máxima	14.8
54515	7	Sololá	701	Sololá	3	Barraneche	10	Octubre	2023-11-10T00:00:00	2024-11-06T22:00:00	3	Temperatura mínima	14.7
54516	7	Sololá	701	Sololá	3	Barraneche	10	Octubre	2023-11-10T00:00:00	2024-11-06T22:00:00	5	Humedad	86
54517	7	Sololá	701	Sololá	3	Barraneche	10	Octubre	2023-11-10T00:00:00	2024-11-06T22:00:00	6	Velocidad del viento	1.6
54518	7	Sololá	701	Sololá	3	Barraneche	10	Octubre	2023-11-10T00:00:00	2024-11-06T22:00:00	7	Dirección del viento	1.61
54519	7	Sololá	701	Sololá	3	Barraneche	10	Octubre	2023-11-10T00:00:00	2024-11-06T22:00:00	1	Precipitación	0.2
54520	7	Sololá	701	Sololá	3	Barraneche	10	Octubre	2023-11-10T00:00:00	2024-11-06T22:00:00	8	Radiación solar	0
54521	7	Sololá	701	Sololá	3	Barraneche	10	Octubre	2023-11-10T00:00:00	2024-11-06T23:00:00	2	Temperatura media	14.6
54522	7	Sololá	701	Sololá	3	Barraneche	10	Octubre	2023-11-10T00:00:00	2024-11-06T23:00:00	4	Temperatura máxima	14.8
54523	7	Sololá	701	Sololá	3	Barraneche	10	Octubre	2023-11-10T00:00:00	2024-11-06T23:00:00	3	Temperatura mínima	14.6
54524	7	Sololá	701	Sololá	3	Barraneche	10	Octubre	2023-11-10T00:00:00	2024-11-06T23:00:00	5	Humedad	86
54525	7	Sololá	701	Sololá	3	Barraneche	10	Octubre	2023-11-10T00:00:00	2024-11-06T23:00:00	6	Velocidad del viento	1.6
54526	7	Sololá	701	Sololá	3	Barraneche	10	Octubre	2023-11-10T00:00:00	2024-11-06T23:00:00	7	Dirección del viento	1.61
54527	7	Sololá	701	Sololá	3	Barraneche	10	Octubre	2023-11-10T00:00:00	2024-11-06T23:00:00	1	Precipitación	0.2
54528	7	Sololá	701	Sololá	3	Barraneche	10	Octubre	2023-11-10T00:00:00	2024-11-06T23:00:00	8	Radiación solar	0
54529	7	Sololá	701	Sololá	3	Barraneche	10	Octubre	2023-12-10T00:00:00	2024-11-06T00:00:00	2	Temperatura media	14.6
54530	7	Sololá	701	Sololá	3	Barraneche	10	Octubre	2023-12-10T00:00:00	2024-11-06T00:00:00	4	Temperatura máxima	14.7
54531	7	Sololá	701	Sololá	3	Barraneche	10	Octubre	2023-12-10T00:00:00	2024-11-06T00:00:00	3	Temperatura mínima	14.6
54532	7	Sololá	701	Sololá	3	Barraneche	10	Octubre	2023-12-10T00:00:00	2024-11-06T00:00:00	5	Humedad	86
54533	7	Sololá	701	Sololá	3	Barraneche	10	Octubre	2023-12-10T00:00:00	2024-11-06T00:00:00	6	Velocidad del viento	1.6
54534	7	Sololá	701	Sololá	3	Barraneche	10	Octubre	2023-12-10T00:00:00	2024-11-06T00:00:00	7	Dirección del viento	1.61
54535	7	Sololá	701	Sololá	3	Barraneche	10	Octubre	2023-12-10T00:00:00	2024-11-06T00:00:00	1	Precipitación	0
54536	7	Sololá	701	Sololá	3	Barraneche	10	Octubre	2023-12-10T00:00:00	2024-11-06T00:00:00	8	Radiación solar	0
54537	7	Sololá	701	Sololá	3	Barraneche	10	Octubre	2023-12-10T00:00:00	2024-11-06T01:00:00	2	Temperatura media	14.2
54538	7	Sololá	701	Sololá	3	Barraneche	10	Octubre	2023-12-10T00:00:00	2024-11-06T01:00:00	4	Temperatura máxima	14.6
54539	7	Sololá	701	Sololá	3	Barraneche	10	Octubre	2023-12-10T00:00:00	2024-11-06T01:00:00	3	Temperatura mínima	14.1
54540	7	Sololá	701	Sololá	3	Barraneche	10	Octubre	2023-12-10T00:00:00	2024-11-06T01:00:00	5	Humedad	86
54541	7	Sololá	701	Sololá	3	Barraneche	10	Octubre	2023-12-10T00:00:00	2024-11-06T01:00:00	6	Velocidad del viento	1.6
54542	7	Sololá	701	Sololá	3	Barraneche	10	Octubre	2023-12-10T00:00:00	2024-11-06T01:00:00	7	Dirección del viento	1.61
54543	7	Sololá	701	Sololá	3	Barraneche	10	Octubre	2023-12-10T00:00:00	2024-11-06T01:00:00	1	Precipitación	0
54544	7	Sololá	701	Sololá	3	Barraneche	10	Octubre	2023-12-10T00:00:00	2024-11-06T01:00:00	8	Radiación solar	0
54545	7	Sololá	701	Sololá	3	Barraneche	10	Octubre	2023-12-10T00:00:00	2024-11-06T02:00:00	2	Temperatura media	14.3
54546	7	Sololá	701	Sololá	3	Barraneche	10	Octubre	2023-12-10T00:00:00	2024-11-06T02:00:00	4	Temperatura máxima	14.4
54547	7	Sololá	701	Sololá	3	Barraneche	10	Octubre	2023-12-10T00:00:00	2024-11-06T02:00:00	3	Temperatura mínima	14.1
54548	7	Sololá	701	Sololá	3	Barraneche	10	Octubre	2023-12-10T00:00:00	2024-11-06T02:00:00	5	Humedad	86
54549	7	Sololá	701	Sololá	3	Barraneche	10	Octubre	2023-12-10T00:00:00	2024-11-06T02:00:00	6	Velocidad del viento	0
54550	7	Sololá	701	Sololá	3	Barraneche	10	Octubre	2023-12-10T00:00:00	2024-11-06T02:00:00	7	Dirección del viento	0
54551	7	Sololá	701	Sololá	3	Barraneche	10	Octubre	2023-12-10T00:00:00	2024-11-06T02:00:00	1	Precipitación	0
54552	7	Sololá	701	Sololá	3	Barraneche	10	Octubre	2023-12-10T00:00:00	2024-11-06T02:00:00	8	Radiación solar	0
54553	7	Sololá	701	Sololá	3	Barraneche	10	Octubre	2023-12-10T00:00:00	2024-11-06T03:00:00	2	Temperatura media	14.3
54554	7	Sololá	701	Sololá	3	Barraneche	10	Octubre	2023-12-10T00:00:00	2024-11-06T03:00:00	4	Temperatura máxima	14.3
54555	7	Sololá	701	Sololá	3	Barraneche	10	Octubre	2023-12-10T00:00:00	2024-11-06T03:00:00	3	Temperatura mínima	14.2
54556	7	Sololá	701	Sololá	3	Barraneche	10	Octubre	2023-12-10T00:00:00	2024-11-06T03:00:00	5	Humedad	86
54557	7	Sololá	701	Sololá	3	Barraneche	10	Octubre	2023-12-10T00:00:00	2024-11-06T03:00:00	6	Velocidad del viento	0
54558	7	Sololá	701	Sololá	3	Barraneche	10	Octubre	2023-12-10T00:00:00	2024-11-06T03:00:00	7	Dirección del viento	0
54559	7	Sololá	701	Sololá	3	Barraneche	10	Octubre	2023-12-10T00:00:00	2024-11-06T03:00:00	1	Precipitación	0
54560	7	Sololá	701	Sololá	3	Barraneche	10	Octubre	2023-12-10T00:00:00	2024-11-06T03:00:00	8	Radiación solar	0
54561	7	Sololá	701	Sololá	3	Barraneche	10	Octubre	2023-12-10T00:00:00	2024-11-06T04:00:00	2	Temperatura media	14.1
54562	7	Sololá	701	Sololá	3	Barraneche	10	Octubre	2023-12-10T00:00:00	2024-11-06T04:00:00	4	Temperatura máxima	14.3
54563	7	Sololá	701	Sololá	3	Barraneche	10	Octubre	2023-12-10T00:00:00	2024-11-06T04:00:00	3	Temperatura mínima	14.1
54564	7	Sololá	701	Sololá	3	Barraneche	10	Octubre	2023-12-10T00:00:00	2024-11-06T04:00:00	5	Humedad	86
54565	7	Sololá	701	Sololá	3	Barraneche	10	Octubre	2023-12-10T00:00:00	2024-11-06T04:00:00	6	Velocidad del viento	1.6
54566	7	Sololá	701	Sololá	3	Barraneche	10	Octubre	2023-12-10T00:00:00	2024-11-06T04:00:00	7	Dirección del viento	1.61
54567	7	Sololá	701	Sololá	3	Barraneche	10	Octubre	2023-12-10T00:00:00	2024-11-06T04:00:00	1	Precipitación	0
54568	7	Sololá	701	Sololá	3	Barraneche	10	Octubre	2023-12-10T00:00:00	2024-11-06T04:00:00	8	Radiación solar	0
54569	7	Sololá	701	Sololá	3	Barraneche	10	Octubre	2023-12-10T00:00:00	2024-11-06T05:00:00	2	Temperatura media	13.6
54570	7	Sololá	701	Sololá	3	Barraneche	10	Octubre	2023-12-10T00:00:00	2024-11-06T05:00:00	4	Temperatura máxima	14.1
54571	7	Sololá	701	Sololá	3	Barraneche	10	Octubre	2023-12-10T00:00:00	2024-11-06T05:00:00	3	Temperatura mínima	13.4
54572	7	Sololá	701	Sololá	3	Barraneche	10	Octubre	2023-12-10T00:00:00	2024-11-06T05:00:00	5	Humedad	86
54573	7	Sololá	701	Sololá	3	Barraneche	10	Octubre	2023-12-10T00:00:00	2024-11-06T05:00:00	6	Velocidad del viento	1.6
54574	7	Sololá	701	Sololá	3	Barraneche	10	Octubre	2023-12-10T00:00:00	2024-11-06T05:00:00	7	Dirección del viento	1.61
54575	7	Sololá	701	Sololá	3	Barraneche	10	Octubre	2023-12-10T00:00:00	2024-11-06T05:00:00	1	Precipitación	0
54576	7	Sololá	701	Sololá	3	Barraneche	10	Octubre	2023-12-10T00:00:00	2024-11-06T05:00:00	8	Radiación solar	0
54577	7	Sololá	701	Sololá	3	Barraneche	10	Octubre	2023-12-10T00:00:00	2024-11-06T06:00:00	2	Temperatura media	12.3
54578	7	Sololá	701	Sololá	3	Barraneche	10	Octubre	2023-12-10T00:00:00	2024-11-06T06:00:00	4	Temperatura máxima	13.6
54579	7	Sololá	701	Sololá	3	Barraneche	10	Octubre	2023-12-10T00:00:00	2024-11-06T06:00:00	3	Temperatura mínima	12.3
54580	7	Sololá	701	Sololá	3	Barraneche	10	Octubre	2023-12-10T00:00:00	2024-11-06T06:00:00	5	Humedad	83
54581	7	Sololá	701	Sololá	3	Barraneche	10	Octubre	2023-12-10T00:00:00	2024-11-06T06:00:00	6	Velocidad del viento	6.4
54582	7	Sololá	701	Sololá	3	Barraneche	10	Octubre	2023-12-10T00:00:00	2024-11-06T06:00:00	7	Dirección del viento	6.44
54583	7	Sololá	701	Sololá	3	Barraneche	10	Octubre	2023-12-10T00:00:00	2024-11-06T06:00:00	1	Precipitación	0
54584	7	Sololá	701	Sololá	3	Barraneche	10	Octubre	2023-12-10T00:00:00	2024-11-06T06:00:00	8	Radiación solar	1
54585	7	Sololá	701	Sololá	3	Barraneche	10	Octubre	2023-12-10T00:00:00	2024-11-06T07:00:00	2	Temperatura media	13.4
54586	7	Sololá	701	Sololá	3	Barraneche	10	Octubre	2023-12-10T00:00:00	2024-11-06T07:00:00	4	Temperatura máxima	13.4
54587	7	Sololá	701	Sololá	3	Barraneche	10	Octubre	2023-12-10T00:00:00	2024-11-06T07:00:00	3	Temperatura mínima	12.3
54588	7	Sololá	701	Sololá	3	Barraneche	10	Octubre	2023-12-10T00:00:00	2024-11-06T07:00:00	5	Humedad	82
54589	7	Sololá	701	Sololá	3	Barraneche	10	Octubre	2023-12-10T00:00:00	2024-11-06T07:00:00	6	Velocidad del viento	6.4
54590	7	Sololá	701	Sololá	3	Barraneche	10	Octubre	2023-12-10T00:00:00	2024-11-06T07:00:00	7	Dirección del viento	6.44
54591	7	Sololá	701	Sololá	3	Barraneche	10	Octubre	2023-12-10T00:00:00	2024-11-06T07:00:00	1	Precipitación	0
54592	7	Sololá	701	Sololá	3	Barraneche	10	Octubre	2023-12-10T00:00:00	2024-11-06T07:00:00	8	Radiación solar	64
54593	7	Sololá	701	Sololá	3	Barraneche	10	Octubre	2023-12-10T00:00:00	2024-11-06T08:00:00	2	Temperatura media	17.3
54594	7	Sololá	701	Sololá	3	Barraneche	10	Octubre	2023-12-10T00:00:00	2024-11-06T08:00:00	4	Temperatura máxima	17.3
54595	7	Sololá	701	Sololá	3	Barraneche	10	Octubre	2023-12-10T00:00:00	2024-11-06T08:00:00	3	Temperatura mínima	13.4
54596	7	Sololá	701	Sololá	3	Barraneche	10	Octubre	2023-12-10T00:00:00	2024-11-06T08:00:00	5	Humedad	75
54597	7	Sololá	701	Sololá	3	Barraneche	10	Octubre	2023-12-10T00:00:00	2024-11-06T08:00:00	6	Velocidad del viento	4.8
54598	7	Sololá	701	Sololá	3	Barraneche	10	Octubre	2023-12-10T00:00:00	2024-11-06T08:00:00	7	Dirección del viento	4.83
54599	7	Sololá	701	Sololá	3	Barraneche	10	Octubre	2023-12-10T00:00:00	2024-11-06T08:00:00	1	Precipitación	0
54600	7	Sololá	701	Sololá	3	Barraneche	10	Octubre	2023-12-10T00:00:00	2024-11-06T08:00:00	8	Radiación solar	346
54601	7	Sololá	701	Sololá	3	Barraneche	10	Octubre	2023-12-10T00:00:00	2024-11-06T09:00:00	2	Temperatura media	18.8
54602	7	Sololá	701	Sololá	3	Barraneche	10	Octubre	2023-12-10T00:00:00	2024-11-06T09:00:00	4	Temperatura máxima	18.8
54603	7	Sololá	701	Sololá	3	Barraneche	10	Octubre	2023-12-10T00:00:00	2024-11-06T09:00:00	3	Temperatura mínima	17.4
54604	7	Sololá	701	Sololá	3	Barraneche	10	Octubre	2023-12-10T00:00:00	2024-11-06T09:00:00	5	Humedad	68
54605	7	Sololá	701	Sololá	3	Barraneche	10	Octubre	2023-12-10T00:00:00	2024-11-06T09:00:00	6	Velocidad del viento	4.8
54606	7	Sololá	701	Sololá	3	Barraneche	10	Octubre	2023-12-10T00:00:00	2024-11-06T09:00:00	7	Dirección del viento	4.83
54607	7	Sololá	701	Sololá	3	Barraneche	10	Octubre	2023-12-10T00:00:00	2024-11-06T09:00:00	1	Precipitación	0
54608	7	Sololá	701	Sololá	3	Barraneche	10	Octubre	2023-12-10T00:00:00	2024-11-06T09:00:00	8	Radiación solar	520
54609	7	Sololá	701	Sololá	3	Barraneche	10	Octubre	2023-12-10T00:00:00	2024-11-06T10:00:00	2	Temperatura media	17.1
54610	7	Sololá	701	Sololá	3	Barraneche	10	Octubre	2023-12-10T00:00:00	2024-11-06T10:00:00	4	Temperatura máxima	18.9
54611	7	Sololá	701	Sololá	3	Barraneche	10	Octubre	2023-12-10T00:00:00	2024-11-06T10:00:00	3	Temperatura mínima	16.8
54612	7	Sololá	701	Sololá	3	Barraneche	10	Octubre	2023-12-10T00:00:00	2024-11-06T10:00:00	5	Humedad	80
54613	7	Sololá	701	Sololá	3	Barraneche	10	Octubre	2023-12-10T00:00:00	2024-11-06T10:00:00	6	Velocidad del viento	8
54614	7	Sololá	701	Sololá	3	Barraneche	10	Octubre	2023-12-10T00:00:00	2024-11-06T10:00:00	7	Dirección del viento	8.05
54615	7	Sololá	701	Sololá	3	Barraneche	10	Octubre	2023-12-10T00:00:00	2024-11-06T10:00:00	1	Precipitación	0
54616	7	Sololá	701	Sololá	3	Barraneche	10	Octubre	2023-12-10T00:00:00	2024-11-06T10:00:00	8	Radiación solar	526
54617	7	Sololá	701	Sololá	3	Barraneche	10	Octubre	2023-12-10T00:00:00	2024-11-06T11:00:00	2	Temperatura media	19.3
54618	7	Sololá	701	Sololá	3	Barraneche	10	Octubre	2023-12-10T00:00:00	2024-11-06T11:00:00	4	Temperatura máxima	19.4
54619	7	Sololá	701	Sololá	3	Barraneche	10	Octubre	2023-12-10T00:00:00	2024-11-06T11:00:00	3	Temperatura mínima	17.1
54620	7	Sololá	701	Sololá	3	Barraneche	10	Octubre	2023-12-10T00:00:00	2024-11-06T11:00:00	5	Humedad	73
54621	7	Sololá	701	Sololá	3	Barraneche	10	Octubre	2023-12-10T00:00:00	2024-11-06T11:00:00	6	Velocidad del viento	4.8
54622	7	Sololá	701	Sololá	3	Barraneche	10	Octubre	2023-12-10T00:00:00	2024-11-06T11:00:00	7	Dirección del viento	4.83
54623	7	Sololá	701	Sololá	3	Barraneche	10	Octubre	2023-12-10T00:00:00	2024-11-06T11:00:00	1	Precipitación	0
54624	7	Sololá	701	Sololá	3	Barraneche	10	Octubre	2023-12-10T00:00:00	2024-11-06T11:00:00	8	Radiación solar	723
54625	7	Sololá	701	Sololá	3	Barraneche	10	Octubre	2023-12-10T00:00:00	2024-11-06T12:00:00	2	Temperatura media	19.2
54626	7	Sololá	701	Sololá	3	Barraneche	10	Octubre	2023-12-10T00:00:00	2024-11-06T12:00:00	4	Temperatura máxima	19.8
54627	7	Sololá	701	Sololá	3	Barraneche	10	Octubre	2023-12-10T00:00:00	2024-11-06T12:00:00	3	Temperatura mínima	19.2
54628	7	Sololá	701	Sololá	3	Barraneche	10	Octubre	2023-12-10T00:00:00	2024-11-06T12:00:00	5	Humedad	74
54629	7	Sololá	701	Sololá	3	Barraneche	10	Octubre	2023-12-10T00:00:00	2024-11-06T12:00:00	6	Velocidad del viento	8
54630	7	Sololá	701	Sololá	3	Barraneche	10	Octubre	2023-12-10T00:00:00	2024-11-06T12:00:00	7	Dirección del viento	8.05
54631	7	Sololá	701	Sololá	3	Barraneche	10	Octubre	2023-12-10T00:00:00	2024-11-06T12:00:00	1	Precipitación	0
54632	7	Sololá	701	Sololá	3	Barraneche	10	Octubre	2023-12-10T00:00:00	2024-11-06T12:00:00	8	Radiación solar	591
54633	7	Sololá	701	Sololá	3	Barraneche	10	Octubre	2023-12-10T00:00:00	2024-11-06T13:00:00	2	Temperatura media	19.2
54634	7	Sololá	701	Sololá	3	Barraneche	10	Octubre	2023-12-10T00:00:00	2024-11-06T13:00:00	4	Temperatura máxima	19.8
54635	7	Sololá	701	Sololá	3	Barraneche	10	Octubre	2023-12-10T00:00:00	2024-11-06T13:00:00	3	Temperatura mínima	19.2
54636	7	Sololá	701	Sololá	3	Barraneche	10	Octubre	2023-12-10T00:00:00	2024-11-06T13:00:00	5	Humedad	69
54637	7	Sololá	701	Sololá	3	Barraneche	10	Octubre	2023-12-10T00:00:00	2024-11-06T13:00:00	6	Velocidad del viento	8
54638	7	Sololá	701	Sololá	3	Barraneche	10	Octubre	2023-12-10T00:00:00	2024-11-06T13:00:00	7	Dirección del viento	8.05
54639	7	Sololá	701	Sololá	3	Barraneche	10	Octubre	2023-12-10T00:00:00	2024-11-06T13:00:00	1	Precipitación	0
54640	7	Sololá	701	Sololá	3	Barraneche	10	Octubre	2023-12-10T00:00:00	2024-11-06T13:00:00	8	Radiación solar	540
54641	7	Sololá	701	Sololá	3	Barraneche	10	Octubre	2023-12-10T00:00:00	2024-11-06T14:00:00	2	Temperatura media	18.9
54642	7	Sololá	701	Sololá	3	Barraneche	10	Octubre	2023-12-10T00:00:00	2024-11-06T14:00:00	4	Temperatura máxima	19.4
54643	7	Sololá	701	Sololá	3	Barraneche	10	Octubre	2023-12-10T00:00:00	2024-11-06T14:00:00	3	Temperatura mínima	18.6
54644	7	Sololá	701	Sololá	3	Barraneche	10	Octubre	2023-12-10T00:00:00	2024-11-06T14:00:00	5	Humedad	73
54645	7	Sololá	701	Sololá	3	Barraneche	10	Octubre	2023-12-10T00:00:00	2024-11-06T14:00:00	6	Velocidad del viento	6.4
54646	7	Sololá	701	Sololá	3	Barraneche	10	Octubre	2023-12-10T00:00:00	2024-11-06T14:00:00	7	Dirección del viento	6.44
54647	7	Sololá	701	Sololá	3	Barraneche	10	Octubre	2023-12-10T00:00:00	2024-11-06T14:00:00	1	Precipitación	0
54648	7	Sololá	701	Sololá	3	Barraneche	10	Octubre	2023-12-10T00:00:00	2024-11-06T14:00:00	8	Radiación solar	350
54649	7	Sololá	701	Sololá	3	Barraneche	10	Octubre	2023-12-10T00:00:00	2024-11-06T15:00:00	2	Temperatura media	17.2
54650	7	Sololá	701	Sololá	3	Barraneche	10	Octubre	2023-12-10T00:00:00	2024-11-06T15:00:00	4	Temperatura máxima	19.2
54651	7	Sololá	701	Sololá	3	Barraneche	10	Octubre	2023-12-10T00:00:00	2024-11-06T15:00:00	3	Temperatura mínima	17.2
54652	7	Sololá	701	Sololá	3	Barraneche	10	Octubre	2023-12-10T00:00:00	2024-11-06T15:00:00	5	Humedad	80
54653	7	Sololá	701	Sololá	3	Barraneche	10	Octubre	2023-12-10T00:00:00	2024-11-06T15:00:00	6	Velocidad del viento	9.7
54654	7	Sololá	701	Sololá	3	Barraneche	10	Octubre	2023-12-10T00:00:00	2024-11-06T15:00:00	7	Dirección del viento	9.66
54655	7	Sololá	701	Sololá	3	Barraneche	10	Octubre	2023-12-10T00:00:00	2024-11-06T15:00:00	1	Precipitación	0
54656	7	Sololá	701	Sololá	3	Barraneche	10	Octubre	2023-12-10T00:00:00	2024-11-06T15:00:00	8	Radiación solar	320
54657	7	Sololá	701	Sololá	3	Barraneche	10	Octubre	2023-12-10T00:00:00	2024-11-06T16:00:00	2	Temperatura media	16.2
54658	7	Sololá	701	Sololá	3	Barraneche	10	Octubre	2023-12-10T00:00:00	2024-11-06T16:00:00	4	Temperatura máxima	17.3
54659	7	Sololá	701	Sololá	3	Barraneche	10	Octubre	2023-12-10T00:00:00	2024-11-06T16:00:00	3	Temperatura mínima	16.2
54660	7	Sololá	701	Sololá	3	Barraneche	10	Octubre	2023-12-10T00:00:00	2024-11-06T16:00:00	5	Humedad	83
54661	7	Sololá	701	Sololá	3	Barraneche	10	Octubre	2023-12-10T00:00:00	2024-11-06T16:00:00	6	Velocidad del viento	4.8
54662	7	Sololá	701	Sololá	3	Barraneche	10	Octubre	2023-12-10T00:00:00	2024-11-06T16:00:00	7	Dirección del viento	4.83
54663	7	Sololá	701	Sololá	3	Barraneche	10	Octubre	2023-12-10T00:00:00	2024-11-06T16:00:00	1	Precipitación	0.2
54664	7	Sololá	701	Sololá	3	Barraneche	10	Octubre	2023-12-10T00:00:00	2024-11-06T16:00:00	8	Radiación solar	60
54665	7	Sololá	701	Sololá	3	Barraneche	10	Octubre	2023-12-10T00:00:00	2024-11-06T17:00:00	2	Temperatura media	15.9
54666	7	Sololá	701	Sololá	3	Barraneche	10	Octubre	2023-12-10T00:00:00	2024-11-06T17:00:00	4	Temperatura máxima	16.3
54667	7	Sololá	701	Sololá	3	Barraneche	10	Octubre	2023-12-10T00:00:00	2024-11-06T17:00:00	3	Temperatura mínima	15.9
54668	7	Sololá	701	Sololá	3	Barraneche	10	Octubre	2023-12-10T00:00:00	2024-11-06T17:00:00	5	Humedad	84
54669	7	Sololá	701	Sololá	3	Barraneche	10	Octubre	2023-12-10T00:00:00	2024-11-06T17:00:00	6	Velocidad del viento	3.2
54670	7	Sololá	701	Sololá	3	Barraneche	10	Octubre	2023-12-10T00:00:00	2024-11-06T17:00:00	7	Dirección del viento	3.22
54671	7	Sololá	701	Sololá	3	Barraneche	10	Octubre	2023-12-10T00:00:00	2024-11-06T17:00:00	1	Precipitación	0.2
54672	7	Sololá	701	Sololá	3	Barraneche	10	Octubre	2023-12-10T00:00:00	2024-11-06T17:00:00	8	Radiación solar	42
54673	7	Sololá	701	Sololá	3	Barraneche	10	Octubre	2023-12-10T00:00:00	2024-11-06T18:00:00	2	Temperatura media	15.6
54674	7	Sololá	701	Sololá	3	Barraneche	10	Octubre	2023-12-10T00:00:00	2024-11-06T18:00:00	4	Temperatura máxima	15.9
54675	7	Sololá	701	Sololá	3	Barraneche	10	Octubre	2023-12-10T00:00:00	2024-11-06T18:00:00	3	Temperatura mínima	15.6
54676	7	Sololá	701	Sololá	3	Barraneche	10	Octubre	2023-12-10T00:00:00	2024-11-06T18:00:00	5	Humedad	85
54677	7	Sololá	701	Sololá	3	Barraneche	10	Octubre	2023-12-10T00:00:00	2024-11-06T18:00:00	6	Velocidad del viento	3.2
54678	7	Sololá	701	Sololá	3	Barraneche	10	Octubre	2023-12-10T00:00:00	2024-11-06T18:00:00	7	Dirección del viento	3.22
54679	7	Sololá	701	Sololá	3	Barraneche	10	Octubre	2023-12-10T00:00:00	2024-11-06T18:00:00	1	Precipitación	1
54680	7	Sololá	701	Sololá	3	Barraneche	10	Octubre	2023-12-10T00:00:00	2024-11-06T18:00:00	8	Radiación solar	1
54681	7	Sololá	701	Sololá	3	Barraneche	10	Octubre	2023-12-10T00:00:00	2024-11-06T19:00:00	2	Temperatura media	15.6
54682	7	Sololá	701	Sololá	3	Barraneche	10	Octubre	2023-12-10T00:00:00	2024-11-06T19:00:00	4	Temperatura máxima	15.6
54683	7	Sololá	701	Sololá	3	Barraneche	10	Octubre	2023-12-10T00:00:00	2024-11-06T19:00:00	3	Temperatura mínima	15.4
54684	7	Sololá	701	Sololá	3	Barraneche	10	Octubre	2023-12-10T00:00:00	2024-11-06T19:00:00	5	Humedad	85
54685	7	Sololá	701	Sololá	3	Barraneche	10	Octubre	2023-12-10T00:00:00	2024-11-06T19:00:00	6	Velocidad del viento	1.6
54686	7	Sololá	701	Sololá	3	Barraneche	10	Octubre	2023-12-10T00:00:00	2024-11-06T19:00:00	7	Dirección del viento	1.61
54687	7	Sololá	701	Sololá	3	Barraneche	10	Octubre	2023-12-10T00:00:00	2024-11-06T19:00:00	1	Precipitación	0.2
54688	7	Sololá	701	Sololá	3	Barraneche	10	Octubre	2023-12-10T00:00:00	2024-11-06T19:00:00	8	Radiación solar	0
54689	7	Sololá	701	Sololá	3	Barraneche	10	Octubre	2023-12-10T00:00:00	2024-11-06T20:00:00	2	Temperatura media	15.5
54690	7	Sololá	701	Sololá	3	Barraneche	10	Octubre	2023-12-10T00:00:00	2024-11-06T20:00:00	4	Temperatura máxima	15.7
54691	7	Sololá	701	Sololá	3	Barraneche	10	Octubre	2023-12-10T00:00:00	2024-11-06T20:00:00	3	Temperatura mínima	15.4
54692	7	Sololá	701	Sololá	3	Barraneche	10	Octubre	2023-12-10T00:00:00	2024-11-06T20:00:00	5	Humedad	85
54693	7	Sololá	701	Sololá	3	Barraneche	10	Octubre	2023-12-10T00:00:00	2024-11-06T20:00:00	6	Velocidad del viento	1.6
54694	7	Sololá	701	Sololá	3	Barraneche	10	Octubre	2023-12-10T00:00:00	2024-11-06T20:00:00	7	Dirección del viento	1.61
54695	7	Sololá	701	Sololá	3	Barraneche	10	Octubre	2023-12-10T00:00:00	2024-11-06T20:00:00	1	Precipitación	0
54696	7	Sololá	701	Sololá	3	Barraneche	10	Octubre	2023-12-10T00:00:00	2024-11-06T20:00:00	8	Radiación solar	0
54697	7	Sololá	701	Sololá	3	Barraneche	10	Octubre	2023-12-10T00:00:00	2024-11-06T21:00:00	2	Temperatura media	15
54698	7	Sololá	701	Sololá	3	Barraneche	10	Octubre	2023-12-10T00:00:00	2024-11-06T21:00:00	4	Temperatura máxima	15.5
54699	7	Sololá	701	Sololá	3	Barraneche	10	Octubre	2023-12-10T00:00:00	2024-11-06T21:00:00	3	Temperatura mínima	14.9
54700	7	Sololá	701	Sololá	3	Barraneche	10	Octubre	2023-12-10T00:00:00	2024-11-06T21:00:00	5	Humedad	85
54701	7	Sololá	701	Sololá	3	Barraneche	10	Octubre	2023-12-10T00:00:00	2024-11-06T21:00:00	6	Velocidad del viento	3.2
54702	7	Sololá	701	Sololá	3	Barraneche	10	Octubre	2023-12-10T00:00:00	2024-11-06T21:00:00	7	Dirección del viento	3.22
54703	7	Sololá	701	Sololá	3	Barraneche	10	Octubre	2023-12-10T00:00:00	2024-11-06T21:00:00	1	Precipitación	0
54704	7	Sololá	701	Sololá	3	Barraneche	10	Octubre	2023-12-10T00:00:00	2024-11-06T21:00:00	8	Radiación solar	0
54705	7	Sololá	701	Sololá	3	Barraneche	10	Octubre	2023-12-10T00:00:00	2024-11-06T22:00:00	2	Temperatura media	14.4
54706	7	Sololá	701	Sololá	3	Barraneche	10	Octubre	2023-12-10T00:00:00	2024-11-06T22:00:00	4	Temperatura máxima	15.1
54707	7	Sololá	701	Sololá	3	Barraneche	10	Octubre	2023-12-10T00:00:00	2024-11-06T22:00:00	3	Temperatura mínima	14.4
54708	7	Sololá	701	Sololá	3	Barraneche	10	Octubre	2023-12-10T00:00:00	2024-11-06T22:00:00	5	Humedad	84
54709	7	Sololá	701	Sololá	3	Barraneche	10	Octubre	2023-12-10T00:00:00	2024-11-06T22:00:00	6	Velocidad del viento	3.2
54710	7	Sololá	701	Sololá	3	Barraneche	10	Octubre	2023-12-10T00:00:00	2024-11-06T22:00:00	7	Dirección del viento	3.22
54711	7	Sololá	701	Sololá	3	Barraneche	10	Octubre	2023-12-10T00:00:00	2024-11-06T22:00:00	1	Precipitación	0
54712	7	Sololá	701	Sololá	3	Barraneche	10	Octubre	2023-12-10T00:00:00	2024-11-06T22:00:00	8	Radiación solar	0
54713	7	Sololá	701	Sololá	3	Barraneche	10	Octubre	2023-12-10T00:00:00	2024-11-06T23:00:00	2	Temperatura media	14
54714	7	Sololá	701	Sololá	3	Barraneche	10	Octubre	2023-12-10T00:00:00	2024-11-06T23:00:00	4	Temperatura máxima	14.4
54715	7	Sololá	701	Sololá	3	Barraneche	10	Octubre	2023-12-10T00:00:00	2024-11-06T23:00:00	3	Temperatura mínima	14
54716	7	Sololá	701	Sololá	3	Barraneche	10	Octubre	2023-12-10T00:00:00	2024-11-06T23:00:00	5	Humedad	85
54717	7	Sololá	701	Sololá	3	Barraneche	10	Octubre	2023-12-10T00:00:00	2024-11-06T23:00:00	6	Velocidad del viento	3.2
54718	7	Sololá	701	Sololá	3	Barraneche	10	Octubre	2023-12-10T00:00:00	2024-11-06T23:00:00	7	Dirección del viento	3.22
54719	7	Sololá	701	Sololá	3	Barraneche	10	Octubre	2023-12-10T00:00:00	2024-11-06T23:00:00	1	Precipitación	0
54720	7	Sololá	701	Sololá	3	Barraneche	10	Octubre	2023-12-10T00:00:00	2024-11-06T23:00:00	8	Radiación solar	0
54721	7	Sololá	701	Sololá	3	Barraneche	10	Octubre	2023-10-13T00:00:00	2024-11-06T00:00:00	2	Temperatura media	13.2
54722	7	Sololá	701	Sololá	3	Barraneche	10	Octubre	2023-10-13T00:00:00	2024-11-06T00:00:00	4	Temperatura máxima	14
54723	7	Sololá	701	Sololá	3	Barraneche	10	Octubre	2023-10-13T00:00:00	2024-11-06T00:00:00	3	Temperatura mínima	13.1
54724	7	Sololá	701	Sololá	3	Barraneche	10	Octubre	2023-10-13T00:00:00	2024-11-06T00:00:00	5	Humedad	83
54725	7	Sololá	701	Sololá	3	Barraneche	10	Octubre	2023-10-13T00:00:00	2024-11-06T00:00:00	6	Velocidad del viento	4.8
54726	7	Sololá	701	Sololá	3	Barraneche	10	Octubre	2023-10-13T00:00:00	2024-11-06T00:00:00	7	Dirección del viento	4.83
54727	7	Sololá	701	Sololá	3	Barraneche	10	Octubre	2023-10-13T00:00:00	2024-11-06T00:00:00	1	Precipitación	0
54728	7	Sololá	701	Sololá	3	Barraneche	10	Octubre	2023-10-13T00:00:00	2024-11-06T00:00:00	8	Radiación solar	0
54729	7	Sololá	701	Sololá	3	Barraneche	10	Octubre	2023-10-13T00:00:00	2024-11-06T01:00:00	2	Temperatura media	14
54730	7	Sololá	701	Sololá	3	Barraneche	10	Octubre	2023-10-13T00:00:00	2024-11-06T01:00:00	4	Temperatura máxima	14.1
54731	7	Sololá	701	Sololá	3	Barraneche	10	Octubre	2023-10-13T00:00:00	2024-11-06T01:00:00	3	Temperatura mínima	13.2
54732	7	Sololá	701	Sololá	3	Barraneche	10	Octubre	2023-10-13T00:00:00	2024-11-06T01:00:00	5	Humedad	84
54733	7	Sololá	701	Sololá	3	Barraneche	10	Octubre	2023-10-13T00:00:00	2024-11-06T01:00:00	6	Velocidad del viento	1.6
54734	7	Sololá	701	Sololá	3	Barraneche	10	Octubre	2023-10-13T00:00:00	2024-11-06T01:00:00	7	Dirección del viento	1.61
54735	7	Sololá	701	Sololá	3	Barraneche	10	Octubre	2023-10-13T00:00:00	2024-11-06T01:00:00	1	Precipitación	0
54736	7	Sololá	701	Sololá	3	Barraneche	10	Octubre	2023-10-13T00:00:00	2024-11-06T01:00:00	8	Radiación solar	0
54737	7	Sololá	701	Sololá	3	Barraneche	10	Octubre	2023-10-13T00:00:00	2024-11-06T02:00:00	2	Temperatura media	13.2
54738	7	Sololá	701	Sololá	3	Barraneche	10	Octubre	2023-10-13T00:00:00	2024-11-06T02:00:00	4	Temperatura máxima	14.1
54739	7	Sololá	701	Sololá	3	Barraneche	10	Octubre	2023-10-13T00:00:00	2024-11-06T02:00:00	3	Temperatura mínima	13.2
54740	7	Sololá	701	Sololá	3	Barraneche	10	Octubre	2023-10-13T00:00:00	2024-11-06T02:00:00	5	Humedad	84
54741	7	Sololá	701	Sololá	3	Barraneche	10	Octubre	2023-10-13T00:00:00	2024-11-06T02:00:00	6	Velocidad del viento	1.6
54742	7	Sololá	701	Sololá	3	Barraneche	10	Octubre	2023-10-13T00:00:00	2024-11-06T02:00:00	7	Dirección del viento	1.61
54743	7	Sololá	701	Sololá	3	Barraneche	10	Octubre	2023-10-13T00:00:00	2024-11-06T02:00:00	1	Precipitación	0
54744	7	Sololá	701	Sololá	3	Barraneche	10	Octubre	2023-10-13T00:00:00	2024-11-06T02:00:00	8	Radiación solar	0
54745	7	Sololá	701	Sololá	3	Barraneche	10	Octubre	2023-10-13T00:00:00	2024-11-06T03:00:00	2	Temperatura media	12.4
54746	7	Sololá	701	Sololá	3	Barraneche	10	Octubre	2023-10-13T00:00:00	2024-11-06T03:00:00	4	Temperatura máxima	13.3
54747	7	Sololá	701	Sololá	3	Barraneche	10	Octubre	2023-10-13T00:00:00	2024-11-06T03:00:00	3	Temperatura mínima	12.4
54748	7	Sololá	701	Sololá	3	Barraneche	10	Octubre	2023-10-13T00:00:00	2024-11-06T03:00:00	5	Humedad	84
54749	7	Sololá	701	Sololá	3	Barraneche	10	Octubre	2023-10-13T00:00:00	2024-11-06T03:00:00	6	Velocidad del viento	3.2
54750	7	Sololá	701	Sololá	3	Barraneche	10	Octubre	2023-10-13T00:00:00	2024-11-06T03:00:00	7	Dirección del viento	3.22
54751	7	Sololá	701	Sololá	3	Barraneche	10	Octubre	2023-10-13T00:00:00	2024-11-06T03:00:00	1	Precipitación	0
54752	7	Sololá	701	Sololá	3	Barraneche	10	Octubre	2023-10-13T00:00:00	2024-11-06T03:00:00	8	Radiación solar	0
54753	7	Sololá	701	Sololá	3	Barraneche	10	Octubre	2023-10-13T00:00:00	2024-11-06T04:00:00	2	Temperatura media	12.5
54754	7	Sololá	701	Sololá	3	Barraneche	10	Octubre	2023-10-13T00:00:00	2024-11-06T04:00:00	4	Temperatura máxima	12.8
54755	7	Sololá	701	Sololá	3	Barraneche	10	Octubre	2023-10-13T00:00:00	2024-11-06T04:00:00	3	Temperatura mínima	12.4
54756	7	Sololá	701	Sololá	3	Barraneche	10	Octubre	2023-10-13T00:00:00	2024-11-06T04:00:00	5	Humedad	83
54757	7	Sololá	701	Sololá	3	Barraneche	10	Octubre	2023-10-13T00:00:00	2024-11-06T04:00:00	6	Velocidad del viento	3.2
54758	7	Sololá	701	Sololá	3	Barraneche	10	Octubre	2023-10-13T00:00:00	2024-11-06T04:00:00	7	Dirección del viento	3.22
54759	7	Sololá	701	Sololá	3	Barraneche	10	Octubre	2023-10-13T00:00:00	2024-11-06T04:00:00	1	Precipitación	0
54760	7	Sololá	701	Sololá	3	Barraneche	10	Octubre	2023-10-13T00:00:00	2024-11-06T04:00:00	8	Radiación solar	0
54761	7	Sololá	701	Sololá	3	Barraneche	10	Octubre	2023-10-13T00:00:00	2024-11-06T05:00:00	2	Temperatura media	12.2
54762	7	Sololá	701	Sololá	3	Barraneche	10	Octubre	2023-10-13T00:00:00	2024-11-06T05:00:00	4	Temperatura máxima	12.5
54763	7	Sololá	701	Sololá	3	Barraneche	10	Octubre	2023-10-13T00:00:00	2024-11-06T05:00:00	3	Temperatura mínima	11.9
54764	7	Sololá	701	Sololá	3	Barraneche	10	Octubre	2023-10-13T00:00:00	2024-11-06T05:00:00	5	Humedad	84
54765	7	Sololá	701	Sololá	3	Barraneche	10	Octubre	2023-10-13T00:00:00	2024-11-06T05:00:00	6	Velocidad del viento	3.2
54766	7	Sololá	701	Sololá	3	Barraneche	10	Octubre	2023-10-13T00:00:00	2024-11-06T05:00:00	7	Dirección del viento	3.22
54767	7	Sololá	701	Sololá	3	Barraneche	10	Octubre	2023-10-13T00:00:00	2024-11-06T05:00:00	1	Precipitación	0
54768	7	Sololá	701	Sololá	3	Barraneche	10	Octubre	2023-10-13T00:00:00	2024-11-06T05:00:00	8	Radiación solar	0
54769	7	Sololá	701	Sololá	3	Barraneche	10	Octubre	2023-10-13T00:00:00	2024-11-06T06:00:00	2	Temperatura media	11.8
54770	7	Sololá	701	Sololá	3	Barraneche	10	Octubre	2023-10-13T00:00:00	2024-11-06T06:00:00	4	Temperatura máxima	12.2
54771	7	Sololá	701	Sololá	3	Barraneche	10	Octubre	2023-10-13T00:00:00	2024-11-06T06:00:00	3	Temperatura mínima	11.8
54772	7	Sololá	701	Sololá	3	Barraneche	10	Octubre	2023-10-13T00:00:00	2024-11-06T06:00:00	5	Humedad	84
54773	7	Sololá	701	Sololá	3	Barraneche	10	Octubre	2023-10-13T00:00:00	2024-11-06T06:00:00	6	Velocidad del viento	3.2
54774	7	Sololá	701	Sololá	3	Barraneche	10	Octubre	2023-10-13T00:00:00	2024-11-06T06:00:00	7	Dirección del viento	3.22
54775	7	Sololá	701	Sololá	3	Barraneche	10	Octubre	2023-10-13T00:00:00	2024-11-06T06:00:00	1	Precipitación	0
54776	7	Sololá	701	Sololá	3	Barraneche	10	Octubre	2023-10-13T00:00:00	2024-11-06T06:00:00	8	Radiación solar	1
54777	7	Sololá	701	Sololá	3	Barraneche	10	Octubre	2023-10-13T00:00:00	2024-11-06T07:00:00	2	Temperatura media	13.6
54778	7	Sololá	701	Sololá	3	Barraneche	10	Octubre	2023-10-13T00:00:00	2024-11-06T07:00:00	4	Temperatura máxima	13.6
54779	7	Sololá	701	Sololá	3	Barraneche	10	Octubre	2023-10-13T00:00:00	2024-11-06T07:00:00	3	Temperatura mínima	11.8
54780	7	Sololá	701	Sololá	3	Barraneche	10	Octubre	2023-10-13T00:00:00	2024-11-06T07:00:00	5	Humedad	84
54781	7	Sololá	701	Sololá	3	Barraneche	10	Octubre	2023-10-13T00:00:00	2024-11-06T07:00:00	6	Velocidad del viento	4.8
54782	7	Sololá	701	Sololá	3	Barraneche	10	Octubre	2023-10-13T00:00:00	2024-11-06T07:00:00	7	Dirección del viento	4.83
54783	7	Sololá	701	Sololá	3	Barraneche	10	Octubre	2023-10-13T00:00:00	2024-11-06T07:00:00	1	Precipitación	0
54784	7	Sololá	701	Sololá	3	Barraneche	10	Octubre	2023-10-13T00:00:00	2024-11-06T07:00:00	8	Radiación solar	50
54785	7	Sololá	701	Sololá	3	Barraneche	10	Octubre	2023-10-13T00:00:00	2024-11-06T08:00:00	2	Temperatura media	17.2
54786	7	Sololá	701	Sololá	3	Barraneche	10	Octubre	2023-10-13T00:00:00	2024-11-06T08:00:00	4	Temperatura máxima	17.2
54787	7	Sololá	701	Sololá	3	Barraneche	10	Octubre	2023-10-13T00:00:00	2024-11-06T08:00:00	3	Temperatura mínima	13.6
54788	7	Sololá	701	Sololá	3	Barraneche	10	Octubre	2023-10-13T00:00:00	2024-11-06T08:00:00	5	Humedad	74
54789	7	Sololá	701	Sololá	3	Barraneche	10	Octubre	2023-10-13T00:00:00	2024-11-06T08:00:00	6	Velocidad del viento	4.8
54790	7	Sololá	701	Sololá	3	Barraneche	10	Octubre	2023-10-13T00:00:00	2024-11-06T08:00:00	7	Dirección del viento	4.83
54791	7	Sololá	701	Sololá	3	Barraneche	10	Octubre	2023-10-13T00:00:00	2024-11-06T08:00:00	1	Precipitación	0
54792	7	Sololá	701	Sololá	3	Barraneche	10	Octubre	2023-10-13T00:00:00	2024-11-06T08:00:00	8	Radiación solar	324
54793	7	Sololá	701	Sololá	3	Barraneche	10	Octubre	2023-10-13T00:00:00	2024-11-06T09:00:00	2	Temperatura media	20.6
54794	7	Sololá	701	Sololá	3	Barraneche	10	Octubre	2023-10-13T00:00:00	2024-11-06T09:00:00	4	Temperatura máxima	20.7
54795	7	Sololá	701	Sololá	3	Barraneche	10	Octubre	2023-10-13T00:00:00	2024-11-06T09:00:00	3	Temperatura mínima	17.3
54796	7	Sololá	701	Sololá	3	Barraneche	10	Octubre	2023-10-13T00:00:00	2024-11-06T09:00:00	5	Humedad	52
54797	7	Sololá	701	Sololá	3	Barraneche	10	Octubre	2023-10-13T00:00:00	2024-11-06T09:00:00	6	Velocidad del viento	3.2
54798	7	Sololá	701	Sololá	3	Barraneche	10	Octubre	2023-10-13T00:00:00	2024-11-06T09:00:00	7	Dirección del viento	3.22
54799	7	Sololá	701	Sololá	3	Barraneche	10	Octubre	2023-10-13T00:00:00	2024-11-06T09:00:00	1	Precipitación	0
54800	7	Sololá	701	Sololá	3	Barraneche	10	Octubre	2023-10-13T00:00:00	2024-11-06T09:00:00	8	Radiación solar	563
54801	7	Sololá	701	Sololá	3	Barraneche	10	Octubre	2023-10-13T00:00:00	2024-11-06T10:00:00	2	Temperatura media	20.4
54802	7	Sololá	701	Sololá	3	Barraneche	10	Octubre	2023-10-13T00:00:00	2024-11-06T10:00:00	4	Temperatura máxima	20.9
54803	7	Sololá	701	Sololá	3	Barraneche	10	Octubre	2023-10-13T00:00:00	2024-11-06T10:00:00	3	Temperatura mínima	20.3
54804	7	Sololá	701	Sololá	3	Barraneche	10	Octubre	2023-10-13T00:00:00	2024-11-06T10:00:00	5	Humedad	53
54805	7	Sololá	701	Sololá	3	Barraneche	10	Octubre	2023-10-13T00:00:00	2024-11-06T10:00:00	6	Velocidad del viento	8
54806	7	Sololá	701	Sololá	3	Barraneche	10	Octubre	2023-10-13T00:00:00	2024-11-06T10:00:00	7	Dirección del viento	8.05
54807	7	Sololá	701	Sololá	3	Barraneche	10	Octubre	2023-10-13T00:00:00	2024-11-06T10:00:00	1	Precipitación	0.2
54808	7	Sololá	701	Sololá	3	Barraneche	10	Octubre	2023-10-13T00:00:00	2024-11-06T10:00:00	8	Radiación solar	723
54809	7	Sololá	701	Sololá	3	Barraneche	10	Octubre	2023-10-13T00:00:00	2024-11-06T11:00:00	2	Temperatura media	19.1
54810	7	Sololá	701	Sololá	3	Barraneche	10	Octubre	2023-10-13T00:00:00	2024-11-06T11:00:00	4	Temperatura máxima	20.4
54811	7	Sololá	701	Sololá	3	Barraneche	10	Octubre	2023-10-13T00:00:00	2024-11-06T11:00:00	3	Temperatura mínima	18.8
54812	7	Sololá	701	Sololá	3	Barraneche	10	Octubre	2023-10-13T00:00:00	2024-11-06T11:00:00	5	Humedad	65
54813	7	Sololá	701	Sololá	3	Barraneche	10	Octubre	2023-10-13T00:00:00	2024-11-06T11:00:00	6	Velocidad del viento	8
54814	7	Sololá	701	Sololá	3	Barraneche	10	Octubre	2023-10-13T00:00:00	2024-11-06T11:00:00	7	Dirección del viento	8.05
54815	7	Sololá	701	Sololá	3	Barraneche	10	Octubre	2023-10-13T00:00:00	2024-11-06T11:00:00	1	Precipitación	0
54816	7	Sololá	701	Sololá	3	Barraneche	10	Octubre	2023-10-13T00:00:00	2024-11-06T11:00:00	8	Radiación solar	189
54817	7	Sololá	701	Sololá	3	Barraneche	10	Octubre	2023-10-13T00:00:00	2024-11-06T12:00:00	2	Temperatura media	17.9
54818	7	Sololá	701	Sololá	3	Barraneche	10	Octubre	2023-10-13T00:00:00	2024-11-06T12:00:00	4	Temperatura máxima	19.8
54819	7	Sololá	701	Sololá	3	Barraneche	10	Octubre	2023-10-13T00:00:00	2024-11-06T12:00:00	3	Temperatura mínima	17.9
54820	7	Sololá	701	Sololá	3	Barraneche	10	Octubre	2023-10-13T00:00:00	2024-11-06T12:00:00	5	Humedad	70
54821	7	Sololá	701	Sololá	3	Barraneche	10	Octubre	2023-10-13T00:00:00	2024-11-06T12:00:00	6	Velocidad del viento	14.5
54822	7	Sololá	701	Sololá	3	Barraneche	10	Octubre	2023-10-13T00:00:00	2024-11-06T12:00:00	7	Dirección del viento	14.48
54823	7	Sololá	701	Sololá	3	Barraneche	10	Octubre	2023-10-13T00:00:00	2024-11-06T12:00:00	1	Precipitación	0
54824	7	Sololá	701	Sololá	3	Barraneche	10	Octubre	2023-10-13T00:00:00	2024-11-06T12:00:00	8	Radiación solar	413
54825	7	Sololá	701	Sololá	3	Barraneche	10	Octubre	2023-10-13T00:00:00	2024-11-06T13:00:00	2	Temperatura media	17.7
54826	7	Sololá	701	Sololá	3	Barraneche	10	Octubre	2023-10-13T00:00:00	2024-11-06T13:00:00	4	Temperatura máxima	17.9
54827	7	Sololá	701	Sololá	3	Barraneche	10	Octubre	2023-10-13T00:00:00	2024-11-06T13:00:00	3	Temperatura mínima	16.7
54828	7	Sololá	701	Sololá	3	Barraneche	10	Octubre	2023-10-13T00:00:00	2024-11-06T13:00:00	5	Humedad	68
54829	7	Sololá	701	Sololá	3	Barraneche	10	Octubre	2023-10-13T00:00:00	2024-11-06T13:00:00	6	Velocidad del viento	8
54830	7	Sololá	701	Sololá	3	Barraneche	10	Octubre	2023-10-13T00:00:00	2024-11-06T13:00:00	7	Dirección del viento	8.05
54831	7	Sololá	701	Sololá	3	Barraneche	10	Octubre	2023-10-13T00:00:00	2024-11-06T13:00:00	1	Precipitación	0
54832	7	Sololá	701	Sololá	3	Barraneche	10	Octubre	2023-10-13T00:00:00	2024-11-06T13:00:00	8	Radiación solar	344
54833	7	Sololá	701	Sololá	3	Barraneche	10	Octubre	2023-10-13T00:00:00	2024-11-06T14:00:00	2	Temperatura media	16.8
54834	7	Sololá	701	Sololá	3	Barraneche	10	Octubre	2023-10-13T00:00:00	2024-11-06T14:00:00	4	Temperatura máxima	18.2
54835	7	Sololá	701	Sololá	3	Barraneche	10	Octubre	2023-10-13T00:00:00	2024-11-06T14:00:00	3	Temperatura mínima	16.8
54836	7	Sololá	701	Sololá	3	Barraneche	10	Octubre	2023-10-13T00:00:00	2024-11-06T14:00:00	5	Humedad	76
54837	7	Sololá	701	Sololá	3	Barraneche	10	Octubre	2023-10-13T00:00:00	2024-11-06T14:00:00	6	Velocidad del viento	6.4
54838	7	Sololá	701	Sololá	3	Barraneche	10	Octubre	2023-10-13T00:00:00	2024-11-06T14:00:00	7	Dirección del viento	6.44
54839	7	Sololá	701	Sololá	3	Barraneche	10	Octubre	2023-10-13T00:00:00	2024-11-06T14:00:00	1	Precipitación	0
54840	7	Sololá	701	Sololá	3	Barraneche	10	Octubre	2023-10-13T00:00:00	2024-11-06T14:00:00	8	Radiación solar	278
54841	7	Sololá	701	Sololá	3	Barraneche	10	Octubre	2023-10-13T00:00:00	2024-11-06T15:00:00	2	Temperatura media	16.6
54842	7	Sololá	701	Sololá	3	Barraneche	10	Octubre	2023-10-13T00:00:00	2024-11-06T15:00:00	4	Temperatura máxima	16.9
54843	7	Sololá	701	Sololá	3	Barraneche	10	Octubre	2023-10-13T00:00:00	2024-11-06T15:00:00	3	Temperatura mínima	16.6
54844	7	Sololá	701	Sololá	3	Barraneche	10	Octubre	2023-10-13T00:00:00	2024-11-06T15:00:00	5	Humedad	76
54845	7	Sololá	701	Sololá	3	Barraneche	10	Octubre	2023-10-13T00:00:00	2024-11-06T15:00:00	6	Velocidad del viento	6.4
54846	7	Sololá	701	Sololá	3	Barraneche	10	Octubre	2023-10-13T00:00:00	2024-11-06T15:00:00	7	Dirección del viento	6.44
54847	7	Sololá	701	Sololá	3	Barraneche	10	Octubre	2023-10-13T00:00:00	2024-11-06T15:00:00	1	Precipitación	0
54848	7	Sololá	701	Sololá	3	Barraneche	10	Octubre	2023-10-13T00:00:00	2024-11-06T15:00:00	8	Radiación solar	195
54849	7	Sololá	701	Sololá	3	Barraneche	10	Octubre	2023-10-13T00:00:00	2024-11-06T16:00:00	2	Temperatura media	16.1
54850	7	Sololá	701	Sololá	3	Barraneche	10	Octubre	2023-10-13T00:00:00	2024-11-06T16:00:00	4	Temperatura máxima	16.6
54851	7	Sololá	701	Sololá	3	Barraneche	10	Octubre	2023-10-13T00:00:00	2024-11-06T16:00:00	3	Temperatura mínima	16.1
54852	7	Sololá	701	Sololá	3	Barraneche	10	Octubre	2023-10-13T00:00:00	2024-11-06T16:00:00	5	Humedad	82
54853	7	Sololá	701	Sololá	3	Barraneche	10	Octubre	2023-10-13T00:00:00	2024-11-06T16:00:00	6	Velocidad del viento	3.2
54854	7	Sololá	701	Sololá	3	Barraneche	10	Octubre	2023-10-13T00:00:00	2024-11-06T16:00:00	7	Dirección del viento	3.22
54855	7	Sololá	701	Sololá	3	Barraneche	10	Octubre	2023-10-13T00:00:00	2024-11-06T16:00:00	1	Precipitación	0.2
54856	7	Sololá	701	Sololá	3	Barraneche	10	Octubre	2023-10-13T00:00:00	2024-11-06T16:00:00	8	Radiación solar	79
54857	7	Sololá	701	Sololá	3	Barraneche	10	Octubre	2023-10-13T00:00:00	2024-11-06T17:00:00	2	Temperatura media	16.2
54858	7	Sololá	701	Sololá	3	Barraneche	10	Octubre	2023-10-13T00:00:00	2024-11-06T17:00:00	4	Temperatura máxima	16.2
54859	7	Sololá	701	Sololá	3	Barraneche	10	Octubre	2023-10-13T00:00:00	2024-11-06T17:00:00	3	Temperatura mínima	16.1
54860	7	Sololá	701	Sololá	3	Barraneche	10	Octubre	2023-10-13T00:00:00	2024-11-06T17:00:00	5	Humedad	81
54861	7	Sololá	701	Sololá	3	Barraneche	10	Octubre	2023-10-13T00:00:00	2024-11-06T17:00:00	6	Velocidad del viento	1.6
54862	7	Sololá	701	Sololá	3	Barraneche	10	Octubre	2023-10-13T00:00:00	2024-11-06T17:00:00	7	Dirección del viento	1.61
54863	7	Sololá	701	Sololá	3	Barraneche	10	Octubre	2023-10-13T00:00:00	2024-11-06T17:00:00	1	Precipitación	0
54864	7	Sololá	701	Sololá	3	Barraneche	10	Octubre	2023-10-13T00:00:00	2024-11-06T17:00:00	8	Radiación solar	53
54865	7	Sololá	701	Sololá	3	Barraneche	10	Octubre	2023-10-13T00:00:00	2024-11-06T18:00:00	2	Temperatura media	15.7
54866	7	Sololá	701	Sololá	3	Barraneche	10	Octubre	2023-10-13T00:00:00	2024-11-06T18:00:00	4	Temperatura máxima	16.1
54867	7	Sololá	701	Sololá	3	Barraneche	10	Octubre	2023-10-13T00:00:00	2024-11-06T18:00:00	3	Temperatura mínima	15.7
54868	7	Sololá	701	Sololá	3	Barraneche	10	Octubre	2023-10-13T00:00:00	2024-11-06T18:00:00	5	Humedad	84
54869	7	Sololá	701	Sololá	3	Barraneche	10	Octubre	2023-10-13T00:00:00	2024-11-06T18:00:00	6	Velocidad del viento	1.6
54870	7	Sololá	701	Sololá	3	Barraneche	10	Octubre	2023-10-13T00:00:00	2024-11-06T18:00:00	7	Dirección del viento	1.61
54871	7	Sololá	701	Sololá	3	Barraneche	10	Octubre	2023-10-13T00:00:00	2024-11-06T18:00:00	1	Precipitación	0
54872	7	Sololá	701	Sololá	3	Barraneche	10	Octubre	2023-10-13T00:00:00	2024-11-06T18:00:00	8	Radiación solar	3
54873	7	Sololá	701	Sololá	3	Barraneche	10	Octubre	2023-10-13T00:00:00	2024-11-06T19:00:00	2	Temperatura media	15.7
54874	7	Sololá	701	Sololá	3	Barraneche	10	Octubre	2023-10-13T00:00:00	2024-11-06T19:00:00	4	Temperatura máxima	15.8
54875	7	Sololá	701	Sololá	3	Barraneche	10	Octubre	2023-10-13T00:00:00	2024-11-06T19:00:00	3	Temperatura mínima	15.6
54876	7	Sololá	701	Sololá	3	Barraneche	10	Octubre	2023-10-13T00:00:00	2024-11-06T19:00:00	5	Humedad	84
54877	7	Sololá	701	Sololá	3	Barraneche	10	Octubre	2023-10-13T00:00:00	2024-11-06T19:00:00	6	Velocidad del viento	0
54878	7	Sololá	701	Sololá	3	Barraneche	10	Octubre	2023-10-13T00:00:00	2024-11-06T19:00:00	7	Dirección del viento	0
54879	7	Sololá	701	Sololá	3	Barraneche	10	Octubre	2023-10-13T00:00:00	2024-11-06T19:00:00	1	Precipitación	0
54880	7	Sololá	701	Sololá	3	Barraneche	10	Octubre	2023-10-13T00:00:00	2024-11-06T19:00:00	8	Radiación solar	0
54881	7	Sololá	701	Sololá	3	Barraneche	10	Octubre	2023-10-13T00:00:00	2024-11-06T20:00:00	2	Temperatura media	14.5
54882	7	Sololá	701	Sololá	3	Barraneche	10	Octubre	2023-10-13T00:00:00	2024-11-06T20:00:00	4	Temperatura máxima	15.7
54883	7	Sololá	701	Sololá	3	Barraneche	10	Octubre	2023-10-13T00:00:00	2024-11-06T20:00:00	3	Temperatura mínima	14.5
54884	7	Sololá	701	Sololá	3	Barraneche	10	Octubre	2023-10-13T00:00:00	2024-11-06T20:00:00	5	Humedad	84
54885	7	Sololá	701	Sololá	3	Barraneche	10	Octubre	2023-10-13T00:00:00	2024-11-06T20:00:00	6	Velocidad del viento	1.6
54886	7	Sololá	701	Sololá	3	Barraneche	10	Octubre	2023-10-13T00:00:00	2024-11-06T20:00:00	7	Dirección del viento	1.61
54887	7	Sololá	701	Sololá	3	Barraneche	10	Octubre	2023-10-13T00:00:00	2024-11-06T20:00:00	1	Precipitación	0
54888	7	Sololá	701	Sololá	3	Barraneche	10	Octubre	2023-10-13T00:00:00	2024-11-06T20:00:00	8	Radiación solar	0
54889	7	Sololá	701	Sololá	3	Barraneche	10	Octubre	2023-10-13T00:00:00	2024-11-06T21:00:00	2	Temperatura media	14.3
54890	7	Sololá	701	Sololá	3	Barraneche	10	Octubre	2023-10-13T00:00:00	2024-11-06T21:00:00	4	Temperatura máxima	14.5
54891	7	Sololá	701	Sololá	3	Barraneche	10	Octubre	2023-10-13T00:00:00	2024-11-06T21:00:00	3	Temperatura mínima	14.3
54892	7	Sololá	701	Sololá	3	Barraneche	10	Octubre	2023-10-13T00:00:00	2024-11-06T21:00:00	5	Humedad	79
54893	7	Sololá	701	Sololá	3	Barraneche	10	Octubre	2023-10-13T00:00:00	2024-11-06T21:00:00	6	Velocidad del viento	3.2
54894	7	Sololá	701	Sololá	3	Barraneche	10	Octubre	2023-10-13T00:00:00	2024-11-06T21:00:00	7	Dirección del viento	3.22
54895	7	Sololá	701	Sololá	3	Barraneche	10	Octubre	2023-10-13T00:00:00	2024-11-06T21:00:00	1	Precipitación	0
54896	7	Sololá	701	Sololá	3	Barraneche	10	Octubre	2023-10-13T00:00:00	2024-11-06T21:00:00	8	Radiación solar	0
54897	7	Sololá	701	Sololá	3	Barraneche	10	Octubre	2023-10-13T00:00:00	2024-11-06T22:00:00	2	Temperatura media	13.4
54898	7	Sololá	701	Sololá	3	Barraneche	10	Octubre	2023-10-13T00:00:00	2024-11-06T22:00:00	4	Temperatura máxima	14.3
54899	7	Sololá	701	Sololá	3	Barraneche	10	Octubre	2023-10-13T00:00:00	2024-11-06T22:00:00	3	Temperatura mínima	13.4
54900	7	Sololá	701	Sololá	3	Barraneche	10	Octubre	2023-10-13T00:00:00	2024-11-06T22:00:00	5	Humedad	79
54901	7	Sololá	701	Sololá	3	Barraneche	10	Octubre	2023-10-13T00:00:00	2024-11-06T22:00:00	6	Velocidad del viento	4.8
54902	7	Sololá	701	Sololá	3	Barraneche	10	Octubre	2023-10-13T00:00:00	2024-11-06T22:00:00	7	Dirección del viento	4.83
54903	7	Sololá	701	Sololá	3	Barraneche	10	Octubre	2023-10-13T00:00:00	2024-11-06T22:00:00	1	Precipitación	0
54904	7	Sololá	701	Sololá	3	Barraneche	10	Octubre	2023-10-13T00:00:00	2024-11-06T22:00:00	8	Radiación solar	0
54905	7	Sololá	701	Sololá	3	Barraneche	10	Octubre	2023-10-13T00:00:00	2024-11-06T23:00:00	2	Temperatura media	12.7
54906	7	Sololá	701	Sololá	3	Barraneche	10	Octubre	2023-10-13T00:00:00	2024-11-06T23:00:00	4	Temperatura máxima	13.4
54907	7	Sololá	701	Sololá	3	Barraneche	10	Octubre	2023-10-13T00:00:00	2024-11-06T23:00:00	3	Temperatura mínima	12.7
54908	7	Sololá	701	Sololá	3	Barraneche	10	Octubre	2023-10-13T00:00:00	2024-11-06T23:00:00	5	Humedad	79
54909	7	Sololá	701	Sololá	3	Barraneche	10	Octubre	2023-10-13T00:00:00	2024-11-06T23:00:00	6	Velocidad del viento	4.8
54910	7	Sololá	701	Sololá	3	Barraneche	10	Octubre	2023-10-13T00:00:00	2024-11-06T23:00:00	7	Dirección del viento	4.83
54911	7	Sololá	701	Sololá	3	Barraneche	10	Octubre	2023-10-13T00:00:00	2024-11-06T23:00:00	1	Precipitación	0
54912	7	Sololá	701	Sololá	3	Barraneche	10	Octubre	2023-10-13T00:00:00	2024-11-06T23:00:00	8	Radiación solar	0
54913	7	Sololá	701	Sololá	3	Barraneche	10	Octubre	2023-10-14T00:00:00	2024-11-06T00:00:00	2	Temperatura media	12.3
54914	7	Sololá	701	Sololá	3	Barraneche	10	Octubre	2023-10-14T00:00:00	2024-11-06T00:00:00	4	Temperatura máxima	12.8
54915	7	Sololá	701	Sololá	3	Barraneche	10	Octubre	2023-10-14T00:00:00	2024-11-06T00:00:00	3	Temperatura mínima	12.3
54916	7	Sololá	701	Sololá	3	Barraneche	10	Octubre	2023-10-14T00:00:00	2024-11-06T00:00:00	5	Humedad	78
54917	7	Sololá	701	Sololá	3	Barraneche	10	Octubre	2023-10-14T00:00:00	2024-11-06T00:00:00	6	Velocidad del viento	4.8
54918	7	Sololá	701	Sololá	3	Barraneche	10	Octubre	2023-10-14T00:00:00	2024-11-06T00:00:00	7	Dirección del viento	4.83
54919	7	Sololá	701	Sololá	3	Barraneche	10	Octubre	2023-10-14T00:00:00	2024-11-06T00:00:00	1	Precipitación	0
54920	7	Sololá	701	Sololá	3	Barraneche	10	Octubre	2023-10-14T00:00:00	2024-11-06T00:00:00	8	Radiación solar	0
54921	7	Sololá	701	Sololá	3	Barraneche	10	Octubre	2023-10-14T00:00:00	2024-11-06T01:00:00	2	Temperatura media	12.3
54922	7	Sololá	701	Sololá	3	Barraneche	10	Octubre	2023-10-14T00:00:00	2024-11-06T01:00:00	4	Temperatura máxima	12.6
54923	7	Sololá	701	Sololá	3	Barraneche	10	Octubre	2023-10-14T00:00:00	2024-11-06T01:00:00	3	Temperatura mínima	12.2
54924	7	Sololá	701	Sololá	3	Barraneche	10	Octubre	2023-10-14T00:00:00	2024-11-06T01:00:00	5	Humedad	77
54925	7	Sololá	701	Sololá	3	Barraneche	10	Octubre	2023-10-14T00:00:00	2024-11-06T01:00:00	6	Velocidad del viento	4.8
54926	7	Sololá	701	Sololá	3	Barraneche	10	Octubre	2023-10-14T00:00:00	2024-11-06T01:00:00	7	Dirección del viento	4.83
54927	7	Sololá	701	Sololá	3	Barraneche	10	Octubre	2023-10-14T00:00:00	2024-11-06T01:00:00	1	Precipitación	0
54928	7	Sololá	701	Sololá	3	Barraneche	10	Octubre	2023-10-14T00:00:00	2024-11-06T01:00:00	8	Radiación solar	0
54929	7	Sololá	701	Sololá	3	Barraneche	10	Octubre	2023-10-14T00:00:00	2024-11-06T02:00:00	2	Temperatura media	13.4
54930	7	Sololá	701	Sololá	3	Barraneche	10	Octubre	2023-10-14T00:00:00	2024-11-06T02:00:00	4	Temperatura máxima	13.4
54931	7	Sololá	701	Sololá	3	Barraneche	10	Octubre	2023-10-14T00:00:00	2024-11-06T02:00:00	3	Temperatura mínima	12.3
54932	7	Sololá	701	Sololá	3	Barraneche	10	Octubre	2023-10-14T00:00:00	2024-11-06T02:00:00	5	Humedad	73
54933	7	Sololá	701	Sololá	3	Barraneche	10	Octubre	2023-10-14T00:00:00	2024-11-06T02:00:00	6	Velocidad del viento	6.4
54934	7	Sololá	701	Sololá	3	Barraneche	10	Octubre	2023-10-14T00:00:00	2024-11-06T02:00:00	7	Dirección del viento	6.44
54935	7	Sololá	701	Sololá	3	Barraneche	10	Octubre	2023-10-14T00:00:00	2024-11-06T02:00:00	1	Precipitación	0
54936	7	Sololá	701	Sololá	3	Barraneche	10	Octubre	2023-10-14T00:00:00	2024-11-06T02:00:00	8	Radiación solar	0
54937	7	Sololá	701	Sololá	3	Barraneche	10	Octubre	2023-10-14T00:00:00	2024-11-06T03:00:00	2	Temperatura media	12.1
54938	7	Sololá	701	Sololá	3	Barraneche	10	Octubre	2023-10-14T00:00:00	2024-11-06T03:00:00	4	Temperatura máxima	14
54939	7	Sololá	701	Sololá	3	Barraneche	10	Octubre	2023-10-14T00:00:00	2024-11-06T03:00:00	3	Temperatura mínima	12.1
54940	7	Sololá	701	Sololá	3	Barraneche	10	Octubre	2023-10-14T00:00:00	2024-11-06T03:00:00	5	Humedad	75
54941	7	Sololá	701	Sololá	3	Barraneche	10	Octubre	2023-10-14T00:00:00	2024-11-06T03:00:00	6	Velocidad del viento	3.2
54942	7	Sololá	701	Sololá	3	Barraneche	10	Octubre	2023-10-14T00:00:00	2024-11-06T03:00:00	7	Dirección del viento	3.22
54943	7	Sololá	701	Sololá	3	Barraneche	10	Octubre	2023-10-14T00:00:00	2024-11-06T03:00:00	1	Precipitación	0
54944	7	Sololá	701	Sololá	3	Barraneche	10	Octubre	2023-10-14T00:00:00	2024-11-06T03:00:00	8	Radiación solar	0
54945	7	Sololá	701	Sololá	3	Barraneche	10	Octubre	2023-10-14T00:00:00	2024-11-06T04:00:00	2	Temperatura media	11.8
54946	7	Sololá	701	Sololá	3	Barraneche	10	Octubre	2023-10-14T00:00:00	2024-11-06T04:00:00	4	Temperatura máxima	12.1
54947	7	Sololá	701	Sololá	3	Barraneche	10	Octubre	2023-10-14T00:00:00	2024-11-06T04:00:00	3	Temperatura mínima	11.5
54948	7	Sololá	701	Sololá	3	Barraneche	10	Octubre	2023-10-14T00:00:00	2024-11-06T04:00:00	5	Humedad	76
54949	7	Sololá	701	Sololá	3	Barraneche	10	Octubre	2023-10-14T00:00:00	2024-11-06T04:00:00	6	Velocidad del viento	4.8
54950	7	Sololá	701	Sololá	3	Barraneche	10	Octubre	2023-10-14T00:00:00	2024-11-06T04:00:00	7	Dirección del viento	4.83
54951	7	Sololá	701	Sololá	3	Barraneche	10	Octubre	2023-10-14T00:00:00	2024-11-06T04:00:00	1	Precipitación	0
54952	7	Sololá	701	Sololá	3	Barraneche	10	Octubre	2023-10-14T00:00:00	2024-11-06T04:00:00	8	Radiación solar	0
54953	7	Sololá	701	Sololá	3	Barraneche	10	Octubre	2023-10-14T00:00:00	2024-11-06T05:00:00	2	Temperatura media	11.8
54954	7	Sololá	701	Sololá	3	Barraneche	10	Octubre	2023-10-14T00:00:00	2024-11-06T05:00:00	4	Temperatura máxima	11.9
54955	7	Sololá	701	Sololá	3	Barraneche	10	Octubre	2023-10-14T00:00:00	2024-11-06T05:00:00	3	Temperatura mínima	11.6
54956	7	Sololá	701	Sololá	3	Barraneche	10	Octubre	2023-10-14T00:00:00	2024-11-06T05:00:00	5	Humedad	74
54957	7	Sololá	701	Sololá	3	Barraneche	10	Octubre	2023-10-14T00:00:00	2024-11-06T05:00:00	6	Velocidad del viento	3.2
54958	7	Sololá	701	Sololá	3	Barraneche	10	Octubre	2023-10-14T00:00:00	2024-11-06T05:00:00	7	Dirección del viento	3.22
54959	7	Sololá	701	Sololá	3	Barraneche	10	Octubre	2023-10-14T00:00:00	2024-11-06T05:00:00	1	Precipitación	0
54960	7	Sololá	701	Sololá	3	Barraneche	10	Octubre	2023-10-14T00:00:00	2024-11-06T05:00:00	8	Radiación solar	0
54961	7	Sololá	701	Sololá	3	Barraneche	10	Octubre	2023-10-14T00:00:00	2024-11-06T06:00:00	2	Temperatura media	12.4
54962	7	Sololá	701	Sololá	3	Barraneche	10	Octubre	2023-10-14T00:00:00	2024-11-06T06:00:00	4	Temperatura máxima	12.4
54963	7	Sololá	701	Sololá	3	Barraneche	10	Octubre	2023-10-14T00:00:00	2024-11-06T06:00:00	3	Temperatura mínima	11.7
54964	7	Sololá	701	Sololá	3	Barraneche	10	Octubre	2023-10-14T00:00:00	2024-11-06T06:00:00	5	Humedad	72
54965	7	Sololá	701	Sololá	3	Barraneche	10	Octubre	2023-10-14T00:00:00	2024-11-06T06:00:00	6	Velocidad del viento	6.4
54966	7	Sololá	701	Sololá	3	Barraneche	10	Octubre	2023-10-14T00:00:00	2024-11-06T06:00:00	7	Dirección del viento	6.44
54967	7	Sololá	701	Sololá	3	Barraneche	10	Octubre	2023-10-14T00:00:00	2024-11-06T06:00:00	1	Precipitación	0
54968	7	Sololá	701	Sololá	3	Barraneche	10	Octubre	2023-10-14T00:00:00	2024-11-06T06:00:00	8	Radiación solar	0
54969	7	Sololá	701	Sololá	3	Barraneche	10	Octubre	2023-10-14T00:00:00	2024-11-06T07:00:00	2	Temperatura media	15.3
54970	7	Sololá	701	Sololá	3	Barraneche	10	Octubre	2023-10-14T00:00:00	2024-11-06T07:00:00	4	Temperatura máxima	15.3
54971	7	Sololá	701	Sololá	3	Barraneche	10	Octubre	2023-10-14T00:00:00	2024-11-06T07:00:00	3	Temperatura mínima	12.3
54972	7	Sololá	701	Sololá	3	Barraneche	10	Octubre	2023-10-14T00:00:00	2024-11-06T07:00:00	5	Humedad	67
54973	7	Sololá	701	Sololá	3	Barraneche	10	Octubre	2023-10-14T00:00:00	2024-11-06T07:00:00	6	Velocidad del viento	6.4
54974	7	Sololá	701	Sololá	3	Barraneche	10	Octubre	2023-10-14T00:00:00	2024-11-06T07:00:00	7	Dirección del viento	6.44
54975	7	Sololá	701	Sololá	3	Barraneche	10	Octubre	2023-10-14T00:00:00	2024-11-06T07:00:00	1	Precipitación	0
54976	7	Sololá	701	Sololá	3	Barraneche	10	Octubre	2023-10-14T00:00:00	2024-11-06T07:00:00	8	Radiación solar	54
54977	7	Sololá	701	Sololá	3	Barraneche	10	Octubre	2023-10-14T00:00:00	2024-11-06T08:00:00	2	Temperatura media	18.3
54978	7	Sololá	701	Sololá	3	Barraneche	10	Octubre	2023-10-14T00:00:00	2024-11-06T08:00:00	4	Temperatura máxima	18.3
54979	7	Sololá	701	Sololá	3	Barraneche	10	Octubre	2023-10-14T00:00:00	2024-11-06T08:00:00	3	Temperatura mínima	15.3
54980	7	Sololá	701	Sololá	3	Barraneche	10	Octubre	2023-10-14T00:00:00	2024-11-06T08:00:00	5	Humedad	62
54981	7	Sololá	701	Sololá	3	Barraneche	10	Octubre	2023-10-14T00:00:00	2024-11-06T08:00:00	6	Velocidad del viento	6.4
54982	7	Sololá	701	Sololá	3	Barraneche	10	Octubre	2023-10-14T00:00:00	2024-11-06T08:00:00	7	Dirección del viento	6.44
54983	7	Sololá	701	Sololá	3	Barraneche	10	Octubre	2023-10-14T00:00:00	2024-11-06T08:00:00	1	Precipitación	0
54984	7	Sololá	701	Sololá	3	Barraneche	10	Octubre	2023-10-14T00:00:00	2024-11-06T08:00:00	8	Radiación solar	302
54985	7	Sololá	701	Sololá	3	Barraneche	10	Octubre	2023-10-14T00:00:00	2024-11-06T09:00:00	2	Temperatura media	19.6
54986	7	Sololá	701	Sololá	3	Barraneche	10	Octubre	2023-10-14T00:00:00	2024-11-06T09:00:00	4	Temperatura máxima	19.6
54987	7	Sololá	701	Sololá	3	Barraneche	10	Octubre	2023-10-14T00:00:00	2024-11-06T09:00:00	3	Temperatura mínima	18.3
54988	7	Sololá	701	Sololá	3	Barraneche	10	Octubre	2023-10-14T00:00:00	2024-11-06T09:00:00	5	Humedad	57
54989	7	Sololá	701	Sololá	3	Barraneche	10	Octubre	2023-10-14T00:00:00	2024-11-06T09:00:00	6	Velocidad del viento	9.7
54990	7	Sololá	701	Sololá	3	Barraneche	10	Octubre	2023-10-14T00:00:00	2024-11-06T09:00:00	7	Dirección del viento	9.66
54991	7	Sololá	701	Sololá	3	Barraneche	10	Octubre	2023-10-14T00:00:00	2024-11-06T09:00:00	1	Precipitación	0
54992	7	Sololá	701	Sololá	3	Barraneche	10	Octubre	2023-10-14T00:00:00	2024-11-06T09:00:00	8	Radiación solar	561
54993	7	Sololá	701	Sololá	3	Barraneche	10	Octubre	2023-10-14T00:00:00	2024-11-06T10:00:00	2	Temperatura media	19.9
54994	7	Sololá	701	Sololá	3	Barraneche	10	Octubre	2023-10-14T00:00:00	2024-11-06T10:00:00	4	Temperatura máxima	20.1
54995	7	Sololá	701	Sololá	3	Barraneche	10	Octubre	2023-10-14T00:00:00	2024-11-06T10:00:00	3	Temperatura mínima	19.5
54996	7	Sololá	701	Sololá	3	Barraneche	10	Octubre	2023-10-14T00:00:00	2024-11-06T10:00:00	5	Humedad	58
54997	7	Sololá	701	Sololá	3	Barraneche	10	Octubre	2023-10-14T00:00:00	2024-11-06T10:00:00	6	Velocidad del viento	16.1
54998	7	Sololá	701	Sololá	3	Barraneche	10	Octubre	2023-10-14T00:00:00	2024-11-06T10:00:00	7	Dirección del viento	16.09
54999	7	Sololá	701	Sololá	3	Barraneche	10	Octubre	2023-10-14T00:00:00	2024-11-06T10:00:00	1	Precipitación	0
55000	7	Sololá	701	Sololá	3	Barraneche	10	Octubre	2023-10-14T00:00:00	2024-11-06T10:00:00	8	Radiación solar	749
55001	7	Sololá	701	Sololá	3	Barraneche	10	Octubre	2023-10-14T00:00:00	2024-11-06T11:00:00	2	Temperatura media	19.4
55002	7	Sololá	701	Sololá	3	Barraneche	10	Octubre	2023-10-14T00:00:00	2024-11-06T11:00:00	4	Temperatura máxima	20.1
55003	7	Sololá	701	Sololá	3	Barraneche	10	Octubre	2023-10-14T00:00:00	2024-11-06T11:00:00	3	Temperatura mínima	19.2
55004	7	Sololá	701	Sololá	3	Barraneche	10	Octubre	2023-10-14T00:00:00	2024-11-06T11:00:00	5	Humedad	60
55005	7	Sololá	701	Sololá	3	Barraneche	10	Octubre	2023-10-14T00:00:00	2024-11-06T11:00:00	6	Velocidad del viento	14.5
55006	7	Sololá	701	Sololá	3	Barraneche	10	Octubre	2023-10-14T00:00:00	2024-11-06T11:00:00	7	Dirección del viento	14.48
55007	7	Sololá	701	Sololá	3	Barraneche	10	Octubre	2023-10-14T00:00:00	2024-11-06T11:00:00	1	Precipitación	0
55008	7	Sololá	701	Sololá	3	Barraneche	10	Octubre	2023-10-14T00:00:00	2024-11-06T11:00:00	8	Radiación solar	566
55009	7	Sololá	701	Sololá	3	Barraneche	10	Octubre	2023-10-14T00:00:00	2024-11-06T12:00:00	2	Temperatura media	18.1
55010	7	Sololá	701	Sololá	3	Barraneche	10	Octubre	2023-10-14T00:00:00	2024-11-06T12:00:00	4	Temperatura máxima	19.5
55011	7	Sololá	701	Sololá	3	Barraneche	10	Octubre	2023-10-14T00:00:00	2024-11-06T12:00:00	3	Temperatura mínima	18.1
55012	7	Sololá	701	Sololá	3	Barraneche	10	Octubre	2023-10-14T00:00:00	2024-11-06T12:00:00	5	Humedad	65
55013	7	Sololá	701	Sololá	3	Barraneche	10	Octubre	2023-10-14T00:00:00	2024-11-06T12:00:00	6	Velocidad del viento	8
55014	7	Sololá	701	Sololá	3	Barraneche	10	Octubre	2023-10-14T00:00:00	2024-11-06T12:00:00	7	Dirección del viento	8.05
55015	7	Sololá	701	Sololá	3	Barraneche	10	Octubre	2023-10-14T00:00:00	2024-11-06T12:00:00	1	Precipitación	0
55016	7	Sololá	701	Sololá	3	Barraneche	10	Octubre	2023-10-14T00:00:00	2024-11-06T12:00:00	8	Radiación solar	263
55017	7	Sololá	701	Sololá	3	Barraneche	10	Octubre	2023-10-14T00:00:00	2024-11-06T13:00:00	2	Temperatura media	19.7
55018	7	Sololá	701	Sololá	3	Barraneche	10	Octubre	2023-10-14T00:00:00	2024-11-06T13:00:00	4	Temperatura máxima	19.9
55019	7	Sololá	701	Sololá	3	Barraneche	10	Octubre	2023-10-14T00:00:00	2024-11-06T13:00:00	3	Temperatura mínima	18.1
55020	7	Sololá	701	Sololá	3	Barraneche	10	Octubre	2023-10-14T00:00:00	2024-11-06T13:00:00	5	Humedad	59
55021	7	Sololá	701	Sololá	3	Barraneche	10	Octubre	2023-10-14T00:00:00	2024-11-06T13:00:00	6	Velocidad del viento	11.3
55022	7	Sololá	701	Sololá	3	Barraneche	10	Octubre	2023-10-14T00:00:00	2024-11-06T13:00:00	7	Dirección del viento	11.27
55023	7	Sololá	701	Sololá	3	Barraneche	10	Octubre	2023-10-14T00:00:00	2024-11-06T13:00:00	1	Precipitación	0
55024	7	Sololá	701	Sololá	3	Barraneche	10	Octubre	2023-10-14T00:00:00	2024-11-06T13:00:00	8	Radiación solar	626
55025	7	Sololá	701	Sololá	3	Barraneche	10	Octubre	2023-10-14T00:00:00	2024-11-06T14:00:00	2	Temperatura media	20.8
55026	7	Sololá	701	Sololá	3	Barraneche	10	Octubre	2023-10-14T00:00:00	2024-11-06T14:00:00	4	Temperatura máxima	21.1
55027	7	Sololá	701	Sololá	3	Barraneche	10	Octubre	2023-10-14T00:00:00	2024-11-06T14:00:00	3	Temperatura mínima	19.7
55028	7	Sololá	701	Sololá	3	Barraneche	10	Octubre	2023-10-14T00:00:00	2024-11-06T14:00:00	5	Humedad	47
55029	7	Sololá	701	Sololá	3	Barraneche	10	Octubre	2023-10-14T00:00:00	2024-11-06T14:00:00	6	Velocidad del viento	11.3
55030	7	Sololá	701	Sololá	3	Barraneche	10	Octubre	2023-10-14T00:00:00	2024-11-06T14:00:00	7	Dirección del viento	11.27
55031	7	Sololá	701	Sololá	3	Barraneche	10	Octubre	2023-10-14T00:00:00	2024-11-06T14:00:00	1	Precipitación	0
55032	7	Sololá	701	Sololá	3	Barraneche	10	Octubre	2023-10-14T00:00:00	2024-11-06T14:00:00	8	Radiación solar	879
55033	7	Sololá	701	Sololá	3	Barraneche	10	Octubre	2023-10-14T00:00:00	2024-11-06T15:00:00	2	Temperatura media	19.9
55034	7	Sololá	701	Sololá	3	Barraneche	10	Octubre	2023-10-14T00:00:00	2024-11-06T15:00:00	4	Temperatura máxima	20.8
55035	7	Sololá	701	Sololá	3	Barraneche	10	Octubre	2023-10-14T00:00:00	2024-11-06T15:00:00	3	Temperatura mínima	19.8
55036	7	Sololá	701	Sololá	3	Barraneche	10	Octubre	2023-10-14T00:00:00	2024-11-06T15:00:00	5	Humedad	50
55037	7	Sololá	701	Sololá	3	Barraneche	10	Octubre	2023-10-14T00:00:00	2024-11-06T15:00:00	6	Velocidad del viento	9.7
55038	7	Sololá	701	Sololá	3	Barraneche	10	Octubre	2023-10-14T00:00:00	2024-11-06T15:00:00	7	Dirección del viento	9.66
55039	7	Sololá	701	Sololá	3	Barraneche	10	Octubre	2023-10-14T00:00:00	2024-11-06T15:00:00	1	Precipitación	0
55040	7	Sololá	701	Sololá	3	Barraneche	10	Octubre	2023-10-14T00:00:00	2024-11-06T15:00:00	8	Radiación solar	273
55041	7	Sololá	701	Sololá	3	Barraneche	10	Octubre	2023-10-14T00:00:00	2024-11-06T16:00:00	2	Temperatura media	18.4
55042	7	Sololá	701	Sololá	3	Barraneche	10	Octubre	2023-10-14T00:00:00	2024-11-06T16:00:00	4	Temperatura máxima	19.9
55043	7	Sololá	701	Sololá	3	Barraneche	10	Octubre	2023-10-14T00:00:00	2024-11-06T16:00:00	3	Temperatura mínima	17.9
55044	7	Sololá	701	Sololá	3	Barraneche	10	Octubre	2023-10-14T00:00:00	2024-11-06T16:00:00	5	Humedad	68
55045	7	Sololá	701	Sololá	3	Barraneche	10	Octubre	2023-10-14T00:00:00	2024-11-06T16:00:00	6	Velocidad del viento	11.3
55046	7	Sololá	701	Sololá	3	Barraneche	10	Octubre	2023-10-14T00:00:00	2024-11-06T16:00:00	7	Dirección del viento	11.27
55047	7	Sololá	701	Sololá	3	Barraneche	10	Octubre	2023-10-14T00:00:00	2024-11-06T16:00:00	1	Precipitación	0
55048	7	Sololá	701	Sololá	3	Barraneche	10	Octubre	2023-10-14T00:00:00	2024-11-06T16:00:00	8	Radiación solar	303
55049	7	Sololá	701	Sololá	3	Barraneche	10	Octubre	2023-10-14T00:00:00	2024-11-06T17:00:00	2	Temperatura media	17.8
55050	7	Sololá	701	Sololá	3	Barraneche	10	Octubre	2023-10-14T00:00:00	2024-11-06T17:00:00	4	Temperatura máxima	18.5
55051	7	Sololá	701	Sololá	3	Barraneche	10	Octubre	2023-10-14T00:00:00	2024-11-06T17:00:00	3	Temperatura mínima	17.7
55052	7	Sololá	701	Sololá	3	Barraneche	10	Octubre	2023-10-14T00:00:00	2024-11-06T17:00:00	5	Humedad	63
55053	7	Sololá	701	Sololá	3	Barraneche	10	Octubre	2023-10-14T00:00:00	2024-11-06T17:00:00	6	Velocidad del viento	9.7
55054	7	Sololá	701	Sololá	3	Barraneche	10	Octubre	2023-10-14T00:00:00	2024-11-06T17:00:00	7	Dirección del viento	9.66
55055	7	Sololá	701	Sololá	3	Barraneche	10	Octubre	2023-10-14T00:00:00	2024-11-06T17:00:00	1	Precipitación	0
55056	7	Sololá	701	Sololá	3	Barraneche	10	Octubre	2023-10-14T00:00:00	2024-11-06T17:00:00	8	Radiación solar	94
55057	7	Sololá	701	Sololá	3	Barraneche	10	Octubre	2023-10-14T00:00:00	2024-11-06T18:00:00	2	Temperatura media	16.7
55058	7	Sololá	701	Sololá	3	Barraneche	10	Octubre	2023-10-14T00:00:00	2024-11-06T18:00:00	4	Temperatura máxima	17.7
55059	7	Sololá	701	Sololá	3	Barraneche	10	Octubre	2023-10-14T00:00:00	2024-11-06T18:00:00	3	Temperatura mínima	16.7
55060	7	Sololá	701	Sololá	3	Barraneche	10	Octubre	2023-10-14T00:00:00	2024-11-06T18:00:00	5	Humedad	66
55061	7	Sololá	701	Sololá	3	Barraneche	10	Octubre	2023-10-14T00:00:00	2024-11-06T18:00:00	6	Velocidad del viento	8
55062	7	Sololá	701	Sololá	3	Barraneche	10	Octubre	2023-10-14T00:00:00	2024-11-06T18:00:00	7	Dirección del viento	8.05
55063	7	Sololá	701	Sololá	3	Barraneche	10	Octubre	2023-10-14T00:00:00	2024-11-06T18:00:00	1	Precipitación	0
55064	7	Sololá	701	Sololá	3	Barraneche	10	Octubre	2023-10-14T00:00:00	2024-11-06T18:00:00	8	Radiación solar	17
55065	7	Sololá	701	Sololá	3	Barraneche	10	Octubre	2023-10-14T00:00:00	2024-11-06T19:00:00	2	Temperatura media	16.1
55066	7	Sololá	701	Sololá	3	Barraneche	10	Octubre	2023-10-14T00:00:00	2024-11-06T19:00:00	4	Temperatura máxima	16.7
55067	7	Sololá	701	Sololá	3	Barraneche	10	Octubre	2023-10-14T00:00:00	2024-11-06T19:00:00	3	Temperatura mínima	16.1
55068	7	Sololá	701	Sololá	3	Barraneche	10	Octubre	2023-10-14T00:00:00	2024-11-06T19:00:00	5	Humedad	67
55069	7	Sololá	701	Sololá	3	Barraneche	10	Octubre	2023-10-14T00:00:00	2024-11-06T19:00:00	6	Velocidad del viento	9.7
55070	7	Sololá	701	Sololá	3	Barraneche	10	Octubre	2023-10-14T00:00:00	2024-11-06T19:00:00	7	Dirección del viento	9.66
55071	7	Sololá	701	Sololá	3	Barraneche	10	Octubre	2023-10-14T00:00:00	2024-11-06T19:00:00	1	Precipitación	0
55072	7	Sololá	701	Sololá	3	Barraneche	10	Octubre	2023-10-14T00:00:00	2024-11-06T19:00:00	8	Radiación solar	0
55073	7	Sololá	701	Sololá	3	Barraneche	10	Octubre	2023-10-14T00:00:00	2024-11-06T20:00:00	2	Temperatura media	16.3
55074	7	Sololá	701	Sololá	3	Barraneche	10	Octubre	2023-10-14T00:00:00	2024-11-06T20:00:00	4	Temperatura máxima	16.4
55075	7	Sololá	701	Sololá	3	Barraneche	10	Octubre	2023-10-14T00:00:00	2024-11-06T20:00:00	3	Temperatura mínima	16.1
55076	7	Sololá	701	Sololá	3	Barraneche	10	Octubre	2023-10-14T00:00:00	2024-11-06T20:00:00	5	Humedad	65
55077	7	Sololá	701	Sololá	3	Barraneche	10	Octubre	2023-10-14T00:00:00	2024-11-06T20:00:00	6	Velocidad del viento	12.9
55078	7	Sololá	701	Sololá	3	Barraneche	10	Octubre	2023-10-14T00:00:00	2024-11-06T20:00:00	7	Dirección del viento	12.87
55079	7	Sololá	701	Sololá	3	Barraneche	10	Octubre	2023-10-14T00:00:00	2024-11-06T20:00:00	1	Precipitación	0
55080	7	Sololá	701	Sololá	3	Barraneche	10	Octubre	2023-10-14T00:00:00	2024-11-06T20:00:00	8	Radiación solar	0
55081	7	Sololá	701	Sololá	3	Barraneche	10	Octubre	2023-10-14T00:00:00	2024-11-06T21:00:00	2	Temperatura media	16.4
55082	7	Sololá	701	Sololá	3	Barraneche	10	Octubre	2023-10-14T00:00:00	2024-11-06T21:00:00	4	Temperatura máxima	16.6
55083	7	Sololá	701	Sololá	3	Barraneche	10	Octubre	2023-10-14T00:00:00	2024-11-06T21:00:00	3	Temperatura mínima	16.4
55084	7	Sololá	701	Sololá	3	Barraneche	10	Octubre	2023-10-14T00:00:00	2024-11-06T21:00:00	5	Humedad	64
55085	7	Sololá	701	Sololá	3	Barraneche	10	Octubre	2023-10-14T00:00:00	2024-11-06T21:00:00	6	Velocidad del viento	9.7
55086	7	Sololá	701	Sololá	3	Barraneche	10	Octubre	2023-10-14T00:00:00	2024-11-06T21:00:00	7	Dirección del viento	9.66
55087	7	Sololá	701	Sololá	3	Barraneche	10	Octubre	2023-10-14T00:00:00	2024-11-06T21:00:00	1	Precipitación	0
55088	7	Sololá	701	Sololá	3	Barraneche	10	Octubre	2023-10-14T00:00:00	2024-11-06T21:00:00	8	Radiación solar	0
55089	7	Sololá	701	Sololá	3	Barraneche	10	Octubre	2023-10-14T00:00:00	2024-11-06T22:00:00	2	Temperatura media	16.3
55090	7	Sololá	701	Sololá	3	Barraneche	10	Octubre	2023-10-14T00:00:00	2024-11-06T22:00:00	4	Temperatura máxima	16.4
55091	7	Sololá	701	Sololá	3	Barraneche	10	Octubre	2023-10-14T00:00:00	2024-11-06T22:00:00	3	Temperatura mínima	16.2
55092	7	Sololá	701	Sololá	3	Barraneche	10	Octubre	2023-10-14T00:00:00	2024-11-06T22:00:00	5	Humedad	63
55093	7	Sololá	701	Sololá	3	Barraneche	10	Octubre	2023-10-14T00:00:00	2024-11-06T22:00:00	6	Velocidad del viento	9.7
55094	7	Sololá	701	Sololá	3	Barraneche	10	Octubre	2023-10-14T00:00:00	2024-11-06T22:00:00	7	Dirección del viento	9.66
55095	7	Sololá	701	Sololá	3	Barraneche	10	Octubre	2023-10-14T00:00:00	2024-11-06T22:00:00	1	Precipitación	0
55096	7	Sololá	701	Sololá	3	Barraneche	10	Octubre	2023-10-14T00:00:00	2024-11-06T22:00:00	8	Radiación solar	0
55097	7	Sololá	701	Sololá	3	Barraneche	10	Octubre	2023-10-14T00:00:00	2024-11-06T23:00:00	2	Temperatura media	15.9
55098	7	Sololá	701	Sololá	3	Barraneche	10	Octubre	2023-10-14T00:00:00	2024-11-06T23:00:00	4	Temperatura máxima	16.3
55099	7	Sololá	701	Sololá	3	Barraneche	10	Octubre	2023-10-14T00:00:00	2024-11-06T23:00:00	3	Temperatura mínima	15.9
55100	7	Sololá	701	Sololá	3	Barraneche	10	Octubre	2023-10-14T00:00:00	2024-11-06T23:00:00	5	Humedad	65
55101	7	Sololá	701	Sololá	3	Barraneche	10	Octubre	2023-10-14T00:00:00	2024-11-06T23:00:00	6	Velocidad del viento	9.7
55102	7	Sololá	701	Sololá	3	Barraneche	10	Octubre	2023-10-14T00:00:00	2024-11-06T23:00:00	7	Dirección del viento	9.66
55103	7	Sololá	701	Sololá	3	Barraneche	10	Octubre	2023-10-14T00:00:00	2024-11-06T23:00:00	1	Precipitación	0
55104	7	Sololá	701	Sololá	3	Barraneche	10	Octubre	2023-10-14T00:00:00	2024-11-06T23:00:00	8	Radiación solar	0
55105	7	Sololá	701	Sololá	3	Barraneche	10	Octubre	2023-10-15T00:00:00	2024-11-06T00:00:00	2	Temperatura media	15.4
55106	7	Sololá	701	Sololá	3	Barraneche	10	Octubre	2023-10-15T00:00:00	2024-11-06T00:00:00	4	Temperatura máxima	15.9
55107	7	Sololá	701	Sololá	3	Barraneche	10	Octubre	2023-10-15T00:00:00	2024-11-06T00:00:00	3	Temperatura mínima	15
55108	7	Sololá	701	Sololá	3	Barraneche	10	Octubre	2023-10-15T00:00:00	2024-11-06T00:00:00	5	Humedad	67
55109	7	Sololá	701	Sololá	3	Barraneche	10	Octubre	2023-10-15T00:00:00	2024-11-06T00:00:00	6	Velocidad del viento	4.8
55110	7	Sololá	701	Sololá	3	Barraneche	10	Octubre	2023-10-15T00:00:00	2024-11-06T00:00:00	7	Dirección del viento	4.83
55111	7	Sololá	701	Sololá	3	Barraneche	10	Octubre	2023-10-15T00:00:00	2024-11-06T00:00:00	1	Precipitación	0
55112	7	Sololá	701	Sololá	3	Barraneche	10	Octubre	2023-10-15T00:00:00	2024-11-06T00:00:00	8	Radiación solar	0
55113	7	Sololá	701	Sololá	3	Barraneche	10	Octubre	2023-10-15T00:00:00	2024-11-06T01:00:00	2	Temperatura media	14.8
55114	7	Sololá	701	Sololá	3	Barraneche	10	Octubre	2023-10-15T00:00:00	2024-11-06T01:00:00	4	Temperatura máxima	15.5
55115	7	Sololá	701	Sololá	3	Barraneche	10	Octubre	2023-10-15T00:00:00	2024-11-06T01:00:00	3	Temperatura mínima	13.8
55116	7	Sololá	701	Sololá	3	Barraneche	10	Octubre	2023-10-15T00:00:00	2024-11-06T01:00:00	5	Humedad	67
55117	7	Sololá	701	Sololá	3	Barraneche	10	Octubre	2023-10-15T00:00:00	2024-11-06T01:00:00	6	Velocidad del viento	4.8
55118	7	Sololá	701	Sololá	3	Barraneche	10	Octubre	2023-10-15T00:00:00	2024-11-06T01:00:00	7	Dirección del viento	4.83
55119	7	Sololá	701	Sololá	3	Barraneche	10	Octubre	2023-10-15T00:00:00	2024-11-06T01:00:00	1	Precipitación	0
55120	7	Sololá	701	Sololá	3	Barraneche	10	Octubre	2023-10-15T00:00:00	2024-11-06T01:00:00	8	Radiación solar	0
55121	7	Sololá	701	Sololá	3	Barraneche	10	Octubre	2023-10-15T00:00:00	2024-11-06T02:00:00	2	Temperatura media	15.3
55122	7	Sololá	701	Sololá	3	Barraneche	10	Octubre	2023-10-15T00:00:00	2024-11-06T02:00:00	4	Temperatura máxima	15.4
55123	7	Sololá	701	Sololá	3	Barraneche	10	Octubre	2023-10-15T00:00:00	2024-11-06T02:00:00	3	Temperatura mínima	14.8
55124	7	Sololá	701	Sololá	3	Barraneche	10	Octubre	2023-10-15T00:00:00	2024-11-06T02:00:00	5	Humedad	65
55125	7	Sololá	701	Sololá	3	Barraneche	10	Octubre	2023-10-15T00:00:00	2024-11-06T02:00:00	6	Velocidad del viento	12.9
55126	7	Sololá	701	Sololá	3	Barraneche	10	Octubre	2023-10-15T00:00:00	2024-11-06T02:00:00	7	Dirección del viento	12.87
55127	7	Sololá	701	Sololá	3	Barraneche	10	Octubre	2023-10-15T00:00:00	2024-11-06T02:00:00	1	Precipitación	0
55128	7	Sololá	701	Sololá	3	Barraneche	10	Octubre	2023-10-15T00:00:00	2024-11-06T02:00:00	8	Radiación solar	0
55129	7	Sololá	701	Sololá	3	Barraneche	10	Octubre	2023-10-15T00:00:00	2024-11-06T03:00:00	2	Temperatura media	15.1
55130	7	Sololá	701	Sololá	3	Barraneche	10	Octubre	2023-10-15T00:00:00	2024-11-06T03:00:00	4	Temperatura máxima	15.3
55131	7	Sololá	701	Sololá	3	Barraneche	10	Octubre	2023-10-15T00:00:00	2024-11-06T03:00:00	3	Temperatura mínima	14.9
55132	7	Sololá	701	Sololá	3	Barraneche	10	Octubre	2023-10-15T00:00:00	2024-11-06T03:00:00	5	Humedad	65
55133	7	Sololá	701	Sololá	3	Barraneche	10	Octubre	2023-10-15T00:00:00	2024-11-06T03:00:00	6	Velocidad del viento	8
55134	7	Sololá	701	Sololá	3	Barraneche	10	Octubre	2023-10-15T00:00:00	2024-11-06T03:00:00	7	Dirección del viento	8.05
55135	7	Sololá	701	Sololá	3	Barraneche	10	Octubre	2023-10-15T00:00:00	2024-11-06T03:00:00	1	Precipitación	0
55136	7	Sololá	701	Sololá	3	Barraneche	10	Octubre	2023-10-15T00:00:00	2024-11-06T03:00:00	8	Radiación solar	0
55137	7	Sololá	701	Sololá	3	Barraneche	10	Octubre	2023-10-15T00:00:00	2024-11-06T04:00:00	2	Temperatura media	13.7
55138	7	Sololá	701	Sololá	3	Barraneche	10	Octubre	2023-10-15T00:00:00	2024-11-06T04:00:00	4	Temperatura máxima	15.1
55139	7	Sololá	701	Sololá	3	Barraneche	10	Octubre	2023-10-15T00:00:00	2024-11-06T04:00:00	3	Temperatura mínima	13.7
55140	7	Sololá	701	Sololá	3	Barraneche	10	Octubre	2023-10-15T00:00:00	2024-11-06T04:00:00	5	Humedad	67
55141	7	Sololá	701	Sololá	3	Barraneche	10	Octubre	2023-10-15T00:00:00	2024-11-06T04:00:00	6	Velocidad del viento	4.8
55142	7	Sololá	701	Sololá	3	Barraneche	10	Octubre	2023-10-15T00:00:00	2024-11-06T04:00:00	7	Dirección del viento	4.83
55143	7	Sololá	701	Sololá	3	Barraneche	10	Octubre	2023-10-15T00:00:00	2024-11-06T04:00:00	1	Precipitación	0
55144	7	Sololá	701	Sololá	3	Barraneche	10	Octubre	2023-10-15T00:00:00	2024-11-06T04:00:00	8	Radiación solar	0
55145	7	Sololá	701	Sololá	3	Barraneche	10	Octubre	2023-10-15T00:00:00	2024-11-06T05:00:00	2	Temperatura media	12.8
55146	7	Sololá	701	Sololá	3	Barraneche	10	Octubre	2023-10-15T00:00:00	2024-11-06T05:00:00	4	Temperatura máxima	13.7
55147	7	Sololá	701	Sololá	3	Barraneche	10	Octubre	2023-10-15T00:00:00	2024-11-06T05:00:00	3	Temperatura mínima	12.8
55148	7	Sololá	701	Sololá	3	Barraneche	10	Octubre	2023-10-15T00:00:00	2024-11-06T05:00:00	5	Humedad	69
55149	7	Sololá	701	Sololá	3	Barraneche	10	Octubre	2023-10-15T00:00:00	2024-11-06T05:00:00	6	Velocidad del viento	4.8
55150	7	Sololá	701	Sololá	3	Barraneche	10	Octubre	2023-10-15T00:00:00	2024-11-06T05:00:00	7	Dirección del viento	4.83
55151	7	Sololá	701	Sololá	3	Barraneche	10	Octubre	2023-10-15T00:00:00	2024-11-06T05:00:00	1	Precipitación	0
55152	7	Sololá	701	Sololá	3	Barraneche	10	Octubre	2023-10-15T00:00:00	2024-11-06T05:00:00	8	Radiación solar	0
55153	7	Sololá	701	Sololá	3	Barraneche	10	Octubre	2023-10-15T00:00:00	2024-11-06T06:00:00	2	Temperatura media	11.9
55154	7	Sololá	701	Sololá	3	Barraneche	10	Octubre	2023-10-15T00:00:00	2024-11-06T06:00:00	4	Temperatura máxima	12.8
55155	7	Sololá	701	Sololá	3	Barraneche	10	Octubre	2023-10-15T00:00:00	2024-11-06T06:00:00	3	Temperatura mínima	11.9
55156	7	Sololá	701	Sololá	3	Barraneche	10	Octubre	2023-10-15T00:00:00	2024-11-06T06:00:00	5	Humedad	70
55157	7	Sololá	701	Sololá	3	Barraneche	10	Octubre	2023-10-15T00:00:00	2024-11-06T06:00:00	6	Velocidad del viento	3.2
55158	7	Sololá	701	Sololá	3	Barraneche	10	Octubre	2023-10-15T00:00:00	2024-11-06T06:00:00	7	Dirección del viento	3.22
55159	7	Sololá	701	Sololá	3	Barraneche	10	Octubre	2023-10-15T00:00:00	2024-11-06T06:00:00	1	Precipitación	0
55160	7	Sololá	701	Sololá	3	Barraneche	10	Octubre	2023-10-15T00:00:00	2024-11-06T06:00:00	8	Radiación solar	0
55161	7	Sololá	701	Sololá	3	Barraneche	10	Octubre	2023-10-15T00:00:00	2024-11-06T07:00:00	2	Temperatura media	14.3
55162	7	Sololá	701	Sololá	3	Barraneche	10	Octubre	2023-10-15T00:00:00	2024-11-06T07:00:00	4	Temperatura máxima	14.3
55163	7	Sololá	701	Sololá	3	Barraneche	10	Octubre	2023-10-15T00:00:00	2024-11-06T07:00:00	3	Temperatura mínima	11.9
55164	7	Sololá	701	Sololá	3	Barraneche	10	Octubre	2023-10-15T00:00:00	2024-11-06T07:00:00	5	Humedad	66
55165	7	Sololá	701	Sololá	3	Barraneche	10	Octubre	2023-10-15T00:00:00	2024-11-06T07:00:00	6	Velocidad del viento	3.2
55166	7	Sololá	701	Sololá	3	Barraneche	10	Octubre	2023-10-15T00:00:00	2024-11-06T07:00:00	7	Dirección del viento	3.22
55167	7	Sololá	701	Sololá	3	Barraneche	10	Octubre	2023-10-15T00:00:00	2024-11-06T07:00:00	1	Precipitación	0
55168	7	Sololá	701	Sololá	3	Barraneche	10	Octubre	2023-10-15T00:00:00	2024-11-06T07:00:00	8	Radiación solar	53
55169	7	Sololá	701	Sololá	3	Barraneche	10	Octubre	2023-10-15T00:00:00	2024-11-06T08:00:00	2	Temperatura media	17.8
55170	7	Sololá	701	Sololá	3	Barraneche	10	Octubre	2023-10-15T00:00:00	2024-11-06T08:00:00	4	Temperatura máxima	17.9
55171	7	Sololá	701	Sololá	3	Barraneche	10	Octubre	2023-10-15T00:00:00	2024-11-06T08:00:00	3	Temperatura mínima	14.3
55172	7	Sololá	701	Sololá	3	Barraneche	10	Octubre	2023-10-15T00:00:00	2024-11-06T08:00:00	5	Humedad	59
55173	7	Sololá	701	Sololá	3	Barraneche	10	Octubre	2023-10-15T00:00:00	2024-11-06T08:00:00	6	Velocidad del viento	4.8
55174	7	Sololá	701	Sololá	3	Barraneche	10	Octubre	2023-10-15T00:00:00	2024-11-06T08:00:00	7	Dirección del viento	4.83
55175	7	Sololá	701	Sololá	3	Barraneche	10	Octubre	2023-10-15T00:00:00	2024-11-06T08:00:00	1	Precipitación	0
55176	7	Sololá	701	Sololá	3	Barraneche	10	Octubre	2023-10-15T00:00:00	2024-11-06T08:00:00	8	Radiación solar	323
55177	7	Sololá	701	Sololá	3	Barraneche	10	Octubre	2023-10-15T00:00:00	2024-11-06T09:00:00	2	Temperatura media	18.7
55178	7	Sololá	701	Sololá	3	Barraneche	10	Octubre	2023-10-15T00:00:00	2024-11-06T09:00:00	4	Temperatura máxima	18.8
55179	7	Sololá	701	Sololá	3	Barraneche	10	Octubre	2023-10-15T00:00:00	2024-11-06T09:00:00	3	Temperatura mínima	17.6
55180	7	Sololá	701	Sololá	3	Barraneche	10	Octubre	2023-10-15T00:00:00	2024-11-06T09:00:00	5	Humedad	54
55181	7	Sololá	701	Sololá	3	Barraneche	10	Octubre	2023-10-15T00:00:00	2024-11-06T09:00:00	6	Velocidad del viento	8
55182	7	Sololá	701	Sololá	3	Barraneche	10	Octubre	2023-10-15T00:00:00	2024-11-06T09:00:00	7	Dirección del viento	8.05
55183	7	Sololá	701	Sololá	3	Barraneche	10	Octubre	2023-10-15T00:00:00	2024-11-06T09:00:00	1	Precipitación	0
55184	7	Sololá	701	Sololá	3	Barraneche	10	Octubre	2023-10-15T00:00:00	2024-11-06T09:00:00	8	Radiación solar	547
55185	7	Sololá	701	Sololá	3	Barraneche	10	Octubre	2023-10-15T00:00:00	2024-11-06T10:00:00	2	Temperatura media	19.8
55186	7	Sololá	701	Sololá	3	Barraneche	10	Octubre	2023-10-15T00:00:00	2024-11-06T10:00:00	4	Temperatura máxima	19.8
55187	7	Sololá	701	Sololá	3	Barraneche	10	Octubre	2023-10-15T00:00:00	2024-11-06T10:00:00	3	Temperatura mínima	18.7
55188	7	Sololá	701	Sololá	3	Barraneche	10	Octubre	2023-10-15T00:00:00	2024-11-06T10:00:00	5	Humedad	54
55189	7	Sololá	701	Sololá	3	Barraneche	10	Octubre	2023-10-15T00:00:00	2024-11-06T10:00:00	6	Velocidad del viento	8
55190	7	Sololá	701	Sololá	3	Barraneche	10	Octubre	2023-10-15T00:00:00	2024-11-06T10:00:00	7	Dirección del viento	8.05
55191	7	Sololá	701	Sololá	3	Barraneche	10	Octubre	2023-10-15T00:00:00	2024-11-06T10:00:00	1	Precipitación	0
55192	7	Sololá	701	Sololá	3	Barraneche	10	Octubre	2023-10-15T00:00:00	2024-11-06T10:00:00	8	Radiación solar	779
55193	7	Sololá	701	Sololá	3	Barraneche	10	Octubre	2023-10-15T00:00:00	2024-11-06T11:00:00	2	Temperatura media	18.2
55194	7	Sololá	701	Sololá	3	Barraneche	10	Octubre	2023-10-15T00:00:00	2024-11-06T11:00:00	4	Temperatura máxima	20.2
55195	7	Sololá	701	Sololá	3	Barraneche	10	Octubre	2023-10-15T00:00:00	2024-11-06T11:00:00	3	Temperatura mínima	18.1
55196	7	Sololá	701	Sololá	3	Barraneche	10	Octubre	2023-10-15T00:00:00	2024-11-06T11:00:00	5	Humedad	64
55197	7	Sololá	701	Sololá	3	Barraneche	10	Octubre	2023-10-15T00:00:00	2024-11-06T11:00:00	6	Velocidad del viento	14.5
55198	7	Sololá	701	Sololá	3	Barraneche	10	Octubre	2023-10-15T00:00:00	2024-11-06T11:00:00	7	Dirección del viento	14.48
55199	7	Sololá	701	Sololá	3	Barraneche	10	Octubre	2023-10-15T00:00:00	2024-11-06T11:00:00	1	Precipitación	0
55200	7	Sololá	701	Sololá	3	Barraneche	10	Octubre	2023-10-15T00:00:00	2024-11-06T11:00:00	8	Radiación solar	911
55201	7	Sololá	701	Sololá	3	Barraneche	10	Octubre	2023-10-15T00:00:00	2024-11-06T12:00:00	2	Temperatura media	17.6
55202	7	Sololá	701	Sololá	3	Barraneche	10	Octubre	2023-10-15T00:00:00	2024-11-06T12:00:00	4	Temperatura máxima	19.1
55203	7	Sololá	701	Sololá	3	Barraneche	10	Octubre	2023-10-15T00:00:00	2024-11-06T12:00:00	3	Temperatura mínima	17.6
55204	7	Sololá	701	Sololá	3	Barraneche	10	Octubre	2023-10-15T00:00:00	2024-11-06T12:00:00	5	Humedad	68
55205	7	Sololá	701	Sololá	3	Barraneche	10	Octubre	2023-10-15T00:00:00	2024-11-06T12:00:00	6	Velocidad del viento	14.5
55206	7	Sololá	701	Sololá	3	Barraneche	10	Octubre	2023-10-15T00:00:00	2024-11-06T12:00:00	7	Dirección del viento	14.48
55207	7	Sololá	701	Sololá	3	Barraneche	10	Octubre	2023-10-15T00:00:00	2024-11-06T12:00:00	1	Precipitación	0
55208	7	Sololá	701	Sololá	3	Barraneche	10	Octubre	2023-10-15T00:00:00	2024-11-06T12:00:00	8	Radiación solar	507
55209	7	Sololá	701	Sololá	3	Barraneche	10	Octubre	2023-10-15T00:00:00	2024-11-06T13:00:00	2	Temperatura media	17.5
55210	7	Sololá	701	Sololá	3	Barraneche	10	Octubre	2023-10-15T00:00:00	2024-11-06T13:00:00	4	Temperatura máxima	18.8
55211	7	Sololá	701	Sololá	3	Barraneche	10	Octubre	2023-10-15T00:00:00	2024-11-06T13:00:00	3	Temperatura mínima	17.2
55212	7	Sololá	701	Sololá	3	Barraneche	10	Octubre	2023-10-15T00:00:00	2024-11-06T13:00:00	5	Humedad	67
55213	7	Sololá	701	Sololá	3	Barraneche	10	Octubre	2023-10-15T00:00:00	2024-11-06T13:00:00	6	Velocidad del viento	11.3
55214	7	Sololá	701	Sololá	3	Barraneche	10	Octubre	2023-10-15T00:00:00	2024-11-06T13:00:00	7	Dirección del viento	11.27
55215	7	Sololá	701	Sololá	3	Barraneche	10	Octubre	2023-10-15T00:00:00	2024-11-06T13:00:00	1	Precipitación	0
55216	7	Sololá	701	Sololá	3	Barraneche	10	Octubre	2023-10-15T00:00:00	2024-11-06T13:00:00	8	Radiación solar	424
55217	7	Sololá	701	Sololá	3	Barraneche	10	Octubre	2023-10-15T00:00:00	2024-11-06T14:00:00	2	Temperatura media	18.7
55218	7	Sololá	701	Sololá	3	Barraneche	10	Octubre	2023-10-15T00:00:00	2024-11-06T14:00:00	4	Temperatura máxima	18.8
55219	7	Sololá	701	Sololá	3	Barraneche	10	Octubre	2023-10-15T00:00:00	2024-11-06T14:00:00	3	Temperatura mínima	17.1
55220	7	Sololá	701	Sololá	3	Barraneche	10	Octubre	2023-10-15T00:00:00	2024-11-06T14:00:00	5	Humedad	66
55221	7	Sololá	701	Sololá	3	Barraneche	10	Octubre	2023-10-15T00:00:00	2024-11-06T14:00:00	6	Velocidad del viento	8
55222	7	Sololá	701	Sololá	3	Barraneche	10	Octubre	2023-10-15T00:00:00	2024-11-06T14:00:00	7	Dirección del viento	8.05
55223	7	Sololá	701	Sololá	3	Barraneche	10	Octubre	2023-10-15T00:00:00	2024-11-06T14:00:00	1	Precipitación	0
55224	7	Sololá	701	Sololá	3	Barraneche	10	Octubre	2023-10-15T00:00:00	2024-11-06T14:00:00	8	Radiación solar	383
55225	7	Sololá	701	Sololá	3	Barraneche	10	Octubre	2023-10-15T00:00:00	2024-11-06T15:00:00	2	Temperatura media	16.5
55226	7	Sololá	701	Sololá	3	Barraneche	10	Octubre	2023-10-15T00:00:00	2024-11-06T15:00:00	4	Temperatura máxima	18.7
55227	7	Sololá	701	Sololá	3	Barraneche	10	Octubre	2023-10-15T00:00:00	2024-11-06T15:00:00	3	Temperatura mínima	16.5
55228	7	Sololá	701	Sololá	3	Barraneche	10	Octubre	2023-10-15T00:00:00	2024-11-06T15:00:00	5	Humedad	73
55229	7	Sololá	701	Sololá	3	Barraneche	10	Octubre	2023-10-15T00:00:00	2024-11-06T15:00:00	6	Velocidad del viento	9.7
55230	7	Sololá	701	Sololá	3	Barraneche	10	Octubre	2023-10-15T00:00:00	2024-11-06T15:00:00	7	Dirección del viento	9.66
55231	7	Sololá	701	Sololá	3	Barraneche	10	Octubre	2023-10-15T00:00:00	2024-11-06T15:00:00	1	Precipitación	0
55232	7	Sololá	701	Sololá	3	Barraneche	10	Octubre	2023-10-15T00:00:00	2024-11-06T15:00:00	8	Radiación solar	197
55233	7	Sololá	701	Sololá	3	Barraneche	10	Octubre	2023-10-15T00:00:00	2024-11-06T16:00:00	2	Temperatura media	16.3
55234	7	Sololá	701	Sololá	3	Barraneche	10	Octubre	2023-10-15T00:00:00	2024-11-06T16:00:00	4	Temperatura máxima	16.8
55235	7	Sololá	701	Sololá	3	Barraneche	10	Octubre	2023-10-15T00:00:00	2024-11-06T16:00:00	3	Temperatura mínima	16.3
55236	7	Sololá	701	Sololá	3	Barraneche	10	Octubre	2023-10-15T00:00:00	2024-11-06T16:00:00	5	Humedad	74
55237	7	Sololá	701	Sololá	3	Barraneche	10	Octubre	2023-10-15T00:00:00	2024-11-06T16:00:00	6	Velocidad del viento	8
55238	7	Sololá	701	Sololá	3	Barraneche	10	Octubre	2023-10-15T00:00:00	2024-11-06T16:00:00	7	Dirección del viento	8.05
55239	7	Sololá	701	Sololá	3	Barraneche	10	Octubre	2023-10-15T00:00:00	2024-11-06T16:00:00	1	Precipitación	0
55240	7	Sololá	701	Sololá	3	Barraneche	10	Octubre	2023-10-15T00:00:00	2024-11-06T16:00:00	8	Radiación solar	208
55241	7	Sololá	701	Sololá	3	Barraneche	10	Octubre	2023-10-15T00:00:00	2024-11-06T17:00:00	2	Temperatura media	15.5
55242	7	Sololá	701	Sololá	3	Barraneche	10	Octubre	2023-10-15T00:00:00	2024-11-06T17:00:00	4	Temperatura máxima	16.4
55243	7	Sololá	701	Sololá	3	Barraneche	10	Octubre	2023-10-15T00:00:00	2024-11-06T17:00:00	3	Temperatura mínima	15.5
55244	7	Sololá	701	Sololá	3	Barraneche	10	Octubre	2023-10-15T00:00:00	2024-11-06T17:00:00	5	Humedad	84
55245	7	Sololá	701	Sololá	3	Barraneche	10	Octubre	2023-10-15T00:00:00	2024-11-06T17:00:00	6	Velocidad del viento	4.8
55246	7	Sololá	701	Sololá	3	Barraneche	10	Octubre	2023-10-15T00:00:00	2024-11-06T17:00:00	7	Dirección del viento	4.83
55247	7	Sololá	701	Sololá	3	Barraneche	10	Octubre	2023-10-15T00:00:00	2024-11-06T17:00:00	1	Precipitación	0
55248	7	Sololá	701	Sololá	3	Barraneche	10	Octubre	2023-10-15T00:00:00	2024-11-06T17:00:00	8	Radiación solar	36
55249	7	Sololá	701	Sololá	3	Barraneche	10	Octubre	2023-10-15T00:00:00	2024-11-06T18:00:00	2	Temperatura media	15.2
55250	7	Sololá	701	Sololá	3	Barraneche	10	Octubre	2023-10-15T00:00:00	2024-11-06T18:00:00	4	Temperatura máxima	15.5
55251	7	Sololá	701	Sololá	3	Barraneche	10	Octubre	2023-10-15T00:00:00	2024-11-06T18:00:00	3	Temperatura mínima	15.2
55252	7	Sololá	701	Sololá	3	Barraneche	10	Octubre	2023-10-15T00:00:00	2024-11-06T18:00:00	5	Humedad	84
55253	7	Sololá	701	Sololá	3	Barraneche	10	Octubre	2023-10-15T00:00:00	2024-11-06T18:00:00	6	Velocidad del viento	3.2
55254	7	Sololá	701	Sololá	3	Barraneche	10	Octubre	2023-10-15T00:00:00	2024-11-06T18:00:00	7	Dirección del viento	3.22
55255	7	Sololá	701	Sololá	3	Barraneche	10	Octubre	2023-10-15T00:00:00	2024-11-06T18:00:00	1	Precipitación	0
55256	7	Sololá	701	Sololá	3	Barraneche	10	Octubre	2023-10-15T00:00:00	2024-11-06T18:00:00	8	Radiación solar	6
55257	7	Sololá	701	Sololá	3	Barraneche	10	Octubre	2023-10-15T00:00:00	2024-11-06T19:00:00	2	Temperatura media	14.8
55258	7	Sololá	701	Sololá	3	Barraneche	10	Octubre	2023-10-15T00:00:00	2024-11-06T19:00:00	4	Temperatura máxima	15.2
55259	7	Sololá	701	Sololá	3	Barraneche	10	Octubre	2023-10-15T00:00:00	2024-11-06T19:00:00	3	Temperatura mínima	14.8
55260	7	Sololá	701	Sololá	3	Barraneche	10	Octubre	2023-10-15T00:00:00	2024-11-06T19:00:00	5	Humedad	85
55261	7	Sololá	701	Sololá	3	Barraneche	10	Octubre	2023-10-15T00:00:00	2024-11-06T19:00:00	6	Velocidad del viento	1.6
55262	7	Sololá	701	Sololá	3	Barraneche	10	Octubre	2023-10-15T00:00:00	2024-11-06T19:00:00	7	Dirección del viento	1.61
55263	7	Sololá	701	Sololá	3	Barraneche	10	Octubre	2023-10-15T00:00:00	2024-11-06T19:00:00	1	Precipitación	0
55264	7	Sololá	701	Sololá	3	Barraneche	10	Octubre	2023-10-15T00:00:00	2024-11-06T19:00:00	8	Radiación solar	0
55265	7	Sololá	701	Sololá	3	Barraneche	10	Octubre	2023-10-15T00:00:00	2024-11-06T20:00:00	2	Temperatura media	13.6
55266	7	Sololá	701	Sololá	3	Barraneche	10	Octubre	2023-10-15T00:00:00	2024-11-06T20:00:00	4	Temperatura máxima	14.9
55267	7	Sololá	701	Sololá	3	Barraneche	10	Octubre	2023-10-15T00:00:00	2024-11-06T20:00:00	3	Temperatura mínima	13.6
55268	7	Sololá	701	Sololá	3	Barraneche	10	Octubre	2023-10-15T00:00:00	2024-11-06T20:00:00	5	Humedad	82
55269	7	Sololá	701	Sololá	3	Barraneche	10	Octubre	2023-10-15T00:00:00	2024-11-06T20:00:00	6	Velocidad del viento	1.6
55270	7	Sololá	701	Sololá	3	Barraneche	10	Octubre	2023-10-15T00:00:00	2024-11-06T20:00:00	7	Dirección del viento	1.61
55271	7	Sololá	701	Sololá	3	Barraneche	10	Octubre	2023-10-15T00:00:00	2024-11-06T20:00:00	1	Precipitación	0
55272	7	Sololá	701	Sololá	3	Barraneche	10	Octubre	2023-10-15T00:00:00	2024-11-06T20:00:00	8	Radiación solar	0
55273	7	Sololá	701	Sololá	3	Barraneche	10	Octubre	2023-10-15T00:00:00	2024-11-06T21:00:00	2	Temperatura media	13.3
55274	7	Sololá	701	Sololá	3	Barraneche	10	Octubre	2023-10-15T00:00:00	2024-11-06T21:00:00	4	Temperatura máxima	13.6
55275	7	Sololá	701	Sololá	3	Barraneche	10	Octubre	2023-10-15T00:00:00	2024-11-06T21:00:00	3	Temperatura mínima	13.2
55276	7	Sololá	701	Sololá	3	Barraneche	10	Octubre	2023-10-15T00:00:00	2024-11-06T21:00:00	5	Humedad	82
55277	7	Sololá	701	Sololá	3	Barraneche	10	Octubre	2023-10-15T00:00:00	2024-11-06T21:00:00	6	Velocidad del viento	3.2
55278	7	Sololá	701	Sololá	3	Barraneche	10	Octubre	2023-10-15T00:00:00	2024-11-06T21:00:00	7	Dirección del viento	3.22
55279	7	Sololá	701	Sololá	3	Barraneche	10	Octubre	2023-10-15T00:00:00	2024-11-06T21:00:00	1	Precipitación	0
55280	7	Sololá	701	Sololá	3	Barraneche	10	Octubre	2023-10-15T00:00:00	2024-11-06T21:00:00	8	Radiación solar	0
55281	7	Sololá	701	Sololá	3	Barraneche	10	Octubre	2023-10-15T00:00:00	2024-11-06T22:00:00	2	Temperatura media	13.8
55282	7	Sololá	701	Sololá	3	Barraneche	10	Octubre	2023-10-15T00:00:00	2024-11-06T22:00:00	4	Temperatura máxima	13.8
55283	7	Sololá	701	Sololá	3	Barraneche	10	Octubre	2023-10-15T00:00:00	2024-11-06T22:00:00	3	Temperatura mínima	13.3
55284	7	Sololá	701	Sololá	3	Barraneche	10	Octubre	2023-10-15T00:00:00	2024-11-06T22:00:00	5	Humedad	83
55285	7	Sololá	701	Sololá	3	Barraneche	10	Octubre	2023-10-15T00:00:00	2024-11-06T22:00:00	6	Velocidad del viento	1.6
55286	7	Sololá	701	Sololá	3	Barraneche	10	Octubre	2023-10-15T00:00:00	2024-11-06T22:00:00	7	Dirección del viento	1.61
55287	7	Sololá	701	Sololá	3	Barraneche	10	Octubre	2023-10-15T00:00:00	2024-11-06T22:00:00	1	Precipitación	0.2
55288	7	Sololá	701	Sololá	3	Barraneche	10	Octubre	2023-10-15T00:00:00	2024-11-06T22:00:00	8	Radiación solar	0
55289	7	Sololá	701	Sololá	3	Barraneche	10	Octubre	2023-10-15T00:00:00	2024-11-06T23:00:00	2	Temperatura media	13.8
55290	7	Sololá	701	Sololá	3	Barraneche	10	Octubre	2023-10-15T00:00:00	2024-11-06T23:00:00	4	Temperatura máxima	13.9
55291	7	Sololá	701	Sololá	3	Barraneche	10	Octubre	2023-10-15T00:00:00	2024-11-06T23:00:00	3	Temperatura mínima	13.8
55292	7	Sololá	701	Sololá	3	Barraneche	10	Octubre	2023-10-15T00:00:00	2024-11-06T23:00:00	5	Humedad	85
55293	7	Sololá	701	Sololá	3	Barraneche	10	Octubre	2023-10-15T00:00:00	2024-11-06T23:00:00	6	Velocidad del viento	1.6
55294	7	Sololá	701	Sololá	3	Barraneche	10	Octubre	2023-10-15T00:00:00	2024-11-06T23:00:00	7	Dirección del viento	1.61
55295	7	Sololá	701	Sololá	3	Barraneche	10	Octubre	2023-10-15T00:00:00	2024-11-06T23:00:00	1	Precipitación	3
55296	7	Sololá	701	Sololá	3	Barraneche	10	Octubre	2023-10-15T00:00:00	2024-11-06T23:00:00	8	Radiación solar	0
55297	7	Sololá	701	Sololá	3	Barraneche	10	Octubre	2023-10-16T00:00:00	2024-11-06T00:00:00	2	Temperatura media	13.6
55298	7	Sololá	701	Sololá	3	Barraneche	10	Octubre	2023-10-16T00:00:00	2024-11-06T00:00:00	4	Temperatura máxima	13.8
55299	7	Sololá	701	Sololá	3	Barraneche	10	Octubre	2023-10-16T00:00:00	2024-11-06T00:00:00	3	Temperatura mínima	13.6
55300	7	Sololá	701	Sololá	3	Barraneche	10	Octubre	2023-10-16T00:00:00	2024-11-06T00:00:00	5	Humedad	85
55301	7	Sololá	701	Sololá	3	Barraneche	10	Octubre	2023-10-16T00:00:00	2024-11-06T00:00:00	6	Velocidad del viento	3.2
55302	7	Sololá	701	Sololá	3	Barraneche	10	Octubre	2023-10-16T00:00:00	2024-11-06T00:00:00	7	Dirección del viento	3.22
55303	7	Sololá	701	Sololá	3	Barraneche	10	Octubre	2023-10-16T00:00:00	2024-11-06T00:00:00	1	Precipitación	3.4
55304	7	Sololá	701	Sololá	3	Barraneche	10	Octubre	2023-10-16T00:00:00	2024-11-06T00:00:00	8	Radiación solar	0
55305	7	Sololá	701	Sololá	3	Barraneche	10	Octubre	2023-10-16T00:00:00	2024-11-06T01:00:00	2	Temperatura media	13.4
55306	7	Sololá	701	Sololá	3	Barraneche	10	Octubre	2023-10-16T00:00:00	2024-11-06T01:00:00	4	Temperatura máxima	13.7
55307	7	Sololá	701	Sololá	3	Barraneche	10	Octubre	2023-10-16T00:00:00	2024-11-06T01:00:00	3	Temperatura mínima	13.3
55308	7	Sololá	701	Sololá	3	Barraneche	10	Octubre	2023-10-16T00:00:00	2024-11-06T01:00:00	5	Humedad	82
55309	7	Sololá	701	Sololá	3	Barraneche	10	Octubre	2023-10-16T00:00:00	2024-11-06T01:00:00	6	Velocidad del viento	3.2
55310	7	Sololá	701	Sololá	3	Barraneche	10	Octubre	2023-10-16T00:00:00	2024-11-06T01:00:00	7	Dirección del viento	3.22
55311	7	Sololá	701	Sololá	3	Barraneche	10	Octubre	2023-10-16T00:00:00	2024-11-06T01:00:00	1	Precipitación	0
55312	7	Sololá	701	Sololá	3	Barraneche	10	Octubre	2023-10-16T00:00:00	2024-11-06T01:00:00	8	Radiación solar	0
55313	7	Sololá	701	Sololá	3	Barraneche	10	Octubre	2023-10-16T00:00:00	2024-11-06T02:00:00	2	Temperatura media	13.1
55314	7	Sololá	701	Sololá	3	Barraneche	10	Octubre	2023-10-16T00:00:00	2024-11-06T02:00:00	4	Temperatura máxima	13.7
55315	7	Sololá	701	Sololá	3	Barraneche	10	Octubre	2023-10-16T00:00:00	2024-11-06T02:00:00	3	Temperatura mínima	13.1
55316	7	Sololá	701	Sololá	3	Barraneche	10	Octubre	2023-10-16T00:00:00	2024-11-06T02:00:00	5	Humedad	80
55317	7	Sololá	701	Sololá	3	Barraneche	10	Octubre	2023-10-16T00:00:00	2024-11-06T02:00:00	6	Velocidad del viento	4.8
55318	7	Sololá	701	Sololá	3	Barraneche	10	Octubre	2023-10-16T00:00:00	2024-11-06T02:00:00	7	Dirección del viento	4.83
55319	7	Sololá	701	Sololá	3	Barraneche	10	Octubre	2023-10-16T00:00:00	2024-11-06T02:00:00	1	Precipitación	0
55320	7	Sololá	701	Sololá	3	Barraneche	10	Octubre	2023-10-16T00:00:00	2024-11-06T02:00:00	8	Radiación solar	0
55321	7	Sololá	701	Sololá	3	Barraneche	10	Octubre	2023-10-16T00:00:00	2024-11-06T03:00:00	2	Temperatura media	13.4
55322	7	Sololá	701	Sololá	3	Barraneche	10	Octubre	2023-10-16T00:00:00	2024-11-06T03:00:00	4	Temperatura máxima	13.5
55323	7	Sololá	701	Sololá	3	Barraneche	10	Octubre	2023-10-16T00:00:00	2024-11-06T03:00:00	3	Temperatura mínima	12.8
55324	7	Sololá	701	Sololá	3	Barraneche	10	Octubre	2023-10-16T00:00:00	2024-11-06T03:00:00	5	Humedad	71
55325	7	Sololá	701	Sololá	3	Barraneche	10	Octubre	2023-10-16T00:00:00	2024-11-06T03:00:00	6	Velocidad del viento	8
55326	7	Sololá	701	Sololá	3	Barraneche	10	Octubre	2023-10-16T00:00:00	2024-11-06T03:00:00	7	Dirección del viento	8.05
55327	7	Sololá	701	Sololá	3	Barraneche	10	Octubre	2023-10-16T00:00:00	2024-11-06T03:00:00	1	Precipitación	0
55328	7	Sololá	701	Sololá	3	Barraneche	10	Octubre	2023-10-16T00:00:00	2024-11-06T03:00:00	8	Radiación solar	0
55329	7	Sololá	701	Sololá	3	Barraneche	10	Octubre	2023-10-16T00:00:00	2024-11-06T04:00:00	2	Temperatura media	14.1
55330	7	Sololá	701	Sololá	3	Barraneche	10	Octubre	2023-10-16T00:00:00	2024-11-06T04:00:00	4	Temperatura máxima	14.3
55331	7	Sololá	701	Sololá	3	Barraneche	10	Octubre	2023-10-16T00:00:00	2024-11-06T04:00:00	3	Temperatura mínima	13.4
55332	7	Sololá	701	Sololá	3	Barraneche	10	Octubre	2023-10-16T00:00:00	2024-11-06T04:00:00	5	Humedad	69
55333	7	Sololá	701	Sololá	3	Barraneche	10	Octubre	2023-10-16T00:00:00	2024-11-06T04:00:00	6	Velocidad del viento	16.1
55334	7	Sololá	701	Sololá	3	Barraneche	10	Octubre	2023-10-16T00:00:00	2024-11-06T04:00:00	7	Dirección del viento	16.09
55335	7	Sololá	701	Sololá	3	Barraneche	10	Octubre	2023-10-16T00:00:00	2024-11-06T04:00:00	1	Precipitación	0
55336	7	Sololá	701	Sololá	3	Barraneche	10	Octubre	2023-10-16T00:00:00	2024-11-06T04:00:00	8	Radiación solar	0
55337	7	Sololá	701	Sololá	3	Barraneche	10	Octubre	2023-10-16T00:00:00	2024-11-06T05:00:00	2	Temperatura media	14.1
55338	7	Sololá	701	Sololá	3	Barraneche	10	Octubre	2023-10-16T00:00:00	2024-11-06T05:00:00	4	Temperatura máxima	14.3
55339	7	Sololá	701	Sololá	3	Barraneche	10	Octubre	2023-10-16T00:00:00	2024-11-06T05:00:00	3	Temperatura mínima	13.9
55340	7	Sololá	701	Sololá	3	Barraneche	10	Octubre	2023-10-16T00:00:00	2024-11-06T05:00:00	5	Humedad	68
55341	7	Sololá	701	Sololá	3	Barraneche	10	Octubre	2023-10-16T00:00:00	2024-11-06T05:00:00	6	Velocidad del viento	20.9
55342	7	Sololá	701	Sololá	3	Barraneche	10	Octubre	2023-10-16T00:00:00	2024-11-06T05:00:00	7	Dirección del viento	20.92
55343	7	Sololá	701	Sololá	3	Barraneche	10	Octubre	2023-10-16T00:00:00	2024-11-06T05:00:00	1	Precipitación	0
55344	7	Sololá	701	Sololá	3	Barraneche	10	Octubre	2023-10-16T00:00:00	2024-11-06T05:00:00	8	Radiación solar	0
55345	7	Sololá	701	Sololá	3	Barraneche	10	Octubre	2023-10-16T00:00:00	2024-11-06T06:00:00	2	Temperatura media	14
55346	7	Sololá	701	Sololá	3	Barraneche	10	Octubre	2023-10-16T00:00:00	2024-11-06T06:00:00	4	Temperatura máxima	14.2
55347	7	Sololá	701	Sololá	3	Barraneche	10	Octubre	2023-10-16T00:00:00	2024-11-06T06:00:00	3	Temperatura mínima	13.8
55348	7	Sololá	701	Sololá	3	Barraneche	10	Octubre	2023-10-16T00:00:00	2024-11-06T06:00:00	5	Humedad	68
55349	7	Sololá	701	Sololá	3	Barraneche	10	Octubre	2023-10-16T00:00:00	2024-11-06T06:00:00	6	Velocidad del viento	27.4
55350	7	Sololá	701	Sololá	3	Barraneche	10	Octubre	2023-10-16T00:00:00	2024-11-06T06:00:00	7	Dirección del viento	27.36
55351	7	Sololá	701	Sololá	3	Barraneche	10	Octubre	2023-10-16T00:00:00	2024-11-06T06:00:00	1	Precipitación	0.2
55352	7	Sololá	701	Sololá	3	Barraneche	10	Octubre	2023-10-16T00:00:00	2024-11-06T06:00:00	8	Radiación solar	0
55353	7	Sololá	701	Sololá	3	Barraneche	10	Octubre	2023-10-16T00:00:00	2024-11-06T07:00:00	2	Temperatura media	14.4
55354	7	Sololá	701	Sololá	3	Barraneche	10	Octubre	2023-10-16T00:00:00	2024-11-06T07:00:00	4	Temperatura máxima	14.4
55355	7	Sololá	701	Sololá	3	Barraneche	10	Octubre	2023-10-16T00:00:00	2024-11-06T07:00:00	3	Temperatura mínima	13.8
55356	7	Sololá	701	Sololá	3	Barraneche	10	Octubre	2023-10-16T00:00:00	2024-11-06T07:00:00	5	Humedad	69
55357	7	Sololá	701	Sololá	3	Barraneche	10	Octubre	2023-10-16T00:00:00	2024-11-06T07:00:00	6	Velocidad del viento	24.1
55358	7	Sololá	701	Sololá	3	Barraneche	10	Octubre	2023-10-16T00:00:00	2024-11-06T07:00:00	7	Dirección del viento	24.14
55359	7	Sololá	701	Sololá	3	Barraneche	10	Octubre	2023-10-16T00:00:00	2024-11-06T07:00:00	1	Precipitación	0
55360	7	Sololá	701	Sololá	3	Barraneche	10	Octubre	2023-10-16T00:00:00	2024-11-06T07:00:00	8	Radiación solar	57
55361	7	Sololá	701	Sololá	3	Barraneche	10	Octubre	2023-10-16T00:00:00	2024-11-06T08:00:00	2	Temperatura media	15.3
55362	7	Sololá	701	Sololá	3	Barraneche	10	Octubre	2023-10-16T00:00:00	2024-11-06T08:00:00	4	Temperatura máxima	15.4
55363	7	Sololá	701	Sololá	3	Barraneche	10	Octubre	2023-10-16T00:00:00	2024-11-06T08:00:00	3	Temperatura mínima	14.4
55364	7	Sololá	701	Sololá	3	Barraneche	10	Octubre	2023-10-16T00:00:00	2024-11-06T08:00:00	5	Humedad	64
55365	7	Sololá	701	Sololá	3	Barraneche	10	Octubre	2023-10-16T00:00:00	2024-11-06T08:00:00	6	Velocidad del viento	20.9
55366	7	Sololá	701	Sololá	3	Barraneche	10	Octubre	2023-10-16T00:00:00	2024-11-06T08:00:00	7	Dirección del viento	20.92
55367	7	Sololá	701	Sololá	3	Barraneche	10	Octubre	2023-10-16T00:00:00	2024-11-06T08:00:00	1	Precipitación	0
55368	7	Sololá	701	Sololá	3	Barraneche	10	Octubre	2023-10-16T00:00:00	2024-11-06T08:00:00	8	Radiación solar	230
55369	7	Sololá	701	Sololá	3	Barraneche	10	Octubre	2023-10-16T00:00:00	2024-11-06T09:00:00	2	Temperatura media	17.8
55370	7	Sololá	701	Sololá	3	Barraneche	10	Octubre	2023-10-16T00:00:00	2024-11-06T09:00:00	4	Temperatura máxima	17.8
55371	7	Sololá	701	Sololá	3	Barraneche	10	Octubre	2023-10-16T00:00:00	2024-11-06T09:00:00	3	Temperatura mínima	15.3
55372	7	Sololá	701	Sololá	3	Barraneche	10	Octubre	2023-10-16T00:00:00	2024-11-06T09:00:00	5	Humedad	60
55373	7	Sololá	701	Sololá	3	Barraneche	10	Octubre	2023-10-16T00:00:00	2024-11-06T09:00:00	6	Velocidad del viento	9.7
55374	7	Sololá	701	Sololá	3	Barraneche	10	Octubre	2023-10-16T00:00:00	2024-11-06T09:00:00	7	Dirección del viento	9.66
55375	7	Sololá	701	Sololá	3	Barraneche	10	Octubre	2023-10-16T00:00:00	2024-11-06T09:00:00	1	Precipitación	0
55376	7	Sololá	701	Sololá	3	Barraneche	10	Octubre	2023-10-16T00:00:00	2024-11-06T09:00:00	8	Radiación solar	434
55377	7	Sololá	701	Sololá	3	Barraneche	10	Octubre	2023-10-16T00:00:00	2024-11-06T10:00:00	2	Temperatura media	17.6
55378	7	Sololá	701	Sololá	3	Barraneche	10	Octubre	2023-10-16T00:00:00	2024-11-06T10:00:00	4	Temperatura máxima	18
55379	7	Sololá	701	Sololá	3	Barraneche	10	Octubre	2023-10-16T00:00:00	2024-11-06T10:00:00	3	Temperatura mínima	17.2
55380	7	Sololá	701	Sololá	3	Barraneche	10	Octubre	2023-10-16T00:00:00	2024-11-06T10:00:00	5	Humedad	64
55381	7	Sololá	701	Sololá	3	Barraneche	10	Octubre	2023-10-16T00:00:00	2024-11-06T10:00:00	6	Velocidad del viento	14.5
55382	7	Sololá	701	Sololá	3	Barraneche	10	Octubre	2023-10-16T00:00:00	2024-11-06T10:00:00	7	Dirección del viento	14.48
55383	7	Sololá	701	Sololá	3	Barraneche	10	Octubre	2023-10-16T00:00:00	2024-11-06T10:00:00	1	Precipitación	0
55384	7	Sololá	701	Sololá	3	Barraneche	10	Octubre	2023-10-16T00:00:00	2024-11-06T10:00:00	8	Radiación solar	749
55385	7	Sololá	701	Sololá	3	Barraneche	10	Octubre	2023-10-16T00:00:00	2024-11-06T11:00:00	2	Temperatura media	17.7
55386	7	Sololá	701	Sololá	3	Barraneche	10	Octubre	2023-10-16T00:00:00	2024-11-06T11:00:00	4	Temperatura máxima	18.1
55387	7	Sololá	701	Sololá	3	Barraneche	10	Octubre	2023-10-16T00:00:00	2024-11-06T11:00:00	3	Temperatura mínima	16.9
55388	7	Sololá	701	Sololá	3	Barraneche	10	Octubre	2023-10-16T00:00:00	2024-11-06T11:00:00	5	Humedad	63
55389	7	Sololá	701	Sololá	3	Barraneche	10	Octubre	2023-10-16T00:00:00	2024-11-06T11:00:00	6	Velocidad del viento	16.1
55390	7	Sololá	701	Sololá	3	Barraneche	10	Octubre	2023-10-16T00:00:00	2024-11-06T11:00:00	7	Dirección del viento	16.09
55391	7	Sololá	701	Sololá	3	Barraneche	10	Octubre	2023-10-16T00:00:00	2024-11-06T11:00:00	1	Precipitación	0
55392	7	Sololá	701	Sololá	3	Barraneche	10	Octubre	2023-10-16T00:00:00	2024-11-06T11:00:00	8	Radiación solar	744
55393	7	Sololá	701	Sololá	3	Barraneche	10	Octubre	2023-10-16T00:00:00	2024-11-06T12:00:00	2	Temperatura media	16.8
55394	7	Sololá	701	Sololá	3	Barraneche	10	Octubre	2023-10-16T00:00:00	2024-11-06T12:00:00	4	Temperatura máxima	18.3
55395	7	Sololá	701	Sololá	3	Barraneche	10	Octubre	2023-10-16T00:00:00	2024-11-06T12:00:00	3	Temperatura mínima	16.8
55396	7	Sololá	701	Sololá	3	Barraneche	10	Octubre	2023-10-16T00:00:00	2024-11-06T12:00:00	5	Humedad	67
55397	7	Sololá	701	Sololá	3	Barraneche	10	Octubre	2023-10-16T00:00:00	2024-11-06T12:00:00	6	Velocidad del viento	12.9
55398	7	Sololá	701	Sololá	3	Barraneche	10	Octubre	2023-10-16T00:00:00	2024-11-06T12:00:00	7	Dirección del viento	12.87
55399	7	Sololá	701	Sololá	3	Barraneche	10	Octubre	2023-10-16T00:00:00	2024-11-06T12:00:00	1	Precipitación	0
55400	7	Sololá	701	Sololá	3	Barraneche	10	Octubre	2023-10-16T00:00:00	2024-11-06T12:00:00	8	Radiación solar	545
55401	7	Sololá	701	Sololá	3	Barraneche	10	Octubre	2023-10-16T00:00:00	2024-11-06T13:00:00	2	Temperatura media	18.1
55402	7	Sololá	701	Sololá	3	Barraneche	10	Octubre	2023-10-16T00:00:00	2024-11-06T13:00:00	4	Temperatura máxima	18.4
55403	7	Sololá	701	Sololá	3	Barraneche	10	Octubre	2023-10-16T00:00:00	2024-11-06T13:00:00	3	Temperatura mínima	16.5
55404	7	Sololá	701	Sololá	3	Barraneche	10	Octubre	2023-10-16T00:00:00	2024-11-06T13:00:00	5	Humedad	62
55405	7	Sololá	701	Sololá	3	Barraneche	10	Octubre	2023-10-16T00:00:00	2024-11-06T13:00:00	6	Velocidad del viento	12.9
55406	7	Sololá	701	Sololá	3	Barraneche	10	Octubre	2023-10-16T00:00:00	2024-11-06T13:00:00	7	Dirección del viento	12.87
55407	7	Sololá	701	Sololá	3	Barraneche	10	Octubre	2023-10-16T00:00:00	2024-11-06T13:00:00	1	Precipitación	0
55408	7	Sololá	701	Sololá	3	Barraneche	10	Octubre	2023-10-16T00:00:00	2024-11-06T13:00:00	8	Radiación solar	618
55409	7	Sololá	701	Sololá	3	Barraneche	10	Octubre	2023-10-16T00:00:00	2024-11-06T14:00:00	2	Temperatura media	18.8
55410	7	Sololá	701	Sololá	3	Barraneche	10	Octubre	2023-10-16T00:00:00	2024-11-06T14:00:00	4	Temperatura máxima	19.3
55411	7	Sololá	701	Sololá	3	Barraneche	10	Octubre	2023-10-16T00:00:00	2024-11-06T14:00:00	3	Temperatura mínima	17.9
55412	7	Sololá	701	Sololá	3	Barraneche	10	Octubre	2023-10-16T00:00:00	2024-11-06T14:00:00	5	Humedad	62
55413	7	Sololá	701	Sololá	3	Barraneche	10	Octubre	2023-10-16T00:00:00	2024-11-06T14:00:00	6	Velocidad del viento	14.5
55414	7	Sololá	701	Sololá	3	Barraneche	10	Octubre	2023-10-16T00:00:00	2024-11-06T14:00:00	7	Dirección del viento	14.48
55415	7	Sololá	701	Sololá	3	Barraneche	10	Octubre	2023-10-16T00:00:00	2024-11-06T14:00:00	1	Precipitación	0
55416	7	Sololá	701	Sololá	3	Barraneche	10	Octubre	2023-10-16T00:00:00	2024-11-06T14:00:00	8	Radiación solar	813
55417	7	Sololá	701	Sololá	3	Barraneche	10	Octubre	2023-10-16T00:00:00	2024-11-06T15:00:00	2	Temperatura media	17.7
55418	7	Sololá	701	Sololá	3	Barraneche	10	Octubre	2023-10-16T00:00:00	2024-11-06T15:00:00	4	Temperatura máxima	18.8
55419	7	Sololá	701	Sololá	3	Barraneche	10	Octubre	2023-10-16T00:00:00	2024-11-06T15:00:00	3	Temperatura mínima	17.2
55420	7	Sololá	701	Sololá	3	Barraneche	10	Octubre	2023-10-16T00:00:00	2024-11-06T15:00:00	5	Humedad	64
55421	7	Sololá	701	Sololá	3	Barraneche	10	Octubre	2023-10-16T00:00:00	2024-11-06T15:00:00	6	Velocidad del viento	16.1
55422	7	Sololá	701	Sololá	3	Barraneche	10	Octubre	2023-10-16T00:00:00	2024-11-06T15:00:00	7	Dirección del viento	16.09
55423	7	Sololá	701	Sololá	3	Barraneche	10	Octubre	2023-10-16T00:00:00	2024-11-06T15:00:00	1	Precipitación	0
55424	7	Sololá	701	Sololá	3	Barraneche	10	Octubre	2023-10-16T00:00:00	2024-11-06T15:00:00	8	Radiación solar	532
55425	7	Sololá	701	Sololá	3	Barraneche	10	Octubre	2023-10-16T00:00:00	2024-11-06T16:00:00	2	Temperatura media	16.4
55426	7	Sololá	701	Sololá	3	Barraneche	10	Octubre	2023-10-16T00:00:00	2024-11-06T16:00:00	4	Temperatura máxima	17.7
55427	7	Sololá	701	Sololá	3	Barraneche	10	Octubre	2023-10-16T00:00:00	2024-11-06T16:00:00	3	Temperatura mínima	16.2
55428	7	Sololá	701	Sololá	3	Barraneche	10	Octubre	2023-10-16T00:00:00	2024-11-06T16:00:00	5	Humedad	67
55429	7	Sololá	701	Sololá	3	Barraneche	10	Octubre	2023-10-16T00:00:00	2024-11-06T16:00:00	6	Velocidad del viento	16.1
55430	7	Sololá	701	Sololá	3	Barraneche	10	Octubre	2023-10-16T00:00:00	2024-11-06T16:00:00	7	Dirección del viento	16.09
55431	7	Sololá	701	Sololá	3	Barraneche	10	Octubre	2023-10-16T00:00:00	2024-11-06T16:00:00	1	Precipitación	0
55432	7	Sololá	701	Sololá	3	Barraneche	10	Octubre	2023-10-16T00:00:00	2024-11-06T16:00:00	8	Radiación solar	235
55433	7	Sololá	701	Sololá	3	Barraneche	10	Octubre	2023-10-16T00:00:00	2024-11-06T17:00:00	2	Temperatura media	14.9
55434	7	Sololá	701	Sololá	3	Barraneche	10	Octubre	2023-10-16T00:00:00	2024-11-06T17:00:00	4	Temperatura máxima	16.7
55435	7	Sololá	701	Sololá	3	Barraneche	10	Octubre	2023-10-16T00:00:00	2024-11-06T17:00:00	3	Temperatura mínima	14.9
55436	7	Sololá	701	Sololá	3	Barraneche	10	Octubre	2023-10-16T00:00:00	2024-11-06T17:00:00	5	Humedad	72
55437	7	Sololá	701	Sololá	3	Barraneche	10	Octubre	2023-10-16T00:00:00	2024-11-06T17:00:00	6	Velocidad del viento	16.1
55438	7	Sololá	701	Sololá	3	Barraneche	10	Octubre	2023-10-16T00:00:00	2024-11-06T17:00:00	7	Dirección del viento	16.09
55439	7	Sololá	701	Sololá	3	Barraneche	10	Octubre	2023-10-16T00:00:00	2024-11-06T17:00:00	1	Precipitación	0
55440	7	Sololá	701	Sololá	3	Barraneche	10	Octubre	2023-10-16T00:00:00	2024-11-06T17:00:00	8	Radiación solar	84
55441	7	Sololá	701	Sololá	3	Barraneche	10	Octubre	2023-10-16T00:00:00	2024-11-06T18:00:00	2	Temperatura media	14.3
55442	7	Sololá	701	Sololá	3	Barraneche	10	Octubre	2023-10-16T00:00:00	2024-11-06T18:00:00	4	Temperatura máxima	15.1
55443	7	Sololá	701	Sololá	3	Barraneche	10	Octubre	2023-10-16T00:00:00	2024-11-06T18:00:00	3	Temperatura mínima	14.3
55444	7	Sololá	701	Sololá	3	Barraneche	10	Octubre	2023-10-16T00:00:00	2024-11-06T18:00:00	5	Humedad	74
55445	7	Sololá	701	Sololá	3	Barraneche	10	Octubre	2023-10-16T00:00:00	2024-11-06T18:00:00	6	Velocidad del viento	14.5
55446	7	Sololá	701	Sololá	3	Barraneche	10	Octubre	2023-10-16T00:00:00	2024-11-06T18:00:00	7	Dirección del viento	14.48
55447	7	Sololá	701	Sololá	3	Barraneche	10	Octubre	2023-10-16T00:00:00	2024-11-06T18:00:00	1	Precipitación	0
55448	7	Sololá	701	Sololá	3	Barraneche	10	Octubre	2023-10-16T00:00:00	2024-11-06T18:00:00	8	Radiación solar	7
55449	7	Sololá	701	Sololá	3	Barraneche	10	Octubre	2023-10-16T00:00:00	2024-11-06T19:00:00	2	Temperatura media	14.5
55450	7	Sololá	701	Sololá	3	Barraneche	10	Octubre	2023-10-16T00:00:00	2024-11-06T19:00:00	4	Temperatura máxima	14.6
55451	7	Sololá	701	Sololá	3	Barraneche	10	Octubre	2023-10-16T00:00:00	2024-11-06T19:00:00	3	Temperatura mínima	14.3
55452	7	Sololá	701	Sololá	3	Barraneche	10	Octubre	2023-10-16T00:00:00	2024-11-06T19:00:00	5	Humedad	70
55453	7	Sololá	701	Sololá	3	Barraneche	10	Octubre	2023-10-16T00:00:00	2024-11-06T19:00:00	6	Velocidad del viento	17.7
55454	7	Sololá	701	Sololá	3	Barraneche	10	Octubre	2023-10-16T00:00:00	2024-11-06T19:00:00	7	Dirección del viento	17.7
55455	7	Sololá	701	Sololá	3	Barraneche	10	Octubre	2023-10-16T00:00:00	2024-11-06T19:00:00	1	Precipitación	0
55456	7	Sololá	701	Sololá	3	Barraneche	10	Octubre	2023-10-16T00:00:00	2024-11-06T19:00:00	8	Radiación solar	0
55457	7	Sololá	701	Sololá	3	Barraneche	10	Octubre	2023-10-16T00:00:00	2024-11-06T20:00:00	2	Temperatura media	14.8
55458	7	Sololá	701	Sololá	3	Barraneche	10	Octubre	2023-10-16T00:00:00	2024-11-06T20:00:00	4	Temperatura máxima	15
55459	7	Sololá	701	Sololá	3	Barraneche	10	Octubre	2023-10-16T00:00:00	2024-11-06T20:00:00	3	Temperatura mínima	14.3
55460	7	Sololá	701	Sololá	3	Barraneche	10	Octubre	2023-10-16T00:00:00	2024-11-06T20:00:00	5	Humedad	68
55461	7	Sololá	701	Sololá	3	Barraneche	10	Octubre	2023-10-16T00:00:00	2024-11-06T20:00:00	6	Velocidad del viento	20.9
55462	7	Sololá	701	Sololá	3	Barraneche	10	Octubre	2023-10-16T00:00:00	2024-11-06T20:00:00	7	Dirección del viento	20.92
55463	7	Sololá	701	Sololá	3	Barraneche	10	Octubre	2023-10-16T00:00:00	2024-11-06T20:00:00	1	Precipitación	0
55464	7	Sololá	701	Sololá	3	Barraneche	10	Octubre	2023-10-16T00:00:00	2024-11-06T20:00:00	8	Radiación solar	0
55465	7	Sololá	701	Sololá	3	Barraneche	10	Octubre	2023-10-16T00:00:00	2024-11-06T21:00:00	2	Temperatura media	13.9
55466	7	Sololá	701	Sololá	3	Barraneche	10	Octubre	2023-10-16T00:00:00	2024-11-06T21:00:00	4	Temperatura máxima	14.9
55467	7	Sololá	701	Sololá	3	Barraneche	10	Octubre	2023-10-16T00:00:00	2024-11-06T21:00:00	3	Temperatura mínima	13.9
55468	7	Sololá	701	Sololá	3	Barraneche	10	Octubre	2023-10-16T00:00:00	2024-11-06T21:00:00	5	Humedad	73
55469	7	Sololá	701	Sololá	3	Barraneche	10	Octubre	2023-10-16T00:00:00	2024-11-06T21:00:00	6	Velocidad del viento	20.9
55470	7	Sololá	701	Sololá	3	Barraneche	10	Octubre	2023-10-16T00:00:00	2024-11-06T21:00:00	7	Dirección del viento	20.92
55471	7	Sololá	701	Sololá	3	Barraneche	10	Octubre	2023-10-16T00:00:00	2024-11-06T21:00:00	1	Precipitación	0
55472	7	Sololá	701	Sololá	3	Barraneche	10	Octubre	2023-10-16T00:00:00	2024-11-06T21:00:00	8	Radiación solar	0
55473	7	Sololá	701	Sololá	3	Barraneche	10	Octubre	2023-10-16T00:00:00	2024-11-06T22:00:00	2	Temperatura media	13.7
55474	7	Sololá	701	Sololá	3	Barraneche	10	Octubre	2023-10-16T00:00:00	2024-11-06T22:00:00	4	Temperatura máxima	14.1
55475	7	Sololá	701	Sololá	3	Barraneche	10	Octubre	2023-10-16T00:00:00	2024-11-06T22:00:00	3	Temperatura mínima	13.6
55476	7	Sololá	701	Sololá	3	Barraneche	10	Octubre	2023-10-16T00:00:00	2024-11-06T22:00:00	5	Humedad	72
55477	7	Sololá	701	Sololá	3	Barraneche	10	Octubre	2023-10-16T00:00:00	2024-11-06T22:00:00	6	Velocidad del viento	27.4
55478	7	Sololá	701	Sololá	3	Barraneche	10	Octubre	2023-10-16T00:00:00	2024-11-06T22:00:00	7	Dirección del viento	27.36
55479	7	Sololá	701	Sololá	3	Barraneche	10	Octubre	2023-10-16T00:00:00	2024-11-06T22:00:00	1	Precipitación	0
55480	7	Sololá	701	Sololá	3	Barraneche	10	Octubre	2023-10-16T00:00:00	2024-11-06T22:00:00	8	Radiación solar	0
55481	7	Sololá	701	Sololá	3	Barraneche	10	Octubre	2023-10-16T00:00:00	2024-11-06T23:00:00	2	Temperatura media	13.4
55482	7	Sololá	701	Sololá	3	Barraneche	10	Octubre	2023-10-16T00:00:00	2024-11-06T23:00:00	4	Temperatura máxima	13.7
55483	7	Sololá	701	Sololá	3	Barraneche	10	Octubre	2023-10-16T00:00:00	2024-11-06T23:00:00	3	Temperatura mínima	13.3
55484	7	Sololá	701	Sololá	3	Barraneche	10	Octubre	2023-10-16T00:00:00	2024-11-06T23:00:00	5	Humedad	72
55485	7	Sololá	701	Sololá	3	Barraneche	10	Octubre	2023-10-16T00:00:00	2024-11-06T23:00:00	6	Velocidad del viento	27.4
55486	7	Sololá	701	Sololá	3	Barraneche	10	Octubre	2023-10-16T00:00:00	2024-11-06T23:00:00	7	Dirección del viento	27.36
55487	7	Sololá	701	Sololá	3	Barraneche	10	Octubre	2023-10-16T00:00:00	2024-11-06T23:00:00	1	Precipitación	0
55488	7	Sololá	701	Sololá	3	Barraneche	10	Octubre	2023-10-16T00:00:00	2024-11-06T23:00:00	8	Radiación solar	0
55489	7	Sololá	701	Sololá	3	Barraneche	10	Octubre	2023-10-17T00:00:00	2024-11-06T00:00:00	2	Temperatura media	13.5
55490	7	Sololá	701	Sololá	3	Barraneche	10	Octubre	2023-10-17T00:00:00	2024-11-06T00:00:00	4	Temperatura máxima	13.5
55491	7	Sololá	701	Sololá	3	Barraneche	10	Octubre	2023-10-17T00:00:00	2024-11-06T00:00:00	3	Temperatura mínima	13
55492	7	Sololá	701	Sololá	3	Barraneche	10	Octubre	2023-10-17T00:00:00	2024-11-06T00:00:00	5	Humedad	71
55493	7	Sololá	701	Sololá	3	Barraneche	10	Octubre	2023-10-17T00:00:00	2024-11-06T00:00:00	6	Velocidad del viento	22.5
55494	7	Sololá	701	Sololá	3	Barraneche	10	Octubre	2023-10-17T00:00:00	2024-11-06T00:00:00	7	Dirección del viento	22.53
55495	7	Sololá	701	Sololá	3	Barraneche	10	Octubre	2023-10-17T00:00:00	2024-11-06T00:00:00	1	Precipitación	0
55496	7	Sololá	701	Sololá	3	Barraneche	10	Octubre	2023-10-17T00:00:00	2024-11-06T00:00:00	8	Radiación solar	0
55497	7	Sololá	701	Sololá	3	Barraneche	10	Octubre	2023-10-17T00:00:00	2024-11-06T01:00:00	2	Temperatura media	14.1
55498	7	Sololá	701	Sololá	3	Barraneche	10	Octubre	2023-10-17T00:00:00	2024-11-06T01:00:00	4	Temperatura máxima	14.2
55499	7	Sololá	701	Sololá	3	Barraneche	10	Octubre	2023-10-17T00:00:00	2024-11-06T01:00:00	3	Temperatura mínima	13.5
55500	7	Sololá	701	Sololá	3	Barraneche	10	Octubre	2023-10-17T00:00:00	2024-11-06T01:00:00	5	Humedad	67
55501	7	Sololá	701	Sololá	3	Barraneche	10	Octubre	2023-10-17T00:00:00	2024-11-06T01:00:00	6	Velocidad del viento	20.9
55502	7	Sololá	701	Sololá	3	Barraneche	10	Octubre	2023-10-17T00:00:00	2024-11-06T01:00:00	7	Dirección del viento	20.92
55503	7	Sololá	701	Sololá	3	Barraneche	10	Octubre	2023-10-17T00:00:00	2024-11-06T01:00:00	1	Precipitación	0
55504	7	Sololá	701	Sololá	3	Barraneche	10	Octubre	2023-10-17T00:00:00	2024-11-06T01:00:00	8	Radiación solar	0
55505	7	Sololá	701	Sololá	3	Barraneche	10	Octubre	2023-10-17T00:00:00	2024-11-06T02:00:00	2	Temperatura media	13.7
55506	7	Sololá	701	Sololá	3	Barraneche	10	Octubre	2023-10-17T00:00:00	2024-11-06T02:00:00	4	Temperatura máxima	14
55507	7	Sololá	701	Sololá	3	Barraneche	10	Octubre	2023-10-17T00:00:00	2024-11-06T02:00:00	3	Temperatura mínima	13.6
55508	7	Sololá	701	Sololá	3	Barraneche	10	Octubre	2023-10-17T00:00:00	2024-11-06T02:00:00	5	Humedad	67
55509	7	Sololá	701	Sololá	3	Barraneche	10	Octubre	2023-10-17T00:00:00	2024-11-06T02:00:00	6	Velocidad del viento	16.1
55510	7	Sololá	701	Sololá	3	Barraneche	10	Octubre	2023-10-17T00:00:00	2024-11-06T02:00:00	7	Dirección del viento	16.09
55511	7	Sololá	701	Sololá	3	Barraneche	10	Octubre	2023-10-17T00:00:00	2024-11-06T02:00:00	1	Precipitación	0
55512	7	Sololá	701	Sololá	3	Barraneche	10	Octubre	2023-10-17T00:00:00	2024-11-06T02:00:00	8	Radiación solar	0
55513	7	Sololá	701	Sololá	3	Barraneche	10	Octubre	2023-10-17T00:00:00	2024-11-06T03:00:00	2	Temperatura media	13.3
55514	7	Sololá	701	Sololá	3	Barraneche	10	Octubre	2023-10-17T00:00:00	2024-11-06T03:00:00	4	Temperatura máxima	13.7
55515	7	Sololá	701	Sololá	3	Barraneche	10	Octubre	2023-10-17T00:00:00	2024-11-06T03:00:00	3	Temperatura mínima	13.1
55516	7	Sololá	701	Sololá	3	Barraneche	10	Octubre	2023-10-17T00:00:00	2024-11-06T03:00:00	5	Humedad	68
55517	7	Sololá	701	Sololá	3	Barraneche	10	Octubre	2023-10-17T00:00:00	2024-11-06T03:00:00	6	Velocidad del viento	14.5
55518	7	Sololá	701	Sololá	3	Barraneche	10	Octubre	2023-10-17T00:00:00	2024-11-06T03:00:00	7	Dirección del viento	14.48
55519	7	Sololá	701	Sololá	3	Barraneche	10	Octubre	2023-10-17T00:00:00	2024-11-06T03:00:00	1	Precipitación	0
55520	7	Sololá	701	Sololá	3	Barraneche	10	Octubre	2023-10-17T00:00:00	2024-11-06T03:00:00	8	Radiación solar	0
55521	7	Sololá	701	Sololá	3	Barraneche	10	Octubre	2023-10-17T00:00:00	2024-11-06T04:00:00	2	Temperatura media	13.1
55522	7	Sololá	701	Sololá	3	Barraneche	10	Octubre	2023-10-17T00:00:00	2024-11-06T04:00:00	4	Temperatura máxima	13.3
55523	7	Sololá	701	Sololá	3	Barraneche	10	Octubre	2023-10-17T00:00:00	2024-11-06T04:00:00	3	Temperatura mínima	12.8
55524	7	Sololá	701	Sololá	3	Barraneche	10	Octubre	2023-10-17T00:00:00	2024-11-06T04:00:00	5	Humedad	69
55525	7	Sololá	701	Sololá	3	Barraneche	10	Octubre	2023-10-17T00:00:00	2024-11-06T04:00:00	6	Velocidad del viento	12.9
55526	7	Sololá	701	Sololá	3	Barraneche	10	Octubre	2023-10-17T00:00:00	2024-11-06T04:00:00	7	Dirección del viento	12.87
55527	7	Sololá	701	Sololá	3	Barraneche	10	Octubre	2023-10-17T00:00:00	2024-11-06T04:00:00	1	Precipitación	0
55528	7	Sololá	701	Sololá	3	Barraneche	10	Octubre	2023-10-17T00:00:00	2024-11-06T04:00:00	8	Radiación solar	0
55529	7	Sololá	701	Sololá	3	Barraneche	10	Octubre	2023-10-17T00:00:00	2024-11-06T05:00:00	2	Temperatura media	13.2
55530	7	Sololá	701	Sololá	3	Barraneche	10	Octubre	2023-10-17T00:00:00	2024-11-06T05:00:00	4	Temperatura máxima	13.2
55531	7	Sololá	701	Sololá	3	Barraneche	10	Octubre	2023-10-17T00:00:00	2024-11-06T05:00:00	3	Temperatura mínima	12.6
55532	7	Sololá	701	Sololá	3	Barraneche	10	Octubre	2023-10-17T00:00:00	2024-11-06T05:00:00	5	Humedad	67
55533	7	Sololá	701	Sololá	3	Barraneche	10	Octubre	2023-10-17T00:00:00	2024-11-06T05:00:00	6	Velocidad del viento	11.3
55534	7	Sololá	701	Sololá	3	Barraneche	10	Octubre	2023-10-17T00:00:00	2024-11-06T05:00:00	7	Dirección del viento	11.27
55535	7	Sololá	701	Sololá	3	Barraneche	10	Octubre	2023-10-17T00:00:00	2024-11-06T05:00:00	1	Precipitación	0
55536	7	Sololá	701	Sololá	3	Barraneche	10	Octubre	2023-10-17T00:00:00	2024-11-06T05:00:00	8	Radiación solar	0
55537	7	Sololá	701	Sololá	3	Barraneche	10	Octubre	2023-10-17T00:00:00	2024-11-06T06:00:00	2	Temperatura media	12.9
55538	7	Sololá	701	Sololá	3	Barraneche	10	Octubre	2023-10-17T00:00:00	2024-11-06T06:00:00	4	Temperatura máxima	13.3
55539	7	Sololá	701	Sololá	3	Barraneche	10	Octubre	2023-10-17T00:00:00	2024-11-06T06:00:00	3	Temperatura mínima	12.7
55540	7	Sololá	701	Sololá	3	Barraneche	10	Octubre	2023-10-17T00:00:00	2024-11-06T06:00:00	5	Humedad	67
55541	7	Sololá	701	Sololá	3	Barraneche	10	Octubre	2023-10-17T00:00:00	2024-11-06T06:00:00	6	Velocidad del viento	12.9
55542	7	Sololá	701	Sololá	3	Barraneche	10	Octubre	2023-10-17T00:00:00	2024-11-06T06:00:00	7	Dirección del viento	12.87
55543	7	Sololá	701	Sololá	3	Barraneche	10	Octubre	2023-10-17T00:00:00	2024-11-06T06:00:00	1	Precipitación	0
55544	7	Sololá	701	Sololá	3	Barraneche	10	Octubre	2023-10-17T00:00:00	2024-11-06T06:00:00	8	Radiación solar	0
55545	7	Sololá	701	Sololá	3	Barraneche	10	Octubre	2023-10-17T00:00:00	2024-11-06T07:00:00	2	Temperatura media	13.4
55546	7	Sololá	701	Sololá	3	Barraneche	10	Octubre	2023-10-17T00:00:00	2024-11-06T07:00:00	4	Temperatura máxima	13.4
55547	7	Sololá	701	Sololá	3	Barraneche	10	Octubre	2023-10-17T00:00:00	2024-11-06T07:00:00	3	Temperatura mínima	12.6
55548	7	Sololá	701	Sololá	3	Barraneche	10	Octubre	2023-10-17T00:00:00	2024-11-06T07:00:00	5	Humedad	67
55549	7	Sololá	701	Sololá	3	Barraneche	10	Octubre	2023-10-17T00:00:00	2024-11-06T07:00:00	6	Velocidad del viento	16.1
55550	7	Sololá	701	Sololá	3	Barraneche	10	Octubre	2023-10-17T00:00:00	2024-11-06T07:00:00	7	Dirección del viento	16.09
55551	7	Sololá	701	Sololá	3	Barraneche	10	Octubre	2023-10-17T00:00:00	2024-11-06T07:00:00	1	Precipitación	0
55552	7	Sololá	701	Sololá	3	Barraneche	10	Octubre	2023-10-17T00:00:00	2024-11-06T07:00:00	8	Radiación solar	57
55553	7	Sololá	701	Sololá	3	Barraneche	10	Octubre	2023-10-17T00:00:00	2024-11-06T08:00:00	2	Temperatura media	15.6
55554	7	Sololá	701	Sololá	3	Barraneche	10	Octubre	2023-10-17T00:00:00	2024-11-06T08:00:00	4	Temperatura máxima	15.6
55555	7	Sololá	701	Sololá	3	Barraneche	10	Octubre	2023-10-17T00:00:00	2024-11-06T08:00:00	3	Temperatura mínima	13.4
55556	7	Sololá	701	Sololá	3	Barraneche	10	Octubre	2023-10-17T00:00:00	2024-11-06T08:00:00	5	Humedad	62
55557	7	Sololá	701	Sololá	3	Barraneche	10	Octubre	2023-10-17T00:00:00	2024-11-06T08:00:00	6	Velocidad del viento	17.7
55558	7	Sololá	701	Sololá	3	Barraneche	10	Octubre	2023-10-17T00:00:00	2024-11-06T08:00:00	7	Dirección del viento	17.7
55559	7	Sololá	701	Sololá	3	Barraneche	10	Octubre	2023-10-17T00:00:00	2024-11-06T08:00:00	1	Precipitación	0
55560	7	Sololá	701	Sololá	3	Barraneche	10	Octubre	2023-10-17T00:00:00	2024-11-06T08:00:00	8	Radiación solar	313
55561	7	Sololá	701	Sololá	3	Barraneche	10	Octubre	2023-10-17T00:00:00	2024-11-06T09:00:00	2	Temperatura media	15.7
55562	7	Sololá	701	Sololá	3	Barraneche	10	Octubre	2023-10-17T00:00:00	2024-11-06T09:00:00	4	Temperatura máxima	15.7
55563	7	Sololá	701	Sololá	3	Barraneche	10	Octubre	2023-10-17T00:00:00	2024-11-06T09:00:00	3	Temperatura mínima	14.9
55564	7	Sololá	701	Sololá	3	Barraneche	10	Octubre	2023-10-17T00:00:00	2024-11-06T09:00:00	5	Humedad	63
55565	7	Sololá	701	Sololá	3	Barraneche	10	Octubre	2023-10-17T00:00:00	2024-11-06T09:00:00	6	Velocidad del viento	17.7
55566	7	Sololá	701	Sololá	3	Barraneche	10	Octubre	2023-10-17T00:00:00	2024-11-06T09:00:00	7	Dirección del viento	17.7
55567	7	Sololá	701	Sololá	3	Barraneche	10	Octubre	2023-10-17T00:00:00	2024-11-06T09:00:00	1	Precipitación	0
55568	7	Sololá	701	Sololá	3	Barraneche	10	Octubre	2023-10-17T00:00:00	2024-11-06T09:00:00	8	Radiación solar	505
55569	7	Sololá	701	Sololá	3	Barraneche	10	Octubre	2023-10-17T00:00:00	2024-11-06T10:00:00	2	Temperatura media	15.3
55570	7	Sololá	701	Sololá	3	Barraneche	10	Octubre	2023-10-17T00:00:00	2024-11-06T10:00:00	4	Temperatura máxima	16.6
55571	7	Sololá	701	Sololá	3	Barraneche	10	Octubre	2023-10-17T00:00:00	2024-11-06T10:00:00	3	Temperatura mínima	15.1
55572	7	Sololá	701	Sololá	3	Barraneche	10	Octubre	2023-10-17T00:00:00	2024-11-06T10:00:00	5	Humedad	63
55573	7	Sololá	701	Sololá	3	Barraneche	10	Octubre	2023-10-17T00:00:00	2024-11-06T10:00:00	6	Velocidad del viento	20.9
55574	7	Sololá	701	Sololá	3	Barraneche	10	Octubre	2023-10-17T00:00:00	2024-11-06T10:00:00	7	Dirección del viento	20.92
55575	7	Sololá	701	Sololá	3	Barraneche	10	Octubre	2023-10-17T00:00:00	2024-11-06T10:00:00	1	Precipitación	0
55576	7	Sololá	701	Sololá	3	Barraneche	10	Octubre	2023-10-17T00:00:00	2024-11-06T10:00:00	8	Radiación solar	677
55577	7	Sololá	701	Sololá	3	Barraneche	10	Octubre	2023-10-17T00:00:00	2024-11-06T11:00:00	2	Temperatura media	15.4
55578	7	Sololá	701	Sololá	3	Barraneche	10	Octubre	2023-10-17T00:00:00	2024-11-06T11:00:00	4	Temperatura máxima	15.4
55579	7	Sololá	701	Sololá	3	Barraneche	10	Octubre	2023-10-17T00:00:00	2024-11-06T11:00:00	3	Temperatura mínima	14.8
55580	7	Sololá	701	Sololá	3	Barraneche	10	Octubre	2023-10-17T00:00:00	2024-11-06T11:00:00	5	Humedad	66
55581	7	Sololá	701	Sololá	3	Barraneche	10	Octubre	2023-10-17T00:00:00	2024-11-06T11:00:00	6	Velocidad del viento	16.1
55582	7	Sololá	701	Sololá	3	Barraneche	10	Octubre	2023-10-17T00:00:00	2024-11-06T11:00:00	7	Dirección del viento	16.09
55583	7	Sololá	701	Sololá	3	Barraneche	10	Octubre	2023-10-17T00:00:00	2024-11-06T11:00:00	1	Precipitación	0
55584	7	Sololá	701	Sololá	3	Barraneche	10	Octubre	2023-10-17T00:00:00	2024-11-06T11:00:00	8	Radiación solar	311
55585	7	Sololá	701	Sololá	3	Barraneche	10	Octubre	2023-10-17T00:00:00	2024-11-06T12:00:00	2	Temperatura media	16.2
55586	7	Sololá	701	Sololá	3	Barraneche	10	Octubre	2023-10-17T00:00:00	2024-11-06T12:00:00	4	Temperatura máxima	16.2
55587	7	Sololá	701	Sololá	3	Barraneche	10	Octubre	2023-10-17T00:00:00	2024-11-06T12:00:00	3	Temperatura mínima	15.4
55588	7	Sololá	701	Sololá	3	Barraneche	10	Octubre	2023-10-17T00:00:00	2024-11-06T12:00:00	5	Humedad	63
55589	7	Sololá	701	Sololá	3	Barraneche	10	Octubre	2023-10-17T00:00:00	2024-11-06T12:00:00	6	Velocidad del viento	14.5
55590	7	Sololá	701	Sololá	3	Barraneche	10	Octubre	2023-10-17T00:00:00	2024-11-06T12:00:00	7	Dirección del viento	14.48
55591	7	Sololá	701	Sololá	3	Barraneche	10	Octubre	2023-10-17T00:00:00	2024-11-06T12:00:00	1	Precipitación	0
55592	7	Sololá	701	Sololá	3	Barraneche	10	Octubre	2023-10-17T00:00:00	2024-11-06T12:00:00	8	Radiación solar	453
55593	7	Sololá	701	Sololá	3	Barraneche	10	Octubre	2023-10-17T00:00:00	2024-11-06T13:00:00	2	Temperatura media	16.5
55594	7	Sololá	701	Sololá	3	Barraneche	10	Octubre	2023-10-17T00:00:00	2024-11-06T13:00:00	4	Temperatura máxima	17.3
55595	7	Sololá	701	Sololá	3	Barraneche	10	Octubre	2023-10-17T00:00:00	2024-11-06T13:00:00	3	Temperatura mínima	16.2
55596	7	Sololá	701	Sololá	3	Barraneche	10	Octubre	2023-10-17T00:00:00	2024-11-06T13:00:00	5	Humedad	64
55597	7	Sololá	701	Sololá	3	Barraneche	10	Octubre	2023-10-17T00:00:00	2024-11-06T13:00:00	6	Velocidad del viento	11.3
55598	7	Sololá	701	Sololá	3	Barraneche	10	Octubre	2023-10-17T00:00:00	2024-11-06T13:00:00	7	Dirección del viento	11.27
55599	7	Sololá	701	Sololá	3	Barraneche	10	Octubre	2023-10-17T00:00:00	2024-11-06T13:00:00	1	Precipitación	0
55600	7	Sololá	701	Sololá	3	Barraneche	10	Octubre	2023-10-17T00:00:00	2024-11-06T13:00:00	8	Radiación solar	384
55601	7	Sololá	701	Sololá	3	Barraneche	10	Octubre	2023-10-17T00:00:00	2024-11-06T14:00:00	2	Temperatura media	16.8
55602	7	Sololá	701	Sololá	3	Barraneche	10	Octubre	2023-10-17T00:00:00	2024-11-06T14:00:00	4	Temperatura máxima	16.8
55603	7	Sololá	701	Sololá	3	Barraneche	10	Octubre	2023-10-17T00:00:00	2024-11-06T14:00:00	3	Temperatura mínima	15.6
55604	7	Sololá	701	Sololá	3	Barraneche	10	Octubre	2023-10-17T00:00:00	2024-11-06T14:00:00	5	Humedad	62
55605	7	Sololá	701	Sololá	3	Barraneche	10	Octubre	2023-10-17T00:00:00	2024-11-06T14:00:00	6	Velocidad del viento	12.9
55606	7	Sololá	701	Sololá	3	Barraneche	10	Octubre	2023-10-17T00:00:00	2024-11-06T14:00:00	7	Dirección del viento	12.87
55607	7	Sololá	701	Sololá	3	Barraneche	10	Octubre	2023-10-17T00:00:00	2024-11-06T14:00:00	1	Precipitación	0
55608	7	Sololá	701	Sololá	3	Barraneche	10	Octubre	2023-10-17T00:00:00	2024-11-06T14:00:00	8	Radiación solar	378
55609	7	Sololá	701	Sololá	3	Barraneche	10	Octubre	2023-10-17T00:00:00	2024-11-06T15:00:00	2	Temperatura media	16.2
55610	7	Sololá	701	Sololá	3	Barraneche	10	Octubre	2023-10-17T00:00:00	2024-11-06T15:00:00	4	Temperatura máxima	16.8
55611	7	Sololá	701	Sololá	3	Barraneche	10	Octubre	2023-10-17T00:00:00	2024-11-06T15:00:00	3	Temperatura mínima	16.1
55612	7	Sololá	701	Sololá	3	Barraneche	10	Octubre	2023-10-17T00:00:00	2024-11-06T15:00:00	5	Humedad	66
55613	7	Sololá	701	Sololá	3	Barraneche	10	Octubre	2023-10-17T00:00:00	2024-11-06T15:00:00	6	Velocidad del viento	14.5
55614	7	Sololá	701	Sololá	3	Barraneche	10	Octubre	2023-10-17T00:00:00	2024-11-06T15:00:00	7	Dirección del viento	14.48
55615	7	Sololá	701	Sololá	3	Barraneche	10	Octubre	2023-10-17T00:00:00	2024-11-06T15:00:00	1	Precipitación	0
55616	7	Sololá	701	Sololá	3	Barraneche	10	Octubre	2023-10-17T00:00:00	2024-11-06T15:00:00	8	Radiación solar	461
55617	7	Sololá	701	Sololá	3	Barraneche	10	Octubre	2023-10-17T00:00:00	2024-11-06T16:00:00	2	Temperatura media	16
55618	7	Sololá	701	Sololá	3	Barraneche	10	Octubre	2023-10-17T00:00:00	2024-11-06T16:00:00	4	Temperatura máxima	16.4
55619	7	Sololá	701	Sololá	3	Barraneche	10	Octubre	2023-10-17T00:00:00	2024-11-06T16:00:00	3	Temperatura mínima	16
55620	7	Sololá	701	Sololá	3	Barraneche	10	Octubre	2023-10-17T00:00:00	2024-11-06T16:00:00	5	Humedad	67
55621	7	Sololá	701	Sololá	3	Barraneche	10	Octubre	2023-10-17T00:00:00	2024-11-06T16:00:00	6	Velocidad del viento	12.9
55622	7	Sololá	701	Sololá	3	Barraneche	10	Octubre	2023-10-17T00:00:00	2024-11-06T16:00:00	7	Dirección del viento	12.87
55623	7	Sololá	701	Sololá	3	Barraneche	10	Octubre	2023-10-17T00:00:00	2024-11-06T16:00:00	1	Precipitación	0
55624	7	Sololá	701	Sololá	3	Barraneche	10	Octubre	2023-10-17T00:00:00	2024-11-06T16:00:00	8	Radiación solar	331
55625	7	Sololá	701	Sololá	3	Barraneche	10	Octubre	2023-10-17T00:00:00	2024-11-06T17:00:00	2	Temperatura media	14.8
55626	7	Sololá	701	Sololá	3	Barraneche	10	Octubre	2023-10-17T00:00:00	2024-11-06T17:00:00	4	Temperatura máxima	16
55627	7	Sololá	701	Sololá	3	Barraneche	10	Octubre	2023-10-17T00:00:00	2024-11-06T17:00:00	3	Temperatura mínima	14.7
55628	7	Sololá	701	Sololá	3	Barraneche	10	Octubre	2023-10-17T00:00:00	2024-11-06T17:00:00	5	Humedad	70
55629	7	Sololá	701	Sololá	3	Barraneche	10	Octubre	2023-10-17T00:00:00	2024-11-06T17:00:00	6	Velocidad del viento	12.9
55630	7	Sololá	701	Sololá	3	Barraneche	10	Octubre	2023-10-17T00:00:00	2024-11-06T17:00:00	7	Dirección del viento	12.87
55631	7	Sololá	701	Sololá	3	Barraneche	10	Octubre	2023-10-17T00:00:00	2024-11-06T17:00:00	1	Precipitación	0
55632	7	Sololá	701	Sololá	3	Barraneche	10	Octubre	2023-10-17T00:00:00	2024-11-06T17:00:00	8	Radiación solar	153
55633	7	Sololá	701	Sololá	3	Barraneche	10	Octubre	2023-10-17T00:00:00	2024-11-06T18:00:00	2	Temperatura media	14.3
55634	7	Sololá	701	Sololá	3	Barraneche	10	Octubre	2023-10-17T00:00:00	2024-11-06T18:00:00	4	Temperatura máxima	14.9
55635	7	Sololá	701	Sololá	3	Barraneche	10	Octubre	2023-10-17T00:00:00	2024-11-06T18:00:00	3	Temperatura mínima	14.2
55636	7	Sololá	701	Sololá	3	Barraneche	10	Octubre	2023-10-17T00:00:00	2024-11-06T18:00:00	5	Humedad	69
55637	7	Sololá	701	Sololá	3	Barraneche	10	Octubre	2023-10-17T00:00:00	2024-11-06T18:00:00	6	Velocidad del viento	12.9
55638	7	Sololá	701	Sololá	3	Barraneche	10	Octubre	2023-10-17T00:00:00	2024-11-06T18:00:00	7	Dirección del viento	12.87
55639	7	Sololá	701	Sololá	3	Barraneche	10	Octubre	2023-10-17T00:00:00	2024-11-06T18:00:00	1	Precipitación	0
55640	7	Sololá	701	Sololá	3	Barraneche	10	Octubre	2023-10-17T00:00:00	2024-11-06T18:00:00	8	Radiación solar	27
55641	7	Sololá	701	Sololá	3	Barraneche	10	Octubre	2023-10-17T00:00:00	2024-11-06T19:00:00	2	Temperatura media	13.8
55642	7	Sololá	701	Sololá	3	Barraneche	10	Octubre	2023-10-17T00:00:00	2024-11-06T19:00:00	4	Temperatura máxima	14.3
55643	7	Sololá	701	Sololá	3	Barraneche	10	Octubre	2023-10-17T00:00:00	2024-11-06T19:00:00	3	Temperatura mínima	13.8
55644	7	Sololá	701	Sololá	3	Barraneche	10	Octubre	2023-10-17T00:00:00	2024-11-06T19:00:00	5	Humedad	70
55645	7	Sololá	701	Sololá	3	Barraneche	10	Octubre	2023-10-17T00:00:00	2024-11-06T19:00:00	6	Velocidad del viento	9.7
55646	7	Sololá	701	Sololá	3	Barraneche	10	Octubre	2023-10-17T00:00:00	2024-11-06T19:00:00	7	Dirección del viento	9.66
55647	7	Sololá	701	Sololá	3	Barraneche	10	Octubre	2023-10-17T00:00:00	2024-11-06T19:00:00	1	Precipitación	0
55648	7	Sololá	701	Sololá	3	Barraneche	10	Octubre	2023-10-17T00:00:00	2024-11-06T19:00:00	8	Radiación solar	0
55649	7	Sololá	701	Sololá	3	Barraneche	10	Octubre	2023-10-17T00:00:00	2024-11-06T20:00:00	2	Temperatura media	13
55650	7	Sololá	701	Sololá	3	Barraneche	10	Octubre	2023-10-17T00:00:00	2024-11-06T20:00:00	4	Temperatura máxima	13.9
55651	7	Sololá	701	Sololá	3	Barraneche	10	Octubre	2023-10-17T00:00:00	2024-11-06T20:00:00	3	Temperatura mínima	12.9
55652	7	Sololá	701	Sololá	3	Barraneche	10	Octubre	2023-10-17T00:00:00	2024-11-06T20:00:00	5	Humedad	71
55653	7	Sololá	701	Sololá	3	Barraneche	10	Octubre	2023-10-17T00:00:00	2024-11-06T20:00:00	6	Velocidad del viento	3.2
55654	7	Sololá	701	Sololá	3	Barraneche	10	Octubre	2023-10-17T00:00:00	2024-11-06T20:00:00	7	Dirección del viento	3.22
55655	7	Sololá	701	Sololá	3	Barraneche	10	Octubre	2023-10-17T00:00:00	2024-11-06T20:00:00	1	Precipitación	0
55656	7	Sololá	701	Sololá	3	Barraneche	10	Octubre	2023-10-17T00:00:00	2024-11-06T20:00:00	8	Radiación solar	0
55657	7	Sololá	701	Sololá	3	Barraneche	10	Octubre	2023-10-17T00:00:00	2024-11-06T21:00:00	2	Temperatura media	14.3
55658	7	Sololá	701	Sololá	3	Barraneche	10	Octubre	2023-10-17T00:00:00	2024-11-06T21:00:00	4	Temperatura máxima	14.4
55659	7	Sololá	701	Sololá	3	Barraneche	10	Octubre	2023-10-17T00:00:00	2024-11-06T21:00:00	3	Temperatura mínima	13
55660	7	Sololá	701	Sololá	3	Barraneche	10	Octubre	2023-10-17T00:00:00	2024-11-06T21:00:00	5	Humedad	64
55661	7	Sololá	701	Sololá	3	Barraneche	10	Octubre	2023-10-17T00:00:00	2024-11-06T21:00:00	6	Velocidad del viento	4.8
55662	7	Sololá	701	Sololá	3	Barraneche	10	Octubre	2023-10-17T00:00:00	2024-11-06T21:00:00	7	Dirección del viento	4.83
55663	7	Sololá	701	Sololá	3	Barraneche	10	Octubre	2023-10-17T00:00:00	2024-11-06T21:00:00	1	Precipitación	0
55664	7	Sololá	701	Sololá	3	Barraneche	10	Octubre	2023-10-17T00:00:00	2024-11-06T21:00:00	8	Radiación solar	0
55665	7	Sololá	701	Sololá	3	Barraneche	10	Octubre	2023-10-17T00:00:00	2024-11-06T22:00:00	2	Temperatura media	13.4
55666	7	Sololá	701	Sololá	3	Barraneche	10	Octubre	2023-10-17T00:00:00	2024-11-06T22:00:00	4	Temperatura máxima	14.3
55667	7	Sololá	701	Sololá	3	Barraneche	10	Octubre	2023-10-17T00:00:00	2024-11-06T22:00:00	3	Temperatura mínima	13.4
55668	7	Sololá	701	Sololá	3	Barraneche	10	Octubre	2023-10-17T00:00:00	2024-11-06T22:00:00	5	Humedad	66
55669	7	Sololá	701	Sololá	3	Barraneche	10	Octubre	2023-10-17T00:00:00	2024-11-06T22:00:00	6	Velocidad del viento	6.4
55670	7	Sololá	701	Sololá	3	Barraneche	10	Octubre	2023-10-17T00:00:00	2024-11-06T22:00:00	7	Dirección del viento	6.44
55671	7	Sololá	701	Sololá	3	Barraneche	10	Octubre	2023-10-17T00:00:00	2024-11-06T22:00:00	1	Precipitación	0
55672	7	Sololá	701	Sololá	3	Barraneche	10	Octubre	2023-10-17T00:00:00	2024-11-06T22:00:00	8	Radiación solar	0
55673	7	Sololá	701	Sololá	3	Barraneche	10	Octubre	2023-10-17T00:00:00	2024-11-06T23:00:00	2	Temperatura media	13.8
55674	7	Sololá	701	Sololá	3	Barraneche	10	Octubre	2023-10-17T00:00:00	2024-11-06T23:00:00	4	Temperatura máxima	14.7
55675	7	Sololá	701	Sololá	3	Barraneche	10	Octubre	2023-10-17T00:00:00	2024-11-06T23:00:00	3	Temperatura mínima	13.5
55676	7	Sololá	701	Sololá	3	Barraneche	10	Octubre	2023-10-17T00:00:00	2024-11-06T23:00:00	5	Humedad	67
55677	7	Sololá	701	Sololá	3	Barraneche	10	Octubre	2023-10-17T00:00:00	2024-11-06T23:00:00	6	Velocidad del viento	6.4
55678	7	Sololá	701	Sololá	3	Barraneche	10	Octubre	2023-10-17T00:00:00	2024-11-06T23:00:00	7	Dirección del viento	6.44
55679	7	Sololá	701	Sololá	3	Barraneche	10	Octubre	2023-10-17T00:00:00	2024-11-06T23:00:00	1	Precipitación	0
55680	7	Sololá	701	Sololá	3	Barraneche	10	Octubre	2023-10-17T00:00:00	2024-11-06T23:00:00	8	Radiación solar	0
55681	7	Sololá	701	Sololá	3	Barraneche	10	Octubre	2023-10-18T00:00:00	2024-11-06T00:00:00	2	Temperatura media	12
55682	7	Sololá	701	Sololá	3	Barraneche	10	Octubre	2023-10-18T00:00:00	2024-11-06T00:00:00	4	Temperatura máxima	13.8
55683	7	Sololá	701	Sololá	3	Barraneche	10	Octubre	2023-10-18T00:00:00	2024-11-06T00:00:00	3	Temperatura mínima	11.9
55684	7	Sololá	701	Sololá	3	Barraneche	10	Octubre	2023-10-18T00:00:00	2024-11-06T00:00:00	5	Humedad	76
55685	7	Sololá	701	Sololá	3	Barraneche	10	Octubre	2023-10-18T00:00:00	2024-11-06T00:00:00	6	Velocidad del viento	1.6
55686	7	Sololá	701	Sololá	3	Barraneche	10	Octubre	2023-10-18T00:00:00	2024-11-06T00:00:00	7	Dirección del viento	1.61
55687	7	Sololá	701	Sololá	3	Barraneche	10	Octubre	2023-10-18T00:00:00	2024-11-06T00:00:00	1	Precipitación	0
55688	7	Sololá	701	Sololá	3	Barraneche	10	Octubre	2023-10-18T00:00:00	2024-11-06T00:00:00	8	Radiación solar	0
55689	7	Sololá	701	Sololá	3	Barraneche	10	Octubre	2023-10-18T00:00:00	2024-11-06T01:00:00	2	Temperatura media	11.7
55690	7	Sololá	701	Sololá	3	Barraneche	10	Octubre	2023-10-18T00:00:00	2024-11-06T01:00:00	4	Temperatura máxima	13.6
55691	7	Sololá	701	Sololá	3	Barraneche	10	Octubre	2023-10-18T00:00:00	2024-11-06T01:00:00	3	Temperatura mínima	11.7
55692	7	Sololá	701	Sololá	3	Barraneche	10	Octubre	2023-10-18T00:00:00	2024-11-06T01:00:00	5	Humedad	78
55693	7	Sololá	701	Sololá	3	Barraneche	10	Octubre	2023-10-18T00:00:00	2024-11-06T01:00:00	6	Velocidad del viento	3.2
55694	7	Sololá	701	Sololá	3	Barraneche	10	Octubre	2023-10-18T00:00:00	2024-11-06T01:00:00	7	Dirección del viento	3.22
55695	7	Sololá	701	Sololá	3	Barraneche	10	Octubre	2023-10-18T00:00:00	2024-11-06T01:00:00	1	Precipitación	0
55696	7	Sololá	701	Sololá	3	Barraneche	10	Octubre	2023-10-18T00:00:00	2024-11-06T01:00:00	8	Radiación solar	0
55697	7	Sololá	701	Sololá	3	Barraneche	10	Octubre	2023-10-18T00:00:00	2024-11-06T02:00:00	2	Temperatura media	11.6
55698	7	Sololá	701	Sololá	3	Barraneche	10	Octubre	2023-10-18T00:00:00	2024-11-06T02:00:00	4	Temperatura máxima	12
55699	7	Sololá	701	Sololá	3	Barraneche	10	Octubre	2023-10-18T00:00:00	2024-11-06T02:00:00	3	Temperatura mínima	11.6
55700	7	Sololá	701	Sololá	3	Barraneche	10	Octubre	2023-10-18T00:00:00	2024-11-06T02:00:00	5	Humedad	78
55701	7	Sololá	701	Sololá	3	Barraneche	10	Octubre	2023-10-18T00:00:00	2024-11-06T02:00:00	6	Velocidad del viento	1.6
55702	7	Sololá	701	Sololá	3	Barraneche	10	Octubre	2023-10-18T00:00:00	2024-11-06T02:00:00	7	Dirección del viento	1.61
55703	7	Sololá	701	Sololá	3	Barraneche	10	Octubre	2023-10-18T00:00:00	2024-11-06T02:00:00	1	Precipitación	0
55704	7	Sololá	701	Sololá	3	Barraneche	10	Octubre	2023-10-18T00:00:00	2024-11-06T02:00:00	8	Radiación solar	0
55705	7	Sololá	701	Sololá	3	Barraneche	10	Octubre	2023-10-18T00:00:00	2024-11-06T03:00:00	2	Temperatura media	11.6
55706	7	Sololá	701	Sololá	3	Barraneche	10	Octubre	2023-10-18T00:00:00	2024-11-06T03:00:00	4	Temperatura máxima	11.6
55707	7	Sololá	701	Sololá	3	Barraneche	10	Octubre	2023-10-18T00:00:00	2024-11-06T03:00:00	3	Temperatura mínima	11.4
55708	7	Sololá	701	Sololá	3	Barraneche	10	Octubre	2023-10-18T00:00:00	2024-11-06T03:00:00	5	Humedad	77
55709	7	Sololá	701	Sololá	3	Barraneche	10	Octubre	2023-10-18T00:00:00	2024-11-06T03:00:00	6	Velocidad del viento	1.6
55710	7	Sololá	701	Sololá	3	Barraneche	10	Octubre	2023-10-18T00:00:00	2024-11-06T03:00:00	7	Dirección del viento	1.61
55711	7	Sololá	701	Sololá	3	Barraneche	10	Octubre	2023-10-18T00:00:00	2024-11-06T03:00:00	1	Precipitación	0
55712	7	Sololá	701	Sololá	3	Barraneche	10	Octubre	2023-10-18T00:00:00	2024-11-06T03:00:00	8	Radiación solar	0
55713	7	Sololá	701	Sololá	3	Barraneche	10	Octubre	2023-10-18T00:00:00	2024-11-06T04:00:00	2	Temperatura media	11.2
55714	7	Sololá	701	Sololá	3	Barraneche	10	Octubre	2023-10-18T00:00:00	2024-11-06T04:00:00	4	Temperatura máxima	11.6
55715	7	Sololá	701	Sololá	3	Barraneche	10	Octubre	2023-10-18T00:00:00	2024-11-06T04:00:00	3	Temperatura mínima	10.9
55716	7	Sololá	701	Sololá	3	Barraneche	10	Octubre	2023-10-18T00:00:00	2024-11-06T04:00:00	5	Humedad	77
55717	7	Sololá	701	Sololá	3	Barraneche	10	Octubre	2023-10-18T00:00:00	2024-11-06T04:00:00	6	Velocidad del viento	3.2
55718	7	Sololá	701	Sololá	3	Barraneche	10	Octubre	2023-10-18T00:00:00	2024-11-06T04:00:00	7	Dirección del viento	3.22
55719	7	Sololá	701	Sololá	3	Barraneche	10	Octubre	2023-10-18T00:00:00	2024-11-06T04:00:00	1	Precipitación	0
55720	7	Sololá	701	Sololá	3	Barraneche	10	Octubre	2023-10-18T00:00:00	2024-11-06T04:00:00	8	Radiación solar	0
55721	7	Sololá	701	Sololá	3	Barraneche	10	Octubre	2023-10-18T00:00:00	2024-11-06T05:00:00	2	Temperatura media	11.1
55722	7	Sololá	701	Sololá	3	Barraneche	10	Octubre	2023-10-18T00:00:00	2024-11-06T05:00:00	4	Temperatura máxima	11.5
55723	7	Sololá	701	Sololá	3	Barraneche	10	Octubre	2023-10-18T00:00:00	2024-11-06T05:00:00	3	Temperatura mínima	10.9
55724	7	Sololá	701	Sololá	3	Barraneche	10	Octubre	2023-10-18T00:00:00	2024-11-06T05:00:00	5	Humedad	76
55725	7	Sololá	701	Sololá	3	Barraneche	10	Octubre	2023-10-18T00:00:00	2024-11-06T05:00:00	6	Velocidad del viento	4.8
55726	7	Sololá	701	Sololá	3	Barraneche	10	Octubre	2023-10-18T00:00:00	2024-11-06T05:00:00	7	Dirección del viento	4.83
55727	7	Sololá	701	Sololá	3	Barraneche	10	Octubre	2023-10-18T00:00:00	2024-11-06T05:00:00	1	Precipitación	0
55728	7	Sololá	701	Sololá	3	Barraneche	10	Octubre	2023-10-18T00:00:00	2024-11-06T05:00:00	8	Radiación solar	0
55729	7	Sololá	701	Sololá	3	Barraneche	10	Octubre	2023-10-18T00:00:00	2024-11-06T06:00:00	2	Temperatura media	11.4
55730	7	Sololá	701	Sololá	3	Barraneche	10	Octubre	2023-10-18T00:00:00	2024-11-06T06:00:00	4	Temperatura máxima	12
55731	7	Sololá	701	Sololá	3	Barraneche	10	Octubre	2023-10-18T00:00:00	2024-11-06T06:00:00	3	Temperatura mínima	11.1
55732	7	Sololá	701	Sololá	3	Barraneche	10	Octubre	2023-10-18T00:00:00	2024-11-06T06:00:00	5	Humedad	76
55733	7	Sololá	701	Sololá	3	Barraneche	10	Octubre	2023-10-18T00:00:00	2024-11-06T06:00:00	6	Velocidad del viento	3.2
55734	7	Sololá	701	Sololá	3	Barraneche	10	Octubre	2023-10-18T00:00:00	2024-11-06T06:00:00	7	Dirección del viento	3.22
55735	7	Sololá	701	Sololá	3	Barraneche	10	Octubre	2023-10-18T00:00:00	2024-11-06T06:00:00	1	Precipitación	0
55736	7	Sololá	701	Sololá	3	Barraneche	10	Octubre	2023-10-18T00:00:00	2024-11-06T06:00:00	8	Radiación solar	0
55737	7	Sololá	701	Sololá	3	Barraneche	10	Octubre	2023-10-18T00:00:00	2024-11-06T07:00:00	2	Temperatura media	12.3
55738	7	Sololá	701	Sololá	3	Barraneche	10	Octubre	2023-10-18T00:00:00	2024-11-06T07:00:00	4	Temperatura máxima	12.3
55739	7	Sololá	701	Sololá	3	Barraneche	10	Octubre	2023-10-18T00:00:00	2024-11-06T07:00:00	3	Temperatura mínima	10.9
55740	7	Sololá	701	Sololá	3	Barraneche	10	Octubre	2023-10-18T00:00:00	2024-11-06T07:00:00	5	Humedad	75
55741	7	Sololá	701	Sololá	3	Barraneche	10	Octubre	2023-10-18T00:00:00	2024-11-06T07:00:00	6	Velocidad del viento	1.6
55742	7	Sololá	701	Sololá	3	Barraneche	10	Octubre	2023-10-18T00:00:00	2024-11-06T07:00:00	7	Dirección del viento	1.61
55743	7	Sololá	701	Sololá	3	Barraneche	10	Octubre	2023-10-18T00:00:00	2024-11-06T07:00:00	1	Precipitación	0
55744	7	Sololá	701	Sololá	3	Barraneche	10	Octubre	2023-10-18T00:00:00	2024-11-06T07:00:00	8	Radiación solar	67
55745	7	Sololá	701	Sololá	3	Barraneche	10	Octubre	2023-10-18T00:00:00	2024-11-06T08:00:00	2	Temperatura media	16.8
55746	7	Sololá	701	Sololá	3	Barraneche	10	Octubre	2023-10-18T00:00:00	2024-11-06T08:00:00	4	Temperatura máxima	16.8
55747	7	Sololá	701	Sololá	3	Barraneche	10	Octubre	2023-10-18T00:00:00	2024-11-06T08:00:00	3	Temperatura mínima	12.3
55748	7	Sololá	701	Sololá	3	Barraneche	10	Octubre	2023-10-18T00:00:00	2024-11-06T08:00:00	5	Humedad	65
55749	7	Sololá	701	Sololá	3	Barraneche	10	Octubre	2023-10-18T00:00:00	2024-11-06T08:00:00	6	Velocidad del viento	1.6
55750	7	Sololá	701	Sololá	3	Barraneche	10	Octubre	2023-10-18T00:00:00	2024-11-06T08:00:00	7	Dirección del viento	1.61
55751	7	Sololá	701	Sololá	3	Barraneche	10	Octubre	2023-10-18T00:00:00	2024-11-06T08:00:00	1	Precipitación	0
55752	7	Sololá	701	Sololá	3	Barraneche	10	Octubre	2023-10-18T00:00:00	2024-11-06T08:00:00	8	Radiación solar	313
55753	7	Sololá	701	Sololá	3	Barraneche	10	Octubre	2023-10-18T00:00:00	2024-11-06T09:00:00	2	Temperatura media	18.3
55754	7	Sololá	701	Sololá	3	Barraneche	10	Octubre	2023-10-18T00:00:00	2024-11-06T09:00:00	4	Temperatura máxima	18.3
55755	7	Sololá	701	Sololá	3	Barraneche	10	Octubre	2023-10-18T00:00:00	2024-11-06T09:00:00	3	Temperatura mínima	16.8
55756	7	Sololá	701	Sololá	3	Barraneche	10	Octubre	2023-10-18T00:00:00	2024-11-06T09:00:00	5	Humedad	60
55757	7	Sololá	701	Sololá	3	Barraneche	10	Octubre	2023-10-18T00:00:00	2024-11-06T09:00:00	6	Velocidad del viento	8
55758	7	Sololá	701	Sololá	3	Barraneche	10	Octubre	2023-10-18T00:00:00	2024-11-06T09:00:00	7	Dirección del viento	8.05
55759	7	Sololá	701	Sololá	3	Barraneche	10	Octubre	2023-10-18T00:00:00	2024-11-06T09:00:00	1	Precipitación	0
55760	7	Sololá	701	Sololá	3	Barraneche	10	Octubre	2023-10-18T00:00:00	2024-11-06T09:00:00	8	Radiación solar	581
55761	7	Sololá	701	Sololá	3	Barraneche	10	Octubre	2023-10-18T00:00:00	2024-11-06T10:00:00	2	Temperatura media	18.3
55762	7	Sololá	701	Sololá	3	Barraneche	10	Octubre	2023-10-18T00:00:00	2024-11-06T10:00:00	4	Temperatura máxima	18.3
55763	7	Sololá	701	Sololá	3	Barraneche	10	Octubre	2023-10-18T00:00:00	2024-11-06T10:00:00	3	Temperatura mínima	17.8
55764	7	Sololá	701	Sololá	3	Barraneche	10	Octubre	2023-10-18T00:00:00	2024-11-06T10:00:00	5	Humedad	60
55765	7	Sololá	701	Sololá	3	Barraneche	10	Octubre	2023-10-18T00:00:00	2024-11-06T10:00:00	6	Velocidad del viento	9.7
55766	7	Sololá	701	Sololá	3	Barraneche	10	Octubre	2023-10-18T00:00:00	2024-11-06T10:00:00	7	Dirección del viento	9.66
55767	7	Sololá	701	Sololá	3	Barraneche	10	Octubre	2023-10-18T00:00:00	2024-11-06T10:00:00	1	Precipitación	0
55768	7	Sololá	701	Sololá	3	Barraneche	10	Octubre	2023-10-18T00:00:00	2024-11-06T10:00:00	8	Radiación solar	737
55769	7	Sololá	701	Sololá	3	Barraneche	10	Octubre	2023-10-18T00:00:00	2024-11-06T11:00:00	2	Temperatura media	17.8
55770	7	Sololá	701	Sololá	3	Barraneche	10	Octubre	2023-10-18T00:00:00	2024-11-06T11:00:00	4	Temperatura máxima	19.3
55771	7	Sololá	701	Sololá	3	Barraneche	10	Octubre	2023-10-18T00:00:00	2024-11-06T11:00:00	3	Temperatura mínima	17.8
55772	7	Sololá	701	Sololá	3	Barraneche	10	Octubre	2023-10-18T00:00:00	2024-11-06T11:00:00	5	Humedad	62
55773	7	Sololá	701	Sololá	3	Barraneche	10	Octubre	2023-10-18T00:00:00	2024-11-06T11:00:00	6	Velocidad del viento	11.3
55774	7	Sololá	701	Sololá	3	Barraneche	10	Octubre	2023-10-18T00:00:00	2024-11-06T11:00:00	7	Dirección del viento	11.27
55775	7	Sololá	701	Sololá	3	Barraneche	10	Octubre	2023-10-18T00:00:00	2024-11-06T11:00:00	1	Precipitación	0
55776	7	Sololá	701	Sololá	3	Barraneche	10	Octubre	2023-10-18T00:00:00	2024-11-06T11:00:00	8	Radiación solar	849
55777	7	Sololá	701	Sololá	3	Barraneche	10	Octubre	2023-10-18T00:00:00	2024-11-06T12:00:00	2	Temperatura media	19
55778	7	Sololá	701	Sololá	3	Barraneche	10	Octubre	2023-10-18T00:00:00	2024-11-06T12:00:00	4	Temperatura máxima	19
55779	7	Sololá	701	Sololá	3	Barraneche	10	Octubre	2023-10-18T00:00:00	2024-11-06T12:00:00	3	Temperatura mínima	16.9
55780	7	Sololá	701	Sololá	3	Barraneche	10	Octubre	2023-10-18T00:00:00	2024-11-06T12:00:00	5	Humedad	59
55781	7	Sololá	701	Sololá	3	Barraneche	10	Octubre	2023-10-18T00:00:00	2024-11-06T12:00:00	6	Velocidad del viento	9.7
55782	7	Sololá	701	Sololá	3	Barraneche	10	Octubre	2023-10-18T00:00:00	2024-11-06T12:00:00	7	Dirección del viento	9.66
55783	7	Sololá	701	Sololá	3	Barraneche	10	Octubre	2023-10-18T00:00:00	2024-11-06T12:00:00	1	Precipitación	0
55784	7	Sololá	701	Sololá	3	Barraneche	10	Octubre	2023-10-18T00:00:00	2024-11-06T12:00:00	8	Radiación solar	574
55785	7	Sololá	701	Sololá	3	Barraneche	10	Octubre	2023-10-18T00:00:00	2024-11-06T13:00:00	2	Temperatura media	18
55786	7	Sololá	701	Sololá	3	Barraneche	10	Octubre	2023-10-18T00:00:00	2024-11-06T13:00:00	4	Temperatura máxima	19.1
55787	7	Sololá	701	Sololá	3	Barraneche	10	Octubre	2023-10-18T00:00:00	2024-11-06T13:00:00	3	Temperatura mínima	17.7
55788	7	Sololá	701	Sololá	3	Barraneche	10	Octubre	2023-10-18T00:00:00	2024-11-06T13:00:00	5	Humedad	64
55789	7	Sololá	701	Sololá	3	Barraneche	10	Octubre	2023-10-18T00:00:00	2024-11-06T13:00:00	6	Velocidad del viento	11.3
55790	7	Sololá	701	Sololá	3	Barraneche	10	Octubre	2023-10-18T00:00:00	2024-11-06T13:00:00	7	Dirección del viento	11.27
55791	7	Sololá	701	Sololá	3	Barraneche	10	Octubre	2023-10-18T00:00:00	2024-11-06T13:00:00	1	Precipitación	0
55792	7	Sololá	701	Sololá	3	Barraneche	10	Octubre	2023-10-18T00:00:00	2024-11-06T13:00:00	8	Radiación solar	345
55793	7	Sololá	701	Sololá	3	Barraneche	10	Octubre	2023-10-18T00:00:00	2024-11-06T14:00:00	2	Temperatura media	18.4
55794	7	Sololá	701	Sololá	3	Barraneche	10	Octubre	2023-10-18T00:00:00	2024-11-06T14:00:00	4	Temperatura máxima	18.5
55795	7	Sololá	701	Sololá	3	Barraneche	10	Octubre	2023-10-18T00:00:00	2024-11-06T14:00:00	3	Temperatura mínima	17.2
55796	7	Sololá	701	Sololá	3	Barraneche	10	Octubre	2023-10-18T00:00:00	2024-11-06T14:00:00	5	Humedad	64
55797	7	Sololá	701	Sololá	3	Barraneche	10	Octubre	2023-10-18T00:00:00	2024-11-06T14:00:00	6	Velocidad del viento	9.7
55798	7	Sololá	701	Sololá	3	Barraneche	10	Octubre	2023-10-18T00:00:00	2024-11-06T14:00:00	7	Dirección del viento	9.66
55799	7	Sololá	701	Sololá	3	Barraneche	10	Octubre	2023-10-18T00:00:00	2024-11-06T14:00:00	1	Precipitación	0
55800	7	Sololá	701	Sololá	3	Barraneche	10	Octubre	2023-10-18T00:00:00	2024-11-06T14:00:00	8	Radiación solar	345
55801	7	Sololá	701	Sololá	3	Barraneche	10	Octubre	2023-10-18T00:00:00	2024-11-06T15:00:00	2	Temperatura media	17.4
55802	7	Sololá	701	Sololá	3	Barraneche	10	Octubre	2023-10-18T00:00:00	2024-11-06T15:00:00	4	Temperatura máxima	18.9
55803	7	Sololá	701	Sololá	3	Barraneche	10	Octubre	2023-10-18T00:00:00	2024-11-06T15:00:00	3	Temperatura mínima	17.4
55804	7	Sololá	701	Sololá	3	Barraneche	10	Octubre	2023-10-18T00:00:00	2024-11-06T15:00:00	5	Humedad	65
55805	7	Sololá	701	Sololá	3	Barraneche	10	Octubre	2023-10-18T00:00:00	2024-11-06T15:00:00	6	Velocidad del viento	9.7
55806	7	Sololá	701	Sololá	3	Barraneche	10	Octubre	2023-10-18T00:00:00	2024-11-06T15:00:00	7	Dirección del viento	9.66
55807	7	Sololá	701	Sololá	3	Barraneche	10	Octubre	2023-10-18T00:00:00	2024-11-06T15:00:00	1	Precipitación	0
55808	7	Sololá	701	Sololá	3	Barraneche	10	Octubre	2023-10-18T00:00:00	2024-11-06T15:00:00	8	Radiación solar	336
55809	7	Sololá	701	Sololá	3	Barraneche	10	Octubre	2023-10-18T00:00:00	2024-11-06T16:00:00	2	Temperatura media	17.7
55810	7	Sololá	701	Sololá	3	Barraneche	10	Octubre	2023-10-18T00:00:00	2024-11-06T16:00:00	4	Temperatura máxima	18.2
55811	7	Sololá	701	Sololá	3	Barraneche	10	Octubre	2023-10-18T00:00:00	2024-11-06T16:00:00	3	Temperatura mínima	17.2
55812	7	Sololá	701	Sololá	3	Barraneche	10	Octubre	2023-10-18T00:00:00	2024-11-06T16:00:00	5	Humedad	64
55813	7	Sololá	701	Sololá	3	Barraneche	10	Octubre	2023-10-18T00:00:00	2024-11-06T16:00:00	6	Velocidad del viento	9.7
55814	7	Sololá	701	Sololá	3	Barraneche	10	Octubre	2023-10-18T00:00:00	2024-11-06T16:00:00	7	Dirección del viento	9.66
55815	7	Sololá	701	Sololá	3	Barraneche	10	Octubre	2023-10-18T00:00:00	2024-11-06T16:00:00	1	Precipitación	0
55816	7	Sololá	701	Sololá	3	Barraneche	10	Octubre	2023-10-18T00:00:00	2024-11-06T16:00:00	8	Radiación solar	338
55817	7	Sololá	701	Sololá	3	Barraneche	10	Octubre	2023-10-18T00:00:00	2024-11-06T17:00:00	2	Temperatura media	15.6
55818	7	Sololá	701	Sololá	3	Barraneche	10	Octubre	2023-10-18T00:00:00	2024-11-06T17:00:00	4	Temperatura máxima	17.7
55819	7	Sololá	701	Sololá	3	Barraneche	10	Octubre	2023-10-18T00:00:00	2024-11-06T17:00:00	3	Temperatura mínima	15.5
55820	7	Sololá	701	Sololá	3	Barraneche	10	Octubre	2023-10-18T00:00:00	2024-11-06T17:00:00	5	Humedad	70
55821	7	Sololá	701	Sololá	3	Barraneche	10	Octubre	2023-10-18T00:00:00	2024-11-06T17:00:00	6	Velocidad del viento	11.3
55822	7	Sololá	701	Sololá	3	Barraneche	10	Octubre	2023-10-18T00:00:00	2024-11-06T17:00:00	7	Dirección del viento	11.27
55823	7	Sololá	701	Sololá	3	Barraneche	10	Octubre	2023-10-18T00:00:00	2024-11-06T17:00:00	1	Precipitación	0
55824	7	Sololá	701	Sololá	3	Barraneche	10	Octubre	2023-10-18T00:00:00	2024-11-06T17:00:00	8	Radiación solar	84
55825	7	Sololá	701	Sololá	3	Barraneche	10	Octubre	2023-10-18T00:00:00	2024-11-06T18:00:00	2	Temperatura media	14.4
55826	7	Sololá	701	Sololá	3	Barraneche	10	Octubre	2023-10-18T00:00:00	2024-11-06T18:00:00	4	Temperatura máxima	15.6
55827	7	Sololá	701	Sololá	3	Barraneche	10	Octubre	2023-10-18T00:00:00	2024-11-06T18:00:00	3	Temperatura mínima	14.4
55828	7	Sololá	701	Sololá	3	Barraneche	10	Octubre	2023-10-18T00:00:00	2024-11-06T18:00:00	5	Humedad	72
55829	7	Sololá	701	Sololá	3	Barraneche	10	Octubre	2023-10-18T00:00:00	2024-11-06T18:00:00	6	Velocidad del viento	12.9
55830	7	Sololá	701	Sololá	3	Barraneche	10	Octubre	2023-10-18T00:00:00	2024-11-06T18:00:00	7	Dirección del viento	12.87
55831	7	Sololá	701	Sololá	3	Barraneche	10	Octubre	2023-10-18T00:00:00	2024-11-06T18:00:00	1	Precipitación	0
55832	7	Sololá	701	Sololá	3	Barraneche	10	Octubre	2023-10-18T00:00:00	2024-11-06T18:00:00	8	Radiación solar	16
55833	7	Sololá	701	Sololá	3	Barraneche	10	Octubre	2023-10-18T00:00:00	2024-11-06T19:00:00	2	Temperatura media	14.6
55834	7	Sololá	701	Sololá	3	Barraneche	10	Octubre	2023-10-18T00:00:00	2024-11-06T19:00:00	4	Temperatura máxima	14.7
55835	7	Sololá	701	Sololá	3	Barraneche	10	Octubre	2023-10-18T00:00:00	2024-11-06T19:00:00	3	Temperatura mínima	14.4
55836	7	Sololá	701	Sololá	3	Barraneche	10	Octubre	2023-10-18T00:00:00	2024-11-06T19:00:00	5	Humedad	73
55837	7	Sololá	701	Sololá	3	Barraneche	10	Octubre	2023-10-18T00:00:00	2024-11-06T19:00:00	6	Velocidad del viento	8
55838	7	Sololá	701	Sololá	3	Barraneche	10	Octubre	2023-10-18T00:00:00	2024-11-06T19:00:00	7	Dirección del viento	8.05
55839	7	Sololá	701	Sololá	3	Barraneche	10	Octubre	2023-10-18T00:00:00	2024-11-06T19:00:00	1	Precipitación	0
55840	7	Sololá	701	Sololá	3	Barraneche	10	Octubre	2023-10-18T00:00:00	2024-11-06T19:00:00	8	Radiación solar	0
55841	7	Sololá	701	Sololá	3	Barraneche	10	Octubre	2023-10-18T00:00:00	2024-11-06T20:00:00	2	Temperatura media	14.3
55842	7	Sololá	701	Sololá	3	Barraneche	10	Octubre	2023-10-18T00:00:00	2024-11-06T20:00:00	4	Temperatura máxima	14.6
55843	7	Sololá	701	Sololá	3	Barraneche	10	Octubre	2023-10-18T00:00:00	2024-11-06T20:00:00	3	Temperatura mínima	14.3
55844	7	Sololá	701	Sololá	3	Barraneche	10	Octubre	2023-10-18T00:00:00	2024-11-06T20:00:00	5	Humedad	74
55845	7	Sololá	701	Sololá	3	Barraneche	10	Octubre	2023-10-18T00:00:00	2024-11-06T20:00:00	6	Velocidad del viento	6.4
55846	7	Sololá	701	Sololá	3	Barraneche	10	Octubre	2023-10-18T00:00:00	2024-11-06T20:00:00	7	Dirección del viento	6.44
55847	7	Sololá	701	Sololá	3	Barraneche	10	Octubre	2023-10-18T00:00:00	2024-11-06T20:00:00	1	Precipitación	0
55848	7	Sololá	701	Sololá	3	Barraneche	10	Octubre	2023-10-18T00:00:00	2024-11-06T20:00:00	8	Radiación solar	0
55849	7	Sololá	701	Sololá	3	Barraneche	10	Octubre	2023-10-18T00:00:00	2024-11-06T21:00:00	2	Temperatura media	13.9
55850	7	Sololá	701	Sololá	3	Barraneche	10	Octubre	2023-10-18T00:00:00	2024-11-06T21:00:00	4	Temperatura máxima	14.4
55851	7	Sololá	701	Sololá	3	Barraneche	10	Octubre	2023-10-18T00:00:00	2024-11-06T21:00:00	3	Temperatura mínima	13.9
55852	7	Sololá	701	Sololá	3	Barraneche	10	Octubre	2023-10-18T00:00:00	2024-11-06T21:00:00	5	Humedad	75
55853	7	Sololá	701	Sololá	3	Barraneche	10	Octubre	2023-10-18T00:00:00	2024-11-06T21:00:00	6	Velocidad del viento	4.8
55854	7	Sololá	701	Sololá	3	Barraneche	10	Octubre	2023-10-18T00:00:00	2024-11-06T21:00:00	7	Dirección del viento	4.83
55855	7	Sololá	701	Sololá	3	Barraneche	10	Octubre	2023-10-18T00:00:00	2024-11-06T21:00:00	1	Precipitación	0
55856	7	Sololá	701	Sololá	3	Barraneche	10	Octubre	2023-10-18T00:00:00	2024-11-06T21:00:00	8	Radiación solar	0
55857	7	Sololá	701	Sololá	3	Barraneche	10	Octubre	2023-10-18T00:00:00	2024-11-06T22:00:00	2	Temperatura media	12.2
55858	7	Sololá	701	Sololá	3	Barraneche	10	Octubre	2023-10-18T00:00:00	2024-11-06T22:00:00	4	Temperatura máxima	13.9
55859	7	Sololá	701	Sololá	3	Barraneche	10	Octubre	2023-10-18T00:00:00	2024-11-06T22:00:00	3	Temperatura mínima	12.2
55860	7	Sololá	701	Sololá	3	Barraneche	10	Octubre	2023-10-18T00:00:00	2024-11-06T22:00:00	5	Humedad	78
55861	7	Sololá	701	Sololá	3	Barraneche	10	Octubre	2023-10-18T00:00:00	2024-11-06T22:00:00	6	Velocidad del viento	1.6
55862	7	Sololá	701	Sololá	3	Barraneche	10	Octubre	2023-10-18T00:00:00	2024-11-06T22:00:00	7	Dirección del viento	1.61
55863	7	Sololá	701	Sololá	3	Barraneche	10	Octubre	2023-10-18T00:00:00	2024-11-06T22:00:00	1	Precipitación	0
55864	7	Sololá	701	Sololá	3	Barraneche	10	Octubre	2023-10-18T00:00:00	2024-11-06T22:00:00	8	Radiación solar	0
55865	7	Sololá	701	Sololá	3	Barraneche	10	Octubre	2023-10-18T00:00:00	2024-11-06T23:00:00	2	Temperatura media	10.9
55866	7	Sololá	701	Sololá	3	Barraneche	10	Octubre	2023-10-18T00:00:00	2024-11-06T23:00:00	4	Temperatura máxima	12.2
55867	7	Sololá	701	Sololá	3	Barraneche	10	Octubre	2023-10-18T00:00:00	2024-11-06T23:00:00	3	Temperatura mínima	10.9
55868	7	Sololá	701	Sololá	3	Barraneche	10	Octubre	2023-10-18T00:00:00	2024-11-06T23:00:00	5	Humedad	79
55869	7	Sololá	701	Sololá	3	Barraneche	10	Octubre	2023-10-18T00:00:00	2024-11-06T23:00:00	6	Velocidad del viento	3.2
55870	7	Sololá	701	Sololá	3	Barraneche	10	Octubre	2023-10-18T00:00:00	2024-11-06T23:00:00	7	Dirección del viento	3.22
55871	7	Sololá	701	Sololá	3	Barraneche	10	Octubre	2023-10-18T00:00:00	2024-11-06T23:00:00	1	Precipitación	0
55872	7	Sololá	701	Sololá	3	Barraneche	10	Octubre	2023-10-18T00:00:00	2024-11-06T23:00:00	8	Radiación solar	0
55873	7	Sololá	701	Sololá	3	Barraneche	10	Octubre	2023-10-19T00:00:00	2024-11-06T00:00:00	2	Temperatura media	11.1
55874	7	Sololá	701	Sololá	3	Barraneche	10	Octubre	2023-10-19T00:00:00	2024-11-06T00:00:00	4	Temperatura máxima	11.1
55875	7	Sololá	701	Sololá	3	Barraneche	10	Octubre	2023-10-19T00:00:00	2024-11-06T00:00:00	3	Temperatura mínima	10.8
55876	7	Sololá	701	Sololá	3	Barraneche	10	Octubre	2023-10-19T00:00:00	2024-11-06T00:00:00	5	Humedad	78
55877	7	Sololá	701	Sololá	3	Barraneche	10	Octubre	2023-10-19T00:00:00	2024-11-06T00:00:00	6	Velocidad del viento	4.8
55878	7	Sololá	701	Sololá	3	Barraneche	10	Octubre	2023-10-19T00:00:00	2024-11-06T00:00:00	7	Dirección del viento	4.83
55879	7	Sololá	701	Sololá	3	Barraneche	10	Octubre	2023-10-19T00:00:00	2024-11-06T00:00:00	1	Precipitación	0
55880	7	Sololá	701	Sololá	3	Barraneche	10	Octubre	2023-10-19T00:00:00	2024-11-06T00:00:00	8	Radiación solar	0
55881	7	Sololá	701	Sololá	3	Barraneche	10	Octubre	2023-10-19T00:00:00	2024-11-06T01:00:00	2	Temperatura media	11
55882	7	Sololá	701	Sololá	3	Barraneche	10	Octubre	2023-10-19T00:00:00	2024-11-06T01:00:00	4	Temperatura máxima	11.2
55883	7	Sololá	701	Sololá	3	Barraneche	10	Octubre	2023-10-19T00:00:00	2024-11-06T01:00:00	3	Temperatura mínima	10.9
55884	7	Sololá	701	Sololá	3	Barraneche	10	Octubre	2023-10-19T00:00:00	2024-11-06T01:00:00	5	Humedad	78
55885	7	Sololá	701	Sololá	3	Barraneche	10	Octubre	2023-10-19T00:00:00	2024-11-06T01:00:00	6	Velocidad del viento	4.8
55886	7	Sololá	701	Sololá	3	Barraneche	10	Octubre	2023-10-19T00:00:00	2024-11-06T01:00:00	7	Dirección del viento	4.83
55887	7	Sololá	701	Sololá	3	Barraneche	10	Octubre	2023-10-19T00:00:00	2024-11-06T01:00:00	1	Precipitación	0
55888	7	Sololá	701	Sololá	3	Barraneche	10	Octubre	2023-10-19T00:00:00	2024-11-06T01:00:00	8	Radiación solar	0
55889	7	Sololá	701	Sololá	3	Barraneche	10	Octubre	2023-10-19T00:00:00	2024-11-06T02:00:00	2	Temperatura media	10.8
55890	7	Sololá	701	Sololá	3	Barraneche	10	Octubre	2023-10-19T00:00:00	2024-11-06T02:00:00	4	Temperatura máxima	11.2
55891	7	Sololá	701	Sololá	3	Barraneche	10	Octubre	2023-10-19T00:00:00	2024-11-06T02:00:00	3	Temperatura mínima	10.8
55892	7	Sololá	701	Sololá	3	Barraneche	10	Octubre	2023-10-19T00:00:00	2024-11-06T02:00:00	5	Humedad	78
55893	7	Sololá	701	Sololá	3	Barraneche	10	Octubre	2023-10-19T00:00:00	2024-11-06T02:00:00	6	Velocidad del viento	3.2
55894	7	Sololá	701	Sololá	3	Barraneche	10	Octubre	2023-10-19T00:00:00	2024-11-06T02:00:00	7	Dirección del viento	3.22
55895	7	Sololá	701	Sololá	3	Barraneche	10	Octubre	2023-10-19T00:00:00	2024-11-06T02:00:00	1	Precipitación	0
55896	7	Sololá	701	Sololá	3	Barraneche	10	Octubre	2023-10-19T00:00:00	2024-11-06T02:00:00	8	Radiación solar	0
55897	7	Sololá	701	Sololá	3	Barraneche	10	Octubre	2023-10-19T00:00:00	2024-11-06T03:00:00	2	Temperatura media	10.8
55898	7	Sololá	701	Sololá	3	Barraneche	10	Octubre	2023-10-19T00:00:00	2024-11-06T03:00:00	4	Temperatura máxima	10.9
55899	7	Sololá	701	Sololá	3	Barraneche	10	Octubre	2023-10-19T00:00:00	2024-11-06T03:00:00	3	Temperatura mínima	10.6
55900	7	Sololá	701	Sololá	3	Barraneche	10	Octubre	2023-10-19T00:00:00	2024-11-06T03:00:00	5	Humedad	77
55901	7	Sololá	701	Sololá	3	Barraneche	10	Octubre	2023-10-19T00:00:00	2024-11-06T03:00:00	6	Velocidad del viento	3.2
55902	7	Sololá	701	Sololá	3	Barraneche	10	Octubre	2023-10-19T00:00:00	2024-11-06T03:00:00	7	Dirección del viento	3.22
55903	7	Sololá	701	Sololá	3	Barraneche	10	Octubre	2023-10-19T00:00:00	2024-11-06T03:00:00	1	Precipitación	0
55904	7	Sololá	701	Sololá	3	Barraneche	10	Octubre	2023-10-19T00:00:00	2024-11-06T03:00:00	8	Radiación solar	0
55905	7	Sololá	701	Sololá	3	Barraneche	10	Octubre	2023-10-19T00:00:00	2024-11-06T04:00:00	2	Temperatura media	10.9
55906	7	Sololá	701	Sololá	3	Barraneche	10	Octubre	2023-10-19T00:00:00	2024-11-06T04:00:00	4	Temperatura máxima	10.9
55907	7	Sololá	701	Sololá	3	Barraneche	10	Octubre	2023-10-19T00:00:00	2024-11-06T04:00:00	3	Temperatura mínima	10.6
55908	7	Sololá	701	Sololá	3	Barraneche	10	Octubre	2023-10-19T00:00:00	2024-11-06T04:00:00	5	Humedad	78
55909	7	Sololá	701	Sololá	3	Barraneche	10	Octubre	2023-10-19T00:00:00	2024-11-06T04:00:00	6	Velocidad del viento	4.8
55910	7	Sololá	701	Sololá	3	Barraneche	10	Octubre	2023-10-19T00:00:00	2024-11-06T04:00:00	7	Dirección del viento	4.83
55911	7	Sololá	701	Sololá	3	Barraneche	10	Octubre	2023-10-19T00:00:00	2024-11-06T04:00:00	1	Precipitación	0
55912	7	Sololá	701	Sololá	3	Barraneche	10	Octubre	2023-10-19T00:00:00	2024-11-06T04:00:00	8	Radiación solar	0
55913	7	Sololá	701	Sololá	3	Barraneche	10	Octubre	2023-10-19T00:00:00	2024-11-06T05:00:00	2	Temperatura media	11.2
55914	7	Sololá	701	Sololá	3	Barraneche	10	Octubre	2023-10-19T00:00:00	2024-11-06T05:00:00	4	Temperatura máxima	11.8
55915	7	Sololá	701	Sololá	3	Barraneche	10	Octubre	2023-10-19T00:00:00	2024-11-06T05:00:00	3	Temperatura mínima	10.9
55916	7	Sololá	701	Sololá	3	Barraneche	10	Octubre	2023-10-19T00:00:00	2024-11-06T05:00:00	5	Humedad	77
55917	7	Sololá	701	Sololá	3	Barraneche	10	Octubre	2023-10-19T00:00:00	2024-11-06T05:00:00	6	Velocidad del viento	3.2
55918	7	Sololá	701	Sololá	3	Barraneche	10	Octubre	2023-10-19T00:00:00	2024-11-06T05:00:00	7	Dirección del viento	3.22
55919	7	Sololá	701	Sololá	3	Barraneche	10	Octubre	2023-10-19T00:00:00	2024-11-06T05:00:00	1	Precipitación	0
55920	7	Sololá	701	Sololá	3	Barraneche	10	Octubre	2023-10-19T00:00:00	2024-11-06T05:00:00	8	Radiación solar	0
55921	7	Sololá	701	Sololá	3	Barraneche	10	Octubre	2023-10-19T00:00:00	2024-11-06T06:00:00	2	Temperatura media	12.2
55922	7	Sololá	701	Sololá	3	Barraneche	10	Octubre	2023-10-19T00:00:00	2024-11-06T06:00:00	4	Temperatura máxima	12.2
55923	7	Sololá	701	Sololá	3	Barraneche	10	Octubre	2023-10-19T00:00:00	2024-11-06T06:00:00	3	Temperatura mínima	10.8
55924	7	Sololá	701	Sololá	3	Barraneche	10	Octubre	2023-10-19T00:00:00	2024-11-06T06:00:00	5	Humedad	75
55925	7	Sololá	701	Sololá	3	Barraneche	10	Octubre	2023-10-19T00:00:00	2024-11-06T06:00:00	6	Velocidad del viento	3.2
55926	7	Sololá	701	Sololá	3	Barraneche	10	Octubre	2023-10-19T00:00:00	2024-11-06T06:00:00	7	Dirección del viento	3.22
55927	7	Sololá	701	Sololá	3	Barraneche	10	Octubre	2023-10-19T00:00:00	2024-11-06T06:00:00	1	Precipitación	0
55928	7	Sololá	701	Sololá	3	Barraneche	10	Octubre	2023-10-19T00:00:00	2024-11-06T06:00:00	8	Radiación solar	1
55929	7	Sololá	701	Sololá	3	Barraneche	10	Octubre	2023-10-19T00:00:00	2024-11-06T07:00:00	2	Temperatura media	13.1
55930	7	Sololá	701	Sololá	3	Barraneche	10	Octubre	2023-10-19T00:00:00	2024-11-06T07:00:00	4	Temperatura máxima	13.6
55931	7	Sololá	701	Sololá	3	Barraneche	10	Octubre	2023-10-19T00:00:00	2024-11-06T07:00:00	3	Temperatura mínima	12.1
55932	7	Sololá	701	Sololá	3	Barraneche	10	Octubre	2023-10-19T00:00:00	2024-11-06T07:00:00	5	Humedad	76
55933	7	Sololá	701	Sololá	3	Barraneche	10	Octubre	2023-10-19T00:00:00	2024-11-06T07:00:00	6	Velocidad del viento	3.2
55934	7	Sololá	701	Sololá	3	Barraneche	10	Octubre	2023-10-19T00:00:00	2024-11-06T07:00:00	7	Dirección del viento	3.22
55935	7	Sololá	701	Sololá	3	Barraneche	10	Octubre	2023-10-19T00:00:00	2024-11-06T07:00:00	1	Precipitación	0
55936	7	Sololá	701	Sololá	3	Barraneche	10	Octubre	2023-10-19T00:00:00	2024-11-06T07:00:00	8	Radiación solar	52
55937	7	Sololá	701	Sololá	3	Barraneche	10	Octubre	2023-10-19T00:00:00	2024-11-06T08:00:00	2	Temperatura media	17.3
55938	7	Sololá	701	Sololá	3	Barraneche	10	Octubre	2023-10-19T00:00:00	2024-11-06T08:00:00	4	Temperatura máxima	17.3
55939	7	Sololá	701	Sololá	3	Barraneche	10	Octubre	2023-10-19T00:00:00	2024-11-06T08:00:00	3	Temperatura mínima	13.2
55940	7	Sololá	701	Sololá	3	Barraneche	10	Octubre	2023-10-19T00:00:00	2024-11-06T08:00:00	5	Humedad	65
55941	7	Sololá	701	Sololá	3	Barraneche	10	Octubre	2023-10-19T00:00:00	2024-11-06T08:00:00	6	Velocidad del viento	8
55942	7	Sololá	701	Sololá	3	Barraneche	10	Octubre	2023-10-19T00:00:00	2024-11-06T08:00:00	7	Dirección del viento	8.05
55943	7	Sololá	701	Sololá	3	Barraneche	10	Octubre	2023-10-19T00:00:00	2024-11-06T08:00:00	1	Precipitación	0
55944	7	Sololá	701	Sololá	3	Barraneche	10	Octubre	2023-10-19T00:00:00	2024-11-06T08:00:00	8	Radiación solar	316
55945	7	Sololá	701	Sololá	3	Barraneche	10	Octubre	2023-10-19T00:00:00	2024-11-06T09:00:00	2	Temperatura media	18.3
55946	7	Sololá	701	Sololá	3	Barraneche	10	Octubre	2023-10-19T00:00:00	2024-11-06T09:00:00	4	Temperatura máxima	18.3
55947	7	Sololá	701	Sololá	3	Barraneche	10	Octubre	2023-10-19T00:00:00	2024-11-06T09:00:00	3	Temperatura mínima	17.3
55948	7	Sololá	701	Sololá	3	Barraneche	10	Octubre	2023-10-19T00:00:00	2024-11-06T09:00:00	5	Humedad	62
55949	7	Sololá	701	Sololá	3	Barraneche	10	Octubre	2023-10-19T00:00:00	2024-11-06T09:00:00	6	Velocidad del viento	12.9
55950	7	Sololá	701	Sololá	3	Barraneche	10	Octubre	2023-10-19T00:00:00	2024-11-06T09:00:00	7	Dirección del viento	12.87
55951	7	Sololá	701	Sololá	3	Barraneche	10	Octubre	2023-10-19T00:00:00	2024-11-06T09:00:00	1	Precipitación	0
55952	7	Sololá	701	Sololá	3	Barraneche	10	Octubre	2023-10-19T00:00:00	2024-11-06T09:00:00	8	Radiación solar	552
55953	7	Sololá	701	Sololá	3	Barraneche	10	Octubre	2023-10-19T00:00:00	2024-11-06T10:00:00	2	Temperatura media	19.3
55954	7	Sololá	701	Sololá	3	Barraneche	10	Octubre	2023-10-19T00:00:00	2024-11-06T10:00:00	4	Temperatura máxima	19.3
55955	7	Sololá	701	Sololá	3	Barraneche	10	Octubre	2023-10-19T00:00:00	2024-11-06T10:00:00	3	Temperatura mínima	18.1
55956	7	Sololá	701	Sololá	3	Barraneche	10	Octubre	2023-10-19T00:00:00	2024-11-06T10:00:00	5	Humedad	63
55957	7	Sololá	701	Sololá	3	Barraneche	10	Octubre	2023-10-19T00:00:00	2024-11-06T10:00:00	6	Velocidad del viento	12.9
55958	7	Sololá	701	Sololá	3	Barraneche	10	Octubre	2023-10-19T00:00:00	2024-11-06T10:00:00	7	Dirección del viento	12.87
55959	7	Sololá	701	Sololá	3	Barraneche	10	Octubre	2023-10-19T00:00:00	2024-11-06T10:00:00	1	Precipitación	0
55960	7	Sololá	701	Sololá	3	Barraneche	10	Octubre	2023-10-19T00:00:00	2024-11-06T10:00:00	8	Radiación solar	765
55961	7	Sololá	701	Sololá	3	Barraneche	10	Octubre	2023-10-19T00:00:00	2024-11-06T11:00:00	2	Temperatura media	18.1
55962	7	Sololá	701	Sololá	3	Barraneche	10	Octubre	2023-10-19T00:00:00	2024-11-06T11:00:00	4	Temperatura máxima	19.6
55963	7	Sololá	701	Sololá	3	Barraneche	10	Octubre	2023-10-19T00:00:00	2024-11-06T11:00:00	3	Temperatura mínima	18.1
55964	7	Sololá	701	Sololá	3	Barraneche	10	Octubre	2023-10-19T00:00:00	2024-11-06T11:00:00	5	Humedad	68
55965	7	Sololá	701	Sololá	3	Barraneche	10	Octubre	2023-10-19T00:00:00	2024-11-06T11:00:00	6	Velocidad del viento	8
55966	7	Sololá	701	Sololá	3	Barraneche	10	Octubre	2023-10-19T00:00:00	2024-11-06T11:00:00	7	Dirección del viento	8.05
55967	7	Sololá	701	Sololá	3	Barraneche	10	Octubre	2023-10-19T00:00:00	2024-11-06T11:00:00	1	Precipitación	0
55968	7	Sololá	701	Sololá	3	Barraneche	10	Octubre	2023-10-19T00:00:00	2024-11-06T11:00:00	8	Radiación solar	476
55969	7	Sololá	701	Sololá	3	Barraneche	10	Octubre	2023-10-19T00:00:00	2024-11-06T12:00:00	2	Temperatura media	16.6
55970	7	Sololá	701	Sololá	3	Barraneche	10	Octubre	2023-10-19T00:00:00	2024-11-06T12:00:00	4	Temperatura máxima	18.1
55971	7	Sololá	701	Sololá	3	Barraneche	10	Octubre	2023-10-19T00:00:00	2024-11-06T12:00:00	3	Temperatura mínima	16.4
55972	7	Sololá	701	Sololá	3	Barraneche	10	Octubre	2023-10-19T00:00:00	2024-11-06T12:00:00	5	Humedad	73
55973	7	Sololá	701	Sololá	3	Barraneche	10	Octubre	2023-10-19T00:00:00	2024-11-06T12:00:00	6	Velocidad del viento	11.3
55974	7	Sololá	701	Sololá	3	Barraneche	10	Octubre	2023-10-19T00:00:00	2024-11-06T12:00:00	7	Dirección del viento	11.27
55975	7	Sololá	701	Sololá	3	Barraneche	10	Octubre	2023-10-19T00:00:00	2024-11-06T12:00:00	1	Precipitación	0
55976	7	Sololá	701	Sololá	3	Barraneche	10	Octubre	2023-10-19T00:00:00	2024-11-06T12:00:00	8	Radiación solar	238
55977	7	Sololá	701	Sololá	3	Barraneche	10	Octubre	2023-10-19T00:00:00	2024-11-06T13:00:00	2	Temperatura media	15.9
55978	7	Sololá	701	Sololá	3	Barraneche	10	Octubre	2023-10-19T00:00:00	2024-11-06T13:00:00	4	Temperatura máxima	16.9
55979	7	Sololá	701	Sololá	3	Barraneche	10	Octubre	2023-10-19T00:00:00	2024-11-06T13:00:00	3	Temperatura mínima	15.9
55980	7	Sololá	701	Sololá	3	Barraneche	10	Octubre	2023-10-19T00:00:00	2024-11-06T13:00:00	5	Humedad	77
55981	7	Sololá	701	Sololá	3	Barraneche	10	Octubre	2023-10-19T00:00:00	2024-11-06T13:00:00	6	Velocidad del viento	6.4
55982	7	Sololá	701	Sololá	3	Barraneche	10	Octubre	2023-10-19T00:00:00	2024-11-06T13:00:00	7	Dirección del viento	6.44
55983	7	Sololá	701	Sololá	3	Barraneche	10	Octubre	2023-10-19T00:00:00	2024-11-06T13:00:00	1	Precipitación	0
55984	7	Sololá	701	Sololá	3	Barraneche	10	Octubre	2023-10-19T00:00:00	2024-11-06T13:00:00	8	Radiación solar	173
55985	7	Sololá	701	Sololá	3	Barraneche	10	Octubre	2023-10-19T00:00:00	2024-11-06T14:00:00	2	Temperatura media	15.9
55986	7	Sololá	701	Sololá	3	Barraneche	10	Octubre	2023-10-19T00:00:00	2024-11-06T14:00:00	4	Temperatura máxima	15.9
55987	7	Sololá	701	Sololá	3	Barraneche	10	Octubre	2023-10-19T00:00:00	2024-11-06T14:00:00	3	Temperatura mínima	15.4
55988	7	Sololá	701	Sololá	3	Barraneche	10	Octubre	2023-10-19T00:00:00	2024-11-06T14:00:00	5	Humedad	79
55989	7	Sololá	701	Sololá	3	Barraneche	10	Octubre	2023-10-19T00:00:00	2024-11-06T14:00:00	6	Velocidad del viento	3.2
55990	7	Sololá	701	Sololá	3	Barraneche	10	Octubre	2023-10-19T00:00:00	2024-11-06T14:00:00	7	Dirección del viento	3.22
55991	7	Sololá	701	Sololá	3	Barraneche	10	Octubre	2023-10-19T00:00:00	2024-11-06T14:00:00	1	Precipitación	0.8
55992	7	Sololá	701	Sololá	3	Barraneche	10	Octubre	2023-10-19T00:00:00	2024-11-06T14:00:00	8	Radiación solar	116
55993	7	Sololá	701	Sololá	3	Barraneche	10	Octubre	2023-10-19T00:00:00	2024-11-06T15:00:00	2	Temperatura media	18.1
55994	7	Sololá	701	Sololá	3	Barraneche	10	Octubre	2023-10-19T00:00:00	2024-11-06T15:00:00	4	Temperatura máxima	18.1
55995	7	Sololá	701	Sololá	3	Barraneche	10	Octubre	2023-10-19T00:00:00	2024-11-06T15:00:00	3	Temperatura mínima	15.9
55996	7	Sololá	701	Sololá	3	Barraneche	10	Octubre	2023-10-19T00:00:00	2024-11-06T15:00:00	5	Humedad	68
55997	7	Sololá	701	Sololá	3	Barraneche	10	Octubre	2023-10-19T00:00:00	2024-11-06T15:00:00	6	Velocidad del viento	6.4
55998	7	Sololá	701	Sololá	3	Barraneche	10	Octubre	2023-10-19T00:00:00	2024-11-06T15:00:00	7	Dirección del viento	6.44
55999	7	Sololá	701	Sololá	3	Barraneche	10	Octubre	2023-10-19T00:00:00	2024-11-06T15:00:00	1	Precipitación	0
56000	7	Sololá	701	Sololá	3	Barraneche	10	Octubre	2023-10-19T00:00:00	2024-11-06T15:00:00	8	Radiación solar	315
56001	7	Sololá	701	Sololá	3	Barraneche	10	Octubre	2023-10-19T00:00:00	2024-11-06T16:00:00	2	Temperatura media	15.6
56002	7	Sololá	701	Sololá	3	Barraneche	10	Octubre	2023-10-19T00:00:00	2024-11-06T16:00:00	4	Temperatura máxima	18.2
56003	7	Sololá	701	Sololá	3	Barraneche	10	Octubre	2023-10-19T00:00:00	2024-11-06T16:00:00	3	Temperatura mínima	15.6
56004	7	Sololá	701	Sololá	3	Barraneche	10	Octubre	2023-10-19T00:00:00	2024-11-06T16:00:00	5	Humedad	79
56005	7	Sololá	701	Sololá	3	Barraneche	10	Octubre	2023-10-19T00:00:00	2024-11-06T16:00:00	6	Velocidad del viento	9.7
56006	7	Sololá	701	Sololá	3	Barraneche	10	Octubre	2023-10-19T00:00:00	2024-11-06T16:00:00	7	Dirección del viento	9.66
56007	7	Sololá	701	Sololá	3	Barraneche	10	Octubre	2023-10-19T00:00:00	2024-11-06T16:00:00	1	Precipitación	0
56008	7	Sololá	701	Sololá	3	Barraneche	10	Octubre	2023-10-19T00:00:00	2024-11-06T16:00:00	8	Radiación solar	188
56009	7	Sololá	701	Sololá	3	Barraneche	10	Octubre	2023-10-19T00:00:00	2024-11-06T17:00:00	2	Temperatura media	16.2
56010	7	Sololá	701	Sololá	3	Barraneche	10	Octubre	2023-10-19T00:00:00	2024-11-06T17:00:00	4	Temperatura máxima	16.4
56011	7	Sololá	701	Sololá	3	Barraneche	10	Octubre	2023-10-19T00:00:00	2024-11-06T17:00:00	3	Temperatura mínima	15.6
56012	7	Sololá	701	Sololá	3	Barraneche	10	Octubre	2023-10-19T00:00:00	2024-11-06T17:00:00	5	Humedad	71
56013	7	Sololá	701	Sololá	3	Barraneche	10	Octubre	2023-10-19T00:00:00	2024-11-06T17:00:00	6	Velocidad del viento	8
56014	7	Sololá	701	Sololá	3	Barraneche	10	Octubre	2023-10-19T00:00:00	2024-11-06T17:00:00	7	Dirección del viento	8.05
56015	7	Sololá	701	Sololá	3	Barraneche	10	Octubre	2023-10-19T00:00:00	2024-11-06T17:00:00	1	Precipitación	0
56016	7	Sololá	701	Sololá	3	Barraneche	10	Octubre	2023-10-19T00:00:00	2024-11-06T17:00:00	8	Radiación solar	150
56017	7	Sololá	701	Sololá	3	Barraneche	10	Octubre	2023-10-19T00:00:00	2024-11-06T18:00:00	2	Temperatura media	15.2
56018	7	Sololá	701	Sololá	3	Barraneche	10	Octubre	2023-10-19T00:00:00	2024-11-06T18:00:00	4	Temperatura máxima	16.2
56019	7	Sololá	701	Sololá	3	Barraneche	10	Octubre	2023-10-19T00:00:00	2024-11-06T18:00:00	3	Temperatura mínima	15.2
56020	7	Sololá	701	Sololá	3	Barraneche	10	Octubre	2023-10-19T00:00:00	2024-11-06T18:00:00	5	Humedad	74
56021	7	Sololá	701	Sololá	3	Barraneche	10	Octubre	2023-10-19T00:00:00	2024-11-06T18:00:00	6	Velocidad del viento	6.4
56022	7	Sololá	701	Sololá	3	Barraneche	10	Octubre	2023-10-19T00:00:00	2024-11-06T18:00:00	7	Dirección del viento	6.44
56023	7	Sololá	701	Sololá	3	Barraneche	10	Octubre	2023-10-19T00:00:00	2024-11-06T18:00:00	1	Precipitación	0
56024	7	Sololá	701	Sololá	3	Barraneche	10	Octubre	2023-10-19T00:00:00	2024-11-06T18:00:00	8	Radiación solar	12
56025	7	Sololá	701	Sololá	3	Barraneche	10	Octubre	2023-10-19T00:00:00	2024-11-06T19:00:00	2	Temperatura media	14.9
56026	7	Sololá	701	Sololá	3	Barraneche	10	Octubre	2023-10-19T00:00:00	2024-11-06T19:00:00	4	Temperatura máxima	15.2
56027	7	Sololá	701	Sololá	3	Barraneche	10	Octubre	2023-10-19T00:00:00	2024-11-06T19:00:00	3	Temperatura mínima	14.5
56028	7	Sololá	701	Sololá	3	Barraneche	10	Octubre	2023-10-19T00:00:00	2024-11-06T19:00:00	5	Humedad	75
56029	7	Sololá	701	Sololá	3	Barraneche	10	Octubre	2023-10-19T00:00:00	2024-11-06T19:00:00	6	Velocidad del viento	3.2
56030	7	Sololá	701	Sololá	3	Barraneche	10	Octubre	2023-10-19T00:00:00	2024-11-06T19:00:00	7	Dirección del viento	3.22
56031	7	Sololá	701	Sololá	3	Barraneche	10	Octubre	2023-10-19T00:00:00	2024-11-06T19:00:00	1	Precipitación	0
56032	7	Sololá	701	Sololá	3	Barraneche	10	Octubre	2023-10-19T00:00:00	2024-11-06T19:00:00	8	Radiación solar	0
56033	7	Sololá	701	Sololá	3	Barraneche	10	Octubre	2023-10-19T00:00:00	2024-11-06T20:00:00	2	Temperatura media	14.1
56034	7	Sololá	701	Sololá	3	Barraneche	10	Octubre	2023-10-19T00:00:00	2024-11-06T20:00:00	4	Temperatura máxima	14.9
56035	7	Sololá	701	Sololá	3	Barraneche	10	Octubre	2023-10-19T00:00:00	2024-11-06T20:00:00	3	Temperatura mínima	14.1
56036	7	Sololá	701	Sololá	3	Barraneche	10	Octubre	2023-10-19T00:00:00	2024-11-06T20:00:00	5	Humedad	80
56037	7	Sololá	701	Sololá	3	Barraneche	10	Octubre	2023-10-19T00:00:00	2024-11-06T20:00:00	6	Velocidad del viento	1.6
56038	7	Sololá	701	Sololá	3	Barraneche	10	Octubre	2023-10-19T00:00:00	2024-11-06T20:00:00	7	Dirección del viento	1.61
56039	7	Sololá	701	Sololá	3	Barraneche	10	Octubre	2023-10-19T00:00:00	2024-11-06T20:00:00	1	Precipitación	0.2
56040	7	Sololá	701	Sololá	3	Barraneche	10	Octubre	2023-10-19T00:00:00	2024-11-06T20:00:00	8	Radiación solar	0
56041	7	Sololá	701	Sololá	3	Barraneche	10	Octubre	2023-10-19T00:00:00	2024-11-06T21:00:00	2	Temperatura media	13.8
56042	7	Sololá	701	Sololá	3	Barraneche	10	Octubre	2023-10-19T00:00:00	2024-11-06T21:00:00	4	Temperatura máxima	14.1
56043	7	Sololá	701	Sololá	3	Barraneche	10	Octubre	2023-10-19T00:00:00	2024-11-06T21:00:00	3	Temperatura mínima	13.7
56044	7	Sololá	701	Sololá	3	Barraneche	10	Octubre	2023-10-19T00:00:00	2024-11-06T21:00:00	5	Humedad	83
56045	7	Sololá	701	Sololá	3	Barraneche	10	Octubre	2023-10-19T00:00:00	2024-11-06T21:00:00	6	Velocidad del viento	1.6
56046	7	Sololá	701	Sololá	3	Barraneche	10	Octubre	2023-10-19T00:00:00	2024-11-06T21:00:00	7	Dirección del viento	1.61
56047	7	Sololá	701	Sololá	3	Barraneche	10	Octubre	2023-10-19T00:00:00	2024-11-06T21:00:00	1	Precipitación	0
56048	7	Sololá	701	Sololá	3	Barraneche	10	Octubre	2023-10-19T00:00:00	2024-11-06T21:00:00	8	Radiación solar	0
56049	7	Sololá	701	Sololá	3	Barraneche	10	Octubre	2023-10-19T00:00:00	2024-11-06T22:00:00	2	Temperatura media	14
56050	7	Sololá	701	Sololá	3	Barraneche	10	Octubre	2023-10-19T00:00:00	2024-11-06T22:00:00	4	Temperatura máxima	14.1
56051	7	Sololá	701	Sololá	3	Barraneche	10	Octubre	2023-10-19T00:00:00	2024-11-06T22:00:00	3	Temperatura mínima	13.5
56052	7	Sololá	701	Sololá	3	Barraneche	10	Octubre	2023-10-19T00:00:00	2024-11-06T22:00:00	5	Humedad	78
56053	7	Sololá	701	Sololá	3	Barraneche	10	Octubre	2023-10-19T00:00:00	2024-11-06T22:00:00	6	Velocidad del viento	3.2
56054	7	Sololá	701	Sololá	3	Barraneche	10	Octubre	2023-10-19T00:00:00	2024-11-06T22:00:00	7	Dirección del viento	3.22
56055	7	Sololá	701	Sololá	3	Barraneche	10	Octubre	2023-10-19T00:00:00	2024-11-06T22:00:00	1	Precipitación	0
56056	7	Sololá	701	Sololá	3	Barraneche	10	Octubre	2023-10-19T00:00:00	2024-11-06T22:00:00	8	Radiación solar	0
56057	7	Sololá	701	Sololá	3	Barraneche	10	Octubre	2023-10-19T00:00:00	2024-11-06T23:00:00	2	Temperatura media	13.7
56058	7	Sololá	701	Sololá	3	Barraneche	10	Octubre	2023-10-19T00:00:00	2024-11-06T23:00:00	4	Temperatura máxima	14.1
56059	7	Sololá	701	Sololá	3	Barraneche	10	Octubre	2023-10-19T00:00:00	2024-11-06T23:00:00	3	Temperatura mínima	13.3
56060	7	Sololá	701	Sololá	3	Barraneche	10	Octubre	2023-10-19T00:00:00	2024-11-06T23:00:00	5	Humedad	78
56061	7	Sololá	701	Sololá	3	Barraneche	10	Octubre	2023-10-19T00:00:00	2024-11-06T23:00:00	6	Velocidad del viento	3.2
56062	7	Sololá	701	Sololá	3	Barraneche	10	Octubre	2023-10-19T00:00:00	2024-11-06T23:00:00	7	Dirección del viento	3.22
56063	7	Sololá	701	Sololá	3	Barraneche	10	Octubre	2023-10-19T00:00:00	2024-11-06T23:00:00	1	Precipitación	0.2
56064	7	Sololá	701	Sololá	3	Barraneche	10	Octubre	2023-10-19T00:00:00	2024-11-06T23:00:00	8	Radiación solar	0
56065	7	Sololá	701	Sololá	3	Barraneche	10	Octubre	2023-10-20T00:00:00	2024-11-06T00:00:00	2	Temperatura media	12.8
56066	7	Sololá	701	Sololá	3	Barraneche	10	Octubre	2023-10-20T00:00:00	2024-11-06T00:00:00	4	Temperatura máxima	13.7
56067	7	Sololá	701	Sololá	3	Barraneche	10	Octubre	2023-10-20T00:00:00	2024-11-06T00:00:00	3	Temperatura mínima	12.8
56068	7	Sololá	701	Sololá	3	Barraneche	10	Octubre	2023-10-20T00:00:00	2024-11-06T00:00:00	5	Humedad	82
56069	7	Sololá	701	Sololá	3	Barraneche	10	Octubre	2023-10-20T00:00:00	2024-11-06T00:00:00	6	Velocidad del viento	1.6
56070	7	Sololá	701	Sololá	3	Barraneche	10	Octubre	2023-10-20T00:00:00	2024-11-06T00:00:00	7	Dirección del viento	1.61
56071	7	Sololá	701	Sololá	3	Barraneche	10	Octubre	2023-10-20T00:00:00	2024-11-06T00:00:00	1	Precipitación	0
56072	7	Sololá	701	Sololá	3	Barraneche	10	Octubre	2023-10-20T00:00:00	2024-11-06T00:00:00	8	Radiación solar	0
56073	7	Sololá	701	Sololá	3	Barraneche	10	Octubre	2023-10-20T00:00:00	2024-11-06T01:00:00	2	Temperatura media	12.2
56074	7	Sololá	701	Sololá	3	Barraneche	10	Octubre	2023-10-20T00:00:00	2024-11-06T01:00:00	4	Temperatura máxima	12.8
56075	7	Sololá	701	Sololá	3	Barraneche	10	Octubre	2023-10-20T00:00:00	2024-11-06T01:00:00	3	Temperatura mínima	12.2
56076	7	Sololá	701	Sololá	3	Barraneche	10	Octubre	2023-10-20T00:00:00	2024-11-06T01:00:00	5	Humedad	82
56077	7	Sololá	701	Sololá	3	Barraneche	10	Octubre	2023-10-20T00:00:00	2024-11-06T01:00:00	6	Velocidad del viento	1.6
56078	7	Sololá	701	Sololá	3	Barraneche	10	Octubre	2023-10-20T00:00:00	2024-11-06T01:00:00	7	Dirección del viento	1.61
56079	7	Sololá	701	Sololá	3	Barraneche	10	Octubre	2023-10-20T00:00:00	2024-11-06T01:00:00	1	Precipitación	0
56080	7	Sololá	701	Sololá	3	Barraneche	10	Octubre	2023-10-20T00:00:00	2024-11-06T01:00:00	8	Radiación solar	0
56081	7	Sololá	701	Sololá	3	Barraneche	10	Octubre	2023-10-20T00:00:00	2024-11-06T02:00:00	2	Temperatura media	11.7
56082	7	Sololá	701	Sololá	3	Barraneche	10	Octubre	2023-10-20T00:00:00	2024-11-06T02:00:00	4	Temperatura máxima	12.2
56083	7	Sololá	701	Sololá	3	Barraneche	10	Octubre	2023-10-20T00:00:00	2024-11-06T02:00:00	3	Temperatura mínima	11.6
56084	7	Sololá	701	Sololá	3	Barraneche	10	Octubre	2023-10-20T00:00:00	2024-11-06T02:00:00	5	Humedad	85
56085	7	Sololá	701	Sololá	3	Barraneche	10	Octubre	2023-10-20T00:00:00	2024-11-06T02:00:00	6	Velocidad del viento	3.2
56086	7	Sololá	701	Sololá	3	Barraneche	10	Octubre	2023-10-20T00:00:00	2024-11-06T02:00:00	7	Dirección del viento	3.22
56087	7	Sololá	701	Sololá	3	Barraneche	10	Octubre	2023-10-20T00:00:00	2024-11-06T02:00:00	1	Precipitación	0
56088	7	Sololá	701	Sololá	3	Barraneche	10	Octubre	2023-10-20T00:00:00	2024-11-06T02:00:00	8	Radiación solar	0
56089	7	Sololá	701	Sololá	3	Barraneche	10	Octubre	2023-10-20T00:00:00	2024-11-06T03:00:00	2	Temperatura media	10.8
56090	7	Sololá	701	Sololá	3	Barraneche	10	Octubre	2023-10-20T00:00:00	2024-11-06T03:00:00	4	Temperatura máxima	11.8
56091	7	Sololá	701	Sololá	3	Barraneche	10	Octubre	2023-10-20T00:00:00	2024-11-06T03:00:00	3	Temperatura mínima	10.7
56092	7	Sololá	701	Sololá	3	Barraneche	10	Octubre	2023-10-20T00:00:00	2024-11-06T03:00:00	5	Humedad	84
56093	7	Sololá	701	Sololá	3	Barraneche	10	Octubre	2023-10-20T00:00:00	2024-11-06T03:00:00	6	Velocidad del viento	3.2
56094	7	Sololá	701	Sololá	3	Barraneche	10	Octubre	2023-10-20T00:00:00	2024-11-06T03:00:00	7	Dirección del viento	3.22
56095	7	Sololá	701	Sololá	3	Barraneche	10	Octubre	2023-10-20T00:00:00	2024-11-06T03:00:00	1	Precipitación	0
56096	7	Sololá	701	Sololá	3	Barraneche	10	Octubre	2023-10-20T00:00:00	2024-11-06T03:00:00	8	Radiación solar	0
56097	7	Sololá	701	Sololá	3	Barraneche	10	Octubre	2023-10-20T00:00:00	2024-11-06T04:00:00	2	Temperatura media	10.7
56098	7	Sololá	701	Sololá	3	Barraneche	10	Octubre	2023-10-20T00:00:00	2024-11-06T04:00:00	4	Temperatura máxima	10.8
56099	7	Sololá	701	Sololá	3	Barraneche	10	Octubre	2023-10-20T00:00:00	2024-11-06T04:00:00	3	Temperatura mínima	10.4
56100	7	Sololá	701	Sololá	3	Barraneche	10	Octubre	2023-10-20T00:00:00	2024-11-06T04:00:00	5	Humedad	81
56101	7	Sololá	701	Sololá	3	Barraneche	10	Octubre	2023-10-20T00:00:00	2024-11-06T04:00:00	6	Velocidad del viento	3.2
56102	7	Sololá	701	Sololá	3	Barraneche	10	Octubre	2023-10-20T00:00:00	2024-11-06T04:00:00	7	Dirección del viento	3.22
56103	7	Sololá	701	Sololá	3	Barraneche	10	Octubre	2023-10-20T00:00:00	2024-11-06T04:00:00	1	Precipitación	0
56104	7	Sololá	701	Sololá	3	Barraneche	10	Octubre	2023-10-20T00:00:00	2024-11-06T04:00:00	8	Radiación solar	0
56105	7	Sololá	701	Sololá	3	Barraneche	10	Octubre	2023-10-20T00:00:00	2024-11-06T05:00:00	2	Temperatura media	10.1
56106	7	Sololá	701	Sololá	3	Barraneche	10	Octubre	2023-10-20T00:00:00	2024-11-06T05:00:00	4	Temperatura máxima	10.8
56107	7	Sololá	701	Sololá	3	Barraneche	10	Octubre	2023-10-20T00:00:00	2024-11-06T05:00:00	3	Temperatura mínima	10.1
56108	7	Sololá	701	Sololá	3	Barraneche	10	Octubre	2023-10-20T00:00:00	2024-11-06T05:00:00	5	Humedad	80
56109	7	Sololá	701	Sololá	3	Barraneche	10	Octubre	2023-10-20T00:00:00	2024-11-06T05:00:00	6	Velocidad del viento	4.8
56110	7	Sololá	701	Sololá	3	Barraneche	10	Octubre	2023-10-20T00:00:00	2024-11-06T05:00:00	7	Dirección del viento	4.83
56111	7	Sololá	701	Sololá	3	Barraneche	10	Octubre	2023-10-20T00:00:00	2024-11-06T05:00:00	1	Precipitación	0
56112	7	Sololá	701	Sololá	3	Barraneche	10	Octubre	2023-10-20T00:00:00	2024-11-06T05:00:00	8	Radiación solar	0
56113	7	Sololá	701	Sololá	3	Barraneche	10	Octubre	2023-10-20T00:00:00	2024-11-06T06:00:00	2	Temperatura media	10.5
56114	7	Sololá	701	Sololá	3	Barraneche	10	Octubre	2023-10-20T00:00:00	2024-11-06T06:00:00	4	Temperatura máxima	10.6
56115	7	Sololá	701	Sololá	3	Barraneche	10	Octubre	2023-10-20T00:00:00	2024-11-06T06:00:00	3	Temperatura mínima	10.1
56116	7	Sololá	701	Sololá	3	Barraneche	10	Octubre	2023-10-20T00:00:00	2024-11-06T06:00:00	5	Humedad	78
56117	7	Sololá	701	Sololá	3	Barraneche	10	Octubre	2023-10-20T00:00:00	2024-11-06T06:00:00	6	Velocidad del viento	6.4
56118	7	Sololá	701	Sololá	3	Barraneche	10	Octubre	2023-10-20T00:00:00	2024-11-06T06:00:00	7	Dirección del viento	6.44
56119	7	Sololá	701	Sololá	3	Barraneche	10	Octubre	2023-10-20T00:00:00	2024-11-06T06:00:00	1	Precipitación	0
56120	7	Sololá	701	Sololá	3	Barraneche	10	Octubre	2023-10-20T00:00:00	2024-11-06T06:00:00	8	Radiación solar	0
56121	7	Sololá	701	Sololá	3	Barraneche	10	Octubre	2023-10-20T00:00:00	2024-11-06T07:00:00	2	Temperatura media	12.3
56122	7	Sololá	701	Sololá	3	Barraneche	10	Octubre	2023-10-20T00:00:00	2024-11-06T07:00:00	4	Temperatura máxima	12.3
56123	7	Sololá	701	Sololá	3	Barraneche	10	Octubre	2023-10-20T00:00:00	2024-11-06T07:00:00	3	Temperatura mínima	10.2
56124	7	Sololá	701	Sololá	3	Barraneche	10	Octubre	2023-10-20T00:00:00	2024-11-06T07:00:00	5	Humedad	77
56125	7	Sololá	701	Sololá	3	Barraneche	10	Octubre	2023-10-20T00:00:00	2024-11-06T07:00:00	6	Velocidad del viento	4.8
56126	7	Sololá	701	Sololá	3	Barraneche	10	Octubre	2023-10-20T00:00:00	2024-11-06T07:00:00	7	Dirección del viento	4.83
56127	7	Sololá	701	Sololá	3	Barraneche	10	Octubre	2023-10-20T00:00:00	2024-11-06T07:00:00	1	Precipitación	0
56128	7	Sololá	701	Sololá	3	Barraneche	10	Octubre	2023-10-20T00:00:00	2024-11-06T07:00:00	8	Radiación solar	54
56129	7	Sololá	701	Sololá	3	Barraneche	10	Octubre	2023-10-20T00:00:00	2024-11-06T08:00:00	2	Temperatura media	16.2
56130	7	Sololá	701	Sololá	3	Barraneche	10	Octubre	2023-10-20T00:00:00	2024-11-06T08:00:00	4	Temperatura máxima	16.2
56131	7	Sololá	701	Sololá	3	Barraneche	10	Octubre	2023-10-20T00:00:00	2024-11-06T08:00:00	3	Temperatura mínima	12.3
56132	7	Sololá	701	Sololá	3	Barraneche	10	Octubre	2023-10-20T00:00:00	2024-11-06T08:00:00	5	Humedad	70
56133	7	Sololá	701	Sololá	3	Barraneche	10	Octubre	2023-10-20T00:00:00	2024-11-06T08:00:00	6	Velocidad del viento	1.6
56134	7	Sololá	701	Sololá	3	Barraneche	10	Octubre	2023-10-20T00:00:00	2024-11-06T08:00:00	7	Dirección del viento	1.61
56135	7	Sololá	701	Sololá	3	Barraneche	10	Octubre	2023-10-20T00:00:00	2024-11-06T08:00:00	1	Precipitación	0
56136	7	Sololá	701	Sololá	3	Barraneche	10	Octubre	2023-10-20T00:00:00	2024-11-06T08:00:00	8	Radiación solar	298
56137	7	Sololá	701	Sololá	3	Barraneche	10	Octubre	2023-10-20T00:00:00	2024-11-06T09:00:00	2	Temperatura media	18.1
56138	7	Sololá	701	Sololá	3	Barraneche	10	Octubre	2023-10-20T00:00:00	2024-11-06T09:00:00	4	Temperatura máxima	18.1
56139	7	Sololá	701	Sololá	3	Barraneche	10	Octubre	2023-10-20T00:00:00	2024-11-06T09:00:00	3	Temperatura mínima	16.2
56140	7	Sololá	701	Sololá	3	Barraneche	10	Octubre	2023-10-20T00:00:00	2024-11-06T09:00:00	5	Humedad	69
56141	7	Sololá	701	Sololá	3	Barraneche	10	Octubre	2023-10-20T00:00:00	2024-11-06T09:00:00	6	Velocidad del viento	3.2
56142	7	Sololá	701	Sololá	3	Barraneche	10	Octubre	2023-10-20T00:00:00	2024-11-06T09:00:00	7	Dirección del viento	3.22
56143	7	Sololá	701	Sololá	3	Barraneche	10	Octubre	2023-10-20T00:00:00	2024-11-06T09:00:00	1	Precipitación	0
56144	7	Sololá	701	Sololá	3	Barraneche	10	Octubre	2023-10-20T00:00:00	2024-11-06T09:00:00	8	Radiación solar	523
56145	7	Sololá	701	Sololá	3	Barraneche	10	Octubre	2023-10-20T00:00:00	2024-11-06T10:00:00	2	Temperatura media	18.7
56146	7	Sololá	701	Sololá	3	Barraneche	10	Octubre	2023-10-20T00:00:00	2024-11-06T10:00:00	4	Temperatura máxima	18.7
56147	7	Sololá	701	Sololá	3	Barraneche	10	Octubre	2023-10-20T00:00:00	2024-11-06T10:00:00	3	Temperatura mínima	17.9
56148	7	Sololá	701	Sololá	3	Barraneche	10	Octubre	2023-10-20T00:00:00	2024-11-06T10:00:00	5	Humedad	66
56149	7	Sololá	701	Sololá	3	Barraneche	10	Octubre	2023-10-20T00:00:00	2024-11-06T10:00:00	6	Velocidad del viento	6.4
56150	7	Sololá	701	Sololá	3	Barraneche	10	Octubre	2023-10-20T00:00:00	2024-11-06T10:00:00	7	Dirección del viento	6.44
56151	7	Sololá	701	Sololá	3	Barraneche	10	Octubre	2023-10-20T00:00:00	2024-11-06T10:00:00	1	Precipitación	0
56152	7	Sololá	701	Sololá	3	Barraneche	10	Octubre	2023-10-20T00:00:00	2024-11-06T10:00:00	8	Radiación solar	735
56153	7	Sololá	701	Sololá	3	Barraneche	10	Octubre	2023-10-20T00:00:00	2024-11-06T11:00:00	2	Temperatura media	18.3
56154	7	Sololá	701	Sololá	3	Barraneche	10	Octubre	2023-10-20T00:00:00	2024-11-06T11:00:00	4	Temperatura máxima	19.1
56155	7	Sololá	701	Sololá	3	Barraneche	10	Octubre	2023-10-20T00:00:00	2024-11-06T11:00:00	3	Temperatura mínima	18
56156	7	Sololá	701	Sololá	3	Barraneche	10	Octubre	2023-10-20T00:00:00	2024-11-06T11:00:00	5	Humedad	70
56157	7	Sololá	701	Sololá	3	Barraneche	10	Octubre	2023-10-20T00:00:00	2024-11-06T11:00:00	6	Velocidad del viento	12.9
56158	7	Sololá	701	Sololá	3	Barraneche	10	Octubre	2023-10-20T00:00:00	2024-11-06T11:00:00	7	Dirección del viento	12.87
56159	7	Sololá	701	Sololá	3	Barraneche	10	Octubre	2023-10-20T00:00:00	2024-11-06T11:00:00	1	Precipitación	0
56160	7	Sololá	701	Sololá	3	Barraneche	10	Octubre	2023-10-20T00:00:00	2024-11-06T11:00:00	8	Radiación solar	824
56161	7	Sololá	701	Sololá	3	Barraneche	10	Octubre	2023-10-20T00:00:00	2024-11-06T12:00:00	2	Temperatura media	18.2
56162	7	Sololá	701	Sololá	3	Barraneche	10	Octubre	2023-10-20T00:00:00	2024-11-06T12:00:00	4	Temperatura máxima	18.6
56163	7	Sololá	701	Sololá	3	Barraneche	10	Octubre	2023-10-20T00:00:00	2024-11-06T12:00:00	3	Temperatura mínima	18.2
56164	7	Sololá	701	Sololá	3	Barraneche	10	Octubre	2023-10-20T00:00:00	2024-11-06T12:00:00	5	Humedad	69
56165	7	Sololá	701	Sololá	3	Barraneche	10	Octubre	2023-10-20T00:00:00	2024-11-06T12:00:00	6	Velocidad del viento	11.3
56166	7	Sololá	701	Sololá	3	Barraneche	10	Octubre	2023-10-20T00:00:00	2024-11-06T12:00:00	7	Dirección del viento	11.27
56167	7	Sololá	701	Sololá	3	Barraneche	10	Octubre	2023-10-20T00:00:00	2024-11-06T12:00:00	1	Precipitación	0
56168	7	Sololá	701	Sololá	3	Barraneche	10	Octubre	2023-10-20T00:00:00	2024-11-06T12:00:00	8	Radiación solar	1114
56169	7	Sololá	701	Sololá	3	Barraneche	10	Octubre	2023-10-20T00:00:00	2024-11-06T13:00:00	2	Temperatura media	17.2
56170	7	Sololá	701	Sololá	3	Barraneche	10	Octubre	2023-10-20T00:00:00	2024-11-06T13:00:00	4	Temperatura máxima	18.2
56171	7	Sololá	701	Sololá	3	Barraneche	10	Octubre	2023-10-20T00:00:00	2024-11-06T13:00:00	3	Temperatura mínima	17
56172	7	Sololá	701	Sololá	3	Barraneche	10	Octubre	2023-10-20T00:00:00	2024-11-06T13:00:00	5	Humedad	75
56173	7	Sololá	701	Sololá	3	Barraneche	10	Octubre	2023-10-20T00:00:00	2024-11-06T13:00:00	6	Velocidad del viento	12.9
56174	7	Sololá	701	Sololá	3	Barraneche	10	Octubre	2023-10-20T00:00:00	2024-11-06T13:00:00	7	Dirección del viento	12.87
56175	7	Sololá	701	Sololá	3	Barraneche	10	Octubre	2023-10-20T00:00:00	2024-11-06T13:00:00	1	Precipitación	0
56176	7	Sololá	701	Sololá	3	Barraneche	10	Octubre	2023-10-20T00:00:00	2024-11-06T13:00:00	8	Radiación solar	586
56177	7	Sololá	701	Sololá	3	Barraneche	10	Octubre	2023-10-20T00:00:00	2024-11-06T14:00:00	2	Temperatura media	16.4
56178	7	Sololá	701	Sololá	3	Barraneche	10	Octubre	2023-10-20T00:00:00	2024-11-06T14:00:00	4	Temperatura máxima	17.6
56179	7	Sololá	701	Sololá	3	Barraneche	10	Octubre	2023-10-20T00:00:00	2024-11-06T14:00:00	3	Temperatura mínima	16.4
56180	7	Sololá	701	Sololá	3	Barraneche	10	Octubre	2023-10-20T00:00:00	2024-11-06T14:00:00	5	Humedad	76
56181	7	Sololá	701	Sololá	3	Barraneche	10	Octubre	2023-10-20T00:00:00	2024-11-06T14:00:00	6	Velocidad del viento	11.3
56182	7	Sololá	701	Sololá	3	Barraneche	10	Octubre	2023-10-20T00:00:00	2024-11-06T14:00:00	7	Dirección del viento	11.27
56183	7	Sololá	701	Sololá	3	Barraneche	10	Octubre	2023-10-20T00:00:00	2024-11-06T14:00:00	1	Precipitación	0
56184	7	Sololá	701	Sololá	3	Barraneche	10	Octubre	2023-10-20T00:00:00	2024-11-06T14:00:00	8	Radiación solar	279
56185	7	Sololá	701	Sololá	3	Barraneche	10	Octubre	2023-10-20T00:00:00	2024-11-06T15:00:00	2	Temperatura media	15.4
56186	7	Sololá	701	Sololá	3	Barraneche	10	Octubre	2023-10-20T00:00:00	2024-11-06T15:00:00	4	Temperatura máxima	16.5
56187	7	Sololá	701	Sololá	3	Barraneche	10	Octubre	2023-10-20T00:00:00	2024-11-06T15:00:00	3	Temperatura mínima	15.3
56188	7	Sololá	701	Sololá	3	Barraneche	10	Octubre	2023-10-20T00:00:00	2024-11-06T15:00:00	5	Humedad	78
56189	7	Sololá	701	Sololá	3	Barraneche	10	Octubre	2023-10-20T00:00:00	2024-11-06T15:00:00	6	Velocidad del viento	8
56190	7	Sololá	701	Sololá	3	Barraneche	10	Octubre	2023-10-20T00:00:00	2024-11-06T15:00:00	7	Dirección del viento	8.05
56191	7	Sololá	701	Sololá	3	Barraneche	10	Octubre	2023-10-20T00:00:00	2024-11-06T15:00:00	1	Precipitación	0
56192	7	Sololá	701	Sololá	3	Barraneche	10	Octubre	2023-10-20T00:00:00	2024-11-06T15:00:00	8	Radiación solar	130
56193	7	Sololá	701	Sololá	3	Barraneche	10	Octubre	2023-10-20T00:00:00	2024-11-06T16:00:00	2	Temperatura media	17.1
56194	7	Sololá	701	Sololá	3	Barraneche	10	Octubre	2023-10-20T00:00:00	2024-11-06T16:00:00	4	Temperatura máxima	17.2
56195	7	Sololá	701	Sololá	3	Barraneche	10	Octubre	2023-10-20T00:00:00	2024-11-06T16:00:00	3	Temperatura mínima	15.4
56196	7	Sololá	701	Sololá	3	Barraneche	10	Octubre	2023-10-20T00:00:00	2024-11-06T16:00:00	5	Humedad	74
56197	7	Sololá	701	Sololá	3	Barraneche	10	Octubre	2023-10-20T00:00:00	2024-11-06T16:00:00	6	Velocidad del viento	6.4
56198	7	Sololá	701	Sololá	3	Barraneche	10	Octubre	2023-10-20T00:00:00	2024-11-06T16:00:00	7	Dirección del viento	6.44
56199	7	Sololá	701	Sololá	3	Barraneche	10	Octubre	2023-10-20T00:00:00	2024-11-06T16:00:00	1	Precipitación	0
56200	7	Sololá	701	Sololá	3	Barraneche	10	Octubre	2023-10-20T00:00:00	2024-11-06T16:00:00	8	Radiación solar	214
56201	7	Sololá	701	Sololá	3	Barraneche	10	Octubre	2023-10-20T00:00:00	2024-11-06T17:00:00	2	Temperatura media	16.4
56202	7	Sololá	701	Sololá	3	Barraneche	10	Octubre	2023-10-20T00:00:00	2024-11-06T17:00:00	4	Temperatura máxima	17.1
56203	7	Sololá	701	Sololá	3	Barraneche	10	Octubre	2023-10-20T00:00:00	2024-11-06T17:00:00	3	Temperatura mínima	16.3
56204	7	Sololá	701	Sololá	3	Barraneche	10	Octubre	2023-10-20T00:00:00	2024-11-06T17:00:00	5	Humedad	71
56205	7	Sololá	701	Sololá	3	Barraneche	10	Octubre	2023-10-20T00:00:00	2024-11-06T17:00:00	6	Velocidad del viento	8
56206	7	Sololá	701	Sololá	3	Barraneche	10	Octubre	2023-10-20T00:00:00	2024-11-06T17:00:00	7	Dirección del viento	8.05
56207	7	Sololá	701	Sololá	3	Barraneche	10	Octubre	2023-10-20T00:00:00	2024-11-06T17:00:00	1	Precipitación	0
56208	7	Sololá	701	Sololá	3	Barraneche	10	Octubre	2023-10-20T00:00:00	2024-11-06T17:00:00	8	Radiación solar	71
56209	7	Sololá	701	Sololá	3	Barraneche	10	Octubre	2023-10-20T00:00:00	2024-11-06T18:00:00	2	Temperatura media	15.1
56210	7	Sololá	701	Sololá	3	Barraneche	10	Octubre	2023-10-20T00:00:00	2024-11-06T18:00:00	4	Temperatura máxima	16.4
56211	7	Sololá	701	Sololá	3	Barraneche	10	Octubre	2023-10-20T00:00:00	2024-11-06T18:00:00	3	Temperatura mínima	15.1
56212	7	Sololá	701	Sololá	3	Barraneche	10	Octubre	2023-10-20T00:00:00	2024-11-06T18:00:00	5	Humedad	73
56213	7	Sololá	701	Sololá	3	Barraneche	10	Octubre	2023-10-20T00:00:00	2024-11-06T18:00:00	6	Velocidad del viento	6.4
56214	7	Sololá	701	Sololá	3	Barraneche	10	Octubre	2023-10-20T00:00:00	2024-11-06T18:00:00	7	Dirección del viento	6.44
56215	7	Sololá	701	Sololá	3	Barraneche	10	Octubre	2023-10-20T00:00:00	2024-11-06T18:00:00	1	Precipitación	0
56216	7	Sololá	701	Sololá	3	Barraneche	10	Octubre	2023-10-20T00:00:00	2024-11-06T18:00:00	8	Radiación solar	16
56217	7	Sololá	701	Sololá	3	Barraneche	10	Octubre	2023-10-20T00:00:00	2024-11-06T19:00:00	2	Temperatura media	14.1
56218	7	Sololá	701	Sololá	3	Barraneche	10	Octubre	2023-10-20T00:00:00	2024-11-06T19:00:00	4	Temperatura máxima	15.1
56219	7	Sololá	701	Sololá	3	Barraneche	10	Octubre	2023-10-20T00:00:00	2024-11-06T19:00:00	3	Temperatura mínima	14.1
56220	7	Sololá	701	Sololá	3	Barraneche	10	Octubre	2023-10-20T00:00:00	2024-11-06T19:00:00	5	Humedad	77
56221	7	Sololá	701	Sololá	3	Barraneche	10	Octubre	2023-10-20T00:00:00	2024-11-06T19:00:00	6	Velocidad del viento	4.8
56222	7	Sololá	701	Sololá	3	Barraneche	10	Octubre	2023-10-20T00:00:00	2024-11-06T19:00:00	7	Dirección del viento	4.83
56223	7	Sololá	701	Sololá	3	Barraneche	10	Octubre	2023-10-20T00:00:00	2024-11-06T19:00:00	1	Precipitación	0
56224	7	Sololá	701	Sololá	3	Barraneche	10	Octubre	2023-10-20T00:00:00	2024-11-06T19:00:00	8	Radiación solar	0
56225	7	Sololá	701	Sololá	3	Barraneche	10	Octubre	2023-10-20T00:00:00	2024-11-06T20:00:00	2	Temperatura media	12.9
56226	7	Sololá	701	Sololá	3	Barraneche	10	Octubre	2023-10-20T00:00:00	2024-11-06T20:00:00	4	Temperatura máxima	14.1
56227	7	Sololá	701	Sololá	3	Barraneche	10	Octubre	2023-10-20T00:00:00	2024-11-06T20:00:00	3	Temperatura mínima	12.8
56228	7	Sololá	701	Sololá	3	Barraneche	10	Octubre	2023-10-20T00:00:00	2024-11-06T20:00:00	5	Humedad	79
56229	7	Sololá	701	Sololá	3	Barraneche	10	Octubre	2023-10-20T00:00:00	2024-11-06T20:00:00	6	Velocidad del viento	3.2
56230	7	Sololá	701	Sololá	3	Barraneche	10	Octubre	2023-10-20T00:00:00	2024-11-06T20:00:00	7	Dirección del viento	3.22
56231	7	Sololá	701	Sololá	3	Barraneche	10	Octubre	2023-10-20T00:00:00	2024-11-06T20:00:00	1	Precipitación	0
56232	7	Sololá	701	Sololá	3	Barraneche	10	Octubre	2023-10-20T00:00:00	2024-11-06T20:00:00	8	Radiación solar	0
56233	7	Sololá	701	Sololá	3	Barraneche	10	Octubre	2023-10-20T00:00:00	2024-11-06T21:00:00	2	Temperatura media	13.5
56234	7	Sololá	701	Sololá	3	Barraneche	10	Octubre	2023-10-20T00:00:00	2024-11-06T21:00:00	4	Temperatura máxima	14.1
56235	7	Sololá	701	Sololá	3	Barraneche	10	Octubre	2023-10-20T00:00:00	2024-11-06T21:00:00	3	Temperatura mínima	12.9
56236	7	Sololá	701	Sololá	3	Barraneche	10	Octubre	2023-10-20T00:00:00	2024-11-06T21:00:00	5	Humedad	77
56237	7	Sololá	701	Sololá	3	Barraneche	10	Octubre	2023-10-20T00:00:00	2024-11-06T21:00:00	6	Velocidad del viento	1.6
56238	7	Sololá	701	Sololá	3	Barraneche	10	Octubre	2023-10-20T00:00:00	2024-11-06T21:00:00	7	Dirección del viento	1.61
56239	7	Sololá	701	Sololá	3	Barraneche	10	Octubre	2023-10-20T00:00:00	2024-11-06T21:00:00	1	Precipitación	0
56240	7	Sololá	701	Sololá	3	Barraneche	10	Octubre	2023-10-20T00:00:00	2024-11-06T21:00:00	8	Radiación solar	0
56241	7	Sololá	701	Sololá	3	Barraneche	10	Octubre	2023-10-20T00:00:00	2024-11-06T22:00:00	2	Temperatura media	12.4
56242	7	Sololá	701	Sololá	3	Barraneche	10	Octubre	2023-10-20T00:00:00	2024-11-06T22:00:00	4	Temperatura máxima	13.5
56243	7	Sololá	701	Sololá	3	Barraneche	10	Octubre	2023-10-20T00:00:00	2024-11-06T22:00:00	3	Temperatura mínima	12.3
56244	7	Sololá	701	Sololá	3	Barraneche	10	Octubre	2023-10-20T00:00:00	2024-11-06T22:00:00	5	Humedad	77
56245	7	Sololá	701	Sololá	3	Barraneche	10	Octubre	2023-10-20T00:00:00	2024-11-06T22:00:00	6	Velocidad del viento	3.2
56246	7	Sololá	701	Sololá	3	Barraneche	10	Octubre	2023-10-20T00:00:00	2024-11-06T22:00:00	7	Dirección del viento	3.22
56247	7	Sololá	701	Sololá	3	Barraneche	10	Octubre	2023-10-20T00:00:00	2024-11-06T22:00:00	1	Precipitación	0
56248	7	Sololá	701	Sololá	3	Barraneche	10	Octubre	2023-10-20T00:00:00	2024-11-06T22:00:00	8	Radiación solar	0
56249	7	Sololá	701	Sololá	3	Barraneche	10	Octubre	2023-10-20T00:00:00	2024-11-06T23:00:00	2	Temperatura media	11.4
56250	7	Sololá	701	Sololá	3	Barraneche	10	Octubre	2023-10-20T00:00:00	2024-11-06T23:00:00	4	Temperatura máxima	12.4
56251	7	Sololá	701	Sololá	3	Barraneche	10	Octubre	2023-10-20T00:00:00	2024-11-06T23:00:00	3	Temperatura mínima	11.4
56252	7	Sololá	701	Sololá	3	Barraneche	10	Octubre	2023-10-20T00:00:00	2024-11-06T23:00:00	5	Humedad	78
56253	7	Sololá	701	Sololá	3	Barraneche	10	Octubre	2023-10-20T00:00:00	2024-11-06T23:00:00	6	Velocidad del viento	1.6
56254	7	Sololá	701	Sololá	3	Barraneche	10	Octubre	2023-10-20T00:00:00	2024-11-06T23:00:00	7	Dirección del viento	1.61
56255	7	Sololá	701	Sololá	3	Barraneche	10	Octubre	2023-10-20T00:00:00	2024-11-06T23:00:00	1	Precipitación	0
56256	7	Sololá	701	Sololá	3	Barraneche	10	Octubre	2023-10-20T00:00:00	2024-11-06T23:00:00	8	Radiación solar	0
56257	7	Sololá	701	Sololá	3	Barraneche	10	Octubre	2023-10-21T00:00:00	2024-11-06T00:00:00	2	Temperatura media	10.6
56258	7	Sololá	701	Sololá	3	Barraneche	10	Octubre	2023-10-21T00:00:00	2024-11-06T00:00:00	4	Temperatura máxima	11.6
56259	7	Sololá	701	Sololá	3	Barraneche	10	Octubre	2023-10-21T00:00:00	2024-11-06T00:00:00	3	Temperatura mínima	10.4
56260	7	Sololá	701	Sololá	3	Barraneche	10	Octubre	2023-10-21T00:00:00	2024-11-06T00:00:00	5	Humedad	79
56261	7	Sololá	701	Sololá	3	Barraneche	10	Octubre	2023-10-21T00:00:00	2024-11-06T00:00:00	6	Velocidad del viento	4.8
56262	7	Sololá	701	Sololá	3	Barraneche	10	Octubre	2023-10-21T00:00:00	2024-11-06T00:00:00	7	Dirección del viento	4.83
56263	7	Sololá	701	Sololá	3	Barraneche	10	Octubre	2023-10-21T00:00:00	2024-11-06T00:00:00	1	Precipitación	0
56264	7	Sololá	701	Sololá	3	Barraneche	10	Octubre	2023-10-21T00:00:00	2024-11-06T00:00:00	8	Radiación solar	0
56265	7	Sololá	701	Sololá	3	Barraneche	10	Octubre	2023-10-21T00:00:00	2024-11-06T01:00:00	2	Temperatura media	10.1
56266	7	Sololá	701	Sololá	3	Barraneche	10	Octubre	2023-10-21T00:00:00	2024-11-06T01:00:00	4	Temperatura máxima	10.6
56267	7	Sololá	701	Sololá	3	Barraneche	10	Octubre	2023-10-21T00:00:00	2024-11-06T01:00:00	3	Temperatura mínima	10.1
56268	7	Sololá	701	Sololá	3	Barraneche	10	Octubre	2023-10-21T00:00:00	2024-11-06T01:00:00	5	Humedad	79
56269	7	Sololá	701	Sololá	3	Barraneche	10	Octubre	2023-10-21T00:00:00	2024-11-06T01:00:00	6	Velocidad del viento	4.8
56270	7	Sololá	701	Sololá	3	Barraneche	10	Octubre	2023-10-21T00:00:00	2024-11-06T01:00:00	7	Dirección del viento	4.83
56271	7	Sololá	701	Sololá	3	Barraneche	10	Octubre	2023-10-21T00:00:00	2024-11-06T01:00:00	1	Precipitación	0
56272	7	Sololá	701	Sololá	3	Barraneche	10	Octubre	2023-10-21T00:00:00	2024-11-06T01:00:00	8	Radiación solar	0
56273	7	Sololá	701	Sololá	3	Barraneche	10	Octubre	2023-10-21T00:00:00	2024-11-06T02:00:00	2	Temperatura media	10.3
56274	7	Sololá	701	Sololá	3	Barraneche	10	Octubre	2023-10-21T00:00:00	2024-11-06T02:00:00	4	Temperatura máxima	10.4
56275	7	Sololá	701	Sololá	3	Barraneche	10	Octubre	2023-10-21T00:00:00	2024-11-06T02:00:00	3	Temperatura mínima	10.1
56276	7	Sololá	701	Sololá	3	Barraneche	10	Octubre	2023-10-21T00:00:00	2024-11-06T02:00:00	5	Humedad	78
56277	7	Sololá	701	Sololá	3	Barraneche	10	Octubre	2023-10-21T00:00:00	2024-11-06T02:00:00	6	Velocidad del viento	4.8
56278	7	Sololá	701	Sololá	3	Barraneche	10	Octubre	2023-10-21T00:00:00	2024-11-06T02:00:00	7	Dirección del viento	4.83
56279	7	Sololá	701	Sololá	3	Barraneche	10	Octubre	2023-10-21T00:00:00	2024-11-06T02:00:00	1	Precipitación	0
56280	7	Sololá	701	Sololá	3	Barraneche	10	Octubre	2023-10-21T00:00:00	2024-11-06T02:00:00	8	Radiación solar	0
56281	7	Sololá	701	Sololá	3	Barraneche	10	Octubre	2023-10-21T00:00:00	2024-11-06T03:00:00	2	Temperatura media	10
56282	7	Sololá	701	Sololá	3	Barraneche	10	Octubre	2023-10-21T00:00:00	2024-11-06T03:00:00	4	Temperatura máxima	10.3
56283	7	Sololá	701	Sololá	3	Barraneche	10	Octubre	2023-10-21T00:00:00	2024-11-06T03:00:00	3	Temperatura mínima	9.8
56284	7	Sololá	701	Sololá	3	Barraneche	10	Octubre	2023-10-21T00:00:00	2024-11-06T03:00:00	5	Humedad	79
56285	7	Sololá	701	Sololá	3	Barraneche	10	Octubre	2023-10-21T00:00:00	2024-11-06T03:00:00	6	Velocidad del viento	4.8
56286	7	Sololá	701	Sololá	3	Barraneche	10	Octubre	2023-10-21T00:00:00	2024-11-06T03:00:00	7	Dirección del viento	4.83
56287	7	Sololá	701	Sololá	3	Barraneche	10	Octubre	2023-10-21T00:00:00	2024-11-06T03:00:00	1	Precipitación	0
56288	7	Sololá	701	Sololá	3	Barraneche	10	Octubre	2023-10-21T00:00:00	2024-11-06T03:00:00	8	Radiación solar	0
56289	7	Sololá	701	Sololá	3	Barraneche	10	Octubre	2023-10-21T00:00:00	2024-11-06T04:00:00	2	Temperatura media	10.2
56290	7	Sololá	701	Sololá	3	Barraneche	10	Octubre	2023-10-21T00:00:00	2024-11-06T04:00:00	4	Temperatura máxima	10.2
56291	7	Sololá	701	Sololá	3	Barraneche	10	Octubre	2023-10-21T00:00:00	2024-11-06T04:00:00	3	Temperatura mínima	9.9
56292	7	Sololá	701	Sololá	3	Barraneche	10	Octubre	2023-10-21T00:00:00	2024-11-06T04:00:00	5	Humedad	78
56293	7	Sololá	701	Sololá	3	Barraneche	10	Octubre	2023-10-21T00:00:00	2024-11-06T04:00:00	6	Velocidad del viento	4.8
56294	7	Sololá	701	Sololá	3	Barraneche	10	Octubre	2023-10-21T00:00:00	2024-11-06T04:00:00	7	Dirección del viento	4.83
56295	7	Sololá	701	Sololá	3	Barraneche	10	Octubre	2023-10-21T00:00:00	2024-11-06T04:00:00	1	Precipitación	0
56296	7	Sololá	701	Sololá	3	Barraneche	10	Octubre	2023-10-21T00:00:00	2024-11-06T04:00:00	8	Radiación solar	0
56297	7	Sololá	701	Sololá	3	Barraneche	10	Octubre	2023-10-21T00:00:00	2024-11-06T05:00:00	2	Temperatura media	10.9
56298	7	Sololá	701	Sololá	3	Barraneche	10	Octubre	2023-10-21T00:00:00	2024-11-06T05:00:00	4	Temperatura máxima	11.2
56299	7	Sololá	701	Sololá	3	Barraneche	10	Octubre	2023-10-21T00:00:00	2024-11-06T05:00:00	3	Temperatura mínima	10.1
56300	7	Sololá	701	Sololá	3	Barraneche	10	Octubre	2023-10-21T00:00:00	2024-11-06T05:00:00	5	Humedad	77
56301	7	Sololá	701	Sololá	3	Barraneche	10	Octubre	2023-10-21T00:00:00	2024-11-06T05:00:00	6	Velocidad del viento	6.4
56302	7	Sololá	701	Sololá	3	Barraneche	10	Octubre	2023-10-21T00:00:00	2024-11-06T05:00:00	7	Dirección del viento	6.44
56303	7	Sololá	701	Sololá	3	Barraneche	10	Octubre	2023-10-21T00:00:00	2024-11-06T05:00:00	1	Precipitación	0
56304	7	Sololá	701	Sololá	3	Barraneche	10	Octubre	2023-10-21T00:00:00	2024-11-06T05:00:00	8	Radiación solar	0
56305	7	Sololá	701	Sololá	3	Barraneche	10	Octubre	2023-10-21T00:00:00	2024-11-06T06:00:00	2	Temperatura media	10.7
56306	7	Sololá	701	Sololá	3	Barraneche	10	Octubre	2023-10-21T00:00:00	2024-11-06T06:00:00	4	Temperatura máxima	11.2
56307	7	Sololá	701	Sololá	3	Barraneche	10	Octubre	2023-10-21T00:00:00	2024-11-06T06:00:00	3	Temperatura mínima	10.7
56308	7	Sololá	701	Sololá	3	Barraneche	10	Octubre	2023-10-21T00:00:00	2024-11-06T06:00:00	5	Humedad	77
56309	7	Sololá	701	Sololá	3	Barraneche	10	Octubre	2023-10-21T00:00:00	2024-11-06T06:00:00	6	Velocidad del viento	4.8
56310	7	Sololá	701	Sololá	3	Barraneche	10	Octubre	2023-10-21T00:00:00	2024-11-06T06:00:00	7	Dirección del viento	4.83
56311	7	Sololá	701	Sololá	3	Barraneche	10	Octubre	2023-10-21T00:00:00	2024-11-06T06:00:00	1	Precipitación	0
56312	7	Sololá	701	Sololá	3	Barraneche	10	Octubre	2023-10-21T00:00:00	2024-11-06T06:00:00	8	Radiación solar	0
56313	7	Sololá	701	Sololá	3	Barraneche	10	Octubre	2023-10-21T00:00:00	2024-11-06T07:00:00	2	Temperatura media	11.6
56314	7	Sololá	701	Sololá	3	Barraneche	10	Octubre	2023-10-21T00:00:00	2024-11-06T07:00:00	4	Temperatura máxima	11.6
56315	7	Sololá	701	Sololá	3	Barraneche	10	Octubre	2023-10-21T00:00:00	2024-11-06T07:00:00	3	Temperatura mínima	10.4
56316	7	Sololá	701	Sololá	3	Barraneche	10	Octubre	2023-10-21T00:00:00	2024-11-06T07:00:00	5	Humedad	77
56317	7	Sololá	701	Sololá	3	Barraneche	10	Octubre	2023-10-21T00:00:00	2024-11-06T07:00:00	6	Velocidad del viento	3.2
56318	7	Sololá	701	Sololá	3	Barraneche	10	Octubre	2023-10-21T00:00:00	2024-11-06T07:00:00	7	Dirección del viento	3.22
56319	7	Sololá	701	Sololá	3	Barraneche	10	Octubre	2023-10-21T00:00:00	2024-11-06T07:00:00	1	Precipitación	0
56320	7	Sololá	701	Sololá	3	Barraneche	10	Octubre	2023-10-21T00:00:00	2024-11-06T07:00:00	8	Radiación solar	55
56321	7	Sololá	701	Sololá	3	Barraneche	10	Octubre	2023-10-21T00:00:00	2024-11-06T08:00:00	2	Temperatura media	14.4
56322	7	Sololá	701	Sololá	3	Barraneche	10	Octubre	2023-10-21T00:00:00	2024-11-06T08:00:00	4	Temperatura máxima	14.7
56323	7	Sololá	701	Sololá	3	Barraneche	10	Octubre	2023-10-21T00:00:00	2024-11-06T08:00:00	3	Temperatura mínima	11.6
56324	7	Sololá	701	Sololá	3	Barraneche	10	Octubre	2023-10-21T00:00:00	2024-11-06T08:00:00	5	Humedad	73
56325	7	Sololá	701	Sololá	3	Barraneche	10	Octubre	2023-10-21T00:00:00	2024-11-06T08:00:00	6	Velocidad del viento	1.6
56326	7	Sololá	701	Sololá	3	Barraneche	10	Octubre	2023-10-21T00:00:00	2024-11-06T08:00:00	7	Dirección del viento	1.61
56327	7	Sololá	701	Sololá	3	Barraneche	10	Octubre	2023-10-21T00:00:00	2024-11-06T08:00:00	1	Precipitación	0
56328	7	Sololá	701	Sololá	3	Barraneche	10	Octubre	2023-10-21T00:00:00	2024-11-06T08:00:00	8	Radiación solar	263
56329	7	Sololá	701	Sololá	3	Barraneche	10	Octubre	2023-10-21T00:00:00	2024-11-06T09:00:00	2	Temperatura media	15.7
56330	7	Sololá	701	Sololá	3	Barraneche	10	Octubre	2023-10-21T00:00:00	2024-11-06T09:00:00	4	Temperatura máxima	15.7
56331	7	Sololá	701	Sololá	3	Barraneche	10	Octubre	2023-10-21T00:00:00	2024-11-06T09:00:00	3	Temperatura mínima	14.1
56332	7	Sololá	701	Sololá	3	Barraneche	10	Octubre	2023-10-21T00:00:00	2024-11-06T09:00:00	5	Humedad	70
56333	7	Sololá	701	Sololá	3	Barraneche	10	Octubre	2023-10-21T00:00:00	2024-11-06T09:00:00	6	Velocidad del viento	3.2
56334	7	Sololá	701	Sololá	3	Barraneche	10	Octubre	2023-10-21T00:00:00	2024-11-06T09:00:00	7	Dirección del viento	3.22
56335	7	Sololá	701	Sololá	3	Barraneche	10	Octubre	2023-10-21T00:00:00	2024-11-06T09:00:00	1	Precipitación	0
56336	7	Sololá	701	Sololá	3	Barraneche	10	Octubre	2023-10-21T00:00:00	2024-11-06T09:00:00	8	Radiación solar	344
56337	7	Sololá	701	Sololá	3	Barraneche	10	Octubre	2023-10-21T00:00:00	2024-11-06T10:00:00	2	Temperatura media	16.5
56338	7	Sololá	701	Sololá	3	Barraneche	10	Octubre	2023-10-21T00:00:00	2024-11-06T10:00:00	4	Temperatura máxima	16.9
56339	7	Sololá	701	Sololá	3	Barraneche	10	Octubre	2023-10-21T00:00:00	2024-11-06T10:00:00	3	Temperatura mínima	15.6
56340	7	Sololá	701	Sololá	3	Barraneche	10	Octubre	2023-10-21T00:00:00	2024-11-06T10:00:00	5	Humedad	69
56341	7	Sololá	701	Sololá	3	Barraneche	10	Octubre	2023-10-21T00:00:00	2024-11-06T10:00:00	6	Velocidad del viento	8
56342	7	Sololá	701	Sololá	3	Barraneche	10	Octubre	2023-10-21T00:00:00	2024-11-06T10:00:00	7	Dirección del viento	8.05
56343	7	Sololá	701	Sololá	3	Barraneche	10	Octubre	2023-10-21T00:00:00	2024-11-06T10:00:00	1	Precipitación	0
56344	7	Sololá	701	Sololá	3	Barraneche	10	Octubre	2023-10-21T00:00:00	2024-11-06T10:00:00	8	Radiación solar	581
56345	7	Sololá	701	Sololá	3	Barraneche	10	Octubre	2023-10-21T00:00:00	2024-11-06T11:00:00	2	Temperatura media	17.5
56346	7	Sololá	701	Sololá	3	Barraneche	10	Octubre	2023-10-21T00:00:00	2024-11-06T11:00:00	4	Temperatura máxima	17.7
56347	7	Sololá	701	Sololá	3	Barraneche	10	Octubre	2023-10-21T00:00:00	2024-11-06T11:00:00	3	Temperatura mínima	16.4
56348	7	Sololá	701	Sololá	3	Barraneche	10	Octubre	2023-10-21T00:00:00	2024-11-06T11:00:00	5	Humedad	67
56349	7	Sololá	701	Sololá	3	Barraneche	10	Octubre	2023-10-21T00:00:00	2024-11-06T11:00:00	6	Velocidad del viento	6.4
56350	7	Sololá	701	Sololá	3	Barraneche	10	Octubre	2023-10-21T00:00:00	2024-11-06T11:00:00	7	Dirección del viento	6.44
56351	7	Sololá	701	Sololá	3	Barraneche	10	Octubre	2023-10-21T00:00:00	2024-11-06T11:00:00	1	Precipitación	0
56352	7	Sololá	701	Sololá	3	Barraneche	10	Octubre	2023-10-21T00:00:00	2024-11-06T11:00:00	8	Radiación solar	534
56353	7	Sololá	701	Sololá	3	Barraneche	10	Octubre	2023-10-21T00:00:00	2024-11-06T12:00:00	2	Temperatura media	18.4
56354	7	Sololá	701	Sololá	3	Barraneche	10	Octubre	2023-10-21T00:00:00	2024-11-06T12:00:00	4	Temperatura máxima	18.4
56355	7	Sololá	701	Sololá	3	Barraneche	10	Octubre	2023-10-21T00:00:00	2024-11-06T12:00:00	3	Temperatura mínima	16.8
56356	7	Sololá	701	Sololá	3	Barraneche	10	Octubre	2023-10-21T00:00:00	2024-11-06T12:00:00	5	Humedad	63
56357	7	Sololá	701	Sololá	3	Barraneche	10	Octubre	2023-10-21T00:00:00	2024-11-06T12:00:00	6	Velocidad del viento	11.3
56358	7	Sololá	701	Sololá	3	Barraneche	10	Octubre	2023-10-21T00:00:00	2024-11-06T12:00:00	7	Dirección del viento	11.27
56359	7	Sololá	701	Sololá	3	Barraneche	10	Octubre	2023-10-21T00:00:00	2024-11-06T12:00:00	1	Precipitación	0
56360	7	Sololá	701	Sololá	3	Barraneche	10	Octubre	2023-10-21T00:00:00	2024-11-06T12:00:00	8	Radiación solar	806
56361	7	Sololá	701	Sololá	3	Barraneche	10	Octubre	2023-10-21T00:00:00	2024-11-06T13:00:00	2	Temperatura media	18.3
56362	7	Sololá	701	Sololá	3	Barraneche	10	Octubre	2023-10-21T00:00:00	2024-11-06T13:00:00	4	Temperatura máxima	18.8
56363	7	Sololá	701	Sololá	3	Barraneche	10	Octubre	2023-10-21T00:00:00	2024-11-06T13:00:00	3	Temperatura mínima	18.1
56364	7	Sololá	701	Sololá	3	Barraneche	10	Octubre	2023-10-21T00:00:00	2024-11-06T13:00:00	5	Humedad	65
56365	7	Sololá	701	Sololá	3	Barraneche	10	Octubre	2023-10-21T00:00:00	2024-11-06T13:00:00	6	Velocidad del viento	11.3
56366	7	Sololá	701	Sololá	3	Barraneche	10	Octubre	2023-10-21T00:00:00	2024-11-06T13:00:00	7	Dirección del viento	11.27
56367	7	Sololá	701	Sololá	3	Barraneche	10	Octubre	2023-10-21T00:00:00	2024-11-06T13:00:00	1	Precipitación	0
56368	7	Sololá	701	Sololá	3	Barraneche	10	Octubre	2023-10-21T00:00:00	2024-11-06T13:00:00	8	Radiación solar	891
56369	7	Sololá	701	Sololá	3	Barraneche	10	Octubre	2023-10-21T00:00:00	2024-11-06T14:00:00	2	Temperatura media	18.1
56370	7	Sololá	701	Sololá	3	Barraneche	10	Octubre	2023-10-21T00:00:00	2024-11-06T14:00:00	4	Temperatura máxima	18.7
56371	7	Sololá	701	Sololá	3	Barraneche	10	Octubre	2023-10-21T00:00:00	2024-11-06T14:00:00	3	Temperatura mínima	18
56372	7	Sololá	701	Sololá	3	Barraneche	10	Octubre	2023-10-21T00:00:00	2024-11-06T14:00:00	5	Humedad	69
56373	7	Sololá	701	Sololá	3	Barraneche	10	Octubre	2023-10-21T00:00:00	2024-11-06T14:00:00	6	Velocidad del viento	12.9
56374	7	Sololá	701	Sololá	3	Barraneche	10	Octubre	2023-10-21T00:00:00	2024-11-06T14:00:00	7	Dirección del viento	12.87
56375	7	Sololá	701	Sololá	3	Barraneche	10	Octubre	2023-10-21T00:00:00	2024-11-06T14:00:00	1	Precipitación	0
56376	7	Sololá	701	Sololá	3	Barraneche	10	Octubre	2023-10-21T00:00:00	2024-11-06T14:00:00	8	Radiación solar	973
56377	7	Sololá	701	Sololá	3	Barraneche	10	Octubre	2023-10-21T00:00:00	2024-11-06T15:00:00	2	Temperatura media	17.4
56378	7	Sololá	701	Sololá	3	Barraneche	10	Octubre	2023-10-21T00:00:00	2024-11-06T15:00:00	4	Temperatura máxima	18.3
56379	7	Sololá	701	Sololá	3	Barraneche	10	Octubre	2023-10-21T00:00:00	2024-11-06T15:00:00	3	Temperatura mínima	17.2
56380	7	Sololá	701	Sololá	3	Barraneche	10	Octubre	2023-10-21T00:00:00	2024-11-06T15:00:00	5	Humedad	71
56381	7	Sololá	701	Sololá	3	Barraneche	10	Octubre	2023-10-21T00:00:00	2024-11-06T15:00:00	6	Velocidad del viento	11.3
56382	7	Sololá	701	Sololá	3	Barraneche	10	Octubre	2023-10-21T00:00:00	2024-11-06T15:00:00	7	Dirección del viento	11.27
56383	7	Sololá	701	Sololá	3	Barraneche	10	Octubre	2023-10-21T00:00:00	2024-11-06T15:00:00	1	Precipitación	0
56384	7	Sololá	701	Sololá	3	Barraneche	10	Octubre	2023-10-21T00:00:00	2024-11-06T15:00:00	8	Radiación solar	482
56385	7	Sololá	701	Sololá	3	Barraneche	10	Octubre	2023-10-21T00:00:00	2024-11-06T16:00:00	2	Temperatura media	15.6
56386	7	Sololá	701	Sololá	3	Barraneche	10	Octubre	2023-10-21T00:00:00	2024-11-06T16:00:00	4	Temperatura máxima	17.6
56387	7	Sololá	701	Sololá	3	Barraneche	10	Octubre	2023-10-21T00:00:00	2024-11-06T16:00:00	3	Temperatura mínima	15.6
56388	7	Sololá	701	Sololá	3	Barraneche	10	Octubre	2023-10-21T00:00:00	2024-11-06T16:00:00	5	Humedad	78
56389	7	Sololá	701	Sololá	3	Barraneche	10	Octubre	2023-10-21T00:00:00	2024-11-06T16:00:00	6	Velocidad del viento	8
56390	7	Sololá	701	Sololá	3	Barraneche	10	Octubre	2023-10-21T00:00:00	2024-11-06T16:00:00	7	Dirección del viento	8.05
56391	7	Sololá	701	Sololá	3	Barraneche	10	Octubre	2023-10-21T00:00:00	2024-11-06T16:00:00	1	Precipitación	0
56392	7	Sololá	701	Sololá	3	Barraneche	10	Octubre	2023-10-21T00:00:00	2024-11-06T16:00:00	8	Radiación solar	94
56393	7	Sololá	701	Sololá	3	Barraneche	10	Octubre	2023-10-21T00:00:00	2024-11-06T17:00:00	2	Temperatura media	14.4
56394	7	Sololá	701	Sololá	3	Barraneche	10	Octubre	2023-10-21T00:00:00	2024-11-06T17:00:00	4	Temperatura máxima	15.6
56395	7	Sololá	701	Sololá	3	Barraneche	10	Octubre	2023-10-21T00:00:00	2024-11-06T17:00:00	3	Temperatura mínima	14.4
56396	7	Sololá	701	Sololá	3	Barraneche	10	Octubre	2023-10-21T00:00:00	2024-11-06T17:00:00	5	Humedad	81
56397	7	Sololá	701	Sololá	3	Barraneche	10	Octubre	2023-10-21T00:00:00	2024-11-06T17:00:00	6	Velocidad del viento	4.8
56398	7	Sololá	701	Sololá	3	Barraneche	10	Octubre	2023-10-21T00:00:00	2024-11-06T17:00:00	7	Dirección del viento	4.83
56399	7	Sololá	701	Sololá	3	Barraneche	10	Octubre	2023-10-21T00:00:00	2024-11-06T17:00:00	1	Precipitación	7.2
56400	7	Sololá	701	Sololá	3	Barraneche	10	Octubre	2023-10-21T00:00:00	2024-11-06T17:00:00	8	Radiación solar	19
56401	7	Sololá	701	Sololá	3	Barraneche	10	Octubre	2023-10-21T00:00:00	2024-11-06T18:00:00	2	Temperatura media	13.6
56402	7	Sololá	701	Sololá	3	Barraneche	10	Octubre	2023-10-21T00:00:00	2024-11-06T18:00:00	4	Temperatura máxima	14.5
56403	7	Sololá	701	Sololá	3	Barraneche	10	Octubre	2023-10-21T00:00:00	2024-11-06T18:00:00	3	Temperatura mínima	13.6
56404	7	Sololá	701	Sololá	3	Barraneche	10	Octubre	2023-10-21T00:00:00	2024-11-06T18:00:00	5	Humedad	81
56405	7	Sololá	701	Sololá	3	Barraneche	10	Octubre	2023-10-21T00:00:00	2024-11-06T18:00:00	6	Velocidad del viento	1.6
56406	7	Sololá	701	Sololá	3	Barraneche	10	Octubre	2023-10-21T00:00:00	2024-11-06T18:00:00	7	Dirección del viento	1.61
56407	7	Sololá	701	Sololá	3	Barraneche	10	Octubre	2023-10-21T00:00:00	2024-11-06T18:00:00	1	Precipitación	6.6
56408	7	Sololá	701	Sololá	3	Barraneche	10	Octubre	2023-10-21T00:00:00	2024-11-06T18:00:00	8	Radiación solar	1
56409	7	Sololá	701	Sololá	3	Barraneche	10	Octubre	2023-10-21T00:00:00	2024-11-06T19:00:00	2	Temperatura media	12.4
56410	7	Sololá	701	Sololá	3	Barraneche	10	Octubre	2023-10-21T00:00:00	2024-11-06T19:00:00	4	Temperatura máxima	13.6
56411	7	Sololá	701	Sololá	3	Barraneche	10	Octubre	2023-10-21T00:00:00	2024-11-06T19:00:00	3	Temperatura mínima	12.4
56412	7	Sololá	701	Sololá	3	Barraneche	10	Octubre	2023-10-21T00:00:00	2024-11-06T19:00:00	5	Humedad	84
56413	7	Sololá	701	Sololá	3	Barraneche	10	Octubre	2023-10-21T00:00:00	2024-11-06T19:00:00	6	Velocidad del viento	3.2
56414	7	Sololá	701	Sololá	3	Barraneche	10	Octubre	2023-10-21T00:00:00	2024-11-06T19:00:00	7	Dirección del viento	3.22
56415	7	Sololá	701	Sololá	3	Barraneche	10	Octubre	2023-10-21T00:00:00	2024-11-06T19:00:00	1	Precipitación	3.2
56416	7	Sololá	701	Sololá	3	Barraneche	10	Octubre	2023-10-21T00:00:00	2024-11-06T19:00:00	8	Radiación solar	0
56417	7	Sololá	701	Sololá	3	Barraneche	10	Octubre	2023-10-21T00:00:00	2024-11-06T20:00:00	2	Temperatura media	12.7
56418	7	Sololá	701	Sololá	3	Barraneche	10	Octubre	2023-10-21T00:00:00	2024-11-06T20:00:00	4	Temperatura máxima	12.9
56419	7	Sololá	701	Sololá	3	Barraneche	10	Octubre	2023-10-21T00:00:00	2024-11-06T20:00:00	3	Temperatura mínima	12.4
56420	7	Sololá	701	Sololá	3	Barraneche	10	Octubre	2023-10-21T00:00:00	2024-11-06T20:00:00	5	Humedad	85
56421	7	Sololá	701	Sololá	3	Barraneche	10	Octubre	2023-10-21T00:00:00	2024-11-06T20:00:00	6	Velocidad del viento	1.6
56422	7	Sololá	701	Sololá	3	Barraneche	10	Octubre	2023-10-21T00:00:00	2024-11-06T20:00:00	7	Dirección del viento	1.61
56423	7	Sololá	701	Sololá	3	Barraneche	10	Octubre	2023-10-21T00:00:00	2024-11-06T20:00:00	1	Precipitación	0
56424	7	Sololá	701	Sololá	3	Barraneche	10	Octubre	2023-10-21T00:00:00	2024-11-06T20:00:00	8	Radiación solar	0
56425	7	Sololá	701	Sololá	3	Barraneche	10	Octubre	2023-10-21T00:00:00	2024-11-06T21:00:00	2	Temperatura media	12.8
56426	7	Sololá	701	Sololá	3	Barraneche	10	Octubre	2023-10-21T00:00:00	2024-11-06T21:00:00	4	Temperatura máxima	12.8
56427	7	Sololá	701	Sololá	3	Barraneche	10	Octubre	2023-10-21T00:00:00	2024-11-06T21:00:00	3	Temperatura mínima	12.3
56428	7	Sololá	701	Sololá	3	Barraneche	10	Octubre	2023-10-21T00:00:00	2024-11-06T21:00:00	5	Humedad	81
56429	7	Sololá	701	Sololá	3	Barraneche	10	Octubre	2023-10-21T00:00:00	2024-11-06T21:00:00	6	Velocidad del viento	6.4
56430	7	Sololá	701	Sololá	3	Barraneche	10	Octubre	2023-10-21T00:00:00	2024-11-06T21:00:00	7	Dirección del viento	6.44
56431	7	Sololá	701	Sololá	3	Barraneche	10	Octubre	2023-10-21T00:00:00	2024-11-06T21:00:00	1	Precipitación	0
56432	7	Sololá	701	Sololá	3	Barraneche	10	Octubre	2023-10-21T00:00:00	2024-11-06T21:00:00	8	Radiación solar	0
56433	7	Sololá	701	Sololá	3	Barraneche	10	Octubre	2023-10-21T00:00:00	2024-11-06T22:00:00	2	Temperatura media	13
56434	7	Sololá	701	Sololá	3	Barraneche	10	Octubre	2023-10-21T00:00:00	2024-11-06T22:00:00	4	Temperatura máxima	13
56435	7	Sololá	701	Sololá	3	Barraneche	10	Octubre	2023-10-21T00:00:00	2024-11-06T22:00:00	3	Temperatura mínima	12.7
56436	7	Sololá	701	Sololá	3	Barraneche	10	Octubre	2023-10-21T00:00:00	2024-11-06T22:00:00	5	Humedad	84
56437	7	Sololá	701	Sololá	3	Barraneche	10	Octubre	2023-10-21T00:00:00	2024-11-06T22:00:00	6	Velocidad del viento	1.6
56438	7	Sololá	701	Sololá	3	Barraneche	10	Octubre	2023-10-21T00:00:00	2024-11-06T22:00:00	7	Dirección del viento	1.61
56439	7	Sololá	701	Sololá	3	Barraneche	10	Octubre	2023-10-21T00:00:00	2024-11-06T22:00:00	1	Precipitación	0
56440	7	Sololá	701	Sololá	3	Barraneche	10	Octubre	2023-10-21T00:00:00	2024-11-06T22:00:00	8	Radiación solar	0
56441	7	Sololá	701	Sololá	3	Barraneche	10	Octubre	2023-10-21T00:00:00	2024-11-06T23:00:00	2	Temperatura media	12.7
56442	7	Sololá	701	Sololá	3	Barraneche	10	Octubre	2023-10-21T00:00:00	2024-11-06T23:00:00	4	Temperatura máxima	13
56443	7	Sololá	701	Sololá	3	Barraneche	10	Octubre	2023-10-21T00:00:00	2024-11-06T23:00:00	3	Temperatura mínima	12.7
56444	7	Sololá	701	Sololá	3	Barraneche	10	Octubre	2023-10-21T00:00:00	2024-11-06T23:00:00	5	Humedad	84
56445	7	Sololá	701	Sololá	3	Barraneche	10	Octubre	2023-10-21T00:00:00	2024-11-06T23:00:00	6	Velocidad del viento	1.6
56446	7	Sololá	701	Sololá	3	Barraneche	10	Octubre	2023-10-21T00:00:00	2024-11-06T23:00:00	7	Dirección del viento	1.61
56447	7	Sololá	701	Sololá	3	Barraneche	10	Octubre	2023-10-21T00:00:00	2024-11-06T23:00:00	1	Precipitación	0
56448	7	Sololá	701	Sololá	3	Barraneche	10	Octubre	2023-10-21T00:00:00	2024-11-06T23:00:00	8	Radiación solar	0
56449	7	Sololá	701	Sololá	3	Barraneche	10	Octubre	2023-10-22T00:00:00	2024-11-06T00:00:00	2	Temperatura media	12.8
56450	7	Sololá	701	Sololá	3	Barraneche	10	Octubre	2023-10-22T00:00:00	2024-11-06T00:00:00	4	Temperatura máxima	12.8
56451	7	Sololá	701	Sololá	3	Barraneche	10	Octubre	2023-10-22T00:00:00	2024-11-06T00:00:00	3	Temperatura mínima	12.7
56452	7	Sololá	701	Sololá	3	Barraneche	10	Octubre	2023-10-22T00:00:00	2024-11-06T00:00:00	5	Humedad	84
56453	7	Sololá	701	Sololá	3	Barraneche	10	Octubre	2023-10-22T00:00:00	2024-11-06T00:00:00	6	Velocidad del viento	3.2
56454	7	Sololá	701	Sololá	3	Barraneche	10	Octubre	2023-10-22T00:00:00	2024-11-06T00:00:00	7	Dirección del viento	3.22
56455	7	Sololá	701	Sololá	3	Barraneche	10	Octubre	2023-10-22T00:00:00	2024-11-06T00:00:00	1	Precipitación	0
56456	7	Sololá	701	Sololá	3	Barraneche	10	Octubre	2023-10-22T00:00:00	2024-11-06T00:00:00	8	Radiación solar	0
56457	7	Sololá	701	Sololá	3	Barraneche	10	Octubre	2023-10-22T00:00:00	2024-11-06T01:00:00	2	Temperatura media	12.6
56458	7	Sololá	701	Sololá	3	Barraneche	10	Octubre	2023-10-22T00:00:00	2024-11-06T01:00:00	4	Temperatura máxima	12.8
56459	7	Sololá	701	Sololá	3	Barraneche	10	Octubre	2023-10-22T00:00:00	2024-11-06T01:00:00	3	Temperatura mínima	12.5
56460	7	Sololá	701	Sololá	3	Barraneche	10	Octubre	2023-10-22T00:00:00	2024-11-06T01:00:00	5	Humedad	84
56461	7	Sololá	701	Sololá	3	Barraneche	10	Octubre	2023-10-22T00:00:00	2024-11-06T01:00:00	6	Velocidad del viento	1.6
56462	7	Sololá	701	Sololá	3	Barraneche	10	Octubre	2023-10-22T00:00:00	2024-11-06T01:00:00	7	Dirección del viento	1.61
56463	7	Sololá	701	Sololá	3	Barraneche	10	Octubre	2023-10-22T00:00:00	2024-11-06T01:00:00	1	Precipitación	0
56464	7	Sololá	701	Sololá	3	Barraneche	10	Octubre	2023-10-22T00:00:00	2024-11-06T01:00:00	8	Radiación solar	0
56465	7	Sololá	701	Sololá	3	Barraneche	10	Octubre	2023-10-22T00:00:00	2024-11-06T02:00:00	2	Temperatura media	12.5
56466	7	Sololá	701	Sololá	3	Barraneche	10	Octubre	2023-10-22T00:00:00	2024-11-06T02:00:00	4	Temperatura máxima	12.6
56467	7	Sololá	701	Sololá	3	Barraneche	10	Octubre	2023-10-22T00:00:00	2024-11-06T02:00:00	3	Temperatura mínima	12.4
56468	7	Sololá	701	Sololá	3	Barraneche	10	Octubre	2023-10-22T00:00:00	2024-11-06T02:00:00	5	Humedad	84
56469	7	Sololá	701	Sololá	3	Barraneche	10	Octubre	2023-10-22T00:00:00	2024-11-06T02:00:00	6	Velocidad del viento	3.2
56470	7	Sololá	701	Sololá	3	Barraneche	10	Octubre	2023-10-22T00:00:00	2024-11-06T02:00:00	7	Dirección del viento	3.22
56471	7	Sololá	701	Sololá	3	Barraneche	10	Octubre	2023-10-22T00:00:00	2024-11-06T02:00:00	1	Precipitación	0
56472	7	Sololá	701	Sololá	3	Barraneche	10	Octubre	2023-10-22T00:00:00	2024-11-06T02:00:00	8	Radiación solar	0
56473	7	Sololá	701	Sololá	3	Barraneche	10	Octubre	2023-10-22T00:00:00	2024-11-06T03:00:00	2	Temperatura media	12.5
56474	7	Sololá	701	Sololá	3	Barraneche	10	Octubre	2023-10-22T00:00:00	2024-11-06T03:00:00	4	Temperatura máxima	12.7
56475	7	Sololá	701	Sololá	3	Barraneche	10	Octubre	2023-10-22T00:00:00	2024-11-06T03:00:00	3	Temperatura mínima	12.5
56476	7	Sololá	701	Sololá	3	Barraneche	10	Octubre	2023-10-22T00:00:00	2024-11-06T03:00:00	5	Humedad	84
56477	7	Sololá	701	Sololá	3	Barraneche	10	Octubre	2023-10-22T00:00:00	2024-11-06T03:00:00	6	Velocidad del viento	1.6
56478	7	Sololá	701	Sololá	3	Barraneche	10	Octubre	2023-10-22T00:00:00	2024-11-06T03:00:00	7	Dirección del viento	1.61
56479	7	Sololá	701	Sololá	3	Barraneche	10	Octubre	2023-10-22T00:00:00	2024-11-06T03:00:00	1	Precipitación	0
56480	7	Sololá	701	Sololá	3	Barraneche	10	Octubre	2023-10-22T00:00:00	2024-11-06T03:00:00	8	Radiación solar	0
56481	7	Sololá	701	Sololá	3	Barraneche	10	Octubre	2023-10-22T00:00:00	2024-11-06T04:00:00	2	Temperatura media	12.5
56482	7	Sololá	701	Sololá	3	Barraneche	10	Octubre	2023-10-22T00:00:00	2024-11-06T04:00:00	4	Temperatura máxima	12.6
56483	7	Sololá	701	Sololá	3	Barraneche	10	Octubre	2023-10-22T00:00:00	2024-11-06T04:00:00	3	Temperatura mínima	12.4
56484	7	Sololá	701	Sololá	3	Barraneche	10	Octubre	2023-10-22T00:00:00	2024-11-06T04:00:00	5	Humedad	81
56485	7	Sololá	701	Sololá	3	Barraneche	10	Octubre	2023-10-22T00:00:00	2024-11-06T04:00:00	6	Velocidad del viento	3.2
56486	7	Sololá	701	Sololá	3	Barraneche	10	Octubre	2023-10-22T00:00:00	2024-11-06T04:00:00	7	Dirección del viento	3.22
56487	7	Sololá	701	Sololá	3	Barraneche	10	Octubre	2023-10-22T00:00:00	2024-11-06T04:00:00	1	Precipitación	0
56488	7	Sololá	701	Sololá	3	Barraneche	10	Octubre	2023-10-22T00:00:00	2024-11-06T04:00:00	8	Radiación solar	0
56489	7	Sololá	701	Sololá	3	Barraneche	10	Octubre	2023-10-22T00:00:00	2024-11-06T05:00:00	2	Temperatura media	11.8
56490	7	Sololá	701	Sololá	3	Barraneche	10	Octubre	2023-10-22T00:00:00	2024-11-06T05:00:00	4	Temperatura máxima	12.5
56491	7	Sololá	701	Sololá	3	Barraneche	10	Octubre	2023-10-22T00:00:00	2024-11-06T05:00:00	3	Temperatura mínima	11.8
56492	7	Sololá	701	Sololá	3	Barraneche	10	Octubre	2023-10-22T00:00:00	2024-11-06T05:00:00	5	Humedad	81
56493	7	Sololá	701	Sololá	3	Barraneche	10	Octubre	2023-10-22T00:00:00	2024-11-06T05:00:00	6	Velocidad del viento	3.2
56494	7	Sololá	701	Sololá	3	Barraneche	10	Octubre	2023-10-22T00:00:00	2024-11-06T05:00:00	7	Dirección del viento	3.22
56495	7	Sololá	701	Sololá	3	Barraneche	10	Octubre	2023-10-22T00:00:00	2024-11-06T05:00:00	1	Precipitación	0
56496	7	Sololá	701	Sololá	3	Barraneche	10	Octubre	2023-10-22T00:00:00	2024-11-06T05:00:00	8	Radiación solar	0
56497	7	Sololá	701	Sololá	3	Barraneche	10	Octubre	2023-10-22T00:00:00	2024-11-06T06:00:00	2	Temperatura media	11.3
56498	7	Sololá	701	Sololá	3	Barraneche	10	Octubre	2023-10-22T00:00:00	2024-11-06T06:00:00	4	Temperatura máxima	11.8
56499	7	Sololá	701	Sololá	3	Barraneche	10	Octubre	2023-10-22T00:00:00	2024-11-06T06:00:00	3	Temperatura mínima	11.1
56500	7	Sololá	701	Sololá	3	Barraneche	10	Octubre	2023-10-22T00:00:00	2024-11-06T06:00:00	5	Humedad	80
56501	7	Sololá	701	Sololá	3	Barraneche	10	Octubre	2023-10-22T00:00:00	2024-11-06T06:00:00	6	Velocidad del viento	4.8
56502	7	Sololá	701	Sololá	3	Barraneche	10	Octubre	2023-10-22T00:00:00	2024-11-06T06:00:00	7	Dirección del viento	4.83
56503	7	Sololá	701	Sololá	3	Barraneche	10	Octubre	2023-10-22T00:00:00	2024-11-06T06:00:00	1	Precipitación	0
56504	7	Sololá	701	Sololá	3	Barraneche	10	Octubre	2023-10-22T00:00:00	2024-11-06T06:00:00	8	Radiación solar	0
56505	7	Sololá	701	Sololá	3	Barraneche	10	Octubre	2023-10-22T00:00:00	2024-11-06T07:00:00	2	Temperatura media	12.3
56506	7	Sololá	701	Sololá	3	Barraneche	10	Octubre	2023-10-22T00:00:00	2024-11-06T07:00:00	4	Temperatura máxima	12.3
56507	7	Sololá	701	Sololá	3	Barraneche	10	Octubre	2023-10-22T00:00:00	2024-11-06T07:00:00	3	Temperatura mínima	11.1
56508	7	Sololá	701	Sololá	3	Barraneche	10	Octubre	2023-10-22T00:00:00	2024-11-06T07:00:00	5	Humedad	79
56509	7	Sololá	701	Sololá	3	Barraneche	10	Octubre	2023-10-22T00:00:00	2024-11-06T07:00:00	6	Velocidad del viento	4.8
56510	7	Sololá	701	Sololá	3	Barraneche	10	Octubre	2023-10-22T00:00:00	2024-11-06T07:00:00	7	Dirección del viento	4.83
56511	7	Sololá	701	Sololá	3	Barraneche	10	Octubre	2023-10-22T00:00:00	2024-11-06T07:00:00	1	Precipitación	0
56512	7	Sololá	701	Sololá	3	Barraneche	10	Octubre	2023-10-22T00:00:00	2024-11-06T07:00:00	8	Radiación solar	59
56513	7	Sololá	701	Sololá	3	Barraneche	10	Octubre	2023-10-22T00:00:00	2024-11-06T08:00:00	2	Temperatura media	15.7
56514	7	Sololá	701	Sololá	3	Barraneche	10	Octubre	2023-10-22T00:00:00	2024-11-06T08:00:00	4	Temperatura máxima	15.7
56515	7	Sololá	701	Sololá	3	Barraneche	10	Octubre	2023-10-22T00:00:00	2024-11-06T08:00:00	3	Temperatura mínima	12.3
56516	7	Sololá	701	Sololá	3	Barraneche	10	Octubre	2023-10-22T00:00:00	2024-11-06T08:00:00	5	Humedad	75
56517	7	Sololá	701	Sololá	3	Barraneche	10	Octubre	2023-10-22T00:00:00	2024-11-06T08:00:00	6	Velocidad del viento	3.2
56518	7	Sololá	701	Sololá	3	Barraneche	10	Octubre	2023-10-22T00:00:00	2024-11-06T08:00:00	7	Dirección del viento	3.22
56519	7	Sololá	701	Sololá	3	Barraneche	10	Octubre	2023-10-22T00:00:00	2024-11-06T08:00:00	1	Precipitación	0
56520	7	Sololá	701	Sololá	3	Barraneche	10	Octubre	2023-10-22T00:00:00	2024-11-06T08:00:00	8	Radiación solar	308
56521	7	Sololá	701	Sololá	3	Barraneche	10	Octubre	2023-10-22T00:00:00	2024-11-06T09:00:00	2	Temperatura media	17.8
56522	7	Sololá	701	Sololá	3	Barraneche	10	Octubre	2023-10-22T00:00:00	2024-11-06T09:00:00	4	Temperatura máxima	17.8
56523	7	Sololá	701	Sololá	3	Barraneche	10	Octubre	2023-10-22T00:00:00	2024-11-06T09:00:00	3	Temperatura mínima	15.7
56524	7	Sololá	701	Sololá	3	Barraneche	10	Octubre	2023-10-22T00:00:00	2024-11-06T09:00:00	5	Humedad	67
56525	7	Sololá	701	Sololá	3	Barraneche	10	Octubre	2023-10-22T00:00:00	2024-11-06T09:00:00	6	Velocidad del viento	3.2
56526	7	Sololá	701	Sololá	3	Barraneche	10	Octubre	2023-10-22T00:00:00	2024-11-06T09:00:00	7	Dirección del viento	3.22
56527	7	Sololá	701	Sololá	3	Barraneche	10	Octubre	2023-10-22T00:00:00	2024-11-06T09:00:00	1	Precipitación	0
56528	7	Sololá	701	Sololá	3	Barraneche	10	Octubre	2023-10-22T00:00:00	2024-11-06T09:00:00	8	Radiación solar	536
56529	7	Sololá	701	Sololá	3	Barraneche	10	Octubre	2023-10-22T00:00:00	2024-11-06T10:00:00	2	Temperatura media	19.2
56530	7	Sololá	701	Sololá	3	Barraneche	10	Octubre	2023-10-22T00:00:00	2024-11-06T10:00:00	4	Temperatura máxima	19.2
56531	7	Sololá	701	Sololá	3	Barraneche	10	Octubre	2023-10-22T00:00:00	2024-11-06T10:00:00	3	Temperatura mínima	17.8
56532	7	Sololá	701	Sololá	3	Barraneche	10	Octubre	2023-10-22T00:00:00	2024-11-06T10:00:00	5	Humedad	57
56533	7	Sololá	701	Sololá	3	Barraneche	10	Octubre	2023-10-22T00:00:00	2024-11-06T10:00:00	6	Velocidad del viento	6.4
56534	7	Sololá	701	Sololá	3	Barraneche	10	Octubre	2023-10-22T00:00:00	2024-11-06T10:00:00	7	Dirección del viento	6.44
56535	7	Sololá	701	Sololá	3	Barraneche	10	Octubre	2023-10-22T00:00:00	2024-11-06T10:00:00	1	Precipitación	0
56536	7	Sololá	701	Sololá	3	Barraneche	10	Octubre	2023-10-22T00:00:00	2024-11-06T10:00:00	8	Radiación solar	748
56537	7	Sololá	701	Sololá	3	Barraneche	10	Octubre	2023-10-22T00:00:00	2024-11-06T11:00:00	2	Temperatura media	18.6
56538	7	Sololá	701	Sololá	3	Barraneche	10	Octubre	2023-10-22T00:00:00	2024-11-06T11:00:00	4	Temperatura máxima	19.3
56539	7	Sololá	701	Sololá	3	Barraneche	10	Octubre	2023-10-22T00:00:00	2024-11-06T11:00:00	3	Temperatura mínima	18.6
56540	7	Sololá	701	Sololá	3	Barraneche	10	Octubre	2023-10-22T00:00:00	2024-11-06T11:00:00	5	Humedad	61
56541	7	Sololá	701	Sololá	3	Barraneche	10	Octubre	2023-10-22T00:00:00	2024-11-06T11:00:00	6	Velocidad del viento	12.9
56542	7	Sololá	701	Sololá	3	Barraneche	10	Octubre	2023-10-22T00:00:00	2024-11-06T11:00:00	7	Dirección del viento	12.87
56543	7	Sololá	701	Sololá	3	Barraneche	10	Octubre	2023-10-22T00:00:00	2024-11-06T11:00:00	1	Precipitación	0
56544	7	Sololá	701	Sololá	3	Barraneche	10	Octubre	2023-10-22T00:00:00	2024-11-06T11:00:00	8	Radiación solar	929
56545	7	Sololá	701	Sololá	3	Barraneche	10	Octubre	2023-10-22T00:00:00	2024-11-06T12:00:00	2	Temperatura media	18.2
56546	7	Sololá	701	Sololá	3	Barraneche	10	Octubre	2023-10-22T00:00:00	2024-11-06T12:00:00	4	Temperatura máxima	18.6
56547	7	Sololá	701	Sololá	3	Barraneche	10	Octubre	2023-10-22T00:00:00	2024-11-06T12:00:00	3	Temperatura mínima	17.9
56548	7	Sololá	701	Sololá	3	Barraneche	10	Octubre	2023-10-22T00:00:00	2024-11-06T12:00:00	5	Humedad	67
56549	7	Sololá	701	Sololá	3	Barraneche	10	Octubre	2023-10-22T00:00:00	2024-11-06T12:00:00	6	Velocidad del viento	12.9
56550	7	Sololá	701	Sololá	3	Barraneche	10	Octubre	2023-10-22T00:00:00	2024-11-06T12:00:00	7	Dirección del viento	12.87
56551	7	Sololá	701	Sololá	3	Barraneche	10	Octubre	2023-10-22T00:00:00	2024-11-06T12:00:00	1	Precipitación	0
56552	7	Sololá	701	Sololá	3	Barraneche	10	Octubre	2023-10-22T00:00:00	2024-11-06T12:00:00	8	Radiación solar	1083
56553	7	Sololá	701	Sololá	3	Barraneche	10	Octubre	2023-10-22T00:00:00	2024-11-06T13:00:00	2	Temperatura media	17.9
56554	7	Sololá	701	Sololá	3	Barraneche	10	Octubre	2023-10-22T00:00:00	2024-11-06T13:00:00	4	Temperatura máxima	18.4
56555	7	Sololá	701	Sololá	3	Barraneche	10	Octubre	2023-10-22T00:00:00	2024-11-06T13:00:00	3	Temperatura mínima	17.7
56556	7	Sololá	701	Sololá	3	Barraneche	10	Octubre	2023-10-22T00:00:00	2024-11-06T13:00:00	5	Humedad	70
56557	7	Sololá	701	Sololá	3	Barraneche	10	Octubre	2023-10-22T00:00:00	2024-11-06T13:00:00	6	Velocidad del viento	11.3
56558	7	Sololá	701	Sololá	3	Barraneche	10	Octubre	2023-10-22T00:00:00	2024-11-06T13:00:00	7	Dirección del viento	11.27
56559	7	Sololá	701	Sololá	3	Barraneche	10	Octubre	2023-10-22T00:00:00	2024-11-06T13:00:00	1	Precipitación	0
56560	7	Sololá	701	Sololá	3	Barraneche	10	Octubre	2023-10-22T00:00:00	2024-11-06T13:00:00	8	Radiación solar	561
56561	7	Sololá	701	Sololá	3	Barraneche	10	Octubre	2023-10-22T00:00:00	2024-11-06T14:00:00	2	Temperatura media	16.7
56562	7	Sololá	701	Sololá	3	Barraneche	10	Octubre	2023-10-22T00:00:00	2024-11-06T14:00:00	4	Temperatura máxima	17.9
56563	7	Sololá	701	Sololá	3	Barraneche	10	Octubre	2023-10-22T00:00:00	2024-11-06T14:00:00	3	Temperatura mínima	16.7
56564	7	Sololá	701	Sololá	3	Barraneche	10	Octubre	2023-10-22T00:00:00	2024-11-06T14:00:00	5	Humedad	74
56565	7	Sololá	701	Sololá	3	Barraneche	10	Octubre	2023-10-22T00:00:00	2024-11-06T14:00:00	6	Velocidad del viento	8
56566	7	Sololá	701	Sololá	3	Barraneche	10	Octubre	2023-10-22T00:00:00	2024-11-06T14:00:00	7	Dirección del viento	8.05
56567	7	Sololá	701	Sololá	3	Barraneche	10	Octubre	2023-10-22T00:00:00	2024-11-06T14:00:00	1	Precipitación	0
56568	7	Sololá	701	Sololá	3	Barraneche	10	Octubre	2023-10-22T00:00:00	2024-11-06T14:00:00	8	Radiación solar	162
56569	7	Sololá	701	Sololá	3	Barraneche	10	Octubre	2023-10-22T00:00:00	2024-11-06T15:00:00	2	Temperatura media	16
56570	7	Sololá	701	Sololá	3	Barraneche	10	Octubre	2023-10-22T00:00:00	2024-11-06T15:00:00	4	Temperatura máxima	16.7
56571	7	Sololá	701	Sololá	3	Barraneche	10	Octubre	2023-10-22T00:00:00	2024-11-06T15:00:00	3	Temperatura mínima	15.9
56572	7	Sololá	701	Sololá	3	Barraneche	10	Octubre	2023-10-22T00:00:00	2024-11-06T15:00:00	5	Humedad	77
56573	7	Sololá	701	Sololá	3	Barraneche	10	Octubre	2023-10-22T00:00:00	2024-11-06T15:00:00	6	Velocidad del viento	6.4
56574	7	Sololá	701	Sololá	3	Barraneche	10	Octubre	2023-10-22T00:00:00	2024-11-06T15:00:00	7	Dirección del viento	6.44
56575	7	Sololá	701	Sololá	3	Barraneche	10	Octubre	2023-10-22T00:00:00	2024-11-06T15:00:00	1	Precipitación	0
56576	7	Sololá	701	Sololá	3	Barraneche	10	Octubre	2023-10-22T00:00:00	2024-11-06T15:00:00	8	Radiación solar	184
56577	7	Sololá	701	Sololá	3	Barraneche	10	Octubre	2023-10-22T00:00:00	2024-11-06T16:00:00	2	Temperatura media	16.1
56578	7	Sololá	701	Sololá	3	Barraneche	10	Octubre	2023-10-22T00:00:00	2024-11-06T16:00:00	4	Temperatura máxima	16.1
56579	7	Sololá	701	Sololá	3	Barraneche	10	Octubre	2023-10-22T00:00:00	2024-11-06T16:00:00	3	Temperatura mínima	15.4
56580	7	Sololá	701	Sololá	3	Barraneche	10	Octubre	2023-10-22T00:00:00	2024-11-06T16:00:00	5	Humedad	78
56581	7	Sololá	701	Sololá	3	Barraneche	10	Octubre	2023-10-22T00:00:00	2024-11-06T16:00:00	6	Velocidad del viento	3.2
56582	7	Sololá	701	Sololá	3	Barraneche	10	Octubre	2023-10-22T00:00:00	2024-11-06T16:00:00	7	Dirección del viento	3.22
56583	7	Sololá	701	Sololá	3	Barraneche	10	Octubre	2023-10-22T00:00:00	2024-11-06T16:00:00	1	Precipitación	0.4
56584	7	Sololá	701	Sololá	3	Barraneche	10	Octubre	2023-10-22T00:00:00	2024-11-06T16:00:00	8	Radiación solar	140
56585	7	Sololá	701	Sololá	3	Barraneche	10	Octubre	2023-10-22T00:00:00	2024-11-06T17:00:00	2	Temperatura media	16.2
56586	7	Sololá	701	Sololá	3	Barraneche	10	Octubre	2023-10-22T00:00:00	2024-11-06T17:00:00	4	Temperatura máxima	16.6
56587	7	Sololá	701	Sololá	3	Barraneche	10	Octubre	2023-10-22T00:00:00	2024-11-06T17:00:00	3	Temperatura mínima	16
56588	7	Sololá	701	Sololá	3	Barraneche	10	Octubre	2023-10-22T00:00:00	2024-11-06T17:00:00	5	Humedad	71
56589	7	Sololá	701	Sololá	3	Barraneche	10	Octubre	2023-10-22T00:00:00	2024-11-06T17:00:00	6	Velocidad del viento	3.2
56590	7	Sololá	701	Sololá	3	Barraneche	10	Octubre	2023-10-22T00:00:00	2024-11-06T17:00:00	7	Dirección del viento	3.22
56591	7	Sololá	701	Sololá	3	Barraneche	10	Octubre	2023-10-22T00:00:00	2024-11-06T17:00:00	1	Precipitación	0
56592	7	Sololá	701	Sololá	3	Barraneche	10	Octubre	2023-10-22T00:00:00	2024-11-06T17:00:00	8	Radiación solar	121
56593	7	Sololá	701	Sololá	3	Barraneche	10	Octubre	2023-10-22T00:00:00	2024-11-06T18:00:00	2	Temperatura media	14.3
56594	7	Sololá	701	Sololá	3	Barraneche	10	Octubre	2023-10-22T00:00:00	2024-11-06T18:00:00	4	Temperatura máxima	16.2
56595	7	Sololá	701	Sololá	3	Barraneche	10	Octubre	2023-10-22T00:00:00	2024-11-06T18:00:00	3	Temperatura mínima	14.3
56596	7	Sololá	701	Sololá	3	Barraneche	10	Octubre	2023-10-22T00:00:00	2024-11-06T18:00:00	5	Humedad	76
56597	7	Sololá	701	Sololá	3	Barraneche	10	Octubre	2023-10-22T00:00:00	2024-11-06T18:00:00	6	Velocidad del viento	6.4
56598	7	Sololá	701	Sololá	3	Barraneche	10	Octubre	2023-10-22T00:00:00	2024-11-06T18:00:00	7	Dirección del viento	6.44
56599	7	Sololá	701	Sololá	3	Barraneche	10	Octubre	2023-10-22T00:00:00	2024-11-06T18:00:00	1	Precipitación	0
56600	7	Sololá	701	Sololá	3	Barraneche	10	Octubre	2023-10-22T00:00:00	2024-11-06T18:00:00	8	Radiación solar	4
56601	7	Sololá	701	Sololá	3	Barraneche	10	Octubre	2023-10-22T00:00:00	2024-11-06T19:00:00	2	Temperatura media	13.6
56602	7	Sololá	701	Sololá	3	Barraneche	10	Octubre	2023-10-22T00:00:00	2024-11-06T19:00:00	4	Temperatura máxima	14.3
56603	7	Sololá	701	Sololá	3	Barraneche	10	Octubre	2023-10-22T00:00:00	2024-11-06T19:00:00	3	Temperatura mínima	13.6
56604	7	Sololá	701	Sololá	3	Barraneche	10	Octubre	2023-10-22T00:00:00	2024-11-06T19:00:00	5	Humedad	78
56605	7	Sololá	701	Sololá	3	Barraneche	10	Octubre	2023-10-22T00:00:00	2024-11-06T19:00:00	6	Velocidad del viento	3.2
56606	7	Sololá	701	Sololá	3	Barraneche	10	Octubre	2023-10-22T00:00:00	2024-11-06T19:00:00	7	Dirección del viento	3.22
56607	7	Sololá	701	Sololá	3	Barraneche	10	Octubre	2023-10-22T00:00:00	2024-11-06T19:00:00	1	Precipitación	0.8
56608	7	Sololá	701	Sololá	3	Barraneche	10	Octubre	2023-10-22T00:00:00	2024-11-06T19:00:00	8	Radiación solar	0
56609	7	Sololá	701	Sololá	3	Barraneche	10	Octubre	2023-10-22T00:00:00	2024-11-06T20:00:00	2	Temperatura media	13.1
56610	7	Sololá	701	Sololá	3	Barraneche	10	Octubre	2023-10-22T00:00:00	2024-11-06T20:00:00	4	Temperatura máxima	13.7
56611	7	Sololá	701	Sololá	3	Barraneche	10	Octubre	2023-10-22T00:00:00	2024-11-06T20:00:00	3	Temperatura mínima	13.1
56612	7	Sololá	701	Sololá	3	Barraneche	10	Octubre	2023-10-22T00:00:00	2024-11-06T20:00:00	5	Humedad	82
56613	7	Sololá	701	Sololá	3	Barraneche	10	Octubre	2023-10-22T00:00:00	2024-11-06T20:00:00	6	Velocidad del viento	1.6
56614	7	Sololá	701	Sololá	3	Barraneche	10	Octubre	2023-10-22T00:00:00	2024-11-06T20:00:00	7	Dirección del viento	1.61
56615	7	Sololá	701	Sololá	3	Barraneche	10	Octubre	2023-10-22T00:00:00	2024-11-06T20:00:00	1	Precipitación	0.6
56616	7	Sololá	701	Sololá	3	Barraneche	10	Octubre	2023-10-22T00:00:00	2024-11-06T20:00:00	8	Radiación solar	0
56617	7	Sololá	701	Sololá	3	Barraneche	10	Octubre	2023-10-22T00:00:00	2024-11-06T21:00:00	2	Temperatura media	13.2
56618	7	Sololá	701	Sololá	3	Barraneche	10	Octubre	2023-10-22T00:00:00	2024-11-06T21:00:00	4	Temperatura máxima	13.3
56619	7	Sololá	701	Sololá	3	Barraneche	10	Octubre	2023-10-22T00:00:00	2024-11-06T21:00:00	3	Temperatura mínima	12.9
56620	7	Sololá	701	Sololá	3	Barraneche	10	Octubre	2023-10-22T00:00:00	2024-11-06T21:00:00	5	Humedad	82
56621	7	Sololá	701	Sololá	3	Barraneche	10	Octubre	2023-10-22T00:00:00	2024-11-06T21:00:00	6	Velocidad del viento	3.2
56622	7	Sololá	701	Sololá	3	Barraneche	10	Octubre	2023-10-22T00:00:00	2024-11-06T21:00:00	7	Dirección del viento	3.22
56623	7	Sololá	701	Sololá	3	Barraneche	10	Octubre	2023-10-22T00:00:00	2024-11-06T21:00:00	1	Precipitación	0
56624	7	Sololá	701	Sololá	3	Barraneche	10	Octubre	2023-10-22T00:00:00	2024-11-06T21:00:00	8	Radiación solar	0
56625	7	Sololá	701	Sololá	3	Barraneche	10	Octubre	2023-10-22T00:00:00	2024-11-06T22:00:00	2	Temperatura media	13
56626	7	Sololá	701	Sololá	3	Barraneche	10	Octubre	2023-10-22T00:00:00	2024-11-06T22:00:00	4	Temperatura máxima	13.2
56627	7	Sololá	701	Sololá	3	Barraneche	10	Octubre	2023-10-22T00:00:00	2024-11-06T22:00:00	3	Temperatura mínima	12.9
56628	7	Sololá	701	Sololá	3	Barraneche	10	Octubre	2023-10-22T00:00:00	2024-11-06T22:00:00	5	Humedad	83
56629	7	Sololá	701	Sololá	3	Barraneche	10	Octubre	2023-10-22T00:00:00	2024-11-06T22:00:00	6	Velocidad del viento	1.6
56630	7	Sololá	701	Sololá	3	Barraneche	10	Octubre	2023-10-22T00:00:00	2024-11-06T22:00:00	7	Dirección del viento	1.61
56631	7	Sololá	701	Sololá	3	Barraneche	10	Octubre	2023-10-22T00:00:00	2024-11-06T22:00:00	1	Precipitación	0
56632	7	Sololá	701	Sololá	3	Barraneche	10	Octubre	2023-10-22T00:00:00	2024-11-06T22:00:00	8	Radiación solar	0
56633	7	Sololá	701	Sololá	3	Barraneche	10	Octubre	2023-10-22T00:00:00	2024-11-06T23:00:00	2	Temperatura media	12.8
56634	7	Sololá	701	Sololá	3	Barraneche	10	Octubre	2023-10-22T00:00:00	2024-11-06T23:00:00	4	Temperatura máxima	13
56635	7	Sololá	701	Sololá	3	Barraneche	10	Octubre	2023-10-22T00:00:00	2024-11-06T23:00:00	3	Temperatura mínima	12.7
56636	7	Sololá	701	Sololá	3	Barraneche	10	Octubre	2023-10-22T00:00:00	2024-11-06T23:00:00	5	Humedad	83
56637	7	Sololá	701	Sololá	3	Barraneche	10	Octubre	2023-10-22T00:00:00	2024-11-06T23:00:00	6	Velocidad del viento	3.2
56638	7	Sololá	701	Sololá	3	Barraneche	10	Octubre	2023-10-22T00:00:00	2024-11-06T23:00:00	7	Dirección del viento	3.22
56639	7	Sololá	701	Sololá	3	Barraneche	10	Octubre	2023-10-22T00:00:00	2024-11-06T23:00:00	1	Precipitación	0
56640	7	Sololá	701	Sololá	3	Barraneche	10	Octubre	2023-10-22T00:00:00	2024-11-06T23:00:00	8	Radiación solar	0
56641	7	Sololá	701	Sololá	3	Barraneche	10	Octubre	2023-10-23T00:00:00	2024-11-06T00:00:00	2	Temperatura media	11.9
56642	7	Sololá	701	Sololá	3	Barraneche	10	Octubre	2023-10-23T00:00:00	2024-11-06T00:00:00	4	Temperatura máxima	12.8
56643	7	Sololá	701	Sololá	3	Barraneche	10	Octubre	2023-10-23T00:00:00	2024-11-06T00:00:00	3	Temperatura mínima	11.9
56644	7	Sololá	701	Sololá	3	Barraneche	10	Octubre	2023-10-23T00:00:00	2024-11-06T00:00:00	5	Humedad	81
56645	7	Sololá	701	Sololá	3	Barraneche	10	Octubre	2023-10-23T00:00:00	2024-11-06T00:00:00	6	Velocidad del viento	3.2
56646	7	Sololá	701	Sololá	3	Barraneche	10	Octubre	2023-10-23T00:00:00	2024-11-06T00:00:00	7	Dirección del viento	3.22
56647	7	Sololá	701	Sololá	3	Barraneche	10	Octubre	2023-10-23T00:00:00	2024-11-06T00:00:00	1	Precipitación	0
56648	7	Sololá	701	Sololá	3	Barraneche	10	Octubre	2023-10-23T00:00:00	2024-11-06T00:00:00	8	Radiación solar	0
56649	7	Sololá	701	Sololá	3	Barraneche	10	Octubre	2023-10-23T00:00:00	2024-11-06T01:00:00	2	Temperatura media	11.7
56650	7	Sololá	701	Sololá	3	Barraneche	10	Octubre	2023-10-23T00:00:00	2024-11-06T01:00:00	4	Temperatura máxima	11.9
56651	7	Sololá	701	Sololá	3	Barraneche	10	Octubre	2023-10-23T00:00:00	2024-11-06T01:00:00	3	Temperatura mínima	11.5
56652	7	Sololá	701	Sololá	3	Barraneche	10	Octubre	2023-10-23T00:00:00	2024-11-06T01:00:00	5	Humedad	82
56653	7	Sololá	701	Sololá	3	Barraneche	10	Octubre	2023-10-23T00:00:00	2024-11-06T01:00:00	6	Velocidad del viento	3.2
56654	7	Sololá	701	Sololá	3	Barraneche	10	Octubre	2023-10-23T00:00:00	2024-11-06T01:00:00	7	Dirección del viento	3.22
56655	7	Sololá	701	Sololá	3	Barraneche	10	Octubre	2023-10-23T00:00:00	2024-11-06T01:00:00	1	Precipitación	0
56656	7	Sololá	701	Sololá	3	Barraneche	10	Octubre	2023-10-23T00:00:00	2024-11-06T01:00:00	8	Radiación solar	0
56657	7	Sololá	701	Sololá	3	Barraneche	10	Octubre	2023-10-23T00:00:00	2024-11-06T02:00:00	2	Temperatura media	11.3
56658	7	Sololá	701	Sololá	3	Barraneche	10	Octubre	2023-10-23T00:00:00	2024-11-06T02:00:00	4	Temperatura máxima	11.8
56659	7	Sololá	701	Sololá	3	Barraneche	10	Octubre	2023-10-23T00:00:00	2024-11-06T02:00:00	3	Temperatura mínima	11.3
56660	7	Sololá	701	Sololá	3	Barraneche	10	Octubre	2023-10-23T00:00:00	2024-11-06T02:00:00	5	Humedad	82
56661	7	Sololá	701	Sololá	3	Barraneche	10	Octubre	2023-10-23T00:00:00	2024-11-06T02:00:00	6	Velocidad del viento	4.8
56662	7	Sololá	701	Sololá	3	Barraneche	10	Octubre	2023-10-23T00:00:00	2024-11-06T02:00:00	7	Dirección del viento	4.83
56663	7	Sololá	701	Sololá	3	Barraneche	10	Octubre	2023-10-23T00:00:00	2024-11-06T02:00:00	1	Precipitación	0
56664	7	Sololá	701	Sololá	3	Barraneche	10	Octubre	2023-10-23T00:00:00	2024-11-06T02:00:00	8	Radiación solar	0
56665	7	Sololá	701	Sololá	3	Barraneche	10	Octubre	2023-10-23T00:00:00	2024-11-06T03:00:00	2	Temperatura media	11
56666	7	Sololá	701	Sololá	3	Barraneche	10	Octubre	2023-10-23T00:00:00	2024-11-06T03:00:00	4	Temperatura máxima	11.4
56667	7	Sololá	701	Sololá	3	Barraneche	10	Octubre	2023-10-23T00:00:00	2024-11-06T03:00:00	3	Temperatura mínima	10.8
56668	7	Sololá	701	Sololá	3	Barraneche	10	Octubre	2023-10-23T00:00:00	2024-11-06T03:00:00	5	Humedad	82
56669	7	Sololá	701	Sololá	3	Barraneche	10	Octubre	2023-10-23T00:00:00	2024-11-06T03:00:00	6	Velocidad del viento	3.2
56670	7	Sololá	701	Sololá	3	Barraneche	10	Octubre	2023-10-23T00:00:00	2024-11-06T03:00:00	7	Dirección del viento	3.22
56671	7	Sololá	701	Sololá	3	Barraneche	10	Octubre	2023-10-23T00:00:00	2024-11-06T03:00:00	1	Precipitación	0
56672	7	Sololá	701	Sololá	3	Barraneche	10	Octubre	2023-10-23T00:00:00	2024-11-06T03:00:00	8	Radiación solar	0
56673	7	Sololá	701	Sololá	3	Barraneche	10	Octubre	2023-10-23T00:00:00	2024-11-06T04:00:00	2	Temperatura media	10.8
56674	7	Sololá	701	Sololá	3	Barraneche	10	Octubre	2023-10-23T00:00:00	2024-11-06T04:00:00	4	Temperatura máxima	11.1
56675	7	Sololá	701	Sololá	3	Barraneche	10	Octubre	2023-10-23T00:00:00	2024-11-06T04:00:00	3	Temperatura mínima	10.7
56676	7	Sololá	701	Sololá	3	Barraneche	10	Octubre	2023-10-23T00:00:00	2024-11-06T04:00:00	5	Humedad	83
56677	7	Sololá	701	Sololá	3	Barraneche	10	Octubre	2023-10-23T00:00:00	2024-11-06T04:00:00	6	Velocidad del viento	3.2
56678	7	Sololá	701	Sololá	3	Barraneche	10	Octubre	2023-10-23T00:00:00	2024-11-06T04:00:00	7	Dirección del viento	3.22
56679	7	Sololá	701	Sololá	3	Barraneche	10	Octubre	2023-10-23T00:00:00	2024-11-06T04:00:00	1	Precipitación	0
56680	7	Sololá	701	Sololá	3	Barraneche	10	Octubre	2023-10-23T00:00:00	2024-11-06T04:00:00	8	Radiación solar	0
56681	7	Sololá	701	Sololá	3	Barraneche	10	Octubre	2023-10-23T00:00:00	2024-11-06T05:00:00	2	Temperatura media	10.9
56682	7	Sololá	701	Sololá	3	Barraneche	10	Octubre	2023-10-23T00:00:00	2024-11-06T05:00:00	4	Temperatura máxima	10.9
56683	7	Sololá	701	Sololá	3	Barraneche	10	Octubre	2023-10-23T00:00:00	2024-11-06T05:00:00	3	Temperatura mínima	10.7
56684	7	Sololá	701	Sololá	3	Barraneche	10	Octubre	2023-10-23T00:00:00	2024-11-06T05:00:00	5	Humedad	83
56685	7	Sololá	701	Sololá	3	Barraneche	10	Octubre	2023-10-23T00:00:00	2024-11-06T05:00:00	6	Velocidad del viento	3.2
56686	7	Sololá	701	Sololá	3	Barraneche	10	Octubre	2023-10-23T00:00:00	2024-11-06T05:00:00	7	Dirección del viento	3.22
56687	7	Sololá	701	Sololá	3	Barraneche	10	Octubre	2023-10-23T00:00:00	2024-11-06T05:00:00	1	Precipitación	0
56688	7	Sololá	701	Sololá	3	Barraneche	10	Octubre	2023-10-23T00:00:00	2024-11-06T05:00:00	8	Radiación solar	0
56689	7	Sololá	701	Sololá	3	Barraneche	10	Octubre	2023-10-23T00:00:00	2024-11-06T06:00:00	2	Temperatura media	10.9
56690	7	Sololá	701	Sololá	3	Barraneche	10	Octubre	2023-10-23T00:00:00	2024-11-06T06:00:00	4	Temperatura máxima	11.1
56691	7	Sololá	701	Sololá	3	Barraneche	10	Octubre	2023-10-23T00:00:00	2024-11-06T06:00:00	3	Temperatura mínima	10.7
56692	7	Sololá	701	Sololá	3	Barraneche	10	Octubre	2023-10-23T00:00:00	2024-11-06T06:00:00	5	Humedad	82
56693	7	Sololá	701	Sololá	3	Barraneche	10	Octubre	2023-10-23T00:00:00	2024-11-06T06:00:00	6	Velocidad del viento	4.8
56694	7	Sololá	701	Sololá	3	Barraneche	10	Octubre	2023-10-23T00:00:00	2024-11-06T06:00:00	7	Dirección del viento	4.83
56695	7	Sololá	701	Sololá	3	Barraneche	10	Octubre	2023-10-23T00:00:00	2024-11-06T06:00:00	1	Precipitación	0
56696	7	Sololá	701	Sololá	3	Barraneche	10	Octubre	2023-10-23T00:00:00	2024-11-06T06:00:00	8	Radiación solar	0
56697	7	Sololá	701	Sololá	3	Barraneche	10	Octubre	2023-10-23T00:00:00	2024-11-06T07:00:00	2	Temperatura media	12.1
56698	7	Sololá	701	Sololá	3	Barraneche	10	Octubre	2023-10-23T00:00:00	2024-11-06T07:00:00	4	Temperatura máxima	12.1
56699	7	Sololá	701	Sololá	3	Barraneche	10	Octubre	2023-10-23T00:00:00	2024-11-06T07:00:00	3	Temperatura mínima	10.9
56700	7	Sololá	701	Sololá	3	Barraneche	10	Octubre	2023-10-23T00:00:00	2024-11-06T07:00:00	5	Humedad	81
56701	7	Sololá	701	Sololá	3	Barraneche	10	Octubre	2023-10-23T00:00:00	2024-11-06T07:00:00	6	Velocidad del viento	4.8
56702	7	Sololá	701	Sololá	3	Barraneche	10	Octubre	2023-10-23T00:00:00	2024-11-06T07:00:00	7	Dirección del viento	4.83
56703	7	Sololá	701	Sololá	3	Barraneche	10	Octubre	2023-10-23T00:00:00	2024-11-06T07:00:00	1	Precipitación	0
56704	7	Sololá	701	Sololá	3	Barraneche	10	Octubre	2023-10-23T00:00:00	2024-11-06T07:00:00	8	Radiación solar	47
56705	7	Sololá	701	Sololá	3	Barraneche	10	Octubre	2023-10-23T00:00:00	2024-11-06T08:00:00	2	Temperatura media	16.3
56706	7	Sololá	701	Sololá	3	Barraneche	10	Octubre	2023-10-23T00:00:00	2024-11-06T08:00:00	4	Temperatura máxima	16.3
56707	7	Sololá	701	Sololá	3	Barraneche	10	Octubre	2023-10-23T00:00:00	2024-11-06T08:00:00	3	Temperatura mínima	12.1
56708	7	Sololá	701	Sololá	3	Barraneche	10	Octubre	2023-10-23T00:00:00	2024-11-06T08:00:00	5	Humedad	70
56709	7	Sololá	701	Sololá	3	Barraneche	10	Octubre	2023-10-23T00:00:00	2024-11-06T08:00:00	6	Velocidad del viento	3.2
56710	7	Sololá	701	Sololá	3	Barraneche	10	Octubre	2023-10-23T00:00:00	2024-11-06T08:00:00	7	Dirección del viento	3.22
56711	7	Sololá	701	Sololá	3	Barraneche	10	Octubre	2023-10-23T00:00:00	2024-11-06T08:00:00	1	Precipitación	0
56712	7	Sololá	701	Sololá	3	Barraneche	10	Octubre	2023-10-23T00:00:00	2024-11-06T08:00:00	8	Radiación solar	311
56713	7	Sololá	701	Sololá	3	Barraneche	10	Octubre	2023-10-23T00:00:00	2024-11-06T09:00:00	2	Temperatura media	17.6
56714	7	Sololá	701	Sololá	3	Barraneche	10	Octubre	2023-10-23T00:00:00	2024-11-06T09:00:00	4	Temperatura máxima	17.6
56715	7	Sololá	701	Sololá	3	Barraneche	10	Octubre	2023-10-23T00:00:00	2024-11-06T09:00:00	3	Temperatura mínima	16.3
56716	7	Sololá	701	Sololá	3	Barraneche	10	Octubre	2023-10-23T00:00:00	2024-11-06T09:00:00	5	Humedad	64
56717	7	Sololá	701	Sololá	3	Barraneche	10	Octubre	2023-10-23T00:00:00	2024-11-06T09:00:00	6	Velocidad del viento	4.8
56718	7	Sololá	701	Sololá	3	Barraneche	10	Octubre	2023-10-23T00:00:00	2024-11-06T09:00:00	7	Dirección del viento	4.83
56719	7	Sololá	701	Sololá	3	Barraneche	10	Octubre	2023-10-23T00:00:00	2024-11-06T09:00:00	1	Precipitación	0
56720	7	Sololá	701	Sololá	3	Barraneche	10	Octubre	2023-10-23T00:00:00	2024-11-06T09:00:00	8	Radiación solar	589
56721	7	Sololá	701	Sololá	3	Barraneche	10	Octubre	2023-10-23T00:00:00	2024-11-06T10:00:00	2	Temperatura media	18
56722	7	Sololá	701	Sololá	3	Barraneche	10	Octubre	2023-10-23T00:00:00	2024-11-06T10:00:00	4	Temperatura máxima	18.1
56723	7	Sololá	701	Sololá	3	Barraneche	10	Octubre	2023-10-23T00:00:00	2024-11-06T10:00:00	3	Temperatura mínima	16.9
56724	7	Sololá	701	Sololá	3	Barraneche	10	Octubre	2023-10-23T00:00:00	2024-11-06T10:00:00	5	Humedad	67
56725	7	Sololá	701	Sololá	3	Barraneche	10	Octubre	2023-10-23T00:00:00	2024-11-06T10:00:00	6	Velocidad del viento	8
56726	7	Sololá	701	Sololá	3	Barraneche	10	Octubre	2023-10-23T00:00:00	2024-11-06T10:00:00	7	Dirección del viento	8.05
56727	7	Sololá	701	Sololá	3	Barraneche	10	Octubre	2023-10-23T00:00:00	2024-11-06T10:00:00	1	Precipitación	0
56728	7	Sololá	701	Sololá	3	Barraneche	10	Octubre	2023-10-23T00:00:00	2024-11-06T10:00:00	8	Radiación solar	685
56729	7	Sololá	701	Sololá	3	Barraneche	10	Octubre	2023-10-23T00:00:00	2024-11-06T11:00:00	2	Temperatura media	18.6
56730	7	Sololá	701	Sololá	3	Barraneche	10	Octubre	2023-10-23T00:00:00	2024-11-06T11:00:00	4	Temperatura máxima	18.7
56731	7	Sololá	701	Sololá	3	Barraneche	10	Octubre	2023-10-23T00:00:00	2024-11-06T11:00:00	3	Temperatura mínima	18
56732	7	Sololá	701	Sololá	3	Barraneche	10	Octubre	2023-10-23T00:00:00	2024-11-06T11:00:00	5	Humedad	60
56733	7	Sololá	701	Sololá	3	Barraneche	10	Octubre	2023-10-23T00:00:00	2024-11-06T11:00:00	6	Velocidad del viento	8
56734	7	Sololá	701	Sololá	3	Barraneche	10	Octubre	2023-10-23T00:00:00	2024-11-06T11:00:00	7	Dirección del viento	8.05
56735	7	Sololá	701	Sololá	3	Barraneche	10	Octubre	2023-10-23T00:00:00	2024-11-06T11:00:00	1	Precipitación	0.2
56736	7	Sololá	701	Sololá	3	Barraneche	10	Octubre	2023-10-23T00:00:00	2024-11-06T11:00:00	8	Radiación solar	957
56737	7	Sololá	701	Sololá	3	Barraneche	10	Octubre	2023-10-23T00:00:00	2024-11-06T12:00:00	2	Temperatura media	19.4
56738	7	Sololá	701	Sololá	3	Barraneche	10	Octubre	2023-10-23T00:00:00	2024-11-06T12:00:00	4	Temperatura máxima	19.6
56739	7	Sololá	701	Sololá	3	Barraneche	10	Octubre	2023-10-23T00:00:00	2024-11-06T12:00:00	3	Temperatura mínima	18.7
56740	7	Sololá	701	Sololá	3	Barraneche	10	Octubre	2023-10-23T00:00:00	2024-11-06T12:00:00	5	Humedad	55
56741	7	Sololá	701	Sololá	3	Barraneche	10	Octubre	2023-10-23T00:00:00	2024-11-06T12:00:00	6	Velocidad del viento	9.7
56742	7	Sololá	701	Sololá	3	Barraneche	10	Octubre	2023-10-23T00:00:00	2024-11-06T12:00:00	7	Dirección del viento	9.66
56743	7	Sololá	701	Sololá	3	Barraneche	10	Octubre	2023-10-23T00:00:00	2024-11-06T12:00:00	1	Precipitación	0
56744	7	Sololá	701	Sololá	3	Barraneche	10	Octubre	2023-10-23T00:00:00	2024-11-06T12:00:00	8	Radiación solar	993
56745	7	Sololá	701	Sololá	3	Barraneche	10	Octubre	2023-10-23T00:00:00	2024-11-06T13:00:00	2	Temperatura media	19.4
56746	7	Sololá	701	Sololá	3	Barraneche	10	Octubre	2023-10-23T00:00:00	2024-11-06T13:00:00	4	Temperatura máxima	19.6
56747	7	Sololá	701	Sololá	3	Barraneche	10	Octubre	2023-10-23T00:00:00	2024-11-06T13:00:00	3	Temperatura mínima	19.1
56748	7	Sololá	701	Sololá	3	Barraneche	10	Octubre	2023-10-23T00:00:00	2024-11-06T13:00:00	5	Humedad	63
56749	7	Sololá	701	Sololá	3	Barraneche	10	Octubre	2023-10-23T00:00:00	2024-11-06T13:00:00	6	Velocidad del viento	11.3
56750	7	Sololá	701	Sololá	3	Barraneche	10	Octubre	2023-10-23T00:00:00	2024-11-06T13:00:00	7	Dirección del viento	11.27
56751	7	Sololá	701	Sololá	3	Barraneche	10	Octubre	2023-10-23T00:00:00	2024-11-06T13:00:00	1	Precipitación	0
56752	7	Sololá	701	Sololá	3	Barraneche	10	Octubre	2023-10-23T00:00:00	2024-11-06T13:00:00	8	Radiación solar	953
56753	7	Sololá	701	Sololá	3	Barraneche	10	Octubre	2023-10-23T00:00:00	2024-11-06T14:00:00	2	Temperatura media	18.2
56754	7	Sololá	701	Sololá	3	Barraneche	10	Octubre	2023-10-23T00:00:00	2024-11-06T14:00:00	4	Temperatura máxima	19.4
56755	7	Sololá	701	Sololá	3	Barraneche	10	Octubre	2023-10-23T00:00:00	2024-11-06T14:00:00	3	Temperatura mínima	18.1
56756	7	Sololá	701	Sololá	3	Barraneche	10	Octubre	2023-10-23T00:00:00	2024-11-06T14:00:00	5	Humedad	69
56757	7	Sololá	701	Sololá	3	Barraneche	10	Octubre	2023-10-23T00:00:00	2024-11-06T14:00:00	6	Velocidad del viento	14.5
56758	7	Sololá	701	Sololá	3	Barraneche	10	Octubre	2023-10-23T00:00:00	2024-11-06T14:00:00	7	Dirección del viento	14.48
56759	7	Sololá	701	Sololá	3	Barraneche	10	Octubre	2023-10-23T00:00:00	2024-11-06T14:00:00	1	Precipitación	0
56760	7	Sololá	701	Sololá	3	Barraneche	10	Octubre	2023-10-23T00:00:00	2024-11-06T14:00:00	8	Radiación solar	923
56761	7	Sololá	701	Sololá	3	Barraneche	10	Octubre	2023-10-23T00:00:00	2024-11-06T15:00:00	2	Temperatura media	17.9
56762	7	Sololá	701	Sololá	3	Barraneche	10	Octubre	2023-10-23T00:00:00	2024-11-06T15:00:00	4	Temperatura máxima	18.3
56763	7	Sololá	701	Sololá	3	Barraneche	10	Octubre	2023-10-23T00:00:00	2024-11-06T15:00:00	3	Temperatura mínima	17.8
56764	7	Sololá	701	Sololá	3	Barraneche	10	Octubre	2023-10-23T00:00:00	2024-11-06T15:00:00	5	Humedad	68
56765	7	Sololá	701	Sololá	3	Barraneche	10	Octubre	2023-10-23T00:00:00	2024-11-06T15:00:00	6	Velocidad del viento	11.3
56766	7	Sololá	701	Sololá	3	Barraneche	10	Octubre	2023-10-23T00:00:00	2024-11-06T15:00:00	7	Dirección del viento	11.27
56767	7	Sololá	701	Sololá	3	Barraneche	10	Octubre	2023-10-23T00:00:00	2024-11-06T15:00:00	1	Precipitación	0
56768	7	Sololá	701	Sololá	3	Barraneche	10	Octubre	2023-10-23T00:00:00	2024-11-06T15:00:00	8	Radiación solar	680
56769	7	Sololá	701	Sololá	3	Barraneche	10	Octubre	2023-10-23T00:00:00	2024-11-06T16:00:00	2	Temperatura media	16.6
56770	7	Sololá	701	Sololá	3	Barraneche	10	Octubre	2023-10-23T00:00:00	2024-11-06T16:00:00	4	Temperatura máxima	17.9
56771	7	Sololá	701	Sololá	3	Barraneche	10	Octubre	2023-10-23T00:00:00	2024-11-06T16:00:00	3	Temperatura mínima	16.3
56772	7	Sololá	701	Sololá	3	Barraneche	10	Octubre	2023-10-23T00:00:00	2024-11-06T16:00:00	5	Humedad	74
56773	7	Sololá	701	Sololá	3	Barraneche	10	Octubre	2023-10-23T00:00:00	2024-11-06T16:00:00	6	Velocidad del viento	8
56774	7	Sololá	701	Sololá	3	Barraneche	10	Octubre	2023-10-23T00:00:00	2024-11-06T16:00:00	7	Dirección del viento	8.05
56775	7	Sololá	701	Sololá	3	Barraneche	10	Octubre	2023-10-23T00:00:00	2024-11-06T16:00:00	1	Precipitación	0
56776	7	Sololá	701	Sololá	3	Barraneche	10	Octubre	2023-10-23T00:00:00	2024-11-06T16:00:00	8	Radiación solar	176
56777	7	Sololá	701	Sololá	3	Barraneche	10	Octubre	2023-10-23T00:00:00	2024-11-06T17:00:00	2	Temperatura media	17.8
56778	7	Sololá	701	Sololá	3	Barraneche	10	Octubre	2023-10-23T00:00:00	2024-11-06T17:00:00	4	Temperatura máxima	18.2
56779	7	Sololá	701	Sololá	3	Barraneche	10	Octubre	2023-10-23T00:00:00	2024-11-06T17:00:00	3	Temperatura mínima	16.6
56780	7	Sololá	701	Sololá	3	Barraneche	10	Octubre	2023-10-23T00:00:00	2024-11-06T17:00:00	5	Humedad	70
56781	7	Sololá	701	Sololá	3	Barraneche	10	Octubre	2023-10-23T00:00:00	2024-11-06T17:00:00	6	Velocidad del viento	3.2
56782	7	Sololá	701	Sololá	3	Barraneche	10	Octubre	2023-10-23T00:00:00	2024-11-06T17:00:00	7	Dirección del viento	3.22
56783	7	Sololá	701	Sololá	3	Barraneche	10	Octubre	2023-10-23T00:00:00	2024-11-06T17:00:00	1	Precipitación	0
56784	7	Sololá	701	Sololá	3	Barraneche	10	Octubre	2023-10-23T00:00:00	2024-11-06T17:00:00	8	Radiación solar	206
56785	7	Sololá	701	Sololá	3	Barraneche	10	Octubre	2023-10-23T00:00:00	2024-11-06T18:00:00	2	Temperatura media	15.6
56786	7	Sololá	701	Sololá	3	Barraneche	10	Octubre	2023-10-23T00:00:00	2024-11-06T18:00:00	4	Temperatura máxima	17.8
56787	7	Sololá	701	Sololá	3	Barraneche	10	Octubre	2023-10-23T00:00:00	2024-11-06T18:00:00	3	Temperatura mínima	15.5
56788	7	Sololá	701	Sololá	3	Barraneche	10	Octubre	2023-10-23T00:00:00	2024-11-06T18:00:00	5	Humedad	77
56789	7	Sololá	701	Sololá	3	Barraneche	10	Octubre	2023-10-23T00:00:00	2024-11-06T18:00:00	6	Velocidad del viento	3.2
56790	7	Sololá	701	Sololá	3	Barraneche	10	Octubre	2023-10-23T00:00:00	2024-11-06T18:00:00	7	Dirección del viento	3.22
56791	7	Sololá	701	Sololá	3	Barraneche	10	Octubre	2023-10-23T00:00:00	2024-11-06T18:00:00	1	Precipitación	0
56792	7	Sololá	701	Sololá	3	Barraneche	10	Octubre	2023-10-23T00:00:00	2024-11-06T18:00:00	8	Radiación solar	24
56793	7	Sololá	701	Sololá	3	Barraneche	10	Octubre	2023-10-23T00:00:00	2024-11-06T19:00:00	2	Temperatura media	14.8
56794	7	Sololá	701	Sololá	3	Barraneche	10	Octubre	2023-10-23T00:00:00	2024-11-06T19:00:00	4	Temperatura máxima	15.6
56795	7	Sololá	701	Sololá	3	Barraneche	10	Octubre	2023-10-23T00:00:00	2024-11-06T19:00:00	3	Temperatura mínima	14.8
56796	7	Sololá	701	Sololá	3	Barraneche	10	Octubre	2023-10-23T00:00:00	2024-11-06T19:00:00	5	Humedad	80
56797	7	Sololá	701	Sololá	3	Barraneche	10	Octubre	2023-10-23T00:00:00	2024-11-06T19:00:00	6	Velocidad del viento	3.2
56798	7	Sololá	701	Sololá	3	Barraneche	10	Octubre	2023-10-23T00:00:00	2024-11-06T19:00:00	7	Dirección del viento	3.22
56799	7	Sololá	701	Sololá	3	Barraneche	10	Octubre	2023-10-23T00:00:00	2024-11-06T19:00:00	1	Precipitación	0
56800	7	Sololá	701	Sololá	3	Barraneche	10	Octubre	2023-10-23T00:00:00	2024-11-06T19:00:00	8	Radiación solar	0
56801	7	Sololá	701	Sololá	3	Barraneche	10	Octubre	2023-10-23T00:00:00	2024-11-06T20:00:00	2	Temperatura media	14.9
56802	7	Sololá	701	Sololá	3	Barraneche	10	Octubre	2023-10-23T00:00:00	2024-11-06T20:00:00	4	Temperatura máxima	14.9
56803	7	Sololá	701	Sololá	3	Barraneche	10	Octubre	2023-10-23T00:00:00	2024-11-06T20:00:00	3	Temperatura mínima	14.7
56804	7	Sololá	701	Sololá	3	Barraneche	10	Octubre	2023-10-23T00:00:00	2024-11-06T20:00:00	5	Humedad	81
56805	7	Sololá	701	Sololá	3	Barraneche	10	Octubre	2023-10-23T00:00:00	2024-11-06T20:00:00	6	Velocidad del viento	1.6
56806	7	Sololá	701	Sololá	3	Barraneche	10	Octubre	2023-10-23T00:00:00	2024-11-06T20:00:00	7	Dirección del viento	1.61
56807	7	Sololá	701	Sololá	3	Barraneche	10	Octubre	2023-10-23T00:00:00	2024-11-06T20:00:00	1	Precipitación	0
56808	7	Sololá	701	Sololá	3	Barraneche	10	Octubre	2023-10-23T00:00:00	2024-11-06T20:00:00	8	Radiación solar	0
56809	7	Sololá	701	Sololá	3	Barraneche	10	Octubre	2023-10-23T00:00:00	2024-11-06T21:00:00	2	Temperatura media	14.9
56810	7	Sololá	701	Sololá	3	Barraneche	10	Octubre	2023-10-23T00:00:00	2024-11-06T21:00:00	4	Temperatura máxima	15.1
56811	7	Sololá	701	Sololá	3	Barraneche	10	Octubre	2023-10-23T00:00:00	2024-11-06T21:00:00	3	Temperatura mínima	14.9
56812	7	Sololá	701	Sololá	3	Barraneche	10	Octubre	2023-10-23T00:00:00	2024-11-06T21:00:00	5	Humedad	79
56813	7	Sololá	701	Sololá	3	Barraneche	10	Octubre	2023-10-23T00:00:00	2024-11-06T21:00:00	6	Velocidad del viento	0
56814	7	Sololá	701	Sololá	3	Barraneche	10	Octubre	2023-10-23T00:00:00	2024-11-06T21:00:00	7	Dirección del viento	0
56815	7	Sololá	701	Sololá	3	Barraneche	10	Octubre	2023-10-23T00:00:00	2024-11-06T21:00:00	1	Precipitación	0
56816	7	Sololá	701	Sololá	3	Barraneche	10	Octubre	2023-10-23T00:00:00	2024-11-06T21:00:00	8	Radiación solar	0
56817	7	Sololá	701	Sololá	3	Barraneche	10	Octubre	2023-10-23T00:00:00	2024-11-06T22:00:00	2	Temperatura media	14.3
56818	7	Sololá	701	Sololá	3	Barraneche	10	Octubre	2023-10-23T00:00:00	2024-11-06T22:00:00	4	Temperatura máxima	14.9
56819	7	Sololá	701	Sololá	3	Barraneche	10	Octubre	2023-10-23T00:00:00	2024-11-06T22:00:00	3	Temperatura mínima	14.3
56820	7	Sololá	701	Sololá	3	Barraneche	10	Octubre	2023-10-23T00:00:00	2024-11-06T22:00:00	5	Humedad	80
56821	7	Sololá	701	Sololá	3	Barraneche	10	Octubre	2023-10-23T00:00:00	2024-11-06T22:00:00	6	Velocidad del viento	1.6
56822	7	Sololá	701	Sololá	3	Barraneche	10	Octubre	2023-10-23T00:00:00	2024-11-06T22:00:00	7	Dirección del viento	1.61
56823	7	Sololá	701	Sololá	3	Barraneche	10	Octubre	2023-10-23T00:00:00	2024-11-06T22:00:00	1	Precipitación	0
56824	7	Sololá	701	Sololá	3	Barraneche	10	Octubre	2023-10-23T00:00:00	2024-11-06T22:00:00	8	Radiación solar	0
56825	7	Sololá	701	Sololá	3	Barraneche	10	Octubre	2023-10-23T00:00:00	2024-11-06T23:00:00	2	Temperatura media	14.1
56826	7	Sololá	701	Sololá	3	Barraneche	10	Octubre	2023-10-23T00:00:00	2024-11-06T23:00:00	4	Temperatura máxima	14.4
56827	7	Sololá	701	Sololá	3	Barraneche	10	Octubre	2023-10-23T00:00:00	2024-11-06T23:00:00	3	Temperatura mínima	14.1
56828	7	Sololá	701	Sololá	3	Barraneche	10	Octubre	2023-10-23T00:00:00	2024-11-06T23:00:00	5	Humedad	83
56829	7	Sololá	701	Sololá	3	Barraneche	10	Octubre	2023-10-23T00:00:00	2024-11-06T23:00:00	6	Velocidad del viento	1.6
56830	7	Sololá	701	Sololá	3	Barraneche	10	Octubre	2023-10-23T00:00:00	2024-11-06T23:00:00	7	Dirección del viento	1.61
56831	7	Sololá	701	Sololá	3	Barraneche	10	Octubre	2023-10-23T00:00:00	2024-11-06T23:00:00	1	Precipitación	0.8
56832	7	Sololá	701	Sololá	3	Barraneche	10	Octubre	2023-10-23T00:00:00	2024-11-06T23:00:00	8	Radiación solar	0
56833	7	Sololá	701	Sololá	3	Barraneche	10	Octubre	2023-10-24T00:00:00	2024-11-06T00:00:00	2	Temperatura media	13.9
56834	7	Sololá	701	Sololá	3	Barraneche	10	Octubre	2023-10-24T00:00:00	2024-11-06T00:00:00	4	Temperatura máxima	14.2
56835	7	Sololá	701	Sololá	3	Barraneche	10	Octubre	2023-10-24T00:00:00	2024-11-06T00:00:00	3	Temperatura mínima	13.8
56836	7	Sololá	701	Sololá	3	Barraneche	10	Octubre	2023-10-24T00:00:00	2024-11-06T00:00:00	5	Humedad	84
56837	7	Sololá	701	Sololá	3	Barraneche	10	Octubre	2023-10-24T00:00:00	2024-11-06T00:00:00	6	Velocidad del viento	0
56838	7	Sololá	701	Sololá	3	Barraneche	10	Octubre	2023-10-24T00:00:00	2024-11-06T00:00:00	7	Dirección del viento	0
56839	7	Sololá	701	Sololá	3	Barraneche	10	Octubre	2023-10-24T00:00:00	2024-11-06T00:00:00	1	Precipitación	1.2
56840	7	Sololá	701	Sololá	3	Barraneche	10	Octubre	2023-10-24T00:00:00	2024-11-06T00:00:00	8	Radiación solar	0
56841	7	Sololá	701	Sololá	3	Barraneche	10	Octubre	2023-10-24T00:00:00	2024-11-06T01:00:00	2	Temperatura media	13.4
56842	7	Sololá	701	Sololá	3	Barraneche	10	Octubre	2023-10-24T00:00:00	2024-11-06T01:00:00	4	Temperatura máxima	13.9
56843	7	Sololá	701	Sololá	3	Barraneche	10	Octubre	2023-10-24T00:00:00	2024-11-06T01:00:00	3	Temperatura mínima	13.3
56844	7	Sololá	701	Sololá	3	Barraneche	10	Octubre	2023-10-24T00:00:00	2024-11-06T01:00:00	5	Humedad	84
56845	7	Sololá	701	Sololá	3	Barraneche	10	Octubre	2023-10-24T00:00:00	2024-11-06T01:00:00	6	Velocidad del viento	1.6
56846	7	Sololá	701	Sololá	3	Barraneche	10	Octubre	2023-10-24T00:00:00	2024-11-06T01:00:00	7	Dirección del viento	1.61
56847	7	Sololá	701	Sololá	3	Barraneche	10	Octubre	2023-10-24T00:00:00	2024-11-06T01:00:00	1	Precipitación	0.2
56848	7	Sololá	701	Sololá	3	Barraneche	10	Octubre	2023-10-24T00:00:00	2024-11-06T01:00:00	8	Radiación solar	0
56849	7	Sololá	701	Sololá	3	Barraneche	10	Octubre	2023-10-24T00:00:00	2024-11-06T02:00:00	2	Temperatura media	13.2
56850	7	Sololá	701	Sololá	3	Barraneche	10	Octubre	2023-10-24T00:00:00	2024-11-06T02:00:00	4	Temperatura máxima	13.4
56851	7	Sololá	701	Sololá	3	Barraneche	10	Octubre	2023-10-24T00:00:00	2024-11-06T02:00:00	3	Temperatura mínima	13.2
56852	7	Sololá	701	Sololá	3	Barraneche	10	Octubre	2023-10-24T00:00:00	2024-11-06T02:00:00	5	Humedad	84
56853	7	Sololá	701	Sololá	3	Barraneche	10	Octubre	2023-10-24T00:00:00	2024-11-06T02:00:00	6	Velocidad del viento	3.2
56854	7	Sololá	701	Sololá	3	Barraneche	10	Octubre	2023-10-24T00:00:00	2024-11-06T02:00:00	7	Dirección del viento	3.22
56855	7	Sololá	701	Sololá	3	Barraneche	10	Octubre	2023-10-24T00:00:00	2024-11-06T02:00:00	1	Precipitación	0
56856	7	Sololá	701	Sololá	3	Barraneche	10	Octubre	2023-10-24T00:00:00	2024-11-06T02:00:00	8	Radiación solar	0
56857	7	Sololá	701	Sololá	3	Barraneche	10	Octubre	2023-10-24T00:00:00	2024-11-06T03:00:00	2	Temperatura media	12.6
56858	7	Sololá	701	Sololá	3	Barraneche	10	Octubre	2023-10-24T00:00:00	2024-11-06T03:00:00	4	Temperatura máxima	13.3
56859	7	Sololá	701	Sololá	3	Barraneche	10	Octubre	2023-10-24T00:00:00	2024-11-06T03:00:00	3	Temperatura mínima	12.6
56860	7	Sololá	701	Sololá	3	Barraneche	10	Octubre	2023-10-24T00:00:00	2024-11-06T03:00:00	5	Humedad	83
56861	7	Sololá	701	Sololá	3	Barraneche	10	Octubre	2023-10-24T00:00:00	2024-11-06T03:00:00	6	Velocidad del viento	1.6
56862	7	Sololá	701	Sololá	3	Barraneche	10	Octubre	2023-10-24T00:00:00	2024-11-06T03:00:00	7	Dirección del viento	1.61
56863	7	Sololá	701	Sololá	3	Barraneche	10	Octubre	2023-10-24T00:00:00	2024-11-06T03:00:00	1	Precipitación	0
56864	7	Sololá	701	Sololá	3	Barraneche	10	Octubre	2023-10-24T00:00:00	2024-11-06T03:00:00	8	Radiación solar	0
56865	7	Sololá	701	Sololá	3	Barraneche	10	Octubre	2023-10-24T00:00:00	2024-11-06T04:00:00	2	Temperatura media	12.3
56866	7	Sololá	701	Sololá	3	Barraneche	10	Octubre	2023-10-24T00:00:00	2024-11-06T04:00:00	4	Temperatura máxima	12.7
56867	7	Sololá	701	Sololá	3	Barraneche	10	Octubre	2023-10-24T00:00:00	2024-11-06T04:00:00	3	Temperatura mínima	12.3
56868	7	Sololá	701	Sololá	3	Barraneche	10	Octubre	2023-10-24T00:00:00	2024-11-06T04:00:00	5	Humedad	82
56869	7	Sololá	701	Sololá	3	Barraneche	10	Octubre	2023-10-24T00:00:00	2024-11-06T04:00:00	6	Velocidad del viento	3.2
56870	7	Sololá	701	Sololá	3	Barraneche	10	Octubre	2023-10-24T00:00:00	2024-11-06T04:00:00	7	Dirección del viento	3.22
56871	7	Sololá	701	Sololá	3	Barraneche	10	Octubre	2023-10-24T00:00:00	2024-11-06T04:00:00	1	Precipitación	0
56872	7	Sololá	701	Sololá	3	Barraneche	10	Octubre	2023-10-24T00:00:00	2024-11-06T04:00:00	8	Radiación solar	0
56873	7	Sololá	701	Sololá	3	Barraneche	10	Octubre	2023-10-24T00:00:00	2024-11-06T05:00:00	2	Temperatura media	11.9
56874	7	Sololá	701	Sololá	3	Barraneche	10	Octubre	2023-10-24T00:00:00	2024-11-06T05:00:00	4	Temperatura máxima	12.3
56875	7	Sololá	701	Sololá	3	Barraneche	10	Octubre	2023-10-24T00:00:00	2024-11-06T05:00:00	3	Temperatura mínima	11.8
56876	7	Sololá	701	Sololá	3	Barraneche	10	Octubre	2023-10-24T00:00:00	2024-11-06T05:00:00	5	Humedad	81
56877	7	Sololá	701	Sololá	3	Barraneche	10	Octubre	2023-10-24T00:00:00	2024-11-06T05:00:00	6	Velocidad del viento	4.8
56878	7	Sololá	701	Sololá	3	Barraneche	10	Octubre	2023-10-24T00:00:00	2024-11-06T05:00:00	7	Dirección del viento	4.83
56879	7	Sololá	701	Sololá	3	Barraneche	10	Octubre	2023-10-24T00:00:00	2024-11-06T05:00:00	1	Precipitación	0
56880	7	Sololá	701	Sololá	3	Barraneche	10	Octubre	2023-10-24T00:00:00	2024-11-06T05:00:00	8	Radiación solar	0
56881	7	Sololá	701	Sololá	3	Barraneche	10	Octubre	2023-10-24T00:00:00	2024-11-06T06:00:00	2	Temperatura media	12.1
56882	7	Sololá	701	Sololá	3	Barraneche	10	Octubre	2023-10-24T00:00:00	2024-11-06T06:00:00	4	Temperatura máxima	12.2
56883	7	Sololá	701	Sololá	3	Barraneche	10	Octubre	2023-10-24T00:00:00	2024-11-06T06:00:00	3	Temperatura mínima	11.9
56884	7	Sololá	701	Sololá	3	Barraneche	10	Octubre	2023-10-24T00:00:00	2024-11-06T06:00:00	5	Humedad	80
56885	7	Sololá	701	Sololá	3	Barraneche	10	Octubre	2023-10-24T00:00:00	2024-11-06T06:00:00	6	Velocidad del viento	3.2
56886	7	Sololá	701	Sololá	3	Barraneche	10	Octubre	2023-10-24T00:00:00	2024-11-06T06:00:00	7	Dirección del viento	3.22
56887	7	Sololá	701	Sololá	3	Barraneche	10	Octubre	2023-10-24T00:00:00	2024-11-06T06:00:00	1	Precipitación	0
56888	7	Sololá	701	Sololá	3	Barraneche	10	Octubre	2023-10-24T00:00:00	2024-11-06T06:00:00	8	Radiación solar	0
56889	7	Sololá	701	Sololá	3	Barraneche	10	Octubre	2023-10-24T00:00:00	2024-11-06T07:00:00	2	Temperatura media	13.3
56890	7	Sololá	701	Sololá	3	Barraneche	10	Octubre	2023-10-24T00:00:00	2024-11-06T07:00:00	4	Temperatura máxima	13.3
56891	7	Sololá	701	Sololá	3	Barraneche	10	Octubre	2023-10-24T00:00:00	2024-11-06T07:00:00	3	Temperatura mínima	11.9
56892	7	Sololá	701	Sololá	3	Barraneche	10	Octubre	2023-10-24T00:00:00	2024-11-06T07:00:00	5	Humedad	80
56893	7	Sololá	701	Sololá	3	Barraneche	10	Octubre	2023-10-24T00:00:00	2024-11-06T07:00:00	6	Velocidad del viento	3.2
56894	7	Sololá	701	Sololá	3	Barraneche	10	Octubre	2023-10-24T00:00:00	2024-11-06T07:00:00	7	Dirección del viento	3.22
56895	7	Sololá	701	Sololá	3	Barraneche	10	Octubre	2023-10-24T00:00:00	2024-11-06T07:00:00	1	Precipitación	0
56896	7	Sololá	701	Sololá	3	Barraneche	10	Octubre	2023-10-24T00:00:00	2024-11-06T07:00:00	8	Radiación solar	82
56897	7	Sololá	701	Sololá	3	Barraneche	10	Octubre	2023-10-24T00:00:00	2024-11-06T08:00:00	2	Temperatura media	16.2
56898	7	Sololá	701	Sololá	3	Barraneche	10	Octubre	2023-10-24T00:00:00	2024-11-06T08:00:00	4	Temperatura máxima	16.2
56899	7	Sololá	701	Sololá	3	Barraneche	10	Octubre	2023-10-24T00:00:00	2024-11-06T08:00:00	3	Temperatura mínima	13.3
56900	7	Sololá	701	Sololá	3	Barraneche	10	Octubre	2023-10-24T00:00:00	2024-11-06T08:00:00	5	Humedad	72
56901	7	Sololá	701	Sololá	3	Barraneche	10	Octubre	2023-10-24T00:00:00	2024-11-06T08:00:00	6	Velocidad del viento	3.2
56902	7	Sololá	701	Sololá	3	Barraneche	10	Octubre	2023-10-24T00:00:00	2024-11-06T08:00:00	7	Dirección del viento	3.22
56903	7	Sololá	701	Sololá	3	Barraneche	10	Octubre	2023-10-24T00:00:00	2024-11-06T08:00:00	1	Precipitación	0
56904	7	Sololá	701	Sololá	3	Barraneche	10	Octubre	2023-10-24T00:00:00	2024-11-06T08:00:00	8	Radiación solar	312
56905	7	Sololá	701	Sololá	3	Barraneche	10	Octubre	2023-10-24T00:00:00	2024-11-06T09:00:00	2	Temperatura media	18.4
56906	7	Sololá	701	Sololá	3	Barraneche	10	Octubre	2023-10-24T00:00:00	2024-11-06T09:00:00	4	Temperatura máxima	18.4
56907	7	Sololá	701	Sololá	3	Barraneche	10	Octubre	2023-10-24T00:00:00	2024-11-06T09:00:00	3	Temperatura mínima	16.2
56908	7	Sololá	701	Sololá	3	Barraneche	10	Octubre	2023-10-24T00:00:00	2024-11-06T09:00:00	5	Humedad	68
56909	7	Sololá	701	Sololá	3	Barraneche	10	Octubre	2023-10-24T00:00:00	2024-11-06T09:00:00	6	Velocidad del viento	1.6
56910	7	Sololá	701	Sololá	3	Barraneche	10	Octubre	2023-10-24T00:00:00	2024-11-06T09:00:00	7	Dirección del viento	1.61
56911	7	Sololá	701	Sololá	3	Barraneche	10	Octubre	2023-10-24T00:00:00	2024-11-06T09:00:00	1	Precipitación	0
56912	7	Sololá	701	Sololá	3	Barraneche	10	Octubre	2023-10-24T00:00:00	2024-11-06T09:00:00	8	Radiación solar	525
56913	7	Sololá	701	Sololá	3	Barraneche	10	Octubre	2023-10-24T00:00:00	2024-11-06T10:00:00	2	Temperatura media	20.3
56914	7	Sololá	701	Sololá	3	Barraneche	10	Octubre	2023-10-24T00:00:00	2024-11-06T10:00:00	4	Temperatura máxima	20.5
56915	7	Sololá	701	Sololá	3	Barraneche	10	Octubre	2023-10-24T00:00:00	2024-11-06T10:00:00	3	Temperatura mínima	18.4
56916	7	Sololá	701	Sololá	3	Barraneche	10	Octubre	2023-10-24T00:00:00	2024-11-06T10:00:00	5	Humedad	62
56917	7	Sololá	701	Sololá	3	Barraneche	10	Octubre	2023-10-24T00:00:00	2024-11-06T10:00:00	6	Velocidad del viento	6.4
56918	7	Sololá	701	Sololá	3	Barraneche	10	Octubre	2023-10-24T00:00:00	2024-11-06T10:00:00	7	Dirección del viento	6.44
56919	7	Sololá	701	Sololá	3	Barraneche	10	Octubre	2023-10-24T00:00:00	2024-11-06T10:00:00	1	Precipitación	0
56920	7	Sololá	701	Sololá	3	Barraneche	10	Octubre	2023-10-24T00:00:00	2024-11-06T10:00:00	8	Radiación solar	731
56921	7	Sololá	701	Sololá	3	Barraneche	10	Octubre	2023-10-24T00:00:00	2024-11-06T11:00:00	2	Temperatura media	21.3
56922	7	Sololá	701	Sololá	3	Barraneche	10	Octubre	2023-10-24T00:00:00	2024-11-06T11:00:00	4	Temperatura máxima	21.3
56923	7	Sololá	701	Sololá	3	Barraneche	10	Octubre	2023-10-24T00:00:00	2024-11-06T11:00:00	3	Temperatura mínima	20.1
56924	7	Sololá	701	Sololá	3	Barraneche	10	Octubre	2023-10-24T00:00:00	2024-11-06T11:00:00	5	Humedad	58
56925	7	Sololá	701	Sololá	3	Barraneche	10	Octubre	2023-10-24T00:00:00	2024-11-06T11:00:00	6	Velocidad del viento	11.3
56926	7	Sololá	701	Sololá	3	Barraneche	10	Octubre	2023-10-24T00:00:00	2024-11-06T11:00:00	7	Dirección del viento	11.27
56927	7	Sololá	701	Sololá	3	Barraneche	10	Octubre	2023-10-24T00:00:00	2024-11-06T11:00:00	1	Precipitación	0
56928	7	Sololá	701	Sololá	3	Barraneche	10	Octubre	2023-10-24T00:00:00	2024-11-06T11:00:00	8	Radiación solar	746
56929	7	Sololá	701	Sololá	3	Barraneche	10	Octubre	2023-10-24T00:00:00	2024-11-06T12:00:00	2	Temperatura media	19.1
56930	7	Sololá	701	Sololá	3	Barraneche	10	Octubre	2023-10-24T00:00:00	2024-11-06T12:00:00	4	Temperatura máxima	21.6
56931	7	Sololá	701	Sololá	3	Barraneche	10	Octubre	2023-10-24T00:00:00	2024-11-06T12:00:00	3	Temperatura mínima	18.7
56932	7	Sololá	701	Sololá	3	Barraneche	10	Octubre	2023-10-24T00:00:00	2024-11-06T12:00:00	5	Humedad	71
56933	7	Sololá	701	Sololá	3	Barraneche	10	Octubre	2023-10-24T00:00:00	2024-11-06T12:00:00	6	Velocidad del viento	16.1
56934	7	Sololá	701	Sololá	3	Barraneche	10	Octubre	2023-10-24T00:00:00	2024-11-06T12:00:00	7	Dirección del viento	16.09
56935	7	Sololá	701	Sololá	3	Barraneche	10	Octubre	2023-10-24T00:00:00	2024-11-06T12:00:00	1	Precipitación	0
56936	7	Sololá	701	Sololá	3	Barraneche	10	Octubre	2023-10-24T00:00:00	2024-11-06T12:00:00	8	Radiación solar	652
56937	7	Sololá	701	Sololá	3	Barraneche	10	Octubre	2023-10-24T00:00:00	2024-11-06T13:00:00	2	Temperatura media	17.2
56938	7	Sololá	701	Sololá	3	Barraneche	10	Octubre	2023-10-24T00:00:00	2024-11-06T13:00:00	4	Temperatura máxima	19.1
56939	7	Sololá	701	Sololá	3	Barraneche	10	Octubre	2023-10-24T00:00:00	2024-11-06T13:00:00	3	Temperatura mínima	17.2
56940	7	Sololá	701	Sololá	3	Barraneche	10	Octubre	2023-10-24T00:00:00	2024-11-06T13:00:00	5	Humedad	76
56941	7	Sololá	701	Sololá	3	Barraneche	10	Octubre	2023-10-24T00:00:00	2024-11-06T13:00:00	6	Velocidad del viento	12.9
56942	7	Sololá	701	Sololá	3	Barraneche	10	Octubre	2023-10-24T00:00:00	2024-11-06T13:00:00	7	Dirección del viento	12.87
56943	7	Sololá	701	Sololá	3	Barraneche	10	Octubre	2023-10-24T00:00:00	2024-11-06T13:00:00	1	Precipitación	0
56944	7	Sololá	701	Sololá	3	Barraneche	10	Octubre	2023-10-24T00:00:00	2024-11-06T13:00:00	8	Radiación solar	439
56945	7	Sololá	701	Sololá	3	Barraneche	10	Octubre	2023-10-24T00:00:00	2024-11-06T14:00:00	2	Temperatura media	15.1
56946	7	Sololá	701	Sololá	3	Barraneche	10	Octubre	2023-10-24T00:00:00	2024-11-06T14:00:00	4	Temperatura máxima	17.1
56947	7	Sololá	701	Sololá	3	Barraneche	10	Octubre	2023-10-24T00:00:00	2024-11-06T14:00:00	3	Temperatura mínima	15
56948	7	Sololá	701	Sololá	3	Barraneche	10	Octubre	2023-10-24T00:00:00	2024-11-06T14:00:00	5	Humedad	82
56949	7	Sololá	701	Sololá	3	Barraneche	10	Octubre	2023-10-24T00:00:00	2024-11-06T14:00:00	6	Velocidad del viento	9.7
56950	7	Sololá	701	Sololá	3	Barraneche	10	Octubre	2023-10-24T00:00:00	2024-11-06T14:00:00	7	Dirección del viento	9.66
56951	7	Sololá	701	Sololá	3	Barraneche	10	Octubre	2023-10-24T00:00:00	2024-11-06T14:00:00	1	Precipitación	0
56952	7	Sololá	701	Sololá	3	Barraneche	10	Octubre	2023-10-24T00:00:00	2024-11-06T14:00:00	8	Radiación solar	54
56953	7	Sololá	701	Sololá	3	Barraneche	10	Octubre	2023-10-24T00:00:00	2024-11-06T15:00:00	2	Temperatura media	15.3
56954	7	Sololá	701	Sololá	3	Barraneche	10	Octubre	2023-10-24T00:00:00	2024-11-06T15:00:00	4	Temperatura máxima	15.5
56955	7	Sololá	701	Sololá	3	Barraneche	10	Octubre	2023-10-24T00:00:00	2024-11-06T15:00:00	3	Temperatura mínima	15
56956	7	Sololá	701	Sololá	3	Barraneche	10	Octubre	2023-10-24T00:00:00	2024-11-06T15:00:00	5	Humedad	78
56957	7	Sololá	701	Sololá	3	Barraneche	10	Octubre	2023-10-24T00:00:00	2024-11-06T15:00:00	6	Velocidad del viento	3.2
56958	7	Sololá	701	Sololá	3	Barraneche	10	Octubre	2023-10-24T00:00:00	2024-11-06T15:00:00	7	Dirección del viento	3.22
56959	7	Sololá	701	Sololá	3	Barraneche	10	Octubre	2023-10-24T00:00:00	2024-11-06T15:00:00	1	Precipitación	0.4
56960	7	Sololá	701	Sololá	3	Barraneche	10	Octubre	2023-10-24T00:00:00	2024-11-06T15:00:00	8	Radiación solar	91
56961	7	Sololá	701	Sololá	3	Barraneche	10	Octubre	2023-10-24T00:00:00	2024-11-06T16:00:00	2	Temperatura media	15.9
56962	7	Sololá	701	Sololá	3	Barraneche	10	Octubre	2023-10-24T00:00:00	2024-11-06T16:00:00	4	Temperatura máxima	16.2
56963	7	Sololá	701	Sololá	3	Barraneche	10	Octubre	2023-10-24T00:00:00	2024-11-06T16:00:00	3	Temperatura mínima	15.3
56964	7	Sololá	701	Sololá	3	Barraneche	10	Octubre	2023-10-24T00:00:00	2024-11-06T16:00:00	5	Humedad	74
56965	7	Sololá	701	Sololá	3	Barraneche	10	Octubre	2023-10-24T00:00:00	2024-11-06T16:00:00	6	Velocidad del viento	1.6
56966	7	Sololá	701	Sololá	3	Barraneche	10	Octubre	2023-10-24T00:00:00	2024-11-06T16:00:00	7	Dirección del viento	1.61
56967	7	Sololá	701	Sololá	3	Barraneche	10	Octubre	2023-10-24T00:00:00	2024-11-06T16:00:00	1	Precipitación	0
56968	7	Sololá	701	Sololá	3	Barraneche	10	Octubre	2023-10-24T00:00:00	2024-11-06T16:00:00	8	Radiación solar	131
56969	7	Sololá	701	Sololá	3	Barraneche	10	Octubre	2023-10-24T00:00:00	2024-11-06T17:00:00	2	Temperatura media	15.5
56970	7	Sololá	701	Sololá	3	Barraneche	10	Octubre	2023-10-24T00:00:00	2024-11-06T17:00:00	4	Temperatura máxima	16.3
56971	7	Sololá	701	Sololá	3	Barraneche	10	Octubre	2023-10-24T00:00:00	2024-11-06T17:00:00	3	Temperatura mínima	15.5
56972	7	Sololá	701	Sololá	3	Barraneche	10	Octubre	2023-10-24T00:00:00	2024-11-06T17:00:00	5	Humedad	76
56973	7	Sololá	701	Sololá	3	Barraneche	10	Octubre	2023-10-24T00:00:00	2024-11-06T17:00:00	6	Velocidad del viento	3.2
56974	7	Sololá	701	Sololá	3	Barraneche	10	Octubre	2023-10-24T00:00:00	2024-11-06T17:00:00	7	Dirección del viento	3.22
56975	7	Sololá	701	Sololá	3	Barraneche	10	Octubre	2023-10-24T00:00:00	2024-11-06T17:00:00	1	Precipitación	0
56976	7	Sololá	701	Sololá	3	Barraneche	10	Octubre	2023-10-24T00:00:00	2024-11-06T17:00:00	8	Radiación solar	90
56977	7	Sololá	701	Sololá	3	Barraneche	10	Octubre	2023-10-24T00:00:00	2024-11-06T18:00:00	2	Temperatura media	14.1
56978	7	Sololá	701	Sololá	3	Barraneche	10	Octubre	2023-10-24T00:00:00	2024-11-06T18:00:00	4	Temperatura máxima	15.5
56979	7	Sololá	701	Sololá	3	Barraneche	10	Octubre	2023-10-24T00:00:00	2024-11-06T18:00:00	3	Temperatura mínima	14.1
56980	7	Sololá	701	Sololá	3	Barraneche	10	Octubre	2023-10-24T00:00:00	2024-11-06T18:00:00	5	Humedad	77
56981	7	Sololá	701	Sololá	3	Barraneche	10	Octubre	2023-10-24T00:00:00	2024-11-06T18:00:00	6	Velocidad del viento	4.8
56982	7	Sololá	701	Sololá	3	Barraneche	10	Octubre	2023-10-24T00:00:00	2024-11-06T18:00:00	7	Dirección del viento	4.83
56983	7	Sololá	701	Sololá	3	Barraneche	10	Octubre	2023-10-24T00:00:00	2024-11-06T18:00:00	1	Precipitación	0
56984	7	Sololá	701	Sololá	3	Barraneche	10	Octubre	2023-10-24T00:00:00	2024-11-06T18:00:00	8	Radiación solar	14
56985	7	Sololá	701	Sololá	3	Barraneche	10	Octubre	2023-10-24T00:00:00	2024-11-06T19:00:00	2	Temperatura media	13.6
56986	7	Sololá	701	Sololá	3	Barraneche	10	Octubre	2023-10-24T00:00:00	2024-11-06T19:00:00	4	Temperatura máxima	14.1
56987	7	Sololá	701	Sololá	3	Barraneche	10	Octubre	2023-10-24T00:00:00	2024-11-06T19:00:00	3	Temperatura mínima	13.6
56988	7	Sololá	701	Sololá	3	Barraneche	10	Octubre	2023-10-24T00:00:00	2024-11-06T19:00:00	5	Humedad	78
56989	7	Sololá	701	Sololá	3	Barraneche	10	Octubre	2023-10-24T00:00:00	2024-11-06T19:00:00	6	Velocidad del viento	3.2
56990	7	Sololá	701	Sololá	3	Barraneche	10	Octubre	2023-10-24T00:00:00	2024-11-06T19:00:00	7	Dirección del viento	3.22
56991	7	Sololá	701	Sololá	3	Barraneche	10	Octubre	2023-10-24T00:00:00	2024-11-06T19:00:00	1	Precipitación	0.2
56992	7	Sololá	701	Sololá	3	Barraneche	10	Octubre	2023-10-24T00:00:00	2024-11-06T19:00:00	8	Radiación solar	0
56993	7	Sololá	701	Sololá	3	Barraneche	10	Octubre	2023-10-24T00:00:00	2024-11-06T20:00:00	2	Temperatura media	13.6
56994	7	Sololá	701	Sololá	3	Barraneche	10	Octubre	2023-10-24T00:00:00	2024-11-06T20:00:00	4	Temperatura máxima	13.7
56995	7	Sololá	701	Sololá	3	Barraneche	10	Octubre	2023-10-24T00:00:00	2024-11-06T20:00:00	3	Temperatura mínima	13.4
56996	7	Sololá	701	Sololá	3	Barraneche	10	Octubre	2023-10-24T00:00:00	2024-11-06T20:00:00	5	Humedad	79
56997	7	Sololá	701	Sololá	3	Barraneche	10	Octubre	2023-10-24T00:00:00	2024-11-06T20:00:00	6	Velocidad del viento	3.2
56998	7	Sololá	701	Sololá	3	Barraneche	10	Octubre	2023-10-24T00:00:00	2024-11-06T20:00:00	7	Dirección del viento	3.22
56999	7	Sololá	701	Sololá	3	Barraneche	10	Octubre	2023-10-24T00:00:00	2024-11-06T20:00:00	1	Precipitación	0
57000	7	Sololá	701	Sololá	3	Barraneche	10	Octubre	2023-10-24T00:00:00	2024-11-06T20:00:00	8	Radiación solar	0
57001	7	Sololá	701	Sololá	3	Barraneche	10	Octubre	2023-10-24T00:00:00	2024-11-06T21:00:00	2	Temperatura media	13.3
57002	7	Sololá	701	Sololá	3	Barraneche	10	Octubre	2023-10-24T00:00:00	2024-11-06T21:00:00	4	Temperatura máxima	13.7
57003	7	Sololá	701	Sololá	3	Barraneche	10	Octubre	2023-10-24T00:00:00	2024-11-06T21:00:00	3	Temperatura mínima	13
57004	7	Sololá	701	Sololá	3	Barraneche	10	Octubre	2023-10-24T00:00:00	2024-11-06T21:00:00	5	Humedad	78
57005	7	Sololá	701	Sololá	3	Barraneche	10	Octubre	2023-10-24T00:00:00	2024-11-06T21:00:00	6	Velocidad del viento	1.6
57006	7	Sololá	701	Sololá	3	Barraneche	10	Octubre	2023-10-24T00:00:00	2024-11-06T21:00:00	7	Dirección del viento	1.61
57007	7	Sololá	701	Sololá	3	Barraneche	10	Octubre	2023-10-24T00:00:00	2024-11-06T21:00:00	1	Precipitación	0
57008	7	Sololá	701	Sololá	3	Barraneche	10	Octubre	2023-10-24T00:00:00	2024-11-06T21:00:00	8	Radiación solar	0
57009	7	Sololá	701	Sololá	3	Barraneche	10	Octubre	2023-10-24T00:00:00	2024-11-06T22:00:00	2	Temperatura media	13.6
57010	7	Sololá	701	Sololá	3	Barraneche	10	Octubre	2023-10-24T00:00:00	2024-11-06T22:00:00	4	Temperatura máxima	13.7
57011	7	Sololá	701	Sololá	3	Barraneche	10	Octubre	2023-10-24T00:00:00	2024-11-06T22:00:00	3	Temperatura mínima	13.2
57012	7	Sololá	701	Sololá	3	Barraneche	10	Octubre	2023-10-24T00:00:00	2024-11-06T22:00:00	5	Humedad	78
57013	7	Sololá	701	Sololá	3	Barraneche	10	Octubre	2023-10-24T00:00:00	2024-11-06T22:00:00	6	Velocidad del viento	3.2
57014	7	Sololá	701	Sololá	3	Barraneche	10	Octubre	2023-10-24T00:00:00	2024-11-06T22:00:00	7	Dirección del viento	3.22
57015	7	Sololá	701	Sololá	3	Barraneche	10	Octubre	2023-10-24T00:00:00	2024-11-06T22:00:00	1	Precipitación	0
57016	7	Sololá	701	Sololá	3	Barraneche	10	Octubre	2023-10-24T00:00:00	2024-11-06T22:00:00	8	Radiación solar	0
57017	7	Sololá	701	Sololá	3	Barraneche	10	Octubre	2023-10-24T00:00:00	2024-11-06T23:00:00	2	Temperatura media	13.2
57018	7	Sololá	701	Sololá	3	Barraneche	10	Octubre	2023-10-24T00:00:00	2024-11-06T23:00:00	4	Temperatura máxima	13.6
57019	7	Sololá	701	Sololá	3	Barraneche	10	Octubre	2023-10-24T00:00:00	2024-11-06T23:00:00	3	Temperatura mínima	13.1
57020	7	Sololá	701	Sololá	3	Barraneche	10	Octubre	2023-10-24T00:00:00	2024-11-06T23:00:00	5	Humedad	77
57021	7	Sololá	701	Sololá	3	Barraneche	10	Octubre	2023-10-24T00:00:00	2024-11-06T23:00:00	6	Velocidad del viento	3.2
57022	7	Sololá	701	Sololá	3	Barraneche	10	Octubre	2023-10-24T00:00:00	2024-11-06T23:00:00	7	Dirección del viento	3.22
57023	7	Sololá	701	Sololá	3	Barraneche	10	Octubre	2023-10-24T00:00:00	2024-11-06T23:00:00	1	Precipitación	0
57024	7	Sololá	701	Sololá	3	Barraneche	10	Octubre	2023-10-24T00:00:00	2024-11-06T23:00:00	8	Radiación solar	0
57025	7	Sololá	701	Sololá	3	Barraneche	10	Octubre	2023-10-25T00:00:00	2024-11-06T00:00:00	2	Temperatura media	13.7
57026	7	Sololá	701	Sololá	3	Barraneche	10	Octubre	2023-10-25T00:00:00	2024-11-06T00:00:00	4	Temperatura máxima	13.8
57027	7	Sololá	701	Sololá	3	Barraneche	10	Octubre	2023-10-25T00:00:00	2024-11-06T00:00:00	3	Temperatura mínima	13.1
57028	7	Sololá	701	Sololá	3	Barraneche	10	Octubre	2023-10-25T00:00:00	2024-11-06T00:00:00	5	Humedad	76
57029	7	Sololá	701	Sololá	3	Barraneche	10	Octubre	2023-10-25T00:00:00	2024-11-06T00:00:00	6	Velocidad del viento	4.8
57030	7	Sololá	701	Sololá	3	Barraneche	10	Octubre	2023-10-25T00:00:00	2024-11-06T00:00:00	7	Dirección del viento	4.83
57031	7	Sololá	701	Sololá	3	Barraneche	10	Octubre	2023-10-25T00:00:00	2024-11-06T00:00:00	1	Precipitación	0
57032	7	Sololá	701	Sololá	3	Barraneche	10	Octubre	2023-10-25T00:00:00	2024-11-06T00:00:00	8	Radiación solar	0
57033	7	Sololá	701	Sololá	3	Barraneche	10	Octubre	2023-10-25T00:00:00	2024-11-06T01:00:00	2	Temperatura media	13.7
57034	7	Sololá	701	Sololá	3	Barraneche	10	Octubre	2023-10-25T00:00:00	2024-11-06T01:00:00	4	Temperatura máxima	14.8
57035	7	Sololá	701	Sololá	3	Barraneche	10	Octubre	2023-10-25T00:00:00	2024-11-06T01:00:00	3	Temperatura mínima	13.4
57036	7	Sololá	701	Sololá	3	Barraneche	10	Octubre	2023-10-25T00:00:00	2024-11-06T01:00:00	5	Humedad	77
57037	7	Sololá	701	Sololá	3	Barraneche	10	Octubre	2023-10-25T00:00:00	2024-11-06T01:00:00	6	Velocidad del viento	4.8
57038	7	Sololá	701	Sololá	3	Barraneche	10	Octubre	2023-10-25T00:00:00	2024-11-06T01:00:00	7	Dirección del viento	4.83
57039	7	Sololá	701	Sololá	3	Barraneche	10	Octubre	2023-10-25T00:00:00	2024-11-06T01:00:00	1	Precipitación	0
57040	7	Sololá	701	Sololá	3	Barraneche	10	Octubre	2023-10-25T00:00:00	2024-11-06T01:00:00	8	Radiación solar	0
57041	7	Sololá	701	Sololá	3	Barraneche	10	Octubre	2023-10-25T00:00:00	2024-11-06T02:00:00	2	Temperatura media	14.6
57042	7	Sololá	701	Sololá	3	Barraneche	10	Octubre	2023-10-25T00:00:00	2024-11-06T02:00:00	4	Temperatura máxima	15
57043	7	Sololá	701	Sololá	3	Barraneche	10	Octubre	2023-10-25T00:00:00	2024-11-06T02:00:00	3	Temperatura mínima	13.6
57044	7	Sololá	701	Sololá	3	Barraneche	10	Octubre	2023-10-25T00:00:00	2024-11-06T02:00:00	5	Humedad	73
57045	7	Sololá	701	Sololá	3	Barraneche	10	Octubre	2023-10-25T00:00:00	2024-11-06T02:00:00	6	Velocidad del viento	6.4
57046	7	Sololá	701	Sololá	3	Barraneche	10	Octubre	2023-10-25T00:00:00	2024-11-06T02:00:00	7	Dirección del viento	6.44
57047	7	Sololá	701	Sololá	3	Barraneche	10	Octubre	2023-10-25T00:00:00	2024-11-06T02:00:00	1	Precipitación	0.2
57048	7	Sololá	701	Sololá	3	Barraneche	10	Octubre	2023-10-25T00:00:00	2024-11-06T02:00:00	8	Radiación solar	0
57049	7	Sololá	701	Sololá	3	Barraneche	10	Octubre	2023-10-25T00:00:00	2024-11-06T03:00:00	2	Temperatura media	12.2
57050	7	Sololá	701	Sololá	3	Barraneche	10	Octubre	2023-10-25T00:00:00	2024-11-06T03:00:00	4	Temperatura máxima	14.6
57051	7	Sololá	701	Sololá	3	Barraneche	10	Octubre	2023-10-25T00:00:00	2024-11-06T03:00:00	3	Temperatura mínima	12.2
57052	7	Sololá	701	Sololá	3	Barraneche	10	Octubre	2023-10-25T00:00:00	2024-11-06T03:00:00	5	Humedad	78
57053	7	Sololá	701	Sololá	3	Barraneche	10	Octubre	2023-10-25T00:00:00	2024-11-06T03:00:00	6	Velocidad del viento	1.6
57054	7	Sololá	701	Sololá	3	Barraneche	10	Octubre	2023-10-25T00:00:00	2024-11-06T03:00:00	7	Dirección del viento	1.61
57055	7	Sololá	701	Sololá	3	Barraneche	10	Octubre	2023-10-25T00:00:00	2024-11-06T03:00:00	1	Precipitación	0
57056	7	Sololá	701	Sololá	3	Barraneche	10	Octubre	2023-10-25T00:00:00	2024-11-06T03:00:00	8	Radiación solar	0
57057	7	Sololá	701	Sololá	3	Barraneche	10	Octubre	2023-10-25T00:00:00	2024-11-06T04:00:00	2	Temperatura media	11.9
57058	7	Sololá	701	Sololá	3	Barraneche	10	Octubre	2023-10-25T00:00:00	2024-11-06T04:00:00	4	Temperatura máxima	12.2
57059	7	Sololá	701	Sololá	3	Barraneche	10	Octubre	2023-10-25T00:00:00	2024-11-06T04:00:00	3	Temperatura mínima	11.7
57060	7	Sololá	701	Sololá	3	Barraneche	10	Octubre	2023-10-25T00:00:00	2024-11-06T04:00:00	5	Humedad	79
57061	7	Sololá	701	Sololá	3	Barraneche	10	Octubre	2023-10-25T00:00:00	2024-11-06T04:00:00	6	Velocidad del viento	3.2
57062	7	Sololá	701	Sololá	3	Barraneche	10	Octubre	2023-10-25T00:00:00	2024-11-06T04:00:00	7	Dirección del viento	3.22
57063	7	Sololá	701	Sololá	3	Barraneche	10	Octubre	2023-10-25T00:00:00	2024-11-06T04:00:00	1	Precipitación	0
57064	7	Sololá	701	Sololá	3	Barraneche	10	Octubre	2023-10-25T00:00:00	2024-11-06T04:00:00	8	Radiación solar	0
57065	7	Sololá	701	Sololá	3	Barraneche	10	Octubre	2023-10-25T00:00:00	2024-11-06T05:00:00	2	Temperatura media	12.9
57066	7	Sololá	701	Sololá	3	Barraneche	10	Octubre	2023-10-25T00:00:00	2024-11-06T05:00:00	4	Temperatura máxima	12.9
57067	7	Sololá	701	Sololá	3	Barraneche	10	Octubre	2023-10-25T00:00:00	2024-11-06T05:00:00	3	Temperatura mínima	11.9
57068	7	Sololá	701	Sololá	3	Barraneche	10	Octubre	2023-10-25T00:00:00	2024-11-06T05:00:00	5	Humedad	73
57069	7	Sololá	701	Sololá	3	Barraneche	10	Octubre	2023-10-25T00:00:00	2024-11-06T05:00:00	6	Velocidad del viento	3.2
57070	7	Sololá	701	Sololá	3	Barraneche	10	Octubre	2023-10-25T00:00:00	2024-11-06T05:00:00	7	Dirección del viento	3.22
57071	7	Sololá	701	Sololá	3	Barraneche	10	Octubre	2023-10-25T00:00:00	2024-11-06T05:00:00	1	Precipitación	0
57072	7	Sololá	701	Sololá	3	Barraneche	10	Octubre	2023-10-25T00:00:00	2024-11-06T05:00:00	8	Radiación solar	0
57073	7	Sololá	701	Sololá	3	Barraneche	10	Octubre	2023-10-25T00:00:00	2024-11-06T06:00:00	2	Temperatura media	14.1
57074	7	Sololá	701	Sololá	3	Barraneche	10	Octubre	2023-10-25T00:00:00	2024-11-06T06:00:00	4	Temperatura máxima	14.2
57075	7	Sololá	701	Sololá	3	Barraneche	10	Octubre	2023-10-25T00:00:00	2024-11-06T06:00:00	3	Temperatura mínima	12.8
57076	7	Sololá	701	Sololá	3	Barraneche	10	Octubre	2023-10-25T00:00:00	2024-11-06T06:00:00	5	Humedad	72
57077	7	Sololá	701	Sololá	3	Barraneche	10	Octubre	2023-10-25T00:00:00	2024-11-06T06:00:00	6	Velocidad del viento	3.2
57078	7	Sololá	701	Sololá	3	Barraneche	10	Octubre	2023-10-25T00:00:00	2024-11-06T06:00:00	7	Dirección del viento	3.22
57079	7	Sololá	701	Sololá	3	Barraneche	10	Octubre	2023-10-25T00:00:00	2024-11-06T06:00:00	1	Precipitación	0
57080	7	Sololá	701	Sololá	3	Barraneche	10	Octubre	2023-10-25T00:00:00	2024-11-06T06:00:00	8	Radiación solar	0
57081	7	Sololá	701	Sololá	3	Barraneche	10	Octubre	2023-10-25T00:00:00	2024-11-06T07:00:00	2	Temperatura media	14.7
57082	7	Sololá	701	Sololá	3	Barraneche	10	Octubre	2023-10-25T00:00:00	2024-11-06T07:00:00	4	Temperatura máxima	14.7
57083	7	Sololá	701	Sololá	3	Barraneche	10	Octubre	2023-10-25T00:00:00	2024-11-06T07:00:00	3	Temperatura mínima	14.1
57084	7	Sololá	701	Sololá	3	Barraneche	10	Octubre	2023-10-25T00:00:00	2024-11-06T07:00:00	5	Humedad	71
57085	7	Sololá	701	Sololá	3	Barraneche	10	Octubre	2023-10-25T00:00:00	2024-11-06T07:00:00	6	Velocidad del viento	9.7
57086	7	Sololá	701	Sololá	3	Barraneche	10	Octubre	2023-10-25T00:00:00	2024-11-06T07:00:00	7	Dirección del viento	9.66
57087	7	Sololá	701	Sololá	3	Barraneche	10	Octubre	2023-10-25T00:00:00	2024-11-06T07:00:00	1	Precipitación	0
57088	7	Sololá	701	Sololá	3	Barraneche	10	Octubre	2023-10-25T00:00:00	2024-11-06T07:00:00	8	Radiación solar	33
57089	7	Sololá	701	Sololá	3	Barraneche	10	Octubre	2023-10-25T00:00:00	2024-11-06T08:00:00	2	Temperatura media	15.8
57090	7	Sololá	701	Sololá	3	Barraneche	10	Octubre	2023-10-25T00:00:00	2024-11-06T08:00:00	4	Temperatura máxima	15.8
57091	7	Sololá	701	Sololá	3	Barraneche	10	Octubre	2023-10-25T00:00:00	2024-11-06T08:00:00	3	Temperatura mínima	14.6
57092	7	Sololá	701	Sololá	3	Barraneche	10	Octubre	2023-10-25T00:00:00	2024-11-06T08:00:00	5	Humedad	70
57093	7	Sololá	701	Sololá	3	Barraneche	10	Octubre	2023-10-25T00:00:00	2024-11-06T08:00:00	6	Velocidad del viento	9.7
57094	7	Sololá	701	Sololá	3	Barraneche	10	Octubre	2023-10-25T00:00:00	2024-11-06T08:00:00	7	Dirección del viento	9.66
57095	7	Sololá	701	Sololá	3	Barraneche	10	Octubre	2023-10-25T00:00:00	2024-11-06T08:00:00	1	Precipitación	0
57096	7	Sololá	701	Sololá	3	Barraneche	10	Octubre	2023-10-25T00:00:00	2024-11-06T08:00:00	8	Radiación solar	183
57097	7	Sololá	701	Sololá	3	Barraneche	10	Octubre	2023-10-25T00:00:00	2024-11-06T09:00:00	2	Temperatura media	16.6
57098	7	Sololá	701	Sololá	3	Barraneche	10	Octubre	2023-10-25T00:00:00	2024-11-06T09:00:00	4	Temperatura máxima	16.9
57099	7	Sololá	701	Sololá	3	Barraneche	10	Octubre	2023-10-25T00:00:00	2024-11-06T09:00:00	3	Temperatura mínima	15.8
57100	7	Sololá	701	Sololá	3	Barraneche	10	Octubre	2023-10-25T00:00:00	2024-11-06T09:00:00	5	Humedad	67
57101	7	Sololá	701	Sololá	3	Barraneche	10	Octubre	2023-10-25T00:00:00	2024-11-06T09:00:00	6	Velocidad del viento	8
57102	7	Sololá	701	Sololá	3	Barraneche	10	Octubre	2023-10-25T00:00:00	2024-11-06T09:00:00	7	Dirección del viento	8.05
57103	7	Sololá	701	Sololá	3	Barraneche	10	Octubre	2023-10-25T00:00:00	2024-11-06T09:00:00	1	Precipitación	0
57104	7	Sololá	701	Sololá	3	Barraneche	10	Octubre	2023-10-25T00:00:00	2024-11-06T09:00:00	8	Radiación solar	354
57105	7	Sololá	701	Sololá	3	Barraneche	10	Octubre	2023-10-25T00:00:00	2024-11-06T10:00:00	2	Temperatura media	17.3
57106	7	Sololá	701	Sololá	3	Barraneche	10	Octubre	2023-10-25T00:00:00	2024-11-06T10:00:00	4	Temperatura máxima	17.7
57107	7	Sololá	701	Sololá	3	Barraneche	10	Octubre	2023-10-25T00:00:00	2024-11-06T10:00:00	3	Temperatura mínima	16.6
57108	7	Sololá	701	Sololá	3	Barraneche	10	Octubre	2023-10-25T00:00:00	2024-11-06T10:00:00	5	Humedad	66
57109	7	Sololá	701	Sololá	3	Barraneche	10	Octubre	2023-10-25T00:00:00	2024-11-06T10:00:00	6	Velocidad del viento	12.9
57110	7	Sololá	701	Sololá	3	Barraneche	10	Octubre	2023-10-25T00:00:00	2024-11-06T10:00:00	7	Dirección del viento	12.87
57111	7	Sololá	701	Sololá	3	Barraneche	10	Octubre	2023-10-25T00:00:00	2024-11-06T10:00:00	1	Precipitación	0
57112	7	Sololá	701	Sololá	3	Barraneche	10	Octubre	2023-10-25T00:00:00	2024-11-06T10:00:00	8	Radiación solar	537
57113	7	Sololá	701	Sololá	3	Barraneche	10	Octubre	2023-10-25T00:00:00	2024-11-06T11:00:00	2	Temperatura media	17.6
57114	7	Sololá	701	Sololá	3	Barraneche	10	Octubre	2023-10-25T00:00:00	2024-11-06T11:00:00	4	Temperatura máxima	17.7
57115	7	Sololá	701	Sololá	3	Barraneche	10	Octubre	2023-10-25T00:00:00	2024-11-06T11:00:00	3	Temperatura mínima	17.1
57116	7	Sololá	701	Sololá	3	Barraneche	10	Octubre	2023-10-25T00:00:00	2024-11-06T11:00:00	5	Humedad	64
57117	7	Sololá	701	Sololá	3	Barraneche	10	Octubre	2023-10-25T00:00:00	2024-11-06T11:00:00	6	Velocidad del viento	11.3
57118	7	Sololá	701	Sololá	3	Barraneche	10	Octubre	2023-10-25T00:00:00	2024-11-06T11:00:00	7	Dirección del viento	11.27
57119	7	Sololá	701	Sololá	3	Barraneche	10	Octubre	2023-10-25T00:00:00	2024-11-06T11:00:00	1	Precipitación	0
57120	7	Sololá	701	Sololá	3	Barraneche	10	Octubre	2023-10-25T00:00:00	2024-11-06T11:00:00	8	Radiación solar	490
57121	7	Sololá	701	Sololá	3	Barraneche	10	Octubre	2023-10-25T00:00:00	2024-11-06T12:00:00	2	Temperatura media	17.4
57122	7	Sololá	701	Sololá	3	Barraneche	10	Octubre	2023-10-25T00:00:00	2024-11-06T12:00:00	4	Temperatura máxima	17.8
57123	7	Sololá	701	Sololá	3	Barraneche	10	Octubre	2023-10-25T00:00:00	2024-11-06T12:00:00	3	Temperatura mínima	17.3
57124	7	Sololá	701	Sololá	3	Barraneche	10	Octubre	2023-10-25T00:00:00	2024-11-06T12:00:00	5	Humedad	66
57125	7	Sololá	701	Sololá	3	Barraneche	10	Octubre	2023-10-25T00:00:00	2024-11-06T12:00:00	6	Velocidad del viento	8
57126	7	Sololá	701	Sololá	3	Barraneche	10	Octubre	2023-10-25T00:00:00	2024-11-06T12:00:00	7	Dirección del viento	8.05
57127	7	Sololá	701	Sololá	3	Barraneche	10	Octubre	2023-10-25T00:00:00	2024-11-06T12:00:00	1	Precipitación	0
57128	7	Sololá	701	Sololá	3	Barraneche	10	Octubre	2023-10-25T00:00:00	2024-11-06T12:00:00	8	Radiación solar	426
57129	7	Sololá	701	Sololá	3	Barraneche	10	Octubre	2023-10-25T00:00:00	2024-11-06T13:00:00	2	Temperatura media	18.5
57130	7	Sololá	701	Sololá	3	Barraneche	10	Octubre	2023-10-25T00:00:00	2024-11-06T13:00:00	4	Temperatura máxima	18.7
57131	7	Sololá	701	Sololá	3	Barraneche	10	Octubre	2023-10-25T00:00:00	2024-11-06T13:00:00	3	Temperatura mínima	17.4
57132	7	Sololá	701	Sololá	3	Barraneche	10	Octubre	2023-10-25T00:00:00	2024-11-06T13:00:00	5	Humedad	64
57133	7	Sololá	701	Sololá	3	Barraneche	10	Octubre	2023-10-25T00:00:00	2024-11-06T13:00:00	6	Velocidad del viento	11.3
57134	7	Sololá	701	Sololá	3	Barraneche	10	Octubre	2023-10-25T00:00:00	2024-11-06T13:00:00	7	Dirección del viento	11.27
57135	7	Sololá	701	Sololá	3	Barraneche	10	Octubre	2023-10-25T00:00:00	2024-11-06T13:00:00	1	Precipitación	0
57136	7	Sololá	701	Sololá	3	Barraneche	10	Octubre	2023-10-25T00:00:00	2024-11-06T13:00:00	8	Radiación solar	605
57137	7	Sololá	701	Sololá	3	Barraneche	10	Octubre	2023-10-25T00:00:00	2024-11-06T14:00:00	2	Temperatura media	19.4
57138	7	Sololá	701	Sololá	3	Barraneche	10	Octubre	2023-10-25T00:00:00	2024-11-06T14:00:00	4	Temperatura máxima	20.1
57139	7	Sololá	701	Sololá	3	Barraneche	10	Octubre	2023-10-25T00:00:00	2024-11-06T14:00:00	3	Temperatura mínima	18.5
57140	7	Sololá	701	Sololá	3	Barraneche	10	Octubre	2023-10-25T00:00:00	2024-11-06T14:00:00	5	Humedad	59
57141	7	Sololá	701	Sololá	3	Barraneche	10	Octubre	2023-10-25T00:00:00	2024-11-06T14:00:00	6	Velocidad del viento	9.7
57142	7	Sololá	701	Sololá	3	Barraneche	10	Octubre	2023-10-25T00:00:00	2024-11-06T14:00:00	7	Dirección del viento	9.66
57143	7	Sololá	701	Sololá	3	Barraneche	10	Octubre	2023-10-25T00:00:00	2024-11-06T14:00:00	1	Precipitación	0
57144	7	Sololá	701	Sololá	3	Barraneche	10	Octubre	2023-10-25T00:00:00	2024-11-06T14:00:00	8	Radiación solar	788
57145	7	Sololá	701	Sololá	3	Barraneche	10	Octubre	2023-10-25T00:00:00	2024-11-06T15:00:00	2	Temperatura media	17.7
57146	7	Sololá	701	Sololá	3	Barraneche	10	Octubre	2023-10-25T00:00:00	2024-11-06T15:00:00	4	Temperatura máxima	19.8
57147	7	Sololá	701	Sololá	3	Barraneche	10	Octubre	2023-10-25T00:00:00	2024-11-06T15:00:00	3	Temperatura mínima	17.5
57148	7	Sololá	701	Sololá	3	Barraneche	10	Octubre	2023-10-25T00:00:00	2024-11-06T15:00:00	5	Humedad	67
57149	7	Sololá	701	Sololá	3	Barraneche	10	Octubre	2023-10-25T00:00:00	2024-11-06T15:00:00	6	Velocidad del viento	11.3
57150	7	Sololá	701	Sololá	3	Barraneche	10	Octubre	2023-10-25T00:00:00	2024-11-06T15:00:00	7	Dirección del viento	11.27
57151	7	Sololá	701	Sololá	3	Barraneche	10	Octubre	2023-10-25T00:00:00	2024-11-06T15:00:00	1	Precipitación	0
57152	7	Sololá	701	Sololá	3	Barraneche	10	Octubre	2023-10-25T00:00:00	2024-11-06T15:00:00	8	Radiación solar	286
57153	7	Sololá	701	Sololá	3	Barraneche	10	Octubre	2023-10-25T00:00:00	2024-11-06T16:00:00	2	Temperatura media	17.6
57154	7	Sololá	701	Sololá	3	Barraneche	10	Octubre	2023-10-25T00:00:00	2024-11-06T16:00:00	4	Temperatura máxima	18.1
57155	7	Sololá	701	Sololá	3	Barraneche	10	Octubre	2023-10-25T00:00:00	2024-11-06T16:00:00	3	Temperatura mínima	17.6
57156	7	Sololá	701	Sololá	3	Barraneche	10	Octubre	2023-10-25T00:00:00	2024-11-06T16:00:00	5	Humedad	66
57157	7	Sololá	701	Sololá	3	Barraneche	10	Octubre	2023-10-25T00:00:00	2024-11-06T16:00:00	6	Velocidad del viento	9.7
57158	7	Sololá	701	Sololá	3	Barraneche	10	Octubre	2023-10-25T00:00:00	2024-11-06T16:00:00	7	Dirección del viento	9.66
57159	7	Sololá	701	Sololá	3	Barraneche	10	Octubre	2023-10-25T00:00:00	2024-11-06T16:00:00	1	Precipitación	0
57160	7	Sololá	701	Sololá	3	Barraneche	10	Octubre	2023-10-25T00:00:00	2024-11-06T16:00:00	8	Radiación solar	209
57161	7	Sololá	701	Sololá	3	Barraneche	10	Octubre	2023-10-25T00:00:00	2024-11-06T17:00:00	2	Temperatura media	16.4
57162	7	Sololá	701	Sololá	3	Barraneche	10	Octubre	2023-10-25T00:00:00	2024-11-06T17:00:00	4	Temperatura máxima	17.6
57163	7	Sololá	701	Sololá	3	Barraneche	10	Octubre	2023-10-25T00:00:00	2024-11-06T17:00:00	3	Temperatura mínima	16.4
57164	7	Sololá	701	Sololá	3	Barraneche	10	Octubre	2023-10-25T00:00:00	2024-11-06T17:00:00	5	Humedad	68
57165	7	Sololá	701	Sololá	3	Barraneche	10	Octubre	2023-10-25T00:00:00	2024-11-06T17:00:00	6	Velocidad del viento	9.7
57166	7	Sololá	701	Sololá	3	Barraneche	10	Octubre	2023-10-25T00:00:00	2024-11-06T17:00:00	7	Dirección del viento	9.66
57167	7	Sololá	701	Sololá	3	Barraneche	10	Octubre	2023-10-25T00:00:00	2024-11-06T17:00:00	1	Precipitación	0
57168	7	Sololá	701	Sololá	3	Barraneche	10	Octubre	2023-10-25T00:00:00	2024-11-06T17:00:00	8	Radiación solar	93
57169	7	Sololá	701	Sololá	3	Barraneche	10	Octubre	2023-10-25T00:00:00	2024-11-06T18:00:00	2	Temperatura media	15.7
57170	7	Sololá	701	Sololá	3	Barraneche	10	Octubre	2023-10-25T00:00:00	2024-11-06T18:00:00	4	Temperatura máxima	16.4
57171	7	Sololá	701	Sololá	3	Barraneche	10	Octubre	2023-10-25T00:00:00	2024-11-06T18:00:00	3	Temperatura mínima	15.7
57172	7	Sololá	701	Sololá	3	Barraneche	10	Octubre	2023-10-25T00:00:00	2024-11-06T18:00:00	5	Humedad	71
57173	7	Sololá	701	Sololá	3	Barraneche	10	Octubre	2023-10-25T00:00:00	2024-11-06T18:00:00	6	Velocidad del viento	4.8
57174	7	Sololá	701	Sololá	3	Barraneche	10	Octubre	2023-10-25T00:00:00	2024-11-06T18:00:00	7	Dirección del viento	4.83
57175	7	Sololá	701	Sololá	3	Barraneche	10	Octubre	2023-10-25T00:00:00	2024-11-06T18:00:00	1	Precipitación	0
57176	7	Sololá	701	Sololá	3	Barraneche	10	Octubre	2023-10-25T00:00:00	2024-11-06T18:00:00	8	Radiación solar	14
57177	7	Sololá	701	Sololá	3	Barraneche	10	Octubre	2023-10-25T00:00:00	2024-11-06T19:00:00	2	Temperatura media	15.7
57178	7	Sololá	701	Sololá	3	Barraneche	10	Octubre	2023-10-25T00:00:00	2024-11-06T19:00:00	4	Temperatura máxima	15.8
57179	7	Sololá	701	Sololá	3	Barraneche	10	Octubre	2023-10-25T00:00:00	2024-11-06T19:00:00	3	Temperatura mínima	15.6
57180	7	Sololá	701	Sololá	3	Barraneche	10	Octubre	2023-10-25T00:00:00	2024-11-06T19:00:00	5	Humedad	71
57181	7	Sololá	701	Sololá	3	Barraneche	10	Octubre	2023-10-25T00:00:00	2024-11-06T19:00:00	6	Velocidad del viento	9.7
57182	7	Sololá	701	Sololá	3	Barraneche	10	Octubre	2023-10-25T00:00:00	2024-11-06T19:00:00	7	Dirección del viento	9.66
57183	7	Sololá	701	Sololá	3	Barraneche	10	Octubre	2023-10-25T00:00:00	2024-11-06T19:00:00	1	Precipitación	0
57184	7	Sololá	701	Sololá	3	Barraneche	10	Octubre	2023-10-25T00:00:00	2024-11-06T19:00:00	8	Radiación solar	0
57185	7	Sololá	701	Sololá	3	Barraneche	10	Octubre	2023-10-25T00:00:00	2024-11-06T20:00:00	2	Temperatura media	15.8
57186	7	Sololá	701	Sololá	3	Barraneche	10	Octubre	2023-10-25T00:00:00	2024-11-06T20:00:00	4	Temperatura máxima	15.9
57187	7	Sololá	701	Sololá	3	Barraneche	10	Octubre	2023-10-25T00:00:00	2024-11-06T20:00:00	3	Temperatura mínima	15.7
57188	7	Sololá	701	Sololá	3	Barraneche	10	Octubre	2023-10-25T00:00:00	2024-11-06T20:00:00	5	Humedad	73
57189	7	Sololá	701	Sololá	3	Barraneche	10	Octubre	2023-10-25T00:00:00	2024-11-06T20:00:00	6	Velocidad del viento	4.8
57190	7	Sololá	701	Sololá	3	Barraneche	10	Octubre	2023-10-25T00:00:00	2024-11-06T20:00:00	7	Dirección del viento	4.83
57191	7	Sololá	701	Sololá	3	Barraneche	10	Octubre	2023-10-25T00:00:00	2024-11-06T20:00:00	1	Precipitación	0
57192	7	Sololá	701	Sololá	3	Barraneche	10	Octubre	2023-10-25T00:00:00	2024-11-06T20:00:00	8	Radiación solar	0
57193	7	Sololá	701	Sololá	3	Barraneche	10	Octubre	2023-10-25T00:00:00	2024-11-06T21:00:00	2	Temperatura media	15.6
57194	7	Sololá	701	Sololá	3	Barraneche	10	Octubre	2023-10-25T00:00:00	2024-11-06T21:00:00	4	Temperatura máxima	15.9
57195	7	Sololá	701	Sololá	3	Barraneche	10	Octubre	2023-10-25T00:00:00	2024-11-06T21:00:00	3	Temperatura mínima	15.5
57196	7	Sololá	701	Sololá	3	Barraneche	10	Octubre	2023-10-25T00:00:00	2024-11-06T21:00:00	5	Humedad	72
57197	7	Sololá	701	Sololá	3	Barraneche	10	Octubre	2023-10-25T00:00:00	2024-11-06T21:00:00	6	Velocidad del viento	6.4
57198	7	Sololá	701	Sololá	3	Barraneche	10	Octubre	2023-10-25T00:00:00	2024-11-06T21:00:00	7	Dirección del viento	6.44
57199	7	Sololá	701	Sololá	3	Barraneche	10	Octubre	2023-10-25T00:00:00	2024-11-06T21:00:00	1	Precipitación	0
57200	7	Sololá	701	Sololá	3	Barraneche	10	Octubre	2023-10-25T00:00:00	2024-11-06T21:00:00	8	Radiación solar	0
57201	7	Sololá	701	Sololá	3	Barraneche	10	Octubre	2023-10-25T00:00:00	2024-11-06T22:00:00	2	Temperatura media	15.1
57202	7	Sololá	701	Sololá	3	Barraneche	10	Octubre	2023-10-25T00:00:00	2024-11-06T22:00:00	4	Temperatura máxima	15.7
57203	7	Sololá	701	Sololá	3	Barraneche	10	Octubre	2023-10-25T00:00:00	2024-11-06T22:00:00	3	Temperatura mínima	15.1
57204	7	Sololá	701	Sololá	3	Barraneche	10	Octubre	2023-10-25T00:00:00	2024-11-06T22:00:00	5	Humedad	72
57205	7	Sololá	701	Sololá	3	Barraneche	10	Octubre	2023-10-25T00:00:00	2024-11-06T22:00:00	6	Velocidad del viento	8
57206	7	Sololá	701	Sololá	3	Barraneche	10	Octubre	2023-10-25T00:00:00	2024-11-06T22:00:00	7	Dirección del viento	8.05
57207	7	Sololá	701	Sololá	3	Barraneche	10	Octubre	2023-10-25T00:00:00	2024-11-06T22:00:00	1	Precipitación	0
57208	7	Sololá	701	Sololá	3	Barraneche	10	Octubre	2023-10-25T00:00:00	2024-11-06T22:00:00	8	Radiación solar	0
57209	7	Sololá	701	Sololá	3	Barraneche	10	Octubre	2023-10-25T00:00:00	2024-11-06T23:00:00	2	Temperatura media	14.7
57210	7	Sololá	701	Sololá	3	Barraneche	10	Octubre	2023-10-25T00:00:00	2024-11-06T23:00:00	4	Temperatura máxima	15.1
57211	7	Sololá	701	Sololá	3	Barraneche	10	Octubre	2023-10-25T00:00:00	2024-11-06T23:00:00	3	Temperatura mínima	14.7
57212	7	Sololá	701	Sololá	3	Barraneche	10	Octubre	2023-10-25T00:00:00	2024-11-06T23:00:00	5	Humedad	72
57213	7	Sololá	701	Sololá	3	Barraneche	10	Octubre	2023-10-25T00:00:00	2024-11-06T23:00:00	6	Velocidad del viento	6.4
57214	7	Sololá	701	Sololá	3	Barraneche	10	Octubre	2023-10-25T00:00:00	2024-11-06T23:00:00	7	Dirección del viento	6.44
57215	7	Sololá	701	Sololá	3	Barraneche	10	Octubre	2023-10-25T00:00:00	2024-11-06T23:00:00	1	Precipitación	0
57216	7	Sololá	701	Sololá	3	Barraneche	10	Octubre	2023-10-25T00:00:00	2024-11-06T23:00:00	8	Radiación solar	0
57217	7	Sololá	701	Sololá	3	Barraneche	10	Octubre	2023-10-26T00:00:00	2024-11-06T00:00:00	2	Temperatura media	14.4
57218	7	Sololá	701	Sololá	3	Barraneche	10	Octubre	2023-10-26T00:00:00	2024-11-06T00:00:00	4	Temperatura máxima	14.7
57219	7	Sololá	701	Sololá	3	Barraneche	10	Octubre	2023-10-26T00:00:00	2024-11-06T00:00:00	3	Temperatura mínima	13.8
57220	7	Sololá	701	Sololá	3	Barraneche	10	Octubre	2023-10-26T00:00:00	2024-11-06T00:00:00	5	Humedad	73
57221	7	Sololá	701	Sololá	3	Barraneche	10	Octubre	2023-10-26T00:00:00	2024-11-06T00:00:00	6	Velocidad del viento	4.8
57222	7	Sololá	701	Sololá	3	Barraneche	10	Octubre	2023-10-26T00:00:00	2024-11-06T00:00:00	7	Dirección del viento	4.83
57223	7	Sololá	701	Sololá	3	Barraneche	10	Octubre	2023-10-26T00:00:00	2024-11-06T00:00:00	1	Precipitación	0
57224	7	Sololá	701	Sololá	3	Barraneche	10	Octubre	2023-10-26T00:00:00	2024-11-06T00:00:00	8	Radiación solar	0
57225	7	Sololá	701	Sololá	3	Barraneche	10	Octubre	2023-10-26T00:00:00	2024-11-06T01:00:00	2	Temperatura media	12.3
57226	7	Sololá	701	Sololá	3	Barraneche	10	Octubre	2023-10-26T00:00:00	2024-11-06T01:00:00	4	Temperatura máxima	14.6
57227	7	Sololá	701	Sololá	3	Barraneche	10	Octubre	2023-10-26T00:00:00	2024-11-06T01:00:00	3	Temperatura mínima	12.3
57228	7	Sololá	701	Sololá	3	Barraneche	10	Octubre	2023-10-26T00:00:00	2024-11-06T01:00:00	5	Humedad	76
57229	7	Sololá	701	Sololá	3	Barraneche	10	Octubre	2023-10-26T00:00:00	2024-11-06T01:00:00	6	Velocidad del viento	3.2
57230	7	Sololá	701	Sololá	3	Barraneche	10	Octubre	2023-10-26T00:00:00	2024-11-06T01:00:00	7	Dirección del viento	3.22
57231	7	Sololá	701	Sololá	3	Barraneche	10	Octubre	2023-10-26T00:00:00	2024-11-06T01:00:00	1	Precipitación	0
57232	7	Sololá	701	Sololá	3	Barraneche	10	Octubre	2023-10-26T00:00:00	2024-11-06T01:00:00	8	Radiación solar	0
57233	7	Sololá	701	Sololá	3	Barraneche	10	Octubre	2023-10-26T00:00:00	2024-11-06T02:00:00	2	Temperatura media	12.9
57234	7	Sololá	701	Sololá	3	Barraneche	10	Octubre	2023-10-26T00:00:00	2024-11-06T02:00:00	4	Temperatura máxima	12.9
57235	7	Sololá	701	Sololá	3	Barraneche	10	Octubre	2023-10-26T00:00:00	2024-11-06T02:00:00	3	Temperatura mínima	12
57236	7	Sololá	701	Sololá	3	Barraneche	10	Octubre	2023-10-26T00:00:00	2024-11-06T02:00:00	5	Humedad	75
57237	7	Sololá	701	Sololá	3	Barraneche	10	Octubre	2023-10-26T00:00:00	2024-11-06T02:00:00	6	Velocidad del viento	3.2
57238	7	Sololá	701	Sololá	3	Barraneche	10	Octubre	2023-10-26T00:00:00	2024-11-06T02:00:00	7	Dirección del viento	3.22
57239	7	Sololá	701	Sololá	3	Barraneche	10	Octubre	2023-10-26T00:00:00	2024-11-06T02:00:00	1	Precipitación	0
57240	7	Sololá	701	Sololá	3	Barraneche	10	Octubre	2023-10-26T00:00:00	2024-11-06T02:00:00	8	Radiación solar	0
57241	7	Sololá	701	Sololá	3	Barraneche	10	Octubre	2023-10-26T00:00:00	2024-11-06T03:00:00	2	Temperatura media	12.4
57242	7	Sololá	701	Sololá	3	Barraneche	10	Octubre	2023-10-26T00:00:00	2024-11-06T03:00:00	4	Temperatura máxima	12.9
57243	7	Sololá	701	Sololá	3	Barraneche	10	Octubre	2023-10-26T00:00:00	2024-11-06T03:00:00	3	Temperatura mínima	12.1
57244	7	Sololá	701	Sololá	3	Barraneche	10	Octubre	2023-10-26T00:00:00	2024-11-06T03:00:00	5	Humedad	76
57245	7	Sololá	701	Sololá	3	Barraneche	10	Octubre	2023-10-26T00:00:00	2024-11-06T03:00:00	6	Velocidad del viento	3.2
57246	7	Sololá	701	Sololá	3	Barraneche	10	Octubre	2023-10-26T00:00:00	2024-11-06T03:00:00	7	Dirección del viento	3.22
57247	7	Sololá	701	Sololá	3	Barraneche	10	Octubre	2023-10-26T00:00:00	2024-11-06T03:00:00	1	Precipitación	0
57248	7	Sololá	701	Sololá	3	Barraneche	10	Octubre	2023-10-26T00:00:00	2024-11-06T03:00:00	8	Radiación solar	0
57249	7	Sololá	701	Sololá	3	Barraneche	10	Octubre	2023-10-26T00:00:00	2024-11-06T04:00:00	2	Temperatura media	13.1
57250	7	Sololá	701	Sololá	3	Barraneche	10	Octubre	2023-10-26T00:00:00	2024-11-06T04:00:00	4	Temperatura máxima	13.7
57251	7	Sololá	701	Sololá	3	Barraneche	10	Octubre	2023-10-26T00:00:00	2024-11-06T04:00:00	3	Temperatura mínima	12.4
57252	7	Sololá	701	Sololá	3	Barraneche	10	Octubre	2023-10-26T00:00:00	2024-11-06T04:00:00	5	Humedad	73
57253	7	Sololá	701	Sololá	3	Barraneche	10	Octubre	2023-10-26T00:00:00	2024-11-06T04:00:00	6	Velocidad del viento	3.2
57254	7	Sololá	701	Sololá	3	Barraneche	10	Octubre	2023-10-26T00:00:00	2024-11-06T04:00:00	7	Dirección del viento	3.22
57255	7	Sololá	701	Sololá	3	Barraneche	10	Octubre	2023-10-26T00:00:00	2024-11-06T04:00:00	1	Precipitación	0
57256	7	Sololá	701	Sololá	3	Barraneche	10	Octubre	2023-10-26T00:00:00	2024-11-06T04:00:00	8	Radiación solar	0
57257	7	Sololá	701	Sololá	3	Barraneche	10	Octubre	2023-10-26T00:00:00	2024-11-06T05:00:00	2	Temperatura media	14.2
57258	7	Sololá	701	Sololá	3	Barraneche	10	Octubre	2023-10-26T00:00:00	2024-11-06T05:00:00	4	Temperatura máxima	14.3
57259	7	Sololá	701	Sololá	3	Barraneche	10	Octubre	2023-10-26T00:00:00	2024-11-06T05:00:00	3	Temperatura mínima	12.6
57260	7	Sololá	701	Sololá	3	Barraneche	10	Octubre	2023-10-26T00:00:00	2024-11-06T05:00:00	5	Humedad	70
57261	7	Sololá	701	Sololá	3	Barraneche	10	Octubre	2023-10-26T00:00:00	2024-11-06T05:00:00	6	Velocidad del viento	4.8
57262	7	Sololá	701	Sololá	3	Barraneche	10	Octubre	2023-10-26T00:00:00	2024-11-06T05:00:00	7	Dirección del viento	4.83
57263	7	Sololá	701	Sololá	3	Barraneche	10	Octubre	2023-10-26T00:00:00	2024-11-06T05:00:00	1	Precipitación	0
57264	7	Sololá	701	Sololá	3	Barraneche	10	Octubre	2023-10-26T00:00:00	2024-11-06T05:00:00	8	Radiación solar	0
57265	7	Sololá	701	Sololá	3	Barraneche	10	Octubre	2023-10-26T00:00:00	2024-11-06T06:00:00	2	Temperatura media	14.1
57266	7	Sololá	701	Sololá	3	Barraneche	10	Octubre	2023-10-26T00:00:00	2024-11-06T06:00:00	4	Temperatura máxima	14.3
57267	7	Sololá	701	Sololá	3	Barraneche	10	Octubre	2023-10-26T00:00:00	2024-11-06T06:00:00	3	Temperatura mínima	13.2
57268	7	Sololá	701	Sololá	3	Barraneche	10	Octubre	2023-10-26T00:00:00	2024-11-06T06:00:00	5	Humedad	70
57269	7	Sololá	701	Sololá	3	Barraneche	10	Octubre	2023-10-26T00:00:00	2024-11-06T06:00:00	6	Velocidad del viento	6.4
57270	7	Sololá	701	Sololá	3	Barraneche	10	Octubre	2023-10-26T00:00:00	2024-11-06T06:00:00	7	Dirección del viento	6.44
57271	7	Sololá	701	Sololá	3	Barraneche	10	Octubre	2023-10-26T00:00:00	2024-11-06T06:00:00	1	Precipitación	0
57272	7	Sololá	701	Sololá	3	Barraneche	10	Octubre	2023-10-26T00:00:00	2024-11-06T06:00:00	8	Radiación solar	1
57273	7	Sololá	701	Sololá	3	Barraneche	10	Octubre	2023-10-26T00:00:00	2024-11-06T07:00:00	2	Temperatura media	15.6
57274	7	Sololá	701	Sololá	3	Barraneche	10	Octubre	2023-10-26T00:00:00	2024-11-06T07:00:00	4	Temperatura máxima	15.6
57275	7	Sololá	701	Sololá	3	Barraneche	10	Octubre	2023-10-26T00:00:00	2024-11-06T07:00:00	3	Temperatura mínima	12.9
57276	7	Sololá	701	Sololá	3	Barraneche	10	Octubre	2023-10-26T00:00:00	2024-11-06T07:00:00	5	Humedad	64
57277	7	Sololá	701	Sololá	3	Barraneche	10	Octubre	2023-10-26T00:00:00	2024-11-06T07:00:00	6	Velocidad del viento	8
57278	7	Sololá	701	Sololá	3	Barraneche	10	Octubre	2023-10-26T00:00:00	2024-11-06T07:00:00	7	Dirección del viento	8.05
57279	7	Sololá	701	Sololá	3	Barraneche	10	Octubre	2023-10-26T00:00:00	2024-11-06T07:00:00	1	Precipitación	0
57280	7	Sololá	701	Sololá	3	Barraneche	10	Octubre	2023-10-26T00:00:00	2024-11-06T07:00:00	8	Radiación solar	62
57281	7	Sololá	701	Sololá	3	Barraneche	10	Octubre	2023-10-26T00:00:00	2024-11-06T08:00:00	2	Temperatura media	16.2
57282	7	Sololá	701	Sololá	3	Barraneche	10	Octubre	2023-10-26T00:00:00	2024-11-06T08:00:00	4	Temperatura máxima	16.2
57283	7	Sololá	701	Sololá	3	Barraneche	10	Octubre	2023-10-26T00:00:00	2024-11-06T08:00:00	3	Temperatura mínima	15.6
57284	7	Sololá	701	Sololá	3	Barraneche	10	Octubre	2023-10-26T00:00:00	2024-11-06T08:00:00	5	Humedad	67
57285	7	Sololá	701	Sololá	3	Barraneche	10	Octubre	2023-10-26T00:00:00	2024-11-06T08:00:00	6	Velocidad del viento	16.1
57286	7	Sololá	701	Sololá	3	Barraneche	10	Octubre	2023-10-26T00:00:00	2024-11-06T08:00:00	7	Dirección del viento	16.09
57287	7	Sololá	701	Sololá	3	Barraneche	10	Octubre	2023-10-26T00:00:00	2024-11-06T08:00:00	1	Precipitación	0
57288	7	Sololá	701	Sololá	3	Barraneche	10	Octubre	2023-10-26T00:00:00	2024-11-06T08:00:00	8	Radiación solar	273
57289	7	Sololá	701	Sololá	3	Barraneche	10	Octubre	2023-10-26T00:00:00	2024-11-06T09:00:00	2	Temperatura media	17.3
57290	7	Sololá	701	Sololá	3	Barraneche	10	Octubre	2023-10-26T00:00:00	2024-11-06T09:00:00	4	Temperatura máxima	17.8
57291	7	Sololá	701	Sololá	3	Barraneche	10	Octubre	2023-10-26T00:00:00	2024-11-06T09:00:00	3	Temperatura mínima	16.2
57292	7	Sololá	701	Sololá	3	Barraneche	10	Octubre	2023-10-26T00:00:00	2024-11-06T09:00:00	5	Humedad	64
57293	7	Sololá	701	Sololá	3	Barraneche	10	Octubre	2023-10-26T00:00:00	2024-11-06T09:00:00	6	Velocidad del viento	12.9
57294	7	Sololá	701	Sololá	3	Barraneche	10	Octubre	2023-10-26T00:00:00	2024-11-06T09:00:00	7	Dirección del viento	12.87
57295	7	Sololá	701	Sololá	3	Barraneche	10	Octubre	2023-10-26T00:00:00	2024-11-06T09:00:00	1	Precipitación	0
57296	7	Sololá	701	Sololá	3	Barraneche	10	Octubre	2023-10-26T00:00:00	2024-11-06T09:00:00	8	Radiación solar	566
57297	7	Sololá	701	Sololá	3	Barraneche	10	Octubre	2023-10-26T00:00:00	2024-11-06T10:00:00	2	Temperatura media	17.2
57298	7	Sololá	701	Sololá	3	Barraneche	10	Octubre	2023-10-26T00:00:00	2024-11-06T10:00:00	4	Temperatura máxima	17.8
57299	7	Sololá	701	Sololá	3	Barraneche	10	Octubre	2023-10-26T00:00:00	2024-11-06T10:00:00	3	Temperatura mínima	17.1
57300	7	Sololá	701	Sololá	3	Barraneche	10	Octubre	2023-10-26T00:00:00	2024-11-06T10:00:00	5	Humedad	67
57301	7	Sololá	701	Sololá	3	Barraneche	10	Octubre	2023-10-26T00:00:00	2024-11-06T10:00:00	6	Velocidad del viento	14.5
57302	7	Sololá	701	Sololá	3	Barraneche	10	Octubre	2023-10-26T00:00:00	2024-11-06T10:00:00	7	Dirección del viento	14.48
57303	7	Sololá	701	Sololá	3	Barraneche	10	Octubre	2023-10-26T00:00:00	2024-11-06T10:00:00	1	Precipitación	0
57304	7	Sololá	701	Sololá	3	Barraneche	10	Octubre	2023-10-26T00:00:00	2024-11-06T10:00:00	8	Radiación solar	647
57305	7	Sololá	701	Sololá	3	Barraneche	10	Octubre	2023-10-26T00:00:00	2024-11-06T11:00:00	2	Temperatura media	17.3
57306	7	Sololá	701	Sololá	3	Barraneche	10	Octubre	2023-10-26T00:00:00	2024-11-06T11:00:00	4	Temperatura máxima	17.8
57307	7	Sololá	701	Sololá	3	Barraneche	10	Octubre	2023-10-26T00:00:00	2024-11-06T11:00:00	3	Temperatura mínima	17.2
57308	7	Sololá	701	Sololá	3	Barraneche	10	Octubre	2023-10-26T00:00:00	2024-11-06T11:00:00	5	Humedad	66
57309	7	Sololá	701	Sololá	3	Barraneche	10	Octubre	2023-10-26T00:00:00	2024-11-06T11:00:00	6	Velocidad del viento	12.9
57310	7	Sololá	701	Sololá	3	Barraneche	10	Octubre	2023-10-26T00:00:00	2024-11-06T11:00:00	7	Dirección del viento	12.87
57311	7	Sololá	701	Sololá	3	Barraneche	10	Octubre	2023-10-26T00:00:00	2024-11-06T11:00:00	1	Precipitación	0
57312	7	Sololá	701	Sololá	3	Barraneche	10	Octubre	2023-10-26T00:00:00	2024-11-06T11:00:00	8	Radiación solar	530
57313	7	Sololá	701	Sololá	3	Barraneche	10	Octubre	2023-10-26T00:00:00	2024-11-06T12:00:00	2	Temperatura media	18.3
57314	7	Sololá	701	Sololá	3	Barraneche	10	Octubre	2023-10-26T00:00:00	2024-11-06T12:00:00	4	Temperatura máxima	18.5
57315	7	Sololá	701	Sololá	3	Barraneche	10	Octubre	2023-10-26T00:00:00	2024-11-06T12:00:00	3	Temperatura mínima	17.3
57316	7	Sololá	701	Sololá	3	Barraneche	10	Octubre	2023-10-26T00:00:00	2024-11-06T12:00:00	5	Humedad	63
57317	7	Sololá	701	Sololá	3	Barraneche	10	Octubre	2023-10-26T00:00:00	2024-11-06T12:00:00	6	Velocidad del viento	11.3
57318	7	Sololá	701	Sololá	3	Barraneche	10	Octubre	2023-10-26T00:00:00	2024-11-06T12:00:00	7	Dirección del viento	11.27
57319	7	Sololá	701	Sololá	3	Barraneche	10	Octubre	2023-10-26T00:00:00	2024-11-06T12:00:00	1	Precipitación	0
57320	7	Sololá	701	Sololá	3	Barraneche	10	Octubre	2023-10-26T00:00:00	2024-11-06T12:00:00	8	Radiación solar	620
57321	7	Sololá	701	Sololá	3	Barraneche	10	Octubre	2023-10-26T00:00:00	2024-11-06T13:00:00	2	Temperatura media	18.6
57322	7	Sololá	701	Sololá	3	Barraneche	10	Octubre	2023-10-26T00:00:00	2024-11-06T13:00:00	4	Temperatura máxima	19.4
57323	7	Sololá	701	Sololá	3	Barraneche	10	Octubre	2023-10-26T00:00:00	2024-11-06T13:00:00	3	Temperatura mínima	18.3
57324	7	Sololá	701	Sololá	3	Barraneche	10	Octubre	2023-10-26T00:00:00	2024-11-06T13:00:00	5	Humedad	61
57325	7	Sololá	701	Sololá	3	Barraneche	10	Octubre	2023-10-26T00:00:00	2024-11-06T13:00:00	6	Velocidad del viento	12.9
57326	7	Sololá	701	Sololá	3	Barraneche	10	Octubre	2023-10-26T00:00:00	2024-11-06T13:00:00	7	Dirección del viento	12.87
57327	7	Sololá	701	Sololá	3	Barraneche	10	Octubre	2023-10-26T00:00:00	2024-11-06T13:00:00	1	Precipitación	0
57328	7	Sololá	701	Sololá	3	Barraneche	10	Octubre	2023-10-26T00:00:00	2024-11-06T13:00:00	8	Radiación solar	674
57329	7	Sololá	701	Sololá	3	Barraneche	10	Octubre	2023-10-26T00:00:00	2024-11-06T14:00:00	2	Temperatura media	19.2
57330	7	Sololá	701	Sololá	3	Barraneche	10	Octubre	2023-10-26T00:00:00	2024-11-06T14:00:00	4	Temperatura máxima	20.2
57331	7	Sololá	701	Sololá	3	Barraneche	10	Octubre	2023-10-26T00:00:00	2024-11-06T14:00:00	3	Temperatura mínima	18.6
57332	7	Sololá	701	Sololá	3	Barraneche	10	Octubre	2023-10-26T00:00:00	2024-11-06T14:00:00	5	Humedad	60
57333	7	Sololá	701	Sololá	3	Barraneche	10	Octubre	2023-10-26T00:00:00	2024-11-06T14:00:00	6	Velocidad del viento	8
57334	7	Sololá	701	Sololá	3	Barraneche	10	Octubre	2023-10-26T00:00:00	2024-11-06T14:00:00	7	Dirección del viento	8.05
57335	7	Sololá	701	Sololá	3	Barraneche	10	Octubre	2023-10-26T00:00:00	2024-11-06T14:00:00	1	Precipitación	0
57336	7	Sololá	701	Sololá	3	Barraneche	10	Octubre	2023-10-26T00:00:00	2024-11-06T14:00:00	8	Radiación solar	500
57337	7	Sololá	701	Sololá	3	Barraneche	10	Octubre	2023-10-26T00:00:00	2024-11-06T15:00:00	2	Temperatura media	18.3
57338	7	Sololá	701	Sololá	3	Barraneche	10	Octubre	2023-10-26T00:00:00	2024-11-06T15:00:00	4	Temperatura máxima	19.8
57339	7	Sololá	701	Sololá	3	Barraneche	10	Octubre	2023-10-26T00:00:00	2024-11-06T15:00:00	3	Temperatura mínima	18.3
57340	7	Sololá	701	Sololá	3	Barraneche	10	Octubre	2023-10-26T00:00:00	2024-11-06T15:00:00	5	Humedad	62
57341	7	Sololá	701	Sololá	3	Barraneche	10	Octubre	2023-10-26T00:00:00	2024-11-06T15:00:00	6	Velocidad del viento	11.3
57342	7	Sololá	701	Sololá	3	Barraneche	10	Octubre	2023-10-26T00:00:00	2024-11-06T15:00:00	7	Dirección del viento	11.27
57343	7	Sololá	701	Sololá	3	Barraneche	10	Octubre	2023-10-26T00:00:00	2024-11-06T15:00:00	1	Precipitación	0
57344	7	Sololá	701	Sololá	3	Barraneche	10	Octubre	2023-10-26T00:00:00	2024-11-06T15:00:00	8	Radiación solar	393
57345	7	Sololá	701	Sololá	3	Barraneche	10	Octubre	2023-10-26T00:00:00	2024-11-06T16:00:00	2	Temperatura media	17.8
57346	7	Sololá	701	Sololá	3	Barraneche	10	Octubre	2023-10-26T00:00:00	2024-11-06T16:00:00	4	Temperatura máxima	19.1
57347	7	Sololá	701	Sololá	3	Barraneche	10	Octubre	2023-10-26T00:00:00	2024-11-06T16:00:00	3	Temperatura mínima	17.8
57348	7	Sololá	701	Sololá	3	Barraneche	10	Octubre	2023-10-26T00:00:00	2024-11-06T16:00:00	5	Humedad	65
57349	7	Sololá	701	Sololá	3	Barraneche	10	Octubre	2023-10-26T00:00:00	2024-11-06T16:00:00	6	Velocidad del viento	9.7
57350	7	Sololá	701	Sololá	3	Barraneche	10	Octubre	2023-10-26T00:00:00	2024-11-06T16:00:00	7	Dirección del viento	9.66
57351	7	Sololá	701	Sololá	3	Barraneche	10	Octubre	2023-10-26T00:00:00	2024-11-06T16:00:00	1	Precipitación	0
57352	7	Sololá	701	Sololá	3	Barraneche	10	Octubre	2023-10-26T00:00:00	2024-11-06T16:00:00	8	Radiación solar	278
57353	7	Sololá	701	Sololá	3	Barraneche	10	Octubre	2023-10-26T00:00:00	2024-11-06T17:00:00	2	Temperatura media	17.4
57354	7	Sololá	701	Sololá	3	Barraneche	10	Octubre	2023-10-26T00:00:00	2024-11-06T17:00:00	4	Temperatura máxima	19.2
57355	7	Sololá	701	Sololá	3	Barraneche	10	Octubre	2023-10-26T00:00:00	2024-11-06T17:00:00	3	Temperatura mínima	17.4
57356	7	Sololá	701	Sololá	3	Barraneche	10	Octubre	2023-10-26T00:00:00	2024-11-06T17:00:00	5	Humedad	65
57357	7	Sololá	701	Sololá	3	Barraneche	10	Octubre	2023-10-26T00:00:00	2024-11-06T17:00:00	6	Velocidad del viento	8
57358	7	Sololá	701	Sololá	3	Barraneche	10	Octubre	2023-10-26T00:00:00	2024-11-06T17:00:00	7	Dirección del viento	8.05
57359	7	Sololá	701	Sololá	3	Barraneche	10	Octubre	2023-10-26T00:00:00	2024-11-06T17:00:00	1	Precipitación	0
57360	7	Sololá	701	Sololá	3	Barraneche	10	Octubre	2023-10-26T00:00:00	2024-11-06T17:00:00	8	Radiación solar	195
57361	7	Sololá	701	Sololá	3	Barraneche	10	Octubre	2023-10-26T00:00:00	2024-11-06T18:00:00	2	Temperatura media	15.7
57362	7	Sololá	701	Sololá	3	Barraneche	10	Octubre	2023-10-26T00:00:00	2024-11-06T18:00:00	4	Temperatura máxima	17.4
57363	7	Sololá	701	Sololá	3	Barraneche	10	Octubre	2023-10-26T00:00:00	2024-11-06T18:00:00	3	Temperatura mínima	15.7
57364	7	Sololá	701	Sololá	3	Barraneche	10	Octubre	2023-10-26T00:00:00	2024-11-06T18:00:00	5	Humedad	68
57365	7	Sololá	701	Sololá	3	Barraneche	10	Octubre	2023-10-26T00:00:00	2024-11-06T18:00:00	6	Velocidad del viento	6.4
57366	7	Sololá	701	Sololá	3	Barraneche	10	Octubre	2023-10-26T00:00:00	2024-11-06T18:00:00	7	Dirección del viento	6.44
57367	7	Sololá	701	Sololá	3	Barraneche	10	Octubre	2023-10-26T00:00:00	2024-11-06T18:00:00	1	Precipitación	0
57368	7	Sololá	701	Sololá	3	Barraneche	10	Octubre	2023-10-26T00:00:00	2024-11-06T18:00:00	8	Radiación solar	18
57369	7	Sololá	701	Sololá	3	Barraneche	10	Octubre	2023-10-26T00:00:00	2024-11-06T19:00:00	2	Temperatura media	15.7
57370	7	Sololá	701	Sololá	3	Barraneche	10	Octubre	2023-10-26T00:00:00	2024-11-06T19:00:00	4	Temperatura máxima	15.8
57371	7	Sololá	701	Sololá	3	Barraneche	10	Octubre	2023-10-26T00:00:00	2024-11-06T19:00:00	3	Temperatura mínima	15.6
57372	7	Sololá	701	Sololá	3	Barraneche	10	Octubre	2023-10-26T00:00:00	2024-11-06T19:00:00	5	Humedad	69
57373	7	Sololá	701	Sololá	3	Barraneche	10	Octubre	2023-10-26T00:00:00	2024-11-06T19:00:00	6	Velocidad del viento	9.7
57374	7	Sololá	701	Sololá	3	Barraneche	10	Octubre	2023-10-26T00:00:00	2024-11-06T19:00:00	7	Dirección del viento	9.66
57375	7	Sololá	701	Sololá	3	Barraneche	10	Octubre	2023-10-26T00:00:00	2024-11-06T19:00:00	1	Precipitación	0
57376	7	Sololá	701	Sololá	3	Barraneche	10	Octubre	2023-10-26T00:00:00	2024-11-06T19:00:00	8	Radiación solar	0
57377	7	Sololá	701	Sololá	3	Barraneche	10	Octubre	2023-10-26T00:00:00	2024-11-06T20:00:00	2	Temperatura media	15.5
57378	7	Sololá	701	Sololá	3	Barraneche	10	Octubre	2023-10-26T00:00:00	2024-11-06T20:00:00	4	Temperatura máxima	15.7
57379	7	Sololá	701	Sololá	3	Barraneche	10	Octubre	2023-10-26T00:00:00	2024-11-06T20:00:00	3	Temperatura mínima	15.3
57380	7	Sololá	701	Sololá	3	Barraneche	10	Octubre	2023-10-26T00:00:00	2024-11-06T20:00:00	5	Humedad	68
57381	7	Sololá	701	Sololá	3	Barraneche	10	Octubre	2023-10-26T00:00:00	2024-11-06T20:00:00	6	Velocidad del viento	6.4
57382	7	Sololá	701	Sololá	3	Barraneche	10	Octubre	2023-10-26T00:00:00	2024-11-06T20:00:00	7	Dirección del viento	6.44
57383	7	Sololá	701	Sololá	3	Barraneche	10	Octubre	2023-10-26T00:00:00	2024-11-06T20:00:00	1	Precipitación	0
57384	7	Sololá	701	Sololá	3	Barraneche	10	Octubre	2023-10-26T00:00:00	2024-11-06T20:00:00	8	Radiación solar	0
57385	7	Sololá	701	Sololá	3	Barraneche	10	Octubre	2023-10-26T00:00:00	2024-11-06T21:00:00	2	Temperatura media	15.4
57386	7	Sololá	701	Sololá	3	Barraneche	10	Octubre	2023-10-26T00:00:00	2024-11-06T21:00:00	4	Temperatura máxima	15.6
57387	7	Sololá	701	Sololá	3	Barraneche	10	Octubre	2023-10-26T00:00:00	2024-11-06T21:00:00	3	Temperatura mínima	15.2
57388	7	Sololá	701	Sololá	3	Barraneche	10	Octubre	2023-10-26T00:00:00	2024-11-06T21:00:00	5	Humedad	70
57389	7	Sololá	701	Sololá	3	Barraneche	10	Octubre	2023-10-26T00:00:00	2024-11-06T21:00:00	6	Velocidad del viento	3.2
57390	7	Sololá	701	Sololá	3	Barraneche	10	Octubre	2023-10-26T00:00:00	2024-11-06T21:00:00	7	Dirección del viento	3.22
57391	7	Sololá	701	Sololá	3	Barraneche	10	Octubre	2023-10-26T00:00:00	2024-11-06T21:00:00	1	Precipitación	0
57392	7	Sololá	701	Sololá	3	Barraneche	10	Octubre	2023-10-26T00:00:00	2024-11-06T21:00:00	8	Radiación solar	0
57393	7	Sololá	701	Sololá	3	Barraneche	10	Octubre	2023-10-26T00:00:00	2024-11-06T22:00:00	2	Temperatura media	15.4
57394	7	Sololá	701	Sololá	3	Barraneche	10	Octubre	2023-10-26T00:00:00	2024-11-06T22:00:00	4	Temperatura máxima	15.6
57395	7	Sololá	701	Sololá	3	Barraneche	10	Octubre	2023-10-26T00:00:00	2024-11-06T22:00:00	3	Temperatura mínima	15.2
57396	7	Sololá	701	Sololá	3	Barraneche	10	Octubre	2023-10-26T00:00:00	2024-11-06T22:00:00	5	Humedad	70
57397	7	Sololá	701	Sololá	3	Barraneche	10	Octubre	2023-10-26T00:00:00	2024-11-06T22:00:00	6	Velocidad del viento	4.8
57398	7	Sololá	701	Sololá	3	Barraneche	10	Octubre	2023-10-26T00:00:00	2024-11-06T22:00:00	7	Dirección del viento	4.83
57399	7	Sololá	701	Sololá	3	Barraneche	10	Octubre	2023-10-26T00:00:00	2024-11-06T22:00:00	1	Precipitación	0
57400	7	Sololá	701	Sololá	3	Barraneche	10	Octubre	2023-10-26T00:00:00	2024-11-06T22:00:00	8	Radiación solar	0
57401	7	Sololá	701	Sololá	3	Barraneche	10	Octubre	2023-10-26T00:00:00	2024-11-06T23:00:00	2	Temperatura media	15.4
57402	7	Sololá	701	Sololá	3	Barraneche	10	Octubre	2023-10-26T00:00:00	2024-11-06T23:00:00	4	Temperatura máxima	15.6
57403	7	Sololá	701	Sololá	3	Barraneche	10	Octubre	2023-10-26T00:00:00	2024-11-06T23:00:00	3	Temperatura mínima	15.1
57404	7	Sololá	701	Sololá	3	Barraneche	10	Octubre	2023-10-26T00:00:00	2024-11-06T23:00:00	5	Humedad	71
57405	7	Sololá	701	Sololá	3	Barraneche	10	Octubre	2023-10-26T00:00:00	2024-11-06T23:00:00	6	Velocidad del viento	8
57406	7	Sololá	701	Sololá	3	Barraneche	10	Octubre	2023-10-26T00:00:00	2024-11-06T23:00:00	7	Dirección del viento	8.05
57407	7	Sololá	701	Sololá	3	Barraneche	10	Octubre	2023-10-26T00:00:00	2024-11-06T23:00:00	1	Precipitación	0
57408	7	Sololá	701	Sololá	3	Barraneche	10	Octubre	2023-10-26T00:00:00	2024-11-06T23:00:00	8	Radiación solar	0
57409	7	Sololá	701	Sololá	3	Barraneche	10	Octubre	2023-10-27T00:00:00	2024-11-06T00:00:00	2	Temperatura media	15.3
57410	7	Sololá	701	Sololá	3	Barraneche	10	Octubre	2023-10-27T00:00:00	2024-11-06T00:00:00	4	Temperatura máxima	15.5
57411	7	Sololá	701	Sololá	3	Barraneche	10	Octubre	2023-10-27T00:00:00	2024-11-06T00:00:00	3	Temperatura mínima	15.3
57412	7	Sololá	701	Sololá	3	Barraneche	10	Octubre	2023-10-27T00:00:00	2024-11-06T00:00:00	5	Humedad	71
57413	7	Sololá	701	Sololá	3	Barraneche	10	Octubre	2023-10-27T00:00:00	2024-11-06T00:00:00	6	Velocidad del viento	6.4
57414	7	Sololá	701	Sololá	3	Barraneche	10	Octubre	2023-10-27T00:00:00	2024-11-06T00:00:00	7	Dirección del viento	6.44
57415	7	Sololá	701	Sololá	3	Barraneche	10	Octubre	2023-10-27T00:00:00	2024-11-06T00:00:00	1	Precipitación	0
57416	7	Sololá	701	Sololá	3	Barraneche	10	Octubre	2023-10-27T00:00:00	2024-11-06T00:00:00	8	Radiación solar	0
57417	7	Sololá	701	Sololá	3	Barraneche	10	Octubre	2023-10-27T00:00:00	2024-11-06T01:00:00	2	Temperatura media	14.3
57418	7	Sololá	701	Sololá	3	Barraneche	10	Octubre	2023-10-27T00:00:00	2024-11-06T01:00:00	4	Temperatura máxima	15.3
57419	7	Sololá	701	Sololá	3	Barraneche	10	Octubre	2023-10-27T00:00:00	2024-11-06T01:00:00	3	Temperatura mínima	14
57420	7	Sololá	701	Sololá	3	Barraneche	10	Octubre	2023-10-27T00:00:00	2024-11-06T01:00:00	5	Humedad	75
57421	7	Sololá	701	Sololá	3	Barraneche	10	Octubre	2023-10-27T00:00:00	2024-11-06T01:00:00	6	Velocidad del viento	4.8
57422	7	Sololá	701	Sololá	3	Barraneche	10	Octubre	2023-10-27T00:00:00	2024-11-06T01:00:00	7	Dirección del viento	4.83
57423	7	Sololá	701	Sololá	3	Barraneche	10	Octubre	2023-10-27T00:00:00	2024-11-06T01:00:00	1	Precipitación	0
57424	7	Sololá	701	Sololá	3	Barraneche	10	Octubre	2023-10-27T00:00:00	2024-11-06T01:00:00	8	Radiación solar	0
57425	7	Sololá	701	Sololá	3	Barraneche	10	Octubre	2023-10-27T00:00:00	2024-11-06T02:00:00	2	Temperatura media	14.1
57426	7	Sololá	701	Sololá	3	Barraneche	10	Octubre	2023-10-27T00:00:00	2024-11-06T02:00:00	4	Temperatura máxima	14.3
57427	7	Sololá	701	Sololá	3	Barraneche	10	Octubre	2023-10-27T00:00:00	2024-11-06T02:00:00	3	Temperatura mínima	13.5
57428	7	Sololá	701	Sololá	3	Barraneche	10	Octubre	2023-10-27T00:00:00	2024-11-06T02:00:00	5	Humedad	74
57429	7	Sololá	701	Sololá	3	Barraneche	10	Octubre	2023-10-27T00:00:00	2024-11-06T02:00:00	6	Velocidad del viento	4.8
57430	7	Sololá	701	Sololá	3	Barraneche	10	Octubre	2023-10-27T00:00:00	2024-11-06T02:00:00	7	Dirección del viento	4.83
57431	7	Sololá	701	Sololá	3	Barraneche	10	Octubre	2023-10-27T00:00:00	2024-11-06T02:00:00	1	Precipitación	0
57432	7	Sololá	701	Sololá	3	Barraneche	10	Octubre	2023-10-27T00:00:00	2024-11-06T02:00:00	8	Radiación solar	0
57433	7	Sololá	701	Sololá	3	Barraneche	10	Octubre	2023-10-27T00:00:00	2024-11-06T03:00:00	2	Temperatura media	14.7
57434	7	Sololá	701	Sololá	3	Barraneche	10	Octubre	2023-10-27T00:00:00	2024-11-06T03:00:00	4	Temperatura máxima	14.7
57435	7	Sololá	701	Sololá	3	Barraneche	10	Octubre	2023-10-27T00:00:00	2024-11-06T03:00:00	3	Temperatura mínima	14.1
57436	7	Sololá	701	Sololá	3	Barraneche	10	Octubre	2023-10-27T00:00:00	2024-11-06T03:00:00	5	Humedad	71
57437	7	Sololá	701	Sololá	3	Barraneche	10	Octubre	2023-10-27T00:00:00	2024-11-06T03:00:00	6	Velocidad del viento	6.4
57438	7	Sololá	701	Sololá	3	Barraneche	10	Octubre	2023-10-27T00:00:00	2024-11-06T03:00:00	7	Dirección del viento	6.44
57439	7	Sololá	701	Sololá	3	Barraneche	10	Octubre	2023-10-27T00:00:00	2024-11-06T03:00:00	1	Precipitación	0
57440	7	Sololá	701	Sololá	3	Barraneche	10	Octubre	2023-10-27T00:00:00	2024-11-06T03:00:00	8	Radiación solar	0
57441	7	Sololá	701	Sololá	3	Barraneche	10	Octubre	2023-10-27T00:00:00	2024-11-06T04:00:00	2	Temperatura media	14.2
57442	7	Sololá	701	Sololá	3	Barraneche	10	Octubre	2023-10-27T00:00:00	2024-11-06T04:00:00	4	Temperatura máxima	14.7
57443	7	Sololá	701	Sololá	3	Barraneche	10	Octubre	2023-10-27T00:00:00	2024-11-06T04:00:00	3	Temperatura mínima	14.1
57444	7	Sololá	701	Sololá	3	Barraneche	10	Octubre	2023-10-27T00:00:00	2024-11-06T04:00:00	5	Humedad	72
57445	7	Sololá	701	Sololá	3	Barraneche	10	Octubre	2023-10-27T00:00:00	2024-11-06T04:00:00	6	Velocidad del viento	6.4
57446	7	Sololá	701	Sololá	3	Barraneche	10	Octubre	2023-10-27T00:00:00	2024-11-06T04:00:00	7	Dirección del viento	6.44
57447	7	Sololá	701	Sololá	3	Barraneche	10	Octubre	2023-10-27T00:00:00	2024-11-06T04:00:00	1	Precipitación	0
57448	7	Sololá	701	Sololá	3	Barraneche	10	Octubre	2023-10-27T00:00:00	2024-11-06T04:00:00	8	Radiación solar	0
57449	7	Sololá	701	Sololá	3	Barraneche	10	Octubre	2023-10-27T00:00:00	2024-11-06T05:00:00	2	Temperatura media	14.3
57450	7	Sololá	701	Sololá	3	Barraneche	10	Octubre	2023-10-27T00:00:00	2024-11-06T05:00:00	4	Temperatura máxima	14.5
57451	7	Sololá	701	Sololá	3	Barraneche	10	Octubre	2023-10-27T00:00:00	2024-11-06T05:00:00	3	Temperatura mínima	14.2
57452	7	Sololá	701	Sololá	3	Barraneche	10	Octubre	2023-10-27T00:00:00	2024-11-06T05:00:00	5	Humedad	72
57453	7	Sololá	701	Sololá	3	Barraneche	10	Octubre	2023-10-27T00:00:00	2024-11-06T05:00:00	6	Velocidad del viento	17.7
57454	7	Sololá	701	Sololá	3	Barraneche	10	Octubre	2023-10-27T00:00:00	2024-11-06T05:00:00	7	Dirección del viento	17.7
57455	7	Sololá	701	Sololá	3	Barraneche	10	Octubre	2023-10-27T00:00:00	2024-11-06T05:00:00	1	Precipitación	0
57456	7	Sololá	701	Sololá	3	Barraneche	10	Octubre	2023-10-27T00:00:00	2024-11-06T05:00:00	8	Radiación solar	0
57457	7	Sololá	701	Sololá	3	Barraneche	10	Octubre	2023-10-27T00:00:00	2024-11-06T06:00:00	2	Temperatura media	14.7
57458	7	Sololá	701	Sololá	3	Barraneche	10	Octubre	2023-10-27T00:00:00	2024-11-06T06:00:00	4	Temperatura máxima	14.7
57459	7	Sololá	701	Sololá	3	Barraneche	10	Octubre	2023-10-27T00:00:00	2024-11-06T06:00:00	3	Temperatura mínima	14.2
57460	7	Sololá	701	Sololá	3	Barraneche	10	Octubre	2023-10-27T00:00:00	2024-11-06T06:00:00	5	Humedad	71
57461	7	Sololá	701	Sololá	3	Barraneche	10	Octubre	2023-10-27T00:00:00	2024-11-06T06:00:00	6	Velocidad del viento	11.3
57462	7	Sololá	701	Sololá	3	Barraneche	10	Octubre	2023-10-27T00:00:00	2024-11-06T06:00:00	7	Dirección del viento	11.27
57463	7	Sololá	701	Sololá	3	Barraneche	10	Octubre	2023-10-27T00:00:00	2024-11-06T06:00:00	1	Precipitación	0
57464	7	Sololá	701	Sololá	3	Barraneche	10	Octubre	2023-10-27T00:00:00	2024-11-06T06:00:00	8	Radiación solar	0
57465	7	Sololá	701	Sololá	3	Barraneche	10	Octubre	2023-10-27T00:00:00	2024-11-06T07:00:00	2	Temperatura media	15.2
57466	7	Sololá	701	Sololá	3	Barraneche	10	Octubre	2023-10-27T00:00:00	2024-11-06T07:00:00	4	Temperatura máxima	15.2
57467	7	Sololá	701	Sololá	3	Barraneche	10	Octubre	2023-10-27T00:00:00	2024-11-06T07:00:00	3	Temperatura mínima	14.5
57468	7	Sololá	701	Sololá	3	Barraneche	10	Octubre	2023-10-27T00:00:00	2024-11-06T07:00:00	5	Humedad	71
57469	7	Sololá	701	Sololá	3	Barraneche	10	Octubre	2023-10-27T00:00:00	2024-11-06T07:00:00	6	Velocidad del viento	14.5
57470	7	Sololá	701	Sololá	3	Barraneche	10	Octubre	2023-10-27T00:00:00	2024-11-06T07:00:00	7	Dirección del viento	14.48
57471	7	Sololá	701	Sololá	3	Barraneche	10	Octubre	2023-10-27T00:00:00	2024-11-06T07:00:00	1	Precipitación	0
57472	7	Sololá	701	Sololá	3	Barraneche	10	Octubre	2023-10-27T00:00:00	2024-11-06T07:00:00	8	Radiación solar	55
57473	7	Sololá	701	Sololá	3	Barraneche	10	Octubre	2023-10-27T00:00:00	2024-11-06T08:00:00	2	Temperatura media	15.9
57474	7	Sololá	701	Sololá	3	Barraneche	10	Octubre	2023-10-27T00:00:00	2024-11-06T08:00:00	4	Temperatura máxima	16.1
57475	7	Sololá	701	Sololá	3	Barraneche	10	Octubre	2023-10-27T00:00:00	2024-11-06T08:00:00	3	Temperatura mínima	15.2
57476	7	Sololá	701	Sololá	3	Barraneche	10	Octubre	2023-10-27T00:00:00	2024-11-06T08:00:00	5	Humedad	71
57477	7	Sololá	701	Sololá	3	Barraneche	10	Octubre	2023-10-27T00:00:00	2024-11-06T08:00:00	6	Velocidad del viento	16.1
57478	7	Sololá	701	Sololá	3	Barraneche	10	Octubre	2023-10-27T00:00:00	2024-11-06T08:00:00	7	Dirección del viento	16.09
57479	7	Sololá	701	Sololá	3	Barraneche	10	Octubre	2023-10-27T00:00:00	2024-11-06T08:00:00	1	Precipitación	0
57480	7	Sololá	701	Sololá	3	Barraneche	10	Octubre	2023-10-27T00:00:00	2024-11-06T08:00:00	8	Radiación solar	176
57481	7	Sololá	701	Sololá	3	Barraneche	10	Octubre	2023-10-27T00:00:00	2024-11-06T09:00:00	2	Temperatura media	15.8
57482	7	Sololá	701	Sololá	3	Barraneche	10	Octubre	2023-10-27T00:00:00	2024-11-06T09:00:00	4	Temperatura máxima	15.9
57483	7	Sololá	701	Sololá	3	Barraneche	10	Octubre	2023-10-27T00:00:00	2024-11-06T09:00:00	3	Temperatura mínima	15.3
57484	7	Sololá	701	Sololá	3	Barraneche	10	Octubre	2023-10-27T00:00:00	2024-11-06T09:00:00	5	Humedad	72
57485	7	Sololá	701	Sololá	3	Barraneche	10	Octubre	2023-10-27T00:00:00	2024-11-06T09:00:00	6	Velocidad del viento	16.1
57486	7	Sololá	701	Sololá	3	Barraneche	10	Octubre	2023-10-27T00:00:00	2024-11-06T09:00:00	7	Dirección del viento	16.09
57487	7	Sololá	701	Sololá	3	Barraneche	10	Octubre	2023-10-27T00:00:00	2024-11-06T09:00:00	1	Precipitación	0
57488	7	Sololá	701	Sololá	3	Barraneche	10	Octubre	2023-10-27T00:00:00	2024-11-06T09:00:00	8	Radiación solar	312
57489	7	Sololá	701	Sololá	3	Barraneche	10	Octubre	2023-10-27T00:00:00	2024-11-06T10:00:00	2	Temperatura media	15.8
57490	7	Sololá	701	Sololá	3	Barraneche	10	Octubre	2023-10-27T00:00:00	2024-11-06T10:00:00	4	Temperatura máxima	16.3
57491	7	Sololá	701	Sololá	3	Barraneche	10	Octubre	2023-10-27T00:00:00	2024-11-06T10:00:00	3	Temperatura mínima	15.4
57492	7	Sololá	701	Sololá	3	Barraneche	10	Octubre	2023-10-27T00:00:00	2024-11-06T10:00:00	5	Humedad	72
57493	7	Sololá	701	Sololá	3	Barraneche	10	Octubre	2023-10-27T00:00:00	2024-11-06T10:00:00	6	Velocidad del viento	14.5
57494	7	Sololá	701	Sololá	3	Barraneche	10	Octubre	2023-10-27T00:00:00	2024-11-06T10:00:00	7	Dirección del viento	14.48
57495	7	Sololá	701	Sololá	3	Barraneche	10	Octubre	2023-10-27T00:00:00	2024-11-06T10:00:00	1	Precipitación	0.2
57496	7	Sololá	701	Sololá	3	Barraneche	10	Octubre	2023-10-27T00:00:00	2024-11-06T10:00:00	8	Radiación solar	369
57497	7	Sololá	701	Sololá	3	Barraneche	10	Octubre	2023-10-27T00:00:00	2024-11-06T11:00:00	2	Temperatura media	16
57498	7	Sololá	701	Sololá	3	Barraneche	10	Octubre	2023-10-27T00:00:00	2024-11-06T11:00:00	4	Temperatura máxima	16
57499	7	Sololá	701	Sololá	3	Barraneche	10	Octubre	2023-10-27T00:00:00	2024-11-06T11:00:00	3	Temperatura mínima	15.3
57500	7	Sololá	701	Sololá	3	Barraneche	10	Octubre	2023-10-27T00:00:00	2024-11-06T11:00:00	5	Humedad	65
57501	7	Sololá	701	Sololá	3	Barraneche	10	Octubre	2023-10-27T00:00:00	2024-11-06T11:00:00	6	Velocidad del viento	17.7
57502	7	Sololá	701	Sololá	3	Barraneche	10	Octubre	2023-10-27T00:00:00	2024-11-06T11:00:00	7	Dirección del viento	17.7
57503	7	Sololá	701	Sololá	3	Barraneche	10	Octubre	2023-10-27T00:00:00	2024-11-06T11:00:00	1	Precipitación	0
57504	7	Sololá	701	Sololá	3	Barraneche	10	Octubre	2023-10-27T00:00:00	2024-11-06T11:00:00	8	Radiación solar	325
57505	7	Sololá	701	Sololá	3	Barraneche	10	Octubre	2023-10-27T00:00:00	2024-11-06T12:00:00	2	Temperatura media	17.6
57506	7	Sololá	701	Sololá	3	Barraneche	10	Octubre	2023-10-27T00:00:00	2024-11-06T12:00:00	4	Temperatura máxima	17.6
57507	7	Sololá	701	Sololá	3	Barraneche	10	Octubre	2023-10-27T00:00:00	2024-11-06T12:00:00	3	Temperatura mínima	16
57508	7	Sololá	701	Sololá	3	Barraneche	10	Octubre	2023-10-27T00:00:00	2024-11-06T12:00:00	5	Humedad	63
57509	7	Sololá	701	Sololá	3	Barraneche	10	Octubre	2023-10-27T00:00:00	2024-11-06T12:00:00	6	Velocidad del viento	12.9
57510	7	Sololá	701	Sololá	3	Barraneche	10	Octubre	2023-10-27T00:00:00	2024-11-06T12:00:00	7	Dirección del viento	12.87
57511	7	Sololá	701	Sololá	3	Barraneche	10	Octubre	2023-10-27T00:00:00	2024-11-06T12:00:00	1	Precipitación	0
57512	7	Sololá	701	Sololá	3	Barraneche	10	Octubre	2023-10-27T00:00:00	2024-11-06T12:00:00	8	Radiación solar	497
57513	7	Sololá	701	Sololá	3	Barraneche	10	Octubre	2023-10-27T00:00:00	2024-11-06T13:00:00	2	Temperatura media	16.1
57514	7	Sololá	701	Sololá	3	Barraneche	10	Octubre	2023-10-27T00:00:00	2024-11-06T13:00:00	4	Temperatura máxima	17.7
57515	7	Sololá	701	Sololá	3	Barraneche	10	Octubre	2023-10-27T00:00:00	2024-11-06T13:00:00	3	Temperatura mínima	16.1
57516	7	Sololá	701	Sololá	3	Barraneche	10	Octubre	2023-10-27T00:00:00	2024-11-06T13:00:00	5	Humedad	68
57517	7	Sololá	701	Sololá	3	Barraneche	10	Octubre	2023-10-27T00:00:00	2024-11-06T13:00:00	6	Velocidad del viento	8
57518	7	Sololá	701	Sololá	3	Barraneche	10	Octubre	2023-10-27T00:00:00	2024-11-06T13:00:00	7	Dirección del viento	8.05
57519	7	Sololá	701	Sololá	3	Barraneche	10	Octubre	2023-10-27T00:00:00	2024-11-06T13:00:00	1	Precipitación	0.2
57520	7	Sololá	701	Sololá	3	Barraneche	10	Octubre	2023-10-27T00:00:00	2024-11-06T13:00:00	8	Radiación solar	291
57521	7	Sololá	701	Sololá	3	Barraneche	10	Octubre	2023-10-27T00:00:00	2024-11-06T14:00:00	2	Temperatura media	15.8
57522	7	Sololá	701	Sololá	3	Barraneche	10	Octubre	2023-10-27T00:00:00	2024-11-06T14:00:00	4	Temperatura máxima	16.2
57523	7	Sololá	701	Sololá	3	Barraneche	10	Octubre	2023-10-27T00:00:00	2024-11-06T14:00:00	3	Temperatura mínima	15.4
57524	7	Sololá	701	Sololá	3	Barraneche	10	Octubre	2023-10-27T00:00:00	2024-11-06T14:00:00	5	Humedad	69
57525	7	Sololá	701	Sololá	3	Barraneche	10	Octubre	2023-10-27T00:00:00	2024-11-06T14:00:00	6	Velocidad del viento	6.4
57526	7	Sololá	701	Sololá	3	Barraneche	10	Octubre	2023-10-27T00:00:00	2024-11-06T14:00:00	7	Dirección del viento	6.44
57527	7	Sololá	701	Sololá	3	Barraneche	10	Octubre	2023-10-27T00:00:00	2024-11-06T14:00:00	1	Precipitación	0.4
57528	7	Sololá	701	Sololá	3	Barraneche	10	Octubre	2023-10-27T00:00:00	2024-11-06T14:00:00	8	Radiación solar	248
57529	7	Sololá	701	Sololá	3	Barraneche	10	Octubre	2023-10-27T00:00:00	2024-11-06T15:00:00	2	Temperatura media	15.1
57530	7	Sololá	701	Sololá	3	Barraneche	10	Octubre	2023-10-27T00:00:00	2024-11-06T15:00:00	4	Temperatura máxima	15.8
57531	7	Sololá	701	Sololá	3	Barraneche	10	Octubre	2023-10-27T00:00:00	2024-11-06T15:00:00	3	Temperatura mínima	14.7
57532	7	Sololá	701	Sololá	3	Barraneche	10	Octubre	2023-10-27T00:00:00	2024-11-06T15:00:00	5	Humedad	72
57533	7	Sololá	701	Sololá	3	Barraneche	10	Octubre	2023-10-27T00:00:00	2024-11-06T15:00:00	6	Velocidad del viento	3.2
57534	7	Sololá	701	Sololá	3	Barraneche	10	Octubre	2023-10-27T00:00:00	2024-11-06T15:00:00	7	Dirección del viento	3.22
57535	7	Sololá	701	Sololá	3	Barraneche	10	Octubre	2023-10-27T00:00:00	2024-11-06T15:00:00	1	Precipitación	0.4
57536	7	Sololá	701	Sololá	3	Barraneche	10	Octubre	2023-10-27T00:00:00	2024-11-06T15:00:00	8	Radiación solar	153
57537	7	Sololá	701	Sololá	3	Barraneche	10	Octubre	2023-10-27T00:00:00	2024-11-06T16:00:00	2	Temperatura media	16.2
57538	7	Sololá	701	Sololá	3	Barraneche	10	Octubre	2023-10-27T00:00:00	2024-11-06T16:00:00	4	Temperatura máxima	16.2
57539	7	Sololá	701	Sololá	3	Barraneche	10	Octubre	2023-10-27T00:00:00	2024-11-06T16:00:00	3	Temperatura mínima	15.1
57540	7	Sololá	701	Sololá	3	Barraneche	10	Octubre	2023-10-27T00:00:00	2024-11-06T16:00:00	5	Humedad	69
57541	7	Sololá	701	Sololá	3	Barraneche	10	Octubre	2023-10-27T00:00:00	2024-11-06T16:00:00	6	Velocidad del viento	8
57542	7	Sololá	701	Sololá	3	Barraneche	10	Octubre	2023-10-27T00:00:00	2024-11-06T16:00:00	7	Dirección del viento	8.05
57543	7	Sololá	701	Sololá	3	Barraneche	10	Octubre	2023-10-27T00:00:00	2024-11-06T16:00:00	1	Precipitación	0
57544	7	Sololá	701	Sololá	3	Barraneche	10	Octubre	2023-10-27T00:00:00	2024-11-06T16:00:00	8	Radiación solar	152
57545	7	Sololá	701	Sololá	3	Barraneche	10	Octubre	2023-10-27T00:00:00	2024-11-06T17:00:00	2	Temperatura media	14.8
57546	7	Sololá	701	Sololá	3	Barraneche	10	Octubre	2023-10-27T00:00:00	2024-11-06T17:00:00	4	Temperatura máxima	16.3
57547	7	Sololá	701	Sololá	3	Barraneche	10	Octubre	2023-10-27T00:00:00	2024-11-06T17:00:00	3	Temperatura mínima	14.8
57548	7	Sololá	701	Sololá	3	Barraneche	10	Octubre	2023-10-27T00:00:00	2024-11-06T17:00:00	5	Humedad	74
57549	7	Sololá	701	Sololá	3	Barraneche	10	Octubre	2023-10-27T00:00:00	2024-11-06T17:00:00	6	Velocidad del viento	11.3
57550	7	Sololá	701	Sololá	3	Barraneche	10	Octubre	2023-10-27T00:00:00	2024-11-06T17:00:00	7	Dirección del viento	11.27
57551	7	Sololá	701	Sololá	3	Barraneche	10	Octubre	2023-10-27T00:00:00	2024-11-06T17:00:00	1	Precipitación	0
57552	7	Sololá	701	Sololá	3	Barraneche	10	Octubre	2023-10-27T00:00:00	2024-11-06T17:00:00	8	Radiación solar	126
57553	7	Sololá	701	Sololá	3	Barraneche	10	Octubre	2023-10-27T00:00:00	2024-11-06T18:00:00	2	Temperatura media	14.6
57554	7	Sololá	701	Sololá	3	Barraneche	10	Octubre	2023-10-27T00:00:00	2024-11-06T18:00:00	4	Temperatura máxima	14.8
57555	7	Sololá	701	Sololá	3	Barraneche	10	Octubre	2023-10-27T00:00:00	2024-11-06T18:00:00	3	Temperatura mínima	14.4
57556	7	Sololá	701	Sololá	3	Barraneche	10	Octubre	2023-10-27T00:00:00	2024-11-06T18:00:00	5	Humedad	75
57557	7	Sololá	701	Sololá	3	Barraneche	10	Octubre	2023-10-27T00:00:00	2024-11-06T18:00:00	6	Velocidad del viento	11.3
57558	7	Sololá	701	Sololá	3	Barraneche	10	Octubre	2023-10-27T00:00:00	2024-11-06T18:00:00	7	Dirección del viento	11.27
57559	7	Sololá	701	Sololá	3	Barraneche	10	Octubre	2023-10-27T00:00:00	2024-11-06T18:00:00	1	Precipitación	0.2
57560	7	Sololá	701	Sololá	3	Barraneche	10	Octubre	2023-10-27T00:00:00	2024-11-06T18:00:00	8	Radiación solar	6
57561	7	Sololá	701	Sololá	3	Barraneche	10	Octubre	2023-10-27T00:00:00	2024-11-06T19:00:00	2	Temperatura media	14.8
57562	7	Sololá	701	Sololá	3	Barraneche	10	Octubre	2023-10-27T00:00:00	2024-11-06T19:00:00	4	Temperatura máxima	14.9
57563	7	Sololá	701	Sololá	3	Barraneche	10	Octubre	2023-10-27T00:00:00	2024-11-06T19:00:00	3	Temperatura mínima	14.4
57564	7	Sololá	701	Sololá	3	Barraneche	10	Octubre	2023-10-27T00:00:00	2024-11-06T19:00:00	5	Humedad	73
57565	7	Sololá	701	Sololá	3	Barraneche	10	Octubre	2023-10-27T00:00:00	2024-11-06T19:00:00	6	Velocidad del viento	11.3
57566	7	Sololá	701	Sololá	3	Barraneche	10	Octubre	2023-10-27T00:00:00	2024-11-06T19:00:00	7	Dirección del viento	11.27
57567	7	Sololá	701	Sololá	3	Barraneche	10	Octubre	2023-10-27T00:00:00	2024-11-06T19:00:00	1	Precipitación	0
57568	7	Sololá	701	Sololá	3	Barraneche	10	Octubre	2023-10-27T00:00:00	2024-11-06T19:00:00	8	Radiación solar	0
57569	7	Sololá	701	Sololá	3	Barraneche	10	Octubre	2023-10-27T00:00:00	2024-11-06T20:00:00	2	Temperatura media	14.3
57570	7	Sololá	701	Sololá	3	Barraneche	10	Octubre	2023-10-27T00:00:00	2024-11-06T20:00:00	4	Temperatura máxima	14.8
57571	7	Sololá	701	Sololá	3	Barraneche	10	Octubre	2023-10-27T00:00:00	2024-11-06T20:00:00	3	Temperatura mínima	14
57572	7	Sololá	701	Sololá	3	Barraneche	10	Octubre	2023-10-27T00:00:00	2024-11-06T20:00:00	5	Humedad	76
57573	7	Sololá	701	Sololá	3	Barraneche	10	Octubre	2023-10-27T00:00:00	2024-11-06T20:00:00	6	Velocidad del viento	11.3
57574	7	Sololá	701	Sololá	3	Barraneche	10	Octubre	2023-10-27T00:00:00	2024-11-06T20:00:00	7	Dirección del viento	11.27
57575	7	Sololá	701	Sololá	3	Barraneche	10	Octubre	2023-10-27T00:00:00	2024-11-06T20:00:00	1	Precipitación	0.4
57576	7	Sololá	701	Sololá	3	Barraneche	10	Octubre	2023-10-27T00:00:00	2024-11-06T20:00:00	8	Radiación solar	0
57577	7	Sololá	701	Sololá	3	Barraneche	10	Octubre	2023-10-27T00:00:00	2024-11-06T21:00:00	2	Temperatura media	14.2
57578	7	Sololá	701	Sololá	3	Barraneche	10	Octubre	2023-10-27T00:00:00	2024-11-06T21:00:00	4	Temperatura máxima	14.4
57579	7	Sololá	701	Sololá	3	Barraneche	10	Octubre	2023-10-27T00:00:00	2024-11-06T21:00:00	3	Temperatura mínima	14.2
57580	7	Sololá	701	Sololá	3	Barraneche	10	Octubre	2023-10-27T00:00:00	2024-11-06T21:00:00	5	Humedad	76
57581	7	Sololá	701	Sololá	3	Barraneche	10	Octubre	2023-10-27T00:00:00	2024-11-06T21:00:00	6	Velocidad del viento	9.7
57582	7	Sololá	701	Sololá	3	Barraneche	10	Octubre	2023-10-27T00:00:00	2024-11-06T21:00:00	7	Dirección del viento	9.66
57583	7	Sololá	701	Sololá	3	Barraneche	10	Octubre	2023-10-27T00:00:00	2024-11-06T21:00:00	1	Precipitación	0.2
57584	7	Sololá	701	Sololá	3	Barraneche	10	Octubre	2023-10-27T00:00:00	2024-11-06T21:00:00	8	Radiación solar	0
57585	7	Sololá	701	Sololá	3	Barraneche	10	Octubre	2023-10-27T00:00:00	2024-11-06T22:00:00	2	Temperatura media	14.4
57586	7	Sololá	701	Sololá	3	Barraneche	10	Octubre	2023-10-27T00:00:00	2024-11-06T22:00:00	4	Temperatura máxima	14.6
57587	7	Sololá	701	Sololá	3	Barraneche	10	Octubre	2023-10-27T00:00:00	2024-11-06T22:00:00	3	Temperatura mínima	14.2
57588	7	Sololá	701	Sololá	3	Barraneche	10	Octubre	2023-10-27T00:00:00	2024-11-06T22:00:00	5	Humedad	74
57589	7	Sololá	701	Sololá	3	Barraneche	10	Octubre	2023-10-27T00:00:00	2024-11-06T22:00:00	6	Velocidad del viento	8
57590	7	Sololá	701	Sololá	3	Barraneche	10	Octubre	2023-10-27T00:00:00	2024-11-06T22:00:00	7	Dirección del viento	8.05
57591	7	Sololá	701	Sololá	3	Barraneche	10	Octubre	2023-10-27T00:00:00	2024-11-06T22:00:00	1	Precipitación	0
57592	7	Sololá	701	Sololá	3	Barraneche	10	Octubre	2023-10-27T00:00:00	2024-11-06T22:00:00	8	Radiación solar	0
57593	7	Sololá	701	Sololá	3	Barraneche	10	Octubre	2023-10-27T00:00:00	2024-11-06T23:00:00	2	Temperatura media	13.4
57594	7	Sololá	701	Sololá	3	Barraneche	10	Octubre	2023-10-27T00:00:00	2024-11-06T23:00:00	4	Temperatura máxima	14.4
57595	7	Sololá	701	Sololá	3	Barraneche	10	Octubre	2023-10-27T00:00:00	2024-11-06T23:00:00	3	Temperatura mínima	13.4
57596	7	Sololá	701	Sololá	3	Barraneche	10	Octubre	2023-10-27T00:00:00	2024-11-06T23:00:00	5	Humedad	79
57597	7	Sololá	701	Sololá	3	Barraneche	10	Octubre	2023-10-27T00:00:00	2024-11-06T23:00:00	6	Velocidad del viento	6.4
57598	7	Sololá	701	Sololá	3	Barraneche	10	Octubre	2023-10-27T00:00:00	2024-11-06T23:00:00	7	Dirección del viento	6.44
57599	7	Sololá	701	Sololá	3	Barraneche	10	Octubre	2023-10-27T00:00:00	2024-11-06T23:00:00	1	Precipitación	0.2
57600	7	Sololá	701	Sololá	3	Barraneche	10	Octubre	2023-10-27T00:00:00	2024-11-06T23:00:00	8	Radiación solar	0
57601	7	Sololá	701	Sololá	3	Barraneche	10	Octubre	2023-10-28T00:00:00	2024-11-06T00:00:00	2	Temperatura media	13.1
57602	7	Sololá	701	Sololá	3	Barraneche	10	Octubre	2023-10-28T00:00:00	2024-11-06T00:00:00	4	Temperatura máxima	13.4
57603	7	Sololá	701	Sololá	3	Barraneche	10	Octubre	2023-10-28T00:00:00	2024-11-06T00:00:00	3	Temperatura mínima	13.1
57604	7	Sololá	701	Sololá	3	Barraneche	10	Octubre	2023-10-28T00:00:00	2024-11-06T00:00:00	5	Humedad	84
57605	7	Sololá	701	Sololá	3	Barraneche	10	Octubre	2023-10-28T00:00:00	2024-11-06T00:00:00	6	Velocidad del viento	4.8
57606	7	Sololá	701	Sololá	3	Barraneche	10	Octubre	2023-10-28T00:00:00	2024-11-06T00:00:00	7	Dirección del viento	4.83
57607	7	Sololá	701	Sololá	3	Barraneche	10	Octubre	2023-10-28T00:00:00	2024-11-06T00:00:00	1	Precipitación	0.2
57608	7	Sololá	701	Sololá	3	Barraneche	10	Octubre	2023-10-28T00:00:00	2024-11-06T00:00:00	8	Radiación solar	0
57609	7	Sololá	701	Sololá	3	Barraneche	10	Octubre	2023-10-28T00:00:00	2024-11-06T01:00:00	2	Temperatura media	13.5
57610	7	Sololá	701	Sololá	3	Barraneche	10	Octubre	2023-10-28T00:00:00	2024-11-06T01:00:00	4	Temperatura máxima	13.6
57611	7	Sololá	701	Sololá	3	Barraneche	10	Octubre	2023-10-28T00:00:00	2024-11-06T01:00:00	3	Temperatura mínima	13.1
57612	7	Sololá	701	Sololá	3	Barraneche	10	Octubre	2023-10-28T00:00:00	2024-11-06T01:00:00	5	Humedad	76
57613	7	Sololá	701	Sololá	3	Barraneche	10	Octubre	2023-10-28T00:00:00	2024-11-06T01:00:00	6	Velocidad del viento	6.4
57614	7	Sololá	701	Sololá	3	Barraneche	10	Octubre	2023-10-28T00:00:00	2024-11-06T01:00:00	7	Dirección del viento	6.44
57615	7	Sololá	701	Sololá	3	Barraneche	10	Octubre	2023-10-28T00:00:00	2024-11-06T01:00:00	1	Precipitación	0.2
57616	7	Sololá	701	Sololá	3	Barraneche	10	Octubre	2023-10-28T00:00:00	2024-11-06T01:00:00	8	Radiación solar	0
57617	7	Sololá	701	Sololá	3	Barraneche	10	Octubre	2023-10-28T00:00:00	2024-11-06T02:00:00	2	Temperatura media	13.6
57618	7	Sololá	701	Sololá	3	Barraneche	10	Octubre	2023-10-28T00:00:00	2024-11-06T02:00:00	4	Temperatura máxima	13.7
57619	7	Sololá	701	Sololá	3	Barraneche	10	Octubre	2023-10-28T00:00:00	2024-11-06T02:00:00	3	Temperatura mínima	13.4
57620	7	Sololá	701	Sololá	3	Barraneche	10	Octubre	2023-10-28T00:00:00	2024-11-06T02:00:00	5	Humedad	75
57621	7	Sololá	701	Sololá	3	Barraneche	10	Octubre	2023-10-28T00:00:00	2024-11-06T02:00:00	6	Velocidad del viento	8
57622	7	Sololá	701	Sololá	3	Barraneche	10	Octubre	2023-10-28T00:00:00	2024-11-06T02:00:00	7	Dirección del viento	8.05
57623	7	Sololá	701	Sololá	3	Barraneche	10	Octubre	2023-10-28T00:00:00	2024-11-06T02:00:00	1	Precipitación	0
57624	7	Sololá	701	Sololá	3	Barraneche	10	Octubre	2023-10-28T00:00:00	2024-11-06T02:00:00	8	Radiación solar	0
57625	7	Sololá	701	Sololá	3	Barraneche	10	Octubre	2023-10-28T00:00:00	2024-11-06T03:00:00	2	Temperatura media	13.8
57626	7	Sololá	701	Sololá	3	Barraneche	10	Octubre	2023-10-28T00:00:00	2024-11-06T03:00:00	4	Temperatura máxima	13.8
57627	7	Sololá	701	Sololá	3	Barraneche	10	Octubre	2023-10-28T00:00:00	2024-11-06T03:00:00	3	Temperatura mínima	13.4
57628	7	Sololá	701	Sololá	3	Barraneche	10	Octubre	2023-10-28T00:00:00	2024-11-06T03:00:00	5	Humedad	73
57629	7	Sololá	701	Sololá	3	Barraneche	10	Octubre	2023-10-28T00:00:00	2024-11-06T03:00:00	6	Velocidad del viento	14.5
57630	7	Sololá	701	Sololá	3	Barraneche	10	Octubre	2023-10-28T00:00:00	2024-11-06T03:00:00	7	Dirección del viento	14.48
57631	7	Sololá	701	Sololá	3	Barraneche	10	Octubre	2023-10-28T00:00:00	2024-11-06T03:00:00	1	Precipitación	0
57632	7	Sololá	701	Sololá	3	Barraneche	10	Octubre	2023-10-28T00:00:00	2024-11-06T03:00:00	8	Radiación solar	0
57633	7	Sololá	701	Sololá	3	Barraneche	10	Octubre	2023-10-28T00:00:00	2024-11-06T04:00:00	2	Temperatura media	14.1
57634	7	Sololá	701	Sololá	3	Barraneche	10	Octubre	2023-10-28T00:00:00	2024-11-06T04:00:00	4	Temperatura máxima	14.1
57635	7	Sololá	701	Sololá	3	Barraneche	10	Octubre	2023-10-28T00:00:00	2024-11-06T04:00:00	3	Temperatura mínima	13.7
57636	7	Sololá	701	Sololá	3	Barraneche	10	Octubre	2023-10-28T00:00:00	2024-11-06T04:00:00	5	Humedad	72
57637	7	Sololá	701	Sololá	3	Barraneche	10	Octubre	2023-10-28T00:00:00	2024-11-06T04:00:00	6	Velocidad del viento	9.7
57638	7	Sololá	701	Sololá	3	Barraneche	10	Octubre	2023-10-28T00:00:00	2024-11-06T04:00:00	7	Dirección del viento	9.66
57639	7	Sololá	701	Sololá	3	Barraneche	10	Octubre	2023-10-28T00:00:00	2024-11-06T04:00:00	1	Precipitación	0
57640	7	Sololá	701	Sololá	3	Barraneche	10	Octubre	2023-10-28T00:00:00	2024-11-06T04:00:00	8	Radiación solar	0
57641	7	Sololá	701	Sololá	3	Barraneche	10	Octubre	2023-10-28T00:00:00	2024-11-06T05:00:00	2	Temperatura media	13.9
57642	7	Sololá	701	Sololá	3	Barraneche	10	Octubre	2023-10-28T00:00:00	2024-11-06T05:00:00	4	Temperatura máxima	14.3
57643	7	Sololá	701	Sololá	3	Barraneche	10	Octubre	2023-10-28T00:00:00	2024-11-06T05:00:00	3	Temperatura mínima	13.8
57644	7	Sololá	701	Sololá	3	Barraneche	10	Octubre	2023-10-28T00:00:00	2024-11-06T05:00:00	5	Humedad	70
57645	7	Sololá	701	Sololá	3	Barraneche	10	Octubre	2023-10-28T00:00:00	2024-11-06T05:00:00	6	Velocidad del viento	14.5
57646	7	Sololá	701	Sololá	3	Barraneche	10	Octubre	2023-10-28T00:00:00	2024-11-06T05:00:00	7	Dirección del viento	14.48
57647	7	Sololá	701	Sololá	3	Barraneche	10	Octubre	2023-10-28T00:00:00	2024-11-06T05:00:00	1	Precipitación	0
57648	7	Sololá	701	Sololá	3	Barraneche	10	Octubre	2023-10-28T00:00:00	2024-11-06T05:00:00	8	Radiación solar	0
57649	7	Sololá	701	Sololá	3	Barraneche	10	Octubre	2023-10-28T00:00:00	2024-11-06T06:00:00	2	Temperatura media	12.8
57650	7	Sololá	701	Sololá	3	Barraneche	10	Octubre	2023-10-28T00:00:00	2024-11-06T06:00:00	4	Temperatura máxima	13.9
57651	7	Sololá	701	Sololá	3	Barraneche	10	Octubre	2023-10-28T00:00:00	2024-11-06T06:00:00	3	Temperatura mínima	12.7
57652	7	Sololá	701	Sololá	3	Barraneche	10	Octubre	2023-10-28T00:00:00	2024-11-06T06:00:00	5	Humedad	68
57653	7	Sololá	701	Sololá	3	Barraneche	10	Octubre	2023-10-28T00:00:00	2024-11-06T06:00:00	6	Velocidad del viento	19.3
57654	7	Sololá	701	Sololá	3	Barraneche	10	Octubre	2023-10-28T00:00:00	2024-11-06T06:00:00	7	Dirección del viento	19.31
57655	7	Sololá	701	Sololá	3	Barraneche	10	Octubre	2023-10-28T00:00:00	2024-11-06T06:00:00	1	Precipitación	0
57656	7	Sololá	701	Sololá	3	Barraneche	10	Octubre	2023-10-28T00:00:00	2024-11-06T06:00:00	8	Radiación solar	1
57657	7	Sololá	701	Sololá	3	Barraneche	10	Octubre	2023-10-28T00:00:00	2024-11-06T07:00:00	2	Temperatura media	13.9
57658	7	Sololá	701	Sololá	3	Barraneche	10	Octubre	2023-10-28T00:00:00	2024-11-06T07:00:00	4	Temperatura máxima	13.9
57659	7	Sololá	701	Sololá	3	Barraneche	10	Octubre	2023-10-28T00:00:00	2024-11-06T07:00:00	3	Temperatura mínima	12.8
57660	7	Sololá	701	Sololá	3	Barraneche	10	Octubre	2023-10-28T00:00:00	2024-11-06T07:00:00	5	Humedad	65
57661	7	Sololá	701	Sololá	3	Barraneche	10	Octubre	2023-10-28T00:00:00	2024-11-06T07:00:00	6	Velocidad del viento	19.3
57662	7	Sololá	701	Sololá	3	Barraneche	10	Octubre	2023-10-28T00:00:00	2024-11-06T07:00:00	7	Dirección del viento	19.31
57663	7	Sololá	701	Sololá	3	Barraneche	10	Octubre	2023-10-28T00:00:00	2024-11-06T07:00:00	1	Precipitación	0
57664	7	Sololá	701	Sololá	3	Barraneche	10	Octubre	2023-10-28T00:00:00	2024-11-06T07:00:00	8	Radiación solar	52
57665	7	Sololá	701	Sololá	3	Barraneche	10	Octubre	2023-10-28T00:00:00	2024-11-06T08:00:00	2	Temperatura media	14.7
57666	7	Sololá	701	Sololá	3	Barraneche	10	Octubre	2023-10-28T00:00:00	2024-11-06T08:00:00	4	Temperatura máxima	14.7
57667	7	Sololá	701	Sololá	3	Barraneche	10	Octubre	2023-10-28T00:00:00	2024-11-06T08:00:00	3	Temperatura mínima	13.9
57668	7	Sololá	701	Sololá	3	Barraneche	10	Octubre	2023-10-28T00:00:00	2024-11-06T08:00:00	5	Humedad	69
57669	7	Sololá	701	Sololá	3	Barraneche	10	Octubre	2023-10-28T00:00:00	2024-11-06T08:00:00	6	Velocidad del viento	25.7
57670	7	Sololá	701	Sololá	3	Barraneche	10	Octubre	2023-10-28T00:00:00	2024-11-06T08:00:00	7	Dirección del viento	25.75
57671	7	Sololá	701	Sololá	3	Barraneche	10	Octubre	2023-10-28T00:00:00	2024-11-06T08:00:00	1	Precipitación	0
57672	7	Sololá	701	Sololá	3	Barraneche	10	Octubre	2023-10-28T00:00:00	2024-11-06T08:00:00	8	Radiación solar	310
57673	7	Sololá	701	Sololá	3	Barraneche	10	Octubre	2023-10-28T00:00:00	2024-11-06T09:00:00	2	Temperatura media	16.3
57674	7	Sololá	701	Sololá	3	Barraneche	10	Octubre	2023-10-28T00:00:00	2024-11-06T09:00:00	4	Temperatura máxima	16.3
57675	7	Sololá	701	Sololá	3	Barraneche	10	Octubre	2023-10-28T00:00:00	2024-11-06T09:00:00	3	Temperatura mínima	14.7
57676	7	Sololá	701	Sololá	3	Barraneche	10	Octubre	2023-10-28T00:00:00	2024-11-06T09:00:00	5	Humedad	68
57677	7	Sololá	701	Sololá	3	Barraneche	10	Octubre	2023-10-28T00:00:00	2024-11-06T09:00:00	6	Velocidad del viento	17.7
57678	7	Sololá	701	Sololá	3	Barraneche	10	Octubre	2023-10-28T00:00:00	2024-11-06T09:00:00	7	Dirección del viento	17.7
57679	7	Sololá	701	Sololá	3	Barraneche	10	Octubre	2023-10-28T00:00:00	2024-11-06T09:00:00	1	Precipitación	0
57680	7	Sololá	701	Sololá	3	Barraneche	10	Octubre	2023-10-28T00:00:00	2024-11-06T09:00:00	8	Radiación solar	556
57681	7	Sololá	701	Sololá	3	Barraneche	10	Octubre	2023-10-28T00:00:00	2024-11-06T10:00:00	2	Temperatura media	17.6
57682	7	Sololá	701	Sololá	3	Barraneche	10	Octubre	2023-10-28T00:00:00	2024-11-06T10:00:00	4	Temperatura máxima	17.6
57683	7	Sololá	701	Sololá	3	Barraneche	10	Octubre	2023-10-28T00:00:00	2024-11-06T10:00:00	3	Temperatura mínima	16.3
57684	7	Sololá	701	Sololá	3	Barraneche	10	Octubre	2023-10-28T00:00:00	2024-11-06T10:00:00	5	Humedad	64
57685	7	Sololá	701	Sololá	3	Barraneche	10	Octubre	2023-10-28T00:00:00	2024-11-06T10:00:00	6	Velocidad del viento	14.5
57686	7	Sololá	701	Sololá	3	Barraneche	10	Octubre	2023-10-28T00:00:00	2024-11-06T10:00:00	7	Dirección del viento	14.48
57687	7	Sololá	701	Sololá	3	Barraneche	10	Octubre	2023-10-28T00:00:00	2024-11-06T10:00:00	1	Precipitación	0
57688	7	Sololá	701	Sololá	3	Barraneche	10	Octubre	2023-10-28T00:00:00	2024-11-06T10:00:00	8	Radiación solar	762
57689	7	Sololá	701	Sololá	3	Barraneche	10	Octubre	2023-10-28T00:00:00	2024-11-06T11:00:00	2	Temperatura media	17.7
57690	7	Sololá	701	Sololá	3	Barraneche	10	Octubre	2023-10-28T00:00:00	2024-11-06T11:00:00	4	Temperatura máxima	18.3
57691	7	Sololá	701	Sololá	3	Barraneche	10	Octubre	2023-10-28T00:00:00	2024-11-06T11:00:00	3	Temperatura mínima	17.5
57692	7	Sololá	701	Sololá	3	Barraneche	10	Octubre	2023-10-28T00:00:00	2024-11-06T11:00:00	5	Humedad	63
57693	7	Sololá	701	Sololá	3	Barraneche	10	Octubre	2023-10-28T00:00:00	2024-11-06T11:00:00	6	Velocidad del viento	17.7
57694	7	Sololá	701	Sololá	3	Barraneche	10	Octubre	2023-10-28T00:00:00	2024-11-06T11:00:00	7	Dirección del viento	17.7
57695	7	Sololá	701	Sololá	3	Barraneche	10	Octubre	2023-10-28T00:00:00	2024-11-06T11:00:00	1	Precipitación	0
57696	7	Sololá	701	Sololá	3	Barraneche	10	Octubre	2023-10-28T00:00:00	2024-11-06T11:00:00	8	Radiación solar	917
57697	7	Sololá	701	Sololá	3	Barraneche	10	Octubre	2023-10-28T00:00:00	2024-11-06T12:00:00	2	Temperatura media	18.2
57698	7	Sololá	701	Sololá	3	Barraneche	10	Octubre	2023-10-28T00:00:00	2024-11-06T12:00:00	4	Temperatura máxima	18.4
57699	7	Sololá	701	Sololá	3	Barraneche	10	Octubre	2023-10-28T00:00:00	2024-11-06T12:00:00	3	Temperatura mínima	17.5
57700	7	Sololá	701	Sololá	3	Barraneche	10	Octubre	2023-10-28T00:00:00	2024-11-06T12:00:00	5	Humedad	63
57701	7	Sololá	701	Sololá	3	Barraneche	10	Octubre	2023-10-28T00:00:00	2024-11-06T12:00:00	6	Velocidad del viento	20.9
57702	7	Sololá	701	Sololá	3	Barraneche	10	Octubre	2023-10-28T00:00:00	2024-11-06T12:00:00	7	Dirección del viento	20.92
57703	7	Sololá	701	Sololá	3	Barraneche	10	Octubre	2023-10-28T00:00:00	2024-11-06T12:00:00	1	Precipitación	0
57704	7	Sololá	701	Sololá	3	Barraneche	10	Octubre	2023-10-28T00:00:00	2024-11-06T12:00:00	8	Radiación solar	977
57705	7	Sololá	701	Sololá	3	Barraneche	10	Octubre	2023-10-28T00:00:00	2024-11-06T13:00:00	2	Temperatura media	17.7
57706	7	Sololá	701	Sololá	3	Barraneche	10	Octubre	2023-10-28T00:00:00	2024-11-06T13:00:00	4	Temperatura máxima	18.3
57707	7	Sololá	701	Sololá	3	Barraneche	10	Octubre	2023-10-28T00:00:00	2024-11-06T13:00:00	3	Temperatura mínima	17.6
57708	7	Sololá	701	Sololá	3	Barraneche	10	Octubre	2023-10-28T00:00:00	2024-11-06T13:00:00	5	Humedad	62
57709	7	Sololá	701	Sololá	3	Barraneche	10	Octubre	2023-10-28T00:00:00	2024-11-06T13:00:00	6	Velocidad del viento	14.5
57710	7	Sololá	701	Sololá	3	Barraneche	10	Octubre	2023-10-28T00:00:00	2024-11-06T13:00:00	7	Dirección del viento	14.48
57711	7	Sololá	701	Sololá	3	Barraneche	10	Octubre	2023-10-28T00:00:00	2024-11-06T13:00:00	1	Precipitación	0
57712	7	Sololá	701	Sololá	3	Barraneche	10	Octubre	2023-10-28T00:00:00	2024-11-06T13:00:00	8	Radiación solar	687
57713	7	Sololá	701	Sololá	3	Barraneche	10	Octubre	2023-10-28T00:00:00	2024-11-06T14:00:00	2	Temperatura media	18.2
57714	7	Sololá	701	Sololá	3	Barraneche	10	Octubre	2023-10-28T00:00:00	2024-11-06T14:00:00	4	Temperatura máxima	18.4
57715	7	Sololá	701	Sololá	3	Barraneche	10	Octubre	2023-10-28T00:00:00	2024-11-06T14:00:00	3	Temperatura mínima	17.4
57716	7	Sololá	701	Sololá	3	Barraneche	10	Octubre	2023-10-28T00:00:00	2024-11-06T14:00:00	5	Humedad	62
57717	7	Sololá	701	Sololá	3	Barraneche	10	Octubre	2023-10-28T00:00:00	2024-11-06T14:00:00	6	Velocidad del viento	11.3
57718	7	Sololá	701	Sololá	3	Barraneche	10	Octubre	2023-10-28T00:00:00	2024-11-06T14:00:00	7	Dirección del viento	11.27
57719	7	Sololá	701	Sololá	3	Barraneche	10	Octubre	2023-10-28T00:00:00	2024-11-06T14:00:00	1	Precipitación	0
57720	7	Sololá	701	Sololá	3	Barraneche	10	Octubre	2023-10-28T00:00:00	2024-11-06T14:00:00	8	Radiación solar	540
57721	7	Sololá	701	Sololá	3	Barraneche	10	Octubre	2023-10-28T00:00:00	2024-11-06T15:00:00	2	Temperatura media	18
57722	7	Sololá	701	Sololá	3	Barraneche	10	Octubre	2023-10-28T00:00:00	2024-11-06T15:00:00	4	Temperatura máxima	18.8
57723	7	Sololá	701	Sololá	3	Barraneche	10	Octubre	2023-10-28T00:00:00	2024-11-06T15:00:00	3	Temperatura mínima	17.9
57724	7	Sololá	701	Sololá	3	Barraneche	10	Octubre	2023-10-28T00:00:00	2024-11-06T15:00:00	5	Humedad	65
57725	7	Sololá	701	Sololá	3	Barraneche	10	Octubre	2023-10-28T00:00:00	2024-11-06T15:00:00	6	Velocidad del viento	14.5
57726	7	Sololá	701	Sololá	3	Barraneche	10	Octubre	2023-10-28T00:00:00	2024-11-06T15:00:00	7	Dirección del viento	14.48
57727	7	Sololá	701	Sololá	3	Barraneche	10	Octubre	2023-10-28T00:00:00	2024-11-06T15:00:00	1	Precipitación	0
57728	7	Sololá	701	Sololá	3	Barraneche	10	Octubre	2023-10-28T00:00:00	2024-11-06T15:00:00	8	Radiación solar	667
57729	7	Sololá	701	Sololá	3	Barraneche	10	Octubre	2023-10-28T00:00:00	2024-11-06T16:00:00	2	Temperatura media	17.1
57730	7	Sololá	701	Sololá	3	Barraneche	10	Octubre	2023-10-28T00:00:00	2024-11-06T16:00:00	4	Temperatura máxima	18.1
57731	7	Sololá	701	Sololá	3	Barraneche	10	Octubre	2023-10-28T00:00:00	2024-11-06T16:00:00	3	Temperatura mínima	17.1
57732	7	Sololá	701	Sololá	3	Barraneche	10	Octubre	2023-10-28T00:00:00	2024-11-06T16:00:00	5	Humedad	68
57733	7	Sololá	701	Sololá	3	Barraneche	10	Octubre	2023-10-28T00:00:00	2024-11-06T16:00:00	6	Velocidad del viento	17.7
57734	7	Sololá	701	Sololá	3	Barraneche	10	Octubre	2023-10-28T00:00:00	2024-11-06T16:00:00	7	Dirección del viento	17.7
57735	7	Sololá	701	Sololá	3	Barraneche	10	Octubre	2023-10-28T00:00:00	2024-11-06T16:00:00	1	Precipitación	0
57736	7	Sololá	701	Sololá	3	Barraneche	10	Octubre	2023-10-28T00:00:00	2024-11-06T16:00:00	8	Radiación solar	471
57737	7	Sololá	701	Sololá	3	Barraneche	10	Octubre	2023-10-28T00:00:00	2024-11-06T17:00:00	2	Temperatura media	15.2
57738	7	Sololá	701	Sololá	3	Barraneche	10	Octubre	2023-10-28T00:00:00	2024-11-06T17:00:00	4	Temperatura máxima	17.1
57739	7	Sololá	701	Sololá	3	Barraneche	10	Octubre	2023-10-28T00:00:00	2024-11-06T17:00:00	3	Temperatura mínima	15.2
57740	7	Sololá	701	Sololá	3	Barraneche	10	Octubre	2023-10-28T00:00:00	2024-11-06T17:00:00	5	Humedad	75
57741	7	Sololá	701	Sololá	3	Barraneche	10	Octubre	2023-10-28T00:00:00	2024-11-06T17:00:00	6	Velocidad del viento	8
57742	7	Sololá	701	Sololá	3	Barraneche	10	Octubre	2023-10-28T00:00:00	2024-11-06T17:00:00	7	Dirección del viento	8.05
57743	7	Sololá	701	Sololá	3	Barraneche	10	Octubre	2023-10-28T00:00:00	2024-11-06T17:00:00	1	Precipitación	0
57744	7	Sololá	701	Sololá	3	Barraneche	10	Octubre	2023-10-28T00:00:00	2024-11-06T17:00:00	8	Radiación solar	35
57745	7	Sololá	701	Sololá	3	Barraneche	10	Octubre	2023-10-28T00:00:00	2024-11-06T18:00:00	2	Temperatura media	14.9
57746	7	Sololá	701	Sololá	3	Barraneche	10	Octubre	2023-10-28T00:00:00	2024-11-06T18:00:00	4	Temperatura máxima	15.6
57747	7	Sololá	701	Sololá	3	Barraneche	10	Octubre	2023-10-28T00:00:00	2024-11-06T18:00:00	3	Temperatura mínima	14.9
57748	7	Sololá	701	Sololá	3	Barraneche	10	Octubre	2023-10-28T00:00:00	2024-11-06T18:00:00	5	Humedad	74
57749	7	Sololá	701	Sololá	3	Barraneche	10	Octubre	2023-10-28T00:00:00	2024-11-06T18:00:00	6	Velocidad del viento	4.8
57750	7	Sololá	701	Sololá	3	Barraneche	10	Octubre	2023-10-28T00:00:00	2024-11-06T18:00:00	7	Dirección del viento	4.83
57751	7	Sololá	701	Sololá	3	Barraneche	10	Octubre	2023-10-28T00:00:00	2024-11-06T18:00:00	1	Precipitación	0
57752	7	Sololá	701	Sololá	3	Barraneche	10	Octubre	2023-10-28T00:00:00	2024-11-06T18:00:00	8	Radiación solar	10
57753	7	Sololá	701	Sololá	3	Barraneche	10	Octubre	2023-10-28T00:00:00	2024-11-06T19:00:00	2	Temperatura media	15.3
57754	7	Sololá	701	Sololá	3	Barraneche	10	Octubre	2023-10-28T00:00:00	2024-11-06T19:00:00	4	Temperatura máxima	15.4
57755	7	Sololá	701	Sololá	3	Barraneche	10	Octubre	2023-10-28T00:00:00	2024-11-06T19:00:00	3	Temperatura mínima	14.8
57756	7	Sololá	701	Sololá	3	Barraneche	10	Octubre	2023-10-28T00:00:00	2024-11-06T19:00:00	5	Humedad	70
57757	7	Sololá	701	Sololá	3	Barraneche	10	Octubre	2023-10-28T00:00:00	2024-11-06T19:00:00	6	Velocidad del viento	6.4
57758	7	Sololá	701	Sololá	3	Barraneche	10	Octubre	2023-10-28T00:00:00	2024-11-06T19:00:00	7	Dirección del viento	6.44
57759	7	Sololá	701	Sololá	3	Barraneche	10	Octubre	2023-10-28T00:00:00	2024-11-06T19:00:00	1	Precipitación	0
57760	7	Sololá	701	Sololá	3	Barraneche	10	Octubre	2023-10-28T00:00:00	2024-11-06T19:00:00	8	Radiación solar	0
57761	7	Sololá	701	Sololá	3	Barraneche	10	Octubre	2023-10-28T00:00:00	2024-11-06T20:00:00	2	Temperatura media	14.9
57762	7	Sololá	701	Sololá	3	Barraneche	10	Octubre	2023-10-28T00:00:00	2024-11-06T20:00:00	4	Temperatura máxima	15.3
57763	7	Sololá	701	Sololá	3	Barraneche	10	Octubre	2023-10-28T00:00:00	2024-11-06T20:00:00	3	Temperatura mínima	14.9
57764	7	Sololá	701	Sololá	3	Barraneche	10	Octubre	2023-10-28T00:00:00	2024-11-06T20:00:00	5	Humedad	73
57765	7	Sololá	701	Sololá	3	Barraneche	10	Octubre	2023-10-28T00:00:00	2024-11-06T20:00:00	6	Velocidad del viento	9.7
57766	7	Sololá	701	Sololá	3	Barraneche	10	Octubre	2023-10-28T00:00:00	2024-11-06T20:00:00	7	Dirección del viento	9.66
57767	7	Sololá	701	Sololá	3	Barraneche	10	Octubre	2023-10-28T00:00:00	2024-11-06T20:00:00	1	Precipitación	0
57768	7	Sololá	701	Sololá	3	Barraneche	10	Octubre	2023-10-28T00:00:00	2024-11-06T20:00:00	8	Radiación solar	0
57769	7	Sololá	701	Sololá	3	Barraneche	10	Octubre	2023-10-28T00:00:00	2024-11-06T21:00:00	2	Temperatura media	14.3
57770	7	Sololá	701	Sololá	3	Barraneche	10	Octubre	2023-10-28T00:00:00	2024-11-06T21:00:00	4	Temperatura máxima	14.9
57771	7	Sololá	701	Sololá	3	Barraneche	10	Octubre	2023-10-28T00:00:00	2024-11-06T21:00:00	3	Temperatura mínima	14.3
57772	7	Sololá	701	Sololá	3	Barraneche	10	Octubre	2023-10-28T00:00:00	2024-11-06T21:00:00	5	Humedad	76
57773	7	Sololá	701	Sololá	3	Barraneche	10	Octubre	2023-10-28T00:00:00	2024-11-06T21:00:00	6	Velocidad del viento	3.2
57774	7	Sololá	701	Sololá	3	Barraneche	10	Octubre	2023-10-28T00:00:00	2024-11-06T21:00:00	7	Dirección del viento	3.22
57775	7	Sololá	701	Sololá	3	Barraneche	10	Octubre	2023-10-28T00:00:00	2024-11-06T21:00:00	1	Precipitación	0
57776	7	Sololá	701	Sololá	3	Barraneche	10	Octubre	2023-10-28T00:00:00	2024-11-06T21:00:00	8	Radiación solar	0
57777	7	Sololá	701	Sololá	3	Barraneche	10	Octubre	2023-10-28T00:00:00	2024-11-06T22:00:00	2	Temperatura media	14.4
57778	7	Sololá	701	Sololá	3	Barraneche	10	Octubre	2023-10-28T00:00:00	2024-11-06T22:00:00	4	Temperatura máxima	14.6
57779	7	Sololá	701	Sololá	3	Barraneche	10	Octubre	2023-10-28T00:00:00	2024-11-06T22:00:00	3	Temperatura mínima	14.3
57780	7	Sololá	701	Sololá	3	Barraneche	10	Octubre	2023-10-28T00:00:00	2024-11-06T22:00:00	5	Humedad	73
57781	7	Sololá	701	Sololá	3	Barraneche	10	Octubre	2023-10-28T00:00:00	2024-11-06T22:00:00	6	Velocidad del viento	9.7
57782	7	Sololá	701	Sololá	3	Barraneche	10	Octubre	2023-10-28T00:00:00	2024-11-06T22:00:00	7	Dirección del viento	9.66
57783	7	Sololá	701	Sololá	3	Barraneche	10	Octubre	2023-10-28T00:00:00	2024-11-06T22:00:00	1	Precipitación	0
57784	7	Sololá	701	Sololá	3	Barraneche	10	Octubre	2023-10-28T00:00:00	2024-11-06T22:00:00	8	Radiación solar	0
57785	7	Sololá	701	Sololá	3	Barraneche	10	Octubre	2023-10-28T00:00:00	2024-11-06T23:00:00	2	Temperatura media	13.9
57786	7	Sololá	701	Sololá	3	Barraneche	10	Octubre	2023-10-28T00:00:00	2024-11-06T23:00:00	4	Temperatura máxima	14.4
57787	7	Sololá	701	Sololá	3	Barraneche	10	Octubre	2023-10-28T00:00:00	2024-11-06T23:00:00	3	Temperatura mínima	13.9
57788	7	Sololá	701	Sololá	3	Barraneche	10	Octubre	2023-10-28T00:00:00	2024-11-06T23:00:00	5	Humedad	74
57789	7	Sololá	701	Sololá	3	Barraneche	10	Octubre	2023-10-28T00:00:00	2024-11-06T23:00:00	6	Velocidad del viento	12.9
57790	7	Sololá	701	Sololá	3	Barraneche	10	Octubre	2023-10-28T00:00:00	2024-11-06T23:00:00	7	Dirección del viento	12.87
57791	7	Sololá	701	Sololá	3	Barraneche	10	Octubre	2023-10-28T00:00:00	2024-11-06T23:00:00	1	Precipitación	0
57792	7	Sololá	701	Sololá	3	Barraneche	10	Octubre	2023-10-28T00:00:00	2024-11-06T23:00:00	8	Radiación solar	0
57793	7	Sololá	701	Sololá	3	Barraneche	10	Octubre	2023-10-29T00:00:00	2024-11-06T00:00:00	2	Temperatura media	13.1
57794	7	Sololá	701	Sololá	3	Barraneche	10	Octubre	2023-10-29T00:00:00	2024-11-06T00:00:00	4	Temperatura máxima	14.1
57795	7	Sololá	701	Sololá	3	Barraneche	10	Octubre	2023-10-29T00:00:00	2024-11-06T00:00:00	3	Temperatura mínima	13.1
57796	7	Sololá	701	Sololá	3	Barraneche	10	Octubre	2023-10-29T00:00:00	2024-11-06T00:00:00	5	Humedad	80
57797	7	Sololá	701	Sololá	3	Barraneche	10	Octubre	2023-10-29T00:00:00	2024-11-06T00:00:00	6	Velocidad del viento	6.4
57798	7	Sololá	701	Sololá	3	Barraneche	10	Octubre	2023-10-29T00:00:00	2024-11-06T00:00:00	7	Dirección del viento	6.44
57799	7	Sololá	701	Sololá	3	Barraneche	10	Octubre	2023-10-29T00:00:00	2024-11-06T00:00:00	1	Precipitación	0
57800	7	Sololá	701	Sololá	3	Barraneche	10	Octubre	2023-10-29T00:00:00	2024-11-06T00:00:00	8	Radiación solar	0
57801	7	Sololá	701	Sololá	3	Barraneche	10	Octubre	2023-10-29T00:00:00	2024-11-06T01:00:00	2	Temperatura media	13.4
57802	7	Sololá	701	Sololá	3	Barraneche	10	Octubre	2023-10-29T00:00:00	2024-11-06T01:00:00	4	Temperatura máxima	13.4
57803	7	Sololá	701	Sololá	3	Barraneche	10	Octubre	2023-10-29T00:00:00	2024-11-06T01:00:00	3	Temperatura mínima	12.9
57804	7	Sololá	701	Sololá	3	Barraneche	10	Octubre	2023-10-29T00:00:00	2024-11-06T01:00:00	5	Humedad	76
57805	7	Sololá	701	Sololá	3	Barraneche	10	Octubre	2023-10-29T00:00:00	2024-11-06T01:00:00	6	Velocidad del viento	4.8
57806	7	Sololá	701	Sololá	3	Barraneche	10	Octubre	2023-10-29T00:00:00	2024-11-06T01:00:00	7	Dirección del viento	4.83
57807	7	Sololá	701	Sololá	3	Barraneche	10	Octubre	2023-10-29T00:00:00	2024-11-06T01:00:00	1	Precipitación	0
57808	7	Sololá	701	Sololá	3	Barraneche	10	Octubre	2023-10-29T00:00:00	2024-11-06T01:00:00	8	Radiación solar	0
57809	7	Sololá	701	Sololá	3	Barraneche	10	Octubre	2023-10-29T00:00:00	2024-11-06T02:00:00	2	Temperatura media	13.7
57810	7	Sololá	701	Sololá	3	Barraneche	10	Octubre	2023-10-29T00:00:00	2024-11-06T02:00:00	4	Temperatura máxima	14.2
57811	7	Sololá	701	Sololá	3	Barraneche	10	Octubre	2023-10-29T00:00:00	2024-11-06T02:00:00	3	Temperatura mínima	13.4
57812	7	Sololá	701	Sololá	3	Barraneche	10	Octubre	2023-10-29T00:00:00	2024-11-06T02:00:00	5	Humedad	75
57813	7	Sololá	701	Sololá	3	Barraneche	10	Octubre	2023-10-29T00:00:00	2024-11-06T02:00:00	6	Velocidad del viento	8
57814	7	Sololá	701	Sololá	3	Barraneche	10	Octubre	2023-10-29T00:00:00	2024-11-06T02:00:00	7	Dirección del viento	8.05
57815	7	Sololá	701	Sololá	3	Barraneche	10	Octubre	2023-10-29T00:00:00	2024-11-06T02:00:00	1	Precipitación	0
57816	7	Sololá	701	Sololá	3	Barraneche	10	Octubre	2023-10-29T00:00:00	2024-11-06T02:00:00	8	Radiación solar	0
57817	7	Sololá	701	Sololá	3	Barraneche	10	Octubre	2023-10-29T00:00:00	2024-11-06T03:00:00	2	Temperatura media	13.9
57818	7	Sololá	701	Sololá	3	Barraneche	10	Octubre	2023-10-29T00:00:00	2024-11-06T03:00:00	4	Temperatura máxima	13.9
57819	7	Sololá	701	Sololá	3	Barraneche	10	Octubre	2023-10-29T00:00:00	2024-11-06T03:00:00	3	Temperatura mínima	13.2
57820	7	Sololá	701	Sololá	3	Barraneche	10	Octubre	2023-10-29T00:00:00	2024-11-06T03:00:00	5	Humedad	73
57821	7	Sololá	701	Sololá	3	Barraneche	10	Octubre	2023-10-29T00:00:00	2024-11-06T03:00:00	6	Velocidad del viento	6.4
57822	7	Sololá	701	Sololá	3	Barraneche	10	Octubre	2023-10-29T00:00:00	2024-11-06T03:00:00	7	Dirección del viento	6.44
57823	7	Sololá	701	Sololá	3	Barraneche	10	Octubre	2023-10-29T00:00:00	2024-11-06T03:00:00	1	Precipitación	0
57824	7	Sololá	701	Sololá	3	Barraneche	10	Octubre	2023-10-29T00:00:00	2024-11-06T03:00:00	8	Radiación solar	0
57825	7	Sololá	701	Sololá	3	Barraneche	10	Octubre	2023-10-29T00:00:00	2024-11-06T04:00:00	2	Temperatura media	13.6
57826	7	Sololá	701	Sololá	3	Barraneche	10	Octubre	2023-10-29T00:00:00	2024-11-06T04:00:00	4	Temperatura máxima	14
57827	7	Sololá	701	Sololá	3	Barraneche	10	Octubre	2023-10-29T00:00:00	2024-11-06T04:00:00	3	Temperatura mínima	13.5
57828	7	Sololá	701	Sololá	3	Barraneche	10	Octubre	2023-10-29T00:00:00	2024-11-06T04:00:00	5	Humedad	75
57829	7	Sololá	701	Sololá	3	Barraneche	10	Octubre	2023-10-29T00:00:00	2024-11-06T04:00:00	6	Velocidad del viento	9.7
57830	7	Sololá	701	Sololá	3	Barraneche	10	Octubre	2023-10-29T00:00:00	2024-11-06T04:00:00	7	Dirección del viento	9.66
57831	7	Sololá	701	Sololá	3	Barraneche	10	Octubre	2023-10-29T00:00:00	2024-11-06T04:00:00	1	Precipitación	0
57832	7	Sololá	701	Sololá	3	Barraneche	10	Octubre	2023-10-29T00:00:00	2024-11-06T04:00:00	8	Radiación solar	0
57833	7	Sololá	701	Sololá	3	Barraneche	10	Octubre	2023-10-29T00:00:00	2024-11-06T05:00:00	2	Temperatura media	13.7
57834	7	Sololá	701	Sololá	3	Barraneche	10	Octubre	2023-10-29T00:00:00	2024-11-06T05:00:00	4	Temperatura máxima	13.7
57835	7	Sololá	701	Sololá	3	Barraneche	10	Octubre	2023-10-29T00:00:00	2024-11-06T05:00:00	3	Temperatura mínima	13.4
57836	7	Sololá	701	Sololá	3	Barraneche	10	Octubre	2023-10-29T00:00:00	2024-11-06T05:00:00	5	Humedad	73
57837	7	Sololá	701	Sololá	3	Barraneche	10	Octubre	2023-10-29T00:00:00	2024-11-06T05:00:00	6	Velocidad del viento	12.9
57838	7	Sololá	701	Sololá	3	Barraneche	10	Octubre	2023-10-29T00:00:00	2024-11-06T05:00:00	7	Dirección del viento	12.87
57839	7	Sololá	701	Sololá	3	Barraneche	10	Octubre	2023-10-29T00:00:00	2024-11-06T05:00:00	1	Precipitación	0
57840	7	Sololá	701	Sololá	3	Barraneche	10	Octubre	2023-10-29T00:00:00	2024-11-06T05:00:00	8	Radiación solar	0
57841	7	Sololá	701	Sololá	3	Barraneche	10	Octubre	2023-10-29T00:00:00	2024-11-06T06:00:00	2	Temperatura media	13.6
57842	7	Sololá	701	Sololá	3	Barraneche	10	Octubre	2023-10-29T00:00:00	2024-11-06T06:00:00	4	Temperatura máxima	13.8
57843	7	Sololá	701	Sololá	3	Barraneche	10	Octubre	2023-10-29T00:00:00	2024-11-06T06:00:00	3	Temperatura mínima	13.3
57844	7	Sololá	701	Sololá	3	Barraneche	10	Octubre	2023-10-29T00:00:00	2024-11-06T06:00:00	5	Humedad	72
57845	7	Sololá	701	Sololá	3	Barraneche	10	Octubre	2023-10-29T00:00:00	2024-11-06T06:00:00	6	Velocidad del viento	12.9
57846	7	Sololá	701	Sololá	3	Barraneche	10	Octubre	2023-10-29T00:00:00	2024-11-06T06:00:00	7	Dirección del viento	12.87
57847	7	Sololá	701	Sololá	3	Barraneche	10	Octubre	2023-10-29T00:00:00	2024-11-06T06:00:00	1	Precipitación	0.2
57848	7	Sololá	701	Sololá	3	Barraneche	10	Octubre	2023-10-29T00:00:00	2024-11-06T06:00:00	8	Radiación solar	1
57849	7	Sololá	701	Sololá	3	Barraneche	10	Octubre	2023-10-29T00:00:00	2024-11-06T07:00:00	2	Temperatura media	15
57850	7	Sololá	701	Sololá	3	Barraneche	10	Octubre	2023-10-29T00:00:00	2024-11-06T07:00:00	4	Temperatura máxima	15
57851	7	Sololá	701	Sololá	3	Barraneche	10	Octubre	2023-10-29T00:00:00	2024-11-06T07:00:00	3	Temperatura mínima	13.6
57852	7	Sololá	701	Sololá	3	Barraneche	10	Octubre	2023-10-29T00:00:00	2024-11-06T07:00:00	5	Humedad	67
57853	7	Sololá	701	Sololá	3	Barraneche	10	Octubre	2023-10-29T00:00:00	2024-11-06T07:00:00	6	Velocidad del viento	24.1
57854	7	Sololá	701	Sololá	3	Barraneche	10	Octubre	2023-10-29T00:00:00	2024-11-06T07:00:00	7	Dirección del viento	24.14
57855	7	Sololá	701	Sololá	3	Barraneche	10	Octubre	2023-10-29T00:00:00	2024-11-06T07:00:00	1	Precipitación	0
57856	7	Sololá	701	Sololá	3	Barraneche	10	Octubre	2023-10-29T00:00:00	2024-11-06T07:00:00	8	Radiación solar	69
57857	7	Sololá	701	Sololá	3	Barraneche	10	Octubre	2023-10-29T00:00:00	2024-11-06T08:00:00	2	Temperatura media	16.7
57858	7	Sololá	701	Sololá	3	Barraneche	10	Octubre	2023-10-29T00:00:00	2024-11-06T08:00:00	4	Temperatura máxima	16.7
57859	7	Sololá	701	Sololá	3	Barraneche	10	Octubre	2023-10-29T00:00:00	2024-11-06T08:00:00	3	Temperatura mínima	15
57860	7	Sololá	701	Sololá	3	Barraneche	10	Octubre	2023-10-29T00:00:00	2024-11-06T08:00:00	5	Humedad	64
57861	7	Sololá	701	Sololá	3	Barraneche	10	Octubre	2023-10-29T00:00:00	2024-11-06T08:00:00	6	Velocidad del viento	19.3
57862	7	Sololá	701	Sololá	3	Barraneche	10	Octubre	2023-10-29T00:00:00	2024-11-06T08:00:00	7	Dirección del viento	19.31
57863	7	Sololá	701	Sololá	3	Barraneche	10	Octubre	2023-10-29T00:00:00	2024-11-06T08:00:00	1	Precipitación	0
57864	7	Sololá	701	Sololá	3	Barraneche	10	Octubre	2023-10-29T00:00:00	2024-11-06T08:00:00	8	Radiación solar	270
57865	7	Sololá	701	Sololá	3	Barraneche	10	Octubre	2023-10-29T00:00:00	2024-11-06T09:00:00	2	Temperatura media	17.7
57866	7	Sololá	701	Sololá	3	Barraneche	10	Octubre	2023-10-29T00:00:00	2024-11-06T09:00:00	4	Temperatura máxima	17.7
57867	7	Sololá	701	Sololá	3	Barraneche	10	Octubre	2023-10-29T00:00:00	2024-11-06T09:00:00	3	Temperatura mínima	16.7
57868	7	Sololá	701	Sololá	3	Barraneche	10	Octubre	2023-10-29T00:00:00	2024-11-06T09:00:00	5	Humedad	63
57869	7	Sololá	701	Sololá	3	Barraneche	10	Octubre	2023-10-29T00:00:00	2024-11-06T09:00:00	6	Velocidad del viento	12.9
57870	7	Sololá	701	Sololá	3	Barraneche	10	Octubre	2023-10-29T00:00:00	2024-11-06T09:00:00	7	Dirección del viento	12.87
57871	7	Sololá	701	Sololá	3	Barraneche	10	Octubre	2023-10-29T00:00:00	2024-11-06T09:00:00	1	Precipitación	0
57872	7	Sololá	701	Sololá	3	Barraneche	10	Octubre	2023-10-29T00:00:00	2024-11-06T09:00:00	8	Radiación solar	639
57873	7	Sololá	701	Sololá	3	Barraneche	10	Octubre	2023-10-29T00:00:00	2024-11-06T10:00:00	2	Temperatura media	17.2
57874	7	Sololá	701	Sololá	3	Barraneche	10	Octubre	2023-10-29T00:00:00	2024-11-06T10:00:00	4	Temperatura máxima	17.8
57875	7	Sololá	701	Sololá	3	Barraneche	10	Octubre	2023-10-29T00:00:00	2024-11-06T10:00:00	3	Temperatura mínima	16.5
57876	7	Sololá	701	Sololá	3	Barraneche	10	Octubre	2023-10-29T00:00:00	2024-11-06T10:00:00	5	Humedad	63
57877	7	Sololá	701	Sololá	3	Barraneche	10	Octubre	2023-10-29T00:00:00	2024-11-06T10:00:00	6	Velocidad del viento	12.9
57878	7	Sololá	701	Sololá	3	Barraneche	10	Octubre	2023-10-29T00:00:00	2024-11-06T10:00:00	7	Dirección del viento	12.87
57879	7	Sololá	701	Sololá	3	Barraneche	10	Octubre	2023-10-29T00:00:00	2024-11-06T10:00:00	1	Precipitación	0
57880	7	Sololá	701	Sololá	3	Barraneche	10	Octubre	2023-10-29T00:00:00	2024-11-06T10:00:00	8	Radiación solar	478
57881	7	Sololá	701	Sololá	3	Barraneche	10	Octubre	2023-10-29T00:00:00	2024-11-06T11:00:00	2	Temperatura media	18.1
57882	7	Sololá	701	Sololá	3	Barraneche	10	Octubre	2023-10-29T00:00:00	2024-11-06T11:00:00	4	Temperatura máxima	18.1
57883	7	Sololá	701	Sololá	3	Barraneche	10	Octubre	2023-10-29T00:00:00	2024-11-06T11:00:00	3	Temperatura mínima	17.1
57884	7	Sololá	701	Sololá	3	Barraneche	10	Octubre	2023-10-29T00:00:00	2024-11-06T11:00:00	5	Humedad	60
57885	7	Sololá	701	Sololá	3	Barraneche	10	Octubre	2023-10-29T00:00:00	2024-11-06T11:00:00	6	Velocidad del viento	14.5
57886	7	Sololá	701	Sololá	3	Barraneche	10	Octubre	2023-10-29T00:00:00	2024-11-06T11:00:00	7	Dirección del viento	14.48
57887	7	Sololá	701	Sololá	3	Barraneche	10	Octubre	2023-10-29T00:00:00	2024-11-06T11:00:00	1	Precipitación	0
57888	7	Sololá	701	Sololá	3	Barraneche	10	Octubre	2023-10-29T00:00:00	2024-11-06T11:00:00	8	Radiación solar	673
57889	7	Sololá	701	Sololá	3	Barraneche	10	Octubre	2023-10-29T00:00:00	2024-11-06T12:00:00	2	Temperatura media	18.3
57890	7	Sololá	701	Sololá	3	Barraneche	10	Octubre	2023-10-29T00:00:00	2024-11-06T12:00:00	4	Temperatura máxima	18.3
57891	7	Sololá	701	Sololá	3	Barraneche	10	Octubre	2023-10-29T00:00:00	2024-11-06T12:00:00	3	Temperatura mínima	17.3
57892	7	Sololá	701	Sololá	3	Barraneche	10	Octubre	2023-10-29T00:00:00	2024-11-06T12:00:00	5	Humedad	62
57893	7	Sololá	701	Sololá	3	Barraneche	10	Octubre	2023-10-29T00:00:00	2024-11-06T12:00:00	6	Velocidad del viento	12.9
57894	7	Sololá	701	Sololá	3	Barraneche	10	Octubre	2023-10-29T00:00:00	2024-11-06T12:00:00	7	Dirección del viento	12.87
57895	7	Sololá	701	Sololá	3	Barraneche	10	Octubre	2023-10-29T00:00:00	2024-11-06T12:00:00	1	Precipitación	0
57896	7	Sololá	701	Sololá	3	Barraneche	10	Octubre	2023-10-29T00:00:00	2024-11-06T12:00:00	8	Radiación solar	601
57897	7	Sololá	701	Sololá	3	Barraneche	10	Octubre	2023-10-29T00:00:00	2024-11-06T13:00:00	2	Temperatura media	17.8
57898	7	Sololá	701	Sololá	3	Barraneche	10	Octubre	2023-10-29T00:00:00	2024-11-06T13:00:00	4	Temperatura máxima	18.8
57899	7	Sololá	701	Sololá	3	Barraneche	10	Octubre	2023-10-29T00:00:00	2024-11-06T13:00:00	3	Temperatura mínima	17.8
57900	7	Sololá	701	Sololá	3	Barraneche	10	Octubre	2023-10-29T00:00:00	2024-11-06T13:00:00	5	Humedad	64
57901	7	Sololá	701	Sololá	3	Barraneche	10	Octubre	2023-10-29T00:00:00	2024-11-06T13:00:00	6	Velocidad del viento	11.3
57902	7	Sololá	701	Sololá	3	Barraneche	10	Octubre	2023-10-29T00:00:00	2024-11-06T13:00:00	7	Dirección del viento	11.27
57903	7	Sololá	701	Sololá	3	Barraneche	10	Octubre	2023-10-29T00:00:00	2024-11-06T13:00:00	1	Precipitación	0
57904	7	Sololá	701	Sololá	3	Barraneche	10	Octubre	2023-10-29T00:00:00	2024-11-06T13:00:00	8	Radiación solar	545
57905	7	Sololá	701	Sololá	3	Barraneche	10	Octubre	2023-10-29T00:00:00	2024-11-06T14:00:00	2	Temperatura media	16.3
57906	7	Sololá	701	Sololá	3	Barraneche	10	Octubre	2023-10-29T00:00:00	2024-11-06T14:00:00	4	Temperatura máxima	18
57907	7	Sololá	701	Sololá	3	Barraneche	10	Octubre	2023-10-29T00:00:00	2024-11-06T14:00:00	3	Temperatura mínima	16.3
57908	7	Sololá	701	Sololá	3	Barraneche	10	Octubre	2023-10-29T00:00:00	2024-11-06T14:00:00	5	Humedad	70
57909	7	Sololá	701	Sololá	3	Barraneche	10	Octubre	2023-10-29T00:00:00	2024-11-06T14:00:00	6	Velocidad del viento	11.3
57910	7	Sololá	701	Sololá	3	Barraneche	10	Octubre	2023-10-29T00:00:00	2024-11-06T14:00:00	7	Dirección del viento	11.27
57911	7	Sololá	701	Sololá	3	Barraneche	10	Octubre	2023-10-29T00:00:00	2024-11-06T14:00:00	1	Precipitación	0
57912	7	Sololá	701	Sololá	3	Barraneche	10	Octubre	2023-10-29T00:00:00	2024-11-06T14:00:00	8	Radiación solar	390
57913	7	Sololá	701	Sololá	3	Barraneche	10	Octubre	2023-10-29T00:00:00	2024-11-06T15:00:00	2	Temperatura media	15.6
57914	7	Sololá	701	Sololá	3	Barraneche	10	Octubre	2023-10-29T00:00:00	2024-11-06T15:00:00	4	Temperatura máxima	16.6
57915	7	Sololá	701	Sololá	3	Barraneche	10	Octubre	2023-10-29T00:00:00	2024-11-06T15:00:00	3	Temperatura mínima	15.6
57916	7	Sololá	701	Sololá	3	Barraneche	10	Octubre	2023-10-29T00:00:00	2024-11-06T15:00:00	5	Humedad	74
57917	7	Sololá	701	Sololá	3	Barraneche	10	Octubre	2023-10-29T00:00:00	2024-11-06T15:00:00	6	Velocidad del viento	14.5
57918	7	Sololá	701	Sololá	3	Barraneche	10	Octubre	2023-10-29T00:00:00	2024-11-06T15:00:00	7	Dirección del viento	14.48
57919	7	Sololá	701	Sololá	3	Barraneche	10	Octubre	2023-10-29T00:00:00	2024-11-06T15:00:00	1	Precipitación	0
57920	7	Sololá	701	Sololá	3	Barraneche	10	Octubre	2023-10-29T00:00:00	2024-11-06T15:00:00	8	Radiación solar	377
57921	7	Sololá	701	Sololá	3	Barraneche	10	Octubre	2023-10-29T00:00:00	2024-11-06T16:00:00	2	Temperatura media	14.3
57922	7	Sololá	701	Sololá	3	Barraneche	10	Octubre	2023-10-29T00:00:00	2024-11-06T16:00:00	4	Temperatura máxima	15.6
57923	7	Sololá	701	Sololá	3	Barraneche	10	Octubre	2023-10-29T00:00:00	2024-11-06T16:00:00	3	Temperatura mínima	14.3
57924	7	Sololá	701	Sololá	3	Barraneche	10	Octubre	2023-10-29T00:00:00	2024-11-06T16:00:00	5	Humedad	75
57925	7	Sololá	701	Sololá	3	Barraneche	10	Octubre	2023-10-29T00:00:00	2024-11-06T16:00:00	6	Velocidad del viento	12.9
57926	7	Sololá	701	Sololá	3	Barraneche	10	Octubre	2023-10-29T00:00:00	2024-11-06T16:00:00	7	Dirección del viento	12.87
57927	7	Sololá	701	Sololá	3	Barraneche	10	Octubre	2023-10-29T00:00:00	2024-11-06T16:00:00	1	Precipitación	0
57928	7	Sololá	701	Sololá	3	Barraneche	10	Octubre	2023-10-29T00:00:00	2024-11-06T16:00:00	8	Radiación solar	141
57929	7	Sololá	701	Sololá	3	Barraneche	10	Octubre	2023-10-29T00:00:00	2024-11-06T17:00:00	2	Temperatura media	14.9
57930	7	Sololá	701	Sololá	3	Barraneche	10	Octubre	2023-10-29T00:00:00	2024-11-06T17:00:00	4	Temperatura máxima	14.9
57931	7	Sololá	701	Sololá	3	Barraneche	10	Octubre	2023-10-29T00:00:00	2024-11-06T17:00:00	3	Temperatura mínima	14.3
57932	7	Sololá	701	Sololá	3	Barraneche	10	Octubre	2023-10-29T00:00:00	2024-11-06T17:00:00	5	Humedad	72
57933	7	Sololá	701	Sololá	3	Barraneche	10	Octubre	2023-10-29T00:00:00	2024-11-06T17:00:00	6	Velocidad del viento	11.3
57934	7	Sololá	701	Sololá	3	Barraneche	10	Octubre	2023-10-29T00:00:00	2024-11-06T17:00:00	7	Dirección del viento	11.27
57935	7	Sololá	701	Sololá	3	Barraneche	10	Octubre	2023-10-29T00:00:00	2024-11-06T17:00:00	1	Precipitación	0
57936	7	Sololá	701	Sololá	3	Barraneche	10	Octubre	2023-10-29T00:00:00	2024-11-06T17:00:00	8	Radiación solar	58
57937	7	Sololá	701	Sololá	3	Barraneche	10	Octubre	2023-10-29T00:00:00	2024-11-06T18:00:00	2	Temperatura media	15
57938	7	Sololá	701	Sololá	3	Barraneche	10	Octubre	2023-10-29T00:00:00	2024-11-06T18:00:00	4	Temperatura máxima	15.1
57939	7	Sololá	701	Sololá	3	Barraneche	10	Octubre	2023-10-29T00:00:00	2024-11-06T18:00:00	3	Temperatura mínima	14.8
57940	7	Sololá	701	Sololá	3	Barraneche	10	Octubre	2023-10-29T00:00:00	2024-11-06T18:00:00	5	Humedad	71
57941	7	Sololá	701	Sololá	3	Barraneche	10	Octubre	2023-10-29T00:00:00	2024-11-06T18:00:00	6	Velocidad del viento	8
57942	7	Sololá	701	Sololá	3	Barraneche	10	Octubre	2023-10-29T00:00:00	2024-11-06T18:00:00	7	Dirección del viento	8.05
57943	7	Sololá	701	Sololá	3	Barraneche	10	Octubre	2023-10-29T00:00:00	2024-11-06T18:00:00	1	Precipitación	0
57944	7	Sololá	701	Sololá	3	Barraneche	10	Octubre	2023-10-29T00:00:00	2024-11-06T18:00:00	8	Radiación solar	5
57945	7	Sololá	701	Sololá	3	Barraneche	10	Octubre	2023-10-29T00:00:00	2024-11-06T19:00:00	2	Temperatura media	14.6
57946	7	Sololá	701	Sololá	3	Barraneche	10	Octubre	2023-10-29T00:00:00	2024-11-06T19:00:00	4	Temperatura máxima	15
57947	7	Sololá	701	Sololá	3	Barraneche	10	Octubre	2023-10-29T00:00:00	2024-11-06T19:00:00	3	Temperatura mínima	14.3
57948	7	Sololá	701	Sololá	3	Barraneche	10	Octubre	2023-10-29T00:00:00	2024-11-06T19:00:00	5	Humedad	71
57949	7	Sololá	701	Sololá	3	Barraneche	10	Octubre	2023-10-29T00:00:00	2024-11-06T19:00:00	6	Velocidad del viento	8
57950	7	Sololá	701	Sololá	3	Barraneche	10	Octubre	2023-10-29T00:00:00	2024-11-06T19:00:00	7	Dirección del viento	8.05
57951	7	Sololá	701	Sololá	3	Barraneche	10	Octubre	2023-10-29T00:00:00	2024-11-06T19:00:00	1	Precipitación	0
57952	7	Sololá	701	Sololá	3	Barraneche	10	Octubre	2023-10-29T00:00:00	2024-11-06T19:00:00	8	Radiación solar	0
57953	7	Sololá	701	Sololá	3	Barraneche	10	Octubre	2023-10-29T00:00:00	2024-11-06T20:00:00	2	Temperatura media	14.3
57954	7	Sololá	701	Sololá	3	Barraneche	10	Octubre	2023-10-29T00:00:00	2024-11-06T20:00:00	4	Temperatura máxima	14.6
57955	7	Sololá	701	Sololá	3	Barraneche	10	Octubre	2023-10-29T00:00:00	2024-11-06T20:00:00	3	Temperatura mínima	14
57956	7	Sololá	701	Sololá	3	Barraneche	10	Octubre	2023-10-29T00:00:00	2024-11-06T20:00:00	5	Humedad	73
57957	7	Sololá	701	Sololá	3	Barraneche	10	Octubre	2023-10-29T00:00:00	2024-11-06T20:00:00	6	Velocidad del viento	8
57958	7	Sololá	701	Sololá	3	Barraneche	10	Octubre	2023-10-29T00:00:00	2024-11-06T20:00:00	7	Dirección del viento	8.05
57959	7	Sololá	701	Sololá	3	Barraneche	10	Octubre	2023-10-29T00:00:00	2024-11-06T20:00:00	1	Precipitación	0
57960	7	Sololá	701	Sololá	3	Barraneche	10	Octubre	2023-10-29T00:00:00	2024-11-06T20:00:00	8	Radiación solar	0
57961	7	Sololá	701	Sololá	3	Barraneche	10	Octubre	2023-10-29T00:00:00	2024-11-06T21:00:00	2	Temperatura media	14.4
57962	7	Sololá	701	Sololá	3	Barraneche	10	Octubre	2023-10-29T00:00:00	2024-11-06T21:00:00	4	Temperatura máxima	14.4
57963	7	Sololá	701	Sololá	3	Barraneche	10	Octubre	2023-10-29T00:00:00	2024-11-06T21:00:00	3	Temperatura mínima	14.1
57964	7	Sololá	701	Sololá	3	Barraneche	10	Octubre	2023-10-29T00:00:00	2024-11-06T21:00:00	5	Humedad	73
57965	7	Sololá	701	Sololá	3	Barraneche	10	Octubre	2023-10-29T00:00:00	2024-11-06T21:00:00	6	Velocidad del viento	6.4
57966	7	Sololá	701	Sololá	3	Barraneche	10	Octubre	2023-10-29T00:00:00	2024-11-06T21:00:00	7	Dirección del viento	6.44
57967	7	Sololá	701	Sololá	3	Barraneche	10	Octubre	2023-10-29T00:00:00	2024-11-06T21:00:00	1	Precipitación	0
57968	7	Sololá	701	Sololá	3	Barraneche	10	Octubre	2023-10-29T00:00:00	2024-11-06T21:00:00	8	Radiación solar	0
57969	7	Sololá	701	Sololá	3	Barraneche	10	Octubre	2023-10-29T00:00:00	2024-11-06T22:00:00	2	Temperatura media	14.6
57970	7	Sololá	701	Sololá	3	Barraneche	10	Octubre	2023-10-29T00:00:00	2024-11-06T22:00:00	4	Temperatura máxima	14.6
57971	7	Sololá	701	Sololá	3	Barraneche	10	Octubre	2023-10-29T00:00:00	2024-11-06T22:00:00	3	Temperatura mínima	14.4
57972	7	Sololá	701	Sololá	3	Barraneche	10	Octubre	2023-10-29T00:00:00	2024-11-06T22:00:00	5	Humedad	72
57973	7	Sololá	701	Sololá	3	Barraneche	10	Octubre	2023-10-29T00:00:00	2024-11-06T22:00:00	6	Velocidad del viento	6.4
57974	7	Sololá	701	Sololá	3	Barraneche	10	Octubre	2023-10-29T00:00:00	2024-11-06T22:00:00	7	Dirección del viento	6.44
57975	7	Sololá	701	Sololá	3	Barraneche	10	Octubre	2023-10-29T00:00:00	2024-11-06T22:00:00	1	Precipitación	0
57976	7	Sololá	701	Sololá	3	Barraneche	10	Octubre	2023-10-29T00:00:00	2024-11-06T22:00:00	8	Radiación solar	0
57977	7	Sololá	701	Sololá	3	Barraneche	10	Octubre	2023-10-29T00:00:00	2024-11-06T23:00:00	2	Temperatura media	14.9
57978	7	Sololá	701	Sololá	3	Barraneche	10	Octubre	2023-10-29T00:00:00	2024-11-06T23:00:00	4	Temperatura máxima	15.2
57979	7	Sololá	701	Sololá	3	Barraneche	10	Octubre	2023-10-29T00:00:00	2024-11-06T23:00:00	3	Temperatura mínima	14.6
57980	7	Sololá	701	Sololá	3	Barraneche	10	Octubre	2023-10-29T00:00:00	2024-11-06T23:00:00	5	Humedad	71
57981	7	Sololá	701	Sololá	3	Barraneche	10	Octubre	2023-10-29T00:00:00	2024-11-06T23:00:00	6	Velocidad del viento	11.3
57982	7	Sololá	701	Sololá	3	Barraneche	10	Octubre	2023-10-29T00:00:00	2024-11-06T23:00:00	7	Dirección del viento	11.27
57983	7	Sololá	701	Sololá	3	Barraneche	10	Octubre	2023-10-29T00:00:00	2024-11-06T23:00:00	1	Precipitación	0
57984	7	Sololá	701	Sololá	3	Barraneche	10	Octubre	2023-10-29T00:00:00	2024-11-06T23:00:00	8	Radiación solar	0
57985	7	Sololá	701	Sololá	3	Barraneche	10	Octubre	2023-10-30T00:00:00	2024-11-06T00:00:00	2	Temperatura media	14.7
57986	7	Sololá	701	Sololá	3	Barraneche	10	Octubre	2023-10-30T00:00:00	2024-11-06T00:00:00	4	Temperatura máxima	15
57987	7	Sololá	701	Sololá	3	Barraneche	10	Octubre	2023-10-30T00:00:00	2024-11-06T00:00:00	3	Temperatura mínima	14.5
57988	7	Sololá	701	Sololá	3	Barraneche	10	Octubre	2023-10-30T00:00:00	2024-11-06T00:00:00	5	Humedad	72
57989	7	Sololá	701	Sololá	3	Barraneche	10	Octubre	2023-10-30T00:00:00	2024-11-06T00:00:00	6	Velocidad del viento	6.4
57990	7	Sololá	701	Sololá	3	Barraneche	10	Octubre	2023-10-30T00:00:00	2024-11-06T00:00:00	7	Dirección del viento	6.44
57991	7	Sololá	701	Sololá	3	Barraneche	10	Octubre	2023-10-30T00:00:00	2024-11-06T00:00:00	1	Precipitación	0
57992	7	Sololá	701	Sololá	3	Barraneche	10	Octubre	2023-10-30T00:00:00	2024-11-06T00:00:00	8	Radiación solar	0
57993	7	Sololá	701	Sololá	3	Barraneche	10	Octubre	2023-10-30T00:00:00	2024-11-06T01:00:00	2	Temperatura media	14.6
57994	7	Sololá	701	Sololá	3	Barraneche	10	Octubre	2023-10-30T00:00:00	2024-11-06T01:00:00	4	Temperatura máxima	14.7
57995	7	Sololá	701	Sololá	3	Barraneche	10	Octubre	2023-10-30T00:00:00	2024-11-06T01:00:00	3	Temperatura mínima	13.9
57996	7	Sololá	701	Sololá	3	Barraneche	10	Octubre	2023-10-30T00:00:00	2024-11-06T01:00:00	5	Humedad	73
57997	7	Sololá	701	Sololá	3	Barraneche	10	Octubre	2023-10-30T00:00:00	2024-11-06T01:00:00	6	Velocidad del viento	3.2
57998	7	Sololá	701	Sololá	3	Barraneche	10	Octubre	2023-10-30T00:00:00	2024-11-06T01:00:00	7	Dirección del viento	3.22
57999	7	Sololá	701	Sololá	3	Barraneche	10	Octubre	2023-10-30T00:00:00	2024-11-06T01:00:00	1	Precipitación	0
58000	7	Sololá	701	Sololá	3	Barraneche	10	Octubre	2023-10-30T00:00:00	2024-11-06T01:00:00	8	Radiación solar	0
58001	7	Sololá	701	Sololá	3	Barraneche	10	Octubre	2023-10-30T00:00:00	2024-11-06T02:00:00	2	Temperatura media	13.8
58002	7	Sololá	701	Sololá	3	Barraneche	10	Octubre	2023-10-30T00:00:00	2024-11-06T02:00:00	4	Temperatura máxima	14.6
58003	7	Sololá	701	Sololá	3	Barraneche	10	Octubre	2023-10-30T00:00:00	2024-11-06T02:00:00	3	Temperatura mínima	13.7
58004	7	Sololá	701	Sololá	3	Barraneche	10	Octubre	2023-10-30T00:00:00	2024-11-06T02:00:00	5	Humedad	75
58005	7	Sololá	701	Sololá	3	Barraneche	10	Octubre	2023-10-30T00:00:00	2024-11-06T02:00:00	6	Velocidad del viento	3.2
58006	7	Sololá	701	Sololá	3	Barraneche	10	Octubre	2023-10-30T00:00:00	2024-11-06T02:00:00	7	Dirección del viento	3.22
58007	7	Sololá	701	Sololá	3	Barraneche	10	Octubre	2023-10-30T00:00:00	2024-11-06T02:00:00	1	Precipitación	0
58008	7	Sololá	701	Sololá	3	Barraneche	10	Octubre	2023-10-30T00:00:00	2024-11-06T02:00:00	8	Radiación solar	0
58009	7	Sololá	701	Sololá	3	Barraneche	10	Octubre	2023-10-30T00:00:00	2024-11-06T03:00:00	2	Temperatura media	14.4
58010	7	Sololá	701	Sololá	3	Barraneche	10	Octubre	2023-10-30T00:00:00	2024-11-06T03:00:00	4	Temperatura máxima	14.4
58011	7	Sololá	701	Sololá	3	Barraneche	10	Octubre	2023-10-30T00:00:00	2024-11-06T03:00:00	3	Temperatura mínima	13.7
58012	7	Sololá	701	Sololá	3	Barraneche	10	Octubre	2023-10-30T00:00:00	2024-11-06T03:00:00	5	Humedad	72
58013	7	Sololá	701	Sololá	3	Barraneche	10	Octubre	2023-10-30T00:00:00	2024-11-06T03:00:00	6	Velocidad del viento	9.7
58014	7	Sololá	701	Sololá	3	Barraneche	10	Octubre	2023-10-30T00:00:00	2024-11-06T03:00:00	7	Dirección del viento	9.66
58015	7	Sololá	701	Sololá	3	Barraneche	10	Octubre	2023-10-30T00:00:00	2024-11-06T03:00:00	1	Precipitación	0
58016	7	Sololá	701	Sololá	3	Barraneche	10	Octubre	2023-10-30T00:00:00	2024-11-06T03:00:00	8	Radiación solar	0
58017	7	Sololá	701	Sololá	3	Barraneche	10	Octubre	2023-10-30T00:00:00	2024-11-06T04:00:00	2	Temperatura media	14.1
58018	7	Sololá	701	Sololá	3	Barraneche	10	Octubre	2023-10-30T00:00:00	2024-11-06T04:00:00	4	Temperatura máxima	14.4
58019	7	Sololá	701	Sololá	3	Barraneche	10	Octubre	2023-10-30T00:00:00	2024-11-06T04:00:00	3	Temperatura mínima	14
58020	7	Sololá	701	Sololá	3	Barraneche	10	Octubre	2023-10-30T00:00:00	2024-11-06T04:00:00	5	Humedad	73
58021	7	Sololá	701	Sololá	3	Barraneche	10	Octubre	2023-10-30T00:00:00	2024-11-06T04:00:00	6	Velocidad del viento	6.4
58022	7	Sololá	701	Sololá	3	Barraneche	10	Octubre	2023-10-30T00:00:00	2024-11-06T04:00:00	7	Dirección del viento	6.44
58023	7	Sololá	701	Sololá	3	Barraneche	10	Octubre	2023-10-30T00:00:00	2024-11-06T04:00:00	1	Precipitación	0
58024	7	Sololá	701	Sololá	3	Barraneche	10	Octubre	2023-10-30T00:00:00	2024-11-06T04:00:00	8	Radiación solar	0
58025	7	Sololá	701	Sololá	3	Barraneche	10	Octubre	2023-10-30T00:00:00	2024-11-06T05:00:00	2	Temperatura media	13.6
58026	7	Sololá	701	Sololá	3	Barraneche	10	Octubre	2023-10-30T00:00:00	2024-11-06T05:00:00	4	Temperatura máxima	14.1
58027	7	Sololá	701	Sololá	3	Barraneche	10	Octubre	2023-10-30T00:00:00	2024-11-06T05:00:00	3	Temperatura mínima	13.6
58028	7	Sololá	701	Sololá	3	Barraneche	10	Octubre	2023-10-30T00:00:00	2024-11-06T05:00:00	5	Humedad	73
58029	7	Sololá	701	Sololá	3	Barraneche	10	Octubre	2023-10-30T00:00:00	2024-11-06T05:00:00	6	Velocidad del viento	6.4
58030	7	Sololá	701	Sololá	3	Barraneche	10	Octubre	2023-10-30T00:00:00	2024-11-06T05:00:00	7	Dirección del viento	6.44
58031	7	Sololá	701	Sololá	3	Barraneche	10	Octubre	2023-10-30T00:00:00	2024-11-06T05:00:00	1	Precipitación	0
58032	7	Sololá	701	Sololá	3	Barraneche	10	Octubre	2023-10-30T00:00:00	2024-11-06T05:00:00	8	Radiación solar	0
58033	7	Sololá	701	Sololá	3	Barraneche	10	Octubre	2023-10-30T00:00:00	2024-11-06T06:00:00	2	Temperatura media	12.4
58034	7	Sololá	701	Sololá	3	Barraneche	10	Octubre	2023-10-30T00:00:00	2024-11-06T06:00:00	4	Temperatura máxima	13.6
58035	7	Sololá	701	Sololá	3	Barraneche	10	Octubre	2023-10-30T00:00:00	2024-11-06T06:00:00	3	Temperatura mínima	12.3
58036	7	Sololá	701	Sololá	3	Barraneche	10	Octubre	2023-10-30T00:00:00	2024-11-06T06:00:00	5	Humedad	76
58037	7	Sololá	701	Sololá	3	Barraneche	10	Octubre	2023-10-30T00:00:00	2024-11-06T06:00:00	6	Velocidad del viento	3.2
58038	7	Sololá	701	Sololá	3	Barraneche	10	Octubre	2023-10-30T00:00:00	2024-11-06T06:00:00	7	Dirección del viento	3.22
58039	7	Sololá	701	Sololá	3	Barraneche	10	Octubre	2023-10-30T00:00:00	2024-11-06T06:00:00	1	Precipitación	0
58040	7	Sololá	701	Sololá	3	Barraneche	10	Octubre	2023-10-30T00:00:00	2024-11-06T06:00:00	8	Radiación solar	0
58041	7	Sololá	701	Sololá	3	Barraneche	10	Octubre	2023-10-30T00:00:00	2024-11-06T07:00:00	2	Temperatura media	14.7
58042	7	Sololá	701	Sololá	3	Barraneche	10	Octubre	2023-10-30T00:00:00	2024-11-06T07:00:00	4	Temperatura máxima	14.7
58043	7	Sololá	701	Sololá	3	Barraneche	10	Octubre	2023-10-30T00:00:00	2024-11-06T07:00:00	3	Temperatura mínima	12.3
58044	7	Sololá	701	Sololá	3	Barraneche	10	Octubre	2023-10-30T00:00:00	2024-11-06T07:00:00	5	Humedad	70
58045	7	Sololá	701	Sololá	3	Barraneche	10	Octubre	2023-10-30T00:00:00	2024-11-06T07:00:00	6	Velocidad del viento	4.8
58046	7	Sololá	701	Sololá	3	Barraneche	10	Octubre	2023-10-30T00:00:00	2024-11-06T07:00:00	7	Dirección del viento	4.83
58047	7	Sololá	701	Sololá	3	Barraneche	10	Octubre	2023-10-30T00:00:00	2024-11-06T07:00:00	1	Precipitación	0
58048	7	Sololá	701	Sololá	3	Barraneche	10	Octubre	2023-10-30T00:00:00	2024-11-06T07:00:00	8	Radiación solar	75
58049	7	Sololá	701	Sololá	3	Barraneche	10	Octubre	2023-10-30T00:00:00	2024-11-06T08:00:00	2	Temperatura media	15
58050	7	Sololá	701	Sololá	3	Barraneche	10	Octubre	2023-10-30T00:00:00	2024-11-06T08:00:00	4	Temperatura máxima	15
58051	7	Sololá	701	Sololá	3	Barraneche	10	Octubre	2023-10-30T00:00:00	2024-11-06T08:00:00	3	Temperatura mínima	14.4
58052	7	Sololá	701	Sololá	3	Barraneche	10	Octubre	2023-10-30T00:00:00	2024-11-06T08:00:00	5	Humedad	69
58053	7	Sololá	701	Sololá	3	Barraneche	10	Octubre	2023-10-30T00:00:00	2024-11-06T08:00:00	6	Velocidad del viento	8
58054	7	Sololá	701	Sololá	3	Barraneche	10	Octubre	2023-10-30T00:00:00	2024-11-06T08:00:00	7	Dirección del viento	8.05
58055	7	Sololá	701	Sololá	3	Barraneche	10	Octubre	2023-10-30T00:00:00	2024-11-06T08:00:00	1	Precipitación	0
58056	7	Sololá	701	Sololá	3	Barraneche	10	Octubre	2023-10-30T00:00:00	2024-11-06T08:00:00	8	Radiación solar	159
58057	7	Sololá	701	Sololá	3	Barraneche	10	Octubre	2023-10-30T00:00:00	2024-11-06T09:00:00	2	Temperatura media	16.3
58058	7	Sololá	701	Sololá	3	Barraneche	10	Octubre	2023-10-30T00:00:00	2024-11-06T09:00:00	4	Temperatura máxima	16.7
58059	7	Sololá	701	Sololá	3	Barraneche	10	Octubre	2023-10-30T00:00:00	2024-11-06T09:00:00	3	Temperatura mínima	15
58060	7	Sololá	701	Sololá	3	Barraneche	10	Octubre	2023-10-30T00:00:00	2024-11-06T09:00:00	5	Humedad	64
58061	7	Sololá	701	Sololá	3	Barraneche	10	Octubre	2023-10-30T00:00:00	2024-11-06T09:00:00	6	Velocidad del viento	11.3
58062	7	Sololá	701	Sololá	3	Barraneche	10	Octubre	2023-10-30T00:00:00	2024-11-06T09:00:00	7	Dirección del viento	11.27
58063	7	Sololá	701	Sololá	3	Barraneche	10	Octubre	2023-10-30T00:00:00	2024-11-06T09:00:00	1	Precipitación	0
58064	7	Sololá	701	Sololá	3	Barraneche	10	Octubre	2023-10-30T00:00:00	2024-11-06T09:00:00	8	Radiación solar	493
58065	7	Sololá	701	Sololá	3	Barraneche	10	Octubre	2023-10-30T00:00:00	2024-11-06T10:00:00	2	Temperatura media	17.4
58066	7	Sololá	701	Sololá	3	Barraneche	10	Octubre	2023-10-30T00:00:00	2024-11-06T10:00:00	4	Temperatura máxima	17.8
58067	7	Sololá	701	Sololá	3	Barraneche	10	Octubre	2023-10-30T00:00:00	2024-11-06T10:00:00	3	Temperatura mínima	16.3
58068	7	Sololá	701	Sololá	3	Barraneche	10	Octubre	2023-10-30T00:00:00	2024-11-06T10:00:00	5	Humedad	61
58069	7	Sololá	701	Sololá	3	Barraneche	10	Octubre	2023-10-30T00:00:00	2024-11-06T10:00:00	6	Velocidad del viento	14.5
58070	7	Sololá	701	Sololá	3	Barraneche	10	Octubre	2023-10-30T00:00:00	2024-11-06T10:00:00	7	Dirección del viento	14.48
58071	7	Sololá	701	Sololá	3	Barraneche	10	Octubre	2023-10-30T00:00:00	2024-11-06T10:00:00	1	Precipitación	0
58072	7	Sololá	701	Sololá	3	Barraneche	10	Octubre	2023-10-30T00:00:00	2024-11-06T10:00:00	8	Radiación solar	792
58073	7	Sololá	701	Sololá	3	Barraneche	10	Octubre	2023-10-30T00:00:00	2024-11-06T11:00:00	2	Temperatura media	17.8
58074	7	Sololá	701	Sololá	3	Barraneche	10	Octubre	2023-10-30T00:00:00	2024-11-06T11:00:00	4	Temperatura máxima	18.4
58075	7	Sololá	701	Sololá	3	Barraneche	10	Octubre	2023-10-30T00:00:00	2024-11-06T11:00:00	3	Temperatura mínima	17.2
58076	7	Sololá	701	Sololá	3	Barraneche	10	Octubre	2023-10-30T00:00:00	2024-11-06T11:00:00	5	Humedad	60
58077	7	Sololá	701	Sololá	3	Barraneche	10	Octubre	2023-10-30T00:00:00	2024-11-06T11:00:00	6	Velocidad del viento	12.9
58078	7	Sololá	701	Sololá	3	Barraneche	10	Octubre	2023-10-30T00:00:00	2024-11-06T11:00:00	7	Dirección del viento	12.87
58079	7	Sololá	701	Sololá	3	Barraneche	10	Octubre	2023-10-30T00:00:00	2024-11-06T11:00:00	1	Precipitación	0
58080	7	Sololá	701	Sololá	3	Barraneche	10	Octubre	2023-10-30T00:00:00	2024-11-06T11:00:00	8	Radiación solar	887
58081	7	Sololá	701	Sololá	3	Barraneche	10	Octubre	2023-10-30T00:00:00	2024-11-06T12:00:00	2	Temperatura media	17.7
58082	7	Sololá	701	Sololá	3	Barraneche	10	Octubre	2023-10-30T00:00:00	2024-11-06T12:00:00	4	Temperatura máxima	18
58083	7	Sololá	701	Sololá	3	Barraneche	10	Octubre	2023-10-30T00:00:00	2024-11-06T12:00:00	3	Temperatura mínima	17.3
58084	7	Sololá	701	Sololá	3	Barraneche	10	Octubre	2023-10-30T00:00:00	2024-11-06T12:00:00	5	Humedad	61
58085	7	Sololá	701	Sololá	3	Barraneche	10	Octubre	2023-10-30T00:00:00	2024-11-06T12:00:00	6	Velocidad del viento	16.1
58086	7	Sololá	701	Sololá	3	Barraneche	10	Octubre	2023-10-30T00:00:00	2024-11-06T12:00:00	7	Dirección del viento	16.09
58087	7	Sololá	701	Sololá	3	Barraneche	10	Octubre	2023-10-30T00:00:00	2024-11-06T12:00:00	1	Precipitación	0
58088	7	Sololá	701	Sololá	3	Barraneche	10	Octubre	2023-10-30T00:00:00	2024-11-06T12:00:00	8	Radiación solar	861
58089	7	Sololá	701	Sololá	3	Barraneche	10	Octubre	2023-10-30T00:00:00	2024-11-06T13:00:00	2	Temperatura media	19.1
58090	7	Sololá	701	Sololá	3	Barraneche	10	Octubre	2023-10-30T00:00:00	2024-11-06T13:00:00	4	Temperatura máxima	19.3
58091	7	Sololá	701	Sololá	3	Barraneche	10	Octubre	2023-10-30T00:00:00	2024-11-06T13:00:00	3	Temperatura mínima	17.7
58092	7	Sololá	701	Sololá	3	Barraneche	10	Octubre	2023-10-30T00:00:00	2024-11-06T13:00:00	5	Humedad	52
58093	7	Sololá	701	Sololá	3	Barraneche	10	Octubre	2023-10-30T00:00:00	2024-11-06T13:00:00	6	Velocidad del viento	11.3
58094	7	Sololá	701	Sololá	3	Barraneche	10	Octubre	2023-10-30T00:00:00	2024-11-06T13:00:00	7	Dirección del viento	11.27
58095	7	Sololá	701	Sololá	3	Barraneche	10	Octubre	2023-10-30T00:00:00	2024-11-06T13:00:00	1	Precipitación	0
58096	7	Sololá	701	Sololá	3	Barraneche	10	Octubre	2023-10-30T00:00:00	2024-11-06T13:00:00	8	Radiación solar	908
58097	7	Sololá	701	Sololá	3	Barraneche	10	Octubre	2023-10-30T00:00:00	2024-11-06T14:00:00	2	Temperatura media	19.1
58098	7	Sololá	701	Sololá	3	Barraneche	10	Octubre	2023-10-30T00:00:00	2024-11-06T14:00:00	4	Temperatura máxima	19.5
58099	7	Sololá	701	Sololá	3	Barraneche	10	Octubre	2023-10-30T00:00:00	2024-11-06T14:00:00	3	Temperatura mínima	18.7
58100	7	Sololá	701	Sololá	3	Barraneche	10	Octubre	2023-10-30T00:00:00	2024-11-06T14:00:00	5	Humedad	45
58101	7	Sololá	701	Sololá	3	Barraneche	10	Octubre	2023-10-30T00:00:00	2024-11-06T14:00:00	6	Velocidad del viento	11.3
58102	7	Sololá	701	Sololá	3	Barraneche	10	Octubre	2023-10-30T00:00:00	2024-11-06T14:00:00	7	Dirección del viento	11.27
58103	7	Sololá	701	Sololá	3	Barraneche	10	Octubre	2023-10-30T00:00:00	2024-11-06T14:00:00	1	Precipitación	0
58104	7	Sololá	701	Sololá	3	Barraneche	10	Octubre	2023-10-30T00:00:00	2024-11-06T14:00:00	8	Radiación solar	907
58105	7	Sololá	701	Sololá	3	Barraneche	10	Octubre	2023-10-30T00:00:00	2024-11-06T15:00:00	2	Temperatura media	17.2
58106	7	Sololá	701	Sololá	3	Barraneche	10	Octubre	2023-10-30T00:00:00	2024-11-06T15:00:00	4	Temperatura máxima	19.1
58107	7	Sololá	701	Sololá	3	Barraneche	10	Octubre	2023-10-30T00:00:00	2024-11-06T15:00:00	3	Temperatura mínima	17.2
58108	7	Sololá	701	Sololá	3	Barraneche	10	Octubre	2023-10-30T00:00:00	2024-11-06T15:00:00	5	Humedad	54
58109	7	Sololá	701	Sololá	3	Barraneche	10	Octubre	2023-10-30T00:00:00	2024-11-06T15:00:00	6	Velocidad del viento	11.3
58110	7	Sololá	701	Sololá	3	Barraneche	10	Octubre	2023-10-30T00:00:00	2024-11-06T15:00:00	7	Dirección del viento	11.27
58111	7	Sololá	701	Sololá	3	Barraneche	10	Octubre	2023-10-30T00:00:00	2024-11-06T15:00:00	1	Precipitación	0
58112	7	Sololá	701	Sololá	3	Barraneche	10	Octubre	2023-10-30T00:00:00	2024-11-06T15:00:00	8	Radiación solar	299
58113	7	Sololá	701	Sololá	3	Barraneche	10	Octubre	2023-10-30T00:00:00	2024-11-06T16:00:00	2	Temperatura media	16.7
58114	7	Sololá	701	Sololá	3	Barraneche	10	Octubre	2023-10-30T00:00:00	2024-11-06T16:00:00	4	Temperatura máxima	17.4
58115	7	Sololá	701	Sololá	3	Barraneche	10	Octubre	2023-10-30T00:00:00	2024-11-06T16:00:00	3	Temperatura mínima	16.7
58116	7	Sololá	701	Sololá	3	Barraneche	10	Octubre	2023-10-30T00:00:00	2024-11-06T16:00:00	5	Humedad	57
58117	7	Sololá	701	Sololá	3	Barraneche	10	Octubre	2023-10-30T00:00:00	2024-11-06T16:00:00	6	Velocidad del viento	4.8
58118	7	Sololá	701	Sololá	3	Barraneche	10	Octubre	2023-10-30T00:00:00	2024-11-06T16:00:00	7	Dirección del viento	4.83
58119	7	Sololá	701	Sololá	3	Barraneche	10	Octubre	2023-10-30T00:00:00	2024-11-06T16:00:00	1	Precipitación	0
58120	7	Sololá	701	Sololá	3	Barraneche	10	Octubre	2023-10-30T00:00:00	2024-11-06T16:00:00	8	Radiación solar	195
58121	7	Sololá	701	Sololá	3	Barraneche	10	Octubre	2023-10-30T00:00:00	2024-11-06T17:00:00	2	Temperatura media	14.9
58122	7	Sololá	701	Sololá	3	Barraneche	10	Octubre	2023-10-30T00:00:00	2024-11-06T17:00:00	4	Temperatura máxima	16.7
58123	7	Sololá	701	Sololá	3	Barraneche	10	Octubre	2023-10-30T00:00:00	2024-11-06T17:00:00	3	Temperatura mínima	14.9
58124	7	Sololá	701	Sololá	3	Barraneche	10	Octubre	2023-10-30T00:00:00	2024-11-06T17:00:00	5	Humedad	61
58125	7	Sololá	701	Sololá	3	Barraneche	10	Octubre	2023-10-30T00:00:00	2024-11-06T17:00:00	6	Velocidad del viento	8
58126	7	Sololá	701	Sololá	3	Barraneche	10	Octubre	2023-10-30T00:00:00	2024-11-06T17:00:00	7	Dirección del viento	8.05
58127	7	Sololá	701	Sololá	3	Barraneche	10	Octubre	2023-10-30T00:00:00	2024-11-06T17:00:00	1	Precipitación	0
58128	7	Sololá	701	Sololá	3	Barraneche	10	Octubre	2023-10-30T00:00:00	2024-11-06T17:00:00	8	Radiación solar	57
58129	7	Sololá	701	Sololá	3	Barraneche	10	Octubre	2023-10-30T00:00:00	2024-11-06T18:00:00	2	Temperatura media	14.1
58130	7	Sololá	701	Sololá	3	Barraneche	10	Octubre	2023-10-30T00:00:00	2024-11-06T18:00:00	4	Temperatura máxima	14.9
58131	7	Sololá	701	Sololá	3	Barraneche	10	Octubre	2023-10-30T00:00:00	2024-11-06T18:00:00	3	Temperatura mínima	14.1
58132	7	Sololá	701	Sololá	3	Barraneche	10	Octubre	2023-10-30T00:00:00	2024-11-06T18:00:00	5	Humedad	63
58133	7	Sololá	701	Sololá	3	Barraneche	10	Octubre	2023-10-30T00:00:00	2024-11-06T18:00:00	6	Velocidad del viento	6.4
58134	7	Sololá	701	Sololá	3	Barraneche	10	Octubre	2023-10-30T00:00:00	2024-11-06T18:00:00	7	Dirección del viento	6.44
58135	7	Sololá	701	Sololá	3	Barraneche	10	Octubre	2023-10-30T00:00:00	2024-11-06T18:00:00	1	Precipitación	0
58136	7	Sololá	701	Sololá	3	Barraneche	10	Octubre	2023-10-30T00:00:00	2024-11-06T18:00:00	8	Radiación solar	7
58137	7	Sololá	701	Sololá	3	Barraneche	10	Octubre	2023-10-30T00:00:00	2024-11-06T19:00:00	2	Temperatura media	13.8
58138	7	Sololá	701	Sololá	3	Barraneche	10	Octubre	2023-10-30T00:00:00	2024-11-06T19:00:00	4	Temperatura máxima	14.1
58139	7	Sololá	701	Sololá	3	Barraneche	10	Octubre	2023-10-30T00:00:00	2024-11-06T19:00:00	3	Temperatura mínima	13.6
58140	7	Sololá	701	Sololá	3	Barraneche	10	Octubre	2023-10-30T00:00:00	2024-11-06T19:00:00	5	Humedad	60
58141	7	Sololá	701	Sololá	3	Barraneche	10	Octubre	2023-10-30T00:00:00	2024-11-06T19:00:00	6	Velocidad del viento	14.5
58142	7	Sololá	701	Sololá	3	Barraneche	10	Octubre	2023-10-30T00:00:00	2024-11-06T19:00:00	7	Dirección del viento	14.48
58143	7	Sololá	701	Sololá	3	Barraneche	10	Octubre	2023-10-30T00:00:00	2024-11-06T19:00:00	1	Precipitación	0
58144	7	Sololá	701	Sololá	3	Barraneche	10	Octubre	2023-10-30T00:00:00	2024-11-06T19:00:00	8	Radiación solar	0
58145	7	Sololá	701	Sololá	3	Barraneche	10	Octubre	2023-10-30T00:00:00	2024-11-06T20:00:00	2	Temperatura media	13.8
58146	7	Sololá	701	Sololá	3	Barraneche	10	Octubre	2023-10-30T00:00:00	2024-11-06T20:00:00	4	Temperatura máxima	14.2
58147	7	Sololá	701	Sololá	3	Barraneche	10	Octubre	2023-10-30T00:00:00	2024-11-06T20:00:00	3	Temperatura mínima	13.8
58148	7	Sololá	701	Sololá	3	Barraneche	10	Octubre	2023-10-30T00:00:00	2024-11-06T20:00:00	5	Humedad	62
58149	7	Sololá	701	Sololá	3	Barraneche	10	Octubre	2023-10-30T00:00:00	2024-11-06T20:00:00	6	Velocidad del viento	17.7
58150	7	Sololá	701	Sololá	3	Barraneche	10	Octubre	2023-10-30T00:00:00	2024-11-06T20:00:00	7	Dirección del viento	17.7
58151	7	Sololá	701	Sololá	3	Barraneche	10	Octubre	2023-10-30T00:00:00	2024-11-06T20:00:00	1	Precipitación	0
58152	7	Sololá	701	Sololá	3	Barraneche	10	Octubre	2023-10-30T00:00:00	2024-11-06T20:00:00	8	Radiación solar	0
58153	7	Sololá	701	Sololá	3	Barraneche	10	Octubre	2023-10-30T00:00:00	2024-11-06T21:00:00	2	Temperatura media	14.3
58154	7	Sololá	701	Sololá	3	Barraneche	10	Octubre	2023-10-30T00:00:00	2024-11-06T21:00:00	4	Temperatura máxima	14.3
58155	7	Sololá	701	Sololá	3	Barraneche	10	Octubre	2023-10-30T00:00:00	2024-11-06T21:00:00	3	Temperatura mínima	13.8
58156	7	Sololá	701	Sololá	3	Barraneche	10	Octubre	2023-10-30T00:00:00	2024-11-06T21:00:00	5	Humedad	60
58157	7	Sololá	701	Sololá	3	Barraneche	10	Octubre	2023-10-30T00:00:00	2024-11-06T21:00:00	6	Velocidad del viento	20.9
58158	7	Sololá	701	Sololá	3	Barraneche	10	Octubre	2023-10-30T00:00:00	2024-11-06T21:00:00	7	Dirección del viento	20.92
58159	7	Sololá	701	Sololá	3	Barraneche	10	Octubre	2023-10-30T00:00:00	2024-11-06T21:00:00	1	Precipitación	0
58160	7	Sololá	701	Sololá	3	Barraneche	10	Octubre	2023-10-30T00:00:00	2024-11-06T21:00:00	8	Radiación solar	0
58161	7	Sololá	701	Sololá	3	Barraneche	10	Octubre	2023-10-30T00:00:00	2024-11-06T22:00:00	2	Temperatura media	13.8
58162	7	Sololá	701	Sololá	3	Barraneche	10	Octubre	2023-10-30T00:00:00	2024-11-06T22:00:00	4	Temperatura máxima	14.4
58163	7	Sololá	701	Sololá	3	Barraneche	10	Octubre	2023-10-30T00:00:00	2024-11-06T22:00:00	3	Temperatura mínima	13.8
58164	7	Sololá	701	Sololá	3	Barraneche	10	Octubre	2023-10-30T00:00:00	2024-11-06T22:00:00	5	Humedad	61
58165	7	Sololá	701	Sololá	3	Barraneche	10	Octubre	2023-10-30T00:00:00	2024-11-06T22:00:00	6	Velocidad del viento	19.3
58166	7	Sololá	701	Sololá	3	Barraneche	10	Octubre	2023-10-30T00:00:00	2024-11-06T22:00:00	7	Dirección del viento	19.31
58167	7	Sololá	701	Sololá	3	Barraneche	10	Octubre	2023-10-30T00:00:00	2024-11-06T22:00:00	1	Precipitación	0
58168	7	Sololá	701	Sololá	3	Barraneche	10	Octubre	2023-10-30T00:00:00	2024-11-06T22:00:00	8	Radiación solar	0
58169	7	Sololá	701	Sololá	3	Barraneche	10	Octubre	2023-10-30T00:00:00	2024-11-06T23:00:00	2	Temperatura media	13.8
58170	7	Sololá	701	Sololá	3	Barraneche	10	Octubre	2023-10-30T00:00:00	2024-11-06T23:00:00	4	Temperatura máxima	14.1
58171	7	Sololá	701	Sololá	3	Barraneche	10	Octubre	2023-10-30T00:00:00	2024-11-06T23:00:00	3	Temperatura mínima	13.6
58172	7	Sololá	701	Sololá	3	Barraneche	10	Octubre	2023-10-30T00:00:00	2024-11-06T23:00:00	5	Humedad	61
58173	7	Sololá	701	Sololá	3	Barraneche	10	Octubre	2023-10-30T00:00:00	2024-11-06T23:00:00	6	Velocidad del viento	14.5
58174	7	Sololá	701	Sololá	3	Barraneche	10	Octubre	2023-10-30T00:00:00	2024-11-06T23:00:00	7	Dirección del viento	14.48
58175	7	Sololá	701	Sololá	3	Barraneche	10	Octubre	2023-10-30T00:00:00	2024-11-06T23:00:00	1	Precipitación	0
58176	7	Sololá	701	Sololá	3	Barraneche	10	Octubre	2023-10-30T00:00:00	2024-11-06T23:00:00	8	Radiación solar	0
58177	7	Sololá	701	Sololá	3	Barraneche	10	Octubre	2023-10-31T00:00:00	2024-11-06T00:00:00	2	Temperatura media	14.3
58178	7	Sololá	701	Sololá	3	Barraneche	10	Octubre	2023-10-31T00:00:00	2024-11-06T00:00:00	4	Temperatura máxima	14.3
58179	7	Sololá	701	Sololá	3	Barraneche	10	Octubre	2023-10-31T00:00:00	2024-11-06T00:00:00	3	Temperatura mínima	13.7
58180	7	Sololá	701	Sololá	3	Barraneche	10	Octubre	2023-10-31T00:00:00	2024-11-06T00:00:00	5	Humedad	57
58181	7	Sololá	701	Sololá	3	Barraneche	10	Octubre	2023-10-31T00:00:00	2024-11-06T00:00:00	6	Velocidad del viento	12.9
58182	7	Sololá	701	Sololá	3	Barraneche	10	Octubre	2023-10-31T00:00:00	2024-11-06T00:00:00	7	Dirección del viento	12.87
58183	7	Sololá	701	Sololá	3	Barraneche	10	Octubre	2023-10-31T00:00:00	2024-11-06T00:00:00	1	Precipitación	0
58184	7	Sololá	701	Sololá	3	Barraneche	10	Octubre	2023-10-31T00:00:00	2024-11-06T00:00:00	8	Radiación solar	0
58185	7	Sololá	701	Sololá	3	Barraneche	10	Octubre	2023-10-31T00:00:00	2024-11-06T01:00:00	2	Temperatura media	13.7
58186	7	Sololá	701	Sololá	3	Barraneche	10	Octubre	2023-10-31T00:00:00	2024-11-06T01:00:00	4	Temperatura máxima	14.3
58187	7	Sololá	701	Sololá	3	Barraneche	10	Octubre	2023-10-31T00:00:00	2024-11-06T01:00:00	3	Temperatura mínima	13.6
58188	7	Sololá	701	Sololá	3	Barraneche	10	Octubre	2023-10-31T00:00:00	2024-11-06T01:00:00	5	Humedad	62
58189	7	Sololá	701	Sololá	3	Barraneche	10	Octubre	2023-10-31T00:00:00	2024-11-06T01:00:00	6	Velocidad del viento	14.5
58190	7	Sololá	701	Sololá	3	Barraneche	10	Octubre	2023-10-31T00:00:00	2024-11-06T01:00:00	7	Dirección del viento	14.48
58191	7	Sololá	701	Sololá	3	Barraneche	10	Octubre	2023-10-31T00:00:00	2024-11-06T01:00:00	1	Precipitación	0
58192	7	Sololá	701	Sololá	3	Barraneche	10	Octubre	2023-10-31T00:00:00	2024-11-06T01:00:00	8	Radiación solar	0
58193	7	Sololá	701	Sololá	3	Barraneche	10	Octubre	2023-10-31T00:00:00	2024-11-06T02:00:00	2	Temperatura media	13.1
58194	7	Sololá	701	Sololá	3	Barraneche	10	Octubre	2023-10-31T00:00:00	2024-11-06T02:00:00	4	Temperatura máxima	13.7
58195	7	Sololá	701	Sololá	3	Barraneche	10	Octubre	2023-10-31T00:00:00	2024-11-06T02:00:00	3	Temperatura mínima	13.1
58196	7	Sololá	701	Sololá	3	Barraneche	10	Octubre	2023-10-31T00:00:00	2024-11-06T02:00:00	5	Humedad	63
58197	7	Sololá	701	Sololá	3	Barraneche	10	Octubre	2023-10-31T00:00:00	2024-11-06T02:00:00	6	Velocidad del viento	20.9
58198	7	Sololá	701	Sololá	3	Barraneche	10	Octubre	2023-10-31T00:00:00	2024-11-06T02:00:00	7	Dirección del viento	20.92
58199	7	Sololá	701	Sololá	3	Barraneche	10	Octubre	2023-10-31T00:00:00	2024-11-06T02:00:00	1	Precipitación	0
58200	7	Sololá	701	Sololá	3	Barraneche	10	Octubre	2023-10-31T00:00:00	2024-11-06T02:00:00	8	Radiación solar	0
58201	7	Sololá	701	Sololá	3	Barraneche	10	Octubre	2023-10-31T00:00:00	2024-11-06T03:00:00	2	Temperatura media	13.2
58202	7	Sololá	701	Sololá	3	Barraneche	10	Octubre	2023-10-31T00:00:00	2024-11-06T03:00:00	4	Temperatura máxima	13.3
58203	7	Sololá	701	Sololá	3	Barraneche	10	Octubre	2023-10-31T00:00:00	2024-11-06T03:00:00	3	Temperatura mínima	12.9
58204	7	Sololá	701	Sololá	3	Barraneche	10	Octubre	2023-10-31T00:00:00	2024-11-06T03:00:00	5	Humedad	62
58205	7	Sololá	701	Sololá	3	Barraneche	10	Octubre	2023-10-31T00:00:00	2024-11-06T03:00:00	6	Velocidad del viento	17.7
58206	7	Sololá	701	Sololá	3	Barraneche	10	Octubre	2023-10-31T00:00:00	2024-11-06T03:00:00	7	Dirección del viento	17.7
58207	7	Sololá	701	Sololá	3	Barraneche	10	Octubre	2023-10-31T00:00:00	2024-11-06T03:00:00	1	Precipitación	0
58208	7	Sololá	701	Sololá	3	Barraneche	10	Octubre	2023-10-31T00:00:00	2024-11-06T03:00:00	8	Radiación solar	0
58209	7	Sololá	701	Sololá	3	Barraneche	10	Octubre	2023-10-31T00:00:00	2024-11-06T04:00:00	2	Temperatura media	13.4
58210	7	Sololá	701	Sololá	3	Barraneche	10	Octubre	2023-10-31T00:00:00	2024-11-06T04:00:00	4	Temperatura máxima	13.4
58211	7	Sololá	701	Sololá	3	Barraneche	10	Octubre	2023-10-31T00:00:00	2024-11-06T04:00:00	3	Temperatura mínima	13.1
58212	7	Sololá	701	Sololá	3	Barraneche	10	Octubre	2023-10-31T00:00:00	2024-11-06T04:00:00	5	Humedad	60
58213	7	Sololá	701	Sololá	3	Barraneche	10	Octubre	2023-10-31T00:00:00	2024-11-06T04:00:00	6	Velocidad del viento	20.9
58214	7	Sololá	701	Sololá	3	Barraneche	10	Octubre	2023-10-31T00:00:00	2024-11-06T04:00:00	7	Dirección del viento	20.92
58215	7	Sololá	701	Sololá	3	Barraneche	10	Octubre	2023-10-31T00:00:00	2024-11-06T04:00:00	1	Precipitación	0
58216	7	Sololá	701	Sololá	3	Barraneche	10	Octubre	2023-10-31T00:00:00	2024-11-06T04:00:00	8	Radiación solar	0
58217	7	Sololá	701	Sololá	3	Barraneche	10	Octubre	2023-10-31T00:00:00	2024-11-06T05:00:00	2	Temperatura media	13.8
58218	7	Sololá	701	Sololá	3	Barraneche	10	Octubre	2023-10-31T00:00:00	2024-11-06T05:00:00	4	Temperatura máxima	13.9
58219	7	Sololá	701	Sololá	3	Barraneche	10	Octubre	2023-10-31T00:00:00	2024-11-06T05:00:00	3	Temperatura mínima	13.2
58220	7	Sololá	701	Sololá	3	Barraneche	10	Octubre	2023-10-31T00:00:00	2024-11-06T05:00:00	5	Humedad	54
58221	7	Sololá	701	Sololá	3	Barraneche	10	Octubre	2023-10-31T00:00:00	2024-11-06T05:00:00	6	Velocidad del viento	24.1
58222	7	Sololá	701	Sololá	3	Barraneche	10	Octubre	2023-10-31T00:00:00	2024-11-06T05:00:00	7	Dirección del viento	24.14
58223	7	Sololá	701	Sololá	3	Barraneche	10	Octubre	2023-10-31T00:00:00	2024-11-06T05:00:00	1	Precipitación	0
58224	7	Sololá	701	Sololá	3	Barraneche	10	Octubre	2023-10-31T00:00:00	2024-11-06T05:00:00	8	Radiación solar	0
58225	7	Sololá	701	Sololá	3	Barraneche	10	Octubre	2023-10-31T00:00:00	2024-11-06T06:00:00	2	Temperatura media	13.4
58226	7	Sololá	701	Sololá	3	Barraneche	10	Octubre	2023-10-31T00:00:00	2024-11-06T06:00:00	4	Temperatura máxima	13.9
58227	7	Sololá	701	Sololá	3	Barraneche	10	Octubre	2023-10-31T00:00:00	2024-11-06T06:00:00	3	Temperatura mínima	13.4
58228	7	Sololá	701	Sololá	3	Barraneche	10	Octubre	2023-10-31T00:00:00	2024-11-06T06:00:00	5	Humedad	58
58229	7	Sololá	701	Sololá	3	Barraneche	10	Octubre	2023-10-31T00:00:00	2024-11-06T06:00:00	6	Velocidad del viento	24.1
58230	7	Sololá	701	Sololá	3	Barraneche	10	Octubre	2023-10-31T00:00:00	2024-11-06T06:00:00	7	Dirección del viento	24.14
58231	7	Sololá	701	Sololá	3	Barraneche	10	Octubre	2023-10-31T00:00:00	2024-11-06T06:00:00	1	Precipitación	0
58232	7	Sololá	701	Sololá	3	Barraneche	10	Octubre	2023-10-31T00:00:00	2024-11-06T06:00:00	8	Radiación solar	0
58233	7	Sololá	701	Sololá	3	Barraneche	10	Octubre	2023-10-31T00:00:00	2024-11-06T07:00:00	2	Temperatura media	13.2
58234	7	Sololá	701	Sololá	3	Barraneche	10	Octubre	2023-10-31T00:00:00	2024-11-06T07:00:00	4	Temperatura máxima	13.4
58235	7	Sololá	701	Sololá	3	Barraneche	10	Octubre	2023-10-31T00:00:00	2024-11-06T07:00:00	3	Temperatura mínima	13
58236	7	Sololá	701	Sololá	3	Barraneche	10	Octubre	2023-10-31T00:00:00	2024-11-06T07:00:00	5	Humedad	59
58237	7	Sololá	701	Sololá	3	Barraneche	10	Octubre	2023-10-31T00:00:00	2024-11-06T07:00:00	6	Velocidad del viento	20.9
58238	7	Sololá	701	Sololá	3	Barraneche	10	Octubre	2023-10-31T00:00:00	2024-11-06T07:00:00	7	Dirección del viento	20.92
58239	7	Sololá	701	Sololá	3	Barraneche	10	Octubre	2023-10-31T00:00:00	2024-11-06T07:00:00	1	Precipitación	0
58240	7	Sololá	701	Sololá	3	Barraneche	10	Octubre	2023-10-31T00:00:00	2024-11-06T07:00:00	8	Radiación solar	8
58241	7	Sololá	701	Sololá	3	Barraneche	10	Octubre	2023-10-31T00:00:00	2024-11-06T08:00:00	2	Temperatura media	13.9
58242	7	Sololá	701	Sololá	3	Barraneche	10	Octubre	2023-10-31T00:00:00	2024-11-06T08:00:00	4	Temperatura máxima	14
58243	7	Sololá	701	Sololá	3	Barraneche	10	Octubre	2023-10-31T00:00:00	2024-11-06T08:00:00	3	Temperatura mínima	13.2
58244	7	Sololá	701	Sololá	3	Barraneche	10	Octubre	2023-10-31T00:00:00	2024-11-06T08:00:00	5	Humedad	57
58245	7	Sololá	701	Sololá	3	Barraneche	10	Octubre	2023-10-31T00:00:00	2024-11-06T08:00:00	6	Velocidad del viento	16.1
58246	7	Sololá	701	Sololá	3	Barraneche	10	Octubre	2023-10-31T00:00:00	2024-11-06T08:00:00	7	Dirección del viento	16.09
58247	7	Sololá	701	Sololá	3	Barraneche	10	Octubre	2023-10-31T00:00:00	2024-11-06T08:00:00	1	Precipitación	0
58248	7	Sololá	701	Sololá	3	Barraneche	10	Octubre	2023-10-31T00:00:00	2024-11-06T08:00:00	8	Radiación solar	77
58249	7	Sololá	701	Sololá	3	Barraneche	10	Octubre	2023-10-31T00:00:00	2024-11-06T09:00:00	2	Temperatura media	15
58250	7	Sololá	701	Sololá	3	Barraneche	10	Octubre	2023-10-31T00:00:00	2024-11-06T09:00:00	4	Temperatura máxima	15.1
58251	7	Sololá	701	Sololá	3	Barraneche	10	Octubre	2023-10-31T00:00:00	2024-11-06T09:00:00	3	Temperatura mínima	13.9
58252	7	Sololá	701	Sololá	3	Barraneche	10	Octubre	2023-10-31T00:00:00	2024-11-06T09:00:00	5	Humedad	54
58253	7	Sololá	701	Sololá	3	Barraneche	10	Octubre	2023-10-31T00:00:00	2024-11-06T09:00:00	6	Velocidad del viento	16.1
58254	7	Sololá	701	Sololá	3	Barraneche	10	Octubre	2023-10-31T00:00:00	2024-11-06T09:00:00	7	Dirección del viento	16.09
58255	7	Sololá	701	Sololá	3	Barraneche	10	Octubre	2023-10-31T00:00:00	2024-11-06T09:00:00	1	Precipitación	0
58256	7	Sololá	701	Sololá	3	Barraneche	10	Octubre	2023-10-31T00:00:00	2024-11-06T09:00:00	8	Radiación solar	200
58257	7	Sololá	701	Sololá	3	Barraneche	10	Octubre	2023-10-31T00:00:00	2024-11-06T10:00:00	2	Temperatura media	15.3
58258	7	Sololá	701	Sololá	3	Barraneche	10	Octubre	2023-10-31T00:00:00	2024-11-06T10:00:00	4	Temperatura máxima	15.3
58259	7	Sololá	701	Sololá	3	Barraneche	10	Octubre	2023-10-31T00:00:00	2024-11-06T10:00:00	3	Temperatura mínima	14.9
58260	7	Sololá	701	Sololá	3	Barraneche	10	Octubre	2023-10-31T00:00:00	2024-11-06T10:00:00	5	Humedad	55
58261	7	Sololá	701	Sololá	3	Barraneche	10	Octubre	2023-10-31T00:00:00	2024-11-06T10:00:00	6	Velocidad del viento	12.9
58262	7	Sololá	701	Sololá	3	Barraneche	10	Octubre	2023-10-31T00:00:00	2024-11-06T10:00:00	7	Dirección del viento	12.87
58263	7	Sololá	701	Sololá	3	Barraneche	10	Octubre	2023-10-31T00:00:00	2024-11-06T10:00:00	1	Precipitación	0
58264	7	Sololá	701	Sololá	3	Barraneche	10	Octubre	2023-10-31T00:00:00	2024-11-06T10:00:00	8	Radiación solar	206
58265	7	Sololá	701	Sololá	3	Barraneche	10	Octubre	2023-10-31T00:00:00	2024-11-06T11:00:00	2	Temperatura media	15.6
58266	7	Sololá	701	Sololá	3	Barraneche	10	Octubre	2023-10-31T00:00:00	2024-11-06T11:00:00	4	Temperatura máxima	15.6
58267	7	Sololá	701	Sololá	3	Barraneche	10	Octubre	2023-10-31T00:00:00	2024-11-06T11:00:00	3	Temperatura mínima	14.9
58268	7	Sololá	701	Sololá	3	Barraneche	10	Octubre	2023-10-31T00:00:00	2024-11-06T11:00:00	5	Humedad	57
58269	7	Sololá	701	Sololá	3	Barraneche	10	Octubre	2023-10-31T00:00:00	2024-11-06T11:00:00	6	Velocidad del viento	20.9
58270	7	Sololá	701	Sololá	3	Barraneche	10	Octubre	2023-10-31T00:00:00	2024-11-06T11:00:00	7	Dirección del viento	20.92
58271	7	Sololá	701	Sololá	3	Barraneche	10	Octubre	2023-10-31T00:00:00	2024-11-06T11:00:00	1	Precipitación	0
58272	7	Sololá	701	Sololá	3	Barraneche	10	Octubre	2023-10-31T00:00:00	2024-11-06T11:00:00	8	Radiación solar	285
58273	7	Sololá	701	Sololá	3	Barraneche	10	Octubre	2023-10-31T00:00:00	2024-11-06T12:00:00	2	Temperatura media	15.2
58274	7	Sololá	701	Sololá	3	Barraneche	10	Octubre	2023-10-31T00:00:00	2024-11-06T12:00:00	4	Temperatura máxima	15.8
58275	7	Sololá	701	Sololá	3	Barraneche	10	Octubre	2023-10-31T00:00:00	2024-11-06T12:00:00	3	Temperatura mínima	15.1
58276	7	Sololá	701	Sololá	3	Barraneche	10	Octubre	2023-10-31T00:00:00	2024-11-06T12:00:00	5	Humedad	59
58277	7	Sololá	701	Sololá	3	Barraneche	10	Octubre	2023-10-31T00:00:00	2024-11-06T12:00:00	6	Velocidad del viento	17.7
58278	7	Sololá	701	Sololá	3	Barraneche	10	Octubre	2023-10-31T00:00:00	2024-11-06T12:00:00	7	Dirección del viento	17.7
58279	7	Sololá	701	Sololá	3	Barraneche	10	Octubre	2023-10-31T00:00:00	2024-11-06T12:00:00	1	Precipitación	0
58280	7	Sololá	701	Sololá	3	Barraneche	10	Octubre	2023-10-31T00:00:00	2024-11-06T12:00:00	8	Radiación solar	341
58281	7	Sololá	701	Sololá	3	Barraneche	10	Octubre	2023-10-31T00:00:00	2024-11-06T13:00:00	2	Temperatura media	14.6
58282	7	Sololá	701	Sololá	3	Barraneche	10	Octubre	2023-10-31T00:00:00	2024-11-06T13:00:00	4	Temperatura máxima	15.4
58283	7	Sololá	701	Sololá	3	Barraneche	10	Octubre	2023-10-31T00:00:00	2024-11-06T13:00:00	3	Temperatura mínima	14.6
58284	7	Sololá	701	Sololá	3	Barraneche	10	Octubre	2023-10-31T00:00:00	2024-11-06T13:00:00	5	Humedad	62
58285	7	Sololá	701	Sololá	3	Barraneche	10	Octubre	2023-10-31T00:00:00	2024-11-06T13:00:00	6	Velocidad del viento	20.9
58286	7	Sololá	701	Sololá	3	Barraneche	10	Octubre	2023-10-31T00:00:00	2024-11-06T13:00:00	7	Dirección del viento	20.92
58287	7	Sololá	701	Sololá	3	Barraneche	10	Octubre	2023-10-31T00:00:00	2024-11-06T13:00:00	1	Precipitación	0
58288	7	Sololá	701	Sololá	3	Barraneche	10	Octubre	2023-10-31T00:00:00	2024-11-06T13:00:00	8	Radiación solar	321
58289	7	Sololá	701	Sololá	3	Barraneche	10	Octubre	2023-10-31T00:00:00	2024-11-06T14:00:00	2	Temperatura media	13.9
58290	7	Sololá	701	Sololá	3	Barraneche	10	Octubre	2023-10-31T00:00:00	2024-11-06T14:00:00	4	Temperatura máxima	14.6
58291	7	Sololá	701	Sololá	3	Barraneche	10	Octubre	2023-10-31T00:00:00	2024-11-06T14:00:00	3	Temperatura mínima	13.9
58292	7	Sololá	701	Sololá	3	Barraneche	10	Octubre	2023-10-31T00:00:00	2024-11-06T14:00:00	5	Humedad	65
58293	7	Sololá	701	Sololá	3	Barraneche	10	Octubre	2023-10-31T00:00:00	2024-11-06T14:00:00	6	Velocidad del viento	19.3
58294	7	Sololá	701	Sololá	3	Barraneche	10	Octubre	2023-10-31T00:00:00	2024-11-06T14:00:00	7	Dirección del viento	19.31
58295	7	Sololá	701	Sololá	3	Barraneche	10	Octubre	2023-10-31T00:00:00	2024-11-06T14:00:00	1	Precipitación	0
58296	7	Sololá	701	Sololá	3	Barraneche	10	Octubre	2023-10-31T00:00:00	2024-11-06T14:00:00	8	Radiación solar	195
58297	7	Sololá	701	Sololá	3	Barraneche	10	Octubre	2023-10-31T00:00:00	2024-11-06T15:00:00	2	Temperatura media	13.1
58298	7	Sololá	701	Sololá	3	Barraneche	10	Octubre	2023-10-31T00:00:00	2024-11-06T15:00:00	4	Temperatura máxima	13.9
58299	7	Sololá	701	Sololá	3	Barraneche	10	Octubre	2023-10-31T00:00:00	2024-11-06T15:00:00	3	Temperatura mínima	13.1
58300	7	Sololá	701	Sololá	3	Barraneche	10	Octubre	2023-10-31T00:00:00	2024-11-06T15:00:00	5	Humedad	68
58301	7	Sololá	701	Sololá	3	Barraneche	10	Octubre	2023-10-31T00:00:00	2024-11-06T15:00:00	6	Velocidad del viento	14.5
58302	7	Sololá	701	Sololá	3	Barraneche	10	Octubre	2023-10-31T00:00:00	2024-11-06T15:00:00	7	Dirección del viento	14.48
58303	7	Sololá	701	Sololá	3	Barraneche	10	Octubre	2023-10-31T00:00:00	2024-11-06T15:00:00	1	Precipitación	0.8
58304	7	Sololá	701	Sololá	3	Barraneche	10	Octubre	2023-10-31T00:00:00	2024-11-06T15:00:00	8	Radiación solar	138
58305	7	Sololá	701	Sololá	3	Barraneche	10	Octubre	2023-10-31T00:00:00	2024-11-06T16:00:00	2	Temperatura media	12.9
58306	7	Sololá	701	Sololá	3	Barraneche	10	Octubre	2023-10-31T00:00:00	2024-11-06T16:00:00	4	Temperatura máxima	13.2
58307	7	Sololá	701	Sololá	3	Barraneche	10	Octubre	2023-10-31T00:00:00	2024-11-06T16:00:00	3	Temperatura mínima	12.9
58308	7	Sololá	701	Sololá	3	Barraneche	10	Octubre	2023-10-31T00:00:00	2024-11-06T16:00:00	5	Humedad	68
58309	7	Sololá	701	Sololá	3	Barraneche	10	Octubre	2023-10-31T00:00:00	2024-11-06T16:00:00	6	Velocidad del viento	17.7
58310	7	Sololá	701	Sololá	3	Barraneche	10	Octubre	2023-10-31T00:00:00	2024-11-06T16:00:00	7	Dirección del viento	17.7
58311	7	Sololá	701	Sololá	3	Barraneche	10	Octubre	2023-10-31T00:00:00	2024-11-06T16:00:00	1	Precipitación	0.4
58312	7	Sololá	701	Sololá	3	Barraneche	10	Octubre	2023-10-31T00:00:00	2024-11-06T16:00:00	8	Radiación solar	87
58313	7	Sololá	701	Sololá	3	Barraneche	10	Octubre	2023-10-31T00:00:00	2024-11-06T17:00:00	2	Temperatura media	12.7
58314	7	Sololá	701	Sololá	3	Barraneche	10	Octubre	2023-10-31T00:00:00	2024-11-06T17:00:00	4	Temperatura máxima	13.1
58315	7	Sololá	701	Sololá	3	Barraneche	10	Octubre	2023-10-31T00:00:00	2024-11-06T17:00:00	3	Temperatura mínima	12.7
58316	7	Sololá	701	Sololá	3	Barraneche	10	Octubre	2023-10-31T00:00:00	2024-11-06T17:00:00	5	Humedad	68
58317	7	Sololá	701	Sololá	3	Barraneche	10	Octubre	2023-10-31T00:00:00	2024-11-06T17:00:00	6	Velocidad del viento	17.7
58318	7	Sololá	701	Sololá	3	Barraneche	10	Octubre	2023-10-31T00:00:00	2024-11-06T17:00:00	7	Dirección del viento	17.7
58319	7	Sololá	701	Sololá	3	Barraneche	10	Octubre	2023-10-31T00:00:00	2024-11-06T17:00:00	1	Precipitación	0.4
58320	7	Sololá	701	Sololá	3	Barraneche	10	Octubre	2023-10-31T00:00:00	2024-11-06T17:00:00	8	Radiación solar	31
58321	7	Sololá	701	Sololá	3	Barraneche	10	Octubre	2023-10-31T00:00:00	2024-11-06T18:00:00	2	Temperatura media	12.5
58322	7	Sololá	701	Sololá	3	Barraneche	10	Octubre	2023-10-31T00:00:00	2024-11-06T18:00:00	4	Temperatura máxima	12.7
58323	7	Sololá	701	Sololá	3	Barraneche	10	Octubre	2023-10-31T00:00:00	2024-11-06T18:00:00	3	Temperatura mínima	12.3
58324	7	Sololá	701	Sololá	3	Barraneche	10	Octubre	2023-10-31T00:00:00	2024-11-06T18:00:00	5	Humedad	67
58325	7	Sololá	701	Sololá	3	Barraneche	10	Octubre	2023-10-31T00:00:00	2024-11-06T18:00:00	6	Velocidad del viento	22.5
58326	7	Sololá	701	Sololá	3	Barraneche	10	Octubre	2023-10-31T00:00:00	2024-11-06T18:00:00	7	Dirección del viento	22.53
58327	7	Sololá	701	Sololá	3	Barraneche	10	Octubre	2023-10-31T00:00:00	2024-11-06T18:00:00	1	Precipitación	0.4
58328	7	Sololá	701	Sololá	3	Barraneche	10	Octubre	2023-10-31T00:00:00	2024-11-06T18:00:00	8	Radiación solar	5
58329	7	Sololá	701	Sololá	3	Barraneche	10	Octubre	2023-10-31T00:00:00	2024-11-06T19:00:00	2	Temperatura media	12.5
58330	7	Sololá	701	Sololá	3	Barraneche	10	Octubre	2023-10-31T00:00:00	2024-11-06T19:00:00	4	Temperatura máxima	12.7
58331	7	Sololá	701	Sololá	3	Barraneche	10	Octubre	2023-10-31T00:00:00	2024-11-06T19:00:00	3	Temperatura mínima	12.4
58332	7	Sololá	701	Sololá	3	Barraneche	10	Octubre	2023-10-31T00:00:00	2024-11-06T19:00:00	5	Humedad	66
58333	7	Sololá	701	Sololá	3	Barraneche	10	Octubre	2023-10-31T00:00:00	2024-11-06T19:00:00	6	Velocidad del viento	27.4
58334	7	Sololá	701	Sololá	3	Barraneche	10	Octubre	2023-10-31T00:00:00	2024-11-06T19:00:00	7	Dirección del viento	27.36
58335	7	Sololá	701	Sololá	3	Barraneche	10	Octubre	2023-10-31T00:00:00	2024-11-06T19:00:00	1	Precipitación	0.2
58336	7	Sololá	701	Sololá	3	Barraneche	10	Octubre	2023-10-31T00:00:00	2024-11-06T19:00:00	8	Radiación solar	0
58337	7	Sololá	701	Sololá	3	Barraneche	10	Octubre	2023-10-31T00:00:00	2024-11-06T20:00:00	2	Temperatura media	12.8
58338	7	Sololá	701	Sololá	3	Barraneche	10	Octubre	2023-10-31T00:00:00	2024-11-06T20:00:00	4	Temperatura máxima	12.8
58339	7	Sololá	701	Sololá	3	Barraneche	10	Octubre	2023-10-31T00:00:00	2024-11-06T20:00:00	3	Temperatura mínima	12.5
58340	7	Sololá	701	Sololá	3	Barraneche	10	Octubre	2023-10-31T00:00:00	2024-11-06T20:00:00	5	Humedad	65
58341	7	Sololá	701	Sololá	3	Barraneche	10	Octubre	2023-10-31T00:00:00	2024-11-06T20:00:00	6	Velocidad del viento	29
58342	7	Sololá	701	Sololá	3	Barraneche	10	Octubre	2023-10-31T00:00:00	2024-11-06T20:00:00	7	Dirección del viento	28.97
58343	7	Sololá	701	Sololá	3	Barraneche	10	Octubre	2023-10-31T00:00:00	2024-11-06T20:00:00	1	Precipitación	0.4
58344	7	Sololá	701	Sololá	3	Barraneche	10	Octubre	2023-10-31T00:00:00	2024-11-06T20:00:00	8	Radiación solar	0
58345	7	Sololá	701	Sololá	3	Barraneche	10	Octubre	2023-10-31T00:00:00	2024-11-06T21:00:00	2	Temperatura media	12.7
58346	7	Sololá	701	Sololá	3	Barraneche	10	Octubre	2023-10-31T00:00:00	2024-11-06T21:00:00	4	Temperatura máxima	12.8
58347	7	Sololá	701	Sololá	3	Barraneche	10	Octubre	2023-10-31T00:00:00	2024-11-06T21:00:00	3	Temperatura mínima	12.3
58348	7	Sololá	701	Sololá	3	Barraneche	10	Octubre	2023-10-31T00:00:00	2024-11-06T21:00:00	5	Humedad	67
58349	7	Sololá	701	Sololá	3	Barraneche	10	Octubre	2023-10-31T00:00:00	2024-11-06T21:00:00	6	Velocidad del viento	24.1
58350	7	Sololá	701	Sololá	3	Barraneche	10	Octubre	2023-10-31T00:00:00	2024-11-06T21:00:00	7	Dirección del viento	24.14
58351	7	Sololá	701	Sololá	3	Barraneche	10	Octubre	2023-10-31T00:00:00	2024-11-06T21:00:00	1	Precipitación	0.4
58352	7	Sololá	701	Sololá	3	Barraneche	10	Octubre	2023-10-31T00:00:00	2024-11-06T21:00:00	8	Radiación solar	0
58353	7	Sololá	701	Sololá	3	Barraneche	10	Octubre	2023-10-31T00:00:00	2024-11-06T22:00:00	2	Temperatura media	12.2
58354	7	Sololá	701	Sololá	3	Barraneche	10	Octubre	2023-10-31T00:00:00	2024-11-06T22:00:00	4	Temperatura máxima	12.7
58355	7	Sololá	701	Sololá	3	Barraneche	10	Octubre	2023-10-31T00:00:00	2024-11-06T22:00:00	3	Temperatura mínima	12.2
58356	7	Sololá	701	Sololá	3	Barraneche	10	Octubre	2023-10-31T00:00:00	2024-11-06T22:00:00	5	Humedad	68
58357	7	Sololá	701	Sololá	3	Barraneche	10	Octubre	2023-10-31T00:00:00	2024-11-06T22:00:00	6	Velocidad del viento	22.5
58358	7	Sololá	701	Sololá	3	Barraneche	10	Octubre	2023-10-31T00:00:00	2024-11-06T22:00:00	7	Dirección del viento	22.53
58359	7	Sololá	701	Sololá	3	Barraneche	10	Octubre	2023-10-31T00:00:00	2024-11-06T22:00:00	1	Precipitación	0.2
58360	7	Sololá	701	Sololá	3	Barraneche	10	Octubre	2023-10-31T00:00:00	2024-11-06T22:00:00	8	Radiación solar	0
58361	7	Sololá	701	Sololá	3	Barraneche	10	Octubre	2023-10-31T00:00:00	2024-11-06T23:00:00	2	Temperatura media	12.5
58362	7	Sololá	701	Sololá	3	Barraneche	10	Octubre	2023-10-31T00:00:00	2024-11-06T23:00:00	4	Temperatura máxima	12.6
58363	7	Sololá	701	Sololá	3	Barraneche	10	Octubre	2023-10-31T00:00:00	2024-11-06T23:00:00	3	Temperatura mínima	12.1
58364	7	Sololá	701	Sololá	3	Barraneche	10	Octubre	2023-10-31T00:00:00	2024-11-06T23:00:00	5	Humedad	66
58365	7	Sololá	701	Sololá	3	Barraneche	10	Octubre	2023-10-31T00:00:00	2024-11-06T23:00:00	6	Velocidad del viento	22.5
58366	7	Sololá	701	Sololá	3	Barraneche	10	Octubre	2023-10-31T00:00:00	2024-11-06T23:00:00	7	Dirección del viento	22.53
58367	7	Sololá	701	Sololá	3	Barraneche	10	Octubre	2023-10-31T00:00:00	2024-11-06T23:00:00	1	Precipitación	0
58368	7	Sololá	701	Sololá	3	Barraneche	10	Octubre	2023-10-31T00:00:00	2024-11-06T23:00:00	8	Radiación solar	0
58369	7	Sololá	701	Sololá	3	Barraneche	11	Noviembre	2023-01-11T00:00:00	2024-11-06T00:00:00	2	Temperatura media	12.2
58370	7	Sololá	701	Sololá	3	Barraneche	11	Noviembre	2023-01-11T00:00:00	2024-11-06T00:00:00	4	Temperatura máxima	12.8
58371	7	Sololá	701	Sololá	3	Barraneche	11	Noviembre	2023-01-11T00:00:00	2024-11-06T00:00:00	3	Temperatura mínima	12.2
58372	7	Sololá	701	Sololá	3	Barraneche	11	Noviembre	2023-01-11T00:00:00	2024-11-06T00:00:00	5	Humedad	66
58373	7	Sololá	701	Sololá	3	Barraneche	11	Noviembre	2023-01-11T00:00:00	2024-11-06T00:00:00	6	Velocidad del viento	22.5
58374	7	Sololá	701	Sololá	3	Barraneche	11	Noviembre	2023-01-11T00:00:00	2024-11-06T00:00:00	7	Dirección del viento	22.53
58375	7	Sololá	701	Sololá	3	Barraneche	11	Noviembre	2023-01-11T00:00:00	2024-11-06T00:00:00	1	Precipitación	0
58376	7	Sololá	701	Sololá	3	Barraneche	11	Noviembre	2023-01-11T00:00:00	2024-11-06T00:00:00	8	Radiación solar	0
58377	7	Sololá	701	Sololá	3	Barraneche	11	Noviembre	2023-01-11T00:00:00	2024-11-06T01:00:00	2	Temperatura media	11.6
58378	7	Sololá	701	Sololá	3	Barraneche	11	Noviembre	2023-01-11T00:00:00	2024-11-06T01:00:00	4	Temperatura máxima	12.2
58379	7	Sololá	701	Sololá	3	Barraneche	11	Noviembre	2023-01-11T00:00:00	2024-11-06T01:00:00	3	Temperatura mínima	11.6
58380	7	Sololá	701	Sololá	3	Barraneche	11	Noviembre	2023-01-11T00:00:00	2024-11-06T01:00:00	5	Humedad	66
58381	7	Sololá	701	Sololá	3	Barraneche	11	Noviembre	2023-01-11T00:00:00	2024-11-06T01:00:00	6	Velocidad del viento	25.7
58382	7	Sololá	701	Sololá	3	Barraneche	11	Noviembre	2023-01-11T00:00:00	2024-11-06T01:00:00	7	Dirección del viento	25.75
58383	7	Sololá	701	Sololá	3	Barraneche	11	Noviembre	2023-01-11T00:00:00	2024-11-06T01:00:00	1	Precipitación	0.6
58384	7	Sololá	701	Sololá	3	Barraneche	11	Noviembre	2023-01-11T00:00:00	2024-11-06T01:00:00	8	Radiación solar	0
58385	7	Sololá	701	Sololá	3	Barraneche	11	Noviembre	2023-01-11T00:00:00	2024-11-06T02:00:00	2	Temperatura media	11.9
58386	7	Sololá	701	Sololá	3	Barraneche	11	Noviembre	2023-01-11T00:00:00	2024-11-06T02:00:00	4	Temperatura máxima	12.1
58387	7	Sololá	701	Sololá	3	Barraneche	11	Noviembre	2023-01-11T00:00:00	2024-11-06T02:00:00	3	Temperatura mínima	11.5
58388	7	Sololá	701	Sololá	3	Barraneche	11	Noviembre	2023-01-11T00:00:00	2024-11-06T02:00:00	5	Humedad	65
58389	7	Sololá	701	Sololá	3	Barraneche	11	Noviembre	2023-01-11T00:00:00	2024-11-06T02:00:00	6	Velocidad del viento	22.5
58390	7	Sololá	701	Sololá	3	Barraneche	11	Noviembre	2023-01-11T00:00:00	2024-11-06T02:00:00	7	Dirección del viento	22.53
58391	7	Sololá	701	Sololá	3	Barraneche	11	Noviembre	2023-01-11T00:00:00	2024-11-06T02:00:00	1	Precipitación	0.2
58392	7	Sololá	701	Sololá	3	Barraneche	11	Noviembre	2023-01-11T00:00:00	2024-11-06T02:00:00	8	Radiación solar	0
58393	7	Sololá	701	Sololá	3	Barraneche	11	Noviembre	2023-01-11T00:00:00	2024-11-06T03:00:00	2	Temperatura media	12.7
58394	7	Sololá	701	Sololá	3	Barraneche	11	Noviembre	2023-01-11T00:00:00	2024-11-06T03:00:00	4	Temperatura máxima	12.7
58395	7	Sololá	701	Sololá	3	Barraneche	11	Noviembre	2023-01-11T00:00:00	2024-11-06T03:00:00	3	Temperatura mínima	11.8
58396	7	Sololá	701	Sololá	3	Barraneche	11	Noviembre	2023-01-11T00:00:00	2024-11-06T03:00:00	5	Humedad	63
58397	7	Sololá	701	Sololá	3	Barraneche	11	Noviembre	2023-01-11T00:00:00	2024-11-06T03:00:00	6	Velocidad del viento	24.1
58398	7	Sololá	701	Sololá	3	Barraneche	11	Noviembre	2023-01-11T00:00:00	2024-11-06T03:00:00	7	Dirección del viento	24.14
58399	7	Sololá	701	Sololá	3	Barraneche	11	Noviembre	2023-01-11T00:00:00	2024-11-06T03:00:00	1	Precipitación	0
58400	7	Sololá	701	Sololá	3	Barraneche	11	Noviembre	2023-01-11T00:00:00	2024-11-06T03:00:00	8	Radiación solar	0
58401	7	Sololá	701	Sololá	3	Barraneche	11	Noviembre	2023-01-11T00:00:00	2024-11-06T04:00:00	2	Temperatura media	12.4
58402	7	Sololá	701	Sololá	3	Barraneche	11	Noviembre	2023-01-11T00:00:00	2024-11-06T04:00:00	4	Temperatura máxima	12.8
58403	7	Sololá	701	Sololá	3	Barraneche	11	Noviembre	2023-01-11T00:00:00	2024-11-06T04:00:00	3	Temperatura mínima	12.4
58404	7	Sololá	701	Sololá	3	Barraneche	11	Noviembre	2023-01-11T00:00:00	2024-11-06T04:00:00	5	Humedad	67
58405	7	Sololá	701	Sololá	3	Barraneche	11	Noviembre	2023-01-11T00:00:00	2024-11-06T04:00:00	6	Velocidad del viento	20.9
58406	7	Sololá	701	Sololá	3	Barraneche	11	Noviembre	2023-01-11T00:00:00	2024-11-06T04:00:00	7	Dirección del viento	20.92
58407	7	Sololá	701	Sololá	3	Barraneche	11	Noviembre	2023-01-11T00:00:00	2024-11-06T04:00:00	1	Precipitación	0
58408	7	Sololá	701	Sololá	3	Barraneche	11	Noviembre	2023-01-11T00:00:00	2024-11-06T04:00:00	8	Radiación solar	0
58409	7	Sololá	701	Sololá	3	Barraneche	11	Noviembre	2023-01-11T00:00:00	2024-11-06T05:00:00	2	Temperatura media	12.8
58410	7	Sololá	701	Sololá	3	Barraneche	11	Noviembre	2023-01-11T00:00:00	2024-11-06T05:00:00	4	Temperatura máxima	12.9
58411	7	Sololá	701	Sololá	3	Barraneche	11	Noviembre	2023-01-11T00:00:00	2024-11-06T05:00:00	3	Temperatura mínima	12.4
58412	7	Sololá	701	Sololá	3	Barraneche	11	Noviembre	2023-01-11T00:00:00	2024-11-06T05:00:00	5	Humedad	68
58413	7	Sololá	701	Sololá	3	Barraneche	11	Noviembre	2023-01-11T00:00:00	2024-11-06T05:00:00	6	Velocidad del viento	24.1
58414	7	Sololá	701	Sololá	3	Barraneche	11	Noviembre	2023-01-11T00:00:00	2024-11-06T05:00:00	7	Dirección del viento	24.14
58415	7	Sololá	701	Sololá	3	Barraneche	11	Noviembre	2023-01-11T00:00:00	2024-11-06T05:00:00	1	Precipitación	0
58416	7	Sololá	701	Sololá	3	Barraneche	11	Noviembre	2023-01-11T00:00:00	2024-11-06T05:00:00	8	Radiación solar	0
58417	7	Sololá	701	Sololá	3	Barraneche	11	Noviembre	2023-01-11T00:00:00	2024-11-06T06:00:00	2	Temperatura media	13.1
58418	7	Sololá	701	Sololá	3	Barraneche	11	Noviembre	2023-01-11T00:00:00	2024-11-06T06:00:00	4	Temperatura máxima	13.2
58419	7	Sololá	701	Sololá	3	Barraneche	11	Noviembre	2023-01-11T00:00:00	2024-11-06T06:00:00	3	Temperatura mínima	12.7
58420	7	Sololá	701	Sololá	3	Barraneche	11	Noviembre	2023-01-11T00:00:00	2024-11-06T06:00:00	5	Humedad	67
58421	7	Sololá	701	Sololá	3	Barraneche	11	Noviembre	2023-01-11T00:00:00	2024-11-06T06:00:00	6	Velocidad del viento	22.5
58422	7	Sololá	701	Sololá	3	Barraneche	11	Noviembre	2023-01-11T00:00:00	2024-11-06T06:00:00	7	Dirección del viento	22.53
58423	7	Sololá	701	Sololá	3	Barraneche	11	Noviembre	2023-01-11T00:00:00	2024-11-06T06:00:00	1	Precipitación	0
58424	7	Sololá	701	Sololá	3	Barraneche	11	Noviembre	2023-01-11T00:00:00	2024-11-06T06:00:00	8	Radiación solar	0
58425	7	Sololá	701	Sololá	3	Barraneche	11	Noviembre	2023-01-11T00:00:00	2024-11-06T07:00:00	2	Temperatura media	13.7
58426	7	Sololá	701	Sololá	3	Barraneche	11	Noviembre	2023-01-11T00:00:00	2024-11-06T07:00:00	4	Temperatura máxima	13.8
58427	7	Sololá	701	Sololá	3	Barraneche	11	Noviembre	2023-01-11T00:00:00	2024-11-06T07:00:00	3	Temperatura mínima	13
58428	7	Sololá	701	Sololá	3	Barraneche	11	Noviembre	2023-01-11T00:00:00	2024-11-06T07:00:00	5	Humedad	65
58429	7	Sololá	701	Sololá	3	Barraneche	11	Noviembre	2023-01-11T00:00:00	2024-11-06T07:00:00	6	Velocidad del viento	22.5
58430	7	Sololá	701	Sololá	3	Barraneche	11	Noviembre	2023-01-11T00:00:00	2024-11-06T07:00:00	7	Dirección del viento	22.53
58431	7	Sololá	701	Sololá	3	Barraneche	11	Noviembre	2023-01-11T00:00:00	2024-11-06T07:00:00	1	Precipitación	0
58432	7	Sololá	701	Sololá	3	Barraneche	11	Noviembre	2023-01-11T00:00:00	2024-11-06T07:00:00	8	Radiación solar	21
58433	7	Sololá	701	Sololá	3	Barraneche	11	Noviembre	2023-01-11T00:00:00	2024-11-06T08:00:00	2	Temperatura media	13.7
58434	7	Sololá	701	Sololá	3	Barraneche	11	Noviembre	2023-01-11T00:00:00	2024-11-06T08:00:00	4	Temperatura máxima	13.9
58435	7	Sololá	701	Sololá	3	Barraneche	11	Noviembre	2023-01-11T00:00:00	2024-11-06T08:00:00	3	Temperatura mínima	13.4
58436	7	Sololá	701	Sololá	3	Barraneche	11	Noviembre	2023-01-11T00:00:00	2024-11-06T08:00:00	5	Humedad	65
58437	7	Sololá	701	Sololá	3	Barraneche	11	Noviembre	2023-01-11T00:00:00	2024-11-06T08:00:00	6	Velocidad del viento	25.7
58438	7	Sololá	701	Sololá	3	Barraneche	11	Noviembre	2023-01-11T00:00:00	2024-11-06T08:00:00	7	Dirección del viento	25.75
58439	7	Sololá	701	Sololá	3	Barraneche	11	Noviembre	2023-01-11T00:00:00	2024-11-06T08:00:00	1	Precipitación	0
58440	7	Sololá	701	Sololá	3	Barraneche	11	Noviembre	2023-01-11T00:00:00	2024-11-06T08:00:00	8	Radiación solar	133
58441	7	Sololá	701	Sololá	3	Barraneche	11	Noviembre	2023-01-11T00:00:00	2024-11-06T09:00:00	2	Temperatura media	14
58442	7	Sololá	701	Sololá	3	Barraneche	11	Noviembre	2023-01-11T00:00:00	2024-11-06T09:00:00	4	Temperatura máxima	14.1
58443	7	Sololá	701	Sololá	3	Barraneche	11	Noviembre	2023-01-11T00:00:00	2024-11-06T09:00:00	3	Temperatura mínima	13.7
58444	7	Sololá	701	Sololá	3	Barraneche	11	Noviembre	2023-01-11T00:00:00	2024-11-06T09:00:00	5	Humedad	64
58445	7	Sololá	701	Sololá	3	Barraneche	11	Noviembre	2023-01-11T00:00:00	2024-11-06T09:00:00	6	Velocidad del viento	22.5
58446	7	Sololá	701	Sololá	3	Barraneche	11	Noviembre	2023-01-11T00:00:00	2024-11-06T09:00:00	7	Dirección del viento	22.53
58447	7	Sololá	701	Sololá	3	Barraneche	11	Noviembre	2023-01-11T00:00:00	2024-11-06T09:00:00	1	Precipitación	0
58448	7	Sololá	701	Sololá	3	Barraneche	11	Noviembre	2023-01-11T00:00:00	2024-11-06T09:00:00	8	Radiación solar	238
58449	7	Sololá	701	Sololá	3	Barraneche	11	Noviembre	2023-01-11T00:00:00	2024-11-06T10:00:00	2	Temperatura media	14.1
58450	7	Sololá	701	Sololá	3	Barraneche	11	Noviembre	2023-01-11T00:00:00	2024-11-06T10:00:00	4	Temperatura máxima	14.6
58451	7	Sololá	701	Sololá	3	Barraneche	11	Noviembre	2023-01-11T00:00:00	2024-11-06T10:00:00	3	Temperatura mínima	13.9
58452	7	Sololá	701	Sololá	3	Barraneche	11	Noviembre	2023-01-11T00:00:00	2024-11-06T10:00:00	5	Humedad	66
58453	7	Sololá	701	Sololá	3	Barraneche	11	Noviembre	2023-01-11T00:00:00	2024-11-06T10:00:00	6	Velocidad del viento	24.1
58454	7	Sololá	701	Sololá	3	Barraneche	11	Noviembre	2023-01-11T00:00:00	2024-11-06T10:00:00	7	Dirección del viento	24.14
58455	7	Sololá	701	Sololá	3	Barraneche	11	Noviembre	2023-01-11T00:00:00	2024-11-06T10:00:00	1	Precipitación	0
58456	7	Sololá	701	Sololá	3	Barraneche	11	Noviembre	2023-01-11T00:00:00	2024-11-06T10:00:00	8	Radiación solar	314
58457	7	Sololá	701	Sololá	3	Barraneche	11	Noviembre	2023-01-11T00:00:00	2024-11-06T11:00:00	2	Temperatura media	14.9
58458	7	Sololá	701	Sololá	3	Barraneche	11	Noviembre	2023-01-11T00:00:00	2024-11-06T11:00:00	4	Temperatura máxima	14.9
58459	7	Sololá	701	Sololá	3	Barraneche	11	Noviembre	2023-01-11T00:00:00	2024-11-06T11:00:00	3	Temperatura mínima	13.8
58460	7	Sololá	701	Sololá	3	Barraneche	11	Noviembre	2023-01-11T00:00:00	2024-11-06T11:00:00	5	Humedad	64
58461	7	Sololá	701	Sololá	3	Barraneche	11	Noviembre	2023-01-11T00:00:00	2024-11-06T11:00:00	6	Velocidad del viento	20.9
58462	7	Sololá	701	Sololá	3	Barraneche	11	Noviembre	2023-01-11T00:00:00	2024-11-06T11:00:00	7	Dirección del viento	20.92
58463	7	Sololá	701	Sololá	3	Barraneche	11	Noviembre	2023-01-11T00:00:00	2024-11-06T11:00:00	1	Precipitación	0
58464	7	Sololá	701	Sololá	3	Barraneche	11	Noviembre	2023-01-11T00:00:00	2024-11-06T11:00:00	8	Radiación solar	445
58465	7	Sololá	701	Sololá	3	Barraneche	11	Noviembre	2023-01-11T00:00:00	2024-11-06T12:00:00	2	Temperatura media	15.1
58466	7	Sololá	701	Sololá	3	Barraneche	11	Noviembre	2023-01-11T00:00:00	2024-11-06T12:00:00	4	Temperatura máxima	15.4
58467	7	Sololá	701	Sololá	3	Barraneche	11	Noviembre	2023-01-11T00:00:00	2024-11-06T12:00:00	3	Temperatura mínima	14.8
58468	7	Sololá	701	Sololá	3	Barraneche	11	Noviembre	2023-01-11T00:00:00	2024-11-06T12:00:00	5	Humedad	63
58469	7	Sololá	701	Sololá	3	Barraneche	11	Noviembre	2023-01-11T00:00:00	2024-11-06T12:00:00	6	Velocidad del viento	22.5
58470	7	Sololá	701	Sololá	3	Barraneche	11	Noviembre	2023-01-11T00:00:00	2024-11-06T12:00:00	7	Dirección del viento	22.53
58471	7	Sololá	701	Sololá	3	Barraneche	11	Noviembre	2023-01-11T00:00:00	2024-11-06T12:00:00	1	Precipitación	0
58472	7	Sololá	701	Sololá	3	Barraneche	11	Noviembre	2023-01-11T00:00:00	2024-11-06T12:00:00	8	Radiación solar	566
58473	7	Sololá	701	Sololá	3	Barraneche	11	Noviembre	2023-01-11T00:00:00	2024-11-06T13:00:00	2	Temperatura media	13.8
58474	7	Sololá	701	Sololá	3	Barraneche	11	Noviembre	2023-01-11T00:00:00	2024-11-06T13:00:00	4	Temperatura máxima	15.1
58475	7	Sololá	701	Sololá	3	Barraneche	11	Noviembre	2023-01-11T00:00:00	2024-11-06T13:00:00	3	Temperatura mínima	13.8
58476	7	Sololá	701	Sololá	3	Barraneche	11	Noviembre	2023-01-11T00:00:00	2024-11-06T13:00:00	5	Humedad	67
58477	7	Sololá	701	Sololá	3	Barraneche	11	Noviembre	2023-01-11T00:00:00	2024-11-06T13:00:00	6	Velocidad del viento	19.3
58478	7	Sololá	701	Sololá	3	Barraneche	11	Noviembre	2023-01-11T00:00:00	2024-11-06T13:00:00	7	Dirección del viento	19.31
58479	7	Sololá	701	Sololá	3	Barraneche	11	Noviembre	2023-01-11T00:00:00	2024-11-06T13:00:00	1	Precipitación	0
58480	7	Sololá	701	Sololá	3	Barraneche	11	Noviembre	2023-01-11T00:00:00	2024-11-06T13:00:00	8	Radiación solar	422
58481	7	Sololá	701	Sololá	3	Barraneche	11	Noviembre	2023-01-11T00:00:00	2024-11-06T14:00:00	2	Temperatura media	12.8
58482	7	Sololá	701	Sololá	3	Barraneche	11	Noviembre	2023-01-11T00:00:00	2024-11-06T14:00:00	4	Temperatura máxima	13.8
58483	7	Sololá	701	Sololá	3	Barraneche	11	Noviembre	2023-01-11T00:00:00	2024-11-06T14:00:00	3	Temperatura mínima	12.7
58484	7	Sololá	701	Sololá	3	Barraneche	11	Noviembre	2023-01-11T00:00:00	2024-11-06T14:00:00	5	Humedad	68
58485	7	Sololá	701	Sololá	3	Barraneche	11	Noviembre	2023-01-11T00:00:00	2024-11-06T14:00:00	6	Velocidad del viento	19.3
58486	7	Sololá	701	Sololá	3	Barraneche	11	Noviembre	2023-01-11T00:00:00	2024-11-06T14:00:00	7	Dirección del viento	19.31
58487	7	Sololá	701	Sololá	3	Barraneche	11	Noviembre	2023-01-11T00:00:00	2024-11-06T14:00:00	1	Precipitación	0
58488	7	Sololá	701	Sololá	3	Barraneche	11	Noviembre	2023-01-11T00:00:00	2024-11-06T14:00:00	8	Radiación solar	205
58489	7	Sololá	701	Sololá	3	Barraneche	11	Noviembre	2023-01-11T00:00:00	2024-11-06T15:00:00	2	Temperatura media	13.1
58490	7	Sololá	701	Sololá	3	Barraneche	11	Noviembre	2023-01-11T00:00:00	2024-11-06T15:00:00	4	Temperatura máxima	13.3
58491	7	Sololá	701	Sololá	3	Barraneche	11	Noviembre	2023-01-11T00:00:00	2024-11-06T15:00:00	3	Temperatura mínima	12.8
58492	7	Sololá	701	Sololá	3	Barraneche	11	Noviembre	2023-01-11T00:00:00	2024-11-06T15:00:00	5	Humedad	65
58493	7	Sololá	701	Sololá	3	Barraneche	11	Noviembre	2023-01-11T00:00:00	2024-11-06T15:00:00	6	Velocidad del viento	22.5
58494	7	Sololá	701	Sololá	3	Barraneche	11	Noviembre	2023-01-11T00:00:00	2024-11-06T15:00:00	7	Dirección del viento	22.53
58495	7	Sololá	701	Sololá	3	Barraneche	11	Noviembre	2023-01-11T00:00:00	2024-11-06T15:00:00	1	Precipitación	0
58496	7	Sololá	701	Sololá	3	Barraneche	11	Noviembre	2023-01-11T00:00:00	2024-11-06T15:00:00	8	Radiación solar	248
58497	7	Sololá	701	Sololá	3	Barraneche	11	Noviembre	2023-01-11T00:00:00	2024-11-06T16:00:00	2	Temperatura media	13.4
58498	7	Sololá	701	Sololá	3	Barraneche	11	Noviembre	2023-01-11T00:00:00	2024-11-06T16:00:00	4	Temperatura máxima	13.6
58499	7	Sololá	701	Sololá	3	Barraneche	11	Noviembre	2023-01-11T00:00:00	2024-11-06T16:00:00	3	Temperatura mínima	13.1
58500	7	Sololá	701	Sololá	3	Barraneche	11	Noviembre	2023-01-11T00:00:00	2024-11-06T16:00:00	5	Humedad	64
58501	7	Sololá	701	Sololá	3	Barraneche	11	Noviembre	2023-01-11T00:00:00	2024-11-06T16:00:00	6	Velocidad del viento	19.3
58502	7	Sololá	701	Sololá	3	Barraneche	11	Noviembre	2023-01-11T00:00:00	2024-11-06T16:00:00	7	Dirección del viento	19.31
58503	7	Sololá	701	Sololá	3	Barraneche	11	Noviembre	2023-01-11T00:00:00	2024-11-06T16:00:00	1	Precipitación	0
58504	7	Sololá	701	Sololá	3	Barraneche	11	Noviembre	2023-01-11T00:00:00	2024-11-06T16:00:00	8	Radiación solar	216
58505	7	Sololá	701	Sololá	3	Barraneche	11	Noviembre	2023-01-11T00:00:00	2024-11-06T17:00:00	2	Temperatura media	13.2
58506	7	Sololá	701	Sololá	3	Barraneche	11	Noviembre	2023-01-11T00:00:00	2024-11-06T17:00:00	4	Temperatura máxima	13.4
58507	7	Sololá	701	Sololá	3	Barraneche	11	Noviembre	2023-01-11T00:00:00	2024-11-06T17:00:00	3	Temperatura mínima	12.9
58508	7	Sololá	701	Sololá	3	Barraneche	11	Noviembre	2023-01-11T00:00:00	2024-11-06T17:00:00	5	Humedad	67
58509	7	Sololá	701	Sololá	3	Barraneche	11	Noviembre	2023-01-11T00:00:00	2024-11-06T17:00:00	6	Velocidad del viento	16.1
58510	7	Sololá	701	Sololá	3	Barraneche	11	Noviembre	2023-01-11T00:00:00	2024-11-06T17:00:00	7	Dirección del viento	16.09
58511	7	Sololá	701	Sololá	3	Barraneche	11	Noviembre	2023-01-11T00:00:00	2024-11-06T17:00:00	1	Precipitación	0
58512	7	Sololá	701	Sololá	3	Barraneche	11	Noviembre	2023-01-11T00:00:00	2024-11-06T17:00:00	8	Radiación solar	93
58513	7	Sololá	701	Sololá	3	Barraneche	11	Noviembre	2023-01-11T00:00:00	2024-11-06T18:00:00	2	Temperatura media	12.5
58514	7	Sololá	701	Sololá	3	Barraneche	11	Noviembre	2023-01-11T00:00:00	2024-11-06T18:00:00	4	Temperatura máxima	13.2
58515	7	Sololá	701	Sololá	3	Barraneche	11	Noviembre	2023-01-11T00:00:00	2024-11-06T18:00:00	3	Temperatura mínima	12.2
58516	7	Sololá	701	Sololá	3	Barraneche	11	Noviembre	2023-01-11T00:00:00	2024-11-06T18:00:00	5	Humedad	65
58517	7	Sololá	701	Sololá	3	Barraneche	11	Noviembre	2023-01-11T00:00:00	2024-11-06T18:00:00	6	Velocidad del viento	19.3
58518	7	Sololá	701	Sololá	3	Barraneche	11	Noviembre	2023-01-11T00:00:00	2024-11-06T18:00:00	7	Dirección del viento	19.31
58519	7	Sololá	701	Sololá	3	Barraneche	11	Noviembre	2023-01-11T00:00:00	2024-11-06T18:00:00	1	Precipitación	0
58520	7	Sololá	701	Sololá	3	Barraneche	11	Noviembre	2023-01-11T00:00:00	2024-11-06T18:00:00	8	Radiación solar	26
58521	7	Sololá	701	Sololá	3	Barraneche	11	Noviembre	2023-01-11T00:00:00	2024-11-06T19:00:00	2	Temperatura media	13.6
58522	7	Sololá	701	Sololá	3	Barraneche	11	Noviembre	2023-01-11T00:00:00	2024-11-06T19:00:00	4	Temperatura máxima	13.6
58523	7	Sololá	701	Sololá	3	Barraneche	11	Noviembre	2023-01-11T00:00:00	2024-11-06T19:00:00	3	Temperatura mínima	12.4
58524	7	Sololá	701	Sololá	3	Barraneche	11	Noviembre	2023-01-11T00:00:00	2024-11-06T19:00:00	5	Humedad	63
58525	7	Sololá	701	Sololá	3	Barraneche	11	Noviembre	2023-01-11T00:00:00	2024-11-06T19:00:00	6	Velocidad del viento	17.7
58526	7	Sololá	701	Sololá	3	Barraneche	11	Noviembre	2023-01-11T00:00:00	2024-11-06T19:00:00	7	Dirección del viento	17.7
58527	7	Sololá	701	Sololá	3	Barraneche	11	Noviembre	2023-01-11T00:00:00	2024-11-06T19:00:00	1	Precipitación	0
58528	7	Sololá	701	Sololá	3	Barraneche	11	Noviembre	2023-01-11T00:00:00	2024-11-06T19:00:00	8	Radiación solar	0
58529	7	Sololá	701	Sololá	3	Barraneche	11	Noviembre	2023-01-11T00:00:00	2024-11-06T20:00:00	2	Temperatura media	13.8
58530	7	Sololá	701	Sololá	3	Barraneche	11	Noviembre	2023-01-11T00:00:00	2024-11-06T20:00:00	4	Temperatura máxima	13.8
58531	7	Sololá	701	Sololá	3	Barraneche	11	Noviembre	2023-01-11T00:00:00	2024-11-06T20:00:00	3	Temperatura mínima	13.5
58532	7	Sololá	701	Sololá	3	Barraneche	11	Noviembre	2023-01-11T00:00:00	2024-11-06T20:00:00	5	Humedad	62
58533	7	Sololá	701	Sololá	3	Barraneche	11	Noviembre	2023-01-11T00:00:00	2024-11-06T20:00:00	6	Velocidad del viento	20.9
58534	7	Sololá	701	Sololá	3	Barraneche	11	Noviembre	2023-01-11T00:00:00	2024-11-06T20:00:00	7	Dirección del viento	20.92
58535	7	Sololá	701	Sololá	3	Barraneche	11	Noviembre	2023-01-11T00:00:00	2024-11-06T20:00:00	1	Precipitación	0
58536	7	Sololá	701	Sololá	3	Barraneche	11	Noviembre	2023-01-11T00:00:00	2024-11-06T20:00:00	8	Radiación solar	0
58537	7	Sololá	701	Sololá	3	Barraneche	11	Noviembre	2023-01-11T00:00:00	2024-11-06T21:00:00	2	Temperatura media	13.5
58538	7	Sololá	701	Sololá	3	Barraneche	11	Noviembre	2023-01-11T00:00:00	2024-11-06T21:00:00	4	Temperatura máxima	14
58539	7	Sololá	701	Sololá	3	Barraneche	11	Noviembre	2023-01-11T00:00:00	2024-11-06T21:00:00	3	Temperatura mínima	13.4
58540	7	Sololá	701	Sololá	3	Barraneche	11	Noviembre	2023-01-11T00:00:00	2024-11-06T21:00:00	5	Humedad	65
58541	7	Sololá	701	Sololá	3	Barraneche	11	Noviembre	2023-01-11T00:00:00	2024-11-06T21:00:00	6	Velocidad del viento	20.9
58542	7	Sololá	701	Sololá	3	Barraneche	11	Noviembre	2023-01-11T00:00:00	2024-11-06T21:00:00	7	Dirección del viento	20.92
58543	7	Sololá	701	Sololá	3	Barraneche	11	Noviembre	2023-01-11T00:00:00	2024-11-06T21:00:00	1	Precipitación	0
58544	7	Sololá	701	Sololá	3	Barraneche	11	Noviembre	2023-01-11T00:00:00	2024-11-06T21:00:00	8	Radiación solar	0
58545	7	Sololá	701	Sololá	3	Barraneche	11	Noviembre	2023-01-11T00:00:00	2024-11-06T22:00:00	2	Temperatura media	13.3
58546	7	Sololá	701	Sololá	3	Barraneche	11	Noviembre	2023-01-11T00:00:00	2024-11-06T22:00:00	4	Temperatura máxima	13.5
58547	7	Sololá	701	Sololá	3	Barraneche	11	Noviembre	2023-01-11T00:00:00	2024-11-06T22:00:00	3	Temperatura mínima	13.1
58548	7	Sololá	701	Sololá	3	Barraneche	11	Noviembre	2023-01-11T00:00:00	2024-11-06T22:00:00	5	Humedad	59
58549	7	Sololá	701	Sololá	3	Barraneche	11	Noviembre	2023-01-11T00:00:00	2024-11-06T22:00:00	6	Velocidad del viento	19.3
58550	7	Sololá	701	Sololá	3	Barraneche	11	Noviembre	2023-01-11T00:00:00	2024-11-06T22:00:00	7	Dirección del viento	19.31
58551	7	Sololá	701	Sololá	3	Barraneche	11	Noviembre	2023-01-11T00:00:00	2024-11-06T22:00:00	1	Precipitación	0
58552	7	Sololá	701	Sololá	3	Barraneche	11	Noviembre	2023-01-11T00:00:00	2024-11-06T22:00:00	8	Radiación solar	0
58553	7	Sololá	701	Sololá	3	Barraneche	11	Noviembre	2023-01-11T00:00:00	2024-11-06T23:00:00	2	Temperatura media	13.2
58554	7	Sololá	701	Sololá	3	Barraneche	11	Noviembre	2023-01-11T00:00:00	2024-11-06T23:00:00	4	Temperatura máxima	13.4
58555	7	Sololá	701	Sololá	3	Barraneche	11	Noviembre	2023-01-11T00:00:00	2024-11-06T23:00:00	3	Temperatura mínima	13.1
58556	7	Sololá	701	Sololá	3	Barraneche	11	Noviembre	2023-01-11T00:00:00	2024-11-06T23:00:00	5	Humedad	60
58557	7	Sololá	701	Sololá	3	Barraneche	11	Noviembre	2023-01-11T00:00:00	2024-11-06T23:00:00	6	Velocidad del viento	17.7
58558	7	Sololá	701	Sololá	3	Barraneche	11	Noviembre	2023-01-11T00:00:00	2024-11-06T23:00:00	7	Dirección del viento	17.7
58559	7	Sololá	701	Sololá	3	Barraneche	11	Noviembre	2023-01-11T00:00:00	2024-11-06T23:00:00	1	Precipitación	0
58560	7	Sololá	701	Sololá	3	Barraneche	11	Noviembre	2023-01-11T00:00:00	2024-11-06T23:00:00	8	Radiación solar	0
58561	7	Sololá	701	Sololá	3	Barraneche	11	Noviembre	2023-02-11T00:00:00	2024-11-06T00:00:00	2	Temperatura media	13.4
58562	7	Sololá	701	Sololá	3	Barraneche	11	Noviembre	2023-02-11T00:00:00	2024-11-06T00:00:00	4	Temperatura máxima	13.6
58563	7	Sololá	701	Sololá	3	Barraneche	11	Noviembre	2023-02-11T00:00:00	2024-11-06T00:00:00	3	Temperatura mínima	13.2
58564	7	Sololá	701	Sololá	3	Barraneche	11	Noviembre	2023-02-11T00:00:00	2024-11-06T00:00:00	5	Humedad	66
58565	7	Sololá	701	Sololá	3	Barraneche	11	Noviembre	2023-02-11T00:00:00	2024-11-06T00:00:00	6	Velocidad del viento	14.5
58566	7	Sololá	701	Sololá	3	Barraneche	11	Noviembre	2023-02-11T00:00:00	2024-11-06T00:00:00	7	Dirección del viento	14.48
58567	7	Sololá	701	Sololá	3	Barraneche	11	Noviembre	2023-02-11T00:00:00	2024-11-06T00:00:00	1	Precipitación	0
58568	7	Sololá	701	Sololá	3	Barraneche	11	Noviembre	2023-02-11T00:00:00	2024-11-06T00:00:00	8	Radiación solar	0
58569	7	Sololá	701	Sololá	3	Barraneche	11	Noviembre	2023-02-11T00:00:00	2024-11-06T01:00:00	2	Temperatura media	12.7
58570	7	Sololá	701	Sololá	3	Barraneche	11	Noviembre	2023-02-11T00:00:00	2024-11-06T01:00:00	4	Temperatura máxima	13.4
58571	7	Sololá	701	Sololá	3	Barraneche	11	Noviembre	2023-02-11T00:00:00	2024-11-06T01:00:00	3	Temperatura mínima	12.7
58572	7	Sololá	701	Sololá	3	Barraneche	11	Noviembre	2023-02-11T00:00:00	2024-11-06T01:00:00	5	Humedad	70
58573	7	Sololá	701	Sololá	3	Barraneche	11	Noviembre	2023-02-11T00:00:00	2024-11-06T01:00:00	6	Velocidad del viento	19.3
58574	7	Sololá	701	Sololá	3	Barraneche	11	Noviembre	2023-02-11T00:00:00	2024-11-06T01:00:00	7	Dirección del viento	19.31
58575	7	Sololá	701	Sololá	3	Barraneche	11	Noviembre	2023-02-11T00:00:00	2024-11-06T01:00:00	1	Precipitación	0
58576	7	Sololá	701	Sololá	3	Barraneche	11	Noviembre	2023-02-11T00:00:00	2024-11-06T01:00:00	8	Radiación solar	0
58577	7	Sololá	701	Sololá	3	Barraneche	11	Noviembre	2023-02-11T00:00:00	2024-11-06T02:00:00	2	Temperatura media	13
58578	7	Sololá	701	Sololá	3	Barraneche	11	Noviembre	2023-02-11T00:00:00	2024-11-06T02:00:00	4	Temperatura máxima	13.5
58579	7	Sololá	701	Sololá	3	Barraneche	11	Noviembre	2023-02-11T00:00:00	2024-11-06T02:00:00	3	Temperatura mínima	12.7
58580	7	Sololá	701	Sololá	3	Barraneche	11	Noviembre	2023-02-11T00:00:00	2024-11-06T02:00:00	5	Humedad	68
58581	7	Sololá	701	Sololá	3	Barraneche	11	Noviembre	2023-02-11T00:00:00	2024-11-06T02:00:00	6	Velocidad del viento	19.3
58582	7	Sololá	701	Sololá	3	Barraneche	11	Noviembre	2023-02-11T00:00:00	2024-11-06T02:00:00	7	Dirección del viento	19.31
58583	7	Sololá	701	Sololá	3	Barraneche	11	Noviembre	2023-02-11T00:00:00	2024-11-06T02:00:00	1	Precipitación	0.2
58584	7	Sololá	701	Sololá	3	Barraneche	11	Noviembre	2023-02-11T00:00:00	2024-11-06T02:00:00	8	Radiación solar	0
58585	7	Sololá	701	Sololá	3	Barraneche	11	Noviembre	2023-02-11T00:00:00	2024-11-06T03:00:00	2	Temperatura media	13.1
58586	7	Sololá	701	Sololá	3	Barraneche	11	Noviembre	2023-02-11T00:00:00	2024-11-06T03:00:00	4	Temperatura máxima	13.1
58587	7	Sololá	701	Sololá	3	Barraneche	11	Noviembre	2023-02-11T00:00:00	2024-11-06T03:00:00	3	Temperatura mínima	12.8
58588	7	Sololá	701	Sololá	3	Barraneche	11	Noviembre	2023-02-11T00:00:00	2024-11-06T03:00:00	5	Humedad	69
58589	7	Sololá	701	Sololá	3	Barraneche	11	Noviembre	2023-02-11T00:00:00	2024-11-06T03:00:00	6	Velocidad del viento	17.7
58590	7	Sololá	701	Sololá	3	Barraneche	11	Noviembre	2023-02-11T00:00:00	2024-11-06T03:00:00	7	Dirección del viento	17.7
58591	7	Sololá	701	Sololá	3	Barraneche	11	Noviembre	2023-02-11T00:00:00	2024-11-06T03:00:00	1	Precipitación	0.4
58592	7	Sololá	701	Sololá	3	Barraneche	11	Noviembre	2023-02-11T00:00:00	2024-11-06T03:00:00	8	Radiación solar	0
58593	7	Sololá	701	Sololá	3	Barraneche	11	Noviembre	2023-02-11T00:00:00	2024-11-06T04:00:00	2	Temperatura media	13.4
58594	7	Sololá	701	Sololá	3	Barraneche	11	Noviembre	2023-02-11T00:00:00	2024-11-06T04:00:00	4	Temperatura máxima	13.4
58595	7	Sololá	701	Sololá	3	Barraneche	11	Noviembre	2023-02-11T00:00:00	2024-11-06T04:00:00	3	Temperatura mínima	13.1
58596	7	Sololá	701	Sololá	3	Barraneche	11	Noviembre	2023-02-11T00:00:00	2024-11-06T04:00:00	5	Humedad	67
58597	7	Sololá	701	Sololá	3	Barraneche	11	Noviembre	2023-02-11T00:00:00	2024-11-06T04:00:00	6	Velocidad del viento	22.5
58598	7	Sololá	701	Sololá	3	Barraneche	11	Noviembre	2023-02-11T00:00:00	2024-11-06T04:00:00	7	Dirección del viento	22.53
58599	7	Sololá	701	Sololá	3	Barraneche	11	Noviembre	2023-02-11T00:00:00	2024-11-06T04:00:00	1	Precipitación	0
58600	7	Sololá	701	Sololá	3	Barraneche	11	Noviembre	2023-02-11T00:00:00	2024-11-06T04:00:00	8	Radiación solar	0
58601	7	Sololá	701	Sololá	3	Barraneche	11	Noviembre	2023-02-11T00:00:00	2024-11-06T05:00:00	2	Temperatura media	13
58602	7	Sololá	701	Sololá	3	Barraneche	11	Noviembre	2023-02-11T00:00:00	2024-11-06T05:00:00	4	Temperatura máxima	13.6
58603	7	Sololá	701	Sololá	3	Barraneche	11	Noviembre	2023-02-11T00:00:00	2024-11-06T05:00:00	3	Temperatura mínima	13
58604	7	Sololá	701	Sololá	3	Barraneche	11	Noviembre	2023-02-11T00:00:00	2024-11-06T05:00:00	5	Humedad	69
58605	7	Sololá	701	Sololá	3	Barraneche	11	Noviembre	2023-02-11T00:00:00	2024-11-06T05:00:00	6	Velocidad del viento	16.1
58606	7	Sololá	701	Sololá	3	Barraneche	11	Noviembre	2023-02-11T00:00:00	2024-11-06T05:00:00	7	Dirección del viento	16.09
58607	7	Sololá	701	Sololá	3	Barraneche	11	Noviembre	2023-02-11T00:00:00	2024-11-06T05:00:00	1	Precipitación	0.2
58608	7	Sololá	701	Sololá	3	Barraneche	11	Noviembre	2023-02-11T00:00:00	2024-11-06T05:00:00	8	Radiación solar	0
58609	7	Sololá	701	Sololá	3	Barraneche	11	Noviembre	2023-02-11T00:00:00	2024-11-06T06:00:00	2	Temperatura media	13.7
58610	7	Sololá	701	Sololá	3	Barraneche	11	Noviembre	2023-02-11T00:00:00	2024-11-06T06:00:00	4	Temperatura máxima	13.7
58611	7	Sololá	701	Sololá	3	Barraneche	11	Noviembre	2023-02-11T00:00:00	2024-11-06T06:00:00	3	Temperatura mínima	13
58612	7	Sololá	701	Sololá	3	Barraneche	11	Noviembre	2023-02-11T00:00:00	2024-11-06T06:00:00	5	Humedad	67
58613	7	Sololá	701	Sololá	3	Barraneche	11	Noviembre	2023-02-11T00:00:00	2024-11-06T06:00:00	6	Velocidad del viento	12.9
58614	7	Sololá	701	Sololá	3	Barraneche	11	Noviembre	2023-02-11T00:00:00	2024-11-06T06:00:00	7	Dirección del viento	12.87
58615	7	Sololá	701	Sololá	3	Barraneche	11	Noviembre	2023-02-11T00:00:00	2024-11-06T06:00:00	1	Precipitación	0
58616	7	Sololá	701	Sololá	3	Barraneche	11	Noviembre	2023-02-11T00:00:00	2024-11-06T06:00:00	8	Radiación solar	0
58617	7	Sololá	701	Sololá	3	Barraneche	11	Noviembre	2023-02-11T00:00:00	2024-11-06T07:00:00	2	Temperatura media	13.6
58618	7	Sololá	701	Sololá	3	Barraneche	11	Noviembre	2023-02-11T00:00:00	2024-11-06T07:00:00	4	Temperatura máxima	13.7
58619	7	Sololá	701	Sololá	3	Barraneche	11	Noviembre	2023-02-11T00:00:00	2024-11-06T07:00:00	3	Temperatura mínima	13.4
58620	7	Sololá	701	Sololá	3	Barraneche	11	Noviembre	2023-02-11T00:00:00	2024-11-06T07:00:00	5	Humedad	69
58621	7	Sololá	701	Sololá	3	Barraneche	11	Noviembre	2023-02-11T00:00:00	2024-11-06T07:00:00	6	Velocidad del viento	14.5
58622	7	Sololá	701	Sololá	3	Barraneche	11	Noviembre	2023-02-11T00:00:00	2024-11-06T07:00:00	7	Dirección del viento	14.48
58623	7	Sololá	701	Sololá	3	Barraneche	11	Noviembre	2023-02-11T00:00:00	2024-11-06T07:00:00	1	Precipitación	0
58624	7	Sololá	701	Sololá	3	Barraneche	11	Noviembre	2023-02-11T00:00:00	2024-11-06T07:00:00	8	Radiación solar	43
58625	7	Sololá	701	Sololá	3	Barraneche	11	Noviembre	2023-02-11T00:00:00	2024-11-06T08:00:00	2	Temperatura media	15.5
58626	7	Sololá	701	Sololá	3	Barraneche	11	Noviembre	2023-02-11T00:00:00	2024-11-06T08:00:00	4	Temperatura máxima	15.5
58627	7	Sololá	701	Sololá	3	Barraneche	11	Noviembre	2023-02-11T00:00:00	2024-11-06T08:00:00	3	Temperatura mínima	13.6
58628	7	Sololá	701	Sololá	3	Barraneche	11	Noviembre	2023-02-11T00:00:00	2024-11-06T08:00:00	5	Humedad	64
58629	7	Sololá	701	Sololá	3	Barraneche	11	Noviembre	2023-02-11T00:00:00	2024-11-06T08:00:00	6	Velocidad del viento	17.7
58630	7	Sololá	701	Sololá	3	Barraneche	11	Noviembre	2023-02-11T00:00:00	2024-11-06T08:00:00	7	Dirección del viento	17.7
58631	7	Sololá	701	Sololá	3	Barraneche	11	Noviembre	2023-02-11T00:00:00	2024-11-06T08:00:00	1	Precipitación	0
58632	7	Sololá	701	Sololá	3	Barraneche	11	Noviembre	2023-02-11T00:00:00	2024-11-06T08:00:00	8	Radiación solar	279
58633	7	Sololá	701	Sololá	3	Barraneche	11	Noviembre	2023-02-11T00:00:00	2024-11-06T09:00:00	2	Temperatura media	16.1
58634	7	Sololá	701	Sololá	3	Barraneche	11	Noviembre	2023-02-11T00:00:00	2024-11-06T09:00:00	4	Temperatura máxima	16.1
58635	7	Sololá	701	Sololá	3	Barraneche	11	Noviembre	2023-02-11T00:00:00	2024-11-06T09:00:00	3	Temperatura mínima	15.3
58636	7	Sololá	701	Sololá	3	Barraneche	11	Noviembre	2023-02-11T00:00:00	2024-11-06T09:00:00	5	Humedad	63
58637	7	Sololá	701	Sololá	3	Barraneche	11	Noviembre	2023-02-11T00:00:00	2024-11-06T09:00:00	6	Velocidad del viento	20.9
58638	7	Sololá	701	Sololá	3	Barraneche	11	Noviembre	2023-02-11T00:00:00	2024-11-06T09:00:00	7	Dirección del viento	20.92
58639	7	Sololá	701	Sololá	3	Barraneche	11	Noviembre	2023-02-11T00:00:00	2024-11-06T09:00:00	1	Precipitación	0
58640	7	Sololá	701	Sololá	3	Barraneche	11	Noviembre	2023-02-11T00:00:00	2024-11-06T09:00:00	8	Radiación solar	605
58641	7	Sololá	701	Sololá	3	Barraneche	11	Noviembre	2023-02-11T00:00:00	2024-11-06T10:00:00	2	Temperatura media	16.4
58642	7	Sololá	701	Sololá	3	Barraneche	11	Noviembre	2023-02-11T00:00:00	2024-11-06T10:00:00	4	Temperatura máxima	16.5
58643	7	Sololá	701	Sololá	3	Barraneche	11	Noviembre	2023-02-11T00:00:00	2024-11-06T10:00:00	3	Temperatura mínima	15.9
58644	7	Sololá	701	Sololá	3	Barraneche	11	Noviembre	2023-02-11T00:00:00	2024-11-06T10:00:00	5	Humedad	62
58645	7	Sololá	701	Sololá	3	Barraneche	11	Noviembre	2023-02-11T00:00:00	2024-11-06T10:00:00	6	Velocidad del viento	20.9
58646	7	Sololá	701	Sololá	3	Barraneche	11	Noviembre	2023-02-11T00:00:00	2024-11-06T10:00:00	7	Dirección del viento	20.92
58647	7	Sololá	701	Sololá	3	Barraneche	11	Noviembre	2023-02-11T00:00:00	2024-11-06T10:00:00	1	Precipitación	0
58648	7	Sololá	701	Sololá	3	Barraneche	11	Noviembre	2023-02-11T00:00:00	2024-11-06T10:00:00	8	Radiación solar	796
58649	7	Sololá	701	Sololá	3	Barraneche	11	Noviembre	2023-02-11T00:00:00	2024-11-06T11:00:00	2	Temperatura media	16.9
58650	7	Sololá	701	Sololá	3	Barraneche	11	Noviembre	2023-02-11T00:00:00	2024-11-06T11:00:00	4	Temperatura máxima	16.9
58651	7	Sololá	701	Sololá	3	Barraneche	11	Noviembre	2023-02-11T00:00:00	2024-11-06T11:00:00	3	Temperatura mínima	16.1
58652	7	Sololá	701	Sololá	3	Barraneche	11	Noviembre	2023-02-11T00:00:00	2024-11-06T11:00:00	5	Humedad	61
58653	7	Sololá	701	Sololá	3	Barraneche	11	Noviembre	2023-02-11T00:00:00	2024-11-06T11:00:00	6	Velocidad del viento	20.9
58654	7	Sololá	701	Sololá	3	Barraneche	11	Noviembre	2023-02-11T00:00:00	2024-11-06T11:00:00	7	Dirección del viento	20.92
58655	7	Sololá	701	Sololá	3	Barraneche	11	Noviembre	2023-02-11T00:00:00	2024-11-06T11:00:00	1	Precipitación	0
58656	7	Sololá	701	Sololá	3	Barraneche	11	Noviembre	2023-02-11T00:00:00	2024-11-06T11:00:00	8	Radiación solar	883
58657	7	Sololá	701	Sololá	3	Barraneche	11	Noviembre	2023-02-11T00:00:00	2024-11-06T12:00:00	2	Temperatura media	16.4
58658	7	Sololá	701	Sololá	3	Barraneche	11	Noviembre	2023-02-11T00:00:00	2024-11-06T12:00:00	4	Temperatura máxima	17
58659	7	Sololá	701	Sololá	3	Barraneche	11	Noviembre	2023-02-11T00:00:00	2024-11-06T12:00:00	3	Temperatura mínima	16.2
58660	7	Sololá	701	Sololá	3	Barraneche	11	Noviembre	2023-02-11T00:00:00	2024-11-06T12:00:00	5	Humedad	62
58661	7	Sololá	701	Sololá	3	Barraneche	11	Noviembre	2023-02-11T00:00:00	2024-11-06T12:00:00	6	Velocidad del viento	19.3
58662	7	Sololá	701	Sololá	3	Barraneche	11	Noviembre	2023-02-11T00:00:00	2024-11-06T12:00:00	7	Dirección del viento	19.31
58663	7	Sololá	701	Sololá	3	Barraneche	11	Noviembre	2023-02-11T00:00:00	2024-11-06T12:00:00	1	Precipitación	0
58664	7	Sololá	701	Sololá	3	Barraneche	11	Noviembre	2023-02-11T00:00:00	2024-11-06T12:00:00	8	Radiación solar	743
58665	7	Sololá	701	Sololá	3	Barraneche	11	Noviembre	2023-02-11T00:00:00	2024-11-06T13:00:00	2	Temperatura media	15.7
58666	7	Sololá	701	Sololá	3	Barraneche	11	Noviembre	2023-02-11T00:00:00	2024-11-06T13:00:00	4	Temperatura máxima	16.4
58667	7	Sololá	701	Sololá	3	Barraneche	11	Noviembre	2023-02-11T00:00:00	2024-11-06T13:00:00	3	Temperatura mínima	15.7
58668	7	Sololá	701	Sololá	3	Barraneche	11	Noviembre	2023-02-11T00:00:00	2024-11-06T13:00:00	5	Humedad	62
58669	7	Sololá	701	Sololá	3	Barraneche	11	Noviembre	2023-02-11T00:00:00	2024-11-06T13:00:00	6	Velocidad del viento	19.3
58670	7	Sololá	701	Sololá	3	Barraneche	11	Noviembre	2023-02-11T00:00:00	2024-11-06T13:00:00	7	Dirección del viento	19.31
58671	7	Sololá	701	Sololá	3	Barraneche	11	Noviembre	2023-02-11T00:00:00	2024-11-06T13:00:00	1	Precipitación	0
58672	7	Sololá	701	Sololá	3	Barraneche	11	Noviembre	2023-02-11T00:00:00	2024-11-06T13:00:00	8	Radiación solar	532
58673	7	Sololá	701	Sololá	3	Barraneche	11	Noviembre	2023-02-11T00:00:00	2024-11-06T14:00:00	2	Temperatura media	14.9
58674	7	Sololá	701	Sololá	3	Barraneche	11	Noviembre	2023-02-11T00:00:00	2024-11-06T14:00:00	4	Temperatura máxima	15.9
58675	7	Sololá	701	Sololá	3	Barraneche	11	Noviembre	2023-02-11T00:00:00	2024-11-06T14:00:00	3	Temperatura mínima	14.9
58676	7	Sololá	701	Sololá	3	Barraneche	11	Noviembre	2023-02-11T00:00:00	2024-11-06T14:00:00	5	Humedad	65
58677	7	Sololá	701	Sololá	3	Barraneche	11	Noviembre	2023-02-11T00:00:00	2024-11-06T14:00:00	6	Velocidad del viento	17.7
58678	7	Sololá	701	Sololá	3	Barraneche	11	Noviembre	2023-02-11T00:00:00	2024-11-06T14:00:00	7	Dirección del viento	17.7
58679	7	Sololá	701	Sololá	3	Barraneche	11	Noviembre	2023-02-11T00:00:00	2024-11-06T14:00:00	1	Precipitación	0
58680	7	Sololá	701	Sololá	3	Barraneche	11	Noviembre	2023-02-11T00:00:00	2024-11-06T14:00:00	8	Radiación solar	396
58681	7	Sololá	701	Sololá	3	Barraneche	11	Noviembre	2023-02-11T00:00:00	2024-11-06T15:00:00	2	Temperatura media	14.7
58682	7	Sololá	701	Sololá	3	Barraneche	11	Noviembre	2023-02-11T00:00:00	2024-11-06T15:00:00	4	Temperatura máxima	14.9
58683	7	Sololá	701	Sololá	3	Barraneche	11	Noviembre	2023-02-11T00:00:00	2024-11-06T15:00:00	3	Temperatura mínima	14.1
58684	7	Sololá	701	Sololá	3	Barraneche	11	Noviembre	2023-02-11T00:00:00	2024-11-06T15:00:00	5	Humedad	65
58685	7	Sololá	701	Sololá	3	Barraneche	11	Noviembre	2023-02-11T00:00:00	2024-11-06T15:00:00	6	Velocidad del viento	22.5
58686	7	Sololá	701	Sololá	3	Barraneche	11	Noviembre	2023-02-11T00:00:00	2024-11-06T15:00:00	7	Dirección del viento	22.53
58687	7	Sololá	701	Sololá	3	Barraneche	11	Noviembre	2023-02-11T00:00:00	2024-11-06T15:00:00	1	Precipitación	0
58688	7	Sololá	701	Sololá	3	Barraneche	11	Noviembre	2023-02-11T00:00:00	2024-11-06T15:00:00	8	Radiación solar	273
58689	7	Sololá	701	Sololá	3	Barraneche	11	Noviembre	2023-02-11T00:00:00	2024-11-06T16:00:00	2	Temperatura media	15.1
58690	7	Sololá	701	Sololá	3	Barraneche	11	Noviembre	2023-02-11T00:00:00	2024-11-06T16:00:00	4	Temperatura máxima	15.1
58691	7	Sololá	701	Sololá	3	Barraneche	11	Noviembre	2023-02-11T00:00:00	2024-11-06T16:00:00	3	Temperatura mínima	14.3
58692	7	Sololá	701	Sololá	3	Barraneche	11	Noviembre	2023-02-11T00:00:00	2024-11-06T16:00:00	5	Humedad	63
58693	7	Sololá	701	Sololá	3	Barraneche	11	Noviembre	2023-02-11T00:00:00	2024-11-06T16:00:00	6	Velocidad del viento	16.1
58694	7	Sololá	701	Sololá	3	Barraneche	11	Noviembre	2023-02-11T00:00:00	2024-11-06T16:00:00	7	Dirección del viento	16.09
58695	7	Sololá	701	Sololá	3	Barraneche	11	Noviembre	2023-02-11T00:00:00	2024-11-06T16:00:00	1	Precipitación	0
58696	7	Sololá	701	Sololá	3	Barraneche	11	Noviembre	2023-02-11T00:00:00	2024-11-06T16:00:00	8	Radiación solar	171
58697	7	Sololá	701	Sololá	3	Barraneche	11	Noviembre	2023-02-11T00:00:00	2024-11-06T17:00:00	2	Temperatura media	14.3
58698	7	Sololá	701	Sololá	3	Barraneche	11	Noviembre	2023-02-11T00:00:00	2024-11-06T17:00:00	4	Temperatura máxima	15.1
58699	7	Sololá	701	Sololá	3	Barraneche	11	Noviembre	2023-02-11T00:00:00	2024-11-06T17:00:00	3	Temperatura mínima	14.3
58700	7	Sololá	701	Sololá	3	Barraneche	11	Noviembre	2023-02-11T00:00:00	2024-11-06T17:00:00	5	Humedad	67
58701	7	Sololá	701	Sololá	3	Barraneche	11	Noviembre	2023-02-11T00:00:00	2024-11-06T17:00:00	6	Velocidad del viento	9.7
58702	7	Sololá	701	Sololá	3	Barraneche	11	Noviembre	2023-02-11T00:00:00	2024-11-06T17:00:00	7	Dirección del viento	9.66
58703	7	Sololá	701	Sololá	3	Barraneche	11	Noviembre	2023-02-11T00:00:00	2024-11-06T17:00:00	1	Precipitación	0
58704	7	Sololá	701	Sololá	3	Barraneche	11	Noviembre	2023-02-11T00:00:00	2024-11-06T17:00:00	8	Radiación solar	76
58705	7	Sololá	701	Sololá	3	Barraneche	11	Noviembre	2023-02-11T00:00:00	2024-11-06T18:00:00	2	Temperatura media	14
58706	7	Sololá	701	Sololá	3	Barraneche	11	Noviembre	2023-02-11T00:00:00	2024-11-06T18:00:00	4	Temperatura máxima	14.3
58707	7	Sololá	701	Sololá	3	Barraneche	11	Noviembre	2023-02-11T00:00:00	2024-11-06T18:00:00	3	Temperatura mínima	13.9
58708	7	Sololá	701	Sololá	3	Barraneche	11	Noviembre	2023-02-11T00:00:00	2024-11-06T18:00:00	5	Humedad	68
58709	7	Sololá	701	Sololá	3	Barraneche	11	Noviembre	2023-02-11T00:00:00	2024-11-06T18:00:00	6	Velocidad del viento	9.7
58710	7	Sololá	701	Sololá	3	Barraneche	11	Noviembre	2023-02-11T00:00:00	2024-11-06T18:00:00	7	Dirección del viento	9.66
58711	7	Sololá	701	Sololá	3	Barraneche	11	Noviembre	2023-02-11T00:00:00	2024-11-06T18:00:00	1	Precipitación	0
58712	7	Sololá	701	Sololá	3	Barraneche	11	Noviembre	2023-02-11T00:00:00	2024-11-06T18:00:00	8	Radiación solar	10
58713	7	Sololá	701	Sololá	3	Barraneche	11	Noviembre	2023-02-11T00:00:00	2024-11-06T19:00:00	2	Temperatura media	13.7
58714	7	Sololá	701	Sololá	3	Barraneche	11	Noviembre	2023-02-11T00:00:00	2024-11-06T19:00:00	4	Temperatura máxima	14
58715	7	Sololá	701	Sololá	3	Barraneche	11	Noviembre	2023-02-11T00:00:00	2024-11-06T19:00:00	3	Temperatura mínima	13.6
58716	7	Sololá	701	Sololá	3	Barraneche	11	Noviembre	2023-02-11T00:00:00	2024-11-06T19:00:00	5	Humedad	67
58717	7	Sololá	701	Sololá	3	Barraneche	11	Noviembre	2023-02-11T00:00:00	2024-11-06T19:00:00	6	Velocidad del viento	16.1
58718	7	Sololá	701	Sololá	3	Barraneche	11	Noviembre	2023-02-11T00:00:00	2024-11-06T19:00:00	7	Dirección del viento	16.09
58719	7	Sololá	701	Sololá	3	Barraneche	11	Noviembre	2023-02-11T00:00:00	2024-11-06T19:00:00	1	Precipitación	0
58720	7	Sololá	701	Sololá	3	Barraneche	11	Noviembre	2023-02-11T00:00:00	2024-11-06T19:00:00	8	Radiación solar	0
58721	7	Sololá	701	Sololá	3	Barraneche	11	Noviembre	2023-02-11T00:00:00	2024-11-06T20:00:00	2	Temperatura media	14.2
58722	7	Sololá	701	Sololá	3	Barraneche	11	Noviembre	2023-02-11T00:00:00	2024-11-06T20:00:00	4	Temperatura máxima	14.2
58723	7	Sololá	701	Sololá	3	Barraneche	11	Noviembre	2023-02-11T00:00:00	2024-11-06T20:00:00	3	Temperatura mínima	13.7
58724	7	Sololá	701	Sololá	3	Barraneche	11	Noviembre	2023-02-11T00:00:00	2024-11-06T20:00:00	5	Humedad	65
58725	7	Sololá	701	Sololá	3	Barraneche	11	Noviembre	2023-02-11T00:00:00	2024-11-06T20:00:00	6	Velocidad del viento	25.7
58726	7	Sololá	701	Sololá	3	Barraneche	11	Noviembre	2023-02-11T00:00:00	2024-11-06T20:00:00	7	Dirección del viento	25.75
58727	7	Sololá	701	Sololá	3	Barraneche	11	Noviembre	2023-02-11T00:00:00	2024-11-06T20:00:00	1	Precipitación	0
58728	7	Sololá	701	Sololá	3	Barraneche	11	Noviembre	2023-02-11T00:00:00	2024-11-06T20:00:00	8	Radiación solar	0
58729	7	Sololá	701	Sololá	3	Barraneche	11	Noviembre	2023-02-11T00:00:00	2024-11-06T21:00:00	2	Temperatura media	13.9
58730	7	Sololá	701	Sololá	3	Barraneche	11	Noviembre	2023-02-11T00:00:00	2024-11-06T21:00:00	4	Temperatura máxima	14.3
58731	7	Sololá	701	Sololá	3	Barraneche	11	Noviembre	2023-02-11T00:00:00	2024-11-06T21:00:00	3	Temperatura mínima	13.9
58732	7	Sololá	701	Sololá	3	Barraneche	11	Noviembre	2023-02-11T00:00:00	2024-11-06T21:00:00	5	Humedad	66
58733	7	Sololá	701	Sololá	3	Barraneche	11	Noviembre	2023-02-11T00:00:00	2024-11-06T21:00:00	6	Velocidad del viento	27.4
58734	7	Sololá	701	Sololá	3	Barraneche	11	Noviembre	2023-02-11T00:00:00	2024-11-06T21:00:00	7	Dirección del viento	27.36
58735	7	Sololá	701	Sololá	3	Barraneche	11	Noviembre	2023-02-11T00:00:00	2024-11-06T21:00:00	1	Precipitación	0
58736	7	Sololá	701	Sololá	3	Barraneche	11	Noviembre	2023-02-11T00:00:00	2024-11-06T21:00:00	8	Radiación solar	0
58737	7	Sololá	701	Sololá	3	Barraneche	11	Noviembre	2023-02-11T00:00:00	2024-11-06T22:00:00	2	Temperatura media	14
58738	7	Sololá	701	Sololá	3	Barraneche	11	Noviembre	2023-02-11T00:00:00	2024-11-06T22:00:00	4	Temperatura máxima	14.3
58739	7	Sololá	701	Sololá	3	Barraneche	11	Noviembre	2023-02-11T00:00:00	2024-11-06T22:00:00	3	Temperatura mínima	13.9
58740	7	Sololá	701	Sololá	3	Barraneche	11	Noviembre	2023-02-11T00:00:00	2024-11-06T22:00:00	5	Humedad	66
58741	7	Sololá	701	Sololá	3	Barraneche	11	Noviembre	2023-02-11T00:00:00	2024-11-06T22:00:00	6	Velocidad del viento	19.3
58742	7	Sololá	701	Sololá	3	Barraneche	11	Noviembre	2023-02-11T00:00:00	2024-11-06T22:00:00	7	Dirección del viento	19.31
58743	7	Sololá	701	Sololá	3	Barraneche	11	Noviembre	2023-02-11T00:00:00	2024-11-06T22:00:00	1	Precipitación	0
58744	7	Sololá	701	Sololá	3	Barraneche	11	Noviembre	2023-02-11T00:00:00	2024-11-06T22:00:00	8	Radiación solar	0
58745	7	Sololá	701	Sololá	3	Barraneche	11	Noviembre	2023-02-11T00:00:00	2024-11-06T23:00:00	2	Temperatura media	13.6
58746	7	Sololá	701	Sololá	3	Barraneche	11	Noviembre	2023-02-11T00:00:00	2024-11-06T23:00:00	4	Temperatura máxima	14.1
58747	7	Sololá	701	Sololá	3	Barraneche	11	Noviembre	2023-02-11T00:00:00	2024-11-06T23:00:00	3	Temperatura mínima	13.4
58748	7	Sololá	701	Sololá	3	Barraneche	11	Noviembre	2023-02-11T00:00:00	2024-11-06T23:00:00	5	Humedad	66
58749	7	Sololá	701	Sololá	3	Barraneche	11	Noviembre	2023-02-11T00:00:00	2024-11-06T23:00:00	6	Velocidad del viento	17.7
58750	7	Sololá	701	Sololá	3	Barraneche	11	Noviembre	2023-02-11T00:00:00	2024-11-06T23:00:00	7	Dirección del viento	17.7
58751	7	Sololá	701	Sololá	3	Barraneche	11	Noviembre	2023-02-11T00:00:00	2024-11-06T23:00:00	1	Precipitación	0
58752	7	Sololá	701	Sololá	3	Barraneche	11	Noviembre	2023-02-11T00:00:00	2024-11-06T23:00:00	8	Radiación solar	0
58753	7	Sololá	701	Sololá	3	Barraneche	11	Noviembre	2023-03-11T00:00:00	2024-11-06T00:00:00	2	Temperatura media	13.4
58754	7	Sololá	701	Sololá	3	Barraneche	11	Noviembre	2023-03-11T00:00:00	2024-11-06T00:00:00	4	Temperatura máxima	13.8
58755	7	Sololá	701	Sololá	3	Barraneche	11	Noviembre	2023-03-11T00:00:00	2024-11-06T00:00:00	3	Temperatura mínima	13.3
58756	7	Sololá	701	Sololá	3	Barraneche	11	Noviembre	2023-03-11T00:00:00	2024-11-06T00:00:00	5	Humedad	65
58757	7	Sololá	701	Sololá	3	Barraneche	11	Noviembre	2023-03-11T00:00:00	2024-11-06T00:00:00	6	Velocidad del viento	24.1
58758	7	Sololá	701	Sololá	3	Barraneche	11	Noviembre	2023-03-11T00:00:00	2024-11-06T00:00:00	7	Dirección del viento	24.14
58759	7	Sololá	701	Sololá	3	Barraneche	11	Noviembre	2023-03-11T00:00:00	2024-11-06T00:00:00	1	Precipitación	0
58760	7	Sololá	701	Sololá	3	Barraneche	11	Noviembre	2023-03-11T00:00:00	2024-11-06T00:00:00	8	Radiación solar	0
58761	7	Sololá	701	Sololá	3	Barraneche	11	Noviembre	2023-03-11T00:00:00	2024-11-06T01:00:00	2	Temperatura media	13.2
58762	7	Sololá	701	Sololá	3	Barraneche	11	Noviembre	2023-03-11T00:00:00	2024-11-06T01:00:00	4	Temperatura máxima	14
58763	7	Sololá	701	Sololá	3	Barraneche	11	Noviembre	2023-03-11T00:00:00	2024-11-06T01:00:00	3	Temperatura mínima	13
58764	7	Sololá	701	Sololá	3	Barraneche	11	Noviembre	2023-03-11T00:00:00	2024-11-06T01:00:00	5	Humedad	65
58765	7	Sololá	701	Sololá	3	Barraneche	11	Noviembre	2023-03-11T00:00:00	2024-11-06T01:00:00	6	Velocidad del viento	20.9
58766	7	Sololá	701	Sololá	3	Barraneche	11	Noviembre	2023-03-11T00:00:00	2024-11-06T01:00:00	7	Dirección del viento	20.92
58767	7	Sololá	701	Sololá	3	Barraneche	11	Noviembre	2023-03-11T00:00:00	2024-11-06T01:00:00	1	Precipitación	0
58768	7	Sololá	701	Sololá	3	Barraneche	11	Noviembre	2023-03-11T00:00:00	2024-11-06T01:00:00	8	Radiación solar	0
58769	7	Sololá	701	Sololá	3	Barraneche	11	Noviembre	2023-03-11T00:00:00	2024-11-06T02:00:00	2	Temperatura media	13.1
58770	7	Sololá	701	Sololá	3	Barraneche	11	Noviembre	2023-03-11T00:00:00	2024-11-06T02:00:00	4	Temperatura máxima	13.4
58771	7	Sololá	701	Sololá	3	Barraneche	11	Noviembre	2023-03-11T00:00:00	2024-11-06T02:00:00	3	Temperatura mínima	13
58772	7	Sololá	701	Sololá	3	Barraneche	11	Noviembre	2023-03-11T00:00:00	2024-11-06T02:00:00	5	Humedad	62
58773	7	Sololá	701	Sololá	3	Barraneche	11	Noviembre	2023-03-11T00:00:00	2024-11-06T02:00:00	6	Velocidad del viento	24.1
58774	7	Sololá	701	Sololá	3	Barraneche	11	Noviembre	2023-03-11T00:00:00	2024-11-06T02:00:00	7	Dirección del viento	24.14
58775	7	Sololá	701	Sololá	3	Barraneche	11	Noviembre	2023-03-11T00:00:00	2024-11-06T02:00:00	1	Precipitación	0
58776	7	Sololá	701	Sololá	3	Barraneche	11	Noviembre	2023-03-11T00:00:00	2024-11-06T02:00:00	8	Radiación solar	0
58777	7	Sololá	701	Sololá	3	Barraneche	11	Noviembre	2023-03-11T00:00:00	2024-11-06T03:00:00	2	Temperatura media	13.1
58778	7	Sololá	701	Sololá	3	Barraneche	11	Noviembre	2023-03-11T00:00:00	2024-11-06T03:00:00	4	Temperatura máxima	13.1
58779	7	Sololá	701	Sololá	3	Barraneche	11	Noviembre	2023-03-11T00:00:00	2024-11-06T03:00:00	3	Temperatura mínima	12.8
58780	7	Sololá	701	Sololá	3	Barraneche	11	Noviembre	2023-03-11T00:00:00	2024-11-06T03:00:00	5	Humedad	62
58781	7	Sololá	701	Sololá	3	Barraneche	11	Noviembre	2023-03-11T00:00:00	2024-11-06T03:00:00	6	Velocidad del viento	30.6
58782	7	Sololá	701	Sololá	3	Barraneche	11	Noviembre	2023-03-11T00:00:00	2024-11-06T03:00:00	7	Dirección del viento	30.58
58783	7	Sololá	701	Sololá	3	Barraneche	11	Noviembre	2023-03-11T00:00:00	2024-11-06T03:00:00	1	Precipitación	0
58784	7	Sololá	701	Sololá	3	Barraneche	11	Noviembre	2023-03-11T00:00:00	2024-11-06T03:00:00	8	Radiación solar	0
58785	7	Sololá	701	Sololá	3	Barraneche	11	Noviembre	2023-03-11T00:00:00	2024-11-06T04:00:00	2	Temperatura media	12.7
58786	7	Sololá	701	Sololá	3	Barraneche	11	Noviembre	2023-03-11T00:00:00	2024-11-06T04:00:00	4	Temperatura máxima	13.1
58787	7	Sololá	701	Sololá	3	Barraneche	11	Noviembre	2023-03-11T00:00:00	2024-11-06T04:00:00	3	Temperatura mínima	12.4
58788	7	Sololá	701	Sololá	3	Barraneche	11	Noviembre	2023-03-11T00:00:00	2024-11-06T04:00:00	5	Humedad	63
58789	7	Sololá	701	Sololá	3	Barraneche	11	Noviembre	2023-03-11T00:00:00	2024-11-06T04:00:00	6	Velocidad del viento	32.2
58790	7	Sololá	701	Sololá	3	Barraneche	11	Noviembre	2023-03-11T00:00:00	2024-11-06T04:00:00	7	Dirección del viento	32.19
58791	7	Sololá	701	Sololá	3	Barraneche	11	Noviembre	2023-03-11T00:00:00	2024-11-06T04:00:00	1	Precipitación	0
58792	7	Sololá	701	Sololá	3	Barraneche	11	Noviembre	2023-03-11T00:00:00	2024-11-06T04:00:00	8	Radiación solar	0
58793	7	Sololá	701	Sololá	3	Barraneche	11	Noviembre	2023-03-11T00:00:00	2024-11-06T05:00:00	2	Temperatura media	13.2
58794	7	Sololá	701	Sololá	3	Barraneche	11	Noviembre	2023-03-11T00:00:00	2024-11-06T05:00:00	4	Temperatura máxima	13.2
58795	7	Sololá	701	Sololá	3	Barraneche	11	Noviembre	2023-03-11T00:00:00	2024-11-06T05:00:00	3	Temperatura mínima	12.5
58796	7	Sololá	701	Sololá	3	Barraneche	11	Noviembre	2023-03-11T00:00:00	2024-11-06T05:00:00	5	Humedad	59
58797	7	Sololá	701	Sololá	3	Barraneche	11	Noviembre	2023-03-11T00:00:00	2024-11-06T05:00:00	6	Velocidad del viento	29
58798	7	Sololá	701	Sololá	3	Barraneche	11	Noviembre	2023-03-11T00:00:00	2024-11-06T05:00:00	7	Dirección del viento	28.97
58799	7	Sololá	701	Sololá	3	Barraneche	11	Noviembre	2023-03-11T00:00:00	2024-11-06T05:00:00	1	Precipitación	0
58800	7	Sololá	701	Sololá	3	Barraneche	11	Noviembre	2023-03-11T00:00:00	2024-11-06T05:00:00	8	Radiación solar	0
58801	7	Sololá	701	Sololá	3	Barraneche	11	Noviembre	2023-03-11T00:00:00	2024-11-06T06:00:00	2	Temperatura media	14.4
58802	7	Sololá	701	Sololá	3	Barraneche	11	Noviembre	2023-03-11T00:00:00	2024-11-06T06:00:00	4	Temperatura máxima	14.4
58803	7	Sololá	701	Sololá	3	Barraneche	11	Noviembre	2023-03-11T00:00:00	2024-11-06T06:00:00	3	Temperatura mínima	13
58804	7	Sololá	701	Sololá	3	Barraneche	11	Noviembre	2023-03-11T00:00:00	2024-11-06T06:00:00	5	Humedad	54
58805	7	Sololá	701	Sololá	3	Barraneche	11	Noviembre	2023-03-11T00:00:00	2024-11-06T06:00:00	6	Velocidad del viento	24.1
58806	7	Sololá	701	Sololá	3	Barraneche	11	Noviembre	2023-03-11T00:00:00	2024-11-06T06:00:00	7	Dirección del viento	24.14
58807	7	Sololá	701	Sololá	3	Barraneche	11	Noviembre	2023-03-11T00:00:00	2024-11-06T06:00:00	1	Precipitación	0
58808	7	Sololá	701	Sololá	3	Barraneche	11	Noviembre	2023-03-11T00:00:00	2024-11-06T06:00:00	8	Radiación solar	0
58809	7	Sololá	701	Sololá	3	Barraneche	11	Noviembre	2023-03-11T00:00:00	2024-11-06T07:00:00	2	Temperatura media	13.8
58810	7	Sololá	701	Sololá	3	Barraneche	11	Noviembre	2023-03-11T00:00:00	2024-11-06T07:00:00	4	Temperatura máxima	14.4
58811	7	Sololá	701	Sololá	3	Barraneche	11	Noviembre	2023-03-11T00:00:00	2024-11-06T07:00:00	3	Temperatura mínima	13.6
58812	7	Sololá	701	Sololá	3	Barraneche	11	Noviembre	2023-03-11T00:00:00	2024-11-06T07:00:00	5	Humedad	58
58813	7	Sololá	701	Sololá	3	Barraneche	11	Noviembre	2023-03-11T00:00:00	2024-11-06T07:00:00	6	Velocidad del viento	25.7
58814	7	Sololá	701	Sololá	3	Barraneche	11	Noviembre	2023-03-11T00:00:00	2024-11-06T07:00:00	7	Dirección del viento	25.75
58815	7	Sololá	701	Sololá	3	Barraneche	11	Noviembre	2023-03-11T00:00:00	2024-11-06T07:00:00	1	Precipitación	0
58816	7	Sololá	701	Sololá	3	Barraneche	11	Noviembre	2023-03-11T00:00:00	2024-11-06T07:00:00	8	Radiación solar	14
58817	7	Sololá	701	Sololá	3	Barraneche	11	Noviembre	2023-03-11T00:00:00	2024-11-06T08:00:00	2	Temperatura media	14.8
58818	7	Sololá	701	Sololá	3	Barraneche	11	Noviembre	2023-03-11T00:00:00	2024-11-06T08:00:00	4	Temperatura máxima	15.2
58819	7	Sololá	701	Sololá	3	Barraneche	11	Noviembre	2023-03-11T00:00:00	2024-11-06T08:00:00	3	Temperatura mínima	13.8
58820	7	Sololá	701	Sololá	3	Barraneche	11	Noviembre	2023-03-11T00:00:00	2024-11-06T08:00:00	5	Humedad	58
58821	7	Sololá	701	Sololá	3	Barraneche	11	Noviembre	2023-03-11T00:00:00	2024-11-06T08:00:00	6	Velocidad del viento	29
58822	7	Sololá	701	Sololá	3	Barraneche	11	Noviembre	2023-03-11T00:00:00	2024-11-06T08:00:00	7	Dirección del viento	28.97
58823	7	Sololá	701	Sololá	3	Barraneche	11	Noviembre	2023-03-11T00:00:00	2024-11-06T08:00:00	1	Precipitación	0
58824	7	Sololá	701	Sololá	3	Barraneche	11	Noviembre	2023-03-11T00:00:00	2024-11-06T08:00:00	8	Radiación solar	81
58825	7	Sololá	701	Sololá	3	Barraneche	11	Noviembre	2023-03-11T00:00:00	2024-11-06T09:00:00	2	Temperatura media	15.3
58826	7	Sololá	701	Sololá	3	Barraneche	11	Noviembre	2023-03-11T00:00:00	2024-11-06T09:00:00	4	Temperatura máxima	15.6
58827	7	Sololá	701	Sololá	3	Barraneche	11	Noviembre	2023-03-11T00:00:00	2024-11-06T09:00:00	3	Temperatura mínima	14.7
58828	7	Sololá	701	Sololá	3	Barraneche	11	Noviembre	2023-03-11T00:00:00	2024-11-06T09:00:00	5	Humedad	58
58829	7	Sololá	701	Sololá	3	Barraneche	11	Noviembre	2023-03-11T00:00:00	2024-11-06T09:00:00	6	Velocidad del viento	29
58830	7	Sololá	701	Sololá	3	Barraneche	11	Noviembre	2023-03-11T00:00:00	2024-11-06T09:00:00	7	Dirección del viento	28.97
58831	7	Sololá	701	Sololá	3	Barraneche	11	Noviembre	2023-03-11T00:00:00	2024-11-06T09:00:00	1	Precipitación	0
58832	7	Sololá	701	Sololá	3	Barraneche	11	Noviembre	2023-03-11T00:00:00	2024-11-06T09:00:00	8	Radiación solar	268
58833	7	Sololá	701	Sololá	3	Barraneche	11	Noviembre	2023-03-11T00:00:00	2024-11-06T10:00:00	2	Temperatura media	15
58834	7	Sololá	701	Sololá	3	Barraneche	11	Noviembre	2023-03-11T00:00:00	2024-11-06T10:00:00	4	Temperatura máxima	15.3
58835	7	Sololá	701	Sololá	3	Barraneche	11	Noviembre	2023-03-11T00:00:00	2024-11-06T10:00:00	3	Temperatura mínima	14.8
58836	7	Sololá	701	Sololá	3	Barraneche	11	Noviembre	2023-03-11T00:00:00	2024-11-06T10:00:00	5	Humedad	61
58837	7	Sololá	701	Sololá	3	Barraneche	11	Noviembre	2023-03-11T00:00:00	2024-11-06T10:00:00	6	Velocidad del viento	27.4
58838	7	Sololá	701	Sololá	3	Barraneche	11	Noviembre	2023-03-11T00:00:00	2024-11-06T10:00:00	7	Dirección del viento	27.36
58839	7	Sololá	701	Sololá	3	Barraneche	11	Noviembre	2023-03-11T00:00:00	2024-11-06T10:00:00	1	Precipitación	0
58840	7	Sololá	701	Sololá	3	Barraneche	11	Noviembre	2023-03-11T00:00:00	2024-11-06T10:00:00	8	Radiación solar	224
58841	7	Sololá	701	Sololá	3	Barraneche	11	Noviembre	2023-03-11T00:00:00	2024-11-06T11:00:00	2	Temperatura media	15.8
58842	7	Sololá	701	Sololá	3	Barraneche	11	Noviembre	2023-03-11T00:00:00	2024-11-06T11:00:00	4	Temperatura máxima	15.9
58843	7	Sololá	701	Sololá	3	Barraneche	11	Noviembre	2023-03-11T00:00:00	2024-11-06T11:00:00	3	Temperatura mínima	14.6
58844	7	Sololá	701	Sololá	3	Barraneche	11	Noviembre	2023-03-11T00:00:00	2024-11-06T11:00:00	5	Humedad	59
58845	7	Sololá	701	Sololá	3	Barraneche	11	Noviembre	2023-03-11T00:00:00	2024-11-06T11:00:00	6	Velocidad del viento	27.4
58846	7	Sololá	701	Sololá	3	Barraneche	11	Noviembre	2023-03-11T00:00:00	2024-11-06T11:00:00	7	Dirección del viento	27.36
58847	7	Sololá	701	Sololá	3	Barraneche	11	Noviembre	2023-03-11T00:00:00	2024-11-06T11:00:00	1	Precipitación	0
58848	7	Sololá	701	Sololá	3	Barraneche	11	Noviembre	2023-03-11T00:00:00	2024-11-06T11:00:00	8	Radiación solar	266
58849	7	Sololá	701	Sololá	3	Barraneche	11	Noviembre	2023-03-11T00:00:00	2024-11-06T12:00:00	2	Temperatura media	16.6
58850	7	Sololá	701	Sololá	3	Barraneche	11	Noviembre	2023-03-11T00:00:00	2024-11-06T12:00:00	4	Temperatura máxima	16.7
58851	7	Sololá	701	Sololá	3	Barraneche	11	Noviembre	2023-03-11T00:00:00	2024-11-06T12:00:00	3	Temperatura mínima	15.7
58852	7	Sololá	701	Sololá	3	Barraneche	11	Noviembre	2023-03-11T00:00:00	2024-11-06T12:00:00	5	Humedad	59
58853	7	Sololá	701	Sololá	3	Barraneche	11	Noviembre	2023-03-11T00:00:00	2024-11-06T12:00:00	6	Velocidad del viento	27.4
58854	7	Sololá	701	Sololá	3	Barraneche	11	Noviembre	2023-03-11T00:00:00	2024-11-06T12:00:00	7	Dirección del viento	27.36
58855	7	Sololá	701	Sololá	3	Barraneche	11	Noviembre	2023-03-11T00:00:00	2024-11-06T12:00:00	1	Precipitación	0
58856	7	Sololá	701	Sololá	3	Barraneche	11	Noviembre	2023-03-11T00:00:00	2024-11-06T12:00:00	8	Radiación solar	479
58857	7	Sololá	701	Sololá	3	Barraneche	11	Noviembre	2023-03-11T00:00:00	2024-11-06T13:00:00	2	Temperatura media	15.9
58858	7	Sololá	701	Sololá	3	Barraneche	11	Noviembre	2023-03-11T00:00:00	2024-11-06T13:00:00	4	Temperatura máxima	16.8
58859	7	Sololá	701	Sololá	3	Barraneche	11	Noviembre	2023-03-11T00:00:00	2024-11-06T13:00:00	3	Temperatura mínima	15.8
58860	7	Sololá	701	Sololá	3	Barraneche	11	Noviembre	2023-03-11T00:00:00	2024-11-06T13:00:00	5	Humedad	60
58861	7	Sololá	701	Sololá	3	Barraneche	11	Noviembre	2023-03-11T00:00:00	2024-11-06T13:00:00	6	Velocidad del viento	30.6
58862	7	Sololá	701	Sololá	3	Barraneche	11	Noviembre	2023-03-11T00:00:00	2024-11-06T13:00:00	7	Dirección del viento	30.58
58863	7	Sololá	701	Sololá	3	Barraneche	11	Noviembre	2023-03-11T00:00:00	2024-11-06T13:00:00	1	Precipitación	0
58864	7	Sololá	701	Sololá	3	Barraneche	11	Noviembre	2023-03-11T00:00:00	2024-11-06T13:00:00	8	Radiación solar	533
58865	7	Sololá	701	Sololá	3	Barraneche	11	Noviembre	2023-03-11T00:00:00	2024-11-06T14:00:00	2	Temperatura media	14.8
58866	7	Sololá	701	Sololá	3	Barraneche	11	Noviembre	2023-03-11T00:00:00	2024-11-06T14:00:00	4	Temperatura máxima	15.9
58867	7	Sololá	701	Sololá	3	Barraneche	11	Noviembre	2023-03-11T00:00:00	2024-11-06T14:00:00	3	Temperatura mínima	14.8
58868	7	Sololá	701	Sololá	3	Barraneche	11	Noviembre	2023-03-11T00:00:00	2024-11-06T14:00:00	5	Humedad	62
58869	7	Sololá	701	Sololá	3	Barraneche	11	Noviembre	2023-03-11T00:00:00	2024-11-06T14:00:00	6	Velocidad del viento	29
58870	7	Sololá	701	Sololá	3	Barraneche	11	Noviembre	2023-03-11T00:00:00	2024-11-06T14:00:00	7	Dirección del viento	28.97
58871	7	Sololá	701	Sololá	3	Barraneche	11	Noviembre	2023-03-11T00:00:00	2024-11-06T14:00:00	1	Precipitación	0
58872	7	Sololá	701	Sololá	3	Barraneche	11	Noviembre	2023-03-11T00:00:00	2024-11-06T14:00:00	8	Radiación solar	254
58873	7	Sololá	701	Sololá	3	Barraneche	11	Noviembre	2023-03-11T00:00:00	2024-11-06T15:00:00	2	Temperatura media	15.5
58874	7	Sololá	701	Sololá	3	Barraneche	11	Noviembre	2023-03-11T00:00:00	2024-11-06T15:00:00	4	Temperatura máxima	15.5
58875	7	Sololá	701	Sololá	3	Barraneche	11	Noviembre	2023-03-11T00:00:00	2024-11-06T15:00:00	3	Temperatura mínima	14.8
58876	7	Sololá	701	Sololá	3	Barraneche	11	Noviembre	2023-03-11T00:00:00	2024-11-06T15:00:00	5	Humedad	61
58877	7	Sololá	701	Sololá	3	Barraneche	11	Noviembre	2023-03-11T00:00:00	2024-11-06T15:00:00	6	Velocidad del viento	25.7
58878	7	Sololá	701	Sololá	3	Barraneche	11	Noviembre	2023-03-11T00:00:00	2024-11-06T15:00:00	7	Dirección del viento	25.75
58879	7	Sololá	701	Sololá	3	Barraneche	11	Noviembre	2023-03-11T00:00:00	2024-11-06T15:00:00	1	Precipitación	0
58880	7	Sololá	701	Sololá	3	Barraneche	11	Noviembre	2023-03-11T00:00:00	2024-11-06T15:00:00	8	Radiación solar	207
58881	7	Sololá	701	Sololá	3	Barraneche	11	Noviembre	2023-03-11T00:00:00	2024-11-06T16:00:00	2	Temperatura media	15.1
58882	7	Sololá	701	Sololá	3	Barraneche	11	Noviembre	2023-03-11T00:00:00	2024-11-06T16:00:00	4	Temperatura máxima	15.6
58883	7	Sololá	701	Sololá	3	Barraneche	11	Noviembre	2023-03-11T00:00:00	2024-11-06T16:00:00	3	Temperatura mínima	15.1
58884	7	Sololá	701	Sololá	3	Barraneche	11	Noviembre	2023-03-11T00:00:00	2024-11-06T16:00:00	5	Humedad	63
58885	7	Sololá	701	Sololá	3	Barraneche	11	Noviembre	2023-03-11T00:00:00	2024-11-06T16:00:00	6	Velocidad del viento	25.7
58886	7	Sololá	701	Sololá	3	Barraneche	11	Noviembre	2023-03-11T00:00:00	2024-11-06T16:00:00	7	Dirección del viento	25.75
58887	7	Sololá	701	Sololá	3	Barraneche	11	Noviembre	2023-03-11T00:00:00	2024-11-06T16:00:00	1	Precipitación	0
58888	7	Sololá	701	Sololá	3	Barraneche	11	Noviembre	2023-03-11T00:00:00	2024-11-06T16:00:00	8	Radiación solar	196
58889	7	Sololá	701	Sololá	3	Barraneche	11	Noviembre	2023-03-11T00:00:00	2024-11-06T17:00:00	2	Temperatura media	14.1
58890	7	Sololá	701	Sololá	3	Barraneche	11	Noviembre	2023-03-11T00:00:00	2024-11-06T17:00:00	4	Temperatura máxima	15.2
58891	7	Sololá	701	Sololá	3	Barraneche	11	Noviembre	2023-03-11T00:00:00	2024-11-06T17:00:00	3	Temperatura mínima	14.1
58892	7	Sololá	701	Sololá	3	Barraneche	11	Noviembre	2023-03-11T00:00:00	2024-11-06T17:00:00	5	Humedad	62
58893	7	Sololá	701	Sololá	3	Barraneche	11	Noviembre	2023-03-11T00:00:00	2024-11-06T17:00:00	6	Velocidad del viento	24.1
58894	7	Sololá	701	Sololá	3	Barraneche	11	Noviembre	2023-03-11T00:00:00	2024-11-06T17:00:00	7	Dirección del viento	24.14
58895	7	Sololá	701	Sololá	3	Barraneche	11	Noviembre	2023-03-11T00:00:00	2024-11-06T17:00:00	1	Precipitación	0
58896	7	Sololá	701	Sololá	3	Barraneche	11	Noviembre	2023-03-11T00:00:00	2024-11-06T17:00:00	8	Radiación solar	119
58897	7	Sololá	701	Sololá	3	Barraneche	11	Noviembre	2023-03-11T00:00:00	2024-11-06T18:00:00	2	Temperatura media	13.9
58898	7	Sololá	701	Sololá	3	Barraneche	11	Noviembre	2023-03-11T00:00:00	2024-11-06T18:00:00	4	Temperatura máxima	14.1
58899	7	Sololá	701	Sololá	3	Barraneche	11	Noviembre	2023-03-11T00:00:00	2024-11-06T18:00:00	3	Temperatura mínima	13.6
58900	7	Sololá	701	Sololá	3	Barraneche	11	Noviembre	2023-03-11T00:00:00	2024-11-06T18:00:00	5	Humedad	58
58901	7	Sololá	701	Sololá	3	Barraneche	11	Noviembre	2023-03-11T00:00:00	2024-11-06T18:00:00	6	Velocidad del viento	27.4
58902	7	Sololá	701	Sololá	3	Barraneche	11	Noviembre	2023-03-11T00:00:00	2024-11-06T18:00:00	7	Dirección del viento	27.36
58903	7	Sololá	701	Sololá	3	Barraneche	11	Noviembre	2023-03-11T00:00:00	2024-11-06T18:00:00	1	Precipitación	0
58904	7	Sololá	701	Sololá	3	Barraneche	11	Noviembre	2023-03-11T00:00:00	2024-11-06T18:00:00	8	Radiación solar	18
58905	7	Sololá	701	Sololá	3	Barraneche	11	Noviembre	2023-03-11T00:00:00	2024-11-06T19:00:00	2	Temperatura media	13.8
58906	7	Sololá	701	Sololá	3	Barraneche	11	Noviembre	2023-03-11T00:00:00	2024-11-06T19:00:00	4	Temperatura máxima	14
58907	7	Sololá	701	Sololá	3	Barraneche	11	Noviembre	2023-03-11T00:00:00	2024-11-06T19:00:00	3	Temperatura mínima	13.7
58908	7	Sololá	701	Sololá	3	Barraneche	11	Noviembre	2023-03-11T00:00:00	2024-11-06T19:00:00	5	Humedad	59
58909	7	Sololá	701	Sololá	3	Barraneche	11	Noviembre	2023-03-11T00:00:00	2024-11-06T19:00:00	6	Velocidad del viento	30.6
58910	7	Sololá	701	Sololá	3	Barraneche	11	Noviembre	2023-03-11T00:00:00	2024-11-06T19:00:00	7	Dirección del viento	30.58
58911	7	Sololá	701	Sololá	3	Barraneche	11	Noviembre	2023-03-11T00:00:00	2024-11-06T19:00:00	1	Precipitación	0
58912	7	Sololá	701	Sololá	3	Barraneche	11	Noviembre	2023-03-11T00:00:00	2024-11-06T19:00:00	8	Radiación solar	0
58913	7	Sololá	701	Sololá	3	Barraneche	11	Noviembre	2023-03-11T00:00:00	2024-11-06T20:00:00	2	Temperatura media	14.8
58914	7	Sololá	701	Sololá	3	Barraneche	11	Noviembre	2023-03-11T00:00:00	2024-11-06T20:00:00	4	Temperatura máxima	14.8
58915	7	Sololá	701	Sololá	3	Barraneche	11	Noviembre	2023-03-11T00:00:00	2024-11-06T20:00:00	3	Temperatura mínima	13.6
58916	7	Sololá	701	Sololá	3	Barraneche	11	Noviembre	2023-03-11T00:00:00	2024-11-06T20:00:00	5	Humedad	56
58917	7	Sololá	701	Sololá	3	Barraneche	11	Noviembre	2023-03-11T00:00:00	2024-11-06T20:00:00	6	Velocidad del viento	27.4
58918	7	Sololá	701	Sololá	3	Barraneche	11	Noviembre	2023-03-11T00:00:00	2024-11-06T20:00:00	7	Dirección del viento	27.36
58919	7	Sololá	701	Sololá	3	Barraneche	11	Noviembre	2023-03-11T00:00:00	2024-11-06T20:00:00	1	Precipitación	0
58920	7	Sololá	701	Sololá	3	Barraneche	11	Noviembre	2023-03-11T00:00:00	2024-11-06T20:00:00	8	Radiación solar	0
58921	7	Sololá	701	Sololá	3	Barraneche	11	Noviembre	2023-03-11T00:00:00	2024-11-06T21:00:00	2	Temperatura media	14.3
58922	7	Sololá	701	Sololá	3	Barraneche	11	Noviembre	2023-03-11T00:00:00	2024-11-06T21:00:00	4	Temperatura máxima	14.8
58923	7	Sololá	701	Sololá	3	Barraneche	11	Noviembre	2023-03-11T00:00:00	2024-11-06T21:00:00	3	Temperatura mínima	14.2
58924	7	Sololá	701	Sololá	3	Barraneche	11	Noviembre	2023-03-11T00:00:00	2024-11-06T21:00:00	5	Humedad	60
58925	7	Sololá	701	Sololá	3	Barraneche	11	Noviembre	2023-03-11T00:00:00	2024-11-06T21:00:00	6	Velocidad del viento	29
58926	7	Sololá	701	Sololá	3	Barraneche	11	Noviembre	2023-03-11T00:00:00	2024-11-06T21:00:00	7	Dirección del viento	28.97
58927	7	Sololá	701	Sololá	3	Barraneche	11	Noviembre	2023-03-11T00:00:00	2024-11-06T21:00:00	1	Precipitación	0
58928	7	Sololá	701	Sololá	3	Barraneche	11	Noviembre	2023-03-11T00:00:00	2024-11-06T21:00:00	8	Radiación solar	0
58929	7	Sololá	701	Sololá	3	Barraneche	11	Noviembre	2023-03-11T00:00:00	2024-11-06T22:00:00	2	Temperatura media	12.9
58930	7	Sololá	701	Sololá	3	Barraneche	11	Noviembre	2023-03-11T00:00:00	2024-11-06T22:00:00	4	Temperatura máxima	14.3
58931	7	Sololá	701	Sololá	3	Barraneche	11	Noviembre	2023-03-11T00:00:00	2024-11-06T22:00:00	3	Temperatura mínima	12.9
58932	7	Sololá	701	Sololá	3	Barraneche	11	Noviembre	2023-03-11T00:00:00	2024-11-06T22:00:00	5	Humedad	67
58933	7	Sololá	701	Sololá	3	Barraneche	11	Noviembre	2023-03-11T00:00:00	2024-11-06T22:00:00	6	Velocidad del viento	24.1
58934	7	Sololá	701	Sololá	3	Barraneche	11	Noviembre	2023-03-11T00:00:00	2024-11-06T22:00:00	7	Dirección del viento	24.14
58935	7	Sololá	701	Sololá	3	Barraneche	11	Noviembre	2023-03-11T00:00:00	2024-11-06T22:00:00	1	Precipitación	0
58936	7	Sololá	701	Sololá	3	Barraneche	11	Noviembre	2023-03-11T00:00:00	2024-11-06T22:00:00	8	Radiación solar	0
58937	7	Sololá	701	Sololá	3	Barraneche	11	Noviembre	2023-03-11T00:00:00	2024-11-06T23:00:00	2	Temperatura media	13.7
58938	7	Sololá	701	Sololá	3	Barraneche	11	Noviembre	2023-03-11T00:00:00	2024-11-06T23:00:00	4	Temperatura máxima	14
58939	7	Sololá	701	Sololá	3	Barraneche	11	Noviembre	2023-03-11T00:00:00	2024-11-06T23:00:00	3	Temperatura mínima	12.9
58940	7	Sololá	701	Sololá	3	Barraneche	11	Noviembre	2023-03-11T00:00:00	2024-11-06T23:00:00	5	Humedad	66
58941	7	Sololá	701	Sololá	3	Barraneche	11	Noviembre	2023-03-11T00:00:00	2024-11-06T23:00:00	6	Velocidad del viento	22.5
58942	7	Sololá	701	Sololá	3	Barraneche	11	Noviembre	2023-03-11T00:00:00	2024-11-06T23:00:00	7	Dirección del viento	22.53
58943	7	Sololá	701	Sololá	3	Barraneche	11	Noviembre	2023-03-11T00:00:00	2024-11-06T23:00:00	1	Precipitación	0
58944	7	Sololá	701	Sololá	3	Barraneche	11	Noviembre	2023-03-11T00:00:00	2024-11-06T23:00:00	8	Radiación solar	0
58945	7	Sololá	701	Sololá	3	Barraneche	11	Noviembre	2023-04-11T00:00:00	2024-11-06T00:00:00	2	Temperatura media	14.4
58946	7	Sololá	701	Sololá	3	Barraneche	11	Noviembre	2023-04-11T00:00:00	2024-11-06T00:00:00	4	Temperatura máxima	14.8
58947	7	Sololá	701	Sololá	3	Barraneche	11	Noviembre	2023-04-11T00:00:00	2024-11-06T00:00:00	3	Temperatura mínima	13.7
58948	7	Sololá	701	Sololá	3	Barraneche	11	Noviembre	2023-04-11T00:00:00	2024-11-06T00:00:00	5	Humedad	64
58949	7	Sololá	701	Sololá	3	Barraneche	11	Noviembre	2023-04-11T00:00:00	2024-11-06T00:00:00	6	Velocidad del viento	20.9
58950	7	Sololá	701	Sololá	3	Barraneche	11	Noviembre	2023-04-11T00:00:00	2024-11-06T00:00:00	7	Dirección del viento	20.92
58951	7	Sololá	701	Sololá	3	Barraneche	11	Noviembre	2023-04-11T00:00:00	2024-11-06T00:00:00	1	Precipitación	0
58952	7	Sololá	701	Sololá	3	Barraneche	11	Noviembre	2023-04-11T00:00:00	2024-11-06T00:00:00	8	Radiación solar	0
58953	7	Sololá	701	Sololá	3	Barraneche	11	Noviembre	2023-04-11T00:00:00	2024-11-06T01:00:00	2	Temperatura media	14.3
58954	7	Sololá	701	Sololá	3	Barraneche	11	Noviembre	2023-04-11T00:00:00	2024-11-06T01:00:00	4	Temperatura máxima	14.4
58955	7	Sololá	701	Sololá	3	Barraneche	11	Noviembre	2023-04-11T00:00:00	2024-11-06T01:00:00	3	Temperatura mínima	13.9
58956	7	Sololá	701	Sololá	3	Barraneche	11	Noviembre	2023-04-11T00:00:00	2024-11-06T01:00:00	5	Humedad	65
58957	7	Sololá	701	Sololá	3	Barraneche	11	Noviembre	2023-04-11T00:00:00	2024-11-06T01:00:00	6	Velocidad del viento	25.7
58958	7	Sololá	701	Sololá	3	Barraneche	11	Noviembre	2023-04-11T00:00:00	2024-11-06T01:00:00	7	Dirección del viento	25.75
58959	7	Sololá	701	Sololá	3	Barraneche	11	Noviembre	2023-04-11T00:00:00	2024-11-06T01:00:00	1	Precipitación	0
58960	7	Sololá	701	Sololá	3	Barraneche	11	Noviembre	2023-04-11T00:00:00	2024-11-06T01:00:00	8	Radiación solar	0
58961	7	Sololá	701	Sololá	3	Barraneche	11	Noviembre	2023-04-11T00:00:00	2024-11-06T02:00:00	2	Temperatura media	14.4
58962	7	Sololá	701	Sololá	3	Barraneche	11	Noviembre	2023-04-11T00:00:00	2024-11-06T02:00:00	4	Temperatura máxima	14.4
58963	7	Sololá	701	Sololá	3	Barraneche	11	Noviembre	2023-04-11T00:00:00	2024-11-06T02:00:00	3	Temperatura mínima	14.1
58964	7	Sololá	701	Sololá	3	Barraneche	11	Noviembre	2023-04-11T00:00:00	2024-11-06T02:00:00	5	Humedad	63
58965	7	Sololá	701	Sololá	3	Barraneche	11	Noviembre	2023-04-11T00:00:00	2024-11-06T02:00:00	6	Velocidad del viento	16.1
58966	7	Sololá	701	Sololá	3	Barraneche	11	Noviembre	2023-04-11T00:00:00	2024-11-06T02:00:00	7	Dirección del viento	16.09
58967	7	Sololá	701	Sololá	3	Barraneche	11	Noviembre	2023-04-11T00:00:00	2024-11-06T02:00:00	1	Precipitación	0
58968	7	Sololá	701	Sololá	3	Barraneche	11	Noviembre	2023-04-11T00:00:00	2024-11-06T02:00:00	8	Radiación solar	0
58969	7	Sololá	701	Sololá	3	Barraneche	11	Noviembre	2023-04-11T00:00:00	2024-11-06T03:00:00	2	Temperatura media	13.8
58970	7	Sololá	701	Sololá	3	Barraneche	11	Noviembre	2023-04-11T00:00:00	2024-11-06T03:00:00	4	Temperatura máxima	14.4
58971	7	Sololá	701	Sololá	3	Barraneche	11	Noviembre	2023-04-11T00:00:00	2024-11-06T03:00:00	3	Temperatura mínima	13.5
58972	7	Sololá	701	Sololá	3	Barraneche	11	Noviembre	2023-04-11T00:00:00	2024-11-06T03:00:00	5	Humedad	67
58973	7	Sololá	701	Sololá	3	Barraneche	11	Noviembre	2023-04-11T00:00:00	2024-11-06T03:00:00	6	Velocidad del viento	16.1
58974	7	Sololá	701	Sololá	3	Barraneche	11	Noviembre	2023-04-11T00:00:00	2024-11-06T03:00:00	7	Dirección del viento	16.09
58975	7	Sololá	701	Sololá	3	Barraneche	11	Noviembre	2023-04-11T00:00:00	2024-11-06T03:00:00	1	Precipitación	0
58976	7	Sololá	701	Sololá	3	Barraneche	11	Noviembre	2023-04-11T00:00:00	2024-11-06T03:00:00	8	Radiación solar	0
58977	7	Sololá	701	Sololá	3	Barraneche	11	Noviembre	2023-04-11T00:00:00	2024-11-06T04:00:00	2	Temperatura media	14.4
58978	7	Sololá	701	Sololá	3	Barraneche	11	Noviembre	2023-04-11T00:00:00	2024-11-06T04:00:00	4	Temperatura máxima	14.4
58979	7	Sololá	701	Sololá	3	Barraneche	11	Noviembre	2023-04-11T00:00:00	2024-11-06T04:00:00	3	Temperatura mínima	13.8
58980	7	Sololá	701	Sololá	3	Barraneche	11	Noviembre	2023-04-11T00:00:00	2024-11-06T04:00:00	5	Humedad	64
58981	7	Sololá	701	Sololá	3	Barraneche	11	Noviembre	2023-04-11T00:00:00	2024-11-06T04:00:00	6	Velocidad del viento	22.5
58982	7	Sololá	701	Sololá	3	Barraneche	11	Noviembre	2023-04-11T00:00:00	2024-11-06T04:00:00	7	Dirección del viento	22.53
58983	7	Sololá	701	Sololá	3	Barraneche	11	Noviembre	2023-04-11T00:00:00	2024-11-06T04:00:00	1	Precipitación	0
58984	7	Sololá	701	Sololá	3	Barraneche	11	Noviembre	2023-04-11T00:00:00	2024-11-06T04:00:00	8	Radiación solar	0
58985	7	Sololá	701	Sololá	3	Barraneche	11	Noviembre	2023-04-11T00:00:00	2024-11-06T05:00:00	2	Temperatura media	13.9
58986	7	Sololá	701	Sololá	3	Barraneche	11	Noviembre	2023-04-11T00:00:00	2024-11-06T05:00:00	4	Temperatura máxima	14.4
58987	7	Sololá	701	Sololá	3	Barraneche	11	Noviembre	2023-04-11T00:00:00	2024-11-06T05:00:00	3	Temperatura mínima	13.9
58988	7	Sololá	701	Sololá	3	Barraneche	11	Noviembre	2023-04-11T00:00:00	2024-11-06T05:00:00	5	Humedad	68
58989	7	Sololá	701	Sololá	3	Barraneche	11	Noviembre	2023-04-11T00:00:00	2024-11-06T05:00:00	6	Velocidad del viento	19.3
58990	7	Sololá	701	Sololá	3	Barraneche	11	Noviembre	2023-04-11T00:00:00	2024-11-06T05:00:00	7	Dirección del viento	19.31
58991	7	Sololá	701	Sololá	3	Barraneche	11	Noviembre	2023-04-11T00:00:00	2024-11-06T05:00:00	1	Precipitación	0
58992	7	Sololá	701	Sololá	3	Barraneche	11	Noviembre	2023-04-11T00:00:00	2024-11-06T05:00:00	8	Radiación solar	0
58993	7	Sololá	701	Sololá	3	Barraneche	11	Noviembre	2023-04-11T00:00:00	2024-11-06T06:00:00	2	Temperatura media	14.2
58994	7	Sololá	701	Sololá	3	Barraneche	11	Noviembre	2023-04-11T00:00:00	2024-11-06T06:00:00	4	Temperatura máxima	14.2
58995	7	Sololá	701	Sololá	3	Barraneche	11	Noviembre	2023-04-11T00:00:00	2024-11-06T06:00:00	3	Temperatura mínima	13.8
58996	7	Sololá	701	Sololá	3	Barraneche	11	Noviembre	2023-04-11T00:00:00	2024-11-06T06:00:00	5	Humedad	67
58997	7	Sololá	701	Sololá	3	Barraneche	11	Noviembre	2023-04-11T00:00:00	2024-11-06T06:00:00	6	Velocidad del viento	30.6
58998	7	Sololá	701	Sololá	3	Barraneche	11	Noviembre	2023-04-11T00:00:00	2024-11-06T06:00:00	7	Dirección del viento	30.58
58999	7	Sololá	701	Sololá	3	Barraneche	11	Noviembre	2023-04-11T00:00:00	2024-11-06T06:00:00	1	Precipitación	0
59000	7	Sololá	701	Sololá	3	Barraneche	11	Noviembre	2023-04-11T00:00:00	2024-11-06T06:00:00	8	Radiación solar	0
59001	7	Sololá	701	Sololá	3	Barraneche	11	Noviembre	2023-04-11T00:00:00	2024-11-06T07:00:00	2	Temperatura media	15.3
59002	7	Sololá	701	Sololá	3	Barraneche	11	Noviembre	2023-04-11T00:00:00	2024-11-06T07:00:00	4	Temperatura máxima	15.3
59003	7	Sololá	701	Sololá	3	Barraneche	11	Noviembre	2023-04-11T00:00:00	2024-11-06T07:00:00	3	Temperatura mínima	14.1
59004	7	Sololá	701	Sololá	3	Barraneche	11	Noviembre	2023-04-11T00:00:00	2024-11-06T07:00:00	5	Humedad	64
59005	7	Sololá	701	Sololá	3	Barraneche	11	Noviembre	2023-04-11T00:00:00	2024-11-06T07:00:00	6	Velocidad del viento	19.3
59006	7	Sololá	701	Sololá	3	Barraneche	11	Noviembre	2023-04-11T00:00:00	2024-11-06T07:00:00	7	Dirección del viento	19.31
59007	7	Sololá	701	Sololá	3	Barraneche	11	Noviembre	2023-04-11T00:00:00	2024-11-06T07:00:00	1	Precipitación	0
59008	7	Sololá	701	Sololá	3	Barraneche	11	Noviembre	2023-04-11T00:00:00	2024-11-06T07:00:00	8	Radiación solar	63
59009	7	Sololá	701	Sololá	3	Barraneche	11	Noviembre	2023-04-11T00:00:00	2024-11-06T08:00:00	2	Temperatura media	14.8
59010	7	Sololá	701	Sololá	3	Barraneche	11	Noviembre	2023-04-11T00:00:00	2024-11-06T08:00:00	4	Temperatura máxima	15.4
59011	7	Sololá	701	Sololá	3	Barraneche	11	Noviembre	2023-04-11T00:00:00	2024-11-06T08:00:00	3	Temperatura mínima	14.6
59012	7	Sololá	701	Sololá	3	Barraneche	11	Noviembre	2023-04-11T00:00:00	2024-11-06T08:00:00	5	Humedad	68
59013	7	Sololá	701	Sololá	3	Barraneche	11	Noviembre	2023-04-11T00:00:00	2024-11-06T08:00:00	6	Velocidad del viento	19.3
59014	7	Sololá	701	Sololá	3	Barraneche	11	Noviembre	2023-04-11T00:00:00	2024-11-06T08:00:00	7	Dirección del viento	19.31
59015	7	Sololá	701	Sololá	3	Barraneche	11	Noviembre	2023-04-11T00:00:00	2024-11-06T08:00:00	1	Precipitación	0
59016	7	Sololá	701	Sololá	3	Barraneche	11	Noviembre	2023-04-11T00:00:00	2024-11-06T08:00:00	8	Radiación solar	145
59017	7	Sololá	701	Sololá	3	Barraneche	11	Noviembre	2023-04-11T00:00:00	2024-11-06T09:00:00	2	Temperatura media	15.3
59018	7	Sololá	701	Sololá	3	Barraneche	11	Noviembre	2023-04-11T00:00:00	2024-11-06T09:00:00	4	Temperatura máxima	15.8
59019	7	Sololá	701	Sololá	3	Barraneche	11	Noviembre	2023-04-11T00:00:00	2024-11-06T09:00:00	3	Temperatura mínima	14.9
59020	7	Sololá	701	Sololá	3	Barraneche	11	Noviembre	2023-04-11T00:00:00	2024-11-06T09:00:00	5	Humedad	66
59021	7	Sololá	701	Sololá	3	Barraneche	11	Noviembre	2023-04-11T00:00:00	2024-11-06T09:00:00	6	Velocidad del viento	17.7
59022	7	Sololá	701	Sololá	3	Barraneche	11	Noviembre	2023-04-11T00:00:00	2024-11-06T09:00:00	7	Dirección del viento	17.7
59023	7	Sololá	701	Sololá	3	Barraneche	11	Noviembre	2023-04-11T00:00:00	2024-11-06T09:00:00	1	Precipitación	0
59024	7	Sololá	701	Sololá	3	Barraneche	11	Noviembre	2023-04-11T00:00:00	2024-11-06T09:00:00	8	Radiación solar	287
59025	7	Sololá	701	Sololá	3	Barraneche	11	Noviembre	2023-04-11T00:00:00	2024-11-06T10:00:00	2	Temperatura media	15.1
59026	7	Sololá	701	Sololá	3	Barraneche	11	Noviembre	2023-04-11T00:00:00	2024-11-06T10:00:00	4	Temperatura máxima	15.6
59027	7	Sololá	701	Sololá	3	Barraneche	11	Noviembre	2023-04-11T00:00:00	2024-11-06T10:00:00	3	Temperatura mínima	15.1
59028	7	Sololá	701	Sololá	3	Barraneche	11	Noviembre	2023-04-11T00:00:00	2024-11-06T10:00:00	5	Humedad	70
59029	7	Sololá	701	Sololá	3	Barraneche	11	Noviembre	2023-04-11T00:00:00	2024-11-06T10:00:00	6	Velocidad del viento	14.5
59030	7	Sololá	701	Sololá	3	Barraneche	11	Noviembre	2023-04-11T00:00:00	2024-11-06T10:00:00	7	Dirección del viento	14.48
59031	7	Sololá	701	Sololá	3	Barraneche	11	Noviembre	2023-04-11T00:00:00	2024-11-06T10:00:00	1	Precipitación	0
59032	7	Sololá	701	Sololá	3	Barraneche	11	Noviembre	2023-04-11T00:00:00	2024-11-06T10:00:00	8	Radiación solar	232
59033	7	Sololá	701	Sololá	3	Barraneche	11	Noviembre	2023-04-11T00:00:00	2024-11-06T11:00:00	2	Temperatura media	15.9
59034	7	Sololá	701	Sololá	3	Barraneche	11	Noviembre	2023-04-11T00:00:00	2024-11-06T11:00:00	4	Temperatura máxima	16.1
59035	7	Sololá	701	Sololá	3	Barraneche	11	Noviembre	2023-04-11T00:00:00	2024-11-06T11:00:00	3	Temperatura mínima	15
59036	7	Sololá	701	Sololá	3	Barraneche	11	Noviembre	2023-04-11T00:00:00	2024-11-06T11:00:00	5	Humedad	67
59037	7	Sololá	701	Sololá	3	Barraneche	11	Noviembre	2023-04-11T00:00:00	2024-11-06T11:00:00	6	Velocidad del viento	16.1
59038	7	Sololá	701	Sololá	3	Barraneche	11	Noviembre	2023-04-11T00:00:00	2024-11-06T11:00:00	7	Dirección del viento	16.09
59039	7	Sololá	701	Sololá	3	Barraneche	11	Noviembre	2023-04-11T00:00:00	2024-11-06T11:00:00	1	Precipitación	1
59040	7	Sololá	701	Sololá	3	Barraneche	11	Noviembre	2023-04-11T00:00:00	2024-11-06T11:00:00	8	Radiación solar	322
59041	7	Sololá	701	Sololá	3	Barraneche	11	Noviembre	2023-04-11T00:00:00	2024-11-06T12:00:00	2	Temperatura media	16.8
59042	7	Sololá	701	Sololá	3	Barraneche	11	Noviembre	2023-04-11T00:00:00	2024-11-06T12:00:00	4	Temperatura máxima	17
59043	7	Sololá	701	Sololá	3	Barraneche	11	Noviembre	2023-04-11T00:00:00	2024-11-06T12:00:00	3	Temperatura mínima	15.9
59044	7	Sololá	701	Sololá	3	Barraneche	11	Noviembre	2023-04-11T00:00:00	2024-11-06T12:00:00	5	Humedad	64
59045	7	Sololá	701	Sololá	3	Barraneche	11	Noviembre	2023-04-11T00:00:00	2024-11-06T12:00:00	6	Velocidad del viento	12.9
59046	7	Sololá	701	Sololá	3	Barraneche	11	Noviembre	2023-04-11T00:00:00	2024-11-06T12:00:00	7	Dirección del viento	12.87
59047	7	Sololá	701	Sololá	3	Barraneche	11	Noviembre	2023-04-11T00:00:00	2024-11-06T12:00:00	1	Precipitación	0
59048	7	Sololá	701	Sololá	3	Barraneche	11	Noviembre	2023-04-11T00:00:00	2024-11-06T12:00:00	8	Radiación solar	399
59049	7	Sololá	701	Sololá	3	Barraneche	11	Noviembre	2023-04-11T00:00:00	2024-11-06T13:00:00	2	Temperatura media	15.9
59050	7	Sololá	701	Sololá	3	Barraneche	11	Noviembre	2023-04-11T00:00:00	2024-11-06T13:00:00	4	Temperatura máxima	16.8
59051	7	Sololá	701	Sololá	3	Barraneche	11	Noviembre	2023-04-11T00:00:00	2024-11-06T13:00:00	3	Temperatura mínima	15.8
59052	7	Sololá	701	Sololá	3	Barraneche	11	Noviembre	2023-04-11T00:00:00	2024-11-06T13:00:00	5	Humedad	70
59053	7	Sololá	701	Sololá	3	Barraneche	11	Noviembre	2023-04-11T00:00:00	2024-11-06T13:00:00	6	Velocidad del viento	11.3
59054	7	Sololá	701	Sololá	3	Barraneche	11	Noviembre	2023-04-11T00:00:00	2024-11-06T13:00:00	7	Dirección del viento	11.27
59055	7	Sololá	701	Sololá	3	Barraneche	11	Noviembre	2023-04-11T00:00:00	2024-11-06T13:00:00	1	Precipitación	1.6
59056	7	Sololá	701	Sololá	3	Barraneche	11	Noviembre	2023-04-11T00:00:00	2024-11-06T13:00:00	8	Radiación solar	419
59057	7	Sololá	701	Sololá	3	Barraneche	11	Noviembre	2023-04-11T00:00:00	2024-11-06T14:00:00	2	Temperatura media	15.2
59058	7	Sololá	701	Sololá	3	Barraneche	11	Noviembre	2023-04-11T00:00:00	2024-11-06T14:00:00	4	Temperatura máxima	16.1
59059	7	Sololá	701	Sololá	3	Barraneche	11	Noviembre	2023-04-11T00:00:00	2024-11-06T14:00:00	3	Temperatura mínima	15.2
59060	7	Sololá	701	Sololá	3	Barraneche	11	Noviembre	2023-04-11T00:00:00	2024-11-06T14:00:00	5	Humedad	69
59061	7	Sololá	701	Sololá	3	Barraneche	11	Noviembre	2023-04-11T00:00:00	2024-11-06T14:00:00	6	Velocidad del viento	17.7
59062	7	Sololá	701	Sololá	3	Barraneche	11	Noviembre	2023-04-11T00:00:00	2024-11-06T14:00:00	7	Dirección del viento	17.7
59063	7	Sololá	701	Sololá	3	Barraneche	11	Noviembre	2023-04-11T00:00:00	2024-11-06T14:00:00	1	Precipitación	2
59064	7	Sololá	701	Sololá	3	Barraneche	11	Noviembre	2023-04-11T00:00:00	2024-11-06T14:00:00	8	Radiación solar	344
59065	7	Sololá	701	Sololá	3	Barraneche	11	Noviembre	2023-04-11T00:00:00	2024-11-06T15:00:00	2	Temperatura media	14.9
59066	7	Sololá	701	Sololá	3	Barraneche	11	Noviembre	2023-04-11T00:00:00	2024-11-06T15:00:00	4	Temperatura máxima	15.1
59067	7	Sololá	701	Sololá	3	Barraneche	11	Noviembre	2023-04-11T00:00:00	2024-11-06T15:00:00	3	Temperatura mínima	14.4
59068	7	Sololá	701	Sololá	3	Barraneche	11	Noviembre	2023-04-11T00:00:00	2024-11-06T15:00:00	5	Humedad	68
59069	7	Sololá	701	Sololá	3	Barraneche	11	Noviembre	2023-04-11T00:00:00	2024-11-06T15:00:00	6	Velocidad del viento	19.3
59070	7	Sololá	701	Sololá	3	Barraneche	11	Noviembre	2023-04-11T00:00:00	2024-11-06T15:00:00	7	Dirección del viento	19.31
59071	7	Sololá	701	Sololá	3	Barraneche	11	Noviembre	2023-04-11T00:00:00	2024-11-06T15:00:00	1	Precipitación	1.4
59072	7	Sololá	701	Sololá	3	Barraneche	11	Noviembre	2023-04-11T00:00:00	2024-11-06T15:00:00	8	Radiación solar	271
59073	7	Sololá	701	Sololá	3	Barraneche	11	Noviembre	2023-04-11T00:00:00	2024-11-06T16:00:00	2	Temperatura media	14.3
59074	7	Sololá	701	Sololá	3	Barraneche	11	Noviembre	2023-04-11T00:00:00	2024-11-06T16:00:00	4	Temperatura máxima	15.1
59075	7	Sololá	701	Sololá	3	Barraneche	11	Noviembre	2023-04-11T00:00:00	2024-11-06T16:00:00	3	Temperatura mínima	14.3
59076	7	Sololá	701	Sololá	3	Barraneche	11	Noviembre	2023-04-11T00:00:00	2024-11-06T16:00:00	5	Humedad	70
59077	7	Sololá	701	Sololá	3	Barraneche	11	Noviembre	2023-04-11T00:00:00	2024-11-06T16:00:00	6	Velocidad del viento	11.3
59078	7	Sololá	701	Sololá	3	Barraneche	11	Noviembre	2023-04-11T00:00:00	2024-11-06T16:00:00	7	Dirección del viento	11.27
59079	7	Sololá	701	Sololá	3	Barraneche	11	Noviembre	2023-04-11T00:00:00	2024-11-06T16:00:00	1	Precipitación	0.2
59080	7	Sololá	701	Sololá	3	Barraneche	11	Noviembre	2023-04-11T00:00:00	2024-11-06T16:00:00	8	Radiación solar	122
59081	7	Sololá	701	Sololá	3	Barraneche	11	Noviembre	2023-04-11T00:00:00	2024-11-06T17:00:00	2	Temperatura media	14.3
59082	7	Sololá	701	Sololá	3	Barraneche	11	Noviembre	2023-04-11T00:00:00	2024-11-06T17:00:00	4	Temperatura máxima	14.5
59083	7	Sololá	701	Sololá	3	Barraneche	11	Noviembre	2023-04-11T00:00:00	2024-11-06T17:00:00	3	Temperatura mínima	14.2
59084	7	Sololá	701	Sololá	3	Barraneche	11	Noviembre	2023-04-11T00:00:00	2024-11-06T17:00:00	5	Humedad	70
59085	7	Sololá	701	Sololá	3	Barraneche	11	Noviembre	2023-04-11T00:00:00	2024-11-06T17:00:00	6	Velocidad del viento	12.9
59086	7	Sololá	701	Sololá	3	Barraneche	11	Noviembre	2023-04-11T00:00:00	2024-11-06T17:00:00	7	Dirección del viento	12.87
59087	7	Sololá	701	Sololá	3	Barraneche	11	Noviembre	2023-04-11T00:00:00	2024-11-06T17:00:00	1	Precipitación	0.4
59088	7	Sololá	701	Sololá	3	Barraneche	11	Noviembre	2023-04-11T00:00:00	2024-11-06T17:00:00	8	Radiación solar	66
59089	7	Sololá	701	Sololá	3	Barraneche	11	Noviembre	2023-04-11T00:00:00	2024-11-06T18:00:00	2	Temperatura media	14.5
59090	7	Sololá	701	Sololá	3	Barraneche	11	Noviembre	2023-04-11T00:00:00	2024-11-06T18:00:00	4	Temperatura máxima	14.6
59091	7	Sololá	701	Sololá	3	Barraneche	11	Noviembre	2023-04-11T00:00:00	2024-11-06T18:00:00	3	Temperatura mínima	14.2
59092	7	Sololá	701	Sololá	3	Barraneche	11	Noviembre	2023-04-11T00:00:00	2024-11-06T18:00:00	5	Humedad	69
59093	7	Sololá	701	Sololá	3	Barraneche	11	Noviembre	2023-04-11T00:00:00	2024-11-06T18:00:00	6	Velocidad del viento	17.7
59094	7	Sololá	701	Sololá	3	Barraneche	11	Noviembre	2023-04-11T00:00:00	2024-11-06T18:00:00	7	Dirección del viento	17.7
59095	7	Sololá	701	Sololá	3	Barraneche	11	Noviembre	2023-04-11T00:00:00	2024-11-06T18:00:00	1	Precipitación	0.2
59096	7	Sololá	701	Sololá	3	Barraneche	11	Noviembre	2023-04-11T00:00:00	2024-11-06T18:00:00	8	Radiación solar	7
59097	7	Sololá	701	Sololá	3	Barraneche	11	Noviembre	2023-04-11T00:00:00	2024-11-06T19:00:00	2	Temperatura media	14.3
59098	7	Sololá	701	Sololá	3	Barraneche	11	Noviembre	2023-04-11T00:00:00	2024-11-06T19:00:00	4	Temperatura máxima	14.5
59099	7	Sololá	701	Sololá	3	Barraneche	11	Noviembre	2023-04-11T00:00:00	2024-11-06T19:00:00	3	Temperatura mínima	14.3
59100	7	Sololá	701	Sololá	3	Barraneche	11	Noviembre	2023-04-11T00:00:00	2024-11-06T19:00:00	5	Humedad	70
59101	7	Sololá	701	Sololá	3	Barraneche	11	Noviembre	2023-04-11T00:00:00	2024-11-06T19:00:00	6	Velocidad del viento	19.3
59102	7	Sololá	701	Sololá	3	Barraneche	11	Noviembre	2023-04-11T00:00:00	2024-11-06T19:00:00	7	Dirección del viento	19.31
59103	7	Sololá	701	Sololá	3	Barraneche	11	Noviembre	2023-04-11T00:00:00	2024-11-06T19:00:00	1	Precipitación	0
59104	7	Sololá	701	Sololá	3	Barraneche	11	Noviembre	2023-04-11T00:00:00	2024-11-06T19:00:00	8	Radiación solar	0
59105	7	Sololá	701	Sololá	3	Barraneche	11	Noviembre	2023-04-11T00:00:00	2024-11-06T20:00:00	2	Temperatura media	14.5
59106	7	Sololá	701	Sololá	3	Barraneche	11	Noviembre	2023-04-11T00:00:00	2024-11-06T20:00:00	4	Temperatura máxima	14.6
59107	7	Sololá	701	Sololá	3	Barraneche	11	Noviembre	2023-04-11T00:00:00	2024-11-06T20:00:00	3	Temperatura mínima	13.9
59108	7	Sololá	701	Sololá	3	Barraneche	11	Noviembre	2023-04-11T00:00:00	2024-11-06T20:00:00	5	Humedad	69
59109	7	Sololá	701	Sololá	3	Barraneche	11	Noviembre	2023-04-11T00:00:00	2024-11-06T20:00:00	6	Velocidad del viento	17.7
59110	7	Sololá	701	Sololá	3	Barraneche	11	Noviembre	2023-04-11T00:00:00	2024-11-06T20:00:00	7	Dirección del viento	17.7
59111	7	Sololá	701	Sololá	3	Barraneche	11	Noviembre	2023-04-11T00:00:00	2024-11-06T20:00:00	1	Precipitación	0.2
59112	7	Sololá	701	Sololá	3	Barraneche	11	Noviembre	2023-04-11T00:00:00	2024-11-06T20:00:00	8	Radiación solar	0
59113	7	Sololá	701	Sololá	3	Barraneche	11	Noviembre	2023-04-11T00:00:00	2024-11-06T21:00:00	2	Temperatura media	14.1
59114	7	Sololá	701	Sololá	3	Barraneche	11	Noviembre	2023-04-11T00:00:00	2024-11-06T21:00:00	4	Temperatura máxima	14.6
59115	7	Sololá	701	Sololá	3	Barraneche	11	Noviembre	2023-04-11T00:00:00	2024-11-06T21:00:00	3	Temperatura mínima	13.9
59116	7	Sololá	701	Sololá	3	Barraneche	11	Noviembre	2023-04-11T00:00:00	2024-11-06T21:00:00	5	Humedad	71
59117	7	Sololá	701	Sololá	3	Barraneche	11	Noviembre	2023-04-11T00:00:00	2024-11-06T21:00:00	6	Velocidad del viento	16.1
59118	7	Sololá	701	Sololá	3	Barraneche	11	Noviembre	2023-04-11T00:00:00	2024-11-06T21:00:00	7	Dirección del viento	16.09
59119	7	Sololá	701	Sololá	3	Barraneche	11	Noviembre	2023-04-11T00:00:00	2024-11-06T21:00:00	1	Precipitación	1
59120	7	Sololá	701	Sololá	3	Barraneche	11	Noviembre	2023-04-11T00:00:00	2024-11-06T21:00:00	8	Radiación solar	0
59121	7	Sololá	701	Sololá	3	Barraneche	11	Noviembre	2023-04-11T00:00:00	2024-11-06T22:00:00	2	Temperatura media	14.1
59122	7	Sololá	701	Sololá	3	Barraneche	11	Noviembre	2023-04-11T00:00:00	2024-11-06T22:00:00	4	Temperatura máxima	14.3
59123	7	Sololá	701	Sololá	3	Barraneche	11	Noviembre	2023-04-11T00:00:00	2024-11-06T22:00:00	3	Temperatura mínima	13.9
59124	7	Sololá	701	Sololá	3	Barraneche	11	Noviembre	2023-04-11T00:00:00	2024-11-06T22:00:00	5	Humedad	70
59125	7	Sololá	701	Sololá	3	Barraneche	11	Noviembre	2023-04-11T00:00:00	2024-11-06T22:00:00	6	Velocidad del viento	14.5
59126	7	Sololá	701	Sololá	3	Barraneche	11	Noviembre	2023-04-11T00:00:00	2024-11-06T22:00:00	7	Dirección del viento	14.48
59127	7	Sololá	701	Sololá	3	Barraneche	11	Noviembre	2023-04-11T00:00:00	2024-11-06T22:00:00	1	Precipitación	0.4
59128	7	Sololá	701	Sololá	3	Barraneche	11	Noviembre	2023-04-11T00:00:00	2024-11-06T22:00:00	8	Radiación solar	0
59129	7	Sololá	701	Sololá	3	Barraneche	11	Noviembre	2023-04-11T00:00:00	2024-11-06T23:00:00	2	Temperatura media	14.1
59130	7	Sololá	701	Sololá	3	Barraneche	11	Noviembre	2023-04-11T00:00:00	2024-11-06T23:00:00	4	Temperatura máxima	14.3
59131	7	Sololá	701	Sololá	3	Barraneche	11	Noviembre	2023-04-11T00:00:00	2024-11-06T23:00:00	3	Temperatura mínima	13.7
59132	7	Sololá	701	Sololá	3	Barraneche	11	Noviembre	2023-04-11T00:00:00	2024-11-06T23:00:00	5	Humedad	69
59133	7	Sololá	701	Sololá	3	Barraneche	11	Noviembre	2023-04-11T00:00:00	2024-11-06T23:00:00	6	Velocidad del viento	16.1
59134	7	Sololá	701	Sololá	3	Barraneche	11	Noviembre	2023-04-11T00:00:00	2024-11-06T23:00:00	7	Dirección del viento	16.09
59135	7	Sololá	701	Sololá	3	Barraneche	11	Noviembre	2023-04-11T00:00:00	2024-11-06T23:00:00	1	Precipitación	1.2
59136	7	Sololá	701	Sololá	3	Barraneche	11	Noviembre	2023-04-11T00:00:00	2024-11-06T23:00:00	8	Radiación solar	0
59137	7	Sololá	701	Sololá	3	Barraneche	11	Noviembre	2023-05-11T00:00:00	2024-11-06T00:00:00	2	Temperatura media	13.9
59138	7	Sololá	701	Sololá	3	Barraneche	11	Noviembre	2023-05-11T00:00:00	2024-11-06T00:00:00	4	Temperatura máxima	14.3
59139	7	Sololá	701	Sololá	3	Barraneche	11	Noviembre	2023-05-11T00:00:00	2024-11-06T00:00:00	3	Temperatura mínima	13.9
59140	7	Sololá	701	Sololá	3	Barraneche	11	Noviembre	2023-05-11T00:00:00	2024-11-06T00:00:00	5	Humedad	68
59141	7	Sololá	701	Sololá	3	Barraneche	11	Noviembre	2023-05-11T00:00:00	2024-11-06T00:00:00	6	Velocidad del viento	24.1
59142	7	Sololá	701	Sololá	3	Barraneche	11	Noviembre	2023-05-11T00:00:00	2024-11-06T00:00:00	7	Dirección del viento	24.14
59143	7	Sololá	701	Sololá	3	Barraneche	11	Noviembre	2023-05-11T00:00:00	2024-11-06T00:00:00	1	Precipitación	0
59144	7	Sololá	701	Sololá	3	Barraneche	11	Noviembre	2023-05-11T00:00:00	2024-11-06T00:00:00	8	Radiación solar	0
59145	7	Sololá	701	Sololá	3	Barraneche	11	Noviembre	2023-05-11T00:00:00	2024-11-06T01:00:00	2	Temperatura media	14.1
59146	7	Sololá	701	Sololá	3	Barraneche	11	Noviembre	2023-05-11T00:00:00	2024-11-06T01:00:00	4	Temperatura máxima	14.2
59147	7	Sololá	701	Sololá	3	Barraneche	11	Noviembre	2023-05-11T00:00:00	2024-11-06T01:00:00	3	Temperatura mínima	13.8
59148	7	Sololá	701	Sololá	3	Barraneche	11	Noviembre	2023-05-11T00:00:00	2024-11-06T01:00:00	5	Humedad	67
59149	7	Sololá	701	Sololá	3	Barraneche	11	Noviembre	2023-05-11T00:00:00	2024-11-06T01:00:00	6	Velocidad del viento	19.3
59150	7	Sololá	701	Sololá	3	Barraneche	11	Noviembre	2023-05-11T00:00:00	2024-11-06T01:00:00	7	Dirección del viento	19.31
59151	7	Sololá	701	Sololá	3	Barraneche	11	Noviembre	2023-05-11T00:00:00	2024-11-06T01:00:00	1	Precipitación	0
59152	7	Sololá	701	Sololá	3	Barraneche	11	Noviembre	2023-05-11T00:00:00	2024-11-06T01:00:00	8	Radiación solar	0
59153	7	Sololá	701	Sololá	3	Barraneche	11	Noviembre	2023-05-11T00:00:00	2024-11-06T02:00:00	2	Temperatura media	14.2
59154	7	Sololá	701	Sololá	3	Barraneche	11	Noviembre	2023-05-11T00:00:00	2024-11-06T02:00:00	4	Temperatura máxima	14.2
59155	7	Sololá	701	Sololá	3	Barraneche	11	Noviembre	2023-05-11T00:00:00	2024-11-06T02:00:00	3	Temperatura mínima	13.9
59156	7	Sololá	701	Sololá	3	Barraneche	11	Noviembre	2023-05-11T00:00:00	2024-11-06T02:00:00	5	Humedad	68
59157	7	Sololá	701	Sololá	3	Barraneche	11	Noviembre	2023-05-11T00:00:00	2024-11-06T02:00:00	6	Velocidad del viento	17.7
59158	7	Sololá	701	Sololá	3	Barraneche	11	Noviembre	2023-05-11T00:00:00	2024-11-06T02:00:00	7	Dirección del viento	17.7
59159	7	Sololá	701	Sololá	3	Barraneche	11	Noviembre	2023-05-11T00:00:00	2024-11-06T02:00:00	1	Precipitación	0
59160	7	Sololá	701	Sololá	3	Barraneche	11	Noviembre	2023-05-11T00:00:00	2024-11-06T02:00:00	8	Radiación solar	0
59161	7	Sololá	701	Sololá	3	Barraneche	11	Noviembre	2023-05-11T00:00:00	2024-11-06T03:00:00	2	Temperatura media	14.8
59162	7	Sololá	701	Sololá	3	Barraneche	11	Noviembre	2023-05-11T00:00:00	2024-11-06T03:00:00	4	Temperatura máxima	14.9
59163	7	Sololá	701	Sololá	3	Barraneche	11	Noviembre	2023-05-11T00:00:00	2024-11-06T03:00:00	3	Temperatura mínima	14.1
59164	7	Sololá	701	Sololá	3	Barraneche	11	Noviembre	2023-05-11T00:00:00	2024-11-06T03:00:00	5	Humedad	66
59165	7	Sololá	701	Sololá	3	Barraneche	11	Noviembre	2023-05-11T00:00:00	2024-11-06T03:00:00	6	Velocidad del viento	22.5
59166	7	Sololá	701	Sololá	3	Barraneche	11	Noviembre	2023-05-11T00:00:00	2024-11-06T03:00:00	7	Dirección del viento	22.53
59167	7	Sololá	701	Sololá	3	Barraneche	11	Noviembre	2023-05-11T00:00:00	2024-11-06T03:00:00	1	Precipitación	0
59168	7	Sololá	701	Sololá	3	Barraneche	11	Noviembre	2023-05-11T00:00:00	2024-11-06T03:00:00	8	Radiación solar	0
59169	7	Sololá	701	Sololá	3	Barraneche	11	Noviembre	2023-05-11T00:00:00	2024-11-06T04:00:00	2	Temperatura media	13.9
59170	7	Sololá	701	Sololá	3	Barraneche	11	Noviembre	2023-05-11T00:00:00	2024-11-06T04:00:00	4	Temperatura máxima	15
59171	7	Sololá	701	Sololá	3	Barraneche	11	Noviembre	2023-05-11T00:00:00	2024-11-06T04:00:00	3	Temperatura mínima	13.9
59172	7	Sololá	701	Sololá	3	Barraneche	11	Noviembre	2023-05-11T00:00:00	2024-11-06T04:00:00	5	Humedad	70
59173	7	Sololá	701	Sololá	3	Barraneche	11	Noviembre	2023-05-11T00:00:00	2024-11-06T04:00:00	6	Velocidad del viento	19.3
59174	7	Sololá	701	Sololá	3	Barraneche	11	Noviembre	2023-05-11T00:00:00	2024-11-06T04:00:00	7	Dirección del viento	19.31
59175	7	Sololá	701	Sololá	3	Barraneche	11	Noviembre	2023-05-11T00:00:00	2024-11-06T04:00:00	1	Precipitación	0.4
59176	7	Sololá	701	Sololá	3	Barraneche	11	Noviembre	2023-05-11T00:00:00	2024-11-06T04:00:00	8	Radiación solar	0
59177	7	Sololá	701	Sololá	3	Barraneche	11	Noviembre	2023-05-11T00:00:00	2024-11-06T05:00:00	2	Temperatura media	14.2
59178	7	Sololá	701	Sololá	3	Barraneche	11	Noviembre	2023-05-11T00:00:00	2024-11-06T05:00:00	4	Temperatura máxima	14.6
59179	7	Sololá	701	Sololá	3	Barraneche	11	Noviembre	2023-05-11T00:00:00	2024-11-06T05:00:00	3	Temperatura mínima	13.9
59180	7	Sololá	701	Sololá	3	Barraneche	11	Noviembre	2023-05-11T00:00:00	2024-11-06T05:00:00	5	Humedad	70
59181	7	Sololá	701	Sololá	3	Barraneche	11	Noviembre	2023-05-11T00:00:00	2024-11-06T05:00:00	6	Velocidad del viento	17.7
59182	7	Sololá	701	Sololá	3	Barraneche	11	Noviembre	2023-05-11T00:00:00	2024-11-06T05:00:00	7	Dirección del viento	17.7
59183	7	Sololá	701	Sololá	3	Barraneche	11	Noviembre	2023-05-11T00:00:00	2024-11-06T05:00:00	1	Precipitación	0.6
59184	7	Sololá	701	Sololá	3	Barraneche	11	Noviembre	2023-05-11T00:00:00	2024-11-06T05:00:00	8	Radiación solar	0
59185	7	Sololá	701	Sololá	3	Barraneche	11	Noviembre	2023-05-11T00:00:00	2024-11-06T06:00:00	2	Temperatura media	14.8
59186	7	Sololá	701	Sololá	3	Barraneche	11	Noviembre	2023-05-11T00:00:00	2024-11-06T06:00:00	4	Temperatura máxima	14.8
59187	7	Sololá	701	Sololá	3	Barraneche	11	Noviembre	2023-05-11T00:00:00	2024-11-06T06:00:00	3	Temperatura mínima	14.1
59188	7	Sololá	701	Sololá	3	Barraneche	11	Noviembre	2023-05-11T00:00:00	2024-11-06T06:00:00	5	Humedad	67
59189	7	Sololá	701	Sololá	3	Barraneche	11	Noviembre	2023-05-11T00:00:00	2024-11-06T06:00:00	6	Velocidad del viento	17.7
59190	7	Sololá	701	Sololá	3	Barraneche	11	Noviembre	2023-05-11T00:00:00	2024-11-06T06:00:00	7	Dirección del viento	17.7
59191	7	Sololá	701	Sololá	3	Barraneche	11	Noviembre	2023-05-11T00:00:00	2024-11-06T06:00:00	1	Precipitación	0
59192	7	Sololá	701	Sololá	3	Barraneche	11	Noviembre	2023-05-11T00:00:00	2024-11-06T06:00:00	8	Radiación solar	0
59193	7	Sololá	701	Sololá	3	Barraneche	11	Noviembre	2023-05-11T00:00:00	2024-11-06T07:00:00	2	Temperatura media	15.4
59194	7	Sololá	701	Sololá	3	Barraneche	11	Noviembre	2023-05-11T00:00:00	2024-11-06T07:00:00	4	Temperatura máxima	15.4
59195	7	Sololá	701	Sololá	3	Barraneche	11	Noviembre	2023-05-11T00:00:00	2024-11-06T07:00:00	3	Temperatura mínima	14.7
59196	7	Sololá	701	Sololá	3	Barraneche	11	Noviembre	2023-05-11T00:00:00	2024-11-06T07:00:00	5	Humedad	64
59197	7	Sololá	701	Sololá	3	Barraneche	11	Noviembre	2023-05-11T00:00:00	2024-11-06T07:00:00	6	Velocidad del viento	16.1
59198	7	Sololá	701	Sololá	3	Barraneche	11	Noviembre	2023-05-11T00:00:00	2024-11-06T07:00:00	7	Dirección del viento	16.09
59199	7	Sololá	701	Sololá	3	Barraneche	11	Noviembre	2023-05-11T00:00:00	2024-11-06T07:00:00	1	Precipitación	0
59200	7	Sololá	701	Sololá	3	Barraneche	11	Noviembre	2023-05-11T00:00:00	2024-11-06T07:00:00	8	Radiación solar	40
59201	7	Sololá	701	Sololá	3	Barraneche	11	Noviembre	2023-05-11T00:00:00	2024-11-06T08:00:00	2	Temperatura media	15.2
59202	7	Sololá	701	Sololá	3	Barraneche	11	Noviembre	2023-05-11T00:00:00	2024-11-06T08:00:00	4	Temperatura máxima	15.5
59203	7	Sololá	701	Sololá	3	Barraneche	11	Noviembre	2023-05-11T00:00:00	2024-11-06T08:00:00	3	Temperatura mínima	14.8
59204	7	Sololá	701	Sololá	3	Barraneche	11	Noviembre	2023-05-11T00:00:00	2024-11-06T08:00:00	5	Humedad	67
59205	7	Sololá	701	Sololá	3	Barraneche	11	Noviembre	2023-05-11T00:00:00	2024-11-06T08:00:00	6	Velocidad del viento	14.5
59206	7	Sololá	701	Sololá	3	Barraneche	11	Noviembre	2023-05-11T00:00:00	2024-11-06T08:00:00	7	Dirección del viento	14.48
59207	7	Sololá	701	Sololá	3	Barraneche	11	Noviembre	2023-05-11T00:00:00	2024-11-06T08:00:00	1	Precipitación	0
59208	7	Sololá	701	Sololá	3	Barraneche	11	Noviembre	2023-05-11T00:00:00	2024-11-06T08:00:00	8	Radiación solar	113
59209	7	Sololá	701	Sololá	3	Barraneche	11	Noviembre	2023-05-11T00:00:00	2024-11-06T09:00:00	2	Temperatura media	14.9
59210	7	Sololá	701	Sololá	3	Barraneche	11	Noviembre	2023-05-11T00:00:00	2024-11-06T09:00:00	4	Temperatura máxima	15.2
59211	7	Sololá	701	Sololá	3	Barraneche	11	Noviembre	2023-05-11T00:00:00	2024-11-06T09:00:00	3	Temperatura mínima	14.8
59212	7	Sololá	701	Sololá	3	Barraneche	11	Noviembre	2023-05-11T00:00:00	2024-11-06T09:00:00	5	Humedad	71
59213	7	Sololá	701	Sololá	3	Barraneche	11	Noviembre	2023-05-11T00:00:00	2024-11-06T09:00:00	6	Velocidad del viento	17.7
59214	7	Sololá	701	Sololá	3	Barraneche	11	Noviembre	2023-05-11T00:00:00	2024-11-06T09:00:00	7	Dirección del viento	17.7
59215	7	Sololá	701	Sololá	3	Barraneche	11	Noviembre	2023-05-11T00:00:00	2024-11-06T09:00:00	1	Precipitación	0
59216	7	Sololá	701	Sololá	3	Barraneche	11	Noviembre	2023-05-11T00:00:00	2024-11-06T09:00:00	8	Radiación solar	245
59217	7	Sololá	701	Sololá	3	Barraneche	11	Noviembre	2023-05-11T00:00:00	2024-11-06T10:00:00	2	Temperatura media	16.1
59218	7	Sololá	701	Sololá	3	Barraneche	11	Noviembre	2023-05-11T00:00:00	2024-11-06T10:00:00	4	Temperatura máxima	16.2
59219	7	Sololá	701	Sololá	3	Barraneche	11	Noviembre	2023-05-11T00:00:00	2024-11-06T10:00:00	3	Temperatura mínima	14.9
59220	7	Sololá	701	Sololá	3	Barraneche	11	Noviembre	2023-05-11T00:00:00	2024-11-06T10:00:00	5	Humedad	67
59221	7	Sololá	701	Sololá	3	Barraneche	11	Noviembre	2023-05-11T00:00:00	2024-11-06T10:00:00	6	Velocidad del viento	12.9
59222	7	Sololá	701	Sololá	3	Barraneche	11	Noviembre	2023-05-11T00:00:00	2024-11-06T10:00:00	7	Dirección del viento	12.87
59223	7	Sololá	701	Sololá	3	Barraneche	11	Noviembre	2023-05-11T00:00:00	2024-11-06T10:00:00	1	Precipitación	0.6
59224	7	Sololá	701	Sololá	3	Barraneche	11	Noviembre	2023-05-11T00:00:00	2024-11-06T10:00:00	8	Radiación solar	331
59225	7	Sololá	701	Sololá	3	Barraneche	11	Noviembre	2023-05-11T00:00:00	2024-11-06T11:00:00	2	Temperatura media	15.8
59226	7	Sololá	701	Sololá	3	Barraneche	11	Noviembre	2023-05-11T00:00:00	2024-11-06T11:00:00	4	Temperatura máxima	16.2
59227	7	Sololá	701	Sololá	3	Barraneche	11	Noviembre	2023-05-11T00:00:00	2024-11-06T11:00:00	3	Temperatura mínima	15.7
59228	7	Sololá	701	Sololá	3	Barraneche	11	Noviembre	2023-05-11T00:00:00	2024-11-06T11:00:00	5	Humedad	68
59229	7	Sololá	701	Sololá	3	Barraneche	11	Noviembre	2023-05-11T00:00:00	2024-11-06T11:00:00	6	Velocidad del viento	19.3
59230	7	Sololá	701	Sololá	3	Barraneche	11	Noviembre	2023-05-11T00:00:00	2024-11-06T11:00:00	7	Dirección del viento	19.31
59231	7	Sololá	701	Sololá	3	Barraneche	11	Noviembre	2023-05-11T00:00:00	2024-11-06T11:00:00	1	Precipitación	0
59232	7	Sololá	701	Sololá	3	Barraneche	11	Noviembre	2023-05-11T00:00:00	2024-11-06T11:00:00	8	Radiación solar	401
59233	7	Sololá	701	Sololá	3	Barraneche	11	Noviembre	2023-05-11T00:00:00	2024-11-06T12:00:00	2	Temperatura media	15.9
59234	7	Sololá	701	Sololá	3	Barraneche	11	Noviembre	2023-05-11T00:00:00	2024-11-06T12:00:00	4	Temperatura máxima	16.8
59235	7	Sololá	701	Sololá	3	Barraneche	11	Noviembre	2023-05-11T00:00:00	2024-11-06T12:00:00	3	Temperatura mínima	15.8
59236	7	Sololá	701	Sololá	3	Barraneche	11	Noviembre	2023-05-11T00:00:00	2024-11-06T12:00:00	5	Humedad	67
59237	7	Sololá	701	Sololá	3	Barraneche	11	Noviembre	2023-05-11T00:00:00	2024-11-06T12:00:00	6	Velocidad del viento	19.3
59238	7	Sololá	701	Sololá	3	Barraneche	11	Noviembre	2023-05-11T00:00:00	2024-11-06T12:00:00	7	Dirección del viento	19.31
59239	7	Sololá	701	Sololá	3	Barraneche	11	Noviembre	2023-05-11T00:00:00	2024-11-06T12:00:00	1	Precipitación	0.2
59240	7	Sololá	701	Sololá	3	Barraneche	11	Noviembre	2023-05-11T00:00:00	2024-11-06T12:00:00	8	Radiación solar	379
59241	7	Sololá	701	Sololá	3	Barraneche	11	Noviembre	2023-05-11T00:00:00	2024-11-06T13:00:00	2	Temperatura media	16.3
59242	7	Sololá	701	Sololá	3	Barraneche	11	Noviembre	2023-05-11T00:00:00	2024-11-06T13:00:00	4	Temperatura máxima	16.3
59243	7	Sololá	701	Sololá	3	Barraneche	11	Noviembre	2023-05-11T00:00:00	2024-11-06T13:00:00	3	Temperatura mínima	15.6
59244	7	Sololá	701	Sololá	3	Barraneche	11	Noviembre	2023-05-11T00:00:00	2024-11-06T13:00:00	5	Humedad	65
59245	7	Sololá	701	Sololá	3	Barraneche	11	Noviembre	2023-05-11T00:00:00	2024-11-06T13:00:00	6	Velocidad del viento	22.5
59246	7	Sololá	701	Sololá	3	Barraneche	11	Noviembre	2023-05-11T00:00:00	2024-11-06T13:00:00	7	Dirección del viento	22.53
59247	7	Sololá	701	Sololá	3	Barraneche	11	Noviembre	2023-05-11T00:00:00	2024-11-06T13:00:00	1	Precipitación	0.2
59248	7	Sololá	701	Sololá	3	Barraneche	11	Noviembre	2023-05-11T00:00:00	2024-11-06T13:00:00	8	Radiación solar	351
59249	7	Sololá	701	Sololá	3	Barraneche	11	Noviembre	2023-05-11T00:00:00	2024-11-06T14:00:00	2	Temperatura media	16.3
59250	7	Sololá	701	Sololá	3	Barraneche	11	Noviembre	2023-05-11T00:00:00	2024-11-06T14:00:00	4	Temperatura máxima	16.6
59251	7	Sololá	701	Sololá	3	Barraneche	11	Noviembre	2023-05-11T00:00:00	2024-11-06T14:00:00	3	Temperatura mínima	16.2
59252	7	Sololá	701	Sololá	3	Barraneche	11	Noviembre	2023-05-11T00:00:00	2024-11-06T14:00:00	5	Humedad	64
59253	7	Sololá	701	Sololá	3	Barraneche	11	Noviembre	2023-05-11T00:00:00	2024-11-06T14:00:00	6	Velocidad del viento	19.3
59254	7	Sololá	701	Sololá	3	Barraneche	11	Noviembre	2023-05-11T00:00:00	2024-11-06T14:00:00	7	Dirección del viento	19.31
59255	7	Sololá	701	Sololá	3	Barraneche	11	Noviembre	2023-05-11T00:00:00	2024-11-06T14:00:00	1	Precipitación	0
59256	7	Sololá	701	Sololá	3	Barraneche	11	Noviembre	2023-05-11T00:00:00	2024-11-06T14:00:00	8	Radiación solar	319
59257	7	Sololá	701	Sololá	3	Barraneche	11	Noviembre	2023-05-11T00:00:00	2024-11-06T15:00:00	2	Temperatura media	17.2
59258	7	Sololá	701	Sololá	3	Barraneche	11	Noviembre	2023-05-11T00:00:00	2024-11-06T15:00:00	4	Temperatura máxima	17.9
59259	7	Sololá	701	Sololá	3	Barraneche	11	Noviembre	2023-05-11T00:00:00	2024-11-06T15:00:00	3	Temperatura mínima	16.3
59260	7	Sololá	701	Sololá	3	Barraneche	11	Noviembre	2023-05-11T00:00:00	2024-11-06T15:00:00	5	Humedad	66
59261	7	Sololá	701	Sololá	3	Barraneche	11	Noviembre	2023-05-11T00:00:00	2024-11-06T15:00:00	6	Velocidad del viento	9.7
59262	7	Sololá	701	Sololá	3	Barraneche	11	Noviembre	2023-05-11T00:00:00	2024-11-06T15:00:00	7	Dirección del viento	9.66
59263	7	Sololá	701	Sololá	3	Barraneche	11	Noviembre	2023-05-11T00:00:00	2024-11-06T15:00:00	1	Precipitación	0
59264	7	Sololá	701	Sololá	3	Barraneche	11	Noviembre	2023-05-11T00:00:00	2024-11-06T15:00:00	8	Radiación solar	328
59265	7	Sololá	701	Sololá	3	Barraneche	11	Noviembre	2023-05-11T00:00:00	2024-11-06T16:00:00	2	Temperatura media	15.6
59266	7	Sololá	701	Sololá	3	Barraneche	11	Noviembre	2023-05-11T00:00:00	2024-11-06T16:00:00	4	Temperatura máxima	17.2
59267	7	Sololá	701	Sololá	3	Barraneche	11	Noviembre	2023-05-11T00:00:00	2024-11-06T16:00:00	3	Temperatura mínima	15.5
59268	7	Sololá	701	Sololá	3	Barraneche	11	Noviembre	2023-05-11T00:00:00	2024-11-06T16:00:00	5	Humedad	68
59269	7	Sololá	701	Sololá	3	Barraneche	11	Noviembre	2023-05-11T00:00:00	2024-11-06T16:00:00	6	Velocidad del viento	16.1
59270	7	Sololá	701	Sololá	3	Barraneche	11	Noviembre	2023-05-11T00:00:00	2024-11-06T16:00:00	7	Dirección del viento	16.09
59271	7	Sololá	701	Sololá	3	Barraneche	11	Noviembre	2023-05-11T00:00:00	2024-11-06T16:00:00	1	Precipitación	0.6
59272	7	Sololá	701	Sololá	3	Barraneche	11	Noviembre	2023-05-11T00:00:00	2024-11-06T16:00:00	8	Radiación solar	139
59273	7	Sololá	701	Sololá	3	Barraneche	11	Noviembre	2023-05-11T00:00:00	2024-11-06T17:00:00	2	Temperatura media	15.3
59274	7	Sololá	701	Sololá	3	Barraneche	11	Noviembre	2023-05-11T00:00:00	2024-11-06T17:00:00	4	Temperatura máxima	15.7
59275	7	Sololá	701	Sololá	3	Barraneche	11	Noviembre	2023-05-11T00:00:00	2024-11-06T17:00:00	3	Temperatura mínima	15.2
59276	7	Sololá	701	Sololá	3	Barraneche	11	Noviembre	2023-05-11T00:00:00	2024-11-06T17:00:00	5	Humedad	69
59277	7	Sololá	701	Sololá	3	Barraneche	11	Noviembre	2023-05-11T00:00:00	2024-11-06T17:00:00	6	Velocidad del viento	12.9
59278	7	Sololá	701	Sololá	3	Barraneche	11	Noviembre	2023-05-11T00:00:00	2024-11-06T17:00:00	7	Dirección del viento	12.87
59279	7	Sololá	701	Sololá	3	Barraneche	11	Noviembre	2023-05-11T00:00:00	2024-11-06T17:00:00	1	Precipitación	0.4
59280	7	Sololá	701	Sololá	3	Barraneche	11	Noviembre	2023-05-11T00:00:00	2024-11-06T17:00:00	8	Radiación solar	68
59281	7	Sololá	701	Sololá	3	Barraneche	11	Noviembre	2023-05-11T00:00:00	2024-11-06T18:00:00	2	Temperatura media	15.2
59282	7	Sololá	701	Sololá	3	Barraneche	11	Noviembre	2023-05-11T00:00:00	2024-11-06T18:00:00	4	Temperatura máxima	15.3
59283	7	Sololá	701	Sololá	3	Barraneche	11	Noviembre	2023-05-11T00:00:00	2024-11-06T18:00:00	3	Temperatura mínima	15
59284	7	Sololá	701	Sololá	3	Barraneche	11	Noviembre	2023-05-11T00:00:00	2024-11-06T18:00:00	5	Humedad	69
59285	7	Sololá	701	Sololá	3	Barraneche	11	Noviembre	2023-05-11T00:00:00	2024-11-06T18:00:00	6	Velocidad del viento	14.5
59286	7	Sololá	701	Sololá	3	Barraneche	11	Noviembre	2023-05-11T00:00:00	2024-11-06T18:00:00	7	Dirección del viento	14.48
59287	7	Sololá	701	Sololá	3	Barraneche	11	Noviembre	2023-05-11T00:00:00	2024-11-06T18:00:00	1	Precipitación	0
59288	7	Sololá	701	Sololá	3	Barraneche	11	Noviembre	2023-05-11T00:00:00	2024-11-06T18:00:00	8	Radiación solar	14
59289	7	Sololá	701	Sololá	3	Barraneche	11	Noviembre	2023-05-11T00:00:00	2024-11-06T19:00:00	2	Temperatura media	14.7
59290	7	Sololá	701	Sololá	3	Barraneche	11	Noviembre	2023-05-11T00:00:00	2024-11-06T19:00:00	4	Temperatura máxima	15.3
59291	7	Sololá	701	Sololá	3	Barraneche	11	Noviembre	2023-05-11T00:00:00	2024-11-06T19:00:00	3	Temperatura mínima	14.4
59292	7	Sololá	701	Sololá	3	Barraneche	11	Noviembre	2023-05-11T00:00:00	2024-11-06T19:00:00	5	Humedad	70
59293	7	Sololá	701	Sololá	3	Barraneche	11	Noviembre	2023-05-11T00:00:00	2024-11-06T19:00:00	6	Velocidad del viento	9.7
59294	7	Sololá	701	Sololá	3	Barraneche	11	Noviembre	2023-05-11T00:00:00	2024-11-06T19:00:00	7	Dirección del viento	9.66
59295	7	Sololá	701	Sololá	3	Barraneche	11	Noviembre	2023-05-11T00:00:00	2024-11-06T19:00:00	1	Precipitación	1.4
59296	7	Sololá	701	Sololá	3	Barraneche	11	Noviembre	2023-05-11T00:00:00	2024-11-06T19:00:00	8	Radiación solar	0
59297	7	Sololá	701	Sololá	3	Barraneche	11	Noviembre	2023-05-11T00:00:00	2024-11-06T20:00:00	2	Temperatura media	14.7
59298	7	Sololá	701	Sololá	3	Barraneche	11	Noviembre	2023-05-11T00:00:00	2024-11-06T20:00:00	4	Temperatura máxima	15
59299	7	Sololá	701	Sololá	3	Barraneche	11	Noviembre	2023-05-11T00:00:00	2024-11-06T20:00:00	3	Temperatura mínima	14.3
59300	7	Sololá	701	Sololá	3	Barraneche	11	Noviembre	2023-05-11T00:00:00	2024-11-06T20:00:00	5	Humedad	69
59301	7	Sololá	701	Sololá	3	Barraneche	11	Noviembre	2023-05-11T00:00:00	2024-11-06T20:00:00	6	Velocidad del viento	9.7
59302	7	Sololá	701	Sololá	3	Barraneche	11	Noviembre	2023-05-11T00:00:00	2024-11-06T20:00:00	7	Dirección del viento	9.66
59303	7	Sololá	701	Sololá	3	Barraneche	11	Noviembre	2023-05-11T00:00:00	2024-11-06T20:00:00	1	Precipitación	1
59304	7	Sololá	701	Sololá	3	Barraneche	11	Noviembre	2023-05-11T00:00:00	2024-11-06T20:00:00	8	Radiación solar	0
59305	7	Sololá	701	Sololá	3	Barraneche	11	Noviembre	2023-05-11T00:00:00	2024-11-06T21:00:00	2	Temperatura media	14.5
59306	7	Sololá	701	Sololá	3	Barraneche	11	Noviembre	2023-05-11T00:00:00	2024-11-06T21:00:00	4	Temperatura máxima	14.9
59307	7	Sololá	701	Sololá	3	Barraneche	11	Noviembre	2023-05-11T00:00:00	2024-11-06T21:00:00	3	Temperatura mínima	14.5
59308	7	Sololá	701	Sololá	3	Barraneche	11	Noviembre	2023-05-11T00:00:00	2024-11-06T21:00:00	5	Humedad	70
59309	7	Sololá	701	Sololá	3	Barraneche	11	Noviembre	2023-05-11T00:00:00	2024-11-06T21:00:00	6	Velocidad del viento	16.1
59310	7	Sololá	701	Sololá	3	Barraneche	11	Noviembre	2023-05-11T00:00:00	2024-11-06T21:00:00	7	Dirección del viento	16.09
59311	7	Sololá	701	Sololá	3	Barraneche	11	Noviembre	2023-05-11T00:00:00	2024-11-06T21:00:00	1	Precipitación	1.4
59312	7	Sololá	701	Sololá	3	Barraneche	11	Noviembre	2023-05-11T00:00:00	2024-11-06T21:00:00	8	Radiación solar	0
59313	7	Sololá	701	Sololá	3	Barraneche	11	Noviembre	2023-05-11T00:00:00	2024-11-06T22:00:00	2	Temperatura media	13.8
59314	7	Sololá	701	Sololá	3	Barraneche	11	Noviembre	2023-05-11T00:00:00	2024-11-06T22:00:00	4	Temperatura máxima	14.6
59315	7	Sololá	701	Sololá	3	Barraneche	11	Noviembre	2023-05-11T00:00:00	2024-11-06T22:00:00	3	Temperatura mínima	13.8
59316	7	Sololá	701	Sololá	3	Barraneche	11	Noviembre	2023-05-11T00:00:00	2024-11-06T22:00:00	5	Humedad	70
59317	7	Sololá	701	Sololá	3	Barraneche	11	Noviembre	2023-05-11T00:00:00	2024-11-06T22:00:00	6	Velocidad del viento	16.1
59318	7	Sololá	701	Sololá	3	Barraneche	11	Noviembre	2023-05-11T00:00:00	2024-11-06T22:00:00	7	Dirección del viento	16.09
59319	7	Sololá	701	Sololá	3	Barraneche	11	Noviembre	2023-05-11T00:00:00	2024-11-06T22:00:00	1	Precipitación	0.8
59320	7	Sololá	701	Sololá	3	Barraneche	11	Noviembre	2023-05-11T00:00:00	2024-11-06T22:00:00	8	Radiación solar	0
59321	7	Sololá	701	Sololá	3	Barraneche	11	Noviembre	2023-05-11T00:00:00	2024-11-06T23:00:00	2	Temperatura media	14.3
59322	7	Sololá	701	Sololá	3	Barraneche	11	Noviembre	2023-05-11T00:00:00	2024-11-06T23:00:00	4	Temperatura máxima	14.5
59323	7	Sololá	701	Sololá	3	Barraneche	11	Noviembre	2023-05-11T00:00:00	2024-11-06T23:00:00	3	Temperatura mínima	13.8
59324	7	Sololá	701	Sololá	3	Barraneche	11	Noviembre	2023-05-11T00:00:00	2024-11-06T23:00:00	5	Humedad	69
59325	7	Sololá	701	Sololá	3	Barraneche	11	Noviembre	2023-05-11T00:00:00	2024-11-06T23:00:00	6	Velocidad del viento	19.3
59326	7	Sololá	701	Sololá	3	Barraneche	11	Noviembre	2023-05-11T00:00:00	2024-11-06T23:00:00	7	Dirección del viento	19.31
59327	7	Sololá	701	Sololá	3	Barraneche	11	Noviembre	2023-05-11T00:00:00	2024-11-06T23:00:00	1	Precipitación	1.8
59328	7	Sololá	701	Sololá	3	Barraneche	11	Noviembre	2023-05-11T00:00:00	2024-11-06T23:00:00	8	Radiación solar	0
59329	7	Sololá	701	Sololá	3	Barraneche	11	Noviembre	2023-06-11T00:00:00	2024-11-06T00:00:00	2	Temperatura media	14.2
59330	7	Sololá	701	Sololá	3	Barraneche	11	Noviembre	2023-06-11T00:00:00	2024-11-06T00:00:00	4	Temperatura máxima	14.3
59331	7	Sololá	701	Sololá	3	Barraneche	11	Noviembre	2023-06-11T00:00:00	2024-11-06T00:00:00	3	Temperatura mínima	13.9
59332	7	Sololá	701	Sololá	3	Barraneche	11	Noviembre	2023-06-11T00:00:00	2024-11-06T00:00:00	5	Humedad	70
59333	7	Sololá	701	Sololá	3	Barraneche	11	Noviembre	2023-06-11T00:00:00	2024-11-06T00:00:00	6	Velocidad del viento	16.1
59334	7	Sololá	701	Sololá	3	Barraneche	11	Noviembre	2023-06-11T00:00:00	2024-11-06T00:00:00	7	Dirección del viento	16.09
59335	7	Sololá	701	Sololá	3	Barraneche	11	Noviembre	2023-06-11T00:00:00	2024-11-06T00:00:00	1	Precipitación	0.2
59336	7	Sololá	701	Sololá	3	Barraneche	11	Noviembre	2023-06-11T00:00:00	2024-11-06T00:00:00	8	Radiación solar	0
59337	7	Sololá	701	Sololá	3	Barraneche	11	Noviembre	2023-06-11T00:00:00	2024-11-06T01:00:00	2	Temperatura media	14.3
59338	7	Sololá	701	Sololá	3	Barraneche	11	Noviembre	2023-06-11T00:00:00	2024-11-06T01:00:00	4	Temperatura máxima	14.3
59339	7	Sololá	701	Sololá	3	Barraneche	11	Noviembre	2023-06-11T00:00:00	2024-11-06T01:00:00	3	Temperatura mínima	13.9
59340	7	Sololá	701	Sololá	3	Barraneche	11	Noviembre	2023-06-11T00:00:00	2024-11-06T01:00:00	5	Humedad	69
59341	7	Sololá	701	Sololá	3	Barraneche	11	Noviembre	2023-06-11T00:00:00	2024-11-06T01:00:00	6	Velocidad del viento	17.7
59342	7	Sololá	701	Sololá	3	Barraneche	11	Noviembre	2023-06-11T00:00:00	2024-11-06T01:00:00	7	Dirección del viento	17.7
59343	7	Sololá	701	Sololá	3	Barraneche	11	Noviembre	2023-06-11T00:00:00	2024-11-06T01:00:00	1	Precipitación	0.4
59344	7	Sololá	701	Sololá	3	Barraneche	11	Noviembre	2023-06-11T00:00:00	2024-11-06T01:00:00	8	Radiación solar	0
59345	7	Sololá	701	Sololá	3	Barraneche	11	Noviembre	2023-06-11T00:00:00	2024-11-06T02:00:00	2	Temperatura media	14.3
59346	7	Sololá	701	Sololá	3	Barraneche	11	Noviembre	2023-06-11T00:00:00	2024-11-06T02:00:00	4	Temperatura máxima	14.8
59347	7	Sololá	701	Sololá	3	Barraneche	11	Noviembre	2023-06-11T00:00:00	2024-11-06T02:00:00	3	Temperatura mínima	14.1
59348	7	Sololá	701	Sololá	3	Barraneche	11	Noviembre	2023-06-11T00:00:00	2024-11-06T02:00:00	5	Humedad	70
59349	7	Sololá	701	Sololá	3	Barraneche	11	Noviembre	2023-06-11T00:00:00	2024-11-06T02:00:00	6	Velocidad del viento	19.3
59350	7	Sololá	701	Sololá	3	Barraneche	11	Noviembre	2023-06-11T00:00:00	2024-11-06T02:00:00	7	Dirección del viento	19.31
59351	7	Sololá	701	Sololá	3	Barraneche	11	Noviembre	2023-06-11T00:00:00	2024-11-06T02:00:00	1	Precipitación	0.2
59352	7	Sololá	701	Sololá	3	Barraneche	11	Noviembre	2023-06-11T00:00:00	2024-11-06T02:00:00	8	Radiación solar	0
59353	7	Sololá	701	Sololá	3	Barraneche	11	Noviembre	2023-06-11T00:00:00	2024-11-06T03:00:00	2	Temperatura media	14.1
59354	7	Sololá	701	Sololá	3	Barraneche	11	Noviembre	2023-06-11T00:00:00	2024-11-06T03:00:00	4	Temperatura máxima	14.3
59355	7	Sololá	701	Sololá	3	Barraneche	11	Noviembre	2023-06-11T00:00:00	2024-11-06T03:00:00	3	Temperatura mínima	13.9
59356	7	Sololá	701	Sololá	3	Barraneche	11	Noviembre	2023-06-11T00:00:00	2024-11-06T03:00:00	5	Humedad	69
59357	7	Sololá	701	Sololá	3	Barraneche	11	Noviembre	2023-06-11T00:00:00	2024-11-06T03:00:00	6	Velocidad del viento	16.1
59358	7	Sololá	701	Sololá	3	Barraneche	11	Noviembre	2023-06-11T00:00:00	2024-11-06T03:00:00	7	Dirección del viento	16.09
59359	7	Sololá	701	Sololá	3	Barraneche	11	Noviembre	2023-06-11T00:00:00	2024-11-06T03:00:00	1	Precipitación	0.6
59360	7	Sololá	701	Sololá	3	Barraneche	11	Noviembre	2023-06-11T00:00:00	2024-11-06T03:00:00	8	Radiación solar	0
59361	7	Sololá	701	Sololá	3	Barraneche	11	Noviembre	2023-06-11T00:00:00	2024-11-06T04:00:00	2	Temperatura media	14.4
59362	7	Sololá	701	Sololá	3	Barraneche	11	Noviembre	2023-06-11T00:00:00	2024-11-06T04:00:00	4	Temperatura máxima	14.6
59363	7	Sololá	701	Sololá	3	Barraneche	11	Noviembre	2023-06-11T00:00:00	2024-11-06T04:00:00	3	Temperatura mínima	14.1
59364	7	Sololá	701	Sololá	3	Barraneche	11	Noviembre	2023-06-11T00:00:00	2024-11-06T04:00:00	5	Humedad	70
59365	7	Sololá	701	Sololá	3	Barraneche	11	Noviembre	2023-06-11T00:00:00	2024-11-06T04:00:00	6	Velocidad del viento	16.1
59366	7	Sololá	701	Sololá	3	Barraneche	11	Noviembre	2023-06-11T00:00:00	2024-11-06T04:00:00	7	Dirección del viento	16.09
59367	7	Sololá	701	Sololá	3	Barraneche	11	Noviembre	2023-06-11T00:00:00	2024-11-06T04:00:00	1	Precipitación	0
59368	7	Sololá	701	Sololá	3	Barraneche	11	Noviembre	2023-06-11T00:00:00	2024-11-06T04:00:00	8	Radiación solar	0
59369	7	Sololá	701	Sololá	3	Barraneche	11	Noviembre	2023-06-11T00:00:00	2024-11-06T05:00:00	2	Temperatura media	14.2
59370	7	Sololá	701	Sololá	3	Barraneche	11	Noviembre	2023-06-11T00:00:00	2024-11-06T05:00:00	4	Temperatura máxima	14.4
59371	7	Sololá	701	Sololá	3	Barraneche	11	Noviembre	2023-06-11T00:00:00	2024-11-06T05:00:00	3	Temperatura mínima	14
59372	7	Sololá	701	Sololá	3	Barraneche	11	Noviembre	2023-06-11T00:00:00	2024-11-06T05:00:00	5	Humedad	71
59373	7	Sololá	701	Sololá	3	Barraneche	11	Noviembre	2023-06-11T00:00:00	2024-11-06T05:00:00	6	Velocidad del viento	11.3
59374	7	Sololá	701	Sololá	3	Barraneche	11	Noviembre	2023-06-11T00:00:00	2024-11-06T05:00:00	7	Dirección del viento	11.27
59375	7	Sololá	701	Sololá	3	Barraneche	11	Noviembre	2023-06-11T00:00:00	2024-11-06T05:00:00	1	Precipitación	0
59376	7	Sololá	701	Sololá	3	Barraneche	11	Noviembre	2023-06-11T00:00:00	2024-11-06T05:00:00	8	Radiación solar	0
59377	7	Sololá	701	Sololá	3	Barraneche	11	Noviembre	2023-06-11T00:00:00	2024-11-06T06:00:00	2	Temperatura media	14.1
59378	7	Sololá	701	Sololá	3	Barraneche	11	Noviembre	2023-06-11T00:00:00	2024-11-06T06:00:00	4	Temperatura máxima	14.3
59379	7	Sololá	701	Sololá	3	Barraneche	11	Noviembre	2023-06-11T00:00:00	2024-11-06T06:00:00	3	Temperatura mínima	13.9
59380	7	Sololá	701	Sololá	3	Barraneche	11	Noviembre	2023-06-11T00:00:00	2024-11-06T06:00:00	5	Humedad	71
59381	7	Sololá	701	Sololá	3	Barraneche	11	Noviembre	2023-06-11T00:00:00	2024-11-06T06:00:00	6	Velocidad del viento	9.7
59382	7	Sololá	701	Sololá	3	Barraneche	11	Noviembre	2023-06-11T00:00:00	2024-11-06T06:00:00	7	Dirección del viento	9.66
59383	7	Sololá	701	Sololá	3	Barraneche	11	Noviembre	2023-06-11T00:00:00	2024-11-06T06:00:00	1	Precipitación	0.6
59384	7	Sololá	701	Sololá	3	Barraneche	11	Noviembre	2023-06-11T00:00:00	2024-11-06T06:00:00	8	Radiación solar	0
59385	7	Sololá	701	Sololá	3	Barraneche	11	Noviembre	2023-06-11T00:00:00	2024-11-06T07:00:00	2	Temperatura media	14.3
59386	7	Sololá	701	Sololá	3	Barraneche	11	Noviembre	2023-06-11T00:00:00	2024-11-06T07:00:00	4	Temperatura máxima	14.3
59387	7	Sololá	701	Sololá	3	Barraneche	11	Noviembre	2023-06-11T00:00:00	2024-11-06T07:00:00	3	Temperatura mínima	14
59388	7	Sololá	701	Sololá	3	Barraneche	11	Noviembre	2023-06-11T00:00:00	2024-11-06T07:00:00	5	Humedad	70
59389	7	Sololá	701	Sololá	3	Barraneche	11	Noviembre	2023-06-11T00:00:00	2024-11-06T07:00:00	6	Velocidad del viento	11.3
59390	7	Sololá	701	Sololá	3	Barraneche	11	Noviembre	2023-06-11T00:00:00	2024-11-06T07:00:00	7	Dirección del viento	11.27
59391	7	Sololá	701	Sololá	3	Barraneche	11	Noviembre	2023-06-11T00:00:00	2024-11-06T07:00:00	1	Precipitación	0
59392	7	Sololá	701	Sololá	3	Barraneche	11	Noviembre	2023-06-11T00:00:00	2024-11-06T07:00:00	8	Radiación solar	28
59393	7	Sololá	701	Sololá	3	Barraneche	11	Noviembre	2023-06-11T00:00:00	2024-11-06T08:00:00	2	Temperatura media	14.8
59394	7	Sololá	701	Sololá	3	Barraneche	11	Noviembre	2023-06-11T00:00:00	2024-11-06T08:00:00	4	Temperatura máxima	14.8
59395	7	Sololá	701	Sololá	3	Barraneche	11	Noviembre	2023-06-11T00:00:00	2024-11-06T08:00:00	3	Temperatura mínima	14.1
59396	7	Sololá	701	Sololá	3	Barraneche	11	Noviembre	2023-06-11T00:00:00	2024-11-06T08:00:00	5	Humedad	67
59397	7	Sololá	701	Sololá	3	Barraneche	11	Noviembre	2023-06-11T00:00:00	2024-11-06T08:00:00	6	Velocidad del viento	14.5
59398	7	Sololá	701	Sololá	3	Barraneche	11	Noviembre	2023-06-11T00:00:00	2024-11-06T08:00:00	7	Dirección del viento	14.48
59399	7	Sololá	701	Sololá	3	Barraneche	11	Noviembre	2023-06-11T00:00:00	2024-11-06T08:00:00	1	Precipitación	0
59400	7	Sololá	701	Sololá	3	Barraneche	11	Noviembre	2023-06-11T00:00:00	2024-11-06T08:00:00	8	Radiación solar	101
59401	7	Sololá	701	Sololá	3	Barraneche	11	Noviembre	2023-06-11T00:00:00	2024-11-06T09:00:00	2	Temperatura media	15
59402	7	Sololá	701	Sololá	3	Barraneche	11	Noviembre	2023-06-11T00:00:00	2024-11-06T09:00:00	4	Temperatura máxima	15.1
59403	7	Sololá	701	Sololá	3	Barraneche	11	Noviembre	2023-06-11T00:00:00	2024-11-06T09:00:00	3	Temperatura mínima	14.6
59404	7	Sololá	701	Sololá	3	Barraneche	11	Noviembre	2023-06-11T00:00:00	2024-11-06T09:00:00	5	Humedad	67
59405	7	Sololá	701	Sololá	3	Barraneche	11	Noviembre	2023-06-11T00:00:00	2024-11-06T09:00:00	6	Velocidad del viento	19.3
59406	7	Sololá	701	Sololá	3	Barraneche	11	Noviembre	2023-06-11T00:00:00	2024-11-06T09:00:00	7	Dirección del viento	19.31
59407	7	Sololá	701	Sololá	3	Barraneche	11	Noviembre	2023-06-11T00:00:00	2024-11-06T09:00:00	1	Precipitación	0
59408	7	Sololá	701	Sololá	3	Barraneche	11	Noviembre	2023-06-11T00:00:00	2024-11-06T09:00:00	8	Radiación solar	146
59409	7	Sololá	701	Sololá	3	Barraneche	11	Noviembre	2023-06-11T00:00:00	2024-11-06T10:00:00	2	Temperatura media	15.7
59410	7	Sololá	701	Sololá	3	Barraneche	11	Noviembre	2023-06-11T00:00:00	2024-11-06T10:00:00	4	Temperatura máxima	15.7
59411	7	Sololá	701	Sololá	3	Barraneche	11	Noviembre	2023-06-11T00:00:00	2024-11-06T10:00:00	3	Temperatura mínima	14.9
59412	7	Sololá	701	Sololá	3	Barraneche	11	Noviembre	2023-06-11T00:00:00	2024-11-06T10:00:00	5	Humedad	68
59413	7	Sololá	701	Sololá	3	Barraneche	11	Noviembre	2023-06-11T00:00:00	2024-11-06T10:00:00	6	Velocidad del viento	16.1
59414	7	Sololá	701	Sololá	3	Barraneche	11	Noviembre	2023-06-11T00:00:00	2024-11-06T10:00:00	7	Dirección del viento	16.09
59415	7	Sololá	701	Sololá	3	Barraneche	11	Noviembre	2023-06-11T00:00:00	2024-11-06T10:00:00	1	Precipitación	0
59416	7	Sololá	701	Sololá	3	Barraneche	11	Noviembre	2023-06-11T00:00:00	2024-11-06T10:00:00	8	Radiación solar	320
59417	7	Sololá	701	Sololá	3	Barraneche	11	Noviembre	2023-06-11T00:00:00	2024-11-06T11:00:00	2	Temperatura media	16.3
59418	7	Sololá	701	Sololá	3	Barraneche	11	Noviembre	2023-06-11T00:00:00	2024-11-06T11:00:00	4	Temperatura máxima	17
59419	7	Sololá	701	Sololá	3	Barraneche	11	Noviembre	2023-06-11T00:00:00	2024-11-06T11:00:00	3	Temperatura mínima	15.8
59420	7	Sololá	701	Sololá	3	Barraneche	11	Noviembre	2023-06-11T00:00:00	2024-11-06T11:00:00	5	Humedad	68
59421	7	Sololá	701	Sololá	3	Barraneche	11	Noviembre	2023-06-11T00:00:00	2024-11-06T11:00:00	6	Velocidad del viento	16.1
59422	7	Sololá	701	Sololá	3	Barraneche	11	Noviembre	2023-06-11T00:00:00	2024-11-06T11:00:00	7	Dirección del viento	16.09
59423	7	Sololá	701	Sololá	3	Barraneche	11	Noviembre	2023-06-11T00:00:00	2024-11-06T11:00:00	1	Precipitación	0.2
59424	7	Sololá	701	Sololá	3	Barraneche	11	Noviembre	2023-06-11T00:00:00	2024-11-06T11:00:00	8	Radiación solar	469
59425	7	Sololá	701	Sololá	3	Barraneche	11	Noviembre	2023-06-11T00:00:00	2024-11-06T12:00:00	2	Temperatura media	16.6
59426	7	Sololá	701	Sololá	3	Barraneche	11	Noviembre	2023-06-11T00:00:00	2024-11-06T12:00:00	4	Temperatura máxima	16.8
59427	7	Sololá	701	Sololá	3	Barraneche	11	Noviembre	2023-06-11T00:00:00	2024-11-06T12:00:00	3	Temperatura mínima	15.7
59428	7	Sololá	701	Sololá	3	Barraneche	11	Noviembre	2023-06-11T00:00:00	2024-11-06T12:00:00	5	Humedad	64
59429	7	Sololá	701	Sololá	3	Barraneche	11	Noviembre	2023-06-11T00:00:00	2024-11-06T12:00:00	6	Velocidad del viento	12.9
59430	7	Sololá	701	Sololá	3	Barraneche	11	Noviembre	2023-06-11T00:00:00	2024-11-06T12:00:00	7	Dirección del viento	12.87
59431	7	Sololá	701	Sololá	3	Barraneche	11	Noviembre	2023-06-11T00:00:00	2024-11-06T12:00:00	1	Precipitación	0
59432	7	Sololá	701	Sololá	3	Barraneche	11	Noviembre	2023-06-11T00:00:00	2024-11-06T12:00:00	8	Radiación solar	394
59433	7	Sololá	701	Sololá	3	Barraneche	11	Noviembre	2023-06-11T00:00:00	2024-11-06T13:00:00	2	Temperatura media	16.5
59434	7	Sololá	701	Sololá	3	Barraneche	11	Noviembre	2023-06-11T00:00:00	2024-11-06T13:00:00	4	Temperatura máxima	16.8
59435	7	Sololá	701	Sololá	3	Barraneche	11	Noviembre	2023-06-11T00:00:00	2024-11-06T13:00:00	3	Temperatura mínima	16.1
59436	7	Sololá	701	Sololá	3	Barraneche	11	Noviembre	2023-06-11T00:00:00	2024-11-06T13:00:00	5	Humedad	67
59437	7	Sololá	701	Sololá	3	Barraneche	11	Noviembre	2023-06-11T00:00:00	2024-11-06T13:00:00	6	Velocidad del viento	11.3
59438	7	Sololá	701	Sololá	3	Barraneche	11	Noviembre	2023-06-11T00:00:00	2024-11-06T13:00:00	7	Dirección del viento	11.27
59439	7	Sololá	701	Sololá	3	Barraneche	11	Noviembre	2023-06-11T00:00:00	2024-11-06T13:00:00	1	Precipitación	0
59440	7	Sololá	701	Sololá	3	Barraneche	11	Noviembre	2023-06-11T00:00:00	2024-11-06T13:00:00	8	Radiación solar	287
59441	7	Sololá	701	Sololá	3	Barraneche	11	Noviembre	2023-06-11T00:00:00	2024-11-06T14:00:00	2	Temperatura media	17.1
59442	7	Sololá	701	Sololá	3	Barraneche	11	Noviembre	2023-06-11T00:00:00	2024-11-06T14:00:00	4	Temperatura máxima	17.1
59443	7	Sololá	701	Sololá	3	Barraneche	11	Noviembre	2023-06-11T00:00:00	2024-11-06T14:00:00	3	Temperatura mínima	16.3
59444	7	Sololá	701	Sololá	3	Barraneche	11	Noviembre	2023-06-11T00:00:00	2024-11-06T14:00:00	5	Humedad	65
59445	7	Sololá	701	Sololá	3	Barraneche	11	Noviembre	2023-06-11T00:00:00	2024-11-06T14:00:00	6	Velocidad del viento	8
59446	7	Sololá	701	Sololá	3	Barraneche	11	Noviembre	2023-06-11T00:00:00	2024-11-06T14:00:00	7	Dirección del viento	8.05
59447	7	Sololá	701	Sololá	3	Barraneche	11	Noviembre	2023-06-11T00:00:00	2024-11-06T14:00:00	1	Precipitación	0
59448	7	Sololá	701	Sololá	3	Barraneche	11	Noviembre	2023-06-11T00:00:00	2024-11-06T14:00:00	8	Radiación solar	279
59449	7	Sololá	701	Sololá	3	Barraneche	11	Noviembre	2023-06-11T00:00:00	2024-11-06T15:00:00	2	Temperatura media	17
59450	7	Sololá	701	Sololá	3	Barraneche	11	Noviembre	2023-06-11T00:00:00	2024-11-06T15:00:00	4	Temperatura máxima	17.2
59451	7	Sololá	701	Sololá	3	Barraneche	11	Noviembre	2023-06-11T00:00:00	2024-11-06T15:00:00	3	Temperatura mínima	16.7
59452	7	Sololá	701	Sololá	3	Barraneche	11	Noviembre	2023-06-11T00:00:00	2024-11-06T15:00:00	5	Humedad	63
59453	7	Sololá	701	Sololá	3	Barraneche	11	Noviembre	2023-06-11T00:00:00	2024-11-06T15:00:00	6	Velocidad del viento	11.3
59454	7	Sololá	701	Sololá	3	Barraneche	11	Noviembre	2023-06-11T00:00:00	2024-11-06T15:00:00	7	Dirección del viento	11.27
59455	7	Sololá	701	Sololá	3	Barraneche	11	Noviembre	2023-06-11T00:00:00	2024-11-06T15:00:00	1	Precipitación	0
59456	7	Sololá	701	Sololá	3	Barraneche	11	Noviembre	2023-06-11T00:00:00	2024-11-06T15:00:00	8	Radiación solar	339
59457	7	Sololá	701	Sololá	3	Barraneche	11	Noviembre	2023-06-11T00:00:00	2024-11-06T16:00:00	2	Temperatura media	16.7
59458	7	Sololá	701	Sololá	3	Barraneche	11	Noviembre	2023-06-11T00:00:00	2024-11-06T16:00:00	4	Temperatura máxima	17
59459	7	Sololá	701	Sololá	3	Barraneche	11	Noviembre	2023-06-11T00:00:00	2024-11-06T16:00:00	3	Temperatura mínima	16.3
59460	7	Sololá	701	Sololá	3	Barraneche	11	Noviembre	2023-06-11T00:00:00	2024-11-06T16:00:00	5	Humedad	64
59461	7	Sololá	701	Sololá	3	Barraneche	11	Noviembre	2023-06-11T00:00:00	2024-11-06T16:00:00	6	Velocidad del viento	11.3
59462	7	Sololá	701	Sololá	3	Barraneche	11	Noviembre	2023-06-11T00:00:00	2024-11-06T16:00:00	7	Dirección del viento	11.27
59463	7	Sololá	701	Sololá	3	Barraneche	11	Noviembre	2023-06-11T00:00:00	2024-11-06T16:00:00	1	Precipitación	0
59464	7	Sololá	701	Sololá	3	Barraneche	11	Noviembre	2023-06-11T00:00:00	2024-11-06T16:00:00	8	Radiación solar	184
59465	7	Sololá	701	Sololá	3	Barraneche	11	Noviembre	2023-06-11T00:00:00	2024-11-06T17:00:00	2	Temperatura media	15.2
59466	7	Sololá	701	Sololá	3	Barraneche	11	Noviembre	2023-06-11T00:00:00	2024-11-06T17:00:00	4	Temperatura máxima	16.7
59467	7	Sololá	701	Sololá	3	Barraneche	11	Noviembre	2023-06-11T00:00:00	2024-11-06T17:00:00	3	Temperatura mínima	15.2
59468	7	Sololá	701	Sololá	3	Barraneche	11	Noviembre	2023-06-11T00:00:00	2024-11-06T17:00:00	5	Humedad	69
59469	7	Sololá	701	Sololá	3	Barraneche	11	Noviembre	2023-06-11T00:00:00	2024-11-06T17:00:00	6	Velocidad del viento	12.9
59470	7	Sololá	701	Sololá	3	Barraneche	11	Noviembre	2023-06-11T00:00:00	2024-11-06T17:00:00	7	Dirección del viento	12.87
59471	7	Sololá	701	Sololá	3	Barraneche	11	Noviembre	2023-06-11T00:00:00	2024-11-06T17:00:00	1	Precipitación	0
59472	7	Sololá	701	Sololá	3	Barraneche	11	Noviembre	2023-06-11T00:00:00	2024-11-06T17:00:00	8	Radiación solar	47
59473	7	Sololá	701	Sololá	3	Barraneche	11	Noviembre	2023-06-11T00:00:00	2024-11-06T18:00:00	2	Temperatura media	15.1
59474	7	Sololá	701	Sololá	3	Barraneche	11	Noviembre	2023-06-11T00:00:00	2024-11-06T18:00:00	4	Temperatura máxima	15.3
59475	7	Sololá	701	Sololá	3	Barraneche	11	Noviembre	2023-06-11T00:00:00	2024-11-06T18:00:00	3	Temperatura mínima	15
59476	7	Sololá	701	Sololá	3	Barraneche	11	Noviembre	2023-06-11T00:00:00	2024-11-06T18:00:00	5	Humedad	69
59477	7	Sololá	701	Sololá	3	Barraneche	11	Noviembre	2023-06-11T00:00:00	2024-11-06T18:00:00	6	Velocidad del viento	11.3
59478	7	Sololá	701	Sololá	3	Barraneche	11	Noviembre	2023-06-11T00:00:00	2024-11-06T18:00:00	7	Dirección del viento	11.27
59479	7	Sololá	701	Sololá	3	Barraneche	11	Noviembre	2023-06-11T00:00:00	2024-11-06T18:00:00	1	Precipitación	0.2
59480	7	Sololá	701	Sololá	3	Barraneche	11	Noviembre	2023-06-11T00:00:00	2024-11-06T18:00:00	8	Radiación solar	2
59481	7	Sololá	701	Sololá	3	Barraneche	11	Noviembre	2023-06-11T00:00:00	2024-11-06T19:00:00	2	Temperatura media	15.3
59482	7	Sololá	701	Sololá	3	Barraneche	11	Noviembre	2023-06-11T00:00:00	2024-11-06T19:00:00	4	Temperatura máxima	15.5
59483	7	Sololá	701	Sololá	3	Barraneche	11	Noviembre	2023-06-11T00:00:00	2024-11-06T19:00:00	3	Temperatura mínima	15
59484	7	Sololá	701	Sololá	3	Barraneche	11	Noviembre	2023-06-11T00:00:00	2024-11-06T19:00:00	5	Humedad	67
59485	7	Sololá	701	Sololá	3	Barraneche	11	Noviembre	2023-06-11T00:00:00	2024-11-06T19:00:00	6	Velocidad del viento	9.7
59486	7	Sololá	701	Sololá	3	Barraneche	11	Noviembre	2023-06-11T00:00:00	2024-11-06T19:00:00	7	Dirección del viento	9.66
59487	7	Sololá	701	Sololá	3	Barraneche	11	Noviembre	2023-06-11T00:00:00	2024-11-06T19:00:00	1	Precipitación	0
59488	7	Sololá	701	Sololá	3	Barraneche	11	Noviembre	2023-06-11T00:00:00	2024-11-06T19:00:00	8	Radiación solar	0
59489	7	Sololá	701	Sololá	3	Barraneche	11	Noviembre	2023-06-11T00:00:00	2024-11-06T20:00:00	2	Temperatura media	15.4
59490	7	Sololá	701	Sololá	3	Barraneche	11	Noviembre	2023-06-11T00:00:00	2024-11-06T20:00:00	4	Temperatura máxima	15.5
59491	7	Sololá	701	Sololá	3	Barraneche	11	Noviembre	2023-06-11T00:00:00	2024-11-06T20:00:00	3	Temperatura mínima	15.3
59492	7	Sololá	701	Sololá	3	Barraneche	11	Noviembre	2023-06-11T00:00:00	2024-11-06T20:00:00	5	Humedad	67
59493	7	Sololá	701	Sololá	3	Barraneche	11	Noviembre	2023-06-11T00:00:00	2024-11-06T20:00:00	6	Velocidad del viento	8
59494	7	Sololá	701	Sololá	3	Barraneche	11	Noviembre	2023-06-11T00:00:00	2024-11-06T20:00:00	7	Dirección del viento	8.05
59495	7	Sololá	701	Sololá	3	Barraneche	11	Noviembre	2023-06-11T00:00:00	2024-11-06T20:00:00	1	Precipitación	0
59496	7	Sololá	701	Sololá	3	Barraneche	11	Noviembre	2023-06-11T00:00:00	2024-11-06T20:00:00	8	Radiación solar	0
59497	7	Sololá	701	Sololá	3	Barraneche	11	Noviembre	2023-06-11T00:00:00	2024-11-06T21:00:00	2	Temperatura media	15.4
59498	7	Sololá	701	Sololá	3	Barraneche	11	Noviembre	2023-06-11T00:00:00	2024-11-06T21:00:00	4	Temperatura máxima	15.5
59499	7	Sololá	701	Sololá	3	Barraneche	11	Noviembre	2023-06-11T00:00:00	2024-11-06T21:00:00	3	Temperatura mínima	14.9
59500	7	Sololá	701	Sololá	3	Barraneche	11	Noviembre	2023-06-11T00:00:00	2024-11-06T21:00:00	5	Humedad	67
59501	7	Sololá	701	Sololá	3	Barraneche	11	Noviembre	2023-06-11T00:00:00	2024-11-06T21:00:00	6	Velocidad del viento	11.3
59502	7	Sololá	701	Sololá	3	Barraneche	11	Noviembre	2023-06-11T00:00:00	2024-11-06T21:00:00	7	Dirección del viento	11.27
59503	7	Sololá	701	Sololá	3	Barraneche	11	Noviembre	2023-06-11T00:00:00	2024-11-06T21:00:00	1	Precipitación	0
59504	7	Sololá	701	Sololá	3	Barraneche	11	Noviembre	2023-06-11T00:00:00	2024-11-06T21:00:00	8	Radiación solar	0
59505	7	Sololá	701	Sololá	3	Barraneche	11	Noviembre	2023-06-11T00:00:00	2024-11-06T22:00:00	2	Temperatura media	15.3
59506	7	Sololá	701	Sololá	3	Barraneche	11	Noviembre	2023-06-11T00:00:00	2024-11-06T22:00:00	4	Temperatura máxima	15.5
59507	7	Sololá	701	Sololá	3	Barraneche	11	Noviembre	2023-06-11T00:00:00	2024-11-06T22:00:00	3	Temperatura mínima	15.2
59508	7	Sololá	701	Sololá	3	Barraneche	11	Noviembre	2023-06-11T00:00:00	2024-11-06T22:00:00	5	Humedad	67
59509	7	Sololá	701	Sololá	3	Barraneche	11	Noviembre	2023-06-11T00:00:00	2024-11-06T22:00:00	6	Velocidad del viento	12.9
59510	7	Sololá	701	Sololá	3	Barraneche	11	Noviembre	2023-06-11T00:00:00	2024-11-06T22:00:00	7	Dirección del viento	12.87
59511	7	Sololá	701	Sololá	3	Barraneche	11	Noviembre	2023-06-11T00:00:00	2024-11-06T22:00:00	1	Precipitación	0
59512	7	Sololá	701	Sololá	3	Barraneche	11	Noviembre	2023-06-11T00:00:00	2024-11-06T22:00:00	8	Radiación solar	0
59513	7	Sololá	701	Sololá	3	Barraneche	11	Noviembre	2023-06-11T00:00:00	2024-11-06T23:00:00	2	Temperatura media	15.1
59514	7	Sololá	701	Sololá	3	Barraneche	11	Noviembre	2023-06-11T00:00:00	2024-11-06T23:00:00	4	Temperatura máxima	15.5
59515	7	Sololá	701	Sololá	3	Barraneche	11	Noviembre	2023-06-11T00:00:00	2024-11-06T23:00:00	3	Temperatura mínima	15.1
59516	7	Sololá	701	Sololá	3	Barraneche	11	Noviembre	2023-06-11T00:00:00	2024-11-06T23:00:00	5	Humedad	68
59517	7	Sololá	701	Sololá	3	Barraneche	11	Noviembre	2023-06-11T00:00:00	2024-11-06T23:00:00	6	Velocidad del viento	14.5
59518	7	Sololá	701	Sololá	3	Barraneche	11	Noviembre	2023-06-11T00:00:00	2024-11-06T23:00:00	7	Dirección del viento	14.48
59519	7	Sololá	701	Sololá	3	Barraneche	11	Noviembre	2023-06-11T00:00:00	2024-11-06T23:00:00	1	Precipitación	0
59520	7	Sololá	701	Sololá	3	Barraneche	11	Noviembre	2023-06-11T00:00:00	2024-11-06T23:00:00	8	Radiación solar	0
59521	7	Sololá	701	Sololá	3	Barraneche	11	Noviembre	2023-07-11T00:00:00	2024-11-06T00:00:00	2	Temperatura media	14.9
59522	7	Sololá	701	Sololá	3	Barraneche	11	Noviembre	2023-07-11T00:00:00	2024-11-06T00:00:00	4	Temperatura máxima	15.3
59523	7	Sololá	701	Sololá	3	Barraneche	11	Noviembre	2023-07-11T00:00:00	2024-11-06T00:00:00	3	Temperatura mínima	14.9
59524	7	Sololá	701	Sololá	3	Barraneche	11	Noviembre	2023-07-11T00:00:00	2024-11-06T00:00:00	5	Humedad	69
59525	7	Sololá	701	Sololá	3	Barraneche	11	Noviembre	2023-07-11T00:00:00	2024-11-06T00:00:00	6	Velocidad del viento	8
59526	7	Sololá	701	Sololá	3	Barraneche	11	Noviembre	2023-07-11T00:00:00	2024-11-06T00:00:00	7	Dirección del viento	8.05
59527	7	Sololá	701	Sololá	3	Barraneche	11	Noviembre	2023-07-11T00:00:00	2024-11-06T00:00:00	1	Precipitación	0
59528	7	Sololá	701	Sololá	3	Barraneche	11	Noviembre	2023-07-11T00:00:00	2024-11-06T00:00:00	8	Radiación solar	0
59529	7	Sololá	701	Sololá	3	Barraneche	11	Noviembre	2023-07-11T00:00:00	2024-11-06T01:00:00	2	Temperatura media	15.3
59530	7	Sololá	701	Sololá	3	Barraneche	11	Noviembre	2023-07-11T00:00:00	2024-11-06T01:00:00	4	Temperatura máxima	15.3
59531	7	Sololá	701	Sololá	3	Barraneche	11	Noviembre	2023-07-11T00:00:00	2024-11-06T01:00:00	3	Temperatura mínima	14.8
59532	7	Sololá	701	Sololá	3	Barraneche	11	Noviembre	2023-07-11T00:00:00	2024-11-06T01:00:00	5	Humedad	66
59533	7	Sololá	701	Sololá	3	Barraneche	11	Noviembre	2023-07-11T00:00:00	2024-11-06T01:00:00	6	Velocidad del viento	8
59534	7	Sololá	701	Sololá	3	Barraneche	11	Noviembre	2023-07-11T00:00:00	2024-11-06T01:00:00	7	Dirección del viento	8.05
59535	7	Sololá	701	Sololá	3	Barraneche	11	Noviembre	2023-07-11T00:00:00	2024-11-06T01:00:00	1	Precipitación	0
59536	7	Sololá	701	Sololá	3	Barraneche	11	Noviembre	2023-07-11T00:00:00	2024-11-06T01:00:00	8	Radiación solar	0
59537	7	Sololá	701	Sololá	3	Barraneche	11	Noviembre	2023-07-11T00:00:00	2024-11-06T02:00:00	2	Temperatura media	15.3
59538	7	Sololá	701	Sololá	3	Barraneche	11	Noviembre	2023-07-11T00:00:00	2024-11-06T02:00:00	4	Temperatura máxima	15.4
59539	7	Sololá	701	Sololá	3	Barraneche	11	Noviembre	2023-07-11T00:00:00	2024-11-06T02:00:00	3	Temperatura mínima	14.8
59540	7	Sololá	701	Sololá	3	Barraneche	11	Noviembre	2023-07-11T00:00:00	2024-11-06T02:00:00	5	Humedad	65
59541	7	Sololá	701	Sololá	3	Barraneche	11	Noviembre	2023-07-11T00:00:00	2024-11-06T02:00:00	6	Velocidad del viento	14.5
59542	7	Sololá	701	Sololá	3	Barraneche	11	Noviembre	2023-07-11T00:00:00	2024-11-06T02:00:00	7	Dirección del viento	14.48
59543	7	Sololá	701	Sololá	3	Barraneche	11	Noviembre	2023-07-11T00:00:00	2024-11-06T02:00:00	1	Precipitación	0
59544	7	Sololá	701	Sololá	3	Barraneche	11	Noviembre	2023-07-11T00:00:00	2024-11-06T02:00:00	8	Radiación solar	0
59545	7	Sololá	701	Sololá	3	Barraneche	11	Noviembre	2023-07-11T00:00:00	2024-11-06T03:00:00	2	Temperatura media	15.2
59546	7	Sololá	701	Sololá	3	Barraneche	11	Noviembre	2023-07-11T00:00:00	2024-11-06T03:00:00	4	Temperatura máxima	15.3
59547	7	Sololá	701	Sololá	3	Barraneche	11	Noviembre	2023-07-11T00:00:00	2024-11-06T03:00:00	3	Temperatura mínima	14.8
59548	7	Sololá	701	Sololá	3	Barraneche	11	Noviembre	2023-07-11T00:00:00	2024-11-06T03:00:00	5	Humedad	65
59549	7	Sololá	701	Sololá	3	Barraneche	11	Noviembre	2023-07-11T00:00:00	2024-11-06T03:00:00	6	Velocidad del viento	12.9
59550	7	Sololá	701	Sololá	3	Barraneche	11	Noviembre	2023-07-11T00:00:00	2024-11-06T03:00:00	7	Dirección del viento	12.87
59551	7	Sololá	701	Sololá	3	Barraneche	11	Noviembre	2023-07-11T00:00:00	2024-11-06T03:00:00	1	Precipitación	0
59552	7	Sololá	701	Sololá	3	Barraneche	11	Noviembre	2023-07-11T00:00:00	2024-11-06T03:00:00	8	Radiación solar	0
59553	7	Sololá	701	Sololá	3	Barraneche	11	Noviembre	2023-07-11T00:00:00	2024-11-06T04:00:00	2	Temperatura media	15.2
59554	7	Sololá	701	Sololá	3	Barraneche	11	Noviembre	2023-07-11T00:00:00	2024-11-06T04:00:00	4	Temperatura máxima	15.4
59555	7	Sololá	701	Sololá	3	Barraneche	11	Noviembre	2023-07-11T00:00:00	2024-11-06T04:00:00	3	Temperatura mínima	15.1
59556	7	Sololá	701	Sololá	3	Barraneche	11	Noviembre	2023-07-11T00:00:00	2024-11-06T04:00:00	5	Humedad	66
59557	7	Sololá	701	Sololá	3	Barraneche	11	Noviembre	2023-07-11T00:00:00	2024-11-06T04:00:00	6	Velocidad del viento	14.5
59558	7	Sololá	701	Sololá	3	Barraneche	11	Noviembre	2023-07-11T00:00:00	2024-11-06T04:00:00	7	Dirección del viento	14.48
59559	7	Sololá	701	Sololá	3	Barraneche	11	Noviembre	2023-07-11T00:00:00	2024-11-06T04:00:00	1	Precipitación	0
59560	7	Sololá	701	Sololá	3	Barraneche	11	Noviembre	2023-07-11T00:00:00	2024-11-06T04:00:00	8	Radiación solar	0
59561	7	Sololá	701	Sololá	3	Barraneche	11	Noviembre	2023-07-11T00:00:00	2024-11-06T05:00:00	2	Temperatura media	15.1
59562	7	Sololá	701	Sololá	3	Barraneche	11	Noviembre	2023-07-11T00:00:00	2024-11-06T05:00:00	4	Temperatura máxima	15.2
59563	7	Sololá	701	Sololá	3	Barraneche	11	Noviembre	2023-07-11T00:00:00	2024-11-06T05:00:00	3	Temperatura mínima	15
59564	7	Sololá	701	Sololá	3	Barraneche	11	Noviembre	2023-07-11T00:00:00	2024-11-06T05:00:00	5	Humedad	67
59565	7	Sololá	701	Sololá	3	Barraneche	11	Noviembre	2023-07-11T00:00:00	2024-11-06T05:00:00	6	Velocidad del viento	16.1
59566	7	Sololá	701	Sololá	3	Barraneche	11	Noviembre	2023-07-11T00:00:00	2024-11-06T05:00:00	7	Dirección del viento	16.09
59567	7	Sololá	701	Sololá	3	Barraneche	11	Noviembre	2023-07-11T00:00:00	2024-11-06T05:00:00	1	Precipitación	0
59568	7	Sololá	701	Sololá	3	Barraneche	11	Noviembre	2023-07-11T00:00:00	2024-11-06T05:00:00	8	Radiación solar	0
59569	7	Sololá	701	Sololá	3	Barraneche	11	Noviembre	2023-07-11T00:00:00	2024-11-06T06:00:00	2	Temperatura media	15.2
59570	7	Sololá	701	Sololá	3	Barraneche	11	Noviembre	2023-07-11T00:00:00	2024-11-06T06:00:00	4	Temperatura máxima	15.3
59571	7	Sololá	701	Sololá	3	Barraneche	11	Noviembre	2023-07-11T00:00:00	2024-11-06T06:00:00	3	Temperatura mínima	15.1
59572	7	Sololá	701	Sololá	3	Barraneche	11	Noviembre	2023-07-11T00:00:00	2024-11-06T06:00:00	5	Humedad	67
59573	7	Sololá	701	Sololá	3	Barraneche	11	Noviembre	2023-07-11T00:00:00	2024-11-06T06:00:00	6	Velocidad del viento	19.3
59574	7	Sololá	701	Sololá	3	Barraneche	11	Noviembre	2023-07-11T00:00:00	2024-11-06T06:00:00	7	Dirección del viento	19.31
59575	7	Sololá	701	Sololá	3	Barraneche	11	Noviembre	2023-07-11T00:00:00	2024-11-06T06:00:00	1	Precipitación	0
59576	7	Sololá	701	Sololá	3	Barraneche	11	Noviembre	2023-07-11T00:00:00	2024-11-06T06:00:00	8	Radiación solar	0
59577	7	Sololá	701	Sololá	3	Barraneche	11	Noviembre	2023-07-11T00:00:00	2024-11-06T07:00:00	2	Temperatura media	15.8
59578	7	Sololá	701	Sololá	3	Barraneche	11	Noviembre	2023-07-11T00:00:00	2024-11-06T07:00:00	4	Temperatura máxima	15.8
59579	7	Sololá	701	Sololá	3	Barraneche	11	Noviembre	2023-07-11T00:00:00	2024-11-06T07:00:00	3	Temperatura mínima	15.2
59580	7	Sololá	701	Sololá	3	Barraneche	11	Noviembre	2023-07-11T00:00:00	2024-11-06T07:00:00	5	Humedad	66
59581	7	Sololá	701	Sololá	3	Barraneche	11	Noviembre	2023-07-11T00:00:00	2024-11-06T07:00:00	6	Velocidad del viento	17.7
59582	7	Sololá	701	Sololá	3	Barraneche	11	Noviembre	2023-07-11T00:00:00	2024-11-06T07:00:00	7	Dirección del viento	17.7
59583	7	Sololá	701	Sololá	3	Barraneche	11	Noviembre	2023-07-11T00:00:00	2024-11-06T07:00:00	1	Precipitación	0
59584	7	Sololá	701	Sololá	3	Barraneche	11	Noviembre	2023-07-11T00:00:00	2024-11-06T07:00:00	8	Radiación solar	47
59585	7	Sololá	701	Sololá	3	Barraneche	11	Noviembre	2023-07-11T00:00:00	2024-11-06T08:00:00	2	Temperatura media	16.2
59586	7	Sololá	701	Sololá	3	Barraneche	11	Noviembre	2023-07-11T00:00:00	2024-11-06T08:00:00	4	Temperatura máxima	16.2
59587	7	Sololá	701	Sololá	3	Barraneche	11	Noviembre	2023-07-11T00:00:00	2024-11-06T08:00:00	3	Temperatura mínima	15.4
59588	7	Sololá	701	Sololá	3	Barraneche	11	Noviembre	2023-07-11T00:00:00	2024-11-06T08:00:00	5	Humedad	65
59589	7	Sololá	701	Sololá	3	Barraneche	11	Noviembre	2023-07-11T00:00:00	2024-11-06T08:00:00	6	Velocidad del viento	17.7
59590	7	Sololá	701	Sololá	3	Barraneche	11	Noviembre	2023-07-11T00:00:00	2024-11-06T08:00:00	7	Dirección del viento	17.7
59591	7	Sololá	701	Sololá	3	Barraneche	11	Noviembre	2023-07-11T00:00:00	2024-11-06T08:00:00	1	Precipitación	0
59592	7	Sololá	701	Sololá	3	Barraneche	11	Noviembre	2023-07-11T00:00:00	2024-11-06T08:00:00	8	Radiación solar	236
59593	7	Sololá	701	Sololá	3	Barraneche	11	Noviembre	2023-07-11T00:00:00	2024-11-06T09:00:00	2	Temperatura media	16.8
59594	7	Sololá	701	Sololá	3	Barraneche	11	Noviembre	2023-07-11T00:00:00	2024-11-06T09:00:00	4	Temperatura máxima	17.1
59595	7	Sololá	701	Sololá	3	Barraneche	11	Noviembre	2023-07-11T00:00:00	2024-11-06T09:00:00	3	Temperatura mínima	16.2
59596	7	Sololá	701	Sololá	3	Barraneche	11	Noviembre	2023-07-11T00:00:00	2024-11-06T09:00:00	5	Humedad	64
59597	7	Sololá	701	Sololá	3	Barraneche	11	Noviembre	2023-07-11T00:00:00	2024-11-06T09:00:00	6	Velocidad del viento	16.1
59598	7	Sololá	701	Sololá	3	Barraneche	11	Noviembre	2023-07-11T00:00:00	2024-11-06T09:00:00	7	Dirección del viento	16.09
59599	7	Sololá	701	Sololá	3	Barraneche	11	Noviembre	2023-07-11T00:00:00	2024-11-06T09:00:00	1	Precipitación	0
59600	7	Sololá	701	Sololá	3	Barraneche	11	Noviembre	2023-07-11T00:00:00	2024-11-06T09:00:00	8	Radiación solar	319
59601	7	Sololá	701	Sololá	3	Barraneche	11	Noviembre	2023-07-11T00:00:00	2024-11-06T10:00:00	2	Temperatura media	16.6
59602	7	Sololá	701	Sololá	3	Barraneche	11	Noviembre	2023-07-11T00:00:00	2024-11-06T10:00:00	4	Temperatura máxima	16.8
59603	7	Sololá	701	Sololá	3	Barraneche	11	Noviembre	2023-07-11T00:00:00	2024-11-06T10:00:00	3	Temperatura mínima	16.2
59604	7	Sololá	701	Sololá	3	Barraneche	11	Noviembre	2023-07-11T00:00:00	2024-11-06T10:00:00	5	Humedad	65
59605	7	Sololá	701	Sololá	3	Barraneche	11	Noviembre	2023-07-11T00:00:00	2024-11-06T10:00:00	6	Velocidad del viento	12.9
59606	7	Sololá	701	Sololá	3	Barraneche	11	Noviembre	2023-07-11T00:00:00	2024-11-06T10:00:00	7	Dirección del viento	12.87
59607	7	Sololá	701	Sololá	3	Barraneche	11	Noviembre	2023-07-11T00:00:00	2024-11-06T10:00:00	1	Precipitación	0
59608	7	Sololá	701	Sololá	3	Barraneche	11	Noviembre	2023-07-11T00:00:00	2024-11-06T10:00:00	8	Radiación solar	237
59609	7	Sololá	701	Sololá	3	Barraneche	11	Noviembre	2023-07-11T00:00:00	2024-11-06T11:00:00	2	Temperatura media	17.5
59610	7	Sololá	701	Sololá	3	Barraneche	11	Noviembre	2023-07-11T00:00:00	2024-11-06T11:00:00	4	Temperatura máxima	17.5
59611	7	Sololá	701	Sololá	3	Barraneche	11	Noviembre	2023-07-11T00:00:00	2024-11-06T11:00:00	3	Temperatura mínima	16.1
59612	7	Sololá	701	Sololá	3	Barraneche	11	Noviembre	2023-07-11T00:00:00	2024-11-06T11:00:00	5	Humedad	64
59613	7	Sololá	701	Sololá	3	Barraneche	11	Noviembre	2023-07-11T00:00:00	2024-11-06T11:00:00	6	Velocidad del viento	12.9
59614	7	Sololá	701	Sololá	3	Barraneche	11	Noviembre	2023-07-11T00:00:00	2024-11-06T11:00:00	7	Dirección del viento	12.87
59615	7	Sololá	701	Sololá	3	Barraneche	11	Noviembre	2023-07-11T00:00:00	2024-11-06T11:00:00	1	Precipitación	0
59616	7	Sololá	701	Sololá	3	Barraneche	11	Noviembre	2023-07-11T00:00:00	2024-11-06T11:00:00	8	Radiación solar	291
59617	7	Sololá	701	Sololá	3	Barraneche	11	Noviembre	2023-07-11T00:00:00	2024-11-06T12:00:00	2	Temperatura media	18
59618	7	Sololá	701	Sololá	3	Barraneche	11	Noviembre	2023-07-11T00:00:00	2024-11-06T12:00:00	4	Temperatura máxima	18.7
59619	7	Sololá	701	Sololá	3	Barraneche	11	Noviembre	2023-07-11T00:00:00	2024-11-06T12:00:00	3	Temperatura mínima	17.4
59620	7	Sololá	701	Sololá	3	Barraneche	11	Noviembre	2023-07-11T00:00:00	2024-11-06T12:00:00	5	Humedad	62
59621	7	Sololá	701	Sololá	3	Barraneche	11	Noviembre	2023-07-11T00:00:00	2024-11-06T12:00:00	6	Velocidad del viento	16.1
59622	7	Sololá	701	Sololá	3	Barraneche	11	Noviembre	2023-07-11T00:00:00	2024-11-06T12:00:00	7	Dirección del viento	16.09
59623	7	Sololá	701	Sololá	3	Barraneche	11	Noviembre	2023-07-11T00:00:00	2024-11-06T12:00:00	1	Precipitación	0
59624	7	Sololá	701	Sololá	3	Barraneche	11	Noviembre	2023-07-11T00:00:00	2024-11-06T12:00:00	8	Radiación solar	456
59625	7	Sololá	701	Sololá	3	Barraneche	11	Noviembre	2023-07-11T00:00:00	2024-11-06T13:00:00	2	Temperatura media	17.8
59626	7	Sololá	701	Sololá	3	Barraneche	11	Noviembre	2023-07-11T00:00:00	2024-11-06T13:00:00	4	Temperatura máxima	19.1
59627	7	Sololá	701	Sololá	3	Barraneche	11	Noviembre	2023-07-11T00:00:00	2024-11-06T13:00:00	3	Temperatura mínima	17.7
59628	7	Sololá	701	Sololá	3	Barraneche	11	Noviembre	2023-07-11T00:00:00	2024-11-06T13:00:00	5	Humedad	62
59629	7	Sololá	701	Sololá	3	Barraneche	11	Noviembre	2023-07-11T00:00:00	2024-11-06T13:00:00	6	Velocidad del viento	14.5
59630	7	Sololá	701	Sololá	3	Barraneche	11	Noviembre	2023-07-11T00:00:00	2024-11-06T13:00:00	7	Dirección del viento	14.48
59631	7	Sololá	701	Sololá	3	Barraneche	11	Noviembre	2023-07-11T00:00:00	2024-11-06T13:00:00	1	Precipitación	0
59632	7	Sololá	701	Sololá	3	Barraneche	11	Noviembre	2023-07-11T00:00:00	2024-11-06T13:00:00	8	Radiación solar	417
59633	7	Sololá	701	Sololá	3	Barraneche	11	Noviembre	2023-07-11T00:00:00	2024-11-06T14:00:00	2	Temperatura media	17.8
59634	7	Sololá	701	Sololá	3	Barraneche	11	Noviembre	2023-07-11T00:00:00	2024-11-06T14:00:00	4	Temperatura máxima	17.8
59635	7	Sololá	701	Sololá	3	Barraneche	11	Noviembre	2023-07-11T00:00:00	2024-11-06T14:00:00	3	Temperatura mínima	17.3
59636	7	Sololá	701	Sololá	3	Barraneche	11	Noviembre	2023-07-11T00:00:00	2024-11-06T14:00:00	5	Humedad	62
59637	7	Sololá	701	Sololá	3	Barraneche	11	Noviembre	2023-07-11T00:00:00	2024-11-06T14:00:00	6	Velocidad del viento	11.3
59638	7	Sololá	701	Sololá	3	Barraneche	11	Noviembre	2023-07-11T00:00:00	2024-11-06T14:00:00	7	Dirección del viento	11.27
59639	7	Sololá	701	Sololá	3	Barraneche	11	Noviembre	2023-07-11T00:00:00	2024-11-06T14:00:00	1	Precipitación	0
59640	7	Sololá	701	Sololá	3	Barraneche	11	Noviembre	2023-07-11T00:00:00	2024-11-06T14:00:00	8	Radiación solar	208
59641	7	Sololá	701	Sololá	3	Barraneche	11	Noviembre	2023-07-11T00:00:00	2024-11-06T15:00:00	2	Temperatura media	18.2
59642	7	Sololá	701	Sololá	3	Barraneche	11	Noviembre	2023-07-11T00:00:00	2024-11-06T15:00:00	4	Temperatura máxima	18.6
59643	7	Sololá	701	Sololá	3	Barraneche	11	Noviembre	2023-07-11T00:00:00	2024-11-06T15:00:00	3	Temperatura mínima	17
59644	7	Sololá	701	Sololá	3	Barraneche	11	Noviembre	2023-07-11T00:00:00	2024-11-06T15:00:00	5	Humedad	60
59645	7	Sololá	701	Sololá	3	Barraneche	11	Noviembre	2023-07-11T00:00:00	2024-11-06T15:00:00	6	Velocidad del viento	8
59646	7	Sololá	701	Sololá	3	Barraneche	11	Noviembre	2023-07-11T00:00:00	2024-11-06T15:00:00	7	Dirección del viento	8.05
59647	7	Sololá	701	Sololá	3	Barraneche	11	Noviembre	2023-07-11T00:00:00	2024-11-06T15:00:00	1	Precipitación	0
59648	7	Sololá	701	Sololá	3	Barraneche	11	Noviembre	2023-07-11T00:00:00	2024-11-06T15:00:00	8	Radiación solar	350
59649	7	Sololá	701	Sololá	3	Barraneche	11	Noviembre	2023-07-11T00:00:00	2024-11-06T16:00:00	2	Temperatura media	16.2
59650	7	Sololá	701	Sololá	3	Barraneche	11	Noviembre	2023-07-11T00:00:00	2024-11-06T16:00:00	4	Temperatura máxima	18.2
59651	7	Sololá	701	Sololá	3	Barraneche	11	Noviembre	2023-07-11T00:00:00	2024-11-06T16:00:00	3	Temperatura mínima	16.2
59652	7	Sololá	701	Sololá	3	Barraneche	11	Noviembre	2023-07-11T00:00:00	2024-11-06T16:00:00	5	Humedad	66
59653	7	Sololá	701	Sololá	3	Barraneche	11	Noviembre	2023-07-11T00:00:00	2024-11-06T16:00:00	6	Velocidad del viento	12.9
59654	7	Sololá	701	Sololá	3	Barraneche	11	Noviembre	2023-07-11T00:00:00	2024-11-06T16:00:00	7	Dirección del viento	12.87
59655	7	Sololá	701	Sololá	3	Barraneche	11	Noviembre	2023-07-11T00:00:00	2024-11-06T16:00:00	1	Precipitación	0
59656	7	Sololá	701	Sololá	3	Barraneche	11	Noviembre	2023-07-11T00:00:00	2024-11-06T16:00:00	8	Radiación solar	217
59657	7	Sololá	701	Sololá	3	Barraneche	11	Noviembre	2023-07-11T00:00:00	2024-11-06T17:00:00	2	Temperatura media	17.2
59658	7	Sololá	701	Sololá	3	Barraneche	11	Noviembre	2023-07-11T00:00:00	2024-11-06T17:00:00	4	Temperatura máxima	17.7
59659	7	Sololá	701	Sololá	3	Barraneche	11	Noviembre	2023-07-11T00:00:00	2024-11-06T17:00:00	3	Temperatura mínima	16.2
59660	7	Sololá	701	Sololá	3	Barraneche	11	Noviembre	2023-07-11T00:00:00	2024-11-06T17:00:00	5	Humedad	59
59661	7	Sololá	701	Sololá	3	Barraneche	11	Noviembre	2023-07-11T00:00:00	2024-11-06T17:00:00	6	Velocidad del viento	11.3
59662	7	Sololá	701	Sololá	3	Barraneche	11	Noviembre	2023-07-11T00:00:00	2024-11-06T17:00:00	7	Dirección del viento	11.27
59663	7	Sololá	701	Sololá	3	Barraneche	11	Noviembre	2023-07-11T00:00:00	2024-11-06T17:00:00	1	Precipitación	0
59664	7	Sololá	701	Sololá	3	Barraneche	11	Noviembre	2023-07-11T00:00:00	2024-11-06T17:00:00	8	Radiación solar	146
59665	7	Sololá	701	Sololá	3	Barraneche	11	Noviembre	2023-07-11T00:00:00	2024-11-06T18:00:00	2	Temperatura media	15.5
59666	7	Sololá	701	Sololá	3	Barraneche	11	Noviembre	2023-07-11T00:00:00	2024-11-06T18:00:00	4	Temperatura máxima	17.2
59667	7	Sololá	701	Sololá	3	Barraneche	11	Noviembre	2023-07-11T00:00:00	2024-11-06T18:00:00	3	Temperatura mínima	15.5
59668	7	Sololá	701	Sololá	3	Barraneche	11	Noviembre	2023-07-11T00:00:00	2024-11-06T18:00:00	5	Humedad	66
59669	7	Sololá	701	Sololá	3	Barraneche	11	Noviembre	2023-07-11T00:00:00	2024-11-06T18:00:00	6	Velocidad del viento	8
59670	7	Sololá	701	Sololá	3	Barraneche	11	Noviembre	2023-07-11T00:00:00	2024-11-06T18:00:00	7	Dirección del viento	8.05
59671	7	Sololá	701	Sololá	3	Barraneche	11	Noviembre	2023-07-11T00:00:00	2024-11-06T18:00:00	1	Precipitación	0
59672	7	Sololá	701	Sololá	3	Barraneche	11	Noviembre	2023-07-11T00:00:00	2024-11-06T18:00:00	8	Radiación solar	22
59673	7	Sololá	701	Sololá	3	Barraneche	11	Noviembre	2023-07-11T00:00:00	2024-11-06T19:00:00	2	Temperatura media	14.8
59674	7	Sololá	701	Sololá	3	Barraneche	11	Noviembre	2023-07-11T00:00:00	2024-11-06T19:00:00	4	Temperatura máxima	15.5
59675	7	Sololá	701	Sololá	3	Barraneche	11	Noviembre	2023-07-11T00:00:00	2024-11-06T19:00:00	3	Temperatura mínima	14.8
59676	7	Sololá	701	Sololá	3	Barraneche	11	Noviembre	2023-07-11T00:00:00	2024-11-06T19:00:00	5	Humedad	68
59677	7	Sololá	701	Sololá	3	Barraneche	11	Noviembre	2023-07-11T00:00:00	2024-11-06T19:00:00	6	Velocidad del viento	11.3
59678	7	Sololá	701	Sololá	3	Barraneche	11	Noviembre	2023-07-11T00:00:00	2024-11-06T19:00:00	7	Dirección del viento	11.27
59679	7	Sololá	701	Sololá	3	Barraneche	11	Noviembre	2023-07-11T00:00:00	2024-11-06T19:00:00	1	Precipitación	0
59680	7	Sololá	701	Sololá	3	Barraneche	11	Noviembre	2023-07-11T00:00:00	2024-11-06T19:00:00	8	Radiación solar	0
59681	7	Sololá	701	Sololá	3	Barraneche	11	Noviembre	2023-07-11T00:00:00	2024-11-06T20:00:00	2	Temperatura media	15.4
59682	7	Sololá	701	Sololá	3	Barraneche	11	Noviembre	2023-07-11T00:00:00	2024-11-06T20:00:00	4	Temperatura máxima	15.4
59683	7	Sololá	701	Sololá	3	Barraneche	11	Noviembre	2023-07-11T00:00:00	2024-11-06T20:00:00	3	Temperatura mínima	14.8
59684	7	Sololá	701	Sololá	3	Barraneche	11	Noviembre	2023-07-11T00:00:00	2024-11-06T20:00:00	5	Humedad	66
59685	7	Sololá	701	Sololá	3	Barraneche	11	Noviembre	2023-07-11T00:00:00	2024-11-06T20:00:00	6	Velocidad del viento	14.5
59686	7	Sololá	701	Sololá	3	Barraneche	11	Noviembre	2023-07-11T00:00:00	2024-11-06T20:00:00	7	Dirección del viento	14.48
59687	7	Sololá	701	Sololá	3	Barraneche	11	Noviembre	2023-07-11T00:00:00	2024-11-06T20:00:00	1	Precipitación	0
59688	7	Sololá	701	Sololá	3	Barraneche	11	Noviembre	2023-07-11T00:00:00	2024-11-06T20:00:00	8	Radiación solar	0
59689	7	Sololá	701	Sololá	3	Barraneche	11	Noviembre	2023-07-11T00:00:00	2024-11-06T21:00:00	2	Temperatura media	15.3
59690	7	Sololá	701	Sololá	3	Barraneche	11	Noviembre	2023-07-11T00:00:00	2024-11-06T21:00:00	4	Temperatura máxima	15.4
59691	7	Sololá	701	Sololá	3	Barraneche	11	Noviembre	2023-07-11T00:00:00	2024-11-06T21:00:00	3	Temperatura mínima	15.2
59692	7	Sololá	701	Sololá	3	Barraneche	11	Noviembre	2023-07-11T00:00:00	2024-11-06T21:00:00	5	Humedad	67
59693	7	Sololá	701	Sololá	3	Barraneche	11	Noviembre	2023-07-11T00:00:00	2024-11-06T21:00:00	6	Velocidad del viento	17.7
59694	7	Sololá	701	Sololá	3	Barraneche	11	Noviembre	2023-07-11T00:00:00	2024-11-06T21:00:00	7	Dirección del viento	17.7
59695	7	Sololá	701	Sololá	3	Barraneche	11	Noviembre	2023-07-11T00:00:00	2024-11-06T21:00:00	1	Precipitación	0
59696	7	Sololá	701	Sololá	3	Barraneche	11	Noviembre	2023-07-11T00:00:00	2024-11-06T21:00:00	8	Radiación solar	0
59697	7	Sololá	701	Sololá	3	Barraneche	11	Noviembre	2023-07-11T00:00:00	2024-11-06T22:00:00	2	Temperatura media	15.2
59698	7	Sololá	701	Sololá	3	Barraneche	11	Noviembre	2023-07-11T00:00:00	2024-11-06T22:00:00	4	Temperatura máxima	15.4
59699	7	Sololá	701	Sololá	3	Barraneche	11	Noviembre	2023-07-11T00:00:00	2024-11-06T22:00:00	3	Temperatura mínima	15
59700	7	Sololá	701	Sololá	3	Barraneche	11	Noviembre	2023-07-11T00:00:00	2024-11-06T22:00:00	5	Humedad	68
59701	7	Sololá	701	Sololá	3	Barraneche	11	Noviembre	2023-07-11T00:00:00	2024-11-06T22:00:00	6	Velocidad del viento	19.3
59702	7	Sololá	701	Sololá	3	Barraneche	11	Noviembre	2023-07-11T00:00:00	2024-11-06T22:00:00	7	Dirección del viento	19.31
59703	7	Sololá	701	Sololá	3	Barraneche	11	Noviembre	2023-07-11T00:00:00	2024-11-06T22:00:00	1	Precipitación	0
59704	7	Sololá	701	Sololá	3	Barraneche	11	Noviembre	2023-07-11T00:00:00	2024-11-06T22:00:00	8	Radiación solar	0
59705	7	Sololá	701	Sololá	3	Barraneche	11	Noviembre	2023-07-11T00:00:00	2024-11-06T23:00:00	2	Temperatura media	15.1
59706	7	Sololá	701	Sololá	3	Barraneche	11	Noviembre	2023-07-11T00:00:00	2024-11-06T23:00:00	4	Temperatura máxima	15.3
59707	7	Sololá	701	Sololá	3	Barraneche	11	Noviembre	2023-07-11T00:00:00	2024-11-06T23:00:00	3	Temperatura mínima	15
59708	7	Sololá	701	Sololá	3	Barraneche	11	Noviembre	2023-07-11T00:00:00	2024-11-06T23:00:00	5	Humedad	67
59709	7	Sololá	701	Sololá	3	Barraneche	11	Noviembre	2023-07-11T00:00:00	2024-11-06T23:00:00	6	Velocidad del viento	12.9
59710	7	Sololá	701	Sololá	3	Barraneche	11	Noviembre	2023-07-11T00:00:00	2024-11-06T23:00:00	7	Dirección del viento	12.87
59711	7	Sololá	701	Sololá	3	Barraneche	11	Noviembre	2023-07-11T00:00:00	2024-11-06T23:00:00	1	Precipitación	0
59712	7	Sololá	701	Sololá	3	Barraneche	11	Noviembre	2023-07-11T00:00:00	2024-11-06T23:00:00	8	Radiación solar	0
59713	7	Sololá	701	Sololá	3	Barraneche	11	Noviembre	2023-08-11T00:00:00	2024-11-06T00:00:00	2	Temperatura media	15.3
59714	7	Sololá	701	Sololá	3	Barraneche	11	Noviembre	2023-08-11T00:00:00	2024-11-06T00:00:00	4	Temperatura máxima	15.6
59715	7	Sololá	701	Sololá	3	Barraneche	11	Noviembre	2023-08-11T00:00:00	2024-11-06T00:00:00	3	Temperatura mínima	15.1
59716	7	Sololá	701	Sololá	3	Barraneche	11	Noviembre	2023-08-11T00:00:00	2024-11-06T00:00:00	5	Humedad	66
59717	7	Sololá	701	Sololá	3	Barraneche	11	Noviembre	2023-08-11T00:00:00	2024-11-06T00:00:00	6	Velocidad del viento	19.3
59718	7	Sololá	701	Sololá	3	Barraneche	11	Noviembre	2023-08-11T00:00:00	2024-11-06T00:00:00	7	Dirección del viento	19.31
59719	7	Sololá	701	Sololá	3	Barraneche	11	Noviembre	2023-08-11T00:00:00	2024-11-06T00:00:00	1	Precipitación	0
59720	7	Sololá	701	Sololá	3	Barraneche	11	Noviembre	2023-08-11T00:00:00	2024-11-06T00:00:00	8	Radiación solar	0
59721	7	Sololá	701	Sololá	3	Barraneche	11	Noviembre	2023-08-11T00:00:00	2024-11-06T01:00:00	2	Temperatura media	15.2
59722	7	Sololá	701	Sololá	3	Barraneche	11	Noviembre	2023-08-11T00:00:00	2024-11-06T01:00:00	4	Temperatura máxima	15.6
59723	7	Sololá	701	Sololá	3	Barraneche	11	Noviembre	2023-08-11T00:00:00	2024-11-06T01:00:00	3	Temperatura mínima	14.9
59724	7	Sololá	701	Sololá	3	Barraneche	11	Noviembre	2023-08-11T00:00:00	2024-11-06T01:00:00	5	Humedad	66
59725	7	Sololá	701	Sololá	3	Barraneche	11	Noviembre	2023-08-11T00:00:00	2024-11-06T01:00:00	6	Velocidad del viento	22.5
59726	7	Sololá	701	Sololá	3	Barraneche	11	Noviembre	2023-08-11T00:00:00	2024-11-06T01:00:00	7	Dirección del viento	22.53
59727	7	Sololá	701	Sololá	3	Barraneche	11	Noviembre	2023-08-11T00:00:00	2024-11-06T01:00:00	1	Precipitación	0
59728	7	Sololá	701	Sololá	3	Barraneche	11	Noviembre	2023-08-11T00:00:00	2024-11-06T01:00:00	8	Radiación solar	0
59729	7	Sololá	701	Sololá	3	Barraneche	11	Noviembre	2023-08-11T00:00:00	2024-11-06T02:00:00	2	Temperatura media	16.2
59730	7	Sololá	701	Sololá	3	Barraneche	11	Noviembre	2023-08-11T00:00:00	2024-11-06T02:00:00	4	Temperatura máxima	16.2
59731	7	Sololá	701	Sololá	3	Barraneche	11	Noviembre	2023-08-11T00:00:00	2024-11-06T02:00:00	3	Temperatura mínima	15.1
59732	7	Sololá	701	Sololá	3	Barraneche	11	Noviembre	2023-08-11T00:00:00	2024-11-06T02:00:00	5	Humedad	57
59733	7	Sololá	701	Sololá	3	Barraneche	11	Noviembre	2023-08-11T00:00:00	2024-11-06T02:00:00	6	Velocidad del viento	20.9
59734	7	Sololá	701	Sololá	3	Barraneche	11	Noviembre	2023-08-11T00:00:00	2024-11-06T02:00:00	7	Dirección del viento	20.92
59735	7	Sololá	701	Sololá	3	Barraneche	11	Noviembre	2023-08-11T00:00:00	2024-11-06T02:00:00	1	Precipitación	0
59736	7	Sololá	701	Sololá	3	Barraneche	11	Noviembre	2023-08-11T00:00:00	2024-11-06T02:00:00	8	Radiación solar	0
59737	7	Sololá	701	Sololá	3	Barraneche	11	Noviembre	2023-08-11T00:00:00	2024-11-06T03:00:00	2	Temperatura media	16.7
59738	7	Sololá	701	Sololá	3	Barraneche	11	Noviembre	2023-08-11T00:00:00	2024-11-06T03:00:00	4	Temperatura máxima	16.7
59739	7	Sololá	701	Sololá	3	Barraneche	11	Noviembre	2023-08-11T00:00:00	2024-11-06T03:00:00	3	Temperatura mínima	16.1
59740	7	Sololá	701	Sololá	3	Barraneche	11	Noviembre	2023-08-11T00:00:00	2024-11-06T03:00:00	5	Humedad	55
59741	7	Sololá	701	Sololá	3	Barraneche	11	Noviembre	2023-08-11T00:00:00	2024-11-06T03:00:00	6	Velocidad del viento	14.5
59742	7	Sololá	701	Sololá	3	Barraneche	11	Noviembre	2023-08-11T00:00:00	2024-11-06T03:00:00	7	Dirección del viento	14.48
59743	7	Sololá	701	Sololá	3	Barraneche	11	Noviembre	2023-08-11T00:00:00	2024-11-06T03:00:00	1	Precipitación	0
59744	7	Sololá	701	Sololá	3	Barraneche	11	Noviembre	2023-08-11T00:00:00	2024-11-06T03:00:00	8	Radiación solar	0
59745	7	Sololá	701	Sololá	3	Barraneche	11	Noviembre	2023-08-11T00:00:00	2024-11-06T04:00:00	2	Temperatura media	13.8
59746	7	Sololá	701	Sololá	3	Barraneche	11	Noviembre	2023-08-11T00:00:00	2024-11-06T04:00:00	4	Temperatura máxima	16.8
59747	7	Sololá	701	Sololá	3	Barraneche	11	Noviembre	2023-08-11T00:00:00	2024-11-06T04:00:00	3	Temperatura mínima	13.8
59748	7	Sololá	701	Sololá	3	Barraneche	11	Noviembre	2023-08-11T00:00:00	2024-11-06T04:00:00	5	Humedad	66
59749	7	Sololá	701	Sololá	3	Barraneche	11	Noviembre	2023-08-11T00:00:00	2024-11-06T04:00:00	6	Velocidad del viento	4.8
59750	7	Sololá	701	Sololá	3	Barraneche	11	Noviembre	2023-08-11T00:00:00	2024-11-06T04:00:00	7	Dirección del viento	4.83
59751	7	Sololá	701	Sololá	3	Barraneche	11	Noviembre	2023-08-11T00:00:00	2024-11-06T04:00:00	1	Precipitación	0
59752	7	Sololá	701	Sololá	3	Barraneche	11	Noviembre	2023-08-11T00:00:00	2024-11-06T04:00:00	8	Radiación solar	0
59753	7	Sololá	701	Sololá	3	Barraneche	11	Noviembre	2023-08-11T00:00:00	2024-11-06T05:00:00	2	Temperatura media	13.3
59754	7	Sololá	701	Sololá	3	Barraneche	11	Noviembre	2023-08-11T00:00:00	2024-11-06T05:00:00	4	Temperatura máxima	13.8
59755	7	Sololá	701	Sololá	3	Barraneche	11	Noviembre	2023-08-11T00:00:00	2024-11-06T05:00:00	3	Temperatura mínima	13.3
59756	7	Sololá	701	Sololá	3	Barraneche	11	Noviembre	2023-08-11T00:00:00	2024-11-06T05:00:00	5	Humedad	67
59757	7	Sololá	701	Sololá	3	Barraneche	11	Noviembre	2023-08-11T00:00:00	2024-11-06T05:00:00	6	Velocidad del viento	3.2
59758	7	Sololá	701	Sololá	3	Barraneche	11	Noviembre	2023-08-11T00:00:00	2024-11-06T05:00:00	7	Dirección del viento	3.22
59759	7	Sololá	701	Sololá	3	Barraneche	11	Noviembre	2023-08-11T00:00:00	2024-11-06T05:00:00	1	Precipitación	0
59760	7	Sololá	701	Sololá	3	Barraneche	11	Noviembre	2023-08-11T00:00:00	2024-11-06T05:00:00	8	Radiación solar	0
59761	7	Sololá	701	Sololá	3	Barraneche	11	Noviembre	2023-08-11T00:00:00	2024-11-06T06:00:00	2	Temperatura media	13.3
59762	7	Sololá	701	Sololá	3	Barraneche	11	Noviembre	2023-08-11T00:00:00	2024-11-06T06:00:00	4	Temperatura máxima	13.3
59763	7	Sololá	701	Sololá	3	Barraneche	11	Noviembre	2023-08-11T00:00:00	2024-11-06T06:00:00	3	Temperatura mínima	12.3
59764	7	Sololá	701	Sololá	3	Barraneche	11	Noviembre	2023-08-11T00:00:00	2024-11-06T06:00:00	5	Humedad	67
59765	7	Sololá	701	Sololá	3	Barraneche	11	Noviembre	2023-08-11T00:00:00	2024-11-06T06:00:00	6	Velocidad del viento	4.8
59766	7	Sololá	701	Sololá	3	Barraneche	11	Noviembre	2023-08-11T00:00:00	2024-11-06T06:00:00	7	Dirección del viento	4.83
59767	7	Sololá	701	Sololá	3	Barraneche	11	Noviembre	2023-08-11T00:00:00	2024-11-06T06:00:00	1	Precipitación	0
59768	7	Sololá	701	Sololá	3	Barraneche	11	Noviembre	2023-08-11T00:00:00	2024-11-06T06:00:00	8	Radiación solar	0
59769	7	Sololá	701	Sololá	3	Barraneche	11	Noviembre	2023-08-11T00:00:00	2024-11-06T07:00:00	2	Temperatura media	14.7
59770	7	Sololá	701	Sololá	3	Barraneche	11	Noviembre	2023-08-11T00:00:00	2024-11-06T07:00:00	4	Temperatura máxima	14.7
59771	7	Sololá	701	Sololá	3	Barraneche	11	Noviembre	2023-08-11T00:00:00	2024-11-06T07:00:00	3	Temperatura mínima	13.3
59772	7	Sololá	701	Sololá	3	Barraneche	11	Noviembre	2023-08-11T00:00:00	2024-11-06T07:00:00	5	Humedad	65
59773	7	Sololá	701	Sololá	3	Barraneche	11	Noviembre	2023-08-11T00:00:00	2024-11-06T07:00:00	6	Velocidad del viento	6.4
59774	7	Sololá	701	Sololá	3	Barraneche	11	Noviembre	2023-08-11T00:00:00	2024-11-06T07:00:00	7	Dirección del viento	6.44
59775	7	Sololá	701	Sololá	3	Barraneche	11	Noviembre	2023-08-11T00:00:00	2024-11-06T07:00:00	1	Precipitación	0
59776	7	Sololá	701	Sololá	3	Barraneche	11	Noviembre	2023-08-11T00:00:00	2024-11-06T07:00:00	8	Radiación solar	32
59777	7	Sololá	701	Sololá	3	Barraneche	11	Noviembre	2023-08-11T00:00:00	2024-11-06T08:00:00	2	Temperatura media	15.4
59778	7	Sololá	701	Sololá	3	Barraneche	11	Noviembre	2023-08-11T00:00:00	2024-11-06T08:00:00	4	Temperatura máxima	15.4
59779	7	Sololá	701	Sololá	3	Barraneche	11	Noviembre	2023-08-11T00:00:00	2024-11-06T08:00:00	3	Temperatura mínima	14.5
59780	7	Sololá	701	Sololá	3	Barraneche	11	Noviembre	2023-08-11T00:00:00	2024-11-06T08:00:00	5	Humedad	63
59781	7	Sololá	701	Sololá	3	Barraneche	11	Noviembre	2023-08-11T00:00:00	2024-11-06T08:00:00	6	Velocidad del viento	14.5
59782	7	Sololá	701	Sololá	3	Barraneche	11	Noviembre	2023-08-11T00:00:00	2024-11-06T08:00:00	7	Dirección del viento	14.48
59783	7	Sololá	701	Sololá	3	Barraneche	11	Noviembre	2023-08-11T00:00:00	2024-11-06T08:00:00	1	Precipitación	0
59784	7	Sololá	701	Sololá	3	Barraneche	11	Noviembre	2023-08-11T00:00:00	2024-11-06T08:00:00	8	Radiación solar	120
59785	7	Sololá	701	Sololá	3	Barraneche	11	Noviembre	2023-08-11T00:00:00	2024-11-06T09:00:00	2	Temperatura media	18.6
59786	7	Sololá	701	Sololá	3	Barraneche	11	Noviembre	2023-08-11T00:00:00	2024-11-06T09:00:00	4	Temperatura máxima	18.6
59787	7	Sololá	701	Sololá	3	Barraneche	11	Noviembre	2023-08-11T00:00:00	2024-11-06T09:00:00	3	Temperatura mínima	15.5
59788	7	Sololá	701	Sololá	3	Barraneche	11	Noviembre	2023-08-11T00:00:00	2024-11-06T09:00:00	5	Humedad	56
59789	7	Sololá	701	Sololá	3	Barraneche	11	Noviembre	2023-08-11T00:00:00	2024-11-06T09:00:00	6	Velocidad del viento	12.9
59790	7	Sololá	701	Sololá	3	Barraneche	11	Noviembre	2023-08-11T00:00:00	2024-11-06T09:00:00	7	Dirección del viento	12.87
59791	7	Sololá	701	Sololá	3	Barraneche	11	Noviembre	2023-08-11T00:00:00	2024-11-06T09:00:00	1	Precipitación	0
59792	7	Sololá	701	Sololá	3	Barraneche	11	Noviembre	2023-08-11T00:00:00	2024-11-06T09:00:00	8	Radiación solar	554
59793	7	Sololá	701	Sololá	3	Barraneche	11	Noviembre	2023-08-11T00:00:00	2024-11-06T10:00:00	2	Temperatura media	18.6
59794	7	Sololá	701	Sololá	3	Barraneche	11	Noviembre	2023-08-11T00:00:00	2024-11-06T10:00:00	4	Temperatura máxima	18.9
59795	7	Sololá	701	Sololá	3	Barraneche	11	Noviembre	2023-08-11T00:00:00	2024-11-06T10:00:00	3	Temperatura mínima	18
59796	7	Sololá	701	Sololá	3	Barraneche	11	Noviembre	2023-08-11T00:00:00	2024-11-06T10:00:00	5	Humedad	57
59797	7	Sololá	701	Sololá	3	Barraneche	11	Noviembre	2023-08-11T00:00:00	2024-11-06T10:00:00	6	Velocidad del viento	16.1
59798	7	Sololá	701	Sololá	3	Barraneche	11	Noviembre	2023-08-11T00:00:00	2024-11-06T10:00:00	7	Dirección del viento	16.09
59799	7	Sololá	701	Sololá	3	Barraneche	11	Noviembre	2023-08-11T00:00:00	2024-11-06T10:00:00	1	Precipitación	0
59800	7	Sololá	701	Sololá	3	Barraneche	11	Noviembre	2023-08-11T00:00:00	2024-11-06T10:00:00	8	Radiación solar	724
59801	7	Sololá	701	Sololá	3	Barraneche	11	Noviembre	2023-08-11T00:00:00	2024-11-06T11:00:00	2	Temperatura media	19.6
59802	7	Sololá	701	Sololá	3	Barraneche	11	Noviembre	2023-08-11T00:00:00	2024-11-06T11:00:00	4	Temperatura máxima	19.6
59803	7	Sololá	701	Sololá	3	Barraneche	11	Noviembre	2023-08-11T00:00:00	2024-11-06T11:00:00	3	Temperatura mínima	18.5
59804	7	Sololá	701	Sololá	3	Barraneche	11	Noviembre	2023-08-11T00:00:00	2024-11-06T11:00:00	5	Humedad	55
59805	7	Sololá	701	Sololá	3	Barraneche	11	Noviembre	2023-08-11T00:00:00	2024-11-06T11:00:00	6	Velocidad del viento	12.9
59806	7	Sololá	701	Sololá	3	Barraneche	11	Noviembre	2023-08-11T00:00:00	2024-11-06T11:00:00	7	Dirección del viento	12.87
59807	7	Sololá	701	Sololá	3	Barraneche	11	Noviembre	2023-08-11T00:00:00	2024-11-06T11:00:00	1	Precipitación	0
59808	7	Sololá	701	Sololá	3	Barraneche	11	Noviembre	2023-08-11T00:00:00	2024-11-06T11:00:00	8	Radiación solar	817
59809	7	Sololá	701	Sololá	3	Barraneche	11	Noviembre	2023-08-11T00:00:00	2024-11-06T12:00:00	2	Temperatura media	19.6
59810	7	Sololá	701	Sololá	3	Barraneche	11	Noviembre	2023-08-11T00:00:00	2024-11-06T12:00:00	4	Temperatura máxima	20.2
59811	7	Sololá	701	Sololá	3	Barraneche	11	Noviembre	2023-08-11T00:00:00	2024-11-06T12:00:00	3	Temperatura mínima	19.4
59812	7	Sololá	701	Sololá	3	Barraneche	11	Noviembre	2023-08-11T00:00:00	2024-11-06T12:00:00	5	Humedad	55
59813	7	Sololá	701	Sololá	3	Barraneche	11	Noviembre	2023-08-11T00:00:00	2024-11-06T12:00:00	6	Velocidad del viento	12.9
59814	7	Sololá	701	Sololá	3	Barraneche	11	Noviembre	2023-08-11T00:00:00	2024-11-06T12:00:00	7	Dirección del viento	12.87
59815	7	Sololá	701	Sololá	3	Barraneche	11	Noviembre	2023-08-11T00:00:00	2024-11-06T12:00:00	1	Precipitación	0
59816	7	Sololá	701	Sololá	3	Barraneche	11	Noviembre	2023-08-11T00:00:00	2024-11-06T12:00:00	8	Radiación solar	963
59817	7	Sololá	701	Sololá	3	Barraneche	11	Noviembre	2023-08-11T00:00:00	2024-11-06T13:00:00	2	Temperatura media	19.2
59818	7	Sololá	701	Sololá	3	Barraneche	11	Noviembre	2023-08-11T00:00:00	2024-11-06T13:00:00	4	Temperatura máxima	20
59819	7	Sololá	701	Sololá	3	Barraneche	11	Noviembre	2023-08-11T00:00:00	2024-11-06T13:00:00	3	Temperatura mínima	18.9
59820	7	Sololá	701	Sololá	3	Barraneche	11	Noviembre	2023-08-11T00:00:00	2024-11-06T13:00:00	5	Humedad	54
59821	7	Sololá	701	Sololá	3	Barraneche	11	Noviembre	2023-08-11T00:00:00	2024-11-06T13:00:00	6	Velocidad del viento	9.7
59822	7	Sololá	701	Sololá	3	Barraneche	11	Noviembre	2023-08-11T00:00:00	2024-11-06T13:00:00	7	Dirección del viento	9.66
59823	7	Sololá	701	Sololá	3	Barraneche	11	Noviembre	2023-08-11T00:00:00	2024-11-06T13:00:00	1	Precipitación	0
59824	7	Sololá	701	Sololá	3	Barraneche	11	Noviembre	2023-08-11T00:00:00	2024-11-06T13:00:00	8	Radiación solar	604
59825	7	Sololá	701	Sololá	3	Barraneche	11	Noviembre	2023-08-11T00:00:00	2024-11-06T14:00:00	2	Temperatura media	19.8
59826	7	Sololá	701	Sololá	3	Barraneche	11	Noviembre	2023-08-11T00:00:00	2024-11-06T14:00:00	4	Temperatura máxima	19.8
59827	7	Sololá	701	Sololá	3	Barraneche	11	Noviembre	2023-08-11T00:00:00	2024-11-06T14:00:00	3	Temperatura mínima	18.7
59828	7	Sololá	701	Sololá	3	Barraneche	11	Noviembre	2023-08-11T00:00:00	2024-11-06T14:00:00	5	Humedad	53
59829	7	Sololá	701	Sololá	3	Barraneche	11	Noviembre	2023-08-11T00:00:00	2024-11-06T14:00:00	6	Velocidad del viento	11.3
59830	7	Sololá	701	Sololá	3	Barraneche	11	Noviembre	2023-08-11T00:00:00	2024-11-06T14:00:00	7	Dirección del viento	11.27
59831	7	Sololá	701	Sololá	3	Barraneche	11	Noviembre	2023-08-11T00:00:00	2024-11-06T14:00:00	1	Precipitación	0
59832	7	Sololá	701	Sololá	3	Barraneche	11	Noviembre	2023-08-11T00:00:00	2024-11-06T14:00:00	8	Radiación solar	541
59833	7	Sololá	701	Sololá	3	Barraneche	11	Noviembre	2023-08-11T00:00:00	2024-11-06T15:00:00	2	Temperatura media	18.5
59834	7	Sololá	701	Sololá	3	Barraneche	11	Noviembre	2023-08-11T00:00:00	2024-11-06T15:00:00	4	Temperatura máxima	19.8
59835	7	Sololá	701	Sololá	3	Barraneche	11	Noviembre	2023-08-11T00:00:00	2024-11-06T15:00:00	3	Temperatura mínima	18.2
59836	7	Sololá	701	Sololá	3	Barraneche	11	Noviembre	2023-08-11T00:00:00	2024-11-06T15:00:00	5	Humedad	60
59837	7	Sololá	701	Sololá	3	Barraneche	11	Noviembre	2023-08-11T00:00:00	2024-11-06T15:00:00	6	Velocidad del viento	11.3
59838	7	Sololá	701	Sololá	3	Barraneche	11	Noviembre	2023-08-11T00:00:00	2024-11-06T15:00:00	7	Dirección del viento	11.27
59839	7	Sololá	701	Sololá	3	Barraneche	11	Noviembre	2023-08-11T00:00:00	2024-11-06T15:00:00	1	Precipitación	0
59840	7	Sololá	701	Sololá	3	Barraneche	11	Noviembre	2023-08-11T00:00:00	2024-11-06T15:00:00	8	Radiación solar	255
59841	7	Sololá	701	Sololá	3	Barraneche	11	Noviembre	2023-08-11T00:00:00	2024-11-06T16:00:00	2	Temperatura media	18.1
59842	7	Sololá	701	Sololá	3	Barraneche	11	Noviembre	2023-08-11T00:00:00	2024-11-06T16:00:00	4	Temperatura máxima	18.9
59843	7	Sololá	701	Sololá	3	Barraneche	11	Noviembre	2023-08-11T00:00:00	2024-11-06T16:00:00	3	Temperatura mínima	17.9
59844	7	Sololá	701	Sololá	3	Barraneche	11	Noviembre	2023-08-11T00:00:00	2024-11-06T16:00:00	5	Humedad	60
59845	7	Sololá	701	Sololá	3	Barraneche	11	Noviembre	2023-08-11T00:00:00	2024-11-06T16:00:00	6	Velocidad del viento	11.3
59846	7	Sololá	701	Sololá	3	Barraneche	11	Noviembre	2023-08-11T00:00:00	2024-11-06T16:00:00	7	Dirección del viento	11.27
59847	7	Sololá	701	Sololá	3	Barraneche	11	Noviembre	2023-08-11T00:00:00	2024-11-06T16:00:00	1	Precipitación	0
59848	7	Sololá	701	Sololá	3	Barraneche	11	Noviembre	2023-08-11T00:00:00	2024-11-06T16:00:00	8	Radiación solar	226
59849	7	Sololá	701	Sololá	3	Barraneche	11	Noviembre	2023-08-11T00:00:00	2024-11-06T17:00:00	2	Temperatura media	17.1
59850	7	Sololá	701	Sololá	3	Barraneche	11	Noviembre	2023-08-11T00:00:00	2024-11-06T17:00:00	4	Temperatura máxima	18.1
59851	7	Sololá	701	Sololá	3	Barraneche	11	Noviembre	2023-08-11T00:00:00	2024-11-06T17:00:00	3	Temperatura mínima	17.1
59852	7	Sololá	701	Sololá	3	Barraneche	11	Noviembre	2023-08-11T00:00:00	2024-11-06T17:00:00	5	Humedad	64
59853	7	Sololá	701	Sololá	3	Barraneche	11	Noviembre	2023-08-11T00:00:00	2024-11-06T17:00:00	6	Velocidad del viento	11.3
59854	7	Sololá	701	Sololá	3	Barraneche	11	Noviembre	2023-08-11T00:00:00	2024-11-06T17:00:00	7	Dirección del viento	11.27
59855	7	Sololá	701	Sololá	3	Barraneche	11	Noviembre	2023-08-11T00:00:00	2024-11-06T17:00:00	1	Precipitación	0
59856	7	Sololá	701	Sololá	3	Barraneche	11	Noviembre	2023-08-11T00:00:00	2024-11-06T17:00:00	8	Radiación solar	93
59857	7	Sololá	701	Sololá	3	Barraneche	11	Noviembre	2023-08-11T00:00:00	2024-11-06T18:00:00	2	Temperatura media	16.7
59858	7	Sololá	701	Sololá	3	Barraneche	11	Noviembre	2023-08-11T00:00:00	2024-11-06T18:00:00	4	Temperatura máxima	17.1
59859	7	Sololá	701	Sololá	3	Barraneche	11	Noviembre	2023-08-11T00:00:00	2024-11-06T18:00:00	3	Temperatura mínima	16.7
59860	7	Sololá	701	Sololá	3	Barraneche	11	Noviembre	2023-08-11T00:00:00	2024-11-06T18:00:00	5	Humedad	65
59861	7	Sololá	701	Sololá	3	Barraneche	11	Noviembre	2023-08-11T00:00:00	2024-11-06T18:00:00	6	Velocidad del viento	8
59862	7	Sololá	701	Sololá	3	Barraneche	11	Noviembre	2023-08-11T00:00:00	2024-11-06T18:00:00	7	Dirección del viento	8.05
59863	7	Sololá	701	Sololá	3	Barraneche	11	Noviembre	2023-08-11T00:00:00	2024-11-06T18:00:00	1	Precipitación	0
59864	7	Sololá	701	Sololá	3	Barraneche	11	Noviembre	2023-08-11T00:00:00	2024-11-06T18:00:00	8	Radiación solar	16
59865	7	Sololá	701	Sololá	3	Barraneche	11	Noviembre	2023-08-11T00:00:00	2024-11-06T19:00:00	2	Temperatura media	16.1
59866	7	Sololá	701	Sololá	3	Barraneche	11	Noviembre	2023-08-11T00:00:00	2024-11-06T19:00:00	4	Temperatura máxima	16.7
59867	7	Sololá	701	Sololá	3	Barraneche	11	Noviembre	2023-08-11T00:00:00	2024-11-06T19:00:00	3	Temperatura mínima	16.1
59868	7	Sololá	701	Sololá	3	Barraneche	11	Noviembre	2023-08-11T00:00:00	2024-11-06T19:00:00	5	Humedad	68
59869	7	Sololá	701	Sololá	3	Barraneche	11	Noviembre	2023-08-11T00:00:00	2024-11-06T19:00:00	6	Velocidad del viento	6.4
59870	7	Sololá	701	Sololá	3	Barraneche	11	Noviembre	2023-08-11T00:00:00	2024-11-06T19:00:00	7	Dirección del viento	6.44
59871	7	Sololá	701	Sololá	3	Barraneche	11	Noviembre	2023-08-11T00:00:00	2024-11-06T19:00:00	1	Precipitación	0
59872	7	Sololá	701	Sololá	3	Barraneche	11	Noviembre	2023-08-11T00:00:00	2024-11-06T19:00:00	8	Radiación solar	0
59873	7	Sololá	701	Sololá	3	Barraneche	11	Noviembre	2023-08-11T00:00:00	2024-11-06T20:00:00	2	Temperatura media	15.6
59874	7	Sololá	701	Sololá	3	Barraneche	11	Noviembre	2023-08-11T00:00:00	2024-11-06T20:00:00	4	Temperatura máxima	16.2
59875	7	Sololá	701	Sololá	3	Barraneche	11	Noviembre	2023-08-11T00:00:00	2024-11-06T20:00:00	3	Temperatura mínima	15.6
59876	7	Sololá	701	Sololá	3	Barraneche	11	Noviembre	2023-08-11T00:00:00	2024-11-06T20:00:00	5	Humedad	69
59877	7	Sololá	701	Sololá	3	Barraneche	11	Noviembre	2023-08-11T00:00:00	2024-11-06T20:00:00	6	Velocidad del viento	4.8
59878	7	Sololá	701	Sololá	3	Barraneche	11	Noviembre	2023-08-11T00:00:00	2024-11-06T20:00:00	7	Dirección del viento	4.83
59879	7	Sololá	701	Sololá	3	Barraneche	11	Noviembre	2023-08-11T00:00:00	2024-11-06T20:00:00	1	Precipitación	0
59880	7	Sololá	701	Sololá	3	Barraneche	11	Noviembre	2023-08-11T00:00:00	2024-11-06T20:00:00	8	Radiación solar	0
59881	7	Sololá	701	Sololá	3	Barraneche	11	Noviembre	2023-08-11T00:00:00	2024-11-06T21:00:00	2	Temperatura media	14.8
59882	7	Sololá	701	Sololá	3	Barraneche	11	Noviembre	2023-08-11T00:00:00	2024-11-06T21:00:00	4	Temperatura máxima	15.6
59883	7	Sololá	701	Sololá	3	Barraneche	11	Noviembre	2023-08-11T00:00:00	2024-11-06T21:00:00	3	Temperatura mínima	14.8
59884	7	Sololá	701	Sololá	3	Barraneche	11	Noviembre	2023-08-11T00:00:00	2024-11-06T21:00:00	5	Humedad	70
59885	7	Sololá	701	Sololá	3	Barraneche	11	Noviembre	2023-08-11T00:00:00	2024-11-06T21:00:00	6	Velocidad del viento	4.8
59886	7	Sololá	701	Sololá	3	Barraneche	11	Noviembre	2023-08-11T00:00:00	2024-11-06T21:00:00	7	Dirección del viento	4.83
59887	7	Sololá	701	Sololá	3	Barraneche	11	Noviembre	2023-08-11T00:00:00	2024-11-06T21:00:00	1	Precipitación	0
59888	7	Sololá	701	Sololá	3	Barraneche	11	Noviembre	2023-08-11T00:00:00	2024-11-06T21:00:00	8	Radiación solar	0
59889	7	Sololá	701	Sololá	3	Barraneche	11	Noviembre	2023-08-11T00:00:00	2024-11-06T22:00:00	2	Temperatura media	14.9
59890	7	Sololá	701	Sololá	3	Barraneche	11	Noviembre	2023-08-11T00:00:00	2024-11-06T22:00:00	4	Temperatura máxima	15.3
59891	7	Sololá	701	Sololá	3	Barraneche	11	Noviembre	2023-08-11T00:00:00	2024-11-06T22:00:00	3	Temperatura mínima	14.4
59892	7	Sololá	701	Sololá	3	Barraneche	11	Noviembre	2023-08-11T00:00:00	2024-11-06T22:00:00	5	Humedad	69
59893	7	Sololá	701	Sololá	3	Barraneche	11	Noviembre	2023-08-11T00:00:00	2024-11-06T22:00:00	6	Velocidad del viento	4.8
59894	7	Sololá	701	Sololá	3	Barraneche	11	Noviembre	2023-08-11T00:00:00	2024-11-06T22:00:00	7	Dirección del viento	4.83
59895	7	Sololá	701	Sololá	3	Barraneche	11	Noviembre	2023-08-11T00:00:00	2024-11-06T22:00:00	1	Precipitación	0
59896	7	Sololá	701	Sololá	3	Barraneche	11	Noviembre	2023-08-11T00:00:00	2024-11-06T22:00:00	8	Radiación solar	0
59897	7	Sololá	701	Sololá	3	Barraneche	11	Noviembre	2023-08-11T00:00:00	2024-11-06T23:00:00	2	Temperatura media	13.6
59898	7	Sololá	701	Sololá	3	Barraneche	11	Noviembre	2023-08-11T00:00:00	2024-11-06T23:00:00	4	Temperatura máxima	14.9
59899	7	Sololá	701	Sololá	3	Barraneche	11	Noviembre	2023-08-11T00:00:00	2024-11-06T23:00:00	3	Temperatura mínima	13.6
59900	7	Sololá	701	Sololá	3	Barraneche	11	Noviembre	2023-08-11T00:00:00	2024-11-06T23:00:00	5	Humedad	72
59901	7	Sololá	701	Sololá	3	Barraneche	11	Noviembre	2023-08-11T00:00:00	2024-11-06T23:00:00	6	Velocidad del viento	1.6
59902	7	Sololá	701	Sololá	3	Barraneche	11	Noviembre	2023-08-11T00:00:00	2024-11-06T23:00:00	7	Dirección del viento	1.61
59903	7	Sololá	701	Sololá	3	Barraneche	11	Noviembre	2023-08-11T00:00:00	2024-11-06T23:00:00	1	Precipitación	0
59904	7	Sololá	701	Sololá	3	Barraneche	11	Noviembre	2023-08-11T00:00:00	2024-11-06T23:00:00	8	Radiación solar	0
59905	7	Sololá	701	Sololá	3	Barraneche	11	Noviembre	2023-09-11T00:00:00	2024-11-06T00:00:00	2	Temperatura media	12.7
59906	7	Sololá	701	Sololá	3	Barraneche	11	Noviembre	2023-09-11T00:00:00	2024-11-06T00:00:00	4	Temperatura máxima	13.6
59907	7	Sololá	701	Sololá	3	Barraneche	11	Noviembre	2023-09-11T00:00:00	2024-11-06T00:00:00	3	Temperatura mínima	12.6
59908	7	Sololá	701	Sololá	3	Barraneche	11	Noviembre	2023-09-11T00:00:00	2024-11-06T00:00:00	5	Humedad	71
59909	7	Sololá	701	Sololá	3	Barraneche	11	Noviembre	2023-09-11T00:00:00	2024-11-06T00:00:00	6	Velocidad del viento	3.2
59910	7	Sololá	701	Sololá	3	Barraneche	11	Noviembre	2023-09-11T00:00:00	2024-11-06T00:00:00	7	Dirección del viento	3.22
59911	7	Sololá	701	Sololá	3	Barraneche	11	Noviembre	2023-09-11T00:00:00	2024-11-06T00:00:00	1	Precipitación	0
59912	7	Sololá	701	Sololá	3	Barraneche	11	Noviembre	2023-09-11T00:00:00	2024-11-06T00:00:00	8	Radiación solar	0
59913	7	Sololá	701	Sololá	3	Barraneche	11	Noviembre	2023-09-11T00:00:00	2024-11-06T01:00:00	2	Temperatura media	12.2
59914	7	Sololá	701	Sololá	3	Barraneche	11	Noviembre	2023-09-11T00:00:00	2024-11-06T01:00:00	4	Temperatura máxima	12.8
59915	7	Sololá	701	Sololá	3	Barraneche	11	Noviembre	2023-09-11T00:00:00	2024-11-06T01:00:00	3	Temperatura mínima	12.1
59916	7	Sololá	701	Sololá	3	Barraneche	11	Noviembre	2023-09-11T00:00:00	2024-11-06T01:00:00	5	Humedad	74
59917	7	Sololá	701	Sololá	3	Barraneche	11	Noviembre	2023-09-11T00:00:00	2024-11-06T01:00:00	6	Velocidad del viento	3.2
59918	7	Sololá	701	Sololá	3	Barraneche	11	Noviembre	2023-09-11T00:00:00	2024-11-06T01:00:00	7	Dirección del viento	3.22
59919	7	Sololá	701	Sololá	3	Barraneche	11	Noviembre	2023-09-11T00:00:00	2024-11-06T01:00:00	1	Precipitación	0
59920	7	Sololá	701	Sololá	3	Barraneche	11	Noviembre	2023-09-11T00:00:00	2024-11-06T01:00:00	8	Radiación solar	0
59921	7	Sololá	701	Sololá	3	Barraneche	11	Noviembre	2023-09-11T00:00:00	2024-11-06T02:00:00	2	Temperatura media	11.6
59922	7	Sololá	701	Sololá	3	Barraneche	11	Noviembre	2023-09-11T00:00:00	2024-11-06T02:00:00	4	Temperatura máxima	12.3
59923	7	Sololá	701	Sololá	3	Barraneche	11	Noviembre	2023-09-11T00:00:00	2024-11-06T02:00:00	3	Temperatura mínima	11.4
59924	7	Sololá	701	Sololá	3	Barraneche	11	Noviembre	2023-09-11T00:00:00	2024-11-06T02:00:00	5	Humedad	74
59925	7	Sololá	701	Sololá	3	Barraneche	11	Noviembre	2023-09-11T00:00:00	2024-11-06T02:00:00	6	Velocidad del viento	3.2
59926	7	Sololá	701	Sololá	3	Barraneche	11	Noviembre	2023-09-11T00:00:00	2024-11-06T02:00:00	7	Dirección del viento	3.22
59927	7	Sololá	701	Sololá	3	Barraneche	11	Noviembre	2023-09-11T00:00:00	2024-11-06T02:00:00	1	Precipitación	0
59928	7	Sololá	701	Sololá	3	Barraneche	11	Noviembre	2023-09-11T00:00:00	2024-11-06T02:00:00	8	Radiación solar	0
59929	7	Sololá	701	Sololá	3	Barraneche	11	Noviembre	2023-09-11T00:00:00	2024-11-06T03:00:00	2	Temperatura media	11.6
59930	7	Sololá	701	Sololá	3	Barraneche	11	Noviembre	2023-09-11T00:00:00	2024-11-06T03:00:00	4	Temperatura máxima	11.6
59931	7	Sololá	701	Sololá	3	Barraneche	11	Noviembre	2023-09-11T00:00:00	2024-11-06T03:00:00	3	Temperatura mínima	11.3
59932	7	Sololá	701	Sololá	3	Barraneche	11	Noviembre	2023-09-11T00:00:00	2024-11-06T03:00:00	5	Humedad	69
59933	7	Sololá	701	Sololá	3	Barraneche	11	Noviembre	2023-09-11T00:00:00	2024-11-06T03:00:00	6	Velocidad del viento	6.4
59934	7	Sololá	701	Sololá	3	Barraneche	11	Noviembre	2023-09-11T00:00:00	2024-11-06T03:00:00	7	Dirección del viento	6.44
59935	7	Sololá	701	Sololá	3	Barraneche	11	Noviembre	2023-09-11T00:00:00	2024-11-06T03:00:00	1	Precipitación	0
59936	7	Sololá	701	Sololá	3	Barraneche	11	Noviembre	2023-09-11T00:00:00	2024-11-06T03:00:00	8	Radiación solar	0
59937	7	Sololá	701	Sololá	3	Barraneche	11	Noviembre	2023-09-11T00:00:00	2024-11-06T04:00:00	2	Temperatura media	10.6
59938	7	Sololá	701	Sololá	3	Barraneche	11	Noviembre	2023-09-11T00:00:00	2024-11-06T04:00:00	4	Temperatura máxima	11.6
59939	7	Sololá	701	Sololá	3	Barraneche	11	Noviembre	2023-09-11T00:00:00	2024-11-06T04:00:00	3	Temperatura mínima	10.4
59940	7	Sololá	701	Sololá	3	Barraneche	11	Noviembre	2023-09-11T00:00:00	2024-11-06T04:00:00	5	Humedad	62
59941	7	Sololá	701	Sololá	3	Barraneche	11	Noviembre	2023-09-11T00:00:00	2024-11-06T04:00:00	6	Velocidad del viento	6.4
59942	7	Sololá	701	Sololá	3	Barraneche	11	Noviembre	2023-09-11T00:00:00	2024-11-06T04:00:00	7	Dirección del viento	6.44
59943	7	Sololá	701	Sololá	3	Barraneche	11	Noviembre	2023-09-11T00:00:00	2024-11-06T04:00:00	1	Precipitación	0
59944	7	Sololá	701	Sololá	3	Barraneche	11	Noviembre	2023-09-11T00:00:00	2024-11-06T04:00:00	8	Radiación solar	0
59945	7	Sololá	701	Sololá	3	Barraneche	11	Noviembre	2023-09-11T00:00:00	2024-11-06T05:00:00	2	Temperatura media	10.8
59946	7	Sololá	701	Sololá	3	Barraneche	11	Noviembre	2023-09-11T00:00:00	2024-11-06T05:00:00	4	Temperatura máxima	10.9
59947	7	Sololá	701	Sololá	3	Barraneche	11	Noviembre	2023-09-11T00:00:00	2024-11-06T05:00:00	3	Temperatura mínima	10.4
59948	7	Sololá	701	Sololá	3	Barraneche	11	Noviembre	2023-09-11T00:00:00	2024-11-06T05:00:00	5	Humedad	62
59949	7	Sololá	701	Sololá	3	Barraneche	11	Noviembre	2023-09-11T00:00:00	2024-11-06T05:00:00	6	Velocidad del viento	6.4
59950	7	Sololá	701	Sololá	3	Barraneche	11	Noviembre	2023-09-11T00:00:00	2024-11-06T05:00:00	7	Dirección del viento	6.44
59951	7	Sololá	701	Sololá	3	Barraneche	11	Noviembre	2023-09-11T00:00:00	2024-11-06T05:00:00	1	Precipitación	0
59952	7	Sololá	701	Sololá	3	Barraneche	11	Noviembre	2023-09-11T00:00:00	2024-11-06T05:00:00	8	Radiación solar	0
59953	7	Sololá	701	Sololá	3	Barraneche	11	Noviembre	2023-09-11T00:00:00	2024-11-06T06:00:00	2	Temperatura media	11.6
59954	7	Sololá	701	Sololá	3	Barraneche	11	Noviembre	2023-09-11T00:00:00	2024-11-06T06:00:00	4	Temperatura máxima	11.8
59955	7	Sololá	701	Sololá	3	Barraneche	11	Noviembre	2023-09-11T00:00:00	2024-11-06T06:00:00	3	Temperatura mínima	10.8
59956	7	Sololá	701	Sololá	3	Barraneche	11	Noviembre	2023-09-11T00:00:00	2024-11-06T06:00:00	5	Humedad	58
59957	7	Sololá	701	Sololá	3	Barraneche	11	Noviembre	2023-09-11T00:00:00	2024-11-06T06:00:00	6	Velocidad del viento	8
59958	7	Sololá	701	Sololá	3	Barraneche	11	Noviembre	2023-09-11T00:00:00	2024-11-06T06:00:00	7	Dirección del viento	8.05
59959	7	Sololá	701	Sololá	3	Barraneche	11	Noviembre	2023-09-11T00:00:00	2024-11-06T06:00:00	1	Precipitación	0
59960	7	Sololá	701	Sololá	3	Barraneche	11	Noviembre	2023-09-11T00:00:00	2024-11-06T06:00:00	8	Radiación solar	0
59961	7	Sololá	701	Sololá	3	Barraneche	11	Noviembre	2023-09-11T00:00:00	2024-11-06T07:00:00	2	Temperatura media	12
59962	7	Sololá	701	Sololá	3	Barraneche	11	Noviembre	2023-09-11T00:00:00	2024-11-06T07:00:00	4	Temperatura máxima	12.1
59963	7	Sololá	701	Sololá	3	Barraneche	11	Noviembre	2023-09-11T00:00:00	2024-11-06T07:00:00	3	Temperatura mínima	11.5
59964	7	Sololá	701	Sololá	3	Barraneche	11	Noviembre	2023-09-11T00:00:00	2024-11-06T07:00:00	5	Humedad	58
59965	7	Sololá	701	Sololá	3	Barraneche	11	Noviembre	2023-09-11T00:00:00	2024-11-06T07:00:00	6	Velocidad del viento	9.7
59966	7	Sololá	701	Sololá	3	Barraneche	11	Noviembre	2023-09-11T00:00:00	2024-11-06T07:00:00	7	Dirección del viento	9.66
59967	7	Sololá	701	Sololá	3	Barraneche	11	Noviembre	2023-09-11T00:00:00	2024-11-06T07:00:00	1	Precipitación	0
59968	7	Sololá	701	Sololá	3	Barraneche	11	Noviembre	2023-09-11T00:00:00	2024-11-06T07:00:00	8	Radiación solar	26
59969	7	Sololá	701	Sololá	3	Barraneche	11	Noviembre	2023-09-11T00:00:00	2024-11-06T08:00:00	2	Temperatura media	15.6
59970	7	Sololá	701	Sololá	3	Barraneche	11	Noviembre	2023-09-11T00:00:00	2024-11-06T08:00:00	4	Temperatura máxima	15.6
59971	7	Sololá	701	Sololá	3	Barraneche	11	Noviembre	2023-09-11T00:00:00	2024-11-06T08:00:00	3	Temperatura mínima	12
59972	7	Sololá	701	Sololá	3	Barraneche	11	Noviembre	2023-09-11T00:00:00	2024-11-06T08:00:00	5	Humedad	56
59973	7	Sololá	701	Sololá	3	Barraneche	11	Noviembre	2023-09-11T00:00:00	2024-11-06T08:00:00	6	Velocidad del viento	6.4
59974	7	Sololá	701	Sololá	3	Barraneche	11	Noviembre	2023-09-11T00:00:00	2024-11-06T08:00:00	7	Dirección del viento	6.44
59975	7	Sololá	701	Sololá	3	Barraneche	11	Noviembre	2023-09-11T00:00:00	2024-11-06T08:00:00	1	Precipitación	0
59976	7	Sololá	701	Sololá	3	Barraneche	11	Noviembre	2023-09-11T00:00:00	2024-11-06T08:00:00	8	Radiación solar	272
59977	7	Sololá	701	Sololá	3	Barraneche	11	Noviembre	2023-09-11T00:00:00	2024-11-06T09:00:00	2	Temperatura media	18.4
59978	7	Sololá	701	Sololá	3	Barraneche	11	Noviembre	2023-09-11T00:00:00	2024-11-06T09:00:00	4	Temperatura máxima	18.6
59979	7	Sololá	701	Sololá	3	Barraneche	11	Noviembre	2023-09-11T00:00:00	2024-11-06T09:00:00	3	Temperatura mínima	15.7
59980	7	Sololá	701	Sololá	3	Barraneche	11	Noviembre	2023-09-11T00:00:00	2024-11-06T09:00:00	5	Humedad	50
59981	7	Sololá	701	Sololá	3	Barraneche	11	Noviembre	2023-09-11T00:00:00	2024-11-06T09:00:00	6	Velocidad del viento	3.2
59982	7	Sololá	701	Sololá	3	Barraneche	11	Noviembre	2023-09-11T00:00:00	2024-11-06T09:00:00	7	Dirección del viento	3.22
59983	7	Sololá	701	Sololá	3	Barraneche	11	Noviembre	2023-09-11T00:00:00	2024-11-06T09:00:00	1	Precipitación	0
59984	7	Sololá	701	Sololá	3	Barraneche	11	Noviembre	2023-09-11T00:00:00	2024-11-06T09:00:00	8	Radiación solar	514
59985	7	Sololá	701	Sololá	3	Barraneche	11	Noviembre	2023-09-11T00:00:00	2024-11-06T10:00:00	2	Temperatura media	18.6
59986	7	Sololá	701	Sololá	3	Barraneche	11	Noviembre	2023-09-11T00:00:00	2024-11-06T10:00:00	4	Temperatura máxima	18.9
59987	7	Sololá	701	Sololá	3	Barraneche	11	Noviembre	2023-09-11T00:00:00	2024-11-06T10:00:00	3	Temperatura mínima	18.3
59988	7	Sololá	701	Sololá	3	Barraneche	11	Noviembre	2023-09-11T00:00:00	2024-11-06T10:00:00	5	Humedad	60
59989	7	Sololá	701	Sololá	3	Barraneche	11	Noviembre	2023-09-11T00:00:00	2024-11-06T10:00:00	6	Velocidad del viento	9.7
59990	7	Sololá	701	Sololá	3	Barraneche	11	Noviembre	2023-09-11T00:00:00	2024-11-06T10:00:00	7	Dirección del viento	9.66
59991	7	Sololá	701	Sololá	3	Barraneche	11	Noviembre	2023-09-11T00:00:00	2024-11-06T10:00:00	1	Precipitación	0
59992	7	Sololá	701	Sololá	3	Barraneche	11	Noviembre	2023-09-11T00:00:00	2024-11-06T10:00:00	8	Radiación solar	697
59993	7	Sololá	701	Sololá	3	Barraneche	11	Noviembre	2023-09-11T00:00:00	2024-11-06T11:00:00	2	Temperatura media	18.6
59994	7	Sololá	701	Sololá	3	Barraneche	11	Noviembre	2023-09-11T00:00:00	2024-11-06T11:00:00	4	Temperatura máxima	18.7
59995	7	Sololá	701	Sololá	3	Barraneche	11	Noviembre	2023-09-11T00:00:00	2024-11-06T11:00:00	3	Temperatura mínima	17.7
59996	7	Sololá	701	Sololá	3	Barraneche	11	Noviembre	2023-09-11T00:00:00	2024-11-06T11:00:00	5	Humedad	62
59997	7	Sololá	701	Sololá	3	Barraneche	11	Noviembre	2023-09-11T00:00:00	2024-11-06T11:00:00	6	Velocidad del viento	9.7
59998	7	Sololá	701	Sololá	3	Barraneche	11	Noviembre	2023-09-11T00:00:00	2024-11-06T11:00:00	7	Dirección del viento	9.66
59999	7	Sololá	701	Sololá	3	Barraneche	11	Noviembre	2023-09-11T00:00:00	2024-11-06T11:00:00	1	Precipitación	0
60000	7	Sololá	701	Sololá	3	Barraneche	11	Noviembre	2023-09-11T00:00:00	2024-11-06T11:00:00	8	Radiación solar	765
60001	7	Sololá	701	Sololá	3	Barraneche	11	Noviembre	2023-09-11T00:00:00	2024-11-06T12:00:00	2	Temperatura media	19.6
60002	7	Sololá	701	Sololá	3	Barraneche	11	Noviembre	2023-09-11T00:00:00	2024-11-06T12:00:00	4	Temperatura máxima	19.6
60003	7	Sololá	701	Sololá	3	Barraneche	11	Noviembre	2023-09-11T00:00:00	2024-11-06T12:00:00	3	Temperatura mínima	18.6
60004	7	Sololá	701	Sololá	3	Barraneche	11	Noviembre	2023-09-11T00:00:00	2024-11-06T12:00:00	5	Humedad	60
60005	7	Sololá	701	Sololá	3	Barraneche	11	Noviembre	2023-09-11T00:00:00	2024-11-06T12:00:00	6	Velocidad del viento	11.3
60006	7	Sololá	701	Sololá	3	Barraneche	11	Noviembre	2023-09-11T00:00:00	2024-11-06T12:00:00	7	Dirección del viento	11.27
60007	7	Sololá	701	Sololá	3	Barraneche	11	Noviembre	2023-09-11T00:00:00	2024-11-06T12:00:00	1	Precipitación	0
60008	7	Sololá	701	Sololá	3	Barraneche	11	Noviembre	2023-09-11T00:00:00	2024-11-06T12:00:00	8	Radiación solar	949
60009	7	Sololá	701	Sololá	3	Barraneche	11	Noviembre	2023-09-11T00:00:00	2024-11-06T13:00:00	2	Temperatura media	19.4
60010	7	Sololá	701	Sololá	3	Barraneche	11	Noviembre	2023-09-11T00:00:00	2024-11-06T13:00:00	4	Temperatura máxima	19.8
60011	7	Sololá	701	Sololá	3	Barraneche	11	Noviembre	2023-09-11T00:00:00	2024-11-06T13:00:00	3	Temperatura mínima	19.3
60012	7	Sololá	701	Sololá	3	Barraneche	11	Noviembre	2023-09-11T00:00:00	2024-11-06T13:00:00	5	Humedad	59
60013	7	Sololá	701	Sololá	3	Barraneche	11	Noviembre	2023-09-11T00:00:00	2024-11-06T13:00:00	6	Velocidad del viento	11.3
60014	7	Sololá	701	Sololá	3	Barraneche	11	Noviembre	2023-09-11T00:00:00	2024-11-06T13:00:00	7	Dirección del viento	11.27
60015	7	Sololá	701	Sololá	3	Barraneche	11	Noviembre	2023-09-11T00:00:00	2024-11-06T13:00:00	1	Precipitación	0
60016	7	Sololá	701	Sololá	3	Barraneche	11	Noviembre	2023-09-11T00:00:00	2024-11-06T13:00:00	8	Radiación solar	937
60017	7	Sololá	701	Sololá	3	Barraneche	11	Noviembre	2023-09-11T00:00:00	2024-11-06T14:00:00	2	Temperatura media	20.2
60018	7	Sololá	701	Sololá	3	Barraneche	11	Noviembre	2023-09-11T00:00:00	2024-11-06T14:00:00	4	Temperatura máxima	20.4
60019	7	Sololá	701	Sololá	3	Barraneche	11	Noviembre	2023-09-11T00:00:00	2024-11-06T14:00:00	3	Temperatura mínima	19.4
60020	7	Sololá	701	Sololá	3	Barraneche	11	Noviembre	2023-09-11T00:00:00	2024-11-06T14:00:00	5	Humedad	59
60021	7	Sololá	701	Sololá	3	Barraneche	11	Noviembre	2023-09-11T00:00:00	2024-11-06T14:00:00	6	Velocidad del viento	12.9
60022	7	Sololá	701	Sololá	3	Barraneche	11	Noviembre	2023-09-11T00:00:00	2024-11-06T14:00:00	7	Dirección del viento	12.87
60023	7	Sololá	701	Sololá	3	Barraneche	11	Noviembre	2023-09-11T00:00:00	2024-11-06T14:00:00	1	Precipitación	0
60024	7	Sololá	701	Sololá	3	Barraneche	11	Noviembre	2023-09-11T00:00:00	2024-11-06T14:00:00	8	Radiación solar	810
60025	7	Sololá	701	Sololá	3	Barraneche	11	Noviembre	2023-09-11T00:00:00	2024-11-06T15:00:00	2	Temperatura media	19.8
60026	7	Sololá	701	Sololá	3	Barraneche	11	Noviembre	2023-09-11T00:00:00	2024-11-06T15:00:00	4	Temperatura máxima	20.7
60027	7	Sololá	701	Sololá	3	Barraneche	11	Noviembre	2023-09-11T00:00:00	2024-11-06T15:00:00	3	Temperatura mínima	19.8
60028	7	Sololá	701	Sololá	3	Barraneche	11	Noviembre	2023-09-11T00:00:00	2024-11-06T15:00:00	5	Humedad	61
60029	7	Sololá	701	Sololá	3	Barraneche	11	Noviembre	2023-09-11T00:00:00	2024-11-06T15:00:00	6	Velocidad del viento	9.7
60030	7	Sololá	701	Sololá	3	Barraneche	11	Noviembre	2023-09-11T00:00:00	2024-11-06T15:00:00	7	Dirección del viento	9.66
60031	7	Sololá	701	Sololá	3	Barraneche	11	Noviembre	2023-09-11T00:00:00	2024-11-06T15:00:00	1	Precipitación	0
60032	7	Sololá	701	Sololá	3	Barraneche	11	Noviembre	2023-09-11T00:00:00	2024-11-06T15:00:00	8	Radiación solar	645
60033	7	Sololá	701	Sololá	3	Barraneche	11	Noviembre	2023-09-11T00:00:00	2024-11-06T16:00:00	2	Temperatura media	18.8
60034	7	Sololá	701	Sololá	3	Barraneche	11	Noviembre	2023-09-11T00:00:00	2024-11-06T16:00:00	4	Temperatura máxima	19.8
60035	7	Sololá	701	Sololá	3	Barraneche	11	Noviembre	2023-09-11T00:00:00	2024-11-06T16:00:00	3	Temperatura mínima	18.8
60036	7	Sololá	701	Sololá	3	Barraneche	11	Noviembre	2023-09-11T00:00:00	2024-11-06T16:00:00	5	Humedad	65
60037	7	Sololá	701	Sololá	3	Barraneche	11	Noviembre	2023-09-11T00:00:00	2024-11-06T16:00:00	6	Velocidad del viento	12.9
60038	7	Sololá	701	Sololá	3	Barraneche	11	Noviembre	2023-09-11T00:00:00	2024-11-06T16:00:00	7	Dirección del viento	12.87
60039	7	Sololá	701	Sololá	3	Barraneche	11	Noviembre	2023-09-11T00:00:00	2024-11-06T16:00:00	1	Precipitación	0
60040	7	Sololá	701	Sololá	3	Barraneche	11	Noviembre	2023-09-11T00:00:00	2024-11-06T16:00:00	8	Radiación solar	482
60041	7	Sololá	701	Sololá	3	Barraneche	11	Noviembre	2023-09-11T00:00:00	2024-11-06T17:00:00	2	Temperatura media	17.7
60042	7	Sololá	701	Sololá	3	Barraneche	11	Noviembre	2023-09-11T00:00:00	2024-11-06T17:00:00	4	Temperatura máxima	19.1
60043	7	Sololá	701	Sololá	3	Barraneche	11	Noviembre	2023-09-11T00:00:00	2024-11-06T17:00:00	3	Temperatura mínima	17.7
60044	7	Sololá	701	Sololá	3	Barraneche	11	Noviembre	2023-09-11T00:00:00	2024-11-06T17:00:00	5	Humedad	68
60045	7	Sololá	701	Sololá	3	Barraneche	11	Noviembre	2023-09-11T00:00:00	2024-11-06T17:00:00	6	Velocidad del viento	4.8
60046	7	Sololá	701	Sololá	3	Barraneche	11	Noviembre	2023-09-11T00:00:00	2024-11-06T17:00:00	7	Dirección del viento	4.83
60047	7	Sololá	701	Sololá	3	Barraneche	11	Noviembre	2023-09-11T00:00:00	2024-11-06T17:00:00	1	Precipitación	0
60048	7	Sololá	701	Sololá	3	Barraneche	11	Noviembre	2023-09-11T00:00:00	2024-11-06T17:00:00	8	Radiación solar	123
60049	7	Sololá	701	Sololá	3	Barraneche	11	Noviembre	2023-09-11T00:00:00	2024-11-06T18:00:00	2	Temperatura media	15.7
60050	7	Sololá	701	Sololá	3	Barraneche	11	Noviembre	2023-09-11T00:00:00	2024-11-06T18:00:00	4	Temperatura máxima	17.7
60051	7	Sololá	701	Sololá	3	Barraneche	11	Noviembre	2023-09-11T00:00:00	2024-11-06T18:00:00	3	Temperatura mínima	15.7
60052	7	Sololá	701	Sololá	3	Barraneche	11	Noviembre	2023-09-11T00:00:00	2024-11-06T18:00:00	5	Humedad	70
60053	7	Sololá	701	Sololá	3	Barraneche	11	Noviembre	2023-09-11T00:00:00	2024-11-06T18:00:00	6	Velocidad del viento	1.6
60054	7	Sololá	701	Sololá	3	Barraneche	11	Noviembre	2023-09-11T00:00:00	2024-11-06T18:00:00	7	Dirección del viento	1.61
60055	7	Sololá	701	Sololá	3	Barraneche	11	Noviembre	2023-09-11T00:00:00	2024-11-06T18:00:00	1	Precipitación	0
60056	7	Sololá	701	Sololá	3	Barraneche	11	Noviembre	2023-09-11T00:00:00	2024-11-06T18:00:00	8	Radiación solar	10
60057	7	Sololá	701	Sololá	3	Barraneche	11	Noviembre	2023-09-11T00:00:00	2024-11-06T19:00:00	2	Temperatura media	12.8
60058	7	Sololá	701	Sololá	3	Barraneche	11	Noviembre	2023-09-11T00:00:00	2024-11-06T19:00:00	4	Temperatura máxima	15.8
60059	7	Sololá	701	Sololá	3	Barraneche	11	Noviembre	2023-09-11T00:00:00	2024-11-06T19:00:00	3	Temperatura mínima	12.8
60060	7	Sololá	701	Sololá	3	Barraneche	11	Noviembre	2023-09-11T00:00:00	2024-11-06T19:00:00	5	Humedad	69
60061	7	Sololá	701	Sololá	3	Barraneche	11	Noviembre	2023-09-11T00:00:00	2024-11-06T19:00:00	6	Velocidad del viento	3.2
60062	7	Sololá	701	Sololá	3	Barraneche	11	Noviembre	2023-09-11T00:00:00	2024-11-06T19:00:00	7	Dirección del viento	3.22
60063	7	Sololá	701	Sololá	3	Barraneche	11	Noviembre	2023-09-11T00:00:00	2024-11-06T19:00:00	1	Precipitación	0
60064	7	Sololá	701	Sololá	3	Barraneche	11	Noviembre	2023-09-11T00:00:00	2024-11-06T19:00:00	8	Radiación solar	0
60065	7	Sololá	701	Sololá	3	Barraneche	11	Noviembre	2023-09-11T00:00:00	2024-11-06T20:00:00	2	Temperatura media	11.5
60066	7	Sololá	701	Sololá	3	Barraneche	11	Noviembre	2023-09-11T00:00:00	2024-11-06T20:00:00	4	Temperatura máxima	12.8
60067	7	Sololá	701	Sololá	3	Barraneche	11	Noviembre	2023-09-11T00:00:00	2024-11-06T20:00:00	3	Temperatura mínima	11.5
60068	7	Sololá	701	Sololá	3	Barraneche	11	Noviembre	2023-09-11T00:00:00	2024-11-06T20:00:00	5	Humedad	66
60069	7	Sololá	701	Sololá	3	Barraneche	11	Noviembre	2023-09-11T00:00:00	2024-11-06T20:00:00	6	Velocidad del viento	6.4
60070	7	Sololá	701	Sololá	3	Barraneche	11	Noviembre	2023-09-11T00:00:00	2024-11-06T20:00:00	7	Dirección del viento	6.44
60071	7	Sololá	701	Sololá	3	Barraneche	11	Noviembre	2023-09-11T00:00:00	2024-11-06T20:00:00	1	Precipitación	0
60072	7	Sololá	701	Sololá	3	Barraneche	11	Noviembre	2023-09-11T00:00:00	2024-11-06T20:00:00	8	Radiación solar	0
60073	7	Sololá	701	Sololá	3	Barraneche	11	Noviembre	2023-09-11T00:00:00	2024-11-06T21:00:00	2	Temperatura media	11.2
60074	7	Sololá	701	Sololá	3	Barraneche	11	Noviembre	2023-09-11T00:00:00	2024-11-06T21:00:00	4	Temperatura máxima	11.5
60075	7	Sololá	701	Sololá	3	Barraneche	11	Noviembre	2023-09-11T00:00:00	2024-11-06T21:00:00	3	Temperatura mínima	10.8
60076	7	Sololá	701	Sololá	3	Barraneche	11	Noviembre	2023-09-11T00:00:00	2024-11-06T21:00:00	5	Humedad	63
60077	7	Sololá	701	Sololá	3	Barraneche	11	Noviembre	2023-09-11T00:00:00	2024-11-06T21:00:00	6	Velocidad del viento	8
60078	7	Sololá	701	Sololá	3	Barraneche	11	Noviembre	2023-09-11T00:00:00	2024-11-06T21:00:00	7	Dirección del viento	8.05
60079	7	Sololá	701	Sololá	3	Barraneche	11	Noviembre	2023-09-11T00:00:00	2024-11-06T21:00:00	1	Precipitación	0
60080	7	Sololá	701	Sololá	3	Barraneche	11	Noviembre	2023-09-11T00:00:00	2024-11-06T21:00:00	8	Radiación solar	0
60081	7	Sololá	701	Sololá	3	Barraneche	11	Noviembre	2023-09-11T00:00:00	2024-11-06T22:00:00	2	Temperatura media	10.6
60082	7	Sololá	701	Sololá	3	Barraneche	11	Noviembre	2023-09-11T00:00:00	2024-11-06T22:00:00	4	Temperatura máxima	11.2
60083	7	Sololá	701	Sololá	3	Barraneche	11	Noviembre	2023-09-11T00:00:00	2024-11-06T22:00:00	3	Temperatura mínima	10.6
60084	7	Sololá	701	Sololá	3	Barraneche	11	Noviembre	2023-09-11T00:00:00	2024-11-06T22:00:00	5	Humedad	66
60085	7	Sololá	701	Sololá	3	Barraneche	11	Noviembre	2023-09-11T00:00:00	2024-11-06T22:00:00	6	Velocidad del viento	8
60086	7	Sololá	701	Sololá	3	Barraneche	11	Noviembre	2023-09-11T00:00:00	2024-11-06T22:00:00	7	Dirección del viento	8.05
60087	7	Sololá	701	Sololá	3	Barraneche	11	Noviembre	2023-09-11T00:00:00	2024-11-06T22:00:00	1	Precipitación	0
60088	7	Sololá	701	Sololá	3	Barraneche	11	Noviembre	2023-09-11T00:00:00	2024-11-06T22:00:00	8	Radiación solar	0
60089	7	Sololá	701	Sololá	3	Barraneche	11	Noviembre	2023-09-11T00:00:00	2024-11-06T23:00:00	2	Temperatura media	10.3
60090	7	Sololá	701	Sololá	3	Barraneche	11	Noviembre	2023-09-11T00:00:00	2024-11-06T23:00:00	4	Temperatura máxima	10.9
60091	7	Sololá	701	Sololá	3	Barraneche	11	Noviembre	2023-09-11T00:00:00	2024-11-06T23:00:00	3	Temperatura mínima	10.3
60092	7	Sololá	701	Sololá	3	Barraneche	11	Noviembre	2023-09-11T00:00:00	2024-11-06T23:00:00	5	Humedad	67
60093	7	Sololá	701	Sololá	3	Barraneche	11	Noviembre	2023-09-11T00:00:00	2024-11-06T23:00:00	6	Velocidad del viento	8
60094	7	Sololá	701	Sololá	3	Barraneche	11	Noviembre	2023-09-11T00:00:00	2024-11-06T23:00:00	7	Dirección del viento	8.05
60095	7	Sololá	701	Sololá	3	Barraneche	11	Noviembre	2023-09-11T00:00:00	2024-11-06T23:00:00	1	Precipitación	0
60096	7	Sololá	701	Sololá	3	Barraneche	11	Noviembre	2023-09-11T00:00:00	2024-11-06T23:00:00	8	Radiación solar	0
60097	7	Sololá	701	Sololá	3	Barraneche	11	Noviembre	2023-10-11T00:00:00	2024-11-06T00:00:00	2	Temperatura media	9.7
60098	7	Sololá	701	Sololá	3	Barraneche	11	Noviembre	2023-10-11T00:00:00	2024-11-06T00:00:00	4	Temperatura máxima	10.5
60099	7	Sololá	701	Sololá	3	Barraneche	11	Noviembre	2023-10-11T00:00:00	2024-11-06T00:00:00	3	Temperatura mínima	9.5
60100	7	Sololá	701	Sololá	3	Barraneche	11	Noviembre	2023-10-11T00:00:00	2024-11-06T00:00:00	5	Humedad	64
60101	7	Sololá	701	Sololá	3	Barraneche	11	Noviembre	2023-10-11T00:00:00	2024-11-06T00:00:00	6	Velocidad del viento	8
60102	7	Sololá	701	Sololá	3	Barraneche	11	Noviembre	2023-10-11T00:00:00	2024-11-06T00:00:00	7	Dirección del viento	8.05
60103	7	Sololá	701	Sololá	3	Barraneche	11	Noviembre	2023-10-11T00:00:00	2024-11-06T00:00:00	1	Precipitación	0
60104	7	Sololá	701	Sololá	3	Barraneche	11	Noviembre	2023-10-11T00:00:00	2024-11-06T00:00:00	8	Radiación solar	0
60105	7	Sololá	701	Sololá	3	Barraneche	11	Noviembre	2023-10-11T00:00:00	2024-11-06T01:00:00	2	Temperatura media	9.1
60106	7	Sololá	701	Sololá	3	Barraneche	11	Noviembre	2023-10-11T00:00:00	2024-11-06T01:00:00	4	Temperatura máxima	9.8
60107	7	Sololá	701	Sololá	3	Barraneche	11	Noviembre	2023-10-11T00:00:00	2024-11-06T01:00:00	3	Temperatura mínima	9
60108	7	Sololá	701	Sololá	3	Barraneche	11	Noviembre	2023-10-11T00:00:00	2024-11-06T01:00:00	5	Humedad	61
60109	7	Sololá	701	Sololá	3	Barraneche	11	Noviembre	2023-10-11T00:00:00	2024-11-06T01:00:00	6	Velocidad del viento	8
60110	7	Sololá	701	Sololá	3	Barraneche	11	Noviembre	2023-10-11T00:00:00	2024-11-06T01:00:00	7	Dirección del viento	8.05
60111	7	Sololá	701	Sololá	3	Barraneche	11	Noviembre	2023-10-11T00:00:00	2024-11-06T01:00:00	1	Precipitación	0
60112	7	Sololá	701	Sololá	3	Barraneche	11	Noviembre	2023-10-11T00:00:00	2024-11-06T01:00:00	8	Radiación solar	0
60113	7	Sololá	701	Sololá	3	Barraneche	11	Noviembre	2023-10-11T00:00:00	2024-11-06T02:00:00	2	Temperatura media	9.4
60114	7	Sololá	701	Sololá	3	Barraneche	11	Noviembre	2023-10-11T00:00:00	2024-11-06T02:00:00	4	Temperatura máxima	9.6
60115	7	Sololá	701	Sololá	3	Barraneche	11	Noviembre	2023-10-11T00:00:00	2024-11-06T02:00:00	3	Temperatura mínima	8.6
60116	7	Sololá	701	Sololá	3	Barraneche	11	Noviembre	2023-10-11T00:00:00	2024-11-06T02:00:00	5	Humedad	62
60117	7	Sololá	701	Sololá	3	Barraneche	11	Noviembre	2023-10-11T00:00:00	2024-11-06T02:00:00	6	Velocidad del viento	8
60118	7	Sololá	701	Sololá	3	Barraneche	11	Noviembre	2023-10-11T00:00:00	2024-11-06T02:00:00	7	Dirección del viento	8.05
60119	7	Sololá	701	Sololá	3	Barraneche	11	Noviembre	2023-10-11T00:00:00	2024-11-06T02:00:00	1	Precipitación	0
60120	7	Sololá	701	Sololá	3	Barraneche	11	Noviembre	2023-10-11T00:00:00	2024-11-06T02:00:00	8	Radiación solar	0
60121	7	Sololá	701	Sololá	3	Barraneche	11	Noviembre	2023-10-11T00:00:00	2024-11-06T03:00:00	2	Temperatura media	8.3
60122	7	Sololá	701	Sololá	3	Barraneche	11	Noviembre	2023-10-11T00:00:00	2024-11-06T03:00:00	4	Temperatura máxima	9.5
60123	7	Sololá	701	Sololá	3	Barraneche	11	Noviembre	2023-10-11T00:00:00	2024-11-06T03:00:00	3	Temperatura mínima	8.3
60124	7	Sololá	701	Sololá	3	Barraneche	11	Noviembre	2023-10-11T00:00:00	2024-11-06T03:00:00	5	Humedad	61
60125	7	Sololá	701	Sololá	3	Barraneche	11	Noviembre	2023-10-11T00:00:00	2024-11-06T03:00:00	6	Velocidad del viento	9.7
60126	7	Sololá	701	Sololá	3	Barraneche	11	Noviembre	2023-10-11T00:00:00	2024-11-06T03:00:00	7	Dirección del viento	9.66
60127	7	Sololá	701	Sololá	3	Barraneche	11	Noviembre	2023-10-11T00:00:00	2024-11-06T03:00:00	1	Precipitación	0
60128	7	Sololá	701	Sololá	3	Barraneche	11	Noviembre	2023-10-11T00:00:00	2024-11-06T03:00:00	8	Radiación solar	0
60129	7	Sololá	701	Sololá	3	Barraneche	11	Noviembre	2023-10-11T00:00:00	2024-11-06T04:00:00	2	Temperatura media	8.1
60130	7	Sololá	701	Sololá	3	Barraneche	11	Noviembre	2023-10-11T00:00:00	2024-11-06T04:00:00	4	Temperatura máxima	8.7
60131	7	Sololá	701	Sololá	3	Barraneche	11	Noviembre	2023-10-11T00:00:00	2024-11-06T04:00:00	3	Temperatura mínima	7.3
60132	7	Sololá	701	Sololá	3	Barraneche	11	Noviembre	2023-10-11T00:00:00	2024-11-06T04:00:00	5	Humedad	58
60133	7	Sololá	701	Sololá	3	Barraneche	11	Noviembre	2023-10-11T00:00:00	2024-11-06T04:00:00	6	Velocidad del viento	9.7
60134	7	Sololá	701	Sololá	3	Barraneche	11	Noviembre	2023-10-11T00:00:00	2024-11-06T04:00:00	7	Dirección del viento	9.66
60135	7	Sololá	701	Sololá	3	Barraneche	11	Noviembre	2023-10-11T00:00:00	2024-11-06T04:00:00	1	Precipitación	0
60136	7	Sololá	701	Sololá	3	Barraneche	11	Noviembre	2023-10-11T00:00:00	2024-11-06T04:00:00	8	Radiación solar	0
60137	7	Sololá	701	Sololá	3	Barraneche	11	Noviembre	2023-10-11T00:00:00	2024-11-06T05:00:00	2	Temperatura media	6.9
60138	7	Sololá	701	Sololá	3	Barraneche	11	Noviembre	2023-10-11T00:00:00	2024-11-06T05:00:00	4	Temperatura máxima	8.1
60139	7	Sololá	701	Sololá	3	Barraneche	11	Noviembre	2023-10-11T00:00:00	2024-11-06T05:00:00	3	Temperatura mínima	6.7
60140	7	Sololá	701	Sololá	3	Barraneche	11	Noviembre	2023-10-11T00:00:00	2024-11-06T05:00:00	5	Humedad	56
60141	7	Sololá	701	Sololá	3	Barraneche	11	Noviembre	2023-10-11T00:00:00	2024-11-06T05:00:00	6	Velocidad del viento	8
60142	7	Sololá	701	Sololá	3	Barraneche	11	Noviembre	2023-10-11T00:00:00	2024-11-06T05:00:00	7	Dirección del viento	8.05
60143	7	Sololá	701	Sololá	3	Barraneche	11	Noviembre	2023-10-11T00:00:00	2024-11-06T05:00:00	1	Precipitación	0
60144	7	Sololá	701	Sololá	3	Barraneche	11	Noviembre	2023-10-11T00:00:00	2024-11-06T05:00:00	8	Radiación solar	0
60145	7	Sololá	701	Sololá	3	Barraneche	11	Noviembre	2023-10-11T00:00:00	2024-11-06T06:00:00	2	Temperatura media	6.7
60146	7	Sololá	701	Sololá	3	Barraneche	11	Noviembre	2023-10-11T00:00:00	2024-11-06T06:00:00	4	Temperatura máxima	7.2
60147	7	Sololá	701	Sololá	3	Barraneche	11	Noviembre	2023-10-11T00:00:00	2024-11-06T06:00:00	3	Temperatura mínima	6.6
60148	7	Sololá	701	Sololá	3	Barraneche	11	Noviembre	2023-10-11T00:00:00	2024-11-06T06:00:00	5	Humedad	49
60149	7	Sololá	701	Sololá	3	Barraneche	11	Noviembre	2023-10-11T00:00:00	2024-11-06T06:00:00	6	Velocidad del viento	9.7
60150	7	Sololá	701	Sololá	3	Barraneche	11	Noviembre	2023-10-11T00:00:00	2024-11-06T06:00:00	7	Dirección del viento	9.66
60151	7	Sololá	701	Sololá	3	Barraneche	11	Noviembre	2023-10-11T00:00:00	2024-11-06T06:00:00	1	Precipitación	0
60152	7	Sololá	701	Sololá	3	Barraneche	11	Noviembre	2023-10-11T00:00:00	2024-11-06T06:00:00	8	Radiación solar	0
60153	7	Sololá	701	Sololá	3	Barraneche	11	Noviembre	2023-10-11T00:00:00	2024-11-06T07:00:00	2	Temperatura media	8.8
60154	7	Sololá	701	Sololá	3	Barraneche	11	Noviembre	2023-10-11T00:00:00	2024-11-06T07:00:00	4	Temperatura máxima	8.8
60155	7	Sololá	701	Sololá	3	Barraneche	11	Noviembre	2023-10-11T00:00:00	2024-11-06T07:00:00	3	Temperatura mínima	6.7
60156	7	Sololá	701	Sololá	3	Barraneche	11	Noviembre	2023-10-11T00:00:00	2024-11-06T07:00:00	5	Humedad	43
60157	7	Sololá	701	Sololá	3	Barraneche	11	Noviembre	2023-10-11T00:00:00	2024-11-06T07:00:00	6	Velocidad del viento	8
60158	7	Sololá	701	Sololá	3	Barraneche	11	Noviembre	2023-10-11T00:00:00	2024-11-06T07:00:00	7	Dirección del viento	8.05
60159	7	Sololá	701	Sololá	3	Barraneche	11	Noviembre	2023-10-11T00:00:00	2024-11-06T07:00:00	1	Precipitación	0
60160	7	Sololá	701	Sololá	3	Barraneche	11	Noviembre	2023-10-11T00:00:00	2024-11-06T07:00:00	8	Radiación solar	42
60161	7	Sololá	701	Sololá	3	Barraneche	11	Noviembre	2023-10-11T00:00:00	2024-11-06T08:00:00	2	Temperatura media	13.7
60162	7	Sololá	701	Sololá	3	Barraneche	11	Noviembre	2023-10-11T00:00:00	2024-11-06T08:00:00	4	Temperatura máxima	13.7
60163	7	Sololá	701	Sololá	3	Barraneche	11	Noviembre	2023-10-11T00:00:00	2024-11-06T08:00:00	3	Temperatura mínima	8.8
60164	7	Sololá	701	Sololá	3	Barraneche	11	Noviembre	2023-10-11T00:00:00	2024-11-06T08:00:00	5	Humedad	38
60165	7	Sololá	701	Sololá	3	Barraneche	11	Noviembre	2023-10-11T00:00:00	2024-11-06T08:00:00	6	Velocidad del viento	4.8
60166	7	Sololá	701	Sololá	3	Barraneche	11	Noviembre	2023-10-11T00:00:00	2024-11-06T08:00:00	7	Dirección del viento	4.83
60167	7	Sololá	701	Sololá	3	Barraneche	11	Noviembre	2023-10-11T00:00:00	2024-11-06T08:00:00	1	Precipitación	0
60168	7	Sololá	701	Sololá	3	Barraneche	11	Noviembre	2023-10-11T00:00:00	2024-11-06T08:00:00	8	Radiación solar	295
60169	7	Sololá	701	Sololá	3	Barraneche	11	Noviembre	2023-10-11T00:00:00	2024-11-06T09:00:00	2	Temperatura media	19.3
60170	7	Sololá	701	Sololá	3	Barraneche	11	Noviembre	2023-10-11T00:00:00	2024-11-06T09:00:00	4	Temperatura máxima	19.3
60171	7	Sololá	701	Sololá	3	Barraneche	11	Noviembre	2023-10-11T00:00:00	2024-11-06T09:00:00	3	Temperatura mínima	13.7
60172	7	Sololá	701	Sololá	3	Barraneche	11	Noviembre	2023-10-11T00:00:00	2024-11-06T09:00:00	5	Humedad	23
60173	7	Sololá	701	Sololá	3	Barraneche	11	Noviembre	2023-10-11T00:00:00	2024-11-06T09:00:00	6	Velocidad del viento	3.2
60174	7	Sololá	701	Sololá	3	Barraneche	11	Noviembre	2023-10-11T00:00:00	2024-11-06T09:00:00	7	Dirección del viento	3.22
60175	7	Sololá	701	Sololá	3	Barraneche	11	Noviembre	2023-10-11T00:00:00	2024-11-06T09:00:00	1	Precipitación	0
60176	7	Sololá	701	Sololá	3	Barraneche	11	Noviembre	2023-10-11T00:00:00	2024-11-06T09:00:00	8	Radiación solar	531
60177	7	Sololá	701	Sololá	3	Barraneche	11	Noviembre	2023-10-11T00:00:00	2024-11-06T10:00:00	2	Temperatura media	19.6
60178	7	Sololá	701	Sololá	3	Barraneche	11	Noviembre	2023-10-11T00:00:00	2024-11-06T10:00:00	4	Temperatura máxima	19.8
60179	7	Sololá	701	Sololá	3	Barraneche	11	Noviembre	2023-10-11T00:00:00	2024-11-06T10:00:00	3	Temperatura mínima	19.3
60180	7	Sololá	701	Sololá	3	Barraneche	11	Noviembre	2023-10-11T00:00:00	2024-11-06T10:00:00	5	Humedad	32
60181	7	Sololá	701	Sololá	3	Barraneche	11	Noviembre	2023-10-11T00:00:00	2024-11-06T10:00:00	6	Velocidad del viento	9.7
60182	7	Sololá	701	Sololá	3	Barraneche	11	Noviembre	2023-10-11T00:00:00	2024-11-06T10:00:00	7	Dirección del viento	9.66
60183	7	Sololá	701	Sololá	3	Barraneche	11	Noviembre	2023-10-11T00:00:00	2024-11-06T10:00:00	1	Precipitación	0
60184	7	Sololá	701	Sololá	3	Barraneche	11	Noviembre	2023-10-11T00:00:00	2024-11-06T10:00:00	8	Radiación solar	722
60185	7	Sololá	701	Sololá	3	Barraneche	11	Noviembre	2023-10-11T00:00:00	2024-11-06T11:00:00	2	Temperatura media	20.2
60186	7	Sololá	701	Sololá	3	Barraneche	11	Noviembre	2023-10-11T00:00:00	2024-11-06T11:00:00	4	Temperatura máxima	20.2
60187	7	Sololá	701	Sololá	3	Barraneche	11	Noviembre	2023-10-11T00:00:00	2024-11-06T11:00:00	3	Temperatura mínima	19.6
60188	7	Sololá	701	Sololá	3	Barraneche	11	Noviembre	2023-10-11T00:00:00	2024-11-06T11:00:00	5	Humedad	39
60189	7	Sololá	701	Sololá	3	Barraneche	11	Noviembre	2023-10-11T00:00:00	2024-11-06T11:00:00	6	Velocidad del viento	8
60190	7	Sololá	701	Sololá	3	Barraneche	11	Noviembre	2023-10-11T00:00:00	2024-11-06T11:00:00	7	Dirección del viento	8.05
60191	7	Sololá	701	Sololá	3	Barraneche	11	Noviembre	2023-10-11T00:00:00	2024-11-06T11:00:00	1	Precipitación	0
60192	7	Sololá	701	Sololá	3	Barraneche	11	Noviembre	2023-10-11T00:00:00	2024-11-06T11:00:00	8	Radiación solar	849
60193	7	Sololá	701	Sololá	3	Barraneche	11	Noviembre	2023-10-11T00:00:00	2024-11-06T12:00:00	2	Temperatura media	20.1
60194	7	Sololá	701	Sololá	3	Barraneche	11	Noviembre	2023-10-11T00:00:00	2024-11-06T12:00:00	4	Temperatura máxima	20.7
60195	7	Sololá	701	Sololá	3	Barraneche	11	Noviembre	2023-10-11T00:00:00	2024-11-06T12:00:00	3	Temperatura mínima	19.9
60196	7	Sololá	701	Sololá	3	Barraneche	11	Noviembre	2023-10-11T00:00:00	2024-11-06T12:00:00	5	Humedad	39
60197	7	Sololá	701	Sololá	3	Barraneche	11	Noviembre	2023-10-11T00:00:00	2024-11-06T12:00:00	6	Velocidad del viento	11.3
60198	7	Sololá	701	Sololá	3	Barraneche	11	Noviembre	2023-10-11T00:00:00	2024-11-06T12:00:00	7	Dirección del viento	11.27
60199	7	Sololá	701	Sololá	3	Barraneche	11	Noviembre	2023-10-11T00:00:00	2024-11-06T12:00:00	1	Precipitación	0
60200	7	Sololá	701	Sololá	3	Barraneche	11	Noviembre	2023-10-11T00:00:00	2024-11-06T12:00:00	8	Radiación solar	901
60201	7	Sololá	701	Sololá	3	Barraneche	11	Noviembre	2023-10-11T00:00:00	2024-11-06T13:00:00	2	Temperatura media	20.1
60202	7	Sololá	701	Sololá	3	Barraneche	11	Noviembre	2023-10-11T00:00:00	2024-11-06T13:00:00	4	Temperatura máxima	20.2
60203	7	Sololá	701	Sololá	3	Barraneche	11	Noviembre	2023-10-11T00:00:00	2024-11-06T13:00:00	3	Temperatura mínima	19.8
60204	7	Sololá	701	Sololá	3	Barraneche	11	Noviembre	2023-10-11T00:00:00	2024-11-06T13:00:00	5	Humedad	43
60205	7	Sololá	701	Sololá	3	Barraneche	11	Noviembre	2023-10-11T00:00:00	2024-11-06T13:00:00	6	Velocidad del viento	11.3
60206	7	Sololá	701	Sololá	3	Barraneche	11	Noviembre	2023-10-11T00:00:00	2024-11-06T13:00:00	7	Dirección del viento	11.27
60207	7	Sololá	701	Sololá	3	Barraneche	11	Noviembre	2023-10-11T00:00:00	2024-11-06T13:00:00	1	Precipitación	0
60208	7	Sololá	701	Sololá	3	Barraneche	11	Noviembre	2023-10-11T00:00:00	2024-11-06T13:00:00	8	Radiación solar	886
60209	7	Sololá	701	Sololá	3	Barraneche	11	Noviembre	2023-10-11T00:00:00	2024-11-06T14:00:00	2	Temperatura media	20.8
60210	7	Sololá	701	Sololá	3	Barraneche	11	Noviembre	2023-10-11T00:00:00	2024-11-06T14:00:00	4	Temperatura máxima	20.8
60211	7	Sololá	701	Sololá	3	Barraneche	11	Noviembre	2023-10-11T00:00:00	2024-11-06T14:00:00	3	Temperatura mínima	20.1
60212	7	Sololá	701	Sololá	3	Barraneche	11	Noviembre	2023-10-11T00:00:00	2024-11-06T14:00:00	5	Humedad	47
60213	7	Sololá	701	Sololá	3	Barraneche	11	Noviembre	2023-10-11T00:00:00	2024-11-06T14:00:00	6	Velocidad del viento	11.3
60214	7	Sololá	701	Sololá	3	Barraneche	11	Noviembre	2023-10-11T00:00:00	2024-11-06T14:00:00	7	Dirección del viento	11.27
60215	7	Sololá	701	Sololá	3	Barraneche	11	Noviembre	2023-10-11T00:00:00	2024-11-06T14:00:00	1	Precipitación	0
60216	7	Sololá	701	Sololá	3	Barraneche	11	Noviembre	2023-10-11T00:00:00	2024-11-06T14:00:00	8	Radiación solar	807
60217	7	Sololá	701	Sololá	3	Barraneche	11	Noviembre	2023-10-11T00:00:00	2024-11-06T15:00:00	2	Temperatura media	19.9
60218	7	Sololá	701	Sololá	3	Barraneche	11	Noviembre	2023-10-11T00:00:00	2024-11-06T15:00:00	4	Temperatura máxima	21
60219	7	Sololá	701	Sololá	3	Barraneche	11	Noviembre	2023-10-11T00:00:00	2024-11-06T15:00:00	3	Temperatura mínima	19.8
60220	7	Sololá	701	Sololá	3	Barraneche	11	Noviembre	2023-10-11T00:00:00	2024-11-06T15:00:00	5	Humedad	56
60221	7	Sololá	701	Sololá	3	Barraneche	11	Noviembre	2023-10-11T00:00:00	2024-11-06T15:00:00	6	Velocidad del viento	12.9
60222	7	Sololá	701	Sololá	3	Barraneche	11	Noviembre	2023-10-11T00:00:00	2024-11-06T15:00:00	7	Dirección del viento	12.87
60223	7	Sololá	701	Sololá	3	Barraneche	11	Noviembre	2023-10-11T00:00:00	2024-11-06T15:00:00	1	Precipitación	0
60224	7	Sololá	701	Sololá	3	Barraneche	11	Noviembre	2023-10-11T00:00:00	2024-11-06T15:00:00	8	Radiación solar	670
60225	7	Sololá	701	Sololá	3	Barraneche	11	Noviembre	2023-10-11T00:00:00	2024-11-06T16:00:00	2	Temperatura media	18.7
60226	7	Sololá	701	Sololá	3	Barraneche	11	Noviembre	2023-10-11T00:00:00	2024-11-06T16:00:00	4	Temperatura máxima	20.1
60227	7	Sololá	701	Sololá	3	Barraneche	11	Noviembre	2023-10-11T00:00:00	2024-11-06T16:00:00	3	Temperatura mínima	18.7
60228	7	Sololá	701	Sololá	3	Barraneche	11	Noviembre	2023-10-11T00:00:00	2024-11-06T16:00:00	5	Humedad	54
60229	7	Sololá	701	Sololá	3	Barraneche	11	Noviembre	2023-10-11T00:00:00	2024-11-06T16:00:00	6	Velocidad del viento	9.7
60230	7	Sololá	701	Sololá	3	Barraneche	11	Noviembre	2023-10-11T00:00:00	2024-11-06T16:00:00	7	Dirección del viento	9.66
60231	7	Sololá	701	Sololá	3	Barraneche	11	Noviembre	2023-10-11T00:00:00	2024-11-06T16:00:00	1	Precipitación	0
60232	7	Sololá	701	Sololá	3	Barraneche	11	Noviembre	2023-10-11T00:00:00	2024-11-06T16:00:00	8	Radiación solar	273
60233	7	Sololá	701	Sololá	3	Barraneche	11	Noviembre	2023-10-11T00:00:00	2024-11-06T17:00:00	2	Temperatura media	17.5
60234	7	Sololá	701	Sololá	3	Barraneche	11	Noviembre	2023-10-11T00:00:00	2024-11-06T17:00:00	4	Temperatura máxima	19.1
60235	7	Sololá	701	Sololá	3	Barraneche	11	Noviembre	2023-10-11T00:00:00	2024-11-06T17:00:00	3	Temperatura mínima	17.5
60236	7	Sololá	701	Sololá	3	Barraneche	11	Noviembre	2023-10-11T00:00:00	2024-11-06T17:00:00	5	Humedad	56
60237	7	Sololá	701	Sololá	3	Barraneche	11	Noviembre	2023-10-11T00:00:00	2024-11-06T17:00:00	6	Velocidad del viento	6.4
60238	7	Sololá	701	Sololá	3	Barraneche	11	Noviembre	2023-10-11T00:00:00	2024-11-06T17:00:00	7	Dirección del viento	6.44
60239	7	Sololá	701	Sololá	3	Barraneche	11	Noviembre	2023-10-11T00:00:00	2024-11-06T17:00:00	1	Precipitación	0
60240	7	Sololá	701	Sololá	3	Barraneche	11	Noviembre	2023-10-11T00:00:00	2024-11-06T17:00:00	8	Radiación solar	71
60241	7	Sololá	701	Sololá	3	Barraneche	11	Noviembre	2023-10-11T00:00:00	2024-11-06T18:00:00	2	Temperatura media	15.9
60242	7	Sololá	701	Sololá	3	Barraneche	11	Noviembre	2023-10-11T00:00:00	2024-11-06T18:00:00	4	Temperatura máxima	17.4
60243	7	Sololá	701	Sololá	3	Barraneche	11	Noviembre	2023-10-11T00:00:00	2024-11-06T18:00:00	3	Temperatura mínima	15.9
60244	7	Sololá	701	Sololá	3	Barraneche	11	Noviembre	2023-10-11T00:00:00	2024-11-06T18:00:00	5	Humedad	60
60245	7	Sololá	701	Sololá	3	Barraneche	11	Noviembre	2023-10-11T00:00:00	2024-11-06T18:00:00	6	Velocidad del viento	6.4
60246	7	Sololá	701	Sololá	3	Barraneche	11	Noviembre	2023-10-11T00:00:00	2024-11-06T18:00:00	7	Dirección del viento	6.44
60247	7	Sololá	701	Sololá	3	Barraneche	11	Noviembre	2023-10-11T00:00:00	2024-11-06T18:00:00	1	Precipitación	0
60248	7	Sololá	701	Sololá	3	Barraneche	11	Noviembre	2023-10-11T00:00:00	2024-11-06T18:00:00	8	Radiación solar	8
60249	7	Sololá	701	Sololá	3	Barraneche	11	Noviembre	2023-10-11T00:00:00	2024-11-06T19:00:00	2	Temperatura media	15.4
60250	7	Sololá	701	Sololá	3	Barraneche	11	Noviembre	2023-10-11T00:00:00	2024-11-06T19:00:00	4	Temperatura máxima	15.9
60251	7	Sololá	701	Sololá	3	Barraneche	11	Noviembre	2023-10-11T00:00:00	2024-11-06T19:00:00	3	Temperatura mínima	15.3
60252	7	Sololá	701	Sololá	3	Barraneche	11	Noviembre	2023-10-11T00:00:00	2024-11-06T19:00:00	5	Humedad	64
60253	7	Sololá	701	Sololá	3	Barraneche	11	Noviembre	2023-10-11T00:00:00	2024-11-06T19:00:00	6	Velocidad del viento	9.7
60254	7	Sololá	701	Sololá	3	Barraneche	11	Noviembre	2023-10-11T00:00:00	2024-11-06T19:00:00	7	Dirección del viento	9.66
60255	7	Sololá	701	Sololá	3	Barraneche	11	Noviembre	2023-10-11T00:00:00	2024-11-06T19:00:00	1	Precipitación	0
60256	7	Sololá	701	Sololá	3	Barraneche	11	Noviembre	2023-10-11T00:00:00	2024-11-06T19:00:00	8	Radiación solar	0
60257	7	Sololá	701	Sololá	3	Barraneche	11	Noviembre	2023-10-11T00:00:00	2024-11-06T20:00:00	2	Temperatura media	16.3
60258	7	Sololá	701	Sololá	3	Barraneche	11	Noviembre	2023-10-11T00:00:00	2024-11-06T20:00:00	4	Temperatura máxima	16.4
60259	7	Sololá	701	Sololá	3	Barraneche	11	Noviembre	2023-10-11T00:00:00	2024-11-06T20:00:00	3	Temperatura mínima	15.4
60260	7	Sololá	701	Sololá	3	Barraneche	11	Noviembre	2023-10-11T00:00:00	2024-11-06T20:00:00	5	Humedad	59
60261	7	Sololá	701	Sololá	3	Barraneche	11	Noviembre	2023-10-11T00:00:00	2024-11-06T20:00:00	6	Velocidad del viento	16.1
60262	7	Sololá	701	Sololá	3	Barraneche	11	Noviembre	2023-10-11T00:00:00	2024-11-06T20:00:00	7	Dirección del viento	16.09
60263	7	Sololá	701	Sololá	3	Barraneche	11	Noviembre	2023-10-11T00:00:00	2024-11-06T20:00:00	1	Precipitación	0
60264	7	Sololá	701	Sololá	3	Barraneche	11	Noviembre	2023-10-11T00:00:00	2024-11-06T20:00:00	8	Radiación solar	0
60265	7	Sololá	701	Sololá	3	Barraneche	11	Noviembre	2023-10-11T00:00:00	2024-11-06T21:00:00	2	Temperatura media	16.2
60266	7	Sololá	701	Sololá	3	Barraneche	11	Noviembre	2023-10-11T00:00:00	2024-11-06T21:00:00	4	Temperatura máxima	16.9
60267	7	Sololá	701	Sololá	3	Barraneche	11	Noviembre	2023-10-11T00:00:00	2024-11-06T21:00:00	3	Temperatura mínima	16.2
60268	7	Sololá	701	Sololá	3	Barraneche	11	Noviembre	2023-10-11T00:00:00	2024-11-06T21:00:00	5	Humedad	62
60269	7	Sololá	701	Sololá	3	Barraneche	11	Noviembre	2023-10-11T00:00:00	2024-11-06T21:00:00	6	Velocidad del viento	20.9
60270	7	Sololá	701	Sololá	3	Barraneche	11	Noviembre	2023-10-11T00:00:00	2024-11-06T21:00:00	7	Dirección del viento	20.92
60271	7	Sololá	701	Sololá	3	Barraneche	11	Noviembre	2023-10-11T00:00:00	2024-11-06T21:00:00	1	Precipitación	0
60272	7	Sololá	701	Sololá	3	Barraneche	11	Noviembre	2023-10-11T00:00:00	2024-11-06T21:00:00	8	Radiación solar	0
60273	7	Sololá	701	Sololá	3	Barraneche	11	Noviembre	2023-10-11T00:00:00	2024-11-06T22:00:00	2	Temperatura media	15.9
60274	7	Sololá	701	Sololá	3	Barraneche	11	Noviembre	2023-10-11T00:00:00	2024-11-06T22:00:00	4	Temperatura máxima	16.3
60275	7	Sololá	701	Sololá	3	Barraneche	11	Noviembre	2023-10-11T00:00:00	2024-11-06T22:00:00	3	Temperatura mínima	15.8
60276	7	Sololá	701	Sololá	3	Barraneche	11	Noviembre	2023-10-11T00:00:00	2024-11-06T22:00:00	5	Humedad	63
60277	7	Sololá	701	Sololá	3	Barraneche	11	Noviembre	2023-10-11T00:00:00	2024-11-06T22:00:00	6	Velocidad del viento	19.3
60278	7	Sololá	701	Sololá	3	Barraneche	11	Noviembre	2023-10-11T00:00:00	2024-11-06T22:00:00	7	Dirección del viento	19.31
60279	7	Sololá	701	Sololá	3	Barraneche	11	Noviembre	2023-10-11T00:00:00	2024-11-06T22:00:00	1	Precipitación	0
60280	7	Sololá	701	Sololá	3	Barraneche	11	Noviembre	2023-10-11T00:00:00	2024-11-06T22:00:00	8	Radiación solar	0
60281	7	Sololá	701	Sololá	3	Barraneche	11	Noviembre	2023-10-11T00:00:00	2024-11-06T23:00:00	2	Temperatura media	15.8
60282	7	Sololá	701	Sololá	3	Barraneche	11	Noviembre	2023-10-11T00:00:00	2024-11-06T23:00:00	4	Temperatura máxima	16.2
60283	7	Sololá	701	Sololá	3	Barraneche	11	Noviembre	2023-10-11T00:00:00	2024-11-06T23:00:00	3	Temperatura mínima	15.8
60284	7	Sololá	701	Sololá	3	Barraneche	11	Noviembre	2023-10-11T00:00:00	2024-11-06T23:00:00	5	Humedad	66
60285	7	Sololá	701	Sololá	3	Barraneche	11	Noviembre	2023-10-11T00:00:00	2024-11-06T23:00:00	6	Velocidad del viento	22.5
60286	7	Sololá	701	Sololá	3	Barraneche	11	Noviembre	2023-10-11T00:00:00	2024-11-06T23:00:00	7	Dirección del viento	22.53
60287	7	Sololá	701	Sololá	3	Barraneche	11	Noviembre	2023-10-11T00:00:00	2024-11-06T23:00:00	1	Precipitación	0
60288	7	Sololá	701	Sololá	3	Barraneche	11	Noviembre	2023-10-11T00:00:00	2024-11-06T23:00:00	8	Radiación solar	0
60289	7	Sololá	701	Sololá	3	Barraneche	11	Noviembre	2023-11-11T00:00:00	2024-11-06T00:00:00	2	Temperatura media	15.8
60290	7	Sololá	701	Sololá	3	Barraneche	11	Noviembre	2023-11-11T00:00:00	2024-11-06T00:00:00	4	Temperatura máxima	16.1
60291	7	Sololá	701	Sololá	3	Barraneche	11	Noviembre	2023-11-11T00:00:00	2024-11-06T00:00:00	3	Temperatura mínima	15.5
60292	7	Sololá	701	Sololá	3	Barraneche	11	Noviembre	2023-11-11T00:00:00	2024-11-06T00:00:00	5	Humedad	65
60293	7	Sololá	701	Sololá	3	Barraneche	11	Noviembre	2023-11-11T00:00:00	2024-11-06T00:00:00	6	Velocidad del viento	20.9
60294	7	Sololá	701	Sololá	3	Barraneche	11	Noviembre	2023-11-11T00:00:00	2024-11-06T00:00:00	7	Dirección del viento	20.92
60295	7	Sololá	701	Sololá	3	Barraneche	11	Noviembre	2023-11-11T00:00:00	2024-11-06T00:00:00	1	Precipitación	0
60296	7	Sololá	701	Sololá	3	Barraneche	11	Noviembre	2023-11-11T00:00:00	2024-11-06T00:00:00	8	Radiación solar	0
60297	7	Sololá	701	Sololá	3	Barraneche	11	Noviembre	2023-11-11T00:00:00	2024-11-06T01:00:00	2	Temperatura media	15.6
60298	7	Sololá	701	Sololá	3	Barraneche	11	Noviembre	2023-11-11T00:00:00	2024-11-06T01:00:00	4	Temperatura máxima	15.8
60299	7	Sololá	701	Sololá	3	Barraneche	11	Noviembre	2023-11-11T00:00:00	2024-11-06T01:00:00	3	Temperatura mínima	15.3
60300	7	Sololá	701	Sololá	3	Barraneche	11	Noviembre	2023-11-11T00:00:00	2024-11-06T01:00:00	5	Humedad	65
60301	7	Sololá	701	Sololá	3	Barraneche	11	Noviembre	2023-11-11T00:00:00	2024-11-06T01:00:00	6	Velocidad del viento	19.3
60302	7	Sololá	701	Sololá	3	Barraneche	11	Noviembre	2023-11-11T00:00:00	2024-11-06T01:00:00	7	Dirección del viento	19.31
60303	7	Sololá	701	Sololá	3	Barraneche	11	Noviembre	2023-11-11T00:00:00	2024-11-06T01:00:00	1	Precipitación	0
60304	7	Sololá	701	Sololá	3	Barraneche	11	Noviembre	2023-11-11T00:00:00	2024-11-06T01:00:00	8	Radiación solar	0
60305	7	Sololá	701	Sololá	3	Barraneche	11	Noviembre	2023-11-11T00:00:00	2024-11-06T02:00:00	2	Temperatura media	15.7
60306	7	Sololá	701	Sololá	3	Barraneche	11	Noviembre	2023-11-11T00:00:00	2024-11-06T02:00:00	4	Temperatura máxima	15.9
60307	7	Sololá	701	Sololá	3	Barraneche	11	Noviembre	2023-11-11T00:00:00	2024-11-06T02:00:00	3	Temperatura mínima	15.6
60308	7	Sololá	701	Sololá	3	Barraneche	11	Noviembre	2023-11-11T00:00:00	2024-11-06T02:00:00	5	Humedad	62
60309	7	Sololá	701	Sololá	3	Barraneche	11	Noviembre	2023-11-11T00:00:00	2024-11-06T02:00:00	6	Velocidad del viento	12.9
60310	7	Sololá	701	Sololá	3	Barraneche	11	Noviembre	2023-11-11T00:00:00	2024-11-06T02:00:00	7	Dirección del viento	12.87
60311	7	Sololá	701	Sololá	3	Barraneche	11	Noviembre	2023-11-11T00:00:00	2024-11-06T02:00:00	1	Precipitación	0
60312	7	Sololá	701	Sololá	3	Barraneche	11	Noviembre	2023-11-11T00:00:00	2024-11-06T02:00:00	8	Radiación solar	0
60313	7	Sololá	701	Sololá	3	Barraneche	11	Noviembre	2023-11-11T00:00:00	2024-11-06T03:00:00	2	Temperatura media	13.2
60314	7	Sololá	701	Sololá	3	Barraneche	11	Noviembre	2023-11-11T00:00:00	2024-11-06T03:00:00	4	Temperatura máxima	15.7
60315	7	Sololá	701	Sololá	3	Barraneche	11	Noviembre	2023-11-11T00:00:00	2024-11-06T03:00:00	3	Temperatura mínima	13.2
60316	7	Sololá	701	Sololá	3	Barraneche	11	Noviembre	2023-11-11T00:00:00	2024-11-06T03:00:00	5	Humedad	68
60317	7	Sololá	701	Sololá	3	Barraneche	11	Noviembre	2023-11-11T00:00:00	2024-11-06T03:00:00	6	Velocidad del viento	6.4
60318	7	Sololá	701	Sololá	3	Barraneche	11	Noviembre	2023-11-11T00:00:00	2024-11-06T03:00:00	7	Dirección del viento	6.44
60319	7	Sololá	701	Sololá	3	Barraneche	11	Noviembre	2023-11-11T00:00:00	2024-11-06T03:00:00	1	Precipitación	0
60320	7	Sololá	701	Sololá	3	Barraneche	11	Noviembre	2023-11-11T00:00:00	2024-11-06T03:00:00	8	Radiación solar	0
60321	7	Sololá	701	Sololá	3	Barraneche	11	Noviembre	2023-11-11T00:00:00	2024-11-06T04:00:00	2	Temperatura media	13.8
60322	7	Sololá	701	Sololá	3	Barraneche	11	Noviembre	2023-11-11T00:00:00	2024-11-06T04:00:00	4	Temperatura máxima	13.8
60323	7	Sololá	701	Sololá	3	Barraneche	11	Noviembre	2023-11-11T00:00:00	2024-11-06T04:00:00	3	Temperatura mínima	12.7
60324	7	Sololá	701	Sololá	3	Barraneche	11	Noviembre	2023-11-11T00:00:00	2024-11-06T04:00:00	5	Humedad	67
60325	7	Sololá	701	Sololá	3	Barraneche	11	Noviembre	2023-11-11T00:00:00	2024-11-06T04:00:00	6	Velocidad del viento	6.4
60326	7	Sololá	701	Sololá	3	Barraneche	11	Noviembre	2023-11-11T00:00:00	2024-11-06T04:00:00	7	Dirección del viento	6.44
60327	7	Sololá	701	Sololá	3	Barraneche	11	Noviembre	2023-11-11T00:00:00	2024-11-06T04:00:00	1	Precipitación	0
60328	7	Sololá	701	Sololá	3	Barraneche	11	Noviembre	2023-11-11T00:00:00	2024-11-06T04:00:00	8	Radiación solar	0
60329	7	Sololá	701	Sololá	3	Barraneche	11	Noviembre	2023-11-11T00:00:00	2024-11-06T05:00:00	2	Temperatura media	15.4
60330	7	Sololá	701	Sololá	3	Barraneche	11	Noviembre	2023-11-11T00:00:00	2024-11-06T05:00:00	4	Temperatura máxima	15.4
60331	7	Sololá	701	Sololá	3	Barraneche	11	Noviembre	2023-11-11T00:00:00	2024-11-06T05:00:00	3	Temperatura mínima	13.8
60332	7	Sololá	701	Sololá	3	Barraneche	11	Noviembre	2023-11-11T00:00:00	2024-11-06T05:00:00	5	Humedad	63
60333	7	Sololá	701	Sololá	3	Barraneche	11	Noviembre	2023-11-11T00:00:00	2024-11-06T05:00:00	6	Velocidad del viento	11.3
60334	7	Sololá	701	Sololá	3	Barraneche	11	Noviembre	2023-11-11T00:00:00	2024-11-06T05:00:00	7	Dirección del viento	11.27
60335	7	Sololá	701	Sololá	3	Barraneche	11	Noviembre	2023-11-11T00:00:00	2024-11-06T05:00:00	1	Precipitación	0
60336	7	Sololá	701	Sololá	3	Barraneche	11	Noviembre	2023-11-11T00:00:00	2024-11-06T05:00:00	8	Radiación solar	0
60337	7	Sololá	701	Sololá	3	Barraneche	11	Noviembre	2023-11-11T00:00:00	2024-11-06T06:00:00	2	Temperatura media	14.8
60338	7	Sololá	701	Sololá	3	Barraneche	11	Noviembre	2023-11-11T00:00:00	2024-11-06T06:00:00	4	Temperatura máxima	15.6
60339	7	Sololá	701	Sololá	3	Barraneche	11	Noviembre	2023-11-11T00:00:00	2024-11-06T06:00:00	3	Temperatura mínima	14.6
60340	7	Sololá	701	Sololá	3	Barraneche	11	Noviembre	2023-11-11T00:00:00	2024-11-06T06:00:00	5	Humedad	66
60341	7	Sololá	701	Sololá	3	Barraneche	11	Noviembre	2023-11-11T00:00:00	2024-11-06T06:00:00	6	Velocidad del viento	14.5
60342	7	Sololá	701	Sololá	3	Barraneche	11	Noviembre	2023-11-11T00:00:00	2024-11-06T06:00:00	7	Dirección del viento	14.48
60343	7	Sololá	701	Sololá	3	Barraneche	11	Noviembre	2023-11-11T00:00:00	2024-11-06T06:00:00	1	Precipitación	0
60344	7	Sololá	701	Sololá	3	Barraneche	11	Noviembre	2023-11-11T00:00:00	2024-11-06T06:00:00	8	Radiación solar	0
60345	7	Sololá	701	Sololá	3	Barraneche	11	Noviembre	2023-11-11T00:00:00	2024-11-06T07:00:00	2	Temperatura media	14.8
60346	7	Sololá	701	Sololá	3	Barraneche	11	Noviembre	2023-11-11T00:00:00	2024-11-06T07:00:00	4	Temperatura máxima	14.9
60347	7	Sololá	701	Sololá	3	Barraneche	11	Noviembre	2023-11-11T00:00:00	2024-11-06T07:00:00	3	Temperatura mínima	14.3
60348	7	Sololá	701	Sololá	3	Barraneche	11	Noviembre	2023-11-11T00:00:00	2024-11-06T07:00:00	5	Humedad	65
60349	7	Sololá	701	Sololá	3	Barraneche	11	Noviembre	2023-11-11T00:00:00	2024-11-06T07:00:00	6	Velocidad del viento	12.9
60350	7	Sololá	701	Sololá	3	Barraneche	11	Noviembre	2023-11-11T00:00:00	2024-11-06T07:00:00	7	Dirección del viento	12.87
60351	7	Sololá	701	Sololá	3	Barraneche	11	Noviembre	2023-11-11T00:00:00	2024-11-06T07:00:00	1	Precipitación	0
60352	7	Sololá	701	Sololá	3	Barraneche	11	Noviembre	2023-11-11T00:00:00	2024-11-06T07:00:00	8	Radiación solar	25
60353	7	Sololá	701	Sololá	3	Barraneche	11	Noviembre	2023-11-11T00:00:00	2024-11-06T08:00:00	2	Temperatura media	17.3
60354	7	Sololá	701	Sololá	3	Barraneche	11	Noviembre	2023-11-11T00:00:00	2024-11-06T08:00:00	4	Temperatura máxima	17.3
60355	7	Sololá	701	Sololá	3	Barraneche	11	Noviembre	2023-11-11T00:00:00	2024-11-06T08:00:00	3	Temperatura mínima	14.8
60356	7	Sololá	701	Sololá	3	Barraneche	11	Noviembre	2023-11-11T00:00:00	2024-11-06T08:00:00	5	Humedad	56
60357	7	Sololá	701	Sololá	3	Barraneche	11	Noviembre	2023-11-11T00:00:00	2024-11-06T08:00:00	6	Velocidad del viento	14.5
60358	7	Sololá	701	Sololá	3	Barraneche	11	Noviembre	2023-11-11T00:00:00	2024-11-06T08:00:00	7	Dirección del viento	14.48
60359	7	Sololá	701	Sololá	3	Barraneche	11	Noviembre	2023-11-11T00:00:00	2024-11-06T08:00:00	1	Precipitación	0
60360	7	Sololá	701	Sololá	3	Barraneche	11	Noviembre	2023-11-11T00:00:00	2024-11-06T08:00:00	8	Radiación solar	282
60361	7	Sololá	701	Sololá	3	Barraneche	11	Noviembre	2023-11-11T00:00:00	2024-11-06T09:00:00	2	Temperatura media	18.4
60362	7	Sololá	701	Sololá	3	Barraneche	11	Noviembre	2023-11-11T00:00:00	2024-11-06T09:00:00	4	Temperatura máxima	18.6
60363	7	Sololá	701	Sololá	3	Barraneche	11	Noviembre	2023-11-11T00:00:00	2024-11-06T09:00:00	3	Temperatura mínima	17.2
60364	7	Sololá	701	Sololá	3	Barraneche	11	Noviembre	2023-11-11T00:00:00	2024-11-06T09:00:00	5	Humedad	55
60365	7	Sololá	701	Sololá	3	Barraneche	11	Noviembre	2023-11-11T00:00:00	2024-11-06T09:00:00	6	Velocidad del viento	17.7
60366	7	Sololá	701	Sololá	3	Barraneche	11	Noviembre	2023-11-11T00:00:00	2024-11-06T09:00:00	7	Dirección del viento	17.7
60367	7	Sololá	701	Sololá	3	Barraneche	11	Noviembre	2023-11-11T00:00:00	2024-11-06T09:00:00	1	Precipitación	0
60368	7	Sololá	701	Sololá	3	Barraneche	11	Noviembre	2023-11-11T00:00:00	2024-11-06T09:00:00	8	Radiación solar	525
60369	7	Sololá	701	Sololá	3	Barraneche	11	Noviembre	2023-11-11T00:00:00	2024-11-06T10:00:00	2	Temperatura media	17.9
60370	7	Sololá	701	Sololá	3	Barraneche	11	Noviembre	2023-11-11T00:00:00	2024-11-06T10:00:00	4	Temperatura máxima	18.4
60371	7	Sololá	701	Sololá	3	Barraneche	11	Noviembre	2023-11-11T00:00:00	2024-11-06T10:00:00	3	Temperatura mínima	17.6
60372	7	Sololá	701	Sololá	3	Barraneche	11	Noviembre	2023-11-11T00:00:00	2024-11-06T10:00:00	5	Humedad	60
60373	7	Sololá	701	Sololá	3	Barraneche	11	Noviembre	2023-11-11T00:00:00	2024-11-06T10:00:00	6	Velocidad del viento	20.9
60374	7	Sololá	701	Sololá	3	Barraneche	11	Noviembre	2023-11-11T00:00:00	2024-11-06T10:00:00	7	Dirección del viento	20.92
60375	7	Sololá	701	Sololá	3	Barraneche	11	Noviembre	2023-11-11T00:00:00	2024-11-06T10:00:00	1	Precipitación	0
60376	7	Sololá	701	Sololá	3	Barraneche	11	Noviembre	2023-11-11T00:00:00	2024-11-06T10:00:00	8	Radiación solar	678
60377	7	Sololá	701	Sololá	3	Barraneche	11	Noviembre	2023-11-11T00:00:00	2024-11-06T11:00:00	2	Temperatura media	17.9
60378	7	Sololá	701	Sololá	3	Barraneche	11	Noviembre	2023-11-11T00:00:00	2024-11-06T11:00:00	4	Temperatura máxima	18.8
60379	7	Sololá	701	Sololá	3	Barraneche	11	Noviembre	2023-11-11T00:00:00	2024-11-06T11:00:00	3	Temperatura mínima	17.9
60380	7	Sololá	701	Sololá	3	Barraneche	11	Noviembre	2023-11-11T00:00:00	2024-11-06T11:00:00	5	Humedad	59
60381	7	Sololá	701	Sololá	3	Barraneche	11	Noviembre	2023-11-11T00:00:00	2024-11-06T11:00:00	6	Velocidad del viento	17.7
60382	7	Sololá	701	Sololá	3	Barraneche	11	Noviembre	2023-11-11T00:00:00	2024-11-06T11:00:00	7	Dirección del viento	17.7
60383	7	Sololá	701	Sololá	3	Barraneche	11	Noviembre	2023-11-11T00:00:00	2024-11-06T11:00:00	1	Precipitación	0
60384	7	Sololá	701	Sololá	3	Barraneche	11	Noviembre	2023-11-11T00:00:00	2024-11-06T11:00:00	8	Radiación solar	778
60385	7	Sololá	701	Sololá	3	Barraneche	11	Noviembre	2023-11-11T00:00:00	2024-11-06T12:00:00	2	Temperatura media	17.7
60386	7	Sololá	701	Sololá	3	Barraneche	11	Noviembre	2023-11-11T00:00:00	2024-11-06T12:00:00	4	Temperatura máxima	18.3
60387	7	Sololá	701	Sololá	3	Barraneche	11	Noviembre	2023-11-11T00:00:00	2024-11-06T12:00:00	3	Temperatura mínima	17.4
60388	7	Sololá	701	Sololá	3	Barraneche	11	Noviembre	2023-11-11T00:00:00	2024-11-06T12:00:00	5	Humedad	60
60389	7	Sololá	701	Sololá	3	Barraneche	11	Noviembre	2023-11-11T00:00:00	2024-11-06T12:00:00	6	Velocidad del viento	16.1
60390	7	Sololá	701	Sololá	3	Barraneche	11	Noviembre	2023-11-11T00:00:00	2024-11-06T12:00:00	7	Dirección del viento	16.09
60391	7	Sololá	701	Sololá	3	Barraneche	11	Noviembre	2023-11-11T00:00:00	2024-11-06T12:00:00	1	Precipitación	0
60392	7	Sololá	701	Sololá	3	Barraneche	11	Noviembre	2023-11-11T00:00:00	2024-11-06T12:00:00	8	Radiación solar	372
60393	7	Sololá	701	Sololá	3	Barraneche	11	Noviembre	2023-11-11T00:00:00	2024-11-06T13:00:00	2	Temperatura media	18.9
60394	7	Sololá	701	Sololá	3	Barraneche	11	Noviembre	2023-11-11T00:00:00	2024-11-06T13:00:00	4	Temperatura máxima	19.2
60395	7	Sololá	701	Sololá	3	Barraneche	11	Noviembre	2023-11-11T00:00:00	2024-11-06T13:00:00	3	Temperatura mínima	17.4
60396	7	Sololá	701	Sololá	3	Barraneche	11	Noviembre	2023-11-11T00:00:00	2024-11-06T13:00:00	5	Humedad	55
60397	7	Sololá	701	Sololá	3	Barraneche	11	Noviembre	2023-11-11T00:00:00	2024-11-06T13:00:00	6	Velocidad del viento	12.9
60398	7	Sololá	701	Sololá	3	Barraneche	11	Noviembre	2023-11-11T00:00:00	2024-11-06T13:00:00	7	Dirección del viento	12.87
60399	7	Sololá	701	Sololá	3	Barraneche	11	Noviembre	2023-11-11T00:00:00	2024-11-06T13:00:00	1	Precipitación	0
60400	7	Sololá	701	Sololá	3	Barraneche	11	Noviembre	2023-11-11T00:00:00	2024-11-06T13:00:00	8	Radiación solar	728
60401	7	Sololá	701	Sololá	3	Barraneche	11	Noviembre	2023-11-11T00:00:00	2024-11-06T14:00:00	2	Temperatura media	19
60402	7	Sololá	701	Sololá	3	Barraneche	11	Noviembre	2023-11-11T00:00:00	2024-11-06T14:00:00	4	Temperatura máxima	19
60403	7	Sololá	701	Sololá	3	Barraneche	11	Noviembre	2023-11-11T00:00:00	2024-11-06T14:00:00	3	Temperatura mínima	17.8
60404	7	Sololá	701	Sololá	3	Barraneche	11	Noviembre	2023-11-11T00:00:00	2024-11-06T14:00:00	5	Humedad	60
60405	7	Sololá	701	Sololá	3	Barraneche	11	Noviembre	2023-11-11T00:00:00	2024-11-06T14:00:00	6	Velocidad del viento	12.9
60406	7	Sololá	701	Sololá	3	Barraneche	11	Noviembre	2023-11-11T00:00:00	2024-11-06T14:00:00	7	Dirección del viento	12.87
60407	7	Sololá	701	Sololá	3	Barraneche	11	Noviembre	2023-11-11T00:00:00	2024-11-06T14:00:00	1	Precipitación	0
60408	7	Sololá	701	Sololá	3	Barraneche	11	Noviembre	2023-11-11T00:00:00	2024-11-06T14:00:00	8	Radiación solar	497
60409	7	Sololá	701	Sololá	3	Barraneche	11	Noviembre	2023-11-11T00:00:00	2024-11-06T15:00:00	2	Temperatura media	18.6
60410	7	Sololá	701	Sololá	3	Barraneche	11	Noviembre	2023-11-11T00:00:00	2024-11-06T15:00:00	4	Temperatura máxima	19.3
60411	7	Sololá	701	Sololá	3	Barraneche	11	Noviembre	2023-11-11T00:00:00	2024-11-06T15:00:00	3	Temperatura mínima	18.2
60412	7	Sololá	701	Sololá	3	Barraneche	11	Noviembre	2023-11-11T00:00:00	2024-11-06T15:00:00	5	Humedad	58
60413	7	Sololá	701	Sololá	3	Barraneche	11	Noviembre	2023-11-11T00:00:00	2024-11-06T15:00:00	6	Velocidad del viento	16.1
60414	7	Sololá	701	Sololá	3	Barraneche	11	Noviembre	2023-11-11T00:00:00	2024-11-06T15:00:00	7	Dirección del viento	16.09
60415	7	Sololá	701	Sololá	3	Barraneche	11	Noviembre	2023-11-11T00:00:00	2024-11-06T15:00:00	1	Precipitación	0
60416	7	Sololá	701	Sololá	3	Barraneche	11	Noviembre	2023-11-11T00:00:00	2024-11-06T15:00:00	8	Radiación solar	525
60417	7	Sololá	701	Sololá	3	Barraneche	11	Noviembre	2023-11-11T00:00:00	2024-11-06T16:00:00	2	Temperatura media	18.4
60418	7	Sololá	701	Sololá	3	Barraneche	11	Noviembre	2023-11-11T00:00:00	2024-11-06T16:00:00	4	Temperatura máxima	19
60419	7	Sololá	701	Sololá	3	Barraneche	11	Noviembre	2023-11-11T00:00:00	2024-11-06T16:00:00	3	Temperatura mínima	18.1
60420	7	Sololá	701	Sololá	3	Barraneche	11	Noviembre	2023-11-11T00:00:00	2024-11-06T16:00:00	5	Humedad	59
60421	7	Sololá	701	Sololá	3	Barraneche	11	Noviembre	2023-11-11T00:00:00	2024-11-06T16:00:00	6	Velocidad del viento	14.5
60422	7	Sololá	701	Sololá	3	Barraneche	11	Noviembre	2023-11-11T00:00:00	2024-11-06T16:00:00	7	Dirección del viento	14.48
60423	7	Sololá	701	Sololá	3	Barraneche	11	Noviembre	2023-11-11T00:00:00	2024-11-06T16:00:00	1	Precipitación	0
60424	7	Sololá	701	Sololá	3	Barraneche	11	Noviembre	2023-11-11T00:00:00	2024-11-06T16:00:00	8	Radiación solar	400
60425	7	Sololá	701	Sololá	3	Barraneche	11	Noviembre	2023-11-11T00:00:00	2024-11-06T17:00:00	2	Temperatura media	16.6
60426	7	Sololá	701	Sololá	3	Barraneche	11	Noviembre	2023-11-11T00:00:00	2024-11-06T17:00:00	4	Temperatura máxima	18.6
60427	7	Sololá	701	Sololá	3	Barraneche	11	Noviembre	2023-11-11T00:00:00	2024-11-06T17:00:00	3	Temperatura mínima	16.6
60428	7	Sololá	701	Sololá	3	Barraneche	11	Noviembre	2023-11-11T00:00:00	2024-11-06T17:00:00	5	Humedad	62
60429	7	Sololá	701	Sololá	3	Barraneche	11	Noviembre	2023-11-11T00:00:00	2024-11-06T17:00:00	6	Velocidad del viento	16.1
60430	7	Sololá	701	Sololá	3	Barraneche	11	Noviembre	2023-11-11T00:00:00	2024-11-06T17:00:00	7	Dirección del viento	16.09
60431	7	Sololá	701	Sololá	3	Barraneche	11	Noviembre	2023-11-11T00:00:00	2024-11-06T17:00:00	1	Precipitación	0
60432	7	Sololá	701	Sololá	3	Barraneche	11	Noviembre	2023-11-11T00:00:00	2024-11-06T17:00:00	8	Radiación solar	146
60433	7	Sololá	701	Sololá	3	Barraneche	11	Noviembre	2023-11-11T00:00:00	2024-11-06T18:00:00	2	Temperatura media	16.2
60434	7	Sololá	701	Sololá	3	Barraneche	11	Noviembre	2023-11-11T00:00:00	2024-11-06T18:00:00	4	Temperatura máxima	16.6
60435	7	Sololá	701	Sololá	3	Barraneche	11	Noviembre	2023-11-11T00:00:00	2024-11-06T18:00:00	3	Temperatura mínima	16.1
60436	7	Sololá	701	Sololá	3	Barraneche	11	Noviembre	2023-11-11T00:00:00	2024-11-06T18:00:00	5	Humedad	65
60437	7	Sololá	701	Sololá	3	Barraneche	11	Noviembre	2023-11-11T00:00:00	2024-11-06T18:00:00	6	Velocidad del viento	11.3
60438	7	Sololá	701	Sololá	3	Barraneche	11	Noviembre	2023-11-11T00:00:00	2024-11-06T18:00:00	7	Dirección del viento	11.27
60439	7	Sololá	701	Sololá	3	Barraneche	11	Noviembre	2023-11-11T00:00:00	2024-11-06T18:00:00	1	Precipitación	0
60440	7	Sololá	701	Sololá	3	Barraneche	11	Noviembre	2023-11-11T00:00:00	2024-11-06T18:00:00	8	Radiación solar	5
60441	7	Sololá	701	Sololá	3	Barraneche	11	Noviembre	2023-11-11T00:00:00	2024-11-06T19:00:00	2	Temperatura media	15.5
60442	7	Sololá	701	Sololá	3	Barraneche	11	Noviembre	2023-11-11T00:00:00	2024-11-06T19:00:00	4	Temperatura máxima	16.3
60443	7	Sololá	701	Sololá	3	Barraneche	11	Noviembre	2023-11-11T00:00:00	2024-11-06T19:00:00	3	Temperatura mínima	15.4
60444	7	Sololá	701	Sololá	3	Barraneche	11	Noviembre	2023-11-11T00:00:00	2024-11-06T19:00:00	5	Humedad	64
60445	7	Sololá	701	Sololá	3	Barraneche	11	Noviembre	2023-11-11T00:00:00	2024-11-06T19:00:00	6	Velocidad del viento	16.1
60446	7	Sololá	701	Sololá	3	Barraneche	11	Noviembre	2023-11-11T00:00:00	2024-11-06T19:00:00	7	Dirección del viento	16.09
60447	7	Sololá	701	Sololá	3	Barraneche	11	Noviembre	2023-11-11T00:00:00	2024-11-06T19:00:00	1	Precipitación	0
60448	7	Sololá	701	Sololá	3	Barraneche	11	Noviembre	2023-11-11T00:00:00	2024-11-06T19:00:00	8	Radiación solar	0
60449	7	Sololá	701	Sololá	3	Barraneche	11	Noviembre	2023-11-11T00:00:00	2024-11-06T20:00:00	2	Temperatura media	15.7
60450	7	Sololá	701	Sololá	3	Barraneche	11	Noviembre	2023-11-11T00:00:00	2024-11-06T20:00:00	4	Temperatura máxima	15.9
60451	7	Sololá	701	Sololá	3	Barraneche	11	Noviembre	2023-11-11T00:00:00	2024-11-06T20:00:00	3	Temperatura mínima	15.4
60452	7	Sololá	701	Sololá	3	Barraneche	11	Noviembre	2023-11-11T00:00:00	2024-11-06T20:00:00	5	Humedad	61
60453	7	Sololá	701	Sololá	3	Barraneche	11	Noviembre	2023-11-11T00:00:00	2024-11-06T20:00:00	6	Velocidad del viento	17.7
60454	7	Sololá	701	Sololá	3	Barraneche	11	Noviembre	2023-11-11T00:00:00	2024-11-06T20:00:00	7	Dirección del viento	17.7
60455	7	Sololá	701	Sololá	3	Barraneche	11	Noviembre	2023-11-11T00:00:00	2024-11-06T20:00:00	1	Precipitación	0
60456	7	Sololá	701	Sololá	3	Barraneche	11	Noviembre	2023-11-11T00:00:00	2024-11-06T20:00:00	8	Radiación solar	0
60457	7	Sololá	701	Sololá	3	Barraneche	11	Noviembre	2023-11-11T00:00:00	2024-11-06T21:00:00	2	Temperatura media	15.4
60458	7	Sololá	701	Sololá	3	Barraneche	11	Noviembre	2023-11-11T00:00:00	2024-11-06T21:00:00	4	Temperatura máxima	15.7
60459	7	Sololá	701	Sololá	3	Barraneche	11	Noviembre	2023-11-11T00:00:00	2024-11-06T21:00:00	3	Temperatura mínima	15.2
60460	7	Sololá	701	Sololá	3	Barraneche	11	Noviembre	2023-11-11T00:00:00	2024-11-06T21:00:00	5	Humedad	65
60461	7	Sololá	701	Sololá	3	Barraneche	11	Noviembre	2023-11-11T00:00:00	2024-11-06T21:00:00	6	Velocidad del viento	20.9
60462	7	Sololá	701	Sololá	3	Barraneche	11	Noviembre	2023-11-11T00:00:00	2024-11-06T21:00:00	7	Dirección del viento	20.92
60463	7	Sololá	701	Sololá	3	Barraneche	11	Noviembre	2023-11-11T00:00:00	2024-11-06T21:00:00	1	Precipitación	0
60464	7	Sololá	701	Sololá	3	Barraneche	11	Noviembre	2023-11-11T00:00:00	2024-11-06T21:00:00	8	Radiación solar	0
60465	7	Sololá	701	Sololá	3	Barraneche	11	Noviembre	2023-11-11T00:00:00	2024-11-06T22:00:00	2	Temperatura media	15.6
60466	7	Sololá	701	Sololá	3	Barraneche	11	Noviembre	2023-11-11T00:00:00	2024-11-06T22:00:00	4	Temperatura máxima	15.7
60467	7	Sololá	701	Sololá	3	Barraneche	11	Noviembre	2023-11-11T00:00:00	2024-11-06T22:00:00	3	Temperatura mínima	15.3
60468	7	Sololá	701	Sololá	3	Barraneche	11	Noviembre	2023-11-11T00:00:00	2024-11-06T22:00:00	5	Humedad	64
60469	7	Sololá	701	Sololá	3	Barraneche	11	Noviembre	2023-11-11T00:00:00	2024-11-06T22:00:00	6	Velocidad del viento	19.3
60470	7	Sololá	701	Sololá	3	Barraneche	11	Noviembre	2023-11-11T00:00:00	2024-11-06T22:00:00	7	Dirección del viento	19.31
60471	7	Sololá	701	Sololá	3	Barraneche	11	Noviembre	2023-11-11T00:00:00	2024-11-06T22:00:00	1	Precipitación	0
60472	7	Sololá	701	Sololá	3	Barraneche	11	Noviembre	2023-11-11T00:00:00	2024-11-06T22:00:00	8	Radiación solar	0
60473	7	Sololá	701	Sololá	3	Barraneche	11	Noviembre	2023-11-11T00:00:00	2024-11-06T23:00:00	2	Temperatura media	15.3
60474	7	Sololá	701	Sololá	3	Barraneche	11	Noviembre	2023-11-11T00:00:00	2024-11-06T23:00:00	4	Temperatura máxima	15.6
60475	7	Sololá	701	Sololá	3	Barraneche	11	Noviembre	2023-11-11T00:00:00	2024-11-06T23:00:00	3	Temperatura mínima	15.2
60476	7	Sololá	701	Sololá	3	Barraneche	11	Noviembre	2023-11-11T00:00:00	2024-11-06T23:00:00	5	Humedad	66
60477	7	Sololá	701	Sololá	3	Barraneche	11	Noviembre	2023-11-11T00:00:00	2024-11-06T23:00:00	6	Velocidad del viento	9.7
60478	7	Sololá	701	Sololá	3	Barraneche	11	Noviembre	2023-11-11T00:00:00	2024-11-06T23:00:00	7	Dirección del viento	9.66
60479	7	Sololá	701	Sololá	3	Barraneche	11	Noviembre	2023-11-11T00:00:00	2024-11-06T23:00:00	1	Precipitación	0
60480	7	Sololá	701	Sololá	3	Barraneche	11	Noviembre	2023-11-11T00:00:00	2024-11-06T23:00:00	8	Radiación solar	0
60481	7	Sololá	701	Sololá	3	Barraneche	11	Noviembre	2023-12-11T00:00:00	2024-11-06T00:00:00	2	Temperatura media	14.9
60482	7	Sololá	701	Sololá	3	Barraneche	11	Noviembre	2023-12-11T00:00:00	2024-11-06T00:00:00	4	Temperatura máxima	15.3
60483	7	Sololá	701	Sololá	3	Barraneche	11	Noviembre	2023-12-11T00:00:00	2024-11-06T00:00:00	3	Temperatura mínima	14.9
60484	7	Sololá	701	Sololá	3	Barraneche	11	Noviembre	2023-12-11T00:00:00	2024-11-06T00:00:00	5	Humedad	70
60485	7	Sololá	701	Sololá	3	Barraneche	11	Noviembre	2023-12-11T00:00:00	2024-11-06T00:00:00	6	Velocidad del viento	11.3
60486	7	Sololá	701	Sololá	3	Barraneche	11	Noviembre	2023-12-11T00:00:00	2024-11-06T00:00:00	7	Dirección del viento	11.27
60487	7	Sololá	701	Sololá	3	Barraneche	11	Noviembre	2023-12-11T00:00:00	2024-11-06T00:00:00	1	Precipitación	0
60488	7	Sololá	701	Sololá	3	Barraneche	11	Noviembre	2023-12-11T00:00:00	2024-11-06T00:00:00	8	Radiación solar	0
60489	7	Sololá	701	Sololá	3	Barraneche	11	Noviembre	2023-12-11T00:00:00	2024-11-06T01:00:00	2	Temperatura media	14.6
60490	7	Sololá	701	Sololá	3	Barraneche	11	Noviembre	2023-12-11T00:00:00	2024-11-06T01:00:00	4	Temperatura máxima	14.9
60491	7	Sololá	701	Sololá	3	Barraneche	11	Noviembre	2023-12-11T00:00:00	2024-11-06T01:00:00	3	Temperatura mínima	14.2
60492	7	Sololá	701	Sololá	3	Barraneche	11	Noviembre	2023-12-11T00:00:00	2024-11-06T01:00:00	5	Humedad	69
60493	7	Sololá	701	Sololá	3	Barraneche	11	Noviembre	2023-12-11T00:00:00	2024-11-06T01:00:00	6	Velocidad del viento	6.4
60494	7	Sololá	701	Sololá	3	Barraneche	11	Noviembre	2023-12-11T00:00:00	2024-11-06T01:00:00	7	Dirección del viento	6.44
60495	7	Sololá	701	Sololá	3	Barraneche	11	Noviembre	2023-12-11T00:00:00	2024-11-06T01:00:00	1	Precipitación	0
60496	7	Sololá	701	Sololá	3	Barraneche	11	Noviembre	2023-12-11T00:00:00	2024-11-06T01:00:00	8	Radiación solar	0
60497	7	Sololá	701	Sololá	3	Barraneche	11	Noviembre	2023-12-11T00:00:00	2024-11-06T02:00:00	2	Temperatura media	14.6
60498	7	Sololá	701	Sololá	3	Barraneche	11	Noviembre	2023-12-11T00:00:00	2024-11-06T02:00:00	4	Temperatura máxima	14.7
60499	7	Sololá	701	Sololá	3	Barraneche	11	Noviembre	2023-12-11T00:00:00	2024-11-06T02:00:00	3	Temperatura mínima	14.4
60500	7	Sololá	701	Sololá	3	Barraneche	11	Noviembre	2023-12-11T00:00:00	2024-11-06T02:00:00	5	Humedad	69
60501	7	Sololá	701	Sololá	3	Barraneche	11	Noviembre	2023-12-11T00:00:00	2024-11-06T02:00:00	6	Velocidad del viento	6.4
60502	7	Sololá	701	Sololá	3	Barraneche	11	Noviembre	2023-12-11T00:00:00	2024-11-06T02:00:00	7	Dirección del viento	6.44
60503	7	Sololá	701	Sololá	3	Barraneche	11	Noviembre	2023-12-11T00:00:00	2024-11-06T02:00:00	1	Precipitación	0
60504	7	Sololá	701	Sololá	3	Barraneche	11	Noviembre	2023-12-11T00:00:00	2024-11-06T02:00:00	8	Radiación solar	0
60505	7	Sololá	701	Sololá	3	Barraneche	11	Noviembre	2023-12-11T00:00:00	2024-11-06T03:00:00	2	Temperatura media	14.8
60506	7	Sololá	701	Sololá	3	Barraneche	11	Noviembre	2023-12-11T00:00:00	2024-11-06T03:00:00	4	Temperatura máxima	14.8
60507	7	Sololá	701	Sololá	3	Barraneche	11	Noviembre	2023-12-11T00:00:00	2024-11-06T03:00:00	3	Temperatura mínima	14.4
60508	7	Sololá	701	Sololá	3	Barraneche	11	Noviembre	2023-12-11T00:00:00	2024-11-06T03:00:00	5	Humedad	67
60509	7	Sololá	701	Sololá	3	Barraneche	11	Noviembre	2023-12-11T00:00:00	2024-11-06T03:00:00	6	Velocidad del viento	8
60510	7	Sololá	701	Sololá	3	Barraneche	11	Noviembre	2023-12-11T00:00:00	2024-11-06T03:00:00	7	Dirección del viento	8.05
60511	7	Sololá	701	Sololá	3	Barraneche	11	Noviembre	2023-12-11T00:00:00	2024-11-06T03:00:00	1	Precipitación	0
60512	7	Sololá	701	Sololá	3	Barraneche	11	Noviembre	2023-12-11T00:00:00	2024-11-06T03:00:00	8	Radiación solar	0
60513	7	Sololá	701	Sololá	3	Barraneche	11	Noviembre	2023-12-11T00:00:00	2024-11-06T04:00:00	2	Temperatura media	14.9
60514	7	Sololá	701	Sololá	3	Barraneche	11	Noviembre	2023-12-11T00:00:00	2024-11-06T04:00:00	4	Temperatura máxima	15.2
60515	7	Sololá	701	Sololá	3	Barraneche	11	Noviembre	2023-12-11T00:00:00	2024-11-06T04:00:00	3	Temperatura mínima	14.7
60516	7	Sololá	701	Sololá	3	Barraneche	11	Noviembre	2023-12-11T00:00:00	2024-11-06T04:00:00	5	Humedad	65
60517	7	Sololá	701	Sololá	3	Barraneche	11	Noviembre	2023-12-11T00:00:00	2024-11-06T04:00:00	6	Velocidad del viento	9.7
60518	7	Sololá	701	Sololá	3	Barraneche	11	Noviembre	2023-12-11T00:00:00	2024-11-06T04:00:00	7	Dirección del viento	9.66
60519	7	Sololá	701	Sololá	3	Barraneche	11	Noviembre	2023-12-11T00:00:00	2024-11-06T04:00:00	1	Precipitación	0
60520	7	Sololá	701	Sololá	3	Barraneche	11	Noviembre	2023-12-11T00:00:00	2024-11-06T04:00:00	8	Radiación solar	0
60521	7	Sololá	701	Sololá	3	Barraneche	11	Noviembre	2023-12-11T00:00:00	2024-11-06T05:00:00	2	Temperatura media	14.6
60522	7	Sololá	701	Sololá	3	Barraneche	11	Noviembre	2023-12-11T00:00:00	2024-11-06T05:00:00	4	Temperatura máxima	15.1
60523	7	Sololá	701	Sololá	3	Barraneche	11	Noviembre	2023-12-11T00:00:00	2024-11-06T05:00:00	3	Temperatura mínima	14.5
60524	7	Sololá	701	Sololá	3	Barraneche	11	Noviembre	2023-12-11T00:00:00	2024-11-06T05:00:00	5	Humedad	68
60525	7	Sololá	701	Sololá	3	Barraneche	11	Noviembre	2023-12-11T00:00:00	2024-11-06T05:00:00	6	Velocidad del viento	11.3
60526	7	Sololá	701	Sololá	3	Barraneche	11	Noviembre	2023-12-11T00:00:00	2024-11-06T05:00:00	7	Dirección del viento	11.27
60527	7	Sololá	701	Sololá	3	Barraneche	11	Noviembre	2023-12-11T00:00:00	2024-11-06T05:00:00	1	Precipitación	0
60528	7	Sololá	701	Sololá	3	Barraneche	11	Noviembre	2023-12-11T00:00:00	2024-11-06T05:00:00	8	Radiación solar	0
60529	7	Sololá	701	Sololá	3	Barraneche	11	Noviembre	2023-12-11T00:00:00	2024-11-06T06:00:00	2	Temperatura media	14.7
60530	7	Sololá	701	Sololá	3	Barraneche	11	Noviembre	2023-12-11T00:00:00	2024-11-06T06:00:00	4	Temperatura máxima	14.7
60531	7	Sololá	701	Sololá	3	Barraneche	11	Noviembre	2023-12-11T00:00:00	2024-11-06T06:00:00	3	Temperatura mínima	14.2
60532	7	Sololá	701	Sololá	3	Barraneche	11	Noviembre	2023-12-11T00:00:00	2024-11-06T06:00:00	5	Humedad	64
60533	7	Sololá	701	Sololá	3	Barraneche	11	Noviembre	2023-12-11T00:00:00	2024-11-06T06:00:00	6	Velocidad del viento	16.1
60534	7	Sololá	701	Sololá	3	Barraneche	11	Noviembre	2023-12-11T00:00:00	2024-11-06T06:00:00	7	Dirección del viento	16.09
60535	7	Sololá	701	Sololá	3	Barraneche	11	Noviembre	2023-12-11T00:00:00	2024-11-06T06:00:00	1	Precipitación	0
60536	7	Sololá	701	Sololá	3	Barraneche	11	Noviembre	2023-12-11T00:00:00	2024-11-06T06:00:00	8	Radiación solar	0
60537	7	Sololá	701	Sololá	3	Barraneche	11	Noviembre	2023-12-11T00:00:00	2024-11-06T07:00:00	2	Temperatura media	15.2
60538	7	Sololá	701	Sololá	3	Barraneche	11	Noviembre	2023-12-11T00:00:00	2024-11-06T07:00:00	4	Temperatura máxima	15.2
60539	7	Sololá	701	Sololá	3	Barraneche	11	Noviembre	2023-12-11T00:00:00	2024-11-06T07:00:00	3	Temperatura mínima	14.6
60540	7	Sololá	701	Sololá	3	Barraneche	11	Noviembre	2023-12-11T00:00:00	2024-11-06T07:00:00	5	Humedad	63
60541	7	Sololá	701	Sololá	3	Barraneche	11	Noviembre	2023-12-11T00:00:00	2024-11-06T07:00:00	6	Velocidad del viento	16.1
60542	7	Sololá	701	Sololá	3	Barraneche	11	Noviembre	2023-12-11T00:00:00	2024-11-06T07:00:00	7	Dirección del viento	16.09
60543	7	Sololá	701	Sololá	3	Barraneche	11	Noviembre	2023-12-11T00:00:00	2024-11-06T07:00:00	1	Precipitación	0
60544	7	Sololá	701	Sololá	3	Barraneche	11	Noviembre	2023-12-11T00:00:00	2024-11-06T07:00:00	8	Radiación solar	46
60545	7	Sololá	701	Sololá	3	Barraneche	11	Noviembre	2023-12-11T00:00:00	2024-11-06T08:00:00	2	Temperatura media	16.5
60546	7	Sololá	701	Sololá	3	Barraneche	11	Noviembre	2023-12-11T00:00:00	2024-11-06T08:00:00	4	Temperatura máxima	16.5
60547	7	Sololá	701	Sololá	3	Barraneche	11	Noviembre	2023-12-11T00:00:00	2024-11-06T08:00:00	3	Temperatura mínima	15.2
60548	7	Sololá	701	Sololá	3	Barraneche	11	Noviembre	2023-12-11T00:00:00	2024-11-06T08:00:00	5	Humedad	60
60549	7	Sololá	701	Sololá	3	Barraneche	11	Noviembre	2023-12-11T00:00:00	2024-11-06T08:00:00	6	Velocidad del viento	12.9
60550	7	Sololá	701	Sololá	3	Barraneche	11	Noviembre	2023-12-11T00:00:00	2024-11-06T08:00:00	7	Dirección del viento	12.87
60551	7	Sololá	701	Sololá	3	Barraneche	11	Noviembre	2023-12-11T00:00:00	2024-11-06T08:00:00	1	Precipitación	0
60552	7	Sololá	701	Sololá	3	Barraneche	11	Noviembre	2023-12-11T00:00:00	2024-11-06T08:00:00	8	Radiación solar	272
60553	7	Sololá	701	Sololá	3	Barraneche	11	Noviembre	2023-12-11T00:00:00	2024-11-06T09:00:00	2	Temperatura media	17.8
60554	7	Sololá	701	Sololá	3	Barraneche	11	Noviembre	2023-12-11T00:00:00	2024-11-06T09:00:00	4	Temperatura máxima	18.2
60555	7	Sololá	701	Sololá	3	Barraneche	11	Noviembre	2023-12-11T00:00:00	2024-11-06T09:00:00	3	Temperatura mínima	16.3
60556	7	Sololá	701	Sololá	3	Barraneche	11	Noviembre	2023-12-11T00:00:00	2024-11-06T09:00:00	5	Humedad	53
60557	7	Sololá	701	Sololá	3	Barraneche	11	Noviembre	2023-12-11T00:00:00	2024-11-06T09:00:00	6	Velocidad del viento	14.5
60558	7	Sololá	701	Sololá	3	Barraneche	11	Noviembre	2023-12-11T00:00:00	2024-11-06T09:00:00	7	Dirección del viento	14.48
60559	7	Sololá	701	Sololá	3	Barraneche	11	Noviembre	2023-12-11T00:00:00	2024-11-06T09:00:00	1	Precipitación	0
60560	7	Sololá	701	Sololá	3	Barraneche	11	Noviembre	2023-12-11T00:00:00	2024-11-06T09:00:00	8	Radiación solar	491
60561	7	Sololá	701	Sololá	3	Barraneche	11	Noviembre	2023-12-11T00:00:00	2024-11-06T10:00:00	2	Temperatura media	18
60562	7	Sololá	701	Sololá	3	Barraneche	11	Noviembre	2023-12-11T00:00:00	2024-11-06T10:00:00	4	Temperatura máxima	18
60563	7	Sololá	701	Sololá	3	Barraneche	11	Noviembre	2023-12-11T00:00:00	2024-11-06T10:00:00	3	Temperatura mínima	16.8
60564	7	Sololá	701	Sololá	3	Barraneche	11	Noviembre	2023-12-11T00:00:00	2024-11-06T10:00:00	5	Humedad	55
60565	7	Sololá	701	Sololá	3	Barraneche	11	Noviembre	2023-12-11T00:00:00	2024-11-06T10:00:00	6	Velocidad del viento	11.3
60566	7	Sololá	701	Sololá	3	Barraneche	11	Noviembre	2023-12-11T00:00:00	2024-11-06T10:00:00	7	Dirección del viento	11.27
60567	7	Sololá	701	Sololá	3	Barraneche	11	Noviembre	2023-12-11T00:00:00	2024-11-06T10:00:00	1	Precipitación	0
60568	7	Sololá	701	Sololá	3	Barraneche	11	Noviembre	2023-12-11T00:00:00	2024-11-06T10:00:00	8	Radiación solar	620
60569	7	Sololá	701	Sololá	3	Barraneche	11	Noviembre	2023-12-11T00:00:00	2024-11-06T11:00:00	2	Temperatura media	18.8
60570	7	Sololá	701	Sololá	3	Barraneche	11	Noviembre	2023-12-11T00:00:00	2024-11-06T11:00:00	4	Temperatura máxima	19.1
60571	7	Sololá	701	Sololá	3	Barraneche	11	Noviembre	2023-12-11T00:00:00	2024-11-06T11:00:00	3	Temperatura mínima	17.9
60572	7	Sololá	701	Sololá	3	Barraneche	11	Noviembre	2023-12-11T00:00:00	2024-11-06T11:00:00	5	Humedad	53
60573	7	Sololá	701	Sololá	3	Barraneche	11	Noviembre	2023-12-11T00:00:00	2024-11-06T11:00:00	6	Velocidad del viento	14.5
60574	7	Sololá	701	Sololá	3	Barraneche	11	Noviembre	2023-12-11T00:00:00	2024-11-06T11:00:00	7	Dirección del viento	14.48
60575	7	Sololá	701	Sololá	3	Barraneche	11	Noviembre	2023-12-11T00:00:00	2024-11-06T11:00:00	1	Precipitación	0
60576	7	Sololá	701	Sololá	3	Barraneche	11	Noviembre	2023-12-11T00:00:00	2024-11-06T11:00:00	8	Radiación solar	850
60577	7	Sololá	701	Sololá	3	Barraneche	11	Noviembre	2023-12-11T00:00:00	2024-11-06T12:00:00	2	Temperatura media	19.1
60578	7	Sololá	701	Sololá	3	Barraneche	11	Noviembre	2023-12-11T00:00:00	2024-11-06T12:00:00	4	Temperatura máxima	19.4
60579	7	Sololá	701	Sololá	3	Barraneche	11	Noviembre	2023-12-11T00:00:00	2024-11-06T12:00:00	3	Temperatura mínima	17.6
60580	7	Sololá	701	Sololá	3	Barraneche	11	Noviembre	2023-12-11T00:00:00	2024-11-06T12:00:00	5	Humedad	54
60581	7	Sololá	701	Sololá	3	Barraneche	11	Noviembre	2023-12-11T00:00:00	2024-11-06T12:00:00	6	Velocidad del viento	12.9
60582	7	Sololá	701	Sololá	3	Barraneche	11	Noviembre	2023-12-11T00:00:00	2024-11-06T12:00:00	7	Dirección del viento	12.87
60583	7	Sololá	701	Sololá	3	Barraneche	11	Noviembre	2023-12-11T00:00:00	2024-11-06T12:00:00	1	Precipitación	0
60584	7	Sololá	701	Sololá	3	Barraneche	11	Noviembre	2023-12-11T00:00:00	2024-11-06T12:00:00	8	Radiación solar	795
60585	7	Sololá	701	Sololá	3	Barraneche	11	Noviembre	2023-12-11T00:00:00	2024-11-06T13:00:00	2	Temperatura media	18.7
60586	7	Sololá	701	Sololá	3	Barraneche	11	Noviembre	2023-12-11T00:00:00	2024-11-06T13:00:00	4	Temperatura máxima	19.8
60587	7	Sololá	701	Sololá	3	Barraneche	11	Noviembre	2023-12-11T00:00:00	2024-11-06T13:00:00	3	Temperatura mínima	18.1
60588	7	Sololá	701	Sololá	3	Barraneche	11	Noviembre	2023-12-11T00:00:00	2024-11-06T13:00:00	5	Humedad	54
60589	7	Sololá	701	Sololá	3	Barraneche	11	Noviembre	2023-12-11T00:00:00	2024-11-06T13:00:00	6	Velocidad del viento	11.3
60590	7	Sololá	701	Sololá	3	Barraneche	11	Noviembre	2023-12-11T00:00:00	2024-11-06T13:00:00	7	Dirección del viento	11.27
60591	7	Sololá	701	Sololá	3	Barraneche	11	Noviembre	2023-12-11T00:00:00	2024-11-06T13:00:00	1	Precipitación	0
60592	7	Sololá	701	Sololá	3	Barraneche	11	Noviembre	2023-12-11T00:00:00	2024-11-06T13:00:00	8	Radiación solar	812
60593	7	Sololá	701	Sololá	3	Barraneche	11	Noviembre	2023-12-11T00:00:00	2024-11-06T14:00:00	2	Temperatura media	18.6
60594	7	Sololá	701	Sololá	3	Barraneche	11	Noviembre	2023-12-11T00:00:00	2024-11-06T14:00:00	4	Temperatura máxima	19.8
60595	7	Sololá	701	Sololá	3	Barraneche	11	Noviembre	2023-12-11T00:00:00	2024-11-06T14:00:00	3	Temperatura mínima	18.5
60596	7	Sololá	701	Sololá	3	Barraneche	11	Noviembre	2023-12-11T00:00:00	2024-11-06T14:00:00	5	Humedad	55
60597	7	Sololá	701	Sololá	3	Barraneche	11	Noviembre	2023-12-11T00:00:00	2024-11-06T14:00:00	6	Velocidad del viento	9.7
60598	7	Sololá	701	Sololá	3	Barraneche	11	Noviembre	2023-12-11T00:00:00	2024-11-06T14:00:00	7	Dirección del viento	9.66
60599	7	Sololá	701	Sololá	3	Barraneche	11	Noviembre	2023-12-11T00:00:00	2024-11-06T14:00:00	1	Precipitación	0
60600	7	Sololá	701	Sololá	3	Barraneche	11	Noviembre	2023-12-11T00:00:00	2024-11-06T14:00:00	8	Radiación solar	831
60601	7	Sololá	701	Sololá	3	Barraneche	11	Noviembre	2023-12-11T00:00:00	2024-11-06T15:00:00	2	Temperatura media	19
60602	7	Sololá	701	Sololá	3	Barraneche	11	Noviembre	2023-12-11T00:00:00	2024-11-06T15:00:00	4	Temperatura máxima	19.5
60603	7	Sololá	701	Sololá	3	Barraneche	11	Noviembre	2023-12-11T00:00:00	2024-11-06T15:00:00	3	Temperatura mínima	18.6
60604	7	Sololá	701	Sololá	3	Barraneche	11	Noviembre	2023-12-11T00:00:00	2024-11-06T15:00:00	5	Humedad	53
60605	7	Sololá	701	Sololá	3	Barraneche	11	Noviembre	2023-12-11T00:00:00	2024-11-06T15:00:00	6	Velocidad del viento	8
60606	7	Sololá	701	Sololá	3	Barraneche	11	Noviembre	2023-12-11T00:00:00	2024-11-06T15:00:00	7	Dirección del viento	8.05
60607	7	Sololá	701	Sololá	3	Barraneche	11	Noviembre	2023-12-11T00:00:00	2024-11-06T15:00:00	1	Precipitación	0
60608	7	Sololá	701	Sololá	3	Barraneche	11	Noviembre	2023-12-11T00:00:00	2024-11-06T15:00:00	8	Radiación solar	564
60609	7	Sololá	701	Sololá	3	Barraneche	11	Noviembre	2023-12-11T00:00:00	2024-11-06T16:00:00	2	Temperatura media	16.3
60610	7	Sololá	701	Sololá	3	Barraneche	11	Noviembre	2023-12-11T00:00:00	2024-11-06T16:00:00	4	Temperatura máxima	19.2
60611	7	Sololá	701	Sololá	3	Barraneche	11	Noviembre	2023-12-11T00:00:00	2024-11-06T16:00:00	3	Temperatura mínima	16.3
60612	7	Sololá	701	Sololá	3	Barraneche	11	Noviembre	2023-12-11T00:00:00	2024-11-06T16:00:00	5	Humedad	63
60613	7	Sololá	701	Sololá	3	Barraneche	11	Noviembre	2023-12-11T00:00:00	2024-11-06T16:00:00	6	Velocidad del viento	12.9
60614	7	Sololá	701	Sololá	3	Barraneche	11	Noviembre	2023-12-11T00:00:00	2024-11-06T16:00:00	7	Dirección del viento	12.87
60615	7	Sololá	701	Sololá	3	Barraneche	11	Noviembre	2023-12-11T00:00:00	2024-11-06T16:00:00	1	Precipitación	0
60616	7	Sololá	701	Sololá	3	Barraneche	11	Noviembre	2023-12-11T00:00:00	2024-11-06T16:00:00	8	Radiación solar	212
60617	7	Sololá	701	Sololá	3	Barraneche	11	Noviembre	2023-12-11T00:00:00	2024-11-06T17:00:00	2	Temperatura media	16.7
60618	7	Sololá	701	Sololá	3	Barraneche	11	Noviembre	2023-12-11T00:00:00	2024-11-06T17:00:00	4	Temperatura máxima	17.1
60619	7	Sololá	701	Sololá	3	Barraneche	11	Noviembre	2023-12-11T00:00:00	2024-11-06T17:00:00	3	Temperatura mínima	16.2
60620	7	Sololá	701	Sololá	3	Barraneche	11	Noviembre	2023-12-11T00:00:00	2024-11-06T17:00:00	5	Humedad	61
60621	7	Sololá	701	Sololá	3	Barraneche	11	Noviembre	2023-12-11T00:00:00	2024-11-06T17:00:00	6	Velocidad del viento	16.1
60622	7	Sololá	701	Sololá	3	Barraneche	11	Noviembre	2023-12-11T00:00:00	2024-11-06T17:00:00	7	Dirección del viento	16.09
60623	7	Sololá	701	Sololá	3	Barraneche	11	Noviembre	2023-12-11T00:00:00	2024-11-06T17:00:00	1	Precipitación	0
60624	7	Sololá	701	Sololá	3	Barraneche	11	Noviembre	2023-12-11T00:00:00	2024-11-06T17:00:00	8	Radiación solar	173
60625	7	Sololá	701	Sololá	3	Barraneche	11	Noviembre	2023-12-11T00:00:00	2024-11-06T18:00:00	2	Temperatura media	15.9
60626	7	Sololá	701	Sololá	3	Barraneche	11	Noviembre	2023-12-11T00:00:00	2024-11-06T18:00:00	4	Temperatura máxima	16.7
60627	7	Sololá	701	Sololá	3	Barraneche	11	Noviembre	2023-12-11T00:00:00	2024-11-06T18:00:00	3	Temperatura mínima	15.9
60628	7	Sololá	701	Sololá	3	Barraneche	11	Noviembre	2023-12-11T00:00:00	2024-11-06T18:00:00	5	Humedad	63
60629	7	Sololá	701	Sololá	3	Barraneche	11	Noviembre	2023-12-11T00:00:00	2024-11-06T18:00:00	6	Velocidad del viento	16.1
60630	7	Sololá	701	Sololá	3	Barraneche	11	Noviembre	2023-12-11T00:00:00	2024-11-06T18:00:00	7	Dirección del viento	16.09
60631	7	Sololá	701	Sololá	3	Barraneche	11	Noviembre	2023-12-11T00:00:00	2024-11-06T18:00:00	1	Precipitación	0
60632	7	Sololá	701	Sololá	3	Barraneche	11	Noviembre	2023-12-11T00:00:00	2024-11-06T18:00:00	8	Radiación solar	19
60633	7	Sololá	701	Sololá	3	Barraneche	11	Noviembre	2023-12-11T00:00:00	2024-11-06T19:00:00	2	Temperatura media	15.4
60634	7	Sololá	701	Sololá	3	Barraneche	11	Noviembre	2023-12-11T00:00:00	2024-11-06T19:00:00	4	Temperatura máxima	15.9
60635	7	Sololá	701	Sololá	3	Barraneche	11	Noviembre	2023-12-11T00:00:00	2024-11-06T19:00:00	3	Temperatura mínima	15.4
60636	7	Sololá	701	Sololá	3	Barraneche	11	Noviembre	2023-12-11T00:00:00	2024-11-06T19:00:00	5	Humedad	62
60637	7	Sololá	701	Sololá	3	Barraneche	11	Noviembre	2023-12-11T00:00:00	2024-11-06T19:00:00	6	Velocidad del viento	19.3
60638	7	Sololá	701	Sololá	3	Barraneche	11	Noviembre	2023-12-11T00:00:00	2024-11-06T19:00:00	7	Dirección del viento	19.31
60639	7	Sololá	701	Sololá	3	Barraneche	11	Noviembre	2023-12-11T00:00:00	2024-11-06T19:00:00	1	Precipitación	0
60640	7	Sololá	701	Sololá	3	Barraneche	11	Noviembre	2023-12-11T00:00:00	2024-11-06T19:00:00	8	Radiación solar	0
60641	7	Sololá	701	Sololá	3	Barraneche	11	Noviembre	2023-12-11T00:00:00	2024-11-06T20:00:00	2	Temperatura media	14.8
60642	7	Sololá	701	Sololá	3	Barraneche	11	Noviembre	2023-12-11T00:00:00	2024-11-06T20:00:00	4	Temperatura máxima	15.6
60643	7	Sololá	701	Sololá	3	Barraneche	11	Noviembre	2023-12-11T00:00:00	2024-11-06T20:00:00	3	Temperatura mínima	14.7
60644	7	Sololá	701	Sololá	3	Barraneche	11	Noviembre	2023-12-11T00:00:00	2024-11-06T20:00:00	5	Humedad	63
60645	7	Sololá	701	Sololá	3	Barraneche	11	Noviembre	2023-12-11T00:00:00	2024-11-06T20:00:00	6	Velocidad del viento	22.5
60646	7	Sololá	701	Sololá	3	Barraneche	11	Noviembre	2023-12-11T00:00:00	2024-11-06T20:00:00	7	Dirección del viento	22.53
60647	7	Sololá	701	Sololá	3	Barraneche	11	Noviembre	2023-12-11T00:00:00	2024-11-06T20:00:00	1	Precipitación	0
60648	7	Sololá	701	Sololá	3	Barraneche	11	Noviembre	2023-12-11T00:00:00	2024-11-06T20:00:00	8	Radiación solar	0
60649	7	Sololá	701	Sololá	3	Barraneche	11	Noviembre	2023-12-11T00:00:00	2024-11-06T21:00:00	2	Temperatura media	14.2
60650	7	Sololá	701	Sololá	3	Barraneche	11	Noviembre	2023-12-11T00:00:00	2024-11-06T21:00:00	4	Temperatura máxima	14.8
60651	7	Sololá	701	Sololá	3	Barraneche	11	Noviembre	2023-12-11T00:00:00	2024-11-06T21:00:00	3	Temperatura mínima	14.1
60652	7	Sololá	701	Sololá	3	Barraneche	11	Noviembre	2023-12-11T00:00:00	2024-11-06T21:00:00	5	Humedad	69
60653	7	Sololá	701	Sololá	3	Barraneche	11	Noviembre	2023-12-11T00:00:00	2024-11-06T21:00:00	6	Velocidad del viento	12.9
60654	7	Sololá	701	Sololá	3	Barraneche	11	Noviembre	2023-12-11T00:00:00	2024-11-06T21:00:00	7	Dirección del viento	12.87
60655	7	Sololá	701	Sololá	3	Barraneche	11	Noviembre	2023-12-11T00:00:00	2024-11-06T21:00:00	1	Precipitación	0
60656	7	Sololá	701	Sololá	3	Barraneche	11	Noviembre	2023-12-11T00:00:00	2024-11-06T21:00:00	8	Radiación solar	0
60657	7	Sololá	701	Sololá	3	Barraneche	11	Noviembre	2023-12-11T00:00:00	2024-11-06T22:00:00	2	Temperatura media	13.7
60658	7	Sololá	701	Sololá	3	Barraneche	11	Noviembre	2023-12-11T00:00:00	2024-11-06T22:00:00	4	Temperatura máxima	14.2
60659	7	Sololá	701	Sololá	3	Barraneche	11	Noviembre	2023-12-11T00:00:00	2024-11-06T22:00:00	3	Temperatura mínima	13.7
60660	7	Sololá	701	Sololá	3	Barraneche	11	Noviembre	2023-12-11T00:00:00	2024-11-06T22:00:00	5	Humedad	68
60661	7	Sololá	701	Sololá	3	Barraneche	11	Noviembre	2023-12-11T00:00:00	2024-11-06T22:00:00	6	Velocidad del viento	19.3
60662	7	Sololá	701	Sololá	3	Barraneche	11	Noviembre	2023-12-11T00:00:00	2024-11-06T22:00:00	7	Dirección del viento	19.31
60663	7	Sololá	701	Sololá	3	Barraneche	11	Noviembre	2023-12-11T00:00:00	2024-11-06T22:00:00	1	Precipitación	0
60664	7	Sololá	701	Sololá	3	Barraneche	11	Noviembre	2023-12-11T00:00:00	2024-11-06T22:00:00	8	Radiación solar	0
60665	7	Sololá	701	Sololá	3	Barraneche	11	Noviembre	2023-12-11T00:00:00	2024-11-06T23:00:00	2	Temperatura media	14.1
60666	7	Sololá	701	Sololá	3	Barraneche	11	Noviembre	2023-12-11T00:00:00	2024-11-06T23:00:00	4	Temperatura máxima	14.2
60667	7	Sololá	701	Sololá	3	Barraneche	11	Noviembre	2023-12-11T00:00:00	2024-11-06T23:00:00	3	Temperatura mínima	13.7
60668	7	Sololá	701	Sololá	3	Barraneche	11	Noviembre	2023-12-11T00:00:00	2024-11-06T23:00:00	5	Humedad	67
60669	7	Sololá	701	Sololá	3	Barraneche	11	Noviembre	2023-12-11T00:00:00	2024-11-06T23:00:00	6	Velocidad del viento	22.5
60670	7	Sololá	701	Sololá	3	Barraneche	11	Noviembre	2023-12-11T00:00:00	2024-11-06T23:00:00	7	Dirección del viento	22.53
60671	7	Sololá	701	Sololá	3	Barraneche	11	Noviembre	2023-12-11T00:00:00	2024-11-06T23:00:00	1	Precipitación	0
60672	7	Sololá	701	Sololá	3	Barraneche	11	Noviembre	2023-12-11T00:00:00	2024-11-06T23:00:00	8	Radiación solar	0
60673	7	Sololá	701	Sololá	3	Barraneche	11	Noviembre	2023-11-13T00:00:00	2024-11-06T00:00:00	2	Temperatura media	14.1
60674	7	Sololá	701	Sololá	3	Barraneche	11	Noviembre	2023-11-13T00:00:00	2024-11-06T00:00:00	4	Temperatura máxima	14.3
60675	7	Sololá	701	Sololá	3	Barraneche	11	Noviembre	2023-11-13T00:00:00	2024-11-06T00:00:00	3	Temperatura mínima	13.8
60676	7	Sololá	701	Sololá	3	Barraneche	11	Noviembre	2023-11-13T00:00:00	2024-11-06T00:00:00	5	Humedad	65
60677	7	Sololá	701	Sololá	3	Barraneche	11	Noviembre	2023-11-13T00:00:00	2024-11-06T00:00:00	6	Velocidad del viento	20.9
60678	7	Sololá	701	Sololá	3	Barraneche	11	Noviembre	2023-11-13T00:00:00	2024-11-06T00:00:00	7	Dirección del viento	20.92
60679	7	Sololá	701	Sololá	3	Barraneche	11	Noviembre	2023-11-13T00:00:00	2024-11-06T00:00:00	1	Precipitación	0
60680	7	Sololá	701	Sololá	3	Barraneche	11	Noviembre	2023-11-13T00:00:00	2024-11-06T00:00:00	8	Radiación solar	0
60681	7	Sololá	701	Sololá	3	Barraneche	11	Noviembre	2023-11-13T00:00:00	2024-11-06T01:00:00	2	Temperatura media	13.7
60682	7	Sololá	701	Sololá	3	Barraneche	11	Noviembre	2023-11-13T00:00:00	2024-11-06T01:00:00	4	Temperatura máxima	14.1
60683	7	Sololá	701	Sololá	3	Barraneche	11	Noviembre	2023-11-13T00:00:00	2024-11-06T01:00:00	3	Temperatura mínima	13.7
60684	7	Sololá	701	Sololá	3	Barraneche	11	Noviembre	2023-11-13T00:00:00	2024-11-06T01:00:00	5	Humedad	66
60685	7	Sololá	701	Sololá	3	Barraneche	11	Noviembre	2023-11-13T00:00:00	2024-11-06T01:00:00	6	Velocidad del viento	19.3
60686	7	Sololá	701	Sololá	3	Barraneche	11	Noviembre	2023-11-13T00:00:00	2024-11-06T01:00:00	7	Dirección del viento	19.31
60687	7	Sololá	701	Sololá	3	Barraneche	11	Noviembre	2023-11-13T00:00:00	2024-11-06T01:00:00	1	Precipitación	0
60688	7	Sololá	701	Sololá	3	Barraneche	11	Noviembre	2023-11-13T00:00:00	2024-11-06T01:00:00	8	Radiación solar	0
60689	7	Sololá	701	Sololá	3	Barraneche	11	Noviembre	2023-11-13T00:00:00	2024-11-06T02:00:00	2	Temperatura media	13.4
60690	7	Sololá	701	Sololá	3	Barraneche	11	Noviembre	2023-11-13T00:00:00	2024-11-06T02:00:00	4	Temperatura máxima	13.7
60691	7	Sololá	701	Sololá	3	Barraneche	11	Noviembre	2023-11-13T00:00:00	2024-11-06T02:00:00	3	Temperatura mínima	13.3
60692	7	Sololá	701	Sololá	3	Barraneche	11	Noviembre	2023-11-13T00:00:00	2024-11-06T02:00:00	5	Humedad	67
60693	7	Sololá	701	Sololá	3	Barraneche	11	Noviembre	2023-11-13T00:00:00	2024-11-06T02:00:00	6	Velocidad del viento	17.7
60694	7	Sololá	701	Sololá	3	Barraneche	11	Noviembre	2023-11-13T00:00:00	2024-11-06T02:00:00	7	Dirección del viento	17.7
60695	7	Sololá	701	Sololá	3	Barraneche	11	Noviembre	2023-11-13T00:00:00	2024-11-06T02:00:00	1	Precipitación	0
60696	7	Sololá	701	Sololá	3	Barraneche	11	Noviembre	2023-11-13T00:00:00	2024-11-06T02:00:00	8	Radiación solar	0
60697	7	Sololá	701	Sololá	3	Barraneche	11	Noviembre	2023-11-13T00:00:00	2024-11-06T03:00:00	2	Temperatura media	13.8
60698	7	Sololá	701	Sololá	3	Barraneche	11	Noviembre	2023-11-13T00:00:00	2024-11-06T03:00:00	4	Temperatura máxima	13.8
60699	7	Sololá	701	Sololá	3	Barraneche	11	Noviembre	2023-11-13T00:00:00	2024-11-06T03:00:00	3	Temperatura mínima	13.4
60700	7	Sololá	701	Sololá	3	Barraneche	11	Noviembre	2023-11-13T00:00:00	2024-11-06T03:00:00	5	Humedad	60
60701	7	Sololá	701	Sololá	3	Barraneche	11	Noviembre	2023-11-13T00:00:00	2024-11-06T03:00:00	6	Velocidad del viento	22.5
60702	7	Sololá	701	Sololá	3	Barraneche	11	Noviembre	2023-11-13T00:00:00	2024-11-06T03:00:00	7	Dirección del viento	22.53
60703	7	Sololá	701	Sololá	3	Barraneche	11	Noviembre	2023-11-13T00:00:00	2024-11-06T03:00:00	1	Precipitación	0
60704	7	Sololá	701	Sololá	3	Barraneche	11	Noviembre	2023-11-13T00:00:00	2024-11-06T03:00:00	8	Radiación solar	0
60705	7	Sololá	701	Sololá	3	Barraneche	11	Noviembre	2023-11-13T00:00:00	2024-11-06T04:00:00	2	Temperatura media	14
60706	7	Sololá	701	Sololá	3	Barraneche	11	Noviembre	2023-11-13T00:00:00	2024-11-06T04:00:00	4	Temperatura máxima	14.3
60707	7	Sololá	701	Sololá	3	Barraneche	11	Noviembre	2023-11-13T00:00:00	2024-11-06T04:00:00	3	Temperatura mínima	13.8
60708	7	Sololá	701	Sololá	3	Barraneche	11	Noviembre	2023-11-13T00:00:00	2024-11-06T04:00:00	5	Humedad	61
60709	7	Sololá	701	Sololá	3	Barraneche	11	Noviembre	2023-11-13T00:00:00	2024-11-06T04:00:00	6	Velocidad del viento	16.1
60710	7	Sololá	701	Sololá	3	Barraneche	11	Noviembre	2023-11-13T00:00:00	2024-11-06T04:00:00	7	Dirección del viento	16.09
60711	7	Sololá	701	Sololá	3	Barraneche	11	Noviembre	2023-11-13T00:00:00	2024-11-06T04:00:00	1	Precipitación	0
60712	7	Sololá	701	Sololá	3	Barraneche	11	Noviembre	2023-11-13T00:00:00	2024-11-06T04:00:00	8	Radiación solar	0
60713	7	Sololá	701	Sololá	3	Barraneche	11	Noviembre	2023-11-13T00:00:00	2024-11-06T05:00:00	2	Temperatura media	14.1
60714	7	Sololá	701	Sololá	3	Barraneche	11	Noviembre	2023-11-13T00:00:00	2024-11-06T05:00:00	4	Temperatura máxima	14.3
60715	7	Sololá	701	Sololá	3	Barraneche	11	Noviembre	2023-11-13T00:00:00	2024-11-06T05:00:00	3	Temperatura mínima	14
60716	7	Sololá	701	Sololá	3	Barraneche	11	Noviembre	2023-11-13T00:00:00	2024-11-06T05:00:00	5	Humedad	66
60717	7	Sololá	701	Sololá	3	Barraneche	11	Noviembre	2023-11-13T00:00:00	2024-11-06T05:00:00	6	Velocidad del viento	19.3
60718	7	Sololá	701	Sololá	3	Barraneche	11	Noviembre	2023-11-13T00:00:00	2024-11-06T05:00:00	7	Dirección del viento	19.31
60719	7	Sololá	701	Sololá	3	Barraneche	11	Noviembre	2023-11-13T00:00:00	2024-11-06T05:00:00	1	Precipitación	0
60720	7	Sololá	701	Sololá	3	Barraneche	11	Noviembre	2023-11-13T00:00:00	2024-11-06T05:00:00	8	Radiación solar	0
60721	7	Sololá	701	Sololá	3	Barraneche	11	Noviembre	2023-11-13T00:00:00	2024-11-06T06:00:00	2	Temperatura media	14.5
60722	7	Sololá	701	Sololá	3	Barraneche	11	Noviembre	2023-11-13T00:00:00	2024-11-06T06:00:00	4	Temperatura máxima	14.6
60723	7	Sololá	701	Sololá	3	Barraneche	11	Noviembre	2023-11-13T00:00:00	2024-11-06T06:00:00	3	Temperatura mínima	14
60724	7	Sololá	701	Sololá	3	Barraneche	11	Noviembre	2023-11-13T00:00:00	2024-11-06T06:00:00	5	Humedad	66
60725	7	Sololá	701	Sololá	3	Barraneche	11	Noviembre	2023-11-13T00:00:00	2024-11-06T06:00:00	6	Velocidad del viento	16.1
60726	7	Sololá	701	Sololá	3	Barraneche	11	Noviembre	2023-11-13T00:00:00	2024-11-06T06:00:00	7	Dirección del viento	16.09
60727	7	Sololá	701	Sololá	3	Barraneche	11	Noviembre	2023-11-13T00:00:00	2024-11-06T06:00:00	1	Precipitación	0
60728	7	Sololá	701	Sololá	3	Barraneche	11	Noviembre	2023-11-13T00:00:00	2024-11-06T06:00:00	8	Radiación solar	0
60729	7	Sololá	701	Sololá	3	Barraneche	11	Noviembre	2023-11-13T00:00:00	2024-11-06T07:00:00	2	Temperatura media	14.9
60730	7	Sololá	701	Sololá	3	Barraneche	11	Noviembre	2023-11-13T00:00:00	2024-11-06T07:00:00	4	Temperatura máxima	15.1
60731	7	Sololá	701	Sololá	3	Barraneche	11	Noviembre	2023-11-13T00:00:00	2024-11-06T07:00:00	3	Temperatura mínima	14.4
60732	7	Sololá	701	Sololá	3	Barraneche	11	Noviembre	2023-11-13T00:00:00	2024-11-06T07:00:00	5	Humedad	66
60733	7	Sololá	701	Sololá	3	Barraneche	11	Noviembre	2023-11-13T00:00:00	2024-11-06T07:00:00	6	Velocidad del viento	12.9
60734	7	Sololá	701	Sololá	3	Barraneche	11	Noviembre	2023-11-13T00:00:00	2024-11-06T07:00:00	7	Dirección del viento	12.87
60735	7	Sololá	701	Sololá	3	Barraneche	11	Noviembre	2023-11-13T00:00:00	2024-11-06T07:00:00	1	Precipitación	0
60736	7	Sololá	701	Sololá	3	Barraneche	11	Noviembre	2023-11-13T00:00:00	2024-11-06T07:00:00	8	Radiación solar	46
60737	7	Sololá	701	Sololá	3	Barraneche	11	Noviembre	2023-11-13T00:00:00	2024-11-06T08:00:00	2	Temperatura media	16.3
60738	7	Sololá	701	Sololá	3	Barraneche	11	Noviembre	2023-11-13T00:00:00	2024-11-06T08:00:00	4	Temperatura máxima	16.3
60739	7	Sololá	701	Sololá	3	Barraneche	11	Noviembre	2023-11-13T00:00:00	2024-11-06T08:00:00	3	Temperatura mínima	14.9
60740	7	Sololá	701	Sololá	3	Barraneche	11	Noviembre	2023-11-13T00:00:00	2024-11-06T08:00:00	5	Humedad	61
60741	7	Sololá	701	Sololá	3	Barraneche	11	Noviembre	2023-11-13T00:00:00	2024-11-06T08:00:00	6	Velocidad del viento	20.9
60742	7	Sololá	701	Sololá	3	Barraneche	11	Noviembre	2023-11-13T00:00:00	2024-11-06T08:00:00	7	Dirección del viento	20.92
60743	7	Sololá	701	Sololá	3	Barraneche	11	Noviembre	2023-11-13T00:00:00	2024-11-06T08:00:00	1	Precipitación	0
60744	7	Sololá	701	Sololá	3	Barraneche	11	Noviembre	2023-11-13T00:00:00	2024-11-06T08:00:00	8	Radiación solar	284
60745	7	Sololá	701	Sololá	3	Barraneche	11	Noviembre	2023-11-13T00:00:00	2024-11-06T09:00:00	2	Temperatura media	16.5
60746	7	Sololá	701	Sololá	3	Barraneche	11	Noviembre	2023-11-13T00:00:00	2024-11-06T09:00:00	4	Temperatura máxima	17
60747	7	Sololá	701	Sololá	3	Barraneche	11	Noviembre	2023-11-13T00:00:00	2024-11-06T09:00:00	3	Temperatura mínima	16.3
60748	7	Sololá	701	Sololá	3	Barraneche	11	Noviembre	2023-11-13T00:00:00	2024-11-06T09:00:00	5	Humedad	62
60749	7	Sololá	701	Sololá	3	Barraneche	11	Noviembre	2023-11-13T00:00:00	2024-11-06T09:00:00	6	Velocidad del viento	22.5
60750	7	Sololá	701	Sololá	3	Barraneche	11	Noviembre	2023-11-13T00:00:00	2024-11-06T09:00:00	7	Dirección del viento	22.53
60751	7	Sololá	701	Sololá	3	Barraneche	11	Noviembre	2023-11-13T00:00:00	2024-11-06T09:00:00	1	Precipitación	0
60752	7	Sololá	701	Sololá	3	Barraneche	11	Noviembre	2023-11-13T00:00:00	2024-11-06T09:00:00	8	Radiación solar	539
60753	7	Sololá	701	Sololá	3	Barraneche	11	Noviembre	2023-11-13T00:00:00	2024-11-06T10:00:00	2	Temperatura media	17
60754	7	Sololá	701	Sololá	3	Barraneche	11	Noviembre	2023-11-13T00:00:00	2024-11-06T10:00:00	4	Temperatura máxima	17
60755	7	Sololá	701	Sololá	3	Barraneche	11	Noviembre	2023-11-13T00:00:00	2024-11-06T10:00:00	3	Temperatura mínima	16.3
60756	7	Sololá	701	Sololá	3	Barraneche	11	Noviembre	2023-11-13T00:00:00	2024-11-06T10:00:00	5	Humedad	62
60757	7	Sololá	701	Sololá	3	Barraneche	11	Noviembre	2023-11-13T00:00:00	2024-11-06T10:00:00	6	Velocidad del viento	20.9
60758	7	Sololá	701	Sololá	3	Barraneche	11	Noviembre	2023-11-13T00:00:00	2024-11-06T10:00:00	7	Dirección del viento	20.92
60759	7	Sololá	701	Sololá	3	Barraneche	11	Noviembre	2023-11-13T00:00:00	2024-11-06T10:00:00	1	Precipitación	0
60760	7	Sololá	701	Sololá	3	Barraneche	11	Noviembre	2023-11-13T00:00:00	2024-11-06T10:00:00	8	Radiación solar	751
60761	7	Sololá	701	Sololá	3	Barraneche	11	Noviembre	2023-11-13T00:00:00	2024-11-06T11:00:00	2	Temperatura media	18.6
60762	7	Sololá	701	Sololá	3	Barraneche	11	Noviembre	2023-11-13T00:00:00	2024-11-06T11:00:00	4	Temperatura máxima	18.7
60763	7	Sololá	701	Sololá	3	Barraneche	11	Noviembre	2023-11-13T00:00:00	2024-11-06T11:00:00	3	Temperatura mínima	16.9
60764	7	Sololá	701	Sololá	3	Barraneche	11	Noviembre	2023-11-13T00:00:00	2024-11-06T11:00:00	5	Humedad	58
60765	7	Sololá	701	Sololá	3	Barraneche	11	Noviembre	2023-11-13T00:00:00	2024-11-06T11:00:00	6	Velocidad del viento	17.7
60766	7	Sololá	701	Sololá	3	Barraneche	11	Noviembre	2023-11-13T00:00:00	2024-11-06T11:00:00	7	Dirección del viento	17.7
60767	7	Sololá	701	Sololá	3	Barraneche	11	Noviembre	2023-11-13T00:00:00	2024-11-06T11:00:00	1	Precipitación	0
60768	7	Sololá	701	Sololá	3	Barraneche	11	Noviembre	2023-11-13T00:00:00	2024-11-06T11:00:00	8	Radiación solar	911
60769	7	Sololá	701	Sololá	3	Barraneche	11	Noviembre	2023-11-13T00:00:00	2024-11-06T12:00:00	2	Temperatura media	20.1
60770	7	Sololá	701	Sololá	3	Barraneche	11	Noviembre	2023-11-13T00:00:00	2024-11-06T12:00:00	4	Temperatura máxima	20.1
60771	7	Sololá	701	Sololá	3	Barraneche	11	Noviembre	2023-11-13T00:00:00	2024-11-06T12:00:00	3	Temperatura mínima	18.4
60772	7	Sololá	701	Sololá	3	Barraneche	11	Noviembre	2023-11-13T00:00:00	2024-11-06T12:00:00	5	Humedad	53
60773	7	Sololá	701	Sololá	3	Barraneche	11	Noviembre	2023-11-13T00:00:00	2024-11-06T12:00:00	6	Velocidad del viento	16.1
60774	7	Sololá	701	Sololá	3	Barraneche	11	Noviembre	2023-11-13T00:00:00	2024-11-06T12:00:00	7	Dirección del viento	16.09
60775	7	Sololá	701	Sololá	3	Barraneche	11	Noviembre	2023-11-13T00:00:00	2024-11-06T12:00:00	1	Precipitación	0
60776	7	Sololá	701	Sololá	3	Barraneche	11	Noviembre	2023-11-13T00:00:00	2024-11-06T12:00:00	8	Radiación solar	928
60777	7	Sololá	701	Sololá	3	Barraneche	11	Noviembre	2023-11-13T00:00:00	2024-11-06T13:00:00	2	Temperatura media	19.8
60778	7	Sololá	701	Sololá	3	Barraneche	11	Noviembre	2023-11-13T00:00:00	2024-11-06T13:00:00	4	Temperatura máxima	20.2
60779	7	Sololá	701	Sololá	3	Barraneche	11	Noviembre	2023-11-13T00:00:00	2024-11-06T13:00:00	3	Temperatura mínima	19.4
60780	7	Sololá	701	Sololá	3	Barraneche	11	Noviembre	2023-11-13T00:00:00	2024-11-06T13:00:00	5	Humedad	54
60781	7	Sololá	701	Sololá	3	Barraneche	11	Noviembre	2023-11-13T00:00:00	2024-11-06T13:00:00	6	Velocidad del viento	14.5
60782	7	Sololá	701	Sololá	3	Barraneche	11	Noviembre	2023-11-13T00:00:00	2024-11-06T13:00:00	7	Dirección del viento	14.48
60783	7	Sololá	701	Sololá	3	Barraneche	11	Noviembre	2023-11-13T00:00:00	2024-11-06T13:00:00	1	Precipitación	0
60784	7	Sololá	701	Sololá	3	Barraneche	11	Noviembre	2023-11-13T00:00:00	2024-11-06T13:00:00	8	Radiación solar	949
60785	7	Sololá	701	Sololá	3	Barraneche	11	Noviembre	2023-11-13T00:00:00	2024-11-06T14:00:00	2	Temperatura media	18.9
60786	7	Sololá	701	Sololá	3	Barraneche	11	Noviembre	2023-11-13T00:00:00	2024-11-06T14:00:00	4	Temperatura máxima	20.4
60787	7	Sololá	701	Sololá	3	Barraneche	11	Noviembre	2023-11-13T00:00:00	2024-11-06T14:00:00	3	Temperatura mínima	18.7
60788	7	Sololá	701	Sololá	3	Barraneche	11	Noviembre	2023-11-13T00:00:00	2024-11-06T14:00:00	5	Humedad	57
60789	7	Sololá	701	Sololá	3	Barraneche	11	Noviembre	2023-11-13T00:00:00	2024-11-06T14:00:00	6	Velocidad del viento	16.1
60790	7	Sololá	701	Sololá	3	Barraneche	11	Noviembre	2023-11-13T00:00:00	2024-11-06T14:00:00	7	Dirección del viento	16.09
60791	7	Sololá	701	Sololá	3	Barraneche	11	Noviembre	2023-11-13T00:00:00	2024-11-06T14:00:00	1	Precipitación	0
60792	7	Sololá	701	Sololá	3	Barraneche	11	Noviembre	2023-11-13T00:00:00	2024-11-06T14:00:00	8	Radiación solar	386
60793	7	Sololá	701	Sololá	3	Barraneche	11	Noviembre	2023-11-13T00:00:00	2024-11-06T15:00:00	2	Temperatura media	18.5
60794	7	Sololá	701	Sololá	3	Barraneche	11	Noviembre	2023-11-13T00:00:00	2024-11-06T15:00:00	4	Temperatura máxima	19.6
60795	7	Sololá	701	Sololá	3	Barraneche	11	Noviembre	2023-11-13T00:00:00	2024-11-06T15:00:00	3	Temperatura mínima	17.9
60796	7	Sololá	701	Sololá	3	Barraneche	11	Noviembre	2023-11-13T00:00:00	2024-11-06T15:00:00	5	Humedad	58
60797	7	Sololá	701	Sololá	3	Barraneche	11	Noviembre	2023-11-13T00:00:00	2024-11-06T15:00:00	6	Velocidad del viento	14.5
60798	7	Sololá	701	Sololá	3	Barraneche	11	Noviembre	2023-11-13T00:00:00	2024-11-06T15:00:00	7	Dirección del viento	14.48
60799	7	Sololá	701	Sololá	3	Barraneche	11	Noviembre	2023-11-13T00:00:00	2024-11-06T15:00:00	1	Precipitación	0
60800	7	Sololá	701	Sololá	3	Barraneche	11	Noviembre	2023-11-13T00:00:00	2024-11-06T15:00:00	8	Radiación solar	433
60801	7	Sololá	701	Sololá	3	Barraneche	11	Noviembre	2023-11-13T00:00:00	2024-11-06T16:00:00	2	Temperatura media	17.8
60802	7	Sololá	701	Sololá	3	Barraneche	11	Noviembre	2023-11-13T00:00:00	2024-11-06T16:00:00	4	Temperatura máxima	19.4
60803	7	Sololá	701	Sololá	3	Barraneche	11	Noviembre	2023-11-13T00:00:00	2024-11-06T16:00:00	3	Temperatura mínima	17.8
60804	7	Sololá	701	Sololá	3	Barraneche	11	Noviembre	2023-11-13T00:00:00	2024-11-06T16:00:00	5	Humedad	59
60805	7	Sololá	701	Sololá	3	Barraneche	11	Noviembre	2023-11-13T00:00:00	2024-11-06T16:00:00	6	Velocidad del viento	9.7
60806	7	Sololá	701	Sololá	3	Barraneche	11	Noviembre	2023-11-13T00:00:00	2024-11-06T16:00:00	7	Dirección del viento	9.66
60807	7	Sololá	701	Sololá	3	Barraneche	11	Noviembre	2023-11-13T00:00:00	2024-11-06T16:00:00	1	Precipitación	0
60808	7	Sololá	701	Sololá	3	Barraneche	11	Noviembre	2023-11-13T00:00:00	2024-11-06T16:00:00	8	Radiación solar	254
60809	7	Sololá	701	Sololá	3	Barraneche	11	Noviembre	2023-11-13T00:00:00	2024-11-06T17:00:00	2	Temperatura media	16.8
60810	7	Sololá	701	Sololá	3	Barraneche	11	Noviembre	2023-11-13T00:00:00	2024-11-06T17:00:00	4	Temperatura máxima	17.8
60811	7	Sololá	701	Sololá	3	Barraneche	11	Noviembre	2023-11-13T00:00:00	2024-11-06T17:00:00	3	Temperatura mínima	16.8
60812	7	Sololá	701	Sololá	3	Barraneche	11	Noviembre	2023-11-13T00:00:00	2024-11-06T17:00:00	5	Humedad	64
60813	7	Sololá	701	Sololá	3	Barraneche	11	Noviembre	2023-11-13T00:00:00	2024-11-06T17:00:00	6	Velocidad del viento	9.7
60814	7	Sololá	701	Sololá	3	Barraneche	11	Noviembre	2023-11-13T00:00:00	2024-11-06T17:00:00	7	Dirección del viento	9.66
60815	7	Sololá	701	Sololá	3	Barraneche	11	Noviembre	2023-11-13T00:00:00	2024-11-06T17:00:00	1	Precipitación	0
60816	7	Sololá	701	Sololá	3	Barraneche	11	Noviembre	2023-11-13T00:00:00	2024-11-06T17:00:00	8	Radiación solar	28
60817	7	Sololá	701	Sololá	3	Barraneche	11	Noviembre	2023-11-13T00:00:00	2024-11-06T18:00:00	2	Temperatura media	15.8
60818	7	Sololá	701	Sololá	3	Barraneche	11	Noviembre	2023-11-13T00:00:00	2024-11-06T18:00:00	4	Temperatura máxima	16.8
60819	7	Sololá	701	Sololá	3	Barraneche	11	Noviembre	2023-11-13T00:00:00	2024-11-06T18:00:00	3	Temperatura mínima	15.8
60820	7	Sololá	701	Sololá	3	Barraneche	11	Noviembre	2023-11-13T00:00:00	2024-11-06T18:00:00	5	Humedad	69
60821	7	Sololá	701	Sololá	3	Barraneche	11	Noviembre	2023-11-13T00:00:00	2024-11-06T18:00:00	6	Velocidad del viento	6.4
60822	7	Sololá	701	Sololá	3	Barraneche	11	Noviembre	2023-11-13T00:00:00	2024-11-06T18:00:00	7	Dirección del viento	6.44
60823	7	Sololá	701	Sololá	3	Barraneche	11	Noviembre	2023-11-13T00:00:00	2024-11-06T18:00:00	1	Precipitación	0
60824	7	Sololá	701	Sololá	3	Barraneche	11	Noviembre	2023-11-13T00:00:00	2024-11-06T18:00:00	8	Radiación solar	7
60825	7	Sololá	701	Sololá	3	Barraneche	11	Noviembre	2023-11-13T00:00:00	2024-11-06T19:00:00	2	Temperatura media	16.1
60826	7	Sololá	701	Sololá	3	Barraneche	11	Noviembre	2023-11-13T00:00:00	2024-11-06T19:00:00	4	Temperatura máxima	16.2
60827	7	Sololá	701	Sololá	3	Barraneche	11	Noviembre	2023-11-13T00:00:00	2024-11-06T19:00:00	3	Temperatura mínima	15.7
60828	7	Sololá	701	Sololá	3	Barraneche	11	Noviembre	2023-11-13T00:00:00	2024-11-06T19:00:00	5	Humedad	65
60829	7	Sololá	701	Sololá	3	Barraneche	11	Noviembre	2023-11-13T00:00:00	2024-11-06T19:00:00	6	Velocidad del viento	11.3
60830	7	Sololá	701	Sololá	3	Barraneche	11	Noviembre	2023-11-13T00:00:00	2024-11-06T19:00:00	7	Dirección del viento	11.27
60831	7	Sololá	701	Sololá	3	Barraneche	11	Noviembre	2023-11-13T00:00:00	2024-11-06T19:00:00	1	Precipitación	0
60832	7	Sololá	701	Sololá	3	Barraneche	11	Noviembre	2023-11-13T00:00:00	2024-11-06T19:00:00	8	Radiación solar	0
60833	7	Sololá	701	Sololá	3	Barraneche	11	Noviembre	2023-11-13T00:00:00	2024-11-06T20:00:00	2	Temperatura media	15.7
60834	7	Sololá	701	Sololá	3	Barraneche	11	Noviembre	2023-11-13T00:00:00	2024-11-06T20:00:00	4	Temperatura máxima	16.1
60835	7	Sololá	701	Sololá	3	Barraneche	11	Noviembre	2023-11-13T00:00:00	2024-11-06T20:00:00	3	Temperatura mínima	15.7
60836	7	Sololá	701	Sololá	3	Barraneche	11	Noviembre	2023-11-13T00:00:00	2024-11-06T20:00:00	5	Humedad	66
60837	7	Sololá	701	Sololá	3	Barraneche	11	Noviembre	2023-11-13T00:00:00	2024-11-06T20:00:00	6	Velocidad del viento	14.5
60838	7	Sololá	701	Sololá	3	Barraneche	11	Noviembre	2023-11-13T00:00:00	2024-11-06T20:00:00	7	Dirección del viento	14.48
60839	7	Sololá	701	Sololá	3	Barraneche	11	Noviembre	2023-11-13T00:00:00	2024-11-06T20:00:00	1	Precipitación	0
60840	7	Sololá	701	Sololá	3	Barraneche	11	Noviembre	2023-11-13T00:00:00	2024-11-06T20:00:00	8	Radiación solar	0
60841	7	Sololá	701	Sololá	3	Barraneche	11	Noviembre	2023-11-13T00:00:00	2024-11-06T21:00:00	2	Temperatura media	15.4
60842	7	Sololá	701	Sololá	3	Barraneche	11	Noviembre	2023-11-13T00:00:00	2024-11-06T21:00:00	4	Temperatura máxima	15.7
60843	7	Sololá	701	Sololá	3	Barraneche	11	Noviembre	2023-11-13T00:00:00	2024-11-06T21:00:00	3	Temperatura mínima	15.4
60844	7	Sololá	701	Sololá	3	Barraneche	11	Noviembre	2023-11-13T00:00:00	2024-11-06T21:00:00	5	Humedad	68
60845	7	Sololá	701	Sololá	3	Barraneche	11	Noviembre	2023-11-13T00:00:00	2024-11-06T21:00:00	6	Velocidad del viento	14.5
60846	7	Sololá	701	Sololá	3	Barraneche	11	Noviembre	2023-11-13T00:00:00	2024-11-06T21:00:00	7	Dirección del viento	14.48
60847	7	Sololá	701	Sololá	3	Barraneche	11	Noviembre	2023-11-13T00:00:00	2024-11-06T21:00:00	1	Precipitación	0
60848	7	Sololá	701	Sololá	3	Barraneche	11	Noviembre	2023-11-13T00:00:00	2024-11-06T21:00:00	8	Radiación solar	0
60849	7	Sololá	701	Sololá	3	Barraneche	11	Noviembre	2023-11-13T00:00:00	2024-11-06T22:00:00	2	Temperatura media	15.4
60850	7	Sololá	701	Sololá	3	Barraneche	11	Noviembre	2023-11-13T00:00:00	2024-11-06T22:00:00	4	Temperatura máxima	15.6
60851	7	Sololá	701	Sololá	3	Barraneche	11	Noviembre	2023-11-13T00:00:00	2024-11-06T22:00:00	3	Temperatura mínima	15.1
60852	7	Sololá	701	Sololá	3	Barraneche	11	Noviembre	2023-11-13T00:00:00	2024-11-06T22:00:00	5	Humedad	68
60853	7	Sololá	701	Sololá	3	Barraneche	11	Noviembre	2023-11-13T00:00:00	2024-11-06T22:00:00	6	Velocidad del viento	11.3
60854	7	Sololá	701	Sololá	3	Barraneche	11	Noviembre	2023-11-13T00:00:00	2024-11-06T22:00:00	7	Dirección del viento	11.27
60855	7	Sololá	701	Sololá	3	Barraneche	11	Noviembre	2023-11-13T00:00:00	2024-11-06T22:00:00	1	Precipitación	0
60856	7	Sololá	701	Sololá	3	Barraneche	11	Noviembre	2023-11-13T00:00:00	2024-11-06T22:00:00	8	Radiación solar	0
60857	7	Sololá	701	Sololá	3	Barraneche	11	Noviembre	2023-11-13T00:00:00	2024-11-06T23:00:00	2	Temperatura media	15
60858	7	Sololá	701	Sololá	3	Barraneche	11	Noviembre	2023-11-13T00:00:00	2024-11-06T23:00:00	4	Temperatura máxima	15.4
60859	7	Sololá	701	Sololá	3	Barraneche	11	Noviembre	2023-11-13T00:00:00	2024-11-06T23:00:00	3	Temperatura mínima	14.8
60860	7	Sololá	701	Sololá	3	Barraneche	11	Noviembre	2023-11-13T00:00:00	2024-11-06T23:00:00	5	Humedad	71
60861	7	Sololá	701	Sololá	3	Barraneche	11	Noviembre	2023-11-13T00:00:00	2024-11-06T23:00:00	6	Velocidad del viento	6.4
60862	7	Sololá	701	Sololá	3	Barraneche	11	Noviembre	2023-11-13T00:00:00	2024-11-06T23:00:00	7	Dirección del viento	6.44
60863	7	Sololá	701	Sololá	3	Barraneche	11	Noviembre	2023-11-13T00:00:00	2024-11-06T23:00:00	1	Precipitación	0
60864	7	Sololá	701	Sololá	3	Barraneche	11	Noviembre	2023-11-13T00:00:00	2024-11-06T23:00:00	8	Radiación solar	0
60865	7	Sololá	701	Sololá	3	Barraneche	11	Noviembre	2023-11-14T00:00:00	2024-11-06T00:00:00	2	Temperatura media	14.2
60866	7	Sololá	701	Sololá	3	Barraneche	11	Noviembre	2023-11-14T00:00:00	2024-11-06T00:00:00	4	Temperatura máxima	15
60867	7	Sololá	701	Sololá	3	Barraneche	11	Noviembre	2023-11-14T00:00:00	2024-11-06T00:00:00	3	Temperatura mínima	14.1
60868	7	Sololá	701	Sololá	3	Barraneche	11	Noviembre	2023-11-14T00:00:00	2024-11-06T00:00:00	5	Humedad	79
60869	7	Sololá	701	Sololá	3	Barraneche	11	Noviembre	2023-11-14T00:00:00	2024-11-06T00:00:00	6	Velocidad del viento	3.2
60870	7	Sololá	701	Sololá	3	Barraneche	11	Noviembre	2023-11-14T00:00:00	2024-11-06T00:00:00	7	Dirección del viento	3.22
60871	7	Sololá	701	Sololá	3	Barraneche	11	Noviembre	2023-11-14T00:00:00	2024-11-06T00:00:00	1	Precipitación	0.4
60872	7	Sololá	701	Sololá	3	Barraneche	11	Noviembre	2023-11-14T00:00:00	2024-11-06T00:00:00	8	Radiación solar	0
60873	7	Sololá	701	Sololá	3	Barraneche	11	Noviembre	2023-11-14T00:00:00	2024-11-06T01:00:00	2	Temperatura media	14.6
60874	7	Sololá	701	Sololá	3	Barraneche	11	Noviembre	2023-11-14T00:00:00	2024-11-06T01:00:00	4	Temperatura máxima	14.6
60875	7	Sololá	701	Sololá	3	Barraneche	11	Noviembre	2023-11-14T00:00:00	2024-11-06T01:00:00	3	Temperatura mínima	14
60876	7	Sololá	701	Sololá	3	Barraneche	11	Noviembre	2023-11-14T00:00:00	2024-11-06T01:00:00	5	Humedad	71
60877	7	Sololá	701	Sololá	3	Barraneche	11	Noviembre	2023-11-14T00:00:00	2024-11-06T01:00:00	6	Velocidad del viento	3.2
60878	7	Sololá	701	Sololá	3	Barraneche	11	Noviembre	2023-11-14T00:00:00	2024-11-06T01:00:00	7	Dirección del viento	3.22
60879	7	Sololá	701	Sololá	3	Barraneche	11	Noviembre	2023-11-14T00:00:00	2024-11-06T01:00:00	1	Precipitación	0
60880	7	Sololá	701	Sololá	3	Barraneche	11	Noviembre	2023-11-14T00:00:00	2024-11-06T01:00:00	8	Radiación solar	0
60881	7	Sololá	701	Sololá	3	Barraneche	11	Noviembre	2023-11-14T00:00:00	2024-11-06T02:00:00	2	Temperatura media	14.4
60882	7	Sololá	701	Sololá	3	Barraneche	11	Noviembre	2023-11-14T00:00:00	2024-11-06T02:00:00	4	Temperatura máxima	14.7
60883	7	Sololá	701	Sololá	3	Barraneche	11	Noviembre	2023-11-14T00:00:00	2024-11-06T02:00:00	3	Temperatura mínima	14.1
60884	7	Sololá	701	Sololá	3	Barraneche	11	Noviembre	2023-11-14T00:00:00	2024-11-06T02:00:00	5	Humedad	71
60885	7	Sololá	701	Sololá	3	Barraneche	11	Noviembre	2023-11-14T00:00:00	2024-11-06T02:00:00	6	Velocidad del viento	4.8
60886	7	Sololá	701	Sololá	3	Barraneche	11	Noviembre	2023-11-14T00:00:00	2024-11-06T02:00:00	7	Dirección del viento	4.83
60887	7	Sololá	701	Sololá	3	Barraneche	11	Noviembre	2023-11-14T00:00:00	2024-11-06T02:00:00	1	Precipitación	0
60888	7	Sololá	701	Sololá	3	Barraneche	11	Noviembre	2023-11-14T00:00:00	2024-11-06T02:00:00	8	Radiación solar	0
60889	7	Sololá	701	Sololá	3	Barraneche	11	Noviembre	2023-11-14T00:00:00	2024-11-06T03:00:00	2	Temperatura media	13.8
60890	7	Sololá	701	Sololá	3	Barraneche	11	Noviembre	2023-11-14T00:00:00	2024-11-06T03:00:00	4	Temperatura máxima	14.7
60891	7	Sololá	701	Sololá	3	Barraneche	11	Noviembre	2023-11-14T00:00:00	2024-11-06T03:00:00	3	Temperatura mínima	13.8
60892	7	Sololá	701	Sololá	3	Barraneche	11	Noviembre	2023-11-14T00:00:00	2024-11-06T03:00:00	5	Humedad	73
60893	7	Sololá	701	Sololá	3	Barraneche	11	Noviembre	2023-11-14T00:00:00	2024-11-06T03:00:00	6	Velocidad del viento	3.2
60894	7	Sololá	701	Sololá	3	Barraneche	11	Noviembre	2023-11-14T00:00:00	2024-11-06T03:00:00	7	Dirección del viento	3.22
60895	7	Sololá	701	Sololá	3	Barraneche	11	Noviembre	2023-11-14T00:00:00	2024-11-06T03:00:00	1	Precipitación	0
60896	7	Sololá	701	Sololá	3	Barraneche	11	Noviembre	2023-11-14T00:00:00	2024-11-06T03:00:00	8	Radiación solar	0
60897	7	Sololá	701	Sololá	3	Barraneche	11	Noviembre	2023-11-14T00:00:00	2024-11-06T04:00:00	2	Temperatura media	13.8
60898	7	Sololá	701	Sololá	3	Barraneche	11	Noviembre	2023-11-14T00:00:00	2024-11-06T04:00:00	4	Temperatura máxima	14.1
60899	7	Sololá	701	Sololá	3	Barraneche	11	Noviembre	2023-11-14T00:00:00	2024-11-06T04:00:00	3	Temperatura mínima	13.5
60900	7	Sololá	701	Sololá	3	Barraneche	11	Noviembre	2023-11-14T00:00:00	2024-11-06T04:00:00	5	Humedad	71
60901	7	Sololá	701	Sololá	3	Barraneche	11	Noviembre	2023-11-14T00:00:00	2024-11-06T04:00:00	6	Velocidad del viento	4.8
60902	7	Sololá	701	Sololá	3	Barraneche	11	Noviembre	2023-11-14T00:00:00	2024-11-06T04:00:00	7	Dirección del viento	4.83
60903	7	Sololá	701	Sololá	3	Barraneche	11	Noviembre	2023-11-14T00:00:00	2024-11-06T04:00:00	1	Precipitación	0
60904	7	Sololá	701	Sololá	3	Barraneche	11	Noviembre	2023-11-14T00:00:00	2024-11-06T04:00:00	8	Radiación solar	0
60905	7	Sololá	701	Sololá	3	Barraneche	11	Noviembre	2023-11-14T00:00:00	2024-11-06T05:00:00	2	Temperatura media	14.9
60906	7	Sololá	701	Sololá	3	Barraneche	11	Noviembre	2023-11-14T00:00:00	2024-11-06T05:00:00	4	Temperatura máxima	14.9
60907	7	Sololá	701	Sololá	3	Barraneche	11	Noviembre	2023-11-14T00:00:00	2024-11-06T05:00:00	3	Temperatura mínima	13.5
60908	7	Sololá	701	Sololá	3	Barraneche	11	Noviembre	2023-11-14T00:00:00	2024-11-06T05:00:00	5	Humedad	65
60909	7	Sololá	701	Sololá	3	Barraneche	11	Noviembre	2023-11-14T00:00:00	2024-11-06T05:00:00	6	Velocidad del viento	4.8
60910	7	Sololá	701	Sololá	3	Barraneche	11	Noviembre	2023-11-14T00:00:00	2024-11-06T05:00:00	7	Dirección del viento	4.83
60911	7	Sololá	701	Sololá	3	Barraneche	11	Noviembre	2023-11-14T00:00:00	2024-11-06T05:00:00	1	Precipitación	0
60912	7	Sololá	701	Sololá	3	Barraneche	11	Noviembre	2023-11-14T00:00:00	2024-11-06T05:00:00	8	Radiación solar	0
60913	7	Sololá	701	Sololá	3	Barraneche	11	Noviembre	2023-11-14T00:00:00	2024-11-06T06:00:00	2	Temperatura media	14.3
60914	7	Sololá	701	Sololá	3	Barraneche	11	Noviembre	2023-11-14T00:00:00	2024-11-06T06:00:00	4	Temperatura máxima	14.9
60915	7	Sololá	701	Sololá	3	Barraneche	11	Noviembre	2023-11-14T00:00:00	2024-11-06T06:00:00	3	Temperatura mínima	14.3
60916	7	Sololá	701	Sololá	3	Barraneche	11	Noviembre	2023-11-14T00:00:00	2024-11-06T06:00:00	5	Humedad	67
60917	7	Sololá	701	Sololá	3	Barraneche	11	Noviembre	2023-11-14T00:00:00	2024-11-06T06:00:00	6	Velocidad del viento	8
60918	7	Sololá	701	Sololá	3	Barraneche	11	Noviembre	2023-11-14T00:00:00	2024-11-06T06:00:00	7	Dirección del viento	8.05
60919	7	Sololá	701	Sololá	3	Barraneche	11	Noviembre	2023-11-14T00:00:00	2024-11-06T06:00:00	1	Precipitación	0.2
60920	7	Sololá	701	Sololá	3	Barraneche	11	Noviembre	2023-11-14T00:00:00	2024-11-06T06:00:00	8	Radiación solar	0
60921	7	Sololá	701	Sololá	3	Barraneche	11	Noviembre	2023-11-14T00:00:00	2024-11-06T07:00:00	2	Temperatura media	15.1
60922	7	Sololá	701	Sololá	3	Barraneche	11	Noviembre	2023-11-14T00:00:00	2024-11-06T07:00:00	4	Temperatura máxima	15.1
60923	7	Sololá	701	Sololá	3	Barraneche	11	Noviembre	2023-11-14T00:00:00	2024-11-06T07:00:00	3	Temperatura mínima	13.8
60924	7	Sololá	701	Sololá	3	Barraneche	11	Noviembre	2023-11-14T00:00:00	2024-11-06T07:00:00	5	Humedad	65
60925	7	Sololá	701	Sololá	3	Barraneche	11	Noviembre	2023-11-14T00:00:00	2024-11-06T07:00:00	6	Velocidad del viento	4.8
60926	7	Sololá	701	Sololá	3	Barraneche	11	Noviembre	2023-11-14T00:00:00	2024-11-06T07:00:00	7	Dirección del viento	4.83
60927	7	Sololá	701	Sololá	3	Barraneche	11	Noviembre	2023-11-14T00:00:00	2024-11-06T07:00:00	1	Precipitación	0
60928	7	Sololá	701	Sololá	3	Barraneche	11	Noviembre	2023-11-14T00:00:00	2024-11-06T07:00:00	8	Radiación solar	24
60929	7	Sololá	701	Sololá	3	Barraneche	11	Noviembre	2023-11-14T00:00:00	2024-11-06T08:00:00	2	Temperatura media	16.7
60930	7	Sololá	701	Sololá	3	Barraneche	11	Noviembre	2023-11-14T00:00:00	2024-11-06T08:00:00	4	Temperatura máxima	16.7
60931	7	Sololá	701	Sololá	3	Barraneche	11	Noviembre	2023-11-14T00:00:00	2024-11-06T08:00:00	3	Temperatura mínima	15
60932	7	Sololá	701	Sololá	3	Barraneche	11	Noviembre	2023-11-14T00:00:00	2024-11-06T08:00:00	5	Humedad	62
60933	7	Sololá	701	Sololá	3	Barraneche	11	Noviembre	2023-11-14T00:00:00	2024-11-06T08:00:00	6	Velocidad del viento	8
60934	7	Sololá	701	Sololá	3	Barraneche	11	Noviembre	2023-11-14T00:00:00	2024-11-06T08:00:00	7	Dirección del viento	8.05
60935	7	Sololá	701	Sololá	3	Barraneche	11	Noviembre	2023-11-14T00:00:00	2024-11-06T08:00:00	1	Precipitación	0
60936	7	Sololá	701	Sololá	3	Barraneche	11	Noviembre	2023-11-14T00:00:00	2024-11-06T08:00:00	8	Radiación solar	184
60937	7	Sololá	701	Sololá	3	Barraneche	11	Noviembre	2023-11-14T00:00:00	2024-11-06T09:00:00	2	Temperatura media	16.8
60938	7	Sololá	701	Sololá	3	Barraneche	11	Noviembre	2023-11-14T00:00:00	2024-11-06T09:00:00	4	Temperatura máxima	17.3
60939	7	Sololá	701	Sololá	3	Barraneche	11	Noviembre	2023-11-14T00:00:00	2024-11-06T09:00:00	3	Temperatura mínima	16.5
60940	7	Sololá	701	Sololá	3	Barraneche	11	Noviembre	2023-11-14T00:00:00	2024-11-06T09:00:00	5	Humedad	62
60941	7	Sololá	701	Sololá	3	Barraneche	11	Noviembre	2023-11-14T00:00:00	2024-11-06T09:00:00	6	Velocidad del viento	19.3
60942	7	Sololá	701	Sololá	3	Barraneche	11	Noviembre	2023-11-14T00:00:00	2024-11-06T09:00:00	7	Dirección del viento	19.31
60943	7	Sololá	701	Sololá	3	Barraneche	11	Noviembre	2023-11-14T00:00:00	2024-11-06T09:00:00	1	Precipitación	0
60944	7	Sololá	701	Sololá	3	Barraneche	11	Noviembre	2023-11-14T00:00:00	2024-11-06T09:00:00	8	Radiación solar	473
60945	7	Sololá	701	Sololá	3	Barraneche	11	Noviembre	2023-11-14T00:00:00	2024-11-06T10:00:00	2	Temperatura media	18.8
60946	7	Sololá	701	Sololá	3	Barraneche	11	Noviembre	2023-11-14T00:00:00	2024-11-06T10:00:00	4	Temperatura máxima	18.8
60947	7	Sololá	701	Sololá	3	Barraneche	11	Noviembre	2023-11-14T00:00:00	2024-11-06T10:00:00	3	Temperatura mínima	16.7
60948	7	Sololá	701	Sololá	3	Barraneche	11	Noviembre	2023-11-14T00:00:00	2024-11-06T10:00:00	5	Humedad	57
60949	7	Sololá	701	Sololá	3	Barraneche	11	Noviembre	2023-11-14T00:00:00	2024-11-06T10:00:00	6	Velocidad del viento	12.9
60950	7	Sololá	701	Sololá	3	Barraneche	11	Noviembre	2023-11-14T00:00:00	2024-11-06T10:00:00	7	Dirección del viento	12.87
60951	7	Sololá	701	Sololá	3	Barraneche	11	Noviembre	2023-11-14T00:00:00	2024-11-06T10:00:00	1	Precipitación	0
60952	7	Sololá	701	Sololá	3	Barraneche	11	Noviembre	2023-11-14T00:00:00	2024-11-06T10:00:00	8	Radiación solar	417
60953	7	Sololá	701	Sololá	3	Barraneche	11	Noviembre	2023-11-14T00:00:00	2024-11-06T11:00:00	2	Temperatura media	19.7
60954	7	Sololá	701	Sololá	3	Barraneche	11	Noviembre	2023-11-14T00:00:00	2024-11-06T11:00:00	4	Temperatura máxima	19.9
60955	7	Sololá	701	Sololá	3	Barraneche	11	Noviembre	2023-11-14T00:00:00	2024-11-06T11:00:00	3	Temperatura mínima	18.8
60956	7	Sololá	701	Sololá	3	Barraneche	11	Noviembre	2023-11-14T00:00:00	2024-11-06T11:00:00	5	Humedad	56
60957	7	Sololá	701	Sololá	3	Barraneche	11	Noviembre	2023-11-14T00:00:00	2024-11-06T11:00:00	6	Velocidad del viento	8
60958	7	Sololá	701	Sololá	3	Barraneche	11	Noviembre	2023-11-14T00:00:00	2024-11-06T11:00:00	7	Dirección del viento	8.05
60959	7	Sololá	701	Sololá	3	Barraneche	11	Noviembre	2023-11-14T00:00:00	2024-11-06T11:00:00	1	Precipitación	0
60960	7	Sololá	701	Sololá	3	Barraneche	11	Noviembre	2023-11-14T00:00:00	2024-11-06T11:00:00	8	Radiación solar	559
60961	7	Sololá	701	Sololá	3	Barraneche	11	Noviembre	2023-11-14T00:00:00	2024-11-06T12:00:00	2	Temperatura media	19.1
60962	7	Sololá	701	Sololá	3	Barraneche	11	Noviembre	2023-11-14T00:00:00	2024-11-06T12:00:00	4	Temperatura máxima	20.8
60963	7	Sololá	701	Sololá	3	Barraneche	11	Noviembre	2023-11-14T00:00:00	2024-11-06T12:00:00	3	Temperatura mínima	18.4
60964	7	Sololá	701	Sololá	3	Barraneche	11	Noviembre	2023-11-14T00:00:00	2024-11-06T12:00:00	5	Humedad	58
60965	7	Sololá	701	Sololá	3	Barraneche	11	Noviembre	2023-11-14T00:00:00	2024-11-06T12:00:00	6	Velocidad del viento	9.7
60966	7	Sololá	701	Sololá	3	Barraneche	11	Noviembre	2023-11-14T00:00:00	2024-11-06T12:00:00	7	Dirección del viento	9.66
60967	7	Sololá	701	Sololá	3	Barraneche	11	Noviembre	2023-11-14T00:00:00	2024-11-06T12:00:00	1	Precipitación	0
60968	7	Sololá	701	Sololá	3	Barraneche	11	Noviembre	2023-11-14T00:00:00	2024-11-06T12:00:00	8	Radiación solar	735
60969	7	Sololá	701	Sololá	3	Barraneche	11	Noviembre	2023-11-14T00:00:00	2024-11-06T13:00:00	2	Temperatura media	18.4
60970	7	Sololá	701	Sololá	3	Barraneche	11	Noviembre	2023-11-14T00:00:00	2024-11-06T13:00:00	4	Temperatura máxima	19.1
60971	7	Sololá	701	Sololá	3	Barraneche	11	Noviembre	2023-11-14T00:00:00	2024-11-06T13:00:00	3	Temperatura mínima	18.4
60972	7	Sololá	701	Sololá	3	Barraneche	11	Noviembre	2023-11-14T00:00:00	2024-11-06T13:00:00	5	Humedad	57
60973	7	Sololá	701	Sololá	3	Barraneche	11	Noviembre	2023-11-14T00:00:00	2024-11-06T13:00:00	6	Velocidad del viento	8
60974	7	Sololá	701	Sololá	3	Barraneche	11	Noviembre	2023-11-14T00:00:00	2024-11-06T13:00:00	7	Dirección del viento	8.05
60975	7	Sololá	701	Sololá	3	Barraneche	11	Noviembre	2023-11-14T00:00:00	2024-11-06T13:00:00	1	Precipitación	0
60976	7	Sololá	701	Sololá	3	Barraneche	11	Noviembre	2023-11-14T00:00:00	2024-11-06T13:00:00	8	Radiación solar	400
60977	7	Sololá	701	Sololá	3	Barraneche	11	Noviembre	2023-11-14T00:00:00	2024-11-06T14:00:00	2	Temperatura media	18.1
60978	7	Sololá	701	Sololá	3	Barraneche	11	Noviembre	2023-11-14T00:00:00	2024-11-06T14:00:00	4	Temperatura máxima	18.6
60979	7	Sololá	701	Sololá	3	Barraneche	11	Noviembre	2023-11-14T00:00:00	2024-11-06T14:00:00	3	Temperatura mínima	17.9
60980	7	Sololá	701	Sololá	3	Barraneche	11	Noviembre	2023-11-14T00:00:00	2024-11-06T14:00:00	5	Humedad	61
60981	7	Sololá	701	Sololá	3	Barraneche	11	Noviembre	2023-11-14T00:00:00	2024-11-06T14:00:00	6	Velocidad del viento	8
60982	7	Sololá	701	Sololá	3	Barraneche	11	Noviembre	2023-11-14T00:00:00	2024-11-06T14:00:00	7	Dirección del viento	8.05
60983	7	Sololá	701	Sololá	3	Barraneche	11	Noviembre	2023-11-14T00:00:00	2024-11-06T14:00:00	1	Precipitación	0
60984	7	Sololá	701	Sololá	3	Barraneche	11	Noviembre	2023-11-14T00:00:00	2024-11-06T14:00:00	8	Radiación solar	247
60985	7	Sololá	701	Sololá	3	Barraneche	11	Noviembre	2023-11-14T00:00:00	2024-11-06T15:00:00	2	Temperatura media	16.9
60986	7	Sololá	701	Sololá	3	Barraneche	11	Noviembre	2023-11-14T00:00:00	2024-11-06T15:00:00	4	Temperatura máxima	18.1
60987	7	Sololá	701	Sololá	3	Barraneche	11	Noviembre	2023-11-14T00:00:00	2024-11-06T15:00:00	3	Temperatura mínima	16.9
60988	7	Sololá	701	Sololá	3	Barraneche	11	Noviembre	2023-11-14T00:00:00	2024-11-06T15:00:00	5	Humedad	66
60989	7	Sololá	701	Sololá	3	Barraneche	11	Noviembre	2023-11-14T00:00:00	2024-11-06T15:00:00	6	Velocidad del viento	9.7
60990	7	Sololá	701	Sololá	3	Barraneche	11	Noviembre	2023-11-14T00:00:00	2024-11-06T15:00:00	7	Dirección del viento	9.66
60991	7	Sololá	701	Sololá	3	Barraneche	11	Noviembre	2023-11-14T00:00:00	2024-11-06T15:00:00	1	Precipitación	0
60992	7	Sololá	701	Sololá	3	Barraneche	11	Noviembre	2023-11-14T00:00:00	2024-11-06T15:00:00	8	Radiación solar	91
60993	7	Sololá	701	Sololá	3	Barraneche	11	Noviembre	2023-11-14T00:00:00	2024-11-06T16:00:00	2	Temperatura media	16.3
60994	7	Sololá	701	Sololá	3	Barraneche	11	Noviembre	2023-11-14T00:00:00	2024-11-06T16:00:00	4	Temperatura máxima	16.9
60995	7	Sololá	701	Sololá	3	Barraneche	11	Noviembre	2023-11-14T00:00:00	2024-11-06T16:00:00	3	Temperatura mínima	16.2
60996	7	Sololá	701	Sololá	3	Barraneche	11	Noviembre	2023-11-14T00:00:00	2024-11-06T16:00:00	5	Humedad	68
60997	7	Sololá	701	Sololá	3	Barraneche	11	Noviembre	2023-11-14T00:00:00	2024-11-06T16:00:00	6	Velocidad del viento	9.7
60998	7	Sololá	701	Sololá	3	Barraneche	11	Noviembre	2023-11-14T00:00:00	2024-11-06T16:00:00	7	Dirección del viento	9.66
60999	7	Sololá	701	Sololá	3	Barraneche	11	Noviembre	2023-11-14T00:00:00	2024-11-06T16:00:00	1	Precipitación	0
61000	7	Sololá	701	Sololá	3	Barraneche	11	Noviembre	2023-11-14T00:00:00	2024-11-06T16:00:00	8	Radiación solar	79
61001	7	Sololá	701	Sololá	3	Barraneche	11	Noviembre	2023-11-14T00:00:00	2024-11-06T17:00:00	2	Temperatura media	15.3
61002	7	Sololá	701	Sololá	3	Barraneche	11	Noviembre	2023-11-14T00:00:00	2024-11-06T17:00:00	4	Temperatura máxima	16.3
61003	7	Sololá	701	Sololá	3	Barraneche	11	Noviembre	2023-11-14T00:00:00	2024-11-06T17:00:00	3	Temperatura mínima	15.3
61004	7	Sololá	701	Sololá	3	Barraneche	11	Noviembre	2023-11-14T00:00:00	2024-11-06T17:00:00	5	Humedad	70
61005	7	Sololá	701	Sololá	3	Barraneche	11	Noviembre	2023-11-14T00:00:00	2024-11-06T17:00:00	6	Velocidad del viento	9.7
61006	7	Sololá	701	Sololá	3	Barraneche	11	Noviembre	2023-11-14T00:00:00	2024-11-06T17:00:00	7	Dirección del viento	9.66
61007	7	Sololá	701	Sololá	3	Barraneche	11	Noviembre	2023-11-14T00:00:00	2024-11-06T17:00:00	1	Precipitación	0.4
61008	7	Sololá	701	Sololá	3	Barraneche	11	Noviembre	2023-11-14T00:00:00	2024-11-06T17:00:00	8	Radiación solar	45
61009	7	Sololá	701	Sololá	3	Barraneche	11	Noviembre	2023-11-14T00:00:00	2024-11-06T18:00:00	2	Temperatura media	14.8
61010	7	Sololá	701	Sololá	3	Barraneche	11	Noviembre	2023-11-14T00:00:00	2024-11-06T18:00:00	4	Temperatura máxima	15.3
61011	7	Sololá	701	Sololá	3	Barraneche	11	Noviembre	2023-11-14T00:00:00	2024-11-06T18:00:00	3	Temperatura mínima	14.8
61012	7	Sololá	701	Sololá	3	Barraneche	11	Noviembre	2023-11-14T00:00:00	2024-11-06T18:00:00	5	Humedad	70
61013	7	Sololá	701	Sololá	3	Barraneche	11	Noviembre	2023-11-14T00:00:00	2024-11-06T18:00:00	6	Velocidad del viento	6.4
61014	7	Sololá	701	Sololá	3	Barraneche	11	Noviembre	2023-11-14T00:00:00	2024-11-06T18:00:00	7	Dirección del viento	6.44
61015	7	Sololá	701	Sololá	3	Barraneche	11	Noviembre	2023-11-14T00:00:00	2024-11-06T18:00:00	1	Precipitación	0.2
61016	7	Sololá	701	Sololá	3	Barraneche	11	Noviembre	2023-11-14T00:00:00	2024-11-06T18:00:00	8	Radiación solar	6
61017	7	Sololá	701	Sololá	3	Barraneche	11	Noviembre	2023-11-14T00:00:00	2024-11-06T19:00:00	2	Temperatura media	15.5
61018	7	Sololá	701	Sololá	3	Barraneche	11	Noviembre	2023-11-14T00:00:00	2024-11-06T19:00:00	4	Temperatura máxima	15.6
61019	7	Sololá	701	Sololá	3	Barraneche	11	Noviembre	2023-11-14T00:00:00	2024-11-06T19:00:00	3	Temperatura mínima	14.7
61020	7	Sololá	701	Sololá	3	Barraneche	11	Noviembre	2023-11-14T00:00:00	2024-11-06T19:00:00	5	Humedad	66
61021	7	Sololá	701	Sololá	3	Barraneche	11	Noviembre	2023-11-14T00:00:00	2024-11-06T19:00:00	6	Velocidad del viento	9.7
61022	7	Sololá	701	Sololá	3	Barraneche	11	Noviembre	2023-11-14T00:00:00	2024-11-06T19:00:00	7	Dirección del viento	9.66
61023	7	Sololá	701	Sololá	3	Barraneche	11	Noviembre	2023-11-14T00:00:00	2024-11-06T19:00:00	1	Precipitación	0
61024	7	Sololá	701	Sololá	3	Barraneche	11	Noviembre	2023-11-14T00:00:00	2024-11-06T19:00:00	8	Radiación solar	0
61025	7	Sololá	701	Sololá	3	Barraneche	11	Noviembre	2023-11-14T00:00:00	2024-11-06T20:00:00	2	Temperatura media	15.4
61026	7	Sololá	701	Sololá	3	Barraneche	11	Noviembre	2023-11-14T00:00:00	2024-11-06T20:00:00	4	Temperatura máxima	15.5
61027	7	Sololá	701	Sololá	3	Barraneche	11	Noviembre	2023-11-14T00:00:00	2024-11-06T20:00:00	3	Temperatura mínima	15.1
61028	7	Sololá	701	Sololá	3	Barraneche	11	Noviembre	2023-11-14T00:00:00	2024-11-06T20:00:00	5	Humedad	65
61029	7	Sololá	701	Sololá	3	Barraneche	11	Noviembre	2023-11-14T00:00:00	2024-11-06T20:00:00	6	Velocidad del viento	8
61030	7	Sololá	701	Sololá	3	Barraneche	11	Noviembre	2023-11-14T00:00:00	2024-11-06T20:00:00	7	Dirección del viento	8.05
61031	7	Sololá	701	Sololá	3	Barraneche	11	Noviembre	2023-11-14T00:00:00	2024-11-06T20:00:00	1	Precipitación	0
61032	7	Sololá	701	Sololá	3	Barraneche	11	Noviembre	2023-11-14T00:00:00	2024-11-06T20:00:00	8	Radiación solar	0
61033	7	Sololá	701	Sololá	3	Barraneche	11	Noviembre	2023-11-14T00:00:00	2024-11-06T21:00:00	2	Temperatura media	15.6
61034	7	Sololá	701	Sololá	3	Barraneche	11	Noviembre	2023-11-14T00:00:00	2024-11-06T21:00:00	4	Temperatura máxima	15.6
61035	7	Sololá	701	Sololá	3	Barraneche	11	Noviembre	2023-11-14T00:00:00	2024-11-06T21:00:00	3	Temperatura mínima	15.2
61036	7	Sololá	701	Sololá	3	Barraneche	11	Noviembre	2023-11-14T00:00:00	2024-11-06T21:00:00	5	Humedad	64
61037	7	Sololá	701	Sololá	3	Barraneche	11	Noviembre	2023-11-14T00:00:00	2024-11-06T21:00:00	6	Velocidad del viento	8
61038	7	Sololá	701	Sololá	3	Barraneche	11	Noviembre	2023-11-14T00:00:00	2024-11-06T21:00:00	7	Dirección del viento	8.05
61039	7	Sololá	701	Sololá	3	Barraneche	11	Noviembre	2023-11-14T00:00:00	2024-11-06T21:00:00	1	Precipitación	0
61040	7	Sololá	701	Sololá	3	Barraneche	11	Noviembre	2023-11-14T00:00:00	2024-11-06T21:00:00	8	Radiación solar	0
61041	7	Sololá	701	Sololá	3	Barraneche	11	Noviembre	2023-11-14T00:00:00	2024-11-06T22:00:00	2	Temperatura media	15.4
61042	7	Sololá	701	Sololá	3	Barraneche	11	Noviembre	2023-11-14T00:00:00	2024-11-06T22:00:00	4	Temperatura máxima	15.6
61043	7	Sololá	701	Sololá	3	Barraneche	11	Noviembre	2023-11-14T00:00:00	2024-11-06T22:00:00	3	Temperatura mínima	15.2
61044	7	Sololá	701	Sololá	3	Barraneche	11	Noviembre	2023-11-14T00:00:00	2024-11-06T22:00:00	5	Humedad	63
61045	7	Sololá	701	Sololá	3	Barraneche	11	Noviembre	2023-11-14T00:00:00	2024-11-06T22:00:00	6	Velocidad del viento	6.4
61046	7	Sololá	701	Sololá	3	Barraneche	11	Noviembre	2023-11-14T00:00:00	2024-11-06T22:00:00	7	Dirección del viento	6.44
61047	7	Sololá	701	Sololá	3	Barraneche	11	Noviembre	2023-11-14T00:00:00	2024-11-06T22:00:00	1	Precipitación	0
61048	7	Sololá	701	Sololá	3	Barraneche	11	Noviembre	2023-11-14T00:00:00	2024-11-06T22:00:00	8	Radiación solar	0
61049	7	Sololá	701	Sololá	3	Barraneche	11	Noviembre	2023-11-14T00:00:00	2024-11-06T23:00:00	2	Temperatura media	15.2
61050	7	Sololá	701	Sololá	3	Barraneche	11	Noviembre	2023-11-14T00:00:00	2024-11-06T23:00:00	4	Temperatura máxima	15.6
61051	7	Sololá	701	Sololá	3	Barraneche	11	Noviembre	2023-11-14T00:00:00	2024-11-06T23:00:00	3	Temperatura mínima	15.2
61052	7	Sololá	701	Sololá	3	Barraneche	11	Noviembre	2023-11-14T00:00:00	2024-11-06T23:00:00	5	Humedad	64
61053	7	Sololá	701	Sololá	3	Barraneche	11	Noviembre	2023-11-14T00:00:00	2024-11-06T23:00:00	6	Velocidad del viento	11.3
61054	7	Sololá	701	Sololá	3	Barraneche	11	Noviembre	2023-11-14T00:00:00	2024-11-06T23:00:00	7	Dirección del viento	11.27
61055	7	Sololá	701	Sololá	3	Barraneche	11	Noviembre	2023-11-14T00:00:00	2024-11-06T23:00:00	1	Precipitación	0
61056	7	Sololá	701	Sololá	3	Barraneche	11	Noviembre	2023-11-14T00:00:00	2024-11-06T23:00:00	8	Radiación solar	0
61057	7	Sololá	701	Sololá	3	Barraneche	11	Noviembre	2023-11-15T00:00:00	2024-11-06T00:00:00	2	Temperatura media	14.8
61058	7	Sololá	701	Sololá	3	Barraneche	11	Noviembre	2023-11-15T00:00:00	2024-11-06T00:00:00	4	Temperatura máxima	15.3
61059	7	Sololá	701	Sololá	3	Barraneche	11	Noviembre	2023-11-15T00:00:00	2024-11-06T00:00:00	3	Temperatura mínima	14.8
61060	7	Sololá	701	Sololá	3	Barraneche	11	Noviembre	2023-11-15T00:00:00	2024-11-06T00:00:00	5	Humedad	65
61061	7	Sololá	701	Sololá	3	Barraneche	11	Noviembre	2023-11-15T00:00:00	2024-11-06T00:00:00	6	Velocidad del viento	4.8
61062	7	Sololá	701	Sololá	3	Barraneche	11	Noviembre	2023-11-15T00:00:00	2024-11-06T00:00:00	7	Dirección del viento	4.83
61063	7	Sololá	701	Sololá	3	Barraneche	11	Noviembre	2023-11-15T00:00:00	2024-11-06T00:00:00	1	Precipitación	0
61064	7	Sololá	701	Sololá	3	Barraneche	11	Noviembre	2023-11-15T00:00:00	2024-11-06T00:00:00	8	Radiación solar	0
61065	7	Sololá	701	Sololá	3	Barraneche	11	Noviembre	2023-11-15T00:00:00	2024-11-06T01:00:00	2	Temperatura media	14.9
61066	7	Sololá	701	Sololá	3	Barraneche	11	Noviembre	2023-11-15T00:00:00	2024-11-06T01:00:00	4	Temperatura máxima	14.9
61067	7	Sololá	701	Sololá	3	Barraneche	11	Noviembre	2023-11-15T00:00:00	2024-11-06T01:00:00	3	Temperatura mínima	14.5
61068	7	Sololá	701	Sololá	3	Barraneche	11	Noviembre	2023-11-15T00:00:00	2024-11-06T01:00:00	5	Humedad	65
61069	7	Sololá	701	Sololá	3	Barraneche	11	Noviembre	2023-11-15T00:00:00	2024-11-06T01:00:00	6	Velocidad del viento	4.8
61070	7	Sololá	701	Sololá	3	Barraneche	11	Noviembre	2023-11-15T00:00:00	2024-11-06T01:00:00	7	Dirección del viento	4.83
61071	7	Sololá	701	Sololá	3	Barraneche	11	Noviembre	2023-11-15T00:00:00	2024-11-06T01:00:00	1	Precipitación	0
61072	7	Sololá	701	Sololá	3	Barraneche	11	Noviembre	2023-11-15T00:00:00	2024-11-06T01:00:00	8	Radiación solar	0
61073	7	Sololá	701	Sololá	3	Barraneche	11	Noviembre	2023-11-15T00:00:00	2024-11-06T02:00:00	2	Temperatura media	15.2
61074	7	Sololá	701	Sololá	3	Barraneche	11	Noviembre	2023-11-15T00:00:00	2024-11-06T02:00:00	4	Temperatura máxima	15.3
61075	7	Sololá	701	Sololá	3	Barraneche	11	Noviembre	2023-11-15T00:00:00	2024-11-06T02:00:00	3	Temperatura mínima	14.9
61076	7	Sololá	701	Sololá	3	Barraneche	11	Noviembre	2023-11-15T00:00:00	2024-11-06T02:00:00	5	Humedad	64
61077	7	Sololá	701	Sololá	3	Barraneche	11	Noviembre	2023-11-15T00:00:00	2024-11-06T02:00:00	6	Velocidad del viento	6.4
61078	7	Sololá	701	Sololá	3	Barraneche	11	Noviembre	2023-11-15T00:00:00	2024-11-06T02:00:00	7	Dirección del viento	6.44
61079	7	Sololá	701	Sololá	3	Barraneche	11	Noviembre	2023-11-15T00:00:00	2024-11-06T02:00:00	1	Precipitación	0
61080	7	Sololá	701	Sololá	3	Barraneche	11	Noviembre	2023-11-15T00:00:00	2024-11-06T02:00:00	8	Radiación solar	0
61081	7	Sololá	701	Sololá	3	Barraneche	11	Noviembre	2023-11-15T00:00:00	2024-11-06T03:00:00	2	Temperatura media	15.2
61082	7	Sololá	701	Sololá	3	Barraneche	11	Noviembre	2023-11-15T00:00:00	2024-11-06T03:00:00	4	Temperatura máxima	15.3
61083	7	Sololá	701	Sololá	3	Barraneche	11	Noviembre	2023-11-15T00:00:00	2024-11-06T03:00:00	3	Temperatura mínima	14.9
61084	7	Sololá	701	Sololá	3	Barraneche	11	Noviembre	2023-11-15T00:00:00	2024-11-06T03:00:00	5	Humedad	64
61085	7	Sololá	701	Sololá	3	Barraneche	11	Noviembre	2023-11-15T00:00:00	2024-11-06T03:00:00	6	Velocidad del viento	11.3
61086	7	Sololá	701	Sololá	3	Barraneche	11	Noviembre	2023-11-15T00:00:00	2024-11-06T03:00:00	7	Dirección del viento	11.27
61087	7	Sololá	701	Sololá	3	Barraneche	11	Noviembre	2023-11-15T00:00:00	2024-11-06T03:00:00	1	Precipitación	0
61088	7	Sololá	701	Sololá	3	Barraneche	11	Noviembre	2023-11-15T00:00:00	2024-11-06T03:00:00	8	Radiación solar	0
61089	7	Sololá	701	Sololá	3	Barraneche	11	Noviembre	2023-11-15T00:00:00	2024-11-06T04:00:00	2	Temperatura media	15.4
61090	7	Sololá	701	Sololá	3	Barraneche	11	Noviembre	2023-11-15T00:00:00	2024-11-06T04:00:00	4	Temperatura máxima	15.4
61091	7	Sololá	701	Sololá	3	Barraneche	11	Noviembre	2023-11-15T00:00:00	2024-11-06T04:00:00	3	Temperatura mínima	15
61092	7	Sololá	701	Sololá	3	Barraneche	11	Noviembre	2023-11-15T00:00:00	2024-11-06T04:00:00	5	Humedad	63
61093	7	Sololá	701	Sololá	3	Barraneche	11	Noviembre	2023-11-15T00:00:00	2024-11-06T04:00:00	6	Velocidad del viento	12.9
61094	7	Sololá	701	Sololá	3	Barraneche	11	Noviembre	2023-11-15T00:00:00	2024-11-06T04:00:00	7	Dirección del viento	12.87
61095	7	Sololá	701	Sololá	3	Barraneche	11	Noviembre	2023-11-15T00:00:00	2024-11-06T04:00:00	1	Precipitación	0
61096	7	Sololá	701	Sololá	3	Barraneche	11	Noviembre	2023-11-15T00:00:00	2024-11-06T04:00:00	8	Radiación solar	0
61097	7	Sololá	701	Sololá	3	Barraneche	11	Noviembre	2023-11-15T00:00:00	2024-11-06T05:00:00	2	Temperatura media	15.2
61098	7	Sololá	701	Sololá	3	Barraneche	11	Noviembre	2023-11-15T00:00:00	2024-11-06T05:00:00	4	Temperatura máxima	15.4
61099	7	Sololá	701	Sololá	3	Barraneche	11	Noviembre	2023-11-15T00:00:00	2024-11-06T05:00:00	3	Temperatura mínima	15.2
61100	7	Sololá	701	Sololá	3	Barraneche	11	Noviembre	2023-11-15T00:00:00	2024-11-06T05:00:00	5	Humedad	64
61101	7	Sololá	701	Sololá	3	Barraneche	11	Noviembre	2023-11-15T00:00:00	2024-11-06T05:00:00	6	Velocidad del viento	11.3
61102	7	Sololá	701	Sololá	3	Barraneche	11	Noviembre	2023-11-15T00:00:00	2024-11-06T05:00:00	7	Dirección del viento	11.27
61103	7	Sololá	701	Sololá	3	Barraneche	11	Noviembre	2023-11-15T00:00:00	2024-11-06T05:00:00	1	Precipitación	0
61104	7	Sololá	701	Sololá	3	Barraneche	11	Noviembre	2023-11-15T00:00:00	2024-11-06T05:00:00	8	Radiación solar	0
61105	7	Sololá	701	Sololá	3	Barraneche	11	Noviembre	2023-11-15T00:00:00	2024-11-06T06:00:00	2	Temperatura media	14.6
61106	7	Sololá	701	Sololá	3	Barraneche	11	Noviembre	2023-11-15T00:00:00	2024-11-06T06:00:00	4	Temperatura máxima	15.3
61107	7	Sololá	701	Sololá	3	Barraneche	11	Noviembre	2023-11-15T00:00:00	2024-11-06T06:00:00	3	Temperatura mínima	14.5
61108	7	Sololá	701	Sololá	3	Barraneche	11	Noviembre	2023-11-15T00:00:00	2024-11-06T06:00:00	5	Humedad	67
61109	7	Sololá	701	Sololá	3	Barraneche	11	Noviembre	2023-11-15T00:00:00	2024-11-06T06:00:00	6	Velocidad del viento	14.5
61110	7	Sololá	701	Sololá	3	Barraneche	11	Noviembre	2023-11-15T00:00:00	2024-11-06T06:00:00	7	Dirección del viento	14.48
61111	7	Sololá	701	Sololá	3	Barraneche	11	Noviembre	2023-11-15T00:00:00	2024-11-06T06:00:00	1	Precipitación	0
61112	7	Sololá	701	Sololá	3	Barraneche	11	Noviembre	2023-11-15T00:00:00	2024-11-06T06:00:00	8	Radiación solar	0
61113	7	Sololá	701	Sololá	3	Barraneche	11	Noviembre	2023-11-15T00:00:00	2024-11-06T07:00:00	2	Temperatura media	15.6
61114	7	Sololá	701	Sololá	3	Barraneche	11	Noviembre	2023-11-15T00:00:00	2024-11-06T07:00:00	4	Temperatura máxima	15.6
61115	7	Sololá	701	Sololá	3	Barraneche	11	Noviembre	2023-11-15T00:00:00	2024-11-06T07:00:00	3	Temperatura mínima	14.5
61116	7	Sololá	701	Sololá	3	Barraneche	11	Noviembre	2023-11-15T00:00:00	2024-11-06T07:00:00	5	Humedad	63
61117	7	Sololá	701	Sololá	3	Barraneche	11	Noviembre	2023-11-15T00:00:00	2024-11-06T07:00:00	6	Velocidad del viento	16.1
61118	7	Sololá	701	Sololá	3	Barraneche	11	Noviembre	2023-11-15T00:00:00	2024-11-06T07:00:00	7	Dirección del viento	16.09
61119	7	Sololá	701	Sololá	3	Barraneche	11	Noviembre	2023-11-15T00:00:00	2024-11-06T07:00:00	1	Precipitación	0
61120	7	Sololá	701	Sololá	3	Barraneche	11	Noviembre	2023-11-15T00:00:00	2024-11-06T07:00:00	8	Radiación solar	48
61121	7	Sololá	701	Sololá	3	Barraneche	11	Noviembre	2023-11-15T00:00:00	2024-11-06T08:00:00	2	Temperatura media	16.4
61122	7	Sololá	701	Sololá	3	Barraneche	11	Noviembre	2023-11-15T00:00:00	2024-11-06T08:00:00	4	Temperatura máxima	16.4
61123	7	Sololá	701	Sololá	3	Barraneche	11	Noviembre	2023-11-15T00:00:00	2024-11-06T08:00:00	3	Temperatura mínima	15.6
61124	7	Sololá	701	Sololá	3	Barraneche	11	Noviembre	2023-11-15T00:00:00	2024-11-06T08:00:00	5	Humedad	61
61125	7	Sololá	701	Sololá	3	Barraneche	11	Noviembre	2023-11-15T00:00:00	2024-11-06T08:00:00	6	Velocidad del viento	20.9
61126	7	Sololá	701	Sololá	3	Barraneche	11	Noviembre	2023-11-15T00:00:00	2024-11-06T08:00:00	7	Dirección del viento	20.92
61127	7	Sololá	701	Sololá	3	Barraneche	11	Noviembre	2023-11-15T00:00:00	2024-11-06T08:00:00	1	Precipitación	0
61128	7	Sololá	701	Sololá	3	Barraneche	11	Noviembre	2023-11-15T00:00:00	2024-11-06T08:00:00	8	Radiación solar	267
61129	7	Sololá	701	Sololá	3	Barraneche	11	Noviembre	2023-11-15T00:00:00	2024-11-06T09:00:00	2	Temperatura media	17.2
61130	7	Sololá	701	Sololá	3	Barraneche	11	Noviembre	2023-11-15T00:00:00	2024-11-06T09:00:00	4	Temperatura máxima	17.2
61131	7	Sololá	701	Sololá	3	Barraneche	11	Noviembre	2023-11-15T00:00:00	2024-11-06T09:00:00	3	Temperatura mínima	16.4
61132	7	Sololá	701	Sololá	3	Barraneche	11	Noviembre	2023-11-15T00:00:00	2024-11-06T09:00:00	5	Humedad	60
61133	7	Sololá	701	Sololá	3	Barraneche	11	Noviembre	2023-11-15T00:00:00	2024-11-06T09:00:00	6	Velocidad del viento	24.1
61134	7	Sololá	701	Sololá	3	Barraneche	11	Noviembre	2023-11-15T00:00:00	2024-11-06T09:00:00	7	Dirección del viento	24.14
61135	7	Sololá	701	Sololá	3	Barraneche	11	Noviembre	2023-11-15T00:00:00	2024-11-06T09:00:00	1	Precipitación	0
61136	7	Sololá	701	Sololá	3	Barraneche	11	Noviembre	2023-11-15T00:00:00	2024-11-06T09:00:00	8	Radiación solar	491
61137	7	Sololá	701	Sololá	3	Barraneche	11	Noviembre	2023-11-15T00:00:00	2024-11-06T10:00:00	2	Temperatura media	17.4
61138	7	Sololá	701	Sololá	3	Barraneche	11	Noviembre	2023-11-15T00:00:00	2024-11-06T10:00:00	4	Temperatura máxima	17.7
61139	7	Sololá	701	Sololá	3	Barraneche	11	Noviembre	2023-11-15T00:00:00	2024-11-06T10:00:00	3	Temperatura mínima	17.1
61140	7	Sololá	701	Sololá	3	Barraneche	11	Noviembre	2023-11-15T00:00:00	2024-11-06T10:00:00	5	Humedad	60
61141	7	Sololá	701	Sololá	3	Barraneche	11	Noviembre	2023-11-15T00:00:00	2024-11-06T10:00:00	6	Velocidad del viento	27.4
61142	7	Sololá	701	Sololá	3	Barraneche	11	Noviembre	2023-11-15T00:00:00	2024-11-06T10:00:00	7	Dirección del viento	27.36
61143	7	Sololá	701	Sololá	3	Barraneche	11	Noviembre	2023-11-15T00:00:00	2024-11-06T10:00:00	1	Precipitación	0
61144	7	Sololá	701	Sololá	3	Barraneche	11	Noviembre	2023-11-15T00:00:00	2024-11-06T10:00:00	8	Radiación solar	682
61145	7	Sololá	701	Sololá	3	Barraneche	11	Noviembre	2023-11-15T00:00:00	2024-11-06T11:00:00	2	Temperatura media	18.6
61146	7	Sololá	701	Sololá	3	Barraneche	11	Noviembre	2023-11-15T00:00:00	2024-11-06T11:00:00	4	Temperatura máxima	18.9
61147	7	Sololá	701	Sololá	3	Barraneche	11	Noviembre	2023-11-15T00:00:00	2024-11-06T11:00:00	3	Temperatura mínima	17.5
61148	7	Sololá	701	Sololá	3	Barraneche	11	Noviembre	2023-11-15T00:00:00	2024-11-06T11:00:00	5	Humedad	58
61149	7	Sololá	701	Sololá	3	Barraneche	11	Noviembre	2023-11-15T00:00:00	2024-11-06T11:00:00	6	Velocidad del viento	19.3
61150	7	Sololá	701	Sololá	3	Barraneche	11	Noviembre	2023-11-15T00:00:00	2024-11-06T11:00:00	7	Dirección del viento	19.31
61151	7	Sololá	701	Sololá	3	Barraneche	11	Noviembre	2023-11-15T00:00:00	2024-11-06T11:00:00	1	Precipitación	0
61152	7	Sololá	701	Sololá	3	Barraneche	11	Noviembre	2023-11-15T00:00:00	2024-11-06T11:00:00	8	Radiación solar	784
61153	7	Sololá	701	Sololá	3	Barraneche	11	Noviembre	2023-11-15T00:00:00	2024-11-06T12:00:00	2	Temperatura media	18
61154	7	Sololá	701	Sololá	3	Barraneche	11	Noviembre	2023-11-15T00:00:00	2024-11-06T12:00:00	4	Temperatura máxima	19.3
61155	7	Sololá	701	Sololá	3	Barraneche	11	Noviembre	2023-11-15T00:00:00	2024-11-06T12:00:00	3	Temperatura mínima	18
61156	7	Sololá	701	Sololá	3	Barraneche	11	Noviembre	2023-11-15T00:00:00	2024-11-06T12:00:00	5	Humedad	57
61157	7	Sololá	701	Sololá	3	Barraneche	11	Noviembre	2023-11-15T00:00:00	2024-11-06T12:00:00	6	Velocidad del viento	17.7
61158	7	Sololá	701	Sololá	3	Barraneche	11	Noviembre	2023-11-15T00:00:00	2024-11-06T12:00:00	7	Dirección del viento	17.7
61159	7	Sololá	701	Sololá	3	Barraneche	11	Noviembre	2023-11-15T00:00:00	2024-11-06T12:00:00	1	Precipitación	0
61160	7	Sololá	701	Sololá	3	Barraneche	11	Noviembre	2023-11-15T00:00:00	2024-11-06T12:00:00	8	Radiación solar	607
61161	7	Sololá	701	Sololá	3	Barraneche	11	Noviembre	2023-11-15T00:00:00	2024-11-06T13:00:00	2	Temperatura media	18.8
61162	7	Sololá	701	Sololá	3	Barraneche	11	Noviembre	2023-11-15T00:00:00	2024-11-06T13:00:00	4	Temperatura máxima	19
61163	7	Sololá	701	Sololá	3	Barraneche	11	Noviembre	2023-11-15T00:00:00	2024-11-06T13:00:00	3	Temperatura mínima	17.9
61164	7	Sololá	701	Sololá	3	Barraneche	11	Noviembre	2023-11-15T00:00:00	2024-11-06T13:00:00	5	Humedad	56
61165	7	Sololá	701	Sololá	3	Barraneche	11	Noviembre	2023-11-15T00:00:00	2024-11-06T13:00:00	6	Velocidad del viento	11.3
61166	7	Sololá	701	Sololá	3	Barraneche	11	Noviembre	2023-11-15T00:00:00	2024-11-06T13:00:00	7	Dirección del viento	11.27
61167	7	Sololá	701	Sololá	3	Barraneche	11	Noviembre	2023-11-15T00:00:00	2024-11-06T13:00:00	1	Precipitación	0
61168	7	Sololá	701	Sololá	3	Barraneche	11	Noviembre	2023-11-15T00:00:00	2024-11-06T13:00:00	8	Radiación solar	268
61169	7	Sololá	701	Sololá	3	Barraneche	11	Noviembre	2023-11-15T00:00:00	2024-11-06T14:00:00	2	Temperatura media	19.2
61170	7	Sololá	701	Sololá	3	Barraneche	11	Noviembre	2023-11-15T00:00:00	2024-11-06T14:00:00	4	Temperatura máxima	19.8
61171	7	Sololá	701	Sololá	3	Barraneche	11	Noviembre	2023-11-15T00:00:00	2024-11-06T14:00:00	3	Temperatura mínima	18.4
61172	7	Sololá	701	Sololá	3	Barraneche	11	Noviembre	2023-11-15T00:00:00	2024-11-06T14:00:00	5	Humedad	53
61173	7	Sololá	701	Sololá	3	Barraneche	11	Noviembre	2023-11-15T00:00:00	2024-11-06T14:00:00	6	Velocidad del viento	16.1
61174	7	Sololá	701	Sololá	3	Barraneche	11	Noviembre	2023-11-15T00:00:00	2024-11-06T14:00:00	7	Dirección del viento	16.09
61175	7	Sololá	701	Sololá	3	Barraneche	11	Noviembre	2023-11-15T00:00:00	2024-11-06T14:00:00	1	Precipitación	0
61176	7	Sololá	701	Sololá	3	Barraneche	11	Noviembre	2023-11-15T00:00:00	2024-11-06T14:00:00	8	Radiación solar	344
61177	7	Sololá	701	Sololá	3	Barraneche	11	Noviembre	2023-11-15T00:00:00	2024-11-06T15:00:00	2	Temperatura media	20.1
61178	7	Sololá	701	Sololá	3	Barraneche	11	Noviembre	2023-11-15T00:00:00	2024-11-06T15:00:00	4	Temperatura máxima	20.1
61179	7	Sololá	701	Sololá	3	Barraneche	11	Noviembre	2023-11-15T00:00:00	2024-11-06T15:00:00	3	Temperatura mínima	18.5
61180	7	Sololá	701	Sololá	3	Barraneche	11	Noviembre	2023-11-15T00:00:00	2024-11-06T15:00:00	5	Humedad	53
61181	7	Sololá	701	Sololá	3	Barraneche	11	Noviembre	2023-11-15T00:00:00	2024-11-06T15:00:00	6	Velocidad del viento	12.9
61182	7	Sololá	701	Sololá	3	Barraneche	11	Noviembre	2023-11-15T00:00:00	2024-11-06T15:00:00	7	Dirección del viento	12.87
61183	7	Sololá	701	Sololá	3	Barraneche	11	Noviembre	2023-11-15T00:00:00	2024-11-06T15:00:00	1	Precipitación	0
61184	7	Sololá	701	Sololá	3	Barraneche	11	Noviembre	2023-11-15T00:00:00	2024-11-06T15:00:00	8	Radiación solar	488
61185	7	Sololá	701	Sololá	3	Barraneche	11	Noviembre	2023-11-15T00:00:00	2024-11-06T16:00:00	2	Temperatura media	19.1
61186	7	Sololá	701	Sololá	3	Barraneche	11	Noviembre	2023-11-15T00:00:00	2024-11-06T16:00:00	4	Temperatura máxima	20.2
61187	7	Sololá	701	Sololá	3	Barraneche	11	Noviembre	2023-11-15T00:00:00	2024-11-06T16:00:00	3	Temperatura mínima	18.7
61188	7	Sololá	701	Sololá	3	Barraneche	11	Noviembre	2023-11-15T00:00:00	2024-11-06T16:00:00	5	Humedad	56
61189	7	Sololá	701	Sololá	3	Barraneche	11	Noviembre	2023-11-15T00:00:00	2024-11-06T16:00:00	6	Velocidad del viento	8
61190	7	Sololá	701	Sololá	3	Barraneche	11	Noviembre	2023-11-15T00:00:00	2024-11-06T16:00:00	7	Dirección del viento	8.05
61191	7	Sololá	701	Sololá	3	Barraneche	11	Noviembre	2023-11-15T00:00:00	2024-11-06T16:00:00	1	Precipitación	0
61192	7	Sololá	701	Sololá	3	Barraneche	11	Noviembre	2023-11-15T00:00:00	2024-11-06T16:00:00	8	Radiación solar	302
61193	7	Sololá	701	Sololá	3	Barraneche	11	Noviembre	2023-11-15T00:00:00	2024-11-06T17:00:00	2	Temperatura media	17.1
61194	7	Sololá	701	Sololá	3	Barraneche	11	Noviembre	2023-11-15T00:00:00	2024-11-06T17:00:00	4	Temperatura máxima	19.1
61195	7	Sololá	701	Sololá	3	Barraneche	11	Noviembre	2023-11-15T00:00:00	2024-11-06T17:00:00	3	Temperatura mínima	17.1
61196	7	Sololá	701	Sololá	3	Barraneche	11	Noviembre	2023-11-15T00:00:00	2024-11-06T17:00:00	5	Humedad	62
61197	7	Sololá	701	Sololá	3	Barraneche	11	Noviembre	2023-11-15T00:00:00	2024-11-06T17:00:00	6	Velocidad del viento	8
61198	7	Sololá	701	Sololá	3	Barraneche	11	Noviembre	2023-11-15T00:00:00	2024-11-06T17:00:00	7	Dirección del viento	8.05
61199	7	Sololá	701	Sololá	3	Barraneche	11	Noviembre	2023-11-15T00:00:00	2024-11-06T17:00:00	1	Precipitación	0
61200	7	Sololá	701	Sololá	3	Barraneche	11	Noviembre	2023-11-15T00:00:00	2024-11-06T17:00:00	8	Radiación solar	69
61201	7	Sololá	701	Sololá	3	Barraneche	11	Noviembre	2023-11-15T00:00:00	2024-11-06T18:00:00	2	Temperatura media	16.1
61202	7	Sololá	701	Sololá	3	Barraneche	11	Noviembre	2023-11-15T00:00:00	2024-11-06T18:00:00	4	Temperatura máxima	17.4
61203	7	Sololá	701	Sololá	3	Barraneche	11	Noviembre	2023-11-15T00:00:00	2024-11-06T18:00:00	3	Temperatura mínima	16.1
61204	7	Sololá	701	Sololá	3	Barraneche	11	Noviembre	2023-11-15T00:00:00	2024-11-06T18:00:00	5	Humedad	63
61205	7	Sololá	701	Sololá	3	Barraneche	11	Noviembre	2023-11-15T00:00:00	2024-11-06T18:00:00	6	Velocidad del viento	8
61206	7	Sololá	701	Sololá	3	Barraneche	11	Noviembre	2023-11-15T00:00:00	2024-11-06T18:00:00	7	Dirección del viento	8.05
61207	7	Sololá	701	Sololá	3	Barraneche	11	Noviembre	2023-11-15T00:00:00	2024-11-06T18:00:00	1	Precipitación	0
61208	7	Sololá	701	Sololá	3	Barraneche	11	Noviembre	2023-11-15T00:00:00	2024-11-06T18:00:00	8	Radiación solar	17
61209	7	Sololá	701	Sololá	3	Barraneche	11	Noviembre	2023-11-15T00:00:00	2024-11-06T19:00:00	2	Temperatura media	15.6
61210	7	Sololá	701	Sololá	3	Barraneche	11	Noviembre	2023-11-15T00:00:00	2024-11-06T19:00:00	4	Temperatura máxima	16.1
61211	7	Sololá	701	Sololá	3	Barraneche	11	Noviembre	2023-11-15T00:00:00	2024-11-06T19:00:00	3	Temperatura mínima	15.6
61212	7	Sololá	701	Sololá	3	Barraneche	11	Noviembre	2023-11-15T00:00:00	2024-11-06T19:00:00	5	Humedad	63
61213	7	Sololá	701	Sololá	3	Barraneche	11	Noviembre	2023-11-15T00:00:00	2024-11-06T19:00:00	6	Velocidad del viento	9.7
61214	7	Sololá	701	Sololá	3	Barraneche	11	Noviembre	2023-11-15T00:00:00	2024-11-06T19:00:00	7	Dirección del viento	9.66
61215	7	Sololá	701	Sololá	3	Barraneche	11	Noviembre	2023-11-15T00:00:00	2024-11-06T19:00:00	1	Precipitación	0
61216	7	Sololá	701	Sololá	3	Barraneche	11	Noviembre	2023-11-15T00:00:00	2024-11-06T19:00:00	8	Radiación solar	0
61217	7	Sololá	701	Sololá	3	Barraneche	11	Noviembre	2023-11-15T00:00:00	2024-11-06T20:00:00	2	Temperatura media	15.4
61218	7	Sololá	701	Sololá	3	Barraneche	11	Noviembre	2023-11-15T00:00:00	2024-11-06T20:00:00	4	Temperatura máxima	15.6
61219	7	Sololá	701	Sololá	3	Barraneche	11	Noviembre	2023-11-15T00:00:00	2024-11-06T20:00:00	3	Temperatura mínima	15.2
61220	7	Sololá	701	Sololá	3	Barraneche	11	Noviembre	2023-11-15T00:00:00	2024-11-06T20:00:00	5	Humedad	61
61221	7	Sololá	701	Sololá	3	Barraneche	11	Noviembre	2023-11-15T00:00:00	2024-11-06T20:00:00	6	Velocidad del viento	11.3
61222	7	Sololá	701	Sololá	3	Barraneche	11	Noviembre	2023-11-15T00:00:00	2024-11-06T20:00:00	7	Dirección del viento	11.27
61223	7	Sololá	701	Sololá	3	Barraneche	11	Noviembre	2023-11-15T00:00:00	2024-11-06T20:00:00	1	Precipitación	0
61224	7	Sololá	701	Sololá	3	Barraneche	11	Noviembre	2023-11-15T00:00:00	2024-11-06T20:00:00	8	Radiación solar	0
61225	7	Sololá	701	Sololá	3	Barraneche	11	Noviembre	2023-11-15T00:00:00	2024-11-06T21:00:00	2	Temperatura media	15.1
61226	7	Sololá	701	Sololá	3	Barraneche	11	Noviembre	2023-11-15T00:00:00	2024-11-06T21:00:00	4	Temperatura máxima	15.5
61227	7	Sololá	701	Sololá	3	Barraneche	11	Noviembre	2023-11-15T00:00:00	2024-11-06T21:00:00	3	Temperatura mínima	15.1
61228	7	Sololá	701	Sololá	3	Barraneche	11	Noviembre	2023-11-15T00:00:00	2024-11-06T21:00:00	5	Humedad	61
61229	7	Sololá	701	Sololá	3	Barraneche	11	Noviembre	2023-11-15T00:00:00	2024-11-06T21:00:00	6	Velocidad del viento	12.9
61230	7	Sololá	701	Sololá	3	Barraneche	11	Noviembre	2023-11-15T00:00:00	2024-11-06T21:00:00	7	Dirección del viento	12.87
61231	7	Sololá	701	Sololá	3	Barraneche	11	Noviembre	2023-11-15T00:00:00	2024-11-06T21:00:00	1	Precipitación	0
61232	7	Sololá	701	Sololá	3	Barraneche	11	Noviembre	2023-11-15T00:00:00	2024-11-06T21:00:00	8	Radiación solar	0
61233	7	Sololá	701	Sololá	3	Barraneche	11	Noviembre	2023-11-15T00:00:00	2024-11-06T22:00:00	2	Temperatura media	14.3
61234	7	Sololá	701	Sololá	3	Barraneche	11	Noviembre	2023-11-15T00:00:00	2024-11-06T22:00:00	4	Temperatura máxima	15.2
61235	7	Sololá	701	Sololá	3	Barraneche	11	Noviembre	2023-11-15T00:00:00	2024-11-06T22:00:00	3	Temperatura mínima	14.3
61236	7	Sololá	701	Sololá	3	Barraneche	11	Noviembre	2023-11-15T00:00:00	2024-11-06T22:00:00	5	Humedad	62
61237	7	Sololá	701	Sololá	3	Barraneche	11	Noviembre	2023-11-15T00:00:00	2024-11-06T22:00:00	6	Velocidad del viento	12.9
61238	7	Sololá	701	Sololá	3	Barraneche	11	Noviembre	2023-11-15T00:00:00	2024-11-06T22:00:00	7	Dirección del viento	12.87
61239	7	Sololá	701	Sololá	3	Barraneche	11	Noviembre	2023-11-15T00:00:00	2024-11-06T22:00:00	1	Precipitación	0
61240	7	Sololá	701	Sololá	3	Barraneche	11	Noviembre	2023-11-15T00:00:00	2024-11-06T22:00:00	8	Radiación solar	0
61241	7	Sololá	701	Sololá	3	Barraneche	11	Noviembre	2023-11-15T00:00:00	2024-11-06T23:00:00	2	Temperatura media	14
61242	7	Sololá	701	Sololá	3	Barraneche	11	Noviembre	2023-11-15T00:00:00	2024-11-06T23:00:00	4	Temperatura máxima	14.4
61243	7	Sololá	701	Sololá	3	Barraneche	11	Noviembre	2023-11-15T00:00:00	2024-11-06T23:00:00	3	Temperatura mínima	14
61244	7	Sololá	701	Sololá	3	Barraneche	11	Noviembre	2023-11-15T00:00:00	2024-11-06T23:00:00	5	Humedad	63
61245	7	Sololá	701	Sololá	3	Barraneche	11	Noviembre	2023-11-15T00:00:00	2024-11-06T23:00:00	6	Velocidad del viento	14.5
61246	7	Sololá	701	Sololá	3	Barraneche	11	Noviembre	2023-11-15T00:00:00	2024-11-06T23:00:00	7	Dirección del viento	14.48
61247	7	Sololá	701	Sololá	3	Barraneche	11	Noviembre	2023-11-15T00:00:00	2024-11-06T23:00:00	1	Precipitación	0
61248	7	Sololá	701	Sololá	3	Barraneche	11	Noviembre	2023-11-15T00:00:00	2024-11-06T23:00:00	8	Radiación solar	0
61249	7	Sololá	701	Sololá	3	Barraneche	11	Noviembre	2023-11-16T00:00:00	2024-11-06T00:00:00	2	Temperatura media	13.8
61250	7	Sololá	701	Sololá	3	Barraneche	11	Noviembre	2023-11-16T00:00:00	2024-11-06T00:00:00	4	Temperatura máxima	14.2
61251	7	Sololá	701	Sololá	3	Barraneche	11	Noviembre	2023-11-16T00:00:00	2024-11-06T00:00:00	3	Temperatura mínima	13.8
61252	7	Sololá	701	Sololá	3	Barraneche	11	Noviembre	2023-11-16T00:00:00	2024-11-06T00:00:00	5	Humedad	61
61253	7	Sololá	701	Sololá	3	Barraneche	11	Noviembre	2023-11-16T00:00:00	2024-11-06T00:00:00	6	Velocidad del viento	9.7
61254	7	Sololá	701	Sololá	3	Barraneche	11	Noviembre	2023-11-16T00:00:00	2024-11-06T00:00:00	7	Dirección del viento	9.66
61255	7	Sololá	701	Sololá	3	Barraneche	11	Noviembre	2023-11-16T00:00:00	2024-11-06T00:00:00	1	Precipitación	0
61256	7	Sololá	701	Sololá	3	Barraneche	11	Noviembre	2023-11-16T00:00:00	2024-11-06T00:00:00	8	Radiación solar	0
61257	7	Sololá	701	Sololá	3	Barraneche	11	Noviembre	2023-11-16T00:00:00	2024-11-06T01:00:00	2	Temperatura media	13.8
61258	7	Sololá	701	Sololá	3	Barraneche	11	Noviembre	2023-11-16T00:00:00	2024-11-06T01:00:00	4	Temperatura máxima	14.3
61259	7	Sololá	701	Sololá	3	Barraneche	11	Noviembre	2023-11-16T00:00:00	2024-11-06T01:00:00	3	Temperatura mínima	13.4
61260	7	Sololá	701	Sololá	3	Barraneche	11	Noviembre	2023-11-16T00:00:00	2024-11-06T01:00:00	5	Humedad	61
61261	7	Sololá	701	Sololá	3	Barraneche	11	Noviembre	2023-11-16T00:00:00	2024-11-06T01:00:00	6	Velocidad del viento	12.9
61262	7	Sololá	701	Sololá	3	Barraneche	11	Noviembre	2023-11-16T00:00:00	2024-11-06T01:00:00	7	Dirección del viento	12.87
61263	7	Sololá	701	Sololá	3	Barraneche	11	Noviembre	2023-11-16T00:00:00	2024-11-06T01:00:00	1	Precipitación	0
61264	7	Sololá	701	Sololá	3	Barraneche	11	Noviembre	2023-11-16T00:00:00	2024-11-06T01:00:00	8	Radiación solar	0
61265	7	Sololá	701	Sololá	3	Barraneche	11	Noviembre	2023-11-16T00:00:00	2024-11-06T02:00:00	2	Temperatura media	14.6
61266	7	Sololá	701	Sololá	3	Barraneche	11	Noviembre	2023-11-16T00:00:00	2024-11-06T02:00:00	4	Temperatura máxima	14.6
61267	7	Sololá	701	Sololá	3	Barraneche	11	Noviembre	2023-11-16T00:00:00	2024-11-06T02:00:00	3	Temperatura mínima	13.6
61268	7	Sololá	701	Sololá	3	Barraneche	11	Noviembre	2023-11-16T00:00:00	2024-11-06T02:00:00	5	Humedad	58
61269	7	Sololá	701	Sololá	3	Barraneche	11	Noviembre	2023-11-16T00:00:00	2024-11-06T02:00:00	6	Velocidad del viento	8
61270	7	Sololá	701	Sololá	3	Barraneche	11	Noviembre	2023-11-16T00:00:00	2024-11-06T02:00:00	7	Dirección del viento	8.05
61271	7	Sololá	701	Sololá	3	Barraneche	11	Noviembre	2023-11-16T00:00:00	2024-11-06T02:00:00	1	Precipitación	0
61272	7	Sololá	701	Sololá	3	Barraneche	11	Noviembre	2023-11-16T00:00:00	2024-11-06T02:00:00	8	Radiación solar	0
61273	7	Sololá	701	Sololá	3	Barraneche	11	Noviembre	2023-11-16T00:00:00	2024-11-06T03:00:00	2	Temperatura media	12.4
61274	7	Sololá	701	Sololá	3	Barraneche	11	Noviembre	2023-11-16T00:00:00	2024-11-06T03:00:00	4	Temperatura máxima	14.6
61275	7	Sololá	701	Sololá	3	Barraneche	11	Noviembre	2023-11-16T00:00:00	2024-11-06T03:00:00	3	Temperatura mínima	12.3
61276	7	Sololá	701	Sololá	3	Barraneche	11	Noviembre	2023-11-16T00:00:00	2024-11-06T03:00:00	5	Humedad	65
61277	7	Sololá	701	Sololá	3	Barraneche	11	Noviembre	2023-11-16T00:00:00	2024-11-06T03:00:00	6	Velocidad del viento	6.4
61278	7	Sololá	701	Sololá	3	Barraneche	11	Noviembre	2023-11-16T00:00:00	2024-11-06T03:00:00	7	Dirección del viento	6.44
61279	7	Sololá	701	Sololá	3	Barraneche	11	Noviembre	2023-11-16T00:00:00	2024-11-06T03:00:00	1	Precipitación	0
61280	7	Sololá	701	Sololá	3	Barraneche	11	Noviembre	2023-11-16T00:00:00	2024-11-06T03:00:00	8	Radiación solar	0
61281	7	Sololá	701	Sololá	3	Barraneche	11	Noviembre	2023-11-16T00:00:00	2024-11-06T04:00:00	2	Temperatura media	13.2
61282	7	Sololá	701	Sololá	3	Barraneche	11	Noviembre	2023-11-16T00:00:00	2024-11-06T04:00:00	4	Temperatura máxima	13.8
61283	7	Sololá	701	Sololá	3	Barraneche	11	Noviembre	2023-11-16T00:00:00	2024-11-06T04:00:00	3	Temperatura mínima	11.9
61284	7	Sololá	701	Sololá	3	Barraneche	11	Noviembre	2023-11-16T00:00:00	2024-11-06T04:00:00	5	Humedad	64
61285	7	Sololá	701	Sololá	3	Barraneche	11	Noviembre	2023-11-16T00:00:00	2024-11-06T04:00:00	6	Velocidad del viento	8
61286	7	Sololá	701	Sololá	3	Barraneche	11	Noviembre	2023-11-16T00:00:00	2024-11-06T04:00:00	7	Dirección del viento	8.05
61287	7	Sololá	701	Sololá	3	Barraneche	11	Noviembre	2023-11-16T00:00:00	2024-11-06T04:00:00	1	Precipitación	0
61288	7	Sololá	701	Sololá	3	Barraneche	11	Noviembre	2023-11-16T00:00:00	2024-11-06T04:00:00	8	Radiación solar	0
61289	7	Sololá	701	Sololá	3	Barraneche	11	Noviembre	2023-11-16T00:00:00	2024-11-06T05:00:00	2	Temperatura media	14.2
61290	7	Sololá	701	Sololá	3	Barraneche	11	Noviembre	2023-11-16T00:00:00	2024-11-06T05:00:00	4	Temperatura máxima	14.3
61291	7	Sololá	701	Sololá	3	Barraneche	11	Noviembre	2023-11-16T00:00:00	2024-11-06T05:00:00	3	Temperatura mínima	12.7
61292	7	Sololá	701	Sololá	3	Barraneche	11	Noviembre	2023-11-16T00:00:00	2024-11-06T05:00:00	5	Humedad	60
61293	7	Sololá	701	Sololá	3	Barraneche	11	Noviembre	2023-11-16T00:00:00	2024-11-06T05:00:00	6	Velocidad del viento	12.9
61294	7	Sololá	701	Sololá	3	Barraneche	11	Noviembre	2023-11-16T00:00:00	2024-11-06T05:00:00	7	Dirección del viento	12.87
61295	7	Sololá	701	Sololá	3	Barraneche	11	Noviembre	2023-11-16T00:00:00	2024-11-06T05:00:00	1	Precipitación	0
61296	7	Sololá	701	Sololá	3	Barraneche	11	Noviembre	2023-11-16T00:00:00	2024-11-06T05:00:00	8	Radiación solar	0
61297	7	Sololá	701	Sololá	3	Barraneche	11	Noviembre	2023-11-16T00:00:00	2024-11-06T06:00:00	2	Temperatura media	14.1
61298	7	Sololá	701	Sololá	3	Barraneche	11	Noviembre	2023-11-16T00:00:00	2024-11-06T06:00:00	4	Temperatura máxima	14.2
61299	7	Sololá	701	Sololá	3	Barraneche	11	Noviembre	2023-11-16T00:00:00	2024-11-06T06:00:00	3	Temperatura mínima	13.3
61300	7	Sololá	701	Sololá	3	Barraneche	11	Noviembre	2023-11-16T00:00:00	2024-11-06T06:00:00	5	Humedad	58
61301	7	Sololá	701	Sololá	3	Barraneche	11	Noviembre	2023-11-16T00:00:00	2024-11-06T06:00:00	6	Velocidad del viento	11.3
61302	7	Sololá	701	Sololá	3	Barraneche	11	Noviembre	2023-11-16T00:00:00	2024-11-06T06:00:00	7	Dirección del viento	11.27
61303	7	Sololá	701	Sololá	3	Barraneche	11	Noviembre	2023-11-16T00:00:00	2024-11-06T06:00:00	1	Precipitación	0
61304	7	Sololá	701	Sololá	3	Barraneche	11	Noviembre	2023-11-16T00:00:00	2024-11-06T06:00:00	8	Radiación solar	0
61305	7	Sololá	701	Sololá	3	Barraneche	11	Noviembre	2023-11-16T00:00:00	2024-11-06T07:00:00	2	Temperatura media	14.6
61306	7	Sololá	701	Sololá	3	Barraneche	11	Noviembre	2023-11-16T00:00:00	2024-11-06T07:00:00	4	Temperatura máxima	14.6
61307	7	Sololá	701	Sololá	3	Barraneche	11	Noviembre	2023-11-16T00:00:00	2024-11-06T07:00:00	3	Temperatura mínima	12.5
61308	7	Sololá	701	Sololá	3	Barraneche	11	Noviembre	2023-11-16T00:00:00	2024-11-06T07:00:00	5	Humedad	59
61309	7	Sololá	701	Sololá	3	Barraneche	11	Noviembre	2023-11-16T00:00:00	2024-11-06T07:00:00	6	Velocidad del viento	8
61310	7	Sololá	701	Sololá	3	Barraneche	11	Noviembre	2023-11-16T00:00:00	2024-11-06T07:00:00	7	Dirección del viento	8.05
61311	7	Sololá	701	Sololá	3	Barraneche	11	Noviembre	2023-11-16T00:00:00	2024-11-06T07:00:00	1	Precipitación	0
61312	7	Sololá	701	Sololá	3	Barraneche	11	Noviembre	2023-11-16T00:00:00	2024-11-06T07:00:00	8	Radiación solar	33
61313	7	Sololá	701	Sololá	3	Barraneche	11	Noviembre	2023-11-16T00:00:00	2024-11-06T08:00:00	2	Temperatura media	15.4
61314	7	Sololá	701	Sololá	3	Barraneche	11	Noviembre	2023-11-16T00:00:00	2024-11-06T08:00:00	4	Temperatura máxima	15.4
61315	7	Sololá	701	Sololá	3	Barraneche	11	Noviembre	2023-11-16T00:00:00	2024-11-06T08:00:00	3	Temperatura mínima	14.6
61316	7	Sololá	701	Sololá	3	Barraneche	11	Noviembre	2023-11-16T00:00:00	2024-11-06T08:00:00	5	Humedad	57
61317	7	Sololá	701	Sololá	3	Barraneche	11	Noviembre	2023-11-16T00:00:00	2024-11-06T08:00:00	6	Velocidad del viento	20.9
61318	7	Sololá	701	Sololá	3	Barraneche	11	Noviembre	2023-11-16T00:00:00	2024-11-06T08:00:00	7	Dirección del viento	20.92
61319	7	Sololá	701	Sololá	3	Barraneche	11	Noviembre	2023-11-16T00:00:00	2024-11-06T08:00:00	1	Precipitación	0
61320	7	Sololá	701	Sololá	3	Barraneche	11	Noviembre	2023-11-16T00:00:00	2024-11-06T08:00:00	8	Radiación solar	272
61321	7	Sololá	701	Sololá	3	Barraneche	11	Noviembre	2023-11-16T00:00:00	2024-11-06T09:00:00	2	Temperatura media	18
61322	7	Sololá	701	Sololá	3	Barraneche	11	Noviembre	2023-11-16T00:00:00	2024-11-06T09:00:00	4	Temperatura máxima	18.3
61323	7	Sololá	701	Sololá	3	Barraneche	11	Noviembre	2023-11-16T00:00:00	2024-11-06T09:00:00	3	Temperatura mínima	15.4
61324	7	Sololá	701	Sololá	3	Barraneche	11	Noviembre	2023-11-16T00:00:00	2024-11-06T09:00:00	5	Humedad	49
61325	7	Sololá	701	Sololá	3	Barraneche	11	Noviembre	2023-11-16T00:00:00	2024-11-06T09:00:00	6	Velocidad del viento	14.5
61326	7	Sololá	701	Sololá	3	Barraneche	11	Noviembre	2023-11-16T00:00:00	2024-11-06T09:00:00	7	Dirección del viento	14.48
61327	7	Sololá	701	Sololá	3	Barraneche	11	Noviembre	2023-11-16T00:00:00	2024-11-06T09:00:00	1	Precipitación	0
61328	7	Sololá	701	Sololá	3	Barraneche	11	Noviembre	2023-11-16T00:00:00	2024-11-06T09:00:00	8	Radiación solar	507
61329	7	Sololá	701	Sololá	3	Barraneche	11	Noviembre	2023-11-16T00:00:00	2024-11-06T10:00:00	2	Temperatura media	18.9
61330	7	Sololá	701	Sololá	3	Barraneche	11	Noviembre	2023-11-16T00:00:00	2024-11-06T10:00:00	4	Temperatura máxima	18.9
61331	7	Sololá	701	Sololá	3	Barraneche	11	Noviembre	2023-11-16T00:00:00	2024-11-06T10:00:00	3	Temperatura mínima	17.9
61332	7	Sololá	701	Sololá	3	Barraneche	11	Noviembre	2023-11-16T00:00:00	2024-11-06T10:00:00	5	Humedad	50
61333	7	Sololá	701	Sololá	3	Barraneche	11	Noviembre	2023-11-16T00:00:00	2024-11-06T10:00:00	6	Velocidad del viento	16.1
61334	7	Sololá	701	Sololá	3	Barraneche	11	Noviembre	2023-11-16T00:00:00	2024-11-06T10:00:00	7	Dirección del viento	16.09
61335	7	Sololá	701	Sololá	3	Barraneche	11	Noviembre	2023-11-16T00:00:00	2024-11-06T10:00:00	1	Precipitación	0
61336	7	Sololá	701	Sololá	3	Barraneche	11	Noviembre	2023-11-16T00:00:00	2024-11-06T10:00:00	8	Radiación solar	697
61337	7	Sololá	701	Sololá	3	Barraneche	11	Noviembre	2023-11-16T00:00:00	2024-11-06T11:00:00	2	Temperatura media	20.2
61338	7	Sololá	701	Sololá	3	Barraneche	11	Noviembre	2023-11-16T00:00:00	2024-11-06T11:00:00	4	Temperatura máxima	20.2
61339	7	Sololá	701	Sololá	3	Barraneche	11	Noviembre	2023-11-16T00:00:00	2024-11-06T11:00:00	3	Temperatura mínima	18.9
61340	7	Sololá	701	Sololá	3	Barraneche	11	Noviembre	2023-11-16T00:00:00	2024-11-06T11:00:00	5	Humedad	45
61341	7	Sololá	701	Sololá	3	Barraneche	11	Noviembre	2023-11-16T00:00:00	2024-11-06T11:00:00	6	Velocidad del viento	14.5
61342	7	Sololá	701	Sololá	3	Barraneche	11	Noviembre	2023-11-16T00:00:00	2024-11-06T11:00:00	7	Dirección del viento	14.48
61343	7	Sololá	701	Sololá	3	Barraneche	11	Noviembre	2023-11-16T00:00:00	2024-11-06T11:00:00	1	Precipitación	0
61344	7	Sololá	701	Sololá	3	Barraneche	11	Noviembre	2023-11-16T00:00:00	2024-11-06T11:00:00	8	Radiación solar	824
61345	7	Sololá	701	Sololá	3	Barraneche	11	Noviembre	2023-11-16T00:00:00	2024-11-06T12:00:00	2	Temperatura media	19.8
61346	7	Sololá	701	Sololá	3	Barraneche	11	Noviembre	2023-11-16T00:00:00	2024-11-06T12:00:00	4	Temperatura máxima	20.7
61347	7	Sololá	701	Sololá	3	Barraneche	11	Noviembre	2023-11-16T00:00:00	2024-11-06T12:00:00	3	Temperatura mínima	19.8
61348	7	Sololá	701	Sololá	3	Barraneche	11	Noviembre	2023-11-16T00:00:00	2024-11-06T12:00:00	5	Humedad	51
61349	7	Sololá	701	Sololá	3	Barraneche	11	Noviembre	2023-11-16T00:00:00	2024-11-06T12:00:00	6	Velocidad del viento	14.5
61350	7	Sololá	701	Sololá	3	Barraneche	11	Noviembre	2023-11-16T00:00:00	2024-11-06T12:00:00	7	Dirección del viento	14.48
61351	7	Sololá	701	Sololá	3	Barraneche	11	Noviembre	2023-11-16T00:00:00	2024-11-06T12:00:00	1	Precipitación	0
61352	7	Sololá	701	Sololá	3	Barraneche	11	Noviembre	2023-11-16T00:00:00	2024-11-06T12:00:00	8	Radiación solar	883
61353	7	Sololá	701	Sololá	3	Barraneche	11	Noviembre	2023-11-16T00:00:00	2024-11-06T13:00:00	2	Temperatura media	20.3
61354	7	Sololá	701	Sololá	3	Barraneche	11	Noviembre	2023-11-16T00:00:00	2024-11-06T13:00:00	4	Temperatura máxima	20.4
61355	7	Sololá	701	Sololá	3	Barraneche	11	Noviembre	2023-11-16T00:00:00	2024-11-06T13:00:00	3	Temperatura mínima	19.8
61356	7	Sololá	701	Sololá	3	Barraneche	11	Noviembre	2023-11-16T00:00:00	2024-11-06T13:00:00	5	Humedad	50
61357	7	Sololá	701	Sololá	3	Barraneche	11	Noviembre	2023-11-16T00:00:00	2024-11-06T13:00:00	6	Velocidad del viento	16.1
61358	7	Sololá	701	Sololá	3	Barraneche	11	Noviembre	2023-11-16T00:00:00	2024-11-06T13:00:00	7	Dirección del viento	16.09
61359	7	Sololá	701	Sololá	3	Barraneche	11	Noviembre	2023-11-16T00:00:00	2024-11-06T13:00:00	1	Precipitación	0
61360	7	Sololá	701	Sololá	3	Barraneche	11	Noviembre	2023-11-16T00:00:00	2024-11-06T13:00:00	8	Radiación solar	811
61361	7	Sololá	701	Sololá	3	Barraneche	11	Noviembre	2023-11-16T00:00:00	2024-11-06T14:00:00	2	Temperatura media	21.3
61362	7	Sololá	701	Sololá	3	Barraneche	11	Noviembre	2023-11-16T00:00:00	2024-11-06T14:00:00	4	Temperatura máxima	21.3
61363	7	Sololá	701	Sololá	3	Barraneche	11	Noviembre	2023-11-16T00:00:00	2024-11-06T14:00:00	3	Temperatura mínima	20.3
61364	7	Sololá	701	Sololá	3	Barraneche	11	Noviembre	2023-11-16T00:00:00	2024-11-06T14:00:00	5	Humedad	47
61365	7	Sololá	701	Sololá	3	Barraneche	11	Noviembre	2023-11-16T00:00:00	2024-11-06T14:00:00	6	Velocidad del viento	9.7
61366	7	Sololá	701	Sololá	3	Barraneche	11	Noviembre	2023-11-16T00:00:00	2024-11-06T14:00:00	7	Dirección del viento	9.66
61367	7	Sololá	701	Sololá	3	Barraneche	11	Noviembre	2023-11-16T00:00:00	2024-11-06T14:00:00	1	Precipitación	0
61368	7	Sololá	701	Sololá	3	Barraneche	11	Noviembre	2023-11-16T00:00:00	2024-11-06T14:00:00	8	Radiación solar	779
61369	7	Sololá	701	Sololá	3	Barraneche	11	Noviembre	2023-11-16T00:00:00	2024-11-06T15:00:00	2	Temperatura media	19.5
61370	7	Sololá	701	Sololá	3	Barraneche	11	Noviembre	2023-11-16T00:00:00	2024-11-06T15:00:00	4	Temperatura máxima	21.4
61371	7	Sololá	701	Sololá	3	Barraneche	11	Noviembre	2023-11-16T00:00:00	2024-11-06T15:00:00	3	Temperatura mínima	19.5
61372	7	Sololá	701	Sololá	3	Barraneche	11	Noviembre	2023-11-16T00:00:00	2024-11-06T15:00:00	5	Humedad	54
61373	7	Sololá	701	Sololá	3	Barraneche	11	Noviembre	2023-11-16T00:00:00	2024-11-06T15:00:00	6	Velocidad del viento	12.9
61374	7	Sololá	701	Sololá	3	Barraneche	11	Noviembre	2023-11-16T00:00:00	2024-11-06T15:00:00	7	Dirección del viento	12.87
61375	7	Sololá	701	Sololá	3	Barraneche	11	Noviembre	2023-11-16T00:00:00	2024-11-06T15:00:00	1	Precipitación	0
61376	7	Sololá	701	Sololá	3	Barraneche	11	Noviembre	2023-11-16T00:00:00	2024-11-06T15:00:00	8	Radiación solar	633
61377	7	Sololá	701	Sololá	3	Barraneche	11	Noviembre	2023-11-16T00:00:00	2024-11-06T16:00:00	2	Temperatura media	17.7
61378	7	Sololá	701	Sololá	3	Barraneche	11	Noviembre	2023-11-16T00:00:00	2024-11-06T16:00:00	4	Temperatura máxima	19.6
61379	7	Sololá	701	Sololá	3	Barraneche	11	Noviembre	2023-11-16T00:00:00	2024-11-06T16:00:00	3	Temperatura mínima	17.6
61380	7	Sololá	701	Sololá	3	Barraneche	11	Noviembre	2023-11-16T00:00:00	2024-11-06T16:00:00	5	Humedad	60
61381	7	Sololá	701	Sololá	3	Barraneche	11	Noviembre	2023-11-16T00:00:00	2024-11-06T16:00:00	6	Velocidad del viento	14.5
61382	7	Sololá	701	Sololá	3	Barraneche	11	Noviembre	2023-11-16T00:00:00	2024-11-06T16:00:00	7	Dirección del viento	14.48
61383	7	Sololá	701	Sololá	3	Barraneche	11	Noviembre	2023-11-16T00:00:00	2024-11-06T16:00:00	1	Precipitación	0
61384	7	Sololá	701	Sololá	3	Barraneche	11	Noviembre	2023-11-16T00:00:00	2024-11-06T16:00:00	8	Radiación solar	151
61385	7	Sololá	701	Sololá	3	Barraneche	11	Noviembre	2023-11-16T00:00:00	2024-11-06T17:00:00	2	Temperatura media	16.3
61386	7	Sololá	701	Sololá	3	Barraneche	11	Noviembre	2023-11-16T00:00:00	2024-11-06T17:00:00	4	Temperatura máxima	17.7
61387	7	Sololá	701	Sololá	3	Barraneche	11	Noviembre	2023-11-16T00:00:00	2024-11-06T17:00:00	3	Temperatura mínima	16.3
61388	7	Sololá	701	Sololá	3	Barraneche	11	Noviembre	2023-11-16T00:00:00	2024-11-06T17:00:00	5	Humedad	65
61389	7	Sololá	701	Sololá	3	Barraneche	11	Noviembre	2023-11-16T00:00:00	2024-11-06T17:00:00	6	Velocidad del viento	11.3
61390	7	Sololá	701	Sololá	3	Barraneche	11	Noviembre	2023-11-16T00:00:00	2024-11-06T17:00:00	7	Dirección del viento	11.27
61391	7	Sololá	701	Sololá	3	Barraneche	11	Noviembre	2023-11-16T00:00:00	2024-11-06T17:00:00	1	Precipitación	0
61392	7	Sololá	701	Sololá	3	Barraneche	11	Noviembre	2023-11-16T00:00:00	2024-11-06T17:00:00	8	Radiación solar	68
61393	7	Sololá	701	Sololá	3	Barraneche	11	Noviembre	2023-11-16T00:00:00	2024-11-06T18:00:00	2	Temperatura media	15.7
61394	7	Sololá	701	Sololá	3	Barraneche	11	Noviembre	2023-11-16T00:00:00	2024-11-06T18:00:00	4	Temperatura máxima	16.3
61395	7	Sololá	701	Sololá	3	Barraneche	11	Noviembre	2023-11-16T00:00:00	2024-11-06T18:00:00	3	Temperatura mínima	15.7
61396	7	Sololá	701	Sololá	3	Barraneche	11	Noviembre	2023-11-16T00:00:00	2024-11-06T18:00:00	5	Humedad	66
61397	7	Sololá	701	Sololá	3	Barraneche	11	Noviembre	2023-11-16T00:00:00	2024-11-06T18:00:00	6	Velocidad del viento	6.4
61398	7	Sololá	701	Sololá	3	Barraneche	11	Noviembre	2023-11-16T00:00:00	2024-11-06T18:00:00	7	Dirección del viento	6.44
61399	7	Sololá	701	Sololá	3	Barraneche	11	Noviembre	2023-11-16T00:00:00	2024-11-06T18:00:00	1	Precipitación	0
61400	7	Sololá	701	Sololá	3	Barraneche	11	Noviembre	2023-11-16T00:00:00	2024-11-06T18:00:00	8	Radiación solar	9
61401	7	Sololá	701	Sololá	3	Barraneche	11	Noviembre	2023-11-16T00:00:00	2024-11-06T19:00:00	2	Temperatura media	15.5
61402	7	Sololá	701	Sololá	3	Barraneche	11	Noviembre	2023-11-16T00:00:00	2024-11-06T19:00:00	4	Temperatura máxima	15.8
61403	7	Sololá	701	Sololá	3	Barraneche	11	Noviembre	2023-11-16T00:00:00	2024-11-06T19:00:00	3	Temperatura mínima	15.5
61404	7	Sololá	701	Sololá	3	Barraneche	11	Noviembre	2023-11-16T00:00:00	2024-11-06T19:00:00	5	Humedad	69
61405	7	Sololá	701	Sololá	3	Barraneche	11	Noviembre	2023-11-16T00:00:00	2024-11-06T19:00:00	6	Velocidad del viento	3.2
61406	7	Sololá	701	Sololá	3	Barraneche	11	Noviembre	2023-11-16T00:00:00	2024-11-06T19:00:00	7	Dirección del viento	3.22
61407	7	Sololá	701	Sololá	3	Barraneche	11	Noviembre	2023-11-16T00:00:00	2024-11-06T19:00:00	1	Precipitación	0
61408	7	Sololá	701	Sololá	3	Barraneche	11	Noviembre	2023-11-16T00:00:00	2024-11-06T19:00:00	8	Radiación solar	0
61409	7	Sololá	701	Sololá	3	Barraneche	11	Noviembre	2023-11-16T00:00:00	2024-11-06T20:00:00	2	Temperatura media	13.4
61410	7	Sololá	701	Sololá	3	Barraneche	11	Noviembre	2023-11-16T00:00:00	2024-11-06T20:00:00	4	Temperatura máxima	15.5
61411	7	Sololá	701	Sololá	3	Barraneche	11	Noviembre	2023-11-16T00:00:00	2024-11-06T20:00:00	3	Temperatura mínima	13.4
61412	7	Sololá	701	Sololá	3	Barraneche	11	Noviembre	2023-11-16T00:00:00	2024-11-06T20:00:00	5	Humedad	71
61413	7	Sololá	701	Sololá	3	Barraneche	11	Noviembre	2023-11-16T00:00:00	2024-11-06T20:00:00	6	Velocidad del viento	1.6
61414	7	Sololá	701	Sololá	3	Barraneche	11	Noviembre	2023-11-16T00:00:00	2024-11-06T20:00:00	7	Dirección del viento	1.61
61415	7	Sololá	701	Sololá	3	Barraneche	11	Noviembre	2023-11-16T00:00:00	2024-11-06T20:00:00	1	Precipitación	0
61416	7	Sololá	701	Sololá	3	Barraneche	11	Noviembre	2023-11-16T00:00:00	2024-11-06T20:00:00	8	Radiación solar	0
61417	7	Sololá	701	Sololá	3	Barraneche	11	Noviembre	2023-11-16T00:00:00	2024-11-06T21:00:00	2	Temperatura media	12.7
61418	7	Sololá	701	Sololá	3	Barraneche	11	Noviembre	2023-11-16T00:00:00	2024-11-06T21:00:00	4	Temperatura máxima	13.4
61419	7	Sololá	701	Sololá	3	Barraneche	11	Noviembre	2023-11-16T00:00:00	2024-11-06T21:00:00	3	Temperatura mínima	12.6
61420	7	Sololá	701	Sololá	3	Barraneche	11	Noviembre	2023-11-16T00:00:00	2024-11-06T21:00:00	5	Humedad	72
61421	7	Sololá	701	Sololá	3	Barraneche	11	Noviembre	2023-11-16T00:00:00	2024-11-06T21:00:00	6	Velocidad del viento	4.8
61422	7	Sololá	701	Sololá	3	Barraneche	11	Noviembre	2023-11-16T00:00:00	2024-11-06T21:00:00	7	Dirección del viento	4.83
61423	7	Sololá	701	Sololá	3	Barraneche	11	Noviembre	2023-11-16T00:00:00	2024-11-06T21:00:00	1	Precipitación	0
61424	7	Sololá	701	Sololá	3	Barraneche	11	Noviembre	2023-11-16T00:00:00	2024-11-06T21:00:00	8	Radiación solar	0
61425	7	Sololá	701	Sololá	3	Barraneche	11	Noviembre	2023-11-16T00:00:00	2024-11-06T22:00:00	2	Temperatura media	12.2
61426	7	Sololá	701	Sololá	3	Barraneche	11	Noviembre	2023-11-16T00:00:00	2024-11-06T22:00:00	4	Temperatura máxima	12.7
61427	7	Sololá	701	Sololá	3	Barraneche	11	Noviembre	2023-11-16T00:00:00	2024-11-06T22:00:00	3	Temperatura mínima	12.1
61428	7	Sololá	701	Sololá	3	Barraneche	11	Noviembre	2023-11-16T00:00:00	2024-11-06T22:00:00	5	Humedad	73
61429	7	Sololá	701	Sololá	3	Barraneche	11	Noviembre	2023-11-16T00:00:00	2024-11-06T22:00:00	6	Velocidad del viento	4.8
61430	7	Sololá	701	Sololá	3	Barraneche	11	Noviembre	2023-11-16T00:00:00	2024-11-06T22:00:00	7	Dirección del viento	4.83
61431	7	Sololá	701	Sololá	3	Barraneche	11	Noviembre	2023-11-16T00:00:00	2024-11-06T22:00:00	1	Precipitación	0
61432	7	Sololá	701	Sololá	3	Barraneche	11	Noviembre	2023-11-16T00:00:00	2024-11-06T22:00:00	8	Radiación solar	0
61433	7	Sololá	701	Sololá	3	Barraneche	11	Noviembre	2023-11-16T00:00:00	2024-11-06T23:00:00	2	Temperatura media	12.6
61434	7	Sololá	701	Sololá	3	Barraneche	11	Noviembre	2023-11-16T00:00:00	2024-11-06T23:00:00	4	Temperatura máxima	12.6
61435	7	Sololá	701	Sololá	3	Barraneche	11	Noviembre	2023-11-16T00:00:00	2024-11-06T23:00:00	3	Temperatura mínima	11.9
61436	7	Sololá	701	Sololá	3	Barraneche	11	Noviembre	2023-11-16T00:00:00	2024-11-06T23:00:00	5	Humedad	74
61437	7	Sololá	701	Sololá	3	Barraneche	11	Noviembre	2023-11-16T00:00:00	2024-11-06T23:00:00	6	Velocidad del viento	3.2
61438	7	Sololá	701	Sololá	3	Barraneche	11	Noviembre	2023-11-16T00:00:00	2024-11-06T23:00:00	7	Dirección del viento	3.22
61439	7	Sololá	701	Sololá	3	Barraneche	11	Noviembre	2023-11-16T00:00:00	2024-11-06T23:00:00	1	Precipitación	0
61440	7	Sololá	701	Sololá	3	Barraneche	11	Noviembre	2023-11-16T00:00:00	2024-11-06T23:00:00	8	Radiación solar	0
61441	7	Sololá	701	Sololá	3	Barraneche	11	Noviembre	2023-11-17T00:00:00	2024-11-06T00:00:00	2	Temperatura media	13.2
61442	7	Sololá	701	Sololá	3	Barraneche	11	Noviembre	2023-11-17T00:00:00	2024-11-06T00:00:00	4	Temperatura máxima	13.3
61443	7	Sololá	701	Sololá	3	Barraneche	11	Noviembre	2023-11-17T00:00:00	2024-11-06T00:00:00	3	Temperatura mínima	12.6
61444	7	Sololá	701	Sololá	3	Barraneche	11	Noviembre	2023-11-17T00:00:00	2024-11-06T00:00:00	5	Humedad	73
61445	7	Sololá	701	Sololá	3	Barraneche	11	Noviembre	2023-11-17T00:00:00	2024-11-06T00:00:00	6	Velocidad del viento	0
61446	7	Sololá	701	Sololá	3	Barraneche	11	Noviembre	2023-11-17T00:00:00	2024-11-06T00:00:00	7	Dirección del viento	0
61447	7	Sololá	701	Sololá	3	Barraneche	11	Noviembre	2023-11-17T00:00:00	2024-11-06T00:00:00	1	Precipitación	0
61448	7	Sololá	701	Sololá	3	Barraneche	11	Noviembre	2023-11-17T00:00:00	2024-11-06T00:00:00	8	Radiación solar	0
61449	7	Sololá	701	Sololá	3	Barraneche	11	Noviembre	2023-11-17T00:00:00	2024-11-06T01:00:00	2	Temperatura media	13
61450	7	Sololá	701	Sololá	3	Barraneche	11	Noviembre	2023-11-17T00:00:00	2024-11-06T01:00:00	4	Temperatura máxima	13.2
61451	7	Sololá	701	Sololá	3	Barraneche	11	Noviembre	2023-11-17T00:00:00	2024-11-06T01:00:00	3	Temperatura mínima	12.9
61452	7	Sololá	701	Sololá	3	Barraneche	11	Noviembre	2023-11-17T00:00:00	2024-11-06T01:00:00	5	Humedad	78
61453	7	Sololá	701	Sololá	3	Barraneche	11	Noviembre	2023-11-17T00:00:00	2024-11-06T01:00:00	6	Velocidad del viento	1.6
61454	7	Sololá	701	Sololá	3	Barraneche	11	Noviembre	2023-11-17T00:00:00	2024-11-06T01:00:00	7	Dirección del viento	1.61
61455	7	Sololá	701	Sololá	3	Barraneche	11	Noviembre	2023-11-17T00:00:00	2024-11-06T01:00:00	1	Precipitación	0
61456	7	Sololá	701	Sololá	3	Barraneche	11	Noviembre	2023-11-17T00:00:00	2024-11-06T01:00:00	8	Radiación solar	0
61457	7	Sololá	701	Sololá	3	Barraneche	11	Noviembre	2023-11-17T00:00:00	2024-11-06T02:00:00	2	Temperatura media	12.3
61458	7	Sololá	701	Sololá	3	Barraneche	11	Noviembre	2023-11-17T00:00:00	2024-11-06T02:00:00	4	Temperatura máxima	13
61459	7	Sololá	701	Sololá	3	Barraneche	11	Noviembre	2023-11-17T00:00:00	2024-11-06T02:00:00	3	Temperatura mínima	12.3
61460	7	Sololá	701	Sololá	3	Barraneche	11	Noviembre	2023-11-17T00:00:00	2024-11-06T02:00:00	5	Humedad	79
61461	7	Sololá	701	Sololá	3	Barraneche	11	Noviembre	2023-11-17T00:00:00	2024-11-06T02:00:00	6	Velocidad del viento	1.6
61462	7	Sololá	701	Sololá	3	Barraneche	11	Noviembre	2023-11-17T00:00:00	2024-11-06T02:00:00	7	Dirección del viento	1.61
61463	7	Sololá	701	Sololá	3	Barraneche	11	Noviembre	2023-11-17T00:00:00	2024-11-06T02:00:00	1	Precipitación	0
61464	7	Sololá	701	Sololá	3	Barraneche	11	Noviembre	2023-11-17T00:00:00	2024-11-06T02:00:00	8	Radiación solar	0
61465	7	Sololá	701	Sololá	3	Barraneche	11	Noviembre	2023-11-17T00:00:00	2024-11-06T03:00:00	2	Temperatura media	11
61466	7	Sololá	701	Sololá	3	Barraneche	11	Noviembre	2023-11-17T00:00:00	2024-11-06T03:00:00	4	Temperatura máxima	12.3
61467	7	Sololá	701	Sololá	3	Barraneche	11	Noviembre	2023-11-17T00:00:00	2024-11-06T03:00:00	3	Temperatura mínima	11
61468	7	Sololá	701	Sololá	3	Barraneche	11	Noviembre	2023-11-17T00:00:00	2024-11-06T03:00:00	5	Humedad	76
61469	7	Sololá	701	Sololá	3	Barraneche	11	Noviembre	2023-11-17T00:00:00	2024-11-06T03:00:00	6	Velocidad del viento	4.8
61470	7	Sololá	701	Sololá	3	Barraneche	11	Noviembre	2023-11-17T00:00:00	2024-11-06T03:00:00	7	Dirección del viento	4.83
61471	7	Sololá	701	Sololá	3	Barraneche	11	Noviembre	2023-11-17T00:00:00	2024-11-06T03:00:00	1	Precipitación	0
61472	7	Sololá	701	Sololá	3	Barraneche	11	Noviembre	2023-11-17T00:00:00	2024-11-06T03:00:00	8	Radiación solar	0
61473	7	Sololá	701	Sololá	3	Barraneche	11	Noviembre	2023-11-17T00:00:00	2024-11-06T04:00:00	2	Temperatura media	10.3
61474	7	Sololá	701	Sololá	3	Barraneche	11	Noviembre	2023-11-17T00:00:00	2024-11-06T04:00:00	4	Temperatura máxima	11
61475	7	Sololá	701	Sololá	3	Barraneche	11	Noviembre	2023-11-17T00:00:00	2024-11-06T04:00:00	3	Temperatura mínima	10.3
61476	7	Sololá	701	Sololá	3	Barraneche	11	Noviembre	2023-11-17T00:00:00	2024-11-06T04:00:00	5	Humedad	72
61477	7	Sololá	701	Sololá	3	Barraneche	11	Noviembre	2023-11-17T00:00:00	2024-11-06T04:00:00	6	Velocidad del viento	6.4
61478	7	Sololá	701	Sololá	3	Barraneche	11	Noviembre	2023-11-17T00:00:00	2024-11-06T04:00:00	7	Dirección del viento	6.44
61479	7	Sololá	701	Sololá	3	Barraneche	11	Noviembre	2023-11-17T00:00:00	2024-11-06T04:00:00	1	Precipitación	0
61480	7	Sololá	701	Sololá	3	Barraneche	11	Noviembre	2023-11-17T00:00:00	2024-11-06T04:00:00	8	Radiación solar	0
61481	7	Sololá	701	Sololá	3	Barraneche	11	Noviembre	2023-11-17T00:00:00	2024-11-06T05:00:00	2	Temperatura media	9.4
61482	7	Sololá	701	Sololá	3	Barraneche	11	Noviembre	2023-11-17T00:00:00	2024-11-06T05:00:00	4	Temperatura máxima	10.3
61483	7	Sololá	701	Sololá	3	Barraneche	11	Noviembre	2023-11-17T00:00:00	2024-11-06T05:00:00	3	Temperatura mínima	9.4
61484	7	Sololá	701	Sololá	3	Barraneche	11	Noviembre	2023-11-17T00:00:00	2024-11-06T05:00:00	5	Humedad	69
61485	7	Sololá	701	Sololá	3	Barraneche	11	Noviembre	2023-11-17T00:00:00	2024-11-06T05:00:00	6	Velocidad del viento	6.4
61486	7	Sololá	701	Sololá	3	Barraneche	11	Noviembre	2023-11-17T00:00:00	2024-11-06T05:00:00	7	Dirección del viento	6.44
61487	7	Sololá	701	Sololá	3	Barraneche	11	Noviembre	2023-11-17T00:00:00	2024-11-06T05:00:00	1	Precipitación	0
61488	7	Sololá	701	Sololá	3	Barraneche	11	Noviembre	2023-11-17T00:00:00	2024-11-06T05:00:00	8	Radiación solar	0
61489	7	Sololá	701	Sololá	3	Barraneche	11	Noviembre	2023-11-17T00:00:00	2024-11-06T06:00:00	2	Temperatura media	9.8
61490	7	Sololá	701	Sololá	3	Barraneche	11	Noviembre	2023-11-17T00:00:00	2024-11-06T06:00:00	4	Temperatura máxima	9.8
61491	7	Sololá	701	Sololá	3	Barraneche	11	Noviembre	2023-11-17T00:00:00	2024-11-06T06:00:00	3	Temperatura mínima	9.2
61492	7	Sololá	701	Sololá	3	Barraneche	11	Noviembre	2023-11-17T00:00:00	2024-11-06T06:00:00	5	Humedad	66
61493	7	Sololá	701	Sololá	3	Barraneche	11	Noviembre	2023-11-17T00:00:00	2024-11-06T06:00:00	6	Velocidad del viento	6.4
61494	7	Sololá	701	Sololá	3	Barraneche	11	Noviembre	2023-11-17T00:00:00	2024-11-06T06:00:00	7	Dirección del viento	6.44
61495	7	Sololá	701	Sololá	3	Barraneche	11	Noviembre	2023-11-17T00:00:00	2024-11-06T06:00:00	1	Precipitación	0
61496	7	Sololá	701	Sololá	3	Barraneche	11	Noviembre	2023-11-17T00:00:00	2024-11-06T06:00:00	8	Radiación solar	0
61497	7	Sololá	701	Sololá	3	Barraneche	11	Noviembre	2023-11-17T00:00:00	2024-11-06T07:00:00	2	Temperatura media	10.6
61498	7	Sololá	701	Sololá	3	Barraneche	11	Noviembre	2023-11-17T00:00:00	2024-11-06T07:00:00	4	Temperatura máxima	10.6
61499	7	Sololá	701	Sololá	3	Barraneche	11	Noviembre	2023-11-17T00:00:00	2024-11-06T07:00:00	3	Temperatura mínima	9.3
61500	7	Sololá	701	Sololá	3	Barraneche	11	Noviembre	2023-11-17T00:00:00	2024-11-06T07:00:00	5	Humedad	65
61501	7	Sololá	701	Sololá	3	Barraneche	11	Noviembre	2023-11-17T00:00:00	2024-11-06T07:00:00	6	Velocidad del viento	6.4
61502	7	Sololá	701	Sololá	3	Barraneche	11	Noviembre	2023-11-17T00:00:00	2024-11-06T07:00:00	7	Dirección del viento	6.44
61503	7	Sololá	701	Sololá	3	Barraneche	11	Noviembre	2023-11-17T00:00:00	2024-11-06T07:00:00	1	Precipitación	0
61504	7	Sololá	701	Sololá	3	Barraneche	11	Noviembre	2023-11-17T00:00:00	2024-11-06T07:00:00	8	Radiación solar	34
61505	7	Sololá	701	Sololá	3	Barraneche	11	Noviembre	2023-11-17T00:00:00	2024-11-06T08:00:00	2	Temperatura media	14.9
61506	7	Sololá	701	Sololá	3	Barraneche	11	Noviembre	2023-11-17T00:00:00	2024-11-06T08:00:00	4	Temperatura máxima	14.9
61507	7	Sololá	701	Sololá	3	Barraneche	11	Noviembre	2023-11-17T00:00:00	2024-11-06T08:00:00	3	Temperatura mínima	10.6
61508	7	Sololá	701	Sololá	3	Barraneche	11	Noviembre	2023-11-17T00:00:00	2024-11-06T08:00:00	5	Humedad	63
61509	7	Sololá	701	Sololá	3	Barraneche	11	Noviembre	2023-11-17T00:00:00	2024-11-06T08:00:00	6	Velocidad del viento	4.8
61510	7	Sololá	701	Sololá	3	Barraneche	11	Noviembre	2023-11-17T00:00:00	2024-11-06T08:00:00	7	Dirección del viento	4.83
61511	7	Sololá	701	Sololá	3	Barraneche	11	Noviembre	2023-11-17T00:00:00	2024-11-06T08:00:00	1	Precipitación	0
61512	7	Sololá	701	Sololá	3	Barraneche	11	Noviembre	2023-11-17T00:00:00	2024-11-06T08:00:00	8	Radiación solar	271
61513	7	Sololá	701	Sololá	3	Barraneche	11	Noviembre	2023-11-17T00:00:00	2024-11-06T09:00:00	2	Temperatura media	16.6
61514	7	Sololá	701	Sololá	3	Barraneche	11	Noviembre	2023-11-17T00:00:00	2024-11-06T09:00:00	4	Temperatura máxima	16.7
61515	7	Sololá	701	Sololá	3	Barraneche	11	Noviembre	2023-11-17T00:00:00	2024-11-06T09:00:00	3	Temperatura mínima	14.9
61516	7	Sololá	701	Sololá	3	Barraneche	11	Noviembre	2023-11-17T00:00:00	2024-11-06T09:00:00	5	Humedad	60
61517	7	Sololá	701	Sololá	3	Barraneche	11	Noviembre	2023-11-17T00:00:00	2024-11-06T09:00:00	6	Velocidad del viento	4.8
61518	7	Sololá	701	Sololá	3	Barraneche	11	Noviembre	2023-11-17T00:00:00	2024-11-06T09:00:00	7	Dirección del viento	4.83
61519	7	Sololá	701	Sololá	3	Barraneche	11	Noviembre	2023-11-17T00:00:00	2024-11-06T09:00:00	1	Precipitación	0
61520	7	Sololá	701	Sololá	3	Barraneche	11	Noviembre	2023-11-17T00:00:00	2024-11-06T09:00:00	8	Radiación solar	502
61521	7	Sololá	701	Sololá	3	Barraneche	11	Noviembre	2023-11-17T00:00:00	2024-11-06T10:00:00	2	Temperatura media	17.3
61522	7	Sololá	701	Sololá	3	Barraneche	11	Noviembre	2023-11-17T00:00:00	2024-11-06T10:00:00	4	Temperatura máxima	17.6
61523	7	Sololá	701	Sololá	3	Barraneche	11	Noviembre	2023-11-17T00:00:00	2024-11-06T10:00:00	3	Temperatura mínima	16.6
61524	7	Sololá	701	Sololá	3	Barraneche	11	Noviembre	2023-11-17T00:00:00	2024-11-06T10:00:00	5	Humedad	63
61525	7	Sololá	701	Sololá	3	Barraneche	11	Noviembre	2023-11-17T00:00:00	2024-11-06T10:00:00	6	Velocidad del viento	9.7
61526	7	Sololá	701	Sololá	3	Barraneche	11	Noviembre	2023-11-17T00:00:00	2024-11-06T10:00:00	7	Dirección del viento	9.66
61527	7	Sololá	701	Sololá	3	Barraneche	11	Noviembre	2023-11-17T00:00:00	2024-11-06T10:00:00	1	Precipitación	0
61528	7	Sololá	701	Sololá	3	Barraneche	11	Noviembre	2023-11-17T00:00:00	2024-11-06T10:00:00	8	Radiación solar	689
61529	7	Sololá	701	Sololá	3	Barraneche	11	Noviembre	2023-11-17T00:00:00	2024-11-06T11:00:00	2	Temperatura media	17.6
61530	7	Sololá	701	Sololá	3	Barraneche	11	Noviembre	2023-11-17T00:00:00	2024-11-06T11:00:00	4	Temperatura máxima	18.2
61531	7	Sololá	701	Sololá	3	Barraneche	11	Noviembre	2023-11-17T00:00:00	2024-11-06T11:00:00	3	Temperatura mínima	17.3
61532	7	Sololá	701	Sololá	3	Barraneche	11	Noviembre	2023-11-17T00:00:00	2024-11-06T11:00:00	5	Humedad	63
61533	7	Sololá	701	Sololá	3	Barraneche	11	Noviembre	2023-11-17T00:00:00	2024-11-06T11:00:00	6	Velocidad del viento	11.3
61534	7	Sololá	701	Sololá	3	Barraneche	11	Noviembre	2023-11-17T00:00:00	2024-11-06T11:00:00	7	Dirección del viento	11.27
61535	7	Sololá	701	Sololá	3	Barraneche	11	Noviembre	2023-11-17T00:00:00	2024-11-06T11:00:00	1	Precipitación	0
61536	7	Sololá	701	Sololá	3	Barraneche	11	Noviembre	2023-11-17T00:00:00	2024-11-06T11:00:00	8	Radiación solar	824
61537	7	Sololá	701	Sololá	3	Barraneche	11	Noviembre	2023-11-17T00:00:00	2024-11-06T12:00:00	2	Temperatura media	17.7
61538	7	Sololá	701	Sololá	3	Barraneche	11	Noviembre	2023-11-17T00:00:00	2024-11-06T12:00:00	4	Temperatura máxima	18.7
61539	7	Sololá	701	Sololá	3	Barraneche	11	Noviembre	2023-11-17T00:00:00	2024-11-06T12:00:00	3	Temperatura mínima	17.6
61540	7	Sololá	701	Sololá	3	Barraneche	11	Noviembre	2023-11-17T00:00:00	2024-11-06T12:00:00	5	Humedad	66
61541	7	Sololá	701	Sololá	3	Barraneche	11	Noviembre	2023-11-17T00:00:00	2024-11-06T12:00:00	6	Velocidad del viento	9.7
61542	7	Sololá	701	Sololá	3	Barraneche	11	Noviembre	2023-11-17T00:00:00	2024-11-06T12:00:00	7	Dirección del viento	9.66
61543	7	Sololá	701	Sololá	3	Barraneche	11	Noviembre	2023-11-17T00:00:00	2024-11-06T12:00:00	1	Precipitación	0
61544	7	Sololá	701	Sololá	3	Barraneche	11	Noviembre	2023-11-17T00:00:00	2024-11-06T12:00:00	8	Radiación solar	880
61545	7	Sololá	701	Sololá	3	Barraneche	11	Noviembre	2023-11-17T00:00:00	2024-11-06T13:00:00	2	Temperatura media	17.2
61546	7	Sololá	701	Sololá	3	Barraneche	11	Noviembre	2023-11-17T00:00:00	2024-11-06T13:00:00	4	Temperatura máxima	17.9
61547	7	Sololá	701	Sololá	3	Barraneche	11	Noviembre	2023-11-17T00:00:00	2024-11-06T13:00:00	3	Temperatura mínima	17.2
61548	7	Sololá	701	Sololá	3	Barraneche	11	Noviembre	2023-11-17T00:00:00	2024-11-06T13:00:00	5	Humedad	68
61549	7	Sololá	701	Sololá	3	Barraneche	11	Noviembre	2023-11-17T00:00:00	2024-11-06T13:00:00	6	Velocidad del viento	12.9
61550	7	Sololá	701	Sololá	3	Barraneche	11	Noviembre	2023-11-17T00:00:00	2024-11-06T13:00:00	7	Dirección del viento	12.87
61551	7	Sololá	701	Sololá	3	Barraneche	11	Noviembre	2023-11-17T00:00:00	2024-11-06T13:00:00	1	Precipitación	0
61552	7	Sololá	701	Sololá	3	Barraneche	11	Noviembre	2023-11-17T00:00:00	2024-11-06T13:00:00	8	Radiación solar	680
61553	7	Sololá	701	Sololá	3	Barraneche	11	Noviembre	2023-11-17T00:00:00	2024-11-06T14:00:00	2	Temperatura media	15.7
61554	7	Sololá	701	Sololá	3	Barraneche	11	Noviembre	2023-11-17T00:00:00	2024-11-06T14:00:00	4	Temperatura máxima	17.2
61555	7	Sololá	701	Sololá	3	Barraneche	11	Noviembre	2023-11-17T00:00:00	2024-11-06T14:00:00	3	Temperatura mínima	15.7
61556	7	Sololá	701	Sololá	3	Barraneche	11	Noviembre	2023-11-17T00:00:00	2024-11-06T14:00:00	5	Humedad	70
61557	7	Sololá	701	Sololá	3	Barraneche	11	Noviembre	2023-11-17T00:00:00	2024-11-06T14:00:00	6	Velocidad del viento	12.9
61558	7	Sololá	701	Sololá	3	Barraneche	11	Noviembre	2023-11-17T00:00:00	2024-11-06T14:00:00	7	Dirección del viento	12.87
61559	7	Sololá	701	Sololá	3	Barraneche	11	Noviembre	2023-11-17T00:00:00	2024-11-06T14:00:00	1	Precipitación	0
61560	7	Sololá	701	Sololá	3	Barraneche	11	Noviembre	2023-11-17T00:00:00	2024-11-06T14:00:00	8	Radiación solar	248
61561	7	Sololá	701	Sololá	3	Barraneche	11	Noviembre	2023-11-17T00:00:00	2024-11-06T15:00:00	2	Temperatura media	15.9
61562	7	Sololá	701	Sololá	3	Barraneche	11	Noviembre	2023-11-17T00:00:00	2024-11-06T15:00:00	4	Temperatura máxima	16.9
61563	7	Sololá	701	Sololá	3	Barraneche	11	Noviembre	2023-11-17T00:00:00	2024-11-06T15:00:00	3	Temperatura mínima	15.7
61564	7	Sololá	701	Sololá	3	Barraneche	11	Noviembre	2023-11-17T00:00:00	2024-11-06T15:00:00	5	Humedad	70
61565	7	Sololá	701	Sololá	3	Barraneche	11	Noviembre	2023-11-17T00:00:00	2024-11-06T15:00:00	6	Velocidad del viento	9.7
61566	7	Sololá	701	Sololá	3	Barraneche	11	Noviembre	2023-11-17T00:00:00	2024-11-06T15:00:00	7	Dirección del viento	9.66
61567	7	Sololá	701	Sololá	3	Barraneche	11	Noviembre	2023-11-17T00:00:00	2024-11-06T15:00:00	1	Precipitación	0
61568	7	Sololá	701	Sololá	3	Barraneche	11	Noviembre	2023-11-17T00:00:00	2024-11-06T15:00:00	8	Radiación solar	203
61569	7	Sololá	701	Sololá	3	Barraneche	11	Noviembre	2023-11-17T00:00:00	2024-11-06T16:00:00	2	Temperatura media	15.2
61570	7	Sololá	701	Sololá	3	Barraneche	11	Noviembre	2023-11-17T00:00:00	2024-11-06T16:00:00	4	Temperatura máxima	15.9
61571	7	Sololá	701	Sololá	3	Barraneche	11	Noviembre	2023-11-17T00:00:00	2024-11-06T16:00:00	3	Temperatura mínima	15.2
61572	7	Sololá	701	Sololá	3	Barraneche	11	Noviembre	2023-11-17T00:00:00	2024-11-06T16:00:00	5	Humedad	73
61573	7	Sololá	701	Sololá	3	Barraneche	11	Noviembre	2023-11-17T00:00:00	2024-11-06T16:00:00	6	Velocidad del viento	6.4
61574	7	Sololá	701	Sololá	3	Barraneche	11	Noviembre	2023-11-17T00:00:00	2024-11-06T16:00:00	7	Dirección del viento	6.44
61575	7	Sololá	701	Sololá	3	Barraneche	11	Noviembre	2023-11-17T00:00:00	2024-11-06T16:00:00	1	Precipitación	0
61576	7	Sololá	701	Sololá	3	Barraneche	11	Noviembre	2023-11-17T00:00:00	2024-11-06T16:00:00	8	Radiación solar	62
61577	7	Sololá	701	Sololá	3	Barraneche	11	Noviembre	2023-11-17T00:00:00	2024-11-06T17:00:00	2	Temperatura media	15.5
61578	7	Sololá	701	Sololá	3	Barraneche	11	Noviembre	2023-11-17T00:00:00	2024-11-06T17:00:00	4	Temperatura máxima	15.5
61579	7	Sololá	701	Sololá	3	Barraneche	11	Noviembre	2023-11-17T00:00:00	2024-11-06T17:00:00	3	Temperatura mínima	15
61580	7	Sololá	701	Sololá	3	Barraneche	11	Noviembre	2023-11-17T00:00:00	2024-11-06T17:00:00	5	Humedad	69
61581	7	Sololá	701	Sololá	3	Barraneche	11	Noviembre	2023-11-17T00:00:00	2024-11-06T17:00:00	6	Velocidad del viento	4.8
61582	7	Sololá	701	Sololá	3	Barraneche	11	Noviembre	2023-11-17T00:00:00	2024-11-06T17:00:00	7	Dirección del viento	4.83
61583	7	Sololá	701	Sololá	3	Barraneche	11	Noviembre	2023-11-17T00:00:00	2024-11-06T17:00:00	1	Precipitación	0
61584	7	Sololá	701	Sololá	3	Barraneche	11	Noviembre	2023-11-17T00:00:00	2024-11-06T17:00:00	8	Radiación solar	39
61585	7	Sololá	701	Sololá	3	Barraneche	11	Noviembre	2023-11-17T00:00:00	2024-11-06T18:00:00	2	Temperatura media	14.2
61586	7	Sololá	701	Sololá	3	Barraneche	11	Noviembre	2023-11-17T00:00:00	2024-11-06T18:00:00	4	Temperatura máxima	15.6
61587	7	Sololá	701	Sololá	3	Barraneche	11	Noviembre	2023-11-17T00:00:00	2024-11-06T18:00:00	3	Temperatura mínima	14.2
61588	7	Sololá	701	Sololá	3	Barraneche	11	Noviembre	2023-11-17T00:00:00	2024-11-06T18:00:00	5	Humedad	74
61589	7	Sololá	701	Sololá	3	Barraneche	11	Noviembre	2023-11-17T00:00:00	2024-11-06T18:00:00	6	Velocidad del viento	3.2
61590	7	Sololá	701	Sololá	3	Barraneche	11	Noviembre	2023-11-17T00:00:00	2024-11-06T18:00:00	7	Dirección del viento	3.22
61591	7	Sololá	701	Sololá	3	Barraneche	11	Noviembre	2023-11-17T00:00:00	2024-11-06T18:00:00	1	Precipitación	0
61592	7	Sololá	701	Sololá	3	Barraneche	11	Noviembre	2023-11-17T00:00:00	2024-11-06T18:00:00	8	Radiación solar	12
61593	7	Sololá	701	Sololá	3	Barraneche	11	Noviembre	2023-11-17T00:00:00	2024-11-06T19:00:00	2	Temperatura media	13.1
61594	7	Sololá	701	Sololá	3	Barraneche	11	Noviembre	2023-11-17T00:00:00	2024-11-06T19:00:00	4	Temperatura máxima	14.2
61595	7	Sololá	701	Sololá	3	Barraneche	11	Noviembre	2023-11-17T00:00:00	2024-11-06T19:00:00	3	Temperatura mínima	13.1
61596	7	Sololá	701	Sololá	3	Barraneche	11	Noviembre	2023-11-17T00:00:00	2024-11-06T19:00:00	5	Humedad	76
61597	7	Sololá	701	Sololá	3	Barraneche	11	Noviembre	2023-11-17T00:00:00	2024-11-06T19:00:00	6	Velocidad del viento	3.2
61598	7	Sololá	701	Sololá	3	Barraneche	11	Noviembre	2023-11-17T00:00:00	2024-11-06T19:00:00	7	Dirección del viento	3.22
61599	7	Sololá	701	Sololá	3	Barraneche	11	Noviembre	2023-11-17T00:00:00	2024-11-06T19:00:00	1	Precipitación	0
61600	7	Sololá	701	Sololá	3	Barraneche	11	Noviembre	2023-11-17T00:00:00	2024-11-06T19:00:00	8	Radiación solar	0
61601	7	Sololá	701	Sololá	3	Barraneche	11	Noviembre	2023-11-17T00:00:00	2024-11-06T20:00:00	2	Temperatura media	14
61602	7	Sololá	701	Sololá	3	Barraneche	11	Noviembre	2023-11-17T00:00:00	2024-11-06T20:00:00	4	Temperatura máxima	14
61603	7	Sololá	701	Sololá	3	Barraneche	11	Noviembre	2023-11-17T00:00:00	2024-11-06T20:00:00	3	Temperatura mínima	13.1
61604	7	Sololá	701	Sololá	3	Barraneche	11	Noviembre	2023-11-17T00:00:00	2024-11-06T20:00:00	5	Humedad	75
61605	7	Sololá	701	Sololá	3	Barraneche	11	Noviembre	2023-11-17T00:00:00	2024-11-06T20:00:00	6	Velocidad del viento	1.6
61606	7	Sololá	701	Sololá	3	Barraneche	11	Noviembre	2023-11-17T00:00:00	2024-11-06T20:00:00	7	Dirección del viento	1.61
61607	7	Sololá	701	Sololá	3	Barraneche	11	Noviembre	2023-11-17T00:00:00	2024-11-06T20:00:00	1	Precipitación	0
61608	7	Sololá	701	Sololá	3	Barraneche	11	Noviembre	2023-11-17T00:00:00	2024-11-06T20:00:00	8	Radiación solar	0
61609	7	Sololá	701	Sololá	3	Barraneche	11	Noviembre	2023-11-17T00:00:00	2024-11-06T21:00:00	2	Temperatura media	14.2
61610	7	Sololá	701	Sololá	3	Barraneche	11	Noviembre	2023-11-17T00:00:00	2024-11-06T21:00:00	4	Temperatura máxima	14.3
61611	7	Sololá	701	Sololá	3	Barraneche	11	Noviembre	2023-11-17T00:00:00	2024-11-06T21:00:00	3	Temperatura mínima	13.9
61612	7	Sololá	701	Sololá	3	Barraneche	11	Noviembre	2023-11-17T00:00:00	2024-11-06T21:00:00	5	Humedad	76
61613	7	Sololá	701	Sololá	3	Barraneche	11	Noviembre	2023-11-17T00:00:00	2024-11-06T21:00:00	6	Velocidad del viento	1.6
61614	7	Sololá	701	Sololá	3	Barraneche	11	Noviembre	2023-11-17T00:00:00	2024-11-06T21:00:00	7	Dirección del viento	1.61
61615	7	Sololá	701	Sololá	3	Barraneche	11	Noviembre	2023-11-17T00:00:00	2024-11-06T21:00:00	1	Precipitación	0
61616	7	Sololá	701	Sololá	3	Barraneche	11	Noviembre	2023-11-17T00:00:00	2024-11-06T21:00:00	8	Radiación solar	0
61617	7	Sololá	701	Sololá	3	Barraneche	11	Noviembre	2023-11-17T00:00:00	2024-11-06T22:00:00	2	Temperatura media	13.9
61618	7	Sololá	701	Sololá	3	Barraneche	11	Noviembre	2023-11-17T00:00:00	2024-11-06T22:00:00	4	Temperatura máxima	14.2
61619	7	Sololá	701	Sololá	3	Barraneche	11	Noviembre	2023-11-17T00:00:00	2024-11-06T22:00:00	3	Temperatura mínima	13.8
61620	7	Sololá	701	Sololá	3	Barraneche	11	Noviembre	2023-11-17T00:00:00	2024-11-06T22:00:00	5	Humedad	85
61621	7	Sololá	701	Sololá	3	Barraneche	11	Noviembre	2023-11-17T00:00:00	2024-11-06T22:00:00	6	Velocidad del viento	3.2
61622	7	Sololá	701	Sololá	3	Barraneche	11	Noviembre	2023-11-17T00:00:00	2024-11-06T22:00:00	7	Dirección del viento	3.22
61623	7	Sololá	701	Sololá	3	Barraneche	11	Noviembre	2023-11-17T00:00:00	2024-11-06T22:00:00	1	Precipitación	0
61624	7	Sololá	701	Sololá	3	Barraneche	11	Noviembre	2023-11-17T00:00:00	2024-11-06T22:00:00	8	Radiación solar	0
61625	7	Sololá	701	Sololá	3	Barraneche	11	Noviembre	2023-11-17T00:00:00	2024-11-06T23:00:00	2	Temperatura media	13.8
61626	7	Sololá	701	Sololá	3	Barraneche	11	Noviembre	2023-11-17T00:00:00	2024-11-06T23:00:00	4	Temperatura máxima	13.9
61627	7	Sololá	701	Sololá	3	Barraneche	11	Noviembre	2023-11-17T00:00:00	2024-11-06T23:00:00	3	Temperatura mínima	13.8
61628	7	Sololá	701	Sololá	3	Barraneche	11	Noviembre	2023-11-17T00:00:00	2024-11-06T23:00:00	5	Humedad	85
61629	7	Sololá	701	Sololá	3	Barraneche	11	Noviembre	2023-11-17T00:00:00	2024-11-06T23:00:00	6	Velocidad del viento	1.6
61630	7	Sololá	701	Sololá	3	Barraneche	11	Noviembre	2023-11-17T00:00:00	2024-11-06T23:00:00	7	Dirección del viento	1.61
61631	7	Sololá	701	Sololá	3	Barraneche	11	Noviembre	2023-11-17T00:00:00	2024-11-06T23:00:00	1	Precipitación	0.2
61632	7	Sololá	701	Sololá	3	Barraneche	11	Noviembre	2023-11-17T00:00:00	2024-11-06T23:00:00	8	Radiación solar	0
61633	7	Sololá	701	Sololá	3	Barraneche	11	Noviembre	2023-11-18T00:00:00	2024-11-06T00:00:00	2	Temperatura media	13.7
61634	7	Sololá	701	Sololá	3	Barraneche	11	Noviembre	2023-11-18T00:00:00	2024-11-06T00:00:00	4	Temperatura máxima	13.8
61635	7	Sololá	701	Sololá	3	Barraneche	11	Noviembre	2023-11-18T00:00:00	2024-11-06T00:00:00	3	Temperatura mínima	13.7
61636	7	Sololá	701	Sololá	3	Barraneche	11	Noviembre	2023-11-18T00:00:00	2024-11-06T00:00:00	5	Humedad	86
61637	7	Sololá	701	Sololá	3	Barraneche	11	Noviembre	2023-11-18T00:00:00	2024-11-06T00:00:00	6	Velocidad del viento	1.6
61638	7	Sololá	701	Sololá	3	Barraneche	11	Noviembre	2023-11-18T00:00:00	2024-11-06T00:00:00	7	Dirección del viento	1.61
61639	7	Sololá	701	Sololá	3	Barraneche	11	Noviembre	2023-11-18T00:00:00	2024-11-06T00:00:00	1	Precipitación	0
61640	7	Sololá	701	Sololá	3	Barraneche	11	Noviembre	2023-11-18T00:00:00	2024-11-06T00:00:00	8	Radiación solar	0
61641	7	Sololá	701	Sololá	3	Barraneche	11	Noviembre	2023-11-18T00:00:00	2024-11-06T01:00:00	2	Temperatura media	13.7
61642	7	Sololá	701	Sololá	3	Barraneche	11	Noviembre	2023-11-18T00:00:00	2024-11-06T01:00:00	4	Temperatura máxima	13.8
61643	7	Sololá	701	Sololá	3	Barraneche	11	Noviembre	2023-11-18T00:00:00	2024-11-06T01:00:00	3	Temperatura mínima	13.6
61644	7	Sololá	701	Sololá	3	Barraneche	11	Noviembre	2023-11-18T00:00:00	2024-11-06T01:00:00	5	Humedad	86
61645	7	Sololá	701	Sololá	3	Barraneche	11	Noviembre	2023-11-18T00:00:00	2024-11-06T01:00:00	6	Velocidad del viento	0
61646	7	Sololá	701	Sololá	3	Barraneche	11	Noviembre	2023-11-18T00:00:00	2024-11-06T01:00:00	7	Dirección del viento	0
61647	7	Sololá	701	Sololá	3	Barraneche	11	Noviembre	2023-11-18T00:00:00	2024-11-06T01:00:00	1	Precipitación	0
61648	7	Sololá	701	Sololá	3	Barraneche	11	Noviembre	2023-11-18T00:00:00	2024-11-06T01:00:00	8	Radiación solar	0
61649	7	Sololá	701	Sololá	3	Barraneche	11	Noviembre	2023-11-18T00:00:00	2024-11-06T02:00:00	2	Temperatura media	13.6
61650	7	Sololá	701	Sololá	3	Barraneche	11	Noviembre	2023-11-18T00:00:00	2024-11-06T02:00:00	4	Temperatura máxima	13.7
61651	7	Sololá	701	Sololá	3	Barraneche	11	Noviembre	2023-11-18T00:00:00	2024-11-06T02:00:00	3	Temperatura mínima	13.6
61652	7	Sololá	701	Sololá	3	Barraneche	11	Noviembre	2023-11-18T00:00:00	2024-11-06T02:00:00	5	Humedad	86
61653	7	Sololá	701	Sololá	3	Barraneche	11	Noviembre	2023-11-18T00:00:00	2024-11-06T02:00:00	6	Velocidad del viento	1.6
61654	7	Sololá	701	Sololá	3	Barraneche	11	Noviembre	2023-11-18T00:00:00	2024-11-06T02:00:00	7	Dirección del viento	1.61
61655	7	Sololá	701	Sololá	3	Barraneche	11	Noviembre	2023-11-18T00:00:00	2024-11-06T02:00:00	1	Precipitación	0
61656	7	Sololá	701	Sololá	3	Barraneche	11	Noviembre	2023-11-18T00:00:00	2024-11-06T02:00:00	8	Radiación solar	0
61657	7	Sololá	701	Sololá	3	Barraneche	11	Noviembre	2023-11-18T00:00:00	2024-11-06T03:00:00	2	Temperatura media	13.3
61658	7	Sololá	701	Sololá	3	Barraneche	11	Noviembre	2023-11-18T00:00:00	2024-11-06T03:00:00	4	Temperatura máxima	13.7
61659	7	Sololá	701	Sololá	3	Barraneche	11	Noviembre	2023-11-18T00:00:00	2024-11-06T03:00:00	3	Temperatura mínima	13.2
61660	7	Sololá	701	Sololá	3	Barraneche	11	Noviembre	2023-11-18T00:00:00	2024-11-06T03:00:00	5	Humedad	85
61661	7	Sololá	701	Sololá	3	Barraneche	11	Noviembre	2023-11-18T00:00:00	2024-11-06T03:00:00	6	Velocidad del viento	1.6
61662	7	Sololá	701	Sololá	3	Barraneche	11	Noviembre	2023-11-18T00:00:00	2024-11-06T03:00:00	7	Dirección del viento	1.61
61663	7	Sololá	701	Sololá	3	Barraneche	11	Noviembre	2023-11-18T00:00:00	2024-11-06T03:00:00	1	Precipitación	0
61664	7	Sololá	701	Sololá	3	Barraneche	11	Noviembre	2023-11-18T00:00:00	2024-11-06T03:00:00	8	Radiación solar	0
61665	7	Sololá	701	Sololá	3	Barraneche	11	Noviembre	2023-11-18T00:00:00	2024-11-06T04:00:00	2	Temperatura media	12.7
61666	7	Sololá	701	Sololá	3	Barraneche	11	Noviembre	2023-11-18T00:00:00	2024-11-06T04:00:00	4	Temperatura máxima	13.4
61667	7	Sololá	701	Sololá	3	Barraneche	11	Noviembre	2023-11-18T00:00:00	2024-11-06T04:00:00	3	Temperatura mínima	12.7
61668	7	Sololá	701	Sololá	3	Barraneche	11	Noviembre	2023-11-18T00:00:00	2024-11-06T04:00:00	5	Humedad	83
61669	7	Sololá	701	Sololá	3	Barraneche	11	Noviembre	2023-11-18T00:00:00	2024-11-06T04:00:00	6	Velocidad del viento	1.6
61670	7	Sololá	701	Sololá	3	Barraneche	11	Noviembre	2023-11-18T00:00:00	2024-11-06T04:00:00	7	Dirección del viento	1.61
61671	7	Sololá	701	Sololá	3	Barraneche	11	Noviembre	2023-11-18T00:00:00	2024-11-06T04:00:00	1	Precipitación	0
61672	7	Sololá	701	Sololá	3	Barraneche	11	Noviembre	2023-11-18T00:00:00	2024-11-06T04:00:00	8	Radiación solar	0
61673	7	Sololá	701	Sololá	3	Barraneche	11	Noviembre	2023-11-18T00:00:00	2024-11-06T05:00:00	2	Temperatura media	10.5
61674	7	Sololá	701	Sololá	3	Barraneche	11	Noviembre	2023-11-18T00:00:00	2024-11-06T05:00:00	4	Temperatura máxima	12.7
61675	7	Sololá	701	Sololá	3	Barraneche	11	Noviembre	2023-11-18T00:00:00	2024-11-06T05:00:00	3	Temperatura mínima	10.5
61676	7	Sololá	701	Sololá	3	Barraneche	11	Noviembre	2023-11-18T00:00:00	2024-11-06T05:00:00	5	Humedad	83
61677	7	Sololá	701	Sololá	3	Barraneche	11	Noviembre	2023-11-18T00:00:00	2024-11-06T05:00:00	6	Velocidad del viento	3.2
61678	7	Sololá	701	Sololá	3	Barraneche	11	Noviembre	2023-11-18T00:00:00	2024-11-06T05:00:00	7	Dirección del viento	3.22
61679	7	Sololá	701	Sololá	3	Barraneche	11	Noviembre	2023-11-18T00:00:00	2024-11-06T05:00:00	1	Precipitación	0
61680	7	Sololá	701	Sololá	3	Barraneche	11	Noviembre	2023-11-18T00:00:00	2024-11-06T05:00:00	8	Radiación solar	0
61681	7	Sololá	701	Sololá	3	Barraneche	11	Noviembre	2023-11-18T00:00:00	2024-11-06T06:00:00	2	Temperatura media	10.1
61682	7	Sololá	701	Sololá	3	Barraneche	11	Noviembre	2023-11-18T00:00:00	2024-11-06T06:00:00	4	Temperatura máxima	10.7
61683	7	Sololá	701	Sololá	3	Barraneche	11	Noviembre	2023-11-18T00:00:00	2024-11-06T06:00:00	3	Temperatura mínima	10
61684	7	Sololá	701	Sololá	3	Barraneche	11	Noviembre	2023-11-18T00:00:00	2024-11-06T06:00:00	5	Humedad	84
61685	7	Sololá	701	Sololá	3	Barraneche	11	Noviembre	2023-11-18T00:00:00	2024-11-06T06:00:00	6	Velocidad del viento	3.2
61686	7	Sololá	701	Sololá	3	Barraneche	11	Noviembre	2023-11-18T00:00:00	2024-11-06T06:00:00	7	Dirección del viento	3.22
61687	7	Sololá	701	Sololá	3	Barraneche	11	Noviembre	2023-11-18T00:00:00	2024-11-06T06:00:00	1	Precipitación	0
61688	7	Sololá	701	Sololá	3	Barraneche	11	Noviembre	2023-11-18T00:00:00	2024-11-06T06:00:00	8	Radiación solar	0
61689	7	Sololá	701	Sololá	3	Barraneche	11	Noviembre	2023-11-18T00:00:00	2024-11-06T07:00:00	2	Temperatura media	11.2
61690	7	Sololá	701	Sololá	3	Barraneche	11	Noviembre	2023-11-18T00:00:00	2024-11-06T07:00:00	4	Temperatura máxima	11.2
61691	7	Sololá	701	Sololá	3	Barraneche	11	Noviembre	2023-11-18T00:00:00	2024-11-06T07:00:00	3	Temperatura mínima	9.9
61692	7	Sololá	701	Sololá	3	Barraneche	11	Noviembre	2023-11-18T00:00:00	2024-11-06T07:00:00	5	Humedad	86
61693	7	Sololá	701	Sololá	3	Barraneche	11	Noviembre	2023-11-18T00:00:00	2024-11-06T07:00:00	6	Velocidad del viento	1.6
61694	7	Sololá	701	Sololá	3	Barraneche	11	Noviembre	2023-11-18T00:00:00	2024-11-06T07:00:00	7	Dirección del viento	1.61
61695	7	Sololá	701	Sololá	3	Barraneche	11	Noviembre	2023-11-18T00:00:00	2024-11-06T07:00:00	1	Precipitación	0
61696	7	Sololá	701	Sololá	3	Barraneche	11	Noviembre	2023-11-18T00:00:00	2024-11-06T07:00:00	8	Radiación solar	17
61697	7	Sololá	701	Sololá	3	Barraneche	11	Noviembre	2023-11-18T00:00:00	2024-11-06T08:00:00	2	Temperatura media	12.2
61698	7	Sololá	701	Sololá	3	Barraneche	11	Noviembre	2023-11-18T00:00:00	2024-11-06T08:00:00	4	Temperatura máxima	12.2
61699	7	Sololá	701	Sololá	3	Barraneche	11	Noviembre	2023-11-18T00:00:00	2024-11-06T08:00:00	3	Temperatura mínima	11.2
61700	7	Sololá	701	Sololá	3	Barraneche	11	Noviembre	2023-11-18T00:00:00	2024-11-06T08:00:00	5	Humedad	82
61701	7	Sololá	701	Sololá	3	Barraneche	11	Noviembre	2023-11-18T00:00:00	2024-11-06T08:00:00	6	Velocidad del viento	1.6
61702	7	Sololá	701	Sololá	3	Barraneche	11	Noviembre	2023-11-18T00:00:00	2024-11-06T08:00:00	7	Dirección del viento	1.61
61703	7	Sololá	701	Sololá	3	Barraneche	11	Noviembre	2023-11-18T00:00:00	2024-11-06T08:00:00	1	Precipitación	0
61704	7	Sololá	701	Sololá	3	Barraneche	11	Noviembre	2023-11-18T00:00:00	2024-11-06T08:00:00	8	Radiación solar	119
61705	7	Sololá	701	Sololá	3	Barraneche	11	Noviembre	2023-11-18T00:00:00	2024-11-06T09:00:00	2	Temperatura media	13.3
61706	7	Sololá	701	Sololá	3	Barraneche	11	Noviembre	2023-11-18T00:00:00	2024-11-06T09:00:00	4	Temperatura máxima	13.3
61707	7	Sololá	701	Sololá	3	Barraneche	11	Noviembre	2023-11-18T00:00:00	2024-11-06T09:00:00	3	Temperatura mínima	12.2
61708	7	Sololá	701	Sololá	3	Barraneche	11	Noviembre	2023-11-18T00:00:00	2024-11-06T09:00:00	5	Humedad	80
61709	7	Sololá	701	Sololá	3	Barraneche	11	Noviembre	2023-11-18T00:00:00	2024-11-06T09:00:00	6	Velocidad del viento	1.6
61710	7	Sololá	701	Sololá	3	Barraneche	11	Noviembre	2023-11-18T00:00:00	2024-11-06T09:00:00	7	Dirección del viento	1.61
61711	7	Sololá	701	Sololá	3	Barraneche	11	Noviembre	2023-11-18T00:00:00	2024-11-06T09:00:00	1	Precipitación	0
61712	7	Sololá	701	Sololá	3	Barraneche	11	Noviembre	2023-11-18T00:00:00	2024-11-06T09:00:00	8	Radiación solar	214
61713	7	Sololá	701	Sololá	3	Barraneche	11	Noviembre	2023-11-18T00:00:00	2024-11-06T10:00:00	2	Temperatura media	16.2
61714	7	Sololá	701	Sololá	3	Barraneche	11	Noviembre	2023-11-18T00:00:00	2024-11-06T10:00:00	4	Temperatura máxima	16.4
61715	7	Sololá	701	Sololá	3	Barraneche	11	Noviembre	2023-11-18T00:00:00	2024-11-06T10:00:00	3	Temperatura mínima	13.2
61716	7	Sololá	701	Sololá	3	Barraneche	11	Noviembre	2023-11-18T00:00:00	2024-11-06T10:00:00	5	Humedad	74
61717	7	Sololá	701	Sololá	3	Barraneche	11	Noviembre	2023-11-18T00:00:00	2024-11-06T10:00:00	6	Velocidad del viento	4.8
61718	7	Sololá	701	Sololá	3	Barraneche	11	Noviembre	2023-11-18T00:00:00	2024-11-06T10:00:00	7	Dirección del viento	4.83
61719	7	Sololá	701	Sololá	3	Barraneche	11	Noviembre	2023-11-18T00:00:00	2024-11-06T10:00:00	1	Precipitación	0
61720	7	Sololá	701	Sololá	3	Barraneche	11	Noviembre	2023-11-18T00:00:00	2024-11-06T10:00:00	8	Radiación solar	554
61721	7	Sololá	701	Sololá	3	Barraneche	11	Noviembre	2023-11-18T00:00:00	2024-11-06T11:00:00	2	Temperatura media	17.2
61722	7	Sololá	701	Sololá	3	Barraneche	11	Noviembre	2023-11-18T00:00:00	2024-11-06T11:00:00	4	Temperatura máxima	17.3
61723	7	Sololá	701	Sololá	3	Barraneche	11	Noviembre	2023-11-18T00:00:00	2024-11-06T11:00:00	3	Temperatura mínima	16.2
61724	7	Sololá	701	Sololá	3	Barraneche	11	Noviembre	2023-11-18T00:00:00	2024-11-06T11:00:00	5	Humedad	73
61725	7	Sololá	701	Sololá	3	Barraneche	11	Noviembre	2023-11-18T00:00:00	2024-11-06T11:00:00	6	Velocidad del viento	8
61726	7	Sololá	701	Sololá	3	Barraneche	11	Noviembre	2023-11-18T00:00:00	2024-11-06T11:00:00	7	Dirección del viento	8.05
61727	7	Sololá	701	Sololá	3	Barraneche	11	Noviembre	2023-11-18T00:00:00	2024-11-06T11:00:00	1	Precipitación	0
61728	7	Sololá	701	Sololá	3	Barraneche	11	Noviembre	2023-11-18T00:00:00	2024-11-06T11:00:00	8	Radiación solar	829
61729	7	Sololá	701	Sololá	3	Barraneche	11	Noviembre	2023-11-18T00:00:00	2024-11-06T12:00:00	2	Temperatura media	17.4
61730	7	Sololá	701	Sololá	3	Barraneche	11	Noviembre	2023-11-18T00:00:00	2024-11-06T12:00:00	4	Temperatura máxima	17.9
61731	7	Sololá	701	Sololá	3	Barraneche	11	Noviembre	2023-11-18T00:00:00	2024-11-06T12:00:00	3	Temperatura mínima	17.1
61732	7	Sololá	701	Sololá	3	Barraneche	11	Noviembre	2023-11-18T00:00:00	2024-11-06T12:00:00	5	Humedad	70
61733	7	Sololá	701	Sololá	3	Barraneche	11	Noviembre	2023-11-18T00:00:00	2024-11-06T12:00:00	6	Velocidad del viento	9.7
61734	7	Sololá	701	Sololá	3	Barraneche	11	Noviembre	2023-11-18T00:00:00	2024-11-06T12:00:00	7	Dirección del viento	9.66
61735	7	Sololá	701	Sololá	3	Barraneche	11	Noviembre	2023-11-18T00:00:00	2024-11-06T12:00:00	1	Precipitación	0
61736	7	Sololá	701	Sololá	3	Barraneche	11	Noviembre	2023-11-18T00:00:00	2024-11-06T12:00:00	8	Radiación solar	846
61737	7	Sololá	701	Sololá	3	Barraneche	11	Noviembre	2023-11-18T00:00:00	2024-11-06T13:00:00	2	Temperatura media	18.6
61738	7	Sololá	701	Sololá	3	Barraneche	11	Noviembre	2023-11-18T00:00:00	2024-11-06T13:00:00	4	Temperatura máxima	18.7
61739	7	Sololá	701	Sololá	3	Barraneche	11	Noviembre	2023-11-18T00:00:00	2024-11-06T13:00:00	3	Temperatura mínima	17.4
61740	7	Sololá	701	Sololá	3	Barraneche	11	Noviembre	2023-11-18T00:00:00	2024-11-06T13:00:00	5	Humedad	67
61741	7	Sololá	701	Sololá	3	Barraneche	11	Noviembre	2023-11-18T00:00:00	2024-11-06T13:00:00	6	Velocidad del viento	9.7
61742	7	Sololá	701	Sololá	3	Barraneche	11	Noviembre	2023-11-18T00:00:00	2024-11-06T13:00:00	7	Dirección del viento	9.66
61743	7	Sololá	701	Sololá	3	Barraneche	11	Noviembre	2023-11-18T00:00:00	2024-11-06T13:00:00	1	Precipitación	0
61744	7	Sololá	701	Sololá	3	Barraneche	11	Noviembre	2023-11-18T00:00:00	2024-11-06T13:00:00	8	Radiación solar	1004
61745	7	Sololá	701	Sololá	3	Barraneche	11	Noviembre	2023-11-18T00:00:00	2024-11-06T14:00:00	2	Temperatura media	18.1
61746	7	Sololá	701	Sololá	3	Barraneche	11	Noviembre	2023-11-18T00:00:00	2024-11-06T14:00:00	4	Temperatura máxima	18.8
61747	7	Sololá	701	Sololá	3	Barraneche	11	Noviembre	2023-11-18T00:00:00	2024-11-06T14:00:00	3	Temperatura mínima	17.9
61748	7	Sololá	701	Sololá	3	Barraneche	11	Noviembre	2023-11-18T00:00:00	2024-11-06T14:00:00	5	Humedad	71
61749	7	Sololá	701	Sololá	3	Barraneche	11	Noviembre	2023-11-18T00:00:00	2024-11-06T14:00:00	6	Velocidad del viento	11.3
61750	7	Sololá	701	Sololá	3	Barraneche	11	Noviembre	2023-11-18T00:00:00	2024-11-06T14:00:00	7	Dirección del viento	11.27
61751	7	Sololá	701	Sololá	3	Barraneche	11	Noviembre	2023-11-18T00:00:00	2024-11-06T14:00:00	1	Precipitación	0
61752	7	Sololá	701	Sololá	3	Barraneche	11	Noviembre	2023-11-18T00:00:00	2024-11-06T14:00:00	8	Radiación solar	875
61753	7	Sololá	701	Sololá	3	Barraneche	11	Noviembre	2023-11-18T00:00:00	2024-11-06T15:00:00	2	Temperatura media	18.7
61754	7	Sololá	701	Sololá	3	Barraneche	11	Noviembre	2023-11-18T00:00:00	2024-11-06T15:00:00	4	Temperatura máxima	18.8
61755	7	Sololá	701	Sololá	3	Barraneche	11	Noviembre	2023-11-18T00:00:00	2024-11-06T15:00:00	3	Temperatura mínima	17.8
61756	7	Sololá	701	Sololá	3	Barraneche	11	Noviembre	2023-11-18T00:00:00	2024-11-06T15:00:00	5	Humedad	70
61757	7	Sololá	701	Sololá	3	Barraneche	11	Noviembre	2023-11-18T00:00:00	2024-11-06T15:00:00	6	Velocidad del viento	9.7
61758	7	Sololá	701	Sololá	3	Barraneche	11	Noviembre	2023-11-18T00:00:00	2024-11-06T15:00:00	7	Dirección del viento	9.66
61759	7	Sololá	701	Sololá	3	Barraneche	11	Noviembre	2023-11-18T00:00:00	2024-11-06T15:00:00	1	Precipitación	0
61760	7	Sololá	701	Sololá	3	Barraneche	11	Noviembre	2023-11-18T00:00:00	2024-11-06T15:00:00	8	Radiación solar	752
61761	7	Sololá	701	Sololá	3	Barraneche	11	Noviembre	2023-11-18T00:00:00	2024-11-06T16:00:00	2	Temperatura media	17.1
61762	7	Sololá	701	Sololá	3	Barraneche	11	Noviembre	2023-11-18T00:00:00	2024-11-06T16:00:00	4	Temperatura máxima	18.7
61763	7	Sololá	701	Sololá	3	Barraneche	11	Noviembre	2023-11-18T00:00:00	2024-11-06T16:00:00	3	Temperatura mínima	16.8
61764	7	Sololá	701	Sololá	3	Barraneche	11	Noviembre	2023-11-18T00:00:00	2024-11-06T16:00:00	5	Humedad	76
61765	7	Sololá	701	Sololá	3	Barraneche	11	Noviembre	2023-11-18T00:00:00	2024-11-06T16:00:00	6	Velocidad del viento	9.7
61766	7	Sololá	701	Sololá	3	Barraneche	11	Noviembre	2023-11-18T00:00:00	2024-11-06T16:00:00	7	Dirección del viento	9.66
61767	7	Sololá	701	Sololá	3	Barraneche	11	Noviembre	2023-11-18T00:00:00	2024-11-06T16:00:00	1	Precipitación	0
61768	7	Sololá	701	Sololá	3	Barraneche	11	Noviembre	2023-11-18T00:00:00	2024-11-06T16:00:00	8	Radiación solar	328
61769	7	Sololá	701	Sololá	3	Barraneche	11	Noviembre	2023-11-18T00:00:00	2024-11-06T17:00:00	2	Temperatura media	15.5
61770	7	Sololá	701	Sololá	3	Barraneche	11	Noviembre	2023-11-18T00:00:00	2024-11-06T17:00:00	4	Temperatura máxima	17.1
61771	7	Sololá	701	Sololá	3	Barraneche	11	Noviembre	2023-11-18T00:00:00	2024-11-06T17:00:00	3	Temperatura mínima	15.5
61772	7	Sololá	701	Sololá	3	Barraneche	11	Noviembre	2023-11-18T00:00:00	2024-11-06T17:00:00	5	Humedad	80
61773	7	Sololá	701	Sololá	3	Barraneche	11	Noviembre	2023-11-18T00:00:00	2024-11-06T17:00:00	6	Velocidad del viento	8
61774	7	Sololá	701	Sololá	3	Barraneche	11	Noviembre	2023-11-18T00:00:00	2024-11-06T17:00:00	7	Dirección del viento	8.05
61775	7	Sololá	701	Sololá	3	Barraneche	11	Noviembre	2023-11-18T00:00:00	2024-11-06T17:00:00	1	Precipitación	0
61776	7	Sololá	701	Sololá	3	Barraneche	11	Noviembre	2023-11-18T00:00:00	2024-11-06T17:00:00	8	Radiación solar	112
61777	7	Sololá	701	Sololá	3	Barraneche	11	Noviembre	2023-11-18T00:00:00	2024-11-06T18:00:00	2	Temperatura media	14.6
61778	7	Sololá	701	Sololá	3	Barraneche	11	Noviembre	2023-11-18T00:00:00	2024-11-06T18:00:00	4	Temperatura máxima	15.5
61779	7	Sololá	701	Sololá	3	Barraneche	11	Noviembre	2023-11-18T00:00:00	2024-11-06T18:00:00	3	Temperatura mínima	14.6
61780	7	Sololá	701	Sololá	3	Barraneche	11	Noviembre	2023-11-18T00:00:00	2024-11-06T18:00:00	5	Humedad	81
61781	7	Sololá	701	Sololá	3	Barraneche	11	Noviembre	2023-11-18T00:00:00	2024-11-06T18:00:00	6	Velocidad del viento	4.8
61782	7	Sololá	701	Sololá	3	Barraneche	11	Noviembre	2023-11-18T00:00:00	2024-11-06T18:00:00	7	Dirección del viento	4.83
61783	7	Sololá	701	Sololá	3	Barraneche	11	Noviembre	2023-11-18T00:00:00	2024-11-06T18:00:00	1	Precipitación	0
61784	7	Sololá	701	Sololá	3	Barraneche	11	Noviembre	2023-11-18T00:00:00	2024-11-06T18:00:00	8	Radiación solar	13
61785	7	Sololá	701	Sololá	3	Barraneche	11	Noviembre	2023-11-18T00:00:00	2024-11-06T19:00:00	2	Temperatura media	12.8
61786	7	Sololá	701	Sololá	3	Barraneche	11	Noviembre	2023-11-18T00:00:00	2024-11-06T19:00:00	4	Temperatura máxima	14.7
61787	7	Sololá	701	Sololá	3	Barraneche	11	Noviembre	2023-11-18T00:00:00	2024-11-06T19:00:00	3	Temperatura mínima	12.8
61788	7	Sololá	701	Sololá	3	Barraneche	11	Noviembre	2023-11-18T00:00:00	2024-11-06T19:00:00	5	Humedad	77
61789	7	Sololá	701	Sololá	3	Barraneche	11	Noviembre	2023-11-18T00:00:00	2024-11-06T19:00:00	6	Velocidad del viento	3.2
61790	7	Sololá	701	Sololá	3	Barraneche	11	Noviembre	2023-11-18T00:00:00	2024-11-06T19:00:00	7	Dirección del viento	3.22
61791	7	Sololá	701	Sololá	3	Barraneche	11	Noviembre	2023-11-18T00:00:00	2024-11-06T19:00:00	1	Precipitación	0
61792	7	Sololá	701	Sololá	3	Barraneche	11	Noviembre	2023-11-18T00:00:00	2024-11-06T19:00:00	8	Radiación solar	0
61793	7	Sololá	701	Sololá	3	Barraneche	11	Noviembre	2023-11-18T00:00:00	2024-11-06T20:00:00	2	Temperatura media	11.8
61794	7	Sololá	701	Sololá	3	Barraneche	11	Noviembre	2023-11-18T00:00:00	2024-11-06T20:00:00	4	Temperatura máxima	12.8
61795	7	Sololá	701	Sololá	3	Barraneche	11	Noviembre	2023-11-18T00:00:00	2024-11-06T20:00:00	3	Temperatura mínima	11.8
61796	7	Sololá	701	Sololá	3	Barraneche	11	Noviembre	2023-11-18T00:00:00	2024-11-06T20:00:00	5	Humedad	76
61797	7	Sololá	701	Sololá	3	Barraneche	11	Noviembre	2023-11-18T00:00:00	2024-11-06T20:00:00	6	Velocidad del viento	3.2
61798	7	Sololá	701	Sololá	3	Barraneche	11	Noviembre	2023-11-18T00:00:00	2024-11-06T20:00:00	7	Dirección del viento	3.22
61799	7	Sololá	701	Sololá	3	Barraneche	11	Noviembre	2023-11-18T00:00:00	2024-11-06T20:00:00	1	Precipitación	0
61800	7	Sololá	701	Sololá	3	Barraneche	11	Noviembre	2023-11-18T00:00:00	2024-11-06T20:00:00	8	Radiación solar	0
61801	7	Sololá	701	Sololá	3	Barraneche	11	Noviembre	2023-11-18T00:00:00	2024-11-06T21:00:00	2	Temperatura media	10.4
61802	7	Sololá	701	Sololá	3	Barraneche	11	Noviembre	2023-11-18T00:00:00	2024-11-06T21:00:00	4	Temperatura máxima	11.8
61803	7	Sololá	701	Sololá	3	Barraneche	11	Noviembre	2023-11-18T00:00:00	2024-11-06T21:00:00	3	Temperatura mínima	10.4
61804	7	Sololá	701	Sololá	3	Barraneche	11	Noviembre	2023-11-18T00:00:00	2024-11-06T21:00:00	5	Humedad	78
61805	7	Sololá	701	Sololá	3	Barraneche	11	Noviembre	2023-11-18T00:00:00	2024-11-06T21:00:00	6	Velocidad del viento	4.8
61806	7	Sololá	701	Sololá	3	Barraneche	11	Noviembre	2023-11-18T00:00:00	2024-11-06T21:00:00	7	Dirección del viento	4.83
61807	7	Sololá	701	Sololá	3	Barraneche	11	Noviembre	2023-11-18T00:00:00	2024-11-06T21:00:00	1	Precipitación	0
61808	7	Sololá	701	Sololá	3	Barraneche	11	Noviembre	2023-11-18T00:00:00	2024-11-06T21:00:00	8	Radiación solar	0
61809	7	Sololá	701	Sololá	3	Barraneche	11	Noviembre	2023-11-18T00:00:00	2024-11-06T22:00:00	2	Temperatura media	9.9
61810	7	Sololá	701	Sololá	3	Barraneche	11	Noviembre	2023-11-18T00:00:00	2024-11-06T22:00:00	4	Temperatura máxima	10.4
61811	7	Sololá	701	Sololá	3	Barraneche	11	Noviembre	2023-11-18T00:00:00	2024-11-06T22:00:00	3	Temperatura mínima	9.9
61812	7	Sololá	701	Sololá	3	Barraneche	11	Noviembre	2023-11-18T00:00:00	2024-11-06T22:00:00	5	Humedad	76
61813	7	Sololá	701	Sololá	3	Barraneche	11	Noviembre	2023-11-18T00:00:00	2024-11-06T22:00:00	6	Velocidad del viento	6.4
61814	7	Sololá	701	Sololá	3	Barraneche	11	Noviembre	2023-11-18T00:00:00	2024-11-06T22:00:00	7	Dirección del viento	6.44
61815	7	Sololá	701	Sololá	3	Barraneche	11	Noviembre	2023-11-18T00:00:00	2024-11-06T22:00:00	1	Precipitación	0
61816	7	Sololá	701	Sololá	3	Barraneche	11	Noviembre	2023-11-18T00:00:00	2024-11-06T22:00:00	8	Radiación solar	0
61817	7	Sololá	701	Sololá	3	Barraneche	11	Noviembre	2023-11-18T00:00:00	2024-11-06T23:00:00	2	Temperatura media	8.6
61818	7	Sololá	701	Sololá	3	Barraneche	11	Noviembre	2023-11-18T00:00:00	2024-11-06T23:00:00	4	Temperatura máxima	9.9
61819	7	Sololá	701	Sololá	3	Barraneche	11	Noviembre	2023-11-18T00:00:00	2024-11-06T23:00:00	3	Temperatura mínima	8.6
61820	7	Sololá	701	Sololá	3	Barraneche	11	Noviembre	2023-11-18T00:00:00	2024-11-06T23:00:00	5	Humedad	71
61821	7	Sololá	701	Sololá	3	Barraneche	11	Noviembre	2023-11-18T00:00:00	2024-11-06T23:00:00	6	Velocidad del viento	4.8
61822	7	Sololá	701	Sololá	3	Barraneche	11	Noviembre	2023-11-18T00:00:00	2024-11-06T23:00:00	7	Dirección del viento	4.83
61823	7	Sololá	701	Sololá	3	Barraneche	11	Noviembre	2023-11-18T00:00:00	2024-11-06T23:00:00	1	Precipitación	0
61824	7	Sololá	701	Sololá	3	Barraneche	11	Noviembre	2023-11-18T00:00:00	2024-11-06T23:00:00	8	Radiación solar	0
61825	7	Sololá	701	Sololá	3	Barraneche	11	Noviembre	2023-11-19T00:00:00	2024-11-06T00:00:00	2	Temperatura media	8.4
61826	7	Sololá	701	Sololá	3	Barraneche	11	Noviembre	2023-11-19T00:00:00	2024-11-06T00:00:00	4	Temperatura máxima	8.9
61827	7	Sololá	701	Sololá	3	Barraneche	11	Noviembre	2023-11-19T00:00:00	2024-11-06T00:00:00	3	Temperatura mínima	8.2
61828	7	Sololá	701	Sololá	3	Barraneche	11	Noviembre	2023-11-19T00:00:00	2024-11-06T00:00:00	5	Humedad	67
61829	7	Sololá	701	Sololá	3	Barraneche	11	Noviembre	2023-11-19T00:00:00	2024-11-06T00:00:00	6	Velocidad del viento	8
61830	7	Sololá	701	Sololá	3	Barraneche	11	Noviembre	2023-11-19T00:00:00	2024-11-06T00:00:00	7	Dirección del viento	8.05
61831	7	Sololá	701	Sololá	3	Barraneche	11	Noviembre	2023-11-19T00:00:00	2024-11-06T00:00:00	1	Precipitación	0
61832	7	Sololá	701	Sololá	3	Barraneche	11	Noviembre	2023-11-19T00:00:00	2024-11-06T00:00:00	8	Radiación solar	0
61833	7	Sololá	701	Sololá	3	Barraneche	11	Noviembre	2023-11-19T00:00:00	2024-11-06T01:00:00	2	Temperatura media	8.9
61834	7	Sololá	701	Sololá	3	Barraneche	11	Noviembre	2023-11-19T00:00:00	2024-11-06T01:00:00	4	Temperatura máxima	9
61835	7	Sololá	701	Sololá	3	Barraneche	11	Noviembre	2023-11-19T00:00:00	2024-11-06T01:00:00	3	Temperatura mínima	8.3
61836	7	Sololá	701	Sololá	3	Barraneche	11	Noviembre	2023-11-19T00:00:00	2024-11-06T01:00:00	5	Humedad	65
61837	7	Sololá	701	Sololá	3	Barraneche	11	Noviembre	2023-11-19T00:00:00	2024-11-06T01:00:00	6	Velocidad del viento	6.4
61838	7	Sololá	701	Sololá	3	Barraneche	11	Noviembre	2023-11-19T00:00:00	2024-11-06T01:00:00	7	Dirección del viento	6.44
61839	7	Sololá	701	Sololá	3	Barraneche	11	Noviembre	2023-11-19T00:00:00	2024-11-06T01:00:00	1	Precipitación	0
61840	7	Sololá	701	Sololá	3	Barraneche	11	Noviembre	2023-11-19T00:00:00	2024-11-06T01:00:00	8	Radiación solar	0
61841	7	Sololá	701	Sololá	3	Barraneche	11	Noviembre	2023-11-19T00:00:00	2024-11-06T02:00:00	2	Temperatura media	9.4
61842	7	Sololá	701	Sololá	3	Barraneche	11	Noviembre	2023-11-19T00:00:00	2024-11-06T02:00:00	4	Temperatura máxima	9.5
61843	7	Sololá	701	Sololá	3	Barraneche	11	Noviembre	2023-11-19T00:00:00	2024-11-06T02:00:00	3	Temperatura mínima	8.7
61844	7	Sololá	701	Sololá	3	Barraneche	11	Noviembre	2023-11-19T00:00:00	2024-11-06T02:00:00	5	Humedad	68
61845	7	Sololá	701	Sololá	3	Barraneche	11	Noviembre	2023-11-19T00:00:00	2024-11-06T02:00:00	6	Velocidad del viento	6.4
61846	7	Sololá	701	Sololá	3	Barraneche	11	Noviembre	2023-11-19T00:00:00	2024-11-06T02:00:00	7	Dirección del viento	6.44
61847	7	Sololá	701	Sololá	3	Barraneche	11	Noviembre	2023-11-19T00:00:00	2024-11-06T02:00:00	1	Precipitación	0
61848	7	Sololá	701	Sololá	3	Barraneche	11	Noviembre	2023-11-19T00:00:00	2024-11-06T02:00:00	8	Radiación solar	0
61849	7	Sololá	701	Sololá	3	Barraneche	11	Noviembre	2023-11-19T00:00:00	2024-11-06T03:00:00	2	Temperatura media	9.3
61850	7	Sololá	701	Sololá	3	Barraneche	11	Noviembre	2023-11-19T00:00:00	2024-11-06T03:00:00	4	Temperatura máxima	9.4
61851	7	Sololá	701	Sololá	3	Barraneche	11	Noviembre	2023-11-19T00:00:00	2024-11-06T03:00:00	3	Temperatura mínima	8.8
61852	7	Sololá	701	Sololá	3	Barraneche	11	Noviembre	2023-11-19T00:00:00	2024-11-06T03:00:00	5	Humedad	61
61853	7	Sololá	701	Sololá	3	Barraneche	11	Noviembre	2023-11-19T00:00:00	2024-11-06T03:00:00	6	Velocidad del viento	9.7
61854	7	Sololá	701	Sololá	3	Barraneche	11	Noviembre	2023-11-19T00:00:00	2024-11-06T03:00:00	7	Dirección del viento	9.66
61855	7	Sololá	701	Sololá	3	Barraneche	11	Noviembre	2023-11-19T00:00:00	2024-11-06T03:00:00	1	Precipitación	0
61856	7	Sololá	701	Sololá	3	Barraneche	11	Noviembre	2023-11-19T00:00:00	2024-11-06T03:00:00	8	Radiación solar	0
61857	7	Sololá	701	Sololá	3	Barraneche	11	Noviembre	2023-11-19T00:00:00	2024-11-06T04:00:00	2	Temperatura media	8.8
61858	7	Sololá	701	Sololá	3	Barraneche	11	Noviembre	2023-11-19T00:00:00	2024-11-06T04:00:00	4	Temperatura máxima	9.3
61859	7	Sololá	701	Sololá	3	Barraneche	11	Noviembre	2023-11-19T00:00:00	2024-11-06T04:00:00	3	Temperatura mínima	8.2
61860	7	Sololá	701	Sololá	3	Barraneche	11	Noviembre	2023-11-19T00:00:00	2024-11-06T04:00:00	5	Humedad	46
61861	7	Sololá	701	Sololá	3	Barraneche	11	Noviembre	2023-11-19T00:00:00	2024-11-06T04:00:00	6	Velocidad del viento	11.3
61862	7	Sololá	701	Sololá	3	Barraneche	11	Noviembre	2023-11-19T00:00:00	2024-11-06T04:00:00	7	Dirección del viento	11.27
61863	7	Sololá	701	Sololá	3	Barraneche	11	Noviembre	2023-11-19T00:00:00	2024-11-06T04:00:00	1	Precipitación	0
61864	7	Sololá	701	Sololá	3	Barraneche	11	Noviembre	2023-11-19T00:00:00	2024-11-06T04:00:00	8	Radiación solar	0
61865	7	Sololá	701	Sololá	3	Barraneche	11	Noviembre	2023-11-19T00:00:00	2024-11-06T05:00:00	2	Temperatura media	8.1
61866	7	Sololá	701	Sololá	3	Barraneche	11	Noviembre	2023-11-19T00:00:00	2024-11-06T05:00:00	4	Temperatura máxima	8.8
61867	7	Sololá	701	Sololá	3	Barraneche	11	Noviembre	2023-11-19T00:00:00	2024-11-06T05:00:00	3	Temperatura mínima	8.1
61868	7	Sololá	701	Sololá	3	Barraneche	11	Noviembre	2023-11-19T00:00:00	2024-11-06T05:00:00	5	Humedad	46
61869	7	Sololá	701	Sololá	3	Barraneche	11	Noviembre	2023-11-19T00:00:00	2024-11-06T05:00:00	6	Velocidad del viento	8
61870	7	Sololá	701	Sololá	3	Barraneche	11	Noviembre	2023-11-19T00:00:00	2024-11-06T05:00:00	7	Dirección del viento	8.05
61871	7	Sololá	701	Sololá	3	Barraneche	11	Noviembre	2023-11-19T00:00:00	2024-11-06T05:00:00	1	Precipitación	0
61872	7	Sololá	701	Sololá	3	Barraneche	11	Noviembre	2023-11-19T00:00:00	2024-11-06T05:00:00	8	Radiación solar	0
61873	7	Sololá	701	Sololá	3	Barraneche	11	Noviembre	2023-11-19T00:00:00	2024-11-06T06:00:00	2	Temperatura media	8.5
61874	7	Sololá	701	Sololá	3	Barraneche	11	Noviembre	2023-11-19T00:00:00	2024-11-06T06:00:00	4	Temperatura máxima	8.6
61875	7	Sololá	701	Sololá	3	Barraneche	11	Noviembre	2023-11-19T00:00:00	2024-11-06T06:00:00	3	Temperatura mínima	8.1
61876	7	Sololá	701	Sololá	3	Barraneche	11	Noviembre	2023-11-19T00:00:00	2024-11-06T06:00:00	5	Humedad	44
61877	7	Sololá	701	Sololá	3	Barraneche	11	Noviembre	2023-11-19T00:00:00	2024-11-06T06:00:00	6	Velocidad del viento	9.7
61878	7	Sololá	701	Sololá	3	Barraneche	11	Noviembre	2023-11-19T00:00:00	2024-11-06T06:00:00	7	Dirección del viento	9.66
61879	7	Sololá	701	Sololá	3	Barraneche	11	Noviembre	2023-11-19T00:00:00	2024-11-06T06:00:00	1	Precipitación	0
61880	7	Sololá	701	Sololá	3	Barraneche	11	Noviembre	2023-11-19T00:00:00	2024-11-06T06:00:00	8	Radiación solar	0
61881	7	Sololá	701	Sololá	3	Barraneche	11	Noviembre	2023-11-19T00:00:00	2024-11-06T07:00:00	2	Temperatura media	9.2
61882	7	Sololá	701	Sololá	3	Barraneche	11	Noviembre	2023-11-19T00:00:00	2024-11-06T07:00:00	4	Temperatura máxima	9.2
61883	7	Sololá	701	Sololá	3	Barraneche	11	Noviembre	2023-11-19T00:00:00	2024-11-06T07:00:00	3	Temperatura mínima	7.8
61884	7	Sololá	701	Sololá	3	Barraneche	11	Noviembre	2023-11-19T00:00:00	2024-11-06T07:00:00	5	Humedad	45
61885	7	Sololá	701	Sololá	3	Barraneche	11	Noviembre	2023-11-19T00:00:00	2024-11-06T07:00:00	6	Velocidad del viento	9.7
61886	7	Sololá	701	Sololá	3	Barraneche	11	Noviembre	2023-11-19T00:00:00	2024-11-06T07:00:00	7	Dirección del viento	9.66
61887	7	Sololá	701	Sololá	3	Barraneche	11	Noviembre	2023-11-19T00:00:00	2024-11-06T07:00:00	1	Precipitación	0
61888	7	Sololá	701	Sololá	3	Barraneche	11	Noviembre	2023-11-19T00:00:00	2024-11-06T07:00:00	8	Radiación solar	31
61889	7	Sololá	701	Sololá	3	Barraneche	11	Noviembre	2023-11-19T00:00:00	2024-11-06T08:00:00	2	Temperatura media	13.4
61890	7	Sololá	701	Sololá	3	Barraneche	11	Noviembre	2023-11-19T00:00:00	2024-11-06T08:00:00	4	Temperatura máxima	13.4
61891	7	Sololá	701	Sololá	3	Barraneche	11	Noviembre	2023-11-19T00:00:00	2024-11-06T08:00:00	3	Temperatura mínima	9.2
61892	7	Sololá	701	Sololá	3	Barraneche	11	Noviembre	2023-11-19T00:00:00	2024-11-06T08:00:00	5	Humedad	51
61893	7	Sololá	701	Sololá	3	Barraneche	11	Noviembre	2023-11-19T00:00:00	2024-11-06T08:00:00	6	Velocidad del viento	4.8
61894	7	Sololá	701	Sololá	3	Barraneche	11	Noviembre	2023-11-19T00:00:00	2024-11-06T08:00:00	7	Dirección del viento	4.83
61895	7	Sololá	701	Sololá	3	Barraneche	11	Noviembre	2023-11-19T00:00:00	2024-11-06T08:00:00	1	Precipitación	0
61896	7	Sololá	701	Sololá	3	Barraneche	11	Noviembre	2023-11-19T00:00:00	2024-11-06T08:00:00	8	Radiación solar	273
61897	7	Sololá	701	Sololá	3	Barraneche	11	Noviembre	2023-11-19T00:00:00	2024-11-06T09:00:00	2	Temperatura media	16.4
61898	7	Sololá	701	Sololá	3	Barraneche	11	Noviembre	2023-11-19T00:00:00	2024-11-06T09:00:00	4	Temperatura máxima	16.4
61899	7	Sololá	701	Sololá	3	Barraneche	11	Noviembre	2023-11-19T00:00:00	2024-11-06T09:00:00	3	Temperatura mínima	13.4
61900	7	Sololá	701	Sololá	3	Barraneche	11	Noviembre	2023-11-19T00:00:00	2024-11-06T09:00:00	5	Humedad	51
61901	7	Sololá	701	Sololá	3	Barraneche	11	Noviembre	2023-11-19T00:00:00	2024-11-06T09:00:00	6	Velocidad del viento	3.2
61902	7	Sololá	701	Sololá	3	Barraneche	11	Noviembre	2023-11-19T00:00:00	2024-11-06T09:00:00	7	Dirección del viento	3.22
61903	7	Sololá	701	Sololá	3	Barraneche	11	Noviembre	2023-11-19T00:00:00	2024-11-06T09:00:00	1	Precipitación	0
61904	7	Sololá	701	Sololá	3	Barraneche	11	Noviembre	2023-11-19T00:00:00	2024-11-06T09:00:00	8	Radiación solar	508
61905	7	Sololá	701	Sololá	3	Barraneche	11	Noviembre	2023-11-19T00:00:00	2024-11-06T10:00:00	2	Temperatura media	17.2
61906	7	Sololá	701	Sololá	3	Barraneche	11	Noviembre	2023-11-19T00:00:00	2024-11-06T10:00:00	4	Temperatura máxima	17.4
61907	7	Sololá	701	Sololá	3	Barraneche	11	Noviembre	2023-11-19T00:00:00	2024-11-06T10:00:00	3	Temperatura mínima	16.4
61908	7	Sololá	701	Sololá	3	Barraneche	11	Noviembre	2023-11-19T00:00:00	2024-11-06T10:00:00	5	Humedad	60
61909	7	Sololá	701	Sololá	3	Barraneche	11	Noviembre	2023-11-19T00:00:00	2024-11-06T10:00:00	6	Velocidad del viento	6.4
61910	7	Sololá	701	Sololá	3	Barraneche	11	Noviembre	2023-11-19T00:00:00	2024-11-06T10:00:00	7	Dirección del viento	6.44
61911	7	Sololá	701	Sololá	3	Barraneche	11	Noviembre	2023-11-19T00:00:00	2024-11-06T10:00:00	1	Precipitación	0
61912	7	Sololá	701	Sololá	3	Barraneche	11	Noviembre	2023-11-19T00:00:00	2024-11-06T10:00:00	8	Radiación solar	687
61913	7	Sololá	701	Sololá	3	Barraneche	11	Noviembre	2023-11-19T00:00:00	2024-11-06T11:00:00	2	Temperatura media	17.5
61914	7	Sololá	701	Sololá	3	Barraneche	11	Noviembre	2023-11-19T00:00:00	2024-11-06T11:00:00	4	Temperatura máxima	17.8
61915	7	Sololá	701	Sololá	3	Barraneche	11	Noviembre	2023-11-19T00:00:00	2024-11-06T11:00:00	3	Temperatura mínima	17.1
61916	7	Sololá	701	Sololá	3	Barraneche	11	Noviembre	2023-11-19T00:00:00	2024-11-06T11:00:00	5	Humedad	61
61917	7	Sololá	701	Sololá	3	Barraneche	11	Noviembre	2023-11-19T00:00:00	2024-11-06T11:00:00	6	Velocidad del viento	9.7
61918	7	Sololá	701	Sololá	3	Barraneche	11	Noviembre	2023-11-19T00:00:00	2024-11-06T11:00:00	7	Dirección del viento	9.66
61919	7	Sololá	701	Sololá	3	Barraneche	11	Noviembre	2023-11-19T00:00:00	2024-11-06T11:00:00	1	Precipitación	0
61920	7	Sololá	701	Sololá	3	Barraneche	11	Noviembre	2023-11-19T00:00:00	2024-11-06T11:00:00	8	Radiación solar	812
61921	7	Sololá	701	Sololá	3	Barraneche	11	Noviembre	2023-11-19T00:00:00	2024-11-06T12:00:00	2	Temperatura media	17.7
61922	7	Sololá	701	Sololá	3	Barraneche	11	Noviembre	2023-11-19T00:00:00	2024-11-06T12:00:00	4	Temperatura máxima	17.8
61923	7	Sololá	701	Sololá	3	Barraneche	11	Noviembre	2023-11-19T00:00:00	2024-11-06T12:00:00	3	Temperatura mínima	17.4
61924	7	Sololá	701	Sololá	3	Barraneche	11	Noviembre	2023-11-19T00:00:00	2024-11-06T12:00:00	5	Humedad	58
61925	7	Sololá	701	Sololá	3	Barraneche	11	Noviembre	2023-11-19T00:00:00	2024-11-06T12:00:00	6	Velocidad del viento	11.3
61926	7	Sololá	701	Sololá	3	Barraneche	11	Noviembre	2023-11-19T00:00:00	2024-11-06T12:00:00	7	Dirección del viento	11.27
61927	7	Sololá	701	Sololá	3	Barraneche	11	Noviembre	2023-11-19T00:00:00	2024-11-06T12:00:00	1	Precipitación	0
61928	7	Sololá	701	Sololá	3	Barraneche	11	Noviembre	2023-11-19T00:00:00	2024-11-06T12:00:00	8	Radiación solar	882
61929	7	Sololá	701	Sololá	3	Barraneche	11	Noviembre	2023-11-19T00:00:00	2024-11-06T13:00:00	2	Temperatura media	17.5
61930	7	Sololá	701	Sololá	3	Barraneche	11	Noviembre	2023-11-19T00:00:00	2024-11-06T13:00:00	4	Temperatura máxima	17.8
61931	7	Sololá	701	Sololá	3	Barraneche	11	Noviembre	2023-11-19T00:00:00	2024-11-06T13:00:00	3	Temperatura mínima	17.3
61932	7	Sololá	701	Sololá	3	Barraneche	11	Noviembre	2023-11-19T00:00:00	2024-11-06T13:00:00	5	Humedad	62
61933	7	Sololá	701	Sololá	3	Barraneche	11	Noviembre	2023-11-19T00:00:00	2024-11-06T13:00:00	6	Velocidad del viento	11.3
61934	7	Sololá	701	Sololá	3	Barraneche	11	Noviembre	2023-11-19T00:00:00	2024-11-06T13:00:00	7	Dirección del viento	11.27
61935	7	Sololá	701	Sololá	3	Barraneche	11	Noviembre	2023-11-19T00:00:00	2024-11-06T13:00:00	1	Precipitación	0
61936	7	Sololá	701	Sololá	3	Barraneche	11	Noviembre	2023-11-19T00:00:00	2024-11-06T13:00:00	8	Radiación solar	835
61937	7	Sololá	701	Sololá	3	Barraneche	11	Noviembre	2023-11-19T00:00:00	2024-11-06T14:00:00	2	Temperatura media	15.8
61938	7	Sololá	701	Sololá	3	Barraneche	11	Noviembre	2023-11-19T00:00:00	2024-11-06T14:00:00	4	Temperatura máxima	17.9
61939	7	Sololá	701	Sololá	3	Barraneche	11	Noviembre	2023-11-19T00:00:00	2024-11-06T14:00:00	3	Temperatura mínima	15.7
61940	7	Sololá	701	Sololá	3	Barraneche	11	Noviembre	2023-11-19T00:00:00	2024-11-06T14:00:00	5	Humedad	68
61941	7	Sololá	701	Sololá	3	Barraneche	11	Noviembre	2023-11-19T00:00:00	2024-11-06T14:00:00	6	Velocidad del viento	11.3
61942	7	Sololá	701	Sololá	3	Barraneche	11	Noviembre	2023-11-19T00:00:00	2024-11-06T14:00:00	7	Dirección del viento	11.27
61943	7	Sololá	701	Sololá	3	Barraneche	11	Noviembre	2023-11-19T00:00:00	2024-11-06T14:00:00	1	Precipitación	0
61944	7	Sololá	701	Sololá	3	Barraneche	11	Noviembre	2023-11-19T00:00:00	2024-11-06T14:00:00	8	Radiación solar	307
61945	7	Sololá	701	Sololá	3	Barraneche	11	Noviembre	2023-11-19T00:00:00	2024-11-06T15:00:00	2	Temperatura media	14.8
61946	7	Sololá	701	Sololá	3	Barraneche	11	Noviembre	2023-11-19T00:00:00	2024-11-06T15:00:00	4	Temperatura máxima	15.8
61947	7	Sololá	701	Sololá	3	Barraneche	11	Noviembre	2023-11-19T00:00:00	2024-11-06T15:00:00	3	Temperatura mínima	14.8
61948	7	Sololá	701	Sololá	3	Barraneche	11	Noviembre	2023-11-19T00:00:00	2024-11-06T15:00:00	5	Humedad	74
61949	7	Sololá	701	Sololá	3	Barraneche	11	Noviembre	2023-11-19T00:00:00	2024-11-06T15:00:00	6	Velocidad del viento	8
61950	7	Sololá	701	Sololá	3	Barraneche	11	Noviembre	2023-11-19T00:00:00	2024-11-06T15:00:00	7	Dirección del viento	8.05
61951	7	Sololá	701	Sololá	3	Barraneche	11	Noviembre	2023-11-19T00:00:00	2024-11-06T15:00:00	1	Precipitación	0
61952	7	Sololá	701	Sololá	3	Barraneche	11	Noviembre	2023-11-19T00:00:00	2024-11-06T15:00:00	8	Radiación solar	96
61953	7	Sololá	701	Sololá	3	Barraneche	11	Noviembre	2023-11-19T00:00:00	2024-11-06T16:00:00	2	Temperatura media	14.7
61954	7	Sololá	701	Sololá	3	Barraneche	11	Noviembre	2023-11-19T00:00:00	2024-11-06T16:00:00	4	Temperatura máxima	14.7
61955	7	Sololá	701	Sololá	3	Barraneche	11	Noviembre	2023-11-19T00:00:00	2024-11-06T16:00:00	3	Temperatura mínima	14.1
61956	7	Sololá	701	Sololá	3	Barraneche	11	Noviembre	2023-11-19T00:00:00	2024-11-06T16:00:00	5	Humedad	79
61957	7	Sololá	701	Sololá	3	Barraneche	11	Noviembre	2023-11-19T00:00:00	2024-11-06T16:00:00	6	Velocidad del viento	8
61958	7	Sololá	701	Sololá	3	Barraneche	11	Noviembre	2023-11-19T00:00:00	2024-11-06T16:00:00	7	Dirección del viento	8.05
61959	7	Sololá	701	Sololá	3	Barraneche	11	Noviembre	2023-11-19T00:00:00	2024-11-06T16:00:00	1	Precipitación	0
61960	7	Sololá	701	Sololá	3	Barraneche	11	Noviembre	2023-11-19T00:00:00	2024-11-06T16:00:00	8	Radiación solar	92
61961	7	Sololá	701	Sololá	3	Barraneche	11	Noviembre	2023-11-19T00:00:00	2024-11-06T17:00:00	2	Temperatura media	14.2
61962	7	Sololá	701	Sololá	3	Barraneche	11	Noviembre	2023-11-19T00:00:00	2024-11-06T17:00:00	4	Temperatura máxima	14.7
61963	7	Sololá	701	Sololá	3	Barraneche	11	Noviembre	2023-11-19T00:00:00	2024-11-06T17:00:00	3	Temperatura mínima	14.1
61964	7	Sololá	701	Sololá	3	Barraneche	11	Noviembre	2023-11-19T00:00:00	2024-11-06T17:00:00	5	Humedad	76
61965	7	Sololá	701	Sololá	3	Barraneche	11	Noviembre	2023-11-19T00:00:00	2024-11-06T17:00:00	6	Velocidad del viento	6.4
61966	7	Sololá	701	Sololá	3	Barraneche	11	Noviembre	2023-11-19T00:00:00	2024-11-06T17:00:00	7	Dirección del viento	6.44
61967	7	Sololá	701	Sololá	3	Barraneche	11	Noviembre	2023-11-19T00:00:00	2024-11-06T17:00:00	1	Precipitación	0
61968	7	Sololá	701	Sololá	3	Barraneche	11	Noviembre	2023-11-19T00:00:00	2024-11-06T17:00:00	8	Radiación solar	72
61969	7	Sololá	701	Sololá	3	Barraneche	11	Noviembre	2023-11-19T00:00:00	2024-11-06T18:00:00	2	Temperatura media	13.5
61970	7	Sololá	701	Sololá	3	Barraneche	11	Noviembre	2023-11-19T00:00:00	2024-11-06T18:00:00	4	Temperatura máxima	14.2
61971	7	Sololá	701	Sololá	3	Barraneche	11	Noviembre	2023-11-19T00:00:00	2024-11-06T18:00:00	3	Temperatura mínima	13.5
61972	7	Sololá	701	Sololá	3	Barraneche	11	Noviembre	2023-11-19T00:00:00	2024-11-06T18:00:00	5	Humedad	80
61973	7	Sololá	701	Sololá	3	Barraneche	11	Noviembre	2023-11-19T00:00:00	2024-11-06T18:00:00	6	Velocidad del viento	3.2
61974	7	Sololá	701	Sololá	3	Barraneche	11	Noviembre	2023-11-19T00:00:00	2024-11-06T18:00:00	7	Dirección del viento	3.22
61975	7	Sololá	701	Sololá	3	Barraneche	11	Noviembre	2023-11-19T00:00:00	2024-11-06T18:00:00	1	Precipitación	0
61976	7	Sololá	701	Sololá	3	Barraneche	11	Noviembre	2023-11-19T00:00:00	2024-11-06T18:00:00	8	Radiación solar	10
61977	7	Sololá	701	Sololá	3	Barraneche	11	Noviembre	2023-11-19T00:00:00	2024-11-06T19:00:00	2	Temperatura media	13.6
61978	7	Sololá	701	Sololá	3	Barraneche	11	Noviembre	2023-11-19T00:00:00	2024-11-06T19:00:00	4	Temperatura máxima	13.6
61979	7	Sololá	701	Sololá	3	Barraneche	11	Noviembre	2023-11-19T00:00:00	2024-11-06T19:00:00	3	Temperatura mínima	13.4
61980	7	Sololá	701	Sololá	3	Barraneche	11	Noviembre	2023-11-19T00:00:00	2024-11-06T19:00:00	5	Humedad	77
61981	7	Sololá	701	Sololá	3	Barraneche	11	Noviembre	2023-11-19T00:00:00	2024-11-06T19:00:00	6	Velocidad del viento	1.6
61982	7	Sololá	701	Sololá	3	Barraneche	11	Noviembre	2023-11-19T00:00:00	2024-11-06T19:00:00	7	Dirección del viento	1.61
61983	7	Sololá	701	Sololá	3	Barraneche	11	Noviembre	2023-11-19T00:00:00	2024-11-06T19:00:00	1	Precipitación	0
61984	7	Sololá	701	Sololá	3	Barraneche	11	Noviembre	2023-11-19T00:00:00	2024-11-06T19:00:00	8	Radiación solar	0
61985	7	Sololá	701	Sololá	3	Barraneche	11	Noviembre	2023-11-19T00:00:00	2024-11-06T20:00:00	2	Temperatura media	13.3
61986	7	Sololá	701	Sololá	3	Barraneche	11	Noviembre	2023-11-19T00:00:00	2024-11-06T20:00:00	4	Temperatura máxima	13.6
61987	7	Sololá	701	Sololá	3	Barraneche	11	Noviembre	2023-11-19T00:00:00	2024-11-06T20:00:00	3	Temperatura mínima	13.2
61988	7	Sololá	701	Sololá	3	Barraneche	11	Noviembre	2023-11-19T00:00:00	2024-11-06T20:00:00	5	Humedad	79
61989	7	Sololá	701	Sololá	3	Barraneche	11	Noviembre	2023-11-19T00:00:00	2024-11-06T20:00:00	6	Velocidad del viento	1.6
61990	7	Sololá	701	Sololá	3	Barraneche	11	Noviembre	2023-11-19T00:00:00	2024-11-06T20:00:00	7	Dirección del viento	1.61
61991	7	Sololá	701	Sololá	3	Barraneche	11	Noviembre	2023-11-19T00:00:00	2024-11-06T20:00:00	1	Precipitación	0
61992	7	Sololá	701	Sololá	3	Barraneche	11	Noviembre	2023-11-19T00:00:00	2024-11-06T20:00:00	8	Radiación solar	0
61993	7	Sololá	701	Sololá	3	Barraneche	11	Noviembre	2023-11-19T00:00:00	2024-11-06T21:00:00	2	Temperatura media	12.7
61994	7	Sololá	701	Sololá	3	Barraneche	11	Noviembre	2023-11-19T00:00:00	2024-11-06T21:00:00	4	Temperatura máxima	13.3
61995	7	Sololá	701	Sololá	3	Barraneche	11	Noviembre	2023-11-19T00:00:00	2024-11-06T21:00:00	3	Temperatura mínima	12.7
61996	7	Sololá	701	Sololá	3	Barraneche	11	Noviembre	2023-11-19T00:00:00	2024-11-06T21:00:00	5	Humedad	72
61997	7	Sololá	701	Sololá	3	Barraneche	11	Noviembre	2023-11-19T00:00:00	2024-11-06T21:00:00	6	Velocidad del viento	1.6
61998	7	Sololá	701	Sololá	3	Barraneche	11	Noviembre	2023-11-19T00:00:00	2024-11-06T21:00:00	7	Dirección del viento	1.61
61999	7	Sololá	701	Sololá	3	Barraneche	11	Noviembre	2023-11-19T00:00:00	2024-11-06T21:00:00	1	Precipitación	0
62000	7	Sololá	701	Sololá	3	Barraneche	11	Noviembre	2023-11-19T00:00:00	2024-11-06T21:00:00	8	Radiación solar	0
62001	7	Sololá	701	Sololá	3	Barraneche	11	Noviembre	2023-11-19T00:00:00	2024-11-06T22:00:00	2	Temperatura media	12.8
62002	7	Sololá	701	Sololá	3	Barraneche	11	Noviembre	2023-11-19T00:00:00	2024-11-06T22:00:00	4	Temperatura máxima	12.9
62003	7	Sololá	701	Sololá	3	Barraneche	11	Noviembre	2023-11-19T00:00:00	2024-11-06T22:00:00	3	Temperatura mínima	12.6
62004	7	Sololá	701	Sololá	3	Barraneche	11	Noviembre	2023-11-19T00:00:00	2024-11-06T22:00:00	5	Humedad	71
62005	7	Sololá	701	Sololá	3	Barraneche	11	Noviembre	2023-11-19T00:00:00	2024-11-06T22:00:00	6	Velocidad del viento	1.6
62006	7	Sololá	701	Sololá	3	Barraneche	11	Noviembre	2023-11-19T00:00:00	2024-11-06T22:00:00	7	Dirección del viento	1.61
62007	7	Sololá	701	Sololá	3	Barraneche	11	Noviembre	2023-11-19T00:00:00	2024-11-06T22:00:00	1	Precipitación	0
62008	7	Sololá	701	Sololá	3	Barraneche	11	Noviembre	2023-11-19T00:00:00	2024-11-06T22:00:00	8	Radiación solar	0
62009	7	Sololá	701	Sololá	3	Barraneche	11	Noviembre	2023-11-19T00:00:00	2024-11-06T23:00:00	2	Temperatura media	11.3
62010	7	Sololá	701	Sololá	3	Barraneche	11	Noviembre	2023-11-19T00:00:00	2024-11-06T23:00:00	4	Temperatura máxima	12.8
62011	7	Sololá	701	Sololá	3	Barraneche	11	Noviembre	2023-11-19T00:00:00	2024-11-06T23:00:00	3	Temperatura mínima	11.3
62012	7	Sololá	701	Sololá	3	Barraneche	11	Noviembre	2023-11-19T00:00:00	2024-11-06T23:00:00	5	Humedad	67
62013	7	Sololá	701	Sololá	3	Barraneche	11	Noviembre	2023-11-19T00:00:00	2024-11-06T23:00:00	6	Velocidad del viento	3.2
62014	7	Sololá	701	Sololá	3	Barraneche	11	Noviembre	2023-11-19T00:00:00	2024-11-06T23:00:00	7	Dirección del viento	3.22
62015	7	Sololá	701	Sololá	3	Barraneche	11	Noviembre	2023-11-19T00:00:00	2024-11-06T23:00:00	1	Precipitación	0
62016	7	Sololá	701	Sololá	3	Barraneche	11	Noviembre	2023-11-19T00:00:00	2024-11-06T23:00:00	8	Radiación solar	0
62017	7	Sololá	701	Sololá	3	Barraneche	11	Noviembre	2023-11-20T00:00:00	2024-11-06T00:00:00	2	Temperatura media	9.8
62018	7	Sololá	701	Sololá	3	Barraneche	11	Noviembre	2023-11-20T00:00:00	2024-11-06T00:00:00	4	Temperatura máxima	11.3
62019	7	Sololá	701	Sololá	3	Barraneche	11	Noviembre	2023-11-20T00:00:00	2024-11-06T00:00:00	3	Temperatura mínima	9.7
62020	7	Sololá	701	Sololá	3	Barraneche	11	Noviembre	2023-11-20T00:00:00	2024-11-06T00:00:00	5	Humedad	69
62021	7	Sololá	701	Sololá	3	Barraneche	11	Noviembre	2023-11-20T00:00:00	2024-11-06T00:00:00	6	Velocidad del viento	6.4
62022	7	Sololá	701	Sololá	3	Barraneche	11	Noviembre	2023-11-20T00:00:00	2024-11-06T00:00:00	7	Dirección del viento	6.44
62023	7	Sololá	701	Sololá	3	Barraneche	11	Noviembre	2023-11-20T00:00:00	2024-11-06T00:00:00	1	Precipitación	0
62024	7	Sololá	701	Sololá	3	Barraneche	11	Noviembre	2023-11-20T00:00:00	2024-11-06T00:00:00	8	Radiación solar	0
62025	7	Sololá	701	Sololá	3	Barraneche	11	Noviembre	2023-11-20T00:00:00	2024-11-06T01:00:00	2	Temperatura media	9.1
62026	7	Sololá	701	Sololá	3	Barraneche	11	Noviembre	2023-11-20T00:00:00	2024-11-06T01:00:00	4	Temperatura máxima	10.6
62027	7	Sololá	701	Sololá	3	Barraneche	11	Noviembre	2023-11-20T00:00:00	2024-11-06T01:00:00	3	Temperatura mínima	9.1
62028	7	Sololá	701	Sololá	3	Barraneche	11	Noviembre	2023-11-20T00:00:00	2024-11-06T01:00:00	5	Humedad	65
62029	7	Sololá	701	Sololá	3	Barraneche	11	Noviembre	2023-11-20T00:00:00	2024-11-06T01:00:00	6	Velocidad del viento	6.4
62030	7	Sololá	701	Sololá	3	Barraneche	11	Noviembre	2023-11-20T00:00:00	2024-11-06T01:00:00	7	Dirección del viento	6.44
62031	7	Sololá	701	Sololá	3	Barraneche	11	Noviembre	2023-11-20T00:00:00	2024-11-06T01:00:00	1	Precipitación	0
62032	7	Sololá	701	Sololá	3	Barraneche	11	Noviembre	2023-11-20T00:00:00	2024-11-06T01:00:00	8	Radiación solar	0
62033	7	Sololá	701	Sololá	3	Barraneche	11	Noviembre	2023-11-20T00:00:00	2024-11-06T02:00:00	2	Temperatura media	8.1
62034	7	Sololá	701	Sololá	3	Barraneche	11	Noviembre	2023-11-20T00:00:00	2024-11-06T02:00:00	4	Temperatura máxima	9.1
62035	7	Sololá	701	Sololá	3	Barraneche	11	Noviembre	2023-11-20T00:00:00	2024-11-06T02:00:00	3	Temperatura mínima	7.9
62036	7	Sololá	701	Sololá	3	Barraneche	11	Noviembre	2023-11-20T00:00:00	2024-11-06T02:00:00	5	Humedad	67
62037	7	Sololá	701	Sololá	3	Barraneche	11	Noviembre	2023-11-20T00:00:00	2024-11-06T02:00:00	6	Velocidad del viento	8
62038	7	Sololá	701	Sololá	3	Barraneche	11	Noviembre	2023-11-20T00:00:00	2024-11-06T02:00:00	7	Dirección del viento	8.05
62039	7	Sololá	701	Sololá	3	Barraneche	11	Noviembre	2023-11-20T00:00:00	2024-11-06T02:00:00	1	Precipitación	0
62040	7	Sololá	701	Sololá	3	Barraneche	11	Noviembre	2023-11-20T00:00:00	2024-11-06T02:00:00	8	Radiación solar	0
62041	7	Sololá	701	Sololá	3	Barraneche	11	Noviembre	2023-11-20T00:00:00	2024-11-06T03:00:00	2	Temperatura media	7.6
62042	7	Sololá	701	Sololá	3	Barraneche	11	Noviembre	2023-11-20T00:00:00	2024-11-06T03:00:00	4	Temperatura máxima	8.4
62043	7	Sololá	701	Sololá	3	Barraneche	11	Noviembre	2023-11-20T00:00:00	2024-11-06T03:00:00	3	Temperatura mínima	7.6
62044	7	Sololá	701	Sololá	3	Barraneche	11	Noviembre	2023-11-20T00:00:00	2024-11-06T03:00:00	5	Humedad	67
62045	7	Sololá	701	Sololá	3	Barraneche	11	Noviembre	2023-11-20T00:00:00	2024-11-06T03:00:00	6	Velocidad del viento	8
62046	7	Sololá	701	Sololá	3	Barraneche	11	Noviembre	2023-11-20T00:00:00	2024-11-06T03:00:00	7	Dirección del viento	8.05
62047	7	Sololá	701	Sololá	3	Barraneche	11	Noviembre	2023-11-20T00:00:00	2024-11-06T03:00:00	1	Precipitación	0
62048	7	Sololá	701	Sololá	3	Barraneche	11	Noviembre	2023-11-20T00:00:00	2024-11-06T03:00:00	8	Radiación solar	0
62049	7	Sololá	701	Sololá	3	Barraneche	11	Noviembre	2023-11-20T00:00:00	2024-11-06T04:00:00	2	Temperatura media	6.4
62050	7	Sololá	701	Sololá	3	Barraneche	11	Noviembre	2023-11-20T00:00:00	2024-11-06T04:00:00	4	Temperatura máxima	7.6
62051	7	Sololá	701	Sololá	3	Barraneche	11	Noviembre	2023-11-20T00:00:00	2024-11-06T04:00:00	3	Temperatura mínima	6.4
62052	7	Sololá	701	Sololá	3	Barraneche	11	Noviembre	2023-11-20T00:00:00	2024-11-06T04:00:00	5	Humedad	62
62053	7	Sololá	701	Sololá	3	Barraneche	11	Noviembre	2023-11-20T00:00:00	2024-11-06T04:00:00	6	Velocidad del viento	9.7
62054	7	Sololá	701	Sololá	3	Barraneche	11	Noviembre	2023-11-20T00:00:00	2024-11-06T04:00:00	7	Dirección del viento	9.66
62055	7	Sololá	701	Sololá	3	Barraneche	11	Noviembre	2023-11-20T00:00:00	2024-11-06T04:00:00	1	Precipitación	0
62056	7	Sololá	701	Sololá	3	Barraneche	11	Noviembre	2023-11-20T00:00:00	2024-11-06T04:00:00	8	Radiación solar	0
62057	7	Sololá	701	Sololá	3	Barraneche	11	Noviembre	2023-11-20T00:00:00	2024-11-06T05:00:00	2	Temperatura media	7.8
62058	7	Sololá	701	Sololá	3	Barraneche	11	Noviembre	2023-11-20T00:00:00	2024-11-06T05:00:00	4	Temperatura máxima	7.8
62059	7	Sololá	701	Sololá	3	Barraneche	11	Noviembre	2023-11-20T00:00:00	2024-11-06T05:00:00	3	Temperatura mínima	6.4
62060	7	Sololá	701	Sololá	3	Barraneche	11	Noviembre	2023-11-20T00:00:00	2024-11-06T05:00:00	5	Humedad	51
62061	7	Sololá	701	Sololá	3	Barraneche	11	Noviembre	2023-11-20T00:00:00	2024-11-06T05:00:00	6	Velocidad del viento	9.7
62062	7	Sololá	701	Sololá	3	Barraneche	11	Noviembre	2023-11-20T00:00:00	2024-11-06T05:00:00	7	Dirección del viento	9.66
62063	7	Sololá	701	Sololá	3	Barraneche	11	Noviembre	2023-11-20T00:00:00	2024-11-06T05:00:00	1	Precipitación	0
62064	7	Sololá	701	Sololá	3	Barraneche	11	Noviembre	2023-11-20T00:00:00	2024-11-06T05:00:00	8	Radiación solar	0
62065	7	Sololá	701	Sololá	3	Barraneche	11	Noviembre	2023-11-20T00:00:00	2024-11-06T06:00:00	2	Temperatura media	8.4
62066	7	Sololá	701	Sololá	3	Barraneche	11	Noviembre	2023-11-20T00:00:00	2024-11-06T06:00:00	4	Temperatura máxima	8.8
62067	7	Sololá	701	Sololá	3	Barraneche	11	Noviembre	2023-11-20T00:00:00	2024-11-06T06:00:00	3	Temperatura mínima	7.8
62068	7	Sololá	701	Sololá	3	Barraneche	11	Noviembre	2023-11-20T00:00:00	2024-11-06T06:00:00	5	Humedad	47
62069	7	Sololá	701	Sololá	3	Barraneche	11	Noviembre	2023-11-20T00:00:00	2024-11-06T06:00:00	6	Velocidad del viento	6.4
62070	7	Sololá	701	Sololá	3	Barraneche	11	Noviembre	2023-11-20T00:00:00	2024-11-06T06:00:00	7	Dirección del viento	6.44
62071	7	Sololá	701	Sololá	3	Barraneche	11	Noviembre	2023-11-20T00:00:00	2024-11-06T06:00:00	1	Precipitación	0
62072	7	Sololá	701	Sololá	3	Barraneche	11	Noviembre	2023-11-20T00:00:00	2024-11-06T06:00:00	8	Radiación solar	0
62073	7	Sololá	701	Sololá	3	Barraneche	11	Noviembre	2023-11-20T00:00:00	2024-11-06T07:00:00	2	Temperatura media	9.4
62074	7	Sololá	701	Sololá	3	Barraneche	11	Noviembre	2023-11-20T00:00:00	2024-11-06T07:00:00	4	Temperatura máxima	9.4
62075	7	Sololá	701	Sololá	3	Barraneche	11	Noviembre	2023-11-20T00:00:00	2024-11-06T07:00:00	3	Temperatura mínima	8.3
62076	7	Sololá	701	Sololá	3	Barraneche	11	Noviembre	2023-11-20T00:00:00	2024-11-06T07:00:00	5	Humedad	46
62077	7	Sololá	701	Sololá	3	Barraneche	11	Noviembre	2023-11-20T00:00:00	2024-11-06T07:00:00	6	Velocidad del viento	6.4
62078	7	Sololá	701	Sololá	3	Barraneche	11	Noviembre	2023-11-20T00:00:00	2024-11-06T07:00:00	7	Dirección del viento	6.44
62079	7	Sololá	701	Sololá	3	Barraneche	11	Noviembre	2023-11-20T00:00:00	2024-11-06T07:00:00	1	Precipitación	0
62080	7	Sololá	701	Sololá	3	Barraneche	11	Noviembre	2023-11-20T00:00:00	2024-11-06T07:00:00	8	Radiación solar	30
62081	7	Sololá	701	Sololá	3	Barraneche	11	Noviembre	2023-11-20T00:00:00	2024-11-06T08:00:00	2	Temperatura media	14.1
62082	7	Sololá	701	Sololá	3	Barraneche	11	Noviembre	2023-11-20T00:00:00	2024-11-06T08:00:00	4	Temperatura máxima	14.1
62083	7	Sololá	701	Sololá	3	Barraneche	11	Noviembre	2023-11-20T00:00:00	2024-11-06T08:00:00	3	Temperatura mínima	9.4
62084	7	Sololá	701	Sololá	3	Barraneche	11	Noviembre	2023-11-20T00:00:00	2024-11-06T08:00:00	5	Humedad	38
62085	7	Sololá	701	Sololá	3	Barraneche	11	Noviembre	2023-11-20T00:00:00	2024-11-06T08:00:00	6	Velocidad del viento	3.2
62086	7	Sololá	701	Sololá	3	Barraneche	11	Noviembre	2023-11-20T00:00:00	2024-11-06T08:00:00	7	Dirección del viento	3.22
62087	7	Sololá	701	Sololá	3	Barraneche	11	Noviembre	2023-11-20T00:00:00	2024-11-06T08:00:00	1	Precipitación	0
62088	7	Sololá	701	Sololá	3	Barraneche	11	Noviembre	2023-11-20T00:00:00	2024-11-06T08:00:00	8	Radiación solar	268
62089	7	Sololá	701	Sololá	3	Barraneche	11	Noviembre	2023-11-20T00:00:00	2024-11-06T09:00:00	2	Temperatura media	18.2
62090	7	Sololá	701	Sololá	3	Barraneche	11	Noviembre	2023-11-20T00:00:00	2024-11-06T09:00:00	4	Temperatura máxima	18.2
62091	7	Sololá	701	Sololá	3	Barraneche	11	Noviembre	2023-11-20T00:00:00	2024-11-06T09:00:00	3	Temperatura mínima	14.1
62092	7	Sololá	701	Sololá	3	Barraneche	11	Noviembre	2023-11-20T00:00:00	2024-11-06T09:00:00	5	Humedad	37
62093	7	Sololá	701	Sololá	3	Barraneche	11	Noviembre	2023-11-20T00:00:00	2024-11-06T09:00:00	6	Velocidad del viento	3.2
62094	7	Sololá	701	Sololá	3	Barraneche	11	Noviembre	2023-11-20T00:00:00	2024-11-06T09:00:00	7	Dirección del viento	3.22
62095	7	Sololá	701	Sololá	3	Barraneche	11	Noviembre	2023-11-20T00:00:00	2024-11-06T09:00:00	1	Precipitación	0
62096	7	Sololá	701	Sololá	3	Barraneche	11	Noviembre	2023-11-20T00:00:00	2024-11-06T09:00:00	8	Radiación solar	505
62097	7	Sololá	701	Sololá	3	Barraneche	11	Noviembre	2023-11-20T00:00:00	2024-11-06T10:00:00	2	Temperatura media	18.2
62098	7	Sololá	701	Sololá	3	Barraneche	11	Noviembre	2023-11-20T00:00:00	2024-11-06T10:00:00	4	Temperatura máxima	19.2
62099	7	Sololá	701	Sololá	3	Barraneche	11	Noviembre	2023-11-20T00:00:00	2024-11-06T10:00:00	3	Temperatura mínima	17.7
62100	7	Sololá	701	Sololá	3	Barraneche	11	Noviembre	2023-11-20T00:00:00	2024-11-06T10:00:00	5	Humedad	50
62101	7	Sololá	701	Sololá	3	Barraneche	11	Noviembre	2023-11-20T00:00:00	2024-11-06T10:00:00	6	Velocidad del viento	6.4
62102	7	Sololá	701	Sololá	3	Barraneche	11	Noviembre	2023-11-20T00:00:00	2024-11-06T10:00:00	7	Dirección del viento	6.44
62103	7	Sololá	701	Sololá	3	Barraneche	11	Noviembre	2023-11-20T00:00:00	2024-11-06T10:00:00	1	Precipitación	0
62104	7	Sololá	701	Sololá	3	Barraneche	11	Noviembre	2023-11-20T00:00:00	2024-11-06T10:00:00	8	Radiación solar	690
62105	7	Sololá	701	Sololá	3	Barraneche	11	Noviembre	2023-11-20T00:00:00	2024-11-06T11:00:00	2	Temperatura media	18.5
62106	7	Sololá	701	Sololá	3	Barraneche	11	Noviembre	2023-11-20T00:00:00	2024-11-06T11:00:00	4	Temperatura máxima	20.6
62107	7	Sololá	701	Sololá	3	Barraneche	11	Noviembre	2023-11-20T00:00:00	2024-11-06T11:00:00	3	Temperatura mínima	18.2
62108	7	Sololá	701	Sololá	3	Barraneche	11	Noviembre	2023-11-20T00:00:00	2024-11-06T11:00:00	5	Humedad	53
62109	7	Sololá	701	Sololá	3	Barraneche	11	Noviembre	2023-11-20T00:00:00	2024-11-06T11:00:00	6	Velocidad del viento	6.4
62110	7	Sololá	701	Sololá	3	Barraneche	11	Noviembre	2023-11-20T00:00:00	2024-11-06T11:00:00	7	Dirección del viento	6.44
62111	7	Sololá	701	Sololá	3	Barraneche	11	Noviembre	2023-11-20T00:00:00	2024-11-06T11:00:00	1	Precipitación	0
62112	7	Sololá	701	Sololá	3	Barraneche	11	Noviembre	2023-11-20T00:00:00	2024-11-06T11:00:00	8	Radiación solar	806
62113	7	Sololá	701	Sololá	3	Barraneche	11	Noviembre	2023-11-20T00:00:00	2024-11-06T12:00:00	2	Temperatura media	19
62114	7	Sololá	701	Sololá	3	Barraneche	11	Noviembre	2023-11-20T00:00:00	2024-11-06T12:00:00	4	Temperatura máxima	19.1
62115	7	Sololá	701	Sololá	3	Barraneche	11	Noviembre	2023-11-20T00:00:00	2024-11-06T12:00:00	3	Temperatura mínima	18.3
62116	7	Sololá	701	Sololá	3	Barraneche	11	Noviembre	2023-11-20T00:00:00	2024-11-06T12:00:00	5	Humedad	50
62117	7	Sololá	701	Sololá	3	Barraneche	11	Noviembre	2023-11-20T00:00:00	2024-11-06T12:00:00	6	Velocidad del viento	11.3
62118	7	Sololá	701	Sololá	3	Barraneche	11	Noviembre	2023-11-20T00:00:00	2024-11-06T12:00:00	7	Dirección del viento	11.27
62119	7	Sololá	701	Sololá	3	Barraneche	11	Noviembre	2023-11-20T00:00:00	2024-11-06T12:00:00	1	Precipitación	0
62120	7	Sololá	701	Sololá	3	Barraneche	11	Noviembre	2023-11-20T00:00:00	2024-11-06T12:00:00	8	Radiación solar	865
62121	7	Sololá	701	Sololá	3	Barraneche	11	Noviembre	2023-11-20T00:00:00	2024-11-06T13:00:00	2	Temperatura media	17.8
62122	7	Sololá	701	Sololá	3	Barraneche	11	Noviembre	2023-11-20T00:00:00	2024-11-06T13:00:00	4	Temperatura máxima	19.1
62123	7	Sololá	701	Sololá	3	Barraneche	11	Noviembre	2023-11-20T00:00:00	2024-11-06T13:00:00	3	Temperatura mínima	17.8
62124	7	Sololá	701	Sololá	3	Barraneche	11	Noviembre	2023-11-20T00:00:00	2024-11-06T13:00:00	5	Humedad	59
62125	7	Sololá	701	Sololá	3	Barraneche	11	Noviembre	2023-11-20T00:00:00	2024-11-06T13:00:00	6	Velocidad del viento	12.9
62126	7	Sololá	701	Sololá	3	Barraneche	11	Noviembre	2023-11-20T00:00:00	2024-11-06T13:00:00	7	Dirección del viento	12.87
62127	7	Sololá	701	Sololá	3	Barraneche	11	Noviembre	2023-11-20T00:00:00	2024-11-06T13:00:00	1	Precipitación	0
62128	7	Sololá	701	Sololá	3	Barraneche	11	Noviembre	2023-11-20T00:00:00	2024-11-06T13:00:00	8	Radiación solar	851
62129	7	Sololá	701	Sololá	3	Barraneche	11	Noviembre	2023-11-20T00:00:00	2024-11-06T14:00:00	2	Temperatura media	17.7
62130	7	Sololá	701	Sololá	3	Barraneche	11	Noviembre	2023-11-20T00:00:00	2024-11-06T14:00:00	4	Temperatura máxima	18.2
62131	7	Sololá	701	Sololá	3	Barraneche	11	Noviembre	2023-11-20T00:00:00	2024-11-06T14:00:00	3	Temperatura mínima	17.7
62132	7	Sololá	701	Sololá	3	Barraneche	11	Noviembre	2023-11-20T00:00:00	2024-11-06T14:00:00	5	Humedad	62
62133	7	Sololá	701	Sololá	3	Barraneche	11	Noviembre	2023-11-20T00:00:00	2024-11-06T14:00:00	6	Velocidad del viento	12.9
62134	7	Sololá	701	Sololá	3	Barraneche	11	Noviembre	2023-11-20T00:00:00	2024-11-06T14:00:00	7	Dirección del viento	12.87
62135	7	Sololá	701	Sololá	3	Barraneche	11	Noviembre	2023-11-20T00:00:00	2024-11-06T14:00:00	1	Precipitación	0
62136	7	Sololá	701	Sololá	3	Barraneche	11	Noviembre	2023-11-20T00:00:00	2024-11-06T14:00:00	8	Radiación solar	760
62137	7	Sololá	701	Sololá	3	Barraneche	11	Noviembre	2023-11-20T00:00:00	2024-11-06T15:00:00	2	Temperatura media	17.3
62138	7	Sololá	701	Sololá	3	Barraneche	11	Noviembre	2023-11-20T00:00:00	2024-11-06T15:00:00	4	Temperatura máxima	17.8
62139	7	Sololá	701	Sololá	3	Barraneche	11	Noviembre	2023-11-20T00:00:00	2024-11-06T15:00:00	3	Temperatura mínima	17.3
62140	7	Sololá	701	Sololá	3	Barraneche	11	Noviembre	2023-11-20T00:00:00	2024-11-06T15:00:00	5	Humedad	66
62141	7	Sololá	701	Sololá	3	Barraneche	11	Noviembre	2023-11-20T00:00:00	2024-11-06T15:00:00	6	Velocidad del viento	11.3
62142	7	Sololá	701	Sololá	3	Barraneche	11	Noviembre	2023-11-20T00:00:00	2024-11-06T15:00:00	7	Dirección del viento	11.27
62143	7	Sololá	701	Sololá	3	Barraneche	11	Noviembre	2023-11-20T00:00:00	2024-11-06T15:00:00	1	Precipitación	0
62144	7	Sololá	701	Sololá	3	Barraneche	11	Noviembre	2023-11-20T00:00:00	2024-11-06T15:00:00	8	Radiación solar	614
62145	7	Sololá	701	Sololá	3	Barraneche	11	Noviembre	2023-11-20T00:00:00	2024-11-06T16:00:00	2	Temperatura media	15.1
62146	7	Sololá	701	Sololá	3	Barraneche	11	Noviembre	2023-11-20T00:00:00	2024-11-06T16:00:00	4	Temperatura máxima	17.3
62147	7	Sololá	701	Sololá	3	Barraneche	11	Noviembre	2023-11-20T00:00:00	2024-11-06T16:00:00	3	Temperatura mínima	15.1
62148	7	Sololá	701	Sololá	3	Barraneche	11	Noviembre	2023-11-20T00:00:00	2024-11-06T16:00:00	5	Humedad	72
62149	7	Sololá	701	Sololá	3	Barraneche	11	Noviembre	2023-11-20T00:00:00	2024-11-06T16:00:00	6	Velocidad del viento	9.7
62150	7	Sololá	701	Sololá	3	Barraneche	11	Noviembre	2023-11-20T00:00:00	2024-11-06T16:00:00	7	Dirección del viento	9.66
62151	7	Sololá	701	Sololá	3	Barraneche	11	Noviembre	2023-11-20T00:00:00	2024-11-06T16:00:00	1	Precipitación	0
62152	7	Sololá	701	Sololá	3	Barraneche	11	Noviembre	2023-11-20T00:00:00	2024-11-06T16:00:00	8	Radiación solar	246
62153	7	Sololá	701	Sololá	3	Barraneche	11	Noviembre	2023-11-20T00:00:00	2024-11-06T17:00:00	2	Temperatura media	14.4
62154	7	Sololá	701	Sololá	3	Barraneche	11	Noviembre	2023-11-20T00:00:00	2024-11-06T17:00:00	4	Temperatura máxima	15.1
62155	7	Sololá	701	Sololá	3	Barraneche	11	Noviembre	2023-11-20T00:00:00	2024-11-06T17:00:00	3	Temperatura mínima	14.3
62156	7	Sololá	701	Sololá	3	Barraneche	11	Noviembre	2023-11-20T00:00:00	2024-11-06T17:00:00	5	Humedad	80
62157	7	Sololá	701	Sololá	3	Barraneche	11	Noviembre	2023-11-20T00:00:00	2024-11-06T17:00:00	6	Velocidad del viento	4.8
62158	7	Sololá	701	Sololá	3	Barraneche	11	Noviembre	2023-11-20T00:00:00	2024-11-06T17:00:00	7	Dirección del viento	4.83
62159	7	Sololá	701	Sololá	3	Barraneche	11	Noviembre	2023-11-20T00:00:00	2024-11-06T17:00:00	1	Precipitación	0
62160	7	Sololá	701	Sololá	3	Barraneche	11	Noviembre	2023-11-20T00:00:00	2024-11-06T17:00:00	8	Radiación solar	36
62161	7	Sololá	701	Sololá	3	Barraneche	11	Noviembre	2023-11-20T00:00:00	2024-11-06T18:00:00	2	Temperatura media	14
62162	7	Sololá	701	Sololá	3	Barraneche	11	Noviembre	2023-11-20T00:00:00	2024-11-06T18:00:00	4	Temperatura máxima	14.4
62163	7	Sololá	701	Sololá	3	Barraneche	11	Noviembre	2023-11-20T00:00:00	2024-11-06T18:00:00	3	Temperatura mínima	13.9
62164	7	Sololá	701	Sololá	3	Barraneche	11	Noviembre	2023-11-20T00:00:00	2024-11-06T18:00:00	5	Humedad	83
62165	7	Sololá	701	Sololá	3	Barraneche	11	Noviembre	2023-11-20T00:00:00	2024-11-06T18:00:00	6	Velocidad del viento	4.8
62166	7	Sololá	701	Sololá	3	Barraneche	11	Noviembre	2023-11-20T00:00:00	2024-11-06T18:00:00	7	Dirección del viento	4.83
62167	7	Sololá	701	Sololá	3	Barraneche	11	Noviembre	2023-11-20T00:00:00	2024-11-06T18:00:00	1	Precipitación	0
62168	7	Sololá	701	Sololá	3	Barraneche	11	Noviembre	2023-11-20T00:00:00	2024-11-06T18:00:00	8	Radiación solar	5
62169	7	Sololá	701	Sololá	3	Barraneche	11	Noviembre	2023-11-20T00:00:00	2024-11-06T19:00:00	2	Temperatura media	12.1
62170	7	Sololá	701	Sololá	3	Barraneche	11	Noviembre	2023-11-20T00:00:00	2024-11-06T19:00:00	4	Temperatura máxima	14
62171	7	Sololá	701	Sololá	3	Barraneche	11	Noviembre	2023-11-20T00:00:00	2024-11-06T19:00:00	3	Temperatura mínima	12.1
62172	7	Sololá	701	Sololá	3	Barraneche	11	Noviembre	2023-11-20T00:00:00	2024-11-06T19:00:00	5	Humedad	63
62173	7	Sololá	701	Sololá	3	Barraneche	11	Noviembre	2023-11-20T00:00:00	2024-11-06T19:00:00	6	Velocidad del viento	4.8
62174	7	Sololá	701	Sololá	3	Barraneche	11	Noviembre	2023-11-20T00:00:00	2024-11-06T19:00:00	7	Dirección del viento	4.83
62175	7	Sololá	701	Sololá	3	Barraneche	11	Noviembre	2023-11-20T00:00:00	2024-11-06T19:00:00	1	Precipitación	0
62176	7	Sololá	701	Sololá	3	Barraneche	11	Noviembre	2023-11-20T00:00:00	2024-11-06T19:00:00	8	Radiación solar	0
62177	7	Sololá	701	Sololá	3	Barraneche	11	Noviembre	2023-11-20T00:00:00	2024-11-06T20:00:00	2	Temperatura media	10.4
62178	7	Sololá	701	Sololá	3	Barraneche	11	Noviembre	2023-11-20T00:00:00	2024-11-06T20:00:00	4	Temperatura máxima	12.1
62179	7	Sololá	701	Sololá	3	Barraneche	11	Noviembre	2023-11-20T00:00:00	2024-11-06T20:00:00	3	Temperatura mínima	10.3
62180	7	Sololá	701	Sololá	3	Barraneche	11	Noviembre	2023-11-20T00:00:00	2024-11-06T20:00:00	5	Humedad	66
62181	7	Sololá	701	Sololá	3	Barraneche	11	Noviembre	2023-11-20T00:00:00	2024-11-06T20:00:00	6	Velocidad del viento	8
62182	7	Sololá	701	Sololá	3	Barraneche	11	Noviembre	2023-11-20T00:00:00	2024-11-06T20:00:00	7	Dirección del viento	8.05
62183	7	Sololá	701	Sololá	3	Barraneche	11	Noviembre	2023-11-20T00:00:00	2024-11-06T20:00:00	1	Precipitación	0
62184	7	Sololá	701	Sololá	3	Barraneche	11	Noviembre	2023-11-20T00:00:00	2024-11-06T20:00:00	8	Radiación solar	0
62185	7	Sololá	701	Sololá	3	Barraneche	11	Noviembre	2023-11-20T00:00:00	2024-11-06T21:00:00	2	Temperatura media	10.9
62186	7	Sololá	701	Sololá	3	Barraneche	11	Noviembre	2023-11-20T00:00:00	2024-11-06T21:00:00	4	Temperatura máxima	10.9
62187	7	Sololá	701	Sololá	3	Barraneche	11	Noviembre	2023-11-20T00:00:00	2024-11-06T21:00:00	3	Temperatura mínima	10.3
62188	7	Sololá	701	Sololá	3	Barraneche	11	Noviembre	2023-11-20T00:00:00	2024-11-06T21:00:00	5	Humedad	67
62189	7	Sololá	701	Sololá	3	Barraneche	11	Noviembre	2023-11-20T00:00:00	2024-11-06T21:00:00	6	Velocidad del viento	6.4
62190	7	Sololá	701	Sololá	3	Barraneche	11	Noviembre	2023-11-20T00:00:00	2024-11-06T21:00:00	7	Dirección del viento	6.44
62191	7	Sololá	701	Sololá	3	Barraneche	11	Noviembre	2023-11-20T00:00:00	2024-11-06T21:00:00	1	Precipitación	0
62192	7	Sololá	701	Sololá	3	Barraneche	11	Noviembre	2023-11-20T00:00:00	2024-11-06T21:00:00	8	Radiación solar	0
62193	7	Sololá	701	Sololá	3	Barraneche	11	Noviembre	2023-11-20T00:00:00	2024-11-06T22:00:00	2	Temperatura media	11.5
62194	7	Sololá	701	Sololá	3	Barraneche	11	Noviembre	2023-11-20T00:00:00	2024-11-06T22:00:00	4	Temperatura máxima	11.6
62195	7	Sololá	701	Sololá	3	Barraneche	11	Noviembre	2023-11-20T00:00:00	2024-11-06T22:00:00	3	Temperatura mínima	10.9
62196	7	Sololá	701	Sololá	3	Barraneche	11	Noviembre	2023-11-20T00:00:00	2024-11-06T22:00:00	5	Humedad	69
62197	7	Sololá	701	Sololá	3	Barraneche	11	Noviembre	2023-11-20T00:00:00	2024-11-06T22:00:00	6	Velocidad del viento	4.8
62198	7	Sololá	701	Sololá	3	Barraneche	11	Noviembre	2023-11-20T00:00:00	2024-11-06T22:00:00	7	Dirección del viento	4.83
62199	7	Sololá	701	Sololá	3	Barraneche	11	Noviembre	2023-11-20T00:00:00	2024-11-06T22:00:00	1	Precipitación	0
62200	7	Sololá	701	Sololá	3	Barraneche	11	Noviembre	2023-11-20T00:00:00	2024-11-06T22:00:00	8	Radiación solar	0
62201	7	Sololá	701	Sololá	3	Barraneche	11	Noviembre	2023-11-20T00:00:00	2024-11-06T23:00:00	2	Temperatura media	11.3
62202	7	Sololá	701	Sololá	3	Barraneche	11	Noviembre	2023-11-20T00:00:00	2024-11-06T23:00:00	4	Temperatura máxima	11.5
62203	7	Sololá	701	Sololá	3	Barraneche	11	Noviembre	2023-11-20T00:00:00	2024-11-06T23:00:00	3	Temperatura mínima	11
62204	7	Sololá	701	Sololá	3	Barraneche	11	Noviembre	2023-11-20T00:00:00	2024-11-06T23:00:00	5	Humedad	70
62205	7	Sololá	701	Sololá	3	Barraneche	11	Noviembre	2023-11-20T00:00:00	2024-11-06T23:00:00	6	Velocidad del viento	8
62206	7	Sololá	701	Sololá	3	Barraneche	11	Noviembre	2023-11-20T00:00:00	2024-11-06T23:00:00	7	Dirección del viento	8.05
62207	7	Sololá	701	Sololá	3	Barraneche	11	Noviembre	2023-11-20T00:00:00	2024-11-06T23:00:00	1	Precipitación	0
62208	7	Sololá	701	Sololá	3	Barraneche	11	Noviembre	2023-11-20T00:00:00	2024-11-06T23:00:00	8	Radiación solar	0
62209	7	Sololá	701	Sololá	3	Barraneche	11	Noviembre	2023-11-21T00:00:00	2024-11-06T00:00:00	2	Temperatura media	10.3
62210	7	Sololá	701	Sololá	3	Barraneche	11	Noviembre	2023-11-21T00:00:00	2024-11-06T00:00:00	4	Temperatura máxima	11.4
62211	7	Sololá	701	Sololá	3	Barraneche	11	Noviembre	2023-11-21T00:00:00	2024-11-06T00:00:00	3	Temperatura mínima	10.3
62212	7	Sololá	701	Sololá	3	Barraneche	11	Noviembre	2023-11-21T00:00:00	2024-11-06T00:00:00	5	Humedad	68
62213	7	Sololá	701	Sololá	3	Barraneche	11	Noviembre	2023-11-21T00:00:00	2024-11-06T00:00:00	6	Velocidad del viento	8
62214	7	Sololá	701	Sololá	3	Barraneche	11	Noviembre	2023-11-21T00:00:00	2024-11-06T00:00:00	7	Dirección del viento	8.05
62215	7	Sololá	701	Sololá	3	Barraneche	11	Noviembre	2023-11-21T00:00:00	2024-11-06T00:00:00	1	Precipitación	0
62216	7	Sololá	701	Sololá	3	Barraneche	11	Noviembre	2023-11-21T00:00:00	2024-11-06T00:00:00	8	Radiación solar	0
62217	7	Sololá	701	Sololá	3	Barraneche	11	Noviembre	2023-11-21T00:00:00	2024-11-06T01:00:00	2	Temperatura media	8.7
62218	7	Sololá	701	Sololá	3	Barraneche	11	Noviembre	2023-11-21T00:00:00	2024-11-06T01:00:00	4	Temperatura máxima	10.3
62219	7	Sololá	701	Sololá	3	Barraneche	11	Noviembre	2023-11-21T00:00:00	2024-11-06T01:00:00	3	Temperatura mínima	8.6
62220	7	Sololá	701	Sololá	3	Barraneche	11	Noviembre	2023-11-21T00:00:00	2024-11-06T01:00:00	5	Humedad	67
62221	7	Sololá	701	Sololá	3	Barraneche	11	Noviembre	2023-11-21T00:00:00	2024-11-06T01:00:00	6	Velocidad del viento	9.7
62222	7	Sololá	701	Sololá	3	Barraneche	11	Noviembre	2023-11-21T00:00:00	2024-11-06T01:00:00	7	Dirección del viento	9.66
62223	7	Sololá	701	Sololá	3	Barraneche	11	Noviembre	2023-11-21T00:00:00	2024-11-06T01:00:00	1	Precipitación	0
62224	7	Sololá	701	Sololá	3	Barraneche	11	Noviembre	2023-11-21T00:00:00	2024-11-06T01:00:00	8	Radiación solar	0
62225	7	Sololá	701	Sololá	3	Barraneche	11	Noviembre	2023-11-21T00:00:00	2024-11-06T02:00:00	2	Temperatura media	8.3
62226	7	Sololá	701	Sololá	3	Barraneche	11	Noviembre	2023-11-21T00:00:00	2024-11-06T02:00:00	4	Temperatura máxima	8.9
62227	7	Sololá	701	Sololá	3	Barraneche	11	Noviembre	2023-11-21T00:00:00	2024-11-06T02:00:00	3	Temperatura mínima	7.7
62228	7	Sololá	701	Sololá	3	Barraneche	11	Noviembre	2023-11-21T00:00:00	2024-11-06T02:00:00	5	Humedad	62
62229	7	Sololá	701	Sololá	3	Barraneche	11	Noviembre	2023-11-21T00:00:00	2024-11-06T02:00:00	6	Velocidad del viento	9.7
62230	7	Sololá	701	Sololá	3	Barraneche	11	Noviembre	2023-11-21T00:00:00	2024-11-06T02:00:00	7	Dirección del viento	9.66
62231	7	Sololá	701	Sololá	3	Barraneche	11	Noviembre	2023-11-21T00:00:00	2024-11-06T02:00:00	1	Precipitación	0
62232	7	Sololá	701	Sololá	3	Barraneche	11	Noviembre	2023-11-21T00:00:00	2024-11-06T02:00:00	8	Radiación solar	0
62233	7	Sololá	701	Sololá	3	Barraneche	11	Noviembre	2023-11-21T00:00:00	2024-11-06T03:00:00	2	Temperatura media	8.1
62234	7	Sololá	701	Sololá	3	Barraneche	11	Noviembre	2023-11-21T00:00:00	2024-11-06T03:00:00	4	Temperatura máxima	8.3
62235	7	Sololá	701	Sololá	3	Barraneche	11	Noviembre	2023-11-21T00:00:00	2024-11-06T03:00:00	3	Temperatura mínima	7.7
62236	7	Sololá	701	Sololá	3	Barraneche	11	Noviembre	2023-11-21T00:00:00	2024-11-06T03:00:00	5	Humedad	59
62237	7	Sololá	701	Sololá	3	Barraneche	11	Noviembre	2023-11-21T00:00:00	2024-11-06T03:00:00	6	Velocidad del viento	9.7
62238	7	Sololá	701	Sololá	3	Barraneche	11	Noviembre	2023-11-21T00:00:00	2024-11-06T03:00:00	7	Dirección del viento	9.66
62239	7	Sololá	701	Sololá	3	Barraneche	11	Noviembre	2023-11-21T00:00:00	2024-11-06T03:00:00	1	Precipitación	0
62240	7	Sololá	701	Sololá	3	Barraneche	11	Noviembre	2023-11-21T00:00:00	2024-11-06T03:00:00	8	Radiación solar	0
62241	7	Sololá	701	Sololá	3	Barraneche	11	Noviembre	2023-11-21T00:00:00	2024-11-06T04:00:00	2	Temperatura media	10.7
62242	7	Sololá	701	Sololá	3	Barraneche	11	Noviembre	2023-11-21T00:00:00	2024-11-06T04:00:00	4	Temperatura máxima	10.7
62243	7	Sololá	701	Sololá	3	Barraneche	11	Noviembre	2023-11-21T00:00:00	2024-11-06T04:00:00	3	Temperatura mínima	8.1
62244	7	Sololá	701	Sololá	3	Barraneche	11	Noviembre	2023-11-21T00:00:00	2024-11-06T04:00:00	5	Humedad	52
62245	7	Sololá	701	Sololá	3	Barraneche	11	Noviembre	2023-11-21T00:00:00	2024-11-06T04:00:00	6	Velocidad del viento	4.8
62246	7	Sololá	701	Sololá	3	Barraneche	11	Noviembre	2023-11-21T00:00:00	2024-11-06T04:00:00	7	Dirección del viento	4.83
62247	7	Sololá	701	Sololá	3	Barraneche	11	Noviembre	2023-11-21T00:00:00	2024-11-06T04:00:00	1	Precipitación	0
62248	7	Sololá	701	Sololá	3	Barraneche	11	Noviembre	2023-11-21T00:00:00	2024-11-06T04:00:00	8	Radiación solar	0
62249	7	Sololá	701	Sololá	3	Barraneche	11	Noviembre	2023-11-21T00:00:00	2024-11-06T05:00:00	2	Temperatura media	11.4
62250	7	Sololá	701	Sololá	3	Barraneche	11	Noviembre	2023-11-21T00:00:00	2024-11-06T05:00:00	4	Temperatura máxima	11.4
62251	7	Sololá	701	Sololá	3	Barraneche	11	Noviembre	2023-11-21T00:00:00	2024-11-06T05:00:00	3	Temperatura mínima	10.7
62252	7	Sololá	701	Sololá	3	Barraneche	11	Noviembre	2023-11-21T00:00:00	2024-11-06T05:00:00	5	Humedad	50
62253	7	Sololá	701	Sololá	3	Barraneche	11	Noviembre	2023-11-21T00:00:00	2024-11-06T05:00:00	6	Velocidad del viento	6.4
62254	7	Sololá	701	Sololá	3	Barraneche	11	Noviembre	2023-11-21T00:00:00	2024-11-06T05:00:00	7	Dirección del viento	6.44
62255	7	Sololá	701	Sololá	3	Barraneche	11	Noviembre	2023-11-21T00:00:00	2024-11-06T05:00:00	1	Precipitación	0
62256	7	Sololá	701	Sololá	3	Barraneche	11	Noviembre	2023-11-21T00:00:00	2024-11-06T05:00:00	8	Radiación solar	0
62257	7	Sololá	701	Sololá	3	Barraneche	11	Noviembre	2023-11-21T00:00:00	2024-11-06T06:00:00	2	Temperatura media	11.8
62258	7	Sololá	701	Sololá	3	Barraneche	11	Noviembre	2023-11-21T00:00:00	2024-11-06T06:00:00	4	Temperatura máxima	12.2
62259	7	Sololá	701	Sololá	3	Barraneche	11	Noviembre	2023-11-21T00:00:00	2024-11-06T06:00:00	3	Temperatura mínima	11.4
62260	7	Sololá	701	Sololá	3	Barraneche	11	Noviembre	2023-11-21T00:00:00	2024-11-06T06:00:00	5	Humedad	47
62261	7	Sololá	701	Sololá	3	Barraneche	11	Noviembre	2023-11-21T00:00:00	2024-11-06T06:00:00	6	Velocidad del viento	9.7
62262	7	Sololá	701	Sololá	3	Barraneche	11	Noviembre	2023-11-21T00:00:00	2024-11-06T06:00:00	7	Dirección del viento	9.66
62263	7	Sololá	701	Sololá	3	Barraneche	11	Noviembre	2023-11-21T00:00:00	2024-11-06T06:00:00	1	Precipitación	0
62264	7	Sololá	701	Sololá	3	Barraneche	11	Noviembre	2023-11-21T00:00:00	2024-11-06T06:00:00	8	Radiación solar	0
62265	7	Sololá	701	Sololá	3	Barraneche	11	Noviembre	2023-11-21T00:00:00	2024-11-06T07:00:00	2	Temperatura media	13.2
62266	7	Sololá	701	Sololá	3	Barraneche	11	Noviembre	2023-11-21T00:00:00	2024-11-06T07:00:00	4	Temperatura máxima	13.2
62267	7	Sololá	701	Sololá	3	Barraneche	11	Noviembre	2023-11-21T00:00:00	2024-11-06T07:00:00	3	Temperatura mínima	11.7
62268	7	Sololá	701	Sololá	3	Barraneche	11	Noviembre	2023-11-21T00:00:00	2024-11-06T07:00:00	5	Humedad	44
62269	7	Sololá	701	Sololá	3	Barraneche	11	Noviembre	2023-11-21T00:00:00	2024-11-06T07:00:00	6	Velocidad del viento	9.7
62270	7	Sololá	701	Sololá	3	Barraneche	11	Noviembre	2023-11-21T00:00:00	2024-11-06T07:00:00	7	Dirección del viento	9.66
62271	7	Sololá	701	Sololá	3	Barraneche	11	Noviembre	2023-11-21T00:00:00	2024-11-06T07:00:00	1	Precipitación	0
62272	7	Sololá	701	Sololá	3	Barraneche	11	Noviembre	2023-11-21T00:00:00	2024-11-06T07:00:00	8	Radiación solar	30
62273	7	Sololá	701	Sololá	3	Barraneche	11	Noviembre	2023-11-21T00:00:00	2024-11-06T08:00:00	2	Temperatura media	18
62274	7	Sololá	701	Sololá	3	Barraneche	11	Noviembre	2023-11-21T00:00:00	2024-11-06T08:00:00	4	Temperatura máxima	18
62275	7	Sololá	701	Sololá	3	Barraneche	11	Noviembre	2023-11-21T00:00:00	2024-11-06T08:00:00	3	Temperatura mínima	13.2
62276	7	Sololá	701	Sololá	3	Barraneche	11	Noviembre	2023-11-21T00:00:00	2024-11-06T08:00:00	5	Humedad	25
62277	7	Sololá	701	Sololá	3	Barraneche	11	Noviembre	2023-11-21T00:00:00	2024-11-06T08:00:00	6	Velocidad del viento	8
62278	7	Sololá	701	Sololá	3	Barraneche	11	Noviembre	2023-11-21T00:00:00	2024-11-06T08:00:00	7	Dirección del viento	8.05
62279	7	Sololá	701	Sololá	3	Barraneche	11	Noviembre	2023-11-21T00:00:00	2024-11-06T08:00:00	1	Precipitación	0
62280	7	Sololá	701	Sololá	3	Barraneche	11	Noviembre	2023-11-21T00:00:00	2024-11-06T08:00:00	8	Radiación solar	269
62281	7	Sololá	701	Sololá	3	Barraneche	11	Noviembre	2023-11-21T00:00:00	2024-11-06T09:00:00	2	Temperatura media	20.8
62282	7	Sololá	701	Sololá	3	Barraneche	11	Noviembre	2023-11-21T00:00:00	2024-11-06T09:00:00	4	Temperatura máxima	20.8
62283	7	Sololá	701	Sololá	3	Barraneche	11	Noviembre	2023-11-21T00:00:00	2024-11-06T09:00:00	3	Temperatura mínima	18.1
62284	7	Sololá	701	Sololá	3	Barraneche	11	Noviembre	2023-11-21T00:00:00	2024-11-06T09:00:00	5	Humedad	13
62285	7	Sololá	701	Sololá	3	Barraneche	11	Noviembre	2023-11-21T00:00:00	2024-11-06T09:00:00	6	Velocidad del viento	12.9
62286	7	Sololá	701	Sololá	3	Barraneche	11	Noviembre	2023-11-21T00:00:00	2024-11-06T09:00:00	7	Dirección del viento	12.87
62287	7	Sololá	701	Sololá	3	Barraneche	11	Noviembre	2023-11-21T00:00:00	2024-11-06T09:00:00	1	Precipitación	0
62288	7	Sololá	701	Sololá	3	Barraneche	11	Noviembre	2023-11-21T00:00:00	2024-11-06T09:00:00	8	Radiación solar	510
62289	7	Sololá	701	Sololá	3	Barraneche	11	Noviembre	2023-11-21T00:00:00	2024-11-06T10:00:00	2	Temperatura media	21.6
62290	7	Sololá	701	Sololá	3	Barraneche	11	Noviembre	2023-11-21T00:00:00	2024-11-06T10:00:00	4	Temperatura máxima	21.6
62291	7	Sololá	701	Sololá	3	Barraneche	11	Noviembre	2023-11-21T00:00:00	2024-11-06T10:00:00	3	Temperatura mínima	20.8
62292	7	Sololá	701	Sololá	3	Barraneche	11	Noviembre	2023-11-21T00:00:00	2024-11-06T10:00:00	5	Humedad	11
62293	7	Sololá	701	Sololá	3	Barraneche	11	Noviembre	2023-11-21T00:00:00	2024-11-06T10:00:00	6	Velocidad del viento	12.9
62294	7	Sololá	701	Sololá	3	Barraneche	11	Noviembre	2023-11-21T00:00:00	2024-11-06T10:00:00	7	Dirección del viento	12.87
62295	7	Sololá	701	Sololá	3	Barraneche	11	Noviembre	2023-11-21T00:00:00	2024-11-06T10:00:00	1	Precipitación	0
62296	7	Sololá	701	Sololá	3	Barraneche	11	Noviembre	2023-11-21T00:00:00	2024-11-06T10:00:00	8	Radiación solar	706
62297	7	Sololá	701	Sololá	3	Barraneche	11	Noviembre	2023-11-21T00:00:00	2024-11-06T11:00:00	2	Temperatura media	21.9
62298	7	Sololá	701	Sololá	3	Barraneche	11	Noviembre	2023-11-21T00:00:00	2024-11-06T11:00:00	4	Temperatura máxima	22
62299	7	Sololá	701	Sololá	3	Barraneche	11	Noviembre	2023-11-21T00:00:00	2024-11-06T11:00:00	3	Temperatura mínima	21.4
62300	7	Sololá	701	Sololá	3	Barraneche	11	Noviembre	2023-11-21T00:00:00	2024-11-06T11:00:00	5	Humedad	13
62301	7	Sololá	701	Sololá	3	Barraneche	11	Noviembre	2023-11-21T00:00:00	2024-11-06T11:00:00	6	Velocidad del viento	12.9
62302	7	Sololá	701	Sololá	3	Barraneche	11	Noviembre	2023-11-21T00:00:00	2024-11-06T11:00:00	7	Dirección del viento	12.87
62303	7	Sololá	701	Sololá	3	Barraneche	11	Noviembre	2023-11-21T00:00:00	2024-11-06T11:00:00	1	Precipitación	0
62304	7	Sololá	701	Sololá	3	Barraneche	11	Noviembre	2023-11-21T00:00:00	2024-11-06T11:00:00	8	Radiación solar	839
62305	7	Sololá	701	Sololá	3	Barraneche	11	Noviembre	2023-11-21T00:00:00	2024-11-06T12:00:00	2	Temperatura media	22.6
62306	7	Sololá	701	Sololá	3	Barraneche	11	Noviembre	2023-11-21T00:00:00	2024-11-06T12:00:00	4	Temperatura máxima	22.6
62307	7	Sololá	701	Sololá	3	Barraneche	11	Noviembre	2023-11-21T00:00:00	2024-11-06T12:00:00	3	Temperatura mínima	21.9
62308	7	Sololá	701	Sololá	3	Barraneche	11	Noviembre	2023-11-21T00:00:00	2024-11-06T12:00:00	5	Humedad	23
62309	7	Sololá	701	Sololá	3	Barraneche	11	Noviembre	2023-11-21T00:00:00	2024-11-06T12:00:00	6	Velocidad del viento	12.9
62310	7	Sololá	701	Sololá	3	Barraneche	11	Noviembre	2023-11-21T00:00:00	2024-11-06T12:00:00	7	Dirección del viento	12.87
62311	7	Sololá	701	Sololá	3	Barraneche	11	Noviembre	2023-11-21T00:00:00	2024-11-06T12:00:00	1	Precipitación	0
62312	7	Sololá	701	Sololá	3	Barraneche	11	Noviembre	2023-11-21T00:00:00	2024-11-06T12:00:00	8	Radiación solar	890
62313	7	Sololá	701	Sololá	3	Barraneche	11	Noviembre	2023-11-21T00:00:00	2024-11-06T13:00:00	2	Temperatura media	22.4
62314	7	Sololá	701	Sololá	3	Barraneche	11	Noviembre	2023-11-21T00:00:00	2024-11-06T13:00:00	4	Temperatura máxima	22.6
62315	7	Sololá	701	Sololá	3	Barraneche	11	Noviembre	2023-11-21T00:00:00	2024-11-06T13:00:00	3	Temperatura mínima	21.8
62316	7	Sololá	701	Sololá	3	Barraneche	11	Noviembre	2023-11-21T00:00:00	2024-11-06T13:00:00	5	Humedad	26
62317	7	Sololá	701	Sololá	3	Barraneche	11	Noviembre	2023-11-21T00:00:00	2024-11-06T13:00:00	6	Velocidad del viento	12.9
62318	7	Sololá	701	Sololá	3	Barraneche	11	Noviembre	2023-11-21T00:00:00	2024-11-06T13:00:00	7	Dirección del viento	12.87
62319	7	Sololá	701	Sololá	3	Barraneche	11	Noviembre	2023-11-21T00:00:00	2024-11-06T13:00:00	1	Precipitación	0
62320	7	Sololá	701	Sololá	3	Barraneche	11	Noviembre	2023-11-21T00:00:00	2024-11-06T13:00:00	8	Radiación solar	870
62321	7	Sololá	701	Sololá	3	Barraneche	11	Noviembre	2023-11-21T00:00:00	2024-11-06T14:00:00	2	Temperatura media	21.4
62322	7	Sololá	701	Sololá	3	Barraneche	11	Noviembre	2023-11-21T00:00:00	2024-11-06T14:00:00	4	Temperatura máxima	22.4
62323	7	Sololá	701	Sololá	3	Barraneche	11	Noviembre	2023-11-21T00:00:00	2024-11-06T14:00:00	3	Temperatura mínima	21.4
62324	7	Sololá	701	Sololá	3	Barraneche	11	Noviembre	2023-11-21T00:00:00	2024-11-06T14:00:00	5	Humedad	25
62325	7	Sololá	701	Sololá	3	Barraneche	11	Noviembre	2023-11-21T00:00:00	2024-11-06T14:00:00	6	Velocidad del viento	14.5
62326	7	Sololá	701	Sololá	3	Barraneche	11	Noviembre	2023-11-21T00:00:00	2024-11-06T14:00:00	7	Dirección del viento	14.48
62327	7	Sololá	701	Sololá	3	Barraneche	11	Noviembre	2023-11-21T00:00:00	2024-11-06T14:00:00	1	Precipitación	0
62328	7	Sololá	701	Sololá	3	Barraneche	11	Noviembre	2023-11-21T00:00:00	2024-11-06T14:00:00	8	Radiación solar	775
62329	7	Sololá	701	Sololá	3	Barraneche	11	Noviembre	2023-11-21T00:00:00	2024-11-06T15:00:00	2	Temperatura media	20.4
62330	7	Sololá	701	Sololá	3	Barraneche	11	Noviembre	2023-11-21T00:00:00	2024-11-06T15:00:00	4	Temperatura máxima	21.4
62331	7	Sololá	701	Sololá	3	Barraneche	11	Noviembre	2023-11-21T00:00:00	2024-11-06T15:00:00	3	Temperatura mínima	20.4
62332	7	Sololá	701	Sololá	3	Barraneche	11	Noviembre	2023-11-21T00:00:00	2024-11-06T15:00:00	5	Humedad	32
62333	7	Sololá	701	Sololá	3	Barraneche	11	Noviembre	2023-11-21T00:00:00	2024-11-06T15:00:00	6	Velocidad del viento	17.7
62334	7	Sololá	701	Sololá	3	Barraneche	11	Noviembre	2023-11-21T00:00:00	2024-11-06T15:00:00	7	Dirección del viento	17.7
62335	7	Sololá	701	Sololá	3	Barraneche	11	Noviembre	2023-11-21T00:00:00	2024-11-06T15:00:00	1	Precipitación	0
62336	7	Sololá	701	Sololá	3	Barraneche	11	Noviembre	2023-11-21T00:00:00	2024-11-06T15:00:00	8	Radiación solar	624
62337	7	Sololá	701	Sololá	3	Barraneche	11	Noviembre	2023-11-21T00:00:00	2024-11-06T16:00:00	2	Temperatura media	19.6
62338	7	Sololá	701	Sololá	3	Barraneche	11	Noviembre	2023-11-21T00:00:00	2024-11-06T16:00:00	4	Temperatura máxima	20.5
62339	7	Sololá	701	Sololá	3	Barraneche	11	Noviembre	2023-11-21T00:00:00	2024-11-06T16:00:00	3	Temperatura mínima	19.5
62340	7	Sololá	701	Sololá	3	Barraneche	11	Noviembre	2023-11-21T00:00:00	2024-11-06T16:00:00	5	Humedad	38
62341	7	Sololá	701	Sololá	3	Barraneche	11	Noviembre	2023-11-21T00:00:00	2024-11-06T16:00:00	6	Velocidad del viento	16.1
62342	7	Sololá	701	Sololá	3	Barraneche	11	Noviembre	2023-11-21T00:00:00	2024-11-06T16:00:00	7	Dirección del viento	16.09
62343	7	Sololá	701	Sololá	3	Barraneche	11	Noviembre	2023-11-21T00:00:00	2024-11-06T16:00:00	1	Precipitación	0
62344	7	Sololá	701	Sololá	3	Barraneche	11	Noviembre	2023-11-21T00:00:00	2024-11-06T16:00:00	8	Radiación solar	412
62345	7	Sololá	701	Sololá	3	Barraneche	11	Noviembre	2023-11-21T00:00:00	2024-11-06T17:00:00	2	Temperatura media	17.7
62346	7	Sololá	701	Sololá	3	Barraneche	11	Noviembre	2023-11-21T00:00:00	2024-11-06T17:00:00	4	Temperatura máxima	19.6
62347	7	Sololá	701	Sololá	3	Barraneche	11	Noviembre	2023-11-21T00:00:00	2024-11-06T17:00:00	3	Temperatura mínima	17.7
62348	7	Sololá	701	Sololá	3	Barraneche	11	Noviembre	2023-11-21T00:00:00	2024-11-06T17:00:00	5	Humedad	42
62349	7	Sololá	701	Sololá	3	Barraneche	11	Noviembre	2023-11-21T00:00:00	2024-11-06T17:00:00	6	Velocidad del viento	16.1
62350	7	Sololá	701	Sololá	3	Barraneche	11	Noviembre	2023-11-21T00:00:00	2024-11-06T17:00:00	7	Dirección del viento	16.09
62351	7	Sololá	701	Sololá	3	Barraneche	11	Noviembre	2023-11-21T00:00:00	2024-11-06T17:00:00	1	Precipitación	0
62352	7	Sololá	701	Sololá	3	Barraneche	11	Noviembre	2023-11-21T00:00:00	2024-11-06T17:00:00	8	Radiación solar	172
62353	7	Sololá	701	Sololá	3	Barraneche	11	Noviembre	2023-11-21T00:00:00	2024-11-06T18:00:00	2	Temperatura media	15.2
62354	7	Sololá	701	Sololá	3	Barraneche	11	Noviembre	2023-11-21T00:00:00	2024-11-06T18:00:00	4	Temperatura máxima	17.7
62355	7	Sololá	701	Sololá	3	Barraneche	11	Noviembre	2023-11-21T00:00:00	2024-11-06T18:00:00	3	Temperatura mínima	15.2
62356	7	Sololá	701	Sololá	3	Barraneche	11	Noviembre	2023-11-21T00:00:00	2024-11-06T18:00:00	5	Humedad	54
62357	7	Sololá	701	Sololá	3	Barraneche	11	Noviembre	2023-11-21T00:00:00	2024-11-06T18:00:00	6	Velocidad del viento	6.4
62358	7	Sololá	701	Sololá	3	Barraneche	11	Noviembre	2023-11-21T00:00:00	2024-11-06T18:00:00	7	Dirección del viento	6.44
62359	7	Sololá	701	Sololá	3	Barraneche	11	Noviembre	2023-11-21T00:00:00	2024-11-06T18:00:00	1	Precipitación	0
62360	7	Sololá	701	Sololá	3	Barraneche	11	Noviembre	2023-11-21T00:00:00	2024-11-06T18:00:00	8	Radiación solar	11
62361	7	Sololá	701	Sololá	3	Barraneche	11	Noviembre	2023-11-21T00:00:00	2024-11-06T19:00:00	2	Temperatura media	13.2
62362	7	Sololá	701	Sololá	3	Barraneche	11	Noviembre	2023-11-21T00:00:00	2024-11-06T19:00:00	4	Temperatura máxima	15.2
62363	7	Sololá	701	Sololá	3	Barraneche	11	Noviembre	2023-11-21T00:00:00	2024-11-06T19:00:00	3	Temperatura mínima	13.2
62364	7	Sololá	701	Sololá	3	Barraneche	11	Noviembre	2023-11-21T00:00:00	2024-11-06T19:00:00	5	Humedad	60
62365	7	Sololá	701	Sololá	3	Barraneche	11	Noviembre	2023-11-21T00:00:00	2024-11-06T19:00:00	6	Velocidad del viento	3.2
62366	7	Sololá	701	Sololá	3	Barraneche	11	Noviembre	2023-11-21T00:00:00	2024-11-06T19:00:00	7	Dirección del viento	3.22
62367	7	Sololá	701	Sololá	3	Barraneche	11	Noviembre	2023-11-21T00:00:00	2024-11-06T19:00:00	1	Precipitación	0
62368	7	Sololá	701	Sololá	3	Barraneche	11	Noviembre	2023-11-21T00:00:00	2024-11-06T19:00:00	8	Radiación solar	0
62369	7	Sololá	701	Sololá	3	Barraneche	11	Noviembre	2023-11-21T00:00:00	2024-11-06T20:00:00	2	Temperatura media	13.3
62370	7	Sololá	701	Sololá	3	Barraneche	11	Noviembre	2023-11-21T00:00:00	2024-11-06T20:00:00	4	Temperatura máxima	13.3
62371	7	Sololá	701	Sololá	3	Barraneche	11	Noviembre	2023-11-21T00:00:00	2024-11-06T20:00:00	3	Temperatura mínima	12.7
62372	7	Sololá	701	Sololá	3	Barraneche	11	Noviembre	2023-11-21T00:00:00	2024-11-06T20:00:00	5	Humedad	55
62373	7	Sololá	701	Sololá	3	Barraneche	11	Noviembre	2023-11-21T00:00:00	2024-11-06T20:00:00	6	Velocidad del viento	6.4
62374	7	Sololá	701	Sololá	3	Barraneche	11	Noviembre	2023-11-21T00:00:00	2024-11-06T20:00:00	7	Dirección del viento	6.44
62375	7	Sololá	701	Sololá	3	Barraneche	11	Noviembre	2023-11-21T00:00:00	2024-11-06T20:00:00	1	Precipitación	0
62376	7	Sololá	701	Sololá	3	Barraneche	11	Noviembre	2023-11-21T00:00:00	2024-11-06T20:00:00	8	Radiación solar	0
62377	7	Sololá	701	Sololá	3	Barraneche	11	Noviembre	2023-11-21T00:00:00	2024-11-06T21:00:00	2	Temperatura media	14.2
62378	7	Sololá	701	Sololá	3	Barraneche	11	Noviembre	2023-11-21T00:00:00	2024-11-06T21:00:00	4	Temperatura máxima	14.4
62379	7	Sololá	701	Sololá	3	Barraneche	11	Noviembre	2023-11-21T00:00:00	2024-11-06T21:00:00	3	Temperatura mínima	13.2
62380	7	Sololá	701	Sololá	3	Barraneche	11	Noviembre	2023-11-21T00:00:00	2024-11-06T21:00:00	5	Humedad	45
62381	7	Sololá	701	Sololá	3	Barraneche	11	Noviembre	2023-11-21T00:00:00	2024-11-06T21:00:00	6	Velocidad del viento	14.5
62382	7	Sololá	701	Sololá	3	Barraneche	11	Noviembre	2023-11-21T00:00:00	2024-11-06T21:00:00	7	Dirección del viento	14.48
62383	7	Sololá	701	Sololá	3	Barraneche	11	Noviembre	2023-11-21T00:00:00	2024-11-06T21:00:00	1	Precipitación	0
62384	7	Sololá	701	Sololá	3	Barraneche	11	Noviembre	2023-11-21T00:00:00	2024-11-06T21:00:00	8	Radiación solar	0
62385	7	Sololá	701	Sololá	3	Barraneche	11	Noviembre	2023-11-21T00:00:00	2024-11-06T22:00:00	2	Temperatura media	14.2
62386	7	Sololá	701	Sololá	3	Barraneche	11	Noviembre	2023-11-21T00:00:00	2024-11-06T22:00:00	4	Temperatura máxima	14.9
62387	7	Sololá	701	Sololá	3	Barraneche	11	Noviembre	2023-11-21T00:00:00	2024-11-06T22:00:00	3	Temperatura mínima	14.1
62388	7	Sololá	701	Sololá	3	Barraneche	11	Noviembre	2023-11-21T00:00:00	2024-11-06T22:00:00	5	Humedad	45
62389	7	Sololá	701	Sololá	3	Barraneche	11	Noviembre	2023-11-21T00:00:00	2024-11-06T22:00:00	6	Velocidad del viento	8
62390	7	Sololá	701	Sololá	3	Barraneche	11	Noviembre	2023-11-21T00:00:00	2024-11-06T22:00:00	7	Dirección del viento	8.05
62391	7	Sololá	701	Sololá	3	Barraneche	11	Noviembre	2023-11-21T00:00:00	2024-11-06T22:00:00	1	Precipitación	0
62392	7	Sololá	701	Sololá	3	Barraneche	11	Noviembre	2023-11-21T00:00:00	2024-11-06T22:00:00	8	Radiación solar	0
62393	7	Sololá	701	Sololá	3	Barraneche	11	Noviembre	2023-11-21T00:00:00	2024-11-06T23:00:00	2	Temperatura media	13
62394	7	Sololá	701	Sololá	3	Barraneche	11	Noviembre	2023-11-21T00:00:00	2024-11-06T23:00:00	4	Temperatura máxima	14.3
62395	7	Sololá	701	Sololá	3	Barraneche	11	Noviembre	2023-11-21T00:00:00	2024-11-06T23:00:00	3	Temperatura mínima	12.8
62396	7	Sololá	701	Sololá	3	Barraneche	11	Noviembre	2023-11-21T00:00:00	2024-11-06T23:00:00	5	Humedad	43
62397	7	Sololá	701	Sololá	3	Barraneche	11	Noviembre	2023-11-21T00:00:00	2024-11-06T23:00:00	6	Velocidad del viento	4.8
62398	7	Sololá	701	Sololá	3	Barraneche	11	Noviembre	2023-11-21T00:00:00	2024-11-06T23:00:00	7	Dirección del viento	4.83
62399	7	Sololá	701	Sololá	3	Barraneche	11	Noviembre	2023-11-21T00:00:00	2024-11-06T23:00:00	1	Precipitación	0
62400	7	Sololá	701	Sololá	3	Barraneche	11	Noviembre	2023-11-21T00:00:00	2024-11-06T23:00:00	8	Radiación solar	0
62401	7	Sololá	701	Sololá	3	Barraneche	11	Noviembre	2023-11-22T00:00:00	2024-11-06T00:00:00	2	Temperatura media	15.2
62402	7	Sololá	701	Sololá	3	Barraneche	11	Noviembre	2023-11-22T00:00:00	2024-11-06T00:00:00	4	Temperatura máxima	15.3
62403	7	Sololá	701	Sololá	3	Barraneche	11	Noviembre	2023-11-22T00:00:00	2024-11-06T00:00:00	3	Temperatura mínima	13
62404	7	Sololá	701	Sololá	3	Barraneche	11	Noviembre	2023-11-22T00:00:00	2024-11-06T00:00:00	5	Humedad	33
62405	7	Sololá	701	Sololá	3	Barraneche	11	Noviembre	2023-11-22T00:00:00	2024-11-06T00:00:00	6	Velocidad del viento	11.3
62406	7	Sololá	701	Sololá	3	Barraneche	11	Noviembre	2023-11-22T00:00:00	2024-11-06T00:00:00	7	Dirección del viento	11.27
62407	7	Sololá	701	Sololá	3	Barraneche	11	Noviembre	2023-11-22T00:00:00	2024-11-06T00:00:00	1	Precipitación	0
62408	7	Sololá	701	Sololá	3	Barraneche	11	Noviembre	2023-11-22T00:00:00	2024-11-06T00:00:00	8	Radiación solar	0
62409	7	Sololá	701	Sololá	3	Barraneche	11	Noviembre	2023-11-22T00:00:00	2024-11-06T01:00:00	2	Temperatura media	14.4
62410	7	Sololá	701	Sololá	3	Barraneche	11	Noviembre	2023-11-22T00:00:00	2024-11-06T01:00:00	4	Temperatura máxima	15.2
62411	7	Sololá	701	Sololá	3	Barraneche	11	Noviembre	2023-11-22T00:00:00	2024-11-06T01:00:00	3	Temperatura mínima	13.8
62412	7	Sololá	701	Sololá	3	Barraneche	11	Noviembre	2023-11-22T00:00:00	2024-11-06T01:00:00	5	Humedad	42
62413	7	Sololá	701	Sololá	3	Barraneche	11	Noviembre	2023-11-22T00:00:00	2024-11-06T01:00:00	6	Velocidad del viento	11.3
62414	7	Sololá	701	Sololá	3	Barraneche	11	Noviembre	2023-11-22T00:00:00	2024-11-06T01:00:00	7	Dirección del viento	11.27
62415	7	Sololá	701	Sololá	3	Barraneche	11	Noviembre	2023-11-22T00:00:00	2024-11-06T01:00:00	1	Precipitación	0
62416	7	Sololá	701	Sololá	3	Barraneche	11	Noviembre	2023-11-22T00:00:00	2024-11-06T01:00:00	8	Radiación solar	0
62417	7	Sololá	701	Sololá	3	Barraneche	11	Noviembre	2023-11-22T00:00:00	2024-11-06T02:00:00	2	Temperatura media	14.1
62418	7	Sololá	701	Sololá	3	Barraneche	11	Noviembre	2023-11-22T00:00:00	2024-11-06T02:00:00	4	Temperatura máxima	14.6
62419	7	Sololá	701	Sololá	3	Barraneche	11	Noviembre	2023-11-22T00:00:00	2024-11-06T02:00:00	3	Temperatura mínima	13.9
62420	7	Sololá	701	Sololá	3	Barraneche	11	Noviembre	2023-11-22T00:00:00	2024-11-06T02:00:00	5	Humedad	48
62421	7	Sololá	701	Sololá	3	Barraneche	11	Noviembre	2023-11-22T00:00:00	2024-11-06T02:00:00	6	Velocidad del viento	14.5
62422	7	Sololá	701	Sololá	3	Barraneche	11	Noviembre	2023-11-22T00:00:00	2024-11-06T02:00:00	7	Dirección del viento	14.48
62423	7	Sololá	701	Sololá	3	Barraneche	11	Noviembre	2023-11-22T00:00:00	2024-11-06T02:00:00	1	Precipitación	0
62424	7	Sololá	701	Sololá	3	Barraneche	11	Noviembre	2023-11-22T00:00:00	2024-11-06T02:00:00	8	Radiación solar	0
62425	7	Sololá	701	Sololá	3	Barraneche	11	Noviembre	2023-11-22T00:00:00	2024-11-06T03:00:00	2	Temperatura media	14.6
62426	7	Sololá	701	Sololá	3	Barraneche	11	Noviembre	2023-11-22T00:00:00	2024-11-06T03:00:00	4	Temperatura máxima	14.6
62427	7	Sololá	701	Sololá	3	Barraneche	11	Noviembre	2023-11-22T00:00:00	2024-11-06T03:00:00	3	Temperatura mínima	13.9
62428	7	Sololá	701	Sololá	3	Barraneche	11	Noviembre	2023-11-22T00:00:00	2024-11-06T03:00:00	5	Humedad	55
62429	7	Sololá	701	Sololá	3	Barraneche	11	Noviembre	2023-11-22T00:00:00	2024-11-06T03:00:00	6	Velocidad del viento	16.1
62430	7	Sololá	701	Sololá	3	Barraneche	11	Noviembre	2023-11-22T00:00:00	2024-11-06T03:00:00	7	Dirección del viento	16.09
62431	7	Sololá	701	Sololá	3	Barraneche	11	Noviembre	2023-11-22T00:00:00	2024-11-06T03:00:00	1	Precipitación	0
62432	7	Sololá	701	Sololá	3	Barraneche	11	Noviembre	2023-11-22T00:00:00	2024-11-06T03:00:00	8	Radiación solar	0
62433	7	Sololá	701	Sololá	3	Barraneche	11	Noviembre	2023-11-22T00:00:00	2024-11-06T04:00:00	2	Temperatura media	14.8
62434	7	Sololá	701	Sololá	3	Barraneche	11	Noviembre	2023-11-22T00:00:00	2024-11-06T04:00:00	4	Temperatura máxima	14.8
62435	7	Sololá	701	Sololá	3	Barraneche	11	Noviembre	2023-11-22T00:00:00	2024-11-06T04:00:00	3	Temperatura mínima	14
62436	7	Sololá	701	Sololá	3	Barraneche	11	Noviembre	2023-11-22T00:00:00	2024-11-06T04:00:00	5	Humedad	56
62437	7	Sololá	701	Sololá	3	Barraneche	11	Noviembre	2023-11-22T00:00:00	2024-11-06T04:00:00	6	Velocidad del viento	17.7
62438	7	Sololá	701	Sololá	3	Barraneche	11	Noviembre	2023-11-22T00:00:00	2024-11-06T04:00:00	7	Dirección del viento	17.7
62439	7	Sololá	701	Sololá	3	Barraneche	11	Noviembre	2023-11-22T00:00:00	2024-11-06T04:00:00	1	Precipitación	0
62440	7	Sololá	701	Sololá	3	Barraneche	11	Noviembre	2023-11-22T00:00:00	2024-11-06T04:00:00	8	Radiación solar	0
62441	7	Sololá	701	Sololá	3	Barraneche	11	Noviembre	2023-11-22T00:00:00	2024-11-06T05:00:00	2	Temperatura media	14.9
62442	7	Sololá	701	Sololá	3	Barraneche	11	Noviembre	2023-11-22T00:00:00	2024-11-06T05:00:00	4	Temperatura máxima	15.1
62443	7	Sololá	701	Sololá	3	Barraneche	11	Noviembre	2023-11-22T00:00:00	2024-11-06T05:00:00	3	Temperatura mínima	14.7
62444	7	Sololá	701	Sololá	3	Barraneche	11	Noviembre	2023-11-22T00:00:00	2024-11-06T05:00:00	5	Humedad	58
62445	7	Sololá	701	Sololá	3	Barraneche	11	Noviembre	2023-11-22T00:00:00	2024-11-06T05:00:00	6	Velocidad del viento	19.3
62446	7	Sololá	701	Sololá	3	Barraneche	11	Noviembre	2023-11-22T00:00:00	2024-11-06T05:00:00	7	Dirección del viento	19.31
62447	7	Sololá	701	Sololá	3	Barraneche	11	Noviembre	2023-11-22T00:00:00	2024-11-06T05:00:00	1	Precipitación	0
62448	7	Sololá	701	Sololá	3	Barraneche	11	Noviembre	2023-11-22T00:00:00	2024-11-06T05:00:00	8	Radiación solar	0
62449	7	Sololá	701	Sololá	3	Barraneche	11	Noviembre	2023-11-22T00:00:00	2024-11-06T06:00:00	2	Temperatura media	14.5
62450	7	Sololá	701	Sololá	3	Barraneche	11	Noviembre	2023-11-22T00:00:00	2024-11-06T06:00:00	4	Temperatura máxima	15.1
62451	7	Sololá	701	Sololá	3	Barraneche	11	Noviembre	2023-11-22T00:00:00	2024-11-06T06:00:00	3	Temperatura mínima	14.4
62452	7	Sololá	701	Sololá	3	Barraneche	11	Noviembre	2023-11-22T00:00:00	2024-11-06T06:00:00	5	Humedad	58
62453	7	Sololá	701	Sololá	3	Barraneche	11	Noviembre	2023-11-22T00:00:00	2024-11-06T06:00:00	6	Velocidad del viento	19.3
62454	7	Sololá	701	Sololá	3	Barraneche	11	Noviembre	2023-11-22T00:00:00	2024-11-06T06:00:00	7	Dirección del viento	19.31
62455	7	Sololá	701	Sololá	3	Barraneche	11	Noviembre	2023-11-22T00:00:00	2024-11-06T06:00:00	1	Precipitación	0
62456	7	Sololá	701	Sololá	3	Barraneche	11	Noviembre	2023-11-22T00:00:00	2024-11-06T06:00:00	8	Radiación solar	0
62457	7	Sololá	701	Sololá	3	Barraneche	11	Noviembre	2023-11-22T00:00:00	2024-11-06T07:00:00	2	Temperatura media	15.6
62458	7	Sololá	701	Sololá	3	Barraneche	11	Noviembre	2023-11-22T00:00:00	2024-11-06T07:00:00	4	Temperatura máxima	15.6
62459	7	Sololá	701	Sololá	3	Barraneche	11	Noviembre	2023-11-22T00:00:00	2024-11-06T07:00:00	3	Temperatura mínima	14.5
62460	7	Sololá	701	Sololá	3	Barraneche	11	Noviembre	2023-11-22T00:00:00	2024-11-06T07:00:00	5	Humedad	57
62461	7	Sololá	701	Sololá	3	Barraneche	11	Noviembre	2023-11-22T00:00:00	2024-11-06T07:00:00	6	Velocidad del viento	22.5
62462	7	Sololá	701	Sololá	3	Barraneche	11	Noviembre	2023-11-22T00:00:00	2024-11-06T07:00:00	7	Dirección del viento	22.53
62463	7	Sololá	701	Sololá	3	Barraneche	11	Noviembre	2023-11-22T00:00:00	2024-11-06T07:00:00	1	Precipitación	0
62464	7	Sololá	701	Sololá	3	Barraneche	11	Noviembre	2023-11-22T00:00:00	2024-11-06T07:00:00	8	Radiación solar	26
62465	7	Sololá	701	Sololá	3	Barraneche	11	Noviembre	2023-11-22T00:00:00	2024-11-06T08:00:00	2	Temperatura media	16.9
62466	7	Sololá	701	Sololá	3	Barraneche	11	Noviembre	2023-11-22T00:00:00	2024-11-06T08:00:00	4	Temperatura máxima	16.9
62467	7	Sololá	701	Sololá	3	Barraneche	11	Noviembre	2023-11-22T00:00:00	2024-11-06T08:00:00	3	Temperatura mínima	15.6
62468	7	Sololá	701	Sololá	3	Barraneche	11	Noviembre	2023-11-22T00:00:00	2024-11-06T08:00:00	5	Humedad	55
62469	7	Sololá	701	Sololá	3	Barraneche	11	Noviembre	2023-11-22T00:00:00	2024-11-06T08:00:00	6	Velocidad del viento	22.5
62470	7	Sololá	701	Sololá	3	Barraneche	11	Noviembre	2023-11-22T00:00:00	2024-11-06T08:00:00	7	Dirección del viento	22.53
62471	7	Sololá	701	Sololá	3	Barraneche	11	Noviembre	2023-11-22T00:00:00	2024-11-06T08:00:00	1	Precipitación	0
62472	7	Sololá	701	Sololá	3	Barraneche	11	Noviembre	2023-11-22T00:00:00	2024-11-06T08:00:00	8	Radiación solar	258
62473	7	Sololá	701	Sololá	3	Barraneche	11	Noviembre	2023-11-22T00:00:00	2024-11-06T09:00:00	2	Temperatura media	17.1
62474	7	Sololá	701	Sololá	3	Barraneche	11	Noviembre	2023-11-22T00:00:00	2024-11-06T09:00:00	4	Temperatura máxima	17.2
62475	7	Sololá	701	Sololá	3	Barraneche	11	Noviembre	2023-11-22T00:00:00	2024-11-06T09:00:00	3	Temperatura mínima	16.7
62476	7	Sololá	701	Sololá	3	Barraneche	11	Noviembre	2023-11-22T00:00:00	2024-11-06T09:00:00	5	Humedad	55
62477	7	Sololá	701	Sololá	3	Barraneche	11	Noviembre	2023-11-22T00:00:00	2024-11-06T09:00:00	6	Velocidad del viento	25.7
62478	7	Sololá	701	Sololá	3	Barraneche	11	Noviembre	2023-11-22T00:00:00	2024-11-06T09:00:00	7	Dirección del viento	25.75
62479	7	Sololá	701	Sololá	3	Barraneche	11	Noviembre	2023-11-22T00:00:00	2024-11-06T09:00:00	1	Precipitación	0
62480	7	Sololá	701	Sololá	3	Barraneche	11	Noviembre	2023-11-22T00:00:00	2024-11-06T09:00:00	8	Radiación solar	499
62481	7	Sololá	701	Sololá	3	Barraneche	11	Noviembre	2023-11-22T00:00:00	2024-11-06T10:00:00	2	Temperatura media	17.2
62482	7	Sololá	701	Sololá	3	Barraneche	11	Noviembre	2023-11-22T00:00:00	2024-11-06T10:00:00	4	Temperatura máxima	17.7
62483	7	Sololá	701	Sololá	3	Barraneche	11	Noviembre	2023-11-22T00:00:00	2024-11-06T10:00:00	3	Temperatura mínima	17.1
62484	7	Sololá	701	Sololá	3	Barraneche	11	Noviembre	2023-11-22T00:00:00	2024-11-06T10:00:00	5	Humedad	55
62485	7	Sololá	701	Sololá	3	Barraneche	11	Noviembre	2023-11-22T00:00:00	2024-11-06T10:00:00	6	Velocidad del viento	27.4
62486	7	Sololá	701	Sololá	3	Barraneche	11	Noviembre	2023-11-22T00:00:00	2024-11-06T10:00:00	7	Dirección del viento	27.36
62487	7	Sololá	701	Sololá	3	Barraneche	11	Noviembre	2023-11-22T00:00:00	2024-11-06T10:00:00	1	Precipitación	0
62488	7	Sololá	701	Sololá	3	Barraneche	11	Noviembre	2023-11-22T00:00:00	2024-11-06T10:00:00	8	Radiación solar	692
62489	7	Sololá	701	Sololá	3	Barraneche	11	Noviembre	2023-11-22T00:00:00	2024-11-06T11:00:00	2	Temperatura media	17.3
62490	7	Sololá	701	Sololá	3	Barraneche	11	Noviembre	2023-11-22T00:00:00	2024-11-06T11:00:00	4	Temperatura máxima	17.3
62491	7	Sololá	701	Sololá	3	Barraneche	11	Noviembre	2023-11-22T00:00:00	2024-11-06T11:00:00	3	Temperatura mínima	16.8
62492	7	Sololá	701	Sololá	3	Barraneche	11	Noviembre	2023-11-22T00:00:00	2024-11-06T11:00:00	5	Humedad	55
62493	7	Sololá	701	Sololá	3	Barraneche	11	Noviembre	2023-11-22T00:00:00	2024-11-06T11:00:00	6	Velocidad del viento	32.2
62494	7	Sololá	701	Sololá	3	Barraneche	11	Noviembre	2023-11-22T00:00:00	2024-11-06T11:00:00	7	Dirección del viento	32.19
62495	7	Sololá	701	Sololá	3	Barraneche	11	Noviembre	2023-11-22T00:00:00	2024-11-06T11:00:00	1	Precipitación	0
62496	7	Sololá	701	Sololá	3	Barraneche	11	Noviembre	2023-11-22T00:00:00	2024-11-06T11:00:00	8	Radiación solar	822
62497	7	Sololá	701	Sololá	3	Barraneche	11	Noviembre	2023-11-22T00:00:00	2024-11-06T12:00:00	2	Temperatura media	16.9
62498	7	Sololá	701	Sololá	3	Barraneche	11	Noviembre	2023-11-22T00:00:00	2024-11-06T12:00:00	4	Temperatura máxima	17.2
62499	7	Sololá	701	Sololá	3	Barraneche	11	Noviembre	2023-11-22T00:00:00	2024-11-06T12:00:00	3	Temperatura mínima	16.6
62500	7	Sololá	701	Sololá	3	Barraneche	11	Noviembre	2023-11-22T00:00:00	2024-11-06T12:00:00	5	Humedad	56
62501	7	Sololá	701	Sololá	3	Barraneche	11	Noviembre	2023-11-22T00:00:00	2024-11-06T12:00:00	6	Velocidad del viento	32.2
62502	7	Sololá	701	Sololá	3	Barraneche	11	Noviembre	2023-11-22T00:00:00	2024-11-06T12:00:00	7	Dirección del viento	32.19
62503	7	Sololá	701	Sololá	3	Barraneche	11	Noviembre	2023-11-22T00:00:00	2024-11-06T12:00:00	1	Precipitación	0
62504	7	Sololá	701	Sololá	3	Barraneche	11	Noviembre	2023-11-22T00:00:00	2024-11-06T12:00:00	8	Radiación solar	883
62505	7	Sololá	701	Sololá	3	Barraneche	11	Noviembre	2023-11-22T00:00:00	2024-11-06T13:00:00	2	Temperatura media	16.9
62506	7	Sololá	701	Sololá	3	Barraneche	11	Noviembre	2023-11-22T00:00:00	2024-11-06T13:00:00	4	Temperatura máxima	17.3
62507	7	Sololá	701	Sololá	3	Barraneche	11	Noviembre	2023-11-22T00:00:00	2024-11-06T13:00:00	3	Temperatura mínima	16.5
62508	7	Sololá	701	Sololá	3	Barraneche	11	Noviembre	2023-11-22T00:00:00	2024-11-06T13:00:00	5	Humedad	55
62509	7	Sololá	701	Sololá	3	Barraneche	11	Noviembre	2023-11-22T00:00:00	2024-11-06T13:00:00	6	Velocidad del viento	29
62510	7	Sololá	701	Sololá	3	Barraneche	11	Noviembre	2023-11-22T00:00:00	2024-11-06T13:00:00	7	Dirección del viento	28.97
62511	7	Sololá	701	Sololá	3	Barraneche	11	Noviembre	2023-11-22T00:00:00	2024-11-06T13:00:00	1	Precipitación	0
62512	7	Sololá	701	Sololá	3	Barraneche	11	Noviembre	2023-11-22T00:00:00	2024-11-06T13:00:00	8	Radiación solar	807
62513	7	Sololá	701	Sololá	3	Barraneche	11	Noviembre	2023-11-22T00:00:00	2024-11-06T14:00:00	2	Temperatura media	17.1
62514	7	Sololá	701	Sololá	3	Barraneche	11	Noviembre	2023-11-22T00:00:00	2024-11-06T14:00:00	4	Temperatura máxima	17.2
62515	7	Sololá	701	Sololá	3	Barraneche	11	Noviembre	2023-11-22T00:00:00	2024-11-06T14:00:00	3	Temperatura mínima	16.3
62516	7	Sololá	701	Sololá	3	Barraneche	11	Noviembre	2023-11-22T00:00:00	2024-11-06T14:00:00	5	Humedad	55
62517	7	Sololá	701	Sololá	3	Barraneche	11	Noviembre	2023-11-22T00:00:00	2024-11-06T14:00:00	6	Velocidad del viento	25.7
62518	7	Sololá	701	Sololá	3	Barraneche	11	Noviembre	2023-11-22T00:00:00	2024-11-06T14:00:00	7	Dirección del viento	25.75
62519	7	Sololá	701	Sololá	3	Barraneche	11	Noviembre	2023-11-22T00:00:00	2024-11-06T14:00:00	1	Precipitación	0
62520	7	Sololá	701	Sololá	3	Barraneche	11	Noviembre	2023-11-22T00:00:00	2024-11-06T14:00:00	8	Radiación solar	669
62521	7	Sololá	701	Sololá	3	Barraneche	11	Noviembre	2023-11-22T00:00:00	2024-11-06T15:00:00	2	Temperatura media	16.8
62522	7	Sololá	701	Sololá	3	Barraneche	11	Noviembre	2023-11-22T00:00:00	2024-11-06T15:00:00	4	Temperatura máxima	17.4
62523	7	Sololá	701	Sololá	3	Barraneche	11	Noviembre	2023-11-22T00:00:00	2024-11-06T15:00:00	3	Temperatura mínima	16.8
62524	7	Sololá	701	Sololá	3	Barraneche	11	Noviembre	2023-11-22T00:00:00	2024-11-06T15:00:00	5	Humedad	57
62525	7	Sololá	701	Sololá	3	Barraneche	11	Noviembre	2023-11-22T00:00:00	2024-11-06T15:00:00	6	Velocidad del viento	27.4
62526	7	Sololá	701	Sololá	3	Barraneche	11	Noviembre	2023-11-22T00:00:00	2024-11-06T15:00:00	7	Dirección del viento	27.36
62527	7	Sololá	701	Sololá	3	Barraneche	11	Noviembre	2023-11-22T00:00:00	2024-11-06T15:00:00	1	Precipitación	0
62528	7	Sololá	701	Sololá	3	Barraneche	11	Noviembre	2023-11-22T00:00:00	2024-11-06T15:00:00	8	Radiación solar	591
62529	7	Sololá	701	Sololá	3	Barraneche	11	Noviembre	2023-11-22T00:00:00	2024-11-06T16:00:00	2	Temperatura media	15.8
62530	7	Sololá	701	Sololá	3	Barraneche	11	Noviembre	2023-11-22T00:00:00	2024-11-06T16:00:00	4	Temperatura máxima	17
62531	7	Sololá	701	Sololá	3	Barraneche	11	Noviembre	2023-11-22T00:00:00	2024-11-06T16:00:00	3	Temperatura mínima	15.8
62532	7	Sololá	701	Sololá	3	Barraneche	11	Noviembre	2023-11-22T00:00:00	2024-11-06T16:00:00	5	Humedad	61
62533	7	Sololá	701	Sololá	3	Barraneche	11	Noviembre	2023-11-22T00:00:00	2024-11-06T16:00:00	6	Velocidad del viento	25.7
62534	7	Sololá	701	Sololá	3	Barraneche	11	Noviembre	2023-11-22T00:00:00	2024-11-06T16:00:00	7	Dirección del viento	25.75
62535	7	Sololá	701	Sololá	3	Barraneche	11	Noviembre	2023-11-22T00:00:00	2024-11-06T16:00:00	1	Precipitación	0
62536	7	Sololá	701	Sololá	3	Barraneche	11	Noviembre	2023-11-22T00:00:00	2024-11-06T16:00:00	8	Radiación solar	359
62537	7	Sololá	701	Sololá	3	Barraneche	11	Noviembre	2023-11-22T00:00:00	2024-11-06T17:00:00	2	Temperatura media	14.9
62538	7	Sololá	701	Sololá	3	Barraneche	11	Noviembre	2023-11-22T00:00:00	2024-11-06T17:00:00	4	Temperatura máxima	15.8
62539	7	Sololá	701	Sololá	3	Barraneche	11	Noviembre	2023-11-22T00:00:00	2024-11-06T17:00:00	3	Temperatura mínima	14.8
62540	7	Sololá	701	Sololá	3	Barraneche	11	Noviembre	2023-11-22T00:00:00	2024-11-06T17:00:00	5	Humedad	64
62541	7	Sololá	701	Sololá	3	Barraneche	11	Noviembre	2023-11-22T00:00:00	2024-11-06T17:00:00	6	Velocidad del viento	24.1
62542	7	Sololá	701	Sololá	3	Barraneche	11	Noviembre	2023-11-22T00:00:00	2024-11-06T17:00:00	7	Dirección del viento	24.14
62543	7	Sololá	701	Sololá	3	Barraneche	11	Noviembre	2023-11-22T00:00:00	2024-11-06T17:00:00	1	Precipitación	0
62544	7	Sololá	701	Sololá	3	Barraneche	11	Noviembre	2023-11-22T00:00:00	2024-11-06T17:00:00	8	Radiación solar	83
62545	7	Sololá	701	Sololá	3	Barraneche	11	Noviembre	2023-11-22T00:00:00	2024-11-06T18:00:00	2	Temperatura media	14.1
62546	7	Sololá	701	Sololá	3	Barraneche	11	Noviembre	2023-11-22T00:00:00	2024-11-06T18:00:00	4	Temperatura máxima	14.9
62547	7	Sololá	701	Sololá	3	Barraneche	11	Noviembre	2023-11-22T00:00:00	2024-11-06T18:00:00	3	Temperatura mínima	14
62548	7	Sololá	701	Sololá	3	Barraneche	11	Noviembre	2023-11-22T00:00:00	2024-11-06T18:00:00	5	Humedad	65
62549	7	Sololá	701	Sololá	3	Barraneche	11	Noviembre	2023-11-22T00:00:00	2024-11-06T18:00:00	6	Velocidad del viento	24.1
62550	7	Sololá	701	Sololá	3	Barraneche	11	Noviembre	2023-11-22T00:00:00	2024-11-06T18:00:00	7	Dirección del viento	24.14
62551	7	Sololá	701	Sololá	3	Barraneche	11	Noviembre	2023-11-22T00:00:00	2024-11-06T18:00:00	1	Precipitación	0
62552	7	Sololá	701	Sololá	3	Barraneche	11	Noviembre	2023-11-22T00:00:00	2024-11-06T18:00:00	8	Radiación solar	13
62553	7	Sololá	701	Sololá	3	Barraneche	11	Noviembre	2023-11-22T00:00:00	2024-11-06T19:00:00	2	Temperatura media	13.9
62554	7	Sololá	701	Sololá	3	Barraneche	11	Noviembre	2023-11-22T00:00:00	2024-11-06T19:00:00	4	Temperatura máxima	14.1
62555	7	Sololá	701	Sololá	3	Barraneche	11	Noviembre	2023-11-22T00:00:00	2024-11-06T19:00:00	3	Temperatura mínima	13.8
62556	7	Sololá	701	Sololá	3	Barraneche	11	Noviembre	2023-11-22T00:00:00	2024-11-06T19:00:00	5	Humedad	66
62557	7	Sololá	701	Sololá	3	Barraneche	11	Noviembre	2023-11-22T00:00:00	2024-11-06T19:00:00	6	Velocidad del viento	20.9
62558	7	Sololá	701	Sololá	3	Barraneche	11	Noviembre	2023-11-22T00:00:00	2024-11-06T19:00:00	7	Dirección del viento	20.92
62559	7	Sololá	701	Sololá	3	Barraneche	11	Noviembre	2023-11-22T00:00:00	2024-11-06T19:00:00	1	Precipitación	0
62560	7	Sololá	701	Sololá	3	Barraneche	11	Noviembre	2023-11-22T00:00:00	2024-11-06T19:00:00	8	Radiación solar	0
62561	7	Sololá	701	Sololá	3	Barraneche	11	Noviembre	2023-11-22T00:00:00	2024-11-06T20:00:00	2	Temperatura media	14
62562	7	Sololá	701	Sololá	3	Barraneche	11	Noviembre	2023-11-22T00:00:00	2024-11-06T20:00:00	4	Temperatura máxima	14.3
62563	7	Sololá	701	Sololá	3	Barraneche	11	Noviembre	2023-11-22T00:00:00	2024-11-06T20:00:00	3	Temperatura mínima	13.8
62564	7	Sololá	701	Sololá	3	Barraneche	11	Noviembre	2023-11-22T00:00:00	2024-11-06T20:00:00	5	Humedad	64
62565	7	Sololá	701	Sololá	3	Barraneche	11	Noviembre	2023-11-22T00:00:00	2024-11-06T20:00:00	6	Velocidad del viento	20.9
62566	7	Sololá	701	Sololá	3	Barraneche	11	Noviembre	2023-11-22T00:00:00	2024-11-06T20:00:00	7	Dirección del viento	20.92
62567	7	Sololá	701	Sololá	3	Barraneche	11	Noviembre	2023-11-22T00:00:00	2024-11-06T20:00:00	1	Precipitación	0
62568	7	Sololá	701	Sololá	3	Barraneche	11	Noviembre	2023-11-22T00:00:00	2024-11-06T20:00:00	8	Radiación solar	0
62569	7	Sololá	701	Sololá	3	Barraneche	11	Noviembre	2023-11-22T00:00:00	2024-11-06T21:00:00	2	Temperatura media	15
62570	7	Sololá	701	Sololá	3	Barraneche	11	Noviembre	2023-11-22T00:00:00	2024-11-06T21:00:00	4	Temperatura máxima	15
62571	7	Sololá	701	Sololá	3	Barraneche	11	Noviembre	2023-11-22T00:00:00	2024-11-06T21:00:00	3	Temperatura mínima	14
62572	7	Sololá	701	Sololá	3	Barraneche	11	Noviembre	2023-11-22T00:00:00	2024-11-06T21:00:00	5	Humedad	59
62573	7	Sololá	701	Sololá	3	Barraneche	11	Noviembre	2023-11-22T00:00:00	2024-11-06T21:00:00	6	Velocidad del viento	19.3
62574	7	Sololá	701	Sololá	3	Barraneche	11	Noviembre	2023-11-22T00:00:00	2024-11-06T21:00:00	7	Dirección del viento	19.31
62575	7	Sololá	701	Sololá	3	Barraneche	11	Noviembre	2023-11-22T00:00:00	2024-11-06T21:00:00	1	Precipitación	0
62576	7	Sololá	701	Sololá	3	Barraneche	11	Noviembre	2023-11-22T00:00:00	2024-11-06T21:00:00	8	Radiación solar	0
62577	7	Sololá	701	Sololá	3	Barraneche	11	Noviembre	2023-11-22T00:00:00	2024-11-06T22:00:00	2	Temperatura media	14.1
62578	7	Sololá	701	Sololá	3	Barraneche	11	Noviembre	2023-11-22T00:00:00	2024-11-06T22:00:00	4	Temperatura máxima	15.1
62579	7	Sololá	701	Sololá	3	Barraneche	11	Noviembre	2023-11-22T00:00:00	2024-11-06T22:00:00	3	Temperatura mínima	14.1
62580	7	Sololá	701	Sololá	3	Barraneche	11	Noviembre	2023-11-22T00:00:00	2024-11-06T22:00:00	5	Humedad	62
62581	7	Sololá	701	Sololá	3	Barraneche	11	Noviembre	2023-11-22T00:00:00	2024-11-06T22:00:00	6	Velocidad del viento	11.3
62582	7	Sololá	701	Sololá	3	Barraneche	11	Noviembre	2023-11-22T00:00:00	2024-11-06T22:00:00	7	Dirección del viento	11.27
62583	7	Sololá	701	Sololá	3	Barraneche	11	Noviembre	2023-11-22T00:00:00	2024-11-06T22:00:00	1	Precipitación	0
62584	7	Sololá	701	Sololá	3	Barraneche	11	Noviembre	2023-11-22T00:00:00	2024-11-06T22:00:00	8	Radiación solar	0
62585	7	Sololá	701	Sololá	3	Barraneche	11	Noviembre	2023-11-22T00:00:00	2024-11-06T23:00:00	2	Temperatura media	13.3
62586	7	Sololá	701	Sololá	3	Barraneche	11	Noviembre	2023-11-22T00:00:00	2024-11-06T23:00:00	4	Temperatura máxima	14.1
62587	7	Sololá	701	Sololá	3	Barraneche	11	Noviembre	2023-11-22T00:00:00	2024-11-06T23:00:00	3	Temperatura mínima	13.1
62588	7	Sololá	701	Sololá	3	Barraneche	11	Noviembre	2023-11-22T00:00:00	2024-11-06T23:00:00	5	Humedad	67
62589	7	Sololá	701	Sololá	3	Barraneche	11	Noviembre	2023-11-22T00:00:00	2024-11-06T23:00:00	6	Velocidad del viento	4.8
62590	7	Sololá	701	Sololá	3	Barraneche	11	Noviembre	2023-11-22T00:00:00	2024-11-06T23:00:00	7	Dirección del viento	4.83
62591	7	Sololá	701	Sololá	3	Barraneche	11	Noviembre	2023-11-22T00:00:00	2024-11-06T23:00:00	1	Precipitación	0
62592	7	Sololá	701	Sololá	3	Barraneche	11	Noviembre	2023-11-22T00:00:00	2024-11-06T23:00:00	8	Radiación solar	0
62593	7	Sololá	701	Sololá	3	Barraneche	11	Noviembre	2023-11-23T00:00:00	2024-11-06T00:00:00	2	Temperatura media	12.9
62594	7	Sololá	701	Sololá	3	Barraneche	11	Noviembre	2023-11-23T00:00:00	2024-11-06T00:00:00	4	Temperatura máxima	13.4
62595	7	Sololá	701	Sololá	3	Barraneche	11	Noviembre	2023-11-23T00:00:00	2024-11-06T00:00:00	3	Temperatura mínima	12.8
62596	7	Sololá	701	Sololá	3	Barraneche	11	Noviembre	2023-11-23T00:00:00	2024-11-06T00:00:00	5	Humedad	68
62597	7	Sololá	701	Sololá	3	Barraneche	11	Noviembre	2023-11-23T00:00:00	2024-11-06T00:00:00	6	Velocidad del viento	3.2
62598	7	Sololá	701	Sololá	3	Barraneche	11	Noviembre	2023-11-23T00:00:00	2024-11-06T00:00:00	7	Dirección del viento	3.22
62599	7	Sololá	701	Sololá	3	Barraneche	11	Noviembre	2023-11-23T00:00:00	2024-11-06T00:00:00	1	Precipitación	0
62600	7	Sololá	701	Sololá	3	Barraneche	11	Noviembre	2023-11-23T00:00:00	2024-11-06T00:00:00	8	Radiación solar	0
62601	7	Sololá	701	Sololá	3	Barraneche	11	Noviembre	2023-11-23T00:00:00	2024-11-06T01:00:00	2	Temperatura media	12.8
62602	7	Sololá	701	Sololá	3	Barraneche	11	Noviembre	2023-11-23T00:00:00	2024-11-06T01:00:00	4	Temperatura máxima	13.8
62603	7	Sololá	701	Sololá	3	Barraneche	11	Noviembre	2023-11-23T00:00:00	2024-11-06T01:00:00	3	Temperatura mínima	12.8
62604	7	Sololá	701	Sololá	3	Barraneche	11	Noviembre	2023-11-23T00:00:00	2024-11-06T01:00:00	5	Humedad	68
62605	7	Sololá	701	Sololá	3	Barraneche	11	Noviembre	2023-11-23T00:00:00	2024-11-06T01:00:00	6	Velocidad del viento	4.8
62606	7	Sololá	701	Sololá	3	Barraneche	11	Noviembre	2023-11-23T00:00:00	2024-11-06T01:00:00	7	Dirección del viento	4.83
62607	7	Sololá	701	Sololá	3	Barraneche	11	Noviembre	2023-11-23T00:00:00	2024-11-06T01:00:00	1	Precipitación	0
62608	7	Sololá	701	Sololá	3	Barraneche	11	Noviembre	2023-11-23T00:00:00	2024-11-06T01:00:00	8	Radiación solar	0
62609	7	Sololá	701	Sololá	3	Barraneche	11	Noviembre	2023-11-23T00:00:00	2024-11-06T02:00:00	2	Temperatura media	12.2
62610	7	Sololá	701	Sololá	3	Barraneche	11	Noviembre	2023-11-23T00:00:00	2024-11-06T02:00:00	4	Temperatura máxima	12.8
62611	7	Sololá	701	Sololá	3	Barraneche	11	Noviembre	2023-11-23T00:00:00	2024-11-06T02:00:00	3	Temperatura mínima	12.2
62612	7	Sololá	701	Sololá	3	Barraneche	11	Noviembre	2023-11-23T00:00:00	2024-11-06T02:00:00	5	Humedad	70
62613	7	Sololá	701	Sololá	3	Barraneche	11	Noviembre	2023-11-23T00:00:00	2024-11-06T02:00:00	6	Velocidad del viento	1.6
62614	7	Sololá	701	Sololá	3	Barraneche	11	Noviembre	2023-11-23T00:00:00	2024-11-06T02:00:00	7	Dirección del viento	1.61
62615	7	Sololá	701	Sololá	3	Barraneche	11	Noviembre	2023-11-23T00:00:00	2024-11-06T02:00:00	1	Precipitación	0
62616	7	Sololá	701	Sololá	3	Barraneche	11	Noviembre	2023-11-23T00:00:00	2024-11-06T02:00:00	8	Radiación solar	0
62617	7	Sololá	701	Sololá	3	Barraneche	11	Noviembre	2023-11-23T00:00:00	2024-11-06T03:00:00	2	Temperatura media	11.6
62618	7	Sololá	701	Sololá	3	Barraneche	11	Noviembre	2023-11-23T00:00:00	2024-11-06T03:00:00	4	Temperatura máxima	12.2
62619	7	Sololá	701	Sololá	3	Barraneche	11	Noviembre	2023-11-23T00:00:00	2024-11-06T03:00:00	3	Temperatura mínima	10.9
62620	7	Sololá	701	Sololá	3	Barraneche	11	Noviembre	2023-11-23T00:00:00	2024-11-06T03:00:00	5	Humedad	67
62621	7	Sololá	701	Sololá	3	Barraneche	11	Noviembre	2023-11-23T00:00:00	2024-11-06T03:00:00	6	Velocidad del viento	3.2
62622	7	Sololá	701	Sololá	3	Barraneche	11	Noviembre	2023-11-23T00:00:00	2024-11-06T03:00:00	7	Dirección del viento	3.22
62623	7	Sololá	701	Sololá	3	Barraneche	11	Noviembre	2023-11-23T00:00:00	2024-11-06T03:00:00	1	Precipitación	0
62624	7	Sololá	701	Sololá	3	Barraneche	11	Noviembre	2023-11-23T00:00:00	2024-11-06T03:00:00	8	Radiación solar	0
62625	7	Sololá	701	Sololá	3	Barraneche	11	Noviembre	2023-11-23T00:00:00	2024-11-06T04:00:00	2	Temperatura media	11.9
62626	7	Sololá	701	Sololá	3	Barraneche	11	Noviembre	2023-11-23T00:00:00	2024-11-06T04:00:00	4	Temperatura máxima	12.8
62627	7	Sololá	701	Sololá	3	Barraneche	11	Noviembre	2023-11-23T00:00:00	2024-11-06T04:00:00	3	Temperatura mínima	11.4
62628	7	Sololá	701	Sololá	3	Barraneche	11	Noviembre	2023-11-23T00:00:00	2024-11-06T04:00:00	5	Humedad	65
62629	7	Sololá	701	Sololá	3	Barraneche	11	Noviembre	2023-11-23T00:00:00	2024-11-06T04:00:00	6	Velocidad del viento	4.8
62630	7	Sololá	701	Sololá	3	Barraneche	11	Noviembre	2023-11-23T00:00:00	2024-11-06T04:00:00	7	Dirección del viento	4.83
62631	7	Sololá	701	Sololá	3	Barraneche	11	Noviembre	2023-11-23T00:00:00	2024-11-06T04:00:00	1	Precipitación	0
62632	7	Sololá	701	Sololá	3	Barraneche	11	Noviembre	2023-11-23T00:00:00	2024-11-06T04:00:00	8	Radiación solar	0
62633	7	Sololá	701	Sololá	3	Barraneche	11	Noviembre	2023-11-23T00:00:00	2024-11-06T05:00:00	2	Temperatura media	11.6
62634	7	Sololá	701	Sololá	3	Barraneche	11	Noviembre	2023-11-23T00:00:00	2024-11-06T05:00:00	4	Temperatura máxima	12.1
62635	7	Sololá	701	Sololá	3	Barraneche	11	Noviembre	2023-11-23T00:00:00	2024-11-06T05:00:00	3	Temperatura mínima	11.3
62636	7	Sololá	701	Sololá	3	Barraneche	11	Noviembre	2023-11-23T00:00:00	2024-11-06T05:00:00	5	Humedad	64
62637	7	Sololá	701	Sololá	3	Barraneche	11	Noviembre	2023-11-23T00:00:00	2024-11-06T05:00:00	6	Velocidad del viento	4.8
62638	7	Sololá	701	Sololá	3	Barraneche	11	Noviembre	2023-11-23T00:00:00	2024-11-06T05:00:00	7	Dirección del viento	4.83
62639	7	Sololá	701	Sololá	3	Barraneche	11	Noviembre	2023-11-23T00:00:00	2024-11-06T05:00:00	1	Precipitación	0
62640	7	Sololá	701	Sololá	3	Barraneche	11	Noviembre	2023-11-23T00:00:00	2024-11-06T05:00:00	8	Radiación solar	0
62641	7	Sololá	701	Sololá	3	Barraneche	11	Noviembre	2023-11-23T00:00:00	2024-11-06T06:00:00	2	Temperatura media	10.6
62642	7	Sololá	701	Sololá	3	Barraneche	11	Noviembre	2023-11-23T00:00:00	2024-11-06T06:00:00	4	Temperatura máxima	11.6
62643	7	Sololá	701	Sololá	3	Barraneche	11	Noviembre	2023-11-23T00:00:00	2024-11-06T06:00:00	3	Temperatura mínima	10.6
62644	7	Sololá	701	Sololá	3	Barraneche	11	Noviembre	2023-11-23T00:00:00	2024-11-06T06:00:00	5	Humedad	66
62645	7	Sololá	701	Sololá	3	Barraneche	11	Noviembre	2023-11-23T00:00:00	2024-11-06T06:00:00	6	Velocidad del viento	4.8
62646	7	Sololá	701	Sololá	3	Barraneche	11	Noviembre	2023-11-23T00:00:00	2024-11-06T06:00:00	7	Dirección del viento	4.83
62647	7	Sololá	701	Sololá	3	Barraneche	11	Noviembre	2023-11-23T00:00:00	2024-11-06T06:00:00	1	Precipitación	0
62648	7	Sololá	701	Sololá	3	Barraneche	11	Noviembre	2023-11-23T00:00:00	2024-11-06T06:00:00	8	Radiación solar	0
62649	7	Sololá	701	Sololá	3	Barraneche	11	Noviembre	2023-11-23T00:00:00	2024-11-06T07:00:00	2	Temperatura media	11.6
62650	7	Sololá	701	Sololá	3	Barraneche	11	Noviembre	2023-11-23T00:00:00	2024-11-06T07:00:00	4	Temperatura máxima	11.6
62651	7	Sololá	701	Sololá	3	Barraneche	11	Noviembre	2023-11-23T00:00:00	2024-11-06T07:00:00	3	Temperatura mínima	10.1
62652	7	Sololá	701	Sololá	3	Barraneche	11	Noviembre	2023-11-23T00:00:00	2024-11-06T07:00:00	5	Humedad	68
62653	7	Sololá	701	Sololá	3	Barraneche	11	Noviembre	2023-11-23T00:00:00	2024-11-06T07:00:00	6	Velocidad del viento	3.2
62654	7	Sololá	701	Sololá	3	Barraneche	11	Noviembre	2023-11-23T00:00:00	2024-11-06T07:00:00	7	Dirección del viento	3.22
62655	7	Sololá	701	Sololá	3	Barraneche	11	Noviembre	2023-11-23T00:00:00	2024-11-06T07:00:00	1	Precipitación	0
62656	7	Sololá	701	Sololá	3	Barraneche	11	Noviembre	2023-11-23T00:00:00	2024-11-06T07:00:00	8	Radiación solar	26
62657	7	Sololá	701	Sololá	3	Barraneche	11	Noviembre	2023-11-23T00:00:00	2024-11-06T08:00:00	2	Temperatura media	15.2
62658	7	Sololá	701	Sololá	3	Barraneche	11	Noviembre	2023-11-23T00:00:00	2024-11-06T08:00:00	4	Temperatura máxima	15.2
62659	7	Sololá	701	Sololá	3	Barraneche	11	Noviembre	2023-11-23T00:00:00	2024-11-06T08:00:00	3	Temperatura mínima	11.6
62660	7	Sololá	701	Sololá	3	Barraneche	11	Noviembre	2023-11-23T00:00:00	2024-11-06T08:00:00	5	Humedad	58
62661	7	Sololá	701	Sololá	3	Barraneche	11	Noviembre	2023-11-23T00:00:00	2024-11-06T08:00:00	6	Velocidad del viento	3.2
62662	7	Sololá	701	Sololá	3	Barraneche	11	Noviembre	2023-11-23T00:00:00	2024-11-06T08:00:00	7	Dirección del viento	3.22
62663	7	Sololá	701	Sololá	3	Barraneche	11	Noviembre	2023-11-23T00:00:00	2024-11-06T08:00:00	1	Precipitación	0
62664	7	Sololá	701	Sololá	3	Barraneche	11	Noviembre	2023-11-23T00:00:00	2024-11-06T08:00:00	8	Radiación solar	248
62665	7	Sololá	701	Sololá	3	Barraneche	11	Noviembre	2023-11-23T00:00:00	2024-11-06T09:00:00	2	Temperatura media	17
62666	7	Sololá	701	Sololá	3	Barraneche	11	Noviembre	2023-11-23T00:00:00	2024-11-06T09:00:00	4	Temperatura máxima	17.2
62667	7	Sololá	701	Sololá	3	Barraneche	11	Noviembre	2023-11-23T00:00:00	2024-11-06T09:00:00	3	Temperatura mínima	15.2
62668	7	Sololá	701	Sololá	3	Barraneche	11	Noviembre	2023-11-23T00:00:00	2024-11-06T09:00:00	5	Humedad	58
62669	7	Sololá	701	Sololá	3	Barraneche	11	Noviembre	2023-11-23T00:00:00	2024-11-06T09:00:00	6	Velocidad del viento	6.4
62670	7	Sololá	701	Sololá	3	Barraneche	11	Noviembre	2023-11-23T00:00:00	2024-11-06T09:00:00	7	Dirección del viento	6.44
62671	7	Sololá	701	Sololá	3	Barraneche	11	Noviembre	2023-11-23T00:00:00	2024-11-06T09:00:00	1	Precipitación	0
62672	7	Sololá	701	Sololá	3	Barraneche	11	Noviembre	2023-11-23T00:00:00	2024-11-06T09:00:00	8	Radiación solar	478
62673	7	Sololá	701	Sololá	3	Barraneche	11	Noviembre	2023-11-23T00:00:00	2024-11-06T10:00:00	2	Temperatura media	17.8
62674	7	Sololá	701	Sololá	3	Barraneche	11	Noviembre	2023-11-23T00:00:00	2024-11-06T10:00:00	4	Temperatura máxima	18.3
62675	7	Sololá	701	Sololá	3	Barraneche	11	Noviembre	2023-11-23T00:00:00	2024-11-06T10:00:00	3	Temperatura mínima	16.9
62676	7	Sololá	701	Sololá	3	Barraneche	11	Noviembre	2023-11-23T00:00:00	2024-11-06T10:00:00	5	Humedad	55
62677	7	Sololá	701	Sololá	3	Barraneche	11	Noviembre	2023-11-23T00:00:00	2024-11-06T10:00:00	6	Velocidad del viento	9.7
62678	7	Sololá	701	Sololá	3	Barraneche	11	Noviembre	2023-11-23T00:00:00	2024-11-06T10:00:00	7	Dirección del viento	9.66
62679	7	Sololá	701	Sololá	3	Barraneche	11	Noviembre	2023-11-23T00:00:00	2024-11-06T10:00:00	1	Precipitación	0
62680	7	Sololá	701	Sololá	3	Barraneche	11	Noviembre	2023-11-23T00:00:00	2024-11-06T10:00:00	8	Radiación solar	671
62681	7	Sololá	701	Sololá	3	Barraneche	11	Noviembre	2023-11-23T00:00:00	2024-11-06T11:00:00	2	Temperatura media	18.2
62682	7	Sololá	701	Sololá	3	Barraneche	11	Noviembre	2023-11-23T00:00:00	2024-11-06T11:00:00	4	Temperatura máxima	18.3
62683	7	Sololá	701	Sololá	3	Barraneche	11	Noviembre	2023-11-23T00:00:00	2024-11-06T11:00:00	3	Temperatura mínima	17.3
62684	7	Sololá	701	Sololá	3	Barraneche	11	Noviembre	2023-11-23T00:00:00	2024-11-06T11:00:00	5	Humedad	55
62685	7	Sololá	701	Sololá	3	Barraneche	11	Noviembre	2023-11-23T00:00:00	2024-11-06T11:00:00	6	Velocidad del viento	14.5
62686	7	Sololá	701	Sololá	3	Barraneche	11	Noviembre	2023-11-23T00:00:00	2024-11-06T11:00:00	7	Dirección del viento	14.48
62687	7	Sololá	701	Sololá	3	Barraneche	11	Noviembre	2023-11-23T00:00:00	2024-11-06T11:00:00	1	Precipitación	0
62688	7	Sololá	701	Sololá	3	Barraneche	11	Noviembre	2023-11-23T00:00:00	2024-11-06T11:00:00	8	Radiación solar	809
62689	7	Sololá	701	Sololá	3	Barraneche	11	Noviembre	2023-11-23T00:00:00	2024-11-06T12:00:00	2	Temperatura media	18.3
62690	7	Sololá	701	Sololá	3	Barraneche	11	Noviembre	2023-11-23T00:00:00	2024-11-06T12:00:00	4	Temperatura máxima	19.1
62691	7	Sololá	701	Sololá	3	Barraneche	11	Noviembre	2023-11-23T00:00:00	2024-11-06T12:00:00	3	Temperatura mínima	18.2
62692	7	Sololá	701	Sololá	3	Barraneche	11	Noviembre	2023-11-23T00:00:00	2024-11-06T12:00:00	5	Humedad	59
62693	7	Sololá	701	Sololá	3	Barraneche	11	Noviembre	2023-11-23T00:00:00	2024-11-06T12:00:00	6	Velocidad del viento	11.3
62694	7	Sololá	701	Sololá	3	Barraneche	11	Noviembre	2023-11-23T00:00:00	2024-11-06T12:00:00	7	Dirección del viento	11.27
62695	7	Sololá	701	Sololá	3	Barraneche	11	Noviembre	2023-11-23T00:00:00	2024-11-06T12:00:00	1	Precipitación	0
62696	7	Sololá	701	Sololá	3	Barraneche	11	Noviembre	2023-11-23T00:00:00	2024-11-06T12:00:00	8	Radiación solar	838
62697	7	Sololá	701	Sololá	3	Barraneche	11	Noviembre	2023-11-23T00:00:00	2024-11-06T13:00:00	2	Temperatura media	18
62698	7	Sololá	701	Sololá	3	Barraneche	11	Noviembre	2023-11-23T00:00:00	2024-11-06T13:00:00	4	Temperatura máxima	18.9
62699	7	Sololá	701	Sololá	3	Barraneche	11	Noviembre	2023-11-23T00:00:00	2024-11-06T13:00:00	3	Temperatura mínima	18
62700	7	Sololá	701	Sololá	3	Barraneche	11	Noviembre	2023-11-23T00:00:00	2024-11-06T13:00:00	5	Humedad	58
62701	7	Sololá	701	Sololá	3	Barraneche	11	Noviembre	2023-11-23T00:00:00	2024-11-06T13:00:00	6	Velocidad del viento	11.3
62702	7	Sololá	701	Sololá	3	Barraneche	11	Noviembre	2023-11-23T00:00:00	2024-11-06T13:00:00	7	Dirección del viento	11.27
62703	7	Sololá	701	Sololá	3	Barraneche	11	Noviembre	2023-11-23T00:00:00	2024-11-06T13:00:00	1	Precipitación	0
62704	7	Sololá	701	Sololá	3	Barraneche	11	Noviembre	2023-11-23T00:00:00	2024-11-06T13:00:00	8	Radiación solar	778
62705	7	Sololá	701	Sololá	3	Barraneche	11	Noviembre	2023-11-23T00:00:00	2024-11-06T14:00:00	2	Temperatura media	17.6
62706	7	Sololá	701	Sololá	3	Barraneche	11	Noviembre	2023-11-23T00:00:00	2024-11-06T14:00:00	4	Temperatura máxima	18.5
62707	7	Sololá	701	Sololá	3	Barraneche	11	Noviembre	2023-11-23T00:00:00	2024-11-06T14:00:00	3	Temperatura mínima	17.5
62708	7	Sololá	701	Sololá	3	Barraneche	11	Noviembre	2023-11-23T00:00:00	2024-11-06T14:00:00	5	Humedad	58
62709	7	Sololá	701	Sololá	3	Barraneche	11	Noviembre	2023-11-23T00:00:00	2024-11-06T14:00:00	6	Velocidad del viento	12.9
62710	7	Sololá	701	Sololá	3	Barraneche	11	Noviembre	2023-11-23T00:00:00	2024-11-06T14:00:00	7	Dirección del viento	12.87
62711	7	Sololá	701	Sololá	3	Barraneche	11	Noviembre	2023-11-23T00:00:00	2024-11-06T14:00:00	1	Precipitación	0
62712	7	Sololá	701	Sololá	3	Barraneche	11	Noviembre	2023-11-23T00:00:00	2024-11-06T14:00:00	8	Radiación solar	635
62713	7	Sololá	701	Sololá	3	Barraneche	11	Noviembre	2023-11-23T00:00:00	2024-11-06T15:00:00	2	Temperatura media	17.1
62714	7	Sololá	701	Sololá	3	Barraneche	11	Noviembre	2023-11-23T00:00:00	2024-11-06T15:00:00	4	Temperatura máxima	17.7
62715	7	Sololá	701	Sololá	3	Barraneche	11	Noviembre	2023-11-23T00:00:00	2024-11-06T15:00:00	3	Temperatura mínima	16.7
62716	7	Sololá	701	Sololá	3	Barraneche	11	Noviembre	2023-11-23T00:00:00	2024-11-06T15:00:00	5	Humedad	59
62717	7	Sololá	701	Sololá	3	Barraneche	11	Noviembre	2023-11-23T00:00:00	2024-11-06T15:00:00	6	Velocidad del viento	11.3
62718	7	Sololá	701	Sololá	3	Barraneche	11	Noviembre	2023-11-23T00:00:00	2024-11-06T15:00:00	7	Dirección del viento	11.27
62719	7	Sololá	701	Sololá	3	Barraneche	11	Noviembre	2023-11-23T00:00:00	2024-11-06T15:00:00	1	Precipitación	0
62720	7	Sololá	701	Sololá	3	Barraneche	11	Noviembre	2023-11-23T00:00:00	2024-11-06T15:00:00	8	Radiación solar	189
62721	7	Sololá	701	Sololá	3	Barraneche	11	Noviembre	2023-11-23T00:00:00	2024-11-06T16:00:00	2	Temperatura media	16.7
62722	7	Sololá	701	Sololá	3	Barraneche	11	Noviembre	2023-11-23T00:00:00	2024-11-06T16:00:00	4	Temperatura máxima	17.7
62723	7	Sololá	701	Sololá	3	Barraneche	11	Noviembre	2023-11-23T00:00:00	2024-11-06T16:00:00	3	Temperatura mínima	16.7
62724	7	Sololá	701	Sololá	3	Barraneche	11	Noviembre	2023-11-23T00:00:00	2024-11-06T16:00:00	5	Humedad	60
62725	7	Sololá	701	Sololá	3	Barraneche	11	Noviembre	2023-11-23T00:00:00	2024-11-06T16:00:00	6	Velocidad del viento	11.3
62726	7	Sololá	701	Sololá	3	Barraneche	11	Noviembre	2023-11-23T00:00:00	2024-11-06T16:00:00	7	Dirección del viento	11.27
62727	7	Sololá	701	Sololá	3	Barraneche	11	Noviembre	2023-11-23T00:00:00	2024-11-06T16:00:00	1	Precipitación	0
62728	7	Sololá	701	Sololá	3	Barraneche	11	Noviembre	2023-11-23T00:00:00	2024-11-06T16:00:00	8	Radiación solar	175
62729	7	Sololá	701	Sololá	3	Barraneche	11	Noviembre	2023-11-23T00:00:00	2024-11-06T17:00:00	2	Temperatura media	15.9
62730	7	Sololá	701	Sololá	3	Barraneche	11	Noviembre	2023-11-23T00:00:00	2024-11-06T17:00:00	4	Temperatura máxima	16.7
62731	7	Sololá	701	Sololá	3	Barraneche	11	Noviembre	2023-11-23T00:00:00	2024-11-06T17:00:00	3	Temperatura mínima	15.9
62732	7	Sololá	701	Sololá	3	Barraneche	11	Noviembre	2023-11-23T00:00:00	2024-11-06T17:00:00	5	Humedad	63
62733	7	Sololá	701	Sololá	3	Barraneche	11	Noviembre	2023-11-23T00:00:00	2024-11-06T17:00:00	6	Velocidad del viento	6.4
62734	7	Sololá	701	Sololá	3	Barraneche	11	Noviembre	2023-11-23T00:00:00	2024-11-06T17:00:00	7	Dirección del viento	6.44
62735	7	Sololá	701	Sololá	3	Barraneche	11	Noviembre	2023-11-23T00:00:00	2024-11-06T17:00:00	1	Precipitación	0
62736	7	Sololá	701	Sololá	3	Barraneche	11	Noviembre	2023-11-23T00:00:00	2024-11-06T17:00:00	8	Radiación solar	76
62737	7	Sololá	701	Sololá	3	Barraneche	11	Noviembre	2023-11-23T00:00:00	2024-11-06T18:00:00	2	Temperatura media	13.9
62738	7	Sololá	701	Sololá	3	Barraneche	11	Noviembre	2023-11-23T00:00:00	2024-11-06T18:00:00	4	Temperatura máxima	16
62739	7	Sololá	701	Sololá	3	Barraneche	11	Noviembre	2023-11-23T00:00:00	2024-11-06T18:00:00	3	Temperatura mínima	13.9
62740	7	Sololá	701	Sololá	3	Barraneche	11	Noviembre	2023-11-23T00:00:00	2024-11-06T18:00:00	5	Humedad	70
62741	7	Sololá	701	Sololá	3	Barraneche	11	Noviembre	2023-11-23T00:00:00	2024-11-06T18:00:00	6	Velocidad del viento	3.2
62742	7	Sololá	701	Sololá	3	Barraneche	11	Noviembre	2023-11-23T00:00:00	2024-11-06T18:00:00	7	Dirección del viento	3.22
62743	7	Sololá	701	Sololá	3	Barraneche	11	Noviembre	2023-11-23T00:00:00	2024-11-06T18:00:00	1	Precipitación	0
62744	7	Sololá	701	Sololá	3	Barraneche	11	Noviembre	2023-11-23T00:00:00	2024-11-06T18:00:00	8	Radiación solar	8
62745	7	Sololá	701	Sololá	3	Barraneche	11	Noviembre	2023-11-23T00:00:00	2024-11-06T19:00:00	2	Temperatura media	14.3
62746	7	Sololá	701	Sololá	3	Barraneche	11	Noviembre	2023-11-23T00:00:00	2024-11-06T19:00:00	4	Temperatura máxima	14.4
62747	7	Sololá	701	Sololá	3	Barraneche	11	Noviembre	2023-11-23T00:00:00	2024-11-06T19:00:00	3	Temperatura mínima	13.9
62748	7	Sololá	701	Sololá	3	Barraneche	11	Noviembre	2023-11-23T00:00:00	2024-11-06T19:00:00	5	Humedad	67
62749	7	Sololá	701	Sololá	3	Barraneche	11	Noviembre	2023-11-23T00:00:00	2024-11-06T19:00:00	6	Velocidad del viento	1.6
62750	7	Sololá	701	Sololá	3	Barraneche	11	Noviembre	2023-11-23T00:00:00	2024-11-06T19:00:00	7	Dirección del viento	1.61
62751	7	Sololá	701	Sololá	3	Barraneche	11	Noviembre	2023-11-23T00:00:00	2024-11-06T19:00:00	1	Precipitación	0
62752	7	Sololá	701	Sololá	3	Barraneche	11	Noviembre	2023-11-23T00:00:00	2024-11-06T19:00:00	8	Radiación solar	0
62753	7	Sololá	701	Sololá	3	Barraneche	11	Noviembre	2023-11-23T00:00:00	2024-11-06T20:00:00	2	Temperatura media	12
62754	7	Sololá	701	Sololá	3	Barraneche	11	Noviembre	2023-11-23T00:00:00	2024-11-06T20:00:00	4	Temperatura máxima	14.3
62755	7	Sololá	701	Sololá	3	Barraneche	11	Noviembre	2023-11-23T00:00:00	2024-11-06T20:00:00	3	Temperatura mínima	12
62756	7	Sololá	701	Sololá	3	Barraneche	11	Noviembre	2023-11-23T00:00:00	2024-11-06T20:00:00	5	Humedad	71
62757	7	Sololá	701	Sololá	3	Barraneche	11	Noviembre	2023-11-23T00:00:00	2024-11-06T20:00:00	6	Velocidad del viento	3.2
62758	7	Sololá	701	Sololá	3	Barraneche	11	Noviembre	2023-11-23T00:00:00	2024-11-06T20:00:00	7	Dirección del viento	3.22
62759	7	Sololá	701	Sololá	3	Barraneche	11	Noviembre	2023-11-23T00:00:00	2024-11-06T20:00:00	1	Precipitación	0
62760	7	Sololá	701	Sololá	3	Barraneche	11	Noviembre	2023-11-23T00:00:00	2024-11-06T20:00:00	8	Radiación solar	0
62761	7	Sololá	701	Sololá	3	Barraneche	11	Noviembre	2023-11-23T00:00:00	2024-11-06T21:00:00	2	Temperatura media	11.7
62762	7	Sololá	701	Sololá	3	Barraneche	11	Noviembre	2023-11-23T00:00:00	2024-11-06T21:00:00	4	Temperatura máxima	12.3
62763	7	Sololá	701	Sololá	3	Barraneche	11	Noviembre	2023-11-23T00:00:00	2024-11-06T21:00:00	3	Temperatura mínima	11.7
62764	7	Sololá	701	Sololá	3	Barraneche	11	Noviembre	2023-11-23T00:00:00	2024-11-06T21:00:00	5	Humedad	71
62765	7	Sololá	701	Sololá	3	Barraneche	11	Noviembre	2023-11-23T00:00:00	2024-11-06T21:00:00	6	Velocidad del viento	4.8
62766	7	Sololá	701	Sololá	3	Barraneche	11	Noviembre	2023-11-23T00:00:00	2024-11-06T21:00:00	7	Dirección del viento	4.83
62767	7	Sololá	701	Sololá	3	Barraneche	11	Noviembre	2023-11-23T00:00:00	2024-11-06T21:00:00	1	Precipitación	0
62768	7	Sololá	701	Sololá	3	Barraneche	11	Noviembre	2023-11-23T00:00:00	2024-11-06T21:00:00	8	Radiación solar	0
62769	7	Sololá	701	Sololá	3	Barraneche	11	Noviembre	2023-11-23T00:00:00	2024-11-06T22:00:00	2	Temperatura media	11.3
62770	7	Sololá	701	Sololá	3	Barraneche	11	Noviembre	2023-11-23T00:00:00	2024-11-06T22:00:00	4	Temperatura máxima	11.8
62771	7	Sololá	701	Sololá	3	Barraneche	11	Noviembre	2023-11-23T00:00:00	2024-11-06T22:00:00	3	Temperatura mínima	11.3
62772	7	Sololá	701	Sololá	3	Barraneche	11	Noviembre	2023-11-23T00:00:00	2024-11-06T22:00:00	5	Humedad	71
62773	7	Sololá	701	Sololá	3	Barraneche	11	Noviembre	2023-11-23T00:00:00	2024-11-06T22:00:00	6	Velocidad del viento	6.4
62774	7	Sololá	701	Sololá	3	Barraneche	11	Noviembre	2023-11-23T00:00:00	2024-11-06T22:00:00	7	Dirección del viento	6.44
62775	7	Sololá	701	Sololá	3	Barraneche	11	Noviembre	2023-11-23T00:00:00	2024-11-06T22:00:00	1	Precipitación	0
62776	7	Sololá	701	Sololá	3	Barraneche	11	Noviembre	2023-11-23T00:00:00	2024-11-06T22:00:00	8	Radiación solar	0
62777	7	Sololá	701	Sololá	3	Barraneche	11	Noviembre	2023-11-23T00:00:00	2024-11-06T23:00:00	2	Temperatura media	11.3
62778	7	Sololá	701	Sololá	3	Barraneche	11	Noviembre	2023-11-23T00:00:00	2024-11-06T23:00:00	4	Temperatura máxima	11.4
62779	7	Sololá	701	Sololá	3	Barraneche	11	Noviembre	2023-11-23T00:00:00	2024-11-06T23:00:00	3	Temperatura mínima	11.2
62780	7	Sololá	701	Sololá	3	Barraneche	11	Noviembre	2023-11-23T00:00:00	2024-11-06T23:00:00	5	Humedad	72
62781	7	Sololá	701	Sololá	3	Barraneche	11	Noviembre	2023-11-23T00:00:00	2024-11-06T23:00:00	6	Velocidad del viento	6.4
62782	7	Sololá	701	Sololá	3	Barraneche	11	Noviembre	2023-11-23T00:00:00	2024-11-06T23:00:00	7	Dirección del viento	6.44
62783	7	Sololá	701	Sololá	3	Barraneche	11	Noviembre	2023-11-23T00:00:00	2024-11-06T23:00:00	1	Precipitación	0
62784	7	Sololá	701	Sololá	3	Barraneche	11	Noviembre	2023-11-23T00:00:00	2024-11-06T23:00:00	8	Radiación solar	0
62785	7	Sololá	701	Sololá	3	Barraneche	11	Noviembre	2023-11-24T00:00:00	2024-11-06T00:00:00	2	Temperatura media	12
62786	7	Sololá	701	Sololá	3	Barraneche	11	Noviembre	2023-11-24T00:00:00	2024-11-06T00:00:00	4	Temperatura máxima	12.1
62787	7	Sololá	701	Sololá	3	Barraneche	11	Noviembre	2023-11-24T00:00:00	2024-11-06T00:00:00	3	Temperatura mínima	11.3
62788	7	Sololá	701	Sololá	3	Barraneche	11	Noviembre	2023-11-24T00:00:00	2024-11-06T00:00:00	5	Humedad	70
62789	7	Sololá	701	Sololá	3	Barraneche	11	Noviembre	2023-11-24T00:00:00	2024-11-06T00:00:00	6	Velocidad del viento	6.4
62790	7	Sololá	701	Sololá	3	Barraneche	11	Noviembre	2023-11-24T00:00:00	2024-11-06T00:00:00	7	Dirección del viento	6.44
62791	7	Sololá	701	Sololá	3	Barraneche	11	Noviembre	2023-11-24T00:00:00	2024-11-06T00:00:00	1	Precipitación	0
62792	7	Sololá	701	Sololá	3	Barraneche	11	Noviembre	2023-11-24T00:00:00	2024-11-06T00:00:00	8	Radiación solar	0
62793	7	Sololá	701	Sololá	3	Barraneche	11	Noviembre	2023-11-24T00:00:00	2024-11-06T01:00:00	2	Temperatura media	11.5
62794	7	Sololá	701	Sololá	3	Barraneche	11	Noviembre	2023-11-24T00:00:00	2024-11-06T01:00:00	4	Temperatura máxima	12
62795	7	Sololá	701	Sololá	3	Barraneche	11	Noviembre	2023-11-24T00:00:00	2024-11-06T01:00:00	3	Temperatura mínima	11.3
62796	7	Sololá	701	Sololá	3	Barraneche	11	Noviembre	2023-11-24T00:00:00	2024-11-06T01:00:00	5	Humedad	71
62797	7	Sololá	701	Sololá	3	Barraneche	11	Noviembre	2023-11-24T00:00:00	2024-11-06T01:00:00	6	Velocidad del viento	4.8
62798	7	Sololá	701	Sololá	3	Barraneche	11	Noviembre	2023-11-24T00:00:00	2024-11-06T01:00:00	7	Dirección del viento	4.83
62799	7	Sololá	701	Sololá	3	Barraneche	11	Noviembre	2023-11-24T00:00:00	2024-11-06T01:00:00	1	Precipitación	0
62800	7	Sololá	701	Sololá	3	Barraneche	11	Noviembre	2023-11-24T00:00:00	2024-11-06T01:00:00	8	Radiación solar	0
62801	7	Sololá	701	Sololá	3	Barraneche	11	Noviembre	2023-11-24T00:00:00	2024-11-06T02:00:00	2	Temperatura media	11.5
62802	7	Sololá	701	Sololá	3	Barraneche	11	Noviembre	2023-11-24T00:00:00	2024-11-06T02:00:00	4	Temperatura máxima	11.7
62803	7	Sololá	701	Sololá	3	Barraneche	11	Noviembre	2023-11-24T00:00:00	2024-11-06T02:00:00	3	Temperatura mínima	11.3
62804	7	Sololá	701	Sololá	3	Barraneche	11	Noviembre	2023-11-24T00:00:00	2024-11-06T02:00:00	5	Humedad	68
62805	7	Sololá	701	Sololá	3	Barraneche	11	Noviembre	2023-11-24T00:00:00	2024-11-06T02:00:00	6	Velocidad del viento	6.4
62806	7	Sololá	701	Sololá	3	Barraneche	11	Noviembre	2023-11-24T00:00:00	2024-11-06T02:00:00	7	Dirección del viento	6.44
62807	7	Sololá	701	Sololá	3	Barraneche	11	Noviembre	2023-11-24T00:00:00	2024-11-06T02:00:00	1	Precipitación	0
62808	7	Sololá	701	Sololá	3	Barraneche	11	Noviembre	2023-11-24T00:00:00	2024-11-06T02:00:00	8	Radiación solar	0
62809	7	Sololá	701	Sololá	3	Barraneche	11	Noviembre	2023-11-24T00:00:00	2024-11-06T03:00:00	2	Temperatura media	11.1
62810	7	Sololá	701	Sololá	3	Barraneche	11	Noviembre	2023-11-24T00:00:00	2024-11-06T03:00:00	4	Temperatura máxima	11.6
62811	7	Sololá	701	Sololá	3	Barraneche	11	Noviembre	2023-11-24T00:00:00	2024-11-06T03:00:00	3	Temperatura mínima	11.1
62812	7	Sololá	701	Sololá	3	Barraneche	11	Noviembre	2023-11-24T00:00:00	2024-11-06T03:00:00	5	Humedad	68
62813	7	Sololá	701	Sololá	3	Barraneche	11	Noviembre	2023-11-24T00:00:00	2024-11-06T03:00:00	6	Velocidad del viento	6.4
62814	7	Sololá	701	Sololá	3	Barraneche	11	Noviembre	2023-11-24T00:00:00	2024-11-06T03:00:00	7	Dirección del viento	6.44
62815	7	Sololá	701	Sololá	3	Barraneche	11	Noviembre	2023-11-24T00:00:00	2024-11-06T03:00:00	1	Precipitación	0
62816	7	Sololá	701	Sololá	3	Barraneche	11	Noviembre	2023-11-24T00:00:00	2024-11-06T03:00:00	8	Radiación solar	0
62817	7	Sololá	701	Sololá	3	Barraneche	11	Noviembre	2023-11-24T00:00:00	2024-11-06T04:00:00	2	Temperatura media	10.8
62818	7	Sololá	701	Sololá	3	Barraneche	11	Noviembre	2023-11-24T00:00:00	2024-11-06T04:00:00	4	Temperatura máxima	11.1
62819	7	Sololá	701	Sololá	3	Barraneche	11	Noviembre	2023-11-24T00:00:00	2024-11-06T04:00:00	3	Temperatura mínima	10.4
62820	7	Sololá	701	Sololá	3	Barraneche	11	Noviembre	2023-11-24T00:00:00	2024-11-06T04:00:00	5	Humedad	69
62821	7	Sololá	701	Sololá	3	Barraneche	11	Noviembre	2023-11-24T00:00:00	2024-11-06T04:00:00	6	Velocidad del viento	8
62822	7	Sololá	701	Sololá	3	Barraneche	11	Noviembre	2023-11-24T00:00:00	2024-11-06T04:00:00	7	Dirección del viento	8.05
62823	7	Sololá	701	Sololá	3	Barraneche	11	Noviembre	2023-11-24T00:00:00	2024-11-06T04:00:00	1	Precipitación	0
62824	7	Sololá	701	Sololá	3	Barraneche	11	Noviembre	2023-11-24T00:00:00	2024-11-06T04:00:00	8	Radiación solar	0
62825	7	Sololá	701	Sololá	3	Barraneche	11	Noviembre	2023-11-24T00:00:00	2024-11-06T05:00:00	2	Temperatura media	10.3
62826	7	Sololá	701	Sololá	3	Barraneche	11	Noviembre	2023-11-24T00:00:00	2024-11-06T05:00:00	4	Temperatura máxima	10.8
62827	7	Sololá	701	Sololá	3	Barraneche	11	Noviembre	2023-11-24T00:00:00	2024-11-06T05:00:00	3	Temperatura mínima	10.3
62828	7	Sololá	701	Sololá	3	Barraneche	11	Noviembre	2023-11-24T00:00:00	2024-11-06T05:00:00	5	Humedad	70
62829	7	Sololá	701	Sololá	3	Barraneche	11	Noviembre	2023-11-24T00:00:00	2024-11-06T05:00:00	6	Velocidad del viento	6.4
62830	7	Sololá	701	Sololá	3	Barraneche	11	Noviembre	2023-11-24T00:00:00	2024-11-06T05:00:00	7	Dirección del viento	6.44
62831	7	Sololá	701	Sololá	3	Barraneche	11	Noviembre	2023-11-24T00:00:00	2024-11-06T05:00:00	1	Precipitación	0
62832	7	Sololá	701	Sololá	3	Barraneche	11	Noviembre	2023-11-24T00:00:00	2024-11-06T05:00:00	8	Radiación solar	0
62833	7	Sololá	701	Sololá	3	Barraneche	11	Noviembre	2023-11-24T00:00:00	2024-11-06T06:00:00	2	Temperatura media	10.2
62834	7	Sololá	701	Sololá	3	Barraneche	11	Noviembre	2023-11-24T00:00:00	2024-11-06T06:00:00	4	Temperatura máxima	10.3
62835	7	Sololá	701	Sololá	3	Barraneche	11	Noviembre	2023-11-24T00:00:00	2024-11-06T06:00:00	3	Temperatura mínima	9.8
62836	7	Sololá	701	Sololá	3	Barraneche	11	Noviembre	2023-11-24T00:00:00	2024-11-06T06:00:00	5	Humedad	71
62837	7	Sololá	701	Sololá	3	Barraneche	11	Noviembre	2023-11-24T00:00:00	2024-11-06T06:00:00	6	Velocidad del viento	6.4
62838	7	Sololá	701	Sololá	3	Barraneche	11	Noviembre	2023-11-24T00:00:00	2024-11-06T06:00:00	7	Dirección del viento	6.44
62839	7	Sololá	701	Sololá	3	Barraneche	11	Noviembre	2023-11-24T00:00:00	2024-11-06T06:00:00	1	Precipitación	0
62840	7	Sololá	701	Sololá	3	Barraneche	11	Noviembre	2023-11-24T00:00:00	2024-11-06T06:00:00	8	Radiación solar	0
62841	7	Sololá	701	Sololá	3	Barraneche	11	Noviembre	2023-11-24T00:00:00	2024-11-06T07:00:00	2	Temperatura media	11.3
62842	7	Sololá	701	Sololá	3	Barraneche	11	Noviembre	2023-11-24T00:00:00	2024-11-06T07:00:00	4	Temperatura máxima	11.3
62843	7	Sololá	701	Sololá	3	Barraneche	11	Noviembre	2023-11-24T00:00:00	2024-11-06T07:00:00	3	Temperatura mínima	9.8
62844	7	Sololá	701	Sololá	3	Barraneche	11	Noviembre	2023-11-24T00:00:00	2024-11-06T07:00:00	5	Humedad	72
62845	7	Sololá	701	Sololá	3	Barraneche	11	Noviembre	2023-11-24T00:00:00	2024-11-06T07:00:00	6	Velocidad del viento	6.4
62846	7	Sololá	701	Sololá	3	Barraneche	11	Noviembre	2023-11-24T00:00:00	2024-11-06T07:00:00	7	Dirección del viento	6.44
62847	7	Sololá	701	Sololá	3	Barraneche	11	Noviembre	2023-11-24T00:00:00	2024-11-06T07:00:00	1	Precipitación	0
62848	7	Sololá	701	Sololá	3	Barraneche	11	Noviembre	2023-11-24T00:00:00	2024-11-06T07:00:00	8	Radiación solar	28
62849	7	Sololá	701	Sololá	3	Barraneche	11	Noviembre	2023-11-24T00:00:00	2024-11-06T08:00:00	2	Temperatura media	16.6
62850	7	Sololá	701	Sololá	3	Barraneche	11	Noviembre	2023-11-24T00:00:00	2024-11-06T08:00:00	4	Temperatura máxima	16.6
62851	7	Sololá	701	Sololá	3	Barraneche	11	Noviembre	2023-11-24T00:00:00	2024-11-06T08:00:00	3	Temperatura mínima	11.3
62852	7	Sololá	701	Sololá	3	Barraneche	11	Noviembre	2023-11-24T00:00:00	2024-11-06T08:00:00	5	Humedad	61
62853	7	Sololá	701	Sololá	3	Barraneche	11	Noviembre	2023-11-24T00:00:00	2024-11-06T08:00:00	6	Velocidad del viento	1.6
62854	7	Sololá	701	Sololá	3	Barraneche	11	Noviembre	2023-11-24T00:00:00	2024-11-06T08:00:00	7	Dirección del viento	1.61
62855	7	Sololá	701	Sololá	3	Barraneche	11	Noviembre	2023-11-24T00:00:00	2024-11-06T08:00:00	1	Precipitación	0
62856	7	Sololá	701	Sololá	3	Barraneche	11	Noviembre	2023-11-24T00:00:00	2024-11-06T08:00:00	8	Radiación solar	246
62857	7	Sololá	701	Sololá	3	Barraneche	11	Noviembre	2023-11-24T00:00:00	2024-11-06T09:00:00	2	Temperatura media	19.1
62858	7	Sololá	701	Sololá	3	Barraneche	11	Noviembre	2023-11-24T00:00:00	2024-11-06T09:00:00	4	Temperatura máxima	19.1
62859	7	Sololá	701	Sololá	3	Barraneche	11	Noviembre	2023-11-24T00:00:00	2024-11-06T09:00:00	3	Temperatura mínima	16.6
62860	7	Sololá	701	Sololá	3	Barraneche	11	Noviembre	2023-11-24T00:00:00	2024-11-06T09:00:00	5	Humedad	53
62861	7	Sololá	701	Sololá	3	Barraneche	11	Noviembre	2023-11-24T00:00:00	2024-11-06T09:00:00	6	Velocidad del viento	3.2
62862	7	Sololá	701	Sololá	3	Barraneche	11	Noviembre	2023-11-24T00:00:00	2024-11-06T09:00:00	7	Dirección del viento	3.22
62863	7	Sololá	701	Sololá	3	Barraneche	11	Noviembre	2023-11-24T00:00:00	2024-11-06T09:00:00	1	Precipitación	0
62864	7	Sololá	701	Sololá	3	Barraneche	11	Noviembre	2023-11-24T00:00:00	2024-11-06T09:00:00	8	Radiación solar	478
62865	7	Sololá	701	Sololá	3	Barraneche	11	Noviembre	2023-11-24T00:00:00	2024-11-06T10:00:00	2	Temperatura media	20.2
62866	7	Sololá	701	Sololá	3	Barraneche	11	Noviembre	2023-11-24T00:00:00	2024-11-06T10:00:00	4	Temperatura máxima	20.2
62867	7	Sololá	701	Sololá	3	Barraneche	11	Noviembre	2023-11-24T00:00:00	2024-11-06T10:00:00	3	Temperatura mínima	18.9
62868	7	Sololá	701	Sololá	3	Barraneche	11	Noviembre	2023-11-24T00:00:00	2024-11-06T10:00:00	5	Humedad	50
62869	7	Sololá	701	Sololá	3	Barraneche	11	Noviembre	2023-11-24T00:00:00	2024-11-06T10:00:00	6	Velocidad del viento	6.4
62870	7	Sololá	701	Sololá	3	Barraneche	11	Noviembre	2023-11-24T00:00:00	2024-11-06T10:00:00	7	Dirección del viento	6.44
62871	7	Sololá	701	Sololá	3	Barraneche	11	Noviembre	2023-11-24T00:00:00	2024-11-06T10:00:00	1	Precipitación	0
62872	7	Sololá	701	Sololá	3	Barraneche	11	Noviembre	2023-11-24T00:00:00	2024-11-06T10:00:00	8	Radiación solar	666
62873	7	Sololá	701	Sololá	3	Barraneche	11	Noviembre	2023-11-24T00:00:00	2024-11-06T11:00:00	2	Temperatura media	20.4
62874	7	Sololá	701	Sololá	3	Barraneche	11	Noviembre	2023-11-24T00:00:00	2024-11-06T11:00:00	4	Temperatura máxima	20.8
62875	7	Sololá	701	Sololá	3	Barraneche	11	Noviembre	2023-11-24T00:00:00	2024-11-06T11:00:00	3	Temperatura mínima	20.1
62876	7	Sololá	701	Sololá	3	Barraneche	11	Noviembre	2023-11-24T00:00:00	2024-11-06T11:00:00	5	Humedad	47
62877	7	Sololá	701	Sololá	3	Barraneche	11	Noviembre	2023-11-24T00:00:00	2024-11-06T11:00:00	6	Velocidad del viento	8
62878	7	Sololá	701	Sololá	3	Barraneche	11	Noviembre	2023-11-24T00:00:00	2024-11-06T11:00:00	7	Dirección del viento	8.05
62879	7	Sololá	701	Sololá	3	Barraneche	11	Noviembre	2023-11-24T00:00:00	2024-11-06T11:00:00	1	Precipitación	0
62880	7	Sololá	701	Sololá	3	Barraneche	11	Noviembre	2023-11-24T00:00:00	2024-11-06T11:00:00	8	Radiación solar	806
62881	7	Sololá	701	Sololá	3	Barraneche	11	Noviembre	2023-11-24T00:00:00	2024-11-06T12:00:00	2	Temperatura media	20.7
62882	7	Sololá	701	Sololá	3	Barraneche	11	Noviembre	2023-11-24T00:00:00	2024-11-06T12:00:00	4	Temperatura máxima	20.8
62883	7	Sololá	701	Sololá	3	Barraneche	11	Noviembre	2023-11-24T00:00:00	2024-11-06T12:00:00	3	Temperatura mínima	20.1
62884	7	Sololá	701	Sololá	3	Barraneche	11	Noviembre	2023-11-24T00:00:00	2024-11-06T12:00:00	5	Humedad	47
62885	7	Sololá	701	Sololá	3	Barraneche	11	Noviembre	2023-11-24T00:00:00	2024-11-06T12:00:00	6	Velocidad del viento	11.3
62886	7	Sololá	701	Sololá	3	Barraneche	11	Noviembre	2023-11-24T00:00:00	2024-11-06T12:00:00	7	Dirección del viento	11.27
62887	7	Sololá	701	Sololá	3	Barraneche	11	Noviembre	2023-11-24T00:00:00	2024-11-06T12:00:00	1	Precipitación	0
62888	7	Sololá	701	Sololá	3	Barraneche	11	Noviembre	2023-11-24T00:00:00	2024-11-06T12:00:00	8	Radiación solar	861
62889	7	Sololá	701	Sololá	3	Barraneche	11	Noviembre	2023-11-24T00:00:00	2024-11-06T13:00:00	2	Temperatura media	19.6
62890	7	Sololá	701	Sololá	3	Barraneche	11	Noviembre	2023-11-24T00:00:00	2024-11-06T13:00:00	4	Temperatura máxima	20.7
62891	7	Sololá	701	Sololá	3	Barraneche	11	Noviembre	2023-11-24T00:00:00	2024-11-06T13:00:00	3	Temperatura mínima	19.5
62892	7	Sololá	701	Sololá	3	Barraneche	11	Noviembre	2023-11-24T00:00:00	2024-11-06T13:00:00	5	Humedad	55
62893	7	Sololá	701	Sololá	3	Barraneche	11	Noviembre	2023-11-24T00:00:00	2024-11-06T13:00:00	6	Velocidad del viento	12.9
62894	7	Sololá	701	Sololá	3	Barraneche	11	Noviembre	2023-11-24T00:00:00	2024-11-06T13:00:00	7	Dirección del viento	12.87
62895	7	Sololá	701	Sololá	3	Barraneche	11	Noviembre	2023-11-24T00:00:00	2024-11-06T13:00:00	1	Precipitación	0
62896	7	Sololá	701	Sololá	3	Barraneche	11	Noviembre	2023-11-24T00:00:00	2024-11-06T13:00:00	8	Radiación solar	874
62897	7	Sololá	701	Sololá	3	Barraneche	11	Noviembre	2023-11-24T00:00:00	2024-11-06T14:00:00	2	Temperatura media	18.9
62898	7	Sololá	701	Sololá	3	Barraneche	11	Noviembre	2023-11-24T00:00:00	2024-11-06T14:00:00	4	Temperatura máxima	19.8
62899	7	Sololá	701	Sololá	3	Barraneche	11	Noviembre	2023-11-24T00:00:00	2024-11-06T14:00:00	3	Temperatura mínima	18.9
62900	7	Sololá	701	Sololá	3	Barraneche	11	Noviembre	2023-11-24T00:00:00	2024-11-06T14:00:00	5	Humedad	63
62901	7	Sololá	701	Sololá	3	Barraneche	11	Noviembre	2023-11-24T00:00:00	2024-11-06T14:00:00	6	Velocidad del viento	11.3
62902	7	Sololá	701	Sololá	3	Barraneche	11	Noviembre	2023-11-24T00:00:00	2024-11-06T14:00:00	7	Dirección del viento	11.27
62903	7	Sololá	701	Sololá	3	Barraneche	11	Noviembre	2023-11-24T00:00:00	2024-11-06T14:00:00	1	Precipitación	0
62904	7	Sololá	701	Sololá	3	Barraneche	11	Noviembre	2023-11-24T00:00:00	2024-11-06T14:00:00	8	Radiación solar	809
62905	7	Sololá	701	Sololá	3	Barraneche	11	Noviembre	2023-11-24T00:00:00	2024-11-06T15:00:00	2	Temperatura media	17.8
62906	7	Sololá	701	Sololá	3	Barraneche	11	Noviembre	2023-11-24T00:00:00	2024-11-06T15:00:00	4	Temperatura máxima	18.9
62907	7	Sololá	701	Sololá	3	Barraneche	11	Noviembre	2023-11-24T00:00:00	2024-11-06T15:00:00	3	Temperatura mínima	17.7
62908	7	Sololá	701	Sololá	3	Barraneche	11	Noviembre	2023-11-24T00:00:00	2024-11-06T15:00:00	5	Humedad	67
62909	7	Sololá	701	Sololá	3	Barraneche	11	Noviembre	2023-11-24T00:00:00	2024-11-06T15:00:00	6	Velocidad del viento	11.3
62910	7	Sololá	701	Sololá	3	Barraneche	11	Noviembre	2023-11-24T00:00:00	2024-11-06T15:00:00	7	Dirección del viento	11.27
62911	7	Sololá	701	Sololá	3	Barraneche	11	Noviembre	2023-11-24T00:00:00	2024-11-06T15:00:00	1	Precipitación	0
62912	7	Sololá	701	Sololá	3	Barraneche	11	Noviembre	2023-11-24T00:00:00	2024-11-06T15:00:00	8	Radiación solar	576
62913	7	Sololá	701	Sololá	3	Barraneche	11	Noviembre	2023-11-24T00:00:00	2024-11-06T16:00:00	2	Temperatura media	16.6
62914	7	Sololá	701	Sololá	3	Barraneche	11	Noviembre	2023-11-24T00:00:00	2024-11-06T16:00:00	4	Temperatura máxima	17.8
62915	7	Sololá	701	Sololá	3	Barraneche	11	Noviembre	2023-11-24T00:00:00	2024-11-06T16:00:00	3	Temperatura mínima	16.3
62916	7	Sololá	701	Sololá	3	Barraneche	11	Noviembre	2023-11-24T00:00:00	2024-11-06T16:00:00	5	Humedad	69
62917	7	Sololá	701	Sololá	3	Barraneche	11	Noviembre	2023-11-24T00:00:00	2024-11-06T16:00:00	6	Velocidad del viento	9.7
62918	7	Sololá	701	Sololá	3	Barraneche	11	Noviembre	2023-11-24T00:00:00	2024-11-06T16:00:00	7	Dirección del viento	9.66
62919	7	Sololá	701	Sololá	3	Barraneche	11	Noviembre	2023-11-24T00:00:00	2024-11-06T16:00:00	1	Precipitación	0
62920	7	Sololá	701	Sololá	3	Barraneche	11	Noviembre	2023-11-24T00:00:00	2024-11-06T16:00:00	8	Radiación solar	219
62921	7	Sololá	701	Sololá	3	Barraneche	11	Noviembre	2023-11-24T00:00:00	2024-11-06T17:00:00	2	Temperatura media	15.6
62922	7	Sololá	701	Sololá	3	Barraneche	11	Noviembre	2023-11-24T00:00:00	2024-11-06T17:00:00	4	Temperatura máxima	16.9
62923	7	Sololá	701	Sololá	3	Barraneche	11	Noviembre	2023-11-24T00:00:00	2024-11-06T17:00:00	3	Temperatura mínima	15.4
62924	7	Sololá	701	Sololá	3	Barraneche	11	Noviembre	2023-11-24T00:00:00	2024-11-06T17:00:00	5	Humedad	73
62925	7	Sololá	701	Sololá	3	Barraneche	11	Noviembre	2023-11-24T00:00:00	2024-11-06T17:00:00	6	Velocidad del viento	4.8
62926	7	Sololá	701	Sololá	3	Barraneche	11	Noviembre	2023-11-24T00:00:00	2024-11-06T17:00:00	7	Dirección del viento	4.83
62927	7	Sololá	701	Sololá	3	Barraneche	11	Noviembre	2023-11-24T00:00:00	2024-11-06T17:00:00	1	Precipitación	0
62928	7	Sololá	701	Sololá	3	Barraneche	11	Noviembre	2023-11-24T00:00:00	2024-11-06T17:00:00	8	Radiación solar	55
62929	7	Sololá	701	Sololá	3	Barraneche	11	Noviembre	2023-11-24T00:00:00	2024-11-06T18:00:00	2	Temperatura media	15.6
62930	7	Sololá	701	Sololá	3	Barraneche	11	Noviembre	2023-11-24T00:00:00	2024-11-06T18:00:00	4	Temperatura máxima	16
62931	7	Sololá	701	Sololá	3	Barraneche	11	Noviembre	2023-11-24T00:00:00	2024-11-06T18:00:00	3	Temperatura mínima	15.6
62932	7	Sololá	701	Sololá	3	Barraneche	11	Noviembre	2023-11-24T00:00:00	2024-11-06T18:00:00	5	Humedad	73
62933	7	Sololá	701	Sololá	3	Barraneche	11	Noviembre	2023-11-24T00:00:00	2024-11-06T18:00:00	6	Velocidad del viento	3.2
62934	7	Sololá	701	Sololá	3	Barraneche	11	Noviembre	2023-11-24T00:00:00	2024-11-06T18:00:00	7	Dirección del viento	3.22
62935	7	Sololá	701	Sololá	3	Barraneche	11	Noviembre	2023-11-24T00:00:00	2024-11-06T18:00:00	1	Precipitación	0
62936	7	Sololá	701	Sololá	3	Barraneche	11	Noviembre	2023-11-24T00:00:00	2024-11-06T18:00:00	8	Radiación solar	19
62937	7	Sololá	701	Sololá	3	Barraneche	11	Noviembre	2023-11-24T00:00:00	2024-11-06T19:00:00	2	Temperatura media	14.9
62938	7	Sololá	701	Sololá	3	Barraneche	11	Noviembre	2023-11-24T00:00:00	2024-11-06T19:00:00	4	Temperatura máxima	15.6
62939	7	Sololá	701	Sololá	3	Barraneche	11	Noviembre	2023-11-24T00:00:00	2024-11-06T19:00:00	3	Temperatura mínima	14.9
62940	7	Sololá	701	Sololá	3	Barraneche	11	Noviembre	2023-11-24T00:00:00	2024-11-06T19:00:00	5	Humedad	75
62941	7	Sololá	701	Sololá	3	Barraneche	11	Noviembre	2023-11-24T00:00:00	2024-11-06T19:00:00	6	Velocidad del viento	1.6
62942	7	Sololá	701	Sololá	3	Barraneche	11	Noviembre	2023-11-24T00:00:00	2024-11-06T19:00:00	7	Dirección del viento	1.61
62943	7	Sololá	701	Sololá	3	Barraneche	11	Noviembre	2023-11-24T00:00:00	2024-11-06T19:00:00	1	Precipitación	0
62944	7	Sololá	701	Sololá	3	Barraneche	11	Noviembre	2023-11-24T00:00:00	2024-11-06T19:00:00	8	Radiación solar	0
62945	7	Sololá	701	Sololá	3	Barraneche	11	Noviembre	2023-11-24T00:00:00	2024-11-06T20:00:00	2	Temperatura media	14.2
62946	7	Sololá	701	Sololá	3	Barraneche	11	Noviembre	2023-11-24T00:00:00	2024-11-06T20:00:00	4	Temperatura máxima	14.9
62947	7	Sololá	701	Sololá	3	Barraneche	11	Noviembre	2023-11-24T00:00:00	2024-11-06T20:00:00	3	Temperatura mínima	14.2
62948	7	Sololá	701	Sololá	3	Barraneche	11	Noviembre	2023-11-24T00:00:00	2024-11-06T20:00:00	5	Humedad	72
62949	7	Sololá	701	Sololá	3	Barraneche	11	Noviembre	2023-11-24T00:00:00	2024-11-06T20:00:00	6	Velocidad del viento	1.6
62950	7	Sololá	701	Sololá	3	Barraneche	11	Noviembre	2023-11-24T00:00:00	2024-11-06T20:00:00	7	Dirección del viento	1.61
62951	7	Sololá	701	Sololá	3	Barraneche	11	Noviembre	2023-11-24T00:00:00	2024-11-06T20:00:00	1	Precipitación	0
62952	7	Sololá	701	Sololá	3	Barraneche	11	Noviembre	2023-11-24T00:00:00	2024-11-06T20:00:00	8	Radiación solar	0
62953	7	Sololá	701	Sololá	3	Barraneche	11	Noviembre	2023-11-24T00:00:00	2024-11-06T21:00:00	2	Temperatura media	14
62954	7	Sololá	701	Sololá	3	Barraneche	11	Noviembre	2023-11-24T00:00:00	2024-11-06T21:00:00	4	Temperatura máxima	14.2
62955	7	Sololá	701	Sololá	3	Barraneche	11	Noviembre	2023-11-24T00:00:00	2024-11-06T21:00:00	3	Temperatura mínima	13.8
62956	7	Sololá	701	Sololá	3	Barraneche	11	Noviembre	2023-11-24T00:00:00	2024-11-06T21:00:00	5	Humedad	72
62957	7	Sololá	701	Sololá	3	Barraneche	11	Noviembre	2023-11-24T00:00:00	2024-11-06T21:00:00	6	Velocidad del viento	1.6
62958	7	Sololá	701	Sololá	3	Barraneche	11	Noviembre	2023-11-24T00:00:00	2024-11-06T21:00:00	7	Dirección del viento	1.61
62959	7	Sololá	701	Sololá	3	Barraneche	11	Noviembre	2023-11-24T00:00:00	2024-11-06T21:00:00	1	Precipitación	0
62960	7	Sololá	701	Sololá	3	Barraneche	11	Noviembre	2023-11-24T00:00:00	2024-11-06T21:00:00	8	Radiación solar	0
62961	7	Sololá	701	Sololá	3	Barraneche	11	Noviembre	2023-11-24T00:00:00	2024-11-06T22:00:00	2	Temperatura media	13.8
62962	7	Sololá	701	Sololá	3	Barraneche	11	Noviembre	2023-11-24T00:00:00	2024-11-06T22:00:00	4	Temperatura máxima	14
62963	7	Sololá	701	Sololá	3	Barraneche	11	Noviembre	2023-11-24T00:00:00	2024-11-06T22:00:00	3	Temperatura mínima	13.7
62964	7	Sololá	701	Sololá	3	Barraneche	11	Noviembre	2023-11-24T00:00:00	2024-11-06T22:00:00	5	Humedad	71
62965	7	Sololá	701	Sololá	3	Barraneche	11	Noviembre	2023-11-24T00:00:00	2024-11-06T22:00:00	6	Velocidad del viento	3.2
62966	7	Sololá	701	Sololá	3	Barraneche	11	Noviembre	2023-11-24T00:00:00	2024-11-06T22:00:00	7	Dirección del viento	3.22
62967	7	Sololá	701	Sololá	3	Barraneche	11	Noviembre	2023-11-24T00:00:00	2024-11-06T22:00:00	1	Precipitación	0
62968	7	Sololá	701	Sololá	3	Barraneche	11	Noviembre	2023-11-24T00:00:00	2024-11-06T22:00:00	8	Radiación solar	0
62969	7	Sololá	701	Sololá	3	Barraneche	11	Noviembre	2023-11-24T00:00:00	2024-11-06T23:00:00	2	Temperatura media	13.7
62970	7	Sololá	701	Sololá	3	Barraneche	11	Noviembre	2023-11-24T00:00:00	2024-11-06T23:00:00	4	Temperatura máxima	13.9
62971	7	Sololá	701	Sololá	3	Barraneche	11	Noviembre	2023-11-24T00:00:00	2024-11-06T23:00:00	3	Temperatura mínima	13.7
62972	7	Sololá	701	Sololá	3	Barraneche	11	Noviembre	2023-11-24T00:00:00	2024-11-06T23:00:00	5	Humedad	72
62973	7	Sololá	701	Sololá	3	Barraneche	11	Noviembre	2023-11-24T00:00:00	2024-11-06T23:00:00	6	Velocidad del viento	1.6
62974	7	Sololá	701	Sololá	3	Barraneche	11	Noviembre	2023-11-24T00:00:00	2024-11-06T23:00:00	7	Dirección del viento	1.61
62975	7	Sololá	701	Sololá	3	Barraneche	11	Noviembre	2023-11-24T00:00:00	2024-11-06T23:00:00	1	Precipitación	0
62976	7	Sololá	701	Sololá	3	Barraneche	11	Noviembre	2023-11-24T00:00:00	2024-11-06T23:00:00	8	Radiación solar	0
62977	7	Sololá	701	Sololá	3	Barraneche	11	Noviembre	2023-11-25T00:00:00	2024-11-06T00:00:00	2	Temperatura media	12.7
62978	7	Sololá	701	Sololá	3	Barraneche	11	Noviembre	2023-11-25T00:00:00	2024-11-06T00:00:00	4	Temperatura máxima	13.7
62979	7	Sololá	701	Sololá	3	Barraneche	11	Noviembre	2023-11-25T00:00:00	2024-11-06T00:00:00	3	Temperatura mínima	12.7
62980	7	Sololá	701	Sololá	3	Barraneche	11	Noviembre	2023-11-25T00:00:00	2024-11-06T00:00:00	5	Humedad	72
62981	7	Sololá	701	Sololá	3	Barraneche	11	Noviembre	2023-11-25T00:00:00	2024-11-06T00:00:00	6	Velocidad del viento	1.6
62982	7	Sololá	701	Sololá	3	Barraneche	11	Noviembre	2023-11-25T00:00:00	2024-11-06T00:00:00	7	Dirección del viento	1.61
62983	7	Sololá	701	Sololá	3	Barraneche	11	Noviembre	2023-11-25T00:00:00	2024-11-06T00:00:00	1	Precipitación	0
62984	7	Sololá	701	Sololá	3	Barraneche	11	Noviembre	2023-11-25T00:00:00	2024-11-06T00:00:00	8	Radiación solar	0
62985	7	Sololá	701	Sololá	3	Barraneche	11	Noviembre	2023-11-25T00:00:00	2024-11-06T01:00:00	2	Temperatura media	11.9
62986	7	Sololá	701	Sololá	3	Barraneche	11	Noviembre	2023-11-25T00:00:00	2024-11-06T01:00:00	4	Temperatura máxima	12.7
62987	7	Sololá	701	Sololá	3	Barraneche	11	Noviembre	2023-11-25T00:00:00	2024-11-06T01:00:00	3	Temperatura mínima	11.8
62988	7	Sololá	701	Sololá	3	Barraneche	11	Noviembre	2023-11-25T00:00:00	2024-11-06T01:00:00	5	Humedad	72
62989	7	Sololá	701	Sololá	3	Barraneche	11	Noviembre	2023-11-25T00:00:00	2024-11-06T01:00:00	6	Velocidad del viento	3.2
62990	7	Sololá	701	Sololá	3	Barraneche	11	Noviembre	2023-11-25T00:00:00	2024-11-06T01:00:00	7	Dirección del viento	3.22
62991	7	Sololá	701	Sololá	3	Barraneche	11	Noviembre	2023-11-25T00:00:00	2024-11-06T01:00:00	1	Precipitación	0
62992	7	Sololá	701	Sololá	3	Barraneche	11	Noviembre	2023-11-25T00:00:00	2024-11-06T01:00:00	8	Radiación solar	0
62993	7	Sololá	701	Sololá	3	Barraneche	11	Noviembre	2023-11-25T00:00:00	2024-11-06T02:00:00	2	Temperatura media	11.8
62994	7	Sololá	701	Sololá	3	Barraneche	11	Noviembre	2023-11-25T00:00:00	2024-11-06T02:00:00	4	Temperatura máxima	12.3
62995	7	Sololá	701	Sololá	3	Barraneche	11	Noviembre	2023-11-25T00:00:00	2024-11-06T02:00:00	3	Temperatura mínima	11.8
62996	7	Sololá	701	Sololá	3	Barraneche	11	Noviembre	2023-11-25T00:00:00	2024-11-06T02:00:00	5	Humedad	69
62997	7	Sololá	701	Sololá	3	Barraneche	11	Noviembre	2023-11-25T00:00:00	2024-11-06T02:00:00	6	Velocidad del viento	4.8
62998	7	Sololá	701	Sololá	3	Barraneche	11	Noviembre	2023-11-25T00:00:00	2024-11-06T02:00:00	7	Dirección del viento	4.83
62999	7	Sololá	701	Sololá	3	Barraneche	11	Noviembre	2023-11-25T00:00:00	2024-11-06T02:00:00	1	Precipitación	0
63000	7	Sololá	701	Sololá	3	Barraneche	11	Noviembre	2023-11-25T00:00:00	2024-11-06T02:00:00	8	Radiación solar	0
63001	7	Sololá	701	Sololá	3	Barraneche	11	Noviembre	2023-11-25T00:00:00	2024-11-06T03:00:00	2	Temperatura media	12.3
63002	7	Sololá	701	Sololá	3	Barraneche	11	Noviembre	2023-11-25T00:00:00	2024-11-06T03:00:00	4	Temperatura máxima	12.5
63003	7	Sololá	701	Sololá	3	Barraneche	11	Noviembre	2023-11-25T00:00:00	2024-11-06T03:00:00	3	Temperatura mínima	11.7
63004	7	Sololá	701	Sololá	3	Barraneche	11	Noviembre	2023-11-25T00:00:00	2024-11-06T03:00:00	5	Humedad	69
63005	7	Sololá	701	Sololá	3	Barraneche	11	Noviembre	2023-11-25T00:00:00	2024-11-06T03:00:00	6	Velocidad del viento	3.2
63006	7	Sololá	701	Sololá	3	Barraneche	11	Noviembre	2023-11-25T00:00:00	2024-11-06T03:00:00	7	Dirección del viento	3.22
63007	7	Sololá	701	Sololá	3	Barraneche	11	Noviembre	2023-11-25T00:00:00	2024-11-06T03:00:00	1	Precipitación	0
63008	7	Sololá	701	Sololá	3	Barraneche	11	Noviembre	2023-11-25T00:00:00	2024-11-06T03:00:00	8	Radiación solar	0
63009	7	Sololá	701	Sololá	3	Barraneche	11	Noviembre	2023-11-25T00:00:00	2024-11-06T04:00:00	2	Temperatura media	12.8
63010	7	Sololá	701	Sololá	3	Barraneche	11	Noviembre	2023-11-25T00:00:00	2024-11-06T04:00:00	4	Temperatura máxima	13.1
63011	7	Sololá	701	Sololá	3	Barraneche	11	Noviembre	2023-11-25T00:00:00	2024-11-06T04:00:00	3	Temperatura mínima	12.2
63012	7	Sololá	701	Sololá	3	Barraneche	11	Noviembre	2023-11-25T00:00:00	2024-11-06T04:00:00	5	Humedad	71
63013	7	Sololá	701	Sololá	3	Barraneche	11	Noviembre	2023-11-25T00:00:00	2024-11-06T04:00:00	6	Velocidad del viento	3.2
63014	7	Sololá	701	Sololá	3	Barraneche	11	Noviembre	2023-11-25T00:00:00	2024-11-06T04:00:00	7	Dirección del viento	3.22
63015	7	Sololá	701	Sololá	3	Barraneche	11	Noviembre	2023-11-25T00:00:00	2024-11-06T04:00:00	1	Precipitación	0
63016	7	Sololá	701	Sololá	3	Barraneche	11	Noviembre	2023-11-25T00:00:00	2024-11-06T04:00:00	8	Radiación solar	0
63017	7	Sololá	701	Sololá	3	Barraneche	11	Noviembre	2023-11-25T00:00:00	2024-11-06T05:00:00	2	Temperatura media	13.9
63018	7	Sololá	701	Sololá	3	Barraneche	11	Noviembre	2023-11-25T00:00:00	2024-11-06T05:00:00	4	Temperatura máxima	13.9
63019	7	Sololá	701	Sololá	3	Barraneche	11	Noviembre	2023-11-25T00:00:00	2024-11-06T05:00:00	3	Temperatura mínima	12.7
63020	7	Sololá	701	Sololá	3	Barraneche	11	Noviembre	2023-11-25T00:00:00	2024-11-06T05:00:00	5	Humedad	65
63021	7	Sololá	701	Sololá	3	Barraneche	11	Noviembre	2023-11-25T00:00:00	2024-11-06T05:00:00	6	Velocidad del viento	4.8
63022	7	Sololá	701	Sololá	3	Barraneche	11	Noviembre	2023-11-25T00:00:00	2024-11-06T05:00:00	7	Dirección del viento	4.83
63023	7	Sololá	701	Sololá	3	Barraneche	11	Noviembre	2023-11-25T00:00:00	2024-11-06T05:00:00	1	Precipitación	0
63024	7	Sololá	701	Sololá	3	Barraneche	11	Noviembre	2023-11-25T00:00:00	2024-11-06T05:00:00	8	Radiación solar	0
63025	7	Sololá	701	Sololá	3	Barraneche	11	Noviembre	2023-11-25T00:00:00	2024-11-06T06:00:00	2	Temperatura media	12.6
63026	7	Sololá	701	Sololá	3	Barraneche	11	Noviembre	2023-11-25T00:00:00	2024-11-06T06:00:00	4	Temperatura máxima	13.9
63027	7	Sololá	701	Sololá	3	Barraneche	11	Noviembre	2023-11-25T00:00:00	2024-11-06T06:00:00	3	Temperatura mínima	12.3
63028	7	Sololá	701	Sololá	3	Barraneche	11	Noviembre	2023-11-25T00:00:00	2024-11-06T06:00:00	5	Humedad	67
63029	7	Sololá	701	Sololá	3	Barraneche	11	Noviembre	2023-11-25T00:00:00	2024-11-06T06:00:00	6	Velocidad del viento	3.2
63030	7	Sololá	701	Sololá	3	Barraneche	11	Noviembre	2023-11-25T00:00:00	2024-11-06T06:00:00	7	Dirección del viento	3.22
63031	7	Sololá	701	Sololá	3	Barraneche	11	Noviembre	2023-11-25T00:00:00	2024-11-06T06:00:00	1	Precipitación	0
63032	7	Sololá	701	Sololá	3	Barraneche	11	Noviembre	2023-11-25T00:00:00	2024-11-06T06:00:00	8	Radiación solar	0
63033	7	Sololá	701	Sololá	3	Barraneche	11	Noviembre	2023-11-25T00:00:00	2024-11-06T07:00:00	2	Temperatura media	11.8
63034	7	Sololá	701	Sololá	3	Barraneche	11	Noviembre	2023-11-25T00:00:00	2024-11-06T07:00:00	4	Temperatura máxima	12.6
63035	7	Sololá	701	Sololá	3	Barraneche	11	Noviembre	2023-11-25T00:00:00	2024-11-06T07:00:00	3	Temperatura mínima	11.4
63036	7	Sololá	701	Sololá	3	Barraneche	11	Noviembre	2023-11-25T00:00:00	2024-11-06T07:00:00	5	Humedad	71
63037	7	Sololá	701	Sololá	3	Barraneche	11	Noviembre	2023-11-25T00:00:00	2024-11-06T07:00:00	6	Velocidad del viento	1.6
63038	7	Sololá	701	Sololá	3	Barraneche	11	Noviembre	2023-11-25T00:00:00	2024-11-06T07:00:00	7	Dirección del viento	1.61
63039	7	Sololá	701	Sololá	3	Barraneche	11	Noviembre	2023-11-25T00:00:00	2024-11-06T07:00:00	1	Precipitación	0
63040	7	Sololá	701	Sololá	3	Barraneche	11	Noviembre	2023-11-25T00:00:00	2024-11-06T07:00:00	8	Radiación solar	21
63041	7	Sololá	701	Sololá	3	Barraneche	11	Noviembre	2023-11-25T00:00:00	2024-11-06T08:00:00	2	Temperatura media	13.4
63042	7	Sololá	701	Sololá	3	Barraneche	11	Noviembre	2023-11-25T00:00:00	2024-11-06T08:00:00	4	Temperatura máxima	13.4
63043	7	Sololá	701	Sololá	3	Barraneche	11	Noviembre	2023-11-25T00:00:00	2024-11-06T08:00:00	3	Temperatura mínima	11.8
63044	7	Sololá	701	Sololá	3	Barraneche	11	Noviembre	2023-11-25T00:00:00	2024-11-06T08:00:00	5	Humedad	66
63045	7	Sololá	701	Sololá	3	Barraneche	11	Noviembre	2023-11-25T00:00:00	2024-11-06T08:00:00	6	Velocidad del viento	1.6
63046	7	Sololá	701	Sololá	3	Barraneche	11	Noviembre	2023-11-25T00:00:00	2024-11-06T08:00:00	7	Dirección del viento	1.61
63047	7	Sololá	701	Sololá	3	Barraneche	11	Noviembre	2023-11-25T00:00:00	2024-11-06T08:00:00	1	Precipitación	0
63048	7	Sololá	701	Sololá	3	Barraneche	11	Noviembre	2023-11-25T00:00:00	2024-11-06T08:00:00	8	Radiación solar	103
63049	7	Sololá	701	Sololá	3	Barraneche	11	Noviembre	2023-11-25T00:00:00	2024-11-06T09:00:00	2	Temperatura media	17
63050	7	Sololá	701	Sololá	3	Barraneche	11	Noviembre	2023-11-25T00:00:00	2024-11-06T09:00:00	4	Temperatura máxima	17
63051	7	Sololá	701	Sololá	3	Barraneche	11	Noviembre	2023-11-25T00:00:00	2024-11-06T09:00:00	3	Temperatura mínima	13.5
63052	7	Sololá	701	Sololá	3	Barraneche	11	Noviembre	2023-11-25T00:00:00	2024-11-06T09:00:00	5	Humedad	61
63053	7	Sololá	701	Sololá	3	Barraneche	11	Noviembre	2023-11-25T00:00:00	2024-11-06T09:00:00	6	Velocidad del viento	3.2
63054	7	Sololá	701	Sololá	3	Barraneche	11	Noviembre	2023-11-25T00:00:00	2024-11-06T09:00:00	7	Dirección del viento	3.22
63055	7	Sololá	701	Sololá	3	Barraneche	11	Noviembre	2023-11-25T00:00:00	2024-11-06T09:00:00	1	Precipitación	0
63056	7	Sololá	701	Sololá	3	Barraneche	11	Noviembre	2023-11-25T00:00:00	2024-11-06T09:00:00	8	Radiación solar	380
63057	7	Sololá	701	Sololá	3	Barraneche	11	Noviembre	2023-11-25T00:00:00	2024-11-06T10:00:00	2	Temperatura media	19.8
63058	7	Sololá	701	Sololá	3	Barraneche	11	Noviembre	2023-11-25T00:00:00	2024-11-06T10:00:00	4	Temperatura máxima	19.8
63059	7	Sololá	701	Sololá	3	Barraneche	11	Noviembre	2023-11-25T00:00:00	2024-11-06T10:00:00	3	Temperatura mínima	17
63060	7	Sololá	701	Sololá	3	Barraneche	11	Noviembre	2023-11-25T00:00:00	2024-11-06T10:00:00	5	Humedad	51
63061	7	Sololá	701	Sololá	3	Barraneche	11	Noviembre	2023-11-25T00:00:00	2024-11-06T10:00:00	6	Velocidad del viento	6.4
63062	7	Sololá	701	Sololá	3	Barraneche	11	Noviembre	2023-11-25T00:00:00	2024-11-06T10:00:00	7	Dirección del viento	6.44
63063	7	Sololá	701	Sololá	3	Barraneche	11	Noviembre	2023-11-25T00:00:00	2024-11-06T10:00:00	1	Precipitación	0
63064	7	Sololá	701	Sololá	3	Barraneche	11	Noviembre	2023-11-25T00:00:00	2024-11-06T10:00:00	8	Radiación solar	657
63065	7	Sololá	701	Sololá	3	Barraneche	11	Noviembre	2023-11-25T00:00:00	2024-11-06T11:00:00	2	Temperatura media	21.1
63066	7	Sololá	701	Sololá	3	Barraneche	11	Noviembre	2023-11-25T00:00:00	2024-11-06T11:00:00	4	Temperatura máxima	21.1
63067	7	Sololá	701	Sololá	3	Barraneche	11	Noviembre	2023-11-25T00:00:00	2024-11-06T11:00:00	3	Temperatura mínima	19.8
63068	7	Sololá	701	Sololá	3	Barraneche	11	Noviembre	2023-11-25T00:00:00	2024-11-06T11:00:00	5	Humedad	44
63069	7	Sololá	701	Sololá	3	Barraneche	11	Noviembre	2023-11-25T00:00:00	2024-11-06T11:00:00	6	Velocidad del viento	9.7
63070	7	Sololá	701	Sololá	3	Barraneche	11	Noviembre	2023-11-25T00:00:00	2024-11-06T11:00:00	7	Dirección del viento	9.66
63071	7	Sololá	701	Sololá	3	Barraneche	11	Noviembre	2023-11-25T00:00:00	2024-11-06T11:00:00	1	Precipitación	0
63072	7	Sololá	701	Sololá	3	Barraneche	11	Noviembre	2023-11-25T00:00:00	2024-11-06T11:00:00	8	Radiación solar	814
63073	7	Sololá	701	Sololá	3	Barraneche	11	Noviembre	2023-11-25T00:00:00	2024-11-06T12:00:00	2	Temperatura media	20.9
63074	7	Sololá	701	Sololá	3	Barraneche	11	Noviembre	2023-11-25T00:00:00	2024-11-06T12:00:00	4	Temperatura máxima	21.1
63075	7	Sololá	701	Sololá	3	Barraneche	11	Noviembre	2023-11-25T00:00:00	2024-11-06T12:00:00	3	Temperatura mínima	20.2
63076	7	Sololá	701	Sololá	3	Barraneche	11	Noviembre	2023-11-25T00:00:00	2024-11-06T12:00:00	5	Humedad	44
63077	7	Sololá	701	Sololá	3	Barraneche	11	Noviembre	2023-11-25T00:00:00	2024-11-06T12:00:00	6	Velocidad del viento	12.9
63078	7	Sololá	701	Sololá	3	Barraneche	11	Noviembre	2023-11-25T00:00:00	2024-11-06T12:00:00	7	Dirección del viento	12.87
63079	7	Sololá	701	Sololá	3	Barraneche	11	Noviembre	2023-11-25T00:00:00	2024-11-06T12:00:00	1	Precipitación	0
63080	7	Sololá	701	Sololá	3	Barraneche	11	Noviembre	2023-11-25T00:00:00	2024-11-06T12:00:00	8	Radiación solar	874
63081	7	Sololá	701	Sololá	3	Barraneche	11	Noviembre	2023-11-25T00:00:00	2024-11-06T13:00:00	2	Temperatura media	20.8
63082	7	Sololá	701	Sololá	3	Barraneche	11	Noviembre	2023-11-25T00:00:00	2024-11-06T13:00:00	4	Temperatura máxima	21.1
63083	7	Sololá	701	Sololá	3	Barraneche	11	Noviembre	2023-11-25T00:00:00	2024-11-06T13:00:00	3	Temperatura mínima	19.9
63084	7	Sololá	701	Sololá	3	Barraneche	11	Noviembre	2023-11-25T00:00:00	2024-11-06T13:00:00	5	Humedad	49
63085	7	Sololá	701	Sololá	3	Barraneche	11	Noviembre	2023-11-25T00:00:00	2024-11-06T13:00:00	6	Velocidad del viento	8
63086	7	Sololá	701	Sololá	3	Barraneche	11	Noviembre	2023-11-25T00:00:00	2024-11-06T13:00:00	7	Dirección del viento	8.05
63087	7	Sololá	701	Sololá	3	Barraneche	11	Noviembre	2023-11-25T00:00:00	2024-11-06T13:00:00	1	Precipitación	0
63088	7	Sololá	701	Sololá	3	Barraneche	11	Noviembre	2023-11-25T00:00:00	2024-11-06T13:00:00	8	Radiación solar	805
63089	7	Sololá	701	Sololá	3	Barraneche	11	Noviembre	2023-11-25T00:00:00	2024-11-06T14:00:00	2	Temperatura media	20.5
63090	7	Sololá	701	Sololá	3	Barraneche	11	Noviembre	2023-11-25T00:00:00	2024-11-06T14:00:00	4	Temperatura máxima	21.3
63091	7	Sololá	701	Sololá	3	Barraneche	11	Noviembre	2023-11-25T00:00:00	2024-11-06T14:00:00	3	Temperatura mínima	19.9
63092	7	Sololá	701	Sololá	3	Barraneche	11	Noviembre	2023-11-25T00:00:00	2024-11-06T14:00:00	5	Humedad	47
63093	7	Sololá	701	Sololá	3	Barraneche	11	Noviembre	2023-11-25T00:00:00	2024-11-06T14:00:00	6	Velocidad del viento	9.7
63094	7	Sololá	701	Sololá	3	Barraneche	11	Noviembre	2023-11-25T00:00:00	2024-11-06T14:00:00	7	Dirección del viento	9.66
63095	7	Sololá	701	Sololá	3	Barraneche	11	Noviembre	2023-11-25T00:00:00	2024-11-06T14:00:00	1	Precipitación	0
63096	7	Sololá	701	Sololá	3	Barraneche	11	Noviembre	2023-11-25T00:00:00	2024-11-06T14:00:00	8	Radiación solar	735
63097	7	Sololá	701	Sololá	3	Barraneche	11	Noviembre	2023-11-25T00:00:00	2024-11-06T15:00:00	2	Temperatura media	18.7
63098	7	Sololá	701	Sololá	3	Barraneche	11	Noviembre	2023-11-25T00:00:00	2024-11-06T15:00:00	4	Temperatura máxima	20.8
63099	7	Sololá	701	Sololá	3	Barraneche	11	Noviembre	2023-11-25T00:00:00	2024-11-06T15:00:00	3	Temperatura mínima	18.7
63100	7	Sololá	701	Sololá	3	Barraneche	11	Noviembre	2023-11-25T00:00:00	2024-11-06T15:00:00	5	Humedad	66
63101	7	Sololá	701	Sololá	3	Barraneche	11	Noviembre	2023-11-25T00:00:00	2024-11-06T15:00:00	6	Velocidad del viento	11.3
63102	7	Sololá	701	Sololá	3	Barraneche	11	Noviembre	2023-11-25T00:00:00	2024-11-06T15:00:00	7	Dirección del viento	11.27
63103	7	Sololá	701	Sololá	3	Barraneche	11	Noviembre	2023-11-25T00:00:00	2024-11-06T15:00:00	1	Precipitación	0
63104	7	Sololá	701	Sololá	3	Barraneche	11	Noviembre	2023-11-25T00:00:00	2024-11-06T15:00:00	8	Radiación solar	659
63105	7	Sololá	701	Sololá	3	Barraneche	11	Noviembre	2023-11-25T00:00:00	2024-11-06T16:00:00	2	Temperatura media	18.1
63106	7	Sololá	701	Sololá	3	Barraneche	11	Noviembre	2023-11-25T00:00:00	2024-11-06T16:00:00	4	Temperatura máxima	18.7
63107	7	Sololá	701	Sololá	3	Barraneche	11	Noviembre	2023-11-25T00:00:00	2024-11-06T16:00:00	3	Temperatura mínima	17.9
63108	7	Sololá	701	Sololá	3	Barraneche	11	Noviembre	2023-11-25T00:00:00	2024-11-06T16:00:00	5	Humedad	67
63109	7	Sololá	701	Sololá	3	Barraneche	11	Noviembre	2023-11-25T00:00:00	2024-11-06T16:00:00	6	Velocidad del viento	11.3
63110	7	Sololá	701	Sololá	3	Barraneche	11	Noviembre	2023-11-25T00:00:00	2024-11-06T16:00:00	7	Dirección del viento	11.27
63111	7	Sololá	701	Sololá	3	Barraneche	11	Noviembre	2023-11-25T00:00:00	2024-11-06T16:00:00	1	Precipitación	0
63112	7	Sololá	701	Sololá	3	Barraneche	11	Noviembre	2023-11-25T00:00:00	2024-11-06T16:00:00	8	Radiación solar	338
63113	7	Sololá	701	Sololá	3	Barraneche	11	Noviembre	2023-11-25T00:00:00	2024-11-06T17:00:00	2	Temperatura media	17.4
63114	7	Sololá	701	Sololá	3	Barraneche	11	Noviembre	2023-11-25T00:00:00	2024-11-06T17:00:00	4	Temperatura máxima	18.7
63115	7	Sololá	701	Sololá	3	Barraneche	11	Noviembre	2023-11-25T00:00:00	2024-11-06T17:00:00	3	Temperatura mínima	17.4
63116	7	Sololá	701	Sololá	3	Barraneche	11	Noviembre	2023-11-25T00:00:00	2024-11-06T17:00:00	5	Humedad	58
63117	7	Sololá	701	Sololá	3	Barraneche	11	Noviembre	2023-11-25T00:00:00	2024-11-06T17:00:00	6	Velocidad del viento	8
63118	7	Sololá	701	Sololá	3	Barraneche	11	Noviembre	2023-11-25T00:00:00	2024-11-06T17:00:00	7	Dirección del viento	8.05
63119	7	Sololá	701	Sololá	3	Barraneche	11	Noviembre	2023-11-25T00:00:00	2024-11-06T17:00:00	1	Precipitación	0
63120	7	Sololá	701	Sololá	3	Barraneche	11	Noviembre	2023-11-25T00:00:00	2024-11-06T17:00:00	8	Radiación solar	133
63121	7	Sololá	701	Sololá	3	Barraneche	11	Noviembre	2023-11-25T00:00:00	2024-11-06T18:00:00	2	Temperatura media	15.6
63122	7	Sololá	701	Sololá	3	Barraneche	11	Noviembre	2023-11-25T00:00:00	2024-11-06T18:00:00	4	Temperatura máxima	17.4
63123	7	Sololá	701	Sololá	3	Barraneche	11	Noviembre	2023-11-25T00:00:00	2024-11-06T18:00:00	3	Temperatura mínima	15.5
63124	7	Sololá	701	Sololá	3	Barraneche	11	Noviembre	2023-11-25T00:00:00	2024-11-06T18:00:00	5	Humedad	61
63125	7	Sololá	701	Sololá	3	Barraneche	11	Noviembre	2023-11-25T00:00:00	2024-11-06T18:00:00	6	Velocidad del viento	4.8
63126	7	Sololá	701	Sololá	3	Barraneche	11	Noviembre	2023-11-25T00:00:00	2024-11-06T18:00:00	7	Dirección del viento	4.83
63127	7	Sololá	701	Sololá	3	Barraneche	11	Noviembre	2023-11-25T00:00:00	2024-11-06T18:00:00	1	Precipitación	0
63128	7	Sololá	701	Sololá	3	Barraneche	11	Noviembre	2023-11-25T00:00:00	2024-11-06T18:00:00	8	Radiación solar	10
63129	7	Sololá	701	Sololá	3	Barraneche	11	Noviembre	2023-11-25T00:00:00	2024-11-06T19:00:00	2	Temperatura media	15.4
63130	7	Sololá	701	Sololá	3	Barraneche	11	Noviembre	2023-11-25T00:00:00	2024-11-06T19:00:00	4	Temperatura máxima	15.8
63131	7	Sololá	701	Sololá	3	Barraneche	11	Noviembre	2023-11-25T00:00:00	2024-11-06T19:00:00	3	Temperatura mínima	15.3
63132	7	Sololá	701	Sololá	3	Barraneche	11	Noviembre	2023-11-25T00:00:00	2024-11-06T19:00:00	5	Humedad	63
63133	7	Sololá	701	Sololá	3	Barraneche	11	Noviembre	2023-11-25T00:00:00	2024-11-06T19:00:00	6	Velocidad del viento	8
63134	7	Sololá	701	Sololá	3	Barraneche	11	Noviembre	2023-11-25T00:00:00	2024-11-06T19:00:00	7	Dirección del viento	8.05
63135	7	Sololá	701	Sololá	3	Barraneche	11	Noviembre	2023-11-25T00:00:00	2024-11-06T19:00:00	1	Precipitación	0
63136	7	Sololá	701	Sololá	3	Barraneche	11	Noviembre	2023-11-25T00:00:00	2024-11-06T19:00:00	8	Radiación solar	0
63137	7	Sololá	701	Sololá	3	Barraneche	11	Noviembre	2023-11-25T00:00:00	2024-11-06T20:00:00	2	Temperatura media	15
63138	7	Sololá	701	Sololá	3	Barraneche	11	Noviembre	2023-11-25T00:00:00	2024-11-06T20:00:00	4	Temperatura máxima	15.5
63139	7	Sololá	701	Sololá	3	Barraneche	11	Noviembre	2023-11-25T00:00:00	2024-11-06T20:00:00	3	Temperatura mínima	14.9
63140	7	Sololá	701	Sololá	3	Barraneche	11	Noviembre	2023-11-25T00:00:00	2024-11-06T20:00:00	5	Humedad	63
63141	7	Sololá	701	Sololá	3	Barraneche	11	Noviembre	2023-11-25T00:00:00	2024-11-06T20:00:00	6	Velocidad del viento	6.4
63142	7	Sololá	701	Sololá	3	Barraneche	11	Noviembre	2023-11-25T00:00:00	2024-11-06T20:00:00	7	Dirección del viento	6.44
63143	7	Sololá	701	Sololá	3	Barraneche	11	Noviembre	2023-11-25T00:00:00	2024-11-06T20:00:00	1	Precipitación	0
63144	7	Sololá	701	Sololá	3	Barraneche	11	Noviembre	2023-11-25T00:00:00	2024-11-06T20:00:00	8	Radiación solar	0
63145	7	Sololá	701	Sololá	3	Barraneche	11	Noviembre	2023-11-25T00:00:00	2024-11-06T21:00:00	2	Temperatura media	14.8
63146	7	Sololá	701	Sololá	3	Barraneche	11	Noviembre	2023-11-25T00:00:00	2024-11-06T21:00:00	4	Temperatura máxima	15.1
63147	7	Sololá	701	Sololá	3	Barraneche	11	Noviembre	2023-11-25T00:00:00	2024-11-06T21:00:00	3	Temperatura mínima	14.4
63148	7	Sololá	701	Sololá	3	Barraneche	11	Noviembre	2023-11-25T00:00:00	2024-11-06T21:00:00	5	Humedad	61
63149	7	Sololá	701	Sololá	3	Barraneche	11	Noviembre	2023-11-25T00:00:00	2024-11-06T21:00:00	6	Velocidad del viento	6.4
63150	7	Sololá	701	Sololá	3	Barraneche	11	Noviembre	2023-11-25T00:00:00	2024-11-06T21:00:00	7	Dirección del viento	6.44
63151	7	Sololá	701	Sololá	3	Barraneche	11	Noviembre	2023-11-25T00:00:00	2024-11-06T21:00:00	1	Precipitación	0
63152	7	Sololá	701	Sololá	3	Barraneche	11	Noviembre	2023-11-25T00:00:00	2024-11-06T21:00:00	8	Radiación solar	0
63153	7	Sololá	701	Sololá	3	Barraneche	11	Noviembre	2023-11-25T00:00:00	2024-11-06T22:00:00	2	Temperatura media	14.2
63154	7	Sololá	701	Sololá	3	Barraneche	11	Noviembre	2023-11-25T00:00:00	2024-11-06T22:00:00	4	Temperatura máxima	14.8
63155	7	Sololá	701	Sololá	3	Barraneche	11	Noviembre	2023-11-25T00:00:00	2024-11-06T22:00:00	3	Temperatura mínima	13.8
63156	7	Sololá	701	Sololá	3	Barraneche	11	Noviembre	2023-11-25T00:00:00	2024-11-06T22:00:00	5	Humedad	62
63157	7	Sololá	701	Sololá	3	Barraneche	11	Noviembre	2023-11-25T00:00:00	2024-11-06T22:00:00	6	Velocidad del viento	4.8
63158	7	Sololá	701	Sololá	3	Barraneche	11	Noviembre	2023-11-25T00:00:00	2024-11-06T22:00:00	7	Dirección del viento	4.83
63159	7	Sololá	701	Sololá	3	Barraneche	11	Noviembre	2023-11-25T00:00:00	2024-11-06T22:00:00	1	Precipitación	0
63160	7	Sololá	701	Sololá	3	Barraneche	11	Noviembre	2023-11-25T00:00:00	2024-11-06T22:00:00	8	Radiación solar	0
63161	7	Sololá	701	Sololá	3	Barraneche	11	Noviembre	2023-11-25T00:00:00	2024-11-06T23:00:00	2	Temperatura media	11.6
63162	7	Sololá	701	Sololá	3	Barraneche	11	Noviembre	2023-11-25T00:00:00	2024-11-06T23:00:00	4	Temperatura máxima	14.3
63163	7	Sololá	701	Sololá	3	Barraneche	11	Noviembre	2023-11-25T00:00:00	2024-11-06T23:00:00	3	Temperatura mínima	11.6
63164	7	Sololá	701	Sololá	3	Barraneche	11	Noviembre	2023-11-25T00:00:00	2024-11-06T23:00:00	5	Humedad	68
63165	7	Sololá	701	Sololá	3	Barraneche	11	Noviembre	2023-11-25T00:00:00	2024-11-06T23:00:00	6	Velocidad del viento	3.2
63166	7	Sololá	701	Sololá	3	Barraneche	11	Noviembre	2023-11-25T00:00:00	2024-11-06T23:00:00	7	Dirección del viento	3.22
63167	7	Sololá	701	Sololá	3	Barraneche	11	Noviembre	2023-11-25T00:00:00	2024-11-06T23:00:00	1	Precipitación	0
63168	7	Sololá	701	Sololá	3	Barraneche	11	Noviembre	2023-11-25T00:00:00	2024-11-06T23:00:00	8	Radiación solar	0
63169	7	Sololá	701	Sololá	3	Barraneche	11	Noviembre	2023-11-26T00:00:00	2024-11-06T00:00:00	2	Temperatura media	11.7
63170	7	Sololá	701	Sololá	3	Barraneche	11	Noviembre	2023-11-26T00:00:00	2024-11-06T00:00:00	4	Temperatura máxima	12
63171	7	Sololá	701	Sololá	3	Barraneche	11	Noviembre	2023-11-26T00:00:00	2024-11-06T00:00:00	3	Temperatura mínima	11.2
63172	7	Sololá	701	Sololá	3	Barraneche	11	Noviembre	2023-11-26T00:00:00	2024-11-06T00:00:00	5	Humedad	66
63173	7	Sololá	701	Sololá	3	Barraneche	11	Noviembre	2023-11-26T00:00:00	2024-11-06T00:00:00	6	Velocidad del viento	3.2
63174	7	Sololá	701	Sololá	3	Barraneche	11	Noviembre	2023-11-26T00:00:00	2024-11-06T00:00:00	7	Dirección del viento	3.22
63175	7	Sololá	701	Sololá	3	Barraneche	11	Noviembre	2023-11-26T00:00:00	2024-11-06T00:00:00	1	Precipitación	0
63176	7	Sololá	701	Sololá	3	Barraneche	11	Noviembre	2023-11-26T00:00:00	2024-11-06T00:00:00	8	Radiación solar	0
63177	7	Sololá	701	Sololá	3	Barraneche	11	Noviembre	2023-11-26T00:00:00	2024-11-06T01:00:00	2	Temperatura media	10.8
63178	7	Sololá	701	Sololá	3	Barraneche	11	Noviembre	2023-11-26T00:00:00	2024-11-06T01:00:00	4	Temperatura máxima	11.7
63179	7	Sololá	701	Sololá	3	Barraneche	11	Noviembre	2023-11-26T00:00:00	2024-11-06T01:00:00	3	Temperatura mínima	10.8
63180	7	Sololá	701	Sololá	3	Barraneche	11	Noviembre	2023-11-26T00:00:00	2024-11-06T01:00:00	5	Humedad	68
63181	7	Sololá	701	Sololá	3	Barraneche	11	Noviembre	2023-11-26T00:00:00	2024-11-06T01:00:00	6	Velocidad del viento	4.8
63182	7	Sololá	701	Sololá	3	Barraneche	11	Noviembre	2023-11-26T00:00:00	2024-11-06T01:00:00	7	Dirección del viento	4.83
63183	7	Sololá	701	Sololá	3	Barraneche	11	Noviembre	2023-11-26T00:00:00	2024-11-06T01:00:00	1	Precipitación	0
63184	7	Sololá	701	Sololá	3	Barraneche	11	Noviembre	2023-11-26T00:00:00	2024-11-06T01:00:00	8	Radiación solar	0
63185	7	Sololá	701	Sololá	3	Barraneche	11	Noviembre	2023-11-26T00:00:00	2024-11-06T02:00:00	2	Temperatura media	10.8
63186	7	Sololá	701	Sololá	3	Barraneche	11	Noviembre	2023-11-26T00:00:00	2024-11-06T02:00:00	4	Temperatura máxima	10.9
63187	7	Sololá	701	Sololá	3	Barraneche	11	Noviembre	2023-11-26T00:00:00	2024-11-06T02:00:00	3	Temperatura mínima	10.5
63188	7	Sololá	701	Sololá	3	Barraneche	11	Noviembre	2023-11-26T00:00:00	2024-11-06T02:00:00	5	Humedad	68
63189	7	Sololá	701	Sololá	3	Barraneche	11	Noviembre	2023-11-26T00:00:00	2024-11-06T02:00:00	6	Velocidad del viento	6.4
63190	7	Sololá	701	Sololá	3	Barraneche	11	Noviembre	2023-11-26T00:00:00	2024-11-06T02:00:00	7	Dirección del viento	6.44
63191	7	Sololá	701	Sololá	3	Barraneche	11	Noviembre	2023-11-26T00:00:00	2024-11-06T02:00:00	1	Precipitación	0
63192	7	Sololá	701	Sololá	3	Barraneche	11	Noviembre	2023-11-26T00:00:00	2024-11-06T02:00:00	8	Radiación solar	0
63193	7	Sololá	701	Sololá	3	Barraneche	11	Noviembre	2023-11-26T00:00:00	2024-11-06T03:00:00	2	Temperatura media	10.7
63194	7	Sololá	701	Sololá	3	Barraneche	11	Noviembre	2023-11-26T00:00:00	2024-11-06T03:00:00	4	Temperatura máxima	10.9
63195	7	Sololá	701	Sololá	3	Barraneche	11	Noviembre	2023-11-26T00:00:00	2024-11-06T03:00:00	3	Temperatura mínima	10.5
63196	7	Sololá	701	Sololá	3	Barraneche	11	Noviembre	2023-11-26T00:00:00	2024-11-06T03:00:00	5	Humedad	70
63197	7	Sololá	701	Sololá	3	Barraneche	11	Noviembre	2023-11-26T00:00:00	2024-11-06T03:00:00	6	Velocidad del viento	4.8
63198	7	Sololá	701	Sololá	3	Barraneche	11	Noviembre	2023-11-26T00:00:00	2024-11-06T03:00:00	7	Dirección del viento	4.83
63199	7	Sololá	701	Sololá	3	Barraneche	11	Noviembre	2023-11-26T00:00:00	2024-11-06T03:00:00	1	Precipitación	0
63200	7	Sololá	701	Sololá	3	Barraneche	11	Noviembre	2023-11-26T00:00:00	2024-11-06T03:00:00	8	Radiación solar	0
63201	7	Sololá	701	Sololá	3	Barraneche	11	Noviembre	2023-11-26T00:00:00	2024-11-06T04:00:00	2	Temperatura media	10.8
63202	7	Sololá	701	Sololá	3	Barraneche	11	Noviembre	2023-11-26T00:00:00	2024-11-06T04:00:00	4	Temperatura máxima	11.4
63203	7	Sololá	701	Sololá	3	Barraneche	11	Noviembre	2023-11-26T00:00:00	2024-11-06T04:00:00	3	Temperatura mínima	10.7
63204	7	Sololá	701	Sololá	3	Barraneche	11	Noviembre	2023-11-26T00:00:00	2024-11-06T04:00:00	5	Humedad	67
63205	7	Sololá	701	Sololá	3	Barraneche	11	Noviembre	2023-11-26T00:00:00	2024-11-06T04:00:00	6	Velocidad del viento	6.4
63206	7	Sololá	701	Sololá	3	Barraneche	11	Noviembre	2023-11-26T00:00:00	2024-11-06T04:00:00	7	Dirección del viento	6.44
63207	7	Sololá	701	Sololá	3	Barraneche	11	Noviembre	2023-11-26T00:00:00	2024-11-06T04:00:00	1	Precipitación	0
63208	7	Sololá	701	Sololá	3	Barraneche	11	Noviembre	2023-11-26T00:00:00	2024-11-06T04:00:00	8	Radiación solar	0
63209	7	Sololá	701	Sololá	3	Barraneche	11	Noviembre	2023-11-26T00:00:00	2024-11-06T05:00:00	2	Temperatura media	9.4
63210	7	Sololá	701	Sololá	3	Barraneche	11	Noviembre	2023-11-26T00:00:00	2024-11-06T05:00:00	4	Temperatura máxima	11.1
63211	7	Sololá	701	Sololá	3	Barraneche	11	Noviembre	2023-11-26T00:00:00	2024-11-06T05:00:00	3	Temperatura mínima	9.4
63212	7	Sololá	701	Sololá	3	Barraneche	11	Noviembre	2023-11-26T00:00:00	2024-11-06T05:00:00	5	Humedad	68
63213	7	Sololá	701	Sololá	3	Barraneche	11	Noviembre	2023-11-26T00:00:00	2024-11-06T05:00:00	6	Velocidad del viento	3.2
63214	7	Sololá	701	Sololá	3	Barraneche	11	Noviembre	2023-11-26T00:00:00	2024-11-06T05:00:00	7	Dirección del viento	3.22
63215	7	Sololá	701	Sololá	3	Barraneche	11	Noviembre	2023-11-26T00:00:00	2024-11-06T05:00:00	1	Precipitación	0
63216	7	Sololá	701	Sololá	3	Barraneche	11	Noviembre	2023-11-26T00:00:00	2024-11-06T05:00:00	8	Radiación solar	0
63217	7	Sololá	701	Sololá	3	Barraneche	11	Noviembre	2023-11-26T00:00:00	2024-11-06T06:00:00	2	Temperatura media	8.9
63218	7	Sololá	701	Sololá	3	Barraneche	11	Noviembre	2023-11-26T00:00:00	2024-11-06T06:00:00	4	Temperatura máxima	10
63219	7	Sololá	701	Sololá	3	Barraneche	11	Noviembre	2023-11-26T00:00:00	2024-11-06T06:00:00	3	Temperatura mínima	8.9
63220	7	Sololá	701	Sololá	3	Barraneche	11	Noviembre	2023-11-26T00:00:00	2024-11-06T06:00:00	5	Humedad	69
63221	7	Sololá	701	Sololá	3	Barraneche	11	Noviembre	2023-11-26T00:00:00	2024-11-06T06:00:00	6	Velocidad del viento	6.4
63222	7	Sololá	701	Sololá	3	Barraneche	11	Noviembre	2023-11-26T00:00:00	2024-11-06T06:00:00	7	Dirección del viento	6.44
63223	7	Sololá	701	Sololá	3	Barraneche	11	Noviembre	2023-11-26T00:00:00	2024-11-06T06:00:00	1	Precipitación	0
63224	7	Sololá	701	Sololá	3	Barraneche	11	Noviembre	2023-11-26T00:00:00	2024-11-06T06:00:00	8	Radiación solar	0
63225	7	Sololá	701	Sololá	3	Barraneche	11	Noviembre	2023-11-26T00:00:00	2024-11-06T07:00:00	2	Temperatura media	10.6
63226	7	Sololá	701	Sololá	3	Barraneche	11	Noviembre	2023-11-26T00:00:00	2024-11-06T07:00:00	4	Temperatura máxima	10.6
63227	7	Sololá	701	Sololá	3	Barraneche	11	Noviembre	2023-11-26T00:00:00	2024-11-06T07:00:00	3	Temperatura mínima	8.8
63228	7	Sololá	701	Sololá	3	Barraneche	11	Noviembre	2023-11-26T00:00:00	2024-11-06T07:00:00	5	Humedad	66
63229	7	Sololá	701	Sololá	3	Barraneche	11	Noviembre	2023-11-26T00:00:00	2024-11-06T07:00:00	6	Velocidad del viento	3.2
63230	7	Sololá	701	Sololá	3	Barraneche	11	Noviembre	2023-11-26T00:00:00	2024-11-06T07:00:00	7	Dirección del viento	3.22
63231	7	Sololá	701	Sololá	3	Barraneche	11	Noviembre	2023-11-26T00:00:00	2024-11-06T07:00:00	1	Precipitación	0
63232	7	Sololá	701	Sololá	3	Barraneche	11	Noviembre	2023-11-26T00:00:00	2024-11-06T07:00:00	8	Radiación solar	24
63233	7	Sololá	701	Sololá	3	Barraneche	11	Noviembre	2023-11-26T00:00:00	2024-11-06T08:00:00	2	Temperatura media	14.6
63234	7	Sololá	701	Sololá	3	Barraneche	11	Noviembre	2023-11-26T00:00:00	2024-11-06T08:00:00	4	Temperatura máxima	14.6
63235	7	Sololá	701	Sololá	3	Barraneche	11	Noviembre	2023-11-26T00:00:00	2024-11-06T08:00:00	3	Temperatura mínima	10.6
63236	7	Sololá	701	Sololá	3	Barraneche	11	Noviembre	2023-11-26T00:00:00	2024-11-06T08:00:00	5	Humedad	53
63237	7	Sololá	701	Sololá	3	Barraneche	11	Noviembre	2023-11-26T00:00:00	2024-11-06T08:00:00	6	Velocidad del viento	1.6
63238	7	Sololá	701	Sololá	3	Barraneche	11	Noviembre	2023-11-26T00:00:00	2024-11-06T08:00:00	7	Dirección del viento	1.61
63239	7	Sololá	701	Sololá	3	Barraneche	11	Noviembre	2023-11-26T00:00:00	2024-11-06T08:00:00	1	Precipitación	0
63240	7	Sololá	701	Sololá	3	Barraneche	11	Noviembre	2023-11-26T00:00:00	2024-11-06T08:00:00	8	Radiación solar	244
63241	7	Sololá	701	Sololá	3	Barraneche	11	Noviembre	2023-11-26T00:00:00	2024-11-06T09:00:00	2	Temperatura media	17.5
63242	7	Sololá	701	Sololá	3	Barraneche	11	Noviembre	2023-11-26T00:00:00	2024-11-06T09:00:00	4	Temperatura máxima	17.6
63243	7	Sololá	701	Sololá	3	Barraneche	11	Noviembre	2023-11-26T00:00:00	2024-11-06T09:00:00	3	Temperatura mínima	14.6
63244	7	Sololá	701	Sololá	3	Barraneche	11	Noviembre	2023-11-26T00:00:00	2024-11-06T09:00:00	5	Humedad	40
63245	7	Sololá	701	Sololá	3	Barraneche	11	Noviembre	2023-11-26T00:00:00	2024-11-06T09:00:00	6	Velocidad del viento	6.4
63246	7	Sololá	701	Sololá	3	Barraneche	11	Noviembre	2023-11-26T00:00:00	2024-11-06T09:00:00	7	Dirección del viento	6.44
63247	7	Sololá	701	Sololá	3	Barraneche	11	Noviembre	2023-11-26T00:00:00	2024-11-06T09:00:00	1	Precipitación	0
63248	7	Sololá	701	Sololá	3	Barraneche	11	Noviembre	2023-11-26T00:00:00	2024-11-06T09:00:00	8	Radiación solar	468
63249	7	Sololá	701	Sololá	3	Barraneche	11	Noviembre	2023-11-26T00:00:00	2024-11-06T10:00:00	2	Temperatura media	18.9
63250	7	Sololá	701	Sololá	3	Barraneche	11	Noviembre	2023-11-26T00:00:00	2024-11-06T10:00:00	4	Temperatura máxima	18.9
63251	7	Sololá	701	Sololá	3	Barraneche	11	Noviembre	2023-11-26T00:00:00	2024-11-06T10:00:00	3	Temperatura mínima	17.6
63252	7	Sololá	701	Sololá	3	Barraneche	11	Noviembre	2023-11-26T00:00:00	2024-11-06T10:00:00	5	Humedad	35
63253	7	Sololá	701	Sololá	3	Barraneche	11	Noviembre	2023-11-26T00:00:00	2024-11-06T10:00:00	6	Velocidad del viento	12.9
63254	7	Sololá	701	Sololá	3	Barraneche	11	Noviembre	2023-11-26T00:00:00	2024-11-06T10:00:00	7	Dirección del viento	12.87
63255	7	Sololá	701	Sololá	3	Barraneche	11	Noviembre	2023-11-26T00:00:00	2024-11-06T10:00:00	1	Precipitación	0
63256	7	Sololá	701	Sololá	3	Barraneche	11	Noviembre	2023-11-26T00:00:00	2024-11-06T10:00:00	8	Radiación solar	681
63257	7	Sololá	701	Sololá	3	Barraneche	11	Noviembre	2023-11-26T00:00:00	2024-11-06T11:00:00	2	Temperatura media	18.9
63258	7	Sololá	701	Sololá	3	Barraneche	11	Noviembre	2023-11-26T00:00:00	2024-11-06T11:00:00	4	Temperatura máxima	19.4
63259	7	Sololá	701	Sololá	3	Barraneche	11	Noviembre	2023-11-26T00:00:00	2024-11-06T11:00:00	3	Temperatura mínima	18.8
63260	7	Sololá	701	Sololá	3	Barraneche	11	Noviembre	2023-11-26T00:00:00	2024-11-06T11:00:00	5	Humedad	39
63261	7	Sololá	701	Sololá	3	Barraneche	11	Noviembre	2023-11-26T00:00:00	2024-11-06T11:00:00	6	Velocidad del viento	12.9
63262	7	Sololá	701	Sololá	3	Barraneche	11	Noviembre	2023-11-26T00:00:00	2024-11-06T11:00:00	7	Dirección del viento	12.87
63263	7	Sololá	701	Sololá	3	Barraneche	11	Noviembre	2023-11-26T00:00:00	2024-11-06T11:00:00	1	Precipitación	0
63264	7	Sololá	701	Sololá	3	Barraneche	11	Noviembre	2023-11-26T00:00:00	2024-11-06T11:00:00	8	Radiación solar	802
63265	7	Sololá	701	Sololá	3	Barraneche	11	Noviembre	2023-11-26T00:00:00	2024-11-06T12:00:00	2	Temperatura media	19.3
63266	7	Sololá	701	Sololá	3	Barraneche	11	Noviembre	2023-11-26T00:00:00	2024-11-06T12:00:00	4	Temperatura máxima	19.4
63267	7	Sololá	701	Sololá	3	Barraneche	11	Noviembre	2023-11-26T00:00:00	2024-11-06T12:00:00	3	Temperatura mínima	18.9
63268	7	Sololá	701	Sololá	3	Barraneche	11	Noviembre	2023-11-26T00:00:00	2024-11-06T12:00:00	5	Humedad	43
63269	7	Sololá	701	Sololá	3	Barraneche	11	Noviembre	2023-11-26T00:00:00	2024-11-06T12:00:00	6	Velocidad del viento	12.9
63270	7	Sololá	701	Sololá	3	Barraneche	11	Noviembre	2023-11-26T00:00:00	2024-11-06T12:00:00	7	Dirección del viento	12.87
63271	7	Sololá	701	Sololá	3	Barraneche	11	Noviembre	2023-11-26T00:00:00	2024-11-06T12:00:00	1	Precipitación	0
63272	7	Sololá	701	Sololá	3	Barraneche	11	Noviembre	2023-11-26T00:00:00	2024-11-06T12:00:00	8	Radiación solar	871
63273	7	Sololá	701	Sololá	3	Barraneche	11	Noviembre	2023-11-26T00:00:00	2024-11-06T13:00:00	2	Temperatura media	19.3
63274	7	Sololá	701	Sololá	3	Barraneche	11	Noviembre	2023-11-26T00:00:00	2024-11-06T13:00:00	4	Temperatura máxima	19.8
63275	7	Sololá	701	Sololá	3	Barraneche	11	Noviembre	2023-11-26T00:00:00	2024-11-06T13:00:00	3	Temperatura mínima	19.2
63276	7	Sololá	701	Sololá	3	Barraneche	11	Noviembre	2023-11-26T00:00:00	2024-11-06T13:00:00	5	Humedad	43
63277	7	Sololá	701	Sololá	3	Barraneche	11	Noviembre	2023-11-26T00:00:00	2024-11-06T13:00:00	6	Velocidad del viento	12.9
63278	7	Sololá	701	Sololá	3	Barraneche	11	Noviembre	2023-11-26T00:00:00	2024-11-06T13:00:00	7	Dirección del viento	12.87
63279	7	Sololá	701	Sololá	3	Barraneche	11	Noviembre	2023-11-26T00:00:00	2024-11-06T13:00:00	1	Precipitación	0
63280	7	Sololá	701	Sololá	3	Barraneche	11	Noviembre	2023-11-26T00:00:00	2024-11-06T13:00:00	8	Radiación solar	870
63281	7	Sololá	701	Sololá	3	Barraneche	11	Noviembre	2023-11-26T00:00:00	2024-11-06T14:00:00	2	Temperatura media	19.9
63282	7	Sololá	701	Sololá	3	Barraneche	11	Noviembre	2023-11-26T00:00:00	2024-11-06T14:00:00	4	Temperatura máxima	19.9
63283	7	Sololá	701	Sololá	3	Barraneche	11	Noviembre	2023-11-26T00:00:00	2024-11-06T14:00:00	3	Temperatura mínima	19.1
63284	7	Sololá	701	Sololá	3	Barraneche	11	Noviembre	2023-11-26T00:00:00	2024-11-06T14:00:00	5	Humedad	40
63285	7	Sololá	701	Sololá	3	Barraneche	11	Noviembre	2023-11-26T00:00:00	2024-11-06T14:00:00	6	Velocidad del viento	11.3
63286	7	Sololá	701	Sololá	3	Barraneche	11	Noviembre	2023-11-26T00:00:00	2024-11-06T14:00:00	7	Dirección del viento	11.27
63287	7	Sololá	701	Sololá	3	Barraneche	11	Noviembre	2023-11-26T00:00:00	2024-11-06T14:00:00	1	Precipitación	0
63288	7	Sololá	701	Sololá	3	Barraneche	11	Noviembre	2023-11-26T00:00:00	2024-11-06T14:00:00	8	Radiación solar	788
63289	7	Sololá	701	Sololá	3	Barraneche	11	Noviembre	2023-11-26T00:00:00	2024-11-06T15:00:00	2	Temperatura media	19.3
63290	7	Sololá	701	Sololá	3	Barraneche	11	Noviembre	2023-11-26T00:00:00	2024-11-06T15:00:00	4	Temperatura máxima	19.9
63291	7	Sololá	701	Sololá	3	Barraneche	11	Noviembre	2023-11-26T00:00:00	2024-11-06T15:00:00	3	Temperatura mínima	19.3
63292	7	Sololá	701	Sololá	3	Barraneche	11	Noviembre	2023-11-26T00:00:00	2024-11-06T15:00:00	5	Humedad	38
63293	7	Sololá	701	Sololá	3	Barraneche	11	Noviembre	2023-11-26T00:00:00	2024-11-06T15:00:00	6	Velocidad del viento	11.3
63294	7	Sololá	701	Sololá	3	Barraneche	11	Noviembre	2023-11-26T00:00:00	2024-11-06T15:00:00	7	Dirección del viento	11.27
63295	7	Sololá	701	Sololá	3	Barraneche	11	Noviembre	2023-11-26T00:00:00	2024-11-06T15:00:00	1	Precipitación	0
63296	7	Sololá	701	Sololá	3	Barraneche	11	Noviembre	2023-11-26T00:00:00	2024-11-06T15:00:00	8	Radiación solar	643
63297	7	Sololá	701	Sololá	3	Barraneche	11	Noviembre	2023-11-26T00:00:00	2024-11-06T16:00:00	2	Temperatura media	18.3
63298	7	Sololá	701	Sololá	3	Barraneche	11	Noviembre	2023-11-26T00:00:00	2024-11-06T16:00:00	4	Temperatura máxima	19.9
63299	7	Sololá	701	Sololá	3	Barraneche	11	Noviembre	2023-11-26T00:00:00	2024-11-06T16:00:00	3	Temperatura mínima	18.3
63300	7	Sololá	701	Sololá	3	Barraneche	11	Noviembre	2023-11-26T00:00:00	2024-11-06T16:00:00	5	Humedad	45
63301	7	Sololá	701	Sololá	3	Barraneche	11	Noviembre	2023-11-26T00:00:00	2024-11-06T16:00:00	6	Velocidad del viento	11.3
63302	7	Sololá	701	Sololá	3	Barraneche	11	Noviembre	2023-11-26T00:00:00	2024-11-06T16:00:00	7	Dirección del viento	11.27
63303	7	Sololá	701	Sololá	3	Barraneche	11	Noviembre	2023-11-26T00:00:00	2024-11-06T16:00:00	1	Precipitación	0
63304	7	Sololá	701	Sololá	3	Barraneche	11	Noviembre	2023-11-26T00:00:00	2024-11-06T16:00:00	8	Radiación solar	388
63305	7	Sololá	701	Sololá	3	Barraneche	11	Noviembre	2023-11-26T00:00:00	2024-11-06T17:00:00	2	Temperatura media	17.7
63306	7	Sololá	701	Sololá	3	Barraneche	11	Noviembre	2023-11-26T00:00:00	2024-11-06T17:00:00	4	Temperatura máxima	18.5
63307	7	Sololá	701	Sololá	3	Barraneche	11	Noviembre	2023-11-26T00:00:00	2024-11-06T17:00:00	3	Temperatura mínima	17.7
63308	7	Sololá	701	Sololá	3	Barraneche	11	Noviembre	2023-11-26T00:00:00	2024-11-06T17:00:00	5	Humedad	49
63309	7	Sololá	701	Sololá	3	Barraneche	11	Noviembre	2023-11-26T00:00:00	2024-11-06T17:00:00	6	Velocidad del viento	6.4
63310	7	Sololá	701	Sololá	3	Barraneche	11	Noviembre	2023-11-26T00:00:00	2024-11-06T17:00:00	7	Dirección del viento	6.44
63311	7	Sololá	701	Sololá	3	Barraneche	11	Noviembre	2023-11-26T00:00:00	2024-11-06T17:00:00	1	Precipitación	0
63312	7	Sololá	701	Sololá	3	Barraneche	11	Noviembre	2023-11-26T00:00:00	2024-11-06T17:00:00	8	Radiación solar	168
63313	7	Sololá	701	Sololá	3	Barraneche	11	Noviembre	2023-11-26T00:00:00	2024-11-06T18:00:00	2	Temperatura media	15.6
63314	7	Sololá	701	Sololá	3	Barraneche	11	Noviembre	2023-11-26T00:00:00	2024-11-06T18:00:00	4	Temperatura máxima	17.7
63315	7	Sololá	701	Sololá	3	Barraneche	11	Noviembre	2023-11-26T00:00:00	2024-11-06T18:00:00	3	Temperatura mínima	15.6
63316	7	Sololá	701	Sololá	3	Barraneche	11	Noviembre	2023-11-26T00:00:00	2024-11-06T18:00:00	5	Humedad	59
63317	7	Sololá	701	Sololá	3	Barraneche	11	Noviembre	2023-11-26T00:00:00	2024-11-06T18:00:00	6	Velocidad del viento	4.8
63318	7	Sololá	701	Sololá	3	Barraneche	11	Noviembre	2023-11-26T00:00:00	2024-11-06T18:00:00	7	Dirección del viento	4.83
63319	7	Sololá	701	Sololá	3	Barraneche	11	Noviembre	2023-11-26T00:00:00	2024-11-06T18:00:00	1	Precipitación	0
63320	7	Sololá	701	Sololá	3	Barraneche	11	Noviembre	2023-11-26T00:00:00	2024-11-06T18:00:00	8	Radiación solar	18
63321	7	Sololá	701	Sololá	3	Barraneche	11	Noviembre	2023-11-26T00:00:00	2024-11-06T19:00:00	2	Temperatura media	13.7
63322	7	Sololá	701	Sololá	3	Barraneche	11	Noviembre	2023-11-26T00:00:00	2024-11-06T19:00:00	4	Temperatura máxima	15.6
63323	7	Sololá	701	Sololá	3	Barraneche	11	Noviembre	2023-11-26T00:00:00	2024-11-06T19:00:00	3	Temperatura mínima	13.7
63324	7	Sololá	701	Sololá	3	Barraneche	11	Noviembre	2023-11-26T00:00:00	2024-11-06T19:00:00	5	Humedad	65
63325	7	Sololá	701	Sololá	3	Barraneche	11	Noviembre	2023-11-26T00:00:00	2024-11-06T19:00:00	6	Velocidad del viento	3.2
63326	7	Sololá	701	Sololá	3	Barraneche	11	Noviembre	2023-11-26T00:00:00	2024-11-06T19:00:00	7	Dirección del viento	3.22
63327	7	Sololá	701	Sololá	3	Barraneche	11	Noviembre	2023-11-26T00:00:00	2024-11-06T19:00:00	1	Precipitación	0
63328	7	Sololá	701	Sololá	3	Barraneche	11	Noviembre	2023-11-26T00:00:00	2024-11-06T19:00:00	8	Radiación solar	0
63329	7	Sololá	701	Sololá	3	Barraneche	11	Noviembre	2023-11-26T00:00:00	2024-11-06T20:00:00	2	Temperatura media	15.2
63330	7	Sololá	701	Sololá	3	Barraneche	11	Noviembre	2023-11-26T00:00:00	2024-11-06T20:00:00	4	Temperatura máxima	15.5
63331	7	Sololá	701	Sololá	3	Barraneche	11	Noviembre	2023-11-26T00:00:00	2024-11-06T20:00:00	3	Temperatura mínima	13.7
63332	7	Sololá	701	Sololá	3	Barraneche	11	Noviembre	2023-11-26T00:00:00	2024-11-06T20:00:00	5	Humedad	62
63333	7	Sololá	701	Sololá	3	Barraneche	11	Noviembre	2023-11-26T00:00:00	2024-11-06T20:00:00	6	Velocidad del viento	11.3
63334	7	Sololá	701	Sololá	3	Barraneche	11	Noviembre	2023-11-26T00:00:00	2024-11-06T20:00:00	7	Dirección del viento	11.27
63335	7	Sololá	701	Sololá	3	Barraneche	11	Noviembre	2023-11-26T00:00:00	2024-11-06T20:00:00	1	Precipitación	0
63336	7	Sololá	701	Sololá	3	Barraneche	11	Noviembre	2023-11-26T00:00:00	2024-11-06T20:00:00	8	Radiación solar	0
63337	7	Sololá	701	Sololá	3	Barraneche	11	Noviembre	2023-11-26T00:00:00	2024-11-06T21:00:00	2	Temperatura media	14.4
63338	7	Sololá	701	Sololá	3	Barraneche	11	Noviembre	2023-11-26T00:00:00	2024-11-06T21:00:00	4	Temperatura máxima	15.2
63339	7	Sololá	701	Sololá	3	Barraneche	11	Noviembre	2023-11-26T00:00:00	2024-11-06T21:00:00	3	Temperatura mínima	14.4
63340	7	Sololá	701	Sololá	3	Barraneche	11	Noviembre	2023-11-26T00:00:00	2024-11-06T21:00:00	5	Humedad	62
63341	7	Sololá	701	Sololá	3	Barraneche	11	Noviembre	2023-11-26T00:00:00	2024-11-06T21:00:00	6	Velocidad del viento	14.5
63342	7	Sololá	701	Sololá	3	Barraneche	11	Noviembre	2023-11-26T00:00:00	2024-11-06T21:00:00	7	Dirección del viento	14.48
63343	7	Sololá	701	Sololá	3	Barraneche	11	Noviembre	2023-11-26T00:00:00	2024-11-06T21:00:00	1	Precipitación	0
63344	7	Sololá	701	Sololá	3	Barraneche	11	Noviembre	2023-11-26T00:00:00	2024-11-06T21:00:00	8	Radiación solar	0
63345	7	Sololá	701	Sololá	3	Barraneche	11	Noviembre	2023-11-26T00:00:00	2024-11-06T22:00:00	2	Temperatura media	14.2
63346	7	Sololá	701	Sololá	3	Barraneche	11	Noviembre	2023-11-26T00:00:00	2024-11-06T22:00:00	4	Temperatura máxima	14.6
63347	7	Sololá	701	Sololá	3	Barraneche	11	Noviembre	2023-11-26T00:00:00	2024-11-06T22:00:00	3	Temperatura mínima	14.2
63348	7	Sololá	701	Sololá	3	Barraneche	11	Noviembre	2023-11-26T00:00:00	2024-11-06T22:00:00	5	Humedad	60
63349	7	Sololá	701	Sololá	3	Barraneche	11	Noviembre	2023-11-26T00:00:00	2024-11-06T22:00:00	6	Velocidad del viento	14.5
63350	7	Sololá	701	Sololá	3	Barraneche	11	Noviembre	2023-11-26T00:00:00	2024-11-06T22:00:00	7	Dirección del viento	14.48
63351	7	Sololá	701	Sololá	3	Barraneche	11	Noviembre	2023-11-26T00:00:00	2024-11-06T22:00:00	1	Precipitación	0
63352	7	Sololá	701	Sololá	3	Barraneche	11	Noviembre	2023-11-26T00:00:00	2024-11-06T22:00:00	8	Radiación solar	0
63353	7	Sololá	701	Sololá	3	Barraneche	11	Noviembre	2023-11-26T00:00:00	2024-11-06T23:00:00	2	Temperatura media	14.1
63354	7	Sololá	701	Sololá	3	Barraneche	11	Noviembre	2023-11-26T00:00:00	2024-11-06T23:00:00	4	Temperatura máxima	14.3
63355	7	Sololá	701	Sololá	3	Barraneche	11	Noviembre	2023-11-26T00:00:00	2024-11-06T23:00:00	3	Temperatura mínima	13.9
63356	7	Sololá	701	Sololá	3	Barraneche	11	Noviembre	2023-11-26T00:00:00	2024-11-06T23:00:00	5	Humedad	52
63357	7	Sololá	701	Sololá	3	Barraneche	11	Noviembre	2023-11-26T00:00:00	2024-11-06T23:00:00	6	Velocidad del viento	12.9
63358	7	Sololá	701	Sololá	3	Barraneche	11	Noviembre	2023-11-26T00:00:00	2024-11-06T23:00:00	7	Dirección del viento	12.87
63359	7	Sololá	701	Sololá	3	Barraneche	11	Noviembre	2023-11-26T00:00:00	2024-11-06T23:00:00	1	Precipitación	0
63360	7	Sololá	701	Sololá	3	Barraneche	11	Noviembre	2023-11-26T00:00:00	2024-11-06T23:00:00	8	Radiación solar	0
63361	7	Sololá	701	Sololá	3	Barraneche	11	Noviembre	2023-11-27T00:00:00	2024-11-06T00:00:00	2	Temperatura media	13.1
63362	7	Sololá	701	Sololá	3	Barraneche	11	Noviembre	2023-11-27T00:00:00	2024-11-06T00:00:00	4	Temperatura máxima	14.1
63363	7	Sololá	701	Sololá	3	Barraneche	11	Noviembre	2023-11-27T00:00:00	2024-11-06T00:00:00	3	Temperatura mínima	13.1
63364	7	Sololá	701	Sololá	3	Barraneche	11	Noviembre	2023-11-27T00:00:00	2024-11-06T00:00:00	5	Humedad	61
63365	7	Sololá	701	Sololá	3	Barraneche	11	Noviembre	2023-11-27T00:00:00	2024-11-06T00:00:00	6	Velocidad del viento	16.1
63366	7	Sololá	701	Sololá	3	Barraneche	11	Noviembre	2023-11-27T00:00:00	2024-11-06T00:00:00	7	Dirección del viento	16.09
63367	7	Sololá	701	Sololá	3	Barraneche	11	Noviembre	2023-11-27T00:00:00	2024-11-06T00:00:00	1	Precipitación	0
63368	7	Sololá	701	Sololá	3	Barraneche	11	Noviembre	2023-11-27T00:00:00	2024-11-06T00:00:00	8	Radiación solar	0
63369	7	Sololá	701	Sololá	3	Barraneche	11	Noviembre	2023-11-27T00:00:00	2024-11-06T01:00:00	2	Temperatura media	13.3
63370	7	Sololá	701	Sololá	3	Barraneche	11	Noviembre	2023-11-27T00:00:00	2024-11-06T01:00:00	4	Temperatura máxima	13.4
63371	7	Sololá	701	Sololá	3	Barraneche	11	Noviembre	2023-11-27T00:00:00	2024-11-06T01:00:00	3	Temperatura mínima	13.1
63372	7	Sololá	701	Sololá	3	Barraneche	11	Noviembre	2023-11-27T00:00:00	2024-11-06T01:00:00	5	Humedad	57
63373	7	Sololá	701	Sololá	3	Barraneche	11	Noviembre	2023-11-27T00:00:00	2024-11-06T01:00:00	6	Velocidad del viento	17.7
63374	7	Sololá	701	Sololá	3	Barraneche	11	Noviembre	2023-11-27T00:00:00	2024-11-06T01:00:00	7	Dirección del viento	17.7
63375	7	Sololá	701	Sololá	3	Barraneche	11	Noviembre	2023-11-27T00:00:00	2024-11-06T01:00:00	1	Precipitación	0
63376	7	Sololá	701	Sololá	3	Barraneche	11	Noviembre	2023-11-27T00:00:00	2024-11-06T01:00:00	8	Radiación solar	0
63377	7	Sololá	701	Sololá	3	Barraneche	11	Noviembre	2023-11-27T00:00:00	2024-11-06T02:00:00	2	Temperatura media	13.2
63378	7	Sololá	701	Sololá	3	Barraneche	11	Noviembre	2023-11-27T00:00:00	2024-11-06T02:00:00	4	Temperatura máxima	13.3
63379	7	Sololá	701	Sololá	3	Barraneche	11	Noviembre	2023-11-27T00:00:00	2024-11-06T02:00:00	3	Temperatura mínima	12.8
63380	7	Sololá	701	Sololá	3	Barraneche	11	Noviembre	2023-11-27T00:00:00	2024-11-06T02:00:00	5	Humedad	54
63381	7	Sololá	701	Sololá	3	Barraneche	11	Noviembre	2023-11-27T00:00:00	2024-11-06T02:00:00	6	Velocidad del viento	19.3
63382	7	Sololá	701	Sololá	3	Barraneche	11	Noviembre	2023-11-27T00:00:00	2024-11-06T02:00:00	7	Dirección del viento	19.31
63383	7	Sololá	701	Sololá	3	Barraneche	11	Noviembre	2023-11-27T00:00:00	2024-11-06T02:00:00	1	Precipitación	0
63384	7	Sololá	701	Sololá	3	Barraneche	11	Noviembre	2023-11-27T00:00:00	2024-11-06T02:00:00	8	Radiación solar	0
63385	7	Sololá	701	Sololá	3	Barraneche	11	Noviembre	2023-11-27T00:00:00	2024-11-06T03:00:00	2	Temperatura media	12.8
63386	7	Sololá	701	Sololá	3	Barraneche	11	Noviembre	2023-11-27T00:00:00	2024-11-06T03:00:00	4	Temperatura máxima	13.2
63387	7	Sololá	701	Sololá	3	Barraneche	11	Noviembre	2023-11-27T00:00:00	2024-11-06T03:00:00	3	Temperatura mínima	12.7
63388	7	Sololá	701	Sololá	3	Barraneche	11	Noviembre	2023-11-27T00:00:00	2024-11-06T03:00:00	5	Humedad	60
63389	7	Sololá	701	Sololá	3	Barraneche	11	Noviembre	2023-11-27T00:00:00	2024-11-06T03:00:00	6	Velocidad del viento	19.3
63390	7	Sololá	701	Sololá	3	Barraneche	11	Noviembre	2023-11-27T00:00:00	2024-11-06T03:00:00	7	Dirección del viento	19.31
63391	7	Sololá	701	Sololá	3	Barraneche	11	Noviembre	2023-11-27T00:00:00	2024-11-06T03:00:00	1	Precipitación	0
63392	7	Sololá	701	Sololá	3	Barraneche	11	Noviembre	2023-11-27T00:00:00	2024-11-06T03:00:00	8	Radiación solar	0
63393	7	Sololá	701	Sololá	3	Barraneche	11	Noviembre	2023-11-27T00:00:00	2024-11-06T04:00:00	2	Temperatura media	13.7
63394	7	Sololá	701	Sololá	3	Barraneche	11	Noviembre	2023-11-27T00:00:00	2024-11-06T04:00:00	4	Temperatura máxima	13.9
63395	7	Sololá	701	Sololá	3	Barraneche	11	Noviembre	2023-11-27T00:00:00	2024-11-06T04:00:00	3	Temperatura mínima	12.8
63396	7	Sololá	701	Sololá	3	Barraneche	11	Noviembre	2023-11-27T00:00:00	2024-11-06T04:00:00	5	Humedad	45
63397	7	Sololá	701	Sololá	3	Barraneche	11	Noviembre	2023-11-27T00:00:00	2024-11-06T04:00:00	6	Velocidad del viento	17.7
63398	7	Sololá	701	Sololá	3	Barraneche	11	Noviembre	2023-11-27T00:00:00	2024-11-06T04:00:00	7	Dirección del viento	17.7
63399	7	Sololá	701	Sololá	3	Barraneche	11	Noviembre	2023-11-27T00:00:00	2024-11-06T04:00:00	1	Precipitación	0
63400	7	Sololá	701	Sololá	3	Barraneche	11	Noviembre	2023-11-27T00:00:00	2024-11-06T04:00:00	8	Radiación solar	0
63401	7	Sololá	701	Sololá	3	Barraneche	11	Noviembre	2023-11-27T00:00:00	2024-11-06T05:00:00	2	Temperatura media	13.6
63402	7	Sololá	701	Sololá	3	Barraneche	11	Noviembre	2023-11-27T00:00:00	2024-11-06T05:00:00	4	Temperatura máxima	13.8
63403	7	Sololá	701	Sololá	3	Barraneche	11	Noviembre	2023-11-27T00:00:00	2024-11-06T05:00:00	3	Temperatura mínima	13.3
63404	7	Sololá	701	Sololá	3	Barraneche	11	Noviembre	2023-11-27T00:00:00	2024-11-06T05:00:00	5	Humedad	45
63405	7	Sololá	701	Sololá	3	Barraneche	11	Noviembre	2023-11-27T00:00:00	2024-11-06T05:00:00	6	Velocidad del viento	19.3
63406	7	Sololá	701	Sololá	3	Barraneche	11	Noviembre	2023-11-27T00:00:00	2024-11-06T05:00:00	7	Dirección del viento	19.31
63407	7	Sololá	701	Sololá	3	Barraneche	11	Noviembre	2023-11-27T00:00:00	2024-11-06T05:00:00	1	Precipitación	0
63408	7	Sololá	701	Sololá	3	Barraneche	11	Noviembre	2023-11-27T00:00:00	2024-11-06T05:00:00	8	Radiación solar	0
63409	7	Sololá	701	Sololá	3	Barraneche	11	Noviembre	2023-11-27T00:00:00	2024-11-06T06:00:00	2	Temperatura media	12.9
63410	7	Sololá	701	Sololá	3	Barraneche	11	Noviembre	2023-11-27T00:00:00	2024-11-06T06:00:00	4	Temperatura máxima	13.6
63411	7	Sololá	701	Sololá	3	Barraneche	11	Noviembre	2023-11-27T00:00:00	2024-11-06T06:00:00	3	Temperatura mínima	12.9
63412	7	Sololá	701	Sololá	3	Barraneche	11	Noviembre	2023-11-27T00:00:00	2024-11-06T06:00:00	5	Humedad	54
63413	7	Sololá	701	Sololá	3	Barraneche	11	Noviembre	2023-11-27T00:00:00	2024-11-06T06:00:00	6	Velocidad del viento	24.1
63414	7	Sololá	701	Sololá	3	Barraneche	11	Noviembre	2023-11-27T00:00:00	2024-11-06T06:00:00	7	Dirección del viento	24.14
63415	7	Sololá	701	Sololá	3	Barraneche	11	Noviembre	2023-11-27T00:00:00	2024-11-06T06:00:00	1	Precipitación	0
63416	7	Sololá	701	Sololá	3	Barraneche	11	Noviembre	2023-11-27T00:00:00	2024-11-06T06:00:00	8	Radiación solar	0
63417	7	Sololá	701	Sololá	3	Barraneche	11	Noviembre	2023-11-27T00:00:00	2024-11-06T07:00:00	2	Temperatura media	12.5
63418	7	Sololá	701	Sololá	3	Barraneche	11	Noviembre	2023-11-27T00:00:00	2024-11-06T07:00:00	4	Temperatura máxima	12.9
63419	7	Sololá	701	Sololá	3	Barraneche	11	Noviembre	2023-11-27T00:00:00	2024-11-06T07:00:00	3	Temperatura mínima	12.3
63420	7	Sololá	701	Sololá	3	Barraneche	11	Noviembre	2023-11-27T00:00:00	2024-11-06T07:00:00	5	Humedad	62
63421	7	Sololá	701	Sololá	3	Barraneche	11	Noviembre	2023-11-27T00:00:00	2024-11-06T07:00:00	6	Velocidad del viento	24.1
63422	7	Sololá	701	Sololá	3	Barraneche	11	Noviembre	2023-11-27T00:00:00	2024-11-06T07:00:00	7	Dirección del viento	24.14
63423	7	Sololá	701	Sololá	3	Barraneche	11	Noviembre	2023-11-27T00:00:00	2024-11-06T07:00:00	1	Precipitación	0
63424	7	Sololá	701	Sololá	3	Barraneche	11	Noviembre	2023-11-27T00:00:00	2024-11-06T07:00:00	8	Radiación solar	23
63425	7	Sololá	701	Sololá	3	Barraneche	11	Noviembre	2023-11-27T00:00:00	2024-11-06T08:00:00	2	Temperatura media	14.9
63426	7	Sololá	701	Sololá	3	Barraneche	11	Noviembre	2023-11-27T00:00:00	2024-11-06T08:00:00	4	Temperatura máxima	14.9
63427	7	Sololá	701	Sololá	3	Barraneche	11	Noviembre	2023-11-27T00:00:00	2024-11-06T08:00:00	3	Temperatura mínima	12.5
63428	7	Sololá	701	Sololá	3	Barraneche	11	Noviembre	2023-11-27T00:00:00	2024-11-06T08:00:00	5	Humedad	58
63429	7	Sololá	701	Sololá	3	Barraneche	11	Noviembre	2023-11-27T00:00:00	2024-11-06T08:00:00	6	Velocidad del viento	25.7
63430	7	Sololá	701	Sololá	3	Barraneche	11	Noviembre	2023-11-27T00:00:00	2024-11-06T08:00:00	7	Dirección del viento	25.75
63431	7	Sololá	701	Sololá	3	Barraneche	11	Noviembre	2023-11-27T00:00:00	2024-11-06T08:00:00	1	Precipitación	0
63432	7	Sololá	701	Sololá	3	Barraneche	11	Noviembre	2023-11-27T00:00:00	2024-11-06T08:00:00	8	Radiación solar	241
63433	7	Sololá	701	Sololá	3	Barraneche	11	Noviembre	2023-11-27T00:00:00	2024-11-06T09:00:00	2	Temperatura media	15.7
63434	7	Sololá	701	Sololá	3	Barraneche	11	Noviembre	2023-11-27T00:00:00	2024-11-06T09:00:00	4	Temperatura máxima	16.2
63435	7	Sololá	701	Sololá	3	Barraneche	11	Noviembre	2023-11-27T00:00:00	2024-11-06T09:00:00	3	Temperatura mínima	14.9
63436	7	Sololá	701	Sololá	3	Barraneche	11	Noviembre	2023-11-27T00:00:00	2024-11-06T09:00:00	5	Humedad	59
63437	7	Sololá	701	Sololá	3	Barraneche	11	Noviembre	2023-11-27T00:00:00	2024-11-06T09:00:00	6	Velocidad del viento	24.1
63438	7	Sololá	701	Sololá	3	Barraneche	11	Noviembre	2023-11-27T00:00:00	2024-11-06T09:00:00	7	Dirección del viento	24.14
63439	7	Sololá	701	Sololá	3	Barraneche	11	Noviembre	2023-11-27T00:00:00	2024-11-06T09:00:00	1	Precipitación	0
63440	7	Sololá	701	Sololá	3	Barraneche	11	Noviembre	2023-11-27T00:00:00	2024-11-06T09:00:00	8	Radiación solar	477
63441	7	Sololá	701	Sololá	3	Barraneche	11	Noviembre	2023-11-27T00:00:00	2024-11-06T10:00:00	2	Temperatura media	16.9
63442	7	Sololá	701	Sololá	3	Barraneche	11	Noviembre	2023-11-27T00:00:00	2024-11-06T10:00:00	4	Temperatura máxima	17
63443	7	Sololá	701	Sololá	3	Barraneche	11	Noviembre	2023-11-27T00:00:00	2024-11-06T10:00:00	3	Temperatura mínima	15.4
63444	7	Sololá	701	Sololá	3	Barraneche	11	Noviembre	2023-11-27T00:00:00	2024-11-06T10:00:00	5	Humedad	57
63445	7	Sololá	701	Sololá	3	Barraneche	11	Noviembre	2023-11-27T00:00:00	2024-11-06T10:00:00	6	Velocidad del viento	22.5
63446	7	Sololá	701	Sololá	3	Barraneche	11	Noviembre	2023-11-27T00:00:00	2024-11-06T10:00:00	7	Dirección del viento	22.53
63447	7	Sololá	701	Sololá	3	Barraneche	11	Noviembre	2023-11-27T00:00:00	2024-11-06T10:00:00	1	Precipitación	0
63448	7	Sololá	701	Sololá	3	Barraneche	11	Noviembre	2023-11-27T00:00:00	2024-11-06T10:00:00	8	Radiación solar	670
63449	7	Sololá	701	Sololá	3	Barraneche	11	Noviembre	2023-11-27T00:00:00	2024-11-06T11:00:00	2	Temperatura media	17.3
63450	7	Sololá	701	Sololá	3	Barraneche	11	Noviembre	2023-11-27T00:00:00	2024-11-06T11:00:00	4	Temperatura máxima	17.6
63451	7	Sololá	701	Sololá	3	Barraneche	11	Noviembre	2023-11-27T00:00:00	2024-11-06T11:00:00	3	Temperatura mínima	16.8
63452	7	Sololá	701	Sololá	3	Barraneche	11	Noviembre	2023-11-27T00:00:00	2024-11-06T11:00:00	5	Humedad	57
63453	7	Sololá	701	Sololá	3	Barraneche	11	Noviembre	2023-11-27T00:00:00	2024-11-06T11:00:00	6	Velocidad del viento	20.9
63454	7	Sololá	701	Sololá	3	Barraneche	11	Noviembre	2023-11-27T00:00:00	2024-11-06T11:00:00	7	Dirección del viento	20.92
63455	7	Sololá	701	Sololá	3	Barraneche	11	Noviembre	2023-11-27T00:00:00	2024-11-06T11:00:00	1	Precipitación	0
63456	7	Sololá	701	Sololá	3	Barraneche	11	Noviembre	2023-11-27T00:00:00	2024-11-06T11:00:00	8	Radiación solar	811
63457	7	Sololá	701	Sololá	3	Barraneche	11	Noviembre	2023-11-27T00:00:00	2024-11-06T12:00:00	2	Temperatura media	17.4
63458	7	Sololá	701	Sololá	3	Barraneche	11	Noviembre	2023-11-27T00:00:00	2024-11-06T12:00:00	4	Temperatura máxima	18.1
63459	7	Sololá	701	Sololá	3	Barraneche	11	Noviembre	2023-11-27T00:00:00	2024-11-06T12:00:00	3	Temperatura mínima	17
63460	7	Sololá	701	Sololá	3	Barraneche	11	Noviembre	2023-11-27T00:00:00	2024-11-06T12:00:00	5	Humedad	58
63461	7	Sololá	701	Sololá	3	Barraneche	11	Noviembre	2023-11-27T00:00:00	2024-11-06T12:00:00	6	Velocidad del viento	17.7
63462	7	Sololá	701	Sololá	3	Barraneche	11	Noviembre	2023-11-27T00:00:00	2024-11-06T12:00:00	7	Dirección del viento	17.7
63463	7	Sololá	701	Sololá	3	Barraneche	11	Noviembre	2023-11-27T00:00:00	2024-11-06T12:00:00	1	Precipitación	0
63464	7	Sololá	701	Sololá	3	Barraneche	11	Noviembre	2023-11-27T00:00:00	2024-11-06T12:00:00	8	Radiación solar	761
63465	7	Sololá	701	Sololá	3	Barraneche	11	Noviembre	2023-11-27T00:00:00	2024-11-06T13:00:00	2	Temperatura media	16.4
63466	7	Sololá	701	Sololá	3	Barraneche	11	Noviembre	2023-11-27T00:00:00	2024-11-06T13:00:00	4	Temperatura máxima	17.9
63467	7	Sololá	701	Sololá	3	Barraneche	11	Noviembre	2023-11-27T00:00:00	2024-11-06T13:00:00	3	Temperatura mínima	16.2
63468	7	Sololá	701	Sololá	3	Barraneche	11	Noviembre	2023-11-27T00:00:00	2024-11-06T13:00:00	5	Humedad	60
63469	7	Sololá	701	Sololá	3	Barraneche	11	Noviembre	2023-11-27T00:00:00	2024-11-06T13:00:00	6	Velocidad del viento	16.1
63470	7	Sololá	701	Sololá	3	Barraneche	11	Noviembre	2023-11-27T00:00:00	2024-11-06T13:00:00	7	Dirección del viento	16.09
63471	7	Sololá	701	Sololá	3	Barraneche	11	Noviembre	2023-11-27T00:00:00	2024-11-06T13:00:00	1	Precipitación	0
63472	7	Sololá	701	Sololá	3	Barraneche	11	Noviembre	2023-11-27T00:00:00	2024-11-06T13:00:00	8	Radiación solar	561
63473	7	Sololá	701	Sololá	3	Barraneche	11	Noviembre	2023-11-27T00:00:00	2024-11-06T14:00:00	2	Temperatura media	17
63474	7	Sololá	701	Sololá	3	Barraneche	11	Noviembre	2023-11-27T00:00:00	2024-11-06T14:00:00	4	Temperatura máxima	17.4
63475	7	Sololá	701	Sololá	3	Barraneche	11	Noviembre	2023-11-27T00:00:00	2024-11-06T14:00:00	3	Temperatura mínima	16.4
63476	7	Sololá	701	Sololá	3	Barraneche	11	Noviembre	2023-11-27T00:00:00	2024-11-06T14:00:00	5	Humedad	60
63477	7	Sololá	701	Sololá	3	Barraneche	11	Noviembre	2023-11-27T00:00:00	2024-11-06T14:00:00	6	Velocidad del viento	16.1
63478	7	Sololá	701	Sololá	3	Barraneche	11	Noviembre	2023-11-27T00:00:00	2024-11-06T14:00:00	7	Dirección del viento	16.09
63479	7	Sololá	701	Sololá	3	Barraneche	11	Noviembre	2023-11-27T00:00:00	2024-11-06T14:00:00	1	Precipitación	0
63480	7	Sololá	701	Sololá	3	Barraneche	11	Noviembre	2023-11-27T00:00:00	2024-11-06T14:00:00	8	Radiación solar	648
63481	7	Sololá	701	Sololá	3	Barraneche	11	Noviembre	2023-11-27T00:00:00	2024-11-06T15:00:00	2	Temperatura media	16.8
63482	7	Sololá	701	Sololá	3	Barraneche	11	Noviembre	2023-11-27T00:00:00	2024-11-06T15:00:00	4	Temperatura máxima	17.7
63483	7	Sololá	701	Sololá	3	Barraneche	11	Noviembre	2023-11-27T00:00:00	2024-11-06T15:00:00	3	Temperatura mínima	16.3
63484	7	Sololá	701	Sololá	3	Barraneche	11	Noviembre	2023-11-27T00:00:00	2024-11-06T15:00:00	5	Humedad	59
63485	7	Sololá	701	Sololá	3	Barraneche	11	Noviembre	2023-11-27T00:00:00	2024-11-06T15:00:00	6	Velocidad del viento	12.9
63486	7	Sololá	701	Sololá	3	Barraneche	11	Noviembre	2023-11-27T00:00:00	2024-11-06T15:00:00	7	Dirección del viento	12.87
63487	7	Sololá	701	Sololá	3	Barraneche	11	Noviembre	2023-11-27T00:00:00	2024-11-06T15:00:00	1	Precipitación	0
63488	7	Sololá	701	Sololá	3	Barraneche	11	Noviembre	2023-11-27T00:00:00	2024-11-06T15:00:00	8	Radiación solar	534
63489	7	Sololá	701	Sololá	3	Barraneche	11	Noviembre	2023-11-27T00:00:00	2024-11-06T16:00:00	2	Temperatura media	16.5
63490	7	Sololá	701	Sololá	3	Barraneche	11	Noviembre	2023-11-27T00:00:00	2024-11-06T16:00:00	4	Temperatura máxima	17.3
63491	7	Sololá	701	Sololá	3	Barraneche	11	Noviembre	2023-11-27T00:00:00	2024-11-06T16:00:00	3	Temperatura mínima	16.4
63492	7	Sololá	701	Sololá	3	Barraneche	11	Noviembre	2023-11-27T00:00:00	2024-11-06T16:00:00	5	Humedad	55
63493	7	Sololá	701	Sololá	3	Barraneche	11	Noviembre	2023-11-27T00:00:00	2024-11-06T16:00:00	6	Velocidad del viento	12.9
63494	7	Sololá	701	Sololá	3	Barraneche	11	Noviembre	2023-11-27T00:00:00	2024-11-06T16:00:00	7	Dirección del viento	12.87
63495	7	Sololá	701	Sololá	3	Barraneche	11	Noviembre	2023-11-27T00:00:00	2024-11-06T16:00:00	1	Precipitación	0
63496	7	Sololá	701	Sololá	3	Barraneche	11	Noviembre	2023-11-27T00:00:00	2024-11-06T16:00:00	8	Radiación solar	467
63497	7	Sololá	701	Sololá	3	Barraneche	11	Noviembre	2023-11-27T00:00:00	2024-11-06T17:00:00	2	Temperatura media	15.9
63498	7	Sololá	701	Sololá	3	Barraneche	11	Noviembre	2023-11-27T00:00:00	2024-11-06T17:00:00	4	Temperatura máxima	16.6
63499	7	Sololá	701	Sololá	3	Barraneche	11	Noviembre	2023-11-27T00:00:00	2024-11-06T17:00:00	3	Temperatura mínima	15.9
63500	7	Sololá	701	Sololá	3	Barraneche	11	Noviembre	2023-11-27T00:00:00	2024-11-06T17:00:00	5	Humedad	55
63501	7	Sololá	701	Sololá	3	Barraneche	11	Noviembre	2023-11-27T00:00:00	2024-11-06T17:00:00	6	Velocidad del viento	11.3
63502	7	Sololá	701	Sololá	3	Barraneche	11	Noviembre	2023-11-27T00:00:00	2024-11-06T17:00:00	7	Dirección del viento	11.27
63503	7	Sololá	701	Sololá	3	Barraneche	11	Noviembre	2023-11-27T00:00:00	2024-11-06T17:00:00	1	Precipitación	0
63504	7	Sololá	701	Sololá	3	Barraneche	11	Noviembre	2023-11-27T00:00:00	2024-11-06T17:00:00	8	Radiación solar	175
63505	7	Sololá	701	Sololá	3	Barraneche	11	Noviembre	2023-11-27T00:00:00	2024-11-06T18:00:00	2	Temperatura media	14.6
63506	7	Sololá	701	Sololá	3	Barraneche	11	Noviembre	2023-11-27T00:00:00	2024-11-06T18:00:00	4	Temperatura máxima	15.9
63507	7	Sololá	701	Sololá	3	Barraneche	11	Noviembre	2023-11-27T00:00:00	2024-11-06T18:00:00	3	Temperatura mínima	14.5
63508	7	Sololá	701	Sololá	3	Barraneche	11	Noviembre	2023-11-27T00:00:00	2024-11-06T18:00:00	5	Humedad	58
63509	7	Sololá	701	Sololá	3	Barraneche	11	Noviembre	2023-11-27T00:00:00	2024-11-06T18:00:00	6	Velocidad del viento	9.7
63510	7	Sololá	701	Sololá	3	Barraneche	11	Noviembre	2023-11-27T00:00:00	2024-11-06T18:00:00	7	Dirección del viento	9.66
63511	7	Sololá	701	Sololá	3	Barraneche	11	Noviembre	2023-11-27T00:00:00	2024-11-06T18:00:00	1	Precipitación	0
63512	7	Sololá	701	Sololá	3	Barraneche	11	Noviembre	2023-11-27T00:00:00	2024-11-06T18:00:00	8	Radiación solar	11
63513	7	Sololá	701	Sololá	3	Barraneche	11	Noviembre	2023-11-27T00:00:00	2024-11-06T19:00:00	2	Temperatura media	14.2
63514	7	Sololá	701	Sololá	3	Barraneche	11	Noviembre	2023-11-27T00:00:00	2024-11-06T19:00:00	4	Temperatura máxima	14.7
63515	7	Sololá	701	Sololá	3	Barraneche	11	Noviembre	2023-11-27T00:00:00	2024-11-06T19:00:00	3	Temperatura mínima	14.2
63516	7	Sololá	701	Sololá	3	Barraneche	11	Noviembre	2023-11-27T00:00:00	2024-11-06T19:00:00	5	Humedad	60
63517	7	Sololá	701	Sololá	3	Barraneche	11	Noviembre	2023-11-27T00:00:00	2024-11-06T19:00:00	6	Velocidad del viento	8
63518	7	Sololá	701	Sololá	3	Barraneche	11	Noviembre	2023-11-27T00:00:00	2024-11-06T19:00:00	7	Dirección del viento	8.05
63519	7	Sololá	701	Sololá	3	Barraneche	11	Noviembre	2023-11-27T00:00:00	2024-11-06T19:00:00	1	Precipitación	0
63520	7	Sololá	701	Sololá	3	Barraneche	11	Noviembre	2023-11-27T00:00:00	2024-11-06T19:00:00	8	Radiación solar	0
63521	7	Sololá	701	Sololá	3	Barraneche	11	Noviembre	2023-11-27T00:00:00	2024-11-06T20:00:00	2	Temperatura media	13.8
63522	7	Sololá	701	Sololá	3	Barraneche	11	Noviembre	2023-11-27T00:00:00	2024-11-06T20:00:00	4	Temperatura máxima	14.2
63523	7	Sololá	701	Sololá	3	Barraneche	11	Noviembre	2023-11-27T00:00:00	2024-11-06T20:00:00	3	Temperatura mínima	13.7
63524	7	Sololá	701	Sololá	3	Barraneche	11	Noviembre	2023-11-27T00:00:00	2024-11-06T20:00:00	5	Humedad	61
63525	7	Sololá	701	Sololá	3	Barraneche	11	Noviembre	2023-11-27T00:00:00	2024-11-06T20:00:00	6	Velocidad del viento	6.4
63526	7	Sololá	701	Sololá	3	Barraneche	11	Noviembre	2023-11-27T00:00:00	2024-11-06T20:00:00	7	Dirección del viento	6.44
63527	7	Sololá	701	Sololá	3	Barraneche	11	Noviembre	2023-11-27T00:00:00	2024-11-06T20:00:00	1	Precipitación	0
63528	7	Sololá	701	Sololá	3	Barraneche	11	Noviembre	2023-11-27T00:00:00	2024-11-06T20:00:00	8	Radiación solar	0
63529	7	Sololá	701	Sololá	3	Barraneche	11	Noviembre	2023-11-27T00:00:00	2024-11-06T21:00:00	2	Temperatura media	14.2
63530	7	Sololá	701	Sololá	3	Barraneche	11	Noviembre	2023-11-27T00:00:00	2024-11-06T21:00:00	4	Temperatura máxima	14.2
63531	7	Sololá	701	Sololá	3	Barraneche	11	Noviembre	2023-11-27T00:00:00	2024-11-06T21:00:00	3	Temperatura mínima	13.2
63532	7	Sololá	701	Sololá	3	Barraneche	11	Noviembre	2023-11-27T00:00:00	2024-11-06T21:00:00	5	Humedad	60
63533	7	Sololá	701	Sololá	3	Barraneche	11	Noviembre	2023-11-27T00:00:00	2024-11-06T21:00:00	6	Velocidad del viento	12.9
63534	7	Sololá	701	Sololá	3	Barraneche	11	Noviembre	2023-11-27T00:00:00	2024-11-06T21:00:00	7	Dirección del viento	12.87
63535	7	Sololá	701	Sololá	3	Barraneche	11	Noviembre	2023-11-27T00:00:00	2024-11-06T21:00:00	1	Precipitación	0
63536	7	Sololá	701	Sololá	3	Barraneche	11	Noviembre	2023-11-27T00:00:00	2024-11-06T21:00:00	8	Radiación solar	0
63537	7	Sololá	701	Sololá	3	Barraneche	11	Noviembre	2023-11-27T00:00:00	2024-11-06T22:00:00	2	Temperatura media	14.1
63538	7	Sololá	701	Sololá	3	Barraneche	11	Noviembre	2023-11-27T00:00:00	2024-11-06T22:00:00	4	Temperatura máxima	14.3
63539	7	Sololá	701	Sololá	3	Barraneche	11	Noviembre	2023-11-27T00:00:00	2024-11-06T22:00:00	3	Temperatura mínima	13.1
63540	7	Sololá	701	Sololá	3	Barraneche	11	Noviembre	2023-11-27T00:00:00	2024-11-06T22:00:00	5	Humedad	56
63541	7	Sololá	701	Sololá	3	Barraneche	11	Noviembre	2023-11-27T00:00:00	2024-11-06T22:00:00	6	Velocidad del viento	11.3
63542	7	Sololá	701	Sololá	3	Barraneche	11	Noviembre	2023-11-27T00:00:00	2024-11-06T22:00:00	7	Dirección del viento	11.27
63543	7	Sololá	701	Sololá	3	Barraneche	11	Noviembre	2023-11-27T00:00:00	2024-11-06T22:00:00	1	Precipitación	0
63544	7	Sololá	701	Sololá	3	Barraneche	11	Noviembre	2023-11-27T00:00:00	2024-11-06T22:00:00	8	Radiación solar	0
63545	7	Sololá	701	Sololá	3	Barraneche	11	Noviembre	2023-11-27T00:00:00	2024-11-06T23:00:00	2	Temperatura media	14.1
63546	7	Sololá	701	Sololá	3	Barraneche	11	Noviembre	2023-11-27T00:00:00	2024-11-06T23:00:00	4	Temperatura máxima	14.2
63547	7	Sololá	701	Sololá	3	Barraneche	11	Noviembre	2023-11-27T00:00:00	2024-11-06T23:00:00	3	Temperatura mínima	13.4
63548	7	Sololá	701	Sololá	3	Barraneche	11	Noviembre	2023-11-27T00:00:00	2024-11-06T23:00:00	5	Humedad	59
63549	7	Sololá	701	Sololá	3	Barraneche	11	Noviembre	2023-11-27T00:00:00	2024-11-06T23:00:00	6	Velocidad del viento	11.3
63550	7	Sololá	701	Sololá	3	Barraneche	11	Noviembre	2023-11-27T00:00:00	2024-11-06T23:00:00	7	Dirección del viento	11.27
63551	7	Sololá	701	Sololá	3	Barraneche	11	Noviembre	2023-11-27T00:00:00	2024-11-06T23:00:00	1	Precipitación	0
63552	7	Sololá	701	Sololá	3	Barraneche	11	Noviembre	2023-11-27T00:00:00	2024-11-06T23:00:00	8	Radiación solar	0
63553	7	Sololá	701	Sololá	3	Barraneche	11	Noviembre	2023-11-28T00:00:00	2024-11-06T00:00:00	2	Temperatura media	13.7
63554	7	Sololá	701	Sololá	3	Barraneche	11	Noviembre	2023-11-28T00:00:00	2024-11-06T00:00:00	4	Temperatura máxima	14.2
63555	7	Sololá	701	Sololá	3	Barraneche	11	Noviembre	2023-11-28T00:00:00	2024-11-06T00:00:00	3	Temperatura mínima	13.5
63556	7	Sololá	701	Sololá	3	Barraneche	11	Noviembre	2023-11-28T00:00:00	2024-11-06T00:00:00	5	Humedad	60
63557	7	Sololá	701	Sololá	3	Barraneche	11	Noviembre	2023-11-28T00:00:00	2024-11-06T00:00:00	6	Velocidad del viento	14.5
63558	7	Sololá	701	Sololá	3	Barraneche	11	Noviembre	2023-11-28T00:00:00	2024-11-06T00:00:00	7	Dirección del viento	14.48
63559	7	Sololá	701	Sololá	3	Barraneche	11	Noviembre	2023-11-28T00:00:00	2024-11-06T00:00:00	1	Precipitación	0
63560	7	Sololá	701	Sololá	3	Barraneche	11	Noviembre	2023-11-28T00:00:00	2024-11-06T00:00:00	8	Radiación solar	0
63561	7	Sololá	701	Sololá	3	Barraneche	11	Noviembre	2023-11-28T00:00:00	2024-11-06T01:00:00	2	Temperatura media	13.1
63562	7	Sololá	701	Sololá	3	Barraneche	11	Noviembre	2023-11-28T00:00:00	2024-11-06T01:00:00	4	Temperatura máxima	13.8
63563	7	Sololá	701	Sololá	3	Barraneche	11	Noviembre	2023-11-28T00:00:00	2024-11-06T01:00:00	3	Temperatura mínima	12.2
63564	7	Sololá	701	Sololá	3	Barraneche	11	Noviembre	2023-11-28T00:00:00	2024-11-06T01:00:00	5	Humedad	61
63565	7	Sololá	701	Sololá	3	Barraneche	11	Noviembre	2023-11-28T00:00:00	2024-11-06T01:00:00	6	Velocidad del viento	9.7
63566	7	Sololá	701	Sololá	3	Barraneche	11	Noviembre	2023-11-28T00:00:00	2024-11-06T01:00:00	7	Dirección del viento	9.66
63567	7	Sololá	701	Sololá	3	Barraneche	11	Noviembre	2023-11-28T00:00:00	2024-11-06T01:00:00	1	Precipitación	0
63568	7	Sololá	701	Sololá	3	Barraneche	11	Noviembre	2023-11-28T00:00:00	2024-11-06T01:00:00	8	Radiación solar	0
63569	7	Sololá	701	Sololá	3	Barraneche	11	Noviembre	2023-11-28T00:00:00	2024-11-06T02:00:00	2	Temperatura media	14.1
63570	7	Sololá	701	Sololá	3	Barraneche	11	Noviembre	2023-11-28T00:00:00	2024-11-06T02:00:00	4	Temperatura máxima	14.1
63571	7	Sololá	701	Sololá	3	Barraneche	11	Noviembre	2023-11-28T00:00:00	2024-11-06T02:00:00	3	Temperatura mínima	11.8
63572	7	Sololá	701	Sololá	3	Barraneche	11	Noviembre	2023-11-28T00:00:00	2024-11-06T02:00:00	5	Humedad	61
63573	7	Sololá	701	Sololá	3	Barraneche	11	Noviembre	2023-11-28T00:00:00	2024-11-06T02:00:00	6	Velocidad del viento	6.4
63574	7	Sololá	701	Sololá	3	Barraneche	11	Noviembre	2023-11-28T00:00:00	2024-11-06T02:00:00	7	Dirección del viento	6.44
63575	7	Sololá	701	Sololá	3	Barraneche	11	Noviembre	2023-11-28T00:00:00	2024-11-06T02:00:00	1	Precipitación	0
63576	7	Sololá	701	Sololá	3	Barraneche	11	Noviembre	2023-11-28T00:00:00	2024-11-06T02:00:00	8	Radiación solar	0
63577	7	Sololá	701	Sololá	3	Barraneche	11	Noviembre	2023-11-28T00:00:00	2024-11-06T03:00:00	2	Temperatura media	12.8
63578	7	Sololá	701	Sololá	3	Barraneche	11	Noviembre	2023-11-28T00:00:00	2024-11-06T03:00:00	4	Temperatura máxima	14.2
63579	7	Sololá	701	Sololá	3	Barraneche	11	Noviembre	2023-11-28T00:00:00	2024-11-06T03:00:00	3	Temperatura mínima	12.2
63580	7	Sololá	701	Sololá	3	Barraneche	11	Noviembre	2023-11-28T00:00:00	2024-11-06T03:00:00	5	Humedad	64
63581	7	Sololá	701	Sololá	3	Barraneche	11	Noviembre	2023-11-28T00:00:00	2024-11-06T03:00:00	6	Velocidad del viento	6.4
63582	7	Sololá	701	Sololá	3	Barraneche	11	Noviembre	2023-11-28T00:00:00	2024-11-06T03:00:00	7	Dirección del viento	6.44
63583	7	Sololá	701	Sololá	3	Barraneche	11	Noviembre	2023-11-28T00:00:00	2024-11-06T03:00:00	1	Precipitación	0
63584	7	Sololá	701	Sololá	3	Barraneche	11	Noviembre	2023-11-28T00:00:00	2024-11-06T03:00:00	8	Radiación solar	0
63585	7	Sololá	701	Sololá	3	Barraneche	11	Noviembre	2023-11-28T00:00:00	2024-11-06T04:00:00	2	Temperatura media	13.9
63586	7	Sololá	701	Sololá	3	Barraneche	11	Noviembre	2023-11-28T00:00:00	2024-11-06T04:00:00	4	Temperatura máxima	14.1
63587	7	Sololá	701	Sololá	3	Barraneche	11	Noviembre	2023-11-28T00:00:00	2024-11-06T04:00:00	3	Temperatura mínima	12.8
63588	7	Sololá	701	Sololá	3	Barraneche	11	Noviembre	2023-11-28T00:00:00	2024-11-06T04:00:00	5	Humedad	63
63589	7	Sololá	701	Sololá	3	Barraneche	11	Noviembre	2023-11-28T00:00:00	2024-11-06T04:00:00	6	Velocidad del viento	9.7
63590	7	Sololá	701	Sololá	3	Barraneche	11	Noviembre	2023-11-28T00:00:00	2024-11-06T04:00:00	7	Dirección del viento	9.66
63591	7	Sololá	701	Sololá	3	Barraneche	11	Noviembre	2023-11-28T00:00:00	2024-11-06T04:00:00	1	Precipitación	0
63592	7	Sololá	701	Sololá	3	Barraneche	11	Noviembre	2023-11-28T00:00:00	2024-11-06T04:00:00	8	Radiación solar	0
63593	7	Sololá	701	Sololá	3	Barraneche	11	Noviembre	2023-11-28T00:00:00	2024-11-06T05:00:00	2	Temperatura media	14.3
63594	7	Sololá	701	Sololá	3	Barraneche	11	Noviembre	2023-11-28T00:00:00	2024-11-06T05:00:00	4	Temperatura máxima	14.3
63595	7	Sololá	701	Sololá	3	Barraneche	11	Noviembre	2023-11-28T00:00:00	2024-11-06T05:00:00	3	Temperatura mínima	13.8
63596	7	Sololá	701	Sololá	3	Barraneche	11	Noviembre	2023-11-28T00:00:00	2024-11-06T05:00:00	5	Humedad	62
63597	7	Sololá	701	Sololá	3	Barraneche	11	Noviembre	2023-11-28T00:00:00	2024-11-06T05:00:00	6	Velocidad del viento	14.5
63598	7	Sololá	701	Sololá	3	Barraneche	11	Noviembre	2023-11-28T00:00:00	2024-11-06T05:00:00	7	Dirección del viento	14.48
63599	7	Sololá	701	Sololá	3	Barraneche	11	Noviembre	2023-11-28T00:00:00	2024-11-06T05:00:00	1	Precipitación	0
63600	7	Sololá	701	Sololá	3	Barraneche	11	Noviembre	2023-11-28T00:00:00	2024-11-06T05:00:00	8	Radiación solar	0
63601	7	Sololá	701	Sololá	3	Barraneche	11	Noviembre	2023-11-28T00:00:00	2024-11-06T06:00:00	2	Temperatura media	14.6
63602	7	Sololá	701	Sololá	3	Barraneche	11	Noviembre	2023-11-28T00:00:00	2024-11-06T06:00:00	4	Temperatura máxima	15.1
63603	7	Sololá	701	Sololá	3	Barraneche	11	Noviembre	2023-11-28T00:00:00	2024-11-06T06:00:00	3	Temperatura mínima	14.3
63604	7	Sololá	701	Sololá	3	Barraneche	11	Noviembre	2023-11-28T00:00:00	2024-11-06T06:00:00	5	Humedad	64
63605	7	Sololá	701	Sololá	3	Barraneche	11	Noviembre	2023-11-28T00:00:00	2024-11-06T06:00:00	6	Velocidad del viento	19.3
63606	7	Sololá	701	Sololá	3	Barraneche	11	Noviembre	2023-11-28T00:00:00	2024-11-06T06:00:00	7	Dirección del viento	19.31
63607	7	Sololá	701	Sololá	3	Barraneche	11	Noviembre	2023-11-28T00:00:00	2024-11-06T06:00:00	1	Precipitación	0
63608	7	Sololá	701	Sololá	3	Barraneche	11	Noviembre	2023-11-28T00:00:00	2024-11-06T06:00:00	8	Radiación solar	0
63609	7	Sololá	701	Sololá	3	Barraneche	11	Noviembre	2023-11-28T00:00:00	2024-11-06T07:00:00	2	Temperatura media	15.3
63610	7	Sololá	701	Sololá	3	Barraneche	11	Noviembre	2023-11-28T00:00:00	2024-11-06T07:00:00	4	Temperatura máxima	15.3
63611	7	Sololá	701	Sololá	3	Barraneche	11	Noviembre	2023-11-28T00:00:00	2024-11-06T07:00:00	3	Temperatura mínima	14.4
63612	7	Sololá	701	Sololá	3	Barraneche	11	Noviembre	2023-11-28T00:00:00	2024-11-06T07:00:00	5	Humedad	62
63613	7	Sololá	701	Sololá	3	Barraneche	11	Noviembre	2023-11-28T00:00:00	2024-11-06T07:00:00	6	Velocidad del viento	29
63614	7	Sololá	701	Sololá	3	Barraneche	11	Noviembre	2023-11-28T00:00:00	2024-11-06T07:00:00	7	Dirección del viento	28.97
63615	7	Sololá	701	Sololá	3	Barraneche	11	Noviembre	2023-11-28T00:00:00	2024-11-06T07:00:00	1	Precipitación	0
63616	7	Sololá	701	Sololá	3	Barraneche	11	Noviembre	2023-11-28T00:00:00	2024-11-06T07:00:00	8	Radiación solar	39
63617	7	Sololá	701	Sololá	3	Barraneche	11	Noviembre	2023-11-28T00:00:00	2024-11-06T08:00:00	2	Temperatura media	16
63618	7	Sololá	701	Sololá	3	Barraneche	11	Noviembre	2023-11-28T00:00:00	2024-11-06T08:00:00	4	Temperatura máxima	16
63619	7	Sololá	701	Sololá	3	Barraneche	11	Noviembre	2023-11-28T00:00:00	2024-11-06T08:00:00	3	Temperatura mínima	15.2
63620	7	Sololá	701	Sololá	3	Barraneche	11	Noviembre	2023-11-28T00:00:00	2024-11-06T08:00:00	5	Humedad	62
63621	7	Sololá	701	Sololá	3	Barraneche	11	Noviembre	2023-11-28T00:00:00	2024-11-06T08:00:00	6	Velocidad del viento	27.4
63622	7	Sololá	701	Sololá	3	Barraneche	11	Noviembre	2023-11-28T00:00:00	2024-11-06T08:00:00	7	Dirección del viento	27.36
63623	7	Sololá	701	Sololá	3	Barraneche	11	Noviembre	2023-11-28T00:00:00	2024-11-06T08:00:00	1	Precipitación	0
63624	7	Sololá	701	Sololá	3	Barraneche	11	Noviembre	2023-11-28T00:00:00	2024-11-06T08:00:00	8	Radiación solar	245
63625	7	Sololá	701	Sololá	3	Barraneche	11	Noviembre	2023-11-28T00:00:00	2024-11-06T09:00:00	2	Temperatura media	17
63626	7	Sololá	701	Sololá	3	Barraneche	11	Noviembre	2023-11-28T00:00:00	2024-11-06T09:00:00	4	Temperatura máxima	17.1
63627	7	Sololá	701	Sololá	3	Barraneche	11	Noviembre	2023-11-28T00:00:00	2024-11-06T09:00:00	3	Temperatura mínima	16
63628	7	Sololá	701	Sololá	3	Barraneche	11	Noviembre	2023-11-28T00:00:00	2024-11-06T09:00:00	5	Humedad	59
63629	7	Sololá	701	Sololá	3	Barraneche	11	Noviembre	2023-11-28T00:00:00	2024-11-06T09:00:00	6	Velocidad del viento	25.7
63630	7	Sololá	701	Sololá	3	Barraneche	11	Noviembre	2023-11-28T00:00:00	2024-11-06T09:00:00	7	Dirección del viento	25.75
63631	7	Sololá	701	Sololá	3	Barraneche	11	Noviembre	2023-11-28T00:00:00	2024-11-06T09:00:00	1	Precipitación	0
63632	7	Sololá	701	Sololá	3	Barraneche	11	Noviembre	2023-11-28T00:00:00	2024-11-06T09:00:00	8	Radiación solar	480
63633	7	Sololá	701	Sololá	3	Barraneche	11	Noviembre	2023-11-28T00:00:00	2024-11-06T10:00:00	2	Temperatura media	17.6
63634	7	Sololá	701	Sololá	3	Barraneche	11	Noviembre	2023-11-28T00:00:00	2024-11-06T10:00:00	4	Temperatura máxima	18.1
63635	7	Sololá	701	Sololá	3	Barraneche	11	Noviembre	2023-11-28T00:00:00	2024-11-06T10:00:00	3	Temperatura mínima	16.4
63636	7	Sololá	701	Sololá	3	Barraneche	11	Noviembre	2023-11-28T00:00:00	2024-11-06T10:00:00	5	Humedad	57
63637	7	Sololá	701	Sololá	3	Barraneche	11	Noviembre	2023-11-28T00:00:00	2024-11-06T10:00:00	6	Velocidad del viento	24.1
63638	7	Sololá	701	Sololá	3	Barraneche	11	Noviembre	2023-11-28T00:00:00	2024-11-06T10:00:00	7	Dirección del viento	24.14
63639	7	Sololá	701	Sololá	3	Barraneche	11	Noviembre	2023-11-28T00:00:00	2024-11-06T10:00:00	1	Precipitación	0
63640	7	Sololá	701	Sololá	3	Barraneche	11	Noviembre	2023-11-28T00:00:00	2024-11-06T10:00:00	8	Radiación solar	677
63641	7	Sololá	701	Sololá	3	Barraneche	11	Noviembre	2023-11-28T00:00:00	2024-11-06T11:00:00	2	Temperatura media	18.2
63642	7	Sololá	701	Sololá	3	Barraneche	11	Noviembre	2023-11-28T00:00:00	2024-11-06T11:00:00	4	Temperatura máxima	18.8
63643	7	Sololá	701	Sololá	3	Barraneche	11	Noviembre	2023-11-28T00:00:00	2024-11-06T11:00:00	3	Temperatura mínima	17.6
63644	7	Sololá	701	Sololá	3	Barraneche	11	Noviembre	2023-11-28T00:00:00	2024-11-06T11:00:00	5	Humedad	57
63645	7	Sololá	701	Sololá	3	Barraneche	11	Noviembre	2023-11-28T00:00:00	2024-11-06T11:00:00	6	Velocidad del viento	20.9
63646	7	Sololá	701	Sololá	3	Barraneche	11	Noviembre	2023-11-28T00:00:00	2024-11-06T11:00:00	7	Dirección del viento	20.92
63647	7	Sololá	701	Sololá	3	Barraneche	11	Noviembre	2023-11-28T00:00:00	2024-11-06T11:00:00	1	Precipitación	0
63648	7	Sololá	701	Sololá	3	Barraneche	11	Noviembre	2023-11-28T00:00:00	2024-11-06T11:00:00	8	Radiación solar	836
63649	7	Sololá	701	Sololá	3	Barraneche	11	Noviembre	2023-11-28T00:00:00	2024-11-06T12:00:00	2	Temperatura media	17.7
63650	7	Sololá	701	Sololá	3	Barraneche	11	Noviembre	2023-11-28T00:00:00	2024-11-06T12:00:00	4	Temperatura máxima	18.3
63651	7	Sololá	701	Sololá	3	Barraneche	11	Noviembre	2023-11-28T00:00:00	2024-11-06T12:00:00	3	Temperatura mínima	17.6
63652	7	Sololá	701	Sololá	3	Barraneche	11	Noviembre	2023-11-28T00:00:00	2024-11-06T12:00:00	5	Humedad	59
63653	7	Sololá	701	Sololá	3	Barraneche	11	Noviembre	2023-11-28T00:00:00	2024-11-06T12:00:00	6	Velocidad del viento	25.7
63654	7	Sololá	701	Sololá	3	Barraneche	11	Noviembre	2023-11-28T00:00:00	2024-11-06T12:00:00	7	Dirección del viento	25.75
63655	7	Sololá	701	Sololá	3	Barraneche	11	Noviembre	2023-11-28T00:00:00	2024-11-06T12:00:00	1	Precipitación	0
63656	7	Sololá	701	Sololá	3	Barraneche	11	Noviembre	2023-11-28T00:00:00	2024-11-06T12:00:00	8	Radiación solar	894
63657	7	Sololá	701	Sololá	3	Barraneche	11	Noviembre	2023-11-28T00:00:00	2024-11-06T13:00:00	2	Temperatura media	18
63658	7	Sololá	701	Sololá	3	Barraneche	11	Noviembre	2023-11-28T00:00:00	2024-11-06T13:00:00	4	Temperatura máxima	18.9
63659	7	Sololá	701	Sololá	3	Barraneche	11	Noviembre	2023-11-28T00:00:00	2024-11-06T13:00:00	3	Temperatura mínima	17.7
63660	7	Sololá	701	Sololá	3	Barraneche	11	Noviembre	2023-11-28T00:00:00	2024-11-06T13:00:00	5	Humedad	59
63661	7	Sololá	701	Sololá	3	Barraneche	11	Noviembre	2023-11-28T00:00:00	2024-11-06T13:00:00	6	Velocidad del viento	19.3
63662	7	Sololá	701	Sololá	3	Barraneche	11	Noviembre	2023-11-28T00:00:00	2024-11-06T13:00:00	7	Dirección del viento	19.31
63663	7	Sololá	701	Sololá	3	Barraneche	11	Noviembre	2023-11-28T00:00:00	2024-11-06T13:00:00	1	Precipitación	0
63664	7	Sololá	701	Sololá	3	Barraneche	11	Noviembre	2023-11-28T00:00:00	2024-11-06T13:00:00	8	Radiación solar	635
63665	7	Sololá	701	Sololá	3	Barraneche	11	Noviembre	2023-11-28T00:00:00	2024-11-06T14:00:00	2	Temperatura media	17.3
63666	7	Sololá	701	Sololá	3	Barraneche	11	Noviembre	2023-11-28T00:00:00	2024-11-06T14:00:00	4	Temperatura máxima	18.3
63667	7	Sololá	701	Sololá	3	Barraneche	11	Noviembre	2023-11-28T00:00:00	2024-11-06T14:00:00	3	Temperatura mínima	16.8
63668	7	Sololá	701	Sololá	3	Barraneche	11	Noviembre	2023-11-28T00:00:00	2024-11-06T14:00:00	5	Humedad	59
63669	7	Sololá	701	Sololá	3	Barraneche	11	Noviembre	2023-11-28T00:00:00	2024-11-06T14:00:00	6	Velocidad del viento	16.1
63670	7	Sololá	701	Sololá	3	Barraneche	11	Noviembre	2023-11-28T00:00:00	2024-11-06T14:00:00	7	Dirección del viento	16.09
63671	7	Sololá	701	Sololá	3	Barraneche	11	Noviembre	2023-11-28T00:00:00	2024-11-06T14:00:00	1	Precipitación	0
63672	7	Sololá	701	Sololá	3	Barraneche	11	Noviembre	2023-11-28T00:00:00	2024-11-06T14:00:00	8	Radiación solar	153
63673	7	Sololá	701	Sololá	3	Barraneche	11	Noviembre	2023-11-28T00:00:00	2024-11-06T15:00:00	2	Temperatura media	16.5
63674	7	Sololá	701	Sololá	3	Barraneche	11	Noviembre	2023-11-28T00:00:00	2024-11-06T15:00:00	4	Temperatura máxima	17.4
63675	7	Sololá	701	Sololá	3	Barraneche	11	Noviembre	2023-11-28T00:00:00	2024-11-06T15:00:00	3	Temperatura mínima	16.4
63676	7	Sololá	701	Sololá	3	Barraneche	11	Noviembre	2023-11-28T00:00:00	2024-11-06T15:00:00	5	Humedad	62
63677	7	Sololá	701	Sololá	3	Barraneche	11	Noviembre	2023-11-28T00:00:00	2024-11-06T15:00:00	6	Velocidad del viento	12.9
63678	7	Sololá	701	Sololá	3	Barraneche	11	Noviembre	2023-11-28T00:00:00	2024-11-06T15:00:00	7	Dirección del viento	12.87
63679	7	Sololá	701	Sololá	3	Barraneche	11	Noviembre	2023-11-28T00:00:00	2024-11-06T15:00:00	1	Precipitación	0
63680	7	Sololá	701	Sololá	3	Barraneche	11	Noviembre	2023-11-28T00:00:00	2024-11-06T15:00:00	8	Radiación solar	105
63681	7	Sololá	701	Sololá	3	Barraneche	11	Noviembre	2023-11-28T00:00:00	2024-11-06T16:00:00	2	Temperatura media	15.9
63682	7	Sololá	701	Sololá	3	Barraneche	11	Noviembre	2023-11-28T00:00:00	2024-11-06T16:00:00	4	Temperatura máxima	16.4
63683	7	Sololá	701	Sololá	3	Barraneche	11	Noviembre	2023-11-28T00:00:00	2024-11-06T16:00:00	3	Temperatura mínima	15.9
63684	7	Sololá	701	Sololá	3	Barraneche	11	Noviembre	2023-11-28T00:00:00	2024-11-06T16:00:00	5	Humedad	64
63685	7	Sololá	701	Sololá	3	Barraneche	11	Noviembre	2023-11-28T00:00:00	2024-11-06T16:00:00	6	Velocidad del viento	14.5
63686	7	Sololá	701	Sololá	3	Barraneche	11	Noviembre	2023-11-28T00:00:00	2024-11-06T16:00:00	7	Dirección del viento	14.48
63687	7	Sololá	701	Sololá	3	Barraneche	11	Noviembre	2023-11-28T00:00:00	2024-11-06T16:00:00	1	Precipitación	0
63688	7	Sololá	701	Sololá	3	Barraneche	11	Noviembre	2023-11-28T00:00:00	2024-11-06T16:00:00	8	Radiación solar	84
63689	7	Sololá	701	Sololá	3	Barraneche	11	Noviembre	2023-11-28T00:00:00	2024-11-06T17:00:00	2	Temperatura media	15.9
63690	7	Sololá	701	Sololá	3	Barraneche	11	Noviembre	2023-11-28T00:00:00	2024-11-06T17:00:00	4	Temperatura máxima	15.9
63691	7	Sololá	701	Sololá	3	Barraneche	11	Noviembre	2023-11-28T00:00:00	2024-11-06T17:00:00	3	Temperatura mínima	15.4
63692	7	Sololá	701	Sololá	3	Barraneche	11	Noviembre	2023-11-28T00:00:00	2024-11-06T17:00:00	5	Humedad	61
63693	7	Sololá	701	Sololá	3	Barraneche	11	Noviembre	2023-11-28T00:00:00	2024-11-06T17:00:00	6	Velocidad del viento	14.5
63694	7	Sololá	701	Sololá	3	Barraneche	11	Noviembre	2023-11-28T00:00:00	2024-11-06T17:00:00	7	Dirección del viento	14.48
63695	7	Sololá	701	Sololá	3	Barraneche	11	Noviembre	2023-11-28T00:00:00	2024-11-06T17:00:00	1	Precipitación	0
63696	7	Sololá	701	Sololá	3	Barraneche	11	Noviembre	2023-11-28T00:00:00	2024-11-06T17:00:00	8	Radiación solar	64
63697	7	Sololá	701	Sololá	3	Barraneche	11	Noviembre	2023-11-28T00:00:00	2024-11-06T18:00:00	2	Temperatura media	14.9
63698	7	Sololá	701	Sololá	3	Barraneche	11	Noviembre	2023-11-28T00:00:00	2024-11-06T18:00:00	4	Temperatura máxima	16
63699	7	Sololá	701	Sololá	3	Barraneche	11	Noviembre	2023-11-28T00:00:00	2024-11-06T18:00:00	3	Temperatura mínima	14.9
63700	7	Sololá	701	Sololá	3	Barraneche	11	Noviembre	2023-11-28T00:00:00	2024-11-06T18:00:00	5	Humedad	63
63701	7	Sololá	701	Sololá	3	Barraneche	11	Noviembre	2023-11-28T00:00:00	2024-11-06T18:00:00	6	Velocidad del viento	24.1
63702	7	Sololá	701	Sololá	3	Barraneche	11	Noviembre	2023-11-28T00:00:00	2024-11-06T18:00:00	7	Dirección del viento	24.14
63703	7	Sololá	701	Sololá	3	Barraneche	11	Noviembre	2023-11-28T00:00:00	2024-11-06T18:00:00	1	Precipitación	0
63704	7	Sololá	701	Sololá	3	Barraneche	11	Noviembre	2023-11-28T00:00:00	2024-11-06T18:00:00	8	Radiación solar	15
63705	7	Sololá	701	Sololá	3	Barraneche	11	Noviembre	2023-11-28T00:00:00	2024-11-06T19:00:00	2	Temperatura media	15.1
63706	7	Sololá	701	Sololá	3	Barraneche	11	Noviembre	2023-11-28T00:00:00	2024-11-06T19:00:00	4	Temperatura máxima	15.3
63707	7	Sololá	701	Sololá	3	Barraneche	11	Noviembre	2023-11-28T00:00:00	2024-11-06T19:00:00	3	Temperatura mínima	14.9
63708	7	Sololá	701	Sololá	3	Barraneche	11	Noviembre	2023-11-28T00:00:00	2024-11-06T19:00:00	5	Humedad	63
63709	7	Sololá	701	Sololá	3	Barraneche	11	Noviembre	2023-11-28T00:00:00	2024-11-06T19:00:00	6	Velocidad del viento	29
63710	7	Sololá	701	Sololá	3	Barraneche	11	Noviembre	2023-11-28T00:00:00	2024-11-06T19:00:00	7	Dirección del viento	28.97
63711	7	Sololá	701	Sololá	3	Barraneche	11	Noviembre	2023-11-28T00:00:00	2024-11-06T19:00:00	1	Precipitación	0
63712	7	Sololá	701	Sololá	3	Barraneche	11	Noviembre	2023-11-28T00:00:00	2024-11-06T19:00:00	8	Radiación solar	0
63713	7	Sololá	701	Sololá	3	Barraneche	11	Noviembre	2023-11-28T00:00:00	2024-11-06T20:00:00	2	Temperatura media	14.7
63714	7	Sololá	701	Sololá	3	Barraneche	11	Noviembre	2023-11-28T00:00:00	2024-11-06T20:00:00	4	Temperatura máxima	15.1
63715	7	Sololá	701	Sololá	3	Barraneche	11	Noviembre	2023-11-28T00:00:00	2024-11-06T20:00:00	3	Temperatura mínima	14.4
63716	7	Sololá	701	Sololá	3	Barraneche	11	Noviembre	2023-11-28T00:00:00	2024-11-06T20:00:00	5	Humedad	67
63717	7	Sololá	701	Sololá	3	Barraneche	11	Noviembre	2023-11-28T00:00:00	2024-11-06T20:00:00	6	Velocidad del viento	30.6
63718	7	Sololá	701	Sololá	3	Barraneche	11	Noviembre	2023-11-28T00:00:00	2024-11-06T20:00:00	7	Dirección del viento	30.58
63719	7	Sololá	701	Sololá	3	Barraneche	11	Noviembre	2023-11-28T00:00:00	2024-11-06T20:00:00	1	Precipitación	0
63720	7	Sololá	701	Sololá	3	Barraneche	11	Noviembre	2023-11-28T00:00:00	2024-11-06T20:00:00	8	Radiación solar	0
63721	7	Sololá	701	Sololá	3	Barraneche	11	Noviembre	2023-11-28T00:00:00	2024-11-06T21:00:00	2	Temperatura media	14.2
63722	7	Sololá	701	Sololá	3	Barraneche	11	Noviembre	2023-11-28T00:00:00	2024-11-06T21:00:00	4	Temperatura máxima	14.7
63723	7	Sololá	701	Sololá	3	Barraneche	11	Noviembre	2023-11-28T00:00:00	2024-11-06T21:00:00	3	Temperatura mínima	14.2
63724	7	Sololá	701	Sololá	3	Barraneche	11	Noviembre	2023-11-28T00:00:00	2024-11-06T21:00:00	5	Humedad	69
63725	7	Sololá	701	Sololá	3	Barraneche	11	Noviembre	2023-11-28T00:00:00	2024-11-06T21:00:00	6	Velocidad del viento	17.7
63726	7	Sololá	701	Sololá	3	Barraneche	11	Noviembre	2023-11-28T00:00:00	2024-11-06T21:00:00	7	Dirección del viento	17.7
63727	7	Sololá	701	Sololá	3	Barraneche	11	Noviembre	2023-11-28T00:00:00	2024-11-06T21:00:00	1	Precipitación	0
63728	7	Sololá	701	Sololá	3	Barraneche	11	Noviembre	2023-11-28T00:00:00	2024-11-06T21:00:00	8	Radiación solar	0
63729	7	Sololá	701	Sololá	3	Barraneche	11	Noviembre	2023-11-28T00:00:00	2024-11-06T22:00:00	2	Temperatura media	13.8
63730	7	Sololá	701	Sololá	3	Barraneche	11	Noviembre	2023-11-28T00:00:00	2024-11-06T22:00:00	4	Temperatura máxima	14.2
63731	7	Sololá	701	Sololá	3	Barraneche	11	Noviembre	2023-11-28T00:00:00	2024-11-06T22:00:00	3	Temperatura mínima	13.7
63732	7	Sololá	701	Sololá	3	Barraneche	11	Noviembre	2023-11-28T00:00:00	2024-11-06T22:00:00	5	Humedad	64
63733	7	Sololá	701	Sololá	3	Barraneche	11	Noviembre	2023-11-28T00:00:00	2024-11-06T22:00:00	6	Velocidad del viento	12.9
63734	7	Sololá	701	Sololá	3	Barraneche	11	Noviembre	2023-11-28T00:00:00	2024-11-06T22:00:00	7	Dirección del viento	12.87
63735	7	Sololá	701	Sololá	3	Barraneche	11	Noviembre	2023-11-28T00:00:00	2024-11-06T22:00:00	1	Precipitación	0
63736	7	Sololá	701	Sololá	3	Barraneche	11	Noviembre	2023-11-28T00:00:00	2024-11-06T22:00:00	8	Radiación solar	0
63737	7	Sololá	701	Sololá	3	Barraneche	11	Noviembre	2023-11-28T00:00:00	2024-11-06T23:00:00	2	Temperatura media	13.4
63738	7	Sololá	701	Sololá	3	Barraneche	11	Noviembre	2023-11-28T00:00:00	2024-11-06T23:00:00	4	Temperatura máxima	13.8
63739	7	Sololá	701	Sololá	3	Barraneche	11	Noviembre	2023-11-28T00:00:00	2024-11-06T23:00:00	3	Temperatura mínima	13.3
63740	7	Sololá	701	Sololá	3	Barraneche	11	Noviembre	2023-11-28T00:00:00	2024-11-06T23:00:00	5	Humedad	63
63741	7	Sololá	701	Sololá	3	Barraneche	11	Noviembre	2023-11-28T00:00:00	2024-11-06T23:00:00	6	Velocidad del viento	19.3
63742	7	Sololá	701	Sololá	3	Barraneche	11	Noviembre	2023-11-28T00:00:00	2024-11-06T23:00:00	7	Dirección del viento	19.31
63743	7	Sololá	701	Sololá	3	Barraneche	11	Noviembre	2023-11-28T00:00:00	2024-11-06T23:00:00	1	Precipitación	0
63744	7	Sololá	701	Sololá	3	Barraneche	11	Noviembre	2023-11-28T00:00:00	2024-11-06T23:00:00	8	Radiación solar	0
63745	7	Sololá	701	Sololá	3	Barraneche	11	Noviembre	2023-11-29T00:00:00	2024-11-06T00:00:00	2	Temperatura media	13.3
63746	7	Sololá	701	Sololá	3	Barraneche	11	Noviembre	2023-11-29T00:00:00	2024-11-06T00:00:00	4	Temperatura máxima	13.7
63747	7	Sololá	701	Sololá	3	Barraneche	11	Noviembre	2023-11-29T00:00:00	2024-11-06T00:00:00	3	Temperatura mínima	13.3
63748	7	Sololá	701	Sololá	3	Barraneche	11	Noviembre	2023-11-29T00:00:00	2024-11-06T00:00:00	5	Humedad	63
63749	7	Sololá	701	Sololá	3	Barraneche	11	Noviembre	2023-11-29T00:00:00	2024-11-06T00:00:00	6	Velocidad del viento	24.1
63750	7	Sololá	701	Sololá	3	Barraneche	11	Noviembre	2023-11-29T00:00:00	2024-11-06T00:00:00	7	Dirección del viento	24.14
63751	7	Sololá	701	Sololá	3	Barraneche	11	Noviembre	2023-11-29T00:00:00	2024-11-06T00:00:00	1	Precipitación	0
63752	7	Sololá	701	Sololá	3	Barraneche	11	Noviembre	2023-11-29T00:00:00	2024-11-06T00:00:00	8	Radiación solar	0
63753	7	Sololá	701	Sololá	3	Barraneche	11	Noviembre	2023-11-29T00:00:00	2024-11-06T01:00:00	2	Temperatura media	13.2
63754	7	Sololá	701	Sololá	3	Barraneche	11	Noviembre	2023-11-29T00:00:00	2024-11-06T01:00:00	4	Temperatura máxima	13.4
63755	7	Sololá	701	Sololá	3	Barraneche	11	Noviembre	2023-11-29T00:00:00	2024-11-06T01:00:00	3	Temperatura mínima	13.1
63756	7	Sololá	701	Sololá	3	Barraneche	11	Noviembre	2023-11-29T00:00:00	2024-11-06T01:00:00	5	Humedad	61
63757	7	Sololá	701	Sololá	3	Barraneche	11	Noviembre	2023-11-29T00:00:00	2024-11-06T01:00:00	6	Velocidad del viento	20.9
63758	7	Sololá	701	Sololá	3	Barraneche	11	Noviembre	2023-11-29T00:00:00	2024-11-06T01:00:00	7	Dirección del viento	20.92
63759	7	Sololá	701	Sololá	3	Barraneche	11	Noviembre	2023-11-29T00:00:00	2024-11-06T01:00:00	1	Precipitación	0
63760	7	Sololá	701	Sololá	3	Barraneche	11	Noviembre	2023-11-29T00:00:00	2024-11-06T01:00:00	8	Radiación solar	0
63761	7	Sololá	701	Sololá	3	Barraneche	11	Noviembre	2023-11-29T00:00:00	2024-11-06T02:00:00	2	Temperatura media	13.4
63762	7	Sololá	701	Sololá	3	Barraneche	11	Noviembre	2023-11-29T00:00:00	2024-11-06T02:00:00	4	Temperatura máxima	13.5
63763	7	Sololá	701	Sololá	3	Barraneche	11	Noviembre	2023-11-29T00:00:00	2024-11-06T02:00:00	3	Temperatura mínima	13
63764	7	Sololá	701	Sololá	3	Barraneche	11	Noviembre	2023-11-29T00:00:00	2024-11-06T02:00:00	5	Humedad	58
63765	7	Sololá	701	Sololá	3	Barraneche	11	Noviembre	2023-11-29T00:00:00	2024-11-06T02:00:00	6	Velocidad del viento	19.3
63766	7	Sololá	701	Sololá	3	Barraneche	11	Noviembre	2023-11-29T00:00:00	2024-11-06T02:00:00	7	Dirección del viento	19.31
63767	7	Sololá	701	Sololá	3	Barraneche	11	Noviembre	2023-11-29T00:00:00	2024-11-06T02:00:00	1	Precipitación	0
63768	7	Sololá	701	Sololá	3	Barraneche	11	Noviembre	2023-11-29T00:00:00	2024-11-06T02:00:00	8	Radiación solar	0
63769	7	Sololá	701	Sololá	3	Barraneche	11	Noviembre	2023-11-29T00:00:00	2024-11-06T03:00:00	2	Temperatura media	12.9
63770	7	Sololá	701	Sololá	3	Barraneche	11	Noviembre	2023-11-29T00:00:00	2024-11-06T03:00:00	4	Temperatura máxima	13.8
63771	7	Sololá	701	Sololá	3	Barraneche	11	Noviembre	2023-11-29T00:00:00	2024-11-06T03:00:00	3	Temperatura mínima	12.9
63772	7	Sololá	701	Sololá	3	Barraneche	11	Noviembre	2023-11-29T00:00:00	2024-11-06T03:00:00	5	Humedad	62
63773	7	Sololá	701	Sololá	3	Barraneche	11	Noviembre	2023-11-29T00:00:00	2024-11-06T03:00:00	6	Velocidad del viento	16.1
63774	7	Sololá	701	Sololá	3	Barraneche	11	Noviembre	2023-11-29T00:00:00	2024-11-06T03:00:00	7	Dirección del viento	16.09
63775	7	Sololá	701	Sololá	3	Barraneche	11	Noviembre	2023-11-29T00:00:00	2024-11-06T03:00:00	1	Precipitación	0
63776	7	Sololá	701	Sololá	3	Barraneche	11	Noviembre	2023-11-29T00:00:00	2024-11-06T03:00:00	8	Radiación solar	0
63777	7	Sololá	701	Sololá	3	Barraneche	11	Noviembre	2023-11-29T00:00:00	2024-11-06T04:00:00	2	Temperatura media	13.4
63778	7	Sololá	701	Sololá	3	Barraneche	11	Noviembre	2023-11-29T00:00:00	2024-11-06T04:00:00	4	Temperatura máxima	13.5
63779	7	Sololá	701	Sololá	3	Barraneche	11	Noviembre	2023-11-29T00:00:00	2024-11-06T04:00:00	3	Temperatura mínima	12.9
63780	7	Sololá	701	Sololá	3	Barraneche	11	Noviembre	2023-11-29T00:00:00	2024-11-06T04:00:00	5	Humedad	58
63781	7	Sololá	701	Sololá	3	Barraneche	11	Noviembre	2023-11-29T00:00:00	2024-11-06T04:00:00	6	Velocidad del viento	9.7
63782	7	Sololá	701	Sololá	3	Barraneche	11	Noviembre	2023-11-29T00:00:00	2024-11-06T04:00:00	7	Dirección del viento	9.66
63783	7	Sololá	701	Sololá	3	Barraneche	11	Noviembre	2023-11-29T00:00:00	2024-11-06T04:00:00	1	Precipitación	0
63784	7	Sololá	701	Sololá	3	Barraneche	11	Noviembre	2023-11-29T00:00:00	2024-11-06T04:00:00	8	Radiación solar	0
63785	7	Sololá	701	Sololá	3	Barraneche	11	Noviembre	2023-11-29T00:00:00	2024-11-06T05:00:00	2	Temperatura media	13.6
63786	7	Sololá	701	Sololá	3	Barraneche	11	Noviembre	2023-11-29T00:00:00	2024-11-06T05:00:00	4	Temperatura máxima	13.8
63787	7	Sololá	701	Sololá	3	Barraneche	11	Noviembre	2023-11-29T00:00:00	2024-11-06T05:00:00	3	Temperatura mínima	13.3
63788	7	Sololá	701	Sololá	3	Barraneche	11	Noviembre	2023-11-29T00:00:00	2024-11-06T05:00:00	5	Humedad	55
63789	7	Sololá	701	Sololá	3	Barraneche	11	Noviembre	2023-11-29T00:00:00	2024-11-06T05:00:00	6	Velocidad del viento	14.5
63790	7	Sololá	701	Sololá	3	Barraneche	11	Noviembre	2023-11-29T00:00:00	2024-11-06T05:00:00	7	Dirección del viento	14.48
63791	7	Sololá	701	Sololá	3	Barraneche	11	Noviembre	2023-11-29T00:00:00	2024-11-06T05:00:00	1	Precipitación	0
63792	7	Sololá	701	Sololá	3	Barraneche	11	Noviembre	2023-11-29T00:00:00	2024-11-06T05:00:00	8	Radiación solar	0
63793	7	Sololá	701	Sololá	3	Barraneche	11	Noviembre	2023-11-29T00:00:00	2024-11-06T06:00:00	2	Temperatura media	13.8
63794	7	Sololá	701	Sololá	3	Barraneche	11	Noviembre	2023-11-29T00:00:00	2024-11-06T06:00:00	4	Temperatura máxima	14.1
63795	7	Sololá	701	Sololá	3	Barraneche	11	Noviembre	2023-11-29T00:00:00	2024-11-06T06:00:00	3	Temperatura mínima	13.5
63796	7	Sololá	701	Sololá	3	Barraneche	11	Noviembre	2023-11-29T00:00:00	2024-11-06T06:00:00	5	Humedad	48
63797	7	Sololá	701	Sololá	3	Barraneche	11	Noviembre	2023-11-29T00:00:00	2024-11-06T06:00:00	6	Velocidad del viento	17.7
63798	7	Sololá	701	Sololá	3	Barraneche	11	Noviembre	2023-11-29T00:00:00	2024-11-06T06:00:00	7	Dirección del viento	17.7
63799	7	Sololá	701	Sololá	3	Barraneche	11	Noviembre	2023-11-29T00:00:00	2024-11-06T06:00:00	1	Precipitación	0
63800	7	Sololá	701	Sololá	3	Barraneche	11	Noviembre	2023-11-29T00:00:00	2024-11-06T06:00:00	8	Radiación solar	0
63801	7	Sololá	701	Sololá	3	Barraneche	11	Noviembre	2023-11-29T00:00:00	2024-11-06T07:00:00	2	Temperatura media	14.1
63802	7	Sololá	701	Sololá	3	Barraneche	11	Noviembre	2023-11-29T00:00:00	2024-11-06T07:00:00	4	Temperatura máxima	14.2
63803	7	Sololá	701	Sololá	3	Barraneche	11	Noviembre	2023-11-29T00:00:00	2024-11-06T07:00:00	3	Temperatura mínima	13.8
63804	7	Sololá	701	Sololá	3	Barraneche	11	Noviembre	2023-11-29T00:00:00	2024-11-06T07:00:00	5	Humedad	48
63805	7	Sololá	701	Sololá	3	Barraneche	11	Noviembre	2023-11-29T00:00:00	2024-11-06T07:00:00	6	Velocidad del viento	22.5
63806	7	Sololá	701	Sololá	3	Barraneche	11	Noviembre	2023-11-29T00:00:00	2024-11-06T07:00:00	7	Dirección del viento	22.53
63807	7	Sololá	701	Sololá	3	Barraneche	11	Noviembre	2023-11-29T00:00:00	2024-11-06T07:00:00	1	Precipitación	0
63808	7	Sololá	701	Sololá	3	Barraneche	11	Noviembre	2023-11-29T00:00:00	2024-11-06T07:00:00	8	Radiación solar	24
63809	7	Sololá	701	Sololá	3	Barraneche	11	Noviembre	2023-11-29T00:00:00	2024-11-06T08:00:00	2	Temperatura media	15.4
63810	7	Sololá	701	Sololá	3	Barraneche	11	Noviembre	2023-11-29T00:00:00	2024-11-06T08:00:00	4	Temperatura máxima	15.4
63811	7	Sololá	701	Sololá	3	Barraneche	11	Noviembre	2023-11-29T00:00:00	2024-11-06T08:00:00	3	Temperatura mínima	14.1
63812	7	Sololá	701	Sololá	3	Barraneche	11	Noviembre	2023-11-29T00:00:00	2024-11-06T08:00:00	5	Humedad	40
63813	7	Sololá	701	Sololá	3	Barraneche	11	Noviembre	2023-11-29T00:00:00	2024-11-06T08:00:00	6	Velocidad del viento	17.7
63814	7	Sololá	701	Sololá	3	Barraneche	11	Noviembre	2023-11-29T00:00:00	2024-11-06T08:00:00	7	Dirección del viento	17.7
63815	7	Sololá	701	Sololá	3	Barraneche	11	Noviembre	2023-11-29T00:00:00	2024-11-06T08:00:00	1	Precipitación	0
63816	7	Sololá	701	Sololá	3	Barraneche	11	Noviembre	2023-11-29T00:00:00	2024-11-06T08:00:00	8	Radiación solar	243
63817	7	Sololá	701	Sololá	3	Barraneche	11	Noviembre	2023-11-29T00:00:00	2024-11-06T09:00:00	2	Temperatura media	16.1
63818	7	Sololá	701	Sololá	3	Barraneche	11	Noviembre	2023-11-29T00:00:00	2024-11-06T09:00:00	4	Temperatura máxima	16.2
63819	7	Sololá	701	Sololá	3	Barraneche	11	Noviembre	2023-11-29T00:00:00	2024-11-06T09:00:00	3	Temperatura mínima	15.4
63820	7	Sololá	701	Sololá	3	Barraneche	11	Noviembre	2023-11-29T00:00:00	2024-11-06T09:00:00	5	Humedad	45
63821	7	Sololá	701	Sololá	3	Barraneche	11	Noviembre	2023-11-29T00:00:00	2024-11-06T09:00:00	6	Velocidad del viento	17.7
63822	7	Sololá	701	Sololá	3	Barraneche	11	Noviembre	2023-11-29T00:00:00	2024-11-06T09:00:00	7	Dirección del viento	17.7
63823	7	Sololá	701	Sololá	3	Barraneche	11	Noviembre	2023-11-29T00:00:00	2024-11-06T09:00:00	1	Precipitación	0
63824	7	Sololá	701	Sololá	3	Barraneche	11	Noviembre	2023-11-29T00:00:00	2024-11-06T09:00:00	8	Radiación solar	458
63825	7	Sololá	701	Sololá	3	Barraneche	11	Noviembre	2023-11-29T00:00:00	2024-11-06T10:00:00	2	Temperatura media	16.4
63826	7	Sololá	701	Sololá	3	Barraneche	11	Noviembre	2023-11-29T00:00:00	2024-11-06T10:00:00	4	Temperatura máxima	17
63827	7	Sololá	701	Sololá	3	Barraneche	11	Noviembre	2023-11-29T00:00:00	2024-11-06T10:00:00	3	Temperatura mínima	16
63828	7	Sololá	701	Sololá	3	Barraneche	11	Noviembre	2023-11-29T00:00:00	2024-11-06T10:00:00	5	Humedad	50
63829	7	Sololá	701	Sololá	3	Barraneche	11	Noviembre	2023-11-29T00:00:00	2024-11-06T10:00:00	6	Velocidad del viento	17.7
63830	7	Sololá	701	Sololá	3	Barraneche	11	Noviembre	2023-11-29T00:00:00	2024-11-06T10:00:00	7	Dirección del viento	17.7
63831	7	Sololá	701	Sololá	3	Barraneche	11	Noviembre	2023-11-29T00:00:00	2024-11-06T10:00:00	1	Precipitación	0
63832	7	Sololá	701	Sololá	3	Barraneche	11	Noviembre	2023-11-29T00:00:00	2024-11-06T10:00:00	8	Radiación solar	648
63833	7	Sololá	701	Sololá	3	Barraneche	11	Noviembre	2023-11-29T00:00:00	2024-11-06T11:00:00	2	Temperatura media	17.4
63834	7	Sololá	701	Sololá	3	Barraneche	11	Noviembre	2023-11-29T00:00:00	2024-11-06T11:00:00	4	Temperatura máxima	17.4
63835	7	Sololá	701	Sololá	3	Barraneche	11	Noviembre	2023-11-29T00:00:00	2024-11-06T11:00:00	3	Temperatura mínima	16.4
63836	7	Sololá	701	Sololá	3	Barraneche	11	Noviembre	2023-11-29T00:00:00	2024-11-06T11:00:00	5	Humedad	45
63837	7	Sololá	701	Sololá	3	Barraneche	11	Noviembre	2023-11-29T00:00:00	2024-11-06T11:00:00	6	Velocidad del viento	19.3
63838	7	Sololá	701	Sololá	3	Barraneche	11	Noviembre	2023-11-29T00:00:00	2024-11-06T11:00:00	7	Dirección del viento	19.31
63839	7	Sololá	701	Sololá	3	Barraneche	11	Noviembre	2023-11-29T00:00:00	2024-11-06T11:00:00	1	Precipitación	0
63840	7	Sololá	701	Sololá	3	Barraneche	11	Noviembre	2023-11-29T00:00:00	2024-11-06T11:00:00	8	Radiación solar	757
63841	7	Sololá	701	Sololá	3	Barraneche	11	Noviembre	2023-11-29T00:00:00	2024-11-06T12:00:00	2	Temperatura media	18.4
63842	7	Sololá	701	Sololá	3	Barraneche	11	Noviembre	2023-11-29T00:00:00	2024-11-06T12:00:00	4	Temperatura máxima	18.7
63843	7	Sololá	701	Sololá	3	Barraneche	11	Noviembre	2023-11-29T00:00:00	2024-11-06T12:00:00	3	Temperatura mínima	17.4
63844	7	Sololá	701	Sololá	3	Barraneche	11	Noviembre	2023-11-29T00:00:00	2024-11-06T12:00:00	5	Humedad	49
63845	7	Sololá	701	Sololá	3	Barraneche	11	Noviembre	2023-11-29T00:00:00	2024-11-06T12:00:00	6	Velocidad del viento	19.3
63846	7	Sololá	701	Sololá	3	Barraneche	11	Noviembre	2023-11-29T00:00:00	2024-11-06T12:00:00	7	Dirección del viento	19.31
63847	7	Sololá	701	Sololá	3	Barraneche	11	Noviembre	2023-11-29T00:00:00	2024-11-06T12:00:00	1	Precipitación	0
63848	7	Sololá	701	Sololá	3	Barraneche	11	Noviembre	2023-11-29T00:00:00	2024-11-06T12:00:00	8	Radiación solar	848
63849	7	Sololá	701	Sololá	3	Barraneche	11	Noviembre	2023-11-29T00:00:00	2024-11-06T13:00:00	2	Temperatura media	17.9
63850	7	Sololá	701	Sololá	3	Barraneche	11	Noviembre	2023-11-29T00:00:00	2024-11-06T13:00:00	4	Temperatura máxima	18.6
63851	7	Sololá	701	Sololá	3	Barraneche	11	Noviembre	2023-11-29T00:00:00	2024-11-06T13:00:00	3	Temperatura mínima	17.9
63852	7	Sololá	701	Sololá	3	Barraneche	11	Noviembre	2023-11-29T00:00:00	2024-11-06T13:00:00	5	Humedad	52
63853	7	Sololá	701	Sololá	3	Barraneche	11	Noviembre	2023-11-29T00:00:00	2024-11-06T13:00:00	6	Velocidad del viento	17.7
63854	7	Sololá	701	Sololá	3	Barraneche	11	Noviembre	2023-11-29T00:00:00	2024-11-06T13:00:00	7	Dirección del viento	17.7
63855	7	Sololá	701	Sololá	3	Barraneche	11	Noviembre	2023-11-29T00:00:00	2024-11-06T13:00:00	1	Precipitación	0
63856	7	Sololá	701	Sololá	3	Barraneche	11	Noviembre	2023-11-29T00:00:00	2024-11-06T13:00:00	8	Radiación solar	835
63857	7	Sololá	701	Sololá	3	Barraneche	11	Noviembre	2023-11-29T00:00:00	2024-11-06T14:00:00	2	Temperatura media	17.6
63858	7	Sololá	701	Sololá	3	Barraneche	11	Noviembre	2023-11-29T00:00:00	2024-11-06T14:00:00	4	Temperatura máxima	18.4
63859	7	Sololá	701	Sololá	3	Barraneche	11	Noviembre	2023-11-29T00:00:00	2024-11-06T14:00:00	3	Temperatura mínima	17.6
63860	7	Sololá	701	Sololá	3	Barraneche	11	Noviembre	2023-11-29T00:00:00	2024-11-06T14:00:00	5	Humedad	51
63861	7	Sololá	701	Sololá	3	Barraneche	11	Noviembre	2023-11-29T00:00:00	2024-11-06T14:00:00	6	Velocidad del viento	16.1
63862	7	Sololá	701	Sololá	3	Barraneche	11	Noviembre	2023-11-29T00:00:00	2024-11-06T14:00:00	7	Dirección del viento	16.09
63863	7	Sololá	701	Sololá	3	Barraneche	11	Noviembre	2023-11-29T00:00:00	2024-11-06T14:00:00	1	Precipitación	0
63864	7	Sololá	701	Sololá	3	Barraneche	11	Noviembre	2023-11-29T00:00:00	2024-11-06T14:00:00	8	Radiación solar	778
63865	7	Sololá	701	Sololá	3	Barraneche	11	Noviembre	2023-11-29T00:00:00	2024-11-06T15:00:00	2	Temperatura media	17.4
63866	7	Sololá	701	Sololá	3	Barraneche	11	Noviembre	2023-11-29T00:00:00	2024-11-06T15:00:00	4	Temperatura máxima	18.3
63867	7	Sololá	701	Sololá	3	Barraneche	11	Noviembre	2023-11-29T00:00:00	2024-11-06T15:00:00	3	Temperatura mínima	17.4
63868	7	Sololá	701	Sololá	3	Barraneche	11	Noviembre	2023-11-29T00:00:00	2024-11-06T15:00:00	5	Humedad	52
63869	7	Sololá	701	Sololá	3	Barraneche	11	Noviembre	2023-11-29T00:00:00	2024-11-06T15:00:00	6	Velocidad del viento	16.1
63870	7	Sololá	701	Sololá	3	Barraneche	11	Noviembre	2023-11-29T00:00:00	2024-11-06T15:00:00	7	Dirección del viento	16.09
63871	7	Sololá	701	Sololá	3	Barraneche	11	Noviembre	2023-11-29T00:00:00	2024-11-06T15:00:00	1	Precipitación	0
63872	7	Sololá	701	Sololá	3	Barraneche	11	Noviembre	2023-11-29T00:00:00	2024-11-06T15:00:00	8	Radiación solar	608
63873	7	Sololá	701	Sololá	3	Barraneche	11	Noviembre	2023-11-29T00:00:00	2024-11-06T16:00:00	2	Temperatura media	16.7
63874	7	Sololá	701	Sololá	3	Barraneche	11	Noviembre	2023-11-29T00:00:00	2024-11-06T16:00:00	4	Temperatura máxima	17.8
63875	7	Sololá	701	Sololá	3	Barraneche	11	Noviembre	2023-11-29T00:00:00	2024-11-06T16:00:00	3	Temperatura mínima	16.6
63876	7	Sololá	701	Sololá	3	Barraneche	11	Noviembre	2023-11-29T00:00:00	2024-11-06T16:00:00	5	Humedad	53
63877	7	Sololá	701	Sololá	3	Barraneche	11	Noviembre	2023-11-29T00:00:00	2024-11-06T16:00:00	6	Velocidad del viento	12.9
63878	7	Sololá	701	Sololá	3	Barraneche	11	Noviembre	2023-11-29T00:00:00	2024-11-06T16:00:00	7	Dirección del viento	12.87
63879	7	Sololá	701	Sololá	3	Barraneche	11	Noviembre	2023-11-29T00:00:00	2024-11-06T16:00:00	1	Precipitación	0
63880	7	Sololá	701	Sololá	3	Barraneche	11	Noviembre	2023-11-29T00:00:00	2024-11-06T16:00:00	8	Radiación solar	355
63881	7	Sololá	701	Sololá	3	Barraneche	11	Noviembre	2023-11-29T00:00:00	2024-11-06T17:00:00	2	Temperatura media	15.9
63882	7	Sololá	701	Sololá	3	Barraneche	11	Noviembre	2023-11-29T00:00:00	2024-11-06T17:00:00	4	Temperatura máxima	16.8
63883	7	Sololá	701	Sololá	3	Barraneche	11	Noviembre	2023-11-29T00:00:00	2024-11-06T17:00:00	3	Temperatura mínima	15.9
63884	7	Sololá	701	Sololá	3	Barraneche	11	Noviembre	2023-11-29T00:00:00	2024-11-06T17:00:00	5	Humedad	56
63885	7	Sololá	701	Sololá	3	Barraneche	11	Noviembre	2023-11-29T00:00:00	2024-11-06T17:00:00	6	Velocidad del viento	11.3
63886	7	Sololá	701	Sololá	3	Barraneche	11	Noviembre	2023-11-29T00:00:00	2024-11-06T17:00:00	7	Dirección del viento	11.27
63887	7	Sololá	701	Sololá	3	Barraneche	11	Noviembre	2023-11-29T00:00:00	2024-11-06T17:00:00	1	Precipitación	0
63888	7	Sololá	701	Sololá	3	Barraneche	11	Noviembre	2023-11-29T00:00:00	2024-11-06T17:00:00	8	Radiación solar	184
63889	7	Sololá	701	Sololá	3	Barraneche	11	Noviembre	2023-11-29T00:00:00	2024-11-06T18:00:00	2	Temperatura media	14
63890	7	Sololá	701	Sololá	3	Barraneche	11	Noviembre	2023-11-29T00:00:00	2024-11-06T18:00:00	4	Temperatura máxima	15.8
63891	7	Sololá	701	Sololá	3	Barraneche	11	Noviembre	2023-11-29T00:00:00	2024-11-06T18:00:00	3	Temperatura mínima	14
63892	7	Sololá	701	Sololá	3	Barraneche	11	Noviembre	2023-11-29T00:00:00	2024-11-06T18:00:00	5	Humedad	59
63893	7	Sololá	701	Sololá	3	Barraneche	11	Noviembre	2023-11-29T00:00:00	2024-11-06T18:00:00	6	Velocidad del viento	6.4
63894	7	Sololá	701	Sololá	3	Barraneche	11	Noviembre	2023-11-29T00:00:00	2024-11-06T18:00:00	7	Dirección del viento	6.44
63895	7	Sololá	701	Sololá	3	Barraneche	11	Noviembre	2023-11-29T00:00:00	2024-11-06T18:00:00	1	Precipitación	0
63896	7	Sololá	701	Sololá	3	Barraneche	11	Noviembre	2023-11-29T00:00:00	2024-11-06T18:00:00	8	Radiación solar	13
63897	7	Sololá	701	Sololá	3	Barraneche	11	Noviembre	2023-11-29T00:00:00	2024-11-06T19:00:00	2	Temperatura media	13.8
63898	7	Sololá	701	Sololá	3	Barraneche	11	Noviembre	2023-11-29T00:00:00	2024-11-06T19:00:00	4	Temperatura máxima	14.1
63899	7	Sololá	701	Sololá	3	Barraneche	11	Noviembre	2023-11-29T00:00:00	2024-11-06T19:00:00	3	Temperatura mínima	13.8
63900	7	Sololá	701	Sololá	3	Barraneche	11	Noviembre	2023-11-29T00:00:00	2024-11-06T19:00:00	5	Humedad	61
63901	7	Sololá	701	Sololá	3	Barraneche	11	Noviembre	2023-11-29T00:00:00	2024-11-06T19:00:00	6	Velocidad del viento	4.8
63902	7	Sololá	701	Sololá	3	Barraneche	11	Noviembre	2023-11-29T00:00:00	2024-11-06T19:00:00	7	Dirección del viento	4.83
63903	7	Sololá	701	Sololá	3	Barraneche	11	Noviembre	2023-11-29T00:00:00	2024-11-06T19:00:00	1	Precipitación	0
63904	7	Sololá	701	Sololá	3	Barraneche	11	Noviembre	2023-11-29T00:00:00	2024-11-06T19:00:00	8	Radiación solar	0
63905	7	Sololá	701	Sololá	3	Barraneche	11	Noviembre	2023-11-29T00:00:00	2024-11-06T20:00:00	2	Temperatura media	13.9
63906	7	Sololá	701	Sololá	3	Barraneche	11	Noviembre	2023-11-29T00:00:00	2024-11-06T20:00:00	4	Temperatura máxima	13.9
63907	7	Sololá	701	Sololá	3	Barraneche	11	Noviembre	2023-11-29T00:00:00	2024-11-06T20:00:00	3	Temperatura mínima	13.7
63908	7	Sololá	701	Sololá	3	Barraneche	11	Noviembre	2023-11-29T00:00:00	2024-11-06T20:00:00	5	Humedad	59
63909	7	Sololá	701	Sololá	3	Barraneche	11	Noviembre	2023-11-29T00:00:00	2024-11-06T20:00:00	6	Velocidad del viento	8
63910	7	Sololá	701	Sololá	3	Barraneche	11	Noviembre	2023-11-29T00:00:00	2024-11-06T20:00:00	7	Dirección del viento	8.05
63911	7	Sololá	701	Sololá	3	Barraneche	11	Noviembre	2023-11-29T00:00:00	2024-11-06T20:00:00	1	Precipitación	0
63912	7	Sololá	701	Sololá	3	Barraneche	11	Noviembre	2023-11-29T00:00:00	2024-11-06T20:00:00	8	Radiación solar	0
63913	7	Sololá	701	Sololá	3	Barraneche	11	Noviembre	2023-11-29T00:00:00	2024-11-06T21:00:00	2	Temperatura media	13.4
63914	7	Sololá	701	Sololá	3	Barraneche	11	Noviembre	2023-11-29T00:00:00	2024-11-06T21:00:00	4	Temperatura máxima	13.9
63915	7	Sololá	701	Sololá	3	Barraneche	11	Noviembre	2023-11-29T00:00:00	2024-11-06T21:00:00	3	Temperatura mínima	13.4
63916	7	Sololá	701	Sololá	3	Barraneche	11	Noviembre	2023-11-29T00:00:00	2024-11-06T21:00:00	5	Humedad	60
63917	7	Sololá	701	Sololá	3	Barraneche	11	Noviembre	2023-11-29T00:00:00	2024-11-06T21:00:00	6	Velocidad del viento	6.4
63918	7	Sololá	701	Sololá	3	Barraneche	11	Noviembre	2023-11-29T00:00:00	2024-11-06T21:00:00	7	Dirección del viento	6.44
63919	7	Sololá	701	Sololá	3	Barraneche	11	Noviembre	2023-11-29T00:00:00	2024-11-06T21:00:00	1	Precipitación	0
63920	7	Sololá	701	Sololá	3	Barraneche	11	Noviembre	2023-11-29T00:00:00	2024-11-06T21:00:00	8	Radiación solar	0
63921	7	Sololá	701	Sololá	3	Barraneche	11	Noviembre	2023-11-29T00:00:00	2024-11-06T22:00:00	2	Temperatura media	13.3
63922	7	Sololá	701	Sololá	3	Barraneche	11	Noviembre	2023-11-29T00:00:00	2024-11-06T22:00:00	4	Temperatura máxima	13.4
63923	7	Sololá	701	Sololá	3	Barraneche	11	Noviembre	2023-11-29T00:00:00	2024-11-06T22:00:00	3	Temperatura mínima	12.3
63924	7	Sololá	701	Sololá	3	Barraneche	11	Noviembre	2023-11-29T00:00:00	2024-11-06T22:00:00	5	Humedad	61
63925	7	Sololá	701	Sololá	3	Barraneche	11	Noviembre	2023-11-29T00:00:00	2024-11-06T22:00:00	6	Velocidad del viento	6.4
63926	7	Sololá	701	Sololá	3	Barraneche	11	Noviembre	2023-11-29T00:00:00	2024-11-06T22:00:00	7	Dirección del viento	6.44
63927	7	Sololá	701	Sololá	3	Barraneche	11	Noviembre	2023-11-29T00:00:00	2024-11-06T22:00:00	1	Precipitación	0
63928	7	Sololá	701	Sololá	3	Barraneche	11	Noviembre	2023-11-29T00:00:00	2024-11-06T22:00:00	8	Radiación solar	0
63929	7	Sololá	701	Sololá	3	Barraneche	11	Noviembre	2023-11-29T00:00:00	2024-11-06T23:00:00	2	Temperatura media	13.3
63930	7	Sololá	701	Sololá	3	Barraneche	11	Noviembre	2023-11-29T00:00:00	2024-11-06T23:00:00	4	Temperatura máxima	13.6
63931	7	Sololá	701	Sololá	3	Barraneche	11	Noviembre	2023-11-29T00:00:00	2024-11-06T23:00:00	3	Temperatura mínima	13.2
63932	7	Sololá	701	Sololá	3	Barraneche	11	Noviembre	2023-11-29T00:00:00	2024-11-06T23:00:00	5	Humedad	62
63933	7	Sololá	701	Sololá	3	Barraneche	11	Noviembre	2023-11-29T00:00:00	2024-11-06T23:00:00	6	Velocidad del viento	12.9
63934	7	Sololá	701	Sololá	3	Barraneche	11	Noviembre	2023-11-29T00:00:00	2024-11-06T23:00:00	7	Dirección del viento	12.87
63935	7	Sololá	701	Sololá	3	Barraneche	11	Noviembre	2023-11-29T00:00:00	2024-11-06T23:00:00	1	Precipitación	0
63936	7	Sololá	701	Sololá	3	Barraneche	11	Noviembre	2023-11-29T00:00:00	2024-11-06T23:00:00	8	Radiación solar	0
63937	7	Sololá	701	Sololá	3	Barraneche	11	Noviembre	2023-11-30T00:00:00	2024-11-06T00:00:00	2	Temperatura media	12.7
63938	7	Sololá	701	Sololá	3	Barraneche	11	Noviembre	2023-11-30T00:00:00	2024-11-06T00:00:00	4	Temperatura máxima	13.3
63939	7	Sololá	701	Sololá	3	Barraneche	11	Noviembre	2023-11-30T00:00:00	2024-11-06T00:00:00	3	Temperatura mínima	12.7
63940	7	Sololá	701	Sololá	3	Barraneche	11	Noviembre	2023-11-30T00:00:00	2024-11-06T00:00:00	5	Humedad	62
63941	7	Sololá	701	Sololá	3	Barraneche	11	Noviembre	2023-11-30T00:00:00	2024-11-06T00:00:00	6	Velocidad del viento	11.3
63942	7	Sololá	701	Sololá	3	Barraneche	11	Noviembre	2023-11-30T00:00:00	2024-11-06T00:00:00	7	Dirección del viento	11.27
63943	7	Sololá	701	Sololá	3	Barraneche	11	Noviembre	2023-11-30T00:00:00	2024-11-06T00:00:00	1	Precipitación	0
63944	7	Sololá	701	Sololá	3	Barraneche	11	Noviembre	2023-11-30T00:00:00	2024-11-06T00:00:00	8	Radiación solar	0
63945	7	Sololá	701	Sololá	3	Barraneche	11	Noviembre	2023-11-30T00:00:00	2024-11-06T01:00:00	2	Temperatura media	11.1
63946	7	Sololá	701	Sololá	3	Barraneche	11	Noviembre	2023-11-30T00:00:00	2024-11-06T01:00:00	4	Temperatura máxima	13.1
63947	7	Sololá	701	Sololá	3	Barraneche	11	Noviembre	2023-11-30T00:00:00	2024-11-06T01:00:00	3	Temperatura mínima	11.1
63948	7	Sololá	701	Sololá	3	Barraneche	11	Noviembre	2023-11-30T00:00:00	2024-11-06T01:00:00	5	Humedad	65
63949	7	Sololá	701	Sololá	3	Barraneche	11	Noviembre	2023-11-30T00:00:00	2024-11-06T01:00:00	6	Velocidad del viento	6.4
63950	7	Sololá	701	Sololá	3	Barraneche	11	Noviembre	2023-11-30T00:00:00	2024-11-06T01:00:00	7	Dirección del viento	6.44
63951	7	Sololá	701	Sololá	3	Barraneche	11	Noviembre	2023-11-30T00:00:00	2024-11-06T01:00:00	1	Precipitación	0
63952	7	Sololá	701	Sololá	3	Barraneche	11	Noviembre	2023-11-30T00:00:00	2024-11-06T01:00:00	8	Radiación solar	0
63953	7	Sololá	701	Sololá	3	Barraneche	11	Noviembre	2023-11-30T00:00:00	2024-11-06T02:00:00	2	Temperatura media	10.8
63954	7	Sololá	701	Sololá	3	Barraneche	11	Noviembre	2023-11-30T00:00:00	2024-11-06T02:00:00	4	Temperatura máxima	11.2
63955	7	Sololá	701	Sololá	3	Barraneche	11	Noviembre	2023-11-30T00:00:00	2024-11-06T02:00:00	3	Temperatura mínima	10.4
63956	7	Sololá	701	Sololá	3	Barraneche	11	Noviembre	2023-11-30T00:00:00	2024-11-06T02:00:00	5	Humedad	68
63957	7	Sololá	701	Sololá	3	Barraneche	11	Noviembre	2023-11-30T00:00:00	2024-11-06T02:00:00	6	Velocidad del viento	4.8
63958	7	Sololá	701	Sololá	3	Barraneche	11	Noviembre	2023-11-30T00:00:00	2024-11-06T02:00:00	7	Dirección del viento	4.83
63959	7	Sololá	701	Sololá	3	Barraneche	11	Noviembre	2023-11-30T00:00:00	2024-11-06T02:00:00	1	Precipitación	0
63960	7	Sololá	701	Sololá	3	Barraneche	11	Noviembre	2023-11-30T00:00:00	2024-11-06T02:00:00	8	Radiación solar	0
63961	7	Sololá	701	Sololá	3	Barraneche	11	Noviembre	2023-11-30T00:00:00	2024-11-06T03:00:00	2	Temperatura media	10.2
63962	7	Sololá	701	Sololá	3	Barraneche	11	Noviembre	2023-11-30T00:00:00	2024-11-06T03:00:00	4	Temperatura máxima	10.9
63963	7	Sololá	701	Sololá	3	Barraneche	11	Noviembre	2023-11-30T00:00:00	2024-11-06T03:00:00	3	Temperatura mínima	10
63964	7	Sololá	701	Sololá	3	Barraneche	11	Noviembre	2023-11-30T00:00:00	2024-11-06T03:00:00	5	Humedad	70
63965	7	Sololá	701	Sololá	3	Barraneche	11	Noviembre	2023-11-30T00:00:00	2024-11-06T03:00:00	6	Velocidad del viento	4.8
63966	7	Sololá	701	Sololá	3	Barraneche	11	Noviembre	2023-11-30T00:00:00	2024-11-06T03:00:00	7	Dirección del viento	4.83
63967	7	Sololá	701	Sololá	3	Barraneche	11	Noviembre	2023-11-30T00:00:00	2024-11-06T03:00:00	1	Precipitación	0
63968	7	Sololá	701	Sololá	3	Barraneche	11	Noviembre	2023-11-30T00:00:00	2024-11-06T03:00:00	8	Radiación solar	0
63969	7	Sololá	701	Sololá	3	Barraneche	11	Noviembre	2023-11-30T00:00:00	2024-11-06T04:00:00	2	Temperatura media	10.6
63970	7	Sololá	701	Sololá	3	Barraneche	11	Noviembre	2023-11-30T00:00:00	2024-11-06T04:00:00	4	Temperatura máxima	10.6
63971	7	Sololá	701	Sololá	3	Barraneche	11	Noviembre	2023-11-30T00:00:00	2024-11-06T04:00:00	3	Temperatura mínima	10.1
63972	7	Sololá	701	Sololá	3	Barraneche	11	Noviembre	2023-11-30T00:00:00	2024-11-06T04:00:00	5	Humedad	68
63973	7	Sololá	701	Sololá	3	Barraneche	11	Noviembre	2023-11-30T00:00:00	2024-11-06T04:00:00	6	Velocidad del viento	6.4
63974	7	Sololá	701	Sololá	3	Barraneche	11	Noviembre	2023-11-30T00:00:00	2024-11-06T04:00:00	7	Dirección del viento	6.44
63975	7	Sololá	701	Sololá	3	Barraneche	11	Noviembre	2023-11-30T00:00:00	2024-11-06T04:00:00	1	Precipitación	0
63976	7	Sololá	701	Sololá	3	Barraneche	11	Noviembre	2023-11-30T00:00:00	2024-11-06T04:00:00	8	Radiación solar	0
63977	7	Sololá	701	Sololá	3	Barraneche	11	Noviembre	2023-11-30T00:00:00	2024-11-06T05:00:00	2	Temperatura media	11.1
63978	7	Sololá	701	Sololá	3	Barraneche	11	Noviembre	2023-11-30T00:00:00	2024-11-06T05:00:00	4	Temperatura máxima	11.2
63979	7	Sololá	701	Sololá	3	Barraneche	11	Noviembre	2023-11-30T00:00:00	2024-11-06T05:00:00	3	Temperatura mínima	10.6
63980	7	Sololá	701	Sololá	3	Barraneche	11	Noviembre	2023-11-30T00:00:00	2024-11-06T05:00:00	5	Humedad	64
63981	7	Sololá	701	Sololá	3	Barraneche	11	Noviembre	2023-11-30T00:00:00	2024-11-06T05:00:00	6	Velocidad del viento	8
63982	7	Sololá	701	Sololá	3	Barraneche	11	Noviembre	2023-11-30T00:00:00	2024-11-06T05:00:00	7	Dirección del viento	8.05
63983	7	Sololá	701	Sololá	3	Barraneche	11	Noviembre	2023-11-30T00:00:00	2024-11-06T05:00:00	1	Precipitación	0
63984	7	Sololá	701	Sololá	3	Barraneche	11	Noviembre	2023-11-30T00:00:00	2024-11-06T05:00:00	8	Radiación solar	0
63985	7	Sololá	701	Sololá	3	Barraneche	11	Noviembre	2023-11-30T00:00:00	2024-11-06T06:00:00	2	Temperatura media	10.8
63986	7	Sololá	701	Sololá	3	Barraneche	11	Noviembre	2023-11-30T00:00:00	2024-11-06T06:00:00	4	Temperatura máxima	11.3
63987	7	Sololá	701	Sololá	3	Barraneche	11	Noviembre	2023-11-30T00:00:00	2024-11-06T06:00:00	3	Temperatura mínima	10.7
63988	7	Sololá	701	Sololá	3	Barraneche	11	Noviembre	2023-11-30T00:00:00	2024-11-06T06:00:00	5	Humedad	67
63989	7	Sololá	701	Sololá	3	Barraneche	11	Noviembre	2023-11-30T00:00:00	2024-11-06T06:00:00	6	Velocidad del viento	8
63990	7	Sololá	701	Sololá	3	Barraneche	11	Noviembre	2023-11-30T00:00:00	2024-11-06T06:00:00	7	Dirección del viento	8.05
63991	7	Sololá	701	Sololá	3	Barraneche	11	Noviembre	2023-11-30T00:00:00	2024-11-06T06:00:00	1	Precipitación	0
63992	7	Sololá	701	Sololá	3	Barraneche	11	Noviembre	2023-11-30T00:00:00	2024-11-06T06:00:00	8	Radiación solar	0
63993	7	Sololá	701	Sololá	3	Barraneche	11	Noviembre	2023-11-30T00:00:00	2024-11-06T07:00:00	2	Temperatura media	10.8
63994	7	Sololá	701	Sololá	3	Barraneche	11	Noviembre	2023-11-30T00:00:00	2024-11-06T07:00:00	4	Temperatura máxima	10.9
63995	7	Sololá	701	Sololá	3	Barraneche	11	Noviembre	2023-11-30T00:00:00	2024-11-06T07:00:00	3	Temperatura mínima	10.4
63996	7	Sololá	701	Sololá	3	Barraneche	11	Noviembre	2023-11-30T00:00:00	2024-11-06T07:00:00	5	Humedad	69
63997	7	Sololá	701	Sololá	3	Barraneche	11	Noviembre	2023-11-30T00:00:00	2024-11-06T07:00:00	6	Velocidad del viento	3.2
63998	7	Sololá	701	Sololá	3	Barraneche	11	Noviembre	2023-11-30T00:00:00	2024-11-06T07:00:00	7	Dirección del viento	3.22
63999	7	Sololá	701	Sololá	3	Barraneche	11	Noviembre	2023-11-30T00:00:00	2024-11-06T07:00:00	1	Precipitación	0
64000	7	Sololá	701	Sololá	3	Barraneche	11	Noviembre	2023-11-30T00:00:00	2024-11-06T07:00:00	8	Radiación solar	21
64001	7	Sololá	701	Sololá	3	Barraneche	11	Noviembre	2023-11-30T00:00:00	2024-11-06T08:00:00	2	Temperatura media	14.7
64002	7	Sololá	701	Sololá	3	Barraneche	11	Noviembre	2023-11-30T00:00:00	2024-11-06T08:00:00	4	Temperatura máxima	14.7
64003	7	Sololá	701	Sololá	3	Barraneche	11	Noviembre	2023-11-30T00:00:00	2024-11-06T08:00:00	3	Temperatura mínima	10.8
64004	7	Sololá	701	Sololá	3	Barraneche	11	Noviembre	2023-11-30T00:00:00	2024-11-06T08:00:00	5	Humedad	63
64005	7	Sololá	701	Sololá	3	Barraneche	11	Noviembre	2023-11-30T00:00:00	2024-11-06T08:00:00	6	Velocidad del viento	1.6
64006	7	Sololá	701	Sololá	3	Barraneche	11	Noviembre	2023-11-30T00:00:00	2024-11-06T08:00:00	7	Dirección del viento	1.61
64007	7	Sololá	701	Sololá	3	Barraneche	11	Noviembre	2023-11-30T00:00:00	2024-11-06T08:00:00	1	Precipitación	0
64008	7	Sololá	701	Sololá	3	Barraneche	11	Noviembre	2023-11-30T00:00:00	2024-11-06T08:00:00	8	Radiación solar	233
64009	7	Sololá	701	Sololá	3	Barraneche	11	Noviembre	2023-11-30T00:00:00	2024-11-06T09:00:00	2	Temperatura media	16.8
64010	7	Sololá	701	Sololá	3	Barraneche	11	Noviembre	2023-11-30T00:00:00	2024-11-06T09:00:00	4	Temperatura máxima	16.8
64011	7	Sololá	701	Sololá	3	Barraneche	11	Noviembre	2023-11-30T00:00:00	2024-11-06T09:00:00	3	Temperatura mínima	14.8
64012	7	Sololá	701	Sololá	3	Barraneche	11	Noviembre	2023-11-30T00:00:00	2024-11-06T09:00:00	5	Humedad	54
64013	7	Sololá	701	Sololá	3	Barraneche	11	Noviembre	2023-11-30T00:00:00	2024-11-06T09:00:00	6	Velocidad del viento	9.7
64014	7	Sololá	701	Sololá	3	Barraneche	11	Noviembre	2023-11-30T00:00:00	2024-11-06T09:00:00	7	Dirección del viento	9.66
64015	7	Sololá	701	Sololá	3	Barraneche	11	Noviembre	2023-11-30T00:00:00	2024-11-06T09:00:00	1	Precipitación	0
64016	7	Sololá	701	Sololá	3	Barraneche	11	Noviembre	2023-11-30T00:00:00	2024-11-06T09:00:00	8	Radiación solar	461
64017	7	Sololá	701	Sololá	3	Barraneche	11	Noviembre	2023-11-30T00:00:00	2024-11-06T10:00:00	2	Temperatura media	17.6
64018	7	Sololá	701	Sololá	3	Barraneche	11	Noviembre	2023-11-30T00:00:00	2024-11-06T10:00:00	4	Temperatura máxima	17.6
64019	7	Sololá	701	Sololá	3	Barraneche	11	Noviembre	2023-11-30T00:00:00	2024-11-06T10:00:00	3	Temperatura mínima	16.7
64020	7	Sololá	701	Sololá	3	Barraneche	11	Noviembre	2023-11-30T00:00:00	2024-11-06T10:00:00	5	Humedad	52
64021	7	Sololá	701	Sololá	3	Barraneche	11	Noviembre	2023-11-30T00:00:00	2024-11-06T10:00:00	6	Velocidad del viento	12.9
64022	7	Sololá	701	Sololá	3	Barraneche	11	Noviembre	2023-11-30T00:00:00	2024-11-06T10:00:00	7	Dirección del viento	12.87
64023	7	Sololá	701	Sololá	3	Barraneche	11	Noviembre	2023-11-30T00:00:00	2024-11-06T10:00:00	1	Precipitación	0
64024	7	Sololá	701	Sololá	3	Barraneche	11	Noviembre	2023-11-30T00:00:00	2024-11-06T10:00:00	8	Radiación solar	638
64025	7	Sololá	701	Sololá	3	Barraneche	11	Noviembre	2023-11-30T00:00:00	2024-11-06T11:00:00	2	Temperatura media	18.4
64026	7	Sololá	701	Sololá	3	Barraneche	11	Noviembre	2023-11-30T00:00:00	2024-11-06T11:00:00	4	Temperatura máxima	18.7
64027	7	Sololá	701	Sololá	3	Barraneche	11	Noviembre	2023-11-30T00:00:00	2024-11-06T11:00:00	3	Temperatura mínima	17.6
64028	7	Sololá	701	Sololá	3	Barraneche	11	Noviembre	2023-11-30T00:00:00	2024-11-06T11:00:00	5	Humedad	51
64029	7	Sololá	701	Sololá	3	Barraneche	11	Noviembre	2023-11-30T00:00:00	2024-11-06T11:00:00	6	Velocidad del viento	12.9
64030	7	Sololá	701	Sololá	3	Barraneche	11	Noviembre	2023-11-30T00:00:00	2024-11-06T11:00:00	7	Dirección del viento	12.87
64031	7	Sololá	701	Sololá	3	Barraneche	11	Noviembre	2023-11-30T00:00:00	2024-11-06T11:00:00	1	Precipitación	0
64032	7	Sololá	701	Sololá	3	Barraneche	11	Noviembre	2023-11-30T00:00:00	2024-11-06T11:00:00	8	Radiación solar	789
64033	7	Sololá	701	Sololá	3	Barraneche	11	Noviembre	2023-11-30T00:00:00	2024-11-06T12:00:00	2	Temperatura media	19.1
64034	7	Sololá	701	Sololá	3	Barraneche	11	Noviembre	2023-11-30T00:00:00	2024-11-06T12:00:00	4	Temperatura máxima	19.6
64035	7	Sololá	701	Sololá	3	Barraneche	11	Noviembre	2023-11-30T00:00:00	2024-11-06T12:00:00	3	Temperatura mínima	18.3
64036	7	Sololá	701	Sololá	3	Barraneche	11	Noviembre	2023-11-30T00:00:00	2024-11-06T12:00:00	5	Humedad	53
64037	7	Sololá	701	Sololá	3	Barraneche	11	Noviembre	2023-11-30T00:00:00	2024-11-06T12:00:00	6	Velocidad del viento	9.7
64038	7	Sololá	701	Sololá	3	Barraneche	11	Noviembre	2023-11-30T00:00:00	2024-11-06T12:00:00	7	Dirección del viento	9.66
64039	7	Sololá	701	Sololá	3	Barraneche	11	Noviembre	2023-11-30T00:00:00	2024-11-06T12:00:00	1	Precipitación	0
64040	7	Sololá	701	Sololá	3	Barraneche	11	Noviembre	2023-11-30T00:00:00	2024-11-06T12:00:00	8	Radiación solar	834
64041	7	Sololá	701	Sololá	3	Barraneche	11	Noviembre	2023-11-30T00:00:00	2024-11-06T13:00:00	2	Temperatura media	19.2
64042	7	Sololá	701	Sololá	3	Barraneche	11	Noviembre	2023-11-30T00:00:00	2024-11-06T13:00:00	4	Temperatura máxima	19.7
64043	7	Sololá	701	Sololá	3	Barraneche	11	Noviembre	2023-11-30T00:00:00	2024-11-06T13:00:00	3	Temperatura mínima	18.9
64044	7	Sololá	701	Sololá	3	Barraneche	11	Noviembre	2023-11-30T00:00:00	2024-11-06T13:00:00	5	Humedad	52
64045	7	Sololá	701	Sololá	3	Barraneche	11	Noviembre	2023-11-30T00:00:00	2024-11-06T13:00:00	6	Velocidad del viento	11.3
64046	7	Sololá	701	Sololá	3	Barraneche	11	Noviembre	2023-11-30T00:00:00	2024-11-06T13:00:00	7	Dirección del viento	11.27
64047	7	Sololá	701	Sololá	3	Barraneche	11	Noviembre	2023-11-30T00:00:00	2024-11-06T13:00:00	1	Precipitación	0
64048	7	Sololá	701	Sololá	3	Barraneche	11	Noviembre	2023-11-30T00:00:00	2024-11-06T13:00:00	8	Radiación solar	681
64049	7	Sololá	701	Sololá	3	Barraneche	11	Noviembre	2023-11-30T00:00:00	2024-11-06T14:00:00	2	Temperatura media	18.9
64050	7	Sololá	701	Sololá	3	Barraneche	11	Noviembre	2023-11-30T00:00:00	2024-11-06T14:00:00	4	Temperatura máxima	19.6
64051	7	Sololá	701	Sololá	3	Barraneche	11	Noviembre	2023-11-30T00:00:00	2024-11-06T14:00:00	3	Temperatura mínima	18.3
64052	7	Sololá	701	Sololá	3	Barraneche	11	Noviembre	2023-11-30T00:00:00	2024-11-06T14:00:00	5	Humedad	54
64053	7	Sololá	701	Sololá	3	Barraneche	11	Noviembre	2023-11-30T00:00:00	2024-11-06T14:00:00	6	Velocidad del viento	11.3
64054	7	Sololá	701	Sololá	3	Barraneche	11	Noviembre	2023-11-30T00:00:00	2024-11-06T14:00:00	7	Dirección del viento	11.27
64055	7	Sololá	701	Sololá	3	Barraneche	11	Noviembre	2023-11-30T00:00:00	2024-11-06T14:00:00	1	Precipitación	0
64056	7	Sololá	701	Sololá	3	Barraneche	11	Noviembre	2023-11-30T00:00:00	2024-11-06T14:00:00	8	Radiación solar	744
64057	7	Sololá	701	Sololá	3	Barraneche	11	Noviembre	2023-11-30T00:00:00	2024-11-06T15:00:00	2	Temperatura media	18.6
64058	7	Sololá	701	Sololá	3	Barraneche	11	Noviembre	2023-11-30T00:00:00	2024-11-06T15:00:00	4	Temperatura máxima	19.4
64059	7	Sololá	701	Sololá	3	Barraneche	11	Noviembre	2023-11-30T00:00:00	2024-11-06T15:00:00	3	Temperatura mínima	18.5
64060	7	Sololá	701	Sololá	3	Barraneche	11	Noviembre	2023-11-30T00:00:00	2024-11-06T15:00:00	5	Humedad	58
64061	7	Sololá	701	Sololá	3	Barraneche	11	Noviembre	2023-11-30T00:00:00	2024-11-06T15:00:00	6	Velocidad del viento	11.3
64062	7	Sololá	701	Sololá	3	Barraneche	11	Noviembre	2023-11-30T00:00:00	2024-11-06T15:00:00	7	Dirección del viento	11.27
64063	7	Sololá	701	Sololá	3	Barraneche	11	Noviembre	2023-11-30T00:00:00	2024-11-06T15:00:00	1	Precipitación	0
64064	7	Sololá	701	Sololá	3	Barraneche	11	Noviembre	2023-11-30T00:00:00	2024-11-06T15:00:00	8	Radiación solar	659
64065	7	Sololá	701	Sololá	3	Barraneche	11	Noviembre	2023-11-30T00:00:00	2024-11-06T16:00:00	2	Temperatura media	18.3
64066	7	Sololá	701	Sololá	3	Barraneche	11	Noviembre	2023-11-30T00:00:00	2024-11-06T16:00:00	4	Temperatura máxima	18.6
64067	7	Sololá	701	Sololá	3	Barraneche	11	Noviembre	2023-11-30T00:00:00	2024-11-06T16:00:00	3	Temperatura mínima	18.1
64068	7	Sololá	701	Sololá	3	Barraneche	11	Noviembre	2023-11-30T00:00:00	2024-11-06T16:00:00	5	Humedad	57
64069	7	Sololá	701	Sololá	3	Barraneche	11	Noviembre	2023-11-30T00:00:00	2024-11-06T16:00:00	6	Velocidad del viento	9.7
64070	7	Sololá	701	Sololá	3	Barraneche	11	Noviembre	2023-11-30T00:00:00	2024-11-06T16:00:00	7	Dirección del viento	9.66
64071	7	Sololá	701	Sololá	3	Barraneche	11	Noviembre	2023-11-30T00:00:00	2024-11-06T16:00:00	1	Precipitación	0
64072	7	Sololá	701	Sololá	3	Barraneche	11	Noviembre	2023-11-30T00:00:00	2024-11-06T16:00:00	8	Radiación solar	438
64073	7	Sololá	701	Sololá	3	Barraneche	11	Noviembre	2023-11-30T00:00:00	2024-11-06T17:00:00	2	Temperatura media	16.9
64074	7	Sololá	701	Sololá	3	Barraneche	11	Noviembre	2023-11-30T00:00:00	2024-11-06T17:00:00	4	Temperatura máxima	18.4
64075	7	Sololá	701	Sololá	3	Barraneche	11	Noviembre	2023-11-30T00:00:00	2024-11-06T17:00:00	3	Temperatura mínima	16.9
64076	7	Sololá	701	Sololá	3	Barraneche	11	Noviembre	2023-11-30T00:00:00	2024-11-06T17:00:00	5	Humedad	66
64077	7	Sololá	701	Sololá	3	Barraneche	11	Noviembre	2023-11-30T00:00:00	2024-11-06T17:00:00	6	Velocidad del viento	8
64078	7	Sololá	701	Sololá	3	Barraneche	11	Noviembre	2023-11-30T00:00:00	2024-11-06T17:00:00	7	Dirección del viento	8.05
64079	7	Sololá	701	Sololá	3	Barraneche	11	Noviembre	2023-11-30T00:00:00	2024-11-06T17:00:00	1	Precipitación	0
64080	7	Sololá	701	Sololá	3	Barraneche	11	Noviembre	2023-11-30T00:00:00	2024-11-06T17:00:00	8	Radiación solar	219
64081	7	Sololá	701	Sololá	3	Barraneche	11	Noviembre	2023-11-30T00:00:00	2024-11-06T18:00:00	2	Temperatura media	15.1
64082	7	Sololá	701	Sololá	3	Barraneche	11	Noviembre	2023-11-30T00:00:00	2024-11-06T18:00:00	4	Temperatura máxima	16.9
64083	7	Sololá	701	Sololá	3	Barraneche	11	Noviembre	2023-11-30T00:00:00	2024-11-06T18:00:00	3	Temperatura mínima	15.1
64084	7	Sololá	701	Sololá	3	Barraneche	11	Noviembre	2023-11-30T00:00:00	2024-11-06T18:00:00	5	Humedad	70
64085	7	Sololá	701	Sololá	3	Barraneche	11	Noviembre	2023-11-30T00:00:00	2024-11-06T18:00:00	6	Velocidad del viento	3.2
64086	7	Sololá	701	Sololá	3	Barraneche	11	Noviembre	2023-11-30T00:00:00	2024-11-06T18:00:00	7	Dirección del viento	3.22
64087	7	Sololá	701	Sololá	3	Barraneche	11	Noviembre	2023-11-30T00:00:00	2024-11-06T18:00:00	1	Precipitación	0
64088	7	Sololá	701	Sololá	3	Barraneche	11	Noviembre	2023-11-30T00:00:00	2024-11-06T18:00:00	8	Radiación solar	21
64089	7	Sololá	701	Sololá	3	Barraneche	11	Noviembre	2023-11-30T00:00:00	2024-11-06T19:00:00	2	Temperatura media	13.3
64090	7	Sololá	701	Sololá	3	Barraneche	11	Noviembre	2023-11-30T00:00:00	2024-11-06T19:00:00	4	Temperatura máxima	15.1
64091	7	Sololá	701	Sololá	3	Barraneche	11	Noviembre	2023-11-30T00:00:00	2024-11-06T19:00:00	3	Temperatura mínima	13.3
64092	7	Sololá	701	Sololá	3	Barraneche	11	Noviembre	2023-11-30T00:00:00	2024-11-06T19:00:00	5	Humedad	66
64093	7	Sololá	701	Sololá	3	Barraneche	11	Noviembre	2023-11-30T00:00:00	2024-11-06T19:00:00	6	Velocidad del viento	3.2
64094	7	Sololá	701	Sololá	3	Barraneche	11	Noviembre	2023-11-30T00:00:00	2024-11-06T19:00:00	7	Dirección del viento	3.22
64095	7	Sololá	701	Sololá	3	Barraneche	11	Noviembre	2023-11-30T00:00:00	2024-11-06T19:00:00	1	Precipitación	0
64096	7	Sololá	701	Sololá	3	Barraneche	11	Noviembre	2023-11-30T00:00:00	2024-11-06T19:00:00	8	Radiación solar	0
64097	7	Sololá	701	Sololá	3	Barraneche	11	Noviembre	2023-11-30T00:00:00	2024-11-06T20:00:00	2	Temperatura media	12.4
64098	7	Sololá	701	Sololá	3	Barraneche	11	Noviembre	2023-11-30T00:00:00	2024-11-06T20:00:00	4	Temperatura máxima	13.3
64099	7	Sololá	701	Sololá	3	Barraneche	11	Noviembre	2023-11-30T00:00:00	2024-11-06T20:00:00	3	Temperatura mínima	12.3
64100	7	Sololá	701	Sololá	3	Barraneche	11	Noviembre	2023-11-30T00:00:00	2024-11-06T20:00:00	5	Humedad	68
64101	7	Sololá	701	Sololá	3	Barraneche	11	Noviembre	2023-11-30T00:00:00	2024-11-06T20:00:00	6	Velocidad del viento	6.4
64102	7	Sololá	701	Sololá	3	Barraneche	11	Noviembre	2023-11-30T00:00:00	2024-11-06T20:00:00	7	Dirección del viento	6.44
64103	7	Sololá	701	Sololá	3	Barraneche	11	Noviembre	2023-11-30T00:00:00	2024-11-06T20:00:00	1	Precipitación	0
64104	7	Sololá	701	Sololá	3	Barraneche	11	Noviembre	2023-11-30T00:00:00	2024-11-06T20:00:00	8	Radiación solar	0
64105	7	Sololá	701	Sololá	3	Barraneche	11	Noviembre	2023-11-30T00:00:00	2024-11-06T21:00:00	2	Temperatura media	12.1
64106	7	Sololá	701	Sololá	3	Barraneche	11	Noviembre	2023-11-30T00:00:00	2024-11-06T21:00:00	4	Temperatura máxima	12.5
64107	7	Sololá	701	Sololá	3	Barraneche	11	Noviembre	2023-11-30T00:00:00	2024-11-06T21:00:00	3	Temperatura mínima	11.9
64108	7	Sololá	701	Sololá	3	Barraneche	11	Noviembre	2023-11-30T00:00:00	2024-11-06T21:00:00	5	Humedad	69
64109	7	Sololá	701	Sololá	3	Barraneche	11	Noviembre	2023-11-30T00:00:00	2024-11-06T21:00:00	6	Velocidad del viento	4.8
64110	7	Sololá	701	Sololá	3	Barraneche	11	Noviembre	2023-11-30T00:00:00	2024-11-06T21:00:00	7	Dirección del viento	4.83
64111	7	Sololá	701	Sololá	3	Barraneche	11	Noviembre	2023-11-30T00:00:00	2024-11-06T21:00:00	1	Precipitación	0
64112	7	Sololá	701	Sololá	3	Barraneche	11	Noviembre	2023-11-30T00:00:00	2024-11-06T21:00:00	8	Radiación solar	0
64113	7	Sololá	701	Sololá	3	Barraneche	11	Noviembre	2023-11-30T00:00:00	2024-11-06T22:00:00	2	Temperatura media	11.6
64114	7	Sololá	701	Sololá	3	Barraneche	11	Noviembre	2023-11-30T00:00:00	2024-11-06T22:00:00	4	Temperatura máxima	12.2
64115	7	Sololá	701	Sololá	3	Barraneche	11	Noviembre	2023-11-30T00:00:00	2024-11-06T22:00:00	3	Temperatura mínima	11.3
64116	7	Sololá	701	Sololá	3	Barraneche	11	Noviembre	2023-11-30T00:00:00	2024-11-06T22:00:00	5	Humedad	64
64117	7	Sololá	701	Sololá	3	Barraneche	11	Noviembre	2023-11-30T00:00:00	2024-11-06T22:00:00	6	Velocidad del viento	4.8
64118	7	Sololá	701	Sololá	3	Barraneche	11	Noviembre	2023-11-30T00:00:00	2024-11-06T22:00:00	7	Dirección del viento	4.83
64119	7	Sololá	701	Sololá	3	Barraneche	11	Noviembre	2023-11-30T00:00:00	2024-11-06T22:00:00	1	Precipitación	0
64120	7	Sololá	701	Sololá	3	Barraneche	11	Noviembre	2023-11-30T00:00:00	2024-11-06T22:00:00	8	Radiación solar	0
64121	7	Sololá	701	Sololá	3	Barraneche	11	Noviembre	2023-11-30T00:00:00	2024-11-06T23:00:00	2	Temperatura media	10.9
64122	7	Sololá	701	Sololá	3	Barraneche	11	Noviembre	2023-11-30T00:00:00	2024-11-06T23:00:00	4	Temperatura máxima	11.6
64123	7	Sololá	701	Sololá	3	Barraneche	11	Noviembre	2023-11-30T00:00:00	2024-11-06T23:00:00	3	Temperatura mínima	10.9
64124	7	Sololá	701	Sololá	3	Barraneche	11	Noviembre	2023-11-30T00:00:00	2024-11-06T23:00:00	5	Humedad	64
64125	7	Sololá	701	Sololá	3	Barraneche	11	Noviembre	2023-11-30T00:00:00	2024-11-06T23:00:00	6	Velocidad del viento	6.4
64126	7	Sololá	701	Sololá	3	Barraneche	11	Noviembre	2023-11-30T00:00:00	2024-11-06T23:00:00	7	Dirección del viento	6.44
64127	7	Sololá	701	Sololá	3	Barraneche	11	Noviembre	2023-11-30T00:00:00	2024-11-06T23:00:00	1	Precipitación	0
64128	7	Sololá	701	Sololá	3	Barraneche	11	Noviembre	2023-11-30T00:00:00	2024-11-06T23:00:00	8	Radiación solar	0
64129	7	Sololá	701	Sololá	3	Barraneche	12	Diciembre	2023-01-12T00:00:00	2024-11-06T00:00:00	2	Temperatura media	10.9
64130	7	Sololá	701	Sololá	3	Barraneche	12	Diciembre	2023-01-12T00:00:00	2024-11-06T00:00:00	4	Temperatura máxima	11.4
64131	7	Sololá	701	Sololá	3	Barraneche	12	Diciembre	2023-01-12T00:00:00	2024-11-06T00:00:00	3	Temperatura mínima	10.8
64132	7	Sololá	701	Sololá	3	Barraneche	12	Diciembre	2023-01-12T00:00:00	2024-11-06T00:00:00	5	Humedad	59
64133	7	Sololá	701	Sololá	3	Barraneche	12	Diciembre	2023-01-12T00:00:00	2024-11-06T00:00:00	6	Velocidad del viento	8
64134	7	Sololá	701	Sololá	3	Barraneche	12	Diciembre	2023-01-12T00:00:00	2024-11-06T00:00:00	7	Dirección del viento	8.05
64135	7	Sololá	701	Sololá	3	Barraneche	12	Diciembre	2023-01-12T00:00:00	2024-11-06T00:00:00	1	Precipitación	0
64136	7	Sololá	701	Sololá	3	Barraneche	12	Diciembre	2023-01-12T00:00:00	2024-11-06T00:00:00	8	Radiación solar	0
64137	7	Sololá	701	Sololá	3	Barraneche	12	Diciembre	2023-01-12T00:00:00	2024-11-06T01:00:00	2	Temperatura media	10.4
64138	7	Sololá	701	Sololá	3	Barraneche	12	Diciembre	2023-01-12T00:00:00	2024-11-06T01:00:00	4	Temperatura máxima	10.9
64139	7	Sololá	701	Sololá	3	Barraneche	12	Diciembre	2023-01-12T00:00:00	2024-11-06T01:00:00	3	Temperatura mínima	9.8
64140	7	Sololá	701	Sololá	3	Barraneche	12	Diciembre	2023-01-12T00:00:00	2024-11-06T01:00:00	5	Humedad	59
64141	7	Sololá	701	Sololá	3	Barraneche	12	Diciembre	2023-01-12T00:00:00	2024-11-06T01:00:00	6	Velocidad del viento	8
64142	7	Sololá	701	Sololá	3	Barraneche	12	Diciembre	2023-01-12T00:00:00	2024-11-06T01:00:00	7	Dirección del viento	8.05
64143	7	Sololá	701	Sololá	3	Barraneche	12	Diciembre	2023-01-12T00:00:00	2024-11-06T01:00:00	1	Precipitación	0
64144	7	Sololá	701	Sololá	3	Barraneche	12	Diciembre	2023-01-12T00:00:00	2024-11-06T01:00:00	8	Radiación solar	0
64145	7	Sololá	701	Sololá	3	Barraneche	12	Diciembre	2023-01-12T00:00:00	2024-11-06T02:00:00	2	Temperatura media	11.3
64146	7	Sololá	701	Sololá	3	Barraneche	12	Diciembre	2023-01-12T00:00:00	2024-11-06T02:00:00	4	Temperatura máxima	11.8
64147	7	Sololá	701	Sololá	3	Barraneche	12	Diciembre	2023-01-12T00:00:00	2024-11-06T02:00:00	3	Temperatura mínima	10.3
64148	7	Sololá	701	Sololá	3	Barraneche	12	Diciembre	2023-01-12T00:00:00	2024-11-06T02:00:00	5	Humedad	54
64149	7	Sololá	701	Sololá	3	Barraneche	12	Diciembre	2023-01-12T00:00:00	2024-11-06T02:00:00	6	Velocidad del viento	11.3
64150	7	Sololá	701	Sololá	3	Barraneche	12	Diciembre	2023-01-12T00:00:00	2024-11-06T02:00:00	7	Dirección del viento	11.27
64151	7	Sololá	701	Sololá	3	Barraneche	12	Diciembre	2023-01-12T00:00:00	2024-11-06T02:00:00	1	Precipitación	0
64152	7	Sololá	701	Sololá	3	Barraneche	12	Diciembre	2023-01-12T00:00:00	2024-11-06T02:00:00	8	Radiación solar	0
64153	7	Sololá	701	Sololá	3	Barraneche	12	Diciembre	2023-01-12T00:00:00	2024-11-06T03:00:00	2	Temperatura media	11.6
64154	7	Sololá	701	Sololá	3	Barraneche	12	Diciembre	2023-01-12T00:00:00	2024-11-06T03:00:00	4	Temperatura máxima	11.6
64155	7	Sololá	701	Sololá	3	Barraneche	12	Diciembre	2023-01-12T00:00:00	2024-11-06T03:00:00	3	Temperatura mínima	10.5
64156	7	Sololá	701	Sololá	3	Barraneche	12	Diciembre	2023-01-12T00:00:00	2024-11-06T03:00:00	5	Humedad	50
64157	7	Sololá	701	Sololá	3	Barraneche	12	Diciembre	2023-01-12T00:00:00	2024-11-06T03:00:00	6	Velocidad del viento	11.3
64158	7	Sololá	701	Sololá	3	Barraneche	12	Diciembre	2023-01-12T00:00:00	2024-11-06T03:00:00	7	Dirección del viento	11.27
64159	7	Sololá	701	Sololá	3	Barraneche	12	Diciembre	2023-01-12T00:00:00	2024-11-06T03:00:00	1	Precipitación	0
64160	7	Sololá	701	Sololá	3	Barraneche	12	Diciembre	2023-01-12T00:00:00	2024-11-06T03:00:00	8	Radiación solar	0
64161	7	Sololá	701	Sololá	3	Barraneche	12	Diciembre	2023-01-12T00:00:00	2024-11-06T04:00:00	2	Temperatura media	10.6
64162	7	Sololá	701	Sololá	3	Barraneche	12	Diciembre	2023-01-12T00:00:00	2024-11-06T04:00:00	4	Temperatura máxima	11.8
64163	7	Sololá	701	Sololá	3	Barraneche	12	Diciembre	2023-01-12T00:00:00	2024-11-06T04:00:00	3	Temperatura mínima	10.6
64164	7	Sololá	701	Sololá	3	Barraneche	12	Diciembre	2023-01-12T00:00:00	2024-11-06T04:00:00	5	Humedad	51
64165	7	Sololá	701	Sololá	3	Barraneche	12	Diciembre	2023-01-12T00:00:00	2024-11-06T04:00:00	6	Velocidad del viento	9.7
64166	7	Sololá	701	Sololá	3	Barraneche	12	Diciembre	2023-01-12T00:00:00	2024-11-06T04:00:00	7	Dirección del viento	9.66
64167	7	Sololá	701	Sololá	3	Barraneche	12	Diciembre	2023-01-12T00:00:00	2024-11-06T04:00:00	1	Precipitación	0
64168	7	Sololá	701	Sololá	3	Barraneche	12	Diciembre	2023-01-12T00:00:00	2024-11-06T04:00:00	8	Radiación solar	0
64169	7	Sololá	701	Sololá	3	Barraneche	12	Diciembre	2023-01-12T00:00:00	2024-11-06T05:00:00	2	Temperatura media	10.1
64170	7	Sololá	701	Sololá	3	Barraneche	12	Diciembre	2023-01-12T00:00:00	2024-11-06T05:00:00	4	Temperatura máxima	10.9
64171	7	Sololá	701	Sololá	3	Barraneche	12	Diciembre	2023-01-12T00:00:00	2024-11-06T05:00:00	3	Temperatura mínima	10.1
64172	7	Sololá	701	Sololá	3	Barraneche	12	Diciembre	2023-01-12T00:00:00	2024-11-06T05:00:00	5	Humedad	58
64173	7	Sololá	701	Sololá	3	Barraneche	12	Diciembre	2023-01-12T00:00:00	2024-11-06T05:00:00	6	Velocidad del viento	6.4
64174	7	Sololá	701	Sololá	3	Barraneche	12	Diciembre	2023-01-12T00:00:00	2024-11-06T05:00:00	7	Dirección del viento	6.44
64175	7	Sololá	701	Sololá	3	Barraneche	12	Diciembre	2023-01-12T00:00:00	2024-11-06T05:00:00	1	Precipitación	0
64176	7	Sololá	701	Sololá	3	Barraneche	12	Diciembre	2023-01-12T00:00:00	2024-11-06T05:00:00	8	Radiación solar	0
64177	7	Sololá	701	Sololá	3	Barraneche	12	Diciembre	2023-01-12T00:00:00	2024-11-06T06:00:00	2	Temperatura media	10
64178	7	Sololá	701	Sololá	3	Barraneche	12	Diciembre	2023-01-12T00:00:00	2024-11-06T06:00:00	4	Temperatura máxima	10.2
64179	7	Sololá	701	Sololá	3	Barraneche	12	Diciembre	2023-01-12T00:00:00	2024-11-06T06:00:00	3	Temperatura mínima	9.8
64180	7	Sololá	701	Sololá	3	Barraneche	12	Diciembre	2023-01-12T00:00:00	2024-11-06T06:00:00	5	Humedad	63
64181	7	Sololá	701	Sololá	3	Barraneche	12	Diciembre	2023-01-12T00:00:00	2024-11-06T06:00:00	6	Velocidad del viento	8
64182	7	Sololá	701	Sololá	3	Barraneche	12	Diciembre	2023-01-12T00:00:00	2024-11-06T06:00:00	7	Dirección del viento	8.05
64183	7	Sololá	701	Sololá	3	Barraneche	12	Diciembre	2023-01-12T00:00:00	2024-11-06T06:00:00	1	Precipitación	0
64184	7	Sololá	701	Sololá	3	Barraneche	12	Diciembre	2023-01-12T00:00:00	2024-11-06T06:00:00	8	Radiación solar	0
64185	7	Sololá	701	Sololá	3	Barraneche	12	Diciembre	2023-01-12T00:00:00	2024-11-06T07:00:00	2	Temperatura media	10.7
64186	7	Sololá	701	Sololá	3	Barraneche	12	Diciembre	2023-01-12T00:00:00	2024-11-06T07:00:00	4	Temperatura máxima	10.8
64187	7	Sololá	701	Sololá	3	Barraneche	12	Diciembre	2023-01-12T00:00:00	2024-11-06T07:00:00	3	Temperatura mínima	9.7
64188	7	Sololá	701	Sololá	3	Barraneche	12	Diciembre	2023-01-12T00:00:00	2024-11-06T07:00:00	5	Humedad	63
64189	7	Sololá	701	Sololá	3	Barraneche	12	Diciembre	2023-01-12T00:00:00	2024-11-06T07:00:00	6	Velocidad del viento	8
64190	7	Sololá	701	Sololá	3	Barraneche	12	Diciembre	2023-01-12T00:00:00	2024-11-06T07:00:00	7	Dirección del viento	8.05
64191	7	Sololá	701	Sololá	3	Barraneche	12	Diciembre	2023-01-12T00:00:00	2024-11-06T07:00:00	1	Precipitación	0
64192	7	Sololá	701	Sololá	3	Barraneche	12	Diciembre	2023-01-12T00:00:00	2024-11-06T07:00:00	8	Radiación solar	19
64193	7	Sololá	701	Sololá	3	Barraneche	12	Diciembre	2023-01-12T00:00:00	2024-11-06T08:00:00	2	Temperatura media	14.8
64194	7	Sololá	701	Sololá	3	Barraneche	12	Diciembre	2023-01-12T00:00:00	2024-11-06T08:00:00	4	Temperatura máxima	14.8
64195	7	Sololá	701	Sololá	3	Barraneche	12	Diciembre	2023-01-12T00:00:00	2024-11-06T08:00:00	3	Temperatura mínima	10.8
64196	7	Sololá	701	Sololá	3	Barraneche	12	Diciembre	2023-01-12T00:00:00	2024-11-06T08:00:00	5	Humedad	50
64197	7	Sololá	701	Sololá	3	Barraneche	12	Diciembre	2023-01-12T00:00:00	2024-11-06T08:00:00	6	Velocidad del viento	6.4
64198	7	Sololá	701	Sololá	3	Barraneche	12	Diciembre	2023-01-12T00:00:00	2024-11-06T08:00:00	7	Dirección del viento	6.44
64199	7	Sololá	701	Sololá	3	Barraneche	12	Diciembre	2023-01-12T00:00:00	2024-11-06T08:00:00	1	Precipitación	0
64200	7	Sololá	701	Sololá	3	Barraneche	12	Diciembre	2023-01-12T00:00:00	2024-11-06T08:00:00	8	Radiación solar	229
64201	7	Sololá	701	Sololá	3	Barraneche	12	Diciembre	2023-01-12T00:00:00	2024-11-06T09:00:00	2	Temperatura media	17.6
64202	7	Sololá	701	Sololá	3	Barraneche	12	Diciembre	2023-01-12T00:00:00	2024-11-06T09:00:00	4	Temperatura máxima	17.6
64203	7	Sololá	701	Sololá	3	Barraneche	12	Diciembre	2023-01-12T00:00:00	2024-11-06T09:00:00	3	Temperatura mínima	14.8
64204	7	Sololá	701	Sololá	3	Barraneche	12	Diciembre	2023-01-12T00:00:00	2024-11-06T09:00:00	5	Humedad	49
64205	7	Sololá	701	Sololá	3	Barraneche	12	Diciembre	2023-01-12T00:00:00	2024-11-06T09:00:00	6	Velocidad del viento	4.8
64206	7	Sololá	701	Sololá	3	Barraneche	12	Diciembre	2023-01-12T00:00:00	2024-11-06T09:00:00	7	Dirección del viento	4.83
64207	7	Sololá	701	Sololá	3	Barraneche	12	Diciembre	2023-01-12T00:00:00	2024-11-06T09:00:00	1	Precipitación	0
64208	7	Sololá	701	Sololá	3	Barraneche	12	Diciembre	2023-01-12T00:00:00	2024-11-06T09:00:00	8	Radiación solar	459
64209	7	Sololá	701	Sololá	3	Barraneche	12	Diciembre	2023-01-12T00:00:00	2024-11-06T10:00:00	2	Temperatura media	19
64210	7	Sololá	701	Sololá	3	Barraneche	12	Diciembre	2023-01-12T00:00:00	2024-11-06T10:00:00	4	Temperatura máxima	19.5
64211	7	Sololá	701	Sololá	3	Barraneche	12	Diciembre	2023-01-12T00:00:00	2024-11-06T10:00:00	3	Temperatura mínima	17.6
64212	7	Sololá	701	Sololá	3	Barraneche	12	Diciembre	2023-01-12T00:00:00	2024-11-06T10:00:00	5	Humedad	49
64213	7	Sololá	701	Sololá	3	Barraneche	12	Diciembre	2023-01-12T00:00:00	2024-11-06T10:00:00	6	Velocidad del viento	6.4
64214	7	Sololá	701	Sololá	3	Barraneche	12	Diciembre	2023-01-12T00:00:00	2024-11-06T10:00:00	7	Dirección del viento	6.44
64215	7	Sololá	701	Sololá	3	Barraneche	12	Diciembre	2023-01-12T00:00:00	2024-11-06T10:00:00	1	Precipitación	0
64216	7	Sololá	701	Sololá	3	Barraneche	12	Diciembre	2023-01-12T00:00:00	2024-11-06T10:00:00	8	Radiación solar	643
64217	7	Sololá	701	Sololá	3	Barraneche	12	Diciembre	2023-01-12T00:00:00	2024-11-06T11:00:00	2	Temperatura media	19.2
64218	7	Sololá	701	Sololá	3	Barraneche	12	Diciembre	2023-01-12T00:00:00	2024-11-06T11:00:00	4	Temperatura máxima	19.5
64219	7	Sololá	701	Sololá	3	Barraneche	12	Diciembre	2023-01-12T00:00:00	2024-11-06T11:00:00	3	Temperatura mínima	19
64220	7	Sololá	701	Sololá	3	Barraneche	12	Diciembre	2023-01-12T00:00:00	2024-11-06T11:00:00	5	Humedad	51
64221	7	Sololá	701	Sololá	3	Barraneche	12	Diciembre	2023-01-12T00:00:00	2024-11-06T11:00:00	6	Velocidad del viento	11.3
64222	7	Sololá	701	Sololá	3	Barraneche	12	Diciembre	2023-01-12T00:00:00	2024-11-06T11:00:00	7	Dirección del viento	11.27
64223	7	Sololá	701	Sololá	3	Barraneche	12	Diciembre	2023-01-12T00:00:00	2024-11-06T11:00:00	1	Precipitación	0
64224	7	Sololá	701	Sololá	3	Barraneche	12	Diciembre	2023-01-12T00:00:00	2024-11-06T11:00:00	8	Radiación solar	770
64225	7	Sololá	701	Sololá	3	Barraneche	12	Diciembre	2023-01-12T00:00:00	2024-11-06T12:00:00	2	Temperatura media	19.4
64226	7	Sololá	701	Sololá	3	Barraneche	12	Diciembre	2023-01-12T00:00:00	2024-11-06T12:00:00	4	Temperatura máxima	19.6
64227	7	Sololá	701	Sololá	3	Barraneche	12	Diciembre	2023-01-12T00:00:00	2024-11-06T12:00:00	3	Temperatura mínima	19.2
64228	7	Sololá	701	Sololá	3	Barraneche	12	Diciembre	2023-01-12T00:00:00	2024-11-06T12:00:00	5	Humedad	51
64229	7	Sololá	701	Sololá	3	Barraneche	12	Diciembre	2023-01-12T00:00:00	2024-11-06T12:00:00	6	Velocidad del viento	14.5
64230	7	Sololá	701	Sololá	3	Barraneche	12	Diciembre	2023-01-12T00:00:00	2024-11-06T12:00:00	7	Dirección del viento	14.48
64231	7	Sololá	701	Sololá	3	Barraneche	12	Diciembre	2023-01-12T00:00:00	2024-11-06T12:00:00	1	Precipitación	0
64232	7	Sololá	701	Sololá	3	Barraneche	12	Diciembre	2023-01-12T00:00:00	2024-11-06T12:00:00	8	Radiación solar	847
64233	7	Sololá	701	Sololá	3	Barraneche	12	Diciembre	2023-01-12T00:00:00	2024-11-06T13:00:00	2	Temperatura media	19.2
64234	7	Sololá	701	Sololá	3	Barraneche	12	Diciembre	2023-01-12T00:00:00	2024-11-06T13:00:00	4	Temperatura máxima	19.8
64235	7	Sololá	701	Sololá	3	Barraneche	12	Diciembre	2023-01-12T00:00:00	2024-11-06T13:00:00	3	Temperatura mínima	19.1
64236	7	Sololá	701	Sololá	3	Barraneche	12	Diciembre	2023-01-12T00:00:00	2024-11-06T13:00:00	5	Humedad	57
64237	7	Sololá	701	Sololá	3	Barraneche	12	Diciembre	2023-01-12T00:00:00	2024-11-06T13:00:00	6	Velocidad del viento	11.3
64238	7	Sololá	701	Sololá	3	Barraneche	12	Diciembre	2023-01-12T00:00:00	2024-11-06T13:00:00	7	Dirección del viento	11.27
64239	7	Sololá	701	Sololá	3	Barraneche	12	Diciembre	2023-01-12T00:00:00	2024-11-06T13:00:00	1	Precipitación	0
64240	7	Sololá	701	Sololá	3	Barraneche	12	Diciembre	2023-01-12T00:00:00	2024-11-06T13:00:00	8	Radiación solar	834
64241	7	Sololá	701	Sololá	3	Barraneche	12	Diciembre	2023-01-12T00:00:00	2024-11-06T14:00:00	2	Temperatura media	18.7
64242	7	Sololá	701	Sololá	3	Barraneche	12	Diciembre	2023-01-12T00:00:00	2024-11-06T14:00:00	4	Temperatura máxima	19.3
64243	7	Sololá	701	Sololá	3	Barraneche	12	Diciembre	2023-01-12T00:00:00	2024-11-06T14:00:00	3	Temperatura mínima	18.6
64244	7	Sololá	701	Sololá	3	Barraneche	12	Diciembre	2023-01-12T00:00:00	2024-11-06T14:00:00	5	Humedad	62
64245	7	Sololá	701	Sololá	3	Barraneche	12	Diciembre	2023-01-12T00:00:00	2024-11-06T14:00:00	6	Velocidad del viento	12.9
64246	7	Sololá	701	Sololá	3	Barraneche	12	Diciembre	2023-01-12T00:00:00	2024-11-06T14:00:00	7	Dirección del viento	12.87
64247	7	Sololá	701	Sololá	3	Barraneche	12	Diciembre	2023-01-12T00:00:00	2024-11-06T14:00:00	1	Precipitación	0
64248	7	Sololá	701	Sololá	3	Barraneche	12	Diciembre	2023-01-12T00:00:00	2024-11-06T14:00:00	8	Radiación solar	683
64249	7	Sololá	701	Sololá	3	Barraneche	12	Diciembre	2023-01-12T00:00:00	2024-11-06T15:00:00	2	Temperatura media	17.5
64250	7	Sololá	701	Sololá	3	Barraneche	12	Diciembre	2023-01-12T00:00:00	2024-11-06T15:00:00	4	Temperatura máxima	18.8
64251	7	Sololá	701	Sololá	3	Barraneche	12	Diciembre	2023-01-12T00:00:00	2024-11-06T15:00:00	3	Temperatura mínima	17.4
64252	7	Sololá	701	Sololá	3	Barraneche	12	Diciembre	2023-01-12T00:00:00	2024-11-06T15:00:00	5	Humedad	66
64253	7	Sololá	701	Sololá	3	Barraneche	12	Diciembre	2023-01-12T00:00:00	2024-11-06T15:00:00	6	Velocidad del viento	12.9
64254	7	Sololá	701	Sololá	3	Barraneche	12	Diciembre	2023-01-12T00:00:00	2024-11-06T15:00:00	7	Dirección del viento	12.87
64255	7	Sololá	701	Sololá	3	Barraneche	12	Diciembre	2023-01-12T00:00:00	2024-11-06T15:00:00	1	Precipitación	0
64256	7	Sololá	701	Sololá	3	Barraneche	12	Diciembre	2023-01-12T00:00:00	2024-11-06T15:00:00	8	Radiación solar	550
64257	7	Sololá	701	Sololá	3	Barraneche	12	Diciembre	2023-01-12T00:00:00	2024-11-06T16:00:00	2	Temperatura media	16.6
64258	7	Sololá	701	Sololá	3	Barraneche	12	Diciembre	2023-01-12T00:00:00	2024-11-06T16:00:00	4	Temperatura máxima	17.8
64259	7	Sololá	701	Sololá	3	Barraneche	12	Diciembre	2023-01-12T00:00:00	2024-11-06T16:00:00	3	Temperatura mínima	16.6
64260	7	Sololá	701	Sololá	3	Barraneche	12	Diciembre	2023-01-12T00:00:00	2024-11-06T16:00:00	5	Humedad	69
64261	7	Sololá	701	Sololá	3	Barraneche	12	Diciembre	2023-01-12T00:00:00	2024-11-06T16:00:00	6	Velocidad del viento	9.7
64262	7	Sololá	701	Sololá	3	Barraneche	12	Diciembre	2023-01-12T00:00:00	2024-11-06T16:00:00	7	Dirección del viento	9.66
64263	7	Sololá	701	Sololá	3	Barraneche	12	Diciembre	2023-01-12T00:00:00	2024-11-06T16:00:00	1	Precipitación	0
64264	7	Sololá	701	Sololá	3	Barraneche	12	Diciembre	2023-01-12T00:00:00	2024-11-06T16:00:00	8	Radiación solar	297
64265	7	Sololá	701	Sololá	3	Barraneche	12	Diciembre	2023-01-12T00:00:00	2024-11-06T17:00:00	2	Temperatura media	16.4
64266	7	Sololá	701	Sololá	3	Barraneche	12	Diciembre	2023-01-12T00:00:00	2024-11-06T17:00:00	4	Temperatura máxima	17.2
64267	7	Sololá	701	Sololá	3	Barraneche	12	Diciembre	2023-01-12T00:00:00	2024-11-06T17:00:00	3	Temperatura mínima	16.4
64268	7	Sololá	701	Sololá	3	Barraneche	12	Diciembre	2023-01-12T00:00:00	2024-11-06T17:00:00	5	Humedad	68
64269	7	Sololá	701	Sololá	3	Barraneche	12	Diciembre	2023-01-12T00:00:00	2024-11-06T17:00:00	6	Velocidad del viento	4.8
64270	7	Sololá	701	Sololá	3	Barraneche	12	Diciembre	2023-01-12T00:00:00	2024-11-06T17:00:00	7	Dirección del viento	4.83
64271	7	Sololá	701	Sololá	3	Barraneche	12	Diciembre	2023-01-12T00:00:00	2024-11-06T17:00:00	1	Precipitación	0
64272	7	Sololá	701	Sololá	3	Barraneche	12	Diciembre	2023-01-12T00:00:00	2024-11-06T17:00:00	8	Radiación solar	157
64273	7	Sololá	701	Sololá	3	Barraneche	12	Diciembre	2023-01-12T00:00:00	2024-11-06T18:00:00	2	Temperatura media	14.9
64274	7	Sololá	701	Sololá	3	Barraneche	12	Diciembre	2023-01-12T00:00:00	2024-11-06T18:00:00	4	Temperatura máxima	16.4
64275	7	Sololá	701	Sololá	3	Barraneche	12	Diciembre	2023-01-12T00:00:00	2024-11-06T18:00:00	3	Temperatura mínima	14.9
64276	7	Sololá	701	Sololá	3	Barraneche	12	Diciembre	2023-01-12T00:00:00	2024-11-06T18:00:00	5	Humedad	75
64277	7	Sololá	701	Sololá	3	Barraneche	12	Diciembre	2023-01-12T00:00:00	2024-11-06T18:00:00	6	Velocidad del viento	4.8
64278	7	Sololá	701	Sololá	3	Barraneche	12	Diciembre	2023-01-12T00:00:00	2024-11-06T18:00:00	7	Dirección del viento	4.83
64279	7	Sololá	701	Sololá	3	Barraneche	12	Diciembre	2023-01-12T00:00:00	2024-11-06T18:00:00	1	Precipitación	0
64280	7	Sololá	701	Sololá	3	Barraneche	12	Diciembre	2023-01-12T00:00:00	2024-11-06T18:00:00	8	Radiación solar	20
64281	7	Sololá	701	Sololá	3	Barraneche	12	Diciembre	2023-01-12T00:00:00	2024-11-06T19:00:00	2	Temperatura media	14.8
64282	7	Sololá	701	Sololá	3	Barraneche	12	Diciembre	2023-01-12T00:00:00	2024-11-06T19:00:00	4	Temperatura máxima	14.9
64283	7	Sololá	701	Sololá	3	Barraneche	12	Diciembre	2023-01-12T00:00:00	2024-11-06T19:00:00	3	Temperatura mínima	14.7
64284	7	Sololá	701	Sololá	3	Barraneche	12	Diciembre	2023-01-12T00:00:00	2024-11-06T19:00:00	5	Humedad	74
64285	7	Sololá	701	Sololá	3	Barraneche	12	Diciembre	2023-01-12T00:00:00	2024-11-06T19:00:00	6	Velocidad del viento	1.6
64286	7	Sololá	701	Sololá	3	Barraneche	12	Diciembre	2023-01-12T00:00:00	2024-11-06T19:00:00	7	Dirección del viento	1.61
64287	7	Sololá	701	Sololá	3	Barraneche	12	Diciembre	2023-01-12T00:00:00	2024-11-06T19:00:00	1	Precipitación	0
64288	7	Sololá	701	Sololá	3	Barraneche	12	Diciembre	2023-01-12T00:00:00	2024-11-06T19:00:00	8	Radiación solar	0
64289	7	Sololá	701	Sololá	3	Barraneche	12	Diciembre	2023-01-12T00:00:00	2024-11-06T20:00:00	2	Temperatura media	13
64290	7	Sololá	701	Sololá	3	Barraneche	12	Diciembre	2023-01-12T00:00:00	2024-11-06T20:00:00	4	Temperatura máxima	14.8
64291	7	Sololá	701	Sololá	3	Barraneche	12	Diciembre	2023-01-12T00:00:00	2024-11-06T20:00:00	3	Temperatura mínima	13
64292	7	Sololá	701	Sololá	3	Barraneche	12	Diciembre	2023-01-12T00:00:00	2024-11-06T20:00:00	5	Humedad	67
64293	7	Sololá	701	Sololá	3	Barraneche	12	Diciembre	2023-01-12T00:00:00	2024-11-06T20:00:00	6	Velocidad del viento	4.8
64294	7	Sololá	701	Sololá	3	Barraneche	12	Diciembre	2023-01-12T00:00:00	2024-11-06T20:00:00	7	Dirección del viento	4.83
64295	7	Sololá	701	Sololá	3	Barraneche	12	Diciembre	2023-01-12T00:00:00	2024-11-06T20:00:00	1	Precipitación	0
64296	7	Sololá	701	Sololá	3	Barraneche	12	Diciembre	2023-01-12T00:00:00	2024-11-06T20:00:00	8	Radiación solar	0
64297	7	Sololá	701	Sololá	3	Barraneche	12	Diciembre	2023-01-12T00:00:00	2024-11-06T21:00:00	2	Temperatura media	12.2
64298	7	Sololá	701	Sololá	3	Barraneche	12	Diciembre	2023-01-12T00:00:00	2024-11-06T21:00:00	4	Temperatura máxima	13
64299	7	Sololá	701	Sololá	3	Barraneche	12	Diciembre	2023-01-12T00:00:00	2024-11-06T21:00:00	3	Temperatura mínima	12.1
64300	7	Sololá	701	Sololá	3	Barraneche	12	Diciembre	2023-01-12T00:00:00	2024-11-06T21:00:00	5	Humedad	66
64301	7	Sololá	701	Sololá	3	Barraneche	12	Diciembre	2023-01-12T00:00:00	2024-11-06T21:00:00	6	Velocidad del viento	6.4
64302	7	Sololá	701	Sololá	3	Barraneche	12	Diciembre	2023-01-12T00:00:00	2024-11-06T21:00:00	7	Dirección del viento	6.44
64303	7	Sololá	701	Sololá	3	Barraneche	12	Diciembre	2023-01-12T00:00:00	2024-11-06T21:00:00	1	Precipitación	0
64304	7	Sololá	701	Sololá	3	Barraneche	12	Diciembre	2023-01-12T00:00:00	2024-11-06T21:00:00	8	Radiación solar	0
64305	7	Sololá	701	Sololá	3	Barraneche	12	Diciembre	2023-01-12T00:00:00	2024-11-06T22:00:00	2	Temperatura media	11.4
64306	7	Sololá	701	Sololá	3	Barraneche	12	Diciembre	2023-01-12T00:00:00	2024-11-06T22:00:00	4	Temperatura máxima	12.2
64307	7	Sololá	701	Sololá	3	Barraneche	12	Diciembre	2023-01-12T00:00:00	2024-11-06T22:00:00	3	Temperatura mínima	11.4
64308	7	Sololá	701	Sololá	3	Barraneche	12	Diciembre	2023-01-12T00:00:00	2024-11-06T22:00:00	5	Humedad	62
64309	7	Sololá	701	Sololá	3	Barraneche	12	Diciembre	2023-01-12T00:00:00	2024-11-06T22:00:00	6	Velocidad del viento	6.4
64310	7	Sololá	701	Sololá	3	Barraneche	12	Diciembre	2023-01-12T00:00:00	2024-11-06T22:00:00	7	Dirección del viento	6.44
64311	7	Sololá	701	Sololá	3	Barraneche	12	Diciembre	2023-01-12T00:00:00	2024-11-06T22:00:00	1	Precipitación	0
64312	7	Sololá	701	Sololá	3	Barraneche	12	Diciembre	2023-01-12T00:00:00	2024-11-06T22:00:00	8	Radiación solar	0
64313	7	Sololá	701	Sololá	3	Barraneche	12	Diciembre	2023-01-12T00:00:00	2024-11-06T23:00:00	2	Temperatura media	11.1
64314	7	Sololá	701	Sololá	3	Barraneche	12	Diciembre	2023-01-12T00:00:00	2024-11-06T23:00:00	4	Temperatura máxima	11.5
64315	7	Sololá	701	Sololá	3	Barraneche	12	Diciembre	2023-01-12T00:00:00	2024-11-06T23:00:00	3	Temperatura mínima	11.1
64316	7	Sololá	701	Sololá	3	Barraneche	12	Diciembre	2023-01-12T00:00:00	2024-11-06T23:00:00	5	Humedad	62
64317	7	Sololá	701	Sololá	3	Barraneche	12	Diciembre	2023-01-12T00:00:00	2024-11-06T23:00:00	6	Velocidad del viento	8
64318	7	Sololá	701	Sololá	3	Barraneche	12	Diciembre	2023-01-12T00:00:00	2024-11-06T23:00:00	7	Dirección del viento	8.05
64319	7	Sololá	701	Sololá	3	Barraneche	12	Diciembre	2023-01-12T00:00:00	2024-11-06T23:00:00	1	Precipitación	0
64320	7	Sololá	701	Sololá	3	Barraneche	12	Diciembre	2023-01-12T00:00:00	2024-11-06T23:00:00	8	Radiación solar	0
64321	7	Sololá	701	Sololá	3	Barraneche	12	Diciembre	2023-02-12T00:00:00	2024-11-06T00:00:00	2	Temperatura media	11.2
64322	7	Sololá	701	Sololá	3	Barraneche	12	Diciembre	2023-02-12T00:00:00	2024-11-06T00:00:00	4	Temperatura máxima	11.4
64323	7	Sololá	701	Sololá	3	Barraneche	12	Diciembre	2023-02-12T00:00:00	2024-11-06T00:00:00	3	Temperatura mínima	10.4
64324	7	Sololá	701	Sololá	3	Barraneche	12	Diciembre	2023-02-12T00:00:00	2024-11-06T00:00:00	5	Humedad	61
64325	7	Sololá	701	Sololá	3	Barraneche	12	Diciembre	2023-02-12T00:00:00	2024-11-06T00:00:00	6	Velocidad del viento	8
64326	7	Sololá	701	Sololá	3	Barraneche	12	Diciembre	2023-02-12T00:00:00	2024-11-06T00:00:00	7	Dirección del viento	8.05
64327	7	Sololá	701	Sololá	3	Barraneche	12	Diciembre	2023-02-12T00:00:00	2024-11-06T00:00:00	1	Precipitación	0
64328	7	Sololá	701	Sololá	3	Barraneche	12	Diciembre	2023-02-12T00:00:00	2024-11-06T00:00:00	8	Radiación solar	0
64329	7	Sololá	701	Sololá	3	Barraneche	12	Diciembre	2023-02-12T00:00:00	2024-11-06T01:00:00	2	Temperatura media	10.8
64330	7	Sololá	701	Sololá	3	Barraneche	12	Diciembre	2023-02-12T00:00:00	2024-11-06T01:00:00	4	Temperatura máxima	11.8
64331	7	Sololá	701	Sololá	3	Barraneche	12	Diciembre	2023-02-12T00:00:00	2024-11-06T01:00:00	3	Temperatura mínima	10.8
64332	7	Sololá	701	Sololá	3	Barraneche	12	Diciembre	2023-02-12T00:00:00	2024-11-06T01:00:00	5	Humedad	47
64333	7	Sololá	701	Sololá	3	Barraneche	12	Diciembre	2023-02-12T00:00:00	2024-11-06T01:00:00	6	Velocidad del viento	11.3
64334	7	Sololá	701	Sololá	3	Barraneche	12	Diciembre	2023-02-12T00:00:00	2024-11-06T01:00:00	7	Dirección del viento	11.27
64335	7	Sololá	701	Sololá	3	Barraneche	12	Diciembre	2023-02-12T00:00:00	2024-11-06T01:00:00	1	Precipitación	0
64336	7	Sololá	701	Sololá	3	Barraneche	12	Diciembre	2023-02-12T00:00:00	2024-11-06T01:00:00	8	Radiación solar	0
64337	7	Sololá	701	Sololá	3	Barraneche	12	Diciembre	2023-02-12T00:00:00	2024-11-06T02:00:00	2	Temperatura media	10.6
64338	7	Sololá	701	Sololá	3	Barraneche	12	Diciembre	2023-02-12T00:00:00	2024-11-06T02:00:00	4	Temperatura máxima	10.9
64339	7	Sololá	701	Sololá	3	Barraneche	12	Diciembre	2023-02-12T00:00:00	2024-11-06T02:00:00	3	Temperatura mínima	10.3
64340	7	Sololá	701	Sololá	3	Barraneche	12	Diciembre	2023-02-12T00:00:00	2024-11-06T02:00:00	5	Humedad	49
64341	7	Sololá	701	Sololá	3	Barraneche	12	Diciembre	2023-02-12T00:00:00	2024-11-06T02:00:00	6	Velocidad del viento	11.3
64342	7	Sololá	701	Sololá	3	Barraneche	12	Diciembre	2023-02-12T00:00:00	2024-11-06T02:00:00	7	Dirección del viento	11.27
64343	7	Sololá	701	Sololá	3	Barraneche	12	Diciembre	2023-02-12T00:00:00	2024-11-06T02:00:00	1	Precipitación	0
64344	7	Sololá	701	Sololá	3	Barraneche	12	Diciembre	2023-02-12T00:00:00	2024-11-06T02:00:00	8	Radiación solar	0
64345	7	Sololá	701	Sololá	3	Barraneche	12	Diciembre	2023-02-12T00:00:00	2024-11-06T03:00:00	2	Temperatura media	10.3
64346	7	Sololá	701	Sololá	3	Barraneche	12	Diciembre	2023-02-12T00:00:00	2024-11-06T03:00:00	4	Temperatura máxima	10.9
64347	7	Sololá	701	Sololá	3	Barraneche	12	Diciembre	2023-02-12T00:00:00	2024-11-06T03:00:00	3	Temperatura mínima	10.1
64348	7	Sololá	701	Sololá	3	Barraneche	12	Diciembre	2023-02-12T00:00:00	2024-11-06T03:00:00	5	Humedad	50
64349	7	Sololá	701	Sololá	3	Barraneche	12	Diciembre	2023-02-12T00:00:00	2024-11-06T03:00:00	6	Velocidad del viento	9.7
64350	7	Sololá	701	Sololá	3	Barraneche	12	Diciembre	2023-02-12T00:00:00	2024-11-06T03:00:00	7	Dirección del viento	9.66
64351	7	Sololá	701	Sololá	3	Barraneche	12	Diciembre	2023-02-12T00:00:00	2024-11-06T03:00:00	1	Precipitación	0
64352	7	Sololá	701	Sololá	3	Barraneche	12	Diciembre	2023-02-12T00:00:00	2024-11-06T03:00:00	8	Radiación solar	0
64353	7	Sololá	701	Sololá	3	Barraneche	12	Diciembre	2023-02-12T00:00:00	2024-11-06T04:00:00	2	Temperatura media	10.3
64354	7	Sololá	701	Sololá	3	Barraneche	12	Diciembre	2023-02-12T00:00:00	2024-11-06T04:00:00	4	Temperatura máxima	10.7
64355	7	Sololá	701	Sololá	3	Barraneche	12	Diciembre	2023-02-12T00:00:00	2024-11-06T04:00:00	3	Temperatura mínima	10.2
64356	7	Sololá	701	Sololá	3	Barraneche	12	Diciembre	2023-02-12T00:00:00	2024-11-06T04:00:00	5	Humedad	49
64357	7	Sololá	701	Sololá	3	Barraneche	12	Diciembre	2023-02-12T00:00:00	2024-11-06T04:00:00	6	Velocidad del viento	9.7
64358	7	Sololá	701	Sololá	3	Barraneche	12	Diciembre	2023-02-12T00:00:00	2024-11-06T04:00:00	7	Dirección del viento	9.66
64359	7	Sololá	701	Sololá	3	Barraneche	12	Diciembre	2023-02-12T00:00:00	2024-11-06T04:00:00	1	Precipitación	0
64360	7	Sololá	701	Sololá	3	Barraneche	12	Diciembre	2023-02-12T00:00:00	2024-11-06T04:00:00	8	Radiación solar	0
64361	7	Sololá	701	Sololá	3	Barraneche	12	Diciembre	2023-02-12T00:00:00	2024-11-06T05:00:00	2	Temperatura media	9.7
64362	7	Sololá	701	Sololá	3	Barraneche	12	Diciembre	2023-02-12T00:00:00	2024-11-06T05:00:00	4	Temperatura máxima	10.3
64363	7	Sololá	701	Sololá	3	Barraneche	12	Diciembre	2023-02-12T00:00:00	2024-11-06T05:00:00	3	Temperatura mínima	9.7
64364	7	Sololá	701	Sololá	3	Barraneche	12	Diciembre	2023-02-12T00:00:00	2024-11-06T05:00:00	5	Humedad	49
64365	7	Sololá	701	Sololá	3	Barraneche	12	Diciembre	2023-02-12T00:00:00	2024-11-06T05:00:00	6	Velocidad del viento	9.7
64366	7	Sololá	701	Sololá	3	Barraneche	12	Diciembre	2023-02-12T00:00:00	2024-11-06T05:00:00	7	Dirección del viento	9.66
64367	7	Sololá	701	Sololá	3	Barraneche	12	Diciembre	2023-02-12T00:00:00	2024-11-06T05:00:00	1	Precipitación	0
64368	7	Sololá	701	Sololá	3	Barraneche	12	Diciembre	2023-02-12T00:00:00	2024-11-06T05:00:00	8	Radiación solar	0
64369	7	Sololá	701	Sololá	3	Barraneche	12	Diciembre	2023-02-12T00:00:00	2024-11-06T06:00:00	2	Temperatura media	9
64370	7	Sololá	701	Sololá	3	Barraneche	12	Diciembre	2023-02-12T00:00:00	2024-11-06T06:00:00	4	Temperatura máxima	9.8
64371	7	Sololá	701	Sololá	3	Barraneche	12	Diciembre	2023-02-12T00:00:00	2024-11-06T06:00:00	3	Temperatura mínima	8.9
64372	7	Sololá	701	Sololá	3	Barraneche	12	Diciembre	2023-02-12T00:00:00	2024-11-06T06:00:00	5	Humedad	53
64373	7	Sololá	701	Sololá	3	Barraneche	12	Diciembre	2023-02-12T00:00:00	2024-11-06T06:00:00	6	Velocidad del viento	11.3
64374	7	Sololá	701	Sololá	3	Barraneche	12	Diciembre	2023-02-12T00:00:00	2024-11-06T06:00:00	7	Dirección del viento	11.27
64375	7	Sololá	701	Sololá	3	Barraneche	12	Diciembre	2023-02-12T00:00:00	2024-11-06T06:00:00	1	Precipitación	0
64376	7	Sololá	701	Sololá	3	Barraneche	12	Diciembre	2023-02-12T00:00:00	2024-11-06T06:00:00	8	Radiación solar	0
64377	7	Sololá	701	Sololá	3	Barraneche	12	Diciembre	2023-02-12T00:00:00	2024-11-06T07:00:00	2	Temperatura media	10.3
64378	7	Sololá	701	Sololá	3	Barraneche	12	Diciembre	2023-02-12T00:00:00	2024-11-06T07:00:00	4	Temperatura máxima	10.3
64379	7	Sololá	701	Sololá	3	Barraneche	12	Diciembre	2023-02-12T00:00:00	2024-11-06T07:00:00	3	Temperatura mínima	8.9
64380	7	Sololá	701	Sololá	3	Barraneche	12	Diciembre	2023-02-12T00:00:00	2024-11-06T07:00:00	5	Humedad	48
64381	7	Sololá	701	Sololá	3	Barraneche	12	Diciembre	2023-02-12T00:00:00	2024-11-06T07:00:00	6	Velocidad del viento	9.7
64382	7	Sololá	701	Sololá	3	Barraneche	12	Diciembre	2023-02-12T00:00:00	2024-11-06T07:00:00	7	Dirección del viento	9.66
64383	7	Sololá	701	Sololá	3	Barraneche	12	Diciembre	2023-02-12T00:00:00	2024-11-06T07:00:00	1	Precipitación	0
64384	7	Sololá	701	Sololá	3	Barraneche	12	Diciembre	2023-02-12T00:00:00	2024-11-06T07:00:00	8	Radiación solar	20
64385	7	Sololá	701	Sololá	3	Barraneche	12	Diciembre	2023-02-12T00:00:00	2024-11-06T08:00:00	2	Temperatura media	15.3
64386	7	Sololá	701	Sololá	3	Barraneche	12	Diciembre	2023-02-12T00:00:00	2024-11-06T08:00:00	4	Temperatura máxima	15.3
64387	7	Sololá	701	Sololá	3	Barraneche	12	Diciembre	2023-02-12T00:00:00	2024-11-06T08:00:00	3	Temperatura mínima	10.3
64388	7	Sololá	701	Sololá	3	Barraneche	12	Diciembre	2023-02-12T00:00:00	2024-11-06T08:00:00	5	Humedad	41
64389	7	Sololá	701	Sololá	3	Barraneche	12	Diciembre	2023-02-12T00:00:00	2024-11-06T08:00:00	6	Velocidad del viento	6.4
64390	7	Sololá	701	Sololá	3	Barraneche	12	Diciembre	2023-02-12T00:00:00	2024-11-06T08:00:00	7	Dirección del viento	6.44
64391	7	Sololá	701	Sololá	3	Barraneche	12	Diciembre	2023-02-12T00:00:00	2024-11-06T08:00:00	1	Precipitación	0
64392	7	Sololá	701	Sololá	3	Barraneche	12	Diciembre	2023-02-12T00:00:00	2024-11-06T08:00:00	8	Radiación solar	243
64393	7	Sololá	701	Sololá	3	Barraneche	12	Diciembre	2023-02-12T00:00:00	2024-11-06T09:00:00	2	Temperatura media	18.7
64394	7	Sololá	701	Sololá	3	Barraneche	12	Diciembre	2023-02-12T00:00:00	2024-11-06T09:00:00	4	Temperatura máxima	18.7
64395	7	Sololá	701	Sololá	3	Barraneche	12	Diciembre	2023-02-12T00:00:00	2024-11-06T09:00:00	3	Temperatura mínima	15.3
64396	7	Sololá	701	Sololá	3	Barraneche	12	Diciembre	2023-02-12T00:00:00	2024-11-06T09:00:00	5	Humedad	36
64397	7	Sololá	701	Sololá	3	Barraneche	12	Diciembre	2023-02-12T00:00:00	2024-11-06T09:00:00	6	Velocidad del viento	3.2
64398	7	Sololá	701	Sololá	3	Barraneche	12	Diciembre	2023-02-12T00:00:00	2024-11-06T09:00:00	7	Dirección del viento	3.22
64399	7	Sololá	701	Sololá	3	Barraneche	12	Diciembre	2023-02-12T00:00:00	2024-11-06T09:00:00	1	Precipitación	0
64400	7	Sololá	701	Sololá	3	Barraneche	12	Diciembre	2023-02-12T00:00:00	2024-11-06T09:00:00	8	Radiación solar	478
64401	7	Sololá	701	Sololá	3	Barraneche	12	Diciembre	2023-02-12T00:00:00	2024-11-06T10:00:00	2	Temperatura media	20.7
64402	7	Sololá	701	Sololá	3	Barraneche	12	Diciembre	2023-02-12T00:00:00	2024-11-06T10:00:00	4	Temperatura máxima	20.7
64403	7	Sololá	701	Sololá	3	Barraneche	12	Diciembre	2023-02-12T00:00:00	2024-11-06T10:00:00	3	Temperatura mínima	18.4
64404	7	Sololá	701	Sololá	3	Barraneche	12	Diciembre	2023-02-12T00:00:00	2024-11-06T10:00:00	5	Humedad	25
64405	7	Sololá	701	Sololá	3	Barraneche	12	Diciembre	2023-02-12T00:00:00	2024-11-06T10:00:00	6	Velocidad del viento	6.4
64406	7	Sololá	701	Sololá	3	Barraneche	12	Diciembre	2023-02-12T00:00:00	2024-11-06T10:00:00	7	Dirección del viento	6.44
64407	7	Sololá	701	Sololá	3	Barraneche	12	Diciembre	2023-02-12T00:00:00	2024-11-06T10:00:00	1	Precipitación	0
64408	7	Sololá	701	Sololá	3	Barraneche	12	Diciembre	2023-02-12T00:00:00	2024-11-06T10:00:00	8	Radiación solar	673
64409	7	Sololá	701	Sololá	3	Barraneche	12	Diciembre	2023-02-12T00:00:00	2024-11-06T11:00:00	2	Temperatura media	20.1
64410	7	Sololá	701	Sololá	3	Barraneche	12	Diciembre	2023-02-12T00:00:00	2024-11-06T11:00:00	4	Temperatura máxima	20.8
64411	7	Sololá	701	Sololá	3	Barraneche	12	Diciembre	2023-02-12T00:00:00	2024-11-06T11:00:00	3	Temperatura mínima	20.1
64412	7	Sololá	701	Sololá	3	Barraneche	12	Diciembre	2023-02-12T00:00:00	2024-11-06T11:00:00	5	Humedad	43
64413	7	Sololá	701	Sololá	3	Barraneche	12	Diciembre	2023-02-12T00:00:00	2024-11-06T11:00:00	6	Velocidad del viento	14.5
64414	7	Sololá	701	Sololá	3	Barraneche	12	Diciembre	2023-02-12T00:00:00	2024-11-06T11:00:00	7	Dirección del viento	14.48
64415	7	Sololá	701	Sololá	3	Barraneche	12	Diciembre	2023-02-12T00:00:00	2024-11-06T11:00:00	1	Precipitación	0
64416	7	Sololá	701	Sololá	3	Barraneche	12	Diciembre	2023-02-12T00:00:00	2024-11-06T11:00:00	8	Radiación solar	806
64417	7	Sololá	701	Sololá	3	Barraneche	12	Diciembre	2023-02-12T00:00:00	2024-11-06T12:00:00	2	Temperatura media	19.8
64418	7	Sololá	701	Sololá	3	Barraneche	12	Diciembre	2023-02-12T00:00:00	2024-11-06T12:00:00	4	Temperatura máxima	20.7
64419	7	Sololá	701	Sololá	3	Barraneche	12	Diciembre	2023-02-12T00:00:00	2024-11-06T12:00:00	3	Temperatura mínima	19.7
64420	7	Sololá	701	Sololá	3	Barraneche	12	Diciembre	2023-02-12T00:00:00	2024-11-06T12:00:00	5	Humedad	45
64421	7	Sololá	701	Sololá	3	Barraneche	12	Diciembre	2023-02-12T00:00:00	2024-11-06T12:00:00	6	Velocidad del viento	16.1
64422	7	Sololá	701	Sololá	3	Barraneche	12	Diciembre	2023-02-12T00:00:00	2024-11-06T12:00:00	7	Dirección del viento	16.09
64423	7	Sololá	701	Sololá	3	Barraneche	12	Diciembre	2023-02-12T00:00:00	2024-11-06T12:00:00	1	Precipitación	0
64424	7	Sololá	701	Sololá	3	Barraneche	12	Diciembre	2023-02-12T00:00:00	2024-11-06T12:00:00	8	Radiación solar	865
64425	7	Sololá	701	Sololá	3	Barraneche	12	Diciembre	2023-02-12T00:00:00	2024-11-06T13:00:00	2	Temperatura media	20.2
64426	7	Sololá	701	Sololá	3	Barraneche	12	Diciembre	2023-02-12T00:00:00	2024-11-06T13:00:00	4	Temperatura máxima	20.2
64427	7	Sololá	701	Sololá	3	Barraneche	12	Diciembre	2023-02-12T00:00:00	2024-11-06T13:00:00	3	Temperatura mínima	19.6
64428	7	Sololá	701	Sololá	3	Barraneche	12	Diciembre	2023-02-12T00:00:00	2024-11-06T13:00:00	5	Humedad	40
64429	7	Sololá	701	Sololá	3	Barraneche	12	Diciembre	2023-02-12T00:00:00	2024-11-06T13:00:00	6	Velocidad del viento	14.5
64430	7	Sololá	701	Sololá	3	Barraneche	12	Diciembre	2023-02-12T00:00:00	2024-11-06T13:00:00	7	Dirección del viento	14.48
64431	7	Sololá	701	Sololá	3	Barraneche	12	Diciembre	2023-02-12T00:00:00	2024-11-06T13:00:00	1	Precipitación	0
64432	7	Sololá	701	Sololá	3	Barraneche	12	Diciembre	2023-02-12T00:00:00	2024-11-06T13:00:00	8	Radiación solar	838
64433	7	Sololá	701	Sololá	3	Barraneche	12	Diciembre	2023-02-12T00:00:00	2024-11-06T14:00:00	2	Temperatura media	20.7
64434	7	Sololá	701	Sololá	3	Barraneche	12	Diciembre	2023-02-12T00:00:00	2024-11-06T14:00:00	4	Temperatura máxima	20.8
64435	7	Sololá	701	Sololá	3	Barraneche	12	Diciembre	2023-02-12T00:00:00	2024-11-06T14:00:00	3	Temperatura mínima	20.2
64436	7	Sololá	701	Sololá	3	Barraneche	12	Diciembre	2023-02-12T00:00:00	2024-11-06T14:00:00	5	Humedad	42
64437	7	Sololá	701	Sololá	3	Barraneche	12	Diciembre	2023-02-12T00:00:00	2024-11-06T14:00:00	6	Velocidad del viento	11.3
64438	7	Sololá	701	Sololá	3	Barraneche	12	Diciembre	2023-02-12T00:00:00	2024-11-06T14:00:00	7	Dirección del viento	11.27
64439	7	Sololá	701	Sololá	3	Barraneche	12	Diciembre	2023-02-12T00:00:00	2024-11-06T14:00:00	1	Precipitación	0
64440	7	Sololá	701	Sololá	3	Barraneche	12	Diciembre	2023-02-12T00:00:00	2024-11-06T14:00:00	8	Radiación solar	756
64441	7	Sololá	701	Sololá	3	Barraneche	12	Diciembre	2023-02-12T00:00:00	2024-11-06T15:00:00	2	Temperatura media	19.9
64442	7	Sololá	701	Sololá	3	Barraneche	12	Diciembre	2023-02-12T00:00:00	2024-11-06T15:00:00	4	Temperatura máxima	20.7
64443	7	Sololá	701	Sololá	3	Barraneche	12	Diciembre	2023-02-12T00:00:00	2024-11-06T15:00:00	3	Temperatura mínima	19.8
64444	7	Sololá	701	Sololá	3	Barraneche	12	Diciembre	2023-02-12T00:00:00	2024-11-06T15:00:00	5	Humedad	50
64445	7	Sololá	701	Sololá	3	Barraneche	12	Diciembre	2023-02-12T00:00:00	2024-11-06T15:00:00	6	Velocidad del viento	11.3
64446	7	Sololá	701	Sololá	3	Barraneche	12	Diciembre	2023-02-12T00:00:00	2024-11-06T15:00:00	7	Dirección del viento	11.27
64447	7	Sololá	701	Sololá	3	Barraneche	12	Diciembre	2023-02-12T00:00:00	2024-11-06T15:00:00	1	Precipitación	0
64448	7	Sololá	701	Sololá	3	Barraneche	12	Diciembre	2023-02-12T00:00:00	2024-11-06T15:00:00	8	Radiación solar	606
64449	7	Sololá	701	Sololá	3	Barraneche	12	Diciembre	2023-02-12T00:00:00	2024-11-06T16:00:00	2	Temperatura media	19
64450	7	Sololá	701	Sololá	3	Barraneche	12	Diciembre	2023-02-12T00:00:00	2024-11-06T16:00:00	4	Temperatura máxima	19.9
64451	7	Sololá	701	Sololá	3	Barraneche	12	Diciembre	2023-02-12T00:00:00	2024-11-06T16:00:00	3	Temperatura mínima	18.5
64452	7	Sololá	701	Sololá	3	Barraneche	12	Diciembre	2023-02-12T00:00:00	2024-11-06T16:00:00	5	Humedad	62
64453	7	Sololá	701	Sololá	3	Barraneche	12	Diciembre	2023-02-12T00:00:00	2024-11-06T16:00:00	6	Velocidad del viento	9.7
64454	7	Sololá	701	Sololá	3	Barraneche	12	Diciembre	2023-02-12T00:00:00	2024-11-06T16:00:00	7	Dirección del viento	9.66
64455	7	Sololá	701	Sololá	3	Barraneche	12	Diciembre	2023-02-12T00:00:00	2024-11-06T16:00:00	1	Precipitación	0
64456	7	Sololá	701	Sololá	3	Barraneche	12	Diciembre	2023-02-12T00:00:00	2024-11-06T16:00:00	8	Radiación solar	397
64457	7	Sololá	701	Sololá	3	Barraneche	12	Diciembre	2023-02-12T00:00:00	2024-11-06T17:00:00	2	Temperatura media	17.3
64458	7	Sololá	701	Sololá	3	Barraneche	12	Diciembre	2023-02-12T00:00:00	2024-11-06T17:00:00	4	Temperatura máxima	19
64459	7	Sololá	701	Sololá	3	Barraneche	12	Diciembre	2023-02-12T00:00:00	2024-11-06T17:00:00	3	Temperatura mínima	17.3
64460	7	Sololá	701	Sololá	3	Barraneche	12	Diciembre	2023-02-12T00:00:00	2024-11-06T17:00:00	5	Humedad	69
64461	7	Sololá	701	Sololá	3	Barraneche	12	Diciembre	2023-02-12T00:00:00	2024-11-06T17:00:00	6	Velocidad del viento	6.4
64462	7	Sololá	701	Sololá	3	Barraneche	12	Diciembre	2023-02-12T00:00:00	2024-11-06T17:00:00	7	Dirección del viento	6.44
64463	7	Sololá	701	Sololá	3	Barraneche	12	Diciembre	2023-02-12T00:00:00	2024-11-06T17:00:00	1	Precipitación	0
64464	7	Sololá	701	Sololá	3	Barraneche	12	Diciembre	2023-02-12T00:00:00	2024-11-06T17:00:00	8	Radiación solar	160
64465	7	Sololá	701	Sololá	3	Barraneche	12	Diciembre	2023-02-12T00:00:00	2024-11-06T18:00:00	2	Temperatura media	13.9
64466	7	Sololá	701	Sololá	3	Barraneche	12	Diciembre	2023-02-12T00:00:00	2024-11-06T18:00:00	4	Temperatura máxima	17.3
64467	7	Sololá	701	Sololá	3	Barraneche	12	Diciembre	2023-02-12T00:00:00	2024-11-06T18:00:00	3	Temperatura mínima	13.9
64468	7	Sololá	701	Sololá	3	Barraneche	12	Diciembre	2023-02-12T00:00:00	2024-11-06T18:00:00	5	Humedad	63
64469	7	Sololá	701	Sololá	3	Barraneche	12	Diciembre	2023-02-12T00:00:00	2024-11-06T18:00:00	6	Velocidad del viento	3.2
64470	7	Sololá	701	Sololá	3	Barraneche	12	Diciembre	2023-02-12T00:00:00	2024-11-06T18:00:00	7	Dirección del viento	3.22
64471	7	Sololá	701	Sololá	3	Barraneche	12	Diciembre	2023-02-12T00:00:00	2024-11-06T18:00:00	1	Precipitación	0
64472	7	Sololá	701	Sololá	3	Barraneche	12	Diciembre	2023-02-12T00:00:00	2024-11-06T18:00:00	8	Radiación solar	13
64473	7	Sololá	701	Sololá	3	Barraneche	12	Diciembre	2023-02-12T00:00:00	2024-11-06T19:00:00	2	Temperatura media	12.1
64474	7	Sololá	701	Sololá	3	Barraneche	12	Diciembre	2023-02-12T00:00:00	2024-11-06T19:00:00	4	Temperatura máxima	13.9
64475	7	Sololá	701	Sololá	3	Barraneche	12	Diciembre	2023-02-12T00:00:00	2024-11-06T19:00:00	3	Temperatura mínima	11.9
64476	7	Sololá	701	Sololá	3	Barraneche	12	Diciembre	2023-02-12T00:00:00	2024-11-06T19:00:00	5	Humedad	52
64477	7	Sololá	701	Sololá	3	Barraneche	12	Diciembre	2023-02-12T00:00:00	2024-11-06T19:00:00	6	Velocidad del viento	6.4
64478	7	Sololá	701	Sololá	3	Barraneche	12	Diciembre	2023-02-12T00:00:00	2024-11-06T19:00:00	7	Dirección del viento	6.44
64479	7	Sololá	701	Sololá	3	Barraneche	12	Diciembre	2023-02-12T00:00:00	2024-11-06T19:00:00	1	Precipitación	0
64480	7	Sololá	701	Sololá	3	Barraneche	12	Diciembre	2023-02-12T00:00:00	2024-11-06T19:00:00	8	Radiación solar	0
64481	7	Sololá	701	Sololá	3	Barraneche	12	Diciembre	2023-02-12T00:00:00	2024-11-06T20:00:00	2	Temperatura media	11.8
64482	7	Sololá	701	Sololá	3	Barraneche	12	Diciembre	2023-02-12T00:00:00	2024-11-06T20:00:00	4	Temperatura máxima	12.3
64483	7	Sololá	701	Sololá	3	Barraneche	12	Diciembre	2023-02-12T00:00:00	2024-11-06T20:00:00	3	Temperatura mínima	11.7
64484	7	Sololá	701	Sololá	3	Barraneche	12	Diciembre	2023-02-12T00:00:00	2024-11-06T20:00:00	5	Humedad	51
64485	7	Sololá	701	Sololá	3	Barraneche	12	Diciembre	2023-02-12T00:00:00	2024-11-06T20:00:00	6	Velocidad del viento	6.4
64486	7	Sololá	701	Sololá	3	Barraneche	12	Diciembre	2023-02-12T00:00:00	2024-11-06T20:00:00	7	Dirección del viento	6.44
64487	7	Sololá	701	Sololá	3	Barraneche	12	Diciembre	2023-02-12T00:00:00	2024-11-06T20:00:00	1	Precipitación	0
64488	7	Sololá	701	Sololá	3	Barraneche	12	Diciembre	2023-02-12T00:00:00	2024-11-06T20:00:00	8	Radiación solar	0
64489	7	Sololá	701	Sololá	3	Barraneche	12	Diciembre	2023-02-12T00:00:00	2024-11-06T21:00:00	2	Temperatura media	12.8
64490	7	Sololá	701	Sololá	3	Barraneche	12	Diciembre	2023-02-12T00:00:00	2024-11-06T21:00:00	4	Temperatura máxima	12.9
64491	7	Sololá	701	Sololá	3	Barraneche	12	Diciembre	2023-02-12T00:00:00	2024-11-06T21:00:00	3	Temperatura mínima	11.8
64492	7	Sololá	701	Sololá	3	Barraneche	12	Diciembre	2023-02-12T00:00:00	2024-11-06T21:00:00	5	Humedad	58
64493	7	Sololá	701	Sololá	3	Barraneche	12	Diciembre	2023-02-12T00:00:00	2024-11-06T21:00:00	6	Velocidad del viento	6.4
64494	7	Sololá	701	Sololá	3	Barraneche	12	Diciembre	2023-02-12T00:00:00	2024-11-06T21:00:00	7	Dirección del viento	6.44
64495	7	Sololá	701	Sololá	3	Barraneche	12	Diciembre	2023-02-12T00:00:00	2024-11-06T21:00:00	1	Precipitación	0
64496	7	Sololá	701	Sololá	3	Barraneche	12	Diciembre	2023-02-12T00:00:00	2024-11-06T21:00:00	8	Radiación solar	0
64497	7	Sololá	701	Sololá	3	Barraneche	12	Diciembre	2023-02-12T00:00:00	2024-11-06T22:00:00	2	Temperatura media	11.9
64498	7	Sololá	701	Sololá	3	Barraneche	12	Diciembre	2023-02-12T00:00:00	2024-11-06T22:00:00	4	Temperatura máxima	13
64499	7	Sololá	701	Sololá	3	Barraneche	12	Diciembre	2023-02-12T00:00:00	2024-11-06T22:00:00	3	Temperatura mínima	11.9
64500	7	Sololá	701	Sololá	3	Barraneche	12	Diciembre	2023-02-12T00:00:00	2024-11-06T22:00:00	5	Humedad	46
64501	7	Sololá	701	Sololá	3	Barraneche	12	Diciembre	2023-02-12T00:00:00	2024-11-06T22:00:00	6	Velocidad del viento	9.7
64502	7	Sololá	701	Sololá	3	Barraneche	12	Diciembre	2023-02-12T00:00:00	2024-11-06T22:00:00	7	Dirección del viento	9.66
64503	7	Sololá	701	Sololá	3	Barraneche	12	Diciembre	2023-02-12T00:00:00	2024-11-06T22:00:00	1	Precipitación	0
64504	7	Sololá	701	Sololá	3	Barraneche	12	Diciembre	2023-02-12T00:00:00	2024-11-06T22:00:00	8	Radiación solar	0
64505	7	Sololá	701	Sololá	3	Barraneche	12	Diciembre	2023-02-12T00:00:00	2024-11-06T23:00:00	2	Temperatura media	10.6
64506	7	Sololá	701	Sololá	3	Barraneche	12	Diciembre	2023-02-12T00:00:00	2024-11-06T23:00:00	4	Temperatura máxima	11.9
64507	7	Sololá	701	Sololá	3	Barraneche	12	Diciembre	2023-02-12T00:00:00	2024-11-06T23:00:00	3	Temperatura mínima	10.4
64508	7	Sololá	701	Sololá	3	Barraneche	12	Diciembre	2023-02-12T00:00:00	2024-11-06T23:00:00	5	Humedad	49
64509	7	Sololá	701	Sololá	3	Barraneche	12	Diciembre	2023-02-12T00:00:00	2024-11-06T23:00:00	6	Velocidad del viento	6.4
64510	7	Sololá	701	Sololá	3	Barraneche	12	Diciembre	2023-02-12T00:00:00	2024-11-06T23:00:00	7	Dirección del viento	6.44
64511	7	Sololá	701	Sololá	3	Barraneche	12	Diciembre	2023-02-12T00:00:00	2024-11-06T23:00:00	1	Precipitación	0
64512	7	Sololá	701	Sololá	3	Barraneche	12	Diciembre	2023-02-12T00:00:00	2024-11-06T23:00:00	8	Radiación solar	0
64513	7	Sololá	701	Sololá	3	Barraneche	12	Diciembre	2023-03-12T00:00:00	2024-11-06T00:00:00	2	Temperatura media	10.2
64514	7	Sololá	701	Sololá	3	Barraneche	12	Diciembre	2023-03-12T00:00:00	2024-11-06T00:00:00	4	Temperatura máxima	10.7
64515	7	Sololá	701	Sololá	3	Barraneche	12	Diciembre	2023-03-12T00:00:00	2024-11-06T00:00:00	3	Temperatura mínima	10.1
64516	7	Sololá	701	Sololá	3	Barraneche	12	Diciembre	2023-03-12T00:00:00	2024-11-06T00:00:00	5	Humedad	43
64517	7	Sololá	701	Sololá	3	Barraneche	12	Diciembre	2023-03-12T00:00:00	2024-11-06T00:00:00	6	Velocidad del viento	8
64518	7	Sololá	701	Sololá	3	Barraneche	12	Diciembre	2023-03-12T00:00:00	2024-11-06T00:00:00	7	Dirección del viento	8.05
64519	7	Sololá	701	Sololá	3	Barraneche	12	Diciembre	2023-03-12T00:00:00	2024-11-06T00:00:00	1	Precipitación	0
64520	7	Sololá	701	Sololá	3	Barraneche	12	Diciembre	2023-03-12T00:00:00	2024-11-06T00:00:00	8	Radiación solar	0
64521	7	Sololá	701	Sololá	3	Barraneche	12	Diciembre	2023-03-12T00:00:00	2024-11-06T01:00:00	2	Temperatura media	9.6
64522	7	Sololá	701	Sololá	3	Barraneche	12	Diciembre	2023-03-12T00:00:00	2024-11-06T01:00:00	4	Temperatura máxima	10.3
64523	7	Sololá	701	Sololá	3	Barraneche	12	Diciembre	2023-03-12T00:00:00	2024-11-06T01:00:00	3	Temperatura mínima	9.6
64524	7	Sololá	701	Sololá	3	Barraneche	12	Diciembre	2023-03-12T00:00:00	2024-11-06T01:00:00	5	Humedad	46
64525	7	Sololá	701	Sololá	3	Barraneche	12	Diciembre	2023-03-12T00:00:00	2024-11-06T01:00:00	6	Velocidad del viento	8
64526	7	Sololá	701	Sololá	3	Barraneche	12	Diciembre	2023-03-12T00:00:00	2024-11-06T01:00:00	7	Dirección del viento	8.05
64527	7	Sololá	701	Sololá	3	Barraneche	12	Diciembre	2023-03-12T00:00:00	2024-11-06T01:00:00	1	Precipitación	0
64528	7	Sololá	701	Sololá	3	Barraneche	12	Diciembre	2023-03-12T00:00:00	2024-11-06T01:00:00	8	Radiación solar	0
64529	7	Sololá	701	Sololá	3	Barraneche	12	Diciembre	2023-03-12T00:00:00	2024-11-06T02:00:00	2	Temperatura media	10.9
64530	7	Sololá	701	Sololá	3	Barraneche	12	Diciembre	2023-03-12T00:00:00	2024-11-06T02:00:00	4	Temperatura máxima	10.9
64531	7	Sololá	701	Sololá	3	Barraneche	12	Diciembre	2023-03-12T00:00:00	2024-11-06T02:00:00	3	Temperatura mínima	9.6
64532	7	Sololá	701	Sololá	3	Barraneche	12	Diciembre	2023-03-12T00:00:00	2024-11-06T02:00:00	5	Humedad	46
64533	7	Sololá	701	Sololá	3	Barraneche	12	Diciembre	2023-03-12T00:00:00	2024-11-06T02:00:00	6	Velocidad del viento	9.7
64534	7	Sololá	701	Sololá	3	Barraneche	12	Diciembre	2023-03-12T00:00:00	2024-11-06T02:00:00	7	Dirección del viento	9.66
64535	7	Sololá	701	Sololá	3	Barraneche	12	Diciembre	2023-03-12T00:00:00	2024-11-06T02:00:00	1	Precipitación	0
64536	7	Sololá	701	Sololá	3	Barraneche	12	Diciembre	2023-03-12T00:00:00	2024-11-06T02:00:00	8	Radiación solar	0
64537	7	Sololá	701	Sololá	3	Barraneche	12	Diciembre	2023-03-12T00:00:00	2024-11-06T03:00:00	2	Temperatura media	9.8
64538	7	Sololá	701	Sololá	3	Barraneche	12	Diciembre	2023-03-12T00:00:00	2024-11-06T03:00:00	4	Temperatura máxima	11
64539	7	Sololá	701	Sololá	3	Barraneche	12	Diciembre	2023-03-12T00:00:00	2024-11-06T03:00:00	3	Temperatura mínima	9.8
64540	7	Sololá	701	Sololá	3	Barraneche	12	Diciembre	2023-03-12T00:00:00	2024-11-06T03:00:00	5	Humedad	49
64541	7	Sololá	701	Sololá	3	Barraneche	12	Diciembre	2023-03-12T00:00:00	2024-11-06T03:00:00	6	Velocidad del viento	6.4
64542	7	Sololá	701	Sololá	3	Barraneche	12	Diciembre	2023-03-12T00:00:00	2024-11-06T03:00:00	7	Dirección del viento	6.44
64543	7	Sololá	701	Sololá	3	Barraneche	12	Diciembre	2023-03-12T00:00:00	2024-11-06T03:00:00	1	Precipitación	0
64544	7	Sololá	701	Sololá	3	Barraneche	12	Diciembre	2023-03-12T00:00:00	2024-11-06T03:00:00	8	Radiación solar	0
64545	7	Sololá	701	Sololá	3	Barraneche	12	Diciembre	2023-03-12T00:00:00	2024-11-06T04:00:00	2	Temperatura media	9.4
64546	7	Sololá	701	Sololá	3	Barraneche	12	Diciembre	2023-03-12T00:00:00	2024-11-06T04:00:00	4	Temperatura máxima	11.1
64547	7	Sololá	701	Sololá	3	Barraneche	12	Diciembre	2023-03-12T00:00:00	2024-11-06T04:00:00	3	Temperatura mínima	9.2
64548	7	Sololá	701	Sololá	3	Barraneche	12	Diciembre	2023-03-12T00:00:00	2024-11-06T04:00:00	5	Humedad	50
64549	7	Sololá	701	Sololá	3	Barraneche	12	Diciembre	2023-03-12T00:00:00	2024-11-06T04:00:00	6	Velocidad del viento	6.4
64550	7	Sololá	701	Sololá	3	Barraneche	12	Diciembre	2023-03-12T00:00:00	2024-11-06T04:00:00	7	Dirección del viento	6.44
64551	7	Sololá	701	Sololá	3	Barraneche	12	Diciembre	2023-03-12T00:00:00	2024-11-06T04:00:00	1	Precipitación	0
64552	7	Sololá	701	Sololá	3	Barraneche	12	Diciembre	2023-03-12T00:00:00	2024-11-06T04:00:00	8	Radiación solar	0
64553	7	Sololá	701	Sololá	3	Barraneche	12	Diciembre	2023-03-12T00:00:00	2024-11-06T05:00:00	2	Temperatura media	9.7
64554	7	Sololá	701	Sololá	3	Barraneche	12	Diciembre	2023-03-12T00:00:00	2024-11-06T05:00:00	4	Temperatura máxima	9.8
64555	7	Sololá	701	Sololá	3	Barraneche	12	Diciembre	2023-03-12T00:00:00	2024-11-06T05:00:00	3	Temperatura mínima	9.1
64556	7	Sololá	701	Sololá	3	Barraneche	12	Diciembre	2023-03-12T00:00:00	2024-11-06T05:00:00	5	Humedad	48
64557	7	Sololá	701	Sololá	3	Barraneche	12	Diciembre	2023-03-12T00:00:00	2024-11-06T05:00:00	6	Velocidad del viento	6.4
64558	7	Sololá	701	Sololá	3	Barraneche	12	Diciembre	2023-03-12T00:00:00	2024-11-06T05:00:00	7	Dirección del viento	6.44
64559	7	Sololá	701	Sololá	3	Barraneche	12	Diciembre	2023-03-12T00:00:00	2024-11-06T05:00:00	1	Precipitación	0
64560	7	Sololá	701	Sololá	3	Barraneche	12	Diciembre	2023-03-12T00:00:00	2024-11-06T05:00:00	8	Radiación solar	0
64561	7	Sololá	701	Sololá	3	Barraneche	12	Diciembre	2023-03-12T00:00:00	2024-11-06T06:00:00	2	Temperatura media	9.4
64562	7	Sololá	701	Sololá	3	Barraneche	12	Diciembre	2023-03-12T00:00:00	2024-11-06T06:00:00	4	Temperatura máxima	9.9
64563	7	Sololá	701	Sololá	3	Barraneche	12	Diciembre	2023-03-12T00:00:00	2024-11-06T06:00:00	3	Temperatura mínima	8.8
64564	7	Sololá	701	Sololá	3	Barraneche	12	Diciembre	2023-03-12T00:00:00	2024-11-06T06:00:00	5	Humedad	48
64565	7	Sololá	701	Sololá	3	Barraneche	12	Diciembre	2023-03-12T00:00:00	2024-11-06T06:00:00	6	Velocidad del viento	6.4
64566	7	Sololá	701	Sololá	3	Barraneche	12	Diciembre	2023-03-12T00:00:00	2024-11-06T06:00:00	7	Dirección del viento	6.44
64567	7	Sololá	701	Sololá	3	Barraneche	12	Diciembre	2023-03-12T00:00:00	2024-11-06T06:00:00	1	Precipitación	0
64568	7	Sololá	701	Sololá	3	Barraneche	12	Diciembre	2023-03-12T00:00:00	2024-11-06T06:00:00	8	Radiación solar	0
64569	7	Sololá	701	Sololá	3	Barraneche	12	Diciembre	2023-03-12T00:00:00	2024-11-06T07:00:00	2	Temperatura media	10.5
64570	7	Sololá	701	Sololá	3	Barraneche	12	Diciembre	2023-03-12T00:00:00	2024-11-06T07:00:00	4	Temperatura máxima	10.5
64571	7	Sololá	701	Sololá	3	Barraneche	12	Diciembre	2023-03-12T00:00:00	2024-11-06T07:00:00	3	Temperatura mínima	9.1
64572	7	Sololá	701	Sololá	3	Barraneche	12	Diciembre	2023-03-12T00:00:00	2024-11-06T07:00:00	5	Humedad	49
64573	7	Sololá	701	Sololá	3	Barraneche	12	Diciembre	2023-03-12T00:00:00	2024-11-06T07:00:00	6	Velocidad del viento	6.4
64574	7	Sololá	701	Sololá	3	Barraneche	12	Diciembre	2023-03-12T00:00:00	2024-11-06T07:00:00	7	Dirección del viento	6.44
64575	7	Sololá	701	Sololá	3	Barraneche	12	Diciembre	2023-03-12T00:00:00	2024-11-06T07:00:00	1	Precipitación	0
64576	7	Sololá	701	Sololá	3	Barraneche	12	Diciembre	2023-03-12T00:00:00	2024-11-06T07:00:00	8	Radiación solar	18
64577	7	Sololá	701	Sololá	3	Barraneche	12	Diciembre	2023-03-12T00:00:00	2024-11-06T08:00:00	2	Temperatura media	15.5
64578	7	Sololá	701	Sololá	3	Barraneche	12	Diciembre	2023-03-12T00:00:00	2024-11-06T08:00:00	4	Temperatura máxima	15.5
64579	7	Sololá	701	Sololá	3	Barraneche	12	Diciembre	2023-03-12T00:00:00	2024-11-06T08:00:00	3	Temperatura mínima	10.5
64580	7	Sololá	701	Sololá	3	Barraneche	12	Diciembre	2023-03-12T00:00:00	2024-11-06T08:00:00	5	Humedad	45
64581	7	Sololá	701	Sololá	3	Barraneche	12	Diciembre	2023-03-12T00:00:00	2024-11-06T08:00:00	6	Velocidad del viento	3.2
64582	7	Sololá	701	Sololá	3	Barraneche	12	Diciembre	2023-03-12T00:00:00	2024-11-06T08:00:00	7	Dirección del viento	3.22
64583	7	Sololá	701	Sololá	3	Barraneche	12	Diciembre	2023-03-12T00:00:00	2024-11-06T08:00:00	1	Precipitación	0
64584	7	Sololá	701	Sololá	3	Barraneche	12	Diciembre	2023-03-12T00:00:00	2024-11-06T08:00:00	8	Radiación solar	231
64585	7	Sololá	701	Sololá	3	Barraneche	12	Diciembre	2023-03-12T00:00:00	2024-11-06T09:00:00	2	Temperatura media	17.4
64586	7	Sololá	701	Sololá	3	Barraneche	12	Diciembre	2023-03-12T00:00:00	2024-11-06T09:00:00	4	Temperatura máxima	17.6
64587	7	Sololá	701	Sololá	3	Barraneche	12	Diciembre	2023-03-12T00:00:00	2024-11-06T09:00:00	3	Temperatura mínima	15.5
64588	7	Sololá	701	Sololá	3	Barraneche	12	Diciembre	2023-03-12T00:00:00	2024-11-06T09:00:00	5	Humedad	44
64589	7	Sololá	701	Sololá	3	Barraneche	12	Diciembre	2023-03-12T00:00:00	2024-11-06T09:00:00	6	Velocidad del viento	11.3
64590	7	Sololá	701	Sololá	3	Barraneche	12	Diciembre	2023-03-12T00:00:00	2024-11-06T09:00:00	7	Dirección del viento	11.27
64591	7	Sololá	701	Sololá	3	Barraneche	12	Diciembre	2023-03-12T00:00:00	2024-11-06T09:00:00	1	Precipitación	0
64592	7	Sololá	701	Sololá	3	Barraneche	12	Diciembre	2023-03-12T00:00:00	2024-11-06T09:00:00	8	Radiación solar	478
64593	7	Sololá	701	Sololá	3	Barraneche	12	Diciembre	2023-03-12T00:00:00	2024-11-06T10:00:00	2	Temperatura media	18.3
64594	7	Sololá	701	Sololá	3	Barraneche	12	Diciembre	2023-03-12T00:00:00	2024-11-06T10:00:00	4	Temperatura máxima	18.4
64595	7	Sololá	701	Sololá	3	Barraneche	12	Diciembre	2023-03-12T00:00:00	2024-11-06T10:00:00	3	Temperatura mínima	17.4
64596	7	Sololá	701	Sololá	3	Barraneche	12	Diciembre	2023-03-12T00:00:00	2024-11-06T10:00:00	5	Humedad	46
64597	7	Sololá	701	Sololá	3	Barraneche	12	Diciembre	2023-03-12T00:00:00	2024-11-06T10:00:00	6	Velocidad del viento	14.5
64598	7	Sololá	701	Sololá	3	Barraneche	12	Diciembre	2023-03-12T00:00:00	2024-11-06T10:00:00	7	Dirección del viento	14.48
64599	7	Sololá	701	Sololá	3	Barraneche	12	Diciembre	2023-03-12T00:00:00	2024-11-06T10:00:00	1	Precipitación	0
64600	7	Sololá	701	Sololá	3	Barraneche	12	Diciembre	2023-03-12T00:00:00	2024-11-06T10:00:00	8	Radiación solar	661
64601	7	Sololá	701	Sololá	3	Barraneche	12	Diciembre	2023-03-12T00:00:00	2024-11-06T11:00:00	2	Temperatura media	18.9
64602	7	Sololá	701	Sololá	3	Barraneche	12	Diciembre	2023-03-12T00:00:00	2024-11-06T11:00:00	4	Temperatura máxima	19.3
64603	7	Sololá	701	Sololá	3	Barraneche	12	Diciembre	2023-03-12T00:00:00	2024-11-06T11:00:00	3	Temperatura mínima	18.3
64604	7	Sololá	701	Sololá	3	Barraneche	12	Diciembre	2023-03-12T00:00:00	2024-11-06T11:00:00	5	Humedad	48
64605	7	Sololá	701	Sololá	3	Barraneche	12	Diciembre	2023-03-12T00:00:00	2024-11-06T11:00:00	6	Velocidad del viento	14.5
64606	7	Sololá	701	Sololá	3	Barraneche	12	Diciembre	2023-03-12T00:00:00	2024-11-06T11:00:00	7	Dirección del viento	14.48
64607	7	Sololá	701	Sololá	3	Barraneche	12	Diciembre	2023-03-12T00:00:00	2024-11-06T11:00:00	1	Precipitación	0
64608	7	Sololá	701	Sololá	3	Barraneche	12	Diciembre	2023-03-12T00:00:00	2024-11-06T11:00:00	8	Radiación solar	792
64609	7	Sololá	701	Sololá	3	Barraneche	12	Diciembre	2023-03-12T00:00:00	2024-11-06T12:00:00	2	Temperatura media	19.8
64610	7	Sololá	701	Sololá	3	Barraneche	12	Diciembre	2023-03-12T00:00:00	2024-11-06T12:00:00	4	Temperatura máxima	20.2
64611	7	Sololá	701	Sololá	3	Barraneche	12	Diciembre	2023-03-12T00:00:00	2024-11-06T12:00:00	3	Temperatura mínima	18.9
64612	7	Sololá	701	Sololá	3	Barraneche	12	Diciembre	2023-03-12T00:00:00	2024-11-06T12:00:00	5	Humedad	46
64613	7	Sololá	701	Sololá	3	Barraneche	12	Diciembre	2023-03-12T00:00:00	2024-11-06T12:00:00	6	Velocidad del viento	16.1
64614	7	Sololá	701	Sololá	3	Barraneche	12	Diciembre	2023-03-12T00:00:00	2024-11-06T12:00:00	7	Dirección del viento	16.09
64615	7	Sololá	701	Sololá	3	Barraneche	12	Diciembre	2023-03-12T00:00:00	2024-11-06T12:00:00	1	Precipitación	0
64616	7	Sololá	701	Sololá	3	Barraneche	12	Diciembre	2023-03-12T00:00:00	2024-11-06T12:00:00	8	Radiación solar	859
64617	7	Sololá	701	Sololá	3	Barraneche	12	Diciembre	2023-03-12T00:00:00	2024-11-06T13:00:00	2	Temperatura media	19.3
64618	7	Sololá	701	Sololá	3	Barraneche	12	Diciembre	2023-03-12T00:00:00	2024-11-06T13:00:00	4	Temperatura máxima	20.1
64619	7	Sololá	701	Sololá	3	Barraneche	12	Diciembre	2023-03-12T00:00:00	2024-11-06T13:00:00	3	Temperatura mínima	19.3
64620	7	Sololá	701	Sololá	3	Barraneche	12	Diciembre	2023-03-12T00:00:00	2024-11-06T13:00:00	5	Humedad	46
64621	7	Sololá	701	Sololá	3	Barraneche	12	Diciembre	2023-03-12T00:00:00	2024-11-06T13:00:00	6	Velocidad del viento	16.1
64622	7	Sololá	701	Sololá	3	Barraneche	12	Diciembre	2023-03-12T00:00:00	2024-11-06T13:00:00	7	Dirección del viento	16.09
64623	7	Sololá	701	Sololá	3	Barraneche	12	Diciembre	2023-03-12T00:00:00	2024-11-06T13:00:00	1	Precipitación	0
64624	7	Sololá	701	Sololá	3	Barraneche	12	Diciembre	2023-03-12T00:00:00	2024-11-06T13:00:00	8	Radiación solar	847
64625	7	Sololá	701	Sololá	3	Barraneche	12	Diciembre	2023-03-12T00:00:00	2024-11-06T14:00:00	2	Temperatura media	18.9
64626	7	Sololá	701	Sololá	3	Barraneche	12	Diciembre	2023-03-12T00:00:00	2024-11-06T14:00:00	4	Temperatura máxima	20.1
64627	7	Sololá	701	Sololá	3	Barraneche	12	Diciembre	2023-03-12T00:00:00	2024-11-06T14:00:00	3	Temperatura mínima	18.8
64628	7	Sololá	701	Sololá	3	Barraneche	12	Diciembre	2023-03-12T00:00:00	2024-11-06T14:00:00	5	Humedad	45
64629	7	Sololá	701	Sololá	3	Barraneche	12	Diciembre	2023-03-12T00:00:00	2024-11-06T14:00:00	6	Velocidad del viento	16.1
64630	7	Sololá	701	Sololá	3	Barraneche	12	Diciembre	2023-03-12T00:00:00	2024-11-06T14:00:00	7	Dirección del viento	16.09
64631	7	Sololá	701	Sololá	3	Barraneche	12	Diciembre	2023-03-12T00:00:00	2024-11-06T14:00:00	1	Precipitación	0
64632	7	Sololá	701	Sololá	3	Barraneche	12	Diciembre	2023-03-12T00:00:00	2024-11-06T14:00:00	8	Radiación solar	769
64633	7	Sololá	701	Sololá	3	Barraneche	12	Diciembre	2023-03-12T00:00:00	2024-11-06T15:00:00	2	Temperatura media	18.6
64634	7	Sololá	701	Sololá	3	Barraneche	12	Diciembre	2023-03-12T00:00:00	2024-11-06T15:00:00	4	Temperatura máxima	19.3
64635	7	Sololá	701	Sololá	3	Barraneche	12	Diciembre	2023-03-12T00:00:00	2024-11-06T15:00:00	3	Temperatura mínima	18.6
64636	7	Sololá	701	Sololá	3	Barraneche	12	Diciembre	2023-03-12T00:00:00	2024-11-06T15:00:00	5	Humedad	48
64637	7	Sololá	701	Sololá	3	Barraneche	12	Diciembre	2023-03-12T00:00:00	2024-11-06T15:00:00	6	Velocidad del viento	14.5
64638	7	Sololá	701	Sololá	3	Barraneche	12	Diciembre	2023-03-12T00:00:00	2024-11-06T15:00:00	7	Dirección del viento	14.48
64639	7	Sololá	701	Sololá	3	Barraneche	12	Diciembre	2023-03-12T00:00:00	2024-11-06T15:00:00	1	Precipitación	0
64640	7	Sololá	701	Sololá	3	Barraneche	12	Diciembre	2023-03-12T00:00:00	2024-11-06T15:00:00	8	Radiación solar	634
64641	7	Sololá	701	Sololá	3	Barraneche	12	Diciembre	2023-03-12T00:00:00	2024-11-06T16:00:00	2	Temperatura media	17.9
64642	7	Sololá	701	Sololá	3	Barraneche	12	Diciembre	2023-03-12T00:00:00	2024-11-06T16:00:00	4	Temperatura máxima	19.7
64643	7	Sololá	701	Sololá	3	Barraneche	12	Diciembre	2023-03-12T00:00:00	2024-11-06T16:00:00	3	Temperatura mínima	17.9
64644	7	Sololá	701	Sololá	3	Barraneche	12	Diciembre	2023-03-12T00:00:00	2024-11-06T16:00:00	5	Humedad	53
64645	7	Sololá	701	Sololá	3	Barraneche	12	Diciembre	2023-03-12T00:00:00	2024-11-06T16:00:00	6	Velocidad del viento	9.7
64646	7	Sololá	701	Sololá	3	Barraneche	12	Diciembre	2023-03-12T00:00:00	2024-11-06T16:00:00	7	Dirección del viento	9.66
64647	7	Sololá	701	Sololá	3	Barraneche	12	Diciembre	2023-03-12T00:00:00	2024-11-06T16:00:00	1	Precipitación	0
64648	7	Sololá	701	Sololá	3	Barraneche	12	Diciembre	2023-03-12T00:00:00	2024-11-06T16:00:00	8	Radiación solar	408
64649	7	Sololá	701	Sololá	3	Barraneche	12	Diciembre	2023-03-12T00:00:00	2024-11-06T17:00:00	2	Temperatura media	16.8
64650	7	Sololá	701	Sololá	3	Barraneche	12	Diciembre	2023-03-12T00:00:00	2024-11-06T17:00:00	4	Temperatura máxima	18.2
64651	7	Sololá	701	Sololá	3	Barraneche	12	Diciembre	2023-03-12T00:00:00	2024-11-06T17:00:00	3	Temperatura mínima	16.8
64652	7	Sololá	701	Sololá	3	Barraneche	12	Diciembre	2023-03-12T00:00:00	2024-11-06T17:00:00	5	Humedad	56
64653	7	Sololá	701	Sololá	3	Barraneche	12	Diciembre	2023-03-12T00:00:00	2024-11-06T17:00:00	6	Velocidad del viento	12.9
64654	7	Sololá	701	Sololá	3	Barraneche	12	Diciembre	2023-03-12T00:00:00	2024-11-06T17:00:00	7	Dirección del viento	12.87
64655	7	Sololá	701	Sololá	3	Barraneche	12	Diciembre	2023-03-12T00:00:00	2024-11-06T17:00:00	1	Precipitación	0
64656	7	Sololá	701	Sololá	3	Barraneche	12	Diciembre	2023-03-12T00:00:00	2024-11-06T17:00:00	8	Radiación solar	173
64657	7	Sololá	701	Sololá	3	Barraneche	12	Diciembre	2023-03-12T00:00:00	2024-11-06T18:00:00	2	Temperatura media	15.8
64658	7	Sololá	701	Sololá	3	Barraneche	12	Diciembre	2023-03-12T00:00:00	2024-11-06T18:00:00	4	Temperatura máxima	17
64659	7	Sololá	701	Sololá	3	Barraneche	12	Diciembre	2023-03-12T00:00:00	2024-11-06T18:00:00	3	Temperatura mínima	15.8
64660	7	Sololá	701	Sololá	3	Barraneche	12	Diciembre	2023-03-12T00:00:00	2024-11-06T18:00:00	5	Humedad	60
64661	7	Sololá	701	Sololá	3	Barraneche	12	Diciembre	2023-03-12T00:00:00	2024-11-06T18:00:00	6	Velocidad del viento	9.7
64662	7	Sololá	701	Sololá	3	Barraneche	12	Diciembre	2023-03-12T00:00:00	2024-11-06T18:00:00	7	Dirección del viento	9.66
64663	7	Sololá	701	Sololá	3	Barraneche	12	Diciembre	2023-03-12T00:00:00	2024-11-06T18:00:00	1	Precipitación	0
64664	7	Sololá	701	Sololá	3	Barraneche	12	Diciembre	2023-03-12T00:00:00	2024-11-06T18:00:00	8	Radiación solar	18
64665	7	Sololá	701	Sololá	3	Barraneche	12	Diciembre	2023-03-12T00:00:00	2024-11-06T19:00:00	2	Temperatura media	14.9
64666	7	Sololá	701	Sololá	3	Barraneche	12	Diciembre	2023-03-12T00:00:00	2024-11-06T19:00:00	4	Temperatura máxima	15.8
64667	7	Sololá	701	Sololá	3	Barraneche	12	Diciembre	2023-03-12T00:00:00	2024-11-06T19:00:00	3	Temperatura mínima	14.9
64668	7	Sololá	701	Sololá	3	Barraneche	12	Diciembre	2023-03-12T00:00:00	2024-11-06T19:00:00	5	Humedad	59
64669	7	Sololá	701	Sololá	3	Barraneche	12	Diciembre	2023-03-12T00:00:00	2024-11-06T19:00:00	6	Velocidad del viento	11.3
64670	7	Sololá	701	Sololá	3	Barraneche	12	Diciembre	2023-03-12T00:00:00	2024-11-06T19:00:00	7	Dirección del viento	11.27
64671	7	Sololá	701	Sololá	3	Barraneche	12	Diciembre	2023-03-12T00:00:00	2024-11-06T19:00:00	1	Precipitación	0
64672	7	Sololá	701	Sololá	3	Barraneche	12	Diciembre	2023-03-12T00:00:00	2024-11-06T19:00:00	8	Radiación solar	0
64673	7	Sololá	701	Sololá	3	Barraneche	12	Diciembre	2023-03-12T00:00:00	2024-11-06T20:00:00	2	Temperatura media	14.3
64674	7	Sololá	701	Sololá	3	Barraneche	12	Diciembre	2023-03-12T00:00:00	2024-11-06T20:00:00	4	Temperatura máxima	14.9
64675	7	Sololá	701	Sololá	3	Barraneche	12	Diciembre	2023-03-12T00:00:00	2024-11-06T20:00:00	3	Temperatura mínima	14.3
64676	7	Sololá	701	Sololá	3	Barraneche	12	Diciembre	2023-03-12T00:00:00	2024-11-06T20:00:00	5	Humedad	58
64677	7	Sololá	701	Sololá	3	Barraneche	12	Diciembre	2023-03-12T00:00:00	2024-11-06T20:00:00	6	Velocidad del viento	14.5
64678	7	Sololá	701	Sololá	3	Barraneche	12	Diciembre	2023-03-12T00:00:00	2024-11-06T20:00:00	7	Dirección del viento	14.48
64679	7	Sololá	701	Sololá	3	Barraneche	12	Diciembre	2023-03-12T00:00:00	2024-11-06T20:00:00	1	Precipitación	0
64680	7	Sololá	701	Sololá	3	Barraneche	12	Diciembre	2023-03-12T00:00:00	2024-11-06T20:00:00	8	Radiación solar	0
64681	7	Sololá	701	Sololá	3	Barraneche	12	Diciembre	2023-03-12T00:00:00	2024-11-06T21:00:00	2	Temperatura media	14.3
64682	7	Sololá	701	Sololá	3	Barraneche	12	Diciembre	2023-03-12T00:00:00	2024-11-06T21:00:00	4	Temperatura máxima	14.4
64683	7	Sololá	701	Sololá	3	Barraneche	12	Diciembre	2023-03-12T00:00:00	2024-11-06T21:00:00	3	Temperatura mínima	14.1
64684	7	Sololá	701	Sololá	3	Barraneche	12	Diciembre	2023-03-12T00:00:00	2024-11-06T21:00:00	5	Humedad	58
64685	7	Sololá	701	Sololá	3	Barraneche	12	Diciembre	2023-03-12T00:00:00	2024-11-06T21:00:00	6	Velocidad del viento	24.1
64686	7	Sololá	701	Sololá	3	Barraneche	12	Diciembre	2023-03-12T00:00:00	2024-11-06T21:00:00	7	Dirección del viento	24.14
64687	7	Sololá	701	Sololá	3	Barraneche	12	Diciembre	2023-03-12T00:00:00	2024-11-06T21:00:00	1	Precipitación	0
64688	7	Sololá	701	Sololá	3	Barraneche	12	Diciembre	2023-03-12T00:00:00	2024-11-06T21:00:00	8	Radiación solar	0
64689	7	Sololá	701	Sololá	3	Barraneche	12	Diciembre	2023-03-12T00:00:00	2024-11-06T22:00:00	2	Temperatura media	14.1
64690	7	Sololá	701	Sololá	3	Barraneche	12	Diciembre	2023-03-12T00:00:00	2024-11-06T22:00:00	4	Temperatura máxima	14.3
64691	7	Sololá	701	Sololá	3	Barraneche	12	Diciembre	2023-03-12T00:00:00	2024-11-06T22:00:00	3	Temperatura mínima	14
64692	7	Sololá	701	Sololá	3	Barraneche	12	Diciembre	2023-03-12T00:00:00	2024-11-06T22:00:00	5	Humedad	61
64693	7	Sololá	701	Sololá	3	Barraneche	12	Diciembre	2023-03-12T00:00:00	2024-11-06T22:00:00	6	Velocidad del viento	20.9
64694	7	Sololá	701	Sololá	3	Barraneche	12	Diciembre	2023-03-12T00:00:00	2024-11-06T22:00:00	7	Dirección del viento	20.92
64695	7	Sololá	701	Sololá	3	Barraneche	12	Diciembre	2023-03-12T00:00:00	2024-11-06T22:00:00	1	Precipitación	0
64696	7	Sololá	701	Sololá	3	Barraneche	12	Diciembre	2023-03-12T00:00:00	2024-11-06T22:00:00	8	Radiación solar	0
64697	7	Sololá	701	Sololá	3	Barraneche	12	Diciembre	2023-03-12T00:00:00	2024-11-06T23:00:00	2	Temperatura media	13.9
64698	7	Sololá	701	Sololá	3	Barraneche	12	Diciembre	2023-03-12T00:00:00	2024-11-06T23:00:00	4	Temperatura máxima	14.4
64699	7	Sololá	701	Sololá	3	Barraneche	12	Diciembre	2023-03-12T00:00:00	2024-11-06T23:00:00	3	Temperatura mínima	13.9
64700	7	Sololá	701	Sololá	3	Barraneche	12	Diciembre	2023-03-12T00:00:00	2024-11-06T23:00:00	5	Humedad	63
64701	7	Sololá	701	Sololá	3	Barraneche	12	Diciembre	2023-03-12T00:00:00	2024-11-06T23:00:00	6	Velocidad del viento	19.3
64702	7	Sololá	701	Sololá	3	Barraneche	12	Diciembre	2023-03-12T00:00:00	2024-11-06T23:00:00	7	Dirección del viento	19.31
64703	7	Sololá	701	Sololá	3	Barraneche	12	Diciembre	2023-03-12T00:00:00	2024-11-06T23:00:00	1	Precipitación	0
64704	7	Sololá	701	Sololá	3	Barraneche	12	Diciembre	2023-03-12T00:00:00	2024-11-06T23:00:00	8	Radiación solar	0
64705	7	Sololá	701	Sololá	3	Barraneche	12	Diciembre	2023-04-12T00:00:00	2024-11-06T00:00:00	2	Temperatura media	14.5
64706	7	Sololá	701	Sololá	3	Barraneche	12	Diciembre	2023-04-12T00:00:00	2024-11-06T00:00:00	4	Temperatura máxima	14.7
64707	7	Sololá	701	Sololá	3	Barraneche	12	Diciembre	2023-04-12T00:00:00	2024-11-06T00:00:00	3	Temperatura mínima	13.6
64708	7	Sololá	701	Sololá	3	Barraneche	12	Diciembre	2023-04-12T00:00:00	2024-11-06T00:00:00	5	Humedad	57
64709	7	Sololá	701	Sololá	3	Barraneche	12	Diciembre	2023-04-12T00:00:00	2024-11-06T00:00:00	6	Velocidad del viento	16.1
64710	7	Sololá	701	Sololá	3	Barraneche	12	Diciembre	2023-04-12T00:00:00	2024-11-06T00:00:00	7	Dirección del viento	16.09
64711	7	Sololá	701	Sololá	3	Barraneche	12	Diciembre	2023-04-12T00:00:00	2024-11-06T00:00:00	1	Precipitación	0
64712	7	Sololá	701	Sololá	3	Barraneche	12	Diciembre	2023-04-12T00:00:00	2024-11-06T00:00:00	8	Radiación solar	0
64713	7	Sololá	701	Sololá	3	Barraneche	12	Diciembre	2023-04-12T00:00:00	2024-11-06T01:00:00	2	Temperatura media	14.1
64714	7	Sololá	701	Sololá	3	Barraneche	12	Diciembre	2023-04-12T00:00:00	2024-11-06T01:00:00	4	Temperatura máxima	14.5
64715	7	Sololá	701	Sololá	3	Barraneche	12	Diciembre	2023-04-12T00:00:00	2024-11-06T01:00:00	3	Temperatura mínima	13.9
64716	7	Sololá	701	Sololá	3	Barraneche	12	Diciembre	2023-04-12T00:00:00	2024-11-06T01:00:00	5	Humedad	59
64717	7	Sololá	701	Sololá	3	Barraneche	12	Diciembre	2023-04-12T00:00:00	2024-11-06T01:00:00	6	Velocidad del viento	12.9
64718	7	Sololá	701	Sololá	3	Barraneche	12	Diciembre	2023-04-12T00:00:00	2024-11-06T01:00:00	7	Dirección del viento	12.87
64719	7	Sololá	701	Sololá	3	Barraneche	12	Diciembre	2023-04-12T00:00:00	2024-11-06T01:00:00	1	Precipitación	0
64720	7	Sololá	701	Sololá	3	Barraneche	12	Diciembre	2023-04-12T00:00:00	2024-11-06T01:00:00	8	Radiación solar	0
64721	7	Sololá	701	Sololá	3	Barraneche	12	Diciembre	2023-04-12T00:00:00	2024-11-06T02:00:00	2	Temperatura media	13.9
64722	7	Sololá	701	Sololá	3	Barraneche	12	Diciembre	2023-04-12T00:00:00	2024-11-06T02:00:00	4	Temperatura máxima	14.1
64723	7	Sololá	701	Sololá	3	Barraneche	12	Diciembre	2023-04-12T00:00:00	2024-11-06T02:00:00	3	Temperatura mínima	13.6
64724	7	Sololá	701	Sololá	3	Barraneche	12	Diciembre	2023-04-12T00:00:00	2024-11-06T02:00:00	5	Humedad	59
64725	7	Sololá	701	Sololá	3	Barraneche	12	Diciembre	2023-04-12T00:00:00	2024-11-06T02:00:00	6	Velocidad del viento	14.5
64726	7	Sololá	701	Sololá	3	Barraneche	12	Diciembre	2023-04-12T00:00:00	2024-11-06T02:00:00	7	Dirección del viento	14.48
64727	7	Sololá	701	Sololá	3	Barraneche	12	Diciembre	2023-04-12T00:00:00	2024-11-06T02:00:00	1	Precipitación	0
64728	7	Sololá	701	Sololá	3	Barraneche	12	Diciembre	2023-04-12T00:00:00	2024-11-06T02:00:00	8	Radiación solar	0
64729	7	Sololá	701	Sololá	3	Barraneche	12	Diciembre	2023-04-12T00:00:00	2024-11-06T03:00:00	2	Temperatura media	13.6
64730	7	Sololá	701	Sololá	3	Barraneche	12	Diciembre	2023-04-12T00:00:00	2024-11-06T03:00:00	4	Temperatura máxima	13.9
64731	7	Sololá	701	Sololá	3	Barraneche	12	Diciembre	2023-04-12T00:00:00	2024-11-06T03:00:00	3	Temperatura mínima	13.4
64732	7	Sololá	701	Sololá	3	Barraneche	12	Diciembre	2023-04-12T00:00:00	2024-11-06T03:00:00	5	Humedad	60
64733	7	Sololá	701	Sololá	3	Barraneche	12	Diciembre	2023-04-12T00:00:00	2024-11-06T03:00:00	6	Velocidad del viento	11.3
64734	7	Sololá	701	Sololá	3	Barraneche	12	Diciembre	2023-04-12T00:00:00	2024-11-06T03:00:00	7	Dirección del viento	11.27
64735	7	Sololá	701	Sololá	3	Barraneche	12	Diciembre	2023-04-12T00:00:00	2024-11-06T03:00:00	1	Precipitación	0
64736	7	Sololá	701	Sololá	3	Barraneche	12	Diciembre	2023-04-12T00:00:00	2024-11-06T03:00:00	8	Radiación solar	0
64737	7	Sololá	701	Sololá	3	Barraneche	12	Diciembre	2023-04-12T00:00:00	2024-11-06T04:00:00	2	Temperatura media	14.1
64738	7	Sololá	701	Sololá	3	Barraneche	12	Diciembre	2023-04-12T00:00:00	2024-11-06T04:00:00	4	Temperatura máxima	14.2
64739	7	Sololá	701	Sololá	3	Barraneche	12	Diciembre	2023-04-12T00:00:00	2024-11-06T04:00:00	3	Temperatura mínima	13.2
64740	7	Sololá	701	Sololá	3	Barraneche	12	Diciembre	2023-04-12T00:00:00	2024-11-06T04:00:00	5	Humedad	60
64741	7	Sololá	701	Sololá	3	Barraneche	12	Diciembre	2023-04-12T00:00:00	2024-11-06T04:00:00	6	Velocidad del viento	9.7
64742	7	Sololá	701	Sololá	3	Barraneche	12	Diciembre	2023-04-12T00:00:00	2024-11-06T04:00:00	7	Dirección del viento	9.66
64743	7	Sololá	701	Sololá	3	Barraneche	12	Diciembre	2023-04-12T00:00:00	2024-11-06T04:00:00	1	Precipitación	0
64744	7	Sololá	701	Sololá	3	Barraneche	12	Diciembre	2023-04-12T00:00:00	2024-11-06T04:00:00	8	Radiación solar	0
64745	7	Sololá	701	Sololá	3	Barraneche	12	Diciembre	2023-04-12T00:00:00	2024-11-06T05:00:00	2	Temperatura media	14.8
64746	7	Sololá	701	Sololá	3	Barraneche	12	Diciembre	2023-04-12T00:00:00	2024-11-06T05:00:00	4	Temperatura máxima	14.8
64747	7	Sololá	701	Sololá	3	Barraneche	12	Diciembre	2023-04-12T00:00:00	2024-11-06T05:00:00	3	Temperatura mínima	14
64748	7	Sololá	701	Sololá	3	Barraneche	12	Diciembre	2023-04-12T00:00:00	2024-11-06T05:00:00	5	Humedad	61
64749	7	Sololá	701	Sololá	3	Barraneche	12	Diciembre	2023-04-12T00:00:00	2024-11-06T05:00:00	6	Velocidad del viento	14.5
64750	7	Sololá	701	Sololá	3	Barraneche	12	Diciembre	2023-04-12T00:00:00	2024-11-06T05:00:00	7	Dirección del viento	14.48
64751	7	Sololá	701	Sololá	3	Barraneche	12	Diciembre	2023-04-12T00:00:00	2024-11-06T05:00:00	1	Precipitación	0
64752	7	Sololá	701	Sololá	3	Barraneche	12	Diciembre	2023-04-12T00:00:00	2024-11-06T05:00:00	8	Radiación solar	0
64753	7	Sololá	701	Sololá	3	Barraneche	12	Diciembre	2023-04-12T00:00:00	2024-11-06T06:00:00	2	Temperatura media	14.8
64754	7	Sololá	701	Sololá	3	Barraneche	12	Diciembre	2023-04-12T00:00:00	2024-11-06T06:00:00	4	Temperatura máxima	14.9
64755	7	Sololá	701	Sololá	3	Barraneche	12	Diciembre	2023-04-12T00:00:00	2024-11-06T06:00:00	3	Temperatura mínima	14.6
64756	7	Sololá	701	Sololá	3	Barraneche	12	Diciembre	2023-04-12T00:00:00	2024-11-06T06:00:00	5	Humedad	61
64757	7	Sololá	701	Sololá	3	Barraneche	12	Diciembre	2023-04-12T00:00:00	2024-11-06T06:00:00	6	Velocidad del viento	17.7
64758	7	Sololá	701	Sololá	3	Barraneche	12	Diciembre	2023-04-12T00:00:00	2024-11-06T06:00:00	7	Dirección del viento	17.7
64759	7	Sololá	701	Sololá	3	Barraneche	12	Diciembre	2023-04-12T00:00:00	2024-11-06T06:00:00	1	Precipitación	0
64760	7	Sololá	701	Sololá	3	Barraneche	12	Diciembre	2023-04-12T00:00:00	2024-11-06T06:00:00	8	Radiación solar	0
64761	7	Sololá	701	Sololá	3	Barraneche	12	Diciembre	2023-04-12T00:00:00	2024-11-06T07:00:00	2	Temperatura media	15.4
64762	7	Sololá	701	Sololá	3	Barraneche	12	Diciembre	2023-04-12T00:00:00	2024-11-06T07:00:00	4	Temperatura máxima	15.4
64763	7	Sololá	701	Sololá	3	Barraneche	12	Diciembre	2023-04-12T00:00:00	2024-11-06T07:00:00	3	Temperatura mínima	14.5
64764	7	Sololá	701	Sololá	3	Barraneche	12	Diciembre	2023-04-12T00:00:00	2024-11-06T07:00:00	5	Humedad	59
64765	7	Sololá	701	Sololá	3	Barraneche	12	Diciembre	2023-04-12T00:00:00	2024-11-06T07:00:00	6	Velocidad del viento	9.7
64766	7	Sololá	701	Sololá	3	Barraneche	12	Diciembre	2023-04-12T00:00:00	2024-11-06T07:00:00	7	Dirección del viento	9.66
64767	7	Sololá	701	Sololá	3	Barraneche	12	Diciembre	2023-04-12T00:00:00	2024-11-06T07:00:00	1	Precipitación	0
64768	7	Sololá	701	Sololá	3	Barraneche	12	Diciembre	2023-04-12T00:00:00	2024-11-06T07:00:00	8	Radiación solar	24
64769	7	Sololá	701	Sololá	3	Barraneche	12	Diciembre	2023-04-12T00:00:00	2024-11-06T08:00:00	2	Temperatura media	16.4
64770	7	Sololá	701	Sololá	3	Barraneche	12	Diciembre	2023-04-12T00:00:00	2024-11-06T08:00:00	4	Temperatura máxima	16.5
64771	7	Sololá	701	Sololá	3	Barraneche	12	Diciembre	2023-04-12T00:00:00	2024-11-06T08:00:00	3	Temperatura mínima	15.4
64772	7	Sololá	701	Sololá	3	Barraneche	12	Diciembre	2023-04-12T00:00:00	2024-11-06T08:00:00	5	Humedad	60
64773	7	Sololá	701	Sololá	3	Barraneche	12	Diciembre	2023-04-12T00:00:00	2024-11-06T08:00:00	6	Velocidad del viento	14.5
64774	7	Sololá	701	Sololá	3	Barraneche	12	Diciembre	2023-04-12T00:00:00	2024-11-06T08:00:00	7	Dirección del viento	14.48
64775	7	Sololá	701	Sololá	3	Barraneche	12	Diciembre	2023-04-12T00:00:00	2024-11-06T08:00:00	1	Precipitación	0
64776	7	Sololá	701	Sololá	3	Barraneche	12	Diciembre	2023-04-12T00:00:00	2024-11-06T08:00:00	8	Radiación solar	214
64777	7	Sololá	701	Sololá	3	Barraneche	12	Diciembre	2023-04-12T00:00:00	2024-11-06T09:00:00	2	Temperatura media	16.5
64778	7	Sololá	701	Sololá	3	Barraneche	12	Diciembre	2023-04-12T00:00:00	2024-11-06T09:00:00	4	Temperatura máxima	17.2
64779	7	Sololá	701	Sololá	3	Barraneche	12	Diciembre	2023-04-12T00:00:00	2024-11-06T09:00:00	3	Temperatura mínima	16.4
64780	7	Sololá	701	Sololá	3	Barraneche	12	Diciembre	2023-04-12T00:00:00	2024-11-06T09:00:00	5	Humedad	62
64781	7	Sololá	701	Sololá	3	Barraneche	12	Diciembre	2023-04-12T00:00:00	2024-11-06T09:00:00	6	Velocidad del viento	19.3
64782	7	Sololá	701	Sololá	3	Barraneche	12	Diciembre	2023-04-12T00:00:00	2024-11-06T09:00:00	7	Dirección del viento	19.31
64783	7	Sololá	701	Sololá	3	Barraneche	12	Diciembre	2023-04-12T00:00:00	2024-11-06T09:00:00	1	Precipitación	0
64784	7	Sololá	701	Sololá	3	Barraneche	12	Diciembre	2023-04-12T00:00:00	2024-11-06T09:00:00	8	Radiación solar	474
64785	7	Sololá	701	Sololá	3	Barraneche	12	Diciembre	2023-04-12T00:00:00	2024-11-06T10:00:00	2	Temperatura media	17.8
64786	7	Sololá	701	Sololá	3	Barraneche	12	Diciembre	2023-04-12T00:00:00	2024-11-06T10:00:00	4	Temperatura máxima	17.8
64787	7	Sololá	701	Sololá	3	Barraneche	12	Diciembre	2023-04-12T00:00:00	2024-11-06T10:00:00	3	Temperatura mínima	16.2
64788	7	Sololá	701	Sololá	3	Barraneche	12	Diciembre	2023-04-12T00:00:00	2024-11-06T10:00:00	5	Humedad	58
64789	7	Sololá	701	Sololá	3	Barraneche	12	Diciembre	2023-04-12T00:00:00	2024-11-06T10:00:00	6	Velocidad del viento	20.9
64790	7	Sololá	701	Sololá	3	Barraneche	12	Diciembre	2023-04-12T00:00:00	2024-11-06T10:00:00	7	Dirección del viento	20.92
64791	7	Sololá	701	Sololá	3	Barraneche	12	Diciembre	2023-04-12T00:00:00	2024-11-06T10:00:00	1	Precipitación	0
64792	7	Sololá	701	Sololá	3	Barraneche	12	Diciembre	2023-04-12T00:00:00	2024-11-06T10:00:00	8	Radiación solar	629
64793	7	Sololá	701	Sololá	3	Barraneche	12	Diciembre	2023-04-12T00:00:00	2024-11-06T11:00:00	2	Temperatura media	18.9
64794	7	Sololá	701	Sololá	3	Barraneche	12	Diciembre	2023-04-12T00:00:00	2024-11-06T11:00:00	4	Temperatura máxima	18.9
64795	7	Sololá	701	Sololá	3	Barraneche	12	Diciembre	2023-04-12T00:00:00	2024-11-06T11:00:00	3	Temperatura mínima	17.5
64796	7	Sololá	701	Sololá	3	Barraneche	12	Diciembre	2023-04-12T00:00:00	2024-11-06T11:00:00	5	Humedad	55
64797	7	Sololá	701	Sololá	3	Barraneche	12	Diciembre	2023-04-12T00:00:00	2024-11-06T11:00:00	6	Velocidad del viento	20.9
64798	7	Sololá	701	Sololá	3	Barraneche	12	Diciembre	2023-04-12T00:00:00	2024-11-06T11:00:00	7	Dirección del viento	20.92
64799	7	Sololá	701	Sololá	3	Barraneche	12	Diciembre	2023-04-12T00:00:00	2024-11-06T11:00:00	1	Precipitación	0
64800	7	Sololá	701	Sololá	3	Barraneche	12	Diciembre	2023-04-12T00:00:00	2024-11-06T11:00:00	8	Radiación solar	800
64801	7	Sololá	701	Sololá	3	Barraneche	12	Diciembre	2023-04-12T00:00:00	2024-11-06T12:00:00	2	Temperatura media	19.1
64802	7	Sololá	701	Sololá	3	Barraneche	12	Diciembre	2023-04-12T00:00:00	2024-11-06T12:00:00	4	Temperatura máxima	19.8
64803	7	Sololá	701	Sololá	3	Barraneche	12	Diciembre	2023-04-12T00:00:00	2024-11-06T12:00:00	3	Temperatura mínima	18.9
64804	7	Sololá	701	Sololá	3	Barraneche	12	Diciembre	2023-04-12T00:00:00	2024-11-06T12:00:00	5	Humedad	51
64805	7	Sololá	701	Sololá	3	Barraneche	12	Diciembre	2023-04-12T00:00:00	2024-11-06T12:00:00	6	Velocidad del viento	20.9
64806	7	Sololá	701	Sololá	3	Barraneche	12	Diciembre	2023-04-12T00:00:00	2024-11-06T12:00:00	7	Dirección del viento	20.92
64807	7	Sololá	701	Sololá	3	Barraneche	12	Diciembre	2023-04-12T00:00:00	2024-11-06T12:00:00	1	Precipitación	0
64808	7	Sololá	701	Sololá	3	Barraneche	12	Diciembre	2023-04-12T00:00:00	2024-11-06T12:00:00	8	Radiación solar	851
64809	7	Sololá	701	Sololá	3	Barraneche	12	Diciembre	2023-04-12T00:00:00	2024-11-06T13:00:00	2	Temperatura media	19.8
64810	7	Sololá	701	Sololá	3	Barraneche	12	Diciembre	2023-04-12T00:00:00	2024-11-06T13:00:00	4	Temperatura máxima	19.8
64811	7	Sololá	701	Sololá	3	Barraneche	12	Diciembre	2023-04-12T00:00:00	2024-11-06T13:00:00	3	Temperatura mínima	19
64812	7	Sololá	701	Sololá	3	Barraneche	12	Diciembre	2023-04-12T00:00:00	2024-11-06T13:00:00	5	Humedad	51
64813	7	Sololá	701	Sololá	3	Barraneche	12	Diciembre	2023-04-12T00:00:00	2024-11-06T13:00:00	6	Velocidad del viento	17.7
64814	7	Sololá	701	Sololá	3	Barraneche	12	Diciembre	2023-04-12T00:00:00	2024-11-06T13:00:00	7	Dirección del viento	17.7
64815	7	Sololá	701	Sololá	3	Barraneche	12	Diciembre	2023-04-12T00:00:00	2024-11-06T13:00:00	1	Precipitación	0
64816	7	Sololá	701	Sololá	3	Barraneche	12	Diciembre	2023-04-12T00:00:00	2024-11-06T13:00:00	8	Radiación solar	730
64817	7	Sololá	701	Sololá	3	Barraneche	12	Diciembre	2023-04-12T00:00:00	2024-11-06T14:00:00	2	Temperatura media	18.3
64818	7	Sololá	701	Sololá	3	Barraneche	12	Diciembre	2023-04-12T00:00:00	2024-11-06T14:00:00	4	Temperatura máxima	19.7
64819	7	Sololá	701	Sololá	3	Barraneche	12	Diciembre	2023-04-12T00:00:00	2024-11-06T14:00:00	3	Temperatura mínima	18.1
64820	7	Sololá	701	Sololá	3	Barraneche	12	Diciembre	2023-04-12T00:00:00	2024-11-06T14:00:00	5	Humedad	54
64821	7	Sololá	701	Sololá	3	Barraneche	12	Diciembre	2023-04-12T00:00:00	2024-11-06T14:00:00	6	Velocidad del viento	19.3
64822	7	Sololá	701	Sololá	3	Barraneche	12	Diciembre	2023-04-12T00:00:00	2024-11-06T14:00:00	7	Dirección del viento	19.31
64823	7	Sololá	701	Sololá	3	Barraneche	12	Diciembre	2023-04-12T00:00:00	2024-11-06T14:00:00	1	Precipitación	0
64824	7	Sololá	701	Sololá	3	Barraneche	12	Diciembre	2023-04-12T00:00:00	2024-11-06T14:00:00	8	Radiación solar	717
64825	7	Sololá	701	Sololá	3	Barraneche	12	Diciembre	2023-04-12T00:00:00	2024-11-06T15:00:00	2	Temperatura media	17.3
64826	7	Sololá	701	Sololá	3	Barraneche	12	Diciembre	2023-04-12T00:00:00	2024-11-06T15:00:00	4	Temperatura máxima	19
64827	7	Sololá	701	Sololá	3	Barraneche	12	Diciembre	2023-04-12T00:00:00	2024-11-06T15:00:00	3	Temperatura mínima	17.3
64828	7	Sololá	701	Sololá	3	Barraneche	12	Diciembre	2023-04-12T00:00:00	2024-11-06T15:00:00	5	Humedad	58
64829	7	Sololá	701	Sololá	3	Barraneche	12	Diciembre	2023-04-12T00:00:00	2024-11-06T15:00:00	6	Velocidad del viento	16.1
64830	7	Sololá	701	Sololá	3	Barraneche	12	Diciembre	2023-04-12T00:00:00	2024-11-06T15:00:00	7	Dirección del viento	16.09
64831	7	Sololá	701	Sololá	3	Barraneche	12	Diciembre	2023-04-12T00:00:00	2024-11-06T15:00:00	1	Precipitación	0
64832	7	Sololá	701	Sololá	3	Barraneche	12	Diciembre	2023-04-12T00:00:00	2024-11-06T15:00:00	8	Radiación solar	495
64833	7	Sololá	701	Sololá	3	Barraneche	12	Diciembre	2023-04-12T00:00:00	2024-11-06T16:00:00	2	Temperatura media	17.4
64834	7	Sololá	701	Sololá	3	Barraneche	12	Diciembre	2023-04-12T00:00:00	2024-11-06T16:00:00	4	Temperatura máxima	18.1
64835	7	Sololá	701	Sololá	3	Barraneche	12	Diciembre	2023-04-12T00:00:00	2024-11-06T16:00:00	3	Temperatura mínima	17.3
64836	7	Sololá	701	Sololá	3	Barraneche	12	Diciembre	2023-04-12T00:00:00	2024-11-06T16:00:00	5	Humedad	58
64837	7	Sololá	701	Sololá	3	Barraneche	12	Diciembre	2023-04-12T00:00:00	2024-11-06T16:00:00	6	Velocidad del viento	14.5
64838	7	Sololá	701	Sololá	3	Barraneche	12	Diciembre	2023-04-12T00:00:00	2024-11-06T16:00:00	7	Dirección del viento	14.48
64839	7	Sololá	701	Sololá	3	Barraneche	12	Diciembre	2023-04-12T00:00:00	2024-11-06T16:00:00	1	Precipitación	0
64840	7	Sololá	701	Sololá	3	Barraneche	12	Diciembre	2023-04-12T00:00:00	2024-11-06T16:00:00	8	Radiación solar	314
64841	7	Sololá	701	Sololá	3	Barraneche	12	Diciembre	2023-04-12T00:00:00	2024-11-06T17:00:00	2	Temperatura media	17.1
64842	7	Sololá	701	Sololá	3	Barraneche	12	Diciembre	2023-04-12T00:00:00	2024-11-06T17:00:00	4	Temperatura máxima	17.4
64843	7	Sololá	701	Sololá	3	Barraneche	12	Diciembre	2023-04-12T00:00:00	2024-11-06T17:00:00	3	Temperatura mínima	17
64844	7	Sololá	701	Sololá	3	Barraneche	12	Diciembre	2023-04-12T00:00:00	2024-11-06T17:00:00	5	Humedad	57
64845	7	Sololá	701	Sololá	3	Barraneche	12	Diciembre	2023-04-12T00:00:00	2024-11-06T17:00:00	6	Velocidad del viento	11.3
64846	7	Sololá	701	Sololá	3	Barraneche	12	Diciembre	2023-04-12T00:00:00	2024-11-06T17:00:00	7	Dirección del viento	11.27
64847	7	Sololá	701	Sololá	3	Barraneche	12	Diciembre	2023-04-12T00:00:00	2024-11-06T17:00:00	1	Precipitación	0
64848	7	Sololá	701	Sololá	3	Barraneche	12	Diciembre	2023-04-12T00:00:00	2024-11-06T17:00:00	8	Radiación solar	146
64849	7	Sololá	701	Sololá	3	Barraneche	12	Diciembre	2023-04-12T00:00:00	2024-11-06T18:00:00	2	Temperatura media	15.8
64850	7	Sololá	701	Sololá	3	Barraneche	12	Diciembre	2023-04-12T00:00:00	2024-11-06T18:00:00	4	Temperatura máxima	17.1
64851	7	Sololá	701	Sololá	3	Barraneche	12	Diciembre	2023-04-12T00:00:00	2024-11-06T18:00:00	3	Temperatura mínima	15.6
64852	7	Sololá	701	Sololá	3	Barraneche	12	Diciembre	2023-04-12T00:00:00	2024-11-06T18:00:00	5	Humedad	63
64853	7	Sololá	701	Sololá	3	Barraneche	12	Diciembre	2023-04-12T00:00:00	2024-11-06T18:00:00	6	Velocidad del viento	12.9
64854	7	Sololá	701	Sololá	3	Barraneche	12	Diciembre	2023-04-12T00:00:00	2024-11-06T18:00:00	7	Dirección del viento	12.87
64855	7	Sololá	701	Sololá	3	Barraneche	12	Diciembre	2023-04-12T00:00:00	2024-11-06T18:00:00	1	Precipitación	0
64856	7	Sololá	701	Sololá	3	Barraneche	12	Diciembre	2023-04-12T00:00:00	2024-11-06T18:00:00	8	Radiación solar	19
64857	7	Sololá	701	Sololá	3	Barraneche	12	Diciembre	2023-04-12T00:00:00	2024-11-06T19:00:00	2	Temperatura media	15.8
64858	7	Sololá	701	Sololá	3	Barraneche	12	Diciembre	2023-04-12T00:00:00	2024-11-06T19:00:00	4	Temperatura máxima	15.9
64859	7	Sololá	701	Sololá	3	Barraneche	12	Diciembre	2023-04-12T00:00:00	2024-11-06T19:00:00	3	Temperatura mínima	15.7
64860	7	Sololá	701	Sololá	3	Barraneche	12	Diciembre	2023-04-12T00:00:00	2024-11-06T19:00:00	5	Humedad	63
64861	7	Sololá	701	Sololá	3	Barraneche	12	Diciembre	2023-04-12T00:00:00	2024-11-06T19:00:00	6	Velocidad del viento	12.9
64862	7	Sololá	701	Sololá	3	Barraneche	12	Diciembre	2023-04-12T00:00:00	2024-11-06T19:00:00	7	Dirección del viento	12.87
64863	7	Sololá	701	Sololá	3	Barraneche	12	Diciembre	2023-04-12T00:00:00	2024-11-06T19:00:00	1	Precipitación	0
64864	7	Sololá	701	Sololá	3	Barraneche	12	Diciembre	2023-04-12T00:00:00	2024-11-06T19:00:00	8	Radiación solar	0
64865	7	Sololá	701	Sololá	3	Barraneche	12	Diciembre	2023-04-12T00:00:00	2024-11-06T20:00:00	2	Temperatura media	15.3
64866	7	Sololá	701	Sololá	3	Barraneche	12	Diciembre	2023-04-12T00:00:00	2024-11-06T20:00:00	4	Temperatura máxima	15.8
64867	7	Sololá	701	Sololá	3	Barraneche	12	Diciembre	2023-04-12T00:00:00	2024-11-06T20:00:00	3	Temperatura mínima	15.3
64868	7	Sololá	701	Sololá	3	Barraneche	12	Diciembre	2023-04-12T00:00:00	2024-11-06T20:00:00	5	Humedad	64
64869	7	Sololá	701	Sololá	3	Barraneche	12	Diciembre	2023-04-12T00:00:00	2024-11-06T20:00:00	6	Velocidad del viento	12.9
64870	7	Sololá	701	Sololá	3	Barraneche	12	Diciembre	2023-04-12T00:00:00	2024-11-06T20:00:00	7	Dirección del viento	12.87
64871	7	Sololá	701	Sololá	3	Barraneche	12	Diciembre	2023-04-12T00:00:00	2024-11-06T20:00:00	1	Precipitación	0
64872	7	Sololá	701	Sololá	3	Barraneche	12	Diciembre	2023-04-12T00:00:00	2024-11-06T20:00:00	8	Radiación solar	0
64873	7	Sololá	701	Sololá	3	Barraneche	12	Diciembre	2023-04-12T00:00:00	2024-11-06T21:00:00	2	Temperatura media	15.1
64874	7	Sololá	701	Sololá	3	Barraneche	12	Diciembre	2023-04-12T00:00:00	2024-11-06T21:00:00	4	Temperatura máxima	15.4
64875	7	Sololá	701	Sololá	3	Barraneche	12	Diciembre	2023-04-12T00:00:00	2024-11-06T21:00:00	3	Temperatura mínima	14.9
64876	7	Sololá	701	Sololá	3	Barraneche	12	Diciembre	2023-04-12T00:00:00	2024-11-06T21:00:00	5	Humedad	68
64877	7	Sololá	701	Sololá	3	Barraneche	12	Diciembre	2023-04-12T00:00:00	2024-11-06T21:00:00	6	Velocidad del viento	9.7
64878	7	Sololá	701	Sololá	3	Barraneche	12	Diciembre	2023-04-12T00:00:00	2024-11-06T21:00:00	7	Dirección del viento	9.66
64879	7	Sololá	701	Sololá	3	Barraneche	12	Diciembre	2023-04-12T00:00:00	2024-11-06T21:00:00	1	Precipitación	0
64880	7	Sololá	701	Sololá	3	Barraneche	12	Diciembre	2023-04-12T00:00:00	2024-11-06T21:00:00	8	Radiación solar	0
64881	7	Sololá	701	Sololá	3	Barraneche	12	Diciembre	2023-04-12T00:00:00	2024-11-06T22:00:00	2	Temperatura media	14.4
64882	7	Sololá	701	Sololá	3	Barraneche	12	Diciembre	2023-04-12T00:00:00	2024-11-06T22:00:00	4	Temperatura máxima	15.1
64883	7	Sololá	701	Sololá	3	Barraneche	12	Diciembre	2023-04-12T00:00:00	2024-11-06T22:00:00	3	Temperatura mínima	14.3
64884	7	Sololá	701	Sololá	3	Barraneche	12	Diciembre	2023-04-12T00:00:00	2024-11-06T22:00:00	5	Humedad	70
64885	7	Sololá	701	Sololá	3	Barraneche	12	Diciembre	2023-04-12T00:00:00	2024-11-06T22:00:00	6	Velocidad del viento	9.7
64886	7	Sololá	701	Sololá	3	Barraneche	12	Diciembre	2023-04-12T00:00:00	2024-11-06T22:00:00	7	Dirección del viento	9.66
64887	7	Sololá	701	Sololá	3	Barraneche	12	Diciembre	2023-04-12T00:00:00	2024-11-06T22:00:00	1	Precipitación	0
64888	7	Sololá	701	Sololá	3	Barraneche	12	Diciembre	2023-04-12T00:00:00	2024-11-06T22:00:00	8	Radiación solar	0
64889	7	Sololá	701	Sololá	3	Barraneche	12	Diciembre	2023-04-12T00:00:00	2024-11-06T23:00:00	2	Temperatura media	14.9
64890	7	Sololá	701	Sololá	3	Barraneche	12	Diciembre	2023-04-12T00:00:00	2024-11-06T23:00:00	4	Temperatura máxima	15
64891	7	Sololá	701	Sololá	3	Barraneche	12	Diciembre	2023-04-12T00:00:00	2024-11-06T23:00:00	3	Temperatura mínima	14.2
64892	7	Sololá	701	Sololá	3	Barraneche	12	Diciembre	2023-04-12T00:00:00	2024-11-06T23:00:00	5	Humedad	67
64893	7	Sololá	701	Sololá	3	Barraneche	12	Diciembre	2023-04-12T00:00:00	2024-11-06T23:00:00	6	Velocidad del viento	12.9
64894	7	Sololá	701	Sololá	3	Barraneche	12	Diciembre	2023-04-12T00:00:00	2024-11-06T23:00:00	7	Dirección del viento	12.87
64895	7	Sololá	701	Sololá	3	Barraneche	12	Diciembre	2023-04-12T00:00:00	2024-11-06T23:00:00	1	Precipitación	0
64896	7	Sololá	701	Sololá	3	Barraneche	12	Diciembre	2023-04-12T00:00:00	2024-11-06T23:00:00	8	Radiación solar	0
64897	7	Sololá	701	Sololá	3	Barraneche	12	Diciembre	2023-05-12T00:00:00	2024-11-06T00:00:00	2	Temperatura media	14.9
64898	7	Sololá	701	Sololá	3	Barraneche	12	Diciembre	2023-05-12T00:00:00	2024-11-06T00:00:00	4	Temperatura máxima	15.2
64899	7	Sololá	701	Sololá	3	Barraneche	12	Diciembre	2023-05-12T00:00:00	2024-11-06T00:00:00	3	Temperatura mínima	14.9
64900	7	Sololá	701	Sololá	3	Barraneche	12	Diciembre	2023-05-12T00:00:00	2024-11-06T00:00:00	5	Humedad	67
64901	7	Sololá	701	Sololá	3	Barraneche	12	Diciembre	2023-05-12T00:00:00	2024-11-06T00:00:00	6	Velocidad del viento	8
64902	7	Sololá	701	Sololá	3	Barraneche	12	Diciembre	2023-05-12T00:00:00	2024-11-06T00:00:00	7	Dirección del viento	8.05
64903	7	Sololá	701	Sololá	3	Barraneche	12	Diciembre	2023-05-12T00:00:00	2024-11-06T00:00:00	1	Precipitación	0
64904	7	Sololá	701	Sololá	3	Barraneche	12	Diciembre	2023-05-12T00:00:00	2024-11-06T00:00:00	8	Radiación solar	0
64905	7	Sololá	701	Sololá	3	Barraneche	12	Diciembre	2023-05-12T00:00:00	2024-11-06T01:00:00	2	Temperatura media	14.3
64906	7	Sololá	701	Sololá	3	Barraneche	12	Diciembre	2023-05-12T00:00:00	2024-11-06T01:00:00	4	Temperatura máxima	14.9
64907	7	Sololá	701	Sololá	3	Barraneche	12	Diciembre	2023-05-12T00:00:00	2024-11-06T01:00:00	3	Temperatura mínima	13.8
64908	7	Sololá	701	Sololá	3	Barraneche	12	Diciembre	2023-05-12T00:00:00	2024-11-06T01:00:00	5	Humedad	69
64909	7	Sololá	701	Sololá	3	Barraneche	12	Diciembre	2023-05-12T00:00:00	2024-11-06T01:00:00	6	Velocidad del viento	4.8
64910	7	Sololá	701	Sololá	3	Barraneche	12	Diciembre	2023-05-12T00:00:00	2024-11-06T01:00:00	7	Dirección del viento	4.83
64911	7	Sololá	701	Sololá	3	Barraneche	12	Diciembre	2023-05-12T00:00:00	2024-11-06T01:00:00	1	Precipitación	0.4
64912	7	Sololá	701	Sololá	3	Barraneche	12	Diciembre	2023-05-12T00:00:00	2024-11-06T01:00:00	8	Radiación solar	0
64913	7	Sololá	701	Sololá	3	Barraneche	12	Diciembre	2023-05-12T00:00:00	2024-11-06T02:00:00	2	Temperatura media	14
64914	7	Sololá	701	Sololá	3	Barraneche	12	Diciembre	2023-05-12T00:00:00	2024-11-06T02:00:00	4	Temperatura máxima	14.7
64915	7	Sololá	701	Sololá	3	Barraneche	12	Diciembre	2023-05-12T00:00:00	2024-11-06T02:00:00	3	Temperatura mínima	14
64916	7	Sololá	701	Sololá	3	Barraneche	12	Diciembre	2023-05-12T00:00:00	2024-11-06T02:00:00	5	Humedad	68
64917	7	Sololá	701	Sololá	3	Barraneche	12	Diciembre	2023-05-12T00:00:00	2024-11-06T02:00:00	6	Velocidad del viento	11.3
64918	7	Sololá	701	Sololá	3	Barraneche	12	Diciembre	2023-05-12T00:00:00	2024-11-06T02:00:00	7	Dirección del viento	11.27
64919	7	Sololá	701	Sololá	3	Barraneche	12	Diciembre	2023-05-12T00:00:00	2024-11-06T02:00:00	1	Precipitación	0
64920	7	Sololá	701	Sololá	3	Barraneche	12	Diciembre	2023-05-12T00:00:00	2024-11-06T02:00:00	8	Radiación solar	0
64921	7	Sololá	701	Sololá	3	Barraneche	12	Diciembre	2023-05-12T00:00:00	2024-11-06T03:00:00	2	Temperatura media	13.8
64922	7	Sololá	701	Sololá	3	Barraneche	12	Diciembre	2023-05-12T00:00:00	2024-11-06T03:00:00	4	Temperatura máxima	14
64923	7	Sololá	701	Sololá	3	Barraneche	12	Diciembre	2023-05-12T00:00:00	2024-11-06T03:00:00	3	Temperatura mínima	13.2
64924	7	Sololá	701	Sololá	3	Barraneche	12	Diciembre	2023-05-12T00:00:00	2024-11-06T03:00:00	5	Humedad	65
64925	7	Sololá	701	Sololá	3	Barraneche	12	Diciembre	2023-05-12T00:00:00	2024-11-06T03:00:00	6	Velocidad del viento	3.2
64926	7	Sololá	701	Sololá	3	Barraneche	12	Diciembre	2023-05-12T00:00:00	2024-11-06T03:00:00	7	Dirección del viento	3.22
64927	7	Sololá	701	Sololá	3	Barraneche	12	Diciembre	2023-05-12T00:00:00	2024-11-06T03:00:00	1	Precipitación	0
64928	7	Sololá	701	Sololá	3	Barraneche	12	Diciembre	2023-05-12T00:00:00	2024-11-06T03:00:00	8	Radiación solar	0
64929	7	Sololá	701	Sololá	3	Barraneche	12	Diciembre	2023-05-12T00:00:00	2024-11-06T04:00:00	2	Temperatura media	13.8
64930	7	Sololá	701	Sololá	3	Barraneche	12	Diciembre	2023-05-12T00:00:00	2024-11-06T04:00:00	4	Temperatura máxima	13.9
64931	7	Sololá	701	Sololá	3	Barraneche	12	Diciembre	2023-05-12T00:00:00	2024-11-06T04:00:00	3	Temperatura mínima	12.9
64932	7	Sololá	701	Sololá	3	Barraneche	12	Diciembre	2023-05-12T00:00:00	2024-11-06T04:00:00	5	Humedad	67
64933	7	Sololá	701	Sololá	3	Barraneche	12	Diciembre	2023-05-12T00:00:00	2024-11-06T04:00:00	6	Velocidad del viento	3.2
64934	7	Sololá	701	Sololá	3	Barraneche	12	Diciembre	2023-05-12T00:00:00	2024-11-06T04:00:00	7	Dirección del viento	3.22
64935	7	Sololá	701	Sololá	3	Barraneche	12	Diciembre	2023-05-12T00:00:00	2024-11-06T04:00:00	1	Precipitación	0
64936	7	Sololá	701	Sololá	3	Barraneche	12	Diciembre	2023-05-12T00:00:00	2024-11-06T04:00:00	8	Radiación solar	0
64937	7	Sololá	701	Sololá	3	Barraneche	12	Diciembre	2023-05-12T00:00:00	2024-11-06T05:00:00	2	Temperatura media	13.9
64938	7	Sololá	701	Sololá	3	Barraneche	12	Diciembre	2023-05-12T00:00:00	2024-11-06T05:00:00	4	Temperatura máxima	14.1
64939	7	Sololá	701	Sololá	3	Barraneche	12	Diciembre	2023-05-12T00:00:00	2024-11-06T05:00:00	3	Temperatura mínima	13.6
64940	7	Sololá	701	Sololá	3	Barraneche	12	Diciembre	2023-05-12T00:00:00	2024-11-06T05:00:00	5	Humedad	69
64941	7	Sololá	701	Sololá	3	Barraneche	12	Diciembre	2023-05-12T00:00:00	2024-11-06T05:00:00	6	Velocidad del viento	8
64942	7	Sololá	701	Sololá	3	Barraneche	12	Diciembre	2023-05-12T00:00:00	2024-11-06T05:00:00	7	Dirección del viento	8.05
64943	7	Sololá	701	Sololá	3	Barraneche	12	Diciembre	2023-05-12T00:00:00	2024-11-06T05:00:00	1	Precipitación	0
64944	7	Sololá	701	Sololá	3	Barraneche	12	Diciembre	2023-05-12T00:00:00	2024-11-06T05:00:00	8	Radiación solar	0
64945	7	Sololá	701	Sololá	3	Barraneche	12	Diciembre	2023-05-12T00:00:00	2024-11-06T06:00:00	2	Temperatura media	14.1
64946	7	Sololá	701	Sololá	3	Barraneche	12	Diciembre	2023-05-12T00:00:00	2024-11-06T06:00:00	4	Temperatura máxima	14.2
64947	7	Sololá	701	Sololá	3	Barraneche	12	Diciembre	2023-05-12T00:00:00	2024-11-06T06:00:00	3	Temperatura mínima	13.8
64948	7	Sololá	701	Sololá	3	Barraneche	12	Diciembre	2023-05-12T00:00:00	2024-11-06T06:00:00	5	Humedad	69
64949	7	Sololá	701	Sololá	3	Barraneche	12	Diciembre	2023-05-12T00:00:00	2024-11-06T06:00:00	6	Velocidad del viento	14.5
64950	7	Sololá	701	Sololá	3	Barraneche	12	Diciembre	2023-05-12T00:00:00	2024-11-06T06:00:00	7	Dirección del viento	14.48
64951	7	Sololá	701	Sololá	3	Barraneche	12	Diciembre	2023-05-12T00:00:00	2024-11-06T06:00:00	1	Precipitación	0.2
64952	7	Sololá	701	Sololá	3	Barraneche	12	Diciembre	2023-05-12T00:00:00	2024-11-06T06:00:00	8	Radiación solar	0
64953	7	Sololá	701	Sololá	3	Barraneche	12	Diciembre	2023-05-12T00:00:00	2024-11-06T07:00:00	2	Temperatura media	14.4
64954	7	Sololá	701	Sololá	3	Barraneche	12	Diciembre	2023-05-12T00:00:00	2024-11-06T07:00:00	4	Temperatura máxima	14.4
64955	7	Sololá	701	Sololá	3	Barraneche	12	Diciembre	2023-05-12T00:00:00	2024-11-06T07:00:00	3	Temperatura mínima	14
64956	7	Sololá	701	Sololá	3	Barraneche	12	Diciembre	2023-05-12T00:00:00	2024-11-06T07:00:00	5	Humedad	67
64957	7	Sololá	701	Sololá	3	Barraneche	12	Diciembre	2023-05-12T00:00:00	2024-11-06T07:00:00	6	Velocidad del viento	14.5
64958	7	Sololá	701	Sololá	3	Barraneche	12	Diciembre	2023-05-12T00:00:00	2024-11-06T07:00:00	7	Dirección del viento	14.48
64959	7	Sololá	701	Sololá	3	Barraneche	12	Diciembre	2023-05-12T00:00:00	2024-11-06T07:00:00	1	Precipitación	0
64960	7	Sololá	701	Sololá	3	Barraneche	12	Diciembre	2023-05-12T00:00:00	2024-11-06T07:00:00	8	Radiación solar	26
64961	7	Sololá	701	Sololá	3	Barraneche	12	Diciembre	2023-05-12T00:00:00	2024-11-06T08:00:00	2	Temperatura media	15.5
64962	7	Sololá	701	Sololá	3	Barraneche	12	Diciembre	2023-05-12T00:00:00	2024-11-06T08:00:00	4	Temperatura máxima	15.7
64963	7	Sololá	701	Sololá	3	Barraneche	12	Diciembre	2023-05-12T00:00:00	2024-11-06T08:00:00	3	Temperatura mínima	14.4
64964	7	Sololá	701	Sololá	3	Barraneche	12	Diciembre	2023-05-12T00:00:00	2024-11-06T08:00:00	5	Humedad	64
64965	7	Sololá	701	Sololá	3	Barraneche	12	Diciembre	2023-05-12T00:00:00	2024-11-06T08:00:00	6	Velocidad del viento	22.5
64966	7	Sololá	701	Sololá	3	Barraneche	12	Diciembre	2023-05-12T00:00:00	2024-11-06T08:00:00	7	Dirección del viento	22.53
64967	7	Sololá	701	Sololá	3	Barraneche	12	Diciembre	2023-05-12T00:00:00	2024-11-06T08:00:00	1	Precipitación	0
64968	7	Sololá	701	Sololá	3	Barraneche	12	Diciembre	2023-05-12T00:00:00	2024-11-06T08:00:00	8	Radiación solar	238
64969	7	Sololá	701	Sololá	3	Barraneche	12	Diciembre	2023-05-12T00:00:00	2024-11-06T09:00:00	2	Temperatura media	16.6
64970	7	Sololá	701	Sololá	3	Barraneche	12	Diciembre	2023-05-12T00:00:00	2024-11-06T09:00:00	4	Temperatura máxima	16.6
64971	7	Sololá	701	Sololá	3	Barraneche	12	Diciembre	2023-05-12T00:00:00	2024-11-06T09:00:00	3	Temperatura mínima	15.4
64972	7	Sololá	701	Sololá	3	Barraneche	12	Diciembre	2023-05-12T00:00:00	2024-11-06T09:00:00	5	Humedad	62
64973	7	Sololá	701	Sololá	3	Barraneche	12	Diciembre	2023-05-12T00:00:00	2024-11-06T09:00:00	6	Velocidad del viento	17.7
64974	7	Sololá	701	Sololá	3	Barraneche	12	Diciembre	2023-05-12T00:00:00	2024-11-06T09:00:00	7	Dirección del viento	17.7
64975	7	Sololá	701	Sololá	3	Barraneche	12	Diciembre	2023-05-12T00:00:00	2024-11-06T09:00:00	1	Precipitación	0
64976	7	Sololá	701	Sololá	3	Barraneche	12	Diciembre	2023-05-12T00:00:00	2024-11-06T09:00:00	8	Radiación solar	449
64977	7	Sololá	701	Sololá	3	Barraneche	12	Diciembre	2023-05-12T00:00:00	2024-11-06T10:00:00	2	Temperatura media	18.1
64978	7	Sololá	701	Sololá	3	Barraneche	12	Diciembre	2023-05-12T00:00:00	2024-11-06T10:00:00	4	Temperatura máxima	18.1
64979	7	Sololá	701	Sololá	3	Barraneche	12	Diciembre	2023-05-12T00:00:00	2024-11-06T10:00:00	3	Temperatura mínima	16.6
64980	7	Sololá	701	Sololá	3	Barraneche	12	Diciembre	2023-05-12T00:00:00	2024-11-06T10:00:00	5	Humedad	57
64981	7	Sololá	701	Sololá	3	Barraneche	12	Diciembre	2023-05-12T00:00:00	2024-11-06T10:00:00	6	Velocidad del viento	19.3
64982	7	Sololá	701	Sololá	3	Barraneche	12	Diciembre	2023-05-12T00:00:00	2024-11-06T10:00:00	7	Dirección del viento	19.31
64983	7	Sololá	701	Sololá	3	Barraneche	12	Diciembre	2023-05-12T00:00:00	2024-11-06T10:00:00	1	Precipitación	0
64984	7	Sololá	701	Sololá	3	Barraneche	12	Diciembre	2023-05-12T00:00:00	2024-11-06T10:00:00	8	Radiación solar	656
64985	7	Sololá	701	Sololá	3	Barraneche	12	Diciembre	2023-05-12T00:00:00	2024-11-06T11:00:00	2	Temperatura media	17.5
64986	7	Sololá	701	Sololá	3	Barraneche	12	Diciembre	2023-05-12T00:00:00	2024-11-06T11:00:00	4	Temperatura máxima	18.6
64987	7	Sololá	701	Sololá	3	Barraneche	12	Diciembre	2023-05-12T00:00:00	2024-11-06T11:00:00	3	Temperatura mínima	17.3
64988	7	Sololá	701	Sololá	3	Barraneche	12	Diciembre	2023-05-12T00:00:00	2024-11-06T11:00:00	5	Humedad	62
64989	7	Sololá	701	Sololá	3	Barraneche	12	Diciembre	2023-05-12T00:00:00	2024-11-06T11:00:00	6	Velocidad del viento	19.3
64990	7	Sololá	701	Sololá	3	Barraneche	12	Diciembre	2023-05-12T00:00:00	2024-11-06T11:00:00	7	Dirección del viento	19.31
64991	7	Sololá	701	Sololá	3	Barraneche	12	Diciembre	2023-05-12T00:00:00	2024-11-06T11:00:00	1	Precipitación	0
64992	7	Sololá	701	Sololá	3	Barraneche	12	Diciembre	2023-05-12T00:00:00	2024-11-06T11:00:00	8	Radiación solar	798
64993	7	Sololá	701	Sololá	3	Barraneche	12	Diciembre	2023-05-12T00:00:00	2024-11-06T12:00:00	2	Temperatura media	18
64994	7	Sololá	701	Sololá	3	Barraneche	12	Diciembre	2023-05-12T00:00:00	2024-11-06T12:00:00	4	Temperatura máxima	18.3
64995	7	Sololá	701	Sololá	3	Barraneche	12	Diciembre	2023-05-12T00:00:00	2024-11-06T12:00:00	3	Temperatura mínima	17.4
64996	7	Sololá	701	Sololá	3	Barraneche	12	Diciembre	2023-05-12T00:00:00	2024-11-06T12:00:00	5	Humedad	55
64997	7	Sololá	701	Sololá	3	Barraneche	12	Diciembre	2023-05-12T00:00:00	2024-11-06T12:00:00	6	Velocidad del viento	19.3
64998	7	Sololá	701	Sololá	3	Barraneche	12	Diciembre	2023-05-12T00:00:00	2024-11-06T12:00:00	7	Dirección del viento	19.31
64999	7	Sololá	701	Sololá	3	Barraneche	12	Diciembre	2023-05-12T00:00:00	2024-11-06T12:00:00	1	Precipitación	0
65000	7	Sololá	701	Sololá	3	Barraneche	12	Diciembre	2023-05-12T00:00:00	2024-11-06T12:00:00	8	Radiación solar	858
65001	7	Sololá	701	Sololá	3	Barraneche	12	Diciembre	2023-05-12T00:00:00	2024-11-06T13:00:00	2	Temperatura media	17.7
65002	7	Sololá	701	Sololá	3	Barraneche	12	Diciembre	2023-05-12T00:00:00	2024-11-06T13:00:00	4	Temperatura máxima	18.2
65003	7	Sololá	701	Sololá	3	Barraneche	12	Diciembre	2023-05-12T00:00:00	2024-11-06T13:00:00	3	Temperatura mínima	17.2
65004	7	Sololá	701	Sololá	3	Barraneche	12	Diciembre	2023-05-12T00:00:00	2024-11-06T13:00:00	5	Humedad	51
65005	7	Sololá	701	Sololá	3	Barraneche	12	Diciembre	2023-05-12T00:00:00	2024-11-06T13:00:00	6	Velocidad del viento	17.7
65006	7	Sololá	701	Sololá	3	Barraneche	12	Diciembre	2023-05-12T00:00:00	2024-11-06T13:00:00	7	Dirección del viento	17.7
65007	7	Sololá	701	Sololá	3	Barraneche	12	Diciembre	2023-05-12T00:00:00	2024-11-06T13:00:00	1	Precipitación	0
65008	7	Sololá	701	Sololá	3	Barraneche	12	Diciembre	2023-05-12T00:00:00	2024-11-06T13:00:00	8	Radiación solar	557
65009	7	Sololá	701	Sololá	3	Barraneche	12	Diciembre	2023-05-12T00:00:00	2024-11-06T14:00:00	2	Temperatura media	18.3
65010	7	Sololá	701	Sololá	3	Barraneche	12	Diciembre	2023-05-12T00:00:00	2024-11-06T14:00:00	4	Temperatura máxima	18.6
65011	7	Sololá	701	Sololá	3	Barraneche	12	Diciembre	2023-05-12T00:00:00	2024-11-06T14:00:00	3	Temperatura mínima	17.7
65012	7	Sololá	701	Sololá	3	Barraneche	12	Diciembre	2023-05-12T00:00:00	2024-11-06T14:00:00	5	Humedad	51
65013	7	Sololá	701	Sololá	3	Barraneche	12	Diciembre	2023-05-12T00:00:00	2024-11-06T14:00:00	6	Velocidad del viento	17.7
65014	7	Sololá	701	Sololá	3	Barraneche	12	Diciembre	2023-05-12T00:00:00	2024-11-06T14:00:00	7	Dirección del viento	17.7
65015	7	Sololá	701	Sololá	3	Barraneche	12	Diciembre	2023-05-12T00:00:00	2024-11-06T14:00:00	1	Precipitación	0
65016	7	Sololá	701	Sololá	3	Barraneche	12	Diciembre	2023-05-12T00:00:00	2024-11-06T14:00:00	8	Radiación solar	685
65017	7	Sololá	701	Sololá	3	Barraneche	12	Diciembre	2023-05-12T00:00:00	2024-11-06T15:00:00	2	Temperatura media	18.2
65018	7	Sololá	701	Sololá	3	Barraneche	12	Diciembre	2023-05-12T00:00:00	2024-11-06T15:00:00	4	Temperatura máxima	18.7
65019	7	Sololá	701	Sololá	3	Barraneche	12	Diciembre	2023-05-12T00:00:00	2024-11-06T15:00:00	3	Temperatura mínima	18.1
65020	7	Sololá	701	Sololá	3	Barraneche	12	Diciembre	2023-05-12T00:00:00	2024-11-06T15:00:00	5	Humedad	47
65021	7	Sololá	701	Sololá	3	Barraneche	12	Diciembre	2023-05-12T00:00:00	2024-11-06T15:00:00	6	Velocidad del viento	17.7
65022	7	Sololá	701	Sololá	3	Barraneche	12	Diciembre	2023-05-12T00:00:00	2024-11-06T15:00:00	7	Dirección del viento	17.7
65023	7	Sololá	701	Sololá	3	Barraneche	12	Diciembre	2023-05-12T00:00:00	2024-11-06T15:00:00	1	Precipitación	0
65024	7	Sololá	701	Sololá	3	Barraneche	12	Diciembre	2023-05-12T00:00:00	2024-11-06T15:00:00	8	Radiación solar	616
65025	7	Sololá	701	Sololá	3	Barraneche	12	Diciembre	2023-05-12T00:00:00	2024-11-06T16:00:00	2	Temperatura media	17.2
65026	7	Sololá	701	Sololá	3	Barraneche	12	Diciembre	2023-05-12T00:00:00	2024-11-06T16:00:00	4	Temperatura máxima	18.6
65027	7	Sololá	701	Sololá	3	Barraneche	12	Diciembre	2023-05-12T00:00:00	2024-11-06T16:00:00	3	Temperatura mínima	17.2
65028	7	Sololá	701	Sololá	3	Barraneche	12	Diciembre	2023-05-12T00:00:00	2024-11-06T16:00:00	5	Humedad	51
65029	7	Sololá	701	Sololá	3	Barraneche	12	Diciembre	2023-05-12T00:00:00	2024-11-06T16:00:00	6	Velocidad del viento	16.1
65030	7	Sololá	701	Sololá	3	Barraneche	12	Diciembre	2023-05-12T00:00:00	2024-11-06T16:00:00	7	Dirección del viento	16.09
65031	7	Sololá	701	Sololá	3	Barraneche	12	Diciembre	2023-05-12T00:00:00	2024-11-06T16:00:00	1	Precipitación	0
65032	7	Sololá	701	Sololá	3	Barraneche	12	Diciembre	2023-05-12T00:00:00	2024-11-06T16:00:00	8	Radiación solar	413
65033	7	Sololá	701	Sololá	3	Barraneche	12	Diciembre	2023-05-12T00:00:00	2024-11-06T17:00:00	2	Temperatura media	15.9
65034	7	Sololá	701	Sololá	3	Barraneche	12	Diciembre	2023-05-12T00:00:00	2024-11-06T17:00:00	4	Temperatura máxima	17.2
65035	7	Sololá	701	Sololá	3	Barraneche	12	Diciembre	2023-05-12T00:00:00	2024-11-06T17:00:00	3	Temperatura mínima	15.9
65036	7	Sololá	701	Sololá	3	Barraneche	12	Diciembre	2023-05-12T00:00:00	2024-11-06T17:00:00	5	Humedad	57
65037	7	Sololá	701	Sololá	3	Barraneche	12	Diciembre	2023-05-12T00:00:00	2024-11-06T17:00:00	6	Velocidad del viento	17.7
65038	7	Sololá	701	Sololá	3	Barraneche	12	Diciembre	2023-05-12T00:00:00	2024-11-06T17:00:00	7	Dirección del viento	17.7
65039	7	Sololá	701	Sololá	3	Barraneche	12	Diciembre	2023-05-12T00:00:00	2024-11-06T17:00:00	1	Precipitación	0
65040	7	Sololá	701	Sololá	3	Barraneche	12	Diciembre	2023-05-12T00:00:00	2024-11-06T17:00:00	8	Radiación solar	182
65041	7	Sololá	701	Sololá	3	Barraneche	12	Diciembre	2023-05-12T00:00:00	2024-11-06T18:00:00	2	Temperatura media	14.6
65042	7	Sololá	701	Sololá	3	Barraneche	12	Diciembre	2023-05-12T00:00:00	2024-11-06T18:00:00	4	Temperatura máxima	16
65043	7	Sololá	701	Sololá	3	Barraneche	12	Diciembre	2023-05-12T00:00:00	2024-11-06T18:00:00	3	Temperatura mínima	14.6
65044	7	Sololá	701	Sololá	3	Barraneche	12	Diciembre	2023-05-12T00:00:00	2024-11-06T18:00:00	5	Humedad	60
65045	7	Sololá	701	Sololá	3	Barraneche	12	Diciembre	2023-05-12T00:00:00	2024-11-06T18:00:00	6	Velocidad del viento	11.3
65046	7	Sololá	701	Sololá	3	Barraneche	12	Diciembre	2023-05-12T00:00:00	2024-11-06T18:00:00	7	Dirección del viento	11.27
65047	7	Sololá	701	Sololá	3	Barraneche	12	Diciembre	2023-05-12T00:00:00	2024-11-06T18:00:00	1	Precipitación	0
65048	7	Sololá	701	Sololá	3	Barraneche	12	Diciembre	2023-05-12T00:00:00	2024-11-06T18:00:00	8	Radiación solar	17
65049	7	Sololá	701	Sololá	3	Barraneche	12	Diciembre	2023-05-12T00:00:00	2024-11-06T19:00:00	2	Temperatura media	14.2
65050	7	Sololá	701	Sololá	3	Barraneche	12	Diciembre	2023-05-12T00:00:00	2024-11-06T19:00:00	4	Temperatura máxima	14.6
65051	7	Sololá	701	Sololá	3	Barraneche	12	Diciembre	2023-05-12T00:00:00	2024-11-06T19:00:00	3	Temperatura mínima	14.1
65052	7	Sololá	701	Sololá	3	Barraneche	12	Diciembre	2023-05-12T00:00:00	2024-11-06T19:00:00	5	Humedad	60
65053	7	Sololá	701	Sololá	3	Barraneche	12	Diciembre	2023-05-12T00:00:00	2024-11-06T19:00:00	6	Velocidad del viento	9.7
65054	7	Sololá	701	Sololá	3	Barraneche	12	Diciembre	2023-05-12T00:00:00	2024-11-06T19:00:00	7	Dirección del viento	9.66
65055	7	Sololá	701	Sololá	3	Barraneche	12	Diciembre	2023-05-12T00:00:00	2024-11-06T19:00:00	1	Precipitación	0
65056	7	Sololá	701	Sololá	3	Barraneche	12	Diciembre	2023-05-12T00:00:00	2024-11-06T19:00:00	8	Radiación solar	0
65057	7	Sololá	701	Sololá	3	Barraneche	12	Diciembre	2023-05-12T00:00:00	2024-11-06T20:00:00	2	Temperatura media	14.3
65058	7	Sololá	701	Sololá	3	Barraneche	12	Diciembre	2023-05-12T00:00:00	2024-11-06T20:00:00	4	Temperatura máxima	14.3
65059	7	Sololá	701	Sololá	3	Barraneche	12	Diciembre	2023-05-12T00:00:00	2024-11-06T20:00:00	3	Temperatura mínima	14.1
65060	7	Sololá	701	Sololá	3	Barraneche	12	Diciembre	2023-05-12T00:00:00	2024-11-06T20:00:00	5	Humedad	63
65061	7	Sololá	701	Sololá	3	Barraneche	12	Diciembre	2023-05-12T00:00:00	2024-11-06T20:00:00	6	Velocidad del viento	9.7
65062	7	Sololá	701	Sololá	3	Barraneche	12	Diciembre	2023-05-12T00:00:00	2024-11-06T20:00:00	7	Dirección del viento	9.66
65063	7	Sololá	701	Sololá	3	Barraneche	12	Diciembre	2023-05-12T00:00:00	2024-11-06T20:00:00	1	Precipitación	0
65064	7	Sololá	701	Sololá	3	Barraneche	12	Diciembre	2023-05-12T00:00:00	2024-11-06T20:00:00	8	Radiación solar	0
65065	7	Sololá	701	Sololá	3	Barraneche	12	Diciembre	2023-05-12T00:00:00	2024-11-06T21:00:00	2	Temperatura media	14.8
65066	7	Sololá	701	Sololá	3	Barraneche	12	Diciembre	2023-05-12T00:00:00	2024-11-06T21:00:00	4	Temperatura máxima	14.8
65067	7	Sololá	701	Sololá	3	Barraneche	12	Diciembre	2023-05-12T00:00:00	2024-11-06T21:00:00	3	Temperatura mínima	14.2
65068	7	Sololá	701	Sololá	3	Barraneche	12	Diciembre	2023-05-12T00:00:00	2024-11-06T21:00:00	5	Humedad	64
65069	7	Sololá	701	Sololá	3	Barraneche	12	Diciembre	2023-05-12T00:00:00	2024-11-06T21:00:00	6	Velocidad del viento	12.9
65070	7	Sololá	701	Sololá	3	Barraneche	12	Diciembre	2023-05-12T00:00:00	2024-11-06T21:00:00	7	Dirección del viento	12.87
65071	7	Sololá	701	Sololá	3	Barraneche	12	Diciembre	2023-05-12T00:00:00	2024-11-06T21:00:00	1	Precipitación	0
65072	7	Sololá	701	Sololá	3	Barraneche	12	Diciembre	2023-05-12T00:00:00	2024-11-06T21:00:00	8	Radiación solar	0
65073	7	Sololá	701	Sololá	3	Barraneche	12	Diciembre	2023-05-12T00:00:00	2024-11-06T22:00:00	2	Temperatura media	14.4
65074	7	Sololá	701	Sololá	3	Barraneche	12	Diciembre	2023-05-12T00:00:00	2024-11-06T22:00:00	4	Temperatura máxima	14.8
65075	7	Sololá	701	Sololá	3	Barraneche	12	Diciembre	2023-05-12T00:00:00	2024-11-06T22:00:00	3	Temperatura mínima	14.4
65076	7	Sololá	701	Sololá	3	Barraneche	12	Diciembre	2023-05-12T00:00:00	2024-11-06T22:00:00	5	Humedad	59
65077	7	Sololá	701	Sololá	3	Barraneche	12	Diciembre	2023-05-12T00:00:00	2024-11-06T22:00:00	6	Velocidad del viento	11.3
65078	7	Sololá	701	Sololá	3	Barraneche	12	Diciembre	2023-05-12T00:00:00	2024-11-06T22:00:00	7	Dirección del viento	11.27
65079	7	Sololá	701	Sololá	3	Barraneche	12	Diciembre	2023-05-12T00:00:00	2024-11-06T22:00:00	1	Precipitación	0
65080	7	Sololá	701	Sololá	3	Barraneche	12	Diciembre	2023-05-12T00:00:00	2024-11-06T22:00:00	8	Radiación solar	0
65081	7	Sololá	701	Sololá	3	Barraneche	12	Diciembre	2023-05-12T00:00:00	2024-11-06T23:00:00	2	Temperatura media	14
65082	7	Sololá	701	Sololá	3	Barraneche	12	Diciembre	2023-05-12T00:00:00	2024-11-06T23:00:00	4	Temperatura máxima	14.4
65083	7	Sololá	701	Sololá	3	Barraneche	12	Diciembre	2023-05-12T00:00:00	2024-11-06T23:00:00	3	Temperatura mínima	13.9
65084	7	Sololá	701	Sololá	3	Barraneche	12	Diciembre	2023-05-12T00:00:00	2024-11-06T23:00:00	5	Humedad	49
65085	7	Sololá	701	Sololá	3	Barraneche	12	Diciembre	2023-05-12T00:00:00	2024-11-06T23:00:00	6	Velocidad del viento	11.3
65086	7	Sololá	701	Sololá	3	Barraneche	12	Diciembre	2023-05-12T00:00:00	2024-11-06T23:00:00	7	Dirección del viento	11.27
65087	7	Sololá	701	Sololá	3	Barraneche	12	Diciembre	2023-05-12T00:00:00	2024-11-06T23:00:00	1	Precipitación	0
65088	7	Sololá	701	Sololá	3	Barraneche	12	Diciembre	2023-05-12T00:00:00	2024-11-06T23:00:00	8	Radiación solar	0
65089	7	Sololá	701	Sololá	3	Barraneche	12	Diciembre	2023-06-12T00:00:00	2024-11-06T00:00:00	2	Temperatura media	13.6
65090	7	Sololá	701	Sololá	3	Barraneche	12	Diciembre	2023-06-12T00:00:00	2024-11-06T00:00:00	4	Temperatura máxima	14.2
65091	7	Sololá	701	Sololá	3	Barraneche	12	Diciembre	2023-06-12T00:00:00	2024-11-06T00:00:00	3	Temperatura mínima	12.8
65092	7	Sololá	701	Sololá	3	Barraneche	12	Diciembre	2023-06-12T00:00:00	2024-11-06T00:00:00	5	Humedad	61
65093	7	Sololá	701	Sololá	3	Barraneche	12	Diciembre	2023-06-12T00:00:00	2024-11-06T00:00:00	6	Velocidad del viento	19.3
65094	7	Sololá	701	Sololá	3	Barraneche	12	Diciembre	2023-06-12T00:00:00	2024-11-06T00:00:00	7	Dirección del viento	19.31
65095	7	Sololá	701	Sololá	3	Barraneche	12	Diciembre	2023-06-12T00:00:00	2024-11-06T00:00:00	1	Precipitación	0
65096	7	Sololá	701	Sololá	3	Barraneche	12	Diciembre	2023-06-12T00:00:00	2024-11-06T00:00:00	8	Radiación solar	0
65097	7	Sololá	701	Sololá	3	Barraneche	12	Diciembre	2023-06-12T00:00:00	2024-11-06T01:00:00	2	Temperatura media	14.2
65098	7	Sololá	701	Sololá	3	Barraneche	12	Diciembre	2023-06-12T00:00:00	2024-11-06T01:00:00	4	Temperatura máxima	14.5
65099	7	Sololá	701	Sololá	3	Barraneche	12	Diciembre	2023-06-12T00:00:00	2024-11-06T01:00:00	3	Temperatura mínima	13.6
65100	7	Sololá	701	Sololá	3	Barraneche	12	Diciembre	2023-06-12T00:00:00	2024-11-06T01:00:00	5	Humedad	63
65101	7	Sololá	701	Sololá	3	Barraneche	12	Diciembre	2023-06-12T00:00:00	2024-11-06T01:00:00	6	Velocidad del viento	16.1
65102	7	Sololá	701	Sololá	3	Barraneche	12	Diciembre	2023-06-12T00:00:00	2024-11-06T01:00:00	7	Dirección del viento	16.09
65103	7	Sololá	701	Sololá	3	Barraneche	12	Diciembre	2023-06-12T00:00:00	2024-11-06T01:00:00	1	Precipitación	0
65104	7	Sololá	701	Sololá	3	Barraneche	12	Diciembre	2023-06-12T00:00:00	2024-11-06T01:00:00	8	Radiación solar	0
65105	7	Sololá	701	Sololá	3	Barraneche	12	Diciembre	2023-06-12T00:00:00	2024-11-06T02:00:00	2	Temperatura media	13.8
65106	7	Sololá	701	Sololá	3	Barraneche	12	Diciembre	2023-06-12T00:00:00	2024-11-06T02:00:00	4	Temperatura máxima	14.2
65107	7	Sololá	701	Sololá	3	Barraneche	12	Diciembre	2023-06-12T00:00:00	2024-11-06T02:00:00	3	Temperatura mínima	13.8
65108	7	Sololá	701	Sololá	3	Barraneche	12	Diciembre	2023-06-12T00:00:00	2024-11-06T02:00:00	5	Humedad	66
65109	7	Sololá	701	Sololá	3	Barraneche	12	Diciembre	2023-06-12T00:00:00	2024-11-06T02:00:00	6	Velocidad del viento	11.3
65110	7	Sololá	701	Sololá	3	Barraneche	12	Diciembre	2023-06-12T00:00:00	2024-11-06T02:00:00	7	Dirección del viento	11.27
65111	7	Sololá	701	Sololá	3	Barraneche	12	Diciembre	2023-06-12T00:00:00	2024-11-06T02:00:00	1	Precipitación	0
65112	7	Sololá	701	Sololá	3	Barraneche	12	Diciembre	2023-06-12T00:00:00	2024-11-06T02:00:00	8	Radiación solar	0
65113	7	Sololá	701	Sololá	3	Barraneche	12	Diciembre	2023-06-12T00:00:00	2024-11-06T03:00:00	2	Temperatura media	13.1
65114	7	Sololá	701	Sololá	3	Barraneche	12	Diciembre	2023-06-12T00:00:00	2024-11-06T03:00:00	4	Temperatura máxima	13.8
65115	7	Sololá	701	Sololá	3	Barraneche	12	Diciembre	2023-06-12T00:00:00	2024-11-06T03:00:00	3	Temperatura mínima	12.7
65116	7	Sololá	701	Sololá	3	Barraneche	12	Diciembre	2023-06-12T00:00:00	2024-11-06T03:00:00	5	Humedad	68
65117	7	Sololá	701	Sololá	3	Barraneche	12	Diciembre	2023-06-12T00:00:00	2024-11-06T03:00:00	6	Velocidad del viento	11.3
65118	7	Sololá	701	Sololá	3	Barraneche	12	Diciembre	2023-06-12T00:00:00	2024-11-06T03:00:00	7	Dirección del viento	11.27
65119	7	Sololá	701	Sololá	3	Barraneche	12	Diciembre	2023-06-12T00:00:00	2024-11-06T03:00:00	1	Precipitación	0
65120	7	Sololá	701	Sololá	3	Barraneche	12	Diciembre	2023-06-12T00:00:00	2024-11-06T03:00:00	8	Radiación solar	0
65121	7	Sololá	701	Sololá	3	Barraneche	12	Diciembre	2023-06-12T00:00:00	2024-11-06T04:00:00	2	Temperatura media	13.3
65122	7	Sololá	701	Sololá	3	Barraneche	12	Diciembre	2023-06-12T00:00:00	2024-11-06T04:00:00	4	Temperatura máxima	13.7
65123	7	Sololá	701	Sololá	3	Barraneche	12	Diciembre	2023-06-12T00:00:00	2024-11-06T04:00:00	3	Temperatura mínima	13.1
65124	7	Sololá	701	Sololá	3	Barraneche	12	Diciembre	2023-06-12T00:00:00	2024-11-06T04:00:00	5	Humedad	68
65125	7	Sololá	701	Sololá	3	Barraneche	12	Diciembre	2023-06-12T00:00:00	2024-11-06T04:00:00	6	Velocidad del viento	12.9
65126	7	Sololá	701	Sololá	3	Barraneche	12	Diciembre	2023-06-12T00:00:00	2024-11-06T04:00:00	7	Dirección del viento	12.87
65127	7	Sololá	701	Sololá	3	Barraneche	12	Diciembre	2023-06-12T00:00:00	2024-11-06T04:00:00	1	Precipitación	0
65128	7	Sololá	701	Sololá	3	Barraneche	12	Diciembre	2023-06-12T00:00:00	2024-11-06T04:00:00	8	Radiación solar	0
65129	7	Sololá	701	Sololá	3	Barraneche	12	Diciembre	2023-06-12T00:00:00	2024-11-06T05:00:00	2	Temperatura media	13.4
65130	7	Sololá	701	Sololá	3	Barraneche	12	Diciembre	2023-06-12T00:00:00	2024-11-06T05:00:00	4	Temperatura máxima	13.9
65131	7	Sololá	701	Sololá	3	Barraneche	12	Diciembre	2023-06-12T00:00:00	2024-11-06T05:00:00	3	Temperatura mínima	13.2
65132	7	Sololá	701	Sololá	3	Barraneche	12	Diciembre	2023-06-12T00:00:00	2024-11-06T05:00:00	5	Humedad	67
65133	7	Sololá	701	Sololá	3	Barraneche	12	Diciembre	2023-06-12T00:00:00	2024-11-06T05:00:00	6	Velocidad del viento	17.7
65134	7	Sololá	701	Sololá	3	Barraneche	12	Diciembre	2023-06-12T00:00:00	2024-11-06T05:00:00	7	Dirección del viento	17.7
65135	7	Sololá	701	Sololá	3	Barraneche	12	Diciembre	2023-06-12T00:00:00	2024-11-06T05:00:00	1	Precipitación	0
65136	7	Sololá	701	Sololá	3	Barraneche	12	Diciembre	2023-06-12T00:00:00	2024-11-06T05:00:00	8	Radiación solar	0
65137	7	Sololá	701	Sololá	3	Barraneche	12	Diciembre	2023-06-12T00:00:00	2024-11-06T06:00:00	2	Temperatura media	13.3
65138	7	Sololá	701	Sololá	3	Barraneche	12	Diciembre	2023-06-12T00:00:00	2024-11-06T06:00:00	4	Temperatura máxima	13.5
65139	7	Sololá	701	Sololá	3	Barraneche	12	Diciembre	2023-06-12T00:00:00	2024-11-06T06:00:00	3	Temperatura mínima	12.8
65140	7	Sololá	701	Sololá	3	Barraneche	12	Diciembre	2023-06-12T00:00:00	2024-11-06T06:00:00	5	Humedad	67
65141	7	Sololá	701	Sololá	3	Barraneche	12	Diciembre	2023-06-12T00:00:00	2024-11-06T06:00:00	6	Velocidad del viento	19.3
65142	7	Sololá	701	Sololá	3	Barraneche	12	Diciembre	2023-06-12T00:00:00	2024-11-06T06:00:00	7	Dirección del viento	19.31
65143	7	Sololá	701	Sololá	3	Barraneche	12	Diciembre	2023-06-12T00:00:00	2024-11-06T06:00:00	1	Precipitación	0
65144	7	Sololá	701	Sololá	3	Barraneche	12	Diciembre	2023-06-12T00:00:00	2024-11-06T06:00:00	8	Radiación solar	0
65145	7	Sololá	701	Sololá	3	Barraneche	12	Diciembre	2023-06-12T00:00:00	2024-11-06T07:00:00	2	Temperatura media	13.4
65146	7	Sololá	701	Sololá	3	Barraneche	12	Diciembre	2023-06-12T00:00:00	2024-11-06T07:00:00	4	Temperatura máxima	13.4
65147	7	Sololá	701	Sololá	3	Barraneche	12	Diciembre	2023-06-12T00:00:00	2024-11-06T07:00:00	3	Temperatura mínima	12.7
65148	7	Sololá	701	Sololá	3	Barraneche	12	Diciembre	2023-06-12T00:00:00	2024-11-06T07:00:00	5	Humedad	66
65149	7	Sololá	701	Sololá	3	Barraneche	12	Diciembre	2023-06-12T00:00:00	2024-11-06T07:00:00	6	Velocidad del viento	25.7
65150	7	Sololá	701	Sololá	3	Barraneche	12	Diciembre	2023-06-12T00:00:00	2024-11-06T07:00:00	7	Dirección del viento	25.75
65151	7	Sololá	701	Sololá	3	Barraneche	12	Diciembre	2023-06-12T00:00:00	2024-11-06T07:00:00	1	Precipitación	0
65152	7	Sololá	701	Sololá	3	Barraneche	12	Diciembre	2023-06-12T00:00:00	2024-11-06T07:00:00	8	Radiación solar	20
65153	7	Sololá	701	Sololá	3	Barraneche	12	Diciembre	2023-06-12T00:00:00	2024-11-06T08:00:00	2	Temperatura media	13.3
65154	7	Sololá	701	Sololá	3	Barraneche	12	Diciembre	2023-06-12T00:00:00	2024-11-06T08:00:00	4	Temperatura máxima	13.8
65155	7	Sololá	701	Sololá	3	Barraneche	12	Diciembre	2023-06-12T00:00:00	2024-11-06T08:00:00	3	Temperatura mínima	13.2
65156	7	Sololá	701	Sololá	3	Barraneche	12	Diciembre	2023-06-12T00:00:00	2024-11-06T08:00:00	5	Humedad	69
65157	7	Sololá	701	Sololá	3	Barraneche	12	Diciembre	2023-06-12T00:00:00	2024-11-06T08:00:00	6	Velocidad del viento	25.7
65158	7	Sololá	701	Sololá	3	Barraneche	12	Diciembre	2023-06-12T00:00:00	2024-11-06T08:00:00	7	Dirección del viento	25.75
65159	7	Sololá	701	Sololá	3	Barraneche	12	Diciembre	2023-06-12T00:00:00	2024-11-06T08:00:00	1	Precipitación	0
65160	7	Sololá	701	Sololá	3	Barraneche	12	Diciembre	2023-06-12T00:00:00	2024-11-06T08:00:00	8	Radiación solar	182
65161	7	Sololá	701	Sololá	3	Barraneche	12	Diciembre	2023-06-12T00:00:00	2024-11-06T09:00:00	2	Temperatura media	14.7
65162	7	Sololá	701	Sololá	3	Barraneche	12	Diciembre	2023-06-12T00:00:00	2024-11-06T09:00:00	4	Temperatura máxima	14.7
65163	7	Sololá	701	Sololá	3	Barraneche	12	Diciembre	2023-06-12T00:00:00	2024-11-06T09:00:00	3	Temperatura mínima	13.3
65164	7	Sololá	701	Sololá	3	Barraneche	12	Diciembre	2023-06-12T00:00:00	2024-11-06T09:00:00	5	Humedad	64
65165	7	Sololá	701	Sololá	3	Barraneche	12	Diciembre	2023-06-12T00:00:00	2024-11-06T09:00:00	6	Velocidad del viento	27.4
65166	7	Sololá	701	Sololá	3	Barraneche	12	Diciembre	2023-06-12T00:00:00	2024-11-06T09:00:00	7	Dirección del viento	27.36
65167	7	Sololá	701	Sololá	3	Barraneche	12	Diciembre	2023-06-12T00:00:00	2024-11-06T09:00:00	1	Precipitación	0
65168	7	Sololá	701	Sololá	3	Barraneche	12	Diciembre	2023-06-12T00:00:00	2024-11-06T09:00:00	8	Radiación solar	481
65169	7	Sololá	701	Sololá	3	Barraneche	12	Diciembre	2023-06-12T00:00:00	2024-11-06T10:00:00	2	Temperatura media	14.4
65170	7	Sololá	701	Sololá	3	Barraneche	12	Diciembre	2023-06-12T00:00:00	2024-11-06T10:00:00	4	Temperatura máxima	14.9
65171	7	Sololá	701	Sololá	3	Barraneche	12	Diciembre	2023-06-12T00:00:00	2024-11-06T10:00:00	3	Temperatura mínima	14.2
65172	7	Sololá	701	Sololá	3	Barraneche	12	Diciembre	2023-06-12T00:00:00	2024-11-06T10:00:00	5	Humedad	64
65173	7	Sololá	701	Sololá	3	Barraneche	12	Diciembre	2023-06-12T00:00:00	2024-11-06T10:00:00	6	Velocidad del viento	25.7
65174	7	Sololá	701	Sololá	3	Barraneche	12	Diciembre	2023-06-12T00:00:00	2024-11-06T10:00:00	7	Dirección del viento	25.75
65175	7	Sololá	701	Sololá	3	Barraneche	12	Diciembre	2023-06-12T00:00:00	2024-11-06T10:00:00	1	Precipitación	0
65176	7	Sololá	701	Sololá	3	Barraneche	12	Diciembre	2023-06-12T00:00:00	2024-11-06T10:00:00	8	Radiación solar	671
65177	7	Sololá	701	Sololá	3	Barraneche	12	Diciembre	2023-06-12T00:00:00	2024-11-06T11:00:00	2	Temperatura media	15.6
65178	7	Sololá	701	Sololá	3	Barraneche	12	Diciembre	2023-06-12T00:00:00	2024-11-06T11:00:00	4	Temperatura máxima	15.9
65179	7	Sololá	701	Sololá	3	Barraneche	12	Diciembre	2023-06-12T00:00:00	2024-11-06T11:00:00	3	Temperatura mínima	14.3
65180	7	Sololá	701	Sololá	3	Barraneche	12	Diciembre	2023-06-12T00:00:00	2024-11-06T11:00:00	5	Humedad	59
65181	7	Sololá	701	Sololá	3	Barraneche	12	Diciembre	2023-06-12T00:00:00	2024-11-06T11:00:00	6	Velocidad del viento	29
65182	7	Sololá	701	Sololá	3	Barraneche	12	Diciembre	2023-06-12T00:00:00	2024-11-06T11:00:00	7	Dirección del viento	28.97
65183	7	Sololá	701	Sololá	3	Barraneche	12	Diciembre	2023-06-12T00:00:00	2024-11-06T11:00:00	1	Precipitación	0
65184	7	Sololá	701	Sololá	3	Barraneche	12	Diciembre	2023-06-12T00:00:00	2024-11-06T11:00:00	8	Radiación solar	876
65185	7	Sololá	701	Sololá	3	Barraneche	12	Diciembre	2023-06-12T00:00:00	2024-11-06T12:00:00	2	Temperatura media	15.6
65186	7	Sololá	701	Sololá	3	Barraneche	12	Diciembre	2023-06-12T00:00:00	2024-11-06T12:00:00	4	Temperatura máxima	15.9
65187	7	Sololá	701	Sololá	3	Barraneche	12	Diciembre	2023-06-12T00:00:00	2024-11-06T12:00:00	3	Temperatura mínima	14.7
65188	7	Sololá	701	Sololá	3	Barraneche	12	Diciembre	2023-06-12T00:00:00	2024-11-06T12:00:00	5	Humedad	53
65189	7	Sololá	701	Sololá	3	Barraneche	12	Diciembre	2023-06-12T00:00:00	2024-11-06T12:00:00	6	Velocidad del viento	27.4
65190	7	Sololá	701	Sololá	3	Barraneche	12	Diciembre	2023-06-12T00:00:00	2024-11-06T12:00:00	7	Dirección del viento	27.36
65191	7	Sololá	701	Sololá	3	Barraneche	12	Diciembre	2023-06-12T00:00:00	2024-11-06T12:00:00	1	Precipitación	0
65192	7	Sololá	701	Sololá	3	Barraneche	12	Diciembre	2023-06-12T00:00:00	2024-11-06T12:00:00	8	Radiación solar	773
65193	7	Sololá	701	Sololá	3	Barraneche	12	Diciembre	2023-06-12T00:00:00	2024-11-06T13:00:00	2	Temperatura media	14.8
65194	7	Sololá	701	Sololá	3	Barraneche	12	Diciembre	2023-06-12T00:00:00	2024-11-06T13:00:00	4	Temperatura máxima	16.1
65195	7	Sololá	701	Sololá	3	Barraneche	12	Diciembre	2023-06-12T00:00:00	2024-11-06T13:00:00	3	Temperatura mínima	14.6
65196	7	Sololá	701	Sololá	3	Barraneche	12	Diciembre	2023-06-12T00:00:00	2024-11-06T13:00:00	5	Humedad	55
65197	7	Sololá	701	Sololá	3	Barraneche	12	Diciembre	2023-06-12T00:00:00	2024-11-06T13:00:00	6	Velocidad del viento	24.1
65198	7	Sololá	701	Sololá	3	Barraneche	12	Diciembre	2023-06-12T00:00:00	2024-11-06T13:00:00	7	Dirección del viento	24.14
65199	7	Sololá	701	Sololá	3	Barraneche	12	Diciembre	2023-06-12T00:00:00	2024-11-06T13:00:00	1	Precipitación	0
65200	7	Sololá	701	Sololá	3	Barraneche	12	Diciembre	2023-06-12T00:00:00	2024-11-06T13:00:00	8	Radiación solar	273
65201	7	Sololá	701	Sololá	3	Barraneche	12	Diciembre	2023-06-12T00:00:00	2024-11-06T14:00:00	2	Temperatura media	14.9
65202	7	Sololá	701	Sololá	3	Barraneche	12	Diciembre	2023-06-12T00:00:00	2024-11-06T14:00:00	4	Temperatura máxima	16.1
65203	7	Sololá	701	Sololá	3	Barraneche	12	Diciembre	2023-06-12T00:00:00	2024-11-06T14:00:00	3	Temperatura mínima	14.8
65204	7	Sololá	701	Sololá	3	Barraneche	12	Diciembre	2023-06-12T00:00:00	2024-11-06T14:00:00	5	Humedad	54
65205	7	Sololá	701	Sololá	3	Barraneche	12	Diciembre	2023-06-12T00:00:00	2024-11-06T14:00:00	6	Velocidad del viento	24.1
65206	7	Sololá	701	Sololá	3	Barraneche	12	Diciembre	2023-06-12T00:00:00	2024-11-06T14:00:00	7	Dirección del viento	24.14
65207	7	Sololá	701	Sololá	3	Barraneche	12	Diciembre	2023-06-12T00:00:00	2024-11-06T14:00:00	1	Precipitación	0
65208	7	Sololá	701	Sololá	3	Barraneche	12	Diciembre	2023-06-12T00:00:00	2024-11-06T14:00:00	8	Radiación solar	393
65209	7	Sololá	701	Sololá	3	Barraneche	12	Diciembre	2023-06-12T00:00:00	2024-11-06T15:00:00	2	Temperatura media	15.2
65210	7	Sololá	701	Sololá	3	Barraneche	12	Diciembre	2023-06-12T00:00:00	2024-11-06T15:00:00	4	Temperatura máxima	15.4
65211	7	Sololá	701	Sololá	3	Barraneche	12	Diciembre	2023-06-12T00:00:00	2024-11-06T15:00:00	3	Temperatura mínima	14.7
65212	7	Sololá	701	Sololá	3	Barraneche	12	Diciembre	2023-06-12T00:00:00	2024-11-06T15:00:00	5	Humedad	52
65213	7	Sololá	701	Sololá	3	Barraneche	12	Diciembre	2023-06-12T00:00:00	2024-11-06T15:00:00	6	Velocidad del viento	24.1
65214	7	Sololá	701	Sololá	3	Barraneche	12	Diciembre	2023-06-12T00:00:00	2024-11-06T15:00:00	7	Dirección del viento	24.14
65215	7	Sololá	701	Sololá	3	Barraneche	12	Diciembre	2023-06-12T00:00:00	2024-11-06T15:00:00	1	Precipitación	0
65216	7	Sololá	701	Sololá	3	Barraneche	12	Diciembre	2023-06-12T00:00:00	2024-11-06T15:00:00	8	Radiación solar	355
65217	7	Sololá	701	Sololá	3	Barraneche	12	Diciembre	2023-06-12T00:00:00	2024-11-06T16:00:00	2	Temperatura media	14.6
65218	7	Sololá	701	Sololá	3	Barraneche	12	Diciembre	2023-06-12T00:00:00	2024-11-06T16:00:00	4	Temperatura máxima	15.3
65219	7	Sololá	701	Sololá	3	Barraneche	12	Diciembre	2023-06-12T00:00:00	2024-11-06T16:00:00	3	Temperatura mínima	14.6
65220	7	Sololá	701	Sololá	3	Barraneche	12	Diciembre	2023-06-12T00:00:00	2024-11-06T16:00:00	5	Humedad	52
65221	7	Sololá	701	Sololá	3	Barraneche	12	Diciembre	2023-06-12T00:00:00	2024-11-06T16:00:00	6	Velocidad del viento	27.4
65222	7	Sololá	701	Sololá	3	Barraneche	12	Diciembre	2023-06-12T00:00:00	2024-11-06T16:00:00	7	Dirección del viento	27.36
65223	7	Sololá	701	Sololá	3	Barraneche	12	Diciembre	2023-06-12T00:00:00	2024-11-06T16:00:00	1	Precipitación	0
65224	7	Sololá	701	Sololá	3	Barraneche	12	Diciembre	2023-06-12T00:00:00	2024-11-06T16:00:00	8	Radiación solar	403
65225	7	Sololá	701	Sololá	3	Barraneche	12	Diciembre	2023-06-12T00:00:00	2024-11-06T17:00:00	2	Temperatura media	14.2
65226	7	Sololá	701	Sololá	3	Barraneche	12	Diciembre	2023-06-12T00:00:00	2024-11-06T17:00:00	4	Temperatura máxima	14.7
65227	7	Sololá	701	Sololá	3	Barraneche	12	Diciembre	2023-06-12T00:00:00	2024-11-06T17:00:00	3	Temperatura mínima	13.6
65228	7	Sololá	701	Sololá	3	Barraneche	12	Diciembre	2023-06-12T00:00:00	2024-11-06T17:00:00	5	Humedad	54
65229	7	Sololá	701	Sololá	3	Barraneche	12	Diciembre	2023-06-12T00:00:00	2024-11-06T17:00:00	6	Velocidad del viento	17.7
65230	7	Sololá	701	Sololá	3	Barraneche	12	Diciembre	2023-06-12T00:00:00	2024-11-06T17:00:00	7	Dirección del viento	17.7
65231	7	Sololá	701	Sololá	3	Barraneche	12	Diciembre	2023-06-12T00:00:00	2024-11-06T17:00:00	1	Precipitación	0
65232	7	Sololá	701	Sololá	3	Barraneche	12	Diciembre	2023-06-12T00:00:00	2024-11-06T17:00:00	8	Radiación solar	87
65233	7	Sololá	701	Sololá	3	Barraneche	12	Diciembre	2023-06-12T00:00:00	2024-11-06T18:00:00	2	Temperatura media	12.4
65234	7	Sololá	701	Sololá	3	Barraneche	12	Diciembre	2023-06-12T00:00:00	2024-11-06T18:00:00	4	Temperatura máxima	14.2
65235	7	Sololá	701	Sololá	3	Barraneche	12	Diciembre	2023-06-12T00:00:00	2024-11-06T18:00:00	3	Temperatura mínima	12.4
65236	7	Sololá	701	Sololá	3	Barraneche	12	Diciembre	2023-06-12T00:00:00	2024-11-06T18:00:00	5	Humedad	63
65237	7	Sololá	701	Sololá	3	Barraneche	12	Diciembre	2023-06-12T00:00:00	2024-11-06T18:00:00	6	Velocidad del viento	27.4
65238	7	Sololá	701	Sololá	3	Barraneche	12	Diciembre	2023-06-12T00:00:00	2024-11-06T18:00:00	7	Dirección del viento	27.36
65239	7	Sololá	701	Sololá	3	Barraneche	12	Diciembre	2023-06-12T00:00:00	2024-11-06T18:00:00	1	Precipitación	0
65240	7	Sololá	701	Sololá	3	Barraneche	12	Diciembre	2023-06-12T00:00:00	2024-11-06T18:00:00	8	Radiación solar	23
65241	7	Sololá	701	Sololá	3	Barraneche	12	Diciembre	2023-06-12T00:00:00	2024-11-06T19:00:00	2	Temperatura media	13.8
65242	7	Sololá	701	Sololá	3	Barraneche	12	Diciembre	2023-06-12T00:00:00	2024-11-06T19:00:00	4	Temperatura máxima	13.8
65243	7	Sololá	701	Sololá	3	Barraneche	12	Diciembre	2023-06-12T00:00:00	2024-11-06T19:00:00	3	Temperatura mínima	12.3
65244	7	Sololá	701	Sololá	3	Barraneche	12	Diciembre	2023-06-12T00:00:00	2024-11-06T19:00:00	5	Humedad	56
65245	7	Sololá	701	Sololá	3	Barraneche	12	Diciembre	2023-06-12T00:00:00	2024-11-06T19:00:00	6	Velocidad del viento	27.4
65246	7	Sololá	701	Sololá	3	Barraneche	12	Diciembre	2023-06-12T00:00:00	2024-11-06T19:00:00	7	Dirección del viento	27.36
65247	7	Sololá	701	Sololá	3	Barraneche	12	Diciembre	2023-06-12T00:00:00	2024-11-06T19:00:00	1	Precipitación	0
65248	7	Sololá	701	Sololá	3	Barraneche	12	Diciembre	2023-06-12T00:00:00	2024-11-06T19:00:00	8	Radiación solar	0
65249	7	Sololá	701	Sololá	3	Barraneche	12	Diciembre	2023-06-12T00:00:00	2024-11-06T20:00:00	2	Temperatura media	13
65250	7	Sololá	701	Sololá	3	Barraneche	12	Diciembre	2023-06-12T00:00:00	2024-11-06T20:00:00	4	Temperatura máxima	13.9
65251	7	Sololá	701	Sololá	3	Barraneche	12	Diciembre	2023-06-12T00:00:00	2024-11-06T20:00:00	3	Temperatura mínima	12.7
65252	7	Sololá	701	Sololá	3	Barraneche	12	Diciembre	2023-06-12T00:00:00	2024-11-06T20:00:00	5	Humedad	63
65253	7	Sololá	701	Sololá	3	Barraneche	12	Diciembre	2023-06-12T00:00:00	2024-11-06T20:00:00	6	Velocidad del viento	25.7
65254	7	Sololá	701	Sololá	3	Barraneche	12	Diciembre	2023-06-12T00:00:00	2024-11-06T20:00:00	7	Dirección del viento	25.75
65255	7	Sololá	701	Sololá	3	Barraneche	12	Diciembre	2023-06-12T00:00:00	2024-11-06T20:00:00	1	Precipitación	0
65256	7	Sololá	701	Sololá	3	Barraneche	12	Diciembre	2023-06-12T00:00:00	2024-11-06T20:00:00	8	Radiación solar	0
65257	7	Sololá	701	Sololá	3	Barraneche	12	Diciembre	2023-06-12T00:00:00	2024-11-06T21:00:00	2	Temperatura media	13.3
65258	7	Sololá	701	Sololá	3	Barraneche	12	Diciembre	2023-06-12T00:00:00	2024-11-06T21:00:00	4	Temperatura máxima	13.3
65259	7	Sololá	701	Sololá	3	Barraneche	12	Diciembre	2023-06-12T00:00:00	2024-11-06T21:00:00	3	Temperatura mínima	12.9
65260	7	Sololá	701	Sololá	3	Barraneche	12	Diciembre	2023-06-12T00:00:00	2024-11-06T21:00:00	5	Humedad	62
65261	7	Sololá	701	Sololá	3	Barraneche	12	Diciembre	2023-06-12T00:00:00	2024-11-06T21:00:00	6	Velocidad del viento	25.7
65262	7	Sololá	701	Sololá	3	Barraneche	12	Diciembre	2023-06-12T00:00:00	2024-11-06T21:00:00	7	Dirección del viento	25.75
65263	7	Sololá	701	Sololá	3	Barraneche	12	Diciembre	2023-06-12T00:00:00	2024-11-06T21:00:00	1	Precipitación	0
65264	7	Sololá	701	Sololá	3	Barraneche	12	Diciembre	2023-06-12T00:00:00	2024-11-06T21:00:00	8	Radiación solar	0
65265	7	Sololá	701	Sololá	3	Barraneche	12	Diciembre	2023-06-12T00:00:00	2024-11-06T22:00:00	2	Temperatura media	13.3
65266	7	Sololá	701	Sololá	3	Barraneche	12	Diciembre	2023-06-12T00:00:00	2024-11-06T22:00:00	4	Temperatura máxima	13.4
65267	7	Sololá	701	Sololá	3	Barraneche	12	Diciembre	2023-06-12T00:00:00	2024-11-06T22:00:00	3	Temperatura mínima	13.1
65268	7	Sololá	701	Sololá	3	Barraneche	12	Diciembre	2023-06-12T00:00:00	2024-11-06T22:00:00	5	Humedad	59
65269	7	Sololá	701	Sololá	3	Barraneche	12	Diciembre	2023-06-12T00:00:00	2024-11-06T22:00:00	6	Velocidad del viento	32.2
65270	7	Sololá	701	Sololá	3	Barraneche	12	Diciembre	2023-06-12T00:00:00	2024-11-06T22:00:00	7	Dirección del viento	32.19
65271	7	Sololá	701	Sololá	3	Barraneche	12	Diciembre	2023-06-12T00:00:00	2024-11-06T22:00:00	1	Precipitación	0
65272	7	Sololá	701	Sololá	3	Barraneche	12	Diciembre	2023-06-12T00:00:00	2024-11-06T22:00:00	8	Radiación solar	0
65273	7	Sololá	701	Sololá	3	Barraneche	12	Diciembre	2023-06-12T00:00:00	2024-11-06T23:00:00	2	Temperatura media	12.3
65274	7	Sololá	701	Sololá	3	Barraneche	12	Diciembre	2023-06-12T00:00:00	2024-11-06T23:00:00	4	Temperatura máxima	13.3
65275	7	Sololá	701	Sololá	3	Barraneche	12	Diciembre	2023-06-12T00:00:00	2024-11-06T23:00:00	3	Temperatura mínima	12.2
65276	7	Sololá	701	Sololá	3	Barraneche	12	Diciembre	2023-06-12T00:00:00	2024-11-06T23:00:00	5	Humedad	65
65277	7	Sololá	701	Sololá	3	Barraneche	12	Diciembre	2023-06-12T00:00:00	2024-11-06T23:00:00	6	Velocidad del viento	33.8
65278	7	Sololá	701	Sololá	3	Barraneche	12	Diciembre	2023-06-12T00:00:00	2024-11-06T23:00:00	7	Dirección del viento	33.8
65279	7	Sololá	701	Sololá	3	Barraneche	12	Diciembre	2023-06-12T00:00:00	2024-11-06T23:00:00	1	Precipitación	0
65280	7	Sololá	701	Sololá	3	Barraneche	12	Diciembre	2023-06-12T00:00:00	2024-11-06T23:00:00	8	Radiación solar	0
65281	7	Sololá	701	Sololá	3	Barraneche	12	Diciembre	2023-07-12T00:00:00	2024-11-06T00:00:00	2	Temperatura media	12.4
65282	7	Sololá	701	Sololá	3	Barraneche	12	Diciembre	2023-07-12T00:00:00	2024-11-06T00:00:00	4	Temperatura máxima	12.6
65283	7	Sololá	701	Sololá	3	Barraneche	12	Diciembre	2023-07-12T00:00:00	2024-11-06T00:00:00	3	Temperatura mínima	12.2
65284	7	Sololá	701	Sololá	3	Barraneche	12	Diciembre	2023-07-12T00:00:00	2024-11-06T00:00:00	5	Humedad	65
65285	7	Sololá	701	Sololá	3	Barraneche	12	Diciembre	2023-07-12T00:00:00	2024-11-06T00:00:00	6	Velocidad del viento	32.2
65286	7	Sololá	701	Sololá	3	Barraneche	12	Diciembre	2023-07-12T00:00:00	2024-11-06T00:00:00	7	Dirección del viento	32.19
65287	7	Sololá	701	Sololá	3	Barraneche	12	Diciembre	2023-07-12T00:00:00	2024-11-06T00:00:00	1	Precipitación	0
65288	7	Sololá	701	Sololá	3	Barraneche	12	Diciembre	2023-07-12T00:00:00	2024-11-06T00:00:00	8	Radiación solar	0
65289	7	Sololá	701	Sololá	3	Barraneche	12	Diciembre	2023-07-12T00:00:00	2024-11-06T01:00:00	2	Temperatura media	13.3
65290	7	Sololá	701	Sololá	3	Barraneche	12	Diciembre	2023-07-12T00:00:00	2024-11-06T01:00:00	4	Temperatura máxima	13.4
65291	7	Sololá	701	Sololá	3	Barraneche	12	Diciembre	2023-07-12T00:00:00	2024-11-06T01:00:00	3	Temperatura mínima	12.4
65292	7	Sololá	701	Sololá	3	Barraneche	12	Diciembre	2023-07-12T00:00:00	2024-11-06T01:00:00	5	Humedad	65
65293	7	Sololá	701	Sololá	3	Barraneche	12	Diciembre	2023-07-12T00:00:00	2024-11-06T01:00:00	6	Velocidad del viento	33.8
65294	7	Sololá	701	Sololá	3	Barraneche	12	Diciembre	2023-07-12T00:00:00	2024-11-06T01:00:00	7	Dirección del viento	33.8
65295	7	Sololá	701	Sololá	3	Barraneche	12	Diciembre	2023-07-12T00:00:00	2024-11-06T01:00:00	1	Precipitación	0.2
65296	7	Sololá	701	Sololá	3	Barraneche	12	Diciembre	2023-07-12T00:00:00	2024-11-06T01:00:00	8	Radiación solar	0
65297	7	Sololá	701	Sololá	3	Barraneche	12	Diciembre	2023-07-12T00:00:00	2024-11-06T02:00:00	2	Temperatura media	13.1
65298	7	Sololá	701	Sololá	3	Barraneche	12	Diciembre	2023-07-12T00:00:00	2024-11-06T02:00:00	4	Temperatura máxima	13.4
65299	7	Sololá	701	Sololá	3	Barraneche	12	Diciembre	2023-07-12T00:00:00	2024-11-06T02:00:00	3	Temperatura mínima	13
65300	7	Sololá	701	Sololá	3	Barraneche	12	Diciembre	2023-07-12T00:00:00	2024-11-06T02:00:00	5	Humedad	67
65301	7	Sololá	701	Sololá	3	Barraneche	12	Diciembre	2023-07-12T00:00:00	2024-11-06T02:00:00	6	Velocidad del viento	29
65302	7	Sololá	701	Sololá	3	Barraneche	12	Diciembre	2023-07-12T00:00:00	2024-11-06T02:00:00	7	Dirección del viento	28.97
65303	7	Sololá	701	Sololá	3	Barraneche	12	Diciembre	2023-07-12T00:00:00	2024-11-06T02:00:00	1	Precipitación	0
65304	7	Sololá	701	Sololá	3	Barraneche	12	Diciembre	2023-07-12T00:00:00	2024-11-06T02:00:00	8	Radiación solar	0
65305	7	Sololá	701	Sololá	3	Barraneche	12	Diciembre	2023-07-12T00:00:00	2024-11-06T03:00:00	2	Temperatura media	12.6
65306	7	Sololá	701	Sololá	3	Barraneche	12	Diciembre	2023-07-12T00:00:00	2024-11-06T03:00:00	4	Temperatura máxima	13.1
65307	7	Sololá	701	Sololá	3	Barraneche	12	Diciembre	2023-07-12T00:00:00	2024-11-06T03:00:00	3	Temperatura mínima	12.5
65308	7	Sololá	701	Sololá	3	Barraneche	12	Diciembre	2023-07-12T00:00:00	2024-11-06T03:00:00	5	Humedad	68
65309	7	Sololá	701	Sololá	3	Barraneche	12	Diciembre	2023-07-12T00:00:00	2024-11-06T03:00:00	6	Velocidad del viento	30.6
65310	7	Sololá	701	Sololá	3	Barraneche	12	Diciembre	2023-07-12T00:00:00	2024-11-06T03:00:00	7	Dirección del viento	30.58
65311	7	Sololá	701	Sololá	3	Barraneche	12	Diciembre	2023-07-12T00:00:00	2024-11-06T03:00:00	1	Precipitación	0
65312	7	Sololá	701	Sololá	3	Barraneche	12	Diciembre	2023-07-12T00:00:00	2024-11-06T03:00:00	8	Radiación solar	0
65313	7	Sololá	701	Sololá	3	Barraneche	12	Diciembre	2023-07-12T00:00:00	2024-11-06T04:00:00	2	Temperatura media	12
65314	7	Sololá	701	Sololá	3	Barraneche	12	Diciembre	2023-07-12T00:00:00	2024-11-06T04:00:00	4	Temperatura máxima	12.7
65315	7	Sololá	701	Sololá	3	Barraneche	12	Diciembre	2023-07-12T00:00:00	2024-11-06T04:00:00	3	Temperatura mínima	12
65316	7	Sololá	701	Sololá	3	Barraneche	12	Diciembre	2023-07-12T00:00:00	2024-11-06T04:00:00	5	Humedad	69
65317	7	Sololá	701	Sololá	3	Barraneche	12	Diciembre	2023-07-12T00:00:00	2024-11-06T04:00:00	6	Velocidad del viento	35.4
65318	7	Sololá	701	Sololá	3	Barraneche	12	Diciembre	2023-07-12T00:00:00	2024-11-06T04:00:00	7	Dirección del viento	35.41
65319	7	Sololá	701	Sololá	3	Barraneche	12	Diciembre	2023-07-12T00:00:00	2024-11-06T04:00:00	1	Precipitación	0
65320	7	Sololá	701	Sololá	3	Barraneche	12	Diciembre	2023-07-12T00:00:00	2024-11-06T04:00:00	8	Radiación solar	0
65321	7	Sololá	701	Sololá	3	Barraneche	12	Diciembre	2023-07-12T00:00:00	2024-11-06T05:00:00	2	Temperatura media	11.9
65322	7	Sololá	701	Sololá	3	Barraneche	12	Diciembre	2023-07-12T00:00:00	2024-11-06T05:00:00	4	Temperatura máxima	12.2
65323	7	Sololá	701	Sololá	3	Barraneche	12	Diciembre	2023-07-12T00:00:00	2024-11-06T05:00:00	3	Temperatura mínima	11.7
65324	7	Sololá	701	Sololá	3	Barraneche	12	Diciembre	2023-07-12T00:00:00	2024-11-06T05:00:00	5	Humedad	67
65325	7	Sololá	701	Sololá	3	Barraneche	12	Diciembre	2023-07-12T00:00:00	2024-11-06T05:00:00	6	Velocidad del viento	33.8
65326	7	Sololá	701	Sololá	3	Barraneche	12	Diciembre	2023-07-12T00:00:00	2024-11-06T05:00:00	7	Dirección del viento	33.8
65327	7	Sololá	701	Sololá	3	Barraneche	12	Diciembre	2023-07-12T00:00:00	2024-11-06T05:00:00	1	Precipitación	0
65328	7	Sololá	701	Sololá	3	Barraneche	12	Diciembre	2023-07-12T00:00:00	2024-11-06T05:00:00	8	Radiación solar	0
65329	7	Sololá	701	Sololá	3	Barraneche	12	Diciembre	2023-07-12T00:00:00	2024-11-06T06:00:00	2	Temperatura media	12.2
65330	7	Sololá	701	Sololá	3	Barraneche	12	Diciembre	2023-07-12T00:00:00	2024-11-06T06:00:00	4	Temperatura máxima	12.2
65331	7	Sololá	701	Sololá	3	Barraneche	12	Diciembre	2023-07-12T00:00:00	2024-11-06T06:00:00	3	Temperatura mínima	11.3
65332	7	Sololá	701	Sololá	3	Barraneche	12	Diciembre	2023-07-12T00:00:00	2024-11-06T06:00:00	5	Humedad	67
65333	7	Sololá	701	Sololá	3	Barraneche	12	Diciembre	2023-07-12T00:00:00	2024-11-06T06:00:00	6	Velocidad del viento	24.1
65334	7	Sololá	701	Sololá	3	Barraneche	12	Diciembre	2023-07-12T00:00:00	2024-11-06T06:00:00	7	Dirección del viento	24.14
65335	7	Sololá	701	Sololá	3	Barraneche	12	Diciembre	2023-07-12T00:00:00	2024-11-06T06:00:00	1	Precipitación	0
65336	7	Sololá	701	Sololá	3	Barraneche	12	Diciembre	2023-07-12T00:00:00	2024-11-06T06:00:00	8	Radiación solar	0
65337	7	Sololá	701	Sololá	3	Barraneche	12	Diciembre	2023-07-12T00:00:00	2024-11-06T07:00:00	2	Temperatura media	12.3
65338	7	Sololá	701	Sololá	3	Barraneche	12	Diciembre	2023-07-12T00:00:00	2024-11-06T07:00:00	4	Temperatura máxima	12.4
65339	7	Sololá	701	Sololá	3	Barraneche	12	Diciembre	2023-07-12T00:00:00	2024-11-06T07:00:00	3	Temperatura mínima	12.1
65340	7	Sololá	701	Sololá	3	Barraneche	12	Diciembre	2023-07-12T00:00:00	2024-11-06T07:00:00	5	Humedad	64
65341	7	Sololá	701	Sololá	3	Barraneche	12	Diciembre	2023-07-12T00:00:00	2024-11-06T07:00:00	6	Velocidad del viento	16.1
65342	7	Sololá	701	Sololá	3	Barraneche	12	Diciembre	2023-07-12T00:00:00	2024-11-06T07:00:00	7	Dirección del viento	16.09
65343	7	Sololá	701	Sololá	3	Barraneche	12	Diciembre	2023-07-12T00:00:00	2024-11-06T07:00:00	1	Precipitación	0
65344	7	Sololá	701	Sololá	3	Barraneche	12	Diciembre	2023-07-12T00:00:00	2024-11-06T07:00:00	8	Radiación solar	14
65345	7	Sololá	701	Sololá	3	Barraneche	12	Diciembre	2023-07-12T00:00:00	2024-11-06T08:00:00	2	Temperatura media	13.4
65346	7	Sololá	701	Sololá	3	Barraneche	12	Diciembre	2023-07-12T00:00:00	2024-11-06T08:00:00	4	Temperatura máxima	13.4
65347	7	Sololá	701	Sololá	3	Barraneche	12	Diciembre	2023-07-12T00:00:00	2024-11-06T08:00:00	3	Temperatura mínima	12.3
65348	7	Sololá	701	Sololá	3	Barraneche	12	Diciembre	2023-07-12T00:00:00	2024-11-06T08:00:00	5	Humedad	62
65349	7	Sololá	701	Sololá	3	Barraneche	12	Diciembre	2023-07-12T00:00:00	2024-11-06T08:00:00	6	Velocidad del viento	17.7
65350	7	Sololá	701	Sololá	3	Barraneche	12	Diciembre	2023-07-12T00:00:00	2024-11-06T08:00:00	7	Dirección del viento	17.7
65351	7	Sololá	701	Sololá	3	Barraneche	12	Diciembre	2023-07-12T00:00:00	2024-11-06T08:00:00	1	Precipitación	0
65352	7	Sololá	701	Sololá	3	Barraneche	12	Diciembre	2023-07-12T00:00:00	2024-11-06T08:00:00	8	Radiación solar	184
65353	7	Sololá	701	Sololá	3	Barraneche	12	Diciembre	2023-07-12T00:00:00	2024-11-06T09:00:00	2	Temperatura media	14
65354	7	Sololá	701	Sololá	3	Barraneche	12	Diciembre	2023-07-12T00:00:00	2024-11-06T09:00:00	4	Temperatura máxima	14.4
65355	7	Sololá	701	Sololá	3	Barraneche	12	Diciembre	2023-07-12T00:00:00	2024-11-06T09:00:00	3	Temperatura mínima	13.4
65356	7	Sololá	701	Sololá	3	Barraneche	12	Diciembre	2023-07-12T00:00:00	2024-11-06T09:00:00	5	Humedad	62
65357	7	Sololá	701	Sololá	3	Barraneche	12	Diciembre	2023-07-12T00:00:00	2024-11-06T09:00:00	6	Velocidad del viento	24.1
65358	7	Sololá	701	Sololá	3	Barraneche	12	Diciembre	2023-07-12T00:00:00	2024-11-06T09:00:00	7	Dirección del viento	24.14
65359	7	Sololá	701	Sololá	3	Barraneche	12	Diciembre	2023-07-12T00:00:00	2024-11-06T09:00:00	1	Precipitación	0
65360	7	Sololá	701	Sololá	3	Barraneche	12	Diciembre	2023-07-12T00:00:00	2024-11-06T09:00:00	8	Radiación solar	453
65361	7	Sololá	701	Sololá	3	Barraneche	12	Diciembre	2023-07-12T00:00:00	2024-11-06T10:00:00	2	Temperatura media	15
65362	7	Sololá	701	Sololá	3	Barraneche	12	Diciembre	2023-07-12T00:00:00	2024-11-06T10:00:00	4	Temperatura máxima	15.3
65363	7	Sololá	701	Sololá	3	Barraneche	12	Diciembre	2023-07-12T00:00:00	2024-11-06T10:00:00	3	Temperatura mínima	13.8
65364	7	Sololá	701	Sololá	3	Barraneche	12	Diciembre	2023-07-12T00:00:00	2024-11-06T10:00:00	5	Humedad	59
65365	7	Sololá	701	Sololá	3	Barraneche	12	Diciembre	2023-07-12T00:00:00	2024-11-06T10:00:00	6	Velocidad del viento	24.1
65366	7	Sololá	701	Sololá	3	Barraneche	12	Diciembre	2023-07-12T00:00:00	2024-11-06T10:00:00	7	Dirección del viento	24.14
65367	7	Sololá	701	Sololá	3	Barraneche	12	Diciembre	2023-07-12T00:00:00	2024-11-06T10:00:00	1	Precipitación	0
65368	7	Sololá	701	Sololá	3	Barraneche	12	Diciembre	2023-07-12T00:00:00	2024-11-06T10:00:00	8	Radiación solar	668
65369	7	Sololá	701	Sololá	3	Barraneche	12	Diciembre	2023-07-12T00:00:00	2024-11-06T11:00:00	2	Temperatura media	15.4
65370	7	Sololá	701	Sololá	3	Barraneche	12	Diciembre	2023-07-12T00:00:00	2024-11-06T11:00:00	4	Temperatura máxima	15.9
65371	7	Sololá	701	Sololá	3	Barraneche	12	Diciembre	2023-07-12T00:00:00	2024-11-06T11:00:00	3	Temperatura mínima	14.6
65372	7	Sololá	701	Sololá	3	Barraneche	12	Diciembre	2023-07-12T00:00:00	2024-11-06T11:00:00	5	Humedad	60
65373	7	Sololá	701	Sololá	3	Barraneche	12	Diciembre	2023-07-12T00:00:00	2024-11-06T11:00:00	6	Velocidad del viento	24.1
65374	7	Sololá	701	Sololá	3	Barraneche	12	Diciembre	2023-07-12T00:00:00	2024-11-06T11:00:00	7	Dirección del viento	24.14
65375	7	Sololá	701	Sololá	3	Barraneche	12	Diciembre	2023-07-12T00:00:00	2024-11-06T11:00:00	1	Precipitación	0
65376	7	Sololá	701	Sololá	3	Barraneche	12	Diciembre	2023-07-12T00:00:00	2024-11-06T11:00:00	8	Radiación solar	791
65377	7	Sololá	701	Sololá	3	Barraneche	12	Diciembre	2023-07-12T00:00:00	2024-11-06T12:00:00	2	Temperatura media	16.6
65378	7	Sololá	701	Sololá	3	Barraneche	12	Diciembre	2023-07-12T00:00:00	2024-11-06T12:00:00	4	Temperatura máxima	16.8
65379	7	Sololá	701	Sololá	3	Barraneche	12	Diciembre	2023-07-12T00:00:00	2024-11-06T12:00:00	3	Temperatura mínima	15.4
65380	7	Sololá	701	Sololá	3	Barraneche	12	Diciembre	2023-07-12T00:00:00	2024-11-06T12:00:00	5	Humedad	57
65381	7	Sololá	701	Sololá	3	Barraneche	12	Diciembre	2023-07-12T00:00:00	2024-11-06T12:00:00	6	Velocidad del viento	22.5
65382	7	Sololá	701	Sololá	3	Barraneche	12	Diciembre	2023-07-12T00:00:00	2024-11-06T12:00:00	7	Dirección del viento	22.53
65383	7	Sololá	701	Sololá	3	Barraneche	12	Diciembre	2023-07-12T00:00:00	2024-11-06T12:00:00	1	Precipitación	0
65384	7	Sololá	701	Sololá	3	Barraneche	12	Diciembre	2023-07-12T00:00:00	2024-11-06T12:00:00	8	Radiación solar	867
65385	7	Sololá	701	Sololá	3	Barraneche	12	Diciembre	2023-07-12T00:00:00	2024-11-06T13:00:00	2	Temperatura media	16.1
65386	7	Sololá	701	Sololá	3	Barraneche	12	Diciembre	2023-07-12T00:00:00	2024-11-06T13:00:00	4	Temperatura máxima	17.4
65387	7	Sololá	701	Sololá	3	Barraneche	12	Diciembre	2023-07-12T00:00:00	2024-11-06T13:00:00	3	Temperatura mínima	15.8
65388	7	Sololá	701	Sololá	3	Barraneche	12	Diciembre	2023-07-12T00:00:00	2024-11-06T13:00:00	5	Humedad	58
65389	7	Sololá	701	Sololá	3	Barraneche	12	Diciembre	2023-07-12T00:00:00	2024-11-06T13:00:00	6	Velocidad del viento	17.7
65390	7	Sololá	701	Sololá	3	Barraneche	12	Diciembre	2023-07-12T00:00:00	2024-11-06T13:00:00	7	Dirección del viento	17.7
65391	7	Sololá	701	Sololá	3	Barraneche	12	Diciembre	2023-07-12T00:00:00	2024-11-06T13:00:00	1	Precipitación	0
65392	7	Sololá	701	Sololá	3	Barraneche	12	Diciembre	2023-07-12T00:00:00	2024-11-06T13:00:00	8	Radiación solar	705
65393	7	Sololá	701	Sololá	3	Barraneche	12	Diciembre	2023-07-12T00:00:00	2024-11-06T14:00:00	2	Temperatura media	17.1
65394	7	Sololá	701	Sololá	3	Barraneche	12	Diciembre	2023-07-12T00:00:00	2024-11-06T14:00:00	4	Temperatura máxima	17.1
65395	7	Sololá	701	Sololá	3	Barraneche	12	Diciembre	2023-07-12T00:00:00	2024-11-06T14:00:00	3	Temperatura mínima	16.1
65396	7	Sololá	701	Sololá	3	Barraneche	12	Diciembre	2023-07-12T00:00:00	2024-11-06T14:00:00	5	Humedad	53
65397	7	Sololá	701	Sololá	3	Barraneche	12	Diciembre	2023-07-12T00:00:00	2024-11-06T14:00:00	6	Velocidad del viento	20.9
65398	7	Sololá	701	Sololá	3	Barraneche	12	Diciembre	2023-07-12T00:00:00	2024-11-06T14:00:00	7	Dirección del viento	20.92
65399	7	Sololá	701	Sololá	3	Barraneche	12	Diciembre	2023-07-12T00:00:00	2024-11-06T14:00:00	1	Precipitación	0
65400	7	Sololá	701	Sololá	3	Barraneche	12	Diciembre	2023-07-12T00:00:00	2024-11-06T14:00:00	8	Radiación solar	705
65401	7	Sololá	701	Sololá	3	Barraneche	12	Diciembre	2023-07-12T00:00:00	2024-11-06T15:00:00	2	Temperatura media	16.3
65402	7	Sololá	701	Sololá	3	Barraneche	12	Diciembre	2023-07-12T00:00:00	2024-11-06T15:00:00	4	Temperatura máxima	17.4
65403	7	Sololá	701	Sololá	3	Barraneche	12	Diciembre	2023-07-12T00:00:00	2024-11-06T15:00:00	3	Temperatura mínima	16.2
65404	7	Sololá	701	Sololá	3	Barraneche	12	Diciembre	2023-07-12T00:00:00	2024-11-06T15:00:00	5	Humedad	56
65405	7	Sololá	701	Sololá	3	Barraneche	12	Diciembre	2023-07-12T00:00:00	2024-11-06T15:00:00	6	Velocidad del viento	17.7
65406	7	Sololá	701	Sololá	3	Barraneche	12	Diciembre	2023-07-12T00:00:00	2024-11-06T15:00:00	7	Dirección del viento	17.7
65407	7	Sololá	701	Sololá	3	Barraneche	12	Diciembre	2023-07-12T00:00:00	2024-11-06T15:00:00	1	Precipitación	0
65408	7	Sololá	701	Sololá	3	Barraneche	12	Diciembre	2023-07-12T00:00:00	2024-11-06T15:00:00	8	Radiación solar	605
65409	7	Sololá	701	Sololá	3	Barraneche	12	Diciembre	2023-07-12T00:00:00	2024-11-06T16:00:00	2	Temperatura media	15.6
65410	7	Sololá	701	Sololá	3	Barraneche	12	Diciembre	2023-07-12T00:00:00	2024-11-06T16:00:00	4	Temperatura máxima	17.1
65411	7	Sololá	701	Sololá	3	Barraneche	12	Diciembre	2023-07-12T00:00:00	2024-11-06T16:00:00	3	Temperatura mínima	15.6
65412	7	Sololá	701	Sololá	3	Barraneche	12	Diciembre	2023-07-12T00:00:00	2024-11-06T16:00:00	5	Humedad	59
65413	7	Sololá	701	Sololá	3	Barraneche	12	Diciembre	2023-07-12T00:00:00	2024-11-06T16:00:00	6	Velocidad del viento	14.5
65414	7	Sololá	701	Sololá	3	Barraneche	12	Diciembre	2023-07-12T00:00:00	2024-11-06T16:00:00	7	Dirección del viento	14.48
65415	7	Sololá	701	Sololá	3	Barraneche	12	Diciembre	2023-07-12T00:00:00	2024-11-06T16:00:00	1	Precipitación	0
65416	7	Sololá	701	Sololá	3	Barraneche	12	Diciembre	2023-07-12T00:00:00	2024-11-06T16:00:00	8	Radiación solar	237
65417	7	Sololá	701	Sololá	3	Barraneche	12	Diciembre	2023-07-12T00:00:00	2024-11-06T17:00:00	2	Temperatura media	15.3
65418	7	Sololá	701	Sololá	3	Barraneche	12	Diciembre	2023-07-12T00:00:00	2024-11-06T17:00:00	4	Temperatura máxima	16.1
65419	7	Sololá	701	Sololá	3	Barraneche	12	Diciembre	2023-07-12T00:00:00	2024-11-06T17:00:00	3	Temperatura mínima	15.3
65420	7	Sololá	701	Sololá	3	Barraneche	12	Diciembre	2023-07-12T00:00:00	2024-11-06T17:00:00	5	Humedad	57
65421	7	Sololá	701	Sololá	3	Barraneche	12	Diciembre	2023-07-12T00:00:00	2024-11-06T17:00:00	6	Velocidad del viento	17.7
65422	7	Sololá	701	Sololá	3	Barraneche	12	Diciembre	2023-07-12T00:00:00	2024-11-06T17:00:00	7	Dirección del viento	17.7
65423	7	Sololá	701	Sololá	3	Barraneche	12	Diciembre	2023-07-12T00:00:00	2024-11-06T17:00:00	1	Precipitación	0
65424	7	Sololá	701	Sololá	3	Barraneche	12	Diciembre	2023-07-12T00:00:00	2024-11-06T17:00:00	8	Radiación solar	175
65425	7	Sololá	701	Sololá	3	Barraneche	12	Diciembre	2023-07-12T00:00:00	2024-11-06T18:00:00	2	Temperatura media	14.1
65426	7	Sololá	701	Sololá	3	Barraneche	12	Diciembre	2023-07-12T00:00:00	2024-11-06T18:00:00	4	Temperatura máxima	15.3
65427	7	Sololá	701	Sololá	3	Barraneche	12	Diciembre	2023-07-12T00:00:00	2024-11-06T18:00:00	3	Temperatura mínima	14
65428	7	Sololá	701	Sololá	3	Barraneche	12	Diciembre	2023-07-12T00:00:00	2024-11-06T18:00:00	5	Humedad	62
65429	7	Sololá	701	Sololá	3	Barraneche	12	Diciembre	2023-07-12T00:00:00	2024-11-06T18:00:00	6	Velocidad del viento	17.7
65430	7	Sololá	701	Sololá	3	Barraneche	12	Diciembre	2023-07-12T00:00:00	2024-11-06T18:00:00	7	Dirección del viento	17.7
65431	7	Sololá	701	Sololá	3	Barraneche	12	Diciembre	2023-07-12T00:00:00	2024-11-06T18:00:00	1	Precipitación	0
65432	7	Sololá	701	Sololá	3	Barraneche	12	Diciembre	2023-07-12T00:00:00	2024-11-06T18:00:00	8	Radiación solar	15
65433	7	Sololá	701	Sololá	3	Barraneche	12	Diciembre	2023-07-12T00:00:00	2024-11-06T19:00:00	2	Temperatura media	13.6
65434	7	Sololá	701	Sololá	3	Barraneche	12	Diciembre	2023-07-12T00:00:00	2024-11-06T19:00:00	4	Temperatura máxima	14.2
65435	7	Sololá	701	Sololá	3	Barraneche	12	Diciembre	2023-07-12T00:00:00	2024-11-06T19:00:00	3	Temperatura mínima	13.6
65436	7	Sololá	701	Sololá	3	Barraneche	12	Diciembre	2023-07-12T00:00:00	2024-11-06T19:00:00	5	Humedad	65
65437	7	Sololá	701	Sololá	3	Barraneche	12	Diciembre	2023-07-12T00:00:00	2024-11-06T19:00:00	6	Velocidad del viento	16.1
65438	7	Sololá	701	Sololá	3	Barraneche	12	Diciembre	2023-07-12T00:00:00	2024-11-06T19:00:00	7	Dirección del viento	16.09
65439	7	Sololá	701	Sololá	3	Barraneche	12	Diciembre	2023-07-12T00:00:00	2024-11-06T19:00:00	1	Precipitación	0
65440	7	Sololá	701	Sololá	3	Barraneche	12	Diciembre	2023-07-12T00:00:00	2024-11-06T19:00:00	8	Radiación solar	0
65441	7	Sololá	701	Sololá	3	Barraneche	12	Diciembre	2023-07-12T00:00:00	2024-11-06T20:00:00	2	Temperatura media	13.5
65442	7	Sololá	701	Sololá	3	Barraneche	12	Diciembre	2023-07-12T00:00:00	2024-11-06T20:00:00	4	Temperatura máxima	13.8
65443	7	Sololá	701	Sololá	3	Barraneche	12	Diciembre	2023-07-12T00:00:00	2024-11-06T20:00:00	3	Temperatura mínima	13.3
65444	7	Sololá	701	Sololá	3	Barraneche	12	Diciembre	2023-07-12T00:00:00	2024-11-06T20:00:00	5	Humedad	64
65445	7	Sololá	701	Sololá	3	Barraneche	12	Diciembre	2023-07-12T00:00:00	2024-11-06T20:00:00	6	Velocidad del viento	17.7
65446	7	Sololá	701	Sololá	3	Barraneche	12	Diciembre	2023-07-12T00:00:00	2024-11-06T20:00:00	7	Dirección del viento	17.7
65447	7	Sololá	701	Sololá	3	Barraneche	12	Diciembre	2023-07-12T00:00:00	2024-11-06T20:00:00	1	Precipitación	0
65448	7	Sololá	701	Sololá	3	Barraneche	12	Diciembre	2023-07-12T00:00:00	2024-11-06T20:00:00	8	Radiación solar	0
65449	7	Sololá	701	Sololá	3	Barraneche	12	Diciembre	2023-07-12T00:00:00	2024-11-06T21:00:00	2	Temperatura media	13.7
65450	7	Sololá	701	Sololá	3	Barraneche	12	Diciembre	2023-07-12T00:00:00	2024-11-06T21:00:00	4	Temperatura máxima	13.8
65451	7	Sololá	701	Sololá	3	Barraneche	12	Diciembre	2023-07-12T00:00:00	2024-11-06T21:00:00	3	Temperatura mínima	13.5
65452	7	Sololá	701	Sololá	3	Barraneche	12	Diciembre	2023-07-12T00:00:00	2024-11-06T21:00:00	5	Humedad	63
65453	7	Sololá	701	Sololá	3	Barraneche	12	Diciembre	2023-07-12T00:00:00	2024-11-06T21:00:00	6	Velocidad del viento	19.3
65454	7	Sololá	701	Sololá	3	Barraneche	12	Diciembre	2023-07-12T00:00:00	2024-11-06T21:00:00	7	Dirección del viento	19.31
65455	7	Sololá	701	Sololá	3	Barraneche	12	Diciembre	2023-07-12T00:00:00	2024-11-06T21:00:00	1	Precipitación	0
65456	7	Sololá	701	Sololá	3	Barraneche	12	Diciembre	2023-07-12T00:00:00	2024-11-06T21:00:00	8	Radiación solar	0
65457	7	Sololá	701	Sololá	3	Barraneche	12	Diciembre	2023-07-12T00:00:00	2024-11-06T22:00:00	2	Temperatura media	13.4
65458	7	Sololá	701	Sololá	3	Barraneche	12	Diciembre	2023-07-12T00:00:00	2024-11-06T22:00:00	4	Temperatura máxima	13.7
65459	7	Sololá	701	Sololá	3	Barraneche	12	Diciembre	2023-07-12T00:00:00	2024-11-06T22:00:00	3	Temperatura mínima	13.2
65460	7	Sololá	701	Sololá	3	Barraneche	12	Diciembre	2023-07-12T00:00:00	2024-11-06T22:00:00	5	Humedad	65
65461	7	Sololá	701	Sololá	3	Barraneche	12	Diciembre	2023-07-12T00:00:00	2024-11-06T22:00:00	6	Velocidad del viento	17.7
65462	7	Sololá	701	Sololá	3	Barraneche	12	Diciembre	2023-07-12T00:00:00	2024-11-06T22:00:00	7	Dirección del viento	17.7
65463	7	Sololá	701	Sololá	3	Barraneche	12	Diciembre	2023-07-12T00:00:00	2024-11-06T22:00:00	1	Precipitación	0
65464	7	Sololá	701	Sololá	3	Barraneche	12	Diciembre	2023-07-12T00:00:00	2024-11-06T22:00:00	8	Radiación solar	0
65465	7	Sololá	701	Sololá	3	Barraneche	12	Diciembre	2023-07-12T00:00:00	2024-11-06T23:00:00	2	Temperatura media	13.3
65466	7	Sololá	701	Sololá	3	Barraneche	12	Diciembre	2023-07-12T00:00:00	2024-11-06T23:00:00	4	Temperatura máxima	13.6
65467	7	Sololá	701	Sololá	3	Barraneche	12	Diciembre	2023-07-12T00:00:00	2024-11-06T23:00:00	3	Temperatura mínima	13.2
65468	7	Sololá	701	Sololá	3	Barraneche	12	Diciembre	2023-07-12T00:00:00	2024-11-06T23:00:00	5	Humedad	65
65469	7	Sololá	701	Sololá	3	Barraneche	12	Diciembre	2023-07-12T00:00:00	2024-11-06T23:00:00	6	Velocidad del viento	17.7
65470	7	Sololá	701	Sololá	3	Barraneche	12	Diciembre	2023-07-12T00:00:00	2024-11-06T23:00:00	7	Dirección del viento	17.7
65471	7	Sololá	701	Sololá	3	Barraneche	12	Diciembre	2023-07-12T00:00:00	2024-11-06T23:00:00	1	Precipitación	0
65472	7	Sololá	701	Sololá	3	Barraneche	12	Diciembre	2023-07-12T00:00:00	2024-11-06T23:00:00	8	Radiación solar	0
65473	7	Sololá	701	Sololá	3	Barraneche	12	Diciembre	2023-08-12T00:00:00	2024-11-06T00:00:00	2	Temperatura media	12.8
65474	7	Sololá	701	Sololá	3	Barraneche	12	Diciembre	2023-08-12T00:00:00	2024-11-06T00:00:00	4	Temperatura máxima	13.4
65475	7	Sololá	701	Sololá	3	Barraneche	12	Diciembre	2023-08-12T00:00:00	2024-11-06T00:00:00	3	Temperatura mínima	12.8
65476	7	Sololá	701	Sololá	3	Barraneche	12	Diciembre	2023-08-12T00:00:00	2024-11-06T00:00:00	5	Humedad	67
65477	7	Sololá	701	Sololá	3	Barraneche	12	Diciembre	2023-08-12T00:00:00	2024-11-06T00:00:00	6	Velocidad del viento	14.5
65478	7	Sololá	701	Sololá	3	Barraneche	12	Diciembre	2023-08-12T00:00:00	2024-11-06T00:00:00	7	Dirección del viento	14.48
65479	7	Sololá	701	Sololá	3	Barraneche	12	Diciembre	2023-08-12T00:00:00	2024-11-06T00:00:00	1	Precipitación	0
65480	7	Sololá	701	Sololá	3	Barraneche	12	Diciembre	2023-08-12T00:00:00	2024-11-06T00:00:00	8	Radiación solar	0
65481	7	Sololá	701	Sololá	3	Barraneche	12	Diciembre	2023-08-12T00:00:00	2024-11-06T01:00:00	2	Temperatura media	12.8
65482	7	Sololá	701	Sololá	3	Barraneche	12	Diciembre	2023-08-12T00:00:00	2024-11-06T01:00:00	4	Temperatura máxima	13.1
65483	7	Sololá	701	Sololá	3	Barraneche	12	Diciembre	2023-08-12T00:00:00	2024-11-06T01:00:00	3	Temperatura mínima	12.7
65484	7	Sololá	701	Sololá	3	Barraneche	12	Diciembre	2023-08-12T00:00:00	2024-11-06T01:00:00	5	Humedad	67
65485	7	Sololá	701	Sololá	3	Barraneche	12	Diciembre	2023-08-12T00:00:00	2024-11-06T01:00:00	6	Velocidad del viento	14.5
65486	7	Sololá	701	Sololá	3	Barraneche	12	Diciembre	2023-08-12T00:00:00	2024-11-06T01:00:00	7	Dirección del viento	14.48
65487	7	Sololá	701	Sololá	3	Barraneche	12	Diciembre	2023-08-12T00:00:00	2024-11-06T01:00:00	1	Precipitación	0
65488	7	Sololá	701	Sololá	3	Barraneche	12	Diciembre	2023-08-12T00:00:00	2024-11-06T01:00:00	8	Radiación solar	0
65489	7	Sololá	701	Sololá	3	Barraneche	12	Diciembre	2023-08-12T00:00:00	2024-11-06T02:00:00	2	Temperatura media	13.4
65490	7	Sololá	701	Sololá	3	Barraneche	12	Diciembre	2023-08-12T00:00:00	2024-11-06T02:00:00	4	Temperatura máxima	13.4
65491	7	Sololá	701	Sololá	3	Barraneche	12	Diciembre	2023-08-12T00:00:00	2024-11-06T02:00:00	3	Temperatura mínima	12.8
65492	7	Sololá	701	Sololá	3	Barraneche	12	Diciembre	2023-08-12T00:00:00	2024-11-06T02:00:00	5	Humedad	64
65493	7	Sololá	701	Sololá	3	Barraneche	12	Diciembre	2023-08-12T00:00:00	2024-11-06T02:00:00	6	Velocidad del viento	19.3
65494	7	Sololá	701	Sololá	3	Barraneche	12	Diciembre	2023-08-12T00:00:00	2024-11-06T02:00:00	7	Dirección del viento	19.31
65495	7	Sololá	701	Sololá	3	Barraneche	12	Diciembre	2023-08-12T00:00:00	2024-11-06T02:00:00	1	Precipitación	0
65496	7	Sololá	701	Sololá	3	Barraneche	12	Diciembre	2023-08-12T00:00:00	2024-11-06T02:00:00	8	Radiación solar	0
65497	7	Sololá	701	Sololá	3	Barraneche	12	Diciembre	2023-08-12T00:00:00	2024-11-06T03:00:00	2	Temperatura media	13.4
65498	7	Sololá	701	Sololá	3	Barraneche	12	Diciembre	2023-08-12T00:00:00	2024-11-06T03:00:00	4	Temperatura máxima	13.5
65499	7	Sololá	701	Sololá	3	Barraneche	12	Diciembre	2023-08-12T00:00:00	2024-11-06T03:00:00	3	Temperatura mínima	13.2
65500	7	Sololá	701	Sololá	3	Barraneche	12	Diciembre	2023-08-12T00:00:00	2024-11-06T03:00:00	5	Humedad	59
65501	7	Sololá	701	Sololá	3	Barraneche	12	Diciembre	2023-08-12T00:00:00	2024-11-06T03:00:00	6	Velocidad del viento	20.9
65502	7	Sololá	701	Sololá	3	Barraneche	12	Diciembre	2023-08-12T00:00:00	2024-11-06T03:00:00	7	Dirección del viento	20.92
65503	7	Sololá	701	Sololá	3	Barraneche	12	Diciembre	2023-08-12T00:00:00	2024-11-06T03:00:00	1	Precipitación	0
65504	7	Sololá	701	Sololá	3	Barraneche	12	Diciembre	2023-08-12T00:00:00	2024-11-06T03:00:00	8	Radiación solar	0
65505	7	Sololá	701	Sololá	3	Barraneche	12	Diciembre	2023-08-12T00:00:00	2024-11-06T04:00:00	2	Temperatura media	13
65506	7	Sololá	701	Sololá	3	Barraneche	12	Diciembre	2023-08-12T00:00:00	2024-11-06T04:00:00	4	Temperatura máxima	13.4
65507	7	Sololá	701	Sololá	3	Barraneche	12	Diciembre	2023-08-12T00:00:00	2024-11-06T04:00:00	3	Temperatura mínima	12.8
65508	7	Sololá	701	Sololá	3	Barraneche	12	Diciembre	2023-08-12T00:00:00	2024-11-06T04:00:00	5	Humedad	59
65509	7	Sololá	701	Sololá	3	Barraneche	12	Diciembre	2023-08-12T00:00:00	2024-11-06T04:00:00	6	Velocidad del viento	17.7
65510	7	Sololá	701	Sololá	3	Barraneche	12	Diciembre	2023-08-12T00:00:00	2024-11-06T04:00:00	7	Dirección del viento	17.7
65511	7	Sololá	701	Sololá	3	Barraneche	12	Diciembre	2023-08-12T00:00:00	2024-11-06T04:00:00	1	Precipitación	0
65512	7	Sololá	701	Sololá	3	Barraneche	12	Diciembre	2023-08-12T00:00:00	2024-11-06T04:00:00	8	Radiación solar	0
65513	7	Sololá	701	Sololá	3	Barraneche	12	Diciembre	2023-08-12T00:00:00	2024-11-06T05:00:00	2	Temperatura media	12.8
65514	7	Sololá	701	Sololá	3	Barraneche	12	Diciembre	2023-08-12T00:00:00	2024-11-06T05:00:00	4	Temperatura máxima	13.1
65515	7	Sololá	701	Sololá	3	Barraneche	12	Diciembre	2023-08-12T00:00:00	2024-11-06T05:00:00	3	Temperatura mínima	12.6
65516	7	Sololá	701	Sololá	3	Barraneche	12	Diciembre	2023-08-12T00:00:00	2024-11-06T05:00:00	5	Humedad	61
65517	7	Sololá	701	Sololá	3	Barraneche	12	Diciembre	2023-08-12T00:00:00	2024-11-06T05:00:00	6	Velocidad del viento	17.7
65518	7	Sololá	701	Sololá	3	Barraneche	12	Diciembre	2023-08-12T00:00:00	2024-11-06T05:00:00	7	Dirección del viento	17.7
65519	7	Sololá	701	Sololá	3	Barraneche	12	Diciembre	2023-08-12T00:00:00	2024-11-06T05:00:00	1	Precipitación	0
65520	7	Sololá	701	Sololá	3	Barraneche	12	Diciembre	2023-08-12T00:00:00	2024-11-06T05:00:00	8	Radiación solar	0
65521	7	Sololá	701	Sololá	3	Barraneche	12	Diciembre	2023-08-12T00:00:00	2024-11-06T06:00:00	2	Temperatura media	13
65522	7	Sololá	701	Sololá	3	Barraneche	12	Diciembre	2023-08-12T00:00:00	2024-11-06T06:00:00	4	Temperatura máxima	13.2
65523	7	Sololá	701	Sololá	3	Barraneche	12	Diciembre	2023-08-12T00:00:00	2024-11-06T06:00:00	3	Temperatura mínima	12.8
65524	7	Sololá	701	Sololá	3	Barraneche	12	Diciembre	2023-08-12T00:00:00	2024-11-06T06:00:00	5	Humedad	60
65525	7	Sololá	701	Sololá	3	Barraneche	12	Diciembre	2023-08-12T00:00:00	2024-11-06T06:00:00	6	Velocidad del viento	20.9
65526	7	Sololá	701	Sololá	3	Barraneche	12	Diciembre	2023-08-12T00:00:00	2024-11-06T06:00:00	7	Dirección del viento	20.92
65527	7	Sololá	701	Sololá	3	Barraneche	12	Diciembre	2023-08-12T00:00:00	2024-11-06T06:00:00	1	Precipitación	0
65528	7	Sololá	701	Sololá	3	Barraneche	12	Diciembre	2023-08-12T00:00:00	2024-11-06T06:00:00	8	Radiación solar	0
65529	7	Sololá	701	Sololá	3	Barraneche	12	Diciembre	2023-08-12T00:00:00	2024-11-06T07:00:00	2	Temperatura media	13.3
65530	7	Sololá	701	Sololá	3	Barraneche	12	Diciembre	2023-08-12T00:00:00	2024-11-06T07:00:00	4	Temperatura máxima	13.4
65531	7	Sololá	701	Sololá	3	Barraneche	12	Diciembre	2023-08-12T00:00:00	2024-11-06T07:00:00	3	Temperatura mínima	12.9
65532	7	Sololá	701	Sololá	3	Barraneche	12	Diciembre	2023-08-12T00:00:00	2024-11-06T07:00:00	5	Humedad	62
65533	7	Sololá	701	Sololá	3	Barraneche	12	Diciembre	2023-08-12T00:00:00	2024-11-06T07:00:00	6	Velocidad del viento	20.9
65534	7	Sololá	701	Sololá	3	Barraneche	12	Diciembre	2023-08-12T00:00:00	2024-11-06T07:00:00	7	Dirección del viento	20.92
65535	7	Sololá	701	Sololá	3	Barraneche	12	Diciembre	2023-08-12T00:00:00	2024-11-06T07:00:00	1	Precipitación	0
65536	7	Sololá	701	Sololá	3	Barraneche	12	Diciembre	2023-08-12T00:00:00	2024-11-06T07:00:00	8	Radiación solar	14
65537	7	Sololá	701	Sololá	3	Barraneche	12	Diciembre	2023-08-12T00:00:00	2024-11-06T08:00:00	2	Temperatura media	15.3
65538	7	Sololá	701	Sololá	3	Barraneche	12	Diciembre	2023-08-12T00:00:00	2024-11-06T08:00:00	4	Temperatura máxima	15.3
65539	7	Sololá	701	Sololá	3	Barraneche	12	Diciembre	2023-08-12T00:00:00	2024-11-06T08:00:00	3	Temperatura mínima	13.3
65540	7	Sololá	701	Sololá	3	Barraneche	12	Diciembre	2023-08-12T00:00:00	2024-11-06T08:00:00	5	Humedad	53
65541	7	Sololá	701	Sololá	3	Barraneche	12	Diciembre	2023-08-12T00:00:00	2024-11-06T08:00:00	6	Velocidad del viento	19.3
65542	7	Sololá	701	Sololá	3	Barraneche	12	Diciembre	2023-08-12T00:00:00	2024-11-06T08:00:00	7	Dirección del viento	19.31
65543	7	Sololá	701	Sololá	3	Barraneche	12	Diciembre	2023-08-12T00:00:00	2024-11-06T08:00:00	1	Precipitación	0
65544	7	Sololá	701	Sololá	3	Barraneche	12	Diciembre	2023-08-12T00:00:00	2024-11-06T08:00:00	8	Radiación solar	214
65545	7	Sololá	701	Sololá	3	Barraneche	12	Diciembre	2023-08-12T00:00:00	2024-11-06T09:00:00	2	Temperatura media	16.6
65546	7	Sololá	701	Sololá	3	Barraneche	12	Diciembre	2023-08-12T00:00:00	2024-11-06T09:00:00	4	Temperatura máxima	16.6
65547	7	Sololá	701	Sololá	3	Barraneche	12	Diciembre	2023-08-12T00:00:00	2024-11-06T09:00:00	3	Temperatura mínima	15.3
65548	7	Sololá	701	Sololá	3	Barraneche	12	Diciembre	2023-08-12T00:00:00	2024-11-06T09:00:00	5	Humedad	51
65549	7	Sololá	701	Sololá	3	Barraneche	12	Diciembre	2023-08-12T00:00:00	2024-11-06T09:00:00	6	Velocidad del viento	16.1
65550	7	Sololá	701	Sololá	3	Barraneche	12	Diciembre	2023-08-12T00:00:00	2024-11-06T09:00:00	7	Dirección del viento	16.09
65551	7	Sololá	701	Sololá	3	Barraneche	12	Diciembre	2023-08-12T00:00:00	2024-11-06T09:00:00	1	Precipitación	0
65552	7	Sololá	701	Sololá	3	Barraneche	12	Diciembre	2023-08-12T00:00:00	2024-11-06T09:00:00	8	Radiación solar	451
65553	7	Sololá	701	Sololá	3	Barraneche	12	Diciembre	2023-08-12T00:00:00	2024-11-06T10:00:00	2	Temperatura media	17.9
65554	7	Sololá	701	Sololá	3	Barraneche	12	Diciembre	2023-08-12T00:00:00	2024-11-06T10:00:00	4	Temperatura máxima	17.9
65555	7	Sololá	701	Sololá	3	Barraneche	12	Diciembre	2023-08-12T00:00:00	2024-11-06T10:00:00	3	Temperatura mínima	16.6
65556	7	Sololá	701	Sololá	3	Barraneche	12	Diciembre	2023-08-12T00:00:00	2024-11-06T10:00:00	5	Humedad	44
65557	7	Sololá	701	Sololá	3	Barraneche	12	Diciembre	2023-08-12T00:00:00	2024-11-06T10:00:00	6	Velocidad del viento	12.9
65558	7	Sololá	701	Sololá	3	Barraneche	12	Diciembre	2023-08-12T00:00:00	2024-11-06T10:00:00	7	Dirección del viento	12.87
65559	7	Sololá	701	Sololá	3	Barraneche	12	Diciembre	2023-08-12T00:00:00	2024-11-06T10:00:00	1	Precipitación	0
65560	7	Sololá	701	Sololá	3	Barraneche	12	Diciembre	2023-08-12T00:00:00	2024-11-06T10:00:00	8	Radiación solar	643
65561	7	Sololá	701	Sololá	3	Barraneche	12	Diciembre	2023-08-12T00:00:00	2024-11-06T11:00:00	2	Temperatura media	18.2
65562	7	Sololá	701	Sololá	3	Barraneche	12	Diciembre	2023-08-12T00:00:00	2024-11-06T11:00:00	4	Temperatura máxima	18.9
65563	7	Sololá	701	Sololá	3	Barraneche	12	Diciembre	2023-08-12T00:00:00	2024-11-06T11:00:00	3	Temperatura mínima	17.9
65564	7	Sololá	701	Sololá	3	Barraneche	12	Diciembre	2023-08-12T00:00:00	2024-11-06T11:00:00	5	Humedad	49
65565	7	Sololá	701	Sololá	3	Barraneche	12	Diciembre	2023-08-12T00:00:00	2024-11-06T11:00:00	6	Velocidad del viento	9.7
65566	7	Sololá	701	Sololá	3	Barraneche	12	Diciembre	2023-08-12T00:00:00	2024-11-06T11:00:00	7	Dirección del viento	9.66
65567	7	Sololá	701	Sololá	3	Barraneche	12	Diciembre	2023-08-12T00:00:00	2024-11-06T11:00:00	1	Precipitación	0
65568	7	Sololá	701	Sololá	3	Barraneche	12	Diciembre	2023-08-12T00:00:00	2024-11-06T11:00:00	8	Radiación solar	795
65569	7	Sololá	701	Sololá	3	Barraneche	12	Diciembre	2023-08-12T00:00:00	2024-11-06T12:00:00	2	Temperatura media	18.4
65570	7	Sololá	701	Sololá	3	Barraneche	12	Diciembre	2023-08-12T00:00:00	2024-11-06T12:00:00	4	Temperatura máxima	18.4
65571	7	Sololá	701	Sololá	3	Barraneche	12	Diciembre	2023-08-12T00:00:00	2024-11-06T12:00:00	3	Temperatura mínima	17.8
65572	7	Sololá	701	Sololá	3	Barraneche	12	Diciembre	2023-08-12T00:00:00	2024-11-06T12:00:00	5	Humedad	47
65573	7	Sololá	701	Sololá	3	Barraneche	12	Diciembre	2023-08-12T00:00:00	2024-11-06T12:00:00	6	Velocidad del viento	12.9
65574	7	Sololá	701	Sololá	3	Barraneche	12	Diciembre	2023-08-12T00:00:00	2024-11-06T12:00:00	7	Dirección del viento	12.87
65575	7	Sololá	701	Sololá	3	Barraneche	12	Diciembre	2023-08-12T00:00:00	2024-11-06T12:00:00	1	Precipitación	0
65576	7	Sololá	701	Sololá	3	Barraneche	12	Diciembre	2023-08-12T00:00:00	2024-11-06T12:00:00	8	Radiación solar	850
65577	7	Sololá	701	Sololá	3	Barraneche	12	Diciembre	2023-08-12T00:00:00	2024-11-06T13:00:00	2	Temperatura media	18.3
65578	7	Sololá	701	Sololá	3	Barraneche	12	Diciembre	2023-08-12T00:00:00	2024-11-06T13:00:00	4	Temperatura máxima	18.7
65579	7	Sololá	701	Sololá	3	Barraneche	12	Diciembre	2023-08-12T00:00:00	2024-11-06T13:00:00	3	Temperatura mínima	17.8
65580	7	Sololá	701	Sololá	3	Barraneche	12	Diciembre	2023-08-12T00:00:00	2024-11-06T13:00:00	5	Humedad	46
65581	7	Sololá	701	Sololá	3	Barraneche	12	Diciembre	2023-08-12T00:00:00	2024-11-06T13:00:00	6	Velocidad del viento	9.7
65582	7	Sololá	701	Sololá	3	Barraneche	12	Diciembre	2023-08-12T00:00:00	2024-11-06T13:00:00	7	Dirección del viento	9.66
65583	7	Sololá	701	Sololá	3	Barraneche	12	Diciembre	2023-08-12T00:00:00	2024-11-06T13:00:00	1	Precipitación	0
65584	7	Sololá	701	Sololá	3	Barraneche	12	Diciembre	2023-08-12T00:00:00	2024-11-06T13:00:00	8	Radiación solar	583
65585	7	Sololá	701	Sololá	3	Barraneche	12	Diciembre	2023-08-12T00:00:00	2024-11-06T14:00:00	2	Temperatura media	19.2
65586	7	Sololá	701	Sololá	3	Barraneche	12	Diciembre	2023-08-12T00:00:00	2024-11-06T14:00:00	4	Temperatura máxima	19.3
65587	7	Sololá	701	Sololá	3	Barraneche	12	Diciembre	2023-08-12T00:00:00	2024-11-06T14:00:00	3	Temperatura mínima	18.2
65588	7	Sololá	701	Sololá	3	Barraneche	12	Diciembre	2023-08-12T00:00:00	2024-11-06T14:00:00	5	Humedad	47
65589	7	Sololá	701	Sololá	3	Barraneche	12	Diciembre	2023-08-12T00:00:00	2024-11-06T14:00:00	6	Velocidad del viento	9.7
65590	7	Sololá	701	Sololá	3	Barraneche	12	Diciembre	2023-08-12T00:00:00	2024-11-06T14:00:00	7	Dirección del viento	9.66
65591	7	Sololá	701	Sololá	3	Barraneche	12	Diciembre	2023-08-12T00:00:00	2024-11-06T14:00:00	1	Precipitación	0
65592	7	Sololá	701	Sololá	3	Barraneche	12	Diciembre	2023-08-12T00:00:00	2024-11-06T14:00:00	8	Radiación solar	769
65593	7	Sololá	701	Sololá	3	Barraneche	12	Diciembre	2023-08-12T00:00:00	2024-11-06T15:00:00	2	Temperatura media	19.2
65594	7	Sololá	701	Sololá	3	Barraneche	12	Diciembre	2023-08-12T00:00:00	2024-11-06T15:00:00	4	Temperatura máxima	19.3
65595	7	Sololá	701	Sololá	3	Barraneche	12	Diciembre	2023-08-12T00:00:00	2024-11-06T15:00:00	3	Temperatura mínima	18.8
65596	7	Sololá	701	Sololá	3	Barraneche	12	Diciembre	2023-08-12T00:00:00	2024-11-06T15:00:00	5	Humedad	45
65597	7	Sololá	701	Sololá	3	Barraneche	12	Diciembre	2023-08-12T00:00:00	2024-11-06T15:00:00	6	Velocidad del viento	11.3
65598	7	Sololá	701	Sololá	3	Barraneche	12	Diciembre	2023-08-12T00:00:00	2024-11-06T15:00:00	7	Dirección del viento	11.27
65599	7	Sololá	701	Sololá	3	Barraneche	12	Diciembre	2023-08-12T00:00:00	2024-11-06T15:00:00	1	Precipitación	0
65600	7	Sololá	701	Sololá	3	Barraneche	12	Diciembre	2023-08-12T00:00:00	2024-11-06T15:00:00	8	Radiación solar	643
65601	7	Sololá	701	Sololá	3	Barraneche	12	Diciembre	2023-08-12T00:00:00	2024-11-06T16:00:00	2	Temperatura media	18
65602	7	Sololá	701	Sololá	3	Barraneche	12	Diciembre	2023-08-12T00:00:00	2024-11-06T16:00:00	4	Temperatura máxima	19.1
65603	7	Sololá	701	Sololá	3	Barraneche	12	Diciembre	2023-08-12T00:00:00	2024-11-06T16:00:00	3	Temperatura mínima	17.9
65604	7	Sololá	701	Sololá	3	Barraneche	12	Diciembre	2023-08-12T00:00:00	2024-11-06T16:00:00	5	Humedad	49
65605	7	Sololá	701	Sololá	3	Barraneche	12	Diciembre	2023-08-12T00:00:00	2024-11-06T16:00:00	6	Velocidad del viento	11.3
65606	7	Sololá	701	Sololá	3	Barraneche	12	Diciembre	2023-08-12T00:00:00	2024-11-06T16:00:00	7	Dirección del viento	11.27
65607	7	Sololá	701	Sololá	3	Barraneche	12	Diciembre	2023-08-12T00:00:00	2024-11-06T16:00:00	1	Precipitación	0
65608	7	Sololá	701	Sololá	3	Barraneche	12	Diciembre	2023-08-12T00:00:00	2024-11-06T16:00:00	8	Radiación solar	417
65609	7	Sololá	701	Sololá	3	Barraneche	12	Diciembre	2023-08-12T00:00:00	2024-11-06T17:00:00	2	Temperatura media	16.6
65610	7	Sololá	701	Sololá	3	Barraneche	12	Diciembre	2023-08-12T00:00:00	2024-11-06T17:00:00	4	Temperatura máxima	18.1
65611	7	Sololá	701	Sololá	3	Barraneche	12	Diciembre	2023-08-12T00:00:00	2024-11-06T17:00:00	3	Temperatura mínima	16.6
65612	7	Sololá	701	Sololá	3	Barraneche	12	Diciembre	2023-08-12T00:00:00	2024-11-06T17:00:00	5	Humedad	54
65613	7	Sololá	701	Sololá	3	Barraneche	12	Diciembre	2023-08-12T00:00:00	2024-11-06T17:00:00	6	Velocidad del viento	11.3
65614	7	Sololá	701	Sololá	3	Barraneche	12	Diciembre	2023-08-12T00:00:00	2024-11-06T17:00:00	7	Dirección del viento	11.27
65615	7	Sololá	701	Sololá	3	Barraneche	12	Diciembre	2023-08-12T00:00:00	2024-11-06T17:00:00	1	Precipitación	0
65616	7	Sololá	701	Sololá	3	Barraneche	12	Diciembre	2023-08-12T00:00:00	2024-11-06T17:00:00	8	Radiación solar	167
65617	7	Sololá	701	Sololá	3	Barraneche	12	Diciembre	2023-08-12T00:00:00	2024-11-06T18:00:00	2	Temperatura media	14.9
65618	7	Sololá	701	Sololá	3	Barraneche	12	Diciembre	2023-08-12T00:00:00	2024-11-06T18:00:00	4	Temperatura máxima	16.6
65619	7	Sololá	701	Sololá	3	Barraneche	12	Diciembre	2023-08-12T00:00:00	2024-11-06T18:00:00	3	Temperatura mínima	14.8
65620	7	Sololá	701	Sololá	3	Barraneche	12	Diciembre	2023-08-12T00:00:00	2024-11-06T18:00:00	5	Humedad	59
65621	7	Sololá	701	Sololá	3	Barraneche	12	Diciembre	2023-08-12T00:00:00	2024-11-06T18:00:00	6	Velocidad del viento	14.5
65622	7	Sololá	701	Sololá	3	Barraneche	12	Diciembre	2023-08-12T00:00:00	2024-11-06T18:00:00	7	Dirección del viento	14.48
65623	7	Sololá	701	Sololá	3	Barraneche	12	Diciembre	2023-08-12T00:00:00	2024-11-06T18:00:00	1	Precipitación	0
65624	7	Sololá	701	Sololá	3	Barraneche	12	Diciembre	2023-08-12T00:00:00	2024-11-06T18:00:00	8	Radiación solar	13
65625	7	Sololá	701	Sololá	3	Barraneche	12	Diciembre	2023-08-12T00:00:00	2024-11-06T19:00:00	2	Temperatura media	14.4
65626	7	Sololá	701	Sololá	3	Barraneche	12	Diciembre	2023-08-12T00:00:00	2024-11-06T19:00:00	4	Temperatura máxima	14.9
65627	7	Sololá	701	Sololá	3	Barraneche	12	Diciembre	2023-08-12T00:00:00	2024-11-06T19:00:00	3	Temperatura mínima	14.3
65628	7	Sololá	701	Sololá	3	Barraneche	12	Diciembre	2023-08-12T00:00:00	2024-11-06T19:00:00	5	Humedad	61
65629	7	Sololá	701	Sololá	3	Barraneche	12	Diciembre	2023-08-12T00:00:00	2024-11-06T19:00:00	6	Velocidad del viento	11.3
65630	7	Sololá	701	Sololá	3	Barraneche	12	Diciembre	2023-08-12T00:00:00	2024-11-06T19:00:00	7	Dirección del viento	11.27
65631	7	Sololá	701	Sololá	3	Barraneche	12	Diciembre	2023-08-12T00:00:00	2024-11-06T19:00:00	1	Precipitación	0
65632	7	Sololá	701	Sololá	3	Barraneche	12	Diciembre	2023-08-12T00:00:00	2024-11-06T19:00:00	8	Radiación solar	0
65633	7	Sololá	701	Sololá	3	Barraneche	12	Diciembre	2023-08-12T00:00:00	2024-11-06T20:00:00	2	Temperatura media	14
65634	7	Sololá	701	Sololá	3	Barraneche	12	Diciembre	2023-08-12T00:00:00	2024-11-06T20:00:00	4	Temperatura máxima	14.6
65635	7	Sololá	701	Sololá	3	Barraneche	12	Diciembre	2023-08-12T00:00:00	2024-11-06T20:00:00	3	Temperatura mínima	13.9
65636	7	Sololá	701	Sololá	3	Barraneche	12	Diciembre	2023-08-12T00:00:00	2024-11-06T20:00:00	5	Humedad	61
65637	7	Sololá	701	Sololá	3	Barraneche	12	Diciembre	2023-08-12T00:00:00	2024-11-06T20:00:00	6	Velocidad del viento	6.4
65638	7	Sololá	701	Sololá	3	Barraneche	12	Diciembre	2023-08-12T00:00:00	2024-11-06T20:00:00	7	Dirección del viento	6.44
65639	7	Sololá	701	Sololá	3	Barraneche	12	Diciembre	2023-08-12T00:00:00	2024-11-06T20:00:00	1	Precipitación	0
65640	7	Sololá	701	Sololá	3	Barraneche	12	Diciembre	2023-08-12T00:00:00	2024-11-06T20:00:00	8	Radiación solar	0
65641	7	Sololá	701	Sololá	3	Barraneche	12	Diciembre	2023-08-12T00:00:00	2024-11-06T21:00:00	2	Temperatura media	12.1
65642	7	Sololá	701	Sololá	3	Barraneche	12	Diciembre	2023-08-12T00:00:00	2024-11-06T21:00:00	4	Temperatura máxima	14.3
65643	7	Sololá	701	Sololá	3	Barraneche	12	Diciembre	2023-08-12T00:00:00	2024-11-06T21:00:00	3	Temperatura mínima	11.9
65644	7	Sololá	701	Sololá	3	Barraneche	12	Diciembre	2023-08-12T00:00:00	2024-11-06T21:00:00	5	Humedad	64
65645	7	Sololá	701	Sololá	3	Barraneche	12	Diciembre	2023-08-12T00:00:00	2024-11-06T21:00:00	6	Velocidad del viento	4.8
65646	7	Sololá	701	Sololá	3	Barraneche	12	Diciembre	2023-08-12T00:00:00	2024-11-06T21:00:00	7	Dirección del viento	4.83
65647	7	Sololá	701	Sololá	3	Barraneche	12	Diciembre	2023-08-12T00:00:00	2024-11-06T21:00:00	1	Precipitación	0
65648	7	Sololá	701	Sololá	3	Barraneche	12	Diciembre	2023-08-12T00:00:00	2024-11-06T21:00:00	8	Radiación solar	0
65649	7	Sololá	701	Sololá	3	Barraneche	12	Diciembre	2023-08-12T00:00:00	2024-11-06T22:00:00	2	Temperatura media	12.6
65650	7	Sololá	701	Sololá	3	Barraneche	12	Diciembre	2023-08-12T00:00:00	2024-11-06T22:00:00	4	Temperatura máxima	12.6
65651	7	Sololá	701	Sololá	3	Barraneche	12	Diciembre	2023-08-12T00:00:00	2024-11-06T22:00:00	3	Temperatura mínima	11
65652	7	Sololá	701	Sololá	3	Barraneche	12	Diciembre	2023-08-12T00:00:00	2024-11-06T22:00:00	5	Humedad	64
65653	7	Sololá	701	Sololá	3	Barraneche	12	Diciembre	2023-08-12T00:00:00	2024-11-06T22:00:00	6	Velocidad del viento	4.8
65654	7	Sololá	701	Sololá	3	Barraneche	12	Diciembre	2023-08-12T00:00:00	2024-11-06T22:00:00	7	Dirección del viento	4.83
65655	7	Sololá	701	Sololá	3	Barraneche	12	Diciembre	2023-08-12T00:00:00	2024-11-06T22:00:00	1	Precipitación	0
65656	7	Sololá	701	Sololá	3	Barraneche	12	Diciembre	2023-08-12T00:00:00	2024-11-06T22:00:00	8	Radiación solar	0
65657	7	Sololá	701	Sololá	3	Barraneche	12	Diciembre	2023-08-12T00:00:00	2024-11-06T23:00:00	2	Temperatura media	12.3
65658	7	Sololá	701	Sololá	3	Barraneche	12	Diciembre	2023-08-12T00:00:00	2024-11-06T23:00:00	4	Temperatura máxima	13.1
65659	7	Sololá	701	Sololá	3	Barraneche	12	Diciembre	2023-08-12T00:00:00	2024-11-06T23:00:00	3	Temperatura mínima	11.5
65660	7	Sololá	701	Sololá	3	Barraneche	12	Diciembre	2023-08-12T00:00:00	2024-11-06T23:00:00	5	Humedad	60
65661	7	Sololá	701	Sololá	3	Barraneche	12	Diciembre	2023-08-12T00:00:00	2024-11-06T23:00:00	6	Velocidad del viento	3.2
65662	7	Sololá	701	Sololá	3	Barraneche	12	Diciembre	2023-08-12T00:00:00	2024-11-06T23:00:00	7	Dirección del viento	3.22
65663	7	Sololá	701	Sololá	3	Barraneche	12	Diciembre	2023-08-12T00:00:00	2024-11-06T23:00:00	1	Precipitación	0
65664	7	Sololá	701	Sololá	3	Barraneche	12	Diciembre	2023-08-12T00:00:00	2024-11-06T23:00:00	8	Radiación solar	0
65665	7	Sololá	701	Sololá	3	Barraneche	12	Diciembre	2023-09-12T00:00:00	2024-11-06T00:00:00	2	Temperatura media	9.9
65666	7	Sololá	701	Sololá	3	Barraneche	12	Diciembre	2023-09-12T00:00:00	2024-11-06T00:00:00	4	Temperatura máxima	12.3
65667	7	Sololá	701	Sololá	3	Barraneche	12	Diciembre	2023-09-12T00:00:00	2024-11-06T00:00:00	3	Temperatura mínima	9.9
65668	7	Sololá	701	Sololá	3	Barraneche	12	Diciembre	2023-09-12T00:00:00	2024-11-06T00:00:00	5	Humedad	64
65669	7	Sololá	701	Sololá	3	Barraneche	12	Diciembre	2023-09-12T00:00:00	2024-11-06T00:00:00	6	Velocidad del viento	3.2
65670	7	Sololá	701	Sololá	3	Barraneche	12	Diciembre	2023-09-12T00:00:00	2024-11-06T00:00:00	7	Dirección del viento	3.22
65671	7	Sololá	701	Sololá	3	Barraneche	12	Diciembre	2023-09-12T00:00:00	2024-11-06T00:00:00	1	Precipitación	0
65672	7	Sololá	701	Sololá	3	Barraneche	12	Diciembre	2023-09-12T00:00:00	2024-11-06T00:00:00	8	Radiación solar	0
65673	7	Sololá	701	Sololá	3	Barraneche	12	Diciembre	2023-09-12T00:00:00	2024-11-06T01:00:00	2	Temperatura media	11
65674	7	Sololá	701	Sololá	3	Barraneche	12	Diciembre	2023-09-12T00:00:00	2024-11-06T01:00:00	4	Temperatura máxima	11.1
65675	7	Sololá	701	Sololá	3	Barraneche	12	Diciembre	2023-09-12T00:00:00	2024-11-06T01:00:00	3	Temperatura mínima	9.7
65676	7	Sololá	701	Sololá	3	Barraneche	12	Diciembre	2023-09-12T00:00:00	2024-11-06T01:00:00	5	Humedad	62
65677	7	Sololá	701	Sololá	3	Barraneche	12	Diciembre	2023-09-12T00:00:00	2024-11-06T01:00:00	6	Velocidad del viento	4.8
65678	7	Sololá	701	Sololá	3	Barraneche	12	Diciembre	2023-09-12T00:00:00	2024-11-06T01:00:00	7	Dirección del viento	4.83
65679	7	Sololá	701	Sololá	3	Barraneche	12	Diciembre	2023-09-12T00:00:00	2024-11-06T01:00:00	1	Precipitación	0
65680	7	Sololá	701	Sololá	3	Barraneche	12	Diciembre	2023-09-12T00:00:00	2024-11-06T01:00:00	8	Radiación solar	0
65681	7	Sololá	701	Sololá	3	Barraneche	12	Diciembre	2023-09-12T00:00:00	2024-11-06T02:00:00	2	Temperatura media	9.9
65682	7	Sololá	701	Sololá	3	Barraneche	12	Diciembre	2023-09-12T00:00:00	2024-11-06T02:00:00	4	Temperatura máxima	11
65683	7	Sololá	701	Sololá	3	Barraneche	12	Diciembre	2023-09-12T00:00:00	2024-11-06T02:00:00	3	Temperatura mínima	9.6
65684	7	Sololá	701	Sololá	3	Barraneche	12	Diciembre	2023-09-12T00:00:00	2024-11-06T02:00:00	5	Humedad	65
65685	7	Sololá	701	Sololá	3	Barraneche	12	Diciembre	2023-09-12T00:00:00	2024-11-06T02:00:00	6	Velocidad del viento	4.8
65686	7	Sololá	701	Sololá	3	Barraneche	12	Diciembre	2023-09-12T00:00:00	2024-11-06T02:00:00	7	Dirección del viento	4.83
65687	7	Sololá	701	Sololá	3	Barraneche	12	Diciembre	2023-09-12T00:00:00	2024-11-06T02:00:00	1	Precipitación	0
65688	7	Sololá	701	Sololá	3	Barraneche	12	Diciembre	2023-09-12T00:00:00	2024-11-06T02:00:00	8	Radiación solar	0
65689	7	Sololá	701	Sololá	3	Barraneche	12	Diciembre	2023-09-12T00:00:00	2024-11-06T03:00:00	2	Temperatura media	10.6
65690	7	Sololá	701	Sololá	3	Barraneche	12	Diciembre	2023-09-12T00:00:00	2024-11-06T03:00:00	4	Temperatura máxima	10.6
65691	7	Sololá	701	Sololá	3	Barraneche	12	Diciembre	2023-09-12T00:00:00	2024-11-06T03:00:00	3	Temperatura mínima	9.9
65692	7	Sololá	701	Sololá	3	Barraneche	12	Diciembre	2023-09-12T00:00:00	2024-11-06T03:00:00	5	Humedad	59
65693	7	Sololá	701	Sololá	3	Barraneche	12	Diciembre	2023-09-12T00:00:00	2024-11-06T03:00:00	6	Velocidad del viento	8
65694	7	Sololá	701	Sololá	3	Barraneche	12	Diciembre	2023-09-12T00:00:00	2024-11-06T03:00:00	7	Dirección del viento	8.05
65695	7	Sololá	701	Sololá	3	Barraneche	12	Diciembre	2023-09-12T00:00:00	2024-11-06T03:00:00	1	Precipitación	0
65696	7	Sololá	701	Sololá	3	Barraneche	12	Diciembre	2023-09-12T00:00:00	2024-11-06T03:00:00	8	Radiación solar	0
65697	7	Sololá	701	Sololá	3	Barraneche	12	Diciembre	2023-09-12T00:00:00	2024-11-06T04:00:00	2	Temperatura media	10
65698	7	Sololá	701	Sololá	3	Barraneche	12	Diciembre	2023-09-12T00:00:00	2024-11-06T04:00:00	4	Temperatura máxima	10.6
65699	7	Sololá	701	Sololá	3	Barraneche	12	Diciembre	2023-09-12T00:00:00	2024-11-06T04:00:00	3	Temperatura mínima	9.6
65700	7	Sololá	701	Sololá	3	Barraneche	12	Diciembre	2023-09-12T00:00:00	2024-11-06T04:00:00	5	Humedad	55
65701	7	Sololá	701	Sololá	3	Barraneche	12	Diciembre	2023-09-12T00:00:00	2024-11-06T04:00:00	6	Velocidad del viento	8
65702	7	Sololá	701	Sololá	3	Barraneche	12	Diciembre	2023-09-12T00:00:00	2024-11-06T04:00:00	7	Dirección del viento	8.05
65703	7	Sololá	701	Sololá	3	Barraneche	12	Diciembre	2023-09-12T00:00:00	2024-11-06T04:00:00	1	Precipitación	0
65704	7	Sololá	701	Sololá	3	Barraneche	12	Diciembre	2023-09-12T00:00:00	2024-11-06T04:00:00	8	Radiación solar	0
65705	7	Sololá	701	Sololá	3	Barraneche	12	Diciembre	2023-09-12T00:00:00	2024-11-06T05:00:00	2	Temperatura media	10.3
65706	7	Sololá	701	Sololá	3	Barraneche	12	Diciembre	2023-09-12T00:00:00	2024-11-06T05:00:00	4	Temperatura máxima	10.3
65707	7	Sololá	701	Sololá	3	Barraneche	12	Diciembre	2023-09-12T00:00:00	2024-11-06T05:00:00	3	Temperatura mínima	9.4
65708	7	Sololá	701	Sololá	3	Barraneche	12	Diciembre	2023-09-12T00:00:00	2024-11-06T05:00:00	5	Humedad	50
65709	7	Sololá	701	Sololá	3	Barraneche	12	Diciembre	2023-09-12T00:00:00	2024-11-06T05:00:00	6	Velocidad del viento	4.8
65710	7	Sololá	701	Sololá	3	Barraneche	12	Diciembre	2023-09-12T00:00:00	2024-11-06T05:00:00	7	Dirección del viento	4.83
65711	7	Sololá	701	Sololá	3	Barraneche	12	Diciembre	2023-09-12T00:00:00	2024-11-06T05:00:00	1	Precipitación	0
65712	7	Sololá	701	Sololá	3	Barraneche	12	Diciembre	2023-09-12T00:00:00	2024-11-06T05:00:00	8	Radiación solar	0
65713	7	Sololá	701	Sololá	3	Barraneche	12	Diciembre	2023-09-12T00:00:00	2024-11-06T06:00:00	2	Temperatura media	9.6
65714	7	Sololá	701	Sololá	3	Barraneche	12	Diciembre	2023-09-12T00:00:00	2024-11-06T06:00:00	4	Temperatura máxima	10.6
65715	7	Sololá	701	Sololá	3	Barraneche	12	Diciembre	2023-09-12T00:00:00	2024-11-06T06:00:00	3	Temperatura mínima	9.3
65716	7	Sololá	701	Sololá	3	Barraneche	12	Diciembre	2023-09-12T00:00:00	2024-11-06T06:00:00	5	Humedad	51
65717	7	Sololá	701	Sololá	3	Barraneche	12	Diciembre	2023-09-12T00:00:00	2024-11-06T06:00:00	6	Velocidad del viento	8
65718	7	Sololá	701	Sololá	3	Barraneche	12	Diciembre	2023-09-12T00:00:00	2024-11-06T06:00:00	7	Dirección del viento	8.05
65719	7	Sololá	701	Sololá	3	Barraneche	12	Diciembre	2023-09-12T00:00:00	2024-11-06T06:00:00	1	Precipitación	0
65720	7	Sololá	701	Sololá	3	Barraneche	12	Diciembre	2023-09-12T00:00:00	2024-11-06T06:00:00	8	Radiación solar	0
65721	7	Sololá	701	Sololá	3	Barraneche	12	Diciembre	2023-09-12T00:00:00	2024-11-06T07:00:00	2	Temperatura media	10.6
65722	7	Sololá	701	Sololá	3	Barraneche	12	Diciembre	2023-09-12T00:00:00	2024-11-06T07:00:00	4	Temperatura máxima	10.6
65723	7	Sololá	701	Sololá	3	Barraneche	12	Diciembre	2023-09-12T00:00:00	2024-11-06T07:00:00	3	Temperatura mínima	9.6
65724	7	Sololá	701	Sololá	3	Barraneche	12	Diciembre	2023-09-12T00:00:00	2024-11-06T07:00:00	5	Humedad	52
65725	7	Sololá	701	Sololá	3	Barraneche	12	Diciembre	2023-09-12T00:00:00	2024-11-06T07:00:00	6	Velocidad del viento	6.4
65726	7	Sololá	701	Sololá	3	Barraneche	12	Diciembre	2023-09-12T00:00:00	2024-11-06T07:00:00	7	Dirección del viento	6.44
65727	7	Sololá	701	Sololá	3	Barraneche	12	Diciembre	2023-09-12T00:00:00	2024-11-06T07:00:00	1	Precipitación	0
65728	7	Sololá	701	Sololá	3	Barraneche	12	Diciembre	2023-09-12T00:00:00	2024-11-06T07:00:00	8	Radiación solar	14
65729	7	Sololá	701	Sololá	3	Barraneche	12	Diciembre	2023-09-12T00:00:00	2024-11-06T08:00:00	2	Temperatura media	15.7
65730	7	Sololá	701	Sololá	3	Barraneche	12	Diciembre	2023-09-12T00:00:00	2024-11-06T08:00:00	4	Temperatura máxima	15.8
65731	7	Sololá	701	Sololá	3	Barraneche	12	Diciembre	2023-09-12T00:00:00	2024-11-06T08:00:00	3	Temperatura mínima	10.6
65732	7	Sololá	701	Sololá	3	Barraneche	12	Diciembre	2023-09-12T00:00:00	2024-11-06T08:00:00	5	Humedad	46
65733	7	Sololá	701	Sololá	3	Barraneche	12	Diciembre	2023-09-12T00:00:00	2024-11-06T08:00:00	6	Velocidad del viento	4.8
65734	7	Sololá	701	Sololá	3	Barraneche	12	Diciembre	2023-09-12T00:00:00	2024-11-06T08:00:00	7	Dirección del viento	4.83
65735	7	Sololá	701	Sololá	3	Barraneche	12	Diciembre	2023-09-12T00:00:00	2024-11-06T08:00:00	1	Precipitación	0
65736	7	Sololá	701	Sololá	3	Barraneche	12	Diciembre	2023-09-12T00:00:00	2024-11-06T08:00:00	8	Radiación solar	215
65737	7	Sololá	701	Sololá	3	Barraneche	12	Diciembre	2023-09-12T00:00:00	2024-11-06T09:00:00	2	Temperatura media	17.9
65738	7	Sololá	701	Sololá	3	Barraneche	12	Diciembre	2023-09-12T00:00:00	2024-11-06T09:00:00	4	Temperatura máxima	17.9
65739	7	Sololá	701	Sololá	3	Barraneche	12	Diciembre	2023-09-12T00:00:00	2024-11-06T09:00:00	3	Temperatura mínima	15.7
65740	7	Sololá	701	Sololá	3	Barraneche	12	Diciembre	2023-09-12T00:00:00	2024-11-06T09:00:00	5	Humedad	36
65741	7	Sololá	701	Sololá	3	Barraneche	12	Diciembre	2023-09-12T00:00:00	2024-11-06T09:00:00	6	Velocidad del viento	9.7
65742	7	Sololá	701	Sololá	3	Barraneche	12	Diciembre	2023-09-12T00:00:00	2024-11-06T09:00:00	7	Dirección del viento	9.66
65743	7	Sololá	701	Sololá	3	Barraneche	12	Diciembre	2023-09-12T00:00:00	2024-11-06T09:00:00	1	Precipitación	0
65744	7	Sololá	701	Sololá	3	Barraneche	12	Diciembre	2023-09-12T00:00:00	2024-11-06T09:00:00	8	Radiación solar	449
65745	7	Sololá	701	Sololá	3	Barraneche	12	Diciembre	2023-09-12T00:00:00	2024-11-06T10:00:00	2	Temperatura media	18.4
65746	7	Sololá	701	Sololá	3	Barraneche	12	Diciembre	2023-09-12T00:00:00	2024-11-06T10:00:00	4	Temperatura máxima	18.9
65747	7	Sololá	701	Sololá	3	Barraneche	12	Diciembre	2023-09-12T00:00:00	2024-11-06T10:00:00	3	Temperatura mínima	17.9
65748	7	Sololá	701	Sololá	3	Barraneche	12	Diciembre	2023-09-12T00:00:00	2024-11-06T10:00:00	5	Humedad	38
65749	7	Sololá	701	Sololá	3	Barraneche	12	Diciembre	2023-09-12T00:00:00	2024-11-06T10:00:00	6	Velocidad del viento	14.5
65750	7	Sololá	701	Sololá	3	Barraneche	12	Diciembre	2023-09-12T00:00:00	2024-11-06T10:00:00	7	Dirección del viento	14.48
65751	7	Sololá	701	Sololá	3	Barraneche	12	Diciembre	2023-09-12T00:00:00	2024-11-06T10:00:00	1	Precipitación	0
65752	7	Sololá	701	Sololá	3	Barraneche	12	Diciembre	2023-09-12T00:00:00	2024-11-06T10:00:00	8	Radiación solar	622
65753	7	Sololá	701	Sololá	3	Barraneche	12	Diciembre	2023-09-12T00:00:00	2024-11-06T11:00:00	2	Temperatura media	19.2
65754	7	Sololá	701	Sololá	3	Barraneche	12	Diciembre	2023-09-12T00:00:00	2024-11-06T11:00:00	4	Temperatura máxima	19.3
65755	7	Sololá	701	Sololá	3	Barraneche	12	Diciembre	2023-09-12T00:00:00	2024-11-06T11:00:00	3	Temperatura mínima	18.3
65756	7	Sololá	701	Sololá	3	Barraneche	12	Diciembre	2023-09-12T00:00:00	2024-11-06T11:00:00	5	Humedad	34
65757	7	Sololá	701	Sololá	3	Barraneche	12	Diciembre	2023-09-12T00:00:00	2024-11-06T11:00:00	6	Velocidad del viento	14.5
65758	7	Sololá	701	Sololá	3	Barraneche	12	Diciembre	2023-09-12T00:00:00	2024-11-06T11:00:00	7	Dirección del viento	14.48
65759	7	Sololá	701	Sololá	3	Barraneche	12	Diciembre	2023-09-12T00:00:00	2024-11-06T11:00:00	1	Precipitación	0
65760	7	Sololá	701	Sololá	3	Barraneche	12	Diciembre	2023-09-12T00:00:00	2024-11-06T11:00:00	8	Radiación solar	774
65761	7	Sololá	701	Sololá	3	Barraneche	12	Diciembre	2023-09-12T00:00:00	2024-11-06T12:00:00	2	Temperatura media	20.2
65762	7	Sololá	701	Sololá	3	Barraneche	12	Diciembre	2023-09-12T00:00:00	2024-11-06T12:00:00	4	Temperatura máxima	20.2
65763	7	Sololá	701	Sololá	3	Barraneche	12	Diciembre	2023-09-12T00:00:00	2024-11-06T12:00:00	3	Temperatura mínima	19.2
65764	7	Sololá	701	Sololá	3	Barraneche	12	Diciembre	2023-09-12T00:00:00	2024-11-06T12:00:00	5	Humedad	30
65765	7	Sololá	701	Sololá	3	Barraneche	12	Diciembre	2023-09-12T00:00:00	2024-11-06T12:00:00	6	Velocidad del viento	11.3
65766	7	Sololá	701	Sololá	3	Barraneche	12	Diciembre	2023-09-12T00:00:00	2024-11-06T12:00:00	7	Dirección del viento	11.27
65767	7	Sololá	701	Sololá	3	Barraneche	12	Diciembre	2023-09-12T00:00:00	2024-11-06T12:00:00	1	Precipitación	0
65768	7	Sololá	701	Sololá	3	Barraneche	12	Diciembre	2023-09-12T00:00:00	2024-11-06T12:00:00	8	Radiación solar	848
65769	7	Sololá	701	Sololá	3	Barraneche	12	Diciembre	2023-09-12T00:00:00	2024-11-06T13:00:00	2	Temperatura media	20.2
65770	7	Sololá	701	Sololá	3	Barraneche	12	Diciembre	2023-09-12T00:00:00	2024-11-06T13:00:00	4	Temperatura máxima	20.2
65771	7	Sololá	701	Sololá	3	Barraneche	12	Diciembre	2023-09-12T00:00:00	2024-11-06T13:00:00	3	Temperatura mínima	19.5
65772	7	Sololá	701	Sololá	3	Barraneche	12	Diciembre	2023-09-12T00:00:00	2024-11-06T13:00:00	5	Humedad	29
65773	7	Sololá	701	Sololá	3	Barraneche	12	Diciembre	2023-09-12T00:00:00	2024-11-06T13:00:00	6	Velocidad del viento	9.7
65774	7	Sololá	701	Sololá	3	Barraneche	12	Diciembre	2023-09-12T00:00:00	2024-11-06T13:00:00	7	Dirección del viento	9.66
65775	7	Sololá	701	Sololá	3	Barraneche	12	Diciembre	2023-09-12T00:00:00	2024-11-06T13:00:00	1	Precipitación	0
65776	7	Sololá	701	Sololá	3	Barraneche	12	Diciembre	2023-09-12T00:00:00	2024-11-06T13:00:00	8	Radiación solar	843
65777	7	Sololá	701	Sololá	3	Barraneche	12	Diciembre	2023-09-12T00:00:00	2024-11-06T14:00:00	2	Temperatura media	20.1
65778	7	Sololá	701	Sololá	3	Barraneche	12	Diciembre	2023-09-12T00:00:00	2024-11-06T14:00:00	4	Temperatura máxima	20.3
65779	7	Sololá	701	Sololá	3	Barraneche	12	Diciembre	2023-09-12T00:00:00	2024-11-06T14:00:00	3	Temperatura mínima	19.8
65780	7	Sololá	701	Sololá	3	Barraneche	12	Diciembre	2023-09-12T00:00:00	2024-11-06T14:00:00	5	Humedad	28
65781	7	Sololá	701	Sololá	3	Barraneche	12	Diciembre	2023-09-12T00:00:00	2024-11-06T14:00:00	6	Velocidad del viento	11.3
65782	7	Sololá	701	Sololá	3	Barraneche	12	Diciembre	2023-09-12T00:00:00	2024-11-06T14:00:00	7	Dirección del viento	11.27
65783	7	Sololá	701	Sololá	3	Barraneche	12	Diciembre	2023-09-12T00:00:00	2024-11-06T14:00:00	1	Precipitación	0
65784	7	Sololá	701	Sololá	3	Barraneche	12	Diciembre	2023-09-12T00:00:00	2024-11-06T14:00:00	8	Radiación solar	765
65785	7	Sololá	701	Sololá	3	Barraneche	12	Diciembre	2023-09-12T00:00:00	2024-11-06T15:00:00	2	Temperatura media	20.4
65786	7	Sololá	701	Sololá	3	Barraneche	12	Diciembre	2023-09-12T00:00:00	2024-11-06T15:00:00	4	Temperatura máxima	20.5
65787	7	Sololá	701	Sololá	3	Barraneche	12	Diciembre	2023-09-12T00:00:00	2024-11-06T15:00:00	3	Temperatura mínima	20.1
65788	7	Sololá	701	Sololá	3	Barraneche	12	Diciembre	2023-09-12T00:00:00	2024-11-06T15:00:00	5	Humedad	18
65789	7	Sololá	701	Sololá	3	Barraneche	12	Diciembre	2023-09-12T00:00:00	2024-11-06T15:00:00	6	Velocidad del viento	9.7
65790	7	Sololá	701	Sololá	3	Barraneche	12	Diciembre	2023-09-12T00:00:00	2024-11-06T15:00:00	7	Dirección del viento	9.66
65791	7	Sololá	701	Sololá	3	Barraneche	12	Diciembre	2023-09-12T00:00:00	2024-11-06T15:00:00	1	Precipitación	0
65792	7	Sololá	701	Sololá	3	Barraneche	12	Diciembre	2023-09-12T00:00:00	2024-11-06T15:00:00	8	Radiación solar	610
65793	7	Sololá	701	Sololá	3	Barraneche	12	Diciembre	2023-09-12T00:00:00	2024-11-06T16:00:00	2	Temperatura media	18.9
65794	7	Sololá	701	Sololá	3	Barraneche	12	Diciembre	2023-09-12T00:00:00	2024-11-06T16:00:00	4	Temperatura máxima	20.5
65795	7	Sololá	701	Sololá	3	Barraneche	12	Diciembre	2023-09-12T00:00:00	2024-11-06T16:00:00	3	Temperatura mínima	18.9
65796	7	Sololá	701	Sololá	3	Barraneche	12	Diciembre	2023-09-12T00:00:00	2024-11-06T16:00:00	5	Humedad	22
65797	7	Sololá	701	Sololá	3	Barraneche	12	Diciembre	2023-09-12T00:00:00	2024-11-06T16:00:00	6	Velocidad del viento	11.3
65798	7	Sololá	701	Sololá	3	Barraneche	12	Diciembre	2023-09-12T00:00:00	2024-11-06T16:00:00	7	Dirección del viento	11.27
65799	7	Sololá	701	Sololá	3	Barraneche	12	Diciembre	2023-09-12T00:00:00	2024-11-06T16:00:00	1	Precipitación	0
65800	7	Sololá	701	Sololá	3	Barraneche	12	Diciembre	2023-09-12T00:00:00	2024-11-06T16:00:00	8	Radiación solar	422
65801	7	Sololá	701	Sololá	3	Barraneche	12	Diciembre	2023-09-12T00:00:00	2024-11-06T17:00:00	2	Temperatura media	17.4
65802	7	Sololá	701	Sololá	3	Barraneche	12	Diciembre	2023-09-12T00:00:00	2024-11-06T17:00:00	4	Temperatura máxima	19
65803	7	Sololá	701	Sololá	3	Barraneche	12	Diciembre	2023-09-12T00:00:00	2024-11-06T17:00:00	3	Temperatura mínima	17.4
65804	7	Sololá	701	Sololá	3	Barraneche	12	Diciembre	2023-09-12T00:00:00	2024-11-06T17:00:00	5	Humedad	37
65805	7	Sololá	701	Sololá	3	Barraneche	12	Diciembre	2023-09-12T00:00:00	2024-11-06T17:00:00	6	Velocidad del viento	8
65806	7	Sololá	701	Sololá	3	Barraneche	12	Diciembre	2023-09-12T00:00:00	2024-11-06T17:00:00	7	Dirección del viento	8.05
65807	7	Sololá	701	Sololá	3	Barraneche	12	Diciembre	2023-09-12T00:00:00	2024-11-06T17:00:00	1	Precipitación	0
65808	7	Sololá	701	Sololá	3	Barraneche	12	Diciembre	2023-09-12T00:00:00	2024-11-06T17:00:00	8	Radiación solar	165
65809	7	Sololá	701	Sololá	3	Barraneche	12	Diciembre	2023-09-12T00:00:00	2024-11-06T18:00:00	2	Temperatura media	15.3
65810	7	Sololá	701	Sololá	3	Barraneche	12	Diciembre	2023-09-12T00:00:00	2024-11-06T18:00:00	4	Temperatura máxima	17.4
65811	7	Sololá	701	Sololá	3	Barraneche	12	Diciembre	2023-09-12T00:00:00	2024-11-06T18:00:00	3	Temperatura mínima	15.3
65812	7	Sololá	701	Sololá	3	Barraneche	12	Diciembre	2023-09-12T00:00:00	2024-11-06T18:00:00	5	Humedad	54
65813	7	Sololá	701	Sololá	3	Barraneche	12	Diciembre	2023-09-12T00:00:00	2024-11-06T18:00:00	6	Velocidad del viento	4.8
65814	7	Sololá	701	Sololá	3	Barraneche	12	Diciembre	2023-09-12T00:00:00	2024-11-06T18:00:00	7	Dirección del viento	4.83
65815	7	Sololá	701	Sololá	3	Barraneche	12	Diciembre	2023-09-12T00:00:00	2024-11-06T18:00:00	1	Precipitación	0
65816	7	Sololá	701	Sololá	3	Barraneche	12	Diciembre	2023-09-12T00:00:00	2024-11-06T18:00:00	8	Radiación solar	18
65817	7	Sololá	701	Sololá	3	Barraneche	12	Diciembre	2023-09-12T00:00:00	2024-11-06T19:00:00	2	Temperatura media	14.7
65818	7	Sololá	701	Sololá	3	Barraneche	12	Diciembre	2023-09-12T00:00:00	2024-11-06T19:00:00	4	Temperatura máxima	15.3
65819	7	Sololá	701	Sololá	3	Barraneche	12	Diciembre	2023-09-12T00:00:00	2024-11-06T19:00:00	3	Temperatura mínima	14.4
65820	7	Sololá	701	Sololá	3	Barraneche	12	Diciembre	2023-09-12T00:00:00	2024-11-06T19:00:00	5	Humedad	61
65821	7	Sololá	701	Sololá	3	Barraneche	12	Diciembre	2023-09-12T00:00:00	2024-11-06T19:00:00	6	Velocidad del viento	6.4
65822	7	Sololá	701	Sololá	3	Barraneche	12	Diciembre	2023-09-12T00:00:00	2024-11-06T19:00:00	7	Dirección del viento	6.44
65823	7	Sololá	701	Sololá	3	Barraneche	12	Diciembre	2023-09-12T00:00:00	2024-11-06T19:00:00	1	Precipitación	0
65824	7	Sololá	701	Sololá	3	Barraneche	12	Diciembre	2023-09-12T00:00:00	2024-11-06T19:00:00	8	Radiación solar	0
65825	7	Sololá	701	Sololá	3	Barraneche	12	Diciembre	2023-09-12T00:00:00	2024-11-06T20:00:00	2	Temperatura media	12.3
65826	7	Sololá	701	Sololá	3	Barraneche	12	Diciembre	2023-09-12T00:00:00	2024-11-06T20:00:00	4	Temperatura máxima	14.8
65827	7	Sololá	701	Sololá	3	Barraneche	12	Diciembre	2023-09-12T00:00:00	2024-11-06T20:00:00	3	Temperatura mínima	12.3
65828	7	Sololá	701	Sololá	3	Barraneche	12	Diciembre	2023-09-12T00:00:00	2024-11-06T20:00:00	5	Humedad	53
65829	7	Sololá	701	Sololá	3	Barraneche	12	Diciembre	2023-09-12T00:00:00	2024-11-06T20:00:00	6	Velocidad del viento	6.4
65830	7	Sololá	701	Sololá	3	Barraneche	12	Diciembre	2023-09-12T00:00:00	2024-11-06T20:00:00	7	Dirección del viento	6.44
65831	7	Sololá	701	Sololá	3	Barraneche	12	Diciembre	2023-09-12T00:00:00	2024-11-06T20:00:00	1	Precipitación	0
65832	7	Sololá	701	Sololá	3	Barraneche	12	Diciembre	2023-09-12T00:00:00	2024-11-06T20:00:00	8	Radiación solar	0
65833	7	Sololá	701	Sololá	3	Barraneche	12	Diciembre	2023-09-12T00:00:00	2024-11-06T21:00:00	2	Temperatura media	11.9
65834	7	Sololá	701	Sololá	3	Barraneche	12	Diciembre	2023-09-12T00:00:00	2024-11-06T21:00:00	4	Temperatura máxima	12.8
65835	7	Sololá	701	Sololá	3	Barraneche	12	Diciembre	2023-09-12T00:00:00	2024-11-06T21:00:00	3	Temperatura mínima	11.9
65836	7	Sololá	701	Sololá	3	Barraneche	12	Diciembre	2023-09-12T00:00:00	2024-11-06T21:00:00	5	Humedad	48
65837	7	Sololá	701	Sololá	3	Barraneche	12	Diciembre	2023-09-12T00:00:00	2024-11-06T21:00:00	6	Velocidad del viento	4.8
65838	7	Sololá	701	Sololá	3	Barraneche	12	Diciembre	2023-09-12T00:00:00	2024-11-06T21:00:00	7	Dirección del viento	4.83
65839	7	Sololá	701	Sololá	3	Barraneche	12	Diciembre	2023-09-12T00:00:00	2024-11-06T21:00:00	1	Precipitación	0
65840	7	Sololá	701	Sololá	3	Barraneche	12	Diciembre	2023-09-12T00:00:00	2024-11-06T21:00:00	8	Radiación solar	0
65841	7	Sololá	701	Sololá	3	Barraneche	12	Diciembre	2023-09-12T00:00:00	2024-11-06T22:00:00	2	Temperatura media	10.1
65842	7	Sololá	701	Sololá	3	Barraneche	12	Diciembre	2023-09-12T00:00:00	2024-11-06T22:00:00	4	Temperatura máxima	11.9
65843	7	Sololá	701	Sololá	3	Barraneche	12	Diciembre	2023-09-12T00:00:00	2024-11-06T22:00:00	3	Temperatura mínima	10.1
65844	7	Sololá	701	Sololá	3	Barraneche	12	Diciembre	2023-09-12T00:00:00	2024-11-06T22:00:00	5	Humedad	46
65845	7	Sololá	701	Sololá	3	Barraneche	12	Diciembre	2023-09-12T00:00:00	2024-11-06T22:00:00	6	Velocidad del viento	6.4
65846	7	Sololá	701	Sololá	3	Barraneche	12	Diciembre	2023-09-12T00:00:00	2024-11-06T22:00:00	7	Dirección del viento	6.44
65847	7	Sololá	701	Sololá	3	Barraneche	12	Diciembre	2023-09-12T00:00:00	2024-11-06T22:00:00	1	Precipitación	0
65848	7	Sololá	701	Sololá	3	Barraneche	12	Diciembre	2023-09-12T00:00:00	2024-11-06T22:00:00	8	Radiación solar	0
65849	7	Sololá	701	Sololá	3	Barraneche	12	Diciembre	2023-09-12T00:00:00	2024-11-06T23:00:00	2	Temperatura media	10.1
65850	7	Sololá	701	Sololá	3	Barraneche	12	Diciembre	2023-09-12T00:00:00	2024-11-06T23:00:00	4	Temperatura máxima	10.8
65851	7	Sololá	701	Sololá	3	Barraneche	12	Diciembre	2023-09-12T00:00:00	2024-11-06T23:00:00	3	Temperatura mínima	10
65852	7	Sololá	701	Sololá	3	Barraneche	12	Diciembre	2023-09-12T00:00:00	2024-11-06T23:00:00	5	Humedad	43
65853	7	Sololá	701	Sololá	3	Barraneche	12	Diciembre	2023-09-12T00:00:00	2024-11-06T23:00:00	6	Velocidad del viento	8
65854	7	Sololá	701	Sololá	3	Barraneche	12	Diciembre	2023-09-12T00:00:00	2024-11-06T23:00:00	7	Dirección del viento	8.05
65855	7	Sololá	701	Sololá	3	Barraneche	12	Diciembre	2023-09-12T00:00:00	2024-11-06T23:00:00	1	Precipitación	0
65856	7	Sololá	701	Sololá	3	Barraneche	12	Diciembre	2023-09-12T00:00:00	2024-11-06T23:00:00	8	Radiación solar	0
65857	7	Sololá	701	Sololá	3	Barraneche	12	Diciembre	2023-10-12T00:00:00	2024-11-06T00:00:00	2	Temperatura media	9.9
65858	7	Sololá	701	Sololá	3	Barraneche	12	Diciembre	2023-10-12T00:00:00	2024-11-06T00:00:00	4	Temperatura máxima	10.7
65859	7	Sololá	701	Sololá	3	Barraneche	12	Diciembre	2023-10-12T00:00:00	2024-11-06T00:00:00	3	Temperatura mínima	9.8
65860	7	Sololá	701	Sololá	3	Barraneche	12	Diciembre	2023-10-12T00:00:00	2024-11-06T00:00:00	5	Humedad	44
65861	7	Sololá	701	Sololá	3	Barraneche	12	Diciembre	2023-10-12T00:00:00	2024-11-06T00:00:00	6	Velocidad del viento	8
65862	7	Sololá	701	Sololá	3	Barraneche	12	Diciembre	2023-10-12T00:00:00	2024-11-06T00:00:00	7	Dirección del viento	8.05
65863	7	Sololá	701	Sololá	3	Barraneche	12	Diciembre	2023-10-12T00:00:00	2024-11-06T00:00:00	1	Precipitación	0
65864	7	Sololá	701	Sololá	3	Barraneche	12	Diciembre	2023-10-12T00:00:00	2024-11-06T00:00:00	8	Radiación solar	0
65865	7	Sololá	701	Sololá	3	Barraneche	12	Diciembre	2023-10-12T00:00:00	2024-11-06T01:00:00	2	Temperatura media	10.4
65866	7	Sololá	701	Sololá	3	Barraneche	12	Diciembre	2023-10-12T00:00:00	2024-11-06T01:00:00	4	Temperatura máxima	11.2
65867	7	Sololá	701	Sololá	3	Barraneche	12	Diciembre	2023-10-12T00:00:00	2024-11-06T01:00:00	3	Temperatura mínima	9.6
65868	7	Sololá	701	Sololá	3	Barraneche	12	Diciembre	2023-10-12T00:00:00	2024-11-06T01:00:00	5	Humedad	42
65869	7	Sololá	701	Sololá	3	Barraneche	12	Diciembre	2023-10-12T00:00:00	2024-11-06T01:00:00	6	Velocidad del viento	8
65870	7	Sololá	701	Sololá	3	Barraneche	12	Diciembre	2023-10-12T00:00:00	2024-11-06T01:00:00	7	Dirección del viento	8.05
65871	7	Sololá	701	Sololá	3	Barraneche	12	Diciembre	2023-10-12T00:00:00	2024-11-06T01:00:00	1	Precipitación	0
65872	7	Sololá	701	Sololá	3	Barraneche	12	Diciembre	2023-10-12T00:00:00	2024-11-06T01:00:00	8	Radiación solar	0
65873	7	Sololá	701	Sololá	3	Barraneche	12	Diciembre	2023-10-12T00:00:00	2024-11-06T02:00:00	2	Temperatura media	11.2
65874	7	Sololá	701	Sololá	3	Barraneche	12	Diciembre	2023-10-12T00:00:00	2024-11-06T02:00:00	4	Temperatura máxima	11.4
65875	7	Sololá	701	Sololá	3	Barraneche	12	Diciembre	2023-10-12T00:00:00	2024-11-06T02:00:00	3	Temperatura mínima	9.8
65876	7	Sololá	701	Sololá	3	Barraneche	12	Diciembre	2023-10-12T00:00:00	2024-11-06T02:00:00	5	Humedad	43
65877	7	Sololá	701	Sololá	3	Barraneche	12	Diciembre	2023-10-12T00:00:00	2024-11-06T02:00:00	6	Velocidad del viento	9.7
65878	7	Sololá	701	Sololá	3	Barraneche	12	Diciembre	2023-10-12T00:00:00	2024-11-06T02:00:00	7	Dirección del viento	9.66
65879	7	Sololá	701	Sololá	3	Barraneche	12	Diciembre	2023-10-12T00:00:00	2024-11-06T02:00:00	1	Precipitación	0
65880	7	Sololá	701	Sololá	3	Barraneche	12	Diciembre	2023-10-12T00:00:00	2024-11-06T02:00:00	8	Radiación solar	0
65881	7	Sololá	701	Sololá	3	Barraneche	12	Diciembre	2023-10-12T00:00:00	2024-11-06T03:00:00	2	Temperatura media	10.4
65882	7	Sololá	701	Sololá	3	Barraneche	12	Diciembre	2023-10-12T00:00:00	2024-11-06T03:00:00	4	Temperatura máxima	11.2
65883	7	Sololá	701	Sololá	3	Barraneche	12	Diciembre	2023-10-12T00:00:00	2024-11-06T03:00:00	3	Temperatura mínima	10.2
65884	7	Sololá	701	Sololá	3	Barraneche	12	Diciembre	2023-10-12T00:00:00	2024-11-06T03:00:00	5	Humedad	50
65885	7	Sololá	701	Sololá	3	Barraneche	12	Diciembre	2023-10-12T00:00:00	2024-11-06T03:00:00	6	Velocidad del viento	6.4
65886	7	Sololá	701	Sololá	3	Barraneche	12	Diciembre	2023-10-12T00:00:00	2024-11-06T03:00:00	7	Dirección del viento	6.44
65887	7	Sololá	701	Sololá	3	Barraneche	12	Diciembre	2023-10-12T00:00:00	2024-11-06T03:00:00	1	Precipitación	0
65888	7	Sololá	701	Sololá	3	Barraneche	12	Diciembre	2023-10-12T00:00:00	2024-11-06T03:00:00	8	Radiación solar	0
65889	7	Sololá	701	Sololá	3	Barraneche	12	Diciembre	2023-10-12T00:00:00	2024-11-06T04:00:00	2	Temperatura media	10.3
65890	7	Sololá	701	Sololá	3	Barraneche	12	Diciembre	2023-10-12T00:00:00	2024-11-06T04:00:00	4	Temperatura máxima	10.6
65891	7	Sololá	701	Sololá	3	Barraneche	12	Diciembre	2023-10-12T00:00:00	2024-11-06T04:00:00	3	Temperatura mínima	10.3
65892	7	Sololá	701	Sololá	3	Barraneche	12	Diciembre	2023-10-12T00:00:00	2024-11-06T04:00:00	5	Humedad	50
65893	7	Sololá	701	Sololá	3	Barraneche	12	Diciembre	2023-10-12T00:00:00	2024-11-06T04:00:00	6	Velocidad del viento	8
65894	7	Sololá	701	Sololá	3	Barraneche	12	Diciembre	2023-10-12T00:00:00	2024-11-06T04:00:00	7	Dirección del viento	8.05
65895	7	Sololá	701	Sololá	3	Barraneche	12	Diciembre	2023-10-12T00:00:00	2024-11-06T04:00:00	1	Precipitación	0
65896	7	Sololá	701	Sololá	3	Barraneche	12	Diciembre	2023-10-12T00:00:00	2024-11-06T04:00:00	8	Radiación solar	0
65897	7	Sololá	701	Sololá	3	Barraneche	12	Diciembre	2023-10-12T00:00:00	2024-11-06T05:00:00	2	Temperatura media	10.4
65898	7	Sololá	701	Sololá	3	Barraneche	12	Diciembre	2023-10-12T00:00:00	2024-11-06T05:00:00	4	Temperatura máxima	10.6
65899	7	Sololá	701	Sololá	3	Barraneche	12	Diciembre	2023-10-12T00:00:00	2024-11-06T05:00:00	3	Temperatura mínima	10.1
65900	7	Sololá	701	Sololá	3	Barraneche	12	Diciembre	2023-10-12T00:00:00	2024-11-06T05:00:00	5	Humedad	51
65901	7	Sololá	701	Sololá	3	Barraneche	12	Diciembre	2023-10-12T00:00:00	2024-11-06T05:00:00	6	Velocidad del viento	8
65902	7	Sololá	701	Sololá	3	Barraneche	12	Diciembre	2023-10-12T00:00:00	2024-11-06T05:00:00	7	Dirección del viento	8.05
65903	7	Sololá	701	Sololá	3	Barraneche	12	Diciembre	2023-10-12T00:00:00	2024-11-06T05:00:00	1	Precipitación	0
65904	7	Sololá	701	Sololá	3	Barraneche	12	Diciembre	2023-10-12T00:00:00	2024-11-06T05:00:00	8	Radiación solar	0
65905	7	Sololá	701	Sololá	3	Barraneche	12	Diciembre	2023-10-12T00:00:00	2024-11-06T06:00:00	2	Temperatura media	10.7
65906	7	Sololá	701	Sololá	3	Barraneche	12	Diciembre	2023-10-12T00:00:00	2024-11-06T06:00:00	4	Temperatura máxima	11.2
65907	7	Sololá	701	Sololá	3	Barraneche	12	Diciembre	2023-10-12T00:00:00	2024-11-06T06:00:00	3	Temperatura mínima	10.3
65908	7	Sololá	701	Sololá	3	Barraneche	12	Diciembre	2023-10-12T00:00:00	2024-11-06T06:00:00	5	Humedad	57
65909	7	Sololá	701	Sololá	3	Barraneche	12	Diciembre	2023-10-12T00:00:00	2024-11-06T06:00:00	6	Velocidad del viento	9.7
65910	7	Sololá	701	Sololá	3	Barraneche	12	Diciembre	2023-10-12T00:00:00	2024-11-06T06:00:00	7	Dirección del viento	9.66
65911	7	Sololá	701	Sololá	3	Barraneche	12	Diciembre	2023-10-12T00:00:00	2024-11-06T06:00:00	1	Precipitación	0
65912	7	Sololá	701	Sololá	3	Barraneche	12	Diciembre	2023-10-12T00:00:00	2024-11-06T06:00:00	8	Radiación solar	0
65913	7	Sololá	701	Sololá	3	Barraneche	12	Diciembre	2023-10-12T00:00:00	2024-11-06T07:00:00	2	Temperatura media	10.9
65914	7	Sololá	701	Sololá	3	Barraneche	12	Diciembre	2023-10-12T00:00:00	2024-11-06T07:00:00	4	Temperatura máxima	11.3
65915	7	Sololá	701	Sololá	3	Barraneche	12	Diciembre	2023-10-12T00:00:00	2024-11-06T07:00:00	3	Temperatura mínima	10.6
65916	7	Sololá	701	Sololá	3	Barraneche	12	Diciembre	2023-10-12T00:00:00	2024-11-06T07:00:00	5	Humedad	59
65917	7	Sololá	701	Sololá	3	Barraneche	12	Diciembre	2023-10-12T00:00:00	2024-11-06T07:00:00	6	Velocidad del viento	9.7
65918	7	Sololá	701	Sololá	3	Barraneche	12	Diciembre	2023-10-12T00:00:00	2024-11-06T07:00:00	7	Dirección del viento	9.66
65919	7	Sololá	701	Sololá	3	Barraneche	12	Diciembre	2023-10-12T00:00:00	2024-11-06T07:00:00	1	Precipitación	0
65920	7	Sololá	701	Sololá	3	Barraneche	12	Diciembre	2023-10-12T00:00:00	2024-11-06T07:00:00	8	Radiación solar	13
65921	7	Sololá	701	Sololá	3	Barraneche	12	Diciembre	2023-10-12T00:00:00	2024-11-06T08:00:00	2	Temperatura media	15
65922	7	Sololá	701	Sololá	3	Barraneche	12	Diciembre	2023-10-12T00:00:00	2024-11-06T08:00:00	4	Temperatura máxima	15
65923	7	Sololá	701	Sololá	3	Barraneche	12	Diciembre	2023-10-12T00:00:00	2024-11-06T08:00:00	3	Temperatura mínima	10.9
65924	7	Sololá	701	Sololá	3	Barraneche	12	Diciembre	2023-10-12T00:00:00	2024-11-06T08:00:00	5	Humedad	51
65925	7	Sololá	701	Sololá	3	Barraneche	12	Diciembre	2023-10-12T00:00:00	2024-11-06T08:00:00	6	Velocidad del viento	4.8
65926	7	Sololá	701	Sololá	3	Barraneche	12	Diciembre	2023-10-12T00:00:00	2024-11-06T08:00:00	7	Dirección del viento	4.83
65927	7	Sololá	701	Sololá	3	Barraneche	12	Diciembre	2023-10-12T00:00:00	2024-11-06T08:00:00	1	Precipitación	0
65928	7	Sololá	701	Sololá	3	Barraneche	12	Diciembre	2023-10-12T00:00:00	2024-11-06T08:00:00	8	Radiación solar	213
65929	7	Sololá	701	Sololá	3	Barraneche	12	Diciembre	2023-10-12T00:00:00	2024-11-06T09:00:00	2	Temperatura media	18.4
65930	7	Sololá	701	Sololá	3	Barraneche	12	Diciembre	2023-10-12T00:00:00	2024-11-06T09:00:00	4	Temperatura máxima	18.4
65931	7	Sololá	701	Sololá	3	Barraneche	12	Diciembre	2023-10-12T00:00:00	2024-11-06T09:00:00	3	Temperatura mínima	15
65932	7	Sololá	701	Sololá	3	Barraneche	12	Diciembre	2023-10-12T00:00:00	2024-11-06T09:00:00	5	Humedad	42
65933	7	Sololá	701	Sololá	3	Barraneche	12	Diciembre	2023-10-12T00:00:00	2024-11-06T09:00:00	6	Velocidad del viento	3.2
65934	7	Sololá	701	Sololá	3	Barraneche	12	Diciembre	2023-10-12T00:00:00	2024-11-06T09:00:00	7	Dirección del viento	3.22
65935	7	Sololá	701	Sololá	3	Barraneche	12	Diciembre	2023-10-12T00:00:00	2024-11-06T09:00:00	1	Precipitación	0
65936	7	Sololá	701	Sololá	3	Barraneche	12	Diciembre	2023-10-12T00:00:00	2024-11-06T09:00:00	8	Radiación solar	444
65937	7	Sololá	701	Sololá	3	Barraneche	12	Diciembre	2023-10-12T00:00:00	2024-11-06T10:00:00	2	Temperatura media	18.9
65938	7	Sololá	701	Sololá	3	Barraneche	12	Diciembre	2023-10-12T00:00:00	2024-11-06T10:00:00	4	Temperatura máxima	19.1
65939	7	Sololá	701	Sololá	3	Barraneche	12	Diciembre	2023-10-12T00:00:00	2024-11-06T10:00:00	3	Temperatura mínima	18.3
65940	7	Sololá	701	Sololá	3	Barraneche	12	Diciembre	2023-10-12T00:00:00	2024-11-06T10:00:00	5	Humedad	39
65941	7	Sololá	701	Sololá	3	Barraneche	12	Diciembre	2023-10-12T00:00:00	2024-11-06T10:00:00	6	Velocidad del viento	12.9
65942	7	Sololá	701	Sololá	3	Barraneche	12	Diciembre	2023-10-12T00:00:00	2024-11-06T10:00:00	7	Dirección del viento	12.87
65943	7	Sololá	701	Sololá	3	Barraneche	12	Diciembre	2023-10-12T00:00:00	2024-11-06T10:00:00	1	Precipitación	0
65944	7	Sololá	701	Sololá	3	Barraneche	12	Diciembre	2023-10-12T00:00:00	2024-11-06T10:00:00	8	Radiación solar	645
65945	7	Sololá	701	Sololá	3	Barraneche	12	Diciembre	2023-10-12T00:00:00	2024-11-06T11:00:00	2	Temperatura media	19.6
65946	7	Sololá	701	Sololá	3	Barraneche	12	Diciembre	2023-10-12T00:00:00	2024-11-06T11:00:00	4	Temperatura máxima	19.7
65947	7	Sololá	701	Sololá	3	Barraneche	12	Diciembre	2023-10-12T00:00:00	2024-11-06T11:00:00	3	Temperatura mínima	18.8
65948	7	Sololá	701	Sololá	3	Barraneche	12	Diciembre	2023-10-12T00:00:00	2024-11-06T11:00:00	5	Humedad	35
65949	7	Sololá	701	Sololá	3	Barraneche	12	Diciembre	2023-10-12T00:00:00	2024-11-06T11:00:00	6	Velocidad del viento	12.9
65950	7	Sololá	701	Sololá	3	Barraneche	12	Diciembre	2023-10-12T00:00:00	2024-11-06T11:00:00	7	Dirección del viento	12.87
65951	7	Sololá	701	Sololá	3	Barraneche	12	Diciembre	2023-10-12T00:00:00	2024-11-06T11:00:00	1	Precipitación	0
65952	7	Sololá	701	Sololá	3	Barraneche	12	Diciembre	2023-10-12T00:00:00	2024-11-06T11:00:00	8	Radiación solar	773
65953	7	Sololá	701	Sololá	3	Barraneche	12	Diciembre	2023-10-12T00:00:00	2024-11-06T12:00:00	2	Temperatura media	19.9
65954	7	Sololá	701	Sololá	3	Barraneche	12	Diciembre	2023-10-12T00:00:00	2024-11-06T12:00:00	4	Temperatura máxima	20.1
65955	7	Sololá	701	Sololá	3	Barraneche	12	Diciembre	2023-10-12T00:00:00	2024-11-06T12:00:00	3	Temperatura mínima	19.4
65956	7	Sololá	701	Sololá	3	Barraneche	12	Diciembre	2023-10-12T00:00:00	2024-11-06T12:00:00	5	Humedad	40
65957	7	Sololá	701	Sololá	3	Barraneche	12	Diciembre	2023-10-12T00:00:00	2024-11-06T12:00:00	6	Velocidad del viento	16.1
65958	7	Sololá	701	Sololá	3	Barraneche	12	Diciembre	2023-10-12T00:00:00	2024-11-06T12:00:00	7	Dirección del viento	16.09
65959	7	Sololá	701	Sololá	3	Barraneche	12	Diciembre	2023-10-12T00:00:00	2024-11-06T12:00:00	1	Precipitación	0
65960	7	Sololá	701	Sololá	3	Barraneche	12	Diciembre	2023-10-12T00:00:00	2024-11-06T12:00:00	8	Radiación solar	844
65961	7	Sololá	701	Sololá	3	Barraneche	12	Diciembre	2023-10-12T00:00:00	2024-11-06T13:00:00	2	Temperatura media	20.1
65962	7	Sololá	701	Sololá	3	Barraneche	12	Diciembre	2023-10-12T00:00:00	2024-11-06T13:00:00	4	Temperatura máxima	20.8
65963	7	Sololá	701	Sololá	3	Barraneche	12	Diciembre	2023-10-12T00:00:00	2024-11-06T13:00:00	3	Temperatura mínima	19.9
65964	7	Sololá	701	Sololá	3	Barraneche	12	Diciembre	2023-10-12T00:00:00	2024-11-06T13:00:00	5	Humedad	39
65965	7	Sololá	701	Sololá	3	Barraneche	12	Diciembre	2023-10-12T00:00:00	2024-11-06T13:00:00	6	Velocidad del viento	12.9
65966	7	Sololá	701	Sololá	3	Barraneche	12	Diciembre	2023-10-12T00:00:00	2024-11-06T13:00:00	7	Dirección del viento	12.87
65967	7	Sololá	701	Sololá	3	Barraneche	12	Diciembre	2023-10-12T00:00:00	2024-11-06T13:00:00	1	Precipitación	0
65968	7	Sololá	701	Sololá	3	Barraneche	12	Diciembre	2023-10-12T00:00:00	2024-11-06T13:00:00	8	Radiación solar	850
65969	7	Sololá	701	Sololá	3	Barraneche	12	Diciembre	2023-10-12T00:00:00	2024-11-06T14:00:00	2	Temperatura media	19.9
65970	7	Sololá	701	Sololá	3	Barraneche	12	Diciembre	2023-10-12T00:00:00	2024-11-06T14:00:00	4	Temperatura máxima	20.5
65971	7	Sololá	701	Sololá	3	Barraneche	12	Diciembre	2023-10-12T00:00:00	2024-11-06T14:00:00	3	Temperatura mínima	19.6
65972	7	Sololá	701	Sololá	3	Barraneche	12	Diciembre	2023-10-12T00:00:00	2024-11-06T14:00:00	5	Humedad	41
65973	7	Sololá	701	Sololá	3	Barraneche	12	Diciembre	2023-10-12T00:00:00	2024-11-06T14:00:00	6	Velocidad del viento	11.3
65974	7	Sololá	701	Sololá	3	Barraneche	12	Diciembre	2023-10-12T00:00:00	2024-11-06T14:00:00	7	Dirección del viento	11.27
65975	7	Sololá	701	Sololá	3	Barraneche	12	Diciembre	2023-10-12T00:00:00	2024-11-06T14:00:00	1	Precipitación	0
65976	7	Sololá	701	Sololá	3	Barraneche	12	Diciembre	2023-10-12T00:00:00	2024-11-06T14:00:00	8	Radiación solar	710
65977	7	Sololá	701	Sololá	3	Barraneche	12	Diciembre	2023-10-12T00:00:00	2024-11-06T15:00:00	2	Temperatura media	18.2
65978	7	Sololá	701	Sololá	3	Barraneche	12	Diciembre	2023-10-12T00:00:00	2024-11-06T15:00:00	4	Temperatura máxima	20.1
65979	7	Sololá	701	Sololá	3	Barraneche	12	Diciembre	2023-10-12T00:00:00	2024-11-06T15:00:00	3	Temperatura mínima	18.2
65980	7	Sololá	701	Sololá	3	Barraneche	12	Diciembre	2023-10-12T00:00:00	2024-11-06T15:00:00	5	Humedad	50
65981	7	Sololá	701	Sololá	3	Barraneche	12	Diciembre	2023-10-12T00:00:00	2024-11-06T15:00:00	6	Velocidad del viento	11.3
65982	7	Sololá	701	Sololá	3	Barraneche	12	Diciembre	2023-10-12T00:00:00	2024-11-06T15:00:00	7	Dirección del viento	11.27
65983	7	Sololá	701	Sololá	3	Barraneche	12	Diciembre	2023-10-12T00:00:00	2024-11-06T15:00:00	1	Precipitación	0
65984	7	Sololá	701	Sololá	3	Barraneche	12	Diciembre	2023-10-12T00:00:00	2024-11-06T15:00:00	8	Radiación solar	244
65985	7	Sololá	701	Sololá	3	Barraneche	12	Diciembre	2023-10-12T00:00:00	2024-11-06T16:00:00	2	Temperatura media	18.2
65986	7	Sololá	701	Sololá	3	Barraneche	12	Diciembre	2023-10-12T00:00:00	2024-11-06T16:00:00	4	Temperatura máxima	19.2
65987	7	Sololá	701	Sololá	3	Barraneche	12	Diciembre	2023-10-12T00:00:00	2024-11-06T16:00:00	3	Temperatura mínima	18.1
65988	7	Sololá	701	Sololá	3	Barraneche	12	Diciembre	2023-10-12T00:00:00	2024-11-06T16:00:00	5	Humedad	50
65989	7	Sololá	701	Sololá	3	Barraneche	12	Diciembre	2023-10-12T00:00:00	2024-11-06T16:00:00	6	Velocidad del viento	11.3
65990	7	Sololá	701	Sololá	3	Barraneche	12	Diciembre	2023-10-12T00:00:00	2024-11-06T16:00:00	7	Dirección del viento	11.27
65991	7	Sololá	701	Sololá	3	Barraneche	12	Diciembre	2023-10-12T00:00:00	2024-11-06T16:00:00	1	Precipitación	0
65992	7	Sololá	701	Sololá	3	Barraneche	12	Diciembre	2023-10-12T00:00:00	2024-11-06T16:00:00	8	Radiación solar	311
65993	7	Sololá	701	Sololá	3	Barraneche	12	Diciembre	2023-10-12T00:00:00	2024-11-06T17:00:00	2	Temperatura media	16.8
65994	7	Sololá	701	Sololá	3	Barraneche	12	Diciembre	2023-10-12T00:00:00	2024-11-06T17:00:00	4	Temperatura máxima	18.5
65995	7	Sololá	701	Sololá	3	Barraneche	12	Diciembre	2023-10-12T00:00:00	2024-11-06T17:00:00	3	Temperatura mínima	16.8
65996	7	Sololá	701	Sololá	3	Barraneche	12	Diciembre	2023-10-12T00:00:00	2024-11-06T17:00:00	5	Humedad	58
65997	7	Sololá	701	Sololá	3	Barraneche	12	Diciembre	2023-10-12T00:00:00	2024-11-06T17:00:00	6	Velocidad del viento	14.5
65998	7	Sololá	701	Sololá	3	Barraneche	12	Diciembre	2023-10-12T00:00:00	2024-11-06T17:00:00	7	Dirección del viento	14.48
65999	7	Sololá	701	Sololá	3	Barraneche	12	Diciembre	2023-10-12T00:00:00	2024-11-06T17:00:00	1	Precipitación	0
66000	7	Sololá	701	Sololá	3	Barraneche	12	Diciembre	2023-10-12T00:00:00	2024-11-06T17:00:00	8	Radiación solar	197
66001	7	Sololá	701	Sololá	3	Barraneche	12	Diciembre	2023-10-12T00:00:00	2024-11-06T18:00:00	2	Temperatura media	15.2
66002	7	Sololá	701	Sololá	3	Barraneche	12	Diciembre	2023-10-12T00:00:00	2024-11-06T18:00:00	4	Temperatura máxima	16.8
66003	7	Sololá	701	Sololá	3	Barraneche	12	Diciembre	2023-10-12T00:00:00	2024-11-06T18:00:00	3	Temperatura mínima	15.2
66004	7	Sololá	701	Sololá	3	Barraneche	12	Diciembre	2023-10-12T00:00:00	2024-11-06T18:00:00	5	Humedad	60
66005	7	Sololá	701	Sololá	3	Barraneche	12	Diciembre	2023-10-12T00:00:00	2024-11-06T18:00:00	6	Velocidad del viento	12.9
66006	7	Sololá	701	Sololá	3	Barraneche	12	Diciembre	2023-10-12T00:00:00	2024-11-06T18:00:00	7	Dirección del viento	12.87
66007	7	Sololá	701	Sololá	3	Barraneche	12	Diciembre	2023-10-12T00:00:00	2024-11-06T18:00:00	1	Precipitación	0
66008	7	Sololá	701	Sololá	3	Barraneche	12	Diciembre	2023-10-12T00:00:00	2024-11-06T18:00:00	8	Radiación solar	15
66009	7	Sololá	701	Sololá	3	Barraneche	12	Diciembre	2023-10-12T00:00:00	2024-11-06T19:00:00	2	Temperatura media	14.8
66010	7	Sololá	701	Sololá	3	Barraneche	12	Diciembre	2023-10-12T00:00:00	2024-11-06T19:00:00	4	Temperatura máxima	15.2
66011	7	Sololá	701	Sololá	3	Barraneche	12	Diciembre	2023-10-12T00:00:00	2024-11-06T19:00:00	3	Temperatura mínima	14.8
66012	7	Sololá	701	Sololá	3	Barraneche	12	Diciembre	2023-10-12T00:00:00	2024-11-06T19:00:00	5	Humedad	61
66013	7	Sololá	701	Sololá	3	Barraneche	12	Diciembre	2023-10-12T00:00:00	2024-11-06T19:00:00	6	Velocidad del viento	11.3
66014	7	Sololá	701	Sololá	3	Barraneche	12	Diciembre	2023-10-12T00:00:00	2024-11-06T19:00:00	7	Dirección del viento	11.27
66015	7	Sololá	701	Sololá	3	Barraneche	12	Diciembre	2023-10-12T00:00:00	2024-11-06T19:00:00	1	Precipitación	0
66016	7	Sololá	701	Sololá	3	Barraneche	12	Diciembre	2023-10-12T00:00:00	2024-11-06T19:00:00	8	Radiación solar	0
66017	7	Sololá	701	Sololá	3	Barraneche	12	Diciembre	2023-10-12T00:00:00	2024-11-06T20:00:00	2	Temperatura media	14.2
66018	7	Sololá	701	Sololá	3	Barraneche	12	Diciembre	2023-10-12T00:00:00	2024-11-06T20:00:00	4	Temperatura máxima	14.8
66019	7	Sololá	701	Sololá	3	Barraneche	12	Diciembre	2023-10-12T00:00:00	2024-11-06T20:00:00	3	Temperatura mínima	14.2
66020	7	Sololá	701	Sololá	3	Barraneche	12	Diciembre	2023-10-12T00:00:00	2024-11-06T20:00:00	5	Humedad	62
66021	7	Sololá	701	Sololá	3	Barraneche	12	Diciembre	2023-10-12T00:00:00	2024-11-06T20:00:00	6	Velocidad del viento	14.5
66022	7	Sololá	701	Sololá	3	Barraneche	12	Diciembre	2023-10-12T00:00:00	2024-11-06T20:00:00	7	Dirección del viento	14.48
66023	7	Sololá	701	Sololá	3	Barraneche	12	Diciembre	2023-10-12T00:00:00	2024-11-06T20:00:00	1	Precipitación	0
66024	7	Sololá	701	Sololá	3	Barraneche	12	Diciembre	2023-10-12T00:00:00	2024-11-06T20:00:00	8	Radiación solar	0
66025	7	Sololá	701	Sololá	3	Barraneche	12	Diciembre	2023-10-12T00:00:00	2024-11-06T21:00:00	2	Temperatura media	14.1
66026	7	Sololá	701	Sololá	3	Barraneche	12	Diciembre	2023-10-12T00:00:00	2024-11-06T21:00:00	4	Temperatura máxima	14.2
66027	7	Sololá	701	Sololá	3	Barraneche	12	Diciembre	2023-10-12T00:00:00	2024-11-06T21:00:00	3	Temperatura mínima	14
66028	7	Sololá	701	Sololá	3	Barraneche	12	Diciembre	2023-10-12T00:00:00	2024-11-06T21:00:00	5	Humedad	63
66029	7	Sololá	701	Sololá	3	Barraneche	12	Diciembre	2023-10-12T00:00:00	2024-11-06T21:00:00	6	Velocidad del viento	22.5
66030	7	Sololá	701	Sololá	3	Barraneche	12	Diciembre	2023-10-12T00:00:00	2024-11-06T21:00:00	7	Dirección del viento	22.53
66031	7	Sololá	701	Sololá	3	Barraneche	12	Diciembre	2023-10-12T00:00:00	2024-11-06T21:00:00	1	Precipitación	0
66032	7	Sololá	701	Sololá	3	Barraneche	12	Diciembre	2023-10-12T00:00:00	2024-11-06T21:00:00	8	Radiación solar	0
66033	7	Sololá	701	Sololá	3	Barraneche	12	Diciembre	2023-10-12T00:00:00	2024-11-06T22:00:00	2	Temperatura media	13.8
66034	7	Sololá	701	Sololá	3	Barraneche	12	Diciembre	2023-10-12T00:00:00	2024-11-06T22:00:00	4	Temperatura máxima	14.1
66035	7	Sololá	701	Sololá	3	Barraneche	12	Diciembre	2023-10-12T00:00:00	2024-11-06T22:00:00	3	Temperatura mínima	13.4
66036	7	Sololá	701	Sololá	3	Barraneche	12	Diciembre	2023-10-12T00:00:00	2024-11-06T22:00:00	5	Humedad	66
66037	7	Sololá	701	Sololá	3	Barraneche	12	Diciembre	2023-10-12T00:00:00	2024-11-06T22:00:00	6	Velocidad del viento	30.6
66038	7	Sololá	701	Sololá	3	Barraneche	12	Diciembre	2023-10-12T00:00:00	2024-11-06T22:00:00	7	Dirección del viento	30.58
66039	7	Sololá	701	Sololá	3	Barraneche	12	Diciembre	2023-10-12T00:00:00	2024-11-06T22:00:00	1	Precipitación	0
66040	7	Sololá	701	Sololá	3	Barraneche	12	Diciembre	2023-10-12T00:00:00	2024-11-06T22:00:00	8	Radiación solar	0
66041	7	Sololá	701	Sololá	3	Barraneche	12	Diciembre	2023-10-12T00:00:00	2024-11-06T23:00:00	2	Temperatura media	14
66042	7	Sololá	701	Sololá	3	Barraneche	12	Diciembre	2023-10-12T00:00:00	2024-11-06T23:00:00	4	Temperatura máxima	14.1
66043	7	Sololá	701	Sololá	3	Barraneche	12	Diciembre	2023-10-12T00:00:00	2024-11-06T23:00:00	3	Temperatura mínima	13.7
66044	7	Sololá	701	Sololá	3	Barraneche	12	Diciembre	2023-10-12T00:00:00	2024-11-06T23:00:00	5	Humedad	64
66045	7	Sololá	701	Sololá	3	Barraneche	12	Diciembre	2023-10-12T00:00:00	2024-11-06T23:00:00	6	Velocidad del viento	29
66046	7	Sololá	701	Sololá	3	Barraneche	12	Diciembre	2023-10-12T00:00:00	2024-11-06T23:00:00	7	Dirección del viento	28.97
66047	7	Sololá	701	Sololá	3	Barraneche	12	Diciembre	2023-10-12T00:00:00	2024-11-06T23:00:00	1	Precipitación	0
66048	7	Sololá	701	Sololá	3	Barraneche	12	Diciembre	2023-10-12T00:00:00	2024-11-06T23:00:00	8	Radiación solar	0
66049	7	Sololá	701	Sololá	3	Barraneche	12	Diciembre	2023-11-12T00:00:00	2024-11-06T00:00:00	2	Temperatura media	14
66050	7	Sololá	701	Sololá	3	Barraneche	12	Diciembre	2023-11-12T00:00:00	2024-11-06T00:00:00	4	Temperatura máxima	14.1
66051	7	Sololá	701	Sololá	3	Barraneche	12	Diciembre	2023-11-12T00:00:00	2024-11-06T00:00:00	3	Temperatura mínima	13.8
66052	7	Sololá	701	Sololá	3	Barraneche	12	Diciembre	2023-11-12T00:00:00	2024-11-06T00:00:00	5	Humedad	62
66053	7	Sololá	701	Sololá	3	Barraneche	12	Diciembre	2023-11-12T00:00:00	2024-11-06T00:00:00	6	Velocidad del viento	27.4
66054	7	Sololá	701	Sololá	3	Barraneche	12	Diciembre	2023-11-12T00:00:00	2024-11-06T00:00:00	7	Dirección del viento	27.36
66055	7	Sololá	701	Sololá	3	Barraneche	12	Diciembre	2023-11-12T00:00:00	2024-11-06T00:00:00	1	Precipitación	0
66056	7	Sololá	701	Sololá	3	Barraneche	12	Diciembre	2023-11-12T00:00:00	2024-11-06T00:00:00	8	Radiación solar	0
66057	7	Sololá	701	Sololá	3	Barraneche	12	Diciembre	2023-11-12T00:00:00	2024-11-06T01:00:00	2	Temperatura media	13.3
66058	7	Sololá	701	Sololá	3	Barraneche	12	Diciembre	2023-11-12T00:00:00	2024-11-06T01:00:00	4	Temperatura máxima	14
66059	7	Sololá	701	Sololá	3	Barraneche	12	Diciembre	2023-11-12T00:00:00	2024-11-06T01:00:00	3	Temperatura mínima	13.2
66060	7	Sololá	701	Sololá	3	Barraneche	12	Diciembre	2023-11-12T00:00:00	2024-11-06T01:00:00	5	Humedad	68
66061	7	Sololá	701	Sololá	3	Barraneche	12	Diciembre	2023-11-12T00:00:00	2024-11-06T01:00:00	6	Velocidad del viento	29
66062	7	Sololá	701	Sololá	3	Barraneche	12	Diciembre	2023-11-12T00:00:00	2024-11-06T01:00:00	7	Dirección del viento	28.97
66063	7	Sololá	701	Sololá	3	Barraneche	12	Diciembre	2023-11-12T00:00:00	2024-11-06T01:00:00	1	Precipitación	0
66064	7	Sololá	701	Sololá	3	Barraneche	12	Diciembre	2023-11-12T00:00:00	2024-11-06T01:00:00	8	Radiación solar	0
66065	7	Sololá	701	Sololá	3	Barraneche	12	Diciembre	2023-11-12T00:00:00	2024-11-06T02:00:00	2	Temperatura media	13.4
66066	7	Sololá	701	Sololá	3	Barraneche	12	Diciembre	2023-11-12T00:00:00	2024-11-06T02:00:00	4	Temperatura máxima	13.8
66067	7	Sololá	701	Sololá	3	Barraneche	12	Diciembre	2023-11-12T00:00:00	2024-11-06T02:00:00	3	Temperatura mínima	13.2
66068	7	Sololá	701	Sololá	3	Barraneche	12	Diciembre	2023-11-12T00:00:00	2024-11-06T02:00:00	5	Humedad	65
66069	7	Sololá	701	Sololá	3	Barraneche	12	Diciembre	2023-11-12T00:00:00	2024-11-06T02:00:00	6	Velocidad del viento	33.8
66070	7	Sololá	701	Sololá	3	Barraneche	12	Diciembre	2023-11-12T00:00:00	2024-11-06T02:00:00	7	Dirección del viento	33.8
66071	7	Sololá	701	Sololá	3	Barraneche	12	Diciembre	2023-11-12T00:00:00	2024-11-06T02:00:00	1	Precipitación	0
66072	7	Sololá	701	Sololá	3	Barraneche	12	Diciembre	2023-11-12T00:00:00	2024-11-06T02:00:00	8	Radiación solar	0
66073	7	Sololá	701	Sololá	3	Barraneche	12	Diciembre	2023-11-12T00:00:00	2024-11-06T03:00:00	2	Temperatura media	14.1
66074	7	Sololá	701	Sololá	3	Barraneche	12	Diciembre	2023-11-12T00:00:00	2024-11-06T03:00:00	4	Temperatura máxima	14.2
66075	7	Sololá	701	Sololá	3	Barraneche	12	Diciembre	2023-11-12T00:00:00	2024-11-06T03:00:00	3	Temperatura mínima	13.5
66076	7	Sololá	701	Sololá	3	Barraneche	12	Diciembre	2023-11-12T00:00:00	2024-11-06T03:00:00	5	Humedad	63
66077	7	Sololá	701	Sololá	3	Barraneche	12	Diciembre	2023-11-12T00:00:00	2024-11-06T03:00:00	6	Velocidad del viento	33.8
66078	7	Sololá	701	Sololá	3	Barraneche	12	Diciembre	2023-11-12T00:00:00	2024-11-06T03:00:00	7	Dirección del viento	33.8
66079	7	Sololá	701	Sololá	3	Barraneche	12	Diciembre	2023-11-12T00:00:00	2024-11-06T03:00:00	1	Precipitación	0
66080	7	Sololá	701	Sololá	3	Barraneche	12	Diciembre	2023-11-12T00:00:00	2024-11-06T03:00:00	8	Radiación solar	0
66081	7	Sololá	701	Sololá	3	Barraneche	12	Diciembre	2023-11-12T00:00:00	2024-11-06T04:00:00	2	Temperatura media	13.3
66082	7	Sololá	701	Sololá	3	Barraneche	12	Diciembre	2023-11-12T00:00:00	2024-11-06T04:00:00	4	Temperatura máxima	14.1
66083	7	Sololá	701	Sololá	3	Barraneche	12	Diciembre	2023-11-12T00:00:00	2024-11-06T04:00:00	3	Temperatura mínima	13.2
66084	7	Sololá	701	Sololá	3	Barraneche	12	Diciembre	2023-11-12T00:00:00	2024-11-06T04:00:00	5	Humedad	67
66085	7	Sololá	701	Sololá	3	Barraneche	12	Diciembre	2023-11-12T00:00:00	2024-11-06T04:00:00	6	Velocidad del viento	32.2
66086	7	Sololá	701	Sololá	3	Barraneche	12	Diciembre	2023-11-12T00:00:00	2024-11-06T04:00:00	7	Dirección del viento	32.19
66087	7	Sololá	701	Sololá	3	Barraneche	12	Diciembre	2023-11-12T00:00:00	2024-11-06T04:00:00	1	Precipitación	0
66088	7	Sololá	701	Sololá	3	Barraneche	12	Diciembre	2023-11-12T00:00:00	2024-11-06T04:00:00	8	Radiación solar	0
66089	7	Sololá	701	Sololá	3	Barraneche	12	Diciembre	2023-11-12T00:00:00	2024-11-06T05:00:00	2	Temperatura media	12.2
66090	7	Sololá	701	Sololá	3	Barraneche	12	Diciembre	2023-11-12T00:00:00	2024-11-06T05:00:00	4	Temperatura máxima	13.3
66091	7	Sololá	701	Sololá	3	Barraneche	12	Diciembre	2023-11-12T00:00:00	2024-11-06T05:00:00	3	Temperatura mínima	12.2
66092	7	Sololá	701	Sololá	3	Barraneche	12	Diciembre	2023-11-12T00:00:00	2024-11-06T05:00:00	5	Humedad	70
66093	7	Sololá	701	Sololá	3	Barraneche	12	Diciembre	2023-11-12T00:00:00	2024-11-06T05:00:00	6	Velocidad del viento	37
66094	7	Sololá	701	Sololá	3	Barraneche	12	Diciembre	2023-11-12T00:00:00	2024-11-06T05:00:00	7	Dirección del viento	37.01
66095	7	Sololá	701	Sololá	3	Barraneche	12	Diciembre	2023-11-12T00:00:00	2024-11-06T05:00:00	1	Precipitación	0.8
66096	7	Sololá	701	Sololá	3	Barraneche	12	Diciembre	2023-11-12T00:00:00	2024-11-06T05:00:00	8	Radiación solar	0
66097	7	Sololá	701	Sololá	3	Barraneche	12	Diciembre	2023-11-12T00:00:00	2024-11-06T06:00:00	2	Temperatura media	12
66098	7	Sololá	701	Sololá	3	Barraneche	12	Diciembre	2023-11-12T00:00:00	2024-11-06T06:00:00	4	Temperatura máxima	12.2
66099	7	Sololá	701	Sololá	3	Barraneche	12	Diciembre	2023-11-12T00:00:00	2024-11-06T06:00:00	3	Temperatura mínima	11.9
66100	7	Sololá	701	Sololá	3	Barraneche	12	Diciembre	2023-11-12T00:00:00	2024-11-06T06:00:00	5	Humedad	70
66101	7	Sololá	701	Sololá	3	Barraneche	12	Diciembre	2023-11-12T00:00:00	2024-11-06T06:00:00	6	Velocidad del viento	29
66102	7	Sololá	701	Sololá	3	Barraneche	12	Diciembre	2023-11-12T00:00:00	2024-11-06T06:00:00	7	Dirección del viento	28.97
66103	7	Sololá	701	Sololá	3	Barraneche	12	Diciembre	2023-11-12T00:00:00	2024-11-06T06:00:00	1	Precipitación	0.6
66104	7	Sololá	701	Sololá	3	Barraneche	12	Diciembre	2023-11-12T00:00:00	2024-11-06T06:00:00	8	Radiación solar	0
66105	7	Sololá	701	Sololá	3	Barraneche	12	Diciembre	2023-11-12T00:00:00	2024-11-06T07:00:00	2	Temperatura media	12.1
66106	7	Sololá	701	Sololá	3	Barraneche	12	Diciembre	2023-11-12T00:00:00	2024-11-06T07:00:00	4	Temperatura máxima	12.1
66107	7	Sololá	701	Sololá	3	Barraneche	12	Diciembre	2023-11-12T00:00:00	2024-11-06T07:00:00	3	Temperatura mínima	11.9
66108	7	Sololá	701	Sololá	3	Barraneche	12	Diciembre	2023-11-12T00:00:00	2024-11-06T07:00:00	5	Humedad	68
66109	7	Sololá	701	Sololá	3	Barraneche	12	Diciembre	2023-11-12T00:00:00	2024-11-06T07:00:00	6	Velocidad del viento	37
66110	7	Sololá	701	Sololá	3	Barraneche	12	Diciembre	2023-11-12T00:00:00	2024-11-06T07:00:00	7	Dirección del viento	37.01
66111	7	Sololá	701	Sololá	3	Barraneche	12	Diciembre	2023-11-12T00:00:00	2024-11-06T07:00:00	1	Precipitación	0.2
66112	7	Sololá	701	Sololá	3	Barraneche	12	Diciembre	2023-11-12T00:00:00	2024-11-06T07:00:00	8	Radiación solar	15
66113	7	Sololá	701	Sololá	3	Barraneche	12	Diciembre	2023-11-12T00:00:00	2024-11-06T08:00:00	2	Temperatura media	13
66114	7	Sololá	701	Sololá	3	Barraneche	12	Diciembre	2023-11-12T00:00:00	2024-11-06T08:00:00	4	Temperatura máxima	13
66115	7	Sololá	701	Sololá	3	Barraneche	12	Diciembre	2023-11-12T00:00:00	2024-11-06T08:00:00	3	Temperatura mínima	12.1
66116	7	Sololá	701	Sololá	3	Barraneche	12	Diciembre	2023-11-12T00:00:00	2024-11-06T08:00:00	5	Humedad	66
66117	7	Sololá	701	Sololá	3	Barraneche	12	Diciembre	2023-11-12T00:00:00	2024-11-06T08:00:00	6	Velocidad del viento	35.4
66118	7	Sololá	701	Sololá	3	Barraneche	12	Diciembre	2023-11-12T00:00:00	2024-11-06T08:00:00	7	Dirección del viento	35.41
66119	7	Sololá	701	Sololá	3	Barraneche	12	Diciembre	2023-11-12T00:00:00	2024-11-06T08:00:00	1	Precipitación	0
66120	7	Sololá	701	Sololá	3	Barraneche	12	Diciembre	2023-11-12T00:00:00	2024-11-06T08:00:00	8	Radiación solar	199
66121	7	Sololá	701	Sololá	3	Barraneche	12	Diciembre	2023-11-12T00:00:00	2024-11-06T09:00:00	2	Temperatura media	13.8
66122	7	Sololá	701	Sololá	3	Barraneche	12	Diciembre	2023-11-12T00:00:00	2024-11-06T09:00:00	4	Temperatura máxima	13.8
66123	7	Sololá	701	Sololá	3	Barraneche	12	Diciembre	2023-11-12T00:00:00	2024-11-06T09:00:00	3	Temperatura mínima	13
66124	7	Sololá	701	Sololá	3	Barraneche	12	Diciembre	2023-11-12T00:00:00	2024-11-06T09:00:00	5	Humedad	62
66125	7	Sololá	701	Sololá	3	Barraneche	12	Diciembre	2023-11-12T00:00:00	2024-11-06T09:00:00	6	Velocidad del viento	32.2
66126	7	Sololá	701	Sololá	3	Barraneche	12	Diciembre	2023-11-12T00:00:00	2024-11-06T09:00:00	7	Dirección del viento	32.19
66127	7	Sololá	701	Sololá	3	Barraneche	12	Diciembre	2023-11-12T00:00:00	2024-11-06T09:00:00	1	Precipitación	0
66128	7	Sololá	701	Sololá	3	Barraneche	12	Diciembre	2023-11-12T00:00:00	2024-11-06T09:00:00	8	Radiación solar	447
66129	7	Sololá	701	Sololá	3	Barraneche	12	Diciembre	2023-11-12T00:00:00	2024-11-06T10:00:00	2	Temperatura media	14.4
66130	7	Sololá	701	Sololá	3	Barraneche	12	Diciembre	2023-11-12T00:00:00	2024-11-06T10:00:00	4	Temperatura máxima	14.4
66131	7	Sololá	701	Sololá	3	Barraneche	12	Diciembre	2023-11-12T00:00:00	2024-11-06T10:00:00	3	Temperatura mínima	13.8
66132	7	Sololá	701	Sololá	3	Barraneche	12	Diciembre	2023-11-12T00:00:00	2024-11-06T10:00:00	5	Humedad	63
66133	7	Sololá	701	Sololá	3	Barraneche	12	Diciembre	2023-11-12T00:00:00	2024-11-06T10:00:00	6	Velocidad del viento	29
66134	7	Sololá	701	Sololá	3	Barraneche	12	Diciembre	2023-11-12T00:00:00	2024-11-06T10:00:00	7	Dirección del viento	28.97
66135	7	Sololá	701	Sololá	3	Barraneche	12	Diciembre	2023-11-12T00:00:00	2024-11-06T10:00:00	1	Precipitación	0
66136	7	Sololá	701	Sololá	3	Barraneche	12	Diciembre	2023-11-12T00:00:00	2024-11-06T10:00:00	8	Radiación solar	648
66137	7	Sololá	701	Sololá	3	Barraneche	12	Diciembre	2023-11-12T00:00:00	2024-11-06T11:00:00	2	Temperatura media	14.9
66138	7	Sololá	701	Sololá	3	Barraneche	12	Diciembre	2023-11-12T00:00:00	2024-11-06T11:00:00	4	Temperatura máxima	15.1
66139	7	Sololá	701	Sololá	3	Barraneche	12	Diciembre	2023-11-12T00:00:00	2024-11-06T11:00:00	3	Temperatura mínima	14.2
66140	7	Sololá	701	Sololá	3	Barraneche	12	Diciembre	2023-11-12T00:00:00	2024-11-06T11:00:00	5	Humedad	59
66141	7	Sololá	701	Sololá	3	Barraneche	12	Diciembre	2023-11-12T00:00:00	2024-11-06T11:00:00	6	Velocidad del viento	27.4
66142	7	Sololá	701	Sololá	3	Barraneche	12	Diciembre	2023-11-12T00:00:00	2024-11-06T11:00:00	7	Dirección del viento	27.36
66143	7	Sololá	701	Sololá	3	Barraneche	12	Diciembre	2023-11-12T00:00:00	2024-11-06T11:00:00	1	Precipitación	0
66144	7	Sololá	701	Sololá	3	Barraneche	12	Diciembre	2023-11-12T00:00:00	2024-11-06T11:00:00	8	Radiación solar	787
66145	7	Sololá	701	Sololá	3	Barraneche	12	Diciembre	2023-11-12T00:00:00	2024-11-06T12:00:00	2	Temperatura media	15.2
66146	7	Sololá	701	Sololá	3	Barraneche	12	Diciembre	2023-11-12T00:00:00	2024-11-06T12:00:00	4	Temperatura máxima	15.5
66147	7	Sololá	701	Sololá	3	Barraneche	12	Diciembre	2023-11-12T00:00:00	2024-11-06T12:00:00	3	Temperatura mínima	14.3
66148	7	Sololá	701	Sololá	3	Barraneche	12	Diciembre	2023-11-12T00:00:00	2024-11-06T12:00:00	5	Humedad	59
66149	7	Sololá	701	Sololá	3	Barraneche	12	Diciembre	2023-11-12T00:00:00	2024-11-06T12:00:00	6	Velocidad del viento	27.4
66150	7	Sololá	701	Sololá	3	Barraneche	12	Diciembre	2023-11-12T00:00:00	2024-11-06T12:00:00	7	Dirección del viento	27.36
66151	7	Sololá	701	Sololá	3	Barraneche	12	Diciembre	2023-11-12T00:00:00	2024-11-06T12:00:00	1	Precipitación	0
66152	7	Sololá	701	Sololá	3	Barraneche	12	Diciembre	2023-11-12T00:00:00	2024-11-06T12:00:00	8	Radiación solar	876
66153	7	Sololá	701	Sololá	3	Barraneche	12	Diciembre	2023-11-12T00:00:00	2024-11-06T13:00:00	2	Temperatura media	14.7
66154	7	Sololá	701	Sololá	3	Barraneche	12	Diciembre	2023-11-12T00:00:00	2024-11-06T13:00:00	4	Temperatura máxima	15.3
66155	7	Sololá	701	Sololá	3	Barraneche	12	Diciembre	2023-11-12T00:00:00	2024-11-06T13:00:00	3	Temperatura mínima	14.3
66156	7	Sololá	701	Sololá	3	Barraneche	12	Diciembre	2023-11-12T00:00:00	2024-11-06T13:00:00	5	Humedad	60
66157	7	Sololá	701	Sololá	3	Barraneche	12	Diciembre	2023-11-12T00:00:00	2024-11-06T13:00:00	6	Velocidad del viento	29
66158	7	Sololá	701	Sololá	3	Barraneche	12	Diciembre	2023-11-12T00:00:00	2024-11-06T13:00:00	7	Dirección del viento	28.97
66159	7	Sololá	701	Sololá	3	Barraneche	12	Diciembre	2023-11-12T00:00:00	2024-11-06T13:00:00	1	Precipitación	0
66160	7	Sololá	701	Sololá	3	Barraneche	12	Diciembre	2023-11-12T00:00:00	2024-11-06T13:00:00	8	Radiación solar	934
66161	7	Sololá	701	Sololá	3	Barraneche	12	Diciembre	2023-11-12T00:00:00	2024-11-06T14:00:00	2	Temperatura media	14.3
66162	7	Sololá	701	Sololá	3	Barraneche	12	Diciembre	2023-11-12T00:00:00	2024-11-06T14:00:00	4	Temperatura máxima	15.1
66163	7	Sololá	701	Sololá	3	Barraneche	12	Diciembre	2023-11-12T00:00:00	2024-11-06T14:00:00	3	Temperatura mínima	13.4
66164	7	Sololá	701	Sololá	3	Barraneche	12	Diciembre	2023-11-12T00:00:00	2024-11-06T14:00:00	5	Humedad	61
66165	7	Sololá	701	Sololá	3	Barraneche	12	Diciembre	2023-11-12T00:00:00	2024-11-06T14:00:00	6	Velocidad del viento	27.4
66166	7	Sololá	701	Sololá	3	Barraneche	12	Diciembre	2023-11-12T00:00:00	2024-11-06T14:00:00	7	Dirección del viento	27.36
66167	7	Sololá	701	Sololá	3	Barraneche	12	Diciembre	2023-11-12T00:00:00	2024-11-06T14:00:00	1	Precipitación	0
66168	7	Sololá	701	Sololá	3	Barraneche	12	Diciembre	2023-11-12T00:00:00	2024-11-06T14:00:00	8	Radiación solar	628
66169	7	Sololá	701	Sololá	3	Barraneche	12	Diciembre	2023-11-12T00:00:00	2024-11-06T15:00:00	2	Temperatura media	14.4
66170	7	Sololá	701	Sololá	3	Barraneche	12	Diciembre	2023-11-12T00:00:00	2024-11-06T15:00:00	4	Temperatura máxima	15.2
66171	7	Sololá	701	Sololá	3	Barraneche	12	Diciembre	2023-11-12T00:00:00	2024-11-06T15:00:00	3	Temperatura mínima	14.1
66172	7	Sololá	701	Sololá	3	Barraneche	12	Diciembre	2023-11-12T00:00:00	2024-11-06T15:00:00	5	Humedad	60
66173	7	Sololá	701	Sololá	3	Barraneche	12	Diciembre	2023-11-12T00:00:00	2024-11-06T15:00:00	6	Velocidad del viento	22.5
66174	7	Sololá	701	Sololá	3	Barraneche	12	Diciembre	2023-11-12T00:00:00	2024-11-06T15:00:00	7	Dirección del viento	22.53
66175	7	Sololá	701	Sololá	3	Barraneche	12	Diciembre	2023-11-12T00:00:00	2024-11-06T15:00:00	1	Precipitación	0
66176	7	Sololá	701	Sololá	3	Barraneche	12	Diciembre	2023-11-12T00:00:00	2024-11-06T15:00:00	8	Radiación solar	294
66177	7	Sololá	701	Sololá	3	Barraneche	12	Diciembre	2023-11-12T00:00:00	2024-11-06T16:00:00	2	Temperatura media	14.3
66178	7	Sololá	701	Sololá	3	Barraneche	12	Diciembre	2023-11-12T00:00:00	2024-11-06T16:00:00	4	Temperatura máxima	14.9
66179	7	Sololá	701	Sololá	3	Barraneche	12	Diciembre	2023-11-12T00:00:00	2024-11-06T16:00:00	3	Temperatura mínima	14.3
66180	7	Sololá	701	Sololá	3	Barraneche	12	Diciembre	2023-11-12T00:00:00	2024-11-06T16:00:00	5	Humedad	58
66181	7	Sololá	701	Sololá	3	Barraneche	12	Diciembre	2023-11-12T00:00:00	2024-11-06T16:00:00	6	Velocidad del viento	20.9
66182	7	Sololá	701	Sololá	3	Barraneche	12	Diciembre	2023-11-12T00:00:00	2024-11-06T16:00:00	7	Dirección del viento	20.92
66183	7	Sololá	701	Sololá	3	Barraneche	12	Diciembre	2023-11-12T00:00:00	2024-11-06T16:00:00	1	Precipitación	0
66184	7	Sololá	701	Sololá	3	Barraneche	12	Diciembre	2023-11-12T00:00:00	2024-11-06T16:00:00	8	Radiación solar	435
66185	7	Sololá	701	Sololá	3	Barraneche	12	Diciembre	2023-11-12T00:00:00	2024-11-06T17:00:00	2	Temperatura media	13.1
66186	7	Sololá	701	Sololá	3	Barraneche	12	Diciembre	2023-11-12T00:00:00	2024-11-06T17:00:00	4	Temperatura máxima	14.4
66187	7	Sololá	701	Sololá	3	Barraneche	12	Diciembre	2023-11-12T00:00:00	2024-11-06T17:00:00	3	Temperatura mínima	13.1
66188	7	Sololá	701	Sololá	3	Barraneche	12	Diciembre	2023-11-12T00:00:00	2024-11-06T17:00:00	5	Humedad	62
66189	7	Sololá	701	Sololá	3	Barraneche	12	Diciembre	2023-11-12T00:00:00	2024-11-06T17:00:00	6	Velocidad del viento	27.4
66190	7	Sololá	701	Sololá	3	Barraneche	12	Diciembre	2023-11-12T00:00:00	2024-11-06T17:00:00	7	Dirección del viento	27.36
66191	7	Sololá	701	Sololá	3	Barraneche	12	Diciembre	2023-11-12T00:00:00	2024-11-06T17:00:00	1	Precipitación	0
66192	7	Sololá	701	Sololá	3	Barraneche	12	Diciembre	2023-11-12T00:00:00	2024-11-06T17:00:00	8	Radiación solar	170
66193	7	Sololá	701	Sololá	3	Barraneche	12	Diciembre	2023-11-12T00:00:00	2024-11-06T18:00:00	2	Temperatura media	12.2
66194	7	Sololá	701	Sololá	3	Barraneche	12	Diciembre	2023-11-12T00:00:00	2024-11-06T18:00:00	4	Temperatura máxima	13.1
66195	7	Sololá	701	Sololá	3	Barraneche	12	Diciembre	2023-11-12T00:00:00	2024-11-06T18:00:00	3	Temperatura mínima	12.1
66196	7	Sololá	701	Sololá	3	Barraneche	12	Diciembre	2023-11-12T00:00:00	2024-11-06T18:00:00	5	Humedad	64
66197	7	Sololá	701	Sololá	3	Barraneche	12	Diciembre	2023-11-12T00:00:00	2024-11-06T18:00:00	6	Velocidad del viento	29
66198	7	Sololá	701	Sololá	3	Barraneche	12	Diciembre	2023-11-12T00:00:00	2024-11-06T18:00:00	7	Dirección del viento	28.97
66199	7	Sololá	701	Sololá	3	Barraneche	12	Diciembre	2023-11-12T00:00:00	2024-11-06T18:00:00	1	Precipitación	0
66200	7	Sololá	701	Sololá	3	Barraneche	12	Diciembre	2023-11-12T00:00:00	2024-11-06T18:00:00	8	Radiación solar	15
66201	7	Sololá	701	Sololá	3	Barraneche	12	Diciembre	2023-11-12T00:00:00	2024-11-06T19:00:00	2	Temperatura media	12.3
66202	7	Sololá	701	Sololá	3	Barraneche	12	Diciembre	2023-11-12T00:00:00	2024-11-06T19:00:00	4	Temperatura máxima	12.4
66203	7	Sololá	701	Sololá	3	Barraneche	12	Diciembre	2023-11-12T00:00:00	2024-11-06T19:00:00	3	Temperatura mínima	12.1
66204	7	Sololá	701	Sololá	3	Barraneche	12	Diciembre	2023-11-12T00:00:00	2024-11-06T19:00:00	5	Humedad	64
66205	7	Sololá	701	Sololá	3	Barraneche	12	Diciembre	2023-11-12T00:00:00	2024-11-06T19:00:00	6	Velocidad del viento	35.4
66206	7	Sololá	701	Sololá	3	Barraneche	12	Diciembre	2023-11-12T00:00:00	2024-11-06T19:00:00	7	Dirección del viento	35.41
66207	7	Sololá	701	Sololá	3	Barraneche	12	Diciembre	2023-11-12T00:00:00	2024-11-06T19:00:00	1	Precipitación	0
66208	7	Sololá	701	Sololá	3	Barraneche	12	Diciembre	2023-11-12T00:00:00	2024-11-06T19:00:00	8	Radiación solar	0
66209	7	Sololá	701	Sololá	3	Barraneche	12	Diciembre	2023-11-12T00:00:00	2024-11-06T20:00:00	2	Temperatura media	12.4
66210	7	Sololá	701	Sololá	3	Barraneche	12	Diciembre	2023-11-12T00:00:00	2024-11-06T20:00:00	4	Temperatura máxima	12.6
66211	7	Sololá	701	Sololá	3	Barraneche	12	Diciembre	2023-11-12T00:00:00	2024-11-06T20:00:00	3	Temperatura mínima	12.2
66212	7	Sololá	701	Sololá	3	Barraneche	12	Diciembre	2023-11-12T00:00:00	2024-11-06T20:00:00	5	Humedad	63
66213	7	Sololá	701	Sololá	3	Barraneche	12	Diciembre	2023-11-12T00:00:00	2024-11-06T20:00:00	6	Velocidad del viento	37
66214	7	Sololá	701	Sololá	3	Barraneche	12	Diciembre	2023-11-12T00:00:00	2024-11-06T20:00:00	7	Dirección del viento	37.01
66215	7	Sololá	701	Sololá	3	Barraneche	12	Diciembre	2023-11-12T00:00:00	2024-11-06T20:00:00	1	Precipitación	0
66216	7	Sololá	701	Sololá	3	Barraneche	12	Diciembre	2023-11-12T00:00:00	2024-11-06T20:00:00	8	Radiación solar	0
66217	7	Sololá	701	Sololá	3	Barraneche	12	Diciembre	2023-11-12T00:00:00	2024-11-06T21:00:00	2	Temperatura media	11.8
66218	7	Sololá	701	Sololá	3	Barraneche	12	Diciembre	2023-11-12T00:00:00	2024-11-06T21:00:00	4	Temperatura máxima	12.3
66219	7	Sololá	701	Sololá	3	Barraneche	12	Diciembre	2023-11-12T00:00:00	2024-11-06T21:00:00	3	Temperatura mínima	11.8
66220	7	Sololá	701	Sololá	3	Barraneche	12	Diciembre	2023-11-12T00:00:00	2024-11-06T21:00:00	5	Humedad	66
66221	7	Sololá	701	Sololá	3	Barraneche	12	Diciembre	2023-11-12T00:00:00	2024-11-06T21:00:00	6	Velocidad del viento	35.4
66222	7	Sololá	701	Sololá	3	Barraneche	12	Diciembre	2023-11-12T00:00:00	2024-11-06T21:00:00	7	Dirección del viento	35.41
66223	7	Sololá	701	Sololá	3	Barraneche	12	Diciembre	2023-11-12T00:00:00	2024-11-06T21:00:00	1	Precipitación	0
66224	7	Sololá	701	Sololá	3	Barraneche	12	Diciembre	2023-11-12T00:00:00	2024-11-06T21:00:00	8	Radiación solar	0
66225	7	Sololá	701	Sololá	3	Barraneche	12	Diciembre	2023-11-12T00:00:00	2024-11-06T22:00:00	2	Temperatura media	12.2
66226	7	Sololá	701	Sololá	3	Barraneche	12	Diciembre	2023-11-12T00:00:00	2024-11-06T22:00:00	4	Temperatura máxima	12.3
66227	7	Sololá	701	Sololá	3	Barraneche	12	Diciembre	2023-11-12T00:00:00	2024-11-06T22:00:00	3	Temperatura mínima	11.8
66228	7	Sololá	701	Sololá	3	Barraneche	12	Diciembre	2023-11-12T00:00:00	2024-11-06T22:00:00	5	Humedad	67
66229	7	Sololá	701	Sololá	3	Barraneche	12	Diciembre	2023-11-12T00:00:00	2024-11-06T22:00:00	6	Velocidad del viento	37
66230	7	Sololá	701	Sololá	3	Barraneche	12	Diciembre	2023-11-12T00:00:00	2024-11-06T22:00:00	7	Dirección del viento	37.01
66231	7	Sololá	701	Sololá	3	Barraneche	12	Diciembre	2023-11-12T00:00:00	2024-11-06T22:00:00	1	Precipitación	0
66232	7	Sololá	701	Sololá	3	Barraneche	12	Diciembre	2023-11-12T00:00:00	2024-11-06T22:00:00	8	Radiación solar	0
66233	7	Sololá	701	Sololá	3	Barraneche	12	Diciembre	2023-11-12T00:00:00	2024-11-06T23:00:00	2	Temperatura media	12.7
66234	7	Sololá	701	Sololá	3	Barraneche	12	Diciembre	2023-11-12T00:00:00	2024-11-06T23:00:00	4	Temperatura máxima	12.7
66235	7	Sololá	701	Sololá	3	Barraneche	12	Diciembre	2023-11-12T00:00:00	2024-11-06T23:00:00	3	Temperatura mínima	11.9
66236	7	Sololá	701	Sololá	3	Barraneche	12	Diciembre	2023-11-12T00:00:00	2024-11-06T23:00:00	5	Humedad	63
66237	7	Sololá	701	Sololá	3	Barraneche	12	Diciembre	2023-11-12T00:00:00	2024-11-06T23:00:00	6	Velocidad del viento	33.8
66238	7	Sololá	701	Sololá	3	Barraneche	12	Diciembre	2023-11-12T00:00:00	2024-11-06T23:00:00	7	Dirección del viento	33.8
66239	7	Sololá	701	Sololá	3	Barraneche	12	Diciembre	2023-11-12T00:00:00	2024-11-06T23:00:00	1	Precipitación	0
66240	7	Sololá	701	Sololá	3	Barraneche	12	Diciembre	2023-11-12T00:00:00	2024-11-06T23:00:00	8	Radiación solar	0
66241	7	Sololá	701	Sololá	3	Barraneche	12	Diciembre	2023-12-12T00:00:00	2024-11-06T00:00:00	2	Temperatura media	12.3
66242	7	Sololá	701	Sololá	3	Barraneche	12	Diciembre	2023-12-12T00:00:00	2024-11-06T00:00:00	4	Temperatura máxima	13.1
66243	7	Sololá	701	Sololá	3	Barraneche	12	Diciembre	2023-12-12T00:00:00	2024-11-06T00:00:00	3	Temperatura mínima	12.3
66244	7	Sololá	701	Sololá	3	Barraneche	12	Diciembre	2023-12-12T00:00:00	2024-11-06T00:00:00	5	Humedad	64
66245	7	Sololá	701	Sololá	3	Barraneche	12	Diciembre	2023-12-12T00:00:00	2024-11-06T00:00:00	6	Velocidad del viento	32.2
66246	7	Sololá	701	Sololá	3	Barraneche	12	Diciembre	2023-12-12T00:00:00	2024-11-06T00:00:00	7	Dirección del viento	32.19
66247	7	Sololá	701	Sololá	3	Barraneche	12	Diciembre	2023-12-12T00:00:00	2024-11-06T00:00:00	1	Precipitación	0
66248	7	Sololá	701	Sololá	3	Barraneche	12	Diciembre	2023-12-12T00:00:00	2024-11-06T00:00:00	8	Radiación solar	0
66249	7	Sololá	701	Sololá	3	Barraneche	12	Diciembre	2023-12-12T00:00:00	2024-11-06T01:00:00	2	Temperatura media	12.9
66250	7	Sololá	701	Sololá	3	Barraneche	12	Diciembre	2023-12-12T00:00:00	2024-11-06T01:00:00	4	Temperatura máxima	12.9
66251	7	Sololá	701	Sololá	3	Barraneche	12	Diciembre	2023-12-12T00:00:00	2024-11-06T01:00:00	3	Temperatura mínima	12.2
66252	7	Sololá	701	Sololá	3	Barraneche	12	Diciembre	2023-12-12T00:00:00	2024-11-06T01:00:00	5	Humedad	60
66253	7	Sololá	701	Sololá	3	Barraneche	12	Diciembre	2023-12-12T00:00:00	2024-11-06T01:00:00	6	Velocidad del viento	30.6
66254	7	Sololá	701	Sololá	3	Barraneche	12	Diciembre	2023-12-12T00:00:00	2024-11-06T01:00:00	7	Dirección del viento	30.58
66255	7	Sololá	701	Sololá	3	Barraneche	12	Diciembre	2023-12-12T00:00:00	2024-11-06T01:00:00	1	Precipitación	0
66256	7	Sololá	701	Sololá	3	Barraneche	12	Diciembre	2023-12-12T00:00:00	2024-11-06T01:00:00	8	Radiación solar	0
66257	7	Sololá	701	Sololá	3	Barraneche	12	Diciembre	2023-12-12T00:00:00	2024-11-06T02:00:00	2	Temperatura media	13.1
66258	7	Sololá	701	Sololá	3	Barraneche	12	Diciembre	2023-12-12T00:00:00	2024-11-06T02:00:00	4	Temperatura máxima	13.1
66259	7	Sololá	701	Sololá	3	Barraneche	12	Diciembre	2023-12-12T00:00:00	2024-11-06T02:00:00	3	Temperatura mínima	12.6
66260	7	Sololá	701	Sololá	3	Barraneche	12	Diciembre	2023-12-12T00:00:00	2024-11-06T02:00:00	5	Humedad	60
66261	7	Sololá	701	Sololá	3	Barraneche	12	Diciembre	2023-12-12T00:00:00	2024-11-06T02:00:00	6	Velocidad del viento	32.2
66262	7	Sololá	701	Sololá	3	Barraneche	12	Diciembre	2023-12-12T00:00:00	2024-11-06T02:00:00	7	Dirección del viento	32.19
66263	7	Sololá	701	Sololá	3	Barraneche	12	Diciembre	2023-12-12T00:00:00	2024-11-06T02:00:00	1	Precipitación	0
66264	7	Sololá	701	Sololá	3	Barraneche	12	Diciembre	2023-12-12T00:00:00	2024-11-06T02:00:00	8	Radiación solar	0
66265	7	Sololá	701	Sololá	3	Barraneche	12	Diciembre	2023-12-12T00:00:00	2024-11-06T03:00:00	2	Temperatura media	13.8
66266	7	Sololá	701	Sololá	3	Barraneche	12	Diciembre	2023-12-12T00:00:00	2024-11-06T03:00:00	4	Temperatura máxima	13.8
66267	7	Sololá	701	Sololá	3	Barraneche	12	Diciembre	2023-12-12T00:00:00	2024-11-06T03:00:00	3	Temperatura mínima	13.1
66268	7	Sololá	701	Sololá	3	Barraneche	12	Diciembre	2023-12-12T00:00:00	2024-11-06T03:00:00	5	Humedad	57
66269	7	Sololá	701	Sololá	3	Barraneche	12	Diciembre	2023-12-12T00:00:00	2024-11-06T03:00:00	6	Velocidad del viento	27.4
66270	7	Sololá	701	Sololá	3	Barraneche	12	Diciembre	2023-12-12T00:00:00	2024-11-06T03:00:00	7	Dirección del viento	27.36
66271	7	Sololá	701	Sololá	3	Barraneche	12	Diciembre	2023-12-12T00:00:00	2024-11-06T03:00:00	1	Precipitación	0
66272	7	Sololá	701	Sololá	3	Barraneche	12	Diciembre	2023-12-12T00:00:00	2024-11-06T03:00:00	8	Radiación solar	0
66273	7	Sololá	701	Sololá	3	Barraneche	12	Diciembre	2023-12-12T00:00:00	2024-11-06T04:00:00	2	Temperatura media	13.7
66274	7	Sololá	701	Sololá	3	Barraneche	12	Diciembre	2023-12-12T00:00:00	2024-11-06T04:00:00	4	Temperatura máxima	14
66275	7	Sololá	701	Sololá	3	Barraneche	12	Diciembre	2023-12-12T00:00:00	2024-11-06T04:00:00	3	Temperatura mínima	13.4
66276	7	Sololá	701	Sololá	3	Barraneche	12	Diciembre	2023-12-12T00:00:00	2024-11-06T04:00:00	5	Humedad	58
66277	7	Sololá	701	Sololá	3	Barraneche	12	Diciembre	2023-12-12T00:00:00	2024-11-06T04:00:00	6	Velocidad del viento	27.4
66278	7	Sololá	701	Sololá	3	Barraneche	12	Diciembre	2023-12-12T00:00:00	2024-11-06T04:00:00	7	Dirección del viento	27.36
66279	7	Sololá	701	Sololá	3	Barraneche	12	Diciembre	2023-12-12T00:00:00	2024-11-06T04:00:00	1	Precipitación	0
66280	7	Sololá	701	Sololá	3	Barraneche	12	Diciembre	2023-12-12T00:00:00	2024-11-06T04:00:00	8	Radiación solar	0
66281	7	Sololá	701	Sololá	3	Barraneche	12	Diciembre	2023-12-12T00:00:00	2024-11-06T05:00:00	2	Temperatura media	13.4
66282	7	Sololá	701	Sololá	3	Barraneche	12	Diciembre	2023-12-12T00:00:00	2024-11-06T05:00:00	4	Temperatura máxima	14.2
66283	7	Sololá	701	Sololá	3	Barraneche	12	Diciembre	2023-12-12T00:00:00	2024-11-06T05:00:00	3	Temperatura mínima	13.3
66284	7	Sololá	701	Sololá	3	Barraneche	12	Diciembre	2023-12-12T00:00:00	2024-11-06T05:00:00	5	Humedad	59
66285	7	Sololá	701	Sololá	3	Barraneche	12	Diciembre	2023-12-12T00:00:00	2024-11-06T05:00:00	6	Velocidad del viento	19.3
66286	7	Sololá	701	Sololá	3	Barraneche	12	Diciembre	2023-12-12T00:00:00	2024-11-06T05:00:00	7	Dirección del viento	19.31
66287	7	Sololá	701	Sololá	3	Barraneche	12	Diciembre	2023-12-12T00:00:00	2024-11-06T05:00:00	1	Precipitación	0
66288	7	Sololá	701	Sololá	3	Barraneche	12	Diciembre	2023-12-12T00:00:00	2024-11-06T05:00:00	8	Radiación solar	0
66289	7	Sololá	701	Sololá	3	Barraneche	12	Diciembre	2023-12-12T00:00:00	2024-11-06T06:00:00	2	Temperatura media	12.9
66290	7	Sololá	701	Sololá	3	Barraneche	12	Diciembre	2023-12-12T00:00:00	2024-11-06T06:00:00	4	Temperatura máxima	13.4
66291	7	Sololá	701	Sololá	3	Barraneche	12	Diciembre	2023-12-12T00:00:00	2024-11-06T06:00:00	3	Temperatura mínima	12.8
66292	7	Sololá	701	Sololá	3	Barraneche	12	Diciembre	2023-12-12T00:00:00	2024-11-06T06:00:00	5	Humedad	61
66293	7	Sololá	701	Sololá	3	Barraneche	12	Diciembre	2023-12-12T00:00:00	2024-11-06T06:00:00	6	Velocidad del viento	16.1
66294	7	Sololá	701	Sololá	3	Barraneche	12	Diciembre	2023-12-12T00:00:00	2024-11-06T06:00:00	7	Dirección del viento	16.09
66295	7	Sololá	701	Sololá	3	Barraneche	12	Diciembre	2023-12-12T00:00:00	2024-11-06T06:00:00	1	Precipitación	0
66296	7	Sololá	701	Sololá	3	Barraneche	12	Diciembre	2023-12-12T00:00:00	2024-11-06T06:00:00	8	Radiación solar	0
66297	7	Sololá	701	Sololá	3	Barraneche	12	Diciembre	2023-12-12T00:00:00	2024-11-06T07:00:00	2	Temperatura media	13.2
66298	7	Sololá	701	Sololá	3	Barraneche	12	Diciembre	2023-12-12T00:00:00	2024-11-06T07:00:00	4	Temperatura máxima	13.2
66299	7	Sololá	701	Sololá	3	Barraneche	12	Diciembre	2023-12-12T00:00:00	2024-11-06T07:00:00	3	Temperatura mínima	12.5
66300	7	Sololá	701	Sololá	3	Barraneche	12	Diciembre	2023-12-12T00:00:00	2024-11-06T07:00:00	5	Humedad	57
66301	7	Sololá	701	Sololá	3	Barraneche	12	Diciembre	2023-12-12T00:00:00	2024-11-06T07:00:00	6	Velocidad del viento	16.1
66302	7	Sololá	701	Sololá	3	Barraneche	12	Diciembre	2023-12-12T00:00:00	2024-11-06T07:00:00	7	Dirección del viento	16.09
66303	7	Sololá	701	Sololá	3	Barraneche	12	Diciembre	2023-12-12T00:00:00	2024-11-06T07:00:00	1	Precipitación	0
66304	7	Sololá	701	Sololá	3	Barraneche	12	Diciembre	2023-12-12T00:00:00	2024-11-06T07:00:00	8	Radiación solar	10
66305	7	Sololá	701	Sololá	3	Barraneche	12	Diciembre	2023-12-12T00:00:00	2024-11-06T08:00:00	2	Temperatura media	15.6
66306	7	Sololá	701	Sololá	3	Barraneche	12	Diciembre	2023-12-12T00:00:00	2024-11-06T08:00:00	4	Temperatura máxima	15.8
66307	7	Sololá	701	Sololá	3	Barraneche	12	Diciembre	2023-12-12T00:00:00	2024-11-06T08:00:00	3	Temperatura mínima	13.3
66308	7	Sololá	701	Sololá	3	Barraneche	12	Diciembre	2023-12-12T00:00:00	2024-11-06T08:00:00	5	Humedad	54
66309	7	Sololá	701	Sololá	3	Barraneche	12	Diciembre	2023-12-12T00:00:00	2024-11-06T08:00:00	6	Velocidad del viento	20.9
66310	7	Sololá	701	Sololá	3	Barraneche	12	Diciembre	2023-12-12T00:00:00	2024-11-06T08:00:00	7	Dirección del viento	20.92
66311	7	Sololá	701	Sololá	3	Barraneche	12	Diciembre	2023-12-12T00:00:00	2024-11-06T08:00:00	1	Precipitación	0
66312	7	Sololá	701	Sololá	3	Barraneche	12	Diciembre	2023-12-12T00:00:00	2024-11-06T08:00:00	8	Radiación solar	201
66313	7	Sololá	701	Sololá	3	Barraneche	12	Diciembre	2023-12-12T00:00:00	2024-11-06T09:00:00	2	Temperatura media	15.3
66314	7	Sololá	701	Sololá	3	Barraneche	12	Diciembre	2023-12-12T00:00:00	2024-11-06T09:00:00	4	Temperatura máxima	15.8
66315	7	Sololá	701	Sololá	3	Barraneche	12	Diciembre	2023-12-12T00:00:00	2024-11-06T09:00:00	3	Temperatura mínima	15.1
66316	7	Sololá	701	Sololá	3	Barraneche	12	Diciembre	2023-12-12T00:00:00	2024-11-06T09:00:00	5	Humedad	57
66317	7	Sololá	701	Sololá	3	Barraneche	12	Diciembre	2023-12-12T00:00:00	2024-11-06T09:00:00	6	Velocidad del viento	22.5
66318	7	Sololá	701	Sololá	3	Barraneche	12	Diciembre	2023-12-12T00:00:00	2024-11-06T09:00:00	7	Dirección del viento	22.53
66319	7	Sololá	701	Sololá	3	Barraneche	12	Diciembre	2023-12-12T00:00:00	2024-11-06T09:00:00	1	Precipitación	0
66320	7	Sololá	701	Sololá	3	Barraneche	12	Diciembre	2023-12-12T00:00:00	2024-11-06T09:00:00	8	Radiación solar	438
66321	7	Sololá	701	Sololá	3	Barraneche	12	Diciembre	2023-12-12T00:00:00	2024-11-06T10:00:00	2	Temperatura media	16.2
66322	7	Sololá	701	Sololá	3	Barraneche	12	Diciembre	2023-12-12T00:00:00	2024-11-06T10:00:00	4	Temperatura máxima	16.3
66323	7	Sololá	701	Sololá	3	Barraneche	12	Diciembre	2023-12-12T00:00:00	2024-11-06T10:00:00	3	Temperatura mínima	14.7
66324	7	Sololá	701	Sololá	3	Barraneche	12	Diciembre	2023-12-12T00:00:00	2024-11-06T10:00:00	5	Humedad	55
66325	7	Sololá	701	Sololá	3	Barraneche	12	Diciembre	2023-12-12T00:00:00	2024-11-06T10:00:00	6	Velocidad del viento	24.1
66326	7	Sololá	701	Sololá	3	Barraneche	12	Diciembre	2023-12-12T00:00:00	2024-11-06T10:00:00	7	Dirección del viento	24.14
66327	7	Sololá	701	Sololá	3	Barraneche	12	Diciembre	2023-12-12T00:00:00	2024-11-06T10:00:00	1	Precipitación	0
66328	7	Sololá	701	Sololá	3	Barraneche	12	Diciembre	2023-12-12T00:00:00	2024-11-06T10:00:00	8	Radiación solar	636
66329	7	Sololá	701	Sololá	3	Barraneche	12	Diciembre	2023-12-12T00:00:00	2024-11-06T11:00:00	2	Temperatura media	17.6
66330	7	Sololá	701	Sololá	3	Barraneche	12	Diciembre	2023-12-12T00:00:00	2024-11-06T11:00:00	4	Temperatura máxima	17.7
66331	7	Sololá	701	Sololá	3	Barraneche	12	Diciembre	2023-12-12T00:00:00	2024-11-06T11:00:00	3	Temperatura mínima	15.9
66332	7	Sololá	701	Sololá	3	Barraneche	12	Diciembre	2023-12-12T00:00:00	2024-11-06T11:00:00	5	Humedad	52
66333	7	Sololá	701	Sololá	3	Barraneche	12	Diciembre	2023-12-12T00:00:00	2024-11-06T11:00:00	6	Velocidad del viento	22.5
66334	7	Sololá	701	Sololá	3	Barraneche	12	Diciembre	2023-12-12T00:00:00	2024-11-06T11:00:00	7	Dirección del viento	22.53
66335	7	Sololá	701	Sololá	3	Barraneche	12	Diciembre	2023-12-12T00:00:00	2024-11-06T11:00:00	1	Precipitación	0
66336	7	Sololá	701	Sololá	3	Barraneche	12	Diciembre	2023-12-12T00:00:00	2024-11-06T11:00:00	8	Radiación solar	772
66337	7	Sololá	701	Sololá	3	Barraneche	12	Diciembre	2023-12-12T00:00:00	2024-11-06T12:00:00	2	Temperatura media	16.8
66338	7	Sololá	701	Sololá	3	Barraneche	12	Diciembre	2023-12-12T00:00:00	2024-11-06T12:00:00	4	Temperatura máxima	17.7
66339	7	Sololá	701	Sololá	3	Barraneche	12	Diciembre	2023-12-12T00:00:00	2024-11-06T12:00:00	3	Temperatura mínima	16.6
66340	7	Sololá	701	Sololá	3	Barraneche	12	Diciembre	2023-12-12T00:00:00	2024-11-06T12:00:00	5	Humedad	55
66341	7	Sololá	701	Sololá	3	Barraneche	12	Diciembre	2023-12-12T00:00:00	2024-11-06T12:00:00	6	Velocidad del viento	22.5
66342	7	Sololá	701	Sololá	3	Barraneche	12	Diciembre	2023-12-12T00:00:00	2024-11-06T12:00:00	7	Dirección del viento	22.53
66343	7	Sololá	701	Sololá	3	Barraneche	12	Diciembre	2023-12-12T00:00:00	2024-11-06T12:00:00	1	Precipitación	0
66344	7	Sololá	701	Sololá	3	Barraneche	12	Diciembre	2023-12-12T00:00:00	2024-11-06T12:00:00	8	Radiación solar	842
66345	7	Sololá	701	Sololá	3	Barraneche	12	Diciembre	2023-12-12T00:00:00	2024-11-06T13:00:00	2	Temperatura media	16.3
66346	7	Sololá	701	Sololá	3	Barraneche	12	Diciembre	2023-12-12T00:00:00	2024-11-06T13:00:00	4	Temperatura máxima	16.8
66347	7	Sololá	701	Sololá	3	Barraneche	12	Diciembre	2023-12-12T00:00:00	2024-11-06T13:00:00	3	Temperatura mínima	15.9
66348	7	Sololá	701	Sololá	3	Barraneche	12	Diciembre	2023-12-12T00:00:00	2024-11-06T13:00:00	5	Humedad	57
66349	7	Sololá	701	Sololá	3	Barraneche	12	Diciembre	2023-12-12T00:00:00	2024-11-06T13:00:00	6	Velocidad del viento	24.1
66350	7	Sololá	701	Sololá	3	Barraneche	12	Diciembre	2023-12-12T00:00:00	2024-11-06T13:00:00	7	Dirección del viento	24.14
66351	7	Sololá	701	Sololá	3	Barraneche	12	Diciembre	2023-12-12T00:00:00	2024-11-06T13:00:00	1	Precipitación	0
66352	7	Sololá	701	Sololá	3	Barraneche	12	Diciembre	2023-12-12T00:00:00	2024-11-06T13:00:00	8	Radiación solar	844
66353	7	Sololá	701	Sololá	3	Barraneche	12	Diciembre	2023-12-12T00:00:00	2024-11-06T14:00:00	2	Temperatura media	16.7
66354	7	Sololá	701	Sololá	3	Barraneche	12	Diciembre	2023-12-12T00:00:00	2024-11-06T14:00:00	4	Temperatura máxima	17.1
66355	7	Sololá	701	Sololá	3	Barraneche	12	Diciembre	2023-12-12T00:00:00	2024-11-06T14:00:00	3	Temperatura mínima	16.3
66356	7	Sololá	701	Sololá	3	Barraneche	12	Diciembre	2023-12-12T00:00:00	2024-11-06T14:00:00	5	Humedad	57
66357	7	Sololá	701	Sololá	3	Barraneche	12	Diciembre	2023-12-12T00:00:00	2024-11-06T14:00:00	6	Velocidad del viento	27.4
66358	7	Sololá	701	Sololá	3	Barraneche	12	Diciembre	2023-12-12T00:00:00	2024-11-06T14:00:00	7	Dirección del viento	27.36
66359	7	Sololá	701	Sololá	3	Barraneche	12	Diciembre	2023-12-12T00:00:00	2024-11-06T14:00:00	1	Precipitación	0
66360	7	Sololá	701	Sololá	3	Barraneche	12	Diciembre	2023-12-12T00:00:00	2024-11-06T14:00:00	8	Radiación solar	808
66361	7	Sololá	701	Sololá	3	Barraneche	12	Diciembre	2023-12-12T00:00:00	2024-11-06T15:00:00	2	Temperatura media	15.6
66362	7	Sololá	701	Sololá	3	Barraneche	12	Diciembre	2023-12-12T00:00:00	2024-11-06T15:00:00	4	Temperatura máxima	17.1
66363	7	Sololá	701	Sololá	3	Barraneche	12	Diciembre	2023-12-12T00:00:00	2024-11-06T15:00:00	3	Temperatura mínima	15.6
66364	7	Sololá	701	Sololá	3	Barraneche	12	Diciembre	2023-12-12T00:00:00	2024-11-06T15:00:00	5	Humedad	62
66365	7	Sololá	701	Sololá	3	Barraneche	12	Diciembre	2023-12-12T00:00:00	2024-11-06T15:00:00	6	Velocidad del viento	22.5
66366	7	Sololá	701	Sololá	3	Barraneche	12	Diciembre	2023-12-12T00:00:00	2024-11-06T15:00:00	7	Dirección del viento	22.53
66367	7	Sololá	701	Sololá	3	Barraneche	12	Diciembre	2023-12-12T00:00:00	2024-11-06T15:00:00	1	Precipitación	0
66368	7	Sololá	701	Sololá	3	Barraneche	12	Diciembre	2023-12-12T00:00:00	2024-11-06T15:00:00	8	Radiación solar	597
66369	7	Sololá	701	Sololá	3	Barraneche	12	Diciembre	2023-12-12T00:00:00	2024-11-06T16:00:00	2	Temperatura media	14.7
66370	7	Sololá	701	Sololá	3	Barraneche	12	Diciembre	2023-12-12T00:00:00	2024-11-06T16:00:00	4	Temperatura máxima	15.8
66371	7	Sololá	701	Sololá	3	Barraneche	12	Diciembre	2023-12-12T00:00:00	2024-11-06T16:00:00	3	Temperatura mínima	14.7
66372	7	Sololá	701	Sololá	3	Barraneche	12	Diciembre	2023-12-12T00:00:00	2024-11-06T16:00:00	5	Humedad	64
66373	7	Sololá	701	Sololá	3	Barraneche	12	Diciembre	2023-12-12T00:00:00	2024-11-06T16:00:00	6	Velocidad del viento	25.7
66374	7	Sololá	701	Sololá	3	Barraneche	12	Diciembre	2023-12-12T00:00:00	2024-11-06T16:00:00	7	Dirección del viento	25.75
66375	7	Sololá	701	Sololá	3	Barraneche	12	Diciembre	2023-12-12T00:00:00	2024-11-06T16:00:00	1	Precipitación	0
66376	7	Sololá	701	Sololá	3	Barraneche	12	Diciembre	2023-12-12T00:00:00	2024-11-06T16:00:00	8	Radiación solar	197
66377	7	Sololá	701	Sololá	3	Barraneche	12	Diciembre	2023-12-12T00:00:00	2024-11-06T17:00:00	2	Temperatura media	13
66378	7	Sololá	701	Sololá	3	Barraneche	12	Diciembre	2023-12-12T00:00:00	2024-11-06T17:00:00	4	Temperatura máxima	14.7
66379	7	Sololá	701	Sololá	3	Barraneche	12	Diciembre	2023-12-12T00:00:00	2024-11-06T17:00:00	3	Temperatura mínima	12.9
66380	7	Sololá	701	Sololá	3	Barraneche	12	Diciembre	2023-12-12T00:00:00	2024-11-06T17:00:00	5	Humedad	69
66381	7	Sololá	701	Sololá	3	Barraneche	12	Diciembre	2023-12-12T00:00:00	2024-11-06T17:00:00	6	Velocidad del viento	25.7
66382	7	Sololá	701	Sololá	3	Barraneche	12	Diciembre	2023-12-12T00:00:00	2024-11-06T17:00:00	7	Dirección del viento	25.75
66383	7	Sololá	701	Sololá	3	Barraneche	12	Diciembre	2023-12-12T00:00:00	2024-11-06T17:00:00	1	Precipitación	0
66384	7	Sololá	701	Sololá	3	Barraneche	12	Diciembre	2023-12-12T00:00:00	2024-11-06T17:00:00	8	Radiación solar	62
66385	7	Sololá	701	Sololá	3	Barraneche	12	Diciembre	2023-12-12T00:00:00	2024-11-06T18:00:00	2	Temperatura media	12.3
66386	7	Sololá	701	Sololá	3	Barraneche	12	Diciembre	2023-12-12T00:00:00	2024-11-06T18:00:00	4	Temperatura máxima	13.1
66387	7	Sololá	701	Sololá	3	Barraneche	12	Diciembre	2023-12-12T00:00:00	2024-11-06T18:00:00	3	Temperatura mínima	12.3
66388	7	Sololá	701	Sololá	3	Barraneche	12	Diciembre	2023-12-12T00:00:00	2024-11-06T18:00:00	5	Humedad	70
66389	7	Sololá	701	Sololá	3	Barraneche	12	Diciembre	2023-12-12T00:00:00	2024-11-06T18:00:00	6	Velocidad del viento	29
66390	7	Sololá	701	Sololá	3	Barraneche	12	Diciembre	2023-12-12T00:00:00	2024-11-06T18:00:00	7	Dirección del viento	28.97
66391	7	Sololá	701	Sololá	3	Barraneche	12	Diciembre	2023-12-12T00:00:00	2024-11-06T18:00:00	1	Precipitación	0
66392	7	Sololá	701	Sololá	3	Barraneche	12	Diciembre	2023-12-12T00:00:00	2024-11-06T18:00:00	8	Radiación solar	11
66393	7	Sololá	701	Sololá	3	Barraneche	12	Diciembre	2023-12-12T00:00:00	2024-11-06T19:00:00	2	Temperatura media	12.1
66394	7	Sololá	701	Sololá	3	Barraneche	12	Diciembre	2023-12-12T00:00:00	2024-11-06T19:00:00	4	Temperatura máxima	12.3
66395	7	Sololá	701	Sololá	3	Barraneche	12	Diciembre	2023-12-12T00:00:00	2024-11-06T19:00:00	3	Temperatura mínima	12
66396	7	Sololá	701	Sololá	3	Barraneche	12	Diciembre	2023-12-12T00:00:00	2024-11-06T19:00:00	5	Humedad	71
66397	7	Sololá	701	Sololá	3	Barraneche	12	Diciembre	2023-12-12T00:00:00	2024-11-06T19:00:00	6	Velocidad del viento	27.4
66398	7	Sololá	701	Sololá	3	Barraneche	12	Diciembre	2023-12-12T00:00:00	2024-11-06T19:00:00	7	Dirección del viento	27.36
66399	7	Sololá	701	Sololá	3	Barraneche	12	Diciembre	2023-12-12T00:00:00	2024-11-06T19:00:00	1	Precipitación	0
66400	7	Sololá	701	Sololá	3	Barraneche	12	Diciembre	2023-12-12T00:00:00	2024-11-06T19:00:00	8	Radiación solar	0
66401	7	Sololá	701	Sololá	3	Barraneche	12	Diciembre	2023-12-12T00:00:00	2024-11-06T20:00:00	2	Temperatura media	12.2
66402	7	Sololá	701	Sololá	3	Barraneche	12	Diciembre	2023-12-12T00:00:00	2024-11-06T20:00:00	4	Temperatura máxima	12.2
66403	7	Sololá	701	Sololá	3	Barraneche	12	Diciembre	2023-12-12T00:00:00	2024-11-06T20:00:00	3	Temperatura mínima	11.9
66404	7	Sololá	701	Sololá	3	Barraneche	12	Diciembre	2023-12-12T00:00:00	2024-11-06T20:00:00	5	Humedad	70
66405	7	Sololá	701	Sololá	3	Barraneche	12	Diciembre	2023-12-12T00:00:00	2024-11-06T20:00:00	6	Velocidad del viento	29
66406	7	Sololá	701	Sololá	3	Barraneche	12	Diciembre	2023-12-12T00:00:00	2024-11-06T20:00:00	7	Dirección del viento	28.97
66407	7	Sololá	701	Sololá	3	Barraneche	12	Diciembre	2023-12-12T00:00:00	2024-11-06T20:00:00	1	Precipitación	0.2
66408	7	Sololá	701	Sololá	3	Barraneche	12	Diciembre	2023-12-12T00:00:00	2024-11-06T20:00:00	8	Radiación solar	0
66409	7	Sololá	701	Sololá	3	Barraneche	12	Diciembre	2023-12-12T00:00:00	2024-11-06T21:00:00	2	Temperatura media	11.9
66410	7	Sololá	701	Sololá	3	Barraneche	12	Diciembre	2023-12-12T00:00:00	2024-11-06T21:00:00	4	Temperatura máxima	12.2
66411	7	Sololá	701	Sololá	3	Barraneche	12	Diciembre	2023-12-12T00:00:00	2024-11-06T21:00:00	3	Temperatura mínima	11.8
66412	7	Sololá	701	Sololá	3	Barraneche	12	Diciembre	2023-12-12T00:00:00	2024-11-06T21:00:00	5	Humedad	71
66413	7	Sololá	701	Sololá	3	Barraneche	12	Diciembre	2023-12-12T00:00:00	2024-11-06T21:00:00	6	Velocidad del viento	27.4
66414	7	Sololá	701	Sololá	3	Barraneche	12	Diciembre	2023-12-12T00:00:00	2024-11-06T21:00:00	7	Dirección del viento	27.36
66415	7	Sololá	701	Sololá	3	Barraneche	12	Diciembre	2023-12-12T00:00:00	2024-11-06T21:00:00	1	Precipitación	0.2
66416	7	Sololá	701	Sololá	3	Barraneche	12	Diciembre	2023-12-12T00:00:00	2024-11-06T21:00:00	8	Radiación solar	0
66417	7	Sololá	701	Sololá	3	Barraneche	12	Diciembre	2023-12-12T00:00:00	2024-11-06T22:00:00	2	Temperatura media	11.8
66418	7	Sololá	701	Sololá	3	Barraneche	12	Diciembre	2023-12-12T00:00:00	2024-11-06T22:00:00	4	Temperatura máxima	11.9
66419	7	Sololá	701	Sololá	3	Barraneche	12	Diciembre	2023-12-12T00:00:00	2024-11-06T22:00:00	3	Temperatura mínima	11.5
66420	7	Sololá	701	Sololá	3	Barraneche	12	Diciembre	2023-12-12T00:00:00	2024-11-06T22:00:00	5	Humedad	70
66421	7	Sololá	701	Sololá	3	Barraneche	12	Diciembre	2023-12-12T00:00:00	2024-11-06T22:00:00	6	Velocidad del viento	29
66422	7	Sololá	701	Sololá	3	Barraneche	12	Diciembre	2023-12-12T00:00:00	2024-11-06T22:00:00	7	Dirección del viento	28.97
66423	7	Sololá	701	Sololá	3	Barraneche	12	Diciembre	2023-12-12T00:00:00	2024-11-06T22:00:00	1	Precipitación	0.2
66424	7	Sololá	701	Sololá	3	Barraneche	12	Diciembre	2023-12-12T00:00:00	2024-11-06T22:00:00	8	Radiación solar	0
66425	7	Sololá	701	Sololá	3	Barraneche	12	Diciembre	2023-12-12T00:00:00	2024-11-06T23:00:00	2	Temperatura media	12.2
66426	7	Sololá	701	Sololá	3	Barraneche	12	Diciembre	2023-12-12T00:00:00	2024-11-06T23:00:00	4	Temperatura máxima	12.5
66427	7	Sololá	701	Sololá	3	Barraneche	12	Diciembre	2023-12-12T00:00:00	2024-11-06T23:00:00	3	Temperatura mínima	11.7
66428	7	Sololá	701	Sololá	3	Barraneche	12	Diciembre	2023-12-12T00:00:00	2024-11-06T23:00:00	5	Humedad	68
66429	7	Sololá	701	Sololá	3	Barraneche	12	Diciembre	2023-12-12T00:00:00	2024-11-06T23:00:00	6	Velocidad del viento	32.2
66430	7	Sololá	701	Sololá	3	Barraneche	12	Diciembre	2023-12-12T00:00:00	2024-11-06T23:00:00	7	Dirección del viento	32.19
66431	7	Sololá	701	Sololá	3	Barraneche	12	Diciembre	2023-12-12T00:00:00	2024-11-06T23:00:00	1	Precipitación	0
66432	7	Sololá	701	Sololá	3	Barraneche	12	Diciembre	2023-12-12T00:00:00	2024-11-06T23:00:00	8	Radiación solar	0
66433	7	Sololá	701	Sololá	3	Barraneche	12	Diciembre	2023-12-13T00:00:00	2024-11-06T00:00:00	2	Temperatura media	12.2
66434	7	Sololá	701	Sololá	3	Barraneche	12	Diciembre	2023-12-13T00:00:00	2024-11-06T00:00:00	4	Temperatura máxima	12.6
66435	7	Sololá	701	Sololá	3	Barraneche	12	Diciembre	2023-12-13T00:00:00	2024-11-06T00:00:00	3	Temperatura mínima	12.1
66436	7	Sololá	701	Sololá	3	Barraneche	12	Diciembre	2023-12-13T00:00:00	2024-11-06T00:00:00	5	Humedad	67
66437	7	Sololá	701	Sololá	3	Barraneche	12	Diciembre	2023-12-13T00:00:00	2024-11-06T00:00:00	6	Velocidad del viento	33.8
66438	7	Sololá	701	Sololá	3	Barraneche	12	Diciembre	2023-12-13T00:00:00	2024-11-06T00:00:00	7	Dirección del viento	33.8
66439	7	Sololá	701	Sololá	3	Barraneche	12	Diciembre	2023-12-13T00:00:00	2024-11-06T00:00:00	1	Precipitación	0
66440	7	Sololá	701	Sololá	3	Barraneche	12	Diciembre	2023-12-13T00:00:00	2024-11-06T00:00:00	8	Radiación solar	0
66441	7	Sololá	701	Sololá	3	Barraneche	12	Diciembre	2023-12-13T00:00:00	2024-11-06T01:00:00	2	Temperatura media	11.9
66442	7	Sololá	701	Sololá	3	Barraneche	12	Diciembre	2023-12-13T00:00:00	2024-11-06T01:00:00	4	Temperatura máxima	12.4
66443	7	Sololá	701	Sololá	3	Barraneche	12	Diciembre	2023-12-13T00:00:00	2024-11-06T01:00:00	3	Temperatura mínima	11.9
66444	7	Sololá	701	Sololá	3	Barraneche	12	Diciembre	2023-12-13T00:00:00	2024-11-06T01:00:00	5	Humedad	69
66445	7	Sololá	701	Sololá	3	Barraneche	12	Diciembre	2023-12-13T00:00:00	2024-11-06T01:00:00	6	Velocidad del viento	33.8
66446	7	Sololá	701	Sololá	3	Barraneche	12	Diciembre	2023-12-13T00:00:00	2024-11-06T01:00:00	7	Dirección del viento	33.8
66447	7	Sololá	701	Sololá	3	Barraneche	12	Diciembre	2023-12-13T00:00:00	2024-11-06T01:00:00	1	Precipitación	0
66448	7	Sololá	701	Sololá	3	Barraneche	12	Diciembre	2023-12-13T00:00:00	2024-11-06T01:00:00	8	Radiación solar	0
66449	7	Sololá	701	Sololá	3	Barraneche	12	Diciembre	2023-12-13T00:00:00	2024-11-06T02:00:00	2	Temperatura media	12.1
66450	7	Sololá	701	Sololá	3	Barraneche	12	Diciembre	2023-12-13T00:00:00	2024-11-06T02:00:00	4	Temperatura máxima	12.2
66451	7	Sololá	701	Sololá	3	Barraneche	12	Diciembre	2023-12-13T00:00:00	2024-11-06T02:00:00	3	Temperatura mínima	11.7
66452	7	Sololá	701	Sololá	3	Barraneche	12	Diciembre	2023-12-13T00:00:00	2024-11-06T02:00:00	5	Humedad	68
66453	7	Sololá	701	Sololá	3	Barraneche	12	Diciembre	2023-12-13T00:00:00	2024-11-06T02:00:00	6	Velocidad del viento	35.4
66454	7	Sololá	701	Sololá	3	Barraneche	12	Diciembre	2023-12-13T00:00:00	2024-11-06T02:00:00	7	Dirección del viento	35.41
66455	7	Sololá	701	Sololá	3	Barraneche	12	Diciembre	2023-12-13T00:00:00	2024-11-06T02:00:00	1	Precipitación	0.2
66456	7	Sololá	701	Sololá	3	Barraneche	12	Diciembre	2023-12-13T00:00:00	2024-11-06T02:00:00	8	Radiación solar	0
66457	7	Sololá	701	Sololá	3	Barraneche	12	Diciembre	2023-12-13T00:00:00	2024-11-06T03:00:00	2	Temperatura media	11.6
66458	7	Sololá	701	Sololá	3	Barraneche	12	Diciembre	2023-12-13T00:00:00	2024-11-06T03:00:00	4	Temperatura máxima	12.3
66459	7	Sololá	701	Sololá	3	Barraneche	12	Diciembre	2023-12-13T00:00:00	2024-11-06T03:00:00	3	Temperatura mínima	11.5
66460	7	Sololá	701	Sololá	3	Barraneche	12	Diciembre	2023-12-13T00:00:00	2024-11-06T03:00:00	5	Humedad	70
66461	7	Sololá	701	Sololá	3	Barraneche	12	Diciembre	2023-12-13T00:00:00	2024-11-06T03:00:00	6	Velocidad del viento	33.8
66462	7	Sololá	701	Sololá	3	Barraneche	12	Diciembre	2023-12-13T00:00:00	2024-11-06T03:00:00	7	Dirección del viento	33.8
66463	7	Sololá	701	Sololá	3	Barraneche	12	Diciembre	2023-12-13T00:00:00	2024-11-06T03:00:00	1	Precipitación	0
66464	7	Sololá	701	Sololá	3	Barraneche	12	Diciembre	2023-12-13T00:00:00	2024-11-06T03:00:00	8	Radiación solar	0
66465	7	Sololá	701	Sololá	3	Barraneche	12	Diciembre	2023-12-13T00:00:00	2024-11-06T04:00:00	2	Temperatura media	11.6
66466	7	Sololá	701	Sololá	3	Barraneche	12	Diciembre	2023-12-13T00:00:00	2024-11-06T04:00:00	4	Temperatura máxima	11.9
66467	7	Sololá	701	Sololá	3	Barraneche	12	Diciembre	2023-12-13T00:00:00	2024-11-06T04:00:00	3	Temperatura mínima	11.4
66468	7	Sololá	701	Sololá	3	Barraneche	12	Diciembre	2023-12-13T00:00:00	2024-11-06T04:00:00	5	Humedad	70
66469	7	Sololá	701	Sololá	3	Barraneche	12	Diciembre	2023-12-13T00:00:00	2024-11-06T04:00:00	6	Velocidad del viento	33.8
66470	7	Sololá	701	Sololá	3	Barraneche	12	Diciembre	2023-12-13T00:00:00	2024-11-06T04:00:00	7	Dirección del viento	33.8
66471	7	Sololá	701	Sololá	3	Barraneche	12	Diciembre	2023-12-13T00:00:00	2024-11-06T04:00:00	1	Precipitación	0
66472	7	Sololá	701	Sololá	3	Barraneche	12	Diciembre	2023-12-13T00:00:00	2024-11-06T04:00:00	8	Radiación solar	0
66473	7	Sololá	701	Sololá	3	Barraneche	12	Diciembre	2023-12-13T00:00:00	2024-11-06T05:00:00	2	Temperatura media	11.9
66474	7	Sololá	701	Sololá	3	Barraneche	12	Diciembre	2023-12-13T00:00:00	2024-11-06T05:00:00	4	Temperatura máxima	11.9
66475	7	Sololá	701	Sololá	3	Barraneche	12	Diciembre	2023-12-13T00:00:00	2024-11-06T05:00:00	3	Temperatura mínima	11.4
66476	7	Sololá	701	Sololá	3	Barraneche	12	Diciembre	2023-12-13T00:00:00	2024-11-06T05:00:00	5	Humedad	68
66477	7	Sololá	701	Sololá	3	Barraneche	12	Diciembre	2023-12-13T00:00:00	2024-11-06T05:00:00	6	Velocidad del viento	32.2
66478	7	Sololá	701	Sololá	3	Barraneche	12	Diciembre	2023-12-13T00:00:00	2024-11-06T05:00:00	7	Dirección del viento	32.19
66479	7	Sololá	701	Sololá	3	Barraneche	12	Diciembre	2023-12-13T00:00:00	2024-11-06T05:00:00	1	Precipitación	0
66480	7	Sololá	701	Sololá	3	Barraneche	12	Diciembre	2023-12-13T00:00:00	2024-11-06T05:00:00	8	Radiación solar	0
66481	7	Sololá	701	Sololá	3	Barraneche	12	Diciembre	2023-12-13T00:00:00	2024-11-06T06:00:00	2	Temperatura media	11.9
66482	7	Sololá	701	Sololá	3	Barraneche	12	Diciembre	2023-12-13T00:00:00	2024-11-06T06:00:00	4	Temperatura máxima	11.9
66483	7	Sololá	701	Sololá	3	Barraneche	12	Diciembre	2023-12-13T00:00:00	2024-11-06T06:00:00	3	Temperatura mínima	11.6
66484	7	Sololá	701	Sololá	3	Barraneche	12	Diciembre	2023-12-13T00:00:00	2024-11-06T06:00:00	5	Humedad	68
66485	7	Sololá	701	Sololá	3	Barraneche	12	Diciembre	2023-12-13T00:00:00	2024-11-06T06:00:00	6	Velocidad del viento	37
66486	7	Sololá	701	Sololá	3	Barraneche	12	Diciembre	2023-12-13T00:00:00	2024-11-06T06:00:00	7	Dirección del viento	37.01
66487	7	Sololá	701	Sololá	3	Barraneche	12	Diciembre	2023-12-13T00:00:00	2024-11-06T06:00:00	1	Precipitación	0
66488	7	Sololá	701	Sololá	3	Barraneche	12	Diciembre	2023-12-13T00:00:00	2024-11-06T06:00:00	8	Radiación solar	0
66489	7	Sololá	701	Sololá	3	Barraneche	12	Diciembre	2023-12-13T00:00:00	2024-11-06T07:00:00	2	Temperatura media	11.8
66490	7	Sololá	701	Sololá	3	Barraneche	12	Diciembre	2023-12-13T00:00:00	2024-11-06T07:00:00	4	Temperatura máxima	12.1
66491	7	Sololá	701	Sololá	3	Barraneche	12	Diciembre	2023-12-13T00:00:00	2024-11-06T07:00:00	3	Temperatura mínima	11.8
66492	7	Sololá	701	Sololá	3	Barraneche	12	Diciembre	2023-12-13T00:00:00	2024-11-06T07:00:00	5	Humedad	67
66493	7	Sololá	701	Sololá	3	Barraneche	12	Diciembre	2023-12-13T00:00:00	2024-11-06T07:00:00	6	Velocidad del viento	35.4
66494	7	Sololá	701	Sololá	3	Barraneche	12	Diciembre	2023-12-13T00:00:00	2024-11-06T07:00:00	7	Dirección del viento	35.41
66495	7	Sololá	701	Sololá	3	Barraneche	12	Diciembre	2023-12-13T00:00:00	2024-11-06T07:00:00	1	Precipitación	0
66496	7	Sololá	701	Sololá	3	Barraneche	12	Diciembre	2023-12-13T00:00:00	2024-11-06T07:00:00	8	Radiación solar	10
66497	7	Sololá	701	Sololá	3	Barraneche	12	Diciembre	2023-12-13T00:00:00	2024-11-06T08:00:00	2	Temperatura media	13.2
66498	7	Sololá	701	Sololá	3	Barraneche	12	Diciembre	2023-12-13T00:00:00	2024-11-06T08:00:00	4	Temperatura máxima	13.2
66499	7	Sololá	701	Sololá	3	Barraneche	12	Diciembre	2023-12-13T00:00:00	2024-11-06T08:00:00	3	Temperatura mínima	11.8
66500	7	Sololá	701	Sololá	3	Barraneche	12	Diciembre	2023-12-13T00:00:00	2024-11-06T08:00:00	5	Humedad	64
66501	7	Sololá	701	Sololá	3	Barraneche	12	Diciembre	2023-12-13T00:00:00	2024-11-06T08:00:00	6	Velocidad del viento	32.2
66502	7	Sololá	701	Sololá	3	Barraneche	12	Diciembre	2023-12-13T00:00:00	2024-11-06T08:00:00	7	Dirección del viento	32.19
66503	7	Sololá	701	Sololá	3	Barraneche	12	Diciembre	2023-12-13T00:00:00	2024-11-06T08:00:00	1	Precipitación	0
66504	7	Sololá	701	Sololá	3	Barraneche	12	Diciembre	2023-12-13T00:00:00	2024-11-06T08:00:00	8	Radiación solar	194
66505	7	Sololá	701	Sololá	3	Barraneche	12	Diciembre	2023-12-13T00:00:00	2024-11-06T09:00:00	2	Temperatura media	14.5
66506	7	Sololá	701	Sololá	3	Barraneche	12	Diciembre	2023-12-13T00:00:00	2024-11-06T09:00:00	4	Temperatura máxima	14.5
66507	7	Sololá	701	Sololá	3	Barraneche	12	Diciembre	2023-12-13T00:00:00	2024-11-06T09:00:00	3	Temperatura mínima	13.2
66508	7	Sololá	701	Sololá	3	Barraneche	12	Diciembre	2023-12-13T00:00:00	2024-11-06T09:00:00	5	Humedad	62
66509	7	Sololá	701	Sololá	3	Barraneche	12	Diciembre	2023-12-13T00:00:00	2024-11-06T09:00:00	6	Velocidad del viento	22.5
66510	7	Sololá	701	Sololá	3	Barraneche	12	Diciembre	2023-12-13T00:00:00	2024-11-06T09:00:00	7	Dirección del viento	22.53
66511	7	Sololá	701	Sololá	3	Barraneche	12	Diciembre	2023-12-13T00:00:00	2024-11-06T09:00:00	1	Precipitación	0
66512	7	Sololá	701	Sololá	3	Barraneche	12	Diciembre	2023-12-13T00:00:00	2024-11-06T09:00:00	8	Radiación solar	443
66513	7	Sololá	701	Sololá	3	Barraneche	12	Diciembre	2023-12-13T00:00:00	2024-11-06T10:00:00	2	Temperatura media	15.1
66514	7	Sololá	701	Sololá	3	Barraneche	12	Diciembre	2023-12-13T00:00:00	2024-11-06T10:00:00	4	Temperatura máxima	15.4
66515	7	Sololá	701	Sololá	3	Barraneche	12	Diciembre	2023-12-13T00:00:00	2024-11-06T10:00:00	3	Temperatura mínima	14.5
66516	7	Sololá	701	Sololá	3	Barraneche	12	Diciembre	2023-12-13T00:00:00	2024-11-06T10:00:00	5	Humedad	61
66517	7	Sololá	701	Sololá	3	Barraneche	12	Diciembre	2023-12-13T00:00:00	2024-11-06T10:00:00	6	Velocidad del viento	19.3
66518	7	Sololá	701	Sololá	3	Barraneche	12	Diciembre	2023-12-13T00:00:00	2024-11-06T10:00:00	7	Dirección del viento	19.31
66519	7	Sololá	701	Sololá	3	Barraneche	12	Diciembre	2023-12-13T00:00:00	2024-11-06T10:00:00	1	Precipitación	0
66520	7	Sololá	701	Sololá	3	Barraneche	12	Diciembre	2023-12-13T00:00:00	2024-11-06T10:00:00	8	Radiación solar	570
66521	7	Sololá	701	Sololá	3	Barraneche	12	Diciembre	2023-12-13T00:00:00	2024-11-06T11:00:00	2	Temperatura media	14.9
66522	7	Sololá	701	Sololá	3	Barraneche	12	Diciembre	2023-12-13T00:00:00	2024-11-06T11:00:00	4	Temperatura máxima	15.1
66523	7	Sololá	701	Sololá	3	Barraneche	12	Diciembre	2023-12-13T00:00:00	2024-11-06T11:00:00	3	Temperatura mínima	14
66524	7	Sololá	701	Sololá	3	Barraneche	12	Diciembre	2023-12-13T00:00:00	2024-11-06T11:00:00	5	Humedad	63
66525	7	Sololá	701	Sololá	3	Barraneche	12	Diciembre	2023-12-13T00:00:00	2024-11-06T11:00:00	6	Velocidad del viento	14.5
66526	7	Sololá	701	Sololá	3	Barraneche	12	Diciembre	2023-12-13T00:00:00	2024-11-06T11:00:00	7	Dirección del viento	14.48
66527	7	Sololá	701	Sololá	3	Barraneche	12	Diciembre	2023-12-13T00:00:00	2024-11-06T11:00:00	1	Precipitación	0
66528	7	Sololá	701	Sololá	3	Barraneche	12	Diciembre	2023-12-13T00:00:00	2024-11-06T11:00:00	8	Radiación solar	345
66529	7	Sololá	701	Sololá	3	Barraneche	12	Diciembre	2023-12-13T00:00:00	2024-11-06T12:00:00	2	Temperatura media	14.8
66530	7	Sololá	701	Sololá	3	Barraneche	12	Diciembre	2023-12-13T00:00:00	2024-11-06T12:00:00	4	Temperatura máxima	16.1
66531	7	Sololá	701	Sololá	3	Barraneche	12	Diciembre	2023-12-13T00:00:00	2024-11-06T12:00:00	3	Temperatura mínima	14.8
66532	7	Sololá	701	Sololá	3	Barraneche	12	Diciembre	2023-12-13T00:00:00	2024-11-06T12:00:00	5	Humedad	63
66533	7	Sololá	701	Sololá	3	Barraneche	12	Diciembre	2023-12-13T00:00:00	2024-11-06T12:00:00	6	Velocidad del viento	16.1
66534	7	Sololá	701	Sololá	3	Barraneche	12	Diciembre	2023-12-13T00:00:00	2024-11-06T12:00:00	7	Dirección del viento	16.09
66535	7	Sololá	701	Sololá	3	Barraneche	12	Diciembre	2023-12-13T00:00:00	2024-11-06T12:00:00	1	Precipitación	0
66536	7	Sololá	701	Sololá	3	Barraneche	12	Diciembre	2023-12-13T00:00:00	2024-11-06T12:00:00	8	Radiación solar	771
66537	7	Sololá	701	Sololá	3	Barraneche	12	Diciembre	2023-12-13T00:00:00	2024-11-06T13:00:00	2	Temperatura media	14.4
66538	7	Sololá	701	Sololá	3	Barraneche	12	Diciembre	2023-12-13T00:00:00	2024-11-06T13:00:00	4	Temperatura máxima	14.8
66539	7	Sololá	701	Sololá	3	Barraneche	12	Diciembre	2023-12-13T00:00:00	2024-11-06T13:00:00	3	Temperatura mínima	14.2
66540	7	Sololá	701	Sololá	3	Barraneche	12	Diciembre	2023-12-13T00:00:00	2024-11-06T13:00:00	5	Humedad	63
66541	7	Sololá	701	Sololá	3	Barraneche	12	Diciembre	2023-12-13T00:00:00	2024-11-06T13:00:00	6	Velocidad del viento	16.1
66542	7	Sololá	701	Sololá	3	Barraneche	12	Diciembre	2023-12-13T00:00:00	2024-11-06T13:00:00	7	Dirección del viento	16.09
66543	7	Sololá	701	Sololá	3	Barraneche	12	Diciembre	2023-12-13T00:00:00	2024-11-06T13:00:00	1	Precipitación	0
66544	7	Sololá	701	Sololá	3	Barraneche	12	Diciembre	2023-12-13T00:00:00	2024-11-06T13:00:00	8	Radiación solar	293
66545	7	Sololá	701	Sololá	3	Barraneche	12	Diciembre	2023-12-13T00:00:00	2024-11-06T14:00:00	2	Temperatura media	15.7
66546	7	Sololá	701	Sololá	3	Barraneche	12	Diciembre	2023-12-13T00:00:00	2024-11-06T14:00:00	4	Temperatura máxima	15.8
66547	7	Sololá	701	Sololá	3	Barraneche	12	Diciembre	2023-12-13T00:00:00	2024-11-06T14:00:00	3	Temperatura mínima	14.1
66548	7	Sololá	701	Sololá	3	Barraneche	12	Diciembre	2023-12-13T00:00:00	2024-11-06T14:00:00	5	Humedad	59
66549	7	Sololá	701	Sololá	3	Barraneche	12	Diciembre	2023-12-13T00:00:00	2024-11-06T14:00:00	6	Velocidad del viento	16.1
66550	7	Sololá	701	Sololá	3	Barraneche	12	Diciembre	2023-12-13T00:00:00	2024-11-06T14:00:00	7	Dirección del viento	16.09
66551	7	Sololá	701	Sololá	3	Barraneche	12	Diciembre	2023-12-13T00:00:00	2024-11-06T14:00:00	1	Precipitación	0
66552	7	Sololá	701	Sololá	3	Barraneche	12	Diciembre	2023-12-13T00:00:00	2024-11-06T14:00:00	8	Radiación solar	550
66553	7	Sololá	701	Sololá	3	Barraneche	12	Diciembre	2023-12-13T00:00:00	2024-11-06T15:00:00	2	Temperatura media	14.2
66554	7	Sololá	701	Sololá	3	Barraneche	12	Diciembre	2023-12-13T00:00:00	2024-11-06T15:00:00	4	Temperatura máxima	15.8
66555	7	Sololá	701	Sololá	3	Barraneche	12	Diciembre	2023-12-13T00:00:00	2024-11-06T15:00:00	3	Temperatura mínima	14.2
66556	7	Sololá	701	Sololá	3	Barraneche	12	Diciembre	2023-12-13T00:00:00	2024-11-06T15:00:00	5	Humedad	63
66557	7	Sololá	701	Sololá	3	Barraneche	12	Diciembre	2023-12-13T00:00:00	2024-11-06T15:00:00	6	Velocidad del viento	16.1
66558	7	Sololá	701	Sololá	3	Barraneche	12	Diciembre	2023-12-13T00:00:00	2024-11-06T15:00:00	7	Dirección del viento	16.09
66559	7	Sololá	701	Sololá	3	Barraneche	12	Diciembre	2023-12-13T00:00:00	2024-11-06T15:00:00	1	Precipitación	0
66560	7	Sololá	701	Sololá	3	Barraneche	12	Diciembre	2023-12-13T00:00:00	2024-11-06T15:00:00	8	Radiación solar	174
66561	7	Sololá	701	Sololá	3	Barraneche	12	Diciembre	2023-12-13T00:00:00	2024-11-06T16:00:00	2	Temperatura media	13.4
66562	7	Sololá	701	Sololá	3	Barraneche	12	Diciembre	2023-12-13T00:00:00	2024-11-06T16:00:00	4	Temperatura máxima	14.7
66563	7	Sololá	701	Sololá	3	Barraneche	12	Diciembre	2023-12-13T00:00:00	2024-11-06T16:00:00	3	Temperatura mínima	13.4
66564	7	Sololá	701	Sololá	3	Barraneche	12	Diciembre	2023-12-13T00:00:00	2024-11-06T16:00:00	5	Humedad	66
66565	7	Sololá	701	Sololá	3	Barraneche	12	Diciembre	2023-12-13T00:00:00	2024-11-06T16:00:00	6	Velocidad del viento	17.7
66566	7	Sololá	701	Sololá	3	Barraneche	12	Diciembre	2023-12-13T00:00:00	2024-11-06T16:00:00	7	Dirección del viento	17.7
66567	7	Sololá	701	Sololá	3	Barraneche	12	Diciembre	2023-12-13T00:00:00	2024-11-06T16:00:00	1	Precipitación	0
66568	7	Sololá	701	Sololá	3	Barraneche	12	Diciembre	2023-12-13T00:00:00	2024-11-06T16:00:00	8	Radiación solar	118
66569	7	Sololá	701	Sololá	3	Barraneche	12	Diciembre	2023-12-13T00:00:00	2024-11-06T17:00:00	2	Temperatura media	13.6
66570	7	Sololá	701	Sololá	3	Barraneche	12	Diciembre	2023-12-13T00:00:00	2024-11-06T17:00:00	4	Temperatura máxima	14.1
66571	7	Sololá	701	Sololá	3	Barraneche	12	Diciembre	2023-12-13T00:00:00	2024-11-06T17:00:00	3	Temperatura mínima	13.2
66572	7	Sololá	701	Sololá	3	Barraneche	12	Diciembre	2023-12-13T00:00:00	2024-11-06T17:00:00	5	Humedad	62
66573	7	Sololá	701	Sololá	3	Barraneche	12	Diciembre	2023-12-13T00:00:00	2024-11-06T17:00:00	6	Velocidad del viento	22.5
66574	7	Sololá	701	Sololá	3	Barraneche	12	Diciembre	2023-12-13T00:00:00	2024-11-06T17:00:00	7	Dirección del viento	22.53
66575	7	Sololá	701	Sololá	3	Barraneche	12	Diciembre	2023-12-13T00:00:00	2024-11-06T17:00:00	1	Precipitación	0
66576	7	Sololá	701	Sololá	3	Barraneche	12	Diciembre	2023-12-13T00:00:00	2024-11-06T17:00:00	8	Radiación solar	113
66577	7	Sololá	701	Sololá	3	Barraneche	12	Diciembre	2023-12-13T00:00:00	2024-11-06T18:00:00	2	Temperatura media	12.7
66578	7	Sololá	701	Sololá	3	Barraneche	12	Diciembre	2023-12-13T00:00:00	2024-11-06T18:00:00	4	Temperatura máxima	13.6
66579	7	Sololá	701	Sololá	3	Barraneche	12	Diciembre	2023-12-13T00:00:00	2024-11-06T18:00:00	3	Temperatura mínima	12.6
66580	7	Sololá	701	Sololá	3	Barraneche	12	Diciembre	2023-12-13T00:00:00	2024-11-06T18:00:00	5	Humedad	67
66581	7	Sololá	701	Sololá	3	Barraneche	12	Diciembre	2023-12-13T00:00:00	2024-11-06T18:00:00	6	Velocidad del viento	24.1
66582	7	Sololá	701	Sololá	3	Barraneche	12	Diciembre	2023-12-13T00:00:00	2024-11-06T18:00:00	7	Dirección del viento	24.14
66583	7	Sololá	701	Sololá	3	Barraneche	12	Diciembre	2023-12-13T00:00:00	2024-11-06T18:00:00	1	Precipitación	0
66584	7	Sololá	701	Sololá	3	Barraneche	12	Diciembre	2023-12-13T00:00:00	2024-11-06T18:00:00	8	Radiación solar	18
66585	7	Sololá	701	Sololá	3	Barraneche	12	Diciembre	2023-12-13T00:00:00	2024-11-06T19:00:00	2	Temperatura media	13.2
66586	7	Sololá	701	Sololá	3	Barraneche	12	Diciembre	2023-12-13T00:00:00	2024-11-06T19:00:00	4	Temperatura máxima	13.3
66587	7	Sololá	701	Sololá	3	Barraneche	12	Diciembre	2023-12-13T00:00:00	2024-11-06T19:00:00	3	Temperatura mínima	12.6
66588	7	Sololá	701	Sololá	3	Barraneche	12	Diciembre	2023-12-13T00:00:00	2024-11-06T19:00:00	5	Humedad	65
66589	7	Sololá	701	Sololá	3	Barraneche	12	Diciembre	2023-12-13T00:00:00	2024-11-06T19:00:00	6	Velocidad del viento	32.2
66590	7	Sololá	701	Sololá	3	Barraneche	12	Diciembre	2023-12-13T00:00:00	2024-11-06T19:00:00	7	Dirección del viento	32.19
66591	7	Sololá	701	Sololá	3	Barraneche	12	Diciembre	2023-12-13T00:00:00	2024-11-06T19:00:00	1	Precipitación	0
66592	7	Sololá	701	Sololá	3	Barraneche	12	Diciembre	2023-12-13T00:00:00	2024-11-06T19:00:00	8	Radiación solar	0
66593	7	Sololá	701	Sololá	3	Barraneche	12	Diciembre	2023-12-13T00:00:00	2024-11-06T20:00:00	2	Temperatura media	12.9
66594	7	Sololá	701	Sololá	3	Barraneche	12	Diciembre	2023-12-13T00:00:00	2024-11-06T20:00:00	4	Temperatura máxima	13.8
66595	7	Sololá	701	Sololá	3	Barraneche	12	Diciembre	2023-12-13T00:00:00	2024-11-06T20:00:00	3	Temperatura mínima	12.9
66596	7	Sololá	701	Sololá	3	Barraneche	12	Diciembre	2023-12-13T00:00:00	2024-11-06T20:00:00	5	Humedad	68
66597	7	Sololá	701	Sololá	3	Barraneche	12	Diciembre	2023-12-13T00:00:00	2024-11-06T20:00:00	6	Velocidad del viento	35.4
66598	7	Sololá	701	Sololá	3	Barraneche	12	Diciembre	2023-12-13T00:00:00	2024-11-06T20:00:00	7	Dirección del viento	35.41
66599	7	Sololá	701	Sololá	3	Barraneche	12	Diciembre	2023-12-13T00:00:00	2024-11-06T20:00:00	1	Precipitación	0
66600	7	Sololá	701	Sololá	3	Barraneche	12	Diciembre	2023-12-13T00:00:00	2024-11-06T20:00:00	8	Radiación solar	0
66601	7	Sololá	701	Sololá	3	Barraneche	12	Diciembre	2023-12-13T00:00:00	2024-11-06T21:00:00	2	Temperatura media	13.2
66602	7	Sololá	701	Sololá	3	Barraneche	12	Diciembre	2023-12-13T00:00:00	2024-11-06T21:00:00	4	Temperatura máxima	13.4
66603	7	Sololá	701	Sololá	3	Barraneche	12	Diciembre	2023-12-13T00:00:00	2024-11-06T21:00:00	3	Temperatura mínima	12.9
66604	7	Sololá	701	Sololá	3	Barraneche	12	Diciembre	2023-12-13T00:00:00	2024-11-06T21:00:00	5	Humedad	67
66605	7	Sololá	701	Sololá	3	Barraneche	12	Diciembre	2023-12-13T00:00:00	2024-11-06T21:00:00	6	Velocidad del viento	33.8
66606	7	Sololá	701	Sololá	3	Barraneche	12	Diciembre	2023-12-13T00:00:00	2024-11-06T21:00:00	7	Dirección del viento	33.8
66607	7	Sololá	701	Sololá	3	Barraneche	12	Diciembre	2023-12-13T00:00:00	2024-11-06T21:00:00	1	Precipitación	0
66608	7	Sololá	701	Sololá	3	Barraneche	12	Diciembre	2023-12-13T00:00:00	2024-11-06T21:00:00	8	Radiación solar	0
66609	7	Sololá	701	Sololá	3	Barraneche	12	Diciembre	2023-12-13T00:00:00	2024-11-06T22:00:00	2	Temperatura media	13.2
66610	7	Sololá	701	Sololá	3	Barraneche	12	Diciembre	2023-12-13T00:00:00	2024-11-06T22:00:00	4	Temperatura máxima	13.7
66611	7	Sololá	701	Sololá	3	Barraneche	12	Diciembre	2023-12-13T00:00:00	2024-11-06T22:00:00	3	Temperatura mínima	13.1
66612	7	Sololá	701	Sololá	3	Barraneche	12	Diciembre	2023-12-13T00:00:00	2024-11-06T22:00:00	5	Humedad	67
66613	7	Sololá	701	Sololá	3	Barraneche	12	Diciembre	2023-12-13T00:00:00	2024-11-06T22:00:00	6	Velocidad del viento	32.2
66614	7	Sololá	701	Sololá	3	Barraneche	12	Diciembre	2023-12-13T00:00:00	2024-11-06T22:00:00	7	Dirección del viento	32.19
66615	7	Sololá	701	Sololá	3	Barraneche	12	Diciembre	2023-12-13T00:00:00	2024-11-06T22:00:00	1	Precipitación	0
66616	7	Sololá	701	Sololá	3	Barraneche	12	Diciembre	2023-12-13T00:00:00	2024-11-06T22:00:00	8	Radiación solar	0
66617	7	Sololá	701	Sololá	3	Barraneche	12	Diciembre	2023-12-13T00:00:00	2024-11-06T23:00:00	2	Temperatura media	13.1
66618	7	Sololá	701	Sololá	3	Barraneche	12	Diciembre	2023-12-13T00:00:00	2024-11-06T23:00:00	4	Temperatura máxima	13.3
66619	7	Sololá	701	Sololá	3	Barraneche	12	Diciembre	2023-12-13T00:00:00	2024-11-06T23:00:00	3	Temperatura mínima	12.8
66620	7	Sololá	701	Sololá	3	Barraneche	12	Diciembre	2023-12-13T00:00:00	2024-11-06T23:00:00	5	Humedad	68
66621	7	Sololá	701	Sololá	3	Barraneche	12	Diciembre	2023-12-13T00:00:00	2024-11-06T23:00:00	6	Velocidad del viento	30.6
66622	7	Sololá	701	Sololá	3	Barraneche	12	Diciembre	2023-12-13T00:00:00	2024-11-06T23:00:00	7	Dirección del viento	30.58
66623	7	Sololá	701	Sololá	3	Barraneche	12	Diciembre	2023-12-13T00:00:00	2024-11-06T23:00:00	1	Precipitación	0
66624	7	Sololá	701	Sololá	3	Barraneche	12	Diciembre	2023-12-13T00:00:00	2024-11-06T23:00:00	8	Radiación solar	0
66625	7	Sololá	701	Sololá	3	Barraneche	12	Diciembre	2023-12-14T00:00:00	2024-11-06T00:00:00	2	Temperatura media	13.2
66626	7	Sololá	701	Sololá	3	Barraneche	12	Diciembre	2023-12-14T00:00:00	2024-11-06T00:00:00	4	Temperatura máxima	13.3
66627	7	Sololá	701	Sololá	3	Barraneche	12	Diciembre	2023-12-14T00:00:00	2024-11-06T00:00:00	3	Temperatura mínima	12.9
66628	7	Sololá	701	Sololá	3	Barraneche	12	Diciembre	2023-12-14T00:00:00	2024-11-06T00:00:00	5	Humedad	67
66629	7	Sololá	701	Sololá	3	Barraneche	12	Diciembre	2023-12-14T00:00:00	2024-11-06T00:00:00	6	Velocidad del viento	30.6
66630	7	Sololá	701	Sololá	3	Barraneche	12	Diciembre	2023-12-14T00:00:00	2024-11-06T00:00:00	7	Dirección del viento	30.58
66631	7	Sololá	701	Sololá	3	Barraneche	12	Diciembre	2023-12-14T00:00:00	2024-11-06T00:00:00	1	Precipitación	0
66632	7	Sololá	701	Sololá	3	Barraneche	12	Diciembre	2023-12-14T00:00:00	2024-11-06T00:00:00	8	Radiación solar	0
66633	7	Sololá	701	Sololá	3	Barraneche	12	Diciembre	2023-12-14T00:00:00	2024-11-06T01:00:00	2	Temperatura media	13.3
66634	7	Sololá	701	Sololá	3	Barraneche	12	Diciembre	2023-12-14T00:00:00	2024-11-06T01:00:00	4	Temperatura máxima	13.6
66635	7	Sololá	701	Sololá	3	Barraneche	12	Diciembre	2023-12-14T00:00:00	2024-11-06T01:00:00	3	Temperatura mínima	13.2
66636	7	Sololá	701	Sololá	3	Barraneche	12	Diciembre	2023-12-14T00:00:00	2024-11-06T01:00:00	5	Humedad	66
66637	7	Sololá	701	Sololá	3	Barraneche	12	Diciembre	2023-12-14T00:00:00	2024-11-06T01:00:00	6	Velocidad del viento	30.6
66638	7	Sololá	701	Sololá	3	Barraneche	12	Diciembre	2023-12-14T00:00:00	2024-11-06T01:00:00	7	Dirección del viento	30.58
66639	7	Sololá	701	Sololá	3	Barraneche	12	Diciembre	2023-12-14T00:00:00	2024-11-06T01:00:00	1	Precipitación	0
66640	7	Sololá	701	Sololá	3	Barraneche	12	Diciembre	2023-12-14T00:00:00	2024-11-06T01:00:00	8	Radiación solar	0
66641	7	Sololá	701	Sololá	3	Barraneche	12	Diciembre	2023-12-14T00:00:00	2024-11-06T02:00:00	2	Temperatura media	13.4
66642	7	Sololá	701	Sololá	3	Barraneche	12	Diciembre	2023-12-14T00:00:00	2024-11-06T02:00:00	4	Temperatura máxima	13.4
66643	7	Sololá	701	Sololá	3	Barraneche	12	Diciembre	2023-12-14T00:00:00	2024-11-06T02:00:00	3	Temperatura mínima	13.1
66644	7	Sololá	701	Sololá	3	Barraneche	12	Diciembre	2023-12-14T00:00:00	2024-11-06T02:00:00	5	Humedad	66
66645	7	Sololá	701	Sololá	3	Barraneche	12	Diciembre	2023-12-14T00:00:00	2024-11-06T02:00:00	6	Velocidad del viento	30.6
66646	7	Sololá	701	Sololá	3	Barraneche	12	Diciembre	2023-12-14T00:00:00	2024-11-06T02:00:00	7	Dirección del viento	30.58
66647	7	Sololá	701	Sololá	3	Barraneche	12	Diciembre	2023-12-14T00:00:00	2024-11-06T02:00:00	1	Precipitación	0
66648	7	Sololá	701	Sololá	3	Barraneche	12	Diciembre	2023-12-14T00:00:00	2024-11-06T02:00:00	8	Radiación solar	0
66649	7	Sololá	701	Sololá	3	Barraneche	12	Diciembre	2023-12-14T00:00:00	2024-11-06T03:00:00	2	Temperatura media	13
66650	7	Sololá	701	Sololá	3	Barraneche	12	Diciembre	2023-12-14T00:00:00	2024-11-06T03:00:00	4	Temperatura máxima	13.4
66651	7	Sololá	701	Sololá	3	Barraneche	12	Diciembre	2023-12-14T00:00:00	2024-11-06T03:00:00	3	Temperatura mínima	12.5
66652	7	Sololá	701	Sololá	3	Barraneche	12	Diciembre	2023-12-14T00:00:00	2024-11-06T03:00:00	5	Humedad	67
66653	7	Sololá	701	Sololá	3	Barraneche	12	Diciembre	2023-12-14T00:00:00	2024-11-06T03:00:00	6	Velocidad del viento	29
66654	7	Sololá	701	Sololá	3	Barraneche	12	Diciembre	2023-12-14T00:00:00	2024-11-06T03:00:00	7	Dirección del viento	28.97
66655	7	Sololá	701	Sololá	3	Barraneche	12	Diciembre	2023-12-14T00:00:00	2024-11-06T03:00:00	1	Precipitación	0
66656	7	Sololá	701	Sololá	3	Barraneche	12	Diciembre	2023-12-14T00:00:00	2024-11-06T03:00:00	8	Radiación solar	0
66657	7	Sololá	701	Sololá	3	Barraneche	12	Diciembre	2023-12-14T00:00:00	2024-11-06T04:00:00	2	Temperatura media	13.2
66658	7	Sololá	701	Sololá	3	Barraneche	12	Diciembre	2023-12-14T00:00:00	2024-11-06T04:00:00	4	Temperatura máxima	13.2
66659	7	Sololá	701	Sololá	3	Barraneche	12	Diciembre	2023-12-14T00:00:00	2024-11-06T04:00:00	3	Temperatura mínima	12.9
66660	7	Sololá	701	Sololá	3	Barraneche	12	Diciembre	2023-12-14T00:00:00	2024-11-06T04:00:00	5	Humedad	64
66661	7	Sololá	701	Sololá	3	Barraneche	12	Diciembre	2023-12-14T00:00:00	2024-11-06T04:00:00	6	Velocidad del viento	27.4
66662	7	Sololá	701	Sololá	3	Barraneche	12	Diciembre	2023-12-14T00:00:00	2024-11-06T04:00:00	7	Dirección del viento	27.36
66663	7	Sololá	701	Sololá	3	Barraneche	12	Diciembre	2023-12-14T00:00:00	2024-11-06T04:00:00	1	Precipitación	0
66664	7	Sololá	701	Sololá	3	Barraneche	12	Diciembre	2023-12-14T00:00:00	2024-11-06T04:00:00	8	Radiación solar	0
66665	7	Sololá	701	Sololá	3	Barraneche	12	Diciembre	2023-12-14T00:00:00	2024-11-06T05:00:00	2	Temperatura media	13
66666	7	Sololá	701	Sololá	3	Barraneche	12	Diciembre	2023-12-14T00:00:00	2024-11-06T05:00:00	4	Temperatura máxima	13.3
66667	7	Sololá	701	Sololá	3	Barraneche	12	Diciembre	2023-12-14T00:00:00	2024-11-06T05:00:00	3	Temperatura mínima	12.9
66668	7	Sololá	701	Sololá	3	Barraneche	12	Diciembre	2023-12-14T00:00:00	2024-11-06T05:00:00	5	Humedad	65
66669	7	Sololá	701	Sololá	3	Barraneche	12	Diciembre	2023-12-14T00:00:00	2024-11-06T05:00:00	6	Velocidad del viento	25.7
66670	7	Sololá	701	Sololá	3	Barraneche	12	Diciembre	2023-12-14T00:00:00	2024-11-06T05:00:00	7	Dirección del viento	25.75
66671	7	Sololá	701	Sololá	3	Barraneche	12	Diciembre	2023-12-14T00:00:00	2024-11-06T05:00:00	1	Precipitación	0
66672	7	Sololá	701	Sololá	3	Barraneche	12	Diciembre	2023-12-14T00:00:00	2024-11-06T05:00:00	8	Radiación solar	0
66673	7	Sololá	701	Sololá	3	Barraneche	12	Diciembre	2023-12-14T00:00:00	2024-11-06T06:00:00	2	Temperatura media	13.5
66674	7	Sololá	701	Sololá	3	Barraneche	12	Diciembre	2023-12-14T00:00:00	2024-11-06T06:00:00	4	Temperatura máxima	13.9
66675	7	Sololá	701	Sololá	3	Barraneche	12	Diciembre	2023-12-14T00:00:00	2024-11-06T06:00:00	3	Temperatura mínima	13
66676	7	Sololá	701	Sololá	3	Barraneche	12	Diciembre	2023-12-14T00:00:00	2024-11-06T06:00:00	5	Humedad	62
66677	7	Sololá	701	Sololá	3	Barraneche	12	Diciembre	2023-12-14T00:00:00	2024-11-06T06:00:00	6	Velocidad del viento	25.7
66678	7	Sololá	701	Sololá	3	Barraneche	12	Diciembre	2023-12-14T00:00:00	2024-11-06T06:00:00	7	Dirección del viento	25.75
66679	7	Sololá	701	Sololá	3	Barraneche	12	Diciembre	2023-12-14T00:00:00	2024-11-06T06:00:00	1	Precipitación	0
66680	7	Sololá	701	Sololá	3	Barraneche	12	Diciembre	2023-12-14T00:00:00	2024-11-06T06:00:00	8	Radiación solar	0
66681	7	Sololá	701	Sololá	3	Barraneche	12	Diciembre	2023-12-14T00:00:00	2024-11-06T07:00:00	2	Temperatura media	13.6
66682	7	Sololá	701	Sololá	3	Barraneche	12	Diciembre	2023-12-14T00:00:00	2024-11-06T07:00:00	4	Temperatura máxima	13.6
66683	7	Sololá	701	Sololá	3	Barraneche	12	Diciembre	2023-12-14T00:00:00	2024-11-06T07:00:00	3	Temperatura mínima	13.2
66684	7	Sololá	701	Sololá	3	Barraneche	12	Diciembre	2023-12-14T00:00:00	2024-11-06T07:00:00	5	Humedad	63
66685	7	Sololá	701	Sololá	3	Barraneche	12	Diciembre	2023-12-14T00:00:00	2024-11-06T07:00:00	6	Velocidad del viento	25.7
66686	7	Sololá	701	Sololá	3	Barraneche	12	Diciembre	2023-12-14T00:00:00	2024-11-06T07:00:00	7	Dirección del viento	25.75
66687	7	Sololá	701	Sololá	3	Barraneche	12	Diciembre	2023-12-14T00:00:00	2024-11-06T07:00:00	1	Precipitación	0
66688	7	Sololá	701	Sololá	3	Barraneche	12	Diciembre	2023-12-14T00:00:00	2024-11-06T07:00:00	8	Radiación solar	10
66689	7	Sololá	701	Sololá	3	Barraneche	12	Diciembre	2023-12-14T00:00:00	2024-11-06T08:00:00	2	Temperatura media	14.6
66690	7	Sololá	701	Sololá	3	Barraneche	12	Diciembre	2023-12-14T00:00:00	2024-11-06T08:00:00	4	Temperatura máxima	14.7
66691	7	Sololá	701	Sololá	3	Barraneche	12	Diciembre	2023-12-14T00:00:00	2024-11-06T08:00:00	3	Temperatura mínima	13.6
66692	7	Sololá	701	Sololá	3	Barraneche	12	Diciembre	2023-12-14T00:00:00	2024-11-06T08:00:00	5	Humedad	61
66693	7	Sololá	701	Sololá	3	Barraneche	12	Diciembre	2023-12-14T00:00:00	2024-11-06T08:00:00	6	Velocidad del viento	27.4
66694	7	Sololá	701	Sololá	3	Barraneche	12	Diciembre	2023-12-14T00:00:00	2024-11-06T08:00:00	7	Dirección del viento	27.36
66695	7	Sololá	701	Sololá	3	Barraneche	12	Diciembre	2023-12-14T00:00:00	2024-11-06T08:00:00	1	Precipitación	0
66696	7	Sololá	701	Sololá	3	Barraneche	12	Diciembre	2023-12-14T00:00:00	2024-11-06T08:00:00	8	Radiación solar	203
66697	7	Sololá	701	Sololá	3	Barraneche	12	Diciembre	2023-12-14T00:00:00	2024-11-06T09:00:00	2	Temperatura media	16.3
66698	7	Sololá	701	Sololá	3	Barraneche	12	Diciembre	2023-12-14T00:00:00	2024-11-06T09:00:00	4	Temperatura máxima	16.4
66699	7	Sololá	701	Sololá	3	Barraneche	12	Diciembre	2023-12-14T00:00:00	2024-11-06T09:00:00	3	Temperatura mínima	14.7
66700	7	Sololá	701	Sololá	3	Barraneche	12	Diciembre	2023-12-14T00:00:00	2024-11-06T09:00:00	5	Humedad	57
66701	7	Sololá	701	Sololá	3	Barraneche	12	Diciembre	2023-12-14T00:00:00	2024-11-06T09:00:00	6	Velocidad del viento	27.4
66702	7	Sololá	701	Sololá	3	Barraneche	12	Diciembre	2023-12-14T00:00:00	2024-11-06T09:00:00	7	Dirección del viento	27.36
66703	7	Sololá	701	Sololá	3	Barraneche	12	Diciembre	2023-12-14T00:00:00	2024-11-06T09:00:00	1	Precipitación	0
66704	7	Sololá	701	Sololá	3	Barraneche	12	Diciembre	2023-12-14T00:00:00	2024-11-06T09:00:00	8	Radiación solar	454
66705	7	Sololá	701	Sololá	3	Barraneche	12	Diciembre	2023-12-14T00:00:00	2024-11-06T10:00:00	2	Temperatura media	17.6
66706	7	Sololá	701	Sololá	3	Barraneche	12	Diciembre	2023-12-14T00:00:00	2024-11-06T10:00:00	4	Temperatura máxima	17.7
66707	7	Sololá	701	Sololá	3	Barraneche	12	Diciembre	2023-12-14T00:00:00	2024-11-06T10:00:00	3	Temperatura mínima	15.8
66708	7	Sololá	701	Sololá	3	Barraneche	12	Diciembre	2023-12-14T00:00:00	2024-11-06T10:00:00	5	Humedad	55
66709	7	Sololá	701	Sololá	3	Barraneche	12	Diciembre	2023-12-14T00:00:00	2024-11-06T10:00:00	6	Velocidad del viento	25.7
66710	7	Sololá	701	Sololá	3	Barraneche	12	Diciembre	2023-12-14T00:00:00	2024-11-06T10:00:00	7	Dirección del viento	25.75
66711	7	Sololá	701	Sololá	3	Barraneche	12	Diciembre	2023-12-14T00:00:00	2024-11-06T10:00:00	1	Precipitación	0
66712	7	Sololá	701	Sololá	3	Barraneche	12	Diciembre	2023-12-14T00:00:00	2024-11-06T10:00:00	8	Radiación solar	620
66713	7	Sololá	701	Sololá	3	Barraneche	12	Diciembre	2023-12-14T00:00:00	2024-11-06T11:00:00	2	Temperatura media	17.7
66714	7	Sololá	701	Sololá	3	Barraneche	12	Diciembre	2023-12-14T00:00:00	2024-11-06T11:00:00	4	Temperatura máxima	18.1
66715	7	Sololá	701	Sololá	3	Barraneche	12	Diciembre	2023-12-14T00:00:00	2024-11-06T11:00:00	3	Temperatura mínima	17.2
66716	7	Sololá	701	Sololá	3	Barraneche	12	Diciembre	2023-12-14T00:00:00	2024-11-06T11:00:00	5	Humedad	53
66717	7	Sololá	701	Sololá	3	Barraneche	12	Diciembre	2023-12-14T00:00:00	2024-11-06T11:00:00	6	Velocidad del viento	24.1
66718	7	Sololá	701	Sololá	3	Barraneche	12	Diciembre	2023-12-14T00:00:00	2024-11-06T11:00:00	7	Dirección del viento	24.14
66719	7	Sololá	701	Sololá	3	Barraneche	12	Diciembre	2023-12-14T00:00:00	2024-11-06T11:00:00	1	Precipitación	0
66720	7	Sololá	701	Sololá	3	Barraneche	12	Diciembre	2023-12-14T00:00:00	2024-11-06T11:00:00	8	Radiación solar	768
66721	7	Sololá	701	Sololá	3	Barraneche	12	Diciembre	2023-12-14T00:00:00	2024-11-06T12:00:00	2	Temperatura media	17.7
66722	7	Sololá	701	Sololá	3	Barraneche	12	Diciembre	2023-12-14T00:00:00	2024-11-06T12:00:00	4	Temperatura máxima	17.9
66723	7	Sololá	701	Sololá	3	Barraneche	12	Diciembre	2023-12-14T00:00:00	2024-11-06T12:00:00	3	Temperatura mínima	17.2
66724	7	Sololá	701	Sololá	3	Barraneche	12	Diciembre	2023-12-14T00:00:00	2024-11-06T12:00:00	5	Humedad	55
66725	7	Sololá	701	Sololá	3	Barraneche	12	Diciembre	2023-12-14T00:00:00	2024-11-06T12:00:00	6	Velocidad del viento	25.7
66726	7	Sololá	701	Sololá	3	Barraneche	12	Diciembre	2023-12-14T00:00:00	2024-11-06T12:00:00	7	Dirección del viento	25.75
66727	7	Sololá	701	Sololá	3	Barraneche	12	Diciembre	2023-12-14T00:00:00	2024-11-06T12:00:00	1	Precipitación	0
66728	7	Sololá	701	Sololá	3	Barraneche	12	Diciembre	2023-12-14T00:00:00	2024-11-06T12:00:00	8	Radiación solar	845
66729	7	Sololá	701	Sololá	3	Barraneche	12	Diciembre	2023-12-14T00:00:00	2024-11-06T13:00:00	2	Temperatura media	18.6
66730	7	Sololá	701	Sololá	3	Barraneche	12	Diciembre	2023-12-14T00:00:00	2024-11-06T13:00:00	4	Temperatura máxima	18.9
66731	7	Sololá	701	Sololá	3	Barraneche	12	Diciembre	2023-12-14T00:00:00	2024-11-06T13:00:00	3	Temperatura mínima	17.5
66732	7	Sololá	701	Sololá	3	Barraneche	12	Diciembre	2023-12-14T00:00:00	2024-11-06T13:00:00	5	Humedad	52
66733	7	Sololá	701	Sololá	3	Barraneche	12	Diciembre	2023-12-14T00:00:00	2024-11-06T13:00:00	6	Velocidad del viento	20.9
66734	7	Sololá	701	Sololá	3	Barraneche	12	Diciembre	2023-12-14T00:00:00	2024-11-06T13:00:00	7	Dirección del viento	20.92
66735	7	Sololá	701	Sololá	3	Barraneche	12	Diciembre	2023-12-14T00:00:00	2024-11-06T13:00:00	1	Precipitación	0
66736	7	Sololá	701	Sololá	3	Barraneche	12	Diciembre	2023-12-14T00:00:00	2024-11-06T13:00:00	8	Radiación solar	843
66737	7	Sololá	701	Sololá	3	Barraneche	12	Diciembre	2023-12-14T00:00:00	2024-11-06T14:00:00	2	Temperatura media	18.2
66738	7	Sololá	701	Sololá	3	Barraneche	12	Diciembre	2023-12-14T00:00:00	2024-11-06T14:00:00	4	Temperatura máxima	18.7
66739	7	Sololá	701	Sololá	3	Barraneche	12	Diciembre	2023-12-14T00:00:00	2024-11-06T14:00:00	3	Temperatura mínima	17.9
66740	7	Sololá	701	Sololá	3	Barraneche	12	Diciembre	2023-12-14T00:00:00	2024-11-06T14:00:00	5	Humedad	54
66741	7	Sololá	701	Sololá	3	Barraneche	12	Diciembre	2023-12-14T00:00:00	2024-11-06T14:00:00	6	Velocidad del viento	19.3
66742	7	Sololá	701	Sololá	3	Barraneche	12	Diciembre	2023-12-14T00:00:00	2024-11-06T14:00:00	7	Dirección del viento	19.31
66743	7	Sololá	701	Sololá	3	Barraneche	12	Diciembre	2023-12-14T00:00:00	2024-11-06T14:00:00	1	Precipitación	0
66744	7	Sololá	701	Sololá	3	Barraneche	12	Diciembre	2023-12-14T00:00:00	2024-11-06T14:00:00	8	Radiación solar	765
66745	7	Sololá	701	Sololá	3	Barraneche	12	Diciembre	2023-12-14T00:00:00	2024-11-06T15:00:00	2	Temperatura media	17.6
66746	7	Sololá	701	Sololá	3	Barraneche	12	Diciembre	2023-12-14T00:00:00	2024-11-06T15:00:00	4	Temperatura máxima	18.9
66747	7	Sololá	701	Sololá	3	Barraneche	12	Diciembre	2023-12-14T00:00:00	2024-11-06T15:00:00	3	Temperatura mínima	17.6
66748	7	Sololá	701	Sololá	3	Barraneche	12	Diciembre	2023-12-14T00:00:00	2024-11-06T15:00:00	5	Humedad	56
66749	7	Sololá	701	Sololá	3	Barraneche	12	Diciembre	2023-12-14T00:00:00	2024-11-06T15:00:00	6	Velocidad del viento	17.7
66750	7	Sololá	701	Sololá	3	Barraneche	12	Diciembre	2023-12-14T00:00:00	2024-11-06T15:00:00	7	Dirección del viento	17.7
66751	7	Sololá	701	Sololá	3	Barraneche	12	Diciembre	2023-12-14T00:00:00	2024-11-06T15:00:00	1	Precipitación	0
66752	7	Sololá	701	Sololá	3	Barraneche	12	Diciembre	2023-12-14T00:00:00	2024-11-06T15:00:00	8	Radiación solar	622
66753	7	Sololá	701	Sololá	3	Barraneche	12	Diciembre	2023-12-14T00:00:00	2024-11-06T16:00:00	2	Temperatura media	17.1
66754	7	Sololá	701	Sololá	3	Barraneche	12	Diciembre	2023-12-14T00:00:00	2024-11-06T16:00:00	4	Temperatura máxima	17.7
66755	7	Sololá	701	Sololá	3	Barraneche	12	Diciembre	2023-12-14T00:00:00	2024-11-06T16:00:00	3	Temperatura mínima	17
66756	7	Sololá	701	Sololá	3	Barraneche	12	Diciembre	2023-12-14T00:00:00	2024-11-06T16:00:00	5	Humedad	56
66757	7	Sololá	701	Sololá	3	Barraneche	12	Diciembre	2023-12-14T00:00:00	2024-11-06T16:00:00	6	Velocidad del viento	17.7
66758	7	Sololá	701	Sololá	3	Barraneche	12	Diciembre	2023-12-14T00:00:00	2024-11-06T16:00:00	7	Dirección del viento	17.7
66759	7	Sololá	701	Sololá	3	Barraneche	12	Diciembre	2023-12-14T00:00:00	2024-11-06T16:00:00	1	Precipitación	0
66760	7	Sololá	701	Sololá	3	Barraneche	12	Diciembre	2023-12-14T00:00:00	2024-11-06T16:00:00	8	Radiación solar	423
66761	7	Sololá	701	Sololá	3	Barraneche	12	Diciembre	2023-12-14T00:00:00	2024-11-06T17:00:00	2	Temperatura media	15.9
66762	7	Sololá	701	Sololá	3	Barraneche	12	Diciembre	2023-12-14T00:00:00	2024-11-06T17:00:00	4	Temperatura máxima	17.1
66763	7	Sololá	701	Sololá	3	Barraneche	12	Diciembre	2023-12-14T00:00:00	2024-11-06T17:00:00	3	Temperatura mínima	15.9
66764	7	Sololá	701	Sololá	3	Barraneche	12	Diciembre	2023-12-14T00:00:00	2024-11-06T17:00:00	5	Humedad	59
66765	7	Sololá	701	Sololá	3	Barraneche	12	Diciembre	2023-12-14T00:00:00	2024-11-06T17:00:00	6	Velocidad del viento	16.1
66766	7	Sololá	701	Sololá	3	Barraneche	12	Diciembre	2023-12-14T00:00:00	2024-11-06T17:00:00	7	Dirección del viento	16.09
66767	7	Sololá	701	Sololá	3	Barraneche	12	Diciembre	2023-12-14T00:00:00	2024-11-06T17:00:00	1	Precipitación	0
66768	7	Sololá	701	Sololá	3	Barraneche	12	Diciembre	2023-12-14T00:00:00	2024-11-06T17:00:00	8	Radiación solar	116
66769	7	Sololá	701	Sololá	3	Barraneche	12	Diciembre	2023-12-14T00:00:00	2024-11-06T18:00:00	2	Temperatura media	14.3
66770	7	Sololá	701	Sololá	3	Barraneche	12	Diciembre	2023-12-14T00:00:00	2024-11-06T18:00:00	4	Temperatura máxima	15.9
66771	7	Sololá	701	Sololá	3	Barraneche	12	Diciembre	2023-12-14T00:00:00	2024-11-06T18:00:00	3	Temperatura mínima	14.3
66772	7	Sololá	701	Sololá	3	Barraneche	12	Diciembre	2023-12-14T00:00:00	2024-11-06T18:00:00	5	Humedad	63
66773	7	Sololá	701	Sololá	3	Barraneche	12	Diciembre	2023-12-14T00:00:00	2024-11-06T18:00:00	6	Velocidad del viento	14.5
66774	7	Sololá	701	Sololá	3	Barraneche	12	Diciembre	2023-12-14T00:00:00	2024-11-06T18:00:00	7	Dirección del viento	14.48
66775	7	Sololá	701	Sololá	3	Barraneche	12	Diciembre	2023-12-14T00:00:00	2024-11-06T18:00:00	1	Precipitación	0
66776	7	Sololá	701	Sololá	3	Barraneche	12	Diciembre	2023-12-14T00:00:00	2024-11-06T18:00:00	8	Radiación solar	12
66777	7	Sololá	701	Sololá	3	Barraneche	12	Diciembre	2023-12-14T00:00:00	2024-11-06T19:00:00	2	Temperatura media	14.2
66778	7	Sololá	701	Sololá	3	Barraneche	12	Diciembre	2023-12-14T00:00:00	2024-11-06T19:00:00	4	Temperatura máxima	14.3
66779	7	Sololá	701	Sololá	3	Barraneche	12	Diciembre	2023-12-14T00:00:00	2024-11-06T19:00:00	3	Temperatura mínima	13.9
66780	7	Sololá	701	Sololá	3	Barraneche	12	Diciembre	2023-12-14T00:00:00	2024-11-06T19:00:00	5	Humedad	61
66781	7	Sololá	701	Sololá	3	Barraneche	12	Diciembre	2023-12-14T00:00:00	2024-11-06T19:00:00	6	Velocidad del viento	12.9
66782	7	Sololá	701	Sololá	3	Barraneche	12	Diciembre	2023-12-14T00:00:00	2024-11-06T19:00:00	7	Dirección del viento	12.87
66783	7	Sololá	701	Sololá	3	Barraneche	12	Diciembre	2023-12-14T00:00:00	2024-11-06T19:00:00	1	Precipitación	0
66784	7	Sololá	701	Sololá	3	Barraneche	12	Diciembre	2023-12-14T00:00:00	2024-11-06T19:00:00	8	Radiación solar	0
66785	7	Sololá	701	Sololá	3	Barraneche	12	Diciembre	2023-12-14T00:00:00	2024-11-06T20:00:00	2	Temperatura media	14.1
66786	7	Sololá	701	Sololá	3	Barraneche	12	Diciembre	2023-12-14T00:00:00	2024-11-06T20:00:00	4	Temperatura máxima	14.3
66787	7	Sololá	701	Sololá	3	Barraneche	12	Diciembre	2023-12-14T00:00:00	2024-11-06T20:00:00	3	Temperatura mínima	13.6
66788	7	Sololá	701	Sololá	3	Barraneche	12	Diciembre	2023-12-14T00:00:00	2024-11-06T20:00:00	5	Humedad	60
66789	7	Sololá	701	Sololá	3	Barraneche	12	Diciembre	2023-12-14T00:00:00	2024-11-06T20:00:00	6	Velocidad del viento	4.8
66790	7	Sololá	701	Sololá	3	Barraneche	12	Diciembre	2023-12-14T00:00:00	2024-11-06T20:00:00	7	Dirección del viento	4.83
66791	7	Sololá	701	Sololá	3	Barraneche	12	Diciembre	2023-12-14T00:00:00	2024-11-06T20:00:00	1	Precipitación	0
66792	7	Sololá	701	Sololá	3	Barraneche	12	Diciembre	2023-12-14T00:00:00	2024-11-06T20:00:00	8	Radiación solar	0
66793	7	Sololá	701	Sololá	3	Barraneche	12	Diciembre	2023-12-14T00:00:00	2024-11-06T21:00:00	2	Temperatura media	13.9
66794	7	Sololá	701	Sololá	3	Barraneche	12	Diciembre	2023-12-14T00:00:00	2024-11-06T21:00:00	4	Temperatura máxima	14.4
66795	7	Sololá	701	Sololá	3	Barraneche	12	Diciembre	2023-12-14T00:00:00	2024-11-06T21:00:00	3	Temperatura mínima	13.9
66796	7	Sololá	701	Sololá	3	Barraneche	12	Diciembre	2023-12-14T00:00:00	2024-11-06T21:00:00	5	Humedad	61
66797	7	Sololá	701	Sololá	3	Barraneche	12	Diciembre	2023-12-14T00:00:00	2024-11-06T21:00:00	6	Velocidad del viento	11.3
66798	7	Sololá	701	Sololá	3	Barraneche	12	Diciembre	2023-12-14T00:00:00	2024-11-06T21:00:00	7	Dirección del viento	11.27
66799	7	Sololá	701	Sololá	3	Barraneche	12	Diciembre	2023-12-14T00:00:00	2024-11-06T21:00:00	1	Precipitación	0
66800	7	Sololá	701	Sololá	3	Barraneche	12	Diciembre	2023-12-14T00:00:00	2024-11-06T21:00:00	8	Radiación solar	0
66801	7	Sololá	701	Sololá	3	Barraneche	12	Diciembre	2023-12-14T00:00:00	2024-11-06T22:00:00	2	Temperatura media	12.9
66802	7	Sololá	701	Sololá	3	Barraneche	12	Diciembre	2023-12-14T00:00:00	2024-11-06T22:00:00	4	Temperatura máxima	13.9
66803	7	Sololá	701	Sololá	3	Barraneche	12	Diciembre	2023-12-14T00:00:00	2024-11-06T22:00:00	3	Temperatura mínima	12.9
66804	7	Sololá	701	Sololá	3	Barraneche	12	Diciembre	2023-12-14T00:00:00	2024-11-06T22:00:00	5	Humedad	63
66805	7	Sololá	701	Sololá	3	Barraneche	12	Diciembre	2023-12-14T00:00:00	2024-11-06T22:00:00	6	Velocidad del viento	4.8
66806	7	Sololá	701	Sololá	3	Barraneche	12	Diciembre	2023-12-14T00:00:00	2024-11-06T22:00:00	7	Dirección del viento	4.83
66807	7	Sololá	701	Sololá	3	Barraneche	12	Diciembre	2023-12-14T00:00:00	2024-11-06T22:00:00	1	Precipitación	0
66808	7	Sololá	701	Sololá	3	Barraneche	12	Diciembre	2023-12-14T00:00:00	2024-11-06T22:00:00	8	Radiación solar	0
66809	7	Sololá	701	Sololá	3	Barraneche	12	Diciembre	2023-12-14T00:00:00	2024-11-06T23:00:00	2	Temperatura media	11.9
66810	7	Sololá	701	Sololá	3	Barraneche	12	Diciembre	2023-12-14T00:00:00	2024-11-06T23:00:00	4	Temperatura máxima	13.2
66811	7	Sololá	701	Sololá	3	Barraneche	12	Diciembre	2023-12-14T00:00:00	2024-11-06T23:00:00	3	Temperatura mínima	11.7
66812	7	Sololá	701	Sololá	3	Barraneche	12	Diciembre	2023-12-14T00:00:00	2024-11-06T23:00:00	5	Humedad	65
66813	7	Sololá	701	Sololá	3	Barraneche	12	Diciembre	2023-12-14T00:00:00	2024-11-06T23:00:00	6	Velocidad del viento	3.2
66814	7	Sololá	701	Sololá	3	Barraneche	12	Diciembre	2023-12-14T00:00:00	2024-11-06T23:00:00	7	Dirección del viento	3.22
66815	7	Sololá	701	Sololá	3	Barraneche	12	Diciembre	2023-12-14T00:00:00	2024-11-06T23:00:00	1	Precipitación	0
66816	7	Sololá	701	Sololá	3	Barraneche	12	Diciembre	2023-12-14T00:00:00	2024-11-06T23:00:00	8	Radiación solar	0
66817	7	Sololá	701	Sololá	3	Barraneche	12	Diciembre	2023-12-15T00:00:00	2024-11-06T00:00:00	2	Temperatura media	12.5
66818	7	Sololá	701	Sololá	3	Barraneche	12	Diciembre	2023-12-15T00:00:00	2024-11-06T00:00:00	4	Temperatura máxima	12.7
66819	7	Sololá	701	Sololá	3	Barraneche	12	Diciembre	2023-12-15T00:00:00	2024-11-06T00:00:00	3	Temperatura mínima	11.8
66820	7	Sololá	701	Sololá	3	Barraneche	12	Diciembre	2023-12-15T00:00:00	2024-11-06T00:00:00	5	Humedad	56
66821	7	Sololá	701	Sololá	3	Barraneche	12	Diciembre	2023-12-15T00:00:00	2024-11-06T00:00:00	6	Velocidad del viento	3.2
66822	7	Sololá	701	Sololá	3	Barraneche	12	Diciembre	2023-12-15T00:00:00	2024-11-06T00:00:00	7	Dirección del viento	3.22
66823	7	Sololá	701	Sololá	3	Barraneche	12	Diciembre	2023-12-15T00:00:00	2024-11-06T00:00:00	1	Precipitación	0
66824	7	Sololá	701	Sololá	3	Barraneche	12	Diciembre	2023-12-15T00:00:00	2024-11-06T00:00:00	8	Radiación solar	0
66825	7	Sololá	701	Sololá	3	Barraneche	12	Diciembre	2023-12-15T00:00:00	2024-11-06T01:00:00	2	Temperatura media	13.3
66826	7	Sololá	701	Sololá	3	Barraneche	12	Diciembre	2023-12-15T00:00:00	2024-11-06T01:00:00	4	Temperatura máxima	13.8
66827	7	Sololá	701	Sololá	3	Barraneche	12	Diciembre	2023-12-15T00:00:00	2024-11-06T01:00:00	3	Temperatura mínima	12.5
66828	7	Sololá	701	Sololá	3	Barraneche	12	Diciembre	2023-12-15T00:00:00	2024-11-06T01:00:00	5	Humedad	55
66829	7	Sololá	701	Sololá	3	Barraneche	12	Diciembre	2023-12-15T00:00:00	2024-11-06T01:00:00	6	Velocidad del viento	6.4
66830	7	Sololá	701	Sololá	3	Barraneche	12	Diciembre	2023-12-15T00:00:00	2024-11-06T01:00:00	7	Dirección del viento	6.44
66831	7	Sololá	701	Sololá	3	Barraneche	12	Diciembre	2023-12-15T00:00:00	2024-11-06T01:00:00	1	Precipitación	0
66832	7	Sololá	701	Sololá	3	Barraneche	12	Diciembre	2023-12-15T00:00:00	2024-11-06T01:00:00	8	Radiación solar	0
66833	7	Sololá	701	Sololá	3	Barraneche	12	Diciembre	2023-12-15T00:00:00	2024-11-06T02:00:00	2	Temperatura media	13.7
66834	7	Sololá	701	Sololá	3	Barraneche	12	Diciembre	2023-12-15T00:00:00	2024-11-06T02:00:00	4	Temperatura máxima	14
66835	7	Sololá	701	Sololá	3	Barraneche	12	Diciembre	2023-12-15T00:00:00	2024-11-06T02:00:00	3	Temperatura mínima	13
66836	7	Sololá	701	Sololá	3	Barraneche	12	Diciembre	2023-12-15T00:00:00	2024-11-06T02:00:00	5	Humedad	60
66837	7	Sololá	701	Sololá	3	Barraneche	12	Diciembre	2023-12-15T00:00:00	2024-11-06T02:00:00	6	Velocidad del viento	11.3
66838	7	Sololá	701	Sololá	3	Barraneche	12	Diciembre	2023-12-15T00:00:00	2024-11-06T02:00:00	7	Dirección del viento	11.27
66839	7	Sololá	701	Sololá	3	Barraneche	12	Diciembre	2023-12-15T00:00:00	2024-11-06T02:00:00	1	Precipitación	0
66840	7	Sololá	701	Sololá	3	Barraneche	12	Diciembre	2023-12-15T00:00:00	2024-11-06T02:00:00	8	Radiación solar	0
66841	7	Sololá	701	Sololá	3	Barraneche	12	Diciembre	2023-12-15T00:00:00	2024-11-06T03:00:00	2	Temperatura media	11.9
66842	7	Sololá	701	Sololá	3	Barraneche	12	Diciembre	2023-12-15T00:00:00	2024-11-06T03:00:00	4	Temperatura máxima	13.7
66843	7	Sololá	701	Sololá	3	Barraneche	12	Diciembre	2023-12-15T00:00:00	2024-11-06T03:00:00	3	Temperatura mínima	11.6
66844	7	Sololá	701	Sololá	3	Barraneche	12	Diciembre	2023-12-15T00:00:00	2024-11-06T03:00:00	5	Humedad	66
66845	7	Sololá	701	Sololá	3	Barraneche	12	Diciembre	2023-12-15T00:00:00	2024-11-06T03:00:00	6	Velocidad del viento	6.4
66846	7	Sololá	701	Sololá	3	Barraneche	12	Diciembre	2023-12-15T00:00:00	2024-11-06T03:00:00	7	Dirección del viento	6.44
66847	7	Sololá	701	Sololá	3	Barraneche	12	Diciembre	2023-12-15T00:00:00	2024-11-06T03:00:00	1	Precipitación	0
66848	7	Sololá	701	Sololá	3	Barraneche	12	Diciembre	2023-12-15T00:00:00	2024-11-06T03:00:00	8	Radiación solar	0
66849	7	Sololá	701	Sololá	3	Barraneche	12	Diciembre	2023-12-15T00:00:00	2024-11-06T04:00:00	2	Temperatura media	12.2
66850	7	Sololá	701	Sololá	3	Barraneche	12	Diciembre	2023-12-15T00:00:00	2024-11-06T04:00:00	4	Temperatura máxima	12.9
66851	7	Sololá	701	Sololá	3	Barraneche	12	Diciembre	2023-12-15T00:00:00	2024-11-06T04:00:00	3	Temperatura mínima	11.9
66852	7	Sololá	701	Sololá	3	Barraneche	12	Diciembre	2023-12-15T00:00:00	2024-11-06T04:00:00	5	Humedad	63
66853	7	Sololá	701	Sololá	3	Barraneche	12	Diciembre	2023-12-15T00:00:00	2024-11-06T04:00:00	6	Velocidad del viento	8
66854	7	Sololá	701	Sololá	3	Barraneche	12	Diciembre	2023-12-15T00:00:00	2024-11-06T04:00:00	7	Dirección del viento	8.05
66855	7	Sololá	701	Sololá	3	Barraneche	12	Diciembre	2023-12-15T00:00:00	2024-11-06T04:00:00	1	Precipitación	0
66856	7	Sololá	701	Sololá	3	Barraneche	12	Diciembre	2023-12-15T00:00:00	2024-11-06T04:00:00	8	Radiación solar	0
66857	7	Sololá	701	Sololá	3	Barraneche	12	Diciembre	2023-12-15T00:00:00	2024-11-06T05:00:00	2	Temperatura media	10.7
66858	7	Sololá	701	Sololá	3	Barraneche	12	Diciembre	2023-12-15T00:00:00	2024-11-06T05:00:00	4	Temperatura máxima	12.2
66859	7	Sololá	701	Sololá	3	Barraneche	12	Diciembre	2023-12-15T00:00:00	2024-11-06T05:00:00	3	Temperatura mínima	10.7
66860	7	Sololá	701	Sololá	3	Barraneche	12	Diciembre	2023-12-15T00:00:00	2024-11-06T05:00:00	5	Humedad	68
66861	7	Sololá	701	Sololá	3	Barraneche	12	Diciembre	2023-12-15T00:00:00	2024-11-06T05:00:00	6	Velocidad del viento	3.2
66862	7	Sololá	701	Sololá	3	Barraneche	12	Diciembre	2023-12-15T00:00:00	2024-11-06T05:00:00	7	Dirección del viento	3.22
66863	7	Sololá	701	Sololá	3	Barraneche	12	Diciembre	2023-12-15T00:00:00	2024-11-06T05:00:00	1	Precipitación	0
66864	7	Sololá	701	Sololá	3	Barraneche	12	Diciembre	2023-12-15T00:00:00	2024-11-06T05:00:00	8	Radiación solar	0
66865	7	Sololá	701	Sololá	3	Barraneche	12	Diciembre	2023-12-15T00:00:00	2024-11-06T06:00:00	2	Temperatura media	12.8
66866	7	Sololá	701	Sololá	3	Barraneche	12	Diciembre	2023-12-15T00:00:00	2024-11-06T06:00:00	4	Temperatura máxima	12.8
66867	7	Sololá	701	Sololá	3	Barraneche	12	Diciembre	2023-12-15T00:00:00	2024-11-06T06:00:00	3	Temperatura mínima	10.7
66868	7	Sololá	701	Sololá	3	Barraneche	12	Diciembre	2023-12-15T00:00:00	2024-11-06T06:00:00	5	Humedad	61
66869	7	Sololá	701	Sololá	3	Barraneche	12	Diciembre	2023-12-15T00:00:00	2024-11-06T06:00:00	6	Velocidad del viento	6.4
66870	7	Sololá	701	Sololá	3	Barraneche	12	Diciembre	2023-12-15T00:00:00	2024-11-06T06:00:00	7	Dirección del viento	6.44
66871	7	Sololá	701	Sololá	3	Barraneche	12	Diciembre	2023-12-15T00:00:00	2024-11-06T06:00:00	1	Precipitación	0
66872	7	Sololá	701	Sololá	3	Barraneche	12	Diciembre	2023-12-15T00:00:00	2024-11-06T06:00:00	8	Radiación solar	0
66873	7	Sololá	701	Sololá	3	Barraneche	12	Diciembre	2023-12-15T00:00:00	2024-11-06T07:00:00	2	Temperatura media	13.3
66874	7	Sololá	701	Sololá	3	Barraneche	12	Diciembre	2023-12-15T00:00:00	2024-11-06T07:00:00	4	Temperatura máxima	13.3
66875	7	Sololá	701	Sololá	3	Barraneche	12	Diciembre	2023-12-15T00:00:00	2024-11-06T07:00:00	3	Temperatura mínima	11.3
66876	7	Sololá	701	Sololá	3	Barraneche	12	Diciembre	2023-12-15T00:00:00	2024-11-06T07:00:00	5	Humedad	62
66877	7	Sololá	701	Sololá	3	Barraneche	12	Diciembre	2023-12-15T00:00:00	2024-11-06T07:00:00	6	Velocidad del viento	6.4
66878	7	Sololá	701	Sololá	3	Barraneche	12	Diciembre	2023-12-15T00:00:00	2024-11-06T07:00:00	7	Dirección del viento	6.44
66879	7	Sololá	701	Sololá	3	Barraneche	12	Diciembre	2023-12-15T00:00:00	2024-11-06T07:00:00	1	Precipitación	0
66880	7	Sololá	701	Sololá	3	Barraneche	12	Diciembre	2023-12-15T00:00:00	2024-11-06T07:00:00	8	Radiación solar	22
66881	7	Sololá	701	Sololá	3	Barraneche	12	Diciembre	2023-12-15T00:00:00	2024-11-06T08:00:00	2	Temperatura media	14.8
66882	7	Sololá	701	Sololá	3	Barraneche	12	Diciembre	2023-12-15T00:00:00	2024-11-06T08:00:00	4	Temperatura máxima	14.8
66883	7	Sololá	701	Sololá	3	Barraneche	12	Diciembre	2023-12-15T00:00:00	2024-11-06T08:00:00	3	Temperatura mínima	13.2
66884	7	Sololá	701	Sololá	3	Barraneche	12	Diciembre	2023-12-15T00:00:00	2024-11-06T08:00:00	5	Humedad	61
66885	7	Sololá	701	Sololá	3	Barraneche	12	Diciembre	2023-12-15T00:00:00	2024-11-06T08:00:00	6	Velocidad del viento	1.6
66886	7	Sololá	701	Sololá	3	Barraneche	12	Diciembre	2023-12-15T00:00:00	2024-11-06T08:00:00	7	Dirección del viento	1.61
66887	7	Sololá	701	Sololá	3	Barraneche	12	Diciembre	2023-12-15T00:00:00	2024-11-06T08:00:00	1	Precipitación	0
66888	7	Sololá	701	Sololá	3	Barraneche	12	Diciembre	2023-12-15T00:00:00	2024-11-06T08:00:00	8	Radiación solar	156
66889	7	Sololá	701	Sololá	3	Barraneche	12	Diciembre	2023-12-15T00:00:00	2024-11-06T09:00:00	2	Temperatura media	17.3
66890	7	Sololá	701	Sololá	3	Barraneche	12	Diciembre	2023-12-15T00:00:00	2024-11-06T09:00:00	4	Temperatura máxima	17.3
66891	7	Sololá	701	Sololá	3	Barraneche	12	Diciembre	2023-12-15T00:00:00	2024-11-06T09:00:00	3	Temperatura mínima	14.8
66892	7	Sololá	701	Sololá	3	Barraneche	12	Diciembre	2023-12-15T00:00:00	2024-11-06T09:00:00	5	Humedad	53
66893	7	Sololá	701	Sololá	3	Barraneche	12	Diciembre	2023-12-15T00:00:00	2024-11-06T09:00:00	6	Velocidad del viento	3.2
66894	7	Sololá	701	Sololá	3	Barraneche	12	Diciembre	2023-12-15T00:00:00	2024-11-06T09:00:00	7	Dirección del viento	3.22
66895	7	Sololá	701	Sololá	3	Barraneche	12	Diciembre	2023-12-15T00:00:00	2024-11-06T09:00:00	1	Precipitación	0
66896	7	Sololá	701	Sololá	3	Barraneche	12	Diciembre	2023-12-15T00:00:00	2024-11-06T09:00:00	8	Radiación solar	426
66897	7	Sololá	701	Sololá	3	Barraneche	12	Diciembre	2023-12-15T00:00:00	2024-11-06T10:00:00	2	Temperatura media	17.1
66898	7	Sololá	701	Sololá	3	Barraneche	12	Diciembre	2023-12-15T00:00:00	2024-11-06T10:00:00	4	Temperatura máxima	18.2
66899	7	Sololá	701	Sololá	3	Barraneche	12	Diciembre	2023-12-15T00:00:00	2024-11-06T10:00:00	3	Temperatura mínima	17.1
66900	7	Sololá	701	Sololá	3	Barraneche	12	Diciembre	2023-12-15T00:00:00	2024-11-06T10:00:00	5	Humedad	54
66901	7	Sololá	701	Sololá	3	Barraneche	12	Diciembre	2023-12-15T00:00:00	2024-11-06T10:00:00	6	Velocidad del viento	3.2
66902	7	Sololá	701	Sololá	3	Barraneche	12	Diciembre	2023-12-15T00:00:00	2024-11-06T10:00:00	7	Dirección del viento	3.22
66903	7	Sololá	701	Sololá	3	Barraneche	12	Diciembre	2023-12-15T00:00:00	2024-11-06T10:00:00	1	Precipitación	0
66904	7	Sololá	701	Sololá	3	Barraneche	12	Diciembre	2023-12-15T00:00:00	2024-11-06T10:00:00	8	Radiación solar	384
66905	7	Sololá	701	Sololá	3	Barraneche	12	Diciembre	2023-12-15T00:00:00	2024-11-06T11:00:00	2	Temperatura media	17.7
66906	7	Sololá	701	Sololá	3	Barraneche	12	Diciembre	2023-12-15T00:00:00	2024-11-06T11:00:00	4	Temperatura máxima	17.7
66907	7	Sololá	701	Sololá	3	Barraneche	12	Diciembre	2023-12-15T00:00:00	2024-11-06T11:00:00	3	Temperatura mínima	17.1
66908	7	Sololá	701	Sololá	3	Barraneche	12	Diciembre	2023-12-15T00:00:00	2024-11-06T11:00:00	5	Humedad	53
66909	7	Sololá	701	Sololá	3	Barraneche	12	Diciembre	2023-12-15T00:00:00	2024-11-06T11:00:00	6	Velocidad del viento	8
66910	7	Sololá	701	Sololá	3	Barraneche	12	Diciembre	2023-12-15T00:00:00	2024-11-06T11:00:00	7	Dirección del viento	8.05
66911	7	Sololá	701	Sololá	3	Barraneche	12	Diciembre	2023-12-15T00:00:00	2024-11-06T11:00:00	1	Precipitación	0
66912	7	Sololá	701	Sololá	3	Barraneche	12	Diciembre	2023-12-15T00:00:00	2024-11-06T11:00:00	8	Radiación solar	273
66913	7	Sololá	701	Sololá	3	Barraneche	12	Diciembre	2023-12-15T00:00:00	2024-11-06T12:00:00	2	Temperatura media	18.3
66914	7	Sololá	701	Sololá	3	Barraneche	12	Diciembre	2023-12-15T00:00:00	2024-11-06T12:00:00	4	Temperatura máxima	18.3
66915	7	Sololá	701	Sololá	3	Barraneche	12	Diciembre	2023-12-15T00:00:00	2024-11-06T12:00:00	3	Temperatura mínima	17.1
66916	7	Sololá	701	Sololá	3	Barraneche	12	Diciembre	2023-12-15T00:00:00	2024-11-06T12:00:00	5	Humedad	50
66917	7	Sololá	701	Sololá	3	Barraneche	12	Diciembre	2023-12-15T00:00:00	2024-11-06T12:00:00	6	Velocidad del viento	8
66918	7	Sololá	701	Sololá	3	Barraneche	12	Diciembre	2023-12-15T00:00:00	2024-11-06T12:00:00	7	Dirección del viento	8.05
66919	7	Sololá	701	Sololá	3	Barraneche	12	Diciembre	2023-12-15T00:00:00	2024-11-06T12:00:00	1	Precipitación	0
66920	7	Sololá	701	Sololá	3	Barraneche	12	Diciembre	2023-12-15T00:00:00	2024-11-06T12:00:00	8	Radiación solar	305
66921	7	Sololá	701	Sololá	3	Barraneche	12	Diciembre	2023-12-15T00:00:00	2024-11-06T13:00:00	2	Temperatura media	18.3
66922	7	Sololá	701	Sololá	3	Barraneche	12	Diciembre	2023-12-15T00:00:00	2024-11-06T13:00:00	4	Temperatura máxima	18.3
66923	7	Sololá	701	Sololá	3	Barraneche	12	Diciembre	2023-12-15T00:00:00	2024-11-06T13:00:00	3	Temperatura mínima	17.7
66924	7	Sololá	701	Sololá	3	Barraneche	12	Diciembre	2023-12-15T00:00:00	2024-11-06T13:00:00	5	Humedad	53
66925	7	Sololá	701	Sololá	3	Barraneche	12	Diciembre	2023-12-15T00:00:00	2024-11-06T13:00:00	6	Velocidad del viento	8
66926	7	Sololá	701	Sololá	3	Barraneche	12	Diciembre	2023-12-15T00:00:00	2024-11-06T13:00:00	7	Dirección del viento	8.05
66927	7	Sololá	701	Sololá	3	Barraneche	12	Diciembre	2023-12-15T00:00:00	2024-11-06T13:00:00	1	Precipitación	0
66928	7	Sololá	701	Sololá	3	Barraneche	12	Diciembre	2023-12-15T00:00:00	2024-11-06T13:00:00	8	Radiación solar	288
66929	7	Sololá	701	Sololá	3	Barraneche	12	Diciembre	2023-12-15T00:00:00	2024-11-06T14:00:00	2	Temperatura media	18.5
66930	7	Sololá	701	Sololá	3	Barraneche	12	Diciembre	2023-12-15T00:00:00	2024-11-06T14:00:00	4	Temperatura máxima	18.8
66931	7	Sololá	701	Sololá	3	Barraneche	12	Diciembre	2023-12-15T00:00:00	2024-11-06T14:00:00	3	Temperatura mínima	18.1
66932	7	Sololá	701	Sololá	3	Barraneche	12	Diciembre	2023-12-15T00:00:00	2024-11-06T14:00:00	5	Humedad	57
66933	7	Sololá	701	Sololá	3	Barraneche	12	Diciembre	2023-12-15T00:00:00	2024-11-06T14:00:00	6	Velocidad del viento	9.7
66934	7	Sololá	701	Sololá	3	Barraneche	12	Diciembre	2023-12-15T00:00:00	2024-11-06T14:00:00	7	Dirección del viento	9.66
66935	7	Sololá	701	Sololá	3	Barraneche	12	Diciembre	2023-12-15T00:00:00	2024-11-06T14:00:00	1	Precipitación	0
66936	7	Sololá	701	Sololá	3	Barraneche	12	Diciembre	2023-12-15T00:00:00	2024-11-06T14:00:00	8	Radiación solar	380
66937	7	Sololá	701	Sololá	3	Barraneche	12	Diciembre	2023-12-15T00:00:00	2024-11-06T15:00:00	2	Temperatura media	18.1
66938	7	Sololá	701	Sololá	3	Barraneche	12	Diciembre	2023-12-15T00:00:00	2024-11-06T15:00:00	4	Temperatura máxima	19.1
66939	7	Sololá	701	Sololá	3	Barraneche	12	Diciembre	2023-12-15T00:00:00	2024-11-06T15:00:00	3	Temperatura mínima	18.1
66940	7	Sololá	701	Sololá	3	Barraneche	12	Diciembre	2023-12-15T00:00:00	2024-11-06T15:00:00	5	Humedad	60
66941	7	Sololá	701	Sololá	3	Barraneche	12	Diciembre	2023-12-15T00:00:00	2024-11-06T15:00:00	6	Velocidad del viento	11.3
66942	7	Sololá	701	Sololá	3	Barraneche	12	Diciembre	2023-12-15T00:00:00	2024-11-06T15:00:00	7	Dirección del viento	11.27
66943	7	Sololá	701	Sololá	3	Barraneche	12	Diciembre	2023-12-15T00:00:00	2024-11-06T15:00:00	1	Precipitación	0
66944	7	Sololá	701	Sololá	3	Barraneche	12	Diciembre	2023-12-15T00:00:00	2024-11-06T15:00:00	8	Radiación solar	461
66945	7	Sololá	701	Sololá	3	Barraneche	12	Diciembre	2023-12-15T00:00:00	2024-11-06T16:00:00	2	Temperatura media	15.8
66946	7	Sololá	701	Sololá	3	Barraneche	12	Diciembre	2023-12-15T00:00:00	2024-11-06T16:00:00	4	Temperatura máxima	18.4
66947	7	Sololá	701	Sololá	3	Barraneche	12	Diciembre	2023-12-15T00:00:00	2024-11-06T16:00:00	3	Temperatura mínima	15.8
66948	7	Sololá	701	Sololá	3	Barraneche	12	Diciembre	2023-12-15T00:00:00	2024-11-06T16:00:00	5	Humedad	70
66949	7	Sololá	701	Sololá	3	Barraneche	12	Diciembre	2023-12-15T00:00:00	2024-11-06T16:00:00	6	Velocidad del viento	11.3
66950	7	Sololá	701	Sololá	3	Barraneche	12	Diciembre	2023-12-15T00:00:00	2024-11-06T16:00:00	7	Dirección del viento	11.27
66951	7	Sololá	701	Sololá	3	Barraneche	12	Diciembre	2023-12-15T00:00:00	2024-11-06T16:00:00	1	Precipitación	0
66952	7	Sololá	701	Sololá	3	Barraneche	12	Diciembre	2023-12-15T00:00:00	2024-11-06T16:00:00	8	Radiación solar	243
66953	7	Sololá	701	Sololá	3	Barraneche	12	Diciembre	2023-12-15T00:00:00	2024-11-06T17:00:00	2	Temperatura media	15.6
66954	7	Sololá	701	Sololá	3	Barraneche	12	Diciembre	2023-12-15T00:00:00	2024-11-06T17:00:00	4	Temperatura máxima	15.8
66955	7	Sololá	701	Sololá	3	Barraneche	12	Diciembre	2023-12-15T00:00:00	2024-11-06T17:00:00	3	Temperatura mínima	15.3
66956	7	Sololá	701	Sololá	3	Barraneche	12	Diciembre	2023-12-15T00:00:00	2024-11-06T17:00:00	5	Humedad	69
66957	7	Sololá	701	Sololá	3	Barraneche	12	Diciembre	2023-12-15T00:00:00	2024-11-06T17:00:00	6	Velocidad del viento	6.4
66958	7	Sololá	701	Sololá	3	Barraneche	12	Diciembre	2023-12-15T00:00:00	2024-11-06T17:00:00	7	Dirección del viento	6.44
66959	7	Sololá	701	Sololá	3	Barraneche	12	Diciembre	2023-12-15T00:00:00	2024-11-06T17:00:00	1	Precipitación	0
66960	7	Sololá	701	Sololá	3	Barraneche	12	Diciembre	2023-12-15T00:00:00	2024-11-06T17:00:00	8	Radiación solar	49
66961	7	Sololá	701	Sololá	3	Barraneche	12	Diciembre	2023-12-15T00:00:00	2024-11-06T18:00:00	2	Temperatura media	15.2
66962	7	Sololá	701	Sololá	3	Barraneche	12	Diciembre	2023-12-15T00:00:00	2024-11-06T18:00:00	4	Temperatura máxima	15.6
66963	7	Sololá	701	Sololá	3	Barraneche	12	Diciembre	2023-12-15T00:00:00	2024-11-06T18:00:00	3	Temperatura mínima	15
66964	7	Sololá	701	Sololá	3	Barraneche	12	Diciembre	2023-12-15T00:00:00	2024-11-06T18:00:00	5	Humedad	65
66965	7	Sololá	701	Sololá	3	Barraneche	12	Diciembre	2023-12-15T00:00:00	2024-11-06T18:00:00	6	Velocidad del viento	4.8
66966	7	Sololá	701	Sololá	3	Barraneche	12	Diciembre	2023-12-15T00:00:00	2024-11-06T18:00:00	7	Dirección del viento	4.83
66967	7	Sololá	701	Sololá	3	Barraneche	12	Diciembre	2023-12-15T00:00:00	2024-11-06T18:00:00	1	Precipitación	0
66968	7	Sololá	701	Sololá	3	Barraneche	12	Diciembre	2023-12-15T00:00:00	2024-11-06T18:00:00	8	Radiación solar	6
66969	7	Sololá	701	Sololá	3	Barraneche	12	Diciembre	2023-12-15T00:00:00	2024-11-06T19:00:00	2	Temperatura media	14.3
66970	7	Sololá	701	Sololá	3	Barraneche	12	Diciembre	2023-12-15T00:00:00	2024-11-06T19:00:00	4	Temperatura máxima	15.2
66971	7	Sololá	701	Sololá	3	Barraneche	12	Diciembre	2023-12-15T00:00:00	2024-11-06T19:00:00	3	Temperatura mínima	14.2
66972	7	Sololá	701	Sololá	3	Barraneche	12	Diciembre	2023-12-15T00:00:00	2024-11-06T19:00:00	5	Humedad	69
66973	7	Sololá	701	Sololá	3	Barraneche	12	Diciembre	2023-12-15T00:00:00	2024-11-06T19:00:00	6	Velocidad del viento	3.2
66974	7	Sololá	701	Sololá	3	Barraneche	12	Diciembre	2023-12-15T00:00:00	2024-11-06T19:00:00	7	Dirección del viento	3.22
66975	7	Sololá	701	Sololá	3	Barraneche	12	Diciembre	2023-12-15T00:00:00	2024-11-06T19:00:00	1	Precipitación	0
66976	7	Sololá	701	Sololá	3	Barraneche	12	Diciembre	2023-12-15T00:00:00	2024-11-06T19:00:00	8	Radiación solar	0
66977	7	Sololá	701	Sololá	3	Barraneche	12	Diciembre	2023-12-15T00:00:00	2024-11-06T20:00:00	2	Temperatura media	14
66978	7	Sololá	701	Sololá	3	Barraneche	12	Diciembre	2023-12-15T00:00:00	2024-11-06T20:00:00	4	Temperatura máxima	14.3
66979	7	Sololá	701	Sololá	3	Barraneche	12	Diciembre	2023-12-15T00:00:00	2024-11-06T20:00:00	3	Temperatura mínima	13.8
66980	7	Sololá	701	Sololá	3	Barraneche	12	Diciembre	2023-12-15T00:00:00	2024-11-06T20:00:00	5	Humedad	71
66981	7	Sololá	701	Sololá	3	Barraneche	12	Diciembre	2023-12-15T00:00:00	2024-11-06T20:00:00	6	Velocidad del viento	1.6
66982	7	Sololá	701	Sololá	3	Barraneche	12	Diciembre	2023-12-15T00:00:00	2024-11-06T20:00:00	7	Dirección del viento	1.61
66983	7	Sololá	701	Sololá	3	Barraneche	12	Diciembre	2023-12-15T00:00:00	2024-11-06T20:00:00	1	Precipitación	0
66984	7	Sololá	701	Sololá	3	Barraneche	12	Diciembre	2023-12-15T00:00:00	2024-11-06T20:00:00	8	Radiación solar	0
66985	7	Sololá	701	Sololá	3	Barraneche	12	Diciembre	2023-12-15T00:00:00	2024-11-06T21:00:00	2	Temperatura media	13.8
66986	7	Sololá	701	Sololá	3	Barraneche	12	Diciembre	2023-12-15T00:00:00	2024-11-06T21:00:00	4	Temperatura máxima	14.2
66987	7	Sololá	701	Sololá	3	Barraneche	12	Diciembre	2023-12-15T00:00:00	2024-11-06T21:00:00	3	Temperatura mínima	13.8
66988	7	Sololá	701	Sololá	3	Barraneche	12	Diciembre	2023-12-15T00:00:00	2024-11-06T21:00:00	5	Humedad	71
66989	7	Sololá	701	Sololá	3	Barraneche	12	Diciembre	2023-12-15T00:00:00	2024-11-06T21:00:00	6	Velocidad del viento	1.6
66990	7	Sololá	701	Sololá	3	Barraneche	12	Diciembre	2023-12-15T00:00:00	2024-11-06T21:00:00	7	Dirección del viento	1.61
66991	7	Sololá	701	Sololá	3	Barraneche	12	Diciembre	2023-12-15T00:00:00	2024-11-06T21:00:00	1	Precipitación	0
66992	7	Sololá	701	Sololá	3	Barraneche	12	Diciembre	2023-12-15T00:00:00	2024-11-06T21:00:00	8	Radiación solar	0
66993	7	Sololá	701	Sololá	3	Barraneche	12	Diciembre	2023-12-15T00:00:00	2024-11-06T22:00:00	2	Temperatura media	13.6
66994	7	Sololá	701	Sololá	3	Barraneche	12	Diciembre	2023-12-15T00:00:00	2024-11-06T22:00:00	4	Temperatura máxima	13.9
66995	7	Sololá	701	Sololá	3	Barraneche	12	Diciembre	2023-12-15T00:00:00	2024-11-06T22:00:00	3	Temperatura mínima	13.3
66996	7	Sololá	701	Sololá	3	Barraneche	12	Diciembre	2023-12-15T00:00:00	2024-11-06T22:00:00	5	Humedad	73
66997	7	Sololá	701	Sololá	3	Barraneche	12	Diciembre	2023-12-15T00:00:00	2024-11-06T22:00:00	6	Velocidad del viento	3.2
66998	7	Sololá	701	Sololá	3	Barraneche	12	Diciembre	2023-12-15T00:00:00	2024-11-06T22:00:00	7	Dirección del viento	3.22
66999	7	Sololá	701	Sololá	3	Barraneche	12	Diciembre	2023-12-15T00:00:00	2024-11-06T22:00:00	1	Precipitación	0
67000	7	Sololá	701	Sololá	3	Barraneche	12	Diciembre	2023-12-15T00:00:00	2024-11-06T22:00:00	8	Radiación solar	0
67001	7	Sololá	701	Sololá	3	Barraneche	12	Diciembre	2023-12-15T00:00:00	2024-11-06T23:00:00	2	Temperatura media	12.6
67002	7	Sololá	701	Sololá	3	Barraneche	12	Diciembre	2023-12-15T00:00:00	2024-11-06T23:00:00	4	Temperatura máxima	13.6
67003	7	Sololá	701	Sololá	3	Barraneche	12	Diciembre	2023-12-15T00:00:00	2024-11-06T23:00:00	3	Temperatura mínima	12.6
67004	7	Sololá	701	Sololá	3	Barraneche	12	Diciembre	2023-12-15T00:00:00	2024-11-06T23:00:00	5	Humedad	75
67005	7	Sololá	701	Sololá	3	Barraneche	12	Diciembre	2023-12-15T00:00:00	2024-11-06T23:00:00	6	Velocidad del viento	1.6
67006	7	Sololá	701	Sololá	3	Barraneche	12	Diciembre	2023-12-15T00:00:00	2024-11-06T23:00:00	7	Dirección del viento	1.61
67007	7	Sololá	701	Sololá	3	Barraneche	12	Diciembre	2023-12-15T00:00:00	2024-11-06T23:00:00	1	Precipitación	0
67008	7	Sololá	701	Sololá	3	Barraneche	12	Diciembre	2023-12-15T00:00:00	2024-11-06T23:00:00	8	Radiación solar	0
67009	7	Sololá	701	Sololá	3	Barraneche	12	Diciembre	2023-12-16T00:00:00	2024-11-06T00:00:00	2	Temperatura media	12.8
67010	7	Sololá	701	Sololá	3	Barraneche	12	Diciembre	2023-12-16T00:00:00	2024-11-06T00:00:00	4	Temperatura máxima	12.8
67011	7	Sololá	701	Sololá	3	Barraneche	12	Diciembre	2023-12-16T00:00:00	2024-11-06T00:00:00	3	Temperatura mínima	12.1
67012	7	Sololá	701	Sololá	3	Barraneche	12	Diciembre	2023-12-16T00:00:00	2024-11-06T00:00:00	5	Humedad	73
67013	7	Sololá	701	Sololá	3	Barraneche	12	Diciembre	2023-12-16T00:00:00	2024-11-06T00:00:00	6	Velocidad del viento	3.2
67014	7	Sololá	701	Sololá	3	Barraneche	12	Diciembre	2023-12-16T00:00:00	2024-11-06T00:00:00	7	Dirección del viento	3.22
67015	7	Sololá	701	Sololá	3	Barraneche	12	Diciembre	2023-12-16T00:00:00	2024-11-06T00:00:00	1	Precipitación	0
67016	7	Sololá	701	Sololá	3	Barraneche	12	Diciembre	2023-12-16T00:00:00	2024-11-06T00:00:00	8	Radiación solar	0
67017	7	Sololá	701	Sololá	3	Barraneche	12	Diciembre	2023-12-16T00:00:00	2024-11-06T01:00:00	2	Temperatura media	10.7
67018	7	Sololá	701	Sololá	3	Barraneche	12	Diciembre	2023-12-16T00:00:00	2024-11-06T01:00:00	4	Temperatura máxima	12.8
67019	7	Sololá	701	Sololá	3	Barraneche	12	Diciembre	2023-12-16T00:00:00	2024-11-06T01:00:00	3	Temperatura mínima	10.7
67020	7	Sololá	701	Sololá	3	Barraneche	12	Diciembre	2023-12-16T00:00:00	2024-11-06T01:00:00	5	Humedad	73
67021	7	Sololá	701	Sololá	3	Barraneche	12	Diciembre	2023-12-16T00:00:00	2024-11-06T01:00:00	6	Velocidad del viento	3.2
67022	7	Sololá	701	Sololá	3	Barraneche	12	Diciembre	2023-12-16T00:00:00	2024-11-06T01:00:00	7	Dirección del viento	3.22
67023	7	Sololá	701	Sololá	3	Barraneche	12	Diciembre	2023-12-16T00:00:00	2024-11-06T01:00:00	1	Precipitación	0
67024	7	Sololá	701	Sololá	3	Barraneche	12	Diciembre	2023-12-16T00:00:00	2024-11-06T01:00:00	8	Radiación solar	0
67025	7	Sololá	701	Sololá	3	Barraneche	12	Diciembre	2023-12-16T00:00:00	2024-11-06T02:00:00	2	Temperatura media	10.4
67026	7	Sololá	701	Sololá	3	Barraneche	12	Diciembre	2023-12-16T00:00:00	2024-11-06T02:00:00	4	Temperatura máxima	10.8
67027	7	Sololá	701	Sololá	3	Barraneche	12	Diciembre	2023-12-16T00:00:00	2024-11-06T02:00:00	3	Temperatura mínima	10.4
67028	7	Sololá	701	Sololá	3	Barraneche	12	Diciembre	2023-12-16T00:00:00	2024-11-06T02:00:00	5	Humedad	72
67029	7	Sololá	701	Sololá	3	Barraneche	12	Diciembre	2023-12-16T00:00:00	2024-11-06T02:00:00	6	Velocidad del viento	6.4
67030	7	Sololá	701	Sololá	3	Barraneche	12	Diciembre	2023-12-16T00:00:00	2024-11-06T02:00:00	7	Dirección del viento	6.44
67031	7	Sololá	701	Sololá	3	Barraneche	12	Diciembre	2023-12-16T00:00:00	2024-11-06T02:00:00	1	Precipitación	0
67032	7	Sololá	701	Sololá	3	Barraneche	12	Diciembre	2023-12-16T00:00:00	2024-11-06T02:00:00	8	Radiación solar	0
67033	7	Sololá	701	Sololá	3	Barraneche	12	Diciembre	2023-12-16T00:00:00	2024-11-06T03:00:00	2	Temperatura media	10.2
67034	7	Sololá	701	Sololá	3	Barraneche	12	Diciembre	2023-12-16T00:00:00	2024-11-06T03:00:00	4	Temperatura máxima	10.7
67035	7	Sololá	701	Sololá	3	Barraneche	12	Diciembre	2023-12-16T00:00:00	2024-11-06T03:00:00	3	Temperatura mínima	9.9
67036	7	Sololá	701	Sololá	3	Barraneche	12	Diciembre	2023-12-16T00:00:00	2024-11-06T03:00:00	5	Humedad	72
67037	7	Sololá	701	Sololá	3	Barraneche	12	Diciembre	2023-12-16T00:00:00	2024-11-06T03:00:00	6	Velocidad del viento	4.8
67038	7	Sololá	701	Sololá	3	Barraneche	12	Diciembre	2023-12-16T00:00:00	2024-11-06T03:00:00	7	Dirección del viento	4.83
67039	7	Sololá	701	Sololá	3	Barraneche	12	Diciembre	2023-12-16T00:00:00	2024-11-06T03:00:00	1	Precipitación	0
67040	7	Sololá	701	Sololá	3	Barraneche	12	Diciembre	2023-12-16T00:00:00	2024-11-06T03:00:00	8	Radiación solar	0
67041	7	Sololá	701	Sololá	3	Barraneche	12	Diciembre	2023-12-16T00:00:00	2024-11-06T04:00:00	2	Temperatura media	10.1
67042	7	Sololá	701	Sololá	3	Barraneche	12	Diciembre	2023-12-16T00:00:00	2024-11-06T04:00:00	4	Temperatura máxima	10.3
67043	7	Sololá	701	Sololá	3	Barraneche	12	Diciembre	2023-12-16T00:00:00	2024-11-06T04:00:00	3	Temperatura mínima	9.8
67044	7	Sololá	701	Sololá	3	Barraneche	12	Diciembre	2023-12-16T00:00:00	2024-11-06T04:00:00	5	Humedad	71
67045	7	Sololá	701	Sololá	3	Barraneche	12	Diciembre	2023-12-16T00:00:00	2024-11-06T04:00:00	6	Velocidad del viento	4.8
67046	7	Sololá	701	Sololá	3	Barraneche	12	Diciembre	2023-12-16T00:00:00	2024-11-06T04:00:00	7	Dirección del viento	4.83
67047	7	Sololá	701	Sololá	3	Barraneche	12	Diciembre	2023-12-16T00:00:00	2024-11-06T04:00:00	1	Precipitación	0
67048	7	Sololá	701	Sololá	3	Barraneche	12	Diciembre	2023-12-16T00:00:00	2024-11-06T04:00:00	8	Radiación solar	0
67049	7	Sololá	701	Sololá	3	Barraneche	12	Diciembre	2023-12-16T00:00:00	2024-11-06T05:00:00	2	Temperatura media	9.9
67050	7	Sololá	701	Sololá	3	Barraneche	12	Diciembre	2023-12-16T00:00:00	2024-11-06T05:00:00	4	Temperatura máxima	10.1
67051	7	Sololá	701	Sololá	3	Barraneche	12	Diciembre	2023-12-16T00:00:00	2024-11-06T05:00:00	3	Temperatura mínima	9.9
67052	7	Sololá	701	Sololá	3	Barraneche	12	Diciembre	2023-12-16T00:00:00	2024-11-06T05:00:00	5	Humedad	71
67053	7	Sololá	701	Sololá	3	Barraneche	12	Diciembre	2023-12-16T00:00:00	2024-11-06T05:00:00	6	Velocidad del viento	6.4
67054	7	Sololá	701	Sololá	3	Barraneche	12	Diciembre	2023-12-16T00:00:00	2024-11-06T05:00:00	7	Dirección del viento	6.44
67055	7	Sololá	701	Sololá	3	Barraneche	12	Diciembre	2023-12-16T00:00:00	2024-11-06T05:00:00	1	Precipitación	0
67056	7	Sololá	701	Sololá	3	Barraneche	12	Diciembre	2023-12-16T00:00:00	2024-11-06T05:00:00	8	Radiación solar	0
67057	7	Sololá	701	Sololá	3	Barraneche	12	Diciembre	2023-12-16T00:00:00	2024-11-06T06:00:00	2	Temperatura media	9.3
67058	7	Sololá	701	Sololá	3	Barraneche	12	Diciembre	2023-12-16T00:00:00	2024-11-06T06:00:00	4	Temperatura máxima	10.3
67059	7	Sololá	701	Sololá	3	Barraneche	12	Diciembre	2023-12-16T00:00:00	2024-11-06T06:00:00	3	Temperatura mínima	9.2
67060	7	Sololá	701	Sololá	3	Barraneche	12	Diciembre	2023-12-16T00:00:00	2024-11-06T06:00:00	5	Humedad	70
67061	7	Sololá	701	Sololá	3	Barraneche	12	Diciembre	2023-12-16T00:00:00	2024-11-06T06:00:00	6	Velocidad del viento	6.4
67062	7	Sololá	701	Sololá	3	Barraneche	12	Diciembre	2023-12-16T00:00:00	2024-11-06T06:00:00	7	Dirección del viento	6.44
67063	7	Sololá	701	Sololá	3	Barraneche	12	Diciembre	2023-12-16T00:00:00	2024-11-06T06:00:00	1	Precipitación	0
67064	7	Sololá	701	Sololá	3	Barraneche	12	Diciembre	2023-12-16T00:00:00	2024-11-06T06:00:00	8	Radiación solar	0
67065	7	Sololá	701	Sololá	3	Barraneche	12	Diciembre	2023-12-16T00:00:00	2024-11-06T07:00:00	2	Temperatura media	9.8
67066	7	Sololá	701	Sololá	3	Barraneche	12	Diciembre	2023-12-16T00:00:00	2024-11-06T07:00:00	4	Temperatura máxima	10.4
67067	7	Sololá	701	Sololá	3	Barraneche	12	Diciembre	2023-12-16T00:00:00	2024-11-06T07:00:00	3	Temperatura mínima	9.3
67068	7	Sololá	701	Sololá	3	Barraneche	12	Diciembre	2023-12-16T00:00:00	2024-11-06T07:00:00	5	Humedad	68
67069	7	Sololá	701	Sololá	3	Barraneche	12	Diciembre	2023-12-16T00:00:00	2024-11-06T07:00:00	6	Velocidad del viento	6.4
67070	7	Sololá	701	Sololá	3	Barraneche	12	Diciembre	2023-12-16T00:00:00	2024-11-06T07:00:00	7	Dirección del viento	6.44
67071	7	Sololá	701	Sololá	3	Barraneche	12	Diciembre	2023-12-16T00:00:00	2024-11-06T07:00:00	1	Precipitación	0
67072	7	Sololá	701	Sololá	3	Barraneche	12	Diciembre	2023-12-16T00:00:00	2024-11-06T07:00:00	8	Radiación solar	11
67073	7	Sololá	701	Sololá	3	Barraneche	12	Diciembre	2023-12-16T00:00:00	2024-11-06T08:00:00	2	Temperatura media	13.3
67074	7	Sololá	701	Sololá	3	Barraneche	12	Diciembre	2023-12-16T00:00:00	2024-11-06T08:00:00	4	Temperatura máxima	13.3
67075	7	Sololá	701	Sololá	3	Barraneche	12	Diciembre	2023-12-16T00:00:00	2024-11-06T08:00:00	3	Temperatura mínima	9.8
67076	7	Sololá	701	Sololá	3	Barraneche	12	Diciembre	2023-12-16T00:00:00	2024-11-06T08:00:00	5	Humedad	65
67077	7	Sololá	701	Sololá	3	Barraneche	12	Diciembre	2023-12-16T00:00:00	2024-11-06T08:00:00	6	Velocidad del viento	4.8
67078	7	Sololá	701	Sololá	3	Barraneche	12	Diciembre	2023-12-16T00:00:00	2024-11-06T08:00:00	7	Dirección del viento	4.83
67079	7	Sololá	701	Sololá	3	Barraneche	12	Diciembre	2023-12-16T00:00:00	2024-11-06T08:00:00	1	Precipitación	0
67080	7	Sololá	701	Sololá	3	Barraneche	12	Diciembre	2023-12-16T00:00:00	2024-11-06T08:00:00	8	Radiación solar	194
67081	7	Sololá	701	Sololá	3	Barraneche	12	Diciembre	2023-12-16T00:00:00	2024-11-06T09:00:00	2	Temperatura media	16
67082	7	Sololá	701	Sololá	3	Barraneche	12	Diciembre	2023-12-16T00:00:00	2024-11-06T09:00:00	4	Temperatura máxima	16
67083	7	Sololá	701	Sololá	3	Barraneche	12	Diciembre	2023-12-16T00:00:00	2024-11-06T09:00:00	3	Temperatura mínima	13.3
67084	7	Sololá	701	Sololá	3	Barraneche	12	Diciembre	2023-12-16T00:00:00	2024-11-06T09:00:00	5	Humedad	60
67085	7	Sololá	701	Sololá	3	Barraneche	12	Diciembre	2023-12-16T00:00:00	2024-11-06T09:00:00	6	Velocidad del viento	3.2
67086	7	Sololá	701	Sololá	3	Barraneche	12	Diciembre	2023-12-16T00:00:00	2024-11-06T09:00:00	7	Dirección del viento	3.22
67087	7	Sololá	701	Sololá	3	Barraneche	12	Diciembre	2023-12-16T00:00:00	2024-11-06T09:00:00	1	Precipitación	0
67088	7	Sololá	701	Sololá	3	Barraneche	12	Diciembre	2023-12-16T00:00:00	2024-11-06T09:00:00	8	Radiación solar	419
67089	7	Sololá	701	Sololá	3	Barraneche	12	Diciembre	2023-12-16T00:00:00	2024-11-06T10:00:00	2	Temperatura media	17.1
67090	7	Sololá	701	Sololá	3	Barraneche	12	Diciembre	2023-12-16T00:00:00	2024-11-06T10:00:00	4	Temperatura máxima	17.5
67091	7	Sololá	701	Sololá	3	Barraneche	12	Diciembre	2023-12-16T00:00:00	2024-11-06T10:00:00	3	Temperatura mínima	16
67092	7	Sololá	701	Sololá	3	Barraneche	12	Diciembre	2023-12-16T00:00:00	2024-11-06T10:00:00	5	Humedad	60
67093	7	Sololá	701	Sololá	3	Barraneche	12	Diciembre	2023-12-16T00:00:00	2024-11-06T10:00:00	6	Velocidad del viento	8
67094	7	Sololá	701	Sololá	3	Barraneche	12	Diciembre	2023-12-16T00:00:00	2024-11-06T10:00:00	7	Dirección del viento	8.05
67095	7	Sololá	701	Sololá	3	Barraneche	12	Diciembre	2023-12-16T00:00:00	2024-11-06T10:00:00	1	Precipitación	0
67096	7	Sololá	701	Sololá	3	Barraneche	12	Diciembre	2023-12-16T00:00:00	2024-11-06T10:00:00	8	Radiación solar	635
67097	7	Sololá	701	Sololá	3	Barraneche	12	Diciembre	2023-12-16T00:00:00	2024-11-06T11:00:00	2	Temperatura media	17.2
67098	7	Sololá	701	Sololá	3	Barraneche	12	Diciembre	2023-12-16T00:00:00	2024-11-06T11:00:00	4	Temperatura máxima	17.7
67099	7	Sololá	701	Sololá	3	Barraneche	12	Diciembre	2023-12-16T00:00:00	2024-11-06T11:00:00	3	Temperatura mínima	16.7
67100	7	Sololá	701	Sololá	3	Barraneche	12	Diciembre	2023-12-16T00:00:00	2024-11-06T11:00:00	5	Humedad	61
67101	7	Sololá	701	Sololá	3	Barraneche	12	Diciembre	2023-12-16T00:00:00	2024-11-06T11:00:00	6	Velocidad del viento	11.3
67102	7	Sololá	701	Sololá	3	Barraneche	12	Diciembre	2023-12-16T00:00:00	2024-11-06T11:00:00	7	Dirección del viento	11.27
67103	7	Sololá	701	Sololá	3	Barraneche	12	Diciembre	2023-12-16T00:00:00	2024-11-06T11:00:00	1	Precipitación	0
67104	7	Sololá	701	Sololá	3	Barraneche	12	Diciembre	2023-12-16T00:00:00	2024-11-06T11:00:00	8	Radiación solar	680
67105	7	Sololá	701	Sololá	3	Barraneche	12	Diciembre	2023-12-16T00:00:00	2024-11-06T12:00:00	2	Temperatura media	17.1
67106	7	Sololá	701	Sololá	3	Barraneche	12	Diciembre	2023-12-16T00:00:00	2024-11-06T12:00:00	4	Temperatura máxima	17.5
67107	7	Sololá	701	Sololá	3	Barraneche	12	Diciembre	2023-12-16T00:00:00	2024-11-06T12:00:00	3	Temperatura mínima	16.5
67108	7	Sololá	701	Sololá	3	Barraneche	12	Diciembre	2023-12-16T00:00:00	2024-11-06T12:00:00	5	Humedad	56
67109	7	Sololá	701	Sololá	3	Barraneche	12	Diciembre	2023-12-16T00:00:00	2024-11-06T12:00:00	6	Velocidad del viento	9.7
67110	7	Sololá	701	Sololá	3	Barraneche	12	Diciembre	2023-12-16T00:00:00	2024-11-06T12:00:00	7	Dirección del viento	9.66
67111	7	Sololá	701	Sololá	3	Barraneche	12	Diciembre	2023-12-16T00:00:00	2024-11-06T12:00:00	1	Precipitación	0
67112	7	Sololá	701	Sololá	3	Barraneche	12	Diciembre	2023-12-16T00:00:00	2024-11-06T12:00:00	8	Radiación solar	250
67113	7	Sololá	701	Sololá	3	Barraneche	12	Diciembre	2023-12-16T00:00:00	2024-11-06T13:00:00	2	Temperatura media	17.3
67114	7	Sololá	701	Sololá	3	Barraneche	12	Diciembre	2023-12-16T00:00:00	2024-11-06T13:00:00	4	Temperatura máxima	17.3
67115	7	Sololá	701	Sololá	3	Barraneche	12	Diciembre	2023-12-16T00:00:00	2024-11-06T13:00:00	3	Temperatura mínima	16.6
67116	7	Sololá	701	Sololá	3	Barraneche	12	Diciembre	2023-12-16T00:00:00	2024-11-06T13:00:00	5	Humedad	54
67117	7	Sololá	701	Sololá	3	Barraneche	12	Diciembre	2023-12-16T00:00:00	2024-11-06T13:00:00	6	Velocidad del viento	8
67118	7	Sololá	701	Sololá	3	Barraneche	12	Diciembre	2023-12-16T00:00:00	2024-11-06T13:00:00	7	Dirección del viento	8.05
67119	7	Sololá	701	Sololá	3	Barraneche	12	Diciembre	2023-12-16T00:00:00	2024-11-06T13:00:00	1	Precipitación	0
67120	7	Sololá	701	Sololá	3	Barraneche	12	Diciembre	2023-12-16T00:00:00	2024-11-06T13:00:00	8	Radiación solar	181
67121	7	Sololá	701	Sololá	3	Barraneche	12	Diciembre	2023-12-16T00:00:00	2024-11-06T14:00:00	2	Temperatura media	17.9
67122	7	Sololá	701	Sololá	3	Barraneche	12	Diciembre	2023-12-16T00:00:00	2024-11-06T14:00:00	4	Temperatura máxima	18.4
67123	7	Sololá	701	Sololá	3	Barraneche	12	Diciembre	2023-12-16T00:00:00	2024-11-06T14:00:00	3	Temperatura mínima	17
67124	7	Sololá	701	Sololá	3	Barraneche	12	Diciembre	2023-12-16T00:00:00	2024-11-06T14:00:00	5	Humedad	52
67125	7	Sololá	701	Sololá	3	Barraneche	12	Diciembre	2023-12-16T00:00:00	2024-11-06T14:00:00	6	Velocidad del viento	9.7
67126	7	Sololá	701	Sololá	3	Barraneche	12	Diciembre	2023-12-16T00:00:00	2024-11-06T14:00:00	7	Dirección del viento	9.66
67127	7	Sololá	701	Sololá	3	Barraneche	12	Diciembre	2023-12-16T00:00:00	2024-11-06T14:00:00	1	Precipitación	0
67128	7	Sololá	701	Sololá	3	Barraneche	12	Diciembre	2023-12-16T00:00:00	2024-11-06T14:00:00	8	Radiación solar	271
67129	7	Sololá	701	Sololá	3	Barraneche	12	Diciembre	2023-12-16T00:00:00	2024-11-06T15:00:00	2	Temperatura media	18.8
67130	7	Sololá	701	Sololá	3	Barraneche	12	Diciembre	2023-12-16T00:00:00	2024-11-06T15:00:00	4	Temperatura máxima	18.8
67131	7	Sololá	701	Sololá	3	Barraneche	12	Diciembre	2023-12-16T00:00:00	2024-11-06T15:00:00	3	Temperatura mínima	17.7
67132	7	Sololá	701	Sololá	3	Barraneche	12	Diciembre	2023-12-16T00:00:00	2024-11-06T15:00:00	5	Humedad	49
67133	7	Sololá	701	Sololá	3	Barraneche	12	Diciembre	2023-12-16T00:00:00	2024-11-06T15:00:00	6	Velocidad del viento	8
67134	7	Sololá	701	Sololá	3	Barraneche	12	Diciembre	2023-12-16T00:00:00	2024-11-06T15:00:00	7	Dirección del viento	8.05
67135	7	Sololá	701	Sololá	3	Barraneche	12	Diciembre	2023-12-16T00:00:00	2024-11-06T15:00:00	1	Precipitación	0
67136	7	Sololá	701	Sololá	3	Barraneche	12	Diciembre	2023-12-16T00:00:00	2024-11-06T15:00:00	8	Radiación solar	260
67137	7	Sololá	701	Sololá	3	Barraneche	12	Diciembre	2023-12-16T00:00:00	2024-11-06T16:00:00	2	Temperatura media	18.5
67138	7	Sololá	701	Sololá	3	Barraneche	12	Diciembre	2023-12-16T00:00:00	2024-11-06T16:00:00	4	Temperatura máxima	19.1
67139	7	Sololá	701	Sololá	3	Barraneche	12	Diciembre	2023-12-16T00:00:00	2024-11-06T16:00:00	3	Temperatura mínima	18
67140	7	Sololá	701	Sololá	3	Barraneche	12	Diciembre	2023-12-16T00:00:00	2024-11-06T16:00:00	5	Humedad	50
67141	7	Sololá	701	Sololá	3	Barraneche	12	Diciembre	2023-12-16T00:00:00	2024-11-06T16:00:00	6	Velocidad del viento	11.3
67142	7	Sololá	701	Sololá	3	Barraneche	12	Diciembre	2023-12-16T00:00:00	2024-11-06T16:00:00	7	Dirección del viento	11.27
67143	7	Sololá	701	Sololá	3	Barraneche	12	Diciembre	2023-12-16T00:00:00	2024-11-06T16:00:00	1	Precipitación	0
67144	7	Sololá	701	Sololá	3	Barraneche	12	Diciembre	2023-12-16T00:00:00	2024-11-06T16:00:00	8	Radiación solar	346
67145	7	Sololá	701	Sololá	3	Barraneche	12	Diciembre	2023-12-16T00:00:00	2024-11-06T17:00:00	2	Temperatura media	16.5
67146	7	Sololá	701	Sololá	3	Barraneche	12	Diciembre	2023-12-16T00:00:00	2024-11-06T17:00:00	4	Temperatura máxima	18.8
67147	7	Sololá	701	Sololá	3	Barraneche	12	Diciembre	2023-12-16T00:00:00	2024-11-06T17:00:00	3	Temperatura mínima	16.5
67148	7	Sololá	701	Sololá	3	Barraneche	12	Diciembre	2023-12-16T00:00:00	2024-11-06T17:00:00	5	Humedad	60
67149	7	Sololá	701	Sololá	3	Barraneche	12	Diciembre	2023-12-16T00:00:00	2024-11-06T17:00:00	6	Velocidad del viento	8
67150	7	Sololá	701	Sololá	3	Barraneche	12	Diciembre	2023-12-16T00:00:00	2024-11-06T17:00:00	7	Dirección del viento	8.05
67151	7	Sololá	701	Sololá	3	Barraneche	12	Diciembre	2023-12-16T00:00:00	2024-11-06T17:00:00	1	Precipitación	0
67152	7	Sololá	701	Sololá	3	Barraneche	12	Diciembre	2023-12-16T00:00:00	2024-11-06T17:00:00	8	Radiación solar	108
67153	7	Sololá	701	Sololá	3	Barraneche	12	Diciembre	2023-12-16T00:00:00	2024-11-06T18:00:00	2	Temperatura media	15.5
67154	7	Sololá	701	Sololá	3	Barraneche	12	Diciembre	2023-12-16T00:00:00	2024-11-06T18:00:00	4	Temperatura máxima	16.5
67155	7	Sololá	701	Sololá	3	Barraneche	12	Diciembre	2023-12-16T00:00:00	2024-11-06T18:00:00	3	Temperatura mínima	15.5
67156	7	Sololá	701	Sololá	3	Barraneche	12	Diciembre	2023-12-16T00:00:00	2024-11-06T18:00:00	5	Humedad	64
67157	7	Sololá	701	Sololá	3	Barraneche	12	Diciembre	2023-12-16T00:00:00	2024-11-06T18:00:00	6	Velocidad del viento	6.4
67158	7	Sololá	701	Sololá	3	Barraneche	12	Diciembre	2023-12-16T00:00:00	2024-11-06T18:00:00	7	Dirección del viento	6.44
67159	7	Sololá	701	Sololá	3	Barraneche	12	Diciembre	2023-12-16T00:00:00	2024-11-06T18:00:00	1	Precipitación	0
67160	7	Sololá	701	Sololá	3	Barraneche	12	Diciembre	2023-12-16T00:00:00	2024-11-06T18:00:00	8	Radiación solar	15
67161	7	Sololá	701	Sololá	3	Barraneche	12	Diciembre	2023-12-16T00:00:00	2024-11-06T19:00:00	2	Temperatura media	14.6
67162	7	Sololá	701	Sololá	3	Barraneche	12	Diciembre	2023-12-16T00:00:00	2024-11-06T19:00:00	4	Temperatura máxima	15.5
67163	7	Sololá	701	Sololá	3	Barraneche	12	Diciembre	2023-12-16T00:00:00	2024-11-06T19:00:00	3	Temperatura mínima	14.5
67164	7	Sololá	701	Sololá	3	Barraneche	12	Diciembre	2023-12-16T00:00:00	2024-11-06T19:00:00	5	Humedad	65
67165	7	Sololá	701	Sololá	3	Barraneche	12	Diciembre	2023-12-16T00:00:00	2024-11-06T19:00:00	6	Velocidad del viento	8
67166	7	Sololá	701	Sololá	3	Barraneche	12	Diciembre	2023-12-16T00:00:00	2024-11-06T19:00:00	7	Dirección del viento	8.05
67167	7	Sololá	701	Sololá	3	Barraneche	12	Diciembre	2023-12-16T00:00:00	2024-11-06T19:00:00	1	Precipitación	0
67168	7	Sololá	701	Sololá	3	Barraneche	12	Diciembre	2023-12-16T00:00:00	2024-11-06T19:00:00	8	Radiación solar	0
67169	7	Sololá	701	Sololá	3	Barraneche	12	Diciembre	2023-12-16T00:00:00	2024-11-06T20:00:00	2	Temperatura media	14.3
67170	7	Sololá	701	Sololá	3	Barraneche	12	Diciembre	2023-12-16T00:00:00	2024-11-06T20:00:00	4	Temperatura máxima	14.6
67171	7	Sololá	701	Sololá	3	Barraneche	12	Diciembre	2023-12-16T00:00:00	2024-11-06T20:00:00	3	Temperatura mínima	14.2
67172	7	Sololá	701	Sololá	3	Barraneche	12	Diciembre	2023-12-16T00:00:00	2024-11-06T20:00:00	5	Humedad	66
67173	7	Sololá	701	Sololá	3	Barraneche	12	Diciembre	2023-12-16T00:00:00	2024-11-06T20:00:00	6	Velocidad del viento	8
67174	7	Sololá	701	Sololá	3	Barraneche	12	Diciembre	2023-12-16T00:00:00	2024-11-06T20:00:00	7	Dirección del viento	8.05
67175	7	Sololá	701	Sololá	3	Barraneche	12	Diciembre	2023-12-16T00:00:00	2024-11-06T20:00:00	1	Precipitación	0
67176	7	Sololá	701	Sololá	3	Barraneche	12	Diciembre	2023-12-16T00:00:00	2024-11-06T20:00:00	8	Radiación solar	0
67177	7	Sololá	701	Sololá	3	Barraneche	12	Diciembre	2023-12-16T00:00:00	2024-11-06T21:00:00	2	Temperatura media	14.3
67178	7	Sololá	701	Sololá	3	Barraneche	12	Diciembre	2023-12-16T00:00:00	2024-11-06T21:00:00	4	Temperatura máxima	14.3
67179	7	Sololá	701	Sololá	3	Barraneche	12	Diciembre	2023-12-16T00:00:00	2024-11-06T21:00:00	3	Temperatura mínima	14.1
67180	7	Sololá	701	Sololá	3	Barraneche	12	Diciembre	2023-12-16T00:00:00	2024-11-06T21:00:00	5	Humedad	64
67181	7	Sololá	701	Sololá	3	Barraneche	12	Diciembre	2023-12-16T00:00:00	2024-11-06T21:00:00	6	Velocidad del viento	9.7
67182	7	Sololá	701	Sololá	3	Barraneche	12	Diciembre	2023-12-16T00:00:00	2024-11-06T21:00:00	7	Dirección del viento	9.66
67183	7	Sololá	701	Sololá	3	Barraneche	12	Diciembre	2023-12-16T00:00:00	2024-11-06T21:00:00	1	Precipitación	0
67184	7	Sololá	701	Sololá	3	Barraneche	12	Diciembre	2023-12-16T00:00:00	2024-11-06T21:00:00	8	Radiación solar	0
67185	7	Sololá	701	Sololá	3	Barraneche	12	Diciembre	2023-12-16T00:00:00	2024-11-06T22:00:00	2	Temperatura media	13.6
67186	7	Sololá	701	Sololá	3	Barraneche	12	Diciembre	2023-12-16T00:00:00	2024-11-06T22:00:00	4	Temperatura máxima	14.3
67187	7	Sololá	701	Sololá	3	Barraneche	12	Diciembre	2023-12-16T00:00:00	2024-11-06T22:00:00	3	Temperatura mínima	13.6
67188	7	Sololá	701	Sololá	3	Barraneche	12	Diciembre	2023-12-16T00:00:00	2024-11-06T22:00:00	5	Humedad	66
67189	7	Sololá	701	Sololá	3	Barraneche	12	Diciembre	2023-12-16T00:00:00	2024-11-06T22:00:00	6	Velocidad del viento	17.7
67190	7	Sololá	701	Sololá	3	Barraneche	12	Diciembre	2023-12-16T00:00:00	2024-11-06T22:00:00	7	Dirección del viento	17.7
67191	7	Sololá	701	Sololá	3	Barraneche	12	Diciembre	2023-12-16T00:00:00	2024-11-06T22:00:00	1	Precipitación	0
67192	7	Sololá	701	Sololá	3	Barraneche	12	Diciembre	2023-12-16T00:00:00	2024-11-06T22:00:00	8	Radiación solar	0
67193	7	Sololá	701	Sololá	3	Barraneche	12	Diciembre	2023-12-16T00:00:00	2024-11-06T23:00:00	2	Temperatura media	12.8
67194	7	Sololá	701	Sololá	3	Barraneche	12	Diciembre	2023-12-16T00:00:00	2024-11-06T23:00:00	4	Temperatura máxima	13.6
67195	7	Sololá	701	Sololá	3	Barraneche	12	Diciembre	2023-12-16T00:00:00	2024-11-06T23:00:00	3	Temperatura mínima	12.7
67196	7	Sololá	701	Sololá	3	Barraneche	12	Diciembre	2023-12-16T00:00:00	2024-11-06T23:00:00	5	Humedad	70
67197	7	Sololá	701	Sololá	3	Barraneche	12	Diciembre	2023-12-16T00:00:00	2024-11-06T23:00:00	6	Velocidad del viento	19.3
67198	7	Sololá	701	Sololá	3	Barraneche	12	Diciembre	2023-12-16T00:00:00	2024-11-06T23:00:00	7	Dirección del viento	19.31
67199	7	Sololá	701	Sololá	3	Barraneche	12	Diciembre	2023-12-16T00:00:00	2024-11-06T23:00:00	1	Precipitación	0
67200	7	Sololá	701	Sololá	3	Barraneche	12	Diciembre	2023-12-16T00:00:00	2024-11-06T23:00:00	8	Radiación solar	0
67201	7	Sololá	701	Sololá	3	Barraneche	12	Diciembre	2023-12-17T00:00:00	2024-11-06T00:00:00	2	Temperatura media	13.2
67202	7	Sololá	701	Sololá	3	Barraneche	12	Diciembre	2023-12-17T00:00:00	2024-11-06T00:00:00	4	Temperatura máxima	13.6
67203	7	Sololá	701	Sololá	3	Barraneche	12	Diciembre	2023-12-17T00:00:00	2024-11-06T00:00:00	3	Temperatura mínima	12.8
67204	7	Sololá	701	Sololá	3	Barraneche	12	Diciembre	2023-12-17T00:00:00	2024-11-06T00:00:00	5	Humedad	65
67205	7	Sololá	701	Sololá	3	Barraneche	12	Diciembre	2023-12-17T00:00:00	2024-11-06T00:00:00	6	Velocidad del viento	17.7
67206	7	Sololá	701	Sololá	3	Barraneche	12	Diciembre	2023-12-17T00:00:00	2024-11-06T00:00:00	7	Dirección del viento	17.7
67207	7	Sololá	701	Sololá	3	Barraneche	12	Diciembre	2023-12-17T00:00:00	2024-11-06T00:00:00	1	Precipitación	0
67208	7	Sololá	701	Sololá	3	Barraneche	12	Diciembre	2023-12-17T00:00:00	2024-11-06T00:00:00	8	Radiación solar	0
67209	7	Sololá	701	Sololá	3	Barraneche	12	Diciembre	2023-12-17T00:00:00	2024-11-06T01:00:00	2	Temperatura media	13
67210	7	Sololá	701	Sololá	3	Barraneche	12	Diciembre	2023-12-17T00:00:00	2024-11-06T01:00:00	4	Temperatura máxima	13.3
67211	7	Sololá	701	Sololá	3	Barraneche	12	Diciembre	2023-12-17T00:00:00	2024-11-06T01:00:00	3	Temperatura mínima	12.8
67212	7	Sololá	701	Sololá	3	Barraneche	12	Diciembre	2023-12-17T00:00:00	2024-11-06T01:00:00	5	Humedad	65
67213	7	Sololá	701	Sololá	3	Barraneche	12	Diciembre	2023-12-17T00:00:00	2024-11-06T01:00:00	6	Velocidad del viento	14.5
67214	7	Sololá	701	Sololá	3	Barraneche	12	Diciembre	2023-12-17T00:00:00	2024-11-06T01:00:00	7	Dirección del viento	14.48
67215	7	Sololá	701	Sololá	3	Barraneche	12	Diciembre	2023-12-17T00:00:00	2024-11-06T01:00:00	1	Precipitación	0
67216	7	Sololá	701	Sololá	3	Barraneche	12	Diciembre	2023-12-17T00:00:00	2024-11-06T01:00:00	8	Radiación solar	0
67217	7	Sololá	701	Sololá	3	Barraneche	12	Diciembre	2023-12-17T00:00:00	2024-11-06T02:00:00	2	Temperatura media	12.5
67218	7	Sololá	701	Sololá	3	Barraneche	12	Diciembre	2023-12-17T00:00:00	2024-11-06T02:00:00	4	Temperatura máxima	13
67219	7	Sololá	701	Sololá	3	Barraneche	12	Diciembre	2023-12-17T00:00:00	2024-11-06T02:00:00	3	Temperatura mínima	12.2
67220	7	Sololá	701	Sololá	3	Barraneche	12	Diciembre	2023-12-17T00:00:00	2024-11-06T02:00:00	5	Humedad	66
67221	7	Sololá	701	Sololá	3	Barraneche	12	Diciembre	2023-12-17T00:00:00	2024-11-06T02:00:00	6	Velocidad del viento	9.7
67222	7	Sololá	701	Sololá	3	Barraneche	12	Diciembre	2023-12-17T00:00:00	2024-11-06T02:00:00	7	Dirección del viento	9.66
67223	7	Sololá	701	Sololá	3	Barraneche	12	Diciembre	2023-12-17T00:00:00	2024-11-06T02:00:00	1	Precipitación	0
67224	7	Sololá	701	Sololá	3	Barraneche	12	Diciembre	2023-12-17T00:00:00	2024-11-06T02:00:00	8	Radiación solar	0
67225	7	Sololá	701	Sololá	3	Barraneche	12	Diciembre	2023-12-17T00:00:00	2024-11-06T03:00:00	2	Temperatura media	11.7
67226	7	Sololá	701	Sololá	3	Barraneche	12	Diciembre	2023-12-17T00:00:00	2024-11-06T03:00:00	4	Temperatura máxima	12.6
67227	7	Sololá	701	Sololá	3	Barraneche	12	Diciembre	2023-12-17T00:00:00	2024-11-06T03:00:00	3	Temperatura mínima	11.6
67228	7	Sololá	701	Sololá	3	Barraneche	12	Diciembre	2023-12-17T00:00:00	2024-11-06T03:00:00	5	Humedad	65
67229	7	Sololá	701	Sololá	3	Barraneche	12	Diciembre	2023-12-17T00:00:00	2024-11-06T03:00:00	6	Velocidad del viento	12.9
67230	7	Sololá	701	Sololá	3	Barraneche	12	Diciembre	2023-12-17T00:00:00	2024-11-06T03:00:00	7	Dirección del viento	12.87
67231	7	Sololá	701	Sololá	3	Barraneche	12	Diciembre	2023-12-17T00:00:00	2024-11-06T03:00:00	1	Precipitación	0
67232	7	Sololá	701	Sololá	3	Barraneche	12	Diciembre	2023-12-17T00:00:00	2024-11-06T03:00:00	8	Radiación solar	0
67233	7	Sololá	701	Sololá	3	Barraneche	12	Diciembre	2023-12-17T00:00:00	2024-11-06T04:00:00	2	Temperatura media	11.3
67234	7	Sololá	701	Sololá	3	Barraneche	12	Diciembre	2023-12-17T00:00:00	2024-11-06T04:00:00	4	Temperatura máxima	11.7
67235	7	Sololá	701	Sololá	3	Barraneche	12	Diciembre	2023-12-17T00:00:00	2024-11-06T04:00:00	3	Temperatura mínima	11.1
67236	7	Sololá	701	Sololá	3	Barraneche	12	Diciembre	2023-12-17T00:00:00	2024-11-06T04:00:00	5	Humedad	66
67237	7	Sololá	701	Sololá	3	Barraneche	12	Diciembre	2023-12-17T00:00:00	2024-11-06T04:00:00	6	Velocidad del viento	6.4
67238	7	Sololá	701	Sololá	3	Barraneche	12	Diciembre	2023-12-17T00:00:00	2024-11-06T04:00:00	7	Dirección del viento	6.44
67239	7	Sololá	701	Sololá	3	Barraneche	12	Diciembre	2023-12-17T00:00:00	2024-11-06T04:00:00	1	Precipitación	0
67240	7	Sololá	701	Sololá	3	Barraneche	12	Diciembre	2023-12-17T00:00:00	2024-11-06T04:00:00	8	Radiación solar	0
67241	7	Sololá	701	Sololá	3	Barraneche	12	Diciembre	2023-12-17T00:00:00	2024-11-06T05:00:00	2	Temperatura media	9.2
67242	7	Sololá	701	Sololá	3	Barraneche	12	Diciembre	2023-12-17T00:00:00	2024-11-06T05:00:00	4	Temperatura máxima	11.2
67243	7	Sololá	701	Sololá	3	Barraneche	12	Diciembre	2023-12-17T00:00:00	2024-11-06T05:00:00	3	Temperatura mínima	9.1
67244	7	Sololá	701	Sololá	3	Barraneche	12	Diciembre	2023-12-17T00:00:00	2024-11-06T05:00:00	5	Humedad	71
67245	7	Sololá	701	Sololá	3	Barraneche	12	Diciembre	2023-12-17T00:00:00	2024-11-06T05:00:00	6	Velocidad del viento	3.2
67246	7	Sololá	701	Sololá	3	Barraneche	12	Diciembre	2023-12-17T00:00:00	2024-11-06T05:00:00	7	Dirección del viento	3.22
67247	7	Sololá	701	Sololá	3	Barraneche	12	Diciembre	2023-12-17T00:00:00	2024-11-06T05:00:00	1	Precipitación	0
67248	7	Sololá	701	Sololá	3	Barraneche	12	Diciembre	2023-12-17T00:00:00	2024-11-06T05:00:00	8	Radiación solar	0
67249	7	Sololá	701	Sololá	3	Barraneche	12	Diciembre	2023-12-17T00:00:00	2024-11-06T06:00:00	2	Temperatura media	9.2
67250	7	Sololá	701	Sololá	3	Barraneche	12	Diciembre	2023-12-17T00:00:00	2024-11-06T06:00:00	4	Temperatura máxima	10.1
67251	7	Sololá	701	Sololá	3	Barraneche	12	Diciembre	2023-12-17T00:00:00	2024-11-06T06:00:00	3	Temperatura mínima	9.1
67252	7	Sololá	701	Sololá	3	Barraneche	12	Diciembre	2023-12-17T00:00:00	2024-11-06T06:00:00	5	Humedad	72
67253	7	Sololá	701	Sololá	3	Barraneche	12	Diciembre	2023-12-17T00:00:00	2024-11-06T06:00:00	6	Velocidad del viento	3.2
67254	7	Sololá	701	Sololá	3	Barraneche	12	Diciembre	2023-12-17T00:00:00	2024-11-06T06:00:00	7	Dirección del viento	3.22
67255	7	Sololá	701	Sololá	3	Barraneche	12	Diciembre	2023-12-17T00:00:00	2024-11-06T06:00:00	1	Precipitación	0
67256	7	Sololá	701	Sololá	3	Barraneche	12	Diciembre	2023-12-17T00:00:00	2024-11-06T06:00:00	8	Radiación solar	0
67257	7	Sololá	701	Sololá	3	Barraneche	12	Diciembre	2023-12-17T00:00:00	2024-11-06T07:00:00	2	Temperatura media	9.6
67258	7	Sololá	701	Sololá	3	Barraneche	12	Diciembre	2023-12-17T00:00:00	2024-11-06T07:00:00	4	Temperatura máxima	9.7
67259	7	Sololá	701	Sololá	3	Barraneche	12	Diciembre	2023-12-17T00:00:00	2024-11-06T07:00:00	3	Temperatura mínima	9.1
67260	7	Sololá	701	Sololá	3	Barraneche	12	Diciembre	2023-12-17T00:00:00	2024-11-06T07:00:00	5	Humedad	69
67261	7	Sololá	701	Sololá	3	Barraneche	12	Diciembre	2023-12-17T00:00:00	2024-11-06T07:00:00	6	Velocidad del viento	3.2
67262	7	Sololá	701	Sololá	3	Barraneche	12	Diciembre	2023-12-17T00:00:00	2024-11-06T07:00:00	7	Dirección del viento	3.22
67263	7	Sololá	701	Sololá	3	Barraneche	12	Diciembre	2023-12-17T00:00:00	2024-11-06T07:00:00	1	Precipitación	0
67264	7	Sololá	701	Sololá	3	Barraneche	12	Diciembre	2023-12-17T00:00:00	2024-11-06T07:00:00	8	Radiación solar	11
67265	7	Sololá	701	Sololá	3	Barraneche	12	Diciembre	2023-12-17T00:00:00	2024-11-06T08:00:00	2	Temperatura media	13.9
67266	7	Sololá	701	Sololá	3	Barraneche	12	Diciembre	2023-12-17T00:00:00	2024-11-06T08:00:00	4	Temperatura máxima	13.9
67267	7	Sololá	701	Sololá	3	Barraneche	12	Diciembre	2023-12-17T00:00:00	2024-11-06T08:00:00	3	Temperatura mínima	9.6
67268	7	Sololá	701	Sololá	3	Barraneche	12	Diciembre	2023-12-17T00:00:00	2024-11-06T08:00:00	5	Humedad	61
67269	7	Sololá	701	Sololá	3	Barraneche	12	Diciembre	2023-12-17T00:00:00	2024-11-06T08:00:00	6	Velocidad del viento	1.6
67270	7	Sololá	701	Sololá	3	Barraneche	12	Diciembre	2023-12-17T00:00:00	2024-11-06T08:00:00	7	Dirección del viento	1.61
67271	7	Sololá	701	Sololá	3	Barraneche	12	Diciembre	2023-12-17T00:00:00	2024-11-06T08:00:00	1	Precipitación	0
67272	7	Sololá	701	Sololá	3	Barraneche	12	Diciembre	2023-12-17T00:00:00	2024-11-06T08:00:00	8	Radiación solar	195
67273	7	Sololá	701	Sololá	3	Barraneche	12	Diciembre	2023-12-17T00:00:00	2024-11-06T09:00:00	2	Temperatura media	16
67274	7	Sololá	701	Sololá	3	Barraneche	12	Diciembre	2023-12-17T00:00:00	2024-11-06T09:00:00	4	Temperatura máxima	16
67275	7	Sololá	701	Sololá	3	Barraneche	12	Diciembre	2023-12-17T00:00:00	2024-11-06T09:00:00	3	Temperatura mínima	13.9
67276	7	Sololá	701	Sololá	3	Barraneche	12	Diciembre	2023-12-17T00:00:00	2024-11-06T09:00:00	5	Humedad	55
67277	7	Sololá	701	Sololá	3	Barraneche	12	Diciembre	2023-12-17T00:00:00	2024-11-06T09:00:00	6	Velocidad del viento	8
67278	7	Sololá	701	Sololá	3	Barraneche	12	Diciembre	2023-12-17T00:00:00	2024-11-06T09:00:00	7	Dirección del viento	8.05
67279	7	Sololá	701	Sololá	3	Barraneche	12	Diciembre	2023-12-17T00:00:00	2024-11-06T09:00:00	1	Precipitación	0
67280	7	Sololá	701	Sololá	3	Barraneche	12	Diciembre	2023-12-17T00:00:00	2024-11-06T09:00:00	8	Radiación solar	430
67281	7	Sololá	701	Sololá	3	Barraneche	12	Diciembre	2023-12-17T00:00:00	2024-11-06T10:00:00	2	Temperatura media	16.9
67282	7	Sololá	701	Sololá	3	Barraneche	12	Diciembre	2023-12-17T00:00:00	2024-11-06T10:00:00	4	Temperatura máxima	16.9
67283	7	Sololá	701	Sololá	3	Barraneche	12	Diciembre	2023-12-17T00:00:00	2024-11-06T10:00:00	3	Temperatura mínima	15.5
67284	7	Sololá	701	Sololá	3	Barraneche	12	Diciembre	2023-12-17T00:00:00	2024-11-06T10:00:00	5	Humedad	52
67285	7	Sololá	701	Sololá	3	Barraneche	12	Diciembre	2023-12-17T00:00:00	2024-11-06T10:00:00	6	Velocidad del viento	12.9
67286	7	Sololá	701	Sololá	3	Barraneche	12	Diciembre	2023-12-17T00:00:00	2024-11-06T10:00:00	7	Dirección del viento	12.87
67287	7	Sololá	701	Sololá	3	Barraneche	12	Diciembre	2023-12-17T00:00:00	2024-11-06T10:00:00	1	Precipitación	0
67288	7	Sololá	701	Sololá	3	Barraneche	12	Diciembre	2023-12-17T00:00:00	2024-11-06T10:00:00	8	Radiación solar	625
67289	7	Sololá	701	Sololá	3	Barraneche	12	Diciembre	2023-12-17T00:00:00	2024-11-06T11:00:00	2	Temperatura media	17.5
67290	7	Sololá	701	Sololá	3	Barraneche	12	Diciembre	2023-12-17T00:00:00	2024-11-06T11:00:00	4	Temperatura máxima	18.3
67291	7	Sololá	701	Sololá	3	Barraneche	12	Diciembre	2023-12-17T00:00:00	2024-11-06T11:00:00	3	Temperatura mínima	16.9
67292	7	Sololá	701	Sololá	3	Barraneche	12	Diciembre	2023-12-17T00:00:00	2024-11-06T11:00:00	5	Humedad	53
67293	7	Sololá	701	Sololá	3	Barraneche	12	Diciembre	2023-12-17T00:00:00	2024-11-06T11:00:00	6	Velocidad del viento	8
67294	7	Sololá	701	Sololá	3	Barraneche	12	Diciembre	2023-12-17T00:00:00	2024-11-06T11:00:00	7	Dirección del viento	8.05
67295	7	Sololá	701	Sololá	3	Barraneche	12	Diciembre	2023-12-17T00:00:00	2024-11-06T11:00:00	1	Precipitación	0
67296	7	Sololá	701	Sololá	3	Barraneche	12	Diciembre	2023-12-17T00:00:00	2024-11-06T11:00:00	8	Radiación solar	768
67297	7	Sololá	701	Sololá	3	Barraneche	12	Diciembre	2023-12-17T00:00:00	2024-11-06T12:00:00	2	Temperatura media	17.9
67298	7	Sololá	701	Sololá	3	Barraneche	12	Diciembre	2023-12-17T00:00:00	2024-11-06T12:00:00	4	Temperatura máxima	17.9
67299	7	Sololá	701	Sololá	3	Barraneche	12	Diciembre	2023-12-17T00:00:00	2024-11-06T12:00:00	3	Temperatura mínima	17.2
67300	7	Sololá	701	Sololá	3	Barraneche	12	Diciembre	2023-12-17T00:00:00	2024-11-06T12:00:00	5	Humedad	52
67301	7	Sololá	701	Sololá	3	Barraneche	12	Diciembre	2023-12-17T00:00:00	2024-11-06T12:00:00	6	Velocidad del viento	14.5
67302	7	Sololá	701	Sololá	3	Barraneche	12	Diciembre	2023-12-17T00:00:00	2024-11-06T12:00:00	7	Dirección del viento	14.48
67303	7	Sololá	701	Sololá	3	Barraneche	12	Diciembre	2023-12-17T00:00:00	2024-11-06T12:00:00	1	Precipitación	0
67304	7	Sololá	701	Sololá	3	Barraneche	12	Diciembre	2023-12-17T00:00:00	2024-11-06T12:00:00	8	Radiación solar	904
67305	7	Sololá	701	Sololá	3	Barraneche	12	Diciembre	2023-12-17T00:00:00	2024-11-06T13:00:00	2	Temperatura media	16.4
67306	7	Sololá	701	Sololá	3	Barraneche	12	Diciembre	2023-12-17T00:00:00	2024-11-06T13:00:00	4	Temperatura máxima	18.2
67307	7	Sololá	701	Sololá	3	Barraneche	12	Diciembre	2023-12-17T00:00:00	2024-11-06T13:00:00	3	Temperatura mínima	15.8
67308	7	Sololá	701	Sololá	3	Barraneche	12	Diciembre	2023-12-17T00:00:00	2024-11-06T13:00:00	5	Humedad	57
67309	7	Sololá	701	Sololá	3	Barraneche	12	Diciembre	2023-12-17T00:00:00	2024-11-06T13:00:00	6	Velocidad del viento	14.5
67310	7	Sololá	701	Sololá	3	Barraneche	12	Diciembre	2023-12-17T00:00:00	2024-11-06T13:00:00	7	Dirección del viento	14.48
67311	7	Sololá	701	Sololá	3	Barraneche	12	Diciembre	2023-12-17T00:00:00	2024-11-06T13:00:00	1	Precipitación	0
67312	7	Sololá	701	Sololá	3	Barraneche	12	Diciembre	2023-12-17T00:00:00	2024-11-06T13:00:00	8	Radiación solar	514
67313	7	Sololá	701	Sololá	3	Barraneche	12	Diciembre	2023-12-17T00:00:00	2024-11-06T14:00:00	2	Temperatura media	16.6
67314	7	Sololá	701	Sololá	3	Barraneche	12	Diciembre	2023-12-17T00:00:00	2024-11-06T14:00:00	4	Temperatura máxima	16.6
67315	7	Sololá	701	Sololá	3	Barraneche	12	Diciembre	2023-12-17T00:00:00	2024-11-06T14:00:00	3	Temperatura mínima	15.1
67316	7	Sololá	701	Sololá	3	Barraneche	12	Diciembre	2023-12-17T00:00:00	2024-11-06T14:00:00	5	Humedad	56
67317	7	Sololá	701	Sololá	3	Barraneche	12	Diciembre	2023-12-17T00:00:00	2024-11-06T14:00:00	6	Velocidad del viento	12.9
67318	7	Sololá	701	Sololá	3	Barraneche	12	Diciembre	2023-12-17T00:00:00	2024-11-06T14:00:00	7	Dirección del viento	12.87
67319	7	Sololá	701	Sololá	3	Barraneche	12	Diciembre	2023-12-17T00:00:00	2024-11-06T14:00:00	1	Precipitación	0
67320	7	Sololá	701	Sololá	3	Barraneche	12	Diciembre	2023-12-17T00:00:00	2024-11-06T14:00:00	8	Radiación solar	328
67321	7	Sololá	701	Sololá	3	Barraneche	12	Diciembre	2023-12-17T00:00:00	2024-11-06T15:00:00	2	Temperatura media	15.5
67322	7	Sololá	701	Sololá	3	Barraneche	12	Diciembre	2023-12-17T00:00:00	2024-11-06T15:00:00	4	Temperatura máxima	16.6
67323	7	Sololá	701	Sololá	3	Barraneche	12	Diciembre	2023-12-17T00:00:00	2024-11-06T15:00:00	3	Temperatura mínima	15.2
67324	7	Sololá	701	Sololá	3	Barraneche	12	Diciembre	2023-12-17T00:00:00	2024-11-06T15:00:00	5	Humedad	59
67325	7	Sololá	701	Sololá	3	Barraneche	12	Diciembre	2023-12-17T00:00:00	2024-11-06T15:00:00	6	Velocidad del viento	12.9
67326	7	Sololá	701	Sololá	3	Barraneche	12	Diciembre	2023-12-17T00:00:00	2024-11-06T15:00:00	7	Dirección del viento	12.87
67327	7	Sololá	701	Sololá	3	Barraneche	12	Diciembre	2023-12-17T00:00:00	2024-11-06T15:00:00	1	Precipitación	0
67328	7	Sololá	701	Sololá	3	Barraneche	12	Diciembre	2023-12-17T00:00:00	2024-11-06T15:00:00	8	Radiación solar	267
67329	7	Sololá	701	Sololá	3	Barraneche	12	Diciembre	2023-12-17T00:00:00	2024-11-06T16:00:00	2	Temperatura media	13.8
67330	7	Sololá	701	Sololá	3	Barraneche	12	Diciembre	2023-12-17T00:00:00	2024-11-06T16:00:00	4	Temperatura máxima	15.5
67331	7	Sololá	701	Sololá	3	Barraneche	12	Diciembre	2023-12-17T00:00:00	2024-11-06T16:00:00	3	Temperatura mínima	13.8
67332	7	Sololá	701	Sololá	3	Barraneche	12	Diciembre	2023-12-17T00:00:00	2024-11-06T16:00:00	5	Humedad	63
67333	7	Sololá	701	Sololá	3	Barraneche	12	Diciembre	2023-12-17T00:00:00	2024-11-06T16:00:00	6	Velocidad del viento	14.5
67334	7	Sololá	701	Sololá	3	Barraneche	12	Diciembre	2023-12-17T00:00:00	2024-11-06T16:00:00	7	Dirección del viento	14.48
67335	7	Sololá	701	Sololá	3	Barraneche	12	Diciembre	2023-12-17T00:00:00	2024-11-06T16:00:00	1	Precipitación	0
67336	7	Sololá	701	Sololá	3	Barraneche	12	Diciembre	2023-12-17T00:00:00	2024-11-06T16:00:00	8	Radiación solar	160
67337	7	Sololá	701	Sololá	3	Barraneche	12	Diciembre	2023-12-17T00:00:00	2024-11-06T17:00:00	2	Temperatura media	13.3
67338	7	Sololá	701	Sololá	3	Barraneche	12	Diciembre	2023-12-17T00:00:00	2024-11-06T17:00:00	4	Temperatura máxima	13.8
67339	7	Sololá	701	Sololá	3	Barraneche	12	Diciembre	2023-12-17T00:00:00	2024-11-06T17:00:00	3	Temperatura mínima	12.9
67340	7	Sololá	701	Sololá	3	Barraneche	12	Diciembre	2023-12-17T00:00:00	2024-11-06T17:00:00	5	Humedad	64
67341	7	Sololá	701	Sololá	3	Barraneche	12	Diciembre	2023-12-17T00:00:00	2024-11-06T17:00:00	6	Velocidad del viento	17.7
67342	7	Sololá	701	Sololá	3	Barraneche	12	Diciembre	2023-12-17T00:00:00	2024-11-06T17:00:00	7	Dirección del viento	17.7
67343	7	Sololá	701	Sololá	3	Barraneche	12	Diciembre	2023-12-17T00:00:00	2024-11-06T17:00:00	1	Precipitación	0
67344	7	Sololá	701	Sololá	3	Barraneche	12	Diciembre	2023-12-17T00:00:00	2024-11-06T17:00:00	8	Radiación solar	68
67345	7	Sololá	701	Sololá	3	Barraneche	12	Diciembre	2023-12-17T00:00:00	2024-11-06T18:00:00	2	Temperatura media	12.4
67346	7	Sololá	701	Sololá	3	Barraneche	12	Diciembre	2023-12-17T00:00:00	2024-11-06T18:00:00	4	Temperatura máxima	13.3
67347	7	Sololá	701	Sololá	3	Barraneche	12	Diciembre	2023-12-17T00:00:00	2024-11-06T18:00:00	3	Temperatura mínima	12.4
67348	7	Sololá	701	Sololá	3	Barraneche	12	Diciembre	2023-12-17T00:00:00	2024-11-06T18:00:00	5	Humedad	65
67349	7	Sololá	701	Sololá	3	Barraneche	12	Diciembre	2023-12-17T00:00:00	2024-11-06T18:00:00	6	Velocidad del viento	16.1
67350	7	Sololá	701	Sololá	3	Barraneche	12	Diciembre	2023-12-17T00:00:00	2024-11-06T18:00:00	7	Dirección del viento	16.09
67351	7	Sololá	701	Sololá	3	Barraneche	12	Diciembre	2023-12-17T00:00:00	2024-11-06T18:00:00	1	Precipitación	0
67352	7	Sololá	701	Sololá	3	Barraneche	12	Diciembre	2023-12-17T00:00:00	2024-11-06T18:00:00	8	Radiación solar	16
67353	7	Sololá	701	Sololá	3	Barraneche	12	Diciembre	2023-12-17T00:00:00	2024-11-06T19:00:00	2	Temperatura media	10.9
67354	7	Sololá	701	Sololá	3	Barraneche	12	Diciembre	2023-12-17T00:00:00	2024-11-06T19:00:00	4	Temperatura máxima	12.4
67355	7	Sololá	701	Sololá	3	Barraneche	12	Diciembre	2023-12-17T00:00:00	2024-11-06T19:00:00	3	Temperatura mínima	10.9
67356	7	Sololá	701	Sololá	3	Barraneche	12	Diciembre	2023-12-17T00:00:00	2024-11-06T19:00:00	5	Humedad	68
67357	7	Sololá	701	Sololá	3	Barraneche	12	Diciembre	2023-12-17T00:00:00	2024-11-06T19:00:00	6	Velocidad del viento	6.4
67358	7	Sololá	701	Sololá	3	Barraneche	12	Diciembre	2023-12-17T00:00:00	2024-11-06T19:00:00	7	Dirección del viento	6.44
67359	7	Sololá	701	Sololá	3	Barraneche	12	Diciembre	2023-12-17T00:00:00	2024-11-06T19:00:00	1	Precipitación	0
67360	7	Sololá	701	Sololá	3	Barraneche	12	Diciembre	2023-12-17T00:00:00	2024-11-06T19:00:00	8	Radiación solar	0
67361	7	Sololá	701	Sololá	3	Barraneche	12	Diciembre	2023-12-17T00:00:00	2024-11-06T20:00:00	2	Temperatura media	10.2
67362	7	Sololá	701	Sololá	3	Barraneche	12	Diciembre	2023-12-17T00:00:00	2024-11-06T20:00:00	4	Temperatura máxima	11.7
67363	7	Sololá	701	Sololá	3	Barraneche	12	Diciembre	2023-12-17T00:00:00	2024-11-06T20:00:00	3	Temperatura mínima	10.2
67364	7	Sololá	701	Sololá	3	Barraneche	12	Diciembre	2023-12-17T00:00:00	2024-11-06T20:00:00	5	Humedad	69
67365	7	Sololá	701	Sololá	3	Barraneche	12	Diciembre	2023-12-17T00:00:00	2024-11-06T20:00:00	6	Velocidad del viento	4.8
67366	7	Sololá	701	Sololá	3	Barraneche	12	Diciembre	2023-12-17T00:00:00	2024-11-06T20:00:00	7	Dirección del viento	4.83
67367	7	Sololá	701	Sololá	3	Barraneche	12	Diciembre	2023-12-17T00:00:00	2024-11-06T20:00:00	1	Precipitación	0
67368	7	Sololá	701	Sololá	3	Barraneche	12	Diciembre	2023-12-17T00:00:00	2024-11-06T20:00:00	8	Radiación solar	0
67369	7	Sololá	701	Sololá	3	Barraneche	12	Diciembre	2023-12-17T00:00:00	2024-11-06T21:00:00	2	Temperatura media	11.1
67370	7	Sololá	701	Sololá	3	Barraneche	12	Diciembre	2023-12-17T00:00:00	2024-11-06T21:00:00	4	Temperatura máxima	11.2
67371	7	Sololá	701	Sololá	3	Barraneche	12	Diciembre	2023-12-17T00:00:00	2024-11-06T21:00:00	3	Temperatura mínima	9.5
67372	7	Sololá	701	Sololá	3	Barraneche	12	Diciembre	2023-12-17T00:00:00	2024-11-06T21:00:00	5	Humedad	67
67373	7	Sololá	701	Sololá	3	Barraneche	12	Diciembre	2023-12-17T00:00:00	2024-11-06T21:00:00	6	Velocidad del viento	6.4
67374	7	Sololá	701	Sololá	3	Barraneche	12	Diciembre	2023-12-17T00:00:00	2024-11-06T21:00:00	7	Dirección del viento	6.44
67375	7	Sololá	701	Sololá	3	Barraneche	12	Diciembre	2023-12-17T00:00:00	2024-11-06T21:00:00	1	Precipitación	0
67376	7	Sololá	701	Sololá	3	Barraneche	12	Diciembre	2023-12-17T00:00:00	2024-11-06T21:00:00	8	Radiación solar	0
67377	7	Sololá	701	Sololá	3	Barraneche	12	Diciembre	2023-12-17T00:00:00	2024-11-06T22:00:00	2	Temperatura media	11
67378	7	Sololá	701	Sololá	3	Barraneche	12	Diciembre	2023-12-17T00:00:00	2024-11-06T22:00:00	4	Temperatura máxima	11.5
67379	7	Sololá	701	Sololá	3	Barraneche	12	Diciembre	2023-12-17T00:00:00	2024-11-06T22:00:00	3	Temperatura mínima	10.9
67380	7	Sololá	701	Sololá	3	Barraneche	12	Diciembre	2023-12-17T00:00:00	2024-11-06T22:00:00	5	Humedad	66
67381	7	Sololá	701	Sololá	3	Barraneche	12	Diciembre	2023-12-17T00:00:00	2024-11-06T22:00:00	6	Velocidad del viento	11.3
67382	7	Sololá	701	Sololá	3	Barraneche	12	Diciembre	2023-12-17T00:00:00	2024-11-06T22:00:00	7	Dirección del viento	11.27
67383	7	Sololá	701	Sololá	3	Barraneche	12	Diciembre	2023-12-17T00:00:00	2024-11-06T22:00:00	1	Precipitación	0
67384	7	Sololá	701	Sololá	3	Barraneche	12	Diciembre	2023-12-17T00:00:00	2024-11-06T22:00:00	8	Radiación solar	0
67385	7	Sololá	701	Sololá	3	Barraneche	12	Diciembre	2023-12-17T00:00:00	2024-11-06T23:00:00	2	Temperatura media	8.6
67386	7	Sololá	701	Sololá	3	Barraneche	12	Diciembre	2023-12-17T00:00:00	2024-11-06T23:00:00	4	Temperatura máxima	10.9
67387	7	Sololá	701	Sololá	3	Barraneche	12	Diciembre	2023-12-17T00:00:00	2024-11-06T23:00:00	3	Temperatura mínima	8.6
67388	7	Sololá	701	Sololá	3	Barraneche	12	Diciembre	2023-12-17T00:00:00	2024-11-06T23:00:00	5	Humedad	61
67389	7	Sololá	701	Sololá	3	Barraneche	12	Diciembre	2023-12-17T00:00:00	2024-11-06T23:00:00	6	Velocidad del viento	3.2
67390	7	Sololá	701	Sololá	3	Barraneche	12	Diciembre	2023-12-17T00:00:00	2024-11-06T23:00:00	7	Dirección del viento	3.22
67391	7	Sololá	701	Sololá	3	Barraneche	12	Diciembre	2023-12-17T00:00:00	2024-11-06T23:00:00	1	Precipitación	0
67392	7	Sololá	701	Sololá	3	Barraneche	12	Diciembre	2023-12-17T00:00:00	2024-11-06T23:00:00	8	Radiación solar	0
67393	7	Sololá	701	Sololá	3	Barraneche	12	Diciembre	2023-12-18T00:00:00	2024-11-06T00:00:00	2	Temperatura media	9
67394	7	Sololá	701	Sololá	3	Barraneche	12	Diciembre	2023-12-18T00:00:00	2024-11-06T00:00:00	4	Temperatura máxima	9.2
67395	7	Sololá	701	Sololá	3	Barraneche	12	Diciembre	2023-12-18T00:00:00	2024-11-06T00:00:00	3	Temperatura mínima	8.6
67396	7	Sololá	701	Sololá	3	Barraneche	12	Diciembre	2023-12-18T00:00:00	2024-11-06T00:00:00	5	Humedad	53
67397	7	Sololá	701	Sololá	3	Barraneche	12	Diciembre	2023-12-18T00:00:00	2024-11-06T00:00:00	6	Velocidad del viento	6.4
67398	7	Sololá	701	Sololá	3	Barraneche	12	Diciembre	2023-12-18T00:00:00	2024-11-06T00:00:00	7	Dirección del viento	6.44
67399	7	Sololá	701	Sololá	3	Barraneche	12	Diciembre	2023-12-18T00:00:00	2024-11-06T00:00:00	1	Precipitación	0
67400	7	Sololá	701	Sololá	3	Barraneche	12	Diciembre	2023-12-18T00:00:00	2024-11-06T00:00:00	8	Radiación solar	0
67401	7	Sololá	701	Sololá	3	Barraneche	12	Diciembre	2023-12-18T00:00:00	2024-11-06T01:00:00	2	Temperatura media	11.9
67402	7	Sololá	701	Sololá	3	Barraneche	12	Diciembre	2023-12-18T00:00:00	2024-11-06T01:00:00	4	Temperatura máxima	11.9
67403	7	Sololá	701	Sololá	3	Barraneche	12	Diciembre	2023-12-18T00:00:00	2024-11-06T01:00:00	3	Temperatura mínima	9
67404	7	Sololá	701	Sololá	3	Barraneche	12	Diciembre	2023-12-18T00:00:00	2024-11-06T01:00:00	5	Humedad	33
67405	7	Sololá	701	Sololá	3	Barraneche	12	Diciembre	2023-12-18T00:00:00	2024-11-06T01:00:00	6	Velocidad del viento	9.7
67406	7	Sololá	701	Sololá	3	Barraneche	12	Diciembre	2023-12-18T00:00:00	2024-11-06T01:00:00	7	Dirección del viento	9.66
67407	7	Sololá	701	Sololá	3	Barraneche	12	Diciembre	2023-12-18T00:00:00	2024-11-06T01:00:00	1	Precipitación	0
67408	7	Sololá	701	Sololá	3	Barraneche	12	Diciembre	2023-12-18T00:00:00	2024-11-06T01:00:00	8	Radiación solar	0
67409	7	Sololá	701	Sololá	3	Barraneche	12	Diciembre	2023-12-18T00:00:00	2024-11-06T02:00:00	2	Temperatura media	9.3
67410	7	Sololá	701	Sololá	3	Barraneche	12	Diciembre	2023-12-18T00:00:00	2024-11-06T02:00:00	4	Temperatura máxima	11.9
67411	7	Sololá	701	Sololá	3	Barraneche	12	Diciembre	2023-12-18T00:00:00	2024-11-06T02:00:00	3	Temperatura mínima	9.3
67412	7	Sololá	701	Sololá	3	Barraneche	12	Diciembre	2023-12-18T00:00:00	2024-11-06T02:00:00	5	Humedad	36
67413	7	Sololá	701	Sololá	3	Barraneche	12	Diciembre	2023-12-18T00:00:00	2024-11-06T02:00:00	6	Velocidad del viento	9.7
67414	7	Sololá	701	Sololá	3	Barraneche	12	Diciembre	2023-12-18T00:00:00	2024-11-06T02:00:00	7	Dirección del viento	9.66
67415	7	Sololá	701	Sololá	3	Barraneche	12	Diciembre	2023-12-18T00:00:00	2024-11-06T02:00:00	1	Precipitación	0
67416	7	Sololá	701	Sololá	3	Barraneche	12	Diciembre	2023-12-18T00:00:00	2024-11-06T02:00:00	8	Radiación solar	0
67417	7	Sololá	701	Sololá	3	Barraneche	12	Diciembre	2023-12-18T00:00:00	2024-11-06T03:00:00	2	Temperatura media	8.7
67418	7	Sololá	701	Sololá	3	Barraneche	12	Diciembre	2023-12-18T00:00:00	2024-11-06T03:00:00	4	Temperatura máxima	9.6
67419	7	Sololá	701	Sololá	3	Barraneche	12	Diciembre	2023-12-18T00:00:00	2024-11-06T03:00:00	3	Temperatura mínima	8.7
67420	7	Sololá	701	Sololá	3	Barraneche	12	Diciembre	2023-12-18T00:00:00	2024-11-06T03:00:00	5	Humedad	51
67421	7	Sololá	701	Sololá	3	Barraneche	12	Diciembre	2023-12-18T00:00:00	2024-11-06T03:00:00	6	Velocidad del viento	11.3
67422	7	Sololá	701	Sololá	3	Barraneche	12	Diciembre	2023-12-18T00:00:00	2024-11-06T03:00:00	7	Dirección del viento	11.27
67423	7	Sololá	701	Sololá	3	Barraneche	12	Diciembre	2023-12-18T00:00:00	2024-11-06T03:00:00	1	Precipitación	0
67424	7	Sololá	701	Sololá	3	Barraneche	12	Diciembre	2023-12-18T00:00:00	2024-11-06T03:00:00	8	Radiación solar	0
67425	7	Sololá	701	Sololá	3	Barraneche	12	Diciembre	2023-12-18T00:00:00	2024-11-06T04:00:00	2	Temperatura media	9.2
67426	7	Sololá	701	Sololá	3	Barraneche	12	Diciembre	2023-12-18T00:00:00	2024-11-06T04:00:00	4	Temperatura máxima	9.8
67427	7	Sololá	701	Sololá	3	Barraneche	12	Diciembre	2023-12-18T00:00:00	2024-11-06T04:00:00	3	Temperatura mínima	8.7
67428	7	Sololá	701	Sololá	3	Barraneche	12	Diciembre	2023-12-18T00:00:00	2024-11-06T04:00:00	5	Humedad	49
67429	7	Sololá	701	Sololá	3	Barraneche	12	Diciembre	2023-12-18T00:00:00	2024-11-06T04:00:00	6	Velocidad del viento	12.9
67430	7	Sololá	701	Sololá	3	Barraneche	12	Diciembre	2023-12-18T00:00:00	2024-11-06T04:00:00	7	Dirección del viento	12.87
67431	7	Sololá	701	Sololá	3	Barraneche	12	Diciembre	2023-12-18T00:00:00	2024-11-06T04:00:00	1	Precipitación	0
67432	7	Sololá	701	Sololá	3	Barraneche	12	Diciembre	2023-12-18T00:00:00	2024-11-06T04:00:00	8	Radiación solar	0
67433	7	Sololá	701	Sololá	3	Barraneche	12	Diciembre	2023-12-18T00:00:00	2024-11-06T05:00:00	2	Temperatura media	9.2
67434	7	Sololá	701	Sololá	3	Barraneche	12	Diciembre	2023-12-18T00:00:00	2024-11-06T05:00:00	4	Temperatura máxima	9.9
67435	7	Sololá	701	Sololá	3	Barraneche	12	Diciembre	2023-12-18T00:00:00	2024-11-06T05:00:00	3	Temperatura mínima	8.9
67436	7	Sololá	701	Sololá	3	Barraneche	12	Diciembre	2023-12-18T00:00:00	2024-11-06T05:00:00	5	Humedad	40
67437	7	Sololá	701	Sololá	3	Barraneche	12	Diciembre	2023-12-18T00:00:00	2024-11-06T05:00:00	6	Velocidad del viento	12.9
67438	7	Sololá	701	Sololá	3	Barraneche	12	Diciembre	2023-12-18T00:00:00	2024-11-06T05:00:00	7	Dirección del viento	12.87
67439	7	Sololá	701	Sololá	3	Barraneche	12	Diciembre	2023-12-18T00:00:00	2024-11-06T05:00:00	1	Precipitación	0
67440	7	Sololá	701	Sololá	3	Barraneche	12	Diciembre	2023-12-18T00:00:00	2024-11-06T05:00:00	8	Radiación solar	0
67441	7	Sololá	701	Sololá	3	Barraneche	12	Diciembre	2023-12-18T00:00:00	2024-11-06T06:00:00	2	Temperatura media	8.7
67442	7	Sololá	701	Sololá	3	Barraneche	12	Diciembre	2023-12-18T00:00:00	2024-11-06T06:00:00	4	Temperatura máxima	9.2
67443	7	Sololá	701	Sololá	3	Barraneche	12	Diciembre	2023-12-18T00:00:00	2024-11-06T06:00:00	3	Temperatura mínima	8.6
67444	7	Sololá	701	Sololá	3	Barraneche	12	Diciembre	2023-12-18T00:00:00	2024-11-06T06:00:00	5	Humedad	39
67445	7	Sololá	701	Sololá	3	Barraneche	12	Diciembre	2023-12-18T00:00:00	2024-11-06T06:00:00	6	Velocidad del viento	11.3
67446	7	Sololá	701	Sololá	3	Barraneche	12	Diciembre	2023-12-18T00:00:00	2024-11-06T06:00:00	7	Dirección del viento	11.27
67447	7	Sololá	701	Sololá	3	Barraneche	12	Diciembre	2023-12-18T00:00:00	2024-11-06T06:00:00	1	Precipitación	0
67448	7	Sololá	701	Sololá	3	Barraneche	12	Diciembre	2023-12-18T00:00:00	2024-11-06T06:00:00	8	Radiación solar	0
67449	7	Sololá	701	Sololá	3	Barraneche	12	Diciembre	2023-12-18T00:00:00	2024-11-06T07:00:00	2	Temperatura media	8.7
67450	7	Sololá	701	Sololá	3	Barraneche	12	Diciembre	2023-12-18T00:00:00	2024-11-06T07:00:00	4	Temperatura máxima	9.3
67451	7	Sololá	701	Sololá	3	Barraneche	12	Diciembre	2023-12-18T00:00:00	2024-11-06T07:00:00	3	Temperatura mínima	8.6
67452	7	Sololá	701	Sololá	3	Barraneche	12	Diciembre	2023-12-18T00:00:00	2024-11-06T07:00:00	5	Humedad	46
67453	7	Sololá	701	Sololá	3	Barraneche	12	Diciembre	2023-12-18T00:00:00	2024-11-06T07:00:00	6	Velocidad del viento	11.3
67454	7	Sololá	701	Sololá	3	Barraneche	12	Diciembre	2023-12-18T00:00:00	2024-11-06T07:00:00	7	Dirección del viento	11.27
67455	7	Sololá	701	Sololá	3	Barraneche	12	Diciembre	2023-12-18T00:00:00	2024-11-06T07:00:00	1	Precipitación	0
67456	7	Sololá	701	Sololá	3	Barraneche	12	Diciembre	2023-12-18T00:00:00	2024-11-06T07:00:00	8	Radiación solar	9
67457	7	Sololá	701	Sololá	3	Barraneche	12	Diciembre	2023-12-18T00:00:00	2024-11-06T08:00:00	2	Temperatura media	13
67458	7	Sololá	701	Sololá	3	Barraneche	12	Diciembre	2023-12-18T00:00:00	2024-11-06T08:00:00	4	Temperatura máxima	13
67459	7	Sololá	701	Sololá	3	Barraneche	12	Diciembre	2023-12-18T00:00:00	2024-11-06T08:00:00	3	Temperatura mínima	8.7
67460	7	Sololá	701	Sololá	3	Barraneche	12	Diciembre	2023-12-18T00:00:00	2024-11-06T08:00:00	5	Humedad	46
67461	7	Sololá	701	Sololá	3	Barraneche	12	Diciembre	2023-12-18T00:00:00	2024-11-06T08:00:00	6	Velocidad del viento	8
67462	7	Sololá	701	Sololá	3	Barraneche	12	Diciembre	2023-12-18T00:00:00	2024-11-06T08:00:00	7	Dirección del viento	8.05
67463	7	Sololá	701	Sololá	3	Barraneche	12	Diciembre	2023-12-18T00:00:00	2024-11-06T08:00:00	1	Precipitación	0
67464	7	Sololá	701	Sololá	3	Barraneche	12	Diciembre	2023-12-18T00:00:00	2024-11-06T08:00:00	8	Radiación solar	202
67465	7	Sololá	701	Sololá	3	Barraneche	12	Diciembre	2023-12-18T00:00:00	2024-11-06T09:00:00	2	Temperatura media	16.9
67466	7	Sololá	701	Sololá	3	Barraneche	12	Diciembre	2023-12-18T00:00:00	2024-11-06T09:00:00	4	Temperatura máxima	16.9
67467	7	Sololá	701	Sololá	3	Barraneche	12	Diciembre	2023-12-18T00:00:00	2024-11-06T09:00:00	3	Temperatura mínima	13.1
67468	7	Sololá	701	Sololá	3	Barraneche	12	Diciembre	2023-12-18T00:00:00	2024-11-06T09:00:00	5	Humedad	34
67469	7	Sololá	701	Sololá	3	Barraneche	12	Diciembre	2023-12-18T00:00:00	2024-11-06T09:00:00	6	Velocidad del viento	3.2
67470	7	Sololá	701	Sololá	3	Barraneche	12	Diciembre	2023-12-18T00:00:00	2024-11-06T09:00:00	7	Dirección del viento	3.22
67471	7	Sololá	701	Sololá	3	Barraneche	12	Diciembre	2023-12-18T00:00:00	2024-11-06T09:00:00	1	Precipitación	0
67472	7	Sololá	701	Sololá	3	Barraneche	12	Diciembre	2023-12-18T00:00:00	2024-11-06T09:00:00	8	Radiación solar	445
67473	7	Sololá	701	Sololá	3	Barraneche	12	Diciembre	2023-12-18T00:00:00	2024-11-06T10:00:00	2	Temperatura media	19
67474	7	Sololá	701	Sololá	3	Barraneche	12	Diciembre	2023-12-18T00:00:00	2024-11-06T10:00:00	4	Temperatura máxima	19
67475	7	Sololá	701	Sololá	3	Barraneche	12	Diciembre	2023-12-18T00:00:00	2024-11-06T10:00:00	3	Temperatura mínima	16.9
67476	7	Sololá	701	Sololá	3	Barraneche	12	Diciembre	2023-12-18T00:00:00	2024-11-06T10:00:00	5	Humedad	19
67477	7	Sololá	701	Sololá	3	Barraneche	12	Diciembre	2023-12-18T00:00:00	2024-11-06T10:00:00	6	Velocidad del viento	3.2
67478	7	Sololá	701	Sololá	3	Barraneche	12	Diciembre	2023-12-18T00:00:00	2024-11-06T10:00:00	7	Dirección del viento	3.22
67479	7	Sololá	701	Sololá	3	Barraneche	12	Diciembre	2023-12-18T00:00:00	2024-11-06T10:00:00	1	Precipitación	0
67480	7	Sololá	701	Sololá	3	Barraneche	12	Diciembre	2023-12-18T00:00:00	2024-11-06T10:00:00	8	Radiación solar	657
67481	7	Sololá	701	Sololá	3	Barraneche	12	Diciembre	2023-12-18T00:00:00	2024-11-06T11:00:00	2	Temperatura media	19.4
67482	7	Sololá	701	Sololá	3	Barraneche	12	Diciembre	2023-12-18T00:00:00	2024-11-06T11:00:00	4	Temperatura máxima	20.4
67483	7	Sololá	701	Sololá	3	Barraneche	12	Diciembre	2023-12-18T00:00:00	2024-11-06T11:00:00	3	Temperatura mínima	19
67484	7	Sololá	701	Sololá	3	Barraneche	12	Diciembre	2023-12-18T00:00:00	2024-11-06T11:00:00	5	Humedad	15
67485	7	Sololá	701	Sololá	3	Barraneche	12	Diciembre	2023-12-18T00:00:00	2024-11-06T11:00:00	6	Velocidad del viento	9.7
67486	7	Sololá	701	Sololá	3	Barraneche	12	Diciembre	2023-12-18T00:00:00	2024-11-06T11:00:00	7	Dirección del viento	9.66
67487	7	Sololá	701	Sololá	3	Barraneche	12	Diciembre	2023-12-18T00:00:00	2024-11-06T11:00:00	1	Precipitación	0
67488	7	Sololá	701	Sololá	3	Barraneche	12	Diciembre	2023-12-18T00:00:00	2024-11-06T11:00:00	8	Radiación solar	799
67489	7	Sololá	701	Sololá	3	Barraneche	12	Diciembre	2023-12-18T00:00:00	2024-11-06T12:00:00	2	Temperatura media	19.2
67490	7	Sololá	701	Sololá	3	Barraneche	12	Diciembre	2023-12-18T00:00:00	2024-11-06T12:00:00	4	Temperatura máxima	19.8
67491	7	Sololá	701	Sololá	3	Barraneche	12	Diciembre	2023-12-18T00:00:00	2024-11-06T12:00:00	3	Temperatura mínima	19.1
67492	7	Sololá	701	Sololá	3	Barraneche	12	Diciembre	2023-12-18T00:00:00	2024-11-06T12:00:00	5	Humedad	21
67493	7	Sololá	701	Sololá	3	Barraneche	12	Diciembre	2023-12-18T00:00:00	2024-11-06T12:00:00	6	Velocidad del viento	11.3
67494	7	Sololá	701	Sololá	3	Barraneche	12	Diciembre	2023-12-18T00:00:00	2024-11-06T12:00:00	7	Dirección del viento	11.27
67495	7	Sololá	701	Sololá	3	Barraneche	12	Diciembre	2023-12-18T00:00:00	2024-11-06T12:00:00	1	Precipitación	0
67496	7	Sololá	701	Sololá	3	Barraneche	12	Diciembre	2023-12-18T00:00:00	2024-11-06T12:00:00	8	Radiación solar	856
67497	7	Sololá	701	Sololá	3	Barraneche	12	Diciembre	2023-12-18T00:00:00	2024-11-06T13:00:00	2	Temperatura media	19.1
67498	7	Sololá	701	Sololá	3	Barraneche	12	Diciembre	2023-12-18T00:00:00	2024-11-06T13:00:00	4	Temperatura máxima	19.3
67499	7	Sololá	701	Sololá	3	Barraneche	12	Diciembre	2023-12-18T00:00:00	2024-11-06T13:00:00	3	Temperatura mínima	18.9
67500	7	Sololá	701	Sololá	3	Barraneche	12	Diciembre	2023-12-18T00:00:00	2024-11-06T13:00:00	5	Humedad	25
67501	7	Sololá	701	Sololá	3	Barraneche	12	Diciembre	2023-12-18T00:00:00	2024-11-06T13:00:00	6	Velocidad del viento	19.3
67502	7	Sololá	701	Sololá	3	Barraneche	12	Diciembre	2023-12-18T00:00:00	2024-11-06T13:00:00	7	Dirección del viento	19.31
67503	7	Sololá	701	Sololá	3	Barraneche	12	Diciembre	2023-12-18T00:00:00	2024-11-06T13:00:00	1	Precipitación	0
67504	7	Sololá	701	Sololá	3	Barraneche	12	Diciembre	2023-12-18T00:00:00	2024-11-06T13:00:00	8	Radiación solar	851
67505	7	Sololá	701	Sololá	3	Barraneche	12	Diciembre	2023-12-18T00:00:00	2024-11-06T14:00:00	2	Temperatura media	18.3
67506	7	Sololá	701	Sololá	3	Barraneche	12	Diciembre	2023-12-18T00:00:00	2024-11-06T14:00:00	4	Temperatura máxima	19.6
67507	7	Sololá	701	Sololá	3	Barraneche	12	Diciembre	2023-12-18T00:00:00	2024-11-06T14:00:00	3	Temperatura mínima	18.3
67508	7	Sololá	701	Sololá	3	Barraneche	12	Diciembre	2023-12-18T00:00:00	2024-11-06T14:00:00	5	Humedad	27
67509	7	Sololá	701	Sololá	3	Barraneche	12	Diciembre	2023-12-18T00:00:00	2024-11-06T14:00:00	6	Velocidad del viento	17.7
67510	7	Sololá	701	Sololá	3	Barraneche	12	Diciembre	2023-12-18T00:00:00	2024-11-06T14:00:00	7	Dirección del viento	17.7
67511	7	Sololá	701	Sololá	3	Barraneche	12	Diciembre	2023-12-18T00:00:00	2024-11-06T14:00:00	1	Precipitación	0
67512	7	Sololá	701	Sololá	3	Barraneche	12	Diciembre	2023-12-18T00:00:00	2024-11-06T14:00:00	8	Radiación solar	768
67513	7	Sololá	701	Sololá	3	Barraneche	12	Diciembre	2023-12-18T00:00:00	2024-11-06T15:00:00	2	Temperatura media	17.6
67514	7	Sololá	701	Sololá	3	Barraneche	12	Diciembre	2023-12-18T00:00:00	2024-11-06T15:00:00	4	Temperatura máxima	18.9
67515	7	Sololá	701	Sololá	3	Barraneche	12	Diciembre	2023-12-18T00:00:00	2024-11-06T15:00:00	3	Temperatura mínima	17.6
67516	7	Sololá	701	Sololá	3	Barraneche	12	Diciembre	2023-12-18T00:00:00	2024-11-06T15:00:00	5	Humedad	21
67517	7	Sololá	701	Sololá	3	Barraneche	12	Diciembre	2023-12-18T00:00:00	2024-11-06T15:00:00	6	Velocidad del viento	16.1
67518	7	Sololá	701	Sololá	3	Barraneche	12	Diciembre	2023-12-18T00:00:00	2024-11-06T15:00:00	7	Dirección del viento	16.09
67519	7	Sololá	701	Sololá	3	Barraneche	12	Diciembre	2023-12-18T00:00:00	2024-11-06T15:00:00	1	Precipitación	0
67520	7	Sololá	701	Sololá	3	Barraneche	12	Diciembre	2023-12-18T00:00:00	2024-11-06T15:00:00	8	Radiación solar	626
67521	7	Sololá	701	Sololá	3	Barraneche	12	Diciembre	2023-12-18T00:00:00	2024-11-06T16:00:00	2	Temperatura media	16.6
67522	7	Sololá	701	Sololá	3	Barraneche	12	Diciembre	2023-12-18T00:00:00	2024-11-06T16:00:00	4	Temperatura máxima	17.6
67523	7	Sololá	701	Sololá	3	Barraneche	12	Diciembre	2023-12-18T00:00:00	2024-11-06T16:00:00	3	Temperatura mínima	16.4
67524	7	Sololá	701	Sololá	3	Barraneche	12	Diciembre	2023-12-18T00:00:00	2024-11-06T16:00:00	5	Humedad	23
67525	7	Sololá	701	Sololá	3	Barraneche	12	Diciembre	2023-12-18T00:00:00	2024-11-06T16:00:00	6	Velocidad del viento	16.1
67526	7	Sololá	701	Sololá	3	Barraneche	12	Diciembre	2023-12-18T00:00:00	2024-11-06T16:00:00	7	Dirección del viento	16.09
67527	7	Sololá	701	Sololá	3	Barraneche	12	Diciembre	2023-12-18T00:00:00	2024-11-06T16:00:00	1	Precipitación	0
67528	7	Sololá	701	Sololá	3	Barraneche	12	Diciembre	2023-12-18T00:00:00	2024-11-06T16:00:00	8	Radiación solar	433
67529	7	Sololá	701	Sololá	3	Barraneche	12	Diciembre	2023-12-18T00:00:00	2024-11-06T17:00:00	2	Temperatura media	14.3
67530	7	Sololá	701	Sololá	3	Barraneche	12	Diciembre	2023-12-18T00:00:00	2024-11-06T17:00:00	4	Temperatura máxima	16.6
67531	7	Sololá	701	Sololá	3	Barraneche	12	Diciembre	2023-12-18T00:00:00	2024-11-06T17:00:00	3	Temperatura mínima	14.3
67532	7	Sololá	701	Sololá	3	Barraneche	12	Diciembre	2023-12-18T00:00:00	2024-11-06T17:00:00	5	Humedad	27
67533	7	Sololá	701	Sololá	3	Barraneche	12	Diciembre	2023-12-18T00:00:00	2024-11-06T17:00:00	6	Velocidad del viento	11.3
67534	7	Sololá	701	Sololá	3	Barraneche	12	Diciembre	2023-12-18T00:00:00	2024-11-06T17:00:00	7	Dirección del viento	11.27
67535	7	Sololá	701	Sololá	3	Barraneche	12	Diciembre	2023-12-18T00:00:00	2024-11-06T17:00:00	1	Precipitación	0
67536	7	Sololá	701	Sololá	3	Barraneche	12	Diciembre	2023-12-18T00:00:00	2024-11-06T17:00:00	8	Radiación solar	194
67537	7	Sololá	701	Sololá	3	Barraneche	12	Diciembre	2023-12-18T00:00:00	2024-11-06T18:00:00	2	Temperatura media	11.3
67538	7	Sololá	701	Sololá	3	Barraneche	12	Diciembre	2023-12-18T00:00:00	2024-11-06T18:00:00	4	Temperatura máxima	14.3
67539	7	Sololá	701	Sololá	3	Barraneche	12	Diciembre	2023-12-18T00:00:00	2024-11-06T18:00:00	3	Temperatura mínima	11.3
67540	7	Sololá	701	Sololá	3	Barraneche	12	Diciembre	2023-12-18T00:00:00	2024-11-06T18:00:00	5	Humedad	25
67541	7	Sololá	701	Sololá	3	Barraneche	12	Diciembre	2023-12-18T00:00:00	2024-11-06T18:00:00	6	Velocidad del viento	14.5
67542	7	Sololá	701	Sololá	3	Barraneche	12	Diciembre	2023-12-18T00:00:00	2024-11-06T18:00:00	7	Dirección del viento	14.48
67543	7	Sololá	701	Sololá	3	Barraneche	12	Diciembre	2023-12-18T00:00:00	2024-11-06T18:00:00	1	Precipitación	0
67544	7	Sololá	701	Sololá	3	Barraneche	12	Diciembre	2023-12-18T00:00:00	2024-11-06T18:00:00	8	Radiación solar	14
67545	7	Sololá	701	Sololá	3	Barraneche	12	Diciembre	2023-12-18T00:00:00	2024-11-06T19:00:00	2	Temperatura media	10.8
67546	7	Sololá	701	Sololá	3	Barraneche	12	Diciembre	2023-12-18T00:00:00	2024-11-06T19:00:00	4	Temperatura máxima	11.4
67547	7	Sololá	701	Sololá	3	Barraneche	12	Diciembre	2023-12-18T00:00:00	2024-11-06T19:00:00	3	Temperatura mínima	10.8
67548	7	Sololá	701	Sololá	3	Barraneche	12	Diciembre	2023-12-18T00:00:00	2024-11-06T19:00:00	5	Humedad	18
67549	7	Sololá	701	Sololá	3	Barraneche	12	Diciembre	2023-12-18T00:00:00	2024-11-06T19:00:00	6	Velocidad del viento	16.1
67550	7	Sololá	701	Sololá	3	Barraneche	12	Diciembre	2023-12-18T00:00:00	2024-11-06T19:00:00	7	Dirección del viento	16.09
67551	7	Sololá	701	Sololá	3	Barraneche	12	Diciembre	2023-12-18T00:00:00	2024-11-06T19:00:00	1	Precipitación	0
67552	7	Sololá	701	Sololá	3	Barraneche	12	Diciembre	2023-12-18T00:00:00	2024-11-06T19:00:00	8	Radiación solar	0
67553	7	Sololá	701	Sololá	3	Barraneche	12	Diciembre	2023-12-18T00:00:00	2024-11-06T20:00:00	2	Temperatura media	11
67554	7	Sololá	701	Sololá	3	Barraneche	12	Diciembre	2023-12-18T00:00:00	2024-11-06T20:00:00	4	Temperatura máxima	11
67555	7	Sololá	701	Sololá	3	Barraneche	12	Diciembre	2023-12-18T00:00:00	2024-11-06T20:00:00	3	Temperatura mínima	9.9
67556	7	Sololá	701	Sololá	3	Barraneche	12	Diciembre	2023-12-18T00:00:00	2024-11-06T20:00:00	5	Humedad	19
67557	7	Sololá	701	Sololá	3	Barraneche	12	Diciembre	2023-12-18T00:00:00	2024-11-06T20:00:00	6	Velocidad del viento	14.5
67558	7	Sololá	701	Sololá	3	Barraneche	12	Diciembre	2023-12-18T00:00:00	2024-11-06T20:00:00	7	Dirección del viento	14.48
67559	7	Sololá	701	Sololá	3	Barraneche	12	Diciembre	2023-12-18T00:00:00	2024-11-06T20:00:00	1	Precipitación	0
67560	7	Sololá	701	Sololá	3	Barraneche	12	Diciembre	2023-12-18T00:00:00	2024-11-06T20:00:00	8	Radiación solar	0
67561	7	Sololá	701	Sololá	3	Barraneche	12	Diciembre	2023-12-18T00:00:00	2024-11-06T21:00:00	2	Temperatura media	10.9
67562	7	Sololá	701	Sololá	3	Barraneche	12	Diciembre	2023-12-18T00:00:00	2024-11-06T21:00:00	4	Temperatura máxima	11.1
67563	7	Sololá	701	Sololá	3	Barraneche	12	Diciembre	2023-12-18T00:00:00	2024-11-06T21:00:00	3	Temperatura mínima	10.7
67564	7	Sololá	701	Sololá	3	Barraneche	12	Diciembre	2023-12-18T00:00:00	2024-11-06T21:00:00	5	Humedad	13
67565	7	Sololá	701	Sololá	3	Barraneche	12	Diciembre	2023-12-18T00:00:00	2024-11-06T21:00:00	6	Velocidad del viento	14.5
67566	7	Sololá	701	Sololá	3	Barraneche	12	Diciembre	2023-12-18T00:00:00	2024-11-06T21:00:00	7	Dirección del viento	14.48
67567	7	Sololá	701	Sololá	3	Barraneche	12	Diciembre	2023-12-18T00:00:00	2024-11-06T21:00:00	1	Precipitación	0
67568	7	Sololá	701	Sololá	3	Barraneche	12	Diciembre	2023-12-18T00:00:00	2024-11-06T21:00:00	8	Radiación solar	0
67569	7	Sololá	701	Sololá	3	Barraneche	12	Diciembre	2023-12-18T00:00:00	2024-11-06T22:00:00	2	Temperatura media	10.6
67570	7	Sololá	701	Sololá	3	Barraneche	12	Diciembre	2023-12-18T00:00:00	2024-11-06T22:00:00	4	Temperatura máxima	10.9
67571	7	Sololá	701	Sololá	3	Barraneche	12	Diciembre	2023-12-18T00:00:00	2024-11-06T22:00:00	3	Temperatura mínima	10.4
67572	7	Sololá	701	Sololá	3	Barraneche	12	Diciembre	2023-12-18T00:00:00	2024-11-06T22:00:00	5	Humedad	4
67573	7	Sololá	701	Sololá	3	Barraneche	12	Diciembre	2023-12-18T00:00:00	2024-11-06T22:00:00	6	Velocidad del viento	16.1
67574	7	Sololá	701	Sololá	3	Barraneche	12	Diciembre	2023-12-18T00:00:00	2024-11-06T22:00:00	7	Dirección del viento	16.09
67575	7	Sololá	701	Sololá	3	Barraneche	12	Diciembre	2023-12-18T00:00:00	2024-11-06T22:00:00	1	Precipitación	0
67576	7	Sololá	701	Sololá	3	Barraneche	12	Diciembre	2023-12-18T00:00:00	2024-11-06T22:00:00	8	Radiación solar	0
67577	7	Sololá	701	Sololá	3	Barraneche	12	Diciembre	2023-12-18T00:00:00	2024-11-06T23:00:00	2	Temperatura media	10.1
67578	7	Sololá	701	Sololá	3	Barraneche	12	Diciembre	2023-12-18T00:00:00	2024-11-06T23:00:00	4	Temperatura máxima	10.7
67579	7	Sololá	701	Sololá	3	Barraneche	12	Diciembre	2023-12-18T00:00:00	2024-11-06T23:00:00	3	Temperatura mínima	10.1
67580	7	Sololá	701	Sololá	3	Barraneche	12	Diciembre	2023-12-18T00:00:00	2024-11-06T23:00:00	5	Humedad	1
67581	7	Sololá	701	Sololá	3	Barraneche	12	Diciembre	2023-12-18T00:00:00	2024-11-06T23:00:00	6	Velocidad del viento	20.9
67582	7	Sololá	701	Sololá	3	Barraneche	12	Diciembre	2023-12-18T00:00:00	2024-11-06T23:00:00	7	Dirección del viento	20.92
67583	7	Sololá	701	Sololá	3	Barraneche	12	Diciembre	2023-12-18T00:00:00	2024-11-06T23:00:00	1	Precipitación	0
67584	7	Sololá	701	Sololá	3	Barraneche	12	Diciembre	2023-12-18T00:00:00	2024-11-06T23:00:00	8	Radiación solar	0
67585	7	Sololá	701	Sololá	3	Barraneche	12	Diciembre	2023-12-19T00:00:00	2024-11-06T00:00:00	2	Temperatura media	10
67586	7	Sololá	701	Sololá	3	Barraneche	12	Diciembre	2023-12-19T00:00:00	2024-11-06T00:00:00	4	Temperatura máxima	10.4
67587	7	Sololá	701	Sololá	3	Barraneche	12	Diciembre	2023-12-19T00:00:00	2024-11-06T00:00:00	3	Temperatura mínima	10
67588	7	Sololá	701	Sololá	3	Barraneche	12	Diciembre	2023-12-19T00:00:00	2024-11-06T00:00:00	5	Humedad	1
67589	7	Sololá	701	Sololá	3	Barraneche	12	Diciembre	2023-12-19T00:00:00	2024-11-06T00:00:00	6	Velocidad del viento	20.9
67590	7	Sololá	701	Sololá	3	Barraneche	12	Diciembre	2023-12-19T00:00:00	2024-11-06T00:00:00	7	Dirección del viento	20.92
67591	7	Sololá	701	Sololá	3	Barraneche	12	Diciembre	2023-12-19T00:00:00	2024-11-06T00:00:00	1	Precipitación	0
67592	7	Sololá	701	Sololá	3	Barraneche	12	Diciembre	2023-12-19T00:00:00	2024-11-06T00:00:00	8	Radiación solar	0
67593	7	Sololá	701	Sololá	3	Barraneche	12	Diciembre	2023-12-19T00:00:00	2024-11-06T01:00:00	2	Temperatura media	11.1
67594	7	Sololá	701	Sololá	3	Barraneche	12	Diciembre	2023-12-19T00:00:00	2024-11-06T01:00:00	4	Temperatura máxima	11.1
67595	7	Sololá	701	Sololá	3	Barraneche	12	Diciembre	2023-12-19T00:00:00	2024-11-06T01:00:00	3	Temperatura mínima	9.9
67596	7	Sololá	701	Sololá	3	Barraneche	12	Diciembre	2023-12-19T00:00:00	2024-11-06T01:00:00	5	Humedad	1
67597	7	Sololá	701	Sololá	3	Barraneche	12	Diciembre	2023-12-19T00:00:00	2024-11-06T01:00:00	6	Velocidad del viento	16.1
67598	7	Sololá	701	Sololá	3	Barraneche	12	Diciembre	2023-12-19T00:00:00	2024-11-06T01:00:00	7	Dirección del viento	16.09
67599	7	Sololá	701	Sololá	3	Barraneche	12	Diciembre	2023-12-19T00:00:00	2024-11-06T01:00:00	1	Precipitación	0
67600	7	Sololá	701	Sololá	3	Barraneche	12	Diciembre	2023-12-19T00:00:00	2024-11-06T01:00:00	8	Radiación solar	0
67601	7	Sololá	701	Sololá	3	Barraneche	12	Diciembre	2023-12-19T00:00:00	2024-11-06T02:00:00	2	Temperatura media	10.8
67602	7	Sololá	701	Sololá	3	Barraneche	12	Diciembre	2023-12-19T00:00:00	2024-11-06T02:00:00	4	Temperatura máxima	11.2
67603	7	Sololá	701	Sololá	3	Barraneche	12	Diciembre	2023-12-19T00:00:00	2024-11-06T02:00:00	3	Temperatura mínima	10.7
67604	7	Sololá	701	Sololá	3	Barraneche	12	Diciembre	2023-12-19T00:00:00	2024-11-06T02:00:00	5	Humedad	1
67605	7	Sololá	701	Sololá	3	Barraneche	12	Diciembre	2023-12-19T00:00:00	2024-11-06T02:00:00	6	Velocidad del viento	11.3
67606	7	Sololá	701	Sololá	3	Barraneche	12	Diciembre	2023-12-19T00:00:00	2024-11-06T02:00:00	7	Dirección del viento	11.27
67607	7	Sololá	701	Sololá	3	Barraneche	12	Diciembre	2023-12-19T00:00:00	2024-11-06T02:00:00	1	Precipitación	0
67608	7	Sololá	701	Sololá	3	Barraneche	12	Diciembre	2023-12-19T00:00:00	2024-11-06T02:00:00	8	Radiación solar	0
67609	7	Sololá	701	Sololá	3	Barraneche	12	Diciembre	2023-12-19T00:00:00	2024-11-06T03:00:00	2	Temperatura media	10.9
67610	7	Sololá	701	Sololá	3	Barraneche	12	Diciembre	2023-12-19T00:00:00	2024-11-06T03:00:00	4	Temperatura máxima	11.2
67611	7	Sololá	701	Sololá	3	Barraneche	12	Diciembre	2023-12-19T00:00:00	2024-11-06T03:00:00	3	Temperatura mínima	9.9
67612	7	Sololá	701	Sololá	3	Barraneche	12	Diciembre	2023-12-19T00:00:00	2024-11-06T03:00:00	5	Humedad	1
67613	7	Sololá	701	Sololá	3	Barraneche	12	Diciembre	2023-12-19T00:00:00	2024-11-06T03:00:00	6	Velocidad del viento	11.3
67614	7	Sololá	701	Sololá	3	Barraneche	12	Diciembre	2023-12-19T00:00:00	2024-11-06T03:00:00	7	Dirección del viento	11.27
67615	7	Sololá	701	Sololá	3	Barraneche	12	Diciembre	2023-12-19T00:00:00	2024-11-06T03:00:00	1	Precipitación	0
67616	7	Sololá	701	Sololá	3	Barraneche	12	Diciembre	2023-12-19T00:00:00	2024-11-06T03:00:00	8	Radiación solar	0
67617	7	Sololá	701	Sololá	3	Barraneche	12	Diciembre	2023-12-19T00:00:00	2024-11-06T04:00:00	2	Temperatura media	9.6
67618	7	Sololá	701	Sololá	3	Barraneche	12	Diciembre	2023-12-19T00:00:00	2024-11-06T04:00:00	4	Temperatura máxima	11
67619	7	Sololá	701	Sololá	3	Barraneche	12	Diciembre	2023-12-19T00:00:00	2024-11-06T04:00:00	3	Temperatura mínima	9.6
67620	7	Sololá	701	Sololá	3	Barraneche	12	Diciembre	2023-12-19T00:00:00	2024-11-06T04:00:00	5	Humedad	1
67621	7	Sololá	701	Sololá	3	Barraneche	12	Diciembre	2023-12-19T00:00:00	2024-11-06T04:00:00	6	Velocidad del viento	11.3
67622	7	Sololá	701	Sololá	3	Barraneche	12	Diciembre	2023-12-19T00:00:00	2024-11-06T04:00:00	7	Dirección del viento	11.27
67623	7	Sololá	701	Sololá	3	Barraneche	12	Diciembre	2023-12-19T00:00:00	2024-11-06T04:00:00	1	Precipitación	0
67624	7	Sololá	701	Sololá	3	Barraneche	12	Diciembre	2023-12-19T00:00:00	2024-11-06T04:00:00	8	Radiación solar	0
67625	7	Sololá	701	Sololá	3	Barraneche	12	Diciembre	2023-12-19T00:00:00	2024-11-06T05:00:00	2	Temperatura media	9.8
67626	7	Sololá	701	Sololá	3	Barraneche	12	Diciembre	2023-12-19T00:00:00	2024-11-06T05:00:00	4	Temperatura máxima	10.7
67627	7	Sololá	701	Sololá	3	Barraneche	12	Diciembre	2023-12-19T00:00:00	2024-11-06T05:00:00	3	Temperatura mínima	8
67628	7	Sololá	701	Sololá	3	Barraneche	12	Diciembre	2023-12-19T00:00:00	2024-11-06T05:00:00	5	Humedad	1
67629	7	Sololá	701	Sololá	3	Barraneche	12	Diciembre	2023-12-19T00:00:00	2024-11-06T05:00:00	6	Velocidad del viento	8
67630	7	Sololá	701	Sololá	3	Barraneche	12	Diciembre	2023-12-19T00:00:00	2024-11-06T05:00:00	7	Dirección del viento	8.05
67631	7	Sololá	701	Sololá	3	Barraneche	12	Diciembre	2023-12-19T00:00:00	2024-11-06T05:00:00	1	Precipitación	0
67632	7	Sololá	701	Sololá	3	Barraneche	12	Diciembre	2023-12-19T00:00:00	2024-11-06T05:00:00	8	Radiación solar	0
67633	7	Sololá	701	Sololá	3	Barraneche	12	Diciembre	2023-12-19T00:00:00	2024-11-06T06:00:00	2	Temperatura media	9.9
67634	7	Sololá	701	Sololá	3	Barraneche	12	Diciembre	2023-12-19T00:00:00	2024-11-06T06:00:00	4	Temperatura máxima	10.2
67635	7	Sololá	701	Sololá	3	Barraneche	12	Diciembre	2023-12-19T00:00:00	2024-11-06T06:00:00	3	Temperatura mínima	9
67636	7	Sololá	701	Sololá	3	Barraneche	12	Diciembre	2023-12-19T00:00:00	2024-11-06T06:00:00	5	Humedad	1
67637	7	Sololá	701	Sololá	3	Barraneche	12	Diciembre	2023-12-19T00:00:00	2024-11-06T06:00:00	6	Velocidad del viento	8
67638	7	Sololá	701	Sololá	3	Barraneche	12	Diciembre	2023-12-19T00:00:00	2024-11-06T06:00:00	7	Dirección del viento	8.05
67639	7	Sololá	701	Sololá	3	Barraneche	12	Diciembre	2023-12-19T00:00:00	2024-11-06T06:00:00	1	Precipitación	0
67640	7	Sololá	701	Sololá	3	Barraneche	12	Diciembre	2023-12-19T00:00:00	2024-11-06T06:00:00	8	Radiación solar	0
67641	7	Sololá	701	Sololá	3	Barraneche	12	Diciembre	2023-12-19T00:00:00	2024-11-06T07:00:00	2	Temperatura media	10.2
67642	7	Sololá	701	Sololá	3	Barraneche	12	Diciembre	2023-12-19T00:00:00	2024-11-06T07:00:00	4	Temperatura máxima	10.7
67643	7	Sololá	701	Sololá	3	Barraneche	12	Diciembre	2023-12-19T00:00:00	2024-11-06T07:00:00	3	Temperatura mínima	9.2
67644	7	Sololá	701	Sololá	3	Barraneche	12	Diciembre	2023-12-19T00:00:00	2024-11-06T07:00:00	5	Humedad	1
67645	7	Sololá	701	Sololá	3	Barraneche	12	Diciembre	2023-12-19T00:00:00	2024-11-06T07:00:00	6	Velocidad del viento	6.4
67646	7	Sololá	701	Sololá	3	Barraneche	12	Diciembre	2023-12-19T00:00:00	2024-11-06T07:00:00	7	Dirección del viento	6.44
67647	7	Sololá	701	Sololá	3	Barraneche	12	Diciembre	2023-12-19T00:00:00	2024-11-06T07:00:00	1	Precipitación	0
67648	7	Sololá	701	Sololá	3	Barraneche	12	Diciembre	2023-12-19T00:00:00	2024-11-06T07:00:00	8	Radiación solar	8
67649	7	Sololá	701	Sololá	3	Barraneche	12	Diciembre	2023-12-19T00:00:00	2024-11-06T08:00:00	2	Temperatura media	14.7
67650	7	Sololá	701	Sololá	3	Barraneche	12	Diciembre	2023-12-19T00:00:00	2024-11-06T08:00:00	4	Temperatura máxima	14.7
67651	7	Sololá	701	Sololá	3	Barraneche	12	Diciembre	2023-12-19T00:00:00	2024-11-06T08:00:00	3	Temperatura mínima	10.2
67652	7	Sololá	701	Sololá	3	Barraneche	12	Diciembre	2023-12-19T00:00:00	2024-11-06T08:00:00	5	Humedad	1
67653	7	Sololá	701	Sololá	3	Barraneche	12	Diciembre	2023-12-19T00:00:00	2024-11-06T08:00:00	6	Velocidad del viento	11.3
67654	7	Sololá	701	Sololá	3	Barraneche	12	Diciembre	2023-12-19T00:00:00	2024-11-06T08:00:00	7	Dirección del viento	11.27
67655	7	Sololá	701	Sololá	3	Barraneche	12	Diciembre	2023-12-19T00:00:00	2024-11-06T08:00:00	1	Precipitación	0
67656	7	Sololá	701	Sololá	3	Barraneche	12	Diciembre	2023-12-19T00:00:00	2024-11-06T08:00:00	8	Radiación solar	211
67657	7	Sololá	701	Sololá	3	Barraneche	12	Diciembre	2023-12-19T00:00:00	2024-11-06T09:00:00	2	Temperatura media	16.1
67658	7	Sololá	701	Sololá	3	Barraneche	12	Diciembre	2023-12-19T00:00:00	2024-11-06T09:00:00	4	Temperatura máxima	16.1
67659	7	Sololá	701	Sololá	3	Barraneche	12	Diciembre	2023-12-19T00:00:00	2024-11-06T09:00:00	3	Temperatura mínima	14.7
67660	7	Sololá	701	Sololá	3	Barraneche	12	Diciembre	2023-12-19T00:00:00	2024-11-06T09:00:00	5	Humedad	1
67661	7	Sololá	701	Sololá	3	Barraneche	12	Diciembre	2023-12-19T00:00:00	2024-11-06T09:00:00	6	Velocidad del viento	14.5
67662	7	Sololá	701	Sololá	3	Barraneche	12	Diciembre	2023-12-19T00:00:00	2024-11-06T09:00:00	7	Dirección del viento	14.48
67663	7	Sololá	701	Sololá	3	Barraneche	12	Diciembre	2023-12-19T00:00:00	2024-11-06T09:00:00	1	Precipitación	0
67664	7	Sololá	701	Sololá	3	Barraneche	12	Diciembre	2023-12-19T00:00:00	2024-11-06T09:00:00	8	Radiación solar	465
67665	7	Sololá	701	Sololá	3	Barraneche	12	Diciembre	2023-12-19T00:00:00	2024-11-06T10:00:00	2	Temperatura media	16.4
67666	7	Sololá	701	Sololá	3	Barraneche	12	Diciembre	2023-12-19T00:00:00	2024-11-06T10:00:00	4	Temperatura máxima	16.6
67667	7	Sololá	701	Sololá	3	Barraneche	12	Diciembre	2023-12-19T00:00:00	2024-11-06T10:00:00	3	Temperatura mínima	15.8
67668	7	Sololá	701	Sololá	3	Barraneche	12	Diciembre	2023-12-19T00:00:00	2024-11-06T10:00:00	5	Humedad	1
67669	7	Sololá	701	Sololá	3	Barraneche	12	Diciembre	2023-12-19T00:00:00	2024-11-06T10:00:00	6	Velocidad del viento	20.9
67670	7	Sololá	701	Sololá	3	Barraneche	12	Diciembre	2023-12-19T00:00:00	2024-11-06T10:00:00	7	Dirección del viento	20.92
67671	7	Sololá	701	Sololá	3	Barraneche	12	Diciembre	2023-12-19T00:00:00	2024-11-06T10:00:00	1	Precipitación	0
67672	7	Sololá	701	Sololá	3	Barraneche	12	Diciembre	2023-12-19T00:00:00	2024-11-06T10:00:00	8	Radiación solar	670
67673	7	Sololá	701	Sololá	3	Barraneche	12	Diciembre	2023-12-19T00:00:00	2024-11-06T11:00:00	2	Temperatura media	18.1
67674	7	Sololá	701	Sololá	3	Barraneche	12	Diciembre	2023-12-19T00:00:00	2024-11-06T11:00:00	4	Temperatura máxima	18.1
67675	7	Sololá	701	Sololá	3	Barraneche	12	Diciembre	2023-12-19T00:00:00	2024-11-06T11:00:00	3	Temperatura mínima	16.3
67676	7	Sololá	701	Sololá	3	Barraneche	12	Diciembre	2023-12-19T00:00:00	2024-11-06T11:00:00	5	Humedad	1
67677	7	Sololá	701	Sololá	3	Barraneche	12	Diciembre	2023-12-19T00:00:00	2024-11-06T11:00:00	6	Velocidad del viento	17.7
67678	7	Sololá	701	Sololá	3	Barraneche	12	Diciembre	2023-12-19T00:00:00	2024-11-06T11:00:00	7	Dirección del viento	17.7
67679	7	Sololá	701	Sololá	3	Barraneche	12	Diciembre	2023-12-19T00:00:00	2024-11-06T11:00:00	1	Precipitación	0
67680	7	Sololá	701	Sololá	3	Barraneche	12	Diciembre	2023-12-19T00:00:00	2024-11-06T11:00:00	8	Radiación solar	813
67681	7	Sololá	701	Sololá	3	Barraneche	12	Diciembre	2023-12-19T00:00:00	2024-11-06T12:00:00	2	Temperatura media	18.6
67682	7	Sololá	701	Sololá	3	Barraneche	12	Diciembre	2023-12-19T00:00:00	2024-11-06T12:00:00	4	Temperatura máxima	18.8
67683	7	Sololá	701	Sololá	3	Barraneche	12	Diciembre	2023-12-19T00:00:00	2024-11-06T12:00:00	3	Temperatura mínima	18.1
67684	7	Sololá	701	Sololá	3	Barraneche	12	Diciembre	2023-12-19T00:00:00	2024-11-06T12:00:00	5	Humedad	1
67685	7	Sololá	701	Sololá	3	Barraneche	12	Diciembre	2023-12-19T00:00:00	2024-11-06T12:00:00	6	Velocidad del viento	14.5
67686	7	Sololá	701	Sololá	3	Barraneche	12	Diciembre	2023-12-19T00:00:00	2024-11-06T12:00:00	7	Dirección del viento	14.48
67687	7	Sololá	701	Sololá	3	Barraneche	12	Diciembre	2023-12-19T00:00:00	2024-11-06T12:00:00	1	Precipitación	0
67688	7	Sololá	701	Sololá	3	Barraneche	12	Diciembre	2023-12-19T00:00:00	2024-11-06T12:00:00	8	Radiación solar	878
67689	7	Sololá	701	Sololá	3	Barraneche	12	Diciembre	2023-12-19T00:00:00	2024-11-06T13:00:00	2	Temperatura media	18.6
67690	7	Sololá	701	Sololá	3	Barraneche	12	Diciembre	2023-12-19T00:00:00	2024-11-06T13:00:00	4	Temperatura máxima	19.1
67691	7	Sololá	701	Sololá	3	Barraneche	12	Diciembre	2023-12-19T00:00:00	2024-11-06T13:00:00	3	Temperatura mínima	18.2
67692	7	Sololá	701	Sololá	3	Barraneche	12	Diciembre	2023-12-19T00:00:00	2024-11-06T13:00:00	5	Humedad	4
67693	7	Sololá	701	Sololá	3	Barraneche	12	Diciembre	2023-12-19T00:00:00	2024-11-06T13:00:00	6	Velocidad del viento	14.5
67694	7	Sololá	701	Sololá	3	Barraneche	12	Diciembre	2023-12-19T00:00:00	2024-11-06T13:00:00	7	Dirección del viento	14.48
67695	7	Sololá	701	Sololá	3	Barraneche	12	Diciembre	2023-12-19T00:00:00	2024-11-06T13:00:00	1	Precipitación	0
67696	7	Sololá	701	Sololá	3	Barraneche	12	Diciembre	2023-12-19T00:00:00	2024-11-06T13:00:00	8	Radiación solar	874
67697	7	Sololá	701	Sololá	3	Barraneche	12	Diciembre	2023-12-19T00:00:00	2024-11-06T14:00:00	2	Temperatura media	19.1
67698	7	Sololá	701	Sololá	3	Barraneche	12	Diciembre	2023-12-19T00:00:00	2024-11-06T14:00:00	4	Temperatura máxima	19.2
67699	7	Sololá	701	Sololá	3	Barraneche	12	Diciembre	2023-12-19T00:00:00	2024-11-06T14:00:00	3	Temperatura mínima	18.4
67700	7	Sololá	701	Sololá	3	Barraneche	12	Diciembre	2023-12-19T00:00:00	2024-11-06T14:00:00	5	Humedad	3
67701	7	Sololá	701	Sololá	3	Barraneche	12	Diciembre	2023-12-19T00:00:00	2024-11-06T14:00:00	6	Velocidad del viento	16.1
67702	7	Sololá	701	Sololá	3	Barraneche	12	Diciembre	2023-12-19T00:00:00	2024-11-06T14:00:00	7	Dirección del viento	16.09
67703	7	Sololá	701	Sololá	3	Barraneche	12	Diciembre	2023-12-19T00:00:00	2024-11-06T14:00:00	1	Precipitación	0
67704	7	Sololá	701	Sololá	3	Barraneche	12	Diciembre	2023-12-19T00:00:00	2024-11-06T14:00:00	8	Radiación solar	799
67705	7	Sololá	701	Sololá	3	Barraneche	12	Diciembre	2023-12-19T00:00:00	2024-11-06T15:00:00	2	Temperatura media	18.7
67706	7	Sololá	701	Sololá	3	Barraneche	12	Diciembre	2023-12-19T00:00:00	2024-11-06T15:00:00	4	Temperatura máxima	19.2
67707	7	Sololá	701	Sololá	3	Barraneche	12	Diciembre	2023-12-19T00:00:00	2024-11-06T15:00:00	3	Temperatura mínima	18.7
67708	7	Sololá	701	Sololá	3	Barraneche	12	Diciembre	2023-12-19T00:00:00	2024-11-06T15:00:00	5	Humedad	5
67709	7	Sololá	701	Sololá	3	Barraneche	12	Diciembre	2023-12-19T00:00:00	2024-11-06T15:00:00	6	Velocidad del viento	16.1
67710	7	Sololá	701	Sololá	3	Barraneche	12	Diciembre	2023-12-19T00:00:00	2024-11-06T15:00:00	7	Dirección del viento	16.09
67711	7	Sololá	701	Sololá	3	Barraneche	12	Diciembre	2023-12-19T00:00:00	2024-11-06T15:00:00	1	Precipitación	0
67712	7	Sololá	701	Sololá	3	Barraneche	12	Diciembre	2023-12-19T00:00:00	2024-11-06T15:00:00	8	Radiación solar	657
67713	7	Sololá	701	Sololá	3	Barraneche	12	Diciembre	2023-12-19T00:00:00	2024-11-06T16:00:00	2	Temperatura media	17.3
67714	7	Sololá	701	Sololá	3	Barraneche	12	Diciembre	2023-12-19T00:00:00	2024-11-06T16:00:00	4	Temperatura máxima	18.7
67715	7	Sololá	701	Sololá	3	Barraneche	12	Diciembre	2023-12-19T00:00:00	2024-11-06T16:00:00	3	Temperatura mínima	17.3
67716	7	Sololá	701	Sololá	3	Barraneche	12	Diciembre	2023-12-19T00:00:00	2024-11-06T16:00:00	5	Humedad	19
67717	7	Sololá	701	Sololá	3	Barraneche	12	Diciembre	2023-12-19T00:00:00	2024-11-06T16:00:00	6	Velocidad del viento	17.7
67718	7	Sololá	701	Sololá	3	Barraneche	12	Diciembre	2023-12-19T00:00:00	2024-11-06T16:00:00	7	Dirección del viento	17.7
67719	7	Sololá	701	Sololá	3	Barraneche	12	Diciembre	2023-12-19T00:00:00	2024-11-06T16:00:00	1	Precipitación	0
67720	7	Sololá	701	Sololá	3	Barraneche	12	Diciembre	2023-12-19T00:00:00	2024-11-06T16:00:00	8	Radiación solar	455
67721	7	Sololá	701	Sololá	3	Barraneche	12	Diciembre	2023-12-19T00:00:00	2024-11-06T17:00:00	2	Temperatura media	16.3
67722	7	Sololá	701	Sololá	3	Barraneche	12	Diciembre	2023-12-19T00:00:00	2024-11-06T17:00:00	4	Temperatura máxima	17.7
67723	7	Sololá	701	Sololá	3	Barraneche	12	Diciembre	2023-12-19T00:00:00	2024-11-06T17:00:00	3	Temperatura mínima	16.3
67724	7	Sololá	701	Sololá	3	Barraneche	12	Diciembre	2023-12-19T00:00:00	2024-11-06T17:00:00	5	Humedad	34
67725	7	Sololá	701	Sololá	3	Barraneche	12	Diciembre	2023-12-19T00:00:00	2024-11-06T17:00:00	6	Velocidad del viento	8
67726	7	Sololá	701	Sololá	3	Barraneche	12	Diciembre	2023-12-19T00:00:00	2024-11-06T17:00:00	7	Dirección del viento	8.05
67727	7	Sololá	701	Sololá	3	Barraneche	12	Diciembre	2023-12-19T00:00:00	2024-11-06T17:00:00	1	Precipitación	0
67728	7	Sololá	701	Sololá	3	Barraneche	12	Diciembre	2023-12-19T00:00:00	2024-11-06T17:00:00	8	Radiación solar	200
67729	7	Sololá	701	Sololá	3	Barraneche	12	Diciembre	2023-12-19T00:00:00	2024-11-06T18:00:00	2	Temperatura media	9.7
67730	7	Sololá	701	Sololá	3	Barraneche	12	Diciembre	2023-12-19T00:00:00	2024-11-06T18:00:00	4	Temperatura máxima	16.3
67731	7	Sololá	701	Sololá	3	Barraneche	12	Diciembre	2023-12-19T00:00:00	2024-11-06T18:00:00	3	Temperatura mínima	9.7
67732	7	Sololá	701	Sololá	3	Barraneche	12	Diciembre	2023-12-19T00:00:00	2024-11-06T18:00:00	5	Humedad	40
67733	7	Sololá	701	Sololá	3	Barraneche	12	Diciembre	2023-12-19T00:00:00	2024-11-06T18:00:00	6	Velocidad del viento	6.4
67734	7	Sololá	701	Sololá	3	Barraneche	12	Diciembre	2023-12-19T00:00:00	2024-11-06T18:00:00	7	Dirección del viento	6.44
67735	7	Sololá	701	Sololá	3	Barraneche	12	Diciembre	2023-12-19T00:00:00	2024-11-06T18:00:00	1	Precipitación	0
67736	7	Sololá	701	Sololá	3	Barraneche	12	Diciembre	2023-12-19T00:00:00	2024-11-06T18:00:00	8	Radiación solar	18
67737	7	Sololá	701	Sololá	3	Barraneche	12	Diciembre	2023-12-19T00:00:00	2024-11-06T19:00:00	2	Temperatura media	6.9
67738	7	Sololá	701	Sololá	3	Barraneche	12	Diciembre	2023-12-19T00:00:00	2024-11-06T19:00:00	4	Temperatura máxima	9.7
67739	7	Sololá	701	Sololá	3	Barraneche	12	Diciembre	2023-12-19T00:00:00	2024-11-06T19:00:00	3	Temperatura mínima	6.8
67740	7	Sololá	701	Sololá	3	Barraneche	12	Diciembre	2023-12-19T00:00:00	2024-11-06T19:00:00	5	Humedad	44
67741	7	Sololá	701	Sololá	3	Barraneche	12	Diciembre	2023-12-19T00:00:00	2024-11-06T19:00:00	6	Velocidad del viento	8
67742	7	Sololá	701	Sololá	3	Barraneche	12	Diciembre	2023-12-19T00:00:00	2024-11-06T19:00:00	7	Dirección del viento	8.05
67743	7	Sololá	701	Sololá	3	Barraneche	12	Diciembre	2023-12-19T00:00:00	2024-11-06T19:00:00	1	Precipitación	0
67744	7	Sololá	701	Sololá	3	Barraneche	12	Diciembre	2023-12-19T00:00:00	2024-11-06T19:00:00	8	Radiación solar	0
67745	7	Sololá	701	Sololá	3	Barraneche	12	Diciembre	2023-12-19T00:00:00	2024-11-06T20:00:00	2	Temperatura media	5.6
67746	7	Sololá	701	Sololá	3	Barraneche	12	Diciembre	2023-12-19T00:00:00	2024-11-06T20:00:00	4	Temperatura máxima	6.9
67747	7	Sololá	701	Sololá	3	Barraneche	12	Diciembre	2023-12-19T00:00:00	2024-11-06T20:00:00	3	Temperatura mínima	5.5
67748	7	Sololá	701	Sololá	3	Barraneche	12	Diciembre	2023-12-19T00:00:00	2024-11-06T20:00:00	5	Humedad	50
67749	7	Sololá	701	Sololá	3	Barraneche	12	Diciembre	2023-12-19T00:00:00	2024-11-06T20:00:00	6	Velocidad del viento	6.4
67750	7	Sololá	701	Sololá	3	Barraneche	12	Diciembre	2023-12-19T00:00:00	2024-11-06T20:00:00	7	Dirección del viento	6.44
67751	7	Sololá	701	Sololá	3	Barraneche	12	Diciembre	2023-12-19T00:00:00	2024-11-06T20:00:00	1	Precipitación	0
67752	7	Sololá	701	Sololá	3	Barraneche	12	Diciembre	2023-12-19T00:00:00	2024-11-06T20:00:00	8	Radiación solar	0
67753	7	Sololá	701	Sololá	3	Barraneche	12	Diciembre	2023-12-19T00:00:00	2024-11-06T21:00:00	2	Temperatura media	5.3
67754	7	Sololá	701	Sololá	3	Barraneche	12	Diciembre	2023-12-19T00:00:00	2024-11-06T21:00:00	4	Temperatura máxima	5.6
67755	7	Sololá	701	Sololá	3	Barraneche	12	Diciembre	2023-12-19T00:00:00	2024-11-06T21:00:00	3	Temperatura mínima	4.8
67756	7	Sololá	701	Sololá	3	Barraneche	12	Diciembre	2023-12-19T00:00:00	2024-11-06T21:00:00	5	Humedad	42
67757	7	Sololá	701	Sololá	3	Barraneche	12	Diciembre	2023-12-19T00:00:00	2024-11-06T21:00:00	6	Velocidad del viento	6.4
67758	7	Sololá	701	Sololá	3	Barraneche	12	Diciembre	2023-12-19T00:00:00	2024-11-06T21:00:00	7	Dirección del viento	6.44
67759	7	Sololá	701	Sololá	3	Barraneche	12	Diciembre	2023-12-19T00:00:00	2024-11-06T21:00:00	1	Precipitación	0
67760	7	Sololá	701	Sololá	3	Barraneche	12	Diciembre	2023-12-19T00:00:00	2024-11-06T21:00:00	8	Radiación solar	0
67761	7	Sololá	701	Sololá	3	Barraneche	12	Diciembre	2023-12-19T00:00:00	2024-11-06T22:00:00	2	Temperatura media	6.6
67762	7	Sololá	701	Sololá	3	Barraneche	12	Diciembre	2023-12-19T00:00:00	2024-11-06T22:00:00	4	Temperatura máxima	6.7
67763	7	Sololá	701	Sololá	3	Barraneche	12	Diciembre	2023-12-19T00:00:00	2024-11-06T22:00:00	3	Temperatura mínima	5.3
67764	7	Sololá	701	Sololá	3	Barraneche	12	Diciembre	2023-12-19T00:00:00	2024-11-06T22:00:00	5	Humedad	24
67765	7	Sololá	701	Sololá	3	Barraneche	12	Diciembre	2023-12-19T00:00:00	2024-11-06T22:00:00	6	Velocidad del viento	8
67766	7	Sololá	701	Sololá	3	Barraneche	12	Diciembre	2023-12-19T00:00:00	2024-11-06T22:00:00	7	Dirección del viento	8.05
67767	7	Sololá	701	Sololá	3	Barraneche	12	Diciembre	2023-12-19T00:00:00	2024-11-06T22:00:00	1	Precipitación	0
67768	7	Sololá	701	Sololá	3	Barraneche	12	Diciembre	2023-12-19T00:00:00	2024-11-06T22:00:00	8	Radiación solar	0
67769	7	Sololá	701	Sololá	3	Barraneche	12	Diciembre	2023-12-19T00:00:00	2024-11-06T23:00:00	2	Temperatura media	6.5
67770	7	Sololá	701	Sololá	3	Barraneche	12	Diciembre	2023-12-19T00:00:00	2024-11-06T23:00:00	4	Temperatura máxima	7.3
67771	7	Sololá	701	Sololá	3	Barraneche	12	Diciembre	2023-12-19T00:00:00	2024-11-06T23:00:00	3	Temperatura mínima	6.5
67772	7	Sololá	701	Sololá	3	Barraneche	12	Diciembre	2023-12-19T00:00:00	2024-11-06T23:00:00	5	Humedad	22
67773	7	Sololá	701	Sololá	3	Barraneche	12	Diciembre	2023-12-19T00:00:00	2024-11-06T23:00:00	6	Velocidad del viento	6.4
67774	7	Sololá	701	Sololá	3	Barraneche	12	Diciembre	2023-12-19T00:00:00	2024-11-06T23:00:00	7	Dirección del viento	6.44
67775	7	Sololá	701	Sololá	3	Barraneche	12	Diciembre	2023-12-19T00:00:00	2024-11-06T23:00:00	1	Precipitación	0
67776	7	Sololá	701	Sololá	3	Barraneche	12	Diciembre	2023-12-19T00:00:00	2024-11-06T23:00:00	8	Radiación solar	0
67777	7	Sololá	701	Sololá	3	Barraneche	12	Diciembre	2023-12-20T00:00:00	2024-11-06T00:00:00	2	Temperatura media	6.1
67778	7	Sololá	701	Sololá	3	Barraneche	12	Diciembre	2023-12-20T00:00:00	2024-11-06T00:00:00	4	Temperatura máxima	6.9
67779	7	Sololá	701	Sololá	3	Barraneche	12	Diciembre	2023-12-20T00:00:00	2024-11-06T00:00:00	3	Temperatura mínima	6
67780	7	Sololá	701	Sololá	3	Barraneche	12	Diciembre	2023-12-20T00:00:00	2024-11-06T00:00:00	5	Humedad	22
67781	7	Sololá	701	Sololá	3	Barraneche	12	Diciembre	2023-12-20T00:00:00	2024-11-06T00:00:00	6	Velocidad del viento	4.8
67782	7	Sololá	701	Sololá	3	Barraneche	12	Diciembre	2023-12-20T00:00:00	2024-11-06T00:00:00	7	Dirección del viento	4.83
67783	7	Sololá	701	Sololá	3	Barraneche	12	Diciembre	2023-12-20T00:00:00	2024-11-06T00:00:00	1	Precipitación	0
67784	7	Sololá	701	Sololá	3	Barraneche	12	Diciembre	2023-12-20T00:00:00	2024-11-06T00:00:00	8	Radiación solar	0
67785	7	Sololá	701	Sololá	3	Barraneche	12	Diciembre	2023-12-20T00:00:00	2024-11-06T01:00:00	2	Temperatura media	6.1
67786	7	Sololá	701	Sololá	3	Barraneche	12	Diciembre	2023-12-20T00:00:00	2024-11-06T01:00:00	4	Temperatura máxima	6.6
67787	7	Sololá	701	Sololá	3	Barraneche	12	Diciembre	2023-12-20T00:00:00	2024-11-06T01:00:00	3	Temperatura mínima	6
67788	7	Sololá	701	Sololá	3	Barraneche	12	Diciembre	2023-12-20T00:00:00	2024-11-06T01:00:00	5	Humedad	26
67789	7	Sololá	701	Sololá	3	Barraneche	12	Diciembre	2023-12-20T00:00:00	2024-11-06T01:00:00	6	Velocidad del viento	6.4
67790	7	Sololá	701	Sololá	3	Barraneche	12	Diciembre	2023-12-20T00:00:00	2024-11-06T01:00:00	7	Dirección del viento	6.44
67791	7	Sololá	701	Sololá	3	Barraneche	12	Diciembre	2023-12-20T00:00:00	2024-11-06T01:00:00	1	Precipitación	0
67792	7	Sololá	701	Sololá	3	Barraneche	12	Diciembre	2023-12-20T00:00:00	2024-11-06T01:00:00	8	Radiación solar	0
67793	7	Sololá	701	Sololá	3	Barraneche	12	Diciembre	2023-12-20T00:00:00	2024-11-06T02:00:00	2	Temperatura media	6.1
67794	7	Sololá	701	Sololá	3	Barraneche	12	Diciembre	2023-12-20T00:00:00	2024-11-06T02:00:00	4	Temperatura máxima	6.3
67795	7	Sololá	701	Sololá	3	Barraneche	12	Diciembre	2023-12-20T00:00:00	2024-11-06T02:00:00	3	Temperatura mínima	5.9
67796	7	Sololá	701	Sololá	3	Barraneche	12	Diciembre	2023-12-20T00:00:00	2024-11-06T02:00:00	5	Humedad	26
67797	7	Sololá	701	Sololá	3	Barraneche	12	Diciembre	2023-12-20T00:00:00	2024-11-06T02:00:00	6	Velocidad del viento	8
67798	7	Sololá	701	Sololá	3	Barraneche	12	Diciembre	2023-12-20T00:00:00	2024-11-06T02:00:00	7	Dirección del viento	8.05
67799	7	Sololá	701	Sololá	3	Barraneche	12	Diciembre	2023-12-20T00:00:00	2024-11-06T02:00:00	1	Precipitación	0
67800	7	Sololá	701	Sololá	3	Barraneche	12	Diciembre	2023-12-20T00:00:00	2024-11-06T02:00:00	8	Radiación solar	0
67801	7	Sololá	701	Sololá	3	Barraneche	12	Diciembre	2023-12-20T00:00:00	2024-11-06T03:00:00	2	Temperatura media	6.2
67802	7	Sololá	701	Sololá	3	Barraneche	12	Diciembre	2023-12-20T00:00:00	2024-11-06T03:00:00	4	Temperatura máxima	6.3
67803	7	Sololá	701	Sololá	3	Barraneche	12	Diciembre	2023-12-20T00:00:00	2024-11-06T03:00:00	3	Temperatura mínima	5.4
67804	7	Sololá	701	Sololá	3	Barraneche	12	Diciembre	2023-12-20T00:00:00	2024-11-06T03:00:00	5	Humedad	29
67805	7	Sololá	701	Sololá	3	Barraneche	12	Diciembre	2023-12-20T00:00:00	2024-11-06T03:00:00	6	Velocidad del viento	8
67806	7	Sololá	701	Sololá	3	Barraneche	12	Diciembre	2023-12-20T00:00:00	2024-11-06T03:00:00	7	Dirección del viento	8.05
67807	7	Sololá	701	Sololá	3	Barraneche	12	Diciembre	2023-12-20T00:00:00	2024-11-06T03:00:00	1	Precipitación	0
67808	7	Sololá	701	Sololá	3	Barraneche	12	Diciembre	2023-12-20T00:00:00	2024-11-06T03:00:00	8	Radiación solar	0
67809	7	Sololá	701	Sololá	3	Barraneche	12	Diciembre	2023-12-20T00:00:00	2024-11-06T04:00:00	2	Temperatura media	8.6
67810	7	Sololá	701	Sololá	3	Barraneche	12	Diciembre	2023-12-20T00:00:00	2024-11-06T04:00:00	4	Temperatura máxima	8.7
67811	7	Sololá	701	Sololá	3	Barraneche	12	Diciembre	2023-12-20T00:00:00	2024-11-06T04:00:00	3	Temperatura mínima	5.9
67812	7	Sololá	701	Sololá	3	Barraneche	12	Diciembre	2023-12-20T00:00:00	2024-11-06T04:00:00	5	Humedad	27
67813	7	Sololá	701	Sololá	3	Barraneche	12	Diciembre	2023-12-20T00:00:00	2024-11-06T04:00:00	6	Velocidad del viento	6.4
67814	7	Sololá	701	Sololá	3	Barraneche	12	Diciembre	2023-12-20T00:00:00	2024-11-06T04:00:00	7	Dirección del viento	6.44
67815	7	Sololá	701	Sololá	3	Barraneche	12	Diciembre	2023-12-20T00:00:00	2024-11-06T04:00:00	1	Precipitación	0
67816	7	Sololá	701	Sololá	3	Barraneche	12	Diciembre	2023-12-20T00:00:00	2024-11-06T04:00:00	8	Radiación solar	0
67817	7	Sololá	701	Sololá	3	Barraneche	12	Diciembre	2023-12-20T00:00:00	2024-11-06T05:00:00	2	Temperatura media	9.3
67818	7	Sololá	701	Sololá	3	Barraneche	12	Diciembre	2023-12-20T00:00:00	2024-11-06T05:00:00	4	Temperatura máxima	9.9
67819	7	Sololá	701	Sololá	3	Barraneche	12	Diciembre	2023-12-20T00:00:00	2024-11-06T05:00:00	3	Temperatura mínima	8.5
67820	7	Sololá	701	Sololá	3	Barraneche	12	Diciembre	2023-12-20T00:00:00	2024-11-06T05:00:00	5	Humedad	25
67821	7	Sololá	701	Sololá	3	Barraneche	12	Diciembre	2023-12-20T00:00:00	2024-11-06T05:00:00	6	Velocidad del viento	11.3
67822	7	Sololá	701	Sololá	3	Barraneche	12	Diciembre	2023-12-20T00:00:00	2024-11-06T05:00:00	7	Dirección del viento	11.27
67823	7	Sololá	701	Sololá	3	Barraneche	12	Diciembre	2023-12-20T00:00:00	2024-11-06T05:00:00	1	Precipitación	0
67824	7	Sololá	701	Sololá	3	Barraneche	12	Diciembre	2023-12-20T00:00:00	2024-11-06T05:00:00	8	Radiación solar	0
67825	7	Sololá	701	Sololá	3	Barraneche	12	Diciembre	2023-12-20T00:00:00	2024-11-06T06:00:00	2	Temperatura media	7.6
67826	7	Sololá	701	Sololá	3	Barraneche	12	Diciembre	2023-12-20T00:00:00	2024-11-06T06:00:00	4	Temperatura máxima	9.3
67827	7	Sololá	701	Sololá	3	Barraneche	12	Diciembre	2023-12-20T00:00:00	2024-11-06T06:00:00	3	Temperatura mínima	7.5
67828	7	Sololá	701	Sololá	3	Barraneche	12	Diciembre	2023-12-20T00:00:00	2024-11-06T06:00:00	5	Humedad	29
67829	7	Sololá	701	Sololá	3	Barraneche	12	Diciembre	2023-12-20T00:00:00	2024-11-06T06:00:00	6	Velocidad del viento	6.4
67830	7	Sololá	701	Sololá	3	Barraneche	12	Diciembre	2023-12-20T00:00:00	2024-11-06T06:00:00	7	Dirección del viento	6.44
67831	7	Sololá	701	Sololá	3	Barraneche	12	Diciembre	2023-12-20T00:00:00	2024-11-06T06:00:00	1	Precipitación	0
67832	7	Sololá	701	Sololá	3	Barraneche	12	Diciembre	2023-12-20T00:00:00	2024-11-06T06:00:00	8	Radiación solar	0
67833	7	Sololá	701	Sololá	3	Barraneche	12	Diciembre	2023-12-20T00:00:00	2024-11-06T07:00:00	2	Temperatura media	7.4
67834	7	Sololá	701	Sololá	3	Barraneche	12	Diciembre	2023-12-20T00:00:00	2024-11-06T07:00:00	4	Temperatura máxima	8.6
67835	7	Sololá	701	Sololá	3	Barraneche	12	Diciembre	2023-12-20T00:00:00	2024-11-06T07:00:00	3	Temperatura mínima	7.4
67836	7	Sololá	701	Sololá	3	Barraneche	12	Diciembre	2023-12-20T00:00:00	2024-11-06T07:00:00	5	Humedad	33
67837	7	Sololá	701	Sololá	3	Barraneche	12	Diciembre	2023-12-20T00:00:00	2024-11-06T07:00:00	6	Velocidad del viento	6.4
67838	7	Sololá	701	Sololá	3	Barraneche	12	Diciembre	2023-12-20T00:00:00	2024-11-06T07:00:00	7	Dirección del viento	6.44
67839	7	Sololá	701	Sololá	3	Barraneche	12	Diciembre	2023-12-20T00:00:00	2024-11-06T07:00:00	1	Precipitación	0
67840	7	Sololá	701	Sololá	3	Barraneche	12	Diciembre	2023-12-20T00:00:00	2024-11-06T07:00:00	8	Radiación solar	9
67841	7	Sololá	701	Sololá	3	Barraneche	12	Diciembre	2023-12-20T00:00:00	2024-11-06T08:00:00	2	Temperatura media	12.4
67842	7	Sololá	701	Sololá	3	Barraneche	12	Diciembre	2023-12-20T00:00:00	2024-11-06T08:00:00	4	Temperatura máxima	12.4
67843	7	Sololá	701	Sololá	3	Barraneche	12	Diciembre	2023-12-20T00:00:00	2024-11-06T08:00:00	3	Temperatura mínima	7.3
67844	7	Sololá	701	Sololá	3	Barraneche	12	Diciembre	2023-12-20T00:00:00	2024-11-06T08:00:00	5	Humedad	28
67845	7	Sololá	701	Sololá	3	Barraneche	12	Diciembre	2023-12-20T00:00:00	2024-11-06T08:00:00	6	Velocidad del viento	4.8
67846	7	Sololá	701	Sololá	3	Barraneche	12	Diciembre	2023-12-20T00:00:00	2024-11-06T08:00:00	7	Dirección del viento	4.83
67847	7	Sololá	701	Sololá	3	Barraneche	12	Diciembre	2023-12-20T00:00:00	2024-11-06T08:00:00	1	Precipitación	0
67848	7	Sololá	701	Sololá	3	Barraneche	12	Diciembre	2023-12-20T00:00:00	2024-11-06T08:00:00	8	Radiación solar	204
67849	7	Sololá	701	Sololá	3	Barraneche	12	Diciembre	2023-12-20T00:00:00	2024-11-06T09:00:00	2	Temperatura media	16.9
67850	7	Sololá	701	Sololá	3	Barraneche	12	Diciembre	2023-12-20T00:00:00	2024-11-06T09:00:00	4	Temperatura máxima	16.9
67851	7	Sololá	701	Sololá	3	Barraneche	12	Diciembre	2023-12-20T00:00:00	2024-11-06T09:00:00	3	Temperatura mínima	12.4
67852	7	Sololá	701	Sololá	3	Barraneche	12	Diciembre	2023-12-20T00:00:00	2024-11-06T09:00:00	5	Humedad	19
67853	7	Sololá	701	Sololá	3	Barraneche	12	Diciembre	2023-12-20T00:00:00	2024-11-06T09:00:00	6	Velocidad del viento	3.2
67854	7	Sololá	701	Sololá	3	Barraneche	12	Diciembre	2023-12-20T00:00:00	2024-11-06T09:00:00	7	Dirección del viento	3.22
67855	7	Sololá	701	Sololá	3	Barraneche	12	Diciembre	2023-12-20T00:00:00	2024-11-06T09:00:00	1	Precipitación	0
67856	7	Sololá	701	Sololá	3	Barraneche	12	Diciembre	2023-12-20T00:00:00	2024-11-06T09:00:00	8	Radiación solar	448
67857	7	Sololá	701	Sololá	3	Barraneche	12	Diciembre	2023-12-20T00:00:00	2024-11-06T10:00:00	2	Temperatura media	19.5
67858	7	Sololá	701	Sololá	3	Barraneche	12	Diciembre	2023-12-20T00:00:00	2024-11-06T10:00:00	4	Temperatura máxima	19.5
67859	7	Sololá	701	Sololá	3	Barraneche	12	Diciembre	2023-12-20T00:00:00	2024-11-06T10:00:00	3	Temperatura mínima	16.9
67860	7	Sololá	701	Sololá	3	Barraneche	12	Diciembre	2023-12-20T00:00:00	2024-11-06T10:00:00	5	Humedad	10
67861	7	Sololá	701	Sololá	3	Barraneche	12	Diciembre	2023-12-20T00:00:00	2024-11-06T10:00:00	6	Velocidad del viento	4.8
67862	7	Sololá	701	Sololá	3	Barraneche	12	Diciembre	2023-12-20T00:00:00	2024-11-06T10:00:00	7	Dirección del viento	4.83
67863	7	Sololá	701	Sololá	3	Barraneche	12	Diciembre	2023-12-20T00:00:00	2024-11-06T10:00:00	1	Precipitación	0
67864	7	Sololá	701	Sololá	3	Barraneche	12	Diciembre	2023-12-20T00:00:00	2024-11-06T10:00:00	8	Radiación solar	644
67865	7	Sololá	701	Sololá	3	Barraneche	12	Diciembre	2023-12-20T00:00:00	2024-11-06T11:00:00	2	Temperatura media	20.4
67866	7	Sololá	701	Sololá	3	Barraneche	12	Diciembre	2023-12-20T00:00:00	2024-11-06T11:00:00	4	Temperatura máxima	20.6
67867	7	Sololá	701	Sololá	3	Barraneche	12	Diciembre	2023-12-20T00:00:00	2024-11-06T11:00:00	3	Temperatura mínima	19.4
67868	7	Sololá	701	Sololá	3	Barraneche	12	Diciembre	2023-12-20T00:00:00	2024-11-06T11:00:00	5	Humedad	4
67869	7	Sololá	701	Sololá	3	Barraneche	12	Diciembre	2023-12-20T00:00:00	2024-11-06T11:00:00	6	Velocidad del viento	8
67870	7	Sololá	701	Sololá	3	Barraneche	12	Diciembre	2023-12-20T00:00:00	2024-11-06T11:00:00	7	Dirección del viento	8.05
67871	7	Sololá	701	Sololá	3	Barraneche	12	Diciembre	2023-12-20T00:00:00	2024-11-06T11:00:00	1	Precipitación	0
67872	7	Sololá	701	Sololá	3	Barraneche	12	Diciembre	2023-12-20T00:00:00	2024-11-06T11:00:00	8	Radiación solar	793
67873	7	Sololá	701	Sololá	3	Barraneche	12	Diciembre	2023-12-20T00:00:00	2024-11-06T12:00:00	2	Temperatura media	20.6
67874	7	Sololá	701	Sololá	3	Barraneche	12	Diciembre	2023-12-20T00:00:00	2024-11-06T12:00:00	4	Temperatura máxima	21.7
67875	7	Sololá	701	Sololá	3	Barraneche	12	Diciembre	2023-12-20T00:00:00	2024-11-06T12:00:00	3	Temperatura mínima	20.4
67876	7	Sololá	701	Sololá	3	Barraneche	12	Diciembre	2023-12-20T00:00:00	2024-11-06T12:00:00	5	Humedad	4
67877	7	Sololá	701	Sololá	3	Barraneche	12	Diciembre	2023-12-20T00:00:00	2024-11-06T12:00:00	6	Velocidad del viento	11.3
67878	7	Sololá	701	Sololá	3	Barraneche	12	Diciembre	2023-12-20T00:00:00	2024-11-06T12:00:00	7	Dirección del viento	11.27
67879	7	Sololá	701	Sololá	3	Barraneche	12	Diciembre	2023-12-20T00:00:00	2024-11-06T12:00:00	1	Precipitación	0
67880	7	Sololá	701	Sololá	3	Barraneche	12	Diciembre	2023-12-20T00:00:00	2024-11-06T12:00:00	8	Radiación solar	876
67881	7	Sololá	701	Sololá	3	Barraneche	12	Diciembre	2023-12-20T00:00:00	2024-11-06T13:00:00	2	Temperatura media	20.7
67882	7	Sololá	701	Sololá	3	Barraneche	12	Diciembre	2023-12-20T00:00:00	2024-11-06T13:00:00	4	Temperatura máxima	20.8
67883	7	Sololá	701	Sololá	3	Barraneche	12	Diciembre	2023-12-20T00:00:00	2024-11-06T13:00:00	3	Temperatura mínima	20.3
67884	7	Sololá	701	Sololá	3	Barraneche	12	Diciembre	2023-12-20T00:00:00	2024-11-06T13:00:00	5	Humedad	6
67885	7	Sololá	701	Sololá	3	Barraneche	12	Diciembre	2023-12-20T00:00:00	2024-11-06T13:00:00	6	Velocidad del viento	14.5
67886	7	Sololá	701	Sololá	3	Barraneche	12	Diciembre	2023-12-20T00:00:00	2024-11-06T13:00:00	7	Dirección del viento	14.48
67887	7	Sololá	701	Sololá	3	Barraneche	12	Diciembre	2023-12-20T00:00:00	2024-11-06T13:00:00	1	Precipitación	0
67888	7	Sololá	701	Sololá	3	Barraneche	12	Diciembre	2023-12-20T00:00:00	2024-11-06T13:00:00	8	Radiación solar	872
67889	7	Sololá	701	Sololá	3	Barraneche	12	Diciembre	2023-12-20T00:00:00	2024-11-06T14:00:00	2	Temperatura media	19.6
67890	7	Sololá	701	Sololá	3	Barraneche	12	Diciembre	2023-12-20T00:00:00	2024-11-06T14:00:00	4	Temperatura máxima	20.9
67891	7	Sololá	701	Sololá	3	Barraneche	12	Diciembre	2023-12-20T00:00:00	2024-11-06T14:00:00	3	Temperatura mínima	19.1
67892	7	Sololá	701	Sololá	3	Barraneche	12	Diciembre	2023-12-20T00:00:00	2024-11-06T14:00:00	5	Humedad	18
67893	7	Sololá	701	Sololá	3	Barraneche	12	Diciembre	2023-12-20T00:00:00	2024-11-06T14:00:00	6	Velocidad del viento	12.9
67894	7	Sololá	701	Sololá	3	Barraneche	12	Diciembre	2023-12-20T00:00:00	2024-11-06T14:00:00	7	Dirección del viento	12.87
67895	7	Sololá	701	Sololá	3	Barraneche	12	Diciembre	2023-12-20T00:00:00	2024-11-06T14:00:00	1	Precipitación	0
67896	7	Sololá	701	Sololá	3	Barraneche	12	Diciembre	2023-12-20T00:00:00	2024-11-06T14:00:00	8	Radiación solar	785
67897	7	Sololá	701	Sololá	3	Barraneche	12	Diciembre	2023-12-20T00:00:00	2024-11-06T15:00:00	2	Temperatura media	20.1
67898	7	Sololá	701	Sololá	3	Barraneche	12	Diciembre	2023-12-20T00:00:00	2024-11-06T15:00:00	4	Temperatura máxima	20.2
67899	7	Sololá	701	Sololá	3	Barraneche	12	Diciembre	2023-12-20T00:00:00	2024-11-06T15:00:00	3	Temperatura mínima	18.8
67900	7	Sololá	701	Sololá	3	Barraneche	12	Diciembre	2023-12-20T00:00:00	2024-11-06T15:00:00	5	Humedad	18
67901	7	Sololá	701	Sololá	3	Barraneche	12	Diciembre	2023-12-20T00:00:00	2024-11-06T15:00:00	6	Velocidad del viento	16.1
67902	7	Sololá	701	Sololá	3	Barraneche	12	Diciembre	2023-12-20T00:00:00	2024-11-06T15:00:00	7	Dirección del viento	16.09
67903	7	Sololá	701	Sololá	3	Barraneche	12	Diciembre	2023-12-20T00:00:00	2024-11-06T15:00:00	1	Precipitación	0
67904	7	Sololá	701	Sololá	3	Barraneche	12	Diciembre	2023-12-20T00:00:00	2024-11-06T15:00:00	8	Radiación solar	638
67905	7	Sololá	701	Sololá	3	Barraneche	12	Diciembre	2023-12-20T00:00:00	2024-11-06T16:00:00	2	Temperatura media	19.9
67906	7	Sololá	701	Sololá	3	Barraneche	12	Diciembre	2023-12-20T00:00:00	2024-11-06T16:00:00	4	Temperatura máxima	20.2
67907	7	Sololá	701	Sololá	3	Barraneche	12	Diciembre	2023-12-20T00:00:00	2024-11-06T16:00:00	3	Temperatura mínima	19.4
67908	7	Sololá	701	Sololá	3	Barraneche	12	Diciembre	2023-12-20T00:00:00	2024-11-06T16:00:00	5	Humedad	20
67909	7	Sololá	701	Sololá	3	Barraneche	12	Diciembre	2023-12-20T00:00:00	2024-11-06T16:00:00	6	Velocidad del viento	8
67910	7	Sololá	701	Sololá	3	Barraneche	12	Diciembre	2023-12-20T00:00:00	2024-11-06T16:00:00	7	Dirección del viento	8.05
67911	7	Sololá	701	Sololá	3	Barraneche	12	Diciembre	2023-12-20T00:00:00	2024-11-06T16:00:00	1	Precipitación	0
67912	7	Sololá	701	Sololá	3	Barraneche	12	Diciembre	2023-12-20T00:00:00	2024-11-06T16:00:00	8	Radiación solar	425
67913	7	Sololá	701	Sololá	3	Barraneche	12	Diciembre	2023-12-20T00:00:00	2024-11-06T17:00:00	2	Temperatura media	17.2
67914	7	Sololá	701	Sololá	3	Barraneche	12	Diciembre	2023-12-20T00:00:00	2024-11-06T17:00:00	4	Temperatura máxima	20
67915	7	Sololá	701	Sololá	3	Barraneche	12	Diciembre	2023-12-20T00:00:00	2024-11-06T17:00:00	3	Temperatura mínima	17.1
67916	7	Sololá	701	Sololá	3	Barraneche	12	Diciembre	2023-12-20T00:00:00	2024-11-06T17:00:00	5	Humedad	32
67917	7	Sololá	701	Sololá	3	Barraneche	12	Diciembre	2023-12-20T00:00:00	2024-11-06T17:00:00	6	Velocidad del viento	6.4
67918	7	Sololá	701	Sololá	3	Barraneche	12	Diciembre	2023-12-20T00:00:00	2024-11-06T17:00:00	7	Dirección del viento	6.44
67919	7	Sololá	701	Sololá	3	Barraneche	12	Diciembre	2023-12-20T00:00:00	2024-11-06T17:00:00	1	Precipitación	0
67920	7	Sololá	701	Sololá	3	Barraneche	12	Diciembre	2023-12-20T00:00:00	2024-11-06T17:00:00	8	Radiación solar	191
67921	7	Sololá	701	Sololá	3	Barraneche	12	Diciembre	2023-12-20T00:00:00	2024-11-06T18:00:00	2	Temperatura media	9.9
67922	7	Sololá	701	Sololá	3	Barraneche	12	Diciembre	2023-12-20T00:00:00	2024-11-06T18:00:00	4	Temperatura máxima	17.2
67923	7	Sololá	701	Sololá	3	Barraneche	12	Diciembre	2023-12-20T00:00:00	2024-11-06T18:00:00	3	Temperatura mínima	9.9
67924	7	Sololá	701	Sololá	3	Barraneche	12	Diciembre	2023-12-20T00:00:00	2024-11-06T18:00:00	5	Humedad	27
67925	7	Sololá	701	Sololá	3	Barraneche	12	Diciembre	2023-12-20T00:00:00	2024-11-06T18:00:00	6	Velocidad del viento	4.8
67926	7	Sololá	701	Sololá	3	Barraneche	12	Diciembre	2023-12-20T00:00:00	2024-11-06T18:00:00	7	Dirección del viento	4.83
67927	7	Sololá	701	Sololá	3	Barraneche	12	Diciembre	2023-12-20T00:00:00	2024-11-06T18:00:00	1	Precipitación	0
67928	7	Sololá	701	Sololá	3	Barraneche	12	Diciembre	2023-12-20T00:00:00	2024-11-06T18:00:00	8	Radiación solar	18
67929	7	Sololá	701	Sololá	3	Barraneche	12	Diciembre	2023-12-20T00:00:00	2024-11-06T19:00:00	2	Temperatura media	8.4
67930	7	Sololá	701	Sololá	3	Barraneche	12	Diciembre	2023-12-20T00:00:00	2024-11-06T19:00:00	4	Temperatura máxima	9.9
67931	7	Sololá	701	Sololá	3	Barraneche	12	Diciembre	2023-12-20T00:00:00	2024-11-06T19:00:00	3	Temperatura mínima	8.4
67932	7	Sololá	701	Sololá	3	Barraneche	12	Diciembre	2023-12-20T00:00:00	2024-11-06T19:00:00	5	Humedad	27
67933	7	Sololá	701	Sololá	3	Barraneche	12	Diciembre	2023-12-20T00:00:00	2024-11-06T19:00:00	6	Velocidad del viento	9.7
67934	7	Sololá	701	Sololá	3	Barraneche	12	Diciembre	2023-12-20T00:00:00	2024-11-06T19:00:00	7	Dirección del viento	9.66
67935	7	Sololá	701	Sololá	3	Barraneche	12	Diciembre	2023-12-20T00:00:00	2024-11-06T19:00:00	1	Precipitación	0
67936	7	Sololá	701	Sololá	3	Barraneche	12	Diciembre	2023-12-20T00:00:00	2024-11-06T19:00:00	8	Radiación solar	0
67937	7	Sololá	701	Sololá	3	Barraneche	12	Diciembre	2023-12-20T00:00:00	2024-11-06T20:00:00	2	Temperatura media	6.7
67938	7	Sololá	701	Sololá	3	Barraneche	12	Diciembre	2023-12-20T00:00:00	2024-11-06T20:00:00	4	Temperatura máxima	8.4
67939	7	Sololá	701	Sololá	3	Barraneche	12	Diciembre	2023-12-20T00:00:00	2024-11-06T20:00:00	3	Temperatura mínima	6.7
67940	7	Sololá	701	Sololá	3	Barraneche	12	Diciembre	2023-12-20T00:00:00	2024-11-06T20:00:00	5	Humedad	33
67941	7	Sololá	701	Sololá	3	Barraneche	12	Diciembre	2023-12-20T00:00:00	2024-11-06T20:00:00	6	Velocidad del viento	6.4
67942	7	Sololá	701	Sololá	3	Barraneche	12	Diciembre	2023-12-20T00:00:00	2024-11-06T20:00:00	7	Dirección del viento	6.44
67943	7	Sololá	701	Sololá	3	Barraneche	12	Diciembre	2023-12-20T00:00:00	2024-11-06T20:00:00	1	Precipitación	0
67944	7	Sololá	701	Sololá	3	Barraneche	12	Diciembre	2023-12-20T00:00:00	2024-11-06T20:00:00	8	Radiación solar	0
67945	7	Sololá	701	Sololá	3	Barraneche	12	Diciembre	2023-12-20T00:00:00	2024-11-06T21:00:00	2	Temperatura media	5.3
67946	7	Sololá	701	Sololá	3	Barraneche	12	Diciembre	2023-12-20T00:00:00	2024-11-06T21:00:00	4	Temperatura máxima	6.8
67947	7	Sololá	701	Sololá	3	Barraneche	12	Diciembre	2023-12-20T00:00:00	2024-11-06T21:00:00	3	Temperatura mínima	5.3
67948	7	Sololá	701	Sololá	3	Barraneche	12	Diciembre	2023-12-20T00:00:00	2024-11-06T21:00:00	5	Humedad	35
67949	7	Sololá	701	Sololá	3	Barraneche	12	Diciembre	2023-12-20T00:00:00	2024-11-06T21:00:00	6	Velocidad del viento	8
67950	7	Sololá	701	Sololá	3	Barraneche	12	Diciembre	2023-12-20T00:00:00	2024-11-06T21:00:00	7	Dirección del viento	8.05
67951	7	Sololá	701	Sololá	3	Barraneche	12	Diciembre	2023-12-20T00:00:00	2024-11-06T21:00:00	1	Precipitación	0
67952	7	Sololá	701	Sololá	3	Barraneche	12	Diciembre	2023-12-20T00:00:00	2024-11-06T21:00:00	8	Radiación solar	0
67953	7	Sololá	701	Sololá	3	Barraneche	12	Diciembre	2023-12-20T00:00:00	2024-11-06T22:00:00	2	Temperatura media	4.8
67954	7	Sololá	701	Sololá	3	Barraneche	12	Diciembre	2023-12-20T00:00:00	2024-11-06T22:00:00	4	Temperatura máxima	5.8
67955	7	Sololá	701	Sololá	3	Barraneche	12	Diciembre	2023-12-20T00:00:00	2024-11-06T22:00:00	3	Temperatura mínima	4.7
67956	7	Sololá	701	Sololá	3	Barraneche	12	Diciembre	2023-12-20T00:00:00	2024-11-06T22:00:00	5	Humedad	34
67957	7	Sololá	701	Sololá	3	Barraneche	12	Diciembre	2023-12-20T00:00:00	2024-11-06T22:00:00	6	Velocidad del viento	4.8
67958	7	Sololá	701	Sololá	3	Barraneche	12	Diciembre	2023-12-20T00:00:00	2024-11-06T22:00:00	7	Dirección del viento	4.83
67959	7	Sololá	701	Sololá	3	Barraneche	12	Diciembre	2023-12-20T00:00:00	2024-11-06T22:00:00	1	Precipitación	0
67960	7	Sololá	701	Sololá	3	Barraneche	12	Diciembre	2023-12-20T00:00:00	2024-11-06T22:00:00	8	Radiación solar	0
67961	7	Sololá	701	Sololá	3	Barraneche	12	Diciembre	2023-12-20T00:00:00	2024-11-06T23:00:00	2	Temperatura media	4.1
67962	7	Sololá	701	Sololá	3	Barraneche	12	Diciembre	2023-12-20T00:00:00	2024-11-06T23:00:00	4	Temperatura máxima	4.8
67963	7	Sololá	701	Sololá	3	Barraneche	12	Diciembre	2023-12-20T00:00:00	2024-11-06T23:00:00	3	Temperatura mínima	3.8
67964	7	Sololá	701	Sololá	3	Barraneche	12	Diciembre	2023-12-20T00:00:00	2024-11-06T23:00:00	5	Humedad	34
67965	7	Sololá	701	Sololá	3	Barraneche	12	Diciembre	2023-12-20T00:00:00	2024-11-06T23:00:00	6	Velocidad del viento	4.8
67966	7	Sololá	701	Sololá	3	Barraneche	12	Diciembre	2023-12-20T00:00:00	2024-11-06T23:00:00	7	Dirección del viento	4.83
67967	7	Sololá	701	Sololá	3	Barraneche	12	Diciembre	2023-12-20T00:00:00	2024-11-06T23:00:00	1	Precipitación	0
67968	7	Sololá	701	Sololá	3	Barraneche	12	Diciembre	2023-12-20T00:00:00	2024-11-06T23:00:00	8	Radiación solar	0
67969	7	Sololá	701	Sololá	3	Barraneche	12	Diciembre	2023-12-21T00:00:00	2024-11-06T00:00:00	2	Temperatura media	4.6
67970	7	Sololá	701	Sololá	3	Barraneche	12	Diciembre	2023-12-21T00:00:00	2024-11-06T00:00:00	4	Temperatura máxima	4.6
67971	7	Sololá	701	Sololá	3	Barraneche	12	Diciembre	2023-12-21T00:00:00	2024-11-06T00:00:00	3	Temperatura mínima	3.8
67972	7	Sololá	701	Sololá	3	Barraneche	12	Diciembre	2023-12-21T00:00:00	2024-11-06T00:00:00	5	Humedad	26
67973	7	Sololá	701	Sololá	3	Barraneche	12	Diciembre	2023-12-21T00:00:00	2024-11-06T00:00:00	6	Velocidad del viento	4.8
67974	7	Sololá	701	Sololá	3	Barraneche	12	Diciembre	2023-12-21T00:00:00	2024-11-06T00:00:00	7	Dirección del viento	4.83
67975	7	Sololá	701	Sololá	3	Barraneche	12	Diciembre	2023-12-21T00:00:00	2024-11-06T00:00:00	1	Precipitación	0
67976	7	Sololá	701	Sololá	3	Barraneche	12	Diciembre	2023-12-21T00:00:00	2024-11-06T00:00:00	8	Radiación solar	0
67977	7	Sololá	701	Sololá	3	Barraneche	12	Diciembre	2023-12-21T00:00:00	2024-11-06T01:00:00	2	Temperatura media	4.2
67978	7	Sololá	701	Sololá	3	Barraneche	12	Diciembre	2023-12-21T00:00:00	2024-11-06T01:00:00	4	Temperatura máxima	4.7
67979	7	Sololá	701	Sololá	3	Barraneche	12	Diciembre	2023-12-21T00:00:00	2024-11-06T01:00:00	3	Temperatura mínima	3.3
67980	7	Sololá	701	Sololá	3	Barraneche	12	Diciembre	2023-12-21T00:00:00	2024-11-06T01:00:00	5	Humedad	33
67981	7	Sololá	701	Sololá	3	Barraneche	12	Diciembre	2023-12-21T00:00:00	2024-11-06T01:00:00	6	Velocidad del viento	3.2
67982	7	Sololá	701	Sololá	3	Barraneche	12	Diciembre	2023-12-21T00:00:00	2024-11-06T01:00:00	7	Dirección del viento	3.22
67983	7	Sololá	701	Sololá	3	Barraneche	12	Diciembre	2023-12-21T00:00:00	2024-11-06T01:00:00	1	Precipitación	0
67984	7	Sololá	701	Sololá	3	Barraneche	12	Diciembre	2023-12-21T00:00:00	2024-11-06T01:00:00	8	Radiación solar	0
67985	7	Sololá	701	Sololá	3	Barraneche	12	Diciembre	2023-12-21T00:00:00	2024-11-06T02:00:00	2	Temperatura media	4.4
67986	7	Sololá	701	Sololá	3	Barraneche	12	Diciembre	2023-12-21T00:00:00	2024-11-06T02:00:00	4	Temperatura máxima	4.5
67987	7	Sololá	701	Sololá	3	Barraneche	12	Diciembre	2023-12-21T00:00:00	2024-11-06T02:00:00	3	Temperatura mínima	3.1
67988	7	Sololá	701	Sololá	3	Barraneche	12	Diciembre	2023-12-21T00:00:00	2024-11-06T02:00:00	5	Humedad	29
67989	7	Sololá	701	Sololá	3	Barraneche	12	Diciembre	2023-12-21T00:00:00	2024-11-06T02:00:00	6	Velocidad del viento	3.2
67990	7	Sololá	701	Sololá	3	Barraneche	12	Diciembre	2023-12-21T00:00:00	2024-11-06T02:00:00	7	Dirección del viento	3.22
67991	7	Sololá	701	Sololá	3	Barraneche	12	Diciembre	2023-12-21T00:00:00	2024-11-06T02:00:00	1	Precipitación	0
67992	7	Sololá	701	Sololá	3	Barraneche	12	Diciembre	2023-12-21T00:00:00	2024-11-06T02:00:00	8	Radiación solar	0
67993	7	Sololá	701	Sololá	3	Barraneche	12	Diciembre	2023-12-21T00:00:00	2024-11-06T03:00:00	2	Temperatura media	5.4
67994	7	Sololá	701	Sololá	3	Barraneche	12	Diciembre	2023-12-21T00:00:00	2024-11-06T03:00:00	4	Temperatura máxima	5.4
67995	7	Sololá	701	Sololá	3	Barraneche	12	Diciembre	2023-12-21T00:00:00	2024-11-06T03:00:00	3	Temperatura mínima	4.3
67996	7	Sololá	701	Sololá	3	Barraneche	12	Diciembre	2023-12-21T00:00:00	2024-11-06T03:00:00	5	Humedad	23
67997	7	Sololá	701	Sololá	3	Barraneche	12	Diciembre	2023-12-21T00:00:00	2024-11-06T03:00:00	6	Velocidad del viento	3.2
67998	7	Sololá	701	Sololá	3	Barraneche	12	Diciembre	2023-12-21T00:00:00	2024-11-06T03:00:00	7	Dirección del viento	3.22
67999	7	Sololá	701	Sololá	3	Barraneche	12	Diciembre	2023-12-21T00:00:00	2024-11-06T03:00:00	1	Precipitación	0
68000	7	Sololá	701	Sololá	3	Barraneche	12	Diciembre	2023-12-21T00:00:00	2024-11-06T03:00:00	8	Radiación solar	0
68001	7	Sololá	701	Sololá	3	Barraneche	12	Diciembre	2023-12-21T00:00:00	2024-11-06T04:00:00	2	Temperatura media	5.7
68002	7	Sololá	701	Sololá	3	Barraneche	12	Diciembre	2023-12-21T00:00:00	2024-11-06T04:00:00	4	Temperatura máxima	6
68003	7	Sololá	701	Sololá	3	Barraneche	12	Diciembre	2023-12-21T00:00:00	2024-11-06T04:00:00	3	Temperatura mínima	5.1
68004	7	Sololá	701	Sololá	3	Barraneche	12	Diciembre	2023-12-21T00:00:00	2024-11-06T04:00:00	5	Humedad	25
68005	7	Sololá	701	Sololá	3	Barraneche	12	Diciembre	2023-12-21T00:00:00	2024-11-06T04:00:00	6	Velocidad del viento	4.8
68006	7	Sololá	701	Sololá	3	Barraneche	12	Diciembre	2023-12-21T00:00:00	2024-11-06T04:00:00	7	Dirección del viento	4.83
68007	7	Sololá	701	Sololá	3	Barraneche	12	Diciembre	2023-12-21T00:00:00	2024-11-06T04:00:00	1	Precipitación	0
68008	7	Sololá	701	Sololá	3	Barraneche	12	Diciembre	2023-12-21T00:00:00	2024-11-06T04:00:00	8	Radiación solar	0
68009	7	Sololá	701	Sololá	3	Barraneche	12	Diciembre	2023-12-21T00:00:00	2024-11-06T05:00:00	2	Temperatura media	5.8
68010	7	Sololá	701	Sololá	3	Barraneche	12	Diciembre	2023-12-21T00:00:00	2024-11-06T05:00:00	4	Temperatura máxima	5.8
68011	7	Sololá	701	Sololá	3	Barraneche	12	Diciembre	2023-12-21T00:00:00	2024-11-06T05:00:00	3	Temperatura mínima	4
68012	7	Sololá	701	Sololá	3	Barraneche	12	Diciembre	2023-12-21T00:00:00	2024-11-06T05:00:00	5	Humedad	21
68013	7	Sololá	701	Sololá	3	Barraneche	12	Diciembre	2023-12-21T00:00:00	2024-11-06T05:00:00	6	Velocidad del viento	4.8
68014	7	Sololá	701	Sololá	3	Barraneche	12	Diciembre	2023-12-21T00:00:00	2024-11-06T05:00:00	7	Dirección del viento	4.83
68015	7	Sololá	701	Sololá	3	Barraneche	12	Diciembre	2023-12-21T00:00:00	2024-11-06T05:00:00	1	Precipitación	0
68016	7	Sololá	701	Sololá	3	Barraneche	12	Diciembre	2023-12-21T00:00:00	2024-11-06T05:00:00	8	Radiación solar	0
68017	7	Sololá	701	Sololá	3	Barraneche	12	Diciembre	2023-12-21T00:00:00	2024-11-06T06:00:00	2	Temperatura media	6.4
68018	7	Sololá	701	Sololá	3	Barraneche	12	Diciembre	2023-12-21T00:00:00	2024-11-06T06:00:00	4	Temperatura máxima	7.2
68019	7	Sololá	701	Sololá	3	Barraneche	12	Diciembre	2023-12-21T00:00:00	2024-11-06T06:00:00	3	Temperatura mínima	5.8
68020	7	Sololá	701	Sololá	3	Barraneche	12	Diciembre	2023-12-21T00:00:00	2024-11-06T06:00:00	5	Humedad	19
68021	7	Sololá	701	Sololá	3	Barraneche	12	Diciembre	2023-12-21T00:00:00	2024-11-06T06:00:00	6	Velocidad del viento	4.8
68022	7	Sololá	701	Sololá	3	Barraneche	12	Diciembre	2023-12-21T00:00:00	2024-11-06T06:00:00	7	Dirección del viento	4.83
68023	7	Sololá	701	Sololá	3	Barraneche	12	Diciembre	2023-12-21T00:00:00	2024-11-06T06:00:00	1	Precipitación	0
68024	7	Sololá	701	Sololá	3	Barraneche	12	Diciembre	2023-12-21T00:00:00	2024-11-06T06:00:00	8	Radiación solar	0
68025	7	Sololá	701	Sololá	3	Barraneche	12	Diciembre	2023-12-21T00:00:00	2024-11-06T07:00:00	2	Temperatura media	7.6
68026	7	Sololá	701	Sololá	3	Barraneche	12	Diciembre	2023-12-21T00:00:00	2024-11-06T07:00:00	4	Temperatura máxima	8.1
68027	7	Sololá	701	Sololá	3	Barraneche	12	Diciembre	2023-12-21T00:00:00	2024-11-06T07:00:00	3	Temperatura mínima	6.3
68028	7	Sololá	701	Sololá	3	Barraneche	12	Diciembre	2023-12-21T00:00:00	2024-11-06T07:00:00	5	Humedad	17
68029	7	Sololá	701	Sololá	3	Barraneche	12	Diciembre	2023-12-21T00:00:00	2024-11-06T07:00:00	6	Velocidad del viento	6.4
68030	7	Sololá	701	Sololá	3	Barraneche	12	Diciembre	2023-12-21T00:00:00	2024-11-06T07:00:00	7	Dirección del viento	6.44
68031	7	Sololá	701	Sololá	3	Barraneche	12	Diciembre	2023-12-21T00:00:00	2024-11-06T07:00:00	1	Precipitación	0
68032	7	Sololá	701	Sololá	3	Barraneche	12	Diciembre	2023-12-21T00:00:00	2024-11-06T07:00:00	8	Radiación solar	7
68033	7	Sololá	701	Sololá	3	Barraneche	12	Diciembre	2023-12-21T00:00:00	2024-11-06T08:00:00	2	Temperatura media	12
68034	7	Sololá	701	Sololá	3	Barraneche	12	Diciembre	2023-12-21T00:00:00	2024-11-06T08:00:00	4	Temperatura máxima	12
68035	7	Sololá	701	Sololá	3	Barraneche	12	Diciembre	2023-12-21T00:00:00	2024-11-06T08:00:00	3	Temperatura mínima	7.5
68036	7	Sololá	701	Sololá	3	Barraneche	12	Diciembre	2023-12-21T00:00:00	2024-11-06T08:00:00	5	Humedad	15
68037	7	Sololá	701	Sololá	3	Barraneche	12	Diciembre	2023-12-21T00:00:00	2024-11-06T08:00:00	6	Velocidad del viento	3.2
68038	7	Sololá	701	Sololá	3	Barraneche	12	Diciembre	2023-12-21T00:00:00	2024-11-06T08:00:00	7	Dirección del viento	3.22
68039	7	Sololá	701	Sololá	3	Barraneche	12	Diciembre	2023-12-21T00:00:00	2024-11-06T08:00:00	1	Precipitación	0
68040	7	Sololá	701	Sololá	3	Barraneche	12	Diciembre	2023-12-21T00:00:00	2024-11-06T08:00:00	8	Radiación solar	203
68041	7	Sololá	701	Sololá	3	Barraneche	12	Diciembre	2023-12-21T00:00:00	2024-11-06T09:00:00	2	Temperatura media	15.2
68042	7	Sololá	701	Sololá	3	Barraneche	12	Diciembre	2023-12-21T00:00:00	2024-11-06T09:00:00	4	Temperatura máxima	15.2
68043	7	Sololá	701	Sololá	3	Barraneche	12	Diciembre	2023-12-21T00:00:00	2024-11-06T09:00:00	3	Temperatura mínima	12
68044	7	Sololá	701	Sololá	3	Barraneche	12	Diciembre	2023-12-21T00:00:00	2024-11-06T09:00:00	5	Humedad	29
68045	7	Sololá	701	Sololá	3	Barraneche	12	Diciembre	2023-12-21T00:00:00	2024-11-06T09:00:00	6	Velocidad del viento	3.2
68046	7	Sololá	701	Sololá	3	Barraneche	12	Diciembre	2023-12-21T00:00:00	2024-11-06T09:00:00	7	Dirección del viento	3.22
68047	7	Sololá	701	Sololá	3	Barraneche	12	Diciembre	2023-12-21T00:00:00	2024-11-06T09:00:00	1	Precipitación	0
68048	7	Sololá	701	Sololá	3	Barraneche	12	Diciembre	2023-12-21T00:00:00	2024-11-06T09:00:00	8	Radiación solar	450
68049	7	Sololá	701	Sololá	3	Barraneche	12	Diciembre	2023-12-21T00:00:00	2024-11-06T10:00:00	2	Temperatura media	18.6
68050	7	Sololá	701	Sololá	3	Barraneche	12	Diciembre	2023-12-21T00:00:00	2024-11-06T10:00:00	4	Temperatura máxima	18.6
68051	7	Sololá	701	Sololá	3	Barraneche	12	Diciembre	2023-12-21T00:00:00	2024-11-06T10:00:00	3	Temperatura mínima	15.2
68052	7	Sololá	701	Sololá	3	Barraneche	12	Diciembre	2023-12-21T00:00:00	2024-11-06T10:00:00	5	Humedad	17
68053	7	Sololá	701	Sololá	3	Barraneche	12	Diciembre	2023-12-21T00:00:00	2024-11-06T10:00:00	6	Velocidad del viento	8
68054	7	Sololá	701	Sololá	3	Barraneche	12	Diciembre	2023-12-21T00:00:00	2024-11-06T10:00:00	7	Dirección del viento	8.05
68055	7	Sololá	701	Sololá	3	Barraneche	12	Diciembre	2023-12-21T00:00:00	2024-11-06T10:00:00	1	Precipitación	0
68056	7	Sololá	701	Sololá	3	Barraneche	12	Diciembre	2023-12-21T00:00:00	2024-11-06T10:00:00	8	Radiación solar	654
68057	7	Sololá	701	Sololá	3	Barraneche	12	Diciembre	2023-12-21T00:00:00	2024-11-06T11:00:00	2	Temperatura media	18.9
68058	7	Sololá	701	Sololá	3	Barraneche	12	Diciembre	2023-12-21T00:00:00	2024-11-06T11:00:00	4	Temperatura máxima	19.1
68059	7	Sololá	701	Sololá	3	Barraneche	12	Diciembre	2023-12-21T00:00:00	2024-11-06T11:00:00	3	Temperatura mínima	18.4
68060	7	Sololá	701	Sololá	3	Barraneche	12	Diciembre	2023-12-21T00:00:00	2024-11-06T11:00:00	5	Humedad	29
68061	7	Sololá	701	Sololá	3	Barraneche	12	Diciembre	2023-12-21T00:00:00	2024-11-06T11:00:00	6	Velocidad del viento	8
68062	7	Sololá	701	Sololá	3	Barraneche	12	Diciembre	2023-12-21T00:00:00	2024-11-06T11:00:00	7	Dirección del viento	8.05
68063	7	Sololá	701	Sololá	3	Barraneche	12	Diciembre	2023-12-21T00:00:00	2024-11-06T11:00:00	1	Precipitación	0
68064	7	Sololá	701	Sololá	3	Barraneche	12	Diciembre	2023-12-21T00:00:00	2024-11-06T11:00:00	8	Radiación solar	787
68065	7	Sololá	701	Sololá	3	Barraneche	12	Diciembre	2023-12-21T00:00:00	2024-11-06T12:00:00	2	Temperatura media	19.5
68066	7	Sololá	701	Sololá	3	Barraneche	12	Diciembre	2023-12-21T00:00:00	2024-11-06T12:00:00	4	Temperatura máxima	19.6
68067	7	Sololá	701	Sololá	3	Barraneche	12	Diciembre	2023-12-21T00:00:00	2024-11-06T12:00:00	3	Temperatura mínima	18.3
68068	7	Sololá	701	Sololá	3	Barraneche	12	Diciembre	2023-12-21T00:00:00	2024-11-06T12:00:00	5	Humedad	18
68069	7	Sololá	701	Sololá	3	Barraneche	12	Diciembre	2023-12-21T00:00:00	2024-11-06T12:00:00	6	Velocidad del viento	11.3
68070	7	Sololá	701	Sololá	3	Barraneche	12	Diciembre	2023-12-21T00:00:00	2024-11-06T12:00:00	7	Dirección del viento	11.27
68071	7	Sololá	701	Sololá	3	Barraneche	12	Diciembre	2023-12-21T00:00:00	2024-11-06T12:00:00	1	Precipitación	0
68072	7	Sololá	701	Sololá	3	Barraneche	12	Diciembre	2023-12-21T00:00:00	2024-11-06T12:00:00	8	Radiación solar	845
68073	7	Sololá	701	Sololá	3	Barraneche	12	Diciembre	2023-12-21T00:00:00	2024-11-06T13:00:00	2	Temperatura media	20.1
68074	7	Sololá	701	Sololá	3	Barraneche	12	Diciembre	2023-12-21T00:00:00	2024-11-06T13:00:00	4	Temperatura máxima	20.7
68075	7	Sololá	701	Sololá	3	Barraneche	12	Diciembre	2023-12-21T00:00:00	2024-11-06T13:00:00	3	Temperatura mínima	19.6
68076	7	Sololá	701	Sololá	3	Barraneche	12	Diciembre	2023-12-21T00:00:00	2024-11-06T13:00:00	5	Humedad	29
68077	7	Sololá	701	Sololá	3	Barraneche	12	Diciembre	2023-12-21T00:00:00	2024-11-06T13:00:00	6	Velocidad del viento	11.3
68078	7	Sololá	701	Sololá	3	Barraneche	12	Diciembre	2023-12-21T00:00:00	2024-11-06T13:00:00	7	Dirección del viento	11.27
68079	7	Sololá	701	Sololá	3	Barraneche	12	Diciembre	2023-12-21T00:00:00	2024-11-06T13:00:00	1	Precipitación	0
68080	7	Sololá	701	Sololá	3	Barraneche	12	Diciembre	2023-12-21T00:00:00	2024-11-06T13:00:00	8	Radiación solar	843
68081	7	Sololá	701	Sololá	3	Barraneche	12	Diciembre	2023-12-21T00:00:00	2024-11-06T14:00:00	2	Temperatura media	18.6
68082	7	Sololá	701	Sololá	3	Barraneche	12	Diciembre	2023-12-21T00:00:00	2024-11-06T14:00:00	4	Temperatura máxima	20.2
68083	7	Sololá	701	Sololá	3	Barraneche	12	Diciembre	2023-12-21T00:00:00	2024-11-06T14:00:00	3	Temperatura mínima	18.3
68084	7	Sololá	701	Sololá	3	Barraneche	12	Diciembre	2023-12-21T00:00:00	2024-11-06T14:00:00	5	Humedad	34
68085	7	Sololá	701	Sololá	3	Barraneche	12	Diciembre	2023-12-21T00:00:00	2024-11-06T14:00:00	6	Velocidad del viento	12.9
68086	7	Sololá	701	Sololá	3	Barraneche	12	Diciembre	2023-12-21T00:00:00	2024-11-06T14:00:00	7	Dirección del viento	12.87
68087	7	Sololá	701	Sololá	3	Barraneche	12	Diciembre	2023-12-21T00:00:00	2024-11-06T14:00:00	1	Precipitación	0
68088	7	Sololá	701	Sololá	3	Barraneche	12	Diciembre	2023-12-21T00:00:00	2024-11-06T14:00:00	8	Radiación solar	762
68089	7	Sololá	701	Sololá	3	Barraneche	12	Diciembre	2023-12-21T00:00:00	2024-11-06T15:00:00	2	Temperatura media	18
68090	7	Sololá	701	Sololá	3	Barraneche	12	Diciembre	2023-12-21T00:00:00	2024-11-06T15:00:00	4	Temperatura máxima	18.9
68091	7	Sololá	701	Sololá	3	Barraneche	12	Diciembre	2023-12-21T00:00:00	2024-11-06T15:00:00	3	Temperatura mínima	17.6
68092	7	Sololá	701	Sololá	3	Barraneche	12	Diciembre	2023-12-21T00:00:00	2024-11-06T15:00:00	5	Humedad	35
68093	7	Sololá	701	Sololá	3	Barraneche	12	Diciembre	2023-12-21T00:00:00	2024-11-06T15:00:00	6	Velocidad del viento	14.5
68094	7	Sololá	701	Sololá	3	Barraneche	12	Diciembre	2023-12-21T00:00:00	2024-11-06T15:00:00	7	Dirección del viento	14.48
68095	7	Sololá	701	Sololá	3	Barraneche	12	Diciembre	2023-12-21T00:00:00	2024-11-06T15:00:00	1	Precipitación	0
68096	7	Sololá	701	Sololá	3	Barraneche	12	Diciembre	2023-12-21T00:00:00	2024-11-06T15:00:00	8	Radiación solar	626
68097	7	Sololá	701	Sololá	3	Barraneche	12	Diciembre	2023-12-21T00:00:00	2024-11-06T16:00:00	2	Temperatura media	16.6
68098	7	Sololá	701	Sololá	3	Barraneche	12	Diciembre	2023-12-21T00:00:00	2024-11-06T16:00:00	4	Temperatura máxima	18
68099	7	Sololá	701	Sololá	3	Barraneche	12	Diciembre	2023-12-21T00:00:00	2024-11-06T16:00:00	3	Temperatura mínima	16.4
68100	7	Sololá	701	Sololá	3	Barraneche	12	Diciembre	2023-12-21T00:00:00	2024-11-06T16:00:00	5	Humedad	40
68101	7	Sololá	701	Sololá	3	Barraneche	12	Diciembre	2023-12-21T00:00:00	2024-11-06T16:00:00	6	Velocidad del viento	16.1
68102	7	Sololá	701	Sololá	3	Barraneche	12	Diciembre	2023-12-21T00:00:00	2024-11-06T16:00:00	7	Dirección del viento	16.09
68103	7	Sololá	701	Sololá	3	Barraneche	12	Diciembre	2023-12-21T00:00:00	2024-11-06T16:00:00	1	Precipitación	0
68104	7	Sololá	701	Sololá	3	Barraneche	12	Diciembre	2023-12-21T00:00:00	2024-11-06T16:00:00	8	Radiación solar	417
68105	7	Sololá	701	Sololá	3	Barraneche	12	Diciembre	2023-12-21T00:00:00	2024-11-06T17:00:00	2	Temperatura media	14.1
68106	7	Sololá	701	Sololá	3	Barraneche	12	Diciembre	2023-12-21T00:00:00	2024-11-06T17:00:00	4	Temperatura máxima	16.7
68107	7	Sololá	701	Sololá	3	Barraneche	12	Diciembre	2023-12-21T00:00:00	2024-11-06T17:00:00	3	Temperatura mínima	14.1
68108	7	Sololá	701	Sololá	3	Barraneche	12	Diciembre	2023-12-21T00:00:00	2024-11-06T17:00:00	5	Humedad	43
68109	7	Sololá	701	Sololá	3	Barraneche	12	Diciembre	2023-12-21T00:00:00	2024-11-06T17:00:00	6	Velocidad del viento	16.1
68110	7	Sololá	701	Sololá	3	Barraneche	12	Diciembre	2023-12-21T00:00:00	2024-11-06T17:00:00	7	Dirección del viento	16.09
68111	7	Sololá	701	Sololá	3	Barraneche	12	Diciembre	2023-12-21T00:00:00	2024-11-06T17:00:00	1	Precipitación	0
68112	7	Sololá	701	Sololá	3	Barraneche	12	Diciembre	2023-12-21T00:00:00	2024-11-06T17:00:00	8	Radiación solar	192
68113	7	Sololá	701	Sololá	3	Barraneche	12	Diciembre	2023-12-21T00:00:00	2024-11-06T18:00:00	2	Temperatura media	10.9
68114	7	Sololá	701	Sololá	3	Barraneche	12	Diciembre	2023-12-21T00:00:00	2024-11-06T18:00:00	4	Temperatura máxima	14.1
68115	7	Sololá	701	Sololá	3	Barraneche	12	Diciembre	2023-12-21T00:00:00	2024-11-06T18:00:00	3	Temperatura mínima	10.9
68116	7	Sololá	701	Sololá	3	Barraneche	12	Diciembre	2023-12-21T00:00:00	2024-11-06T18:00:00	5	Humedad	50
68117	7	Sololá	701	Sololá	3	Barraneche	12	Diciembre	2023-12-21T00:00:00	2024-11-06T18:00:00	6	Velocidad del viento	20.9
68118	7	Sololá	701	Sololá	3	Barraneche	12	Diciembre	2023-12-21T00:00:00	2024-11-06T18:00:00	7	Dirección del viento	20.92
68119	7	Sololá	701	Sololá	3	Barraneche	12	Diciembre	2023-12-21T00:00:00	2024-11-06T18:00:00	1	Precipitación	0
68120	7	Sololá	701	Sololá	3	Barraneche	12	Diciembre	2023-12-21T00:00:00	2024-11-06T18:00:00	8	Radiación solar	22
68121	7	Sololá	701	Sololá	3	Barraneche	12	Diciembre	2023-12-21T00:00:00	2024-11-06T19:00:00	2	Temperatura media	10.3
68122	7	Sololá	701	Sololá	3	Barraneche	12	Diciembre	2023-12-21T00:00:00	2024-11-06T19:00:00	4	Temperatura máxima	10.9
68123	7	Sololá	701	Sololá	3	Barraneche	12	Diciembre	2023-12-21T00:00:00	2024-11-06T19:00:00	3	Temperatura mínima	10.1
68124	7	Sololá	701	Sololá	3	Barraneche	12	Diciembre	2023-12-21T00:00:00	2024-11-06T19:00:00	5	Humedad	50
68125	7	Sololá	701	Sololá	3	Barraneche	12	Diciembre	2023-12-21T00:00:00	2024-11-06T19:00:00	6	Velocidad del viento	19.3
68126	7	Sololá	701	Sololá	3	Barraneche	12	Diciembre	2023-12-21T00:00:00	2024-11-06T19:00:00	7	Dirección del viento	19.31
68127	7	Sololá	701	Sololá	3	Barraneche	12	Diciembre	2023-12-21T00:00:00	2024-11-06T19:00:00	1	Precipitación	0
68128	7	Sololá	701	Sololá	3	Barraneche	12	Diciembre	2023-12-21T00:00:00	2024-11-06T19:00:00	8	Radiación solar	0
68129	7	Sololá	701	Sololá	3	Barraneche	12	Diciembre	2023-12-21T00:00:00	2024-11-06T20:00:00	2	Temperatura media	10.2
68130	7	Sololá	701	Sololá	3	Barraneche	12	Diciembre	2023-12-21T00:00:00	2024-11-06T20:00:00	4	Temperatura máxima	10.4
68131	7	Sololá	701	Sololá	3	Barraneche	12	Diciembre	2023-12-21T00:00:00	2024-11-06T20:00:00	3	Temperatura mínima	10
68132	7	Sololá	701	Sololá	3	Barraneche	12	Diciembre	2023-12-21T00:00:00	2024-11-06T20:00:00	5	Humedad	48
68133	7	Sololá	701	Sololá	3	Barraneche	12	Diciembre	2023-12-21T00:00:00	2024-11-06T20:00:00	6	Velocidad del viento	14.5
68134	7	Sololá	701	Sololá	3	Barraneche	12	Diciembre	2023-12-21T00:00:00	2024-11-06T20:00:00	7	Dirección del viento	14.48
68135	7	Sololá	701	Sololá	3	Barraneche	12	Diciembre	2023-12-21T00:00:00	2024-11-06T20:00:00	1	Precipitación	0
68136	7	Sololá	701	Sololá	3	Barraneche	12	Diciembre	2023-12-21T00:00:00	2024-11-06T20:00:00	8	Radiación solar	0
68137	7	Sololá	701	Sololá	3	Barraneche	12	Diciembre	2023-12-21T00:00:00	2024-11-06T21:00:00	2	Temperatura media	10
68138	7	Sololá	701	Sololá	3	Barraneche	12	Diciembre	2023-12-21T00:00:00	2024-11-06T21:00:00	4	Temperatura máxima	10.4
68139	7	Sololá	701	Sololá	3	Barraneche	12	Diciembre	2023-12-21T00:00:00	2024-11-06T21:00:00	3	Temperatura mínima	9.9
68140	7	Sololá	701	Sololá	3	Barraneche	12	Diciembre	2023-12-21T00:00:00	2024-11-06T21:00:00	5	Humedad	51
68141	7	Sololá	701	Sololá	3	Barraneche	12	Diciembre	2023-12-21T00:00:00	2024-11-06T21:00:00	6	Velocidad del viento	16.1
68142	7	Sololá	701	Sololá	3	Barraneche	12	Diciembre	2023-12-21T00:00:00	2024-11-06T21:00:00	7	Dirección del viento	16.09
68143	7	Sololá	701	Sololá	3	Barraneche	12	Diciembre	2023-12-21T00:00:00	2024-11-06T21:00:00	1	Precipitación	0
68144	7	Sololá	701	Sololá	3	Barraneche	12	Diciembre	2023-12-21T00:00:00	2024-11-06T21:00:00	8	Radiación solar	0
68145	7	Sololá	701	Sololá	3	Barraneche	12	Diciembre	2023-12-21T00:00:00	2024-11-06T22:00:00	2	Temperatura media	10
68146	7	Sololá	701	Sololá	3	Barraneche	12	Diciembre	2023-12-21T00:00:00	2024-11-06T22:00:00	4	Temperatura máxima	10.2
68147	7	Sololá	701	Sololá	3	Barraneche	12	Diciembre	2023-12-21T00:00:00	2024-11-06T22:00:00	3	Temperatura mínima	9.6
68148	7	Sololá	701	Sololá	3	Barraneche	12	Diciembre	2023-12-21T00:00:00	2024-11-06T22:00:00	5	Humedad	53
68149	7	Sololá	701	Sololá	3	Barraneche	12	Diciembre	2023-12-21T00:00:00	2024-11-06T22:00:00	6	Velocidad del viento	16.1
68150	7	Sololá	701	Sololá	3	Barraneche	12	Diciembre	2023-12-21T00:00:00	2024-11-06T22:00:00	7	Dirección del viento	16.09
68151	7	Sololá	701	Sololá	3	Barraneche	12	Diciembre	2023-12-21T00:00:00	2024-11-06T22:00:00	1	Precipitación	0
68152	7	Sololá	701	Sololá	3	Barraneche	12	Diciembre	2023-12-21T00:00:00	2024-11-06T22:00:00	8	Radiación solar	0
68153	7	Sololá	701	Sololá	3	Barraneche	12	Diciembre	2023-12-21T00:00:00	2024-11-06T23:00:00	2	Temperatura media	9.8
68154	7	Sololá	701	Sololá	3	Barraneche	12	Diciembre	2023-12-21T00:00:00	2024-11-06T23:00:00	4	Temperatura máxima	10.3
68155	7	Sololá	701	Sololá	3	Barraneche	12	Diciembre	2023-12-21T00:00:00	2024-11-06T23:00:00	3	Temperatura mínima	9.8
68156	7	Sololá	701	Sololá	3	Barraneche	12	Diciembre	2023-12-21T00:00:00	2024-11-06T23:00:00	5	Humedad	54
68157	7	Sololá	701	Sololá	3	Barraneche	12	Diciembre	2023-12-21T00:00:00	2024-11-06T23:00:00	6	Velocidad del viento	14.5
68158	7	Sololá	701	Sololá	3	Barraneche	12	Diciembre	2023-12-21T00:00:00	2024-11-06T23:00:00	7	Dirección del viento	14.48
68159	7	Sololá	701	Sololá	3	Barraneche	12	Diciembre	2023-12-21T00:00:00	2024-11-06T23:00:00	1	Precipitación	0
68160	7	Sololá	701	Sololá	3	Barraneche	12	Diciembre	2023-12-21T00:00:00	2024-11-06T23:00:00	8	Radiación solar	0
68161	7	Sololá	701	Sololá	3	Barraneche	12	Diciembre	2023-12-22T00:00:00	2024-11-06T00:00:00	2	Temperatura media	9.8
68162	7	Sololá	701	Sololá	3	Barraneche	12	Diciembre	2023-12-22T00:00:00	2024-11-06T00:00:00	4	Temperatura máxima	10
68163	7	Sololá	701	Sololá	3	Barraneche	12	Diciembre	2023-12-22T00:00:00	2024-11-06T00:00:00	3	Temperatura mínima	9.6
68164	7	Sololá	701	Sololá	3	Barraneche	12	Diciembre	2023-12-22T00:00:00	2024-11-06T00:00:00	5	Humedad	49
68165	7	Sololá	701	Sololá	3	Barraneche	12	Diciembre	2023-12-22T00:00:00	2024-11-06T00:00:00	6	Velocidad del viento	12.9
68166	7	Sololá	701	Sololá	3	Barraneche	12	Diciembre	2023-12-22T00:00:00	2024-11-06T00:00:00	7	Dirección del viento	12.87
68167	7	Sololá	701	Sololá	3	Barraneche	12	Diciembre	2023-12-22T00:00:00	2024-11-06T00:00:00	1	Precipitación	0
68168	7	Sololá	701	Sololá	3	Barraneche	12	Diciembre	2023-12-22T00:00:00	2024-11-06T00:00:00	8	Radiación solar	0
68169	7	Sololá	701	Sololá	3	Barraneche	12	Diciembre	2023-12-22T00:00:00	2024-11-06T01:00:00	2	Temperatura media	8.4
68170	7	Sololá	701	Sololá	3	Barraneche	12	Diciembre	2023-12-22T00:00:00	2024-11-06T01:00:00	4	Temperatura máxima	9.9
68171	7	Sololá	701	Sololá	3	Barraneche	12	Diciembre	2023-12-22T00:00:00	2024-11-06T01:00:00	3	Temperatura mínima	8.4
68172	7	Sololá	701	Sololá	3	Barraneche	12	Diciembre	2023-12-22T00:00:00	2024-11-06T01:00:00	5	Humedad	47
68173	7	Sololá	701	Sololá	3	Barraneche	12	Diciembre	2023-12-22T00:00:00	2024-11-06T01:00:00	6	Velocidad del viento	6.4
68174	7	Sololá	701	Sololá	3	Barraneche	12	Diciembre	2023-12-22T00:00:00	2024-11-06T01:00:00	7	Dirección del viento	6.44
68175	7	Sololá	701	Sololá	3	Barraneche	12	Diciembre	2023-12-22T00:00:00	2024-11-06T01:00:00	1	Precipitación	0
68176	7	Sololá	701	Sololá	3	Barraneche	12	Diciembre	2023-12-22T00:00:00	2024-11-06T01:00:00	8	Radiación solar	0
68177	7	Sololá	701	Sololá	3	Barraneche	12	Diciembre	2023-12-22T00:00:00	2024-11-06T02:00:00	2	Temperatura media	7.3
68178	7	Sololá	701	Sololá	3	Barraneche	12	Diciembre	2023-12-22T00:00:00	2024-11-06T02:00:00	4	Temperatura máxima	8.4
68179	7	Sololá	701	Sololá	3	Barraneche	12	Diciembre	2023-12-22T00:00:00	2024-11-06T02:00:00	3	Temperatura mínima	7.3
68180	7	Sololá	701	Sololá	3	Barraneche	12	Diciembre	2023-12-22T00:00:00	2024-11-06T02:00:00	5	Humedad	34
68181	7	Sololá	701	Sololá	3	Barraneche	12	Diciembre	2023-12-22T00:00:00	2024-11-06T02:00:00	6	Velocidad del viento	3.2
68182	7	Sololá	701	Sololá	3	Barraneche	12	Diciembre	2023-12-22T00:00:00	2024-11-06T02:00:00	7	Dirección del viento	3.22
68183	7	Sololá	701	Sololá	3	Barraneche	12	Diciembre	2023-12-22T00:00:00	2024-11-06T02:00:00	1	Precipitación	0
68184	7	Sololá	701	Sololá	3	Barraneche	12	Diciembre	2023-12-22T00:00:00	2024-11-06T02:00:00	8	Radiación solar	0
68185	7	Sololá	701	Sololá	3	Barraneche	12	Diciembre	2023-12-22T00:00:00	2024-11-06T03:00:00	2	Temperatura media	6.5
68186	7	Sololá	701	Sololá	3	Barraneche	12	Diciembre	2023-12-22T00:00:00	2024-11-06T03:00:00	4	Temperatura máxima	7.8
68187	7	Sololá	701	Sololá	3	Barraneche	12	Diciembre	2023-12-22T00:00:00	2024-11-06T03:00:00	3	Temperatura mínima	6.4
68188	7	Sololá	701	Sololá	3	Barraneche	12	Diciembre	2023-12-22T00:00:00	2024-11-06T03:00:00	5	Humedad	41
68189	7	Sololá	701	Sololá	3	Barraneche	12	Diciembre	2023-12-22T00:00:00	2024-11-06T03:00:00	6	Velocidad del viento	3.2
68190	7	Sololá	701	Sololá	3	Barraneche	12	Diciembre	2023-12-22T00:00:00	2024-11-06T03:00:00	7	Dirección del viento	3.22
68191	7	Sololá	701	Sololá	3	Barraneche	12	Diciembre	2023-12-22T00:00:00	2024-11-06T03:00:00	1	Precipitación	0
68192	7	Sololá	701	Sololá	3	Barraneche	12	Diciembre	2023-12-22T00:00:00	2024-11-06T03:00:00	8	Radiación solar	0
68193	7	Sololá	701	Sololá	3	Barraneche	12	Diciembre	2023-12-22T00:00:00	2024-11-06T04:00:00	2	Temperatura media	7.7
68194	7	Sololá	701	Sololá	3	Barraneche	12	Diciembre	2023-12-22T00:00:00	2024-11-06T04:00:00	4	Temperatura máxima	8.6
68195	7	Sololá	701	Sololá	3	Barraneche	12	Diciembre	2023-12-22T00:00:00	2024-11-06T04:00:00	3	Temperatura mínima	6.4
68196	7	Sololá	701	Sololá	3	Barraneche	12	Diciembre	2023-12-22T00:00:00	2024-11-06T04:00:00	5	Humedad	43
68197	7	Sololá	701	Sololá	3	Barraneche	12	Diciembre	2023-12-22T00:00:00	2024-11-06T04:00:00	6	Velocidad del viento	3.2
68198	7	Sololá	701	Sololá	3	Barraneche	12	Diciembre	2023-12-22T00:00:00	2024-11-06T04:00:00	7	Dirección del viento	3.22
68199	7	Sololá	701	Sololá	3	Barraneche	12	Diciembre	2023-12-22T00:00:00	2024-11-06T04:00:00	1	Precipitación	0
68200	7	Sololá	701	Sololá	3	Barraneche	12	Diciembre	2023-12-22T00:00:00	2024-11-06T04:00:00	8	Radiación solar	0
68201	7	Sololá	701	Sololá	3	Barraneche	12	Diciembre	2023-12-22T00:00:00	2024-11-06T05:00:00	2	Temperatura media	8.3
68202	7	Sololá	701	Sololá	3	Barraneche	12	Diciembre	2023-12-22T00:00:00	2024-11-06T05:00:00	4	Temperatura máxima	8.9
68203	7	Sololá	701	Sololá	3	Barraneche	12	Diciembre	2023-12-22T00:00:00	2024-11-06T05:00:00	3	Temperatura mínima	7.2
68204	7	Sololá	701	Sololá	3	Barraneche	12	Diciembre	2023-12-22T00:00:00	2024-11-06T05:00:00	5	Humedad	45
68205	7	Sololá	701	Sololá	3	Barraneche	12	Diciembre	2023-12-22T00:00:00	2024-11-06T05:00:00	6	Velocidad del viento	4.8
68206	7	Sololá	701	Sololá	3	Barraneche	12	Diciembre	2023-12-22T00:00:00	2024-11-06T05:00:00	7	Dirección del viento	4.83
68207	7	Sololá	701	Sololá	3	Barraneche	12	Diciembre	2023-12-22T00:00:00	2024-11-06T05:00:00	1	Precipitación	0
68208	7	Sololá	701	Sololá	3	Barraneche	12	Diciembre	2023-12-22T00:00:00	2024-11-06T05:00:00	8	Radiación solar	0
68209	7	Sololá	701	Sololá	3	Barraneche	12	Diciembre	2023-12-22T00:00:00	2024-11-06T06:00:00	2	Temperatura media	6.3
68210	7	Sololá	701	Sololá	3	Barraneche	12	Diciembre	2023-12-22T00:00:00	2024-11-06T06:00:00	4	Temperatura máxima	8.4
68211	7	Sololá	701	Sololá	3	Barraneche	12	Diciembre	2023-12-22T00:00:00	2024-11-06T06:00:00	3	Temperatura mínima	5.8
68212	7	Sololá	701	Sololá	3	Barraneche	12	Diciembre	2023-12-22T00:00:00	2024-11-06T06:00:00	5	Humedad	45
68213	7	Sololá	701	Sololá	3	Barraneche	12	Diciembre	2023-12-22T00:00:00	2024-11-06T06:00:00	6	Velocidad del viento	6.4
68214	7	Sololá	701	Sololá	3	Barraneche	12	Diciembre	2023-12-22T00:00:00	2024-11-06T06:00:00	7	Dirección del viento	6.44
68215	7	Sololá	701	Sololá	3	Barraneche	12	Diciembre	2023-12-22T00:00:00	2024-11-06T06:00:00	1	Precipitación	0
68216	7	Sololá	701	Sololá	3	Barraneche	12	Diciembre	2023-12-22T00:00:00	2024-11-06T06:00:00	8	Radiación solar	0
68217	7	Sololá	701	Sololá	3	Barraneche	12	Diciembre	2023-12-22T00:00:00	2024-11-06T07:00:00	2	Temperatura media	6.9
68218	7	Sololá	701	Sololá	3	Barraneche	12	Diciembre	2023-12-22T00:00:00	2024-11-06T07:00:00	4	Temperatura máxima	7.1
68219	7	Sololá	701	Sololá	3	Barraneche	12	Diciembre	2023-12-22T00:00:00	2024-11-06T07:00:00	3	Temperatura mínima	6.1
68220	7	Sololá	701	Sololá	3	Barraneche	12	Diciembre	2023-12-22T00:00:00	2024-11-06T07:00:00	5	Humedad	50
68221	7	Sololá	701	Sololá	3	Barraneche	12	Diciembre	2023-12-22T00:00:00	2024-11-06T07:00:00	6	Velocidad del viento	6.4
68222	7	Sololá	701	Sololá	3	Barraneche	12	Diciembre	2023-12-22T00:00:00	2024-11-06T07:00:00	7	Dirección del viento	6.44
68223	7	Sololá	701	Sololá	3	Barraneche	12	Diciembre	2023-12-22T00:00:00	2024-11-06T07:00:00	1	Precipitación	0
68224	7	Sololá	701	Sololá	3	Barraneche	12	Diciembre	2023-12-22T00:00:00	2024-11-06T07:00:00	8	Radiación solar	9
68225	7	Sololá	701	Sololá	3	Barraneche	12	Diciembre	2023-12-22T00:00:00	2024-11-06T08:00:00	2	Temperatura media	15.1
68226	7	Sololá	701	Sololá	3	Barraneche	12	Diciembre	2023-12-22T00:00:00	2024-11-06T08:00:00	4	Temperatura máxima	15.1
68227	7	Sololá	701	Sololá	3	Barraneche	12	Diciembre	2023-12-22T00:00:00	2024-11-06T08:00:00	3	Temperatura mínima	6.9
68228	7	Sololá	701	Sololá	3	Barraneche	12	Diciembre	2023-12-22T00:00:00	2024-11-06T08:00:00	5	Humedad	34
68229	7	Sololá	701	Sololá	3	Barraneche	12	Diciembre	2023-12-22T00:00:00	2024-11-06T08:00:00	6	Velocidad del viento	6.4
68230	7	Sololá	701	Sololá	3	Barraneche	12	Diciembre	2023-12-22T00:00:00	2024-11-06T08:00:00	7	Dirección del viento	6.44
68231	7	Sololá	701	Sololá	3	Barraneche	12	Diciembre	2023-12-22T00:00:00	2024-11-06T08:00:00	1	Precipitación	0
68232	7	Sololá	701	Sololá	3	Barraneche	12	Diciembre	2023-12-22T00:00:00	2024-11-06T08:00:00	8	Radiación solar	189
68233	7	Sololá	701	Sololá	3	Barraneche	12	Diciembre	2023-12-22T00:00:00	2024-11-06T09:00:00	2	Temperatura media	16.7
68234	7	Sololá	701	Sololá	3	Barraneche	12	Diciembre	2023-12-22T00:00:00	2024-11-06T09:00:00	4	Temperatura máxima	16.7
68235	7	Sololá	701	Sololá	3	Barraneche	12	Diciembre	2023-12-22T00:00:00	2024-11-06T09:00:00	3	Temperatura mínima	15
68236	7	Sololá	701	Sololá	3	Barraneche	12	Diciembre	2023-12-22T00:00:00	2024-11-06T09:00:00	5	Humedad	32
68237	7	Sololá	701	Sololá	3	Barraneche	12	Diciembre	2023-12-22T00:00:00	2024-11-06T09:00:00	6	Velocidad del viento	8
68238	7	Sololá	701	Sololá	3	Barraneche	12	Diciembre	2023-12-22T00:00:00	2024-11-06T09:00:00	7	Dirección del viento	8.05
68239	7	Sololá	701	Sololá	3	Barraneche	12	Diciembre	2023-12-22T00:00:00	2024-11-06T09:00:00	1	Precipitación	0
68240	7	Sololá	701	Sololá	3	Barraneche	12	Diciembre	2023-12-22T00:00:00	2024-11-06T09:00:00	8	Radiación solar	432
68241	7	Sololá	701	Sololá	3	Barraneche	12	Diciembre	2023-12-22T00:00:00	2024-11-06T10:00:00	2	Temperatura media	17.3
68242	7	Sololá	701	Sololá	3	Barraneche	12	Diciembre	2023-12-22T00:00:00	2024-11-06T10:00:00	4	Temperatura máxima	17.3
68243	7	Sololá	701	Sololá	3	Barraneche	12	Diciembre	2023-12-22T00:00:00	2024-11-06T10:00:00	3	Temperatura mínima	16.6
68244	7	Sololá	701	Sololá	3	Barraneche	12	Diciembre	2023-12-22T00:00:00	2024-11-06T10:00:00	5	Humedad	35
68245	7	Sololá	701	Sololá	3	Barraneche	12	Diciembre	2023-12-22T00:00:00	2024-11-06T10:00:00	6	Velocidad del viento	6.4
68246	7	Sololá	701	Sololá	3	Barraneche	12	Diciembre	2023-12-22T00:00:00	2024-11-06T10:00:00	7	Dirección del viento	6.44
68247	7	Sololá	701	Sololá	3	Barraneche	12	Diciembre	2023-12-22T00:00:00	2024-11-06T10:00:00	1	Precipitación	0
68248	7	Sololá	701	Sololá	3	Barraneche	12	Diciembre	2023-12-22T00:00:00	2024-11-06T10:00:00	8	Radiación solar	628
68249	7	Sololá	701	Sololá	3	Barraneche	12	Diciembre	2023-12-22T00:00:00	2024-11-06T11:00:00	2	Temperatura media	18.2
68250	7	Sololá	701	Sololá	3	Barraneche	12	Diciembre	2023-12-22T00:00:00	2024-11-06T11:00:00	4	Temperatura máxima	18.2
68251	7	Sololá	701	Sololá	3	Barraneche	12	Diciembre	2023-12-22T00:00:00	2024-11-06T11:00:00	3	Temperatura mínima	17.1
68252	7	Sololá	701	Sololá	3	Barraneche	12	Diciembre	2023-12-22T00:00:00	2024-11-06T11:00:00	5	Humedad	36
68253	7	Sololá	701	Sololá	3	Barraneche	12	Diciembre	2023-12-22T00:00:00	2024-11-06T11:00:00	6	Velocidad del viento	6.4
68254	7	Sololá	701	Sololá	3	Barraneche	12	Diciembre	2023-12-22T00:00:00	2024-11-06T11:00:00	7	Dirección del viento	6.44
68255	7	Sololá	701	Sololá	3	Barraneche	12	Diciembre	2023-12-22T00:00:00	2024-11-06T11:00:00	1	Precipitación	0
68256	7	Sololá	701	Sololá	3	Barraneche	12	Diciembre	2023-12-22T00:00:00	2024-11-06T11:00:00	8	Radiación solar	761
68257	7	Sololá	701	Sololá	3	Barraneche	12	Diciembre	2023-12-22T00:00:00	2024-11-06T12:00:00	2	Temperatura media	18.2
68258	7	Sololá	701	Sololá	3	Barraneche	12	Diciembre	2023-12-22T00:00:00	2024-11-06T12:00:00	4	Temperatura máxima	18.4
68259	7	Sololá	701	Sololá	3	Barraneche	12	Diciembre	2023-12-22T00:00:00	2024-11-06T12:00:00	3	Temperatura mínima	17.9
68260	7	Sololá	701	Sololá	3	Barraneche	12	Diciembre	2023-12-22T00:00:00	2024-11-06T12:00:00	5	Humedad	38
68261	7	Sololá	701	Sololá	3	Barraneche	12	Diciembre	2023-12-22T00:00:00	2024-11-06T12:00:00	6	Velocidad del viento	8
68262	7	Sololá	701	Sololá	3	Barraneche	12	Diciembre	2023-12-22T00:00:00	2024-11-06T12:00:00	7	Dirección del viento	8.05
68263	7	Sololá	701	Sololá	3	Barraneche	12	Diciembre	2023-12-22T00:00:00	2024-11-06T12:00:00	1	Precipitación	0
68264	7	Sololá	701	Sololá	3	Barraneche	12	Diciembre	2023-12-22T00:00:00	2024-11-06T12:00:00	8	Radiación solar	837
68265	7	Sololá	701	Sololá	3	Barraneche	12	Diciembre	2023-12-22T00:00:00	2024-11-06T13:00:00	2	Temperatura media	18.8
68266	7	Sololá	701	Sololá	3	Barraneche	12	Diciembre	2023-12-22T00:00:00	2024-11-06T13:00:00	4	Temperatura máxima	18.8
68267	7	Sololá	701	Sololá	3	Barraneche	12	Diciembre	2023-12-22T00:00:00	2024-11-06T13:00:00	3	Temperatura mínima	17.9
68268	7	Sololá	701	Sololá	3	Barraneche	12	Diciembre	2023-12-22T00:00:00	2024-11-06T13:00:00	5	Humedad	39
68269	7	Sololá	701	Sololá	3	Barraneche	12	Diciembre	2023-12-22T00:00:00	2024-11-06T13:00:00	6	Velocidad del viento	9.7
68270	7	Sololá	701	Sololá	3	Barraneche	12	Diciembre	2023-12-22T00:00:00	2024-11-06T13:00:00	7	Dirección del viento	9.66
68271	7	Sololá	701	Sololá	3	Barraneche	12	Diciembre	2023-12-22T00:00:00	2024-11-06T13:00:00	1	Precipitación	0
68272	7	Sololá	701	Sololá	3	Barraneche	12	Diciembre	2023-12-22T00:00:00	2024-11-06T13:00:00	8	Radiación solar	820
68273	7	Sololá	701	Sololá	3	Barraneche	12	Diciembre	2023-12-22T00:00:00	2024-11-06T14:00:00	2	Temperatura media	19.2
68274	7	Sololá	701	Sololá	3	Barraneche	12	Diciembre	2023-12-22T00:00:00	2024-11-06T14:00:00	4	Temperatura máxima	19.3
68275	7	Sololá	701	Sololá	3	Barraneche	12	Diciembre	2023-12-22T00:00:00	2024-11-06T14:00:00	3	Temperatura mínima	18.4
68276	7	Sololá	701	Sololá	3	Barraneche	12	Diciembre	2023-12-22T00:00:00	2024-11-06T14:00:00	5	Humedad	43
68277	7	Sololá	701	Sololá	3	Barraneche	12	Diciembre	2023-12-22T00:00:00	2024-11-06T14:00:00	6	Velocidad del viento	9.7
68278	7	Sololá	701	Sololá	3	Barraneche	12	Diciembre	2023-12-22T00:00:00	2024-11-06T14:00:00	7	Dirección del viento	9.66
68279	7	Sololá	701	Sololá	3	Barraneche	12	Diciembre	2023-12-22T00:00:00	2024-11-06T14:00:00	1	Precipitación	0
68280	7	Sololá	701	Sololá	3	Barraneche	12	Diciembre	2023-12-22T00:00:00	2024-11-06T14:00:00	8	Radiación solar	776
68281	7	Sololá	701	Sololá	3	Barraneche	12	Diciembre	2023-12-22T00:00:00	2024-11-06T15:00:00	2	Temperatura media	18.9
68282	7	Sololá	701	Sololá	3	Barraneche	12	Diciembre	2023-12-22T00:00:00	2024-11-06T15:00:00	4	Temperatura máxima	19.3
68283	7	Sololá	701	Sololá	3	Barraneche	12	Diciembre	2023-12-22T00:00:00	2024-11-06T15:00:00	3	Temperatura mínima	18.3
68284	7	Sololá	701	Sololá	3	Barraneche	12	Diciembre	2023-12-22T00:00:00	2024-11-06T15:00:00	5	Humedad	41
68285	7	Sololá	701	Sololá	3	Barraneche	12	Diciembre	2023-12-22T00:00:00	2024-11-06T15:00:00	6	Velocidad del viento	11.3
68286	7	Sololá	701	Sololá	3	Barraneche	12	Diciembre	2023-12-22T00:00:00	2024-11-06T15:00:00	7	Dirección del viento	11.27
68287	7	Sololá	701	Sololá	3	Barraneche	12	Diciembre	2023-12-22T00:00:00	2024-11-06T15:00:00	1	Precipitación	0
68288	7	Sololá	701	Sololá	3	Barraneche	12	Diciembre	2023-12-22T00:00:00	2024-11-06T15:00:00	8	Radiación solar	681
68289	7	Sololá	701	Sololá	3	Barraneche	12	Diciembre	2023-12-22T00:00:00	2024-11-06T16:00:00	2	Temperatura media	17.9
68290	7	Sololá	701	Sololá	3	Barraneche	12	Diciembre	2023-12-22T00:00:00	2024-11-06T16:00:00	4	Temperatura máxima	19.4
68291	7	Sololá	701	Sololá	3	Barraneche	12	Diciembre	2023-12-22T00:00:00	2024-11-06T16:00:00	3	Temperatura mínima	17.9
68292	7	Sololá	701	Sololá	3	Barraneche	12	Diciembre	2023-12-22T00:00:00	2024-11-06T16:00:00	5	Humedad	48
68293	7	Sololá	701	Sololá	3	Barraneche	12	Diciembre	2023-12-22T00:00:00	2024-11-06T16:00:00	6	Velocidad del viento	8
68294	7	Sololá	701	Sololá	3	Barraneche	12	Diciembre	2023-12-22T00:00:00	2024-11-06T16:00:00	7	Dirección del viento	8.05
68295	7	Sololá	701	Sololá	3	Barraneche	12	Diciembre	2023-12-22T00:00:00	2024-11-06T16:00:00	1	Precipitación	0
68296	7	Sololá	701	Sololá	3	Barraneche	12	Diciembre	2023-12-22T00:00:00	2024-11-06T16:00:00	8	Radiación solar	483
68297	7	Sololá	701	Sololá	3	Barraneche	12	Diciembre	2023-12-22T00:00:00	2024-11-06T17:00:00	2	Temperatura media	15.4
68298	7	Sololá	701	Sololá	3	Barraneche	12	Diciembre	2023-12-22T00:00:00	2024-11-06T17:00:00	4	Temperatura máxima	18.1
68299	7	Sololá	701	Sololá	3	Barraneche	12	Diciembre	2023-12-22T00:00:00	2024-11-06T17:00:00	3	Temperatura mínima	15.4
68300	7	Sololá	701	Sololá	3	Barraneche	12	Diciembre	2023-12-22T00:00:00	2024-11-06T17:00:00	5	Humedad	56
68301	7	Sololá	701	Sololá	3	Barraneche	12	Diciembre	2023-12-22T00:00:00	2024-11-06T17:00:00	6	Velocidad del viento	8
68302	7	Sololá	701	Sololá	3	Barraneche	12	Diciembre	2023-12-22T00:00:00	2024-11-06T17:00:00	7	Dirección del viento	8.05
68303	7	Sololá	701	Sololá	3	Barraneche	12	Diciembre	2023-12-22T00:00:00	2024-11-06T17:00:00	1	Precipitación	0
68304	7	Sololá	701	Sololá	3	Barraneche	12	Diciembre	2023-12-22T00:00:00	2024-11-06T17:00:00	8	Radiación solar	155
68305	7	Sololá	701	Sololá	3	Barraneche	12	Diciembre	2023-12-22T00:00:00	2024-11-06T18:00:00	2	Temperatura media	13.4
68306	7	Sololá	701	Sololá	3	Barraneche	12	Diciembre	2023-12-22T00:00:00	2024-11-06T18:00:00	4	Temperatura máxima	15.4
68307	7	Sololá	701	Sololá	3	Barraneche	12	Diciembre	2023-12-22T00:00:00	2024-11-06T18:00:00	3	Temperatura mínima	13.4
68308	7	Sololá	701	Sololá	3	Barraneche	12	Diciembre	2023-12-22T00:00:00	2024-11-06T18:00:00	5	Humedad	60
68309	7	Sololá	701	Sololá	3	Barraneche	12	Diciembre	2023-12-22T00:00:00	2024-11-06T18:00:00	6	Velocidad del viento	14.5
68310	7	Sololá	701	Sololá	3	Barraneche	12	Diciembre	2023-12-22T00:00:00	2024-11-06T18:00:00	7	Dirección del viento	14.48
68311	7	Sololá	701	Sololá	3	Barraneche	12	Diciembre	2023-12-22T00:00:00	2024-11-06T18:00:00	1	Precipitación	0
68312	7	Sololá	701	Sololá	3	Barraneche	12	Diciembre	2023-12-22T00:00:00	2024-11-06T18:00:00	8	Radiación solar	30
68313	7	Sololá	701	Sololá	3	Barraneche	12	Diciembre	2023-12-22T00:00:00	2024-11-06T19:00:00	2	Temperatura media	12
68314	7	Sololá	701	Sololá	3	Barraneche	12	Diciembre	2023-12-22T00:00:00	2024-11-06T19:00:00	4	Temperatura máxima	13.5
68315	7	Sololá	701	Sololá	3	Barraneche	12	Diciembre	2023-12-22T00:00:00	2024-11-06T19:00:00	3	Temperatura mínima	12
68316	7	Sololá	701	Sololá	3	Barraneche	12	Diciembre	2023-12-22T00:00:00	2024-11-06T19:00:00	5	Humedad	60
68317	7	Sololá	701	Sololá	3	Barraneche	12	Diciembre	2023-12-22T00:00:00	2024-11-06T19:00:00	6	Velocidad del viento	8
68318	7	Sololá	701	Sololá	3	Barraneche	12	Diciembre	2023-12-22T00:00:00	2024-11-06T19:00:00	7	Dirección del viento	8.05
68319	7	Sololá	701	Sololá	3	Barraneche	12	Diciembre	2023-12-22T00:00:00	2024-11-06T19:00:00	1	Precipitación	0
68320	7	Sololá	701	Sololá	3	Barraneche	12	Diciembre	2023-12-22T00:00:00	2024-11-06T19:00:00	8	Radiación solar	0
68321	7	Sololá	701	Sololá	3	Barraneche	12	Diciembre	2023-12-22T00:00:00	2024-11-06T20:00:00	2	Temperatura media	11.4
68322	7	Sololá	701	Sololá	3	Barraneche	12	Diciembre	2023-12-22T00:00:00	2024-11-06T20:00:00	4	Temperatura máxima	12.4
68323	7	Sololá	701	Sololá	3	Barraneche	12	Diciembre	2023-12-22T00:00:00	2024-11-06T20:00:00	3	Temperatura mínima	11.4
68324	7	Sololá	701	Sololá	3	Barraneche	12	Diciembre	2023-12-22T00:00:00	2024-11-06T20:00:00	5	Humedad	60
68325	7	Sololá	701	Sololá	3	Barraneche	12	Diciembre	2023-12-22T00:00:00	2024-11-06T20:00:00	6	Velocidad del viento	8
68326	7	Sololá	701	Sololá	3	Barraneche	12	Diciembre	2023-12-22T00:00:00	2024-11-06T20:00:00	7	Dirección del viento	8.05
68327	7	Sololá	701	Sololá	3	Barraneche	12	Diciembre	2023-12-22T00:00:00	2024-11-06T20:00:00	1	Precipitación	0
68328	7	Sololá	701	Sololá	3	Barraneche	12	Diciembre	2023-12-22T00:00:00	2024-11-06T20:00:00	8	Radiación solar	0
68329	7	Sololá	701	Sololá	3	Barraneche	12	Diciembre	2023-12-22T00:00:00	2024-11-06T21:00:00	2	Temperatura media	11.4
68330	7	Sololá	701	Sololá	3	Barraneche	12	Diciembre	2023-12-22T00:00:00	2024-11-06T21:00:00	4	Temperatura máxima	11.4
68331	7	Sololá	701	Sololá	3	Barraneche	12	Diciembre	2023-12-22T00:00:00	2024-11-06T21:00:00	3	Temperatura mínima	10.7
68332	7	Sololá	701	Sololá	3	Barraneche	12	Diciembre	2023-12-22T00:00:00	2024-11-06T21:00:00	5	Humedad	65
68333	7	Sololá	701	Sololá	3	Barraneche	12	Diciembre	2023-12-22T00:00:00	2024-11-06T21:00:00	6	Velocidad del viento	3.2
68334	7	Sololá	701	Sololá	3	Barraneche	12	Diciembre	2023-12-22T00:00:00	2024-11-06T21:00:00	7	Dirección del viento	3.22
68335	7	Sololá	701	Sololá	3	Barraneche	12	Diciembre	2023-12-22T00:00:00	2024-11-06T21:00:00	1	Precipitación	0
68336	7	Sololá	701	Sololá	3	Barraneche	12	Diciembre	2023-12-22T00:00:00	2024-11-06T21:00:00	8	Radiación solar	0
68337	7	Sololá	701	Sololá	3	Barraneche	12	Diciembre	2023-12-22T00:00:00	2024-11-06T22:00:00	2	Temperatura media	12.6
68338	7	Sololá	701	Sololá	3	Barraneche	12	Diciembre	2023-12-22T00:00:00	2024-11-06T22:00:00	4	Temperatura máxima	12.6
68339	7	Sololá	701	Sololá	3	Barraneche	12	Diciembre	2023-12-22T00:00:00	2024-11-06T22:00:00	3	Temperatura mínima	11.1
68340	7	Sololá	701	Sololá	3	Barraneche	12	Diciembre	2023-12-22T00:00:00	2024-11-06T22:00:00	5	Humedad	61
68341	7	Sololá	701	Sololá	3	Barraneche	12	Diciembre	2023-12-22T00:00:00	2024-11-06T22:00:00	6	Velocidad del viento	6.4
68342	7	Sololá	701	Sololá	3	Barraneche	12	Diciembre	2023-12-22T00:00:00	2024-11-06T22:00:00	7	Dirección del viento	6.44
68343	7	Sololá	701	Sololá	3	Barraneche	12	Diciembre	2023-12-22T00:00:00	2024-11-06T22:00:00	1	Precipitación	0
68344	7	Sololá	701	Sololá	3	Barraneche	12	Diciembre	2023-12-22T00:00:00	2024-11-06T22:00:00	8	Radiación solar	0
68345	7	Sololá	701	Sololá	3	Barraneche	12	Diciembre	2023-12-22T00:00:00	2024-11-06T23:00:00	2	Temperatura media	12.1
68346	7	Sololá	701	Sololá	3	Barraneche	12	Diciembre	2023-12-22T00:00:00	2024-11-06T23:00:00	4	Temperatura máxima	12.6
68347	7	Sololá	701	Sololá	3	Barraneche	12	Diciembre	2023-12-22T00:00:00	2024-11-06T23:00:00	3	Temperatura mínima	11.6
68348	7	Sololá	701	Sololá	3	Barraneche	12	Diciembre	2023-12-22T00:00:00	2024-11-06T23:00:00	5	Humedad	63
68349	7	Sololá	701	Sololá	3	Barraneche	12	Diciembre	2023-12-22T00:00:00	2024-11-06T23:00:00	6	Velocidad del viento	3.2
68350	7	Sololá	701	Sololá	3	Barraneche	12	Diciembre	2023-12-22T00:00:00	2024-11-06T23:00:00	7	Dirección del viento	3.22
68351	7	Sololá	701	Sololá	3	Barraneche	12	Diciembre	2023-12-22T00:00:00	2024-11-06T23:00:00	1	Precipitación	0
68352	7	Sololá	701	Sololá	3	Barraneche	12	Diciembre	2023-12-22T00:00:00	2024-11-06T23:00:00	8	Radiación solar	0
68353	7	Sololá	701	Sololá	3	Barraneche	12	Diciembre	2023-12-23T00:00:00	2024-11-06T00:00:00	2	Temperatura media	11.9
68354	7	Sololá	701	Sololá	3	Barraneche	12	Diciembre	2023-12-23T00:00:00	2024-11-06T00:00:00	4	Temperatura máxima	12.7
68355	7	Sololá	701	Sololá	3	Barraneche	12	Diciembre	2023-12-23T00:00:00	2024-11-06T00:00:00	3	Temperatura mínima	11.9
68356	7	Sololá	701	Sololá	3	Barraneche	12	Diciembre	2023-12-23T00:00:00	2024-11-06T00:00:00	5	Humedad	61
68357	7	Sololá	701	Sololá	3	Barraneche	12	Diciembre	2023-12-23T00:00:00	2024-11-06T00:00:00	6	Velocidad del viento	3.2
68358	7	Sololá	701	Sololá	3	Barraneche	12	Diciembre	2023-12-23T00:00:00	2024-11-06T00:00:00	7	Dirección del viento	3.22
68359	7	Sololá	701	Sololá	3	Barraneche	12	Diciembre	2023-12-23T00:00:00	2024-11-06T00:00:00	1	Precipitación	0
68360	7	Sololá	701	Sololá	3	Barraneche	12	Diciembre	2023-12-23T00:00:00	2024-11-06T00:00:00	8	Radiación solar	0
68361	7	Sololá	701	Sololá	3	Barraneche	12	Diciembre	2023-12-23T00:00:00	2024-11-06T01:00:00	2	Temperatura media	10.8
68362	7	Sololá	701	Sololá	3	Barraneche	12	Diciembre	2023-12-23T00:00:00	2024-11-06T01:00:00	4	Temperatura máxima	12.2
68363	7	Sololá	701	Sololá	3	Barraneche	12	Diciembre	2023-12-23T00:00:00	2024-11-06T01:00:00	3	Temperatura mínima	10.8
68364	7	Sololá	701	Sololá	3	Barraneche	12	Diciembre	2023-12-23T00:00:00	2024-11-06T01:00:00	5	Humedad	64
68365	7	Sololá	701	Sololá	3	Barraneche	12	Diciembre	2023-12-23T00:00:00	2024-11-06T01:00:00	6	Velocidad del viento	1.6
68366	7	Sololá	701	Sololá	3	Barraneche	12	Diciembre	2023-12-23T00:00:00	2024-11-06T01:00:00	7	Dirección del viento	1.61
68367	7	Sololá	701	Sololá	3	Barraneche	12	Diciembre	2023-12-23T00:00:00	2024-11-06T01:00:00	1	Precipitación	0
68368	7	Sololá	701	Sololá	3	Barraneche	12	Diciembre	2023-12-23T00:00:00	2024-11-06T01:00:00	8	Radiación solar	0
68369	7	Sololá	701	Sololá	3	Barraneche	12	Diciembre	2023-12-23T00:00:00	2024-11-06T02:00:00	2	Temperatura media	10.3
68370	7	Sololá	701	Sololá	3	Barraneche	12	Diciembre	2023-12-23T00:00:00	2024-11-06T02:00:00	4	Temperatura máxima	10.8
68371	7	Sololá	701	Sololá	3	Barraneche	12	Diciembre	2023-12-23T00:00:00	2024-11-06T02:00:00	3	Temperatura mínima	10.1
68372	7	Sololá	701	Sololá	3	Barraneche	12	Diciembre	2023-12-23T00:00:00	2024-11-06T02:00:00	5	Humedad	67
68373	7	Sololá	701	Sololá	3	Barraneche	12	Diciembre	2023-12-23T00:00:00	2024-11-06T02:00:00	6	Velocidad del viento	1.6
68374	7	Sololá	701	Sololá	3	Barraneche	12	Diciembre	2023-12-23T00:00:00	2024-11-06T02:00:00	7	Dirección del viento	1.61
68375	7	Sololá	701	Sololá	3	Barraneche	12	Diciembre	2023-12-23T00:00:00	2024-11-06T02:00:00	1	Precipitación	0
68376	7	Sololá	701	Sololá	3	Barraneche	12	Diciembre	2023-12-23T00:00:00	2024-11-06T02:00:00	8	Radiación solar	0
68377	7	Sololá	701	Sololá	3	Barraneche	12	Diciembre	2023-12-23T00:00:00	2024-11-06T03:00:00	2	Temperatura media	10.7
68378	7	Sololá	701	Sololá	3	Barraneche	12	Diciembre	2023-12-23T00:00:00	2024-11-06T03:00:00	4	Temperatura máxima	10.7
68379	7	Sololá	701	Sololá	3	Barraneche	12	Diciembre	2023-12-23T00:00:00	2024-11-06T03:00:00	3	Temperatura mínima	9.8
68380	7	Sololá	701	Sololá	3	Barraneche	12	Diciembre	2023-12-23T00:00:00	2024-11-06T03:00:00	5	Humedad	66
68381	7	Sololá	701	Sololá	3	Barraneche	12	Diciembre	2023-12-23T00:00:00	2024-11-06T03:00:00	6	Velocidad del viento	1.6
68382	7	Sololá	701	Sololá	3	Barraneche	12	Diciembre	2023-12-23T00:00:00	2024-11-06T03:00:00	7	Dirección del viento	1.61
68383	7	Sololá	701	Sololá	3	Barraneche	12	Diciembre	2023-12-23T00:00:00	2024-11-06T03:00:00	1	Precipitación	0
68384	7	Sololá	701	Sololá	3	Barraneche	12	Diciembre	2023-12-23T00:00:00	2024-11-06T03:00:00	8	Radiación solar	0
68385	7	Sololá	701	Sololá	3	Barraneche	12	Diciembre	2023-12-23T00:00:00	2024-11-06T04:00:00	2	Temperatura media	10.2
68386	7	Sololá	701	Sololá	3	Barraneche	12	Diciembre	2023-12-23T00:00:00	2024-11-06T04:00:00	4	Temperatura máxima	10.7
68387	7	Sololá	701	Sololá	3	Barraneche	12	Diciembre	2023-12-23T00:00:00	2024-11-06T04:00:00	3	Temperatura mínima	9.4
68388	7	Sololá	701	Sololá	3	Barraneche	12	Diciembre	2023-12-23T00:00:00	2024-11-06T04:00:00	5	Humedad	67
68389	7	Sololá	701	Sololá	3	Barraneche	12	Diciembre	2023-12-23T00:00:00	2024-11-06T04:00:00	6	Velocidad del viento	3.2
68390	7	Sololá	701	Sololá	3	Barraneche	12	Diciembre	2023-12-23T00:00:00	2024-11-06T04:00:00	7	Dirección del viento	3.22
68391	7	Sololá	701	Sololá	3	Barraneche	12	Diciembre	2023-12-23T00:00:00	2024-11-06T04:00:00	1	Precipitación	0
68392	7	Sololá	701	Sololá	3	Barraneche	12	Diciembre	2023-12-23T00:00:00	2024-11-06T04:00:00	8	Radiación solar	0
68393	7	Sololá	701	Sololá	3	Barraneche	12	Diciembre	2023-12-23T00:00:00	2024-11-06T05:00:00	2	Temperatura media	10.3
68394	7	Sololá	701	Sololá	3	Barraneche	12	Diciembre	2023-12-23T00:00:00	2024-11-06T05:00:00	4	Temperatura máxima	10.4
68395	7	Sololá	701	Sololá	3	Barraneche	12	Diciembre	2023-12-23T00:00:00	2024-11-06T05:00:00	3	Temperatura mínima	9.7
68396	7	Sololá	701	Sololá	3	Barraneche	12	Diciembre	2023-12-23T00:00:00	2024-11-06T05:00:00	5	Humedad	68
68397	7	Sololá	701	Sololá	3	Barraneche	12	Diciembre	2023-12-23T00:00:00	2024-11-06T05:00:00	6	Velocidad del viento	3.2
68398	7	Sololá	701	Sololá	3	Barraneche	12	Diciembre	2023-12-23T00:00:00	2024-11-06T05:00:00	7	Dirección del viento	3.22
68399	7	Sololá	701	Sololá	3	Barraneche	12	Diciembre	2023-12-23T00:00:00	2024-11-06T05:00:00	1	Precipitación	0
68400	7	Sololá	701	Sololá	3	Barraneche	12	Diciembre	2023-12-23T00:00:00	2024-11-06T05:00:00	8	Radiación solar	0
68401	7	Sololá	701	Sololá	3	Barraneche	12	Diciembre	2023-12-23T00:00:00	2024-11-06T06:00:00	2	Temperatura media	9.7
68402	7	Sololá	701	Sololá	3	Barraneche	12	Diciembre	2023-12-23T00:00:00	2024-11-06T06:00:00	4	Temperatura máxima	10.3
68403	7	Sololá	701	Sololá	3	Barraneche	12	Diciembre	2023-12-23T00:00:00	2024-11-06T06:00:00	3	Temperatura mínima	9.7
68404	7	Sololá	701	Sololá	3	Barraneche	12	Diciembre	2023-12-23T00:00:00	2024-11-06T06:00:00	5	Humedad	70
68405	7	Sololá	701	Sololá	3	Barraneche	12	Diciembre	2023-12-23T00:00:00	2024-11-06T06:00:00	6	Velocidad del viento	1.6
68406	7	Sololá	701	Sololá	3	Barraneche	12	Diciembre	2023-12-23T00:00:00	2024-11-06T06:00:00	7	Dirección del viento	1.61
68407	7	Sololá	701	Sololá	3	Barraneche	12	Diciembre	2023-12-23T00:00:00	2024-11-06T06:00:00	1	Precipitación	0
68408	7	Sololá	701	Sololá	3	Barraneche	12	Diciembre	2023-12-23T00:00:00	2024-11-06T06:00:00	8	Radiación solar	0
68409	7	Sololá	701	Sololá	3	Barraneche	12	Diciembre	2023-12-23T00:00:00	2024-11-06T07:00:00	2	Temperatura media	9.6
68410	7	Sololá	701	Sololá	3	Barraneche	12	Diciembre	2023-12-23T00:00:00	2024-11-06T07:00:00	4	Temperatura máxima	9.7
68411	7	Sololá	701	Sololá	3	Barraneche	12	Diciembre	2023-12-23T00:00:00	2024-11-06T07:00:00	3	Temperatura mínima	9.4
68412	7	Sololá	701	Sololá	3	Barraneche	12	Diciembre	2023-12-23T00:00:00	2024-11-06T07:00:00	5	Humedad	71
68413	7	Sololá	701	Sololá	3	Barraneche	12	Diciembre	2023-12-23T00:00:00	2024-11-06T07:00:00	6	Velocidad del viento	3.2
68414	7	Sololá	701	Sololá	3	Barraneche	12	Diciembre	2023-12-23T00:00:00	2024-11-06T07:00:00	7	Dirección del viento	3.22
68415	7	Sololá	701	Sololá	3	Barraneche	12	Diciembre	2023-12-23T00:00:00	2024-11-06T07:00:00	1	Precipitación	0
68416	7	Sololá	701	Sololá	3	Barraneche	12	Diciembre	2023-12-23T00:00:00	2024-11-06T07:00:00	8	Radiación solar	6
68417	7	Sololá	701	Sololá	3	Barraneche	12	Diciembre	2023-12-23T00:00:00	2024-11-06T08:00:00	2	Temperatura media	13.6
68418	7	Sololá	701	Sololá	3	Barraneche	12	Diciembre	2023-12-23T00:00:00	2024-11-06T08:00:00	4	Temperatura máxima	13.6
68419	7	Sololá	701	Sololá	3	Barraneche	12	Diciembre	2023-12-23T00:00:00	2024-11-06T08:00:00	3	Temperatura mínima	9.4
68420	7	Sololá	701	Sololá	3	Barraneche	12	Diciembre	2023-12-23T00:00:00	2024-11-06T08:00:00	5	Humedad	62
68421	7	Sololá	701	Sololá	3	Barraneche	12	Diciembre	2023-12-23T00:00:00	2024-11-06T08:00:00	6	Velocidad del viento	1.6
68422	7	Sololá	701	Sololá	3	Barraneche	12	Diciembre	2023-12-23T00:00:00	2024-11-06T08:00:00	7	Dirección del viento	1.61
68423	7	Sololá	701	Sololá	3	Barraneche	12	Diciembre	2023-12-23T00:00:00	2024-11-06T08:00:00	1	Precipitación	0
68424	7	Sololá	701	Sololá	3	Barraneche	12	Diciembre	2023-12-23T00:00:00	2024-11-06T08:00:00	8	Radiación solar	188
68425	7	Sololá	701	Sololá	3	Barraneche	12	Diciembre	2023-12-23T00:00:00	2024-11-06T09:00:00	2	Temperatura media	16.2
68426	7	Sololá	701	Sololá	3	Barraneche	12	Diciembre	2023-12-23T00:00:00	2024-11-06T09:00:00	4	Temperatura máxima	16.2
68427	7	Sololá	701	Sololá	3	Barraneche	12	Diciembre	2023-12-23T00:00:00	2024-11-06T09:00:00	3	Temperatura mínima	13.6
68428	7	Sololá	701	Sololá	3	Barraneche	12	Diciembre	2023-12-23T00:00:00	2024-11-06T09:00:00	5	Humedad	56
68429	7	Sololá	701	Sololá	3	Barraneche	12	Diciembre	2023-12-23T00:00:00	2024-11-06T09:00:00	6	Velocidad del viento	3.2
68430	7	Sololá	701	Sololá	3	Barraneche	12	Diciembre	2023-12-23T00:00:00	2024-11-06T09:00:00	7	Dirección del viento	3.22
68431	7	Sololá	701	Sololá	3	Barraneche	12	Diciembre	2023-12-23T00:00:00	2024-11-06T09:00:00	1	Precipitación	0
68432	7	Sololá	701	Sololá	3	Barraneche	12	Diciembre	2023-12-23T00:00:00	2024-11-06T09:00:00	8	Radiación solar	421
68433	7	Sololá	701	Sololá	3	Barraneche	12	Diciembre	2023-12-23T00:00:00	2024-11-06T10:00:00	2	Temperatura media	17.7
68434	7	Sololá	701	Sololá	3	Barraneche	12	Diciembre	2023-12-23T00:00:00	2024-11-06T10:00:00	4	Temperatura máxima	18.1
68435	7	Sololá	701	Sololá	3	Barraneche	12	Diciembre	2023-12-23T00:00:00	2024-11-06T10:00:00	3	Temperatura mínima	16.2
68436	7	Sololá	701	Sololá	3	Barraneche	12	Diciembre	2023-12-23T00:00:00	2024-11-06T10:00:00	5	Humedad	50
68437	7	Sololá	701	Sololá	3	Barraneche	12	Diciembre	2023-12-23T00:00:00	2024-11-06T10:00:00	6	Velocidad del viento	8
68438	7	Sololá	701	Sololá	3	Barraneche	12	Diciembre	2023-12-23T00:00:00	2024-11-06T10:00:00	7	Dirección del viento	8.05
68439	7	Sololá	701	Sololá	3	Barraneche	12	Diciembre	2023-12-23T00:00:00	2024-11-06T10:00:00	1	Precipitación	0
68440	7	Sololá	701	Sololá	3	Barraneche	12	Diciembre	2023-12-23T00:00:00	2024-11-06T10:00:00	8	Radiación solar	625
68441	7	Sololá	701	Sololá	3	Barraneche	12	Diciembre	2023-12-23T00:00:00	2024-11-06T11:00:00	2	Temperatura media	18.2
68442	7	Sololá	701	Sololá	3	Barraneche	12	Diciembre	2023-12-23T00:00:00	2024-11-06T11:00:00	4	Temperatura máxima	18.3
68443	7	Sololá	701	Sololá	3	Barraneche	12	Diciembre	2023-12-23T00:00:00	2024-11-06T11:00:00	3	Temperatura mínima	17.7
68444	7	Sololá	701	Sololá	3	Barraneche	12	Diciembre	2023-12-23T00:00:00	2024-11-06T11:00:00	5	Humedad	48
68445	7	Sololá	701	Sololá	3	Barraneche	12	Diciembre	2023-12-23T00:00:00	2024-11-06T11:00:00	6	Velocidad del viento	8
68446	7	Sololá	701	Sololá	3	Barraneche	12	Diciembre	2023-12-23T00:00:00	2024-11-06T11:00:00	7	Dirección del viento	8.05
68447	7	Sololá	701	Sololá	3	Barraneche	12	Diciembre	2023-12-23T00:00:00	2024-11-06T11:00:00	1	Precipitación	0
68448	7	Sololá	701	Sololá	3	Barraneche	12	Diciembre	2023-12-23T00:00:00	2024-11-06T11:00:00	8	Radiación solar	687
68449	7	Sololá	701	Sololá	3	Barraneche	12	Diciembre	2023-12-23T00:00:00	2024-11-06T12:00:00	2	Temperatura media	18.2
68450	7	Sololá	701	Sololá	3	Barraneche	12	Diciembre	2023-12-23T00:00:00	2024-11-06T12:00:00	4	Temperatura máxima	18.4
68451	7	Sololá	701	Sololá	3	Barraneche	12	Diciembre	2023-12-23T00:00:00	2024-11-06T12:00:00	3	Temperatura mínima	17.6
68452	7	Sololá	701	Sololá	3	Barraneche	12	Diciembre	2023-12-23T00:00:00	2024-11-06T12:00:00	5	Humedad	46
68453	7	Sololá	701	Sololá	3	Barraneche	12	Diciembre	2023-12-23T00:00:00	2024-11-06T12:00:00	6	Velocidad del viento	8
68454	7	Sololá	701	Sololá	3	Barraneche	12	Diciembre	2023-12-23T00:00:00	2024-11-06T12:00:00	7	Dirección del viento	8.05
68455	7	Sololá	701	Sololá	3	Barraneche	12	Diciembre	2023-12-23T00:00:00	2024-11-06T12:00:00	1	Precipitación	0
68456	7	Sololá	701	Sololá	3	Barraneche	12	Diciembre	2023-12-23T00:00:00	2024-11-06T12:00:00	8	Radiación solar	383
68457	7	Sololá	701	Sololá	3	Barraneche	12	Diciembre	2023-12-23T00:00:00	2024-11-06T13:00:00	2	Temperatura media	18.1
68458	7	Sololá	701	Sololá	3	Barraneche	12	Diciembre	2023-12-23T00:00:00	2024-11-06T13:00:00	4	Temperatura máxima	18.9
68459	7	Sololá	701	Sololá	3	Barraneche	12	Diciembre	2023-12-23T00:00:00	2024-11-06T13:00:00	3	Temperatura mínima	18.1
68460	7	Sololá	701	Sololá	3	Barraneche	12	Diciembre	2023-12-23T00:00:00	2024-11-06T13:00:00	5	Humedad	50
68461	7	Sololá	701	Sololá	3	Barraneche	12	Diciembre	2023-12-23T00:00:00	2024-11-06T13:00:00	6	Velocidad del viento	11.3
68462	7	Sololá	701	Sololá	3	Barraneche	12	Diciembre	2023-12-23T00:00:00	2024-11-06T13:00:00	7	Dirección del viento	11.27
68463	7	Sololá	701	Sololá	3	Barraneche	12	Diciembre	2023-12-23T00:00:00	2024-11-06T13:00:00	1	Precipitación	0
68464	7	Sololá	701	Sololá	3	Barraneche	12	Diciembre	2023-12-23T00:00:00	2024-11-06T13:00:00	8	Radiación solar	801
68465	7	Sololá	701	Sololá	3	Barraneche	12	Diciembre	2023-12-23T00:00:00	2024-11-06T14:00:00	2	Temperatura media	18
68466	7	Sololá	701	Sololá	3	Barraneche	12	Diciembre	2023-12-23T00:00:00	2024-11-06T14:00:00	4	Temperatura máxima	18.8
68467	7	Sololá	701	Sololá	3	Barraneche	12	Diciembre	2023-12-23T00:00:00	2024-11-06T14:00:00	3	Temperatura mínima	17.9
68468	7	Sololá	701	Sololá	3	Barraneche	12	Diciembre	2023-12-23T00:00:00	2024-11-06T14:00:00	5	Humedad	56
68469	7	Sololá	701	Sololá	3	Barraneche	12	Diciembre	2023-12-23T00:00:00	2024-11-06T14:00:00	6	Velocidad del viento	11.3
68470	7	Sololá	701	Sololá	3	Barraneche	12	Diciembre	2023-12-23T00:00:00	2024-11-06T14:00:00	7	Dirección del viento	11.27
68471	7	Sololá	701	Sololá	3	Barraneche	12	Diciembre	2023-12-23T00:00:00	2024-11-06T14:00:00	1	Precipitación	0
68472	7	Sololá	701	Sololá	3	Barraneche	12	Diciembre	2023-12-23T00:00:00	2024-11-06T14:00:00	8	Radiación solar	831
68473	7	Sololá	701	Sololá	3	Barraneche	12	Diciembre	2023-12-23T00:00:00	2024-11-06T15:00:00	2	Temperatura media	16.7
68474	7	Sololá	701	Sololá	3	Barraneche	12	Diciembre	2023-12-23T00:00:00	2024-11-06T15:00:00	4	Temperatura máxima	18.7
68475	7	Sololá	701	Sololá	3	Barraneche	12	Diciembre	2023-12-23T00:00:00	2024-11-06T15:00:00	3	Temperatura mínima	16.7
68476	7	Sololá	701	Sololá	3	Barraneche	12	Diciembre	2023-12-23T00:00:00	2024-11-06T15:00:00	5	Humedad	60
68477	7	Sololá	701	Sololá	3	Barraneche	12	Diciembre	2023-12-23T00:00:00	2024-11-06T15:00:00	6	Velocidad del viento	9.7
68478	7	Sololá	701	Sololá	3	Barraneche	12	Diciembre	2023-12-23T00:00:00	2024-11-06T15:00:00	7	Dirección del viento	9.66
68479	7	Sololá	701	Sololá	3	Barraneche	12	Diciembre	2023-12-23T00:00:00	2024-11-06T15:00:00	1	Precipitación	0
68480	7	Sololá	701	Sololá	3	Barraneche	12	Diciembre	2023-12-23T00:00:00	2024-11-06T15:00:00	8	Radiación solar	348
68481	7	Sololá	701	Sololá	3	Barraneche	12	Diciembre	2023-12-23T00:00:00	2024-11-06T16:00:00	2	Temperatura media	16.3
68482	7	Sololá	701	Sololá	3	Barraneche	12	Diciembre	2023-12-23T00:00:00	2024-11-06T16:00:00	4	Temperatura máxima	16.8
68483	7	Sololá	701	Sololá	3	Barraneche	12	Diciembre	2023-12-23T00:00:00	2024-11-06T16:00:00	3	Temperatura mínima	16.3
68484	7	Sololá	701	Sololá	3	Barraneche	12	Diciembre	2023-12-23T00:00:00	2024-11-06T16:00:00	5	Humedad	60
68485	7	Sololá	701	Sololá	3	Barraneche	12	Diciembre	2023-12-23T00:00:00	2024-11-06T16:00:00	6	Velocidad del viento	8
68486	7	Sololá	701	Sololá	3	Barraneche	12	Diciembre	2023-12-23T00:00:00	2024-11-06T16:00:00	7	Dirección del viento	8.05
68487	7	Sololá	701	Sololá	3	Barraneche	12	Diciembre	2023-12-23T00:00:00	2024-11-06T16:00:00	1	Precipitación	0
68488	7	Sololá	701	Sololá	3	Barraneche	12	Diciembre	2023-12-23T00:00:00	2024-11-06T16:00:00	8	Radiación solar	154
68489	7	Sololá	701	Sololá	3	Barraneche	12	Diciembre	2023-12-23T00:00:00	2024-11-06T17:00:00	2	Temperatura media	15.4
68490	7	Sololá	701	Sololá	3	Barraneche	12	Diciembre	2023-12-23T00:00:00	2024-11-06T17:00:00	4	Temperatura máxima	16.2
68491	7	Sololá	701	Sololá	3	Barraneche	12	Diciembre	2023-12-23T00:00:00	2024-11-06T17:00:00	3	Temperatura mínima	15.4
68492	7	Sololá	701	Sololá	3	Barraneche	12	Diciembre	2023-12-23T00:00:00	2024-11-06T17:00:00	5	Humedad	63
68493	7	Sololá	701	Sololá	3	Barraneche	12	Diciembre	2023-12-23T00:00:00	2024-11-06T17:00:00	6	Velocidad del viento	6.4
68494	7	Sololá	701	Sololá	3	Barraneche	12	Diciembre	2023-12-23T00:00:00	2024-11-06T17:00:00	7	Dirección del viento	6.44
68495	7	Sololá	701	Sololá	3	Barraneche	12	Diciembre	2023-12-23T00:00:00	2024-11-06T17:00:00	1	Precipitación	0
68496	7	Sololá	701	Sololá	3	Barraneche	12	Diciembre	2023-12-23T00:00:00	2024-11-06T17:00:00	8	Radiación solar	91
68497	7	Sololá	701	Sololá	3	Barraneche	12	Diciembre	2023-12-23T00:00:00	2024-11-06T18:00:00	2	Temperatura media	13.7
68498	7	Sololá	701	Sololá	3	Barraneche	12	Diciembre	2023-12-23T00:00:00	2024-11-06T18:00:00	4	Temperatura máxima	15.4
68499	7	Sololá	701	Sololá	3	Barraneche	12	Diciembre	2023-12-23T00:00:00	2024-11-06T18:00:00	3	Temperatura mínima	13.6
68500	7	Sololá	701	Sololá	3	Barraneche	12	Diciembre	2023-12-23T00:00:00	2024-11-06T18:00:00	5	Humedad	66
68501	7	Sololá	701	Sololá	3	Barraneche	12	Diciembre	2023-12-23T00:00:00	2024-11-06T18:00:00	6	Velocidad del viento	4.8
68502	7	Sololá	701	Sololá	3	Barraneche	12	Diciembre	2023-12-23T00:00:00	2024-11-06T18:00:00	7	Dirección del viento	4.83
68503	7	Sololá	701	Sololá	3	Barraneche	12	Diciembre	2023-12-23T00:00:00	2024-11-06T18:00:00	1	Precipitación	0
68504	7	Sololá	701	Sololá	3	Barraneche	12	Diciembre	2023-12-23T00:00:00	2024-11-06T18:00:00	8	Radiación solar	15
68505	7	Sololá	701	Sololá	3	Barraneche	12	Diciembre	2023-12-23T00:00:00	2024-11-06T19:00:00	2	Temperatura media	12.6
68506	7	Sololá	701	Sololá	3	Barraneche	12	Diciembre	2023-12-23T00:00:00	2024-11-06T19:00:00	4	Temperatura máxima	13.7
68507	7	Sololá	701	Sololá	3	Barraneche	12	Diciembre	2023-12-23T00:00:00	2024-11-06T19:00:00	3	Temperatura mínima	12.6
68508	7	Sololá	701	Sololá	3	Barraneche	12	Diciembre	2023-12-23T00:00:00	2024-11-06T19:00:00	5	Humedad	66
68509	7	Sololá	701	Sololá	3	Barraneche	12	Diciembre	2023-12-23T00:00:00	2024-11-06T19:00:00	6	Velocidad del viento	4.8
68510	7	Sololá	701	Sololá	3	Barraneche	12	Diciembre	2023-12-23T00:00:00	2024-11-06T19:00:00	7	Dirección del viento	4.83
68511	7	Sololá	701	Sololá	3	Barraneche	12	Diciembre	2023-12-23T00:00:00	2024-11-06T19:00:00	1	Precipitación	0
68512	7	Sololá	701	Sololá	3	Barraneche	12	Diciembre	2023-12-23T00:00:00	2024-11-06T19:00:00	8	Radiación solar	0
68513	7	Sololá	701	Sololá	3	Barraneche	12	Diciembre	2023-12-23T00:00:00	2024-11-06T20:00:00	2	Temperatura media	10.8
68514	7	Sololá	701	Sololá	3	Barraneche	12	Diciembre	2023-12-23T00:00:00	2024-11-06T20:00:00	4	Temperatura máxima	12.7
68515	7	Sololá	701	Sololá	3	Barraneche	12	Diciembre	2023-12-23T00:00:00	2024-11-06T20:00:00	3	Temperatura mínima	10.8
68516	7	Sololá	701	Sololá	3	Barraneche	12	Diciembre	2023-12-23T00:00:00	2024-11-06T20:00:00	5	Humedad	69
68517	7	Sololá	701	Sololá	3	Barraneche	12	Diciembre	2023-12-23T00:00:00	2024-11-06T20:00:00	6	Velocidad del viento	3.2
68518	7	Sololá	701	Sololá	3	Barraneche	12	Diciembre	2023-12-23T00:00:00	2024-11-06T20:00:00	7	Dirección del viento	3.22
68519	7	Sololá	701	Sololá	3	Barraneche	12	Diciembre	2023-12-23T00:00:00	2024-11-06T20:00:00	1	Precipitación	0
68520	7	Sololá	701	Sololá	3	Barraneche	12	Diciembre	2023-12-23T00:00:00	2024-11-06T20:00:00	8	Radiación solar	0
68521	7	Sololá	701	Sololá	3	Barraneche	12	Diciembre	2023-12-23T00:00:00	2024-11-06T21:00:00	2	Temperatura media	10.4
68522	7	Sololá	701	Sololá	3	Barraneche	12	Diciembre	2023-12-23T00:00:00	2024-11-06T21:00:00	4	Temperatura máxima	11
68523	7	Sololá	701	Sololá	3	Barraneche	12	Diciembre	2023-12-23T00:00:00	2024-11-06T21:00:00	3	Temperatura mínima	10.3
68524	7	Sololá	701	Sololá	3	Barraneche	12	Diciembre	2023-12-23T00:00:00	2024-11-06T21:00:00	5	Humedad	70
68525	7	Sololá	701	Sololá	3	Barraneche	12	Diciembre	2023-12-23T00:00:00	2024-11-06T21:00:00	6	Velocidad del viento	3.2
68526	7	Sololá	701	Sololá	3	Barraneche	12	Diciembre	2023-12-23T00:00:00	2024-11-06T21:00:00	7	Dirección del viento	3.22
68527	7	Sololá	701	Sololá	3	Barraneche	12	Diciembre	2023-12-23T00:00:00	2024-11-06T21:00:00	1	Precipitación	0
68528	7	Sololá	701	Sololá	3	Barraneche	12	Diciembre	2023-12-23T00:00:00	2024-11-06T21:00:00	8	Radiación solar	0
68529	7	Sololá	701	Sololá	3	Barraneche	12	Diciembre	2023-12-23T00:00:00	2024-11-06T22:00:00	2	Temperatura media	11.7
68530	7	Sololá	701	Sololá	3	Barraneche	12	Diciembre	2023-12-23T00:00:00	2024-11-06T22:00:00	4	Temperatura máxima	11.7
68531	7	Sololá	701	Sololá	3	Barraneche	12	Diciembre	2023-12-23T00:00:00	2024-11-06T22:00:00	3	Temperatura mínima	10.4
68532	7	Sololá	701	Sololá	3	Barraneche	12	Diciembre	2023-12-23T00:00:00	2024-11-06T22:00:00	5	Humedad	68
68533	7	Sololá	701	Sololá	3	Barraneche	12	Diciembre	2023-12-23T00:00:00	2024-11-06T22:00:00	6	Velocidad del viento	4.8
68534	7	Sololá	701	Sololá	3	Barraneche	12	Diciembre	2023-12-23T00:00:00	2024-11-06T22:00:00	7	Dirección del viento	4.83
68535	7	Sololá	701	Sololá	3	Barraneche	12	Diciembre	2023-12-23T00:00:00	2024-11-06T22:00:00	1	Precipitación	0
68536	7	Sololá	701	Sololá	3	Barraneche	12	Diciembre	2023-12-23T00:00:00	2024-11-06T22:00:00	8	Radiación solar	0
68537	7	Sololá	701	Sololá	3	Barraneche	12	Diciembre	2023-12-23T00:00:00	2024-11-06T23:00:00	2	Temperatura media	10.9
68538	7	Sololá	701	Sololá	3	Barraneche	12	Diciembre	2023-12-23T00:00:00	2024-11-06T23:00:00	4	Temperatura máxima	11.8
68539	7	Sololá	701	Sololá	3	Barraneche	12	Diciembre	2023-12-23T00:00:00	2024-11-06T23:00:00	3	Temperatura mínima	10.9
68540	7	Sololá	701	Sololá	3	Barraneche	12	Diciembre	2023-12-23T00:00:00	2024-11-06T23:00:00	5	Humedad	68
68541	7	Sololá	701	Sololá	3	Barraneche	12	Diciembre	2023-12-23T00:00:00	2024-11-06T23:00:00	6	Velocidad del viento	6.4
68542	7	Sololá	701	Sololá	3	Barraneche	12	Diciembre	2023-12-23T00:00:00	2024-11-06T23:00:00	7	Dirección del viento	6.44
68543	7	Sololá	701	Sololá	3	Barraneche	12	Diciembre	2023-12-23T00:00:00	2024-11-06T23:00:00	1	Precipitación	0
68544	7	Sololá	701	Sololá	3	Barraneche	12	Diciembre	2023-12-23T00:00:00	2024-11-06T23:00:00	8	Radiación solar	0
68545	7	Sololá	701	Sololá	3	Barraneche	12	Diciembre	2023-12-24T00:00:00	2024-11-06T00:00:00	2	Temperatura media	11.2
68546	7	Sololá	701	Sololá	3	Barraneche	12	Diciembre	2023-12-24T00:00:00	2024-11-06T00:00:00	4	Temperatura máxima	11.3
68547	7	Sololá	701	Sololá	3	Barraneche	12	Diciembre	2023-12-24T00:00:00	2024-11-06T00:00:00	3	Temperatura mínima	10.7
68548	7	Sololá	701	Sololá	3	Barraneche	12	Diciembre	2023-12-24T00:00:00	2024-11-06T00:00:00	5	Humedad	66
68549	7	Sololá	701	Sololá	3	Barraneche	12	Diciembre	2023-12-24T00:00:00	2024-11-06T00:00:00	6	Velocidad del viento	8
68550	7	Sololá	701	Sololá	3	Barraneche	12	Diciembre	2023-12-24T00:00:00	2024-11-06T00:00:00	7	Dirección del viento	8.05
68551	7	Sololá	701	Sololá	3	Barraneche	12	Diciembre	2023-12-24T00:00:00	2024-11-06T00:00:00	1	Precipitación	0
68552	7	Sololá	701	Sololá	3	Barraneche	12	Diciembre	2023-12-24T00:00:00	2024-11-06T00:00:00	8	Radiación solar	0
68553	7	Sololá	701	Sololá	3	Barraneche	12	Diciembre	2023-12-24T00:00:00	2024-11-06T01:00:00	2	Temperatura media	11.1
68554	7	Sololá	701	Sololá	3	Barraneche	12	Diciembre	2023-12-24T00:00:00	2024-11-06T01:00:00	4	Temperatura máxima	11.6
68555	7	Sololá	701	Sololá	3	Barraneche	12	Diciembre	2023-12-24T00:00:00	2024-11-06T01:00:00	3	Temperatura mínima	11.1
68556	7	Sololá	701	Sololá	3	Barraneche	12	Diciembre	2023-12-24T00:00:00	2024-11-06T01:00:00	5	Humedad	65
68557	7	Sololá	701	Sololá	3	Barraneche	12	Diciembre	2023-12-24T00:00:00	2024-11-06T01:00:00	6	Velocidad del viento	8
68558	7	Sololá	701	Sololá	3	Barraneche	12	Diciembre	2023-12-24T00:00:00	2024-11-06T01:00:00	7	Dirección del viento	8.05
68559	7	Sololá	701	Sololá	3	Barraneche	12	Diciembre	2023-12-24T00:00:00	2024-11-06T01:00:00	1	Precipitación	0
68560	7	Sololá	701	Sololá	3	Barraneche	12	Diciembre	2023-12-24T00:00:00	2024-11-06T01:00:00	8	Radiación solar	0
68561	7	Sololá	701	Sololá	3	Barraneche	12	Diciembre	2023-12-24T00:00:00	2024-11-06T02:00:00	2	Temperatura media	10.3
68562	7	Sololá	701	Sololá	3	Barraneche	12	Diciembre	2023-12-24T00:00:00	2024-11-06T02:00:00	4	Temperatura máxima	11.2
68563	7	Sololá	701	Sololá	3	Barraneche	12	Diciembre	2023-12-24T00:00:00	2024-11-06T02:00:00	3	Temperatura mínima	10.3
68564	7	Sololá	701	Sololá	3	Barraneche	12	Diciembre	2023-12-24T00:00:00	2024-11-06T02:00:00	5	Humedad	67
68565	7	Sololá	701	Sololá	3	Barraneche	12	Diciembre	2023-12-24T00:00:00	2024-11-06T02:00:00	6	Velocidad del viento	8
68566	7	Sololá	701	Sololá	3	Barraneche	12	Diciembre	2023-12-24T00:00:00	2024-11-06T02:00:00	7	Dirección del viento	8.05
68567	7	Sololá	701	Sololá	3	Barraneche	12	Diciembre	2023-12-24T00:00:00	2024-11-06T02:00:00	1	Precipitación	0
68568	7	Sololá	701	Sololá	3	Barraneche	12	Diciembre	2023-12-24T00:00:00	2024-11-06T02:00:00	8	Radiación solar	0
68569	7	Sololá	701	Sololá	3	Barraneche	12	Diciembre	2023-12-24T00:00:00	2024-11-06T03:00:00	2	Temperatura media	10.5
68570	7	Sololá	701	Sololá	3	Barraneche	12	Diciembre	2023-12-24T00:00:00	2024-11-06T03:00:00	4	Temperatura máxima	10.6
68571	7	Sololá	701	Sololá	3	Barraneche	12	Diciembre	2023-12-24T00:00:00	2024-11-06T03:00:00	3	Temperatura mínima	10.2
68572	7	Sololá	701	Sololá	3	Barraneche	12	Diciembre	2023-12-24T00:00:00	2024-11-06T03:00:00	5	Humedad	68
68573	7	Sololá	701	Sololá	3	Barraneche	12	Diciembre	2023-12-24T00:00:00	2024-11-06T03:00:00	6	Velocidad del viento	8
68574	7	Sololá	701	Sololá	3	Barraneche	12	Diciembre	2023-12-24T00:00:00	2024-11-06T03:00:00	7	Dirección del viento	8.05
68575	7	Sololá	701	Sololá	3	Barraneche	12	Diciembre	2023-12-24T00:00:00	2024-11-06T03:00:00	1	Precipitación	0
68576	7	Sololá	701	Sololá	3	Barraneche	12	Diciembre	2023-12-24T00:00:00	2024-11-06T03:00:00	8	Radiación solar	0
68577	7	Sololá	701	Sololá	3	Barraneche	12	Diciembre	2023-12-24T00:00:00	2024-11-06T04:00:00	2	Temperatura media	9.8
68578	7	Sololá	701	Sololá	3	Barraneche	12	Diciembre	2023-12-24T00:00:00	2024-11-06T04:00:00	4	Temperatura máxima	10.5
68579	7	Sololá	701	Sololá	3	Barraneche	12	Diciembre	2023-12-24T00:00:00	2024-11-06T04:00:00	3	Temperatura mínima	9.8
68580	7	Sololá	701	Sololá	3	Barraneche	12	Diciembre	2023-12-24T00:00:00	2024-11-06T04:00:00	5	Humedad	70
68581	7	Sololá	701	Sololá	3	Barraneche	12	Diciembre	2023-12-24T00:00:00	2024-11-06T04:00:00	6	Velocidad del viento	8
68582	7	Sololá	701	Sololá	3	Barraneche	12	Diciembre	2023-12-24T00:00:00	2024-11-06T04:00:00	7	Dirección del viento	8.05
68583	7	Sololá	701	Sololá	3	Barraneche	12	Diciembre	2023-12-24T00:00:00	2024-11-06T04:00:00	1	Precipitación	0
68584	7	Sololá	701	Sololá	3	Barraneche	12	Diciembre	2023-12-24T00:00:00	2024-11-06T04:00:00	8	Radiación solar	0
68585	7	Sololá	701	Sololá	3	Barraneche	12	Diciembre	2023-12-24T00:00:00	2024-11-06T05:00:00	2	Temperatura media	10
68586	7	Sololá	701	Sololá	3	Barraneche	12	Diciembre	2023-12-24T00:00:00	2024-11-06T05:00:00	4	Temperatura máxima	10.2
68587	7	Sololá	701	Sololá	3	Barraneche	12	Diciembre	2023-12-24T00:00:00	2024-11-06T05:00:00	3	Temperatura mínima	9.7
68588	7	Sololá	701	Sololá	3	Barraneche	12	Diciembre	2023-12-24T00:00:00	2024-11-06T05:00:00	5	Humedad	70
68589	7	Sololá	701	Sololá	3	Barraneche	12	Diciembre	2023-12-24T00:00:00	2024-11-06T05:00:00	6	Velocidad del viento	8
68590	7	Sololá	701	Sololá	3	Barraneche	12	Diciembre	2023-12-24T00:00:00	2024-11-06T05:00:00	7	Dirección del viento	8.05
68591	7	Sololá	701	Sololá	3	Barraneche	12	Diciembre	2023-12-24T00:00:00	2024-11-06T05:00:00	1	Precipitación	0
68592	7	Sololá	701	Sololá	3	Barraneche	12	Diciembre	2023-12-24T00:00:00	2024-11-06T05:00:00	8	Radiación solar	0
68593	7	Sololá	701	Sololá	3	Barraneche	12	Diciembre	2023-12-24T00:00:00	2024-11-06T06:00:00	2	Temperatura media	11.1
68594	7	Sololá	701	Sololá	3	Barraneche	12	Diciembre	2023-12-24T00:00:00	2024-11-06T06:00:00	4	Temperatura máxima	11.2
68595	7	Sololá	701	Sololá	3	Barraneche	12	Diciembre	2023-12-24T00:00:00	2024-11-06T06:00:00	3	Temperatura mínima	9.9
68596	7	Sololá	701	Sololá	3	Barraneche	12	Diciembre	2023-12-24T00:00:00	2024-11-06T06:00:00	5	Humedad	69
68597	7	Sololá	701	Sololá	3	Barraneche	12	Diciembre	2023-12-24T00:00:00	2024-11-06T06:00:00	6	Velocidad del viento	6.4
68598	7	Sololá	701	Sololá	3	Barraneche	12	Diciembre	2023-12-24T00:00:00	2024-11-06T06:00:00	7	Dirección del viento	6.44
68599	7	Sololá	701	Sololá	3	Barraneche	12	Diciembre	2023-12-24T00:00:00	2024-11-06T06:00:00	1	Precipitación	0
68600	7	Sololá	701	Sololá	3	Barraneche	12	Diciembre	2023-12-24T00:00:00	2024-11-06T06:00:00	8	Radiación solar	0
68601	7	Sololá	701	Sololá	3	Barraneche	12	Diciembre	2023-12-24T00:00:00	2024-11-06T07:00:00	2	Temperatura media	10.8
68602	7	Sololá	701	Sololá	3	Barraneche	12	Diciembre	2023-12-24T00:00:00	2024-11-06T07:00:00	4	Temperatura máxima	11.1
68603	7	Sololá	701	Sololá	3	Barraneche	12	Diciembre	2023-12-24T00:00:00	2024-11-06T07:00:00	3	Temperatura mínima	10.2
68604	7	Sololá	701	Sololá	3	Barraneche	12	Diciembre	2023-12-24T00:00:00	2024-11-06T07:00:00	5	Humedad	69
68605	7	Sololá	701	Sololá	3	Barraneche	12	Diciembre	2023-12-24T00:00:00	2024-11-06T07:00:00	6	Velocidad del viento	6.4
68606	7	Sololá	701	Sololá	3	Barraneche	12	Diciembre	2023-12-24T00:00:00	2024-11-06T07:00:00	7	Dirección del viento	6.44
68607	7	Sololá	701	Sololá	3	Barraneche	12	Diciembre	2023-12-24T00:00:00	2024-11-06T07:00:00	1	Precipitación	0
68608	7	Sololá	701	Sololá	3	Barraneche	12	Diciembre	2023-12-24T00:00:00	2024-11-06T07:00:00	8	Radiación solar	11
68609	7	Sololá	701	Sololá	3	Barraneche	12	Diciembre	2023-12-24T00:00:00	2024-11-06T08:00:00	2	Temperatura media	14.9
68610	7	Sololá	701	Sololá	3	Barraneche	12	Diciembre	2023-12-24T00:00:00	2024-11-06T08:00:00	4	Temperatura máxima	14.9
68611	7	Sololá	701	Sololá	3	Barraneche	12	Diciembre	2023-12-24T00:00:00	2024-11-06T08:00:00	3	Temperatura mínima	10.8
68612	7	Sololá	701	Sololá	3	Barraneche	12	Diciembre	2023-12-24T00:00:00	2024-11-06T08:00:00	5	Humedad	59
68613	7	Sololá	701	Sololá	3	Barraneche	12	Diciembre	2023-12-24T00:00:00	2024-11-06T08:00:00	6	Velocidad del viento	4.8
68614	7	Sololá	701	Sololá	3	Barraneche	12	Diciembre	2023-12-24T00:00:00	2024-11-06T08:00:00	7	Dirección del viento	4.83
68615	7	Sololá	701	Sololá	3	Barraneche	12	Diciembre	2023-12-24T00:00:00	2024-11-06T08:00:00	1	Precipitación	0
68616	7	Sololá	701	Sololá	3	Barraneche	12	Diciembre	2023-12-24T00:00:00	2024-11-06T08:00:00	8	Radiación solar	170
68617	7	Sololá	701	Sololá	3	Barraneche	12	Diciembre	2023-12-24T00:00:00	2024-11-06T09:00:00	2	Temperatura media	16.4
68618	7	Sololá	701	Sololá	3	Barraneche	12	Diciembre	2023-12-24T00:00:00	2024-11-06T09:00:00	4	Temperatura máxima	16.4
68619	7	Sololá	701	Sololá	3	Barraneche	12	Diciembre	2023-12-24T00:00:00	2024-11-06T09:00:00	3	Temperatura mínima	14.9
68620	7	Sololá	701	Sololá	3	Barraneche	12	Diciembre	2023-12-24T00:00:00	2024-11-06T09:00:00	5	Humedad	56
68621	7	Sololá	701	Sololá	3	Barraneche	12	Diciembre	2023-12-24T00:00:00	2024-11-06T09:00:00	6	Velocidad del viento	4.8
68622	7	Sololá	701	Sololá	3	Barraneche	12	Diciembre	2023-12-24T00:00:00	2024-11-06T09:00:00	7	Dirección del viento	4.83
68623	7	Sololá	701	Sololá	3	Barraneche	12	Diciembre	2023-12-24T00:00:00	2024-11-06T09:00:00	1	Precipitación	0
68624	7	Sololá	701	Sololá	3	Barraneche	12	Diciembre	2023-12-24T00:00:00	2024-11-06T09:00:00	8	Radiación solar	413
68625	7	Sololá	701	Sololá	3	Barraneche	12	Diciembre	2023-12-24T00:00:00	2024-11-06T10:00:00	2	Temperatura media	16.9
68626	7	Sololá	701	Sololá	3	Barraneche	12	Diciembre	2023-12-24T00:00:00	2024-11-06T10:00:00	4	Temperatura máxima	16.9
68627	7	Sololá	701	Sololá	3	Barraneche	12	Diciembre	2023-12-24T00:00:00	2024-11-06T10:00:00	3	Temperatura mínima	16.3
68628	7	Sololá	701	Sololá	3	Barraneche	12	Diciembre	2023-12-24T00:00:00	2024-11-06T10:00:00	5	Humedad	54
68629	7	Sololá	701	Sololá	3	Barraneche	12	Diciembre	2023-12-24T00:00:00	2024-11-06T10:00:00	6	Velocidad del viento	8
68630	7	Sololá	701	Sololá	3	Barraneche	12	Diciembre	2023-12-24T00:00:00	2024-11-06T10:00:00	7	Dirección del viento	8.05
68631	7	Sololá	701	Sololá	3	Barraneche	12	Diciembre	2023-12-24T00:00:00	2024-11-06T10:00:00	1	Precipitación	0
68632	7	Sololá	701	Sololá	3	Barraneche	12	Diciembre	2023-12-24T00:00:00	2024-11-06T10:00:00	8	Radiación solar	423
68633	7	Sololá	701	Sololá	3	Barraneche	12	Diciembre	2023-12-24T00:00:00	2024-11-06T11:00:00	2	Temperatura media	17.6
68634	7	Sololá	701	Sololá	3	Barraneche	12	Diciembre	2023-12-24T00:00:00	2024-11-06T11:00:00	4	Temperatura máxima	17.9
68635	7	Sololá	701	Sololá	3	Barraneche	12	Diciembre	2023-12-24T00:00:00	2024-11-06T11:00:00	3	Temperatura mínima	16.7
68636	7	Sololá	701	Sololá	3	Barraneche	12	Diciembre	2023-12-24T00:00:00	2024-11-06T11:00:00	5	Humedad	53
68637	7	Sololá	701	Sololá	3	Barraneche	12	Diciembre	2023-12-24T00:00:00	2024-11-06T11:00:00	6	Velocidad del viento	9.7
68638	7	Sololá	701	Sololá	3	Barraneche	12	Diciembre	2023-12-24T00:00:00	2024-11-06T11:00:00	7	Dirección del viento	9.66
68639	7	Sololá	701	Sololá	3	Barraneche	12	Diciembre	2023-12-24T00:00:00	2024-11-06T11:00:00	1	Precipitación	0
68640	7	Sololá	701	Sololá	3	Barraneche	12	Diciembre	2023-12-24T00:00:00	2024-11-06T11:00:00	8	Radiación solar	328
68641	7	Sololá	701	Sololá	3	Barraneche	12	Diciembre	2023-12-24T00:00:00	2024-11-06T12:00:00	2	Temperatura media	16.6
68642	7	Sololá	701	Sololá	3	Barraneche	12	Diciembre	2023-12-24T00:00:00	2024-11-06T12:00:00	4	Temperatura máxima	17.5
68643	7	Sololá	701	Sololá	3	Barraneche	12	Diciembre	2023-12-24T00:00:00	2024-11-06T12:00:00	3	Temperatura mínima	16.1
68644	7	Sololá	701	Sololá	3	Barraneche	12	Diciembre	2023-12-24T00:00:00	2024-11-06T12:00:00	5	Humedad	61
68645	7	Sololá	701	Sololá	3	Barraneche	12	Diciembre	2023-12-24T00:00:00	2024-11-06T12:00:00	6	Velocidad del viento	12.9
68646	7	Sololá	701	Sololá	3	Barraneche	12	Diciembre	2023-12-24T00:00:00	2024-11-06T12:00:00	7	Dirección del viento	12.87
68647	7	Sololá	701	Sololá	3	Barraneche	12	Diciembre	2023-12-24T00:00:00	2024-11-06T12:00:00	1	Precipitación	0
68648	7	Sololá	701	Sololá	3	Barraneche	12	Diciembre	2023-12-24T00:00:00	2024-11-06T12:00:00	8	Radiación solar	240
68649	7	Sololá	701	Sololá	3	Barraneche	12	Diciembre	2023-12-24T00:00:00	2024-11-06T13:00:00	2	Temperatura media	17.4
68650	7	Sololá	701	Sololá	3	Barraneche	12	Diciembre	2023-12-24T00:00:00	2024-11-06T13:00:00	4	Temperatura máxima	17.4
68651	7	Sololá	701	Sololá	3	Barraneche	12	Diciembre	2023-12-24T00:00:00	2024-11-06T13:00:00	3	Temperatura mínima	16.6
68652	7	Sololá	701	Sololá	3	Barraneche	12	Diciembre	2023-12-24T00:00:00	2024-11-06T13:00:00	5	Humedad	59
68653	7	Sololá	701	Sololá	3	Barraneche	12	Diciembre	2023-12-24T00:00:00	2024-11-06T13:00:00	6	Velocidad del viento	14.5
68654	7	Sololá	701	Sololá	3	Barraneche	12	Diciembre	2023-12-24T00:00:00	2024-11-06T13:00:00	7	Dirección del viento	14.48
68655	7	Sololá	701	Sololá	3	Barraneche	12	Diciembre	2023-12-24T00:00:00	2024-11-06T13:00:00	1	Precipitación	0
68656	7	Sololá	701	Sololá	3	Barraneche	12	Diciembre	2023-12-24T00:00:00	2024-11-06T13:00:00	8	Radiación solar	466
68657	7	Sololá	701	Sololá	3	Barraneche	12	Diciembre	2023-12-24T00:00:00	2024-11-06T14:00:00	2	Temperatura media	16.8
68658	7	Sololá	701	Sololá	3	Barraneche	12	Diciembre	2023-12-24T00:00:00	2024-11-06T14:00:00	4	Temperatura máxima	17.7
68659	7	Sololá	701	Sololá	3	Barraneche	12	Diciembre	2023-12-24T00:00:00	2024-11-06T14:00:00	3	Temperatura mínima	16.4
68660	7	Sololá	701	Sololá	3	Barraneche	12	Diciembre	2023-12-24T00:00:00	2024-11-06T14:00:00	5	Humedad	63
68661	7	Sololá	701	Sololá	3	Barraneche	12	Diciembre	2023-12-24T00:00:00	2024-11-06T14:00:00	6	Velocidad del viento	14.5
68662	7	Sololá	701	Sololá	3	Barraneche	12	Diciembre	2023-12-24T00:00:00	2024-11-06T14:00:00	7	Dirección del viento	14.48
68663	7	Sololá	701	Sololá	3	Barraneche	12	Diciembre	2023-12-24T00:00:00	2024-11-06T14:00:00	1	Precipitación	0
68664	7	Sololá	701	Sololá	3	Barraneche	12	Diciembre	2023-12-24T00:00:00	2024-11-06T14:00:00	8	Radiación solar	579
68665	7	Sololá	701	Sololá	3	Barraneche	12	Diciembre	2023-12-24T00:00:00	2024-11-06T15:00:00	2	Temperatura media	16.6
68666	7	Sololá	701	Sololá	3	Barraneche	12	Diciembre	2023-12-24T00:00:00	2024-11-06T15:00:00	4	Temperatura máxima	16.8
68667	7	Sololá	701	Sololá	3	Barraneche	12	Diciembre	2023-12-24T00:00:00	2024-11-06T15:00:00	3	Temperatura mínima	16.1
68668	7	Sololá	701	Sololá	3	Barraneche	12	Diciembre	2023-12-24T00:00:00	2024-11-06T15:00:00	5	Humedad	65
68669	7	Sololá	701	Sololá	3	Barraneche	12	Diciembre	2023-12-24T00:00:00	2024-11-06T15:00:00	6	Velocidad del viento	12.9
68670	7	Sololá	701	Sololá	3	Barraneche	12	Diciembre	2023-12-24T00:00:00	2024-11-06T15:00:00	7	Dirección del viento	12.87
68671	7	Sololá	701	Sololá	3	Barraneche	12	Diciembre	2023-12-24T00:00:00	2024-11-06T15:00:00	1	Precipitación	0
68672	7	Sololá	701	Sololá	3	Barraneche	12	Diciembre	2023-12-24T00:00:00	2024-11-06T15:00:00	8	Radiación solar	423
68673	7	Sololá	701	Sololá	3	Barraneche	12	Diciembre	2023-12-24T00:00:00	2024-11-06T16:00:00	2	Temperatura media	16.1
68674	7	Sololá	701	Sololá	3	Barraneche	12	Diciembre	2023-12-24T00:00:00	2024-11-06T16:00:00	4	Temperatura máxima	16.8
68675	7	Sololá	701	Sololá	3	Barraneche	12	Diciembre	2023-12-24T00:00:00	2024-11-06T16:00:00	3	Temperatura mínima	16
68676	7	Sololá	701	Sololá	3	Barraneche	12	Diciembre	2023-12-24T00:00:00	2024-11-06T16:00:00	5	Humedad	64
68677	7	Sololá	701	Sololá	3	Barraneche	12	Diciembre	2023-12-24T00:00:00	2024-11-06T16:00:00	6	Velocidad del viento	12.9
68678	7	Sololá	701	Sololá	3	Barraneche	12	Diciembre	2023-12-24T00:00:00	2024-11-06T16:00:00	7	Dirección del viento	12.87
68679	7	Sololá	701	Sololá	3	Barraneche	12	Diciembre	2023-12-24T00:00:00	2024-11-06T16:00:00	1	Precipitación	0
68680	7	Sololá	701	Sololá	3	Barraneche	12	Diciembre	2023-12-24T00:00:00	2024-11-06T16:00:00	8	Radiación solar	372
68681	7	Sololá	701	Sololá	3	Barraneche	12	Diciembre	2023-12-24T00:00:00	2024-11-06T17:00:00	2	Temperatura media	15.1
68682	7	Sololá	701	Sololá	3	Barraneche	12	Diciembre	2023-12-24T00:00:00	2024-11-06T17:00:00	4	Temperatura máxima	16.3
68683	7	Sololá	701	Sololá	3	Barraneche	12	Diciembre	2023-12-24T00:00:00	2024-11-06T17:00:00	3	Temperatura mínima	15.1
68684	7	Sololá	701	Sololá	3	Barraneche	12	Diciembre	2023-12-24T00:00:00	2024-11-06T17:00:00	5	Humedad	69
68685	7	Sololá	701	Sololá	3	Barraneche	12	Diciembre	2023-12-24T00:00:00	2024-11-06T17:00:00	6	Velocidad del viento	9.7
68686	7	Sololá	701	Sololá	3	Barraneche	12	Diciembre	2023-12-24T00:00:00	2024-11-06T17:00:00	7	Dirección del viento	9.66
68687	7	Sololá	701	Sololá	3	Barraneche	12	Diciembre	2023-12-24T00:00:00	2024-11-06T17:00:00	1	Precipitación	0
68688	7	Sololá	701	Sololá	3	Barraneche	12	Diciembre	2023-12-24T00:00:00	2024-11-06T17:00:00	8	Radiación solar	161
68689	7	Sololá	701	Sololá	3	Barraneche	12	Diciembre	2023-12-24T00:00:00	2024-11-06T18:00:00	2	Temperatura media	13.5
68690	7	Sololá	701	Sololá	3	Barraneche	12	Diciembre	2023-12-24T00:00:00	2024-11-06T18:00:00	4	Temperatura máxima	15.2
68691	7	Sololá	701	Sololá	3	Barraneche	12	Diciembre	2023-12-24T00:00:00	2024-11-06T18:00:00	3	Temperatura mínima	13.5
68692	7	Sololá	701	Sololá	3	Barraneche	12	Diciembre	2023-12-24T00:00:00	2024-11-06T18:00:00	5	Humedad	73
68693	7	Sololá	701	Sololá	3	Barraneche	12	Diciembre	2023-12-24T00:00:00	2024-11-06T18:00:00	6	Velocidad del viento	4.8
68694	7	Sololá	701	Sololá	3	Barraneche	12	Diciembre	2023-12-24T00:00:00	2024-11-06T18:00:00	7	Dirección del viento	4.83
68695	7	Sololá	701	Sololá	3	Barraneche	12	Diciembre	2023-12-24T00:00:00	2024-11-06T18:00:00	1	Precipitación	0
68696	7	Sololá	701	Sololá	3	Barraneche	12	Diciembre	2023-12-24T00:00:00	2024-11-06T18:00:00	8	Radiación solar	29
68697	7	Sololá	701	Sololá	3	Barraneche	12	Diciembre	2023-12-24T00:00:00	2024-11-06T19:00:00	2	Temperatura media	11.5
68698	7	Sololá	701	Sololá	3	Barraneche	12	Diciembre	2023-12-24T00:00:00	2024-11-06T19:00:00	4	Temperatura máxima	13.6
68699	7	Sololá	701	Sololá	3	Barraneche	12	Diciembre	2023-12-24T00:00:00	2024-11-06T19:00:00	3	Temperatura mínima	11.5
68700	7	Sololá	701	Sololá	3	Barraneche	12	Diciembre	2023-12-24T00:00:00	2024-11-06T19:00:00	5	Humedad	65
68701	7	Sololá	701	Sololá	3	Barraneche	12	Diciembre	2023-12-24T00:00:00	2024-11-06T19:00:00	6	Velocidad del viento	4.8
68702	7	Sololá	701	Sololá	3	Barraneche	12	Diciembre	2023-12-24T00:00:00	2024-11-06T19:00:00	7	Dirección del viento	4.83
68703	7	Sololá	701	Sololá	3	Barraneche	12	Diciembre	2023-12-24T00:00:00	2024-11-06T19:00:00	1	Precipitación	0
68704	7	Sololá	701	Sololá	3	Barraneche	12	Diciembre	2023-12-24T00:00:00	2024-11-06T19:00:00	8	Radiación solar	0
68705	7	Sololá	701	Sololá	3	Barraneche	12	Diciembre	2023-12-24T00:00:00	2024-11-06T20:00:00	2	Temperatura media	11.2
68706	7	Sololá	701	Sololá	3	Barraneche	12	Diciembre	2023-12-24T00:00:00	2024-11-06T20:00:00	4	Temperatura máxima	11.5
68707	7	Sololá	701	Sololá	3	Barraneche	12	Diciembre	2023-12-24T00:00:00	2024-11-06T20:00:00	3	Temperatura mínima	11
68708	7	Sololá	701	Sololá	3	Barraneche	12	Diciembre	2023-12-24T00:00:00	2024-11-06T20:00:00	5	Humedad	62
68709	7	Sololá	701	Sololá	3	Barraneche	12	Diciembre	2023-12-24T00:00:00	2024-11-06T20:00:00	6	Velocidad del viento	6.4
68710	7	Sololá	701	Sololá	3	Barraneche	12	Diciembre	2023-12-24T00:00:00	2024-11-06T20:00:00	7	Dirección del viento	6.44
68711	7	Sololá	701	Sololá	3	Barraneche	12	Diciembre	2023-12-24T00:00:00	2024-11-06T20:00:00	1	Precipitación	0
68712	7	Sololá	701	Sololá	3	Barraneche	12	Diciembre	2023-12-24T00:00:00	2024-11-06T20:00:00	8	Radiación solar	0
68713	7	Sololá	701	Sololá	3	Barraneche	12	Diciembre	2023-12-24T00:00:00	2024-11-06T21:00:00	2	Temperatura media	10.3
68714	7	Sololá	701	Sololá	3	Barraneche	12	Diciembre	2023-12-24T00:00:00	2024-11-06T21:00:00	4	Temperatura máxima	11.2
68715	7	Sololá	701	Sololá	3	Barraneche	12	Diciembre	2023-12-24T00:00:00	2024-11-06T21:00:00	3	Temperatura mínima	10.3
68716	7	Sololá	701	Sololá	3	Barraneche	12	Diciembre	2023-12-24T00:00:00	2024-11-06T21:00:00	5	Humedad	61
68717	7	Sololá	701	Sololá	3	Barraneche	12	Diciembre	2023-12-24T00:00:00	2024-11-06T21:00:00	6	Velocidad del viento	8
68718	7	Sololá	701	Sololá	3	Barraneche	12	Diciembre	2023-12-24T00:00:00	2024-11-06T21:00:00	7	Dirección del viento	8.05
68719	7	Sololá	701	Sololá	3	Barraneche	12	Diciembre	2023-12-24T00:00:00	2024-11-06T21:00:00	1	Precipitación	0
68720	7	Sololá	701	Sololá	3	Barraneche	12	Diciembre	2023-12-24T00:00:00	2024-11-06T21:00:00	8	Radiación solar	0
68721	7	Sololá	701	Sololá	3	Barraneche	12	Diciembre	2023-12-24T00:00:00	2024-11-06T22:00:00	2	Temperatura media	10.6
68722	7	Sololá	701	Sololá	3	Barraneche	12	Diciembre	2023-12-24T00:00:00	2024-11-06T22:00:00	4	Temperatura máxima	10.6
68723	7	Sololá	701	Sololá	3	Barraneche	12	Diciembre	2023-12-24T00:00:00	2024-11-06T22:00:00	3	Temperatura mínima	10
68724	7	Sololá	701	Sololá	3	Barraneche	12	Diciembre	2023-12-24T00:00:00	2024-11-06T22:00:00	5	Humedad	63
68725	7	Sololá	701	Sololá	3	Barraneche	12	Diciembre	2023-12-24T00:00:00	2024-11-06T22:00:00	6	Velocidad del viento	6.4
68726	7	Sololá	701	Sololá	3	Barraneche	12	Diciembre	2023-12-24T00:00:00	2024-11-06T22:00:00	7	Dirección del viento	6.44
68727	7	Sololá	701	Sololá	3	Barraneche	12	Diciembre	2023-12-24T00:00:00	2024-11-06T22:00:00	1	Precipitación	0
68728	7	Sololá	701	Sololá	3	Barraneche	12	Diciembre	2023-12-24T00:00:00	2024-11-06T22:00:00	8	Radiación solar	0
68729	7	Sololá	701	Sololá	3	Barraneche	12	Diciembre	2023-12-24T00:00:00	2024-11-06T23:00:00	2	Temperatura media	10.6
68730	7	Sololá	701	Sololá	3	Barraneche	12	Diciembre	2023-12-24T00:00:00	2024-11-06T23:00:00	4	Temperatura máxima	10.8
68731	7	Sololá	701	Sololá	3	Barraneche	12	Diciembre	2023-12-24T00:00:00	2024-11-06T23:00:00	3	Temperatura mínima	10.4
68732	7	Sololá	701	Sololá	3	Barraneche	12	Diciembre	2023-12-24T00:00:00	2024-11-06T23:00:00	5	Humedad	59
68733	7	Sololá	701	Sololá	3	Barraneche	12	Diciembre	2023-12-24T00:00:00	2024-11-06T23:00:00	6	Velocidad del viento	9.7
68734	7	Sololá	701	Sololá	3	Barraneche	12	Diciembre	2023-12-24T00:00:00	2024-11-06T23:00:00	7	Dirección del viento	9.66
68735	7	Sololá	701	Sololá	3	Barraneche	12	Diciembre	2023-12-24T00:00:00	2024-11-06T23:00:00	1	Precipitación	0
68736	7	Sololá	701	Sololá	3	Barraneche	12	Diciembre	2023-12-24T00:00:00	2024-11-06T23:00:00	8	Radiación solar	0
68737	7	Sololá	701	Sololá	3	Barraneche	12	Diciembre	2023-12-25T00:00:00	2024-11-06T00:00:00	2	Temperatura media	9.8
68738	7	Sololá	701	Sololá	3	Barraneche	12	Diciembre	2023-12-25T00:00:00	2024-11-06T00:00:00	4	Temperatura máxima	10.6
68739	7	Sololá	701	Sololá	3	Barraneche	12	Diciembre	2023-12-25T00:00:00	2024-11-06T00:00:00	3	Temperatura mínima	9.8
68740	7	Sololá	701	Sololá	3	Barraneche	12	Diciembre	2023-12-25T00:00:00	2024-11-06T00:00:00	5	Humedad	59
68741	7	Sololá	701	Sololá	3	Barraneche	12	Diciembre	2023-12-25T00:00:00	2024-11-06T00:00:00	6	Velocidad del viento	9.7
68742	7	Sololá	701	Sololá	3	Barraneche	12	Diciembre	2023-12-25T00:00:00	2024-11-06T00:00:00	7	Dirección del viento	9.66
68743	7	Sololá	701	Sololá	3	Barraneche	12	Diciembre	2023-12-25T00:00:00	2024-11-06T00:00:00	1	Precipitación	0
68744	7	Sololá	701	Sololá	3	Barraneche	12	Diciembre	2023-12-25T00:00:00	2024-11-06T00:00:00	8	Radiación solar	0
68745	7	Sololá	701	Sololá	3	Barraneche	12	Diciembre	2023-12-25T00:00:00	2024-11-06T01:00:00	2	Temperatura media	10.3
68746	7	Sololá	701	Sololá	3	Barraneche	12	Diciembre	2023-12-25T00:00:00	2024-11-06T01:00:00	4	Temperatura máxima	10.3
68747	7	Sololá	701	Sololá	3	Barraneche	12	Diciembre	2023-12-25T00:00:00	2024-11-06T01:00:00	3	Temperatura mínima	9.7
68748	7	Sololá	701	Sololá	3	Barraneche	12	Diciembre	2023-12-25T00:00:00	2024-11-06T01:00:00	5	Humedad	60
68749	7	Sololá	701	Sololá	3	Barraneche	12	Diciembre	2023-12-25T00:00:00	2024-11-06T01:00:00	6	Velocidad del viento	9.7
68750	7	Sololá	701	Sololá	3	Barraneche	12	Diciembre	2023-12-25T00:00:00	2024-11-06T01:00:00	7	Dirección del viento	9.66
68751	7	Sololá	701	Sololá	3	Barraneche	12	Diciembre	2023-12-25T00:00:00	2024-11-06T01:00:00	1	Precipitación	0
68752	7	Sololá	701	Sololá	3	Barraneche	12	Diciembre	2023-12-25T00:00:00	2024-11-06T01:00:00	8	Radiación solar	0
68753	7	Sololá	701	Sololá	3	Barraneche	12	Diciembre	2023-12-25T00:00:00	2024-11-06T02:00:00	2	Temperatura media	10.2
68754	7	Sololá	701	Sololá	3	Barraneche	12	Diciembre	2023-12-25T00:00:00	2024-11-06T02:00:00	4	Temperatura máxima	10.6
68755	7	Sololá	701	Sololá	3	Barraneche	12	Diciembre	2023-12-25T00:00:00	2024-11-06T02:00:00	3	Temperatura mínima	10
68756	7	Sololá	701	Sololá	3	Barraneche	12	Diciembre	2023-12-25T00:00:00	2024-11-06T02:00:00	5	Humedad	62
68757	7	Sololá	701	Sololá	3	Barraneche	12	Diciembre	2023-12-25T00:00:00	2024-11-06T02:00:00	6	Velocidad del viento	9.7
68758	7	Sololá	701	Sololá	3	Barraneche	12	Diciembre	2023-12-25T00:00:00	2024-11-06T02:00:00	7	Dirección del viento	9.66
68759	7	Sololá	701	Sololá	3	Barraneche	12	Diciembre	2023-12-25T00:00:00	2024-11-06T02:00:00	1	Precipitación	0
68760	7	Sololá	701	Sololá	3	Barraneche	12	Diciembre	2023-12-25T00:00:00	2024-11-06T02:00:00	8	Radiación solar	0
68761	7	Sololá	701	Sololá	3	Barraneche	12	Diciembre	2023-12-25T00:00:00	2024-11-06T03:00:00	2	Temperatura media	10
68762	7	Sololá	701	Sololá	3	Barraneche	12	Diciembre	2023-12-25T00:00:00	2024-11-06T03:00:00	4	Temperatura máxima	10.7
68763	7	Sololá	701	Sololá	3	Barraneche	12	Diciembre	2023-12-25T00:00:00	2024-11-06T03:00:00	3	Temperatura mínima	10
68764	7	Sololá	701	Sololá	3	Barraneche	12	Diciembre	2023-12-25T00:00:00	2024-11-06T03:00:00	5	Humedad	63
68765	7	Sololá	701	Sololá	3	Barraneche	12	Diciembre	2023-12-25T00:00:00	2024-11-06T03:00:00	6	Velocidad del viento	8
68766	7	Sololá	701	Sololá	3	Barraneche	12	Diciembre	2023-12-25T00:00:00	2024-11-06T03:00:00	7	Dirección del viento	8.05
68767	7	Sololá	701	Sololá	3	Barraneche	12	Diciembre	2023-12-25T00:00:00	2024-11-06T03:00:00	1	Precipitación	0
68768	7	Sololá	701	Sololá	3	Barraneche	12	Diciembre	2023-12-25T00:00:00	2024-11-06T03:00:00	8	Radiación solar	0
68769	7	Sololá	701	Sololá	3	Barraneche	12	Diciembre	2023-12-25T00:00:00	2024-11-06T04:00:00	2	Temperatura media	8.2
68770	7	Sololá	701	Sololá	3	Barraneche	12	Diciembre	2023-12-25T00:00:00	2024-11-06T04:00:00	4	Temperatura máxima	10.1
68771	7	Sololá	701	Sololá	3	Barraneche	12	Diciembre	2023-12-25T00:00:00	2024-11-06T04:00:00	3	Temperatura mínima	8.1
68772	7	Sololá	701	Sololá	3	Barraneche	12	Diciembre	2023-12-25T00:00:00	2024-11-06T04:00:00	5	Humedad	68
68773	7	Sololá	701	Sololá	3	Barraneche	12	Diciembre	2023-12-25T00:00:00	2024-11-06T04:00:00	6	Velocidad del viento	4.8
68774	7	Sololá	701	Sololá	3	Barraneche	12	Diciembre	2023-12-25T00:00:00	2024-11-06T04:00:00	7	Dirección del viento	4.83
68775	7	Sololá	701	Sololá	3	Barraneche	12	Diciembre	2023-12-25T00:00:00	2024-11-06T04:00:00	1	Precipitación	0
68776	7	Sololá	701	Sololá	3	Barraneche	12	Diciembre	2023-12-25T00:00:00	2024-11-06T04:00:00	8	Radiación solar	0
68777	7	Sololá	701	Sololá	3	Barraneche	12	Diciembre	2023-12-25T00:00:00	2024-11-06T05:00:00	2	Temperatura media	8.6
68778	7	Sololá	701	Sololá	3	Barraneche	12	Diciembre	2023-12-25T00:00:00	2024-11-06T05:00:00	4	Temperatura máxima	8.6
68779	7	Sololá	701	Sololá	3	Barraneche	12	Diciembre	2023-12-25T00:00:00	2024-11-06T05:00:00	3	Temperatura mínima	7.5
68780	7	Sololá	701	Sololá	3	Barraneche	12	Diciembre	2023-12-25T00:00:00	2024-11-06T05:00:00	5	Humedad	68
68781	7	Sololá	701	Sololá	3	Barraneche	12	Diciembre	2023-12-25T00:00:00	2024-11-06T05:00:00	6	Velocidad del viento	6.4
68782	7	Sololá	701	Sololá	3	Barraneche	12	Diciembre	2023-12-25T00:00:00	2024-11-06T05:00:00	7	Dirección del viento	6.44
68783	7	Sololá	701	Sololá	3	Barraneche	12	Diciembre	2023-12-25T00:00:00	2024-11-06T05:00:00	1	Precipitación	0
68784	7	Sololá	701	Sololá	3	Barraneche	12	Diciembre	2023-12-25T00:00:00	2024-11-06T05:00:00	8	Radiación solar	0
68785	7	Sololá	701	Sololá	3	Barraneche	12	Diciembre	2023-12-25T00:00:00	2024-11-06T06:00:00	2	Temperatura media	8.6
68786	7	Sololá	701	Sololá	3	Barraneche	12	Diciembre	2023-12-25T00:00:00	2024-11-06T06:00:00	4	Temperatura máxima	9.2
68787	7	Sololá	701	Sololá	3	Barraneche	12	Diciembre	2023-12-25T00:00:00	2024-11-06T06:00:00	3	Temperatura mínima	8.6
68788	7	Sololá	701	Sololá	3	Barraneche	12	Diciembre	2023-12-25T00:00:00	2024-11-06T06:00:00	5	Humedad	68
68789	7	Sololá	701	Sololá	3	Barraneche	12	Diciembre	2023-12-25T00:00:00	2024-11-06T06:00:00	6	Velocidad del viento	4.8
68790	7	Sololá	701	Sololá	3	Barraneche	12	Diciembre	2023-12-25T00:00:00	2024-11-06T06:00:00	7	Dirección del viento	4.83
68791	7	Sololá	701	Sololá	3	Barraneche	12	Diciembre	2023-12-25T00:00:00	2024-11-06T06:00:00	1	Precipitación	0
68792	7	Sololá	701	Sololá	3	Barraneche	12	Diciembre	2023-12-25T00:00:00	2024-11-06T06:00:00	8	Radiación solar	0
68793	7	Sololá	701	Sololá	3	Barraneche	12	Diciembre	2023-12-25T00:00:00	2024-11-06T07:00:00	2	Temperatura media	8.1
68794	7	Sololá	701	Sololá	3	Barraneche	12	Diciembre	2023-12-25T00:00:00	2024-11-06T07:00:00	4	Temperatura máxima	8.6
68795	7	Sololá	701	Sololá	3	Barraneche	12	Diciembre	2023-12-25T00:00:00	2024-11-06T07:00:00	3	Temperatura mínima	8.1
68796	7	Sololá	701	Sololá	3	Barraneche	12	Diciembre	2023-12-25T00:00:00	2024-11-06T07:00:00	5	Humedad	70
68797	7	Sololá	701	Sololá	3	Barraneche	12	Diciembre	2023-12-25T00:00:00	2024-11-06T07:00:00	6	Velocidad del viento	1.6
68798	7	Sololá	701	Sololá	3	Barraneche	12	Diciembre	2023-12-25T00:00:00	2024-11-06T07:00:00	7	Dirección del viento	1.61
68799	7	Sololá	701	Sololá	3	Barraneche	12	Diciembre	2023-12-25T00:00:00	2024-11-06T07:00:00	1	Precipitación	0
68800	7	Sololá	701	Sololá	3	Barraneche	12	Diciembre	2023-12-25T00:00:00	2024-11-06T07:00:00	8	Radiación solar	7
68801	7	Sololá	701	Sololá	3	Barraneche	12	Diciembre	2023-12-25T00:00:00	2024-11-06T08:00:00	2	Temperatura media	11.4
68802	7	Sololá	701	Sololá	3	Barraneche	12	Diciembre	2023-12-25T00:00:00	2024-11-06T08:00:00	4	Temperatura máxima	11.4
68803	7	Sololá	701	Sololá	3	Barraneche	12	Diciembre	2023-12-25T00:00:00	2024-11-06T08:00:00	3	Temperatura mínima	8.1
68804	7	Sololá	701	Sololá	3	Barraneche	12	Diciembre	2023-12-25T00:00:00	2024-11-06T08:00:00	5	Humedad	68
68805	7	Sololá	701	Sololá	3	Barraneche	12	Diciembre	2023-12-25T00:00:00	2024-11-06T08:00:00	6	Velocidad del viento	4.8
68806	7	Sololá	701	Sololá	3	Barraneche	12	Diciembre	2023-12-25T00:00:00	2024-11-06T08:00:00	7	Dirección del viento	4.83
68807	7	Sololá	701	Sololá	3	Barraneche	12	Diciembre	2023-12-25T00:00:00	2024-11-06T08:00:00	1	Precipitación	0
68808	7	Sololá	701	Sololá	3	Barraneche	12	Diciembre	2023-12-25T00:00:00	2024-11-06T08:00:00	8	Radiación solar	147
68809	7	Sololá	701	Sololá	3	Barraneche	12	Diciembre	2023-12-25T00:00:00	2024-11-06T09:00:00	2	Temperatura media	14.1
68810	7	Sololá	701	Sololá	3	Barraneche	12	Diciembre	2023-12-25T00:00:00	2024-11-06T09:00:00	4	Temperatura máxima	14.3
68811	7	Sololá	701	Sololá	3	Barraneche	12	Diciembre	2023-12-25T00:00:00	2024-11-06T09:00:00	3	Temperatura mínima	11.4
68812	7	Sololá	701	Sololá	3	Barraneche	12	Diciembre	2023-12-25T00:00:00	2024-11-06T09:00:00	5	Humedad	63
68813	7	Sololá	701	Sololá	3	Barraneche	12	Diciembre	2023-12-25T00:00:00	2024-11-06T09:00:00	6	Velocidad del viento	3.2
68814	7	Sololá	701	Sololá	3	Barraneche	12	Diciembre	2023-12-25T00:00:00	2024-11-06T09:00:00	7	Dirección del viento	3.22
68815	7	Sololá	701	Sololá	3	Barraneche	12	Diciembre	2023-12-25T00:00:00	2024-11-06T09:00:00	1	Precipitación	0
68816	7	Sololá	701	Sololá	3	Barraneche	12	Diciembre	2023-12-25T00:00:00	2024-11-06T09:00:00	8	Radiación solar	343
68817	7	Sololá	701	Sololá	3	Barraneche	12	Diciembre	2023-12-25T00:00:00	2024-11-06T10:00:00	2	Temperatura media	15.8
68818	7	Sololá	701	Sololá	3	Barraneche	12	Diciembre	2023-12-25T00:00:00	2024-11-06T10:00:00	4	Temperatura máxima	16.3
68819	7	Sololá	701	Sololá	3	Barraneche	12	Diciembre	2023-12-25T00:00:00	2024-11-06T10:00:00	3	Temperatura mínima	14.1
68820	7	Sololá	701	Sololá	3	Barraneche	12	Diciembre	2023-12-25T00:00:00	2024-11-06T10:00:00	5	Humedad	56
68821	7	Sololá	701	Sololá	3	Barraneche	12	Diciembre	2023-12-25T00:00:00	2024-11-06T10:00:00	6	Velocidad del viento	6.4
68822	7	Sololá	701	Sololá	3	Barraneche	12	Diciembre	2023-12-25T00:00:00	2024-11-06T10:00:00	7	Dirección del viento	6.44
68823	7	Sololá	701	Sololá	3	Barraneche	12	Diciembre	2023-12-25T00:00:00	2024-11-06T10:00:00	1	Precipitación	0
68824	7	Sololá	701	Sololá	3	Barraneche	12	Diciembre	2023-12-25T00:00:00	2024-11-06T10:00:00	8	Radiación solar	638
68825	7	Sololá	701	Sololá	3	Barraneche	12	Diciembre	2023-12-25T00:00:00	2024-11-06T11:00:00	2	Temperatura media	16.7
68826	7	Sololá	701	Sololá	3	Barraneche	12	Diciembre	2023-12-25T00:00:00	2024-11-06T11:00:00	4	Temperatura máxima	16.8
68827	7	Sololá	701	Sololá	3	Barraneche	12	Diciembre	2023-12-25T00:00:00	2024-11-06T11:00:00	3	Temperatura mínima	15.8
68828	7	Sololá	701	Sololá	3	Barraneche	12	Diciembre	2023-12-25T00:00:00	2024-11-06T11:00:00	5	Humedad	58
68829	7	Sololá	701	Sololá	3	Barraneche	12	Diciembre	2023-12-25T00:00:00	2024-11-06T11:00:00	6	Velocidad del viento	9.7
68830	7	Sololá	701	Sololá	3	Barraneche	12	Diciembre	2023-12-25T00:00:00	2024-11-06T11:00:00	7	Dirección del viento	9.66
68831	7	Sololá	701	Sololá	3	Barraneche	12	Diciembre	2023-12-25T00:00:00	2024-11-06T11:00:00	1	Precipitación	0
68832	7	Sololá	701	Sololá	3	Barraneche	12	Diciembre	2023-12-25T00:00:00	2024-11-06T11:00:00	8	Radiación solar	783
68833	7	Sololá	701	Sololá	3	Barraneche	12	Diciembre	2023-12-25T00:00:00	2024-11-06T12:00:00	2	Temperatura media	16.9
68834	7	Sololá	701	Sololá	3	Barraneche	12	Diciembre	2023-12-25T00:00:00	2024-11-06T12:00:00	4	Temperatura máxima	17.1
68835	7	Sololá	701	Sololá	3	Barraneche	12	Diciembre	2023-12-25T00:00:00	2024-11-06T12:00:00	3	Temperatura mínima	16.6
68836	7	Sololá	701	Sololá	3	Barraneche	12	Diciembre	2023-12-25T00:00:00	2024-11-06T12:00:00	5	Humedad	56
68837	7	Sololá	701	Sololá	3	Barraneche	12	Diciembre	2023-12-25T00:00:00	2024-11-06T12:00:00	6	Velocidad del viento	11.3
68838	7	Sololá	701	Sololá	3	Barraneche	12	Diciembre	2023-12-25T00:00:00	2024-11-06T12:00:00	7	Dirección del viento	11.27
68839	7	Sololá	701	Sololá	3	Barraneche	12	Diciembre	2023-12-25T00:00:00	2024-11-06T12:00:00	1	Precipitación	0
68840	7	Sololá	701	Sololá	3	Barraneche	12	Diciembre	2023-12-25T00:00:00	2024-11-06T12:00:00	8	Radiación solar	914
68841	7	Sololá	701	Sololá	3	Barraneche	12	Diciembre	2023-12-25T00:00:00	2024-11-06T13:00:00	2	Temperatura media	17.7
68842	7	Sololá	701	Sololá	3	Barraneche	12	Diciembre	2023-12-25T00:00:00	2024-11-06T13:00:00	4	Temperatura máxima	17.7
68843	7	Sololá	701	Sololá	3	Barraneche	12	Diciembre	2023-12-25T00:00:00	2024-11-06T13:00:00	3	Temperatura mínima	16.9
68844	7	Sololá	701	Sololá	3	Barraneche	12	Diciembre	2023-12-25T00:00:00	2024-11-06T13:00:00	5	Humedad	55
68845	7	Sololá	701	Sololá	3	Barraneche	12	Diciembre	2023-12-25T00:00:00	2024-11-06T13:00:00	6	Velocidad del viento	11.3
68846	7	Sololá	701	Sololá	3	Barraneche	12	Diciembre	2023-12-25T00:00:00	2024-11-06T13:00:00	7	Dirección del viento	11.27
68847	7	Sololá	701	Sololá	3	Barraneche	12	Diciembre	2023-12-25T00:00:00	2024-11-06T13:00:00	1	Precipitación	0
68848	7	Sololá	701	Sololá	3	Barraneche	12	Diciembre	2023-12-25T00:00:00	2024-11-06T13:00:00	8	Radiación solar	969
68849	7	Sololá	701	Sololá	3	Barraneche	12	Diciembre	2023-12-25T00:00:00	2024-11-06T14:00:00	2	Temperatura media	16.7
68850	7	Sololá	701	Sololá	3	Barraneche	12	Diciembre	2023-12-25T00:00:00	2024-11-06T14:00:00	4	Temperatura máxima	17.7
68851	7	Sololá	701	Sololá	3	Barraneche	12	Diciembre	2023-12-25T00:00:00	2024-11-06T14:00:00	3	Temperatura mínima	16.5
68852	7	Sololá	701	Sololá	3	Barraneche	12	Diciembre	2023-12-25T00:00:00	2024-11-06T14:00:00	5	Humedad	57
68853	7	Sololá	701	Sololá	3	Barraneche	12	Diciembre	2023-12-25T00:00:00	2024-11-06T14:00:00	6	Velocidad del viento	12.9
68854	7	Sololá	701	Sololá	3	Barraneche	12	Diciembre	2023-12-25T00:00:00	2024-11-06T14:00:00	7	Dirección del viento	12.87
68855	7	Sololá	701	Sololá	3	Barraneche	12	Diciembre	2023-12-25T00:00:00	2024-11-06T14:00:00	1	Precipitación	0
68856	7	Sololá	701	Sololá	3	Barraneche	12	Diciembre	2023-12-25T00:00:00	2024-11-06T14:00:00	8	Radiación solar	591
68857	7	Sololá	701	Sololá	3	Barraneche	12	Diciembre	2023-12-25T00:00:00	2024-11-06T15:00:00	2	Temperatura media	15.6
68858	7	Sololá	701	Sololá	3	Barraneche	12	Diciembre	2023-12-25T00:00:00	2024-11-06T15:00:00	4	Temperatura máxima	16.8
68859	7	Sololá	701	Sololá	3	Barraneche	12	Diciembre	2023-12-25T00:00:00	2024-11-06T15:00:00	3	Temperatura mínima	15.6
68860	7	Sololá	701	Sololá	3	Barraneche	12	Diciembre	2023-12-25T00:00:00	2024-11-06T15:00:00	5	Humedad	64
68861	7	Sololá	701	Sololá	3	Barraneche	12	Diciembre	2023-12-25T00:00:00	2024-11-06T15:00:00	6	Velocidad del viento	11.3
68862	7	Sololá	701	Sololá	3	Barraneche	12	Diciembre	2023-12-25T00:00:00	2024-11-06T15:00:00	7	Dirección del viento	11.27
68863	7	Sololá	701	Sololá	3	Barraneche	12	Diciembre	2023-12-25T00:00:00	2024-11-06T15:00:00	1	Precipitación	0
68864	7	Sololá	701	Sololá	3	Barraneche	12	Diciembre	2023-12-25T00:00:00	2024-11-06T15:00:00	8	Radiación solar	219
68865	7	Sololá	701	Sololá	3	Barraneche	12	Diciembre	2023-12-25T00:00:00	2024-11-06T16:00:00	2	Temperatura media	15.8
68866	7	Sololá	701	Sololá	3	Barraneche	12	Diciembre	2023-12-25T00:00:00	2024-11-06T16:00:00	4	Temperatura máxima	15.9
68867	7	Sololá	701	Sololá	3	Barraneche	12	Diciembre	2023-12-25T00:00:00	2024-11-06T16:00:00	3	Temperatura mínima	15.5
68868	7	Sololá	701	Sololá	3	Barraneche	12	Diciembre	2023-12-25T00:00:00	2024-11-06T16:00:00	5	Humedad	65
68869	7	Sololá	701	Sololá	3	Barraneche	12	Diciembre	2023-12-25T00:00:00	2024-11-06T16:00:00	6	Velocidad del viento	8
68870	7	Sololá	701	Sololá	3	Barraneche	12	Diciembre	2023-12-25T00:00:00	2024-11-06T16:00:00	7	Dirección del viento	8.05
68871	7	Sololá	701	Sololá	3	Barraneche	12	Diciembre	2023-12-25T00:00:00	2024-11-06T16:00:00	1	Precipitación	0
68872	7	Sololá	701	Sololá	3	Barraneche	12	Diciembre	2023-12-25T00:00:00	2024-11-06T16:00:00	8	Radiación solar	174
68873	7	Sololá	701	Sololá	3	Barraneche	12	Diciembre	2023-12-25T00:00:00	2024-11-06T17:00:00	2	Temperatura media	14.7
68874	7	Sololá	701	Sololá	3	Barraneche	12	Diciembre	2023-12-25T00:00:00	2024-11-06T17:00:00	4	Temperatura máxima	15.8
68875	7	Sololá	701	Sololá	3	Barraneche	12	Diciembre	2023-12-25T00:00:00	2024-11-06T17:00:00	3	Temperatura mínima	14.7
68876	7	Sololá	701	Sololá	3	Barraneche	12	Diciembre	2023-12-25T00:00:00	2024-11-06T17:00:00	5	Humedad	69
68877	7	Sololá	701	Sololá	3	Barraneche	12	Diciembre	2023-12-25T00:00:00	2024-11-06T17:00:00	6	Velocidad del viento	4.8
68878	7	Sololá	701	Sololá	3	Barraneche	12	Diciembre	2023-12-25T00:00:00	2024-11-06T17:00:00	7	Dirección del viento	4.83
68879	7	Sololá	701	Sololá	3	Barraneche	12	Diciembre	2023-12-25T00:00:00	2024-11-06T17:00:00	1	Precipitación	0
68880	7	Sololá	701	Sololá	3	Barraneche	12	Diciembre	2023-12-25T00:00:00	2024-11-06T17:00:00	8	Radiación solar	75
68881	7	Sololá	701	Sololá	3	Barraneche	12	Diciembre	2023-12-25T00:00:00	2024-11-06T18:00:00	2	Temperatura media	13.2
68882	7	Sololá	701	Sololá	3	Barraneche	12	Diciembre	2023-12-25T00:00:00	2024-11-06T18:00:00	4	Temperatura máxima	14.7
68883	7	Sololá	701	Sololá	3	Barraneche	12	Diciembre	2023-12-25T00:00:00	2024-11-06T18:00:00	3	Temperatura mínima	13.2
68884	7	Sololá	701	Sololá	3	Barraneche	12	Diciembre	2023-12-25T00:00:00	2024-11-06T18:00:00	5	Humedad	70
68885	7	Sololá	701	Sololá	3	Barraneche	12	Diciembre	2023-12-25T00:00:00	2024-11-06T18:00:00	6	Velocidad del viento	1.6
68886	7	Sololá	701	Sololá	3	Barraneche	12	Diciembre	2023-12-25T00:00:00	2024-11-06T18:00:00	7	Dirección del viento	1.61
68887	7	Sololá	701	Sololá	3	Barraneche	12	Diciembre	2023-12-25T00:00:00	2024-11-06T18:00:00	1	Precipitación	0
68888	7	Sololá	701	Sololá	3	Barraneche	12	Diciembre	2023-12-25T00:00:00	2024-11-06T18:00:00	8	Radiación solar	17
68889	7	Sololá	701	Sololá	3	Barraneche	12	Diciembre	2023-12-25T00:00:00	2024-11-06T19:00:00	2	Temperatura media	12.6
68890	7	Sololá	701	Sololá	3	Barraneche	12	Diciembre	2023-12-25T00:00:00	2024-11-06T19:00:00	4	Temperatura máxima	13.3
68891	7	Sololá	701	Sololá	3	Barraneche	12	Diciembre	2023-12-25T00:00:00	2024-11-06T19:00:00	3	Temperatura mínima	12.6
68892	7	Sololá	701	Sololá	3	Barraneche	12	Diciembre	2023-12-25T00:00:00	2024-11-06T19:00:00	5	Humedad	65
68893	7	Sololá	701	Sololá	3	Barraneche	12	Diciembre	2023-12-25T00:00:00	2024-11-06T19:00:00	6	Velocidad del viento	1.6
68894	7	Sololá	701	Sololá	3	Barraneche	12	Diciembre	2023-12-25T00:00:00	2024-11-06T19:00:00	7	Dirección del viento	1.61
68895	7	Sololá	701	Sololá	3	Barraneche	12	Diciembre	2023-12-25T00:00:00	2024-11-06T19:00:00	1	Precipitación	0
68896	7	Sololá	701	Sololá	3	Barraneche	12	Diciembre	2023-12-25T00:00:00	2024-11-06T19:00:00	8	Radiación solar	0
68897	7	Sololá	701	Sololá	3	Barraneche	12	Diciembre	2023-12-25T00:00:00	2024-11-06T20:00:00	2	Temperatura media	11
68898	7	Sololá	701	Sololá	3	Barraneche	12	Diciembre	2023-12-25T00:00:00	2024-11-06T20:00:00	4	Temperatura máxima	12.6
68899	7	Sololá	701	Sololá	3	Barraneche	12	Diciembre	2023-12-25T00:00:00	2024-11-06T20:00:00	3	Temperatura mínima	10.9
68900	7	Sololá	701	Sololá	3	Barraneche	12	Diciembre	2023-12-25T00:00:00	2024-11-06T20:00:00	5	Humedad	66
68901	7	Sololá	701	Sololá	3	Barraneche	12	Diciembre	2023-12-25T00:00:00	2024-11-06T20:00:00	6	Velocidad del viento	8
68902	7	Sololá	701	Sololá	3	Barraneche	12	Diciembre	2023-12-25T00:00:00	2024-11-06T20:00:00	7	Dirección del viento	8.05
68903	7	Sololá	701	Sololá	3	Barraneche	12	Diciembre	2023-12-25T00:00:00	2024-11-06T20:00:00	1	Precipitación	0
68904	7	Sololá	701	Sololá	3	Barraneche	12	Diciembre	2023-12-25T00:00:00	2024-11-06T20:00:00	8	Radiación solar	0
68905	7	Sololá	701	Sololá	3	Barraneche	12	Diciembre	2023-12-25T00:00:00	2024-11-06T21:00:00	2	Temperatura media	11.1
68906	7	Sololá	701	Sololá	3	Barraneche	12	Diciembre	2023-12-25T00:00:00	2024-11-06T21:00:00	4	Temperatura máxima	11.3
68907	7	Sololá	701	Sololá	3	Barraneche	12	Diciembre	2023-12-25T00:00:00	2024-11-06T21:00:00	3	Temperatura mínima	10.9
68908	7	Sololá	701	Sololá	3	Barraneche	12	Diciembre	2023-12-25T00:00:00	2024-11-06T21:00:00	5	Humedad	65
68909	7	Sololá	701	Sololá	3	Barraneche	12	Diciembre	2023-12-25T00:00:00	2024-11-06T21:00:00	6	Velocidad del viento	8
68910	7	Sololá	701	Sololá	3	Barraneche	12	Diciembre	2023-12-25T00:00:00	2024-11-06T21:00:00	7	Dirección del viento	8.05
68911	7	Sololá	701	Sololá	3	Barraneche	12	Diciembre	2023-12-25T00:00:00	2024-11-06T21:00:00	1	Precipitación	0
68912	7	Sololá	701	Sololá	3	Barraneche	12	Diciembre	2023-12-25T00:00:00	2024-11-06T21:00:00	8	Radiación solar	0
68913	7	Sololá	701	Sololá	3	Barraneche	12	Diciembre	2023-12-25T00:00:00	2024-11-06T22:00:00	2	Temperatura media	11.3
68914	7	Sololá	701	Sololá	3	Barraneche	12	Diciembre	2023-12-25T00:00:00	2024-11-06T22:00:00	4	Temperatura máxima	11.7
68915	7	Sololá	701	Sololá	3	Barraneche	12	Diciembre	2023-12-25T00:00:00	2024-11-06T22:00:00	3	Temperatura mínima	11.1
68916	7	Sololá	701	Sololá	3	Barraneche	12	Diciembre	2023-12-25T00:00:00	2024-11-06T22:00:00	5	Humedad	65
68917	7	Sololá	701	Sololá	3	Barraneche	12	Diciembre	2023-12-25T00:00:00	2024-11-06T22:00:00	6	Velocidad del viento	8
68918	7	Sololá	701	Sololá	3	Barraneche	12	Diciembre	2023-12-25T00:00:00	2024-11-06T22:00:00	7	Dirección del viento	8.05
68919	7	Sololá	701	Sololá	3	Barraneche	12	Diciembre	2023-12-25T00:00:00	2024-11-06T22:00:00	1	Precipitación	0
68920	7	Sololá	701	Sololá	3	Barraneche	12	Diciembre	2023-12-25T00:00:00	2024-11-06T22:00:00	8	Radiación solar	0
68921	7	Sololá	701	Sololá	3	Barraneche	12	Diciembre	2023-12-25T00:00:00	2024-11-06T23:00:00	2	Temperatura media	11
68922	7	Sololá	701	Sololá	3	Barraneche	12	Diciembre	2023-12-25T00:00:00	2024-11-06T23:00:00	4	Temperatura máxima	11.7
68923	7	Sololá	701	Sololá	3	Barraneche	12	Diciembre	2023-12-25T00:00:00	2024-11-06T23:00:00	3	Temperatura mínima	10.9
68924	7	Sololá	701	Sololá	3	Barraneche	12	Diciembre	2023-12-25T00:00:00	2024-11-06T23:00:00	5	Humedad	64
68925	7	Sololá	701	Sololá	3	Barraneche	12	Diciembre	2023-12-25T00:00:00	2024-11-06T23:00:00	6	Velocidad del viento	8
68926	7	Sololá	701	Sololá	3	Barraneche	12	Diciembre	2023-12-25T00:00:00	2024-11-06T23:00:00	7	Dirección del viento	8.05
68927	7	Sololá	701	Sololá	3	Barraneche	12	Diciembre	2023-12-25T00:00:00	2024-11-06T23:00:00	1	Precipitación	0
68928	7	Sololá	701	Sololá	3	Barraneche	12	Diciembre	2023-12-25T00:00:00	2024-11-06T23:00:00	8	Radiación solar	0
68929	7	Sololá	701	Sololá	3	Barraneche	12	Diciembre	2023-12-26T00:00:00	2024-11-06T00:00:00	2	Temperatura media	10.2
68930	7	Sololá	701	Sololá	3	Barraneche	12	Diciembre	2023-12-26T00:00:00	2024-11-06T00:00:00	4	Temperatura máxima	11
68931	7	Sololá	701	Sololá	3	Barraneche	12	Diciembre	2023-12-26T00:00:00	2024-11-06T00:00:00	3	Temperatura mínima	10.2
68932	7	Sololá	701	Sololá	3	Barraneche	12	Diciembre	2023-12-26T00:00:00	2024-11-06T00:00:00	5	Humedad	65
68933	7	Sololá	701	Sololá	3	Barraneche	12	Diciembre	2023-12-26T00:00:00	2024-11-06T00:00:00	6	Velocidad del viento	6.4
68934	7	Sololá	701	Sololá	3	Barraneche	12	Diciembre	2023-12-26T00:00:00	2024-11-06T00:00:00	7	Dirección del viento	6.44
68935	7	Sololá	701	Sololá	3	Barraneche	12	Diciembre	2023-12-26T00:00:00	2024-11-06T00:00:00	1	Precipitación	0
68936	7	Sololá	701	Sololá	3	Barraneche	12	Diciembre	2023-12-26T00:00:00	2024-11-06T00:00:00	8	Radiación solar	0
68937	7	Sololá	701	Sololá	3	Barraneche	12	Diciembre	2023-12-26T00:00:00	2024-11-06T01:00:00	2	Temperatura media	9.7
68938	7	Sololá	701	Sololá	3	Barraneche	12	Diciembre	2023-12-26T00:00:00	2024-11-06T01:00:00	4	Temperatura máxima	10.2
68939	7	Sololá	701	Sololá	3	Barraneche	12	Diciembre	2023-12-26T00:00:00	2024-11-06T01:00:00	3	Temperatura mínima	9.6
68940	7	Sololá	701	Sololá	3	Barraneche	12	Diciembre	2023-12-26T00:00:00	2024-11-06T01:00:00	5	Humedad	67
68941	7	Sololá	701	Sololá	3	Barraneche	12	Diciembre	2023-12-26T00:00:00	2024-11-06T01:00:00	6	Velocidad del viento	8
68942	7	Sololá	701	Sololá	3	Barraneche	12	Diciembre	2023-12-26T00:00:00	2024-11-06T01:00:00	7	Dirección del viento	8.05
68943	7	Sololá	701	Sololá	3	Barraneche	12	Diciembre	2023-12-26T00:00:00	2024-11-06T01:00:00	1	Precipitación	0
68944	7	Sololá	701	Sololá	3	Barraneche	12	Diciembre	2023-12-26T00:00:00	2024-11-06T01:00:00	8	Radiación solar	0
68945	7	Sololá	701	Sololá	3	Barraneche	12	Diciembre	2023-12-26T00:00:00	2024-11-06T02:00:00	2	Temperatura media	9.8
68946	7	Sololá	701	Sololá	3	Barraneche	12	Diciembre	2023-12-26T00:00:00	2024-11-06T02:00:00	4	Temperatura máxima	10.1
68947	7	Sololá	701	Sololá	3	Barraneche	12	Diciembre	2023-12-26T00:00:00	2024-11-06T02:00:00	3	Temperatura mínima	9.4
68948	7	Sololá	701	Sololá	3	Barraneche	12	Diciembre	2023-12-26T00:00:00	2024-11-06T02:00:00	5	Humedad	66
68949	7	Sololá	701	Sololá	3	Barraneche	12	Diciembre	2023-12-26T00:00:00	2024-11-06T02:00:00	6	Velocidad del viento	8
68950	7	Sololá	701	Sololá	3	Barraneche	12	Diciembre	2023-12-26T00:00:00	2024-11-06T02:00:00	7	Dirección del viento	8.05
68951	7	Sololá	701	Sololá	3	Barraneche	12	Diciembre	2023-12-26T00:00:00	2024-11-06T02:00:00	1	Precipitación	0
68952	7	Sololá	701	Sololá	3	Barraneche	12	Diciembre	2023-12-26T00:00:00	2024-11-06T02:00:00	8	Radiación solar	0
68953	7	Sololá	701	Sololá	3	Barraneche	12	Diciembre	2023-12-26T00:00:00	2024-11-06T03:00:00	2	Temperatura media	9.3
68954	7	Sololá	701	Sololá	3	Barraneche	12	Diciembre	2023-12-26T00:00:00	2024-11-06T03:00:00	4	Temperatura máxima	9.9
68955	7	Sololá	701	Sololá	3	Barraneche	12	Diciembre	2023-12-26T00:00:00	2024-11-06T03:00:00	3	Temperatura mínima	8.9
68956	7	Sololá	701	Sololá	3	Barraneche	12	Diciembre	2023-12-26T00:00:00	2024-11-06T03:00:00	5	Humedad	65
68957	7	Sololá	701	Sololá	3	Barraneche	12	Diciembre	2023-12-26T00:00:00	2024-11-06T03:00:00	6	Velocidad del viento	8
68958	7	Sololá	701	Sololá	3	Barraneche	12	Diciembre	2023-12-26T00:00:00	2024-11-06T03:00:00	7	Dirección del viento	8.05
68959	7	Sololá	701	Sololá	3	Barraneche	12	Diciembre	2023-12-26T00:00:00	2024-11-06T03:00:00	1	Precipitación	0
68960	7	Sololá	701	Sololá	3	Barraneche	12	Diciembre	2023-12-26T00:00:00	2024-11-06T03:00:00	8	Radiación solar	0
68961	7	Sololá	701	Sololá	3	Barraneche	12	Diciembre	2023-12-26T00:00:00	2024-11-06T04:00:00	2	Temperatura media	8.8
68962	7	Sololá	701	Sololá	3	Barraneche	12	Diciembre	2023-12-26T00:00:00	2024-11-06T04:00:00	4	Temperatura máxima	9.4
68963	7	Sololá	701	Sololá	3	Barraneche	12	Diciembre	2023-12-26T00:00:00	2024-11-06T04:00:00	3	Temperatura mínima	8.6
68964	7	Sololá	701	Sololá	3	Barraneche	12	Diciembre	2023-12-26T00:00:00	2024-11-06T04:00:00	5	Humedad	62
68965	7	Sololá	701	Sololá	3	Barraneche	12	Diciembre	2023-12-26T00:00:00	2024-11-06T04:00:00	6	Velocidad del viento	9.7
68966	7	Sololá	701	Sololá	3	Barraneche	12	Diciembre	2023-12-26T00:00:00	2024-11-06T04:00:00	7	Dirección del viento	9.66
68967	7	Sololá	701	Sololá	3	Barraneche	12	Diciembre	2023-12-26T00:00:00	2024-11-06T04:00:00	1	Precipitación	0
68968	7	Sololá	701	Sololá	3	Barraneche	12	Diciembre	2023-12-26T00:00:00	2024-11-06T04:00:00	8	Radiación solar	0
68969	7	Sololá	701	Sololá	3	Barraneche	12	Diciembre	2023-12-26T00:00:00	2024-11-06T05:00:00	2	Temperatura media	8.6
68970	7	Sololá	701	Sololá	3	Barraneche	12	Diciembre	2023-12-26T00:00:00	2024-11-06T05:00:00	4	Temperatura máxima	9.1
68971	7	Sololá	701	Sololá	3	Barraneche	12	Diciembre	2023-12-26T00:00:00	2024-11-06T05:00:00	3	Temperatura mínima	8.3
68972	7	Sololá	701	Sololá	3	Barraneche	12	Diciembre	2023-12-26T00:00:00	2024-11-06T05:00:00	5	Humedad	64
68973	7	Sololá	701	Sololá	3	Barraneche	12	Diciembre	2023-12-26T00:00:00	2024-11-06T05:00:00	6	Velocidad del viento	8
68974	7	Sololá	701	Sololá	3	Barraneche	12	Diciembre	2023-12-26T00:00:00	2024-11-06T05:00:00	7	Dirección del viento	8.05
68975	7	Sololá	701	Sololá	3	Barraneche	12	Diciembre	2023-12-26T00:00:00	2024-11-06T05:00:00	1	Precipitación	0
68976	7	Sololá	701	Sololá	3	Barraneche	12	Diciembre	2023-12-26T00:00:00	2024-11-06T05:00:00	8	Radiación solar	0
68977	7	Sololá	701	Sololá	3	Barraneche	12	Diciembre	2023-12-26T00:00:00	2024-11-06T06:00:00	2	Temperatura media	8.3
68978	7	Sololá	701	Sololá	3	Barraneche	12	Diciembre	2023-12-26T00:00:00	2024-11-06T06:00:00	4	Temperatura máxima	8.7
68979	7	Sololá	701	Sololá	3	Barraneche	12	Diciembre	2023-12-26T00:00:00	2024-11-06T06:00:00	3	Temperatura mínima	8.3
68980	7	Sololá	701	Sololá	3	Barraneche	12	Diciembre	2023-12-26T00:00:00	2024-11-06T06:00:00	5	Humedad	66
68981	7	Sololá	701	Sololá	3	Barraneche	12	Diciembre	2023-12-26T00:00:00	2024-11-06T06:00:00	6	Velocidad del viento	8
68982	7	Sololá	701	Sololá	3	Barraneche	12	Diciembre	2023-12-26T00:00:00	2024-11-06T06:00:00	7	Dirección del viento	8.05
68983	7	Sololá	701	Sololá	3	Barraneche	12	Diciembre	2023-12-26T00:00:00	2024-11-06T06:00:00	1	Precipitación	0
68984	7	Sololá	701	Sololá	3	Barraneche	12	Diciembre	2023-12-26T00:00:00	2024-11-06T06:00:00	8	Radiación solar	0
68985	7	Sololá	701	Sololá	3	Barraneche	12	Diciembre	2023-12-26T00:00:00	2024-11-06T07:00:00	2	Temperatura media	8.2
68986	7	Sololá	701	Sololá	3	Barraneche	12	Diciembre	2023-12-26T00:00:00	2024-11-06T07:00:00	4	Temperatura máxima	8.3
68987	7	Sololá	701	Sololá	3	Barraneche	12	Diciembre	2023-12-26T00:00:00	2024-11-06T07:00:00	3	Temperatura mínima	8
68988	7	Sololá	701	Sololá	3	Barraneche	12	Diciembre	2023-12-26T00:00:00	2024-11-06T07:00:00	5	Humedad	65
68989	7	Sololá	701	Sololá	3	Barraneche	12	Diciembre	2023-12-26T00:00:00	2024-11-06T07:00:00	6	Velocidad del viento	8
68990	7	Sololá	701	Sololá	3	Barraneche	12	Diciembre	2023-12-26T00:00:00	2024-11-06T07:00:00	7	Dirección del viento	8.05
68991	7	Sololá	701	Sololá	3	Barraneche	12	Diciembre	2023-12-26T00:00:00	2024-11-06T07:00:00	1	Precipitación	0
68992	7	Sololá	701	Sololá	3	Barraneche	12	Diciembre	2023-12-26T00:00:00	2024-11-06T07:00:00	8	Radiación solar	8
68993	7	Sololá	701	Sololá	3	Barraneche	12	Diciembre	2023-12-26T00:00:00	2024-11-06T08:00:00	2	Temperatura media	12.4
68994	7	Sololá	701	Sololá	3	Barraneche	12	Diciembre	2023-12-26T00:00:00	2024-11-06T08:00:00	4	Temperatura máxima	12.4
68995	7	Sololá	701	Sololá	3	Barraneche	12	Diciembre	2023-12-26T00:00:00	2024-11-06T08:00:00	3	Temperatura mínima	8.3
68996	7	Sololá	701	Sololá	3	Barraneche	12	Diciembre	2023-12-26T00:00:00	2024-11-06T08:00:00	5	Humedad	59
68997	7	Sololá	701	Sololá	3	Barraneche	12	Diciembre	2023-12-26T00:00:00	2024-11-06T08:00:00	6	Velocidad del viento	6.4
68998	7	Sololá	701	Sololá	3	Barraneche	12	Diciembre	2023-12-26T00:00:00	2024-11-06T08:00:00	7	Dirección del viento	6.44
68999	7	Sololá	701	Sololá	3	Barraneche	12	Diciembre	2023-12-26T00:00:00	2024-11-06T08:00:00	1	Precipitación	0
69000	7	Sololá	701	Sololá	3	Barraneche	12	Diciembre	2023-12-26T00:00:00	2024-11-06T08:00:00	8	Radiación solar	173
69001	7	Sololá	701	Sololá	3	Barraneche	12	Diciembre	2023-12-26T00:00:00	2024-11-06T09:00:00	2	Temperatura media	15.6
69002	7	Sololá	701	Sololá	3	Barraneche	12	Diciembre	2023-12-26T00:00:00	2024-11-06T09:00:00	4	Temperatura máxima	15.6
69003	7	Sololá	701	Sololá	3	Barraneche	12	Diciembre	2023-12-26T00:00:00	2024-11-06T09:00:00	3	Temperatura mínima	12.4
69004	7	Sololá	701	Sololá	3	Barraneche	12	Diciembre	2023-12-26T00:00:00	2024-11-06T09:00:00	5	Humedad	48
69005	7	Sololá	701	Sololá	3	Barraneche	12	Diciembre	2023-12-26T00:00:00	2024-11-06T09:00:00	6	Velocidad del viento	4.8
69006	7	Sololá	701	Sololá	3	Barraneche	12	Diciembre	2023-12-26T00:00:00	2024-11-06T09:00:00	7	Dirección del viento	4.83
69007	7	Sololá	701	Sololá	3	Barraneche	12	Diciembre	2023-12-26T00:00:00	2024-11-06T09:00:00	1	Precipitación	0
69008	7	Sololá	701	Sololá	3	Barraneche	12	Diciembre	2023-12-26T00:00:00	2024-11-06T09:00:00	8	Radiación solar	417
69009	7	Sololá	701	Sololá	3	Barraneche	12	Diciembre	2023-12-26T00:00:00	2024-11-06T10:00:00	2	Temperatura media	17.3
69010	7	Sololá	701	Sololá	3	Barraneche	12	Diciembre	2023-12-26T00:00:00	2024-11-06T10:00:00	4	Temperatura máxima	17.3
69011	7	Sololá	701	Sololá	3	Barraneche	12	Diciembre	2023-12-26T00:00:00	2024-11-06T10:00:00	3	Temperatura mínima	15.6
69012	7	Sololá	701	Sololá	3	Barraneche	12	Diciembre	2023-12-26T00:00:00	2024-11-06T10:00:00	5	Humedad	45
69013	7	Sololá	701	Sololá	3	Barraneche	12	Diciembre	2023-12-26T00:00:00	2024-11-06T10:00:00	6	Velocidad del viento	6.4
69014	7	Sololá	701	Sololá	3	Barraneche	12	Diciembre	2023-12-26T00:00:00	2024-11-06T10:00:00	7	Dirección del viento	6.44
69015	7	Sololá	701	Sololá	3	Barraneche	12	Diciembre	2023-12-26T00:00:00	2024-11-06T10:00:00	1	Precipitación	0
69016	7	Sololá	701	Sololá	3	Barraneche	12	Diciembre	2023-12-26T00:00:00	2024-11-06T10:00:00	8	Radiación solar	616
69017	7	Sololá	701	Sololá	3	Barraneche	12	Diciembre	2023-12-26T00:00:00	2024-11-06T11:00:00	2	Temperatura media	17.6
69018	7	Sololá	701	Sololá	3	Barraneche	12	Diciembre	2023-12-26T00:00:00	2024-11-06T11:00:00	4	Temperatura máxima	17.6
69019	7	Sololá	701	Sololá	3	Barraneche	12	Diciembre	2023-12-26T00:00:00	2024-11-06T11:00:00	3	Temperatura mínima	16.8
69020	7	Sololá	701	Sololá	3	Barraneche	12	Diciembre	2023-12-26T00:00:00	2024-11-06T11:00:00	5	Humedad	50
69021	7	Sololá	701	Sololá	3	Barraneche	12	Diciembre	2023-12-26T00:00:00	2024-11-06T11:00:00	6	Velocidad del viento	11.3
69022	7	Sololá	701	Sololá	3	Barraneche	12	Diciembre	2023-12-26T00:00:00	2024-11-06T11:00:00	7	Dirección del viento	11.27
69023	7	Sololá	701	Sololá	3	Barraneche	12	Diciembre	2023-12-26T00:00:00	2024-11-06T11:00:00	1	Precipitación	0
69024	7	Sololá	701	Sololá	3	Barraneche	12	Diciembre	2023-12-26T00:00:00	2024-11-06T11:00:00	8	Radiación solar	755
69025	7	Sololá	701	Sololá	3	Barraneche	12	Diciembre	2023-12-26T00:00:00	2024-11-06T12:00:00	2	Temperatura media	17.8
69026	7	Sololá	701	Sololá	3	Barraneche	12	Diciembre	2023-12-26T00:00:00	2024-11-06T12:00:00	4	Temperatura máxima	18.2
69027	7	Sololá	701	Sololá	3	Barraneche	12	Diciembre	2023-12-26T00:00:00	2024-11-06T12:00:00	3	Temperatura mínima	17.5
69028	7	Sololá	701	Sololá	3	Barraneche	12	Diciembre	2023-12-26T00:00:00	2024-11-06T12:00:00	5	Humedad	42
69029	7	Sololá	701	Sololá	3	Barraneche	12	Diciembre	2023-12-26T00:00:00	2024-11-06T12:00:00	6	Velocidad del viento	12.9
69030	7	Sololá	701	Sololá	3	Barraneche	12	Diciembre	2023-12-26T00:00:00	2024-11-06T12:00:00	7	Dirección del viento	12.87
69031	7	Sololá	701	Sololá	3	Barraneche	12	Diciembre	2023-12-26T00:00:00	2024-11-06T12:00:00	1	Precipitación	0
69032	7	Sololá	701	Sololá	3	Barraneche	12	Diciembre	2023-12-26T00:00:00	2024-11-06T12:00:00	8	Radiación solar	827
69033	7	Sololá	701	Sololá	3	Barraneche	12	Diciembre	2023-12-26T00:00:00	2024-11-06T13:00:00	2	Temperatura media	17.4
69034	7	Sololá	701	Sololá	3	Barraneche	12	Diciembre	2023-12-26T00:00:00	2024-11-06T13:00:00	4	Temperatura máxima	18.3
69035	7	Sololá	701	Sololá	3	Barraneche	12	Diciembre	2023-12-26T00:00:00	2024-11-06T13:00:00	3	Temperatura mínima	17.3
69036	7	Sololá	701	Sololá	3	Barraneche	12	Diciembre	2023-12-26T00:00:00	2024-11-06T13:00:00	5	Humedad	54
69037	7	Sololá	701	Sololá	3	Barraneche	12	Diciembre	2023-12-26T00:00:00	2024-11-06T13:00:00	6	Velocidad del viento	12.9
69038	7	Sololá	701	Sololá	3	Barraneche	12	Diciembre	2023-12-26T00:00:00	2024-11-06T13:00:00	7	Dirección del viento	12.87
69039	7	Sololá	701	Sololá	3	Barraneche	12	Diciembre	2023-12-26T00:00:00	2024-11-06T13:00:00	1	Precipitación	0
69040	7	Sololá	701	Sololá	3	Barraneche	12	Diciembre	2023-12-26T00:00:00	2024-11-06T13:00:00	8	Radiación solar	833
69041	7	Sololá	701	Sololá	3	Barraneche	12	Diciembre	2023-12-26T00:00:00	2024-11-06T14:00:00	2	Temperatura media	16.4
69042	7	Sololá	701	Sololá	3	Barraneche	12	Diciembre	2023-12-26T00:00:00	2024-11-06T14:00:00	4	Temperatura máxima	17.4
69043	7	Sololá	701	Sololá	3	Barraneche	12	Diciembre	2023-12-26T00:00:00	2024-11-06T14:00:00	3	Temperatura mínima	16.4
69044	7	Sololá	701	Sololá	3	Barraneche	12	Diciembre	2023-12-26T00:00:00	2024-11-06T14:00:00	5	Humedad	60
69045	7	Sololá	701	Sololá	3	Barraneche	12	Diciembre	2023-12-26T00:00:00	2024-11-06T14:00:00	6	Velocidad del viento	12.9
69046	7	Sololá	701	Sololá	3	Barraneche	12	Diciembre	2023-12-26T00:00:00	2024-11-06T14:00:00	7	Dirección del viento	12.87
69047	7	Sololá	701	Sololá	3	Barraneche	12	Diciembre	2023-12-26T00:00:00	2024-11-06T14:00:00	1	Precipitación	0
69048	7	Sololá	701	Sololá	3	Barraneche	12	Diciembre	2023-12-26T00:00:00	2024-11-06T14:00:00	8	Radiación solar	296
69049	7	Sololá	701	Sololá	3	Barraneche	12	Diciembre	2023-12-26T00:00:00	2024-11-06T15:00:00	2	Temperatura media	16.4
69050	7	Sololá	701	Sololá	3	Barraneche	12	Diciembre	2023-12-26T00:00:00	2024-11-06T15:00:00	4	Temperatura máxima	16.6
69051	7	Sololá	701	Sololá	3	Barraneche	12	Diciembre	2023-12-26T00:00:00	2024-11-06T15:00:00	3	Temperatura mínima	16.1
69052	7	Sololá	701	Sololá	3	Barraneche	12	Diciembre	2023-12-26T00:00:00	2024-11-06T15:00:00	5	Humedad	63
69053	7	Sololá	701	Sololá	3	Barraneche	12	Diciembre	2023-12-26T00:00:00	2024-11-06T15:00:00	6	Velocidad del viento	11.3
69054	7	Sololá	701	Sololá	3	Barraneche	12	Diciembre	2023-12-26T00:00:00	2024-11-06T15:00:00	7	Dirección del viento	11.27
69055	7	Sololá	701	Sololá	3	Barraneche	12	Diciembre	2023-12-26T00:00:00	2024-11-06T15:00:00	1	Precipitación	0
69056	7	Sololá	701	Sololá	3	Barraneche	12	Diciembre	2023-12-26T00:00:00	2024-11-06T15:00:00	8	Radiación solar	410
69057	7	Sololá	701	Sololá	3	Barraneche	12	Diciembre	2023-12-26T00:00:00	2024-11-06T16:00:00	2	Temperatura media	15.9
69058	7	Sololá	701	Sololá	3	Barraneche	12	Diciembre	2023-12-26T00:00:00	2024-11-06T16:00:00	4	Temperatura máxima	16.4
69059	7	Sololá	701	Sololá	3	Barraneche	12	Diciembre	2023-12-26T00:00:00	2024-11-06T16:00:00	3	Temperatura mínima	15.9
69060	7	Sololá	701	Sololá	3	Barraneche	12	Diciembre	2023-12-26T00:00:00	2024-11-06T16:00:00	5	Humedad	64
69061	7	Sololá	701	Sololá	3	Barraneche	12	Diciembre	2023-12-26T00:00:00	2024-11-06T16:00:00	6	Velocidad del viento	9.7
69062	7	Sololá	701	Sololá	3	Barraneche	12	Diciembre	2023-12-26T00:00:00	2024-11-06T16:00:00	7	Dirección del viento	9.66
69063	7	Sololá	701	Sololá	3	Barraneche	12	Diciembre	2023-12-26T00:00:00	2024-11-06T16:00:00	1	Precipitación	0
69064	7	Sololá	701	Sololá	3	Barraneche	12	Diciembre	2023-12-26T00:00:00	2024-11-06T16:00:00	8	Radiación solar	417
69065	7	Sololá	701	Sololá	3	Barraneche	12	Diciembre	2023-12-26T00:00:00	2024-11-06T17:00:00	2	Temperatura media	14.3
69066	7	Sololá	701	Sololá	3	Barraneche	12	Diciembre	2023-12-26T00:00:00	2024-11-06T17:00:00	4	Temperatura máxima	15.9
69067	7	Sololá	701	Sololá	3	Barraneche	12	Diciembre	2023-12-26T00:00:00	2024-11-06T17:00:00	3	Temperatura mínima	14.3
69068	7	Sololá	701	Sololá	3	Barraneche	12	Diciembre	2023-12-26T00:00:00	2024-11-06T17:00:00	5	Humedad	70
69069	7	Sololá	701	Sololá	3	Barraneche	12	Diciembre	2023-12-26T00:00:00	2024-11-06T17:00:00	6	Velocidad del viento	8
69070	7	Sololá	701	Sololá	3	Barraneche	12	Diciembre	2023-12-26T00:00:00	2024-11-06T17:00:00	7	Dirección del viento	8.05
69071	7	Sololá	701	Sololá	3	Barraneche	12	Diciembre	2023-12-26T00:00:00	2024-11-06T17:00:00	1	Precipitación	0
69072	7	Sololá	701	Sololá	3	Barraneche	12	Diciembre	2023-12-26T00:00:00	2024-11-06T17:00:00	8	Radiación solar	88
69073	7	Sololá	701	Sololá	3	Barraneche	12	Diciembre	2023-12-26T00:00:00	2024-11-06T18:00:00	2	Temperatura media	13.1
69074	7	Sololá	701	Sololá	3	Barraneche	12	Diciembre	2023-12-26T00:00:00	2024-11-06T18:00:00	4	Temperatura máxima	14.4
69075	7	Sololá	701	Sololá	3	Barraneche	12	Diciembre	2023-12-26T00:00:00	2024-11-06T18:00:00	3	Temperatura mínima	13.1
69076	7	Sololá	701	Sololá	3	Barraneche	12	Diciembre	2023-12-26T00:00:00	2024-11-06T18:00:00	5	Humedad	69
69077	7	Sololá	701	Sololá	3	Barraneche	12	Diciembre	2023-12-26T00:00:00	2024-11-06T18:00:00	6	Velocidad del viento	1.6
69078	7	Sololá	701	Sololá	3	Barraneche	12	Diciembre	2023-12-26T00:00:00	2024-11-06T18:00:00	7	Dirección del viento	1.61
69079	7	Sololá	701	Sololá	3	Barraneche	12	Diciembre	2023-12-26T00:00:00	2024-11-06T18:00:00	1	Precipitación	0
69080	7	Sololá	701	Sololá	3	Barraneche	12	Diciembre	2023-12-26T00:00:00	2024-11-06T18:00:00	8	Radiación solar	14
69081	7	Sololá	701	Sololá	3	Barraneche	12	Diciembre	2023-12-26T00:00:00	2024-11-06T19:00:00	2	Temperatura media	11.6
69082	7	Sololá	701	Sololá	3	Barraneche	12	Diciembre	2023-12-26T00:00:00	2024-11-06T19:00:00	4	Temperatura máxima	13.1
69083	7	Sololá	701	Sololá	3	Barraneche	12	Diciembre	2023-12-26T00:00:00	2024-11-06T19:00:00	3	Temperatura mínima	11.5
69084	7	Sololá	701	Sololá	3	Barraneche	12	Diciembre	2023-12-26T00:00:00	2024-11-06T19:00:00	5	Humedad	66
69085	7	Sololá	701	Sololá	3	Barraneche	12	Diciembre	2023-12-26T00:00:00	2024-11-06T19:00:00	6	Velocidad del viento	4.8
69086	7	Sololá	701	Sololá	3	Barraneche	12	Diciembre	2023-12-26T00:00:00	2024-11-06T19:00:00	7	Dirección del viento	4.83
69087	7	Sololá	701	Sololá	3	Barraneche	12	Diciembre	2023-12-26T00:00:00	2024-11-06T19:00:00	1	Precipitación	0
69088	7	Sololá	701	Sololá	3	Barraneche	12	Diciembre	2023-12-26T00:00:00	2024-11-06T19:00:00	8	Radiación solar	0
69089	7	Sololá	701	Sololá	3	Barraneche	12	Diciembre	2023-12-26T00:00:00	2024-11-06T20:00:00	2	Temperatura media	11.7
69090	7	Sololá	701	Sololá	3	Barraneche	12	Diciembre	2023-12-26T00:00:00	2024-11-06T20:00:00	4	Temperatura máxima	11.9
69091	7	Sololá	701	Sololá	3	Barraneche	12	Diciembre	2023-12-26T00:00:00	2024-11-06T20:00:00	3	Temperatura mínima	11.4
69092	7	Sololá	701	Sololá	3	Barraneche	12	Diciembre	2023-12-26T00:00:00	2024-11-06T20:00:00	5	Humedad	66
69093	7	Sololá	701	Sololá	3	Barraneche	12	Diciembre	2023-12-26T00:00:00	2024-11-06T20:00:00	6	Velocidad del viento	6.4
69094	7	Sololá	701	Sololá	3	Barraneche	12	Diciembre	2023-12-26T00:00:00	2024-11-06T20:00:00	7	Dirección del viento	6.44
69095	7	Sololá	701	Sololá	3	Barraneche	12	Diciembre	2023-12-26T00:00:00	2024-11-06T20:00:00	1	Precipitación	0
69096	7	Sololá	701	Sololá	3	Barraneche	12	Diciembre	2023-12-26T00:00:00	2024-11-06T20:00:00	8	Radiación solar	0
69097	7	Sololá	701	Sololá	3	Barraneche	12	Diciembre	2023-12-26T00:00:00	2024-11-06T21:00:00	2	Temperatura media	10.7
69098	7	Sololá	701	Sololá	3	Barraneche	12	Diciembre	2023-12-26T00:00:00	2024-11-06T21:00:00	4	Temperatura máxima	11.7
69099	7	Sololá	701	Sololá	3	Barraneche	12	Diciembre	2023-12-26T00:00:00	2024-11-06T21:00:00	3	Temperatura mínima	10.7
69100	7	Sololá	701	Sololá	3	Barraneche	12	Diciembre	2023-12-26T00:00:00	2024-11-06T21:00:00	5	Humedad	67
69101	7	Sololá	701	Sololá	3	Barraneche	12	Diciembre	2023-12-26T00:00:00	2024-11-06T21:00:00	6	Velocidad del viento	4.8
69102	7	Sololá	701	Sololá	3	Barraneche	12	Diciembre	2023-12-26T00:00:00	2024-11-06T21:00:00	7	Dirección del viento	4.83
69103	7	Sololá	701	Sololá	3	Barraneche	12	Diciembre	2023-12-26T00:00:00	2024-11-06T21:00:00	1	Precipitación	0
69104	7	Sololá	701	Sololá	3	Barraneche	12	Diciembre	2023-12-26T00:00:00	2024-11-06T21:00:00	8	Radiación solar	0
69105	7	Sololá	701	Sololá	3	Barraneche	12	Diciembre	2023-12-26T00:00:00	2024-11-06T22:00:00	2	Temperatura media	10.8
69106	7	Sololá	701	Sololá	3	Barraneche	12	Diciembre	2023-12-26T00:00:00	2024-11-06T22:00:00	4	Temperatura máxima	11
69107	7	Sololá	701	Sololá	3	Barraneche	12	Diciembre	2023-12-26T00:00:00	2024-11-06T22:00:00	3	Temperatura mínima	10.6
69108	7	Sololá	701	Sololá	3	Barraneche	12	Diciembre	2023-12-26T00:00:00	2024-11-06T22:00:00	5	Humedad	68
69109	7	Sololá	701	Sololá	3	Barraneche	12	Diciembre	2023-12-26T00:00:00	2024-11-06T22:00:00	6	Velocidad del viento	6.4
69110	7	Sololá	701	Sololá	3	Barraneche	12	Diciembre	2023-12-26T00:00:00	2024-11-06T22:00:00	7	Dirección del viento	6.44
69111	7	Sololá	701	Sololá	3	Barraneche	12	Diciembre	2023-12-26T00:00:00	2024-11-06T22:00:00	1	Precipitación	0
69112	7	Sololá	701	Sololá	3	Barraneche	12	Diciembre	2023-12-26T00:00:00	2024-11-06T22:00:00	8	Radiación solar	0
69113	7	Sololá	701	Sololá	3	Barraneche	12	Diciembre	2023-12-26T00:00:00	2024-11-06T23:00:00	2	Temperatura media	11.3
69114	7	Sololá	701	Sololá	3	Barraneche	12	Diciembre	2023-12-26T00:00:00	2024-11-06T23:00:00	4	Temperatura máxima	11.6
69115	7	Sololá	701	Sololá	3	Barraneche	12	Diciembre	2023-12-26T00:00:00	2024-11-06T23:00:00	3	Temperatura mínima	10.8
69116	7	Sololá	701	Sololá	3	Barraneche	12	Diciembre	2023-12-26T00:00:00	2024-11-06T23:00:00	5	Humedad	69
69117	7	Sololá	701	Sololá	3	Barraneche	12	Diciembre	2023-12-26T00:00:00	2024-11-06T23:00:00	6	Velocidad del viento	6.4
69118	7	Sololá	701	Sololá	3	Barraneche	12	Diciembre	2023-12-26T00:00:00	2024-11-06T23:00:00	7	Dirección del viento	6.44
69119	7	Sololá	701	Sololá	3	Barraneche	12	Diciembre	2023-12-26T00:00:00	2024-11-06T23:00:00	1	Precipitación	0
69120	7	Sololá	701	Sololá	3	Barraneche	12	Diciembre	2023-12-26T00:00:00	2024-11-06T23:00:00	8	Radiación solar	0
69121	7	Sololá	701	Sololá	3	Barraneche	12	Diciembre	2023-12-27T00:00:00	2024-11-06T00:00:00	2	Temperatura media	10.1
69122	7	Sololá	701	Sololá	3	Barraneche	12	Diciembre	2023-12-27T00:00:00	2024-11-06T00:00:00	4	Temperatura máxima	11.5
69123	7	Sololá	701	Sololá	3	Barraneche	12	Diciembre	2023-12-27T00:00:00	2024-11-06T00:00:00	3	Temperatura mínima	10.1
69124	7	Sololá	701	Sololá	3	Barraneche	12	Diciembre	2023-12-27T00:00:00	2024-11-06T00:00:00	5	Humedad	65
69125	7	Sololá	701	Sololá	3	Barraneche	12	Diciembre	2023-12-27T00:00:00	2024-11-06T00:00:00	6	Velocidad del viento	6.4
69126	7	Sololá	701	Sololá	3	Barraneche	12	Diciembre	2023-12-27T00:00:00	2024-11-06T00:00:00	7	Dirección del viento	6.44
69127	7	Sololá	701	Sololá	3	Barraneche	12	Diciembre	2023-12-27T00:00:00	2024-11-06T00:00:00	1	Precipitación	0
69128	7	Sololá	701	Sololá	3	Barraneche	12	Diciembre	2023-12-27T00:00:00	2024-11-06T00:00:00	8	Radiación solar	0
69129	7	Sololá	701	Sololá	3	Barraneche	12	Diciembre	2023-12-27T00:00:00	2024-11-06T01:00:00	2	Temperatura media	9.2
69130	7	Sololá	701	Sololá	3	Barraneche	12	Diciembre	2023-12-27T00:00:00	2024-11-06T01:00:00	4	Temperatura máxima	10.1
69131	7	Sololá	701	Sololá	3	Barraneche	12	Diciembre	2023-12-27T00:00:00	2024-11-06T01:00:00	3	Temperatura mínima	9.2
69132	7	Sololá	701	Sololá	3	Barraneche	12	Diciembre	2023-12-27T00:00:00	2024-11-06T01:00:00	5	Humedad	67
69133	7	Sololá	701	Sololá	3	Barraneche	12	Diciembre	2023-12-27T00:00:00	2024-11-06T01:00:00	6	Velocidad del viento	8
69134	7	Sololá	701	Sololá	3	Barraneche	12	Diciembre	2023-12-27T00:00:00	2024-11-06T01:00:00	7	Dirección del viento	8.05
69135	7	Sololá	701	Sololá	3	Barraneche	12	Diciembre	2023-12-27T00:00:00	2024-11-06T01:00:00	1	Precipitación	0
69136	7	Sololá	701	Sololá	3	Barraneche	12	Diciembre	2023-12-27T00:00:00	2024-11-06T01:00:00	8	Radiación solar	0
69137	7	Sololá	701	Sololá	3	Barraneche	12	Diciembre	2023-12-27T00:00:00	2024-11-06T02:00:00	2	Temperatura media	8.3
69138	7	Sololá	701	Sololá	3	Barraneche	12	Diciembre	2023-12-27T00:00:00	2024-11-06T02:00:00	4	Temperatura máxima	9.2
69139	7	Sololá	701	Sololá	3	Barraneche	12	Diciembre	2023-12-27T00:00:00	2024-11-06T02:00:00	3	Temperatura mínima	8.3
69140	7	Sololá	701	Sololá	3	Barraneche	12	Diciembre	2023-12-27T00:00:00	2024-11-06T02:00:00	5	Humedad	59
69141	7	Sololá	701	Sololá	3	Barraneche	12	Diciembre	2023-12-27T00:00:00	2024-11-06T02:00:00	6	Velocidad del viento	6.4
69142	7	Sololá	701	Sololá	3	Barraneche	12	Diciembre	2023-12-27T00:00:00	2024-11-06T02:00:00	7	Dirección del viento	6.44
69143	7	Sololá	701	Sololá	3	Barraneche	12	Diciembre	2023-12-27T00:00:00	2024-11-06T02:00:00	1	Precipitación	0
69144	7	Sololá	701	Sololá	3	Barraneche	12	Diciembre	2023-12-27T00:00:00	2024-11-06T02:00:00	8	Radiación solar	0
69145	7	Sololá	701	Sololá	3	Barraneche	12	Diciembre	2023-12-27T00:00:00	2024-11-06T03:00:00	2	Temperatura media	8
69146	7	Sololá	701	Sololá	3	Barraneche	12	Diciembre	2023-12-27T00:00:00	2024-11-06T03:00:00	4	Temperatura máxima	8.6
69147	7	Sololá	701	Sololá	3	Barraneche	12	Diciembre	2023-12-27T00:00:00	2024-11-06T03:00:00	3	Temperatura mínima	7.7
69148	7	Sololá	701	Sololá	3	Barraneche	12	Diciembre	2023-12-27T00:00:00	2024-11-06T03:00:00	5	Humedad	56
69149	7	Sololá	701	Sololá	3	Barraneche	12	Diciembre	2023-12-27T00:00:00	2024-11-06T03:00:00	6	Velocidad del viento	9.7
69150	7	Sololá	701	Sololá	3	Barraneche	12	Diciembre	2023-12-27T00:00:00	2024-11-06T03:00:00	7	Dirección del viento	9.66
69151	7	Sololá	701	Sololá	3	Barraneche	12	Diciembre	2023-12-27T00:00:00	2024-11-06T03:00:00	1	Precipitación	0
69152	7	Sololá	701	Sololá	3	Barraneche	12	Diciembre	2023-12-27T00:00:00	2024-11-06T03:00:00	8	Radiación solar	0
69153	7	Sololá	701	Sololá	3	Barraneche	12	Diciembre	2023-12-27T00:00:00	2024-11-06T04:00:00	2	Temperatura media	7.8
69154	7	Sololá	701	Sololá	3	Barraneche	12	Diciembre	2023-12-27T00:00:00	2024-11-06T04:00:00	4	Temperatura máxima	8.6
69155	7	Sololá	701	Sololá	3	Barraneche	12	Diciembre	2023-12-27T00:00:00	2024-11-06T04:00:00	3	Temperatura mínima	7.8
69156	7	Sololá	701	Sololá	3	Barraneche	12	Diciembre	2023-12-27T00:00:00	2024-11-06T04:00:00	5	Humedad	57
69157	7	Sololá	701	Sololá	3	Barraneche	12	Diciembre	2023-12-27T00:00:00	2024-11-06T04:00:00	6	Velocidad del viento	12.9
69158	7	Sololá	701	Sololá	3	Barraneche	12	Diciembre	2023-12-27T00:00:00	2024-11-06T04:00:00	7	Dirección del viento	12.87
69159	7	Sololá	701	Sololá	3	Barraneche	12	Diciembre	2023-12-27T00:00:00	2024-11-06T04:00:00	1	Precipitación	0
69160	7	Sololá	701	Sololá	3	Barraneche	12	Diciembre	2023-12-27T00:00:00	2024-11-06T04:00:00	8	Radiación solar	0
69161	7	Sololá	701	Sololá	3	Barraneche	12	Diciembre	2023-12-27T00:00:00	2024-11-06T05:00:00	2	Temperatura media	7.9
69162	7	Sololá	701	Sololá	3	Barraneche	12	Diciembre	2023-12-27T00:00:00	2024-11-06T05:00:00	4	Temperatura máxima	8
69163	7	Sololá	701	Sololá	3	Barraneche	12	Diciembre	2023-12-27T00:00:00	2024-11-06T05:00:00	3	Temperatura mínima	7.4
69164	7	Sololá	701	Sololá	3	Barraneche	12	Diciembre	2023-12-27T00:00:00	2024-11-06T05:00:00	5	Humedad	57
69165	7	Sololá	701	Sololá	3	Barraneche	12	Diciembre	2023-12-27T00:00:00	2024-11-06T05:00:00	6	Velocidad del viento	11.3
69166	7	Sololá	701	Sololá	3	Barraneche	12	Diciembre	2023-12-27T00:00:00	2024-11-06T05:00:00	7	Dirección del viento	11.27
69167	7	Sololá	701	Sololá	3	Barraneche	12	Diciembre	2023-12-27T00:00:00	2024-11-06T05:00:00	1	Precipitación	0
69168	7	Sololá	701	Sololá	3	Barraneche	12	Diciembre	2023-12-27T00:00:00	2024-11-06T05:00:00	8	Radiación solar	0
69169	7	Sololá	701	Sololá	3	Barraneche	12	Diciembre	2023-12-27T00:00:00	2024-11-06T06:00:00	2	Temperatura media	7.9
69170	7	Sololá	701	Sololá	3	Barraneche	12	Diciembre	2023-12-27T00:00:00	2024-11-06T06:00:00	4	Temperatura máxima	8.3
69171	7	Sololá	701	Sololá	3	Barraneche	12	Diciembre	2023-12-27T00:00:00	2024-11-06T06:00:00	3	Temperatura mínima	7.8
69172	7	Sololá	701	Sololá	3	Barraneche	12	Diciembre	2023-12-27T00:00:00	2024-11-06T06:00:00	5	Humedad	56
69173	7	Sololá	701	Sololá	3	Barraneche	12	Diciembre	2023-12-27T00:00:00	2024-11-06T06:00:00	6	Velocidad del viento	8
69174	7	Sololá	701	Sololá	3	Barraneche	12	Diciembre	2023-12-27T00:00:00	2024-11-06T06:00:00	7	Dirección del viento	8.05
69175	7	Sololá	701	Sololá	3	Barraneche	12	Diciembre	2023-12-27T00:00:00	2024-11-06T06:00:00	1	Precipitación	0
69176	7	Sololá	701	Sololá	3	Barraneche	12	Diciembre	2023-12-27T00:00:00	2024-11-06T06:00:00	8	Radiación solar	0
69177	7	Sololá	701	Sololá	3	Barraneche	12	Diciembre	2023-12-27T00:00:00	2024-11-06T07:00:00	2	Temperatura media	7.8
69178	7	Sololá	701	Sololá	3	Barraneche	12	Diciembre	2023-12-27T00:00:00	2024-11-06T07:00:00	4	Temperatura máxima	8.2
69179	7	Sololá	701	Sololá	3	Barraneche	12	Diciembre	2023-12-27T00:00:00	2024-11-06T07:00:00	3	Temperatura mínima	7.7
69180	7	Sololá	701	Sololá	3	Barraneche	12	Diciembre	2023-12-27T00:00:00	2024-11-06T07:00:00	5	Humedad	56
69181	7	Sololá	701	Sololá	3	Barraneche	12	Diciembre	2023-12-27T00:00:00	2024-11-06T07:00:00	6	Velocidad del viento	8
69182	7	Sololá	701	Sololá	3	Barraneche	12	Diciembre	2023-12-27T00:00:00	2024-11-06T07:00:00	7	Dirección del viento	8.05
69183	7	Sololá	701	Sololá	3	Barraneche	12	Diciembre	2023-12-27T00:00:00	2024-11-06T07:00:00	1	Precipitación	0
69184	7	Sololá	701	Sololá	3	Barraneche	12	Diciembre	2023-12-27T00:00:00	2024-11-06T07:00:00	8	Radiación solar	6
69185	7	Sololá	701	Sololá	3	Barraneche	12	Diciembre	2023-12-27T00:00:00	2024-11-06T08:00:00	2	Temperatura media	11.6
69186	7	Sololá	701	Sololá	3	Barraneche	12	Diciembre	2023-12-27T00:00:00	2024-11-06T08:00:00	4	Temperatura máxima	11.6
69187	7	Sololá	701	Sololá	3	Barraneche	12	Diciembre	2023-12-27T00:00:00	2024-11-06T08:00:00	3	Temperatura mínima	7.8
69188	7	Sololá	701	Sololá	3	Barraneche	12	Diciembre	2023-12-27T00:00:00	2024-11-06T08:00:00	5	Humedad	49
69189	7	Sololá	701	Sololá	3	Barraneche	12	Diciembre	2023-12-27T00:00:00	2024-11-06T08:00:00	6	Velocidad del viento	4.8
69190	7	Sololá	701	Sololá	3	Barraneche	12	Diciembre	2023-12-27T00:00:00	2024-11-06T08:00:00	7	Dirección del viento	4.83
69191	7	Sololá	701	Sololá	3	Barraneche	12	Diciembre	2023-12-27T00:00:00	2024-11-06T08:00:00	1	Precipitación	0
69192	7	Sololá	701	Sololá	3	Barraneche	12	Diciembre	2023-12-27T00:00:00	2024-11-06T08:00:00	8	Radiación solar	178
69193	7	Sololá	701	Sololá	3	Barraneche	12	Diciembre	2023-12-27T00:00:00	2024-11-06T09:00:00	2	Temperatura media	15.2
69194	7	Sololá	701	Sololá	3	Barraneche	12	Diciembre	2023-12-27T00:00:00	2024-11-06T09:00:00	4	Temperatura máxima	15.2
69195	7	Sololá	701	Sololá	3	Barraneche	12	Diciembre	2023-12-27T00:00:00	2024-11-06T09:00:00	3	Temperatura mínima	11.5
69196	7	Sololá	701	Sololá	3	Barraneche	12	Diciembre	2023-12-27T00:00:00	2024-11-06T09:00:00	5	Humedad	38
69197	7	Sololá	701	Sololá	3	Barraneche	12	Diciembre	2023-12-27T00:00:00	2024-11-06T09:00:00	6	Velocidad del viento	4.8
69198	7	Sololá	701	Sololá	3	Barraneche	12	Diciembre	2023-12-27T00:00:00	2024-11-06T09:00:00	7	Dirección del viento	4.83
69199	7	Sololá	701	Sololá	3	Barraneche	12	Diciembre	2023-12-27T00:00:00	2024-11-06T09:00:00	1	Precipitación	0
69200	7	Sololá	701	Sololá	3	Barraneche	12	Diciembre	2023-12-27T00:00:00	2024-11-06T09:00:00	8	Radiación solar	437
69201	7	Sololá	701	Sololá	3	Barraneche	12	Diciembre	2023-12-27T00:00:00	2024-11-06T10:00:00	2	Temperatura media	15.7
69202	7	Sololá	701	Sololá	3	Barraneche	12	Diciembre	2023-12-27T00:00:00	2024-11-06T10:00:00	4	Temperatura máxima	16.1
69203	7	Sololá	701	Sololá	3	Barraneche	12	Diciembre	2023-12-27T00:00:00	2024-11-06T10:00:00	3	Temperatura mínima	15.2
69204	7	Sololá	701	Sololá	3	Barraneche	12	Diciembre	2023-12-27T00:00:00	2024-11-06T10:00:00	5	Humedad	49
69205	7	Sololá	701	Sololá	3	Barraneche	12	Diciembre	2023-12-27T00:00:00	2024-11-06T10:00:00	6	Velocidad del viento	8
69206	7	Sololá	701	Sololá	3	Barraneche	12	Diciembre	2023-12-27T00:00:00	2024-11-06T10:00:00	7	Dirección del viento	8.05
69207	7	Sololá	701	Sololá	3	Barraneche	12	Diciembre	2023-12-27T00:00:00	2024-11-06T10:00:00	1	Precipitación	0
69208	7	Sololá	701	Sololá	3	Barraneche	12	Diciembre	2023-12-27T00:00:00	2024-11-06T10:00:00	8	Radiación solar	534
69209	7	Sololá	701	Sololá	3	Barraneche	12	Diciembre	2023-12-27T00:00:00	2024-11-06T11:00:00	2	Temperatura media	15.2
69210	7	Sololá	701	Sololá	3	Barraneche	12	Diciembre	2023-12-27T00:00:00	2024-11-06T11:00:00	4	Temperatura máxima	16.2
69211	7	Sololá	701	Sololá	3	Barraneche	12	Diciembre	2023-12-27T00:00:00	2024-11-06T11:00:00	3	Temperatura mínima	15.1
69212	7	Sololá	701	Sololá	3	Barraneche	12	Diciembre	2023-12-27T00:00:00	2024-11-06T11:00:00	5	Humedad	53
69213	7	Sololá	701	Sololá	3	Barraneche	12	Diciembre	2023-12-27T00:00:00	2024-11-06T11:00:00	6	Velocidad del viento	9.7
69214	7	Sololá	701	Sololá	3	Barraneche	12	Diciembre	2023-12-27T00:00:00	2024-11-06T11:00:00	7	Dirección del viento	9.66
69215	7	Sololá	701	Sololá	3	Barraneche	12	Diciembre	2023-12-27T00:00:00	2024-11-06T11:00:00	1	Precipitación	0
69216	7	Sololá	701	Sololá	3	Barraneche	12	Diciembre	2023-12-27T00:00:00	2024-11-06T11:00:00	8	Radiación solar	508
69217	7	Sololá	701	Sololá	3	Barraneche	12	Diciembre	2023-12-27T00:00:00	2024-11-06T12:00:00	2	Temperatura media	17.3
69218	7	Sololá	701	Sololá	3	Barraneche	12	Diciembre	2023-12-27T00:00:00	2024-11-06T12:00:00	4	Temperatura máxima	17.4
69219	7	Sololá	701	Sololá	3	Barraneche	12	Diciembre	2023-12-27T00:00:00	2024-11-06T12:00:00	3	Temperatura mínima	15.2
69220	7	Sololá	701	Sololá	3	Barraneche	12	Diciembre	2023-12-27T00:00:00	2024-11-06T12:00:00	5	Humedad	47
69221	7	Sololá	701	Sololá	3	Barraneche	12	Diciembre	2023-12-27T00:00:00	2024-11-06T12:00:00	6	Velocidad del viento	8
69222	7	Sololá	701	Sololá	3	Barraneche	12	Diciembre	2023-12-27T00:00:00	2024-11-06T12:00:00	7	Dirección del viento	8.05
69223	7	Sololá	701	Sololá	3	Barraneche	12	Diciembre	2023-12-27T00:00:00	2024-11-06T12:00:00	1	Precipitación	0
69224	7	Sololá	701	Sololá	3	Barraneche	12	Diciembre	2023-12-27T00:00:00	2024-11-06T12:00:00	8	Radiación solar	858
69225	7	Sololá	701	Sololá	3	Barraneche	12	Diciembre	2023-12-27T00:00:00	2024-11-06T13:00:00	2	Temperatura media	17.1
69226	7	Sololá	701	Sololá	3	Barraneche	12	Diciembre	2023-12-27T00:00:00	2024-11-06T13:00:00	4	Temperatura máxima	17.3
69227	7	Sololá	701	Sololá	3	Barraneche	12	Diciembre	2023-12-27T00:00:00	2024-11-06T13:00:00	3	Temperatura mínima	16.6
69228	7	Sololá	701	Sololá	3	Barraneche	12	Diciembre	2023-12-27T00:00:00	2024-11-06T13:00:00	5	Humedad	50
69229	7	Sololá	701	Sololá	3	Barraneche	12	Diciembre	2023-12-27T00:00:00	2024-11-06T13:00:00	6	Velocidad del viento	12.9
69230	7	Sololá	701	Sololá	3	Barraneche	12	Diciembre	2023-12-27T00:00:00	2024-11-06T13:00:00	7	Dirección del viento	12.87
69231	7	Sololá	701	Sololá	3	Barraneche	12	Diciembre	2023-12-27T00:00:00	2024-11-06T13:00:00	1	Precipitación	0
69232	7	Sololá	701	Sololá	3	Barraneche	12	Diciembre	2023-12-27T00:00:00	2024-11-06T13:00:00	8	Radiación solar	816
69233	7	Sololá	701	Sololá	3	Barraneche	12	Diciembre	2023-12-27T00:00:00	2024-11-06T14:00:00	2	Temperatura media	17.3
69234	7	Sololá	701	Sololá	3	Barraneche	12	Diciembre	2023-12-27T00:00:00	2024-11-06T14:00:00	4	Temperatura máxima	17.4
69235	7	Sololá	701	Sololá	3	Barraneche	12	Diciembre	2023-12-27T00:00:00	2024-11-06T14:00:00	3	Temperatura mínima	17
69236	7	Sololá	701	Sololá	3	Barraneche	12	Diciembre	2023-12-27T00:00:00	2024-11-06T14:00:00	5	Humedad	52
69237	7	Sololá	701	Sololá	3	Barraneche	12	Diciembre	2023-12-27T00:00:00	2024-11-06T14:00:00	6	Velocidad del viento	12.9
69238	7	Sololá	701	Sololá	3	Barraneche	12	Diciembre	2023-12-27T00:00:00	2024-11-06T14:00:00	7	Dirección del viento	12.87
69239	7	Sololá	701	Sololá	3	Barraneche	12	Diciembre	2023-12-27T00:00:00	2024-11-06T14:00:00	1	Precipitación	0
69240	7	Sololá	701	Sololá	3	Barraneche	12	Diciembre	2023-12-27T00:00:00	2024-11-06T14:00:00	8	Radiación solar	770
69241	7	Sololá	701	Sololá	3	Barraneche	12	Diciembre	2023-12-27T00:00:00	2024-11-06T15:00:00	2	Temperatura media	16.6
69242	7	Sololá	701	Sololá	3	Barraneche	12	Diciembre	2023-12-27T00:00:00	2024-11-06T15:00:00	4	Temperatura máxima	18.1
69243	7	Sololá	701	Sololá	3	Barraneche	12	Diciembre	2023-12-27T00:00:00	2024-11-06T15:00:00	3	Temperatura mínima	16.5
69244	7	Sololá	701	Sololá	3	Barraneche	12	Diciembre	2023-12-27T00:00:00	2024-11-06T15:00:00	5	Humedad	59
69245	7	Sololá	701	Sololá	3	Barraneche	12	Diciembre	2023-12-27T00:00:00	2024-11-06T15:00:00	6	Velocidad del viento	14.5
69246	7	Sololá	701	Sololá	3	Barraneche	12	Diciembre	2023-12-27T00:00:00	2024-11-06T15:00:00	7	Dirección del viento	14.48
69247	7	Sololá	701	Sololá	3	Barraneche	12	Diciembre	2023-12-27T00:00:00	2024-11-06T15:00:00	1	Precipitación	0
69248	7	Sololá	701	Sololá	3	Barraneche	12	Diciembre	2023-12-27T00:00:00	2024-11-06T15:00:00	8	Radiación solar	638
69249	7	Sololá	701	Sololá	3	Barraneche	12	Diciembre	2023-12-27T00:00:00	2024-11-06T16:00:00	2	Temperatura media	15.3
69250	7	Sololá	701	Sololá	3	Barraneche	12	Diciembre	2023-12-27T00:00:00	2024-11-06T16:00:00	4	Temperatura máxima	16.7
69251	7	Sololá	701	Sololá	3	Barraneche	12	Diciembre	2023-12-27T00:00:00	2024-11-06T16:00:00	3	Temperatura mínima	15.3
69252	7	Sololá	701	Sololá	3	Barraneche	12	Diciembre	2023-12-27T00:00:00	2024-11-06T16:00:00	5	Humedad	63
69253	7	Sololá	701	Sololá	3	Barraneche	12	Diciembre	2023-12-27T00:00:00	2024-11-06T16:00:00	6	Velocidad del viento	11.3
69254	7	Sololá	701	Sololá	3	Barraneche	12	Diciembre	2023-12-27T00:00:00	2024-11-06T16:00:00	7	Dirección del viento	11.27
69255	7	Sololá	701	Sololá	3	Barraneche	12	Diciembre	2023-12-27T00:00:00	2024-11-06T16:00:00	1	Precipitación	0
69256	7	Sololá	701	Sololá	3	Barraneche	12	Diciembre	2023-12-27T00:00:00	2024-11-06T16:00:00	8	Radiación solar	379
69257	7	Sololá	701	Sololá	3	Barraneche	12	Diciembre	2023-12-27T00:00:00	2024-11-06T17:00:00	2	Temperatura media	14.2
69258	7	Sololá	701	Sololá	3	Barraneche	12	Diciembre	2023-12-27T00:00:00	2024-11-06T17:00:00	4	Temperatura máxima	15.3
69259	7	Sololá	701	Sololá	3	Barraneche	12	Diciembre	2023-12-27T00:00:00	2024-11-06T17:00:00	3	Temperatura mínima	14.2
69260	7	Sololá	701	Sololá	3	Barraneche	12	Diciembre	2023-12-27T00:00:00	2024-11-06T17:00:00	5	Humedad	68
69261	7	Sololá	701	Sololá	3	Barraneche	12	Diciembre	2023-12-27T00:00:00	2024-11-06T17:00:00	6	Velocidad del viento	8
69262	7	Sololá	701	Sololá	3	Barraneche	12	Diciembre	2023-12-27T00:00:00	2024-11-06T17:00:00	7	Dirección del viento	8.05
69263	7	Sololá	701	Sololá	3	Barraneche	12	Diciembre	2023-12-27T00:00:00	2024-11-06T17:00:00	1	Precipitación	0
69264	7	Sololá	701	Sololá	3	Barraneche	12	Diciembre	2023-12-27T00:00:00	2024-11-06T17:00:00	8	Radiación solar	158
69265	7	Sololá	701	Sololá	3	Barraneche	12	Diciembre	2023-12-27T00:00:00	2024-11-06T18:00:00	2	Temperatura media	13.2
69266	7	Sololá	701	Sololá	3	Barraneche	12	Diciembre	2023-12-27T00:00:00	2024-11-06T18:00:00	4	Temperatura máxima	14.3
69267	7	Sololá	701	Sololá	3	Barraneche	12	Diciembre	2023-12-27T00:00:00	2024-11-06T18:00:00	3	Temperatura mínima	13.2
69268	7	Sololá	701	Sololá	3	Barraneche	12	Diciembre	2023-12-27T00:00:00	2024-11-06T18:00:00	5	Humedad	72
69269	7	Sololá	701	Sololá	3	Barraneche	12	Diciembre	2023-12-27T00:00:00	2024-11-06T18:00:00	6	Velocidad del viento	4.8
69270	7	Sololá	701	Sololá	3	Barraneche	12	Diciembre	2023-12-27T00:00:00	2024-11-06T18:00:00	7	Dirección del viento	4.83
69271	7	Sololá	701	Sololá	3	Barraneche	12	Diciembre	2023-12-27T00:00:00	2024-11-06T18:00:00	1	Precipitación	0
69272	7	Sololá	701	Sololá	3	Barraneche	12	Diciembre	2023-12-27T00:00:00	2024-11-06T18:00:00	8	Radiación solar	33
69273	7	Sololá	701	Sololá	3	Barraneche	12	Diciembre	2023-12-27T00:00:00	2024-11-06T19:00:00	2	Temperatura media	12.9
69274	7	Sololá	701	Sololá	3	Barraneche	12	Diciembre	2023-12-27T00:00:00	2024-11-06T19:00:00	4	Temperatura máxima	13.2
69275	7	Sololá	701	Sololá	3	Barraneche	12	Diciembre	2023-12-27T00:00:00	2024-11-06T19:00:00	3	Temperatura mínima	12.8
69276	7	Sololá	701	Sololá	3	Barraneche	12	Diciembre	2023-12-27T00:00:00	2024-11-06T19:00:00	5	Humedad	74
69277	7	Sololá	701	Sololá	3	Barraneche	12	Diciembre	2023-12-27T00:00:00	2024-11-06T19:00:00	6	Velocidad del viento	3.2
69278	7	Sololá	701	Sololá	3	Barraneche	12	Diciembre	2023-12-27T00:00:00	2024-11-06T19:00:00	7	Dirección del viento	3.22
69279	7	Sololá	701	Sololá	3	Barraneche	12	Diciembre	2023-12-27T00:00:00	2024-11-06T19:00:00	1	Precipitación	0
69280	7	Sololá	701	Sololá	3	Barraneche	12	Diciembre	2023-12-27T00:00:00	2024-11-06T19:00:00	8	Radiación solar	0
69281	7	Sololá	701	Sololá	3	Barraneche	12	Diciembre	2023-12-27T00:00:00	2024-11-06T20:00:00	2	Temperatura media	10.5
69282	7	Sololá	701	Sololá	3	Barraneche	12	Diciembre	2023-12-27T00:00:00	2024-11-06T20:00:00	4	Temperatura máxima	13
69283	7	Sololá	701	Sololá	3	Barraneche	12	Diciembre	2023-12-27T00:00:00	2024-11-06T20:00:00	3	Temperatura mínima	10.5
69284	7	Sololá	701	Sololá	3	Barraneche	12	Diciembre	2023-12-27T00:00:00	2024-11-06T20:00:00	5	Humedad	67
69285	7	Sololá	701	Sololá	3	Barraneche	12	Diciembre	2023-12-27T00:00:00	2024-11-06T20:00:00	6	Velocidad del viento	4.8
69286	7	Sololá	701	Sololá	3	Barraneche	12	Diciembre	2023-12-27T00:00:00	2024-11-06T20:00:00	7	Dirección del viento	4.83
69287	7	Sololá	701	Sololá	3	Barraneche	12	Diciembre	2023-12-27T00:00:00	2024-11-06T20:00:00	1	Precipitación	0
69288	7	Sololá	701	Sololá	3	Barraneche	12	Diciembre	2023-12-27T00:00:00	2024-11-06T20:00:00	8	Radiación solar	0
69289	7	Sololá	701	Sololá	3	Barraneche	12	Diciembre	2023-12-27T00:00:00	2024-11-06T21:00:00	2	Temperatura media	9.8
69290	7	Sololá	701	Sololá	3	Barraneche	12	Diciembre	2023-12-27T00:00:00	2024-11-06T21:00:00	4	Temperatura máxima	10.5
69291	7	Sololá	701	Sololá	3	Barraneche	12	Diciembre	2023-12-27T00:00:00	2024-11-06T21:00:00	3	Temperatura mínima	9.8
69292	7	Sololá	701	Sololá	3	Barraneche	12	Diciembre	2023-12-27T00:00:00	2024-11-06T21:00:00	5	Humedad	67
69293	7	Sololá	701	Sololá	3	Barraneche	12	Diciembre	2023-12-27T00:00:00	2024-11-06T21:00:00	6	Velocidad del viento	6.4
69294	7	Sololá	701	Sololá	3	Barraneche	12	Diciembre	2023-12-27T00:00:00	2024-11-06T21:00:00	7	Dirección del viento	6.44
69295	7	Sololá	701	Sololá	3	Barraneche	12	Diciembre	2023-12-27T00:00:00	2024-11-06T21:00:00	1	Precipitación	0
69296	7	Sololá	701	Sololá	3	Barraneche	12	Diciembre	2023-12-27T00:00:00	2024-11-06T21:00:00	8	Radiación solar	0
69297	7	Sololá	701	Sololá	3	Barraneche	12	Diciembre	2023-12-27T00:00:00	2024-11-06T22:00:00	2	Temperatura media	9.3
69298	7	Sololá	701	Sololá	3	Barraneche	12	Diciembre	2023-12-27T00:00:00	2024-11-06T22:00:00	4	Temperatura máxima	9.8
69299	7	Sololá	701	Sololá	3	Barraneche	12	Diciembre	2023-12-27T00:00:00	2024-11-06T22:00:00	3	Temperatura mínima	9.3
69300	7	Sololá	701	Sololá	3	Barraneche	12	Diciembre	2023-12-27T00:00:00	2024-11-06T22:00:00	5	Humedad	69
69301	7	Sololá	701	Sololá	3	Barraneche	12	Diciembre	2023-12-27T00:00:00	2024-11-06T22:00:00	6	Velocidad del viento	6.4
69302	7	Sololá	701	Sololá	3	Barraneche	12	Diciembre	2023-12-27T00:00:00	2024-11-06T22:00:00	7	Dirección del viento	6.44
69303	7	Sololá	701	Sololá	3	Barraneche	12	Diciembre	2023-12-27T00:00:00	2024-11-06T22:00:00	1	Precipitación	0
69304	7	Sololá	701	Sololá	3	Barraneche	12	Diciembre	2023-12-27T00:00:00	2024-11-06T22:00:00	8	Radiación solar	0
69305	7	Sololá	701	Sololá	3	Barraneche	12	Diciembre	2023-12-27T00:00:00	2024-11-06T23:00:00	2	Temperatura media	9.6
69306	7	Sololá	701	Sololá	3	Barraneche	12	Diciembre	2023-12-27T00:00:00	2024-11-06T23:00:00	4	Temperatura máxima	10
69307	7	Sololá	701	Sololá	3	Barraneche	12	Diciembre	2023-12-27T00:00:00	2024-11-06T23:00:00	3	Temperatura mínima	9.2
69308	7	Sololá	701	Sololá	3	Barraneche	12	Diciembre	2023-12-27T00:00:00	2024-11-06T23:00:00	5	Humedad	67
69309	7	Sololá	701	Sololá	3	Barraneche	12	Diciembre	2023-12-27T00:00:00	2024-11-06T23:00:00	6	Velocidad del viento	6.4
69310	7	Sololá	701	Sololá	3	Barraneche	12	Diciembre	2023-12-27T00:00:00	2024-11-06T23:00:00	7	Dirección del viento	6.44
69311	7	Sololá	701	Sololá	3	Barraneche	12	Diciembre	2023-12-27T00:00:00	2024-11-06T23:00:00	1	Precipitación	0
69312	7	Sololá	701	Sololá	3	Barraneche	12	Diciembre	2023-12-27T00:00:00	2024-11-06T23:00:00	8	Radiación solar	0
69313	7	Sololá	701	Sololá	3	Barraneche	12	Diciembre	2023-12-28T00:00:00	2024-11-06T00:00:00	2	Temperatura media	9.1
69314	7	Sololá	701	Sololá	3	Barraneche	12	Diciembre	2023-12-28T00:00:00	2024-11-06T00:00:00	4	Temperatura máxima	9.7
69315	7	Sololá	701	Sololá	3	Barraneche	12	Diciembre	2023-12-28T00:00:00	2024-11-06T00:00:00	3	Temperatura mínima	9.1
69316	7	Sololá	701	Sololá	3	Barraneche	12	Diciembre	2023-12-28T00:00:00	2024-11-06T00:00:00	5	Humedad	65
69317	7	Sololá	701	Sololá	3	Barraneche	12	Diciembre	2023-12-28T00:00:00	2024-11-06T00:00:00	6	Velocidad del viento	6.4
69318	7	Sololá	701	Sololá	3	Barraneche	12	Diciembre	2023-12-28T00:00:00	2024-11-06T00:00:00	7	Dirección del viento	6.44
69319	7	Sololá	701	Sololá	3	Barraneche	12	Diciembre	2023-12-28T00:00:00	2024-11-06T00:00:00	1	Precipitación	0
69320	7	Sololá	701	Sololá	3	Barraneche	12	Diciembre	2023-12-28T00:00:00	2024-11-06T00:00:00	8	Radiación solar	0
69321	7	Sololá	701	Sololá	3	Barraneche	12	Diciembre	2023-12-28T00:00:00	2024-11-06T01:00:00	2	Temperatura media	8.8
69322	7	Sololá	701	Sololá	3	Barraneche	12	Diciembre	2023-12-28T00:00:00	2024-11-06T01:00:00	4	Temperatura máxima	9.6
69323	7	Sololá	701	Sololá	3	Barraneche	12	Diciembre	2023-12-28T00:00:00	2024-11-06T01:00:00	3	Temperatura mínima	8.8
69324	7	Sololá	701	Sololá	3	Barraneche	12	Diciembre	2023-12-28T00:00:00	2024-11-06T01:00:00	5	Humedad	56
69325	7	Sololá	701	Sololá	3	Barraneche	12	Diciembre	2023-12-28T00:00:00	2024-11-06T01:00:00	6	Velocidad del viento	8
69326	7	Sololá	701	Sololá	3	Barraneche	12	Diciembre	2023-12-28T00:00:00	2024-11-06T01:00:00	7	Dirección del viento	8.05
69327	7	Sololá	701	Sololá	3	Barraneche	12	Diciembre	2023-12-28T00:00:00	2024-11-06T01:00:00	1	Precipitación	0
69328	7	Sololá	701	Sololá	3	Barraneche	12	Diciembre	2023-12-28T00:00:00	2024-11-06T01:00:00	8	Radiación solar	0
69329	7	Sololá	701	Sololá	3	Barraneche	12	Diciembre	2023-12-28T00:00:00	2024-11-06T02:00:00	2	Temperatura media	8.6
69330	7	Sololá	701	Sololá	3	Barraneche	12	Diciembre	2023-12-28T00:00:00	2024-11-06T02:00:00	4	Temperatura máxima	8.9
69331	7	Sololá	701	Sololá	3	Barraneche	12	Diciembre	2023-12-28T00:00:00	2024-11-06T02:00:00	3	Temperatura mínima	8.5
69332	7	Sololá	701	Sololá	3	Barraneche	12	Diciembre	2023-12-28T00:00:00	2024-11-06T02:00:00	5	Humedad	50
69333	7	Sololá	701	Sololá	3	Barraneche	12	Diciembre	2023-12-28T00:00:00	2024-11-06T02:00:00	6	Velocidad del viento	9.7
69334	7	Sololá	701	Sololá	3	Barraneche	12	Diciembre	2023-12-28T00:00:00	2024-11-06T02:00:00	7	Dirección del viento	9.66
69335	7	Sololá	701	Sololá	3	Barraneche	12	Diciembre	2023-12-28T00:00:00	2024-11-06T02:00:00	1	Precipitación	0
69336	7	Sololá	701	Sololá	3	Barraneche	12	Diciembre	2023-12-28T00:00:00	2024-11-06T02:00:00	8	Radiación solar	0
69337	7	Sololá	701	Sololá	3	Barraneche	12	Diciembre	2023-12-28T00:00:00	2024-11-06T03:00:00	2	Temperatura media	8.7
69338	7	Sololá	701	Sololá	3	Barraneche	12	Diciembre	2023-12-28T00:00:00	2024-11-06T03:00:00	4	Temperatura máxima	8.7
69339	7	Sololá	701	Sololá	3	Barraneche	12	Diciembre	2023-12-28T00:00:00	2024-11-06T03:00:00	3	Temperatura mínima	8
69340	7	Sololá	701	Sololá	3	Barraneche	12	Diciembre	2023-12-28T00:00:00	2024-11-06T03:00:00	5	Humedad	47
69341	7	Sololá	701	Sololá	3	Barraneche	12	Diciembre	2023-12-28T00:00:00	2024-11-06T03:00:00	6	Velocidad del viento	11.3
69342	7	Sololá	701	Sololá	3	Barraneche	12	Diciembre	2023-12-28T00:00:00	2024-11-06T03:00:00	7	Dirección del viento	11.27
69343	7	Sololá	701	Sololá	3	Barraneche	12	Diciembre	2023-12-28T00:00:00	2024-11-06T03:00:00	1	Precipitación	0
69344	7	Sololá	701	Sololá	3	Barraneche	12	Diciembre	2023-12-28T00:00:00	2024-11-06T03:00:00	8	Radiación solar	0
69345	7	Sololá	701	Sololá	3	Barraneche	12	Diciembre	2023-12-28T00:00:00	2024-11-06T04:00:00	2	Temperatura media	8.4
69346	7	Sololá	701	Sololá	3	Barraneche	12	Diciembre	2023-12-28T00:00:00	2024-11-06T04:00:00	4	Temperatura máxima	8.7
69347	7	Sololá	701	Sololá	3	Barraneche	12	Diciembre	2023-12-28T00:00:00	2024-11-06T04:00:00	3	Temperatura mínima	8.1
69348	7	Sololá	701	Sololá	3	Barraneche	12	Diciembre	2023-12-28T00:00:00	2024-11-06T04:00:00	5	Humedad	47
69349	7	Sololá	701	Sololá	3	Barraneche	12	Diciembre	2023-12-28T00:00:00	2024-11-06T04:00:00	6	Velocidad del viento	9.7
69350	7	Sololá	701	Sololá	3	Barraneche	12	Diciembre	2023-12-28T00:00:00	2024-11-06T04:00:00	7	Dirección del viento	9.66
69351	7	Sololá	701	Sololá	3	Barraneche	12	Diciembre	2023-12-28T00:00:00	2024-11-06T04:00:00	1	Precipitación	0
69352	7	Sololá	701	Sololá	3	Barraneche	12	Diciembre	2023-12-28T00:00:00	2024-11-06T04:00:00	8	Radiación solar	0
69353	7	Sololá	701	Sololá	3	Barraneche	12	Diciembre	2023-12-28T00:00:00	2024-11-06T05:00:00	2	Temperatura media	8.5
69354	7	Sololá	701	Sololá	3	Barraneche	12	Diciembre	2023-12-28T00:00:00	2024-11-06T05:00:00	4	Temperatura máxima	8.9
69355	7	Sololá	701	Sololá	3	Barraneche	12	Diciembre	2023-12-28T00:00:00	2024-11-06T05:00:00	3	Temperatura mínima	8.3
69356	7	Sololá	701	Sololá	3	Barraneche	12	Diciembre	2023-12-28T00:00:00	2024-11-06T05:00:00	5	Humedad	45
69357	7	Sololá	701	Sololá	3	Barraneche	12	Diciembre	2023-12-28T00:00:00	2024-11-06T05:00:00	6	Velocidad del viento	8
69358	7	Sololá	701	Sololá	3	Barraneche	12	Diciembre	2023-12-28T00:00:00	2024-11-06T05:00:00	7	Dirección del viento	8.05
69359	7	Sololá	701	Sololá	3	Barraneche	12	Diciembre	2023-12-28T00:00:00	2024-11-06T05:00:00	1	Precipitación	0
69360	7	Sololá	701	Sololá	3	Barraneche	12	Diciembre	2023-12-28T00:00:00	2024-11-06T05:00:00	8	Radiación solar	0
69361	7	Sololá	701	Sololá	3	Barraneche	12	Diciembre	2023-12-28T00:00:00	2024-11-06T06:00:00	2	Temperatura media	7.9
69362	7	Sololá	701	Sololá	3	Barraneche	12	Diciembre	2023-12-28T00:00:00	2024-11-06T06:00:00	4	Temperatura máxima	8.6
69363	7	Sololá	701	Sololá	3	Barraneche	12	Diciembre	2023-12-28T00:00:00	2024-11-06T06:00:00	3	Temperatura mínima	7.8
69364	7	Sololá	701	Sololá	3	Barraneche	12	Diciembre	2023-12-28T00:00:00	2024-11-06T06:00:00	5	Humedad	44
69365	7	Sololá	701	Sololá	3	Barraneche	12	Diciembre	2023-12-28T00:00:00	2024-11-06T06:00:00	6	Velocidad del viento	8
69366	7	Sololá	701	Sololá	3	Barraneche	12	Diciembre	2023-12-28T00:00:00	2024-11-06T06:00:00	7	Dirección del viento	8.05
69367	7	Sololá	701	Sololá	3	Barraneche	12	Diciembre	2023-12-28T00:00:00	2024-11-06T06:00:00	1	Precipitación	0
69368	7	Sololá	701	Sololá	3	Barraneche	12	Diciembre	2023-12-28T00:00:00	2024-11-06T06:00:00	8	Radiación solar	0
69369	7	Sololá	701	Sololá	3	Barraneche	12	Diciembre	2023-12-28T00:00:00	2024-11-06T07:00:00	2	Temperatura media	8.2
69370	7	Sololá	701	Sololá	3	Barraneche	12	Diciembre	2023-12-28T00:00:00	2024-11-06T07:00:00	4	Temperatura máxima	8.8
69371	7	Sololá	701	Sololá	3	Barraneche	12	Diciembre	2023-12-28T00:00:00	2024-11-06T07:00:00	3	Temperatura mínima	7.8
69372	7	Sololá	701	Sololá	3	Barraneche	12	Diciembre	2023-12-28T00:00:00	2024-11-06T07:00:00	5	Humedad	48
69373	7	Sololá	701	Sololá	3	Barraneche	12	Diciembre	2023-12-28T00:00:00	2024-11-06T07:00:00	6	Velocidad del viento	9.7
69374	7	Sololá	701	Sololá	3	Barraneche	12	Diciembre	2023-12-28T00:00:00	2024-11-06T07:00:00	7	Dirección del viento	9.66
69375	7	Sololá	701	Sololá	3	Barraneche	12	Diciembre	2023-12-28T00:00:00	2024-11-06T07:00:00	1	Precipitación	0
69376	7	Sololá	701	Sololá	3	Barraneche	12	Diciembre	2023-12-28T00:00:00	2024-11-06T07:00:00	8	Radiación solar	8
69377	7	Sololá	701	Sololá	3	Barraneche	12	Diciembre	2023-12-28T00:00:00	2024-11-06T08:00:00	2	Temperatura media	13.4
69378	7	Sololá	701	Sololá	3	Barraneche	12	Diciembre	2023-12-28T00:00:00	2024-11-06T08:00:00	4	Temperatura máxima	13.4
69379	7	Sololá	701	Sololá	3	Barraneche	12	Diciembre	2023-12-28T00:00:00	2024-11-06T08:00:00	3	Temperatura mínima	8.2
69380	7	Sololá	701	Sololá	3	Barraneche	12	Diciembre	2023-12-28T00:00:00	2024-11-06T08:00:00	5	Humedad	41
69381	7	Sololá	701	Sololá	3	Barraneche	12	Diciembre	2023-12-28T00:00:00	2024-11-06T08:00:00	6	Velocidad del viento	8
69382	7	Sololá	701	Sololá	3	Barraneche	12	Diciembre	2023-12-28T00:00:00	2024-11-06T08:00:00	7	Dirección del viento	8.05
69383	7	Sololá	701	Sololá	3	Barraneche	12	Diciembre	2023-12-28T00:00:00	2024-11-06T08:00:00	1	Precipitación	0
69384	7	Sololá	701	Sololá	3	Barraneche	12	Diciembre	2023-12-28T00:00:00	2024-11-06T08:00:00	8	Radiación solar	164
69385	7	Sololá	701	Sololá	3	Barraneche	12	Diciembre	2023-12-28T00:00:00	2024-11-06T09:00:00	2	Temperatura media	16.4
69386	7	Sololá	701	Sololá	3	Barraneche	12	Diciembre	2023-12-28T00:00:00	2024-11-06T09:00:00	4	Temperatura máxima	16.4
69387	7	Sololá	701	Sololá	3	Barraneche	12	Diciembre	2023-12-28T00:00:00	2024-11-06T09:00:00	3	Temperatura mínima	13.5
69388	7	Sololá	701	Sololá	3	Barraneche	12	Diciembre	2023-12-28T00:00:00	2024-11-06T09:00:00	5	Humedad	28
69389	7	Sololá	701	Sololá	3	Barraneche	12	Diciembre	2023-12-28T00:00:00	2024-11-06T09:00:00	6	Velocidad del viento	4.8
69390	7	Sololá	701	Sololá	3	Barraneche	12	Diciembre	2023-12-28T00:00:00	2024-11-06T09:00:00	7	Dirección del viento	4.83
69391	7	Sololá	701	Sololá	3	Barraneche	12	Diciembre	2023-12-28T00:00:00	2024-11-06T09:00:00	1	Precipitación	0
69392	7	Sololá	701	Sololá	3	Barraneche	12	Diciembre	2023-12-28T00:00:00	2024-11-06T09:00:00	8	Radiación solar	402
69393	7	Sololá	701	Sololá	3	Barraneche	12	Diciembre	2023-12-28T00:00:00	2024-11-06T10:00:00	2	Temperatura media	17.8
69394	7	Sololá	701	Sololá	3	Barraneche	12	Diciembre	2023-12-28T00:00:00	2024-11-06T10:00:00	4	Temperatura máxima	17.8
69395	7	Sololá	701	Sololá	3	Barraneche	12	Diciembre	2023-12-28T00:00:00	2024-11-06T10:00:00	3	Temperatura mínima	16.4
69396	7	Sololá	701	Sololá	3	Barraneche	12	Diciembre	2023-12-28T00:00:00	2024-11-06T10:00:00	5	Humedad	32
69397	7	Sololá	701	Sololá	3	Barraneche	12	Diciembre	2023-12-28T00:00:00	2024-11-06T10:00:00	6	Velocidad del viento	6.4
69398	7	Sololá	701	Sololá	3	Barraneche	12	Diciembre	2023-12-28T00:00:00	2024-11-06T10:00:00	7	Dirección del viento	6.44
69399	7	Sololá	701	Sololá	3	Barraneche	12	Diciembre	2023-12-28T00:00:00	2024-11-06T10:00:00	1	Precipitación	0
69400	7	Sololá	701	Sololá	3	Barraneche	12	Diciembre	2023-12-28T00:00:00	2024-11-06T10:00:00	8	Radiación solar	598
69401	7	Sololá	701	Sololá	3	Barraneche	12	Diciembre	2023-12-28T00:00:00	2024-11-06T11:00:00	2	Temperatura media	18.3
69402	7	Sololá	701	Sololá	3	Barraneche	12	Diciembre	2023-12-28T00:00:00	2024-11-06T11:00:00	4	Temperatura máxima	18.4
69403	7	Sololá	701	Sololá	3	Barraneche	12	Diciembre	2023-12-28T00:00:00	2024-11-06T11:00:00	3	Temperatura mínima	17.8
69404	7	Sololá	701	Sololá	3	Barraneche	12	Diciembre	2023-12-28T00:00:00	2024-11-06T11:00:00	5	Humedad	26
69405	7	Sololá	701	Sololá	3	Barraneche	12	Diciembre	2023-12-28T00:00:00	2024-11-06T11:00:00	6	Velocidad del viento	9.7
69406	7	Sololá	701	Sololá	3	Barraneche	12	Diciembre	2023-12-28T00:00:00	2024-11-06T11:00:00	7	Dirección del viento	9.66
69407	7	Sololá	701	Sololá	3	Barraneche	12	Diciembre	2023-12-28T00:00:00	2024-11-06T11:00:00	1	Precipitación	0
69408	7	Sololá	701	Sololá	3	Barraneche	12	Diciembre	2023-12-28T00:00:00	2024-11-06T11:00:00	8	Radiación solar	740
69409	7	Sololá	701	Sololá	3	Barraneche	12	Diciembre	2023-12-28T00:00:00	2024-11-06T12:00:00	2	Temperatura media	18.3
69410	7	Sololá	701	Sololá	3	Barraneche	12	Diciembre	2023-12-28T00:00:00	2024-11-06T12:00:00	4	Temperatura máxima	18.4
69411	7	Sololá	701	Sololá	3	Barraneche	12	Diciembre	2023-12-28T00:00:00	2024-11-06T12:00:00	3	Temperatura mínima	17.9
69412	7	Sololá	701	Sololá	3	Barraneche	12	Diciembre	2023-12-28T00:00:00	2024-11-06T12:00:00	5	Humedad	33
69413	7	Sololá	701	Sololá	3	Barraneche	12	Diciembre	2023-12-28T00:00:00	2024-11-06T12:00:00	6	Velocidad del viento	12.9
69414	7	Sololá	701	Sololá	3	Barraneche	12	Diciembre	2023-12-28T00:00:00	2024-11-06T12:00:00	7	Dirección del viento	12.87
69415	7	Sololá	701	Sololá	3	Barraneche	12	Diciembre	2023-12-28T00:00:00	2024-11-06T12:00:00	1	Precipitación	0
69416	7	Sololá	701	Sololá	3	Barraneche	12	Diciembre	2023-12-28T00:00:00	2024-11-06T12:00:00	8	Radiación solar	814
69417	7	Sololá	701	Sololá	3	Barraneche	12	Diciembre	2023-12-28T00:00:00	2024-11-06T13:00:00	2	Temperatura media	18.1
69418	7	Sololá	701	Sololá	3	Barraneche	12	Diciembre	2023-12-28T00:00:00	2024-11-06T13:00:00	4	Temperatura máxima	18.6
69419	7	Sololá	701	Sololá	3	Barraneche	12	Diciembre	2023-12-28T00:00:00	2024-11-06T13:00:00	3	Temperatura mínima	18.1
69420	7	Sololá	701	Sololá	3	Barraneche	12	Diciembre	2023-12-28T00:00:00	2024-11-06T13:00:00	5	Humedad	42
69421	7	Sololá	701	Sololá	3	Barraneche	12	Diciembre	2023-12-28T00:00:00	2024-11-06T13:00:00	6	Velocidad del viento	11.3
69422	7	Sololá	701	Sololá	3	Barraneche	12	Diciembre	2023-12-28T00:00:00	2024-11-06T13:00:00	7	Dirección del viento	11.27
69423	7	Sololá	701	Sololá	3	Barraneche	12	Diciembre	2023-12-28T00:00:00	2024-11-06T13:00:00	1	Precipitación	0
69424	7	Sololá	701	Sololá	3	Barraneche	12	Diciembre	2023-12-28T00:00:00	2024-11-06T13:00:00	8	Radiación solar	812
69425	7	Sololá	701	Sololá	3	Barraneche	12	Diciembre	2023-12-28T00:00:00	2024-11-06T14:00:00	2	Temperatura media	17.7
69426	7	Sololá	701	Sololá	3	Barraneche	12	Diciembre	2023-12-28T00:00:00	2024-11-06T14:00:00	4	Temperatura máxima	18.3
69427	7	Sololá	701	Sololá	3	Barraneche	12	Diciembre	2023-12-28T00:00:00	2024-11-06T14:00:00	3	Temperatura mínima	17.4
69428	7	Sololá	701	Sololá	3	Barraneche	12	Diciembre	2023-12-28T00:00:00	2024-11-06T14:00:00	5	Humedad	48
69429	7	Sololá	701	Sololá	3	Barraneche	12	Diciembre	2023-12-28T00:00:00	2024-11-06T14:00:00	6	Velocidad del viento	12.9
69430	7	Sololá	701	Sololá	3	Barraneche	12	Diciembre	2023-12-28T00:00:00	2024-11-06T14:00:00	7	Dirección del viento	12.87
69431	7	Sololá	701	Sololá	3	Barraneche	12	Diciembre	2023-12-28T00:00:00	2024-11-06T14:00:00	1	Precipitación	0
69432	7	Sololá	701	Sololá	3	Barraneche	12	Diciembre	2023-12-28T00:00:00	2024-11-06T14:00:00	8	Radiación solar	752
69433	7	Sololá	701	Sololá	3	Barraneche	12	Diciembre	2023-12-28T00:00:00	2024-11-06T15:00:00	2	Temperatura media	15.9
69434	7	Sololá	701	Sololá	3	Barraneche	12	Diciembre	2023-12-28T00:00:00	2024-11-06T15:00:00	4	Temperatura máxima	17.8
69435	7	Sololá	701	Sololá	3	Barraneche	12	Diciembre	2023-12-28T00:00:00	2024-11-06T15:00:00	3	Temperatura mínima	15.9
69436	7	Sololá	701	Sololá	3	Barraneche	12	Diciembre	2023-12-28T00:00:00	2024-11-06T15:00:00	5	Humedad	58
69437	7	Sololá	701	Sololá	3	Barraneche	12	Diciembre	2023-12-28T00:00:00	2024-11-06T15:00:00	6	Velocidad del viento	12.9
69438	7	Sololá	701	Sololá	3	Barraneche	12	Diciembre	2023-12-28T00:00:00	2024-11-06T15:00:00	7	Dirección del viento	12.87
69439	7	Sololá	701	Sololá	3	Barraneche	12	Diciembre	2023-12-28T00:00:00	2024-11-06T15:00:00	1	Precipitación	0
69440	7	Sololá	701	Sololá	3	Barraneche	12	Diciembre	2023-12-28T00:00:00	2024-11-06T15:00:00	8	Radiación solar	429
69441	7	Sololá	701	Sololá	3	Barraneche	12	Diciembre	2023-12-28T00:00:00	2024-11-06T16:00:00	2	Temperatura media	14.9
69442	7	Sololá	701	Sololá	3	Barraneche	12	Diciembre	2023-12-28T00:00:00	2024-11-06T16:00:00	4	Temperatura máxima	16
69443	7	Sololá	701	Sololá	3	Barraneche	12	Diciembre	2023-12-28T00:00:00	2024-11-06T16:00:00	3	Temperatura mínima	14.9
69444	7	Sololá	701	Sololá	3	Barraneche	12	Diciembre	2023-12-28T00:00:00	2024-11-06T16:00:00	5	Humedad	66
69445	7	Sololá	701	Sololá	3	Barraneche	12	Diciembre	2023-12-28T00:00:00	2024-11-06T16:00:00	6	Velocidad del viento	8
69446	7	Sololá	701	Sololá	3	Barraneche	12	Diciembre	2023-12-28T00:00:00	2024-11-06T16:00:00	7	Dirección del viento	8.05
69447	7	Sololá	701	Sololá	3	Barraneche	12	Diciembre	2023-12-28T00:00:00	2024-11-06T16:00:00	1	Precipitación	0
69448	7	Sololá	701	Sololá	3	Barraneche	12	Diciembre	2023-12-28T00:00:00	2024-11-06T16:00:00	8	Radiación solar	123
69449	7	Sololá	701	Sololá	3	Barraneche	12	Diciembre	2023-12-28T00:00:00	2024-11-06T17:00:00	2	Temperatura media	14.1
69450	7	Sololá	701	Sololá	3	Barraneche	12	Diciembre	2023-12-28T00:00:00	2024-11-06T17:00:00	4	Temperatura máxima	14.9
69451	7	Sololá	701	Sololá	3	Barraneche	12	Diciembre	2023-12-28T00:00:00	2024-11-06T17:00:00	3	Temperatura mínima	14.1
69452	7	Sololá	701	Sololá	3	Barraneche	12	Diciembre	2023-12-28T00:00:00	2024-11-06T17:00:00	5	Humedad	69
69453	7	Sololá	701	Sololá	3	Barraneche	12	Diciembre	2023-12-28T00:00:00	2024-11-06T17:00:00	6	Velocidad del viento	6.4
69454	7	Sololá	701	Sololá	3	Barraneche	12	Diciembre	2023-12-28T00:00:00	2024-11-06T17:00:00	7	Dirección del viento	6.44
69455	7	Sololá	701	Sololá	3	Barraneche	12	Diciembre	2023-12-28T00:00:00	2024-11-06T17:00:00	1	Precipitación	0
69456	7	Sololá	701	Sololá	3	Barraneche	12	Diciembre	2023-12-28T00:00:00	2024-11-06T17:00:00	8	Radiación solar	74
69457	7	Sololá	701	Sololá	3	Barraneche	12	Diciembre	2023-12-28T00:00:00	2024-11-06T18:00:00	2	Temperatura media	13.6
69458	7	Sololá	701	Sololá	3	Barraneche	12	Diciembre	2023-12-28T00:00:00	2024-11-06T18:00:00	4	Temperatura máxima	14.2
69459	7	Sololá	701	Sololá	3	Barraneche	12	Diciembre	2023-12-28T00:00:00	2024-11-06T18:00:00	3	Temperatura mínima	13.6
69460	7	Sololá	701	Sololá	3	Barraneche	12	Diciembre	2023-12-28T00:00:00	2024-11-06T18:00:00	5	Humedad	70
69461	7	Sololá	701	Sololá	3	Barraneche	12	Diciembre	2023-12-28T00:00:00	2024-11-06T18:00:00	6	Velocidad del viento	3.2
69462	7	Sololá	701	Sololá	3	Barraneche	12	Diciembre	2023-12-28T00:00:00	2024-11-06T18:00:00	7	Dirección del viento	3.22
69463	7	Sololá	701	Sololá	3	Barraneche	12	Diciembre	2023-12-28T00:00:00	2024-11-06T18:00:00	1	Precipitación	0
69464	7	Sololá	701	Sololá	3	Barraneche	12	Diciembre	2023-12-28T00:00:00	2024-11-06T18:00:00	8	Radiación solar	10
69465	7	Sololá	701	Sololá	3	Barraneche	12	Diciembre	2023-12-28T00:00:00	2024-11-06T19:00:00	2	Temperatura media	12.4
69466	7	Sololá	701	Sololá	3	Barraneche	12	Diciembre	2023-12-28T00:00:00	2024-11-06T19:00:00	4	Temperatura máxima	13.6
69467	7	Sololá	701	Sololá	3	Barraneche	12	Diciembre	2023-12-28T00:00:00	2024-11-06T19:00:00	3	Temperatura mínima	12.3
69468	7	Sololá	701	Sololá	3	Barraneche	12	Diciembre	2023-12-28T00:00:00	2024-11-06T19:00:00	5	Humedad	69
69469	7	Sololá	701	Sololá	3	Barraneche	12	Diciembre	2023-12-28T00:00:00	2024-11-06T19:00:00	6	Velocidad del viento	3.2
69470	7	Sololá	701	Sololá	3	Barraneche	12	Diciembre	2023-12-28T00:00:00	2024-11-06T19:00:00	7	Dirección del viento	3.22
69471	7	Sololá	701	Sololá	3	Barraneche	12	Diciembre	2023-12-28T00:00:00	2024-11-06T19:00:00	1	Precipitación	0
69472	7	Sololá	701	Sololá	3	Barraneche	12	Diciembre	2023-12-28T00:00:00	2024-11-06T19:00:00	8	Radiación solar	0
69473	7	Sololá	701	Sololá	3	Barraneche	12	Diciembre	2023-12-28T00:00:00	2024-11-06T20:00:00	2	Temperatura media	12.1
69474	7	Sololá	701	Sololá	3	Barraneche	12	Diciembre	2023-12-28T00:00:00	2024-11-06T20:00:00	4	Temperatura máxima	12.7
69475	7	Sololá	701	Sololá	3	Barraneche	12	Diciembre	2023-12-28T00:00:00	2024-11-06T20:00:00	3	Temperatura mínima	12.1
69476	7	Sololá	701	Sololá	3	Barraneche	12	Diciembre	2023-12-28T00:00:00	2024-11-06T20:00:00	5	Humedad	63
69477	7	Sololá	701	Sololá	3	Barraneche	12	Diciembre	2023-12-28T00:00:00	2024-11-06T20:00:00	6	Velocidad del viento	4.8
69478	7	Sololá	701	Sololá	3	Barraneche	12	Diciembre	2023-12-28T00:00:00	2024-11-06T20:00:00	7	Dirección del viento	4.83
69479	7	Sololá	701	Sololá	3	Barraneche	12	Diciembre	2023-12-28T00:00:00	2024-11-06T20:00:00	1	Precipitación	0
69480	7	Sololá	701	Sololá	3	Barraneche	12	Diciembre	2023-12-28T00:00:00	2024-11-06T20:00:00	8	Radiación solar	0
69481	7	Sololá	701	Sololá	3	Barraneche	12	Diciembre	2023-12-28T00:00:00	2024-11-06T21:00:00	2	Temperatura media	11.6
69482	7	Sololá	701	Sololá	3	Barraneche	12	Diciembre	2023-12-28T00:00:00	2024-11-06T21:00:00	4	Temperatura máxima	12.9
69483	7	Sololá	701	Sololá	3	Barraneche	12	Diciembre	2023-12-28T00:00:00	2024-11-06T21:00:00	3	Temperatura mínima	11.6
69484	7	Sololá	701	Sololá	3	Barraneche	12	Diciembre	2023-12-28T00:00:00	2024-11-06T21:00:00	5	Humedad	65
69485	7	Sololá	701	Sololá	3	Barraneche	12	Diciembre	2023-12-28T00:00:00	2024-11-06T21:00:00	6	Velocidad del viento	6.4
69486	7	Sololá	701	Sololá	3	Barraneche	12	Diciembre	2023-12-28T00:00:00	2024-11-06T21:00:00	7	Dirección del viento	6.44
69487	7	Sololá	701	Sololá	3	Barraneche	12	Diciembre	2023-12-28T00:00:00	2024-11-06T21:00:00	1	Precipitación	0
69488	7	Sololá	701	Sololá	3	Barraneche	12	Diciembre	2023-12-28T00:00:00	2024-11-06T21:00:00	8	Radiación solar	0
69489	7	Sololá	701	Sololá	3	Barraneche	12	Diciembre	2023-12-28T00:00:00	2024-11-06T22:00:00	2	Temperatura media	11.8
69490	7	Sololá	701	Sololá	3	Barraneche	12	Diciembre	2023-12-28T00:00:00	2024-11-06T22:00:00	4	Temperatura máxima	11.9
69491	7	Sololá	701	Sololá	3	Barraneche	12	Diciembre	2023-12-28T00:00:00	2024-11-06T22:00:00	3	Temperatura mínima	11.4
69492	7	Sololá	701	Sololá	3	Barraneche	12	Diciembre	2023-12-28T00:00:00	2024-11-06T22:00:00	5	Humedad	66
69493	7	Sololá	701	Sololá	3	Barraneche	12	Diciembre	2023-12-28T00:00:00	2024-11-06T22:00:00	6	Velocidad del viento	4.8
69494	7	Sololá	701	Sololá	3	Barraneche	12	Diciembre	2023-12-28T00:00:00	2024-11-06T22:00:00	7	Dirección del viento	4.83
69495	7	Sololá	701	Sololá	3	Barraneche	12	Diciembre	2023-12-28T00:00:00	2024-11-06T22:00:00	1	Precipitación	0
69496	7	Sololá	701	Sololá	3	Barraneche	12	Diciembre	2023-12-28T00:00:00	2024-11-06T22:00:00	8	Radiación solar	0
69497	7	Sololá	701	Sololá	3	Barraneche	12	Diciembre	2023-12-28T00:00:00	2024-11-06T23:00:00	2	Temperatura media	11.2
69498	7	Sololá	701	Sololá	3	Barraneche	12	Diciembre	2023-12-28T00:00:00	2024-11-06T23:00:00	4	Temperatura máxima	11.9
69499	7	Sololá	701	Sololá	3	Barraneche	12	Diciembre	2023-12-28T00:00:00	2024-11-06T23:00:00	3	Temperatura mínima	11.2
69500	7	Sololá	701	Sololá	3	Barraneche	12	Diciembre	2023-12-28T00:00:00	2024-11-06T23:00:00	5	Humedad	68
69501	7	Sololá	701	Sololá	3	Barraneche	12	Diciembre	2023-12-28T00:00:00	2024-11-06T23:00:00	6	Velocidad del viento	3.2
69502	7	Sololá	701	Sololá	3	Barraneche	12	Diciembre	2023-12-28T00:00:00	2024-11-06T23:00:00	7	Dirección del viento	3.22
69503	7	Sololá	701	Sololá	3	Barraneche	12	Diciembre	2023-12-28T00:00:00	2024-11-06T23:00:00	1	Precipitación	0
69504	7	Sololá	701	Sololá	3	Barraneche	12	Diciembre	2023-12-28T00:00:00	2024-11-06T23:00:00	8	Radiación solar	0
69505	7	Sololá	701	Sololá	3	Barraneche	12	Diciembre	2023-12-29T00:00:00	2024-11-06T00:00:00	2	Temperatura media	11.6
69506	7	Sololá	701	Sololá	3	Barraneche	12	Diciembre	2023-12-29T00:00:00	2024-11-06T00:00:00	4	Temperatura máxima	11.6
69507	7	Sololá	701	Sololá	3	Barraneche	12	Diciembre	2023-12-29T00:00:00	2024-11-06T00:00:00	3	Temperatura mínima	10.9
69508	7	Sololá	701	Sololá	3	Barraneche	12	Diciembre	2023-12-29T00:00:00	2024-11-06T00:00:00	5	Humedad	68
69509	7	Sololá	701	Sololá	3	Barraneche	12	Diciembre	2023-12-29T00:00:00	2024-11-06T00:00:00	6	Velocidad del viento	4.8
69510	7	Sololá	701	Sololá	3	Barraneche	12	Diciembre	2023-12-29T00:00:00	2024-11-06T00:00:00	7	Dirección del viento	4.83
69511	7	Sololá	701	Sololá	3	Barraneche	12	Diciembre	2023-12-29T00:00:00	2024-11-06T00:00:00	1	Precipitación	0
69512	7	Sololá	701	Sololá	3	Barraneche	12	Diciembre	2023-12-29T00:00:00	2024-11-06T00:00:00	8	Radiación solar	0
69513	7	Sololá	701	Sololá	3	Barraneche	12	Diciembre	2023-12-29T00:00:00	2024-11-06T01:00:00	2	Temperatura media	11.6
69514	7	Sololá	701	Sololá	3	Barraneche	12	Diciembre	2023-12-29T00:00:00	2024-11-06T01:00:00	4	Temperatura máxima	11.8
69515	7	Sololá	701	Sololá	3	Barraneche	12	Diciembre	2023-12-29T00:00:00	2024-11-06T01:00:00	3	Temperatura mínima	11.4
69516	7	Sololá	701	Sololá	3	Barraneche	12	Diciembre	2023-12-29T00:00:00	2024-11-06T01:00:00	5	Humedad	69
69517	7	Sololá	701	Sololá	3	Barraneche	12	Diciembre	2023-12-29T00:00:00	2024-11-06T01:00:00	6	Velocidad del viento	3.2
69518	7	Sololá	701	Sololá	3	Barraneche	12	Diciembre	2023-12-29T00:00:00	2024-11-06T01:00:00	7	Dirección del viento	3.22
69519	7	Sololá	701	Sololá	3	Barraneche	12	Diciembre	2023-12-29T00:00:00	2024-11-06T01:00:00	1	Precipitación	0
69520	7	Sololá	701	Sololá	3	Barraneche	12	Diciembre	2023-12-29T00:00:00	2024-11-06T01:00:00	8	Radiación solar	0
69521	7	Sololá	701	Sololá	3	Barraneche	12	Diciembre	2023-12-29T00:00:00	2024-11-06T02:00:00	2	Temperatura media	11.2
69522	7	Sololá	701	Sololá	3	Barraneche	12	Diciembre	2023-12-29T00:00:00	2024-11-06T02:00:00	4	Temperatura máxima	12.2
69523	7	Sololá	701	Sololá	3	Barraneche	12	Diciembre	2023-12-29T00:00:00	2024-11-06T02:00:00	3	Temperatura mínima	11.2
69524	7	Sololá	701	Sololá	3	Barraneche	12	Diciembre	2023-12-29T00:00:00	2024-11-06T02:00:00	5	Humedad	68
69525	7	Sololá	701	Sololá	3	Barraneche	12	Diciembre	2023-12-29T00:00:00	2024-11-06T02:00:00	6	Velocidad del viento	3.2
69526	7	Sololá	701	Sololá	3	Barraneche	12	Diciembre	2023-12-29T00:00:00	2024-11-06T02:00:00	7	Dirección del viento	3.22
69527	7	Sololá	701	Sololá	3	Barraneche	12	Diciembre	2023-12-29T00:00:00	2024-11-06T02:00:00	1	Precipitación	0
69528	7	Sololá	701	Sololá	3	Barraneche	12	Diciembre	2023-12-29T00:00:00	2024-11-06T02:00:00	8	Radiación solar	0
69529	7	Sololá	701	Sololá	3	Barraneche	12	Diciembre	2023-12-29T00:00:00	2024-11-06T03:00:00	2	Temperatura media	10.2
69530	7	Sololá	701	Sololá	3	Barraneche	12	Diciembre	2023-12-29T00:00:00	2024-11-06T03:00:00	4	Temperatura máxima	11.2
69531	7	Sololá	701	Sololá	3	Barraneche	12	Diciembre	2023-12-29T00:00:00	2024-11-06T03:00:00	3	Temperatura mínima	10.2
69532	7	Sololá	701	Sololá	3	Barraneche	12	Diciembre	2023-12-29T00:00:00	2024-11-06T03:00:00	5	Humedad	69
69533	7	Sololá	701	Sololá	3	Barraneche	12	Diciembre	2023-12-29T00:00:00	2024-11-06T03:00:00	6	Velocidad del viento	3.2
69534	7	Sololá	701	Sololá	3	Barraneche	12	Diciembre	2023-12-29T00:00:00	2024-11-06T03:00:00	7	Dirección del viento	3.22
69535	7	Sololá	701	Sololá	3	Barraneche	12	Diciembre	2023-12-29T00:00:00	2024-11-06T03:00:00	1	Precipitación	0
69536	7	Sololá	701	Sololá	3	Barraneche	12	Diciembre	2023-12-29T00:00:00	2024-11-06T03:00:00	8	Radiación solar	0
69537	7	Sololá	701	Sololá	3	Barraneche	12	Diciembre	2023-12-29T00:00:00	2024-11-06T04:00:00	2	Temperatura media	10.4
69538	7	Sololá	701	Sololá	3	Barraneche	12	Diciembre	2023-12-29T00:00:00	2024-11-06T04:00:00	4	Temperatura máxima	10.4
69539	7	Sololá	701	Sololá	3	Barraneche	12	Diciembre	2023-12-29T00:00:00	2024-11-06T04:00:00	3	Temperatura mínima	10.1
69540	7	Sololá	701	Sololá	3	Barraneche	12	Diciembre	2023-12-29T00:00:00	2024-11-06T04:00:00	5	Humedad	70
69541	7	Sololá	701	Sololá	3	Barraneche	12	Diciembre	2023-12-29T00:00:00	2024-11-06T04:00:00	6	Velocidad del viento	4.8
69542	7	Sololá	701	Sololá	3	Barraneche	12	Diciembre	2023-12-29T00:00:00	2024-11-06T04:00:00	7	Dirección del viento	4.83
69543	7	Sololá	701	Sololá	3	Barraneche	12	Diciembre	2023-12-29T00:00:00	2024-11-06T04:00:00	1	Precipitación	0
69544	7	Sololá	701	Sololá	3	Barraneche	12	Diciembre	2023-12-29T00:00:00	2024-11-06T04:00:00	8	Radiación solar	0
69545	7	Sololá	701	Sololá	3	Barraneche	12	Diciembre	2023-12-29T00:00:00	2024-11-06T05:00:00	2	Temperatura media	10.4
69546	7	Sololá	701	Sololá	3	Barraneche	12	Diciembre	2023-12-29T00:00:00	2024-11-06T05:00:00	4	Temperatura máxima	10.7
69547	7	Sololá	701	Sololá	3	Barraneche	12	Diciembre	2023-12-29T00:00:00	2024-11-06T05:00:00	3	Temperatura mínima	10.3
69548	7	Sololá	701	Sololá	3	Barraneche	12	Diciembre	2023-12-29T00:00:00	2024-11-06T05:00:00	5	Humedad	69
69549	7	Sololá	701	Sololá	3	Barraneche	12	Diciembre	2023-12-29T00:00:00	2024-11-06T05:00:00	6	Velocidad del viento	4.8
69550	7	Sololá	701	Sololá	3	Barraneche	12	Diciembre	2023-12-29T00:00:00	2024-11-06T05:00:00	7	Dirección del viento	4.83
69551	7	Sololá	701	Sololá	3	Barraneche	12	Diciembre	2023-12-29T00:00:00	2024-11-06T05:00:00	1	Precipitación	0
69552	7	Sololá	701	Sololá	3	Barraneche	12	Diciembre	2023-12-29T00:00:00	2024-11-06T05:00:00	8	Radiación solar	0
69553	7	Sololá	701	Sololá	3	Barraneche	12	Diciembre	2023-12-29T00:00:00	2024-11-06T06:00:00	2	Temperatura media	10.1
69554	7	Sololá	701	Sololá	3	Barraneche	12	Diciembre	2023-12-29T00:00:00	2024-11-06T06:00:00	4	Temperatura máxima	10.4
69555	7	Sololá	701	Sololá	3	Barraneche	12	Diciembre	2023-12-29T00:00:00	2024-11-06T06:00:00	3	Temperatura mínima	10
69556	7	Sololá	701	Sololá	3	Barraneche	12	Diciembre	2023-12-29T00:00:00	2024-11-06T06:00:00	5	Humedad	69
69557	7	Sololá	701	Sololá	3	Barraneche	12	Diciembre	2023-12-29T00:00:00	2024-11-06T06:00:00	6	Velocidad del viento	4.8
69558	7	Sololá	701	Sololá	3	Barraneche	12	Diciembre	2023-12-29T00:00:00	2024-11-06T06:00:00	7	Dirección del viento	4.83
69559	7	Sololá	701	Sololá	3	Barraneche	12	Diciembre	2023-12-29T00:00:00	2024-11-06T06:00:00	1	Precipitación	0
69560	7	Sololá	701	Sololá	3	Barraneche	12	Diciembre	2023-12-29T00:00:00	2024-11-06T06:00:00	8	Radiación solar	0
69561	7	Sololá	701	Sololá	3	Barraneche	12	Diciembre	2023-12-29T00:00:00	2024-11-06T07:00:00	2	Temperatura media	10.4
69562	7	Sololá	701	Sololá	3	Barraneche	12	Diciembre	2023-12-29T00:00:00	2024-11-06T07:00:00	4	Temperatura máxima	10.4
69563	7	Sololá	701	Sololá	3	Barraneche	12	Diciembre	2023-12-29T00:00:00	2024-11-06T07:00:00	3	Temperatura mínima	9.8
69564	7	Sololá	701	Sololá	3	Barraneche	12	Diciembre	2023-12-29T00:00:00	2024-11-06T07:00:00	5	Humedad	66
69565	7	Sololá	701	Sololá	3	Barraneche	12	Diciembre	2023-12-29T00:00:00	2024-11-06T07:00:00	6	Velocidad del viento	6.4
69566	7	Sololá	701	Sololá	3	Barraneche	12	Diciembre	2023-12-29T00:00:00	2024-11-06T07:00:00	7	Dirección del viento	6.44
69567	7	Sololá	701	Sololá	3	Barraneche	12	Diciembre	2023-12-29T00:00:00	2024-11-06T07:00:00	1	Precipitación	0
69568	7	Sololá	701	Sololá	3	Barraneche	12	Diciembre	2023-12-29T00:00:00	2024-11-06T07:00:00	8	Radiación solar	10
69569	7	Sololá	701	Sololá	3	Barraneche	12	Diciembre	2023-12-29T00:00:00	2024-11-06T08:00:00	2	Temperatura media	11.4
69570	7	Sololá	701	Sololá	3	Barraneche	12	Diciembre	2023-12-29T00:00:00	2024-11-06T08:00:00	4	Temperatura máxima	11.4
69571	7	Sololá	701	Sololá	3	Barraneche	12	Diciembre	2023-12-29T00:00:00	2024-11-06T08:00:00	3	Temperatura mínima	10.4
69572	7	Sololá	701	Sololá	3	Barraneche	12	Diciembre	2023-12-29T00:00:00	2024-11-06T08:00:00	5	Humedad	67
69573	7	Sololá	701	Sololá	3	Barraneche	12	Diciembre	2023-12-29T00:00:00	2024-11-06T08:00:00	6	Velocidad del viento	4.8
69574	7	Sololá	701	Sololá	3	Barraneche	12	Diciembre	2023-12-29T00:00:00	2024-11-06T08:00:00	7	Dirección del viento	4.83
69575	7	Sololá	701	Sololá	3	Barraneche	12	Diciembre	2023-12-29T00:00:00	2024-11-06T08:00:00	1	Precipitación	0
69576	7	Sololá	701	Sololá	3	Barraneche	12	Diciembre	2023-12-29T00:00:00	2024-11-06T08:00:00	8	Radiación solar	74
69577	7	Sololá	701	Sololá	3	Barraneche	12	Diciembre	2023-12-29T00:00:00	2024-11-06T09:00:00	2	Temperatura media	15.1
69578	7	Sololá	701	Sololá	3	Barraneche	12	Diciembre	2023-12-29T00:00:00	2024-11-06T09:00:00	4	Temperatura máxima	15.1
69579	7	Sololá	701	Sololá	3	Barraneche	12	Diciembre	2023-12-29T00:00:00	2024-11-06T09:00:00	3	Temperatura mínima	11.4
69580	7	Sololá	701	Sololá	3	Barraneche	12	Diciembre	2023-12-29T00:00:00	2024-11-06T09:00:00	5	Humedad	59
69581	7	Sololá	701	Sololá	3	Barraneche	12	Diciembre	2023-12-29T00:00:00	2024-11-06T09:00:00	6	Velocidad del viento	3.2
69582	7	Sololá	701	Sololá	3	Barraneche	12	Diciembre	2023-12-29T00:00:00	2024-11-06T09:00:00	7	Dirección del viento	3.22
69583	7	Sololá	701	Sololá	3	Barraneche	12	Diciembre	2023-12-29T00:00:00	2024-11-06T09:00:00	1	Precipitación	0
69584	7	Sololá	701	Sololá	3	Barraneche	12	Diciembre	2023-12-29T00:00:00	2024-11-06T09:00:00	8	Radiación solar	347
69585	7	Sololá	701	Sololá	3	Barraneche	12	Diciembre	2023-12-29T00:00:00	2024-11-06T10:00:00	2	Temperatura media	15.7
69586	7	Sololá	701	Sololá	3	Barraneche	12	Diciembre	2023-12-29T00:00:00	2024-11-06T10:00:00	4	Temperatura máxima	15.8
69587	7	Sololá	701	Sololá	3	Barraneche	12	Diciembre	2023-12-29T00:00:00	2024-11-06T10:00:00	3	Temperatura mínima	15.1
69588	7	Sololá	701	Sololá	3	Barraneche	12	Diciembre	2023-12-29T00:00:00	2024-11-06T10:00:00	5	Humedad	55
69589	7	Sololá	701	Sololá	3	Barraneche	12	Diciembre	2023-12-29T00:00:00	2024-11-06T10:00:00	6	Velocidad del viento	4.8
69590	7	Sololá	701	Sololá	3	Barraneche	12	Diciembre	2023-12-29T00:00:00	2024-11-06T10:00:00	7	Dirección del viento	4.83
69591	7	Sololá	701	Sololá	3	Barraneche	12	Diciembre	2023-12-29T00:00:00	2024-11-06T10:00:00	1	Precipitación	0
69592	7	Sololá	701	Sololá	3	Barraneche	12	Diciembre	2023-12-29T00:00:00	2024-11-06T10:00:00	8	Radiación solar	406
69593	7	Sololá	701	Sololá	3	Barraneche	12	Diciembre	2023-12-29T00:00:00	2024-11-06T11:00:00	2	Temperatura media	17.1
69594	7	Sololá	701	Sololá	3	Barraneche	12	Diciembre	2023-12-29T00:00:00	2024-11-06T11:00:00	4	Temperatura máxima	17.3
69595	7	Sololá	701	Sololá	3	Barraneche	12	Diciembre	2023-12-29T00:00:00	2024-11-06T11:00:00	3	Temperatura mínima	15.7
69596	7	Sololá	701	Sololá	3	Barraneche	12	Diciembre	2023-12-29T00:00:00	2024-11-06T11:00:00	5	Humedad	46
69597	7	Sololá	701	Sololá	3	Barraneche	12	Diciembre	2023-12-29T00:00:00	2024-11-06T11:00:00	6	Velocidad del viento	8
69598	7	Sololá	701	Sololá	3	Barraneche	12	Diciembre	2023-12-29T00:00:00	2024-11-06T11:00:00	7	Dirección del viento	8.05
69599	7	Sololá	701	Sololá	3	Barraneche	12	Diciembre	2023-12-29T00:00:00	2024-11-06T11:00:00	1	Precipitación	0
69600	7	Sololá	701	Sololá	3	Barraneche	12	Diciembre	2023-12-29T00:00:00	2024-11-06T11:00:00	8	Radiación solar	636
69601	7	Sololá	701	Sololá	3	Barraneche	12	Diciembre	2023-12-29T00:00:00	2024-11-06T12:00:00	2	Temperatura media	17.1
69602	7	Sololá	701	Sololá	3	Barraneche	12	Diciembre	2023-12-29T00:00:00	2024-11-06T12:00:00	4	Temperatura máxima	17.2
69603	7	Sololá	701	Sololá	3	Barraneche	12	Diciembre	2023-12-29T00:00:00	2024-11-06T12:00:00	3	Temperatura mínima	16.8
69604	7	Sololá	701	Sololá	3	Barraneche	12	Diciembre	2023-12-29T00:00:00	2024-11-06T12:00:00	5	Humedad	51
69605	7	Sololá	701	Sololá	3	Barraneche	12	Diciembre	2023-12-29T00:00:00	2024-11-06T12:00:00	6	Velocidad del viento	12.9
69606	7	Sololá	701	Sololá	3	Barraneche	12	Diciembre	2023-12-29T00:00:00	2024-11-06T12:00:00	7	Dirección del viento	12.87
69607	7	Sololá	701	Sololá	3	Barraneche	12	Diciembre	2023-12-29T00:00:00	2024-11-06T12:00:00	1	Precipitación	0
69608	7	Sololá	701	Sololá	3	Barraneche	12	Diciembre	2023-12-29T00:00:00	2024-11-06T12:00:00	8	Radiación solar	698
69609	7	Sololá	701	Sololá	3	Barraneche	12	Diciembre	2023-12-29T00:00:00	2024-11-06T13:00:00	2	Temperatura media	17.2
69610	7	Sololá	701	Sololá	3	Barraneche	12	Diciembre	2023-12-29T00:00:00	2024-11-06T13:00:00	4	Temperatura máxima	17.4
69611	7	Sololá	701	Sololá	3	Barraneche	12	Diciembre	2023-12-29T00:00:00	2024-11-06T13:00:00	3	Temperatura mínima	16.8
69612	7	Sololá	701	Sololá	3	Barraneche	12	Diciembre	2023-12-29T00:00:00	2024-11-06T13:00:00	5	Humedad	55
69613	7	Sololá	701	Sololá	3	Barraneche	12	Diciembre	2023-12-29T00:00:00	2024-11-06T13:00:00	6	Velocidad del viento	14.5
69614	7	Sololá	701	Sololá	3	Barraneche	12	Diciembre	2023-12-29T00:00:00	2024-11-06T13:00:00	7	Dirección del viento	14.48
69615	7	Sololá	701	Sololá	3	Barraneche	12	Diciembre	2023-12-29T00:00:00	2024-11-06T13:00:00	1	Precipitación	0
69616	7	Sololá	701	Sololá	3	Barraneche	12	Diciembre	2023-12-29T00:00:00	2024-11-06T13:00:00	8	Radiación solar	632
69617	7	Sololá	701	Sololá	3	Barraneche	12	Diciembre	2023-12-29T00:00:00	2024-11-06T14:00:00	2	Temperatura media	15.9
69618	7	Sololá	701	Sololá	3	Barraneche	12	Diciembre	2023-12-29T00:00:00	2024-11-06T14:00:00	4	Temperatura máxima	17.3
69619	7	Sololá	701	Sololá	3	Barraneche	12	Diciembre	2023-12-29T00:00:00	2024-11-06T14:00:00	3	Temperatura mínima	15.9
69620	7	Sololá	701	Sololá	3	Barraneche	12	Diciembre	2023-12-29T00:00:00	2024-11-06T14:00:00	5	Humedad	60
69621	7	Sololá	701	Sololá	3	Barraneche	12	Diciembre	2023-12-29T00:00:00	2024-11-06T14:00:00	6	Velocidad del viento	14.5
69622	7	Sololá	701	Sololá	3	Barraneche	12	Diciembre	2023-12-29T00:00:00	2024-11-06T14:00:00	7	Dirección del viento	14.48
69623	7	Sololá	701	Sololá	3	Barraneche	12	Diciembre	2023-12-29T00:00:00	2024-11-06T14:00:00	1	Precipitación	0
69624	7	Sololá	701	Sololá	3	Barraneche	12	Diciembre	2023-12-29T00:00:00	2024-11-06T14:00:00	8	Radiación solar	466
69625	7	Sololá	701	Sololá	3	Barraneche	12	Diciembre	2023-12-29T00:00:00	2024-11-06T15:00:00	2	Temperatura media	15.3
69626	7	Sololá	701	Sololá	3	Barraneche	12	Diciembre	2023-12-29T00:00:00	2024-11-06T15:00:00	4	Temperatura máxima	16.5
69627	7	Sololá	701	Sololá	3	Barraneche	12	Diciembre	2023-12-29T00:00:00	2024-11-06T15:00:00	3	Temperatura mínima	15.3
69628	7	Sololá	701	Sololá	3	Barraneche	12	Diciembre	2023-12-29T00:00:00	2024-11-06T15:00:00	5	Humedad	62
69629	7	Sololá	701	Sololá	3	Barraneche	12	Diciembre	2023-12-29T00:00:00	2024-11-06T15:00:00	6	Velocidad del viento	14.5
69630	7	Sololá	701	Sololá	3	Barraneche	12	Diciembre	2023-12-29T00:00:00	2024-11-06T15:00:00	7	Dirección del viento	14.48
69631	7	Sololá	701	Sololá	3	Barraneche	12	Diciembre	2023-12-29T00:00:00	2024-11-06T15:00:00	1	Precipitación	0
69632	7	Sololá	701	Sololá	3	Barraneche	12	Diciembre	2023-12-29T00:00:00	2024-11-06T15:00:00	8	Radiación solar	428
69633	7	Sololá	701	Sololá	3	Barraneche	12	Diciembre	2023-12-29T00:00:00	2024-11-06T16:00:00	2	Temperatura media	15.1
69634	7	Sololá	701	Sololá	3	Barraneche	12	Diciembre	2023-12-29T00:00:00	2024-11-06T16:00:00	4	Temperatura máxima	15.7
69635	7	Sololá	701	Sololá	3	Barraneche	12	Diciembre	2023-12-29T00:00:00	2024-11-06T16:00:00	3	Temperatura mínima	14.9
69636	7	Sololá	701	Sololá	3	Barraneche	12	Diciembre	2023-12-29T00:00:00	2024-11-06T16:00:00	5	Humedad	63
69637	7	Sololá	701	Sololá	3	Barraneche	12	Diciembre	2023-12-29T00:00:00	2024-11-06T16:00:00	6	Velocidad del viento	12.9
69638	7	Sololá	701	Sololá	3	Barraneche	12	Diciembre	2023-12-29T00:00:00	2024-11-06T16:00:00	7	Dirección del viento	12.87
69639	7	Sololá	701	Sololá	3	Barraneche	12	Diciembre	2023-12-29T00:00:00	2024-11-06T16:00:00	1	Precipitación	0
69640	7	Sololá	701	Sololá	3	Barraneche	12	Diciembre	2023-12-29T00:00:00	2024-11-06T16:00:00	8	Radiación solar	274
69641	7	Sololá	701	Sololá	3	Barraneche	12	Diciembre	2023-12-29T00:00:00	2024-11-06T17:00:00	2	Temperatura media	14.3
69642	7	Sololá	701	Sololá	3	Barraneche	12	Diciembre	2023-12-29T00:00:00	2024-11-06T17:00:00	4	Temperatura máxima	15.1
69643	7	Sololá	701	Sololá	3	Barraneche	12	Diciembre	2023-12-29T00:00:00	2024-11-06T17:00:00	3	Temperatura mínima	14.3
69644	7	Sololá	701	Sololá	3	Barraneche	12	Diciembre	2023-12-29T00:00:00	2024-11-06T17:00:00	5	Humedad	66
69645	7	Sololá	701	Sololá	3	Barraneche	12	Diciembre	2023-12-29T00:00:00	2024-11-06T17:00:00	6	Velocidad del viento	8
69646	7	Sololá	701	Sololá	3	Barraneche	12	Diciembre	2023-12-29T00:00:00	2024-11-06T17:00:00	7	Dirección del viento	8.05
69647	7	Sololá	701	Sololá	3	Barraneche	12	Diciembre	2023-12-29T00:00:00	2024-11-06T17:00:00	1	Precipitación	0
69648	7	Sololá	701	Sololá	3	Barraneche	12	Diciembre	2023-12-29T00:00:00	2024-11-06T17:00:00	8	Radiación solar	95
69649	7	Sololá	701	Sololá	3	Barraneche	12	Diciembre	2023-12-29T00:00:00	2024-11-06T18:00:00	2	Temperatura media	13.6
69650	7	Sololá	701	Sololá	3	Barraneche	12	Diciembre	2023-12-29T00:00:00	2024-11-06T18:00:00	4	Temperatura máxima	14.3
69651	7	Sololá	701	Sololá	3	Barraneche	12	Diciembre	2023-12-29T00:00:00	2024-11-06T18:00:00	3	Temperatura mínima	13.6
69652	7	Sololá	701	Sololá	3	Barraneche	12	Diciembre	2023-12-29T00:00:00	2024-11-06T18:00:00	5	Humedad	69
69653	7	Sololá	701	Sololá	3	Barraneche	12	Diciembre	2023-12-29T00:00:00	2024-11-06T18:00:00	6	Velocidad del viento	4.8
69654	7	Sololá	701	Sololá	3	Barraneche	12	Diciembre	2023-12-29T00:00:00	2024-11-06T18:00:00	7	Dirección del viento	4.83
69655	7	Sololá	701	Sololá	3	Barraneche	12	Diciembre	2023-12-29T00:00:00	2024-11-06T18:00:00	1	Precipitación	0
69656	7	Sololá	701	Sololá	3	Barraneche	12	Diciembre	2023-12-29T00:00:00	2024-11-06T18:00:00	8	Radiación solar	25
69657	7	Sololá	701	Sololá	3	Barraneche	12	Diciembre	2023-12-29T00:00:00	2024-11-06T19:00:00	2	Temperatura media	12.8
69658	7	Sololá	701	Sololá	3	Barraneche	12	Diciembre	2023-12-29T00:00:00	2024-11-06T19:00:00	4	Temperatura máxima	13.7
69659	7	Sololá	701	Sololá	3	Barraneche	12	Diciembre	2023-12-29T00:00:00	2024-11-06T19:00:00	3	Temperatura mínima	12.8
69660	7	Sololá	701	Sololá	3	Barraneche	12	Diciembre	2023-12-29T00:00:00	2024-11-06T19:00:00	5	Humedad	70
69661	7	Sololá	701	Sololá	3	Barraneche	12	Diciembre	2023-12-29T00:00:00	2024-11-06T19:00:00	6	Velocidad del viento	1.6
69662	7	Sololá	701	Sololá	3	Barraneche	12	Diciembre	2023-12-29T00:00:00	2024-11-06T19:00:00	7	Dirección del viento	1.61
69663	7	Sololá	701	Sololá	3	Barraneche	12	Diciembre	2023-12-29T00:00:00	2024-11-06T19:00:00	1	Precipitación	0
69664	7	Sololá	701	Sololá	3	Barraneche	12	Diciembre	2023-12-29T00:00:00	2024-11-06T19:00:00	8	Radiación solar	0
69665	7	Sololá	701	Sololá	3	Barraneche	12	Diciembre	2023-12-29T00:00:00	2024-11-06T20:00:00	2	Temperatura media	11.5
69666	7	Sololá	701	Sololá	3	Barraneche	12	Diciembre	2023-12-29T00:00:00	2024-11-06T20:00:00	4	Temperatura máxima	12.8
69667	7	Sololá	701	Sololá	3	Barraneche	12	Diciembre	2023-12-29T00:00:00	2024-11-06T20:00:00	3	Temperatura mínima	11.4
69668	7	Sololá	701	Sololá	3	Barraneche	12	Diciembre	2023-12-29T00:00:00	2024-11-06T20:00:00	5	Humedad	63
69669	7	Sololá	701	Sololá	3	Barraneche	12	Diciembre	2023-12-29T00:00:00	2024-11-06T20:00:00	6	Velocidad del viento	4.8
69670	7	Sololá	701	Sololá	3	Barraneche	12	Diciembre	2023-12-29T00:00:00	2024-11-06T20:00:00	7	Dirección del viento	4.83
69671	7	Sololá	701	Sololá	3	Barraneche	12	Diciembre	2023-12-29T00:00:00	2024-11-06T20:00:00	1	Precipitación	0
69672	7	Sololá	701	Sololá	3	Barraneche	12	Diciembre	2023-12-29T00:00:00	2024-11-06T20:00:00	8	Radiación solar	0
69673	7	Sololá	701	Sololá	3	Barraneche	12	Diciembre	2023-12-29T00:00:00	2024-11-06T21:00:00	2	Temperatura media	10.2
69674	7	Sololá	701	Sololá	3	Barraneche	12	Diciembre	2023-12-29T00:00:00	2024-11-06T21:00:00	4	Temperatura máxima	11.6
69675	7	Sololá	701	Sololá	3	Barraneche	12	Diciembre	2023-12-29T00:00:00	2024-11-06T21:00:00	3	Temperatura mínima	10.1
69676	7	Sololá	701	Sololá	3	Barraneche	12	Diciembre	2023-12-29T00:00:00	2024-11-06T21:00:00	5	Humedad	59
69677	7	Sololá	701	Sololá	3	Barraneche	12	Diciembre	2023-12-29T00:00:00	2024-11-06T21:00:00	6	Velocidad del viento	8
69678	7	Sololá	701	Sololá	3	Barraneche	12	Diciembre	2023-12-29T00:00:00	2024-11-06T21:00:00	7	Dirección del viento	8.05
69679	7	Sololá	701	Sololá	3	Barraneche	12	Diciembre	2023-12-29T00:00:00	2024-11-06T21:00:00	1	Precipitación	0
69680	7	Sololá	701	Sololá	3	Barraneche	12	Diciembre	2023-12-29T00:00:00	2024-11-06T21:00:00	8	Radiación solar	0
69681	7	Sololá	701	Sololá	3	Barraneche	12	Diciembre	2023-12-29T00:00:00	2024-11-06T22:00:00	2	Temperatura media	10
69682	7	Sololá	701	Sololá	3	Barraneche	12	Diciembre	2023-12-29T00:00:00	2024-11-06T22:00:00	4	Temperatura máxima	10.2
69683	7	Sololá	701	Sololá	3	Barraneche	12	Diciembre	2023-12-29T00:00:00	2024-11-06T22:00:00	3	Temperatura mínima	9.4
69684	7	Sololá	701	Sololá	3	Barraneche	12	Diciembre	2023-12-29T00:00:00	2024-11-06T22:00:00	5	Humedad	56
69685	7	Sololá	701	Sololá	3	Barraneche	12	Diciembre	2023-12-29T00:00:00	2024-11-06T22:00:00	6	Velocidad del viento	9.7
69686	7	Sololá	701	Sololá	3	Barraneche	12	Diciembre	2023-12-29T00:00:00	2024-11-06T22:00:00	7	Dirección del viento	9.66
69687	7	Sololá	701	Sololá	3	Barraneche	12	Diciembre	2023-12-29T00:00:00	2024-11-06T22:00:00	1	Precipitación	0
69688	7	Sololá	701	Sololá	3	Barraneche	12	Diciembre	2023-12-29T00:00:00	2024-11-06T22:00:00	8	Radiación solar	0
69689	7	Sololá	701	Sololá	3	Barraneche	12	Diciembre	2023-12-29T00:00:00	2024-11-06T23:00:00	2	Temperatura media	9.6
69690	7	Sololá	701	Sololá	3	Barraneche	12	Diciembre	2023-12-29T00:00:00	2024-11-06T23:00:00	4	Temperatura máxima	10.2
69691	7	Sololá	701	Sololá	3	Barraneche	12	Diciembre	2023-12-29T00:00:00	2024-11-06T23:00:00	3	Temperatura mínima	9.6
69692	7	Sololá	701	Sololá	3	Barraneche	12	Diciembre	2023-12-29T00:00:00	2024-11-06T23:00:00	5	Humedad	54
69693	7	Sololá	701	Sololá	3	Barraneche	12	Diciembre	2023-12-29T00:00:00	2024-11-06T23:00:00	6	Velocidad del viento	9.7
69694	7	Sololá	701	Sololá	3	Barraneche	12	Diciembre	2023-12-29T00:00:00	2024-11-06T23:00:00	7	Dirección del viento	9.66
69695	7	Sololá	701	Sololá	3	Barraneche	12	Diciembre	2023-12-29T00:00:00	2024-11-06T23:00:00	1	Precipitación	0
69696	7	Sololá	701	Sololá	3	Barraneche	12	Diciembre	2023-12-29T00:00:00	2024-11-06T23:00:00	8	Radiación solar	0
69697	7	Sololá	701	Sololá	3	Barraneche	12	Diciembre	2023-12-30T00:00:00	2024-11-06T00:00:00	2	Temperatura media	9.3
69698	7	Sololá	701	Sololá	3	Barraneche	12	Diciembre	2023-12-30T00:00:00	2024-11-06T00:00:00	4	Temperatura máxima	9.6
69699	7	Sololá	701	Sololá	3	Barraneche	12	Diciembre	2023-12-30T00:00:00	2024-11-06T00:00:00	3	Temperatura mínima	9.1
69700	7	Sololá	701	Sololá	3	Barraneche	12	Diciembre	2023-12-30T00:00:00	2024-11-06T00:00:00	5	Humedad	54
69701	7	Sololá	701	Sololá	3	Barraneche	12	Diciembre	2023-12-30T00:00:00	2024-11-06T00:00:00	6	Velocidad del viento	8
69702	7	Sololá	701	Sololá	3	Barraneche	12	Diciembre	2023-12-30T00:00:00	2024-11-06T00:00:00	7	Dirección del viento	8.05
69703	7	Sololá	701	Sololá	3	Barraneche	12	Diciembre	2023-12-30T00:00:00	2024-11-06T00:00:00	1	Precipitación	0
69704	7	Sololá	701	Sololá	3	Barraneche	12	Diciembre	2023-12-30T00:00:00	2024-11-06T00:00:00	8	Radiación solar	0
69705	7	Sololá	701	Sololá	3	Barraneche	12	Diciembre	2023-12-30T00:00:00	2024-11-06T01:00:00	2	Temperatura media	8.8
69706	7	Sololá	701	Sololá	3	Barraneche	12	Diciembre	2023-12-30T00:00:00	2024-11-06T01:00:00	4	Temperatura máxima	9.4
69707	7	Sololá	701	Sololá	3	Barraneche	12	Diciembre	2023-12-30T00:00:00	2024-11-06T01:00:00	3	Temperatura mínima	8.8
69708	7	Sololá	701	Sololá	3	Barraneche	12	Diciembre	2023-12-30T00:00:00	2024-11-06T01:00:00	5	Humedad	57
69709	7	Sololá	701	Sololá	3	Barraneche	12	Diciembre	2023-12-30T00:00:00	2024-11-06T01:00:00	6	Velocidad del viento	8
69710	7	Sololá	701	Sololá	3	Barraneche	12	Diciembre	2023-12-30T00:00:00	2024-11-06T01:00:00	7	Dirección del viento	8.05
69711	7	Sololá	701	Sololá	3	Barraneche	12	Diciembre	2023-12-30T00:00:00	2024-11-06T01:00:00	1	Precipitación	0
69712	7	Sololá	701	Sololá	3	Barraneche	12	Diciembre	2023-12-30T00:00:00	2024-11-06T01:00:00	8	Radiación solar	0
69713	7	Sololá	701	Sololá	3	Barraneche	12	Diciembre	2023-12-30T00:00:00	2024-11-06T02:00:00	2	Temperatura media	9.1
69714	7	Sololá	701	Sololá	3	Barraneche	12	Diciembre	2023-12-30T00:00:00	2024-11-06T02:00:00	4	Temperatura máxima	9.2
69715	7	Sololá	701	Sololá	3	Barraneche	12	Diciembre	2023-12-30T00:00:00	2024-11-06T02:00:00	3	Temperatura mínima	8.5
69716	7	Sololá	701	Sololá	3	Barraneche	12	Diciembre	2023-12-30T00:00:00	2024-11-06T02:00:00	5	Humedad	57
69717	7	Sololá	701	Sololá	3	Barraneche	12	Diciembre	2023-12-30T00:00:00	2024-11-06T02:00:00	6	Velocidad del viento	8
69718	7	Sololá	701	Sololá	3	Barraneche	12	Diciembre	2023-12-30T00:00:00	2024-11-06T02:00:00	7	Dirección del viento	8.05
69719	7	Sololá	701	Sololá	3	Barraneche	12	Diciembre	2023-12-30T00:00:00	2024-11-06T02:00:00	1	Precipitación	0
69720	7	Sololá	701	Sololá	3	Barraneche	12	Diciembre	2023-12-30T00:00:00	2024-11-06T02:00:00	8	Radiación solar	0
69721	7	Sololá	701	Sololá	3	Barraneche	12	Diciembre	2023-12-30T00:00:00	2024-11-06T03:00:00	2	Temperatura media	8.9
69722	7	Sololá	701	Sololá	3	Barraneche	12	Diciembre	2023-12-30T00:00:00	2024-11-06T03:00:00	4	Temperatura máxima	9.2
69723	7	Sololá	701	Sololá	3	Barraneche	12	Diciembre	2023-12-30T00:00:00	2024-11-06T03:00:00	3	Temperatura mínima	8.6
69724	7	Sololá	701	Sololá	3	Barraneche	12	Diciembre	2023-12-30T00:00:00	2024-11-06T03:00:00	5	Humedad	60
69725	7	Sololá	701	Sololá	3	Barraneche	12	Diciembre	2023-12-30T00:00:00	2024-11-06T03:00:00	6	Velocidad del viento	9.7
69726	7	Sololá	701	Sololá	3	Barraneche	12	Diciembre	2023-12-30T00:00:00	2024-11-06T03:00:00	7	Dirección del viento	9.66
69727	7	Sololá	701	Sololá	3	Barraneche	12	Diciembre	2023-12-30T00:00:00	2024-11-06T03:00:00	1	Precipitación	0
69728	7	Sololá	701	Sololá	3	Barraneche	12	Diciembre	2023-12-30T00:00:00	2024-11-06T03:00:00	8	Radiación solar	0
69729	7	Sololá	701	Sololá	3	Barraneche	12	Diciembre	2023-12-30T00:00:00	2024-11-06T04:00:00	2	Temperatura media	8.4
69730	7	Sololá	701	Sololá	3	Barraneche	12	Diciembre	2023-12-30T00:00:00	2024-11-06T04:00:00	4	Temperatura máxima	9.1
69731	7	Sololá	701	Sololá	3	Barraneche	12	Diciembre	2023-12-30T00:00:00	2024-11-06T04:00:00	3	Temperatura mínima	8.3
69732	7	Sololá	701	Sololá	3	Barraneche	12	Diciembre	2023-12-30T00:00:00	2024-11-06T04:00:00	5	Humedad	61
69733	7	Sololá	701	Sololá	3	Barraneche	12	Diciembre	2023-12-30T00:00:00	2024-11-06T04:00:00	6	Velocidad del viento	8
69734	7	Sololá	701	Sololá	3	Barraneche	12	Diciembre	2023-12-30T00:00:00	2024-11-06T04:00:00	7	Dirección del viento	8.05
69735	7	Sololá	701	Sololá	3	Barraneche	12	Diciembre	2023-12-30T00:00:00	2024-11-06T04:00:00	1	Precipitación	0
69736	7	Sololá	701	Sololá	3	Barraneche	12	Diciembre	2023-12-30T00:00:00	2024-11-06T04:00:00	8	Radiación solar	0
69737	7	Sololá	701	Sololá	3	Barraneche	12	Diciembre	2023-12-30T00:00:00	2024-11-06T05:00:00	2	Temperatura media	8.2
69738	7	Sololá	701	Sololá	3	Barraneche	12	Diciembre	2023-12-30T00:00:00	2024-11-06T05:00:00	4	Temperatura máxima	8.9
69739	7	Sololá	701	Sololá	3	Barraneche	12	Diciembre	2023-12-30T00:00:00	2024-11-06T05:00:00	3	Temperatura mínima	7.9
69740	7	Sololá	701	Sololá	3	Barraneche	12	Diciembre	2023-12-30T00:00:00	2024-11-06T05:00:00	5	Humedad	64
69741	7	Sololá	701	Sololá	3	Barraneche	12	Diciembre	2023-12-30T00:00:00	2024-11-06T05:00:00	6	Velocidad del viento	8
69742	7	Sololá	701	Sololá	3	Barraneche	12	Diciembre	2023-12-30T00:00:00	2024-11-06T05:00:00	7	Dirección del viento	8.05
69743	7	Sololá	701	Sololá	3	Barraneche	12	Diciembre	2023-12-30T00:00:00	2024-11-06T05:00:00	1	Precipitación	0
69744	7	Sololá	701	Sololá	3	Barraneche	12	Diciembre	2023-12-30T00:00:00	2024-11-06T05:00:00	8	Radiación solar	0
69745	7	Sololá	701	Sololá	3	Barraneche	12	Diciembre	2023-12-30T00:00:00	2024-11-06T06:00:00	2	Temperatura media	8.7
69746	7	Sololá	701	Sololá	3	Barraneche	12	Diciembre	2023-12-30T00:00:00	2024-11-06T06:00:00	4	Temperatura máxima	8.7
69747	7	Sololá	701	Sololá	3	Barraneche	12	Diciembre	2023-12-30T00:00:00	2024-11-06T06:00:00	3	Temperatura mínima	7.9
69748	7	Sololá	701	Sololá	3	Barraneche	12	Diciembre	2023-12-30T00:00:00	2024-11-06T06:00:00	5	Humedad	64
69749	7	Sololá	701	Sololá	3	Barraneche	12	Diciembre	2023-12-30T00:00:00	2024-11-06T06:00:00	6	Velocidad del viento	8
69750	7	Sololá	701	Sololá	3	Barraneche	12	Diciembre	2023-12-30T00:00:00	2024-11-06T06:00:00	7	Dirección del viento	8.05
69751	7	Sololá	701	Sololá	3	Barraneche	12	Diciembre	2023-12-30T00:00:00	2024-11-06T06:00:00	1	Precipitación	0
69752	7	Sololá	701	Sololá	3	Barraneche	12	Diciembre	2023-12-30T00:00:00	2024-11-06T06:00:00	8	Radiación solar	0
69753	7	Sololá	701	Sololá	3	Barraneche	12	Diciembre	2023-12-30T00:00:00	2024-11-06T07:00:00	2	Temperatura media	8.5
69754	7	Sololá	701	Sololá	3	Barraneche	12	Diciembre	2023-12-30T00:00:00	2024-11-06T07:00:00	4	Temperatura máxima	8.7
69755	7	Sololá	701	Sololá	3	Barraneche	12	Diciembre	2023-12-30T00:00:00	2024-11-06T07:00:00	3	Temperatura mínima	8.1
69756	7	Sololá	701	Sololá	3	Barraneche	12	Diciembre	2023-12-30T00:00:00	2024-11-06T07:00:00	5	Humedad	63
69757	7	Sololá	701	Sololá	3	Barraneche	12	Diciembre	2023-12-30T00:00:00	2024-11-06T07:00:00	6	Velocidad del viento	8
69758	7	Sololá	701	Sololá	3	Barraneche	12	Diciembre	2023-12-30T00:00:00	2024-11-06T07:00:00	7	Dirección del viento	8.05
69759	7	Sololá	701	Sololá	3	Barraneche	12	Diciembre	2023-12-30T00:00:00	2024-11-06T07:00:00	1	Precipitación	0
69760	7	Sololá	701	Sololá	3	Barraneche	12	Diciembre	2023-12-30T00:00:00	2024-11-06T07:00:00	8	Radiación solar	6
69761	7	Sololá	701	Sololá	3	Barraneche	12	Diciembre	2023-12-30T00:00:00	2024-11-06T08:00:00	2	Temperatura media	13.3
69762	7	Sololá	701	Sololá	3	Barraneche	12	Diciembre	2023-12-30T00:00:00	2024-11-06T08:00:00	4	Temperatura máxima	13.3
69763	7	Sololá	701	Sololá	3	Barraneche	12	Diciembre	2023-12-30T00:00:00	2024-11-06T08:00:00	3	Temperatura mínima	8.5
69764	7	Sololá	701	Sololá	3	Barraneche	12	Diciembre	2023-12-30T00:00:00	2024-11-06T08:00:00	5	Humedad	57
69765	7	Sololá	701	Sololá	3	Barraneche	12	Diciembre	2023-12-30T00:00:00	2024-11-06T08:00:00	6	Velocidad del viento	3.2
69766	7	Sololá	701	Sololá	3	Barraneche	12	Diciembre	2023-12-30T00:00:00	2024-11-06T08:00:00	7	Dirección del viento	3.22
69767	7	Sololá	701	Sololá	3	Barraneche	12	Diciembre	2023-12-30T00:00:00	2024-11-06T08:00:00	1	Precipitación	0
69768	7	Sololá	701	Sololá	3	Barraneche	12	Diciembre	2023-12-30T00:00:00	2024-11-06T08:00:00	8	Radiación solar	164
69769	7	Sololá	701	Sololá	3	Barraneche	12	Diciembre	2023-12-30T00:00:00	2024-11-06T09:00:00	2	Temperatura media	15.9
69770	7	Sololá	701	Sololá	3	Barraneche	12	Diciembre	2023-12-30T00:00:00	2024-11-06T09:00:00	4	Temperatura máxima	16
69771	7	Sololá	701	Sololá	3	Barraneche	12	Diciembre	2023-12-30T00:00:00	2024-11-06T09:00:00	3	Temperatura mínima	13.3
69772	7	Sololá	701	Sololá	3	Barraneche	12	Diciembre	2023-12-30T00:00:00	2024-11-06T09:00:00	5	Humedad	50
69773	7	Sololá	701	Sololá	3	Barraneche	12	Diciembre	2023-12-30T00:00:00	2024-11-06T09:00:00	6	Velocidad del viento	1.6
69774	7	Sololá	701	Sololá	3	Barraneche	12	Diciembre	2023-12-30T00:00:00	2024-11-06T09:00:00	7	Dirección del viento	1.61
69775	7	Sololá	701	Sololá	3	Barraneche	12	Diciembre	2023-12-30T00:00:00	2024-11-06T09:00:00	1	Precipitación	0
69776	7	Sololá	701	Sololá	3	Barraneche	12	Diciembre	2023-12-30T00:00:00	2024-11-06T09:00:00	8	Radiación solar	401
69777	7	Sololá	701	Sololá	3	Barraneche	12	Diciembre	2023-12-30T00:00:00	2024-11-06T10:00:00	2	Temperatura media	17.4
69778	7	Sololá	701	Sololá	3	Barraneche	12	Diciembre	2023-12-30T00:00:00	2024-11-06T10:00:00	4	Temperatura máxima	17.4
69779	7	Sololá	701	Sololá	3	Barraneche	12	Diciembre	2023-12-30T00:00:00	2024-11-06T10:00:00	3	Temperatura mínima	15.9
69780	7	Sololá	701	Sololá	3	Barraneche	12	Diciembre	2023-12-30T00:00:00	2024-11-06T10:00:00	5	Humedad	40
69781	7	Sololá	701	Sololá	3	Barraneche	12	Diciembre	2023-12-30T00:00:00	2024-11-06T10:00:00	6	Velocidad del viento	6.4
69782	7	Sololá	701	Sololá	3	Barraneche	12	Diciembre	2023-12-30T00:00:00	2024-11-06T10:00:00	7	Dirección del viento	6.44
69783	7	Sololá	701	Sololá	3	Barraneche	12	Diciembre	2023-12-30T00:00:00	2024-11-06T10:00:00	1	Precipitación	0
69784	7	Sololá	701	Sololá	3	Barraneche	12	Diciembre	2023-12-30T00:00:00	2024-11-06T10:00:00	8	Radiación solar	597
69785	7	Sololá	701	Sololá	3	Barraneche	12	Diciembre	2023-12-30T00:00:00	2024-11-06T11:00:00	2	Temperatura media	18.2
69786	7	Sololá	701	Sololá	3	Barraneche	12	Diciembre	2023-12-30T00:00:00	2024-11-06T11:00:00	4	Temperatura máxima	18.3
69787	7	Sololá	701	Sololá	3	Barraneche	12	Diciembre	2023-12-30T00:00:00	2024-11-06T11:00:00	3	Temperatura mínima	17.4
69788	7	Sololá	701	Sololá	3	Barraneche	12	Diciembre	2023-12-30T00:00:00	2024-11-06T11:00:00	5	Humedad	31
69789	7	Sololá	701	Sololá	3	Barraneche	12	Diciembre	2023-12-30T00:00:00	2024-11-06T11:00:00	6	Velocidad del viento	11.3
69790	7	Sololá	701	Sololá	3	Barraneche	12	Diciembre	2023-12-30T00:00:00	2024-11-06T11:00:00	7	Dirección del viento	11.27
69791	7	Sololá	701	Sololá	3	Barraneche	12	Diciembre	2023-12-30T00:00:00	2024-11-06T11:00:00	1	Precipitación	0
69792	7	Sololá	701	Sololá	3	Barraneche	12	Diciembre	2023-12-30T00:00:00	2024-11-06T11:00:00	8	Radiación solar	767
69793	7	Sololá	701	Sololá	3	Barraneche	12	Diciembre	2023-12-30T00:00:00	2024-11-06T12:00:00	2	Temperatura media	18.3
69794	7	Sololá	701	Sololá	3	Barraneche	12	Diciembre	2023-12-30T00:00:00	2024-11-06T12:00:00	4	Temperatura máxima	18.4
69795	7	Sololá	701	Sololá	3	Barraneche	12	Diciembre	2023-12-30T00:00:00	2024-11-06T12:00:00	3	Temperatura mínima	17.7
69796	7	Sololá	701	Sololá	3	Barraneche	12	Diciembre	2023-12-30T00:00:00	2024-11-06T12:00:00	5	Humedad	40
69797	7	Sololá	701	Sololá	3	Barraneche	12	Diciembre	2023-12-30T00:00:00	2024-11-06T12:00:00	6	Velocidad del viento	12.9
69798	7	Sololá	701	Sololá	3	Barraneche	12	Diciembre	2023-12-30T00:00:00	2024-11-06T12:00:00	7	Dirección del viento	12.87
69799	7	Sololá	701	Sololá	3	Barraneche	12	Diciembre	2023-12-30T00:00:00	2024-11-06T12:00:00	1	Precipitación	0
69800	7	Sololá	701	Sololá	3	Barraneche	12	Diciembre	2023-12-30T00:00:00	2024-11-06T12:00:00	8	Radiación solar	863
69801	7	Sololá	701	Sololá	3	Barraneche	12	Diciembre	2023-12-30T00:00:00	2024-11-06T13:00:00	2	Temperatura media	18.3
69802	7	Sololá	701	Sololá	3	Barraneche	12	Diciembre	2023-12-30T00:00:00	2024-11-06T13:00:00	4	Temperatura máxima	18.3
69803	7	Sololá	701	Sololá	3	Barraneche	12	Diciembre	2023-12-30T00:00:00	2024-11-06T13:00:00	3	Temperatura mínima	17.6
69804	7	Sololá	701	Sololá	3	Barraneche	12	Diciembre	2023-12-30T00:00:00	2024-11-06T13:00:00	5	Humedad	45
69805	7	Sololá	701	Sololá	3	Barraneche	12	Diciembre	2023-12-30T00:00:00	2024-11-06T13:00:00	6	Velocidad del viento	8
69806	7	Sololá	701	Sololá	3	Barraneche	12	Diciembre	2023-12-30T00:00:00	2024-11-06T13:00:00	7	Dirección del viento	8.05
69807	7	Sololá	701	Sololá	3	Barraneche	12	Diciembre	2023-12-30T00:00:00	2024-11-06T13:00:00	1	Precipitación	0
69808	7	Sololá	701	Sololá	3	Barraneche	12	Diciembre	2023-12-30T00:00:00	2024-11-06T13:00:00	8	Radiación solar	296
69809	7	Sololá	701	Sololá	3	Barraneche	12	Diciembre	2023-12-30T00:00:00	2024-11-06T14:00:00	2	Temperatura media	18.1
69810	7	Sololá	701	Sololá	3	Barraneche	12	Diciembre	2023-12-30T00:00:00	2024-11-06T14:00:00	4	Temperatura máxima	19.2
69811	7	Sololá	701	Sololá	3	Barraneche	12	Diciembre	2023-12-30T00:00:00	2024-11-06T14:00:00	3	Temperatura mínima	18.1
69812	7	Sololá	701	Sololá	3	Barraneche	12	Diciembre	2023-12-30T00:00:00	2024-11-06T14:00:00	5	Humedad	49
69813	7	Sololá	701	Sololá	3	Barraneche	12	Diciembre	2023-12-30T00:00:00	2024-11-06T14:00:00	6	Velocidad del viento	12.9
69814	7	Sololá	701	Sololá	3	Barraneche	12	Diciembre	2023-12-30T00:00:00	2024-11-06T14:00:00	7	Dirección del viento	12.87
69815	7	Sololá	701	Sololá	3	Barraneche	12	Diciembre	2023-12-30T00:00:00	2024-11-06T14:00:00	1	Precipitación	0
69816	7	Sololá	701	Sololá	3	Barraneche	12	Diciembre	2023-12-30T00:00:00	2024-11-06T14:00:00	8	Radiación solar	797
69817	7	Sololá	701	Sololá	3	Barraneche	12	Diciembre	2023-12-30T00:00:00	2024-11-06T15:00:00	2	Temperatura media	17.1
69818	7	Sololá	701	Sololá	3	Barraneche	12	Diciembre	2023-12-30T00:00:00	2024-11-06T15:00:00	4	Temperatura máxima	18
69819	7	Sololá	701	Sololá	3	Barraneche	12	Diciembre	2023-12-30T00:00:00	2024-11-06T15:00:00	3	Temperatura mínima	17
69820	7	Sololá	701	Sololá	3	Barraneche	12	Diciembre	2023-12-30T00:00:00	2024-11-06T15:00:00	5	Humedad	58
69821	7	Sololá	701	Sololá	3	Barraneche	12	Diciembre	2023-12-30T00:00:00	2024-11-06T15:00:00	6	Velocidad del viento	11.3
69822	7	Sololá	701	Sololá	3	Barraneche	12	Diciembre	2023-12-30T00:00:00	2024-11-06T15:00:00	7	Dirección del viento	11.27
69823	7	Sololá	701	Sololá	3	Barraneche	12	Diciembre	2023-12-30T00:00:00	2024-11-06T15:00:00	1	Precipitación	0
69824	7	Sololá	701	Sololá	3	Barraneche	12	Diciembre	2023-12-30T00:00:00	2024-11-06T15:00:00	8	Radiación solar	254
69825	7	Sololá	701	Sololá	3	Barraneche	12	Diciembre	2023-12-30T00:00:00	2024-11-06T16:00:00	2	Temperatura media	16.6
69826	7	Sololá	701	Sololá	3	Barraneche	12	Diciembre	2023-12-30T00:00:00	2024-11-06T16:00:00	4	Temperatura máxima	17.1
69827	7	Sololá	701	Sololá	3	Barraneche	12	Diciembre	2023-12-30T00:00:00	2024-11-06T16:00:00	3	Temperatura mínima	16.3
69828	7	Sololá	701	Sololá	3	Barraneche	12	Diciembre	2023-12-30T00:00:00	2024-11-06T16:00:00	5	Humedad	58
69829	7	Sololá	701	Sololá	3	Barraneche	12	Diciembre	2023-12-30T00:00:00	2024-11-06T16:00:00	6	Velocidad del viento	11.3
69830	7	Sololá	701	Sololá	3	Barraneche	12	Diciembre	2023-12-30T00:00:00	2024-11-06T16:00:00	7	Dirección del viento	11.27
69831	7	Sololá	701	Sololá	3	Barraneche	12	Diciembre	2023-12-30T00:00:00	2024-11-06T16:00:00	1	Precipitación	0
69832	7	Sololá	701	Sololá	3	Barraneche	12	Diciembre	2023-12-30T00:00:00	2024-11-06T16:00:00	8	Radiación solar	231
69833	7	Sololá	701	Sololá	3	Barraneche	12	Diciembre	2023-12-30T00:00:00	2024-11-06T17:00:00	2	Temperatura media	15.4
69834	7	Sololá	701	Sololá	3	Barraneche	12	Diciembre	2023-12-30T00:00:00	2024-11-06T17:00:00	4	Temperatura máxima	16.6
69835	7	Sololá	701	Sololá	3	Barraneche	12	Diciembre	2023-12-30T00:00:00	2024-11-06T17:00:00	3	Temperatura mínima	15.4
69836	7	Sololá	701	Sololá	3	Barraneche	12	Diciembre	2023-12-30T00:00:00	2024-11-06T17:00:00	5	Humedad	61
69837	7	Sololá	701	Sololá	3	Barraneche	12	Diciembre	2023-12-30T00:00:00	2024-11-06T17:00:00	6	Velocidad del viento	6.4
69838	7	Sololá	701	Sololá	3	Barraneche	12	Diciembre	2023-12-30T00:00:00	2024-11-06T17:00:00	7	Dirección del viento	6.44
69839	7	Sololá	701	Sololá	3	Barraneche	12	Diciembre	2023-12-30T00:00:00	2024-11-06T17:00:00	1	Precipitación	0
69840	7	Sololá	701	Sololá	3	Barraneche	12	Diciembre	2023-12-30T00:00:00	2024-11-06T17:00:00	8	Radiación solar	94
69841	7	Sololá	701	Sololá	3	Barraneche	12	Diciembre	2023-12-30T00:00:00	2024-11-06T18:00:00	2	Temperatura media	13.7
69842	7	Sololá	701	Sololá	3	Barraneche	12	Diciembre	2023-12-30T00:00:00	2024-11-06T18:00:00	4	Temperatura máxima	15.4
69843	7	Sololá	701	Sololá	3	Barraneche	12	Diciembre	2023-12-30T00:00:00	2024-11-06T18:00:00	3	Temperatura mínima	13.6
69844	7	Sololá	701	Sololá	3	Barraneche	12	Diciembre	2023-12-30T00:00:00	2024-11-06T18:00:00	5	Humedad	65
69845	7	Sololá	701	Sololá	3	Barraneche	12	Diciembre	2023-12-30T00:00:00	2024-11-06T18:00:00	6	Velocidad del viento	3.2
69846	7	Sololá	701	Sololá	3	Barraneche	12	Diciembre	2023-12-30T00:00:00	2024-11-06T18:00:00	7	Dirección del viento	3.22
69847	7	Sololá	701	Sololá	3	Barraneche	12	Diciembre	2023-12-30T00:00:00	2024-11-06T18:00:00	1	Precipitación	0
69848	7	Sololá	701	Sololá	3	Barraneche	12	Diciembre	2023-12-30T00:00:00	2024-11-06T18:00:00	8	Radiación solar	15
69849	7	Sololá	701	Sololá	3	Barraneche	12	Diciembre	2023-12-30T00:00:00	2024-11-06T19:00:00	2	Temperatura media	12.3
69850	7	Sololá	701	Sololá	3	Barraneche	12	Diciembre	2023-12-30T00:00:00	2024-11-06T19:00:00	4	Temperatura máxima	13.8
69851	7	Sololá	701	Sololá	3	Barraneche	12	Diciembre	2023-12-30T00:00:00	2024-11-06T19:00:00	3	Temperatura mínima	12.2
69852	7	Sololá	701	Sololá	3	Barraneche	12	Diciembre	2023-12-30T00:00:00	2024-11-06T19:00:00	5	Humedad	68
69853	7	Sololá	701	Sololá	3	Barraneche	12	Diciembre	2023-12-30T00:00:00	2024-11-06T19:00:00	6	Velocidad del viento	4.8
69854	7	Sololá	701	Sololá	3	Barraneche	12	Diciembre	2023-12-30T00:00:00	2024-11-06T19:00:00	7	Dirección del viento	4.83
69855	7	Sololá	701	Sololá	3	Barraneche	12	Diciembre	2023-12-30T00:00:00	2024-11-06T19:00:00	1	Precipitación	0
69856	7	Sololá	701	Sololá	3	Barraneche	12	Diciembre	2023-12-30T00:00:00	2024-11-06T19:00:00	8	Radiación solar	0
69857	7	Sololá	701	Sololá	3	Barraneche	12	Diciembre	2023-12-30T00:00:00	2024-11-06T20:00:00	2	Temperatura media	10.6
69858	7	Sololá	701	Sololá	3	Barraneche	12	Diciembre	2023-12-30T00:00:00	2024-11-06T20:00:00	4	Temperatura máxima	12.3
69859	7	Sololá	701	Sololá	3	Barraneche	12	Diciembre	2023-12-30T00:00:00	2024-11-06T20:00:00	3	Temperatura mínima	10.6
69860	7	Sololá	701	Sololá	3	Barraneche	12	Diciembre	2023-12-30T00:00:00	2024-11-06T20:00:00	5	Humedad	68
69861	7	Sololá	701	Sololá	3	Barraneche	12	Diciembre	2023-12-30T00:00:00	2024-11-06T20:00:00	6	Velocidad del viento	3.2
69862	7	Sololá	701	Sololá	3	Barraneche	12	Diciembre	2023-12-30T00:00:00	2024-11-06T20:00:00	7	Dirección del viento	3.22
69863	7	Sololá	701	Sololá	3	Barraneche	12	Diciembre	2023-12-30T00:00:00	2024-11-06T20:00:00	1	Precipitación	0
69864	7	Sololá	701	Sololá	3	Barraneche	12	Diciembre	2023-12-30T00:00:00	2024-11-06T20:00:00	8	Radiación solar	0
69865	7	Sololá	701	Sololá	3	Barraneche	12	Diciembre	2023-12-30T00:00:00	2024-11-06T21:00:00	2	Temperatura media	11.8
69866	7	Sololá	701	Sololá	3	Barraneche	12	Diciembre	2023-12-30T00:00:00	2024-11-06T21:00:00	4	Temperatura máxima	11.8
69867	7	Sololá	701	Sololá	3	Barraneche	12	Diciembre	2023-12-30T00:00:00	2024-11-06T21:00:00	3	Temperatura mínima	10.4
69868	7	Sololá	701	Sololá	3	Barraneche	12	Diciembre	2023-12-30T00:00:00	2024-11-06T21:00:00	5	Humedad	63
69869	7	Sololá	701	Sololá	3	Barraneche	12	Diciembre	2023-12-30T00:00:00	2024-11-06T21:00:00	6	Velocidad del viento	4.8
69870	7	Sololá	701	Sololá	3	Barraneche	12	Diciembre	2023-12-30T00:00:00	2024-11-06T21:00:00	7	Dirección del viento	4.83
69871	7	Sololá	701	Sololá	3	Barraneche	12	Diciembre	2023-12-30T00:00:00	2024-11-06T21:00:00	1	Precipitación	0
69872	7	Sololá	701	Sololá	3	Barraneche	12	Diciembre	2023-12-30T00:00:00	2024-11-06T21:00:00	8	Radiación solar	0
69873	7	Sololá	701	Sololá	3	Barraneche	12	Diciembre	2023-12-30T00:00:00	2024-11-06T22:00:00	2	Temperatura media	10.4
69874	7	Sololá	701	Sololá	3	Barraneche	12	Diciembre	2023-12-30T00:00:00	2024-11-06T22:00:00	4	Temperatura máxima	12.2
69875	7	Sololá	701	Sololá	3	Barraneche	12	Diciembre	2023-12-30T00:00:00	2024-11-06T22:00:00	3	Temperatura mínima	10.2
69876	7	Sololá	701	Sololá	3	Barraneche	12	Diciembre	2023-12-30T00:00:00	2024-11-06T22:00:00	5	Humedad	68
69877	7	Sololá	701	Sololá	3	Barraneche	12	Diciembre	2023-12-30T00:00:00	2024-11-06T22:00:00	6	Velocidad del viento	6.4
69878	7	Sololá	701	Sololá	3	Barraneche	12	Diciembre	2023-12-30T00:00:00	2024-11-06T22:00:00	7	Dirección del viento	6.44
69879	7	Sololá	701	Sololá	3	Barraneche	12	Diciembre	2023-12-30T00:00:00	2024-11-06T22:00:00	1	Precipitación	0
69880	7	Sololá	701	Sololá	3	Barraneche	12	Diciembre	2023-12-30T00:00:00	2024-11-06T22:00:00	8	Radiación solar	0
69881	7	Sololá	701	Sololá	3	Barraneche	12	Diciembre	2023-12-30T00:00:00	2024-11-06T23:00:00	2	Temperatura media	10.3
69882	7	Sololá	701	Sololá	3	Barraneche	12	Diciembre	2023-12-30T00:00:00	2024-11-06T23:00:00	4	Temperatura máxima	11.3
69883	7	Sololá	701	Sololá	3	Barraneche	12	Diciembre	2023-12-30T00:00:00	2024-11-06T23:00:00	3	Temperatura mínima	9.8
69884	7	Sololá	701	Sololá	3	Barraneche	12	Diciembre	2023-12-30T00:00:00	2024-11-06T23:00:00	5	Humedad	64
69885	7	Sololá	701	Sololá	3	Barraneche	12	Diciembre	2023-12-30T00:00:00	2024-11-06T23:00:00	6	Velocidad del viento	3.2
69886	7	Sololá	701	Sololá	3	Barraneche	12	Diciembre	2023-12-30T00:00:00	2024-11-06T23:00:00	7	Dirección del viento	3.22
69887	7	Sololá	701	Sololá	3	Barraneche	12	Diciembre	2023-12-30T00:00:00	2024-11-06T23:00:00	1	Precipitación	0
69888	7	Sololá	701	Sololá	3	Barraneche	12	Diciembre	2023-12-30T00:00:00	2024-11-06T23:00:00	8	Radiación solar	0
69889	7	Sololá	701	Sololá	3	Barraneche	12	Diciembre	2023-12-31T00:00:00	2024-11-06T00:00:00	2	Temperatura media	9.6
69890	7	Sololá	701	Sololá	3	Barraneche	12	Diciembre	2023-12-31T00:00:00	2024-11-06T00:00:00	4	Temperatura máxima	10.8
69891	7	Sololá	701	Sololá	3	Barraneche	12	Diciembre	2023-12-31T00:00:00	2024-11-06T00:00:00	3	Temperatura mínima	9.6
69892	7	Sololá	701	Sololá	3	Barraneche	12	Diciembre	2023-12-31T00:00:00	2024-11-06T00:00:00	5	Humedad	65
69893	7	Sololá	701	Sololá	3	Barraneche	12	Diciembre	2023-12-31T00:00:00	2024-11-06T00:00:00	6	Velocidad del viento	4.8
69894	7	Sololá	701	Sololá	3	Barraneche	12	Diciembre	2023-12-31T00:00:00	2024-11-06T00:00:00	7	Dirección del viento	4.83
69895	7	Sololá	701	Sololá	3	Barraneche	12	Diciembre	2023-12-31T00:00:00	2024-11-06T00:00:00	1	Precipitación	0
69896	7	Sololá	701	Sololá	3	Barraneche	12	Diciembre	2023-12-31T00:00:00	2024-11-06T00:00:00	8	Radiación solar	0
69897	7	Sololá	701	Sololá	3	Barraneche	12	Diciembre	2023-12-31T00:00:00	2024-11-06T01:00:00	2	Temperatura media	8.4
69898	7	Sololá	701	Sololá	3	Barraneche	12	Diciembre	2023-12-31T00:00:00	2024-11-06T01:00:00	4	Temperatura máxima	9.6
69899	7	Sololá	701	Sololá	3	Barraneche	12	Diciembre	2023-12-31T00:00:00	2024-11-06T01:00:00	3	Temperatura mínima	8.4
69900	7	Sololá	701	Sololá	3	Barraneche	12	Diciembre	2023-12-31T00:00:00	2024-11-06T01:00:00	5	Humedad	65
69901	7	Sololá	701	Sololá	3	Barraneche	12	Diciembre	2023-12-31T00:00:00	2024-11-06T01:00:00	6	Velocidad del viento	3.2
69902	7	Sololá	701	Sololá	3	Barraneche	12	Diciembre	2023-12-31T00:00:00	2024-11-06T01:00:00	7	Dirección del viento	3.22
69903	7	Sololá	701	Sololá	3	Barraneche	12	Diciembre	2023-12-31T00:00:00	2024-11-06T01:00:00	1	Precipitación	0
69904	7	Sololá	701	Sololá	3	Barraneche	12	Diciembre	2023-12-31T00:00:00	2024-11-06T01:00:00	8	Radiación solar	0
69905	7	Sololá	701	Sololá	3	Barraneche	12	Diciembre	2023-12-31T00:00:00	2024-11-06T02:00:00	2	Temperatura media	8.1
69906	7	Sololá	701	Sololá	3	Barraneche	12	Diciembre	2023-12-31T00:00:00	2024-11-06T02:00:00	4	Temperatura máxima	8.5
69907	7	Sololá	701	Sololá	3	Barraneche	12	Diciembre	2023-12-31T00:00:00	2024-11-06T02:00:00	3	Temperatura mínima	7.9
69908	7	Sololá	701	Sololá	3	Barraneche	12	Diciembre	2023-12-31T00:00:00	2024-11-06T02:00:00	5	Humedad	64
69909	7	Sololá	701	Sololá	3	Barraneche	12	Diciembre	2023-12-31T00:00:00	2024-11-06T02:00:00	6	Velocidad del viento	4.8
69910	7	Sololá	701	Sololá	3	Barraneche	12	Diciembre	2023-12-31T00:00:00	2024-11-06T02:00:00	7	Dirección del viento	4.83
69911	7	Sololá	701	Sololá	3	Barraneche	12	Diciembre	2023-12-31T00:00:00	2024-11-06T02:00:00	1	Precipitación	0
69912	7	Sololá	701	Sololá	3	Barraneche	12	Diciembre	2023-12-31T00:00:00	2024-11-06T02:00:00	8	Radiación solar	0
69913	7	Sololá	701	Sololá	3	Barraneche	12	Diciembre	2023-12-31T00:00:00	2024-11-06T03:00:00	2	Temperatura media	7.7
69914	7	Sololá	701	Sololá	3	Barraneche	12	Diciembre	2023-12-31T00:00:00	2024-11-06T03:00:00	4	Temperatura máxima	8.2
69915	7	Sololá	701	Sololá	3	Barraneche	12	Diciembre	2023-12-31T00:00:00	2024-11-06T03:00:00	3	Temperatura mínima	7.5
69916	7	Sololá	701	Sololá	3	Barraneche	12	Diciembre	2023-12-31T00:00:00	2024-11-06T03:00:00	5	Humedad	66
69917	7	Sololá	701	Sololá	3	Barraneche	12	Diciembre	2023-12-31T00:00:00	2024-11-06T03:00:00	6	Velocidad del viento	3.2
69918	7	Sololá	701	Sololá	3	Barraneche	12	Diciembre	2023-12-31T00:00:00	2024-11-06T03:00:00	7	Dirección del viento	3.22
69919	7	Sololá	701	Sololá	3	Barraneche	12	Diciembre	2023-12-31T00:00:00	2024-11-06T03:00:00	1	Precipitación	0
69920	7	Sololá	701	Sololá	3	Barraneche	12	Diciembre	2023-12-31T00:00:00	2024-11-06T03:00:00	8	Radiación solar	0
69921	7	Sololá	701	Sololá	3	Barraneche	12	Diciembre	2023-12-31T00:00:00	2024-11-06T04:00:00	2	Temperatura media	7.7
69922	7	Sololá	701	Sololá	3	Barraneche	12	Diciembre	2023-12-31T00:00:00	2024-11-06T04:00:00	4	Temperatura máxima	7.8
69923	7	Sololá	701	Sololá	3	Barraneche	12	Diciembre	2023-12-31T00:00:00	2024-11-06T04:00:00	3	Temperatura mínima	7.4
69924	7	Sololá	701	Sololá	3	Barraneche	12	Diciembre	2023-12-31T00:00:00	2024-11-06T04:00:00	5	Humedad	66
69925	7	Sololá	701	Sololá	3	Barraneche	12	Diciembre	2023-12-31T00:00:00	2024-11-06T04:00:00	6	Velocidad del viento	4.8
69926	7	Sololá	701	Sololá	3	Barraneche	12	Diciembre	2023-12-31T00:00:00	2024-11-06T04:00:00	7	Dirección del viento	4.83
69927	7	Sololá	701	Sololá	3	Barraneche	12	Diciembre	2023-12-31T00:00:00	2024-11-06T04:00:00	1	Precipitación	0
69928	7	Sololá	701	Sololá	3	Barraneche	12	Diciembre	2023-12-31T00:00:00	2024-11-06T04:00:00	8	Radiación solar	0
69929	7	Sololá	701	Sololá	3	Barraneche	12	Diciembre	2023-12-31T00:00:00	2024-11-06T05:00:00	2	Temperatura media	8.2
69930	7	Sololá	701	Sololá	3	Barraneche	12	Diciembre	2023-12-31T00:00:00	2024-11-06T05:00:00	4	Temperatura máxima	8.2
69931	7	Sololá	701	Sololá	3	Barraneche	12	Diciembre	2023-12-31T00:00:00	2024-11-06T05:00:00	3	Temperatura mínima	7.3
69932	7	Sololá	701	Sololá	3	Barraneche	12	Diciembre	2023-12-31T00:00:00	2024-11-06T05:00:00	5	Humedad	63
69933	7	Sololá	701	Sololá	3	Barraneche	12	Diciembre	2023-12-31T00:00:00	2024-11-06T05:00:00	6	Velocidad del viento	4.8
69934	7	Sololá	701	Sololá	3	Barraneche	12	Diciembre	2023-12-31T00:00:00	2024-11-06T05:00:00	7	Dirección del viento	4.83
69935	7	Sololá	701	Sololá	3	Barraneche	12	Diciembre	2023-12-31T00:00:00	2024-11-06T05:00:00	1	Precipitación	0
69936	7	Sololá	701	Sololá	3	Barraneche	12	Diciembre	2023-12-31T00:00:00	2024-11-06T05:00:00	8	Radiación solar	0
69937	7	Sololá	701	Sololá	3	Barraneche	12	Diciembre	2023-12-31T00:00:00	2024-11-06T06:00:00	2	Temperatura media	7.1
69938	7	Sololá	701	Sololá	3	Barraneche	12	Diciembre	2023-12-31T00:00:00	2024-11-06T06:00:00	4	Temperatura máxima	8.2
69939	7	Sololá	701	Sololá	3	Barraneche	12	Diciembre	2023-12-31T00:00:00	2024-11-06T06:00:00	3	Temperatura mínima	6.9
69940	7	Sololá	701	Sololá	3	Barraneche	12	Diciembre	2023-12-31T00:00:00	2024-11-06T06:00:00	5	Humedad	65
69941	7	Sololá	701	Sololá	3	Barraneche	12	Diciembre	2023-12-31T00:00:00	2024-11-06T06:00:00	6	Velocidad del viento	4.8
69942	7	Sololá	701	Sololá	3	Barraneche	12	Diciembre	2023-12-31T00:00:00	2024-11-06T06:00:00	7	Dirección del viento	4.83
69943	7	Sololá	701	Sololá	3	Barraneche	12	Diciembre	2023-12-31T00:00:00	2024-11-06T06:00:00	1	Precipitación	0
69944	7	Sololá	701	Sololá	3	Barraneche	12	Diciembre	2023-12-31T00:00:00	2024-11-06T06:00:00	8	Radiación solar	0
69945	7	Sololá	701	Sololá	3	Barraneche	12	Diciembre	2023-12-31T00:00:00	2024-11-06T07:00:00	2	Temperatura media	7.3
69946	7	Sololá	701	Sololá	3	Barraneche	12	Diciembre	2023-12-31T00:00:00	2024-11-06T07:00:00	4	Temperatura máxima	7.5
69947	7	Sololá	701	Sololá	3	Barraneche	12	Diciembre	2023-12-31T00:00:00	2024-11-06T07:00:00	3	Temperatura mínima	7
69948	7	Sololá	701	Sololá	3	Barraneche	12	Diciembre	2023-12-31T00:00:00	2024-11-06T07:00:00	5	Humedad	66
69949	7	Sololá	701	Sololá	3	Barraneche	12	Diciembre	2023-12-31T00:00:00	2024-11-06T07:00:00	6	Velocidad del viento	4.8
69950	7	Sololá	701	Sololá	3	Barraneche	12	Diciembre	2023-12-31T00:00:00	2024-11-06T07:00:00	7	Dirección del viento	4.83
69951	7	Sololá	701	Sololá	3	Barraneche	12	Diciembre	2023-12-31T00:00:00	2024-11-06T07:00:00	1	Precipitación	0
69952	7	Sololá	701	Sololá	3	Barraneche	12	Diciembre	2023-12-31T00:00:00	2024-11-06T07:00:00	8	Radiación solar	6
69953	7	Sololá	701	Sololá	3	Barraneche	12	Diciembre	2023-12-31T00:00:00	2024-11-06T08:00:00	2	Temperatura media	12.3
69954	7	Sololá	701	Sololá	3	Barraneche	12	Diciembre	2023-12-31T00:00:00	2024-11-06T08:00:00	4	Temperatura máxima	12.3
69955	7	Sololá	701	Sololá	3	Barraneche	12	Diciembre	2023-12-31T00:00:00	2024-11-06T08:00:00	3	Temperatura mínima	7.3
69956	7	Sololá	701	Sololá	3	Barraneche	12	Diciembre	2023-12-31T00:00:00	2024-11-06T08:00:00	5	Humedad	57
69957	7	Sololá	701	Sololá	3	Barraneche	12	Diciembre	2023-12-31T00:00:00	2024-11-06T08:00:00	6	Velocidad del viento	1.6
69958	7	Sololá	701	Sololá	3	Barraneche	12	Diciembre	2023-12-31T00:00:00	2024-11-06T08:00:00	7	Dirección del viento	1.61
69959	7	Sololá	701	Sololá	3	Barraneche	12	Diciembre	2023-12-31T00:00:00	2024-11-06T08:00:00	1	Precipitación	0
69960	7	Sololá	701	Sololá	3	Barraneche	12	Diciembre	2023-12-31T00:00:00	2024-11-06T08:00:00	8	Radiación solar	168
69961	7	Sololá	701	Sololá	3	Barraneche	12	Diciembre	2023-12-31T00:00:00	2024-11-06T09:00:00	2	Temperatura media	15.4
69962	7	Sololá	701	Sololá	3	Barraneche	12	Diciembre	2023-12-31T00:00:00	2024-11-06T09:00:00	4	Temperatura máxima	15.4
69963	7	Sololá	701	Sololá	3	Barraneche	12	Diciembre	2023-12-31T00:00:00	2024-11-06T09:00:00	3	Temperatura mínima	12.3
69964	7	Sololá	701	Sololá	3	Barraneche	12	Diciembre	2023-12-31T00:00:00	2024-11-06T09:00:00	5	Humedad	52
69965	7	Sololá	701	Sololá	3	Barraneche	12	Diciembre	2023-12-31T00:00:00	2024-11-06T09:00:00	6	Velocidad del viento	3.2
69966	7	Sololá	701	Sololá	3	Barraneche	12	Diciembre	2023-12-31T00:00:00	2024-11-06T09:00:00	7	Dirección del viento	3.22
69967	7	Sololá	701	Sololá	3	Barraneche	12	Diciembre	2023-12-31T00:00:00	2024-11-06T09:00:00	1	Precipitación	0
69968	7	Sololá	701	Sololá	3	Barraneche	12	Diciembre	2023-12-31T00:00:00	2024-11-06T09:00:00	8	Radiación solar	409
69969	7	Sololá	701	Sololá	3	Barraneche	12	Diciembre	2023-12-31T00:00:00	2024-11-06T10:00:00	2	Temperatura media	16.8
69970	7	Sololá	701	Sololá	3	Barraneche	12	Diciembre	2023-12-31T00:00:00	2024-11-06T10:00:00	4	Temperatura máxima	17.3
69971	7	Sololá	701	Sololá	3	Barraneche	12	Diciembre	2023-12-31T00:00:00	2024-11-06T10:00:00	3	Temperatura mínima	15.4
69972	7	Sololá	701	Sololá	3	Barraneche	12	Diciembre	2023-12-31T00:00:00	2024-11-06T10:00:00	5	Humedad	42
69973	7	Sololá	701	Sololá	3	Barraneche	12	Diciembre	2023-12-31T00:00:00	2024-11-06T10:00:00	6	Velocidad del viento	8
69974	7	Sololá	701	Sololá	3	Barraneche	12	Diciembre	2023-12-31T00:00:00	2024-11-06T10:00:00	7	Dirección del viento	8.05
69975	7	Sololá	701	Sololá	3	Barraneche	12	Diciembre	2023-12-31T00:00:00	2024-11-06T10:00:00	1	Precipitación	0
69976	7	Sololá	701	Sololá	3	Barraneche	12	Diciembre	2023-12-31T00:00:00	2024-11-06T10:00:00	8	Radiación solar	614
69977	7	Sololá	701	Sololá	3	Barraneche	12	Diciembre	2023-12-31T00:00:00	2024-11-06T11:00:00	2	Temperatura media	18
69978	7	Sololá	701	Sololá	3	Barraneche	12	Diciembre	2023-12-31T00:00:00	2024-11-06T11:00:00	4	Temperatura máxima	18.1
69979	7	Sololá	701	Sololá	3	Barraneche	12	Diciembre	2023-12-31T00:00:00	2024-11-06T11:00:00	3	Temperatura mínima	16.8
69980	7	Sololá	701	Sololá	3	Barraneche	12	Diciembre	2023-12-31T00:00:00	2024-11-06T11:00:00	5	Humedad	37
69981	7	Sololá	701	Sololá	3	Barraneche	12	Diciembre	2023-12-31T00:00:00	2024-11-06T11:00:00	6	Velocidad del viento	11.3
69982	7	Sololá	701	Sololá	3	Barraneche	12	Diciembre	2023-12-31T00:00:00	2024-11-06T11:00:00	7	Dirección del viento	11.27
69983	7	Sololá	701	Sololá	3	Barraneche	12	Diciembre	2023-12-31T00:00:00	2024-11-06T11:00:00	1	Precipitación	0
69984	7	Sololá	701	Sololá	3	Barraneche	12	Diciembre	2023-12-31T00:00:00	2024-11-06T11:00:00	8	Radiación solar	763
69985	7	Sololá	701	Sololá	3	Barraneche	12	Diciembre	2023-12-31T00:00:00	2024-11-06T12:00:00	2	Temperatura media	18.7
69986	7	Sololá	701	Sololá	3	Barraneche	12	Diciembre	2023-12-31T00:00:00	2024-11-06T12:00:00	4	Temperatura máxima	19.3
69987	7	Sololá	701	Sololá	3	Barraneche	12	Diciembre	2023-12-31T00:00:00	2024-11-06T12:00:00	3	Temperatura mínima	18
69988	7	Sololá	701	Sololá	3	Barraneche	12	Diciembre	2023-12-31T00:00:00	2024-11-06T12:00:00	5	Humedad	43
69989	7	Sololá	701	Sololá	3	Barraneche	12	Diciembre	2023-12-31T00:00:00	2024-11-06T12:00:00	6	Velocidad del viento	9.7
69990	7	Sololá	701	Sololá	3	Barraneche	12	Diciembre	2023-12-31T00:00:00	2024-11-06T12:00:00	7	Dirección del viento	9.66
69991	7	Sololá	701	Sololá	3	Barraneche	12	Diciembre	2023-12-31T00:00:00	2024-11-06T12:00:00	1	Precipitación	0
69992	7	Sololá	701	Sololá	3	Barraneche	12	Diciembre	2023-12-31T00:00:00	2024-11-06T12:00:00	8	Radiación solar	875
69993	7	Sololá	701	Sololá	3	Barraneche	12	Diciembre	2023-12-31T00:00:00	2024-11-06T13:00:00	2	Temperatura media	18.3
69994	7	Sololá	701	Sololá	3	Barraneche	12	Diciembre	2023-12-31T00:00:00	2024-11-06T13:00:00	4	Temperatura máxima	19.3
69995	7	Sololá	701	Sololá	3	Barraneche	12	Diciembre	2023-12-31T00:00:00	2024-11-06T13:00:00	3	Temperatura mínima	18.3
69996	7	Sololá	701	Sololá	3	Barraneche	12	Diciembre	2023-12-31T00:00:00	2024-11-06T13:00:00	5	Humedad	41
69997	7	Sololá	701	Sololá	3	Barraneche	12	Diciembre	2023-12-31T00:00:00	2024-11-06T13:00:00	6	Velocidad del viento	12.9
69998	7	Sololá	701	Sololá	3	Barraneche	12	Diciembre	2023-12-31T00:00:00	2024-11-06T13:00:00	7	Dirección del viento	12.87
69999	7	Sololá	701	Sololá	3	Barraneche	12	Diciembre	2023-12-31T00:00:00	2024-11-06T13:00:00	1	Precipitación	0
70000	7	Sololá	701	Sololá	3	Barraneche	12	Diciembre	2023-12-31T00:00:00	2024-11-06T13:00:00	8	Radiación solar	926
70001	7	Sololá	701	Sololá	3	Barraneche	12	Diciembre	2023-12-31T00:00:00	2024-11-06T14:00:00	2	Temperatura media	18.3
70002	7	Sololá	701	Sololá	3	Barraneche	12	Diciembre	2023-12-31T00:00:00	2024-11-06T14:00:00	4	Temperatura máxima	18.9
70003	7	Sololá	701	Sololá	3	Barraneche	12	Diciembre	2023-12-31T00:00:00	2024-11-06T14:00:00	3	Temperatura mínima	18.2
70004	7	Sololá	701	Sololá	3	Barraneche	12	Diciembre	2023-12-31T00:00:00	2024-11-06T14:00:00	5	Humedad	51
70005	7	Sololá	701	Sololá	3	Barraneche	12	Diciembre	2023-12-31T00:00:00	2024-11-06T14:00:00	6	Velocidad del viento	12.9
70006	7	Sololá	701	Sololá	3	Barraneche	12	Diciembre	2023-12-31T00:00:00	2024-11-06T14:00:00	7	Dirección del viento	12.87
70007	7	Sololá	701	Sololá	3	Barraneche	12	Diciembre	2023-12-31T00:00:00	2024-11-06T14:00:00	1	Precipitación	0
70008	7	Sololá	701	Sololá	3	Barraneche	12	Diciembre	2023-12-31T00:00:00	2024-11-06T14:00:00	8	Radiación solar	873
70009	7	Sololá	701	Sololá	3	Barraneche	12	Diciembre	2023-12-31T00:00:00	2024-11-06T15:00:00	2	Temperatura media	17
70010	7	Sololá	701	Sololá	3	Barraneche	12	Diciembre	2023-12-31T00:00:00	2024-11-06T15:00:00	4	Temperatura máxima	18.5
70011	7	Sololá	701	Sololá	3	Barraneche	12	Diciembre	2023-12-31T00:00:00	2024-11-06T15:00:00	3	Temperatura mínima	16.9
70012	7	Sololá	701	Sololá	3	Barraneche	12	Diciembre	2023-12-31T00:00:00	2024-11-06T15:00:00	5	Humedad	56
70013	7	Sololá	701	Sololá	3	Barraneche	12	Diciembre	2023-12-31T00:00:00	2024-11-06T15:00:00	6	Velocidad del viento	9.7
70014	7	Sololá	701	Sololá	3	Barraneche	12	Diciembre	2023-12-31T00:00:00	2024-11-06T15:00:00	7	Dirección del viento	9.66
70015	7	Sololá	701	Sololá	3	Barraneche	12	Diciembre	2023-12-31T00:00:00	2024-11-06T15:00:00	1	Precipitación	0
70016	7	Sololá	701	Sololá	3	Barraneche	12	Diciembre	2023-12-31T00:00:00	2024-11-06T15:00:00	8	Radiación solar	400
70017	7	Sololá	701	Sololá	3	Barraneche	12	Diciembre	2023-12-31T00:00:00	2024-11-06T16:00:00	2	Temperatura media	16.6
70018	7	Sololá	701	Sololá	3	Barraneche	12	Diciembre	2023-12-31T00:00:00	2024-11-06T16:00:00	4	Temperatura máxima	17.1
70019	7	Sololá	701	Sololá	3	Barraneche	12	Diciembre	2023-12-31T00:00:00	2024-11-06T16:00:00	3	Temperatura mínima	16.5
70020	7	Sololá	701	Sololá	3	Barraneche	12	Diciembre	2023-12-31T00:00:00	2024-11-06T16:00:00	5	Humedad	62
70021	7	Sololá	701	Sololá	3	Barraneche	12	Diciembre	2023-12-31T00:00:00	2024-11-06T16:00:00	6	Velocidad del viento	9.7
70022	7	Sololá	701	Sololá	3	Barraneche	12	Diciembre	2023-12-31T00:00:00	2024-11-06T16:00:00	7	Dirección del viento	9.66
70023	7	Sololá	701	Sololá	3	Barraneche	12	Diciembre	2023-12-31T00:00:00	2024-11-06T16:00:00	1	Precipitación	0
70024	7	Sololá	701	Sololá	3	Barraneche	12	Diciembre	2023-12-31T00:00:00	2024-11-06T16:00:00	8	Radiación solar	231
70025	7	Sololá	701	Sololá	3	Barraneche	12	Diciembre	2023-12-31T00:00:00	2024-11-06T17:00:00	2	Temperatura media	15.1
70026	7	Sololá	701	Sololá	3	Barraneche	12	Diciembre	2023-12-31T00:00:00	2024-11-06T17:00:00	4	Temperatura máxima	16.6
70027	7	Sololá	701	Sololá	3	Barraneche	12	Diciembre	2023-12-31T00:00:00	2024-11-06T17:00:00	3	Temperatura mínima	15.1
70028	7	Sololá	701	Sololá	3	Barraneche	12	Diciembre	2023-12-31T00:00:00	2024-11-06T17:00:00	5	Humedad	61
70029	7	Sololá	701	Sololá	3	Barraneche	12	Diciembre	2023-12-31T00:00:00	2024-11-06T17:00:00	6	Velocidad del viento	8
70030	7	Sololá	701	Sololá	3	Barraneche	12	Diciembre	2023-12-31T00:00:00	2024-11-06T17:00:00	7	Dirección del viento	8.05
70031	7	Sololá	701	Sololá	3	Barraneche	12	Diciembre	2023-12-31T00:00:00	2024-11-06T17:00:00	1	Precipitación	0
70032	7	Sololá	701	Sololá	3	Barraneche	12	Diciembre	2023-12-31T00:00:00	2024-11-06T17:00:00	8	Radiación solar	63
70033	7	Sololá	701	Sololá	3	Barraneche	12	Diciembre	2023-12-31T00:00:00	2024-11-06T18:00:00	2	Temperatura media	12.8
70034	7	Sololá	701	Sololá	3	Barraneche	12	Diciembre	2023-12-31T00:00:00	2024-11-06T18:00:00	4	Temperatura máxima	15.1
70035	7	Sololá	701	Sololá	3	Barraneche	12	Diciembre	2023-12-31T00:00:00	2024-11-06T18:00:00	3	Temperatura mínima	12.8
70036	7	Sololá	701	Sololá	3	Barraneche	12	Diciembre	2023-12-31T00:00:00	2024-11-06T18:00:00	5	Humedad	67
70037	7	Sololá	701	Sololá	3	Barraneche	12	Diciembre	2023-12-31T00:00:00	2024-11-06T18:00:00	6	Velocidad del viento	3.2
70038	7	Sololá	701	Sololá	3	Barraneche	12	Diciembre	2023-12-31T00:00:00	2024-11-06T18:00:00	7	Dirección del viento	3.22
70039	7	Sololá	701	Sololá	3	Barraneche	12	Diciembre	2023-12-31T00:00:00	2024-11-06T18:00:00	1	Precipitación	0
70040	7	Sololá	701	Sololá	3	Barraneche	12	Diciembre	2023-12-31T00:00:00	2024-11-06T18:00:00	8	Radiación solar	13
70041	7	Sololá	701	Sololá	3	Barraneche	12	Diciembre	2023-12-31T00:00:00	2024-11-06T19:00:00	2	Temperatura media	11.4
70042	7	Sololá	701	Sololá	3	Barraneche	12	Diciembre	2023-12-31T00:00:00	2024-11-06T19:00:00	4	Temperatura máxima	12.8
70043	7	Sololá	701	Sololá	3	Barraneche	12	Diciembre	2023-12-31T00:00:00	2024-11-06T19:00:00	3	Temperatura mínima	11.4
70044	7	Sololá	701	Sololá	3	Barraneche	12	Diciembre	2023-12-31T00:00:00	2024-11-06T19:00:00	5	Humedad	67
70045	7	Sololá	701	Sololá	3	Barraneche	12	Diciembre	2023-12-31T00:00:00	2024-11-06T19:00:00	6	Velocidad del viento	6.4
70046	7	Sololá	701	Sololá	3	Barraneche	12	Diciembre	2023-12-31T00:00:00	2024-11-06T19:00:00	7	Dirección del viento	6.44
70047	7	Sololá	701	Sololá	3	Barraneche	12	Diciembre	2023-12-31T00:00:00	2024-11-06T19:00:00	1	Precipitación	0
70048	7	Sololá	701	Sololá	3	Barraneche	12	Diciembre	2023-12-31T00:00:00	2024-11-06T19:00:00	8	Radiación solar	0
70049	7	Sololá	701	Sololá	3	Barraneche	12	Diciembre	2023-12-31T00:00:00	2024-11-06T20:00:00	2	Temperatura media	9.9
70050	7	Sololá	701	Sololá	3	Barraneche	12	Diciembre	2023-12-31T00:00:00	2024-11-06T20:00:00	4	Temperatura máxima	11.3
70051	7	Sololá	701	Sololá	3	Barraneche	12	Diciembre	2023-12-31T00:00:00	2024-11-06T20:00:00	3	Temperatura mínima	9.9
70052	7	Sololá	701	Sololá	3	Barraneche	12	Diciembre	2023-12-31T00:00:00	2024-11-06T20:00:00	5	Humedad	66
70053	7	Sololá	701	Sololá	3	Barraneche	12	Diciembre	2023-12-31T00:00:00	2024-11-06T20:00:00	6	Velocidad del viento	4.8
70054	7	Sololá	701	Sololá	3	Barraneche	12	Diciembre	2023-12-31T00:00:00	2024-11-06T20:00:00	7	Dirección del viento	4.83
70055	7	Sololá	701	Sololá	3	Barraneche	12	Diciembre	2023-12-31T00:00:00	2024-11-06T20:00:00	1	Precipitación	0
70056	7	Sololá	701	Sololá	3	Barraneche	12	Diciembre	2023-12-31T00:00:00	2024-11-06T20:00:00	8	Radiación solar	0
70057	7	Sololá	701	Sololá	3	Barraneche	12	Diciembre	2023-12-31T00:00:00	2024-11-06T21:00:00	2	Temperatura media	9.2
70058	7	Sololá	701	Sololá	3	Barraneche	12	Diciembre	2023-12-31T00:00:00	2024-11-06T21:00:00	4	Temperatura máxima	9.9
70059	7	Sololá	701	Sololá	3	Barraneche	12	Diciembre	2023-12-31T00:00:00	2024-11-06T21:00:00	3	Temperatura mínima	9.1
70060	7	Sololá	701	Sololá	3	Barraneche	12	Diciembre	2023-12-31T00:00:00	2024-11-06T21:00:00	5	Humedad	69
70061	7	Sololá	701	Sololá	3	Barraneche	12	Diciembre	2023-12-31T00:00:00	2024-11-06T21:00:00	6	Velocidad del viento	4.8
70062	7	Sololá	701	Sololá	3	Barraneche	12	Diciembre	2023-12-31T00:00:00	2024-11-06T21:00:00	7	Dirección del viento	4.83
70063	7	Sololá	701	Sololá	3	Barraneche	12	Diciembre	2023-12-31T00:00:00	2024-11-06T21:00:00	1	Precipitación	0
70064	7	Sololá	701	Sololá	3	Barraneche	12	Diciembre	2023-12-31T00:00:00	2024-11-06T21:00:00	8	Radiación solar	0
70065	7	Sololá	701	Sololá	3	Barraneche	12	Diciembre	2023-12-31T00:00:00	2024-11-06T22:00:00	2	Temperatura media	9.1
70066	7	Sololá	701	Sololá	3	Barraneche	12	Diciembre	2023-12-31T00:00:00	2024-11-06T22:00:00	4	Temperatura máxima	9.2
70067	7	Sololá	701	Sololá	3	Barraneche	12	Diciembre	2023-12-31T00:00:00	2024-11-06T22:00:00	3	Temperatura mínima	8.8
70068	7	Sololá	701	Sololá	3	Barraneche	12	Diciembre	2023-12-31T00:00:00	2024-11-06T22:00:00	5	Humedad	69
70069	7	Sololá	701	Sololá	3	Barraneche	12	Diciembre	2023-12-31T00:00:00	2024-11-06T22:00:00	6	Velocidad del viento	4.8
70070	7	Sololá	701	Sololá	3	Barraneche	12	Diciembre	2023-12-31T00:00:00	2024-11-06T22:00:00	7	Dirección del viento	4.83
70071	7	Sololá	701	Sololá	3	Barraneche	12	Diciembre	2023-12-31T00:00:00	2024-11-06T22:00:00	1	Precipitación	0
70072	7	Sololá	701	Sololá	3	Barraneche	12	Diciembre	2023-12-31T00:00:00	2024-11-06T22:00:00	8	Radiación solar	0
70073	7	Sololá	701	Sololá	3	Barraneche	12	Diciembre	2023-12-31T00:00:00	2024-11-06T23:00:00	2	Temperatura media	9
70074	7	Sololá	701	Sololá	3	Barraneche	12	Diciembre	2023-12-31T00:00:00	2024-11-06T23:00:00	4	Temperatura máxima	9.3
70075	7	Sololá	701	Sololá	3	Barraneche	12	Diciembre	2023-12-31T00:00:00	2024-11-06T23:00:00	3	Temperatura mínima	9
70076	7	Sololá	701	Sololá	3	Barraneche	12	Diciembre	2023-12-31T00:00:00	2024-11-06T23:00:00	5	Humedad	69
70077	7	Sololá	701	Sololá	3	Barraneche	12	Diciembre	2023-12-31T00:00:00	2024-11-06T23:00:00	6	Velocidad del viento	3.2
70078	7	Sololá	701	Sololá	3	Barraneche	12	Diciembre	2023-12-31T00:00:00	2024-11-06T23:00:00	7	Dirección del viento	3.22
70079	7	Sololá	701	Sololá	3	Barraneche	12	Diciembre	2023-12-31T00:00:00	2024-11-06T23:00:00	1	Precipitación	0
70080	7	Sololá	701	Sololá	3	Barraneche	12	Diciembre	2023-12-31T00:00:00	2024-11-06T23:00:00	8	Radiación solar	0
70081	7	Sololá	702	San José Chacayá	5	Chacayá	1	Enero	2023-01-01T00:00:00	2024-11-06T01:00:00	2	Temperatura media	8.7
70082	7	Sololá	702	San José Chacayá	5	Chacayá	1	Enero	2023-01-01T00:00:00	2024-11-06T01:00:00	4	Temperatura máxima	8.8
70083	7	Sololá	702	San José Chacayá	5	Chacayá	1	Enero	2023-01-01T00:00:00	2024-11-06T01:00:00	3	Temperatura mínima	8.7
70084	7	Sololá	702	San José Chacayá	5	Chacayá	1	Enero	2023-01-01T00:00:00	2024-11-06T01:00:00	5	Humedad	91
70085	7	Sololá	702	San José Chacayá	5	Chacayá	1	Enero	2023-01-01T00:00:00	2024-11-06T01:00:00	6	Velocidad del viento	1.6
70086	7	Sololá	702	San José Chacayá	5	Chacayá	1	Enero	2023-01-01T00:00:00	2024-11-06T01:00:00	7	Dirección del viento	1.61
70087	7	Sololá	702	San José Chacayá	5	Chacayá	1	Enero	2023-01-01T00:00:00	2024-11-06T01:00:00	1	Precipitación	0
70088	7	Sololá	702	San José Chacayá	5	Chacayá	1	Enero	2023-01-01T00:00:00	2024-11-06T01:00:00	8	Radiación solar	0
70089	7	Sololá	702	San José Chacayá	5	Chacayá	1	Enero	2023-01-01T00:00:00	2024-11-06T02:00:00	2	Temperatura media	8
70090	7	Sololá	702	San José Chacayá	5	Chacayá	1	Enero	2023-01-01T00:00:00	2024-11-06T02:00:00	4	Temperatura máxima	8.7
70091	7	Sololá	702	San José Chacayá	5	Chacayá	1	Enero	2023-01-01T00:00:00	2024-11-06T02:00:00	3	Temperatura mínima	7.9
70092	7	Sololá	702	San José Chacayá	5	Chacayá	1	Enero	2023-01-01T00:00:00	2024-11-06T02:00:00	5	Humedad	93
70093	7	Sololá	702	San José Chacayá	5	Chacayá	1	Enero	2023-01-01T00:00:00	2024-11-06T02:00:00	6	Velocidad del viento	1.6
70094	7	Sololá	702	San José Chacayá	5	Chacayá	1	Enero	2023-01-01T00:00:00	2024-11-06T02:00:00	7	Dirección del viento	1.61
70095	7	Sololá	702	San José Chacayá	5	Chacayá	1	Enero	2023-01-01T00:00:00	2024-11-06T02:00:00	1	Precipitación	0
70096	7	Sololá	702	San José Chacayá	5	Chacayá	1	Enero	2023-01-01T00:00:00	2024-11-06T02:00:00	8	Radiación solar	0
70097	7	Sololá	702	San José Chacayá	5	Chacayá	1	Enero	2023-01-01T00:00:00	2024-11-06T03:00:00	2	Temperatura media	8.1
70098	7	Sololá	702	San José Chacayá	5	Chacayá	1	Enero	2023-01-01T00:00:00	2024-11-06T03:00:00	4	Temperatura máxima	8.3
70099	7	Sololá	702	San José Chacayá	5	Chacayá	1	Enero	2023-01-01T00:00:00	2024-11-06T03:00:00	3	Temperatura mínima	7.9
70100	7	Sololá	702	San José Chacayá	5	Chacayá	1	Enero	2023-01-01T00:00:00	2024-11-06T03:00:00	5	Humedad	93
70101	7	Sololá	702	San José Chacayá	5	Chacayá	1	Enero	2023-01-01T00:00:00	2024-11-06T03:00:00	6	Velocidad del viento	1.6
70102	7	Sololá	702	San José Chacayá	5	Chacayá	1	Enero	2023-01-01T00:00:00	2024-11-06T03:00:00	7	Dirección del viento	1.61
70103	7	Sololá	702	San José Chacayá	5	Chacayá	1	Enero	2023-01-01T00:00:00	2024-11-06T03:00:00	1	Precipitación	0
70104	7	Sololá	702	San José Chacayá	5	Chacayá	1	Enero	2023-01-01T00:00:00	2024-11-06T03:00:00	8	Radiación solar	0
70105	7	Sololá	702	San José Chacayá	5	Chacayá	1	Enero	2023-01-01T00:00:00	2024-11-06T04:00:00	2	Temperatura media	8.3
70106	7	Sololá	702	San José Chacayá	5	Chacayá	1	Enero	2023-01-01T00:00:00	2024-11-06T04:00:00	4	Temperatura máxima	8.6
70107	7	Sololá	702	San José Chacayá	5	Chacayá	1	Enero	2023-01-01T00:00:00	2024-11-06T04:00:00	3	Temperatura mínima	8
70108	7	Sololá	702	San José Chacayá	5	Chacayá	1	Enero	2023-01-01T00:00:00	2024-11-06T04:00:00	5	Humedad	93
70109	7	Sololá	702	San José Chacayá	5	Chacayá	1	Enero	2023-01-01T00:00:00	2024-11-06T04:00:00	6	Velocidad del viento	1.6
70110	7	Sololá	702	San José Chacayá	5	Chacayá	1	Enero	2023-01-01T00:00:00	2024-11-06T04:00:00	7	Dirección del viento	1.61
70111	7	Sololá	702	San José Chacayá	5	Chacayá	1	Enero	2023-01-01T00:00:00	2024-11-06T04:00:00	1	Precipitación	0
70112	7	Sololá	702	San José Chacayá	5	Chacayá	1	Enero	2023-01-01T00:00:00	2024-11-06T04:00:00	8	Radiación solar	0
70113	7	Sololá	702	San José Chacayá	5	Chacayá	1	Enero	2023-01-01T00:00:00	2024-11-06T05:00:00	2	Temperatura media	8.2
70114	7	Sololá	702	San José Chacayá	5	Chacayá	1	Enero	2023-01-01T00:00:00	2024-11-06T05:00:00	4	Temperatura máxima	8.4
70115	7	Sololá	702	San José Chacayá	5	Chacayá	1	Enero	2023-01-01T00:00:00	2024-11-06T05:00:00	3	Temperatura mínima	8.2
70116	7	Sololá	702	San José Chacayá	5	Chacayá	1	Enero	2023-01-01T00:00:00	2024-11-06T05:00:00	5	Humedad	92
70117	7	Sololá	702	San José Chacayá	5	Chacayá	1	Enero	2023-01-01T00:00:00	2024-11-06T05:00:00	6	Velocidad del viento	1.6
70118	7	Sololá	702	San José Chacayá	5	Chacayá	1	Enero	2023-01-01T00:00:00	2024-11-06T05:00:00	7	Dirección del viento	1.61
70119	7	Sololá	702	San José Chacayá	5	Chacayá	1	Enero	2023-01-01T00:00:00	2024-11-06T05:00:00	1	Precipitación	0
70120	7	Sololá	702	San José Chacayá	5	Chacayá	1	Enero	2023-01-01T00:00:00	2024-11-06T05:00:00	8	Radiación solar	0
70121	7	Sololá	702	San José Chacayá	5	Chacayá	1	Enero	2023-01-01T00:00:00	2024-11-06T06:00:00	2	Temperatura media	8.3
70122	7	Sololá	702	San José Chacayá	5	Chacayá	1	Enero	2023-01-01T00:00:00	2024-11-06T06:00:00	4	Temperatura máxima	8.5
70123	7	Sololá	702	San José Chacayá	5	Chacayá	1	Enero	2023-01-01T00:00:00	2024-11-06T06:00:00	3	Temperatura mínima	8.1
70124	7	Sololá	702	San José Chacayá	5	Chacayá	1	Enero	2023-01-01T00:00:00	2024-11-06T06:00:00	5	Humedad	91
70125	7	Sololá	702	San José Chacayá	5	Chacayá	1	Enero	2023-01-01T00:00:00	2024-11-06T06:00:00	6	Velocidad del viento	1.6
70126	7	Sololá	702	San José Chacayá	5	Chacayá	1	Enero	2023-01-01T00:00:00	2024-11-06T06:00:00	7	Dirección del viento	1.61
70127	7	Sololá	702	San José Chacayá	5	Chacayá	1	Enero	2023-01-01T00:00:00	2024-11-06T06:00:00	1	Precipitación	0
70128	7	Sololá	702	San José Chacayá	5	Chacayá	1	Enero	2023-01-01T00:00:00	2024-11-06T06:00:00	8	Radiación solar	0
70129	7	Sololá	702	San José Chacayá	5	Chacayá	1	Enero	2023-01-01T00:00:00	2024-11-06T07:00:00	2	Temperatura media	11.4
70130	7	Sololá	702	San José Chacayá	5	Chacayá	1	Enero	2023-01-01T00:00:00	2024-11-06T07:00:00	4	Temperatura máxima	11.4
70131	7	Sololá	702	San José Chacayá	5	Chacayá	1	Enero	2023-01-01T00:00:00	2024-11-06T07:00:00	3	Temperatura mínima	8.2
70132	7	Sololá	702	San José Chacayá	5	Chacayá	1	Enero	2023-01-01T00:00:00	2024-11-06T07:00:00	5	Humedad	88
70133	7	Sololá	702	San José Chacayá	5	Chacayá	1	Enero	2023-01-01T00:00:00	2024-11-06T07:00:00	6	Velocidad del viento	1.6
70134	7	Sololá	702	San José Chacayá	5	Chacayá	1	Enero	2023-01-01T00:00:00	2024-11-06T07:00:00	7	Dirección del viento	1.61
70135	7	Sololá	702	San José Chacayá	5	Chacayá	1	Enero	2023-01-01T00:00:00	2024-11-06T07:00:00	1	Precipitación	0
70136	7	Sololá	702	San José Chacayá	5	Chacayá	1	Enero	2023-01-01T00:00:00	2024-11-06T07:00:00	8	Radiación solar	9
70137	7	Sololá	702	San José Chacayá	5	Chacayá	1	Enero	2023-01-01T00:00:00	2024-11-06T08:00:00	2	Temperatura media	18.5
70138	7	Sololá	702	San José Chacayá	5	Chacayá	1	Enero	2023-01-01T00:00:00	2024-11-06T08:00:00	4	Temperatura máxima	18.5
70139	7	Sololá	702	San José Chacayá	5	Chacayá	1	Enero	2023-01-01T00:00:00	2024-11-06T08:00:00	3	Temperatura mínima	11.4
70140	7	Sololá	702	San José Chacayá	5	Chacayá	1	Enero	2023-01-01T00:00:00	2024-11-06T08:00:00	5	Humedad	64
70141	7	Sololá	702	San José Chacayá	5	Chacayá	1	Enero	2023-01-01T00:00:00	2024-11-06T08:00:00	6	Velocidad del viento	1.6
70142	7	Sololá	702	San José Chacayá	5	Chacayá	1	Enero	2023-01-01T00:00:00	2024-11-06T08:00:00	7	Dirección del viento	1.61
70143	7	Sololá	702	San José Chacayá	5	Chacayá	1	Enero	2023-01-01T00:00:00	2024-11-06T08:00:00	1	Precipitación	0
70144	7	Sololá	702	San José Chacayá	5	Chacayá	1	Enero	2023-01-01T00:00:00	2024-11-06T08:00:00	8	Radiación solar	127
70145	7	Sololá	702	San José Chacayá	5	Chacayá	1	Enero	2023-01-01T00:00:00	2024-11-06T09:00:00	2	Temperatura media	19.8
70146	7	Sololá	702	San José Chacayá	5	Chacayá	1	Enero	2023-01-01T00:00:00	2024-11-06T09:00:00	4	Temperatura máxima	20.2
70147	7	Sololá	702	San José Chacayá	5	Chacayá	1	Enero	2023-01-01T00:00:00	2024-11-06T09:00:00	3	Temperatura mínima	18.5
70148	7	Sololá	702	San José Chacayá	5	Chacayá	1	Enero	2023-01-01T00:00:00	2024-11-06T09:00:00	5	Humedad	66
70149	7	Sololá	702	San José Chacayá	5	Chacayá	1	Enero	2023-01-01T00:00:00	2024-11-06T09:00:00	6	Velocidad del viento	1.6
70150	7	Sololá	702	San José Chacayá	5	Chacayá	1	Enero	2023-01-01T00:00:00	2024-11-06T09:00:00	7	Dirección del viento	1.61
70151	7	Sololá	702	San José Chacayá	5	Chacayá	1	Enero	2023-01-01T00:00:00	2024-11-06T09:00:00	1	Precipitación	0
70152	7	Sololá	702	San José Chacayá	5	Chacayá	1	Enero	2023-01-01T00:00:00	2024-11-06T09:00:00	8	Radiación solar	366
70153	7	Sololá	702	San José Chacayá	5	Chacayá	1	Enero	2023-01-01T00:00:00	2024-11-06T10:00:00	2	Temperatura media	21.4
70154	7	Sololá	702	San José Chacayá	5	Chacayá	1	Enero	2023-01-01T00:00:00	2024-11-06T10:00:00	4	Temperatura máxima	21.4
70155	7	Sololá	702	San José Chacayá	5	Chacayá	1	Enero	2023-01-01T00:00:00	2024-11-06T10:00:00	3	Temperatura mínima	19.6
70156	7	Sololá	702	San José Chacayá	5	Chacayá	1	Enero	2023-01-01T00:00:00	2024-11-06T10:00:00	5	Humedad	59
70157	7	Sololá	702	San José Chacayá	5	Chacayá	1	Enero	2023-01-01T00:00:00	2024-11-06T10:00:00	6	Velocidad del viento	4.8
70158	7	Sololá	702	San José Chacayá	5	Chacayá	1	Enero	2023-01-01T00:00:00	2024-11-06T10:00:00	7	Dirección del viento	4.83
70159	7	Sololá	702	San José Chacayá	5	Chacayá	1	Enero	2023-01-01T00:00:00	2024-11-06T10:00:00	1	Precipitación	0
70160	7	Sololá	702	San José Chacayá	5	Chacayá	1	Enero	2023-01-01T00:00:00	2024-11-06T10:00:00	8	Radiación solar	65
70161	7	Sololá	702	San José Chacayá	5	Chacayá	1	Enero	2023-01-01T00:00:00	2024-11-06T11:00:00	2	Temperatura media	22
70162	7	Sololá	702	San José Chacayá	5	Chacayá	1	Enero	2023-01-01T00:00:00	2024-11-06T11:00:00	4	Temperatura máxima	22.2
70163	7	Sololá	702	San José Chacayá	5	Chacayá	1	Enero	2023-01-01T00:00:00	2024-11-06T11:00:00	3	Temperatura mínima	21.1
70164	7	Sololá	702	San José Chacayá	5	Chacayá	1	Enero	2023-01-01T00:00:00	2024-11-06T11:00:00	5	Humedad	59
70165	7	Sololá	702	San José Chacayá	5	Chacayá	1	Enero	2023-01-01T00:00:00	2024-11-06T11:00:00	6	Velocidad del viento	4.8
70166	7	Sololá	702	San José Chacayá	5	Chacayá	1	Enero	2023-01-01T00:00:00	2024-11-06T11:00:00	7	Dirección del viento	4.83
70167	7	Sololá	702	San José Chacayá	5	Chacayá	1	Enero	2023-01-01T00:00:00	2024-11-06T11:00:00	1	Precipitación	0
70168	7	Sololá	702	San José Chacayá	5	Chacayá	1	Enero	2023-01-01T00:00:00	2024-11-06T11:00:00	8	Radiación solar	40
70169	7	Sololá	702	San José Chacayá	5	Chacayá	1	Enero	2023-01-01T00:00:00	2024-11-06T12:00:00	2	Temperatura media	21.4
70170	7	Sololá	702	San José Chacayá	5	Chacayá	1	Enero	2023-01-01T00:00:00	2024-11-06T12:00:00	4	Temperatura máxima	22.3
70171	7	Sololá	702	San José Chacayá	5	Chacayá	1	Enero	2023-01-01T00:00:00	2024-11-06T12:00:00	3	Temperatura mínima	21.3
70172	7	Sololá	702	San José Chacayá	5	Chacayá	1	Enero	2023-01-01T00:00:00	2024-11-06T12:00:00	5	Humedad	65
70173	7	Sololá	702	San José Chacayá	5	Chacayá	1	Enero	2023-01-01T00:00:00	2024-11-06T12:00:00	6	Velocidad del viento	4.8
70174	7	Sololá	702	San José Chacayá	5	Chacayá	1	Enero	2023-01-01T00:00:00	2024-11-06T12:00:00	7	Dirección del viento	4.83
70175	7	Sololá	702	San José Chacayá	5	Chacayá	1	Enero	2023-01-01T00:00:00	2024-11-06T12:00:00	1	Precipitación	0
70176	7	Sololá	702	San José Chacayá	5	Chacayá	1	Enero	2023-01-01T00:00:00	2024-11-06T12:00:00	8	Radiación solar	729
70177	7	Sololá	702	San José Chacayá	5	Chacayá	1	Enero	2023-01-01T00:00:00	2024-11-06T13:00:00	2	Temperatura media	20.8
70178	7	Sololá	702	San José Chacayá	5	Chacayá	1	Enero	2023-01-01T00:00:00	2024-11-06T13:00:00	4	Temperatura máxima	21.4
70179	7	Sololá	702	San José Chacayá	5	Chacayá	1	Enero	2023-01-01T00:00:00	2024-11-06T13:00:00	3	Temperatura mínima	20.7
70180	7	Sololá	702	San José Chacayá	5	Chacayá	1	Enero	2023-01-01T00:00:00	2024-11-06T13:00:00	5	Humedad	69
70181	7	Sololá	702	San José Chacayá	5	Chacayá	1	Enero	2023-01-01T00:00:00	2024-11-06T13:00:00	6	Velocidad del viento	6.4
70182	7	Sololá	702	San José Chacayá	5	Chacayá	1	Enero	2023-01-01T00:00:00	2024-11-06T13:00:00	7	Dirección del viento	6.44
70183	7	Sololá	702	San José Chacayá	5	Chacayá	1	Enero	2023-01-01T00:00:00	2024-11-06T13:00:00	1	Precipitación	0
70184	7	Sololá	702	San José Chacayá	5	Chacayá	1	Enero	2023-01-01T00:00:00	2024-11-06T13:00:00	8	Radiación solar	819
70185	7	Sololá	702	San José Chacayá	5	Chacayá	1	Enero	2023-01-01T00:00:00	2024-11-06T14:00:00	2	Temperatura media	19.9
70186	7	Sololá	702	San José Chacayá	5	Chacayá	1	Enero	2023-01-01T00:00:00	2024-11-06T14:00:00	4	Temperatura máxima	21
70187	7	Sololá	702	San José Chacayá	5	Chacayá	1	Enero	2023-01-01T00:00:00	2024-11-06T14:00:00	3	Temperatura mínima	19.6
70188	7	Sololá	702	San José Chacayá	5	Chacayá	1	Enero	2023-01-01T00:00:00	2024-11-06T14:00:00	5	Humedad	75
70189	7	Sololá	702	San José Chacayá	5	Chacayá	1	Enero	2023-01-01T00:00:00	2024-11-06T14:00:00	6	Velocidad del viento	4.8
70190	7	Sololá	702	San José Chacayá	5	Chacayá	1	Enero	2023-01-01T00:00:00	2024-11-06T14:00:00	7	Dirección del viento	4.83
70191	7	Sololá	702	San José Chacayá	5	Chacayá	1	Enero	2023-01-01T00:00:00	2024-11-06T14:00:00	1	Precipitación	0
70192	7	Sololá	702	San José Chacayá	5	Chacayá	1	Enero	2023-01-01T00:00:00	2024-11-06T14:00:00	8	Radiación solar	747
70193	7	Sololá	702	San José Chacayá	5	Chacayá	1	Enero	2023-01-01T00:00:00	2024-11-06T15:00:00	2	Temperatura media	18.7
70194	7	Sololá	702	San José Chacayá	5	Chacayá	1	Enero	2023-01-01T00:00:00	2024-11-06T15:00:00	4	Temperatura máxima	20.4
70195	7	Sololá	702	San José Chacayá	5	Chacayá	1	Enero	2023-01-01T00:00:00	2024-11-06T15:00:00	3	Temperatura mínima	18.5
70196	7	Sololá	702	San José Chacayá	5	Chacayá	1	Enero	2023-01-01T00:00:00	2024-11-06T15:00:00	5	Humedad	80
70197	7	Sololá	702	San José Chacayá	5	Chacayá	1	Enero	2023-01-01T00:00:00	2024-11-06T15:00:00	6	Velocidad del viento	3.2
70198	7	Sololá	702	San José Chacayá	5	Chacayá	1	Enero	2023-01-01T00:00:00	2024-11-06T15:00:00	7	Dirección del viento	3.22
70199	7	Sololá	702	San José Chacayá	5	Chacayá	1	Enero	2023-01-01T00:00:00	2024-11-06T15:00:00	1	Precipitación	0
70200	7	Sololá	702	San José Chacayá	5	Chacayá	1	Enero	2023-01-01T00:00:00	2024-11-06T15:00:00	8	Radiación solar	610
70201	7	Sololá	702	San José Chacayá	5	Chacayá	1	Enero	2023-01-01T00:00:00	2024-11-06T16:00:00	2	Temperatura media	16.7
70202	7	Sololá	702	San José Chacayá	5	Chacayá	1	Enero	2023-01-01T00:00:00	2024-11-06T16:00:00	4	Temperatura máxima	18.7
70203	7	Sololá	702	San José Chacayá	5	Chacayá	1	Enero	2023-01-01T00:00:00	2024-11-06T16:00:00	3	Temperatura mínima	16.7
70204	7	Sololá	702	San José Chacayá	5	Chacayá	1	Enero	2023-01-01T00:00:00	2024-11-06T16:00:00	5	Humedad	88
70205	7	Sololá	702	San José Chacayá	5	Chacayá	1	Enero	2023-01-01T00:00:00	2024-11-06T16:00:00	6	Velocidad del viento	1.6
70206	7	Sololá	702	San José Chacayá	5	Chacayá	1	Enero	2023-01-01T00:00:00	2024-11-06T16:00:00	7	Dirección del viento	1.61
70207	7	Sololá	702	San José Chacayá	5	Chacayá	1	Enero	2023-01-01T00:00:00	2024-11-06T16:00:00	1	Precipitación	0
70208	7	Sololá	702	San José Chacayá	5	Chacayá	1	Enero	2023-01-01T00:00:00	2024-11-06T16:00:00	8	Radiación solar	428
70209	7	Sololá	702	San José Chacayá	5	Chacayá	1	Enero	2023-01-01T00:00:00	2024-11-06T17:00:00	2	Temperatura media	15.3
70210	7	Sololá	702	San José Chacayá	5	Chacayá	1	Enero	2023-01-01T00:00:00	2024-11-06T17:00:00	4	Temperatura máxima	16.7
70211	7	Sololá	702	San José Chacayá	5	Chacayá	1	Enero	2023-01-01T00:00:00	2024-11-06T17:00:00	3	Temperatura mínima	15.3
70212	7	Sololá	702	San José Chacayá	5	Chacayá	1	Enero	2023-01-01T00:00:00	2024-11-06T17:00:00	5	Humedad	92
70213	7	Sololá	702	San José Chacayá	5	Chacayá	1	Enero	2023-01-01T00:00:00	2024-11-06T17:00:00	6	Velocidad del viento	1.6
70214	7	Sololá	702	San José Chacayá	5	Chacayá	1	Enero	2023-01-01T00:00:00	2024-11-06T17:00:00	7	Dirección del viento	1.61
70215	7	Sololá	702	San José Chacayá	5	Chacayá	1	Enero	2023-01-01T00:00:00	2024-11-06T17:00:00	1	Precipitación	0
70216	7	Sololá	702	San José Chacayá	5	Chacayá	1	Enero	2023-01-01T00:00:00	2024-11-06T17:00:00	8	Radiación solar	129
70217	7	Sololá	702	San José Chacayá	5	Chacayá	1	Enero	2023-01-01T00:00:00	2024-11-06T18:00:00	2	Temperatura media	14.6
70218	7	Sololá	702	San José Chacayá	5	Chacayá	1	Enero	2023-01-01T00:00:00	2024-11-06T18:00:00	4	Temperatura máxima	15.3
70219	7	Sololá	702	San José Chacayá	5	Chacayá	1	Enero	2023-01-01T00:00:00	2024-11-06T18:00:00	3	Temperatura mínima	14.6
70220	7	Sololá	702	San José Chacayá	5	Chacayá	1	Enero	2023-01-01T00:00:00	2024-11-06T18:00:00	5	Humedad	92
70221	7	Sololá	702	San José Chacayá	5	Chacayá	1	Enero	2023-01-01T00:00:00	2024-11-06T18:00:00	6	Velocidad del viento	0
70222	7	Sololá	702	San José Chacayá	5	Chacayá	1	Enero	2023-01-01T00:00:00	2024-11-06T18:00:00	7	Dirección del viento	0
70223	7	Sololá	702	San José Chacayá	5	Chacayá	1	Enero	2023-01-01T00:00:00	2024-11-06T18:00:00	1	Precipitación	0
70224	7	Sololá	702	San José Chacayá	5	Chacayá	1	Enero	2023-01-01T00:00:00	2024-11-06T18:00:00	8	Radiación solar	29
70225	7	Sololá	702	San José Chacayá	5	Chacayá	1	Enero	2023-01-01T00:00:00	2024-11-06T19:00:00	2	Temperatura media	12.7
70226	7	Sololá	702	San José Chacayá	5	Chacayá	1	Enero	2023-01-01T00:00:00	2024-11-06T19:00:00	4	Temperatura máxima	14.6
70227	7	Sololá	702	San José Chacayá	5	Chacayá	1	Enero	2023-01-01T00:00:00	2024-11-06T19:00:00	3	Temperatura mínima	12.7
70228	7	Sololá	702	San José Chacayá	5	Chacayá	1	Enero	2023-01-01T00:00:00	2024-11-06T19:00:00	5	Humedad	89
70229	7	Sololá	702	San José Chacayá	5	Chacayá	1	Enero	2023-01-01T00:00:00	2024-11-06T19:00:00	6	Velocidad del viento	0
70230	7	Sololá	702	San José Chacayá	5	Chacayá	1	Enero	2023-01-01T00:00:00	2024-11-06T19:00:00	7	Dirección del viento	0
70231	7	Sololá	702	San José Chacayá	5	Chacayá	1	Enero	2023-01-01T00:00:00	2024-11-06T19:00:00	1	Precipitación	0
70232	7	Sololá	702	San José Chacayá	5	Chacayá	1	Enero	2023-01-01T00:00:00	2024-11-06T19:00:00	8	Radiación solar	0
70233	7	Sololá	702	San José Chacayá	5	Chacayá	1	Enero	2023-01-01T00:00:00	2024-11-06T20:00:00	2	Temperatura media	11.2
70234	7	Sololá	702	San José Chacayá	5	Chacayá	1	Enero	2023-01-01T00:00:00	2024-11-06T20:00:00	4	Temperatura máxima	12.7
70235	7	Sololá	702	San José Chacayá	5	Chacayá	1	Enero	2023-01-01T00:00:00	2024-11-06T20:00:00	3	Temperatura mínima	11.2
70236	7	Sololá	702	San José Chacayá	5	Chacayá	1	Enero	2023-01-01T00:00:00	2024-11-06T20:00:00	5	Humedad	91
70237	7	Sololá	702	San José Chacayá	5	Chacayá	1	Enero	2023-01-01T00:00:00	2024-11-06T20:00:00	6	Velocidad del viento	1.6
70238	7	Sololá	702	San José Chacayá	5	Chacayá	1	Enero	2023-01-01T00:00:00	2024-11-06T20:00:00	7	Dirección del viento	1.61
70239	7	Sololá	702	San José Chacayá	5	Chacayá	1	Enero	2023-01-01T00:00:00	2024-11-06T20:00:00	1	Precipitación	0
70240	7	Sololá	702	San José Chacayá	5	Chacayá	1	Enero	2023-01-01T00:00:00	2024-11-06T20:00:00	8	Radiación solar	0
70241	7	Sololá	702	San José Chacayá	5	Chacayá	1	Enero	2023-01-01T00:00:00	2024-11-06T21:00:00	2	Temperatura media	10.1
70242	7	Sololá	702	San José Chacayá	5	Chacayá	1	Enero	2023-01-01T00:00:00	2024-11-06T21:00:00	4	Temperatura máxima	11.2
70243	7	Sololá	702	San José Chacayá	5	Chacayá	1	Enero	2023-01-01T00:00:00	2024-11-06T21:00:00	3	Temperatura mínima	10.1
70244	7	Sololá	702	San José Chacayá	5	Chacayá	1	Enero	2023-01-01T00:00:00	2024-11-06T21:00:00	5	Humedad	92
70245	7	Sololá	702	San José Chacayá	5	Chacayá	1	Enero	2023-01-01T00:00:00	2024-11-06T21:00:00	6	Velocidad del viento	1.6
70246	7	Sololá	702	San José Chacayá	5	Chacayá	1	Enero	2023-01-01T00:00:00	2024-11-06T21:00:00	7	Dirección del viento	1.61
70247	7	Sololá	702	San José Chacayá	5	Chacayá	1	Enero	2023-01-01T00:00:00	2024-11-06T21:00:00	1	Precipitación	0
70248	7	Sololá	702	San José Chacayá	5	Chacayá	1	Enero	2023-01-01T00:00:00	2024-11-06T21:00:00	8	Radiación solar	0
70249	7	Sololá	702	San José Chacayá	5	Chacayá	1	Enero	2023-01-01T00:00:00	2024-11-06T22:00:00	2	Temperatura media	9.2
70250	7	Sololá	702	San José Chacayá	5	Chacayá	1	Enero	2023-01-01T00:00:00	2024-11-06T22:00:00	4	Temperatura máxima	10.1
70251	7	Sololá	702	San José Chacayá	5	Chacayá	1	Enero	2023-01-01T00:00:00	2024-11-06T22:00:00	3	Temperatura mínima	9.2
70252	7	Sololá	702	San José Chacayá	5	Chacayá	1	Enero	2023-01-01T00:00:00	2024-11-06T22:00:00	5	Humedad	93
70253	7	Sololá	702	San José Chacayá	5	Chacayá	1	Enero	2023-01-01T00:00:00	2024-11-06T22:00:00	6	Velocidad del viento	1.6
70254	7	Sololá	702	San José Chacayá	5	Chacayá	1	Enero	2023-01-01T00:00:00	2024-11-06T22:00:00	7	Dirección del viento	1.61
70255	7	Sololá	702	San José Chacayá	5	Chacayá	1	Enero	2023-01-01T00:00:00	2024-11-06T22:00:00	1	Precipitación	0
70256	7	Sololá	702	San José Chacayá	5	Chacayá	1	Enero	2023-01-01T00:00:00	2024-11-06T22:00:00	8	Radiación solar	0
70257	7	Sololá	702	San José Chacayá	5	Chacayá	1	Enero	2023-01-01T00:00:00	2024-11-06T23:00:00	2	Temperatura media	8.8
70258	7	Sololá	702	San José Chacayá	5	Chacayá	1	Enero	2023-01-01T00:00:00	2024-11-06T23:00:00	4	Temperatura máxima	9.4
70259	7	Sololá	702	San José Chacayá	5	Chacayá	1	Enero	2023-01-01T00:00:00	2024-11-06T23:00:00	3	Temperatura mínima	8.8
70260	7	Sololá	702	San José Chacayá	5	Chacayá	1	Enero	2023-01-01T00:00:00	2024-11-06T23:00:00	5	Humedad	93
70261	7	Sololá	702	San José Chacayá	5	Chacayá	1	Enero	2023-01-01T00:00:00	2024-11-06T23:00:00	6	Velocidad del viento	1.6
70262	7	Sololá	702	San José Chacayá	5	Chacayá	1	Enero	2023-01-01T00:00:00	2024-11-06T23:00:00	7	Dirección del viento	1.61
70263	7	Sololá	702	San José Chacayá	5	Chacayá	1	Enero	2023-01-01T00:00:00	2024-11-06T23:00:00	1	Precipitación	0
70264	7	Sololá	702	San José Chacayá	5	Chacayá	1	Enero	2023-01-01T00:00:00	2024-11-06T23:00:00	8	Radiación solar	0
70265	7	Sololá	702	San José Chacayá	5	Chacayá	1	Enero	2023-02-01T00:00:00	2024-11-06T00:00:00	2	Temperatura media	8.4
70266	7	Sololá	702	San José Chacayá	5	Chacayá	1	Enero	2023-02-01T00:00:00	2024-11-06T00:00:00	4	Temperatura máxima	8.8
70267	7	Sololá	702	San José Chacayá	5	Chacayá	1	Enero	2023-02-01T00:00:00	2024-11-06T00:00:00	3	Temperatura mínima	8.4
70268	7	Sololá	702	San José Chacayá	5	Chacayá	1	Enero	2023-02-01T00:00:00	2024-11-06T00:00:00	5	Humedad	93
70269	7	Sololá	702	San José Chacayá	5	Chacayá	1	Enero	2023-02-01T00:00:00	2024-11-06T00:00:00	6	Velocidad del viento	1.6
70270	7	Sololá	702	San José Chacayá	5	Chacayá	1	Enero	2023-02-01T00:00:00	2024-11-06T00:00:00	7	Dirección del viento	1.61
70271	7	Sololá	702	San José Chacayá	5	Chacayá	1	Enero	2023-02-01T00:00:00	2024-11-06T00:00:00	1	Precipitación	0
70272	7	Sololá	702	San José Chacayá	5	Chacayá	1	Enero	2023-02-01T00:00:00	2024-11-06T00:00:00	8	Radiación solar	0
70273	7	Sololá	702	San José Chacayá	5	Chacayá	1	Enero	2023-02-01T00:00:00	2024-11-06T01:00:00	2	Temperatura media	8.5
70274	7	Sololá	702	San José Chacayá	5	Chacayá	1	Enero	2023-02-01T00:00:00	2024-11-06T01:00:00	4	Temperatura máxima	8.8
70275	7	Sololá	702	San José Chacayá	5	Chacayá	1	Enero	2023-02-01T00:00:00	2024-11-06T01:00:00	3	Temperatura mínima	8.3
70276	7	Sololá	702	San José Chacayá	5	Chacayá	1	Enero	2023-02-01T00:00:00	2024-11-06T01:00:00	5	Humedad	92
70277	7	Sololá	702	San José Chacayá	5	Chacayá	1	Enero	2023-02-01T00:00:00	2024-11-06T01:00:00	6	Velocidad del viento	1.6
70278	7	Sololá	702	San José Chacayá	5	Chacayá	1	Enero	2023-02-01T00:00:00	2024-11-06T01:00:00	7	Dirección del viento	1.61
70279	7	Sololá	702	San José Chacayá	5	Chacayá	1	Enero	2023-02-01T00:00:00	2024-11-06T01:00:00	1	Precipitación	0
70280	7	Sololá	702	San José Chacayá	5	Chacayá	1	Enero	2023-02-01T00:00:00	2024-11-06T01:00:00	8	Radiación solar	0
70281	7	Sololá	702	San José Chacayá	5	Chacayá	1	Enero	2023-02-01T00:00:00	2024-11-06T02:00:00	2	Temperatura media	8.4
70282	7	Sololá	702	San José Chacayá	5	Chacayá	1	Enero	2023-02-01T00:00:00	2024-11-06T02:00:00	4	Temperatura máxima	8.5
70283	7	Sololá	702	San José Chacayá	5	Chacayá	1	Enero	2023-02-01T00:00:00	2024-11-06T02:00:00	3	Temperatura mínima	8.1
70284	7	Sololá	702	San José Chacayá	5	Chacayá	1	Enero	2023-02-01T00:00:00	2024-11-06T02:00:00	5	Humedad	93
70285	7	Sololá	702	San José Chacayá	5	Chacayá	1	Enero	2023-02-01T00:00:00	2024-11-06T02:00:00	6	Velocidad del viento	1.6
70286	7	Sololá	702	San José Chacayá	5	Chacayá	1	Enero	2023-02-01T00:00:00	2024-11-06T02:00:00	7	Dirección del viento	1.61
70287	7	Sololá	702	San José Chacayá	5	Chacayá	1	Enero	2023-02-01T00:00:00	2024-11-06T02:00:00	1	Precipitación	0
70288	7	Sololá	702	San José Chacayá	5	Chacayá	1	Enero	2023-02-01T00:00:00	2024-11-06T02:00:00	8	Radiación solar	0
70289	7	Sololá	702	San José Chacayá	5	Chacayá	1	Enero	2023-02-01T00:00:00	2024-11-06T03:00:00	2	Temperatura media	8.1
70290	7	Sololá	702	San José Chacayá	5	Chacayá	1	Enero	2023-02-01T00:00:00	2024-11-06T03:00:00	4	Temperatura máxima	8.6
70291	7	Sololá	702	San José Chacayá	5	Chacayá	1	Enero	2023-02-01T00:00:00	2024-11-06T03:00:00	3	Temperatura mínima	8.1
70292	7	Sololá	702	San José Chacayá	5	Chacayá	1	Enero	2023-02-01T00:00:00	2024-11-06T03:00:00	5	Humedad	93
70293	7	Sololá	702	San José Chacayá	5	Chacayá	1	Enero	2023-02-01T00:00:00	2024-11-06T03:00:00	6	Velocidad del viento	1.6
70294	7	Sololá	702	San José Chacayá	5	Chacayá	1	Enero	2023-02-01T00:00:00	2024-11-06T03:00:00	7	Dirección del viento	1.61
70295	7	Sololá	702	San José Chacayá	5	Chacayá	1	Enero	2023-02-01T00:00:00	2024-11-06T03:00:00	1	Precipitación	0
70296	7	Sololá	702	San José Chacayá	5	Chacayá	1	Enero	2023-02-01T00:00:00	2024-11-06T03:00:00	8	Radiación solar	0
70297	7	Sololá	702	San José Chacayá	5	Chacayá	1	Enero	2023-02-01T00:00:00	2024-11-06T04:00:00	2	Temperatura media	8.1
70298	7	Sololá	702	San José Chacayá	5	Chacayá	1	Enero	2023-02-01T00:00:00	2024-11-06T04:00:00	4	Temperatura máxima	8.2
70299	7	Sololá	702	San José Chacayá	5	Chacayá	1	Enero	2023-02-01T00:00:00	2024-11-06T04:00:00	3	Temperatura mínima	8
70300	7	Sololá	702	San José Chacayá	5	Chacayá	1	Enero	2023-02-01T00:00:00	2024-11-06T04:00:00	5	Humedad	91
70301	7	Sololá	702	San José Chacayá	5	Chacayá	1	Enero	2023-02-01T00:00:00	2024-11-06T04:00:00	6	Velocidad del viento	1.6
70302	7	Sololá	702	San José Chacayá	5	Chacayá	1	Enero	2023-02-01T00:00:00	2024-11-06T04:00:00	7	Dirección del viento	1.61
70303	7	Sololá	702	San José Chacayá	5	Chacayá	1	Enero	2023-02-01T00:00:00	2024-11-06T04:00:00	1	Precipitación	0
70304	7	Sololá	702	San José Chacayá	5	Chacayá	1	Enero	2023-02-01T00:00:00	2024-11-06T04:00:00	8	Radiación solar	0
70305	7	Sololá	702	San José Chacayá	5	Chacayá	1	Enero	2023-02-01T00:00:00	2024-11-06T05:00:00	2	Temperatura media	7.4
70306	7	Sololá	702	San José Chacayá	5	Chacayá	1	Enero	2023-02-01T00:00:00	2024-11-06T05:00:00	4	Temperatura máxima	8.1
70307	7	Sololá	702	San José Chacayá	5	Chacayá	1	Enero	2023-02-01T00:00:00	2024-11-06T05:00:00	3	Temperatura mínima	7.4
70308	7	Sololá	702	San José Chacayá	5	Chacayá	1	Enero	2023-02-01T00:00:00	2024-11-06T05:00:00	5	Humedad	92
70309	7	Sololá	702	San José Chacayá	5	Chacayá	1	Enero	2023-02-01T00:00:00	2024-11-06T05:00:00	6	Velocidad del viento	1.6
70310	7	Sololá	702	San José Chacayá	5	Chacayá	1	Enero	2023-02-01T00:00:00	2024-11-06T05:00:00	7	Dirección del viento	1.61
70311	7	Sololá	702	San José Chacayá	5	Chacayá	1	Enero	2023-02-01T00:00:00	2024-11-06T05:00:00	1	Precipitación	0
70312	7	Sololá	702	San José Chacayá	5	Chacayá	1	Enero	2023-02-01T00:00:00	2024-11-06T05:00:00	8	Radiación solar	0
70313	7	Sololá	702	San José Chacayá	5	Chacayá	1	Enero	2023-02-01T00:00:00	2024-11-06T06:00:00	2	Temperatura media	7.7
70314	7	Sololá	702	San José Chacayá	5	Chacayá	1	Enero	2023-02-01T00:00:00	2024-11-06T06:00:00	4	Temperatura máxima	7.7
70315	7	Sololá	702	San José Chacayá	5	Chacayá	1	Enero	2023-02-01T00:00:00	2024-11-06T06:00:00	3	Temperatura mínima	7.1
70316	7	Sololá	702	San José Chacayá	5	Chacayá	1	Enero	2023-02-01T00:00:00	2024-11-06T06:00:00	5	Humedad	91
70317	7	Sololá	702	San José Chacayá	5	Chacayá	1	Enero	2023-02-01T00:00:00	2024-11-06T06:00:00	6	Velocidad del viento	1.6
70318	7	Sololá	702	San José Chacayá	5	Chacayá	1	Enero	2023-02-01T00:00:00	2024-11-06T06:00:00	7	Dirección del viento	1.61
70319	7	Sololá	702	San José Chacayá	5	Chacayá	1	Enero	2023-02-01T00:00:00	2024-11-06T06:00:00	1	Precipitación	0
70320	7	Sololá	702	San José Chacayá	5	Chacayá	1	Enero	2023-02-01T00:00:00	2024-11-06T06:00:00	8	Radiación solar	0
70321	7	Sololá	702	San José Chacayá	5	Chacayá	1	Enero	2023-02-01T00:00:00	2024-11-06T07:00:00	2	Temperatura media	12.9
70322	7	Sololá	702	San José Chacayá	5	Chacayá	1	Enero	2023-02-01T00:00:00	2024-11-06T07:00:00	4	Temperatura máxima	12.9
70323	7	Sololá	702	San José Chacayá	5	Chacayá	1	Enero	2023-02-01T00:00:00	2024-11-06T07:00:00	3	Temperatura mínima	7.6
70324	7	Sololá	702	San José Chacayá	5	Chacayá	1	Enero	2023-02-01T00:00:00	2024-11-06T07:00:00	5	Humedad	82
70325	7	Sololá	702	San José Chacayá	5	Chacayá	1	Enero	2023-02-01T00:00:00	2024-11-06T07:00:00	6	Velocidad del viento	1.6
70326	7	Sololá	702	San José Chacayá	5	Chacayá	1	Enero	2023-02-01T00:00:00	2024-11-06T07:00:00	7	Dirección del viento	1.61
70327	7	Sololá	702	San José Chacayá	5	Chacayá	1	Enero	2023-02-01T00:00:00	2024-11-06T07:00:00	1	Precipitación	0
70328	7	Sololá	702	San José Chacayá	5	Chacayá	1	Enero	2023-02-01T00:00:00	2024-11-06T07:00:00	8	Radiación solar	33
70329	7	Sololá	702	San José Chacayá	5	Chacayá	1	Enero	2023-02-01T00:00:00	2024-11-06T08:00:00	2	Temperatura media	16.5
70330	7	Sololá	702	San José Chacayá	5	Chacayá	1	Enero	2023-02-01T00:00:00	2024-11-06T08:00:00	4	Temperatura máxima	16.5
70331	7	Sololá	702	San José Chacayá	5	Chacayá	1	Enero	2023-02-01T00:00:00	2024-11-06T08:00:00	3	Temperatura mínima	12.9
70332	7	Sololá	702	San José Chacayá	5	Chacayá	1	Enero	2023-02-01T00:00:00	2024-11-06T08:00:00	5	Humedad	76
70333	7	Sololá	702	San José Chacayá	5	Chacayá	1	Enero	2023-02-01T00:00:00	2024-11-06T08:00:00	6	Velocidad del viento	3.2
70334	7	Sololá	702	San José Chacayá	5	Chacayá	1	Enero	2023-02-01T00:00:00	2024-11-06T08:00:00	7	Dirección del viento	3.22
70335	7	Sololá	702	San José Chacayá	5	Chacayá	1	Enero	2023-02-01T00:00:00	2024-11-06T08:00:00	1	Precipitación	0
70336	7	Sololá	702	San José Chacayá	5	Chacayá	1	Enero	2023-02-01T00:00:00	2024-11-06T08:00:00	8	Radiación solar	218
70337	7	Sololá	702	San José Chacayá	5	Chacayá	1	Enero	2023-02-01T00:00:00	2024-11-06T09:00:00	2	Temperatura media	18.1
70338	7	Sololá	702	San José Chacayá	5	Chacayá	1	Enero	2023-02-01T00:00:00	2024-11-06T09:00:00	4	Temperatura máxima	18.1
70339	7	Sololá	702	San José Chacayá	5	Chacayá	1	Enero	2023-02-01T00:00:00	2024-11-06T09:00:00	3	Temperatura mínima	16.4
70340	7	Sololá	702	San José Chacayá	5	Chacayá	1	Enero	2023-02-01T00:00:00	2024-11-06T09:00:00	5	Humedad	69
70341	7	Sololá	702	San José Chacayá	5	Chacayá	1	Enero	2023-02-01T00:00:00	2024-11-06T09:00:00	6	Velocidad del viento	3.2
70342	7	Sololá	702	San José Chacayá	5	Chacayá	1	Enero	2023-02-01T00:00:00	2024-11-06T09:00:00	7	Dirección del viento	3.22
70343	7	Sololá	702	San José Chacayá	5	Chacayá	1	Enero	2023-02-01T00:00:00	2024-11-06T09:00:00	1	Precipitación	0
70344	7	Sololá	702	San José Chacayá	5	Chacayá	1	Enero	2023-02-01T00:00:00	2024-11-06T09:00:00	8	Radiación solar	437
70345	7	Sololá	702	San José Chacayá	5	Chacayá	1	Enero	2023-02-01T00:00:00	2024-11-06T10:00:00	2	Temperatura media	18.3
70346	7	Sololá	702	San José Chacayá	5	Chacayá	1	Enero	2023-02-01T00:00:00	2024-11-06T10:00:00	4	Temperatura máxima	18.5
70347	7	Sololá	702	San José Chacayá	5	Chacayá	1	Enero	2023-02-01T00:00:00	2024-11-06T10:00:00	3	Temperatura mínima	17.7
70348	7	Sololá	702	San José Chacayá	5	Chacayá	1	Enero	2023-02-01T00:00:00	2024-11-06T10:00:00	5	Humedad	66
70349	7	Sololá	702	San José Chacayá	5	Chacayá	1	Enero	2023-02-01T00:00:00	2024-11-06T10:00:00	6	Velocidad del viento	1.6
70350	7	Sololá	702	San José Chacayá	5	Chacayá	1	Enero	2023-02-01T00:00:00	2024-11-06T10:00:00	7	Dirección del viento	1.61
70351	7	Sololá	702	San José Chacayá	5	Chacayá	1	Enero	2023-02-01T00:00:00	2024-11-06T10:00:00	1	Precipitación	0
70352	7	Sololá	702	San José Chacayá	5	Chacayá	1	Enero	2023-02-01T00:00:00	2024-11-06T10:00:00	8	Radiación solar	621
70353	7	Sololá	702	San José Chacayá	5	Chacayá	1	Enero	2023-02-01T00:00:00	2024-11-06T11:00:00	2	Temperatura media	20.4
70354	7	Sololá	702	San José Chacayá	5	Chacayá	1	Enero	2023-02-01T00:00:00	2024-11-06T11:00:00	4	Temperatura máxima	20.4
70355	7	Sololá	702	San José Chacayá	5	Chacayá	1	Enero	2023-02-01T00:00:00	2024-11-06T11:00:00	3	Temperatura mínima	18.2
70356	7	Sololá	702	San José Chacayá	5	Chacayá	1	Enero	2023-02-01T00:00:00	2024-11-06T11:00:00	5	Humedad	59
70357	7	Sololá	702	San José Chacayá	5	Chacayá	1	Enero	2023-02-01T00:00:00	2024-11-06T11:00:00	6	Velocidad del viento	3.2
70358	7	Sololá	702	San José Chacayá	5	Chacayá	1	Enero	2023-02-01T00:00:00	2024-11-06T11:00:00	7	Dirección del viento	3.22
70359	7	Sololá	702	San José Chacayá	5	Chacayá	1	Enero	2023-02-01T00:00:00	2024-11-06T11:00:00	1	Precipitación	0
70360	7	Sololá	702	San José Chacayá	5	Chacayá	1	Enero	2023-02-01T00:00:00	2024-11-06T11:00:00	8	Radiación solar	771
70361	7	Sololá	702	San José Chacayá	5	Chacayá	1	Enero	2023-02-01T00:00:00	2024-11-06T12:00:00	2	Temperatura media	19.4
70362	7	Sololá	702	San José Chacayá	5	Chacayá	1	Enero	2023-02-01T00:00:00	2024-11-06T12:00:00	4	Temperatura máxima	20.6
70363	7	Sololá	702	San José Chacayá	5	Chacayá	1	Enero	2023-02-01T00:00:00	2024-11-06T12:00:00	3	Temperatura mínima	19.3
70364	7	Sololá	702	San José Chacayá	5	Chacayá	1	Enero	2023-02-01T00:00:00	2024-11-06T12:00:00	5	Humedad	71
70365	7	Sololá	702	San José Chacayá	5	Chacayá	1	Enero	2023-02-01T00:00:00	2024-11-06T12:00:00	6	Velocidad del viento	4.8
70366	7	Sololá	702	San José Chacayá	5	Chacayá	1	Enero	2023-02-01T00:00:00	2024-11-06T12:00:00	7	Dirección del viento	4.83
70367	7	Sololá	702	San José Chacayá	5	Chacayá	1	Enero	2023-02-01T00:00:00	2024-11-06T12:00:00	1	Precipitación	0
70368	7	Sololá	702	San José Chacayá	5	Chacayá	1	Enero	2023-02-01T00:00:00	2024-11-06T12:00:00	8	Radiación solar	709
70369	7	Sololá	702	San José Chacayá	5	Chacayá	1	Enero	2023-02-01T00:00:00	2024-11-06T13:00:00	2	Temperatura media	19.6
70370	7	Sololá	702	San José Chacayá	5	Chacayá	1	Enero	2023-02-01T00:00:00	2024-11-06T13:00:00	4	Temperatura máxima	19.8
70371	7	Sololá	702	San José Chacayá	5	Chacayá	1	Enero	2023-02-01T00:00:00	2024-11-06T13:00:00	3	Temperatura mínima	19
70372	7	Sololá	702	San José Chacayá	5	Chacayá	1	Enero	2023-02-01T00:00:00	2024-11-06T13:00:00	5	Humedad	70
70373	7	Sololá	702	San José Chacayá	5	Chacayá	1	Enero	2023-02-01T00:00:00	2024-11-06T13:00:00	6	Velocidad del viento	6.4
70374	7	Sololá	702	San José Chacayá	5	Chacayá	1	Enero	2023-02-01T00:00:00	2024-11-06T13:00:00	7	Dirección del viento	6.44
70375	7	Sololá	702	San José Chacayá	5	Chacayá	1	Enero	2023-02-01T00:00:00	2024-11-06T13:00:00	1	Precipitación	0
70376	7	Sololá	702	San José Chacayá	5	Chacayá	1	Enero	2023-02-01T00:00:00	2024-11-06T13:00:00	8	Radiación solar	834
70377	7	Sololá	702	San José Chacayá	5	Chacayá	1	Enero	2023-02-01T00:00:00	2024-11-06T14:00:00	2	Temperatura media	19.2
70378	7	Sololá	702	San José Chacayá	5	Chacayá	1	Enero	2023-02-01T00:00:00	2024-11-06T14:00:00	4	Temperatura máxima	19.7
70379	7	Sololá	702	San José Chacayá	5	Chacayá	1	Enero	2023-02-01T00:00:00	2024-11-06T14:00:00	3	Temperatura mínima	19.1
70380	7	Sololá	702	San José Chacayá	5	Chacayá	1	Enero	2023-02-01T00:00:00	2024-11-06T14:00:00	5	Humedad	74
70381	7	Sololá	702	San José Chacayá	5	Chacayá	1	Enero	2023-02-01T00:00:00	2024-11-06T14:00:00	6	Velocidad del viento	4.8
70382	7	Sololá	702	San José Chacayá	5	Chacayá	1	Enero	2023-02-01T00:00:00	2024-11-06T14:00:00	7	Dirección del viento	4.83
70383	7	Sololá	702	San José Chacayá	5	Chacayá	1	Enero	2023-02-01T00:00:00	2024-11-06T14:00:00	1	Precipitación	0
70384	7	Sololá	702	San José Chacayá	5	Chacayá	1	Enero	2023-02-01T00:00:00	2024-11-06T14:00:00	8	Radiación solar	685
70385	7	Sololá	702	San José Chacayá	5	Chacayá	1	Enero	2023-02-01T00:00:00	2024-11-06T15:00:00	2	Temperatura media	17.4
70386	7	Sololá	702	San José Chacayá	5	Chacayá	1	Enero	2023-02-01T00:00:00	2024-11-06T15:00:00	4	Temperatura máxima	19.2
70387	7	Sololá	702	San José Chacayá	5	Chacayá	1	Enero	2023-02-01T00:00:00	2024-11-06T15:00:00	3	Temperatura mínima	17.4
70388	7	Sololá	702	San José Chacayá	5	Chacayá	1	Enero	2023-02-01T00:00:00	2024-11-06T15:00:00	5	Humedad	77
70389	7	Sololá	702	San José Chacayá	5	Chacayá	1	Enero	2023-02-01T00:00:00	2024-11-06T15:00:00	6	Velocidad del viento	3.2
70390	7	Sololá	702	San José Chacayá	5	Chacayá	1	Enero	2023-02-01T00:00:00	2024-11-06T15:00:00	7	Dirección del viento	3.22
70391	7	Sololá	702	San José Chacayá	5	Chacayá	1	Enero	2023-02-01T00:00:00	2024-11-06T15:00:00	1	Precipitación	0
70392	7	Sololá	702	San José Chacayá	5	Chacayá	1	Enero	2023-02-01T00:00:00	2024-11-06T15:00:00	8	Radiación solar	135
70393	7	Sololá	702	San José Chacayá	5	Chacayá	1	Enero	2023-02-01T00:00:00	2024-11-06T16:00:00	2	Temperatura media	16.1
70394	7	Sololá	702	San José Chacayá	5	Chacayá	1	Enero	2023-02-01T00:00:00	2024-11-06T16:00:00	4	Temperatura máxima	17.4
70395	7	Sololá	702	San José Chacayá	5	Chacayá	1	Enero	2023-02-01T00:00:00	2024-11-06T16:00:00	3	Temperatura mínima	16.1
70396	7	Sololá	702	San José Chacayá	5	Chacayá	1	Enero	2023-02-01T00:00:00	2024-11-06T16:00:00	5	Humedad	83
70397	7	Sololá	702	San José Chacayá	5	Chacayá	1	Enero	2023-02-01T00:00:00	2024-11-06T16:00:00	6	Velocidad del viento	1.6
70398	7	Sololá	702	San José Chacayá	5	Chacayá	1	Enero	2023-02-01T00:00:00	2024-11-06T16:00:00	7	Dirección del viento	1.61
70399	7	Sololá	702	San José Chacayá	5	Chacayá	1	Enero	2023-02-01T00:00:00	2024-11-06T16:00:00	1	Precipitación	0
70400	7	Sololá	702	San José Chacayá	5	Chacayá	1	Enero	2023-02-01T00:00:00	2024-11-06T16:00:00	8	Radiación solar	32
70401	7	Sololá	702	San José Chacayá	5	Chacayá	1	Enero	2023-02-01T00:00:00	2024-11-06T17:00:00	2	Temperatura media	14.4
70402	7	Sololá	702	San José Chacayá	5	Chacayá	1	Enero	2023-02-01T00:00:00	2024-11-06T17:00:00	4	Temperatura máxima	16.1
70403	7	Sololá	702	San José Chacayá	5	Chacayá	1	Enero	2023-02-01T00:00:00	2024-11-06T17:00:00	3	Temperatura mínima	14.4
70404	7	Sololá	702	San José Chacayá	5	Chacayá	1	Enero	2023-02-01T00:00:00	2024-11-06T17:00:00	5	Humedad	92
70405	7	Sololá	702	San José Chacayá	5	Chacayá	1	Enero	2023-02-01T00:00:00	2024-11-06T17:00:00	6	Velocidad del viento	0
70406	7	Sololá	702	San José Chacayá	5	Chacayá	1	Enero	2023-02-01T00:00:00	2024-11-06T17:00:00	7	Dirección del viento	0
70407	7	Sololá	702	San José Chacayá	5	Chacayá	1	Enero	2023-02-01T00:00:00	2024-11-06T17:00:00	1	Precipitación	0
70408	7	Sololá	702	San José Chacayá	5	Chacayá	1	Enero	2023-02-01T00:00:00	2024-11-06T17:00:00	8	Radiación solar	49
70409	7	Sololá	702	San José Chacayá	5	Chacayá	1	Enero	2023-02-01T00:00:00	2024-11-06T18:00:00	2	Temperatura media	12.9
70410	7	Sololá	702	San José Chacayá	5	Chacayá	1	Enero	2023-02-01T00:00:00	2024-11-06T18:00:00	4	Temperatura máxima	14.4
70411	7	Sololá	702	San José Chacayá	5	Chacayá	1	Enero	2023-02-01T00:00:00	2024-11-06T18:00:00	3	Temperatura mínima	12.9
70412	7	Sololá	702	San José Chacayá	5	Chacayá	1	Enero	2023-02-01T00:00:00	2024-11-06T18:00:00	5	Humedad	91
70413	7	Sololá	702	San José Chacayá	5	Chacayá	1	Enero	2023-02-01T00:00:00	2024-11-06T18:00:00	6	Velocidad del viento	0
70414	7	Sololá	702	San José Chacayá	5	Chacayá	1	Enero	2023-02-01T00:00:00	2024-11-06T18:00:00	7	Dirección del viento	0
70415	7	Sololá	702	San José Chacayá	5	Chacayá	1	Enero	2023-02-01T00:00:00	2024-11-06T18:00:00	1	Precipitación	0
70416	7	Sololá	702	San José Chacayá	5	Chacayá	1	Enero	2023-02-01T00:00:00	2024-11-06T18:00:00	8	Radiación solar	12
70417	7	Sololá	702	San José Chacayá	5	Chacayá	1	Enero	2023-02-01T00:00:00	2024-11-06T19:00:00	2	Temperatura media	11.7
70418	7	Sololá	702	San José Chacayá	5	Chacayá	1	Enero	2023-02-01T00:00:00	2024-11-06T19:00:00	4	Temperatura máxima	12.9
70419	7	Sololá	702	San José Chacayá	5	Chacayá	1	Enero	2023-02-01T00:00:00	2024-11-06T19:00:00	3	Temperatura mínima	11.6
70420	7	Sololá	702	San José Chacayá	5	Chacayá	1	Enero	2023-02-01T00:00:00	2024-11-06T19:00:00	5	Humedad	91
70421	7	Sololá	702	San José Chacayá	5	Chacayá	1	Enero	2023-02-01T00:00:00	2024-11-06T19:00:00	6	Velocidad del viento	0
70422	7	Sololá	702	San José Chacayá	5	Chacayá	1	Enero	2023-02-01T00:00:00	2024-11-06T19:00:00	7	Dirección del viento	0
70423	7	Sololá	702	San José Chacayá	5	Chacayá	1	Enero	2023-02-01T00:00:00	2024-11-06T19:00:00	1	Precipitación	0
70424	7	Sololá	702	San José Chacayá	5	Chacayá	1	Enero	2023-02-01T00:00:00	2024-11-06T19:00:00	8	Radiación solar	0
70425	7	Sololá	702	San José Chacayá	5	Chacayá	1	Enero	2023-02-01T00:00:00	2024-11-06T20:00:00	2	Temperatura media	10.7
70426	7	Sololá	702	San José Chacayá	5	Chacayá	1	Enero	2023-02-01T00:00:00	2024-11-06T20:00:00	4	Temperatura máxima	11.7
70427	7	Sololá	702	San José Chacayá	5	Chacayá	1	Enero	2023-02-01T00:00:00	2024-11-06T20:00:00	3	Temperatura mínima	10.7
70428	7	Sololá	702	San José Chacayá	5	Chacayá	1	Enero	2023-02-01T00:00:00	2024-11-06T20:00:00	5	Humedad	91
70429	7	Sololá	702	San José Chacayá	5	Chacayá	1	Enero	2023-02-01T00:00:00	2024-11-06T20:00:00	6	Velocidad del viento	0
70430	7	Sololá	702	San José Chacayá	5	Chacayá	1	Enero	2023-02-01T00:00:00	2024-11-06T20:00:00	7	Dirección del viento	0
70431	7	Sololá	702	San José Chacayá	5	Chacayá	1	Enero	2023-02-01T00:00:00	2024-11-06T20:00:00	1	Precipitación	0
70432	7	Sololá	702	San José Chacayá	5	Chacayá	1	Enero	2023-02-01T00:00:00	2024-11-06T20:00:00	8	Radiación solar	0
70433	7	Sololá	702	San José Chacayá	5	Chacayá	1	Enero	2023-02-01T00:00:00	2024-11-06T21:00:00	2	Temperatura media	9.9
70434	7	Sololá	702	San José Chacayá	5	Chacayá	1	Enero	2023-02-01T00:00:00	2024-11-06T21:00:00	4	Temperatura máxima	10.7
70435	7	Sololá	702	San José Chacayá	5	Chacayá	1	Enero	2023-02-01T00:00:00	2024-11-06T21:00:00	3	Temperatura mínima	9.9
70436	7	Sololá	702	San José Chacayá	5	Chacayá	1	Enero	2023-02-01T00:00:00	2024-11-06T21:00:00	5	Humedad	92
70437	7	Sololá	702	San José Chacayá	5	Chacayá	1	Enero	2023-02-01T00:00:00	2024-11-06T21:00:00	6	Velocidad del viento	1.6
70438	7	Sololá	702	San José Chacayá	5	Chacayá	1	Enero	2023-02-01T00:00:00	2024-11-06T21:00:00	7	Dirección del viento	1.61
70439	7	Sololá	702	San José Chacayá	5	Chacayá	1	Enero	2023-02-01T00:00:00	2024-11-06T21:00:00	1	Precipitación	0
70440	7	Sololá	702	San José Chacayá	5	Chacayá	1	Enero	2023-02-01T00:00:00	2024-11-06T21:00:00	8	Radiación solar	0
70441	7	Sololá	702	San José Chacayá	5	Chacayá	1	Enero	2023-02-01T00:00:00	2024-11-06T22:00:00	2	Temperatura media	8.8
70442	7	Sololá	702	San José Chacayá	5	Chacayá	1	Enero	2023-02-01T00:00:00	2024-11-06T22:00:00	4	Temperatura máxima	9.9
70443	7	Sololá	702	San José Chacayá	5	Chacayá	1	Enero	2023-02-01T00:00:00	2024-11-06T22:00:00	3	Temperatura mínima	8.8
70444	7	Sololá	702	San José Chacayá	5	Chacayá	1	Enero	2023-02-01T00:00:00	2024-11-06T22:00:00	5	Humedad	90
70445	7	Sololá	702	San José Chacayá	5	Chacayá	1	Enero	2023-02-01T00:00:00	2024-11-06T22:00:00	6	Velocidad del viento	1.6
70446	7	Sololá	702	San José Chacayá	5	Chacayá	1	Enero	2023-02-01T00:00:00	2024-11-06T22:00:00	7	Dirección del viento	1.61
70447	7	Sololá	702	San José Chacayá	5	Chacayá	1	Enero	2023-02-01T00:00:00	2024-11-06T22:00:00	1	Precipitación	0
70448	7	Sololá	702	San José Chacayá	5	Chacayá	1	Enero	2023-02-01T00:00:00	2024-11-06T22:00:00	8	Radiación solar	0
70449	7	Sololá	702	San José Chacayá	5	Chacayá	1	Enero	2023-02-01T00:00:00	2024-11-06T23:00:00	2	Temperatura media	8.2
70450	7	Sololá	702	San José Chacayá	5	Chacayá	1	Enero	2023-02-01T00:00:00	2024-11-06T23:00:00	4	Temperatura máxima	8.8
70451	7	Sololá	702	San José Chacayá	5	Chacayá	1	Enero	2023-02-01T00:00:00	2024-11-06T23:00:00	3	Temperatura mínima	8.2
70452	7	Sololá	702	San José Chacayá	5	Chacayá	1	Enero	2023-02-01T00:00:00	2024-11-06T23:00:00	5	Humedad	91
70453	7	Sololá	702	San José Chacayá	5	Chacayá	1	Enero	2023-02-01T00:00:00	2024-11-06T23:00:00	6	Velocidad del viento	1.6
70454	7	Sololá	702	San José Chacayá	5	Chacayá	1	Enero	2023-02-01T00:00:00	2024-11-06T23:00:00	7	Dirección del viento	1.61
70455	7	Sololá	702	San José Chacayá	5	Chacayá	1	Enero	2023-02-01T00:00:00	2024-11-06T23:00:00	1	Precipitación	0
70456	7	Sololá	702	San José Chacayá	5	Chacayá	1	Enero	2023-02-01T00:00:00	2024-11-06T23:00:00	8	Radiación solar	0
70457	7	Sololá	702	San José Chacayá	5	Chacayá	1	Enero	2023-03-01T00:00:00	2024-11-06T00:00:00	2	Temperatura media	7.9
70458	7	Sololá	702	San José Chacayá	5	Chacayá	1	Enero	2023-03-01T00:00:00	2024-11-06T00:00:00	4	Temperatura máxima	8.2
70459	7	Sololá	702	San José Chacayá	5	Chacayá	1	Enero	2023-03-01T00:00:00	2024-11-06T00:00:00	3	Temperatura mínima	7.9
70460	7	Sololá	702	San José Chacayá	5	Chacayá	1	Enero	2023-03-01T00:00:00	2024-11-06T00:00:00	5	Humedad	91
70461	7	Sololá	702	San José Chacayá	5	Chacayá	1	Enero	2023-03-01T00:00:00	2024-11-06T00:00:00	6	Velocidad del viento	1.6
70462	7	Sololá	702	San José Chacayá	5	Chacayá	1	Enero	2023-03-01T00:00:00	2024-11-06T00:00:00	7	Dirección del viento	1.61
70463	7	Sololá	702	San José Chacayá	5	Chacayá	1	Enero	2023-03-01T00:00:00	2024-11-06T00:00:00	1	Precipitación	0
70464	7	Sololá	702	San José Chacayá	5	Chacayá	1	Enero	2023-03-01T00:00:00	2024-11-06T00:00:00	8	Radiación solar	0
70465	7	Sololá	702	San José Chacayá	5	Chacayá	1	Enero	2023-03-01T00:00:00	2024-11-06T01:00:00	2	Temperatura media	7.6
70466	7	Sololá	702	San José Chacayá	5	Chacayá	1	Enero	2023-03-01T00:00:00	2024-11-06T01:00:00	4	Temperatura máxima	7.9
70467	7	Sololá	702	San José Chacayá	5	Chacayá	1	Enero	2023-03-01T00:00:00	2024-11-06T01:00:00	3	Temperatura mínima	7.5
70468	7	Sololá	702	San José Chacayá	5	Chacayá	1	Enero	2023-03-01T00:00:00	2024-11-06T01:00:00	5	Humedad	90
70469	7	Sololá	702	San José Chacayá	5	Chacayá	1	Enero	2023-03-01T00:00:00	2024-11-06T01:00:00	6	Velocidad del viento	1.6
70470	7	Sololá	702	San José Chacayá	5	Chacayá	1	Enero	2023-03-01T00:00:00	2024-11-06T01:00:00	7	Dirección del viento	1.61
70471	7	Sololá	702	San José Chacayá	5	Chacayá	1	Enero	2023-03-01T00:00:00	2024-11-06T01:00:00	1	Precipitación	0
70472	7	Sololá	702	San José Chacayá	5	Chacayá	1	Enero	2023-03-01T00:00:00	2024-11-06T01:00:00	8	Radiación solar	0
70473	7	Sololá	702	San José Chacayá	5	Chacayá	1	Enero	2023-03-01T00:00:00	2024-11-06T02:00:00	2	Temperatura media	7.3
70474	7	Sololá	702	San José Chacayá	5	Chacayá	1	Enero	2023-03-01T00:00:00	2024-11-06T02:00:00	4	Temperatura máxima	7.7
70475	7	Sololá	702	San José Chacayá	5	Chacayá	1	Enero	2023-03-01T00:00:00	2024-11-06T02:00:00	3	Temperatura mínima	7.3
70476	7	Sololá	702	San José Chacayá	5	Chacayá	1	Enero	2023-03-01T00:00:00	2024-11-06T02:00:00	5	Humedad	90
70477	7	Sololá	702	San José Chacayá	5	Chacayá	1	Enero	2023-03-01T00:00:00	2024-11-06T02:00:00	6	Velocidad del viento	1.6
70478	7	Sololá	702	San José Chacayá	5	Chacayá	1	Enero	2023-03-01T00:00:00	2024-11-06T02:00:00	7	Dirección del viento	1.61
70479	7	Sololá	702	San José Chacayá	5	Chacayá	1	Enero	2023-03-01T00:00:00	2024-11-06T02:00:00	1	Precipitación	0
70480	7	Sololá	702	San José Chacayá	5	Chacayá	1	Enero	2023-03-01T00:00:00	2024-11-06T02:00:00	8	Radiación solar	0
70481	7	Sololá	702	San José Chacayá	5	Chacayá	1	Enero	2023-03-01T00:00:00	2024-11-06T03:00:00	2	Temperatura media	7
70482	7	Sololá	702	San José Chacayá	5	Chacayá	1	Enero	2023-03-01T00:00:00	2024-11-06T03:00:00	4	Temperatura máxima	7.3
70483	7	Sololá	702	San José Chacayá	5	Chacayá	1	Enero	2023-03-01T00:00:00	2024-11-06T03:00:00	3	Temperatura mínima	7
70484	7	Sololá	702	San José Chacayá	5	Chacayá	1	Enero	2023-03-01T00:00:00	2024-11-06T03:00:00	5	Humedad	90
70485	7	Sololá	702	San José Chacayá	5	Chacayá	1	Enero	2023-03-01T00:00:00	2024-11-06T03:00:00	6	Velocidad del viento	1.6
70486	7	Sololá	702	San José Chacayá	5	Chacayá	1	Enero	2023-03-01T00:00:00	2024-11-06T03:00:00	7	Dirección del viento	1.61
70487	7	Sololá	702	San José Chacayá	5	Chacayá	1	Enero	2023-03-01T00:00:00	2024-11-06T03:00:00	1	Precipitación	0
70488	7	Sololá	702	San José Chacayá	5	Chacayá	1	Enero	2023-03-01T00:00:00	2024-11-06T03:00:00	8	Radiación solar	0
70489	7	Sololá	702	San José Chacayá	5	Chacayá	1	Enero	2023-03-01T00:00:00	2024-11-06T04:00:00	2	Temperatura media	7.2
70490	7	Sololá	702	San José Chacayá	5	Chacayá	1	Enero	2023-03-01T00:00:00	2024-11-06T04:00:00	4	Temperatura máxima	7.2
70491	7	Sololá	702	San José Chacayá	5	Chacayá	1	Enero	2023-03-01T00:00:00	2024-11-06T04:00:00	3	Temperatura mínima	6.8
70492	7	Sololá	702	San José Chacayá	5	Chacayá	1	Enero	2023-03-01T00:00:00	2024-11-06T04:00:00	5	Humedad	90
70493	7	Sololá	702	San José Chacayá	5	Chacayá	1	Enero	2023-03-01T00:00:00	2024-11-06T04:00:00	6	Velocidad del viento	1.6
70494	7	Sololá	702	San José Chacayá	5	Chacayá	1	Enero	2023-03-01T00:00:00	2024-11-06T04:00:00	7	Dirección del viento	1.61
70495	7	Sololá	702	San José Chacayá	5	Chacayá	1	Enero	2023-03-01T00:00:00	2024-11-06T04:00:00	1	Precipitación	0
70496	7	Sololá	702	San José Chacayá	5	Chacayá	1	Enero	2023-03-01T00:00:00	2024-11-06T04:00:00	8	Radiación solar	0
70497	7	Sololá	702	San José Chacayá	5	Chacayá	1	Enero	2023-03-01T00:00:00	2024-11-06T05:00:00	2	Temperatura media	7.1
70498	7	Sololá	702	San José Chacayá	5	Chacayá	1	Enero	2023-03-01T00:00:00	2024-11-06T05:00:00	4	Temperatura máxima	7.3
70499	7	Sololá	702	San José Chacayá	5	Chacayá	1	Enero	2023-03-01T00:00:00	2024-11-06T05:00:00	3	Temperatura mínima	7.1
70500	7	Sololá	702	San José Chacayá	5	Chacayá	1	Enero	2023-03-01T00:00:00	2024-11-06T05:00:00	5	Humedad	90
70501	7	Sololá	702	San José Chacayá	5	Chacayá	1	Enero	2023-03-01T00:00:00	2024-11-06T05:00:00	6	Velocidad del viento	1.6
70502	7	Sololá	702	San José Chacayá	5	Chacayá	1	Enero	2023-03-01T00:00:00	2024-11-06T05:00:00	7	Dirección del viento	1.61
70503	7	Sololá	702	San José Chacayá	5	Chacayá	1	Enero	2023-03-01T00:00:00	2024-11-06T05:00:00	1	Precipitación	0
70504	7	Sololá	702	San José Chacayá	5	Chacayá	1	Enero	2023-03-01T00:00:00	2024-11-06T05:00:00	8	Radiación solar	0
70505	7	Sololá	702	San José Chacayá	5	Chacayá	1	Enero	2023-03-01T00:00:00	2024-11-06T06:00:00	2	Temperatura media	7.5
70506	7	Sololá	702	San José Chacayá	5	Chacayá	1	Enero	2023-03-01T00:00:00	2024-11-06T06:00:00	4	Temperatura máxima	7.6
70507	7	Sololá	702	San José Chacayá	5	Chacayá	1	Enero	2023-03-01T00:00:00	2024-11-06T06:00:00	3	Temperatura mínima	7.1
70508	7	Sololá	702	San José Chacayá	5	Chacayá	1	Enero	2023-03-01T00:00:00	2024-11-06T06:00:00	5	Humedad	88
70509	7	Sololá	702	San José Chacayá	5	Chacayá	1	Enero	2023-03-01T00:00:00	2024-11-06T06:00:00	6	Velocidad del viento	1.6
70510	7	Sololá	702	San José Chacayá	5	Chacayá	1	Enero	2023-03-01T00:00:00	2024-11-06T06:00:00	7	Dirección del viento	1.61
70511	7	Sololá	702	San José Chacayá	5	Chacayá	1	Enero	2023-03-01T00:00:00	2024-11-06T06:00:00	1	Precipitación	0
70512	7	Sololá	702	San José Chacayá	5	Chacayá	1	Enero	2023-03-01T00:00:00	2024-11-06T06:00:00	8	Radiación solar	0
70513	7	Sololá	702	San José Chacayá	5	Chacayá	1	Enero	2023-03-01T00:00:00	2024-11-06T07:00:00	2	Temperatura media	11
70514	7	Sololá	702	San José Chacayá	5	Chacayá	1	Enero	2023-03-01T00:00:00	2024-11-06T07:00:00	4	Temperatura máxima	11
70515	7	Sololá	702	San José Chacayá	5	Chacayá	1	Enero	2023-03-01T00:00:00	2024-11-06T07:00:00	3	Temperatura mínima	7.5
70516	7	Sololá	702	San José Chacayá	5	Chacayá	1	Enero	2023-03-01T00:00:00	2024-11-06T07:00:00	5	Humedad	83
70517	7	Sololá	702	San José Chacayá	5	Chacayá	1	Enero	2023-03-01T00:00:00	2024-11-06T07:00:00	6	Velocidad del viento	1.6
70518	7	Sololá	702	San José Chacayá	5	Chacayá	1	Enero	2023-03-01T00:00:00	2024-11-06T07:00:00	7	Dirección del viento	1.61
70519	7	Sololá	702	San José Chacayá	5	Chacayá	1	Enero	2023-03-01T00:00:00	2024-11-06T07:00:00	1	Precipitación	0
70520	7	Sololá	702	San José Chacayá	5	Chacayá	1	Enero	2023-03-01T00:00:00	2024-11-06T07:00:00	8	Radiación solar	9
70521	7	Sololá	702	San José Chacayá	5	Chacayá	1	Enero	2023-03-01T00:00:00	2024-11-06T08:00:00	2	Temperatura media	16.2
70522	7	Sololá	702	San José Chacayá	5	Chacayá	1	Enero	2023-03-01T00:00:00	2024-11-06T08:00:00	4	Temperatura máxima	16.2
70523	7	Sololá	702	San José Chacayá	5	Chacayá	1	Enero	2023-03-01T00:00:00	2024-11-06T08:00:00	3	Temperatura mínima	11
70524	7	Sololá	702	San José Chacayá	5	Chacayá	1	Enero	2023-03-01T00:00:00	2024-11-06T08:00:00	5	Humedad	66
70525	7	Sololá	702	San José Chacayá	5	Chacayá	1	Enero	2023-03-01T00:00:00	2024-11-06T08:00:00	6	Velocidad del viento	1.6
70526	7	Sololá	702	San José Chacayá	5	Chacayá	1	Enero	2023-03-01T00:00:00	2024-11-06T08:00:00	7	Dirección del viento	1.61
70527	7	Sololá	702	San José Chacayá	5	Chacayá	1	Enero	2023-03-01T00:00:00	2024-11-06T08:00:00	1	Precipitación	0
70528	7	Sololá	702	San José Chacayá	5	Chacayá	1	Enero	2023-03-01T00:00:00	2024-11-06T08:00:00	8	Radiación solar	177
70529	7	Sololá	702	San José Chacayá	5	Chacayá	1	Enero	2023-03-01T00:00:00	2024-11-06T09:00:00	2	Temperatura media	18.2
70530	7	Sololá	702	San José Chacayá	5	Chacayá	1	Enero	2023-03-01T00:00:00	2024-11-06T09:00:00	4	Temperatura máxima	18.2
70531	7	Sololá	702	San José Chacayá	5	Chacayá	1	Enero	2023-03-01T00:00:00	2024-11-06T09:00:00	3	Temperatura mínima	16.2
70532	7	Sololá	702	San José Chacayá	5	Chacayá	1	Enero	2023-03-01T00:00:00	2024-11-06T09:00:00	5	Humedad	69
70533	7	Sololá	702	San José Chacayá	5	Chacayá	1	Enero	2023-03-01T00:00:00	2024-11-06T09:00:00	6	Velocidad del viento	1.6
70534	7	Sololá	702	San José Chacayá	5	Chacayá	1	Enero	2023-03-01T00:00:00	2024-11-06T09:00:00	7	Dirección del viento	1.61
70535	7	Sololá	702	San José Chacayá	5	Chacayá	1	Enero	2023-03-01T00:00:00	2024-11-06T09:00:00	1	Precipitación	0
70536	7	Sololá	702	San José Chacayá	5	Chacayá	1	Enero	2023-03-01T00:00:00	2024-11-06T09:00:00	8	Radiación solar	191
70537	7	Sololá	702	San José Chacayá	5	Chacayá	1	Enero	2023-03-01T00:00:00	2024-11-06T10:00:00	2	Temperatura media	19.4
70538	7	Sololá	702	San José Chacayá	5	Chacayá	1	Enero	2023-03-01T00:00:00	2024-11-06T10:00:00	4	Temperatura máxima	19.6
70539	7	Sololá	702	San José Chacayá	5	Chacayá	1	Enero	2023-03-01T00:00:00	2024-11-06T10:00:00	3	Temperatura mínima	18.2
70540	7	Sololá	702	San José Chacayá	5	Chacayá	1	Enero	2023-03-01T00:00:00	2024-11-06T10:00:00	5	Humedad	64
70541	7	Sololá	702	San José Chacayá	5	Chacayá	1	Enero	2023-03-01T00:00:00	2024-11-06T10:00:00	6	Velocidad del viento	3.2
70542	7	Sololá	702	San José Chacayá	5	Chacayá	1	Enero	2023-03-01T00:00:00	2024-11-06T10:00:00	7	Dirección del viento	3.22
70543	7	Sololá	702	San José Chacayá	5	Chacayá	1	Enero	2023-03-01T00:00:00	2024-11-06T10:00:00	1	Precipitación	0
70544	7	Sololá	702	San José Chacayá	5	Chacayá	1	Enero	2023-03-01T00:00:00	2024-11-06T10:00:00	8	Radiación solar	196
70545	7	Sololá	702	San José Chacayá	5	Chacayá	1	Enero	2023-03-01T00:00:00	2024-11-06T11:00:00	2	Temperatura media	18.1
70546	7	Sololá	702	San José Chacayá	5	Chacayá	1	Enero	2023-03-01T00:00:00	2024-11-06T11:00:00	4	Temperatura máxima	19.4
70547	7	Sololá	702	San José Chacayá	5	Chacayá	1	Enero	2023-03-01T00:00:00	2024-11-06T11:00:00	3	Temperatura mínima	17.5
70548	7	Sololá	702	San José Chacayá	5	Chacayá	1	Enero	2023-03-01T00:00:00	2024-11-06T11:00:00	5	Humedad	68
70549	7	Sololá	702	San José Chacayá	5	Chacayá	1	Enero	2023-03-01T00:00:00	2024-11-06T11:00:00	6	Velocidad del viento	3.2
70550	7	Sololá	702	San José Chacayá	5	Chacayá	1	Enero	2023-03-01T00:00:00	2024-11-06T11:00:00	7	Dirección del viento	3.22
70551	7	Sololá	702	San José Chacayá	5	Chacayá	1	Enero	2023-03-01T00:00:00	2024-11-06T11:00:00	1	Precipitación	0
70552	7	Sololá	702	San José Chacayá	5	Chacayá	1	Enero	2023-03-01T00:00:00	2024-11-06T11:00:00	8	Radiación solar	160
70553	7	Sololá	702	San José Chacayá	5	Chacayá	1	Enero	2023-03-01T00:00:00	2024-11-06T12:00:00	2	Temperatura media	20.6
70554	7	Sololá	702	San José Chacayá	5	Chacayá	1	Enero	2023-03-01T00:00:00	2024-11-06T12:00:00	4	Temperatura máxima	20.9
70555	7	Sololá	702	San José Chacayá	5	Chacayá	1	Enero	2023-03-01T00:00:00	2024-11-06T12:00:00	3	Temperatura mínima	18.1
70556	7	Sololá	702	San José Chacayá	5	Chacayá	1	Enero	2023-03-01T00:00:00	2024-11-06T12:00:00	5	Humedad	57
70557	7	Sololá	702	San José Chacayá	5	Chacayá	1	Enero	2023-03-01T00:00:00	2024-11-06T12:00:00	6	Velocidad del viento	3.2
70558	7	Sololá	702	San José Chacayá	5	Chacayá	1	Enero	2023-03-01T00:00:00	2024-11-06T12:00:00	7	Dirección del viento	3.22
70559	7	Sololá	702	San José Chacayá	5	Chacayá	1	Enero	2023-03-01T00:00:00	2024-11-06T12:00:00	1	Precipitación	0
70560	7	Sololá	702	San José Chacayá	5	Chacayá	1	Enero	2023-03-01T00:00:00	2024-11-06T12:00:00	8	Radiación solar	761
70561	7	Sololá	702	San José Chacayá	5	Chacayá	1	Enero	2023-03-01T00:00:00	2024-11-06T13:00:00	2	Temperatura media	21.4
70562	7	Sololá	702	San José Chacayá	5	Chacayá	1	Enero	2023-03-01T00:00:00	2024-11-06T13:00:00	4	Temperatura máxima	22.3
70563	7	Sololá	702	San José Chacayá	5	Chacayá	1	Enero	2023-03-01T00:00:00	2024-11-06T13:00:00	3	Temperatura mínima	20.4
70564	7	Sololá	702	San José Chacayá	5	Chacayá	1	Enero	2023-03-01T00:00:00	2024-11-06T13:00:00	5	Humedad	54
70565	7	Sololá	702	San José Chacayá	5	Chacayá	1	Enero	2023-03-01T00:00:00	2024-11-06T13:00:00	6	Velocidad del viento	3.2
70566	7	Sololá	702	San José Chacayá	5	Chacayá	1	Enero	2023-03-01T00:00:00	2024-11-06T13:00:00	7	Dirección del viento	3.22
70567	7	Sololá	702	San José Chacayá	5	Chacayá	1	Enero	2023-03-01T00:00:00	2024-11-06T13:00:00	1	Precipitación	0
70568	7	Sololá	702	San José Chacayá	5	Chacayá	1	Enero	2023-03-01T00:00:00	2024-11-06T13:00:00	8	Radiación solar	826
70569	7	Sololá	702	San José Chacayá	5	Chacayá	1	Enero	2023-03-01T00:00:00	2024-11-06T14:00:00	2	Temperatura media	20.1
70570	7	Sololá	702	San José Chacayá	5	Chacayá	1	Enero	2023-03-01T00:00:00	2024-11-06T14:00:00	4	Temperatura máxima	21.6
70571	7	Sololá	702	San José Chacayá	5	Chacayá	1	Enero	2023-03-01T00:00:00	2024-11-06T14:00:00	3	Temperatura mínima	19.5
70572	7	Sololá	702	San José Chacayá	5	Chacayá	1	Enero	2023-03-01T00:00:00	2024-11-06T14:00:00	5	Humedad	63
70573	7	Sololá	702	San José Chacayá	5	Chacayá	1	Enero	2023-03-01T00:00:00	2024-11-06T14:00:00	6	Velocidad del viento	4.8
70574	7	Sololá	702	San José Chacayá	5	Chacayá	1	Enero	2023-03-01T00:00:00	2024-11-06T14:00:00	7	Dirección del viento	4.83
70575	7	Sololá	702	San José Chacayá	5	Chacayá	1	Enero	2023-03-01T00:00:00	2024-11-06T14:00:00	1	Precipitación	0
70576	7	Sololá	702	San José Chacayá	5	Chacayá	1	Enero	2023-03-01T00:00:00	2024-11-06T14:00:00	8	Radiación solar	196
70577	7	Sololá	702	San José Chacayá	5	Chacayá	1	Enero	2023-03-01T00:00:00	2024-11-06T15:00:00	2	Temperatura media	19.2
70578	7	Sololá	702	San José Chacayá	5	Chacayá	1	Enero	2023-03-01T00:00:00	2024-11-06T15:00:00	4	Temperatura máxima	20.6
70579	7	Sololá	702	San José Chacayá	5	Chacayá	1	Enero	2023-03-01T00:00:00	2024-11-06T15:00:00	3	Temperatura mínima	19.2
70580	7	Sololá	702	San José Chacayá	5	Chacayá	1	Enero	2023-03-01T00:00:00	2024-11-06T15:00:00	5	Humedad	72
70581	7	Sololá	702	San José Chacayá	5	Chacayá	1	Enero	2023-03-01T00:00:00	2024-11-06T15:00:00	6	Velocidad del viento	3.2
70582	7	Sololá	702	San José Chacayá	5	Chacayá	1	Enero	2023-03-01T00:00:00	2024-11-06T15:00:00	7	Dirección del viento	3.22
70583	7	Sololá	702	San José Chacayá	5	Chacayá	1	Enero	2023-03-01T00:00:00	2024-11-06T15:00:00	1	Precipitación	0
70584	7	Sololá	702	San José Chacayá	5	Chacayá	1	Enero	2023-03-01T00:00:00	2024-11-06T15:00:00	8	Radiación solar	251
70585	7	Sololá	702	San José Chacayá	5	Chacayá	1	Enero	2023-03-01T00:00:00	2024-11-06T16:00:00	2	Temperatura media	16.8
70586	7	Sololá	702	San José Chacayá	5	Chacayá	1	Enero	2023-03-01T00:00:00	2024-11-06T16:00:00	4	Temperatura máxima	19.2
70587	7	Sololá	702	San José Chacayá	5	Chacayá	1	Enero	2023-03-01T00:00:00	2024-11-06T16:00:00	3	Temperatura mínima	16.8
70588	7	Sololá	702	San José Chacayá	5	Chacayá	1	Enero	2023-03-01T00:00:00	2024-11-06T16:00:00	5	Humedad	84
70589	7	Sololá	702	San José Chacayá	5	Chacayá	1	Enero	2023-03-01T00:00:00	2024-11-06T16:00:00	6	Velocidad del viento	3.2
70590	7	Sololá	702	San José Chacayá	5	Chacayá	1	Enero	2023-03-01T00:00:00	2024-11-06T16:00:00	7	Dirección del viento	3.22
70591	7	Sololá	702	San José Chacayá	5	Chacayá	1	Enero	2023-03-01T00:00:00	2024-11-06T16:00:00	1	Precipitación	0
70592	7	Sololá	702	San José Chacayá	5	Chacayá	1	Enero	2023-03-01T00:00:00	2024-11-06T16:00:00	8	Radiación solar	128
70593	7	Sololá	702	San José Chacayá	5	Chacayá	1	Enero	2023-03-01T00:00:00	2024-11-06T17:00:00	2	Temperatura media	15.1
70594	7	Sololá	702	San José Chacayá	5	Chacayá	1	Enero	2023-03-01T00:00:00	2024-11-06T17:00:00	4	Temperatura máxima	16.8
70595	7	Sololá	702	San José Chacayá	5	Chacayá	1	Enero	2023-03-01T00:00:00	2024-11-06T17:00:00	3	Temperatura mínima	15.1
70596	7	Sololá	702	San José Chacayá	5	Chacayá	1	Enero	2023-03-01T00:00:00	2024-11-06T17:00:00	5	Humedad	90
70597	7	Sololá	702	San José Chacayá	5	Chacayá	1	Enero	2023-03-01T00:00:00	2024-11-06T17:00:00	6	Velocidad del viento	0
70598	7	Sololá	702	San José Chacayá	5	Chacayá	1	Enero	2023-03-01T00:00:00	2024-11-06T17:00:00	7	Dirección del viento	0
70599	7	Sololá	702	San José Chacayá	5	Chacayá	1	Enero	2023-03-01T00:00:00	2024-11-06T17:00:00	1	Precipitación	0
70600	7	Sololá	702	San José Chacayá	5	Chacayá	1	Enero	2023-03-01T00:00:00	2024-11-06T17:00:00	8	Radiación solar	97
70601	7	Sololá	702	San José Chacayá	5	Chacayá	1	Enero	2023-03-01T00:00:00	2024-11-06T18:00:00	2	Temperatura media	14.3
70602	7	Sololá	702	San José Chacayá	5	Chacayá	1	Enero	2023-03-01T00:00:00	2024-11-06T18:00:00	4	Temperatura máxima	15.1
70603	7	Sololá	702	San José Chacayá	5	Chacayá	1	Enero	2023-03-01T00:00:00	2024-11-06T18:00:00	3	Temperatura mínima	14.3
70604	7	Sololá	702	San José Chacayá	5	Chacayá	1	Enero	2023-03-01T00:00:00	2024-11-06T18:00:00	5	Humedad	92
70605	7	Sololá	702	San José Chacayá	5	Chacayá	1	Enero	2023-03-01T00:00:00	2024-11-06T18:00:00	6	Velocidad del viento	0
70606	7	Sololá	702	San José Chacayá	5	Chacayá	1	Enero	2023-03-01T00:00:00	2024-11-06T18:00:00	7	Dirección del viento	0
70607	7	Sololá	702	San José Chacayá	5	Chacayá	1	Enero	2023-03-01T00:00:00	2024-11-06T18:00:00	1	Precipitación	0
70608	7	Sololá	702	San José Chacayá	5	Chacayá	1	Enero	2023-03-01T00:00:00	2024-11-06T18:00:00	8	Radiación solar	7
70609	7	Sololá	702	San José Chacayá	5	Chacayá	1	Enero	2023-03-01T00:00:00	2024-11-06T19:00:00	2	Temperatura media	12.8
70610	7	Sololá	702	San José Chacayá	5	Chacayá	1	Enero	2023-03-01T00:00:00	2024-11-06T19:00:00	4	Temperatura máxima	14.3
70611	7	Sololá	702	San José Chacayá	5	Chacayá	1	Enero	2023-03-01T00:00:00	2024-11-06T19:00:00	3	Temperatura mínima	12.8
70612	7	Sololá	702	San José Chacayá	5	Chacayá	1	Enero	2023-03-01T00:00:00	2024-11-06T19:00:00	5	Humedad	91
70613	7	Sololá	702	San José Chacayá	5	Chacayá	1	Enero	2023-03-01T00:00:00	2024-11-06T19:00:00	6	Velocidad del viento	0
70614	7	Sololá	702	San José Chacayá	5	Chacayá	1	Enero	2023-03-01T00:00:00	2024-11-06T19:00:00	7	Dirección del viento	0
70615	7	Sololá	702	San José Chacayá	5	Chacayá	1	Enero	2023-03-01T00:00:00	2024-11-06T19:00:00	1	Precipitación	0
70616	7	Sololá	702	San José Chacayá	5	Chacayá	1	Enero	2023-03-01T00:00:00	2024-11-06T19:00:00	8	Radiación solar	0
70617	7	Sololá	702	San José Chacayá	5	Chacayá	1	Enero	2023-03-01T00:00:00	2024-11-06T20:00:00	2	Temperatura media	11.5
70618	7	Sololá	702	San José Chacayá	5	Chacayá	1	Enero	2023-03-01T00:00:00	2024-11-06T20:00:00	4	Temperatura máxima	12.8
70619	7	Sololá	702	San José Chacayá	5	Chacayá	1	Enero	2023-03-01T00:00:00	2024-11-06T20:00:00	3	Temperatura mínima	11.5
70620	7	Sololá	702	San José Chacayá	5	Chacayá	1	Enero	2023-03-01T00:00:00	2024-11-06T20:00:00	5	Humedad	92
70621	7	Sololá	702	San José Chacayá	5	Chacayá	1	Enero	2023-03-01T00:00:00	2024-11-06T20:00:00	6	Velocidad del viento	1.6
70622	7	Sololá	702	San José Chacayá	5	Chacayá	1	Enero	2023-03-01T00:00:00	2024-11-06T20:00:00	7	Dirección del viento	1.61
70623	7	Sololá	702	San José Chacayá	5	Chacayá	1	Enero	2023-03-01T00:00:00	2024-11-06T20:00:00	1	Precipitación	0
70624	7	Sololá	702	San José Chacayá	5	Chacayá	1	Enero	2023-03-01T00:00:00	2024-11-06T20:00:00	8	Radiación solar	0
70625	7	Sololá	702	San José Chacayá	5	Chacayá	1	Enero	2023-03-01T00:00:00	2024-11-06T21:00:00	2	Temperatura media	10.6
70626	7	Sololá	702	San José Chacayá	5	Chacayá	1	Enero	2023-03-01T00:00:00	2024-11-06T21:00:00	4	Temperatura máxima	11.5
70627	7	Sololá	702	San José Chacayá	5	Chacayá	1	Enero	2023-03-01T00:00:00	2024-11-06T21:00:00	3	Temperatura mínima	10.6
70628	7	Sololá	702	San José Chacayá	5	Chacayá	1	Enero	2023-03-01T00:00:00	2024-11-06T21:00:00	5	Humedad	92
70629	7	Sololá	702	San José Chacayá	5	Chacayá	1	Enero	2023-03-01T00:00:00	2024-11-06T21:00:00	6	Velocidad del viento	1.6
70630	7	Sololá	702	San José Chacayá	5	Chacayá	1	Enero	2023-03-01T00:00:00	2024-11-06T21:00:00	7	Dirección del viento	1.61
70631	7	Sololá	702	San José Chacayá	5	Chacayá	1	Enero	2023-03-01T00:00:00	2024-11-06T21:00:00	1	Precipitación	0
70632	7	Sololá	702	San José Chacayá	5	Chacayá	1	Enero	2023-03-01T00:00:00	2024-11-06T21:00:00	8	Radiación solar	0
70633	7	Sololá	702	San José Chacayá	5	Chacayá	1	Enero	2023-03-01T00:00:00	2024-11-06T22:00:00	2	Temperatura media	9.8
70634	7	Sololá	702	San José Chacayá	5	Chacayá	1	Enero	2023-03-01T00:00:00	2024-11-06T22:00:00	4	Temperatura máxima	10.6
70635	7	Sololá	702	San José Chacayá	5	Chacayá	1	Enero	2023-03-01T00:00:00	2024-11-06T22:00:00	3	Temperatura mínima	9.8
70636	7	Sololá	702	San José Chacayá	5	Chacayá	1	Enero	2023-03-01T00:00:00	2024-11-06T22:00:00	5	Humedad	92
70637	7	Sololá	702	San José Chacayá	5	Chacayá	1	Enero	2023-03-01T00:00:00	2024-11-06T22:00:00	6	Velocidad del viento	1.6
70638	7	Sololá	702	San José Chacayá	5	Chacayá	1	Enero	2023-03-01T00:00:00	2024-11-06T22:00:00	7	Dirección del viento	1.61
70639	7	Sololá	702	San José Chacayá	5	Chacayá	1	Enero	2023-03-01T00:00:00	2024-11-06T22:00:00	1	Precipitación	0
70640	7	Sololá	702	San José Chacayá	5	Chacayá	1	Enero	2023-03-01T00:00:00	2024-11-06T22:00:00	8	Radiación solar	0
70641	7	Sololá	702	San José Chacayá	5	Chacayá	1	Enero	2023-03-01T00:00:00	2024-11-06T23:00:00	2	Temperatura media	8.9
70642	7	Sololá	702	San José Chacayá	5	Chacayá	1	Enero	2023-03-01T00:00:00	2024-11-06T23:00:00	4	Temperatura máxima	9.8
70643	7	Sololá	702	San José Chacayá	5	Chacayá	1	Enero	2023-03-01T00:00:00	2024-11-06T23:00:00	3	Temperatura mínima	8.9
70644	7	Sololá	702	San José Chacayá	5	Chacayá	1	Enero	2023-03-01T00:00:00	2024-11-06T23:00:00	5	Humedad	93
70645	7	Sololá	702	San José Chacayá	5	Chacayá	1	Enero	2023-03-01T00:00:00	2024-11-06T23:00:00	6	Velocidad del viento	1.6
70646	7	Sololá	702	San José Chacayá	5	Chacayá	1	Enero	2023-03-01T00:00:00	2024-11-06T23:00:00	7	Dirección del viento	1.61
70647	7	Sololá	702	San José Chacayá	5	Chacayá	1	Enero	2023-03-01T00:00:00	2024-11-06T23:00:00	1	Precipitación	0
70648	7	Sololá	702	San José Chacayá	5	Chacayá	1	Enero	2023-03-01T00:00:00	2024-11-06T23:00:00	8	Radiación solar	0
70649	7	Sololá	702	San José Chacayá	5	Chacayá	1	Enero	2023-04-01T00:00:00	2024-11-06T00:00:00	2	Temperatura media	8.5
70650	7	Sololá	702	San José Chacayá	5	Chacayá	1	Enero	2023-04-01T00:00:00	2024-11-06T00:00:00	4	Temperatura máxima	8.9
70651	7	Sololá	702	San José Chacayá	5	Chacayá	1	Enero	2023-04-01T00:00:00	2024-11-06T00:00:00	3	Temperatura mínima	8.5
70652	7	Sololá	702	San José Chacayá	5	Chacayá	1	Enero	2023-04-01T00:00:00	2024-11-06T00:00:00	5	Humedad	93
70653	7	Sololá	702	San José Chacayá	5	Chacayá	1	Enero	2023-04-01T00:00:00	2024-11-06T00:00:00	6	Velocidad del viento	1.6
70654	7	Sololá	702	San José Chacayá	5	Chacayá	1	Enero	2023-04-01T00:00:00	2024-11-06T00:00:00	7	Dirección del viento	1.61
70655	7	Sololá	702	San José Chacayá	5	Chacayá	1	Enero	2023-04-01T00:00:00	2024-11-06T00:00:00	1	Precipitación	0
70656	7	Sololá	702	San José Chacayá	5	Chacayá	1	Enero	2023-04-01T00:00:00	2024-11-06T00:00:00	8	Radiación solar	0
70657	7	Sololá	702	San José Chacayá	5	Chacayá	1	Enero	2023-04-01T00:00:00	2024-11-06T01:00:00	2	Temperatura media	8.4
70658	7	Sololá	702	San José Chacayá	5	Chacayá	1	Enero	2023-04-01T00:00:00	2024-11-06T01:00:00	4	Temperatura máxima	8.6
70659	7	Sololá	702	San José Chacayá	5	Chacayá	1	Enero	2023-04-01T00:00:00	2024-11-06T01:00:00	3	Temperatura mínima	8.4
70660	7	Sololá	702	San José Chacayá	5	Chacayá	1	Enero	2023-04-01T00:00:00	2024-11-06T01:00:00	5	Humedad	93
70661	7	Sololá	702	San José Chacayá	5	Chacayá	1	Enero	2023-04-01T00:00:00	2024-11-06T01:00:00	6	Velocidad del viento	1.6
70662	7	Sololá	702	San José Chacayá	5	Chacayá	1	Enero	2023-04-01T00:00:00	2024-11-06T01:00:00	7	Dirección del viento	1.61
70663	7	Sololá	702	San José Chacayá	5	Chacayá	1	Enero	2023-04-01T00:00:00	2024-11-06T01:00:00	1	Precipitación	0
70664	7	Sololá	702	San José Chacayá	5	Chacayá	1	Enero	2023-04-01T00:00:00	2024-11-06T01:00:00	8	Radiación solar	0
70665	7	Sololá	702	San José Chacayá	5	Chacayá	1	Enero	2023-04-01T00:00:00	2024-11-06T02:00:00	2	Temperatura media	8.1
70666	7	Sololá	702	San José Chacayá	5	Chacayá	1	Enero	2023-04-01T00:00:00	2024-11-06T02:00:00	4	Temperatura máxima	8.5
70667	7	Sololá	702	San José Chacayá	5	Chacayá	1	Enero	2023-04-01T00:00:00	2024-11-06T02:00:00	3	Temperatura mínima	8.1
70668	7	Sololá	702	San José Chacayá	5	Chacayá	1	Enero	2023-04-01T00:00:00	2024-11-06T02:00:00	5	Humedad	94
70669	7	Sololá	702	San José Chacayá	5	Chacayá	1	Enero	2023-04-01T00:00:00	2024-11-06T02:00:00	6	Velocidad del viento	1.6
70670	7	Sololá	702	San José Chacayá	5	Chacayá	1	Enero	2023-04-01T00:00:00	2024-11-06T02:00:00	7	Dirección del viento	1.61
70671	7	Sololá	702	San José Chacayá	5	Chacayá	1	Enero	2023-04-01T00:00:00	2024-11-06T02:00:00	1	Precipitación	0
70672	7	Sololá	702	San José Chacayá	5	Chacayá	1	Enero	2023-04-01T00:00:00	2024-11-06T02:00:00	8	Radiación solar	0
70673	7	Sololá	702	San José Chacayá	5	Chacayá	1	Enero	2023-04-01T00:00:00	2024-11-06T03:00:00	2	Temperatura media	7.4
70674	7	Sololá	702	San José Chacayá	5	Chacayá	1	Enero	2023-04-01T00:00:00	2024-11-06T03:00:00	4	Temperatura máxima	8.1
70675	7	Sololá	702	San José Chacayá	5	Chacayá	1	Enero	2023-04-01T00:00:00	2024-11-06T03:00:00	3	Temperatura mínima	7.3
70676	7	Sololá	702	San José Chacayá	5	Chacayá	1	Enero	2023-04-01T00:00:00	2024-11-06T03:00:00	5	Humedad	94
70677	7	Sololá	702	San José Chacayá	5	Chacayá	1	Enero	2023-04-01T00:00:00	2024-11-06T03:00:00	6	Velocidad del viento	1.6
70678	7	Sololá	702	San José Chacayá	5	Chacayá	1	Enero	2023-04-01T00:00:00	2024-11-06T03:00:00	7	Dirección del viento	1.61
70679	7	Sololá	702	San José Chacayá	5	Chacayá	1	Enero	2023-04-01T00:00:00	2024-11-06T03:00:00	1	Precipitación	0
70680	7	Sololá	702	San José Chacayá	5	Chacayá	1	Enero	2023-04-01T00:00:00	2024-11-06T03:00:00	8	Radiación solar	0
70681	7	Sololá	702	San José Chacayá	5	Chacayá	1	Enero	2023-04-01T00:00:00	2024-11-06T04:00:00	2	Temperatura media	6.9
70682	7	Sololá	702	San José Chacayá	5	Chacayá	1	Enero	2023-04-01T00:00:00	2024-11-06T04:00:00	4	Temperatura máxima	7.4
70683	7	Sololá	702	San José Chacayá	5	Chacayá	1	Enero	2023-04-01T00:00:00	2024-11-06T04:00:00	3	Temperatura mínima	6.8
70684	7	Sololá	702	San José Chacayá	5	Chacayá	1	Enero	2023-04-01T00:00:00	2024-11-06T04:00:00	5	Humedad	94
70685	7	Sololá	702	San José Chacayá	5	Chacayá	1	Enero	2023-04-01T00:00:00	2024-11-06T04:00:00	6	Velocidad del viento	1.6
70686	7	Sololá	702	San José Chacayá	5	Chacayá	1	Enero	2023-04-01T00:00:00	2024-11-06T04:00:00	7	Dirección del viento	1.61
70687	7	Sololá	702	San José Chacayá	5	Chacayá	1	Enero	2023-04-01T00:00:00	2024-11-06T04:00:00	1	Precipitación	0
70688	7	Sololá	702	San José Chacayá	5	Chacayá	1	Enero	2023-04-01T00:00:00	2024-11-06T04:00:00	8	Radiación solar	0
70689	7	Sololá	702	San José Chacayá	5	Chacayá	1	Enero	2023-04-01T00:00:00	2024-11-06T05:00:00	2	Temperatura media	6.6
70690	7	Sololá	702	San José Chacayá	5	Chacayá	1	Enero	2023-04-01T00:00:00	2024-11-06T05:00:00	4	Temperatura máxima	6.9
70691	7	Sololá	702	San José Chacayá	5	Chacayá	1	Enero	2023-04-01T00:00:00	2024-11-06T05:00:00	3	Temperatura mínima	6.6
70692	7	Sololá	702	San José Chacayá	5	Chacayá	1	Enero	2023-04-01T00:00:00	2024-11-06T05:00:00	5	Humedad	94
70693	7	Sololá	702	San José Chacayá	5	Chacayá	1	Enero	2023-04-01T00:00:00	2024-11-06T05:00:00	6	Velocidad del viento	1.6
70694	7	Sololá	702	San José Chacayá	5	Chacayá	1	Enero	2023-04-01T00:00:00	2024-11-06T05:00:00	7	Dirección del viento	1.61
70695	7	Sololá	702	San José Chacayá	5	Chacayá	1	Enero	2023-04-01T00:00:00	2024-11-06T05:00:00	1	Precipitación	0
70696	7	Sololá	702	San José Chacayá	5	Chacayá	1	Enero	2023-04-01T00:00:00	2024-11-06T05:00:00	8	Radiación solar	0
70697	7	Sololá	702	San José Chacayá	5	Chacayá	1	Enero	2023-04-01T00:00:00	2024-11-06T06:00:00	2	Temperatura media	7.2
70698	7	Sololá	702	San José Chacayá	5	Chacayá	1	Enero	2023-04-01T00:00:00	2024-11-06T06:00:00	4	Temperatura máxima	7.2
70699	7	Sololá	702	San José Chacayá	5	Chacayá	1	Enero	2023-04-01T00:00:00	2024-11-06T06:00:00	3	Temperatura mínima	6.4
70700	7	Sololá	702	San José Chacayá	5	Chacayá	1	Enero	2023-04-01T00:00:00	2024-11-06T06:00:00	5	Humedad	93
70701	7	Sololá	702	San José Chacayá	5	Chacayá	1	Enero	2023-04-01T00:00:00	2024-11-06T06:00:00	6	Velocidad del viento	3.2
70702	7	Sololá	702	San José Chacayá	5	Chacayá	1	Enero	2023-04-01T00:00:00	2024-11-06T06:00:00	7	Dirección del viento	3.22
70703	7	Sololá	702	San José Chacayá	5	Chacayá	1	Enero	2023-04-01T00:00:00	2024-11-06T06:00:00	1	Precipitación	0
70704	7	Sololá	702	San José Chacayá	5	Chacayá	1	Enero	2023-04-01T00:00:00	2024-11-06T06:00:00	8	Radiación solar	0
70705	7	Sololá	702	San José Chacayá	5	Chacayá	1	Enero	2023-04-01T00:00:00	2024-11-06T07:00:00	2	Temperatura media	11.5
70706	7	Sololá	702	San José Chacayá	5	Chacayá	1	Enero	2023-04-01T00:00:00	2024-11-06T07:00:00	4	Temperatura máxima	11.5
70707	7	Sololá	702	San José Chacayá	5	Chacayá	1	Enero	2023-04-01T00:00:00	2024-11-06T07:00:00	3	Temperatura mínima	7.2
70708	7	Sololá	702	San José Chacayá	5	Chacayá	1	Enero	2023-04-01T00:00:00	2024-11-06T07:00:00	5	Humedad	85
70709	7	Sololá	702	San José Chacayá	5	Chacayá	1	Enero	2023-04-01T00:00:00	2024-11-06T07:00:00	6	Velocidad del viento	3.2
70710	7	Sololá	702	San José Chacayá	5	Chacayá	1	Enero	2023-04-01T00:00:00	2024-11-06T07:00:00	7	Dirección del viento	3.22
70711	7	Sololá	702	San José Chacayá	5	Chacayá	1	Enero	2023-04-01T00:00:00	2024-11-06T07:00:00	1	Precipitación	0
70712	7	Sololá	702	San José Chacayá	5	Chacayá	1	Enero	2023-04-01T00:00:00	2024-11-06T07:00:00	8	Radiación solar	8
70713	7	Sololá	702	San José Chacayá	5	Chacayá	1	Enero	2023-04-01T00:00:00	2024-11-06T08:00:00	2	Temperatura media	17.3
70714	7	Sololá	702	San José Chacayá	5	Chacayá	1	Enero	2023-04-01T00:00:00	2024-11-06T08:00:00	4	Temperatura máxima	17.3
70715	7	Sololá	702	San José Chacayá	5	Chacayá	1	Enero	2023-04-01T00:00:00	2024-11-06T08:00:00	3	Temperatura mínima	11.5
70716	7	Sololá	702	San José Chacayá	5	Chacayá	1	Enero	2023-04-01T00:00:00	2024-11-06T08:00:00	5	Humedad	56
70717	7	Sololá	702	San José Chacayá	5	Chacayá	1	Enero	2023-04-01T00:00:00	2024-11-06T08:00:00	6	Velocidad del viento	1.6
70718	7	Sololá	702	San José Chacayá	5	Chacayá	1	Enero	2023-04-01T00:00:00	2024-11-06T08:00:00	7	Dirección del viento	1.61
70719	7	Sololá	702	San José Chacayá	5	Chacayá	1	Enero	2023-04-01T00:00:00	2024-11-06T08:00:00	1	Precipitación	0
70720	7	Sololá	702	San José Chacayá	5	Chacayá	1	Enero	2023-04-01T00:00:00	2024-11-06T08:00:00	8	Radiación solar	172
70721	7	Sololá	702	San José Chacayá	5	Chacayá	1	Enero	2023-04-01T00:00:00	2024-11-06T09:00:00	2	Temperatura media	18.8
70722	7	Sololá	702	San José Chacayá	5	Chacayá	1	Enero	2023-04-01T00:00:00	2024-11-06T09:00:00	4	Temperatura máxima	19.6
70723	7	Sololá	702	San José Chacayá	5	Chacayá	1	Enero	2023-04-01T00:00:00	2024-11-06T09:00:00	3	Temperatura mínima	17.3
70724	7	Sololá	702	San José Chacayá	5	Chacayá	1	Enero	2023-04-01T00:00:00	2024-11-06T09:00:00	5	Humedad	48
70725	7	Sololá	702	San José Chacayá	5	Chacayá	1	Enero	2023-04-01T00:00:00	2024-11-06T09:00:00	6	Velocidad del viento	4.8
70726	7	Sololá	702	San José Chacayá	5	Chacayá	1	Enero	2023-04-01T00:00:00	2024-11-06T09:00:00	7	Dirección del viento	4.83
70727	7	Sololá	702	San José Chacayá	5	Chacayá	1	Enero	2023-04-01T00:00:00	2024-11-06T09:00:00	1	Precipitación	0
70728	7	Sololá	702	San José Chacayá	5	Chacayá	1	Enero	2023-04-01T00:00:00	2024-11-06T09:00:00	8	Radiación solar	402
70729	7	Sololá	702	San José Chacayá	5	Chacayá	1	Enero	2023-04-01T00:00:00	2024-11-06T10:00:00	2	Temperatura media	21.1
70730	7	Sololá	702	San José Chacayá	5	Chacayá	1	Enero	2023-04-01T00:00:00	2024-11-06T10:00:00	4	Temperatura máxima	21.1
70731	7	Sololá	702	San José Chacayá	5	Chacayá	1	Enero	2023-04-01T00:00:00	2024-11-06T10:00:00	3	Temperatura mínima	18.7
70732	7	Sololá	702	San José Chacayá	5	Chacayá	1	Enero	2023-04-01T00:00:00	2024-11-06T10:00:00	5	Humedad	45
70733	7	Sololá	702	San José Chacayá	5	Chacayá	1	Enero	2023-04-01T00:00:00	2024-11-06T10:00:00	6	Velocidad del viento	4.8
70734	7	Sololá	702	San José Chacayá	5	Chacayá	1	Enero	2023-04-01T00:00:00	2024-11-06T10:00:00	7	Dirección del viento	4.83
70735	7	Sololá	702	San José Chacayá	5	Chacayá	1	Enero	2023-04-01T00:00:00	2024-11-06T10:00:00	1	Precipitación	0
70736	7	Sololá	702	San José Chacayá	5	Chacayá	1	Enero	2023-04-01T00:00:00	2024-11-06T10:00:00	8	Radiación solar	600
70737	7	Sololá	702	San José Chacayá	5	Chacayá	1	Enero	2023-04-01T00:00:00	2024-11-06T11:00:00	2	Temperatura media	21.8
70738	7	Sololá	702	San José Chacayá	5	Chacayá	1	Enero	2023-04-01T00:00:00	2024-11-06T11:00:00	4	Temperatura máxima	22.1
70739	7	Sololá	702	San José Chacayá	5	Chacayá	1	Enero	2023-04-01T00:00:00	2024-11-06T11:00:00	3	Temperatura mínima	21.1
70740	7	Sololá	702	San José Chacayá	5	Chacayá	1	Enero	2023-04-01T00:00:00	2024-11-06T11:00:00	5	Humedad	45
70741	7	Sololá	702	San José Chacayá	5	Chacayá	1	Enero	2023-04-01T00:00:00	2024-11-06T11:00:00	6	Velocidad del viento	6.4
70742	7	Sololá	702	San José Chacayá	5	Chacayá	1	Enero	2023-04-01T00:00:00	2024-11-06T11:00:00	7	Dirección del viento	6.44
70743	7	Sololá	702	San José Chacayá	5	Chacayá	1	Enero	2023-04-01T00:00:00	2024-11-06T11:00:00	1	Precipitación	0
70744	7	Sololá	702	San José Chacayá	5	Chacayá	1	Enero	2023-04-01T00:00:00	2024-11-06T11:00:00	8	Radiación solar	739
70745	7	Sololá	702	San José Chacayá	5	Chacayá	1	Enero	2023-04-01T00:00:00	2024-11-06T12:00:00	2	Temperatura media	21.4
70746	7	Sololá	702	San José Chacayá	5	Chacayá	1	Enero	2023-04-01T00:00:00	2024-11-06T12:00:00	4	Temperatura máxima	21.8
70747	7	Sololá	702	San José Chacayá	5	Chacayá	1	Enero	2023-04-01T00:00:00	2024-11-06T12:00:00	3	Temperatura mínima	21.3
70748	7	Sololá	702	San José Chacayá	5	Chacayá	1	Enero	2023-04-01T00:00:00	2024-11-06T12:00:00	5	Humedad	52
70749	7	Sololá	702	San José Chacayá	5	Chacayá	1	Enero	2023-04-01T00:00:00	2024-11-06T12:00:00	6	Velocidad del viento	6.4
70750	7	Sololá	702	San José Chacayá	5	Chacayá	1	Enero	2023-04-01T00:00:00	2024-11-06T12:00:00	7	Dirección del viento	6.44
70751	7	Sololá	702	San José Chacayá	5	Chacayá	1	Enero	2023-04-01T00:00:00	2024-11-06T12:00:00	1	Precipitación	0
70752	7	Sololá	702	San José Chacayá	5	Chacayá	1	Enero	2023-04-01T00:00:00	2024-11-06T12:00:00	8	Radiación solar	826
70753	7	Sololá	702	San José Chacayá	5	Chacayá	1	Enero	2023-04-01T00:00:00	2024-11-06T13:00:00	2	Temperatura media	21.4
70754	7	Sololá	702	San José Chacayá	5	Chacayá	1	Enero	2023-04-01T00:00:00	2024-11-06T13:00:00	4	Temperatura máxima	21.7
70755	7	Sololá	702	San José Chacayá	5	Chacayá	1	Enero	2023-04-01T00:00:00	2024-11-06T13:00:00	3	Temperatura mínima	21.2
70756	7	Sololá	702	San José Chacayá	5	Chacayá	1	Enero	2023-04-01T00:00:00	2024-11-06T13:00:00	5	Humedad	60
70757	7	Sololá	702	San José Chacayá	5	Chacayá	1	Enero	2023-04-01T00:00:00	2024-11-06T13:00:00	6	Velocidad del viento	4.8
70758	7	Sololá	702	San José Chacayá	5	Chacayá	1	Enero	2023-04-01T00:00:00	2024-11-06T13:00:00	7	Dirección del viento	4.83
70759	7	Sololá	702	San José Chacayá	5	Chacayá	1	Enero	2023-04-01T00:00:00	2024-11-06T13:00:00	1	Precipitación	0
70760	7	Sololá	702	San José Chacayá	5	Chacayá	1	Enero	2023-04-01T00:00:00	2024-11-06T13:00:00	8	Radiación solar	860
70761	7	Sololá	702	San José Chacayá	5	Chacayá	1	Enero	2023-04-01T00:00:00	2024-11-06T14:00:00	2	Temperatura media	20.3
70762	7	Sololá	702	San José Chacayá	5	Chacayá	1	Enero	2023-04-01T00:00:00	2024-11-06T14:00:00	4	Temperatura máxima	21.8
70763	7	Sololá	702	San José Chacayá	5	Chacayá	1	Enero	2023-04-01T00:00:00	2024-11-06T14:00:00	3	Temperatura mínima	20.1
70764	7	Sololá	702	San José Chacayá	5	Chacayá	1	Enero	2023-04-01T00:00:00	2024-11-06T14:00:00	5	Humedad	66
70765	7	Sololá	702	San José Chacayá	5	Chacayá	1	Enero	2023-04-01T00:00:00	2024-11-06T14:00:00	6	Velocidad del viento	3.2
70766	7	Sololá	702	San José Chacayá	5	Chacayá	1	Enero	2023-04-01T00:00:00	2024-11-06T14:00:00	7	Dirección del viento	3.22
70767	7	Sololá	702	San José Chacayá	5	Chacayá	1	Enero	2023-04-01T00:00:00	2024-11-06T14:00:00	1	Precipitación	0
70768	7	Sololá	702	San José Chacayá	5	Chacayá	1	Enero	2023-04-01T00:00:00	2024-11-06T14:00:00	8	Radiación solar	739
70769	7	Sololá	702	San José Chacayá	5	Chacayá	1	Enero	2023-04-01T00:00:00	2024-11-06T15:00:00	2	Temperatura media	19.2
70770	7	Sololá	702	San José Chacayá	5	Chacayá	1	Enero	2023-04-01T00:00:00	2024-11-06T15:00:00	4	Temperatura máxima	20.4
70771	7	Sololá	702	San José Chacayá	5	Chacayá	1	Enero	2023-04-01T00:00:00	2024-11-06T15:00:00	3	Temperatura mínima	19.1
70772	7	Sololá	702	San José Chacayá	5	Chacayá	1	Enero	2023-04-01T00:00:00	2024-11-06T15:00:00	5	Humedad	74
70773	7	Sololá	702	San José Chacayá	5	Chacayá	1	Enero	2023-04-01T00:00:00	2024-11-06T15:00:00	6	Velocidad del viento	1.6
70774	7	Sololá	702	San José Chacayá	5	Chacayá	1	Enero	2023-04-01T00:00:00	2024-11-06T15:00:00	7	Dirección del viento	1.61
70775	7	Sololá	702	San José Chacayá	5	Chacayá	1	Enero	2023-04-01T00:00:00	2024-11-06T15:00:00	1	Precipitación	0
70776	7	Sololá	702	San José Chacayá	5	Chacayá	1	Enero	2023-04-01T00:00:00	2024-11-06T15:00:00	8	Radiación solar	635
70777	7	Sololá	702	San José Chacayá	5	Chacayá	1	Enero	2023-04-01T00:00:00	2024-11-06T16:00:00	2	Temperatura media	17
70778	7	Sololá	702	San José Chacayá	5	Chacayá	1	Enero	2023-04-01T00:00:00	2024-11-06T16:00:00	4	Temperatura máxima	19.2
70779	7	Sololá	702	San José Chacayá	5	Chacayá	1	Enero	2023-04-01T00:00:00	2024-11-06T16:00:00	3	Temperatura mínima	17
70780	7	Sololá	702	San José Chacayá	5	Chacayá	1	Enero	2023-04-01T00:00:00	2024-11-06T16:00:00	5	Humedad	82
70781	7	Sololá	702	San José Chacayá	5	Chacayá	1	Enero	2023-04-01T00:00:00	2024-11-06T16:00:00	6	Velocidad del viento	1.6
70782	7	Sololá	702	San José Chacayá	5	Chacayá	1	Enero	2023-04-01T00:00:00	2024-11-06T16:00:00	7	Dirección del viento	1.61
70783	7	Sololá	702	San José Chacayá	5	Chacayá	1	Enero	2023-04-01T00:00:00	2024-11-06T16:00:00	1	Precipitación	0
70784	7	Sololá	702	San José Chacayá	5	Chacayá	1	Enero	2023-04-01T00:00:00	2024-11-06T16:00:00	8	Radiación solar	393
70785	7	Sololá	702	San José Chacayá	5	Chacayá	1	Enero	2023-04-01T00:00:00	2024-11-06T17:00:00	2	Temperatura media	15.3
70786	7	Sololá	702	San José Chacayá	5	Chacayá	1	Enero	2023-04-01T00:00:00	2024-11-06T17:00:00	4	Temperatura máxima	17
70787	7	Sololá	702	San José Chacayá	5	Chacayá	1	Enero	2023-04-01T00:00:00	2024-11-06T17:00:00	3	Temperatura mínima	15.3
70788	7	Sololá	702	San José Chacayá	5	Chacayá	1	Enero	2023-04-01T00:00:00	2024-11-06T17:00:00	5	Humedad	64
70789	7	Sololá	702	San José Chacayá	5	Chacayá	1	Enero	2023-04-01T00:00:00	2024-11-06T17:00:00	6	Velocidad del viento	1.6
70790	7	Sololá	702	San José Chacayá	5	Chacayá	1	Enero	2023-04-01T00:00:00	2024-11-06T17:00:00	7	Dirección del viento	1.61
70791	7	Sololá	702	San José Chacayá	5	Chacayá	1	Enero	2023-04-01T00:00:00	2024-11-06T17:00:00	1	Precipitación	0
70792	7	Sololá	702	San José Chacayá	5	Chacayá	1	Enero	2023-04-01T00:00:00	2024-11-06T17:00:00	8	Radiación solar	159
70793	7	Sololá	702	San José Chacayá	5	Chacayá	1	Enero	2023-04-01T00:00:00	2024-11-06T18:00:00	2	Temperatura media	12.9
70794	7	Sololá	702	San José Chacayá	5	Chacayá	1	Enero	2023-04-01T00:00:00	2024-11-06T18:00:00	4	Temperatura máxima	15.3
70795	7	Sololá	702	San José Chacayá	5	Chacayá	1	Enero	2023-04-01T00:00:00	2024-11-06T18:00:00	3	Temperatura mínima	12.9
70796	7	Sololá	702	San José Chacayá	5	Chacayá	1	Enero	2023-04-01T00:00:00	2024-11-06T18:00:00	5	Humedad	72
70797	7	Sololá	702	San José Chacayá	5	Chacayá	1	Enero	2023-04-01T00:00:00	2024-11-06T18:00:00	6	Velocidad del viento	1.6
70798	7	Sololá	702	San José Chacayá	5	Chacayá	1	Enero	2023-04-01T00:00:00	2024-11-06T18:00:00	7	Dirección del viento	1.61
70799	7	Sololá	702	San José Chacayá	5	Chacayá	1	Enero	2023-04-01T00:00:00	2024-11-06T18:00:00	1	Precipitación	0
70800	7	Sololá	702	San José Chacayá	5	Chacayá	1	Enero	2023-04-01T00:00:00	2024-11-06T18:00:00	8	Radiación solar	17
70801	7	Sololá	702	San José Chacayá	5	Chacayá	1	Enero	2023-04-01T00:00:00	2024-11-06T19:00:00	2	Temperatura media	10.2
70802	7	Sololá	702	San José Chacayá	5	Chacayá	1	Enero	2023-04-01T00:00:00	2024-11-06T19:00:00	4	Temperatura máxima	12.9
70803	7	Sololá	702	San José Chacayá	5	Chacayá	1	Enero	2023-04-01T00:00:00	2024-11-06T19:00:00	3	Temperatura mínima	10.2
70804	7	Sololá	702	San José Chacayá	5	Chacayá	1	Enero	2023-04-01T00:00:00	2024-11-06T19:00:00	5	Humedad	80
70805	7	Sololá	702	San José Chacayá	5	Chacayá	1	Enero	2023-04-01T00:00:00	2024-11-06T19:00:00	6	Velocidad del viento	0
70806	7	Sololá	702	San José Chacayá	5	Chacayá	1	Enero	2023-04-01T00:00:00	2024-11-06T19:00:00	7	Dirección del viento	0
70807	7	Sololá	702	San José Chacayá	5	Chacayá	1	Enero	2023-04-01T00:00:00	2024-11-06T19:00:00	1	Precipitación	0
70808	7	Sololá	702	San José Chacayá	5	Chacayá	1	Enero	2023-04-01T00:00:00	2024-11-06T19:00:00	8	Radiación solar	0
70809	7	Sololá	702	San José Chacayá	5	Chacayá	1	Enero	2023-04-01T00:00:00	2024-11-06T20:00:00	2	Temperatura media	8.2
70810	7	Sololá	702	San José Chacayá	5	Chacayá	1	Enero	2023-04-01T00:00:00	2024-11-06T20:00:00	4	Temperatura máxima	10.2
70811	7	Sololá	702	San José Chacayá	5	Chacayá	1	Enero	2023-04-01T00:00:00	2024-11-06T20:00:00	3	Temperatura mínima	8.2
70812	7	Sololá	702	San José Chacayá	5	Chacayá	1	Enero	2023-04-01T00:00:00	2024-11-06T20:00:00	5	Humedad	84
70813	7	Sololá	702	San José Chacayá	5	Chacayá	1	Enero	2023-04-01T00:00:00	2024-11-06T20:00:00	6	Velocidad del viento	0
70814	7	Sololá	702	San José Chacayá	5	Chacayá	1	Enero	2023-04-01T00:00:00	2024-11-06T20:00:00	7	Dirección del viento	0
70815	7	Sololá	702	San José Chacayá	5	Chacayá	1	Enero	2023-04-01T00:00:00	2024-11-06T20:00:00	1	Precipitación	0
70816	7	Sololá	702	San José Chacayá	5	Chacayá	1	Enero	2023-04-01T00:00:00	2024-11-06T20:00:00	8	Radiación solar	0
70817	7	Sololá	702	San José Chacayá	5	Chacayá	1	Enero	2023-04-01T00:00:00	2024-11-06T21:00:00	2	Temperatura media	7.7
70818	7	Sololá	702	San José Chacayá	5	Chacayá	1	Enero	2023-04-01T00:00:00	2024-11-06T21:00:00	4	Temperatura máxima	8.2
70819	7	Sololá	702	San José Chacayá	5	Chacayá	1	Enero	2023-04-01T00:00:00	2024-11-06T21:00:00	3	Temperatura mínima	7.7
70820	7	Sololá	702	San José Chacayá	5	Chacayá	1	Enero	2023-04-01T00:00:00	2024-11-06T21:00:00	5	Humedad	81
70821	7	Sololá	702	San José Chacayá	5	Chacayá	1	Enero	2023-04-01T00:00:00	2024-11-06T21:00:00	6	Velocidad del viento	1.6
70822	7	Sololá	702	San José Chacayá	5	Chacayá	1	Enero	2023-04-01T00:00:00	2024-11-06T21:00:00	7	Dirección del viento	1.61
70823	7	Sololá	702	San José Chacayá	5	Chacayá	1	Enero	2023-04-01T00:00:00	2024-11-06T21:00:00	1	Precipitación	0
70824	7	Sololá	702	San José Chacayá	5	Chacayá	1	Enero	2023-04-01T00:00:00	2024-11-06T21:00:00	8	Radiación solar	0
70825	7	Sololá	702	San José Chacayá	5	Chacayá	1	Enero	2023-04-01T00:00:00	2024-11-06T22:00:00	2	Temperatura media	7.3
70826	7	Sololá	702	San José Chacayá	5	Chacayá	1	Enero	2023-04-01T00:00:00	2024-11-06T22:00:00	4	Temperatura máxima	7.7
70827	7	Sololá	702	San José Chacayá	5	Chacayá	1	Enero	2023-04-01T00:00:00	2024-11-06T22:00:00	3	Temperatura mínima	7.2
70828	7	Sololá	702	San José Chacayá	5	Chacayá	1	Enero	2023-04-01T00:00:00	2024-11-06T22:00:00	5	Humedad	79
70829	7	Sololá	702	San José Chacayá	5	Chacayá	1	Enero	2023-04-01T00:00:00	2024-11-06T22:00:00	6	Velocidad del viento	1.6
70830	7	Sololá	702	San José Chacayá	5	Chacayá	1	Enero	2023-04-01T00:00:00	2024-11-06T22:00:00	7	Dirección del viento	1.61
70831	7	Sololá	702	San José Chacayá	5	Chacayá	1	Enero	2023-04-01T00:00:00	2024-11-06T22:00:00	1	Precipitación	0
70832	7	Sololá	702	San José Chacayá	5	Chacayá	1	Enero	2023-04-01T00:00:00	2024-11-06T22:00:00	8	Radiación solar	0
70833	7	Sololá	702	San José Chacayá	5	Chacayá	1	Enero	2023-04-01T00:00:00	2024-11-06T23:00:00	2	Temperatura media	6.8
70834	7	Sololá	702	San José Chacayá	5	Chacayá	1	Enero	2023-04-01T00:00:00	2024-11-06T23:00:00	4	Temperatura máxima	7.2
70835	7	Sololá	702	San José Chacayá	5	Chacayá	1	Enero	2023-04-01T00:00:00	2024-11-06T23:00:00	3	Temperatura mínima	6.8
70836	7	Sololá	702	San José Chacayá	5	Chacayá	1	Enero	2023-04-01T00:00:00	2024-11-06T23:00:00	5	Humedad	74
70837	7	Sololá	702	San José Chacayá	5	Chacayá	1	Enero	2023-04-01T00:00:00	2024-11-06T23:00:00	6	Velocidad del viento	1.6
70838	7	Sololá	702	San José Chacayá	5	Chacayá	1	Enero	2023-04-01T00:00:00	2024-11-06T23:00:00	7	Dirección del viento	1.61
70839	7	Sololá	702	San José Chacayá	5	Chacayá	1	Enero	2023-04-01T00:00:00	2024-11-06T23:00:00	1	Precipitación	0
70840	7	Sololá	702	San José Chacayá	5	Chacayá	1	Enero	2023-04-01T00:00:00	2024-11-06T23:00:00	8	Radiación solar	0
70841	7	Sololá	702	San José Chacayá	5	Chacayá	1	Enero	2023-05-01T00:00:00	2024-11-06T00:00:00	2	Temperatura media	6.3
70842	7	Sololá	702	San José Chacayá	5	Chacayá	1	Enero	2023-05-01T00:00:00	2024-11-06T00:00:00	4	Temperatura máxima	6.8
70843	7	Sololá	702	San José Chacayá	5	Chacayá	1	Enero	2023-05-01T00:00:00	2024-11-06T00:00:00	3	Temperatura mínima	6.3
70844	7	Sololá	702	San José Chacayá	5	Chacayá	1	Enero	2023-05-01T00:00:00	2024-11-06T00:00:00	5	Humedad	76
70845	7	Sololá	702	San José Chacayá	5	Chacayá	1	Enero	2023-05-01T00:00:00	2024-11-06T00:00:00	6	Velocidad del viento	1.6
70846	7	Sololá	702	San José Chacayá	5	Chacayá	1	Enero	2023-05-01T00:00:00	2024-11-06T00:00:00	7	Dirección del viento	1.61
70847	7	Sololá	702	San José Chacayá	5	Chacayá	1	Enero	2023-05-01T00:00:00	2024-11-06T00:00:00	1	Precipitación	0
70848	7	Sololá	702	San José Chacayá	5	Chacayá	1	Enero	2023-05-01T00:00:00	2024-11-06T00:00:00	8	Radiación solar	0
70849	7	Sololá	702	San José Chacayá	5	Chacayá	1	Enero	2023-05-01T00:00:00	2024-11-06T01:00:00	2	Temperatura media	6.9
70850	7	Sololá	702	San José Chacayá	5	Chacayá	1	Enero	2023-05-01T00:00:00	2024-11-06T01:00:00	4	Temperatura máxima	6.9
70851	7	Sololá	702	San José Chacayá	5	Chacayá	1	Enero	2023-05-01T00:00:00	2024-11-06T01:00:00	3	Temperatura mínima	5.9
70852	7	Sololá	702	San José Chacayá	5	Chacayá	1	Enero	2023-05-01T00:00:00	2024-11-06T01:00:00	5	Humedad	79
70853	7	Sololá	702	San José Chacayá	5	Chacayá	1	Enero	2023-05-01T00:00:00	2024-11-06T01:00:00	6	Velocidad del viento	1.6
70854	7	Sololá	702	San José Chacayá	5	Chacayá	1	Enero	2023-05-01T00:00:00	2024-11-06T01:00:00	7	Dirección del viento	1.61
70855	7	Sololá	702	San José Chacayá	5	Chacayá	1	Enero	2023-05-01T00:00:00	2024-11-06T01:00:00	1	Precipitación	0
70856	7	Sololá	702	San José Chacayá	5	Chacayá	1	Enero	2023-05-01T00:00:00	2024-11-06T01:00:00	8	Radiación solar	0
70857	7	Sololá	702	San José Chacayá	5	Chacayá	1	Enero	2023-05-01T00:00:00	2024-11-06T02:00:00	2	Temperatura media	7.8
70858	7	Sololá	702	San José Chacayá	5	Chacayá	1	Enero	2023-05-01T00:00:00	2024-11-06T02:00:00	4	Temperatura máxima	8
70859	7	Sololá	702	San José Chacayá	5	Chacayá	1	Enero	2023-05-01T00:00:00	2024-11-06T02:00:00	3	Temperatura mínima	6.9
70860	7	Sololá	702	San José Chacayá	5	Chacayá	1	Enero	2023-05-01T00:00:00	2024-11-06T02:00:00	5	Humedad	86
70861	7	Sololá	702	San José Chacayá	5	Chacayá	1	Enero	2023-05-01T00:00:00	2024-11-06T02:00:00	6	Velocidad del viento	1.6
70862	7	Sololá	702	San José Chacayá	5	Chacayá	1	Enero	2023-05-01T00:00:00	2024-11-06T02:00:00	7	Dirección del viento	1.61
70863	7	Sololá	702	San José Chacayá	5	Chacayá	1	Enero	2023-05-01T00:00:00	2024-11-06T02:00:00	1	Precipitación	0
70864	7	Sololá	702	San José Chacayá	5	Chacayá	1	Enero	2023-05-01T00:00:00	2024-11-06T02:00:00	8	Radiación solar	0
70865	7	Sololá	702	San José Chacayá	5	Chacayá	1	Enero	2023-05-01T00:00:00	2024-11-06T03:00:00	2	Temperatura media	8.7
70866	7	Sololá	702	San José Chacayá	5	Chacayá	1	Enero	2023-05-01T00:00:00	2024-11-06T03:00:00	4	Temperatura máxima	8.7
70867	7	Sololá	702	San José Chacayá	5	Chacayá	1	Enero	2023-05-01T00:00:00	2024-11-06T03:00:00	3	Temperatura mínima	7.7
70868	7	Sololá	702	San José Chacayá	5	Chacayá	1	Enero	2023-05-01T00:00:00	2024-11-06T03:00:00	5	Humedad	86
70869	7	Sololá	702	San José Chacayá	5	Chacayá	1	Enero	2023-05-01T00:00:00	2024-11-06T03:00:00	6	Velocidad del viento	1.6
70870	7	Sololá	702	San José Chacayá	5	Chacayá	1	Enero	2023-05-01T00:00:00	2024-11-06T03:00:00	7	Dirección del viento	1.61
70871	7	Sololá	702	San José Chacayá	5	Chacayá	1	Enero	2023-05-01T00:00:00	2024-11-06T03:00:00	1	Precipitación	0
70872	7	Sololá	702	San José Chacayá	5	Chacayá	1	Enero	2023-05-01T00:00:00	2024-11-06T03:00:00	8	Radiación solar	0
70873	7	Sololá	702	San José Chacayá	5	Chacayá	1	Enero	2023-05-01T00:00:00	2024-11-06T04:00:00	2	Temperatura media	10.6
70874	7	Sololá	702	San José Chacayá	5	Chacayá	1	Enero	2023-05-01T00:00:00	2024-11-06T04:00:00	4	Temperatura máxima	10.9
70875	7	Sololá	702	San José Chacayá	5	Chacayá	1	Enero	2023-05-01T00:00:00	2024-11-06T04:00:00	3	Temperatura mínima	8.7
70876	7	Sololá	702	San José Chacayá	5	Chacayá	1	Enero	2023-05-01T00:00:00	2024-11-06T04:00:00	5	Humedad	78
70877	7	Sololá	702	San José Chacayá	5	Chacayá	1	Enero	2023-05-01T00:00:00	2024-11-06T04:00:00	6	Velocidad del viento	1.6
70878	7	Sololá	702	San José Chacayá	5	Chacayá	1	Enero	2023-05-01T00:00:00	2024-11-06T04:00:00	7	Dirección del viento	1.61
70879	7	Sololá	702	San José Chacayá	5	Chacayá	1	Enero	2023-05-01T00:00:00	2024-11-06T04:00:00	1	Precipitación	0
70880	7	Sololá	702	San José Chacayá	5	Chacayá	1	Enero	2023-05-01T00:00:00	2024-11-06T04:00:00	8	Radiación solar	0
70881	7	Sololá	702	San José Chacayá	5	Chacayá	1	Enero	2023-05-01T00:00:00	2024-11-06T05:00:00	2	Temperatura media	13
70882	7	Sololá	702	San José Chacayá	5	Chacayá	1	Enero	2023-05-01T00:00:00	2024-11-06T05:00:00	4	Temperatura máxima	13
70883	7	Sololá	702	San José Chacayá	5	Chacayá	1	Enero	2023-05-01T00:00:00	2024-11-06T05:00:00	3	Temperatura mínima	10.5
70884	7	Sololá	702	San José Chacayá	5	Chacayá	1	Enero	2023-05-01T00:00:00	2024-11-06T05:00:00	5	Humedad	76
70885	7	Sololá	702	San José Chacayá	5	Chacayá	1	Enero	2023-05-01T00:00:00	2024-11-06T05:00:00	6	Velocidad del viento	1.6
70886	7	Sololá	702	San José Chacayá	5	Chacayá	1	Enero	2023-05-01T00:00:00	2024-11-06T05:00:00	7	Dirección del viento	1.61
70887	7	Sololá	702	San José Chacayá	5	Chacayá	1	Enero	2023-05-01T00:00:00	2024-11-06T05:00:00	1	Precipitación	0
70888	7	Sololá	702	San José Chacayá	5	Chacayá	1	Enero	2023-05-01T00:00:00	2024-11-06T05:00:00	8	Radiación solar	0
70889	7	Sololá	702	San José Chacayá	5	Chacayá	1	Enero	2023-05-01T00:00:00	2024-11-06T06:00:00	2	Temperatura media	13.4
70890	7	Sololá	702	San José Chacayá	5	Chacayá	1	Enero	2023-05-01T00:00:00	2024-11-06T06:00:00	4	Temperatura máxima	14.1
70891	7	Sololá	702	San José Chacayá	5	Chacayá	1	Enero	2023-05-01T00:00:00	2024-11-06T06:00:00	3	Temperatura mínima	13
70892	7	Sololá	702	San José Chacayá	5	Chacayá	1	Enero	2023-05-01T00:00:00	2024-11-06T06:00:00	5	Humedad	77
70893	7	Sololá	702	San José Chacayá	5	Chacayá	1	Enero	2023-05-01T00:00:00	2024-11-06T06:00:00	6	Velocidad del viento	3.2
70894	7	Sololá	702	San José Chacayá	5	Chacayá	1	Enero	2023-05-01T00:00:00	2024-11-06T06:00:00	7	Dirección del viento	3.22
70895	7	Sololá	702	San José Chacayá	5	Chacayá	1	Enero	2023-05-01T00:00:00	2024-11-06T06:00:00	1	Precipitación	0
70896	7	Sololá	702	San José Chacayá	5	Chacayá	1	Enero	2023-05-01T00:00:00	2024-11-06T06:00:00	8	Radiación solar	0
70897	7	Sololá	702	San José Chacayá	5	Chacayá	1	Enero	2023-05-01T00:00:00	2024-11-06T07:00:00	2	Temperatura media	14.1
70898	7	Sololá	702	San José Chacayá	5	Chacayá	1	Enero	2023-05-01T00:00:00	2024-11-06T07:00:00	4	Temperatura máxima	14.1
70899	7	Sololá	702	San José Chacayá	5	Chacayá	1	Enero	2023-05-01T00:00:00	2024-11-06T07:00:00	3	Temperatura mínima	13.2
70900	7	Sololá	702	San José Chacayá	5	Chacayá	1	Enero	2023-05-01T00:00:00	2024-11-06T07:00:00	5	Humedad	75
70901	7	Sololá	702	San José Chacayá	5	Chacayá	1	Enero	2023-05-01T00:00:00	2024-11-06T07:00:00	6	Velocidad del viento	1.6
70902	7	Sololá	702	San José Chacayá	5	Chacayá	1	Enero	2023-05-01T00:00:00	2024-11-06T07:00:00	7	Dirección del viento	1.61
70903	7	Sololá	702	San José Chacayá	5	Chacayá	1	Enero	2023-05-01T00:00:00	2024-11-06T07:00:00	1	Precipitación	0
70904	7	Sololá	702	San José Chacayá	5	Chacayá	1	Enero	2023-05-01T00:00:00	2024-11-06T07:00:00	8	Radiación solar	4
70905	7	Sololá	702	San José Chacayá	5	Chacayá	1	Enero	2023-05-01T00:00:00	2024-11-06T08:00:00	2	Temperatura media	15.8
70906	7	Sololá	702	San José Chacayá	5	Chacayá	1	Enero	2023-05-01T00:00:00	2024-11-06T08:00:00	4	Temperatura máxima	15.9
70907	7	Sololá	702	San José Chacayá	5	Chacayá	1	Enero	2023-05-01T00:00:00	2024-11-06T08:00:00	3	Temperatura mínima	14
70908	7	Sololá	702	San José Chacayá	5	Chacayá	1	Enero	2023-05-01T00:00:00	2024-11-06T08:00:00	5	Humedad	65
70909	7	Sololá	702	San José Chacayá	5	Chacayá	1	Enero	2023-05-01T00:00:00	2024-11-06T08:00:00	6	Velocidad del viento	4.8
70910	7	Sololá	702	San José Chacayá	5	Chacayá	1	Enero	2023-05-01T00:00:00	2024-11-06T08:00:00	7	Dirección del viento	4.83
70911	7	Sololá	702	San José Chacayá	5	Chacayá	1	Enero	2023-05-01T00:00:00	2024-11-06T08:00:00	1	Precipitación	0
70912	7	Sololá	702	San José Chacayá	5	Chacayá	1	Enero	2023-05-01T00:00:00	2024-11-06T08:00:00	8	Radiación solar	37
70913	7	Sololá	702	San José Chacayá	5	Chacayá	1	Enero	2023-05-01T00:00:00	2024-11-06T09:00:00	2	Temperatura media	17.3
70914	7	Sololá	702	San José Chacayá	5	Chacayá	1	Enero	2023-05-01T00:00:00	2024-11-06T09:00:00	4	Temperatura máxima	17.3
70915	7	Sololá	702	San José Chacayá	5	Chacayá	1	Enero	2023-05-01T00:00:00	2024-11-06T09:00:00	3	Temperatura mínima	15.7
70916	7	Sololá	702	San José Chacayá	5	Chacayá	1	Enero	2023-05-01T00:00:00	2024-11-06T09:00:00	5	Humedad	53
70917	7	Sololá	702	San José Chacayá	5	Chacayá	1	Enero	2023-05-01T00:00:00	2024-11-06T09:00:00	6	Velocidad del viento	6.4
70918	7	Sololá	702	San José Chacayá	5	Chacayá	1	Enero	2023-05-01T00:00:00	2024-11-06T09:00:00	7	Dirección del viento	6.44
70919	7	Sololá	702	San José Chacayá	5	Chacayá	1	Enero	2023-05-01T00:00:00	2024-11-06T09:00:00	1	Precipitación	0
70920	7	Sololá	702	San José Chacayá	5	Chacayá	1	Enero	2023-05-01T00:00:00	2024-11-06T09:00:00	8	Radiación solar	101
70921	7	Sololá	702	San José Chacayá	5	Chacayá	1	Enero	2023-05-01T00:00:00	2024-11-06T10:00:00	2	Temperatura media	18.4
70922	7	Sololá	702	San José Chacayá	5	Chacayá	1	Enero	2023-05-01T00:00:00	2024-11-06T10:00:00	4	Temperatura máxima	18.4
70923	7	Sololá	702	San José Chacayá	5	Chacayá	1	Enero	2023-05-01T00:00:00	2024-11-06T10:00:00	3	Temperatura mínima	17.1
70924	7	Sololá	702	San José Chacayá	5	Chacayá	1	Enero	2023-05-01T00:00:00	2024-11-06T10:00:00	5	Humedad	51
70925	7	Sololá	702	San José Chacayá	5	Chacayá	1	Enero	2023-05-01T00:00:00	2024-11-06T10:00:00	6	Velocidad del viento	8
70926	7	Sololá	702	San José Chacayá	5	Chacayá	1	Enero	2023-05-01T00:00:00	2024-11-06T10:00:00	7	Dirección del viento	8.05
70927	7	Sololá	702	San José Chacayá	5	Chacayá	1	Enero	2023-05-01T00:00:00	2024-11-06T10:00:00	1	Precipitación	0
70928	7	Sololá	702	San José Chacayá	5	Chacayá	1	Enero	2023-05-01T00:00:00	2024-11-06T10:00:00	8	Radiación solar	191
70929	7	Sololá	702	San José Chacayá	5	Chacayá	1	Enero	2023-05-01T00:00:00	2024-11-06T11:00:00	2	Temperatura media	17.2
70930	7	Sololá	702	San José Chacayá	5	Chacayá	1	Enero	2023-05-01T00:00:00	2024-11-06T11:00:00	4	Temperatura máxima	18.6
70931	7	Sololá	702	San José Chacayá	5	Chacayá	1	Enero	2023-05-01T00:00:00	2024-11-06T11:00:00	3	Temperatura mínima	17.2
70932	7	Sololá	702	San José Chacayá	5	Chacayá	1	Enero	2023-05-01T00:00:00	2024-11-06T11:00:00	5	Humedad	56
70933	7	Sololá	702	San José Chacayá	5	Chacayá	1	Enero	2023-05-01T00:00:00	2024-11-06T11:00:00	6	Velocidad del viento	8
70934	7	Sololá	702	San José Chacayá	5	Chacayá	1	Enero	2023-05-01T00:00:00	2024-11-06T11:00:00	7	Dirección del viento	8.05
70935	7	Sololá	702	San José Chacayá	5	Chacayá	1	Enero	2023-05-01T00:00:00	2024-11-06T11:00:00	1	Precipitación	0
70936	7	Sololá	702	San José Chacayá	5	Chacayá	1	Enero	2023-05-01T00:00:00	2024-11-06T11:00:00	8	Radiación solar	269
70937	7	Sololá	702	San José Chacayá	5	Chacayá	1	Enero	2023-05-01T00:00:00	2024-11-06T12:00:00	2	Temperatura media	16.7
70938	7	Sololá	702	San José Chacayá	5	Chacayá	1	Enero	2023-05-01T00:00:00	2024-11-06T12:00:00	4	Temperatura máxima	17.2
70939	7	Sololá	702	San José Chacayá	5	Chacayá	1	Enero	2023-05-01T00:00:00	2024-11-06T12:00:00	3	Temperatura mínima	16.4
70940	7	Sololá	702	San José Chacayá	5	Chacayá	1	Enero	2023-05-01T00:00:00	2024-11-06T12:00:00	5	Humedad	59
70941	7	Sololá	702	San José Chacayá	5	Chacayá	1	Enero	2023-05-01T00:00:00	2024-11-06T12:00:00	6	Velocidad del viento	4.8
70942	7	Sololá	702	San José Chacayá	5	Chacayá	1	Enero	2023-05-01T00:00:00	2024-11-06T12:00:00	7	Dirección del viento	4.83
70943	7	Sololá	702	San José Chacayá	5	Chacayá	1	Enero	2023-05-01T00:00:00	2024-11-06T12:00:00	1	Precipitación	0
70944	7	Sololá	702	San José Chacayá	5	Chacayá	1	Enero	2023-05-01T00:00:00	2024-11-06T12:00:00	8	Radiación solar	473
70945	7	Sololá	702	San José Chacayá	5	Chacayá	1	Enero	2023-05-01T00:00:00	2024-11-06T13:00:00	2	Temperatura media	16.4
70946	7	Sololá	702	San José Chacayá	5	Chacayá	1	Enero	2023-05-01T00:00:00	2024-11-06T13:00:00	4	Temperatura máxima	17.7
70947	7	Sololá	702	San José Chacayá	5	Chacayá	1	Enero	2023-05-01T00:00:00	2024-11-06T13:00:00	3	Temperatura mínima	16.4
70948	7	Sololá	702	San José Chacayá	5	Chacayá	1	Enero	2023-05-01T00:00:00	2024-11-06T13:00:00	5	Humedad	61
70949	7	Sololá	702	San José Chacayá	5	Chacayá	1	Enero	2023-05-01T00:00:00	2024-11-06T13:00:00	6	Velocidad del viento	4.8
70950	7	Sololá	702	San José Chacayá	5	Chacayá	1	Enero	2023-05-01T00:00:00	2024-11-06T13:00:00	7	Dirección del viento	4.83
70951	7	Sololá	702	San José Chacayá	5	Chacayá	1	Enero	2023-05-01T00:00:00	2024-11-06T13:00:00	1	Precipitación	0
70952	7	Sololá	702	San José Chacayá	5	Chacayá	1	Enero	2023-05-01T00:00:00	2024-11-06T13:00:00	8	Radiación solar	888
70953	7	Sololá	702	San José Chacayá	5	Chacayá	1	Enero	2023-05-01T00:00:00	2024-11-06T14:00:00	2	Temperatura media	15.3
70954	7	Sololá	702	San José Chacayá	5	Chacayá	1	Enero	2023-05-01T00:00:00	2024-11-06T14:00:00	4	Temperatura máxima	16.6
70955	7	Sololá	702	San José Chacayá	5	Chacayá	1	Enero	2023-05-01T00:00:00	2024-11-06T14:00:00	3	Temperatura mínima	15.3
70956	7	Sololá	702	San José Chacayá	5	Chacayá	1	Enero	2023-05-01T00:00:00	2024-11-06T14:00:00	5	Humedad	65
70957	7	Sololá	702	San José Chacayá	5	Chacayá	1	Enero	2023-05-01T00:00:00	2024-11-06T14:00:00	6	Velocidad del viento	4.8
70958	7	Sololá	702	San José Chacayá	5	Chacayá	1	Enero	2023-05-01T00:00:00	2024-11-06T14:00:00	7	Dirección del viento	4.83
70959	7	Sololá	702	San José Chacayá	5	Chacayá	1	Enero	2023-05-01T00:00:00	2024-11-06T14:00:00	1	Precipitación	0
70960	7	Sololá	702	San José Chacayá	5	Chacayá	1	Enero	2023-05-01T00:00:00	2024-11-06T14:00:00	8	Radiación solar	725
70961	7	Sololá	702	San José Chacayá	5	Chacayá	1	Enero	2023-05-01T00:00:00	2024-11-06T15:00:00	2	Temperatura media	15.3
70962	7	Sololá	702	San José Chacayá	5	Chacayá	1	Enero	2023-05-01T00:00:00	2024-11-06T15:00:00	4	Temperatura máxima	16
70963	7	Sololá	702	San José Chacayá	5	Chacayá	1	Enero	2023-05-01T00:00:00	2024-11-06T15:00:00	3	Temperatura mínima	15.3
70964	7	Sololá	702	San José Chacayá	5	Chacayá	1	Enero	2023-05-01T00:00:00	2024-11-06T15:00:00	5	Humedad	70
70965	7	Sololá	702	San José Chacayá	5	Chacayá	1	Enero	2023-05-01T00:00:00	2024-11-06T15:00:00	6	Velocidad del viento	3.2
70966	7	Sololá	702	San José Chacayá	5	Chacayá	1	Enero	2023-05-01T00:00:00	2024-11-06T15:00:00	7	Dirección del viento	3.22
70967	7	Sololá	702	San José Chacayá	5	Chacayá	1	Enero	2023-05-01T00:00:00	2024-11-06T15:00:00	1	Precipitación	0
70968	7	Sololá	702	San José Chacayá	5	Chacayá	1	Enero	2023-05-01T00:00:00	2024-11-06T15:00:00	8	Radiación solar	353
70969	7	Sololá	702	San José Chacayá	5	Chacayá	1	Enero	2023-05-01T00:00:00	2024-11-06T16:00:00	2	Temperatura media	13.6
70970	7	Sololá	702	San José Chacayá	5	Chacayá	1	Enero	2023-05-01T00:00:00	2024-11-06T16:00:00	4	Temperatura máxima	15.3
70971	7	Sololá	702	San José Chacayá	5	Chacayá	1	Enero	2023-05-01T00:00:00	2024-11-06T16:00:00	3	Temperatura mínima	13.6
70972	7	Sololá	702	San José Chacayá	5	Chacayá	1	Enero	2023-05-01T00:00:00	2024-11-06T16:00:00	5	Humedad	78
70973	7	Sololá	702	San José Chacayá	5	Chacayá	1	Enero	2023-05-01T00:00:00	2024-11-06T16:00:00	6	Velocidad del viento	3.2
70974	7	Sololá	702	San José Chacayá	5	Chacayá	1	Enero	2023-05-01T00:00:00	2024-11-06T16:00:00	7	Dirección del viento	3.22
70975	7	Sololá	702	San José Chacayá	5	Chacayá	1	Enero	2023-05-01T00:00:00	2024-11-06T16:00:00	1	Precipitación	0
70976	7	Sololá	702	San José Chacayá	5	Chacayá	1	Enero	2023-05-01T00:00:00	2024-11-06T16:00:00	8	Radiación solar	96
70977	7	Sololá	702	San José Chacayá	5	Chacayá	1	Enero	2023-05-01T00:00:00	2024-11-06T17:00:00	2	Temperatura media	12.6
70978	7	Sololá	702	San José Chacayá	5	Chacayá	1	Enero	2023-05-01T00:00:00	2024-11-06T17:00:00	4	Temperatura máxima	13.6
70979	7	Sololá	702	San José Chacayá	5	Chacayá	1	Enero	2023-05-01T00:00:00	2024-11-06T17:00:00	3	Temperatura mínima	12.4
70980	7	Sololá	702	San José Chacayá	5	Chacayá	1	Enero	2023-05-01T00:00:00	2024-11-06T17:00:00	5	Humedad	73
70981	7	Sololá	702	San José Chacayá	5	Chacayá	1	Enero	2023-05-01T00:00:00	2024-11-06T17:00:00	6	Velocidad del viento	3.2
70982	7	Sololá	702	San José Chacayá	5	Chacayá	1	Enero	2023-05-01T00:00:00	2024-11-06T17:00:00	7	Dirección del viento	3.22
70983	7	Sololá	702	San José Chacayá	5	Chacayá	1	Enero	2023-05-01T00:00:00	2024-11-06T17:00:00	1	Precipitación	0
70984	7	Sololá	702	San José Chacayá	5	Chacayá	1	Enero	2023-05-01T00:00:00	2024-11-06T17:00:00	8	Radiación solar	70
70985	7	Sololá	702	San José Chacayá	5	Chacayá	1	Enero	2023-05-01T00:00:00	2024-11-06T18:00:00	2	Temperatura media	12.2
70986	7	Sololá	702	San José Chacayá	5	Chacayá	1	Enero	2023-05-01T00:00:00	2024-11-06T18:00:00	4	Temperatura máxima	12.6
70987	7	Sololá	702	San José Chacayá	5	Chacayá	1	Enero	2023-05-01T00:00:00	2024-11-06T18:00:00	3	Temperatura mínima	12.2
70988	7	Sololá	702	San José Chacayá	5	Chacayá	1	Enero	2023-05-01T00:00:00	2024-11-06T18:00:00	5	Humedad	80
70989	7	Sololá	702	San José Chacayá	5	Chacayá	1	Enero	2023-05-01T00:00:00	2024-11-06T18:00:00	6	Velocidad del viento	4.8
70990	7	Sololá	702	San José Chacayá	5	Chacayá	1	Enero	2023-05-01T00:00:00	2024-11-06T18:00:00	7	Dirección del viento	4.83
70991	7	Sololá	702	San José Chacayá	5	Chacayá	1	Enero	2023-05-01T00:00:00	2024-11-06T18:00:00	1	Precipitación	0
70992	7	Sololá	702	San José Chacayá	5	Chacayá	1	Enero	2023-05-01T00:00:00	2024-11-06T18:00:00	8	Radiación solar	2
70993	7	Sololá	702	San José Chacayá	5	Chacayá	1	Enero	2023-05-01T00:00:00	2024-11-06T19:00:00	2	Temperatura media	11.9
70994	7	Sololá	702	San José Chacayá	5	Chacayá	1	Enero	2023-05-01T00:00:00	2024-11-06T19:00:00	4	Temperatura máxima	12.3
70995	7	Sololá	702	San José Chacayá	5	Chacayá	1	Enero	2023-05-01T00:00:00	2024-11-06T19:00:00	3	Temperatura mínima	11.9
70996	7	Sololá	702	San José Chacayá	5	Chacayá	1	Enero	2023-05-01T00:00:00	2024-11-06T19:00:00	5	Humedad	79
70997	7	Sololá	702	San José Chacayá	5	Chacayá	1	Enero	2023-05-01T00:00:00	2024-11-06T19:00:00	6	Velocidad del viento	4.8
70998	7	Sololá	702	San José Chacayá	5	Chacayá	1	Enero	2023-05-01T00:00:00	2024-11-06T19:00:00	7	Dirección del viento	4.83
70999	7	Sololá	702	San José Chacayá	5	Chacayá	1	Enero	2023-05-01T00:00:00	2024-11-06T19:00:00	1	Precipitación	0
71000	7	Sololá	702	San José Chacayá	5	Chacayá	1	Enero	2023-05-01T00:00:00	2024-11-06T19:00:00	8	Radiación solar	0
71001	7	Sololá	702	San José Chacayá	5	Chacayá	1	Enero	2023-05-01T00:00:00	2024-11-06T20:00:00	2	Temperatura media	11.6
71002	7	Sololá	702	San José Chacayá	5	Chacayá	1	Enero	2023-05-01T00:00:00	2024-11-06T20:00:00	4	Temperatura máxima	11.9
71003	7	Sololá	702	San José Chacayá	5	Chacayá	1	Enero	2023-05-01T00:00:00	2024-11-06T20:00:00	3	Temperatura mínima	11.5
71004	7	Sololá	702	San José Chacayá	5	Chacayá	1	Enero	2023-05-01T00:00:00	2024-11-06T20:00:00	5	Humedad	76
71005	7	Sololá	702	San José Chacayá	5	Chacayá	1	Enero	2023-05-01T00:00:00	2024-11-06T20:00:00	6	Velocidad del viento	6.4
71006	7	Sololá	702	San José Chacayá	5	Chacayá	1	Enero	2023-05-01T00:00:00	2024-11-06T20:00:00	7	Dirección del viento	6.44
71007	7	Sololá	702	San José Chacayá	5	Chacayá	1	Enero	2023-05-01T00:00:00	2024-11-06T20:00:00	1	Precipitación	0
71008	7	Sololá	702	San José Chacayá	5	Chacayá	1	Enero	2023-05-01T00:00:00	2024-11-06T20:00:00	8	Radiación solar	0
71009	7	Sololá	702	San José Chacayá	5	Chacayá	1	Enero	2023-05-01T00:00:00	2024-11-06T21:00:00	2	Temperatura media	11.2
71010	7	Sololá	702	San José Chacayá	5	Chacayá	1	Enero	2023-05-01T00:00:00	2024-11-06T21:00:00	4	Temperatura máxima	11.6
71011	7	Sololá	702	San José Chacayá	5	Chacayá	1	Enero	2023-05-01T00:00:00	2024-11-06T21:00:00	3	Temperatura mínima	11.2
71012	7	Sololá	702	San José Chacayá	5	Chacayá	1	Enero	2023-05-01T00:00:00	2024-11-06T21:00:00	5	Humedad	74
71013	7	Sololá	702	San José Chacayá	5	Chacayá	1	Enero	2023-05-01T00:00:00	2024-11-06T21:00:00	6	Velocidad del viento	4.8
71014	7	Sololá	702	San José Chacayá	5	Chacayá	1	Enero	2023-05-01T00:00:00	2024-11-06T21:00:00	7	Dirección del viento	4.83
71015	7	Sololá	702	San José Chacayá	5	Chacayá	1	Enero	2023-05-01T00:00:00	2024-11-06T21:00:00	1	Precipitación	0
71016	7	Sololá	702	San José Chacayá	5	Chacayá	1	Enero	2023-05-01T00:00:00	2024-11-06T21:00:00	8	Radiación solar	0
71017	7	Sololá	702	San José Chacayá	5	Chacayá	1	Enero	2023-05-01T00:00:00	2024-11-06T22:00:00	2	Temperatura media	11.7
71018	7	Sololá	702	San José Chacayá	5	Chacayá	1	Enero	2023-05-01T00:00:00	2024-11-06T22:00:00	4	Temperatura máxima	11.7
71019	7	Sololá	702	San José Chacayá	5	Chacayá	1	Enero	2023-05-01T00:00:00	2024-11-06T22:00:00	3	Temperatura mínima	11.2
71020	7	Sololá	702	San José Chacayá	5	Chacayá	1	Enero	2023-05-01T00:00:00	2024-11-06T22:00:00	5	Humedad	63
71021	7	Sololá	702	San José Chacayá	5	Chacayá	1	Enero	2023-05-01T00:00:00	2024-11-06T22:00:00	6	Velocidad del viento	8
71022	7	Sololá	702	San José Chacayá	5	Chacayá	1	Enero	2023-05-01T00:00:00	2024-11-06T22:00:00	7	Dirección del viento	8.05
71023	7	Sololá	702	San José Chacayá	5	Chacayá	1	Enero	2023-05-01T00:00:00	2024-11-06T22:00:00	1	Precipitación	0
71024	7	Sololá	702	San José Chacayá	5	Chacayá	1	Enero	2023-05-01T00:00:00	2024-11-06T22:00:00	8	Radiación solar	0
71025	7	Sololá	702	San José Chacayá	5	Chacayá	1	Enero	2023-05-01T00:00:00	2024-11-06T23:00:00	2	Temperatura media	11.5
71026	7	Sololá	702	San José Chacayá	5	Chacayá	1	Enero	2023-05-01T00:00:00	2024-11-06T23:00:00	4	Temperatura máxima	11.7
71027	7	Sololá	702	San José Chacayá	5	Chacayá	1	Enero	2023-05-01T00:00:00	2024-11-06T23:00:00	3	Temperatura mínima	11.4
71028	7	Sololá	702	San José Chacayá	5	Chacayá	1	Enero	2023-05-01T00:00:00	2024-11-06T23:00:00	5	Humedad	62
71029	7	Sololá	702	San José Chacayá	5	Chacayá	1	Enero	2023-05-01T00:00:00	2024-11-06T23:00:00	6	Velocidad del viento	6.4
71030	7	Sololá	702	San José Chacayá	5	Chacayá	1	Enero	2023-05-01T00:00:00	2024-11-06T23:00:00	7	Dirección del viento	6.44
71031	7	Sololá	702	San José Chacayá	5	Chacayá	1	Enero	2023-05-01T00:00:00	2024-11-06T23:00:00	1	Precipitación	0
71032	7	Sololá	702	San José Chacayá	5	Chacayá	1	Enero	2023-05-01T00:00:00	2024-11-06T23:00:00	8	Radiación solar	0
71033	7	Sololá	702	San José Chacayá	5	Chacayá	1	Enero	2023-06-01T00:00:00	2024-11-06T00:00:00	2	Temperatura media	11.1
71034	7	Sololá	702	San José Chacayá	5	Chacayá	1	Enero	2023-06-01T00:00:00	2024-11-06T00:00:00	4	Temperatura máxima	11.6
71035	7	Sololá	702	San José Chacayá	5	Chacayá	1	Enero	2023-06-01T00:00:00	2024-11-06T00:00:00	3	Temperatura mínima	11.1
71036	7	Sololá	702	San José Chacayá	5	Chacayá	1	Enero	2023-06-01T00:00:00	2024-11-06T00:00:00	5	Humedad	62
71037	7	Sololá	702	San José Chacayá	5	Chacayá	1	Enero	2023-06-01T00:00:00	2024-11-06T00:00:00	6	Velocidad del viento	4.8
71038	7	Sololá	702	San José Chacayá	5	Chacayá	1	Enero	2023-06-01T00:00:00	2024-11-06T00:00:00	7	Dirección del viento	4.83
71039	7	Sololá	702	San José Chacayá	5	Chacayá	1	Enero	2023-06-01T00:00:00	2024-11-06T00:00:00	1	Precipitación	0
71040	7	Sololá	702	San José Chacayá	5	Chacayá	1	Enero	2023-06-01T00:00:00	2024-11-06T00:00:00	8	Radiación solar	0
71041	7	Sololá	702	San José Chacayá	5	Chacayá	1	Enero	2023-06-01T00:00:00	2024-11-06T01:00:00	2	Temperatura media	11.1
71042	7	Sololá	702	San José Chacayá	5	Chacayá	1	Enero	2023-06-01T00:00:00	2024-11-06T01:00:00	4	Temperatura máxima	11.5
71043	7	Sololá	702	San José Chacayá	5	Chacayá	1	Enero	2023-06-01T00:00:00	2024-11-06T01:00:00	3	Temperatura mínima	11.1
71044	7	Sololá	702	San José Chacayá	5	Chacayá	1	Enero	2023-06-01T00:00:00	2024-11-06T01:00:00	5	Humedad	54
71045	7	Sololá	702	San José Chacayá	5	Chacayá	1	Enero	2023-06-01T00:00:00	2024-11-06T01:00:00	6	Velocidad del viento	4.8
71046	7	Sololá	702	San José Chacayá	5	Chacayá	1	Enero	2023-06-01T00:00:00	2024-11-06T01:00:00	7	Dirección del viento	4.83
71047	7	Sololá	702	San José Chacayá	5	Chacayá	1	Enero	2023-06-01T00:00:00	2024-11-06T01:00:00	1	Precipitación	0
71048	7	Sololá	702	San José Chacayá	5	Chacayá	1	Enero	2023-06-01T00:00:00	2024-11-06T01:00:00	8	Radiación solar	0
71049	7	Sololá	702	San José Chacayá	5	Chacayá	1	Enero	2023-06-01T00:00:00	2024-11-06T02:00:00	2	Temperatura media	10.4
71050	7	Sololá	702	San José Chacayá	5	Chacayá	1	Enero	2023-06-01T00:00:00	2024-11-06T02:00:00	4	Temperatura máxima	11.2
71051	7	Sololá	702	San José Chacayá	5	Chacayá	1	Enero	2023-06-01T00:00:00	2024-11-06T02:00:00	3	Temperatura mínima	10.3
71052	7	Sololá	702	San José Chacayá	5	Chacayá	1	Enero	2023-06-01T00:00:00	2024-11-06T02:00:00	5	Humedad	59
71053	7	Sololá	702	San José Chacayá	5	Chacayá	1	Enero	2023-06-01T00:00:00	2024-11-06T02:00:00	6	Velocidad del viento	3.2
71054	7	Sololá	702	San José Chacayá	5	Chacayá	1	Enero	2023-06-01T00:00:00	2024-11-06T02:00:00	7	Dirección del viento	3.22
71055	7	Sololá	702	San José Chacayá	5	Chacayá	1	Enero	2023-06-01T00:00:00	2024-11-06T02:00:00	1	Precipitación	0
71056	7	Sololá	702	San José Chacayá	5	Chacayá	1	Enero	2023-06-01T00:00:00	2024-11-06T02:00:00	8	Radiación solar	0
71057	7	Sololá	702	San José Chacayá	5	Chacayá	1	Enero	2023-06-01T00:00:00	2024-11-06T03:00:00	2	Temperatura media	11.1
71058	7	Sololá	702	San José Chacayá	5	Chacayá	1	Enero	2023-06-01T00:00:00	2024-11-06T03:00:00	4	Temperatura máxima	11.1
71059	7	Sololá	702	San José Chacayá	5	Chacayá	1	Enero	2023-06-01T00:00:00	2024-11-06T03:00:00	3	Temperatura mínima	10.1
71060	7	Sololá	702	San José Chacayá	5	Chacayá	1	Enero	2023-06-01T00:00:00	2024-11-06T03:00:00	5	Humedad	55
71061	7	Sololá	702	San José Chacayá	5	Chacayá	1	Enero	2023-06-01T00:00:00	2024-11-06T03:00:00	6	Velocidad del viento	3.2
71062	7	Sololá	702	San José Chacayá	5	Chacayá	1	Enero	2023-06-01T00:00:00	2024-11-06T03:00:00	7	Dirección del viento	3.22
71063	7	Sololá	702	San José Chacayá	5	Chacayá	1	Enero	2023-06-01T00:00:00	2024-11-06T03:00:00	1	Precipitación	0
71064	7	Sololá	702	San José Chacayá	5	Chacayá	1	Enero	2023-06-01T00:00:00	2024-11-06T03:00:00	8	Radiación solar	0
71065	7	Sololá	702	San José Chacayá	5	Chacayá	1	Enero	2023-06-01T00:00:00	2024-11-06T04:00:00	2	Temperatura media	10.6
71066	7	Sololá	702	San José Chacayá	5	Chacayá	1	Enero	2023-06-01T00:00:00	2024-11-06T04:00:00	4	Temperatura máxima	11.3
71067	7	Sololá	702	San José Chacayá	5	Chacayá	1	Enero	2023-06-01T00:00:00	2024-11-06T04:00:00	3	Temperatura mínima	10.6
71068	7	Sololá	702	San José Chacayá	5	Chacayá	1	Enero	2023-06-01T00:00:00	2024-11-06T04:00:00	5	Humedad	55
71069	7	Sololá	702	San José Chacayá	5	Chacayá	1	Enero	2023-06-01T00:00:00	2024-11-06T04:00:00	6	Velocidad del viento	4.8
71070	7	Sololá	702	San José Chacayá	5	Chacayá	1	Enero	2023-06-01T00:00:00	2024-11-06T04:00:00	7	Dirección del viento	4.83
71071	7	Sololá	702	San José Chacayá	5	Chacayá	1	Enero	2023-06-01T00:00:00	2024-11-06T04:00:00	1	Precipitación	0
71072	7	Sololá	702	San José Chacayá	5	Chacayá	1	Enero	2023-06-01T00:00:00	2024-11-06T04:00:00	8	Radiación solar	0
71073	7	Sololá	702	San José Chacayá	5	Chacayá	1	Enero	2023-06-01T00:00:00	2024-11-06T05:00:00	2	Temperatura media	10.7
71074	7	Sololá	702	San José Chacayá	5	Chacayá	1	Enero	2023-06-01T00:00:00	2024-11-06T05:00:00	4	Temperatura máxima	10.8
71075	7	Sololá	702	San José Chacayá	5	Chacayá	1	Enero	2023-06-01T00:00:00	2024-11-06T05:00:00	3	Temperatura mínima	10.5
71076	7	Sololá	702	San José Chacayá	5	Chacayá	1	Enero	2023-06-01T00:00:00	2024-11-06T05:00:00	5	Humedad	58
71077	7	Sololá	702	San José Chacayá	5	Chacayá	1	Enero	2023-06-01T00:00:00	2024-11-06T05:00:00	6	Velocidad del viento	6.4
71078	7	Sololá	702	San José Chacayá	5	Chacayá	1	Enero	2023-06-01T00:00:00	2024-11-06T05:00:00	7	Dirección del viento	6.44
71079	7	Sololá	702	San José Chacayá	5	Chacayá	1	Enero	2023-06-01T00:00:00	2024-11-06T05:00:00	1	Precipitación	0
71080	7	Sololá	702	San José Chacayá	5	Chacayá	1	Enero	2023-06-01T00:00:00	2024-11-06T05:00:00	8	Radiación solar	0
71081	7	Sololá	702	San José Chacayá	5	Chacayá	1	Enero	2023-06-01T00:00:00	2024-11-06T06:00:00	2	Temperatura media	11.5
71082	7	Sololá	702	San José Chacayá	5	Chacayá	1	Enero	2023-06-01T00:00:00	2024-11-06T06:00:00	4	Temperatura máxima	11.5
71083	7	Sololá	702	San José Chacayá	5	Chacayá	1	Enero	2023-06-01T00:00:00	2024-11-06T06:00:00	3	Temperatura mínima	10.7
71084	7	Sololá	702	San José Chacayá	5	Chacayá	1	Enero	2023-06-01T00:00:00	2024-11-06T06:00:00	5	Humedad	57
71085	7	Sololá	702	San José Chacayá	5	Chacayá	1	Enero	2023-06-01T00:00:00	2024-11-06T06:00:00	6	Velocidad del viento	8
71086	7	Sololá	702	San José Chacayá	5	Chacayá	1	Enero	2023-06-01T00:00:00	2024-11-06T06:00:00	7	Dirección del viento	8.05
71087	7	Sololá	702	San José Chacayá	5	Chacayá	1	Enero	2023-06-01T00:00:00	2024-11-06T06:00:00	1	Precipitación	0
71088	7	Sololá	702	San José Chacayá	5	Chacayá	1	Enero	2023-06-01T00:00:00	2024-11-06T06:00:00	8	Radiación solar	0
71089	7	Sololá	702	San José Chacayá	5	Chacayá	1	Enero	2023-06-01T00:00:00	2024-11-06T07:00:00	2	Temperatura media	13.4
71090	7	Sololá	702	San José Chacayá	5	Chacayá	1	Enero	2023-06-01T00:00:00	2024-11-06T07:00:00	4	Temperatura máxima	13.4
71091	7	Sololá	702	San José Chacayá	5	Chacayá	1	Enero	2023-06-01T00:00:00	2024-11-06T07:00:00	3	Temperatura mínima	11.5
71092	7	Sololá	702	San José Chacayá	5	Chacayá	1	Enero	2023-06-01T00:00:00	2024-11-06T07:00:00	5	Humedad	48
71093	7	Sololá	702	San José Chacayá	5	Chacayá	1	Enero	2023-06-01T00:00:00	2024-11-06T07:00:00	6	Velocidad del viento	8
71094	7	Sololá	702	San José Chacayá	5	Chacayá	1	Enero	2023-06-01T00:00:00	2024-11-06T07:00:00	7	Dirección del viento	8.05
71095	7	Sololá	702	San José Chacayá	5	Chacayá	1	Enero	2023-06-01T00:00:00	2024-11-06T07:00:00	1	Precipitación	0
71096	7	Sololá	702	San José Chacayá	5	Chacayá	1	Enero	2023-06-01T00:00:00	2024-11-06T07:00:00	8	Radiación solar	11
71097	7	Sololá	702	San José Chacayá	5	Chacayá	1	Enero	2023-06-01T00:00:00	2024-11-06T08:00:00	2	Temperatura media	15.6
71098	7	Sololá	702	San José Chacayá	5	Chacayá	1	Enero	2023-06-01T00:00:00	2024-11-06T08:00:00	4	Temperatura máxima	15.6
71099	7	Sololá	702	San José Chacayá	5	Chacayá	1	Enero	2023-06-01T00:00:00	2024-11-06T08:00:00	3	Temperatura mínima	13.3
71100	7	Sololá	702	San José Chacayá	5	Chacayá	1	Enero	2023-06-01T00:00:00	2024-11-06T08:00:00	5	Humedad	43
71101	7	Sololá	702	San José Chacayá	5	Chacayá	1	Enero	2023-06-01T00:00:00	2024-11-06T08:00:00	6	Velocidad del viento	6.4
71102	7	Sololá	702	San José Chacayá	5	Chacayá	1	Enero	2023-06-01T00:00:00	2024-11-06T08:00:00	7	Dirección del viento	6.44
71103	7	Sololá	702	San José Chacayá	5	Chacayá	1	Enero	2023-06-01T00:00:00	2024-11-06T08:00:00	1	Precipitación	0
71104	7	Sololá	702	San José Chacayá	5	Chacayá	1	Enero	2023-06-01T00:00:00	2024-11-06T08:00:00	8	Radiación solar	174
71105	7	Sololá	702	San José Chacayá	5	Chacayá	1	Enero	2023-06-01T00:00:00	2024-11-06T09:00:00	2	Temperatura media	16.7
71106	7	Sololá	702	San José Chacayá	5	Chacayá	1	Enero	2023-06-01T00:00:00	2024-11-06T09:00:00	4	Temperatura máxima	16.7
71107	7	Sololá	702	San José Chacayá	5	Chacayá	1	Enero	2023-06-01T00:00:00	2024-11-06T09:00:00	3	Temperatura mínima	15.5
71108	7	Sololá	702	San José Chacayá	5	Chacayá	1	Enero	2023-06-01T00:00:00	2024-11-06T09:00:00	5	Humedad	53
71109	7	Sololá	702	San José Chacayá	5	Chacayá	1	Enero	2023-06-01T00:00:00	2024-11-06T09:00:00	6	Velocidad del viento	6.4
71110	7	Sololá	702	San José Chacayá	5	Chacayá	1	Enero	2023-06-01T00:00:00	2024-11-06T09:00:00	7	Dirección del viento	6.44
71111	7	Sololá	702	San José Chacayá	5	Chacayá	1	Enero	2023-06-01T00:00:00	2024-11-06T09:00:00	1	Precipitación	0
71112	7	Sololá	702	San José Chacayá	5	Chacayá	1	Enero	2023-06-01T00:00:00	2024-11-06T09:00:00	8	Radiación solar	397
71113	7	Sololá	702	San José Chacayá	5	Chacayá	1	Enero	2023-06-01T00:00:00	2024-11-06T10:00:00	2	Temperatura media	17.6
71114	7	Sololá	702	San José Chacayá	5	Chacayá	1	Enero	2023-06-01T00:00:00	2024-11-06T10:00:00	4	Temperatura máxima	17.9
71115	7	Sololá	702	San José Chacayá	5	Chacayá	1	Enero	2023-06-01T00:00:00	2024-11-06T10:00:00	3	Temperatura mínima	16.7
71116	7	Sololá	702	San José Chacayá	5	Chacayá	1	Enero	2023-06-01T00:00:00	2024-11-06T10:00:00	5	Humedad	56
71117	7	Sololá	702	San José Chacayá	5	Chacayá	1	Enero	2023-06-01T00:00:00	2024-11-06T10:00:00	6	Velocidad del viento	6.4
71118	7	Sololá	702	San José Chacayá	5	Chacayá	1	Enero	2023-06-01T00:00:00	2024-11-06T10:00:00	7	Dirección del viento	6.44
71119	7	Sololá	702	San José Chacayá	5	Chacayá	1	Enero	2023-06-01T00:00:00	2024-11-06T10:00:00	1	Precipitación	0
71120	7	Sololá	702	San José Chacayá	5	Chacayá	1	Enero	2023-06-01T00:00:00	2024-11-06T10:00:00	8	Radiación solar	606
71121	7	Sololá	702	San José Chacayá	5	Chacayá	1	Enero	2023-06-01T00:00:00	2024-11-06T11:00:00	2	Temperatura media	18.1
71122	7	Sololá	702	San José Chacayá	5	Chacayá	1	Enero	2023-06-01T00:00:00	2024-11-06T11:00:00	4	Temperatura máxima	18.2
71123	7	Sololá	702	San José Chacayá	5	Chacayá	1	Enero	2023-06-01T00:00:00	2024-11-06T11:00:00	3	Temperatura mínima	16.8
71124	7	Sololá	702	San José Chacayá	5	Chacayá	1	Enero	2023-06-01T00:00:00	2024-11-06T11:00:00	5	Humedad	53
71125	7	Sololá	702	San José Chacayá	5	Chacayá	1	Enero	2023-06-01T00:00:00	2024-11-06T11:00:00	6	Velocidad del viento	6.4
71126	7	Sololá	702	San José Chacayá	5	Chacayá	1	Enero	2023-06-01T00:00:00	2024-11-06T11:00:00	7	Dirección del viento	6.44
71127	7	Sololá	702	San José Chacayá	5	Chacayá	1	Enero	2023-06-01T00:00:00	2024-11-06T11:00:00	1	Precipitación	0
71128	7	Sololá	702	San José Chacayá	5	Chacayá	1	Enero	2023-06-01T00:00:00	2024-11-06T11:00:00	8	Radiación solar	750
71129	7	Sololá	702	San José Chacayá	5	Chacayá	1	Enero	2023-06-01T00:00:00	2024-11-06T12:00:00	2	Temperatura media	19.4
71130	7	Sololá	702	San José Chacayá	5	Chacayá	1	Enero	2023-06-01T00:00:00	2024-11-06T12:00:00	4	Temperatura máxima	19.4
71131	7	Sololá	702	San José Chacayá	5	Chacayá	1	Enero	2023-06-01T00:00:00	2024-11-06T12:00:00	3	Temperatura mínima	17.7
71132	7	Sololá	702	San José Chacayá	5	Chacayá	1	Enero	2023-06-01T00:00:00	2024-11-06T12:00:00	5	Humedad	49
71133	7	Sololá	702	San José Chacayá	5	Chacayá	1	Enero	2023-06-01T00:00:00	2024-11-06T12:00:00	6	Velocidad del viento	6.4
71134	7	Sololá	702	San José Chacayá	5	Chacayá	1	Enero	2023-06-01T00:00:00	2024-11-06T12:00:00	7	Dirección del viento	6.44
71135	7	Sololá	702	San José Chacayá	5	Chacayá	1	Enero	2023-06-01T00:00:00	2024-11-06T12:00:00	1	Precipitación	0
71136	7	Sololá	702	San José Chacayá	5	Chacayá	1	Enero	2023-06-01T00:00:00	2024-11-06T12:00:00	8	Radiación solar	554
71137	7	Sololá	702	San José Chacayá	5	Chacayá	1	Enero	2023-06-01T00:00:00	2024-11-06T13:00:00	2	Temperatura media	18.7
71138	7	Sololá	702	San José Chacayá	5	Chacayá	1	Enero	2023-06-01T00:00:00	2024-11-06T13:00:00	4	Temperatura máxima	19.5
71139	7	Sololá	702	San José Chacayá	5	Chacayá	1	Enero	2023-06-01T00:00:00	2024-11-06T13:00:00	3	Temperatura mínima	18.2
71140	7	Sololá	702	San José Chacayá	5	Chacayá	1	Enero	2023-06-01T00:00:00	2024-11-06T13:00:00	5	Humedad	50
71141	7	Sololá	702	San José Chacayá	5	Chacayá	1	Enero	2023-06-01T00:00:00	2024-11-06T13:00:00	6	Velocidad del viento	4.8
71142	7	Sololá	702	San José Chacayá	5	Chacayá	1	Enero	2023-06-01T00:00:00	2024-11-06T13:00:00	7	Dirección del viento	4.83
71143	7	Sololá	702	San José Chacayá	5	Chacayá	1	Enero	2023-06-01T00:00:00	2024-11-06T13:00:00	1	Precipitación	0
71144	7	Sololá	702	San José Chacayá	5	Chacayá	1	Enero	2023-06-01T00:00:00	2024-11-06T13:00:00	8	Radiación solar	306
71145	7	Sololá	702	San José Chacayá	5	Chacayá	1	Enero	2023-06-01T00:00:00	2024-11-06T14:00:00	2	Temperatura media	19.5
71146	7	Sololá	702	San José Chacayá	5	Chacayá	1	Enero	2023-06-01T00:00:00	2024-11-06T14:00:00	4	Temperatura máxima	19.9
71147	7	Sololá	702	San José Chacayá	5	Chacayá	1	Enero	2023-06-01T00:00:00	2024-11-06T14:00:00	3	Temperatura mínima	18.7
71148	7	Sololá	702	San José Chacayá	5	Chacayá	1	Enero	2023-06-01T00:00:00	2024-11-06T14:00:00	5	Humedad	51
71149	7	Sololá	702	San José Chacayá	5	Chacayá	1	Enero	2023-06-01T00:00:00	2024-11-06T14:00:00	6	Velocidad del viento	4.8
71150	7	Sololá	702	San José Chacayá	5	Chacayá	1	Enero	2023-06-01T00:00:00	2024-11-06T14:00:00	7	Dirección del viento	4.83
71151	7	Sololá	702	San José Chacayá	5	Chacayá	1	Enero	2023-06-01T00:00:00	2024-11-06T14:00:00	1	Precipitación	0
71152	7	Sololá	702	San José Chacayá	5	Chacayá	1	Enero	2023-06-01T00:00:00	2024-11-06T14:00:00	8	Radiación solar	275
71153	7	Sololá	702	San José Chacayá	5	Chacayá	1	Enero	2023-06-01T00:00:00	2024-11-06T15:00:00	2	Temperatura media	16.8
71154	7	Sololá	702	San José Chacayá	5	Chacayá	1	Enero	2023-06-01T00:00:00	2024-11-06T15:00:00	4	Temperatura máxima	19.5
71155	7	Sololá	702	San José Chacayá	5	Chacayá	1	Enero	2023-06-01T00:00:00	2024-11-06T15:00:00	3	Temperatura mínima	16.7
71156	7	Sololá	702	San José Chacayá	5	Chacayá	1	Enero	2023-06-01T00:00:00	2024-11-06T15:00:00	5	Humedad	59
71157	7	Sololá	702	San José Chacayá	5	Chacayá	1	Enero	2023-06-01T00:00:00	2024-11-06T15:00:00	6	Velocidad del viento	4.8
71158	7	Sololá	702	San José Chacayá	5	Chacayá	1	Enero	2023-06-01T00:00:00	2024-11-06T15:00:00	7	Dirección del viento	4.83
71159	7	Sololá	702	San José Chacayá	5	Chacayá	1	Enero	2023-06-01T00:00:00	2024-11-06T15:00:00	1	Precipitación	0
71160	7	Sololá	702	San José Chacayá	5	Chacayá	1	Enero	2023-06-01T00:00:00	2024-11-06T15:00:00	8	Radiación solar	258
71161	7	Sololá	702	San José Chacayá	5	Chacayá	1	Enero	2023-06-01T00:00:00	2024-11-06T16:00:00	2	Temperatura media	14.5
71162	7	Sololá	702	San José Chacayá	5	Chacayá	1	Enero	2023-06-01T00:00:00	2024-11-06T16:00:00	4	Temperatura máxima	16.8
71163	7	Sololá	702	San José Chacayá	5	Chacayá	1	Enero	2023-06-01T00:00:00	2024-11-06T16:00:00	3	Temperatura mínima	14.5
71164	7	Sololá	702	San José Chacayá	5	Chacayá	1	Enero	2023-06-01T00:00:00	2024-11-06T16:00:00	5	Humedad	68
71165	7	Sololá	702	San José Chacayá	5	Chacayá	1	Enero	2023-06-01T00:00:00	2024-11-06T16:00:00	6	Velocidad del viento	4.8
71166	7	Sololá	702	San José Chacayá	5	Chacayá	1	Enero	2023-06-01T00:00:00	2024-11-06T16:00:00	7	Dirección del viento	4.83
71167	7	Sololá	702	San José Chacayá	5	Chacayá	1	Enero	2023-06-01T00:00:00	2024-11-06T16:00:00	1	Precipitación	0
71168	7	Sololá	702	San José Chacayá	5	Chacayá	1	Enero	2023-06-01T00:00:00	2024-11-06T16:00:00	8	Radiación solar	202
71169	7	Sololá	702	San José Chacayá	5	Chacayá	1	Enero	2023-06-01T00:00:00	2024-11-06T17:00:00	2	Temperatura media	12.7
71170	7	Sololá	702	San José Chacayá	5	Chacayá	1	Enero	2023-06-01T00:00:00	2024-11-06T17:00:00	4	Temperatura máxima	14.4
71171	7	Sololá	702	San José Chacayá	5	Chacayá	1	Enero	2023-06-01T00:00:00	2024-11-06T17:00:00	3	Temperatura mínima	12.7
71172	7	Sololá	702	San José Chacayá	5	Chacayá	1	Enero	2023-06-01T00:00:00	2024-11-06T17:00:00	5	Humedad	72
71173	7	Sololá	702	San José Chacayá	5	Chacayá	1	Enero	2023-06-01T00:00:00	2024-11-06T17:00:00	6	Velocidad del viento	4.8
71174	7	Sololá	702	San José Chacayá	5	Chacayá	1	Enero	2023-06-01T00:00:00	2024-11-06T17:00:00	7	Dirección del viento	4.83
71175	7	Sololá	702	San José Chacayá	5	Chacayá	1	Enero	2023-06-01T00:00:00	2024-11-06T17:00:00	1	Precipitación	0
71176	7	Sololá	702	San José Chacayá	5	Chacayá	1	Enero	2023-06-01T00:00:00	2024-11-06T17:00:00	8	Radiación solar	97
71177	7	Sololá	702	San José Chacayá	5	Chacayá	1	Enero	2023-06-01T00:00:00	2024-11-06T18:00:00	2	Temperatura media	12.6
71178	7	Sololá	702	San José Chacayá	5	Chacayá	1	Enero	2023-06-01T00:00:00	2024-11-06T18:00:00	4	Temperatura máxima	12.7
71179	7	Sololá	702	San José Chacayá	5	Chacayá	1	Enero	2023-06-01T00:00:00	2024-11-06T18:00:00	3	Temperatura mínima	12.2
71180	7	Sololá	702	San José Chacayá	5	Chacayá	1	Enero	2023-06-01T00:00:00	2024-11-06T18:00:00	5	Humedad	71
71181	7	Sololá	702	San José Chacayá	5	Chacayá	1	Enero	2023-06-01T00:00:00	2024-11-06T18:00:00	6	Velocidad del viento	3.2
71182	7	Sololá	702	San José Chacayá	5	Chacayá	1	Enero	2023-06-01T00:00:00	2024-11-06T18:00:00	7	Dirección del viento	3.22
71183	7	Sololá	702	San José Chacayá	5	Chacayá	1	Enero	2023-06-01T00:00:00	2024-11-06T18:00:00	1	Precipitación	0
71184	7	Sololá	702	San José Chacayá	5	Chacayá	1	Enero	2023-06-01T00:00:00	2024-11-06T18:00:00	8	Radiación solar	16
71185	7	Sololá	702	San José Chacayá	5	Chacayá	1	Enero	2023-06-01T00:00:00	2024-11-06T19:00:00	2	Temperatura media	12.3
71186	7	Sololá	702	San José Chacayá	5	Chacayá	1	Enero	2023-06-01T00:00:00	2024-11-06T19:00:00	4	Temperatura máxima	12.7
71187	7	Sololá	702	San José Chacayá	5	Chacayá	1	Enero	2023-06-01T00:00:00	2024-11-06T19:00:00	3	Temperatura mínima	12.2
71188	7	Sololá	702	San José Chacayá	5	Chacayá	1	Enero	2023-06-01T00:00:00	2024-11-06T19:00:00	5	Humedad	71
71189	7	Sololá	702	San José Chacayá	5	Chacayá	1	Enero	2023-06-01T00:00:00	2024-11-06T19:00:00	6	Velocidad del viento	6.4
71190	7	Sololá	702	San José Chacayá	5	Chacayá	1	Enero	2023-06-01T00:00:00	2024-11-06T19:00:00	7	Dirección del viento	6.44
71191	7	Sololá	702	San José Chacayá	5	Chacayá	1	Enero	2023-06-01T00:00:00	2024-11-06T19:00:00	1	Precipitación	0
71192	7	Sololá	702	San José Chacayá	5	Chacayá	1	Enero	2023-06-01T00:00:00	2024-11-06T19:00:00	8	Radiación solar	0
71193	7	Sololá	702	San José Chacayá	5	Chacayá	1	Enero	2023-06-01T00:00:00	2024-11-06T20:00:00	2	Temperatura media	12.1
71194	7	Sololá	702	San José Chacayá	5	Chacayá	1	Enero	2023-06-01T00:00:00	2024-11-06T20:00:00	4	Temperatura máxima	12.3
71195	7	Sololá	702	San José Chacayá	5	Chacayá	1	Enero	2023-06-01T00:00:00	2024-11-06T20:00:00	3	Temperatura mínima	11.8
71196	7	Sololá	702	San José Chacayá	5	Chacayá	1	Enero	2023-06-01T00:00:00	2024-11-06T20:00:00	5	Humedad	74
71197	7	Sololá	702	San José Chacayá	5	Chacayá	1	Enero	2023-06-01T00:00:00	2024-11-06T20:00:00	6	Velocidad del viento	3.2
71198	7	Sololá	702	San José Chacayá	5	Chacayá	1	Enero	2023-06-01T00:00:00	2024-11-06T20:00:00	7	Dirección del viento	3.22
71199	7	Sololá	702	San José Chacayá	5	Chacayá	1	Enero	2023-06-01T00:00:00	2024-11-06T20:00:00	1	Precipitación	0
71200	7	Sololá	702	San José Chacayá	5	Chacayá	1	Enero	2023-06-01T00:00:00	2024-11-06T20:00:00	8	Radiación solar	0
71201	7	Sololá	702	San José Chacayá	5	Chacayá	1	Enero	2023-06-01T00:00:00	2024-11-06T21:00:00	2	Temperatura media	11.9
71202	7	Sololá	702	San José Chacayá	5	Chacayá	1	Enero	2023-06-01T00:00:00	2024-11-06T21:00:00	4	Temperatura máxima	12.1
71203	7	Sololá	702	San José Chacayá	5	Chacayá	1	Enero	2023-06-01T00:00:00	2024-11-06T21:00:00	3	Temperatura mínima	11.8
71204	7	Sololá	702	San José Chacayá	5	Chacayá	1	Enero	2023-06-01T00:00:00	2024-11-06T21:00:00	5	Humedad	76
71205	7	Sololá	702	San José Chacayá	5	Chacayá	1	Enero	2023-06-01T00:00:00	2024-11-06T21:00:00	6	Velocidad del viento	4.8
71206	7	Sololá	702	San José Chacayá	5	Chacayá	1	Enero	2023-06-01T00:00:00	2024-11-06T21:00:00	7	Dirección del viento	4.83
71207	7	Sololá	702	San José Chacayá	5	Chacayá	1	Enero	2023-06-01T00:00:00	2024-11-06T21:00:00	1	Precipitación	0
71208	7	Sololá	702	San José Chacayá	5	Chacayá	1	Enero	2023-06-01T00:00:00	2024-11-06T21:00:00	8	Radiación solar	0
71209	7	Sololá	702	San José Chacayá	5	Chacayá	1	Enero	2023-06-01T00:00:00	2024-11-06T22:00:00	2	Temperatura media	12.1
71210	7	Sololá	702	San José Chacayá	5	Chacayá	1	Enero	2023-06-01T00:00:00	2024-11-06T22:00:00	4	Temperatura máxima	12.4
71211	7	Sololá	702	San José Chacayá	5	Chacayá	1	Enero	2023-06-01T00:00:00	2024-11-06T22:00:00	3	Temperatura mínima	11.9
71212	7	Sololá	702	San José Chacayá	5	Chacayá	1	Enero	2023-06-01T00:00:00	2024-11-06T22:00:00	5	Humedad	77
71213	7	Sololá	702	San José Chacayá	5	Chacayá	1	Enero	2023-06-01T00:00:00	2024-11-06T22:00:00	6	Velocidad del viento	6.4
71214	7	Sololá	702	San José Chacayá	5	Chacayá	1	Enero	2023-06-01T00:00:00	2024-11-06T22:00:00	7	Dirección del viento	6.44
71215	7	Sololá	702	San José Chacayá	5	Chacayá	1	Enero	2023-06-01T00:00:00	2024-11-06T22:00:00	1	Precipitación	0
71216	7	Sololá	702	San José Chacayá	5	Chacayá	1	Enero	2023-06-01T00:00:00	2024-11-06T22:00:00	8	Radiación solar	0
71217	7	Sololá	702	San José Chacayá	5	Chacayá	1	Enero	2023-06-01T00:00:00	2024-11-06T23:00:00	2	Temperatura media	11.8
71218	7	Sololá	702	San José Chacayá	5	Chacayá	1	Enero	2023-06-01T00:00:00	2024-11-06T23:00:00	4	Temperatura máxima	12.1
71219	7	Sololá	702	San José Chacayá	5	Chacayá	1	Enero	2023-06-01T00:00:00	2024-11-06T23:00:00	3	Temperatura mínima	11.7
71220	7	Sololá	702	San José Chacayá	5	Chacayá	1	Enero	2023-06-01T00:00:00	2024-11-06T23:00:00	5	Humedad	78
71221	7	Sololá	702	San José Chacayá	5	Chacayá	1	Enero	2023-06-01T00:00:00	2024-11-06T23:00:00	6	Velocidad del viento	4.8
71222	7	Sololá	702	San José Chacayá	5	Chacayá	1	Enero	2023-06-01T00:00:00	2024-11-06T23:00:00	7	Dirección del viento	4.83
71223	7	Sololá	702	San José Chacayá	5	Chacayá	1	Enero	2023-06-01T00:00:00	2024-11-06T23:00:00	1	Precipitación	0
71224	7	Sololá	702	San José Chacayá	5	Chacayá	1	Enero	2023-06-01T00:00:00	2024-11-06T23:00:00	8	Radiación solar	0
71225	7	Sololá	702	San José Chacayá	5	Chacayá	1	Enero	2023-07-01T00:00:00	2024-11-06T00:00:00	2	Temperatura media	11.6
71226	7	Sololá	702	San José Chacayá	5	Chacayá	1	Enero	2023-07-01T00:00:00	2024-11-06T00:00:00	4	Temperatura máxima	11.8
71227	7	Sololá	702	San José Chacayá	5	Chacayá	1	Enero	2023-07-01T00:00:00	2024-11-06T00:00:00	3	Temperatura mínima	11.4
71228	7	Sololá	702	San José Chacayá	5	Chacayá	1	Enero	2023-07-01T00:00:00	2024-11-06T00:00:00	5	Humedad	77
71229	7	Sololá	702	San José Chacayá	5	Chacayá	1	Enero	2023-07-01T00:00:00	2024-11-06T00:00:00	6	Velocidad del viento	3.2
71230	7	Sololá	702	San José Chacayá	5	Chacayá	1	Enero	2023-07-01T00:00:00	2024-11-06T00:00:00	7	Dirección del viento	3.22
71231	7	Sololá	702	San José Chacayá	5	Chacayá	1	Enero	2023-07-01T00:00:00	2024-11-06T00:00:00	1	Precipitación	0
71232	7	Sololá	702	San José Chacayá	5	Chacayá	1	Enero	2023-07-01T00:00:00	2024-11-06T00:00:00	8	Radiación solar	0
71233	7	Sololá	702	San José Chacayá	5	Chacayá	1	Enero	2023-07-01T00:00:00	2024-11-06T01:00:00	2	Temperatura media	11.5
71234	7	Sololá	702	San José Chacayá	5	Chacayá	1	Enero	2023-07-01T00:00:00	2024-11-06T01:00:00	4	Temperatura máxima	11.7
71235	7	Sololá	702	San José Chacayá	5	Chacayá	1	Enero	2023-07-01T00:00:00	2024-11-06T01:00:00	3	Temperatura mínima	11.5
71236	7	Sololá	702	San José Chacayá	5	Chacayá	1	Enero	2023-07-01T00:00:00	2024-11-06T01:00:00	5	Humedad	80
71237	7	Sololá	702	San José Chacayá	5	Chacayá	1	Enero	2023-07-01T00:00:00	2024-11-06T01:00:00	6	Velocidad del viento	3.2
71238	7	Sololá	702	San José Chacayá	5	Chacayá	1	Enero	2023-07-01T00:00:00	2024-11-06T01:00:00	7	Dirección del viento	3.22
71239	7	Sololá	702	San José Chacayá	5	Chacayá	1	Enero	2023-07-01T00:00:00	2024-11-06T01:00:00	1	Precipitación	0
71240	7	Sololá	702	San José Chacayá	5	Chacayá	1	Enero	2023-07-01T00:00:00	2024-11-06T01:00:00	8	Radiación solar	0
71241	7	Sololá	702	San José Chacayá	5	Chacayá	1	Enero	2023-07-01T00:00:00	2024-11-06T02:00:00	2	Temperatura media	11.1
71242	7	Sololá	702	San José Chacayá	5	Chacayá	1	Enero	2023-07-01T00:00:00	2024-11-06T02:00:00	4	Temperatura máxima	11.5
71243	7	Sololá	702	San José Chacayá	5	Chacayá	1	Enero	2023-07-01T00:00:00	2024-11-06T02:00:00	3	Temperatura mínima	10.6
71244	7	Sololá	702	San José Chacayá	5	Chacayá	1	Enero	2023-07-01T00:00:00	2024-11-06T02:00:00	5	Humedad	80
71245	7	Sololá	702	San José Chacayá	5	Chacayá	1	Enero	2023-07-01T00:00:00	2024-11-06T02:00:00	6	Velocidad del viento	1.6
71246	7	Sololá	702	San José Chacayá	5	Chacayá	1	Enero	2023-07-01T00:00:00	2024-11-06T02:00:00	7	Dirección del viento	1.61
71247	7	Sololá	702	San José Chacayá	5	Chacayá	1	Enero	2023-07-01T00:00:00	2024-11-06T02:00:00	1	Precipitación	0
71248	7	Sololá	702	San José Chacayá	5	Chacayá	1	Enero	2023-07-01T00:00:00	2024-11-06T02:00:00	8	Radiación solar	0
71249	7	Sololá	702	San José Chacayá	5	Chacayá	1	Enero	2023-07-01T00:00:00	2024-11-06T03:00:00	2	Temperatura media	11.7
71250	7	Sololá	702	San José Chacayá	5	Chacayá	1	Enero	2023-07-01T00:00:00	2024-11-06T03:00:00	4	Temperatura máxima	11.9
71251	7	Sololá	702	San José Chacayá	5	Chacayá	1	Enero	2023-07-01T00:00:00	2024-11-06T03:00:00	3	Temperatura mínima	11.1
71252	7	Sololá	702	San José Chacayá	5	Chacayá	1	Enero	2023-07-01T00:00:00	2024-11-06T03:00:00	5	Humedad	80
71253	7	Sololá	702	San José Chacayá	5	Chacayá	1	Enero	2023-07-01T00:00:00	2024-11-06T03:00:00	6	Velocidad del viento	4.8
71254	7	Sololá	702	San José Chacayá	5	Chacayá	1	Enero	2023-07-01T00:00:00	2024-11-06T03:00:00	7	Dirección del viento	4.83
71255	7	Sololá	702	San José Chacayá	5	Chacayá	1	Enero	2023-07-01T00:00:00	2024-11-06T03:00:00	1	Precipitación	0
71256	7	Sololá	702	San José Chacayá	5	Chacayá	1	Enero	2023-07-01T00:00:00	2024-11-06T03:00:00	8	Radiación solar	0
71257	7	Sololá	702	San José Chacayá	5	Chacayá	1	Enero	2023-07-01T00:00:00	2024-11-06T04:00:00	2	Temperatura media	10
71258	7	Sololá	702	San José Chacayá	5	Chacayá	1	Enero	2023-07-01T00:00:00	2024-11-06T04:00:00	4	Temperatura máxima	11.7
71259	7	Sololá	702	San José Chacayá	5	Chacayá	1	Enero	2023-07-01T00:00:00	2024-11-06T04:00:00	3	Temperatura mínima	9.7
71260	7	Sololá	702	San José Chacayá	5	Chacayá	1	Enero	2023-07-01T00:00:00	2024-11-06T04:00:00	5	Humedad	84
71261	7	Sololá	702	San José Chacayá	5	Chacayá	1	Enero	2023-07-01T00:00:00	2024-11-06T04:00:00	6	Velocidad del viento	3.2
71262	7	Sololá	702	San José Chacayá	5	Chacayá	1	Enero	2023-07-01T00:00:00	2024-11-06T04:00:00	7	Dirección del viento	3.22
71263	7	Sololá	702	San José Chacayá	5	Chacayá	1	Enero	2023-07-01T00:00:00	2024-11-06T04:00:00	1	Precipitación	0
71264	7	Sololá	702	San José Chacayá	5	Chacayá	1	Enero	2023-07-01T00:00:00	2024-11-06T04:00:00	8	Radiación solar	0
71265	7	Sololá	702	San José Chacayá	5	Chacayá	1	Enero	2023-07-01T00:00:00	2024-11-06T05:00:00	2	Temperatura media	8.2
71266	7	Sololá	702	San José Chacayá	5	Chacayá	1	Enero	2023-07-01T00:00:00	2024-11-06T05:00:00	4	Temperatura máxima	10.3
71267	7	Sololá	702	San José Chacayá	5	Chacayá	1	Enero	2023-07-01T00:00:00	2024-11-06T05:00:00	3	Temperatura mínima	8.2
71268	7	Sololá	702	San José Chacayá	5	Chacayá	1	Enero	2023-07-01T00:00:00	2024-11-06T05:00:00	5	Humedad	87
71269	7	Sololá	702	San José Chacayá	5	Chacayá	1	Enero	2023-07-01T00:00:00	2024-11-06T05:00:00	6	Velocidad del viento	1.6
71270	7	Sololá	702	San José Chacayá	5	Chacayá	1	Enero	2023-07-01T00:00:00	2024-11-06T05:00:00	7	Dirección del viento	1.61
71271	7	Sololá	702	San José Chacayá	5	Chacayá	1	Enero	2023-07-01T00:00:00	2024-11-06T05:00:00	1	Precipitación	0
71272	7	Sololá	702	San José Chacayá	5	Chacayá	1	Enero	2023-07-01T00:00:00	2024-11-06T05:00:00	8	Radiación solar	0
71273	7	Sololá	702	San José Chacayá	5	Chacayá	1	Enero	2023-07-01T00:00:00	2024-11-06T06:00:00	2	Temperatura media	10.1
71274	7	Sololá	702	San José Chacayá	5	Chacayá	1	Enero	2023-07-01T00:00:00	2024-11-06T06:00:00	4	Temperatura máxima	10.1
71275	7	Sololá	702	San José Chacayá	5	Chacayá	1	Enero	2023-07-01T00:00:00	2024-11-06T06:00:00	3	Temperatura mínima	8.1
71276	7	Sololá	702	San José Chacayá	5	Chacayá	1	Enero	2023-07-01T00:00:00	2024-11-06T06:00:00	5	Humedad	83
71277	7	Sololá	702	San José Chacayá	5	Chacayá	1	Enero	2023-07-01T00:00:00	2024-11-06T06:00:00	6	Velocidad del viento	1.6
71278	7	Sololá	702	San José Chacayá	5	Chacayá	1	Enero	2023-07-01T00:00:00	2024-11-06T06:00:00	7	Dirección del viento	1.61
71279	7	Sololá	702	San José Chacayá	5	Chacayá	1	Enero	2023-07-01T00:00:00	2024-11-06T06:00:00	1	Precipitación	0
71280	7	Sololá	702	San José Chacayá	5	Chacayá	1	Enero	2023-07-01T00:00:00	2024-11-06T06:00:00	8	Radiación solar	0
71281	7	Sololá	702	San José Chacayá	5	Chacayá	1	Enero	2023-07-01T00:00:00	2024-11-06T07:00:00	2	Temperatura media	13.3
71282	7	Sololá	702	San José Chacayá	5	Chacayá	1	Enero	2023-07-01T00:00:00	2024-11-06T07:00:00	4	Temperatura máxima	14.2
71283	7	Sololá	702	San José Chacayá	5	Chacayá	1	Enero	2023-07-01T00:00:00	2024-11-06T07:00:00	3	Temperatura mínima	10.1
71284	7	Sololá	702	San José Chacayá	5	Chacayá	1	Enero	2023-07-01T00:00:00	2024-11-06T07:00:00	5	Humedad	72
71285	7	Sololá	702	San José Chacayá	5	Chacayá	1	Enero	2023-07-01T00:00:00	2024-11-06T07:00:00	6	Velocidad del viento	3.2
71286	7	Sololá	702	San José Chacayá	5	Chacayá	1	Enero	2023-07-01T00:00:00	2024-11-06T07:00:00	7	Dirección del viento	3.22
71287	7	Sololá	702	San José Chacayá	5	Chacayá	1	Enero	2023-07-01T00:00:00	2024-11-06T07:00:00	1	Precipitación	0
71288	7	Sololá	702	San José Chacayá	5	Chacayá	1	Enero	2023-07-01T00:00:00	2024-11-06T07:00:00	8	Radiación solar	8
71289	7	Sololá	702	San José Chacayá	5	Chacayá	1	Enero	2023-07-01T00:00:00	2024-11-06T08:00:00	2	Temperatura media	14.4
71290	7	Sololá	702	San José Chacayá	5	Chacayá	1	Enero	2023-07-01T00:00:00	2024-11-06T08:00:00	4	Temperatura máxima	14.4
71291	7	Sololá	702	San José Chacayá	5	Chacayá	1	Enero	2023-07-01T00:00:00	2024-11-06T08:00:00	3	Temperatura mínima	13.1
71292	7	Sololá	702	San José Chacayá	5	Chacayá	1	Enero	2023-07-01T00:00:00	2024-11-06T08:00:00	5	Humedad	64
71293	7	Sololá	702	San José Chacayá	5	Chacayá	1	Enero	2023-07-01T00:00:00	2024-11-06T08:00:00	6	Velocidad del viento	4.8
71294	7	Sololá	702	San José Chacayá	5	Chacayá	1	Enero	2023-07-01T00:00:00	2024-11-06T08:00:00	7	Dirección del viento	4.83
71295	7	Sololá	702	San José Chacayá	5	Chacayá	1	Enero	2023-07-01T00:00:00	2024-11-06T08:00:00	1	Precipitación	0
71296	7	Sololá	702	San José Chacayá	5	Chacayá	1	Enero	2023-07-01T00:00:00	2024-11-06T08:00:00	8	Radiación solar	181
71297	7	Sololá	702	San José Chacayá	5	Chacayá	1	Enero	2023-07-01T00:00:00	2024-11-06T09:00:00	2	Temperatura media	16.8
71298	7	Sololá	702	San José Chacayá	5	Chacayá	1	Enero	2023-07-01T00:00:00	2024-11-06T09:00:00	4	Temperatura máxima	17.1
71299	7	Sololá	702	San José Chacayá	5	Chacayá	1	Enero	2023-07-01T00:00:00	2024-11-06T09:00:00	3	Temperatura mínima	14.4
71300	7	Sololá	702	San José Chacayá	5	Chacayá	1	Enero	2023-07-01T00:00:00	2024-11-06T09:00:00	5	Humedad	60
71301	7	Sololá	702	San José Chacayá	5	Chacayá	1	Enero	2023-07-01T00:00:00	2024-11-06T09:00:00	6	Velocidad del viento	4.8
71302	7	Sololá	702	San José Chacayá	5	Chacayá	1	Enero	2023-07-01T00:00:00	2024-11-06T09:00:00	7	Dirección del viento	4.83
71303	7	Sololá	702	San José Chacayá	5	Chacayá	1	Enero	2023-07-01T00:00:00	2024-11-06T09:00:00	1	Precipitación	0
71304	7	Sololá	702	San José Chacayá	5	Chacayá	1	Enero	2023-07-01T00:00:00	2024-11-06T09:00:00	8	Radiación solar	385
71305	7	Sololá	702	San José Chacayá	5	Chacayá	1	Enero	2023-07-01T00:00:00	2024-11-06T10:00:00	2	Temperatura media	19
71306	7	Sololá	702	San José Chacayá	5	Chacayá	1	Enero	2023-07-01T00:00:00	2024-11-06T10:00:00	4	Temperatura máxima	19
71307	7	Sololá	702	San José Chacayá	5	Chacayá	1	Enero	2023-07-01T00:00:00	2024-11-06T10:00:00	3	Temperatura mínima	16.7
71308	7	Sololá	702	San José Chacayá	5	Chacayá	1	Enero	2023-07-01T00:00:00	2024-11-06T10:00:00	5	Humedad	58
71309	7	Sololá	702	San José Chacayá	5	Chacayá	1	Enero	2023-07-01T00:00:00	2024-11-06T10:00:00	6	Velocidad del viento	4.8
71310	7	Sololá	702	San José Chacayá	5	Chacayá	1	Enero	2023-07-01T00:00:00	2024-11-06T10:00:00	7	Dirección del viento	4.83
71311	7	Sololá	702	San José Chacayá	5	Chacayá	1	Enero	2023-07-01T00:00:00	2024-11-06T10:00:00	1	Precipitación	0
71312	7	Sololá	702	San José Chacayá	5	Chacayá	1	Enero	2023-07-01T00:00:00	2024-11-06T10:00:00	8	Radiación solar	160
71313	7	Sololá	702	San José Chacayá	5	Chacayá	1	Enero	2023-07-01T00:00:00	2024-11-06T11:00:00	2	Temperatura media	20.1
71314	7	Sololá	702	San José Chacayá	5	Chacayá	1	Enero	2023-07-01T00:00:00	2024-11-06T11:00:00	4	Temperatura máxima	20.1
71315	7	Sololá	702	San José Chacayá	5	Chacayá	1	Enero	2023-07-01T00:00:00	2024-11-06T11:00:00	3	Temperatura mínima	18.7
71316	7	Sololá	702	San José Chacayá	5	Chacayá	1	Enero	2023-07-01T00:00:00	2024-11-06T11:00:00	5	Humedad	53
71317	7	Sololá	702	San José Chacayá	5	Chacayá	1	Enero	2023-07-01T00:00:00	2024-11-06T11:00:00	6	Velocidad del viento	4.8
71318	7	Sololá	702	San José Chacayá	5	Chacayá	1	Enero	2023-07-01T00:00:00	2024-11-06T11:00:00	7	Dirección del viento	4.83
71319	7	Sololá	702	San José Chacayá	5	Chacayá	1	Enero	2023-07-01T00:00:00	2024-11-06T11:00:00	1	Precipitación	0
71320	7	Sololá	702	San José Chacayá	5	Chacayá	1	Enero	2023-07-01T00:00:00	2024-11-06T11:00:00	8	Radiación solar	129
71321	7	Sololá	702	San José Chacayá	5	Chacayá	1	Enero	2023-07-01T00:00:00	2024-11-06T12:00:00	2	Temperatura media	18.3
71322	7	Sololá	702	San José Chacayá	5	Chacayá	1	Enero	2023-07-01T00:00:00	2024-11-06T12:00:00	4	Temperatura máxima	20.8
71323	7	Sololá	702	San José Chacayá	5	Chacayá	1	Enero	2023-07-01T00:00:00	2024-11-06T12:00:00	3	Temperatura mínima	18.3
71324	7	Sololá	702	San José Chacayá	5	Chacayá	1	Enero	2023-07-01T00:00:00	2024-11-06T12:00:00	5	Humedad	58
71325	7	Sololá	702	San José Chacayá	5	Chacayá	1	Enero	2023-07-01T00:00:00	2024-11-06T12:00:00	6	Velocidad del viento	3.2
71326	7	Sololá	702	San José Chacayá	5	Chacayá	1	Enero	2023-07-01T00:00:00	2024-11-06T12:00:00	7	Dirección del viento	3.22
71327	7	Sololá	702	San José Chacayá	5	Chacayá	1	Enero	2023-07-01T00:00:00	2024-11-06T12:00:00	1	Precipitación	0
71328	7	Sololá	702	San José Chacayá	5	Chacayá	1	Enero	2023-07-01T00:00:00	2024-11-06T12:00:00	8	Radiación solar	754
71329	7	Sololá	702	San José Chacayá	5	Chacayá	1	Enero	2023-07-01T00:00:00	2024-11-06T13:00:00	2	Temperatura media	17.7
71330	7	Sololá	702	San José Chacayá	5	Chacayá	1	Enero	2023-07-01T00:00:00	2024-11-06T13:00:00	4	Temperatura máxima	18.3
71331	7	Sololá	702	San José Chacayá	5	Chacayá	1	Enero	2023-07-01T00:00:00	2024-11-06T13:00:00	3	Temperatura mínima	17
71332	7	Sololá	702	San José Chacayá	5	Chacayá	1	Enero	2023-07-01T00:00:00	2024-11-06T13:00:00	5	Humedad	62
71333	7	Sololá	702	San José Chacayá	5	Chacayá	1	Enero	2023-07-01T00:00:00	2024-11-06T13:00:00	6	Velocidad del viento	3.2
71334	7	Sololá	702	San José Chacayá	5	Chacayá	1	Enero	2023-07-01T00:00:00	2024-11-06T13:00:00	7	Dirección del viento	3.22
71335	7	Sololá	702	San José Chacayá	5	Chacayá	1	Enero	2023-07-01T00:00:00	2024-11-06T13:00:00	1	Precipitación	0
71336	7	Sololá	702	San José Chacayá	5	Chacayá	1	Enero	2023-07-01T00:00:00	2024-11-06T13:00:00	8	Radiación solar	791
71337	7	Sololá	702	San José Chacayá	5	Chacayá	1	Enero	2023-07-01T00:00:00	2024-11-06T14:00:00	2	Temperatura media	16.2
71338	7	Sololá	702	San José Chacayá	5	Chacayá	1	Enero	2023-07-01T00:00:00	2024-11-06T14:00:00	4	Temperatura máxima	17.8
71339	7	Sololá	702	San José Chacayá	5	Chacayá	1	Enero	2023-07-01T00:00:00	2024-11-06T14:00:00	3	Temperatura mínima	16.1
71340	7	Sololá	702	San José Chacayá	5	Chacayá	1	Enero	2023-07-01T00:00:00	2024-11-06T14:00:00	5	Humedad	68
71341	7	Sololá	702	San José Chacayá	5	Chacayá	1	Enero	2023-07-01T00:00:00	2024-11-06T14:00:00	6	Velocidad del viento	4.8
71342	7	Sololá	702	San José Chacayá	5	Chacayá	1	Enero	2023-07-01T00:00:00	2024-11-06T14:00:00	7	Dirección del viento	4.83
71343	7	Sololá	702	San José Chacayá	5	Chacayá	1	Enero	2023-07-01T00:00:00	2024-11-06T14:00:00	1	Precipitación	0
71344	7	Sololá	702	San José Chacayá	5	Chacayá	1	Enero	2023-07-01T00:00:00	2024-11-06T14:00:00	8	Radiación solar	766
71345	7	Sololá	702	San José Chacayá	5	Chacayá	1	Enero	2023-07-01T00:00:00	2024-11-06T15:00:00	2	Temperatura media	15.6
71346	7	Sololá	702	San José Chacayá	5	Chacayá	1	Enero	2023-07-01T00:00:00	2024-11-06T15:00:00	4	Temperatura máxima	16.7
71347	7	Sololá	702	San José Chacayá	5	Chacayá	1	Enero	2023-07-01T00:00:00	2024-11-06T15:00:00	3	Temperatura mínima	15.1
71348	7	Sololá	702	San José Chacayá	5	Chacayá	1	Enero	2023-07-01T00:00:00	2024-11-06T15:00:00	5	Humedad	68
71349	7	Sololá	702	San José Chacayá	5	Chacayá	1	Enero	2023-07-01T00:00:00	2024-11-06T15:00:00	6	Velocidad del viento	4.8
71350	7	Sololá	702	San José Chacayá	5	Chacayá	1	Enero	2023-07-01T00:00:00	2024-11-06T15:00:00	7	Dirección del viento	4.83
71351	7	Sololá	702	San José Chacayá	5	Chacayá	1	Enero	2023-07-01T00:00:00	2024-11-06T15:00:00	1	Precipitación	0
71352	7	Sololá	702	San José Chacayá	5	Chacayá	1	Enero	2023-07-01T00:00:00	2024-11-06T15:00:00	8	Radiación solar	627
71353	7	Sololá	702	San José Chacayá	5	Chacayá	1	Enero	2023-07-01T00:00:00	2024-11-06T16:00:00	2	Temperatura media	15.1
71354	7	Sololá	702	San José Chacayá	5	Chacayá	1	Enero	2023-07-01T00:00:00	2024-11-06T16:00:00	4	Temperatura máxima	16.7
71355	7	Sololá	702	San José Chacayá	5	Chacayá	1	Enero	2023-07-01T00:00:00	2024-11-06T16:00:00	3	Temperatura mínima	15
71356	7	Sololá	702	San José Chacayá	5	Chacayá	1	Enero	2023-07-01T00:00:00	2024-11-06T16:00:00	5	Humedad	68
71357	7	Sololá	702	San José Chacayá	5	Chacayá	1	Enero	2023-07-01T00:00:00	2024-11-06T16:00:00	6	Velocidad del viento	4.8
71358	7	Sololá	702	San José Chacayá	5	Chacayá	1	Enero	2023-07-01T00:00:00	2024-11-06T16:00:00	7	Dirección del viento	4.83
71359	7	Sololá	702	San José Chacayá	5	Chacayá	1	Enero	2023-07-01T00:00:00	2024-11-06T16:00:00	1	Precipitación	0
71360	7	Sololá	702	San José Chacayá	5	Chacayá	1	Enero	2023-07-01T00:00:00	2024-11-06T16:00:00	8	Radiación solar	421
71361	7	Sololá	702	San José Chacayá	5	Chacayá	1	Enero	2023-07-01T00:00:00	2024-11-06T17:00:00	2	Temperatura media	13.8
71362	7	Sololá	702	San José Chacayá	5	Chacayá	1	Enero	2023-07-01T00:00:00	2024-11-06T17:00:00	4	Temperatura máxima	15.1
71363	7	Sololá	702	San José Chacayá	5	Chacayá	1	Enero	2023-07-01T00:00:00	2024-11-06T17:00:00	3	Temperatura mínima	13.7
71364	7	Sololá	702	San José Chacayá	5	Chacayá	1	Enero	2023-07-01T00:00:00	2024-11-06T17:00:00	5	Humedad	74
71365	7	Sololá	702	San José Chacayá	5	Chacayá	1	Enero	2023-07-01T00:00:00	2024-11-06T17:00:00	6	Velocidad del viento	1.6
71366	7	Sololá	702	San José Chacayá	5	Chacayá	1	Enero	2023-07-01T00:00:00	2024-11-06T17:00:00	7	Dirección del viento	1.61
71367	7	Sololá	702	San José Chacayá	5	Chacayá	1	Enero	2023-07-01T00:00:00	2024-11-06T17:00:00	1	Precipitación	0
71368	7	Sololá	702	San José Chacayá	5	Chacayá	1	Enero	2023-07-01T00:00:00	2024-11-06T17:00:00	8	Radiación solar	147
71369	7	Sololá	702	San José Chacayá	5	Chacayá	1	Enero	2023-07-01T00:00:00	2024-11-06T18:00:00	2	Temperatura media	13.2
71370	7	Sololá	702	San José Chacayá	5	Chacayá	1	Enero	2023-07-01T00:00:00	2024-11-06T18:00:00	4	Temperatura máxima	13.8
71371	7	Sololá	702	San José Chacayá	5	Chacayá	1	Enero	2023-07-01T00:00:00	2024-11-06T18:00:00	3	Temperatura mínima	13.2
71372	7	Sololá	702	San José Chacayá	5	Chacayá	1	Enero	2023-07-01T00:00:00	2024-11-06T18:00:00	5	Humedad	76
71373	7	Sololá	702	San José Chacayá	5	Chacayá	1	Enero	2023-07-01T00:00:00	2024-11-06T18:00:00	6	Velocidad del viento	1.6
71374	7	Sololá	702	San José Chacayá	5	Chacayá	1	Enero	2023-07-01T00:00:00	2024-11-06T18:00:00	7	Dirección del viento	1.61
71375	7	Sololá	702	San José Chacayá	5	Chacayá	1	Enero	2023-07-01T00:00:00	2024-11-06T18:00:00	1	Precipitación	0
71376	7	Sololá	702	San José Chacayá	5	Chacayá	1	Enero	2023-07-01T00:00:00	2024-11-06T18:00:00	8	Radiación solar	17
71377	7	Sololá	702	San José Chacayá	5	Chacayá	1	Enero	2023-07-01T00:00:00	2024-11-06T19:00:00	2	Temperatura media	11.4
71378	7	Sololá	702	San José Chacayá	5	Chacayá	1	Enero	2023-07-01T00:00:00	2024-11-06T19:00:00	4	Temperatura máxima	13.2
71379	7	Sololá	702	San José Chacayá	5	Chacayá	1	Enero	2023-07-01T00:00:00	2024-11-06T19:00:00	3	Temperatura mínima	11.4
71380	7	Sololá	702	San José Chacayá	5	Chacayá	1	Enero	2023-07-01T00:00:00	2024-11-06T19:00:00	5	Humedad	81
71381	7	Sololá	702	San José Chacayá	5	Chacayá	1	Enero	2023-07-01T00:00:00	2024-11-06T19:00:00	6	Velocidad del viento	1.6
71382	7	Sololá	702	San José Chacayá	5	Chacayá	1	Enero	2023-07-01T00:00:00	2024-11-06T19:00:00	7	Dirección del viento	1.61
71383	7	Sololá	702	San José Chacayá	5	Chacayá	1	Enero	2023-07-01T00:00:00	2024-11-06T19:00:00	1	Precipitación	0
71384	7	Sololá	702	San José Chacayá	5	Chacayá	1	Enero	2023-07-01T00:00:00	2024-11-06T19:00:00	8	Radiación solar	0
71385	7	Sololá	702	San José Chacayá	5	Chacayá	1	Enero	2023-07-01T00:00:00	2024-11-06T20:00:00	2	Temperatura media	11.7
71386	7	Sololá	702	San José Chacayá	5	Chacayá	1	Enero	2023-07-01T00:00:00	2024-11-06T20:00:00	4	Temperatura máxima	11.9
71387	7	Sololá	702	San José Chacayá	5	Chacayá	1	Enero	2023-07-01T00:00:00	2024-11-06T20:00:00	3	Temperatura mínima	11.4
71388	7	Sololá	702	San José Chacayá	5	Chacayá	1	Enero	2023-07-01T00:00:00	2024-11-06T20:00:00	5	Humedad	81
71389	7	Sololá	702	San José Chacayá	5	Chacayá	1	Enero	2023-07-01T00:00:00	2024-11-06T20:00:00	6	Velocidad del viento	1.6
71390	7	Sololá	702	San José Chacayá	5	Chacayá	1	Enero	2023-07-01T00:00:00	2024-11-06T20:00:00	7	Dirección del viento	1.61
71391	7	Sololá	702	San José Chacayá	5	Chacayá	1	Enero	2023-07-01T00:00:00	2024-11-06T20:00:00	1	Precipitación	0
71392	7	Sololá	702	San José Chacayá	5	Chacayá	1	Enero	2023-07-01T00:00:00	2024-11-06T20:00:00	8	Radiación solar	0
71393	7	Sololá	702	San José Chacayá	5	Chacayá	1	Enero	2023-07-01T00:00:00	2024-11-06T21:00:00	2	Temperatura media	11.3
71394	7	Sololá	702	San José Chacayá	5	Chacayá	1	Enero	2023-07-01T00:00:00	2024-11-06T21:00:00	4	Temperatura máxima	11.7
71395	7	Sololá	702	San José Chacayá	5	Chacayá	1	Enero	2023-07-01T00:00:00	2024-11-06T21:00:00	3	Temperatura mínima	11.2
71396	7	Sololá	702	San José Chacayá	5	Chacayá	1	Enero	2023-07-01T00:00:00	2024-11-06T21:00:00	5	Humedad	82
71397	7	Sololá	702	San José Chacayá	5	Chacayá	1	Enero	2023-07-01T00:00:00	2024-11-06T21:00:00	6	Velocidad del viento	1.6
71398	7	Sololá	702	San José Chacayá	5	Chacayá	1	Enero	2023-07-01T00:00:00	2024-11-06T21:00:00	7	Dirección del viento	1.61
71399	7	Sololá	702	San José Chacayá	5	Chacayá	1	Enero	2023-07-01T00:00:00	2024-11-06T21:00:00	1	Precipitación	0
71400	7	Sololá	702	San José Chacayá	5	Chacayá	1	Enero	2023-07-01T00:00:00	2024-11-06T21:00:00	8	Radiación solar	0
71401	7	Sololá	702	San José Chacayá	5	Chacayá	1	Enero	2023-07-01T00:00:00	2024-11-06T22:00:00	2	Temperatura media	10.9
71402	7	Sololá	702	San José Chacayá	5	Chacayá	1	Enero	2023-07-01T00:00:00	2024-11-06T22:00:00	4	Temperatura máxima	11.6
71403	7	Sololá	702	San José Chacayá	5	Chacayá	1	Enero	2023-07-01T00:00:00	2024-11-06T22:00:00	3	Temperatura mínima	10.9
71404	7	Sololá	702	San José Chacayá	5	Chacayá	1	Enero	2023-07-01T00:00:00	2024-11-06T22:00:00	5	Humedad	82
71405	7	Sololá	702	San José Chacayá	5	Chacayá	1	Enero	2023-07-01T00:00:00	2024-11-06T22:00:00	6	Velocidad del viento	1.6
71406	7	Sololá	702	San José Chacayá	5	Chacayá	1	Enero	2023-07-01T00:00:00	2024-11-06T22:00:00	7	Dirección del viento	1.61
71407	7	Sololá	702	San José Chacayá	5	Chacayá	1	Enero	2023-07-01T00:00:00	2024-11-06T22:00:00	1	Precipitación	0
71408	7	Sololá	702	San José Chacayá	5	Chacayá	1	Enero	2023-07-01T00:00:00	2024-11-06T22:00:00	8	Radiación solar	0
71409	7	Sololá	702	San José Chacayá	5	Chacayá	1	Enero	2023-07-01T00:00:00	2024-11-06T23:00:00	2	Temperatura media	10.8
71410	7	Sololá	702	San José Chacayá	5	Chacayá	1	Enero	2023-07-01T00:00:00	2024-11-06T23:00:00	4	Temperatura máxima	10.9
71411	7	Sololá	702	San José Chacayá	5	Chacayá	1	Enero	2023-07-01T00:00:00	2024-11-06T23:00:00	3	Temperatura mínima	10.2
71412	7	Sololá	702	San José Chacayá	5	Chacayá	1	Enero	2023-07-01T00:00:00	2024-11-06T23:00:00	5	Humedad	84
71413	7	Sololá	702	San José Chacayá	5	Chacayá	1	Enero	2023-07-01T00:00:00	2024-11-06T23:00:00	6	Velocidad del viento	0
71414	7	Sololá	702	San José Chacayá	5	Chacayá	1	Enero	2023-07-01T00:00:00	2024-11-06T23:00:00	7	Dirección del viento	0
71415	7	Sololá	702	San José Chacayá	5	Chacayá	1	Enero	2023-07-01T00:00:00	2024-11-06T23:00:00	1	Precipitación	0
71416	7	Sololá	702	San José Chacayá	5	Chacayá	1	Enero	2023-07-01T00:00:00	2024-11-06T23:00:00	8	Radiación solar	0
71417	7	Sololá	702	San José Chacayá	5	Chacayá	1	Enero	2023-08-01T00:00:00	2024-11-06T00:00:00	2	Temperatura media	12.1
71418	7	Sololá	702	San José Chacayá	5	Chacayá	1	Enero	2023-08-01T00:00:00	2024-11-06T00:00:00	4	Temperatura máxima	12.1
71419	7	Sololá	702	San José Chacayá	5	Chacayá	1	Enero	2023-08-01T00:00:00	2024-11-06T00:00:00	3	Temperatura mínima	10.8
71420	7	Sololá	702	San José Chacayá	5	Chacayá	1	Enero	2023-08-01T00:00:00	2024-11-06T00:00:00	5	Humedad	81
71421	7	Sololá	702	San José Chacayá	5	Chacayá	1	Enero	2023-08-01T00:00:00	2024-11-06T00:00:00	6	Velocidad del viento	1.6
71422	7	Sololá	702	San José Chacayá	5	Chacayá	1	Enero	2023-08-01T00:00:00	2024-11-06T00:00:00	7	Dirección del viento	1.61
71423	7	Sololá	702	San José Chacayá	5	Chacayá	1	Enero	2023-08-01T00:00:00	2024-11-06T00:00:00	1	Precipitación	0
71424	7	Sololá	702	San José Chacayá	5	Chacayá	1	Enero	2023-08-01T00:00:00	2024-11-06T00:00:00	8	Radiación solar	0
71425	7	Sololá	702	San José Chacayá	5	Chacayá	1	Enero	2023-08-01T00:00:00	2024-11-06T01:00:00	2	Temperatura media	12.1
71426	7	Sololá	702	San José Chacayá	5	Chacayá	1	Enero	2023-08-01T00:00:00	2024-11-06T01:00:00	4	Temperatura máxima	12.4
71427	7	Sololá	702	San José Chacayá	5	Chacayá	1	Enero	2023-08-01T00:00:00	2024-11-06T01:00:00	3	Temperatura mínima	12
71428	7	Sololá	702	San José Chacayá	5	Chacayá	1	Enero	2023-08-01T00:00:00	2024-11-06T01:00:00	5	Humedad	81
71429	7	Sololá	702	San José Chacayá	5	Chacayá	1	Enero	2023-08-01T00:00:00	2024-11-06T01:00:00	6	Velocidad del viento	1.6
71430	7	Sololá	702	San José Chacayá	5	Chacayá	1	Enero	2023-08-01T00:00:00	2024-11-06T01:00:00	7	Dirección del viento	1.61
71431	7	Sololá	702	San José Chacayá	5	Chacayá	1	Enero	2023-08-01T00:00:00	2024-11-06T01:00:00	1	Precipitación	0
71432	7	Sololá	702	San José Chacayá	5	Chacayá	1	Enero	2023-08-01T00:00:00	2024-11-06T01:00:00	8	Radiación solar	0
71433	7	Sololá	702	San José Chacayá	5	Chacayá	1	Enero	2023-08-01T00:00:00	2024-11-06T02:00:00	2	Temperatura media	9.9
71434	7	Sololá	702	San José Chacayá	5	Chacayá	1	Enero	2023-08-01T00:00:00	2024-11-06T02:00:00	4	Temperatura máxima	12.1
71435	7	Sololá	702	San José Chacayá	5	Chacayá	1	Enero	2023-08-01T00:00:00	2024-11-06T02:00:00	3	Temperatura mínima	9.9
71436	7	Sololá	702	San José Chacayá	5	Chacayá	1	Enero	2023-08-01T00:00:00	2024-11-06T02:00:00	5	Humedad	86
71437	7	Sololá	702	San José Chacayá	5	Chacayá	1	Enero	2023-08-01T00:00:00	2024-11-06T02:00:00	6	Velocidad del viento	1.6
71438	7	Sololá	702	San José Chacayá	5	Chacayá	1	Enero	2023-08-01T00:00:00	2024-11-06T02:00:00	7	Dirección del viento	1.61
71439	7	Sololá	702	San José Chacayá	5	Chacayá	1	Enero	2023-08-01T00:00:00	2024-11-06T02:00:00	1	Precipitación	0
71440	7	Sololá	702	San José Chacayá	5	Chacayá	1	Enero	2023-08-01T00:00:00	2024-11-06T02:00:00	8	Radiación solar	0
71441	7	Sololá	702	San José Chacayá	5	Chacayá	1	Enero	2023-08-01T00:00:00	2024-11-06T03:00:00	2	Temperatura media	8.9
71442	7	Sololá	702	San José Chacayá	5	Chacayá	1	Enero	2023-08-01T00:00:00	2024-11-06T03:00:00	4	Temperatura máxima	9.9
71443	7	Sololá	702	San José Chacayá	5	Chacayá	1	Enero	2023-08-01T00:00:00	2024-11-06T03:00:00	3	Temperatura mínima	8.9
71444	7	Sololá	702	San José Chacayá	5	Chacayá	1	Enero	2023-08-01T00:00:00	2024-11-06T03:00:00	5	Humedad	87
71445	7	Sololá	702	San José Chacayá	5	Chacayá	1	Enero	2023-08-01T00:00:00	2024-11-06T03:00:00	6	Velocidad del viento	1.6
71446	7	Sololá	702	San José Chacayá	5	Chacayá	1	Enero	2023-08-01T00:00:00	2024-11-06T03:00:00	7	Dirección del viento	1.61
71447	7	Sololá	702	San José Chacayá	5	Chacayá	1	Enero	2023-08-01T00:00:00	2024-11-06T03:00:00	1	Precipitación	0
71448	7	Sololá	702	San José Chacayá	5	Chacayá	1	Enero	2023-08-01T00:00:00	2024-11-06T03:00:00	8	Radiación solar	0
71449	7	Sololá	702	San José Chacayá	5	Chacayá	1	Enero	2023-08-01T00:00:00	2024-11-06T04:00:00	2	Temperatura media	8
71450	7	Sololá	702	San José Chacayá	5	Chacayá	1	Enero	2023-08-01T00:00:00	2024-11-06T04:00:00	4	Temperatura máxima	8.9
71451	7	Sololá	702	San José Chacayá	5	Chacayá	1	Enero	2023-08-01T00:00:00	2024-11-06T04:00:00	3	Temperatura mínima	7.9
71452	7	Sololá	702	San José Chacayá	5	Chacayá	1	Enero	2023-08-01T00:00:00	2024-11-06T04:00:00	5	Humedad	90
71453	7	Sololá	702	San José Chacayá	5	Chacayá	1	Enero	2023-08-01T00:00:00	2024-11-06T04:00:00	6	Velocidad del viento	1.6
71454	7	Sololá	702	San José Chacayá	5	Chacayá	1	Enero	2023-08-01T00:00:00	2024-11-06T04:00:00	7	Dirección del viento	1.61
71455	7	Sololá	702	San José Chacayá	5	Chacayá	1	Enero	2023-08-01T00:00:00	2024-11-06T04:00:00	1	Precipitación	0
71456	7	Sololá	702	San José Chacayá	5	Chacayá	1	Enero	2023-08-01T00:00:00	2024-11-06T04:00:00	8	Radiación solar	0
71457	7	Sololá	702	San José Chacayá	5	Chacayá	1	Enero	2023-08-01T00:00:00	2024-11-06T05:00:00	2	Temperatura media	7.4
71458	7	Sololá	702	San José Chacayá	5	Chacayá	1	Enero	2023-08-01T00:00:00	2024-11-06T05:00:00	4	Temperatura máxima	8.1
71459	7	Sololá	702	San José Chacayá	5	Chacayá	1	Enero	2023-08-01T00:00:00	2024-11-06T05:00:00	3	Temperatura mínima	7.3
71460	7	Sololá	702	San José Chacayá	5	Chacayá	1	Enero	2023-08-01T00:00:00	2024-11-06T05:00:00	5	Humedad	91
71461	7	Sololá	702	San José Chacayá	5	Chacayá	1	Enero	2023-08-01T00:00:00	2024-11-06T05:00:00	6	Velocidad del viento	1.6
71462	7	Sololá	702	San José Chacayá	5	Chacayá	1	Enero	2023-08-01T00:00:00	2024-11-06T05:00:00	7	Dirección del viento	1.61
71463	7	Sololá	702	San José Chacayá	5	Chacayá	1	Enero	2023-08-01T00:00:00	2024-11-06T05:00:00	1	Precipitación	0
71464	7	Sololá	702	San José Chacayá	5	Chacayá	1	Enero	2023-08-01T00:00:00	2024-11-06T05:00:00	8	Radiación solar	0
71465	7	Sololá	702	San José Chacayá	5	Chacayá	1	Enero	2023-08-01T00:00:00	2024-11-06T06:00:00	2	Temperatura media	7.9
71466	7	Sololá	702	San José Chacayá	5	Chacayá	1	Enero	2023-08-01T00:00:00	2024-11-06T06:00:00	4	Temperatura máxima	7.9
71467	7	Sololá	702	San José Chacayá	5	Chacayá	1	Enero	2023-08-01T00:00:00	2024-11-06T06:00:00	3	Temperatura mínima	7.1
71468	7	Sololá	702	San José Chacayá	5	Chacayá	1	Enero	2023-08-01T00:00:00	2024-11-06T06:00:00	5	Humedad	91
71469	7	Sololá	702	San José Chacayá	5	Chacayá	1	Enero	2023-08-01T00:00:00	2024-11-06T06:00:00	6	Velocidad del viento	1.6
71470	7	Sololá	702	San José Chacayá	5	Chacayá	1	Enero	2023-08-01T00:00:00	2024-11-06T06:00:00	7	Dirección del viento	1.61
71471	7	Sololá	702	San José Chacayá	5	Chacayá	1	Enero	2023-08-01T00:00:00	2024-11-06T06:00:00	1	Precipitación	0
71472	7	Sololá	702	San José Chacayá	5	Chacayá	1	Enero	2023-08-01T00:00:00	2024-11-06T06:00:00	8	Radiación solar	0
71473	7	Sololá	702	San José Chacayá	5	Chacayá	1	Enero	2023-08-01T00:00:00	2024-11-06T07:00:00	2	Temperatura media	11.4
71474	7	Sololá	702	San José Chacayá	5	Chacayá	1	Enero	2023-08-01T00:00:00	2024-11-06T07:00:00	4	Temperatura máxima	11.4
71475	7	Sololá	702	San José Chacayá	5	Chacayá	1	Enero	2023-08-01T00:00:00	2024-11-06T07:00:00	3	Temperatura mínima	7.9
71476	7	Sololá	702	San José Chacayá	5	Chacayá	1	Enero	2023-08-01T00:00:00	2024-11-06T07:00:00	5	Humedad	83
71477	7	Sololá	702	San José Chacayá	5	Chacayá	1	Enero	2023-08-01T00:00:00	2024-11-06T07:00:00	6	Velocidad del viento	1.6
71478	7	Sololá	702	San José Chacayá	5	Chacayá	1	Enero	2023-08-01T00:00:00	2024-11-06T07:00:00	7	Dirección del viento	1.61
71479	7	Sololá	702	San José Chacayá	5	Chacayá	1	Enero	2023-08-01T00:00:00	2024-11-06T07:00:00	1	Precipitación	0
71480	7	Sololá	702	San José Chacayá	5	Chacayá	1	Enero	2023-08-01T00:00:00	2024-11-06T07:00:00	8	Radiación solar	14
71481	7	Sololá	702	San José Chacayá	5	Chacayá	1	Enero	2023-08-01T00:00:00	2024-11-06T08:00:00	2	Temperatura media	18
71482	7	Sololá	702	San José Chacayá	5	Chacayá	1	Enero	2023-08-01T00:00:00	2024-11-06T08:00:00	4	Temperatura máxima	18
71483	7	Sololá	702	San José Chacayá	5	Chacayá	1	Enero	2023-08-01T00:00:00	2024-11-06T08:00:00	3	Temperatura mínima	11.4
71484	7	Sololá	702	San José Chacayá	5	Chacayá	1	Enero	2023-08-01T00:00:00	2024-11-06T08:00:00	5	Humedad	65
71485	7	Sololá	702	San José Chacayá	5	Chacayá	1	Enero	2023-08-01T00:00:00	2024-11-06T08:00:00	6	Velocidad del viento	1.6
71486	7	Sololá	702	San José Chacayá	5	Chacayá	1	Enero	2023-08-01T00:00:00	2024-11-06T08:00:00	7	Dirección del viento	1.61
71487	7	Sololá	702	San José Chacayá	5	Chacayá	1	Enero	2023-08-01T00:00:00	2024-11-06T08:00:00	1	Precipitación	0
71488	7	Sololá	702	San José Chacayá	5	Chacayá	1	Enero	2023-08-01T00:00:00	2024-11-06T08:00:00	8	Radiación solar	173
71489	7	Sololá	702	San José Chacayá	5	Chacayá	1	Enero	2023-08-01T00:00:00	2024-11-06T09:00:00	2	Temperatura media	19.2
71490	7	Sololá	702	San José Chacayá	5	Chacayá	1	Enero	2023-08-01T00:00:00	2024-11-06T09:00:00	4	Temperatura máxima	19.7
71491	7	Sololá	702	San José Chacayá	5	Chacayá	1	Enero	2023-08-01T00:00:00	2024-11-06T09:00:00	3	Temperatura mínima	18
71492	7	Sololá	702	San José Chacayá	5	Chacayá	1	Enero	2023-08-01T00:00:00	2024-11-06T09:00:00	5	Humedad	59
71493	7	Sololá	702	San José Chacayá	5	Chacayá	1	Enero	2023-08-01T00:00:00	2024-11-06T09:00:00	6	Velocidad del viento	4.8
71494	7	Sololá	702	San José Chacayá	5	Chacayá	1	Enero	2023-08-01T00:00:00	2024-11-06T09:00:00	7	Dirección del viento	4.83
71495	7	Sololá	702	San José Chacayá	5	Chacayá	1	Enero	2023-08-01T00:00:00	2024-11-06T09:00:00	1	Precipitación	0
71496	7	Sololá	702	San José Chacayá	5	Chacayá	1	Enero	2023-08-01T00:00:00	2024-11-06T09:00:00	8	Radiación solar	391
71497	7	Sololá	702	San José Chacayá	5	Chacayá	1	Enero	2023-08-01T00:00:00	2024-11-06T10:00:00	2	Temperatura media	21.3
71498	7	Sololá	702	San José Chacayá	5	Chacayá	1	Enero	2023-08-01T00:00:00	2024-11-06T10:00:00	4	Temperatura máxima	21.3
71499	7	Sololá	702	San José Chacayá	5	Chacayá	1	Enero	2023-08-01T00:00:00	2024-11-06T10:00:00	3	Temperatura mínima	18.7
71500	7	Sololá	702	San José Chacayá	5	Chacayá	1	Enero	2023-08-01T00:00:00	2024-11-06T10:00:00	5	Humedad	53
71501	7	Sololá	702	San José Chacayá	5	Chacayá	1	Enero	2023-08-01T00:00:00	2024-11-06T10:00:00	6	Velocidad del viento	4.8
71502	7	Sololá	702	San José Chacayá	5	Chacayá	1	Enero	2023-08-01T00:00:00	2024-11-06T10:00:00	7	Dirección del viento	4.83
71503	7	Sololá	702	San José Chacayá	5	Chacayá	1	Enero	2023-08-01T00:00:00	2024-11-06T10:00:00	1	Precipitación	0
71504	7	Sololá	702	San José Chacayá	5	Chacayá	1	Enero	2023-08-01T00:00:00	2024-11-06T10:00:00	8	Radiación solar	509
71505	7	Sololá	702	San José Chacayá	5	Chacayá	1	Enero	2023-08-01T00:00:00	2024-11-06T11:00:00	2	Temperatura media	21.8
71506	7	Sololá	702	San José Chacayá	5	Chacayá	1	Enero	2023-08-01T00:00:00	2024-11-06T11:00:00	4	Temperatura máxima	22.2
71507	7	Sololá	702	San José Chacayá	5	Chacayá	1	Enero	2023-08-01T00:00:00	2024-11-06T11:00:00	3	Temperatura mínima	21.3
71508	7	Sololá	702	San José Chacayá	5	Chacayá	1	Enero	2023-08-01T00:00:00	2024-11-06T11:00:00	5	Humedad	53
71509	7	Sololá	702	San José Chacayá	5	Chacayá	1	Enero	2023-08-01T00:00:00	2024-11-06T11:00:00	6	Velocidad del viento	4.8
71510	7	Sololá	702	San José Chacayá	5	Chacayá	1	Enero	2023-08-01T00:00:00	2024-11-06T11:00:00	7	Dirección del viento	4.83
71511	7	Sololá	702	San José Chacayá	5	Chacayá	1	Enero	2023-08-01T00:00:00	2024-11-06T11:00:00	1	Precipitación	0
71512	7	Sololá	702	San José Chacayá	5	Chacayá	1	Enero	2023-08-01T00:00:00	2024-11-06T11:00:00	8	Radiación solar	355
71513	7	Sololá	702	San José Chacayá	5	Chacayá	1	Enero	2023-08-01T00:00:00	2024-11-06T12:00:00	2	Temperatura media	20.6
71514	7	Sololá	702	San José Chacayá	5	Chacayá	1	Enero	2023-08-01T00:00:00	2024-11-06T12:00:00	4	Temperatura máxima	21.9
71515	7	Sololá	702	San José Chacayá	5	Chacayá	1	Enero	2023-08-01T00:00:00	2024-11-06T12:00:00	3	Temperatura mínima	19.5
71516	7	Sololá	702	San José Chacayá	5	Chacayá	1	Enero	2023-08-01T00:00:00	2024-11-06T12:00:00	5	Humedad	60
71517	7	Sololá	702	San José Chacayá	5	Chacayá	1	Enero	2023-08-01T00:00:00	2024-11-06T12:00:00	6	Velocidad del viento	4.8
71518	7	Sololá	702	San José Chacayá	5	Chacayá	1	Enero	2023-08-01T00:00:00	2024-11-06T12:00:00	7	Dirección del viento	4.83
71519	7	Sololá	702	San José Chacayá	5	Chacayá	1	Enero	2023-08-01T00:00:00	2024-11-06T12:00:00	1	Precipitación	0
71520	7	Sololá	702	San José Chacayá	5	Chacayá	1	Enero	2023-08-01T00:00:00	2024-11-06T12:00:00	8	Radiación solar	477
71521	7	Sololá	702	San José Chacayá	5	Chacayá	1	Enero	2023-08-01T00:00:00	2024-11-06T13:00:00	2	Temperatura media	17.8
71522	7	Sololá	702	San José Chacayá	5	Chacayá	1	Enero	2023-08-01T00:00:00	2024-11-06T13:00:00	4	Temperatura máxima	20.6
71523	7	Sololá	702	San José Chacayá	5	Chacayá	1	Enero	2023-08-01T00:00:00	2024-11-06T13:00:00	3	Temperatura mínima	17.8
71524	7	Sololá	702	San José Chacayá	5	Chacayá	1	Enero	2023-08-01T00:00:00	2024-11-06T13:00:00	5	Humedad	74
71525	7	Sololá	702	San José Chacayá	5	Chacayá	1	Enero	2023-08-01T00:00:00	2024-11-06T13:00:00	6	Velocidad del viento	6.4
71526	7	Sololá	702	San José Chacayá	5	Chacayá	1	Enero	2023-08-01T00:00:00	2024-11-06T13:00:00	7	Dirección del viento	6.44
71527	7	Sololá	702	San José Chacayá	5	Chacayá	1	Enero	2023-08-01T00:00:00	2024-11-06T13:00:00	1	Precipitación	0
71528	7	Sololá	702	San José Chacayá	5	Chacayá	1	Enero	2023-08-01T00:00:00	2024-11-06T13:00:00	8	Radiación solar	512
71529	7	Sololá	702	San José Chacayá	5	Chacayá	1	Enero	2023-08-01T00:00:00	2024-11-06T14:00:00	2	Temperatura media	18.2
71530	7	Sololá	702	San José Chacayá	5	Chacayá	1	Enero	2023-08-01T00:00:00	2024-11-06T14:00:00	4	Temperatura máxima	19.1
71531	7	Sololá	702	San José Chacayá	5	Chacayá	1	Enero	2023-08-01T00:00:00	2024-11-06T14:00:00	3	Temperatura mínima	17.6
71532	7	Sololá	702	San José Chacayá	5	Chacayá	1	Enero	2023-08-01T00:00:00	2024-11-06T14:00:00	5	Humedad	74
71533	7	Sololá	702	San José Chacayá	5	Chacayá	1	Enero	2023-08-01T00:00:00	2024-11-06T14:00:00	6	Velocidad del viento	4.8
71534	7	Sololá	702	San José Chacayá	5	Chacayá	1	Enero	2023-08-01T00:00:00	2024-11-06T14:00:00	7	Dirección del viento	4.83
71535	7	Sololá	702	San José Chacayá	5	Chacayá	1	Enero	2023-08-01T00:00:00	2024-11-06T14:00:00	1	Precipitación	0
71536	7	Sololá	702	San José Chacayá	5	Chacayá	1	Enero	2023-08-01T00:00:00	2024-11-06T14:00:00	8	Radiación solar	675
71537	7	Sololá	702	San José Chacayá	5	Chacayá	1	Enero	2023-08-01T00:00:00	2024-11-06T15:00:00	2	Temperatura media	16.4
71538	7	Sololá	702	San José Chacayá	5	Chacayá	1	Enero	2023-08-01T00:00:00	2024-11-06T15:00:00	4	Temperatura máxima	18.2
71539	7	Sololá	702	San José Chacayá	5	Chacayá	1	Enero	2023-08-01T00:00:00	2024-11-06T15:00:00	3	Temperatura mínima	16.4
71540	7	Sololá	702	San José Chacayá	5	Chacayá	1	Enero	2023-08-01T00:00:00	2024-11-06T15:00:00	5	Humedad	85
71541	7	Sololá	702	San José Chacayá	5	Chacayá	1	Enero	2023-08-01T00:00:00	2024-11-06T15:00:00	6	Velocidad del viento	3.2
71542	7	Sololá	702	San José Chacayá	5	Chacayá	1	Enero	2023-08-01T00:00:00	2024-11-06T15:00:00	7	Dirección del viento	3.22
71543	7	Sololá	702	San José Chacayá	5	Chacayá	1	Enero	2023-08-01T00:00:00	2024-11-06T15:00:00	1	Precipitación	0.2
71544	7	Sololá	702	San José Chacayá	5	Chacayá	1	Enero	2023-08-01T00:00:00	2024-11-06T15:00:00	8	Radiación solar	434
71545	7	Sololá	702	San José Chacayá	5	Chacayá	1	Enero	2023-08-01T00:00:00	2024-11-06T16:00:00	2	Temperatura media	14.6
71546	7	Sololá	702	San José Chacayá	5	Chacayá	1	Enero	2023-08-01T00:00:00	2024-11-06T16:00:00	4	Temperatura máxima	16.4
71547	7	Sololá	702	San José Chacayá	5	Chacayá	1	Enero	2023-08-01T00:00:00	2024-11-06T16:00:00	3	Temperatura mínima	14.6
71548	7	Sololá	702	San José Chacayá	5	Chacayá	1	Enero	2023-08-01T00:00:00	2024-11-06T16:00:00	5	Humedad	92
71549	7	Sololá	702	San José Chacayá	5	Chacayá	1	Enero	2023-08-01T00:00:00	2024-11-06T16:00:00	6	Velocidad del viento	0
71550	7	Sololá	702	San José Chacayá	5	Chacayá	1	Enero	2023-08-01T00:00:00	2024-11-06T16:00:00	7	Dirección del viento	0
71551	7	Sololá	702	San José Chacayá	5	Chacayá	1	Enero	2023-08-01T00:00:00	2024-11-06T16:00:00	1	Precipitación	1.2
71552	7	Sololá	702	San José Chacayá	5	Chacayá	1	Enero	2023-08-01T00:00:00	2024-11-06T16:00:00	8	Radiación solar	125
71553	7	Sololá	702	San José Chacayá	5	Chacayá	1	Enero	2023-08-01T00:00:00	2024-11-06T17:00:00	2	Temperatura media	14.2
71554	7	Sololá	702	San José Chacayá	5	Chacayá	1	Enero	2023-08-01T00:00:00	2024-11-06T17:00:00	4	Temperatura máxima	14.7
71555	7	Sololá	702	San José Chacayá	5	Chacayá	1	Enero	2023-08-01T00:00:00	2024-11-06T17:00:00	3	Temperatura mínima	14.1
71556	7	Sololá	702	San José Chacayá	5	Chacayá	1	Enero	2023-08-01T00:00:00	2024-11-06T17:00:00	5	Humedad	94
71557	7	Sololá	702	San José Chacayá	5	Chacayá	1	Enero	2023-08-01T00:00:00	2024-11-06T17:00:00	6	Velocidad del viento	0
71558	7	Sololá	702	San José Chacayá	5	Chacayá	1	Enero	2023-08-01T00:00:00	2024-11-06T17:00:00	7	Dirección del viento	0
71559	7	Sololá	702	San José Chacayá	5	Chacayá	1	Enero	2023-08-01T00:00:00	2024-11-06T17:00:00	1	Precipitación	0
71560	7	Sololá	702	San José Chacayá	5	Chacayá	1	Enero	2023-08-01T00:00:00	2024-11-06T17:00:00	8	Radiación solar	31
71561	7	Sololá	702	San José Chacayá	5	Chacayá	1	Enero	2023-08-01T00:00:00	2024-11-06T18:00:00	2	Temperatura media	12.8
71562	7	Sololá	702	San José Chacayá	5	Chacayá	1	Enero	2023-08-01T00:00:00	2024-11-06T18:00:00	4	Temperatura máxima	14.2
71563	7	Sololá	702	San José Chacayá	5	Chacayá	1	Enero	2023-08-01T00:00:00	2024-11-06T18:00:00	3	Temperatura mínima	12.8
71564	7	Sololá	702	San José Chacayá	5	Chacayá	1	Enero	2023-08-01T00:00:00	2024-11-06T18:00:00	5	Humedad	93
71565	7	Sololá	702	San José Chacayá	5	Chacayá	1	Enero	2023-08-01T00:00:00	2024-11-06T18:00:00	6	Velocidad del viento	0
71566	7	Sololá	702	San José Chacayá	5	Chacayá	1	Enero	2023-08-01T00:00:00	2024-11-06T18:00:00	7	Dirección del viento	0
71567	7	Sololá	702	San José Chacayá	5	Chacayá	1	Enero	2023-08-01T00:00:00	2024-11-06T18:00:00	1	Precipitación	0
71568	7	Sololá	702	San José Chacayá	5	Chacayá	1	Enero	2023-08-01T00:00:00	2024-11-06T18:00:00	8	Radiación solar	14
71569	7	Sololá	702	San José Chacayá	5	Chacayá	1	Enero	2023-08-01T00:00:00	2024-11-06T19:00:00	2	Temperatura media	12.5
71570	7	Sololá	702	San José Chacayá	5	Chacayá	1	Enero	2023-08-01T00:00:00	2024-11-06T19:00:00	4	Temperatura máxima	12.8
71571	7	Sololá	702	San José Chacayá	5	Chacayá	1	Enero	2023-08-01T00:00:00	2024-11-06T19:00:00	3	Temperatura mínima	12.3
71572	7	Sololá	702	San José Chacayá	5	Chacayá	1	Enero	2023-08-01T00:00:00	2024-11-06T19:00:00	5	Humedad	89
71573	7	Sololá	702	San José Chacayá	5	Chacayá	1	Enero	2023-08-01T00:00:00	2024-11-06T19:00:00	6	Velocidad del viento	1.6
71574	7	Sololá	702	San José Chacayá	5	Chacayá	1	Enero	2023-08-01T00:00:00	2024-11-06T19:00:00	7	Dirección del viento	1.61
71575	7	Sololá	702	San José Chacayá	5	Chacayá	1	Enero	2023-08-01T00:00:00	2024-11-06T19:00:00	1	Precipitación	0
71576	7	Sololá	702	San José Chacayá	5	Chacayá	1	Enero	2023-08-01T00:00:00	2024-11-06T19:00:00	8	Radiación solar	0
71577	7	Sololá	702	San José Chacayá	5	Chacayá	1	Enero	2023-08-01T00:00:00	2024-11-06T20:00:00	2	Temperatura media	12.7
71578	7	Sololá	702	San José Chacayá	5	Chacayá	1	Enero	2023-08-01T00:00:00	2024-11-06T20:00:00	4	Temperatura máxima	13
71579	7	Sololá	702	San José Chacayá	5	Chacayá	1	Enero	2023-08-01T00:00:00	2024-11-06T20:00:00	3	Temperatura mínima	12.5
71580	7	Sololá	702	San José Chacayá	5	Chacayá	1	Enero	2023-08-01T00:00:00	2024-11-06T20:00:00	5	Humedad	87
71581	7	Sololá	702	San José Chacayá	5	Chacayá	1	Enero	2023-08-01T00:00:00	2024-11-06T20:00:00	6	Velocidad del viento	4.8
71582	7	Sololá	702	San José Chacayá	5	Chacayá	1	Enero	2023-08-01T00:00:00	2024-11-06T20:00:00	7	Dirección del viento	4.83
71583	7	Sololá	702	San José Chacayá	5	Chacayá	1	Enero	2023-08-01T00:00:00	2024-11-06T20:00:00	1	Precipitación	0
71584	7	Sololá	702	San José Chacayá	5	Chacayá	1	Enero	2023-08-01T00:00:00	2024-11-06T20:00:00	8	Radiación solar	0
71585	7	Sololá	702	San José Chacayá	5	Chacayá	1	Enero	2023-08-01T00:00:00	2024-11-06T21:00:00	2	Temperatura media	12.2
71586	7	Sololá	702	San José Chacayá	5	Chacayá	1	Enero	2023-08-01T00:00:00	2024-11-06T21:00:00	4	Temperatura máxima	12.8
71587	7	Sololá	702	San José Chacayá	5	Chacayá	1	Enero	2023-08-01T00:00:00	2024-11-06T21:00:00	3	Temperatura mínima	12.2
71588	7	Sololá	702	San José Chacayá	5	Chacayá	1	Enero	2023-08-01T00:00:00	2024-11-06T21:00:00	5	Humedad	84
71589	7	Sololá	702	San José Chacayá	5	Chacayá	1	Enero	2023-08-01T00:00:00	2024-11-06T21:00:00	6	Velocidad del viento	3.2
71590	7	Sololá	702	San José Chacayá	5	Chacayá	1	Enero	2023-08-01T00:00:00	2024-11-06T21:00:00	7	Dirección del viento	3.22
71591	7	Sololá	702	San José Chacayá	5	Chacayá	1	Enero	2023-08-01T00:00:00	2024-11-06T21:00:00	1	Precipitación	0
71592	7	Sololá	702	San José Chacayá	5	Chacayá	1	Enero	2023-08-01T00:00:00	2024-11-06T21:00:00	8	Radiación solar	0
71593	7	Sololá	702	San José Chacayá	5	Chacayá	1	Enero	2023-08-01T00:00:00	2024-11-06T22:00:00	2	Temperatura media	9.4
71594	7	Sololá	702	San José Chacayá	5	Chacayá	1	Enero	2023-08-01T00:00:00	2024-11-06T22:00:00	4	Temperatura máxima	12.2
71595	7	Sololá	702	San José Chacayá	5	Chacayá	1	Enero	2023-08-01T00:00:00	2024-11-06T22:00:00	3	Temperatura mínima	9.4
71596	7	Sololá	702	San José Chacayá	5	Chacayá	1	Enero	2023-08-01T00:00:00	2024-11-06T22:00:00	5	Humedad	91
71597	7	Sololá	702	San José Chacayá	5	Chacayá	1	Enero	2023-08-01T00:00:00	2024-11-06T22:00:00	6	Velocidad del viento	1.6
71598	7	Sololá	702	San José Chacayá	5	Chacayá	1	Enero	2023-08-01T00:00:00	2024-11-06T22:00:00	7	Dirección del viento	1.61
71599	7	Sololá	702	San José Chacayá	5	Chacayá	1	Enero	2023-08-01T00:00:00	2024-11-06T22:00:00	1	Precipitación	0
71600	7	Sololá	702	San José Chacayá	5	Chacayá	1	Enero	2023-08-01T00:00:00	2024-11-06T22:00:00	8	Radiación solar	0
71601	7	Sololá	702	San José Chacayá	5	Chacayá	1	Enero	2023-08-01T00:00:00	2024-11-06T23:00:00	2	Temperatura media	8.2
71602	7	Sololá	702	San José Chacayá	5	Chacayá	1	Enero	2023-08-01T00:00:00	2024-11-06T23:00:00	4	Temperatura máxima	9.4
71603	7	Sololá	702	San José Chacayá	5	Chacayá	1	Enero	2023-08-01T00:00:00	2024-11-06T23:00:00	3	Temperatura mínima	8.2
71604	7	Sololá	702	San José Chacayá	5	Chacayá	1	Enero	2023-08-01T00:00:00	2024-11-06T23:00:00	5	Humedad	93
71605	7	Sololá	702	San José Chacayá	5	Chacayá	1	Enero	2023-08-01T00:00:00	2024-11-06T23:00:00	6	Velocidad del viento	1.6
71606	7	Sololá	702	San José Chacayá	5	Chacayá	1	Enero	2023-08-01T00:00:00	2024-11-06T23:00:00	7	Dirección del viento	1.61
71607	7	Sololá	702	San José Chacayá	5	Chacayá	1	Enero	2023-08-01T00:00:00	2024-11-06T23:00:00	1	Precipitación	0
71608	7	Sololá	702	San José Chacayá	5	Chacayá	1	Enero	2023-08-01T00:00:00	2024-11-06T23:00:00	8	Radiación solar	0
71609	7	Sololá	702	San José Chacayá	5	Chacayá	1	Enero	2023-09-01T00:00:00	2024-11-06T00:00:00	2	Temperatura media	7.8
71610	7	Sololá	702	San José Chacayá	5	Chacayá	1	Enero	2023-09-01T00:00:00	2024-11-06T00:00:00	4	Temperatura máxima	8.3
71611	7	Sololá	702	San José Chacayá	5	Chacayá	1	Enero	2023-09-01T00:00:00	2024-11-06T00:00:00	3	Temperatura mínima	7.8
71612	7	Sololá	702	San José Chacayá	5	Chacayá	1	Enero	2023-09-01T00:00:00	2024-11-06T00:00:00	5	Humedad	93
71613	7	Sololá	702	San José Chacayá	5	Chacayá	1	Enero	2023-09-01T00:00:00	2024-11-06T00:00:00	6	Velocidad del viento	1.6
71614	7	Sololá	702	San José Chacayá	5	Chacayá	1	Enero	2023-09-01T00:00:00	2024-11-06T00:00:00	7	Dirección del viento	1.61
71615	7	Sololá	702	San José Chacayá	5	Chacayá	1	Enero	2023-09-01T00:00:00	2024-11-06T00:00:00	1	Precipitación	0
71616	7	Sololá	702	San José Chacayá	5	Chacayá	1	Enero	2023-09-01T00:00:00	2024-11-06T00:00:00	8	Radiación solar	0
71617	7	Sololá	702	San José Chacayá	5	Chacayá	1	Enero	2023-09-01T00:00:00	2024-11-06T01:00:00	2	Temperatura media	7.4
71618	7	Sololá	702	San José Chacayá	5	Chacayá	1	Enero	2023-09-01T00:00:00	2024-11-06T01:00:00	4	Temperatura máxima	7.9
71619	7	Sololá	702	San José Chacayá	5	Chacayá	1	Enero	2023-09-01T00:00:00	2024-11-06T01:00:00	3	Temperatura mínima	7.3
71620	7	Sololá	702	San José Chacayá	5	Chacayá	1	Enero	2023-09-01T00:00:00	2024-11-06T01:00:00	5	Humedad	93
71621	7	Sololá	702	San José Chacayá	5	Chacayá	1	Enero	2023-09-01T00:00:00	2024-11-06T01:00:00	6	Velocidad del viento	1.6
71622	7	Sololá	702	San José Chacayá	5	Chacayá	1	Enero	2023-09-01T00:00:00	2024-11-06T01:00:00	7	Dirección del viento	1.61
71623	7	Sololá	702	San José Chacayá	5	Chacayá	1	Enero	2023-09-01T00:00:00	2024-11-06T01:00:00	1	Precipitación	0
71624	7	Sololá	702	San José Chacayá	5	Chacayá	1	Enero	2023-09-01T00:00:00	2024-11-06T01:00:00	8	Radiación solar	0
71625	7	Sololá	702	San José Chacayá	5	Chacayá	1	Enero	2023-09-01T00:00:00	2024-11-06T02:00:00	2	Temperatura media	7.3
71626	7	Sololá	702	San José Chacayá	5	Chacayá	1	Enero	2023-09-01T00:00:00	2024-11-06T02:00:00	4	Temperatura máxima	7.6
71627	7	Sololá	702	San José Chacayá	5	Chacayá	1	Enero	2023-09-01T00:00:00	2024-11-06T02:00:00	3	Temperatura mínima	7.3
71628	7	Sololá	702	San José Chacayá	5	Chacayá	1	Enero	2023-09-01T00:00:00	2024-11-06T02:00:00	5	Humedad	92
71629	7	Sololá	702	San José Chacayá	5	Chacayá	1	Enero	2023-09-01T00:00:00	2024-11-06T02:00:00	6	Velocidad del viento	1.6
71630	7	Sololá	702	San José Chacayá	5	Chacayá	1	Enero	2023-09-01T00:00:00	2024-11-06T02:00:00	7	Dirección del viento	1.61
71631	7	Sololá	702	San José Chacayá	5	Chacayá	1	Enero	2023-09-01T00:00:00	2024-11-06T02:00:00	1	Precipitación	0
71632	7	Sololá	702	San José Chacayá	5	Chacayá	1	Enero	2023-09-01T00:00:00	2024-11-06T02:00:00	8	Radiación solar	0
71633	7	Sololá	702	San José Chacayá	5	Chacayá	1	Enero	2023-09-01T00:00:00	2024-11-06T03:00:00	2	Temperatura media	6.9
71634	7	Sololá	702	San José Chacayá	5	Chacayá	1	Enero	2023-09-01T00:00:00	2024-11-06T03:00:00	4	Temperatura máxima	7.4
71635	7	Sololá	702	San José Chacayá	5	Chacayá	1	Enero	2023-09-01T00:00:00	2024-11-06T03:00:00	3	Temperatura mínima	6.9
71636	7	Sololá	702	San José Chacayá	5	Chacayá	1	Enero	2023-09-01T00:00:00	2024-11-06T03:00:00	5	Humedad	92
71637	7	Sololá	702	San José Chacayá	5	Chacayá	1	Enero	2023-09-01T00:00:00	2024-11-06T03:00:00	6	Velocidad del viento	1.6
71638	7	Sololá	702	San José Chacayá	5	Chacayá	1	Enero	2023-09-01T00:00:00	2024-11-06T03:00:00	7	Dirección del viento	1.61
71639	7	Sololá	702	San José Chacayá	5	Chacayá	1	Enero	2023-09-01T00:00:00	2024-11-06T03:00:00	1	Precipitación	0
71640	7	Sololá	702	San José Chacayá	5	Chacayá	1	Enero	2023-09-01T00:00:00	2024-11-06T03:00:00	8	Radiación solar	0
71641	7	Sololá	702	San José Chacayá	5	Chacayá	1	Enero	2023-09-01T00:00:00	2024-11-06T04:00:00	2	Temperatura media	6.6
71642	7	Sololá	702	San José Chacayá	5	Chacayá	1	Enero	2023-09-01T00:00:00	2024-11-06T04:00:00	4	Temperatura máxima	6.9
71643	7	Sololá	702	San José Chacayá	5	Chacayá	1	Enero	2023-09-01T00:00:00	2024-11-06T04:00:00	3	Temperatura mínima	6.6
71644	7	Sololá	702	San José Chacayá	5	Chacayá	1	Enero	2023-09-01T00:00:00	2024-11-06T04:00:00	5	Humedad	93
71645	7	Sololá	702	San José Chacayá	5	Chacayá	1	Enero	2023-09-01T00:00:00	2024-11-06T04:00:00	6	Velocidad del viento	1.6
71646	7	Sololá	702	San José Chacayá	5	Chacayá	1	Enero	2023-09-01T00:00:00	2024-11-06T04:00:00	7	Dirección del viento	1.61
71647	7	Sololá	702	San José Chacayá	5	Chacayá	1	Enero	2023-09-01T00:00:00	2024-11-06T04:00:00	1	Precipitación	0
71648	7	Sololá	702	San José Chacayá	5	Chacayá	1	Enero	2023-09-01T00:00:00	2024-11-06T04:00:00	8	Radiación solar	0
71649	7	Sololá	702	San José Chacayá	5	Chacayá	1	Enero	2023-09-01T00:00:00	2024-11-06T05:00:00	2	Temperatura media	6.4
71650	7	Sololá	702	San José Chacayá	5	Chacayá	1	Enero	2023-09-01T00:00:00	2024-11-06T05:00:00	4	Temperatura máxima	6.7
71651	7	Sololá	702	San José Chacayá	5	Chacayá	1	Enero	2023-09-01T00:00:00	2024-11-06T05:00:00	3	Temperatura mínima	6.3
71652	7	Sololá	702	San José Chacayá	5	Chacayá	1	Enero	2023-09-01T00:00:00	2024-11-06T05:00:00	5	Humedad	93
71653	7	Sololá	702	San José Chacayá	5	Chacayá	1	Enero	2023-09-01T00:00:00	2024-11-06T05:00:00	6	Velocidad del viento	1.6
71654	7	Sololá	702	San José Chacayá	5	Chacayá	1	Enero	2023-09-01T00:00:00	2024-11-06T05:00:00	7	Dirección del viento	1.61
71655	7	Sololá	702	San José Chacayá	5	Chacayá	1	Enero	2023-09-01T00:00:00	2024-11-06T05:00:00	1	Precipitación	0
71656	7	Sololá	702	San José Chacayá	5	Chacayá	1	Enero	2023-09-01T00:00:00	2024-11-06T05:00:00	8	Radiación solar	0
71657	7	Sololá	702	San José Chacayá	5	Chacayá	1	Enero	2023-09-01T00:00:00	2024-11-06T06:00:00	2	Temperatura media	7.3
71658	7	Sololá	702	San José Chacayá	5	Chacayá	1	Enero	2023-09-01T00:00:00	2024-11-06T06:00:00	4	Temperatura máxima	7.3
71659	7	Sololá	702	San José Chacayá	5	Chacayá	1	Enero	2023-09-01T00:00:00	2024-11-06T06:00:00	3	Temperatura mínima	6.3
71660	7	Sololá	702	San José Chacayá	5	Chacayá	1	Enero	2023-09-01T00:00:00	2024-11-06T06:00:00	5	Humedad	91
71661	7	Sololá	702	San José Chacayá	5	Chacayá	1	Enero	2023-09-01T00:00:00	2024-11-06T06:00:00	6	Velocidad del viento	1.6
71662	7	Sololá	702	San José Chacayá	5	Chacayá	1	Enero	2023-09-01T00:00:00	2024-11-06T06:00:00	7	Dirección del viento	1.61
71663	7	Sololá	702	San José Chacayá	5	Chacayá	1	Enero	2023-09-01T00:00:00	2024-11-06T06:00:00	1	Precipitación	0
71664	7	Sololá	702	San José Chacayá	5	Chacayá	1	Enero	2023-09-01T00:00:00	2024-11-06T06:00:00	8	Radiación solar	0
71665	7	Sololá	702	San José Chacayá	5	Chacayá	1	Enero	2023-09-01T00:00:00	2024-11-06T07:00:00	2	Temperatura media	11.4
71666	7	Sololá	702	San José Chacayá	5	Chacayá	1	Enero	2023-09-01T00:00:00	2024-11-06T07:00:00	4	Temperatura máxima	11.4
71667	7	Sololá	702	San José Chacayá	5	Chacayá	1	Enero	2023-09-01T00:00:00	2024-11-06T07:00:00	3	Temperatura mínima	7.3
71668	7	Sololá	702	San José Chacayá	5	Chacayá	1	Enero	2023-09-01T00:00:00	2024-11-06T07:00:00	5	Humedad	84
71669	7	Sololá	702	San José Chacayá	5	Chacayá	1	Enero	2023-09-01T00:00:00	2024-11-06T07:00:00	6	Velocidad del viento	3.2
71670	7	Sololá	702	San José Chacayá	5	Chacayá	1	Enero	2023-09-01T00:00:00	2024-11-06T07:00:00	7	Dirección del viento	3.22
71671	7	Sololá	702	San José Chacayá	5	Chacayá	1	Enero	2023-09-01T00:00:00	2024-11-06T07:00:00	1	Precipitación	0
71672	7	Sololá	702	San José Chacayá	5	Chacayá	1	Enero	2023-09-01T00:00:00	2024-11-06T07:00:00	8	Radiación solar	9
71673	7	Sololá	702	San José Chacayá	5	Chacayá	1	Enero	2023-09-01T00:00:00	2024-11-06T08:00:00	2	Temperatura media	17.5
71674	7	Sololá	702	San José Chacayá	5	Chacayá	1	Enero	2023-09-01T00:00:00	2024-11-06T08:00:00	4	Temperatura máxima	17.5
71675	7	Sololá	702	San José Chacayá	5	Chacayá	1	Enero	2023-09-01T00:00:00	2024-11-06T08:00:00	3	Temperatura mínima	11.4
71676	7	Sololá	702	San José Chacayá	5	Chacayá	1	Enero	2023-09-01T00:00:00	2024-11-06T08:00:00	5	Humedad	66
71677	7	Sololá	702	San José Chacayá	5	Chacayá	1	Enero	2023-09-01T00:00:00	2024-11-06T08:00:00	6	Velocidad del viento	3.2
71678	7	Sololá	702	San José Chacayá	5	Chacayá	1	Enero	2023-09-01T00:00:00	2024-11-06T08:00:00	7	Dirección del viento	3.22
71679	7	Sololá	702	San José Chacayá	5	Chacayá	1	Enero	2023-09-01T00:00:00	2024-11-06T08:00:00	1	Precipitación	0
71680	7	Sololá	702	San José Chacayá	5	Chacayá	1	Enero	2023-09-01T00:00:00	2024-11-06T08:00:00	8	Radiación solar	190
71681	7	Sololá	702	San José Chacayá	5	Chacayá	1	Enero	2023-09-01T00:00:00	2024-11-06T09:00:00	2	Temperatura media	19.3
71682	7	Sololá	702	San José Chacayá	5	Chacayá	1	Enero	2023-09-01T00:00:00	2024-11-06T09:00:00	4	Temperatura máxima	19.3
71683	7	Sololá	702	San José Chacayá	5	Chacayá	1	Enero	2023-09-01T00:00:00	2024-11-06T09:00:00	3	Temperatura mínima	17.5
71684	7	Sololá	702	San José Chacayá	5	Chacayá	1	Enero	2023-09-01T00:00:00	2024-11-06T09:00:00	5	Humedad	60
71685	7	Sololá	702	San José Chacayá	5	Chacayá	1	Enero	2023-09-01T00:00:00	2024-11-06T09:00:00	6	Velocidad del viento	4.8
71686	7	Sololá	702	San José Chacayá	5	Chacayá	1	Enero	2023-09-01T00:00:00	2024-11-06T09:00:00	7	Dirección del viento	4.83
71687	7	Sololá	702	San José Chacayá	5	Chacayá	1	Enero	2023-09-01T00:00:00	2024-11-06T09:00:00	1	Precipitación	0
71688	7	Sololá	702	San José Chacayá	5	Chacayá	1	Enero	2023-09-01T00:00:00	2024-11-06T09:00:00	8	Radiación solar	394
71689	7	Sololá	702	San José Chacayá	5	Chacayá	1	Enero	2023-09-01T00:00:00	2024-11-06T10:00:00	2	Temperatura media	20.9
71690	7	Sololá	702	San José Chacayá	5	Chacayá	1	Enero	2023-09-01T00:00:00	2024-11-06T10:00:00	4	Temperatura máxima	20.9
71691	7	Sololá	702	San José Chacayá	5	Chacayá	1	Enero	2023-09-01T00:00:00	2024-11-06T10:00:00	3	Temperatura mínima	19.3
71692	7	Sololá	702	San José Chacayá	5	Chacayá	1	Enero	2023-09-01T00:00:00	2024-11-06T10:00:00	5	Humedad	55
71693	7	Sololá	702	San José Chacayá	5	Chacayá	1	Enero	2023-09-01T00:00:00	2024-11-06T10:00:00	6	Velocidad del viento	4.8
71694	7	Sololá	702	San José Chacayá	5	Chacayá	1	Enero	2023-09-01T00:00:00	2024-11-06T10:00:00	7	Dirección del viento	4.83
71695	7	Sololá	702	San José Chacayá	5	Chacayá	1	Enero	2023-09-01T00:00:00	2024-11-06T10:00:00	1	Precipitación	0
71696	7	Sololá	702	San José Chacayá	5	Chacayá	1	Enero	2023-09-01T00:00:00	2024-11-06T10:00:00	8	Radiación solar	83
71697	7	Sololá	702	San José Chacayá	5	Chacayá	1	Enero	2023-09-01T00:00:00	2024-11-06T11:00:00	2	Temperatura media	20.4
71698	7	Sololá	702	San José Chacayá	5	Chacayá	1	Enero	2023-09-01T00:00:00	2024-11-06T11:00:00	4	Temperatura máxima	21.3
71699	7	Sololá	702	San José Chacayá	5	Chacayá	1	Enero	2023-09-01T00:00:00	2024-11-06T11:00:00	3	Temperatura mínima	20.4
71700	7	Sololá	702	San José Chacayá	5	Chacayá	1	Enero	2023-09-01T00:00:00	2024-11-06T11:00:00	5	Humedad	58
71701	7	Sololá	702	San José Chacayá	5	Chacayá	1	Enero	2023-09-01T00:00:00	2024-11-06T11:00:00	6	Velocidad del viento	6.4
71702	7	Sololá	702	San José Chacayá	5	Chacayá	1	Enero	2023-09-01T00:00:00	2024-11-06T11:00:00	7	Dirección del viento	6.44
71703	7	Sololá	702	San José Chacayá	5	Chacayá	1	Enero	2023-09-01T00:00:00	2024-11-06T11:00:00	1	Precipitación	0
71704	7	Sololá	702	San José Chacayá	5	Chacayá	1	Enero	2023-09-01T00:00:00	2024-11-06T11:00:00	8	Radiación solar	34
71705	7	Sololá	702	San José Chacayá	5	Chacayá	1	Enero	2023-09-01T00:00:00	2024-11-06T12:00:00	2	Temperatura media	19.7
71706	7	Sololá	702	San José Chacayá	5	Chacayá	1	Enero	2023-09-01T00:00:00	2024-11-06T12:00:00	4	Temperatura máxima	20.6
71707	7	Sololá	702	San José Chacayá	5	Chacayá	1	Enero	2023-09-01T00:00:00	2024-11-06T12:00:00	3	Temperatura mínima	19.7
71708	7	Sololá	702	San José Chacayá	5	Chacayá	1	Enero	2023-09-01T00:00:00	2024-11-06T12:00:00	5	Humedad	60
71709	7	Sololá	702	San José Chacayá	5	Chacayá	1	Enero	2023-09-01T00:00:00	2024-11-06T12:00:00	6	Velocidad del viento	9.7
71710	7	Sololá	702	San José Chacayá	5	Chacayá	1	Enero	2023-09-01T00:00:00	2024-11-06T12:00:00	7	Dirección del viento	9.66
71711	7	Sololá	702	San José Chacayá	5	Chacayá	1	Enero	2023-09-01T00:00:00	2024-11-06T12:00:00	1	Precipitación	0
71712	7	Sololá	702	San José Chacayá	5	Chacayá	1	Enero	2023-09-01T00:00:00	2024-11-06T12:00:00	8	Radiación solar	727
71713	7	Sololá	702	San José Chacayá	5	Chacayá	1	Enero	2023-09-01T00:00:00	2024-11-06T13:00:00	2	Temperatura media	19.2
71714	7	Sololá	702	San José Chacayá	5	Chacayá	1	Enero	2023-09-01T00:00:00	2024-11-06T13:00:00	4	Temperatura máxima	20.8
71715	7	Sololá	702	San José Chacayá	5	Chacayá	1	Enero	2023-09-01T00:00:00	2024-11-06T13:00:00	3	Temperatura mínima	19.2
71716	7	Sololá	702	San José Chacayá	5	Chacayá	1	Enero	2023-09-01T00:00:00	2024-11-06T13:00:00	5	Humedad	70
71717	7	Sololá	702	San José Chacayá	5	Chacayá	1	Enero	2023-09-01T00:00:00	2024-11-06T13:00:00	6	Velocidad del viento	8
71718	7	Sololá	702	San José Chacayá	5	Chacayá	1	Enero	2023-09-01T00:00:00	2024-11-06T13:00:00	7	Dirección del viento	8.05
71719	7	Sololá	702	San José Chacayá	5	Chacayá	1	Enero	2023-09-01T00:00:00	2024-11-06T13:00:00	1	Precipitación	0
71720	7	Sololá	702	San José Chacayá	5	Chacayá	1	Enero	2023-09-01T00:00:00	2024-11-06T13:00:00	8	Radiación solar	840
71721	7	Sololá	702	San José Chacayá	5	Chacayá	1	Enero	2023-09-01T00:00:00	2024-11-06T14:00:00	2	Temperatura media	19.1
71722	7	Sololá	702	San José Chacayá	5	Chacayá	1	Enero	2023-09-01T00:00:00	2024-11-06T14:00:00	4	Temperatura máxima	19.8
71723	7	Sololá	702	San José Chacayá	5	Chacayá	1	Enero	2023-09-01T00:00:00	2024-11-06T14:00:00	3	Temperatura mínima	18.8
71724	7	Sololá	702	San José Chacayá	5	Chacayá	1	Enero	2023-09-01T00:00:00	2024-11-06T14:00:00	5	Humedad	69
71725	7	Sololá	702	San José Chacayá	5	Chacayá	1	Enero	2023-09-01T00:00:00	2024-11-06T14:00:00	6	Velocidad del viento	6.4
71726	7	Sololá	702	San José Chacayá	5	Chacayá	1	Enero	2023-09-01T00:00:00	2024-11-06T14:00:00	7	Dirección del viento	6.44
71727	7	Sololá	702	San José Chacayá	5	Chacayá	1	Enero	2023-09-01T00:00:00	2024-11-06T14:00:00	1	Precipitación	0
71728	7	Sololá	702	San José Chacayá	5	Chacayá	1	Enero	2023-09-01T00:00:00	2024-11-06T14:00:00	8	Radiación solar	775
71729	7	Sololá	702	San José Chacayá	5	Chacayá	1	Enero	2023-09-01T00:00:00	2024-11-06T15:00:00	2	Temperatura media	17.1
71730	7	Sololá	702	San José Chacayá	5	Chacayá	1	Enero	2023-09-01T00:00:00	2024-11-06T15:00:00	4	Temperatura máxima	19.8
71731	7	Sololá	702	San José Chacayá	5	Chacayá	1	Enero	2023-09-01T00:00:00	2024-11-06T15:00:00	3	Temperatura mínima	17.1
71732	7	Sololá	702	San José Chacayá	5	Chacayá	1	Enero	2023-09-01T00:00:00	2024-11-06T15:00:00	5	Humedad	76
71733	7	Sololá	702	San José Chacayá	5	Chacayá	1	Enero	2023-09-01T00:00:00	2024-11-06T15:00:00	6	Velocidad del viento	4.8
71734	7	Sololá	702	San José Chacayá	5	Chacayá	1	Enero	2023-09-01T00:00:00	2024-11-06T15:00:00	7	Dirección del viento	4.83
71735	7	Sololá	702	San José Chacayá	5	Chacayá	1	Enero	2023-09-01T00:00:00	2024-11-06T15:00:00	1	Precipitación	0
71736	7	Sololá	702	San José Chacayá	5	Chacayá	1	Enero	2023-09-01T00:00:00	2024-11-06T15:00:00	8	Radiación solar	633
71737	7	Sololá	702	San José Chacayá	5	Chacayá	1	Enero	2023-09-01T00:00:00	2024-11-06T16:00:00	2	Temperatura media	17.6
71738	7	Sololá	702	San José Chacayá	5	Chacayá	1	Enero	2023-09-01T00:00:00	2024-11-06T16:00:00	4	Temperatura máxima	18.6
71739	7	Sololá	702	San José Chacayá	5	Chacayá	1	Enero	2023-09-01T00:00:00	2024-11-06T16:00:00	3	Temperatura mínima	17
71740	7	Sololá	702	San José Chacayá	5	Chacayá	1	Enero	2023-09-01T00:00:00	2024-11-06T16:00:00	5	Humedad	77
71741	7	Sololá	702	San José Chacayá	5	Chacayá	1	Enero	2023-09-01T00:00:00	2024-11-06T16:00:00	6	Velocidad del viento	3.2
71742	7	Sololá	702	San José Chacayá	5	Chacayá	1	Enero	2023-09-01T00:00:00	2024-11-06T16:00:00	7	Dirección del viento	3.22
71743	7	Sololá	702	San José Chacayá	5	Chacayá	1	Enero	2023-09-01T00:00:00	2024-11-06T16:00:00	1	Precipitación	0
71744	7	Sololá	702	San José Chacayá	5	Chacayá	1	Enero	2023-09-01T00:00:00	2024-11-06T16:00:00	8	Radiación solar	442
71745	7	Sololá	702	San José Chacayá	5	Chacayá	1	Enero	2023-09-01T00:00:00	2024-11-06T17:00:00	2	Temperatura media	14.4
71746	7	Sololá	702	San José Chacayá	5	Chacayá	1	Enero	2023-09-01T00:00:00	2024-11-06T17:00:00	4	Temperatura máxima	17.6
71747	7	Sololá	702	San José Chacayá	5	Chacayá	1	Enero	2023-09-01T00:00:00	2024-11-06T17:00:00	3	Temperatura mínima	14.4
71748	7	Sololá	702	San José Chacayá	5	Chacayá	1	Enero	2023-09-01T00:00:00	2024-11-06T17:00:00	5	Humedad	90
71749	7	Sololá	702	San José Chacayá	5	Chacayá	1	Enero	2023-09-01T00:00:00	2024-11-06T17:00:00	6	Velocidad del viento	1.6
71750	7	Sololá	702	San José Chacayá	5	Chacayá	1	Enero	2023-09-01T00:00:00	2024-11-06T17:00:00	7	Dirección del viento	1.61
71751	7	Sololá	702	San José Chacayá	5	Chacayá	1	Enero	2023-09-01T00:00:00	2024-11-06T17:00:00	1	Precipitación	0
71752	7	Sololá	702	San José Chacayá	5	Chacayá	1	Enero	2023-09-01T00:00:00	2024-11-06T17:00:00	8	Radiación solar	188
71753	7	Sololá	702	San José Chacayá	5	Chacayá	1	Enero	2023-09-01T00:00:00	2024-11-06T18:00:00	2	Temperatura media	12.6
71754	7	Sololá	702	San José Chacayá	5	Chacayá	1	Enero	2023-09-01T00:00:00	2024-11-06T18:00:00	4	Temperatura máxima	14.4
71755	7	Sololá	702	San José Chacayá	5	Chacayá	1	Enero	2023-09-01T00:00:00	2024-11-06T18:00:00	3	Temperatura mínima	12.6
71756	7	Sololá	702	San José Chacayá	5	Chacayá	1	Enero	2023-09-01T00:00:00	2024-11-06T18:00:00	5	Humedad	89
71757	7	Sololá	702	San José Chacayá	5	Chacayá	1	Enero	2023-09-01T00:00:00	2024-11-06T18:00:00	6	Velocidad del viento	0
71758	7	Sololá	702	San José Chacayá	5	Chacayá	1	Enero	2023-09-01T00:00:00	2024-11-06T18:00:00	7	Dirección del viento	0
71759	7	Sololá	702	San José Chacayá	5	Chacayá	1	Enero	2023-09-01T00:00:00	2024-11-06T18:00:00	1	Precipitación	0
71760	7	Sololá	702	San José Chacayá	5	Chacayá	1	Enero	2023-09-01T00:00:00	2024-11-06T18:00:00	8	Radiación solar	13
71761	7	Sololá	702	San José Chacayá	5	Chacayá	1	Enero	2023-09-01T00:00:00	2024-11-06T19:00:00	2	Temperatura media	12.8
71762	7	Sololá	702	San José Chacayá	5	Chacayá	1	Enero	2023-09-01T00:00:00	2024-11-06T19:00:00	4	Temperatura máxima	13.1
71763	7	Sololá	702	San José Chacayá	5	Chacayá	1	Enero	2023-09-01T00:00:00	2024-11-06T19:00:00	3	Temperatura mínima	12.4
71764	7	Sololá	702	San José Chacayá	5	Chacayá	1	Enero	2023-09-01T00:00:00	2024-11-06T19:00:00	5	Humedad	84
71765	7	Sololá	702	San José Chacayá	5	Chacayá	1	Enero	2023-09-01T00:00:00	2024-11-06T19:00:00	6	Velocidad del viento	1.6
71766	7	Sololá	702	San José Chacayá	5	Chacayá	1	Enero	2023-09-01T00:00:00	2024-11-06T19:00:00	7	Dirección del viento	1.61
71767	7	Sololá	702	San José Chacayá	5	Chacayá	1	Enero	2023-09-01T00:00:00	2024-11-06T19:00:00	1	Precipitación	0
71768	7	Sololá	702	San José Chacayá	5	Chacayá	1	Enero	2023-09-01T00:00:00	2024-11-06T19:00:00	8	Radiación solar	0
71769	7	Sololá	702	San José Chacayá	5	Chacayá	1	Enero	2023-09-01T00:00:00	2024-11-06T20:00:00	2	Temperatura media	11.8
71770	7	Sololá	702	San José Chacayá	5	Chacayá	1	Enero	2023-09-01T00:00:00	2024-11-06T20:00:00	4	Temperatura máxima	12.8
71771	7	Sololá	702	San José Chacayá	5	Chacayá	1	Enero	2023-09-01T00:00:00	2024-11-06T20:00:00	3	Temperatura mínima	11.8
71772	7	Sololá	702	San José Chacayá	5	Chacayá	1	Enero	2023-09-01T00:00:00	2024-11-06T20:00:00	5	Humedad	84
71773	7	Sololá	702	San José Chacayá	5	Chacayá	1	Enero	2023-09-01T00:00:00	2024-11-06T20:00:00	6	Velocidad del viento	1.6
71774	7	Sololá	702	San José Chacayá	5	Chacayá	1	Enero	2023-09-01T00:00:00	2024-11-06T20:00:00	7	Dirección del viento	1.61
71775	7	Sololá	702	San José Chacayá	5	Chacayá	1	Enero	2023-09-01T00:00:00	2024-11-06T20:00:00	1	Precipitación	0
71776	7	Sololá	702	San José Chacayá	5	Chacayá	1	Enero	2023-09-01T00:00:00	2024-11-06T20:00:00	8	Radiación solar	0
71777	7	Sololá	702	San José Chacayá	5	Chacayá	1	Enero	2023-09-01T00:00:00	2024-11-06T21:00:00	2	Temperatura media	10.2
71778	7	Sololá	702	San José Chacayá	5	Chacayá	1	Enero	2023-09-01T00:00:00	2024-11-06T21:00:00	4	Temperatura máxima	11.8
71779	7	Sololá	702	San José Chacayá	5	Chacayá	1	Enero	2023-09-01T00:00:00	2024-11-06T21:00:00	3	Temperatura mínima	10.2
71780	7	Sololá	702	San José Chacayá	5	Chacayá	1	Enero	2023-09-01T00:00:00	2024-11-06T21:00:00	5	Humedad	89
71781	7	Sololá	702	San José Chacayá	5	Chacayá	1	Enero	2023-09-01T00:00:00	2024-11-06T21:00:00	6	Velocidad del viento	1.6
71782	7	Sololá	702	San José Chacayá	5	Chacayá	1	Enero	2023-09-01T00:00:00	2024-11-06T21:00:00	7	Dirección del viento	1.61
71783	7	Sololá	702	San José Chacayá	5	Chacayá	1	Enero	2023-09-01T00:00:00	2024-11-06T21:00:00	1	Precipitación	0
71784	7	Sololá	702	San José Chacayá	5	Chacayá	1	Enero	2023-09-01T00:00:00	2024-11-06T21:00:00	8	Radiación solar	0
71785	7	Sololá	702	San José Chacayá	5	Chacayá	1	Enero	2023-09-01T00:00:00	2024-11-06T22:00:00	2	Temperatura media	11.1
71786	7	Sololá	702	San José Chacayá	5	Chacayá	1	Enero	2023-09-01T00:00:00	2024-11-06T22:00:00	4	Temperatura máxima	11.4
71787	7	Sololá	702	San José Chacayá	5	Chacayá	1	Enero	2023-09-01T00:00:00	2024-11-06T22:00:00	3	Temperatura mínima	9.6
71788	7	Sololá	702	San José Chacayá	5	Chacayá	1	Enero	2023-09-01T00:00:00	2024-11-06T22:00:00	5	Humedad	86
71789	7	Sololá	702	San José Chacayá	5	Chacayá	1	Enero	2023-09-01T00:00:00	2024-11-06T22:00:00	6	Velocidad del viento	1.6
71790	7	Sololá	702	San José Chacayá	5	Chacayá	1	Enero	2023-09-01T00:00:00	2024-11-06T22:00:00	7	Dirección del viento	1.61
71791	7	Sololá	702	San José Chacayá	5	Chacayá	1	Enero	2023-09-01T00:00:00	2024-11-06T22:00:00	1	Precipitación	0
71792	7	Sololá	702	San José Chacayá	5	Chacayá	1	Enero	2023-09-01T00:00:00	2024-11-06T22:00:00	8	Radiación solar	0
71793	7	Sololá	702	San José Chacayá	5	Chacayá	1	Enero	2023-09-01T00:00:00	2024-11-06T23:00:00	2	Temperatura media	8.8
71794	7	Sololá	702	San José Chacayá	5	Chacayá	1	Enero	2023-09-01T00:00:00	2024-11-06T23:00:00	4	Temperatura máxima	11.1
71795	7	Sololá	702	San José Chacayá	5	Chacayá	1	Enero	2023-09-01T00:00:00	2024-11-06T23:00:00	3	Temperatura mínima	8.8
71796	7	Sololá	702	San José Chacayá	5	Chacayá	1	Enero	2023-09-01T00:00:00	2024-11-06T23:00:00	5	Humedad	91
71797	7	Sololá	702	San José Chacayá	5	Chacayá	1	Enero	2023-09-01T00:00:00	2024-11-06T23:00:00	6	Velocidad del viento	1.6
71798	7	Sololá	702	San José Chacayá	5	Chacayá	1	Enero	2023-09-01T00:00:00	2024-11-06T23:00:00	7	Dirección del viento	1.61
71799	7	Sololá	702	San José Chacayá	5	Chacayá	1	Enero	2023-09-01T00:00:00	2024-11-06T23:00:00	1	Precipitación	0
71800	7	Sololá	702	San José Chacayá	5	Chacayá	1	Enero	2023-09-01T00:00:00	2024-11-06T23:00:00	8	Radiación solar	0
71801	7	Sololá	702	San José Chacayá	5	Chacayá	1	Enero	2023-10-01T00:00:00	2024-11-06T00:00:00	2	Temperatura media	8.3
71802	7	Sololá	702	San José Chacayá	5	Chacayá	1	Enero	2023-10-01T00:00:00	2024-11-06T00:00:00	4	Temperatura máxima	8.8
71803	7	Sololá	702	San José Chacayá	5	Chacayá	1	Enero	2023-10-01T00:00:00	2024-11-06T00:00:00	3	Temperatura mínima	8.3
71804	7	Sololá	702	San José Chacayá	5	Chacayá	1	Enero	2023-10-01T00:00:00	2024-11-06T00:00:00	5	Humedad	91
71805	7	Sololá	702	San José Chacayá	5	Chacayá	1	Enero	2023-10-01T00:00:00	2024-11-06T00:00:00	6	Velocidad del viento	1.6
71806	7	Sololá	702	San José Chacayá	5	Chacayá	1	Enero	2023-10-01T00:00:00	2024-11-06T00:00:00	7	Dirección del viento	1.61
71807	7	Sololá	702	San José Chacayá	5	Chacayá	1	Enero	2023-10-01T00:00:00	2024-11-06T00:00:00	1	Precipitación	0
71808	7	Sololá	702	San José Chacayá	5	Chacayá	1	Enero	2023-10-01T00:00:00	2024-11-06T00:00:00	8	Radiación solar	0
71809	7	Sololá	702	San José Chacayá	5	Chacayá	1	Enero	2023-10-01T00:00:00	2024-11-06T01:00:00	2	Temperatura media	7.7
71810	7	Sololá	702	San José Chacayá	5	Chacayá	1	Enero	2023-10-01T00:00:00	2024-11-06T01:00:00	4	Temperatura máxima	8.4
71811	7	Sololá	702	San José Chacayá	5	Chacayá	1	Enero	2023-10-01T00:00:00	2024-11-06T01:00:00	3	Temperatura mínima	7.7
71812	7	Sololá	702	San José Chacayá	5	Chacayá	1	Enero	2023-10-01T00:00:00	2024-11-06T01:00:00	5	Humedad	92
71813	7	Sololá	702	San José Chacayá	5	Chacayá	1	Enero	2023-10-01T00:00:00	2024-11-06T01:00:00	6	Velocidad del viento	1.6
71814	7	Sololá	702	San José Chacayá	5	Chacayá	1	Enero	2023-10-01T00:00:00	2024-11-06T01:00:00	7	Dirección del viento	1.61
71815	7	Sololá	702	San José Chacayá	5	Chacayá	1	Enero	2023-10-01T00:00:00	2024-11-06T01:00:00	1	Precipitación	0
71816	7	Sololá	702	San José Chacayá	5	Chacayá	1	Enero	2023-10-01T00:00:00	2024-11-06T01:00:00	8	Radiación solar	0
71817	7	Sololá	702	San José Chacayá	5	Chacayá	1	Enero	2023-10-01T00:00:00	2024-11-06T02:00:00	2	Temperatura media	7.4
71818	7	Sololá	702	San José Chacayá	5	Chacayá	1	Enero	2023-10-01T00:00:00	2024-11-06T02:00:00	4	Temperatura máxima	7.7
71819	7	Sololá	702	San José Chacayá	5	Chacayá	1	Enero	2023-10-01T00:00:00	2024-11-06T02:00:00	3	Temperatura mínima	7.4
71820	7	Sololá	702	San José Chacayá	5	Chacayá	1	Enero	2023-10-01T00:00:00	2024-11-06T02:00:00	5	Humedad	93
71821	7	Sololá	702	San José Chacayá	5	Chacayá	1	Enero	2023-10-01T00:00:00	2024-11-06T02:00:00	6	Velocidad del viento	1.6
71822	7	Sololá	702	San José Chacayá	5	Chacayá	1	Enero	2023-10-01T00:00:00	2024-11-06T02:00:00	7	Dirección del viento	1.61
71823	7	Sololá	702	San José Chacayá	5	Chacayá	1	Enero	2023-10-01T00:00:00	2024-11-06T02:00:00	1	Precipitación	0
71824	7	Sololá	702	San José Chacayá	5	Chacayá	1	Enero	2023-10-01T00:00:00	2024-11-06T02:00:00	8	Radiación solar	0
71825	7	Sololá	702	San José Chacayá	5	Chacayá	1	Enero	2023-10-01T00:00:00	2024-11-06T03:00:00	2	Temperatura media	7.2
71826	7	Sololá	702	San José Chacayá	5	Chacayá	1	Enero	2023-10-01T00:00:00	2024-11-06T03:00:00	4	Temperatura máxima	7.4
71827	7	Sololá	702	San José Chacayá	5	Chacayá	1	Enero	2023-10-01T00:00:00	2024-11-06T03:00:00	3	Temperatura mínima	7.1
71828	7	Sololá	702	San José Chacayá	5	Chacayá	1	Enero	2023-10-01T00:00:00	2024-11-06T03:00:00	5	Humedad	93
71829	7	Sololá	702	San José Chacayá	5	Chacayá	1	Enero	2023-10-01T00:00:00	2024-11-06T03:00:00	6	Velocidad del viento	1.6
71830	7	Sololá	702	San José Chacayá	5	Chacayá	1	Enero	2023-10-01T00:00:00	2024-11-06T03:00:00	7	Dirección del viento	1.61
71831	7	Sololá	702	San José Chacayá	5	Chacayá	1	Enero	2023-10-01T00:00:00	2024-11-06T03:00:00	1	Precipitación	0
71832	7	Sololá	702	San José Chacayá	5	Chacayá	1	Enero	2023-10-01T00:00:00	2024-11-06T03:00:00	8	Radiación solar	0
71833	7	Sololá	702	San José Chacayá	5	Chacayá	1	Enero	2023-10-01T00:00:00	2024-11-06T04:00:00	2	Temperatura media	7.2
71834	7	Sololá	702	San José Chacayá	5	Chacayá	1	Enero	2023-10-01T00:00:00	2024-11-06T04:00:00	4	Temperatura máxima	7.4
71835	7	Sololá	702	San José Chacayá	5	Chacayá	1	Enero	2023-10-01T00:00:00	2024-11-06T04:00:00	3	Temperatura mínima	7.1
71836	7	Sololá	702	San José Chacayá	5	Chacayá	1	Enero	2023-10-01T00:00:00	2024-11-06T04:00:00	5	Humedad	92
71837	7	Sololá	702	San José Chacayá	5	Chacayá	1	Enero	2023-10-01T00:00:00	2024-11-06T04:00:00	6	Velocidad del viento	1.6
71838	7	Sololá	702	San José Chacayá	5	Chacayá	1	Enero	2023-10-01T00:00:00	2024-11-06T04:00:00	7	Dirección del viento	1.61
71839	7	Sololá	702	San José Chacayá	5	Chacayá	1	Enero	2023-10-01T00:00:00	2024-11-06T04:00:00	1	Precipitación	0
71840	7	Sololá	702	San José Chacayá	5	Chacayá	1	Enero	2023-10-01T00:00:00	2024-11-06T04:00:00	8	Radiación solar	0
71841	7	Sololá	702	San José Chacayá	5	Chacayá	1	Enero	2023-10-01T00:00:00	2024-11-06T05:00:00	2	Temperatura media	7.3
71842	7	Sololá	702	San José Chacayá	5	Chacayá	1	Enero	2023-10-01T00:00:00	2024-11-06T05:00:00	4	Temperatura máxima	7.4
71843	7	Sololá	702	San José Chacayá	5	Chacayá	1	Enero	2023-10-01T00:00:00	2024-11-06T05:00:00	3	Temperatura mínima	7.2
71844	7	Sololá	702	San José Chacayá	5	Chacayá	1	Enero	2023-10-01T00:00:00	2024-11-06T05:00:00	5	Humedad	91
71845	7	Sololá	702	San José Chacayá	5	Chacayá	1	Enero	2023-10-01T00:00:00	2024-11-06T05:00:00	6	Velocidad del viento	3.2
71846	7	Sololá	702	San José Chacayá	5	Chacayá	1	Enero	2023-10-01T00:00:00	2024-11-06T05:00:00	7	Dirección del viento	3.22
71847	7	Sololá	702	San José Chacayá	5	Chacayá	1	Enero	2023-10-01T00:00:00	2024-11-06T05:00:00	1	Precipitación	0
71848	7	Sololá	702	San José Chacayá	5	Chacayá	1	Enero	2023-10-01T00:00:00	2024-11-06T05:00:00	8	Radiación solar	0
71849	7	Sololá	702	San José Chacayá	5	Chacayá	1	Enero	2023-10-01T00:00:00	2024-11-06T06:00:00	2	Temperatura media	7.8
71850	7	Sololá	702	San José Chacayá	5	Chacayá	1	Enero	2023-10-01T00:00:00	2024-11-06T06:00:00	4	Temperatura máxima	7.9
71851	7	Sololá	702	San José Chacayá	5	Chacayá	1	Enero	2023-10-01T00:00:00	2024-11-06T06:00:00	3	Temperatura mínima	7.2
71852	7	Sololá	702	San José Chacayá	5	Chacayá	1	Enero	2023-10-01T00:00:00	2024-11-06T06:00:00	5	Humedad	90
71853	7	Sololá	702	San José Chacayá	5	Chacayá	1	Enero	2023-10-01T00:00:00	2024-11-06T06:00:00	6	Velocidad del viento	1.6
71854	7	Sololá	702	San José Chacayá	5	Chacayá	1	Enero	2023-10-01T00:00:00	2024-11-06T06:00:00	7	Dirección del viento	1.61
71855	7	Sololá	702	San José Chacayá	5	Chacayá	1	Enero	2023-10-01T00:00:00	2024-11-06T06:00:00	1	Precipitación	0
71856	7	Sololá	702	San José Chacayá	5	Chacayá	1	Enero	2023-10-01T00:00:00	2024-11-06T06:00:00	8	Radiación solar	0
71857	7	Sololá	702	San José Chacayá	5	Chacayá	1	Enero	2023-10-01T00:00:00	2024-11-06T07:00:00	2	Temperatura media	12.5
71858	7	Sololá	702	San José Chacayá	5	Chacayá	1	Enero	2023-10-01T00:00:00	2024-11-06T07:00:00	4	Temperatura máxima	12.5
71859	7	Sololá	702	San José Chacayá	5	Chacayá	1	Enero	2023-10-01T00:00:00	2024-11-06T07:00:00	3	Temperatura mínima	7.8
71860	7	Sololá	702	San José Chacayá	5	Chacayá	1	Enero	2023-10-01T00:00:00	2024-11-06T07:00:00	5	Humedad	81
71861	7	Sololá	702	San José Chacayá	5	Chacayá	1	Enero	2023-10-01T00:00:00	2024-11-06T07:00:00	6	Velocidad del viento	1.6
71862	7	Sololá	702	San José Chacayá	5	Chacayá	1	Enero	2023-10-01T00:00:00	2024-11-06T07:00:00	7	Dirección del viento	1.61
71863	7	Sololá	702	San José Chacayá	5	Chacayá	1	Enero	2023-10-01T00:00:00	2024-11-06T07:00:00	1	Precipitación	0
71864	7	Sololá	702	San José Chacayá	5	Chacayá	1	Enero	2023-10-01T00:00:00	2024-11-06T07:00:00	8	Radiación solar	4
71865	7	Sololá	702	San José Chacayá	5	Chacayá	1	Enero	2023-10-01T00:00:00	2024-11-06T08:00:00	2	Temperatura media	18.3
71866	7	Sololá	702	San José Chacayá	5	Chacayá	1	Enero	2023-10-01T00:00:00	2024-11-06T08:00:00	4	Temperatura máxima	18.3
71867	7	Sololá	702	San José Chacayá	5	Chacayá	1	Enero	2023-10-01T00:00:00	2024-11-06T08:00:00	3	Temperatura mínima	12.5
71868	7	Sololá	702	San José Chacayá	5	Chacayá	1	Enero	2023-10-01T00:00:00	2024-11-06T08:00:00	5	Humedad	62
71869	7	Sololá	702	San José Chacayá	5	Chacayá	1	Enero	2023-10-01T00:00:00	2024-11-06T08:00:00	6	Velocidad del viento	1.6
71870	7	Sololá	702	San José Chacayá	5	Chacayá	1	Enero	2023-10-01T00:00:00	2024-11-06T08:00:00	7	Dirección del viento	1.61
71871	7	Sololá	702	San José Chacayá	5	Chacayá	1	Enero	2023-10-01T00:00:00	2024-11-06T08:00:00	1	Precipitación	0
71872	7	Sololá	702	San José Chacayá	5	Chacayá	1	Enero	2023-10-01T00:00:00	2024-11-06T08:00:00	8	Radiación solar	104
71873	7	Sololá	702	San José Chacayá	5	Chacayá	1	Enero	2023-10-01T00:00:00	2024-11-06T09:00:00	2	Temperatura media	20.8
71874	7	Sololá	702	San José Chacayá	5	Chacayá	1	Enero	2023-10-01T00:00:00	2024-11-06T09:00:00	4	Temperatura máxima	20.8
71875	7	Sololá	702	San José Chacayá	5	Chacayá	1	Enero	2023-10-01T00:00:00	2024-11-06T09:00:00	3	Temperatura mínima	18.3
71876	7	Sololá	702	San José Chacayá	5	Chacayá	1	Enero	2023-10-01T00:00:00	2024-11-06T09:00:00	5	Humedad	54
71877	7	Sololá	702	San José Chacayá	5	Chacayá	1	Enero	2023-10-01T00:00:00	2024-11-06T09:00:00	6	Velocidad del viento	4.8
71878	7	Sololá	702	San José Chacayá	5	Chacayá	1	Enero	2023-10-01T00:00:00	2024-11-06T09:00:00	7	Dirección del viento	4.83
71879	7	Sololá	702	San José Chacayá	5	Chacayá	1	Enero	2023-10-01T00:00:00	2024-11-06T09:00:00	1	Precipitación	0
71880	7	Sololá	702	San José Chacayá	5	Chacayá	1	Enero	2023-10-01T00:00:00	2024-11-06T09:00:00	8	Radiación solar	399
71881	7	Sololá	702	San José Chacayá	5	Chacayá	1	Enero	2023-10-01T00:00:00	2024-11-06T10:00:00	2	Temperatura media	21.4
71882	7	Sololá	702	San José Chacayá	5	Chacayá	1	Enero	2023-10-01T00:00:00	2024-11-06T10:00:00	4	Temperatura máxima	21.4
71883	7	Sololá	702	San José Chacayá	5	Chacayá	1	Enero	2023-10-01T00:00:00	2024-11-06T10:00:00	3	Temperatura mínima	20.5
71884	7	Sololá	702	San José Chacayá	5	Chacayá	1	Enero	2023-10-01T00:00:00	2024-11-06T10:00:00	5	Humedad	54
71885	7	Sololá	702	San José Chacayá	5	Chacayá	1	Enero	2023-10-01T00:00:00	2024-11-06T10:00:00	6	Velocidad del viento	4.8
71886	7	Sololá	702	San José Chacayá	5	Chacayá	1	Enero	2023-10-01T00:00:00	2024-11-06T10:00:00	7	Dirección del viento	4.83
71887	7	Sololá	702	San José Chacayá	5	Chacayá	1	Enero	2023-10-01T00:00:00	2024-11-06T10:00:00	1	Precipitación	0
71888	7	Sololá	702	San José Chacayá	5	Chacayá	1	Enero	2023-10-01T00:00:00	2024-11-06T10:00:00	8	Radiación solar	668
71889	7	Sololá	702	San José Chacayá	5	Chacayá	1	Enero	2023-10-01T00:00:00	2024-11-06T11:00:00	2	Temperatura media	20.3
71890	7	Sololá	702	San José Chacayá	5	Chacayá	1	Enero	2023-10-01T00:00:00	2024-11-06T11:00:00	4	Temperatura máxima	22.8
71891	7	Sololá	702	San José Chacayá	5	Chacayá	1	Enero	2023-10-01T00:00:00	2024-11-06T11:00:00	3	Temperatura mínima	20.3
71892	7	Sololá	702	San José Chacayá	5	Chacayá	1	Enero	2023-10-01T00:00:00	2024-11-06T11:00:00	5	Humedad	58
71893	7	Sololá	702	San José Chacayá	5	Chacayá	1	Enero	2023-10-01T00:00:00	2024-11-06T11:00:00	6	Velocidad del viento	4.8
71894	7	Sololá	702	San José Chacayá	5	Chacayá	1	Enero	2023-10-01T00:00:00	2024-11-06T11:00:00	7	Dirección del viento	4.83
71895	7	Sololá	702	San José Chacayá	5	Chacayá	1	Enero	2023-10-01T00:00:00	2024-11-06T11:00:00	1	Precipitación	0
71896	7	Sololá	702	San José Chacayá	5	Chacayá	1	Enero	2023-10-01T00:00:00	2024-11-06T11:00:00	8	Radiación solar	717
71897	7	Sololá	702	San José Chacayá	5	Chacayá	1	Enero	2023-10-01T00:00:00	2024-11-06T12:00:00	2	Temperatura media	20.1
71898	7	Sololá	702	San José Chacayá	5	Chacayá	1	Enero	2023-10-01T00:00:00	2024-11-06T12:00:00	4	Temperatura máxima	21.1
71899	7	Sololá	702	San José Chacayá	5	Chacayá	1	Enero	2023-10-01T00:00:00	2024-11-06T12:00:00	3	Temperatura mínima	19.9
71900	7	Sololá	702	San José Chacayá	5	Chacayá	1	Enero	2023-10-01T00:00:00	2024-11-06T12:00:00	5	Humedad	67
71901	7	Sololá	702	San José Chacayá	5	Chacayá	1	Enero	2023-10-01T00:00:00	2024-11-06T12:00:00	6	Velocidad del viento	6.4
71902	7	Sololá	702	San José Chacayá	5	Chacayá	1	Enero	2023-10-01T00:00:00	2024-11-06T12:00:00	7	Dirección del viento	6.44
71903	7	Sololá	702	San José Chacayá	5	Chacayá	1	Enero	2023-10-01T00:00:00	2024-11-06T12:00:00	1	Precipitación	0
71904	7	Sololá	702	San José Chacayá	5	Chacayá	1	Enero	2023-10-01T00:00:00	2024-11-06T12:00:00	8	Radiación solar	717
71905	7	Sololá	702	San José Chacayá	5	Chacayá	1	Enero	2023-10-01T00:00:00	2024-11-06T13:00:00	2	Temperatura media	19.2
71906	7	Sololá	702	San José Chacayá	5	Chacayá	1	Enero	2023-10-01T00:00:00	2024-11-06T13:00:00	4	Temperatura máxima	20
71907	7	Sololá	702	San José Chacayá	5	Chacayá	1	Enero	2023-10-01T00:00:00	2024-11-06T13:00:00	3	Temperatura mínima	18.5
71908	7	Sololá	702	San José Chacayá	5	Chacayá	1	Enero	2023-10-01T00:00:00	2024-11-06T13:00:00	5	Humedad	71
71909	7	Sololá	702	San José Chacayá	5	Chacayá	1	Enero	2023-10-01T00:00:00	2024-11-06T13:00:00	6	Velocidad del viento	8
71910	7	Sololá	702	San José Chacayá	5	Chacayá	1	Enero	2023-10-01T00:00:00	2024-11-06T13:00:00	7	Dirección del viento	8.05
71911	7	Sololá	702	San José Chacayá	5	Chacayá	1	Enero	2023-10-01T00:00:00	2024-11-06T13:00:00	1	Precipitación	0
71912	7	Sololá	702	San José Chacayá	5	Chacayá	1	Enero	2023-10-01T00:00:00	2024-11-06T13:00:00	8	Radiación solar	860
71913	7	Sololá	702	San José Chacayá	5	Chacayá	1	Enero	2023-10-01T00:00:00	2024-11-06T14:00:00	2	Temperatura media	17.9
71914	7	Sololá	702	San José Chacayá	5	Chacayá	1	Enero	2023-10-01T00:00:00	2024-11-06T14:00:00	4	Temperatura máxima	19.7
71915	7	Sololá	702	San José Chacayá	5	Chacayá	1	Enero	2023-10-01T00:00:00	2024-11-06T14:00:00	3	Temperatura mínima	17.9
71916	7	Sololá	702	San José Chacayá	5	Chacayá	1	Enero	2023-10-01T00:00:00	2024-11-06T14:00:00	5	Humedad	77
71917	7	Sololá	702	San José Chacayá	5	Chacayá	1	Enero	2023-10-01T00:00:00	2024-11-06T14:00:00	6	Velocidad del viento	6.4
71918	7	Sololá	702	San José Chacayá	5	Chacayá	1	Enero	2023-10-01T00:00:00	2024-11-06T14:00:00	7	Dirección del viento	6.44
71919	7	Sololá	702	San José Chacayá	5	Chacayá	1	Enero	2023-10-01T00:00:00	2024-11-06T14:00:00	1	Precipitación	0
71920	7	Sololá	702	San José Chacayá	5	Chacayá	1	Enero	2023-10-01T00:00:00	2024-11-06T14:00:00	8	Radiación solar	753
71921	7	Sololá	702	San José Chacayá	5	Chacayá	1	Enero	2023-10-01T00:00:00	2024-11-06T15:00:00	2	Temperatura media	16.4
71922	7	Sololá	702	San José Chacayá	5	Chacayá	1	Enero	2023-10-01T00:00:00	2024-11-06T15:00:00	4	Temperatura máxima	18.1
71923	7	Sololá	702	San José Chacayá	5	Chacayá	1	Enero	2023-10-01T00:00:00	2024-11-06T15:00:00	3	Temperatura mínima	16.4
71924	7	Sololá	702	San José Chacayá	5	Chacayá	1	Enero	2023-10-01T00:00:00	2024-11-06T15:00:00	5	Humedad	85
71925	7	Sololá	702	San José Chacayá	5	Chacayá	1	Enero	2023-10-01T00:00:00	2024-11-06T15:00:00	6	Velocidad del viento	1.6
71926	7	Sololá	702	San José Chacayá	5	Chacayá	1	Enero	2023-10-01T00:00:00	2024-11-06T15:00:00	7	Dirección del viento	1.61
71927	7	Sololá	702	San José Chacayá	5	Chacayá	1	Enero	2023-10-01T00:00:00	2024-11-06T15:00:00	1	Precipitación	0
71928	7	Sololá	702	San José Chacayá	5	Chacayá	1	Enero	2023-10-01T00:00:00	2024-11-06T15:00:00	8	Radiación solar	360
71929	7	Sololá	702	San José Chacayá	5	Chacayá	1	Enero	2023-10-01T00:00:00	2024-11-06T16:00:00	2	Temperatura media	16.2
71930	7	Sololá	702	San José Chacayá	5	Chacayá	1	Enero	2023-10-01T00:00:00	2024-11-06T16:00:00	4	Temperatura máxima	17.4
71931	7	Sololá	702	San José Chacayá	5	Chacayá	1	Enero	2023-10-01T00:00:00	2024-11-06T16:00:00	3	Temperatura mínima	16.2
71932	7	Sololá	702	San José Chacayá	5	Chacayá	1	Enero	2023-10-01T00:00:00	2024-11-06T16:00:00	5	Humedad	79
71933	7	Sololá	702	San José Chacayá	5	Chacayá	1	Enero	2023-10-01T00:00:00	2024-11-06T16:00:00	6	Velocidad del viento	1.6
71934	7	Sololá	702	San José Chacayá	5	Chacayá	1	Enero	2023-10-01T00:00:00	2024-11-06T16:00:00	7	Dirección del viento	1.61
71935	7	Sololá	702	San José Chacayá	5	Chacayá	1	Enero	2023-10-01T00:00:00	2024-11-06T16:00:00	1	Precipitación	0
71936	7	Sololá	702	San José Chacayá	5	Chacayá	1	Enero	2023-10-01T00:00:00	2024-11-06T16:00:00	8	Radiación solar	220
71937	7	Sololá	702	San José Chacayá	5	Chacayá	1	Enero	2023-10-01T00:00:00	2024-11-06T17:00:00	2	Temperatura media	14.3
71938	7	Sololá	702	San José Chacayá	5	Chacayá	1	Enero	2023-10-01T00:00:00	2024-11-06T17:00:00	4	Temperatura máxima	16.2
71939	7	Sololá	702	San José Chacayá	5	Chacayá	1	Enero	2023-10-01T00:00:00	2024-11-06T17:00:00	3	Temperatura mínima	14.3
71940	7	Sololá	702	San José Chacayá	5	Chacayá	1	Enero	2023-10-01T00:00:00	2024-11-06T17:00:00	5	Humedad	80
71941	7	Sololá	702	San José Chacayá	5	Chacayá	1	Enero	2023-10-01T00:00:00	2024-11-06T17:00:00	6	Velocidad del viento	1.6
71942	7	Sololá	702	San José Chacayá	5	Chacayá	1	Enero	2023-10-01T00:00:00	2024-11-06T17:00:00	7	Dirección del viento	1.61
71943	7	Sololá	702	San José Chacayá	5	Chacayá	1	Enero	2023-10-01T00:00:00	2024-11-06T17:00:00	1	Precipitación	0
71944	7	Sololá	702	San José Chacayá	5	Chacayá	1	Enero	2023-10-01T00:00:00	2024-11-06T17:00:00	8	Radiación solar	103
71945	7	Sololá	702	San José Chacayá	5	Chacayá	1	Enero	2023-10-01T00:00:00	2024-11-06T18:00:00	2	Temperatura media	13.7
71946	7	Sololá	702	San José Chacayá	5	Chacayá	1	Enero	2023-10-01T00:00:00	2024-11-06T18:00:00	4	Temperatura máxima	14.3
71947	7	Sololá	702	San José Chacayá	5	Chacayá	1	Enero	2023-10-01T00:00:00	2024-11-06T18:00:00	3	Temperatura mínima	13.6
71948	7	Sololá	702	San José Chacayá	5	Chacayá	1	Enero	2023-10-01T00:00:00	2024-11-06T18:00:00	5	Humedad	81
71949	7	Sololá	702	San José Chacayá	5	Chacayá	1	Enero	2023-10-01T00:00:00	2024-11-06T18:00:00	6	Velocidad del viento	1.6
71950	7	Sololá	702	San José Chacayá	5	Chacayá	1	Enero	2023-10-01T00:00:00	2024-11-06T18:00:00	7	Dirección del viento	1.61
71951	7	Sololá	702	San José Chacayá	5	Chacayá	1	Enero	2023-10-01T00:00:00	2024-11-06T18:00:00	1	Precipitación	0
71952	7	Sololá	702	San José Chacayá	5	Chacayá	1	Enero	2023-10-01T00:00:00	2024-11-06T18:00:00	8	Radiación solar	19
71953	7	Sololá	702	San José Chacayá	5	Chacayá	1	Enero	2023-10-01T00:00:00	2024-11-06T19:00:00	2	Temperatura media	13.3
71954	7	Sololá	702	San José Chacayá	5	Chacayá	1	Enero	2023-10-01T00:00:00	2024-11-06T19:00:00	4	Temperatura máxima	13.7
71955	7	Sololá	702	San José Chacayá	5	Chacayá	1	Enero	2023-10-01T00:00:00	2024-11-06T19:00:00	3	Temperatura mínima	13.2
71956	7	Sololá	702	San José Chacayá	5	Chacayá	1	Enero	2023-10-01T00:00:00	2024-11-06T19:00:00	5	Humedad	83
71957	7	Sololá	702	San José Chacayá	5	Chacayá	1	Enero	2023-10-01T00:00:00	2024-11-06T19:00:00	6	Velocidad del viento	3.2
71958	7	Sololá	702	San José Chacayá	5	Chacayá	1	Enero	2023-10-01T00:00:00	2024-11-06T19:00:00	7	Dirección del viento	3.22
71959	7	Sololá	702	San José Chacayá	5	Chacayá	1	Enero	2023-10-01T00:00:00	2024-11-06T19:00:00	1	Precipitación	0
71960	7	Sololá	702	San José Chacayá	5	Chacayá	1	Enero	2023-10-01T00:00:00	2024-11-06T19:00:00	8	Radiación solar	0
71961	7	Sololá	702	San José Chacayá	5	Chacayá	1	Enero	2023-10-01T00:00:00	2024-11-06T20:00:00	2	Temperatura media	13.1
71962	7	Sololá	702	San José Chacayá	5	Chacayá	1	Enero	2023-10-01T00:00:00	2024-11-06T20:00:00	4	Temperatura máxima	13.3
71963	7	Sololá	702	San José Chacayá	5	Chacayá	1	Enero	2023-10-01T00:00:00	2024-11-06T20:00:00	3	Temperatura mínima	13.1
71964	7	Sololá	702	San José Chacayá	5	Chacayá	1	Enero	2023-10-01T00:00:00	2024-11-06T20:00:00	5	Humedad	81
71965	7	Sololá	702	San José Chacayá	5	Chacayá	1	Enero	2023-10-01T00:00:00	2024-11-06T20:00:00	6	Velocidad del viento	3.2
71966	7	Sololá	702	San José Chacayá	5	Chacayá	1	Enero	2023-10-01T00:00:00	2024-11-06T20:00:00	7	Dirección del viento	3.22
71967	7	Sololá	702	San José Chacayá	5	Chacayá	1	Enero	2023-10-01T00:00:00	2024-11-06T20:00:00	1	Precipitación	0
71968	7	Sololá	702	San José Chacayá	5	Chacayá	1	Enero	2023-10-01T00:00:00	2024-11-06T20:00:00	8	Radiación solar	0
71969	7	Sololá	702	San José Chacayá	5	Chacayá	1	Enero	2023-10-01T00:00:00	2024-11-06T21:00:00	2	Temperatura media	12.4
71970	7	Sololá	702	San José Chacayá	5	Chacayá	1	Enero	2023-10-01T00:00:00	2024-11-06T21:00:00	4	Temperatura máxima	13.1
71971	7	Sololá	702	San José Chacayá	5	Chacayá	1	Enero	2023-10-01T00:00:00	2024-11-06T21:00:00	3	Temperatura mínima	11.8
71972	7	Sololá	702	San José Chacayá	5	Chacayá	1	Enero	2023-10-01T00:00:00	2024-11-06T21:00:00	5	Humedad	80
71973	7	Sololá	702	San José Chacayá	5	Chacayá	1	Enero	2023-10-01T00:00:00	2024-11-06T21:00:00	6	Velocidad del viento	3.2
71974	7	Sololá	702	San José Chacayá	5	Chacayá	1	Enero	2023-10-01T00:00:00	2024-11-06T21:00:00	7	Dirección del viento	3.22
71975	7	Sololá	702	San José Chacayá	5	Chacayá	1	Enero	2023-10-01T00:00:00	2024-11-06T21:00:00	1	Precipitación	0
71976	7	Sololá	702	San José Chacayá	5	Chacayá	1	Enero	2023-10-01T00:00:00	2024-11-06T21:00:00	8	Radiación solar	0
71977	7	Sololá	702	San José Chacayá	5	Chacayá	1	Enero	2023-10-01T00:00:00	2024-11-06T22:00:00	2	Temperatura media	11.2
71978	7	Sololá	702	San José Chacayá	5	Chacayá	1	Enero	2023-10-01T00:00:00	2024-11-06T22:00:00	4	Temperatura máxima	12.5
71979	7	Sololá	702	San José Chacayá	5	Chacayá	1	Enero	2023-10-01T00:00:00	2024-11-06T22:00:00	3	Temperatura mínima	11.1
71980	7	Sololá	702	San José Chacayá	5	Chacayá	1	Enero	2023-10-01T00:00:00	2024-11-06T22:00:00	5	Humedad	84
71981	7	Sololá	702	San José Chacayá	5	Chacayá	1	Enero	2023-10-01T00:00:00	2024-11-06T22:00:00	6	Velocidad del viento	1.6
71982	7	Sololá	702	San José Chacayá	5	Chacayá	1	Enero	2023-10-01T00:00:00	2024-11-06T22:00:00	7	Dirección del viento	1.61
71983	7	Sololá	702	San José Chacayá	5	Chacayá	1	Enero	2023-10-01T00:00:00	2024-11-06T22:00:00	1	Precipitación	0
71984	7	Sololá	702	San José Chacayá	5	Chacayá	1	Enero	2023-10-01T00:00:00	2024-11-06T22:00:00	8	Radiación solar	0
71985	7	Sololá	702	San José Chacayá	5	Chacayá	1	Enero	2023-10-01T00:00:00	2024-11-06T23:00:00	2	Temperatura media	9.9
71986	7	Sololá	702	San José Chacayá	5	Chacayá	1	Enero	2023-10-01T00:00:00	2024-11-06T23:00:00	4	Temperatura máxima	11.3
71987	7	Sololá	702	San José Chacayá	5	Chacayá	1	Enero	2023-10-01T00:00:00	2024-11-06T23:00:00	3	Temperatura mínima	9.9
71988	7	Sololá	702	San José Chacayá	5	Chacayá	1	Enero	2023-10-01T00:00:00	2024-11-06T23:00:00	5	Humedad	90
71989	7	Sololá	702	San José Chacayá	5	Chacayá	1	Enero	2023-10-01T00:00:00	2024-11-06T23:00:00	6	Velocidad del viento	1.6
71990	7	Sololá	702	San José Chacayá	5	Chacayá	1	Enero	2023-10-01T00:00:00	2024-11-06T23:00:00	7	Dirección del viento	1.61
71991	7	Sololá	702	San José Chacayá	5	Chacayá	1	Enero	2023-10-01T00:00:00	2024-11-06T23:00:00	1	Precipitación	0
71992	7	Sololá	702	San José Chacayá	5	Chacayá	1	Enero	2023-10-01T00:00:00	2024-11-06T23:00:00	8	Radiación solar	0
71993	7	Sololá	702	San José Chacayá	5	Chacayá	1	Enero	2023-11-01T00:00:00	2024-11-06T00:00:00	2	Temperatura media	10.1
71994	7	Sololá	702	San José Chacayá	5	Chacayá	1	Enero	2023-11-01T00:00:00	2024-11-06T00:00:00	4	Temperatura máxima	10.7
71995	7	Sololá	702	San José Chacayá	5	Chacayá	1	Enero	2023-11-01T00:00:00	2024-11-06T00:00:00	3	Temperatura mínima	9.7
71996	7	Sololá	702	San José Chacayá	5	Chacayá	1	Enero	2023-11-01T00:00:00	2024-11-06T00:00:00	5	Humedad	89
71997	7	Sololá	702	San José Chacayá	5	Chacayá	1	Enero	2023-11-01T00:00:00	2024-11-06T00:00:00	6	Velocidad del viento	1.6
71998	7	Sololá	702	San José Chacayá	5	Chacayá	1	Enero	2023-11-01T00:00:00	2024-11-06T00:00:00	7	Dirección del viento	1.61
71999	7	Sololá	702	San José Chacayá	5	Chacayá	1	Enero	2023-11-01T00:00:00	2024-11-06T00:00:00	1	Precipitación	0
72000	7	Sololá	702	San José Chacayá	5	Chacayá	1	Enero	2023-11-01T00:00:00	2024-11-06T00:00:00	8	Radiación solar	0
72001	7	Sololá	702	San José Chacayá	5	Chacayá	1	Enero	2023-11-01T00:00:00	2024-11-06T01:00:00	2	Temperatura media	9.3
72002	7	Sololá	702	San José Chacayá	5	Chacayá	1	Enero	2023-11-01T00:00:00	2024-11-06T01:00:00	4	Temperatura máxima	10.1
72003	7	Sololá	702	San José Chacayá	5	Chacayá	1	Enero	2023-11-01T00:00:00	2024-11-06T01:00:00	3	Temperatura mínima	9.3
72004	7	Sololá	702	San José Chacayá	5	Chacayá	1	Enero	2023-11-01T00:00:00	2024-11-06T01:00:00	5	Humedad	89
72005	7	Sololá	702	San José Chacayá	5	Chacayá	1	Enero	2023-11-01T00:00:00	2024-11-06T01:00:00	6	Velocidad del viento	1.6
72006	7	Sololá	702	San José Chacayá	5	Chacayá	1	Enero	2023-11-01T00:00:00	2024-11-06T01:00:00	7	Dirección del viento	1.61
72007	7	Sololá	702	San José Chacayá	5	Chacayá	1	Enero	2023-11-01T00:00:00	2024-11-06T01:00:00	1	Precipitación	0
72008	7	Sololá	702	San José Chacayá	5	Chacayá	1	Enero	2023-11-01T00:00:00	2024-11-06T01:00:00	8	Radiación solar	0
72009	7	Sololá	702	San José Chacayá	5	Chacayá	1	Enero	2023-11-01T00:00:00	2024-11-06T02:00:00	2	Temperatura media	9.9
72010	7	Sololá	702	San José Chacayá	5	Chacayá	1	Enero	2023-11-01T00:00:00	2024-11-06T02:00:00	4	Temperatura máxima	10.3
72011	7	Sololá	702	San José Chacayá	5	Chacayá	1	Enero	2023-11-01T00:00:00	2024-11-06T02:00:00	3	Temperatura mínima	8.9
72012	7	Sololá	702	San José Chacayá	5	Chacayá	1	Enero	2023-11-01T00:00:00	2024-11-06T02:00:00	5	Humedad	89
72013	7	Sololá	702	San José Chacayá	5	Chacayá	1	Enero	2023-11-01T00:00:00	2024-11-06T02:00:00	6	Velocidad del viento	1.6
72014	7	Sololá	702	San José Chacayá	5	Chacayá	1	Enero	2023-11-01T00:00:00	2024-11-06T02:00:00	7	Dirección del viento	1.61
72015	7	Sololá	702	San José Chacayá	5	Chacayá	1	Enero	2023-11-01T00:00:00	2024-11-06T02:00:00	1	Precipitación	0
72016	7	Sololá	702	San José Chacayá	5	Chacayá	1	Enero	2023-11-01T00:00:00	2024-11-06T02:00:00	8	Radiación solar	0
72017	7	Sololá	702	San José Chacayá	5	Chacayá	1	Enero	2023-11-01T00:00:00	2024-11-06T03:00:00	2	Temperatura media	9.1
72018	7	Sololá	702	San José Chacayá	5	Chacayá	1	Enero	2023-11-01T00:00:00	2024-11-06T03:00:00	4	Temperatura máxima	9.9
72019	7	Sololá	702	San José Chacayá	5	Chacayá	1	Enero	2023-11-01T00:00:00	2024-11-06T03:00:00	3	Temperatura mínima	8.9
72020	7	Sololá	702	San José Chacayá	5	Chacayá	1	Enero	2023-11-01T00:00:00	2024-11-06T03:00:00	5	Humedad	93
72021	7	Sololá	702	San José Chacayá	5	Chacayá	1	Enero	2023-11-01T00:00:00	2024-11-06T03:00:00	6	Velocidad del viento	1.6
72022	7	Sololá	702	San José Chacayá	5	Chacayá	1	Enero	2023-11-01T00:00:00	2024-11-06T03:00:00	7	Dirección del viento	1.61
72023	7	Sololá	702	San José Chacayá	5	Chacayá	1	Enero	2023-11-01T00:00:00	2024-11-06T03:00:00	1	Precipitación	0
72024	7	Sololá	702	San José Chacayá	5	Chacayá	1	Enero	2023-11-01T00:00:00	2024-11-06T03:00:00	8	Radiación solar	0
72025	7	Sololá	702	San José Chacayá	5	Chacayá	1	Enero	2023-11-01T00:00:00	2024-11-06T04:00:00	2	Temperatura media	8.5
72026	7	Sololá	702	San José Chacayá	5	Chacayá	1	Enero	2023-11-01T00:00:00	2024-11-06T04:00:00	4	Temperatura máxima	9.7
72027	7	Sololá	702	San José Chacayá	5	Chacayá	1	Enero	2023-11-01T00:00:00	2024-11-06T04:00:00	3	Temperatura mínima	8.5
72028	7	Sololá	702	San José Chacayá	5	Chacayá	1	Enero	2023-11-01T00:00:00	2024-11-06T04:00:00	5	Humedad	93
72029	7	Sololá	702	San José Chacayá	5	Chacayá	1	Enero	2023-11-01T00:00:00	2024-11-06T04:00:00	6	Velocidad del viento	1.6
72030	7	Sololá	702	San José Chacayá	5	Chacayá	1	Enero	2023-11-01T00:00:00	2024-11-06T04:00:00	7	Dirección del viento	1.61
72031	7	Sololá	702	San José Chacayá	5	Chacayá	1	Enero	2023-11-01T00:00:00	2024-11-06T04:00:00	1	Precipitación	0
72032	7	Sololá	702	San José Chacayá	5	Chacayá	1	Enero	2023-11-01T00:00:00	2024-11-06T04:00:00	8	Radiación solar	0
72033	7	Sololá	702	San José Chacayá	5	Chacayá	1	Enero	2023-11-01T00:00:00	2024-11-06T05:00:00	2	Temperatura media	8.1
72034	7	Sololá	702	San José Chacayá	5	Chacayá	1	Enero	2023-11-01T00:00:00	2024-11-06T05:00:00	4	Temperatura máxima	8.6
72035	7	Sololá	702	San José Chacayá	5	Chacayá	1	Enero	2023-11-01T00:00:00	2024-11-06T05:00:00	3	Temperatura mínima	8.1
72036	7	Sololá	702	San José Chacayá	5	Chacayá	1	Enero	2023-11-01T00:00:00	2024-11-06T05:00:00	5	Humedad	94
72037	7	Sololá	702	San José Chacayá	5	Chacayá	1	Enero	2023-11-01T00:00:00	2024-11-06T05:00:00	6	Velocidad del viento	0
72038	7	Sololá	702	San José Chacayá	5	Chacayá	1	Enero	2023-11-01T00:00:00	2024-11-06T05:00:00	7	Dirección del viento	0
72039	7	Sololá	702	San José Chacayá	5	Chacayá	1	Enero	2023-11-01T00:00:00	2024-11-06T05:00:00	1	Precipitación	0
72040	7	Sololá	702	San José Chacayá	5	Chacayá	1	Enero	2023-11-01T00:00:00	2024-11-06T05:00:00	8	Radiación solar	0
72041	7	Sololá	702	San José Chacayá	5	Chacayá	1	Enero	2023-11-01T00:00:00	2024-11-06T06:00:00	2	Temperatura media	8.6
72042	7	Sololá	702	San José Chacayá	5	Chacayá	1	Enero	2023-11-01T00:00:00	2024-11-06T06:00:00	4	Temperatura máxima	8.6
72043	7	Sololá	702	San José Chacayá	5	Chacayá	1	Enero	2023-11-01T00:00:00	2024-11-06T06:00:00	3	Temperatura mínima	8.1
72044	7	Sololá	702	San José Chacayá	5	Chacayá	1	Enero	2023-11-01T00:00:00	2024-11-06T06:00:00	5	Humedad	93
72045	7	Sololá	702	San José Chacayá	5	Chacayá	1	Enero	2023-11-01T00:00:00	2024-11-06T06:00:00	6	Velocidad del viento	1.6
72046	7	Sololá	702	San José Chacayá	5	Chacayá	1	Enero	2023-11-01T00:00:00	2024-11-06T06:00:00	7	Dirección del viento	1.61
72047	7	Sololá	702	San José Chacayá	5	Chacayá	1	Enero	2023-11-01T00:00:00	2024-11-06T06:00:00	1	Precipitación	0
72048	7	Sololá	702	San José Chacayá	5	Chacayá	1	Enero	2023-11-01T00:00:00	2024-11-06T06:00:00	8	Radiación solar	0
72049	7	Sololá	702	San José Chacayá	5	Chacayá	1	Enero	2023-11-01T00:00:00	2024-11-06T07:00:00	2	Temperatura media	15.1
72050	7	Sololá	702	San José Chacayá	5	Chacayá	1	Enero	2023-11-01T00:00:00	2024-11-06T07:00:00	4	Temperatura máxima	15.1
72051	7	Sololá	702	San José Chacayá	5	Chacayá	1	Enero	2023-11-01T00:00:00	2024-11-06T07:00:00	3	Temperatura mínima	8.6
72052	7	Sololá	702	San José Chacayá	5	Chacayá	1	Enero	2023-11-01T00:00:00	2024-11-06T07:00:00	5	Humedad	74
72053	7	Sololá	702	San José Chacayá	5	Chacayá	1	Enero	2023-11-01T00:00:00	2024-11-06T07:00:00	6	Velocidad del viento	1.6
72054	7	Sololá	702	San José Chacayá	5	Chacayá	1	Enero	2023-11-01T00:00:00	2024-11-06T07:00:00	7	Dirección del viento	1.61
72055	7	Sololá	702	San José Chacayá	5	Chacayá	1	Enero	2023-11-01T00:00:00	2024-11-06T07:00:00	1	Precipitación	0
72056	7	Sololá	702	San José Chacayá	5	Chacayá	1	Enero	2023-11-01T00:00:00	2024-11-06T07:00:00	8	Radiación solar	9
72057	7	Sololá	702	San José Chacayá	5	Chacayá	1	Enero	2023-11-01T00:00:00	2024-11-06T08:00:00	2	Temperatura media	16.6
72058	7	Sololá	702	San José Chacayá	5	Chacayá	1	Enero	2023-11-01T00:00:00	2024-11-06T08:00:00	4	Temperatura máxima	16.8
72059	7	Sololá	702	San José Chacayá	5	Chacayá	1	Enero	2023-11-01T00:00:00	2024-11-06T08:00:00	3	Temperatura mínima	15.1
72060	7	Sololá	702	San José Chacayá	5	Chacayá	1	Enero	2023-11-01T00:00:00	2024-11-06T08:00:00	5	Humedad	69
72061	7	Sololá	702	San José Chacayá	5	Chacayá	1	Enero	2023-11-01T00:00:00	2024-11-06T08:00:00	6	Velocidad del viento	4.8
72062	7	Sololá	702	San José Chacayá	5	Chacayá	1	Enero	2023-11-01T00:00:00	2024-11-06T08:00:00	7	Dirección del viento	4.83
72063	7	Sololá	702	San José Chacayá	5	Chacayá	1	Enero	2023-11-01T00:00:00	2024-11-06T08:00:00	1	Precipitación	0
72064	7	Sololá	702	San José Chacayá	5	Chacayá	1	Enero	2023-11-01T00:00:00	2024-11-06T08:00:00	8	Radiación solar	183
72065	7	Sololá	702	San José Chacayá	5	Chacayá	1	Enero	2023-11-01T00:00:00	2024-11-06T09:00:00	2	Temperatura media	16.7
72066	7	Sololá	702	San José Chacayá	5	Chacayá	1	Enero	2023-11-01T00:00:00	2024-11-06T09:00:00	4	Temperatura máxima	17.2
72067	7	Sololá	702	San José Chacayá	5	Chacayá	1	Enero	2023-11-01T00:00:00	2024-11-06T09:00:00	3	Temperatura mínima	15.7
72068	7	Sololá	702	San José Chacayá	5	Chacayá	1	Enero	2023-11-01T00:00:00	2024-11-06T09:00:00	5	Humedad	67
72069	7	Sololá	702	San José Chacayá	5	Chacayá	1	Enero	2023-11-01T00:00:00	2024-11-06T09:00:00	6	Velocidad del viento	6.4
72070	7	Sololá	702	San José Chacayá	5	Chacayá	1	Enero	2023-11-01T00:00:00	2024-11-06T09:00:00	7	Dirección del viento	6.44
72071	7	Sololá	702	San José Chacayá	5	Chacayá	1	Enero	2023-11-01T00:00:00	2024-11-06T09:00:00	1	Precipitación	0
72072	7	Sololá	702	San José Chacayá	5	Chacayá	1	Enero	2023-11-01T00:00:00	2024-11-06T09:00:00	8	Radiación solar	390
72073	7	Sololá	702	San José Chacayá	5	Chacayá	1	Enero	2023-11-01T00:00:00	2024-11-06T10:00:00	2	Temperatura media	18.9
72074	7	Sololá	702	San José Chacayá	5	Chacayá	1	Enero	2023-11-01T00:00:00	2024-11-06T10:00:00	4	Temperatura máxima	18.9
72075	7	Sololá	702	San José Chacayá	5	Chacayá	1	Enero	2023-11-01T00:00:00	2024-11-06T10:00:00	3	Temperatura mínima	16.6
72076	7	Sololá	702	San José Chacayá	5	Chacayá	1	Enero	2023-11-01T00:00:00	2024-11-06T10:00:00	5	Humedad	60
72077	7	Sololá	702	San José Chacayá	5	Chacayá	1	Enero	2023-11-01T00:00:00	2024-11-06T10:00:00	6	Velocidad del viento	4.8
72078	7	Sololá	702	San José Chacayá	5	Chacayá	1	Enero	2023-11-01T00:00:00	2024-11-06T10:00:00	7	Dirección del viento	4.83
72079	7	Sololá	702	San José Chacayá	5	Chacayá	1	Enero	2023-11-01T00:00:00	2024-11-06T10:00:00	1	Precipitación	0
72080	7	Sololá	702	San José Chacayá	5	Chacayá	1	Enero	2023-11-01T00:00:00	2024-11-06T10:00:00	8	Radiación solar	87
72081	7	Sololá	702	San José Chacayá	5	Chacayá	1	Enero	2023-11-01T00:00:00	2024-11-06T11:00:00	2	Temperatura media	21
72082	7	Sololá	702	San José Chacayá	5	Chacayá	1	Enero	2023-11-01T00:00:00	2024-11-06T11:00:00	4	Temperatura máxima	21.1
72083	7	Sololá	702	San José Chacayá	5	Chacayá	1	Enero	2023-11-01T00:00:00	2024-11-06T11:00:00	3	Temperatura mínima	18.9
72084	7	Sololá	702	San José Chacayá	5	Chacayá	1	Enero	2023-11-01T00:00:00	2024-11-06T11:00:00	5	Humedad	52
72085	7	Sololá	702	San José Chacayá	5	Chacayá	1	Enero	2023-11-01T00:00:00	2024-11-06T11:00:00	6	Velocidad del viento	4.8
72086	7	Sololá	702	San José Chacayá	5	Chacayá	1	Enero	2023-11-01T00:00:00	2024-11-06T11:00:00	7	Dirección del viento	4.83
72087	7	Sololá	702	San José Chacayá	5	Chacayá	1	Enero	2023-11-01T00:00:00	2024-11-06T11:00:00	1	Precipitación	0
72088	7	Sololá	702	San José Chacayá	5	Chacayá	1	Enero	2023-11-01T00:00:00	2024-11-06T11:00:00	8	Radiación solar	58
72089	7	Sololá	702	San José Chacayá	5	Chacayá	1	Enero	2023-11-01T00:00:00	2024-11-06T12:00:00	2	Temperatura media	21.7
72090	7	Sololá	702	San José Chacayá	5	Chacayá	1	Enero	2023-11-01T00:00:00	2024-11-06T12:00:00	4	Temperatura máxima	21.8
72091	7	Sololá	702	San José Chacayá	5	Chacayá	1	Enero	2023-11-01T00:00:00	2024-11-06T12:00:00	3	Temperatura mínima	20.9
72092	7	Sololá	702	San José Chacayá	5	Chacayá	1	Enero	2023-11-01T00:00:00	2024-11-06T12:00:00	5	Humedad	51
72093	7	Sololá	702	San José Chacayá	5	Chacayá	1	Enero	2023-11-01T00:00:00	2024-11-06T12:00:00	6	Velocidad del viento	6.4
72094	7	Sololá	702	San José Chacayá	5	Chacayá	1	Enero	2023-11-01T00:00:00	2024-11-06T12:00:00	7	Dirección del viento	6.44
72095	7	Sololá	702	San José Chacayá	5	Chacayá	1	Enero	2023-11-01T00:00:00	2024-11-06T12:00:00	1	Precipitación	0
72096	7	Sololá	702	San José Chacayá	5	Chacayá	1	Enero	2023-11-01T00:00:00	2024-11-06T12:00:00	8	Radiación solar	448
72097	7	Sololá	702	San José Chacayá	5	Chacayá	1	Enero	2023-11-01T00:00:00	2024-11-06T13:00:00	2	Temperatura media	20.9
72098	7	Sololá	702	San José Chacayá	5	Chacayá	1	Enero	2023-11-01T00:00:00	2024-11-06T13:00:00	4	Temperatura máxima	22.2
72099	7	Sololá	702	San José Chacayá	5	Chacayá	1	Enero	2023-11-01T00:00:00	2024-11-06T13:00:00	3	Temperatura mínima	20.2
72100	7	Sololá	702	San José Chacayá	5	Chacayá	1	Enero	2023-11-01T00:00:00	2024-11-06T13:00:00	5	Humedad	57
72101	7	Sololá	702	San José Chacayá	5	Chacayá	1	Enero	2023-11-01T00:00:00	2024-11-06T13:00:00	6	Velocidad del viento	4.8
72102	7	Sololá	702	San José Chacayá	5	Chacayá	1	Enero	2023-11-01T00:00:00	2024-11-06T13:00:00	7	Dirección del viento	4.83
72103	7	Sololá	702	San José Chacayá	5	Chacayá	1	Enero	2023-11-01T00:00:00	2024-11-06T13:00:00	1	Precipitación	0
72104	7	Sololá	702	San José Chacayá	5	Chacayá	1	Enero	2023-11-01T00:00:00	2024-11-06T13:00:00	8	Radiación solar	872
72105	7	Sololá	702	San José Chacayá	5	Chacayá	1	Enero	2023-11-01T00:00:00	2024-11-06T14:00:00	2	Temperatura media	17.8
72106	7	Sololá	702	San José Chacayá	5	Chacayá	1	Enero	2023-11-01T00:00:00	2024-11-06T14:00:00	4	Temperatura máxima	20.9
72107	7	Sololá	702	San José Chacayá	5	Chacayá	1	Enero	2023-11-01T00:00:00	2024-11-06T14:00:00	3	Temperatura mínima	17.8
72108	7	Sololá	702	San José Chacayá	5	Chacayá	1	Enero	2023-11-01T00:00:00	2024-11-06T14:00:00	5	Humedad	76
72109	7	Sololá	702	San José Chacayá	5	Chacayá	1	Enero	2023-11-01T00:00:00	2024-11-06T14:00:00	6	Velocidad del viento	8
72110	7	Sololá	702	San José Chacayá	5	Chacayá	1	Enero	2023-11-01T00:00:00	2024-11-06T14:00:00	7	Dirección del viento	8.05
72111	7	Sololá	702	San José Chacayá	5	Chacayá	1	Enero	2023-11-01T00:00:00	2024-11-06T14:00:00	1	Precipitación	0
72112	7	Sololá	702	San José Chacayá	5	Chacayá	1	Enero	2023-11-01T00:00:00	2024-11-06T14:00:00	8	Radiación solar	855
72113	7	Sololá	702	San José Chacayá	5	Chacayá	1	Enero	2023-11-01T00:00:00	2024-11-06T15:00:00	2	Temperatura media	16.9
72114	7	Sololá	702	San José Chacayá	5	Chacayá	1	Enero	2023-11-01T00:00:00	2024-11-06T15:00:00	4	Temperatura máxima	17.8
72115	7	Sololá	702	San José Chacayá	5	Chacayá	1	Enero	2023-11-01T00:00:00	2024-11-06T15:00:00	3	Temperatura mínima	16.9
72116	7	Sololá	702	San José Chacayá	5	Chacayá	1	Enero	2023-11-01T00:00:00	2024-11-06T15:00:00	5	Humedad	77
72117	7	Sololá	702	San José Chacayá	5	Chacayá	1	Enero	2023-11-01T00:00:00	2024-11-06T15:00:00	6	Velocidad del viento	4.8
72118	7	Sololá	702	San José Chacayá	5	Chacayá	1	Enero	2023-11-01T00:00:00	2024-11-06T15:00:00	7	Dirección del viento	4.83
72119	7	Sololá	702	San José Chacayá	5	Chacayá	1	Enero	2023-11-01T00:00:00	2024-11-06T15:00:00	1	Precipitación	0
72120	7	Sololá	702	San José Chacayá	5	Chacayá	1	Enero	2023-11-01T00:00:00	2024-11-06T15:00:00	8	Radiación solar	256
72121	7	Sololá	702	San José Chacayá	5	Chacayá	1	Enero	2023-11-01T00:00:00	2024-11-06T16:00:00	2	Temperatura media	16.2
72122	7	Sololá	702	San José Chacayá	5	Chacayá	1	Enero	2023-11-01T00:00:00	2024-11-06T16:00:00	4	Temperatura máxima	17.1
72123	7	Sololá	702	San José Chacayá	5	Chacayá	1	Enero	2023-11-01T00:00:00	2024-11-06T16:00:00	3	Temperatura mínima	16.2
72124	7	Sololá	702	San José Chacayá	5	Chacayá	1	Enero	2023-11-01T00:00:00	2024-11-06T16:00:00	5	Humedad	76
72125	7	Sololá	702	San José Chacayá	5	Chacayá	1	Enero	2023-11-01T00:00:00	2024-11-06T16:00:00	6	Velocidad del viento	1.6
72126	7	Sololá	702	San José Chacayá	5	Chacayá	1	Enero	2023-11-01T00:00:00	2024-11-06T16:00:00	7	Dirección del viento	1.61
72127	7	Sololá	702	San José Chacayá	5	Chacayá	1	Enero	2023-11-01T00:00:00	2024-11-06T16:00:00	1	Precipitación	0
72128	7	Sololá	702	San José Chacayá	5	Chacayá	1	Enero	2023-11-01T00:00:00	2024-11-06T16:00:00	8	Radiación solar	299
72129	7	Sololá	702	San José Chacayá	5	Chacayá	1	Enero	2023-11-01T00:00:00	2024-11-06T17:00:00	2	Temperatura media	14.1
72130	7	Sololá	702	San José Chacayá	5	Chacayá	1	Enero	2023-11-01T00:00:00	2024-11-06T17:00:00	4	Temperatura máxima	16.2
72131	7	Sololá	702	San José Chacayá	5	Chacayá	1	Enero	2023-11-01T00:00:00	2024-11-06T17:00:00	3	Temperatura mínima	14.1
72132	7	Sololá	702	San José Chacayá	5	Chacayá	1	Enero	2023-11-01T00:00:00	2024-11-06T17:00:00	5	Humedad	77
72133	7	Sololá	702	San José Chacayá	5	Chacayá	1	Enero	2023-11-01T00:00:00	2024-11-06T17:00:00	6	Velocidad del viento	3.2
72134	7	Sololá	702	San José Chacayá	5	Chacayá	1	Enero	2023-11-01T00:00:00	2024-11-06T17:00:00	7	Dirección del viento	3.22
72135	7	Sololá	702	San José Chacayá	5	Chacayá	1	Enero	2023-11-01T00:00:00	2024-11-06T17:00:00	1	Precipitación	0
72136	7	Sololá	702	San José Chacayá	5	Chacayá	1	Enero	2023-11-01T00:00:00	2024-11-06T17:00:00	8	Radiación solar	78
72137	7	Sololá	702	San José Chacayá	5	Chacayá	1	Enero	2023-11-01T00:00:00	2024-11-06T18:00:00	2	Temperatura media	13.2
72138	7	Sololá	702	San José Chacayá	5	Chacayá	1	Enero	2023-11-01T00:00:00	2024-11-06T18:00:00	4	Temperatura máxima	14.1
72139	7	Sololá	702	San José Chacayá	5	Chacayá	1	Enero	2023-11-01T00:00:00	2024-11-06T18:00:00	3	Temperatura mínima	13.2
72140	7	Sololá	702	San José Chacayá	5	Chacayá	1	Enero	2023-11-01T00:00:00	2024-11-06T18:00:00	5	Humedad	80
72141	7	Sololá	702	San José Chacayá	5	Chacayá	1	Enero	2023-11-01T00:00:00	2024-11-06T18:00:00	6	Velocidad del viento	3.2
72142	7	Sololá	702	San José Chacayá	5	Chacayá	1	Enero	2023-11-01T00:00:00	2024-11-06T18:00:00	7	Dirección del viento	3.22
72143	7	Sololá	702	San José Chacayá	5	Chacayá	1	Enero	2023-11-01T00:00:00	2024-11-06T18:00:00	1	Precipitación	0
72144	7	Sololá	702	San José Chacayá	5	Chacayá	1	Enero	2023-11-01T00:00:00	2024-11-06T18:00:00	8	Radiación solar	11
72145	7	Sololá	702	San José Chacayá	5	Chacayá	1	Enero	2023-11-01T00:00:00	2024-11-06T19:00:00	2	Temperatura media	13.1
72146	7	Sololá	702	San José Chacayá	5	Chacayá	1	Enero	2023-11-01T00:00:00	2024-11-06T19:00:00	4	Temperatura máxima	13.2
72147	7	Sololá	702	San José Chacayá	5	Chacayá	1	Enero	2023-11-01T00:00:00	2024-11-06T19:00:00	3	Temperatura mínima	12.9
72148	7	Sololá	702	San José Chacayá	5	Chacayá	1	Enero	2023-11-01T00:00:00	2024-11-06T19:00:00	5	Humedad	82
72149	7	Sololá	702	San José Chacayá	5	Chacayá	1	Enero	2023-11-01T00:00:00	2024-11-06T19:00:00	6	Velocidad del viento	1.6
72150	7	Sololá	702	San José Chacayá	5	Chacayá	1	Enero	2023-11-01T00:00:00	2024-11-06T19:00:00	7	Dirección del viento	1.61
72151	7	Sololá	702	San José Chacayá	5	Chacayá	1	Enero	2023-11-01T00:00:00	2024-11-06T19:00:00	1	Precipitación	0
72152	7	Sololá	702	San José Chacayá	5	Chacayá	1	Enero	2023-11-01T00:00:00	2024-11-06T19:00:00	8	Radiación solar	0
72153	7	Sololá	702	San José Chacayá	5	Chacayá	1	Enero	2023-11-01T00:00:00	2024-11-06T20:00:00	2	Temperatura media	13.2
72154	7	Sololá	702	San José Chacayá	5	Chacayá	1	Enero	2023-11-01T00:00:00	2024-11-06T20:00:00	4	Temperatura máxima	13.4
72155	7	Sololá	702	San José Chacayá	5	Chacayá	1	Enero	2023-11-01T00:00:00	2024-11-06T20:00:00	3	Temperatura mínima	13
72156	7	Sololá	702	San José Chacayá	5	Chacayá	1	Enero	2023-11-01T00:00:00	2024-11-06T20:00:00	5	Humedad	81
72157	7	Sololá	702	San José Chacayá	5	Chacayá	1	Enero	2023-11-01T00:00:00	2024-11-06T20:00:00	6	Velocidad del viento	1.6
72158	7	Sololá	702	San José Chacayá	5	Chacayá	1	Enero	2023-11-01T00:00:00	2024-11-06T20:00:00	7	Dirección del viento	1.61
72159	7	Sololá	702	San José Chacayá	5	Chacayá	1	Enero	2023-11-01T00:00:00	2024-11-06T20:00:00	1	Precipitación	0
72160	7	Sololá	702	San José Chacayá	5	Chacayá	1	Enero	2023-11-01T00:00:00	2024-11-06T20:00:00	8	Radiación solar	0
72161	7	Sololá	702	San José Chacayá	5	Chacayá	1	Enero	2023-11-01T00:00:00	2024-11-06T21:00:00	2	Temperatura media	10.2
72162	7	Sololá	702	San José Chacayá	5	Chacayá	1	Enero	2023-11-01T00:00:00	2024-11-06T21:00:00	4	Temperatura máxima	13.2
72163	7	Sololá	702	San José Chacayá	5	Chacayá	1	Enero	2023-11-01T00:00:00	2024-11-06T21:00:00	3	Temperatura mínima	10.2
72164	7	Sololá	702	San José Chacayá	5	Chacayá	1	Enero	2023-11-01T00:00:00	2024-11-06T21:00:00	5	Humedad	88
72165	7	Sololá	702	San José Chacayá	5	Chacayá	1	Enero	2023-11-01T00:00:00	2024-11-06T21:00:00	6	Velocidad del viento	0
72166	7	Sololá	702	San José Chacayá	5	Chacayá	1	Enero	2023-11-01T00:00:00	2024-11-06T21:00:00	7	Dirección del viento	0
72167	7	Sololá	702	San José Chacayá	5	Chacayá	1	Enero	2023-11-01T00:00:00	2024-11-06T21:00:00	1	Precipitación	0
72168	7	Sololá	702	San José Chacayá	5	Chacayá	1	Enero	2023-11-01T00:00:00	2024-11-06T21:00:00	8	Radiación solar	0
72169	7	Sololá	702	San José Chacayá	5	Chacayá	1	Enero	2023-11-01T00:00:00	2024-11-06T22:00:00	2	Temperatura media	9
72170	7	Sololá	702	San José Chacayá	5	Chacayá	1	Enero	2023-11-01T00:00:00	2024-11-06T22:00:00	4	Temperatura máxima	10.2
72171	7	Sololá	702	San José Chacayá	5	Chacayá	1	Enero	2023-11-01T00:00:00	2024-11-06T22:00:00	3	Temperatura mínima	9
72172	7	Sololá	702	San José Chacayá	5	Chacayá	1	Enero	2023-11-01T00:00:00	2024-11-06T22:00:00	5	Humedad	90
72173	7	Sololá	702	San José Chacayá	5	Chacayá	1	Enero	2023-11-01T00:00:00	2024-11-06T22:00:00	6	Velocidad del viento	0
72174	7	Sololá	702	San José Chacayá	5	Chacayá	1	Enero	2023-11-01T00:00:00	2024-11-06T22:00:00	7	Dirección del viento	0
72175	7	Sololá	702	San José Chacayá	5	Chacayá	1	Enero	2023-11-01T00:00:00	2024-11-06T22:00:00	1	Precipitación	0
72176	7	Sololá	702	San José Chacayá	5	Chacayá	1	Enero	2023-11-01T00:00:00	2024-11-06T22:00:00	8	Radiación solar	0
72177	7	Sololá	702	San José Chacayá	5	Chacayá	1	Enero	2023-11-01T00:00:00	2024-11-06T23:00:00	2	Temperatura media	8.2
72178	7	Sololá	702	San José Chacayá	5	Chacayá	1	Enero	2023-11-01T00:00:00	2024-11-06T23:00:00	4	Temperatura máxima	9
72179	7	Sololá	702	San José Chacayá	5	Chacayá	1	Enero	2023-11-01T00:00:00	2024-11-06T23:00:00	3	Temperatura mínima	8.2
72180	7	Sololá	702	San José Chacayá	5	Chacayá	1	Enero	2023-11-01T00:00:00	2024-11-06T23:00:00	5	Humedad	92
72181	7	Sololá	702	San José Chacayá	5	Chacayá	1	Enero	2023-11-01T00:00:00	2024-11-06T23:00:00	6	Velocidad del viento	0
72182	7	Sololá	702	San José Chacayá	5	Chacayá	1	Enero	2023-11-01T00:00:00	2024-11-06T23:00:00	7	Dirección del viento	0
72183	7	Sololá	702	San José Chacayá	5	Chacayá	1	Enero	2023-11-01T00:00:00	2024-11-06T23:00:00	1	Precipitación	0
72184	7	Sololá	702	San José Chacayá	5	Chacayá	1	Enero	2023-11-01T00:00:00	2024-11-06T23:00:00	8	Radiación solar	0
72185	7	Sololá	702	San José Chacayá	5	Chacayá	1	Enero	2023-12-01T00:00:00	2024-11-06T00:00:00	2	Temperatura media	7.6
72186	7	Sololá	702	San José Chacayá	5	Chacayá	1	Enero	2023-12-01T00:00:00	2024-11-06T00:00:00	4	Temperatura máxima	8.2
72187	7	Sololá	702	San José Chacayá	5	Chacayá	1	Enero	2023-12-01T00:00:00	2024-11-06T00:00:00	3	Temperatura mínima	7.5
72188	7	Sololá	702	San José Chacayá	5	Chacayá	1	Enero	2023-12-01T00:00:00	2024-11-06T00:00:00	5	Humedad	92
72189	7	Sololá	702	San José Chacayá	5	Chacayá	1	Enero	2023-12-01T00:00:00	2024-11-06T00:00:00	6	Velocidad del viento	1.6
72190	7	Sololá	702	San José Chacayá	5	Chacayá	1	Enero	2023-12-01T00:00:00	2024-11-06T00:00:00	7	Dirección del viento	1.61
72191	7	Sololá	702	San José Chacayá	5	Chacayá	1	Enero	2023-12-01T00:00:00	2024-11-06T00:00:00	1	Precipitación	0
72192	7	Sololá	702	San José Chacayá	5	Chacayá	1	Enero	2023-12-01T00:00:00	2024-11-06T00:00:00	8	Radiación solar	0
72193	7	Sololá	702	San José Chacayá	5	Chacayá	1	Enero	2023-12-01T00:00:00	2024-11-06T01:00:00	2	Temperatura media	7.4
72194	7	Sololá	702	San José Chacayá	5	Chacayá	1	Enero	2023-12-01T00:00:00	2024-11-06T01:00:00	4	Temperatura máxima	7.6
72195	7	Sololá	702	San José Chacayá	5	Chacayá	1	Enero	2023-12-01T00:00:00	2024-11-06T01:00:00	3	Temperatura mínima	7.3
72196	7	Sololá	702	San José Chacayá	5	Chacayá	1	Enero	2023-12-01T00:00:00	2024-11-06T01:00:00	5	Humedad	93
72197	7	Sololá	702	San José Chacayá	5	Chacayá	1	Enero	2023-12-01T00:00:00	2024-11-06T01:00:00	6	Velocidad del viento	1.6
72198	7	Sololá	702	San José Chacayá	5	Chacayá	1	Enero	2023-12-01T00:00:00	2024-11-06T01:00:00	7	Dirección del viento	1.61
72199	7	Sololá	702	San José Chacayá	5	Chacayá	1	Enero	2023-12-01T00:00:00	2024-11-06T01:00:00	1	Precipitación	0
72200	7	Sololá	702	San José Chacayá	5	Chacayá	1	Enero	2023-12-01T00:00:00	2024-11-06T01:00:00	8	Radiación solar	0
72201	7	Sololá	702	San José Chacayá	5	Chacayá	1	Enero	2023-12-01T00:00:00	2024-11-06T02:00:00	2	Temperatura media	7.1
72202	7	Sololá	702	San José Chacayá	5	Chacayá	1	Enero	2023-12-01T00:00:00	2024-11-06T02:00:00	4	Temperatura máxima	7.4
72203	7	Sololá	702	San José Chacayá	5	Chacayá	1	Enero	2023-12-01T00:00:00	2024-11-06T02:00:00	3	Temperatura mínima	7.1
72204	7	Sololá	702	San José Chacayá	5	Chacayá	1	Enero	2023-12-01T00:00:00	2024-11-06T02:00:00	5	Humedad	92
72205	7	Sololá	702	San José Chacayá	5	Chacayá	1	Enero	2023-12-01T00:00:00	2024-11-06T02:00:00	6	Velocidad del viento	1.6
72206	7	Sololá	702	San José Chacayá	5	Chacayá	1	Enero	2023-12-01T00:00:00	2024-11-06T02:00:00	7	Dirección del viento	1.61
72207	7	Sololá	702	San José Chacayá	5	Chacayá	1	Enero	2023-12-01T00:00:00	2024-11-06T02:00:00	1	Precipitación	0
72208	7	Sololá	702	San José Chacayá	5	Chacayá	1	Enero	2023-12-01T00:00:00	2024-11-06T02:00:00	8	Radiación solar	0
72209	7	Sololá	702	San José Chacayá	5	Chacayá	1	Enero	2023-12-01T00:00:00	2024-11-06T03:00:00	2	Temperatura media	7.4
72210	7	Sololá	702	San José Chacayá	5	Chacayá	1	Enero	2023-12-01T00:00:00	2024-11-06T03:00:00	4	Temperatura máxima	7.5
72211	7	Sololá	702	San José Chacayá	5	Chacayá	1	Enero	2023-12-01T00:00:00	2024-11-06T03:00:00	3	Temperatura mínima	7.1
72212	7	Sololá	702	San José Chacayá	5	Chacayá	1	Enero	2023-12-01T00:00:00	2024-11-06T03:00:00	5	Humedad	92
72213	7	Sololá	702	San José Chacayá	5	Chacayá	1	Enero	2023-12-01T00:00:00	2024-11-06T03:00:00	6	Velocidad del viento	1.6
72214	7	Sololá	702	San José Chacayá	5	Chacayá	1	Enero	2023-12-01T00:00:00	2024-11-06T03:00:00	7	Dirección del viento	1.61
72215	7	Sololá	702	San José Chacayá	5	Chacayá	1	Enero	2023-12-01T00:00:00	2024-11-06T03:00:00	1	Precipitación	0
72216	7	Sololá	702	San José Chacayá	5	Chacayá	1	Enero	2023-12-01T00:00:00	2024-11-06T03:00:00	8	Radiación solar	0
72217	7	Sololá	702	San José Chacayá	5	Chacayá	1	Enero	2023-12-01T00:00:00	2024-11-06T04:00:00	2	Temperatura media	6.7
72218	7	Sololá	702	San José Chacayá	5	Chacayá	1	Enero	2023-12-01T00:00:00	2024-11-06T04:00:00	4	Temperatura máxima	7.4
72219	7	Sololá	702	San José Chacayá	5	Chacayá	1	Enero	2023-12-01T00:00:00	2024-11-06T04:00:00	3	Temperatura mínima	6.7
72220	7	Sololá	702	San José Chacayá	5	Chacayá	1	Enero	2023-12-01T00:00:00	2024-11-06T04:00:00	5	Humedad	93
72221	7	Sololá	702	San José Chacayá	5	Chacayá	1	Enero	2023-12-01T00:00:00	2024-11-06T04:00:00	6	Velocidad del viento	1.6
72222	7	Sololá	702	San José Chacayá	5	Chacayá	1	Enero	2023-12-01T00:00:00	2024-11-06T04:00:00	7	Dirección del viento	1.61
72223	7	Sololá	702	San José Chacayá	5	Chacayá	1	Enero	2023-12-01T00:00:00	2024-11-06T04:00:00	1	Precipitación	0
72224	7	Sololá	702	San José Chacayá	5	Chacayá	1	Enero	2023-12-01T00:00:00	2024-11-06T04:00:00	8	Radiación solar	0
72225	7	Sololá	702	San José Chacayá	5	Chacayá	1	Enero	2023-12-01T00:00:00	2024-11-06T05:00:00	2	Temperatura media	6.8
72226	7	Sololá	702	San José Chacayá	5	Chacayá	1	Enero	2023-12-01T00:00:00	2024-11-06T05:00:00	4	Temperatura máxima	6.8
72227	7	Sololá	702	San José Chacayá	5	Chacayá	1	Enero	2023-12-01T00:00:00	2024-11-06T05:00:00	3	Temperatura mínima	6.4
72228	7	Sololá	702	San José Chacayá	5	Chacayá	1	Enero	2023-12-01T00:00:00	2024-11-06T05:00:00	5	Humedad	93
72229	7	Sololá	702	San José Chacayá	5	Chacayá	1	Enero	2023-12-01T00:00:00	2024-11-06T05:00:00	6	Velocidad del viento	1.6
72230	7	Sololá	702	San José Chacayá	5	Chacayá	1	Enero	2023-12-01T00:00:00	2024-11-06T05:00:00	7	Dirección del viento	1.61
72231	7	Sololá	702	San José Chacayá	5	Chacayá	1	Enero	2023-12-01T00:00:00	2024-11-06T05:00:00	1	Precipitación	0
72232	7	Sololá	702	San José Chacayá	5	Chacayá	1	Enero	2023-12-01T00:00:00	2024-11-06T05:00:00	8	Radiación solar	0
72233	7	Sololá	702	San José Chacayá	5	Chacayá	1	Enero	2023-12-01T00:00:00	2024-11-06T06:00:00	2	Temperatura media	6.9
72234	7	Sololá	702	San José Chacayá	5	Chacayá	1	Enero	2023-12-01T00:00:00	2024-11-06T06:00:00	4	Temperatura máxima	6.9
72235	7	Sololá	702	San José Chacayá	5	Chacayá	1	Enero	2023-12-01T00:00:00	2024-11-06T06:00:00	3	Temperatura mínima	6.5
72236	7	Sololá	702	San José Chacayá	5	Chacayá	1	Enero	2023-12-01T00:00:00	2024-11-06T06:00:00	5	Humedad	92
72237	7	Sololá	702	San José Chacayá	5	Chacayá	1	Enero	2023-12-01T00:00:00	2024-11-06T06:00:00	6	Velocidad del viento	1.6
72238	7	Sololá	702	San José Chacayá	5	Chacayá	1	Enero	2023-12-01T00:00:00	2024-11-06T06:00:00	7	Dirección del viento	1.61
72239	7	Sololá	702	San José Chacayá	5	Chacayá	1	Enero	2023-12-01T00:00:00	2024-11-06T06:00:00	1	Precipitación	0
72240	7	Sololá	702	San José Chacayá	5	Chacayá	1	Enero	2023-12-01T00:00:00	2024-11-06T06:00:00	8	Radiación solar	0
72241	7	Sololá	702	San José Chacayá	5	Chacayá	1	Enero	2023-12-01T00:00:00	2024-11-06T07:00:00	2	Temperatura media	12
72242	7	Sololá	702	San José Chacayá	5	Chacayá	1	Enero	2023-12-01T00:00:00	2024-11-06T07:00:00	4	Temperatura máxima	12
72243	7	Sololá	702	San José Chacayá	5	Chacayá	1	Enero	2023-12-01T00:00:00	2024-11-06T07:00:00	3	Temperatura mínima	6.9
72244	7	Sololá	702	San José Chacayá	5	Chacayá	1	Enero	2023-12-01T00:00:00	2024-11-06T07:00:00	5	Humedad	83
72245	7	Sololá	702	San José Chacayá	5	Chacayá	1	Enero	2023-12-01T00:00:00	2024-11-06T07:00:00	6	Velocidad del viento	1.6
72246	7	Sololá	702	San José Chacayá	5	Chacayá	1	Enero	2023-12-01T00:00:00	2024-11-06T07:00:00	7	Dirección del viento	1.61
72247	7	Sololá	702	San José Chacayá	5	Chacayá	1	Enero	2023-12-01T00:00:00	2024-11-06T07:00:00	1	Precipitación	0
72248	7	Sololá	702	San José Chacayá	5	Chacayá	1	Enero	2023-12-01T00:00:00	2024-11-06T07:00:00	8	Radiación solar	11
72249	7	Sololá	702	San José Chacayá	5	Chacayá	1	Enero	2023-12-01T00:00:00	2024-11-06T08:00:00	2	Temperatura media	17.4
72250	7	Sololá	702	San José Chacayá	5	Chacayá	1	Enero	2023-12-01T00:00:00	2024-11-06T08:00:00	4	Temperatura máxima	17.4
72251	7	Sololá	702	San José Chacayá	5	Chacayá	1	Enero	2023-12-01T00:00:00	2024-11-06T08:00:00	3	Temperatura mínima	12
72252	7	Sololá	702	San José Chacayá	5	Chacayá	1	Enero	2023-12-01T00:00:00	2024-11-06T08:00:00	5	Humedad	62
72253	7	Sololá	702	San José Chacayá	5	Chacayá	1	Enero	2023-12-01T00:00:00	2024-11-06T08:00:00	6	Velocidad del viento	1.6
72254	7	Sololá	702	San José Chacayá	5	Chacayá	1	Enero	2023-12-01T00:00:00	2024-11-06T08:00:00	7	Dirección del viento	1.61
72255	7	Sololá	702	San José Chacayá	5	Chacayá	1	Enero	2023-12-01T00:00:00	2024-11-06T08:00:00	1	Precipitación	0
72256	7	Sololá	702	San José Chacayá	5	Chacayá	1	Enero	2023-12-01T00:00:00	2024-11-06T08:00:00	8	Radiación solar	169
72257	7	Sololá	702	San José Chacayá	5	Chacayá	1	Enero	2023-12-01T00:00:00	2024-11-06T09:00:00	2	Temperatura media	19.9
72258	7	Sololá	702	San José Chacayá	5	Chacayá	1	Enero	2023-12-01T00:00:00	2024-11-06T09:00:00	4	Temperatura máxima	19.9
72259	7	Sololá	702	San José Chacayá	5	Chacayá	1	Enero	2023-12-01T00:00:00	2024-11-06T09:00:00	3	Temperatura mínima	17.4
72260	7	Sololá	702	San José Chacayá	5	Chacayá	1	Enero	2023-12-01T00:00:00	2024-11-06T09:00:00	5	Humedad	57
72261	7	Sololá	702	San José Chacayá	5	Chacayá	1	Enero	2023-12-01T00:00:00	2024-11-06T09:00:00	6	Velocidad del viento	3.2
72262	7	Sololá	702	San José Chacayá	5	Chacayá	1	Enero	2023-12-01T00:00:00	2024-11-06T09:00:00	7	Dirección del viento	3.22
72263	7	Sololá	702	San José Chacayá	5	Chacayá	1	Enero	2023-12-01T00:00:00	2024-11-06T09:00:00	1	Precipitación	0
72264	7	Sololá	702	San José Chacayá	5	Chacayá	1	Enero	2023-12-01T00:00:00	2024-11-06T09:00:00	8	Radiación solar	395
72265	7	Sololá	702	San José Chacayá	5	Chacayá	1	Enero	2023-12-01T00:00:00	2024-11-06T10:00:00	2	Temperatura media	21.3
72266	7	Sololá	702	San José Chacayá	5	Chacayá	1	Enero	2023-12-01T00:00:00	2024-11-06T10:00:00	4	Temperatura máxima	21.3
72267	7	Sololá	702	San José Chacayá	5	Chacayá	1	Enero	2023-12-01T00:00:00	2024-11-06T10:00:00	3	Temperatura mínima	19.9
72268	7	Sololá	702	San José Chacayá	5	Chacayá	1	Enero	2023-12-01T00:00:00	2024-11-06T10:00:00	5	Humedad	55
72269	7	Sololá	702	San José Chacayá	5	Chacayá	1	Enero	2023-12-01T00:00:00	2024-11-06T10:00:00	6	Velocidad del viento	3.2
72270	7	Sololá	702	San José Chacayá	5	Chacayá	1	Enero	2023-12-01T00:00:00	2024-11-06T10:00:00	7	Dirección del viento	3.22
72271	7	Sololá	702	San José Chacayá	5	Chacayá	1	Enero	2023-12-01T00:00:00	2024-11-06T10:00:00	1	Precipitación	0
72272	7	Sololá	702	San José Chacayá	5	Chacayá	1	Enero	2023-12-01T00:00:00	2024-11-06T10:00:00	8	Radiación solar	592
72273	7	Sololá	702	San José Chacayá	5	Chacayá	1	Enero	2023-12-01T00:00:00	2024-11-06T11:00:00	2	Temperatura media	21.7
72274	7	Sololá	702	San José Chacayá	5	Chacayá	1	Enero	2023-12-01T00:00:00	2024-11-06T11:00:00	4	Temperatura máxima	21.9
72275	7	Sololá	702	San José Chacayá	5	Chacayá	1	Enero	2023-12-01T00:00:00	2024-11-06T11:00:00	3	Temperatura mínima	20.9
72276	7	Sololá	702	San José Chacayá	5	Chacayá	1	Enero	2023-12-01T00:00:00	2024-11-06T11:00:00	5	Humedad	55
72277	7	Sololá	702	San José Chacayá	5	Chacayá	1	Enero	2023-12-01T00:00:00	2024-11-06T11:00:00	6	Velocidad del viento	4.8
72278	7	Sololá	702	San José Chacayá	5	Chacayá	1	Enero	2023-12-01T00:00:00	2024-11-06T11:00:00	7	Dirección del viento	4.83
72279	7	Sololá	702	San José Chacayá	5	Chacayá	1	Enero	2023-12-01T00:00:00	2024-11-06T11:00:00	1	Precipitación	0
72280	7	Sololá	702	San José Chacayá	5	Chacayá	1	Enero	2023-12-01T00:00:00	2024-11-06T11:00:00	8	Radiación solar	743
72281	7	Sololá	702	San José Chacayá	5	Chacayá	1	Enero	2023-12-01T00:00:00	2024-11-06T12:00:00	2	Temperatura media	20.9
72282	7	Sololá	702	San José Chacayá	5	Chacayá	1	Enero	2023-12-01T00:00:00	2024-11-06T12:00:00	4	Temperatura máxima	21.7
72283	7	Sololá	702	San José Chacayá	5	Chacayá	1	Enero	2023-12-01T00:00:00	2024-11-06T12:00:00	3	Temperatura mínima	20.8
72284	7	Sololá	702	San José Chacayá	5	Chacayá	1	Enero	2023-12-01T00:00:00	2024-11-06T12:00:00	5	Humedad	64
72285	7	Sololá	702	San José Chacayá	5	Chacayá	1	Enero	2023-12-01T00:00:00	2024-11-06T12:00:00	6	Velocidad del viento	4.8
72286	7	Sololá	702	San José Chacayá	5	Chacayá	1	Enero	2023-12-01T00:00:00	2024-11-06T12:00:00	7	Dirección del viento	4.83
72287	7	Sololá	702	San José Chacayá	5	Chacayá	1	Enero	2023-12-01T00:00:00	2024-11-06T12:00:00	1	Precipitación	0
72288	7	Sololá	702	San José Chacayá	5	Chacayá	1	Enero	2023-12-01T00:00:00	2024-11-06T12:00:00	8	Radiación solar	833
72289	7	Sololá	702	San José Chacayá	5	Chacayá	1	Enero	2023-12-01T00:00:00	2024-11-06T13:00:00	2	Temperatura media	19.5
72290	7	Sololá	702	San José Chacayá	5	Chacayá	1	Enero	2023-12-01T00:00:00	2024-11-06T13:00:00	4	Temperatura máxima	20.9
72291	7	Sololá	702	San José Chacayá	5	Chacayá	1	Enero	2023-12-01T00:00:00	2024-11-06T13:00:00	3	Temperatura mínima	19.5
72292	7	Sololá	702	San José Chacayá	5	Chacayá	1	Enero	2023-12-01T00:00:00	2024-11-06T13:00:00	5	Humedad	70
72293	7	Sololá	702	San José Chacayá	5	Chacayá	1	Enero	2023-12-01T00:00:00	2024-11-06T13:00:00	6	Velocidad del viento	6.4
72294	7	Sololá	702	San José Chacayá	5	Chacayá	1	Enero	2023-12-01T00:00:00	2024-11-06T13:00:00	7	Dirección del viento	6.44
72295	7	Sololá	702	San José Chacayá	5	Chacayá	1	Enero	2023-12-01T00:00:00	2024-11-06T13:00:00	1	Precipitación	0
72296	7	Sololá	702	San José Chacayá	5	Chacayá	1	Enero	2023-12-01T00:00:00	2024-11-06T13:00:00	8	Radiación solar	884
72297	7	Sololá	702	San José Chacayá	5	Chacayá	1	Enero	2023-12-01T00:00:00	2024-11-06T14:00:00	2	Temperatura media	18.4
72298	7	Sololá	702	San José Chacayá	5	Chacayá	1	Enero	2023-12-01T00:00:00	2024-11-06T14:00:00	4	Temperatura máxima	19.6
72299	7	Sololá	702	San José Chacayá	5	Chacayá	1	Enero	2023-12-01T00:00:00	2024-11-06T14:00:00	3	Temperatura mínima	18.4
72300	7	Sololá	702	San José Chacayá	5	Chacayá	1	Enero	2023-12-01T00:00:00	2024-11-06T14:00:00	5	Humedad	74
72301	7	Sololá	702	San José Chacayá	5	Chacayá	1	Enero	2023-12-01T00:00:00	2024-11-06T14:00:00	6	Velocidad del viento	6.4
72302	7	Sololá	702	San José Chacayá	5	Chacayá	1	Enero	2023-12-01T00:00:00	2024-11-06T14:00:00	7	Dirección del viento	6.44
72303	7	Sololá	702	San José Chacayá	5	Chacayá	1	Enero	2023-12-01T00:00:00	2024-11-06T14:00:00	1	Precipitación	0
72304	7	Sololá	702	San José Chacayá	5	Chacayá	1	Enero	2023-12-01T00:00:00	2024-11-06T14:00:00	8	Radiación solar	571
72305	7	Sololá	702	San José Chacayá	5	Chacayá	1	Enero	2023-12-01T00:00:00	2024-11-06T15:00:00	2	Temperatura media	17.7
72306	7	Sololá	702	San José Chacayá	5	Chacayá	1	Enero	2023-12-01T00:00:00	2024-11-06T15:00:00	4	Temperatura máxima	18.5
72307	7	Sololá	702	San José Chacayá	5	Chacayá	1	Enero	2023-12-01T00:00:00	2024-11-06T15:00:00	3	Temperatura mínima	17.4
72308	7	Sololá	702	San José Chacayá	5	Chacayá	1	Enero	2023-12-01T00:00:00	2024-11-06T15:00:00	5	Humedad	77
72309	7	Sololá	702	San José Chacayá	5	Chacayá	1	Enero	2023-12-01T00:00:00	2024-11-06T15:00:00	6	Velocidad del viento	4.8
72310	7	Sololá	702	San José Chacayá	5	Chacayá	1	Enero	2023-12-01T00:00:00	2024-11-06T15:00:00	7	Dirección del viento	4.83
72311	7	Sololá	702	San José Chacayá	5	Chacayá	1	Enero	2023-12-01T00:00:00	2024-11-06T15:00:00	1	Precipitación	0
72312	7	Sololá	702	San José Chacayá	5	Chacayá	1	Enero	2023-12-01T00:00:00	2024-11-06T15:00:00	8	Radiación solar	130
72313	7	Sololá	702	San José Chacayá	5	Chacayá	1	Enero	2023-12-01T00:00:00	2024-11-06T16:00:00	2	Temperatura media	16.6
72314	7	Sololá	702	San José Chacayá	5	Chacayá	1	Enero	2023-12-01T00:00:00	2024-11-06T16:00:00	4	Temperatura máxima	17.6
72315	7	Sololá	702	San José Chacayá	5	Chacayá	1	Enero	2023-12-01T00:00:00	2024-11-06T16:00:00	3	Temperatura mínima	16.5
72316	7	Sololá	702	San José Chacayá	5	Chacayá	1	Enero	2023-12-01T00:00:00	2024-11-06T16:00:00	5	Humedad	84
72317	7	Sololá	702	San José Chacayá	5	Chacayá	1	Enero	2023-12-01T00:00:00	2024-11-06T16:00:00	6	Velocidad del viento	3.2
72318	7	Sololá	702	San José Chacayá	5	Chacayá	1	Enero	2023-12-01T00:00:00	2024-11-06T16:00:00	7	Dirección del viento	3.22
72319	7	Sololá	702	San José Chacayá	5	Chacayá	1	Enero	2023-12-01T00:00:00	2024-11-06T16:00:00	1	Precipitación	0
72320	7	Sololá	702	San José Chacayá	5	Chacayá	1	Enero	2023-12-01T00:00:00	2024-11-06T16:00:00	8	Radiación solar	84
72321	7	Sololá	702	San José Chacayá	5	Chacayá	1	Enero	2023-12-01T00:00:00	2024-11-06T17:00:00	2	Temperatura media	14.9
72322	7	Sololá	702	San José Chacayá	5	Chacayá	1	Enero	2023-12-01T00:00:00	2024-11-06T17:00:00	4	Temperatura máxima	16.5
72323	7	Sololá	702	San José Chacayá	5	Chacayá	1	Enero	2023-12-01T00:00:00	2024-11-06T17:00:00	3	Temperatura mínima	14.9
72324	7	Sololá	702	San José Chacayá	5	Chacayá	1	Enero	2023-12-01T00:00:00	2024-11-06T17:00:00	5	Humedad	90
72325	7	Sololá	702	San José Chacayá	5	Chacayá	1	Enero	2023-12-01T00:00:00	2024-11-06T17:00:00	6	Velocidad del viento	1.6
72326	7	Sololá	702	San José Chacayá	5	Chacayá	1	Enero	2023-12-01T00:00:00	2024-11-06T17:00:00	7	Dirección del viento	1.61
72327	7	Sololá	702	San José Chacayá	5	Chacayá	1	Enero	2023-12-01T00:00:00	2024-11-06T17:00:00	1	Precipitación	0
72328	7	Sololá	702	San José Chacayá	5	Chacayá	1	Enero	2023-12-01T00:00:00	2024-11-06T17:00:00	8	Radiación solar	66
72329	7	Sololá	702	San José Chacayá	5	Chacayá	1	Enero	2023-12-01T00:00:00	2024-11-06T18:00:00	2	Temperatura media	13.7
72330	7	Sololá	702	San José Chacayá	5	Chacayá	1	Enero	2023-12-01T00:00:00	2024-11-06T18:00:00	4	Temperatura máxima	14.9
72331	7	Sololá	702	San José Chacayá	5	Chacayá	1	Enero	2023-12-01T00:00:00	2024-11-06T18:00:00	3	Temperatura mínima	13.7
72332	7	Sololá	702	San José Chacayá	5	Chacayá	1	Enero	2023-12-01T00:00:00	2024-11-06T18:00:00	5	Humedad	89
72333	7	Sololá	702	San José Chacayá	5	Chacayá	1	Enero	2023-12-01T00:00:00	2024-11-06T18:00:00	6	Velocidad del viento	0
72334	7	Sololá	702	San José Chacayá	5	Chacayá	1	Enero	2023-12-01T00:00:00	2024-11-06T18:00:00	7	Dirección del viento	0
72335	7	Sololá	702	San José Chacayá	5	Chacayá	1	Enero	2023-12-01T00:00:00	2024-11-06T18:00:00	1	Precipitación	0
72336	7	Sololá	702	San José Chacayá	5	Chacayá	1	Enero	2023-12-01T00:00:00	2024-11-06T18:00:00	8	Radiación solar	7
72337	7	Sololá	702	San José Chacayá	5	Chacayá	1	Enero	2023-12-01T00:00:00	2024-11-06T19:00:00	2	Temperatura media	12.3
72338	7	Sololá	702	San José Chacayá	5	Chacayá	1	Enero	2023-12-01T00:00:00	2024-11-06T19:00:00	4	Temperatura máxima	13.7
72339	7	Sololá	702	San José Chacayá	5	Chacayá	1	Enero	2023-12-01T00:00:00	2024-11-06T19:00:00	3	Temperatura mínima	12.3
72340	7	Sololá	702	San José Chacayá	5	Chacayá	1	Enero	2023-12-01T00:00:00	2024-11-06T19:00:00	5	Humedad	91
72341	7	Sololá	702	San José Chacayá	5	Chacayá	1	Enero	2023-12-01T00:00:00	2024-11-06T19:00:00	6	Velocidad del viento	0
72342	7	Sololá	702	San José Chacayá	5	Chacayá	1	Enero	2023-12-01T00:00:00	2024-11-06T19:00:00	7	Dirección del viento	0
72343	7	Sololá	702	San José Chacayá	5	Chacayá	1	Enero	2023-12-01T00:00:00	2024-11-06T19:00:00	1	Precipitación	0
72344	7	Sololá	702	San José Chacayá	5	Chacayá	1	Enero	2023-12-01T00:00:00	2024-11-06T19:00:00	8	Radiación solar	0
72345	7	Sololá	702	San José Chacayá	5	Chacayá	1	Enero	2023-12-01T00:00:00	2024-11-06T20:00:00	2	Temperatura media	11.6
72346	7	Sololá	702	San José Chacayá	5	Chacayá	1	Enero	2023-12-01T00:00:00	2024-11-06T20:00:00	4	Temperatura máxima	12.3
72347	7	Sololá	702	San José Chacayá	5	Chacayá	1	Enero	2023-12-01T00:00:00	2024-11-06T20:00:00	3	Temperatura mínima	11.6
72348	7	Sololá	702	San José Chacayá	5	Chacayá	1	Enero	2023-12-01T00:00:00	2024-11-06T20:00:00	5	Humedad	91
72349	7	Sololá	702	San José Chacayá	5	Chacayá	1	Enero	2023-12-01T00:00:00	2024-11-06T20:00:00	6	Velocidad del viento	0
72350	7	Sololá	702	San José Chacayá	5	Chacayá	1	Enero	2023-12-01T00:00:00	2024-11-06T20:00:00	7	Dirección del viento	0
72351	7	Sololá	702	San José Chacayá	5	Chacayá	1	Enero	2023-12-01T00:00:00	2024-11-06T20:00:00	1	Precipitación	0
72352	7	Sololá	702	San José Chacayá	5	Chacayá	1	Enero	2023-12-01T00:00:00	2024-11-06T20:00:00	8	Radiación solar	0
72353	7	Sololá	702	San José Chacayá	5	Chacayá	1	Enero	2023-12-01T00:00:00	2024-11-06T21:00:00	2	Temperatura media	13.2
72354	7	Sololá	702	San José Chacayá	5	Chacayá	1	Enero	2023-12-01T00:00:00	2024-11-06T21:00:00	4	Temperatura máxima	13.2
72355	7	Sololá	702	San José Chacayá	5	Chacayá	1	Enero	2023-12-01T00:00:00	2024-11-06T21:00:00	3	Temperatura mínima	11.6
72356	7	Sololá	702	San José Chacayá	5	Chacayá	1	Enero	2023-12-01T00:00:00	2024-11-06T21:00:00	5	Humedad	83
72357	7	Sololá	702	San José Chacayá	5	Chacayá	1	Enero	2023-12-01T00:00:00	2024-11-06T21:00:00	6	Velocidad del viento	1.6
72358	7	Sololá	702	San José Chacayá	5	Chacayá	1	Enero	2023-12-01T00:00:00	2024-11-06T21:00:00	7	Dirección del viento	1.61
72359	7	Sololá	702	San José Chacayá	5	Chacayá	1	Enero	2023-12-01T00:00:00	2024-11-06T21:00:00	1	Precipitación	0
72360	7	Sololá	702	San José Chacayá	5	Chacayá	1	Enero	2023-12-01T00:00:00	2024-11-06T21:00:00	8	Radiación solar	0
72361	7	Sololá	702	San José Chacayá	5	Chacayá	1	Enero	2023-12-01T00:00:00	2024-11-06T22:00:00	2	Temperatura media	10.7
72362	7	Sololá	702	San José Chacayá	5	Chacayá	1	Enero	2023-12-01T00:00:00	2024-11-06T22:00:00	4	Temperatura máxima	13.2
72363	7	Sololá	702	San José Chacayá	5	Chacayá	1	Enero	2023-12-01T00:00:00	2024-11-06T22:00:00	3	Temperatura mínima	10.7
72364	7	Sololá	702	San José Chacayá	5	Chacayá	1	Enero	2023-12-01T00:00:00	2024-11-06T22:00:00	5	Humedad	89
72365	7	Sololá	702	San José Chacayá	5	Chacayá	1	Enero	2023-12-01T00:00:00	2024-11-06T22:00:00	6	Velocidad del viento	1.6
72366	7	Sololá	702	San José Chacayá	5	Chacayá	1	Enero	2023-12-01T00:00:00	2024-11-06T22:00:00	7	Dirección del viento	1.61
72367	7	Sololá	702	San José Chacayá	5	Chacayá	1	Enero	2023-12-01T00:00:00	2024-11-06T22:00:00	1	Precipitación	0
72368	7	Sololá	702	San José Chacayá	5	Chacayá	1	Enero	2023-12-01T00:00:00	2024-11-06T22:00:00	8	Radiación solar	0
72369	7	Sololá	702	San José Chacayá	5	Chacayá	1	Enero	2023-12-01T00:00:00	2024-11-06T23:00:00	2	Temperatura media	9.6
72370	7	Sololá	702	San José Chacayá	5	Chacayá	1	Enero	2023-12-01T00:00:00	2024-11-06T23:00:00	4	Temperatura máxima	10.7
72371	7	Sololá	702	San José Chacayá	5	Chacayá	1	Enero	2023-12-01T00:00:00	2024-11-06T23:00:00	3	Temperatura mínima	9.6
72372	7	Sololá	702	San José Chacayá	5	Chacayá	1	Enero	2023-12-01T00:00:00	2024-11-06T23:00:00	5	Humedad	91
72373	7	Sololá	702	San José Chacayá	5	Chacayá	1	Enero	2023-12-01T00:00:00	2024-11-06T23:00:00	6	Velocidad del viento	1.6
72374	7	Sololá	702	San José Chacayá	5	Chacayá	1	Enero	2023-12-01T00:00:00	2024-11-06T23:00:00	7	Dirección del viento	1.61
72375	7	Sololá	702	San José Chacayá	5	Chacayá	1	Enero	2023-12-01T00:00:00	2024-11-06T23:00:00	1	Precipitación	0
72376	7	Sololá	702	San José Chacayá	5	Chacayá	1	Enero	2023-12-01T00:00:00	2024-11-06T23:00:00	8	Radiación solar	0
72377	7	Sololá	702	San José Chacayá	5	Chacayá	1	Enero	2023-01-13T00:00:00	2024-11-06T00:00:00	2	Temperatura media	9.1
72378	7	Sololá	702	San José Chacayá	5	Chacayá	1	Enero	2023-01-13T00:00:00	2024-11-06T00:00:00	4	Temperatura máxima	9.7
72379	7	Sololá	702	San José Chacayá	5	Chacayá	1	Enero	2023-01-13T00:00:00	2024-11-06T00:00:00	3	Temperatura mínima	9.1
72380	7	Sololá	702	San José Chacayá	5	Chacayá	1	Enero	2023-01-13T00:00:00	2024-11-06T00:00:00	5	Humedad	92
72381	7	Sololá	702	San José Chacayá	5	Chacayá	1	Enero	2023-01-13T00:00:00	2024-11-06T00:00:00	6	Velocidad del viento	1.6
72382	7	Sololá	702	San José Chacayá	5	Chacayá	1	Enero	2023-01-13T00:00:00	2024-11-06T00:00:00	7	Dirección del viento	1.61
72383	7	Sololá	702	San José Chacayá	5	Chacayá	1	Enero	2023-01-13T00:00:00	2024-11-06T00:00:00	1	Precipitación	0
72384	7	Sololá	702	San José Chacayá	5	Chacayá	1	Enero	2023-01-13T00:00:00	2024-11-06T00:00:00	8	Radiación solar	0
72385	7	Sololá	702	San José Chacayá	5	Chacayá	1	Enero	2023-01-13T00:00:00	2024-11-06T01:00:00	2	Temperatura media	8.6
72386	7	Sololá	702	San José Chacayá	5	Chacayá	1	Enero	2023-01-13T00:00:00	2024-11-06T01:00:00	4	Temperatura máxima	9.1
72387	7	Sololá	702	San José Chacayá	5	Chacayá	1	Enero	2023-01-13T00:00:00	2024-11-06T01:00:00	3	Temperatura mínima	8.6
72388	7	Sololá	702	San José Chacayá	5	Chacayá	1	Enero	2023-01-13T00:00:00	2024-11-06T01:00:00	5	Humedad	90
72389	7	Sololá	702	San José Chacayá	5	Chacayá	1	Enero	2023-01-13T00:00:00	2024-11-06T01:00:00	6	Velocidad del viento	1.6
72390	7	Sololá	702	San José Chacayá	5	Chacayá	1	Enero	2023-01-13T00:00:00	2024-11-06T01:00:00	7	Dirección del viento	1.61
72391	7	Sololá	702	San José Chacayá	5	Chacayá	1	Enero	2023-01-13T00:00:00	2024-11-06T01:00:00	1	Precipitación	0
72392	7	Sololá	702	San José Chacayá	5	Chacayá	1	Enero	2023-01-13T00:00:00	2024-11-06T01:00:00	8	Radiación solar	0
72393	7	Sololá	702	San José Chacayá	5	Chacayá	1	Enero	2023-01-13T00:00:00	2024-11-06T02:00:00	2	Temperatura media	8.3
72394	7	Sololá	702	San José Chacayá	5	Chacayá	1	Enero	2023-01-13T00:00:00	2024-11-06T02:00:00	4	Temperatura máxima	8.7
72395	7	Sololá	702	San José Chacayá	5	Chacayá	1	Enero	2023-01-13T00:00:00	2024-11-06T02:00:00	3	Temperatura mínima	8.3
72396	7	Sololá	702	San José Chacayá	5	Chacayá	1	Enero	2023-01-13T00:00:00	2024-11-06T02:00:00	5	Humedad	87
72397	7	Sololá	702	San José Chacayá	5	Chacayá	1	Enero	2023-01-13T00:00:00	2024-11-06T02:00:00	6	Velocidad del viento	1.6
72398	7	Sololá	702	San José Chacayá	5	Chacayá	1	Enero	2023-01-13T00:00:00	2024-11-06T02:00:00	7	Dirección del viento	1.61
72399	7	Sololá	702	San José Chacayá	5	Chacayá	1	Enero	2023-01-13T00:00:00	2024-11-06T02:00:00	1	Precipitación	0
72400	7	Sololá	702	San José Chacayá	5	Chacayá	1	Enero	2023-01-13T00:00:00	2024-11-06T02:00:00	8	Radiación solar	0
72401	7	Sololá	702	San José Chacayá	5	Chacayá	1	Enero	2023-01-13T00:00:00	2024-11-06T03:00:00	2	Temperatura media	7.8
72402	7	Sololá	702	San José Chacayá	5	Chacayá	1	Enero	2023-01-13T00:00:00	2024-11-06T03:00:00	4	Temperatura máxima	8.5
72403	7	Sololá	702	San José Chacayá	5	Chacayá	1	Enero	2023-01-13T00:00:00	2024-11-06T03:00:00	3	Temperatura mínima	7.8
72404	7	Sololá	702	San José Chacayá	5	Chacayá	1	Enero	2023-01-13T00:00:00	2024-11-06T03:00:00	5	Humedad	86
72405	7	Sololá	702	San José Chacayá	5	Chacayá	1	Enero	2023-01-13T00:00:00	2024-11-06T03:00:00	6	Velocidad del viento	1.6
72406	7	Sololá	702	San José Chacayá	5	Chacayá	1	Enero	2023-01-13T00:00:00	2024-11-06T03:00:00	7	Dirección del viento	1.61
72407	7	Sololá	702	San José Chacayá	5	Chacayá	1	Enero	2023-01-13T00:00:00	2024-11-06T03:00:00	1	Precipitación	0
72408	7	Sololá	702	San José Chacayá	5	Chacayá	1	Enero	2023-01-13T00:00:00	2024-11-06T03:00:00	8	Radiación solar	0
72409	7	Sololá	702	San José Chacayá	5	Chacayá	1	Enero	2023-01-13T00:00:00	2024-11-06T04:00:00	2	Temperatura media	7.1
72410	7	Sololá	702	San José Chacayá	5	Chacayá	1	Enero	2023-01-13T00:00:00	2024-11-06T04:00:00	4	Temperatura máxima	7.8
72411	7	Sololá	702	San José Chacayá	5	Chacayá	1	Enero	2023-01-13T00:00:00	2024-11-06T04:00:00	3	Temperatura mínima	7
72412	7	Sololá	702	San José Chacayá	5	Chacayá	1	Enero	2023-01-13T00:00:00	2024-11-06T04:00:00	5	Humedad	87
72413	7	Sololá	702	San José Chacayá	5	Chacayá	1	Enero	2023-01-13T00:00:00	2024-11-06T04:00:00	6	Velocidad del viento	1.6
72414	7	Sololá	702	San José Chacayá	5	Chacayá	1	Enero	2023-01-13T00:00:00	2024-11-06T04:00:00	7	Dirección del viento	1.61
72415	7	Sololá	702	San José Chacayá	5	Chacayá	1	Enero	2023-01-13T00:00:00	2024-11-06T04:00:00	1	Precipitación	0
72416	7	Sololá	702	San José Chacayá	5	Chacayá	1	Enero	2023-01-13T00:00:00	2024-11-06T04:00:00	8	Radiación solar	0
72417	7	Sololá	702	San José Chacayá	5	Chacayá	1	Enero	2023-01-13T00:00:00	2024-11-06T05:00:00	2	Temperatura media	6.4
72418	7	Sololá	702	San José Chacayá	5	Chacayá	1	Enero	2023-01-13T00:00:00	2024-11-06T05:00:00	4	Temperatura máxima	7.1
72419	7	Sololá	702	San José Chacayá	5	Chacayá	1	Enero	2023-01-13T00:00:00	2024-11-06T05:00:00	3	Temperatura mínima	6.4
72420	7	Sololá	702	San José Chacayá	5	Chacayá	1	Enero	2023-01-13T00:00:00	2024-11-06T05:00:00	5	Humedad	89
72421	7	Sololá	702	San José Chacayá	5	Chacayá	1	Enero	2023-01-13T00:00:00	2024-11-06T05:00:00	6	Velocidad del viento	1.6
72422	7	Sololá	702	San José Chacayá	5	Chacayá	1	Enero	2023-01-13T00:00:00	2024-11-06T05:00:00	7	Dirección del viento	1.61
72423	7	Sololá	702	San José Chacayá	5	Chacayá	1	Enero	2023-01-13T00:00:00	2024-11-06T05:00:00	1	Precipitación	0
72424	7	Sololá	702	San José Chacayá	5	Chacayá	1	Enero	2023-01-13T00:00:00	2024-11-06T05:00:00	8	Radiación solar	0
72425	7	Sololá	702	San José Chacayá	5	Chacayá	1	Enero	2023-01-13T00:00:00	2024-11-06T06:00:00	2	Temperatura media	10.8
72426	7	Sololá	702	San José Chacayá	5	Chacayá	1	Enero	2023-01-13T00:00:00	2024-11-06T06:00:00	4	Temperatura máxima	10.9
72427	7	Sololá	702	San José Chacayá	5	Chacayá	1	Enero	2023-01-13T00:00:00	2024-11-06T06:00:00	3	Temperatura mínima	6.4
72428	7	Sololá	702	San José Chacayá	5	Chacayá	1	Enero	2023-01-13T00:00:00	2024-11-06T06:00:00	5	Humedad	77
72429	7	Sololá	702	San José Chacayá	5	Chacayá	1	Enero	2023-01-13T00:00:00	2024-11-06T06:00:00	6	Velocidad del viento	3.2
72430	7	Sololá	702	San José Chacayá	5	Chacayá	1	Enero	2023-01-13T00:00:00	2024-11-06T06:00:00	7	Dirección del viento	3.22
72431	7	Sololá	702	San José Chacayá	5	Chacayá	1	Enero	2023-01-13T00:00:00	2024-11-06T06:00:00	1	Precipitación	0
72432	7	Sololá	702	San José Chacayá	5	Chacayá	1	Enero	2023-01-13T00:00:00	2024-11-06T06:00:00	8	Radiación solar	0
72433	7	Sololá	702	San José Chacayá	5	Chacayá	1	Enero	2023-01-13T00:00:00	2024-11-06T07:00:00	2	Temperatura media	14.4
72434	7	Sololá	702	San José Chacayá	5	Chacayá	1	Enero	2023-01-13T00:00:00	2024-11-06T07:00:00	4	Temperatura máxima	14.6
72435	7	Sololá	702	San José Chacayá	5	Chacayá	1	Enero	2023-01-13T00:00:00	2024-11-06T07:00:00	3	Temperatura mínima	10.8
72436	7	Sololá	702	San José Chacayá	5	Chacayá	1	Enero	2023-01-13T00:00:00	2024-11-06T07:00:00	5	Humedad	69
72437	7	Sololá	702	San José Chacayá	5	Chacayá	1	Enero	2023-01-13T00:00:00	2024-11-06T07:00:00	6	Velocidad del viento	3.2
72438	7	Sololá	702	San José Chacayá	5	Chacayá	1	Enero	2023-01-13T00:00:00	2024-11-06T07:00:00	7	Dirección del viento	3.22
72439	7	Sololá	702	San José Chacayá	5	Chacayá	1	Enero	2023-01-13T00:00:00	2024-11-06T07:00:00	1	Precipitación	0
72440	7	Sololá	702	San José Chacayá	5	Chacayá	1	Enero	2023-01-13T00:00:00	2024-11-06T07:00:00	8	Radiación solar	9
72441	7	Sololá	702	San José Chacayá	5	Chacayá	1	Enero	2023-01-13T00:00:00	2024-11-06T08:00:00	2	Temperatura media	15.8
72442	7	Sololá	702	San José Chacayá	5	Chacayá	1	Enero	2023-01-13T00:00:00	2024-11-06T08:00:00	4	Temperatura máxima	16.1
72443	7	Sololá	702	San José Chacayá	5	Chacayá	1	Enero	2023-01-13T00:00:00	2024-11-06T08:00:00	3	Temperatura mínima	14.4
72444	7	Sololá	702	San José Chacayá	5	Chacayá	1	Enero	2023-01-13T00:00:00	2024-11-06T08:00:00	5	Humedad	66
72445	7	Sololá	702	San José Chacayá	5	Chacayá	1	Enero	2023-01-13T00:00:00	2024-11-06T08:00:00	6	Velocidad del viento	6.4
72446	7	Sololá	702	San José Chacayá	5	Chacayá	1	Enero	2023-01-13T00:00:00	2024-11-06T08:00:00	7	Dirección del viento	6.44
72447	7	Sololá	702	San José Chacayá	5	Chacayá	1	Enero	2023-01-13T00:00:00	2024-11-06T08:00:00	1	Precipitación	0
72448	7	Sololá	702	San José Chacayá	5	Chacayá	1	Enero	2023-01-13T00:00:00	2024-11-06T08:00:00	8	Radiación solar	197
72449	7	Sololá	702	San José Chacayá	5	Chacayá	1	Enero	2023-01-13T00:00:00	2024-11-06T09:00:00	2	Temperatura media	16.7
72450	7	Sololá	702	San José Chacayá	5	Chacayá	1	Enero	2023-01-13T00:00:00	2024-11-06T09:00:00	4	Temperatura máxima	17
72451	7	Sololá	702	San José Chacayá	5	Chacayá	1	Enero	2023-01-13T00:00:00	2024-11-06T09:00:00	3	Temperatura mínima	15.9
72452	7	Sololá	702	San José Chacayá	5	Chacayá	1	Enero	2023-01-13T00:00:00	2024-11-06T09:00:00	5	Humedad	66
72453	7	Sololá	702	San José Chacayá	5	Chacayá	1	Enero	2023-01-13T00:00:00	2024-11-06T09:00:00	6	Velocidad del viento	6.4
72454	7	Sololá	702	San José Chacayá	5	Chacayá	1	Enero	2023-01-13T00:00:00	2024-11-06T09:00:00	7	Dirección del viento	6.44
72455	7	Sololá	702	San José Chacayá	5	Chacayá	1	Enero	2023-01-13T00:00:00	2024-11-06T09:00:00	1	Precipitación	0
72456	7	Sololá	702	San José Chacayá	5	Chacayá	1	Enero	2023-01-13T00:00:00	2024-11-06T09:00:00	8	Radiación solar	398
72457	7	Sololá	702	San José Chacayá	5	Chacayá	1	Enero	2023-01-13T00:00:00	2024-11-06T10:00:00	2	Temperatura media	17
72458	7	Sololá	702	San José Chacayá	5	Chacayá	1	Enero	2023-01-13T00:00:00	2024-11-06T10:00:00	4	Temperatura máxima	17.1
72459	7	Sololá	702	San José Chacayá	5	Chacayá	1	Enero	2023-01-13T00:00:00	2024-11-06T10:00:00	3	Temperatura mínima	15.3
72460	7	Sololá	702	San José Chacayá	5	Chacayá	1	Enero	2023-01-13T00:00:00	2024-11-06T10:00:00	5	Humedad	65
72461	7	Sololá	702	San José Chacayá	5	Chacayá	1	Enero	2023-01-13T00:00:00	2024-11-06T10:00:00	6	Velocidad del viento	9.7
72462	7	Sololá	702	San José Chacayá	5	Chacayá	1	Enero	2023-01-13T00:00:00	2024-11-06T10:00:00	7	Dirección del viento	9.66
72463	7	Sololá	702	San José Chacayá	5	Chacayá	1	Enero	2023-01-13T00:00:00	2024-11-06T10:00:00	1	Precipitación	0
72464	7	Sololá	702	San José Chacayá	5	Chacayá	1	Enero	2023-01-13T00:00:00	2024-11-06T10:00:00	8	Radiación solar	95
72465	7	Sololá	702	San José Chacayá	5	Chacayá	1	Enero	2023-01-13T00:00:00	2024-11-06T11:00:00	2	Temperatura media	17.3
72466	7	Sololá	702	San José Chacayá	5	Chacayá	1	Enero	2023-01-13T00:00:00	2024-11-06T11:00:00	4	Temperatura máxima	17.5
72467	7	Sololá	702	San José Chacayá	5	Chacayá	1	Enero	2023-01-13T00:00:00	2024-11-06T11:00:00	3	Temperatura mínima	16.7
72468	7	Sololá	702	San José Chacayá	5	Chacayá	1	Enero	2023-01-13T00:00:00	2024-11-06T11:00:00	5	Humedad	61
72469	7	Sololá	702	San José Chacayá	5	Chacayá	1	Enero	2023-01-13T00:00:00	2024-11-06T11:00:00	6	Velocidad del viento	8
72470	7	Sololá	702	San José Chacayá	5	Chacayá	1	Enero	2023-01-13T00:00:00	2024-11-06T11:00:00	7	Dirección del viento	8.05
72471	7	Sololá	702	San José Chacayá	5	Chacayá	1	Enero	2023-01-13T00:00:00	2024-11-06T11:00:00	1	Precipitación	0
72472	7	Sololá	702	San José Chacayá	5	Chacayá	1	Enero	2023-01-13T00:00:00	2024-11-06T11:00:00	8	Radiación solar	35
72473	7	Sololá	702	San José Chacayá	5	Chacayá	1	Enero	2023-01-13T00:00:00	2024-11-06T12:00:00	2	Temperatura media	17.7
72474	7	Sololá	702	San José Chacayá	5	Chacayá	1	Enero	2023-01-13T00:00:00	2024-11-06T12:00:00	4	Temperatura máxima	18.1
72475	7	Sololá	702	San José Chacayá	5	Chacayá	1	Enero	2023-01-13T00:00:00	2024-11-06T12:00:00	3	Temperatura mínima	17.3
72476	7	Sololá	702	San José Chacayá	5	Chacayá	1	Enero	2023-01-13T00:00:00	2024-11-06T12:00:00	5	Humedad	60
72477	7	Sololá	702	San José Chacayá	5	Chacayá	1	Enero	2023-01-13T00:00:00	2024-11-06T12:00:00	6	Velocidad del viento	8
72478	7	Sololá	702	San José Chacayá	5	Chacayá	1	Enero	2023-01-13T00:00:00	2024-11-06T12:00:00	7	Dirección del viento	8.05
72479	7	Sololá	702	San José Chacayá	5	Chacayá	1	Enero	2023-01-13T00:00:00	2024-11-06T12:00:00	1	Precipitación	0
72480	7	Sololá	702	San José Chacayá	5	Chacayá	1	Enero	2023-01-13T00:00:00	2024-11-06T12:00:00	8	Radiación solar	701
72481	7	Sololá	702	San José Chacayá	5	Chacayá	1	Enero	2023-01-13T00:00:00	2024-11-06T13:00:00	2	Temperatura media	18.1
72482	7	Sololá	702	San José Chacayá	5	Chacayá	1	Enero	2023-01-13T00:00:00	2024-11-06T13:00:00	4	Temperatura máxima	18.9
72483	7	Sololá	702	San José Chacayá	5	Chacayá	1	Enero	2023-01-13T00:00:00	2024-11-06T13:00:00	3	Temperatura mínima	17.2
72484	7	Sololá	702	San José Chacayá	5	Chacayá	1	Enero	2023-01-13T00:00:00	2024-11-06T13:00:00	5	Humedad	58
72485	7	Sololá	702	San José Chacayá	5	Chacayá	1	Enero	2023-01-13T00:00:00	2024-11-06T13:00:00	6	Velocidad del viento	8
72486	7	Sololá	702	San José Chacayá	5	Chacayá	1	Enero	2023-01-13T00:00:00	2024-11-06T13:00:00	7	Dirección del viento	8.05
72487	7	Sololá	702	San José Chacayá	5	Chacayá	1	Enero	2023-01-13T00:00:00	2024-11-06T13:00:00	1	Precipitación	0
72488	7	Sololá	702	San José Chacayá	5	Chacayá	1	Enero	2023-01-13T00:00:00	2024-11-06T13:00:00	8	Radiación solar	836
72489	7	Sololá	702	San José Chacayá	5	Chacayá	1	Enero	2023-01-13T00:00:00	2024-11-06T14:00:00	2	Temperatura media	18
72490	7	Sololá	702	San José Chacayá	5	Chacayá	1	Enero	2023-01-13T00:00:00	2024-11-06T14:00:00	4	Temperatura máxima	18.8
72491	7	Sololá	702	San José Chacayá	5	Chacayá	1	Enero	2023-01-13T00:00:00	2024-11-06T14:00:00	3	Temperatura mínima	17.8
72492	7	Sololá	702	San José Chacayá	5	Chacayá	1	Enero	2023-01-13T00:00:00	2024-11-06T14:00:00	5	Humedad	59
72493	7	Sololá	702	San José Chacayá	5	Chacayá	1	Enero	2023-01-13T00:00:00	2024-11-06T14:00:00	6	Velocidad del viento	6.4
72494	7	Sololá	702	San José Chacayá	5	Chacayá	1	Enero	2023-01-13T00:00:00	2024-11-06T14:00:00	7	Dirección del viento	6.44
72495	7	Sololá	702	San José Chacayá	5	Chacayá	1	Enero	2023-01-13T00:00:00	2024-11-06T14:00:00	1	Precipitación	0
72496	7	Sololá	702	San José Chacayá	5	Chacayá	1	Enero	2023-01-13T00:00:00	2024-11-06T14:00:00	8	Radiación solar	769
72497	7	Sololá	702	San José Chacayá	5	Chacayá	1	Enero	2023-01-13T00:00:00	2024-11-06T15:00:00	2	Temperatura media	18
72498	7	Sololá	702	San José Chacayá	5	Chacayá	1	Enero	2023-01-13T00:00:00	2024-11-06T15:00:00	4	Temperatura máxima	18.4
72499	7	Sololá	702	San José Chacayá	5	Chacayá	1	Enero	2023-01-13T00:00:00	2024-11-06T15:00:00	3	Temperatura mínima	17.8
72500	7	Sololá	702	San José Chacayá	5	Chacayá	1	Enero	2023-01-13T00:00:00	2024-11-06T15:00:00	5	Humedad	59
72501	7	Sololá	702	San José Chacayá	5	Chacayá	1	Enero	2023-01-13T00:00:00	2024-11-06T15:00:00	6	Velocidad del viento	4.8
72502	7	Sololá	702	San José Chacayá	5	Chacayá	1	Enero	2023-01-13T00:00:00	2024-11-06T15:00:00	7	Dirección del viento	4.83
72503	7	Sololá	702	San José Chacayá	5	Chacayá	1	Enero	2023-01-13T00:00:00	2024-11-06T15:00:00	1	Precipitación	0
72504	7	Sololá	702	San José Chacayá	5	Chacayá	1	Enero	2023-01-13T00:00:00	2024-11-06T15:00:00	8	Radiación solar	635
72505	7	Sololá	702	San José Chacayá	5	Chacayá	1	Enero	2023-01-13T00:00:00	2024-11-06T16:00:00	2	Temperatura media	14
72506	7	Sololá	702	San José Chacayá	5	Chacayá	1	Enero	2023-01-13T00:00:00	2024-11-06T16:00:00	4	Temperatura máxima	18
72507	7	Sololá	702	San José Chacayá	5	Chacayá	1	Enero	2023-01-13T00:00:00	2024-11-06T16:00:00	3	Temperatura mínima	14
72508	7	Sololá	702	San José Chacayá	5	Chacayá	1	Enero	2023-01-13T00:00:00	2024-11-06T16:00:00	5	Humedad	77
72509	7	Sololá	702	San José Chacayá	5	Chacayá	1	Enero	2023-01-13T00:00:00	2024-11-06T16:00:00	6	Velocidad del viento	3.2
72510	7	Sololá	702	San José Chacayá	5	Chacayá	1	Enero	2023-01-13T00:00:00	2024-11-06T16:00:00	7	Dirección del viento	3.22
72511	7	Sololá	702	San José Chacayá	5	Chacayá	1	Enero	2023-01-13T00:00:00	2024-11-06T16:00:00	1	Precipitación	0
72512	7	Sololá	702	San José Chacayá	5	Chacayá	1	Enero	2023-01-13T00:00:00	2024-11-06T16:00:00	8	Radiación solar	448
72513	7	Sololá	702	San José Chacayá	5	Chacayá	1	Enero	2023-01-13T00:00:00	2024-11-06T17:00:00	2	Temperatura media	12.9
72514	7	Sololá	702	San José Chacayá	5	Chacayá	1	Enero	2023-01-13T00:00:00	2024-11-06T17:00:00	4	Temperatura máxima	14
72515	7	Sololá	702	San José Chacayá	5	Chacayá	1	Enero	2023-01-13T00:00:00	2024-11-06T17:00:00	3	Temperatura mínima	12.9
72516	7	Sololá	702	San José Chacayá	5	Chacayá	1	Enero	2023-01-13T00:00:00	2024-11-06T17:00:00	5	Humedad	77
72517	7	Sololá	702	San José Chacayá	5	Chacayá	1	Enero	2023-01-13T00:00:00	2024-11-06T17:00:00	6	Velocidad del viento	4.8
72518	7	Sololá	702	San José Chacayá	5	Chacayá	1	Enero	2023-01-13T00:00:00	2024-11-06T17:00:00	7	Dirección del viento	4.83
72519	7	Sololá	702	San José Chacayá	5	Chacayá	1	Enero	2023-01-13T00:00:00	2024-11-06T17:00:00	1	Precipitación	0
72520	7	Sololá	702	San José Chacayá	5	Chacayá	1	Enero	2023-01-13T00:00:00	2024-11-06T17:00:00	8	Radiación solar	193
72521	7	Sololá	702	San José Chacayá	5	Chacayá	1	Enero	2023-01-13T00:00:00	2024-11-06T18:00:00	2	Temperatura media	12.7
72522	7	Sololá	702	San José Chacayá	5	Chacayá	1	Enero	2023-01-13T00:00:00	2024-11-06T18:00:00	4	Temperatura máxima	13
72523	7	Sololá	702	San José Chacayá	5	Chacayá	1	Enero	2023-01-13T00:00:00	2024-11-06T18:00:00	3	Temperatura mínima	12.6
72524	7	Sololá	702	San José Chacayá	5	Chacayá	1	Enero	2023-01-13T00:00:00	2024-11-06T18:00:00	5	Humedad	75
72525	7	Sololá	702	San José Chacayá	5	Chacayá	1	Enero	2023-01-13T00:00:00	2024-11-06T18:00:00	6	Velocidad del viento	4.8
72526	7	Sololá	702	San José Chacayá	5	Chacayá	1	Enero	2023-01-13T00:00:00	2024-11-06T18:00:00	7	Dirección del viento	4.83
72527	7	Sololá	702	San José Chacayá	5	Chacayá	1	Enero	2023-01-13T00:00:00	2024-11-06T18:00:00	1	Precipitación	0
72528	7	Sololá	702	San José Chacayá	5	Chacayá	1	Enero	2023-01-13T00:00:00	2024-11-06T18:00:00	8	Radiación solar	14
72529	7	Sololá	702	San José Chacayá	5	Chacayá	1	Enero	2023-01-13T00:00:00	2024-11-06T19:00:00	2	Temperatura media	12.9
72530	7	Sololá	702	San José Chacayá	5	Chacayá	1	Enero	2023-01-13T00:00:00	2024-11-06T19:00:00	4	Temperatura máxima	12.9
72531	7	Sololá	702	San José Chacayá	5	Chacayá	1	Enero	2023-01-13T00:00:00	2024-11-06T19:00:00	3	Temperatura mínima	12.7
72532	7	Sololá	702	San José Chacayá	5	Chacayá	1	Enero	2023-01-13T00:00:00	2024-11-06T19:00:00	5	Humedad	74
72533	7	Sololá	702	San José Chacayá	5	Chacayá	1	Enero	2023-01-13T00:00:00	2024-11-06T19:00:00	6	Velocidad del viento	3.2
72534	7	Sololá	702	San José Chacayá	5	Chacayá	1	Enero	2023-01-13T00:00:00	2024-11-06T19:00:00	7	Dirección del viento	3.22
72535	7	Sololá	702	San José Chacayá	5	Chacayá	1	Enero	2023-01-13T00:00:00	2024-11-06T19:00:00	1	Precipitación	0
72536	7	Sololá	702	San José Chacayá	5	Chacayá	1	Enero	2023-01-13T00:00:00	2024-11-06T19:00:00	8	Radiación solar	0
72537	7	Sololá	702	San José Chacayá	5	Chacayá	1	Enero	2023-01-13T00:00:00	2024-11-06T20:00:00	2	Temperatura media	12
72538	7	Sololá	702	San José Chacayá	5	Chacayá	1	Enero	2023-01-13T00:00:00	2024-11-06T20:00:00	4	Temperatura máxima	13.1
72539	7	Sololá	702	San José Chacayá	5	Chacayá	1	Enero	2023-01-13T00:00:00	2024-11-06T20:00:00	3	Temperatura mínima	11.8
72540	7	Sololá	702	San José Chacayá	5	Chacayá	1	Enero	2023-01-13T00:00:00	2024-11-06T20:00:00	5	Humedad	76
72541	7	Sololá	702	San José Chacayá	5	Chacayá	1	Enero	2023-01-13T00:00:00	2024-11-06T20:00:00	6	Velocidad del viento	4.8
72542	7	Sololá	702	San José Chacayá	5	Chacayá	1	Enero	2023-01-13T00:00:00	2024-11-06T20:00:00	7	Dirección del viento	4.83
72543	7	Sololá	702	San José Chacayá	5	Chacayá	1	Enero	2023-01-13T00:00:00	2024-11-06T20:00:00	1	Precipitación	0
72544	7	Sololá	702	San José Chacayá	5	Chacayá	1	Enero	2023-01-13T00:00:00	2024-11-06T20:00:00	8	Radiación solar	0
72545	7	Sololá	702	San José Chacayá	5	Chacayá	1	Enero	2023-01-13T00:00:00	2024-11-06T21:00:00	2	Temperatura media	11.7
72546	7	Sololá	702	San José Chacayá	5	Chacayá	1	Enero	2023-01-13T00:00:00	2024-11-06T21:00:00	4	Temperatura máxima	12
72547	7	Sololá	702	San José Chacayá	5	Chacayá	1	Enero	2023-01-13T00:00:00	2024-11-06T21:00:00	3	Temperatura mínima	11.6
72548	7	Sololá	702	San José Chacayá	5	Chacayá	1	Enero	2023-01-13T00:00:00	2024-11-06T21:00:00	5	Humedad	76
72549	7	Sololá	702	San José Chacayá	5	Chacayá	1	Enero	2023-01-13T00:00:00	2024-11-06T21:00:00	6	Velocidad del viento	4.8
72550	7	Sololá	702	San José Chacayá	5	Chacayá	1	Enero	2023-01-13T00:00:00	2024-11-06T21:00:00	7	Dirección del viento	4.83
72551	7	Sololá	702	San José Chacayá	5	Chacayá	1	Enero	2023-01-13T00:00:00	2024-11-06T21:00:00	1	Precipitación	0
72552	7	Sololá	702	San José Chacayá	5	Chacayá	1	Enero	2023-01-13T00:00:00	2024-11-06T21:00:00	8	Radiación solar	0
72553	7	Sololá	702	San José Chacayá	5	Chacayá	1	Enero	2023-01-13T00:00:00	2024-11-06T22:00:00	2	Temperatura media	12.4
72554	7	Sololá	702	San José Chacayá	5	Chacayá	1	Enero	2023-01-13T00:00:00	2024-11-06T22:00:00	4	Temperatura máxima	12.6
72555	7	Sololá	702	San José Chacayá	5	Chacayá	1	Enero	2023-01-13T00:00:00	2024-11-06T22:00:00	3	Temperatura mínima	11.6
72556	7	Sololá	702	San José Chacayá	5	Chacayá	1	Enero	2023-01-13T00:00:00	2024-11-06T22:00:00	5	Humedad	70
72557	7	Sololá	702	San José Chacayá	5	Chacayá	1	Enero	2023-01-13T00:00:00	2024-11-06T22:00:00	6	Velocidad del viento	9.7
72558	7	Sololá	702	San José Chacayá	5	Chacayá	1	Enero	2023-01-13T00:00:00	2024-11-06T22:00:00	7	Dirección del viento	9.66
72559	7	Sololá	702	San José Chacayá	5	Chacayá	1	Enero	2023-01-13T00:00:00	2024-11-06T22:00:00	1	Precipitación	0
72560	7	Sololá	702	San José Chacayá	5	Chacayá	1	Enero	2023-01-13T00:00:00	2024-11-06T22:00:00	8	Radiación solar	0
72561	7	Sololá	702	San José Chacayá	5	Chacayá	1	Enero	2023-01-13T00:00:00	2024-11-06T23:00:00	2	Temperatura media	12.9
72562	7	Sololá	702	San José Chacayá	5	Chacayá	1	Enero	2023-01-13T00:00:00	2024-11-06T23:00:00	4	Temperatura máxima	13
72563	7	Sololá	702	San José Chacayá	5	Chacayá	1	Enero	2023-01-13T00:00:00	2024-11-06T23:00:00	3	Temperatura mínima	12.2
72564	7	Sololá	702	San José Chacayá	5	Chacayá	1	Enero	2023-01-13T00:00:00	2024-11-06T23:00:00	5	Humedad	66
72565	7	Sololá	702	San José Chacayá	5	Chacayá	1	Enero	2023-01-13T00:00:00	2024-11-06T23:00:00	6	Velocidad del viento	6.4
72566	7	Sololá	702	San José Chacayá	5	Chacayá	1	Enero	2023-01-13T00:00:00	2024-11-06T23:00:00	7	Dirección del viento	6.44
72567	7	Sololá	702	San José Chacayá	5	Chacayá	1	Enero	2023-01-13T00:00:00	2024-11-06T23:00:00	1	Precipitación	0
72568	7	Sololá	702	San José Chacayá	5	Chacayá	1	Enero	2023-01-13T00:00:00	2024-11-06T23:00:00	8	Radiación solar	0
72569	7	Sololá	702	San José Chacayá	5	Chacayá	1	Enero	2023-01-14T00:00:00	2024-11-06T00:00:00	2	Temperatura media	11.8
72570	7	Sololá	702	San José Chacayá	5	Chacayá	1	Enero	2023-01-14T00:00:00	2024-11-06T00:00:00	4	Temperatura máxima	12.9
72571	7	Sololá	702	San José Chacayá	5	Chacayá	1	Enero	2023-01-14T00:00:00	2024-11-06T00:00:00	3	Temperatura mínima	11.8
72572	7	Sololá	702	San José Chacayá	5	Chacayá	1	Enero	2023-01-14T00:00:00	2024-11-06T00:00:00	5	Humedad	73
72573	7	Sololá	702	San José Chacayá	5	Chacayá	1	Enero	2023-01-14T00:00:00	2024-11-06T00:00:00	6	Velocidad del viento	8
72574	7	Sololá	702	San José Chacayá	5	Chacayá	1	Enero	2023-01-14T00:00:00	2024-11-06T00:00:00	7	Dirección del viento	8.05
72575	7	Sololá	702	San José Chacayá	5	Chacayá	1	Enero	2023-01-14T00:00:00	2024-11-06T00:00:00	1	Precipitación	0
72576	7	Sololá	702	San José Chacayá	5	Chacayá	1	Enero	2023-01-14T00:00:00	2024-11-06T00:00:00	8	Radiación solar	0
72577	7	Sololá	702	San José Chacayá	5	Chacayá	1	Enero	2023-01-14T00:00:00	2024-11-06T01:00:00	2	Temperatura media	11.4
72578	7	Sololá	702	San José Chacayá	5	Chacayá	1	Enero	2023-01-14T00:00:00	2024-11-06T01:00:00	4	Temperatura máxima	11.9
72579	7	Sololá	702	San José Chacayá	5	Chacayá	1	Enero	2023-01-14T00:00:00	2024-11-06T01:00:00	3	Temperatura mínima	11.3
72580	7	Sololá	702	San José Chacayá	5	Chacayá	1	Enero	2023-01-14T00:00:00	2024-11-06T01:00:00	5	Humedad	73
72581	7	Sololá	702	San José Chacayá	5	Chacayá	1	Enero	2023-01-14T00:00:00	2024-11-06T01:00:00	6	Velocidad del viento	4.8
72582	7	Sololá	702	San José Chacayá	5	Chacayá	1	Enero	2023-01-14T00:00:00	2024-11-06T01:00:00	7	Dirección del viento	4.83
72583	7	Sololá	702	San José Chacayá	5	Chacayá	1	Enero	2023-01-14T00:00:00	2024-11-06T01:00:00	1	Precipitación	0
72584	7	Sololá	702	San José Chacayá	5	Chacayá	1	Enero	2023-01-14T00:00:00	2024-11-06T01:00:00	8	Radiación solar	0
72585	7	Sololá	702	San José Chacayá	5	Chacayá	1	Enero	2023-01-14T00:00:00	2024-11-06T02:00:00	2	Temperatura media	11.8
72586	7	Sololá	702	San José Chacayá	5	Chacayá	1	Enero	2023-01-14T00:00:00	2024-11-06T02:00:00	4	Temperatura máxima	11.8
72587	7	Sololá	702	San José Chacayá	5	Chacayá	1	Enero	2023-01-14T00:00:00	2024-11-06T02:00:00	3	Temperatura mínima	11.3
72588	7	Sololá	702	San José Chacayá	5	Chacayá	1	Enero	2023-01-14T00:00:00	2024-11-06T02:00:00	5	Humedad	68
72589	7	Sololá	702	San José Chacayá	5	Chacayá	1	Enero	2023-01-14T00:00:00	2024-11-06T02:00:00	6	Velocidad del viento	9.7
72590	7	Sololá	702	San José Chacayá	5	Chacayá	1	Enero	2023-01-14T00:00:00	2024-11-06T02:00:00	7	Dirección del viento	9.66
72591	7	Sololá	702	San José Chacayá	5	Chacayá	1	Enero	2023-01-14T00:00:00	2024-11-06T02:00:00	1	Precipitación	0
72592	7	Sololá	702	San José Chacayá	5	Chacayá	1	Enero	2023-01-14T00:00:00	2024-11-06T02:00:00	8	Radiación solar	0
72593	7	Sololá	702	San José Chacayá	5	Chacayá	1	Enero	2023-01-14T00:00:00	2024-11-06T03:00:00	2	Temperatura media	11.1
72594	7	Sololá	702	San José Chacayá	5	Chacayá	1	Enero	2023-01-14T00:00:00	2024-11-06T03:00:00	4	Temperatura máxima	11.9
72595	7	Sololá	702	San José Chacayá	5	Chacayá	1	Enero	2023-01-14T00:00:00	2024-11-06T03:00:00	3	Temperatura mínima	11.1
72596	7	Sololá	702	San José Chacayá	5	Chacayá	1	Enero	2023-01-14T00:00:00	2024-11-06T03:00:00	5	Humedad	74
72597	7	Sololá	702	San José Chacayá	5	Chacayá	1	Enero	2023-01-14T00:00:00	2024-11-06T03:00:00	6	Velocidad del viento	9.7
72598	7	Sololá	702	San José Chacayá	5	Chacayá	1	Enero	2023-01-14T00:00:00	2024-11-06T03:00:00	7	Dirección del viento	9.66
72599	7	Sololá	702	San José Chacayá	5	Chacayá	1	Enero	2023-01-14T00:00:00	2024-11-06T03:00:00	1	Precipitación	0
72600	7	Sololá	702	San José Chacayá	5	Chacayá	1	Enero	2023-01-14T00:00:00	2024-11-06T03:00:00	8	Radiación solar	0
72601	7	Sololá	702	San José Chacayá	5	Chacayá	1	Enero	2023-01-14T00:00:00	2024-11-06T04:00:00	2	Temperatura media	10.8
72602	7	Sololá	702	San José Chacayá	5	Chacayá	1	Enero	2023-01-14T00:00:00	2024-11-06T04:00:00	4	Temperatura máxima	11.2
72603	7	Sololá	702	San José Chacayá	5	Chacayá	1	Enero	2023-01-14T00:00:00	2024-11-06T04:00:00	3	Temperatura mínima	10.8
72604	7	Sololá	702	San José Chacayá	5	Chacayá	1	Enero	2023-01-14T00:00:00	2024-11-06T04:00:00	5	Humedad	75
72605	7	Sololá	702	San José Chacayá	5	Chacayá	1	Enero	2023-01-14T00:00:00	2024-11-06T04:00:00	6	Velocidad del viento	4.8
72606	7	Sololá	702	San José Chacayá	5	Chacayá	1	Enero	2023-01-14T00:00:00	2024-11-06T04:00:00	7	Dirección del viento	4.83
72607	7	Sololá	702	San José Chacayá	5	Chacayá	1	Enero	2023-01-14T00:00:00	2024-11-06T04:00:00	1	Precipitación	0
72608	7	Sololá	702	San José Chacayá	5	Chacayá	1	Enero	2023-01-14T00:00:00	2024-11-06T04:00:00	8	Radiación solar	0
72609	7	Sololá	702	San José Chacayá	5	Chacayá	1	Enero	2023-01-14T00:00:00	2024-11-06T05:00:00	2	Temperatura media	10.4
72610	7	Sololá	702	San José Chacayá	5	Chacayá	1	Enero	2023-01-14T00:00:00	2024-11-06T05:00:00	4	Temperatura máxima	11.1
72611	7	Sololá	702	San José Chacayá	5	Chacayá	1	Enero	2023-01-14T00:00:00	2024-11-06T05:00:00	3	Temperatura mínima	10.4
72612	7	Sololá	702	San José Chacayá	5	Chacayá	1	Enero	2023-01-14T00:00:00	2024-11-06T05:00:00	5	Humedad	74
72613	7	Sololá	702	San José Chacayá	5	Chacayá	1	Enero	2023-01-14T00:00:00	2024-11-06T05:00:00	6	Velocidad del viento	3.2
72614	7	Sololá	702	San José Chacayá	5	Chacayá	1	Enero	2023-01-14T00:00:00	2024-11-06T05:00:00	7	Dirección del viento	3.22
72615	7	Sololá	702	San José Chacayá	5	Chacayá	1	Enero	2023-01-14T00:00:00	2024-11-06T05:00:00	1	Precipitación	0
72616	7	Sololá	702	San José Chacayá	5	Chacayá	1	Enero	2023-01-14T00:00:00	2024-11-06T05:00:00	8	Radiación solar	0
72617	7	Sololá	702	San José Chacayá	5	Chacayá	1	Enero	2023-01-14T00:00:00	2024-11-06T06:00:00	2	Temperatura media	8.8
72618	7	Sololá	702	San José Chacayá	5	Chacayá	1	Enero	2023-01-14T00:00:00	2024-11-06T06:00:00	4	Temperatura máxima	10.4
72619	7	Sololá	702	San José Chacayá	5	Chacayá	1	Enero	2023-01-14T00:00:00	2024-11-06T06:00:00	3	Temperatura mínima	8.8
72620	7	Sololá	702	San José Chacayá	5	Chacayá	1	Enero	2023-01-14T00:00:00	2024-11-06T06:00:00	5	Humedad	79
72621	7	Sololá	702	San José Chacayá	5	Chacayá	1	Enero	2023-01-14T00:00:00	2024-11-06T06:00:00	6	Velocidad del viento	1.6
72622	7	Sololá	702	San José Chacayá	5	Chacayá	1	Enero	2023-01-14T00:00:00	2024-11-06T06:00:00	7	Dirección del viento	1.61
72623	7	Sololá	702	San José Chacayá	5	Chacayá	1	Enero	2023-01-14T00:00:00	2024-11-06T06:00:00	1	Precipitación	0
72624	7	Sololá	702	San José Chacayá	5	Chacayá	1	Enero	2023-01-14T00:00:00	2024-11-06T06:00:00	8	Radiación solar	0
72625	7	Sololá	702	San José Chacayá	5	Chacayá	1	Enero	2023-01-14T00:00:00	2024-11-06T07:00:00	2	Temperatura media	13.6
72626	7	Sololá	702	San José Chacayá	5	Chacayá	1	Enero	2023-01-14T00:00:00	2024-11-06T07:00:00	4	Temperatura máxima	13.6
72627	7	Sololá	702	San José Chacayá	5	Chacayá	1	Enero	2023-01-14T00:00:00	2024-11-06T07:00:00	3	Temperatura mínima	8.8
72628	7	Sololá	702	San José Chacayá	5	Chacayá	1	Enero	2023-01-14T00:00:00	2024-11-06T07:00:00	5	Humedad	69
72629	7	Sololá	702	San José Chacayá	5	Chacayá	1	Enero	2023-01-14T00:00:00	2024-11-06T07:00:00	6	Velocidad del viento	1.6
72630	7	Sololá	702	San José Chacayá	5	Chacayá	1	Enero	2023-01-14T00:00:00	2024-11-06T07:00:00	7	Dirección del viento	1.61
72631	7	Sololá	702	San José Chacayá	5	Chacayá	1	Enero	2023-01-14T00:00:00	2024-11-06T07:00:00	1	Precipitación	0
72632	7	Sololá	702	San José Chacayá	5	Chacayá	1	Enero	2023-01-14T00:00:00	2024-11-06T07:00:00	8	Radiación solar	11
72633	7	Sololá	702	San José Chacayá	5	Chacayá	1	Enero	2023-01-14T00:00:00	2024-11-06T08:00:00	2	Temperatura media	17.4
72634	7	Sololá	702	San José Chacayá	5	Chacayá	1	Enero	2023-01-14T00:00:00	2024-11-06T08:00:00	4	Temperatura máxima	17.5
72635	7	Sololá	702	San José Chacayá	5	Chacayá	1	Enero	2023-01-14T00:00:00	2024-11-06T08:00:00	3	Temperatura mínima	13.6
72636	7	Sololá	702	San José Chacayá	5	Chacayá	1	Enero	2023-01-14T00:00:00	2024-11-06T08:00:00	5	Humedad	57
72637	7	Sololá	702	San José Chacayá	5	Chacayá	1	Enero	2023-01-14T00:00:00	2024-11-06T08:00:00	6	Velocidad del viento	3.2
72638	7	Sololá	702	San José Chacayá	5	Chacayá	1	Enero	2023-01-14T00:00:00	2024-11-06T08:00:00	7	Dirección del viento	3.22
72639	7	Sololá	702	San José Chacayá	5	Chacayá	1	Enero	2023-01-14T00:00:00	2024-11-06T08:00:00	1	Precipitación	0
72640	7	Sololá	702	San José Chacayá	5	Chacayá	1	Enero	2023-01-14T00:00:00	2024-11-06T08:00:00	8	Radiación solar	90
72641	7	Sololá	702	San José Chacayá	5	Chacayá	1	Enero	2023-01-14T00:00:00	2024-11-06T09:00:00	2	Temperatura media	18.3
72642	7	Sololá	702	San José Chacayá	5	Chacayá	1	Enero	2023-01-14T00:00:00	2024-11-06T09:00:00	4	Temperatura máxima	18.8
72643	7	Sololá	702	San José Chacayá	5	Chacayá	1	Enero	2023-01-14T00:00:00	2024-11-06T09:00:00	3	Temperatura mínima	17.4
72644	7	Sololá	702	San José Chacayá	5	Chacayá	1	Enero	2023-01-14T00:00:00	2024-11-06T09:00:00	5	Humedad	50
72645	7	Sololá	702	San José Chacayá	5	Chacayá	1	Enero	2023-01-14T00:00:00	2024-11-06T09:00:00	6	Velocidad del viento	4.8
72646	7	Sololá	702	San José Chacayá	5	Chacayá	1	Enero	2023-01-14T00:00:00	2024-11-06T09:00:00	7	Dirección del viento	4.83
72647	7	Sololá	702	San José Chacayá	5	Chacayá	1	Enero	2023-01-14T00:00:00	2024-11-06T09:00:00	1	Precipitación	0
72648	7	Sololá	702	San José Chacayá	5	Chacayá	1	Enero	2023-01-14T00:00:00	2024-11-06T09:00:00	8	Radiación solar	401
72649	7	Sololá	702	San José Chacayá	5	Chacayá	1	Enero	2023-01-14T00:00:00	2024-11-06T10:00:00	2	Temperatura media	19
72650	7	Sololá	702	San José Chacayá	5	Chacayá	1	Enero	2023-01-14T00:00:00	2024-11-06T10:00:00	4	Temperatura máxima	19.1
72651	7	Sololá	702	San José Chacayá	5	Chacayá	1	Enero	2023-01-14T00:00:00	2024-11-06T10:00:00	3	Temperatura mínima	18.2
72652	7	Sololá	702	San José Chacayá	5	Chacayá	1	Enero	2023-01-14T00:00:00	2024-11-06T10:00:00	5	Humedad	46
72653	7	Sololá	702	San José Chacayá	5	Chacayá	1	Enero	2023-01-14T00:00:00	2024-11-06T10:00:00	6	Velocidad del viento	4.8
72654	7	Sololá	702	San José Chacayá	5	Chacayá	1	Enero	2023-01-14T00:00:00	2024-11-06T10:00:00	7	Dirección del viento	4.83
72655	7	Sololá	702	San José Chacayá	5	Chacayá	1	Enero	2023-01-14T00:00:00	2024-11-06T10:00:00	1	Precipitación	0
72656	7	Sololá	702	San José Chacayá	5	Chacayá	1	Enero	2023-01-14T00:00:00	2024-11-06T10:00:00	8	Radiación solar	654
72657	7	Sololá	702	San José Chacayá	5	Chacayá	1	Enero	2023-01-14T00:00:00	2024-11-06T11:00:00	2	Temperatura media	18.8
72658	7	Sololá	702	San José Chacayá	5	Chacayá	1	Enero	2023-01-14T00:00:00	2024-11-06T11:00:00	4	Temperatura máxima	19.9
72659	7	Sololá	702	San José Chacayá	5	Chacayá	1	Enero	2023-01-14T00:00:00	2024-11-06T11:00:00	3	Temperatura mínima	18.6
72660	7	Sololá	702	San José Chacayá	5	Chacayá	1	Enero	2023-01-14T00:00:00	2024-11-06T11:00:00	5	Humedad	42
72661	7	Sololá	702	San José Chacayá	5	Chacayá	1	Enero	2023-01-14T00:00:00	2024-11-06T11:00:00	6	Velocidad del viento	6.4
72662	7	Sololá	702	San José Chacayá	5	Chacayá	1	Enero	2023-01-14T00:00:00	2024-11-06T11:00:00	7	Dirección del viento	6.44
72663	7	Sololá	702	San José Chacayá	5	Chacayá	1	Enero	2023-01-14T00:00:00	2024-11-06T11:00:00	1	Precipitación	0
72664	7	Sololá	702	San José Chacayá	5	Chacayá	1	Enero	2023-01-14T00:00:00	2024-11-06T11:00:00	8	Radiación solar	840
72665	7	Sololá	702	San José Chacayá	5	Chacayá	1	Enero	2023-01-14T00:00:00	2024-11-06T12:00:00	2	Temperatura media	20.8
72666	7	Sololá	702	San José Chacayá	5	Chacayá	1	Enero	2023-01-14T00:00:00	2024-11-06T12:00:00	4	Temperatura máxima	20.9
72667	7	Sololá	702	San José Chacayá	5	Chacayá	1	Enero	2023-01-14T00:00:00	2024-11-06T12:00:00	3	Temperatura mínima	18.8
72668	7	Sololá	702	San José Chacayá	5	Chacayá	1	Enero	2023-01-14T00:00:00	2024-11-06T12:00:00	5	Humedad	32
72669	7	Sololá	702	San José Chacayá	5	Chacayá	1	Enero	2023-01-14T00:00:00	2024-11-06T12:00:00	6	Velocidad del viento	6.4
72670	7	Sololá	702	San José Chacayá	5	Chacayá	1	Enero	2023-01-14T00:00:00	2024-11-06T12:00:00	7	Dirección del viento	6.44
72671	7	Sololá	702	San José Chacayá	5	Chacayá	1	Enero	2023-01-14T00:00:00	2024-11-06T12:00:00	1	Precipitación	0
72672	7	Sololá	702	San José Chacayá	5	Chacayá	1	Enero	2023-01-14T00:00:00	2024-11-06T12:00:00	8	Radiación solar	794
72673	7	Sololá	702	San José Chacayá	5	Chacayá	1	Enero	2023-01-14T00:00:00	2024-11-06T13:00:00	2	Temperatura media	19.7
72674	7	Sololá	702	San José Chacayá	5	Chacayá	1	Enero	2023-01-14T00:00:00	2024-11-06T13:00:00	4	Temperatura máxima	20.8
72675	7	Sololá	702	San José Chacayá	5	Chacayá	1	Enero	2023-01-14T00:00:00	2024-11-06T13:00:00	3	Temperatura mínima	19.7
72676	7	Sololá	702	San José Chacayá	5	Chacayá	1	Enero	2023-01-14T00:00:00	2024-11-06T13:00:00	5	Humedad	38
72677	7	Sololá	702	San José Chacayá	5	Chacayá	1	Enero	2023-01-14T00:00:00	2024-11-06T13:00:00	6	Velocidad del viento	6.4
72678	7	Sololá	702	San José Chacayá	5	Chacayá	1	Enero	2023-01-14T00:00:00	2024-11-06T13:00:00	7	Dirección del viento	6.44
72679	7	Sololá	702	San José Chacayá	5	Chacayá	1	Enero	2023-01-14T00:00:00	2024-11-06T13:00:00	1	Precipitación	0
72680	7	Sololá	702	San José Chacayá	5	Chacayá	1	Enero	2023-01-14T00:00:00	2024-11-06T13:00:00	8	Radiación solar	835
72681	7	Sololá	702	San José Chacayá	5	Chacayá	1	Enero	2023-01-14T00:00:00	2024-11-06T14:00:00	2	Temperatura media	19.6
72682	7	Sololá	702	San José Chacayá	5	Chacayá	1	Enero	2023-01-14T00:00:00	2024-11-06T14:00:00	4	Temperatura máxima	20.9
72683	7	Sololá	702	San José Chacayá	5	Chacayá	1	Enero	2023-01-14T00:00:00	2024-11-06T14:00:00	3	Temperatura mínima	19.6
72684	7	Sololá	702	San José Chacayá	5	Chacayá	1	Enero	2023-01-14T00:00:00	2024-11-06T14:00:00	5	Humedad	38
72685	7	Sololá	702	San José Chacayá	5	Chacayá	1	Enero	2023-01-14T00:00:00	2024-11-06T14:00:00	6	Velocidad del viento	3.2
72686	7	Sololá	702	San José Chacayá	5	Chacayá	1	Enero	2023-01-14T00:00:00	2024-11-06T14:00:00	7	Dirección del viento	3.22
72687	7	Sololá	702	San José Chacayá	5	Chacayá	1	Enero	2023-01-14T00:00:00	2024-11-06T14:00:00	1	Precipitación	0
72688	7	Sololá	702	San José Chacayá	5	Chacayá	1	Enero	2023-01-14T00:00:00	2024-11-06T14:00:00	8	Radiación solar	479
72689	7	Sololá	702	San José Chacayá	5	Chacayá	1	Enero	2023-01-14T00:00:00	2024-11-06T15:00:00	2	Temperatura media	18
72690	7	Sololá	702	San José Chacayá	5	Chacayá	1	Enero	2023-01-14T00:00:00	2024-11-06T15:00:00	4	Temperatura máxima	19.8
72691	7	Sololá	702	San José Chacayá	5	Chacayá	1	Enero	2023-01-14T00:00:00	2024-11-06T15:00:00	3	Temperatura mínima	17.1
72692	7	Sololá	702	San José Chacayá	5	Chacayá	1	Enero	2023-01-14T00:00:00	2024-11-06T15:00:00	5	Humedad	61
72693	7	Sololá	702	San José Chacayá	5	Chacayá	1	Enero	2023-01-14T00:00:00	2024-11-06T15:00:00	6	Velocidad del viento	4.8
72694	7	Sololá	702	San José Chacayá	5	Chacayá	1	Enero	2023-01-14T00:00:00	2024-11-06T15:00:00	7	Dirección del viento	4.83
72695	7	Sololá	702	San José Chacayá	5	Chacayá	1	Enero	2023-01-14T00:00:00	2024-11-06T15:00:00	1	Precipitación	0
72696	7	Sololá	702	San José Chacayá	5	Chacayá	1	Enero	2023-01-14T00:00:00	2024-11-06T15:00:00	8	Radiación solar	230
72697	7	Sololá	702	San José Chacayá	5	Chacayá	1	Enero	2023-01-14T00:00:00	2024-11-06T16:00:00	2	Temperatura media	16.8
72698	7	Sololá	702	San José Chacayá	5	Chacayá	1	Enero	2023-01-14T00:00:00	2024-11-06T16:00:00	4	Temperatura máxima	18.1
72699	7	Sololá	702	San José Chacayá	5	Chacayá	1	Enero	2023-01-14T00:00:00	2024-11-06T16:00:00	3	Temperatura mínima	16.8
72700	7	Sololá	702	San José Chacayá	5	Chacayá	1	Enero	2023-01-14T00:00:00	2024-11-06T16:00:00	5	Humedad	46
72701	7	Sololá	702	San José Chacayá	5	Chacayá	1	Enero	2023-01-14T00:00:00	2024-11-06T16:00:00	6	Velocidad del viento	3.2
72702	7	Sololá	702	San José Chacayá	5	Chacayá	1	Enero	2023-01-14T00:00:00	2024-11-06T16:00:00	7	Dirección del viento	3.22
72703	7	Sololá	702	San José Chacayá	5	Chacayá	1	Enero	2023-01-14T00:00:00	2024-11-06T16:00:00	1	Precipitación	0
72704	7	Sololá	702	San José Chacayá	5	Chacayá	1	Enero	2023-01-14T00:00:00	2024-11-06T16:00:00	8	Radiación solar	132
72705	7	Sololá	702	San José Chacayá	5	Chacayá	1	Enero	2023-01-14T00:00:00	2024-11-06T17:00:00	2	Temperatura media	13
72706	7	Sololá	702	San José Chacayá	5	Chacayá	1	Enero	2023-01-14T00:00:00	2024-11-06T17:00:00	4	Temperatura máxima	16.8
72707	7	Sololá	702	San José Chacayá	5	Chacayá	1	Enero	2023-01-14T00:00:00	2024-11-06T17:00:00	3	Temperatura mínima	13
72708	7	Sololá	702	San José Chacayá	5	Chacayá	1	Enero	2023-01-14T00:00:00	2024-11-06T17:00:00	5	Humedad	65
72709	7	Sololá	702	San José Chacayá	5	Chacayá	1	Enero	2023-01-14T00:00:00	2024-11-06T17:00:00	6	Velocidad del viento	1.6
72710	7	Sololá	702	San José Chacayá	5	Chacayá	1	Enero	2023-01-14T00:00:00	2024-11-06T17:00:00	7	Dirección del viento	1.61
72711	7	Sololá	702	San José Chacayá	5	Chacayá	1	Enero	2023-01-14T00:00:00	2024-11-06T17:00:00	1	Precipitación	0
72712	7	Sololá	702	San José Chacayá	5	Chacayá	1	Enero	2023-01-14T00:00:00	2024-11-06T17:00:00	8	Radiación solar	75
72713	7	Sololá	702	San José Chacayá	5	Chacayá	1	Enero	2023-01-14T00:00:00	2024-11-06T18:00:00	2	Temperatura media	9.9
72714	7	Sololá	702	San José Chacayá	5	Chacayá	1	Enero	2023-01-14T00:00:00	2024-11-06T18:00:00	4	Temperatura máxima	12.9
72715	7	Sololá	702	San José Chacayá	5	Chacayá	1	Enero	2023-01-14T00:00:00	2024-11-06T18:00:00	3	Temperatura mínima	9.9
72716	7	Sololá	702	San José Chacayá	5	Chacayá	1	Enero	2023-01-14T00:00:00	2024-11-06T18:00:00	5	Humedad	75
72717	7	Sololá	702	San José Chacayá	5	Chacayá	1	Enero	2023-01-14T00:00:00	2024-11-06T18:00:00	6	Velocidad del viento	0
72718	7	Sololá	702	San José Chacayá	5	Chacayá	1	Enero	2023-01-14T00:00:00	2024-11-06T18:00:00	7	Dirección del viento	0
72719	7	Sololá	702	San José Chacayá	5	Chacayá	1	Enero	2023-01-14T00:00:00	2024-11-06T18:00:00	1	Precipitación	0
72720	7	Sololá	702	San José Chacayá	5	Chacayá	1	Enero	2023-01-14T00:00:00	2024-11-06T18:00:00	8	Radiación solar	30
72721	7	Sololá	702	San José Chacayá	5	Chacayá	1	Enero	2023-01-14T00:00:00	2024-11-06T19:00:00	2	Temperatura media	8.2
72722	7	Sololá	702	San José Chacayá	5	Chacayá	1	Enero	2023-01-14T00:00:00	2024-11-06T19:00:00	4	Temperatura máxima	9.9
72723	7	Sololá	702	San José Chacayá	5	Chacayá	1	Enero	2023-01-14T00:00:00	2024-11-06T19:00:00	3	Temperatura mínima	8.2
72724	7	Sololá	702	San José Chacayá	5	Chacayá	1	Enero	2023-01-14T00:00:00	2024-11-06T19:00:00	5	Humedad	72
72725	7	Sololá	702	San José Chacayá	5	Chacayá	1	Enero	2023-01-14T00:00:00	2024-11-06T19:00:00	6	Velocidad del viento	1.6
72726	7	Sololá	702	San José Chacayá	5	Chacayá	1	Enero	2023-01-14T00:00:00	2024-11-06T19:00:00	7	Dirección del viento	1.61
72727	7	Sololá	702	San José Chacayá	5	Chacayá	1	Enero	2023-01-14T00:00:00	2024-11-06T19:00:00	1	Precipitación	0
72728	7	Sololá	702	San José Chacayá	5	Chacayá	1	Enero	2023-01-14T00:00:00	2024-11-06T19:00:00	8	Radiación solar	0
72729	7	Sololá	702	San José Chacayá	5	Chacayá	1	Enero	2023-01-14T00:00:00	2024-11-06T20:00:00	2	Temperatura media	6.4
72730	7	Sololá	702	San José Chacayá	5	Chacayá	1	Enero	2023-01-14T00:00:00	2024-11-06T20:00:00	4	Temperatura máxima	8.2
72731	7	Sololá	702	San José Chacayá	5	Chacayá	1	Enero	2023-01-14T00:00:00	2024-11-06T20:00:00	3	Temperatura mínima	6.3
72732	7	Sololá	702	San José Chacayá	5	Chacayá	1	Enero	2023-01-14T00:00:00	2024-11-06T20:00:00	5	Humedad	65
72733	7	Sololá	702	San José Chacayá	5	Chacayá	1	Enero	2023-01-14T00:00:00	2024-11-06T20:00:00	6	Velocidad del viento	1.6
72734	7	Sololá	702	San José Chacayá	5	Chacayá	1	Enero	2023-01-14T00:00:00	2024-11-06T20:00:00	7	Dirección del viento	1.61
72735	7	Sololá	702	San José Chacayá	5	Chacayá	1	Enero	2023-01-14T00:00:00	2024-11-06T20:00:00	1	Precipitación	0
72736	7	Sololá	702	San José Chacayá	5	Chacayá	1	Enero	2023-01-14T00:00:00	2024-11-06T20:00:00	8	Radiación solar	0
72737	7	Sololá	702	San José Chacayá	5	Chacayá	1	Enero	2023-01-14T00:00:00	2024-11-06T21:00:00	2	Temperatura media	5.9
72738	7	Sololá	702	San José Chacayá	5	Chacayá	1	Enero	2023-01-14T00:00:00	2024-11-06T21:00:00	4	Temperatura máxima	6.3
72739	7	Sololá	702	San José Chacayá	5	Chacayá	1	Enero	2023-01-14T00:00:00	2024-11-06T21:00:00	3	Temperatura mínima	5.9
72740	7	Sololá	702	San José Chacayá	5	Chacayá	1	Enero	2023-01-14T00:00:00	2024-11-06T21:00:00	5	Humedad	63
72741	7	Sololá	702	San José Chacayá	5	Chacayá	1	Enero	2023-01-14T00:00:00	2024-11-06T21:00:00	6	Velocidad del viento	1.6
72742	7	Sololá	702	San José Chacayá	5	Chacayá	1	Enero	2023-01-14T00:00:00	2024-11-06T21:00:00	7	Dirección del viento	1.61
72743	7	Sololá	702	San José Chacayá	5	Chacayá	1	Enero	2023-01-14T00:00:00	2024-11-06T21:00:00	1	Precipitación	0
72744	7	Sololá	702	San José Chacayá	5	Chacayá	1	Enero	2023-01-14T00:00:00	2024-11-06T21:00:00	8	Radiación solar	0
72745	7	Sololá	702	San José Chacayá	5	Chacayá	1	Enero	2023-01-14T00:00:00	2024-11-06T22:00:00	2	Temperatura media	5.7
72746	7	Sololá	702	San José Chacayá	5	Chacayá	1	Enero	2023-01-14T00:00:00	2024-11-06T22:00:00	4	Temperatura máxima	5.9
72747	7	Sololá	702	San José Chacayá	5	Chacayá	1	Enero	2023-01-14T00:00:00	2024-11-06T22:00:00	3	Temperatura mínima	5.7
72748	7	Sololá	702	San José Chacayá	5	Chacayá	1	Enero	2023-01-14T00:00:00	2024-11-06T22:00:00	5	Humedad	63
72749	7	Sololá	702	San José Chacayá	5	Chacayá	1	Enero	2023-01-14T00:00:00	2024-11-06T22:00:00	6	Velocidad del viento	1.6
72750	7	Sololá	702	San José Chacayá	5	Chacayá	1	Enero	2023-01-14T00:00:00	2024-11-06T22:00:00	7	Dirección del viento	1.61
72751	7	Sololá	702	San José Chacayá	5	Chacayá	1	Enero	2023-01-14T00:00:00	2024-11-06T22:00:00	1	Precipitación	0
72752	7	Sololá	702	San José Chacayá	5	Chacayá	1	Enero	2023-01-14T00:00:00	2024-11-06T22:00:00	8	Radiación solar	0
72753	7	Sololá	702	San José Chacayá	5	Chacayá	1	Enero	2023-01-14T00:00:00	2024-11-06T23:00:00	2	Temperatura media	5.1
72754	7	Sololá	702	San José Chacayá	5	Chacayá	1	Enero	2023-01-14T00:00:00	2024-11-06T23:00:00	4	Temperatura máxima	5.7
72755	7	Sololá	702	San José Chacayá	5	Chacayá	1	Enero	2023-01-14T00:00:00	2024-11-06T23:00:00	3	Temperatura mínima	5.1
72756	7	Sololá	702	San José Chacayá	5	Chacayá	1	Enero	2023-01-14T00:00:00	2024-11-06T23:00:00	5	Humedad	59
72757	7	Sololá	702	San José Chacayá	5	Chacayá	1	Enero	2023-01-14T00:00:00	2024-11-06T23:00:00	6	Velocidad del viento	1.6
72758	7	Sololá	702	San José Chacayá	5	Chacayá	1	Enero	2023-01-14T00:00:00	2024-11-06T23:00:00	7	Dirección del viento	1.61
72759	7	Sololá	702	San José Chacayá	5	Chacayá	1	Enero	2023-01-14T00:00:00	2024-11-06T23:00:00	1	Precipitación	0
72760	7	Sololá	702	San José Chacayá	5	Chacayá	1	Enero	2023-01-14T00:00:00	2024-11-06T23:00:00	8	Radiación solar	0
72761	7	Sololá	702	San José Chacayá	5	Chacayá	1	Enero	2023-01-15T00:00:00	2024-11-06T00:00:00	2	Temperatura media	4.8
72762	7	Sololá	702	San José Chacayá	5	Chacayá	1	Enero	2023-01-15T00:00:00	2024-11-06T00:00:00	4	Temperatura máxima	5.2
72763	7	Sololá	702	San José Chacayá	5	Chacayá	1	Enero	2023-01-15T00:00:00	2024-11-06T00:00:00	3	Temperatura mínima	4.8
72764	7	Sololá	702	San José Chacayá	5	Chacayá	1	Enero	2023-01-15T00:00:00	2024-11-06T00:00:00	5	Humedad	58
72765	7	Sololá	702	San José Chacayá	5	Chacayá	1	Enero	2023-01-15T00:00:00	2024-11-06T00:00:00	6	Velocidad del viento	1.6
72766	7	Sololá	702	San José Chacayá	5	Chacayá	1	Enero	2023-01-15T00:00:00	2024-11-06T00:00:00	7	Dirección del viento	1.61
72767	7	Sololá	702	San José Chacayá	5	Chacayá	1	Enero	2023-01-15T00:00:00	2024-11-06T00:00:00	1	Precipitación	0
72768	7	Sololá	702	San José Chacayá	5	Chacayá	1	Enero	2023-01-15T00:00:00	2024-11-06T00:00:00	8	Radiación solar	0
72769	7	Sololá	702	San José Chacayá	5	Chacayá	1	Enero	2023-01-15T00:00:00	2024-11-06T01:00:00	2	Temperatura media	5
72770	7	Sololá	702	San José Chacayá	5	Chacayá	1	Enero	2023-01-15T00:00:00	2024-11-06T01:00:00	4	Temperatura máxima	5
72771	7	Sololá	702	San José Chacayá	5	Chacayá	1	Enero	2023-01-15T00:00:00	2024-11-06T01:00:00	3	Temperatura mínima	4.8
72772	7	Sololá	702	San José Chacayá	5	Chacayá	1	Enero	2023-01-15T00:00:00	2024-11-06T01:00:00	5	Humedad	60
72773	7	Sololá	702	San José Chacayá	5	Chacayá	1	Enero	2023-01-15T00:00:00	2024-11-06T01:00:00	6	Velocidad del viento	1.6
72774	7	Sololá	702	San José Chacayá	5	Chacayá	1	Enero	2023-01-15T00:00:00	2024-11-06T01:00:00	7	Dirección del viento	1.61
72775	7	Sololá	702	San José Chacayá	5	Chacayá	1	Enero	2023-01-15T00:00:00	2024-11-06T01:00:00	1	Precipitación	0
72776	7	Sololá	702	San José Chacayá	5	Chacayá	1	Enero	2023-01-15T00:00:00	2024-11-06T01:00:00	8	Radiación solar	0
72777	7	Sololá	702	San José Chacayá	5	Chacayá	1	Enero	2023-01-15T00:00:00	2024-11-06T02:00:00	2	Temperatura media	4.8
72778	7	Sololá	702	San José Chacayá	5	Chacayá	1	Enero	2023-01-15T00:00:00	2024-11-06T02:00:00	4	Temperatura máxima	5.1
72779	7	Sololá	702	San José Chacayá	5	Chacayá	1	Enero	2023-01-15T00:00:00	2024-11-06T02:00:00	3	Temperatura mínima	4.8
72780	7	Sololá	702	San José Chacayá	5	Chacayá	1	Enero	2023-01-15T00:00:00	2024-11-06T02:00:00	5	Humedad	66
72781	7	Sololá	702	San José Chacayá	5	Chacayá	1	Enero	2023-01-15T00:00:00	2024-11-06T02:00:00	6	Velocidad del viento	3.2
72782	7	Sololá	702	San José Chacayá	5	Chacayá	1	Enero	2023-01-15T00:00:00	2024-11-06T02:00:00	7	Dirección del viento	3.22
72783	7	Sololá	702	San José Chacayá	5	Chacayá	1	Enero	2023-01-15T00:00:00	2024-11-06T02:00:00	1	Precipitación	0
72784	7	Sololá	702	San José Chacayá	5	Chacayá	1	Enero	2023-01-15T00:00:00	2024-11-06T02:00:00	8	Radiación solar	0
72785	7	Sololá	702	San José Chacayá	5	Chacayá	1	Enero	2023-01-15T00:00:00	2024-11-06T03:00:00	2	Temperatura media	4.2
72786	7	Sololá	702	San José Chacayá	5	Chacayá	1	Enero	2023-01-15T00:00:00	2024-11-06T03:00:00	4	Temperatura máxima	4.8
72787	7	Sololá	702	San José Chacayá	5	Chacayá	1	Enero	2023-01-15T00:00:00	2024-11-06T03:00:00	3	Temperatura mínima	4.2
72788	7	Sololá	702	San José Chacayá	5	Chacayá	1	Enero	2023-01-15T00:00:00	2024-11-06T03:00:00	5	Humedad	71
72789	7	Sololá	702	San José Chacayá	5	Chacayá	1	Enero	2023-01-15T00:00:00	2024-11-06T03:00:00	6	Velocidad del viento	1.6
72790	7	Sololá	702	San José Chacayá	5	Chacayá	1	Enero	2023-01-15T00:00:00	2024-11-06T03:00:00	7	Dirección del viento	1.61
72791	7	Sololá	702	San José Chacayá	5	Chacayá	1	Enero	2023-01-15T00:00:00	2024-11-06T03:00:00	1	Precipitación	0
72792	7	Sololá	702	San José Chacayá	5	Chacayá	1	Enero	2023-01-15T00:00:00	2024-11-06T03:00:00	8	Radiación solar	0
72793	7	Sololá	702	San José Chacayá	5	Chacayá	1	Enero	2023-01-15T00:00:00	2024-11-06T04:00:00	2	Temperatura media	4.3
72794	7	Sololá	702	San José Chacayá	5	Chacayá	1	Enero	2023-01-15T00:00:00	2024-11-06T04:00:00	4	Temperatura máxima	4.9
72795	7	Sololá	702	San José Chacayá	5	Chacayá	1	Enero	2023-01-15T00:00:00	2024-11-06T04:00:00	3	Temperatura mínima	4.2
72796	7	Sololá	702	San José Chacayá	5	Chacayá	1	Enero	2023-01-15T00:00:00	2024-11-06T04:00:00	5	Humedad	72
72797	7	Sololá	702	San José Chacayá	5	Chacayá	1	Enero	2023-01-15T00:00:00	2024-11-06T04:00:00	6	Velocidad del viento	3.2
72798	7	Sololá	702	San José Chacayá	5	Chacayá	1	Enero	2023-01-15T00:00:00	2024-11-06T04:00:00	7	Dirección del viento	3.22
72799	7	Sololá	702	San José Chacayá	5	Chacayá	1	Enero	2023-01-15T00:00:00	2024-11-06T04:00:00	1	Precipitación	0
72800	7	Sololá	702	San José Chacayá	5	Chacayá	1	Enero	2023-01-15T00:00:00	2024-11-06T04:00:00	8	Radiación solar	0
72801	7	Sololá	702	San José Chacayá	5	Chacayá	1	Enero	2023-01-15T00:00:00	2024-11-06T05:00:00	2	Temperatura media	4
72802	7	Sololá	702	San José Chacayá	5	Chacayá	1	Enero	2023-01-15T00:00:00	2024-11-06T05:00:00	4	Temperatura máxima	4.4
72803	7	Sololá	702	San José Chacayá	5	Chacayá	1	Enero	2023-01-15T00:00:00	2024-11-06T05:00:00	3	Temperatura mínima	4
72804	7	Sololá	702	San José Chacayá	5	Chacayá	1	Enero	2023-01-15T00:00:00	2024-11-06T05:00:00	5	Humedad	75
72805	7	Sololá	702	San José Chacayá	5	Chacayá	1	Enero	2023-01-15T00:00:00	2024-11-06T05:00:00	6	Velocidad del viento	3.2
72806	7	Sololá	702	San José Chacayá	5	Chacayá	1	Enero	2023-01-15T00:00:00	2024-11-06T05:00:00	7	Dirección del viento	3.22
72807	7	Sololá	702	San José Chacayá	5	Chacayá	1	Enero	2023-01-15T00:00:00	2024-11-06T05:00:00	1	Precipitación	0
72808	7	Sololá	702	San José Chacayá	5	Chacayá	1	Enero	2023-01-15T00:00:00	2024-11-06T05:00:00	8	Radiación solar	0
72809	7	Sololá	702	San José Chacayá	5	Chacayá	1	Enero	2023-01-15T00:00:00	2024-11-06T06:00:00	2	Temperatura media	5.3
72810	7	Sololá	702	San José Chacayá	5	Chacayá	1	Enero	2023-01-15T00:00:00	2024-11-06T06:00:00	4	Temperatura máxima	5.3
72811	7	Sololá	702	San José Chacayá	5	Chacayá	1	Enero	2023-01-15T00:00:00	2024-11-06T06:00:00	3	Temperatura mínima	3.9
72812	7	Sololá	702	San José Chacayá	5	Chacayá	1	Enero	2023-01-15T00:00:00	2024-11-06T06:00:00	5	Humedad	73
72813	7	Sololá	702	San José Chacayá	5	Chacayá	1	Enero	2023-01-15T00:00:00	2024-11-06T06:00:00	6	Velocidad del viento	1.6
72814	7	Sololá	702	San José Chacayá	5	Chacayá	1	Enero	2023-01-15T00:00:00	2024-11-06T06:00:00	7	Dirección del viento	1.61
72815	7	Sololá	702	San José Chacayá	5	Chacayá	1	Enero	2023-01-15T00:00:00	2024-11-06T06:00:00	1	Precipitación	0
72816	7	Sololá	702	San José Chacayá	5	Chacayá	1	Enero	2023-01-15T00:00:00	2024-11-06T06:00:00	8	Radiación solar	0
72817	7	Sololá	702	San José Chacayá	5	Chacayá	1	Enero	2023-01-15T00:00:00	2024-11-06T07:00:00	2	Temperatura media	12
72818	7	Sololá	702	San José Chacayá	5	Chacayá	1	Enero	2023-01-15T00:00:00	2024-11-06T07:00:00	4	Temperatura máxima	12
72819	7	Sololá	702	San José Chacayá	5	Chacayá	1	Enero	2023-01-15T00:00:00	2024-11-06T07:00:00	3	Temperatura mínima	5.3
72820	7	Sololá	702	San José Chacayá	5	Chacayá	1	Enero	2023-01-15T00:00:00	2024-11-06T07:00:00	5	Humedad	59
72821	7	Sololá	702	San José Chacayá	5	Chacayá	1	Enero	2023-01-15T00:00:00	2024-11-06T07:00:00	6	Velocidad del viento	1.6
72822	7	Sololá	702	San José Chacayá	5	Chacayá	1	Enero	2023-01-15T00:00:00	2024-11-06T07:00:00	7	Dirección del viento	1.61
72823	7	Sololá	702	San José Chacayá	5	Chacayá	1	Enero	2023-01-15T00:00:00	2024-11-06T07:00:00	1	Precipitación	0
72824	7	Sololá	702	San José Chacayá	5	Chacayá	1	Enero	2023-01-15T00:00:00	2024-11-06T07:00:00	8	Radiación solar	8
72825	7	Sololá	702	San José Chacayá	5	Chacayá	1	Enero	2023-01-15T00:00:00	2024-11-06T08:00:00	2	Temperatura media	19.2
72826	7	Sololá	702	San José Chacayá	5	Chacayá	1	Enero	2023-01-15T00:00:00	2024-11-06T08:00:00	4	Temperatura máxima	19.2
72827	7	Sololá	702	San José Chacayá	5	Chacayá	1	Enero	2023-01-15T00:00:00	2024-11-06T08:00:00	3	Temperatura mínima	11.9
72828	7	Sololá	702	San José Chacayá	5	Chacayá	1	Enero	2023-01-15T00:00:00	2024-11-06T08:00:00	5	Humedad	39
72829	7	Sololá	702	San José Chacayá	5	Chacayá	1	Enero	2023-01-15T00:00:00	2024-11-06T08:00:00	6	Velocidad del viento	1.6
72830	7	Sololá	702	San José Chacayá	5	Chacayá	1	Enero	2023-01-15T00:00:00	2024-11-06T08:00:00	7	Dirección del viento	1.61
72831	7	Sololá	702	San José Chacayá	5	Chacayá	1	Enero	2023-01-15T00:00:00	2024-11-06T08:00:00	1	Precipitación	0
72832	7	Sololá	702	San José Chacayá	5	Chacayá	1	Enero	2023-01-15T00:00:00	2024-11-06T08:00:00	8	Radiación solar	189
72833	7	Sololá	702	San José Chacayá	5	Chacayá	1	Enero	2023-01-15T00:00:00	2024-11-06T09:00:00	2	Temperatura media	20.2
72834	7	Sololá	702	San José Chacayá	5	Chacayá	1	Enero	2023-01-15T00:00:00	2024-11-06T09:00:00	4	Temperatura máxima	20.2
72835	7	Sololá	702	San José Chacayá	5	Chacayá	1	Enero	2023-01-15T00:00:00	2024-11-06T09:00:00	3	Temperatura mínima	18.9
72836	7	Sololá	702	San José Chacayá	5	Chacayá	1	Enero	2023-01-15T00:00:00	2024-11-06T09:00:00	5	Humedad	40
72837	7	Sololá	702	San José Chacayá	5	Chacayá	1	Enero	2023-01-15T00:00:00	2024-11-06T09:00:00	6	Velocidad del viento	1.6
72838	7	Sololá	702	San José Chacayá	5	Chacayá	1	Enero	2023-01-15T00:00:00	2024-11-06T09:00:00	7	Dirección del viento	1.61
72839	7	Sololá	702	San José Chacayá	5	Chacayá	1	Enero	2023-01-15T00:00:00	2024-11-06T09:00:00	1	Precipitación	0
72840	7	Sololá	702	San José Chacayá	5	Chacayá	1	Enero	2023-01-15T00:00:00	2024-11-06T09:00:00	8	Radiación solar	407
72841	7	Sololá	702	San José Chacayá	5	Chacayá	1	Enero	2023-01-15T00:00:00	2024-11-06T10:00:00	2	Temperatura media	22.3
72842	7	Sololá	702	San José Chacayá	5	Chacayá	1	Enero	2023-01-15T00:00:00	2024-11-06T10:00:00	4	Temperatura máxima	22.3
72843	7	Sololá	702	San José Chacayá	5	Chacayá	1	Enero	2023-01-15T00:00:00	2024-11-06T10:00:00	3	Temperatura mínima	20
72844	7	Sololá	702	San José Chacayá	5	Chacayá	1	Enero	2023-01-15T00:00:00	2024-11-06T10:00:00	5	Humedad	34
72845	7	Sololá	702	San José Chacayá	5	Chacayá	1	Enero	2023-01-15T00:00:00	2024-11-06T10:00:00	6	Velocidad del viento	3.2
72846	7	Sololá	702	San José Chacayá	5	Chacayá	1	Enero	2023-01-15T00:00:00	2024-11-06T10:00:00	7	Dirección del viento	3.22
72847	7	Sololá	702	San José Chacayá	5	Chacayá	1	Enero	2023-01-15T00:00:00	2024-11-06T10:00:00	1	Precipitación	0
72848	7	Sololá	702	San José Chacayá	5	Chacayá	1	Enero	2023-01-15T00:00:00	2024-11-06T10:00:00	8	Radiación solar	105
72849	7	Sololá	702	San José Chacayá	5	Chacayá	1	Enero	2023-01-15T00:00:00	2024-11-06T11:00:00	2	Temperatura media	21.3
72850	7	Sololá	702	San José Chacayá	5	Chacayá	1	Enero	2023-01-15T00:00:00	2024-11-06T11:00:00	4	Temperatura máxima	22.4
72851	7	Sololá	702	San José Chacayá	5	Chacayá	1	Enero	2023-01-15T00:00:00	2024-11-06T11:00:00	3	Temperatura mínima	21
72852	7	Sololá	702	San José Chacayá	5	Chacayá	1	Enero	2023-01-15T00:00:00	2024-11-06T11:00:00	5	Humedad	35
72853	7	Sololá	702	San José Chacayá	5	Chacayá	1	Enero	2023-01-15T00:00:00	2024-11-06T11:00:00	6	Velocidad del viento	6.4
72854	7	Sololá	702	San José Chacayá	5	Chacayá	1	Enero	2023-01-15T00:00:00	2024-11-06T11:00:00	7	Dirección del viento	6.44
72855	7	Sololá	702	San José Chacayá	5	Chacayá	1	Enero	2023-01-15T00:00:00	2024-11-06T11:00:00	1	Precipitación	0
72856	7	Sololá	702	San José Chacayá	5	Chacayá	1	Enero	2023-01-15T00:00:00	2024-11-06T11:00:00	8	Radiación solar	40
72857	7	Sololá	702	San José Chacayá	5	Chacayá	1	Enero	2023-01-15T00:00:00	2024-11-06T12:00:00	2	Temperatura media	20
72858	7	Sololá	702	San José Chacayá	5	Chacayá	1	Enero	2023-01-15T00:00:00	2024-11-06T12:00:00	4	Temperatura máxima	21.4
72859	7	Sololá	702	San José Chacayá	5	Chacayá	1	Enero	2023-01-15T00:00:00	2024-11-06T12:00:00	3	Temperatura mínima	19.9
72860	7	Sololá	702	San José Chacayá	5	Chacayá	1	Enero	2023-01-15T00:00:00	2024-11-06T12:00:00	5	Humedad	57
72861	7	Sololá	702	San José Chacayá	5	Chacayá	1	Enero	2023-01-15T00:00:00	2024-11-06T12:00:00	6	Velocidad del viento	6.4
72862	7	Sololá	702	San José Chacayá	5	Chacayá	1	Enero	2023-01-15T00:00:00	2024-11-06T12:00:00	7	Dirección del viento	6.44
72863	7	Sololá	702	San José Chacayá	5	Chacayá	1	Enero	2023-01-15T00:00:00	2024-11-06T12:00:00	1	Precipitación	0
72864	7	Sololá	702	San José Chacayá	5	Chacayá	1	Enero	2023-01-15T00:00:00	2024-11-06T12:00:00	8	Radiación solar	697
72865	7	Sololá	702	San José Chacayá	5	Chacayá	1	Enero	2023-01-15T00:00:00	2024-11-06T13:00:00	2	Temperatura media	19.1
72866	7	Sololá	702	San José Chacayá	5	Chacayá	1	Enero	2023-01-15T00:00:00	2024-11-06T13:00:00	4	Temperatura máxima	20
72867	7	Sololá	702	San José Chacayá	5	Chacayá	1	Enero	2023-01-15T00:00:00	2024-11-06T13:00:00	3	Temperatura mínima	18.8
72868	7	Sololá	702	San José Chacayá	5	Chacayá	1	Enero	2023-01-15T00:00:00	2024-11-06T13:00:00	5	Humedad	62
72869	7	Sololá	702	San José Chacayá	5	Chacayá	1	Enero	2023-01-15T00:00:00	2024-11-06T13:00:00	6	Velocidad del viento	6.4
72870	7	Sololá	702	San José Chacayá	5	Chacayá	1	Enero	2023-01-15T00:00:00	2024-11-06T13:00:00	7	Dirección del viento	6.44
72871	7	Sololá	702	San José Chacayá	5	Chacayá	1	Enero	2023-01-15T00:00:00	2024-11-06T13:00:00	1	Precipitación	0
72872	7	Sololá	702	San José Chacayá	5	Chacayá	1	Enero	2023-01-15T00:00:00	2024-11-06T13:00:00	8	Radiación solar	842
72873	7	Sololá	702	San José Chacayá	5	Chacayá	1	Enero	2023-01-15T00:00:00	2024-11-06T14:00:00	2	Temperatura media	17.1
72874	7	Sololá	702	San José Chacayá	5	Chacayá	1	Enero	2023-01-15T00:00:00	2024-11-06T14:00:00	4	Temperatura máxima	19.1
72875	7	Sololá	702	San José Chacayá	5	Chacayá	1	Enero	2023-01-15T00:00:00	2024-11-06T14:00:00	3	Temperatura mínima	17.1
72876	7	Sololá	702	San José Chacayá	5	Chacayá	1	Enero	2023-01-15T00:00:00	2024-11-06T14:00:00	5	Humedad	70
72877	7	Sololá	702	San José Chacayá	5	Chacayá	1	Enero	2023-01-15T00:00:00	2024-11-06T14:00:00	6	Velocidad del viento	6.4
72878	7	Sololá	702	San José Chacayá	5	Chacayá	1	Enero	2023-01-15T00:00:00	2024-11-06T14:00:00	7	Dirección del viento	6.44
72879	7	Sololá	702	San José Chacayá	5	Chacayá	1	Enero	2023-01-15T00:00:00	2024-11-06T14:00:00	1	Precipitación	0
72880	7	Sololá	702	San José Chacayá	5	Chacayá	1	Enero	2023-01-15T00:00:00	2024-11-06T14:00:00	8	Radiación solar	772
72881	7	Sololá	702	San José Chacayá	5	Chacayá	1	Enero	2023-01-15T00:00:00	2024-11-06T15:00:00	2	Temperatura media	15.7
72882	7	Sololá	702	San José Chacayá	5	Chacayá	1	Enero	2023-01-15T00:00:00	2024-11-06T15:00:00	4	Temperatura máxima	17.1
72883	7	Sololá	702	San José Chacayá	5	Chacayá	1	Enero	2023-01-15T00:00:00	2024-11-06T15:00:00	3	Temperatura mínima	15.5
72884	7	Sololá	702	San José Chacayá	5	Chacayá	1	Enero	2023-01-15T00:00:00	2024-11-06T15:00:00	5	Humedad	77
72885	7	Sololá	702	San José Chacayá	5	Chacayá	1	Enero	2023-01-15T00:00:00	2024-11-06T15:00:00	6	Velocidad del viento	4.8
72886	7	Sololá	702	San José Chacayá	5	Chacayá	1	Enero	2023-01-15T00:00:00	2024-11-06T15:00:00	7	Dirección del viento	4.83
72887	7	Sololá	702	San José Chacayá	5	Chacayá	1	Enero	2023-01-15T00:00:00	2024-11-06T15:00:00	1	Precipitación	0
72888	7	Sololá	702	San José Chacayá	5	Chacayá	1	Enero	2023-01-15T00:00:00	2024-11-06T15:00:00	8	Radiación solar	629
72889	7	Sololá	702	San José Chacayá	5	Chacayá	1	Enero	2023-01-15T00:00:00	2024-11-06T16:00:00	2	Temperatura media	14.5
72890	7	Sololá	702	San José Chacayá	5	Chacayá	1	Enero	2023-01-15T00:00:00	2024-11-06T16:00:00	4	Temperatura máxima	15.8
72891	7	Sololá	702	San José Chacayá	5	Chacayá	1	Enero	2023-01-15T00:00:00	2024-11-06T16:00:00	3	Temperatura mínima	14.5
72892	7	Sololá	702	San José Chacayá	5	Chacayá	1	Enero	2023-01-15T00:00:00	2024-11-06T16:00:00	5	Humedad	83
72893	7	Sololá	702	San José Chacayá	5	Chacayá	1	Enero	2023-01-15T00:00:00	2024-11-06T16:00:00	6	Velocidad del viento	3.2
72894	7	Sololá	702	San José Chacayá	5	Chacayá	1	Enero	2023-01-15T00:00:00	2024-11-06T16:00:00	7	Dirección del viento	3.22
72895	7	Sololá	702	San José Chacayá	5	Chacayá	1	Enero	2023-01-15T00:00:00	2024-11-06T16:00:00	1	Precipitación	0
72896	7	Sololá	702	San José Chacayá	5	Chacayá	1	Enero	2023-01-15T00:00:00	2024-11-06T16:00:00	8	Radiación solar	450
72897	7	Sololá	702	San José Chacayá	5	Chacayá	1	Enero	2023-01-15T00:00:00	2024-11-06T17:00:00	2	Temperatura media	13.6
72898	7	Sololá	702	San José Chacayá	5	Chacayá	1	Enero	2023-01-15T00:00:00	2024-11-06T17:00:00	4	Temperatura máxima	14.5
72899	7	Sololá	702	San José Chacayá	5	Chacayá	1	Enero	2023-01-15T00:00:00	2024-11-06T17:00:00	3	Temperatura mínima	13.6
72900	7	Sololá	702	San José Chacayá	5	Chacayá	1	Enero	2023-01-15T00:00:00	2024-11-06T17:00:00	5	Humedad	91
72901	7	Sololá	702	San José Chacayá	5	Chacayá	1	Enero	2023-01-15T00:00:00	2024-11-06T17:00:00	6	Velocidad del viento	1.6
72902	7	Sololá	702	San José Chacayá	5	Chacayá	1	Enero	2023-01-15T00:00:00	2024-11-06T17:00:00	7	Dirección del viento	1.61
72903	7	Sololá	702	San José Chacayá	5	Chacayá	1	Enero	2023-01-15T00:00:00	2024-11-06T17:00:00	1	Precipitación	0
72904	7	Sololá	702	San José Chacayá	5	Chacayá	1	Enero	2023-01-15T00:00:00	2024-11-06T17:00:00	8	Radiación solar	157
72905	7	Sololá	702	San José Chacayá	5	Chacayá	1	Enero	2023-01-15T00:00:00	2024-11-06T18:00:00	2	Temperatura media	12.9
72906	7	Sololá	702	San José Chacayá	5	Chacayá	1	Enero	2023-01-15T00:00:00	2024-11-06T18:00:00	4	Temperatura máxima	13.6
72907	7	Sololá	702	San José Chacayá	5	Chacayá	1	Enero	2023-01-15T00:00:00	2024-11-06T18:00:00	3	Temperatura mínima	12.9
72908	7	Sololá	702	San José Chacayá	5	Chacayá	1	Enero	2023-01-15T00:00:00	2024-11-06T18:00:00	5	Humedad	94
72909	7	Sololá	702	San José Chacayá	5	Chacayá	1	Enero	2023-01-15T00:00:00	2024-11-06T18:00:00	6	Velocidad del viento	0
72910	7	Sololá	702	San José Chacayá	5	Chacayá	1	Enero	2023-01-15T00:00:00	2024-11-06T18:00:00	7	Dirección del viento	0
72911	7	Sololá	702	San José Chacayá	5	Chacayá	1	Enero	2023-01-15T00:00:00	2024-11-06T18:00:00	1	Precipitación	0
72912	7	Sololá	702	San José Chacayá	5	Chacayá	1	Enero	2023-01-15T00:00:00	2024-11-06T18:00:00	8	Radiación solar	11
72913	7	Sololá	702	San José Chacayá	5	Chacayá	1	Enero	2023-01-15T00:00:00	2024-11-06T19:00:00	2	Temperatura media	12.3
72914	7	Sololá	702	San José Chacayá	5	Chacayá	1	Enero	2023-01-15T00:00:00	2024-11-06T19:00:00	4	Temperatura máxima	12.9
72915	7	Sololá	702	San José Chacayá	5	Chacayá	1	Enero	2023-01-15T00:00:00	2024-11-06T19:00:00	3	Temperatura mínima	12.3
72916	7	Sololá	702	San José Chacayá	5	Chacayá	1	Enero	2023-01-15T00:00:00	2024-11-06T19:00:00	5	Humedad	90
72917	7	Sololá	702	San José Chacayá	5	Chacayá	1	Enero	2023-01-15T00:00:00	2024-11-06T19:00:00	6	Velocidad del viento	0
72918	7	Sololá	702	San José Chacayá	5	Chacayá	1	Enero	2023-01-15T00:00:00	2024-11-06T19:00:00	7	Dirección del viento	0
72919	7	Sololá	702	San José Chacayá	5	Chacayá	1	Enero	2023-01-15T00:00:00	2024-11-06T19:00:00	1	Precipitación	0
72920	7	Sololá	702	San José Chacayá	5	Chacayá	1	Enero	2023-01-15T00:00:00	2024-11-06T19:00:00	8	Radiación solar	0
72921	7	Sololá	702	San José Chacayá	5	Chacayá	1	Enero	2023-01-15T00:00:00	2024-11-06T20:00:00	2	Temperatura media	10.9
72922	7	Sololá	702	San José Chacayá	5	Chacayá	1	Enero	2023-01-15T00:00:00	2024-11-06T20:00:00	4	Temperatura máxima	12.3
72923	7	Sololá	702	San José Chacayá	5	Chacayá	1	Enero	2023-01-15T00:00:00	2024-11-06T20:00:00	3	Temperatura mínima	10.9
72924	7	Sololá	702	San José Chacayá	5	Chacayá	1	Enero	2023-01-15T00:00:00	2024-11-06T20:00:00	5	Humedad	90
72925	7	Sololá	702	San José Chacayá	5	Chacayá	1	Enero	2023-01-15T00:00:00	2024-11-06T20:00:00	6	Velocidad del viento	0
72926	7	Sololá	702	San José Chacayá	5	Chacayá	1	Enero	2023-01-15T00:00:00	2024-11-06T20:00:00	7	Dirección del viento	0
72927	7	Sololá	702	San José Chacayá	5	Chacayá	1	Enero	2023-01-15T00:00:00	2024-11-06T20:00:00	1	Precipitación	0
72928	7	Sololá	702	San José Chacayá	5	Chacayá	1	Enero	2023-01-15T00:00:00	2024-11-06T20:00:00	8	Radiación solar	0
72929	7	Sololá	702	San José Chacayá	5	Chacayá	1	Enero	2023-01-15T00:00:00	2024-11-06T21:00:00	2	Temperatura media	10
72930	7	Sololá	702	San José Chacayá	5	Chacayá	1	Enero	2023-01-15T00:00:00	2024-11-06T21:00:00	4	Temperatura máxima	10.9
72931	7	Sololá	702	San José Chacayá	5	Chacayá	1	Enero	2023-01-15T00:00:00	2024-11-06T21:00:00	3	Temperatura mínima	10
72932	7	Sololá	702	San José Chacayá	5	Chacayá	1	Enero	2023-01-15T00:00:00	2024-11-06T21:00:00	5	Humedad	91
72933	7	Sololá	702	San José Chacayá	5	Chacayá	1	Enero	2023-01-15T00:00:00	2024-11-06T21:00:00	6	Velocidad del viento	1.6
72934	7	Sololá	702	San José Chacayá	5	Chacayá	1	Enero	2023-01-15T00:00:00	2024-11-06T21:00:00	7	Dirección del viento	1.61
72935	7	Sololá	702	San José Chacayá	5	Chacayá	1	Enero	2023-01-15T00:00:00	2024-11-06T21:00:00	1	Precipitación	0
72936	7	Sololá	702	San José Chacayá	5	Chacayá	1	Enero	2023-01-15T00:00:00	2024-11-06T21:00:00	8	Radiación solar	0
72937	7	Sololá	702	San José Chacayá	5	Chacayá	1	Enero	2023-01-15T00:00:00	2024-11-06T22:00:00	2	Temperatura media	10.4
72938	7	Sololá	702	San José Chacayá	5	Chacayá	1	Enero	2023-01-15T00:00:00	2024-11-06T22:00:00	4	Temperatura máxima	10.4
72939	7	Sololá	702	San José Chacayá	5	Chacayá	1	Enero	2023-01-15T00:00:00	2024-11-06T22:00:00	3	Temperatura mínima	9.7
72940	7	Sololá	702	San José Chacayá	5	Chacayá	1	Enero	2023-01-15T00:00:00	2024-11-06T22:00:00	5	Humedad	92
72941	7	Sololá	702	San José Chacayá	5	Chacayá	1	Enero	2023-01-15T00:00:00	2024-11-06T22:00:00	6	Velocidad del viento	0
72942	7	Sololá	702	San José Chacayá	5	Chacayá	1	Enero	2023-01-15T00:00:00	2024-11-06T22:00:00	7	Dirección del viento	0
72943	7	Sololá	702	San José Chacayá	5	Chacayá	1	Enero	2023-01-15T00:00:00	2024-11-06T22:00:00	1	Precipitación	0
72944	7	Sololá	702	San José Chacayá	5	Chacayá	1	Enero	2023-01-15T00:00:00	2024-11-06T22:00:00	8	Radiación solar	0
72945	7	Sololá	702	San José Chacayá	5	Chacayá	1	Enero	2023-01-15T00:00:00	2024-11-06T23:00:00	2	Temperatura media	11.2
72946	7	Sololá	702	San José Chacayá	5	Chacayá	1	Enero	2023-01-15T00:00:00	2024-11-06T23:00:00	4	Temperatura máxima	11.3
72947	7	Sololá	702	San José Chacayá	5	Chacayá	1	Enero	2023-01-15T00:00:00	2024-11-06T23:00:00	3	Temperatura mínima	10.4
72948	7	Sololá	702	San José Chacayá	5	Chacayá	1	Enero	2023-01-15T00:00:00	2024-11-06T23:00:00	5	Humedad	90
72949	7	Sololá	702	San José Chacayá	5	Chacayá	1	Enero	2023-01-15T00:00:00	2024-11-06T23:00:00	6	Velocidad del viento	0
72950	7	Sololá	702	San José Chacayá	5	Chacayá	1	Enero	2023-01-15T00:00:00	2024-11-06T23:00:00	7	Dirección del viento	0
72951	7	Sololá	702	San José Chacayá	5	Chacayá	1	Enero	2023-01-15T00:00:00	2024-11-06T23:00:00	1	Precipitación	0
72952	7	Sololá	702	San José Chacayá	5	Chacayá	1	Enero	2023-01-15T00:00:00	2024-11-06T23:00:00	8	Radiación solar	0
72953	7	Sololá	702	San José Chacayá	5	Chacayá	1	Enero	2023-01-16T00:00:00	2024-11-06T00:00:00	2	Temperatura media	11.2
72954	7	Sololá	702	San José Chacayá	5	Chacayá	1	Enero	2023-01-16T00:00:00	2024-11-06T00:00:00	4	Temperatura máxima	11.4
72955	7	Sololá	702	San José Chacayá	5	Chacayá	1	Enero	2023-01-16T00:00:00	2024-11-06T00:00:00	3	Temperatura mínima	11.2
72956	7	Sololá	702	San José Chacayá	5	Chacayá	1	Enero	2023-01-16T00:00:00	2024-11-06T00:00:00	5	Humedad	90
72957	7	Sololá	702	San José Chacayá	5	Chacayá	1	Enero	2023-01-16T00:00:00	2024-11-06T00:00:00	6	Velocidad del viento	0
72958	7	Sololá	702	San José Chacayá	5	Chacayá	1	Enero	2023-01-16T00:00:00	2024-11-06T00:00:00	7	Dirección del viento	0
72959	7	Sololá	702	San José Chacayá	5	Chacayá	1	Enero	2023-01-16T00:00:00	2024-11-06T00:00:00	1	Precipitación	0
72960	7	Sololá	702	San José Chacayá	5	Chacayá	1	Enero	2023-01-16T00:00:00	2024-11-06T00:00:00	8	Radiación solar	0
72961	7	Sololá	702	San José Chacayá	5	Chacayá	1	Enero	2023-01-16T00:00:00	2024-11-06T01:00:00	2	Temperatura media	9
72962	7	Sololá	702	San José Chacayá	5	Chacayá	1	Enero	2023-01-16T00:00:00	2024-11-06T01:00:00	4	Temperatura máxima	11.2
72963	7	Sololá	702	San José Chacayá	5	Chacayá	1	Enero	2023-01-16T00:00:00	2024-11-06T01:00:00	3	Temperatura mínima	9
72964	7	Sololá	702	San José Chacayá	5	Chacayá	1	Enero	2023-01-16T00:00:00	2024-11-06T01:00:00	5	Humedad	91
72965	7	Sololá	702	San José Chacayá	5	Chacayá	1	Enero	2023-01-16T00:00:00	2024-11-06T01:00:00	6	Velocidad del viento	0
72966	7	Sololá	702	San José Chacayá	5	Chacayá	1	Enero	2023-01-16T00:00:00	2024-11-06T01:00:00	7	Dirección del viento	0
72967	7	Sololá	702	San José Chacayá	5	Chacayá	1	Enero	2023-01-16T00:00:00	2024-11-06T01:00:00	1	Precipitación	0
72968	7	Sololá	702	San José Chacayá	5	Chacayá	1	Enero	2023-01-16T00:00:00	2024-11-06T01:00:00	8	Radiación solar	0
72969	7	Sololá	702	San José Chacayá	5	Chacayá	1	Enero	2023-01-16T00:00:00	2024-11-06T02:00:00	2	Temperatura media	7.8
72970	7	Sololá	702	San José Chacayá	5	Chacayá	1	Enero	2023-01-16T00:00:00	2024-11-06T02:00:00	4	Temperatura máxima	9
72971	7	Sololá	702	San José Chacayá	5	Chacayá	1	Enero	2023-01-16T00:00:00	2024-11-06T02:00:00	3	Temperatura mínima	7.8
72972	7	Sololá	702	San José Chacayá	5	Chacayá	1	Enero	2023-01-16T00:00:00	2024-11-06T02:00:00	5	Humedad	91
72973	7	Sololá	702	San José Chacayá	5	Chacayá	1	Enero	2023-01-16T00:00:00	2024-11-06T02:00:00	6	Velocidad del viento	0
72974	7	Sololá	702	San José Chacayá	5	Chacayá	1	Enero	2023-01-16T00:00:00	2024-11-06T02:00:00	7	Dirección del viento	0
72975	7	Sololá	702	San José Chacayá	5	Chacayá	1	Enero	2023-01-16T00:00:00	2024-11-06T02:00:00	1	Precipitación	0
72976	7	Sololá	702	San José Chacayá	5	Chacayá	1	Enero	2023-01-16T00:00:00	2024-11-06T02:00:00	8	Radiación solar	0
72977	7	Sololá	702	San José Chacayá	5	Chacayá	1	Enero	2023-01-16T00:00:00	2024-11-06T03:00:00	2	Temperatura media	7
72978	7	Sololá	702	San José Chacayá	5	Chacayá	1	Enero	2023-01-16T00:00:00	2024-11-06T03:00:00	4	Temperatura máxima	7.8
72979	7	Sololá	702	San José Chacayá	5	Chacayá	1	Enero	2023-01-16T00:00:00	2024-11-06T03:00:00	3	Temperatura mínima	7
72980	7	Sololá	702	San José Chacayá	5	Chacayá	1	Enero	2023-01-16T00:00:00	2024-11-06T03:00:00	5	Humedad	93
72981	7	Sololá	702	San José Chacayá	5	Chacayá	1	Enero	2023-01-16T00:00:00	2024-11-06T03:00:00	6	Velocidad del viento	1.6
72982	7	Sololá	702	San José Chacayá	5	Chacayá	1	Enero	2023-01-16T00:00:00	2024-11-06T03:00:00	7	Dirección del viento	1.61
72983	7	Sololá	702	San José Chacayá	5	Chacayá	1	Enero	2023-01-16T00:00:00	2024-11-06T03:00:00	1	Precipitación	0
72984	7	Sololá	702	San José Chacayá	5	Chacayá	1	Enero	2023-01-16T00:00:00	2024-11-06T03:00:00	8	Radiación solar	0
72985	7	Sololá	702	San José Chacayá	5	Chacayá	1	Enero	2023-01-16T00:00:00	2024-11-06T04:00:00	2	Temperatura media	6.4
72986	7	Sololá	702	San José Chacayá	5	Chacayá	1	Enero	2023-01-16T00:00:00	2024-11-06T04:00:00	4	Temperatura máxima	7
72987	7	Sololá	702	San José Chacayá	5	Chacayá	1	Enero	2023-01-16T00:00:00	2024-11-06T04:00:00	3	Temperatura mínima	6.4
72988	7	Sololá	702	San José Chacayá	5	Chacayá	1	Enero	2023-01-16T00:00:00	2024-11-06T04:00:00	5	Humedad	94
72989	7	Sololá	702	San José Chacayá	5	Chacayá	1	Enero	2023-01-16T00:00:00	2024-11-06T04:00:00	6	Velocidad del viento	1.6
72990	7	Sololá	702	San José Chacayá	5	Chacayá	1	Enero	2023-01-16T00:00:00	2024-11-06T04:00:00	7	Dirección del viento	1.61
72991	7	Sololá	702	San José Chacayá	5	Chacayá	1	Enero	2023-01-16T00:00:00	2024-11-06T04:00:00	1	Precipitación	0
72992	7	Sololá	702	San José Chacayá	5	Chacayá	1	Enero	2023-01-16T00:00:00	2024-11-06T04:00:00	8	Radiación solar	0
72993	7	Sololá	702	San José Chacayá	5	Chacayá	1	Enero	2023-01-16T00:00:00	2024-11-06T05:00:00	2	Temperatura media	6.1
72994	7	Sololá	702	San José Chacayá	5	Chacayá	1	Enero	2023-01-16T00:00:00	2024-11-06T05:00:00	4	Temperatura máxima	6.6
72995	7	Sololá	702	San José Chacayá	5	Chacayá	1	Enero	2023-01-16T00:00:00	2024-11-06T05:00:00	3	Temperatura mínima	6.1
72996	7	Sololá	702	San José Chacayá	5	Chacayá	1	Enero	2023-01-16T00:00:00	2024-11-06T05:00:00	5	Humedad	92
72997	7	Sololá	702	San José Chacayá	5	Chacayá	1	Enero	2023-01-16T00:00:00	2024-11-06T05:00:00	6	Velocidad del viento	1.6
72998	7	Sololá	702	San José Chacayá	5	Chacayá	1	Enero	2023-01-16T00:00:00	2024-11-06T05:00:00	7	Dirección del viento	1.61
72999	7	Sololá	702	San José Chacayá	5	Chacayá	1	Enero	2023-01-16T00:00:00	2024-11-06T05:00:00	1	Precipitación	0
73000	7	Sololá	702	San José Chacayá	5	Chacayá	1	Enero	2023-01-16T00:00:00	2024-11-06T05:00:00	8	Radiación solar	0
73001	7	Sololá	702	San José Chacayá	5	Chacayá	1	Enero	2023-01-16T00:00:00	2024-11-06T06:00:00	2	Temperatura media	6.3
73002	7	Sololá	702	San José Chacayá	5	Chacayá	1	Enero	2023-01-16T00:00:00	2024-11-06T06:00:00	4	Temperatura máxima	6.3
73003	7	Sololá	702	San José Chacayá	5	Chacayá	1	Enero	2023-01-16T00:00:00	2024-11-06T06:00:00	3	Temperatura mínima	5.8
73004	7	Sololá	702	San José Chacayá	5	Chacayá	1	Enero	2023-01-16T00:00:00	2024-11-06T06:00:00	5	Humedad	91
73005	7	Sololá	702	San José Chacayá	5	Chacayá	1	Enero	2023-01-16T00:00:00	2024-11-06T06:00:00	6	Velocidad del viento	1.6
73006	7	Sololá	702	San José Chacayá	5	Chacayá	1	Enero	2023-01-16T00:00:00	2024-11-06T06:00:00	7	Dirección del viento	1.61
73007	7	Sololá	702	San José Chacayá	5	Chacayá	1	Enero	2023-01-16T00:00:00	2024-11-06T06:00:00	1	Precipitación	0
73008	7	Sololá	702	San José Chacayá	5	Chacayá	1	Enero	2023-01-16T00:00:00	2024-11-06T06:00:00	8	Radiación solar	0
73009	7	Sololá	702	San José Chacayá	5	Chacayá	1	Enero	2023-01-16T00:00:00	2024-11-06T07:00:00	2	Temperatura media	10.5
73010	7	Sololá	702	San José Chacayá	5	Chacayá	1	Enero	2023-01-16T00:00:00	2024-11-06T07:00:00	4	Temperatura máxima	10.5
73011	7	Sololá	702	San José Chacayá	5	Chacayá	1	Enero	2023-01-16T00:00:00	2024-11-06T07:00:00	3	Temperatura mínima	6.3
73012	7	Sololá	702	San José Chacayá	5	Chacayá	1	Enero	2023-01-16T00:00:00	2024-11-06T07:00:00	5	Humedad	85
73013	7	Sololá	702	San José Chacayá	5	Chacayá	1	Enero	2023-01-16T00:00:00	2024-11-06T07:00:00	6	Velocidad del viento	1.6
73014	7	Sololá	702	San José Chacayá	5	Chacayá	1	Enero	2023-01-16T00:00:00	2024-11-06T07:00:00	7	Dirección del viento	1.61
73015	7	Sololá	702	San José Chacayá	5	Chacayá	1	Enero	2023-01-16T00:00:00	2024-11-06T07:00:00	1	Precipitación	0
73016	7	Sololá	702	San José Chacayá	5	Chacayá	1	Enero	2023-01-16T00:00:00	2024-11-06T07:00:00	8	Radiación solar	9
73017	7	Sololá	702	San José Chacayá	5	Chacayá	1	Enero	2023-01-16T00:00:00	2024-11-06T08:00:00	2	Temperatura media	15.8
73018	7	Sololá	702	San José Chacayá	5	Chacayá	1	Enero	2023-01-16T00:00:00	2024-11-06T08:00:00	4	Temperatura máxima	16.3
73019	7	Sololá	702	San José Chacayá	5	Chacayá	1	Enero	2023-01-16T00:00:00	2024-11-06T08:00:00	3	Temperatura mínima	10.6
73020	7	Sololá	702	San José Chacayá	5	Chacayá	1	Enero	2023-01-16T00:00:00	2024-11-06T08:00:00	5	Humedad	65
73021	7	Sololá	702	San José Chacayá	5	Chacayá	1	Enero	2023-01-16T00:00:00	2024-11-06T08:00:00	6	Velocidad del viento	1.6
73022	7	Sololá	702	San José Chacayá	5	Chacayá	1	Enero	2023-01-16T00:00:00	2024-11-06T08:00:00	7	Dirección del viento	1.61
73023	7	Sololá	702	San José Chacayá	5	Chacayá	1	Enero	2023-01-16T00:00:00	2024-11-06T08:00:00	1	Precipitación	0
73024	7	Sololá	702	San José Chacayá	5	Chacayá	1	Enero	2023-01-16T00:00:00	2024-11-06T08:00:00	8	Radiación solar	66
73025	7	Sololá	702	San José Chacayá	5	Chacayá	1	Enero	2023-01-16T00:00:00	2024-11-06T09:00:00	2	Temperatura media	18.4
73026	7	Sololá	702	San José Chacayá	5	Chacayá	1	Enero	2023-01-16T00:00:00	2024-11-06T09:00:00	4	Temperatura máxima	18.4
73027	7	Sololá	702	San José Chacayá	5	Chacayá	1	Enero	2023-01-16T00:00:00	2024-11-06T09:00:00	3	Temperatura mínima	15.7
73028	7	Sololá	702	San José Chacayá	5	Chacayá	1	Enero	2023-01-16T00:00:00	2024-11-06T09:00:00	5	Humedad	58
73029	7	Sololá	702	San José Chacayá	5	Chacayá	1	Enero	2023-01-16T00:00:00	2024-11-06T09:00:00	6	Velocidad del viento	3.2
73030	7	Sololá	702	San José Chacayá	5	Chacayá	1	Enero	2023-01-16T00:00:00	2024-11-06T09:00:00	7	Dirección del viento	3.22
73031	7	Sololá	702	San José Chacayá	5	Chacayá	1	Enero	2023-01-16T00:00:00	2024-11-06T09:00:00	1	Precipitación	0
73032	7	Sololá	702	San José Chacayá	5	Chacayá	1	Enero	2023-01-16T00:00:00	2024-11-06T09:00:00	8	Radiación solar	141
73033	7	Sololá	702	San José Chacayá	5	Chacayá	1	Enero	2023-01-16T00:00:00	2024-11-06T10:00:00	2	Temperatura media	20.1
73034	7	Sololá	702	San José Chacayá	5	Chacayá	1	Enero	2023-01-16T00:00:00	2024-11-06T10:00:00	4	Temperatura máxima	20.3
73035	7	Sololá	702	San José Chacayá	5	Chacayá	1	Enero	2023-01-16T00:00:00	2024-11-06T10:00:00	3	Temperatura mínima	18.3
73036	7	Sololá	702	San José Chacayá	5	Chacayá	1	Enero	2023-01-16T00:00:00	2024-11-06T10:00:00	5	Humedad	57
73037	7	Sololá	702	San José Chacayá	5	Chacayá	1	Enero	2023-01-16T00:00:00	2024-11-06T10:00:00	6	Velocidad del viento	3.2
73038	7	Sololá	702	San José Chacayá	5	Chacayá	1	Enero	2023-01-16T00:00:00	2024-11-06T10:00:00	7	Dirección del viento	3.22
73039	7	Sololá	702	San José Chacayá	5	Chacayá	1	Enero	2023-01-16T00:00:00	2024-11-06T10:00:00	1	Precipitación	0
73040	7	Sololá	702	San José Chacayá	5	Chacayá	1	Enero	2023-01-16T00:00:00	2024-11-06T10:00:00	8	Radiación solar	301
73041	7	Sololá	702	San José Chacayá	5	Chacayá	1	Enero	2023-01-16T00:00:00	2024-11-06T11:00:00	2	Temperatura media	20.7
73042	7	Sololá	702	San José Chacayá	5	Chacayá	1	Enero	2023-01-16T00:00:00	2024-11-06T11:00:00	4	Temperatura máxima	20.8
73043	7	Sololá	702	San José Chacayá	5	Chacayá	1	Enero	2023-01-16T00:00:00	2024-11-06T11:00:00	3	Temperatura mínima	20.1
73044	7	Sololá	702	San José Chacayá	5	Chacayá	1	Enero	2023-01-16T00:00:00	2024-11-06T11:00:00	5	Humedad	54
73045	7	Sololá	702	San José Chacayá	5	Chacayá	1	Enero	2023-01-16T00:00:00	2024-11-06T11:00:00	6	Velocidad del viento	3.2
73046	7	Sololá	702	San José Chacayá	5	Chacayá	1	Enero	2023-01-16T00:00:00	2024-11-06T11:00:00	7	Dirección del viento	3.22
73047	7	Sololá	702	San José Chacayá	5	Chacayá	1	Enero	2023-01-16T00:00:00	2024-11-06T11:00:00	1	Precipitación	0
73048	7	Sololá	702	San José Chacayá	5	Chacayá	1	Enero	2023-01-16T00:00:00	2024-11-06T11:00:00	8	Radiación solar	345
73049	7	Sololá	702	San José Chacayá	5	Chacayá	1	Enero	2023-01-16T00:00:00	2024-11-06T12:00:00	2	Temperatura media	20.5
73050	7	Sololá	702	San José Chacayá	5	Chacayá	1	Enero	2023-01-16T00:00:00	2024-11-06T12:00:00	4	Temperatura máxima	21.1
73051	7	Sololá	702	San José Chacayá	5	Chacayá	1	Enero	2023-01-16T00:00:00	2024-11-06T12:00:00	3	Temperatura mínima	20
73052	7	Sololá	702	San José Chacayá	5	Chacayá	1	Enero	2023-01-16T00:00:00	2024-11-06T12:00:00	5	Humedad	59
73053	7	Sololá	702	San José Chacayá	5	Chacayá	1	Enero	2023-01-16T00:00:00	2024-11-06T12:00:00	6	Velocidad del viento	3.2
73054	7	Sololá	702	San José Chacayá	5	Chacayá	1	Enero	2023-01-16T00:00:00	2024-11-06T12:00:00	7	Dirección del viento	3.22
73055	7	Sololá	702	San José Chacayá	5	Chacayá	1	Enero	2023-01-16T00:00:00	2024-11-06T12:00:00	1	Precipitación	0
73056	7	Sololá	702	San José Chacayá	5	Chacayá	1	Enero	2023-01-16T00:00:00	2024-11-06T12:00:00	8	Radiación solar	354
73057	7	Sololá	702	San José Chacayá	5	Chacayá	1	Enero	2023-01-16T00:00:00	2024-11-06T13:00:00	2	Temperatura media	19.1
73058	7	Sololá	702	San José Chacayá	5	Chacayá	1	Enero	2023-01-16T00:00:00	2024-11-06T13:00:00	4	Temperatura máxima	20.6
73059	7	Sololá	702	San José Chacayá	5	Chacayá	1	Enero	2023-01-16T00:00:00	2024-11-06T13:00:00	3	Temperatura mínima	19.1
73060	7	Sololá	702	San José Chacayá	5	Chacayá	1	Enero	2023-01-16T00:00:00	2024-11-06T13:00:00	5	Humedad	71
73061	7	Sololá	702	San José Chacayá	5	Chacayá	1	Enero	2023-01-16T00:00:00	2024-11-06T13:00:00	6	Velocidad del viento	4.8
73062	7	Sololá	702	San José Chacayá	5	Chacayá	1	Enero	2023-01-16T00:00:00	2024-11-06T13:00:00	7	Dirección del viento	4.83
73063	7	Sololá	702	San José Chacayá	5	Chacayá	1	Enero	2023-01-16T00:00:00	2024-11-06T13:00:00	1	Precipitación	0
73064	7	Sololá	702	San José Chacayá	5	Chacayá	1	Enero	2023-01-16T00:00:00	2024-11-06T13:00:00	8	Radiación solar	331
73065	7	Sololá	702	San José Chacayá	5	Chacayá	1	Enero	2023-01-16T00:00:00	2024-11-06T14:00:00	2	Temperatura media	17.9
73066	7	Sololá	702	San José Chacayá	5	Chacayá	1	Enero	2023-01-16T00:00:00	2024-11-06T14:00:00	4	Temperatura máxima	19.3
73067	7	Sololá	702	San José Chacayá	5	Chacayá	1	Enero	2023-01-16T00:00:00	2024-11-06T14:00:00	3	Temperatura mínima	17.9
73068	7	Sololá	702	San José Chacayá	5	Chacayá	1	Enero	2023-01-16T00:00:00	2024-11-06T14:00:00	5	Humedad	76
73069	7	Sololá	702	San José Chacayá	5	Chacayá	1	Enero	2023-01-16T00:00:00	2024-11-06T14:00:00	6	Velocidad del viento	4.8
73070	7	Sololá	702	San José Chacayá	5	Chacayá	1	Enero	2023-01-16T00:00:00	2024-11-06T14:00:00	7	Dirección del viento	4.83
73071	7	Sololá	702	San José Chacayá	5	Chacayá	1	Enero	2023-01-16T00:00:00	2024-11-06T14:00:00	1	Precipitación	0
73072	7	Sololá	702	San José Chacayá	5	Chacayá	1	Enero	2023-01-16T00:00:00	2024-11-06T14:00:00	8	Radiación solar	333
73073	7	Sololá	702	San José Chacayá	5	Chacayá	1	Enero	2023-01-16T00:00:00	2024-11-06T15:00:00	2	Temperatura media	16.1
73074	7	Sololá	702	San José Chacayá	5	Chacayá	1	Enero	2023-01-16T00:00:00	2024-11-06T15:00:00	4	Temperatura máxima	17.9
73075	7	Sololá	702	San José Chacayá	5	Chacayá	1	Enero	2023-01-16T00:00:00	2024-11-06T15:00:00	3	Temperatura mínima	16.1
73076	7	Sololá	702	San José Chacayá	5	Chacayá	1	Enero	2023-01-16T00:00:00	2024-11-06T15:00:00	5	Humedad	83
73077	7	Sololá	702	San José Chacayá	5	Chacayá	1	Enero	2023-01-16T00:00:00	2024-11-06T15:00:00	6	Velocidad del viento	4.8
73078	7	Sololá	702	San José Chacayá	5	Chacayá	1	Enero	2023-01-16T00:00:00	2024-11-06T15:00:00	7	Dirección del viento	4.83
73079	7	Sololá	702	San José Chacayá	5	Chacayá	1	Enero	2023-01-16T00:00:00	2024-11-06T15:00:00	1	Precipitación	0
73080	7	Sololá	702	San José Chacayá	5	Chacayá	1	Enero	2023-01-16T00:00:00	2024-11-06T15:00:00	8	Radiación solar	260
73081	7	Sololá	702	San José Chacayá	5	Chacayá	1	Enero	2023-01-16T00:00:00	2024-11-06T16:00:00	2	Temperatura media	15.5
73082	7	Sololá	702	San José Chacayá	5	Chacayá	1	Enero	2023-01-16T00:00:00	2024-11-06T16:00:00	4	Temperatura máxima	16.1
73083	7	Sololá	702	San José Chacayá	5	Chacayá	1	Enero	2023-01-16T00:00:00	2024-11-06T16:00:00	3	Temperatura mínima	15.4
73084	7	Sololá	702	San José Chacayá	5	Chacayá	1	Enero	2023-01-16T00:00:00	2024-11-06T16:00:00	5	Humedad	87
73085	7	Sololá	702	San José Chacayá	5	Chacayá	1	Enero	2023-01-16T00:00:00	2024-11-06T16:00:00	6	Velocidad del viento	1.6
73086	7	Sololá	702	San José Chacayá	5	Chacayá	1	Enero	2023-01-16T00:00:00	2024-11-06T16:00:00	7	Dirección del viento	1.61
73087	7	Sololá	702	San José Chacayá	5	Chacayá	1	Enero	2023-01-16T00:00:00	2024-11-06T16:00:00	1	Precipitación	0
73088	7	Sololá	702	San José Chacayá	5	Chacayá	1	Enero	2023-01-16T00:00:00	2024-11-06T16:00:00	8	Radiación solar	191
73089	7	Sololá	702	San José Chacayá	5	Chacayá	1	Enero	2023-01-16T00:00:00	2024-11-06T17:00:00	2	Temperatura media	14.6
73090	7	Sololá	702	San José Chacayá	5	Chacayá	1	Enero	2023-01-16T00:00:00	2024-11-06T17:00:00	4	Temperatura máxima	15.5
73091	7	Sololá	702	San José Chacayá	5	Chacayá	1	Enero	2023-01-16T00:00:00	2024-11-06T17:00:00	3	Temperatura mínima	14.6
73092	7	Sololá	702	San José Chacayá	5	Chacayá	1	Enero	2023-01-16T00:00:00	2024-11-06T17:00:00	5	Humedad	91
73093	7	Sololá	702	San José Chacayá	5	Chacayá	1	Enero	2023-01-16T00:00:00	2024-11-06T17:00:00	6	Velocidad del viento	1.6
73094	7	Sololá	702	San José Chacayá	5	Chacayá	1	Enero	2023-01-16T00:00:00	2024-11-06T17:00:00	7	Dirección del viento	1.61
73095	7	Sololá	702	San José Chacayá	5	Chacayá	1	Enero	2023-01-16T00:00:00	2024-11-06T17:00:00	1	Precipitación	0
73096	7	Sololá	702	San José Chacayá	5	Chacayá	1	Enero	2023-01-16T00:00:00	2024-11-06T17:00:00	8	Radiación solar	88
73097	7	Sololá	702	San José Chacayá	5	Chacayá	1	Enero	2023-01-16T00:00:00	2024-11-06T18:00:00	2	Temperatura media	14
73098	7	Sololá	702	San José Chacayá	5	Chacayá	1	Enero	2023-01-16T00:00:00	2024-11-06T18:00:00	4	Temperatura máxima	14.6
73099	7	Sololá	702	San José Chacayá	5	Chacayá	1	Enero	2023-01-16T00:00:00	2024-11-06T18:00:00	3	Temperatura mínima	13.9
73100	7	Sololá	702	San José Chacayá	5	Chacayá	1	Enero	2023-01-16T00:00:00	2024-11-06T18:00:00	5	Humedad	93
73101	7	Sololá	702	San José Chacayá	5	Chacayá	1	Enero	2023-01-16T00:00:00	2024-11-06T18:00:00	6	Velocidad del viento	1.6
73102	7	Sololá	702	San José Chacayá	5	Chacayá	1	Enero	2023-01-16T00:00:00	2024-11-06T18:00:00	7	Dirección del viento	1.61
73103	7	Sololá	702	San José Chacayá	5	Chacayá	1	Enero	2023-01-16T00:00:00	2024-11-06T18:00:00	1	Precipitación	0
73104	7	Sololá	702	San José Chacayá	5	Chacayá	1	Enero	2023-01-16T00:00:00	2024-11-06T18:00:00	8	Radiación solar	38
73105	7	Sololá	702	San José Chacayá	5	Chacayá	1	Enero	2023-01-16T00:00:00	2024-11-06T19:00:00	2	Temperatura media	13.5
73106	7	Sololá	702	San José Chacayá	5	Chacayá	1	Enero	2023-01-16T00:00:00	2024-11-06T19:00:00	4	Temperatura máxima	13.9
73107	7	Sololá	702	San José Chacayá	5	Chacayá	1	Enero	2023-01-16T00:00:00	2024-11-06T19:00:00	3	Temperatura mínima	13.4
73108	7	Sololá	702	San José Chacayá	5	Chacayá	1	Enero	2023-01-16T00:00:00	2024-11-06T19:00:00	5	Humedad	93
73109	7	Sololá	702	San José Chacayá	5	Chacayá	1	Enero	2023-01-16T00:00:00	2024-11-06T19:00:00	6	Velocidad del viento	0
73110	7	Sololá	702	San José Chacayá	5	Chacayá	1	Enero	2023-01-16T00:00:00	2024-11-06T19:00:00	7	Dirección del viento	0
73111	7	Sololá	702	San José Chacayá	5	Chacayá	1	Enero	2023-01-16T00:00:00	2024-11-06T19:00:00	1	Precipitación	0
73112	7	Sololá	702	San José Chacayá	5	Chacayá	1	Enero	2023-01-16T00:00:00	2024-11-06T19:00:00	8	Radiación solar	0
73113	7	Sololá	702	San José Chacayá	5	Chacayá	1	Enero	2023-01-16T00:00:00	2024-11-06T20:00:00	2	Temperatura media	12.4
73114	7	Sololá	702	San José Chacayá	5	Chacayá	1	Enero	2023-01-16T00:00:00	2024-11-06T20:00:00	4	Temperatura máxima	13.5
73115	7	Sololá	702	San José Chacayá	5	Chacayá	1	Enero	2023-01-16T00:00:00	2024-11-06T20:00:00	3	Temperatura mínima	12.4
73116	7	Sololá	702	San José Chacayá	5	Chacayá	1	Enero	2023-01-16T00:00:00	2024-11-06T20:00:00	5	Humedad	91
73117	7	Sololá	702	San José Chacayá	5	Chacayá	1	Enero	2023-01-16T00:00:00	2024-11-06T20:00:00	6	Velocidad del viento	0
73118	7	Sololá	702	San José Chacayá	5	Chacayá	1	Enero	2023-01-16T00:00:00	2024-11-06T20:00:00	7	Dirección del viento	0
73119	7	Sololá	702	San José Chacayá	5	Chacayá	1	Enero	2023-01-16T00:00:00	2024-11-06T20:00:00	1	Precipitación	0
73120	7	Sololá	702	San José Chacayá	5	Chacayá	1	Enero	2023-01-16T00:00:00	2024-11-06T20:00:00	8	Radiación solar	0
73121	7	Sololá	702	San José Chacayá	5	Chacayá	1	Enero	2023-01-16T00:00:00	2024-11-06T21:00:00	2	Temperatura media	10.7
73122	7	Sololá	702	San José Chacayá	5	Chacayá	1	Enero	2023-01-16T00:00:00	2024-11-06T21:00:00	4	Temperatura máxima	12.4
73123	7	Sololá	702	San José Chacayá	5	Chacayá	1	Enero	2023-01-16T00:00:00	2024-11-06T21:00:00	3	Temperatura mínima	10.7
73124	7	Sololá	702	San José Chacayá	5	Chacayá	1	Enero	2023-01-16T00:00:00	2024-11-06T21:00:00	5	Humedad	93
73125	7	Sololá	702	San José Chacayá	5	Chacayá	1	Enero	2023-01-16T00:00:00	2024-11-06T21:00:00	6	Velocidad del viento	0
73126	7	Sololá	702	San José Chacayá	5	Chacayá	1	Enero	2023-01-16T00:00:00	2024-11-06T21:00:00	7	Dirección del viento	0
73127	7	Sololá	702	San José Chacayá	5	Chacayá	1	Enero	2023-01-16T00:00:00	2024-11-06T21:00:00	1	Precipitación	0
73128	7	Sololá	702	San José Chacayá	5	Chacayá	1	Enero	2023-01-16T00:00:00	2024-11-06T21:00:00	8	Radiación solar	0
73129	7	Sololá	702	San José Chacayá	5	Chacayá	1	Enero	2023-01-16T00:00:00	2024-11-06T22:00:00	2	Temperatura media	9.8
73130	7	Sololá	702	San José Chacayá	5	Chacayá	1	Enero	2023-01-16T00:00:00	2024-11-06T22:00:00	4	Temperatura máxima	10.7
73131	7	Sololá	702	San José Chacayá	5	Chacayá	1	Enero	2023-01-16T00:00:00	2024-11-06T22:00:00	3	Temperatura mínima	9.8
73132	7	Sololá	702	San José Chacayá	5	Chacayá	1	Enero	2023-01-16T00:00:00	2024-11-06T22:00:00	5	Humedad	93
73133	7	Sololá	702	San José Chacayá	5	Chacayá	1	Enero	2023-01-16T00:00:00	2024-11-06T22:00:00	6	Velocidad del viento	0
73134	7	Sololá	702	San José Chacayá	5	Chacayá	1	Enero	2023-01-16T00:00:00	2024-11-06T22:00:00	7	Dirección del viento	0
73135	7	Sololá	702	San José Chacayá	5	Chacayá	1	Enero	2023-01-16T00:00:00	2024-11-06T22:00:00	1	Precipitación	0
73136	7	Sololá	702	San José Chacayá	5	Chacayá	1	Enero	2023-01-16T00:00:00	2024-11-06T22:00:00	8	Radiación solar	0
73137	7	Sololá	702	San José Chacayá	5	Chacayá	1	Enero	2023-01-16T00:00:00	2024-11-06T23:00:00	2	Temperatura media	9.4
73138	7	Sololá	702	San José Chacayá	5	Chacayá	1	Enero	2023-01-16T00:00:00	2024-11-06T23:00:00	4	Temperatura máxima	9.8
73139	7	Sololá	702	San José Chacayá	5	Chacayá	1	Enero	2023-01-16T00:00:00	2024-11-06T23:00:00	3	Temperatura mínima	9.3
73140	7	Sololá	702	San José Chacayá	5	Chacayá	1	Enero	2023-01-16T00:00:00	2024-11-06T23:00:00	5	Humedad	93
73141	7	Sololá	702	San José Chacayá	5	Chacayá	1	Enero	2023-01-16T00:00:00	2024-11-06T23:00:00	6	Velocidad del viento	0
73142	7	Sololá	702	San José Chacayá	5	Chacayá	1	Enero	2023-01-16T00:00:00	2024-11-06T23:00:00	7	Dirección del viento	0
73143	7	Sololá	702	San José Chacayá	5	Chacayá	1	Enero	2023-01-16T00:00:00	2024-11-06T23:00:00	1	Precipitación	0
73144	7	Sololá	702	San José Chacayá	5	Chacayá	1	Enero	2023-01-16T00:00:00	2024-11-06T23:00:00	8	Radiación solar	0
73145	7	Sololá	702	San José Chacayá	5	Chacayá	1	Enero	2023-01-17T00:00:00	2024-11-06T00:00:00	2	Temperatura media	10.2
73146	7	Sololá	702	San José Chacayá	5	Chacayá	1	Enero	2023-01-17T00:00:00	2024-11-06T00:00:00	4	Temperatura máxima	10.2
73147	7	Sololá	702	San José Chacayá	5	Chacayá	1	Enero	2023-01-17T00:00:00	2024-11-06T00:00:00	3	Temperatura mínima	9.3
73148	7	Sololá	702	San José Chacayá	5	Chacayá	1	Enero	2023-01-17T00:00:00	2024-11-06T00:00:00	5	Humedad	94
73149	7	Sololá	702	San José Chacayá	5	Chacayá	1	Enero	2023-01-17T00:00:00	2024-11-06T00:00:00	6	Velocidad del viento	0
73150	7	Sololá	702	San José Chacayá	5	Chacayá	1	Enero	2023-01-17T00:00:00	2024-11-06T00:00:00	7	Dirección del viento	0
73151	7	Sololá	702	San José Chacayá	5	Chacayá	1	Enero	2023-01-17T00:00:00	2024-11-06T00:00:00	1	Precipitación	0
73152	7	Sololá	702	San José Chacayá	5	Chacayá	1	Enero	2023-01-17T00:00:00	2024-11-06T00:00:00	8	Radiación solar	0
73153	7	Sololá	702	San José Chacayá	5	Chacayá	1	Enero	2023-01-17T00:00:00	2024-11-06T01:00:00	2	Temperatura media	10.7
73154	7	Sololá	702	San José Chacayá	5	Chacayá	1	Enero	2023-01-17T00:00:00	2024-11-06T01:00:00	4	Temperatura máxima	10.7
73155	7	Sololá	702	San José Chacayá	5	Chacayá	1	Enero	2023-01-17T00:00:00	2024-11-06T01:00:00	3	Temperatura mínima	10.2
73156	7	Sololá	702	San José Chacayá	5	Chacayá	1	Enero	2023-01-17T00:00:00	2024-11-06T01:00:00	5	Humedad	92
73157	7	Sololá	702	San José Chacayá	5	Chacayá	1	Enero	2023-01-17T00:00:00	2024-11-06T01:00:00	6	Velocidad del viento	1.6
73158	7	Sololá	702	San José Chacayá	5	Chacayá	1	Enero	2023-01-17T00:00:00	2024-11-06T01:00:00	7	Dirección del viento	1.61
73159	7	Sololá	702	San José Chacayá	5	Chacayá	1	Enero	2023-01-17T00:00:00	2024-11-06T01:00:00	1	Precipitación	0
73160	7	Sololá	702	San José Chacayá	5	Chacayá	1	Enero	2023-01-17T00:00:00	2024-11-06T01:00:00	8	Radiación solar	0
73161	7	Sololá	702	San José Chacayá	5	Chacayá	1	Enero	2023-01-17T00:00:00	2024-11-06T02:00:00	2	Temperatura media	10.8
73162	7	Sololá	702	San José Chacayá	5	Chacayá	1	Enero	2023-01-17T00:00:00	2024-11-06T02:00:00	4	Temperatura máxima	10.8
73163	7	Sololá	702	San José Chacayá	5	Chacayá	1	Enero	2023-01-17T00:00:00	2024-11-06T02:00:00	3	Temperatura mínima	10.7
73164	7	Sololá	702	San José Chacayá	5	Chacayá	1	Enero	2023-01-17T00:00:00	2024-11-06T02:00:00	5	Humedad	90
73165	7	Sololá	702	San José Chacayá	5	Chacayá	1	Enero	2023-01-17T00:00:00	2024-11-06T02:00:00	6	Velocidad del viento	1.6
73166	7	Sololá	702	San José Chacayá	5	Chacayá	1	Enero	2023-01-17T00:00:00	2024-11-06T02:00:00	7	Dirección del viento	1.61
73167	7	Sololá	702	San José Chacayá	5	Chacayá	1	Enero	2023-01-17T00:00:00	2024-11-06T02:00:00	1	Precipitación	0
73168	7	Sololá	702	San José Chacayá	5	Chacayá	1	Enero	2023-01-17T00:00:00	2024-11-06T02:00:00	8	Radiación solar	0
73169	7	Sololá	702	San José Chacayá	5	Chacayá	1	Enero	2023-01-17T00:00:00	2024-11-06T03:00:00	2	Temperatura media	9.4
73170	7	Sololá	702	San José Chacayá	5	Chacayá	1	Enero	2023-01-17T00:00:00	2024-11-06T03:00:00	4	Temperatura máxima	10.8
73171	7	Sololá	702	San José Chacayá	5	Chacayá	1	Enero	2023-01-17T00:00:00	2024-11-06T03:00:00	3	Temperatura mínima	9.4
73172	7	Sololá	702	San José Chacayá	5	Chacayá	1	Enero	2023-01-17T00:00:00	2024-11-06T03:00:00	5	Humedad	92
73173	7	Sololá	702	San José Chacayá	5	Chacayá	1	Enero	2023-01-17T00:00:00	2024-11-06T03:00:00	6	Velocidad del viento	1.6
73174	7	Sololá	702	San José Chacayá	5	Chacayá	1	Enero	2023-01-17T00:00:00	2024-11-06T03:00:00	7	Dirección del viento	1.61
73175	7	Sololá	702	San José Chacayá	5	Chacayá	1	Enero	2023-01-17T00:00:00	2024-11-06T03:00:00	1	Precipitación	0
73176	7	Sololá	702	San José Chacayá	5	Chacayá	1	Enero	2023-01-17T00:00:00	2024-11-06T03:00:00	8	Radiación solar	0
73177	7	Sololá	702	San José Chacayá	5	Chacayá	1	Enero	2023-01-17T00:00:00	2024-11-06T04:00:00	2	Temperatura media	8.4
73178	7	Sololá	702	San José Chacayá	5	Chacayá	1	Enero	2023-01-17T00:00:00	2024-11-06T04:00:00	4	Temperatura máxima	9.4
73179	7	Sololá	702	San José Chacayá	5	Chacayá	1	Enero	2023-01-17T00:00:00	2024-11-06T04:00:00	3	Temperatura mínima	8.4
73180	7	Sololá	702	San José Chacayá	5	Chacayá	1	Enero	2023-01-17T00:00:00	2024-11-06T04:00:00	5	Humedad	92
73181	7	Sololá	702	San José Chacayá	5	Chacayá	1	Enero	2023-01-17T00:00:00	2024-11-06T04:00:00	6	Velocidad del viento	1.6
73182	7	Sololá	702	San José Chacayá	5	Chacayá	1	Enero	2023-01-17T00:00:00	2024-11-06T04:00:00	7	Dirección del viento	1.61
73183	7	Sololá	702	San José Chacayá	5	Chacayá	1	Enero	2023-01-17T00:00:00	2024-11-06T04:00:00	1	Precipitación	0
73184	7	Sololá	702	San José Chacayá	5	Chacayá	1	Enero	2023-01-17T00:00:00	2024-11-06T04:00:00	8	Radiación solar	0
73185	7	Sololá	702	San José Chacayá	5	Chacayá	1	Enero	2023-01-17T00:00:00	2024-11-06T05:00:00	2	Temperatura media	7.2
73186	7	Sololá	702	San José Chacayá	5	Chacayá	1	Enero	2023-01-17T00:00:00	2024-11-06T05:00:00	4	Temperatura máxima	8.4
73187	7	Sololá	702	San José Chacayá	5	Chacayá	1	Enero	2023-01-17T00:00:00	2024-11-06T05:00:00	3	Temperatura mínima	7.2
73188	7	Sololá	702	San José Chacayá	5	Chacayá	1	Enero	2023-01-17T00:00:00	2024-11-06T05:00:00	5	Humedad	91
73189	7	Sololá	702	San José Chacayá	5	Chacayá	1	Enero	2023-01-17T00:00:00	2024-11-06T05:00:00	6	Velocidad del viento	1.6
73190	7	Sololá	702	San José Chacayá	5	Chacayá	1	Enero	2023-01-17T00:00:00	2024-11-06T05:00:00	7	Dirección del viento	1.61
73191	7	Sololá	702	San José Chacayá	5	Chacayá	1	Enero	2023-01-17T00:00:00	2024-11-06T05:00:00	1	Precipitación	0
73192	7	Sololá	702	San José Chacayá	5	Chacayá	1	Enero	2023-01-17T00:00:00	2024-11-06T05:00:00	8	Radiación solar	0
73193	7	Sololá	702	San José Chacayá	5	Chacayá	1	Enero	2023-01-17T00:00:00	2024-11-06T06:00:00	2	Temperatura media	7.2
73194	7	Sololá	702	San José Chacayá	5	Chacayá	1	Enero	2023-01-17T00:00:00	2024-11-06T06:00:00	4	Temperatura máxima	7.3
73195	7	Sololá	702	San José Chacayá	5	Chacayá	1	Enero	2023-01-17T00:00:00	2024-11-06T06:00:00	3	Temperatura mínima	6.7
73196	7	Sololá	702	San José Chacayá	5	Chacayá	1	Enero	2023-01-17T00:00:00	2024-11-06T06:00:00	5	Humedad	90
73197	7	Sololá	702	San José Chacayá	5	Chacayá	1	Enero	2023-01-17T00:00:00	2024-11-06T06:00:00	6	Velocidad del viento	3.2
73198	7	Sololá	702	San José Chacayá	5	Chacayá	1	Enero	2023-01-17T00:00:00	2024-11-06T06:00:00	7	Dirección del viento	3.22
73199	7	Sololá	702	San José Chacayá	5	Chacayá	1	Enero	2023-01-17T00:00:00	2024-11-06T06:00:00	1	Precipitación	0
73200	7	Sololá	702	San José Chacayá	5	Chacayá	1	Enero	2023-01-17T00:00:00	2024-11-06T06:00:00	8	Radiación solar	0
73201	7	Sololá	702	San José Chacayá	5	Chacayá	1	Enero	2023-01-17T00:00:00	2024-11-06T07:00:00	2	Temperatura media	11.4
73202	7	Sololá	702	San José Chacayá	5	Chacayá	1	Enero	2023-01-17T00:00:00	2024-11-06T07:00:00	4	Temperatura máxima	11.4
73203	7	Sololá	702	San José Chacayá	5	Chacayá	1	Enero	2023-01-17T00:00:00	2024-11-06T07:00:00	3	Temperatura mínima	7.2
73204	7	Sololá	702	San José Chacayá	5	Chacayá	1	Enero	2023-01-17T00:00:00	2024-11-06T07:00:00	5	Humedad	82
73205	7	Sololá	702	San José Chacayá	5	Chacayá	1	Enero	2023-01-17T00:00:00	2024-11-06T07:00:00	6	Velocidad del viento	3.2
73206	7	Sololá	702	San José Chacayá	5	Chacayá	1	Enero	2023-01-17T00:00:00	2024-11-06T07:00:00	7	Dirección del viento	3.22
73207	7	Sololá	702	San José Chacayá	5	Chacayá	1	Enero	2023-01-17T00:00:00	2024-11-06T07:00:00	1	Precipitación	0
73208	7	Sololá	702	San José Chacayá	5	Chacayá	1	Enero	2023-01-17T00:00:00	2024-11-06T07:00:00	8	Radiación solar	7
73209	7	Sololá	702	San José Chacayá	5	Chacayá	1	Enero	2023-01-17T00:00:00	2024-11-06T08:00:00	2	Temperatura media	16.8
73210	7	Sololá	702	San José Chacayá	5	Chacayá	1	Enero	2023-01-17T00:00:00	2024-11-06T08:00:00	4	Temperatura máxima	16.8
73211	7	Sololá	702	San José Chacayá	5	Chacayá	1	Enero	2023-01-17T00:00:00	2024-11-06T08:00:00	3	Temperatura mínima	11.4
73212	7	Sololá	702	San José Chacayá	5	Chacayá	1	Enero	2023-01-17T00:00:00	2024-11-06T08:00:00	5	Humedad	60
73213	7	Sololá	702	San José Chacayá	5	Chacayá	1	Enero	2023-01-17T00:00:00	2024-11-06T08:00:00	6	Velocidad del viento	1.6
73214	7	Sololá	702	San José Chacayá	5	Chacayá	1	Enero	2023-01-17T00:00:00	2024-11-06T08:00:00	7	Dirección del viento	1.61
73215	7	Sololá	702	San José Chacayá	5	Chacayá	1	Enero	2023-01-17T00:00:00	2024-11-06T08:00:00	1	Precipitación	0
73216	7	Sololá	702	San José Chacayá	5	Chacayá	1	Enero	2023-01-17T00:00:00	2024-11-06T08:00:00	8	Radiación solar	182
73217	7	Sololá	702	San José Chacayá	5	Chacayá	1	Enero	2023-01-17T00:00:00	2024-11-06T09:00:00	2	Temperatura media	18.4
73218	7	Sololá	702	San José Chacayá	5	Chacayá	1	Enero	2023-01-17T00:00:00	2024-11-06T09:00:00	4	Temperatura máxima	19.1
73219	7	Sololá	702	San José Chacayá	5	Chacayá	1	Enero	2023-01-17T00:00:00	2024-11-06T09:00:00	3	Temperatura mínima	16.8
73220	7	Sololá	702	San José Chacayá	5	Chacayá	1	Enero	2023-01-17T00:00:00	2024-11-06T09:00:00	5	Humedad	67
73221	7	Sololá	702	San José Chacayá	5	Chacayá	1	Enero	2023-01-17T00:00:00	2024-11-06T09:00:00	6	Velocidad del viento	1.6
73222	7	Sololá	702	San José Chacayá	5	Chacayá	1	Enero	2023-01-17T00:00:00	2024-11-06T09:00:00	7	Dirección del viento	1.61
73223	7	Sololá	702	San José Chacayá	5	Chacayá	1	Enero	2023-01-17T00:00:00	2024-11-06T09:00:00	1	Precipitación	0
73224	7	Sololá	702	San José Chacayá	5	Chacayá	1	Enero	2023-01-17T00:00:00	2024-11-06T09:00:00	8	Radiación solar	398
73225	7	Sololá	702	San José Chacayá	5	Chacayá	1	Enero	2023-01-17T00:00:00	2024-11-06T10:00:00	2	Temperatura media	19.9
73226	7	Sololá	702	San José Chacayá	5	Chacayá	1	Enero	2023-01-17T00:00:00	2024-11-06T10:00:00	4	Temperatura máxima	19.9
73227	7	Sololá	702	San José Chacayá	5	Chacayá	1	Enero	2023-01-17T00:00:00	2024-11-06T10:00:00	3	Temperatura mínima	18.4
73228	7	Sololá	702	San José Chacayá	5	Chacayá	1	Enero	2023-01-17T00:00:00	2024-11-06T10:00:00	5	Humedad	62
73229	7	Sololá	702	San José Chacayá	5	Chacayá	1	Enero	2023-01-17T00:00:00	2024-11-06T10:00:00	6	Velocidad del viento	3.2
73230	7	Sololá	702	San José Chacayá	5	Chacayá	1	Enero	2023-01-17T00:00:00	2024-11-06T10:00:00	7	Dirección del viento	3.22
73231	7	Sololá	702	San José Chacayá	5	Chacayá	1	Enero	2023-01-17T00:00:00	2024-11-06T10:00:00	1	Precipitación	0
73232	7	Sololá	702	San José Chacayá	5	Chacayá	1	Enero	2023-01-17T00:00:00	2024-11-06T10:00:00	8	Radiación solar	115
73233	7	Sololá	702	San José Chacayá	5	Chacayá	1	Enero	2023-01-17T00:00:00	2024-11-06T11:00:00	2	Temperatura media	20.8
73234	7	Sololá	702	San José Chacayá	5	Chacayá	1	Enero	2023-01-17T00:00:00	2024-11-06T11:00:00	4	Temperatura máxima	20.8
73235	7	Sololá	702	San José Chacayá	5	Chacayá	1	Enero	2023-01-17T00:00:00	2024-11-06T11:00:00	3	Temperatura mínima	19.9
73236	7	Sololá	702	San José Chacayá	5	Chacayá	1	Enero	2023-01-17T00:00:00	2024-11-06T11:00:00	5	Humedad	56
73237	7	Sololá	702	San José Chacayá	5	Chacayá	1	Enero	2023-01-17T00:00:00	2024-11-06T11:00:00	6	Velocidad del viento	4.8
73238	7	Sololá	702	San José Chacayá	5	Chacayá	1	Enero	2023-01-17T00:00:00	2024-11-06T11:00:00	7	Dirección del viento	4.83
73239	7	Sololá	702	San José Chacayá	5	Chacayá	1	Enero	2023-01-17T00:00:00	2024-11-06T11:00:00	1	Precipitación	0
73240	7	Sololá	702	San José Chacayá	5	Chacayá	1	Enero	2023-01-17T00:00:00	2024-11-06T11:00:00	8	Radiación solar	35
73241	7	Sololá	702	San José Chacayá	5	Chacayá	1	Enero	2023-01-17T00:00:00	2024-11-06T12:00:00	2	Temperatura media	19.1
73242	7	Sololá	702	San José Chacayá	5	Chacayá	1	Enero	2023-01-17T00:00:00	2024-11-06T12:00:00	4	Temperatura máxima	21.1
73243	7	Sololá	702	San José Chacayá	5	Chacayá	1	Enero	2023-01-17T00:00:00	2024-11-06T12:00:00	3	Temperatura mínima	19.1
73244	7	Sololá	702	San José Chacayá	5	Chacayá	1	Enero	2023-01-17T00:00:00	2024-11-06T12:00:00	5	Humedad	67
73245	7	Sololá	702	San José Chacayá	5	Chacayá	1	Enero	2023-01-17T00:00:00	2024-11-06T12:00:00	6	Velocidad del viento	6.4
73246	7	Sololá	702	San José Chacayá	5	Chacayá	1	Enero	2023-01-17T00:00:00	2024-11-06T12:00:00	7	Dirección del viento	6.44
73247	7	Sololá	702	San José Chacayá	5	Chacayá	1	Enero	2023-01-17T00:00:00	2024-11-06T12:00:00	1	Precipitación	0
73248	7	Sololá	702	San José Chacayá	5	Chacayá	1	Enero	2023-01-17T00:00:00	2024-11-06T12:00:00	8	Radiación solar	679
73249	7	Sololá	702	San José Chacayá	5	Chacayá	1	Enero	2023-01-17T00:00:00	2024-11-06T13:00:00	2	Temperatura media	16.6
73250	7	Sololá	702	San José Chacayá	5	Chacayá	1	Enero	2023-01-17T00:00:00	2024-11-06T13:00:00	4	Temperatura máxima	19.1
73251	7	Sololá	702	San José Chacayá	5	Chacayá	1	Enero	2023-01-17T00:00:00	2024-11-06T13:00:00	3	Temperatura mínima	16.6
73252	7	Sololá	702	San José Chacayá	5	Chacayá	1	Enero	2023-01-17T00:00:00	2024-11-06T13:00:00	5	Humedad	80
73253	7	Sololá	702	San José Chacayá	5	Chacayá	1	Enero	2023-01-17T00:00:00	2024-11-06T13:00:00	6	Velocidad del viento	4.8
73254	7	Sololá	702	San José Chacayá	5	Chacayá	1	Enero	2023-01-17T00:00:00	2024-11-06T13:00:00	7	Dirección del viento	4.83
73255	7	Sololá	702	San José Chacayá	5	Chacayá	1	Enero	2023-01-17T00:00:00	2024-11-06T13:00:00	1	Precipitación	0
73256	7	Sololá	702	San José Chacayá	5	Chacayá	1	Enero	2023-01-17T00:00:00	2024-11-06T13:00:00	8	Radiación solar	833
73257	7	Sololá	702	San José Chacayá	5	Chacayá	1	Enero	2023-01-17T00:00:00	2024-11-06T14:00:00	2	Temperatura media	16
73258	7	Sololá	702	San José Chacayá	5	Chacayá	1	Enero	2023-01-17T00:00:00	2024-11-06T14:00:00	4	Temperatura máxima	17.1
73259	7	Sololá	702	San José Chacayá	5	Chacayá	1	Enero	2023-01-17T00:00:00	2024-11-06T14:00:00	3	Temperatura mínima	16
73260	7	Sololá	702	San José Chacayá	5	Chacayá	1	Enero	2023-01-17T00:00:00	2024-11-06T14:00:00	5	Humedad	82
73261	7	Sololá	702	San José Chacayá	5	Chacayá	1	Enero	2023-01-17T00:00:00	2024-11-06T14:00:00	6	Velocidad del viento	3.2
73262	7	Sololá	702	San José Chacayá	5	Chacayá	1	Enero	2023-01-17T00:00:00	2024-11-06T14:00:00	7	Dirección del viento	3.22
73263	7	Sololá	702	San José Chacayá	5	Chacayá	1	Enero	2023-01-17T00:00:00	2024-11-06T14:00:00	1	Precipitación	0
73264	7	Sololá	702	San José Chacayá	5	Chacayá	1	Enero	2023-01-17T00:00:00	2024-11-06T14:00:00	8	Radiación solar	606
73265	7	Sololá	702	San José Chacayá	5	Chacayá	1	Enero	2023-01-17T00:00:00	2024-11-06T15:00:00	2	Temperatura media	15.9
73266	7	Sololá	702	San José Chacayá	5	Chacayá	1	Enero	2023-01-17T00:00:00	2024-11-06T15:00:00	4	Temperatura máxima	16
73267	7	Sololá	702	San José Chacayá	5	Chacayá	1	Enero	2023-01-17T00:00:00	2024-11-06T15:00:00	3	Temperatura mínima	15.7
73268	7	Sololá	702	San José Chacayá	5	Chacayá	1	Enero	2023-01-17T00:00:00	2024-11-06T15:00:00	5	Humedad	85
73269	7	Sololá	702	San José Chacayá	5	Chacayá	1	Enero	2023-01-17T00:00:00	2024-11-06T15:00:00	6	Velocidad del viento	3.2
73270	7	Sololá	702	San José Chacayá	5	Chacayá	1	Enero	2023-01-17T00:00:00	2024-11-06T15:00:00	7	Dirección del viento	3.22
73271	7	Sololá	702	San José Chacayá	5	Chacayá	1	Enero	2023-01-17T00:00:00	2024-11-06T15:00:00	1	Precipitación	0
73272	7	Sololá	702	San José Chacayá	5	Chacayá	1	Enero	2023-01-17T00:00:00	2024-11-06T15:00:00	8	Radiación solar	557
73273	7	Sololá	702	San José Chacayá	5	Chacayá	1	Enero	2023-01-17T00:00:00	2024-11-06T16:00:00	2	Temperatura media	15.1
73274	7	Sololá	702	San José Chacayá	5	Chacayá	1	Enero	2023-01-17T00:00:00	2024-11-06T16:00:00	4	Temperatura máxima	15.9
73275	7	Sololá	702	San José Chacayá	5	Chacayá	1	Enero	2023-01-17T00:00:00	2024-11-06T16:00:00	3	Temperatura mínima	15.1
73276	7	Sololá	702	San José Chacayá	5	Chacayá	1	Enero	2023-01-17T00:00:00	2024-11-06T16:00:00	5	Humedad	88
73277	7	Sololá	702	San José Chacayá	5	Chacayá	1	Enero	2023-01-17T00:00:00	2024-11-06T16:00:00	6	Velocidad del viento	1.6
73278	7	Sololá	702	San José Chacayá	5	Chacayá	1	Enero	2023-01-17T00:00:00	2024-11-06T16:00:00	7	Dirección del viento	1.61
73279	7	Sololá	702	San José Chacayá	5	Chacayá	1	Enero	2023-01-17T00:00:00	2024-11-06T16:00:00	1	Precipitación	0
73280	7	Sololá	702	San José Chacayá	5	Chacayá	1	Enero	2023-01-17T00:00:00	2024-11-06T16:00:00	8	Radiación solar	422
73281	7	Sololá	702	San José Chacayá	5	Chacayá	1	Enero	2023-01-17T00:00:00	2024-11-06T17:00:00	2	Temperatura media	14.1
73282	7	Sololá	702	San José Chacayá	5	Chacayá	1	Enero	2023-01-17T00:00:00	2024-11-06T17:00:00	4	Temperatura máxima	15.1
73283	7	Sololá	702	San José Chacayá	5	Chacayá	1	Enero	2023-01-17T00:00:00	2024-11-06T17:00:00	3	Temperatura mínima	14.1
73284	7	Sololá	702	San José Chacayá	5	Chacayá	1	Enero	2023-01-17T00:00:00	2024-11-06T17:00:00	5	Humedad	91
73285	7	Sololá	702	San José Chacayá	5	Chacayá	1	Enero	2023-01-17T00:00:00	2024-11-06T17:00:00	6	Velocidad del viento	1.6
73286	7	Sololá	702	San José Chacayá	5	Chacayá	1	Enero	2023-01-17T00:00:00	2024-11-06T17:00:00	7	Dirección del viento	1.61
73287	7	Sololá	702	San José Chacayá	5	Chacayá	1	Enero	2023-01-17T00:00:00	2024-11-06T17:00:00	1	Precipitación	0
73288	7	Sololá	702	San José Chacayá	5	Chacayá	1	Enero	2023-01-17T00:00:00	2024-11-06T17:00:00	8	Radiación solar	194
73289	7	Sololá	702	San José Chacayá	5	Chacayá	1	Enero	2023-01-17T00:00:00	2024-11-06T18:00:00	2	Temperatura media	13.4
73290	7	Sololá	702	San José Chacayá	5	Chacayá	1	Enero	2023-01-17T00:00:00	2024-11-06T18:00:00	4	Temperatura máxima	14.1
73291	7	Sololá	702	San José Chacayá	5	Chacayá	1	Enero	2023-01-17T00:00:00	2024-11-06T18:00:00	3	Temperatura mínima	13.4
73292	7	Sololá	702	San José Chacayá	5	Chacayá	1	Enero	2023-01-17T00:00:00	2024-11-06T18:00:00	5	Humedad	93
73293	7	Sololá	702	San José Chacayá	5	Chacayá	1	Enero	2023-01-17T00:00:00	2024-11-06T18:00:00	6	Velocidad del viento	0
73294	7	Sololá	702	San José Chacayá	5	Chacayá	1	Enero	2023-01-17T00:00:00	2024-11-06T18:00:00	7	Dirección del viento	0
73295	7	Sololá	702	San José Chacayá	5	Chacayá	1	Enero	2023-01-17T00:00:00	2024-11-06T18:00:00	1	Precipitación	0
73296	7	Sololá	702	San José Chacayá	5	Chacayá	1	Enero	2023-01-17T00:00:00	2024-11-06T18:00:00	8	Radiación solar	16
73297	7	Sololá	702	San José Chacayá	5	Chacayá	1	Enero	2023-01-17T00:00:00	2024-11-06T19:00:00	2	Temperatura media	12.2
73298	7	Sololá	702	San José Chacayá	5	Chacayá	1	Enero	2023-01-17T00:00:00	2024-11-06T19:00:00	4	Temperatura máxima	13.4
73299	7	Sololá	702	San José Chacayá	5	Chacayá	1	Enero	2023-01-17T00:00:00	2024-11-06T19:00:00	3	Temperatura mínima	12.2
73300	7	Sololá	702	San José Chacayá	5	Chacayá	1	Enero	2023-01-17T00:00:00	2024-11-06T19:00:00	5	Humedad	92
73301	7	Sololá	702	San José Chacayá	5	Chacayá	1	Enero	2023-01-17T00:00:00	2024-11-06T19:00:00	6	Velocidad del viento	0
73302	7	Sololá	702	San José Chacayá	5	Chacayá	1	Enero	2023-01-17T00:00:00	2024-11-06T19:00:00	7	Dirección del viento	0
73303	7	Sololá	702	San José Chacayá	5	Chacayá	1	Enero	2023-01-17T00:00:00	2024-11-06T19:00:00	1	Precipitación	0
73304	7	Sololá	702	San José Chacayá	5	Chacayá	1	Enero	2023-01-17T00:00:00	2024-11-06T19:00:00	8	Radiación solar	0
73305	7	Sololá	702	San José Chacayá	5	Chacayá	1	Enero	2023-01-17T00:00:00	2024-11-06T20:00:00	2	Temperatura media	10.9
73306	7	Sololá	702	San José Chacayá	5	Chacayá	1	Enero	2023-01-17T00:00:00	2024-11-06T20:00:00	4	Temperatura máxima	12.3
73307	7	Sololá	702	San José Chacayá	5	Chacayá	1	Enero	2023-01-17T00:00:00	2024-11-06T20:00:00	3	Temperatura mínima	10.9
73308	7	Sololá	702	San José Chacayá	5	Chacayá	1	Enero	2023-01-17T00:00:00	2024-11-06T20:00:00	5	Humedad	92
73309	7	Sololá	702	San José Chacayá	5	Chacayá	1	Enero	2023-01-17T00:00:00	2024-11-06T20:00:00	6	Velocidad del viento	1.6
73310	7	Sololá	702	San José Chacayá	5	Chacayá	1	Enero	2023-01-17T00:00:00	2024-11-06T20:00:00	7	Dirección del viento	1.61
73311	7	Sololá	702	San José Chacayá	5	Chacayá	1	Enero	2023-01-17T00:00:00	2024-11-06T20:00:00	1	Precipitación	0
73312	7	Sololá	702	San José Chacayá	5	Chacayá	1	Enero	2023-01-17T00:00:00	2024-11-06T20:00:00	8	Radiación solar	0
73313	7	Sololá	702	San José Chacayá	5	Chacayá	1	Enero	2023-01-17T00:00:00	2024-11-06T21:00:00	2	Temperatura media	9.7
73314	7	Sololá	702	San José Chacayá	5	Chacayá	1	Enero	2023-01-17T00:00:00	2024-11-06T21:00:00	4	Temperatura máxima	10.9
73315	7	Sololá	702	San José Chacayá	5	Chacayá	1	Enero	2023-01-17T00:00:00	2024-11-06T21:00:00	3	Temperatura mínima	9.7
73316	7	Sololá	702	San José Chacayá	5	Chacayá	1	Enero	2023-01-17T00:00:00	2024-11-06T21:00:00	5	Humedad	93
73317	7	Sololá	702	San José Chacayá	5	Chacayá	1	Enero	2023-01-17T00:00:00	2024-11-06T21:00:00	6	Velocidad del viento	1.6
73318	7	Sololá	702	San José Chacayá	5	Chacayá	1	Enero	2023-01-17T00:00:00	2024-11-06T21:00:00	7	Dirección del viento	1.61
73319	7	Sololá	702	San José Chacayá	5	Chacayá	1	Enero	2023-01-17T00:00:00	2024-11-06T21:00:00	1	Precipitación	0
73320	7	Sololá	702	San José Chacayá	5	Chacayá	1	Enero	2023-01-17T00:00:00	2024-11-06T21:00:00	8	Radiación solar	0
73321	7	Sololá	702	San José Chacayá	5	Chacayá	1	Enero	2023-01-17T00:00:00	2024-11-06T22:00:00	2	Temperatura media	8.9
73322	7	Sololá	702	San José Chacayá	5	Chacayá	1	Enero	2023-01-17T00:00:00	2024-11-06T22:00:00	4	Temperatura máxima	9.8
73323	7	Sololá	702	San José Chacayá	5	Chacayá	1	Enero	2023-01-17T00:00:00	2024-11-06T22:00:00	3	Temperatura mínima	8.9
73324	7	Sololá	702	San José Chacayá	5	Chacayá	1	Enero	2023-01-17T00:00:00	2024-11-06T22:00:00	5	Humedad	94
73325	7	Sololá	702	San José Chacayá	5	Chacayá	1	Enero	2023-01-17T00:00:00	2024-11-06T22:00:00	6	Velocidad del viento	0
73326	7	Sololá	702	San José Chacayá	5	Chacayá	1	Enero	2023-01-17T00:00:00	2024-11-06T22:00:00	7	Dirección del viento	0
73327	7	Sololá	702	San José Chacayá	5	Chacayá	1	Enero	2023-01-17T00:00:00	2024-11-06T22:00:00	1	Precipitación	0
73328	7	Sololá	702	San José Chacayá	5	Chacayá	1	Enero	2023-01-17T00:00:00	2024-11-06T22:00:00	8	Radiación solar	0
73329	7	Sololá	702	San José Chacayá	5	Chacayá	1	Enero	2023-01-17T00:00:00	2024-11-06T23:00:00	2	Temperatura media	10.4
73330	7	Sololá	702	San José Chacayá	5	Chacayá	1	Enero	2023-01-17T00:00:00	2024-11-06T23:00:00	4	Temperatura máxima	10.4
73331	7	Sololá	702	San José Chacayá	5	Chacayá	1	Enero	2023-01-17T00:00:00	2024-11-06T23:00:00	3	Temperatura mínima	8.9
73332	7	Sololá	702	San José Chacayá	5	Chacayá	1	Enero	2023-01-17T00:00:00	2024-11-06T23:00:00	5	Humedad	93
73333	7	Sololá	702	San José Chacayá	5	Chacayá	1	Enero	2023-01-17T00:00:00	2024-11-06T23:00:00	6	Velocidad del viento	0
73334	7	Sololá	702	San José Chacayá	5	Chacayá	1	Enero	2023-01-17T00:00:00	2024-11-06T23:00:00	7	Dirección del viento	0
73335	7	Sololá	702	San José Chacayá	5	Chacayá	1	Enero	2023-01-17T00:00:00	2024-11-06T23:00:00	1	Precipitación	0
73336	7	Sololá	702	San José Chacayá	5	Chacayá	1	Enero	2023-01-17T00:00:00	2024-11-06T23:00:00	8	Radiación solar	0
73337	7	Sololá	702	San José Chacayá	5	Chacayá	1	Enero	2023-01-18T00:00:00	2024-11-06T00:00:00	2	Temperatura media	10.8
73338	7	Sololá	702	San José Chacayá	5	Chacayá	1	Enero	2023-01-18T00:00:00	2024-11-06T00:00:00	4	Temperatura máxima	10.9
73339	7	Sololá	702	San José Chacayá	5	Chacayá	1	Enero	2023-01-18T00:00:00	2024-11-06T00:00:00	3	Temperatura mínima	10.4
73340	7	Sololá	702	San José Chacayá	5	Chacayá	1	Enero	2023-01-18T00:00:00	2024-11-06T00:00:00	5	Humedad	90
73341	7	Sololá	702	San José Chacayá	5	Chacayá	1	Enero	2023-01-18T00:00:00	2024-11-06T00:00:00	6	Velocidad del viento	1.6
73342	7	Sololá	702	San José Chacayá	5	Chacayá	1	Enero	2023-01-18T00:00:00	2024-11-06T00:00:00	7	Dirección del viento	1.61
73343	7	Sololá	702	San José Chacayá	5	Chacayá	1	Enero	2023-01-18T00:00:00	2024-11-06T00:00:00	1	Precipitación	0
73344	7	Sololá	702	San José Chacayá	5	Chacayá	1	Enero	2023-01-18T00:00:00	2024-11-06T00:00:00	8	Radiación solar	0
73345	7	Sololá	702	San José Chacayá	5	Chacayá	1	Enero	2023-01-18T00:00:00	2024-11-06T01:00:00	2	Temperatura media	10.1
73346	7	Sololá	702	San José Chacayá	5	Chacayá	1	Enero	2023-01-18T00:00:00	2024-11-06T01:00:00	4	Temperatura máxima	10.9
73347	7	Sololá	702	San José Chacayá	5	Chacayá	1	Enero	2023-01-18T00:00:00	2024-11-06T01:00:00	3	Temperatura mínima	10
73348	7	Sololá	702	San José Chacayá	5	Chacayá	1	Enero	2023-01-18T00:00:00	2024-11-06T01:00:00	5	Humedad	91
73349	7	Sololá	702	San José Chacayá	5	Chacayá	1	Enero	2023-01-18T00:00:00	2024-11-06T01:00:00	6	Velocidad del viento	3.2
73350	7	Sololá	702	San José Chacayá	5	Chacayá	1	Enero	2023-01-18T00:00:00	2024-11-06T01:00:00	7	Dirección del viento	3.22
73351	7	Sololá	702	San José Chacayá	5	Chacayá	1	Enero	2023-01-18T00:00:00	2024-11-06T01:00:00	1	Precipitación	0
73352	7	Sololá	702	San José Chacayá	5	Chacayá	1	Enero	2023-01-18T00:00:00	2024-11-06T01:00:00	8	Radiación solar	0
73353	7	Sololá	702	San José Chacayá	5	Chacayá	1	Enero	2023-01-18T00:00:00	2024-11-06T02:00:00	2	Temperatura media	8.2
73354	7	Sololá	702	San José Chacayá	5	Chacayá	1	Enero	2023-01-18T00:00:00	2024-11-06T02:00:00	4	Temperatura máxima	10.1
73355	7	Sololá	702	San José Chacayá	5	Chacayá	1	Enero	2023-01-18T00:00:00	2024-11-06T02:00:00	3	Temperatura mínima	8.2
73356	7	Sololá	702	San José Chacayá	5	Chacayá	1	Enero	2023-01-18T00:00:00	2024-11-06T02:00:00	5	Humedad	93
73357	7	Sololá	702	San José Chacayá	5	Chacayá	1	Enero	2023-01-18T00:00:00	2024-11-06T02:00:00	6	Velocidad del viento	0
73358	7	Sololá	702	San José Chacayá	5	Chacayá	1	Enero	2023-01-18T00:00:00	2024-11-06T02:00:00	7	Dirección del viento	0
73359	7	Sololá	702	San José Chacayá	5	Chacayá	1	Enero	2023-01-18T00:00:00	2024-11-06T02:00:00	1	Precipitación	0
73360	7	Sololá	702	San José Chacayá	5	Chacayá	1	Enero	2023-01-18T00:00:00	2024-11-06T02:00:00	8	Radiación solar	0
73361	7	Sololá	702	San José Chacayá	5	Chacayá	1	Enero	2023-01-18T00:00:00	2024-11-06T03:00:00	2	Temperatura media	7.3
73362	7	Sololá	702	San José Chacayá	5	Chacayá	1	Enero	2023-01-18T00:00:00	2024-11-06T03:00:00	4	Temperatura máxima	8.2
73363	7	Sololá	702	San José Chacayá	5	Chacayá	1	Enero	2023-01-18T00:00:00	2024-11-06T03:00:00	3	Temperatura mínima	7.3
73364	7	Sololá	702	San José Chacayá	5	Chacayá	1	Enero	2023-01-18T00:00:00	2024-11-06T03:00:00	5	Humedad	93
73365	7	Sololá	702	San José Chacayá	5	Chacayá	1	Enero	2023-01-18T00:00:00	2024-11-06T03:00:00	6	Velocidad del viento	1.6
73366	7	Sololá	702	San José Chacayá	5	Chacayá	1	Enero	2023-01-18T00:00:00	2024-11-06T03:00:00	7	Dirección del viento	1.61
73367	7	Sololá	702	San José Chacayá	5	Chacayá	1	Enero	2023-01-18T00:00:00	2024-11-06T03:00:00	1	Precipitación	0
73368	7	Sololá	702	San José Chacayá	5	Chacayá	1	Enero	2023-01-18T00:00:00	2024-11-06T03:00:00	8	Radiación solar	0
73369	7	Sololá	702	San José Chacayá	5	Chacayá	1	Enero	2023-01-18T00:00:00	2024-11-06T04:00:00	2	Temperatura media	6.8
73370	7	Sololá	702	San José Chacayá	5	Chacayá	1	Enero	2023-01-18T00:00:00	2024-11-06T04:00:00	4	Temperatura máxima	7.3
73371	7	Sololá	702	San José Chacayá	5	Chacayá	1	Enero	2023-01-18T00:00:00	2024-11-06T04:00:00	3	Temperatura mínima	6.7
73372	7	Sololá	702	San José Chacayá	5	Chacayá	1	Enero	2023-01-18T00:00:00	2024-11-06T04:00:00	5	Humedad	95
73373	7	Sololá	702	San José Chacayá	5	Chacayá	1	Enero	2023-01-18T00:00:00	2024-11-06T04:00:00	6	Velocidad del viento	1.6
73374	7	Sololá	702	San José Chacayá	5	Chacayá	1	Enero	2023-01-18T00:00:00	2024-11-06T04:00:00	7	Dirección del viento	1.61
73375	7	Sololá	702	San José Chacayá	5	Chacayá	1	Enero	2023-01-18T00:00:00	2024-11-06T04:00:00	1	Precipitación	0
73376	7	Sololá	702	San José Chacayá	5	Chacayá	1	Enero	2023-01-18T00:00:00	2024-11-06T04:00:00	8	Radiación solar	0
73377	7	Sololá	702	San José Chacayá	5	Chacayá	1	Enero	2023-01-18T00:00:00	2024-11-06T05:00:00	2	Temperatura media	6.2
73378	7	Sololá	702	San José Chacayá	5	Chacayá	1	Enero	2023-01-18T00:00:00	2024-11-06T05:00:00	4	Temperatura máxima	7
73379	7	Sololá	702	San José Chacayá	5	Chacayá	1	Enero	2023-01-18T00:00:00	2024-11-06T05:00:00	3	Temperatura mínima	6.2
73380	7	Sololá	702	San José Chacayá	5	Chacayá	1	Enero	2023-01-18T00:00:00	2024-11-06T05:00:00	5	Humedad	93
73381	7	Sololá	702	San José Chacayá	5	Chacayá	1	Enero	2023-01-18T00:00:00	2024-11-06T05:00:00	6	Velocidad del viento	1.6
73382	7	Sololá	702	San José Chacayá	5	Chacayá	1	Enero	2023-01-18T00:00:00	2024-11-06T05:00:00	7	Dirección del viento	1.61
73383	7	Sololá	702	San José Chacayá	5	Chacayá	1	Enero	2023-01-18T00:00:00	2024-11-06T05:00:00	1	Precipitación	0
73384	7	Sololá	702	San José Chacayá	5	Chacayá	1	Enero	2023-01-18T00:00:00	2024-11-06T05:00:00	8	Radiación solar	0
73385	7	Sololá	702	San José Chacayá	5	Chacayá	1	Enero	2023-01-18T00:00:00	2024-11-06T06:00:00	2	Temperatura media	5.9
73386	7	Sololá	702	San José Chacayá	5	Chacayá	1	Enero	2023-01-18T00:00:00	2024-11-06T06:00:00	4	Temperatura máxima	6.2
73387	7	Sololá	702	San José Chacayá	5	Chacayá	1	Enero	2023-01-18T00:00:00	2024-11-06T06:00:00	3	Temperatura mínima	5.7
73388	7	Sololá	702	San José Chacayá	5	Chacayá	1	Enero	2023-01-18T00:00:00	2024-11-06T06:00:00	5	Humedad	91
73389	7	Sololá	702	San José Chacayá	5	Chacayá	1	Enero	2023-01-18T00:00:00	2024-11-06T06:00:00	6	Velocidad del viento	1.6
73390	7	Sololá	702	San José Chacayá	5	Chacayá	1	Enero	2023-01-18T00:00:00	2024-11-06T06:00:00	7	Dirección del viento	1.61
73391	7	Sololá	702	San José Chacayá	5	Chacayá	1	Enero	2023-01-18T00:00:00	2024-11-06T06:00:00	1	Precipitación	0
73392	7	Sololá	702	San José Chacayá	5	Chacayá	1	Enero	2023-01-18T00:00:00	2024-11-06T06:00:00	8	Radiación solar	0
73393	7	Sololá	702	San José Chacayá	5	Chacayá	1	Enero	2023-01-18T00:00:00	2024-11-06T07:00:00	2	Temperatura media	10.2
73394	7	Sololá	702	San José Chacayá	5	Chacayá	1	Enero	2023-01-18T00:00:00	2024-11-06T07:00:00	4	Temperatura máxima	10.2
73395	7	Sololá	702	San José Chacayá	5	Chacayá	1	Enero	2023-01-18T00:00:00	2024-11-06T07:00:00	3	Temperatura mínima	5.9
73396	7	Sololá	702	San José Chacayá	5	Chacayá	1	Enero	2023-01-18T00:00:00	2024-11-06T07:00:00	5	Humedad	84
73397	7	Sololá	702	San José Chacayá	5	Chacayá	1	Enero	2023-01-18T00:00:00	2024-11-06T07:00:00	6	Velocidad del viento	1.6
73398	7	Sololá	702	San José Chacayá	5	Chacayá	1	Enero	2023-01-18T00:00:00	2024-11-06T07:00:00	7	Dirección del viento	1.61
73399	7	Sololá	702	San José Chacayá	5	Chacayá	1	Enero	2023-01-18T00:00:00	2024-11-06T07:00:00	1	Precipitación	0
73400	7	Sololá	702	San José Chacayá	5	Chacayá	1	Enero	2023-01-18T00:00:00	2024-11-06T07:00:00	8	Radiación solar	10
73401	7	Sololá	702	San José Chacayá	5	Chacayá	1	Enero	2023-01-18T00:00:00	2024-11-06T08:00:00	2	Temperatura media	16.3
73402	7	Sololá	702	San José Chacayá	5	Chacayá	1	Enero	2023-01-18T00:00:00	2024-11-06T08:00:00	4	Temperatura máxima	16.3
73403	7	Sololá	702	San José Chacayá	5	Chacayá	1	Enero	2023-01-18T00:00:00	2024-11-06T08:00:00	3	Temperatura mínima	10.2
73404	7	Sololá	702	San José Chacayá	5	Chacayá	1	Enero	2023-01-18T00:00:00	2024-11-06T08:00:00	5	Humedad	68
73405	7	Sololá	702	San José Chacayá	5	Chacayá	1	Enero	2023-01-18T00:00:00	2024-11-06T08:00:00	6	Velocidad del viento	1.6
73406	7	Sololá	702	San José Chacayá	5	Chacayá	1	Enero	2023-01-18T00:00:00	2024-11-06T08:00:00	7	Dirección del viento	1.61
73407	7	Sololá	702	San José Chacayá	5	Chacayá	1	Enero	2023-01-18T00:00:00	2024-11-06T08:00:00	1	Precipitación	0
73408	7	Sololá	702	San José Chacayá	5	Chacayá	1	Enero	2023-01-18T00:00:00	2024-11-06T08:00:00	8	Radiación solar	136
73409	7	Sololá	702	San José Chacayá	5	Chacayá	1	Enero	2023-01-18T00:00:00	2024-11-06T09:00:00	2	Temperatura media	16.7
73410	7	Sololá	702	San José Chacayá	5	Chacayá	1	Enero	2023-01-18T00:00:00	2024-11-06T09:00:00	4	Temperatura máxima	17.1
73411	7	Sololá	702	San José Chacayá	5	Chacayá	1	Enero	2023-01-18T00:00:00	2024-11-06T09:00:00	3	Temperatura mínima	16.1
73412	7	Sololá	702	San José Chacayá	5	Chacayá	1	Enero	2023-01-18T00:00:00	2024-11-06T09:00:00	5	Humedad	74
73413	7	Sololá	702	San José Chacayá	5	Chacayá	1	Enero	2023-01-18T00:00:00	2024-11-06T09:00:00	6	Velocidad del viento	3.2
73414	7	Sololá	702	San José Chacayá	5	Chacayá	1	Enero	2023-01-18T00:00:00	2024-11-06T09:00:00	7	Dirección del viento	3.22
73415	7	Sololá	702	San José Chacayá	5	Chacayá	1	Enero	2023-01-18T00:00:00	2024-11-06T09:00:00	1	Precipitación	0
73416	7	Sololá	702	San José Chacayá	5	Chacayá	1	Enero	2023-01-18T00:00:00	2024-11-06T09:00:00	8	Radiación solar	380
73417	7	Sololá	702	San José Chacayá	5	Chacayá	1	Enero	2023-01-18T00:00:00	2024-11-06T10:00:00	2	Temperatura media	18.6
73418	7	Sololá	702	San José Chacayá	5	Chacayá	1	Enero	2023-01-18T00:00:00	2024-11-06T10:00:00	4	Temperatura máxima	18.6
73419	7	Sololá	702	San José Chacayá	5	Chacayá	1	Enero	2023-01-18T00:00:00	2024-11-06T10:00:00	3	Temperatura mínima	16.6
73420	7	Sololá	702	San José Chacayá	5	Chacayá	1	Enero	2023-01-18T00:00:00	2024-11-06T10:00:00	5	Humedad	65
73421	7	Sololá	702	San José Chacayá	5	Chacayá	1	Enero	2023-01-18T00:00:00	2024-11-06T10:00:00	6	Velocidad del viento	3.2
73422	7	Sololá	702	San José Chacayá	5	Chacayá	1	Enero	2023-01-18T00:00:00	2024-11-06T10:00:00	7	Dirección del viento	3.22
73423	7	Sololá	702	San José Chacayá	5	Chacayá	1	Enero	2023-01-18T00:00:00	2024-11-06T10:00:00	1	Precipitación	0
73424	7	Sololá	702	San José Chacayá	5	Chacayá	1	Enero	2023-01-18T00:00:00	2024-11-06T10:00:00	8	Radiación solar	592
73425	7	Sololá	702	San José Chacayá	5	Chacayá	1	Enero	2023-01-18T00:00:00	2024-11-06T11:00:00	2	Temperatura media	18.6
73426	7	Sololá	702	San José Chacayá	5	Chacayá	1	Enero	2023-01-18T00:00:00	2024-11-06T11:00:00	4	Temperatura máxima	19.2
73427	7	Sololá	702	San José Chacayá	5	Chacayá	1	Enero	2023-01-18T00:00:00	2024-11-06T11:00:00	3	Temperatura mínima	18.5
73428	7	Sololá	702	San José Chacayá	5	Chacayá	1	Enero	2023-01-18T00:00:00	2024-11-06T11:00:00	5	Humedad	66
73429	7	Sololá	702	San José Chacayá	5	Chacayá	1	Enero	2023-01-18T00:00:00	2024-11-06T11:00:00	6	Velocidad del viento	6.4
73430	7	Sololá	702	San José Chacayá	5	Chacayá	1	Enero	2023-01-18T00:00:00	2024-11-06T11:00:00	7	Dirección del viento	6.44
73431	7	Sololá	702	San José Chacayá	5	Chacayá	1	Enero	2023-01-18T00:00:00	2024-11-06T11:00:00	1	Precipitación	0
73432	7	Sololá	702	San José Chacayá	5	Chacayá	1	Enero	2023-01-18T00:00:00	2024-11-06T11:00:00	8	Radiación solar	735
73433	7	Sololá	702	San José Chacayá	5	Chacayá	1	Enero	2023-01-18T00:00:00	2024-11-06T12:00:00	2	Temperatura media	17.9
73434	7	Sololá	702	San José Chacayá	5	Chacayá	1	Enero	2023-01-18T00:00:00	2024-11-06T12:00:00	4	Temperatura máxima	19.1
73435	7	Sololá	702	San José Chacayá	5	Chacayá	1	Enero	2023-01-18T00:00:00	2024-11-06T12:00:00	3	Temperatura mínima	17.8
73436	7	Sololá	702	San José Chacayá	5	Chacayá	1	Enero	2023-01-18T00:00:00	2024-11-06T12:00:00	5	Humedad	72
73437	7	Sololá	702	San José Chacayá	5	Chacayá	1	Enero	2023-01-18T00:00:00	2024-11-06T12:00:00	6	Velocidad del viento	8
73438	7	Sololá	702	San José Chacayá	5	Chacayá	1	Enero	2023-01-18T00:00:00	2024-11-06T12:00:00	7	Dirección del viento	8.05
73439	7	Sololá	702	San José Chacayá	5	Chacayá	1	Enero	2023-01-18T00:00:00	2024-11-06T12:00:00	1	Precipitación	0
73440	7	Sololá	702	San José Chacayá	5	Chacayá	1	Enero	2023-01-18T00:00:00	2024-11-06T12:00:00	8	Radiación solar	804
73441	7	Sololá	702	San José Chacayá	5	Chacayá	1	Enero	2023-01-18T00:00:00	2024-11-06T13:00:00	2	Temperatura media	16.9
73442	7	Sololá	702	San José Chacayá	5	Chacayá	1	Enero	2023-01-18T00:00:00	2024-11-06T13:00:00	4	Temperatura máxima	18.3
73443	7	Sololá	702	San José Chacayá	5	Chacayá	1	Enero	2023-01-18T00:00:00	2024-11-06T13:00:00	3	Temperatura mínima	16.6
73444	7	Sololá	702	San José Chacayá	5	Chacayá	1	Enero	2023-01-18T00:00:00	2024-11-06T13:00:00	5	Humedad	76
73445	7	Sololá	702	San José Chacayá	5	Chacayá	1	Enero	2023-01-18T00:00:00	2024-11-06T13:00:00	6	Velocidad del viento	4.8
73446	7	Sololá	702	San José Chacayá	5	Chacayá	1	Enero	2023-01-18T00:00:00	2024-11-06T13:00:00	7	Dirección del viento	4.83
73447	7	Sololá	702	San José Chacayá	5	Chacayá	1	Enero	2023-01-18T00:00:00	2024-11-06T13:00:00	1	Precipitación	0
73448	7	Sololá	702	San José Chacayá	5	Chacayá	1	Enero	2023-01-18T00:00:00	2024-11-06T13:00:00	8	Radiación solar	510
73449	7	Sololá	702	San José Chacayá	5	Chacayá	1	Enero	2023-01-18T00:00:00	2024-11-06T14:00:00	2	Temperatura media	17.4
73450	7	Sololá	702	San José Chacayá	5	Chacayá	1	Enero	2023-01-18T00:00:00	2024-11-06T14:00:00	4	Temperatura máxima	19.1
73451	7	Sololá	702	San José Chacayá	5	Chacayá	1	Enero	2023-01-18T00:00:00	2024-11-06T14:00:00	3	Temperatura mínima	16.9
73452	7	Sololá	702	San José Chacayá	5	Chacayá	1	Enero	2023-01-18T00:00:00	2024-11-06T14:00:00	5	Humedad	75
73453	7	Sololá	702	San José Chacayá	5	Chacayá	1	Enero	2023-01-18T00:00:00	2024-11-06T14:00:00	6	Velocidad del viento	4.8
73454	7	Sololá	702	San José Chacayá	5	Chacayá	1	Enero	2023-01-18T00:00:00	2024-11-06T14:00:00	7	Dirección del viento	4.83
73455	7	Sololá	702	San José Chacayá	5	Chacayá	1	Enero	2023-01-18T00:00:00	2024-11-06T14:00:00	1	Precipitación	0
73456	7	Sololá	702	San José Chacayá	5	Chacayá	1	Enero	2023-01-18T00:00:00	2024-11-06T14:00:00	8	Radiación solar	252
73457	7	Sololá	702	San José Chacayá	5	Chacayá	1	Enero	2023-01-18T00:00:00	2024-11-06T15:00:00	2	Temperatura media	16.1
73458	7	Sololá	702	San José Chacayá	5	Chacayá	1	Enero	2023-01-18T00:00:00	2024-11-06T15:00:00	4	Temperatura máxima	17.4
73459	7	Sololá	702	San José Chacayá	5	Chacayá	1	Enero	2023-01-18T00:00:00	2024-11-06T15:00:00	3	Temperatura mínima	15.8
73460	7	Sololá	702	San José Chacayá	5	Chacayá	1	Enero	2023-01-18T00:00:00	2024-11-06T15:00:00	5	Humedad	82
73461	7	Sololá	702	San José Chacayá	5	Chacayá	1	Enero	2023-01-18T00:00:00	2024-11-06T15:00:00	6	Velocidad del viento	4.8
73462	7	Sololá	702	San José Chacayá	5	Chacayá	1	Enero	2023-01-18T00:00:00	2024-11-06T15:00:00	7	Dirección del viento	4.83
73463	7	Sololá	702	San José Chacayá	5	Chacayá	1	Enero	2023-01-18T00:00:00	2024-11-06T15:00:00	1	Precipitación	0
73464	7	Sololá	702	San José Chacayá	5	Chacayá	1	Enero	2023-01-18T00:00:00	2024-11-06T15:00:00	8	Radiación solar	267
73465	7	Sololá	702	San José Chacayá	5	Chacayá	1	Enero	2023-01-18T00:00:00	2024-11-06T16:00:00	2	Temperatura media	14.1
73466	7	Sololá	702	San José Chacayá	5	Chacayá	1	Enero	2023-01-18T00:00:00	2024-11-06T16:00:00	4	Temperatura máxima	16.2
73467	7	Sololá	702	San José Chacayá	5	Chacayá	1	Enero	2023-01-18T00:00:00	2024-11-06T16:00:00	3	Temperatura mínima	14
73468	7	Sololá	702	San José Chacayá	5	Chacayá	1	Enero	2023-01-18T00:00:00	2024-11-06T16:00:00	5	Humedad	91
73469	7	Sololá	702	San José Chacayá	5	Chacayá	1	Enero	2023-01-18T00:00:00	2024-11-06T16:00:00	6	Velocidad del viento	3.2
73470	7	Sololá	702	San José Chacayá	5	Chacayá	1	Enero	2023-01-18T00:00:00	2024-11-06T16:00:00	7	Dirección del viento	3.22
73471	7	Sololá	702	San José Chacayá	5	Chacayá	1	Enero	2023-01-18T00:00:00	2024-11-06T16:00:00	1	Precipitación	0
73472	7	Sololá	702	San José Chacayá	5	Chacayá	1	Enero	2023-01-18T00:00:00	2024-11-06T16:00:00	8	Radiación solar	303
73473	7	Sololá	702	San José Chacayá	5	Chacayá	1	Enero	2023-01-18T00:00:00	2024-11-06T17:00:00	2	Temperatura media	13.6
73474	7	Sololá	702	San José Chacayá	5	Chacayá	1	Enero	2023-01-18T00:00:00	2024-11-06T17:00:00	4	Temperatura máxima	14.2
73475	7	Sololá	702	San José Chacayá	5	Chacayá	1	Enero	2023-01-18T00:00:00	2024-11-06T17:00:00	3	Temperatura mínima	13.6
73476	7	Sololá	702	San José Chacayá	5	Chacayá	1	Enero	2023-01-18T00:00:00	2024-11-06T17:00:00	5	Humedad	93
73477	7	Sololá	702	San José Chacayá	5	Chacayá	1	Enero	2023-01-18T00:00:00	2024-11-06T17:00:00	6	Velocidad del viento	1.6
73478	7	Sololá	702	San José Chacayá	5	Chacayá	1	Enero	2023-01-18T00:00:00	2024-11-06T17:00:00	7	Dirección del viento	1.61
73479	7	Sololá	702	San José Chacayá	5	Chacayá	1	Enero	2023-01-18T00:00:00	2024-11-06T17:00:00	1	Precipitación	0
73480	7	Sololá	702	San José Chacayá	5	Chacayá	1	Enero	2023-01-18T00:00:00	2024-11-06T17:00:00	8	Radiación solar	59
73481	7	Sololá	702	San José Chacayá	5	Chacayá	1	Enero	2023-01-18T00:00:00	2024-11-06T18:00:00	2	Temperatura media	13.4
73482	7	Sololá	702	San José Chacayá	5	Chacayá	1	Enero	2023-01-18T00:00:00	2024-11-06T18:00:00	4	Temperatura máxima	13.6
73483	7	Sololá	702	San José Chacayá	5	Chacayá	1	Enero	2023-01-18T00:00:00	2024-11-06T18:00:00	3	Temperatura mínima	13.3
73484	7	Sololá	702	San José Chacayá	5	Chacayá	1	Enero	2023-01-18T00:00:00	2024-11-06T18:00:00	5	Humedad	93
73485	7	Sololá	702	San José Chacayá	5	Chacayá	1	Enero	2023-01-18T00:00:00	2024-11-06T18:00:00	6	Velocidad del viento	1.6
73486	7	Sololá	702	San José Chacayá	5	Chacayá	1	Enero	2023-01-18T00:00:00	2024-11-06T18:00:00	7	Dirección del viento	1.61
73487	7	Sololá	702	San José Chacayá	5	Chacayá	1	Enero	2023-01-18T00:00:00	2024-11-06T18:00:00	1	Precipitación	0
73488	7	Sololá	702	San José Chacayá	5	Chacayá	1	Enero	2023-01-18T00:00:00	2024-11-06T18:00:00	8	Radiación solar	22
73489	7	Sololá	702	San José Chacayá	5	Chacayá	1	Enero	2023-01-18T00:00:00	2024-11-06T19:00:00	2	Temperatura media	13.1
73490	7	Sololá	702	San José Chacayá	5	Chacayá	1	Enero	2023-01-18T00:00:00	2024-11-06T19:00:00	4	Temperatura máxima	13.6
73491	7	Sololá	702	San José Chacayá	5	Chacayá	1	Enero	2023-01-18T00:00:00	2024-11-06T19:00:00	3	Temperatura mínima	13.1
73492	7	Sololá	702	San José Chacayá	5	Chacayá	1	Enero	2023-01-18T00:00:00	2024-11-06T19:00:00	5	Humedad	94
73493	7	Sololá	702	San José Chacayá	5	Chacayá	1	Enero	2023-01-18T00:00:00	2024-11-06T19:00:00	6	Velocidad del viento	0
73494	7	Sololá	702	San José Chacayá	5	Chacayá	1	Enero	2023-01-18T00:00:00	2024-11-06T19:00:00	7	Dirección del viento	0
73495	7	Sololá	702	San José Chacayá	5	Chacayá	1	Enero	2023-01-18T00:00:00	2024-11-06T19:00:00	1	Precipitación	0
73496	7	Sololá	702	San José Chacayá	5	Chacayá	1	Enero	2023-01-18T00:00:00	2024-11-06T19:00:00	8	Radiación solar	0
73497	7	Sololá	702	San José Chacayá	5	Chacayá	1	Enero	2023-01-18T00:00:00	2024-11-06T20:00:00	2	Temperatura media	12.7
73498	7	Sololá	702	San José Chacayá	5	Chacayá	1	Enero	2023-01-18T00:00:00	2024-11-06T20:00:00	4	Temperatura máxima	13.2
73499	7	Sololá	702	San José Chacayá	5	Chacayá	1	Enero	2023-01-18T00:00:00	2024-11-06T20:00:00	3	Temperatura mínima	12.7
73500	7	Sololá	702	San José Chacayá	5	Chacayá	1	Enero	2023-01-18T00:00:00	2024-11-06T20:00:00	5	Humedad	95
73501	7	Sololá	702	San José Chacayá	5	Chacayá	1	Enero	2023-01-18T00:00:00	2024-11-06T20:00:00	6	Velocidad del viento	0
73502	7	Sololá	702	San José Chacayá	5	Chacayá	1	Enero	2023-01-18T00:00:00	2024-11-06T20:00:00	7	Dirección del viento	0
73503	7	Sololá	702	San José Chacayá	5	Chacayá	1	Enero	2023-01-18T00:00:00	2024-11-06T20:00:00	1	Precipitación	0
73504	7	Sololá	702	San José Chacayá	5	Chacayá	1	Enero	2023-01-18T00:00:00	2024-11-06T20:00:00	8	Radiación solar	0
73505	7	Sololá	702	San José Chacayá	5	Chacayá	1	Enero	2023-01-18T00:00:00	2024-11-06T21:00:00	2	Temperatura media	10.9
73506	7	Sololá	702	San José Chacayá	5	Chacayá	1	Enero	2023-01-18T00:00:00	2024-11-06T21:00:00	4	Temperatura máxima	12.8
73507	7	Sololá	702	San José Chacayá	5	Chacayá	1	Enero	2023-01-18T00:00:00	2024-11-06T21:00:00	3	Temperatura mínima	10.9
73508	7	Sololá	702	San José Chacayá	5	Chacayá	1	Enero	2023-01-18T00:00:00	2024-11-06T21:00:00	5	Humedad	92
73509	7	Sololá	702	San José Chacayá	5	Chacayá	1	Enero	2023-01-18T00:00:00	2024-11-06T21:00:00	6	Velocidad del viento	0
73510	7	Sololá	702	San José Chacayá	5	Chacayá	1	Enero	2023-01-18T00:00:00	2024-11-06T21:00:00	7	Dirección del viento	0
73511	7	Sololá	702	San José Chacayá	5	Chacayá	1	Enero	2023-01-18T00:00:00	2024-11-06T21:00:00	1	Precipitación	0
73512	7	Sololá	702	San José Chacayá	5	Chacayá	1	Enero	2023-01-18T00:00:00	2024-11-06T21:00:00	8	Radiación solar	0
73513	7	Sololá	702	San José Chacayá	5	Chacayá	1	Enero	2023-01-18T00:00:00	2024-11-06T22:00:00	2	Temperatura media	9.6
73514	7	Sololá	702	San José Chacayá	5	Chacayá	1	Enero	2023-01-18T00:00:00	2024-11-06T22:00:00	4	Temperatura máxima	10.9
73515	7	Sololá	702	San José Chacayá	5	Chacayá	1	Enero	2023-01-18T00:00:00	2024-11-06T22:00:00	3	Temperatura mínima	9.6
73516	7	Sololá	702	San José Chacayá	5	Chacayá	1	Enero	2023-01-18T00:00:00	2024-11-06T22:00:00	5	Humedad	93
73517	7	Sololá	702	San José Chacayá	5	Chacayá	1	Enero	2023-01-18T00:00:00	2024-11-06T22:00:00	6	Velocidad del viento	1.6
73518	7	Sololá	702	San José Chacayá	5	Chacayá	1	Enero	2023-01-18T00:00:00	2024-11-06T22:00:00	7	Dirección del viento	1.61
73519	7	Sololá	702	San José Chacayá	5	Chacayá	1	Enero	2023-01-18T00:00:00	2024-11-06T22:00:00	1	Precipitación	0
73520	7	Sololá	702	San José Chacayá	5	Chacayá	1	Enero	2023-01-18T00:00:00	2024-11-06T22:00:00	8	Radiación solar	0
73521	7	Sololá	702	San José Chacayá	5	Chacayá	1	Enero	2023-01-18T00:00:00	2024-11-06T23:00:00	2	Temperatura media	8.9
73522	7	Sololá	702	San José Chacayá	5	Chacayá	1	Enero	2023-01-18T00:00:00	2024-11-06T23:00:00	4	Temperatura máxima	9.7
73523	7	Sololá	702	San José Chacayá	5	Chacayá	1	Enero	2023-01-18T00:00:00	2024-11-06T23:00:00	3	Temperatura mínima	8.8
73524	7	Sololá	702	San José Chacayá	5	Chacayá	1	Enero	2023-01-18T00:00:00	2024-11-06T23:00:00	5	Humedad	93
73525	7	Sololá	702	San José Chacayá	5	Chacayá	1	Enero	2023-01-18T00:00:00	2024-11-06T23:00:00	6	Velocidad del viento	1.6
73526	7	Sololá	702	San José Chacayá	5	Chacayá	1	Enero	2023-01-18T00:00:00	2024-11-06T23:00:00	7	Dirección del viento	1.61
73527	7	Sololá	702	San José Chacayá	5	Chacayá	1	Enero	2023-01-18T00:00:00	2024-11-06T23:00:00	1	Precipitación	0
73528	7	Sololá	702	San José Chacayá	5	Chacayá	1	Enero	2023-01-18T00:00:00	2024-11-06T23:00:00	8	Radiación solar	0
73529	7	Sololá	702	San José Chacayá	5	Chacayá	1	Enero	2023-01-19T00:00:00	2024-11-06T00:00:00	2	Temperatura media	8.1
73530	7	Sololá	702	San José Chacayá	5	Chacayá	1	Enero	2023-01-19T00:00:00	2024-11-06T00:00:00	4	Temperatura máxima	8.9
73531	7	Sololá	702	San José Chacayá	5	Chacayá	1	Enero	2023-01-19T00:00:00	2024-11-06T00:00:00	3	Temperatura mínima	8.1
73532	7	Sololá	702	San José Chacayá	5	Chacayá	1	Enero	2023-01-19T00:00:00	2024-11-06T00:00:00	5	Humedad	92
73533	7	Sololá	702	San José Chacayá	5	Chacayá	1	Enero	2023-01-19T00:00:00	2024-11-06T00:00:00	6	Velocidad del viento	1.6
73534	7	Sololá	702	San José Chacayá	5	Chacayá	1	Enero	2023-01-19T00:00:00	2024-11-06T00:00:00	7	Dirección del viento	1.61
73535	7	Sololá	702	San José Chacayá	5	Chacayá	1	Enero	2023-01-19T00:00:00	2024-11-06T00:00:00	1	Precipitación	0
73536	7	Sololá	702	San José Chacayá	5	Chacayá	1	Enero	2023-01-19T00:00:00	2024-11-06T00:00:00	8	Radiación solar	0
73537	7	Sololá	702	San José Chacayá	5	Chacayá	1	Enero	2023-01-19T00:00:00	2024-11-06T01:00:00	2	Temperatura media	7.1
73538	7	Sololá	702	San José Chacayá	5	Chacayá	1	Enero	2023-01-19T00:00:00	2024-11-06T01:00:00	4	Temperatura máxima	8.1
73539	7	Sololá	702	San José Chacayá	5	Chacayá	1	Enero	2023-01-19T00:00:00	2024-11-06T01:00:00	3	Temperatura mínima	7.1
73540	7	Sololá	702	San José Chacayá	5	Chacayá	1	Enero	2023-01-19T00:00:00	2024-11-06T01:00:00	5	Humedad	89
73541	7	Sololá	702	San José Chacayá	5	Chacayá	1	Enero	2023-01-19T00:00:00	2024-11-06T01:00:00	6	Velocidad del viento	1.6
73542	7	Sololá	702	San José Chacayá	5	Chacayá	1	Enero	2023-01-19T00:00:00	2024-11-06T01:00:00	7	Dirección del viento	1.61
73543	7	Sololá	702	San José Chacayá	5	Chacayá	1	Enero	2023-01-19T00:00:00	2024-11-06T01:00:00	1	Precipitación	0
73544	7	Sololá	702	San José Chacayá	5	Chacayá	1	Enero	2023-01-19T00:00:00	2024-11-06T01:00:00	8	Radiación solar	0
73545	7	Sololá	702	San José Chacayá	5	Chacayá	1	Enero	2023-01-19T00:00:00	2024-11-06T02:00:00	2	Temperatura media	5.8
73546	7	Sololá	702	San José Chacayá	5	Chacayá	1	Enero	2023-01-19T00:00:00	2024-11-06T02:00:00	4	Temperatura máxima	7.1
73547	7	Sololá	702	San José Chacayá	5	Chacayá	1	Enero	2023-01-19T00:00:00	2024-11-06T02:00:00	3	Temperatura mínima	5.8
73548	7	Sololá	702	San José Chacayá	5	Chacayá	1	Enero	2023-01-19T00:00:00	2024-11-06T02:00:00	5	Humedad	88
73549	7	Sololá	702	San José Chacayá	5	Chacayá	1	Enero	2023-01-19T00:00:00	2024-11-06T02:00:00	6	Velocidad del viento	1.6
73550	7	Sololá	702	San José Chacayá	5	Chacayá	1	Enero	2023-01-19T00:00:00	2024-11-06T02:00:00	7	Dirección del viento	1.61
73551	7	Sololá	702	San José Chacayá	5	Chacayá	1	Enero	2023-01-19T00:00:00	2024-11-06T02:00:00	1	Precipitación	0
73552	7	Sololá	702	San José Chacayá	5	Chacayá	1	Enero	2023-01-19T00:00:00	2024-11-06T02:00:00	8	Radiación solar	0
73553	7	Sololá	702	San José Chacayá	5	Chacayá	1	Enero	2023-01-19T00:00:00	2024-11-06T03:00:00	2	Temperatura media	5
73554	7	Sololá	702	San José Chacayá	5	Chacayá	1	Enero	2023-01-19T00:00:00	2024-11-06T03:00:00	4	Temperatura máxima	5.8
73555	7	Sololá	702	San José Chacayá	5	Chacayá	1	Enero	2023-01-19T00:00:00	2024-11-06T03:00:00	3	Temperatura mínima	4.9
73556	7	Sololá	702	San José Chacayá	5	Chacayá	1	Enero	2023-01-19T00:00:00	2024-11-06T03:00:00	5	Humedad	83
73557	7	Sololá	702	San José Chacayá	5	Chacayá	1	Enero	2023-01-19T00:00:00	2024-11-06T03:00:00	6	Velocidad del viento	1.6
73558	7	Sololá	702	San José Chacayá	5	Chacayá	1	Enero	2023-01-19T00:00:00	2024-11-06T03:00:00	7	Dirección del viento	1.61
73559	7	Sololá	702	San José Chacayá	5	Chacayá	1	Enero	2023-01-19T00:00:00	2024-11-06T03:00:00	1	Precipitación	0
73560	7	Sololá	702	San José Chacayá	5	Chacayá	1	Enero	2023-01-19T00:00:00	2024-11-06T03:00:00	8	Radiación solar	0
73561	7	Sololá	702	San José Chacayá	5	Chacayá	1	Enero	2023-01-19T00:00:00	2024-11-06T04:00:00	2	Temperatura media	4.2
73562	7	Sololá	702	San José Chacayá	5	Chacayá	1	Enero	2023-01-19T00:00:00	2024-11-06T04:00:00	4	Temperatura máxima	5
73563	7	Sololá	702	San José Chacayá	5	Chacayá	1	Enero	2023-01-19T00:00:00	2024-11-06T04:00:00	3	Temperatura mínima	4.2
73564	7	Sololá	702	San José Chacayá	5	Chacayá	1	Enero	2023-01-19T00:00:00	2024-11-06T04:00:00	5	Humedad	77
73565	7	Sololá	702	San José Chacayá	5	Chacayá	1	Enero	2023-01-19T00:00:00	2024-11-06T04:00:00	6	Velocidad del viento	1.6
73566	7	Sololá	702	San José Chacayá	5	Chacayá	1	Enero	2023-01-19T00:00:00	2024-11-06T04:00:00	7	Dirección del viento	1.61
73567	7	Sololá	702	San José Chacayá	5	Chacayá	1	Enero	2023-01-19T00:00:00	2024-11-06T04:00:00	1	Precipitación	0
73568	7	Sololá	702	San José Chacayá	5	Chacayá	1	Enero	2023-01-19T00:00:00	2024-11-06T04:00:00	8	Radiación solar	0
73569	7	Sololá	702	San José Chacayá	5	Chacayá	1	Enero	2023-01-19T00:00:00	2024-11-06T05:00:00	2	Temperatura media	3.2
73570	7	Sololá	702	San José Chacayá	5	Chacayá	1	Enero	2023-01-19T00:00:00	2024-11-06T05:00:00	4	Temperatura máxima	4.3
73571	7	Sololá	702	San José Chacayá	5	Chacayá	1	Enero	2023-01-19T00:00:00	2024-11-06T05:00:00	3	Temperatura mínima	3.2
73572	7	Sololá	702	San José Chacayá	5	Chacayá	1	Enero	2023-01-19T00:00:00	2024-11-06T05:00:00	5	Humedad	76
73573	7	Sololá	702	San José Chacayá	5	Chacayá	1	Enero	2023-01-19T00:00:00	2024-11-06T05:00:00	6	Velocidad del viento	1.6
73574	7	Sololá	702	San José Chacayá	5	Chacayá	1	Enero	2023-01-19T00:00:00	2024-11-06T05:00:00	7	Dirección del viento	1.61
73575	7	Sololá	702	San José Chacayá	5	Chacayá	1	Enero	2023-01-19T00:00:00	2024-11-06T05:00:00	1	Precipitación	0
73576	7	Sololá	702	San José Chacayá	5	Chacayá	1	Enero	2023-01-19T00:00:00	2024-11-06T05:00:00	8	Radiación solar	0
73577	7	Sololá	702	San José Chacayá	5	Chacayá	1	Enero	2023-01-19T00:00:00	2024-11-06T06:00:00	2	Temperatura media	3.7
73578	7	Sololá	702	San José Chacayá	5	Chacayá	1	Enero	2023-01-19T00:00:00	2024-11-06T06:00:00	4	Temperatura máxima	3.7
73579	7	Sololá	702	San José Chacayá	5	Chacayá	1	Enero	2023-01-19T00:00:00	2024-11-06T06:00:00	3	Temperatura mínima	3
73580	7	Sololá	702	San José Chacayá	5	Chacayá	1	Enero	2023-01-19T00:00:00	2024-11-06T06:00:00	5	Humedad	70
73581	7	Sololá	702	San José Chacayá	5	Chacayá	1	Enero	2023-01-19T00:00:00	2024-11-06T06:00:00	6	Velocidad del viento	1.6
73582	7	Sololá	702	San José Chacayá	5	Chacayá	1	Enero	2023-01-19T00:00:00	2024-11-06T06:00:00	7	Dirección del viento	1.61
73583	7	Sololá	702	San José Chacayá	5	Chacayá	1	Enero	2023-01-19T00:00:00	2024-11-06T06:00:00	1	Precipitación	0
73584	7	Sololá	702	San José Chacayá	5	Chacayá	1	Enero	2023-01-19T00:00:00	2024-11-06T06:00:00	8	Radiación solar	0
73585	7	Sololá	702	San José Chacayá	5	Chacayá	1	Enero	2023-01-19T00:00:00	2024-11-06T07:00:00	2	Temperatura media	8.6
73586	7	Sololá	702	San José Chacayá	5	Chacayá	1	Enero	2023-01-19T00:00:00	2024-11-06T07:00:00	4	Temperatura máxima	8.6
73587	7	Sololá	702	San José Chacayá	5	Chacayá	1	Enero	2023-01-19T00:00:00	2024-11-06T07:00:00	3	Temperatura mínima	3.7
73588	7	Sololá	702	San José Chacayá	5	Chacayá	1	Enero	2023-01-19T00:00:00	2024-11-06T07:00:00	5	Humedad	63
73589	7	Sololá	702	San José Chacayá	5	Chacayá	1	Enero	2023-01-19T00:00:00	2024-11-06T07:00:00	6	Velocidad del viento	3.2
73590	7	Sololá	702	San José Chacayá	5	Chacayá	1	Enero	2023-01-19T00:00:00	2024-11-06T07:00:00	7	Dirección del viento	3.22
73591	7	Sololá	702	San José Chacayá	5	Chacayá	1	Enero	2023-01-19T00:00:00	2024-11-06T07:00:00	1	Precipitación	0
73592	7	Sololá	702	San José Chacayá	5	Chacayá	1	Enero	2023-01-19T00:00:00	2024-11-06T07:00:00	8	Radiación solar	7
73593	7	Sololá	702	San José Chacayá	5	Chacayá	1	Enero	2023-01-19T00:00:00	2024-11-06T08:00:00	2	Temperatura media	16.4
73594	7	Sololá	702	San José Chacayá	5	Chacayá	1	Enero	2023-01-19T00:00:00	2024-11-06T08:00:00	4	Temperatura máxima	16.4
73595	7	Sololá	702	San José Chacayá	5	Chacayá	1	Enero	2023-01-19T00:00:00	2024-11-06T08:00:00	3	Temperatura mínima	8.6
73596	7	Sololá	702	San José Chacayá	5	Chacayá	1	Enero	2023-01-19T00:00:00	2024-11-06T08:00:00	5	Humedad	45
73597	7	Sololá	702	San José Chacayá	5	Chacayá	1	Enero	2023-01-19T00:00:00	2024-11-06T08:00:00	6	Velocidad del viento	1.6
73598	7	Sololá	702	San José Chacayá	5	Chacayá	1	Enero	2023-01-19T00:00:00	2024-11-06T08:00:00	7	Dirección del viento	1.61
73599	7	Sololá	702	San José Chacayá	5	Chacayá	1	Enero	2023-01-19T00:00:00	2024-11-06T08:00:00	1	Precipitación	0
73600	7	Sololá	702	San José Chacayá	5	Chacayá	1	Enero	2023-01-19T00:00:00	2024-11-06T08:00:00	8	Radiación solar	183
73601	7	Sololá	702	San José Chacayá	5	Chacayá	1	Enero	2023-01-19T00:00:00	2024-11-06T09:00:00	2	Temperatura media	17.3
73602	7	Sololá	702	San José Chacayá	5	Chacayá	1	Enero	2023-01-19T00:00:00	2024-11-06T09:00:00	4	Temperatura máxima	17.3
73603	7	Sololá	702	San José Chacayá	5	Chacayá	1	Enero	2023-01-19T00:00:00	2024-11-06T09:00:00	3	Temperatura mínima	15.4
73604	7	Sololá	702	San José Chacayá	5	Chacayá	1	Enero	2023-01-19T00:00:00	2024-11-06T09:00:00	5	Humedad	50
73605	7	Sololá	702	San José Chacayá	5	Chacayá	1	Enero	2023-01-19T00:00:00	2024-11-06T09:00:00	6	Velocidad del viento	3.2
73606	7	Sololá	702	San José Chacayá	5	Chacayá	1	Enero	2023-01-19T00:00:00	2024-11-06T09:00:00	7	Dirección del viento	3.22
73607	7	Sololá	702	San José Chacayá	5	Chacayá	1	Enero	2023-01-19T00:00:00	2024-11-06T09:00:00	1	Precipitación	0
73608	7	Sololá	702	San José Chacayá	5	Chacayá	1	Enero	2023-01-19T00:00:00	2024-11-06T09:00:00	8	Radiación solar	410
73609	7	Sololá	702	San José Chacayá	5	Chacayá	1	Enero	2023-01-19T00:00:00	2024-11-06T10:00:00	2	Temperatura media	18.4
73610	7	Sololá	702	San José Chacayá	5	Chacayá	1	Enero	2023-01-19T00:00:00	2024-11-06T10:00:00	4	Temperatura máxima	18.4
73611	7	Sololá	702	San José Chacayá	5	Chacayá	1	Enero	2023-01-19T00:00:00	2024-11-06T10:00:00	3	Temperatura mínima	16.9
73612	7	Sololá	702	San José Chacayá	5	Chacayá	1	Enero	2023-01-19T00:00:00	2024-11-06T10:00:00	5	Humedad	51
73613	7	Sololá	702	San José Chacayá	5	Chacayá	1	Enero	2023-01-19T00:00:00	2024-11-06T10:00:00	6	Velocidad del viento	3.2
73614	7	Sololá	702	San José Chacayá	5	Chacayá	1	Enero	2023-01-19T00:00:00	2024-11-06T10:00:00	7	Dirección del viento	3.22
73615	7	Sololá	702	San José Chacayá	5	Chacayá	1	Enero	2023-01-19T00:00:00	2024-11-06T10:00:00	1	Precipitación	0
73616	7	Sololá	702	San José Chacayá	5	Chacayá	1	Enero	2023-01-19T00:00:00	2024-11-06T10:00:00	8	Radiación solar	112
73617	7	Sololá	702	San José Chacayá	5	Chacayá	1	Enero	2023-01-19T00:00:00	2024-11-06T11:00:00	2	Temperatura media	19.5
73618	7	Sololá	702	San José Chacayá	5	Chacayá	1	Enero	2023-01-19T00:00:00	2024-11-06T11:00:00	4	Temperatura máxima	19.6
73619	7	Sololá	702	San José Chacayá	5	Chacayá	1	Enero	2023-01-19T00:00:00	2024-11-06T11:00:00	3	Temperatura mínima	18.1
73620	7	Sololá	702	San José Chacayá	5	Chacayá	1	Enero	2023-01-19T00:00:00	2024-11-06T11:00:00	5	Humedad	46
73621	7	Sololá	702	San José Chacayá	5	Chacayá	1	Enero	2023-01-19T00:00:00	2024-11-06T11:00:00	6	Velocidad del viento	4.8
73622	7	Sololá	702	San José Chacayá	5	Chacayá	1	Enero	2023-01-19T00:00:00	2024-11-06T11:00:00	7	Dirección del viento	4.83
73623	7	Sololá	702	San José Chacayá	5	Chacayá	1	Enero	2023-01-19T00:00:00	2024-11-06T11:00:00	1	Precipitación	0
73624	7	Sololá	702	San José Chacayá	5	Chacayá	1	Enero	2023-01-19T00:00:00	2024-11-06T11:00:00	8	Radiación solar	30
73625	7	Sololá	702	San José Chacayá	5	Chacayá	1	Enero	2023-01-19T00:00:00	2024-11-06T12:00:00	2	Temperatura media	19.8
73626	7	Sololá	702	San José Chacayá	5	Chacayá	1	Enero	2023-01-19T00:00:00	2024-11-06T12:00:00	4	Temperatura máxima	20
73627	7	Sololá	702	San José Chacayá	5	Chacayá	1	Enero	2023-01-19T00:00:00	2024-11-06T12:00:00	3	Temperatura mínima	19.5
73628	7	Sololá	702	San José Chacayá	5	Chacayá	1	Enero	2023-01-19T00:00:00	2024-11-06T12:00:00	5	Humedad	53
73629	7	Sololá	702	San José Chacayá	5	Chacayá	1	Enero	2023-01-19T00:00:00	2024-11-06T12:00:00	6	Velocidad del viento	4.8
73630	7	Sololá	702	San José Chacayá	5	Chacayá	1	Enero	2023-01-19T00:00:00	2024-11-06T12:00:00	7	Dirección del viento	4.83
73631	7	Sololá	702	San José Chacayá	5	Chacayá	1	Enero	2023-01-19T00:00:00	2024-11-06T12:00:00	1	Precipitación	0
73632	7	Sololá	702	San José Chacayá	5	Chacayá	1	Enero	2023-01-19T00:00:00	2024-11-06T12:00:00	8	Radiación solar	683
73633	7	Sololá	702	San José Chacayá	5	Chacayá	1	Enero	2023-01-19T00:00:00	2024-11-06T13:00:00	2	Temperatura media	18.9
73634	7	Sololá	702	San José Chacayá	5	Chacayá	1	Enero	2023-01-19T00:00:00	2024-11-06T13:00:00	4	Temperatura máxima	20
73635	7	Sololá	702	San José Chacayá	5	Chacayá	1	Enero	2023-01-19T00:00:00	2024-11-06T13:00:00	3	Temperatura mínima	18.9
73636	7	Sololá	702	San José Chacayá	5	Chacayá	1	Enero	2023-01-19T00:00:00	2024-11-06T13:00:00	5	Humedad	62
73637	7	Sololá	702	San José Chacayá	5	Chacayá	1	Enero	2023-01-19T00:00:00	2024-11-06T13:00:00	6	Velocidad del viento	4.8
73638	7	Sololá	702	San José Chacayá	5	Chacayá	1	Enero	2023-01-19T00:00:00	2024-11-06T13:00:00	7	Dirección del viento	4.83
73639	7	Sololá	702	San José Chacayá	5	Chacayá	1	Enero	2023-01-19T00:00:00	2024-11-06T13:00:00	1	Precipitación	0
73640	7	Sololá	702	San José Chacayá	5	Chacayá	1	Enero	2023-01-19T00:00:00	2024-11-06T13:00:00	8	Radiación solar	845
73641	7	Sololá	702	San José Chacayá	5	Chacayá	1	Enero	2023-01-19T00:00:00	2024-11-06T14:00:00	2	Temperatura media	17.7
73642	7	Sololá	702	San José Chacayá	5	Chacayá	1	Enero	2023-01-19T00:00:00	2024-11-06T14:00:00	4	Temperatura máxima	18.9
73643	7	Sololá	702	San José Chacayá	5	Chacayá	1	Enero	2023-01-19T00:00:00	2024-11-06T14:00:00	3	Temperatura mínima	17.4
73644	7	Sololá	702	San José Chacayá	5	Chacayá	1	Enero	2023-01-19T00:00:00	2024-11-06T14:00:00	5	Humedad	69
73645	7	Sololá	702	San José Chacayá	5	Chacayá	1	Enero	2023-01-19T00:00:00	2024-11-06T14:00:00	6	Velocidad del viento	6.4
73646	7	Sololá	702	San José Chacayá	5	Chacayá	1	Enero	2023-01-19T00:00:00	2024-11-06T14:00:00	7	Dirección del viento	6.44
73647	7	Sololá	702	San José Chacayá	5	Chacayá	1	Enero	2023-01-19T00:00:00	2024-11-06T14:00:00	1	Precipitación	0
73648	7	Sololá	702	San José Chacayá	5	Chacayá	1	Enero	2023-01-19T00:00:00	2024-11-06T14:00:00	8	Radiación solar	779
73649	7	Sololá	702	San José Chacayá	5	Chacayá	1	Enero	2023-01-19T00:00:00	2024-11-06T15:00:00	2	Temperatura media	16.4
73650	7	Sololá	702	San José Chacayá	5	Chacayá	1	Enero	2023-01-19T00:00:00	2024-11-06T15:00:00	4	Temperatura máxima	17.7
73651	7	Sololá	702	San José Chacayá	5	Chacayá	1	Enero	2023-01-19T00:00:00	2024-11-06T15:00:00	3	Temperatura mínima	16.4
73652	7	Sololá	702	San José Chacayá	5	Chacayá	1	Enero	2023-01-19T00:00:00	2024-11-06T15:00:00	5	Humedad	74
73653	7	Sololá	702	San José Chacayá	5	Chacayá	1	Enero	2023-01-19T00:00:00	2024-11-06T15:00:00	6	Velocidad del viento	4.8
73654	7	Sololá	702	San José Chacayá	5	Chacayá	1	Enero	2023-01-19T00:00:00	2024-11-06T15:00:00	7	Dirección del viento	4.83
73655	7	Sololá	702	San José Chacayá	5	Chacayá	1	Enero	2023-01-19T00:00:00	2024-11-06T15:00:00	1	Precipitación	0
73656	7	Sololá	702	San José Chacayá	5	Chacayá	1	Enero	2023-01-19T00:00:00	2024-11-06T15:00:00	8	Radiación solar	645
73657	7	Sololá	702	San José Chacayá	5	Chacayá	1	Enero	2023-01-19T00:00:00	2024-11-06T16:00:00	2	Temperatura media	15
73658	7	Sololá	702	San José Chacayá	5	Chacayá	1	Enero	2023-01-19T00:00:00	2024-11-06T16:00:00	4	Temperatura máxima	16.4
73659	7	Sololá	702	San José Chacayá	5	Chacayá	1	Enero	2023-01-19T00:00:00	2024-11-06T16:00:00	3	Temperatura mínima	15
73660	7	Sololá	702	San José Chacayá	5	Chacayá	1	Enero	2023-01-19T00:00:00	2024-11-06T16:00:00	5	Humedad	80
73661	7	Sololá	702	San José Chacayá	5	Chacayá	1	Enero	2023-01-19T00:00:00	2024-11-06T16:00:00	6	Velocidad del viento	3.2
73662	7	Sololá	702	San José Chacayá	5	Chacayá	1	Enero	2023-01-19T00:00:00	2024-11-06T16:00:00	7	Dirección del viento	3.22
73663	7	Sololá	702	San José Chacayá	5	Chacayá	1	Enero	2023-01-19T00:00:00	2024-11-06T16:00:00	1	Precipitación	0
73664	7	Sololá	702	San José Chacayá	5	Chacayá	1	Enero	2023-01-19T00:00:00	2024-11-06T16:00:00	8	Radiación solar	452
73665	7	Sololá	702	San José Chacayá	5	Chacayá	1	Enero	2023-01-19T00:00:00	2024-11-06T17:00:00	2	Temperatura media	13
73666	7	Sololá	702	San José Chacayá	5	Chacayá	1	Enero	2023-01-19T00:00:00	2024-11-06T17:00:00	4	Temperatura máxima	15
73667	7	Sololá	702	San José Chacayá	5	Chacayá	1	Enero	2023-01-19T00:00:00	2024-11-06T17:00:00	3	Temperatura mínima	12.9
73668	7	Sololá	702	San José Chacayá	5	Chacayá	1	Enero	2023-01-19T00:00:00	2024-11-06T17:00:00	5	Humedad	87
73669	7	Sololá	702	San José Chacayá	5	Chacayá	1	Enero	2023-01-19T00:00:00	2024-11-06T17:00:00	6	Velocidad del viento	1.6
73670	7	Sololá	702	San José Chacayá	5	Chacayá	1	Enero	2023-01-19T00:00:00	2024-11-06T17:00:00	7	Dirección del viento	1.61
73671	7	Sololá	702	San José Chacayá	5	Chacayá	1	Enero	2023-01-19T00:00:00	2024-11-06T17:00:00	1	Precipitación	0
73672	7	Sololá	702	San José Chacayá	5	Chacayá	1	Enero	2023-01-19T00:00:00	2024-11-06T17:00:00	8	Radiación solar	191
73673	7	Sololá	702	San José Chacayá	5	Chacayá	1	Enero	2023-01-19T00:00:00	2024-11-06T18:00:00	2	Temperatura media	10.7
73674	7	Sololá	702	San José Chacayá	5	Chacayá	1	Enero	2023-01-19T00:00:00	2024-11-06T18:00:00	4	Temperatura máxima	12.9
73675	7	Sololá	702	San José Chacayá	5	Chacayá	1	Enero	2023-01-19T00:00:00	2024-11-06T18:00:00	3	Temperatura mínima	10.7
73676	7	Sololá	702	San José Chacayá	5	Chacayá	1	Enero	2023-01-19T00:00:00	2024-11-06T18:00:00	5	Humedad	89
73677	7	Sololá	702	San José Chacayá	5	Chacayá	1	Enero	2023-01-19T00:00:00	2024-11-06T18:00:00	6	Velocidad del viento	0
73678	7	Sololá	702	San José Chacayá	5	Chacayá	1	Enero	2023-01-19T00:00:00	2024-11-06T18:00:00	7	Dirección del viento	0
73679	7	Sololá	702	San José Chacayá	5	Chacayá	1	Enero	2023-01-19T00:00:00	2024-11-06T18:00:00	1	Precipitación	0
73680	7	Sololá	702	San José Chacayá	5	Chacayá	1	Enero	2023-01-19T00:00:00	2024-11-06T18:00:00	8	Radiación solar	17
73681	7	Sololá	702	San José Chacayá	5	Chacayá	1	Enero	2023-01-19T00:00:00	2024-11-06T19:00:00	2	Temperatura media	8.9
73682	7	Sololá	702	San José Chacayá	5	Chacayá	1	Enero	2023-01-19T00:00:00	2024-11-06T19:00:00	4	Temperatura máxima	10.7
73683	7	Sololá	702	San José Chacayá	5	Chacayá	1	Enero	2023-01-19T00:00:00	2024-11-06T19:00:00	3	Temperatura mínima	8.9
73684	7	Sololá	702	San José Chacayá	5	Chacayá	1	Enero	2023-01-19T00:00:00	2024-11-06T19:00:00	5	Humedad	87
73685	7	Sololá	702	San José Chacayá	5	Chacayá	1	Enero	2023-01-19T00:00:00	2024-11-06T19:00:00	6	Velocidad del viento	1.6
73686	7	Sololá	702	San José Chacayá	5	Chacayá	1	Enero	2023-01-19T00:00:00	2024-11-06T19:00:00	7	Dirección del viento	1.61
73687	7	Sololá	702	San José Chacayá	5	Chacayá	1	Enero	2023-01-19T00:00:00	2024-11-06T19:00:00	1	Precipitación	0
73688	7	Sololá	702	San José Chacayá	5	Chacayá	1	Enero	2023-01-19T00:00:00	2024-11-06T19:00:00	8	Radiación solar	0
73689	7	Sololá	702	San José Chacayá	5	Chacayá	1	Enero	2023-01-19T00:00:00	2024-11-06T20:00:00	2	Temperatura media	8.2
73690	7	Sololá	702	San José Chacayá	5	Chacayá	1	Enero	2023-01-19T00:00:00	2024-11-06T20:00:00	4	Temperatura máxima	8.9
73691	7	Sololá	702	San José Chacayá	5	Chacayá	1	Enero	2023-01-19T00:00:00	2024-11-06T20:00:00	3	Temperatura mínima	8.1
73692	7	Sololá	702	San José Chacayá	5	Chacayá	1	Enero	2023-01-19T00:00:00	2024-11-06T20:00:00	5	Humedad	83
73693	7	Sololá	702	San José Chacayá	5	Chacayá	1	Enero	2023-01-19T00:00:00	2024-11-06T20:00:00	6	Velocidad del viento	1.6
73694	7	Sololá	702	San José Chacayá	5	Chacayá	1	Enero	2023-01-19T00:00:00	2024-11-06T20:00:00	7	Dirección del viento	1.61
73695	7	Sololá	702	San José Chacayá	5	Chacayá	1	Enero	2023-01-19T00:00:00	2024-11-06T20:00:00	1	Precipitación	0
73696	7	Sololá	702	San José Chacayá	5	Chacayá	1	Enero	2023-01-19T00:00:00	2024-11-06T20:00:00	8	Radiación solar	0
73697	7	Sololá	702	San José Chacayá	5	Chacayá	1	Enero	2023-01-19T00:00:00	2024-11-06T21:00:00	2	Temperatura media	7.5
73698	7	Sololá	702	San José Chacayá	5	Chacayá	1	Enero	2023-01-19T00:00:00	2024-11-06T21:00:00	4	Temperatura máxima	8.2
73699	7	Sololá	702	San José Chacayá	5	Chacayá	1	Enero	2023-01-19T00:00:00	2024-11-06T21:00:00	3	Temperatura mínima	7.5
73700	7	Sololá	702	San José Chacayá	5	Chacayá	1	Enero	2023-01-19T00:00:00	2024-11-06T21:00:00	5	Humedad	87
73701	7	Sololá	702	San José Chacayá	5	Chacayá	1	Enero	2023-01-19T00:00:00	2024-11-06T21:00:00	6	Velocidad del viento	1.6
73702	7	Sololá	702	San José Chacayá	5	Chacayá	1	Enero	2023-01-19T00:00:00	2024-11-06T21:00:00	7	Dirección del viento	1.61
73703	7	Sololá	702	San José Chacayá	5	Chacayá	1	Enero	2023-01-19T00:00:00	2024-11-06T21:00:00	1	Precipitación	0
73704	7	Sololá	702	San José Chacayá	5	Chacayá	1	Enero	2023-01-19T00:00:00	2024-11-06T21:00:00	8	Radiación solar	0
73705	7	Sololá	702	San José Chacayá	5	Chacayá	1	Enero	2023-01-19T00:00:00	2024-11-06T22:00:00	2	Temperatura media	6.9
73706	7	Sololá	702	San José Chacayá	5	Chacayá	1	Enero	2023-01-19T00:00:00	2024-11-06T22:00:00	4	Temperatura máxima	7.5
73707	7	Sololá	702	San José Chacayá	5	Chacayá	1	Enero	2023-01-19T00:00:00	2024-11-06T22:00:00	3	Temperatura mínima	6.9
73708	7	Sololá	702	San José Chacayá	5	Chacayá	1	Enero	2023-01-19T00:00:00	2024-11-06T22:00:00	5	Humedad	89
73709	7	Sololá	702	San José Chacayá	5	Chacayá	1	Enero	2023-01-19T00:00:00	2024-11-06T22:00:00	6	Velocidad del viento	1.6
73710	7	Sololá	702	San José Chacayá	5	Chacayá	1	Enero	2023-01-19T00:00:00	2024-11-06T22:00:00	7	Dirección del viento	1.61
73711	7	Sololá	702	San José Chacayá	5	Chacayá	1	Enero	2023-01-19T00:00:00	2024-11-06T22:00:00	1	Precipitación	0
73712	7	Sololá	702	San José Chacayá	5	Chacayá	1	Enero	2023-01-19T00:00:00	2024-11-06T22:00:00	8	Radiación solar	0
73713	7	Sololá	702	San José Chacayá	5	Chacayá	1	Enero	2023-01-19T00:00:00	2024-11-06T23:00:00	2	Temperatura media	6.3
73714	7	Sololá	702	San José Chacayá	5	Chacayá	1	Enero	2023-01-19T00:00:00	2024-11-06T23:00:00	4	Temperatura máxima	6.9
73715	7	Sololá	702	San José Chacayá	5	Chacayá	1	Enero	2023-01-19T00:00:00	2024-11-06T23:00:00	3	Temperatura mínima	6.3
73716	7	Sololá	702	San José Chacayá	5	Chacayá	1	Enero	2023-01-19T00:00:00	2024-11-06T23:00:00	5	Humedad	88
73717	7	Sololá	702	San José Chacayá	5	Chacayá	1	Enero	2023-01-19T00:00:00	2024-11-06T23:00:00	6	Velocidad del viento	1.6
73718	7	Sololá	702	San José Chacayá	5	Chacayá	1	Enero	2023-01-19T00:00:00	2024-11-06T23:00:00	7	Dirección del viento	1.61
73719	7	Sololá	702	San José Chacayá	5	Chacayá	1	Enero	2023-01-19T00:00:00	2024-11-06T23:00:00	1	Precipitación	0
73720	7	Sololá	702	San José Chacayá	5	Chacayá	1	Enero	2023-01-19T00:00:00	2024-11-06T23:00:00	8	Radiación solar	0
73721	7	Sololá	702	San José Chacayá	5	Chacayá	1	Enero	2023-01-20T00:00:00	2024-11-06T00:00:00	2	Temperatura media	6.1
73722	7	Sololá	702	San José Chacayá	5	Chacayá	1	Enero	2023-01-20T00:00:00	2024-11-06T00:00:00	4	Temperatura máxima	6.4
73723	7	Sololá	702	San José Chacayá	5	Chacayá	1	Enero	2023-01-20T00:00:00	2024-11-06T00:00:00	3	Temperatura mínima	5.9
73724	7	Sololá	702	San José Chacayá	5	Chacayá	1	Enero	2023-01-20T00:00:00	2024-11-06T00:00:00	5	Humedad	84
73725	7	Sololá	702	San José Chacayá	5	Chacayá	1	Enero	2023-01-20T00:00:00	2024-11-06T00:00:00	6	Velocidad del viento	1.6
73726	7	Sololá	702	San José Chacayá	5	Chacayá	1	Enero	2023-01-20T00:00:00	2024-11-06T00:00:00	7	Dirección del viento	1.61
73727	7	Sololá	702	San José Chacayá	5	Chacayá	1	Enero	2023-01-20T00:00:00	2024-11-06T00:00:00	1	Precipitación	0
73728	7	Sololá	702	San José Chacayá	5	Chacayá	1	Enero	2023-01-20T00:00:00	2024-11-06T00:00:00	8	Radiación solar	0
73729	7	Sololá	702	San José Chacayá	5	Chacayá	1	Enero	2023-01-20T00:00:00	2024-11-06T01:00:00	2	Temperatura media	5.6
73730	7	Sololá	702	San José Chacayá	5	Chacayá	1	Enero	2023-01-20T00:00:00	2024-11-06T01:00:00	4	Temperatura máxima	6.2
73731	7	Sololá	702	San José Chacayá	5	Chacayá	1	Enero	2023-01-20T00:00:00	2024-11-06T01:00:00	3	Temperatura mínima	5.6
73732	7	Sololá	702	San José Chacayá	5	Chacayá	1	Enero	2023-01-20T00:00:00	2024-11-06T01:00:00	5	Humedad	84
73733	7	Sololá	702	San José Chacayá	5	Chacayá	1	Enero	2023-01-20T00:00:00	2024-11-06T01:00:00	6	Velocidad del viento	3.2
73734	7	Sololá	702	San José Chacayá	5	Chacayá	1	Enero	2023-01-20T00:00:00	2024-11-06T01:00:00	7	Dirección del viento	3.22
73735	7	Sololá	702	San José Chacayá	5	Chacayá	1	Enero	2023-01-20T00:00:00	2024-11-06T01:00:00	1	Precipitación	0
73736	7	Sololá	702	San José Chacayá	5	Chacayá	1	Enero	2023-01-20T00:00:00	2024-11-06T01:00:00	8	Radiación solar	0
73737	7	Sololá	702	San José Chacayá	5	Chacayá	1	Enero	2023-01-20T00:00:00	2024-11-06T02:00:00	2	Temperatura media	5.5
73738	7	Sololá	702	San José Chacayá	5	Chacayá	1	Enero	2023-01-20T00:00:00	2024-11-06T02:00:00	4	Temperatura máxima	5.7
73739	7	Sololá	702	San José Chacayá	5	Chacayá	1	Enero	2023-01-20T00:00:00	2024-11-06T02:00:00	3	Temperatura mínima	5.3
73740	7	Sololá	702	San José Chacayá	5	Chacayá	1	Enero	2023-01-20T00:00:00	2024-11-06T02:00:00	5	Humedad	83
73741	7	Sololá	702	San José Chacayá	5	Chacayá	1	Enero	2023-01-20T00:00:00	2024-11-06T02:00:00	6	Velocidad del viento	1.6
73742	7	Sololá	702	San José Chacayá	5	Chacayá	1	Enero	2023-01-20T00:00:00	2024-11-06T02:00:00	7	Dirección del viento	1.61
73743	7	Sololá	702	San José Chacayá	5	Chacayá	1	Enero	2023-01-20T00:00:00	2024-11-06T02:00:00	1	Precipitación	0
73744	7	Sololá	702	San José Chacayá	5	Chacayá	1	Enero	2023-01-20T00:00:00	2024-11-06T02:00:00	8	Radiación solar	0
73745	7	Sololá	702	San José Chacayá	5	Chacayá	1	Enero	2023-01-20T00:00:00	2024-11-06T03:00:00	2	Temperatura media	5
73746	7	Sololá	702	San José Chacayá	5	Chacayá	1	Enero	2023-01-20T00:00:00	2024-11-06T03:00:00	4	Temperatura máxima	5.5
73747	7	Sololá	702	San José Chacayá	5	Chacayá	1	Enero	2023-01-20T00:00:00	2024-11-06T03:00:00	3	Temperatura mínima	5
73748	7	Sololá	702	San José Chacayá	5	Chacayá	1	Enero	2023-01-20T00:00:00	2024-11-06T03:00:00	5	Humedad	83
73749	7	Sololá	702	San José Chacayá	5	Chacayá	1	Enero	2023-01-20T00:00:00	2024-11-06T03:00:00	6	Velocidad del viento	1.6
73750	7	Sololá	702	San José Chacayá	5	Chacayá	1	Enero	2023-01-20T00:00:00	2024-11-06T03:00:00	7	Dirección del viento	1.61
73751	7	Sololá	702	San José Chacayá	5	Chacayá	1	Enero	2023-01-20T00:00:00	2024-11-06T03:00:00	1	Precipitación	0
73752	7	Sololá	702	San José Chacayá	5	Chacayá	1	Enero	2023-01-20T00:00:00	2024-11-06T03:00:00	8	Radiación solar	0
73753	7	Sololá	702	San José Chacayá	5	Chacayá	1	Enero	2023-01-20T00:00:00	2024-11-06T04:00:00	2	Temperatura media	4.5
73754	7	Sololá	702	San José Chacayá	5	Chacayá	1	Enero	2023-01-20T00:00:00	2024-11-06T04:00:00	4	Temperatura máxima	5
73755	7	Sololá	702	San José Chacayá	5	Chacayá	1	Enero	2023-01-20T00:00:00	2024-11-06T04:00:00	3	Temperatura mínima	4.4
73756	7	Sololá	702	San José Chacayá	5	Chacayá	1	Enero	2023-01-20T00:00:00	2024-11-06T04:00:00	5	Humedad	84
73757	7	Sololá	702	San José Chacayá	5	Chacayá	1	Enero	2023-01-20T00:00:00	2024-11-06T04:00:00	6	Velocidad del viento	1.6
73758	7	Sololá	702	San José Chacayá	5	Chacayá	1	Enero	2023-01-20T00:00:00	2024-11-06T04:00:00	7	Dirección del viento	1.61
73759	7	Sololá	702	San José Chacayá	5	Chacayá	1	Enero	2023-01-20T00:00:00	2024-11-06T04:00:00	1	Precipitación	0
73760	7	Sololá	702	San José Chacayá	5	Chacayá	1	Enero	2023-01-20T00:00:00	2024-11-06T04:00:00	8	Radiación solar	0
73761	7	Sololá	702	San José Chacayá	5	Chacayá	1	Enero	2023-01-20T00:00:00	2024-11-06T05:00:00	2	Temperatura media	4.7
73762	7	Sololá	702	San José Chacayá	5	Chacayá	1	Enero	2023-01-20T00:00:00	2024-11-06T05:00:00	4	Temperatura máxima	4.9
73763	7	Sololá	702	San José Chacayá	5	Chacayá	1	Enero	2023-01-20T00:00:00	2024-11-06T05:00:00	3	Temperatura mínima	4.4
73764	7	Sololá	702	San José Chacayá	5	Chacayá	1	Enero	2023-01-20T00:00:00	2024-11-06T05:00:00	5	Humedad	83
73765	7	Sololá	702	San José Chacayá	5	Chacayá	1	Enero	2023-01-20T00:00:00	2024-11-06T05:00:00	6	Velocidad del viento	1.6
73766	7	Sololá	702	San José Chacayá	5	Chacayá	1	Enero	2023-01-20T00:00:00	2024-11-06T05:00:00	7	Dirección del viento	1.61
73767	7	Sololá	702	San José Chacayá	5	Chacayá	1	Enero	2023-01-20T00:00:00	2024-11-06T05:00:00	1	Precipitación	0
73768	7	Sololá	702	San José Chacayá	5	Chacayá	1	Enero	2023-01-20T00:00:00	2024-11-06T05:00:00	8	Radiación solar	0
73769	7	Sololá	702	San José Chacayá	5	Chacayá	1	Enero	2023-01-20T00:00:00	2024-11-06T06:00:00	2	Temperatura media	5.4
73770	7	Sololá	702	San José Chacayá	5	Chacayá	1	Enero	2023-01-20T00:00:00	2024-11-06T06:00:00	4	Temperatura máxima	5.4
73771	7	Sololá	702	San José Chacayá	5	Chacayá	1	Enero	2023-01-20T00:00:00	2024-11-06T06:00:00	3	Temperatura mínima	4.5
73772	7	Sololá	702	San José Chacayá	5	Chacayá	1	Enero	2023-01-20T00:00:00	2024-11-06T06:00:00	5	Humedad	83
73773	7	Sololá	702	San José Chacayá	5	Chacayá	1	Enero	2023-01-20T00:00:00	2024-11-06T06:00:00	6	Velocidad del viento	3.2
73774	7	Sololá	702	San José Chacayá	5	Chacayá	1	Enero	2023-01-20T00:00:00	2024-11-06T06:00:00	7	Dirección del viento	3.22
73775	7	Sololá	702	San José Chacayá	5	Chacayá	1	Enero	2023-01-20T00:00:00	2024-11-06T06:00:00	1	Precipitación	0
73776	7	Sololá	702	San José Chacayá	5	Chacayá	1	Enero	2023-01-20T00:00:00	2024-11-06T06:00:00	8	Radiación solar	0
73777	7	Sololá	702	San José Chacayá	5	Chacayá	1	Enero	2023-01-20T00:00:00	2024-11-06T07:00:00	2	Temperatura media	11.4
73778	7	Sololá	702	San José Chacayá	5	Chacayá	1	Enero	2023-01-20T00:00:00	2024-11-06T07:00:00	4	Temperatura máxima	11.4
73779	7	Sololá	702	San José Chacayá	5	Chacayá	1	Enero	2023-01-20T00:00:00	2024-11-06T07:00:00	3	Temperatura mínima	5.4
73780	7	Sololá	702	San José Chacayá	5	Chacayá	1	Enero	2023-01-20T00:00:00	2024-11-06T07:00:00	5	Humedad	75
73781	7	Sololá	702	San José Chacayá	5	Chacayá	1	Enero	2023-01-20T00:00:00	2024-11-06T07:00:00	6	Velocidad del viento	1.6
73782	7	Sololá	702	San José Chacayá	5	Chacayá	1	Enero	2023-01-20T00:00:00	2024-11-06T07:00:00	7	Dirección del viento	1.61
73783	7	Sololá	702	San José Chacayá	5	Chacayá	1	Enero	2023-01-20T00:00:00	2024-11-06T07:00:00	1	Precipitación	0
73784	7	Sololá	702	San José Chacayá	5	Chacayá	1	Enero	2023-01-20T00:00:00	2024-11-06T07:00:00	8	Radiación solar	12
73785	7	Sololá	702	San José Chacayá	5	Chacayá	1	Enero	2023-01-20T00:00:00	2024-11-06T08:00:00	2	Temperatura media	18.2
73786	7	Sololá	702	San José Chacayá	5	Chacayá	1	Enero	2023-01-20T00:00:00	2024-11-06T08:00:00	4	Temperatura máxima	18.2
73787	7	Sololá	702	San José Chacayá	5	Chacayá	1	Enero	2023-01-20T00:00:00	2024-11-06T08:00:00	3	Temperatura mínima	11.4
73788	7	Sololá	702	San José Chacayá	5	Chacayá	1	Enero	2023-01-20T00:00:00	2024-11-06T08:00:00	5	Humedad	51
73789	7	Sololá	702	San José Chacayá	5	Chacayá	1	Enero	2023-01-20T00:00:00	2024-11-06T08:00:00	6	Velocidad del viento	1.6
73790	7	Sololá	702	San José Chacayá	5	Chacayá	1	Enero	2023-01-20T00:00:00	2024-11-06T08:00:00	7	Dirección del viento	1.61
73791	7	Sololá	702	San José Chacayá	5	Chacayá	1	Enero	2023-01-20T00:00:00	2024-11-06T08:00:00	1	Precipitación	0
73792	7	Sololá	702	San José Chacayá	5	Chacayá	1	Enero	2023-01-20T00:00:00	2024-11-06T08:00:00	8	Radiación solar	174
73793	7	Sololá	702	San José Chacayá	5	Chacayá	1	Enero	2023-01-20T00:00:00	2024-11-06T09:00:00	2	Temperatura media	19.8
73794	7	Sololá	702	San José Chacayá	5	Chacayá	1	Enero	2023-01-20T00:00:00	2024-11-06T09:00:00	4	Temperatura máxima	19.8
73795	7	Sololá	702	San José Chacayá	5	Chacayá	1	Enero	2023-01-20T00:00:00	2024-11-06T09:00:00	3	Temperatura mínima	18.2
73796	7	Sololá	702	San José Chacayá	5	Chacayá	1	Enero	2023-01-20T00:00:00	2024-11-06T09:00:00	5	Humedad	46
73797	7	Sololá	702	San José Chacayá	5	Chacayá	1	Enero	2023-01-20T00:00:00	2024-11-06T09:00:00	6	Velocidad del viento	3.2
73798	7	Sololá	702	San José Chacayá	5	Chacayá	1	Enero	2023-01-20T00:00:00	2024-11-06T09:00:00	7	Dirección del viento	3.22
73799	7	Sololá	702	San José Chacayá	5	Chacayá	1	Enero	2023-01-20T00:00:00	2024-11-06T09:00:00	1	Precipitación	0
73800	7	Sololá	702	San José Chacayá	5	Chacayá	1	Enero	2023-01-20T00:00:00	2024-11-06T09:00:00	8	Radiación solar	397
73801	7	Sololá	702	San José Chacayá	5	Chacayá	1	Enero	2023-01-20T00:00:00	2024-11-06T10:00:00	2	Temperatura media	21.4
73802	7	Sololá	702	San José Chacayá	5	Chacayá	1	Enero	2023-01-20T00:00:00	2024-11-06T10:00:00	4	Temperatura máxima	21.4
73803	7	Sololá	702	San José Chacayá	5	Chacayá	1	Enero	2023-01-20T00:00:00	2024-11-06T10:00:00	3	Temperatura mínima	19.8
73804	7	Sololá	702	San José Chacayá	5	Chacayá	1	Enero	2023-01-20T00:00:00	2024-11-06T10:00:00	5	Humedad	41
73805	7	Sololá	702	San José Chacayá	5	Chacayá	1	Enero	2023-01-20T00:00:00	2024-11-06T10:00:00	6	Velocidad del viento	6.4
73806	7	Sololá	702	San José Chacayá	5	Chacayá	1	Enero	2023-01-20T00:00:00	2024-11-06T10:00:00	7	Dirección del viento	6.44
73807	7	Sololá	702	San José Chacayá	5	Chacayá	1	Enero	2023-01-20T00:00:00	2024-11-06T10:00:00	1	Precipitación	0
73808	7	Sololá	702	San José Chacayá	5	Chacayá	1	Enero	2023-01-20T00:00:00	2024-11-06T10:00:00	8	Radiación solar	596
73809	7	Sololá	702	San José Chacayá	5	Chacayá	1	Enero	2023-01-20T00:00:00	2024-11-06T11:00:00	2	Temperatura media	21.9
73810	7	Sololá	702	San José Chacayá	5	Chacayá	1	Enero	2023-01-20T00:00:00	2024-11-06T11:00:00	4	Temperatura máxima	22.1
73811	7	Sololá	702	San José Chacayá	5	Chacayá	1	Enero	2023-01-20T00:00:00	2024-11-06T11:00:00	3	Temperatura mínima	21.2
73812	7	Sololá	702	San José Chacayá	5	Chacayá	1	Enero	2023-01-20T00:00:00	2024-11-06T11:00:00	5	Humedad	38
73813	7	Sololá	702	San José Chacayá	5	Chacayá	1	Enero	2023-01-20T00:00:00	2024-11-06T11:00:00	6	Velocidad del viento	6.4
73814	7	Sololá	702	San José Chacayá	5	Chacayá	1	Enero	2023-01-20T00:00:00	2024-11-06T11:00:00	7	Dirección del viento	6.44
73815	7	Sololá	702	San José Chacayá	5	Chacayá	1	Enero	2023-01-20T00:00:00	2024-11-06T11:00:00	1	Precipitación	0
73816	7	Sololá	702	San José Chacayá	5	Chacayá	1	Enero	2023-01-20T00:00:00	2024-11-06T11:00:00	8	Radiación solar	754
73817	7	Sololá	702	San José Chacayá	5	Chacayá	1	Enero	2023-01-20T00:00:00	2024-11-06T12:00:00	2	Temperatura media	21.6
73818	7	Sololá	702	San José Chacayá	5	Chacayá	1	Enero	2023-01-20T00:00:00	2024-11-06T12:00:00	4	Temperatura máxima	22.2
73819	7	Sololá	702	San José Chacayá	5	Chacayá	1	Enero	2023-01-20T00:00:00	2024-11-06T12:00:00	3	Temperatura mínima	21.6
73820	7	Sololá	702	San José Chacayá	5	Chacayá	1	Enero	2023-01-20T00:00:00	2024-11-06T12:00:00	5	Humedad	39
73821	7	Sololá	702	San José Chacayá	5	Chacayá	1	Enero	2023-01-20T00:00:00	2024-11-06T12:00:00	6	Velocidad del viento	9.7
73822	7	Sololá	702	San José Chacayá	5	Chacayá	1	Enero	2023-01-20T00:00:00	2024-11-06T12:00:00	7	Dirección del viento	9.66
73823	7	Sololá	702	San José Chacayá	5	Chacayá	1	Enero	2023-01-20T00:00:00	2024-11-06T12:00:00	1	Precipitación	0
73824	7	Sololá	702	San José Chacayá	5	Chacayá	1	Enero	2023-01-20T00:00:00	2024-11-06T12:00:00	8	Radiación solar	842
73825	7	Sololá	702	San José Chacayá	5	Chacayá	1	Enero	2023-01-20T00:00:00	2024-11-06T13:00:00	2	Temperatura media	20.3
73826	7	Sololá	702	San José Chacayá	5	Chacayá	1	Enero	2023-01-20T00:00:00	2024-11-06T13:00:00	4	Temperatura máxima	21.7
73827	7	Sololá	702	San José Chacayá	5	Chacayá	1	Enero	2023-01-20T00:00:00	2024-11-06T13:00:00	3	Temperatura mínima	19.8
73828	7	Sololá	702	San José Chacayá	5	Chacayá	1	Enero	2023-01-20T00:00:00	2024-11-06T13:00:00	5	Humedad	61
73829	7	Sololá	702	San José Chacayá	5	Chacayá	1	Enero	2023-01-20T00:00:00	2024-11-06T13:00:00	6	Velocidad del viento	11.3
73830	7	Sololá	702	San José Chacayá	5	Chacayá	1	Enero	2023-01-20T00:00:00	2024-11-06T13:00:00	7	Dirección del viento	11.27
73831	7	Sololá	702	San José Chacayá	5	Chacayá	1	Enero	2023-01-20T00:00:00	2024-11-06T13:00:00	1	Precipitación	0
73832	7	Sololá	702	San José Chacayá	5	Chacayá	1	Enero	2023-01-20T00:00:00	2024-11-06T13:00:00	8	Radiación solar	856
73833	7	Sololá	702	San José Chacayá	5	Chacayá	1	Enero	2023-01-20T00:00:00	2024-11-06T14:00:00	2	Temperatura media	19.8
73834	7	Sololá	702	San José Chacayá	5	Chacayá	1	Enero	2023-01-20T00:00:00	2024-11-06T14:00:00	4	Temperatura máxima	20.8
73835	7	Sololá	702	San José Chacayá	5	Chacayá	1	Enero	2023-01-20T00:00:00	2024-11-06T14:00:00	3	Temperatura mínima	19.8
73836	7	Sololá	702	San José Chacayá	5	Chacayá	1	Enero	2023-01-20T00:00:00	2024-11-06T14:00:00	5	Humedad	66
73837	7	Sololá	702	San José Chacayá	5	Chacayá	1	Enero	2023-01-20T00:00:00	2024-11-06T14:00:00	6	Velocidad del viento	4.8
73838	7	Sololá	702	San José Chacayá	5	Chacayá	1	Enero	2023-01-20T00:00:00	2024-11-06T14:00:00	7	Dirección del viento	4.83
73839	7	Sololá	702	San José Chacayá	5	Chacayá	1	Enero	2023-01-20T00:00:00	2024-11-06T14:00:00	1	Precipitación	0
73840	7	Sololá	702	San José Chacayá	5	Chacayá	1	Enero	2023-01-20T00:00:00	2024-11-06T14:00:00	8	Radiación solar	799
73841	7	Sololá	702	San José Chacayá	5	Chacayá	1	Enero	2023-01-20T00:00:00	2024-11-06T15:00:00	2	Temperatura media	19.2
73842	7	Sololá	702	San José Chacayá	5	Chacayá	1	Enero	2023-01-20T00:00:00	2024-11-06T15:00:00	4	Temperatura máxima	20.1
73843	7	Sololá	702	San José Chacayá	5	Chacayá	1	Enero	2023-01-20T00:00:00	2024-11-06T15:00:00	3	Temperatura mínima	19.2
73844	7	Sololá	702	San José Chacayá	5	Chacayá	1	Enero	2023-01-20T00:00:00	2024-11-06T15:00:00	5	Humedad	70
73845	7	Sololá	702	San José Chacayá	5	Chacayá	1	Enero	2023-01-20T00:00:00	2024-11-06T15:00:00	6	Velocidad del viento	3.2
73846	7	Sololá	702	San José Chacayá	5	Chacayá	1	Enero	2023-01-20T00:00:00	2024-11-06T15:00:00	7	Dirección del viento	3.22
73847	7	Sololá	702	San José Chacayá	5	Chacayá	1	Enero	2023-01-20T00:00:00	2024-11-06T15:00:00	1	Precipitación	0
73848	7	Sololá	702	San José Chacayá	5	Chacayá	1	Enero	2023-01-20T00:00:00	2024-11-06T15:00:00	8	Radiación solar	714
73849	7	Sololá	702	San José Chacayá	5	Chacayá	1	Enero	2023-01-20T00:00:00	2024-11-06T16:00:00	2	Temperatura media	16.6
73850	7	Sololá	702	San José Chacayá	5	Chacayá	1	Enero	2023-01-20T00:00:00	2024-11-06T16:00:00	4	Temperatura máxima	19.3
73851	7	Sololá	702	San José Chacayá	5	Chacayá	1	Enero	2023-01-20T00:00:00	2024-11-06T16:00:00	3	Temperatura mínima	16.6
73852	7	Sololá	702	San José Chacayá	5	Chacayá	1	Enero	2023-01-20T00:00:00	2024-11-06T16:00:00	5	Humedad	81
73853	7	Sololá	702	San José Chacayá	5	Chacayá	1	Enero	2023-01-20T00:00:00	2024-11-06T16:00:00	6	Velocidad del viento	3.2
73854	7	Sololá	702	San José Chacayá	5	Chacayá	1	Enero	2023-01-20T00:00:00	2024-11-06T16:00:00	7	Dirección del viento	3.22
73855	7	Sololá	702	San José Chacayá	5	Chacayá	1	Enero	2023-01-20T00:00:00	2024-11-06T16:00:00	1	Precipitación	0
73856	7	Sololá	702	San José Chacayá	5	Chacayá	1	Enero	2023-01-20T00:00:00	2024-11-06T16:00:00	8	Radiación solar	582
73857	7	Sololá	702	San José Chacayá	5	Chacayá	1	Enero	2023-01-20T00:00:00	2024-11-06T17:00:00	2	Temperatura media	14
73858	7	Sololá	702	San José Chacayá	5	Chacayá	1	Enero	2023-01-20T00:00:00	2024-11-06T17:00:00	4	Temperatura máxima	16.5
73859	7	Sololá	702	San José Chacayá	5	Chacayá	1	Enero	2023-01-20T00:00:00	2024-11-06T17:00:00	3	Temperatura mínima	14
73860	7	Sololá	702	San José Chacayá	5	Chacayá	1	Enero	2023-01-20T00:00:00	2024-11-06T17:00:00	5	Humedad	89
73861	7	Sololá	702	San José Chacayá	5	Chacayá	1	Enero	2023-01-20T00:00:00	2024-11-06T17:00:00	6	Velocidad del viento	0
73862	7	Sololá	702	San José Chacayá	5	Chacayá	1	Enero	2023-01-20T00:00:00	2024-11-06T17:00:00	7	Dirección del viento	0
73863	7	Sololá	702	San José Chacayá	5	Chacayá	1	Enero	2023-01-20T00:00:00	2024-11-06T17:00:00	1	Precipitación	0
73864	7	Sololá	702	San José Chacayá	5	Chacayá	1	Enero	2023-01-20T00:00:00	2024-11-06T17:00:00	8	Radiación solar	97
73865	7	Sololá	702	San José Chacayá	5	Chacayá	1	Enero	2023-01-20T00:00:00	2024-11-06T18:00:00	2	Temperatura media	11.8
73866	7	Sololá	702	San José Chacayá	5	Chacayá	1	Enero	2023-01-20T00:00:00	2024-11-06T18:00:00	4	Temperatura máxima	14
73867	7	Sololá	702	San José Chacayá	5	Chacayá	1	Enero	2023-01-20T00:00:00	2024-11-06T18:00:00	3	Temperatura mínima	11.8
73868	7	Sololá	702	San José Chacayá	5	Chacayá	1	Enero	2023-01-20T00:00:00	2024-11-06T18:00:00	5	Humedad	84
73869	7	Sololá	702	San José Chacayá	5	Chacayá	1	Enero	2023-01-20T00:00:00	2024-11-06T18:00:00	6	Velocidad del viento	0
73870	7	Sololá	702	San José Chacayá	5	Chacayá	1	Enero	2023-01-20T00:00:00	2024-11-06T18:00:00	7	Dirección del viento	0
73871	7	Sololá	702	San José Chacayá	5	Chacayá	1	Enero	2023-01-20T00:00:00	2024-11-06T18:00:00	1	Precipitación	0
73872	7	Sololá	702	San José Chacayá	5	Chacayá	1	Enero	2023-01-20T00:00:00	2024-11-06T18:00:00	8	Radiación solar	18
73873	7	Sololá	702	San José Chacayá	5	Chacayá	1	Enero	2023-01-20T00:00:00	2024-11-06T19:00:00	2	Temperatura media	10.7
73874	7	Sololá	702	San José Chacayá	5	Chacayá	1	Enero	2023-01-20T00:00:00	2024-11-06T19:00:00	4	Temperatura máxima	11.8
73875	7	Sololá	702	San José Chacayá	5	Chacayá	1	Enero	2023-01-20T00:00:00	2024-11-06T19:00:00	3	Temperatura mínima	10.7
73876	7	Sololá	702	San José Chacayá	5	Chacayá	1	Enero	2023-01-20T00:00:00	2024-11-06T19:00:00	5	Humedad	85
73877	7	Sololá	702	San José Chacayá	5	Chacayá	1	Enero	2023-01-20T00:00:00	2024-11-06T19:00:00	6	Velocidad del viento	1.6
73878	7	Sololá	702	San José Chacayá	5	Chacayá	1	Enero	2023-01-20T00:00:00	2024-11-06T19:00:00	7	Dirección del viento	1.61
73879	7	Sololá	702	San José Chacayá	5	Chacayá	1	Enero	2023-01-20T00:00:00	2024-11-06T19:00:00	1	Precipitación	0
73880	7	Sololá	702	San José Chacayá	5	Chacayá	1	Enero	2023-01-20T00:00:00	2024-11-06T19:00:00	8	Radiación solar	0
73881	7	Sololá	702	San José Chacayá	5	Chacayá	1	Enero	2023-01-20T00:00:00	2024-11-06T20:00:00	2	Temperatura media	12.1
73882	7	Sololá	702	San José Chacayá	5	Chacayá	1	Enero	2023-01-20T00:00:00	2024-11-06T20:00:00	4	Temperatura máxima	12.4
73883	7	Sololá	702	San José Chacayá	5	Chacayá	1	Enero	2023-01-20T00:00:00	2024-11-06T20:00:00	3	Temperatura mínima	10.6
73884	7	Sololá	702	San José Chacayá	5	Chacayá	1	Enero	2023-01-20T00:00:00	2024-11-06T20:00:00	5	Humedad	86
73885	7	Sololá	702	San José Chacayá	5	Chacayá	1	Enero	2023-01-20T00:00:00	2024-11-06T20:00:00	6	Velocidad del viento	1.6
73886	7	Sololá	702	San José Chacayá	5	Chacayá	1	Enero	2023-01-20T00:00:00	2024-11-06T20:00:00	7	Dirección del viento	1.61
73887	7	Sololá	702	San José Chacayá	5	Chacayá	1	Enero	2023-01-20T00:00:00	2024-11-06T20:00:00	1	Precipitación	0
73888	7	Sololá	702	San José Chacayá	5	Chacayá	1	Enero	2023-01-20T00:00:00	2024-11-06T20:00:00	8	Radiación solar	0
73889	7	Sololá	702	San José Chacayá	5	Chacayá	1	Enero	2023-01-20T00:00:00	2024-11-06T21:00:00	2	Temperatura media	11.1
73890	7	Sololá	702	San José Chacayá	5	Chacayá	1	Enero	2023-01-20T00:00:00	2024-11-06T21:00:00	4	Temperatura máxima	12.6
73891	7	Sololá	702	San José Chacayá	5	Chacayá	1	Enero	2023-01-20T00:00:00	2024-11-06T21:00:00	3	Temperatura mínima	11.1
73892	7	Sololá	702	San José Chacayá	5	Chacayá	1	Enero	2023-01-20T00:00:00	2024-11-06T21:00:00	5	Humedad	86
73893	7	Sololá	702	San José Chacayá	5	Chacayá	1	Enero	2023-01-20T00:00:00	2024-11-06T21:00:00	6	Velocidad del viento	1.6
73894	7	Sololá	702	San José Chacayá	5	Chacayá	1	Enero	2023-01-20T00:00:00	2024-11-06T21:00:00	7	Dirección del viento	1.61
73895	7	Sololá	702	San José Chacayá	5	Chacayá	1	Enero	2023-01-20T00:00:00	2024-11-06T21:00:00	1	Precipitación	0
73896	7	Sololá	702	San José Chacayá	5	Chacayá	1	Enero	2023-01-20T00:00:00	2024-11-06T21:00:00	8	Radiación solar	0
73897	7	Sololá	702	San José Chacayá	5	Chacayá	1	Enero	2023-01-20T00:00:00	2024-11-06T22:00:00	2	Temperatura media	10.8
73898	7	Sololá	702	San José Chacayá	5	Chacayá	1	Enero	2023-01-20T00:00:00	2024-11-06T22:00:00	4	Temperatura máxima	11.3
73899	7	Sololá	702	San José Chacayá	5	Chacayá	1	Enero	2023-01-20T00:00:00	2024-11-06T22:00:00	3	Temperatura mínima	10.8
73900	7	Sololá	702	San José Chacayá	5	Chacayá	1	Enero	2023-01-20T00:00:00	2024-11-06T22:00:00	5	Humedad	87
73901	7	Sololá	702	San José Chacayá	5	Chacayá	1	Enero	2023-01-20T00:00:00	2024-11-06T22:00:00	6	Velocidad del viento	1.6
73902	7	Sololá	702	San José Chacayá	5	Chacayá	1	Enero	2023-01-20T00:00:00	2024-11-06T22:00:00	7	Dirección del viento	1.61
73903	7	Sololá	702	San José Chacayá	5	Chacayá	1	Enero	2023-01-20T00:00:00	2024-11-06T22:00:00	1	Precipitación	0
73904	7	Sololá	702	San José Chacayá	5	Chacayá	1	Enero	2023-01-20T00:00:00	2024-11-06T22:00:00	8	Radiación solar	0
73905	7	Sololá	702	San José Chacayá	5	Chacayá	1	Enero	2023-01-20T00:00:00	2024-11-06T23:00:00	2	Temperatura media	9.6
73906	7	Sololá	702	San José Chacayá	5	Chacayá	1	Enero	2023-01-20T00:00:00	2024-11-06T23:00:00	4	Temperatura máxima	10.8
73907	7	Sololá	702	San José Chacayá	5	Chacayá	1	Enero	2023-01-20T00:00:00	2024-11-06T23:00:00	3	Temperatura mínima	9.6
73908	7	Sololá	702	San José Chacayá	5	Chacayá	1	Enero	2023-01-20T00:00:00	2024-11-06T23:00:00	5	Humedad	87
73909	7	Sololá	702	San José Chacayá	5	Chacayá	1	Enero	2023-01-20T00:00:00	2024-11-06T23:00:00	6	Velocidad del viento	1.6
73910	7	Sololá	702	San José Chacayá	5	Chacayá	1	Enero	2023-01-20T00:00:00	2024-11-06T23:00:00	7	Dirección del viento	1.61
73911	7	Sololá	702	San José Chacayá	5	Chacayá	1	Enero	2023-01-20T00:00:00	2024-11-06T23:00:00	1	Precipitación	0
73912	7	Sololá	702	San José Chacayá	5	Chacayá	1	Enero	2023-01-20T00:00:00	2024-11-06T23:00:00	8	Radiación solar	0
73913	7	Sololá	702	San José Chacayá	5	Chacayá	1	Enero	2023-01-21T00:00:00	2024-11-06T00:00:00	2	Temperatura media	8.3
73914	7	Sololá	702	San José Chacayá	5	Chacayá	1	Enero	2023-01-21T00:00:00	2024-11-06T00:00:00	4	Temperatura máxima	9.6
73915	7	Sololá	702	San José Chacayá	5	Chacayá	1	Enero	2023-01-21T00:00:00	2024-11-06T00:00:00	3	Temperatura mínima	8.3
73916	7	Sololá	702	San José Chacayá	5	Chacayá	1	Enero	2023-01-21T00:00:00	2024-11-06T00:00:00	5	Humedad	91
73917	7	Sololá	702	San José Chacayá	5	Chacayá	1	Enero	2023-01-21T00:00:00	2024-11-06T00:00:00	6	Velocidad del viento	1.6
73918	7	Sololá	702	San José Chacayá	5	Chacayá	1	Enero	2023-01-21T00:00:00	2024-11-06T00:00:00	7	Dirección del viento	1.61
73919	7	Sololá	702	San José Chacayá	5	Chacayá	1	Enero	2023-01-21T00:00:00	2024-11-06T00:00:00	1	Precipitación	0
73920	7	Sololá	702	San José Chacayá	5	Chacayá	1	Enero	2023-01-21T00:00:00	2024-11-06T00:00:00	8	Radiación solar	0
73921	7	Sololá	702	San José Chacayá	5	Chacayá	1	Enero	2023-01-21T00:00:00	2024-11-06T01:00:00	2	Temperatura media	7.9
73922	7	Sololá	702	San José Chacayá	5	Chacayá	1	Enero	2023-01-21T00:00:00	2024-11-06T01:00:00	4	Temperatura máxima	8.3
73923	7	Sololá	702	San José Chacayá	5	Chacayá	1	Enero	2023-01-21T00:00:00	2024-11-06T01:00:00	3	Temperatura mínima	7.9
73924	7	Sololá	702	San José Chacayá	5	Chacayá	1	Enero	2023-01-21T00:00:00	2024-11-06T01:00:00	5	Humedad	91
73925	7	Sololá	702	San José Chacayá	5	Chacayá	1	Enero	2023-01-21T00:00:00	2024-11-06T01:00:00	6	Velocidad del viento	1.6
73926	7	Sololá	702	San José Chacayá	5	Chacayá	1	Enero	2023-01-21T00:00:00	2024-11-06T01:00:00	7	Dirección del viento	1.61
73927	7	Sololá	702	San José Chacayá	5	Chacayá	1	Enero	2023-01-21T00:00:00	2024-11-06T01:00:00	1	Precipitación	0
73928	7	Sololá	702	San José Chacayá	5	Chacayá	1	Enero	2023-01-21T00:00:00	2024-11-06T01:00:00	8	Radiación solar	0
73929	7	Sololá	702	San José Chacayá	5	Chacayá	1	Enero	2023-01-21T00:00:00	2024-11-06T02:00:00	2	Temperatura media	7.4
73930	7	Sololá	702	San José Chacayá	5	Chacayá	1	Enero	2023-01-21T00:00:00	2024-11-06T02:00:00	4	Temperatura máxima	7.9
73931	7	Sololá	702	San José Chacayá	5	Chacayá	1	Enero	2023-01-21T00:00:00	2024-11-06T02:00:00	3	Temperatura mínima	7.4
73932	7	Sololá	702	San José Chacayá	5	Chacayá	1	Enero	2023-01-21T00:00:00	2024-11-06T02:00:00	5	Humedad	92
73933	7	Sololá	702	San José Chacayá	5	Chacayá	1	Enero	2023-01-21T00:00:00	2024-11-06T02:00:00	6	Velocidad del viento	1.6
73934	7	Sololá	702	San José Chacayá	5	Chacayá	1	Enero	2023-01-21T00:00:00	2024-11-06T02:00:00	7	Dirección del viento	1.61
73935	7	Sololá	702	San José Chacayá	5	Chacayá	1	Enero	2023-01-21T00:00:00	2024-11-06T02:00:00	1	Precipitación	0
73936	7	Sololá	702	San José Chacayá	5	Chacayá	1	Enero	2023-01-21T00:00:00	2024-11-06T02:00:00	8	Radiación solar	0
73937	7	Sololá	702	San José Chacayá	5	Chacayá	1	Enero	2023-01-21T00:00:00	2024-11-06T03:00:00	2	Temperatura media	7.2
73938	7	Sololá	702	San José Chacayá	5	Chacayá	1	Enero	2023-01-21T00:00:00	2024-11-06T03:00:00	4	Temperatura máxima	7.4
73939	7	Sololá	702	San José Chacayá	5	Chacayá	1	Enero	2023-01-21T00:00:00	2024-11-06T03:00:00	3	Temperatura mínima	7.2
73940	7	Sololá	702	San José Chacayá	5	Chacayá	1	Enero	2023-01-21T00:00:00	2024-11-06T03:00:00	5	Humedad	92
73941	7	Sololá	702	San José Chacayá	5	Chacayá	1	Enero	2023-01-21T00:00:00	2024-11-06T03:00:00	6	Velocidad del viento	1.6
73942	7	Sololá	702	San José Chacayá	5	Chacayá	1	Enero	2023-01-21T00:00:00	2024-11-06T03:00:00	7	Dirección del viento	1.61
73943	7	Sololá	702	San José Chacayá	5	Chacayá	1	Enero	2023-01-21T00:00:00	2024-11-06T03:00:00	1	Precipitación	0
73944	7	Sololá	702	San José Chacayá	5	Chacayá	1	Enero	2023-01-21T00:00:00	2024-11-06T03:00:00	8	Radiación solar	0
73945	7	Sololá	702	San José Chacayá	5	Chacayá	1	Enero	2023-01-21T00:00:00	2024-11-06T04:00:00	2	Temperatura media	7.2
73946	7	Sololá	702	San José Chacayá	5	Chacayá	1	Enero	2023-01-21T00:00:00	2024-11-06T04:00:00	4	Temperatura máxima	7.6
73947	7	Sololá	702	San José Chacayá	5	Chacayá	1	Enero	2023-01-21T00:00:00	2024-11-06T04:00:00	3	Temperatura mínima	7.1
73948	7	Sololá	702	San José Chacayá	5	Chacayá	1	Enero	2023-01-21T00:00:00	2024-11-06T04:00:00	5	Humedad	91
73949	7	Sololá	702	San José Chacayá	5	Chacayá	1	Enero	2023-01-21T00:00:00	2024-11-06T04:00:00	6	Velocidad del viento	1.6
73950	7	Sololá	702	San José Chacayá	5	Chacayá	1	Enero	2023-01-21T00:00:00	2024-11-06T04:00:00	7	Dirección del viento	1.61
73951	7	Sololá	702	San José Chacayá	5	Chacayá	1	Enero	2023-01-21T00:00:00	2024-11-06T04:00:00	1	Precipitación	0
73952	7	Sololá	702	San José Chacayá	5	Chacayá	1	Enero	2023-01-21T00:00:00	2024-11-06T04:00:00	8	Radiación solar	0
73953	7	Sololá	702	San José Chacayá	5	Chacayá	1	Enero	2023-01-21T00:00:00	2024-11-06T05:00:00	2	Temperatura media	6.4
73954	7	Sololá	702	San José Chacayá	5	Chacayá	1	Enero	2023-01-21T00:00:00	2024-11-06T05:00:00	4	Temperatura máxima	7.1
73955	7	Sololá	702	San José Chacayá	5	Chacayá	1	Enero	2023-01-21T00:00:00	2024-11-06T05:00:00	3	Temperatura mínima	6.4
73956	7	Sololá	702	San José Chacayá	5	Chacayá	1	Enero	2023-01-21T00:00:00	2024-11-06T05:00:00	5	Humedad	93
73957	7	Sololá	702	San José Chacayá	5	Chacayá	1	Enero	2023-01-21T00:00:00	2024-11-06T05:00:00	6	Velocidad del viento	1.6
73958	7	Sololá	702	San José Chacayá	5	Chacayá	1	Enero	2023-01-21T00:00:00	2024-11-06T05:00:00	7	Dirección del viento	1.61
73959	7	Sololá	702	San José Chacayá	5	Chacayá	1	Enero	2023-01-21T00:00:00	2024-11-06T05:00:00	1	Precipitación	0
73960	7	Sololá	702	San José Chacayá	5	Chacayá	1	Enero	2023-01-21T00:00:00	2024-11-06T05:00:00	8	Radiación solar	0
73961	7	Sololá	702	San José Chacayá	5	Chacayá	1	Enero	2023-01-21T00:00:00	2024-11-06T06:00:00	2	Temperatura media	7.3
73962	7	Sololá	702	San José Chacayá	5	Chacayá	1	Enero	2023-01-21T00:00:00	2024-11-06T06:00:00	4	Temperatura máxima	7.3
73963	7	Sololá	702	San José Chacayá	5	Chacayá	1	Enero	2023-01-21T00:00:00	2024-11-06T06:00:00	3	Temperatura mínima	6.3
73964	7	Sololá	702	San José Chacayá	5	Chacayá	1	Enero	2023-01-21T00:00:00	2024-11-06T06:00:00	5	Humedad	92
73965	7	Sololá	702	San José Chacayá	5	Chacayá	1	Enero	2023-01-21T00:00:00	2024-11-06T06:00:00	6	Velocidad del viento	1.6
73966	7	Sololá	702	San José Chacayá	5	Chacayá	1	Enero	2023-01-21T00:00:00	2024-11-06T06:00:00	7	Dirección del viento	1.61
73967	7	Sololá	702	San José Chacayá	5	Chacayá	1	Enero	2023-01-21T00:00:00	2024-11-06T06:00:00	1	Precipitación	0
73968	7	Sololá	702	San José Chacayá	5	Chacayá	1	Enero	2023-01-21T00:00:00	2024-11-06T06:00:00	8	Radiación solar	0
73969	7	Sololá	702	San José Chacayá	5	Chacayá	1	Enero	2023-01-21T00:00:00	2024-11-06T07:00:00	2	Temperatura media	11.9
73970	7	Sololá	702	San José Chacayá	5	Chacayá	1	Enero	2023-01-21T00:00:00	2024-11-06T07:00:00	4	Temperatura máxima	11.9
73971	7	Sololá	702	San José Chacayá	5	Chacayá	1	Enero	2023-01-21T00:00:00	2024-11-06T07:00:00	3	Temperatura mínima	7.3
73972	7	Sololá	702	San José Chacayá	5	Chacayá	1	Enero	2023-01-21T00:00:00	2024-11-06T07:00:00	5	Humedad	83
73973	7	Sololá	702	San José Chacayá	5	Chacayá	1	Enero	2023-01-21T00:00:00	2024-11-06T07:00:00	6	Velocidad del viento	3.2
73974	7	Sololá	702	San José Chacayá	5	Chacayá	1	Enero	2023-01-21T00:00:00	2024-11-06T07:00:00	7	Dirección del viento	3.22
73975	7	Sololá	702	San José Chacayá	5	Chacayá	1	Enero	2023-01-21T00:00:00	2024-11-06T07:00:00	1	Precipitación	0
73976	7	Sololá	702	San José Chacayá	5	Chacayá	1	Enero	2023-01-21T00:00:00	2024-11-06T07:00:00	8	Radiación solar	7
73977	7	Sololá	702	San José Chacayá	5	Chacayá	1	Enero	2023-01-21T00:00:00	2024-11-06T08:00:00	2	Temperatura media	17.9
73978	7	Sololá	702	San José Chacayá	5	Chacayá	1	Enero	2023-01-21T00:00:00	2024-11-06T08:00:00	4	Temperatura máxima	17.9
73979	7	Sololá	702	San José Chacayá	5	Chacayá	1	Enero	2023-01-21T00:00:00	2024-11-06T08:00:00	3	Temperatura mínima	11.9
73980	7	Sololá	702	San José Chacayá	5	Chacayá	1	Enero	2023-01-21T00:00:00	2024-11-06T08:00:00	5	Humedad	63
73981	7	Sololá	702	San José Chacayá	5	Chacayá	1	Enero	2023-01-21T00:00:00	2024-11-06T08:00:00	6	Velocidad del viento	1.6
73982	7	Sololá	702	San José Chacayá	5	Chacayá	1	Enero	2023-01-21T00:00:00	2024-11-06T08:00:00	7	Dirección del viento	1.61
73983	7	Sololá	702	San José Chacayá	5	Chacayá	1	Enero	2023-01-21T00:00:00	2024-11-06T08:00:00	1	Precipitación	0
73984	7	Sololá	702	San José Chacayá	5	Chacayá	1	Enero	2023-01-21T00:00:00	2024-11-06T08:00:00	8	Radiación solar	179
73985	7	Sololá	702	San José Chacayá	5	Chacayá	1	Enero	2023-01-21T00:00:00	2024-11-06T09:00:00	2	Temperatura media	19.1
73986	7	Sololá	702	San José Chacayá	5	Chacayá	1	Enero	2023-01-21T00:00:00	2024-11-06T09:00:00	4	Temperatura máxima	19.1
73987	7	Sololá	702	San José Chacayá	5	Chacayá	1	Enero	2023-01-21T00:00:00	2024-11-06T09:00:00	3	Temperatura mínima	17.9
73988	7	Sololá	702	San José Chacayá	5	Chacayá	1	Enero	2023-01-21T00:00:00	2024-11-06T09:00:00	5	Humedad	62
73989	7	Sololá	702	San José Chacayá	5	Chacayá	1	Enero	2023-01-21T00:00:00	2024-11-06T09:00:00	6	Velocidad del viento	3.2
73990	7	Sololá	702	San José Chacayá	5	Chacayá	1	Enero	2023-01-21T00:00:00	2024-11-06T09:00:00	7	Dirección del viento	3.22
73991	7	Sololá	702	San José Chacayá	5	Chacayá	1	Enero	2023-01-21T00:00:00	2024-11-06T09:00:00	1	Precipitación	0
73992	7	Sololá	702	San José Chacayá	5	Chacayá	1	Enero	2023-01-21T00:00:00	2024-11-06T09:00:00	8	Radiación solar	405
73993	7	Sololá	702	San José Chacayá	5	Chacayá	1	Enero	2023-01-21T00:00:00	2024-11-06T10:00:00	2	Temperatura media	20.9
73994	7	Sololá	702	San José Chacayá	5	Chacayá	1	Enero	2023-01-21T00:00:00	2024-11-06T10:00:00	4	Temperatura máxima	20.9
73995	7	Sololá	702	San José Chacayá	5	Chacayá	1	Enero	2023-01-21T00:00:00	2024-11-06T10:00:00	3	Temperatura mínima	19.1
73996	7	Sololá	702	San José Chacayá	5	Chacayá	1	Enero	2023-01-21T00:00:00	2024-11-06T10:00:00	5	Humedad	51
73997	7	Sololá	702	San José Chacayá	5	Chacayá	1	Enero	2023-01-21T00:00:00	2024-11-06T10:00:00	6	Velocidad del viento	3.2
73998	7	Sololá	702	San José Chacayá	5	Chacayá	1	Enero	2023-01-21T00:00:00	2024-11-06T10:00:00	7	Dirección del viento	3.22
73999	7	Sololá	702	San José Chacayá	5	Chacayá	1	Enero	2023-01-21T00:00:00	2024-11-06T10:00:00	1	Precipitación	0
74000	7	Sololá	702	San José Chacayá	5	Chacayá	1	Enero	2023-01-21T00:00:00	2024-11-06T10:00:00	8	Radiación solar	122
74001	7	Sololá	702	San José Chacayá	5	Chacayá	1	Enero	2023-01-21T00:00:00	2024-11-06T11:00:00	2	Temperatura media	21.6
74002	7	Sololá	702	San José Chacayá	5	Chacayá	1	Enero	2023-01-21T00:00:00	2024-11-06T11:00:00	4	Temperatura máxima	21.8
74003	7	Sololá	702	San José Chacayá	5	Chacayá	1	Enero	2023-01-21T00:00:00	2024-11-06T11:00:00	3	Temperatura mínima	20.9
74004	7	Sololá	702	San José Chacayá	5	Chacayá	1	Enero	2023-01-21T00:00:00	2024-11-06T11:00:00	5	Humedad	58
74005	7	Sololá	702	San José Chacayá	5	Chacayá	1	Enero	2023-01-21T00:00:00	2024-11-06T11:00:00	6	Velocidad del viento	4.8
74006	7	Sololá	702	San José Chacayá	5	Chacayá	1	Enero	2023-01-21T00:00:00	2024-11-06T11:00:00	7	Dirección del viento	4.83
74007	7	Sololá	702	San José Chacayá	5	Chacayá	1	Enero	2023-01-21T00:00:00	2024-11-06T11:00:00	1	Precipitación	0
74008	7	Sololá	702	San José Chacayá	5	Chacayá	1	Enero	2023-01-21T00:00:00	2024-11-06T11:00:00	8	Radiación solar	47
74009	7	Sololá	702	San José Chacayá	5	Chacayá	1	Enero	2023-01-21T00:00:00	2024-11-06T12:00:00	2	Temperatura media	20.3
74010	7	Sololá	702	San José Chacayá	5	Chacayá	1	Enero	2023-01-21T00:00:00	2024-11-06T12:00:00	4	Temperatura máxima	21.7
74011	7	Sololá	702	San José Chacayá	5	Chacayá	1	Enero	2023-01-21T00:00:00	2024-11-06T12:00:00	3	Temperatura mínima	20.3
74012	7	Sololá	702	San José Chacayá	5	Chacayá	1	Enero	2023-01-21T00:00:00	2024-11-06T12:00:00	5	Humedad	67
74013	7	Sololá	702	San José Chacayá	5	Chacayá	1	Enero	2023-01-21T00:00:00	2024-11-06T12:00:00	6	Velocidad del viento	6.4
74014	7	Sololá	702	San José Chacayá	5	Chacayá	1	Enero	2023-01-21T00:00:00	2024-11-06T12:00:00	7	Dirección del viento	6.44
74015	7	Sololá	702	San José Chacayá	5	Chacayá	1	Enero	2023-01-21T00:00:00	2024-11-06T12:00:00	1	Precipitación	0
74016	7	Sololá	702	San José Chacayá	5	Chacayá	1	Enero	2023-01-21T00:00:00	2024-11-06T12:00:00	8	Radiación solar	672
74017	7	Sololá	702	San José Chacayá	5	Chacayá	1	Enero	2023-01-21T00:00:00	2024-11-06T13:00:00	2	Temperatura media	19.4
74018	7	Sololá	702	San José Chacayá	5	Chacayá	1	Enero	2023-01-21T00:00:00	2024-11-06T13:00:00	4	Temperatura máxima	20.3
74019	7	Sololá	702	San José Chacayá	5	Chacayá	1	Enero	2023-01-21T00:00:00	2024-11-06T13:00:00	3	Temperatura mínima	19.4
74020	7	Sololá	702	San José Chacayá	5	Chacayá	1	Enero	2023-01-21T00:00:00	2024-11-06T13:00:00	5	Humedad	68
74021	7	Sololá	702	San José Chacayá	5	Chacayá	1	Enero	2023-01-21T00:00:00	2024-11-06T13:00:00	6	Velocidad del viento	4.8
74022	7	Sololá	702	San José Chacayá	5	Chacayá	1	Enero	2023-01-21T00:00:00	2024-11-06T13:00:00	7	Dirección del viento	4.83
74023	7	Sololá	702	San José Chacayá	5	Chacayá	1	Enero	2023-01-21T00:00:00	2024-11-06T13:00:00	1	Precipitación	0
74024	7	Sololá	702	San José Chacayá	5	Chacayá	1	Enero	2023-01-21T00:00:00	2024-11-06T13:00:00	8	Radiación solar	751
74025	7	Sololá	702	San José Chacayá	5	Chacayá	1	Enero	2023-01-21T00:00:00	2024-11-06T14:00:00	2	Temperatura media	17.3
74026	7	Sololá	702	San José Chacayá	5	Chacayá	1	Enero	2023-01-21T00:00:00	2024-11-06T14:00:00	4	Temperatura máxima	19.4
74027	7	Sololá	702	San José Chacayá	5	Chacayá	1	Enero	2023-01-21T00:00:00	2024-11-06T14:00:00	3	Temperatura mínima	17.3
74028	7	Sololá	702	San José Chacayá	5	Chacayá	1	Enero	2023-01-21T00:00:00	2024-11-06T14:00:00	5	Humedad	80
74029	7	Sololá	702	San José Chacayá	5	Chacayá	1	Enero	2023-01-21T00:00:00	2024-11-06T14:00:00	6	Velocidad del viento	4.8
74030	7	Sololá	702	San José Chacayá	5	Chacayá	1	Enero	2023-01-21T00:00:00	2024-11-06T14:00:00	7	Dirección del viento	4.83
74031	7	Sololá	702	San José Chacayá	5	Chacayá	1	Enero	2023-01-21T00:00:00	2024-11-06T14:00:00	1	Precipitación	0
74032	7	Sololá	702	San José Chacayá	5	Chacayá	1	Enero	2023-01-21T00:00:00	2024-11-06T14:00:00	8	Radiación solar	775
74033	7	Sololá	702	San José Chacayá	5	Chacayá	1	Enero	2023-01-21T00:00:00	2024-11-06T15:00:00	2	Temperatura media	17.1
74034	7	Sololá	702	San José Chacayá	5	Chacayá	1	Enero	2023-01-21T00:00:00	2024-11-06T15:00:00	4	Temperatura máxima	17.4
74035	7	Sololá	702	San José Chacayá	5	Chacayá	1	Enero	2023-01-21T00:00:00	2024-11-06T15:00:00	3	Temperatura mínima	16.2
74036	7	Sololá	702	San José Chacayá	5	Chacayá	1	Enero	2023-01-21T00:00:00	2024-11-06T15:00:00	5	Humedad	80
74037	7	Sololá	702	San José Chacayá	5	Chacayá	1	Enero	2023-01-21T00:00:00	2024-11-06T15:00:00	6	Velocidad del viento	3.2
74038	7	Sololá	702	San José Chacayá	5	Chacayá	1	Enero	2023-01-21T00:00:00	2024-11-06T15:00:00	7	Dirección del viento	3.22
74039	7	Sololá	702	San José Chacayá	5	Chacayá	1	Enero	2023-01-21T00:00:00	2024-11-06T15:00:00	1	Precipitación	0
74040	7	Sololá	702	San José Chacayá	5	Chacayá	1	Enero	2023-01-21T00:00:00	2024-11-06T15:00:00	8	Radiación solar	653
74041	7	Sololá	702	San José Chacayá	5	Chacayá	1	Enero	2023-01-21T00:00:00	2024-11-06T16:00:00	2	Temperatura media	15.6
74042	7	Sololá	702	San José Chacayá	5	Chacayá	1	Enero	2023-01-21T00:00:00	2024-11-06T16:00:00	4	Temperatura máxima	18.1
74043	7	Sololá	702	San José Chacayá	5	Chacayá	1	Enero	2023-01-21T00:00:00	2024-11-06T16:00:00	3	Temperatura mínima	15.6
74044	7	Sololá	702	San José Chacayá	5	Chacayá	1	Enero	2023-01-21T00:00:00	2024-11-06T16:00:00	5	Humedad	84
74045	7	Sololá	702	San José Chacayá	5	Chacayá	1	Enero	2023-01-21T00:00:00	2024-11-06T16:00:00	6	Velocidad del viento	3.2
74046	7	Sololá	702	San José Chacayá	5	Chacayá	1	Enero	2023-01-21T00:00:00	2024-11-06T16:00:00	7	Dirección del viento	3.22
74047	7	Sololá	702	San José Chacayá	5	Chacayá	1	Enero	2023-01-21T00:00:00	2024-11-06T16:00:00	1	Precipitación	0
74048	7	Sololá	702	San José Chacayá	5	Chacayá	1	Enero	2023-01-21T00:00:00	2024-11-06T16:00:00	8	Radiación solar	454
74049	7	Sololá	702	San José Chacayá	5	Chacayá	1	Enero	2023-01-21T00:00:00	2024-11-06T17:00:00	2	Temperatura media	14.7
74050	7	Sololá	702	San José Chacayá	5	Chacayá	1	Enero	2023-01-21T00:00:00	2024-11-06T17:00:00	4	Temperatura máxima	15.6
74051	7	Sololá	702	San José Chacayá	5	Chacayá	1	Enero	2023-01-21T00:00:00	2024-11-06T17:00:00	3	Temperatura mínima	14.7
74052	7	Sololá	702	San José Chacayá	5	Chacayá	1	Enero	2023-01-21T00:00:00	2024-11-06T17:00:00	5	Humedad	89
74053	7	Sololá	702	San José Chacayá	5	Chacayá	1	Enero	2023-01-21T00:00:00	2024-11-06T17:00:00	6	Velocidad del viento	1.6
74054	7	Sololá	702	San José Chacayá	5	Chacayá	1	Enero	2023-01-21T00:00:00	2024-11-06T17:00:00	7	Dirección del viento	1.61
74055	7	Sololá	702	San José Chacayá	5	Chacayá	1	Enero	2023-01-21T00:00:00	2024-11-06T17:00:00	1	Precipitación	0
74056	7	Sololá	702	San José Chacayá	5	Chacayá	1	Enero	2023-01-21T00:00:00	2024-11-06T17:00:00	8	Radiación solar	199
74057	7	Sololá	702	San José Chacayá	5	Chacayá	1	Enero	2023-01-21T00:00:00	2024-11-06T18:00:00	2	Temperatura media	13.8
74058	7	Sololá	702	San José Chacayá	5	Chacayá	1	Enero	2023-01-21T00:00:00	2024-11-06T18:00:00	4	Temperatura máxima	14.7
74059	7	Sololá	702	San José Chacayá	5	Chacayá	1	Enero	2023-01-21T00:00:00	2024-11-06T18:00:00	3	Temperatura mínima	13.8
74060	7	Sololá	702	San José Chacayá	5	Chacayá	1	Enero	2023-01-21T00:00:00	2024-11-06T18:00:00	5	Humedad	93
74061	7	Sololá	702	San José Chacayá	5	Chacayá	1	Enero	2023-01-21T00:00:00	2024-11-06T18:00:00	6	Velocidad del viento	0
74062	7	Sololá	702	San José Chacayá	5	Chacayá	1	Enero	2023-01-21T00:00:00	2024-11-06T18:00:00	7	Dirección del viento	0
74063	7	Sololá	702	San José Chacayá	5	Chacayá	1	Enero	2023-01-21T00:00:00	2024-11-06T18:00:00	1	Precipitación	0
74064	7	Sololá	702	San José Chacayá	5	Chacayá	1	Enero	2023-01-21T00:00:00	2024-11-06T18:00:00	8	Radiación solar	19
74065	7	Sololá	702	San José Chacayá	5	Chacayá	1	Enero	2023-01-21T00:00:00	2024-11-06T19:00:00	2	Temperatura media	12.6
74066	7	Sololá	702	San José Chacayá	5	Chacayá	1	Enero	2023-01-21T00:00:00	2024-11-06T19:00:00	4	Temperatura máxima	13.8
74067	7	Sololá	702	San José Chacayá	5	Chacayá	1	Enero	2023-01-21T00:00:00	2024-11-06T19:00:00	3	Temperatura mínima	12.6
74068	7	Sololá	702	San José Chacayá	5	Chacayá	1	Enero	2023-01-21T00:00:00	2024-11-06T19:00:00	5	Humedad	92
74069	7	Sololá	702	San José Chacayá	5	Chacayá	1	Enero	2023-01-21T00:00:00	2024-11-06T19:00:00	6	Velocidad del viento	0
74070	7	Sololá	702	San José Chacayá	5	Chacayá	1	Enero	2023-01-21T00:00:00	2024-11-06T19:00:00	7	Dirección del viento	0
74071	7	Sololá	702	San José Chacayá	5	Chacayá	1	Enero	2023-01-21T00:00:00	2024-11-06T19:00:00	1	Precipitación	0
74072	7	Sololá	702	San José Chacayá	5	Chacayá	1	Enero	2023-01-21T00:00:00	2024-11-06T19:00:00	8	Radiación solar	0
74073	7	Sololá	702	San José Chacayá	5	Chacayá	1	Enero	2023-01-21T00:00:00	2024-11-06T20:00:00	2	Temperatura media	10.8
74074	7	Sololá	702	San José Chacayá	5	Chacayá	1	Enero	2023-01-21T00:00:00	2024-11-06T20:00:00	4	Temperatura máxima	12.6
74075	7	Sololá	702	San José Chacayá	5	Chacayá	1	Enero	2023-01-21T00:00:00	2024-11-06T20:00:00	3	Temperatura mínima	10.8
74076	7	Sololá	702	San José Chacayá	5	Chacayá	1	Enero	2023-01-21T00:00:00	2024-11-06T20:00:00	5	Humedad	93
74077	7	Sololá	702	San José Chacayá	5	Chacayá	1	Enero	2023-01-21T00:00:00	2024-11-06T20:00:00	6	Velocidad del viento	1.6
74078	7	Sololá	702	San José Chacayá	5	Chacayá	1	Enero	2023-01-21T00:00:00	2024-11-06T20:00:00	7	Dirección del viento	1.61
74079	7	Sololá	702	San José Chacayá	5	Chacayá	1	Enero	2023-01-21T00:00:00	2024-11-06T20:00:00	1	Precipitación	0
74080	7	Sololá	702	San José Chacayá	5	Chacayá	1	Enero	2023-01-21T00:00:00	2024-11-06T20:00:00	8	Radiación solar	0
74081	7	Sololá	702	San José Chacayá	5	Chacayá	1	Enero	2023-01-21T00:00:00	2024-11-06T21:00:00	2	Temperatura media	10.2
74082	7	Sololá	702	San José Chacayá	5	Chacayá	1	Enero	2023-01-21T00:00:00	2024-11-06T21:00:00	4	Temperatura máxima	10.8
74083	7	Sololá	702	San José Chacayá	5	Chacayá	1	Enero	2023-01-21T00:00:00	2024-11-06T21:00:00	3	Temperatura mínima	10.2
74084	7	Sololá	702	San José Chacayá	5	Chacayá	1	Enero	2023-01-21T00:00:00	2024-11-06T21:00:00	5	Humedad	93
74085	7	Sololá	702	San José Chacayá	5	Chacayá	1	Enero	2023-01-21T00:00:00	2024-11-06T21:00:00	6	Velocidad del viento	1.6
74086	7	Sololá	702	San José Chacayá	5	Chacayá	1	Enero	2023-01-21T00:00:00	2024-11-06T21:00:00	7	Dirección del viento	1.61
74087	7	Sololá	702	San José Chacayá	5	Chacayá	1	Enero	2023-01-21T00:00:00	2024-11-06T21:00:00	1	Precipitación	0
74088	7	Sololá	702	San José Chacayá	5	Chacayá	1	Enero	2023-01-21T00:00:00	2024-11-06T21:00:00	8	Radiación solar	0
74089	7	Sololá	702	San José Chacayá	5	Chacayá	1	Enero	2023-01-21T00:00:00	2024-11-06T22:00:00	2	Temperatura media	8.8
74090	7	Sololá	702	San José Chacayá	5	Chacayá	1	Enero	2023-01-21T00:00:00	2024-11-06T22:00:00	4	Temperatura máxima	10.2
74091	7	Sololá	702	San José Chacayá	5	Chacayá	1	Enero	2023-01-21T00:00:00	2024-11-06T22:00:00	3	Temperatura mínima	8.8
74092	7	Sololá	702	San José Chacayá	5	Chacayá	1	Enero	2023-01-21T00:00:00	2024-11-06T22:00:00	5	Humedad	92
74093	7	Sololá	702	San José Chacayá	5	Chacayá	1	Enero	2023-01-21T00:00:00	2024-11-06T22:00:00	6	Velocidad del viento	1.6
74094	7	Sololá	702	San José Chacayá	5	Chacayá	1	Enero	2023-01-21T00:00:00	2024-11-06T22:00:00	7	Dirección del viento	1.61
74095	7	Sololá	702	San José Chacayá	5	Chacayá	1	Enero	2023-01-21T00:00:00	2024-11-06T22:00:00	1	Precipitación	0
74096	7	Sololá	702	San José Chacayá	5	Chacayá	1	Enero	2023-01-21T00:00:00	2024-11-06T22:00:00	8	Radiación solar	0
74097	7	Sololá	702	San José Chacayá	5	Chacayá	1	Enero	2023-01-21T00:00:00	2024-11-06T23:00:00	2	Temperatura media	8.1
74098	7	Sololá	702	San José Chacayá	5	Chacayá	1	Enero	2023-01-21T00:00:00	2024-11-06T23:00:00	4	Temperatura máxima	8.8
74099	7	Sololá	702	San José Chacayá	5	Chacayá	1	Enero	2023-01-21T00:00:00	2024-11-06T23:00:00	3	Temperatura mínima	8.1
74100	7	Sololá	702	San José Chacayá	5	Chacayá	1	Enero	2023-01-21T00:00:00	2024-11-06T23:00:00	5	Humedad	92
74101	7	Sololá	702	San José Chacayá	5	Chacayá	1	Enero	2023-01-21T00:00:00	2024-11-06T23:00:00	6	Velocidad del viento	1.6
74102	7	Sololá	702	San José Chacayá	5	Chacayá	1	Enero	2023-01-21T00:00:00	2024-11-06T23:00:00	7	Dirección del viento	1.61
74103	7	Sololá	702	San José Chacayá	5	Chacayá	1	Enero	2023-01-21T00:00:00	2024-11-06T23:00:00	1	Precipitación	0
74104	7	Sololá	702	San José Chacayá	5	Chacayá	1	Enero	2023-01-21T00:00:00	2024-11-06T23:00:00	8	Radiación solar	0
74105	7	Sololá	702	San José Chacayá	5	Chacayá	1	Enero	2023-01-22T00:00:00	2024-11-06T00:00:00	2	Temperatura media	7.3
74106	7	Sololá	702	San José Chacayá	5	Chacayá	1	Enero	2023-01-22T00:00:00	2024-11-06T00:00:00	4	Temperatura máxima	8.1
74107	7	Sololá	702	San José Chacayá	5	Chacayá	1	Enero	2023-01-22T00:00:00	2024-11-06T00:00:00	3	Temperatura mínima	7.2
74108	7	Sololá	702	San José Chacayá	5	Chacayá	1	Enero	2023-01-22T00:00:00	2024-11-06T00:00:00	5	Humedad	91
74109	7	Sololá	702	San José Chacayá	5	Chacayá	1	Enero	2023-01-22T00:00:00	2024-11-06T00:00:00	6	Velocidad del viento	1.6
74110	7	Sololá	702	San José Chacayá	5	Chacayá	1	Enero	2023-01-22T00:00:00	2024-11-06T00:00:00	7	Dirección del viento	1.61
74111	7	Sololá	702	San José Chacayá	5	Chacayá	1	Enero	2023-01-22T00:00:00	2024-11-06T00:00:00	1	Precipitación	0
74112	7	Sololá	702	San José Chacayá	5	Chacayá	1	Enero	2023-01-22T00:00:00	2024-11-06T00:00:00	8	Radiación solar	0
74113	7	Sololá	702	San José Chacayá	5	Chacayá	1	Enero	2023-01-22T00:00:00	2024-11-06T01:00:00	2	Temperatura media	6.7
74114	7	Sololá	702	San José Chacayá	5	Chacayá	1	Enero	2023-01-22T00:00:00	2024-11-06T01:00:00	4	Temperatura máxima	7.2
74115	7	Sololá	702	San José Chacayá	5	Chacayá	1	Enero	2023-01-22T00:00:00	2024-11-06T01:00:00	3	Temperatura mínima	6.7
74116	7	Sololá	702	San José Chacayá	5	Chacayá	1	Enero	2023-01-22T00:00:00	2024-11-06T01:00:00	5	Humedad	90
74117	7	Sololá	702	San José Chacayá	5	Chacayá	1	Enero	2023-01-22T00:00:00	2024-11-06T01:00:00	6	Velocidad del viento	1.6
74118	7	Sololá	702	San José Chacayá	5	Chacayá	1	Enero	2023-01-22T00:00:00	2024-11-06T01:00:00	7	Dirección del viento	1.61
74119	7	Sololá	702	San José Chacayá	5	Chacayá	1	Enero	2023-01-22T00:00:00	2024-11-06T01:00:00	1	Precipitación	0
74120	7	Sololá	702	San José Chacayá	5	Chacayá	1	Enero	2023-01-22T00:00:00	2024-11-06T01:00:00	8	Radiación solar	0
74121	7	Sololá	702	San José Chacayá	5	Chacayá	1	Enero	2023-01-22T00:00:00	2024-11-06T02:00:00	2	Temperatura media	6.6
74122	7	Sololá	702	San José Chacayá	5	Chacayá	1	Enero	2023-01-22T00:00:00	2024-11-06T02:00:00	4	Temperatura máxima	6.7
74123	7	Sololá	702	San José Chacayá	5	Chacayá	1	Enero	2023-01-22T00:00:00	2024-11-06T02:00:00	3	Temperatura mínima	6.3
74124	7	Sololá	702	San José Chacayá	5	Chacayá	1	Enero	2023-01-22T00:00:00	2024-11-06T02:00:00	5	Humedad	92
74125	7	Sololá	702	San José Chacayá	5	Chacayá	1	Enero	2023-01-22T00:00:00	2024-11-06T02:00:00	6	Velocidad del viento	1.6
74126	7	Sololá	702	San José Chacayá	5	Chacayá	1	Enero	2023-01-22T00:00:00	2024-11-06T02:00:00	7	Dirección del viento	1.61
74127	7	Sololá	702	San José Chacayá	5	Chacayá	1	Enero	2023-01-22T00:00:00	2024-11-06T02:00:00	1	Precipitación	0
74128	7	Sololá	702	San José Chacayá	5	Chacayá	1	Enero	2023-01-22T00:00:00	2024-11-06T02:00:00	8	Radiación solar	0
74129	7	Sololá	702	San José Chacayá	5	Chacayá	1	Enero	2023-01-22T00:00:00	2024-11-06T03:00:00	2	Temperatura media	6
74130	7	Sololá	702	San José Chacayá	5	Chacayá	1	Enero	2023-01-22T00:00:00	2024-11-06T03:00:00	4	Temperatura máxima	6.7
74131	7	Sololá	702	San José Chacayá	5	Chacayá	1	Enero	2023-01-22T00:00:00	2024-11-06T03:00:00	3	Temperatura mínima	5.9
74132	7	Sololá	702	San José Chacayá	5	Chacayá	1	Enero	2023-01-22T00:00:00	2024-11-06T03:00:00	5	Humedad	92
74133	7	Sololá	702	San José Chacayá	5	Chacayá	1	Enero	2023-01-22T00:00:00	2024-11-06T03:00:00	6	Velocidad del viento	3.2
74134	7	Sololá	702	San José Chacayá	5	Chacayá	1	Enero	2023-01-22T00:00:00	2024-11-06T03:00:00	7	Dirección del viento	3.22
74135	7	Sololá	702	San José Chacayá	5	Chacayá	1	Enero	2023-01-22T00:00:00	2024-11-06T03:00:00	1	Precipitación	0
74136	7	Sololá	702	San José Chacayá	5	Chacayá	1	Enero	2023-01-22T00:00:00	2024-11-06T03:00:00	8	Radiación solar	0
74137	7	Sololá	702	San José Chacayá	5	Chacayá	1	Enero	2023-01-22T00:00:00	2024-11-06T04:00:00	2	Temperatura media	5.6
74138	7	Sololá	702	San José Chacayá	5	Chacayá	1	Enero	2023-01-22T00:00:00	2024-11-06T04:00:00	4	Temperatura máxima	6.1
74139	7	Sololá	702	San José Chacayá	5	Chacayá	1	Enero	2023-01-22T00:00:00	2024-11-06T04:00:00	3	Temperatura mínima	5.5
74140	7	Sololá	702	San José Chacayá	5	Chacayá	1	Enero	2023-01-22T00:00:00	2024-11-06T04:00:00	5	Humedad	92
74141	7	Sololá	702	San José Chacayá	5	Chacayá	1	Enero	2023-01-22T00:00:00	2024-11-06T04:00:00	6	Velocidad del viento	1.6
74142	7	Sololá	702	San José Chacayá	5	Chacayá	1	Enero	2023-01-22T00:00:00	2024-11-06T04:00:00	7	Dirección del viento	1.61
74143	7	Sololá	702	San José Chacayá	5	Chacayá	1	Enero	2023-01-22T00:00:00	2024-11-06T04:00:00	1	Precipitación	0
74144	7	Sololá	702	San José Chacayá	5	Chacayá	1	Enero	2023-01-22T00:00:00	2024-11-06T04:00:00	8	Radiación solar	0
74145	7	Sololá	702	San José Chacayá	5	Chacayá	1	Enero	2023-01-22T00:00:00	2024-11-06T05:00:00	2	Temperatura media	5.2
74146	7	Sololá	702	San José Chacayá	5	Chacayá	1	Enero	2023-01-22T00:00:00	2024-11-06T05:00:00	4	Temperatura máxima	5.6
74147	7	Sololá	702	San José Chacayá	5	Chacayá	1	Enero	2023-01-22T00:00:00	2024-11-06T05:00:00	3	Temperatura mínima	5.2
74148	7	Sololá	702	San José Chacayá	5	Chacayá	1	Enero	2023-01-22T00:00:00	2024-11-06T05:00:00	5	Humedad	93
74149	7	Sololá	702	San José Chacayá	5	Chacayá	1	Enero	2023-01-22T00:00:00	2024-11-06T05:00:00	6	Velocidad del viento	1.6
74150	7	Sololá	702	San José Chacayá	5	Chacayá	1	Enero	2023-01-22T00:00:00	2024-11-06T05:00:00	7	Dirección del viento	1.61
74151	7	Sololá	702	San José Chacayá	5	Chacayá	1	Enero	2023-01-22T00:00:00	2024-11-06T05:00:00	1	Precipitación	0
74152	7	Sololá	702	San José Chacayá	5	Chacayá	1	Enero	2023-01-22T00:00:00	2024-11-06T05:00:00	8	Radiación solar	0
74153	7	Sololá	702	San José Chacayá	5	Chacayá	1	Enero	2023-01-22T00:00:00	2024-11-06T06:00:00	2	Temperatura media	5.7
74154	7	Sololá	702	San José Chacayá	5	Chacayá	1	Enero	2023-01-22T00:00:00	2024-11-06T06:00:00	4	Temperatura máxima	5.7
74155	7	Sololá	702	San José Chacayá	5	Chacayá	1	Enero	2023-01-22T00:00:00	2024-11-06T06:00:00	3	Temperatura mínima	4.9
74156	7	Sololá	702	San José Chacayá	5	Chacayá	1	Enero	2023-01-22T00:00:00	2024-11-06T06:00:00	5	Humedad	90
74157	7	Sololá	702	San José Chacayá	5	Chacayá	1	Enero	2023-01-22T00:00:00	2024-11-06T06:00:00	6	Velocidad del viento	1.6
74158	7	Sololá	702	San José Chacayá	5	Chacayá	1	Enero	2023-01-22T00:00:00	2024-11-06T06:00:00	7	Dirección del viento	1.61
74159	7	Sololá	702	San José Chacayá	5	Chacayá	1	Enero	2023-01-22T00:00:00	2024-11-06T06:00:00	1	Precipitación	0
74160	7	Sololá	702	San José Chacayá	5	Chacayá	1	Enero	2023-01-22T00:00:00	2024-11-06T06:00:00	8	Radiación solar	0
74161	7	Sololá	702	San José Chacayá	5	Chacayá	1	Enero	2023-01-22T00:00:00	2024-11-06T07:00:00	2	Temperatura media	10.3
74162	7	Sololá	702	San José Chacayá	5	Chacayá	1	Enero	2023-01-22T00:00:00	2024-11-06T07:00:00	4	Temperatura máxima	10.3
74163	7	Sololá	702	San José Chacayá	5	Chacayá	1	Enero	2023-01-22T00:00:00	2024-11-06T07:00:00	3	Temperatura mínima	5.7
74164	7	Sololá	702	San José Chacayá	5	Chacayá	1	Enero	2023-01-22T00:00:00	2024-11-06T07:00:00	5	Humedad	78
74165	7	Sololá	702	San José Chacayá	5	Chacayá	1	Enero	2023-01-22T00:00:00	2024-11-06T07:00:00	6	Velocidad del viento	1.6
74166	7	Sololá	702	San José Chacayá	5	Chacayá	1	Enero	2023-01-22T00:00:00	2024-11-06T07:00:00	7	Dirección del viento	1.61
74167	7	Sololá	702	San José Chacayá	5	Chacayá	1	Enero	2023-01-22T00:00:00	2024-11-06T07:00:00	1	Precipitación	0
74168	7	Sololá	702	San José Chacayá	5	Chacayá	1	Enero	2023-01-22T00:00:00	2024-11-06T07:00:00	8	Radiación solar	10
74169	7	Sololá	702	San José Chacayá	5	Chacayá	1	Enero	2023-01-22T00:00:00	2024-11-06T08:00:00	2	Temperatura media	16.2
74170	7	Sololá	702	San José Chacayá	5	Chacayá	1	Enero	2023-01-22T00:00:00	2024-11-06T08:00:00	4	Temperatura máxima	16.2
74171	7	Sololá	702	San José Chacayá	5	Chacayá	1	Enero	2023-01-22T00:00:00	2024-11-06T08:00:00	3	Temperatura mínima	10.3
74172	7	Sololá	702	San José Chacayá	5	Chacayá	1	Enero	2023-01-22T00:00:00	2024-11-06T08:00:00	5	Humedad	61
74173	7	Sololá	702	San José Chacayá	5	Chacayá	1	Enero	2023-01-22T00:00:00	2024-11-06T08:00:00	6	Velocidad del viento	1.6
74174	7	Sololá	702	San José Chacayá	5	Chacayá	1	Enero	2023-01-22T00:00:00	2024-11-06T08:00:00	7	Dirección del viento	1.61
74175	7	Sololá	702	San José Chacayá	5	Chacayá	1	Enero	2023-01-22T00:00:00	2024-11-06T08:00:00	1	Precipitación	0
74176	7	Sololá	702	San José Chacayá	5	Chacayá	1	Enero	2023-01-22T00:00:00	2024-11-06T08:00:00	8	Radiación solar	164
74177	7	Sololá	702	San José Chacayá	5	Chacayá	1	Enero	2023-01-22T00:00:00	2024-11-06T09:00:00	2	Temperatura media	16.8
74178	7	Sololá	702	San José Chacayá	5	Chacayá	1	Enero	2023-01-22T00:00:00	2024-11-06T09:00:00	4	Temperatura máxima	16.8
74179	7	Sololá	702	San José Chacayá	5	Chacayá	1	Enero	2023-01-22T00:00:00	2024-11-06T09:00:00	3	Temperatura mínima	15.8
74180	7	Sololá	702	San José Chacayá	5	Chacayá	1	Enero	2023-01-22T00:00:00	2024-11-06T09:00:00	5	Humedad	64
74181	7	Sololá	702	San José Chacayá	5	Chacayá	1	Enero	2023-01-22T00:00:00	2024-11-06T09:00:00	6	Velocidad del viento	3.2
74182	7	Sololá	702	San José Chacayá	5	Chacayá	1	Enero	2023-01-22T00:00:00	2024-11-06T09:00:00	7	Dirección del viento	3.22
74183	7	Sololá	702	San José Chacayá	5	Chacayá	1	Enero	2023-01-22T00:00:00	2024-11-06T09:00:00	1	Precipitación	0
74184	7	Sololá	702	San José Chacayá	5	Chacayá	1	Enero	2023-01-22T00:00:00	2024-11-06T09:00:00	8	Radiación solar	386
74185	7	Sololá	702	San José Chacayá	5	Chacayá	1	Enero	2023-01-22T00:00:00	2024-11-06T10:00:00	2	Temperatura media	19.2
74186	7	Sololá	702	San José Chacayá	5	Chacayá	1	Enero	2023-01-22T00:00:00	2024-11-06T10:00:00	4	Temperatura máxima	19.6
74187	7	Sololá	702	San José Chacayá	5	Chacayá	1	Enero	2023-01-22T00:00:00	2024-11-06T10:00:00	3	Temperatura mínima	16.8
74188	7	Sololá	702	San José Chacayá	5	Chacayá	1	Enero	2023-01-22T00:00:00	2024-11-06T10:00:00	5	Humedad	22
74189	7	Sololá	702	San José Chacayá	5	Chacayá	1	Enero	2023-01-22T00:00:00	2024-11-06T10:00:00	6	Velocidad del viento	4.8
74190	7	Sololá	702	San José Chacayá	5	Chacayá	1	Enero	2023-01-22T00:00:00	2024-11-06T10:00:00	7	Dirección del viento	4.83
74191	7	Sololá	702	San José Chacayá	5	Chacayá	1	Enero	2023-01-22T00:00:00	2024-11-06T10:00:00	1	Precipitación	0
74192	7	Sololá	702	San José Chacayá	5	Chacayá	1	Enero	2023-01-22T00:00:00	2024-11-06T10:00:00	8	Radiación solar	592
74193	7	Sololá	702	San José Chacayá	5	Chacayá	1	Enero	2023-01-22T00:00:00	2024-11-06T11:00:00	2	Temperatura media	19.6
74194	7	Sololá	702	San José Chacayá	5	Chacayá	1	Enero	2023-01-22T00:00:00	2024-11-06T11:00:00	4	Temperatura máxima	20.2
74195	7	Sololá	702	San José Chacayá	5	Chacayá	1	Enero	2023-01-22T00:00:00	2024-11-06T11:00:00	3	Temperatura mínima	19.2
74196	7	Sololá	702	San José Chacayá	5	Chacayá	1	Enero	2023-01-22T00:00:00	2024-11-06T11:00:00	5	Humedad	20
74197	7	Sololá	702	San José Chacayá	5	Chacayá	1	Enero	2023-01-22T00:00:00	2024-11-06T11:00:00	6	Velocidad del viento	6.4
74198	7	Sololá	702	San José Chacayá	5	Chacayá	1	Enero	2023-01-22T00:00:00	2024-11-06T11:00:00	7	Dirección del viento	6.44
74199	7	Sololá	702	San José Chacayá	5	Chacayá	1	Enero	2023-01-22T00:00:00	2024-11-06T11:00:00	1	Precipitación	0
74200	7	Sololá	702	San José Chacayá	5	Chacayá	1	Enero	2023-01-22T00:00:00	2024-11-06T11:00:00	8	Radiación solar	745
74201	7	Sololá	702	San José Chacayá	5	Chacayá	1	Enero	2023-01-22T00:00:00	2024-11-06T12:00:00	2	Temperatura media	19.9
74202	7	Sololá	702	San José Chacayá	5	Chacayá	1	Enero	2023-01-22T00:00:00	2024-11-06T12:00:00	4	Temperatura máxima	20.2
74203	7	Sololá	702	San José Chacayá	5	Chacayá	1	Enero	2023-01-22T00:00:00	2024-11-06T12:00:00	3	Temperatura mínima	19.3
74204	7	Sololá	702	San José Chacayá	5	Chacayá	1	Enero	2023-01-22T00:00:00	2024-11-06T12:00:00	5	Humedad	45
74205	7	Sololá	702	San José Chacayá	5	Chacayá	1	Enero	2023-01-22T00:00:00	2024-11-06T12:00:00	6	Velocidad del viento	6.4
74206	7	Sololá	702	San José Chacayá	5	Chacayá	1	Enero	2023-01-22T00:00:00	2024-11-06T12:00:00	7	Dirección del viento	6.44
74207	7	Sololá	702	San José Chacayá	5	Chacayá	1	Enero	2023-01-22T00:00:00	2024-11-06T12:00:00	1	Precipitación	0
74208	7	Sololá	702	San José Chacayá	5	Chacayá	1	Enero	2023-01-22T00:00:00	2024-11-06T12:00:00	8	Radiación solar	834
74209	7	Sololá	702	San José Chacayá	5	Chacayá	1	Enero	2023-01-22T00:00:00	2024-11-06T13:00:00	2	Temperatura media	19
74210	7	Sololá	702	San José Chacayá	5	Chacayá	1	Enero	2023-01-22T00:00:00	2024-11-06T13:00:00	4	Temperatura máxima	20
74211	7	Sololá	702	San José Chacayá	5	Chacayá	1	Enero	2023-01-22T00:00:00	2024-11-06T13:00:00	3	Temperatura mínima	19
74212	7	Sololá	702	San José Chacayá	5	Chacayá	1	Enero	2023-01-22T00:00:00	2024-11-06T13:00:00	5	Humedad	61
74213	7	Sololá	702	San José Chacayá	5	Chacayá	1	Enero	2023-01-22T00:00:00	2024-11-06T13:00:00	6	Velocidad del viento	6.4
74214	7	Sololá	702	San José Chacayá	5	Chacayá	1	Enero	2023-01-22T00:00:00	2024-11-06T13:00:00	7	Dirección del viento	6.44
74215	7	Sololá	702	San José Chacayá	5	Chacayá	1	Enero	2023-01-22T00:00:00	2024-11-06T13:00:00	1	Precipitación	0
74216	7	Sololá	702	San José Chacayá	5	Chacayá	1	Enero	2023-01-22T00:00:00	2024-11-06T13:00:00	8	Radiación solar	847
74217	7	Sololá	702	San José Chacayá	5	Chacayá	1	Enero	2023-01-22T00:00:00	2024-11-06T14:00:00	2	Temperatura media	17.2
74218	7	Sololá	702	San José Chacayá	5	Chacayá	1	Enero	2023-01-22T00:00:00	2024-11-06T14:00:00	4	Temperatura máxima	19
74219	7	Sololá	702	San José Chacayá	5	Chacayá	1	Enero	2023-01-22T00:00:00	2024-11-06T14:00:00	3	Temperatura mínima	17.2
74220	7	Sololá	702	San José Chacayá	5	Chacayá	1	Enero	2023-01-22T00:00:00	2024-11-06T14:00:00	5	Humedad	73
74221	7	Sololá	702	San José Chacayá	5	Chacayá	1	Enero	2023-01-22T00:00:00	2024-11-06T14:00:00	6	Velocidad del viento	6.4
74222	7	Sololá	702	San José Chacayá	5	Chacayá	1	Enero	2023-01-22T00:00:00	2024-11-06T14:00:00	7	Dirección del viento	6.44
74223	7	Sololá	702	San José Chacayá	5	Chacayá	1	Enero	2023-01-22T00:00:00	2024-11-06T14:00:00	1	Precipitación	0
74224	7	Sololá	702	San José Chacayá	5	Chacayá	1	Enero	2023-01-22T00:00:00	2024-11-06T14:00:00	8	Radiación solar	804
74225	7	Sololá	702	San José Chacayá	5	Chacayá	1	Enero	2023-01-22T00:00:00	2024-11-06T15:00:00	2	Temperatura media	15.9
74226	7	Sololá	702	San José Chacayá	5	Chacayá	1	Enero	2023-01-22T00:00:00	2024-11-06T15:00:00	4	Temperatura máxima	17.3
74227	7	Sololá	702	San José Chacayá	5	Chacayá	1	Enero	2023-01-22T00:00:00	2024-11-06T15:00:00	3	Temperatura mínima	15.9
74228	7	Sololá	702	San José Chacayá	5	Chacayá	1	Enero	2023-01-22T00:00:00	2024-11-06T15:00:00	5	Humedad	78
74229	7	Sololá	702	San José Chacayá	5	Chacayá	1	Enero	2023-01-22T00:00:00	2024-11-06T15:00:00	6	Velocidad del viento	6.4
74230	7	Sololá	702	San José Chacayá	5	Chacayá	1	Enero	2023-01-22T00:00:00	2024-11-06T15:00:00	7	Dirección del viento	6.44
74231	7	Sololá	702	San José Chacayá	5	Chacayá	1	Enero	2023-01-22T00:00:00	2024-11-06T15:00:00	1	Precipitación	0
74232	7	Sololá	702	San José Chacayá	5	Chacayá	1	Enero	2023-01-22T00:00:00	2024-11-06T15:00:00	8	Radiación solar	575
74233	7	Sololá	702	San José Chacayá	5	Chacayá	1	Enero	2023-01-22T00:00:00	2024-11-06T16:00:00	2	Temperatura media	15.6
74234	7	Sololá	702	San José Chacayá	5	Chacayá	1	Enero	2023-01-22T00:00:00	2024-11-06T16:00:00	4	Temperatura máxima	15.9
74235	7	Sololá	702	San José Chacayá	5	Chacayá	1	Enero	2023-01-22T00:00:00	2024-11-06T16:00:00	3	Temperatura mínima	15.5
74236	7	Sololá	702	San José Chacayá	5	Chacayá	1	Enero	2023-01-22T00:00:00	2024-11-06T16:00:00	5	Humedad	82
74237	7	Sololá	702	San José Chacayá	5	Chacayá	1	Enero	2023-01-22T00:00:00	2024-11-06T16:00:00	6	Velocidad del viento	4.8
74238	7	Sololá	702	San José Chacayá	5	Chacayá	1	Enero	2023-01-22T00:00:00	2024-11-06T16:00:00	7	Dirección del viento	4.83
74239	7	Sololá	702	San José Chacayá	5	Chacayá	1	Enero	2023-01-22T00:00:00	2024-11-06T16:00:00	1	Precipitación	0
74240	7	Sololá	702	San José Chacayá	5	Chacayá	1	Enero	2023-01-22T00:00:00	2024-11-06T16:00:00	8	Radiación solar	350
74241	7	Sololá	702	San José Chacayá	5	Chacayá	1	Enero	2023-01-22T00:00:00	2024-11-06T17:00:00	2	Temperatura media	14.4
74242	7	Sololá	702	San José Chacayá	5	Chacayá	1	Enero	2023-01-22T00:00:00	2024-11-06T17:00:00	4	Temperatura máxima	15.6
74243	7	Sololá	702	San José Chacayá	5	Chacayá	1	Enero	2023-01-22T00:00:00	2024-11-06T17:00:00	3	Temperatura mínima	14.3
74244	7	Sololá	702	San José Chacayá	5	Chacayá	1	Enero	2023-01-22T00:00:00	2024-11-06T17:00:00	5	Humedad	88
74245	7	Sololá	702	San José Chacayá	5	Chacayá	1	Enero	2023-01-22T00:00:00	2024-11-06T17:00:00	6	Velocidad del viento	1.6
74246	7	Sololá	702	San José Chacayá	5	Chacayá	1	Enero	2023-01-22T00:00:00	2024-11-06T17:00:00	7	Dirección del viento	1.61
74247	7	Sololá	702	San José Chacayá	5	Chacayá	1	Enero	2023-01-22T00:00:00	2024-11-06T17:00:00	1	Precipitación	0
74248	7	Sololá	702	San José Chacayá	5	Chacayá	1	Enero	2023-01-22T00:00:00	2024-11-06T17:00:00	8	Radiación solar	260
74249	7	Sololá	702	San José Chacayá	5	Chacayá	1	Enero	2023-01-22T00:00:00	2024-11-06T18:00:00	2	Temperatura media	12.4
74250	7	Sololá	702	San José Chacayá	5	Chacayá	1	Enero	2023-01-22T00:00:00	2024-11-06T18:00:00	4	Temperatura máxima	14.4
74251	7	Sololá	702	San José Chacayá	5	Chacayá	1	Enero	2023-01-22T00:00:00	2024-11-06T18:00:00	3	Temperatura mínima	12.4
74252	7	Sololá	702	San José Chacayá	5	Chacayá	1	Enero	2023-01-22T00:00:00	2024-11-06T18:00:00	5	Humedad	91
74253	7	Sololá	702	San José Chacayá	5	Chacayá	1	Enero	2023-01-22T00:00:00	2024-11-06T18:00:00	6	Velocidad del viento	0
74254	7	Sololá	702	San José Chacayá	5	Chacayá	1	Enero	2023-01-22T00:00:00	2024-11-06T18:00:00	7	Dirección del viento	0
74255	7	Sololá	702	San José Chacayá	5	Chacayá	1	Enero	2023-01-22T00:00:00	2024-11-06T18:00:00	1	Precipitación	0
74256	7	Sololá	702	San José Chacayá	5	Chacayá	1	Enero	2023-01-22T00:00:00	2024-11-06T18:00:00	8	Radiación solar	33
74257	7	Sololá	702	San José Chacayá	5	Chacayá	1	Enero	2023-01-22T00:00:00	2024-11-06T19:00:00	2	Temperatura media	11.1
74258	7	Sololá	702	San José Chacayá	5	Chacayá	1	Enero	2023-01-22T00:00:00	2024-11-06T19:00:00	4	Temperatura máxima	12.4
74259	7	Sololá	702	San José Chacayá	5	Chacayá	1	Enero	2023-01-22T00:00:00	2024-11-06T19:00:00	3	Temperatura mínima	11.1
74260	7	Sololá	702	San José Chacayá	5	Chacayá	1	Enero	2023-01-22T00:00:00	2024-11-06T19:00:00	5	Humedad	91
74261	7	Sololá	702	San José Chacayá	5	Chacayá	1	Enero	2023-01-22T00:00:00	2024-11-06T19:00:00	6	Velocidad del viento	0
74262	7	Sololá	702	San José Chacayá	5	Chacayá	1	Enero	2023-01-22T00:00:00	2024-11-06T19:00:00	7	Dirección del viento	0
74263	7	Sololá	702	San José Chacayá	5	Chacayá	1	Enero	2023-01-22T00:00:00	2024-11-06T19:00:00	1	Precipitación	0
74264	7	Sololá	702	San José Chacayá	5	Chacayá	1	Enero	2023-01-22T00:00:00	2024-11-06T19:00:00	8	Radiación solar	0
74265	7	Sololá	702	San José Chacayá	5	Chacayá	1	Enero	2023-01-22T00:00:00	2024-11-06T20:00:00	2	Temperatura media	9.9
74266	7	Sololá	702	San José Chacayá	5	Chacayá	1	Enero	2023-01-22T00:00:00	2024-11-06T20:00:00	4	Temperatura máxima	11.1
74267	7	Sololá	702	San José Chacayá	5	Chacayá	1	Enero	2023-01-22T00:00:00	2024-11-06T20:00:00	3	Temperatura mínima	9.9
74268	7	Sololá	702	San José Chacayá	5	Chacayá	1	Enero	2023-01-22T00:00:00	2024-11-06T20:00:00	5	Humedad	91
74269	7	Sololá	702	San José Chacayá	5	Chacayá	1	Enero	2023-01-22T00:00:00	2024-11-06T20:00:00	6	Velocidad del viento	1.6
74270	7	Sololá	702	San José Chacayá	5	Chacayá	1	Enero	2023-01-22T00:00:00	2024-11-06T20:00:00	7	Dirección del viento	1.61
74271	7	Sololá	702	San José Chacayá	5	Chacayá	1	Enero	2023-01-22T00:00:00	2024-11-06T20:00:00	1	Precipitación	0
74272	7	Sololá	702	San José Chacayá	5	Chacayá	1	Enero	2023-01-22T00:00:00	2024-11-06T20:00:00	8	Radiación solar	0
74273	7	Sololá	702	San José Chacayá	5	Chacayá	1	Enero	2023-01-22T00:00:00	2024-11-06T21:00:00	2	Temperatura media	9.8
74274	7	Sololá	702	San José Chacayá	5	Chacayá	1	Enero	2023-01-22T00:00:00	2024-11-06T21:00:00	4	Temperatura máxima	9.9
74275	7	Sololá	702	San José Chacayá	5	Chacayá	1	Enero	2023-01-22T00:00:00	2024-11-06T21:00:00	3	Temperatura mínima	9.7
74276	7	Sololá	702	San José Chacayá	5	Chacayá	1	Enero	2023-01-22T00:00:00	2024-11-06T21:00:00	5	Humedad	90
74277	7	Sololá	702	San José Chacayá	5	Chacayá	1	Enero	2023-01-22T00:00:00	2024-11-06T21:00:00	6	Velocidad del viento	0
74278	7	Sololá	702	San José Chacayá	5	Chacayá	1	Enero	2023-01-22T00:00:00	2024-11-06T21:00:00	7	Dirección del viento	0
74279	7	Sololá	702	San José Chacayá	5	Chacayá	1	Enero	2023-01-22T00:00:00	2024-11-06T21:00:00	1	Precipitación	0
74280	7	Sololá	702	San José Chacayá	5	Chacayá	1	Enero	2023-01-22T00:00:00	2024-11-06T21:00:00	8	Radiación solar	0
74281	7	Sololá	702	San José Chacayá	5	Chacayá	1	Enero	2023-01-22T00:00:00	2024-11-06T22:00:00	2	Temperatura media	8.7
74282	7	Sololá	702	San José Chacayá	5	Chacayá	1	Enero	2023-01-22T00:00:00	2024-11-06T22:00:00	4	Temperatura máxima	9.8
74283	7	Sololá	702	San José Chacayá	5	Chacayá	1	Enero	2023-01-22T00:00:00	2024-11-06T22:00:00	3	Temperatura mínima	8.7
74284	7	Sololá	702	San José Chacayá	5	Chacayá	1	Enero	2023-01-22T00:00:00	2024-11-06T22:00:00	5	Humedad	91
74285	7	Sololá	702	San José Chacayá	5	Chacayá	1	Enero	2023-01-22T00:00:00	2024-11-06T22:00:00	6	Velocidad del viento	0
74286	7	Sololá	702	San José Chacayá	5	Chacayá	1	Enero	2023-01-22T00:00:00	2024-11-06T22:00:00	7	Dirección del viento	0
74287	7	Sololá	702	San José Chacayá	5	Chacayá	1	Enero	2023-01-22T00:00:00	2024-11-06T22:00:00	1	Precipitación	0
74288	7	Sololá	702	San José Chacayá	5	Chacayá	1	Enero	2023-01-22T00:00:00	2024-11-06T22:00:00	8	Radiación solar	0
74289	7	Sololá	702	San José Chacayá	5	Chacayá	1	Enero	2023-01-22T00:00:00	2024-11-06T23:00:00	2	Temperatura media	7.7
74290	7	Sololá	702	San José Chacayá	5	Chacayá	1	Enero	2023-01-22T00:00:00	2024-11-06T23:00:00	4	Temperatura máxima	8.7
74291	7	Sololá	702	San José Chacayá	5	Chacayá	1	Enero	2023-01-22T00:00:00	2024-11-06T23:00:00	3	Temperatura mínima	7.7
74292	7	Sololá	702	San José Chacayá	5	Chacayá	1	Enero	2023-01-22T00:00:00	2024-11-06T23:00:00	5	Humedad	93
74293	7	Sololá	702	San José Chacayá	5	Chacayá	1	Enero	2023-01-22T00:00:00	2024-11-06T23:00:00	6	Velocidad del viento	0
74294	7	Sololá	702	San José Chacayá	5	Chacayá	1	Enero	2023-01-22T00:00:00	2024-11-06T23:00:00	7	Dirección del viento	0
74295	7	Sololá	702	San José Chacayá	5	Chacayá	1	Enero	2023-01-22T00:00:00	2024-11-06T23:00:00	1	Precipitación	0
74296	7	Sololá	702	San José Chacayá	5	Chacayá	1	Enero	2023-01-22T00:00:00	2024-11-06T23:00:00	8	Radiación solar	0
74297	7	Sololá	702	San José Chacayá	5	Chacayá	1	Enero	2023-01-23T00:00:00	2024-11-06T00:00:00	2	Temperatura media	7.1
74298	7	Sololá	702	San José Chacayá	5	Chacayá	1	Enero	2023-01-23T00:00:00	2024-11-06T00:00:00	4	Temperatura máxima	7.7
74299	7	Sololá	702	San José Chacayá	5	Chacayá	1	Enero	2023-01-23T00:00:00	2024-11-06T00:00:00	3	Temperatura mínima	7
74300	7	Sololá	702	San José Chacayá	5	Chacayá	1	Enero	2023-01-23T00:00:00	2024-11-06T00:00:00	5	Humedad	93
74301	7	Sololá	702	San José Chacayá	5	Chacayá	1	Enero	2023-01-23T00:00:00	2024-11-06T00:00:00	6	Velocidad del viento	1.6
74302	7	Sololá	702	San José Chacayá	5	Chacayá	1	Enero	2023-01-23T00:00:00	2024-11-06T00:00:00	7	Dirección del viento	1.61
74303	7	Sololá	702	San José Chacayá	5	Chacayá	1	Enero	2023-01-23T00:00:00	2024-11-06T00:00:00	1	Precipitación	0
74304	7	Sololá	702	San José Chacayá	5	Chacayá	1	Enero	2023-01-23T00:00:00	2024-11-06T00:00:00	8	Radiación solar	0
74305	7	Sololá	702	San José Chacayá	5	Chacayá	1	Enero	2023-01-23T00:00:00	2024-11-06T01:00:00	2	Temperatura media	6.7
74306	7	Sololá	702	San José Chacayá	5	Chacayá	1	Enero	2023-01-23T00:00:00	2024-11-06T01:00:00	4	Temperatura máxima	7.1
74307	7	Sololá	702	San José Chacayá	5	Chacayá	1	Enero	2023-01-23T00:00:00	2024-11-06T01:00:00	3	Temperatura mínima	6.7
74308	7	Sololá	702	San José Chacayá	5	Chacayá	1	Enero	2023-01-23T00:00:00	2024-11-06T01:00:00	5	Humedad	92
74309	7	Sololá	702	San José Chacayá	5	Chacayá	1	Enero	2023-01-23T00:00:00	2024-11-06T01:00:00	6	Velocidad del viento	1.6
74310	7	Sololá	702	San José Chacayá	5	Chacayá	1	Enero	2023-01-23T00:00:00	2024-11-06T01:00:00	7	Dirección del viento	1.61
74311	7	Sololá	702	San José Chacayá	5	Chacayá	1	Enero	2023-01-23T00:00:00	2024-11-06T01:00:00	1	Precipitación	0
74312	7	Sololá	702	San José Chacayá	5	Chacayá	1	Enero	2023-01-23T00:00:00	2024-11-06T01:00:00	8	Radiación solar	0
74313	7	Sololá	702	San José Chacayá	5	Chacayá	1	Enero	2023-01-23T00:00:00	2024-11-06T02:00:00	2	Temperatura media	5.9
74314	7	Sololá	702	San José Chacayá	5	Chacayá	1	Enero	2023-01-23T00:00:00	2024-11-06T02:00:00	4	Temperatura máxima	6.7
74315	7	Sololá	702	San José Chacayá	5	Chacayá	1	Enero	2023-01-23T00:00:00	2024-11-06T02:00:00	3	Temperatura mínima	5.9
74316	7	Sololá	702	San José Chacayá	5	Chacayá	1	Enero	2023-01-23T00:00:00	2024-11-06T02:00:00	5	Humedad	92
74317	7	Sololá	702	San José Chacayá	5	Chacayá	1	Enero	2023-01-23T00:00:00	2024-11-06T02:00:00	6	Velocidad del viento	1.6
74318	7	Sololá	702	San José Chacayá	5	Chacayá	1	Enero	2023-01-23T00:00:00	2024-11-06T02:00:00	7	Dirección del viento	1.61
74319	7	Sololá	702	San José Chacayá	5	Chacayá	1	Enero	2023-01-23T00:00:00	2024-11-06T02:00:00	1	Precipitación	0
74320	7	Sololá	702	San José Chacayá	5	Chacayá	1	Enero	2023-01-23T00:00:00	2024-11-06T02:00:00	8	Radiación solar	0
74321	7	Sololá	702	San José Chacayá	5	Chacayá	1	Enero	2023-01-23T00:00:00	2024-11-06T03:00:00	2	Temperatura media	5.6
74322	7	Sololá	702	San José Chacayá	5	Chacayá	1	Enero	2023-01-23T00:00:00	2024-11-06T03:00:00	4	Temperatura máxima	6
74323	7	Sololá	702	San José Chacayá	5	Chacayá	1	Enero	2023-01-23T00:00:00	2024-11-06T03:00:00	3	Temperatura mínima	5.4
74324	7	Sololá	702	San José Chacayá	5	Chacayá	1	Enero	2023-01-23T00:00:00	2024-11-06T03:00:00	5	Humedad	91
74325	7	Sololá	702	San José Chacayá	5	Chacayá	1	Enero	2023-01-23T00:00:00	2024-11-06T03:00:00	6	Velocidad del viento	1.6
74326	7	Sololá	702	San José Chacayá	5	Chacayá	1	Enero	2023-01-23T00:00:00	2024-11-06T03:00:00	7	Dirección del viento	1.61
74327	7	Sololá	702	San José Chacayá	5	Chacayá	1	Enero	2023-01-23T00:00:00	2024-11-06T03:00:00	1	Precipitación	0
74328	7	Sololá	702	San José Chacayá	5	Chacayá	1	Enero	2023-01-23T00:00:00	2024-11-06T03:00:00	8	Radiación solar	0
74329	7	Sololá	702	San José Chacayá	5	Chacayá	1	Enero	2023-01-23T00:00:00	2024-11-06T04:00:00	2	Temperatura media	5.1
74330	7	Sololá	702	San José Chacayá	5	Chacayá	1	Enero	2023-01-23T00:00:00	2024-11-06T04:00:00	4	Temperatura máxima	5.6
74331	7	Sololá	702	San José Chacayá	5	Chacayá	1	Enero	2023-01-23T00:00:00	2024-11-06T04:00:00	3	Temperatura mínima	5.1
74332	7	Sololá	702	San José Chacayá	5	Chacayá	1	Enero	2023-01-23T00:00:00	2024-11-06T04:00:00	5	Humedad	89
74333	7	Sololá	702	San José Chacayá	5	Chacayá	1	Enero	2023-01-23T00:00:00	2024-11-06T04:00:00	6	Velocidad del viento	1.6
74334	7	Sololá	702	San José Chacayá	5	Chacayá	1	Enero	2023-01-23T00:00:00	2024-11-06T04:00:00	7	Dirección del viento	1.61
74335	7	Sololá	702	San José Chacayá	5	Chacayá	1	Enero	2023-01-23T00:00:00	2024-11-06T04:00:00	1	Precipitación	0
74336	7	Sololá	702	San José Chacayá	5	Chacayá	1	Enero	2023-01-23T00:00:00	2024-11-06T04:00:00	8	Radiación solar	0
74337	7	Sololá	702	San José Chacayá	5	Chacayá	1	Enero	2023-01-23T00:00:00	2024-11-06T05:00:00	2	Temperatura media	4.4
74338	7	Sololá	702	San José Chacayá	5	Chacayá	1	Enero	2023-01-23T00:00:00	2024-11-06T05:00:00	4	Temperatura máxima	5.1
74339	7	Sololá	702	San José Chacayá	5	Chacayá	1	Enero	2023-01-23T00:00:00	2024-11-06T05:00:00	3	Temperatura mínima	4.4
74340	7	Sololá	702	San José Chacayá	5	Chacayá	1	Enero	2023-01-23T00:00:00	2024-11-06T05:00:00	5	Humedad	90
74341	7	Sololá	702	San José Chacayá	5	Chacayá	1	Enero	2023-01-23T00:00:00	2024-11-06T05:00:00	6	Velocidad del viento	1.6
74342	7	Sololá	702	San José Chacayá	5	Chacayá	1	Enero	2023-01-23T00:00:00	2024-11-06T05:00:00	7	Dirección del viento	1.61
74343	7	Sololá	702	San José Chacayá	5	Chacayá	1	Enero	2023-01-23T00:00:00	2024-11-06T05:00:00	1	Precipitación	0
74344	7	Sololá	702	San José Chacayá	5	Chacayá	1	Enero	2023-01-23T00:00:00	2024-11-06T05:00:00	8	Radiación solar	0
74345	7	Sololá	702	San José Chacayá	5	Chacayá	1	Enero	2023-01-23T00:00:00	2024-11-06T06:00:00	2	Temperatura media	5
74346	7	Sololá	702	San José Chacayá	5	Chacayá	1	Enero	2023-01-23T00:00:00	2024-11-06T06:00:00	4	Temperatura máxima	5
74347	7	Sololá	702	San José Chacayá	5	Chacayá	1	Enero	2023-01-23T00:00:00	2024-11-06T06:00:00	3	Temperatura mínima	4.3
74348	7	Sololá	702	San José Chacayá	5	Chacayá	1	Enero	2023-01-23T00:00:00	2024-11-06T06:00:00	5	Humedad	89
74349	7	Sololá	702	San José Chacayá	5	Chacayá	1	Enero	2023-01-23T00:00:00	2024-11-06T06:00:00	6	Velocidad del viento	1.6
74350	7	Sololá	702	San José Chacayá	5	Chacayá	1	Enero	2023-01-23T00:00:00	2024-11-06T06:00:00	7	Dirección del viento	1.61
74351	7	Sololá	702	San José Chacayá	5	Chacayá	1	Enero	2023-01-23T00:00:00	2024-11-06T06:00:00	1	Precipitación	0
74352	7	Sololá	702	San José Chacayá	5	Chacayá	1	Enero	2023-01-23T00:00:00	2024-11-06T06:00:00	8	Radiación solar	0
74353	7	Sololá	702	San José Chacayá	5	Chacayá	1	Enero	2023-01-23T00:00:00	2024-11-06T07:00:00	2	Temperatura media	10.2
74354	7	Sololá	702	San José Chacayá	5	Chacayá	1	Enero	2023-01-23T00:00:00	2024-11-06T07:00:00	4	Temperatura máxima	10.2
74355	7	Sololá	702	San José Chacayá	5	Chacayá	1	Enero	2023-01-23T00:00:00	2024-11-06T07:00:00	3	Temperatura mínima	5
74356	7	Sololá	702	San José Chacayá	5	Chacayá	1	Enero	2023-01-23T00:00:00	2024-11-06T07:00:00	5	Humedad	79
74357	7	Sololá	702	San José Chacayá	5	Chacayá	1	Enero	2023-01-23T00:00:00	2024-11-06T07:00:00	6	Velocidad del viento	3.2
74358	7	Sololá	702	San José Chacayá	5	Chacayá	1	Enero	2023-01-23T00:00:00	2024-11-06T07:00:00	7	Dirección del viento	3.22
74359	7	Sololá	702	San José Chacayá	5	Chacayá	1	Enero	2023-01-23T00:00:00	2024-11-06T07:00:00	1	Precipitación	0
74360	7	Sololá	702	San José Chacayá	5	Chacayá	1	Enero	2023-01-23T00:00:00	2024-11-06T07:00:00	8	Radiación solar	4
74361	7	Sololá	702	San José Chacayá	5	Chacayá	1	Enero	2023-01-23T00:00:00	2024-11-06T08:00:00	2	Temperatura media	16.7
74362	7	Sololá	702	San José Chacayá	5	Chacayá	1	Enero	2023-01-23T00:00:00	2024-11-06T08:00:00	4	Temperatura máxima	16.7
74363	7	Sololá	702	San José Chacayá	5	Chacayá	1	Enero	2023-01-23T00:00:00	2024-11-06T08:00:00	3	Temperatura mínima	10.2
74364	7	Sololá	702	San José Chacayá	5	Chacayá	1	Enero	2023-01-23T00:00:00	2024-11-06T08:00:00	5	Humedad	57
74365	7	Sololá	702	San José Chacayá	5	Chacayá	1	Enero	2023-01-23T00:00:00	2024-11-06T08:00:00	6	Velocidad del viento	3.2
74366	7	Sololá	702	San José Chacayá	5	Chacayá	1	Enero	2023-01-23T00:00:00	2024-11-06T08:00:00	7	Dirección del viento	3.22
74367	7	Sololá	702	San José Chacayá	5	Chacayá	1	Enero	2023-01-23T00:00:00	2024-11-06T08:00:00	1	Precipitación	0
74368	7	Sololá	702	San José Chacayá	5	Chacayá	1	Enero	2023-01-23T00:00:00	2024-11-06T08:00:00	8	Radiación solar	57
74369	7	Sololá	702	San José Chacayá	5	Chacayá	1	Enero	2023-01-23T00:00:00	2024-11-06T09:00:00	2	Temperatura media	18.7
74370	7	Sololá	702	San José Chacayá	5	Chacayá	1	Enero	2023-01-23T00:00:00	2024-11-06T09:00:00	4	Temperatura máxima	18.7
74371	7	Sololá	702	San José Chacayá	5	Chacayá	1	Enero	2023-01-23T00:00:00	2024-11-06T09:00:00	3	Temperatura mínima	16.7
74372	7	Sololá	702	San José Chacayá	5	Chacayá	1	Enero	2023-01-23T00:00:00	2024-11-06T09:00:00	5	Humedad	47
74373	7	Sololá	702	San José Chacayá	5	Chacayá	1	Enero	2023-01-23T00:00:00	2024-11-06T09:00:00	6	Velocidad del viento	4.8
74374	7	Sololá	702	San José Chacayá	5	Chacayá	1	Enero	2023-01-23T00:00:00	2024-11-06T09:00:00	7	Dirección del viento	4.83
74375	7	Sololá	702	San José Chacayá	5	Chacayá	1	Enero	2023-01-23T00:00:00	2024-11-06T09:00:00	1	Precipitación	0
74376	7	Sololá	702	San José Chacayá	5	Chacayá	1	Enero	2023-01-23T00:00:00	2024-11-06T09:00:00	8	Radiación solar	124
74377	7	Sololá	702	San José Chacayá	5	Chacayá	1	Enero	2023-01-23T00:00:00	2024-11-06T10:00:00	2	Temperatura media	20.3
74378	7	Sololá	702	San José Chacayá	5	Chacayá	1	Enero	2023-01-23T00:00:00	2024-11-06T10:00:00	4	Temperatura máxima	20.5
74379	7	Sololá	702	San José Chacayá	5	Chacayá	1	Enero	2023-01-23T00:00:00	2024-11-06T10:00:00	3	Temperatura mínima	18.7
74380	7	Sololá	702	San José Chacayá	5	Chacayá	1	Enero	2023-01-23T00:00:00	2024-11-06T10:00:00	5	Humedad	41
74381	7	Sololá	702	San José Chacayá	5	Chacayá	1	Enero	2023-01-23T00:00:00	2024-11-06T10:00:00	6	Velocidad del viento	4.8
74382	7	Sololá	702	San José Chacayá	5	Chacayá	1	Enero	2023-01-23T00:00:00	2024-11-06T10:00:00	7	Dirección del viento	4.83
74383	7	Sololá	702	San José Chacayá	5	Chacayá	1	Enero	2023-01-23T00:00:00	2024-11-06T10:00:00	1	Precipitación	0
74384	7	Sololá	702	San José Chacayá	5	Chacayá	1	Enero	2023-01-23T00:00:00	2024-11-06T10:00:00	8	Radiación solar	146
74385	7	Sololá	702	San José Chacayá	5	Chacayá	1	Enero	2023-01-23T00:00:00	2024-11-06T11:00:00	2	Temperatura media	21.4
74386	7	Sololá	702	San José Chacayá	5	Chacayá	1	Enero	2023-01-23T00:00:00	2024-11-06T11:00:00	4	Temperatura máxima	21.4
74387	7	Sololá	702	San José Chacayá	5	Chacayá	1	Enero	2023-01-23T00:00:00	2024-11-06T11:00:00	3	Temperatura mínima	19.4
74388	7	Sololá	702	San José Chacayá	5	Chacayá	1	Enero	2023-01-23T00:00:00	2024-11-06T11:00:00	5	Humedad	38
74389	7	Sololá	702	San José Chacayá	5	Chacayá	1	Enero	2023-01-23T00:00:00	2024-11-06T11:00:00	6	Velocidad del viento	6.4
74390	7	Sololá	702	San José Chacayá	5	Chacayá	1	Enero	2023-01-23T00:00:00	2024-11-06T11:00:00	7	Dirección del viento	6.44
74391	7	Sololá	702	San José Chacayá	5	Chacayá	1	Enero	2023-01-23T00:00:00	2024-11-06T11:00:00	1	Precipitación	0
74392	7	Sololá	702	San José Chacayá	5	Chacayá	1	Enero	2023-01-23T00:00:00	2024-11-06T11:00:00	8	Radiación solar	286
74393	7	Sololá	702	San José Chacayá	5	Chacayá	1	Enero	2023-01-23T00:00:00	2024-11-06T12:00:00	2	Temperatura media	21.8
74394	7	Sololá	702	San José Chacayá	5	Chacayá	1	Enero	2023-01-23T00:00:00	2024-11-06T12:00:00	4	Temperatura máxima	21.8
74395	7	Sololá	702	San José Chacayá	5	Chacayá	1	Enero	2023-01-23T00:00:00	2024-11-06T12:00:00	3	Temperatura mínima	21.1
74396	7	Sololá	702	San José Chacayá	5	Chacayá	1	Enero	2023-01-23T00:00:00	2024-11-06T12:00:00	5	Humedad	36
74397	7	Sololá	702	San José Chacayá	5	Chacayá	1	Enero	2023-01-23T00:00:00	2024-11-06T12:00:00	6	Velocidad del viento	6.4
74398	7	Sololá	702	San José Chacayá	5	Chacayá	1	Enero	2023-01-23T00:00:00	2024-11-06T12:00:00	7	Dirección del viento	6.44
74399	7	Sololá	702	San José Chacayá	5	Chacayá	1	Enero	2023-01-23T00:00:00	2024-11-06T12:00:00	1	Precipitación	0
74400	7	Sololá	702	San José Chacayá	5	Chacayá	1	Enero	2023-01-23T00:00:00	2024-11-06T12:00:00	8	Radiación solar	357
74401	7	Sololá	702	San José Chacayá	5	Chacayá	1	Enero	2023-01-23T00:00:00	2024-11-06T13:00:00	2	Temperatura media	22
74402	7	Sololá	702	San José Chacayá	5	Chacayá	1	Enero	2023-01-23T00:00:00	2024-11-06T13:00:00	4	Temperatura máxima	22.6
74403	7	Sololá	702	San José Chacayá	5	Chacayá	1	Enero	2023-01-23T00:00:00	2024-11-06T13:00:00	3	Temperatura mínima	20.9
74404	7	Sololá	702	San José Chacayá	5	Chacayá	1	Enero	2023-01-23T00:00:00	2024-11-06T13:00:00	5	Humedad	41
74405	7	Sololá	702	San José Chacayá	5	Chacayá	1	Enero	2023-01-23T00:00:00	2024-11-06T13:00:00	6	Velocidad del viento	6.4
74406	7	Sololá	702	San José Chacayá	5	Chacayá	1	Enero	2023-01-23T00:00:00	2024-11-06T13:00:00	7	Dirección del viento	6.44
74407	7	Sololá	702	San José Chacayá	5	Chacayá	1	Enero	2023-01-23T00:00:00	2024-11-06T13:00:00	1	Precipitación	0
74408	7	Sololá	702	San José Chacayá	5	Chacayá	1	Enero	2023-01-23T00:00:00	2024-11-06T13:00:00	8	Radiación solar	548
74409	7	Sololá	702	San José Chacayá	5	Chacayá	1	Enero	2023-01-23T00:00:00	2024-11-06T14:00:00	2	Temperatura media	20.1
74410	7	Sololá	702	San José Chacayá	5	Chacayá	1	Enero	2023-01-23T00:00:00	2024-11-06T14:00:00	4	Temperatura máxima	22.2
74411	7	Sololá	702	San José Chacayá	5	Chacayá	1	Enero	2023-01-23T00:00:00	2024-11-06T14:00:00	3	Temperatura mínima	20.1
74412	7	Sololá	702	San José Chacayá	5	Chacayá	1	Enero	2023-01-23T00:00:00	2024-11-06T14:00:00	5	Humedad	45
74413	7	Sololá	702	San José Chacayá	5	Chacayá	1	Enero	2023-01-23T00:00:00	2024-11-06T14:00:00	6	Velocidad del viento	4.8
74414	7	Sololá	702	San José Chacayá	5	Chacayá	1	Enero	2023-01-23T00:00:00	2024-11-06T14:00:00	7	Dirección del viento	4.83
74415	7	Sololá	702	San José Chacayá	5	Chacayá	1	Enero	2023-01-23T00:00:00	2024-11-06T14:00:00	1	Precipitación	0
74416	7	Sololá	702	San José Chacayá	5	Chacayá	1	Enero	2023-01-23T00:00:00	2024-11-06T14:00:00	8	Radiación solar	576
74417	7	Sololá	702	San José Chacayá	5	Chacayá	1	Enero	2023-01-23T00:00:00	2024-11-06T15:00:00	2	Temperatura media	19.5
74418	7	Sololá	702	San José Chacayá	5	Chacayá	1	Enero	2023-01-23T00:00:00	2024-11-06T15:00:00	4	Temperatura máxima	20.8
74419	7	Sololá	702	San José Chacayá	5	Chacayá	1	Enero	2023-01-23T00:00:00	2024-11-06T15:00:00	3	Temperatura mínima	19.4
74420	7	Sololá	702	San José Chacayá	5	Chacayá	1	Enero	2023-01-23T00:00:00	2024-11-06T15:00:00	5	Humedad	46
74421	7	Sololá	702	San José Chacayá	5	Chacayá	1	Enero	2023-01-23T00:00:00	2024-11-06T15:00:00	6	Velocidad del viento	4.8
74422	7	Sololá	702	San José Chacayá	5	Chacayá	1	Enero	2023-01-23T00:00:00	2024-11-06T15:00:00	7	Dirección del viento	4.83
74423	7	Sololá	702	San José Chacayá	5	Chacayá	1	Enero	2023-01-23T00:00:00	2024-11-06T15:00:00	1	Precipitación	0
74424	7	Sololá	702	San José Chacayá	5	Chacayá	1	Enero	2023-01-23T00:00:00	2024-11-06T15:00:00	8	Radiación solar	466
74425	7	Sololá	702	San José Chacayá	5	Chacayá	1	Enero	2023-01-23T00:00:00	2024-11-06T16:00:00	2	Temperatura media	17.8
74426	7	Sololá	702	San José Chacayá	5	Chacayá	1	Enero	2023-01-23T00:00:00	2024-11-06T16:00:00	4	Temperatura máxima	19.6
74427	7	Sololá	702	San José Chacayá	5	Chacayá	1	Enero	2023-01-23T00:00:00	2024-11-06T16:00:00	3	Temperatura mínima	17.8
74428	7	Sololá	702	San José Chacayá	5	Chacayá	1	Enero	2023-01-23T00:00:00	2024-11-06T16:00:00	5	Humedad	54
74429	7	Sololá	702	San José Chacayá	5	Chacayá	1	Enero	2023-01-23T00:00:00	2024-11-06T16:00:00	6	Velocidad del viento	3.2
74430	7	Sololá	702	San José Chacayá	5	Chacayá	1	Enero	2023-01-23T00:00:00	2024-11-06T16:00:00	7	Dirección del viento	3.22
74431	7	Sololá	702	San José Chacayá	5	Chacayá	1	Enero	2023-01-23T00:00:00	2024-11-06T16:00:00	1	Precipitación	0
74432	7	Sololá	702	San José Chacayá	5	Chacayá	1	Enero	2023-01-23T00:00:00	2024-11-06T16:00:00	8	Radiación solar	331
74433	7	Sololá	702	San José Chacayá	5	Chacayá	1	Enero	2023-01-23T00:00:00	2024-11-06T17:00:00	2	Temperatura media	15.1
74434	7	Sololá	702	San José Chacayá	5	Chacayá	1	Enero	2023-01-23T00:00:00	2024-11-06T17:00:00	4	Temperatura máxima	17.8
74435	7	Sololá	702	San José Chacayá	5	Chacayá	1	Enero	2023-01-23T00:00:00	2024-11-06T17:00:00	3	Temperatura mínima	15.1
74436	7	Sololá	702	San José Chacayá	5	Chacayá	1	Enero	2023-01-23T00:00:00	2024-11-06T17:00:00	5	Humedad	67
74437	7	Sololá	702	San José Chacayá	5	Chacayá	1	Enero	2023-01-23T00:00:00	2024-11-06T17:00:00	6	Velocidad del viento	3.2
74438	7	Sololá	702	San José Chacayá	5	Chacayá	1	Enero	2023-01-23T00:00:00	2024-11-06T17:00:00	7	Dirección del viento	3.22
74439	7	Sololá	702	San José Chacayá	5	Chacayá	1	Enero	2023-01-23T00:00:00	2024-11-06T17:00:00	1	Precipitación	0
74440	7	Sololá	702	San José Chacayá	5	Chacayá	1	Enero	2023-01-23T00:00:00	2024-11-06T17:00:00	8	Radiación solar	195
74441	7	Sololá	702	San José Chacayá	5	Chacayá	1	Enero	2023-01-23T00:00:00	2024-11-06T18:00:00	2	Temperatura media	13.4
74442	7	Sololá	702	San José Chacayá	5	Chacayá	1	Enero	2023-01-23T00:00:00	2024-11-06T18:00:00	4	Temperatura máxima	15.1
74443	7	Sololá	702	San José Chacayá	5	Chacayá	1	Enero	2023-01-23T00:00:00	2024-11-06T18:00:00	3	Temperatura mínima	13.4
74444	7	Sololá	702	San José Chacayá	5	Chacayá	1	Enero	2023-01-23T00:00:00	2024-11-06T18:00:00	5	Humedad	75
74445	7	Sololá	702	San José Chacayá	5	Chacayá	1	Enero	2023-01-23T00:00:00	2024-11-06T18:00:00	6	Velocidad del viento	1.6
74446	7	Sololá	702	San José Chacayá	5	Chacayá	1	Enero	2023-01-23T00:00:00	2024-11-06T18:00:00	7	Dirección del viento	1.61
74447	7	Sololá	702	San José Chacayá	5	Chacayá	1	Enero	2023-01-23T00:00:00	2024-11-06T18:00:00	1	Precipitación	0
74448	7	Sololá	702	San José Chacayá	5	Chacayá	1	Enero	2023-01-23T00:00:00	2024-11-06T18:00:00	8	Radiación solar	25
74449	7	Sololá	702	San José Chacayá	5	Chacayá	1	Enero	2023-01-23T00:00:00	2024-11-06T19:00:00	2	Temperatura media	13.1
74450	7	Sololá	702	San José Chacayá	5	Chacayá	1	Enero	2023-01-23T00:00:00	2024-11-06T19:00:00	4	Temperatura máxima	13.4
74451	7	Sololá	702	San José Chacayá	5	Chacayá	1	Enero	2023-01-23T00:00:00	2024-11-06T19:00:00	3	Temperatura mínima	12.7
74452	7	Sololá	702	San José Chacayá	5	Chacayá	1	Enero	2023-01-23T00:00:00	2024-11-06T19:00:00	5	Humedad	75
74453	7	Sololá	702	San José Chacayá	5	Chacayá	1	Enero	2023-01-23T00:00:00	2024-11-06T19:00:00	6	Velocidad del viento	1.6
74454	7	Sololá	702	San José Chacayá	5	Chacayá	1	Enero	2023-01-23T00:00:00	2024-11-06T19:00:00	7	Dirección del viento	1.61
74455	7	Sololá	702	San José Chacayá	5	Chacayá	1	Enero	2023-01-23T00:00:00	2024-11-06T19:00:00	1	Precipitación	0
74456	7	Sololá	702	San José Chacayá	5	Chacayá	1	Enero	2023-01-23T00:00:00	2024-11-06T19:00:00	8	Radiación solar	0
74457	7	Sololá	702	San José Chacayá	5	Chacayá	1	Enero	2023-01-23T00:00:00	2024-11-06T20:00:00	2	Temperatura media	12.7
74458	7	Sololá	702	San José Chacayá	5	Chacayá	1	Enero	2023-01-23T00:00:00	2024-11-06T20:00:00	4	Temperatura máxima	13.1
74459	7	Sololá	702	San José Chacayá	5	Chacayá	1	Enero	2023-01-23T00:00:00	2024-11-06T20:00:00	3	Temperatura mínima	12.7
74460	7	Sololá	702	San José Chacayá	5	Chacayá	1	Enero	2023-01-23T00:00:00	2024-11-06T20:00:00	5	Humedad	76
74461	7	Sololá	702	San José Chacayá	5	Chacayá	1	Enero	2023-01-23T00:00:00	2024-11-06T20:00:00	6	Velocidad del viento	6.4
74462	7	Sololá	702	San José Chacayá	5	Chacayá	1	Enero	2023-01-23T00:00:00	2024-11-06T20:00:00	7	Dirección del viento	6.44
74463	7	Sololá	702	San José Chacayá	5	Chacayá	1	Enero	2023-01-23T00:00:00	2024-11-06T20:00:00	1	Precipitación	0
74464	7	Sololá	702	San José Chacayá	5	Chacayá	1	Enero	2023-01-23T00:00:00	2024-11-06T20:00:00	8	Radiación solar	0
74465	7	Sololá	702	San José Chacayá	5	Chacayá	1	Enero	2023-01-23T00:00:00	2024-11-06T21:00:00	2	Temperatura media	11.9
74466	7	Sololá	702	San José Chacayá	5	Chacayá	1	Enero	2023-01-23T00:00:00	2024-11-06T21:00:00	4	Temperatura máxima	12.7
74467	7	Sololá	702	San José Chacayá	5	Chacayá	1	Enero	2023-01-23T00:00:00	2024-11-06T21:00:00	3	Temperatura mínima	11.9
74468	7	Sololá	702	San José Chacayá	5	Chacayá	1	Enero	2023-01-23T00:00:00	2024-11-06T21:00:00	5	Humedad	74
74469	7	Sololá	702	San José Chacayá	5	Chacayá	1	Enero	2023-01-23T00:00:00	2024-11-06T21:00:00	6	Velocidad del viento	3.2
74470	7	Sololá	702	San José Chacayá	5	Chacayá	1	Enero	2023-01-23T00:00:00	2024-11-06T21:00:00	7	Dirección del viento	3.22
74471	7	Sololá	702	San José Chacayá	5	Chacayá	1	Enero	2023-01-23T00:00:00	2024-11-06T21:00:00	1	Precipitación	0
74472	7	Sololá	702	San José Chacayá	5	Chacayá	1	Enero	2023-01-23T00:00:00	2024-11-06T21:00:00	8	Radiación solar	0
74473	7	Sololá	702	San José Chacayá	5	Chacayá	1	Enero	2023-01-23T00:00:00	2024-11-06T22:00:00	2	Temperatura media	7.9
74474	7	Sololá	702	San José Chacayá	5	Chacayá	1	Enero	2023-01-23T00:00:00	2024-11-06T22:00:00	4	Temperatura máxima	11.9
74475	7	Sololá	702	San José Chacayá	5	Chacayá	1	Enero	2023-01-23T00:00:00	2024-11-06T22:00:00	3	Temperatura mínima	7.9
74476	7	Sololá	702	San José Chacayá	5	Chacayá	1	Enero	2023-01-23T00:00:00	2024-11-06T22:00:00	5	Humedad	85
74477	7	Sololá	702	San José Chacayá	5	Chacayá	1	Enero	2023-01-23T00:00:00	2024-11-06T22:00:00	6	Velocidad del viento	1.6
74478	7	Sololá	702	San José Chacayá	5	Chacayá	1	Enero	2023-01-23T00:00:00	2024-11-06T22:00:00	7	Dirección del viento	1.61
74479	7	Sololá	702	San José Chacayá	5	Chacayá	1	Enero	2023-01-23T00:00:00	2024-11-06T22:00:00	1	Precipitación	0
74480	7	Sololá	702	San José Chacayá	5	Chacayá	1	Enero	2023-01-23T00:00:00	2024-11-06T22:00:00	8	Radiación solar	0
74481	7	Sololá	702	San José Chacayá	5	Chacayá	1	Enero	2023-01-23T00:00:00	2024-11-06T23:00:00	2	Temperatura media	6.9
74482	7	Sololá	702	San José Chacayá	5	Chacayá	1	Enero	2023-01-23T00:00:00	2024-11-06T23:00:00	4	Temperatura máxima	7.9
74483	7	Sololá	702	San José Chacayá	5	Chacayá	1	Enero	2023-01-23T00:00:00	2024-11-06T23:00:00	3	Temperatura mínima	6.9
74484	7	Sololá	702	San José Chacayá	5	Chacayá	1	Enero	2023-01-23T00:00:00	2024-11-06T23:00:00	5	Humedad	86
74485	7	Sololá	702	San José Chacayá	5	Chacayá	1	Enero	2023-01-23T00:00:00	2024-11-06T23:00:00	6	Velocidad del viento	1.6
74486	7	Sololá	702	San José Chacayá	5	Chacayá	1	Enero	2023-01-23T00:00:00	2024-11-06T23:00:00	7	Dirección del viento	1.61
74487	7	Sololá	702	San José Chacayá	5	Chacayá	1	Enero	2023-01-23T00:00:00	2024-11-06T23:00:00	1	Precipitación	0
74488	7	Sololá	702	San José Chacayá	5	Chacayá	1	Enero	2023-01-23T00:00:00	2024-11-06T23:00:00	8	Radiación solar	0
74489	7	Sololá	702	San José Chacayá	5	Chacayá	1	Enero	2023-01-24T00:00:00	2024-11-06T00:00:00	2	Temperatura media	6.1
74490	7	Sololá	702	San José Chacayá	5	Chacayá	1	Enero	2023-01-24T00:00:00	2024-11-06T00:00:00	4	Temperatura máxima	6.9
74491	7	Sololá	702	San José Chacayá	5	Chacayá	1	Enero	2023-01-24T00:00:00	2024-11-06T00:00:00	3	Temperatura mínima	6.1
74492	7	Sololá	702	San José Chacayá	5	Chacayá	1	Enero	2023-01-24T00:00:00	2024-11-06T00:00:00	5	Humedad	83
74493	7	Sololá	702	San José Chacayá	5	Chacayá	1	Enero	2023-01-24T00:00:00	2024-11-06T00:00:00	6	Velocidad del viento	1.6
74494	7	Sololá	702	San José Chacayá	5	Chacayá	1	Enero	2023-01-24T00:00:00	2024-11-06T00:00:00	7	Dirección del viento	1.61
74495	7	Sololá	702	San José Chacayá	5	Chacayá	1	Enero	2023-01-24T00:00:00	2024-11-06T00:00:00	1	Precipitación	0
74496	7	Sololá	702	San José Chacayá	5	Chacayá	1	Enero	2023-01-24T00:00:00	2024-11-06T00:00:00	8	Radiación solar	0
74497	7	Sololá	702	San José Chacayá	5	Chacayá	1	Enero	2023-01-24T00:00:00	2024-11-06T01:00:00	2	Temperatura media	5.3
74498	7	Sololá	702	San José Chacayá	5	Chacayá	1	Enero	2023-01-24T00:00:00	2024-11-06T01:00:00	4	Temperatura máxima	6.1
74499	7	Sololá	702	San José Chacayá	5	Chacayá	1	Enero	2023-01-24T00:00:00	2024-11-06T01:00:00	3	Temperatura mínima	5.3
74500	7	Sololá	702	San José Chacayá	5	Chacayá	1	Enero	2023-01-24T00:00:00	2024-11-06T01:00:00	5	Humedad	80
74501	7	Sololá	702	San José Chacayá	5	Chacayá	1	Enero	2023-01-24T00:00:00	2024-11-06T01:00:00	6	Velocidad del viento	1.6
74502	7	Sololá	702	San José Chacayá	5	Chacayá	1	Enero	2023-01-24T00:00:00	2024-11-06T01:00:00	7	Dirección del viento	1.61
74503	7	Sololá	702	San José Chacayá	5	Chacayá	1	Enero	2023-01-24T00:00:00	2024-11-06T01:00:00	1	Precipitación	0
74504	7	Sololá	702	San José Chacayá	5	Chacayá	1	Enero	2023-01-24T00:00:00	2024-11-06T01:00:00	8	Radiación solar	0
74505	7	Sololá	702	San José Chacayá	5	Chacayá	1	Enero	2023-01-24T00:00:00	2024-11-06T02:00:00	2	Temperatura media	4.4
74506	7	Sololá	702	San José Chacayá	5	Chacayá	1	Enero	2023-01-24T00:00:00	2024-11-06T02:00:00	4	Temperatura máxima	5.3
74507	7	Sololá	702	San José Chacayá	5	Chacayá	1	Enero	2023-01-24T00:00:00	2024-11-06T02:00:00	3	Temperatura mínima	4.4
74508	7	Sololá	702	San José Chacayá	5	Chacayá	1	Enero	2023-01-24T00:00:00	2024-11-06T02:00:00	5	Humedad	75
74509	7	Sololá	702	San José Chacayá	5	Chacayá	1	Enero	2023-01-24T00:00:00	2024-11-06T02:00:00	6	Velocidad del viento	1.6
74510	7	Sololá	702	San José Chacayá	5	Chacayá	1	Enero	2023-01-24T00:00:00	2024-11-06T02:00:00	7	Dirección del viento	1.61
74511	7	Sololá	702	San José Chacayá	5	Chacayá	1	Enero	2023-01-24T00:00:00	2024-11-06T02:00:00	1	Precipitación	0
74512	7	Sololá	702	San José Chacayá	5	Chacayá	1	Enero	2023-01-24T00:00:00	2024-11-06T02:00:00	8	Radiación solar	0
74513	7	Sololá	702	San José Chacayá	5	Chacayá	1	Enero	2023-01-24T00:00:00	2024-11-06T03:00:00	2	Temperatura media	3.8
74514	7	Sololá	702	San José Chacayá	5	Chacayá	1	Enero	2023-01-24T00:00:00	2024-11-06T03:00:00	4	Temperatura máxima	4.6
74515	7	Sololá	702	San José Chacayá	5	Chacayá	1	Enero	2023-01-24T00:00:00	2024-11-06T03:00:00	3	Temperatura mínima	3.8
74516	7	Sololá	702	San José Chacayá	5	Chacayá	1	Enero	2023-01-24T00:00:00	2024-11-06T03:00:00	5	Humedad	73
74517	7	Sololá	702	San José Chacayá	5	Chacayá	1	Enero	2023-01-24T00:00:00	2024-11-06T03:00:00	6	Velocidad del viento	1.6
74518	7	Sololá	702	San José Chacayá	5	Chacayá	1	Enero	2023-01-24T00:00:00	2024-11-06T03:00:00	7	Dirección del viento	1.61
74519	7	Sololá	702	San José Chacayá	5	Chacayá	1	Enero	2023-01-24T00:00:00	2024-11-06T03:00:00	1	Precipitación	0
74520	7	Sololá	702	San José Chacayá	5	Chacayá	1	Enero	2023-01-24T00:00:00	2024-11-06T03:00:00	8	Radiación solar	0
74521	7	Sololá	702	San José Chacayá	5	Chacayá	1	Enero	2023-01-24T00:00:00	2024-11-06T04:00:00	2	Temperatura media	3.6
74522	7	Sololá	702	San José Chacayá	5	Chacayá	1	Enero	2023-01-24T00:00:00	2024-11-06T04:00:00	4	Temperatura máxima	3.9
74523	7	Sololá	702	San José Chacayá	5	Chacayá	1	Enero	2023-01-24T00:00:00	2024-11-06T04:00:00	3	Temperatura mínima	3.5
74524	7	Sololá	702	San José Chacayá	5	Chacayá	1	Enero	2023-01-24T00:00:00	2024-11-06T04:00:00	5	Humedad	72
74525	7	Sololá	702	San José Chacayá	5	Chacayá	1	Enero	2023-01-24T00:00:00	2024-11-06T04:00:00	6	Velocidad del viento	1.6
74526	7	Sololá	702	San José Chacayá	5	Chacayá	1	Enero	2023-01-24T00:00:00	2024-11-06T04:00:00	7	Dirección del viento	1.61
74527	7	Sololá	702	San José Chacayá	5	Chacayá	1	Enero	2023-01-24T00:00:00	2024-11-06T04:00:00	1	Precipitación	0
74528	7	Sololá	702	San José Chacayá	5	Chacayá	1	Enero	2023-01-24T00:00:00	2024-11-06T04:00:00	8	Radiación solar	0
74529	7	Sololá	702	San José Chacayá	5	Chacayá	1	Enero	2023-01-24T00:00:00	2024-11-06T05:00:00	2	Temperatura media	3.4
74530	7	Sololá	702	San José Chacayá	5	Chacayá	1	Enero	2023-01-24T00:00:00	2024-11-06T05:00:00	4	Temperatura máxima	3.6
74531	7	Sololá	702	San José Chacayá	5	Chacayá	1	Enero	2023-01-24T00:00:00	2024-11-06T05:00:00	3	Temperatura mínima	3.3
74532	7	Sololá	702	San José Chacayá	5	Chacayá	1	Enero	2023-01-24T00:00:00	2024-11-06T05:00:00	5	Humedad	72
74533	7	Sololá	702	San José Chacayá	5	Chacayá	1	Enero	2023-01-24T00:00:00	2024-11-06T05:00:00	6	Velocidad del viento	1.6
74534	7	Sololá	702	San José Chacayá	5	Chacayá	1	Enero	2023-01-24T00:00:00	2024-11-06T05:00:00	7	Dirección del viento	1.61
74535	7	Sololá	702	San José Chacayá	5	Chacayá	1	Enero	2023-01-24T00:00:00	2024-11-06T05:00:00	1	Precipitación	0
74536	7	Sololá	702	San José Chacayá	5	Chacayá	1	Enero	2023-01-24T00:00:00	2024-11-06T05:00:00	8	Radiación solar	0
74537	7	Sololá	702	San José Chacayá	5	Chacayá	1	Enero	2023-01-24T00:00:00	2024-11-06T06:00:00	2	Temperatura media	4.4
74538	7	Sololá	702	San José Chacayá	5	Chacayá	1	Enero	2023-01-24T00:00:00	2024-11-06T06:00:00	4	Temperatura máxima	4.4
74539	7	Sololá	702	San José Chacayá	5	Chacayá	1	Enero	2023-01-24T00:00:00	2024-11-06T06:00:00	3	Temperatura mínima	3.4
74540	7	Sololá	702	San José Chacayá	5	Chacayá	1	Enero	2023-01-24T00:00:00	2024-11-06T06:00:00	5	Humedad	71
74541	7	Sololá	702	San José Chacayá	5	Chacayá	1	Enero	2023-01-24T00:00:00	2024-11-06T06:00:00	6	Velocidad del viento	1.6
74542	7	Sololá	702	San José Chacayá	5	Chacayá	1	Enero	2023-01-24T00:00:00	2024-11-06T06:00:00	7	Dirección del viento	1.61
74543	7	Sololá	702	San José Chacayá	5	Chacayá	1	Enero	2023-01-24T00:00:00	2024-11-06T06:00:00	1	Precipitación	0
74544	7	Sololá	702	San José Chacayá	5	Chacayá	1	Enero	2023-01-24T00:00:00	2024-11-06T06:00:00	8	Radiación solar	0
74545	7	Sololá	702	San José Chacayá	5	Chacayá	1	Enero	2023-01-24T00:00:00	2024-11-06T07:00:00	2	Temperatura media	10.4
74546	7	Sololá	702	San José Chacayá	5	Chacayá	1	Enero	2023-01-24T00:00:00	2024-11-06T07:00:00	4	Temperatura máxima	10.4
74547	7	Sololá	702	San José Chacayá	5	Chacayá	1	Enero	2023-01-24T00:00:00	2024-11-06T07:00:00	3	Temperatura mínima	4.4
74548	7	Sololá	702	San José Chacayá	5	Chacayá	1	Enero	2023-01-24T00:00:00	2024-11-06T07:00:00	5	Humedad	61
74549	7	Sololá	702	San José Chacayá	5	Chacayá	1	Enero	2023-01-24T00:00:00	2024-11-06T07:00:00	6	Velocidad del viento	3.2
74550	7	Sololá	702	San José Chacayá	5	Chacayá	1	Enero	2023-01-24T00:00:00	2024-11-06T07:00:00	7	Dirección del viento	3.22
74551	7	Sololá	702	San José Chacayá	5	Chacayá	1	Enero	2023-01-24T00:00:00	2024-11-06T07:00:00	1	Precipitación	0
74552	7	Sololá	702	San José Chacayá	5	Chacayá	1	Enero	2023-01-24T00:00:00	2024-11-06T07:00:00	8	Radiación solar	11
74553	7	Sololá	702	San José Chacayá	5	Chacayá	1	Enero	2023-01-24T00:00:00	2024-11-06T08:00:00	2	Temperatura media	18.1
74554	7	Sololá	702	San José Chacayá	5	Chacayá	1	Enero	2023-01-24T00:00:00	2024-11-06T08:00:00	4	Temperatura máxima	18.1
74555	7	Sololá	702	San José Chacayá	5	Chacayá	1	Enero	2023-01-24T00:00:00	2024-11-06T08:00:00	3	Temperatura mínima	10.4
74556	7	Sololá	702	San José Chacayá	5	Chacayá	1	Enero	2023-01-24T00:00:00	2024-11-06T08:00:00	5	Humedad	35
74557	7	Sololá	702	San José Chacayá	5	Chacayá	1	Enero	2023-01-24T00:00:00	2024-11-06T08:00:00	6	Velocidad del viento	3.2
74558	7	Sololá	702	San José Chacayá	5	Chacayá	1	Enero	2023-01-24T00:00:00	2024-11-06T08:00:00	7	Dirección del viento	3.22
74559	7	Sololá	702	San José Chacayá	5	Chacayá	1	Enero	2023-01-24T00:00:00	2024-11-06T08:00:00	1	Precipitación	0
74560	7	Sololá	702	San José Chacayá	5	Chacayá	1	Enero	2023-01-24T00:00:00	2024-11-06T08:00:00	8	Radiación solar	168
74561	7	Sololá	702	San José Chacayá	5	Chacayá	1	Enero	2023-01-24T00:00:00	2024-11-06T09:00:00	2	Temperatura media	20.6
74562	7	Sololá	702	San José Chacayá	5	Chacayá	1	Enero	2023-01-24T00:00:00	2024-11-06T09:00:00	4	Temperatura máxima	20.6
74563	7	Sololá	702	San José Chacayá	5	Chacayá	1	Enero	2023-01-24T00:00:00	2024-11-06T09:00:00	3	Temperatura mínima	18.1
74564	7	Sololá	702	San José Chacayá	5	Chacayá	1	Enero	2023-01-24T00:00:00	2024-11-06T09:00:00	5	Humedad	31
74565	7	Sololá	702	San José Chacayá	5	Chacayá	1	Enero	2023-01-24T00:00:00	2024-11-06T09:00:00	6	Velocidad del viento	3.2
74566	7	Sololá	702	San José Chacayá	5	Chacayá	1	Enero	2023-01-24T00:00:00	2024-11-06T09:00:00	7	Dirección del viento	3.22
74567	7	Sololá	702	San José Chacayá	5	Chacayá	1	Enero	2023-01-24T00:00:00	2024-11-06T09:00:00	1	Precipitación	0
74568	7	Sololá	702	San José Chacayá	5	Chacayá	1	Enero	2023-01-24T00:00:00	2024-11-06T09:00:00	8	Radiación solar	392
74569	7	Sololá	702	San José Chacayá	5	Chacayá	1	Enero	2023-01-24T00:00:00	2024-11-06T10:00:00	2	Temperatura media	21.7
74570	7	Sololá	702	San José Chacayá	5	Chacayá	1	Enero	2023-01-24T00:00:00	2024-11-06T10:00:00	4	Temperatura máxima	21.7
74571	7	Sololá	702	San José Chacayá	5	Chacayá	1	Enero	2023-01-24T00:00:00	2024-11-06T10:00:00	3	Temperatura mínima	20.6
74572	7	Sololá	702	San José Chacayá	5	Chacayá	1	Enero	2023-01-24T00:00:00	2024-11-06T10:00:00	5	Humedad	31
74573	7	Sololá	702	San José Chacayá	5	Chacayá	1	Enero	2023-01-24T00:00:00	2024-11-06T10:00:00	6	Velocidad del viento	4.8
74574	7	Sololá	702	San José Chacayá	5	Chacayá	1	Enero	2023-01-24T00:00:00	2024-11-06T10:00:00	7	Dirección del viento	4.83
74575	7	Sololá	702	San José Chacayá	5	Chacayá	1	Enero	2023-01-24T00:00:00	2024-11-06T10:00:00	1	Precipitación	0
74576	7	Sololá	702	San José Chacayá	5	Chacayá	1	Enero	2023-01-24T00:00:00	2024-11-06T10:00:00	8	Radiación solar	593
74577	7	Sololá	702	San José Chacayá	5	Chacayá	1	Enero	2023-01-24T00:00:00	2024-11-06T11:00:00	2	Temperatura media	21.7
74578	7	Sololá	702	San José Chacayá	5	Chacayá	1	Enero	2023-01-24T00:00:00	2024-11-06T11:00:00	4	Temperatura máxima	22.1
74579	7	Sololá	702	San José Chacayá	5	Chacayá	1	Enero	2023-01-24T00:00:00	2024-11-06T11:00:00	3	Temperatura mínima	21.5
74580	7	Sololá	702	San José Chacayá	5	Chacayá	1	Enero	2023-01-24T00:00:00	2024-11-06T11:00:00	5	Humedad	34
74581	7	Sololá	702	San José Chacayá	5	Chacayá	1	Enero	2023-01-24T00:00:00	2024-11-06T11:00:00	6	Velocidad del viento	6.4
74582	7	Sololá	702	San José Chacayá	5	Chacayá	1	Enero	2023-01-24T00:00:00	2024-11-06T11:00:00	7	Dirección del viento	6.44
74583	7	Sololá	702	San José Chacayá	5	Chacayá	1	Enero	2023-01-24T00:00:00	2024-11-06T11:00:00	1	Precipitación	0
74584	7	Sololá	702	San José Chacayá	5	Chacayá	1	Enero	2023-01-24T00:00:00	2024-11-06T11:00:00	8	Radiación solar	746
74585	7	Sololá	702	San José Chacayá	5	Chacayá	1	Enero	2023-01-24T00:00:00	2024-11-06T12:00:00	2	Temperatura media	22.4
74586	7	Sololá	702	San José Chacayá	5	Chacayá	1	Enero	2023-01-24T00:00:00	2024-11-06T12:00:00	4	Temperatura máxima	22.4
74587	7	Sololá	702	San José Chacayá	5	Chacayá	1	Enero	2023-01-24T00:00:00	2024-11-06T12:00:00	3	Temperatura mínima	21.6
74588	7	Sololá	702	San José Chacayá	5	Chacayá	1	Enero	2023-01-24T00:00:00	2024-11-06T12:00:00	5	Humedad	34
74589	7	Sololá	702	San José Chacayá	5	Chacayá	1	Enero	2023-01-24T00:00:00	2024-11-06T12:00:00	6	Velocidad del viento	6.4
74590	7	Sololá	702	San José Chacayá	5	Chacayá	1	Enero	2023-01-24T00:00:00	2024-11-06T12:00:00	7	Dirección del viento	6.44
74591	7	Sololá	702	San José Chacayá	5	Chacayá	1	Enero	2023-01-24T00:00:00	2024-11-06T12:00:00	1	Precipitación	0
74592	7	Sololá	702	San José Chacayá	5	Chacayá	1	Enero	2023-01-24T00:00:00	2024-11-06T12:00:00	8	Radiación solar	835
74593	7	Sololá	702	San José Chacayá	5	Chacayá	1	Enero	2023-01-24T00:00:00	2024-11-06T13:00:00	2	Temperatura media	20.8
74594	7	Sololá	702	San José Chacayá	5	Chacayá	1	Enero	2023-01-24T00:00:00	2024-11-06T13:00:00	4	Temperatura máxima	22.5
74595	7	Sololá	702	San José Chacayá	5	Chacayá	1	Enero	2023-01-24T00:00:00	2024-11-06T13:00:00	3	Temperatura mínima	20.7
74596	7	Sololá	702	San José Chacayá	5	Chacayá	1	Enero	2023-01-24T00:00:00	2024-11-06T13:00:00	5	Humedad	52
74597	7	Sololá	702	San José Chacayá	5	Chacayá	1	Enero	2023-01-24T00:00:00	2024-11-06T13:00:00	6	Velocidad del viento	8
74598	7	Sololá	702	San José Chacayá	5	Chacayá	1	Enero	2023-01-24T00:00:00	2024-11-06T13:00:00	7	Dirección del viento	8.05
74599	7	Sololá	702	San José Chacayá	5	Chacayá	1	Enero	2023-01-24T00:00:00	2024-11-06T13:00:00	1	Precipitación	0
74600	7	Sololá	702	San José Chacayá	5	Chacayá	1	Enero	2023-01-24T00:00:00	2024-11-06T13:00:00	8	Radiación solar	854
74601	7	Sololá	702	San José Chacayá	5	Chacayá	1	Enero	2023-01-24T00:00:00	2024-11-06T14:00:00	2	Temperatura media	19.3
74602	7	Sololá	702	San José Chacayá	5	Chacayá	1	Enero	2023-01-24T00:00:00	2024-11-06T14:00:00	4	Temperatura máxima	20.8
74603	7	Sololá	702	San José Chacayá	5	Chacayá	1	Enero	2023-01-24T00:00:00	2024-11-06T14:00:00	3	Temperatura mínima	19.3
74604	7	Sololá	702	San José Chacayá	5	Chacayá	1	Enero	2023-01-24T00:00:00	2024-11-06T14:00:00	5	Humedad	64
74605	7	Sololá	702	San José Chacayá	5	Chacayá	1	Enero	2023-01-24T00:00:00	2024-11-06T14:00:00	6	Velocidad del viento	4.8
74606	7	Sololá	702	San José Chacayá	5	Chacayá	1	Enero	2023-01-24T00:00:00	2024-11-06T14:00:00	7	Dirección del viento	4.83
74607	7	Sololá	702	San José Chacayá	5	Chacayá	1	Enero	2023-01-24T00:00:00	2024-11-06T14:00:00	1	Precipitación	0
74608	7	Sololá	702	San José Chacayá	5	Chacayá	1	Enero	2023-01-24T00:00:00	2024-11-06T14:00:00	8	Radiación solar	771
74609	7	Sololá	702	San José Chacayá	5	Chacayá	1	Enero	2023-01-24T00:00:00	2024-11-06T15:00:00	2	Temperatura media	17.3
74610	7	Sololá	702	San José Chacayá	5	Chacayá	1	Enero	2023-01-24T00:00:00	2024-11-06T15:00:00	4	Temperatura máxima	19.3
74611	7	Sololá	702	San José Chacayá	5	Chacayá	1	Enero	2023-01-24T00:00:00	2024-11-06T15:00:00	3	Temperatura mínima	17.3
74612	7	Sololá	702	San José Chacayá	5	Chacayá	1	Enero	2023-01-24T00:00:00	2024-11-06T15:00:00	5	Humedad	73
74613	7	Sololá	702	San José Chacayá	5	Chacayá	1	Enero	2023-01-24T00:00:00	2024-11-06T15:00:00	6	Velocidad del viento	4.8
74614	7	Sololá	702	San José Chacayá	5	Chacayá	1	Enero	2023-01-24T00:00:00	2024-11-06T15:00:00	7	Dirección del viento	4.83
74615	7	Sololá	702	San José Chacayá	5	Chacayá	1	Enero	2023-01-24T00:00:00	2024-11-06T15:00:00	1	Precipitación	0
74616	7	Sololá	702	San José Chacayá	5	Chacayá	1	Enero	2023-01-24T00:00:00	2024-11-06T15:00:00	8	Radiación solar	478
74617	7	Sololá	702	San José Chacayá	5	Chacayá	1	Enero	2023-01-24T00:00:00	2024-11-06T16:00:00	2	Temperatura media	16.1
74618	7	Sololá	702	San José Chacayá	5	Chacayá	1	Enero	2023-01-24T00:00:00	2024-11-06T16:00:00	4	Temperatura máxima	17.3
74619	7	Sololá	702	San José Chacayá	5	Chacayá	1	Enero	2023-01-24T00:00:00	2024-11-06T16:00:00	3	Temperatura mínima	16.1
74620	7	Sololá	702	San José Chacayá	5	Chacayá	1	Enero	2023-01-24T00:00:00	2024-11-06T16:00:00	5	Humedad	78
74621	7	Sololá	702	San José Chacayá	5	Chacayá	1	Enero	2023-01-24T00:00:00	2024-11-06T16:00:00	6	Velocidad del viento	4.8
74622	7	Sololá	702	San José Chacayá	5	Chacayá	1	Enero	2023-01-24T00:00:00	2024-11-06T16:00:00	7	Dirección del viento	4.83
74623	7	Sololá	702	San José Chacayá	5	Chacayá	1	Enero	2023-01-24T00:00:00	2024-11-06T16:00:00	1	Precipitación	0
74624	7	Sololá	702	San José Chacayá	5	Chacayá	1	Enero	2023-01-24T00:00:00	2024-11-06T16:00:00	8	Radiación solar	490
74625	7	Sololá	702	San José Chacayá	5	Chacayá	1	Enero	2023-01-24T00:00:00	2024-11-06T17:00:00	2	Temperatura media	14.5
74626	7	Sololá	702	San José Chacayá	5	Chacayá	1	Enero	2023-01-24T00:00:00	2024-11-06T17:00:00	4	Temperatura máxima	16.1
74627	7	Sololá	702	San José Chacayá	5	Chacayá	1	Enero	2023-01-24T00:00:00	2024-11-06T17:00:00	3	Temperatura mínima	14.5
74628	7	Sololá	702	San José Chacayá	5	Chacayá	1	Enero	2023-01-24T00:00:00	2024-11-06T17:00:00	5	Humedad	85
74629	7	Sololá	702	San José Chacayá	5	Chacayá	1	Enero	2023-01-24T00:00:00	2024-11-06T17:00:00	6	Velocidad del viento	1.6
74630	7	Sololá	702	San José Chacayá	5	Chacayá	1	Enero	2023-01-24T00:00:00	2024-11-06T17:00:00	7	Dirección del viento	1.61
74631	7	Sololá	702	San José Chacayá	5	Chacayá	1	Enero	2023-01-24T00:00:00	2024-11-06T17:00:00	1	Precipitación	0
74632	7	Sololá	702	San José Chacayá	5	Chacayá	1	Enero	2023-01-24T00:00:00	2024-11-06T17:00:00	8	Radiación solar	264
74633	7	Sololá	702	San José Chacayá	5	Chacayá	1	Enero	2023-01-24T00:00:00	2024-11-06T18:00:00	2	Temperatura media	13.2
74634	7	Sololá	702	San José Chacayá	5	Chacayá	1	Enero	2023-01-24T00:00:00	2024-11-06T18:00:00	4	Temperatura máxima	14.5
74635	7	Sololá	702	San José Chacayá	5	Chacayá	1	Enero	2023-01-24T00:00:00	2024-11-06T18:00:00	3	Temperatura mínima	13.2
74636	7	Sololá	702	San José Chacayá	5	Chacayá	1	Enero	2023-01-24T00:00:00	2024-11-06T18:00:00	5	Humedad	86
74637	7	Sololá	702	San José Chacayá	5	Chacayá	1	Enero	2023-01-24T00:00:00	2024-11-06T18:00:00	6	Velocidad del viento	0
74638	7	Sololá	702	San José Chacayá	5	Chacayá	1	Enero	2023-01-24T00:00:00	2024-11-06T18:00:00	7	Dirección del viento	0
74639	7	Sololá	702	San José Chacayá	5	Chacayá	1	Enero	2023-01-24T00:00:00	2024-11-06T18:00:00	1	Precipitación	0
74640	7	Sololá	702	San José Chacayá	5	Chacayá	1	Enero	2023-01-24T00:00:00	2024-11-06T18:00:00	8	Radiación solar	16
74641	7	Sololá	702	San José Chacayá	5	Chacayá	1	Enero	2023-01-24T00:00:00	2024-11-06T19:00:00	2	Temperatura media	11
74642	7	Sololá	702	San José Chacayá	5	Chacayá	1	Enero	2023-01-24T00:00:00	2024-11-06T19:00:00	4	Temperatura máxima	13.2
74643	7	Sololá	702	San José Chacayá	5	Chacayá	1	Enero	2023-01-24T00:00:00	2024-11-06T19:00:00	3	Temperatura mínima	11
74644	7	Sololá	702	San José Chacayá	5	Chacayá	1	Enero	2023-01-24T00:00:00	2024-11-06T19:00:00	5	Humedad	89
74645	7	Sololá	702	San José Chacayá	5	Chacayá	1	Enero	2023-01-24T00:00:00	2024-11-06T19:00:00	6	Velocidad del viento	1.6
74646	7	Sololá	702	San José Chacayá	5	Chacayá	1	Enero	2023-01-24T00:00:00	2024-11-06T19:00:00	7	Dirección del viento	1.61
74647	7	Sololá	702	San José Chacayá	5	Chacayá	1	Enero	2023-01-24T00:00:00	2024-11-06T19:00:00	1	Precipitación	0
74648	7	Sololá	702	San José Chacayá	5	Chacayá	1	Enero	2023-01-24T00:00:00	2024-11-06T19:00:00	8	Radiación solar	0
74649	7	Sololá	702	San José Chacayá	5	Chacayá	1	Enero	2023-01-24T00:00:00	2024-11-06T20:00:00	2	Temperatura media	9.6
74650	7	Sololá	702	San José Chacayá	5	Chacayá	1	Enero	2023-01-24T00:00:00	2024-11-06T20:00:00	4	Temperatura máxima	11
74651	7	Sololá	702	San José Chacayá	5	Chacayá	1	Enero	2023-01-24T00:00:00	2024-11-06T20:00:00	3	Temperatura mínima	9.6
74652	7	Sololá	702	San José Chacayá	5	Chacayá	1	Enero	2023-01-24T00:00:00	2024-11-06T20:00:00	5	Humedad	89
74653	7	Sololá	702	San José Chacayá	5	Chacayá	1	Enero	2023-01-24T00:00:00	2024-11-06T20:00:00	6	Velocidad del viento	1.6
74654	7	Sololá	702	San José Chacayá	5	Chacayá	1	Enero	2023-01-24T00:00:00	2024-11-06T20:00:00	7	Dirección del viento	1.61
74655	7	Sololá	702	San José Chacayá	5	Chacayá	1	Enero	2023-01-24T00:00:00	2024-11-06T20:00:00	1	Precipitación	0
74656	7	Sololá	702	San José Chacayá	5	Chacayá	1	Enero	2023-01-24T00:00:00	2024-11-06T20:00:00	8	Radiación solar	0
74657	7	Sololá	702	San José Chacayá	5	Chacayá	1	Enero	2023-01-24T00:00:00	2024-11-06T21:00:00	2	Temperatura media	8
74658	7	Sololá	702	San José Chacayá	5	Chacayá	1	Enero	2023-01-24T00:00:00	2024-11-06T21:00:00	4	Temperatura máxima	9.6
74659	7	Sololá	702	San José Chacayá	5	Chacayá	1	Enero	2023-01-24T00:00:00	2024-11-06T21:00:00	3	Temperatura mínima	8
74660	7	Sololá	702	San José Chacayá	5	Chacayá	1	Enero	2023-01-24T00:00:00	2024-11-06T21:00:00	5	Humedad	86
74661	7	Sololá	702	San José Chacayá	5	Chacayá	1	Enero	2023-01-24T00:00:00	2024-11-06T21:00:00	6	Velocidad del viento	1.6
74662	7	Sololá	702	San José Chacayá	5	Chacayá	1	Enero	2023-01-24T00:00:00	2024-11-06T21:00:00	7	Dirección del viento	1.61
74663	7	Sololá	702	San José Chacayá	5	Chacayá	1	Enero	2023-01-24T00:00:00	2024-11-06T21:00:00	1	Precipitación	0
74664	7	Sololá	702	San José Chacayá	5	Chacayá	1	Enero	2023-01-24T00:00:00	2024-11-06T21:00:00	8	Radiación solar	0
74665	7	Sololá	702	San José Chacayá	5	Chacayá	1	Enero	2023-01-24T00:00:00	2024-11-06T22:00:00	2	Temperatura media	7.1
74666	7	Sololá	702	San José Chacayá	5	Chacayá	1	Enero	2023-01-24T00:00:00	2024-11-06T22:00:00	4	Temperatura máxima	8
74667	7	Sololá	702	San José Chacayá	5	Chacayá	1	Enero	2023-01-24T00:00:00	2024-11-06T22:00:00	3	Temperatura mínima	7
74668	7	Sololá	702	San José Chacayá	5	Chacayá	1	Enero	2023-01-24T00:00:00	2024-11-06T22:00:00	5	Humedad	86
74669	7	Sololá	702	San José Chacayá	5	Chacayá	1	Enero	2023-01-24T00:00:00	2024-11-06T22:00:00	6	Velocidad del viento	1.6
74670	7	Sololá	702	San José Chacayá	5	Chacayá	1	Enero	2023-01-24T00:00:00	2024-11-06T22:00:00	7	Dirección del viento	1.61
74671	7	Sololá	702	San José Chacayá	5	Chacayá	1	Enero	2023-01-24T00:00:00	2024-11-06T22:00:00	1	Precipitación	0
74672	7	Sololá	702	San José Chacayá	5	Chacayá	1	Enero	2023-01-24T00:00:00	2024-11-06T22:00:00	8	Radiación solar	0
74673	7	Sololá	702	San José Chacayá	5	Chacayá	1	Enero	2023-01-24T00:00:00	2024-11-06T23:00:00	2	Temperatura media	6.4
74674	7	Sololá	702	San José Chacayá	5	Chacayá	1	Enero	2023-01-24T00:00:00	2024-11-06T23:00:00	4	Temperatura máxima	7.1
74675	7	Sololá	702	San José Chacayá	5	Chacayá	1	Enero	2023-01-24T00:00:00	2024-11-06T23:00:00	3	Temperatura mínima	6.4
74676	7	Sololá	702	San José Chacayá	5	Chacayá	1	Enero	2023-01-24T00:00:00	2024-11-06T23:00:00	5	Humedad	86
74677	7	Sololá	702	San José Chacayá	5	Chacayá	1	Enero	2023-01-24T00:00:00	2024-11-06T23:00:00	6	Velocidad del viento	1.6
74678	7	Sololá	702	San José Chacayá	5	Chacayá	1	Enero	2023-01-24T00:00:00	2024-11-06T23:00:00	7	Dirección del viento	1.61
74679	7	Sololá	702	San José Chacayá	5	Chacayá	1	Enero	2023-01-24T00:00:00	2024-11-06T23:00:00	1	Precipitación	0
74680	7	Sololá	702	San José Chacayá	5	Chacayá	1	Enero	2023-01-24T00:00:00	2024-11-06T23:00:00	8	Radiación solar	0
74681	7	Sololá	702	San José Chacayá	5	Chacayá	1	Enero	2023-01-25T00:00:00	2024-11-06T00:00:00	2	Temperatura media	6.3
74682	7	Sololá	702	San José Chacayá	5	Chacayá	1	Enero	2023-01-25T00:00:00	2024-11-06T00:00:00	4	Temperatura máxima	6.4
74683	7	Sololá	702	San José Chacayá	5	Chacayá	1	Enero	2023-01-25T00:00:00	2024-11-06T00:00:00	3	Temperatura mínima	6.1
74684	7	Sololá	702	San José Chacayá	5	Chacayá	1	Enero	2023-01-25T00:00:00	2024-11-06T00:00:00	5	Humedad	86
74685	7	Sololá	702	San José Chacayá	5	Chacayá	1	Enero	2023-01-25T00:00:00	2024-11-06T00:00:00	6	Velocidad del viento	1.6
74686	7	Sololá	702	San José Chacayá	5	Chacayá	1	Enero	2023-01-25T00:00:00	2024-11-06T00:00:00	7	Dirección del viento	1.61
74687	7	Sololá	702	San José Chacayá	5	Chacayá	1	Enero	2023-01-25T00:00:00	2024-11-06T00:00:00	1	Precipitación	0
74688	7	Sololá	702	San José Chacayá	5	Chacayá	1	Enero	2023-01-25T00:00:00	2024-11-06T00:00:00	8	Radiación solar	0
74689	7	Sololá	702	San José Chacayá	5	Chacayá	1	Enero	2023-01-25T00:00:00	2024-11-06T01:00:00	2	Temperatura media	6.2
74690	7	Sololá	702	San José Chacayá	5	Chacayá	1	Enero	2023-01-25T00:00:00	2024-11-06T01:00:00	4	Temperatura máxima	6.4
74691	7	Sololá	702	San José Chacayá	5	Chacayá	1	Enero	2023-01-25T00:00:00	2024-11-06T01:00:00	3	Temperatura mínima	6.1
74692	7	Sololá	702	San José Chacayá	5	Chacayá	1	Enero	2023-01-25T00:00:00	2024-11-06T01:00:00	5	Humedad	88
74693	7	Sololá	702	San José Chacayá	5	Chacayá	1	Enero	2023-01-25T00:00:00	2024-11-06T01:00:00	6	Velocidad del viento	1.6
74694	7	Sololá	702	San José Chacayá	5	Chacayá	1	Enero	2023-01-25T00:00:00	2024-11-06T01:00:00	7	Dirección del viento	1.61
74695	7	Sololá	702	San José Chacayá	5	Chacayá	1	Enero	2023-01-25T00:00:00	2024-11-06T01:00:00	1	Precipitación	0
74696	7	Sololá	702	San José Chacayá	5	Chacayá	1	Enero	2023-01-25T00:00:00	2024-11-06T01:00:00	8	Radiación solar	0
74697	7	Sololá	702	San José Chacayá	5	Chacayá	1	Enero	2023-01-25T00:00:00	2024-11-06T02:00:00	2	Temperatura media	5.9
74698	7	Sololá	702	San José Chacayá	5	Chacayá	1	Enero	2023-01-25T00:00:00	2024-11-06T02:00:00	4	Temperatura máxima	6.2
74699	7	Sololá	702	San José Chacayá	5	Chacayá	1	Enero	2023-01-25T00:00:00	2024-11-06T02:00:00	3	Temperatura mínima	5.9
74700	7	Sololá	702	San José Chacayá	5	Chacayá	1	Enero	2023-01-25T00:00:00	2024-11-06T02:00:00	5	Humedad	91
74701	7	Sololá	702	San José Chacayá	5	Chacayá	1	Enero	2023-01-25T00:00:00	2024-11-06T02:00:00	6	Velocidad del viento	1.6
74702	7	Sololá	702	San José Chacayá	5	Chacayá	1	Enero	2023-01-25T00:00:00	2024-11-06T02:00:00	7	Dirección del viento	1.61
74703	7	Sololá	702	San José Chacayá	5	Chacayá	1	Enero	2023-01-25T00:00:00	2024-11-06T02:00:00	1	Precipitación	0
74704	7	Sololá	702	San José Chacayá	5	Chacayá	1	Enero	2023-01-25T00:00:00	2024-11-06T02:00:00	8	Radiación solar	0
74705	7	Sololá	702	San José Chacayá	5	Chacayá	1	Enero	2023-01-25T00:00:00	2024-11-06T03:00:00	2	Temperatura media	5.7
74706	7	Sololá	702	San José Chacayá	5	Chacayá	1	Enero	2023-01-25T00:00:00	2024-11-06T03:00:00	4	Temperatura máxima	6
74707	7	Sololá	702	San José Chacayá	5	Chacayá	1	Enero	2023-01-25T00:00:00	2024-11-06T03:00:00	3	Temperatura mínima	5.7
74708	7	Sololá	702	San José Chacayá	5	Chacayá	1	Enero	2023-01-25T00:00:00	2024-11-06T03:00:00	5	Humedad	91
74709	7	Sololá	702	San José Chacayá	5	Chacayá	1	Enero	2023-01-25T00:00:00	2024-11-06T03:00:00	6	Velocidad del viento	1.6
74710	7	Sololá	702	San José Chacayá	5	Chacayá	1	Enero	2023-01-25T00:00:00	2024-11-06T03:00:00	7	Dirección del viento	1.61
74711	7	Sololá	702	San José Chacayá	5	Chacayá	1	Enero	2023-01-25T00:00:00	2024-11-06T03:00:00	1	Precipitación	0
74712	7	Sololá	702	San José Chacayá	5	Chacayá	1	Enero	2023-01-25T00:00:00	2024-11-06T03:00:00	8	Radiación solar	0
74713	7	Sololá	702	San José Chacayá	5	Chacayá	1	Enero	2023-01-25T00:00:00	2024-11-06T04:00:00	2	Temperatura media	5.5
74714	7	Sololá	702	San José Chacayá	5	Chacayá	1	Enero	2023-01-25T00:00:00	2024-11-06T04:00:00	4	Temperatura máxima	5.9
74715	7	Sololá	702	San José Chacayá	5	Chacayá	1	Enero	2023-01-25T00:00:00	2024-11-06T04:00:00	3	Temperatura mínima	5.4
74716	7	Sololá	702	San José Chacayá	5	Chacayá	1	Enero	2023-01-25T00:00:00	2024-11-06T04:00:00	5	Humedad	91
74717	7	Sololá	702	San José Chacayá	5	Chacayá	1	Enero	2023-01-25T00:00:00	2024-11-06T04:00:00	6	Velocidad del viento	1.6
74718	7	Sololá	702	San José Chacayá	5	Chacayá	1	Enero	2023-01-25T00:00:00	2024-11-06T04:00:00	7	Dirección del viento	1.61
74719	7	Sololá	702	San José Chacayá	5	Chacayá	1	Enero	2023-01-25T00:00:00	2024-11-06T04:00:00	1	Precipitación	0
74720	7	Sololá	702	San José Chacayá	5	Chacayá	1	Enero	2023-01-25T00:00:00	2024-11-06T04:00:00	8	Radiación solar	0
74721	7	Sololá	702	San José Chacayá	5	Chacayá	1	Enero	2023-01-25T00:00:00	2024-11-06T05:00:00	2	Temperatura media	5.9
74722	7	Sololá	702	San José Chacayá	5	Chacayá	1	Enero	2023-01-25T00:00:00	2024-11-06T05:00:00	4	Temperatura máxima	5.9
74723	7	Sololá	702	San José Chacayá	5	Chacayá	1	Enero	2023-01-25T00:00:00	2024-11-06T05:00:00	3	Temperatura mínima	5.5
74724	7	Sololá	702	San José Chacayá	5	Chacayá	1	Enero	2023-01-25T00:00:00	2024-11-06T05:00:00	5	Humedad	94
74725	7	Sololá	702	San José Chacayá	5	Chacayá	1	Enero	2023-01-25T00:00:00	2024-11-06T05:00:00	6	Velocidad del viento	1.6
74726	7	Sololá	702	San José Chacayá	5	Chacayá	1	Enero	2023-01-25T00:00:00	2024-11-06T05:00:00	7	Dirección del viento	1.61
74727	7	Sololá	702	San José Chacayá	5	Chacayá	1	Enero	2023-01-25T00:00:00	2024-11-06T05:00:00	1	Precipitación	0
74728	7	Sololá	702	San José Chacayá	5	Chacayá	1	Enero	2023-01-25T00:00:00	2024-11-06T05:00:00	8	Radiación solar	0
74729	7	Sololá	702	San José Chacayá	5	Chacayá	1	Enero	2023-01-25T00:00:00	2024-11-06T06:00:00	2	Temperatura media	6.4
74730	7	Sololá	702	San José Chacayá	5	Chacayá	1	Enero	2023-01-25T00:00:00	2024-11-06T06:00:00	4	Temperatura máxima	6.4
74731	7	Sololá	702	San José Chacayá	5	Chacayá	1	Enero	2023-01-25T00:00:00	2024-11-06T06:00:00	3	Temperatura mínima	5.8
74732	7	Sololá	702	San José Chacayá	5	Chacayá	1	Enero	2023-01-25T00:00:00	2024-11-06T06:00:00	5	Humedad	93
74733	7	Sololá	702	San José Chacayá	5	Chacayá	1	Enero	2023-01-25T00:00:00	2024-11-06T06:00:00	6	Velocidad del viento	1.6
74734	7	Sololá	702	San José Chacayá	5	Chacayá	1	Enero	2023-01-25T00:00:00	2024-11-06T06:00:00	7	Dirección del viento	1.61
74735	7	Sololá	702	San José Chacayá	5	Chacayá	1	Enero	2023-01-25T00:00:00	2024-11-06T06:00:00	1	Precipitación	0
74736	7	Sololá	702	San José Chacayá	5	Chacayá	1	Enero	2023-01-25T00:00:00	2024-11-06T06:00:00	8	Radiación solar	0
74737	7	Sololá	702	San José Chacayá	5	Chacayá	1	Enero	2023-01-25T00:00:00	2024-11-06T07:00:00	2	Temperatura media	11.7
74738	7	Sololá	702	San José Chacayá	5	Chacayá	1	Enero	2023-01-25T00:00:00	2024-11-06T07:00:00	4	Temperatura máxima	11.7
74739	7	Sololá	702	San José Chacayá	5	Chacayá	1	Enero	2023-01-25T00:00:00	2024-11-06T07:00:00	3	Temperatura mínima	6.4
74740	7	Sololá	702	San José Chacayá	5	Chacayá	1	Enero	2023-01-25T00:00:00	2024-11-06T07:00:00	5	Humedad	82
74741	7	Sololá	702	San José Chacayá	5	Chacayá	1	Enero	2023-01-25T00:00:00	2024-11-06T07:00:00	6	Velocidad del viento	1.6
74742	7	Sololá	702	San José Chacayá	5	Chacayá	1	Enero	2023-01-25T00:00:00	2024-11-06T07:00:00	7	Dirección del viento	1.61
74743	7	Sololá	702	San José Chacayá	5	Chacayá	1	Enero	2023-01-25T00:00:00	2024-11-06T07:00:00	1	Precipitación	0
74744	7	Sololá	702	San José Chacayá	5	Chacayá	1	Enero	2023-01-25T00:00:00	2024-11-06T07:00:00	8	Radiación solar	9
74745	7	Sololá	702	San José Chacayá	5	Chacayá	1	Enero	2023-01-25T00:00:00	2024-11-06T08:00:00	2	Temperatura media	17.6
74746	7	Sololá	702	San José Chacayá	5	Chacayá	1	Enero	2023-01-25T00:00:00	2024-11-06T08:00:00	4	Temperatura máxima	17.6
74747	7	Sololá	702	San José Chacayá	5	Chacayá	1	Enero	2023-01-25T00:00:00	2024-11-06T08:00:00	3	Temperatura mínima	11.7
74748	7	Sololá	702	San José Chacayá	5	Chacayá	1	Enero	2023-01-25T00:00:00	2024-11-06T08:00:00	5	Humedad	62
74749	7	Sololá	702	San José Chacayá	5	Chacayá	1	Enero	2023-01-25T00:00:00	2024-11-06T08:00:00	6	Velocidad del viento	1.6
74750	7	Sololá	702	San José Chacayá	5	Chacayá	1	Enero	2023-01-25T00:00:00	2024-11-06T08:00:00	7	Dirección del viento	1.61
74751	7	Sololá	702	San José Chacayá	5	Chacayá	1	Enero	2023-01-25T00:00:00	2024-11-06T08:00:00	1	Precipitación	0
74752	7	Sololá	702	San José Chacayá	5	Chacayá	1	Enero	2023-01-25T00:00:00	2024-11-06T08:00:00	8	Radiación solar	199
74753	7	Sololá	702	San José Chacayá	5	Chacayá	1	Enero	2023-01-25T00:00:00	2024-11-06T09:00:00	2	Temperatura media	19.3
74754	7	Sololá	702	San José Chacayá	5	Chacayá	1	Enero	2023-01-25T00:00:00	2024-11-06T09:00:00	4	Temperatura máxima	19.3
74755	7	Sololá	702	San José Chacayá	5	Chacayá	1	Enero	2023-01-25T00:00:00	2024-11-06T09:00:00	3	Temperatura mínima	17.5
74756	7	Sololá	702	San José Chacayá	5	Chacayá	1	Enero	2023-01-25T00:00:00	2024-11-06T09:00:00	5	Humedad	61
74757	7	Sololá	702	San José Chacayá	5	Chacayá	1	Enero	2023-01-25T00:00:00	2024-11-06T09:00:00	6	Velocidad del viento	3.2
74758	7	Sololá	702	San José Chacayá	5	Chacayá	1	Enero	2023-01-25T00:00:00	2024-11-06T09:00:00	7	Dirección del viento	3.22
74759	7	Sololá	702	San José Chacayá	5	Chacayá	1	Enero	2023-01-25T00:00:00	2024-11-06T09:00:00	1	Precipitación	0
74760	7	Sololá	702	San José Chacayá	5	Chacayá	1	Enero	2023-01-25T00:00:00	2024-11-06T09:00:00	8	Radiación solar	422
74761	7	Sololá	702	San José Chacayá	5	Chacayá	1	Enero	2023-01-25T00:00:00	2024-11-06T10:00:00	2	Temperatura media	20.2
74762	7	Sololá	702	San José Chacayá	5	Chacayá	1	Enero	2023-01-25T00:00:00	2024-11-06T10:00:00	4	Temperatura máxima	20.9
74763	7	Sololá	702	San José Chacayá	5	Chacayá	1	Enero	2023-01-25T00:00:00	2024-11-06T10:00:00	3	Temperatura mínima	19.3
74764	7	Sololá	702	San José Chacayá	5	Chacayá	1	Enero	2023-01-25T00:00:00	2024-11-06T10:00:00	5	Humedad	53
74765	7	Sololá	702	San José Chacayá	5	Chacayá	1	Enero	2023-01-25T00:00:00	2024-11-06T10:00:00	6	Velocidad del viento	4.8
74766	7	Sololá	702	San José Chacayá	5	Chacayá	1	Enero	2023-01-25T00:00:00	2024-11-06T10:00:00	7	Dirección del viento	4.83
74767	7	Sololá	702	San José Chacayá	5	Chacayá	1	Enero	2023-01-25T00:00:00	2024-11-06T10:00:00	1	Precipitación	0
74768	7	Sololá	702	San José Chacayá	5	Chacayá	1	Enero	2023-01-25T00:00:00	2024-11-06T10:00:00	8	Radiación solar	142
74769	7	Sololá	702	San José Chacayá	5	Chacayá	1	Enero	2023-01-25T00:00:00	2024-11-06T11:00:00	2	Temperatura media	20.7
74770	7	Sololá	702	San José Chacayá	5	Chacayá	1	Enero	2023-01-25T00:00:00	2024-11-06T11:00:00	4	Temperatura máxima	20.7
74771	7	Sololá	702	San José Chacayá	5	Chacayá	1	Enero	2023-01-25T00:00:00	2024-11-06T11:00:00	3	Temperatura mínima	20.2
74772	7	Sololá	702	San José Chacayá	5	Chacayá	1	Enero	2023-01-25T00:00:00	2024-11-06T11:00:00	5	Humedad	49
74773	7	Sololá	702	San José Chacayá	5	Chacayá	1	Enero	2023-01-25T00:00:00	2024-11-06T11:00:00	6	Velocidad del viento	6.4
74774	7	Sololá	702	San José Chacayá	5	Chacayá	1	Enero	2023-01-25T00:00:00	2024-11-06T11:00:00	7	Dirección del viento	6.44
74775	7	Sololá	702	San José Chacayá	5	Chacayá	1	Enero	2023-01-25T00:00:00	2024-11-06T11:00:00	1	Precipitación	0
74776	7	Sololá	702	San José Chacayá	5	Chacayá	1	Enero	2023-01-25T00:00:00	2024-11-06T11:00:00	8	Radiación solar	31
74777	7	Sololá	702	San José Chacayá	5	Chacayá	1	Enero	2023-01-25T00:00:00	2024-11-06T12:00:00	2	Temperatura media	20.3
74778	7	Sololá	702	San José Chacayá	5	Chacayá	1	Enero	2023-01-25T00:00:00	2024-11-06T12:00:00	4	Temperatura máxima	21
74779	7	Sololá	702	San José Chacayá	5	Chacayá	1	Enero	2023-01-25T00:00:00	2024-11-06T12:00:00	3	Temperatura mínima	20.1
74780	7	Sololá	702	San José Chacayá	5	Chacayá	1	Enero	2023-01-25T00:00:00	2024-11-06T12:00:00	5	Humedad	63
74781	7	Sololá	702	San José Chacayá	5	Chacayá	1	Enero	2023-01-25T00:00:00	2024-11-06T12:00:00	6	Velocidad del viento	6.4
74782	7	Sololá	702	San José Chacayá	5	Chacayá	1	Enero	2023-01-25T00:00:00	2024-11-06T12:00:00	7	Dirección del viento	6.44
74783	7	Sololá	702	San José Chacayá	5	Chacayá	1	Enero	2023-01-25T00:00:00	2024-11-06T12:00:00	1	Precipitación	0
74784	7	Sololá	702	San José Chacayá	5	Chacayá	1	Enero	2023-01-25T00:00:00	2024-11-06T12:00:00	8	Radiación solar	654
74785	7	Sololá	702	San José Chacayá	5	Chacayá	1	Enero	2023-01-25T00:00:00	2024-11-06T13:00:00	2	Temperatura media	20.4
74786	7	Sololá	702	San José Chacayá	5	Chacayá	1	Enero	2023-01-25T00:00:00	2024-11-06T13:00:00	4	Temperatura máxima	20.9
74787	7	Sololá	702	San José Chacayá	5	Chacayá	1	Enero	2023-01-25T00:00:00	2024-11-06T13:00:00	3	Temperatura mínima	19.9
74788	7	Sololá	702	San José Chacayá	5	Chacayá	1	Enero	2023-01-25T00:00:00	2024-11-06T13:00:00	5	Humedad	65
74789	7	Sololá	702	San José Chacayá	5	Chacayá	1	Enero	2023-01-25T00:00:00	2024-11-06T13:00:00	6	Velocidad del viento	6.4
74790	7	Sololá	702	San José Chacayá	5	Chacayá	1	Enero	2023-01-25T00:00:00	2024-11-06T13:00:00	7	Dirección del viento	6.44
74791	7	Sololá	702	San José Chacayá	5	Chacayá	1	Enero	2023-01-25T00:00:00	2024-11-06T13:00:00	1	Precipitación	0
74792	7	Sololá	702	San José Chacayá	5	Chacayá	1	Enero	2023-01-25T00:00:00	2024-11-06T13:00:00	8	Radiación solar	860
74793	7	Sololá	702	San José Chacayá	5	Chacayá	1	Enero	2023-01-25T00:00:00	2024-11-06T14:00:00	2	Temperatura media	20.2
74794	7	Sololá	702	San José Chacayá	5	Chacayá	1	Enero	2023-01-25T00:00:00	2024-11-06T14:00:00	4	Temperatura máxima	20.7
74795	7	Sololá	702	San José Chacayá	5	Chacayá	1	Enero	2023-01-25T00:00:00	2024-11-06T14:00:00	3	Temperatura mínima	20.1
74796	7	Sololá	702	San José Chacayá	5	Chacayá	1	Enero	2023-01-25T00:00:00	2024-11-06T14:00:00	5	Humedad	66
74797	7	Sololá	702	San José Chacayá	5	Chacayá	1	Enero	2023-01-25T00:00:00	2024-11-06T14:00:00	6	Velocidad del viento	6.4
74798	7	Sololá	702	San José Chacayá	5	Chacayá	1	Enero	2023-01-25T00:00:00	2024-11-06T14:00:00	7	Dirección del viento	6.44
74799	7	Sololá	702	San José Chacayá	5	Chacayá	1	Enero	2023-01-25T00:00:00	2024-11-06T14:00:00	1	Precipitación	0
74800	7	Sololá	702	San José Chacayá	5	Chacayá	1	Enero	2023-01-25T00:00:00	2024-11-06T14:00:00	8	Radiación solar	794
74801	7	Sololá	702	San José Chacayá	5	Chacayá	1	Enero	2023-01-25T00:00:00	2024-11-06T15:00:00	2	Temperatura media	19.4
74802	7	Sololá	702	San José Chacayá	5	Chacayá	1	Enero	2023-01-25T00:00:00	2024-11-06T15:00:00	4	Temperatura máxima	20.3
74803	7	Sololá	702	San José Chacayá	5	Chacayá	1	Enero	2023-01-25T00:00:00	2024-11-06T15:00:00	3	Temperatura mínima	19.3
74804	7	Sololá	702	San José Chacayá	5	Chacayá	1	Enero	2023-01-25T00:00:00	2024-11-06T15:00:00	5	Humedad	68
74805	7	Sololá	702	San José Chacayá	5	Chacayá	1	Enero	2023-01-25T00:00:00	2024-11-06T15:00:00	6	Velocidad del viento	6.4
74806	7	Sololá	702	San José Chacayá	5	Chacayá	1	Enero	2023-01-25T00:00:00	2024-11-06T15:00:00	7	Dirección del viento	6.44
74807	7	Sololá	702	San José Chacayá	5	Chacayá	1	Enero	2023-01-25T00:00:00	2024-11-06T15:00:00	1	Precipitación	0
74808	7	Sololá	702	San José Chacayá	5	Chacayá	1	Enero	2023-01-25T00:00:00	2024-11-06T15:00:00	8	Radiación solar	597
74809	7	Sololá	702	San José Chacayá	5	Chacayá	1	Enero	2023-01-25T00:00:00	2024-11-06T16:00:00	2	Temperatura media	18.5
74810	7	Sololá	702	San José Chacayá	5	Chacayá	1	Enero	2023-01-25T00:00:00	2024-11-06T16:00:00	4	Temperatura máxima	19.8
74811	7	Sololá	702	San José Chacayá	5	Chacayá	1	Enero	2023-01-25T00:00:00	2024-11-06T16:00:00	3	Temperatura mínima	18.5
74812	7	Sololá	702	San José Chacayá	5	Chacayá	1	Enero	2023-01-25T00:00:00	2024-11-06T16:00:00	5	Humedad	76
74813	7	Sololá	702	San José Chacayá	5	Chacayá	1	Enero	2023-01-25T00:00:00	2024-11-06T16:00:00	6	Velocidad del viento	3.2
74814	7	Sololá	702	San José Chacayá	5	Chacayá	1	Enero	2023-01-25T00:00:00	2024-11-06T16:00:00	7	Dirección del viento	3.22
74815	7	Sololá	702	San José Chacayá	5	Chacayá	1	Enero	2023-01-25T00:00:00	2024-11-06T16:00:00	1	Precipitación	0
74816	7	Sololá	702	San José Chacayá	5	Chacayá	1	Enero	2023-01-25T00:00:00	2024-11-06T16:00:00	8	Radiación solar	410
74817	7	Sololá	702	San José Chacayá	5	Chacayá	1	Enero	2023-01-25T00:00:00	2024-11-06T17:00:00	2	Temperatura media	16.1
74818	7	Sololá	702	San José Chacayá	5	Chacayá	1	Enero	2023-01-25T00:00:00	2024-11-06T17:00:00	4	Temperatura máxima	18.5
74819	7	Sololá	702	San José Chacayá	5	Chacayá	1	Enero	2023-01-25T00:00:00	2024-11-06T17:00:00	3	Temperatura mínima	16.1
74820	7	Sololá	702	San José Chacayá	5	Chacayá	1	Enero	2023-01-25T00:00:00	2024-11-06T17:00:00	5	Humedad	85
74821	7	Sololá	702	San José Chacayá	5	Chacayá	1	Enero	2023-01-25T00:00:00	2024-11-06T17:00:00	6	Velocidad del viento	1.6
74822	7	Sololá	702	San José Chacayá	5	Chacayá	1	Enero	2023-01-25T00:00:00	2024-11-06T17:00:00	7	Dirección del viento	1.61
74823	7	Sololá	702	San José Chacayá	5	Chacayá	1	Enero	2023-01-25T00:00:00	2024-11-06T17:00:00	1	Precipitación	0
74824	7	Sololá	702	San José Chacayá	5	Chacayá	1	Enero	2023-01-25T00:00:00	2024-11-06T17:00:00	8	Radiación solar	207
74825	7	Sololá	702	San José Chacayá	5	Chacayá	1	Enero	2023-01-25T00:00:00	2024-11-06T18:00:00	2	Temperatura media	13.6
74826	7	Sololá	702	San José Chacayá	5	Chacayá	1	Enero	2023-01-25T00:00:00	2024-11-06T18:00:00	4	Temperatura máxima	16.2
74827	7	Sololá	702	San José Chacayá	5	Chacayá	1	Enero	2023-01-25T00:00:00	2024-11-06T18:00:00	3	Temperatura mínima	13.6
74828	7	Sololá	702	San José Chacayá	5	Chacayá	1	Enero	2023-01-25T00:00:00	2024-11-06T18:00:00	5	Humedad	70
74829	7	Sololá	702	San José Chacayá	5	Chacayá	1	Enero	2023-01-25T00:00:00	2024-11-06T18:00:00	6	Velocidad del viento	0
74830	7	Sololá	702	San José Chacayá	5	Chacayá	1	Enero	2023-01-25T00:00:00	2024-11-06T18:00:00	7	Dirección del viento	0
74831	7	Sololá	702	San José Chacayá	5	Chacayá	1	Enero	2023-01-25T00:00:00	2024-11-06T18:00:00	1	Precipitación	0
74832	7	Sololá	702	San José Chacayá	5	Chacayá	1	Enero	2023-01-25T00:00:00	2024-11-06T18:00:00	8	Radiación solar	27
74833	7	Sololá	702	San José Chacayá	5	Chacayá	1	Enero	2023-01-25T00:00:00	2024-11-06T19:00:00	2	Temperatura media	10.9
74834	7	Sololá	702	San José Chacayá	5	Chacayá	1	Enero	2023-01-25T00:00:00	2024-11-06T19:00:00	4	Temperatura máxima	13.6
74835	7	Sololá	702	San José Chacayá	5	Chacayá	1	Enero	2023-01-25T00:00:00	2024-11-06T19:00:00	3	Temperatura mínima	10.9
74836	7	Sololá	702	San José Chacayá	5	Chacayá	1	Enero	2023-01-25T00:00:00	2024-11-06T19:00:00	5	Humedad	72
74837	7	Sololá	702	San José Chacayá	5	Chacayá	1	Enero	2023-01-25T00:00:00	2024-11-06T19:00:00	6	Velocidad del viento	1.6
74838	7	Sololá	702	San José Chacayá	5	Chacayá	1	Enero	2023-01-25T00:00:00	2024-11-06T19:00:00	7	Dirección del viento	1.61
74839	7	Sololá	702	San José Chacayá	5	Chacayá	1	Enero	2023-01-25T00:00:00	2024-11-06T19:00:00	1	Precipitación	0
74840	7	Sololá	702	San José Chacayá	5	Chacayá	1	Enero	2023-01-25T00:00:00	2024-11-06T19:00:00	8	Radiación solar	0
74841	7	Sololá	702	San José Chacayá	5	Chacayá	1	Enero	2023-01-25T00:00:00	2024-11-06T20:00:00	2	Temperatura media	9.9
74842	7	Sololá	702	San José Chacayá	5	Chacayá	1	Enero	2023-01-25T00:00:00	2024-11-06T20:00:00	4	Temperatura máxima	11.1
74843	7	Sololá	702	San José Chacayá	5	Chacayá	1	Enero	2023-01-25T00:00:00	2024-11-06T20:00:00	3	Temperatura mínima	9.9
74844	7	Sololá	702	San José Chacayá	5	Chacayá	1	Enero	2023-01-25T00:00:00	2024-11-06T20:00:00	5	Humedad	73
74845	7	Sololá	702	San José Chacayá	5	Chacayá	1	Enero	2023-01-25T00:00:00	2024-11-06T20:00:00	6	Velocidad del viento	1.6
74846	7	Sololá	702	San José Chacayá	5	Chacayá	1	Enero	2023-01-25T00:00:00	2024-11-06T20:00:00	7	Dirección del viento	1.61
74847	7	Sololá	702	San José Chacayá	5	Chacayá	1	Enero	2023-01-25T00:00:00	2024-11-06T20:00:00	1	Precipitación	0
74848	7	Sololá	702	San José Chacayá	5	Chacayá	1	Enero	2023-01-25T00:00:00	2024-11-06T20:00:00	8	Radiación solar	0
74849	7	Sololá	702	San José Chacayá	5	Chacayá	1	Enero	2023-01-25T00:00:00	2024-11-06T21:00:00	2	Temperatura media	8.6
74850	7	Sololá	702	San José Chacayá	5	Chacayá	1	Enero	2023-01-25T00:00:00	2024-11-06T21:00:00	4	Temperatura máxima	9.9
74851	7	Sololá	702	San José Chacayá	5	Chacayá	1	Enero	2023-01-25T00:00:00	2024-11-06T21:00:00	3	Temperatura mínima	8.5
74852	7	Sololá	702	San José Chacayá	5	Chacayá	1	Enero	2023-01-25T00:00:00	2024-11-06T21:00:00	5	Humedad	76
74853	7	Sololá	702	San José Chacayá	5	Chacayá	1	Enero	2023-01-25T00:00:00	2024-11-06T21:00:00	6	Velocidad del viento	1.6
74854	7	Sololá	702	San José Chacayá	5	Chacayá	1	Enero	2023-01-25T00:00:00	2024-11-06T21:00:00	7	Dirección del viento	1.61
74855	7	Sololá	702	San José Chacayá	5	Chacayá	1	Enero	2023-01-25T00:00:00	2024-11-06T21:00:00	1	Precipitación	0
74856	7	Sololá	702	San José Chacayá	5	Chacayá	1	Enero	2023-01-25T00:00:00	2024-11-06T21:00:00	8	Radiación solar	0
74857	7	Sololá	702	San José Chacayá	5	Chacayá	1	Enero	2023-01-25T00:00:00	2024-11-06T22:00:00	2	Temperatura media	7.5
74858	7	Sololá	702	San José Chacayá	5	Chacayá	1	Enero	2023-01-25T00:00:00	2024-11-06T22:00:00	4	Temperatura máxima	8.6
74859	7	Sololá	702	San José Chacayá	5	Chacayá	1	Enero	2023-01-25T00:00:00	2024-11-06T22:00:00	3	Temperatura mínima	7.5
74860	7	Sololá	702	San José Chacayá	5	Chacayá	1	Enero	2023-01-25T00:00:00	2024-11-06T22:00:00	5	Humedad	79
74861	7	Sololá	702	San José Chacayá	5	Chacayá	1	Enero	2023-01-25T00:00:00	2024-11-06T22:00:00	6	Velocidad del viento	1.6
74862	7	Sololá	702	San José Chacayá	5	Chacayá	1	Enero	2023-01-25T00:00:00	2024-11-06T22:00:00	7	Dirección del viento	1.61
74863	7	Sololá	702	San José Chacayá	5	Chacayá	1	Enero	2023-01-25T00:00:00	2024-11-06T22:00:00	1	Precipitación	0
74864	7	Sololá	702	San José Chacayá	5	Chacayá	1	Enero	2023-01-25T00:00:00	2024-11-06T22:00:00	8	Radiación solar	0
74865	7	Sololá	702	San José Chacayá	5	Chacayá	1	Enero	2023-01-25T00:00:00	2024-11-06T23:00:00	2	Temperatura media	7.4
74866	7	Sololá	702	San José Chacayá	5	Chacayá	1	Enero	2023-01-25T00:00:00	2024-11-06T23:00:00	4	Temperatura máxima	7.7
74867	7	Sololá	702	San José Chacayá	5	Chacayá	1	Enero	2023-01-25T00:00:00	2024-11-06T23:00:00	3	Temperatura mínima	7.2
74868	7	Sololá	702	San José Chacayá	5	Chacayá	1	Enero	2023-01-25T00:00:00	2024-11-06T23:00:00	5	Humedad	83
74869	7	Sololá	702	San José Chacayá	5	Chacayá	1	Enero	2023-01-25T00:00:00	2024-11-06T23:00:00	6	Velocidad del viento	1.6
74870	7	Sololá	702	San José Chacayá	5	Chacayá	1	Enero	2023-01-25T00:00:00	2024-11-06T23:00:00	7	Dirección del viento	1.61
74871	7	Sololá	702	San José Chacayá	5	Chacayá	1	Enero	2023-01-25T00:00:00	2024-11-06T23:00:00	1	Precipitación	0
74872	7	Sololá	702	San José Chacayá	5	Chacayá	1	Enero	2023-01-25T00:00:00	2024-11-06T23:00:00	8	Radiación solar	0
74873	7	Sololá	702	San José Chacayá	5	Chacayá	1	Enero	2023-01-26T00:00:00	2024-11-06T00:00:00	2	Temperatura media	6.9
74874	7	Sololá	702	San José Chacayá	5	Chacayá	1	Enero	2023-01-26T00:00:00	2024-11-06T00:00:00	4	Temperatura máxima	7.4
74875	7	Sololá	702	San José Chacayá	5	Chacayá	1	Enero	2023-01-26T00:00:00	2024-11-06T00:00:00	3	Temperatura mínima	6.9
74876	7	Sololá	702	San José Chacayá	5	Chacayá	1	Enero	2023-01-26T00:00:00	2024-11-06T00:00:00	5	Humedad	85
74877	7	Sololá	702	San José Chacayá	5	Chacayá	1	Enero	2023-01-26T00:00:00	2024-11-06T00:00:00	6	Velocidad del viento	1.6
74878	7	Sololá	702	San José Chacayá	5	Chacayá	1	Enero	2023-01-26T00:00:00	2024-11-06T00:00:00	7	Dirección del viento	1.61
74879	7	Sololá	702	San José Chacayá	5	Chacayá	1	Enero	2023-01-26T00:00:00	2024-11-06T00:00:00	1	Precipitación	0
74880	7	Sololá	702	San José Chacayá	5	Chacayá	1	Enero	2023-01-26T00:00:00	2024-11-06T00:00:00	8	Radiación solar	0
74881	7	Sololá	702	San José Chacayá	5	Chacayá	1	Enero	2023-01-26T00:00:00	2024-11-06T01:00:00	2	Temperatura media	6.8
74882	7	Sololá	702	San José Chacayá	5	Chacayá	1	Enero	2023-01-26T00:00:00	2024-11-06T01:00:00	4	Temperatura máxima	7
74883	7	Sololá	702	San José Chacayá	5	Chacayá	1	Enero	2023-01-26T00:00:00	2024-11-06T01:00:00	3	Temperatura mínima	6.6
74884	7	Sololá	702	San José Chacayá	5	Chacayá	1	Enero	2023-01-26T00:00:00	2024-11-06T01:00:00	5	Humedad	87
74885	7	Sololá	702	San José Chacayá	5	Chacayá	1	Enero	2023-01-26T00:00:00	2024-11-06T01:00:00	6	Velocidad del viento	1.6
74886	7	Sololá	702	San José Chacayá	5	Chacayá	1	Enero	2023-01-26T00:00:00	2024-11-06T01:00:00	7	Dirección del viento	1.61
74887	7	Sololá	702	San José Chacayá	5	Chacayá	1	Enero	2023-01-26T00:00:00	2024-11-06T01:00:00	1	Precipitación	0
74888	7	Sololá	702	San José Chacayá	5	Chacayá	1	Enero	2023-01-26T00:00:00	2024-11-06T01:00:00	8	Radiación solar	0
74889	7	Sololá	702	San José Chacayá	5	Chacayá	1	Enero	2023-01-26T00:00:00	2024-11-06T02:00:00	2	Temperatura media	11.6
74890	7	Sololá	702	San José Chacayá	5	Chacayá	1	Enero	2023-01-26T00:00:00	2024-11-06T02:00:00	4	Temperatura máxima	11.6
74891	7	Sololá	702	San José Chacayá	5	Chacayá	1	Enero	2023-01-26T00:00:00	2024-11-06T02:00:00	3	Temperatura mínima	6.8
74892	7	Sololá	702	San José Chacayá	5	Chacayá	1	Enero	2023-01-26T00:00:00	2024-11-06T02:00:00	5	Humedad	77
74893	7	Sololá	702	San José Chacayá	5	Chacayá	1	Enero	2023-01-26T00:00:00	2024-11-06T02:00:00	6	Velocidad del viento	3.2
74894	7	Sololá	702	San José Chacayá	5	Chacayá	1	Enero	2023-01-26T00:00:00	2024-11-06T02:00:00	7	Dirección del viento	3.22
74895	7	Sololá	702	San José Chacayá	5	Chacayá	1	Enero	2023-01-26T00:00:00	2024-11-06T02:00:00	1	Precipitación	0
74896	7	Sololá	702	San José Chacayá	5	Chacayá	1	Enero	2023-01-26T00:00:00	2024-11-06T02:00:00	8	Radiación solar	0
74897	7	Sololá	702	San José Chacayá	5	Chacayá	1	Enero	2023-01-26T00:00:00	2024-11-06T03:00:00	2	Temperatura media	11.2
74898	7	Sololá	702	San José Chacayá	5	Chacayá	1	Enero	2023-01-26T00:00:00	2024-11-06T03:00:00	4	Temperatura máxima	12.2
74899	7	Sololá	702	San José Chacayá	5	Chacayá	1	Enero	2023-01-26T00:00:00	2024-11-06T03:00:00	3	Temperatura mínima	11.2
74900	7	Sololá	702	San José Chacayá	5	Chacayá	1	Enero	2023-01-26T00:00:00	2024-11-06T03:00:00	5	Humedad	76
74901	7	Sololá	702	San José Chacayá	5	Chacayá	1	Enero	2023-01-26T00:00:00	2024-11-06T03:00:00	6	Velocidad del viento	3.2
74902	7	Sololá	702	San José Chacayá	5	Chacayá	1	Enero	2023-01-26T00:00:00	2024-11-06T03:00:00	7	Dirección del viento	3.22
74903	7	Sololá	702	San José Chacayá	5	Chacayá	1	Enero	2023-01-26T00:00:00	2024-11-06T03:00:00	1	Precipitación	0
74904	7	Sololá	702	San José Chacayá	5	Chacayá	1	Enero	2023-01-26T00:00:00	2024-11-06T03:00:00	8	Radiación solar	0
74905	7	Sololá	702	San José Chacayá	5	Chacayá	1	Enero	2023-01-26T00:00:00	2024-11-06T04:00:00	2	Temperatura media	12.8
74906	7	Sololá	702	San José Chacayá	5	Chacayá	1	Enero	2023-01-26T00:00:00	2024-11-06T04:00:00	4	Temperatura máxima	12.8
74907	7	Sololá	702	San José Chacayá	5	Chacayá	1	Enero	2023-01-26T00:00:00	2024-11-06T04:00:00	3	Temperatura mínima	10.7
74908	7	Sololá	702	San José Chacayá	5	Chacayá	1	Enero	2023-01-26T00:00:00	2024-11-06T04:00:00	5	Humedad	71
74909	7	Sololá	702	San José Chacayá	5	Chacayá	1	Enero	2023-01-26T00:00:00	2024-11-06T04:00:00	6	Velocidad del viento	4.8
74910	7	Sololá	702	San José Chacayá	5	Chacayá	1	Enero	2023-01-26T00:00:00	2024-11-06T04:00:00	7	Dirección del viento	4.83
74911	7	Sololá	702	San José Chacayá	5	Chacayá	1	Enero	2023-01-26T00:00:00	2024-11-06T04:00:00	1	Precipitación	0
74912	7	Sololá	702	San José Chacayá	5	Chacayá	1	Enero	2023-01-26T00:00:00	2024-11-06T04:00:00	8	Radiación solar	0
74913	7	Sololá	702	San José Chacayá	5	Chacayá	1	Enero	2023-01-26T00:00:00	2024-11-06T05:00:00	2	Temperatura media	8.3
74914	7	Sololá	702	San José Chacayá	5	Chacayá	1	Enero	2023-01-26T00:00:00	2024-11-06T05:00:00	4	Temperatura máxima	12.8
74915	7	Sololá	702	San José Chacayá	5	Chacayá	1	Enero	2023-01-26T00:00:00	2024-11-06T05:00:00	3	Temperatura mínima	8.3
74916	7	Sololá	702	San José Chacayá	5	Chacayá	1	Enero	2023-01-26T00:00:00	2024-11-06T05:00:00	5	Humedad	82
74917	7	Sololá	702	San José Chacayá	5	Chacayá	1	Enero	2023-01-26T00:00:00	2024-11-06T05:00:00	6	Velocidad del viento	1.6
74918	7	Sololá	702	San José Chacayá	5	Chacayá	1	Enero	2023-01-26T00:00:00	2024-11-06T05:00:00	7	Dirección del viento	1.61
74919	7	Sololá	702	San José Chacayá	5	Chacayá	1	Enero	2023-01-26T00:00:00	2024-11-06T05:00:00	1	Precipitación	0
74920	7	Sololá	702	San José Chacayá	5	Chacayá	1	Enero	2023-01-26T00:00:00	2024-11-06T05:00:00	8	Radiación solar	0
74921	7	Sololá	702	San José Chacayá	5	Chacayá	1	Enero	2023-01-26T00:00:00	2024-11-06T06:00:00	2	Temperatura media	7.5
74922	7	Sololá	702	San José Chacayá	5	Chacayá	1	Enero	2023-01-26T00:00:00	2024-11-06T06:00:00	4	Temperatura máxima	8.3
74923	7	Sololá	702	San José Chacayá	5	Chacayá	1	Enero	2023-01-26T00:00:00	2024-11-06T06:00:00	3	Temperatura mínima	7
74924	7	Sololá	702	San José Chacayá	5	Chacayá	1	Enero	2023-01-26T00:00:00	2024-11-06T06:00:00	5	Humedad	85
74925	7	Sololá	702	San José Chacayá	5	Chacayá	1	Enero	2023-01-26T00:00:00	2024-11-06T06:00:00	6	Velocidad del viento	1.6
74926	7	Sololá	702	San José Chacayá	5	Chacayá	1	Enero	2023-01-26T00:00:00	2024-11-06T06:00:00	7	Dirección del viento	1.61
74927	7	Sololá	702	San José Chacayá	5	Chacayá	1	Enero	2023-01-26T00:00:00	2024-11-06T06:00:00	1	Precipitación	0
74928	7	Sololá	702	San José Chacayá	5	Chacayá	1	Enero	2023-01-26T00:00:00	2024-11-06T06:00:00	8	Radiación solar	0
74929	7	Sololá	702	San José Chacayá	5	Chacayá	1	Enero	2023-01-26T00:00:00	2024-11-06T07:00:00	2	Temperatura media	14.2
74930	7	Sololá	702	San José Chacayá	5	Chacayá	1	Enero	2023-01-26T00:00:00	2024-11-06T07:00:00	4	Temperatura máxima	14.2
74931	7	Sololá	702	San José Chacayá	5	Chacayá	1	Enero	2023-01-26T00:00:00	2024-11-06T07:00:00	3	Temperatura mínima	7.6
74932	7	Sololá	702	San José Chacayá	5	Chacayá	1	Enero	2023-01-26T00:00:00	2024-11-06T07:00:00	5	Humedad	71
74933	7	Sololá	702	San José Chacayá	5	Chacayá	1	Enero	2023-01-26T00:00:00	2024-11-06T07:00:00	6	Velocidad del viento	3.2
74934	7	Sololá	702	San José Chacayá	5	Chacayá	1	Enero	2023-01-26T00:00:00	2024-11-06T07:00:00	7	Dirección del viento	3.22
74935	7	Sololá	702	San José Chacayá	5	Chacayá	1	Enero	2023-01-26T00:00:00	2024-11-06T07:00:00	1	Precipitación	0
74936	7	Sololá	702	San José Chacayá	5	Chacayá	1	Enero	2023-01-26T00:00:00	2024-11-06T07:00:00	8	Radiación solar	10
74937	7	Sololá	702	San José Chacayá	5	Chacayá	1	Enero	2023-01-26T00:00:00	2024-11-06T08:00:00	2	Temperatura media	17.2
74938	7	Sololá	702	San José Chacayá	5	Chacayá	1	Enero	2023-01-26T00:00:00	2024-11-06T08:00:00	4	Temperatura máxima	17.2
74939	7	Sololá	702	San José Chacayá	5	Chacayá	1	Enero	2023-01-26T00:00:00	2024-11-06T08:00:00	3	Temperatura mínima	14.2
74940	7	Sololá	702	San José Chacayá	5	Chacayá	1	Enero	2023-01-26T00:00:00	2024-11-06T08:00:00	5	Humedad	62
74941	7	Sololá	702	San José Chacayá	5	Chacayá	1	Enero	2023-01-26T00:00:00	2024-11-06T08:00:00	6	Velocidad del viento	6.4
74942	7	Sololá	702	San José Chacayá	5	Chacayá	1	Enero	2023-01-26T00:00:00	2024-11-06T08:00:00	7	Dirección del viento	6.44
74943	7	Sololá	702	San José Chacayá	5	Chacayá	1	Enero	2023-01-26T00:00:00	2024-11-06T08:00:00	1	Precipitación	0
74944	7	Sololá	702	San José Chacayá	5	Chacayá	1	Enero	2023-01-26T00:00:00	2024-11-06T08:00:00	8	Radiación solar	164
74945	7	Sololá	702	San José Chacayá	5	Chacayá	1	Enero	2023-01-26T00:00:00	2024-11-06T09:00:00	2	Temperatura media	18.4
74946	7	Sololá	702	San José Chacayá	5	Chacayá	1	Enero	2023-01-26T00:00:00	2024-11-06T09:00:00	4	Temperatura máxima	18.4
74947	7	Sololá	702	San José Chacayá	5	Chacayá	1	Enero	2023-01-26T00:00:00	2024-11-06T09:00:00	3	Temperatura mínima	16.8
74948	7	Sololá	702	San José Chacayá	5	Chacayá	1	Enero	2023-01-26T00:00:00	2024-11-06T09:00:00	5	Humedad	56
74949	7	Sololá	702	San José Chacayá	5	Chacayá	1	Enero	2023-01-26T00:00:00	2024-11-06T09:00:00	6	Velocidad del viento	6.4
74950	7	Sololá	702	San José Chacayá	5	Chacayá	1	Enero	2023-01-26T00:00:00	2024-11-06T09:00:00	7	Dirección del viento	6.44
74951	7	Sololá	702	San José Chacayá	5	Chacayá	1	Enero	2023-01-26T00:00:00	2024-11-06T09:00:00	1	Precipitación	0
74952	7	Sololá	702	San José Chacayá	5	Chacayá	1	Enero	2023-01-26T00:00:00	2024-11-06T09:00:00	8	Radiación solar	392
74953	7	Sololá	702	San José Chacayá	5	Chacayá	1	Enero	2023-01-26T00:00:00	2024-11-06T10:00:00	2	Temperatura media	20.7
74954	7	Sololá	702	San José Chacayá	5	Chacayá	1	Enero	2023-01-26T00:00:00	2024-11-06T10:00:00	4	Temperatura máxima	20.7
74955	7	Sololá	702	San José Chacayá	5	Chacayá	1	Enero	2023-01-26T00:00:00	2024-11-06T10:00:00	3	Temperatura mínima	18.5
74956	7	Sololá	702	San José Chacayá	5	Chacayá	1	Enero	2023-01-26T00:00:00	2024-11-06T10:00:00	5	Humedad	54
74957	7	Sololá	702	San José Chacayá	5	Chacayá	1	Enero	2023-01-26T00:00:00	2024-11-06T10:00:00	6	Velocidad del viento	4.8
74958	7	Sololá	702	San José Chacayá	5	Chacayá	1	Enero	2023-01-26T00:00:00	2024-11-06T10:00:00	7	Dirección del viento	4.83
74959	7	Sololá	702	San José Chacayá	5	Chacayá	1	Enero	2023-01-26T00:00:00	2024-11-06T10:00:00	1	Precipitación	0
74960	7	Sololá	702	San José Chacayá	5	Chacayá	1	Enero	2023-01-26T00:00:00	2024-11-06T10:00:00	8	Radiación solar	593
74961	7	Sololá	702	San José Chacayá	5	Chacayá	1	Enero	2023-01-26T00:00:00	2024-11-06T11:00:00	2	Temperatura media	21.2
74962	7	Sololá	702	San José Chacayá	5	Chacayá	1	Enero	2023-01-26T00:00:00	2024-11-06T11:00:00	4	Temperatura máxima	21.7
74963	7	Sololá	702	San José Chacayá	5	Chacayá	1	Enero	2023-01-26T00:00:00	2024-11-06T11:00:00	3	Temperatura mínima	20.5
74964	7	Sololá	702	San José Chacayá	5	Chacayá	1	Enero	2023-01-26T00:00:00	2024-11-06T11:00:00	5	Humedad	51
74965	7	Sololá	702	San José Chacayá	5	Chacayá	1	Enero	2023-01-26T00:00:00	2024-11-06T11:00:00	6	Velocidad del viento	6.4
74966	7	Sololá	702	San José Chacayá	5	Chacayá	1	Enero	2023-01-26T00:00:00	2024-11-06T11:00:00	7	Dirección del viento	6.44
74967	7	Sololá	702	San José Chacayá	5	Chacayá	1	Enero	2023-01-26T00:00:00	2024-11-06T11:00:00	1	Precipitación	0
74968	7	Sololá	702	San José Chacayá	5	Chacayá	1	Enero	2023-01-26T00:00:00	2024-11-06T11:00:00	8	Radiación solar	746
74969	7	Sololá	702	San José Chacayá	5	Chacayá	1	Enero	2023-01-26T00:00:00	2024-11-06T12:00:00	2	Temperatura media	20.8
74970	7	Sololá	702	San José Chacayá	5	Chacayá	1	Enero	2023-01-26T00:00:00	2024-11-06T12:00:00	4	Temperatura máxima	21.3
74971	7	Sololá	702	San José Chacayá	5	Chacayá	1	Enero	2023-01-26T00:00:00	2024-11-06T12:00:00	3	Temperatura mínima	20
74972	7	Sololá	702	San José Chacayá	5	Chacayá	1	Enero	2023-01-26T00:00:00	2024-11-06T12:00:00	5	Humedad	51
74973	7	Sololá	702	San José Chacayá	5	Chacayá	1	Enero	2023-01-26T00:00:00	2024-11-06T12:00:00	6	Velocidad del viento	6.4
74974	7	Sololá	702	San José Chacayá	5	Chacayá	1	Enero	2023-01-26T00:00:00	2024-11-06T12:00:00	7	Dirección del viento	6.44
74975	7	Sololá	702	San José Chacayá	5	Chacayá	1	Enero	2023-01-26T00:00:00	2024-11-06T12:00:00	1	Precipitación	0
74976	7	Sololá	702	San José Chacayá	5	Chacayá	1	Enero	2023-01-26T00:00:00	2024-11-06T12:00:00	8	Radiación solar	836
74977	7	Sololá	702	San José Chacayá	5	Chacayá	1	Enero	2023-01-26T00:00:00	2024-11-06T13:00:00	2	Temperatura media	20.1
74978	7	Sololá	702	San José Chacayá	5	Chacayá	1	Enero	2023-01-26T00:00:00	2024-11-06T13:00:00	4	Temperatura máxima	20.9
74979	7	Sololá	702	San José Chacayá	5	Chacayá	1	Enero	2023-01-26T00:00:00	2024-11-06T13:00:00	3	Temperatura mínima	20.1
74980	7	Sololá	702	San José Chacayá	5	Chacayá	1	Enero	2023-01-26T00:00:00	2024-11-06T13:00:00	5	Humedad	53
74981	7	Sololá	702	San José Chacayá	5	Chacayá	1	Enero	2023-01-26T00:00:00	2024-11-06T13:00:00	6	Velocidad del viento	6.4
74982	7	Sololá	702	San José Chacayá	5	Chacayá	1	Enero	2023-01-26T00:00:00	2024-11-06T13:00:00	7	Dirección del viento	6.44
74983	7	Sololá	702	San José Chacayá	5	Chacayá	1	Enero	2023-01-26T00:00:00	2024-11-06T13:00:00	1	Precipitación	0
74984	7	Sololá	702	San José Chacayá	5	Chacayá	1	Enero	2023-01-26T00:00:00	2024-11-06T13:00:00	8	Radiación solar	891
74985	7	Sololá	702	San José Chacayá	5	Chacayá	1	Enero	2023-01-26T00:00:00	2024-11-06T14:00:00	2	Temperatura media	20.5
74986	7	Sololá	702	San José Chacayá	5	Chacayá	1	Enero	2023-01-26T00:00:00	2024-11-06T14:00:00	4	Temperatura máxima	20.9
74987	7	Sololá	702	San José Chacayá	5	Chacayá	1	Enero	2023-01-26T00:00:00	2024-11-06T14:00:00	3	Temperatura mínima	19.8
74988	7	Sololá	702	San José Chacayá	5	Chacayá	1	Enero	2023-01-26T00:00:00	2024-11-06T14:00:00	5	Humedad	50
74989	7	Sololá	702	San José Chacayá	5	Chacayá	1	Enero	2023-01-26T00:00:00	2024-11-06T14:00:00	6	Velocidad del viento	6.4
74990	7	Sololá	702	San José Chacayá	5	Chacayá	1	Enero	2023-01-26T00:00:00	2024-11-06T14:00:00	7	Dirección del viento	6.44
74991	7	Sololá	702	San José Chacayá	5	Chacayá	1	Enero	2023-01-26T00:00:00	2024-11-06T14:00:00	1	Precipitación	0
74992	7	Sololá	702	San José Chacayá	5	Chacayá	1	Enero	2023-01-26T00:00:00	2024-11-06T14:00:00	8	Radiación solar	620
74993	7	Sololá	702	San José Chacayá	5	Chacayá	1	Enero	2023-01-26T00:00:00	2024-11-06T15:00:00	2	Temperatura media	18.2
74994	7	Sololá	702	San José Chacayá	5	Chacayá	1	Enero	2023-01-26T00:00:00	2024-11-06T15:00:00	4	Temperatura máxima	20.5
74995	7	Sololá	702	San José Chacayá	5	Chacayá	1	Enero	2023-01-26T00:00:00	2024-11-06T15:00:00	3	Temperatura mínima	18.2
74996	7	Sololá	702	San José Chacayá	5	Chacayá	1	Enero	2023-01-26T00:00:00	2024-11-06T15:00:00	5	Humedad	58
74997	7	Sololá	702	San José Chacayá	5	Chacayá	1	Enero	2023-01-26T00:00:00	2024-11-06T15:00:00	6	Velocidad del viento	6.4
74998	7	Sololá	702	San José Chacayá	5	Chacayá	1	Enero	2023-01-26T00:00:00	2024-11-06T15:00:00	7	Dirección del viento	6.44
74999	7	Sololá	702	San José Chacayá	5	Chacayá	1	Enero	2023-01-26T00:00:00	2024-11-06T15:00:00	1	Precipitación	0
75000	7	Sololá	702	San José Chacayá	5	Chacayá	1	Enero	2023-01-26T00:00:00	2024-11-06T15:00:00	8	Radiación solar	491
75001	7	Sololá	702	San José Chacayá	5	Chacayá	1	Enero	2023-01-26T00:00:00	2024-11-06T16:00:00	2	Temperatura media	15.2
75002	7	Sololá	702	San José Chacayá	5	Chacayá	1	Enero	2023-01-26T00:00:00	2024-11-06T16:00:00	4	Temperatura máxima	18.2
75003	7	Sololá	702	San José Chacayá	5	Chacayá	1	Enero	2023-01-26T00:00:00	2024-11-06T16:00:00	3	Temperatura mínima	15.2
75004	7	Sololá	702	San José Chacayá	5	Chacayá	1	Enero	2023-01-26T00:00:00	2024-11-06T16:00:00	5	Humedad	67
75005	7	Sololá	702	San José Chacayá	5	Chacayá	1	Enero	2023-01-26T00:00:00	2024-11-06T16:00:00	6	Velocidad del viento	8
75006	7	Sololá	702	San José Chacayá	5	Chacayá	1	Enero	2023-01-26T00:00:00	2024-11-06T16:00:00	7	Dirección del viento	8.05
75007	7	Sololá	702	San José Chacayá	5	Chacayá	1	Enero	2023-01-26T00:00:00	2024-11-06T16:00:00	1	Precipitación	0
75008	7	Sololá	702	San José Chacayá	5	Chacayá	1	Enero	2023-01-26T00:00:00	2024-11-06T16:00:00	8	Radiación solar	121
75009	7	Sololá	702	San José Chacayá	5	Chacayá	1	Enero	2023-01-26T00:00:00	2024-11-06T17:00:00	2	Temperatura media	14
75010	7	Sololá	702	San José Chacayá	5	Chacayá	1	Enero	2023-01-26T00:00:00	2024-11-06T17:00:00	4	Temperatura máxima	15.3
75011	7	Sololá	702	San José Chacayá	5	Chacayá	1	Enero	2023-01-26T00:00:00	2024-11-06T17:00:00	3	Temperatura mínima	13.9
75012	7	Sololá	702	San José Chacayá	5	Chacayá	1	Enero	2023-01-26T00:00:00	2024-11-06T17:00:00	5	Humedad	69
75013	7	Sololá	702	San José Chacayá	5	Chacayá	1	Enero	2023-01-26T00:00:00	2024-11-06T17:00:00	6	Velocidad del viento	8
75014	7	Sololá	702	San José Chacayá	5	Chacayá	1	Enero	2023-01-26T00:00:00	2024-11-06T17:00:00	7	Dirección del viento	8.05
75015	7	Sololá	702	San José Chacayá	5	Chacayá	1	Enero	2023-01-26T00:00:00	2024-11-06T17:00:00	1	Precipitación	0
75016	7	Sololá	702	San José Chacayá	5	Chacayá	1	Enero	2023-01-26T00:00:00	2024-11-06T17:00:00	8	Radiación solar	178
75017	7	Sololá	702	San José Chacayá	5	Chacayá	1	Enero	2023-01-26T00:00:00	2024-11-06T18:00:00	2	Temperatura media	14
75018	7	Sololá	702	San José Chacayá	5	Chacayá	1	Enero	2023-01-26T00:00:00	2024-11-06T18:00:00	4	Temperatura máxima	14.2
75019	7	Sololá	702	San José Chacayá	5	Chacayá	1	Enero	2023-01-26T00:00:00	2024-11-06T18:00:00	3	Temperatura mínima	13.8
75020	7	Sololá	702	San José Chacayá	5	Chacayá	1	Enero	2023-01-26T00:00:00	2024-11-06T18:00:00	5	Humedad	64
75021	7	Sololá	702	San José Chacayá	5	Chacayá	1	Enero	2023-01-26T00:00:00	2024-11-06T18:00:00	6	Velocidad del viento	8
75022	7	Sololá	702	San José Chacayá	5	Chacayá	1	Enero	2023-01-26T00:00:00	2024-11-06T18:00:00	7	Dirección del viento	8.05
75023	7	Sololá	702	San José Chacayá	5	Chacayá	1	Enero	2023-01-26T00:00:00	2024-11-06T18:00:00	1	Precipitación	0
75024	7	Sololá	702	San José Chacayá	5	Chacayá	1	Enero	2023-01-26T00:00:00	2024-11-06T18:00:00	8	Radiación solar	37
75025	7	Sololá	702	San José Chacayá	5	Chacayá	1	Enero	2023-01-26T00:00:00	2024-11-06T19:00:00	2	Temperatura media	13.9
75026	7	Sololá	702	San José Chacayá	5	Chacayá	1	Enero	2023-01-26T00:00:00	2024-11-06T19:00:00	4	Temperatura máxima	14.2
75027	7	Sololá	702	San José Chacayá	5	Chacayá	1	Enero	2023-01-26T00:00:00	2024-11-06T19:00:00	3	Temperatura mínima	13.9
75028	7	Sololá	702	San José Chacayá	5	Chacayá	1	Enero	2023-01-26T00:00:00	2024-11-06T19:00:00	5	Humedad	62
75029	7	Sololá	702	San José Chacayá	5	Chacayá	1	Enero	2023-01-26T00:00:00	2024-11-06T19:00:00	6	Velocidad del viento	6.4
75030	7	Sololá	702	San José Chacayá	5	Chacayá	1	Enero	2023-01-26T00:00:00	2024-11-06T19:00:00	7	Dirección del viento	6.44
75031	7	Sololá	702	San José Chacayá	5	Chacayá	1	Enero	2023-01-26T00:00:00	2024-11-06T19:00:00	1	Precipitación	0
75032	7	Sololá	702	San José Chacayá	5	Chacayá	1	Enero	2023-01-26T00:00:00	2024-11-06T19:00:00	8	Radiación solar	0
75033	7	Sololá	702	San José Chacayá	5	Chacayá	1	Enero	2023-01-26T00:00:00	2024-11-06T20:00:00	2	Temperatura media	13.8
75034	7	Sololá	702	San José Chacayá	5	Chacayá	1	Enero	2023-01-26T00:00:00	2024-11-06T20:00:00	4	Temperatura máxima	14.1
75035	7	Sololá	702	San José Chacayá	5	Chacayá	1	Enero	2023-01-26T00:00:00	2024-11-06T20:00:00	3	Temperatura mínima	13.7
75036	7	Sololá	702	San José Chacayá	5	Chacayá	1	Enero	2023-01-26T00:00:00	2024-11-06T20:00:00	5	Humedad	62
75037	7	Sololá	702	San José Chacayá	5	Chacayá	1	Enero	2023-01-26T00:00:00	2024-11-06T20:00:00	6	Velocidad del viento	6.4
75038	7	Sololá	702	San José Chacayá	5	Chacayá	1	Enero	2023-01-26T00:00:00	2024-11-06T20:00:00	7	Dirección del viento	6.44
75039	7	Sololá	702	San José Chacayá	5	Chacayá	1	Enero	2023-01-26T00:00:00	2024-11-06T20:00:00	1	Precipitación	0
75040	7	Sololá	702	San José Chacayá	5	Chacayá	1	Enero	2023-01-26T00:00:00	2024-11-06T20:00:00	8	Radiación solar	0
75041	7	Sololá	702	San José Chacayá	5	Chacayá	1	Enero	2023-01-26T00:00:00	2024-11-06T21:00:00	2	Temperatura media	13.2
75042	7	Sololá	702	San José Chacayá	5	Chacayá	1	Enero	2023-01-26T00:00:00	2024-11-06T21:00:00	4	Temperatura máxima	13.8
75043	7	Sololá	702	San José Chacayá	5	Chacayá	1	Enero	2023-01-26T00:00:00	2024-11-06T21:00:00	3	Temperatura mínima	13.2
75044	7	Sololá	702	San José Chacayá	5	Chacayá	1	Enero	2023-01-26T00:00:00	2024-11-06T21:00:00	5	Humedad	68
75045	7	Sololá	702	San José Chacayá	5	Chacayá	1	Enero	2023-01-26T00:00:00	2024-11-06T21:00:00	6	Velocidad del viento	6.4
75046	7	Sololá	702	San José Chacayá	5	Chacayá	1	Enero	2023-01-26T00:00:00	2024-11-06T21:00:00	7	Dirección del viento	6.44
75047	7	Sololá	702	San José Chacayá	5	Chacayá	1	Enero	2023-01-26T00:00:00	2024-11-06T21:00:00	1	Precipitación	0
75048	7	Sololá	702	San José Chacayá	5	Chacayá	1	Enero	2023-01-26T00:00:00	2024-11-06T21:00:00	8	Radiación solar	0
75049	7	Sololá	702	San José Chacayá	5	Chacayá	1	Enero	2023-01-26T00:00:00	2024-11-06T22:00:00	2	Temperatura media	13.6
75050	7	Sololá	702	San José Chacayá	5	Chacayá	1	Enero	2023-01-26T00:00:00	2024-11-06T22:00:00	4	Temperatura máxima	13.6
75051	7	Sololá	702	San José Chacayá	5	Chacayá	1	Enero	2023-01-26T00:00:00	2024-11-06T22:00:00	3	Temperatura mínima	13.1
75052	7	Sololá	702	San José Chacayá	5	Chacayá	1	Enero	2023-01-26T00:00:00	2024-11-06T22:00:00	5	Humedad	68
75053	7	Sololá	702	San José Chacayá	5	Chacayá	1	Enero	2023-01-26T00:00:00	2024-11-06T22:00:00	6	Velocidad del viento	8
75054	7	Sololá	702	San José Chacayá	5	Chacayá	1	Enero	2023-01-26T00:00:00	2024-11-06T22:00:00	7	Dirección del viento	8.05
75055	7	Sololá	702	San José Chacayá	5	Chacayá	1	Enero	2023-01-26T00:00:00	2024-11-06T22:00:00	1	Precipitación	0
75056	7	Sololá	702	San José Chacayá	5	Chacayá	1	Enero	2023-01-26T00:00:00	2024-11-06T22:00:00	8	Radiación solar	0
75057	7	Sololá	702	San José Chacayá	5	Chacayá	1	Enero	2023-01-26T00:00:00	2024-11-06T23:00:00	2	Temperatura media	13.3
75058	7	Sololá	702	San José Chacayá	5	Chacayá	1	Enero	2023-01-26T00:00:00	2024-11-06T23:00:00	4	Temperatura máxima	13.8
75059	7	Sololá	702	San José Chacayá	5	Chacayá	1	Enero	2023-01-26T00:00:00	2024-11-06T23:00:00	3	Temperatura mínima	13.3
75060	7	Sololá	702	San José Chacayá	5	Chacayá	1	Enero	2023-01-26T00:00:00	2024-11-06T23:00:00	5	Humedad	70
75061	7	Sololá	702	San José Chacayá	5	Chacayá	1	Enero	2023-01-26T00:00:00	2024-11-06T23:00:00	6	Velocidad del viento	6.4
75062	7	Sololá	702	San José Chacayá	5	Chacayá	1	Enero	2023-01-26T00:00:00	2024-11-06T23:00:00	7	Dirección del viento	6.44
75063	7	Sololá	702	San José Chacayá	5	Chacayá	1	Enero	2023-01-26T00:00:00	2024-11-06T23:00:00	1	Precipitación	0
75064	7	Sololá	702	San José Chacayá	5	Chacayá	1	Enero	2023-01-26T00:00:00	2024-11-06T23:00:00	8	Radiación solar	0
75065	7	Sololá	702	San José Chacayá	5	Chacayá	1	Enero	2023-01-27T00:00:00	2024-11-06T00:00:00	2	Temperatura media	14.2
75066	7	Sololá	702	San José Chacayá	5	Chacayá	1	Enero	2023-01-27T00:00:00	2024-11-06T00:00:00	4	Temperatura máxima	14.3
75067	7	Sololá	702	San José Chacayá	5	Chacayá	1	Enero	2023-01-27T00:00:00	2024-11-06T00:00:00	3	Temperatura mínima	13.3
75068	7	Sololá	702	San José Chacayá	5	Chacayá	1	Enero	2023-01-27T00:00:00	2024-11-06T00:00:00	5	Humedad	67
75069	7	Sololá	702	San José Chacayá	5	Chacayá	1	Enero	2023-01-27T00:00:00	2024-11-06T00:00:00	6	Velocidad del viento	6.4
75070	7	Sololá	702	San José Chacayá	5	Chacayá	1	Enero	2023-01-27T00:00:00	2024-11-06T00:00:00	7	Dirección del viento	6.44
75071	7	Sololá	702	San José Chacayá	5	Chacayá	1	Enero	2023-01-27T00:00:00	2024-11-06T00:00:00	1	Precipitación	0
75072	7	Sololá	702	San José Chacayá	5	Chacayá	1	Enero	2023-01-27T00:00:00	2024-11-06T00:00:00	8	Radiación solar	0
75073	7	Sololá	702	San José Chacayá	5	Chacayá	1	Enero	2023-01-27T00:00:00	2024-11-06T01:00:00	2	Temperatura media	13.6
75074	7	Sololá	702	San José Chacayá	5	Chacayá	1	Enero	2023-01-27T00:00:00	2024-11-06T01:00:00	4	Temperatura máxima	14.4
75075	7	Sololá	702	San José Chacayá	5	Chacayá	1	Enero	2023-01-27T00:00:00	2024-11-06T01:00:00	3	Temperatura mínima	13.6
75076	7	Sololá	702	San José Chacayá	5	Chacayá	1	Enero	2023-01-27T00:00:00	2024-11-06T01:00:00	5	Humedad	75
75077	7	Sololá	702	San José Chacayá	5	Chacayá	1	Enero	2023-01-27T00:00:00	2024-11-06T01:00:00	6	Velocidad del viento	9.7
75078	7	Sololá	702	San José Chacayá	5	Chacayá	1	Enero	2023-01-27T00:00:00	2024-11-06T01:00:00	7	Dirección del viento	9.66
75079	7	Sololá	702	San José Chacayá	5	Chacayá	1	Enero	2023-01-27T00:00:00	2024-11-06T01:00:00	1	Precipitación	0
75080	7	Sololá	702	San José Chacayá	5	Chacayá	1	Enero	2023-01-27T00:00:00	2024-11-06T01:00:00	8	Radiación solar	0
75081	7	Sololá	702	San José Chacayá	5	Chacayá	1	Enero	2023-01-27T00:00:00	2024-11-06T02:00:00	2	Temperatura media	13.7
75082	7	Sololá	702	San José Chacayá	5	Chacayá	1	Enero	2023-01-27T00:00:00	2024-11-06T02:00:00	4	Temperatura máxima	13.8
75083	7	Sololá	702	San José Chacayá	5	Chacayá	1	Enero	2023-01-27T00:00:00	2024-11-06T02:00:00	3	Temperatura mínima	13.5
75084	7	Sololá	702	San José Chacayá	5	Chacayá	1	Enero	2023-01-27T00:00:00	2024-11-06T02:00:00	5	Humedad	74
75085	7	Sololá	702	San José Chacayá	5	Chacayá	1	Enero	2023-01-27T00:00:00	2024-11-06T02:00:00	6	Velocidad del viento	8
75086	7	Sololá	702	San José Chacayá	5	Chacayá	1	Enero	2023-01-27T00:00:00	2024-11-06T02:00:00	7	Dirección del viento	8.05
75087	7	Sololá	702	San José Chacayá	5	Chacayá	1	Enero	2023-01-27T00:00:00	2024-11-06T02:00:00	1	Precipitación	0
75088	7	Sololá	702	San José Chacayá	5	Chacayá	1	Enero	2023-01-27T00:00:00	2024-11-06T02:00:00	8	Radiación solar	0
75089	7	Sololá	702	San José Chacayá	5	Chacayá	1	Enero	2023-01-27T00:00:00	2024-11-06T03:00:00	2	Temperatura media	13.6
75090	7	Sololá	702	San José Chacayá	5	Chacayá	1	Enero	2023-01-27T00:00:00	2024-11-06T03:00:00	4	Temperatura máxima	13.7
75091	7	Sololá	702	San José Chacayá	5	Chacayá	1	Enero	2023-01-27T00:00:00	2024-11-06T03:00:00	3	Temperatura mínima	13.6
75092	7	Sololá	702	San José Chacayá	5	Chacayá	1	Enero	2023-01-27T00:00:00	2024-11-06T03:00:00	5	Humedad	74
75093	7	Sololá	702	San José Chacayá	5	Chacayá	1	Enero	2023-01-27T00:00:00	2024-11-06T03:00:00	6	Velocidad del viento	4.8
75094	7	Sololá	702	San José Chacayá	5	Chacayá	1	Enero	2023-01-27T00:00:00	2024-11-06T03:00:00	7	Dirección del viento	4.83
75095	7	Sololá	702	San José Chacayá	5	Chacayá	1	Enero	2023-01-27T00:00:00	2024-11-06T03:00:00	1	Precipitación	0
75096	7	Sololá	702	San José Chacayá	5	Chacayá	1	Enero	2023-01-27T00:00:00	2024-11-06T03:00:00	8	Radiación solar	0
75097	7	Sololá	702	San José Chacayá	5	Chacayá	1	Enero	2023-01-27T00:00:00	2024-11-06T04:00:00	2	Temperatura media	13.4
75098	7	Sololá	702	San José Chacayá	5	Chacayá	1	Enero	2023-01-27T00:00:00	2024-11-06T04:00:00	4	Temperatura máxima	13.7
75099	7	Sololá	702	San José Chacayá	5	Chacayá	1	Enero	2023-01-27T00:00:00	2024-11-06T04:00:00	3	Temperatura mínima	13.2
75100	7	Sololá	702	San José Chacayá	5	Chacayá	1	Enero	2023-01-27T00:00:00	2024-11-06T04:00:00	5	Humedad	75
75101	7	Sololá	702	San José Chacayá	5	Chacayá	1	Enero	2023-01-27T00:00:00	2024-11-06T04:00:00	6	Velocidad del viento	8
75102	7	Sololá	702	San José Chacayá	5	Chacayá	1	Enero	2023-01-27T00:00:00	2024-11-06T04:00:00	7	Dirección del viento	8.05
75103	7	Sololá	702	San José Chacayá	5	Chacayá	1	Enero	2023-01-27T00:00:00	2024-11-06T04:00:00	1	Precipitación	0
75104	7	Sololá	702	San José Chacayá	5	Chacayá	1	Enero	2023-01-27T00:00:00	2024-11-06T04:00:00	8	Radiación solar	0
75105	7	Sololá	702	San José Chacayá	5	Chacayá	1	Enero	2023-01-27T00:00:00	2024-11-06T05:00:00	2	Temperatura media	13.4
75106	7	Sololá	702	San José Chacayá	5	Chacayá	1	Enero	2023-01-27T00:00:00	2024-11-06T05:00:00	4	Temperatura máxima	13.7
75107	7	Sololá	702	San José Chacayá	5	Chacayá	1	Enero	2023-01-27T00:00:00	2024-11-06T05:00:00	3	Temperatura mínima	13.4
75108	7	Sololá	702	San José Chacayá	5	Chacayá	1	Enero	2023-01-27T00:00:00	2024-11-06T05:00:00	5	Humedad	73
75109	7	Sololá	702	San José Chacayá	5	Chacayá	1	Enero	2023-01-27T00:00:00	2024-11-06T05:00:00	6	Velocidad del viento	8
75110	7	Sololá	702	San José Chacayá	5	Chacayá	1	Enero	2023-01-27T00:00:00	2024-11-06T05:00:00	7	Dirección del viento	8.05
75111	7	Sololá	702	San José Chacayá	5	Chacayá	1	Enero	2023-01-27T00:00:00	2024-11-06T05:00:00	1	Precipitación	0
75112	7	Sololá	702	San José Chacayá	5	Chacayá	1	Enero	2023-01-27T00:00:00	2024-11-06T05:00:00	8	Radiación solar	0
75113	7	Sololá	702	San José Chacayá	5	Chacayá	1	Enero	2023-01-27T00:00:00	2024-11-06T06:00:00	2	Temperatura media	14.2
75114	7	Sololá	702	San José Chacayá	5	Chacayá	1	Enero	2023-01-27T00:00:00	2024-11-06T06:00:00	4	Temperatura máxima	14.2
75115	7	Sololá	702	San José Chacayá	5	Chacayá	1	Enero	2023-01-27T00:00:00	2024-11-06T06:00:00	3	Temperatura mínima	13.1
75116	7	Sololá	702	San José Chacayá	5	Chacayá	1	Enero	2023-01-27T00:00:00	2024-11-06T06:00:00	5	Humedad	66
75117	7	Sololá	702	San José Chacayá	5	Chacayá	1	Enero	2023-01-27T00:00:00	2024-11-06T06:00:00	6	Velocidad del viento	4.8
75118	7	Sololá	702	San José Chacayá	5	Chacayá	1	Enero	2023-01-27T00:00:00	2024-11-06T06:00:00	7	Dirección del viento	4.83
75119	7	Sololá	702	San José Chacayá	5	Chacayá	1	Enero	2023-01-27T00:00:00	2024-11-06T06:00:00	1	Precipitación	0
75120	7	Sololá	702	San José Chacayá	5	Chacayá	1	Enero	2023-01-27T00:00:00	2024-11-06T06:00:00	8	Radiación solar	0
75121	7	Sololá	702	San José Chacayá	5	Chacayá	1	Enero	2023-01-27T00:00:00	2024-11-06T07:00:00	2	Temperatura media	16
75122	7	Sololá	702	San José Chacayá	5	Chacayá	1	Enero	2023-01-27T00:00:00	2024-11-06T07:00:00	4	Temperatura máxima	16
75123	7	Sololá	702	San José Chacayá	5	Chacayá	1	Enero	2023-01-27T00:00:00	2024-11-06T07:00:00	3	Temperatura mínima	14.2
75124	7	Sololá	702	San José Chacayá	5	Chacayá	1	Enero	2023-01-27T00:00:00	2024-11-06T07:00:00	5	Humedad	64
75125	7	Sololá	702	San José Chacayá	5	Chacayá	1	Enero	2023-01-27T00:00:00	2024-11-06T07:00:00	6	Velocidad del viento	8
75126	7	Sololá	702	San José Chacayá	5	Chacayá	1	Enero	2023-01-27T00:00:00	2024-11-06T07:00:00	7	Dirección del viento	8.05
75127	7	Sololá	702	San José Chacayá	5	Chacayá	1	Enero	2023-01-27T00:00:00	2024-11-06T07:00:00	1	Precipitación	0
75128	7	Sololá	702	San José Chacayá	5	Chacayá	1	Enero	2023-01-27T00:00:00	2024-11-06T07:00:00	8	Radiación solar	7
75129	7	Sololá	702	San José Chacayá	5	Chacayá	1	Enero	2023-01-27T00:00:00	2024-11-06T08:00:00	2	Temperatura media	16.8
75130	7	Sololá	702	San José Chacayá	5	Chacayá	1	Enero	2023-01-27T00:00:00	2024-11-06T08:00:00	4	Temperatura máxima	16.9
75131	7	Sololá	702	San José Chacayá	5	Chacayá	1	Enero	2023-01-27T00:00:00	2024-11-06T08:00:00	3	Temperatura mínima	16
75132	7	Sololá	702	San José Chacayá	5	Chacayá	1	Enero	2023-01-27T00:00:00	2024-11-06T08:00:00	5	Humedad	65
75133	7	Sololá	702	San José Chacayá	5	Chacayá	1	Enero	2023-01-27T00:00:00	2024-11-06T08:00:00	6	Velocidad del viento	8
75134	7	Sololá	702	San José Chacayá	5	Chacayá	1	Enero	2023-01-27T00:00:00	2024-11-06T08:00:00	7	Dirección del viento	8.05
75135	7	Sololá	702	San José Chacayá	5	Chacayá	1	Enero	2023-01-27T00:00:00	2024-11-06T08:00:00	1	Precipitación	0
75136	7	Sololá	702	San José Chacayá	5	Chacayá	1	Enero	2023-01-27T00:00:00	2024-11-06T08:00:00	8	Radiación solar	185
75137	7	Sololá	702	San José Chacayá	5	Chacayá	1	Enero	2023-01-27T00:00:00	2024-11-06T09:00:00	2	Temperatura media	17.7
75138	7	Sololá	702	San José Chacayá	5	Chacayá	1	Enero	2023-01-27T00:00:00	2024-11-06T09:00:00	4	Temperatura máxima	18
75139	7	Sololá	702	San José Chacayá	5	Chacayá	1	Enero	2023-01-27T00:00:00	2024-11-06T09:00:00	3	Temperatura mínima	16.7
75140	7	Sololá	702	San José Chacayá	5	Chacayá	1	Enero	2023-01-27T00:00:00	2024-11-06T09:00:00	5	Humedad	63
75141	7	Sololá	702	San José Chacayá	5	Chacayá	1	Enero	2023-01-27T00:00:00	2024-11-06T09:00:00	6	Velocidad del viento	8
75142	7	Sololá	702	San José Chacayá	5	Chacayá	1	Enero	2023-01-27T00:00:00	2024-11-06T09:00:00	7	Dirección del viento	8.05
75143	7	Sololá	702	San José Chacayá	5	Chacayá	1	Enero	2023-01-27T00:00:00	2024-11-06T09:00:00	1	Precipitación	0
75144	7	Sololá	702	San José Chacayá	5	Chacayá	1	Enero	2023-01-27T00:00:00	2024-11-06T09:00:00	8	Radiación solar	425
75145	7	Sololá	702	San José Chacayá	5	Chacayá	1	Enero	2023-01-27T00:00:00	2024-11-06T10:00:00	2	Temperatura media	19.1
75146	7	Sololá	702	San José Chacayá	5	Chacayá	1	Enero	2023-01-27T00:00:00	2024-11-06T10:00:00	4	Temperatura máxima	19.9
75147	7	Sololá	702	San José Chacayá	5	Chacayá	1	Enero	2023-01-27T00:00:00	2024-11-06T10:00:00	3	Temperatura mínima	17.7
75148	7	Sololá	702	San José Chacayá	5	Chacayá	1	Enero	2023-01-27T00:00:00	2024-11-06T10:00:00	5	Humedad	59
75149	7	Sololá	702	San José Chacayá	5	Chacayá	1	Enero	2023-01-27T00:00:00	2024-11-06T10:00:00	6	Velocidad del viento	4.8
75150	7	Sololá	702	San José Chacayá	5	Chacayá	1	Enero	2023-01-27T00:00:00	2024-11-06T10:00:00	7	Dirección del viento	4.83
75151	7	Sololá	702	San José Chacayá	5	Chacayá	1	Enero	2023-01-27T00:00:00	2024-11-06T10:00:00	1	Precipitación	0
75152	7	Sololá	702	San José Chacayá	5	Chacayá	1	Enero	2023-01-27T00:00:00	2024-11-06T10:00:00	8	Radiación solar	149
75153	7	Sololá	702	San José Chacayá	5	Chacayá	1	Enero	2023-01-27T00:00:00	2024-11-06T11:00:00	2	Temperatura media	17.3
75154	7	Sololá	702	San José Chacayá	5	Chacayá	1	Enero	2023-01-27T00:00:00	2024-11-06T11:00:00	4	Temperatura máxima	19.1
75155	7	Sololá	702	San José Chacayá	5	Chacayá	1	Enero	2023-01-27T00:00:00	2024-11-06T11:00:00	3	Temperatura mínima	17.3
75156	7	Sololá	702	San José Chacayá	5	Chacayá	1	Enero	2023-01-27T00:00:00	2024-11-06T11:00:00	5	Humedad	66
75157	7	Sololá	702	San José Chacayá	5	Chacayá	1	Enero	2023-01-27T00:00:00	2024-11-06T11:00:00	6	Velocidad del viento	6.4
75158	7	Sololá	702	San José Chacayá	5	Chacayá	1	Enero	2023-01-27T00:00:00	2024-11-06T11:00:00	7	Dirección del viento	6.44
75159	7	Sololá	702	San José Chacayá	5	Chacayá	1	Enero	2023-01-27T00:00:00	2024-11-06T11:00:00	1	Precipitación	0
75160	7	Sololá	702	San José Chacayá	5	Chacayá	1	Enero	2023-01-27T00:00:00	2024-11-06T11:00:00	8	Radiación solar	34
75161	7	Sololá	702	San José Chacayá	5	Chacayá	1	Enero	2023-01-27T00:00:00	2024-11-06T12:00:00	2	Temperatura media	17.2
75162	7	Sololá	702	San José Chacayá	5	Chacayá	1	Enero	2023-01-27T00:00:00	2024-11-06T12:00:00	4	Temperatura máxima	17.3
75163	7	Sololá	702	San José Chacayá	5	Chacayá	1	Enero	2023-01-27T00:00:00	2024-11-06T12:00:00	3	Temperatura mínima	16.5
75164	7	Sololá	702	San José Chacayá	5	Chacayá	1	Enero	2023-01-27T00:00:00	2024-11-06T12:00:00	5	Humedad	66
75165	7	Sololá	702	San José Chacayá	5	Chacayá	1	Enero	2023-01-27T00:00:00	2024-11-06T12:00:00	6	Velocidad del viento	4.8
75166	7	Sololá	702	San José Chacayá	5	Chacayá	1	Enero	2023-01-27T00:00:00	2024-11-06T12:00:00	7	Dirección del viento	4.83
75167	7	Sololá	702	San José Chacayá	5	Chacayá	1	Enero	2023-01-27T00:00:00	2024-11-06T12:00:00	1	Precipitación	0
75168	7	Sololá	702	San José Chacayá	5	Chacayá	1	Enero	2023-01-27T00:00:00	2024-11-06T12:00:00	8	Radiación solar	638
75169	7	Sololá	702	San José Chacayá	5	Chacayá	1	Enero	2023-01-27T00:00:00	2024-11-06T13:00:00	2	Temperatura media	17
75170	7	Sololá	702	San José Chacayá	5	Chacayá	1	Enero	2023-01-27T00:00:00	2024-11-06T13:00:00	4	Temperatura máxima	17.3
75171	7	Sololá	702	San José Chacayá	5	Chacayá	1	Enero	2023-01-27T00:00:00	2024-11-06T13:00:00	3	Temperatura mínima	16.8
75172	7	Sololá	702	San José Chacayá	5	Chacayá	1	Enero	2023-01-27T00:00:00	2024-11-06T13:00:00	5	Humedad	67
75173	7	Sololá	702	San José Chacayá	5	Chacayá	1	Enero	2023-01-27T00:00:00	2024-11-06T13:00:00	6	Velocidad del viento	4.8
75174	7	Sololá	702	San José Chacayá	5	Chacayá	1	Enero	2023-01-27T00:00:00	2024-11-06T13:00:00	7	Dirección del viento	4.83
75175	7	Sololá	702	San José Chacayá	5	Chacayá	1	Enero	2023-01-27T00:00:00	2024-11-06T13:00:00	1	Precipitación	0
75176	7	Sololá	702	San José Chacayá	5	Chacayá	1	Enero	2023-01-27T00:00:00	2024-11-06T13:00:00	8	Radiación solar	885
75177	7	Sololá	702	San José Chacayá	5	Chacayá	1	Enero	2023-01-27T00:00:00	2024-11-06T14:00:00	2	Temperatura media	17.1
75178	7	Sololá	702	San José Chacayá	5	Chacayá	1	Enero	2023-01-27T00:00:00	2024-11-06T14:00:00	4	Temperatura máxima	17.7
75179	7	Sololá	702	San José Chacayá	5	Chacayá	1	Enero	2023-01-27T00:00:00	2024-11-06T14:00:00	3	Temperatura mínima	16.9
75180	7	Sololá	702	San José Chacayá	5	Chacayá	1	Enero	2023-01-27T00:00:00	2024-11-06T14:00:00	5	Humedad	67
75181	7	Sololá	702	San José Chacayá	5	Chacayá	1	Enero	2023-01-27T00:00:00	2024-11-06T14:00:00	6	Velocidad del viento	6.4
75182	7	Sololá	702	San José Chacayá	5	Chacayá	1	Enero	2023-01-27T00:00:00	2024-11-06T14:00:00	7	Dirección del viento	6.44
75183	7	Sololá	702	San José Chacayá	5	Chacayá	1	Enero	2023-01-27T00:00:00	2024-11-06T14:00:00	1	Precipitación	0
75184	7	Sololá	702	San José Chacayá	5	Chacayá	1	Enero	2023-01-27T00:00:00	2024-11-06T14:00:00	8	Radiación solar	842
75185	7	Sololá	702	San José Chacayá	5	Chacayá	1	Enero	2023-01-27T00:00:00	2024-11-06T15:00:00	2	Temperatura media	16.6
75186	7	Sololá	702	San José Chacayá	5	Chacayá	1	Enero	2023-01-27T00:00:00	2024-11-06T15:00:00	4	Temperatura máxima	17.2
75187	7	Sololá	702	San José Chacayá	5	Chacayá	1	Enero	2023-01-27T00:00:00	2024-11-06T15:00:00	3	Temperatura mínima	16.4
75188	7	Sololá	702	San José Chacayá	5	Chacayá	1	Enero	2023-01-27T00:00:00	2024-11-06T15:00:00	5	Humedad	69
75189	7	Sololá	702	San José Chacayá	5	Chacayá	1	Enero	2023-01-27T00:00:00	2024-11-06T15:00:00	6	Velocidad del viento	4.8
75190	7	Sololá	702	San José Chacayá	5	Chacayá	1	Enero	2023-01-27T00:00:00	2024-11-06T15:00:00	7	Dirección del viento	4.83
75191	7	Sololá	702	San José Chacayá	5	Chacayá	1	Enero	2023-01-27T00:00:00	2024-11-06T15:00:00	1	Precipitación	0
75192	7	Sololá	702	San José Chacayá	5	Chacayá	1	Enero	2023-01-27T00:00:00	2024-11-06T15:00:00	8	Radiación solar	717
75193	7	Sololá	702	San José Chacayá	5	Chacayá	1	Enero	2023-01-27T00:00:00	2024-11-06T16:00:00	2	Temperatura media	15.7
75194	7	Sololá	702	San José Chacayá	5	Chacayá	1	Enero	2023-01-27T00:00:00	2024-11-06T16:00:00	4	Temperatura máxima	16.7
75195	7	Sololá	702	San José Chacayá	5	Chacayá	1	Enero	2023-01-27T00:00:00	2024-11-06T16:00:00	3	Temperatura mínima	15.7
75196	7	Sololá	702	San José Chacayá	5	Chacayá	1	Enero	2023-01-27T00:00:00	2024-11-06T16:00:00	5	Humedad	73
75197	7	Sololá	702	San José Chacayá	5	Chacayá	1	Enero	2023-01-27T00:00:00	2024-11-06T16:00:00	6	Velocidad del viento	4.8
75198	7	Sololá	702	San José Chacayá	5	Chacayá	1	Enero	2023-01-27T00:00:00	2024-11-06T16:00:00	7	Dirección del viento	4.83
75199	7	Sololá	702	San José Chacayá	5	Chacayá	1	Enero	2023-01-27T00:00:00	2024-11-06T16:00:00	1	Precipitación	0
75200	7	Sololá	702	San José Chacayá	5	Chacayá	1	Enero	2023-01-27T00:00:00	2024-11-06T16:00:00	8	Radiación solar	473
75201	7	Sololá	702	San José Chacayá	5	Chacayá	1	Enero	2023-01-27T00:00:00	2024-11-06T17:00:00	2	Temperatura media	14.1
75202	7	Sololá	702	San José Chacayá	5	Chacayá	1	Enero	2023-01-27T00:00:00	2024-11-06T17:00:00	4	Temperatura máxima	15.8
75203	7	Sololá	702	San José Chacayá	5	Chacayá	1	Enero	2023-01-27T00:00:00	2024-11-06T17:00:00	3	Temperatura mínima	14.1
75204	7	Sololá	702	San José Chacayá	5	Chacayá	1	Enero	2023-01-27T00:00:00	2024-11-06T17:00:00	5	Humedad	79
75205	7	Sololá	702	San José Chacayá	5	Chacayá	1	Enero	2023-01-27T00:00:00	2024-11-06T17:00:00	6	Velocidad del viento	4.8
75206	7	Sololá	702	San José Chacayá	5	Chacayá	1	Enero	2023-01-27T00:00:00	2024-11-06T17:00:00	7	Dirección del viento	4.83
75207	7	Sololá	702	San José Chacayá	5	Chacayá	1	Enero	2023-01-27T00:00:00	2024-11-06T17:00:00	1	Precipitación	0
75208	7	Sololá	702	San José Chacayá	5	Chacayá	1	Enero	2023-01-27T00:00:00	2024-11-06T17:00:00	8	Radiación solar	218
75209	7	Sololá	702	San José Chacayá	5	Chacayá	1	Enero	2023-01-27T00:00:00	2024-11-06T18:00:00	2	Temperatura media	13.6
75210	7	Sololá	702	San José Chacayá	5	Chacayá	1	Enero	2023-01-27T00:00:00	2024-11-06T18:00:00	4	Temperatura máxima	14.1
75211	7	Sololá	702	San José Chacayá	5	Chacayá	1	Enero	2023-01-27T00:00:00	2024-11-06T18:00:00	3	Temperatura mínima	13.6
75212	7	Sololá	702	San José Chacayá	5	Chacayá	1	Enero	2023-01-27T00:00:00	2024-11-06T18:00:00	5	Humedad	81
75213	7	Sololá	702	San José Chacayá	5	Chacayá	1	Enero	2023-01-27T00:00:00	2024-11-06T18:00:00	6	Velocidad del viento	4.8
75214	7	Sololá	702	San José Chacayá	5	Chacayá	1	Enero	2023-01-27T00:00:00	2024-11-06T18:00:00	7	Dirección del viento	4.83
75215	7	Sololá	702	San José Chacayá	5	Chacayá	1	Enero	2023-01-27T00:00:00	2024-11-06T18:00:00	1	Precipitación	0
75216	7	Sololá	702	San José Chacayá	5	Chacayá	1	Enero	2023-01-27T00:00:00	2024-11-06T18:00:00	8	Radiación solar	18
75217	7	Sololá	702	San José Chacayá	5	Chacayá	1	Enero	2023-01-27T00:00:00	2024-11-06T19:00:00	2	Temperatura media	12.9
75218	7	Sololá	702	San José Chacayá	5	Chacayá	1	Enero	2023-01-27T00:00:00	2024-11-06T19:00:00	4	Temperatura máxima	13.6
75219	7	Sololá	702	San José Chacayá	5	Chacayá	1	Enero	2023-01-27T00:00:00	2024-11-06T19:00:00	3	Temperatura mínima	12.9
75220	7	Sololá	702	San José Chacayá	5	Chacayá	1	Enero	2023-01-27T00:00:00	2024-11-06T19:00:00	5	Humedad	83
75221	7	Sololá	702	San José Chacayá	5	Chacayá	1	Enero	2023-01-27T00:00:00	2024-11-06T19:00:00	6	Velocidad del viento	3.2
75222	7	Sololá	702	San José Chacayá	5	Chacayá	1	Enero	2023-01-27T00:00:00	2024-11-06T19:00:00	7	Dirección del viento	3.22
75223	7	Sololá	702	San José Chacayá	5	Chacayá	1	Enero	2023-01-27T00:00:00	2024-11-06T19:00:00	1	Precipitación	0
75224	7	Sololá	702	San José Chacayá	5	Chacayá	1	Enero	2023-01-27T00:00:00	2024-11-06T19:00:00	8	Radiación solar	0
75225	7	Sololá	702	San José Chacayá	5	Chacayá	1	Enero	2023-01-27T00:00:00	2024-11-06T20:00:00	2	Temperatura media	12.8
75226	7	Sololá	702	San José Chacayá	5	Chacayá	1	Enero	2023-01-27T00:00:00	2024-11-06T20:00:00	4	Temperatura máxima	13.2
75227	7	Sololá	702	San José Chacayá	5	Chacayá	1	Enero	2023-01-27T00:00:00	2024-11-06T20:00:00	3	Temperatura mínima	12.8
75228	7	Sololá	702	San José Chacayá	5	Chacayá	1	Enero	2023-01-27T00:00:00	2024-11-06T20:00:00	5	Humedad	82
75229	7	Sololá	702	San José Chacayá	5	Chacayá	1	Enero	2023-01-27T00:00:00	2024-11-06T20:00:00	6	Velocidad del viento	6.4
75230	7	Sololá	702	San José Chacayá	5	Chacayá	1	Enero	2023-01-27T00:00:00	2024-11-06T20:00:00	7	Dirección del viento	6.44
75231	7	Sololá	702	San José Chacayá	5	Chacayá	1	Enero	2023-01-27T00:00:00	2024-11-06T20:00:00	1	Precipitación	0
75232	7	Sololá	702	San José Chacayá	5	Chacayá	1	Enero	2023-01-27T00:00:00	2024-11-06T20:00:00	8	Radiación solar	0
75233	7	Sololá	702	San José Chacayá	5	Chacayá	1	Enero	2023-01-27T00:00:00	2024-11-06T21:00:00	2	Temperatura media	12.8
75234	7	Sololá	702	San José Chacayá	5	Chacayá	1	Enero	2023-01-27T00:00:00	2024-11-06T21:00:00	4	Temperatura máxima	13
75235	7	Sololá	702	San José Chacayá	5	Chacayá	1	Enero	2023-01-27T00:00:00	2024-11-06T21:00:00	3	Temperatura mínima	12.7
75236	7	Sololá	702	San José Chacayá	5	Chacayá	1	Enero	2023-01-27T00:00:00	2024-11-06T21:00:00	5	Humedad	69
75237	7	Sololá	702	San José Chacayá	5	Chacayá	1	Enero	2023-01-27T00:00:00	2024-11-06T21:00:00	6	Velocidad del viento	4.8
75238	7	Sololá	702	San José Chacayá	5	Chacayá	1	Enero	2023-01-27T00:00:00	2024-11-06T21:00:00	7	Dirección del viento	4.83
75239	7	Sololá	702	San José Chacayá	5	Chacayá	1	Enero	2023-01-27T00:00:00	2024-11-06T21:00:00	1	Precipitación	0
75240	7	Sololá	702	San José Chacayá	5	Chacayá	1	Enero	2023-01-27T00:00:00	2024-11-06T21:00:00	8	Radiación solar	0
75241	7	Sololá	702	San José Chacayá	5	Chacayá	1	Enero	2023-01-27T00:00:00	2024-11-06T22:00:00	2	Temperatura media	13.3
75242	7	Sololá	702	San José Chacayá	5	Chacayá	1	Enero	2023-01-27T00:00:00	2024-11-06T22:00:00	4	Temperatura máxima	13.3
75243	7	Sololá	702	San José Chacayá	5	Chacayá	1	Enero	2023-01-27T00:00:00	2024-11-06T22:00:00	3	Temperatura mínima	12.8
75244	7	Sololá	702	San José Chacayá	5	Chacayá	1	Enero	2023-01-27T00:00:00	2024-11-06T22:00:00	5	Humedad	54
75245	7	Sololá	702	San José Chacayá	5	Chacayá	1	Enero	2023-01-27T00:00:00	2024-11-06T22:00:00	6	Velocidad del viento	6.4
75246	7	Sololá	702	San José Chacayá	5	Chacayá	1	Enero	2023-01-27T00:00:00	2024-11-06T22:00:00	7	Dirección del viento	6.44
75247	7	Sololá	702	San José Chacayá	5	Chacayá	1	Enero	2023-01-27T00:00:00	2024-11-06T22:00:00	1	Precipitación	0
75248	7	Sololá	702	San José Chacayá	5	Chacayá	1	Enero	2023-01-27T00:00:00	2024-11-06T22:00:00	8	Radiación solar	0
75249	7	Sololá	702	San José Chacayá	5	Chacayá	1	Enero	2023-01-27T00:00:00	2024-11-06T23:00:00	2	Temperatura media	12.8
75250	7	Sololá	702	San José Chacayá	5	Chacayá	1	Enero	2023-01-27T00:00:00	2024-11-06T23:00:00	4	Temperatura máxima	13.3
75251	7	Sololá	702	San José Chacayá	5	Chacayá	1	Enero	2023-01-27T00:00:00	2024-11-06T23:00:00	3	Temperatura mínima	12.7
75252	7	Sololá	702	San José Chacayá	5	Chacayá	1	Enero	2023-01-27T00:00:00	2024-11-06T23:00:00	5	Humedad	32
75253	7	Sololá	702	San José Chacayá	5	Chacayá	1	Enero	2023-01-27T00:00:00	2024-11-06T23:00:00	6	Velocidad del viento	4.8
75254	7	Sololá	702	San José Chacayá	5	Chacayá	1	Enero	2023-01-27T00:00:00	2024-11-06T23:00:00	7	Dirección del viento	4.83
75255	7	Sololá	702	San José Chacayá	5	Chacayá	1	Enero	2023-01-27T00:00:00	2024-11-06T23:00:00	1	Precipitación	0
75256	7	Sololá	702	San José Chacayá	5	Chacayá	1	Enero	2023-01-27T00:00:00	2024-11-06T23:00:00	8	Radiación solar	0
75257	7	Sololá	702	San José Chacayá	5	Chacayá	1	Enero	2023-01-28T00:00:00	2024-11-06T00:00:00	2	Temperatura media	12.3
75258	7	Sololá	702	San José Chacayá	5	Chacayá	1	Enero	2023-01-28T00:00:00	2024-11-06T00:00:00	4	Temperatura máxima	13
75259	7	Sololá	702	San José Chacayá	5	Chacayá	1	Enero	2023-01-28T00:00:00	2024-11-06T00:00:00	3	Temperatura mínima	12.3
75260	7	Sololá	702	San José Chacayá	5	Chacayá	1	Enero	2023-01-28T00:00:00	2024-11-06T00:00:00	5	Humedad	36
75261	7	Sololá	702	San José Chacayá	5	Chacayá	1	Enero	2023-01-28T00:00:00	2024-11-06T00:00:00	6	Velocidad del viento	8
75262	7	Sololá	702	San José Chacayá	5	Chacayá	1	Enero	2023-01-28T00:00:00	2024-11-06T00:00:00	7	Dirección del viento	8.05
75263	7	Sololá	702	San José Chacayá	5	Chacayá	1	Enero	2023-01-28T00:00:00	2024-11-06T00:00:00	1	Precipitación	0
75264	7	Sololá	702	San José Chacayá	5	Chacayá	1	Enero	2023-01-28T00:00:00	2024-11-06T00:00:00	8	Radiación solar	0
75265	7	Sololá	702	San José Chacayá	5	Chacayá	1	Enero	2023-01-28T00:00:00	2024-11-06T01:00:00	2	Temperatura media	11.8
75266	7	Sololá	702	San José Chacayá	5	Chacayá	1	Enero	2023-01-28T00:00:00	2024-11-06T01:00:00	4	Temperatura máxima	12.6
75267	7	Sololá	702	San José Chacayá	5	Chacayá	1	Enero	2023-01-28T00:00:00	2024-11-06T01:00:00	3	Temperatura mínima	11.5
75268	7	Sololá	702	San José Chacayá	5	Chacayá	1	Enero	2023-01-28T00:00:00	2024-11-06T01:00:00	5	Humedad	54
75269	7	Sololá	702	San José Chacayá	5	Chacayá	1	Enero	2023-01-28T00:00:00	2024-11-06T01:00:00	6	Velocidad del viento	6.4
75270	7	Sololá	702	San José Chacayá	5	Chacayá	1	Enero	2023-01-28T00:00:00	2024-11-06T01:00:00	7	Dirección del viento	6.44
75271	7	Sololá	702	San José Chacayá	5	Chacayá	1	Enero	2023-01-28T00:00:00	2024-11-06T01:00:00	1	Precipitación	0
75272	7	Sololá	702	San José Chacayá	5	Chacayá	1	Enero	2023-01-28T00:00:00	2024-11-06T01:00:00	8	Radiación solar	0
75273	7	Sololá	702	San José Chacayá	5	Chacayá	1	Enero	2023-01-28T00:00:00	2024-11-06T02:00:00	2	Temperatura media	10.3
75274	7	Sololá	702	San José Chacayá	5	Chacayá	1	Enero	2023-01-28T00:00:00	2024-11-06T02:00:00	4	Temperatura máxima	11.8
75275	7	Sololá	702	San José Chacayá	5	Chacayá	1	Enero	2023-01-28T00:00:00	2024-11-06T02:00:00	3	Temperatura mínima	10.3
75276	7	Sololá	702	San José Chacayá	5	Chacayá	1	Enero	2023-01-28T00:00:00	2024-11-06T02:00:00	5	Humedad	60
75277	7	Sololá	702	San José Chacayá	5	Chacayá	1	Enero	2023-01-28T00:00:00	2024-11-06T02:00:00	6	Velocidad del viento	4.8
75278	7	Sololá	702	San José Chacayá	5	Chacayá	1	Enero	2023-01-28T00:00:00	2024-11-06T02:00:00	7	Dirección del viento	4.83
75279	7	Sololá	702	San José Chacayá	5	Chacayá	1	Enero	2023-01-28T00:00:00	2024-11-06T02:00:00	1	Precipitación	0
75280	7	Sololá	702	San José Chacayá	5	Chacayá	1	Enero	2023-01-28T00:00:00	2024-11-06T02:00:00	8	Radiación solar	0
75281	7	Sololá	702	San José Chacayá	5	Chacayá	1	Enero	2023-01-28T00:00:00	2024-11-06T03:00:00	2	Temperatura media	11
75282	7	Sololá	702	San José Chacayá	5	Chacayá	1	Enero	2023-01-28T00:00:00	2024-11-06T03:00:00	4	Temperatura máxima	11.1
75283	7	Sololá	702	San José Chacayá	5	Chacayá	1	Enero	2023-01-28T00:00:00	2024-11-06T03:00:00	3	Temperatura mínima	10.2
75284	7	Sololá	702	San José Chacayá	5	Chacayá	1	Enero	2023-01-28T00:00:00	2024-11-06T03:00:00	5	Humedad	76
75285	7	Sololá	702	San José Chacayá	5	Chacayá	1	Enero	2023-01-28T00:00:00	2024-11-06T03:00:00	6	Velocidad del viento	4.8
75286	7	Sololá	702	San José Chacayá	5	Chacayá	1	Enero	2023-01-28T00:00:00	2024-11-06T03:00:00	7	Dirección del viento	4.83
75287	7	Sololá	702	San José Chacayá	5	Chacayá	1	Enero	2023-01-28T00:00:00	2024-11-06T03:00:00	1	Precipitación	0
75288	7	Sololá	702	San José Chacayá	5	Chacayá	1	Enero	2023-01-28T00:00:00	2024-11-06T03:00:00	8	Radiación solar	0
75289	7	Sololá	702	San José Chacayá	5	Chacayá	1	Enero	2023-01-28T00:00:00	2024-11-06T04:00:00	2	Temperatura media	11.2
75290	7	Sololá	702	San José Chacayá	5	Chacayá	1	Enero	2023-01-28T00:00:00	2024-11-06T04:00:00	4	Temperatura máxima	11.2
75291	7	Sololá	702	San José Chacayá	5	Chacayá	1	Enero	2023-01-28T00:00:00	2024-11-06T04:00:00	3	Temperatura mínima	10.9
75292	7	Sololá	702	San José Chacayá	5	Chacayá	1	Enero	2023-01-28T00:00:00	2024-11-06T04:00:00	5	Humedad	83
75293	7	Sololá	702	San José Chacayá	5	Chacayá	1	Enero	2023-01-28T00:00:00	2024-11-06T04:00:00	6	Velocidad del viento	6.4
75294	7	Sololá	702	San José Chacayá	5	Chacayá	1	Enero	2023-01-28T00:00:00	2024-11-06T04:00:00	7	Dirección del viento	6.44
75295	7	Sololá	702	San José Chacayá	5	Chacayá	1	Enero	2023-01-28T00:00:00	2024-11-06T04:00:00	1	Precipitación	0
75296	7	Sololá	702	San José Chacayá	5	Chacayá	1	Enero	2023-01-28T00:00:00	2024-11-06T04:00:00	8	Radiación solar	0
75297	7	Sololá	702	San José Chacayá	5	Chacayá	1	Enero	2023-01-28T00:00:00	2024-11-06T05:00:00	2	Temperatura media	11.7
75298	7	Sololá	702	San José Chacayá	5	Chacayá	1	Enero	2023-01-28T00:00:00	2024-11-06T05:00:00	4	Temperatura máxima	11.7
75299	7	Sololá	702	San José Chacayá	5	Chacayá	1	Enero	2023-01-28T00:00:00	2024-11-06T05:00:00	3	Temperatura mínima	11.1
75300	7	Sololá	702	San José Chacayá	5	Chacayá	1	Enero	2023-01-28T00:00:00	2024-11-06T05:00:00	5	Humedad	81
75301	7	Sololá	702	San José Chacayá	5	Chacayá	1	Enero	2023-01-28T00:00:00	2024-11-06T05:00:00	6	Velocidad del viento	6.4
75302	7	Sololá	702	San José Chacayá	5	Chacayá	1	Enero	2023-01-28T00:00:00	2024-11-06T05:00:00	7	Dirección del viento	6.44
75303	7	Sololá	702	San José Chacayá	5	Chacayá	1	Enero	2023-01-28T00:00:00	2024-11-06T05:00:00	1	Precipitación	0
75304	7	Sololá	702	San José Chacayá	5	Chacayá	1	Enero	2023-01-28T00:00:00	2024-11-06T05:00:00	8	Radiación solar	0
75305	7	Sololá	702	San José Chacayá	5	Chacayá	1	Enero	2023-01-28T00:00:00	2024-11-06T06:00:00	2	Temperatura media	12.1
75306	7	Sololá	702	San José Chacayá	5	Chacayá	1	Enero	2023-01-28T00:00:00	2024-11-06T06:00:00	4	Temperatura máxima	12.1
75307	7	Sololá	702	San José Chacayá	5	Chacayá	1	Enero	2023-01-28T00:00:00	2024-11-06T06:00:00	3	Temperatura mínima	11.4
75308	7	Sololá	702	San José Chacayá	5	Chacayá	1	Enero	2023-01-28T00:00:00	2024-11-06T06:00:00	5	Humedad	79
75309	7	Sololá	702	San José Chacayá	5	Chacayá	1	Enero	2023-01-28T00:00:00	2024-11-06T06:00:00	6	Velocidad del viento	6.4
75310	7	Sololá	702	San José Chacayá	5	Chacayá	1	Enero	2023-01-28T00:00:00	2024-11-06T06:00:00	7	Dirección del viento	6.44
75311	7	Sololá	702	San José Chacayá	5	Chacayá	1	Enero	2023-01-28T00:00:00	2024-11-06T06:00:00	1	Precipitación	0
75312	7	Sololá	702	San José Chacayá	5	Chacayá	1	Enero	2023-01-28T00:00:00	2024-11-06T06:00:00	8	Radiación solar	0
75313	7	Sololá	702	San José Chacayá	5	Chacayá	1	Enero	2023-01-28T00:00:00	2024-11-06T07:00:00	2	Temperatura media	14.2
75314	7	Sololá	702	San José Chacayá	5	Chacayá	1	Enero	2023-01-28T00:00:00	2024-11-06T07:00:00	4	Temperatura máxima	14.2
75315	7	Sololá	702	San José Chacayá	5	Chacayá	1	Enero	2023-01-28T00:00:00	2024-11-06T07:00:00	3	Temperatura mínima	12.1
75316	7	Sololá	702	San José Chacayá	5	Chacayá	1	Enero	2023-01-28T00:00:00	2024-11-06T07:00:00	5	Humedad	75
75317	7	Sololá	702	San José Chacayá	5	Chacayá	1	Enero	2023-01-28T00:00:00	2024-11-06T07:00:00	6	Velocidad del viento	8
75318	7	Sololá	702	San José Chacayá	5	Chacayá	1	Enero	2023-01-28T00:00:00	2024-11-06T07:00:00	7	Dirección del viento	8.05
75319	7	Sololá	702	San José Chacayá	5	Chacayá	1	Enero	2023-01-28T00:00:00	2024-11-06T07:00:00	1	Precipitación	0
75320	7	Sololá	702	San José Chacayá	5	Chacayá	1	Enero	2023-01-28T00:00:00	2024-11-06T07:00:00	8	Radiación solar	14
75321	7	Sololá	702	San José Chacayá	5	Chacayá	1	Enero	2023-01-28T00:00:00	2024-11-06T08:00:00	2	Temperatura media	15
75322	7	Sololá	702	San José Chacayá	5	Chacayá	1	Enero	2023-01-28T00:00:00	2024-11-06T08:00:00	4	Temperatura máxima	15
75323	7	Sololá	702	San José Chacayá	5	Chacayá	1	Enero	2023-01-28T00:00:00	2024-11-06T08:00:00	3	Temperatura mínima	14.2
75324	7	Sololá	702	San José Chacayá	5	Chacayá	1	Enero	2023-01-28T00:00:00	2024-11-06T08:00:00	5	Humedad	71
75325	7	Sololá	702	San José Chacayá	5	Chacayá	1	Enero	2023-01-28T00:00:00	2024-11-06T08:00:00	6	Velocidad del viento	8
75326	7	Sololá	702	San José Chacayá	5	Chacayá	1	Enero	2023-01-28T00:00:00	2024-11-06T08:00:00	7	Dirección del viento	8.05
75327	7	Sololá	702	San José Chacayá	5	Chacayá	1	Enero	2023-01-28T00:00:00	2024-11-06T08:00:00	1	Precipitación	0
75328	7	Sololá	702	San José Chacayá	5	Chacayá	1	Enero	2023-01-28T00:00:00	2024-11-06T08:00:00	8	Radiación solar	165
75329	7	Sololá	702	San José Chacayá	5	Chacayá	1	Enero	2023-01-28T00:00:00	2024-11-06T09:00:00	2	Temperatura media	17.8
75330	7	Sololá	702	San José Chacayá	5	Chacayá	1	Enero	2023-01-28T00:00:00	2024-11-06T09:00:00	4	Temperatura máxima	17.8
75331	7	Sololá	702	San José Chacayá	5	Chacayá	1	Enero	2023-01-28T00:00:00	2024-11-06T09:00:00	3	Temperatura mínima	14.9
75332	7	Sololá	702	San José Chacayá	5	Chacayá	1	Enero	2023-01-28T00:00:00	2024-11-06T09:00:00	5	Humedad	48
75333	7	Sololá	702	San José Chacayá	5	Chacayá	1	Enero	2023-01-28T00:00:00	2024-11-06T09:00:00	6	Velocidad del viento	6.4
75334	7	Sololá	702	San José Chacayá	5	Chacayá	1	Enero	2023-01-28T00:00:00	2024-11-06T09:00:00	7	Dirección del viento	6.44
75335	7	Sololá	702	San José Chacayá	5	Chacayá	1	Enero	2023-01-28T00:00:00	2024-11-06T09:00:00	1	Precipitación	0
75336	7	Sololá	702	San José Chacayá	5	Chacayá	1	Enero	2023-01-28T00:00:00	2024-11-06T09:00:00	8	Radiación solar	382
75337	7	Sololá	702	San José Chacayá	5	Chacayá	1	Enero	2023-01-28T00:00:00	2024-11-06T10:00:00	2	Temperatura media	19.1
75338	7	Sololá	702	San José Chacayá	5	Chacayá	1	Enero	2023-01-28T00:00:00	2024-11-06T10:00:00	4	Temperatura máxima	19.8
75339	7	Sololá	702	San José Chacayá	5	Chacayá	1	Enero	2023-01-28T00:00:00	2024-11-06T10:00:00	3	Temperatura mínima	17.6
75340	7	Sololá	702	San José Chacayá	5	Chacayá	1	Enero	2023-01-28T00:00:00	2024-11-06T10:00:00	5	Humedad	39
75341	7	Sololá	702	San José Chacayá	5	Chacayá	1	Enero	2023-01-28T00:00:00	2024-11-06T10:00:00	6	Velocidad del viento	4.8
75342	7	Sololá	702	San José Chacayá	5	Chacayá	1	Enero	2023-01-28T00:00:00	2024-11-06T10:00:00	7	Dirección del viento	4.83
75343	7	Sololá	702	San José Chacayá	5	Chacayá	1	Enero	2023-01-28T00:00:00	2024-11-06T10:00:00	1	Precipitación	0
75344	7	Sololá	702	San José Chacayá	5	Chacayá	1	Enero	2023-01-28T00:00:00	2024-11-06T10:00:00	8	Radiación solar	596
75345	7	Sololá	702	San José Chacayá	5	Chacayá	1	Enero	2023-01-28T00:00:00	2024-11-06T11:00:00	2	Temperatura media	21.4
75346	7	Sololá	702	San José Chacayá	5	Chacayá	1	Enero	2023-01-28T00:00:00	2024-11-06T11:00:00	4	Temperatura máxima	21.5
75347	7	Sololá	702	San José Chacayá	5	Chacayá	1	Enero	2023-01-28T00:00:00	2024-11-06T11:00:00	3	Temperatura mínima	19
75348	7	Sololá	702	San José Chacayá	5	Chacayá	1	Enero	2023-01-28T00:00:00	2024-11-06T11:00:00	5	Humedad	34
75349	7	Sololá	702	San José Chacayá	5	Chacayá	1	Enero	2023-01-28T00:00:00	2024-11-06T11:00:00	6	Velocidad del viento	4.8
75350	7	Sololá	702	San José Chacayá	5	Chacayá	1	Enero	2023-01-28T00:00:00	2024-11-06T11:00:00	7	Dirección del viento	4.83
75351	7	Sololá	702	San José Chacayá	5	Chacayá	1	Enero	2023-01-28T00:00:00	2024-11-06T11:00:00	1	Precipitación	0
75352	7	Sololá	702	San José Chacayá	5	Chacayá	1	Enero	2023-01-28T00:00:00	2024-11-06T11:00:00	8	Radiación solar	749
75353	7	Sololá	702	San José Chacayá	5	Chacayá	1	Enero	2023-01-28T00:00:00	2024-11-06T12:00:00	2	Temperatura media	21.2
75354	7	Sololá	702	San José Chacayá	5	Chacayá	1	Enero	2023-01-28T00:00:00	2024-11-06T12:00:00	4	Temperatura máxima	22.3
75355	7	Sololá	702	San José Chacayá	5	Chacayá	1	Enero	2023-01-28T00:00:00	2024-11-06T12:00:00	3	Temperatura mínima	21.2
75356	7	Sololá	702	San José Chacayá	5	Chacayá	1	Enero	2023-01-28T00:00:00	2024-11-06T12:00:00	5	Humedad	36
75357	7	Sololá	702	San José Chacayá	5	Chacayá	1	Enero	2023-01-28T00:00:00	2024-11-06T12:00:00	6	Velocidad del viento	4.8
75358	7	Sololá	702	San José Chacayá	5	Chacayá	1	Enero	2023-01-28T00:00:00	2024-11-06T12:00:00	7	Dirección del viento	4.83
75359	7	Sololá	702	San José Chacayá	5	Chacayá	1	Enero	2023-01-28T00:00:00	2024-11-06T12:00:00	1	Precipitación	0
75360	7	Sololá	702	San José Chacayá	5	Chacayá	1	Enero	2023-01-28T00:00:00	2024-11-06T12:00:00	8	Radiación solar	817
75361	7	Sololá	702	San José Chacayá	5	Chacayá	1	Enero	2023-01-28T00:00:00	2024-11-06T13:00:00	2	Temperatura media	22.4
75362	7	Sololá	702	San José Chacayá	5	Chacayá	1	Enero	2023-01-28T00:00:00	2024-11-06T13:00:00	4	Temperatura máxima	22.4
75363	7	Sololá	702	San José Chacayá	5	Chacayá	1	Enero	2023-01-28T00:00:00	2024-11-06T13:00:00	3	Temperatura mínima	20.9
75364	7	Sololá	702	San José Chacayá	5	Chacayá	1	Enero	2023-01-28T00:00:00	2024-11-06T13:00:00	5	Humedad	33
75365	7	Sololá	702	San José Chacayá	5	Chacayá	1	Enero	2023-01-28T00:00:00	2024-11-06T13:00:00	6	Velocidad del viento	4.8
75366	7	Sololá	702	San José Chacayá	5	Chacayá	1	Enero	2023-01-28T00:00:00	2024-11-06T13:00:00	7	Dirección del viento	4.83
75367	7	Sololá	702	San José Chacayá	5	Chacayá	1	Enero	2023-01-28T00:00:00	2024-11-06T13:00:00	1	Precipitación	0
75368	7	Sololá	702	San José Chacayá	5	Chacayá	1	Enero	2023-01-28T00:00:00	2024-11-06T13:00:00	8	Radiación solar	788
75369	7	Sololá	702	San José Chacayá	5	Chacayá	1	Enero	2023-01-28T00:00:00	2024-11-06T14:00:00	2	Temperatura media	22.1
75370	7	Sololá	702	San José Chacayá	5	Chacayá	1	Enero	2023-01-28T00:00:00	2024-11-06T14:00:00	4	Temperatura máxima	22.4
75371	7	Sololá	702	San José Chacayá	5	Chacayá	1	Enero	2023-01-28T00:00:00	2024-11-06T14:00:00	3	Temperatura mínima	21.3
75372	7	Sololá	702	San José Chacayá	5	Chacayá	1	Enero	2023-01-28T00:00:00	2024-11-06T14:00:00	5	Humedad	33
75373	7	Sololá	702	San José Chacayá	5	Chacayá	1	Enero	2023-01-28T00:00:00	2024-11-06T14:00:00	6	Velocidad del viento	6.4
75374	7	Sololá	702	San José Chacayá	5	Chacayá	1	Enero	2023-01-28T00:00:00	2024-11-06T14:00:00	7	Dirección del viento	6.44
75375	7	Sololá	702	San José Chacayá	5	Chacayá	1	Enero	2023-01-28T00:00:00	2024-11-06T14:00:00	1	Precipitación	0
75376	7	Sololá	702	San José Chacayá	5	Chacayá	1	Enero	2023-01-28T00:00:00	2024-11-06T14:00:00	8	Radiación solar	630
75377	7	Sololá	702	San José Chacayá	5	Chacayá	1	Enero	2023-01-28T00:00:00	2024-11-06T15:00:00	2	Temperatura media	20.9
75378	7	Sololá	702	San José Chacayá	5	Chacayá	1	Enero	2023-01-28T00:00:00	2024-11-06T15:00:00	4	Temperatura máxima	22.3
75379	7	Sololá	702	San José Chacayá	5	Chacayá	1	Enero	2023-01-28T00:00:00	2024-11-06T15:00:00	3	Temperatura mínima	20.9
75380	7	Sololá	702	San José Chacayá	5	Chacayá	1	Enero	2023-01-28T00:00:00	2024-11-06T15:00:00	5	Humedad	35
75381	7	Sololá	702	San José Chacayá	5	Chacayá	1	Enero	2023-01-28T00:00:00	2024-11-06T15:00:00	6	Velocidad del viento	4.8
75382	7	Sololá	702	San José Chacayá	5	Chacayá	1	Enero	2023-01-28T00:00:00	2024-11-06T15:00:00	7	Dirección del viento	4.83
75383	7	Sololá	702	San José Chacayá	5	Chacayá	1	Enero	2023-01-28T00:00:00	2024-11-06T15:00:00	1	Precipitación	0
75384	7	Sololá	702	San José Chacayá	5	Chacayá	1	Enero	2023-01-28T00:00:00	2024-11-06T15:00:00	8	Radiación solar	479
75385	7	Sololá	702	San José Chacayá	5	Chacayá	1	Enero	2023-01-28T00:00:00	2024-11-06T16:00:00	2	Temperatura media	17.3
75386	7	Sololá	702	San José Chacayá	5	Chacayá	1	Enero	2023-01-28T00:00:00	2024-11-06T16:00:00	4	Temperatura máxima	20.9
75387	7	Sololá	702	San José Chacayá	5	Chacayá	1	Enero	2023-01-28T00:00:00	2024-11-06T16:00:00	3	Temperatura mínima	17.3
75388	7	Sololá	702	San José Chacayá	5	Chacayá	1	Enero	2023-01-28T00:00:00	2024-11-06T16:00:00	5	Humedad	46
75389	7	Sololá	702	San José Chacayá	5	Chacayá	1	Enero	2023-01-28T00:00:00	2024-11-06T16:00:00	6	Velocidad del viento	4.8
75390	7	Sololá	702	San José Chacayá	5	Chacayá	1	Enero	2023-01-28T00:00:00	2024-11-06T16:00:00	7	Dirección del viento	4.83
75391	7	Sololá	702	San José Chacayá	5	Chacayá	1	Enero	2023-01-28T00:00:00	2024-11-06T16:00:00	1	Precipitación	0
75392	7	Sololá	702	San José Chacayá	5	Chacayá	1	Enero	2023-01-28T00:00:00	2024-11-06T16:00:00	8	Radiación solar	255
75393	7	Sololá	702	San José Chacayá	5	Chacayá	1	Enero	2023-01-28T00:00:00	2024-11-06T17:00:00	2	Temperatura media	14.7
75394	7	Sololá	702	San José Chacayá	5	Chacayá	1	Enero	2023-01-28T00:00:00	2024-11-06T17:00:00	4	Temperatura máxima	17.3
75395	7	Sololá	702	San José Chacayá	5	Chacayá	1	Enero	2023-01-28T00:00:00	2024-11-06T17:00:00	3	Temperatura mínima	14.7
75396	7	Sololá	702	San José Chacayá	5	Chacayá	1	Enero	2023-01-28T00:00:00	2024-11-06T17:00:00	5	Humedad	49
75397	7	Sololá	702	San José Chacayá	5	Chacayá	1	Enero	2023-01-28T00:00:00	2024-11-06T17:00:00	6	Velocidad del viento	4.8
75398	7	Sololá	702	San José Chacayá	5	Chacayá	1	Enero	2023-01-28T00:00:00	2024-11-06T17:00:00	7	Dirección del viento	4.83
75399	7	Sololá	702	San José Chacayá	5	Chacayá	1	Enero	2023-01-28T00:00:00	2024-11-06T17:00:00	1	Precipitación	0
75400	7	Sololá	702	San José Chacayá	5	Chacayá	1	Enero	2023-01-28T00:00:00	2024-11-06T17:00:00	8	Radiación solar	129
75401	7	Sololá	702	San José Chacayá	5	Chacayá	1	Enero	2023-01-28T00:00:00	2024-11-06T18:00:00	2	Temperatura media	13.7
75402	7	Sololá	702	San José Chacayá	5	Chacayá	1	Enero	2023-01-28T00:00:00	2024-11-06T18:00:00	4	Temperatura máxima	14.8
75403	7	Sololá	702	San José Chacayá	5	Chacayá	1	Enero	2023-01-28T00:00:00	2024-11-06T18:00:00	3	Temperatura mínima	13.7
75404	7	Sololá	702	San José Chacayá	5	Chacayá	1	Enero	2023-01-28T00:00:00	2024-11-06T18:00:00	5	Humedad	61
75405	7	Sololá	702	San José Chacayá	5	Chacayá	1	Enero	2023-01-28T00:00:00	2024-11-06T18:00:00	6	Velocidad del viento	8
75406	7	Sololá	702	San José Chacayá	5	Chacayá	1	Enero	2023-01-28T00:00:00	2024-11-06T18:00:00	7	Dirección del viento	8.05
75407	7	Sololá	702	San José Chacayá	5	Chacayá	1	Enero	2023-01-28T00:00:00	2024-11-06T18:00:00	1	Precipitación	0
75408	7	Sololá	702	San José Chacayá	5	Chacayá	1	Enero	2023-01-28T00:00:00	2024-11-06T18:00:00	8	Radiación solar	25
75409	7	Sololá	702	San José Chacayá	5	Chacayá	1	Enero	2023-01-28T00:00:00	2024-11-06T19:00:00	2	Temperatura media	13.3
75410	7	Sololá	702	San José Chacayá	5	Chacayá	1	Enero	2023-01-28T00:00:00	2024-11-06T19:00:00	4	Temperatura máxima	13.8
75411	7	Sololá	702	San José Chacayá	5	Chacayá	1	Enero	2023-01-28T00:00:00	2024-11-06T19:00:00	3	Temperatura mínima	13.3
75412	7	Sololá	702	San José Chacayá	5	Chacayá	1	Enero	2023-01-28T00:00:00	2024-11-06T19:00:00	5	Humedad	57
75413	7	Sololá	702	San José Chacayá	5	Chacayá	1	Enero	2023-01-28T00:00:00	2024-11-06T19:00:00	6	Velocidad del viento	8
75414	7	Sololá	702	San José Chacayá	5	Chacayá	1	Enero	2023-01-28T00:00:00	2024-11-06T19:00:00	7	Dirección del viento	8.05
75415	7	Sololá	702	San José Chacayá	5	Chacayá	1	Enero	2023-01-28T00:00:00	2024-11-06T19:00:00	1	Precipitación	0
75416	7	Sololá	702	San José Chacayá	5	Chacayá	1	Enero	2023-01-28T00:00:00	2024-11-06T19:00:00	8	Radiación solar	0
75417	7	Sololá	702	San José Chacayá	5	Chacayá	1	Enero	2023-01-28T00:00:00	2024-11-06T20:00:00	2	Temperatura media	13.1
75418	7	Sololá	702	San José Chacayá	5	Chacayá	1	Enero	2023-01-28T00:00:00	2024-11-06T20:00:00	4	Temperatura máxima	13.3
75419	7	Sololá	702	San José Chacayá	5	Chacayá	1	Enero	2023-01-28T00:00:00	2024-11-06T20:00:00	3	Temperatura mínima	12.2
75420	7	Sololá	702	San José Chacayá	5	Chacayá	1	Enero	2023-01-28T00:00:00	2024-11-06T20:00:00	5	Humedad	58
75421	7	Sololá	702	San José Chacayá	5	Chacayá	1	Enero	2023-01-28T00:00:00	2024-11-06T20:00:00	6	Velocidad del viento	6.4
75422	7	Sololá	702	San José Chacayá	5	Chacayá	1	Enero	2023-01-28T00:00:00	2024-11-06T20:00:00	7	Dirección del viento	6.44
75423	7	Sololá	702	San José Chacayá	5	Chacayá	1	Enero	2023-01-28T00:00:00	2024-11-06T20:00:00	1	Precipitación	0
75424	7	Sololá	702	San José Chacayá	5	Chacayá	1	Enero	2023-01-28T00:00:00	2024-11-06T20:00:00	8	Radiación solar	0
75425	7	Sololá	702	San José Chacayá	5	Chacayá	1	Enero	2023-01-28T00:00:00	2024-11-06T21:00:00	2	Temperatura media	10.3
75426	7	Sololá	702	San José Chacayá	5	Chacayá	1	Enero	2023-01-28T00:00:00	2024-11-06T21:00:00	4	Temperatura máxima	13.1
75427	7	Sololá	702	San José Chacayá	5	Chacayá	1	Enero	2023-01-28T00:00:00	2024-11-06T21:00:00	3	Temperatura mínima	10.3
75428	7	Sololá	702	San José Chacayá	5	Chacayá	1	Enero	2023-01-28T00:00:00	2024-11-06T21:00:00	5	Humedad	61
75429	7	Sololá	702	San José Chacayá	5	Chacayá	1	Enero	2023-01-28T00:00:00	2024-11-06T21:00:00	6	Velocidad del viento	4.8
75430	7	Sololá	702	San José Chacayá	5	Chacayá	1	Enero	2023-01-28T00:00:00	2024-11-06T21:00:00	7	Dirección del viento	4.83
75431	7	Sololá	702	San José Chacayá	5	Chacayá	1	Enero	2023-01-28T00:00:00	2024-11-06T21:00:00	1	Precipitación	0
75432	7	Sololá	702	San José Chacayá	5	Chacayá	1	Enero	2023-01-28T00:00:00	2024-11-06T21:00:00	8	Radiación solar	0
75433	7	Sololá	702	San José Chacayá	5	Chacayá	1	Enero	2023-01-28T00:00:00	2024-11-06T22:00:00	2	Temperatura media	7.5
75434	7	Sololá	702	San José Chacayá	5	Chacayá	1	Enero	2023-01-28T00:00:00	2024-11-06T22:00:00	4	Temperatura máxima	10.3
75435	7	Sololá	702	San José Chacayá	5	Chacayá	1	Enero	2023-01-28T00:00:00	2024-11-06T22:00:00	3	Temperatura mínima	7.2
75436	7	Sololá	702	San José Chacayá	5	Chacayá	1	Enero	2023-01-28T00:00:00	2024-11-06T22:00:00	5	Humedad	65
75437	7	Sololá	702	San José Chacayá	5	Chacayá	1	Enero	2023-01-28T00:00:00	2024-11-06T22:00:00	6	Velocidad del viento	3.2
75438	7	Sololá	702	San José Chacayá	5	Chacayá	1	Enero	2023-01-28T00:00:00	2024-11-06T22:00:00	7	Dirección del viento	3.22
75439	7	Sololá	702	San José Chacayá	5	Chacayá	1	Enero	2023-01-28T00:00:00	2024-11-06T22:00:00	1	Precipitación	0
75440	7	Sololá	702	San José Chacayá	5	Chacayá	1	Enero	2023-01-28T00:00:00	2024-11-06T22:00:00	8	Radiación solar	0
75441	7	Sololá	702	San José Chacayá	5	Chacayá	1	Enero	2023-01-28T00:00:00	2024-11-06T23:00:00	2	Temperatura media	5.7
75442	7	Sololá	702	San José Chacayá	5	Chacayá	1	Enero	2023-01-28T00:00:00	2024-11-06T23:00:00	4	Temperatura máxima	7.6
75443	7	Sololá	702	San José Chacayá	5	Chacayá	1	Enero	2023-01-28T00:00:00	2024-11-06T23:00:00	3	Temperatura mínima	5.7
75444	7	Sololá	702	San José Chacayá	5	Chacayá	1	Enero	2023-01-28T00:00:00	2024-11-06T23:00:00	5	Humedad	59
75445	7	Sololá	702	San José Chacayá	5	Chacayá	1	Enero	2023-01-28T00:00:00	2024-11-06T23:00:00	6	Velocidad del viento	3.2
75446	7	Sololá	702	San José Chacayá	5	Chacayá	1	Enero	2023-01-28T00:00:00	2024-11-06T23:00:00	7	Dirección del viento	3.22
75447	7	Sololá	702	San José Chacayá	5	Chacayá	1	Enero	2023-01-28T00:00:00	2024-11-06T23:00:00	1	Precipitación	0
75448	7	Sololá	702	San José Chacayá	5	Chacayá	1	Enero	2023-01-28T00:00:00	2024-11-06T23:00:00	8	Radiación solar	0
75449	7	Sololá	702	San José Chacayá	5	Chacayá	1	Enero	2023-01-29T00:00:00	2024-11-06T00:00:00	2	Temperatura media	5.7
75450	7	Sololá	702	San José Chacayá	5	Chacayá	1	Enero	2023-01-29T00:00:00	2024-11-06T00:00:00	4	Temperatura máxima	5.9
75451	7	Sololá	702	San José Chacayá	5	Chacayá	1	Enero	2023-01-29T00:00:00	2024-11-06T00:00:00	3	Temperatura mínima	5.4
75452	7	Sololá	702	San José Chacayá	5	Chacayá	1	Enero	2023-01-29T00:00:00	2024-11-06T00:00:00	5	Humedad	51
75453	7	Sololá	702	San José Chacayá	5	Chacayá	1	Enero	2023-01-29T00:00:00	2024-11-06T00:00:00	6	Velocidad del viento	3.2
75454	7	Sololá	702	San José Chacayá	5	Chacayá	1	Enero	2023-01-29T00:00:00	2024-11-06T00:00:00	7	Dirección del viento	3.22
75455	7	Sololá	702	San José Chacayá	5	Chacayá	1	Enero	2023-01-29T00:00:00	2024-11-06T00:00:00	1	Precipitación	0
75456	7	Sololá	702	San José Chacayá	5	Chacayá	1	Enero	2023-01-29T00:00:00	2024-11-06T00:00:00	8	Radiación solar	0
75457	7	Sololá	702	San José Chacayá	5	Chacayá	1	Enero	2023-01-29T00:00:00	2024-11-06T01:00:00	2	Temperatura media	4.6
75458	7	Sololá	702	San José Chacayá	5	Chacayá	1	Enero	2023-01-29T00:00:00	2024-11-06T01:00:00	4	Temperatura máxima	5.7
75459	7	Sololá	702	San José Chacayá	5	Chacayá	1	Enero	2023-01-29T00:00:00	2024-11-06T01:00:00	3	Temperatura mínima	4.6
75460	7	Sololá	702	San José Chacayá	5	Chacayá	1	Enero	2023-01-29T00:00:00	2024-11-06T01:00:00	5	Humedad	55
75461	7	Sololá	702	San José Chacayá	5	Chacayá	1	Enero	2023-01-29T00:00:00	2024-11-06T01:00:00	6	Velocidad del viento	1.6
75462	7	Sololá	702	San José Chacayá	5	Chacayá	1	Enero	2023-01-29T00:00:00	2024-11-06T01:00:00	7	Dirección del viento	1.61
75463	7	Sololá	702	San José Chacayá	5	Chacayá	1	Enero	2023-01-29T00:00:00	2024-11-06T01:00:00	1	Precipitación	0
75464	7	Sololá	702	San José Chacayá	5	Chacayá	1	Enero	2023-01-29T00:00:00	2024-11-06T01:00:00	8	Radiación solar	0
75465	7	Sololá	702	San José Chacayá	5	Chacayá	1	Enero	2023-01-29T00:00:00	2024-11-06T02:00:00	2	Temperatura media	3.8
75466	7	Sololá	702	San José Chacayá	5	Chacayá	1	Enero	2023-01-29T00:00:00	2024-11-06T02:00:00	4	Temperatura máxima	4.6
75467	7	Sololá	702	San José Chacayá	5	Chacayá	1	Enero	2023-01-29T00:00:00	2024-11-06T02:00:00	3	Temperatura mínima	3.8
75468	7	Sololá	702	San José Chacayá	5	Chacayá	1	Enero	2023-01-29T00:00:00	2024-11-06T02:00:00	5	Humedad	59
75469	7	Sololá	702	San José Chacayá	5	Chacayá	1	Enero	2023-01-29T00:00:00	2024-11-06T02:00:00	6	Velocidad del viento	1.6
75470	7	Sololá	702	San José Chacayá	5	Chacayá	1	Enero	2023-01-29T00:00:00	2024-11-06T02:00:00	7	Dirección del viento	1.61
75471	7	Sololá	702	San José Chacayá	5	Chacayá	1	Enero	2023-01-29T00:00:00	2024-11-06T02:00:00	1	Precipitación	0
75472	7	Sololá	702	San José Chacayá	5	Chacayá	1	Enero	2023-01-29T00:00:00	2024-11-06T02:00:00	8	Radiación solar	0
75473	7	Sololá	702	San José Chacayá	5	Chacayá	1	Enero	2023-01-29T00:00:00	2024-11-06T03:00:00	2	Temperatura media	3.4
75474	7	Sololá	702	San José Chacayá	5	Chacayá	1	Enero	2023-01-29T00:00:00	2024-11-06T03:00:00	4	Temperatura máxima	3.9
75475	7	Sololá	702	San José Chacayá	5	Chacayá	1	Enero	2023-01-29T00:00:00	2024-11-06T03:00:00	3	Temperatura mínima	3.4
75476	7	Sololá	702	San José Chacayá	5	Chacayá	1	Enero	2023-01-29T00:00:00	2024-11-06T03:00:00	5	Humedad	62
75477	7	Sololá	702	San José Chacayá	5	Chacayá	1	Enero	2023-01-29T00:00:00	2024-11-06T03:00:00	6	Velocidad del viento	3.2
75478	7	Sololá	702	San José Chacayá	5	Chacayá	1	Enero	2023-01-29T00:00:00	2024-11-06T03:00:00	7	Dirección del viento	3.22
75479	7	Sololá	702	San José Chacayá	5	Chacayá	1	Enero	2023-01-29T00:00:00	2024-11-06T03:00:00	1	Precipitación	0
75480	7	Sololá	702	San José Chacayá	5	Chacayá	1	Enero	2023-01-29T00:00:00	2024-11-06T03:00:00	8	Radiación solar	0
75481	7	Sololá	702	San José Chacayá	5	Chacayá	1	Enero	2023-01-29T00:00:00	2024-11-06T04:00:00	2	Temperatura media	3.1
75482	7	Sololá	702	San José Chacayá	5	Chacayá	1	Enero	2023-01-29T00:00:00	2024-11-06T04:00:00	4	Temperatura máxima	3.4
75483	7	Sololá	702	San José Chacayá	5	Chacayá	1	Enero	2023-01-29T00:00:00	2024-11-06T04:00:00	3	Temperatura mínima	3.1
75484	7	Sololá	702	San José Chacayá	5	Chacayá	1	Enero	2023-01-29T00:00:00	2024-11-06T04:00:00	5	Humedad	66
75485	7	Sololá	702	San José Chacayá	5	Chacayá	1	Enero	2023-01-29T00:00:00	2024-11-06T04:00:00	6	Velocidad del viento	1.6
75486	7	Sololá	702	San José Chacayá	5	Chacayá	1	Enero	2023-01-29T00:00:00	2024-11-06T04:00:00	7	Dirección del viento	1.61
75487	7	Sololá	702	San José Chacayá	5	Chacayá	1	Enero	2023-01-29T00:00:00	2024-11-06T04:00:00	1	Precipitación	0
75488	7	Sololá	702	San José Chacayá	5	Chacayá	1	Enero	2023-01-29T00:00:00	2024-11-06T04:00:00	8	Radiación solar	0
75489	7	Sololá	702	San José Chacayá	5	Chacayá	1	Enero	2023-01-29T00:00:00	2024-11-06T05:00:00	2	Temperatura media	2.6
75490	7	Sololá	702	San José Chacayá	5	Chacayá	1	Enero	2023-01-29T00:00:00	2024-11-06T05:00:00	4	Temperatura máxima	3.1
75491	7	Sololá	702	San José Chacayá	5	Chacayá	1	Enero	2023-01-29T00:00:00	2024-11-06T05:00:00	3	Temperatura mínima	2.6
75492	7	Sololá	702	San José Chacayá	5	Chacayá	1	Enero	2023-01-29T00:00:00	2024-11-06T05:00:00	5	Humedad	66
75493	7	Sololá	702	San José Chacayá	5	Chacayá	1	Enero	2023-01-29T00:00:00	2024-11-06T05:00:00	6	Velocidad del viento	1.6
75494	7	Sololá	702	San José Chacayá	5	Chacayá	1	Enero	2023-01-29T00:00:00	2024-11-06T05:00:00	7	Dirección del viento	1.61
75495	7	Sololá	702	San José Chacayá	5	Chacayá	1	Enero	2023-01-29T00:00:00	2024-11-06T05:00:00	1	Precipitación	0
75496	7	Sololá	702	San José Chacayá	5	Chacayá	1	Enero	2023-01-29T00:00:00	2024-11-06T05:00:00	8	Radiación solar	0
75497	7	Sololá	702	San José Chacayá	5	Chacayá	1	Enero	2023-01-29T00:00:00	2024-11-06T06:00:00	2	Temperatura media	3.8
75498	7	Sololá	702	San José Chacayá	5	Chacayá	1	Enero	2023-01-29T00:00:00	2024-11-06T06:00:00	4	Temperatura máxima	3.9
75499	7	Sololá	702	San José Chacayá	5	Chacayá	1	Enero	2023-01-29T00:00:00	2024-11-06T06:00:00	3	Temperatura mínima	2.5
75500	7	Sololá	702	San José Chacayá	5	Chacayá	1	Enero	2023-01-29T00:00:00	2024-11-06T06:00:00	5	Humedad	60
75501	7	Sololá	702	San José Chacayá	5	Chacayá	1	Enero	2023-01-29T00:00:00	2024-11-06T06:00:00	6	Velocidad del viento	3.2
75502	7	Sololá	702	San José Chacayá	5	Chacayá	1	Enero	2023-01-29T00:00:00	2024-11-06T06:00:00	7	Dirección del viento	3.22
75503	7	Sololá	702	San José Chacayá	5	Chacayá	1	Enero	2023-01-29T00:00:00	2024-11-06T06:00:00	1	Precipitación	0
75504	7	Sololá	702	San José Chacayá	5	Chacayá	1	Enero	2023-01-29T00:00:00	2024-11-06T06:00:00	8	Radiación solar	0
75505	7	Sololá	702	San José Chacayá	5	Chacayá	1	Enero	2023-01-29T00:00:00	2024-11-06T07:00:00	2	Temperatura media	10.8
75506	7	Sololá	702	San José Chacayá	5	Chacayá	1	Enero	2023-01-29T00:00:00	2024-11-06T07:00:00	4	Temperatura máxima	10.8
75507	7	Sololá	702	San José Chacayá	5	Chacayá	1	Enero	2023-01-29T00:00:00	2024-11-06T07:00:00	3	Temperatura mínima	3.9
75508	7	Sololá	702	San José Chacayá	5	Chacayá	1	Enero	2023-01-29T00:00:00	2024-11-06T07:00:00	5	Humedad	39
75509	7	Sololá	702	San José Chacayá	5	Chacayá	1	Enero	2023-01-29T00:00:00	2024-11-06T07:00:00	6	Velocidad del viento	1.6
75510	7	Sololá	702	San José Chacayá	5	Chacayá	1	Enero	2023-01-29T00:00:00	2024-11-06T07:00:00	7	Dirección del viento	1.61
75511	7	Sololá	702	San José Chacayá	5	Chacayá	1	Enero	2023-01-29T00:00:00	2024-11-06T07:00:00	1	Precipitación	0
75512	7	Sololá	702	San José Chacayá	5	Chacayá	1	Enero	2023-01-29T00:00:00	2024-11-06T07:00:00	8	Radiación solar	3
75513	7	Sololá	702	San José Chacayá	5	Chacayá	1	Enero	2023-01-29T00:00:00	2024-11-06T08:00:00	2	Temperatura media	16.9
75514	7	Sololá	702	San José Chacayá	5	Chacayá	1	Enero	2023-01-29T00:00:00	2024-11-06T08:00:00	4	Temperatura máxima	16.9
75515	7	Sololá	702	San José Chacayá	5	Chacayá	1	Enero	2023-01-29T00:00:00	2024-11-06T08:00:00	3	Temperatura mínima	10.8
75516	7	Sololá	702	San José Chacayá	5	Chacayá	1	Enero	2023-01-29T00:00:00	2024-11-06T08:00:00	5	Humedad	29
75517	7	Sololá	702	San José Chacayá	5	Chacayá	1	Enero	2023-01-29T00:00:00	2024-11-06T08:00:00	6	Velocidad del viento	4.8
75518	7	Sololá	702	San José Chacayá	5	Chacayá	1	Enero	2023-01-29T00:00:00	2024-11-06T08:00:00	7	Dirección del viento	4.83
75519	7	Sololá	702	San José Chacayá	5	Chacayá	1	Enero	2023-01-29T00:00:00	2024-11-06T08:00:00	1	Precipitación	0
75520	7	Sololá	702	San José Chacayá	5	Chacayá	1	Enero	2023-01-29T00:00:00	2024-11-06T08:00:00	8	Radiación solar	70
75521	7	Sololá	702	San José Chacayá	5	Chacayá	1	Enero	2023-01-29T00:00:00	2024-11-06T09:00:00	2	Temperatura media	17.8
75522	7	Sololá	702	San José Chacayá	5	Chacayá	1	Enero	2023-01-29T00:00:00	2024-11-06T09:00:00	4	Temperatura máxima	17.9
75523	7	Sololá	702	San José Chacayá	5	Chacayá	1	Enero	2023-01-29T00:00:00	2024-11-06T09:00:00	3	Temperatura mínima	16.8
75524	7	Sololá	702	San José Chacayá	5	Chacayá	1	Enero	2023-01-29T00:00:00	2024-11-06T09:00:00	5	Humedad	31
75525	7	Sololá	702	San José Chacayá	5	Chacayá	1	Enero	2023-01-29T00:00:00	2024-11-06T09:00:00	6	Velocidad del viento	6.4
75526	7	Sololá	702	San José Chacayá	5	Chacayá	1	Enero	2023-01-29T00:00:00	2024-11-06T09:00:00	7	Dirección del viento	6.44
75527	7	Sololá	702	San José Chacayá	5	Chacayá	1	Enero	2023-01-29T00:00:00	2024-11-06T09:00:00	1	Precipitación	0
75528	7	Sololá	702	San José Chacayá	5	Chacayá	1	Enero	2023-01-29T00:00:00	2024-11-06T09:00:00	8	Radiación solar	382
75529	7	Sololá	702	San José Chacayá	5	Chacayá	1	Enero	2023-01-29T00:00:00	2024-11-06T10:00:00	2	Temperatura media	21.3
75530	7	Sololá	702	San José Chacayá	5	Chacayá	1	Enero	2023-01-29T00:00:00	2024-11-06T10:00:00	4	Temperatura máxima	21.5
75531	7	Sololá	702	San José Chacayá	5	Chacayá	1	Enero	2023-01-29T00:00:00	2024-11-06T10:00:00	3	Temperatura mínima	17.8
75532	7	Sololá	702	San José Chacayá	5	Chacayá	1	Enero	2023-01-29T00:00:00	2024-11-06T10:00:00	5	Humedad	28
75533	7	Sololá	702	San José Chacayá	5	Chacayá	1	Enero	2023-01-29T00:00:00	2024-11-06T10:00:00	6	Velocidad del viento	6.4
75534	7	Sololá	702	San José Chacayá	5	Chacayá	1	Enero	2023-01-29T00:00:00	2024-11-06T10:00:00	7	Dirección del viento	6.44
75535	7	Sololá	702	San José Chacayá	5	Chacayá	1	Enero	2023-01-29T00:00:00	2024-11-06T10:00:00	1	Precipitación	0
75536	7	Sololá	702	San José Chacayá	5	Chacayá	1	Enero	2023-01-29T00:00:00	2024-11-06T10:00:00	8	Radiación solar	279
75537	7	Sololá	702	San José Chacayá	5	Chacayá	1	Enero	2023-01-29T00:00:00	2024-11-06T11:00:00	2	Temperatura media	22.1
75538	7	Sololá	702	San José Chacayá	5	Chacayá	1	Enero	2023-01-29T00:00:00	2024-11-06T11:00:00	4	Temperatura máxima	22.2
75539	7	Sololá	702	San José Chacayá	5	Chacayá	1	Enero	2023-01-29T00:00:00	2024-11-06T11:00:00	3	Temperatura mínima	21.1
75540	7	Sololá	702	San José Chacayá	5	Chacayá	1	Enero	2023-01-29T00:00:00	2024-11-06T11:00:00	5	Humedad	29
75541	7	Sololá	702	San José Chacayá	5	Chacayá	1	Enero	2023-01-29T00:00:00	2024-11-06T11:00:00	6	Velocidad del viento	4.8
75542	7	Sololá	702	San José Chacayá	5	Chacayá	1	Enero	2023-01-29T00:00:00	2024-11-06T11:00:00	7	Dirección del viento	4.83
75543	7	Sololá	702	San José Chacayá	5	Chacayá	1	Enero	2023-01-29T00:00:00	2024-11-06T11:00:00	1	Precipitación	0
75544	7	Sololá	702	San José Chacayá	5	Chacayá	1	Enero	2023-01-29T00:00:00	2024-11-06T11:00:00	8	Radiación solar	196
75545	7	Sololá	702	San José Chacayá	5	Chacayá	1	Enero	2023-01-29T00:00:00	2024-11-06T12:00:00	2	Temperatura media	22.7
75546	7	Sololá	702	San José Chacayá	5	Chacayá	1	Enero	2023-01-29T00:00:00	2024-11-06T12:00:00	4	Temperatura máxima	23
75547	7	Sololá	702	San José Chacayá	5	Chacayá	1	Enero	2023-01-29T00:00:00	2024-11-06T12:00:00	3	Temperatura mínima	21.9
75548	7	Sololá	702	San José Chacayá	5	Chacayá	1	Enero	2023-01-29T00:00:00	2024-11-06T12:00:00	5	Humedad	29
75549	7	Sololá	702	San José Chacayá	5	Chacayá	1	Enero	2023-01-29T00:00:00	2024-11-06T12:00:00	6	Velocidad del viento	4.8
75550	7	Sololá	702	San José Chacayá	5	Chacayá	1	Enero	2023-01-29T00:00:00	2024-11-06T12:00:00	7	Dirección del viento	4.83
75551	7	Sololá	702	San José Chacayá	5	Chacayá	1	Enero	2023-01-29T00:00:00	2024-11-06T12:00:00	1	Precipitación	0
75552	7	Sololá	702	San José Chacayá	5	Chacayá	1	Enero	2023-01-29T00:00:00	2024-11-06T12:00:00	8	Radiación solar	338
75553	7	Sololá	702	San José Chacayá	5	Chacayá	1	Enero	2023-01-29T00:00:00	2024-11-06T13:00:00	2	Temperatura media	22.2
75554	7	Sololá	702	San José Chacayá	5	Chacayá	1	Enero	2023-01-29T00:00:00	2024-11-06T13:00:00	4	Temperatura máxima	23.2
75555	7	Sololá	702	San José Chacayá	5	Chacayá	1	Enero	2023-01-29T00:00:00	2024-11-06T13:00:00	3	Temperatura mínima	22.2
75556	7	Sololá	702	San José Chacayá	5	Chacayá	1	Enero	2023-01-29T00:00:00	2024-11-06T13:00:00	5	Humedad	35
75557	7	Sololá	702	San José Chacayá	5	Chacayá	1	Enero	2023-01-29T00:00:00	2024-11-06T13:00:00	6	Velocidad del viento	6.4
75558	7	Sololá	702	San José Chacayá	5	Chacayá	1	Enero	2023-01-29T00:00:00	2024-11-06T13:00:00	7	Dirección del viento	6.44
75559	7	Sololá	702	San José Chacayá	5	Chacayá	1	Enero	2023-01-29T00:00:00	2024-11-06T13:00:00	1	Precipitación	0
75560	7	Sololá	702	San José Chacayá	5	Chacayá	1	Enero	2023-01-29T00:00:00	2024-11-06T13:00:00	8	Radiación solar	610
75561	7	Sololá	702	San José Chacayá	5	Chacayá	1	Enero	2023-01-29T00:00:00	2024-11-06T14:00:00	2	Temperatura media	21.3
75562	7	Sololá	702	San José Chacayá	5	Chacayá	1	Enero	2023-01-29T00:00:00	2024-11-06T14:00:00	4	Temperatura máxima	22.2
75563	7	Sololá	702	San José Chacayá	5	Chacayá	1	Enero	2023-01-29T00:00:00	2024-11-06T14:00:00	3	Temperatura mínima	20.7
75564	7	Sololá	702	San José Chacayá	5	Chacayá	1	Enero	2023-01-29T00:00:00	2024-11-06T14:00:00	5	Humedad	50
75565	7	Sololá	702	San José Chacayá	5	Chacayá	1	Enero	2023-01-29T00:00:00	2024-11-06T14:00:00	6	Velocidad del viento	8
75566	7	Sololá	702	San José Chacayá	5	Chacayá	1	Enero	2023-01-29T00:00:00	2024-11-06T14:00:00	7	Dirección del viento	8.05
75567	7	Sololá	702	San José Chacayá	5	Chacayá	1	Enero	2023-01-29T00:00:00	2024-11-06T14:00:00	1	Precipitación	0
75568	7	Sololá	702	San José Chacayá	5	Chacayá	1	Enero	2023-01-29T00:00:00	2024-11-06T14:00:00	8	Radiación solar	458
75569	7	Sololá	702	San José Chacayá	5	Chacayá	1	Enero	2023-01-29T00:00:00	2024-11-06T15:00:00	2	Temperatura media	19.1
75570	7	Sololá	702	San José Chacayá	5	Chacayá	1	Enero	2023-01-29T00:00:00	2024-11-06T15:00:00	4	Temperatura máxima	21.4
75571	7	Sololá	702	San José Chacayá	5	Chacayá	1	Enero	2023-01-29T00:00:00	2024-11-06T15:00:00	3	Temperatura mínima	19.1
75572	7	Sololá	702	San José Chacayá	5	Chacayá	1	Enero	2023-01-29T00:00:00	2024-11-06T15:00:00	5	Humedad	59
75573	7	Sololá	702	San José Chacayá	5	Chacayá	1	Enero	2023-01-29T00:00:00	2024-11-06T15:00:00	6	Velocidad del viento	4.8
75574	7	Sololá	702	San José Chacayá	5	Chacayá	1	Enero	2023-01-29T00:00:00	2024-11-06T15:00:00	7	Dirección del viento	4.83
75575	7	Sololá	702	San José Chacayá	5	Chacayá	1	Enero	2023-01-29T00:00:00	2024-11-06T15:00:00	1	Precipitación	0
75576	7	Sololá	702	San José Chacayá	5	Chacayá	1	Enero	2023-01-29T00:00:00	2024-11-06T15:00:00	8	Radiación solar	347
75577	7	Sololá	702	San José Chacayá	5	Chacayá	1	Enero	2023-01-29T00:00:00	2024-11-06T16:00:00	2	Temperatura media	17.8
75578	7	Sololá	702	San José Chacayá	5	Chacayá	1	Enero	2023-01-29T00:00:00	2024-11-06T16:00:00	4	Temperatura máxima	19.3
75579	7	Sololá	702	San José Chacayá	5	Chacayá	1	Enero	2023-01-29T00:00:00	2024-11-06T16:00:00	3	Temperatura mínima	17.8
75580	7	Sololá	702	San José Chacayá	5	Chacayá	1	Enero	2023-01-29T00:00:00	2024-11-06T16:00:00	5	Humedad	64
75581	7	Sololá	702	San José Chacayá	5	Chacayá	1	Enero	2023-01-29T00:00:00	2024-11-06T16:00:00	6	Velocidad del viento	3.2
75582	7	Sololá	702	San José Chacayá	5	Chacayá	1	Enero	2023-01-29T00:00:00	2024-11-06T16:00:00	7	Dirección del viento	3.22
75583	7	Sololá	702	San José Chacayá	5	Chacayá	1	Enero	2023-01-29T00:00:00	2024-11-06T16:00:00	1	Precipitación	0
75584	7	Sololá	702	San José Chacayá	5	Chacayá	1	Enero	2023-01-29T00:00:00	2024-11-06T16:00:00	8	Radiación solar	126
75585	7	Sololá	702	San José Chacayá	5	Chacayá	1	Enero	2023-01-29T00:00:00	2024-11-06T17:00:00	2	Temperatura media	14.2
75586	7	Sololá	702	San José Chacayá	5	Chacayá	1	Enero	2023-01-29T00:00:00	2024-11-06T17:00:00	4	Temperatura máxima	17.7
75587	7	Sololá	702	San José Chacayá	5	Chacayá	1	Enero	2023-01-29T00:00:00	2024-11-06T17:00:00	3	Temperatura mínima	14.2
75588	7	Sololá	702	San José Chacayá	5	Chacayá	1	Enero	2023-01-29T00:00:00	2024-11-06T17:00:00	5	Humedad	75
75589	7	Sololá	702	San José Chacayá	5	Chacayá	1	Enero	2023-01-29T00:00:00	2024-11-06T17:00:00	6	Velocidad del viento	1.6
75590	7	Sololá	702	San José Chacayá	5	Chacayá	1	Enero	2023-01-29T00:00:00	2024-11-06T17:00:00	7	Dirección del viento	1.61
75591	7	Sololá	702	San José Chacayá	5	Chacayá	1	Enero	2023-01-29T00:00:00	2024-11-06T17:00:00	1	Precipitación	0
75592	7	Sololá	702	San José Chacayá	5	Chacayá	1	Enero	2023-01-29T00:00:00	2024-11-06T17:00:00	8	Radiación solar	77
75593	7	Sololá	702	San José Chacayá	5	Chacayá	1	Enero	2023-01-29T00:00:00	2024-11-06T18:00:00	2	Temperatura media	13.7
75594	7	Sololá	702	San José Chacayá	5	Chacayá	1	Enero	2023-01-29T00:00:00	2024-11-06T18:00:00	4	Temperatura máxima	14.2
75595	7	Sololá	702	San José Chacayá	5	Chacayá	1	Enero	2023-01-29T00:00:00	2024-11-06T18:00:00	3	Temperatura mínima	13.5
75596	7	Sololá	702	San José Chacayá	5	Chacayá	1	Enero	2023-01-29T00:00:00	2024-11-06T18:00:00	5	Humedad	69
75597	7	Sololá	702	San José Chacayá	5	Chacayá	1	Enero	2023-01-29T00:00:00	2024-11-06T18:00:00	6	Velocidad del viento	1.6
75598	7	Sololá	702	San José Chacayá	5	Chacayá	1	Enero	2023-01-29T00:00:00	2024-11-06T18:00:00	7	Dirección del viento	1.61
75599	7	Sololá	702	San José Chacayá	5	Chacayá	1	Enero	2023-01-29T00:00:00	2024-11-06T18:00:00	1	Precipitación	0
75600	7	Sololá	702	San José Chacayá	5	Chacayá	1	Enero	2023-01-29T00:00:00	2024-11-06T18:00:00	8	Radiación solar	10
75601	7	Sololá	702	San José Chacayá	5	Chacayá	1	Enero	2023-01-29T00:00:00	2024-11-06T19:00:00	2	Temperatura media	9.9
75602	7	Sololá	702	San José Chacayá	5	Chacayá	1	Enero	2023-01-29T00:00:00	2024-11-06T19:00:00	4	Temperatura máxima	13.7
75603	7	Sololá	702	San José Chacayá	5	Chacayá	1	Enero	2023-01-29T00:00:00	2024-11-06T19:00:00	3	Temperatura mínima	9.9
75604	7	Sololá	702	San José Chacayá	5	Chacayá	1	Enero	2023-01-29T00:00:00	2024-11-06T19:00:00	5	Humedad	79
75605	7	Sololá	702	San José Chacayá	5	Chacayá	1	Enero	2023-01-29T00:00:00	2024-11-06T19:00:00	6	Velocidad del viento	1.6
75606	7	Sololá	702	San José Chacayá	5	Chacayá	1	Enero	2023-01-29T00:00:00	2024-11-06T19:00:00	7	Dirección del viento	1.61
75607	7	Sololá	702	San José Chacayá	5	Chacayá	1	Enero	2023-01-29T00:00:00	2024-11-06T19:00:00	1	Precipitación	0
75608	7	Sololá	702	San José Chacayá	5	Chacayá	1	Enero	2023-01-29T00:00:00	2024-11-06T19:00:00	8	Radiación solar	0
75609	7	Sololá	702	San José Chacayá	5	Chacayá	1	Enero	2023-01-29T00:00:00	2024-11-06T20:00:00	2	Temperatura media	8.1
75610	7	Sololá	702	San José Chacayá	5	Chacayá	1	Enero	2023-01-29T00:00:00	2024-11-06T20:00:00	4	Temperatura máxima	9.9
75611	7	Sololá	702	San José Chacayá	5	Chacayá	1	Enero	2023-01-29T00:00:00	2024-11-06T20:00:00	3	Temperatura mínima	8.1
75612	7	Sololá	702	San José Chacayá	5	Chacayá	1	Enero	2023-01-29T00:00:00	2024-11-06T20:00:00	5	Humedad	83
75613	7	Sololá	702	San José Chacayá	5	Chacayá	1	Enero	2023-01-29T00:00:00	2024-11-06T20:00:00	6	Velocidad del viento	1.6
75614	7	Sololá	702	San José Chacayá	5	Chacayá	1	Enero	2023-01-29T00:00:00	2024-11-06T20:00:00	7	Dirección del viento	1.61
75615	7	Sololá	702	San José Chacayá	5	Chacayá	1	Enero	2023-01-29T00:00:00	2024-11-06T20:00:00	1	Precipitación	0
75616	7	Sololá	702	San José Chacayá	5	Chacayá	1	Enero	2023-01-29T00:00:00	2024-11-06T20:00:00	8	Radiación solar	0
75617	7	Sololá	702	San José Chacayá	5	Chacayá	1	Enero	2023-01-29T00:00:00	2024-11-06T21:00:00	2	Temperatura media	6.8
75618	7	Sololá	702	San José Chacayá	5	Chacayá	1	Enero	2023-01-29T00:00:00	2024-11-06T21:00:00	4	Temperatura máxima	8.1
75619	7	Sololá	702	San José Chacayá	5	Chacayá	1	Enero	2023-01-29T00:00:00	2024-11-06T21:00:00	3	Temperatura mínima	6.8
75620	7	Sololá	702	San José Chacayá	5	Chacayá	1	Enero	2023-01-29T00:00:00	2024-11-06T21:00:00	5	Humedad	84
75621	7	Sololá	702	San José Chacayá	5	Chacayá	1	Enero	2023-01-29T00:00:00	2024-11-06T21:00:00	6	Velocidad del viento	1.6
75622	7	Sololá	702	San José Chacayá	5	Chacayá	1	Enero	2023-01-29T00:00:00	2024-11-06T21:00:00	7	Dirección del viento	1.61
75623	7	Sololá	702	San José Chacayá	5	Chacayá	1	Enero	2023-01-29T00:00:00	2024-11-06T21:00:00	1	Precipitación	0
75624	7	Sololá	702	San José Chacayá	5	Chacayá	1	Enero	2023-01-29T00:00:00	2024-11-06T21:00:00	8	Radiación solar	0
75625	7	Sololá	702	San José Chacayá	5	Chacayá	1	Enero	2023-01-29T00:00:00	2024-11-06T22:00:00	2	Temperatura media	6.5
75626	7	Sololá	702	San José Chacayá	5	Chacayá	1	Enero	2023-01-29T00:00:00	2024-11-06T22:00:00	4	Temperatura máxima	6.8
75627	7	Sololá	702	San José Chacayá	5	Chacayá	1	Enero	2023-01-29T00:00:00	2024-11-06T22:00:00	3	Temperatura mínima	6.1
75628	7	Sololá	702	San José Chacayá	5	Chacayá	1	Enero	2023-01-29T00:00:00	2024-11-06T22:00:00	5	Humedad	80
75629	7	Sololá	702	San José Chacayá	5	Chacayá	1	Enero	2023-01-29T00:00:00	2024-11-06T22:00:00	6	Velocidad del viento	1.6
75630	7	Sololá	702	San José Chacayá	5	Chacayá	1	Enero	2023-01-29T00:00:00	2024-11-06T22:00:00	7	Dirección del viento	1.61
75631	7	Sololá	702	San José Chacayá	5	Chacayá	1	Enero	2023-01-29T00:00:00	2024-11-06T22:00:00	1	Precipitación	0
75632	7	Sololá	702	San José Chacayá	5	Chacayá	1	Enero	2023-01-29T00:00:00	2024-11-06T22:00:00	8	Radiación solar	0
75633	7	Sololá	702	San José Chacayá	5	Chacayá	1	Enero	2023-01-29T00:00:00	2024-11-06T23:00:00	2	Temperatura media	5.9
75634	7	Sololá	702	San José Chacayá	5	Chacayá	1	Enero	2023-01-29T00:00:00	2024-11-06T23:00:00	4	Temperatura máxima	6.5
75635	7	Sololá	702	San José Chacayá	5	Chacayá	1	Enero	2023-01-29T00:00:00	2024-11-06T23:00:00	3	Temperatura mínima	5.9
75636	7	Sololá	702	San José Chacayá	5	Chacayá	1	Enero	2023-01-29T00:00:00	2024-11-06T23:00:00	5	Humedad	80
75637	7	Sololá	702	San José Chacayá	5	Chacayá	1	Enero	2023-01-29T00:00:00	2024-11-06T23:00:00	6	Velocidad del viento	1.6
75638	7	Sololá	702	San José Chacayá	5	Chacayá	1	Enero	2023-01-29T00:00:00	2024-11-06T23:00:00	7	Dirección del viento	1.61
75639	7	Sololá	702	San José Chacayá	5	Chacayá	1	Enero	2023-01-29T00:00:00	2024-11-06T23:00:00	1	Precipitación	0
75640	7	Sololá	702	San José Chacayá	5	Chacayá	1	Enero	2023-01-29T00:00:00	2024-11-06T23:00:00	8	Radiación solar	0
75641	7	Sololá	702	San José Chacayá	5	Chacayá	1	Enero	2023-01-30T00:00:00	2024-11-06T00:00:00	2	Temperatura media	6.1
75642	7	Sololá	702	San José Chacayá	5	Chacayá	1	Enero	2023-01-30T00:00:00	2024-11-06T00:00:00	4	Temperatura máxima	6.2
75643	7	Sololá	702	San José Chacayá	5	Chacayá	1	Enero	2023-01-30T00:00:00	2024-11-06T00:00:00	3	Temperatura mínima	5.8
75644	7	Sololá	702	San José Chacayá	5	Chacayá	1	Enero	2023-01-30T00:00:00	2024-11-06T00:00:00	5	Humedad	79
75645	7	Sololá	702	San José Chacayá	5	Chacayá	1	Enero	2023-01-30T00:00:00	2024-11-06T00:00:00	6	Velocidad del viento	3.2
75646	7	Sololá	702	San José Chacayá	5	Chacayá	1	Enero	2023-01-30T00:00:00	2024-11-06T00:00:00	7	Dirección del viento	3.22
75647	7	Sololá	702	San José Chacayá	5	Chacayá	1	Enero	2023-01-30T00:00:00	2024-11-06T00:00:00	1	Precipitación	0
75648	7	Sololá	702	San José Chacayá	5	Chacayá	1	Enero	2023-01-30T00:00:00	2024-11-06T00:00:00	8	Radiación solar	0
75649	7	Sololá	702	San José Chacayá	5	Chacayá	1	Enero	2023-01-30T00:00:00	2024-11-06T01:00:00	2	Temperatura media	5.7
75650	7	Sololá	702	San José Chacayá	5	Chacayá	1	Enero	2023-01-30T00:00:00	2024-11-06T01:00:00	4	Temperatura máxima	6.1
75651	7	Sololá	702	San José Chacayá	5	Chacayá	1	Enero	2023-01-30T00:00:00	2024-11-06T01:00:00	3	Temperatura mínima	5.7
75652	7	Sololá	702	San José Chacayá	5	Chacayá	1	Enero	2023-01-30T00:00:00	2024-11-06T01:00:00	5	Humedad	81
75653	7	Sololá	702	San José Chacayá	5	Chacayá	1	Enero	2023-01-30T00:00:00	2024-11-06T01:00:00	6	Velocidad del viento	3.2
75654	7	Sololá	702	San José Chacayá	5	Chacayá	1	Enero	2023-01-30T00:00:00	2024-11-06T01:00:00	7	Dirección del viento	3.22
75655	7	Sololá	702	San José Chacayá	5	Chacayá	1	Enero	2023-01-30T00:00:00	2024-11-06T01:00:00	1	Precipitación	0
75656	7	Sololá	702	San José Chacayá	5	Chacayá	1	Enero	2023-01-30T00:00:00	2024-11-06T01:00:00	8	Radiación solar	0
75657	7	Sololá	702	San José Chacayá	5	Chacayá	1	Enero	2023-01-30T00:00:00	2024-11-06T02:00:00	2	Temperatura media	5.5
75658	7	Sololá	702	San José Chacayá	5	Chacayá	1	Enero	2023-01-30T00:00:00	2024-11-06T02:00:00	4	Temperatura máxima	6.1
75659	7	Sololá	702	San José Chacayá	5	Chacayá	1	Enero	2023-01-30T00:00:00	2024-11-06T02:00:00	3	Temperatura mínima	5.4
75660	7	Sololá	702	San José Chacayá	5	Chacayá	1	Enero	2023-01-30T00:00:00	2024-11-06T02:00:00	5	Humedad	81
75661	7	Sololá	702	San José Chacayá	5	Chacayá	1	Enero	2023-01-30T00:00:00	2024-11-06T02:00:00	6	Velocidad del viento	1.6
75662	7	Sololá	702	San José Chacayá	5	Chacayá	1	Enero	2023-01-30T00:00:00	2024-11-06T02:00:00	7	Dirección del viento	1.61
75663	7	Sololá	702	San José Chacayá	5	Chacayá	1	Enero	2023-01-30T00:00:00	2024-11-06T02:00:00	1	Precipitación	0
75664	7	Sololá	702	San José Chacayá	5	Chacayá	1	Enero	2023-01-30T00:00:00	2024-11-06T02:00:00	8	Radiación solar	0
75665	7	Sololá	702	San José Chacayá	5	Chacayá	1	Enero	2023-01-30T00:00:00	2024-11-06T03:00:00	2	Temperatura media	5.3
75666	7	Sololá	702	San José Chacayá	5	Chacayá	1	Enero	2023-01-30T00:00:00	2024-11-06T03:00:00	4	Temperatura máxima	5.5
75667	7	Sololá	702	San José Chacayá	5	Chacayá	1	Enero	2023-01-30T00:00:00	2024-11-06T03:00:00	3	Temperatura mínima	5.1
75668	7	Sololá	702	San José Chacayá	5	Chacayá	1	Enero	2023-01-30T00:00:00	2024-11-06T03:00:00	5	Humedad	82
75669	7	Sololá	702	San José Chacayá	5	Chacayá	1	Enero	2023-01-30T00:00:00	2024-11-06T03:00:00	6	Velocidad del viento	3.2
75670	7	Sololá	702	San José Chacayá	5	Chacayá	1	Enero	2023-01-30T00:00:00	2024-11-06T03:00:00	7	Dirección del viento	3.22
75671	7	Sololá	702	San José Chacayá	5	Chacayá	1	Enero	2023-01-30T00:00:00	2024-11-06T03:00:00	1	Precipitación	0
75672	7	Sololá	702	San José Chacayá	5	Chacayá	1	Enero	2023-01-30T00:00:00	2024-11-06T03:00:00	8	Radiación solar	0
75673	7	Sololá	702	San José Chacayá	5	Chacayá	1	Enero	2023-01-30T00:00:00	2024-11-06T04:00:00	2	Temperatura media	5
75674	7	Sololá	702	San José Chacayá	5	Chacayá	1	Enero	2023-01-30T00:00:00	2024-11-06T04:00:00	4	Temperatura máxima	5.4
75675	7	Sololá	702	San José Chacayá	5	Chacayá	1	Enero	2023-01-30T00:00:00	2024-11-06T04:00:00	3	Temperatura mínima	4.9
75676	7	Sololá	702	San José Chacayá	5	Chacayá	1	Enero	2023-01-30T00:00:00	2024-11-06T04:00:00	5	Humedad	83
75677	7	Sololá	702	San José Chacayá	5	Chacayá	1	Enero	2023-01-30T00:00:00	2024-11-06T04:00:00	6	Velocidad del viento	3.2
75678	7	Sololá	702	San José Chacayá	5	Chacayá	1	Enero	2023-01-30T00:00:00	2024-11-06T04:00:00	7	Dirección del viento	3.22
75679	7	Sololá	702	San José Chacayá	5	Chacayá	1	Enero	2023-01-30T00:00:00	2024-11-06T04:00:00	1	Precipitación	0
75680	7	Sololá	702	San José Chacayá	5	Chacayá	1	Enero	2023-01-30T00:00:00	2024-11-06T04:00:00	8	Radiación solar	0
75681	7	Sololá	702	San José Chacayá	5	Chacayá	1	Enero	2023-01-30T00:00:00	2024-11-06T05:00:00	2	Temperatura media	4.9
75682	7	Sololá	702	San José Chacayá	5	Chacayá	1	Enero	2023-01-30T00:00:00	2024-11-06T05:00:00	4	Temperatura máxima	5.1
75683	7	Sololá	702	San José Chacayá	5	Chacayá	1	Enero	2023-01-30T00:00:00	2024-11-06T05:00:00	3	Temperatura mínima	4.8
75684	7	Sololá	702	San José Chacayá	5	Chacayá	1	Enero	2023-01-30T00:00:00	2024-11-06T05:00:00	5	Humedad	82
75685	7	Sololá	702	San José Chacayá	5	Chacayá	1	Enero	2023-01-30T00:00:00	2024-11-06T05:00:00	6	Velocidad del viento	3.2
75686	7	Sololá	702	San José Chacayá	5	Chacayá	1	Enero	2023-01-30T00:00:00	2024-11-06T05:00:00	7	Dirección del viento	3.22
75687	7	Sololá	702	San José Chacayá	5	Chacayá	1	Enero	2023-01-30T00:00:00	2024-11-06T05:00:00	1	Precipitación	0
75688	7	Sololá	702	San José Chacayá	5	Chacayá	1	Enero	2023-01-30T00:00:00	2024-11-06T05:00:00	8	Radiación solar	0
75689	7	Sololá	702	San José Chacayá	5	Chacayá	1	Enero	2023-01-30T00:00:00	2024-11-06T06:00:00	2	Temperatura media	5.6
75690	7	Sololá	702	San José Chacayá	5	Chacayá	1	Enero	2023-01-30T00:00:00	2024-11-06T06:00:00	4	Temperatura máxima	5.6
75691	7	Sololá	702	San José Chacayá	5	Chacayá	1	Enero	2023-01-30T00:00:00	2024-11-06T06:00:00	3	Temperatura mínima	4.7
75692	7	Sololá	702	San José Chacayá	5	Chacayá	1	Enero	2023-01-30T00:00:00	2024-11-06T06:00:00	5	Humedad	81
75693	7	Sololá	702	San José Chacayá	5	Chacayá	1	Enero	2023-01-30T00:00:00	2024-11-06T06:00:00	6	Velocidad del viento	3.2
75694	7	Sololá	702	San José Chacayá	5	Chacayá	1	Enero	2023-01-30T00:00:00	2024-11-06T06:00:00	7	Dirección del viento	3.22
75695	7	Sololá	702	San José Chacayá	5	Chacayá	1	Enero	2023-01-30T00:00:00	2024-11-06T06:00:00	1	Precipitación	0
75696	7	Sololá	702	San José Chacayá	5	Chacayá	1	Enero	2023-01-30T00:00:00	2024-11-06T06:00:00	8	Radiación solar	0
75697	7	Sololá	702	San José Chacayá	5	Chacayá	1	Enero	2023-01-30T00:00:00	2024-11-06T07:00:00	2	Temperatura media	10.6
75698	7	Sololá	702	San José Chacayá	5	Chacayá	1	Enero	2023-01-30T00:00:00	2024-11-06T07:00:00	4	Temperatura máxima	10.6
75699	7	Sololá	702	San José Chacayá	5	Chacayá	1	Enero	2023-01-30T00:00:00	2024-11-06T07:00:00	3	Temperatura mínima	5.6
75700	7	Sololá	702	San José Chacayá	5	Chacayá	1	Enero	2023-01-30T00:00:00	2024-11-06T07:00:00	5	Humedad	71
75701	7	Sololá	702	San José Chacayá	5	Chacayá	1	Enero	2023-01-30T00:00:00	2024-11-06T07:00:00	6	Velocidad del viento	3.2
75702	7	Sololá	702	San José Chacayá	5	Chacayá	1	Enero	2023-01-30T00:00:00	2024-11-06T07:00:00	7	Dirección del viento	3.22
75703	7	Sololá	702	San José Chacayá	5	Chacayá	1	Enero	2023-01-30T00:00:00	2024-11-06T07:00:00	1	Precipitación	0
75704	7	Sololá	702	San José Chacayá	5	Chacayá	1	Enero	2023-01-30T00:00:00	2024-11-06T07:00:00	8	Radiación solar	11
75705	7	Sololá	702	San José Chacayá	5	Chacayá	1	Enero	2023-01-30T00:00:00	2024-11-06T08:00:00	2	Temperatura media	17.6
75706	7	Sololá	702	San José Chacayá	5	Chacayá	1	Enero	2023-01-30T00:00:00	2024-11-06T08:00:00	4	Temperatura máxima	17.6
75707	7	Sololá	702	San José Chacayá	5	Chacayá	1	Enero	2023-01-30T00:00:00	2024-11-06T08:00:00	3	Temperatura mínima	10.6
75708	7	Sololá	702	San José Chacayá	5	Chacayá	1	Enero	2023-01-30T00:00:00	2024-11-06T08:00:00	5	Humedad	45
75709	7	Sololá	702	San José Chacayá	5	Chacayá	1	Enero	2023-01-30T00:00:00	2024-11-06T08:00:00	6	Velocidad del viento	1.6
75710	7	Sololá	702	San José Chacayá	5	Chacayá	1	Enero	2023-01-30T00:00:00	2024-11-06T08:00:00	7	Dirección del viento	1.61
75711	7	Sololá	702	San José Chacayá	5	Chacayá	1	Enero	2023-01-30T00:00:00	2024-11-06T08:00:00	1	Precipitación	0
75712	7	Sololá	702	San José Chacayá	5	Chacayá	1	Enero	2023-01-30T00:00:00	2024-11-06T08:00:00	8	Radiación solar	182
75713	7	Sololá	702	San José Chacayá	5	Chacayá	1	Enero	2023-01-30T00:00:00	2024-11-06T09:00:00	2	Temperatura media	19.8
75714	7	Sololá	702	San José Chacayá	5	Chacayá	1	Enero	2023-01-30T00:00:00	2024-11-06T09:00:00	4	Temperatura máxima	19.8
75715	7	Sololá	702	San José Chacayá	5	Chacayá	1	Enero	2023-01-30T00:00:00	2024-11-06T09:00:00	3	Temperatura mínima	17.6
75716	7	Sololá	702	San José Chacayá	5	Chacayá	1	Enero	2023-01-30T00:00:00	2024-11-06T09:00:00	5	Humedad	50
75717	7	Sololá	702	San José Chacayá	5	Chacayá	1	Enero	2023-01-30T00:00:00	2024-11-06T09:00:00	6	Velocidad del viento	3.2
75718	7	Sololá	702	San José Chacayá	5	Chacayá	1	Enero	2023-01-30T00:00:00	2024-11-06T09:00:00	7	Dirección del viento	3.22
75719	7	Sololá	702	San José Chacayá	5	Chacayá	1	Enero	2023-01-30T00:00:00	2024-11-06T09:00:00	1	Precipitación	0
75720	7	Sololá	702	San José Chacayá	5	Chacayá	1	Enero	2023-01-30T00:00:00	2024-11-06T09:00:00	8	Radiación solar	414
75721	7	Sololá	702	San José Chacayá	5	Chacayá	1	Enero	2023-01-30T00:00:00	2024-11-06T10:00:00	2	Temperatura media	21.2
75722	7	Sololá	702	San José Chacayá	5	Chacayá	1	Enero	2023-01-30T00:00:00	2024-11-06T10:00:00	4	Temperatura máxima	21.2
75723	7	Sololá	702	San José Chacayá	5	Chacayá	1	Enero	2023-01-30T00:00:00	2024-11-06T10:00:00	3	Temperatura mínima	19.8
75724	7	Sololá	702	San José Chacayá	5	Chacayá	1	Enero	2023-01-30T00:00:00	2024-11-06T10:00:00	5	Humedad	44
75725	7	Sololá	702	San José Chacayá	5	Chacayá	1	Enero	2023-01-30T00:00:00	2024-11-06T10:00:00	6	Velocidad del viento	4.8
75726	7	Sololá	702	San José Chacayá	5	Chacayá	1	Enero	2023-01-30T00:00:00	2024-11-06T10:00:00	7	Dirección del viento	4.83
75727	7	Sololá	702	San José Chacayá	5	Chacayá	1	Enero	2023-01-30T00:00:00	2024-11-06T10:00:00	1	Precipitación	0
75728	7	Sololá	702	San José Chacayá	5	Chacayá	1	Enero	2023-01-30T00:00:00	2024-11-06T10:00:00	8	Radiación solar	562
75729	7	Sololá	702	San José Chacayá	5	Chacayá	1	Enero	2023-01-30T00:00:00	2024-11-06T11:00:00	2	Temperatura media	22.6
75730	7	Sololá	702	San José Chacayá	5	Chacayá	1	Enero	2023-01-30T00:00:00	2024-11-06T11:00:00	4	Temperatura máxima	22.6
75731	7	Sololá	702	San José Chacayá	5	Chacayá	1	Enero	2023-01-30T00:00:00	2024-11-06T11:00:00	3	Temperatura mínima	20.9
75732	7	Sololá	702	San José Chacayá	5	Chacayá	1	Enero	2023-01-30T00:00:00	2024-11-06T11:00:00	5	Humedad	35
75733	7	Sololá	702	San José Chacayá	5	Chacayá	1	Enero	2023-01-30T00:00:00	2024-11-06T11:00:00	6	Velocidad del viento	4.8
75734	7	Sololá	702	San José Chacayá	5	Chacayá	1	Enero	2023-01-30T00:00:00	2024-11-06T11:00:00	7	Dirección del viento	4.83
75735	7	Sololá	702	San José Chacayá	5	Chacayá	1	Enero	2023-01-30T00:00:00	2024-11-06T11:00:00	1	Precipitación	0
75736	7	Sololá	702	San José Chacayá	5	Chacayá	1	Enero	2023-01-30T00:00:00	2024-11-06T11:00:00	8	Radiación solar	790
75737	7	Sololá	702	San José Chacayá	5	Chacayá	1	Enero	2023-01-30T00:00:00	2024-11-06T12:00:00	2	Temperatura media	23.2
75738	7	Sololá	702	San José Chacayá	5	Chacayá	1	Enero	2023-01-30T00:00:00	2024-11-06T12:00:00	4	Temperatura máxima	23.2
75739	7	Sololá	702	San José Chacayá	5	Chacayá	1	Enero	2023-01-30T00:00:00	2024-11-06T12:00:00	3	Temperatura mínima	22.6
75740	7	Sololá	702	San José Chacayá	5	Chacayá	1	Enero	2023-01-30T00:00:00	2024-11-06T12:00:00	5	Humedad	43
75741	7	Sololá	702	San José Chacayá	5	Chacayá	1	Enero	2023-01-30T00:00:00	2024-11-06T12:00:00	6	Velocidad del viento	6.4
75742	7	Sololá	702	San José Chacayá	5	Chacayá	1	Enero	2023-01-30T00:00:00	2024-11-06T12:00:00	7	Dirección del viento	6.44
75743	7	Sololá	702	San José Chacayá	5	Chacayá	1	Enero	2023-01-30T00:00:00	2024-11-06T12:00:00	1	Precipitación	0
75744	7	Sololá	702	San José Chacayá	5	Chacayá	1	Enero	2023-01-30T00:00:00	2024-11-06T12:00:00	8	Radiación solar	883
75745	7	Sololá	702	San José Chacayá	5	Chacayá	1	Enero	2023-01-30T00:00:00	2024-11-06T13:00:00	2	Temperatura media	22.7
75746	7	Sololá	702	San José Chacayá	5	Chacayá	1	Enero	2023-01-30T00:00:00	2024-11-06T13:00:00	4	Temperatura máxima	23.3
75747	7	Sololá	702	San José Chacayá	5	Chacayá	1	Enero	2023-01-30T00:00:00	2024-11-06T13:00:00	3	Temperatura mínima	22.2
75748	7	Sololá	702	San José Chacayá	5	Chacayá	1	Enero	2023-01-30T00:00:00	2024-11-06T13:00:00	5	Humedad	49
75749	7	Sololá	702	San José Chacayá	5	Chacayá	1	Enero	2023-01-30T00:00:00	2024-11-06T13:00:00	6	Velocidad del viento	4.8
75750	7	Sololá	702	San José Chacayá	5	Chacayá	1	Enero	2023-01-30T00:00:00	2024-11-06T13:00:00	7	Dirección del viento	4.83
75751	7	Sololá	702	San José Chacayá	5	Chacayá	1	Enero	2023-01-30T00:00:00	2024-11-06T13:00:00	1	Precipitación	0
75752	7	Sololá	702	San José Chacayá	5	Chacayá	1	Enero	2023-01-30T00:00:00	2024-11-06T13:00:00	8	Radiación solar	893
75753	7	Sololá	702	San José Chacayá	5	Chacayá	1	Enero	2023-01-30T00:00:00	2024-11-06T14:00:00	2	Temperatura media	21.4
75754	7	Sololá	702	San José Chacayá	5	Chacayá	1	Enero	2023-01-30T00:00:00	2024-11-06T14:00:00	4	Temperatura máxima	22.8
75755	7	Sololá	702	San José Chacayá	5	Chacayá	1	Enero	2023-01-30T00:00:00	2024-11-06T14:00:00	3	Temperatura mínima	21.4
75756	7	Sololá	702	San José Chacayá	5	Chacayá	1	Enero	2023-01-30T00:00:00	2024-11-06T14:00:00	5	Humedad	57
75757	7	Sololá	702	San José Chacayá	5	Chacayá	1	Enero	2023-01-30T00:00:00	2024-11-06T14:00:00	6	Velocidad del viento	4.8
75758	7	Sololá	702	San José Chacayá	5	Chacayá	1	Enero	2023-01-30T00:00:00	2024-11-06T14:00:00	7	Dirección del viento	4.83
75759	7	Sololá	702	San José Chacayá	5	Chacayá	1	Enero	2023-01-30T00:00:00	2024-11-06T14:00:00	1	Precipitación	0
75760	7	Sololá	702	San José Chacayá	5	Chacayá	1	Enero	2023-01-30T00:00:00	2024-11-06T14:00:00	8	Radiación solar	833
75761	7	Sololá	702	San José Chacayá	5	Chacayá	1	Enero	2023-01-30T00:00:00	2024-11-06T15:00:00	2	Temperatura media	20.1
75762	7	Sololá	702	San José Chacayá	5	Chacayá	1	Enero	2023-01-30T00:00:00	2024-11-06T15:00:00	4	Temperatura máxima	21.5
75763	7	Sololá	702	San José Chacayá	5	Chacayá	1	Enero	2023-01-30T00:00:00	2024-11-06T15:00:00	3	Temperatura mínima	20.1
75764	7	Sololá	702	San José Chacayá	5	Chacayá	1	Enero	2023-01-30T00:00:00	2024-11-06T15:00:00	5	Humedad	62
75765	7	Sololá	702	San José Chacayá	5	Chacayá	1	Enero	2023-01-30T00:00:00	2024-11-06T15:00:00	6	Velocidad del viento	4.8
75766	7	Sololá	702	San José Chacayá	5	Chacayá	1	Enero	2023-01-30T00:00:00	2024-11-06T15:00:00	7	Dirección del viento	4.83
75767	7	Sololá	702	San José Chacayá	5	Chacayá	1	Enero	2023-01-30T00:00:00	2024-11-06T15:00:00	1	Precipitación	0
75768	7	Sololá	702	San José Chacayá	5	Chacayá	1	Enero	2023-01-30T00:00:00	2024-11-06T15:00:00	8	Radiación solar	714
75769	7	Sololá	702	San José Chacayá	5	Chacayá	1	Enero	2023-01-30T00:00:00	2024-11-06T16:00:00	2	Temperatura media	17.7
75770	7	Sololá	702	San José Chacayá	5	Chacayá	1	Enero	2023-01-30T00:00:00	2024-11-06T16:00:00	4	Temperatura máxima	20.1
75771	7	Sololá	702	San José Chacayá	5	Chacayá	1	Enero	2023-01-30T00:00:00	2024-11-06T16:00:00	3	Temperatura mínima	17.7
75772	7	Sololá	702	San José Chacayá	5	Chacayá	1	Enero	2023-01-30T00:00:00	2024-11-06T16:00:00	5	Humedad	70
75773	7	Sololá	702	San José Chacayá	5	Chacayá	1	Enero	2023-01-30T00:00:00	2024-11-06T16:00:00	6	Velocidad del viento	3.2
75774	7	Sololá	702	San José Chacayá	5	Chacayá	1	Enero	2023-01-30T00:00:00	2024-11-06T16:00:00	7	Dirección del viento	3.22
75775	7	Sololá	702	San José Chacayá	5	Chacayá	1	Enero	2023-01-30T00:00:00	2024-11-06T16:00:00	1	Precipitación	0
75776	7	Sololá	702	San José Chacayá	5	Chacayá	1	Enero	2023-01-30T00:00:00	2024-11-06T16:00:00	8	Radiación solar	536
75777	7	Sololá	702	San José Chacayá	5	Chacayá	1	Enero	2023-01-30T00:00:00	2024-11-06T17:00:00	2	Temperatura media	14.5
75778	7	Sololá	702	San José Chacayá	5	Chacayá	1	Enero	2023-01-30T00:00:00	2024-11-06T17:00:00	4	Temperatura máxima	17.7
75779	7	Sololá	702	San José Chacayá	5	Chacayá	1	Enero	2023-01-30T00:00:00	2024-11-06T17:00:00	3	Temperatura mínima	14.5
75780	7	Sololá	702	San José Chacayá	5	Chacayá	1	Enero	2023-01-30T00:00:00	2024-11-06T17:00:00	5	Humedad	81
75781	7	Sololá	702	San José Chacayá	5	Chacayá	1	Enero	2023-01-30T00:00:00	2024-11-06T17:00:00	6	Velocidad del viento	1.6
75782	7	Sololá	702	San José Chacayá	5	Chacayá	1	Enero	2023-01-30T00:00:00	2024-11-06T17:00:00	7	Dirección del viento	1.61
75783	7	Sololá	702	San José Chacayá	5	Chacayá	1	Enero	2023-01-30T00:00:00	2024-11-06T17:00:00	1	Precipitación	0
75784	7	Sololá	702	San José Chacayá	5	Chacayá	1	Enero	2023-01-30T00:00:00	2024-11-06T17:00:00	8	Radiación solar	310
75785	7	Sololá	702	San José Chacayá	5	Chacayá	1	Enero	2023-01-30T00:00:00	2024-11-06T18:00:00	2	Temperatura media	11.8
75786	7	Sololá	702	San José Chacayá	5	Chacayá	1	Enero	2023-01-30T00:00:00	2024-11-06T18:00:00	4	Temperatura máxima	14.4
75787	7	Sololá	702	San José Chacayá	5	Chacayá	1	Enero	2023-01-30T00:00:00	2024-11-06T18:00:00	3	Temperatura mínima	11.8
75788	7	Sololá	702	San José Chacayá	5	Chacayá	1	Enero	2023-01-30T00:00:00	2024-11-06T18:00:00	5	Humedad	87
75789	7	Sololá	702	San José Chacayá	5	Chacayá	1	Enero	2023-01-30T00:00:00	2024-11-06T18:00:00	6	Velocidad del viento	0
75790	7	Sololá	702	San José Chacayá	5	Chacayá	1	Enero	2023-01-30T00:00:00	2024-11-06T18:00:00	7	Dirección del viento	0
75791	7	Sololá	702	San José Chacayá	5	Chacayá	1	Enero	2023-01-30T00:00:00	2024-11-06T18:00:00	1	Precipitación	0
75792	7	Sololá	702	San José Chacayá	5	Chacayá	1	Enero	2023-01-30T00:00:00	2024-11-06T18:00:00	8	Radiación solar	54
75793	7	Sololá	702	San José Chacayá	5	Chacayá	1	Enero	2023-01-30T00:00:00	2024-11-06T19:00:00	2	Temperatura media	11.4
75794	7	Sololá	702	San José Chacayá	5	Chacayá	1	Enero	2023-01-30T00:00:00	2024-11-06T19:00:00	4	Temperatura máxima	11.8
75795	7	Sololá	702	San José Chacayá	5	Chacayá	1	Enero	2023-01-30T00:00:00	2024-11-06T19:00:00	3	Temperatura mínima	11
75796	7	Sololá	702	San José Chacayá	5	Chacayá	1	Enero	2023-01-30T00:00:00	2024-11-06T19:00:00	5	Humedad	82
75797	7	Sololá	702	San José Chacayá	5	Chacayá	1	Enero	2023-01-30T00:00:00	2024-11-06T19:00:00	6	Velocidad del viento	1.6
75798	7	Sololá	702	San José Chacayá	5	Chacayá	1	Enero	2023-01-30T00:00:00	2024-11-06T19:00:00	7	Dirección del viento	1.61
75799	7	Sololá	702	San José Chacayá	5	Chacayá	1	Enero	2023-01-30T00:00:00	2024-11-06T19:00:00	1	Precipitación	0
75800	7	Sololá	702	San José Chacayá	5	Chacayá	1	Enero	2023-01-30T00:00:00	2024-11-06T19:00:00	8	Radiación solar	0
75801	7	Sololá	702	San José Chacayá	5	Chacayá	1	Enero	2023-01-30T00:00:00	2024-11-06T20:00:00	2	Temperatura media	13.1
75802	7	Sololá	702	San José Chacayá	5	Chacayá	1	Enero	2023-01-30T00:00:00	2024-11-06T20:00:00	4	Temperatura máxima	13.2
75803	7	Sololá	702	San José Chacayá	5	Chacayá	1	Enero	2023-01-30T00:00:00	2024-11-06T20:00:00	3	Temperatura mínima	11.4
75804	7	Sololá	702	San José Chacayá	5	Chacayá	1	Enero	2023-01-30T00:00:00	2024-11-06T20:00:00	5	Humedad	78
75805	7	Sololá	702	San José Chacayá	5	Chacayá	1	Enero	2023-01-30T00:00:00	2024-11-06T20:00:00	6	Velocidad del viento	3.2
75806	7	Sololá	702	San José Chacayá	5	Chacayá	1	Enero	2023-01-30T00:00:00	2024-11-06T20:00:00	7	Dirección del viento	3.22
75807	7	Sololá	702	San José Chacayá	5	Chacayá	1	Enero	2023-01-30T00:00:00	2024-11-06T20:00:00	1	Precipitación	0
75808	7	Sololá	702	San José Chacayá	5	Chacayá	1	Enero	2023-01-30T00:00:00	2024-11-06T20:00:00	8	Radiación solar	0
75809	7	Sololá	702	San José Chacayá	5	Chacayá	1	Enero	2023-01-30T00:00:00	2024-11-06T21:00:00	2	Temperatura media	9.7
75810	7	Sololá	702	San José Chacayá	5	Chacayá	1	Enero	2023-01-30T00:00:00	2024-11-06T21:00:00	4	Temperatura máxima	13.2
75811	7	Sololá	702	San José Chacayá	5	Chacayá	1	Enero	2023-01-30T00:00:00	2024-11-06T21:00:00	3	Temperatura mínima	9.7
75812	7	Sololá	702	San José Chacayá	5	Chacayá	1	Enero	2023-01-30T00:00:00	2024-11-06T21:00:00	5	Humedad	86
75813	7	Sololá	702	San José Chacayá	5	Chacayá	1	Enero	2023-01-30T00:00:00	2024-11-06T21:00:00	6	Velocidad del viento	1.6
75814	7	Sololá	702	San José Chacayá	5	Chacayá	1	Enero	2023-01-30T00:00:00	2024-11-06T21:00:00	7	Dirección del viento	1.61
75815	7	Sololá	702	San José Chacayá	5	Chacayá	1	Enero	2023-01-30T00:00:00	2024-11-06T21:00:00	1	Precipitación	0
75816	7	Sololá	702	San José Chacayá	5	Chacayá	1	Enero	2023-01-30T00:00:00	2024-11-06T21:00:00	8	Radiación solar	0
75817	7	Sololá	702	San José Chacayá	5	Chacayá	1	Enero	2023-01-30T00:00:00	2024-11-06T22:00:00	2	Temperatura media	8
75818	7	Sololá	702	San José Chacayá	5	Chacayá	1	Enero	2023-01-30T00:00:00	2024-11-06T22:00:00	4	Temperatura máxima	9.7
75819	7	Sololá	702	San José Chacayá	5	Chacayá	1	Enero	2023-01-30T00:00:00	2024-11-06T22:00:00	3	Temperatura mínima	7.9
75820	7	Sololá	702	San José Chacayá	5	Chacayá	1	Enero	2023-01-30T00:00:00	2024-11-06T22:00:00	5	Humedad	87
75821	7	Sololá	702	San José Chacayá	5	Chacayá	1	Enero	2023-01-30T00:00:00	2024-11-06T22:00:00	6	Velocidad del viento	1.6
75822	7	Sololá	702	San José Chacayá	5	Chacayá	1	Enero	2023-01-30T00:00:00	2024-11-06T22:00:00	7	Dirección del viento	1.61
75823	7	Sololá	702	San José Chacayá	5	Chacayá	1	Enero	2023-01-30T00:00:00	2024-11-06T22:00:00	1	Precipitación	0
75824	7	Sololá	702	San José Chacayá	5	Chacayá	1	Enero	2023-01-30T00:00:00	2024-11-06T22:00:00	8	Radiación solar	0
75825	7	Sololá	702	San José Chacayá	5	Chacayá	1	Enero	2023-01-30T00:00:00	2024-11-06T23:00:00	2	Temperatura media	6.7
75826	7	Sololá	702	San José Chacayá	5	Chacayá	1	Enero	2023-01-30T00:00:00	2024-11-06T23:00:00	4	Temperatura máxima	8
75827	7	Sololá	702	San José Chacayá	5	Chacayá	1	Enero	2023-01-30T00:00:00	2024-11-06T23:00:00	3	Temperatura mínima	6.7
75828	7	Sololá	702	San José Chacayá	5	Chacayá	1	Enero	2023-01-30T00:00:00	2024-11-06T23:00:00	5	Humedad	88
75829	7	Sololá	702	San José Chacayá	5	Chacayá	1	Enero	2023-01-30T00:00:00	2024-11-06T23:00:00	6	Velocidad del viento	1.6
75830	7	Sololá	702	San José Chacayá	5	Chacayá	1	Enero	2023-01-30T00:00:00	2024-11-06T23:00:00	7	Dirección del viento	1.61
75831	7	Sololá	702	San José Chacayá	5	Chacayá	1	Enero	2023-01-30T00:00:00	2024-11-06T23:00:00	1	Precipitación	0
75832	7	Sololá	702	San José Chacayá	5	Chacayá	1	Enero	2023-01-30T00:00:00	2024-11-06T23:00:00	8	Radiación solar	0
75833	7	Sololá	702	San José Chacayá	5	Chacayá	1	Enero	2023-01-31T00:00:00	2024-11-06T00:00:00	2	Temperatura media	5.8
75834	7	Sololá	702	San José Chacayá	5	Chacayá	1	Enero	2023-01-31T00:00:00	2024-11-06T00:00:00	4	Temperatura máxima	6.7
75835	7	Sololá	702	San José Chacayá	5	Chacayá	1	Enero	2023-01-31T00:00:00	2024-11-06T00:00:00	3	Temperatura mínima	5.8
75836	7	Sololá	702	San José Chacayá	5	Chacayá	1	Enero	2023-01-31T00:00:00	2024-11-06T00:00:00	5	Humedad	90
75837	7	Sololá	702	San José Chacayá	5	Chacayá	1	Enero	2023-01-31T00:00:00	2024-11-06T00:00:00	6	Velocidad del viento	1.6
75838	7	Sololá	702	San José Chacayá	5	Chacayá	1	Enero	2023-01-31T00:00:00	2024-11-06T00:00:00	7	Dirección del viento	1.61
75839	7	Sololá	702	San José Chacayá	5	Chacayá	1	Enero	2023-01-31T00:00:00	2024-11-06T00:00:00	1	Precipitación	0
75840	7	Sololá	702	San José Chacayá	5	Chacayá	1	Enero	2023-01-31T00:00:00	2024-11-06T00:00:00	8	Radiación solar	0
75841	7	Sololá	702	San José Chacayá	5	Chacayá	1	Enero	2023-01-31T00:00:00	2024-11-06T01:00:00	2	Temperatura media	5.8
75842	7	Sololá	702	San José Chacayá	5	Chacayá	1	Enero	2023-01-31T00:00:00	2024-11-06T01:00:00	4	Temperatura máxima	5.8
75843	7	Sololá	702	San José Chacayá	5	Chacayá	1	Enero	2023-01-31T00:00:00	2024-11-06T01:00:00	3	Temperatura mínima	5.5
75844	7	Sololá	702	San José Chacayá	5	Chacayá	1	Enero	2023-01-31T00:00:00	2024-11-06T01:00:00	5	Humedad	90
75845	7	Sololá	702	San José Chacayá	5	Chacayá	1	Enero	2023-01-31T00:00:00	2024-11-06T01:00:00	6	Velocidad del viento	1.6
75846	7	Sololá	702	San José Chacayá	5	Chacayá	1	Enero	2023-01-31T00:00:00	2024-11-06T01:00:00	7	Dirección del viento	1.61
75847	7	Sololá	702	San José Chacayá	5	Chacayá	1	Enero	2023-01-31T00:00:00	2024-11-06T01:00:00	1	Precipitación	0
75848	7	Sololá	702	San José Chacayá	5	Chacayá	1	Enero	2023-01-31T00:00:00	2024-11-06T01:00:00	8	Radiación solar	0
75849	7	Sololá	702	San José Chacayá	5	Chacayá	1	Enero	2023-01-31T00:00:00	2024-11-06T02:00:00	2	Temperatura media	5.3
75850	7	Sololá	702	San José Chacayá	5	Chacayá	1	Enero	2023-01-31T00:00:00	2024-11-06T02:00:00	4	Temperatura máxima	6.1
75851	7	Sololá	702	San José Chacayá	5	Chacayá	1	Enero	2023-01-31T00:00:00	2024-11-06T02:00:00	3	Temperatura mínima	5.3
75852	7	Sololá	702	San José Chacayá	5	Chacayá	1	Enero	2023-01-31T00:00:00	2024-11-06T02:00:00	5	Humedad	89
75853	7	Sololá	702	San José Chacayá	5	Chacayá	1	Enero	2023-01-31T00:00:00	2024-11-06T02:00:00	6	Velocidad del viento	1.6
75854	7	Sololá	702	San José Chacayá	5	Chacayá	1	Enero	2023-01-31T00:00:00	2024-11-06T02:00:00	7	Dirección del viento	1.61
75855	7	Sololá	702	San José Chacayá	5	Chacayá	1	Enero	2023-01-31T00:00:00	2024-11-06T02:00:00	1	Precipitación	0
75856	7	Sololá	702	San José Chacayá	5	Chacayá	1	Enero	2023-01-31T00:00:00	2024-11-06T02:00:00	8	Radiación solar	0
75857	7	Sololá	702	San José Chacayá	5	Chacayá	1	Enero	2023-01-31T00:00:00	2024-11-06T03:00:00	2	Temperatura media	5.1
75858	7	Sololá	702	San José Chacayá	5	Chacayá	1	Enero	2023-01-31T00:00:00	2024-11-06T03:00:00	4	Temperatura máxima	5.4
75859	7	Sololá	702	San José Chacayá	5	Chacayá	1	Enero	2023-01-31T00:00:00	2024-11-06T03:00:00	3	Temperatura mínima	5
75860	7	Sololá	702	San José Chacayá	5	Chacayá	1	Enero	2023-01-31T00:00:00	2024-11-06T03:00:00	5	Humedad	90
75861	7	Sololá	702	San José Chacayá	5	Chacayá	1	Enero	2023-01-31T00:00:00	2024-11-06T03:00:00	6	Velocidad del viento	1.6
75862	7	Sololá	702	San José Chacayá	5	Chacayá	1	Enero	2023-01-31T00:00:00	2024-11-06T03:00:00	7	Dirección del viento	1.61
75863	7	Sololá	702	San José Chacayá	5	Chacayá	1	Enero	2023-01-31T00:00:00	2024-11-06T03:00:00	1	Precipitación	0
75864	7	Sololá	702	San José Chacayá	5	Chacayá	1	Enero	2023-01-31T00:00:00	2024-11-06T03:00:00	8	Radiación solar	0
75865	7	Sololá	702	San José Chacayá	5	Chacayá	1	Enero	2023-01-31T00:00:00	2024-11-06T04:00:00	2	Temperatura media	5.2
75866	7	Sololá	702	San José Chacayá	5	Chacayá	1	Enero	2023-01-31T00:00:00	2024-11-06T04:00:00	4	Temperatura máxima	5.2
75867	7	Sololá	702	San José Chacayá	5	Chacayá	1	Enero	2023-01-31T00:00:00	2024-11-06T04:00:00	3	Temperatura mínima	4.9
75868	7	Sololá	702	San José Chacayá	5	Chacayá	1	Enero	2023-01-31T00:00:00	2024-11-06T04:00:00	5	Humedad	92
75869	7	Sololá	702	San José Chacayá	5	Chacayá	1	Enero	2023-01-31T00:00:00	2024-11-06T04:00:00	6	Velocidad del viento	1.6
75870	7	Sololá	702	San José Chacayá	5	Chacayá	1	Enero	2023-01-31T00:00:00	2024-11-06T04:00:00	7	Dirección del viento	1.61
75871	7	Sololá	702	San José Chacayá	5	Chacayá	1	Enero	2023-01-31T00:00:00	2024-11-06T04:00:00	1	Precipitación	0
75872	7	Sololá	702	San José Chacayá	5	Chacayá	1	Enero	2023-01-31T00:00:00	2024-11-06T04:00:00	8	Radiación solar	0
75873	7	Sololá	702	San José Chacayá	5	Chacayá	1	Enero	2023-01-31T00:00:00	2024-11-06T05:00:00	2	Temperatura media	5.2
75874	7	Sololá	702	San José Chacayá	5	Chacayá	1	Enero	2023-01-31T00:00:00	2024-11-06T05:00:00	4	Temperatura máxima	5.2
75875	7	Sololá	702	San José Chacayá	5	Chacayá	1	Enero	2023-01-31T00:00:00	2024-11-06T05:00:00	3	Temperatura mínima	5.1
75876	7	Sololá	702	San José Chacayá	5	Chacayá	1	Enero	2023-01-31T00:00:00	2024-11-06T05:00:00	5	Humedad	93
75877	7	Sololá	702	San José Chacayá	5	Chacayá	1	Enero	2023-01-31T00:00:00	2024-11-06T05:00:00	6	Velocidad del viento	1.6
75878	7	Sololá	702	San José Chacayá	5	Chacayá	1	Enero	2023-01-31T00:00:00	2024-11-06T05:00:00	7	Dirección del viento	1.61
75879	7	Sololá	702	San José Chacayá	5	Chacayá	1	Enero	2023-01-31T00:00:00	2024-11-06T05:00:00	1	Precipitación	0
75880	7	Sololá	702	San José Chacayá	5	Chacayá	1	Enero	2023-01-31T00:00:00	2024-11-06T05:00:00	8	Radiación solar	0
75881	7	Sololá	702	San José Chacayá	5	Chacayá	1	Enero	2023-01-31T00:00:00	2024-11-06T06:00:00	2	Temperatura media	6.2
75882	7	Sololá	702	San José Chacayá	5	Chacayá	1	Enero	2023-01-31T00:00:00	2024-11-06T06:00:00	4	Temperatura máxima	6.2
75883	7	Sololá	702	San José Chacayá	5	Chacayá	1	Enero	2023-01-31T00:00:00	2024-11-06T06:00:00	3	Temperatura mínima	5.1
75884	7	Sololá	702	San José Chacayá	5	Chacayá	1	Enero	2023-01-31T00:00:00	2024-11-06T06:00:00	5	Humedad	90
75885	7	Sololá	702	San José Chacayá	5	Chacayá	1	Enero	2023-01-31T00:00:00	2024-11-06T06:00:00	6	Velocidad del viento	1.6
75886	7	Sololá	702	San José Chacayá	5	Chacayá	1	Enero	2023-01-31T00:00:00	2024-11-06T06:00:00	7	Dirección del viento	1.61
75887	7	Sololá	702	San José Chacayá	5	Chacayá	1	Enero	2023-01-31T00:00:00	2024-11-06T06:00:00	1	Precipitación	0
75888	7	Sololá	702	San José Chacayá	5	Chacayá	1	Enero	2023-01-31T00:00:00	2024-11-06T06:00:00	8	Radiación solar	0
75889	7	Sololá	702	San José Chacayá	5	Chacayá	1	Enero	2023-01-31T00:00:00	2024-11-06T07:00:00	2	Temperatura media	12.1
75890	7	Sololá	702	San José Chacayá	5	Chacayá	1	Enero	2023-01-31T00:00:00	2024-11-06T07:00:00	4	Temperatura máxima	12.1
75891	7	Sololá	702	San José Chacayá	5	Chacayá	1	Enero	2023-01-31T00:00:00	2024-11-06T07:00:00	3	Temperatura mínima	6.2
75892	7	Sololá	702	San José Chacayá	5	Chacayá	1	Enero	2023-01-31T00:00:00	2024-11-06T07:00:00	5	Humedad	77
75893	7	Sololá	702	San José Chacayá	5	Chacayá	1	Enero	2023-01-31T00:00:00	2024-11-06T07:00:00	6	Velocidad del viento	1.6
75894	7	Sololá	702	San José Chacayá	5	Chacayá	1	Enero	2023-01-31T00:00:00	2024-11-06T07:00:00	7	Dirección del viento	1.61
75895	7	Sololá	702	San José Chacayá	5	Chacayá	1	Enero	2023-01-31T00:00:00	2024-11-06T07:00:00	1	Precipitación	0
75896	7	Sololá	702	San José Chacayá	5	Chacayá	1	Enero	2023-01-31T00:00:00	2024-11-06T07:00:00	8	Radiación solar	6
75897	7	Sololá	702	San José Chacayá	5	Chacayá	1	Enero	2023-01-31T00:00:00	2024-11-06T08:00:00	2	Temperatura media	17.1
75898	7	Sololá	702	San José Chacayá	5	Chacayá	1	Enero	2023-01-31T00:00:00	2024-11-06T08:00:00	4	Temperatura máxima	17.1
75899	7	Sololá	702	San José Chacayá	5	Chacayá	1	Enero	2023-01-31T00:00:00	2024-11-06T08:00:00	3	Temperatura mínima	12.1
75900	7	Sololá	702	San José Chacayá	5	Chacayá	1	Enero	2023-01-31T00:00:00	2024-11-06T08:00:00	5	Humedad	54
75901	7	Sololá	702	San José Chacayá	5	Chacayá	1	Enero	2023-01-31T00:00:00	2024-11-06T08:00:00	6	Velocidad del viento	1.6
75902	7	Sololá	702	San José Chacayá	5	Chacayá	1	Enero	2023-01-31T00:00:00	2024-11-06T08:00:00	7	Dirección del viento	1.61
75903	7	Sololá	702	San José Chacayá	5	Chacayá	1	Enero	2023-01-31T00:00:00	2024-11-06T08:00:00	1	Precipitación	0
75904	7	Sololá	702	San José Chacayá	5	Chacayá	1	Enero	2023-01-31T00:00:00	2024-11-06T08:00:00	8	Radiación solar	139
75905	7	Sololá	702	San José Chacayá	5	Chacayá	1	Enero	2023-01-31T00:00:00	2024-11-06T09:00:00	2	Temperatura media	19.8
75906	7	Sololá	702	San José Chacayá	5	Chacayá	1	Enero	2023-01-31T00:00:00	2024-11-06T09:00:00	4	Temperatura máxima	19.8
75907	7	Sololá	702	San José Chacayá	5	Chacayá	1	Enero	2023-01-31T00:00:00	2024-11-06T09:00:00	3	Temperatura mínima	17.1
75908	7	Sololá	702	San José Chacayá	5	Chacayá	1	Enero	2023-01-31T00:00:00	2024-11-06T09:00:00	5	Humedad	45
75909	7	Sololá	702	San José Chacayá	5	Chacayá	1	Enero	2023-01-31T00:00:00	2024-11-06T09:00:00	6	Velocidad del viento	3.2
75910	7	Sololá	702	San José Chacayá	5	Chacayá	1	Enero	2023-01-31T00:00:00	2024-11-06T09:00:00	7	Dirección del viento	3.22
75911	7	Sololá	702	San José Chacayá	5	Chacayá	1	Enero	2023-01-31T00:00:00	2024-11-06T09:00:00	1	Precipitación	0
75912	7	Sololá	702	San José Chacayá	5	Chacayá	1	Enero	2023-01-31T00:00:00	2024-11-06T09:00:00	8	Radiación solar	393
75913	7	Sololá	702	San José Chacayá	5	Chacayá	1	Enero	2023-01-31T00:00:00	2024-11-06T10:00:00	2	Temperatura media	21.5
75914	7	Sololá	702	San José Chacayá	5	Chacayá	1	Enero	2023-01-31T00:00:00	2024-11-06T10:00:00	4	Temperatura máxima	21.5
75915	7	Sololá	702	San José Chacayá	5	Chacayá	1	Enero	2023-01-31T00:00:00	2024-11-06T10:00:00	3	Temperatura mínima	19.7
75916	7	Sololá	702	San José Chacayá	5	Chacayá	1	Enero	2023-01-31T00:00:00	2024-11-06T10:00:00	5	Humedad	44
75917	7	Sololá	702	San José Chacayá	5	Chacayá	1	Enero	2023-01-31T00:00:00	2024-11-06T10:00:00	6	Velocidad del viento	3.2
75918	7	Sololá	702	San José Chacayá	5	Chacayá	1	Enero	2023-01-31T00:00:00	2024-11-06T10:00:00	7	Dirección del viento	3.22
75919	7	Sololá	702	San José Chacayá	5	Chacayá	1	Enero	2023-01-31T00:00:00	2024-11-06T10:00:00	1	Precipitación	0
75920	7	Sololá	702	San José Chacayá	5	Chacayá	1	Enero	2023-01-31T00:00:00	2024-11-06T10:00:00	8	Radiación solar	376
75921	7	Sololá	702	San José Chacayá	5	Chacayá	1	Enero	2023-01-31T00:00:00	2024-11-06T11:00:00	2	Temperatura media	22.7
75922	7	Sololá	702	San José Chacayá	5	Chacayá	1	Enero	2023-01-31T00:00:00	2024-11-06T11:00:00	4	Temperatura máxima	22.9
75923	7	Sololá	702	San José Chacayá	5	Chacayá	1	Enero	2023-01-31T00:00:00	2024-11-06T11:00:00	3	Temperatura mínima	21.5
75924	7	Sololá	702	San José Chacayá	5	Chacayá	1	Enero	2023-01-31T00:00:00	2024-11-06T11:00:00	5	Humedad	31
75925	7	Sololá	702	San José Chacayá	5	Chacayá	1	Enero	2023-01-31T00:00:00	2024-11-06T11:00:00	6	Velocidad del viento	6.4
75926	7	Sololá	702	San José Chacayá	5	Chacayá	1	Enero	2023-01-31T00:00:00	2024-11-06T11:00:00	7	Dirección del viento	6.44
75927	7	Sololá	702	San José Chacayá	5	Chacayá	1	Enero	2023-01-31T00:00:00	2024-11-06T11:00:00	1	Precipitación	0
75928	7	Sololá	702	San José Chacayá	5	Chacayá	1	Enero	2023-01-31T00:00:00	2024-11-06T11:00:00	8	Radiación solar	107
75929	7	Sololá	702	San José Chacayá	5	Chacayá	1	Enero	2023-01-31T00:00:00	2024-11-06T12:00:00	2	Temperatura media	22.5
75930	7	Sololá	702	San José Chacayá	5	Chacayá	1	Enero	2023-01-31T00:00:00	2024-11-06T12:00:00	4	Temperatura máxima	23.1
75931	7	Sololá	702	San José Chacayá	5	Chacayá	1	Enero	2023-01-31T00:00:00	2024-11-06T12:00:00	3	Temperatura mínima	22.4
75932	7	Sololá	702	San José Chacayá	5	Chacayá	1	Enero	2023-01-31T00:00:00	2024-11-06T12:00:00	5	Humedad	31
75933	7	Sololá	702	San José Chacayá	5	Chacayá	1	Enero	2023-01-31T00:00:00	2024-11-06T12:00:00	6	Velocidad del viento	8
75934	7	Sololá	702	San José Chacayá	5	Chacayá	1	Enero	2023-01-31T00:00:00	2024-11-06T12:00:00	7	Dirección del viento	8.05
75935	7	Sololá	702	San José Chacayá	5	Chacayá	1	Enero	2023-01-31T00:00:00	2024-11-06T12:00:00	1	Precipitación	0
75936	7	Sololá	702	San José Chacayá	5	Chacayá	1	Enero	2023-01-31T00:00:00	2024-11-06T12:00:00	8	Radiación solar	519
75937	7	Sololá	702	San José Chacayá	5	Chacayá	1	Enero	2023-01-31T00:00:00	2024-11-06T13:00:00	2	Temperatura media	23.3
75938	7	Sololá	702	San José Chacayá	5	Chacayá	1	Enero	2023-01-31T00:00:00	2024-11-06T13:00:00	4	Temperatura máxima	23.9
75939	7	Sololá	702	San José Chacayá	5	Chacayá	1	Enero	2023-01-31T00:00:00	2024-11-06T13:00:00	3	Temperatura mínima	22.3
75940	7	Sololá	702	San José Chacayá	5	Chacayá	1	Enero	2023-01-31T00:00:00	2024-11-06T13:00:00	5	Humedad	32
75941	7	Sololá	702	San José Chacayá	5	Chacayá	1	Enero	2023-01-31T00:00:00	2024-11-06T13:00:00	6	Velocidad del viento	6.4
75942	7	Sololá	702	San José Chacayá	5	Chacayá	1	Enero	2023-01-31T00:00:00	2024-11-06T13:00:00	7	Dirección del viento	6.44
75943	7	Sololá	702	San José Chacayá	5	Chacayá	1	Enero	2023-01-31T00:00:00	2024-11-06T13:00:00	1	Precipitación	0
75944	7	Sololá	702	San José Chacayá	5	Chacayá	1	Enero	2023-01-31T00:00:00	2024-11-06T13:00:00	8	Radiación solar	853
75945	7	Sololá	702	San José Chacayá	5	Chacayá	1	Enero	2023-01-31T00:00:00	2024-11-06T14:00:00	2	Temperatura media	22.7
75946	7	Sololá	702	San José Chacayá	5	Chacayá	1	Enero	2023-01-31T00:00:00	2024-11-06T14:00:00	4	Temperatura máxima	23.3
75947	7	Sololá	702	San José Chacayá	5	Chacayá	1	Enero	2023-01-31T00:00:00	2024-11-06T14:00:00	3	Temperatura mínima	22.6
75948	7	Sololá	702	San José Chacayá	5	Chacayá	1	Enero	2023-01-31T00:00:00	2024-11-06T14:00:00	5	Humedad	41
75949	7	Sololá	702	San José Chacayá	5	Chacayá	1	Enero	2023-01-31T00:00:00	2024-11-06T14:00:00	6	Velocidad del viento	6.4
75950	7	Sololá	702	San José Chacayá	5	Chacayá	1	Enero	2023-01-31T00:00:00	2024-11-06T14:00:00	7	Dirección del viento	6.44
75951	7	Sololá	702	San José Chacayá	5	Chacayá	1	Enero	2023-01-31T00:00:00	2024-11-06T14:00:00	1	Precipitación	0
75952	7	Sololá	702	San José Chacayá	5	Chacayá	1	Enero	2023-01-31T00:00:00	2024-11-06T14:00:00	8	Radiación solar	797
75953	7	Sololá	702	San José Chacayá	5	Chacayá	1	Enero	2023-01-31T00:00:00	2024-11-06T15:00:00	2	Temperatura media	20.9
75954	7	Sololá	702	San José Chacayá	5	Chacayá	1	Enero	2023-01-31T00:00:00	2024-11-06T15:00:00	4	Temperatura máxima	22.7
75955	7	Sololá	702	San José Chacayá	5	Chacayá	1	Enero	2023-01-31T00:00:00	2024-11-06T15:00:00	3	Temperatura mínima	20.8
75956	7	Sololá	702	San José Chacayá	5	Chacayá	1	Enero	2023-01-31T00:00:00	2024-11-06T15:00:00	5	Humedad	57
75957	7	Sololá	702	San José Chacayá	5	Chacayá	1	Enero	2023-01-31T00:00:00	2024-11-06T15:00:00	6	Velocidad del viento	4.8
75958	7	Sololá	702	San José Chacayá	5	Chacayá	1	Enero	2023-01-31T00:00:00	2024-11-06T15:00:00	7	Dirección del viento	4.83
75959	7	Sololá	702	San José Chacayá	5	Chacayá	1	Enero	2023-01-31T00:00:00	2024-11-06T15:00:00	1	Precipitación	0
75960	7	Sololá	702	San José Chacayá	5	Chacayá	1	Enero	2023-01-31T00:00:00	2024-11-06T15:00:00	8	Radiación solar	471
75961	7	Sololá	702	San José Chacayá	5	Chacayá	1	Enero	2023-01-31T00:00:00	2024-11-06T16:00:00	2	Temperatura media	18.5
75962	7	Sololá	702	San José Chacayá	5	Chacayá	1	Enero	2023-01-31T00:00:00	2024-11-06T16:00:00	4	Temperatura máxima	21
75963	7	Sololá	702	San José Chacayá	5	Chacayá	1	Enero	2023-01-31T00:00:00	2024-11-06T16:00:00	3	Temperatura mínima	18.5
75964	7	Sololá	702	San José Chacayá	5	Chacayá	1	Enero	2023-01-31T00:00:00	2024-11-06T16:00:00	5	Humedad	68
75965	7	Sololá	702	San José Chacayá	5	Chacayá	1	Enero	2023-01-31T00:00:00	2024-11-06T16:00:00	6	Velocidad del viento	3.2
75966	7	Sololá	702	San José Chacayá	5	Chacayá	1	Enero	2023-01-31T00:00:00	2024-11-06T16:00:00	7	Dirección del viento	3.22
75967	7	Sololá	702	San José Chacayá	5	Chacayá	1	Enero	2023-01-31T00:00:00	2024-11-06T16:00:00	1	Precipitación	0
75968	7	Sololá	702	San José Chacayá	5	Chacayá	1	Enero	2023-01-31T00:00:00	2024-11-06T16:00:00	8	Radiación solar	197
75969	7	Sololá	702	San José Chacayá	5	Chacayá	1	Enero	2023-01-31T00:00:00	2024-11-06T17:00:00	2	Temperatura media	15.7
75970	7	Sololá	702	San José Chacayá	5	Chacayá	1	Enero	2023-01-31T00:00:00	2024-11-06T17:00:00	4	Temperatura máxima	18.5
75971	7	Sololá	702	San José Chacayá	5	Chacayá	1	Enero	2023-01-31T00:00:00	2024-11-06T17:00:00	3	Temperatura mínima	15.7
75972	7	Sololá	702	San José Chacayá	5	Chacayá	1	Enero	2023-01-31T00:00:00	2024-11-06T17:00:00	5	Humedad	54
75973	7	Sololá	702	San José Chacayá	5	Chacayá	1	Enero	2023-01-31T00:00:00	2024-11-06T17:00:00	6	Velocidad del viento	1.6
75974	7	Sololá	702	San José Chacayá	5	Chacayá	1	Enero	2023-01-31T00:00:00	2024-11-06T17:00:00	7	Dirección del viento	1.61
75975	7	Sololá	702	San José Chacayá	5	Chacayá	1	Enero	2023-01-31T00:00:00	2024-11-06T17:00:00	1	Precipitación	0
75976	7	Sololá	702	San José Chacayá	5	Chacayá	1	Enero	2023-01-31T00:00:00	2024-11-06T17:00:00	8	Radiación solar	84
75977	7	Sololá	702	San José Chacayá	5	Chacayá	1	Enero	2023-01-31T00:00:00	2024-11-06T18:00:00	2	Temperatura media	14.6
75978	7	Sololá	702	San José Chacayá	5	Chacayá	1	Enero	2023-01-31T00:00:00	2024-11-06T18:00:00	4	Temperatura máxima	15.7
75979	7	Sololá	702	San José Chacayá	5	Chacayá	1	Enero	2023-01-31T00:00:00	2024-11-06T18:00:00	3	Temperatura mínima	14.6
75980	7	Sololá	702	San José Chacayá	5	Chacayá	1	Enero	2023-01-31T00:00:00	2024-11-06T18:00:00	5	Humedad	62
75981	7	Sololá	702	San José Chacayá	5	Chacayá	1	Enero	2023-01-31T00:00:00	2024-11-06T18:00:00	6	Velocidad del viento	3.2
75982	7	Sololá	702	San José Chacayá	5	Chacayá	1	Enero	2023-01-31T00:00:00	2024-11-06T18:00:00	7	Dirección del viento	3.22
75983	7	Sololá	702	San José Chacayá	5	Chacayá	1	Enero	2023-01-31T00:00:00	2024-11-06T18:00:00	1	Precipitación	0
75984	7	Sololá	702	San José Chacayá	5	Chacayá	1	Enero	2023-01-31T00:00:00	2024-11-06T18:00:00	8	Radiación solar	12
75985	7	Sololá	702	San José Chacayá	5	Chacayá	1	Enero	2023-01-31T00:00:00	2024-11-06T19:00:00	2	Temperatura media	11.7
75986	7	Sololá	702	San José Chacayá	5	Chacayá	1	Enero	2023-01-31T00:00:00	2024-11-06T19:00:00	4	Temperatura máxima	14.6
75987	7	Sololá	702	San José Chacayá	5	Chacayá	1	Enero	2023-01-31T00:00:00	2024-11-06T19:00:00	3	Temperatura mínima	11.7
75988	7	Sololá	702	San José Chacayá	5	Chacayá	1	Enero	2023-01-31T00:00:00	2024-11-06T19:00:00	5	Humedad	68
75989	7	Sololá	702	San José Chacayá	5	Chacayá	1	Enero	2023-01-31T00:00:00	2024-11-06T19:00:00	6	Velocidad del viento	1.6
75990	7	Sololá	702	San José Chacayá	5	Chacayá	1	Enero	2023-01-31T00:00:00	2024-11-06T19:00:00	7	Dirección del viento	1.61
75991	7	Sololá	702	San José Chacayá	5	Chacayá	1	Enero	2023-01-31T00:00:00	2024-11-06T19:00:00	1	Precipitación	0
75992	7	Sololá	702	San José Chacayá	5	Chacayá	1	Enero	2023-01-31T00:00:00	2024-11-06T19:00:00	8	Radiación solar	0
75993	7	Sololá	702	San José Chacayá	5	Chacayá	1	Enero	2023-01-31T00:00:00	2024-11-06T20:00:00	2	Temperatura media	8.9
75994	7	Sololá	702	San José Chacayá	5	Chacayá	1	Enero	2023-01-31T00:00:00	2024-11-06T20:00:00	4	Temperatura máxima	11.7
75995	7	Sololá	702	San José Chacayá	5	Chacayá	1	Enero	2023-01-31T00:00:00	2024-11-06T20:00:00	3	Temperatura mínima	8.9
75996	7	Sololá	702	San José Chacayá	5	Chacayá	1	Enero	2023-01-31T00:00:00	2024-11-06T20:00:00	5	Humedad	76
75997	7	Sololá	702	San José Chacayá	5	Chacayá	1	Enero	2023-01-31T00:00:00	2024-11-06T20:00:00	6	Velocidad del viento	1.6
75998	7	Sololá	702	San José Chacayá	5	Chacayá	1	Enero	2023-01-31T00:00:00	2024-11-06T20:00:00	7	Dirección del viento	1.61
75999	7	Sololá	702	San José Chacayá	5	Chacayá	1	Enero	2023-01-31T00:00:00	2024-11-06T20:00:00	1	Precipitación	0
76000	7	Sololá	702	San José Chacayá	5	Chacayá	1	Enero	2023-01-31T00:00:00	2024-11-06T20:00:00	8	Radiación solar	0
76001	7	Sololá	702	San José Chacayá	5	Chacayá	1	Enero	2023-01-31T00:00:00	2024-11-06T21:00:00	2	Temperatura media	7.8
76002	7	Sololá	702	San José Chacayá	5	Chacayá	1	Enero	2023-01-31T00:00:00	2024-11-06T21:00:00	4	Temperatura máxima	8.9
76003	7	Sololá	702	San José Chacayá	5	Chacayá	1	Enero	2023-01-31T00:00:00	2024-11-06T21:00:00	3	Temperatura mínima	7.8
76004	7	Sololá	702	San José Chacayá	5	Chacayá	1	Enero	2023-01-31T00:00:00	2024-11-06T21:00:00	5	Humedad	81
76005	7	Sololá	702	San José Chacayá	5	Chacayá	1	Enero	2023-01-31T00:00:00	2024-11-06T21:00:00	6	Velocidad del viento	1.6
76006	7	Sololá	702	San José Chacayá	5	Chacayá	1	Enero	2023-01-31T00:00:00	2024-11-06T21:00:00	7	Dirección del viento	1.61
76007	7	Sololá	702	San José Chacayá	5	Chacayá	1	Enero	2023-01-31T00:00:00	2024-11-06T21:00:00	1	Precipitación	0
76008	7	Sololá	702	San José Chacayá	5	Chacayá	1	Enero	2023-01-31T00:00:00	2024-11-06T21:00:00	8	Radiación solar	0
76009	7	Sololá	702	San José Chacayá	5	Chacayá	1	Enero	2023-01-31T00:00:00	2024-11-06T22:00:00	2	Temperatura media	7.9
76010	7	Sololá	702	San José Chacayá	5	Chacayá	1	Enero	2023-01-31T00:00:00	2024-11-06T22:00:00	4	Temperatura máxima	7.9
76011	7	Sololá	702	San José Chacayá	5	Chacayá	1	Enero	2023-01-31T00:00:00	2024-11-06T22:00:00	3	Temperatura mínima	7.7
76012	7	Sololá	702	San José Chacayá	5	Chacayá	1	Enero	2023-01-31T00:00:00	2024-11-06T22:00:00	5	Humedad	80
76013	7	Sololá	702	San José Chacayá	5	Chacayá	1	Enero	2023-01-31T00:00:00	2024-11-06T22:00:00	6	Velocidad del viento	3.2
76014	7	Sololá	702	San José Chacayá	5	Chacayá	1	Enero	2023-01-31T00:00:00	2024-11-06T22:00:00	7	Dirección del viento	3.22
76015	7	Sololá	702	San José Chacayá	5	Chacayá	1	Enero	2023-01-31T00:00:00	2024-11-06T22:00:00	1	Precipitación	0
76016	7	Sololá	702	San José Chacayá	5	Chacayá	1	Enero	2023-01-31T00:00:00	2024-11-06T22:00:00	8	Radiación solar	0
76017	7	Sololá	702	San José Chacayá	5	Chacayá	1	Enero	2023-01-31T00:00:00	2024-11-06T23:00:00	2	Temperatura media	6.6
76018	7	Sololá	702	San José Chacayá	5	Chacayá	1	Enero	2023-01-31T00:00:00	2024-11-06T23:00:00	4	Temperatura máxima	7.9
76019	7	Sololá	702	San José Chacayá	5	Chacayá	1	Enero	2023-01-31T00:00:00	2024-11-06T23:00:00	3	Temperatura mínima	6.6
76020	7	Sololá	702	San José Chacayá	5	Chacayá	1	Enero	2023-01-31T00:00:00	2024-11-06T23:00:00	5	Humedad	82
76021	7	Sololá	702	San José Chacayá	5	Chacayá	1	Enero	2023-01-31T00:00:00	2024-11-06T23:00:00	6	Velocidad del viento	1.6
76022	7	Sololá	702	San José Chacayá	5	Chacayá	1	Enero	2023-01-31T00:00:00	2024-11-06T23:00:00	7	Dirección del viento	1.61
76023	7	Sololá	702	San José Chacayá	5	Chacayá	1	Enero	2023-01-31T00:00:00	2024-11-06T23:00:00	1	Precipitación	0
76024	7	Sololá	702	San José Chacayá	5	Chacayá	1	Enero	2023-01-31T00:00:00	2024-11-06T23:00:00	8	Radiación solar	0
76025	7	Sololá	702	San José Chacayá	5	Chacayá	2	Febrero	2023-01-02T00:00:00	2024-11-06T00:00:00	2	Temperatura media	5.7
76026	7	Sololá	702	San José Chacayá	5	Chacayá	2	Febrero	2023-01-02T00:00:00	2024-11-06T00:00:00	4	Temperatura máxima	6.6
76027	7	Sololá	702	San José Chacayá	5	Chacayá	2	Febrero	2023-01-02T00:00:00	2024-11-06T00:00:00	3	Temperatura mínima	5.7
76028	7	Sololá	702	San José Chacayá	5	Chacayá	2	Febrero	2023-01-02T00:00:00	2024-11-06T00:00:00	5	Humedad	83
76029	7	Sololá	702	San José Chacayá	5	Chacayá	2	Febrero	2023-01-02T00:00:00	2024-11-06T00:00:00	6	Velocidad del viento	1.6
76030	7	Sololá	702	San José Chacayá	5	Chacayá	2	Febrero	2023-01-02T00:00:00	2024-11-06T00:00:00	7	Dirección del viento	1.61
76031	7	Sololá	702	San José Chacayá	5	Chacayá	2	Febrero	2023-01-02T00:00:00	2024-11-06T00:00:00	1	Precipitación	0
76032	7	Sololá	702	San José Chacayá	5	Chacayá	2	Febrero	2023-01-02T00:00:00	2024-11-06T00:00:00	8	Radiación solar	0
76033	7	Sololá	702	San José Chacayá	5	Chacayá	2	Febrero	2023-01-02T00:00:00	2024-11-06T01:00:00	2	Temperatura media	5.2
76034	7	Sololá	702	San José Chacayá	5	Chacayá	2	Febrero	2023-01-02T00:00:00	2024-11-06T01:00:00	4	Temperatura máxima	5.7
76035	7	Sololá	702	San José Chacayá	5	Chacayá	2	Febrero	2023-01-02T00:00:00	2024-11-06T01:00:00	3	Temperatura mínima	5.1
76036	7	Sololá	702	San José Chacayá	5	Chacayá	2	Febrero	2023-01-02T00:00:00	2024-11-06T01:00:00	5	Humedad	81
76037	7	Sololá	702	San José Chacayá	5	Chacayá	2	Febrero	2023-01-02T00:00:00	2024-11-06T01:00:00	6	Velocidad del viento	3.2
76038	7	Sololá	702	San José Chacayá	5	Chacayá	2	Febrero	2023-01-02T00:00:00	2024-11-06T01:00:00	7	Dirección del viento	3.22
76039	7	Sololá	702	San José Chacayá	5	Chacayá	2	Febrero	2023-01-02T00:00:00	2024-11-06T01:00:00	1	Precipitación	0
76040	7	Sololá	702	San José Chacayá	5	Chacayá	2	Febrero	2023-01-02T00:00:00	2024-11-06T01:00:00	8	Radiación solar	0
76041	7	Sololá	702	San José Chacayá	5	Chacayá	2	Febrero	2023-01-02T00:00:00	2024-11-06T02:00:00	2	Temperatura media	4.8
76042	7	Sololá	702	San José Chacayá	5	Chacayá	2	Febrero	2023-01-02T00:00:00	2024-11-06T02:00:00	4	Temperatura máxima	5.3
76043	7	Sololá	702	San José Chacayá	5	Chacayá	2	Febrero	2023-01-02T00:00:00	2024-11-06T02:00:00	3	Temperatura mínima	4.8
76044	7	Sololá	702	San José Chacayá	5	Chacayá	2	Febrero	2023-01-02T00:00:00	2024-11-06T02:00:00	5	Humedad	82
76045	7	Sololá	702	San José Chacayá	5	Chacayá	2	Febrero	2023-01-02T00:00:00	2024-11-06T02:00:00	6	Velocidad del viento	3.2
76046	7	Sololá	702	San José Chacayá	5	Chacayá	2	Febrero	2023-01-02T00:00:00	2024-11-06T02:00:00	7	Dirección del viento	3.22
76047	7	Sololá	702	San José Chacayá	5	Chacayá	2	Febrero	2023-01-02T00:00:00	2024-11-06T02:00:00	1	Precipitación	0
76048	7	Sololá	702	San José Chacayá	5	Chacayá	2	Febrero	2023-01-02T00:00:00	2024-11-06T02:00:00	8	Radiación solar	0
76049	7	Sololá	702	San José Chacayá	5	Chacayá	2	Febrero	2023-01-02T00:00:00	2024-11-06T03:00:00	2	Temperatura media	4.4
76050	7	Sololá	702	San José Chacayá	5	Chacayá	2	Febrero	2023-01-02T00:00:00	2024-11-06T03:00:00	4	Temperatura máxima	4.9
76051	7	Sololá	702	San José Chacayá	5	Chacayá	2	Febrero	2023-01-02T00:00:00	2024-11-06T03:00:00	3	Temperatura mínima	4.4
76052	7	Sololá	702	San José Chacayá	5	Chacayá	2	Febrero	2023-01-02T00:00:00	2024-11-06T03:00:00	5	Humedad	85
76053	7	Sololá	702	San José Chacayá	5	Chacayá	2	Febrero	2023-01-02T00:00:00	2024-11-06T03:00:00	6	Velocidad del viento	3.2
76054	7	Sololá	702	San José Chacayá	5	Chacayá	2	Febrero	2023-01-02T00:00:00	2024-11-06T03:00:00	7	Dirección del viento	3.22
76055	7	Sololá	702	San José Chacayá	5	Chacayá	2	Febrero	2023-01-02T00:00:00	2024-11-06T03:00:00	1	Precipitación	0
76056	7	Sololá	702	San José Chacayá	5	Chacayá	2	Febrero	2023-01-02T00:00:00	2024-11-06T03:00:00	8	Radiación solar	0
76057	7	Sololá	702	San José Chacayá	5	Chacayá	2	Febrero	2023-01-02T00:00:00	2024-11-06T04:00:00	2	Temperatura media	4.4
76058	7	Sololá	702	San José Chacayá	5	Chacayá	2	Febrero	2023-01-02T00:00:00	2024-11-06T04:00:00	4	Temperatura máxima	4.4
76059	7	Sololá	702	San José Chacayá	5	Chacayá	2	Febrero	2023-01-02T00:00:00	2024-11-06T04:00:00	3	Temperatura mínima	4.2
76060	7	Sololá	702	San José Chacayá	5	Chacayá	2	Febrero	2023-01-02T00:00:00	2024-11-06T04:00:00	5	Humedad	85
76061	7	Sololá	702	San José Chacayá	5	Chacayá	2	Febrero	2023-01-02T00:00:00	2024-11-06T04:00:00	6	Velocidad del viento	3.2
76062	7	Sololá	702	San José Chacayá	5	Chacayá	2	Febrero	2023-01-02T00:00:00	2024-11-06T04:00:00	7	Dirección del viento	3.22
76063	7	Sololá	702	San José Chacayá	5	Chacayá	2	Febrero	2023-01-02T00:00:00	2024-11-06T04:00:00	1	Precipitación	0
76064	7	Sololá	702	San José Chacayá	5	Chacayá	2	Febrero	2023-01-02T00:00:00	2024-11-06T04:00:00	8	Radiación solar	0
76065	7	Sololá	702	San José Chacayá	5	Chacayá	2	Febrero	2023-01-02T00:00:00	2024-11-06T05:00:00	2	Temperatura media	4.1
76066	7	Sololá	702	San José Chacayá	5	Chacayá	2	Febrero	2023-01-02T00:00:00	2024-11-06T05:00:00	4	Temperatura máxima	4.4
76067	7	Sololá	702	San José Chacayá	5	Chacayá	2	Febrero	2023-01-02T00:00:00	2024-11-06T05:00:00	3	Temperatura mínima	4
76068	7	Sololá	702	San José Chacayá	5	Chacayá	2	Febrero	2023-01-02T00:00:00	2024-11-06T05:00:00	5	Humedad	86
76069	7	Sololá	702	San José Chacayá	5	Chacayá	2	Febrero	2023-01-02T00:00:00	2024-11-06T05:00:00	6	Velocidad del viento	1.6
76070	7	Sololá	702	San José Chacayá	5	Chacayá	2	Febrero	2023-01-02T00:00:00	2024-11-06T05:00:00	7	Dirección del viento	1.61
76071	7	Sololá	702	San José Chacayá	5	Chacayá	2	Febrero	2023-01-02T00:00:00	2024-11-06T05:00:00	1	Precipitación	0
76072	7	Sololá	702	San José Chacayá	5	Chacayá	2	Febrero	2023-01-02T00:00:00	2024-11-06T05:00:00	8	Radiación solar	0
76073	7	Sololá	702	San José Chacayá	5	Chacayá	2	Febrero	2023-01-02T00:00:00	2024-11-06T06:00:00	2	Temperatura media	5.2
76074	7	Sololá	702	San José Chacayá	5	Chacayá	2	Febrero	2023-01-02T00:00:00	2024-11-06T06:00:00	4	Temperatura máxima	5.2
76075	7	Sololá	702	San José Chacayá	5	Chacayá	2	Febrero	2023-01-02T00:00:00	2024-11-06T06:00:00	3	Temperatura mínima	3.9
76076	7	Sololá	702	San José Chacayá	5	Chacayá	2	Febrero	2023-01-02T00:00:00	2024-11-06T06:00:00	5	Humedad	84
76077	7	Sololá	702	San José Chacayá	5	Chacayá	2	Febrero	2023-01-02T00:00:00	2024-11-06T06:00:00	6	Velocidad del viento	3.2
76078	7	Sololá	702	San José Chacayá	5	Chacayá	2	Febrero	2023-01-02T00:00:00	2024-11-06T06:00:00	7	Dirección del viento	3.22
76079	7	Sololá	702	San José Chacayá	5	Chacayá	2	Febrero	2023-01-02T00:00:00	2024-11-06T06:00:00	1	Precipitación	0
76080	7	Sololá	702	San José Chacayá	5	Chacayá	2	Febrero	2023-01-02T00:00:00	2024-11-06T06:00:00	8	Radiación solar	0
76081	7	Sololá	702	San José Chacayá	5	Chacayá	2	Febrero	2023-01-02T00:00:00	2024-11-06T07:00:00	2	Temperatura media	11.2
76082	7	Sololá	702	San José Chacayá	5	Chacayá	2	Febrero	2023-01-02T00:00:00	2024-11-06T07:00:00	4	Temperatura máxima	11.2
76083	7	Sololá	702	San José Chacayá	5	Chacayá	2	Febrero	2023-01-02T00:00:00	2024-11-06T07:00:00	3	Temperatura mínima	5.2
76084	7	Sololá	702	San José Chacayá	5	Chacayá	2	Febrero	2023-01-02T00:00:00	2024-11-06T07:00:00	5	Humedad	73
76085	7	Sololá	702	San José Chacayá	5	Chacayá	2	Febrero	2023-01-02T00:00:00	2024-11-06T07:00:00	6	Velocidad del viento	3.2
76086	7	Sololá	702	San José Chacayá	5	Chacayá	2	Febrero	2023-01-02T00:00:00	2024-11-06T07:00:00	7	Dirección del viento	3.22
76087	7	Sololá	702	San José Chacayá	5	Chacayá	2	Febrero	2023-01-02T00:00:00	2024-11-06T07:00:00	1	Precipitación	0
76088	7	Sololá	702	San José Chacayá	5	Chacayá	2	Febrero	2023-01-02T00:00:00	2024-11-06T07:00:00	8	Radiación solar	7
76089	7	Sololá	702	San José Chacayá	5	Chacayá	2	Febrero	2023-01-02T00:00:00	2024-11-06T08:00:00	2	Temperatura media	18.3
76090	7	Sololá	702	San José Chacayá	5	Chacayá	2	Febrero	2023-01-02T00:00:00	2024-11-06T08:00:00	4	Temperatura máxima	18.3
76091	7	Sololá	702	San José Chacayá	5	Chacayá	2	Febrero	2023-01-02T00:00:00	2024-11-06T08:00:00	3	Temperatura mínima	11.2
76092	7	Sololá	702	San José Chacayá	5	Chacayá	2	Febrero	2023-01-02T00:00:00	2024-11-06T08:00:00	5	Humedad	54
76093	7	Sololá	702	San José Chacayá	5	Chacayá	2	Febrero	2023-01-02T00:00:00	2024-11-06T08:00:00	6	Velocidad del viento	1.6
76094	7	Sololá	702	San José Chacayá	5	Chacayá	2	Febrero	2023-01-02T00:00:00	2024-11-06T08:00:00	7	Dirección del viento	1.61
76095	7	Sololá	702	San José Chacayá	5	Chacayá	2	Febrero	2023-01-02T00:00:00	2024-11-06T08:00:00	1	Precipitación	0
76096	7	Sololá	702	San José Chacayá	5	Chacayá	2	Febrero	2023-01-02T00:00:00	2024-11-06T08:00:00	8	Radiación solar	156
76097	7	Sololá	702	San José Chacayá	5	Chacayá	2	Febrero	2023-01-02T00:00:00	2024-11-06T09:00:00	2	Temperatura media	20.7
76098	7	Sololá	702	San José Chacayá	5	Chacayá	2	Febrero	2023-01-02T00:00:00	2024-11-06T09:00:00	4	Temperatura máxima	20.7
76099	7	Sololá	702	San José Chacayá	5	Chacayá	2	Febrero	2023-01-02T00:00:00	2024-11-06T09:00:00	3	Temperatura mínima	18.4
76100	7	Sololá	702	San José Chacayá	5	Chacayá	2	Febrero	2023-01-02T00:00:00	2024-11-06T09:00:00	5	Humedad	44
76101	7	Sololá	702	San José Chacayá	5	Chacayá	2	Febrero	2023-01-02T00:00:00	2024-11-06T09:00:00	6	Velocidad del viento	3.2
76102	7	Sololá	702	San José Chacayá	5	Chacayá	2	Febrero	2023-01-02T00:00:00	2024-11-06T09:00:00	7	Dirección del viento	3.22
76103	7	Sololá	702	San José Chacayá	5	Chacayá	2	Febrero	2023-01-02T00:00:00	2024-11-06T09:00:00	1	Precipitación	0
76104	7	Sololá	702	San José Chacayá	5	Chacayá	2	Febrero	2023-01-02T00:00:00	2024-11-06T09:00:00	8	Radiación solar	425
76105	7	Sololá	702	San José Chacayá	5	Chacayá	2	Febrero	2023-01-02T00:00:00	2024-11-06T10:00:00	2	Temperatura media	22.3
76106	7	Sololá	702	San José Chacayá	5	Chacayá	2	Febrero	2023-01-02T00:00:00	2024-11-06T10:00:00	4	Temperatura máxima	22.3
76107	7	Sololá	702	San José Chacayá	5	Chacayá	2	Febrero	2023-01-02T00:00:00	2024-11-06T10:00:00	3	Temperatura mínima	20.7
76108	7	Sololá	702	San José Chacayá	5	Chacayá	2	Febrero	2023-01-02T00:00:00	2024-11-06T10:00:00	5	Humedad	46
76109	7	Sololá	702	San José Chacayá	5	Chacayá	2	Febrero	2023-01-02T00:00:00	2024-11-06T10:00:00	6	Velocidad del viento	3.2
76110	7	Sololá	702	San José Chacayá	5	Chacayá	2	Febrero	2023-01-02T00:00:00	2024-11-06T10:00:00	7	Dirección del viento	3.22
76111	7	Sololá	702	San José Chacayá	5	Chacayá	2	Febrero	2023-01-02T00:00:00	2024-11-06T10:00:00	1	Precipitación	0
76112	7	Sololá	702	San José Chacayá	5	Chacayá	2	Febrero	2023-01-02T00:00:00	2024-11-06T10:00:00	8	Radiación solar	416
76113	7	Sololá	702	San José Chacayá	5	Chacayá	2	Febrero	2023-01-02T00:00:00	2024-11-06T11:00:00	2	Temperatura media	22.7
76114	7	Sololá	702	San José Chacayá	5	Chacayá	2	Febrero	2023-01-02T00:00:00	2024-11-06T11:00:00	4	Temperatura máxima	22.7
76115	7	Sololá	702	San José Chacayá	5	Chacayá	2	Febrero	2023-01-02T00:00:00	2024-11-06T11:00:00	3	Temperatura mínima	21.4
76116	7	Sololá	702	San José Chacayá	5	Chacayá	2	Febrero	2023-01-02T00:00:00	2024-11-06T11:00:00	5	Humedad	41
76117	7	Sololá	702	San José Chacayá	5	Chacayá	2	Febrero	2023-01-02T00:00:00	2024-11-06T11:00:00	6	Velocidad del viento	4.8
76118	7	Sololá	702	San José Chacayá	5	Chacayá	2	Febrero	2023-01-02T00:00:00	2024-11-06T11:00:00	7	Dirección del viento	4.83
76119	7	Sololá	702	San José Chacayá	5	Chacayá	2	Febrero	2023-01-02T00:00:00	2024-11-06T11:00:00	1	Precipitación	0
76120	7	Sololá	702	San José Chacayá	5	Chacayá	2	Febrero	2023-01-02T00:00:00	2024-11-06T11:00:00	8	Radiación solar	55
76121	7	Sololá	702	San José Chacayá	5	Chacayá	2	Febrero	2023-01-02T00:00:00	2024-11-06T12:00:00	2	Temperatura media	24.1
76122	7	Sololá	702	San José Chacayá	5	Chacayá	2	Febrero	2023-01-02T00:00:00	2024-11-06T12:00:00	4	Temperatura máxima	24.1
76123	7	Sololá	702	San José Chacayá	5	Chacayá	2	Febrero	2023-01-02T00:00:00	2024-11-06T12:00:00	3	Temperatura mínima	22.6
76124	7	Sololá	702	San José Chacayá	5	Chacayá	2	Febrero	2023-01-02T00:00:00	2024-11-06T12:00:00	5	Humedad	35
76125	7	Sololá	702	San José Chacayá	5	Chacayá	2	Febrero	2023-01-02T00:00:00	2024-11-06T12:00:00	6	Velocidad del viento	4.8
76126	7	Sololá	702	San José Chacayá	5	Chacayá	2	Febrero	2023-01-02T00:00:00	2024-11-06T12:00:00	7	Dirección del viento	4.83
76127	7	Sololá	702	San José Chacayá	5	Chacayá	2	Febrero	2023-01-02T00:00:00	2024-11-06T12:00:00	1	Precipitación	0
76128	7	Sololá	702	San José Chacayá	5	Chacayá	2	Febrero	2023-01-02T00:00:00	2024-11-06T12:00:00	8	Radiación solar	517
76129	7	Sololá	702	San José Chacayá	5	Chacayá	2	Febrero	2023-01-02T00:00:00	2024-11-06T13:00:00	2	Temperatura media	23.3
76130	7	Sololá	702	San José Chacayá	5	Chacayá	2	Febrero	2023-01-02T00:00:00	2024-11-06T13:00:00	4	Temperatura máxima	24.1
76131	7	Sololá	702	San José Chacayá	5	Chacayá	2	Febrero	2023-01-02T00:00:00	2024-11-06T13:00:00	3	Temperatura mínima	22.9
76132	7	Sololá	702	San José Chacayá	5	Chacayá	2	Febrero	2023-01-02T00:00:00	2024-11-06T13:00:00	5	Humedad	41
76133	7	Sololá	702	San José Chacayá	5	Chacayá	2	Febrero	2023-01-02T00:00:00	2024-11-06T13:00:00	6	Velocidad del viento	6.4
76134	7	Sololá	702	San José Chacayá	5	Chacayá	2	Febrero	2023-01-02T00:00:00	2024-11-06T13:00:00	7	Dirección del viento	6.44
76135	7	Sololá	702	San José Chacayá	5	Chacayá	2	Febrero	2023-01-02T00:00:00	2024-11-06T13:00:00	1	Precipitación	0
76136	7	Sololá	702	San José Chacayá	5	Chacayá	2	Febrero	2023-01-02T00:00:00	2024-11-06T13:00:00	8	Radiación solar	900
76137	7	Sololá	702	San José Chacayá	5	Chacayá	2	Febrero	2023-01-02T00:00:00	2024-11-06T14:00:00	2	Temperatura media	22.2
76138	7	Sololá	702	San José Chacayá	5	Chacayá	2	Febrero	2023-01-02T00:00:00	2024-11-06T14:00:00	4	Temperatura máxima	23.5
76139	7	Sololá	702	San José Chacayá	5	Chacayá	2	Febrero	2023-01-02T00:00:00	2024-11-06T14:00:00	3	Temperatura mínima	22.1
76140	7	Sololá	702	San José Chacayá	5	Chacayá	2	Febrero	2023-01-02T00:00:00	2024-11-06T14:00:00	5	Humedad	58
76141	7	Sololá	702	San José Chacayá	5	Chacayá	2	Febrero	2023-01-02T00:00:00	2024-11-06T14:00:00	6	Velocidad del viento	6.4
76142	7	Sololá	702	San José Chacayá	5	Chacayá	2	Febrero	2023-01-02T00:00:00	2024-11-06T14:00:00	7	Dirección del viento	6.44
76143	7	Sololá	702	San José Chacayá	5	Chacayá	2	Febrero	2023-01-02T00:00:00	2024-11-06T14:00:00	1	Precipitación	0
76144	7	Sololá	702	San José Chacayá	5	Chacayá	2	Febrero	2023-01-02T00:00:00	2024-11-06T14:00:00	8	Radiación solar	839
76145	7	Sololá	702	San José Chacayá	5	Chacayá	2	Febrero	2023-01-02T00:00:00	2024-11-06T15:00:00	2	Temperatura media	20.7
76146	7	Sololá	702	San José Chacayá	5	Chacayá	2	Febrero	2023-01-02T00:00:00	2024-11-06T15:00:00	4	Temperatura máxima	22.2
76147	7	Sololá	702	San José Chacayá	5	Chacayá	2	Febrero	2023-01-02T00:00:00	2024-11-06T15:00:00	3	Temperatura mínima	20.7
76148	7	Sololá	702	San José Chacayá	5	Chacayá	2	Febrero	2023-01-02T00:00:00	2024-11-06T15:00:00	5	Humedad	65
76149	7	Sololá	702	San José Chacayá	5	Chacayá	2	Febrero	2023-01-02T00:00:00	2024-11-06T15:00:00	6	Velocidad del viento	4.8
76150	7	Sololá	702	San José Chacayá	5	Chacayá	2	Febrero	2023-01-02T00:00:00	2024-11-06T15:00:00	7	Dirección del viento	4.83
76151	7	Sololá	702	San José Chacayá	5	Chacayá	2	Febrero	2023-01-02T00:00:00	2024-11-06T15:00:00	1	Precipitación	0
76152	7	Sololá	702	San José Chacayá	5	Chacayá	2	Febrero	2023-01-02T00:00:00	2024-11-06T15:00:00	8	Radiación solar	689
76153	7	Sololá	702	San José Chacayá	5	Chacayá	2	Febrero	2023-01-02T00:00:00	2024-11-06T16:00:00	2	Temperatura media	18.1
76154	7	Sololá	702	San José Chacayá	5	Chacayá	2	Febrero	2023-01-02T00:00:00	2024-11-06T16:00:00	4	Temperatura máxima	20.7
76155	7	Sololá	702	San José Chacayá	5	Chacayá	2	Febrero	2023-01-02T00:00:00	2024-11-06T16:00:00	3	Temperatura mínima	18.1
76156	7	Sololá	702	San José Chacayá	5	Chacayá	2	Febrero	2023-01-02T00:00:00	2024-11-06T16:00:00	5	Humedad	75
76157	7	Sololá	702	San José Chacayá	5	Chacayá	2	Febrero	2023-01-02T00:00:00	2024-11-06T16:00:00	6	Velocidad del viento	3.2
76158	7	Sololá	702	San José Chacayá	5	Chacayá	2	Febrero	2023-01-02T00:00:00	2024-11-06T16:00:00	7	Dirección del viento	3.22
76159	7	Sololá	702	San José Chacayá	5	Chacayá	2	Febrero	2023-01-02T00:00:00	2024-11-06T16:00:00	1	Precipitación	0
76160	7	Sololá	702	San José Chacayá	5	Chacayá	2	Febrero	2023-01-02T00:00:00	2024-11-06T16:00:00	8	Radiación solar	378
76161	7	Sololá	702	San José Chacayá	5	Chacayá	2	Febrero	2023-01-02T00:00:00	2024-11-06T17:00:00	2	Temperatura media	15.2
76162	7	Sololá	702	San José Chacayá	5	Chacayá	2	Febrero	2023-01-02T00:00:00	2024-11-06T17:00:00	4	Temperatura máxima	18.1
76163	7	Sololá	702	San José Chacayá	5	Chacayá	2	Febrero	2023-01-02T00:00:00	2024-11-06T17:00:00	3	Temperatura mínima	15.2
76164	7	Sololá	702	San José Chacayá	5	Chacayá	2	Febrero	2023-01-02T00:00:00	2024-11-06T17:00:00	5	Humedad	85
76165	7	Sololá	702	San José Chacayá	5	Chacayá	2	Febrero	2023-01-02T00:00:00	2024-11-06T17:00:00	6	Velocidad del viento	1.6
76166	7	Sololá	702	San José Chacayá	5	Chacayá	2	Febrero	2023-01-02T00:00:00	2024-11-06T17:00:00	7	Dirección del viento	1.61
76167	7	Sololá	702	San José Chacayá	5	Chacayá	2	Febrero	2023-01-02T00:00:00	2024-11-06T17:00:00	1	Precipitación	0
76168	7	Sololá	702	San José Chacayá	5	Chacayá	2	Febrero	2023-01-02T00:00:00	2024-11-06T17:00:00	8	Radiación solar	234
76169	7	Sololá	702	San José Chacayá	5	Chacayá	2	Febrero	2023-01-02T00:00:00	2024-11-06T18:00:00	2	Temperatura media	13.8
76170	7	Sololá	702	San José Chacayá	5	Chacayá	2	Febrero	2023-01-02T00:00:00	2024-11-06T18:00:00	4	Temperatura máxima	15.2
76171	7	Sololá	702	San José Chacayá	5	Chacayá	2	Febrero	2023-01-02T00:00:00	2024-11-06T18:00:00	3	Temperatura mínima	13.8
76172	7	Sololá	702	San José Chacayá	5	Chacayá	2	Febrero	2023-01-02T00:00:00	2024-11-06T18:00:00	5	Humedad	78
76173	7	Sololá	702	San José Chacayá	5	Chacayá	2	Febrero	2023-01-02T00:00:00	2024-11-06T18:00:00	6	Velocidad del viento	1.6
76174	7	Sololá	702	San José Chacayá	5	Chacayá	2	Febrero	2023-01-02T00:00:00	2024-11-06T18:00:00	7	Dirección del viento	1.61
76175	7	Sololá	702	San José Chacayá	5	Chacayá	2	Febrero	2023-01-02T00:00:00	2024-11-06T18:00:00	1	Precipitación	0
76176	7	Sololá	702	San José Chacayá	5	Chacayá	2	Febrero	2023-01-02T00:00:00	2024-11-06T18:00:00	8	Radiación solar	49
76177	7	Sololá	702	San José Chacayá	5	Chacayá	2	Febrero	2023-01-02T00:00:00	2024-11-06T19:00:00	2	Temperatura media	13.9
76178	7	Sololá	702	San José Chacayá	5	Chacayá	2	Febrero	2023-01-02T00:00:00	2024-11-06T19:00:00	4	Temperatura máxima	14.1
76179	7	Sololá	702	San José Chacayá	5	Chacayá	2	Febrero	2023-01-02T00:00:00	2024-11-06T19:00:00	3	Temperatura mínima	13.8
76180	7	Sololá	702	San José Chacayá	5	Chacayá	2	Febrero	2023-01-02T00:00:00	2024-11-06T19:00:00	5	Humedad	74
76181	7	Sololá	702	San José Chacayá	5	Chacayá	2	Febrero	2023-01-02T00:00:00	2024-11-06T19:00:00	6	Velocidad del viento	4.8
76182	7	Sololá	702	San José Chacayá	5	Chacayá	2	Febrero	2023-01-02T00:00:00	2024-11-06T19:00:00	7	Dirección del viento	4.83
76183	7	Sololá	702	San José Chacayá	5	Chacayá	2	Febrero	2023-01-02T00:00:00	2024-11-06T19:00:00	1	Precipitación	0
76184	7	Sololá	702	San José Chacayá	5	Chacayá	2	Febrero	2023-01-02T00:00:00	2024-11-06T19:00:00	8	Radiación solar	0
76185	7	Sololá	702	San José Chacayá	5	Chacayá	2	Febrero	2023-01-02T00:00:00	2024-11-06T20:00:00	2	Temperatura media	11.6
76186	7	Sololá	702	San José Chacayá	5	Chacayá	2	Febrero	2023-01-02T00:00:00	2024-11-06T20:00:00	4	Temperatura máxima	13.9
76187	7	Sololá	702	San José Chacayá	5	Chacayá	2	Febrero	2023-01-02T00:00:00	2024-11-06T20:00:00	3	Temperatura mínima	11.6
76188	7	Sololá	702	San José Chacayá	5	Chacayá	2	Febrero	2023-01-02T00:00:00	2024-11-06T20:00:00	5	Humedad	78
76189	7	Sololá	702	San José Chacayá	5	Chacayá	2	Febrero	2023-01-02T00:00:00	2024-11-06T20:00:00	6	Velocidad del viento	4.8
76190	7	Sololá	702	San José Chacayá	5	Chacayá	2	Febrero	2023-01-02T00:00:00	2024-11-06T20:00:00	7	Dirección del viento	4.83
76191	7	Sololá	702	San José Chacayá	5	Chacayá	2	Febrero	2023-01-02T00:00:00	2024-11-06T20:00:00	1	Precipitación	0
76192	7	Sololá	702	San José Chacayá	5	Chacayá	2	Febrero	2023-01-02T00:00:00	2024-11-06T20:00:00	8	Radiación solar	0
76193	7	Sololá	702	San José Chacayá	5	Chacayá	2	Febrero	2023-01-02T00:00:00	2024-11-06T21:00:00	2	Temperatura media	8.7
76194	7	Sololá	702	San José Chacayá	5	Chacayá	2	Febrero	2023-01-02T00:00:00	2024-11-06T21:00:00	4	Temperatura máxima	11.6
76195	7	Sololá	702	San José Chacayá	5	Chacayá	2	Febrero	2023-01-02T00:00:00	2024-11-06T21:00:00	3	Temperatura mínima	8.7
76196	7	Sololá	702	San José Chacayá	5	Chacayá	2	Febrero	2023-01-02T00:00:00	2024-11-06T21:00:00	5	Humedad	84
76197	7	Sololá	702	San José Chacayá	5	Chacayá	2	Febrero	2023-01-02T00:00:00	2024-11-06T21:00:00	6	Velocidad del viento	1.6
76198	7	Sololá	702	San José Chacayá	5	Chacayá	2	Febrero	2023-01-02T00:00:00	2024-11-06T21:00:00	7	Dirección del viento	1.61
76199	7	Sololá	702	San José Chacayá	5	Chacayá	2	Febrero	2023-01-02T00:00:00	2024-11-06T21:00:00	1	Precipitación	0
76200	7	Sololá	702	San José Chacayá	5	Chacayá	2	Febrero	2023-01-02T00:00:00	2024-11-06T21:00:00	8	Radiación solar	0
76201	7	Sololá	702	San José Chacayá	5	Chacayá	2	Febrero	2023-01-02T00:00:00	2024-11-06T22:00:00	2	Temperatura media	7.2
76202	7	Sololá	702	San José Chacayá	5	Chacayá	2	Febrero	2023-01-02T00:00:00	2024-11-06T22:00:00	4	Temperatura máxima	8.7
76203	7	Sololá	702	San José Chacayá	5	Chacayá	2	Febrero	2023-01-02T00:00:00	2024-11-06T22:00:00	3	Temperatura mínima	7.2
76204	7	Sololá	702	San José Chacayá	5	Chacayá	2	Febrero	2023-01-02T00:00:00	2024-11-06T22:00:00	5	Humedad	85
76205	7	Sololá	702	San José Chacayá	5	Chacayá	2	Febrero	2023-01-02T00:00:00	2024-11-06T22:00:00	6	Velocidad del viento	1.6
76206	7	Sololá	702	San José Chacayá	5	Chacayá	2	Febrero	2023-01-02T00:00:00	2024-11-06T22:00:00	7	Dirección del viento	1.61
76207	7	Sololá	702	San José Chacayá	5	Chacayá	2	Febrero	2023-01-02T00:00:00	2024-11-06T22:00:00	1	Precipitación	0
76208	7	Sololá	702	San José Chacayá	5	Chacayá	2	Febrero	2023-01-02T00:00:00	2024-11-06T22:00:00	8	Radiación solar	0
76209	7	Sololá	702	San José Chacayá	5	Chacayá	2	Febrero	2023-01-02T00:00:00	2024-11-06T23:00:00	2	Temperatura media	6.1
76210	7	Sololá	702	San José Chacayá	5	Chacayá	2	Febrero	2023-01-02T00:00:00	2024-11-06T23:00:00	4	Temperatura máxima	7.2
76211	7	Sololá	702	San José Chacayá	5	Chacayá	2	Febrero	2023-01-02T00:00:00	2024-11-06T23:00:00	3	Temperatura mínima	6.1
76212	7	Sololá	702	San José Chacayá	5	Chacayá	2	Febrero	2023-01-02T00:00:00	2024-11-06T23:00:00	5	Humedad	84
76213	7	Sololá	702	San José Chacayá	5	Chacayá	2	Febrero	2023-01-02T00:00:00	2024-11-06T23:00:00	6	Velocidad del viento	1.6
76214	7	Sololá	702	San José Chacayá	5	Chacayá	2	Febrero	2023-01-02T00:00:00	2024-11-06T23:00:00	7	Dirección del viento	1.61
76215	7	Sololá	702	San José Chacayá	5	Chacayá	2	Febrero	2023-01-02T00:00:00	2024-11-06T23:00:00	1	Precipitación	0
76216	7	Sololá	702	San José Chacayá	5	Chacayá	2	Febrero	2023-01-02T00:00:00	2024-11-06T23:00:00	8	Radiación solar	0
76217	7	Sololá	702	San José Chacayá	5	Chacayá	2	Febrero	2023-02-02T00:00:00	2024-11-06T00:00:00	2	Temperatura media	5.4
76218	7	Sololá	702	San José Chacayá	5	Chacayá	2	Febrero	2023-02-02T00:00:00	2024-11-06T00:00:00	4	Temperatura máxima	6.1
76219	7	Sololá	702	San José Chacayá	5	Chacayá	2	Febrero	2023-02-02T00:00:00	2024-11-06T00:00:00	3	Temperatura mínima	5.4
76220	7	Sololá	702	San José Chacayá	5	Chacayá	2	Febrero	2023-02-02T00:00:00	2024-11-06T00:00:00	5	Humedad	83
76221	7	Sololá	702	San José Chacayá	5	Chacayá	2	Febrero	2023-02-02T00:00:00	2024-11-06T00:00:00	6	Velocidad del viento	1.6
76222	7	Sololá	702	San José Chacayá	5	Chacayá	2	Febrero	2023-02-02T00:00:00	2024-11-06T00:00:00	7	Dirección del viento	1.61
76223	7	Sololá	702	San José Chacayá	5	Chacayá	2	Febrero	2023-02-02T00:00:00	2024-11-06T00:00:00	1	Precipitación	0
76224	7	Sololá	702	San José Chacayá	5	Chacayá	2	Febrero	2023-02-02T00:00:00	2024-11-06T00:00:00	8	Radiación solar	0
76225	7	Sololá	702	San José Chacayá	5	Chacayá	2	Febrero	2023-02-02T00:00:00	2024-11-06T01:00:00	2	Temperatura media	4.6
76226	7	Sololá	702	San José Chacayá	5	Chacayá	2	Febrero	2023-02-02T00:00:00	2024-11-06T01:00:00	4	Temperatura máxima	5.4
76227	7	Sololá	702	San José Chacayá	5	Chacayá	2	Febrero	2023-02-02T00:00:00	2024-11-06T01:00:00	3	Temperatura mínima	4.6
76228	7	Sololá	702	San José Chacayá	5	Chacayá	2	Febrero	2023-02-02T00:00:00	2024-11-06T01:00:00	5	Humedad	82
76229	7	Sololá	702	San José Chacayá	5	Chacayá	2	Febrero	2023-02-02T00:00:00	2024-11-06T01:00:00	6	Velocidad del viento	1.6
76230	7	Sololá	702	San José Chacayá	5	Chacayá	2	Febrero	2023-02-02T00:00:00	2024-11-06T01:00:00	7	Dirección del viento	1.61
76231	7	Sololá	702	San José Chacayá	5	Chacayá	2	Febrero	2023-02-02T00:00:00	2024-11-06T01:00:00	1	Precipitación	0
76232	7	Sololá	702	San José Chacayá	5	Chacayá	2	Febrero	2023-02-02T00:00:00	2024-11-06T01:00:00	8	Radiación solar	0
76233	7	Sololá	702	San José Chacayá	5	Chacayá	2	Febrero	2023-02-02T00:00:00	2024-11-06T02:00:00	2	Temperatura media	3.7
76234	7	Sololá	702	San José Chacayá	5	Chacayá	2	Febrero	2023-02-02T00:00:00	2024-11-06T02:00:00	4	Temperatura máxima	4.6
76235	7	Sololá	702	San José Chacayá	5	Chacayá	2	Febrero	2023-02-02T00:00:00	2024-11-06T02:00:00	3	Temperatura mínima	3.7
76236	7	Sololá	702	San José Chacayá	5	Chacayá	2	Febrero	2023-02-02T00:00:00	2024-11-06T02:00:00	5	Humedad	81
76237	7	Sololá	702	San José Chacayá	5	Chacayá	2	Febrero	2023-02-02T00:00:00	2024-11-06T02:00:00	6	Velocidad del viento	1.6
76238	7	Sololá	702	San José Chacayá	5	Chacayá	2	Febrero	2023-02-02T00:00:00	2024-11-06T02:00:00	7	Dirección del viento	1.61
76239	7	Sololá	702	San José Chacayá	5	Chacayá	2	Febrero	2023-02-02T00:00:00	2024-11-06T02:00:00	1	Precipitación	0
76240	7	Sololá	702	San José Chacayá	5	Chacayá	2	Febrero	2023-02-02T00:00:00	2024-11-06T02:00:00	8	Radiación solar	0
76241	7	Sololá	702	San José Chacayá	5	Chacayá	2	Febrero	2023-02-02T00:00:00	2024-11-06T03:00:00	2	Temperatura media	3.3
76242	7	Sololá	702	San José Chacayá	5	Chacayá	2	Febrero	2023-02-02T00:00:00	2024-11-06T03:00:00	4	Temperatura máxima	3.8
76243	7	Sololá	702	San José Chacayá	5	Chacayá	2	Febrero	2023-02-02T00:00:00	2024-11-06T03:00:00	3	Temperatura mínima	3.3
76244	7	Sololá	702	San José Chacayá	5	Chacayá	2	Febrero	2023-02-02T00:00:00	2024-11-06T03:00:00	5	Humedad	78
76245	7	Sololá	702	San José Chacayá	5	Chacayá	2	Febrero	2023-02-02T00:00:00	2024-11-06T03:00:00	6	Velocidad del viento	1.6
76246	7	Sololá	702	San José Chacayá	5	Chacayá	2	Febrero	2023-02-02T00:00:00	2024-11-06T03:00:00	7	Dirección del viento	1.61
76247	7	Sololá	702	San José Chacayá	5	Chacayá	2	Febrero	2023-02-02T00:00:00	2024-11-06T03:00:00	1	Precipitación	0
76248	7	Sololá	702	San José Chacayá	5	Chacayá	2	Febrero	2023-02-02T00:00:00	2024-11-06T03:00:00	8	Radiación solar	0
76249	7	Sololá	702	San José Chacayá	5	Chacayá	2	Febrero	2023-02-02T00:00:00	2024-11-06T04:00:00	2	Temperatura media	2.6
76250	7	Sololá	702	San José Chacayá	5	Chacayá	2	Febrero	2023-02-02T00:00:00	2024-11-06T04:00:00	4	Temperatura máxima	3.3
76251	7	Sololá	702	San José Chacayá	5	Chacayá	2	Febrero	2023-02-02T00:00:00	2024-11-06T04:00:00	3	Temperatura mínima	2.6
76252	7	Sololá	702	San José Chacayá	5	Chacayá	2	Febrero	2023-02-02T00:00:00	2024-11-06T04:00:00	5	Humedad	77
76253	7	Sololá	702	San José Chacayá	5	Chacayá	2	Febrero	2023-02-02T00:00:00	2024-11-06T04:00:00	6	Velocidad del viento	1.6
76254	7	Sololá	702	San José Chacayá	5	Chacayá	2	Febrero	2023-02-02T00:00:00	2024-11-06T04:00:00	7	Dirección del viento	1.61
76255	7	Sololá	702	San José Chacayá	5	Chacayá	2	Febrero	2023-02-02T00:00:00	2024-11-06T04:00:00	1	Precipitación	0
76256	7	Sololá	702	San José Chacayá	5	Chacayá	2	Febrero	2023-02-02T00:00:00	2024-11-06T04:00:00	8	Radiación solar	0
76257	7	Sololá	702	San José Chacayá	5	Chacayá	2	Febrero	2023-02-02T00:00:00	2024-11-06T05:00:00	2	Temperatura media	2.5
76258	7	Sololá	702	San José Chacayá	5	Chacayá	2	Febrero	2023-02-02T00:00:00	2024-11-06T05:00:00	4	Temperatura máxima	2.7
76259	7	Sololá	702	San José Chacayá	5	Chacayá	2	Febrero	2023-02-02T00:00:00	2024-11-06T05:00:00	3	Temperatura mínima	2.4
76260	7	Sololá	702	San José Chacayá	5	Chacayá	2	Febrero	2023-02-02T00:00:00	2024-11-06T05:00:00	5	Humedad	75
76261	7	Sololá	702	San José Chacayá	5	Chacayá	2	Febrero	2023-02-02T00:00:00	2024-11-06T05:00:00	6	Velocidad del viento	1.6
76262	7	Sololá	702	San José Chacayá	5	Chacayá	2	Febrero	2023-02-02T00:00:00	2024-11-06T05:00:00	7	Dirección del viento	1.61
76263	7	Sololá	702	San José Chacayá	5	Chacayá	2	Febrero	2023-02-02T00:00:00	2024-11-06T05:00:00	1	Precipitación	0
76264	7	Sololá	702	San José Chacayá	5	Chacayá	2	Febrero	2023-02-02T00:00:00	2024-11-06T05:00:00	8	Radiación solar	0
76265	7	Sololá	702	San José Chacayá	5	Chacayá	2	Febrero	2023-02-02T00:00:00	2024-11-06T06:00:00	2	Temperatura media	3.4
76266	7	Sololá	702	San José Chacayá	5	Chacayá	2	Febrero	2023-02-02T00:00:00	2024-11-06T06:00:00	4	Temperatura máxima	3.4
76267	7	Sololá	702	San José Chacayá	5	Chacayá	2	Febrero	2023-02-02T00:00:00	2024-11-06T06:00:00	3	Temperatura mínima	2.3
76268	7	Sololá	702	San José Chacayá	5	Chacayá	2	Febrero	2023-02-02T00:00:00	2024-11-06T06:00:00	5	Humedad	72
76269	7	Sololá	702	San José Chacayá	5	Chacayá	2	Febrero	2023-02-02T00:00:00	2024-11-06T06:00:00	6	Velocidad del viento	1.6
76270	7	Sololá	702	San José Chacayá	5	Chacayá	2	Febrero	2023-02-02T00:00:00	2024-11-06T06:00:00	7	Dirección del viento	1.61
76271	7	Sololá	702	San José Chacayá	5	Chacayá	2	Febrero	2023-02-02T00:00:00	2024-11-06T06:00:00	1	Precipitación	0
76272	7	Sololá	702	San José Chacayá	5	Chacayá	2	Febrero	2023-02-02T00:00:00	2024-11-06T06:00:00	8	Radiación solar	0
76273	7	Sololá	702	San José Chacayá	5	Chacayá	2	Febrero	2023-02-02T00:00:00	2024-11-06T07:00:00	2	Temperatura media	10.1
76274	7	Sololá	702	San José Chacayá	5	Chacayá	2	Febrero	2023-02-02T00:00:00	2024-11-06T07:00:00	4	Temperatura máxima	10.1
76275	7	Sololá	702	San José Chacayá	5	Chacayá	2	Febrero	2023-02-02T00:00:00	2024-11-06T07:00:00	3	Temperatura mínima	3.4
76276	7	Sololá	702	San José Chacayá	5	Chacayá	2	Febrero	2023-02-02T00:00:00	2024-11-06T07:00:00	5	Humedad	64
76277	7	Sololá	702	San José Chacayá	5	Chacayá	2	Febrero	2023-02-02T00:00:00	2024-11-06T07:00:00	6	Velocidad del viento	1.6
76278	7	Sololá	702	San José Chacayá	5	Chacayá	2	Febrero	2023-02-02T00:00:00	2024-11-06T07:00:00	7	Dirección del viento	1.61
76279	7	Sololá	702	San José Chacayá	5	Chacayá	2	Febrero	2023-02-02T00:00:00	2024-11-06T07:00:00	1	Precipitación	0
76280	7	Sololá	702	San José Chacayá	5	Chacayá	2	Febrero	2023-02-02T00:00:00	2024-11-06T07:00:00	8	Radiación solar	10
76281	7	Sololá	702	San José Chacayá	5	Chacayá	2	Febrero	2023-02-02T00:00:00	2024-11-06T08:00:00	2	Temperatura media	16.2
76282	7	Sololá	702	San José Chacayá	5	Chacayá	2	Febrero	2023-02-02T00:00:00	2024-11-06T08:00:00	4	Temperatura máxima	16.2
76283	7	Sololá	702	San José Chacayá	5	Chacayá	2	Febrero	2023-02-02T00:00:00	2024-11-06T08:00:00	3	Temperatura mínima	10.1
76284	7	Sololá	702	San José Chacayá	5	Chacayá	2	Febrero	2023-02-02T00:00:00	2024-11-06T08:00:00	5	Humedad	50
76285	7	Sololá	702	San José Chacayá	5	Chacayá	2	Febrero	2023-02-02T00:00:00	2024-11-06T08:00:00	6	Velocidad del viento	3.2
76286	7	Sololá	702	San José Chacayá	5	Chacayá	2	Febrero	2023-02-02T00:00:00	2024-11-06T08:00:00	7	Dirección del viento	3.22
76287	7	Sololá	702	San José Chacayá	5	Chacayá	2	Febrero	2023-02-02T00:00:00	2024-11-06T08:00:00	1	Precipitación	0
76288	7	Sololá	702	San José Chacayá	5	Chacayá	2	Febrero	2023-02-02T00:00:00	2024-11-06T08:00:00	8	Radiación solar	181
76289	7	Sololá	702	San José Chacayá	5	Chacayá	2	Febrero	2023-02-02T00:00:00	2024-11-06T09:00:00	2	Temperatura media	19.7
76290	7	Sololá	702	San José Chacayá	5	Chacayá	2	Febrero	2023-02-02T00:00:00	2024-11-06T09:00:00	4	Temperatura máxima	19.7
76291	7	Sololá	702	San José Chacayá	5	Chacayá	2	Febrero	2023-02-02T00:00:00	2024-11-06T09:00:00	3	Temperatura mínima	16.2
76292	7	Sololá	702	San José Chacayá	5	Chacayá	2	Febrero	2023-02-02T00:00:00	2024-11-06T09:00:00	5	Humedad	37
76293	7	Sololá	702	San José Chacayá	5	Chacayá	2	Febrero	2023-02-02T00:00:00	2024-11-06T09:00:00	6	Velocidad del viento	3.2
76294	7	Sololá	702	San José Chacayá	5	Chacayá	2	Febrero	2023-02-02T00:00:00	2024-11-06T09:00:00	7	Dirección del viento	3.22
76295	7	Sololá	702	San José Chacayá	5	Chacayá	2	Febrero	2023-02-02T00:00:00	2024-11-06T09:00:00	1	Precipitación	0
76296	7	Sololá	702	San José Chacayá	5	Chacayá	2	Febrero	2023-02-02T00:00:00	2024-11-06T09:00:00	8	Radiación solar	418
76297	7	Sololá	702	San José Chacayá	5	Chacayá	2	Febrero	2023-02-02T00:00:00	2024-11-06T10:00:00	2	Temperatura media	21.5
76298	7	Sololá	702	San José Chacayá	5	Chacayá	2	Febrero	2023-02-02T00:00:00	2024-11-06T10:00:00	4	Temperatura máxima	21.5
76299	7	Sololá	702	San José Chacayá	5	Chacayá	2	Febrero	2023-02-02T00:00:00	2024-11-06T10:00:00	3	Temperatura mínima	19.7
76300	7	Sololá	702	San José Chacayá	5	Chacayá	2	Febrero	2023-02-02T00:00:00	2024-11-06T10:00:00	5	Humedad	34
76301	7	Sololá	702	San José Chacayá	5	Chacayá	2	Febrero	2023-02-02T00:00:00	2024-11-06T10:00:00	6	Velocidad del viento	4.8
76302	7	Sololá	702	San José Chacayá	5	Chacayá	2	Febrero	2023-02-02T00:00:00	2024-11-06T10:00:00	7	Dirección del viento	4.83
76303	7	Sololá	702	San José Chacayá	5	Chacayá	2	Febrero	2023-02-02T00:00:00	2024-11-06T10:00:00	1	Precipitación	0
76304	7	Sololá	702	San José Chacayá	5	Chacayá	2	Febrero	2023-02-02T00:00:00	2024-11-06T10:00:00	8	Radiación solar	629
76305	7	Sololá	702	San José Chacayá	5	Chacayá	2	Febrero	2023-02-02T00:00:00	2024-11-06T11:00:00	2	Temperatura media	21.8
76306	7	Sololá	702	San José Chacayá	5	Chacayá	2	Febrero	2023-02-02T00:00:00	2024-11-06T11:00:00	4	Temperatura máxima	22
76307	7	Sololá	702	San José Chacayá	5	Chacayá	2	Febrero	2023-02-02T00:00:00	2024-11-06T11:00:00	3	Temperatura mínima	21.4
76308	7	Sololá	702	San José Chacayá	5	Chacayá	2	Febrero	2023-02-02T00:00:00	2024-11-06T11:00:00	5	Humedad	32
76309	7	Sololá	702	San José Chacayá	5	Chacayá	2	Febrero	2023-02-02T00:00:00	2024-11-06T11:00:00	6	Velocidad del viento	6.4
76310	7	Sololá	702	San José Chacayá	5	Chacayá	2	Febrero	2023-02-02T00:00:00	2024-11-06T11:00:00	7	Dirección del viento	6.44
76311	7	Sololá	702	San José Chacayá	5	Chacayá	2	Febrero	2023-02-02T00:00:00	2024-11-06T11:00:00	1	Precipitación	0
76312	7	Sololá	702	San José Chacayá	5	Chacayá	2	Febrero	2023-02-02T00:00:00	2024-11-06T11:00:00	8	Radiación solar	788
76313	7	Sololá	702	San José Chacayá	5	Chacayá	2	Febrero	2023-02-02T00:00:00	2024-11-06T12:00:00	2	Temperatura media	22.7
76314	7	Sololá	702	San José Chacayá	5	Chacayá	2	Febrero	2023-02-02T00:00:00	2024-11-06T12:00:00	4	Temperatura máxima	22.8
76315	7	Sololá	702	San José Chacayá	5	Chacayá	2	Febrero	2023-02-02T00:00:00	2024-11-06T12:00:00	3	Temperatura mínima	21.6
76316	7	Sololá	702	San José Chacayá	5	Chacayá	2	Febrero	2023-02-02T00:00:00	2024-11-06T12:00:00	5	Humedad	32
76317	7	Sololá	702	San José Chacayá	5	Chacayá	2	Febrero	2023-02-02T00:00:00	2024-11-06T12:00:00	6	Velocidad del viento	6.4
76318	7	Sololá	702	San José Chacayá	5	Chacayá	2	Febrero	2023-02-02T00:00:00	2024-11-06T12:00:00	7	Dirección del viento	6.44
76319	7	Sololá	702	San José Chacayá	5	Chacayá	2	Febrero	2023-02-02T00:00:00	2024-11-06T12:00:00	1	Precipitación	0
76320	7	Sololá	702	San José Chacayá	5	Chacayá	2	Febrero	2023-02-02T00:00:00	2024-11-06T12:00:00	8	Radiación solar	881
76321	7	Sololá	702	San José Chacayá	5	Chacayá	2	Febrero	2023-02-02T00:00:00	2024-11-06T13:00:00	2	Temperatura media	22.4
76322	7	Sololá	702	San José Chacayá	5	Chacayá	2	Febrero	2023-02-02T00:00:00	2024-11-06T13:00:00	4	Temperatura máxima	22.8
76323	7	Sololá	702	San José Chacayá	5	Chacayá	2	Febrero	2023-02-02T00:00:00	2024-11-06T13:00:00	3	Temperatura mínima	21.4
76324	7	Sololá	702	San José Chacayá	5	Chacayá	2	Febrero	2023-02-02T00:00:00	2024-11-06T13:00:00	5	Humedad	35
76325	7	Sololá	702	San José Chacayá	5	Chacayá	2	Febrero	2023-02-02T00:00:00	2024-11-06T13:00:00	6	Velocidad del viento	6.4
76326	7	Sololá	702	San José Chacayá	5	Chacayá	2	Febrero	2023-02-02T00:00:00	2024-11-06T13:00:00	7	Dirección del viento	6.44
76327	7	Sololá	702	San José Chacayá	5	Chacayá	2	Febrero	2023-02-02T00:00:00	2024-11-06T13:00:00	1	Precipitación	0
76328	7	Sololá	702	San José Chacayá	5	Chacayá	2	Febrero	2023-02-02T00:00:00	2024-11-06T13:00:00	8	Radiación solar	908
76329	7	Sololá	702	San José Chacayá	5	Chacayá	2	Febrero	2023-02-02T00:00:00	2024-11-06T14:00:00	2	Temperatura media	21.9
76330	7	Sololá	702	San José Chacayá	5	Chacayá	2	Febrero	2023-02-02T00:00:00	2024-11-06T14:00:00	4	Temperatura máxima	22.8
76331	7	Sololá	702	San José Chacayá	5	Chacayá	2	Febrero	2023-02-02T00:00:00	2024-11-06T14:00:00	3	Temperatura mínima	21.9
76332	7	Sololá	702	San José Chacayá	5	Chacayá	2	Febrero	2023-02-02T00:00:00	2024-11-06T14:00:00	5	Humedad	46
76333	7	Sololá	702	San José Chacayá	5	Chacayá	2	Febrero	2023-02-02T00:00:00	2024-11-06T14:00:00	6	Velocidad del viento	4.8
76334	7	Sololá	702	San José Chacayá	5	Chacayá	2	Febrero	2023-02-02T00:00:00	2024-11-06T14:00:00	7	Dirección del viento	4.83
76335	7	Sololá	702	San José Chacayá	5	Chacayá	2	Febrero	2023-02-02T00:00:00	2024-11-06T14:00:00	1	Precipitación	0
76336	7	Sololá	702	San José Chacayá	5	Chacayá	2	Febrero	2023-02-02T00:00:00	2024-11-06T14:00:00	8	Radiación solar	857
76337	7	Sololá	702	San José Chacayá	5	Chacayá	2	Febrero	2023-02-02T00:00:00	2024-11-06T15:00:00	2	Temperatura media	20.2
76338	7	Sololá	702	San José Chacayá	5	Chacayá	2	Febrero	2023-02-02T00:00:00	2024-11-06T15:00:00	4	Temperatura máxima	21.9
76339	7	Sololá	702	San José Chacayá	5	Chacayá	2	Febrero	2023-02-02T00:00:00	2024-11-06T15:00:00	3	Temperatura mínima	20.2
76340	7	Sololá	702	San José Chacayá	5	Chacayá	2	Febrero	2023-02-02T00:00:00	2024-11-06T15:00:00	5	Humedad	61
76341	7	Sololá	702	San José Chacayá	5	Chacayá	2	Febrero	2023-02-02T00:00:00	2024-11-06T15:00:00	6	Velocidad del viento	4.8
76342	7	Sololá	702	San José Chacayá	5	Chacayá	2	Febrero	2023-02-02T00:00:00	2024-11-06T15:00:00	7	Dirección del viento	4.83
76343	7	Sololá	702	San José Chacayá	5	Chacayá	2	Febrero	2023-02-02T00:00:00	2024-11-06T15:00:00	1	Precipitación	0
76344	7	Sololá	702	San José Chacayá	5	Chacayá	2	Febrero	2023-02-02T00:00:00	2024-11-06T15:00:00	8	Radiación solar	736
76345	7	Sololá	702	San José Chacayá	5	Chacayá	2	Febrero	2023-02-02T00:00:00	2024-11-06T16:00:00	2	Temperatura media	17.9
76346	7	Sololá	702	San José Chacayá	5	Chacayá	2	Febrero	2023-02-02T00:00:00	2024-11-06T16:00:00	4	Temperatura máxima	20.4
76347	7	Sololá	702	San José Chacayá	5	Chacayá	2	Febrero	2023-02-02T00:00:00	2024-11-06T16:00:00	3	Temperatura mínima	17.9
76348	7	Sololá	702	San José Chacayá	5	Chacayá	2	Febrero	2023-02-02T00:00:00	2024-11-06T16:00:00	5	Humedad	70
76349	7	Sololá	702	San José Chacayá	5	Chacayá	2	Febrero	2023-02-02T00:00:00	2024-11-06T16:00:00	6	Velocidad del viento	1.6
76350	7	Sololá	702	San José Chacayá	5	Chacayá	2	Febrero	2023-02-02T00:00:00	2024-11-06T16:00:00	7	Dirección del viento	1.61
76351	7	Sololá	702	San José Chacayá	5	Chacayá	2	Febrero	2023-02-02T00:00:00	2024-11-06T16:00:00	1	Precipitación	0
76352	7	Sololá	702	San José Chacayá	5	Chacayá	2	Febrero	2023-02-02T00:00:00	2024-11-06T16:00:00	8	Radiación solar	551
76353	7	Sololá	702	San José Chacayá	5	Chacayá	2	Febrero	2023-02-02T00:00:00	2024-11-06T17:00:00	2	Temperatura media	14.8
76354	7	Sololá	702	San José Chacayá	5	Chacayá	2	Febrero	2023-02-02T00:00:00	2024-11-06T17:00:00	4	Temperatura máxima	17.9
76355	7	Sololá	702	San José Chacayá	5	Chacayá	2	Febrero	2023-02-02T00:00:00	2024-11-06T17:00:00	3	Temperatura mínima	14.8
76356	7	Sololá	702	San José Chacayá	5	Chacayá	2	Febrero	2023-02-02T00:00:00	2024-11-06T17:00:00	5	Humedad	78
76357	7	Sololá	702	San José Chacayá	5	Chacayá	2	Febrero	2023-02-02T00:00:00	2024-11-06T17:00:00	6	Velocidad del viento	1.6
76358	7	Sololá	702	San José Chacayá	5	Chacayá	2	Febrero	2023-02-02T00:00:00	2024-11-06T17:00:00	7	Dirección del viento	1.61
76359	7	Sololá	702	San José Chacayá	5	Chacayá	2	Febrero	2023-02-02T00:00:00	2024-11-06T17:00:00	1	Precipitación	0
76360	7	Sololá	702	San José Chacayá	5	Chacayá	2	Febrero	2023-02-02T00:00:00	2024-11-06T17:00:00	8	Radiación solar	335
76361	7	Sololá	702	San José Chacayá	5	Chacayá	2	Febrero	2023-02-02T00:00:00	2024-11-06T18:00:00	2	Temperatura media	12.2
76362	7	Sololá	702	San José Chacayá	5	Chacayá	2	Febrero	2023-02-02T00:00:00	2024-11-06T18:00:00	4	Temperatura máxima	14.8
76363	7	Sololá	702	San José Chacayá	5	Chacayá	2	Febrero	2023-02-02T00:00:00	2024-11-06T18:00:00	3	Temperatura mínima	11.6
76364	7	Sololá	702	San José Chacayá	5	Chacayá	2	Febrero	2023-02-02T00:00:00	2024-11-06T18:00:00	5	Humedad	73
76365	7	Sololá	702	San José Chacayá	5	Chacayá	2	Febrero	2023-02-02T00:00:00	2024-11-06T18:00:00	6	Velocidad del viento	1.6
76366	7	Sololá	702	San José Chacayá	5	Chacayá	2	Febrero	2023-02-02T00:00:00	2024-11-06T18:00:00	7	Dirección del viento	1.61
76367	7	Sololá	702	San José Chacayá	5	Chacayá	2	Febrero	2023-02-02T00:00:00	2024-11-06T18:00:00	1	Precipitación	0
76368	7	Sololá	702	San José Chacayá	5	Chacayá	2	Febrero	2023-02-02T00:00:00	2024-11-06T18:00:00	8	Radiación solar	56
76369	7	Sololá	702	San José Chacayá	5	Chacayá	2	Febrero	2023-02-02T00:00:00	2024-11-06T19:00:00	2	Temperatura media	13.6
76370	7	Sololá	702	San José Chacayá	5	Chacayá	2	Febrero	2023-02-02T00:00:00	2024-11-06T19:00:00	4	Temperatura máxima	13.6
76371	7	Sololá	702	San José Chacayá	5	Chacayá	2	Febrero	2023-02-02T00:00:00	2024-11-06T19:00:00	3	Temperatura mínima	12.2
76372	7	Sololá	702	San José Chacayá	5	Chacayá	2	Febrero	2023-02-02T00:00:00	2024-11-06T19:00:00	5	Humedad	75
76373	7	Sololá	702	San José Chacayá	5	Chacayá	2	Febrero	2023-02-02T00:00:00	2024-11-06T19:00:00	6	Velocidad del viento	3.2
76374	7	Sololá	702	San José Chacayá	5	Chacayá	2	Febrero	2023-02-02T00:00:00	2024-11-06T19:00:00	7	Dirección del viento	3.22
76375	7	Sololá	702	San José Chacayá	5	Chacayá	2	Febrero	2023-02-02T00:00:00	2024-11-06T19:00:00	1	Precipitación	0
76376	7	Sololá	702	San José Chacayá	5	Chacayá	2	Febrero	2023-02-02T00:00:00	2024-11-06T19:00:00	8	Radiación solar	0
76377	7	Sololá	702	San José Chacayá	5	Chacayá	2	Febrero	2023-02-02T00:00:00	2024-11-06T20:00:00	2	Temperatura media	10.3
76378	7	Sololá	702	San José Chacayá	5	Chacayá	2	Febrero	2023-02-02T00:00:00	2024-11-06T20:00:00	4	Temperatura máxima	13.6
76379	7	Sololá	702	San José Chacayá	5	Chacayá	2	Febrero	2023-02-02T00:00:00	2024-11-06T20:00:00	3	Temperatura mínima	10.3
76380	7	Sololá	702	San José Chacayá	5	Chacayá	2	Febrero	2023-02-02T00:00:00	2024-11-06T20:00:00	5	Humedad	81
76381	7	Sololá	702	San José Chacayá	5	Chacayá	2	Febrero	2023-02-02T00:00:00	2024-11-06T20:00:00	6	Velocidad del viento	1.6
76382	7	Sololá	702	San José Chacayá	5	Chacayá	2	Febrero	2023-02-02T00:00:00	2024-11-06T20:00:00	7	Dirección del viento	1.61
76383	7	Sololá	702	San José Chacayá	5	Chacayá	2	Febrero	2023-02-02T00:00:00	2024-11-06T20:00:00	1	Precipitación	0
76384	7	Sololá	702	San José Chacayá	5	Chacayá	2	Febrero	2023-02-02T00:00:00	2024-11-06T20:00:00	8	Radiación solar	0
76385	7	Sololá	702	San José Chacayá	5	Chacayá	2	Febrero	2023-02-02T00:00:00	2024-11-06T21:00:00	2	Temperatura media	8.7
76386	7	Sololá	702	San José Chacayá	5	Chacayá	2	Febrero	2023-02-02T00:00:00	2024-11-06T21:00:00	4	Temperatura máxima	10.3
76387	7	Sololá	702	San José Chacayá	5	Chacayá	2	Febrero	2023-02-02T00:00:00	2024-11-06T21:00:00	3	Temperatura mínima	8.7
76388	7	Sololá	702	San José Chacayá	5	Chacayá	2	Febrero	2023-02-02T00:00:00	2024-11-06T21:00:00	5	Humedad	86
76389	7	Sololá	702	San José Chacayá	5	Chacayá	2	Febrero	2023-02-02T00:00:00	2024-11-06T21:00:00	6	Velocidad del viento	1.6
76390	7	Sololá	702	San José Chacayá	5	Chacayá	2	Febrero	2023-02-02T00:00:00	2024-11-06T21:00:00	7	Dirección del viento	1.61
76391	7	Sololá	702	San José Chacayá	5	Chacayá	2	Febrero	2023-02-02T00:00:00	2024-11-06T21:00:00	1	Precipitación	0
76392	7	Sololá	702	San José Chacayá	5	Chacayá	2	Febrero	2023-02-02T00:00:00	2024-11-06T21:00:00	8	Radiación solar	0
76393	7	Sololá	702	San José Chacayá	5	Chacayá	2	Febrero	2023-02-02T00:00:00	2024-11-06T22:00:00	2	Temperatura media	7.1
76394	7	Sololá	702	San José Chacayá	5	Chacayá	2	Febrero	2023-02-02T00:00:00	2024-11-06T22:00:00	4	Temperatura máxima	8.7
76395	7	Sololá	702	San José Chacayá	5	Chacayá	2	Febrero	2023-02-02T00:00:00	2024-11-06T22:00:00	3	Temperatura mínima	7.1
76396	7	Sololá	702	San José Chacayá	5	Chacayá	2	Febrero	2023-02-02T00:00:00	2024-11-06T22:00:00	5	Humedad	87
76397	7	Sololá	702	San José Chacayá	5	Chacayá	2	Febrero	2023-02-02T00:00:00	2024-11-06T22:00:00	6	Velocidad del viento	1.6
76398	7	Sololá	702	San José Chacayá	5	Chacayá	2	Febrero	2023-02-02T00:00:00	2024-11-06T22:00:00	7	Dirección del viento	1.61
76399	7	Sololá	702	San José Chacayá	5	Chacayá	2	Febrero	2023-02-02T00:00:00	2024-11-06T22:00:00	1	Precipitación	0
76400	7	Sololá	702	San José Chacayá	5	Chacayá	2	Febrero	2023-02-02T00:00:00	2024-11-06T22:00:00	8	Radiación solar	0
76401	7	Sololá	702	San José Chacayá	5	Chacayá	2	Febrero	2023-02-02T00:00:00	2024-11-06T23:00:00	2	Temperatura media	6.3
76402	7	Sololá	702	San José Chacayá	5	Chacayá	2	Febrero	2023-02-02T00:00:00	2024-11-06T23:00:00	4	Temperatura máxima	7.1
76403	7	Sololá	702	San José Chacayá	5	Chacayá	2	Febrero	2023-02-02T00:00:00	2024-11-06T23:00:00	3	Temperatura mínima	6.3
76404	7	Sololá	702	San José Chacayá	5	Chacayá	2	Febrero	2023-02-02T00:00:00	2024-11-06T23:00:00	5	Humedad	88
76405	7	Sololá	702	San José Chacayá	5	Chacayá	2	Febrero	2023-02-02T00:00:00	2024-11-06T23:00:00	6	Velocidad del viento	1.6
76406	7	Sololá	702	San José Chacayá	5	Chacayá	2	Febrero	2023-02-02T00:00:00	2024-11-06T23:00:00	7	Dirección del viento	1.61
76407	7	Sololá	702	San José Chacayá	5	Chacayá	2	Febrero	2023-02-02T00:00:00	2024-11-06T23:00:00	1	Precipitación	0
76408	7	Sololá	702	San José Chacayá	5	Chacayá	2	Febrero	2023-02-02T00:00:00	2024-11-06T23:00:00	8	Radiación solar	0
76409	7	Sololá	702	San José Chacayá	5	Chacayá	2	Febrero	2023-03-02T00:00:00	2024-11-06T00:00:00	2	Temperatura media	5.6
76410	7	Sololá	702	San José Chacayá	5	Chacayá	2	Febrero	2023-03-02T00:00:00	2024-11-06T00:00:00	4	Temperatura máxima	6.3
76411	7	Sololá	702	San José Chacayá	5	Chacayá	2	Febrero	2023-03-02T00:00:00	2024-11-06T00:00:00	3	Temperatura mínima	5.6
76412	7	Sololá	702	San José Chacayá	5	Chacayá	2	Febrero	2023-03-02T00:00:00	2024-11-06T00:00:00	5	Humedad	88
76413	7	Sololá	702	San José Chacayá	5	Chacayá	2	Febrero	2023-03-02T00:00:00	2024-11-06T00:00:00	6	Velocidad del viento	1.6
76414	7	Sololá	702	San José Chacayá	5	Chacayá	2	Febrero	2023-03-02T00:00:00	2024-11-06T00:00:00	7	Dirección del viento	1.61
76415	7	Sololá	702	San José Chacayá	5	Chacayá	2	Febrero	2023-03-02T00:00:00	2024-11-06T00:00:00	1	Precipitación	0
76416	7	Sololá	702	San José Chacayá	5	Chacayá	2	Febrero	2023-03-02T00:00:00	2024-11-06T00:00:00	8	Radiación solar	0
76417	7	Sololá	702	San José Chacayá	5	Chacayá	2	Febrero	2023-03-02T00:00:00	2024-11-06T01:00:00	2	Temperatura media	4.9
76418	7	Sololá	702	San José Chacayá	5	Chacayá	2	Febrero	2023-03-02T00:00:00	2024-11-06T01:00:00	4	Temperatura máxima	5.6
76419	7	Sololá	702	San José Chacayá	5	Chacayá	2	Febrero	2023-03-02T00:00:00	2024-11-06T01:00:00	3	Temperatura mínima	4.8
76420	7	Sololá	702	San José Chacayá	5	Chacayá	2	Febrero	2023-03-02T00:00:00	2024-11-06T01:00:00	5	Humedad	88
76421	7	Sololá	702	San José Chacayá	5	Chacayá	2	Febrero	2023-03-02T00:00:00	2024-11-06T01:00:00	6	Velocidad del viento	1.6
76422	7	Sololá	702	San José Chacayá	5	Chacayá	2	Febrero	2023-03-02T00:00:00	2024-11-06T01:00:00	7	Dirección del viento	1.61
76423	7	Sololá	702	San José Chacayá	5	Chacayá	2	Febrero	2023-03-02T00:00:00	2024-11-06T01:00:00	1	Precipitación	0
76424	7	Sololá	702	San José Chacayá	5	Chacayá	2	Febrero	2023-03-02T00:00:00	2024-11-06T01:00:00	8	Radiación solar	0
76425	7	Sololá	702	San José Chacayá	5	Chacayá	2	Febrero	2023-03-02T00:00:00	2024-11-06T02:00:00	2	Temperatura media	3.8
76426	7	Sololá	702	San José Chacayá	5	Chacayá	2	Febrero	2023-03-02T00:00:00	2024-11-06T02:00:00	4	Temperatura máxima	4.9
76427	7	Sololá	702	San José Chacayá	5	Chacayá	2	Febrero	2023-03-02T00:00:00	2024-11-06T02:00:00	3	Temperatura mínima	3.8
76428	7	Sololá	702	San José Chacayá	5	Chacayá	2	Febrero	2023-03-02T00:00:00	2024-11-06T02:00:00	5	Humedad	88
76429	7	Sololá	702	San José Chacayá	5	Chacayá	2	Febrero	2023-03-02T00:00:00	2024-11-06T02:00:00	6	Velocidad del viento	1.6
76430	7	Sololá	702	San José Chacayá	5	Chacayá	2	Febrero	2023-03-02T00:00:00	2024-11-06T02:00:00	7	Dirección del viento	1.61
76431	7	Sololá	702	San José Chacayá	5	Chacayá	2	Febrero	2023-03-02T00:00:00	2024-11-06T02:00:00	1	Precipitación	0
76432	7	Sololá	702	San José Chacayá	5	Chacayá	2	Febrero	2023-03-02T00:00:00	2024-11-06T02:00:00	8	Radiación solar	0
76433	7	Sololá	702	San José Chacayá	5	Chacayá	2	Febrero	2023-03-02T00:00:00	2024-11-06T03:00:00	2	Temperatura media	4.5
76434	7	Sololá	702	San José Chacayá	5	Chacayá	2	Febrero	2023-03-02T00:00:00	2024-11-06T03:00:00	4	Temperatura máxima	5.1
76435	7	Sololá	702	San José Chacayá	5	Chacayá	2	Febrero	2023-03-02T00:00:00	2024-11-06T03:00:00	3	Temperatura mínima	3.7
76436	7	Sololá	702	San José Chacayá	5	Chacayá	2	Febrero	2023-03-02T00:00:00	2024-11-06T03:00:00	5	Humedad	85
76437	7	Sololá	702	San José Chacayá	5	Chacayá	2	Febrero	2023-03-02T00:00:00	2024-11-06T03:00:00	6	Velocidad del viento	1.6
76438	7	Sololá	702	San José Chacayá	5	Chacayá	2	Febrero	2023-03-02T00:00:00	2024-11-06T03:00:00	7	Dirección del viento	1.61
76439	7	Sololá	702	San José Chacayá	5	Chacayá	2	Febrero	2023-03-02T00:00:00	2024-11-06T03:00:00	1	Precipitación	0
76440	7	Sololá	702	San José Chacayá	5	Chacayá	2	Febrero	2023-03-02T00:00:00	2024-11-06T03:00:00	8	Radiación solar	0
76441	7	Sololá	702	San José Chacayá	5	Chacayá	2	Febrero	2023-03-02T00:00:00	2024-11-06T04:00:00	2	Temperatura media	10.3
76442	7	Sololá	702	San José Chacayá	5	Chacayá	2	Febrero	2023-03-02T00:00:00	2024-11-06T04:00:00	4	Temperatura máxima	10.4
76443	7	Sololá	702	San José Chacayá	5	Chacayá	2	Febrero	2023-03-02T00:00:00	2024-11-06T04:00:00	3	Temperatura mínima	4.5
76444	7	Sololá	702	San José Chacayá	5	Chacayá	2	Febrero	2023-03-02T00:00:00	2024-11-06T04:00:00	5	Humedad	67
76445	7	Sololá	702	San José Chacayá	5	Chacayá	2	Febrero	2023-03-02T00:00:00	2024-11-06T04:00:00	6	Velocidad del viento	4.8
76446	7	Sololá	702	San José Chacayá	5	Chacayá	2	Febrero	2023-03-02T00:00:00	2024-11-06T04:00:00	7	Dirección del viento	4.83
76447	7	Sololá	702	San José Chacayá	5	Chacayá	2	Febrero	2023-03-02T00:00:00	2024-11-06T04:00:00	1	Precipitación	0
76448	7	Sololá	702	San José Chacayá	5	Chacayá	2	Febrero	2023-03-02T00:00:00	2024-11-06T04:00:00	8	Radiación solar	0
76449	7	Sololá	702	San José Chacayá	5	Chacayá	2	Febrero	2023-03-02T00:00:00	2024-11-06T05:00:00	2	Temperatura media	11.5
76450	7	Sololá	702	San José Chacayá	5	Chacayá	2	Febrero	2023-03-02T00:00:00	2024-11-06T05:00:00	4	Temperatura máxima	11.5
76451	7	Sololá	702	San José Chacayá	5	Chacayá	2	Febrero	2023-03-02T00:00:00	2024-11-06T05:00:00	3	Temperatura mínima	10.2
76452	7	Sololá	702	San José Chacayá	5	Chacayá	2	Febrero	2023-03-02T00:00:00	2024-11-06T05:00:00	5	Humedad	67
76453	7	Sololá	702	San José Chacayá	5	Chacayá	2	Febrero	2023-03-02T00:00:00	2024-11-06T05:00:00	6	Velocidad del viento	6.4
76454	7	Sololá	702	San José Chacayá	5	Chacayá	2	Febrero	2023-03-02T00:00:00	2024-11-06T05:00:00	7	Dirección del viento	6.44
76455	7	Sololá	702	San José Chacayá	5	Chacayá	2	Febrero	2023-03-02T00:00:00	2024-11-06T05:00:00	1	Precipitación	0
76456	7	Sololá	702	San José Chacayá	5	Chacayá	2	Febrero	2023-03-02T00:00:00	2024-11-06T05:00:00	8	Radiación solar	0
76457	7	Sololá	702	San José Chacayá	5	Chacayá	2	Febrero	2023-03-02T00:00:00	2024-11-06T06:00:00	2	Temperatura media	11.8
76458	7	Sololá	702	San José Chacayá	5	Chacayá	2	Febrero	2023-03-02T00:00:00	2024-11-06T06:00:00	4	Temperatura máxima	11.8
76459	7	Sololá	702	San José Chacayá	5	Chacayá	2	Febrero	2023-03-02T00:00:00	2024-11-06T06:00:00	3	Temperatura mínima	11.1
76460	7	Sololá	702	San José Chacayá	5	Chacayá	2	Febrero	2023-03-02T00:00:00	2024-11-06T06:00:00	5	Humedad	64
76461	7	Sololá	702	San José Chacayá	5	Chacayá	2	Febrero	2023-03-02T00:00:00	2024-11-06T06:00:00	6	Velocidad del viento	4.8
76462	7	Sololá	702	San José Chacayá	5	Chacayá	2	Febrero	2023-03-02T00:00:00	2024-11-06T06:00:00	7	Dirección del viento	4.83
76463	7	Sololá	702	San José Chacayá	5	Chacayá	2	Febrero	2023-03-02T00:00:00	2024-11-06T06:00:00	1	Precipitación	0
76464	7	Sololá	702	San José Chacayá	5	Chacayá	2	Febrero	2023-03-02T00:00:00	2024-11-06T06:00:00	8	Radiación solar	0
76465	7	Sololá	702	San José Chacayá	5	Chacayá	2	Febrero	2023-03-02T00:00:00	2024-11-06T07:00:00	2	Temperatura media	15.3
76466	7	Sololá	702	San José Chacayá	5	Chacayá	2	Febrero	2023-03-02T00:00:00	2024-11-06T07:00:00	4	Temperatura máxima	15.3
76467	7	Sololá	702	San José Chacayá	5	Chacayá	2	Febrero	2023-03-02T00:00:00	2024-11-06T07:00:00	3	Temperatura mínima	11.8
76468	7	Sololá	702	San José Chacayá	5	Chacayá	2	Febrero	2023-03-02T00:00:00	2024-11-06T07:00:00	5	Humedad	58
76469	7	Sololá	702	San José Chacayá	5	Chacayá	2	Febrero	2023-03-02T00:00:00	2024-11-06T07:00:00	6	Velocidad del viento	4.8
76470	7	Sololá	702	San José Chacayá	5	Chacayá	2	Febrero	2023-03-02T00:00:00	2024-11-06T07:00:00	7	Dirección del viento	4.83
76471	7	Sololá	702	San José Chacayá	5	Chacayá	2	Febrero	2023-03-02T00:00:00	2024-11-06T07:00:00	1	Precipitación	0
76472	7	Sololá	702	San José Chacayá	5	Chacayá	2	Febrero	2023-03-02T00:00:00	2024-11-06T07:00:00	8	Radiación solar	11
76473	7	Sololá	702	San José Chacayá	5	Chacayá	2	Febrero	2023-03-02T00:00:00	2024-11-06T08:00:00	2	Temperatura media	16.4
76474	7	Sololá	702	San José Chacayá	5	Chacayá	2	Febrero	2023-03-02T00:00:00	2024-11-06T08:00:00	4	Temperatura máxima	16.4
76475	7	Sololá	702	San José Chacayá	5	Chacayá	2	Febrero	2023-03-02T00:00:00	2024-11-06T08:00:00	3	Temperatura mínima	15.3
76476	7	Sololá	702	San José Chacayá	5	Chacayá	2	Febrero	2023-03-02T00:00:00	2024-11-06T08:00:00	5	Humedad	59
76477	7	Sololá	702	San José Chacayá	5	Chacayá	2	Febrero	2023-03-02T00:00:00	2024-11-06T08:00:00	6	Velocidad del viento	8
76478	7	Sololá	702	San José Chacayá	5	Chacayá	2	Febrero	2023-03-02T00:00:00	2024-11-06T08:00:00	7	Dirección del viento	8.05
76479	7	Sololá	702	San José Chacayá	5	Chacayá	2	Febrero	2023-03-02T00:00:00	2024-11-06T08:00:00	1	Precipitación	0
76480	7	Sololá	702	San José Chacayá	5	Chacayá	2	Febrero	2023-03-02T00:00:00	2024-11-06T08:00:00	8	Radiación solar	174
76481	7	Sololá	702	San José Chacayá	5	Chacayá	2	Febrero	2023-03-02T00:00:00	2024-11-06T09:00:00	2	Temperatura media	17.9
76482	7	Sololá	702	San José Chacayá	5	Chacayá	2	Febrero	2023-03-02T00:00:00	2024-11-06T09:00:00	4	Temperatura máxima	17.9
76483	7	Sololá	702	San José Chacayá	5	Chacayá	2	Febrero	2023-03-02T00:00:00	2024-11-06T09:00:00	3	Temperatura mínima	16.1
76484	7	Sololá	702	San José Chacayá	5	Chacayá	2	Febrero	2023-03-02T00:00:00	2024-11-06T09:00:00	5	Humedad	55
76485	7	Sololá	702	San José Chacayá	5	Chacayá	2	Febrero	2023-03-02T00:00:00	2024-11-06T09:00:00	6	Velocidad del viento	9.7
76486	7	Sololá	702	San José Chacayá	5	Chacayá	2	Febrero	2023-03-02T00:00:00	2024-11-06T09:00:00	7	Dirección del viento	9.66
76487	7	Sololá	702	San José Chacayá	5	Chacayá	2	Febrero	2023-03-02T00:00:00	2024-11-06T09:00:00	1	Precipitación	0
76488	7	Sololá	702	San José Chacayá	5	Chacayá	2	Febrero	2023-03-02T00:00:00	2024-11-06T09:00:00	8	Radiación solar	411
76489	7	Sololá	702	San José Chacayá	5	Chacayá	2	Febrero	2023-03-02T00:00:00	2024-11-06T10:00:00	2	Temperatura media	17.6
76490	7	Sololá	702	San José Chacayá	5	Chacayá	2	Febrero	2023-03-02T00:00:00	2024-11-06T10:00:00	4	Temperatura máxima	18.1
76491	7	Sololá	702	San José Chacayá	5	Chacayá	2	Febrero	2023-03-02T00:00:00	2024-11-06T10:00:00	3	Temperatura mínima	17.5
76492	7	Sololá	702	San José Chacayá	5	Chacayá	2	Febrero	2023-03-02T00:00:00	2024-11-06T10:00:00	5	Humedad	60
76493	7	Sololá	702	San José Chacayá	5	Chacayá	2	Febrero	2023-03-02T00:00:00	2024-11-06T10:00:00	6	Velocidad del viento	9.7
76494	7	Sololá	702	San José Chacayá	5	Chacayá	2	Febrero	2023-03-02T00:00:00	2024-11-06T10:00:00	7	Dirección del viento	9.66
76495	7	Sololá	702	San José Chacayá	5	Chacayá	2	Febrero	2023-03-02T00:00:00	2024-11-06T10:00:00	1	Precipitación	0
76496	7	Sololá	702	San José Chacayá	5	Chacayá	2	Febrero	2023-03-02T00:00:00	2024-11-06T10:00:00	8	Radiación solar	622
76497	7	Sololá	702	San José Chacayá	5	Chacayá	2	Febrero	2023-03-02T00:00:00	2024-11-06T11:00:00	2	Temperatura media	17.8
76498	7	Sololá	702	San José Chacayá	5	Chacayá	2	Febrero	2023-03-02T00:00:00	2024-11-06T11:00:00	4	Temperatura máxima	17.9
76499	7	Sololá	702	San José Chacayá	5	Chacayá	2	Febrero	2023-03-02T00:00:00	2024-11-06T11:00:00	3	Temperatura mínima	16.9
76500	7	Sololá	702	San José Chacayá	5	Chacayá	2	Febrero	2023-03-02T00:00:00	2024-11-06T11:00:00	5	Humedad	60
76501	7	Sololá	702	San José Chacayá	5	Chacayá	2	Febrero	2023-03-02T00:00:00	2024-11-06T11:00:00	6	Velocidad del viento	11.3
76502	7	Sololá	702	San José Chacayá	5	Chacayá	2	Febrero	2023-03-02T00:00:00	2024-11-06T11:00:00	7	Dirección del viento	11.27
76503	7	Sololá	702	San José Chacayá	5	Chacayá	2	Febrero	2023-03-02T00:00:00	2024-11-06T11:00:00	1	Precipitación	0
76504	7	Sololá	702	San José Chacayá	5	Chacayá	2	Febrero	2023-03-02T00:00:00	2024-11-06T11:00:00	8	Radiación solar	782
76505	7	Sololá	702	San José Chacayá	5	Chacayá	2	Febrero	2023-03-02T00:00:00	2024-11-06T12:00:00	2	Temperatura media	16.2
76506	7	Sololá	702	San José Chacayá	5	Chacayá	2	Febrero	2023-03-02T00:00:00	2024-11-06T12:00:00	4	Temperatura máxima	17.9
76507	7	Sololá	702	San José Chacayá	5	Chacayá	2	Febrero	2023-03-02T00:00:00	2024-11-06T12:00:00	3	Temperatura mínima	15.9
76508	7	Sololá	702	San José Chacayá	5	Chacayá	2	Febrero	2023-03-02T00:00:00	2024-11-06T12:00:00	5	Humedad	68
76509	7	Sololá	702	San José Chacayá	5	Chacayá	2	Febrero	2023-03-02T00:00:00	2024-11-06T12:00:00	6	Velocidad del viento	8
76510	7	Sololá	702	San José Chacayá	5	Chacayá	2	Febrero	2023-03-02T00:00:00	2024-11-06T12:00:00	7	Dirección del viento	8.05
76511	7	Sololá	702	San José Chacayá	5	Chacayá	2	Febrero	2023-03-02T00:00:00	2024-11-06T12:00:00	1	Precipitación	0
76512	7	Sololá	702	San José Chacayá	5	Chacayá	2	Febrero	2023-03-02T00:00:00	2024-11-06T12:00:00	8	Radiación solar	877
76513	7	Sololá	702	San José Chacayá	5	Chacayá	2	Febrero	2023-03-02T00:00:00	2024-11-06T13:00:00	2	Temperatura media	14.6
76514	7	Sololá	702	San José Chacayá	5	Chacayá	2	Febrero	2023-03-02T00:00:00	2024-11-06T13:00:00	4	Temperatura máxima	16.4
76515	7	Sololá	702	San José Chacayá	5	Chacayá	2	Febrero	2023-03-02T00:00:00	2024-11-06T13:00:00	3	Temperatura mínima	14.6
76516	7	Sololá	702	San José Chacayá	5	Chacayá	2	Febrero	2023-03-02T00:00:00	2024-11-06T13:00:00	5	Humedad	73
76517	7	Sololá	702	San José Chacayá	5	Chacayá	2	Febrero	2023-03-02T00:00:00	2024-11-06T13:00:00	6	Velocidad del viento	6.4
76518	7	Sololá	702	San José Chacayá	5	Chacayá	2	Febrero	2023-03-02T00:00:00	2024-11-06T13:00:00	7	Dirección del viento	6.44
76519	7	Sololá	702	San José Chacayá	5	Chacayá	2	Febrero	2023-03-02T00:00:00	2024-11-06T13:00:00	1	Precipitación	0
76520	7	Sololá	702	San José Chacayá	5	Chacayá	2	Febrero	2023-03-02T00:00:00	2024-11-06T13:00:00	8	Radiación solar	900
76521	7	Sololá	702	San José Chacayá	5	Chacayá	2	Febrero	2023-03-02T00:00:00	2024-11-06T14:00:00	2	Temperatura media	12.6
76522	7	Sololá	702	San José Chacayá	5	Chacayá	2	Febrero	2023-03-02T00:00:00	2024-11-06T14:00:00	4	Temperatura máxima	14.6
76523	7	Sololá	702	San José Chacayá	5	Chacayá	2	Febrero	2023-03-02T00:00:00	2024-11-06T14:00:00	3	Temperatura mínima	12.4
76524	7	Sololá	702	San José Chacayá	5	Chacayá	2	Febrero	2023-03-02T00:00:00	2024-11-06T14:00:00	5	Humedad	78
76525	7	Sololá	702	San José Chacayá	5	Chacayá	2	Febrero	2023-03-02T00:00:00	2024-11-06T14:00:00	6	Velocidad del viento	6.4
76526	7	Sololá	702	San José Chacayá	5	Chacayá	2	Febrero	2023-03-02T00:00:00	2024-11-06T14:00:00	7	Dirección del viento	6.44
76527	7	Sololá	702	San José Chacayá	5	Chacayá	2	Febrero	2023-03-02T00:00:00	2024-11-06T14:00:00	1	Precipitación	0
76528	7	Sololá	702	San José Chacayá	5	Chacayá	2	Febrero	2023-03-02T00:00:00	2024-11-06T14:00:00	8	Radiación solar	845
76529	7	Sololá	702	San José Chacayá	5	Chacayá	2	Febrero	2023-03-02T00:00:00	2024-11-06T15:00:00	2	Temperatura media	12.8
76530	7	Sololá	702	San José Chacayá	5	Chacayá	2	Febrero	2023-03-02T00:00:00	2024-11-06T15:00:00	4	Temperatura máxima	13.3
76531	7	Sololá	702	San José Chacayá	5	Chacayá	2	Febrero	2023-03-02T00:00:00	2024-11-06T15:00:00	3	Temperatura mínima	12.6
76532	7	Sololá	702	San José Chacayá	5	Chacayá	2	Febrero	2023-03-02T00:00:00	2024-11-06T15:00:00	5	Humedad	76
76533	7	Sololá	702	San José Chacayá	5	Chacayá	2	Febrero	2023-03-02T00:00:00	2024-11-06T15:00:00	6	Velocidad del viento	8
76534	7	Sololá	702	San José Chacayá	5	Chacayá	2	Febrero	2023-03-02T00:00:00	2024-11-06T15:00:00	7	Dirección del viento	8.05
76535	7	Sololá	702	San José Chacayá	5	Chacayá	2	Febrero	2023-03-02T00:00:00	2024-11-06T15:00:00	1	Precipitación	0
76536	7	Sololá	702	San José Chacayá	5	Chacayá	2	Febrero	2023-03-02T00:00:00	2024-11-06T15:00:00	8	Radiación solar	721
76537	7	Sololá	702	San José Chacayá	5	Chacayá	2	Febrero	2023-03-02T00:00:00	2024-11-06T16:00:00	2	Temperatura media	13.8
76538	7	Sololá	702	San José Chacayá	5	Chacayá	2	Febrero	2023-03-02T00:00:00	2024-11-06T16:00:00	4	Temperatura máxima	13.8
76539	7	Sololá	702	San José Chacayá	5	Chacayá	2	Febrero	2023-03-02T00:00:00	2024-11-06T16:00:00	3	Temperatura mínima	12.7
76540	7	Sololá	702	San José Chacayá	5	Chacayá	2	Febrero	2023-03-02T00:00:00	2024-11-06T16:00:00	5	Humedad	68
76541	7	Sololá	702	San José Chacayá	5	Chacayá	2	Febrero	2023-03-02T00:00:00	2024-11-06T16:00:00	6	Velocidad del viento	6.4
76542	7	Sololá	702	San José Chacayá	5	Chacayá	2	Febrero	2023-03-02T00:00:00	2024-11-06T16:00:00	7	Dirección del viento	6.44
76543	7	Sololá	702	San José Chacayá	5	Chacayá	2	Febrero	2023-03-02T00:00:00	2024-11-06T16:00:00	1	Precipitación	0
76544	7	Sololá	702	San José Chacayá	5	Chacayá	2	Febrero	2023-03-02T00:00:00	2024-11-06T16:00:00	8	Radiación solar	539
76545	7	Sololá	702	San José Chacayá	5	Chacayá	2	Febrero	2023-03-02T00:00:00	2024-11-06T17:00:00	2	Temperatura media	12.4
76546	7	Sololá	702	San José Chacayá	5	Chacayá	2	Febrero	2023-03-02T00:00:00	2024-11-06T17:00:00	4	Temperatura máxima	13.8
76547	7	Sololá	702	San José Chacayá	5	Chacayá	2	Febrero	2023-03-02T00:00:00	2024-11-06T17:00:00	3	Temperatura mínima	12.4
76548	7	Sololá	702	San José Chacayá	5	Chacayá	2	Febrero	2023-03-02T00:00:00	2024-11-06T17:00:00	5	Humedad	75
76549	7	Sololá	702	San José Chacayá	5	Chacayá	2	Febrero	2023-03-02T00:00:00	2024-11-06T17:00:00	6	Velocidad del viento	4.8
76550	7	Sololá	702	San José Chacayá	5	Chacayá	2	Febrero	2023-03-02T00:00:00	2024-11-06T17:00:00	7	Dirección del viento	4.83
76551	7	Sololá	702	San José Chacayá	5	Chacayá	2	Febrero	2023-03-02T00:00:00	2024-11-06T17:00:00	1	Precipitación	0
76552	7	Sololá	702	San José Chacayá	5	Chacayá	2	Febrero	2023-03-02T00:00:00	2024-11-06T17:00:00	8	Radiación solar	253
76553	7	Sololá	702	San José Chacayá	5	Chacayá	2	Febrero	2023-03-02T00:00:00	2024-11-06T18:00:00	2	Temperatura media	12.1
76554	7	Sololá	702	San José Chacayá	5	Chacayá	2	Febrero	2023-03-02T00:00:00	2024-11-06T18:00:00	4	Temperatura máxima	12.4
76555	7	Sololá	702	San José Chacayá	5	Chacayá	2	Febrero	2023-03-02T00:00:00	2024-11-06T18:00:00	3	Temperatura mínima	12
76556	7	Sololá	702	San José Chacayá	5	Chacayá	2	Febrero	2023-03-02T00:00:00	2024-11-06T18:00:00	5	Humedad	75
76557	7	Sololá	702	San José Chacayá	5	Chacayá	2	Febrero	2023-03-02T00:00:00	2024-11-06T18:00:00	6	Velocidad del viento	6.4
76558	7	Sololá	702	San José Chacayá	5	Chacayá	2	Febrero	2023-03-02T00:00:00	2024-11-06T18:00:00	7	Dirección del viento	6.44
76559	7	Sololá	702	San José Chacayá	5	Chacayá	2	Febrero	2023-03-02T00:00:00	2024-11-06T18:00:00	1	Precipitación	0
76560	7	Sololá	702	San José Chacayá	5	Chacayá	2	Febrero	2023-03-02T00:00:00	2024-11-06T18:00:00	8	Radiación solar	31
76561	7	Sololá	702	San José Chacayá	5	Chacayá	2	Febrero	2023-03-02T00:00:00	2024-11-06T19:00:00	2	Temperatura media	12.4
76562	7	Sololá	702	San José Chacayá	5	Chacayá	2	Febrero	2023-03-02T00:00:00	2024-11-06T19:00:00	4	Temperatura máxima	12.4
76563	7	Sololá	702	San José Chacayá	5	Chacayá	2	Febrero	2023-03-02T00:00:00	2024-11-06T19:00:00	3	Temperatura mínima	12.1
76564	7	Sololá	702	San José Chacayá	5	Chacayá	2	Febrero	2023-03-02T00:00:00	2024-11-06T19:00:00	5	Humedad	73
76565	7	Sololá	702	San José Chacayá	5	Chacayá	2	Febrero	2023-03-02T00:00:00	2024-11-06T19:00:00	6	Velocidad del viento	8
76566	7	Sololá	702	San José Chacayá	5	Chacayá	2	Febrero	2023-03-02T00:00:00	2024-11-06T19:00:00	7	Dirección del viento	8.05
76567	7	Sololá	702	San José Chacayá	5	Chacayá	2	Febrero	2023-03-02T00:00:00	2024-11-06T19:00:00	1	Precipitación	0
76568	7	Sololá	702	San José Chacayá	5	Chacayá	2	Febrero	2023-03-02T00:00:00	2024-11-06T19:00:00	8	Radiación solar	0
76569	7	Sololá	702	San José Chacayá	5	Chacayá	2	Febrero	2023-03-02T00:00:00	2024-11-06T20:00:00	2	Temperatura media	12.3
76570	7	Sololá	702	San José Chacayá	5	Chacayá	2	Febrero	2023-03-02T00:00:00	2024-11-06T20:00:00	4	Temperatura máxima	12.6
76571	7	Sololá	702	San José Chacayá	5	Chacayá	2	Febrero	2023-03-02T00:00:00	2024-11-06T20:00:00	3	Temperatura mínima	12.1
76572	7	Sololá	702	San José Chacayá	5	Chacayá	2	Febrero	2023-03-02T00:00:00	2024-11-06T20:00:00	5	Humedad	73
76573	7	Sololá	702	San José Chacayá	5	Chacayá	2	Febrero	2023-03-02T00:00:00	2024-11-06T20:00:00	6	Velocidad del viento	4.8
76574	7	Sololá	702	San José Chacayá	5	Chacayá	2	Febrero	2023-03-02T00:00:00	2024-11-06T20:00:00	7	Dirección del viento	4.83
76575	7	Sololá	702	San José Chacayá	5	Chacayá	2	Febrero	2023-03-02T00:00:00	2024-11-06T20:00:00	1	Precipitación	0
76576	7	Sololá	702	San José Chacayá	5	Chacayá	2	Febrero	2023-03-02T00:00:00	2024-11-06T20:00:00	8	Radiación solar	0
76577	7	Sololá	702	San José Chacayá	5	Chacayá	2	Febrero	2023-03-02T00:00:00	2024-11-06T21:00:00	2	Temperatura media	11.8
76578	7	Sololá	702	San José Chacayá	5	Chacayá	2	Febrero	2023-03-02T00:00:00	2024-11-06T21:00:00	4	Temperatura máxima	12.4
76579	7	Sololá	702	San José Chacayá	5	Chacayá	2	Febrero	2023-03-02T00:00:00	2024-11-06T21:00:00	3	Temperatura mínima	11.8
76580	7	Sololá	702	San José Chacayá	5	Chacayá	2	Febrero	2023-03-02T00:00:00	2024-11-06T21:00:00	5	Humedad	77
76581	7	Sololá	702	San José Chacayá	5	Chacayá	2	Febrero	2023-03-02T00:00:00	2024-11-06T21:00:00	6	Velocidad del viento	4.8
76582	7	Sololá	702	San José Chacayá	5	Chacayá	2	Febrero	2023-03-02T00:00:00	2024-11-06T21:00:00	7	Dirección del viento	4.83
76583	7	Sololá	702	San José Chacayá	5	Chacayá	2	Febrero	2023-03-02T00:00:00	2024-11-06T21:00:00	1	Precipitación	0
76584	7	Sololá	702	San José Chacayá	5	Chacayá	2	Febrero	2023-03-02T00:00:00	2024-11-06T21:00:00	8	Radiación solar	0
76585	7	Sololá	702	San José Chacayá	5	Chacayá	2	Febrero	2023-03-02T00:00:00	2024-11-06T22:00:00	2	Temperatura media	11.7
76586	7	Sololá	702	San José Chacayá	5	Chacayá	2	Febrero	2023-03-02T00:00:00	2024-11-06T22:00:00	4	Temperatura máxima	12.3
76587	7	Sololá	702	San José Chacayá	5	Chacayá	2	Febrero	2023-03-02T00:00:00	2024-11-06T22:00:00	3	Temperatura mínima	11.7
76588	7	Sololá	702	San José Chacayá	5	Chacayá	2	Febrero	2023-03-02T00:00:00	2024-11-06T22:00:00	5	Humedad	84
76589	7	Sololá	702	San José Chacayá	5	Chacayá	2	Febrero	2023-03-02T00:00:00	2024-11-06T22:00:00	6	Velocidad del viento	4.8
76590	7	Sololá	702	San José Chacayá	5	Chacayá	2	Febrero	2023-03-02T00:00:00	2024-11-06T22:00:00	7	Dirección del viento	4.83
76591	7	Sololá	702	San José Chacayá	5	Chacayá	2	Febrero	2023-03-02T00:00:00	2024-11-06T22:00:00	1	Precipitación	0
76592	7	Sololá	702	San José Chacayá	5	Chacayá	2	Febrero	2023-03-02T00:00:00	2024-11-06T22:00:00	8	Radiación solar	0
76593	7	Sololá	702	San José Chacayá	5	Chacayá	2	Febrero	2023-03-02T00:00:00	2024-11-06T23:00:00	2	Temperatura media	11.6
76594	7	Sololá	702	San José Chacayá	5	Chacayá	2	Febrero	2023-03-02T00:00:00	2024-11-06T23:00:00	4	Temperatura máxima	11.7
76595	7	Sololá	702	San José Chacayá	5	Chacayá	2	Febrero	2023-03-02T00:00:00	2024-11-06T23:00:00	3	Temperatura mínima	11.1
76596	7	Sololá	702	San José Chacayá	5	Chacayá	2	Febrero	2023-03-02T00:00:00	2024-11-06T23:00:00	5	Humedad	84
76597	7	Sololá	702	San José Chacayá	5	Chacayá	2	Febrero	2023-03-02T00:00:00	2024-11-06T23:00:00	6	Velocidad del viento	6.4
76598	7	Sololá	702	San José Chacayá	5	Chacayá	2	Febrero	2023-03-02T00:00:00	2024-11-06T23:00:00	7	Dirección del viento	6.44
76599	7	Sololá	702	San José Chacayá	5	Chacayá	2	Febrero	2023-03-02T00:00:00	2024-11-06T23:00:00	1	Precipitación	0
76600	7	Sololá	702	San José Chacayá	5	Chacayá	2	Febrero	2023-03-02T00:00:00	2024-11-06T23:00:00	8	Radiación solar	0
76601	7	Sololá	702	San José Chacayá	5	Chacayá	2	Febrero	2023-04-02T00:00:00	2024-11-06T00:00:00	2	Temperatura media	11.6
76602	7	Sololá	702	San José Chacayá	5	Chacayá	2	Febrero	2023-04-02T00:00:00	2024-11-06T00:00:00	4	Temperatura máxima	12
76603	7	Sololá	702	San José Chacayá	5	Chacayá	2	Febrero	2023-04-02T00:00:00	2024-11-06T00:00:00	3	Temperatura mínima	11.5
76604	7	Sololá	702	San José Chacayá	5	Chacayá	2	Febrero	2023-04-02T00:00:00	2024-11-06T00:00:00	5	Humedad	86
76605	7	Sololá	702	San José Chacayá	5	Chacayá	2	Febrero	2023-04-02T00:00:00	2024-11-06T00:00:00	6	Velocidad del viento	8
76606	7	Sololá	702	San José Chacayá	5	Chacayá	2	Febrero	2023-04-02T00:00:00	2024-11-06T00:00:00	7	Dirección del viento	8.05
76607	7	Sololá	702	San José Chacayá	5	Chacayá	2	Febrero	2023-04-02T00:00:00	2024-11-06T00:00:00	1	Precipitación	0
76608	7	Sololá	702	San José Chacayá	5	Chacayá	2	Febrero	2023-04-02T00:00:00	2024-11-06T00:00:00	8	Radiación solar	0
76609	7	Sololá	702	San José Chacayá	5	Chacayá	2	Febrero	2023-04-02T00:00:00	2024-11-06T01:00:00	2	Temperatura media	11.3
76610	7	Sololá	702	San José Chacayá	5	Chacayá	2	Febrero	2023-04-02T00:00:00	2024-11-06T01:00:00	4	Temperatura máxima	11.6
76611	7	Sololá	702	San José Chacayá	5	Chacayá	2	Febrero	2023-04-02T00:00:00	2024-11-06T01:00:00	3	Temperatura mínima	11.2
76612	7	Sololá	702	San José Chacayá	5	Chacayá	2	Febrero	2023-04-02T00:00:00	2024-11-06T01:00:00	5	Humedad	86
76613	7	Sololá	702	San José Chacayá	5	Chacayá	2	Febrero	2023-04-02T00:00:00	2024-11-06T01:00:00	6	Velocidad del viento	6.4
76614	7	Sololá	702	San José Chacayá	5	Chacayá	2	Febrero	2023-04-02T00:00:00	2024-11-06T01:00:00	7	Dirección del viento	6.44
76615	7	Sololá	702	San José Chacayá	5	Chacayá	2	Febrero	2023-04-02T00:00:00	2024-11-06T01:00:00	1	Precipitación	0
76616	7	Sololá	702	San José Chacayá	5	Chacayá	2	Febrero	2023-04-02T00:00:00	2024-11-06T01:00:00	8	Radiación solar	0
76617	7	Sololá	702	San José Chacayá	5	Chacayá	2	Febrero	2023-04-02T00:00:00	2024-11-06T02:00:00	2	Temperatura media	11.9
76618	7	Sololá	702	San José Chacayá	5	Chacayá	2	Febrero	2023-04-02T00:00:00	2024-11-06T02:00:00	4	Temperatura máxima	12.1
76619	7	Sololá	702	San José Chacayá	5	Chacayá	2	Febrero	2023-04-02T00:00:00	2024-11-06T02:00:00	3	Temperatura mínima	11.3
76620	7	Sololá	702	San José Chacayá	5	Chacayá	2	Febrero	2023-04-02T00:00:00	2024-11-06T02:00:00	5	Humedad	81
76621	7	Sololá	702	San José Chacayá	5	Chacayá	2	Febrero	2023-04-02T00:00:00	2024-11-06T02:00:00	6	Velocidad del viento	4.8
76622	7	Sololá	702	San José Chacayá	5	Chacayá	2	Febrero	2023-04-02T00:00:00	2024-11-06T02:00:00	7	Dirección del viento	4.83
76623	7	Sololá	702	San José Chacayá	5	Chacayá	2	Febrero	2023-04-02T00:00:00	2024-11-06T02:00:00	1	Precipitación	0
76624	7	Sololá	702	San José Chacayá	5	Chacayá	2	Febrero	2023-04-02T00:00:00	2024-11-06T02:00:00	8	Radiación solar	0
76625	7	Sololá	702	San José Chacayá	5	Chacayá	2	Febrero	2023-04-02T00:00:00	2024-11-06T03:00:00	2	Temperatura media	12.2
76626	7	Sololá	702	San José Chacayá	5	Chacayá	2	Febrero	2023-04-02T00:00:00	2024-11-06T03:00:00	4	Temperatura máxima	12.3
76627	7	Sololá	702	San José Chacayá	5	Chacayá	2	Febrero	2023-04-02T00:00:00	2024-11-06T03:00:00	3	Temperatura mínima	11.9
76628	7	Sololá	702	San José Chacayá	5	Chacayá	2	Febrero	2023-04-02T00:00:00	2024-11-06T03:00:00	5	Humedad	79
76629	7	Sololá	702	San José Chacayá	5	Chacayá	2	Febrero	2023-04-02T00:00:00	2024-11-06T03:00:00	6	Velocidad del viento	6.4
76630	7	Sololá	702	San José Chacayá	5	Chacayá	2	Febrero	2023-04-02T00:00:00	2024-11-06T03:00:00	7	Dirección del viento	6.44
76631	7	Sololá	702	San José Chacayá	5	Chacayá	2	Febrero	2023-04-02T00:00:00	2024-11-06T03:00:00	1	Precipitación	0
76632	7	Sololá	702	San José Chacayá	5	Chacayá	2	Febrero	2023-04-02T00:00:00	2024-11-06T03:00:00	8	Radiación solar	0
76633	7	Sololá	702	San José Chacayá	5	Chacayá	2	Febrero	2023-04-02T00:00:00	2024-11-06T04:00:00	2	Temperatura media	11.6
76634	7	Sololá	702	San José Chacayá	5	Chacayá	2	Febrero	2023-04-02T00:00:00	2024-11-06T04:00:00	4	Temperatura máxima	12.4
76635	7	Sololá	702	San José Chacayá	5	Chacayá	2	Febrero	2023-04-02T00:00:00	2024-11-06T04:00:00	3	Temperatura mínima	11.6
76636	7	Sololá	702	San José Chacayá	5	Chacayá	2	Febrero	2023-04-02T00:00:00	2024-11-06T04:00:00	5	Humedad	83
76637	7	Sololá	702	San José Chacayá	5	Chacayá	2	Febrero	2023-04-02T00:00:00	2024-11-06T04:00:00	6	Velocidad del viento	4.8
76638	7	Sololá	702	San José Chacayá	5	Chacayá	2	Febrero	2023-04-02T00:00:00	2024-11-06T04:00:00	7	Dirección del viento	4.83
76639	7	Sololá	702	San José Chacayá	5	Chacayá	2	Febrero	2023-04-02T00:00:00	2024-11-06T04:00:00	1	Precipitación	0
76640	7	Sololá	702	San José Chacayá	5	Chacayá	2	Febrero	2023-04-02T00:00:00	2024-11-06T04:00:00	8	Radiación solar	0
76641	7	Sololá	702	San José Chacayá	5	Chacayá	2	Febrero	2023-04-02T00:00:00	2024-11-06T05:00:00	2	Temperatura media	11.6
76642	7	Sololá	702	San José Chacayá	5	Chacayá	2	Febrero	2023-04-02T00:00:00	2024-11-06T05:00:00	4	Temperatura máxima	11.6
76643	7	Sololá	702	San José Chacayá	5	Chacayá	2	Febrero	2023-04-02T00:00:00	2024-11-06T05:00:00	3	Temperatura mínima	11.4
76644	7	Sololá	702	San José Chacayá	5	Chacayá	2	Febrero	2023-04-02T00:00:00	2024-11-06T05:00:00	5	Humedad	82
76645	7	Sololá	702	San José Chacayá	5	Chacayá	2	Febrero	2023-04-02T00:00:00	2024-11-06T05:00:00	6	Velocidad del viento	4.8
76646	7	Sololá	702	San José Chacayá	5	Chacayá	2	Febrero	2023-04-02T00:00:00	2024-11-06T05:00:00	7	Dirección del viento	4.83
76647	7	Sololá	702	San José Chacayá	5	Chacayá	2	Febrero	2023-04-02T00:00:00	2024-11-06T05:00:00	1	Precipitación	0
76648	7	Sololá	702	San José Chacayá	5	Chacayá	2	Febrero	2023-04-02T00:00:00	2024-11-06T05:00:00	8	Radiación solar	0
76649	7	Sololá	702	San José Chacayá	5	Chacayá	2	Febrero	2023-04-02T00:00:00	2024-11-06T06:00:00	2	Temperatura media	11.9
76650	7	Sololá	702	San José Chacayá	5	Chacayá	2	Febrero	2023-04-02T00:00:00	2024-11-06T06:00:00	4	Temperatura máxima	12
76651	7	Sololá	702	San José Chacayá	5	Chacayá	2	Febrero	2023-04-02T00:00:00	2024-11-06T06:00:00	3	Temperatura mínima	11.6
76652	7	Sololá	702	San José Chacayá	5	Chacayá	2	Febrero	2023-04-02T00:00:00	2024-11-06T06:00:00	5	Humedad	81
76653	7	Sololá	702	San José Chacayá	5	Chacayá	2	Febrero	2023-04-02T00:00:00	2024-11-06T06:00:00	6	Velocidad del viento	3.2
76654	7	Sololá	702	San José Chacayá	5	Chacayá	2	Febrero	2023-04-02T00:00:00	2024-11-06T06:00:00	7	Dirección del viento	3.22
76655	7	Sololá	702	San José Chacayá	5	Chacayá	2	Febrero	2023-04-02T00:00:00	2024-11-06T06:00:00	1	Precipitación	0
76656	7	Sololá	702	San José Chacayá	5	Chacayá	2	Febrero	2023-04-02T00:00:00	2024-11-06T06:00:00	8	Radiación solar	0
76657	7	Sololá	702	San José Chacayá	5	Chacayá	2	Febrero	2023-04-02T00:00:00	2024-11-06T07:00:00	2	Temperatura media	13.1
76658	7	Sololá	702	San José Chacayá	5	Chacayá	2	Febrero	2023-04-02T00:00:00	2024-11-06T07:00:00	4	Temperatura máxima	13.6
76659	7	Sololá	702	San José Chacayá	5	Chacayá	2	Febrero	2023-04-02T00:00:00	2024-11-06T07:00:00	3	Temperatura mínima	11.9
76660	7	Sololá	702	San José Chacayá	5	Chacayá	2	Febrero	2023-04-02T00:00:00	2024-11-06T07:00:00	5	Humedad	71
76661	7	Sololá	702	San José Chacayá	5	Chacayá	2	Febrero	2023-04-02T00:00:00	2024-11-06T07:00:00	6	Velocidad del viento	6.4
76662	7	Sololá	702	San José Chacayá	5	Chacayá	2	Febrero	2023-04-02T00:00:00	2024-11-06T07:00:00	7	Dirección del viento	6.44
76663	7	Sololá	702	San José Chacayá	5	Chacayá	2	Febrero	2023-04-02T00:00:00	2024-11-06T07:00:00	1	Precipitación	0
76664	7	Sololá	702	San José Chacayá	5	Chacayá	2	Febrero	2023-04-02T00:00:00	2024-11-06T07:00:00	8	Radiación solar	7
76665	7	Sololá	702	San José Chacayá	5	Chacayá	2	Febrero	2023-04-02T00:00:00	2024-11-06T08:00:00	2	Temperatura media	13.8
76666	7	Sololá	702	San José Chacayá	5	Chacayá	2	Febrero	2023-04-02T00:00:00	2024-11-06T08:00:00	4	Temperatura máxima	13.9
76667	7	Sololá	702	San José Chacayá	5	Chacayá	2	Febrero	2023-04-02T00:00:00	2024-11-06T08:00:00	3	Temperatura mínima	13
76668	7	Sololá	702	San José Chacayá	5	Chacayá	2	Febrero	2023-04-02T00:00:00	2024-11-06T08:00:00	5	Humedad	64
76669	7	Sololá	702	San José Chacayá	5	Chacayá	2	Febrero	2023-04-02T00:00:00	2024-11-06T08:00:00	6	Velocidad del viento	9.7
76670	7	Sololá	702	San José Chacayá	5	Chacayá	2	Febrero	2023-04-02T00:00:00	2024-11-06T08:00:00	7	Dirección del viento	9.66
76671	7	Sololá	702	San José Chacayá	5	Chacayá	2	Febrero	2023-04-02T00:00:00	2024-11-06T08:00:00	1	Precipitación	0
76672	7	Sololá	702	San José Chacayá	5	Chacayá	2	Febrero	2023-04-02T00:00:00	2024-11-06T08:00:00	8	Radiación solar	175
76673	7	Sololá	702	San José Chacayá	5	Chacayá	2	Febrero	2023-04-02T00:00:00	2024-11-06T09:00:00	2	Temperatura media	15.3
76674	7	Sololá	702	San José Chacayá	5	Chacayá	2	Febrero	2023-04-02T00:00:00	2024-11-06T09:00:00	4	Temperatura máxima	15.3
76675	7	Sololá	702	San José Chacayá	5	Chacayá	2	Febrero	2023-04-02T00:00:00	2024-11-06T09:00:00	3	Temperatura mínima	13.8
76676	7	Sololá	702	San José Chacayá	5	Chacayá	2	Febrero	2023-04-02T00:00:00	2024-11-06T09:00:00	5	Humedad	63
76677	7	Sololá	702	San José Chacayá	5	Chacayá	2	Febrero	2023-04-02T00:00:00	2024-11-06T09:00:00	6	Velocidad del viento	9.7
76678	7	Sololá	702	San José Chacayá	5	Chacayá	2	Febrero	2023-04-02T00:00:00	2024-11-06T09:00:00	7	Dirección del viento	9.66
76679	7	Sololá	702	San José Chacayá	5	Chacayá	2	Febrero	2023-04-02T00:00:00	2024-11-06T09:00:00	1	Precipitación	0
76680	7	Sololá	702	San José Chacayá	5	Chacayá	2	Febrero	2023-04-02T00:00:00	2024-11-06T09:00:00	8	Radiación solar	443
76681	7	Sololá	702	San José Chacayá	5	Chacayá	2	Febrero	2023-04-02T00:00:00	2024-11-06T10:00:00	2	Temperatura media	17.3
76682	7	Sololá	702	San José Chacayá	5	Chacayá	2	Febrero	2023-04-02T00:00:00	2024-11-06T10:00:00	4	Temperatura máxima	17.3
76683	7	Sololá	702	San José Chacayá	5	Chacayá	2	Febrero	2023-04-02T00:00:00	2024-11-06T10:00:00	3	Temperatura mínima	15.1
76684	7	Sololá	702	San José Chacayá	5	Chacayá	2	Febrero	2023-04-02T00:00:00	2024-11-06T10:00:00	5	Humedad	61
76685	7	Sololá	702	San José Chacayá	5	Chacayá	2	Febrero	2023-04-02T00:00:00	2024-11-06T10:00:00	6	Velocidad del viento	9.7
76686	7	Sololá	702	San José Chacayá	5	Chacayá	2	Febrero	2023-04-02T00:00:00	2024-11-06T10:00:00	7	Dirección del viento	9.66
76687	7	Sololá	702	San José Chacayá	5	Chacayá	2	Febrero	2023-04-02T00:00:00	2024-11-06T10:00:00	1	Precipitación	0
76688	7	Sololá	702	San José Chacayá	5	Chacayá	2	Febrero	2023-04-02T00:00:00	2024-11-06T10:00:00	8	Radiación solar	455
76689	7	Sololá	702	San José Chacayá	5	Chacayá	2	Febrero	2023-04-02T00:00:00	2024-11-06T11:00:00	2	Temperatura media	17
76690	7	Sololá	702	San José Chacayá	5	Chacayá	2	Febrero	2023-04-02T00:00:00	2024-11-06T11:00:00	4	Temperatura máxima	18.3
76691	7	Sololá	702	San José Chacayá	5	Chacayá	2	Febrero	2023-04-02T00:00:00	2024-11-06T11:00:00	3	Temperatura mínima	16.8
76692	7	Sololá	702	San José Chacayá	5	Chacayá	2	Febrero	2023-04-02T00:00:00	2024-11-06T11:00:00	5	Humedad	64
76693	7	Sololá	702	San José Chacayá	5	Chacayá	2	Febrero	2023-04-02T00:00:00	2024-11-06T11:00:00	6	Velocidad del viento	9.7
76694	7	Sololá	702	San José Chacayá	5	Chacayá	2	Febrero	2023-04-02T00:00:00	2024-11-06T11:00:00	7	Dirección del viento	9.66
76695	7	Sololá	702	San José Chacayá	5	Chacayá	2	Febrero	2023-04-02T00:00:00	2024-11-06T11:00:00	1	Precipitación	0
76696	7	Sololá	702	San José Chacayá	5	Chacayá	2	Febrero	2023-04-02T00:00:00	2024-11-06T11:00:00	8	Radiación solar	39
76697	7	Sololá	702	San José Chacayá	5	Chacayá	2	Febrero	2023-04-02T00:00:00	2024-11-06T12:00:00	2	Temperatura media	17.8
76698	7	Sololá	702	San José Chacayá	5	Chacayá	2	Febrero	2023-04-02T00:00:00	2024-11-06T12:00:00	4	Temperatura máxima	18.1
76699	7	Sololá	702	San José Chacayá	5	Chacayá	2	Febrero	2023-04-02T00:00:00	2024-11-06T12:00:00	3	Temperatura mínima	16.5
76700	7	Sololá	702	San José Chacayá	5	Chacayá	2	Febrero	2023-04-02T00:00:00	2024-11-06T12:00:00	5	Humedad	61
76701	7	Sololá	702	San José Chacayá	5	Chacayá	2	Febrero	2023-04-02T00:00:00	2024-11-06T12:00:00	6	Velocidad del viento	9.7
76702	7	Sololá	702	San José Chacayá	5	Chacayá	2	Febrero	2023-04-02T00:00:00	2024-11-06T12:00:00	7	Dirección del viento	9.66
76703	7	Sololá	702	San José Chacayá	5	Chacayá	2	Febrero	2023-04-02T00:00:00	2024-11-06T12:00:00	1	Precipitación	0
76704	7	Sololá	702	San José Chacayá	5	Chacayá	2	Febrero	2023-04-02T00:00:00	2024-11-06T12:00:00	8	Radiación solar	500
76705	7	Sololá	702	San José Chacayá	5	Chacayá	2	Febrero	2023-04-02T00:00:00	2024-11-06T13:00:00	2	Temperatura media	19.1
76706	7	Sololá	702	San José Chacayá	5	Chacayá	2	Febrero	2023-04-02T00:00:00	2024-11-06T13:00:00	4	Temperatura máxima	19.2
76707	7	Sololá	702	San José Chacayá	5	Chacayá	2	Febrero	2023-04-02T00:00:00	2024-11-06T13:00:00	3	Temperatura mínima	17.5
76708	7	Sololá	702	San José Chacayá	5	Chacayá	2	Febrero	2023-04-02T00:00:00	2024-11-06T13:00:00	5	Humedad	57
76709	7	Sololá	702	San José Chacayá	5	Chacayá	2	Febrero	2023-04-02T00:00:00	2024-11-06T13:00:00	6	Velocidad del viento	8
76710	7	Sololá	702	San José Chacayá	5	Chacayá	2	Febrero	2023-04-02T00:00:00	2024-11-06T13:00:00	7	Dirección del viento	8.05
76711	7	Sololá	702	San José Chacayá	5	Chacayá	2	Febrero	2023-04-02T00:00:00	2024-11-06T13:00:00	1	Precipitación	0
76712	7	Sololá	702	San José Chacayá	5	Chacayá	2	Febrero	2023-04-02T00:00:00	2024-11-06T13:00:00	8	Radiación solar	898
76713	7	Sololá	702	San José Chacayá	5	Chacayá	2	Febrero	2023-04-02T00:00:00	2024-11-06T14:00:00	2	Temperatura media	18.8
76714	7	Sololá	702	San José Chacayá	5	Chacayá	2	Febrero	2023-04-02T00:00:00	2024-11-06T14:00:00	4	Temperatura máxima	19.6
76715	7	Sololá	702	San José Chacayá	5	Chacayá	2	Febrero	2023-04-02T00:00:00	2024-11-06T14:00:00	3	Temperatura mínima	18.6
76716	7	Sololá	702	San José Chacayá	5	Chacayá	2	Febrero	2023-04-02T00:00:00	2024-11-06T14:00:00	5	Humedad	57
76717	7	Sololá	702	San José Chacayá	5	Chacayá	2	Febrero	2023-04-02T00:00:00	2024-11-06T14:00:00	6	Velocidad del viento	8
76718	7	Sololá	702	San José Chacayá	5	Chacayá	2	Febrero	2023-04-02T00:00:00	2024-11-06T14:00:00	7	Dirección del viento	8.05
76719	7	Sololá	702	San José Chacayá	5	Chacayá	2	Febrero	2023-04-02T00:00:00	2024-11-06T14:00:00	1	Precipitación	0
76720	7	Sololá	702	San José Chacayá	5	Chacayá	2	Febrero	2023-04-02T00:00:00	2024-11-06T14:00:00	8	Radiación solar	836
76721	7	Sololá	702	San José Chacayá	5	Chacayá	2	Febrero	2023-04-02T00:00:00	2024-11-06T15:00:00	2	Temperatura media	18.1
76722	7	Sololá	702	San José Chacayá	5	Chacayá	2	Febrero	2023-04-02T00:00:00	2024-11-06T15:00:00	4	Temperatura máxima	19.3
76723	7	Sololá	702	San José Chacayá	5	Chacayá	2	Febrero	2023-04-02T00:00:00	2024-11-06T15:00:00	3	Temperatura mínima	18.1
76724	7	Sololá	702	San José Chacayá	5	Chacayá	2	Febrero	2023-04-02T00:00:00	2024-11-06T15:00:00	5	Humedad	60
76725	7	Sololá	702	San José Chacayá	5	Chacayá	2	Febrero	2023-04-02T00:00:00	2024-11-06T15:00:00	6	Velocidad del viento	6.4
76726	7	Sololá	702	San José Chacayá	5	Chacayá	2	Febrero	2023-04-02T00:00:00	2024-11-06T15:00:00	7	Dirección del viento	6.44
76727	7	Sololá	702	San José Chacayá	5	Chacayá	2	Febrero	2023-04-02T00:00:00	2024-11-06T15:00:00	1	Precipitación	0
76728	7	Sololá	702	San José Chacayá	5	Chacayá	2	Febrero	2023-04-02T00:00:00	2024-11-06T15:00:00	8	Radiación solar	718
76729	7	Sololá	702	San José Chacayá	5	Chacayá	2	Febrero	2023-04-02T00:00:00	2024-11-06T16:00:00	2	Temperatura media	16.4
76730	7	Sololá	702	San José Chacayá	5	Chacayá	2	Febrero	2023-04-02T00:00:00	2024-11-06T16:00:00	4	Temperatura máxima	18.1
76731	7	Sololá	702	San José Chacayá	5	Chacayá	2	Febrero	2023-04-02T00:00:00	2024-11-06T16:00:00	3	Temperatura mínima	16.3
76732	7	Sololá	702	San José Chacayá	5	Chacayá	2	Febrero	2023-04-02T00:00:00	2024-11-06T16:00:00	5	Humedad	64
76733	7	Sololá	702	San José Chacayá	5	Chacayá	2	Febrero	2023-04-02T00:00:00	2024-11-06T16:00:00	6	Velocidad del viento	4.8
76734	7	Sololá	702	San José Chacayá	5	Chacayá	2	Febrero	2023-04-02T00:00:00	2024-11-06T16:00:00	7	Dirección del viento	4.83
76735	7	Sololá	702	San José Chacayá	5	Chacayá	2	Febrero	2023-04-02T00:00:00	2024-11-06T16:00:00	1	Precipitación	0
76736	7	Sololá	702	San José Chacayá	5	Chacayá	2	Febrero	2023-04-02T00:00:00	2024-11-06T16:00:00	8	Radiación solar	326
76737	7	Sololá	702	San José Chacayá	5	Chacayá	2	Febrero	2023-04-02T00:00:00	2024-11-06T17:00:00	2	Temperatura media	14
76738	7	Sololá	702	San José Chacayá	5	Chacayá	2	Febrero	2023-04-02T00:00:00	2024-11-06T17:00:00	4	Temperatura máxima	16.4
76739	7	Sololá	702	San José Chacayá	5	Chacayá	2	Febrero	2023-04-02T00:00:00	2024-11-06T17:00:00	3	Temperatura mínima	13.9
76740	7	Sololá	702	San José Chacayá	5	Chacayá	2	Febrero	2023-04-02T00:00:00	2024-11-06T17:00:00	5	Humedad	74
76741	7	Sololá	702	San José Chacayá	5	Chacayá	2	Febrero	2023-04-02T00:00:00	2024-11-06T17:00:00	6	Velocidad del viento	6.4
76742	7	Sololá	702	San José Chacayá	5	Chacayá	2	Febrero	2023-04-02T00:00:00	2024-11-06T17:00:00	7	Dirección del viento	6.44
76743	7	Sololá	702	San José Chacayá	5	Chacayá	2	Febrero	2023-04-02T00:00:00	2024-11-06T17:00:00	1	Precipitación	0
76744	7	Sololá	702	San José Chacayá	5	Chacayá	2	Febrero	2023-04-02T00:00:00	2024-11-06T17:00:00	8	Radiación solar	132
76745	7	Sololá	702	San José Chacayá	5	Chacayá	2	Febrero	2023-04-02T00:00:00	2024-11-06T18:00:00	2	Temperatura media	13.1
76746	7	Sololá	702	San José Chacayá	5	Chacayá	2	Febrero	2023-04-02T00:00:00	2024-11-06T18:00:00	4	Temperatura máxima	13.9
76747	7	Sololá	702	San José Chacayá	5	Chacayá	2	Febrero	2023-04-02T00:00:00	2024-11-06T18:00:00	3	Temperatura mínima	13.1
76748	7	Sololá	702	San José Chacayá	5	Chacayá	2	Febrero	2023-04-02T00:00:00	2024-11-06T18:00:00	5	Humedad	79
76749	7	Sololá	702	San José Chacayá	5	Chacayá	2	Febrero	2023-04-02T00:00:00	2024-11-06T18:00:00	6	Velocidad del viento	6.4
76750	7	Sololá	702	San José Chacayá	5	Chacayá	2	Febrero	2023-04-02T00:00:00	2024-11-06T18:00:00	7	Dirección del viento	6.44
76751	7	Sololá	702	San José Chacayá	5	Chacayá	2	Febrero	2023-04-02T00:00:00	2024-11-06T18:00:00	1	Precipitación	0
76752	7	Sololá	702	San José Chacayá	5	Chacayá	2	Febrero	2023-04-02T00:00:00	2024-11-06T18:00:00	8	Radiación solar	40
76753	7	Sololá	702	San José Chacayá	5	Chacayá	2	Febrero	2023-04-02T00:00:00	2024-11-06T19:00:00	2	Temperatura media	12.6
76754	7	Sololá	702	San José Chacayá	5	Chacayá	2	Febrero	2023-04-02T00:00:00	2024-11-06T19:00:00	4	Temperatura máxima	13.1
76755	7	Sololá	702	San José Chacayá	5	Chacayá	2	Febrero	2023-04-02T00:00:00	2024-11-06T19:00:00	3	Temperatura mínima	12.5
76756	7	Sololá	702	San José Chacayá	5	Chacayá	2	Febrero	2023-04-02T00:00:00	2024-11-06T19:00:00	5	Humedad	80
76757	7	Sololá	702	San José Chacayá	5	Chacayá	2	Febrero	2023-04-02T00:00:00	2024-11-06T19:00:00	6	Velocidad del viento	6.4
76758	7	Sololá	702	San José Chacayá	5	Chacayá	2	Febrero	2023-04-02T00:00:00	2024-11-06T19:00:00	7	Dirección del viento	6.44
76759	7	Sololá	702	San José Chacayá	5	Chacayá	2	Febrero	2023-04-02T00:00:00	2024-11-06T19:00:00	1	Precipitación	0
76760	7	Sololá	702	San José Chacayá	5	Chacayá	2	Febrero	2023-04-02T00:00:00	2024-11-06T19:00:00	8	Radiación solar	0
76761	7	Sololá	702	San José Chacayá	5	Chacayá	2	Febrero	2023-04-02T00:00:00	2024-11-06T20:00:00	2	Temperatura media	12.6
76762	7	Sololá	702	San José Chacayá	5	Chacayá	2	Febrero	2023-04-02T00:00:00	2024-11-06T20:00:00	4	Temperatura máxima	12.7
76763	7	Sololá	702	San José Chacayá	5	Chacayá	2	Febrero	2023-04-02T00:00:00	2024-11-06T20:00:00	3	Temperatura mínima	12.5
76764	7	Sololá	702	San José Chacayá	5	Chacayá	2	Febrero	2023-04-02T00:00:00	2024-11-06T20:00:00	5	Humedad	77
76765	7	Sololá	702	San José Chacayá	5	Chacayá	2	Febrero	2023-04-02T00:00:00	2024-11-06T20:00:00	6	Velocidad del viento	8
76766	7	Sololá	702	San José Chacayá	5	Chacayá	2	Febrero	2023-04-02T00:00:00	2024-11-06T20:00:00	7	Dirección del viento	8.05
76767	7	Sololá	702	San José Chacayá	5	Chacayá	2	Febrero	2023-04-02T00:00:00	2024-11-06T20:00:00	1	Precipitación	0
76768	7	Sololá	702	San José Chacayá	5	Chacayá	2	Febrero	2023-04-02T00:00:00	2024-11-06T20:00:00	8	Radiación solar	0
76769	7	Sololá	702	San José Chacayá	5	Chacayá	2	Febrero	2023-04-02T00:00:00	2024-11-06T21:00:00	2	Temperatura media	12.9
76770	7	Sololá	702	San José Chacayá	5	Chacayá	2	Febrero	2023-04-02T00:00:00	2024-11-06T21:00:00	4	Temperatura máxima	12.9
76771	7	Sololá	702	San José Chacayá	5	Chacayá	2	Febrero	2023-04-02T00:00:00	2024-11-06T21:00:00	3	Temperatura mínima	12.6
76772	7	Sololá	702	San José Chacayá	5	Chacayá	2	Febrero	2023-04-02T00:00:00	2024-11-06T21:00:00	5	Humedad	74
76773	7	Sololá	702	San José Chacayá	5	Chacayá	2	Febrero	2023-04-02T00:00:00	2024-11-06T21:00:00	6	Velocidad del viento	6.4
76774	7	Sololá	702	San José Chacayá	5	Chacayá	2	Febrero	2023-04-02T00:00:00	2024-11-06T21:00:00	7	Dirección del viento	6.44
76775	7	Sololá	702	San José Chacayá	5	Chacayá	2	Febrero	2023-04-02T00:00:00	2024-11-06T21:00:00	1	Precipitación	0
76776	7	Sololá	702	San José Chacayá	5	Chacayá	2	Febrero	2023-04-02T00:00:00	2024-11-06T21:00:00	8	Radiación solar	0
76777	7	Sololá	702	San José Chacayá	5	Chacayá	2	Febrero	2023-04-02T00:00:00	2024-11-06T22:00:00	2	Temperatura media	12.4
76778	7	Sololá	702	San José Chacayá	5	Chacayá	2	Febrero	2023-04-02T00:00:00	2024-11-06T22:00:00	4	Temperatura máxima	12.9
76779	7	Sololá	702	San José Chacayá	5	Chacayá	2	Febrero	2023-04-02T00:00:00	2024-11-06T22:00:00	3	Temperatura mínima	12.4
76780	7	Sololá	702	San José Chacayá	5	Chacayá	2	Febrero	2023-04-02T00:00:00	2024-11-06T22:00:00	5	Humedad	76
76781	7	Sololá	702	San José Chacayá	5	Chacayá	2	Febrero	2023-04-02T00:00:00	2024-11-06T22:00:00	6	Velocidad del viento	6.4
76782	7	Sololá	702	San José Chacayá	5	Chacayá	2	Febrero	2023-04-02T00:00:00	2024-11-06T22:00:00	7	Dirección del viento	6.44
76783	7	Sololá	702	San José Chacayá	5	Chacayá	2	Febrero	2023-04-02T00:00:00	2024-11-06T22:00:00	1	Precipitación	0
76784	7	Sololá	702	San José Chacayá	5	Chacayá	2	Febrero	2023-04-02T00:00:00	2024-11-06T22:00:00	8	Radiación solar	0
76785	7	Sololá	702	San José Chacayá	5	Chacayá	2	Febrero	2023-04-02T00:00:00	2024-11-06T23:00:00	2	Temperatura media	12.8
76786	7	Sololá	702	San José Chacayá	5	Chacayá	2	Febrero	2023-04-02T00:00:00	2024-11-06T23:00:00	4	Temperatura máxima	12.8
76787	7	Sololá	702	San José Chacayá	5	Chacayá	2	Febrero	2023-04-02T00:00:00	2024-11-06T23:00:00	3	Temperatura mínima	12.4
76788	7	Sololá	702	San José Chacayá	5	Chacayá	2	Febrero	2023-04-02T00:00:00	2024-11-06T23:00:00	5	Humedad	75
76789	7	Sololá	702	San José Chacayá	5	Chacayá	2	Febrero	2023-04-02T00:00:00	2024-11-06T23:00:00	6	Velocidad del viento	6.4
76790	7	Sololá	702	San José Chacayá	5	Chacayá	2	Febrero	2023-04-02T00:00:00	2024-11-06T23:00:00	7	Dirección del viento	6.44
76791	7	Sololá	702	San José Chacayá	5	Chacayá	2	Febrero	2023-04-02T00:00:00	2024-11-06T23:00:00	1	Precipitación	0
76792	7	Sololá	702	San José Chacayá	5	Chacayá	2	Febrero	2023-04-02T00:00:00	2024-11-06T23:00:00	8	Radiación solar	0
76793	7	Sololá	702	San José Chacayá	5	Chacayá	2	Febrero	2023-05-02T00:00:00	2024-11-06T00:00:00	2	Temperatura media	13.2
76794	7	Sololá	702	San José Chacayá	5	Chacayá	2	Febrero	2023-05-02T00:00:00	2024-11-06T00:00:00	4	Temperatura máxima	13.2
76795	7	Sololá	702	San José Chacayá	5	Chacayá	2	Febrero	2023-05-02T00:00:00	2024-11-06T00:00:00	3	Temperatura mínima	12.8
76796	7	Sololá	702	San José Chacayá	5	Chacayá	2	Febrero	2023-05-02T00:00:00	2024-11-06T00:00:00	5	Humedad	70
76797	7	Sololá	702	San José Chacayá	5	Chacayá	2	Febrero	2023-05-02T00:00:00	2024-11-06T00:00:00	6	Velocidad del viento	8
76798	7	Sololá	702	San José Chacayá	5	Chacayá	2	Febrero	2023-05-02T00:00:00	2024-11-06T00:00:00	7	Dirección del viento	8.05
76799	7	Sololá	702	San José Chacayá	5	Chacayá	2	Febrero	2023-05-02T00:00:00	2024-11-06T00:00:00	1	Precipitación	0
76800	7	Sololá	702	San José Chacayá	5	Chacayá	2	Febrero	2023-05-02T00:00:00	2024-11-06T00:00:00	8	Radiación solar	0
76801	7	Sololá	702	San José Chacayá	5	Chacayá	2	Febrero	2023-05-02T00:00:00	2024-11-06T01:00:00	2	Temperatura media	13
76802	7	Sololá	702	San José Chacayá	5	Chacayá	2	Febrero	2023-05-02T00:00:00	2024-11-06T01:00:00	4	Temperatura máxima	13.2
76803	7	Sololá	702	San José Chacayá	5	Chacayá	2	Febrero	2023-05-02T00:00:00	2024-11-06T01:00:00	3	Temperatura mínima	12.7
76804	7	Sololá	702	San José Chacayá	5	Chacayá	2	Febrero	2023-05-02T00:00:00	2024-11-06T01:00:00	5	Humedad	71
76805	7	Sololá	702	San José Chacayá	5	Chacayá	2	Febrero	2023-05-02T00:00:00	2024-11-06T01:00:00	6	Velocidad del viento	4.8
76806	7	Sololá	702	San José Chacayá	5	Chacayá	2	Febrero	2023-05-02T00:00:00	2024-11-06T01:00:00	7	Dirección del viento	4.83
76807	7	Sololá	702	San José Chacayá	5	Chacayá	2	Febrero	2023-05-02T00:00:00	2024-11-06T01:00:00	1	Precipitación	0
76808	7	Sololá	702	San José Chacayá	5	Chacayá	2	Febrero	2023-05-02T00:00:00	2024-11-06T01:00:00	8	Radiación solar	0
76809	7	Sololá	702	San José Chacayá	5	Chacayá	2	Febrero	2023-05-02T00:00:00	2024-11-06T02:00:00	2	Temperatura media	13.3
76810	7	Sololá	702	San José Chacayá	5	Chacayá	2	Febrero	2023-05-02T00:00:00	2024-11-06T02:00:00	4	Temperatura máxima	13.3
76811	7	Sololá	702	San José Chacayá	5	Chacayá	2	Febrero	2023-05-02T00:00:00	2024-11-06T02:00:00	3	Temperatura mínima	12.9
76812	7	Sololá	702	San José Chacayá	5	Chacayá	2	Febrero	2023-05-02T00:00:00	2024-11-06T02:00:00	5	Humedad	73
76813	7	Sololá	702	San José Chacayá	5	Chacayá	2	Febrero	2023-05-02T00:00:00	2024-11-06T02:00:00	6	Velocidad del viento	4.8
76814	7	Sololá	702	San José Chacayá	5	Chacayá	2	Febrero	2023-05-02T00:00:00	2024-11-06T02:00:00	7	Dirección del viento	4.83
76815	7	Sololá	702	San José Chacayá	5	Chacayá	2	Febrero	2023-05-02T00:00:00	2024-11-06T02:00:00	1	Precipitación	0
76816	7	Sololá	702	San José Chacayá	5	Chacayá	2	Febrero	2023-05-02T00:00:00	2024-11-06T02:00:00	8	Radiación solar	0
76817	7	Sololá	702	San José Chacayá	5	Chacayá	2	Febrero	2023-05-02T00:00:00	2024-11-06T03:00:00	2	Temperatura media	13
76818	7	Sololá	702	San José Chacayá	5	Chacayá	2	Febrero	2023-05-02T00:00:00	2024-11-06T03:00:00	4	Temperatura máxima	13.3
76819	7	Sololá	702	San José Chacayá	5	Chacayá	2	Febrero	2023-05-02T00:00:00	2024-11-06T03:00:00	3	Temperatura mínima	12.9
76820	7	Sololá	702	San José Chacayá	5	Chacayá	2	Febrero	2023-05-02T00:00:00	2024-11-06T03:00:00	5	Humedad	75
76821	7	Sololá	702	San José Chacayá	5	Chacayá	2	Febrero	2023-05-02T00:00:00	2024-11-06T03:00:00	6	Velocidad del viento	6.4
76822	7	Sololá	702	San José Chacayá	5	Chacayá	2	Febrero	2023-05-02T00:00:00	2024-11-06T03:00:00	7	Dirección del viento	6.44
76823	7	Sololá	702	San José Chacayá	5	Chacayá	2	Febrero	2023-05-02T00:00:00	2024-11-06T03:00:00	1	Precipitación	0
76824	7	Sololá	702	San José Chacayá	5	Chacayá	2	Febrero	2023-05-02T00:00:00	2024-11-06T03:00:00	8	Radiación solar	0
76825	7	Sololá	702	San José Chacayá	5	Chacayá	2	Febrero	2023-05-02T00:00:00	2024-11-06T04:00:00	2	Temperatura media	13
76826	7	Sololá	702	San José Chacayá	5	Chacayá	2	Febrero	2023-05-02T00:00:00	2024-11-06T04:00:00	4	Temperatura máxima	13.2
76827	7	Sololá	702	San José Chacayá	5	Chacayá	2	Febrero	2023-05-02T00:00:00	2024-11-06T04:00:00	3	Temperatura mínima	12.9
76828	7	Sololá	702	San José Chacayá	5	Chacayá	2	Febrero	2023-05-02T00:00:00	2024-11-06T04:00:00	5	Humedad	74
76829	7	Sololá	702	San José Chacayá	5	Chacayá	2	Febrero	2023-05-02T00:00:00	2024-11-06T04:00:00	6	Velocidad del viento	4.8
76830	7	Sololá	702	San José Chacayá	5	Chacayá	2	Febrero	2023-05-02T00:00:00	2024-11-06T04:00:00	7	Dirección del viento	4.83
76831	7	Sololá	702	San José Chacayá	5	Chacayá	2	Febrero	2023-05-02T00:00:00	2024-11-06T04:00:00	1	Precipitación	0
76832	7	Sololá	702	San José Chacayá	5	Chacayá	2	Febrero	2023-05-02T00:00:00	2024-11-06T04:00:00	8	Radiación solar	0
76833	7	Sololá	702	San José Chacayá	5	Chacayá	2	Febrero	2023-05-02T00:00:00	2024-11-06T05:00:00	2	Temperatura media	11.6
76834	7	Sololá	702	San José Chacayá	5	Chacayá	2	Febrero	2023-05-02T00:00:00	2024-11-06T05:00:00	4	Temperatura máxima	13.1
76835	7	Sololá	702	San José Chacayá	5	Chacayá	2	Febrero	2023-05-02T00:00:00	2024-11-06T05:00:00	3	Temperatura mínima	11.6
76836	7	Sololá	702	San José Chacayá	5	Chacayá	2	Febrero	2023-05-02T00:00:00	2024-11-06T05:00:00	5	Humedad	81
76837	7	Sololá	702	San José Chacayá	5	Chacayá	2	Febrero	2023-05-02T00:00:00	2024-11-06T05:00:00	6	Velocidad del viento	4.8
76838	7	Sololá	702	San José Chacayá	5	Chacayá	2	Febrero	2023-05-02T00:00:00	2024-11-06T05:00:00	7	Dirección del viento	4.83
76839	7	Sololá	702	San José Chacayá	5	Chacayá	2	Febrero	2023-05-02T00:00:00	2024-11-06T05:00:00	1	Precipitación	0
76840	7	Sololá	702	San José Chacayá	5	Chacayá	2	Febrero	2023-05-02T00:00:00	2024-11-06T05:00:00	8	Radiación solar	0
76841	7	Sololá	702	San José Chacayá	5	Chacayá	2	Febrero	2023-05-02T00:00:00	2024-11-06T06:00:00	2	Temperatura media	10.7
76842	7	Sololá	702	San José Chacayá	5	Chacayá	2	Febrero	2023-05-02T00:00:00	2024-11-06T06:00:00	4	Temperatura máxima	11.6
76843	7	Sololá	702	San José Chacayá	5	Chacayá	2	Febrero	2023-05-02T00:00:00	2024-11-06T06:00:00	3	Temperatura mínima	10.5
76844	7	Sololá	702	San José Chacayá	5	Chacayá	2	Febrero	2023-05-02T00:00:00	2024-11-06T06:00:00	5	Humedad	82
76845	7	Sololá	702	San José Chacayá	5	Chacayá	2	Febrero	2023-05-02T00:00:00	2024-11-06T06:00:00	6	Velocidad del viento	1.6
76846	7	Sololá	702	San José Chacayá	5	Chacayá	2	Febrero	2023-05-02T00:00:00	2024-11-06T06:00:00	7	Dirección del viento	1.61
76847	7	Sololá	702	San José Chacayá	5	Chacayá	2	Febrero	2023-05-02T00:00:00	2024-11-06T06:00:00	1	Precipitación	0
76848	7	Sololá	702	San José Chacayá	5	Chacayá	2	Febrero	2023-05-02T00:00:00	2024-11-06T06:00:00	8	Radiación solar	0
76849	7	Sololá	702	San José Chacayá	5	Chacayá	2	Febrero	2023-05-02T00:00:00	2024-11-06T07:00:00	2	Temperatura media	15.3
76850	7	Sololá	702	San José Chacayá	5	Chacayá	2	Febrero	2023-05-02T00:00:00	2024-11-06T07:00:00	4	Temperatura máxima	15.3
76851	7	Sololá	702	San José Chacayá	5	Chacayá	2	Febrero	2023-05-02T00:00:00	2024-11-06T07:00:00	3	Temperatura mínima	10.7
76852	7	Sololá	702	San José Chacayá	5	Chacayá	2	Febrero	2023-05-02T00:00:00	2024-11-06T07:00:00	5	Humedad	69
76853	7	Sololá	702	San José Chacayá	5	Chacayá	2	Febrero	2023-05-02T00:00:00	2024-11-06T07:00:00	6	Velocidad del viento	1.6
76854	7	Sololá	702	San José Chacayá	5	Chacayá	2	Febrero	2023-05-02T00:00:00	2024-11-06T07:00:00	7	Dirección del viento	1.61
76855	7	Sololá	702	San José Chacayá	5	Chacayá	2	Febrero	2023-05-02T00:00:00	2024-11-06T07:00:00	1	Precipitación	0
76856	7	Sololá	702	San José Chacayá	5	Chacayá	2	Febrero	2023-05-02T00:00:00	2024-11-06T07:00:00	8	Radiación solar	6
76857	7	Sololá	702	San José Chacayá	5	Chacayá	2	Febrero	2023-05-02T00:00:00	2024-11-06T08:00:00	2	Temperatura media	16.8
76858	7	Sololá	702	San José Chacayá	5	Chacayá	2	Febrero	2023-05-02T00:00:00	2024-11-06T08:00:00	4	Temperatura máxima	17.4
76859	7	Sololá	702	San José Chacayá	5	Chacayá	2	Febrero	2023-05-02T00:00:00	2024-11-06T08:00:00	3	Temperatura mínima	15.3
76860	7	Sololá	702	San José Chacayá	5	Chacayá	2	Febrero	2023-05-02T00:00:00	2024-11-06T08:00:00	5	Humedad	59
76861	7	Sololá	702	San José Chacayá	5	Chacayá	2	Febrero	2023-05-02T00:00:00	2024-11-06T08:00:00	6	Velocidad del viento	3.2
76862	7	Sololá	702	San José Chacayá	5	Chacayá	2	Febrero	2023-05-02T00:00:00	2024-11-06T08:00:00	7	Dirección del viento	3.22
76863	7	Sololá	702	San José Chacayá	5	Chacayá	2	Febrero	2023-05-02T00:00:00	2024-11-06T08:00:00	1	Precipitación	0
76864	7	Sololá	702	San José Chacayá	5	Chacayá	2	Febrero	2023-05-02T00:00:00	2024-11-06T08:00:00	8	Radiación solar	89
76865	7	Sololá	702	San José Chacayá	5	Chacayá	2	Febrero	2023-05-02T00:00:00	2024-11-06T09:00:00	2	Temperatura media	18.6
76866	7	Sololá	702	San José Chacayá	5	Chacayá	2	Febrero	2023-05-02T00:00:00	2024-11-06T09:00:00	4	Temperatura máxima	18.6
76867	7	Sololá	702	San José Chacayá	5	Chacayá	2	Febrero	2023-05-02T00:00:00	2024-11-06T09:00:00	3	Temperatura mínima	16.8
76868	7	Sololá	702	San José Chacayá	5	Chacayá	2	Febrero	2023-05-02T00:00:00	2024-11-06T09:00:00	5	Humedad	54
76869	7	Sololá	702	San José Chacayá	5	Chacayá	2	Febrero	2023-05-02T00:00:00	2024-11-06T09:00:00	6	Velocidad del viento	4.8
76870	7	Sololá	702	San José Chacayá	5	Chacayá	2	Febrero	2023-05-02T00:00:00	2024-11-06T09:00:00	7	Dirección del viento	4.83
76871	7	Sololá	702	San José Chacayá	5	Chacayá	2	Febrero	2023-05-02T00:00:00	2024-11-06T09:00:00	1	Precipitación	0
76872	7	Sololá	702	San José Chacayá	5	Chacayá	2	Febrero	2023-05-02T00:00:00	2024-11-06T09:00:00	8	Radiación solar	343
76873	7	Sololá	702	San José Chacayá	5	Chacayá	2	Febrero	2023-05-02T00:00:00	2024-11-06T10:00:00	2	Temperatura media	19.7
76874	7	Sololá	702	San José Chacayá	5	Chacayá	2	Febrero	2023-05-02T00:00:00	2024-11-06T10:00:00	4	Temperatura máxima	19.8
76875	7	Sololá	702	San José Chacayá	5	Chacayá	2	Febrero	2023-05-02T00:00:00	2024-11-06T10:00:00	3	Temperatura mínima	17.9
76876	7	Sololá	702	San José Chacayá	5	Chacayá	2	Febrero	2023-05-02T00:00:00	2024-11-06T10:00:00	5	Humedad	46
76877	7	Sololá	702	San José Chacayá	5	Chacayá	2	Febrero	2023-05-02T00:00:00	2024-11-06T10:00:00	6	Velocidad del viento	6.4
76878	7	Sololá	702	San José Chacayá	5	Chacayá	2	Febrero	2023-05-02T00:00:00	2024-11-06T10:00:00	7	Dirección del viento	6.44
76879	7	Sololá	702	San José Chacayá	5	Chacayá	2	Febrero	2023-05-02T00:00:00	2024-11-06T10:00:00	1	Precipitación	0
76880	7	Sololá	702	San José Chacayá	5	Chacayá	2	Febrero	2023-05-02T00:00:00	2024-11-06T10:00:00	8	Radiación solar	439
76881	7	Sololá	702	San José Chacayá	5	Chacayá	2	Febrero	2023-05-02T00:00:00	2024-11-06T11:00:00	2	Temperatura media	20.7
76882	7	Sololá	702	San José Chacayá	5	Chacayá	2	Febrero	2023-05-02T00:00:00	2024-11-06T11:00:00	4	Temperatura máxima	21.2
76883	7	Sololá	702	San José Chacayá	5	Chacayá	2	Febrero	2023-05-02T00:00:00	2024-11-06T11:00:00	3	Temperatura mínima	19.6
76884	7	Sololá	702	San José Chacayá	5	Chacayá	2	Febrero	2023-05-02T00:00:00	2024-11-06T11:00:00	5	Humedad	39
76885	7	Sololá	702	San José Chacayá	5	Chacayá	2	Febrero	2023-05-02T00:00:00	2024-11-06T11:00:00	6	Velocidad del viento	6.4
76886	7	Sololá	702	San José Chacayá	5	Chacayá	2	Febrero	2023-05-02T00:00:00	2024-11-06T11:00:00	7	Dirección del viento	6.44
76887	7	Sololá	702	San José Chacayá	5	Chacayá	2	Febrero	2023-05-02T00:00:00	2024-11-06T11:00:00	1	Precipitación	0
76888	7	Sololá	702	San José Chacayá	5	Chacayá	2	Febrero	2023-05-02T00:00:00	2024-11-06T11:00:00	8	Radiación solar	35
76889	7	Sololá	702	San José Chacayá	5	Chacayá	2	Febrero	2023-05-02T00:00:00	2024-11-06T12:00:00	2	Temperatura media	21.4
76890	7	Sololá	702	San José Chacayá	5	Chacayá	2	Febrero	2023-05-02T00:00:00	2024-11-06T12:00:00	4	Temperatura máxima	21.4
76891	7	Sololá	702	San José Chacayá	5	Chacayá	2	Febrero	2023-05-02T00:00:00	2024-11-06T12:00:00	3	Temperatura mínima	19.7
76892	7	Sololá	702	San José Chacayá	5	Chacayá	2	Febrero	2023-05-02T00:00:00	2024-11-06T12:00:00	5	Humedad	39
76893	7	Sololá	702	San José Chacayá	5	Chacayá	2	Febrero	2023-05-02T00:00:00	2024-11-06T12:00:00	6	Velocidad del viento	6.4
76894	7	Sololá	702	San José Chacayá	5	Chacayá	2	Febrero	2023-05-02T00:00:00	2024-11-06T12:00:00	7	Dirección del viento	6.44
76895	7	Sololá	702	San José Chacayá	5	Chacayá	2	Febrero	2023-05-02T00:00:00	2024-11-06T12:00:00	1	Precipitación	0
76896	7	Sololá	702	San José Chacayá	5	Chacayá	2	Febrero	2023-05-02T00:00:00	2024-11-06T12:00:00	8	Radiación solar	472
76897	7	Sololá	702	San José Chacayá	5	Chacayá	2	Febrero	2023-05-02T00:00:00	2024-11-06T13:00:00	2	Temperatura media	21.2
76898	7	Sololá	702	San José Chacayá	5	Chacayá	2	Febrero	2023-05-02T00:00:00	2024-11-06T13:00:00	4	Temperatura máxima	21.8
76899	7	Sololá	702	San José Chacayá	5	Chacayá	2	Febrero	2023-05-02T00:00:00	2024-11-06T13:00:00	3	Temperatura mínima	21.1
76900	7	Sololá	702	San José Chacayá	5	Chacayá	2	Febrero	2023-05-02T00:00:00	2024-11-06T13:00:00	5	Humedad	35
76901	7	Sololá	702	San José Chacayá	5	Chacayá	2	Febrero	2023-05-02T00:00:00	2024-11-06T13:00:00	6	Velocidad del viento	4.8
76902	7	Sololá	702	San José Chacayá	5	Chacayá	2	Febrero	2023-05-02T00:00:00	2024-11-06T13:00:00	7	Dirección del viento	4.83
76903	7	Sololá	702	San José Chacayá	5	Chacayá	2	Febrero	2023-05-02T00:00:00	2024-11-06T13:00:00	1	Precipitación	0
76904	7	Sololá	702	San José Chacayá	5	Chacayá	2	Febrero	2023-05-02T00:00:00	2024-11-06T13:00:00	8	Radiación solar	814
76905	7	Sololá	702	San José Chacayá	5	Chacayá	2	Febrero	2023-05-02T00:00:00	2024-11-06T14:00:00	2	Temperatura media	20.8
76906	7	Sololá	702	San José Chacayá	5	Chacayá	2	Febrero	2023-05-02T00:00:00	2024-11-06T14:00:00	4	Temperatura máxima	22.1
76907	7	Sololá	702	San José Chacayá	5	Chacayá	2	Febrero	2023-05-02T00:00:00	2024-11-06T14:00:00	3	Temperatura mínima	20.7
76908	7	Sololá	702	San José Chacayá	5	Chacayá	2	Febrero	2023-05-02T00:00:00	2024-11-06T14:00:00	5	Humedad	42
76909	7	Sololá	702	San José Chacayá	5	Chacayá	2	Febrero	2023-05-02T00:00:00	2024-11-06T14:00:00	6	Velocidad del viento	4.8
76910	7	Sololá	702	San José Chacayá	5	Chacayá	2	Febrero	2023-05-02T00:00:00	2024-11-06T14:00:00	7	Dirección del viento	4.83
76911	7	Sololá	702	San José Chacayá	5	Chacayá	2	Febrero	2023-05-02T00:00:00	2024-11-06T14:00:00	1	Precipitación	0
76912	7	Sololá	702	San José Chacayá	5	Chacayá	2	Febrero	2023-05-02T00:00:00	2024-11-06T14:00:00	8	Radiación solar	853
76913	7	Sololá	702	San José Chacayá	5	Chacayá	2	Febrero	2023-05-02T00:00:00	2024-11-06T15:00:00	2	Temperatura media	20.4
76914	7	Sololá	702	San José Chacayá	5	Chacayá	2	Febrero	2023-05-02T00:00:00	2024-11-06T15:00:00	4	Temperatura máxima	21.4
76915	7	Sololá	702	San José Chacayá	5	Chacayá	2	Febrero	2023-05-02T00:00:00	2024-11-06T15:00:00	3	Temperatura mínima	20.4
76916	7	Sololá	702	San José Chacayá	5	Chacayá	2	Febrero	2023-05-02T00:00:00	2024-11-06T15:00:00	5	Humedad	44
76917	7	Sololá	702	San José Chacayá	5	Chacayá	2	Febrero	2023-05-02T00:00:00	2024-11-06T15:00:00	6	Velocidad del viento	6.4
76918	7	Sololá	702	San José Chacayá	5	Chacayá	2	Febrero	2023-05-02T00:00:00	2024-11-06T15:00:00	7	Dirección del viento	6.44
76919	7	Sololá	702	San José Chacayá	5	Chacayá	2	Febrero	2023-05-02T00:00:00	2024-11-06T15:00:00	1	Precipitación	0
76920	7	Sololá	702	San José Chacayá	5	Chacayá	2	Febrero	2023-05-02T00:00:00	2024-11-06T15:00:00	8	Radiación solar	671
76921	7	Sololá	702	San José Chacayá	5	Chacayá	2	Febrero	2023-05-02T00:00:00	2024-11-06T16:00:00	2	Temperatura media	17.5
76922	7	Sololá	702	San José Chacayá	5	Chacayá	2	Febrero	2023-05-02T00:00:00	2024-11-06T16:00:00	4	Temperatura máxima	20.4
76923	7	Sololá	702	San José Chacayá	5	Chacayá	2	Febrero	2023-05-02T00:00:00	2024-11-06T16:00:00	3	Temperatura mínima	17.5
76924	7	Sololá	702	San José Chacayá	5	Chacayá	2	Febrero	2023-05-02T00:00:00	2024-11-06T16:00:00	5	Humedad	53
76925	7	Sololá	702	San José Chacayá	5	Chacayá	2	Febrero	2023-05-02T00:00:00	2024-11-06T16:00:00	6	Velocidad del viento	4.8
76926	7	Sololá	702	San José Chacayá	5	Chacayá	2	Febrero	2023-05-02T00:00:00	2024-11-06T16:00:00	7	Dirección del viento	4.83
76927	7	Sololá	702	San José Chacayá	5	Chacayá	2	Febrero	2023-05-02T00:00:00	2024-11-06T16:00:00	1	Precipitación	0
76928	7	Sololá	702	San José Chacayá	5	Chacayá	2	Febrero	2023-05-02T00:00:00	2024-11-06T16:00:00	8	Radiación solar	402
76929	7	Sololá	702	San José Chacayá	5	Chacayá	2	Febrero	2023-05-02T00:00:00	2024-11-06T17:00:00	2	Temperatura media	14.5
76930	7	Sololá	702	San José Chacayá	5	Chacayá	2	Febrero	2023-05-02T00:00:00	2024-11-06T17:00:00	4	Temperatura máxima	17.5
76931	7	Sololá	702	San José Chacayá	5	Chacayá	2	Febrero	2023-05-02T00:00:00	2024-11-06T17:00:00	3	Temperatura mínima	14.5
76932	7	Sololá	702	San José Chacayá	5	Chacayá	2	Febrero	2023-05-02T00:00:00	2024-11-06T17:00:00	5	Humedad	69
76933	7	Sololá	702	San José Chacayá	5	Chacayá	2	Febrero	2023-05-02T00:00:00	2024-11-06T17:00:00	6	Velocidad del viento	4.8
76934	7	Sololá	702	San José Chacayá	5	Chacayá	2	Febrero	2023-05-02T00:00:00	2024-11-06T17:00:00	7	Dirección del viento	4.83
76935	7	Sololá	702	San José Chacayá	5	Chacayá	2	Febrero	2023-05-02T00:00:00	2024-11-06T17:00:00	1	Precipitación	0
76936	7	Sololá	702	San José Chacayá	5	Chacayá	2	Febrero	2023-05-02T00:00:00	2024-11-06T17:00:00	8	Radiación solar	216
76937	7	Sololá	702	San José Chacayá	5	Chacayá	2	Febrero	2023-05-02T00:00:00	2024-11-06T18:00:00	2	Temperatura media	12.8
76938	7	Sololá	702	San José Chacayá	5	Chacayá	2	Febrero	2023-05-02T00:00:00	2024-11-06T18:00:00	4	Temperatura máxima	14.5
76939	7	Sololá	702	San José Chacayá	5	Chacayá	2	Febrero	2023-05-02T00:00:00	2024-11-06T18:00:00	3	Temperatura mínima	12.7
76940	7	Sololá	702	San José Chacayá	5	Chacayá	2	Febrero	2023-05-02T00:00:00	2024-11-06T18:00:00	5	Humedad	78
76941	7	Sololá	702	San José Chacayá	5	Chacayá	2	Febrero	2023-05-02T00:00:00	2024-11-06T18:00:00	6	Velocidad del viento	4.8
76942	7	Sololá	702	San José Chacayá	5	Chacayá	2	Febrero	2023-05-02T00:00:00	2024-11-06T18:00:00	7	Dirección del viento	4.83
76943	7	Sololá	702	San José Chacayá	5	Chacayá	2	Febrero	2023-05-02T00:00:00	2024-11-06T18:00:00	1	Precipitación	0
76944	7	Sololá	702	San José Chacayá	5	Chacayá	2	Febrero	2023-05-02T00:00:00	2024-11-06T18:00:00	8	Radiación solar	28
76945	7	Sololá	702	San José Chacayá	5	Chacayá	2	Febrero	2023-05-02T00:00:00	2024-11-06T19:00:00	2	Temperatura media	12.1
76946	7	Sololá	702	San José Chacayá	5	Chacayá	2	Febrero	2023-05-02T00:00:00	2024-11-06T19:00:00	4	Temperatura máxima	12.8
76947	7	Sololá	702	San José Chacayá	5	Chacayá	2	Febrero	2023-05-02T00:00:00	2024-11-06T19:00:00	3	Temperatura mínima	12
76948	7	Sololá	702	San José Chacayá	5	Chacayá	2	Febrero	2023-05-02T00:00:00	2024-11-06T19:00:00	5	Humedad	78
76949	7	Sololá	702	San José Chacayá	5	Chacayá	2	Febrero	2023-05-02T00:00:00	2024-11-06T19:00:00	6	Velocidad del viento	4.8
76950	7	Sololá	702	San José Chacayá	5	Chacayá	2	Febrero	2023-05-02T00:00:00	2024-11-06T19:00:00	7	Dirección del viento	4.83
76951	7	Sololá	702	San José Chacayá	5	Chacayá	2	Febrero	2023-05-02T00:00:00	2024-11-06T19:00:00	1	Precipitación	0
76952	7	Sololá	702	San José Chacayá	5	Chacayá	2	Febrero	2023-05-02T00:00:00	2024-11-06T19:00:00	8	Radiación solar	0
76953	7	Sololá	702	San José Chacayá	5	Chacayá	2	Febrero	2023-05-02T00:00:00	2024-11-06T20:00:00	2	Temperatura media	11.4
76954	7	Sololá	702	San José Chacayá	5	Chacayá	2	Febrero	2023-05-02T00:00:00	2024-11-06T20:00:00	4	Temperatura máxima	12.1
76955	7	Sololá	702	San José Chacayá	5	Chacayá	2	Febrero	2023-05-02T00:00:00	2024-11-06T20:00:00	3	Temperatura mínima	11.4
76956	7	Sololá	702	San José Chacayá	5	Chacayá	2	Febrero	2023-05-02T00:00:00	2024-11-06T20:00:00	5	Humedad	73
76957	7	Sololá	702	San José Chacayá	5	Chacayá	2	Febrero	2023-05-02T00:00:00	2024-11-06T20:00:00	6	Velocidad del viento	3.2
76958	7	Sololá	702	San José Chacayá	5	Chacayá	2	Febrero	2023-05-02T00:00:00	2024-11-06T20:00:00	7	Dirección del viento	3.22
76959	7	Sololá	702	San José Chacayá	5	Chacayá	2	Febrero	2023-05-02T00:00:00	2024-11-06T20:00:00	1	Precipitación	0
76960	7	Sololá	702	San José Chacayá	5	Chacayá	2	Febrero	2023-05-02T00:00:00	2024-11-06T20:00:00	8	Radiación solar	0
76961	7	Sololá	702	San José Chacayá	5	Chacayá	2	Febrero	2023-05-02T00:00:00	2024-11-06T21:00:00	2	Temperatura media	8.5
76962	7	Sololá	702	San José Chacayá	5	Chacayá	2	Febrero	2023-05-02T00:00:00	2024-11-06T21:00:00	4	Temperatura máxima	11.4
76963	7	Sololá	702	San José Chacayá	5	Chacayá	2	Febrero	2023-05-02T00:00:00	2024-11-06T21:00:00	3	Temperatura mínima	8.5
76964	7	Sololá	702	San José Chacayá	5	Chacayá	2	Febrero	2023-05-02T00:00:00	2024-11-06T21:00:00	5	Humedad	81
76965	7	Sololá	702	San José Chacayá	5	Chacayá	2	Febrero	2023-05-02T00:00:00	2024-11-06T21:00:00	6	Velocidad del viento	1.6
76966	7	Sololá	702	San José Chacayá	5	Chacayá	2	Febrero	2023-05-02T00:00:00	2024-11-06T21:00:00	7	Dirección del viento	1.61
76967	7	Sololá	702	San José Chacayá	5	Chacayá	2	Febrero	2023-05-02T00:00:00	2024-11-06T21:00:00	1	Precipitación	0
76968	7	Sololá	702	San José Chacayá	5	Chacayá	2	Febrero	2023-05-02T00:00:00	2024-11-06T21:00:00	8	Radiación solar	0
76969	7	Sololá	702	San José Chacayá	5	Chacayá	2	Febrero	2023-05-02T00:00:00	2024-11-06T22:00:00	2	Temperatura media	7.7
76970	7	Sololá	702	San José Chacayá	5	Chacayá	2	Febrero	2023-05-02T00:00:00	2024-11-06T22:00:00	4	Temperatura máxima	8.5
76971	7	Sololá	702	San José Chacayá	5	Chacayá	2	Febrero	2023-05-02T00:00:00	2024-11-06T22:00:00	3	Temperatura mínima	7.3
76972	7	Sololá	702	San José Chacayá	5	Chacayá	2	Febrero	2023-05-02T00:00:00	2024-11-06T22:00:00	5	Humedad	81
76973	7	Sololá	702	San José Chacayá	5	Chacayá	2	Febrero	2023-05-02T00:00:00	2024-11-06T22:00:00	6	Velocidad del viento	1.6
76974	7	Sololá	702	San José Chacayá	5	Chacayá	2	Febrero	2023-05-02T00:00:00	2024-11-06T22:00:00	7	Dirección del viento	1.61
76975	7	Sololá	702	San José Chacayá	5	Chacayá	2	Febrero	2023-05-02T00:00:00	2024-11-06T22:00:00	1	Precipitación	0
76976	7	Sololá	702	San José Chacayá	5	Chacayá	2	Febrero	2023-05-02T00:00:00	2024-11-06T22:00:00	8	Radiación solar	0
76977	7	Sololá	702	San José Chacayá	5	Chacayá	2	Febrero	2023-05-02T00:00:00	2024-11-06T23:00:00	2	Temperatura media	10.5
76978	7	Sololá	702	San José Chacayá	5	Chacayá	2	Febrero	2023-05-02T00:00:00	2024-11-06T23:00:00	4	Temperatura máxima	10.5
76979	7	Sololá	702	San José Chacayá	5	Chacayá	2	Febrero	2023-05-02T00:00:00	2024-11-06T23:00:00	3	Temperatura mínima	7.7
76980	7	Sololá	702	San José Chacayá	5	Chacayá	2	Febrero	2023-05-02T00:00:00	2024-11-06T23:00:00	5	Humedad	73
76981	7	Sololá	702	San José Chacayá	5	Chacayá	2	Febrero	2023-05-02T00:00:00	2024-11-06T23:00:00	6	Velocidad del viento	3.2
76982	7	Sololá	702	San José Chacayá	5	Chacayá	2	Febrero	2023-05-02T00:00:00	2024-11-06T23:00:00	7	Dirección del viento	3.22
76983	7	Sololá	702	San José Chacayá	5	Chacayá	2	Febrero	2023-05-02T00:00:00	2024-11-06T23:00:00	1	Precipitación	0
76984	7	Sololá	702	San José Chacayá	5	Chacayá	2	Febrero	2023-05-02T00:00:00	2024-11-06T23:00:00	8	Radiación solar	0
76985	7	Sololá	702	San José Chacayá	5	Chacayá	2	Febrero	2023-06-02T00:00:00	2024-11-06T00:00:00	2	Temperatura media	8.6
76986	7	Sololá	702	San José Chacayá	5	Chacayá	2	Febrero	2023-06-02T00:00:00	2024-11-06T00:00:00	4	Temperatura máxima	10.9
76987	7	Sololá	702	San José Chacayá	5	Chacayá	2	Febrero	2023-06-02T00:00:00	2024-11-06T00:00:00	3	Temperatura mínima	7.6
76988	7	Sololá	702	San José Chacayá	5	Chacayá	2	Febrero	2023-06-02T00:00:00	2024-11-06T00:00:00	5	Humedad	80
76989	7	Sololá	702	San José Chacayá	5	Chacayá	2	Febrero	2023-06-02T00:00:00	2024-11-06T00:00:00	6	Velocidad del viento	3.2
76990	7	Sololá	702	San José Chacayá	5	Chacayá	2	Febrero	2023-06-02T00:00:00	2024-11-06T00:00:00	7	Dirección del viento	3.22
76991	7	Sololá	702	San José Chacayá	5	Chacayá	2	Febrero	2023-06-02T00:00:00	2024-11-06T00:00:00	1	Precipitación	0
76992	7	Sololá	702	San José Chacayá	5	Chacayá	2	Febrero	2023-06-02T00:00:00	2024-11-06T00:00:00	8	Radiación solar	0
76993	7	Sololá	702	San José Chacayá	5	Chacayá	2	Febrero	2023-06-02T00:00:00	2024-11-06T01:00:00	2	Temperatura media	11.4
76994	7	Sololá	702	San José Chacayá	5	Chacayá	2	Febrero	2023-06-02T00:00:00	2024-11-06T01:00:00	4	Temperatura máxima	11.4
76995	7	Sololá	702	San José Chacayá	5	Chacayá	2	Febrero	2023-06-02T00:00:00	2024-11-06T01:00:00	3	Temperatura mínima	8.7
76996	7	Sololá	702	San José Chacayá	5	Chacayá	2	Febrero	2023-06-02T00:00:00	2024-11-06T01:00:00	5	Humedad	69
76997	7	Sololá	702	San José Chacayá	5	Chacayá	2	Febrero	2023-06-02T00:00:00	2024-11-06T01:00:00	6	Velocidad del viento	4.8
76998	7	Sololá	702	San José Chacayá	5	Chacayá	2	Febrero	2023-06-02T00:00:00	2024-11-06T01:00:00	7	Dirección del viento	4.83
76999	7	Sololá	702	San José Chacayá	5	Chacayá	2	Febrero	2023-06-02T00:00:00	2024-11-06T01:00:00	1	Precipitación	0
77000	7	Sololá	702	San José Chacayá	5	Chacayá	2	Febrero	2023-06-02T00:00:00	2024-11-06T01:00:00	8	Radiación solar	0
77001	7	Sololá	702	San José Chacayá	5	Chacayá	2	Febrero	2023-06-02T00:00:00	2024-11-06T02:00:00	2	Temperatura media	6.7
77002	7	Sololá	702	San José Chacayá	5	Chacayá	2	Febrero	2023-06-02T00:00:00	2024-11-06T02:00:00	4	Temperatura máxima	11.5
77003	7	Sololá	702	San José Chacayá	5	Chacayá	2	Febrero	2023-06-02T00:00:00	2024-11-06T02:00:00	3	Temperatura mínima	6.7
77004	7	Sololá	702	San José Chacayá	5	Chacayá	2	Febrero	2023-06-02T00:00:00	2024-11-06T02:00:00	5	Humedad	79
77005	7	Sololá	702	San José Chacayá	5	Chacayá	2	Febrero	2023-06-02T00:00:00	2024-11-06T02:00:00	6	Velocidad del viento	3.2
77006	7	Sololá	702	San José Chacayá	5	Chacayá	2	Febrero	2023-06-02T00:00:00	2024-11-06T02:00:00	7	Dirección del viento	3.22
77007	7	Sololá	702	San José Chacayá	5	Chacayá	2	Febrero	2023-06-02T00:00:00	2024-11-06T02:00:00	1	Precipitación	0
77008	7	Sololá	702	San José Chacayá	5	Chacayá	2	Febrero	2023-06-02T00:00:00	2024-11-06T02:00:00	8	Radiación solar	0
77009	7	Sololá	702	San José Chacayá	5	Chacayá	2	Febrero	2023-06-02T00:00:00	2024-11-06T03:00:00	2	Temperatura media	9
77010	7	Sololá	702	San José Chacayá	5	Chacayá	2	Febrero	2023-06-02T00:00:00	2024-11-06T03:00:00	4	Temperatura máxima	9
77011	7	Sololá	702	San José Chacayá	5	Chacayá	2	Febrero	2023-06-02T00:00:00	2024-11-06T03:00:00	3	Temperatura mínima	5.9
77012	7	Sololá	702	San José Chacayá	5	Chacayá	2	Febrero	2023-06-02T00:00:00	2024-11-06T03:00:00	5	Humedad	80
77013	7	Sololá	702	San José Chacayá	5	Chacayá	2	Febrero	2023-06-02T00:00:00	2024-11-06T03:00:00	6	Velocidad del viento	3.2
77014	7	Sololá	702	San José Chacayá	5	Chacayá	2	Febrero	2023-06-02T00:00:00	2024-11-06T03:00:00	7	Dirección del viento	3.22
77015	7	Sololá	702	San José Chacayá	5	Chacayá	2	Febrero	2023-06-02T00:00:00	2024-11-06T03:00:00	1	Precipitación	0
77016	7	Sololá	702	San José Chacayá	5	Chacayá	2	Febrero	2023-06-02T00:00:00	2024-11-06T03:00:00	8	Radiación solar	0
77017	7	Sololá	702	San José Chacayá	5	Chacayá	2	Febrero	2023-06-02T00:00:00	2024-11-06T04:00:00	2	Temperatura media	10
77018	7	Sololá	702	San José Chacayá	5	Chacayá	2	Febrero	2023-06-02T00:00:00	2024-11-06T04:00:00	4	Temperatura máxima	10.3
77019	7	Sololá	702	San José Chacayá	5	Chacayá	2	Febrero	2023-06-02T00:00:00	2024-11-06T04:00:00	3	Temperatura mínima	9
77020	7	Sololá	702	San José Chacayá	5	Chacayá	2	Febrero	2023-06-02T00:00:00	2024-11-06T04:00:00	5	Humedad	71
77021	7	Sololá	702	San José Chacayá	5	Chacayá	2	Febrero	2023-06-02T00:00:00	2024-11-06T04:00:00	6	Velocidad del viento	3.2
77022	7	Sololá	702	San José Chacayá	5	Chacayá	2	Febrero	2023-06-02T00:00:00	2024-11-06T04:00:00	7	Dirección del viento	3.22
77023	7	Sololá	702	San José Chacayá	5	Chacayá	2	Febrero	2023-06-02T00:00:00	2024-11-06T04:00:00	1	Precipitación	0
77024	7	Sololá	702	San José Chacayá	5	Chacayá	2	Febrero	2023-06-02T00:00:00	2024-11-06T04:00:00	8	Radiación solar	0
77025	7	Sololá	702	San José Chacayá	5	Chacayá	2	Febrero	2023-06-02T00:00:00	2024-11-06T05:00:00	2	Temperatura media	9.4
77026	7	Sololá	702	San José Chacayá	5	Chacayá	2	Febrero	2023-06-02T00:00:00	2024-11-06T05:00:00	4	Temperatura máxima	11.3
77027	7	Sololá	702	San José Chacayá	5	Chacayá	2	Febrero	2023-06-02T00:00:00	2024-11-06T05:00:00	3	Temperatura mínima	9.4
77028	7	Sololá	702	San José Chacayá	5	Chacayá	2	Febrero	2023-06-02T00:00:00	2024-11-06T05:00:00	5	Humedad	70
77029	7	Sololá	702	San José Chacayá	5	Chacayá	2	Febrero	2023-06-02T00:00:00	2024-11-06T05:00:00	6	Velocidad del viento	4.8
77030	7	Sololá	702	San José Chacayá	5	Chacayá	2	Febrero	2023-06-02T00:00:00	2024-11-06T05:00:00	7	Dirección del viento	4.83
77031	7	Sololá	702	San José Chacayá	5	Chacayá	2	Febrero	2023-06-02T00:00:00	2024-11-06T05:00:00	1	Precipitación	0
77032	7	Sololá	702	San José Chacayá	5	Chacayá	2	Febrero	2023-06-02T00:00:00	2024-11-06T05:00:00	8	Radiación solar	0
77033	7	Sololá	702	San José Chacayá	5	Chacayá	2	Febrero	2023-06-02T00:00:00	2024-11-06T06:00:00	2	Temperatura media	8.7
77034	7	Sololá	702	San José Chacayá	5	Chacayá	2	Febrero	2023-06-02T00:00:00	2024-11-06T06:00:00	4	Temperatura máxima	9.4
77035	7	Sololá	702	San José Chacayá	5	Chacayá	2	Febrero	2023-06-02T00:00:00	2024-11-06T06:00:00	3	Temperatura mínima	7.8
77036	7	Sololá	702	San José Chacayá	5	Chacayá	2	Febrero	2023-06-02T00:00:00	2024-11-06T06:00:00	5	Humedad	60
77037	7	Sololá	702	San José Chacayá	5	Chacayá	2	Febrero	2023-06-02T00:00:00	2024-11-06T06:00:00	6	Velocidad del viento	1.6
77038	7	Sololá	702	San José Chacayá	5	Chacayá	2	Febrero	2023-06-02T00:00:00	2024-11-06T06:00:00	7	Dirección del viento	1.61
77039	7	Sololá	702	San José Chacayá	5	Chacayá	2	Febrero	2023-06-02T00:00:00	2024-11-06T06:00:00	1	Precipitación	0
77040	7	Sololá	702	San José Chacayá	5	Chacayá	2	Febrero	2023-06-02T00:00:00	2024-11-06T06:00:00	8	Radiación solar	0
77041	7	Sololá	702	San José Chacayá	5	Chacayá	2	Febrero	2023-06-02T00:00:00	2024-11-06T07:00:00	2	Temperatura media	12.8
77042	7	Sololá	702	San José Chacayá	5	Chacayá	2	Febrero	2023-06-02T00:00:00	2024-11-06T07:00:00	4	Temperatura máxima	12.9
77043	7	Sololá	702	San José Chacayá	5	Chacayá	2	Febrero	2023-06-02T00:00:00	2024-11-06T07:00:00	3	Temperatura mínima	8.7
77044	7	Sololá	702	San José Chacayá	5	Chacayá	2	Febrero	2023-06-02T00:00:00	2024-11-06T07:00:00	5	Humedad	67
77045	7	Sololá	702	San José Chacayá	5	Chacayá	2	Febrero	2023-06-02T00:00:00	2024-11-06T07:00:00	6	Velocidad del viento	6.4
77046	7	Sololá	702	San José Chacayá	5	Chacayá	2	Febrero	2023-06-02T00:00:00	2024-11-06T07:00:00	7	Dirección del viento	6.44
77047	7	Sololá	702	San José Chacayá	5	Chacayá	2	Febrero	2023-06-02T00:00:00	2024-11-06T07:00:00	1	Precipitación	0
77048	7	Sololá	702	San José Chacayá	5	Chacayá	2	Febrero	2023-06-02T00:00:00	2024-11-06T07:00:00	8	Radiación solar	10
77049	7	Sololá	702	San José Chacayá	5	Chacayá	2	Febrero	2023-06-02T00:00:00	2024-11-06T08:00:00	2	Temperatura media	14.9
77050	7	Sololá	702	San José Chacayá	5	Chacayá	2	Febrero	2023-06-02T00:00:00	2024-11-06T08:00:00	4	Temperatura máxima	14.9
77051	7	Sololá	702	San José Chacayá	5	Chacayá	2	Febrero	2023-06-02T00:00:00	2024-11-06T08:00:00	3	Temperatura mínima	12.7
77052	7	Sololá	702	San José Chacayá	5	Chacayá	2	Febrero	2023-06-02T00:00:00	2024-11-06T08:00:00	5	Humedad	60
77053	7	Sololá	702	San José Chacayá	5	Chacayá	2	Febrero	2023-06-02T00:00:00	2024-11-06T08:00:00	6	Velocidad del viento	9.7
77054	7	Sololá	702	San José Chacayá	5	Chacayá	2	Febrero	2023-06-02T00:00:00	2024-11-06T08:00:00	7	Dirección del viento	9.66
77055	7	Sololá	702	San José Chacayá	5	Chacayá	2	Febrero	2023-06-02T00:00:00	2024-11-06T08:00:00	1	Precipitación	0
77056	7	Sololá	702	San José Chacayá	5	Chacayá	2	Febrero	2023-06-02T00:00:00	2024-11-06T08:00:00	8	Radiación solar	174
77057	7	Sololá	702	San José Chacayá	5	Chacayá	2	Febrero	2023-06-02T00:00:00	2024-11-06T09:00:00	2	Temperatura media	16.9
77058	7	Sololá	702	San José Chacayá	5	Chacayá	2	Febrero	2023-06-02T00:00:00	2024-11-06T09:00:00	4	Temperatura máxima	17
77059	7	Sololá	702	San José Chacayá	5	Chacayá	2	Febrero	2023-06-02T00:00:00	2024-11-06T09:00:00	3	Temperatura mínima	14.8
77060	7	Sololá	702	San José Chacayá	5	Chacayá	2	Febrero	2023-06-02T00:00:00	2024-11-06T09:00:00	5	Humedad	53
77061	7	Sololá	702	San José Chacayá	5	Chacayá	2	Febrero	2023-06-02T00:00:00	2024-11-06T09:00:00	6	Velocidad del viento	8
77062	7	Sololá	702	San José Chacayá	5	Chacayá	2	Febrero	2023-06-02T00:00:00	2024-11-06T09:00:00	7	Dirección del viento	8.05
77063	7	Sololá	702	San José Chacayá	5	Chacayá	2	Febrero	2023-06-02T00:00:00	2024-11-06T09:00:00	1	Precipitación	0
77064	7	Sololá	702	San José Chacayá	5	Chacayá	2	Febrero	2023-06-02T00:00:00	2024-11-06T09:00:00	8	Radiación solar	605
77065	7	Sololá	702	San José Chacayá	5	Chacayá	2	Febrero	2023-06-02T00:00:00	2024-11-06T10:00:00	2	Temperatura media	19.8
77066	7	Sololá	702	San José Chacayá	5	Chacayá	2	Febrero	2023-06-02T00:00:00	2024-11-06T10:00:00	4	Temperatura máxima	20.1
77067	7	Sololá	702	San José Chacayá	5	Chacayá	2	Febrero	2023-06-02T00:00:00	2024-11-06T10:00:00	3	Temperatura mínima	16.9
77068	7	Sololá	702	San José Chacayá	5	Chacayá	2	Febrero	2023-06-02T00:00:00	2024-11-06T10:00:00	5	Humedad	45
77069	7	Sololá	702	San José Chacayá	5	Chacayá	2	Febrero	2023-06-02T00:00:00	2024-11-06T10:00:00	6	Velocidad del viento	6.4
77070	7	Sololá	702	San José Chacayá	5	Chacayá	2	Febrero	2023-06-02T00:00:00	2024-11-06T10:00:00	7	Dirección del viento	6.44
77071	7	Sololá	702	San José Chacayá	5	Chacayá	2	Febrero	2023-06-02T00:00:00	2024-11-06T10:00:00	1	Precipitación	0
77072	7	Sololá	702	San José Chacayá	5	Chacayá	2	Febrero	2023-06-02T00:00:00	2024-11-06T10:00:00	8	Radiación solar	662
77073	7	Sololá	702	San José Chacayá	5	Chacayá	2	Febrero	2023-06-02T00:00:00	2024-11-06T11:00:00	2	Temperatura media	20.6
77074	7	Sololá	702	San José Chacayá	5	Chacayá	2	Febrero	2023-06-02T00:00:00	2024-11-06T11:00:00	4	Temperatura máxima	20.8
77075	7	Sololá	702	San José Chacayá	5	Chacayá	2	Febrero	2023-06-02T00:00:00	2024-11-06T11:00:00	3	Temperatura mínima	19.8
77076	7	Sololá	702	San José Chacayá	5	Chacayá	2	Febrero	2023-06-02T00:00:00	2024-11-06T11:00:00	5	Humedad	43
77077	7	Sololá	702	San José Chacayá	5	Chacayá	2	Febrero	2023-06-02T00:00:00	2024-11-06T11:00:00	6	Velocidad del viento	6.4
77078	7	Sololá	702	San José Chacayá	5	Chacayá	2	Febrero	2023-06-02T00:00:00	2024-11-06T11:00:00	7	Dirección del viento	6.44
77079	7	Sololá	702	San José Chacayá	5	Chacayá	2	Febrero	2023-06-02T00:00:00	2024-11-06T11:00:00	1	Precipitación	0
77080	7	Sololá	702	San José Chacayá	5	Chacayá	2	Febrero	2023-06-02T00:00:00	2024-11-06T11:00:00	8	Radiación solar	786
77081	7	Sololá	702	San José Chacayá	5	Chacayá	2	Febrero	2023-06-02T00:00:00	2024-11-06T12:00:00	2	Temperatura media	20.4
77082	7	Sololá	702	San José Chacayá	5	Chacayá	2	Febrero	2023-06-02T00:00:00	2024-11-06T12:00:00	4	Temperatura máxima	21.7
77083	7	Sololá	702	San José Chacayá	5	Chacayá	2	Febrero	2023-06-02T00:00:00	2024-11-06T12:00:00	3	Temperatura mínima	20.4
77084	7	Sololá	702	San José Chacayá	5	Chacayá	2	Febrero	2023-06-02T00:00:00	2024-11-06T12:00:00	5	Humedad	44
77085	7	Sololá	702	San José Chacayá	5	Chacayá	2	Febrero	2023-06-02T00:00:00	2024-11-06T12:00:00	6	Velocidad del viento	6.4
77086	7	Sololá	702	San José Chacayá	5	Chacayá	2	Febrero	2023-06-02T00:00:00	2024-11-06T12:00:00	7	Dirección del viento	6.44
77087	7	Sololá	702	San José Chacayá	5	Chacayá	2	Febrero	2023-06-02T00:00:00	2024-11-06T12:00:00	1	Precipitación	0
77088	7	Sololá	702	San José Chacayá	5	Chacayá	2	Febrero	2023-06-02T00:00:00	2024-11-06T12:00:00	8	Radiación solar	876
77089	7	Sololá	702	San José Chacayá	5	Chacayá	2	Febrero	2023-06-02T00:00:00	2024-11-06T13:00:00	2	Temperatura media	20.9
77090	7	Sololá	702	San José Chacayá	5	Chacayá	2	Febrero	2023-06-02T00:00:00	2024-11-06T13:00:00	4	Temperatura máxima	20.9
77091	7	Sololá	702	San José Chacayá	5	Chacayá	2	Febrero	2023-06-02T00:00:00	2024-11-06T13:00:00	3	Temperatura mínima	19.6
77092	7	Sololá	702	San José Chacayá	5	Chacayá	2	Febrero	2023-06-02T00:00:00	2024-11-06T13:00:00	5	Humedad	45
77093	7	Sololá	702	San José Chacayá	5	Chacayá	2	Febrero	2023-06-02T00:00:00	2024-11-06T13:00:00	6	Velocidad del viento	4.8
77094	7	Sololá	702	San José Chacayá	5	Chacayá	2	Febrero	2023-06-02T00:00:00	2024-11-06T13:00:00	7	Dirección del viento	4.83
77095	7	Sololá	702	San José Chacayá	5	Chacayá	2	Febrero	2023-06-02T00:00:00	2024-11-06T13:00:00	1	Precipitación	0
77096	7	Sololá	702	San José Chacayá	5	Chacayá	2	Febrero	2023-06-02T00:00:00	2024-11-06T13:00:00	8	Radiación solar	903
77097	7	Sololá	702	San José Chacayá	5	Chacayá	2	Febrero	2023-06-02T00:00:00	2024-11-06T14:00:00	2	Temperatura media	19.3
77098	7	Sololá	702	San José Chacayá	5	Chacayá	2	Febrero	2023-06-02T00:00:00	2024-11-06T14:00:00	4	Temperatura máxima	21.9
77099	7	Sololá	702	San José Chacayá	5	Chacayá	2	Febrero	2023-06-02T00:00:00	2024-11-06T14:00:00	3	Temperatura mínima	19.3
77100	7	Sololá	702	San José Chacayá	5	Chacayá	2	Febrero	2023-06-02T00:00:00	2024-11-06T14:00:00	5	Humedad	54
77101	7	Sololá	702	San José Chacayá	5	Chacayá	2	Febrero	2023-06-02T00:00:00	2024-11-06T14:00:00	6	Velocidad del viento	4.8
77102	7	Sololá	702	San José Chacayá	5	Chacayá	2	Febrero	2023-06-02T00:00:00	2024-11-06T14:00:00	7	Dirección del viento	4.83
77103	7	Sololá	702	San José Chacayá	5	Chacayá	2	Febrero	2023-06-02T00:00:00	2024-11-06T14:00:00	1	Precipitación	0
77104	7	Sololá	702	San José Chacayá	5	Chacayá	2	Febrero	2023-06-02T00:00:00	2024-11-06T14:00:00	8	Radiación solar	600
77105	7	Sololá	702	San José Chacayá	5	Chacayá	2	Febrero	2023-06-02T00:00:00	2024-11-06T15:00:00	2	Temperatura media	19.2
77106	7	Sololá	702	San José Chacayá	5	Chacayá	2	Febrero	2023-06-02T00:00:00	2024-11-06T15:00:00	4	Temperatura máxima	19.7
77107	7	Sololá	702	San José Chacayá	5	Chacayá	2	Febrero	2023-06-02T00:00:00	2024-11-06T15:00:00	3	Temperatura mínima	18.6
77108	7	Sololá	702	San José Chacayá	5	Chacayá	2	Febrero	2023-06-02T00:00:00	2024-11-06T15:00:00	5	Humedad	51
77109	7	Sololá	702	San José Chacayá	5	Chacayá	2	Febrero	2023-06-02T00:00:00	2024-11-06T15:00:00	6	Velocidad del viento	3.2
77110	7	Sololá	702	San José Chacayá	5	Chacayá	2	Febrero	2023-06-02T00:00:00	2024-11-06T15:00:00	7	Dirección del viento	3.22
77111	7	Sololá	702	San José Chacayá	5	Chacayá	2	Febrero	2023-06-02T00:00:00	2024-11-06T15:00:00	1	Precipitación	0
77112	7	Sololá	702	San José Chacayá	5	Chacayá	2	Febrero	2023-06-02T00:00:00	2024-11-06T15:00:00	8	Radiación solar	322
77113	7	Sololá	702	San José Chacayá	5	Chacayá	2	Febrero	2023-06-02T00:00:00	2024-11-06T16:00:00	2	Temperatura media	15.5
77114	7	Sololá	702	San José Chacayá	5	Chacayá	2	Febrero	2023-06-02T00:00:00	2024-11-06T16:00:00	4	Temperatura máxima	19.2
77115	7	Sololá	702	San José Chacayá	5	Chacayá	2	Febrero	2023-06-02T00:00:00	2024-11-06T16:00:00	3	Temperatura mínima	15.5
77116	7	Sololá	702	San José Chacayá	5	Chacayá	2	Febrero	2023-06-02T00:00:00	2024-11-06T16:00:00	5	Humedad	62
77117	7	Sololá	702	San José Chacayá	5	Chacayá	2	Febrero	2023-06-02T00:00:00	2024-11-06T16:00:00	6	Velocidad del viento	3.2
77118	7	Sololá	702	San José Chacayá	5	Chacayá	2	Febrero	2023-06-02T00:00:00	2024-11-06T16:00:00	7	Dirección del viento	3.22
77119	7	Sololá	702	San José Chacayá	5	Chacayá	2	Febrero	2023-06-02T00:00:00	2024-11-06T16:00:00	1	Precipitación	0
77120	7	Sololá	702	San José Chacayá	5	Chacayá	2	Febrero	2023-06-02T00:00:00	2024-11-06T16:00:00	8	Radiación solar	349
77121	7	Sololá	702	San José Chacayá	5	Chacayá	2	Febrero	2023-06-02T00:00:00	2024-11-06T17:00:00	2	Temperatura media	13.3
77122	7	Sololá	702	San José Chacayá	5	Chacayá	2	Febrero	2023-06-02T00:00:00	2024-11-06T17:00:00	4	Temperatura máxima	15.5
77123	7	Sololá	702	San José Chacayá	5	Chacayá	2	Febrero	2023-06-02T00:00:00	2024-11-06T17:00:00	3	Temperatura mínima	13.3
77124	7	Sololá	702	San José Chacayá	5	Chacayá	2	Febrero	2023-06-02T00:00:00	2024-11-06T17:00:00	5	Humedad	73
77125	7	Sololá	702	San José Chacayá	5	Chacayá	2	Febrero	2023-06-02T00:00:00	2024-11-06T17:00:00	6	Velocidad del viento	6.4
77126	7	Sololá	702	San José Chacayá	5	Chacayá	2	Febrero	2023-06-02T00:00:00	2024-11-06T17:00:00	7	Dirección del viento	6.44
77127	7	Sololá	702	San José Chacayá	5	Chacayá	2	Febrero	2023-06-02T00:00:00	2024-11-06T17:00:00	1	Precipitación	0
77128	7	Sololá	702	San José Chacayá	5	Chacayá	2	Febrero	2023-06-02T00:00:00	2024-11-06T17:00:00	8	Radiación solar	225
77129	7	Sololá	702	San José Chacayá	5	Chacayá	2	Febrero	2023-06-02T00:00:00	2024-11-06T18:00:00	2	Temperatura media	12
77130	7	Sololá	702	San José Chacayá	5	Chacayá	2	Febrero	2023-06-02T00:00:00	2024-11-06T18:00:00	4	Temperatura máxima	13.3
77131	7	Sololá	702	San José Chacayá	5	Chacayá	2	Febrero	2023-06-02T00:00:00	2024-11-06T18:00:00	3	Temperatura mínima	12
77132	7	Sololá	702	San José Chacayá	5	Chacayá	2	Febrero	2023-06-02T00:00:00	2024-11-06T18:00:00	5	Humedad	77
77133	7	Sololá	702	San José Chacayá	5	Chacayá	2	Febrero	2023-06-02T00:00:00	2024-11-06T18:00:00	6	Velocidad del viento	6.4
77134	7	Sololá	702	San José Chacayá	5	Chacayá	2	Febrero	2023-06-02T00:00:00	2024-11-06T18:00:00	7	Dirección del viento	6.44
77135	7	Sololá	702	San José Chacayá	5	Chacayá	2	Febrero	2023-06-02T00:00:00	2024-11-06T18:00:00	1	Precipitación	0
77136	7	Sololá	702	San José Chacayá	5	Chacayá	2	Febrero	2023-06-02T00:00:00	2024-11-06T18:00:00	8	Radiación solar	37
77137	7	Sololá	702	San José Chacayá	5	Chacayá	2	Febrero	2023-06-02T00:00:00	2024-11-06T19:00:00	2	Temperatura media	11.1
77138	7	Sololá	702	San José Chacayá	5	Chacayá	2	Febrero	2023-06-02T00:00:00	2024-11-06T19:00:00	4	Temperatura máxima	12.1
77139	7	Sololá	702	San José Chacayá	5	Chacayá	2	Febrero	2023-06-02T00:00:00	2024-11-06T19:00:00	3	Temperatura mínima	11.1
77140	7	Sololá	702	San José Chacayá	5	Chacayá	2	Febrero	2023-06-02T00:00:00	2024-11-06T19:00:00	5	Humedad	77
77141	7	Sololá	702	San José Chacayá	5	Chacayá	2	Febrero	2023-06-02T00:00:00	2024-11-06T19:00:00	6	Velocidad del viento	3.2
77142	7	Sololá	702	San José Chacayá	5	Chacayá	2	Febrero	2023-06-02T00:00:00	2024-11-06T19:00:00	7	Dirección del viento	3.22
77143	7	Sololá	702	San José Chacayá	5	Chacayá	2	Febrero	2023-06-02T00:00:00	2024-11-06T19:00:00	1	Precipitación	0
77144	7	Sololá	702	San José Chacayá	5	Chacayá	2	Febrero	2023-06-02T00:00:00	2024-11-06T19:00:00	8	Radiación solar	0
77145	7	Sololá	702	San José Chacayá	5	Chacayá	2	Febrero	2023-06-02T00:00:00	2024-11-06T20:00:00	2	Temperatura media	8.1
77146	7	Sololá	702	San José Chacayá	5	Chacayá	2	Febrero	2023-06-02T00:00:00	2024-11-06T20:00:00	4	Temperatura máxima	11.1
77147	7	Sololá	702	San José Chacayá	5	Chacayá	2	Febrero	2023-06-02T00:00:00	2024-11-06T20:00:00	3	Temperatura mínima	8.1
77148	7	Sololá	702	San José Chacayá	5	Chacayá	2	Febrero	2023-06-02T00:00:00	2024-11-06T20:00:00	5	Humedad	85
77149	7	Sololá	702	San José Chacayá	5	Chacayá	2	Febrero	2023-06-02T00:00:00	2024-11-06T20:00:00	6	Velocidad del viento	1.6
77150	7	Sololá	702	San José Chacayá	5	Chacayá	2	Febrero	2023-06-02T00:00:00	2024-11-06T20:00:00	7	Dirección del viento	1.61
77151	7	Sololá	702	San José Chacayá	5	Chacayá	2	Febrero	2023-06-02T00:00:00	2024-11-06T20:00:00	1	Precipitación	0
77152	7	Sololá	702	San José Chacayá	5	Chacayá	2	Febrero	2023-06-02T00:00:00	2024-11-06T20:00:00	8	Radiación solar	0
77153	7	Sololá	702	San José Chacayá	5	Chacayá	2	Febrero	2023-06-02T00:00:00	2024-11-06T21:00:00	2	Temperatura media	6.6
77154	7	Sololá	702	San José Chacayá	5	Chacayá	2	Febrero	2023-06-02T00:00:00	2024-11-06T21:00:00	4	Temperatura máxima	8.1
77155	7	Sololá	702	San José Chacayá	5	Chacayá	2	Febrero	2023-06-02T00:00:00	2024-11-06T21:00:00	3	Temperatura mínima	6.6
77156	7	Sololá	702	San José Chacayá	5	Chacayá	2	Febrero	2023-06-02T00:00:00	2024-11-06T21:00:00	5	Humedad	88
77157	7	Sololá	702	San José Chacayá	5	Chacayá	2	Febrero	2023-06-02T00:00:00	2024-11-06T21:00:00	6	Velocidad del viento	1.6
77158	7	Sololá	702	San José Chacayá	5	Chacayá	2	Febrero	2023-06-02T00:00:00	2024-11-06T21:00:00	7	Dirección del viento	1.61
77159	7	Sololá	702	San José Chacayá	5	Chacayá	2	Febrero	2023-06-02T00:00:00	2024-11-06T21:00:00	1	Precipitación	0
77160	7	Sololá	702	San José Chacayá	5	Chacayá	2	Febrero	2023-06-02T00:00:00	2024-11-06T21:00:00	8	Radiación solar	0
77161	7	Sololá	702	San José Chacayá	5	Chacayá	2	Febrero	2023-06-02T00:00:00	2024-11-06T22:00:00	2	Temperatura media	5.7
77162	7	Sololá	702	San José Chacayá	5	Chacayá	2	Febrero	2023-06-02T00:00:00	2024-11-06T22:00:00	4	Temperatura máxima	6.6
77163	7	Sololá	702	San José Chacayá	5	Chacayá	2	Febrero	2023-06-02T00:00:00	2024-11-06T22:00:00	3	Temperatura mínima	5.7
77164	7	Sololá	702	San José Chacayá	5	Chacayá	2	Febrero	2023-06-02T00:00:00	2024-11-06T22:00:00	5	Humedad	88
77165	7	Sololá	702	San José Chacayá	5	Chacayá	2	Febrero	2023-06-02T00:00:00	2024-11-06T22:00:00	6	Velocidad del viento	1.6
77166	7	Sololá	702	San José Chacayá	5	Chacayá	2	Febrero	2023-06-02T00:00:00	2024-11-06T22:00:00	7	Dirección del viento	1.61
77167	7	Sololá	702	San José Chacayá	5	Chacayá	2	Febrero	2023-06-02T00:00:00	2024-11-06T22:00:00	1	Precipitación	0
77168	7	Sololá	702	San José Chacayá	5	Chacayá	2	Febrero	2023-06-02T00:00:00	2024-11-06T22:00:00	8	Radiación solar	0
77169	7	Sololá	702	San José Chacayá	5	Chacayá	2	Febrero	2023-06-02T00:00:00	2024-11-06T23:00:00	2	Temperatura media	4.8
77170	7	Sololá	702	San José Chacayá	5	Chacayá	2	Febrero	2023-06-02T00:00:00	2024-11-06T23:00:00	4	Temperatura máxima	5.8
77171	7	Sololá	702	San José Chacayá	5	Chacayá	2	Febrero	2023-06-02T00:00:00	2024-11-06T23:00:00	3	Temperatura mínima	4.8
77172	7	Sololá	702	San José Chacayá	5	Chacayá	2	Febrero	2023-06-02T00:00:00	2024-11-06T23:00:00	5	Humedad	89
77173	7	Sololá	702	San José Chacayá	5	Chacayá	2	Febrero	2023-06-02T00:00:00	2024-11-06T23:00:00	6	Velocidad del viento	1.6
77174	7	Sololá	702	San José Chacayá	5	Chacayá	2	Febrero	2023-06-02T00:00:00	2024-11-06T23:00:00	7	Dirección del viento	1.61
77175	7	Sololá	702	San José Chacayá	5	Chacayá	2	Febrero	2023-06-02T00:00:00	2024-11-06T23:00:00	1	Precipitación	0
77176	7	Sololá	702	San José Chacayá	5	Chacayá	2	Febrero	2023-06-02T00:00:00	2024-11-06T23:00:00	8	Radiación solar	0
77177	7	Sololá	702	San José Chacayá	5	Chacayá	2	Febrero	2023-07-02T00:00:00	2024-11-06T00:00:00	2	Temperatura media	4.3
77178	7	Sololá	702	San José Chacayá	5	Chacayá	2	Febrero	2023-07-02T00:00:00	2024-11-06T00:00:00	4	Temperatura máxima	4.8
77179	7	Sololá	702	San José Chacayá	5	Chacayá	2	Febrero	2023-07-02T00:00:00	2024-11-06T00:00:00	3	Temperatura mínima	4.3
77180	7	Sololá	702	San José Chacayá	5	Chacayá	2	Febrero	2023-07-02T00:00:00	2024-11-06T00:00:00	5	Humedad	88
77181	7	Sololá	702	San José Chacayá	5	Chacayá	2	Febrero	2023-07-02T00:00:00	2024-11-06T00:00:00	6	Velocidad del viento	1.6
77182	7	Sololá	702	San José Chacayá	5	Chacayá	2	Febrero	2023-07-02T00:00:00	2024-11-06T00:00:00	7	Dirección del viento	1.61
77183	7	Sololá	702	San José Chacayá	5	Chacayá	2	Febrero	2023-07-02T00:00:00	2024-11-06T00:00:00	1	Precipitación	0
77184	7	Sololá	702	San José Chacayá	5	Chacayá	2	Febrero	2023-07-02T00:00:00	2024-11-06T00:00:00	8	Radiación solar	0
77185	7	Sololá	702	San José Chacayá	5	Chacayá	2	Febrero	2023-07-02T00:00:00	2024-11-06T01:00:00	2	Temperatura media	3.5
77186	7	Sololá	702	San José Chacayá	5	Chacayá	2	Febrero	2023-07-02T00:00:00	2024-11-06T01:00:00	4	Temperatura máxima	4.5
77187	7	Sololá	702	San José Chacayá	5	Chacayá	2	Febrero	2023-07-02T00:00:00	2024-11-06T01:00:00	3	Temperatura mínima	3.5
77188	7	Sololá	702	San José Chacayá	5	Chacayá	2	Febrero	2023-07-02T00:00:00	2024-11-06T01:00:00	5	Humedad	88
77189	7	Sololá	702	San José Chacayá	5	Chacayá	2	Febrero	2023-07-02T00:00:00	2024-11-06T01:00:00	6	Velocidad del viento	1.6
77190	7	Sololá	702	San José Chacayá	5	Chacayá	2	Febrero	2023-07-02T00:00:00	2024-11-06T01:00:00	7	Dirección del viento	1.61
77191	7	Sololá	702	San José Chacayá	5	Chacayá	2	Febrero	2023-07-02T00:00:00	2024-11-06T01:00:00	1	Precipitación	0
77192	7	Sololá	702	San José Chacayá	5	Chacayá	2	Febrero	2023-07-02T00:00:00	2024-11-06T01:00:00	8	Radiación solar	0
77193	7	Sololá	702	San José Chacayá	5	Chacayá	2	Febrero	2023-07-02T00:00:00	2024-11-06T02:00:00	2	Temperatura media	3.1
77194	7	Sololá	702	San José Chacayá	5	Chacayá	2	Febrero	2023-07-02T00:00:00	2024-11-06T02:00:00	4	Temperatura máxima	3.6
77195	7	Sololá	702	San José Chacayá	5	Chacayá	2	Febrero	2023-07-02T00:00:00	2024-11-06T02:00:00	3	Temperatura mínima	3.1
77196	7	Sololá	702	San José Chacayá	5	Chacayá	2	Febrero	2023-07-02T00:00:00	2024-11-06T02:00:00	5	Humedad	88
77197	7	Sololá	702	San José Chacayá	5	Chacayá	2	Febrero	2023-07-02T00:00:00	2024-11-06T02:00:00	6	Velocidad del viento	1.6
77198	7	Sololá	702	San José Chacayá	5	Chacayá	2	Febrero	2023-07-02T00:00:00	2024-11-06T02:00:00	7	Dirección del viento	1.61
77199	7	Sololá	702	San José Chacayá	5	Chacayá	2	Febrero	2023-07-02T00:00:00	2024-11-06T02:00:00	1	Precipitación	0
77200	7	Sololá	702	San José Chacayá	5	Chacayá	2	Febrero	2023-07-02T00:00:00	2024-11-06T02:00:00	8	Radiación solar	0
77201	7	Sololá	702	San José Chacayá	5	Chacayá	2	Febrero	2023-07-02T00:00:00	2024-11-06T03:00:00	2	Temperatura media	3
77202	7	Sololá	702	San José Chacayá	5	Chacayá	2	Febrero	2023-07-02T00:00:00	2024-11-06T03:00:00	4	Temperatura máxima	3.1
77203	7	Sololá	702	San José Chacayá	5	Chacayá	2	Febrero	2023-07-02T00:00:00	2024-11-06T03:00:00	3	Temperatura mínima	2.8
77204	7	Sololá	702	San José Chacayá	5	Chacayá	2	Febrero	2023-07-02T00:00:00	2024-11-06T03:00:00	5	Humedad	86
77205	7	Sololá	702	San José Chacayá	5	Chacayá	2	Febrero	2023-07-02T00:00:00	2024-11-06T03:00:00	6	Velocidad del viento	1.6
77206	7	Sololá	702	San José Chacayá	5	Chacayá	2	Febrero	2023-07-02T00:00:00	2024-11-06T03:00:00	7	Dirección del viento	1.61
77207	7	Sololá	702	San José Chacayá	5	Chacayá	2	Febrero	2023-07-02T00:00:00	2024-11-06T03:00:00	1	Precipitación	0
77208	7	Sololá	702	San José Chacayá	5	Chacayá	2	Febrero	2023-07-02T00:00:00	2024-11-06T03:00:00	8	Radiación solar	0
77209	7	Sololá	702	San José Chacayá	5	Chacayá	2	Febrero	2023-07-02T00:00:00	2024-11-06T04:00:00	2	Temperatura media	2.4
77210	7	Sololá	702	San José Chacayá	5	Chacayá	2	Febrero	2023-07-02T00:00:00	2024-11-06T04:00:00	4	Temperatura máxima	3
77211	7	Sololá	702	San José Chacayá	5	Chacayá	2	Febrero	2023-07-02T00:00:00	2024-11-06T04:00:00	3	Temperatura mínima	2.3
77212	7	Sololá	702	San José Chacayá	5	Chacayá	2	Febrero	2023-07-02T00:00:00	2024-11-06T04:00:00	5	Humedad	88
77213	7	Sololá	702	San José Chacayá	5	Chacayá	2	Febrero	2023-07-02T00:00:00	2024-11-06T04:00:00	6	Velocidad del viento	1.6
77214	7	Sololá	702	San José Chacayá	5	Chacayá	2	Febrero	2023-07-02T00:00:00	2024-11-06T04:00:00	7	Dirección del viento	1.61
77215	7	Sololá	702	San José Chacayá	5	Chacayá	2	Febrero	2023-07-02T00:00:00	2024-11-06T04:00:00	1	Precipitación	0
77216	7	Sololá	702	San José Chacayá	5	Chacayá	2	Febrero	2023-07-02T00:00:00	2024-11-06T04:00:00	8	Radiación solar	0
77217	7	Sololá	702	San José Chacayá	5	Chacayá	2	Febrero	2023-07-02T00:00:00	2024-11-06T05:00:00	2	Temperatura media	2.9
77218	7	Sololá	702	San José Chacayá	5	Chacayá	2	Febrero	2023-07-02T00:00:00	2024-11-06T05:00:00	4	Temperatura máxima	2.9
77219	7	Sololá	702	San José Chacayá	5	Chacayá	2	Febrero	2023-07-02T00:00:00	2024-11-06T05:00:00	3	Temperatura mínima	2.4
77220	7	Sololá	702	San José Chacayá	5	Chacayá	2	Febrero	2023-07-02T00:00:00	2024-11-06T05:00:00	5	Humedad	86
77221	7	Sololá	702	San José Chacayá	5	Chacayá	2	Febrero	2023-07-02T00:00:00	2024-11-06T05:00:00	6	Velocidad del viento	1.6
77222	7	Sololá	702	San José Chacayá	5	Chacayá	2	Febrero	2023-07-02T00:00:00	2024-11-06T05:00:00	7	Dirección del viento	1.61
77223	7	Sololá	702	San José Chacayá	5	Chacayá	2	Febrero	2023-07-02T00:00:00	2024-11-06T05:00:00	1	Precipitación	0
77224	7	Sololá	702	San José Chacayá	5	Chacayá	2	Febrero	2023-07-02T00:00:00	2024-11-06T05:00:00	8	Radiación solar	0
77225	7	Sololá	702	San José Chacayá	5	Chacayá	2	Febrero	2023-07-02T00:00:00	2024-11-06T06:00:00	2	Temperatura media	3.4
77226	7	Sololá	702	San José Chacayá	5	Chacayá	2	Febrero	2023-07-02T00:00:00	2024-11-06T06:00:00	4	Temperatura máxima	3.4
77227	7	Sololá	702	San José Chacayá	5	Chacayá	2	Febrero	2023-07-02T00:00:00	2024-11-06T06:00:00	3	Temperatura mínima	2.6
77228	7	Sololá	702	San José Chacayá	5	Chacayá	2	Febrero	2023-07-02T00:00:00	2024-11-06T06:00:00	5	Humedad	85
77229	7	Sololá	702	San José Chacayá	5	Chacayá	2	Febrero	2023-07-02T00:00:00	2024-11-06T06:00:00	6	Velocidad del viento	1.6
77230	7	Sololá	702	San José Chacayá	5	Chacayá	2	Febrero	2023-07-02T00:00:00	2024-11-06T06:00:00	7	Dirección del viento	1.61
77231	7	Sololá	702	San José Chacayá	5	Chacayá	2	Febrero	2023-07-02T00:00:00	2024-11-06T06:00:00	1	Precipitación	0
77232	7	Sololá	702	San José Chacayá	5	Chacayá	2	Febrero	2023-07-02T00:00:00	2024-11-06T06:00:00	8	Radiación solar	0
77233	7	Sololá	702	San José Chacayá	5	Chacayá	2	Febrero	2023-07-02T00:00:00	2024-11-06T07:00:00	2	Temperatura media	9.5
77234	7	Sololá	702	San José Chacayá	5	Chacayá	2	Febrero	2023-07-02T00:00:00	2024-11-06T07:00:00	4	Temperatura máxima	9.5
77235	7	Sololá	702	San José Chacayá	5	Chacayá	2	Febrero	2023-07-02T00:00:00	2024-11-06T07:00:00	3	Temperatura mínima	3.5
77236	7	Sololá	702	San José Chacayá	5	Chacayá	2	Febrero	2023-07-02T00:00:00	2024-11-06T07:00:00	5	Humedad	69
77237	7	Sololá	702	San José Chacayá	5	Chacayá	2	Febrero	2023-07-02T00:00:00	2024-11-06T07:00:00	6	Velocidad del viento	3.2
77238	7	Sololá	702	San José Chacayá	5	Chacayá	2	Febrero	2023-07-02T00:00:00	2024-11-06T07:00:00	7	Dirección del viento	3.22
77239	7	Sololá	702	San José Chacayá	5	Chacayá	2	Febrero	2023-07-02T00:00:00	2024-11-06T07:00:00	1	Precipitación	0
77240	7	Sololá	702	San José Chacayá	5	Chacayá	2	Febrero	2023-07-02T00:00:00	2024-11-06T07:00:00	8	Radiación solar	7
77241	7	Sololá	702	San José Chacayá	5	Chacayá	2	Febrero	2023-07-02T00:00:00	2024-11-06T08:00:00	2	Temperatura media	16.3
77242	7	Sololá	702	San José Chacayá	5	Chacayá	2	Febrero	2023-07-02T00:00:00	2024-11-06T08:00:00	4	Temperatura máxima	16.3
77243	7	Sololá	702	San José Chacayá	5	Chacayá	2	Febrero	2023-07-02T00:00:00	2024-11-06T08:00:00	3	Temperatura mínima	9.5
77244	7	Sololá	702	San José Chacayá	5	Chacayá	2	Febrero	2023-07-02T00:00:00	2024-11-06T08:00:00	5	Humedad	53
77245	7	Sololá	702	San José Chacayá	5	Chacayá	2	Febrero	2023-07-02T00:00:00	2024-11-06T08:00:00	6	Velocidad del viento	1.6
77246	7	Sololá	702	San José Chacayá	5	Chacayá	2	Febrero	2023-07-02T00:00:00	2024-11-06T08:00:00	7	Dirección del viento	1.61
77247	7	Sololá	702	San José Chacayá	5	Chacayá	2	Febrero	2023-07-02T00:00:00	2024-11-06T08:00:00	1	Precipitación	0
77248	7	Sololá	702	San José Chacayá	5	Chacayá	2	Febrero	2023-07-02T00:00:00	2024-11-06T08:00:00	8	Radiación solar	173
77249	7	Sololá	702	San José Chacayá	5	Chacayá	2	Febrero	2023-07-02T00:00:00	2024-11-06T09:00:00	2	Temperatura media	20.3
77250	7	Sololá	702	San José Chacayá	5	Chacayá	2	Febrero	2023-07-02T00:00:00	2024-11-06T09:00:00	4	Temperatura máxima	20.3
77251	7	Sololá	702	San José Chacayá	5	Chacayá	2	Febrero	2023-07-02T00:00:00	2024-11-06T09:00:00	3	Temperatura mínima	16.3
77252	7	Sololá	702	San José Chacayá	5	Chacayá	2	Febrero	2023-07-02T00:00:00	2024-11-06T09:00:00	5	Humedad	37
77253	7	Sololá	702	San José Chacayá	5	Chacayá	2	Febrero	2023-07-02T00:00:00	2024-11-06T09:00:00	6	Velocidad del viento	3.2
77254	7	Sololá	702	San José Chacayá	5	Chacayá	2	Febrero	2023-07-02T00:00:00	2024-11-06T09:00:00	7	Dirección del viento	3.22
77255	7	Sololá	702	San José Chacayá	5	Chacayá	2	Febrero	2023-07-02T00:00:00	2024-11-06T09:00:00	1	Precipitación	0
77256	7	Sololá	702	San José Chacayá	5	Chacayá	2	Febrero	2023-07-02T00:00:00	2024-11-06T09:00:00	8	Radiación solar	439
77257	7	Sololá	702	San José Chacayá	5	Chacayá	2	Febrero	2023-07-02T00:00:00	2024-11-06T10:00:00	2	Temperatura media	21.6
77258	7	Sololá	702	San José Chacayá	5	Chacayá	2	Febrero	2023-07-02T00:00:00	2024-11-06T10:00:00	4	Temperatura máxima	21.7
77259	7	Sololá	702	San José Chacayá	5	Chacayá	2	Febrero	2023-07-02T00:00:00	2024-11-06T10:00:00	3	Temperatura mínima	20.3
77260	7	Sololá	702	San José Chacayá	5	Chacayá	2	Febrero	2023-07-02T00:00:00	2024-11-06T10:00:00	5	Humedad	41
77261	7	Sololá	702	San José Chacayá	5	Chacayá	2	Febrero	2023-07-02T00:00:00	2024-11-06T10:00:00	6	Velocidad del viento	4.8
77262	7	Sololá	702	San José Chacayá	5	Chacayá	2	Febrero	2023-07-02T00:00:00	2024-11-06T10:00:00	7	Dirección del viento	4.83
77263	7	Sololá	702	San José Chacayá	5	Chacayá	2	Febrero	2023-07-02T00:00:00	2024-11-06T10:00:00	1	Precipitación	0
77264	7	Sololá	702	San José Chacayá	5	Chacayá	2	Febrero	2023-07-02T00:00:00	2024-11-06T10:00:00	8	Radiación solar	470
77265	7	Sololá	702	San José Chacayá	5	Chacayá	2	Febrero	2023-07-02T00:00:00	2024-11-06T11:00:00	2	Temperatura media	21.2
77266	7	Sololá	702	San José Chacayá	5	Chacayá	2	Febrero	2023-07-02T00:00:00	2024-11-06T11:00:00	4	Temperatura máxima	21.6
77267	7	Sololá	702	San José Chacayá	5	Chacayá	2	Febrero	2023-07-02T00:00:00	2024-11-06T11:00:00	3	Temperatura mínima	20.8
77268	7	Sololá	702	San José Chacayá	5	Chacayá	2	Febrero	2023-07-02T00:00:00	2024-11-06T11:00:00	5	Humedad	40
77269	7	Sololá	702	San José Chacayá	5	Chacayá	2	Febrero	2023-07-02T00:00:00	2024-11-06T11:00:00	6	Velocidad del viento	6.4
77270	7	Sololá	702	San José Chacayá	5	Chacayá	2	Febrero	2023-07-02T00:00:00	2024-11-06T11:00:00	7	Dirección del viento	6.44
77271	7	Sololá	702	San José Chacayá	5	Chacayá	2	Febrero	2023-07-02T00:00:00	2024-11-06T11:00:00	1	Precipitación	0
77272	7	Sololá	702	San José Chacayá	5	Chacayá	2	Febrero	2023-07-02T00:00:00	2024-11-06T11:00:00	8	Radiación solar	56
77273	7	Sololá	702	San José Chacayá	5	Chacayá	2	Febrero	2023-07-02T00:00:00	2024-11-06T12:00:00	2	Temperatura media	22.5
77274	7	Sololá	702	San José Chacayá	5	Chacayá	2	Febrero	2023-07-02T00:00:00	2024-11-06T12:00:00	4	Temperatura máxima	22.6
77275	7	Sololá	702	San José Chacayá	5	Chacayá	2	Febrero	2023-07-02T00:00:00	2024-11-06T12:00:00	3	Temperatura mínima	21.2
77276	7	Sololá	702	San José Chacayá	5	Chacayá	2	Febrero	2023-07-02T00:00:00	2024-11-06T12:00:00	5	Humedad	40
77277	7	Sololá	702	San José Chacayá	5	Chacayá	2	Febrero	2023-07-02T00:00:00	2024-11-06T12:00:00	6	Velocidad del viento	6.4
77278	7	Sololá	702	San José Chacayá	5	Chacayá	2	Febrero	2023-07-02T00:00:00	2024-11-06T12:00:00	7	Dirección del viento	6.44
77279	7	Sololá	702	San José Chacayá	5	Chacayá	2	Febrero	2023-07-02T00:00:00	2024-11-06T12:00:00	1	Precipitación	0
77280	7	Sololá	702	San José Chacayá	5	Chacayá	2	Febrero	2023-07-02T00:00:00	2024-11-06T12:00:00	8	Radiación solar	480
77281	7	Sololá	702	San José Chacayá	5	Chacayá	2	Febrero	2023-07-02T00:00:00	2024-11-06T13:00:00	2	Temperatura media	21.1
77282	7	Sololá	702	San José Chacayá	5	Chacayá	2	Febrero	2023-07-02T00:00:00	2024-11-06T13:00:00	4	Temperatura máxima	22.7
77283	7	Sololá	702	San José Chacayá	5	Chacayá	2	Febrero	2023-07-02T00:00:00	2024-11-06T13:00:00	3	Temperatura mínima	21.1
77284	7	Sololá	702	San José Chacayá	5	Chacayá	2	Febrero	2023-07-02T00:00:00	2024-11-06T13:00:00	5	Humedad	51
77285	7	Sololá	702	San José Chacayá	5	Chacayá	2	Febrero	2023-07-02T00:00:00	2024-11-06T13:00:00	6	Velocidad del viento	6.4
77286	7	Sololá	702	San José Chacayá	5	Chacayá	2	Febrero	2023-07-02T00:00:00	2024-11-06T13:00:00	7	Dirección del viento	6.44
77287	7	Sololá	702	San José Chacayá	5	Chacayá	2	Febrero	2023-07-02T00:00:00	2024-11-06T13:00:00	1	Precipitación	0
77288	7	Sololá	702	San José Chacayá	5	Chacayá	2	Febrero	2023-07-02T00:00:00	2024-11-06T13:00:00	8	Radiación solar	912
77289	7	Sololá	702	San José Chacayá	5	Chacayá	2	Febrero	2023-07-02T00:00:00	2024-11-06T14:00:00	2	Temperatura media	20
77290	7	Sololá	702	San José Chacayá	5	Chacayá	2	Febrero	2023-07-02T00:00:00	2024-11-06T14:00:00	4	Temperatura máxima	21.1
77291	7	Sololá	702	San José Chacayá	5	Chacayá	2	Febrero	2023-07-02T00:00:00	2024-11-06T14:00:00	3	Temperatura mínima	19.8
77292	7	Sololá	702	San José Chacayá	5	Chacayá	2	Febrero	2023-07-02T00:00:00	2024-11-06T14:00:00	5	Humedad	57
77293	7	Sololá	702	San José Chacayá	5	Chacayá	2	Febrero	2023-07-02T00:00:00	2024-11-06T14:00:00	6	Velocidad del viento	6.4
77294	7	Sololá	702	San José Chacayá	5	Chacayá	2	Febrero	2023-07-02T00:00:00	2024-11-06T14:00:00	7	Dirección del viento	6.44
77295	7	Sololá	702	San José Chacayá	5	Chacayá	2	Febrero	2023-07-02T00:00:00	2024-11-06T14:00:00	1	Precipitación	0
77296	7	Sololá	702	San José Chacayá	5	Chacayá	2	Febrero	2023-07-02T00:00:00	2024-11-06T14:00:00	8	Radiación solar	571
77297	7	Sololá	702	San José Chacayá	5	Chacayá	2	Febrero	2023-07-02T00:00:00	2024-11-06T15:00:00	2	Temperatura media	19.1
77298	7	Sololá	702	San José Chacayá	5	Chacayá	2	Febrero	2023-07-02T00:00:00	2024-11-06T15:00:00	4	Temperatura máxima	20
77299	7	Sololá	702	San José Chacayá	5	Chacayá	2	Febrero	2023-07-02T00:00:00	2024-11-06T15:00:00	3	Temperatura mínima	18.8
77300	7	Sololá	702	San José Chacayá	5	Chacayá	2	Febrero	2023-07-02T00:00:00	2024-11-06T15:00:00	5	Humedad	64
77301	7	Sololá	702	San José Chacayá	5	Chacayá	2	Febrero	2023-07-02T00:00:00	2024-11-06T15:00:00	6	Velocidad del viento	6.4
77302	7	Sololá	702	San José Chacayá	5	Chacayá	2	Febrero	2023-07-02T00:00:00	2024-11-06T15:00:00	7	Dirección del viento	6.44
77303	7	Sololá	702	San José Chacayá	5	Chacayá	2	Febrero	2023-07-02T00:00:00	2024-11-06T15:00:00	1	Precipitación	0
77304	7	Sololá	702	San José Chacayá	5	Chacayá	2	Febrero	2023-07-02T00:00:00	2024-11-06T15:00:00	8	Radiación solar	278
77305	7	Sololá	702	San José Chacayá	5	Chacayá	2	Febrero	2023-07-02T00:00:00	2024-11-06T16:00:00	2	Temperatura media	16.7
77306	7	Sololá	702	San José Chacayá	5	Chacayá	2	Febrero	2023-07-02T00:00:00	2024-11-06T16:00:00	4	Temperatura máxima	19.1
77307	7	Sololá	702	San José Chacayá	5	Chacayá	2	Febrero	2023-07-02T00:00:00	2024-11-06T16:00:00	3	Temperatura mínima	16.7
77308	7	Sololá	702	San José Chacayá	5	Chacayá	2	Febrero	2023-07-02T00:00:00	2024-11-06T16:00:00	5	Humedad	72
77309	7	Sololá	702	San José Chacayá	5	Chacayá	2	Febrero	2023-07-02T00:00:00	2024-11-06T16:00:00	6	Velocidad del viento	4.8
77310	7	Sololá	702	San José Chacayá	5	Chacayá	2	Febrero	2023-07-02T00:00:00	2024-11-06T16:00:00	7	Dirección del viento	4.83
77311	7	Sololá	702	San José Chacayá	5	Chacayá	2	Febrero	2023-07-02T00:00:00	2024-11-06T16:00:00	1	Precipitación	0
77312	7	Sololá	702	San José Chacayá	5	Chacayá	2	Febrero	2023-07-02T00:00:00	2024-11-06T16:00:00	8	Radiación solar	71
77313	7	Sololá	702	San José Chacayá	5	Chacayá	2	Febrero	2023-07-02T00:00:00	2024-11-06T17:00:00	2	Temperatura media	15
77314	7	Sololá	702	San José Chacayá	5	Chacayá	2	Febrero	2023-07-02T00:00:00	2024-11-06T17:00:00	4	Temperatura máxima	16.7
77315	7	Sololá	702	San José Chacayá	5	Chacayá	2	Febrero	2023-07-02T00:00:00	2024-11-06T17:00:00	3	Temperatura mínima	15
77316	7	Sololá	702	San José Chacayá	5	Chacayá	2	Febrero	2023-07-02T00:00:00	2024-11-06T17:00:00	5	Humedad	83
77317	7	Sololá	702	San José Chacayá	5	Chacayá	2	Febrero	2023-07-02T00:00:00	2024-11-06T17:00:00	6	Velocidad del viento	1.6
77318	7	Sololá	702	San José Chacayá	5	Chacayá	2	Febrero	2023-07-02T00:00:00	2024-11-06T17:00:00	7	Dirección del viento	1.61
77319	7	Sololá	702	San José Chacayá	5	Chacayá	2	Febrero	2023-07-02T00:00:00	2024-11-06T17:00:00	1	Precipitación	0
77320	7	Sololá	702	San José Chacayá	5	Chacayá	2	Febrero	2023-07-02T00:00:00	2024-11-06T17:00:00	8	Radiación solar	93
77321	7	Sololá	702	San José Chacayá	5	Chacayá	2	Febrero	2023-07-02T00:00:00	2024-11-06T18:00:00	2	Temperatura media	12.6
77322	7	Sololá	702	San José Chacayá	5	Chacayá	2	Febrero	2023-07-02T00:00:00	2024-11-06T18:00:00	4	Temperatura máxima	15.1
77323	7	Sololá	702	San José Chacayá	5	Chacayá	2	Febrero	2023-07-02T00:00:00	2024-11-06T18:00:00	3	Temperatura mínima	12.6
77324	7	Sololá	702	San José Chacayá	5	Chacayá	2	Febrero	2023-07-02T00:00:00	2024-11-06T18:00:00	5	Humedad	87
77325	7	Sololá	702	San José Chacayá	5	Chacayá	2	Febrero	2023-07-02T00:00:00	2024-11-06T18:00:00	6	Velocidad del viento	0
77326	7	Sololá	702	San José Chacayá	5	Chacayá	2	Febrero	2023-07-02T00:00:00	2024-11-06T18:00:00	7	Dirección del viento	0
77327	7	Sololá	702	San José Chacayá	5	Chacayá	2	Febrero	2023-07-02T00:00:00	2024-11-06T18:00:00	1	Precipitación	0
77328	7	Sololá	702	San José Chacayá	5	Chacayá	2	Febrero	2023-07-02T00:00:00	2024-11-06T18:00:00	8	Radiación solar	41
77329	7	Sololá	702	San José Chacayá	5	Chacayá	2	Febrero	2023-07-02T00:00:00	2024-11-06T19:00:00	2	Temperatura media	11.1
77330	7	Sololá	702	San José Chacayá	5	Chacayá	2	Febrero	2023-07-02T00:00:00	2024-11-06T19:00:00	4	Temperatura máxima	12.6
77331	7	Sololá	702	San José Chacayá	5	Chacayá	2	Febrero	2023-07-02T00:00:00	2024-11-06T19:00:00	3	Temperatura mínima	11.1
77332	7	Sololá	702	San José Chacayá	5	Chacayá	2	Febrero	2023-07-02T00:00:00	2024-11-06T19:00:00	5	Humedad	88
77333	7	Sololá	702	San José Chacayá	5	Chacayá	2	Febrero	2023-07-02T00:00:00	2024-11-06T19:00:00	6	Velocidad del viento	1.6
77334	7	Sololá	702	San José Chacayá	5	Chacayá	2	Febrero	2023-07-02T00:00:00	2024-11-06T19:00:00	7	Dirección del viento	1.61
77335	7	Sololá	702	San José Chacayá	5	Chacayá	2	Febrero	2023-07-02T00:00:00	2024-11-06T19:00:00	1	Precipitación	0
77336	7	Sololá	702	San José Chacayá	5	Chacayá	2	Febrero	2023-07-02T00:00:00	2024-11-06T19:00:00	8	Radiación solar	0
77337	7	Sololá	702	San José Chacayá	5	Chacayá	2	Febrero	2023-07-02T00:00:00	2024-11-06T20:00:00	2	Temperatura media	10
77338	7	Sololá	702	San José Chacayá	5	Chacayá	2	Febrero	2023-07-02T00:00:00	2024-11-06T20:00:00	4	Temperatura máxima	11.1
77339	7	Sololá	702	San José Chacayá	5	Chacayá	2	Febrero	2023-07-02T00:00:00	2024-11-06T20:00:00	3	Temperatura mínima	10
77340	7	Sololá	702	San José Chacayá	5	Chacayá	2	Febrero	2023-07-02T00:00:00	2024-11-06T20:00:00	5	Humedad	89
77341	7	Sololá	702	San José Chacayá	5	Chacayá	2	Febrero	2023-07-02T00:00:00	2024-11-06T20:00:00	6	Velocidad del viento	1.6
77342	7	Sololá	702	San José Chacayá	5	Chacayá	2	Febrero	2023-07-02T00:00:00	2024-11-06T20:00:00	7	Dirección del viento	1.61
77343	7	Sololá	702	San José Chacayá	5	Chacayá	2	Febrero	2023-07-02T00:00:00	2024-11-06T20:00:00	1	Precipitación	0
77344	7	Sololá	702	San José Chacayá	5	Chacayá	2	Febrero	2023-07-02T00:00:00	2024-11-06T20:00:00	8	Radiación solar	0
77345	7	Sololá	702	San José Chacayá	5	Chacayá	2	Febrero	2023-07-02T00:00:00	2024-11-06T21:00:00	2	Temperatura media	9.2
77346	7	Sololá	702	San José Chacayá	5	Chacayá	2	Febrero	2023-07-02T00:00:00	2024-11-06T21:00:00	4	Temperatura máxima	10
77347	7	Sololá	702	San José Chacayá	5	Chacayá	2	Febrero	2023-07-02T00:00:00	2024-11-06T21:00:00	3	Temperatura mínima	9.2
77348	7	Sololá	702	San José Chacayá	5	Chacayá	2	Febrero	2023-07-02T00:00:00	2024-11-06T21:00:00	5	Humedad	90
77349	7	Sololá	702	San José Chacayá	5	Chacayá	2	Febrero	2023-07-02T00:00:00	2024-11-06T21:00:00	6	Velocidad del viento	1.6
77350	7	Sololá	702	San José Chacayá	5	Chacayá	2	Febrero	2023-07-02T00:00:00	2024-11-06T21:00:00	7	Dirección del viento	1.61
77351	7	Sololá	702	San José Chacayá	5	Chacayá	2	Febrero	2023-07-02T00:00:00	2024-11-06T21:00:00	1	Precipitación	0
77352	7	Sololá	702	San José Chacayá	5	Chacayá	2	Febrero	2023-07-02T00:00:00	2024-11-06T21:00:00	8	Radiación solar	0
77353	7	Sololá	702	San José Chacayá	5	Chacayá	2	Febrero	2023-07-02T00:00:00	2024-11-06T22:00:00	2	Temperatura media	8.4
77354	7	Sololá	702	San José Chacayá	5	Chacayá	2	Febrero	2023-07-02T00:00:00	2024-11-06T22:00:00	4	Temperatura máxima	9.2
77355	7	Sololá	702	San José Chacayá	5	Chacayá	2	Febrero	2023-07-02T00:00:00	2024-11-06T22:00:00	3	Temperatura mínima	8.4
77356	7	Sololá	702	San José Chacayá	5	Chacayá	2	Febrero	2023-07-02T00:00:00	2024-11-06T22:00:00	5	Humedad	90
77357	7	Sololá	702	San José Chacayá	5	Chacayá	2	Febrero	2023-07-02T00:00:00	2024-11-06T22:00:00	6	Velocidad del viento	1.6
77358	7	Sololá	702	San José Chacayá	5	Chacayá	2	Febrero	2023-07-02T00:00:00	2024-11-06T22:00:00	7	Dirección del viento	1.61
77359	7	Sololá	702	San José Chacayá	5	Chacayá	2	Febrero	2023-07-02T00:00:00	2024-11-06T22:00:00	1	Precipitación	0
77360	7	Sololá	702	San José Chacayá	5	Chacayá	2	Febrero	2023-07-02T00:00:00	2024-11-06T22:00:00	8	Radiación solar	0
77361	7	Sololá	702	San José Chacayá	5	Chacayá	2	Febrero	2023-07-02T00:00:00	2024-11-06T23:00:00	2	Temperatura media	7.7
77362	7	Sololá	702	San José Chacayá	5	Chacayá	2	Febrero	2023-07-02T00:00:00	2024-11-06T23:00:00	4	Temperatura máxima	8.4
77363	7	Sololá	702	San José Chacayá	5	Chacayá	2	Febrero	2023-07-02T00:00:00	2024-11-06T23:00:00	3	Temperatura mínima	7.7
77364	7	Sololá	702	San José Chacayá	5	Chacayá	2	Febrero	2023-07-02T00:00:00	2024-11-06T23:00:00	5	Humedad	90
77365	7	Sololá	702	San José Chacayá	5	Chacayá	2	Febrero	2023-07-02T00:00:00	2024-11-06T23:00:00	6	Velocidad del viento	1.6
77366	7	Sololá	702	San José Chacayá	5	Chacayá	2	Febrero	2023-07-02T00:00:00	2024-11-06T23:00:00	7	Dirección del viento	1.61
77367	7	Sololá	702	San José Chacayá	5	Chacayá	2	Febrero	2023-07-02T00:00:00	2024-11-06T23:00:00	1	Precipitación	0
77368	7	Sololá	702	San José Chacayá	5	Chacayá	2	Febrero	2023-07-02T00:00:00	2024-11-06T23:00:00	8	Radiación solar	0
77369	7	Sololá	702	San José Chacayá	5	Chacayá	2	Febrero	2023-08-02T00:00:00	2024-11-06T00:00:00	2	Temperatura media	6.8
77370	7	Sololá	702	San José Chacayá	5	Chacayá	2	Febrero	2023-08-02T00:00:00	2024-11-06T00:00:00	4	Temperatura máxima	7.7
77371	7	Sololá	702	San José Chacayá	5	Chacayá	2	Febrero	2023-08-02T00:00:00	2024-11-06T00:00:00	3	Temperatura mínima	6.7
77372	7	Sololá	702	San José Chacayá	5	Chacayá	2	Febrero	2023-08-02T00:00:00	2024-11-06T00:00:00	5	Humedad	89
77373	7	Sololá	702	San José Chacayá	5	Chacayá	2	Febrero	2023-08-02T00:00:00	2024-11-06T00:00:00	6	Velocidad del viento	1.6
77374	7	Sololá	702	San José Chacayá	5	Chacayá	2	Febrero	2023-08-02T00:00:00	2024-11-06T00:00:00	7	Dirección del viento	1.61
77375	7	Sololá	702	San José Chacayá	5	Chacayá	2	Febrero	2023-08-02T00:00:00	2024-11-06T00:00:00	1	Precipitación	0
77376	7	Sololá	702	San José Chacayá	5	Chacayá	2	Febrero	2023-08-02T00:00:00	2024-11-06T00:00:00	8	Radiación solar	0
77377	7	Sololá	702	San José Chacayá	5	Chacayá	2	Febrero	2023-08-02T00:00:00	2024-11-06T01:00:00	2	Temperatura media	6.4
77378	7	Sololá	702	San José Chacayá	5	Chacayá	2	Febrero	2023-08-02T00:00:00	2024-11-06T01:00:00	4	Temperatura máxima	6.8
77379	7	Sololá	702	San José Chacayá	5	Chacayá	2	Febrero	2023-08-02T00:00:00	2024-11-06T01:00:00	3	Temperatura mínima	6.4
77380	7	Sololá	702	San José Chacayá	5	Chacayá	2	Febrero	2023-08-02T00:00:00	2024-11-06T01:00:00	5	Humedad	88
77381	7	Sololá	702	San José Chacayá	5	Chacayá	2	Febrero	2023-08-02T00:00:00	2024-11-06T01:00:00	6	Velocidad del viento	1.6
77382	7	Sololá	702	San José Chacayá	5	Chacayá	2	Febrero	2023-08-02T00:00:00	2024-11-06T01:00:00	7	Dirección del viento	1.61
77383	7	Sololá	702	San José Chacayá	5	Chacayá	2	Febrero	2023-08-02T00:00:00	2024-11-06T01:00:00	1	Precipitación	0
77384	7	Sololá	702	San José Chacayá	5	Chacayá	2	Febrero	2023-08-02T00:00:00	2024-11-06T01:00:00	8	Radiación solar	0
77385	7	Sololá	702	San José Chacayá	5	Chacayá	2	Febrero	2023-08-02T00:00:00	2024-11-06T02:00:00	2	Temperatura media	5.9
77386	7	Sololá	702	San José Chacayá	5	Chacayá	2	Febrero	2023-08-02T00:00:00	2024-11-06T02:00:00	4	Temperatura máxima	6.6
77387	7	Sololá	702	San José Chacayá	5	Chacayá	2	Febrero	2023-08-02T00:00:00	2024-11-06T02:00:00	3	Temperatura mínima	5.8
77388	7	Sololá	702	San José Chacayá	5	Chacayá	2	Febrero	2023-08-02T00:00:00	2024-11-06T02:00:00	5	Humedad	88
77389	7	Sololá	702	San José Chacayá	5	Chacayá	2	Febrero	2023-08-02T00:00:00	2024-11-06T02:00:00	6	Velocidad del viento	1.6
77390	7	Sololá	702	San José Chacayá	5	Chacayá	2	Febrero	2023-08-02T00:00:00	2024-11-06T02:00:00	7	Dirección del viento	1.61
77391	7	Sololá	702	San José Chacayá	5	Chacayá	2	Febrero	2023-08-02T00:00:00	2024-11-06T02:00:00	1	Precipitación	0
77392	7	Sololá	702	San José Chacayá	5	Chacayá	2	Febrero	2023-08-02T00:00:00	2024-11-06T02:00:00	8	Radiación solar	0
77393	7	Sololá	702	San José Chacayá	5	Chacayá	2	Febrero	2023-08-02T00:00:00	2024-11-06T03:00:00	2	Temperatura media	5.7
77394	7	Sololá	702	San José Chacayá	5	Chacayá	2	Febrero	2023-08-02T00:00:00	2024-11-06T03:00:00	4	Temperatura máxima	5.9
77395	7	Sololá	702	San José Chacayá	5	Chacayá	2	Febrero	2023-08-02T00:00:00	2024-11-06T03:00:00	3	Temperatura mínima	5.6
77396	7	Sololá	702	San José Chacayá	5	Chacayá	2	Febrero	2023-08-02T00:00:00	2024-11-06T03:00:00	5	Humedad	88
77397	7	Sololá	702	San José Chacayá	5	Chacayá	2	Febrero	2023-08-02T00:00:00	2024-11-06T03:00:00	6	Velocidad del viento	1.6
77398	7	Sololá	702	San José Chacayá	5	Chacayá	2	Febrero	2023-08-02T00:00:00	2024-11-06T03:00:00	7	Dirección del viento	1.61
77399	7	Sololá	702	San José Chacayá	5	Chacayá	2	Febrero	2023-08-02T00:00:00	2024-11-06T03:00:00	1	Precipitación	0
77400	7	Sololá	702	San José Chacayá	5	Chacayá	2	Febrero	2023-08-02T00:00:00	2024-11-06T03:00:00	8	Radiación solar	0
77401	7	Sololá	702	San José Chacayá	5	Chacayá	2	Febrero	2023-08-02T00:00:00	2024-11-06T04:00:00	2	Temperatura media	5.4
77402	7	Sololá	702	San José Chacayá	5	Chacayá	2	Febrero	2023-08-02T00:00:00	2024-11-06T04:00:00	4	Temperatura máxima	5.9
77403	7	Sololá	702	San José Chacayá	5	Chacayá	2	Febrero	2023-08-02T00:00:00	2024-11-06T04:00:00	3	Temperatura mínima	5.4
77404	7	Sololá	702	San José Chacayá	5	Chacayá	2	Febrero	2023-08-02T00:00:00	2024-11-06T04:00:00	5	Humedad	89
77405	7	Sololá	702	San José Chacayá	5	Chacayá	2	Febrero	2023-08-02T00:00:00	2024-11-06T04:00:00	6	Velocidad del viento	1.6
77406	7	Sololá	702	San José Chacayá	5	Chacayá	2	Febrero	2023-08-02T00:00:00	2024-11-06T04:00:00	7	Dirección del viento	1.61
77407	7	Sololá	702	San José Chacayá	5	Chacayá	2	Febrero	2023-08-02T00:00:00	2024-11-06T04:00:00	1	Precipitación	0
77408	7	Sololá	702	San José Chacayá	5	Chacayá	2	Febrero	2023-08-02T00:00:00	2024-11-06T04:00:00	8	Radiación solar	0
77409	7	Sololá	702	San José Chacayá	5	Chacayá	2	Febrero	2023-08-02T00:00:00	2024-11-06T05:00:00	2	Temperatura media	4.9
77410	7	Sololá	702	San José Chacayá	5	Chacayá	2	Febrero	2023-08-02T00:00:00	2024-11-06T05:00:00	4	Temperatura máxima	5.6
77411	7	Sololá	702	San José Chacayá	5	Chacayá	2	Febrero	2023-08-02T00:00:00	2024-11-06T05:00:00	3	Temperatura mínima	4.9
77412	7	Sololá	702	San José Chacayá	5	Chacayá	2	Febrero	2023-08-02T00:00:00	2024-11-06T05:00:00	5	Humedad	90
77413	7	Sololá	702	San José Chacayá	5	Chacayá	2	Febrero	2023-08-02T00:00:00	2024-11-06T05:00:00	6	Velocidad del viento	1.6
77414	7	Sololá	702	San José Chacayá	5	Chacayá	2	Febrero	2023-08-02T00:00:00	2024-11-06T05:00:00	7	Dirección del viento	1.61
77415	7	Sololá	702	San José Chacayá	5	Chacayá	2	Febrero	2023-08-02T00:00:00	2024-11-06T05:00:00	1	Precipitación	0
77416	7	Sololá	702	San José Chacayá	5	Chacayá	2	Febrero	2023-08-02T00:00:00	2024-11-06T05:00:00	8	Radiación solar	0
77417	7	Sololá	702	San José Chacayá	5	Chacayá	2	Febrero	2023-08-02T00:00:00	2024-11-06T06:00:00	2	Temperatura media	5.7
77418	7	Sololá	702	San José Chacayá	5	Chacayá	2	Febrero	2023-08-02T00:00:00	2024-11-06T06:00:00	4	Temperatura máxima	5.7
77419	7	Sololá	702	San José Chacayá	5	Chacayá	2	Febrero	2023-08-02T00:00:00	2024-11-06T06:00:00	3	Temperatura mínima	4.6
77420	7	Sololá	702	San José Chacayá	5	Chacayá	2	Febrero	2023-08-02T00:00:00	2024-11-06T06:00:00	5	Humedad	90
77421	7	Sololá	702	San José Chacayá	5	Chacayá	2	Febrero	2023-08-02T00:00:00	2024-11-06T06:00:00	6	Velocidad del viento	1.6
77422	7	Sololá	702	San José Chacayá	5	Chacayá	2	Febrero	2023-08-02T00:00:00	2024-11-06T06:00:00	7	Dirección del viento	1.61
77423	7	Sololá	702	San José Chacayá	5	Chacayá	2	Febrero	2023-08-02T00:00:00	2024-11-06T06:00:00	1	Precipitación	0
77424	7	Sololá	702	San José Chacayá	5	Chacayá	2	Febrero	2023-08-02T00:00:00	2024-11-06T06:00:00	8	Radiación solar	0
77425	7	Sololá	702	San José Chacayá	5	Chacayá	2	Febrero	2023-08-02T00:00:00	2024-11-06T07:00:00	2	Temperatura media	11.4
77426	7	Sololá	702	San José Chacayá	5	Chacayá	2	Febrero	2023-08-02T00:00:00	2024-11-06T07:00:00	4	Temperatura máxima	11.4
77427	7	Sololá	702	San José Chacayá	5	Chacayá	2	Febrero	2023-08-02T00:00:00	2024-11-06T07:00:00	3	Temperatura mínima	5.7
77428	7	Sololá	702	San José Chacayá	5	Chacayá	2	Febrero	2023-08-02T00:00:00	2024-11-06T07:00:00	5	Humedad	78
77429	7	Sololá	702	San José Chacayá	5	Chacayá	2	Febrero	2023-08-02T00:00:00	2024-11-06T07:00:00	6	Velocidad del viento	1.6
77430	7	Sololá	702	San José Chacayá	5	Chacayá	2	Febrero	2023-08-02T00:00:00	2024-11-06T07:00:00	7	Dirección del viento	1.61
77431	7	Sololá	702	San José Chacayá	5	Chacayá	2	Febrero	2023-08-02T00:00:00	2024-11-06T07:00:00	1	Precipitación	0
77432	7	Sololá	702	San José Chacayá	5	Chacayá	2	Febrero	2023-08-02T00:00:00	2024-11-06T07:00:00	8	Radiación solar	11
77433	7	Sololá	702	San José Chacayá	5	Chacayá	2	Febrero	2023-08-02T00:00:00	2024-11-06T08:00:00	2	Temperatura media	18.5
77434	7	Sololá	702	San José Chacayá	5	Chacayá	2	Febrero	2023-08-02T00:00:00	2024-11-06T08:00:00	4	Temperatura máxima	18.5
77435	7	Sololá	702	San José Chacayá	5	Chacayá	2	Febrero	2023-08-02T00:00:00	2024-11-06T08:00:00	3	Temperatura mínima	11.4
77436	7	Sololá	702	San José Chacayá	5	Chacayá	2	Febrero	2023-08-02T00:00:00	2024-11-06T08:00:00	5	Humedad	51
77437	7	Sololá	702	San José Chacayá	5	Chacayá	2	Febrero	2023-08-02T00:00:00	2024-11-06T08:00:00	6	Velocidad del viento	1.6
77438	7	Sololá	702	San José Chacayá	5	Chacayá	2	Febrero	2023-08-02T00:00:00	2024-11-06T08:00:00	7	Dirección del viento	1.61
77439	7	Sololá	702	San José Chacayá	5	Chacayá	2	Febrero	2023-08-02T00:00:00	2024-11-06T08:00:00	1	Precipitación	0
77440	7	Sololá	702	San José Chacayá	5	Chacayá	2	Febrero	2023-08-02T00:00:00	2024-11-06T08:00:00	8	Radiación solar	177
77441	7	Sololá	702	San José Chacayá	5	Chacayá	2	Febrero	2023-08-02T00:00:00	2024-11-06T09:00:00	2	Temperatura media	19.6
77442	7	Sololá	702	San José Chacayá	5	Chacayá	2	Febrero	2023-08-02T00:00:00	2024-11-06T09:00:00	4	Temperatura máxima	20.6
77443	7	Sololá	702	San José Chacayá	5	Chacayá	2	Febrero	2023-08-02T00:00:00	2024-11-06T09:00:00	3	Temperatura mínima	18.5
77444	7	Sololá	702	San José Chacayá	5	Chacayá	2	Febrero	2023-08-02T00:00:00	2024-11-06T09:00:00	5	Humedad	55
77445	7	Sololá	702	San José Chacayá	5	Chacayá	2	Febrero	2023-08-02T00:00:00	2024-11-06T09:00:00	6	Velocidad del viento	1.6
77446	7	Sololá	702	San José Chacayá	5	Chacayá	2	Febrero	2023-08-02T00:00:00	2024-11-06T09:00:00	7	Dirección del viento	1.61
77447	7	Sololá	702	San José Chacayá	5	Chacayá	2	Febrero	2023-08-02T00:00:00	2024-11-06T09:00:00	1	Precipitación	0
77448	7	Sololá	702	San José Chacayá	5	Chacayá	2	Febrero	2023-08-02T00:00:00	2024-11-06T09:00:00	8	Radiación solar	411
77449	7	Sololá	702	San José Chacayá	5	Chacayá	2	Febrero	2023-08-02T00:00:00	2024-11-06T10:00:00	2	Temperatura media	22.1
77450	7	Sololá	702	San José Chacayá	5	Chacayá	2	Febrero	2023-08-02T00:00:00	2024-11-06T10:00:00	4	Temperatura máxima	22.2
77451	7	Sololá	702	San José Chacayá	5	Chacayá	2	Febrero	2023-08-02T00:00:00	2024-11-06T10:00:00	3	Temperatura mínima	19.5
77452	7	Sololá	702	San José Chacayá	5	Chacayá	2	Febrero	2023-08-02T00:00:00	2024-11-06T10:00:00	5	Humedad	47
77453	7	Sololá	702	San José Chacayá	5	Chacayá	2	Febrero	2023-08-02T00:00:00	2024-11-06T10:00:00	6	Velocidad del viento	4.8
77454	7	Sololá	702	San José Chacayá	5	Chacayá	2	Febrero	2023-08-02T00:00:00	2024-11-06T10:00:00	7	Dirección del viento	4.83
77455	7	Sololá	702	San José Chacayá	5	Chacayá	2	Febrero	2023-08-02T00:00:00	2024-11-06T10:00:00	1	Precipitación	0
77456	7	Sololá	702	San José Chacayá	5	Chacayá	2	Febrero	2023-08-02T00:00:00	2024-11-06T10:00:00	8	Radiación solar	624
77457	7	Sololá	702	San José Chacayá	5	Chacayá	2	Febrero	2023-08-02T00:00:00	2024-11-06T11:00:00	2	Temperatura media	21.7
77458	7	Sololá	702	San José Chacayá	5	Chacayá	2	Febrero	2023-08-02T00:00:00	2024-11-06T11:00:00	4	Temperatura máxima	22.4
77459	7	Sololá	702	San José Chacayá	5	Chacayá	2	Febrero	2023-08-02T00:00:00	2024-11-06T11:00:00	3	Temperatura mínima	21.7
77460	7	Sololá	702	San José Chacayá	5	Chacayá	2	Febrero	2023-08-02T00:00:00	2024-11-06T11:00:00	5	Humedad	55
77461	7	Sololá	702	San José Chacayá	5	Chacayá	2	Febrero	2023-08-02T00:00:00	2024-11-06T11:00:00	6	Velocidad del viento	4.8
77462	7	Sololá	702	San José Chacayá	5	Chacayá	2	Febrero	2023-08-02T00:00:00	2024-11-06T11:00:00	7	Dirección del viento	4.83
77463	7	Sololá	702	San José Chacayá	5	Chacayá	2	Febrero	2023-08-02T00:00:00	2024-11-06T11:00:00	1	Precipitación	0
77464	7	Sololá	702	San José Chacayá	5	Chacayá	2	Febrero	2023-08-02T00:00:00	2024-11-06T11:00:00	8	Radiación solar	786
77465	7	Sololá	702	San José Chacayá	5	Chacayá	2	Febrero	2023-08-02T00:00:00	2024-11-06T12:00:00	2	Temperatura media	22.1
77466	7	Sololá	702	San José Chacayá	5	Chacayá	2	Febrero	2023-08-02T00:00:00	2024-11-06T12:00:00	4	Temperatura máxima	22.2
77467	7	Sololá	702	San José Chacayá	5	Chacayá	2	Febrero	2023-08-02T00:00:00	2024-11-06T12:00:00	3	Temperatura mínima	21.6
77468	7	Sololá	702	San José Chacayá	5	Chacayá	2	Febrero	2023-08-02T00:00:00	2024-11-06T12:00:00	5	Humedad	50
77469	7	Sololá	702	San José Chacayá	5	Chacayá	2	Febrero	2023-08-02T00:00:00	2024-11-06T12:00:00	6	Velocidad del viento	6.4
77470	7	Sololá	702	San José Chacayá	5	Chacayá	2	Febrero	2023-08-02T00:00:00	2024-11-06T12:00:00	7	Dirección del viento	6.44
77471	7	Sololá	702	San José Chacayá	5	Chacayá	2	Febrero	2023-08-02T00:00:00	2024-11-06T12:00:00	1	Precipitación	0
77472	7	Sololá	702	San José Chacayá	5	Chacayá	2	Febrero	2023-08-02T00:00:00	2024-11-06T12:00:00	8	Radiación solar	897
77473	7	Sololá	702	San José Chacayá	5	Chacayá	2	Febrero	2023-08-02T00:00:00	2024-11-06T13:00:00	2	Temperatura media	21.7
77474	7	Sololá	702	San José Chacayá	5	Chacayá	2	Febrero	2023-08-02T00:00:00	2024-11-06T13:00:00	4	Temperatura máxima	22.1
77475	7	Sololá	702	San José Chacayá	5	Chacayá	2	Febrero	2023-08-02T00:00:00	2024-11-06T13:00:00	3	Temperatura mínima	21.5
77476	7	Sololá	702	San José Chacayá	5	Chacayá	2	Febrero	2023-08-02T00:00:00	2024-11-06T13:00:00	5	Humedad	53
77477	7	Sololá	702	San José Chacayá	5	Chacayá	2	Febrero	2023-08-02T00:00:00	2024-11-06T13:00:00	6	Velocidad del viento	6.4
77478	7	Sololá	702	San José Chacayá	5	Chacayá	2	Febrero	2023-08-02T00:00:00	2024-11-06T13:00:00	7	Dirección del viento	6.44
77479	7	Sololá	702	San José Chacayá	5	Chacayá	2	Febrero	2023-08-02T00:00:00	2024-11-06T13:00:00	1	Precipitación	0
77480	7	Sololá	702	San José Chacayá	5	Chacayá	2	Febrero	2023-08-02T00:00:00	2024-11-06T13:00:00	8	Radiación solar	861
77481	7	Sololá	702	San José Chacayá	5	Chacayá	2	Febrero	2023-08-02T00:00:00	2024-11-06T14:00:00	2	Temperatura media	20.5
77482	7	Sololá	702	San José Chacayá	5	Chacayá	2	Febrero	2023-08-02T00:00:00	2024-11-06T14:00:00	4	Temperatura máxima	21.9
77483	7	Sololá	702	San José Chacayá	5	Chacayá	2	Febrero	2023-08-02T00:00:00	2024-11-06T14:00:00	3	Temperatura mínima	20.5
77484	7	Sololá	702	San José Chacayá	5	Chacayá	2	Febrero	2023-08-02T00:00:00	2024-11-06T14:00:00	5	Humedad	62
77485	7	Sololá	702	San José Chacayá	5	Chacayá	2	Febrero	2023-08-02T00:00:00	2024-11-06T14:00:00	6	Velocidad del viento	6.4
77486	7	Sololá	702	San José Chacayá	5	Chacayá	2	Febrero	2023-08-02T00:00:00	2024-11-06T14:00:00	7	Dirección del viento	6.44
77487	7	Sololá	702	San José Chacayá	5	Chacayá	2	Febrero	2023-08-02T00:00:00	2024-11-06T14:00:00	1	Precipitación	0
77488	7	Sololá	702	San José Chacayá	5	Chacayá	2	Febrero	2023-08-02T00:00:00	2024-11-06T14:00:00	8	Radiación solar	221
77489	7	Sololá	702	San José Chacayá	5	Chacayá	2	Febrero	2023-08-02T00:00:00	2024-11-06T15:00:00	2	Temperatura media	20.6
77490	7	Sololá	702	San José Chacayá	5	Chacayá	2	Febrero	2023-08-02T00:00:00	2024-11-06T15:00:00	4	Temperatura máxima	20.8
77491	7	Sololá	702	San José Chacayá	5	Chacayá	2	Febrero	2023-08-02T00:00:00	2024-11-06T15:00:00	3	Temperatura mínima	20.1
77492	7	Sololá	702	San José Chacayá	5	Chacayá	2	Febrero	2023-08-02T00:00:00	2024-11-06T15:00:00	5	Humedad	67
77493	7	Sololá	702	San José Chacayá	5	Chacayá	2	Febrero	2023-08-02T00:00:00	2024-11-06T15:00:00	6	Velocidad del viento	4.8
77494	7	Sololá	702	San José Chacayá	5	Chacayá	2	Febrero	2023-08-02T00:00:00	2024-11-06T15:00:00	7	Dirección del viento	4.83
77495	7	Sololá	702	San José Chacayá	5	Chacayá	2	Febrero	2023-08-02T00:00:00	2024-11-06T15:00:00	1	Precipitación	0
77496	7	Sololá	702	San José Chacayá	5	Chacayá	2	Febrero	2023-08-02T00:00:00	2024-11-06T15:00:00	8	Radiación solar	251
77497	7	Sololá	702	San José Chacayá	5	Chacayá	2	Febrero	2023-08-02T00:00:00	2024-11-06T16:00:00	2	Temperatura media	18.2
77498	7	Sololá	702	San José Chacayá	5	Chacayá	2	Febrero	2023-08-02T00:00:00	2024-11-06T16:00:00	4	Temperatura máxima	20.6
77499	7	Sololá	702	San José Chacayá	5	Chacayá	2	Febrero	2023-08-02T00:00:00	2024-11-06T16:00:00	3	Temperatura mínima	18.2
77500	7	Sololá	702	San José Chacayá	5	Chacayá	2	Febrero	2023-08-02T00:00:00	2024-11-06T16:00:00	5	Humedad	74
77501	7	Sololá	702	San José Chacayá	5	Chacayá	2	Febrero	2023-08-02T00:00:00	2024-11-06T16:00:00	6	Velocidad del viento	3.2
77502	7	Sololá	702	San José Chacayá	5	Chacayá	2	Febrero	2023-08-02T00:00:00	2024-11-06T16:00:00	7	Dirección del viento	3.22
77503	7	Sololá	702	San José Chacayá	5	Chacayá	2	Febrero	2023-08-02T00:00:00	2024-11-06T16:00:00	1	Precipitación	0
77504	7	Sololá	702	San José Chacayá	5	Chacayá	2	Febrero	2023-08-02T00:00:00	2024-11-06T16:00:00	8	Radiación solar	452
77505	7	Sololá	702	San José Chacayá	5	Chacayá	2	Febrero	2023-08-02T00:00:00	2024-11-06T17:00:00	2	Temperatura media	16.1
77506	7	Sololá	702	San José Chacayá	5	Chacayá	2	Febrero	2023-08-02T00:00:00	2024-11-06T17:00:00	4	Temperatura máxima	18.2
77507	7	Sololá	702	San José Chacayá	5	Chacayá	2	Febrero	2023-08-02T00:00:00	2024-11-06T17:00:00	3	Temperatura mínima	16.1
77508	7	Sololá	702	San José Chacayá	5	Chacayá	2	Febrero	2023-08-02T00:00:00	2024-11-06T17:00:00	5	Humedad	83
77509	7	Sololá	702	San José Chacayá	5	Chacayá	2	Febrero	2023-08-02T00:00:00	2024-11-06T17:00:00	6	Velocidad del viento	1.6
77510	7	Sololá	702	San José Chacayá	5	Chacayá	2	Febrero	2023-08-02T00:00:00	2024-11-06T17:00:00	7	Dirección del viento	1.61
77511	7	Sololá	702	San José Chacayá	5	Chacayá	2	Febrero	2023-08-02T00:00:00	2024-11-06T17:00:00	1	Precipitación	0
77512	7	Sololá	702	San José Chacayá	5	Chacayá	2	Febrero	2023-08-02T00:00:00	2024-11-06T17:00:00	8	Radiación solar	179
77513	7	Sololá	702	San José Chacayá	5	Chacayá	2	Febrero	2023-08-02T00:00:00	2024-11-06T18:00:00	2	Temperatura media	13.9
77514	7	Sololá	702	San José Chacayá	5	Chacayá	2	Febrero	2023-08-02T00:00:00	2024-11-06T18:00:00	4	Temperatura máxima	16.1
77515	7	Sololá	702	San José Chacayá	5	Chacayá	2	Febrero	2023-08-02T00:00:00	2024-11-06T18:00:00	3	Temperatura mínima	13.9
77516	7	Sololá	702	San José Chacayá	5	Chacayá	2	Febrero	2023-08-02T00:00:00	2024-11-06T18:00:00	5	Humedad	87
77517	7	Sololá	702	San José Chacayá	5	Chacayá	2	Febrero	2023-08-02T00:00:00	2024-11-06T18:00:00	6	Velocidad del viento	0
77518	7	Sololá	702	San José Chacayá	5	Chacayá	2	Febrero	2023-08-02T00:00:00	2024-11-06T18:00:00	7	Dirección del viento	0
77519	7	Sololá	702	San José Chacayá	5	Chacayá	2	Febrero	2023-08-02T00:00:00	2024-11-06T18:00:00	1	Precipitación	0
77520	7	Sololá	702	San José Chacayá	5	Chacayá	2	Febrero	2023-08-02T00:00:00	2024-11-06T18:00:00	8	Radiación solar	38
77521	7	Sololá	702	San José Chacayá	5	Chacayá	2	Febrero	2023-08-02T00:00:00	2024-11-06T19:00:00	2	Temperatura media	12.3
77522	7	Sololá	702	San José Chacayá	5	Chacayá	2	Febrero	2023-08-02T00:00:00	2024-11-06T19:00:00	4	Temperatura máxima	13.9
77523	7	Sololá	702	San José Chacayá	5	Chacayá	2	Febrero	2023-08-02T00:00:00	2024-11-06T19:00:00	3	Temperatura mínima	12.3
77524	7	Sololá	702	San José Chacayá	5	Chacayá	2	Febrero	2023-08-02T00:00:00	2024-11-06T19:00:00	5	Humedad	86
77525	7	Sololá	702	San José Chacayá	5	Chacayá	2	Febrero	2023-08-02T00:00:00	2024-11-06T19:00:00	6	Velocidad del viento	1.6
77526	7	Sololá	702	San José Chacayá	5	Chacayá	2	Febrero	2023-08-02T00:00:00	2024-11-06T19:00:00	7	Dirección del viento	1.61
77527	7	Sololá	702	San José Chacayá	5	Chacayá	2	Febrero	2023-08-02T00:00:00	2024-11-06T19:00:00	1	Precipitación	0
77528	7	Sololá	702	San José Chacayá	5	Chacayá	2	Febrero	2023-08-02T00:00:00	2024-11-06T19:00:00	8	Radiación solar	0
77529	7	Sololá	702	San José Chacayá	5	Chacayá	2	Febrero	2023-08-02T00:00:00	2024-11-06T20:00:00	2	Temperatura media	11.9
77530	7	Sololá	702	San José Chacayá	5	Chacayá	2	Febrero	2023-08-02T00:00:00	2024-11-06T20:00:00	4	Temperatura máxima	12.3
77531	7	Sololá	702	San José Chacayá	5	Chacayá	2	Febrero	2023-08-02T00:00:00	2024-11-06T20:00:00	3	Temperatura mínima	11.8
77532	7	Sololá	702	San José Chacayá	5	Chacayá	2	Febrero	2023-08-02T00:00:00	2024-11-06T20:00:00	5	Humedad	87
77533	7	Sololá	702	San José Chacayá	5	Chacayá	2	Febrero	2023-08-02T00:00:00	2024-11-06T20:00:00	6	Velocidad del viento	1.6
77534	7	Sololá	702	San José Chacayá	5	Chacayá	2	Febrero	2023-08-02T00:00:00	2024-11-06T20:00:00	7	Dirección del viento	1.61
77535	7	Sololá	702	San José Chacayá	5	Chacayá	2	Febrero	2023-08-02T00:00:00	2024-11-06T20:00:00	1	Precipitación	0
77536	7	Sololá	702	San José Chacayá	5	Chacayá	2	Febrero	2023-08-02T00:00:00	2024-11-06T20:00:00	8	Radiación solar	0
77537	7	Sololá	702	San José Chacayá	5	Chacayá	2	Febrero	2023-08-02T00:00:00	2024-11-06T21:00:00	2	Temperatura media	13
77538	7	Sololá	702	San José Chacayá	5	Chacayá	2	Febrero	2023-08-02T00:00:00	2024-11-06T21:00:00	4	Temperatura máxima	13
77539	7	Sololá	702	San José Chacayá	5	Chacayá	2	Febrero	2023-08-02T00:00:00	2024-11-06T21:00:00	3	Temperatura mínima	11.9
77540	7	Sololá	702	San José Chacayá	5	Chacayá	2	Febrero	2023-08-02T00:00:00	2024-11-06T21:00:00	5	Humedad	85
77541	7	Sololá	702	San José Chacayá	5	Chacayá	2	Febrero	2023-08-02T00:00:00	2024-11-06T21:00:00	6	Velocidad del viento	1.6
77542	7	Sololá	702	San José Chacayá	5	Chacayá	2	Febrero	2023-08-02T00:00:00	2024-11-06T21:00:00	7	Dirección del viento	1.61
77543	7	Sololá	702	San José Chacayá	5	Chacayá	2	Febrero	2023-08-02T00:00:00	2024-11-06T21:00:00	1	Precipitación	0
77544	7	Sololá	702	San José Chacayá	5	Chacayá	2	Febrero	2023-08-02T00:00:00	2024-11-06T21:00:00	8	Radiación solar	0
77545	7	Sololá	702	San José Chacayá	5	Chacayá	2	Febrero	2023-08-02T00:00:00	2024-11-06T22:00:00	2	Temperatura media	12.5
77546	7	Sololá	702	San José Chacayá	5	Chacayá	2	Febrero	2023-08-02T00:00:00	2024-11-06T22:00:00	4	Temperatura máxima	13.3
77547	7	Sololá	702	San José Chacayá	5	Chacayá	2	Febrero	2023-08-02T00:00:00	2024-11-06T22:00:00	3	Temperatura mínima	12.5
77548	7	Sololá	702	San José Chacayá	5	Chacayá	2	Febrero	2023-08-02T00:00:00	2024-11-06T22:00:00	5	Humedad	85
77549	7	Sololá	702	San José Chacayá	5	Chacayá	2	Febrero	2023-08-02T00:00:00	2024-11-06T22:00:00	6	Velocidad del viento	1.6
77550	7	Sololá	702	San José Chacayá	5	Chacayá	2	Febrero	2023-08-02T00:00:00	2024-11-06T22:00:00	7	Dirección del viento	1.61
77551	7	Sololá	702	San José Chacayá	5	Chacayá	2	Febrero	2023-08-02T00:00:00	2024-11-06T22:00:00	1	Precipitación	0
77552	7	Sololá	702	San José Chacayá	5	Chacayá	2	Febrero	2023-08-02T00:00:00	2024-11-06T22:00:00	8	Radiación solar	0
77553	7	Sololá	702	San José Chacayá	5	Chacayá	2	Febrero	2023-08-02T00:00:00	2024-11-06T23:00:00	2	Temperatura media	10.8
77554	7	Sololá	702	San José Chacayá	5	Chacayá	2	Febrero	2023-08-02T00:00:00	2024-11-06T23:00:00	4	Temperatura máxima	12.4
77555	7	Sololá	702	San José Chacayá	5	Chacayá	2	Febrero	2023-08-02T00:00:00	2024-11-06T23:00:00	3	Temperatura mínima	10.7
77556	7	Sololá	702	San José Chacayá	5	Chacayá	2	Febrero	2023-08-02T00:00:00	2024-11-06T23:00:00	5	Humedad	89
77557	7	Sololá	702	San José Chacayá	5	Chacayá	2	Febrero	2023-08-02T00:00:00	2024-11-06T23:00:00	6	Velocidad del viento	1.6
77558	7	Sololá	702	San José Chacayá	5	Chacayá	2	Febrero	2023-08-02T00:00:00	2024-11-06T23:00:00	7	Dirección del viento	1.61
77559	7	Sololá	702	San José Chacayá	5	Chacayá	2	Febrero	2023-08-02T00:00:00	2024-11-06T23:00:00	1	Precipitación	0
77560	7	Sololá	702	San José Chacayá	5	Chacayá	2	Febrero	2023-08-02T00:00:00	2024-11-06T23:00:00	8	Radiación solar	0
77561	7	Sololá	702	San José Chacayá	5	Chacayá	2	Febrero	2023-09-02T00:00:00	2024-11-06T00:00:00	2	Temperatura media	9.6
77562	7	Sololá	702	San José Chacayá	5	Chacayá	2	Febrero	2023-09-02T00:00:00	2024-11-06T00:00:00	4	Temperatura máxima	10.8
77563	7	Sololá	702	San José Chacayá	5	Chacayá	2	Febrero	2023-09-02T00:00:00	2024-11-06T00:00:00	3	Temperatura mínima	9.6
77564	7	Sololá	702	San José Chacayá	5	Chacayá	2	Febrero	2023-09-02T00:00:00	2024-11-06T00:00:00	5	Humedad	92
77565	7	Sololá	702	San José Chacayá	5	Chacayá	2	Febrero	2023-09-02T00:00:00	2024-11-06T00:00:00	6	Velocidad del viento	1.6
77566	7	Sololá	702	San José Chacayá	5	Chacayá	2	Febrero	2023-09-02T00:00:00	2024-11-06T00:00:00	7	Dirección del viento	1.61
77567	7	Sololá	702	San José Chacayá	5	Chacayá	2	Febrero	2023-09-02T00:00:00	2024-11-06T00:00:00	1	Precipitación	0
77568	7	Sololá	702	San José Chacayá	5	Chacayá	2	Febrero	2023-09-02T00:00:00	2024-11-06T00:00:00	8	Radiación solar	0
77569	7	Sololá	702	San José Chacayá	5	Chacayá	2	Febrero	2023-09-02T00:00:00	2024-11-06T01:00:00	2	Temperatura media	9.2
77570	7	Sololá	702	San José Chacayá	5	Chacayá	2	Febrero	2023-09-02T00:00:00	2024-11-06T01:00:00	4	Temperatura máxima	9.7
77571	7	Sololá	702	San José Chacayá	5	Chacayá	2	Febrero	2023-09-02T00:00:00	2024-11-06T01:00:00	3	Temperatura mínima	9.1
77572	7	Sololá	702	San José Chacayá	5	Chacayá	2	Febrero	2023-09-02T00:00:00	2024-11-06T01:00:00	5	Humedad	90
77573	7	Sololá	702	San José Chacayá	5	Chacayá	2	Febrero	2023-09-02T00:00:00	2024-11-06T01:00:00	6	Velocidad del viento	1.6
77574	7	Sololá	702	San José Chacayá	5	Chacayá	2	Febrero	2023-09-02T00:00:00	2024-11-06T01:00:00	7	Dirección del viento	1.61
77575	7	Sololá	702	San José Chacayá	5	Chacayá	2	Febrero	2023-09-02T00:00:00	2024-11-06T01:00:00	1	Precipitación	0
77576	7	Sololá	702	San José Chacayá	5	Chacayá	2	Febrero	2023-09-02T00:00:00	2024-11-06T01:00:00	8	Radiación solar	0
77577	7	Sololá	702	San José Chacayá	5	Chacayá	2	Febrero	2023-09-02T00:00:00	2024-11-06T02:00:00	2	Temperatura media	8.4
77578	7	Sololá	702	San José Chacayá	5	Chacayá	2	Febrero	2023-09-02T00:00:00	2024-11-06T02:00:00	4	Temperatura máxima	9.2
77579	7	Sololá	702	San José Chacayá	5	Chacayá	2	Febrero	2023-09-02T00:00:00	2024-11-06T02:00:00	3	Temperatura mínima	8.4
77580	7	Sololá	702	San José Chacayá	5	Chacayá	2	Febrero	2023-09-02T00:00:00	2024-11-06T02:00:00	5	Humedad	90
77581	7	Sololá	702	San José Chacayá	5	Chacayá	2	Febrero	2023-09-02T00:00:00	2024-11-06T02:00:00	6	Velocidad del viento	1.6
77582	7	Sololá	702	San José Chacayá	5	Chacayá	2	Febrero	2023-09-02T00:00:00	2024-11-06T02:00:00	7	Dirección del viento	1.61
77583	7	Sololá	702	San José Chacayá	5	Chacayá	2	Febrero	2023-09-02T00:00:00	2024-11-06T02:00:00	1	Precipitación	0
77584	7	Sololá	702	San José Chacayá	5	Chacayá	2	Febrero	2023-09-02T00:00:00	2024-11-06T02:00:00	8	Radiación solar	0
77585	7	Sololá	702	San José Chacayá	5	Chacayá	2	Febrero	2023-09-02T00:00:00	2024-11-06T03:00:00	2	Temperatura media	7.9
77586	7	Sololá	702	San José Chacayá	5	Chacayá	2	Febrero	2023-09-02T00:00:00	2024-11-06T03:00:00	4	Temperatura máxima	8.4
77587	7	Sololá	702	San José Chacayá	5	Chacayá	2	Febrero	2023-09-02T00:00:00	2024-11-06T03:00:00	3	Temperatura mínima	7.9
77588	7	Sololá	702	San José Chacayá	5	Chacayá	2	Febrero	2023-09-02T00:00:00	2024-11-06T03:00:00	5	Humedad	89
77589	7	Sololá	702	San José Chacayá	5	Chacayá	2	Febrero	2023-09-02T00:00:00	2024-11-06T03:00:00	6	Velocidad del viento	3.2
77590	7	Sololá	702	San José Chacayá	5	Chacayá	2	Febrero	2023-09-02T00:00:00	2024-11-06T03:00:00	7	Dirección del viento	3.22
77591	7	Sololá	702	San José Chacayá	5	Chacayá	2	Febrero	2023-09-02T00:00:00	2024-11-06T03:00:00	1	Precipitación	0
77592	7	Sololá	702	San José Chacayá	5	Chacayá	2	Febrero	2023-09-02T00:00:00	2024-11-06T03:00:00	8	Radiación solar	0
77593	7	Sololá	702	San José Chacayá	5	Chacayá	2	Febrero	2023-09-02T00:00:00	2024-11-06T04:00:00	2	Temperatura media	7.4
77594	7	Sololá	702	San José Chacayá	5	Chacayá	2	Febrero	2023-09-02T00:00:00	2024-11-06T04:00:00	4	Temperatura máxima	7.9
77595	7	Sololá	702	San José Chacayá	5	Chacayá	2	Febrero	2023-09-02T00:00:00	2024-11-06T04:00:00	3	Temperatura mínima	7.3
77596	7	Sololá	702	San José Chacayá	5	Chacayá	2	Febrero	2023-09-02T00:00:00	2024-11-06T04:00:00	5	Humedad	90
77597	7	Sololá	702	San José Chacayá	5	Chacayá	2	Febrero	2023-09-02T00:00:00	2024-11-06T04:00:00	6	Velocidad del viento	1.6
77598	7	Sololá	702	San José Chacayá	5	Chacayá	2	Febrero	2023-09-02T00:00:00	2024-11-06T04:00:00	7	Dirección del viento	1.61
77599	7	Sololá	702	San José Chacayá	5	Chacayá	2	Febrero	2023-09-02T00:00:00	2024-11-06T04:00:00	1	Precipitación	0
77600	7	Sololá	702	San José Chacayá	5	Chacayá	2	Febrero	2023-09-02T00:00:00	2024-11-06T04:00:00	8	Radiación solar	0
77601	7	Sololá	702	San José Chacayá	5	Chacayá	2	Febrero	2023-09-02T00:00:00	2024-11-06T05:00:00	2	Temperatura media	7
77602	7	Sololá	702	San José Chacayá	5	Chacayá	2	Febrero	2023-09-02T00:00:00	2024-11-06T05:00:00	4	Temperatura máxima	7.4
77603	7	Sololá	702	San José Chacayá	5	Chacayá	2	Febrero	2023-09-02T00:00:00	2024-11-06T05:00:00	3	Temperatura mínima	6.9
77604	7	Sololá	702	San José Chacayá	5	Chacayá	2	Febrero	2023-09-02T00:00:00	2024-11-06T05:00:00	5	Humedad	89
77605	7	Sololá	702	San José Chacayá	5	Chacayá	2	Febrero	2023-09-02T00:00:00	2024-11-06T05:00:00	6	Velocidad del viento	3.2
77606	7	Sololá	702	San José Chacayá	5	Chacayá	2	Febrero	2023-09-02T00:00:00	2024-11-06T05:00:00	7	Dirección del viento	3.22
77607	7	Sololá	702	San José Chacayá	5	Chacayá	2	Febrero	2023-09-02T00:00:00	2024-11-06T05:00:00	1	Precipitación	0
77608	7	Sololá	702	San José Chacayá	5	Chacayá	2	Febrero	2023-09-02T00:00:00	2024-11-06T05:00:00	8	Radiación solar	0
77609	7	Sololá	702	San José Chacayá	5	Chacayá	2	Febrero	2023-09-02T00:00:00	2024-11-06T06:00:00	2	Temperatura media	7.6
77610	7	Sololá	702	San José Chacayá	5	Chacayá	2	Febrero	2023-09-02T00:00:00	2024-11-06T06:00:00	4	Temperatura máxima	7.6
77611	7	Sololá	702	San José Chacayá	5	Chacayá	2	Febrero	2023-09-02T00:00:00	2024-11-06T06:00:00	3	Temperatura mínima	6.9
77612	7	Sololá	702	San José Chacayá	5	Chacayá	2	Febrero	2023-09-02T00:00:00	2024-11-06T06:00:00	5	Humedad	88
77613	7	Sololá	702	San José Chacayá	5	Chacayá	2	Febrero	2023-09-02T00:00:00	2024-11-06T06:00:00	6	Velocidad del viento	3.2
77614	7	Sololá	702	San José Chacayá	5	Chacayá	2	Febrero	2023-09-02T00:00:00	2024-11-06T06:00:00	7	Dirección del viento	3.22
77615	7	Sololá	702	San José Chacayá	5	Chacayá	2	Febrero	2023-09-02T00:00:00	2024-11-06T06:00:00	1	Precipitación	0
77616	7	Sololá	702	San José Chacayá	5	Chacayá	2	Febrero	2023-09-02T00:00:00	2024-11-06T06:00:00	8	Radiación solar	0
77617	7	Sololá	702	San José Chacayá	5	Chacayá	2	Febrero	2023-09-02T00:00:00	2024-11-06T07:00:00	2	Temperatura media	13.1
77618	7	Sololá	702	San José Chacayá	5	Chacayá	2	Febrero	2023-09-02T00:00:00	2024-11-06T07:00:00	4	Temperatura máxima	13.1
77619	7	Sololá	702	San José Chacayá	5	Chacayá	2	Febrero	2023-09-02T00:00:00	2024-11-06T07:00:00	3	Temperatura mínima	7.6
77620	7	Sololá	702	San José Chacayá	5	Chacayá	2	Febrero	2023-09-02T00:00:00	2024-11-06T07:00:00	5	Humedad	75
77621	7	Sololá	702	San José Chacayá	5	Chacayá	2	Febrero	2023-09-02T00:00:00	2024-11-06T07:00:00	6	Velocidad del viento	1.6
77622	7	Sololá	702	San José Chacayá	5	Chacayá	2	Febrero	2023-09-02T00:00:00	2024-11-06T07:00:00	7	Dirección del viento	1.61
77623	7	Sololá	702	San José Chacayá	5	Chacayá	2	Febrero	2023-09-02T00:00:00	2024-11-06T07:00:00	1	Precipitación	0
77624	7	Sololá	702	San José Chacayá	5	Chacayá	2	Febrero	2023-09-02T00:00:00	2024-11-06T07:00:00	8	Radiación solar	5
77625	7	Sololá	702	San José Chacayá	5	Chacayá	2	Febrero	2023-09-02T00:00:00	2024-11-06T08:00:00	2	Temperatura media	18.3
77626	7	Sololá	702	San José Chacayá	5	Chacayá	2	Febrero	2023-09-02T00:00:00	2024-11-06T08:00:00	4	Temperatura máxima	18.4
77627	7	Sololá	702	San José Chacayá	5	Chacayá	2	Febrero	2023-09-02T00:00:00	2024-11-06T08:00:00	3	Temperatura mínima	13.1
77628	7	Sololá	702	San José Chacayá	5	Chacayá	2	Febrero	2023-09-02T00:00:00	2024-11-06T08:00:00	5	Humedad	57
77629	7	Sololá	702	San José Chacayá	5	Chacayá	2	Febrero	2023-09-02T00:00:00	2024-11-06T08:00:00	6	Velocidad del viento	1.6
77630	7	Sololá	702	San José Chacayá	5	Chacayá	2	Febrero	2023-09-02T00:00:00	2024-11-06T08:00:00	7	Dirección del viento	1.61
77631	7	Sololá	702	San José Chacayá	5	Chacayá	2	Febrero	2023-09-02T00:00:00	2024-11-06T08:00:00	1	Precipitación	0
77632	7	Sololá	702	San José Chacayá	5	Chacayá	2	Febrero	2023-09-02T00:00:00	2024-11-06T08:00:00	8	Radiación solar	134
77633	7	Sololá	702	San José Chacayá	5	Chacayá	2	Febrero	2023-09-02T00:00:00	2024-11-06T09:00:00	2	Temperatura media	21.1
77634	7	Sololá	702	San José Chacayá	5	Chacayá	2	Febrero	2023-09-02T00:00:00	2024-11-06T09:00:00	4	Temperatura máxima	21.1
77635	7	Sololá	702	San José Chacayá	5	Chacayá	2	Febrero	2023-09-02T00:00:00	2024-11-06T09:00:00	3	Temperatura mínima	18.3
77636	7	Sololá	702	San José Chacayá	5	Chacayá	2	Febrero	2023-09-02T00:00:00	2024-11-06T09:00:00	5	Humedad	38
77637	7	Sololá	702	San José Chacayá	5	Chacayá	2	Febrero	2023-09-02T00:00:00	2024-11-06T09:00:00	6	Velocidad del viento	4.8
77638	7	Sololá	702	San José Chacayá	5	Chacayá	2	Febrero	2023-09-02T00:00:00	2024-11-06T09:00:00	7	Dirección del viento	4.83
77639	7	Sololá	702	San José Chacayá	5	Chacayá	2	Febrero	2023-09-02T00:00:00	2024-11-06T09:00:00	1	Precipitación	0
77640	7	Sololá	702	San José Chacayá	5	Chacayá	2	Febrero	2023-09-02T00:00:00	2024-11-06T09:00:00	8	Radiación solar	367
77641	7	Sololá	702	San José Chacayá	5	Chacayá	2	Febrero	2023-09-02T00:00:00	2024-11-06T10:00:00	2	Temperatura media	21.8
77642	7	Sololá	702	San José Chacayá	5	Chacayá	2	Febrero	2023-09-02T00:00:00	2024-11-06T10:00:00	4	Temperatura máxima	22
77643	7	Sololá	702	San José Chacayá	5	Chacayá	2	Febrero	2023-09-02T00:00:00	2024-11-06T10:00:00	3	Temperatura mínima	21.1
77644	7	Sololá	702	San José Chacayá	5	Chacayá	2	Febrero	2023-09-02T00:00:00	2024-11-06T10:00:00	5	Humedad	40
77645	7	Sololá	702	San José Chacayá	5	Chacayá	2	Febrero	2023-09-02T00:00:00	2024-11-06T10:00:00	6	Velocidad del viento	6.4
77646	7	Sololá	702	San José Chacayá	5	Chacayá	2	Febrero	2023-09-02T00:00:00	2024-11-06T10:00:00	7	Dirección del viento	6.44
77647	7	Sololá	702	San José Chacayá	5	Chacayá	2	Febrero	2023-09-02T00:00:00	2024-11-06T10:00:00	1	Precipitación	0
77648	7	Sololá	702	San José Chacayá	5	Chacayá	2	Febrero	2023-09-02T00:00:00	2024-11-06T10:00:00	8	Radiación solar	467
77649	7	Sololá	702	San José Chacayá	5	Chacayá	2	Febrero	2023-09-02T00:00:00	2024-11-06T11:00:00	2	Temperatura media	22.2
77650	7	Sololá	702	San José Chacayá	5	Chacayá	2	Febrero	2023-09-02T00:00:00	2024-11-06T11:00:00	4	Temperatura máxima	22.5
77651	7	Sololá	702	San José Chacayá	5	Chacayá	2	Febrero	2023-09-02T00:00:00	2024-11-06T11:00:00	3	Temperatura mínima	21.4
77652	7	Sololá	702	San José Chacayá	5	Chacayá	2	Febrero	2023-09-02T00:00:00	2024-11-06T11:00:00	5	Humedad	36
77653	7	Sololá	702	San José Chacayá	5	Chacayá	2	Febrero	2023-09-02T00:00:00	2024-11-06T11:00:00	6	Velocidad del viento	6.4
77654	7	Sololá	702	San José Chacayá	5	Chacayá	2	Febrero	2023-09-02T00:00:00	2024-11-06T11:00:00	7	Dirección del viento	6.44
77655	7	Sololá	702	San José Chacayá	5	Chacayá	2	Febrero	2023-09-02T00:00:00	2024-11-06T11:00:00	1	Precipitación	0
77656	7	Sololá	702	San José Chacayá	5	Chacayá	2	Febrero	2023-09-02T00:00:00	2024-11-06T11:00:00	8	Radiación solar	65
77657	7	Sololá	702	San José Chacayá	5	Chacayá	2	Febrero	2023-09-02T00:00:00	2024-11-06T12:00:00	2	Temperatura media	23.7
77658	7	Sololá	702	San José Chacayá	5	Chacayá	2	Febrero	2023-09-02T00:00:00	2024-11-06T12:00:00	4	Temperatura máxima	23.7
77659	7	Sololá	702	San José Chacayá	5	Chacayá	2	Febrero	2023-09-02T00:00:00	2024-11-06T12:00:00	3	Temperatura mínima	21.6
77660	7	Sololá	702	San José Chacayá	5	Chacayá	2	Febrero	2023-09-02T00:00:00	2024-11-06T12:00:00	5	Humedad	29
77661	7	Sololá	702	San José Chacayá	5	Chacayá	2	Febrero	2023-09-02T00:00:00	2024-11-06T12:00:00	6	Velocidad del viento	8
77662	7	Sololá	702	San José Chacayá	5	Chacayá	2	Febrero	2023-09-02T00:00:00	2024-11-06T12:00:00	7	Dirección del viento	8.05
77663	7	Sololá	702	San José Chacayá	5	Chacayá	2	Febrero	2023-09-02T00:00:00	2024-11-06T12:00:00	1	Precipitación	0
77664	7	Sololá	702	San José Chacayá	5	Chacayá	2	Febrero	2023-09-02T00:00:00	2024-11-06T12:00:00	8	Radiación solar	484
77665	7	Sololá	702	San José Chacayá	5	Chacayá	2	Febrero	2023-09-02T00:00:00	2024-11-06T13:00:00	2	Temperatura media	22.2
77666	7	Sololá	702	San José Chacayá	5	Chacayá	2	Febrero	2023-09-02T00:00:00	2024-11-06T13:00:00	4	Temperatura máxima	24
77667	7	Sololá	702	San José Chacayá	5	Chacayá	2	Febrero	2023-09-02T00:00:00	2024-11-06T13:00:00	3	Temperatura mínima	22.2
77668	7	Sololá	702	San José Chacayá	5	Chacayá	2	Febrero	2023-09-02T00:00:00	2024-11-06T13:00:00	5	Humedad	50
77669	7	Sololá	702	San José Chacayá	5	Chacayá	2	Febrero	2023-09-02T00:00:00	2024-11-06T13:00:00	6	Velocidad del viento	8
77670	7	Sololá	702	San José Chacayá	5	Chacayá	2	Febrero	2023-09-02T00:00:00	2024-11-06T13:00:00	7	Dirección del viento	8.05
77671	7	Sololá	702	San José Chacayá	5	Chacayá	2	Febrero	2023-09-02T00:00:00	2024-11-06T13:00:00	1	Precipitación	0
77672	7	Sololá	702	San José Chacayá	5	Chacayá	2	Febrero	2023-09-02T00:00:00	2024-11-06T13:00:00	8	Radiación solar	892
77673	7	Sololá	702	San José Chacayá	5	Chacayá	2	Febrero	2023-09-02T00:00:00	2024-11-06T14:00:00	2	Temperatura media	21.1
77674	7	Sololá	702	San José Chacayá	5	Chacayá	2	Febrero	2023-09-02T00:00:00	2024-11-06T14:00:00	4	Temperatura máxima	22.4
77675	7	Sololá	702	San José Chacayá	5	Chacayá	2	Febrero	2023-09-02T00:00:00	2024-11-06T14:00:00	3	Temperatura mínima	20.3
77676	7	Sololá	702	San José Chacayá	5	Chacayá	2	Febrero	2023-09-02T00:00:00	2024-11-06T14:00:00	5	Humedad	59
77677	7	Sololá	702	San José Chacayá	5	Chacayá	2	Febrero	2023-09-02T00:00:00	2024-11-06T14:00:00	6	Velocidad del viento	6.4
77678	7	Sololá	702	San José Chacayá	5	Chacayá	2	Febrero	2023-09-02T00:00:00	2024-11-06T14:00:00	7	Dirección del viento	6.44
77679	7	Sololá	702	San José Chacayá	5	Chacayá	2	Febrero	2023-09-02T00:00:00	2024-11-06T14:00:00	1	Precipitación	0
77680	7	Sololá	702	San José Chacayá	5	Chacayá	2	Febrero	2023-09-02T00:00:00	2024-11-06T14:00:00	8	Radiación solar	848
77681	7	Sololá	702	San José Chacayá	5	Chacayá	2	Febrero	2023-09-02T00:00:00	2024-11-06T15:00:00	2	Temperatura media	19.7
77682	7	Sololá	702	San José Chacayá	5	Chacayá	2	Febrero	2023-09-02T00:00:00	2024-11-06T15:00:00	4	Temperatura máxima	21.3
77683	7	Sololá	702	San José Chacayá	5	Chacayá	2	Febrero	2023-09-02T00:00:00	2024-11-06T15:00:00	3	Temperatura mínima	19.6
77684	7	Sololá	702	San José Chacayá	5	Chacayá	2	Febrero	2023-09-02T00:00:00	2024-11-06T15:00:00	5	Humedad	61
77685	7	Sololá	702	San José Chacayá	5	Chacayá	2	Febrero	2023-09-02T00:00:00	2024-11-06T15:00:00	6	Velocidad del viento	4.8
77686	7	Sololá	702	San José Chacayá	5	Chacayá	2	Febrero	2023-09-02T00:00:00	2024-11-06T15:00:00	7	Dirección del viento	4.83
77687	7	Sololá	702	San José Chacayá	5	Chacayá	2	Febrero	2023-09-02T00:00:00	2024-11-06T15:00:00	1	Precipitación	0
77688	7	Sololá	702	San José Chacayá	5	Chacayá	2	Febrero	2023-09-02T00:00:00	2024-11-06T15:00:00	8	Radiación solar	760
77689	7	Sololá	702	San José Chacayá	5	Chacayá	2	Febrero	2023-09-02T00:00:00	2024-11-06T16:00:00	2	Temperatura media	17.9
77690	7	Sololá	702	San José Chacayá	5	Chacayá	2	Febrero	2023-09-02T00:00:00	2024-11-06T16:00:00	4	Temperatura máxima	20.4
77691	7	Sololá	702	San José Chacayá	5	Chacayá	2	Febrero	2023-09-02T00:00:00	2024-11-06T16:00:00	3	Temperatura mínima	17.9
77692	7	Sololá	702	San José Chacayá	5	Chacayá	2	Febrero	2023-09-02T00:00:00	2024-11-06T16:00:00	5	Humedad	53
77693	7	Sololá	702	San José Chacayá	5	Chacayá	2	Febrero	2023-09-02T00:00:00	2024-11-06T16:00:00	6	Velocidad del viento	4.8
77694	7	Sololá	702	San José Chacayá	5	Chacayá	2	Febrero	2023-09-02T00:00:00	2024-11-06T16:00:00	7	Dirección del viento	4.83
77695	7	Sololá	702	San José Chacayá	5	Chacayá	2	Febrero	2023-09-02T00:00:00	2024-11-06T16:00:00	1	Precipitación	0
77696	7	Sololá	702	San José Chacayá	5	Chacayá	2	Febrero	2023-09-02T00:00:00	2024-11-06T16:00:00	8	Radiación solar	540
77697	7	Sololá	702	San José Chacayá	5	Chacayá	2	Febrero	2023-09-02T00:00:00	2024-11-06T17:00:00	2	Temperatura media	16.2
77698	7	Sololá	702	San José Chacayá	5	Chacayá	2	Febrero	2023-09-02T00:00:00	2024-11-06T17:00:00	4	Temperatura máxima	18.1
77699	7	Sololá	702	San José Chacayá	5	Chacayá	2	Febrero	2023-09-02T00:00:00	2024-11-06T17:00:00	3	Temperatura mínima	16.2
77700	7	Sololá	702	San José Chacayá	5	Chacayá	2	Febrero	2023-09-02T00:00:00	2024-11-06T17:00:00	5	Humedad	55
77701	7	Sololá	702	San José Chacayá	5	Chacayá	2	Febrero	2023-09-02T00:00:00	2024-11-06T17:00:00	6	Velocidad del viento	3.2
77702	7	Sololá	702	San José Chacayá	5	Chacayá	2	Febrero	2023-09-02T00:00:00	2024-11-06T17:00:00	7	Dirección del viento	3.22
77703	7	Sololá	702	San José Chacayá	5	Chacayá	2	Febrero	2023-09-02T00:00:00	2024-11-06T17:00:00	1	Precipitación	0
77704	7	Sololá	702	San José Chacayá	5	Chacayá	2	Febrero	2023-09-02T00:00:00	2024-11-06T17:00:00	8	Radiación solar	222
77705	7	Sololá	702	San José Chacayá	5	Chacayá	2	Febrero	2023-09-02T00:00:00	2024-11-06T18:00:00	2	Temperatura media	14.3
77706	7	Sololá	702	San José Chacayá	5	Chacayá	2	Febrero	2023-09-02T00:00:00	2024-11-06T18:00:00	4	Temperatura máxima	16.2
77707	7	Sololá	702	San José Chacayá	5	Chacayá	2	Febrero	2023-09-02T00:00:00	2024-11-06T18:00:00	3	Temperatura mínima	14.3
77708	7	Sololá	702	San José Chacayá	5	Chacayá	2	Febrero	2023-09-02T00:00:00	2024-11-06T18:00:00	5	Humedad	61
77709	7	Sololá	702	San José Chacayá	5	Chacayá	2	Febrero	2023-09-02T00:00:00	2024-11-06T18:00:00	6	Velocidad del viento	3.2
77710	7	Sololá	702	San José Chacayá	5	Chacayá	2	Febrero	2023-09-02T00:00:00	2024-11-06T18:00:00	7	Dirección del viento	3.22
77711	7	Sololá	702	San José Chacayá	5	Chacayá	2	Febrero	2023-09-02T00:00:00	2024-11-06T18:00:00	1	Precipitación	0
77712	7	Sololá	702	San José Chacayá	5	Chacayá	2	Febrero	2023-09-02T00:00:00	2024-11-06T18:00:00	8	Radiación solar	57
77713	7	Sololá	702	San José Chacayá	5	Chacayá	2	Febrero	2023-09-02T00:00:00	2024-11-06T19:00:00	2	Temperatura media	10.8
77714	7	Sololá	702	San José Chacayá	5	Chacayá	2	Febrero	2023-09-02T00:00:00	2024-11-06T19:00:00	4	Temperatura máxima	14.3
77715	7	Sololá	702	San José Chacayá	5	Chacayá	2	Febrero	2023-09-02T00:00:00	2024-11-06T19:00:00	3	Temperatura mínima	10.6
77716	7	Sololá	702	San José Chacayá	5	Chacayá	2	Febrero	2023-09-02T00:00:00	2024-11-06T19:00:00	5	Humedad	77
77717	7	Sololá	702	San José Chacayá	5	Chacayá	2	Febrero	2023-09-02T00:00:00	2024-11-06T19:00:00	6	Velocidad del viento	1.6
77718	7	Sololá	702	San José Chacayá	5	Chacayá	2	Febrero	2023-09-02T00:00:00	2024-11-06T19:00:00	7	Dirección del viento	1.61
77719	7	Sololá	702	San José Chacayá	5	Chacayá	2	Febrero	2023-09-02T00:00:00	2024-11-06T19:00:00	1	Precipitación	0
77720	7	Sololá	702	San José Chacayá	5	Chacayá	2	Febrero	2023-09-02T00:00:00	2024-11-06T19:00:00	8	Radiación solar	0
77721	7	Sololá	702	San José Chacayá	5	Chacayá	2	Febrero	2023-09-02T00:00:00	2024-11-06T20:00:00	2	Temperatura media	11.7
77722	7	Sololá	702	San José Chacayá	5	Chacayá	2	Febrero	2023-09-02T00:00:00	2024-11-06T20:00:00	4	Temperatura máxima	11.7
77723	7	Sololá	702	San José Chacayá	5	Chacayá	2	Febrero	2023-09-02T00:00:00	2024-11-06T20:00:00	3	Temperatura mínima	9.8
77724	7	Sololá	702	San José Chacayá	5	Chacayá	2	Febrero	2023-09-02T00:00:00	2024-11-06T20:00:00	5	Humedad	81
77725	7	Sololá	702	San José Chacayá	5	Chacayá	2	Febrero	2023-09-02T00:00:00	2024-11-06T20:00:00	6	Velocidad del viento	1.6
77726	7	Sololá	702	San José Chacayá	5	Chacayá	2	Febrero	2023-09-02T00:00:00	2024-11-06T20:00:00	7	Dirección del viento	1.61
77727	7	Sololá	702	San José Chacayá	5	Chacayá	2	Febrero	2023-09-02T00:00:00	2024-11-06T20:00:00	1	Precipitación	0
77728	7	Sololá	702	San José Chacayá	5	Chacayá	2	Febrero	2023-09-02T00:00:00	2024-11-06T20:00:00	8	Radiación solar	0
77729	7	Sololá	702	San José Chacayá	5	Chacayá	2	Febrero	2023-09-02T00:00:00	2024-11-06T21:00:00	2	Temperatura media	8.4
77730	7	Sololá	702	San José Chacayá	5	Chacayá	2	Febrero	2023-09-02T00:00:00	2024-11-06T21:00:00	4	Temperatura máxima	12
77731	7	Sololá	702	San José Chacayá	5	Chacayá	2	Febrero	2023-09-02T00:00:00	2024-11-06T21:00:00	3	Temperatura mínima	8.4
77732	7	Sololá	702	San José Chacayá	5	Chacayá	2	Febrero	2023-09-02T00:00:00	2024-11-06T21:00:00	5	Humedad	82
77733	7	Sololá	702	San José Chacayá	5	Chacayá	2	Febrero	2023-09-02T00:00:00	2024-11-06T21:00:00	6	Velocidad del viento	1.6
77734	7	Sololá	702	San José Chacayá	5	Chacayá	2	Febrero	2023-09-02T00:00:00	2024-11-06T21:00:00	7	Dirección del viento	1.61
77735	7	Sololá	702	San José Chacayá	5	Chacayá	2	Febrero	2023-09-02T00:00:00	2024-11-06T21:00:00	1	Precipitación	0
77736	7	Sololá	702	San José Chacayá	5	Chacayá	2	Febrero	2023-09-02T00:00:00	2024-11-06T21:00:00	8	Radiación solar	0
77737	7	Sololá	702	San José Chacayá	5	Chacayá	2	Febrero	2023-09-02T00:00:00	2024-11-06T22:00:00	2	Temperatura media	8.2
77738	7	Sololá	702	San José Chacayá	5	Chacayá	2	Febrero	2023-09-02T00:00:00	2024-11-06T22:00:00	4	Temperatura máxima	8.6
77739	7	Sololá	702	San José Chacayá	5	Chacayá	2	Febrero	2023-09-02T00:00:00	2024-11-06T22:00:00	3	Temperatura mínima	7.9
77740	7	Sololá	702	San José Chacayá	5	Chacayá	2	Febrero	2023-09-02T00:00:00	2024-11-06T22:00:00	5	Humedad	85
77741	7	Sololá	702	San José Chacayá	5	Chacayá	2	Febrero	2023-09-02T00:00:00	2024-11-06T22:00:00	6	Velocidad del viento	3.2
77742	7	Sololá	702	San José Chacayá	5	Chacayá	2	Febrero	2023-09-02T00:00:00	2024-11-06T22:00:00	7	Dirección del viento	3.22
77743	7	Sololá	702	San José Chacayá	5	Chacayá	2	Febrero	2023-09-02T00:00:00	2024-11-06T22:00:00	1	Precipitación	0
77744	7	Sololá	702	San José Chacayá	5	Chacayá	2	Febrero	2023-09-02T00:00:00	2024-11-06T22:00:00	8	Radiación solar	0
77745	7	Sololá	702	San José Chacayá	5	Chacayá	2	Febrero	2023-09-02T00:00:00	2024-11-06T23:00:00	2	Temperatura media	9.8
77746	7	Sololá	702	San José Chacayá	5	Chacayá	2	Febrero	2023-09-02T00:00:00	2024-11-06T23:00:00	4	Temperatura máxima	9.8
77747	7	Sololá	702	San José Chacayá	5	Chacayá	2	Febrero	2023-09-02T00:00:00	2024-11-06T23:00:00	3	Temperatura mínima	8.1
77748	7	Sololá	702	San José Chacayá	5	Chacayá	2	Febrero	2023-09-02T00:00:00	2024-11-06T23:00:00	5	Humedad	84
77749	7	Sololá	702	San José Chacayá	5	Chacayá	2	Febrero	2023-09-02T00:00:00	2024-11-06T23:00:00	6	Velocidad del viento	1.6
77750	7	Sololá	702	San José Chacayá	5	Chacayá	2	Febrero	2023-09-02T00:00:00	2024-11-06T23:00:00	7	Dirección del viento	1.61
77751	7	Sololá	702	San José Chacayá	5	Chacayá	2	Febrero	2023-09-02T00:00:00	2024-11-06T23:00:00	1	Precipitación	0
77752	7	Sololá	702	San José Chacayá	5	Chacayá	2	Febrero	2023-09-02T00:00:00	2024-11-06T23:00:00	8	Radiación solar	0
77753	7	Sololá	702	San José Chacayá	5	Chacayá	2	Febrero	2023-10-02T00:00:00	2024-11-06T00:00:00	2	Temperatura media	7.7
77754	7	Sololá	702	San José Chacayá	5	Chacayá	2	Febrero	2023-10-02T00:00:00	2024-11-06T00:00:00	4	Temperatura máxima	10
77755	7	Sololá	702	San José Chacayá	5	Chacayá	2	Febrero	2023-10-02T00:00:00	2024-11-06T00:00:00	3	Temperatura mínima	7.7
77756	7	Sololá	702	San José Chacayá	5	Chacayá	2	Febrero	2023-10-02T00:00:00	2024-11-06T00:00:00	5	Humedad	88
77757	7	Sololá	702	San José Chacayá	5	Chacayá	2	Febrero	2023-10-02T00:00:00	2024-11-06T00:00:00	6	Velocidad del viento	1.6
77758	7	Sololá	702	San José Chacayá	5	Chacayá	2	Febrero	2023-10-02T00:00:00	2024-11-06T00:00:00	7	Dirección del viento	1.61
77759	7	Sololá	702	San José Chacayá	5	Chacayá	2	Febrero	2023-10-02T00:00:00	2024-11-06T00:00:00	1	Precipitación	0
77760	7	Sololá	702	San José Chacayá	5	Chacayá	2	Febrero	2023-10-02T00:00:00	2024-11-06T00:00:00	8	Radiación solar	0
77761	7	Sololá	702	San José Chacayá	5	Chacayá	2	Febrero	2023-10-02T00:00:00	2024-11-06T01:00:00	2	Temperatura media	6.7
77762	7	Sololá	702	San José Chacayá	5	Chacayá	2	Febrero	2023-10-02T00:00:00	2024-11-06T01:00:00	4	Temperatura máxima	7.7
77763	7	Sololá	702	San José Chacayá	5	Chacayá	2	Febrero	2023-10-02T00:00:00	2024-11-06T01:00:00	3	Temperatura mínima	6.7
77764	7	Sololá	702	San José Chacayá	5	Chacayá	2	Febrero	2023-10-02T00:00:00	2024-11-06T01:00:00	5	Humedad	91
77765	7	Sololá	702	San José Chacayá	5	Chacayá	2	Febrero	2023-10-02T00:00:00	2024-11-06T01:00:00	6	Velocidad del viento	0
77766	7	Sololá	702	San José Chacayá	5	Chacayá	2	Febrero	2023-10-02T00:00:00	2024-11-06T01:00:00	7	Dirección del viento	0
77767	7	Sololá	702	San José Chacayá	5	Chacayá	2	Febrero	2023-10-02T00:00:00	2024-11-06T01:00:00	1	Precipitación	0
77768	7	Sololá	702	San José Chacayá	5	Chacayá	2	Febrero	2023-10-02T00:00:00	2024-11-06T01:00:00	8	Radiación solar	0
77769	7	Sololá	702	San José Chacayá	5	Chacayá	2	Febrero	2023-10-02T00:00:00	2024-11-06T02:00:00	2	Temperatura media	6.6
77770	7	Sololá	702	San José Chacayá	5	Chacayá	2	Febrero	2023-10-02T00:00:00	2024-11-06T02:00:00	4	Temperatura máxima	7.1
77771	7	Sololá	702	San José Chacayá	5	Chacayá	2	Febrero	2023-10-02T00:00:00	2024-11-06T02:00:00	3	Temperatura mínima	6.6
77772	7	Sololá	702	San José Chacayá	5	Chacayá	2	Febrero	2023-10-02T00:00:00	2024-11-06T02:00:00	5	Humedad	88
77773	7	Sololá	702	San José Chacayá	5	Chacayá	2	Febrero	2023-10-02T00:00:00	2024-11-06T02:00:00	6	Velocidad del viento	1.6
77774	7	Sololá	702	San José Chacayá	5	Chacayá	2	Febrero	2023-10-02T00:00:00	2024-11-06T02:00:00	7	Dirección del viento	1.61
77775	7	Sololá	702	San José Chacayá	5	Chacayá	2	Febrero	2023-10-02T00:00:00	2024-11-06T02:00:00	1	Precipitación	0
77776	7	Sololá	702	San José Chacayá	5	Chacayá	2	Febrero	2023-10-02T00:00:00	2024-11-06T02:00:00	8	Radiación solar	0
77777	7	Sololá	702	San José Chacayá	5	Chacayá	2	Febrero	2023-10-02T00:00:00	2024-11-06T03:00:00	2	Temperatura media	6.3
77778	7	Sololá	702	San José Chacayá	5	Chacayá	2	Febrero	2023-10-02T00:00:00	2024-11-06T03:00:00	4	Temperatura máxima	6.6
77779	7	Sololá	702	San José Chacayá	5	Chacayá	2	Febrero	2023-10-02T00:00:00	2024-11-06T03:00:00	3	Temperatura mínima	6.3
77780	7	Sololá	702	San José Chacayá	5	Chacayá	2	Febrero	2023-10-02T00:00:00	2024-11-06T03:00:00	5	Humedad	87
77781	7	Sololá	702	San José Chacayá	5	Chacayá	2	Febrero	2023-10-02T00:00:00	2024-11-06T03:00:00	6	Velocidad del viento	1.6
77782	7	Sololá	702	San José Chacayá	5	Chacayá	2	Febrero	2023-10-02T00:00:00	2024-11-06T03:00:00	7	Dirección del viento	1.61
77783	7	Sololá	702	San José Chacayá	5	Chacayá	2	Febrero	2023-10-02T00:00:00	2024-11-06T03:00:00	1	Precipitación	0
77784	7	Sololá	702	San José Chacayá	5	Chacayá	2	Febrero	2023-10-02T00:00:00	2024-11-06T03:00:00	8	Radiación solar	0
77785	7	Sololá	702	San José Chacayá	5	Chacayá	2	Febrero	2023-10-02T00:00:00	2024-11-06T04:00:00	2	Temperatura media	6.2
77786	7	Sololá	702	San José Chacayá	5	Chacayá	2	Febrero	2023-10-02T00:00:00	2024-11-06T04:00:00	4	Temperatura máxima	6.4
77787	7	Sololá	702	San José Chacayá	5	Chacayá	2	Febrero	2023-10-02T00:00:00	2024-11-06T04:00:00	3	Temperatura mínima	6
77788	7	Sololá	702	San José Chacayá	5	Chacayá	2	Febrero	2023-10-02T00:00:00	2024-11-06T04:00:00	5	Humedad	87
77789	7	Sololá	702	San José Chacayá	5	Chacayá	2	Febrero	2023-10-02T00:00:00	2024-11-06T04:00:00	6	Velocidad del viento	1.6
77790	7	Sololá	702	San José Chacayá	5	Chacayá	2	Febrero	2023-10-02T00:00:00	2024-11-06T04:00:00	7	Dirección del viento	1.61
77791	7	Sololá	702	San José Chacayá	5	Chacayá	2	Febrero	2023-10-02T00:00:00	2024-11-06T04:00:00	1	Precipitación	0
77792	7	Sololá	702	San José Chacayá	5	Chacayá	2	Febrero	2023-10-02T00:00:00	2024-11-06T04:00:00	8	Radiación solar	0
77793	7	Sololá	702	San José Chacayá	5	Chacayá	2	Febrero	2023-10-02T00:00:00	2024-11-06T05:00:00	2	Temperatura media	5.9
77794	7	Sololá	702	San José Chacayá	5	Chacayá	2	Febrero	2023-10-02T00:00:00	2024-11-06T05:00:00	4	Temperatura máxima	6.3
77795	7	Sololá	702	San José Chacayá	5	Chacayá	2	Febrero	2023-10-02T00:00:00	2024-11-06T05:00:00	3	Temperatura mínima	5.9
77796	7	Sololá	702	San José Chacayá	5	Chacayá	2	Febrero	2023-10-02T00:00:00	2024-11-06T05:00:00	5	Humedad	86
77797	7	Sololá	702	San José Chacayá	5	Chacayá	2	Febrero	2023-10-02T00:00:00	2024-11-06T05:00:00	6	Velocidad del viento	1.6
77798	7	Sololá	702	San José Chacayá	5	Chacayá	2	Febrero	2023-10-02T00:00:00	2024-11-06T05:00:00	7	Dirección del viento	1.61
77799	7	Sololá	702	San José Chacayá	5	Chacayá	2	Febrero	2023-10-02T00:00:00	2024-11-06T05:00:00	1	Precipitación	0
77800	7	Sololá	702	San José Chacayá	5	Chacayá	2	Febrero	2023-10-02T00:00:00	2024-11-06T05:00:00	8	Radiación solar	0
77801	7	Sololá	702	San José Chacayá	5	Chacayá	2	Febrero	2023-10-02T00:00:00	2024-11-06T06:00:00	2	Temperatura media	6.5
77802	7	Sololá	702	San José Chacayá	5	Chacayá	2	Febrero	2023-10-02T00:00:00	2024-11-06T06:00:00	4	Temperatura máxima	6.5
77803	7	Sololá	702	San José Chacayá	5	Chacayá	2	Febrero	2023-10-02T00:00:00	2024-11-06T06:00:00	3	Temperatura mínima	5.4
77804	7	Sololá	702	San José Chacayá	5	Chacayá	2	Febrero	2023-10-02T00:00:00	2024-11-06T06:00:00	5	Humedad	84
77805	7	Sololá	702	San José Chacayá	5	Chacayá	2	Febrero	2023-10-02T00:00:00	2024-11-06T06:00:00	6	Velocidad del viento	1.6
77806	7	Sololá	702	San José Chacayá	5	Chacayá	2	Febrero	2023-10-02T00:00:00	2024-11-06T06:00:00	7	Dirección del viento	1.61
77807	7	Sololá	702	San José Chacayá	5	Chacayá	2	Febrero	2023-10-02T00:00:00	2024-11-06T06:00:00	1	Precipitación	0
77808	7	Sololá	702	San José Chacayá	5	Chacayá	2	Febrero	2023-10-02T00:00:00	2024-11-06T06:00:00	8	Radiación solar	0
77809	7	Sololá	702	San José Chacayá	5	Chacayá	2	Febrero	2023-10-02T00:00:00	2024-11-06T07:00:00	2	Temperatura media	11.1
77810	7	Sololá	702	San José Chacayá	5	Chacayá	2	Febrero	2023-10-02T00:00:00	2024-11-06T07:00:00	4	Temperatura máxima	11.1
77811	7	Sololá	702	San José Chacayá	5	Chacayá	2	Febrero	2023-10-02T00:00:00	2024-11-06T07:00:00	3	Temperatura mínima	6.5
77812	7	Sololá	702	San José Chacayá	5	Chacayá	2	Febrero	2023-10-02T00:00:00	2024-11-06T07:00:00	5	Humedad	75
77813	7	Sololá	702	San José Chacayá	5	Chacayá	2	Febrero	2023-10-02T00:00:00	2024-11-06T07:00:00	6	Velocidad del viento	1.6
77814	7	Sololá	702	San José Chacayá	5	Chacayá	2	Febrero	2023-10-02T00:00:00	2024-11-06T07:00:00	7	Dirección del viento	1.61
77815	7	Sololá	702	San José Chacayá	5	Chacayá	2	Febrero	2023-10-02T00:00:00	2024-11-06T07:00:00	1	Precipitación	0
77816	7	Sololá	702	San José Chacayá	5	Chacayá	2	Febrero	2023-10-02T00:00:00	2024-11-06T07:00:00	8	Radiación solar	12
77817	7	Sololá	702	San José Chacayá	5	Chacayá	2	Febrero	2023-10-02T00:00:00	2024-11-06T08:00:00	2	Temperatura media	18.3
77818	7	Sololá	702	San José Chacayá	5	Chacayá	2	Febrero	2023-10-02T00:00:00	2024-11-06T08:00:00	4	Temperatura máxima	18.3
77819	7	Sololá	702	San José Chacayá	5	Chacayá	2	Febrero	2023-10-02T00:00:00	2024-11-06T08:00:00	3	Temperatura mínima	11.2
77820	7	Sololá	702	San José Chacayá	5	Chacayá	2	Febrero	2023-10-02T00:00:00	2024-11-06T08:00:00	5	Humedad	49
77821	7	Sololá	702	San José Chacayá	5	Chacayá	2	Febrero	2023-10-02T00:00:00	2024-11-06T08:00:00	6	Velocidad del viento	3.2
77822	7	Sololá	702	San José Chacayá	5	Chacayá	2	Febrero	2023-10-02T00:00:00	2024-11-06T08:00:00	7	Dirección del viento	3.22
77823	7	Sololá	702	San José Chacayá	5	Chacayá	2	Febrero	2023-10-02T00:00:00	2024-11-06T08:00:00	1	Precipitación	0
77824	7	Sololá	702	San José Chacayá	5	Chacayá	2	Febrero	2023-10-02T00:00:00	2024-11-06T08:00:00	8	Radiación solar	186
77825	7	Sololá	702	San José Chacayá	5	Chacayá	2	Febrero	2023-10-02T00:00:00	2024-11-06T09:00:00	2	Temperatura media	20.4
77826	7	Sololá	702	San José Chacayá	5	Chacayá	2	Febrero	2023-10-02T00:00:00	2024-11-06T09:00:00	4	Temperatura máxima	20.4
77827	7	Sololá	702	San José Chacayá	5	Chacayá	2	Febrero	2023-10-02T00:00:00	2024-11-06T09:00:00	3	Temperatura mínima	18.3
77828	7	Sololá	702	San José Chacayá	5	Chacayá	2	Febrero	2023-10-02T00:00:00	2024-11-06T09:00:00	5	Humedad	39
77829	7	Sololá	702	San José Chacayá	5	Chacayá	2	Febrero	2023-10-02T00:00:00	2024-11-06T09:00:00	6	Velocidad del viento	6.4
77830	7	Sololá	702	San José Chacayá	5	Chacayá	2	Febrero	2023-10-02T00:00:00	2024-11-06T09:00:00	7	Dirección del viento	6.44
77831	7	Sololá	702	San José Chacayá	5	Chacayá	2	Febrero	2023-10-02T00:00:00	2024-11-06T09:00:00	1	Precipitación	0
77832	7	Sololá	702	San José Chacayá	5	Chacayá	2	Febrero	2023-10-02T00:00:00	2024-11-06T09:00:00	8	Radiación solar	424
77833	7	Sololá	702	San José Chacayá	5	Chacayá	2	Febrero	2023-10-02T00:00:00	2024-11-06T10:00:00	2	Temperatura media	21.7
77834	7	Sololá	702	San José Chacayá	5	Chacayá	2	Febrero	2023-10-02T00:00:00	2024-11-06T10:00:00	4	Temperatura máxima	21.7
77835	7	Sololá	702	San José Chacayá	5	Chacayá	2	Febrero	2023-10-02T00:00:00	2024-11-06T10:00:00	3	Temperatura mínima	20.3
77836	7	Sololá	702	San José Chacayá	5	Chacayá	2	Febrero	2023-10-02T00:00:00	2024-11-06T10:00:00	5	Humedad	35
77837	7	Sololá	702	San José Chacayá	5	Chacayá	2	Febrero	2023-10-02T00:00:00	2024-11-06T10:00:00	6	Velocidad del viento	4.8
77838	7	Sololá	702	San José Chacayá	5	Chacayá	2	Febrero	2023-10-02T00:00:00	2024-11-06T10:00:00	7	Dirección del viento	4.83
77839	7	Sololá	702	San José Chacayá	5	Chacayá	2	Febrero	2023-10-02T00:00:00	2024-11-06T10:00:00	1	Precipitación	0
77840	7	Sololá	702	San José Chacayá	5	Chacayá	2	Febrero	2023-10-02T00:00:00	2024-11-06T10:00:00	8	Radiación solar	635
77841	7	Sololá	702	San José Chacayá	5	Chacayá	2	Febrero	2023-10-02T00:00:00	2024-11-06T11:00:00	2	Temperatura media	22.2
77842	7	Sololá	702	San José Chacayá	5	Chacayá	2	Febrero	2023-10-02T00:00:00	2024-11-06T11:00:00	4	Temperatura máxima	22.6
77843	7	Sololá	702	San José Chacayá	5	Chacayá	2	Febrero	2023-10-02T00:00:00	2024-11-06T11:00:00	3	Temperatura mínima	21.1
77844	7	Sololá	702	San José Chacayá	5	Chacayá	2	Febrero	2023-10-02T00:00:00	2024-11-06T11:00:00	5	Humedad	39
77845	7	Sololá	702	San José Chacayá	5	Chacayá	2	Febrero	2023-10-02T00:00:00	2024-11-06T11:00:00	6	Velocidad del viento	6.4
77846	7	Sololá	702	San José Chacayá	5	Chacayá	2	Febrero	2023-10-02T00:00:00	2024-11-06T11:00:00	7	Dirección del viento	6.44
77847	7	Sololá	702	San José Chacayá	5	Chacayá	2	Febrero	2023-10-02T00:00:00	2024-11-06T11:00:00	1	Precipitación	0
77848	7	Sololá	702	San José Chacayá	5	Chacayá	2	Febrero	2023-10-02T00:00:00	2024-11-06T11:00:00	8	Radiación solar	797
77849	7	Sololá	702	San José Chacayá	5	Chacayá	2	Febrero	2023-10-02T00:00:00	2024-11-06T12:00:00	2	Temperatura media	22.1
77850	7	Sololá	702	San José Chacayá	5	Chacayá	2	Febrero	2023-10-02T00:00:00	2024-11-06T12:00:00	4	Temperatura máxima	23.1
77851	7	Sololá	702	San José Chacayá	5	Chacayá	2	Febrero	2023-10-02T00:00:00	2024-11-06T12:00:00	3	Temperatura mínima	21.7
77852	7	Sololá	702	San José Chacayá	5	Chacayá	2	Febrero	2023-10-02T00:00:00	2024-11-06T12:00:00	5	Humedad	54
77853	7	Sololá	702	San José Chacayá	5	Chacayá	2	Febrero	2023-10-02T00:00:00	2024-11-06T12:00:00	6	Velocidad del viento	6.4
77854	7	Sololá	702	San José Chacayá	5	Chacayá	2	Febrero	2023-10-02T00:00:00	2024-11-06T12:00:00	7	Dirección del viento	6.44
77855	7	Sololá	702	San José Chacayá	5	Chacayá	2	Febrero	2023-10-02T00:00:00	2024-11-06T12:00:00	1	Precipitación	0
77856	7	Sololá	702	San José Chacayá	5	Chacayá	2	Febrero	2023-10-02T00:00:00	2024-11-06T12:00:00	8	Radiación solar	894
77857	7	Sololá	702	San José Chacayá	5	Chacayá	2	Febrero	2023-10-02T00:00:00	2024-11-06T13:00:00	2	Temperatura media	20.4
77858	7	Sololá	702	San José Chacayá	5	Chacayá	2	Febrero	2023-10-02T00:00:00	2024-11-06T13:00:00	4	Temperatura máxima	22.4
77859	7	Sololá	702	San José Chacayá	5	Chacayá	2	Febrero	2023-10-02T00:00:00	2024-11-06T13:00:00	3	Temperatura mínima	20.4
77860	7	Sololá	702	San José Chacayá	5	Chacayá	2	Febrero	2023-10-02T00:00:00	2024-11-06T13:00:00	5	Humedad	64
77861	7	Sololá	702	San José Chacayá	5	Chacayá	2	Febrero	2023-10-02T00:00:00	2024-11-06T13:00:00	6	Velocidad del viento	6.4
77862	7	Sololá	702	San José Chacayá	5	Chacayá	2	Febrero	2023-10-02T00:00:00	2024-11-06T13:00:00	7	Dirección del viento	6.44
77863	7	Sololá	702	San José Chacayá	5	Chacayá	2	Febrero	2023-10-02T00:00:00	2024-11-06T13:00:00	1	Precipitación	0
77864	7	Sololá	702	San José Chacayá	5	Chacayá	2	Febrero	2023-10-02T00:00:00	2024-11-06T13:00:00	8	Radiación solar	908
77865	7	Sololá	702	San José Chacayá	5	Chacayá	2	Febrero	2023-10-02T00:00:00	2024-11-06T14:00:00	2	Temperatura media	20.4
77866	7	Sololá	702	San José Chacayá	5	Chacayá	2	Febrero	2023-10-02T00:00:00	2024-11-06T14:00:00	4	Temperatura máxima	20.9
77867	7	Sololá	702	San José Chacayá	5	Chacayá	2	Febrero	2023-10-02T00:00:00	2024-11-06T14:00:00	3	Temperatura mínima	20.3
77868	7	Sololá	702	San José Chacayá	5	Chacayá	2	Febrero	2023-10-02T00:00:00	2024-11-06T14:00:00	5	Humedad	67
77869	7	Sololá	702	San José Chacayá	5	Chacayá	2	Febrero	2023-10-02T00:00:00	2024-11-06T14:00:00	6	Velocidad del viento	6.4
77870	7	Sololá	702	San José Chacayá	5	Chacayá	2	Febrero	2023-10-02T00:00:00	2024-11-06T14:00:00	7	Dirección del viento	6.44
77871	7	Sololá	702	San José Chacayá	5	Chacayá	2	Febrero	2023-10-02T00:00:00	2024-11-06T14:00:00	1	Precipitación	0
77872	7	Sololá	702	San José Chacayá	5	Chacayá	2	Febrero	2023-10-02T00:00:00	2024-11-06T14:00:00	8	Radiación solar	569
77873	7	Sololá	702	San José Chacayá	5	Chacayá	2	Febrero	2023-10-02T00:00:00	2024-11-06T15:00:00	2	Temperatura media	19.8
77874	7	Sololá	702	San José Chacayá	5	Chacayá	2	Febrero	2023-10-02T00:00:00	2024-11-06T15:00:00	4	Temperatura máxima	20.6
77875	7	Sololá	702	San José Chacayá	5	Chacayá	2	Febrero	2023-10-02T00:00:00	2024-11-06T15:00:00	3	Temperatura mínima	19.5
77876	7	Sololá	702	San José Chacayá	5	Chacayá	2	Febrero	2023-10-02T00:00:00	2024-11-06T15:00:00	5	Humedad	68
77877	7	Sololá	702	San José Chacayá	5	Chacayá	2	Febrero	2023-10-02T00:00:00	2024-11-06T15:00:00	6	Velocidad del viento	4.8
77878	7	Sololá	702	San José Chacayá	5	Chacayá	2	Febrero	2023-10-02T00:00:00	2024-11-06T15:00:00	7	Dirección del viento	4.83
77879	7	Sololá	702	San José Chacayá	5	Chacayá	2	Febrero	2023-10-02T00:00:00	2024-11-06T15:00:00	1	Precipitación	0
77880	7	Sololá	702	San José Chacayá	5	Chacayá	2	Febrero	2023-10-02T00:00:00	2024-11-06T15:00:00	8	Radiación solar	396
77881	7	Sololá	702	San José Chacayá	5	Chacayá	2	Febrero	2023-10-02T00:00:00	2024-11-06T16:00:00	2	Temperatura media	18.2
77882	7	Sololá	702	San José Chacayá	5	Chacayá	2	Febrero	2023-10-02T00:00:00	2024-11-06T16:00:00	4	Temperatura máxima	19.8
77883	7	Sololá	702	San José Chacayá	5	Chacayá	2	Febrero	2023-10-02T00:00:00	2024-11-06T16:00:00	3	Temperatura mínima	18.2
77884	7	Sololá	702	San José Chacayá	5	Chacayá	2	Febrero	2023-10-02T00:00:00	2024-11-06T16:00:00	5	Humedad	75
77885	7	Sololá	702	San José Chacayá	5	Chacayá	2	Febrero	2023-10-02T00:00:00	2024-11-06T16:00:00	6	Velocidad del viento	3.2
77886	7	Sololá	702	San José Chacayá	5	Chacayá	2	Febrero	2023-10-02T00:00:00	2024-11-06T16:00:00	7	Dirección del viento	3.22
77887	7	Sololá	702	San José Chacayá	5	Chacayá	2	Febrero	2023-10-02T00:00:00	2024-11-06T16:00:00	1	Precipitación	0
77888	7	Sololá	702	San José Chacayá	5	Chacayá	2	Febrero	2023-10-02T00:00:00	2024-11-06T16:00:00	8	Radiación solar	281
77889	7	Sololá	702	San José Chacayá	5	Chacayá	2	Febrero	2023-10-02T00:00:00	2024-11-06T17:00:00	2	Temperatura media	15.2
77890	7	Sololá	702	San José Chacayá	5	Chacayá	2	Febrero	2023-10-02T00:00:00	2024-11-06T17:00:00	4	Temperatura máxima	18.2
77891	7	Sololá	702	San José Chacayá	5	Chacayá	2	Febrero	2023-10-02T00:00:00	2024-11-06T17:00:00	3	Temperatura mínima	15.2
77892	7	Sololá	702	San José Chacayá	5	Chacayá	2	Febrero	2023-10-02T00:00:00	2024-11-06T17:00:00	5	Humedad	87
77893	7	Sololá	702	San José Chacayá	5	Chacayá	2	Febrero	2023-10-02T00:00:00	2024-11-06T17:00:00	6	Velocidad del viento	1.6
77894	7	Sololá	702	San José Chacayá	5	Chacayá	2	Febrero	2023-10-02T00:00:00	2024-11-06T17:00:00	7	Dirección del viento	1.61
77895	7	Sololá	702	San José Chacayá	5	Chacayá	2	Febrero	2023-10-02T00:00:00	2024-11-06T17:00:00	1	Precipitación	0
77896	7	Sololá	702	San José Chacayá	5	Chacayá	2	Febrero	2023-10-02T00:00:00	2024-11-06T17:00:00	8	Radiación solar	234
77897	7	Sololá	702	San José Chacayá	5	Chacayá	2	Febrero	2023-10-02T00:00:00	2024-11-06T18:00:00	2	Temperatura media	13.9
77898	7	Sololá	702	San José Chacayá	5	Chacayá	2	Febrero	2023-10-02T00:00:00	2024-11-06T18:00:00	4	Temperatura máxima	15.2
77899	7	Sololá	702	San José Chacayá	5	Chacayá	2	Febrero	2023-10-02T00:00:00	2024-11-06T18:00:00	3	Temperatura mínima	13.9
77900	7	Sololá	702	San José Chacayá	5	Chacayá	2	Febrero	2023-10-02T00:00:00	2024-11-06T18:00:00	5	Humedad	84
77901	7	Sololá	702	San José Chacayá	5	Chacayá	2	Febrero	2023-10-02T00:00:00	2024-11-06T18:00:00	6	Velocidad del viento	1.6
77902	7	Sololá	702	San José Chacayá	5	Chacayá	2	Febrero	2023-10-02T00:00:00	2024-11-06T18:00:00	7	Dirección del viento	1.61
77903	7	Sololá	702	San José Chacayá	5	Chacayá	2	Febrero	2023-10-02T00:00:00	2024-11-06T18:00:00	1	Precipitación	0
77904	7	Sololá	702	San José Chacayá	5	Chacayá	2	Febrero	2023-10-02T00:00:00	2024-11-06T18:00:00	8	Radiación solar	45
77905	7	Sololá	702	San José Chacayá	5	Chacayá	2	Febrero	2023-10-02T00:00:00	2024-11-06T19:00:00	2	Temperatura media	13.7
77906	7	Sololá	702	San José Chacayá	5	Chacayá	2	Febrero	2023-10-02T00:00:00	2024-11-06T19:00:00	4	Temperatura máxima	13.9
77907	7	Sololá	702	San José Chacayá	5	Chacayá	2	Febrero	2023-10-02T00:00:00	2024-11-06T19:00:00	3	Temperatura mínima	12.8
77908	7	Sololá	702	San José Chacayá	5	Chacayá	2	Febrero	2023-10-02T00:00:00	2024-11-06T19:00:00	5	Humedad	82
77909	7	Sololá	702	San José Chacayá	5	Chacayá	2	Febrero	2023-10-02T00:00:00	2024-11-06T19:00:00	6	Velocidad del viento	1.6
77910	7	Sololá	702	San José Chacayá	5	Chacayá	2	Febrero	2023-10-02T00:00:00	2024-11-06T19:00:00	7	Dirección del viento	1.61
77911	7	Sololá	702	San José Chacayá	5	Chacayá	2	Febrero	2023-10-02T00:00:00	2024-11-06T19:00:00	1	Precipitación	0
77912	7	Sololá	702	San José Chacayá	5	Chacayá	2	Febrero	2023-10-02T00:00:00	2024-11-06T19:00:00	8	Radiación solar	0
77913	7	Sololá	702	San José Chacayá	5	Chacayá	2	Febrero	2023-10-02T00:00:00	2024-11-06T20:00:00	2	Temperatura media	12.3
77914	7	Sololá	702	San José Chacayá	5	Chacayá	2	Febrero	2023-10-02T00:00:00	2024-11-06T20:00:00	4	Temperatura máxima	13.7
77915	7	Sololá	702	San José Chacayá	5	Chacayá	2	Febrero	2023-10-02T00:00:00	2024-11-06T20:00:00	3	Temperatura mínima	12.2
77916	7	Sololá	702	San José Chacayá	5	Chacayá	2	Febrero	2023-10-02T00:00:00	2024-11-06T20:00:00	5	Humedad	82
77917	7	Sololá	702	San José Chacayá	5	Chacayá	2	Febrero	2023-10-02T00:00:00	2024-11-06T20:00:00	6	Velocidad del viento	1.6
77918	7	Sololá	702	San José Chacayá	5	Chacayá	2	Febrero	2023-10-02T00:00:00	2024-11-06T20:00:00	7	Dirección del viento	1.61
77919	7	Sololá	702	San José Chacayá	5	Chacayá	2	Febrero	2023-10-02T00:00:00	2024-11-06T20:00:00	1	Precipitación	0
77920	7	Sololá	702	San José Chacayá	5	Chacayá	2	Febrero	2023-10-02T00:00:00	2024-11-06T20:00:00	8	Radiación solar	0
77921	7	Sololá	702	San José Chacayá	5	Chacayá	2	Febrero	2023-10-02T00:00:00	2024-11-06T21:00:00	2	Temperatura media	10.1
77922	7	Sololá	702	San José Chacayá	5	Chacayá	2	Febrero	2023-10-02T00:00:00	2024-11-06T21:00:00	4	Temperatura máxima	12.3
77923	7	Sololá	702	San José Chacayá	5	Chacayá	2	Febrero	2023-10-02T00:00:00	2024-11-06T21:00:00	3	Temperatura mínima	10.1
77924	7	Sololá	702	San José Chacayá	5	Chacayá	2	Febrero	2023-10-02T00:00:00	2024-11-06T21:00:00	5	Humedad	85
77925	7	Sololá	702	San José Chacayá	5	Chacayá	2	Febrero	2023-10-02T00:00:00	2024-11-06T21:00:00	6	Velocidad del viento	1.6
77926	7	Sololá	702	San José Chacayá	5	Chacayá	2	Febrero	2023-10-02T00:00:00	2024-11-06T21:00:00	7	Dirección del viento	1.61
77927	7	Sololá	702	San José Chacayá	5	Chacayá	2	Febrero	2023-10-02T00:00:00	2024-11-06T21:00:00	1	Precipitación	0
77928	7	Sololá	702	San José Chacayá	5	Chacayá	2	Febrero	2023-10-02T00:00:00	2024-11-06T21:00:00	8	Radiación solar	0
77929	7	Sololá	702	San José Chacayá	5	Chacayá	2	Febrero	2023-10-02T00:00:00	2024-11-06T22:00:00	2	Temperatura media	8.8
77930	7	Sololá	702	San José Chacayá	5	Chacayá	2	Febrero	2023-10-02T00:00:00	2024-11-06T22:00:00	4	Temperatura máxima	10.1
77931	7	Sololá	702	San José Chacayá	5	Chacayá	2	Febrero	2023-10-02T00:00:00	2024-11-06T22:00:00	3	Temperatura mínima	8.8
77932	7	Sololá	702	San José Chacayá	5	Chacayá	2	Febrero	2023-10-02T00:00:00	2024-11-06T22:00:00	5	Humedad	86
77933	7	Sololá	702	San José Chacayá	5	Chacayá	2	Febrero	2023-10-02T00:00:00	2024-11-06T22:00:00	6	Velocidad del viento	1.6
77934	7	Sololá	702	San José Chacayá	5	Chacayá	2	Febrero	2023-10-02T00:00:00	2024-11-06T22:00:00	7	Dirección del viento	1.61
77935	7	Sololá	702	San José Chacayá	5	Chacayá	2	Febrero	2023-10-02T00:00:00	2024-11-06T22:00:00	1	Precipitación	0
77936	7	Sololá	702	San José Chacayá	5	Chacayá	2	Febrero	2023-10-02T00:00:00	2024-11-06T22:00:00	8	Radiación solar	0
77937	7	Sololá	702	San José Chacayá	5	Chacayá	2	Febrero	2023-10-02T00:00:00	2024-11-06T23:00:00	2	Temperatura media	7.9
77938	7	Sololá	702	San José Chacayá	5	Chacayá	2	Febrero	2023-10-02T00:00:00	2024-11-06T23:00:00	4	Temperatura máxima	8.8
77939	7	Sololá	702	San José Chacayá	5	Chacayá	2	Febrero	2023-10-02T00:00:00	2024-11-06T23:00:00	3	Temperatura mínima	7.9
77940	7	Sololá	702	San José Chacayá	5	Chacayá	2	Febrero	2023-10-02T00:00:00	2024-11-06T23:00:00	5	Humedad	87
77941	7	Sololá	702	San José Chacayá	5	Chacayá	2	Febrero	2023-10-02T00:00:00	2024-11-06T23:00:00	6	Velocidad del viento	1.6
77942	7	Sololá	702	San José Chacayá	5	Chacayá	2	Febrero	2023-10-02T00:00:00	2024-11-06T23:00:00	7	Dirección del viento	1.61
77943	7	Sololá	702	San José Chacayá	5	Chacayá	2	Febrero	2023-10-02T00:00:00	2024-11-06T23:00:00	1	Precipitación	0
77944	7	Sololá	702	San José Chacayá	5	Chacayá	2	Febrero	2023-10-02T00:00:00	2024-11-06T23:00:00	8	Radiación solar	0
77945	7	Sololá	702	San José Chacayá	5	Chacayá	2	Febrero	2023-11-02T00:00:00	2024-11-06T00:00:00	2	Temperatura media	9.1
77946	7	Sololá	702	San José Chacayá	5	Chacayá	2	Febrero	2023-11-02T00:00:00	2024-11-06T00:00:00	4	Temperatura máxima	9.2
77947	7	Sololá	702	San José Chacayá	5	Chacayá	2	Febrero	2023-11-02T00:00:00	2024-11-06T00:00:00	3	Temperatura mínima	7.9
77948	7	Sololá	702	San José Chacayá	5	Chacayá	2	Febrero	2023-11-02T00:00:00	2024-11-06T00:00:00	5	Humedad	82
77949	7	Sololá	702	San José Chacayá	5	Chacayá	2	Febrero	2023-11-02T00:00:00	2024-11-06T00:00:00	6	Velocidad del viento	1.6
77950	7	Sololá	702	San José Chacayá	5	Chacayá	2	Febrero	2023-11-02T00:00:00	2024-11-06T00:00:00	7	Dirección del viento	1.61
77951	7	Sololá	702	San José Chacayá	5	Chacayá	2	Febrero	2023-11-02T00:00:00	2024-11-06T00:00:00	1	Precipitación	0
77952	7	Sololá	702	San José Chacayá	5	Chacayá	2	Febrero	2023-11-02T00:00:00	2024-11-06T00:00:00	8	Radiación solar	0
77953	7	Sololá	702	San José Chacayá	5	Chacayá	2	Febrero	2023-11-02T00:00:00	2024-11-06T01:00:00	2	Temperatura media	8.1
77954	7	Sololá	702	San José Chacayá	5	Chacayá	2	Febrero	2023-11-02T00:00:00	2024-11-06T01:00:00	4	Temperatura máxima	9.4
77955	7	Sololá	702	San José Chacayá	5	Chacayá	2	Febrero	2023-11-02T00:00:00	2024-11-06T01:00:00	3	Temperatura mínima	8.1
77956	7	Sololá	702	San José Chacayá	5	Chacayá	2	Febrero	2023-11-02T00:00:00	2024-11-06T01:00:00	5	Humedad	83
77957	7	Sololá	702	San José Chacayá	5	Chacayá	2	Febrero	2023-11-02T00:00:00	2024-11-06T01:00:00	6	Velocidad del viento	1.6
77958	7	Sololá	702	San José Chacayá	5	Chacayá	2	Febrero	2023-11-02T00:00:00	2024-11-06T01:00:00	7	Dirección del viento	1.61
77959	7	Sololá	702	San José Chacayá	5	Chacayá	2	Febrero	2023-11-02T00:00:00	2024-11-06T01:00:00	1	Precipitación	0
77960	7	Sololá	702	San José Chacayá	5	Chacayá	2	Febrero	2023-11-02T00:00:00	2024-11-06T01:00:00	8	Radiación solar	0
77961	7	Sololá	702	San José Chacayá	5	Chacayá	2	Febrero	2023-11-02T00:00:00	2024-11-06T02:00:00	2	Temperatura media	7.2
77962	7	Sololá	702	San José Chacayá	5	Chacayá	2	Febrero	2023-11-02T00:00:00	2024-11-06T02:00:00	4	Temperatura máxima	8.1
77963	7	Sololá	702	San José Chacayá	5	Chacayá	2	Febrero	2023-11-02T00:00:00	2024-11-06T02:00:00	3	Temperatura mínima	7.2
77964	7	Sololá	702	San José Chacayá	5	Chacayá	2	Febrero	2023-11-02T00:00:00	2024-11-06T02:00:00	5	Humedad	85
77965	7	Sololá	702	San José Chacayá	5	Chacayá	2	Febrero	2023-11-02T00:00:00	2024-11-06T02:00:00	6	Velocidad del viento	1.6
77966	7	Sololá	702	San José Chacayá	5	Chacayá	2	Febrero	2023-11-02T00:00:00	2024-11-06T02:00:00	7	Dirección del viento	1.61
77967	7	Sololá	702	San José Chacayá	5	Chacayá	2	Febrero	2023-11-02T00:00:00	2024-11-06T02:00:00	1	Precipitación	0
77968	7	Sololá	702	San José Chacayá	5	Chacayá	2	Febrero	2023-11-02T00:00:00	2024-11-06T02:00:00	8	Radiación solar	0
77969	7	Sololá	702	San José Chacayá	5	Chacayá	2	Febrero	2023-11-02T00:00:00	2024-11-06T03:00:00	2	Temperatura media	8.2
77970	7	Sololá	702	San José Chacayá	5	Chacayá	2	Febrero	2023-11-02T00:00:00	2024-11-06T03:00:00	4	Temperatura máxima	8.5
77971	7	Sololá	702	San José Chacayá	5	Chacayá	2	Febrero	2023-11-02T00:00:00	2024-11-06T03:00:00	3	Temperatura mínima	7.1
77972	7	Sololá	702	San José Chacayá	5	Chacayá	2	Febrero	2023-11-02T00:00:00	2024-11-06T03:00:00	5	Humedad	72
77973	7	Sololá	702	San José Chacayá	5	Chacayá	2	Febrero	2023-11-02T00:00:00	2024-11-06T03:00:00	6	Velocidad del viento	1.6
77974	7	Sololá	702	San José Chacayá	5	Chacayá	2	Febrero	2023-11-02T00:00:00	2024-11-06T03:00:00	7	Dirección del viento	1.61
77975	7	Sololá	702	San José Chacayá	5	Chacayá	2	Febrero	2023-11-02T00:00:00	2024-11-06T03:00:00	1	Precipitación	0
77976	7	Sololá	702	San José Chacayá	5	Chacayá	2	Febrero	2023-11-02T00:00:00	2024-11-06T03:00:00	8	Radiación solar	0
77977	7	Sololá	702	San José Chacayá	5	Chacayá	2	Febrero	2023-11-02T00:00:00	2024-11-06T04:00:00	2	Temperatura media	10.1
77978	7	Sololá	702	San José Chacayá	5	Chacayá	2	Febrero	2023-11-02T00:00:00	2024-11-06T04:00:00	4	Temperatura máxima	10.1
77979	7	Sololá	702	San José Chacayá	5	Chacayá	2	Febrero	2023-11-02T00:00:00	2024-11-06T04:00:00	3	Temperatura mínima	8.2
77980	7	Sololá	702	San José Chacayá	5	Chacayá	2	Febrero	2023-11-02T00:00:00	2024-11-06T04:00:00	5	Humedad	58
77981	7	Sololá	702	San José Chacayá	5	Chacayá	2	Febrero	2023-11-02T00:00:00	2024-11-06T04:00:00	6	Velocidad del viento	1.6
77982	7	Sololá	702	San José Chacayá	5	Chacayá	2	Febrero	2023-11-02T00:00:00	2024-11-06T04:00:00	7	Dirección del viento	1.61
77983	7	Sololá	702	San José Chacayá	5	Chacayá	2	Febrero	2023-11-02T00:00:00	2024-11-06T04:00:00	1	Precipitación	0
77984	7	Sololá	702	San José Chacayá	5	Chacayá	2	Febrero	2023-11-02T00:00:00	2024-11-06T04:00:00	8	Radiación solar	0
77985	7	Sololá	702	San José Chacayá	5	Chacayá	2	Febrero	2023-11-02T00:00:00	2024-11-06T05:00:00	2	Temperatura media	11.1
77986	7	Sololá	702	San José Chacayá	5	Chacayá	2	Febrero	2023-11-02T00:00:00	2024-11-06T05:00:00	4	Temperatura máxima	11.1
77987	7	Sololá	702	San José Chacayá	5	Chacayá	2	Febrero	2023-11-02T00:00:00	2024-11-06T05:00:00	3	Temperatura mínima	9.6
77988	7	Sololá	702	San José Chacayá	5	Chacayá	2	Febrero	2023-11-02T00:00:00	2024-11-06T05:00:00	5	Humedad	57
77989	7	Sololá	702	San José Chacayá	5	Chacayá	2	Febrero	2023-11-02T00:00:00	2024-11-06T05:00:00	6	Velocidad del viento	1.6
77990	7	Sololá	702	San José Chacayá	5	Chacayá	2	Febrero	2023-11-02T00:00:00	2024-11-06T05:00:00	7	Dirección del viento	1.61
77991	7	Sololá	702	San José Chacayá	5	Chacayá	2	Febrero	2023-11-02T00:00:00	2024-11-06T05:00:00	1	Precipitación	0
77992	7	Sololá	702	San José Chacayá	5	Chacayá	2	Febrero	2023-11-02T00:00:00	2024-11-06T05:00:00	8	Radiación solar	0
77993	7	Sololá	702	San José Chacayá	5	Chacayá	2	Febrero	2023-11-02T00:00:00	2024-11-06T06:00:00	2	Temperatura media	13.3
77994	7	Sololá	702	San José Chacayá	5	Chacayá	2	Febrero	2023-11-02T00:00:00	2024-11-06T06:00:00	4	Temperatura máxima	13.3
77995	7	Sololá	702	San José Chacayá	5	Chacayá	2	Febrero	2023-11-02T00:00:00	2024-11-06T06:00:00	3	Temperatura mínima	9.3
77996	7	Sololá	702	San José Chacayá	5	Chacayá	2	Febrero	2023-11-02T00:00:00	2024-11-06T06:00:00	5	Humedad	50
77997	7	Sololá	702	San José Chacayá	5	Chacayá	2	Febrero	2023-11-02T00:00:00	2024-11-06T06:00:00	6	Velocidad del viento	3.2
77998	7	Sololá	702	San José Chacayá	5	Chacayá	2	Febrero	2023-11-02T00:00:00	2024-11-06T06:00:00	7	Dirección del viento	3.22
77999	7	Sololá	702	San José Chacayá	5	Chacayá	2	Febrero	2023-11-02T00:00:00	2024-11-06T06:00:00	1	Precipitación	0
78000	7	Sololá	702	San José Chacayá	5	Chacayá	2	Febrero	2023-11-02T00:00:00	2024-11-06T06:00:00	8	Radiación solar	0
78001	7	Sololá	702	San José Chacayá	5	Chacayá	2	Febrero	2023-11-02T00:00:00	2024-11-06T07:00:00	2	Temperatura media	16.1
78002	7	Sololá	702	San José Chacayá	5	Chacayá	2	Febrero	2023-11-02T00:00:00	2024-11-06T07:00:00	4	Temperatura máxima	16.1
78003	7	Sololá	702	San José Chacayá	5	Chacayá	2	Febrero	2023-11-02T00:00:00	2024-11-06T07:00:00	3	Temperatura mínima	13.3
78004	7	Sololá	702	San José Chacayá	5	Chacayá	2	Febrero	2023-11-02T00:00:00	2024-11-06T07:00:00	5	Humedad	34
78005	7	Sololá	702	San José Chacayá	5	Chacayá	2	Febrero	2023-11-02T00:00:00	2024-11-06T07:00:00	6	Velocidad del viento	6.4
78006	7	Sololá	702	San José Chacayá	5	Chacayá	2	Febrero	2023-11-02T00:00:00	2024-11-06T07:00:00	7	Dirección del viento	6.44
78007	7	Sololá	702	San José Chacayá	5	Chacayá	2	Febrero	2023-11-02T00:00:00	2024-11-06T07:00:00	1	Precipitación	0
78008	7	Sololá	702	San José Chacayá	5	Chacayá	2	Febrero	2023-11-02T00:00:00	2024-11-06T07:00:00	8	Radiación solar	7
78009	7	Sololá	702	San José Chacayá	5	Chacayá	2	Febrero	2023-11-02T00:00:00	2024-11-06T08:00:00	2	Temperatura media	18.2
78010	7	Sololá	702	San José Chacayá	5	Chacayá	2	Febrero	2023-11-02T00:00:00	2024-11-06T08:00:00	4	Temperatura máxima	18.2
78011	7	Sololá	702	San José Chacayá	5	Chacayá	2	Febrero	2023-11-02T00:00:00	2024-11-06T08:00:00	3	Temperatura mínima	16.1
78012	7	Sololá	702	San José Chacayá	5	Chacayá	2	Febrero	2023-11-02T00:00:00	2024-11-06T08:00:00	5	Humedad	29
78013	7	Sololá	702	San José Chacayá	5	Chacayá	2	Febrero	2023-11-02T00:00:00	2024-11-06T08:00:00	6	Velocidad del viento	8
78014	7	Sololá	702	San José Chacayá	5	Chacayá	2	Febrero	2023-11-02T00:00:00	2024-11-06T08:00:00	7	Dirección del viento	8.05
78015	7	Sololá	702	San José Chacayá	5	Chacayá	2	Febrero	2023-11-02T00:00:00	2024-11-06T08:00:00	1	Precipitación	0
78016	7	Sololá	702	San José Chacayá	5	Chacayá	2	Febrero	2023-11-02T00:00:00	2024-11-06T08:00:00	8	Radiación solar	178
78017	7	Sololá	702	San José Chacayá	5	Chacayá	2	Febrero	2023-11-02T00:00:00	2024-11-06T09:00:00	2	Temperatura media	19.5
78018	7	Sololá	702	San José Chacayá	5	Chacayá	2	Febrero	2023-11-02T00:00:00	2024-11-06T09:00:00	4	Temperatura máxima	19.9
78019	7	Sololá	702	San José Chacayá	5	Chacayá	2	Febrero	2023-11-02T00:00:00	2024-11-06T09:00:00	3	Temperatura mínima	18.2
78020	7	Sololá	702	San José Chacayá	5	Chacayá	2	Febrero	2023-11-02T00:00:00	2024-11-06T09:00:00	5	Humedad	34
78021	7	Sololá	702	San José Chacayá	5	Chacayá	2	Febrero	2023-11-02T00:00:00	2024-11-06T09:00:00	6	Velocidad del viento	6.4
78022	7	Sololá	702	San José Chacayá	5	Chacayá	2	Febrero	2023-11-02T00:00:00	2024-11-06T09:00:00	7	Dirección del viento	6.44
78023	7	Sololá	702	San José Chacayá	5	Chacayá	2	Febrero	2023-11-02T00:00:00	2024-11-06T09:00:00	1	Precipitación	0
78024	7	Sololá	702	San José Chacayá	5	Chacayá	2	Febrero	2023-11-02T00:00:00	2024-11-06T09:00:00	8	Radiación solar	451
78025	7	Sololá	702	San José Chacayá	5	Chacayá	2	Febrero	2023-11-02T00:00:00	2024-11-06T10:00:00	2	Temperatura media	19.6
78026	7	Sololá	702	San José Chacayá	5	Chacayá	2	Febrero	2023-11-02T00:00:00	2024-11-06T10:00:00	4	Temperatura máxima	20.4
78027	7	Sololá	702	San José Chacayá	5	Chacayá	2	Febrero	2023-11-02T00:00:00	2024-11-06T10:00:00	3	Temperatura mínima	18.9
78028	7	Sololá	702	San José Chacayá	5	Chacayá	2	Febrero	2023-11-02T00:00:00	2024-11-06T10:00:00	5	Humedad	38
78029	7	Sololá	702	San José Chacayá	5	Chacayá	2	Febrero	2023-11-02T00:00:00	2024-11-06T10:00:00	6	Velocidad del viento	8
78030	7	Sololá	702	San José Chacayá	5	Chacayá	2	Febrero	2023-11-02T00:00:00	2024-11-06T10:00:00	7	Dirección del viento	8.05
78031	7	Sololá	702	San José Chacayá	5	Chacayá	2	Febrero	2023-11-02T00:00:00	2024-11-06T10:00:00	1	Precipitación	0
78032	7	Sololá	702	San José Chacayá	5	Chacayá	2	Febrero	2023-11-02T00:00:00	2024-11-06T10:00:00	8	Radiación solar	508
78033	7	Sololá	702	San José Chacayá	5	Chacayá	2	Febrero	2023-11-02T00:00:00	2024-11-06T11:00:00	2	Temperatura media	20.4
78034	7	Sololá	702	San José Chacayá	5	Chacayá	2	Febrero	2023-11-02T00:00:00	2024-11-06T11:00:00	4	Temperatura máxima	21.3
78035	7	Sololá	702	San José Chacayá	5	Chacayá	2	Febrero	2023-11-02T00:00:00	2024-11-06T11:00:00	3	Temperatura mínima	18.9
78036	7	Sololá	702	San José Chacayá	5	Chacayá	2	Febrero	2023-11-02T00:00:00	2024-11-06T11:00:00	5	Humedad	42
78037	7	Sololá	702	San José Chacayá	5	Chacayá	2	Febrero	2023-11-02T00:00:00	2024-11-06T11:00:00	6	Velocidad del viento	8
78038	7	Sololá	702	San José Chacayá	5	Chacayá	2	Febrero	2023-11-02T00:00:00	2024-11-06T11:00:00	7	Dirección del viento	8.05
78039	7	Sololá	702	San José Chacayá	5	Chacayá	2	Febrero	2023-11-02T00:00:00	2024-11-06T11:00:00	1	Precipitación	0
78040	7	Sololá	702	San José Chacayá	5	Chacayá	2	Febrero	2023-11-02T00:00:00	2024-11-06T11:00:00	8	Radiación solar	53
78041	7	Sololá	702	San José Chacayá	5	Chacayá	2	Febrero	2023-11-02T00:00:00	2024-11-06T12:00:00	2	Temperatura media	22
78042	7	Sololá	702	San José Chacayá	5	Chacayá	2	Febrero	2023-11-02T00:00:00	2024-11-06T12:00:00	4	Temperatura máxima	22.3
78043	7	Sololá	702	San José Chacayá	5	Chacayá	2	Febrero	2023-11-02T00:00:00	2024-11-06T12:00:00	3	Temperatura mínima	20.4
78044	7	Sololá	702	San José Chacayá	5	Chacayá	2	Febrero	2023-11-02T00:00:00	2024-11-06T12:00:00	5	Humedad	38
78045	7	Sololá	702	San José Chacayá	5	Chacayá	2	Febrero	2023-11-02T00:00:00	2024-11-06T12:00:00	6	Velocidad del viento	6.4
78046	7	Sololá	702	San José Chacayá	5	Chacayá	2	Febrero	2023-11-02T00:00:00	2024-11-06T12:00:00	7	Dirección del viento	6.44
78047	7	Sololá	702	San José Chacayá	5	Chacayá	2	Febrero	2023-11-02T00:00:00	2024-11-06T12:00:00	1	Precipitación	0
78048	7	Sololá	702	San José Chacayá	5	Chacayá	2	Febrero	2023-11-02T00:00:00	2024-11-06T12:00:00	8	Radiación solar	486
78049	7	Sololá	702	San José Chacayá	5	Chacayá	2	Febrero	2023-11-02T00:00:00	2024-11-06T13:00:00	2	Temperatura media	21.3
78050	7	Sololá	702	San José Chacayá	5	Chacayá	2	Febrero	2023-11-02T00:00:00	2024-11-06T13:00:00	4	Temperatura máxima	21.9
78051	7	Sololá	702	San José Chacayá	5	Chacayá	2	Febrero	2023-11-02T00:00:00	2024-11-06T13:00:00	3	Temperatura mínima	21.1
78052	7	Sololá	702	San José Chacayá	5	Chacayá	2	Febrero	2023-11-02T00:00:00	2024-11-06T13:00:00	5	Humedad	38
78053	7	Sololá	702	San José Chacayá	5	Chacayá	2	Febrero	2023-11-02T00:00:00	2024-11-06T13:00:00	6	Velocidad del viento	8
78054	7	Sololá	702	San José Chacayá	5	Chacayá	2	Febrero	2023-11-02T00:00:00	2024-11-06T13:00:00	7	Dirección del viento	8.05
78055	7	Sololá	702	San José Chacayá	5	Chacayá	2	Febrero	2023-11-02T00:00:00	2024-11-06T13:00:00	1	Precipitación	0
78056	7	Sololá	702	San José Chacayá	5	Chacayá	2	Febrero	2023-11-02T00:00:00	2024-11-06T13:00:00	8	Radiación solar	889
78057	7	Sololá	702	San José Chacayá	5	Chacayá	2	Febrero	2023-11-02T00:00:00	2024-11-06T14:00:00	2	Temperatura media	20.6
78058	7	Sololá	702	San José Chacayá	5	Chacayá	2	Febrero	2023-11-02T00:00:00	2024-11-06T14:00:00	4	Temperatura máxima	21.3
78059	7	Sololá	702	San José Chacayá	5	Chacayá	2	Febrero	2023-11-02T00:00:00	2024-11-06T14:00:00	3	Temperatura mínima	19.9
78060	7	Sololá	702	San José Chacayá	5	Chacayá	2	Febrero	2023-11-02T00:00:00	2024-11-06T14:00:00	5	Humedad	43
78061	7	Sololá	702	San José Chacayá	5	Chacayá	2	Febrero	2023-11-02T00:00:00	2024-11-06T14:00:00	6	Velocidad del viento	8
78062	7	Sololá	702	San José Chacayá	5	Chacayá	2	Febrero	2023-11-02T00:00:00	2024-11-06T14:00:00	7	Dirección del viento	8.05
78063	7	Sololá	702	San José Chacayá	5	Chacayá	2	Febrero	2023-11-02T00:00:00	2024-11-06T14:00:00	1	Precipitación	0
78064	7	Sololá	702	San José Chacayá	5	Chacayá	2	Febrero	2023-11-02T00:00:00	2024-11-06T14:00:00	8	Radiación solar	825
78065	7	Sololá	702	San José Chacayá	5	Chacayá	2	Febrero	2023-11-02T00:00:00	2024-11-06T15:00:00	2	Temperatura media	18.9
78066	7	Sololá	702	San José Chacayá	5	Chacayá	2	Febrero	2023-11-02T00:00:00	2024-11-06T15:00:00	4	Temperatura máxima	20.7
78067	7	Sololá	702	San José Chacayá	5	Chacayá	2	Febrero	2023-11-02T00:00:00	2024-11-06T15:00:00	3	Temperatura mínima	18.8
78068	7	Sololá	702	San José Chacayá	5	Chacayá	2	Febrero	2023-11-02T00:00:00	2024-11-06T15:00:00	5	Humedad	47
78069	7	Sololá	702	San José Chacayá	5	Chacayá	2	Febrero	2023-11-02T00:00:00	2024-11-06T15:00:00	6	Velocidad del viento	8
78070	7	Sololá	702	San José Chacayá	5	Chacayá	2	Febrero	2023-11-02T00:00:00	2024-11-06T15:00:00	7	Dirección del viento	8.05
78071	7	Sololá	702	San José Chacayá	5	Chacayá	2	Febrero	2023-11-02T00:00:00	2024-11-06T15:00:00	1	Precipitación	0
78072	7	Sololá	702	San José Chacayá	5	Chacayá	2	Febrero	2023-11-02T00:00:00	2024-11-06T15:00:00	8	Radiación solar	700
78073	7	Sololá	702	San José Chacayá	5	Chacayá	2	Febrero	2023-11-02T00:00:00	2024-11-06T16:00:00	2	Temperatura media	17.1
78074	7	Sololá	702	San José Chacayá	5	Chacayá	2	Febrero	2023-11-02T00:00:00	2024-11-06T16:00:00	4	Temperatura máxima	19
78075	7	Sololá	702	San José Chacayá	5	Chacayá	2	Febrero	2023-11-02T00:00:00	2024-11-06T16:00:00	3	Temperatura mínima	17.1
78076	7	Sololá	702	San José Chacayá	5	Chacayá	2	Febrero	2023-11-02T00:00:00	2024-11-06T16:00:00	5	Humedad	56
78077	7	Sololá	702	San José Chacayá	5	Chacayá	2	Febrero	2023-11-02T00:00:00	2024-11-06T16:00:00	6	Velocidad del viento	6.4
78078	7	Sololá	702	San José Chacayá	5	Chacayá	2	Febrero	2023-11-02T00:00:00	2024-11-06T16:00:00	7	Dirección del viento	6.44
78079	7	Sololá	702	San José Chacayá	5	Chacayá	2	Febrero	2023-11-02T00:00:00	2024-11-06T16:00:00	1	Precipitación	0
78080	7	Sololá	702	San José Chacayá	5	Chacayá	2	Febrero	2023-11-02T00:00:00	2024-11-06T16:00:00	8	Radiación solar	504
78081	7	Sololá	702	San José Chacayá	5	Chacayá	2	Febrero	2023-11-02T00:00:00	2024-11-06T17:00:00	2	Temperatura media	14.9
78082	7	Sololá	702	San José Chacayá	5	Chacayá	2	Febrero	2023-11-02T00:00:00	2024-11-06T17:00:00	4	Temperatura máxima	17
78083	7	Sololá	702	San José Chacayá	5	Chacayá	2	Febrero	2023-11-02T00:00:00	2024-11-06T17:00:00	3	Temperatura mínima	14.9
78084	7	Sololá	702	San José Chacayá	5	Chacayá	2	Febrero	2023-11-02T00:00:00	2024-11-06T17:00:00	5	Humedad	64
78085	7	Sololá	702	San José Chacayá	5	Chacayá	2	Febrero	2023-11-02T00:00:00	2024-11-06T17:00:00	6	Velocidad del viento	4.8
78086	7	Sololá	702	San José Chacayá	5	Chacayá	2	Febrero	2023-11-02T00:00:00	2024-11-06T17:00:00	7	Dirección del viento	4.83
78087	7	Sololá	702	San José Chacayá	5	Chacayá	2	Febrero	2023-11-02T00:00:00	2024-11-06T17:00:00	1	Precipitación	0
78088	7	Sololá	702	San José Chacayá	5	Chacayá	2	Febrero	2023-11-02T00:00:00	2024-11-06T17:00:00	8	Radiación solar	150
78089	7	Sololá	702	San José Chacayá	5	Chacayá	2	Febrero	2023-11-02T00:00:00	2024-11-06T18:00:00	2	Temperatura media	14.2
78090	7	Sololá	702	San José Chacayá	5	Chacayá	2	Febrero	2023-11-02T00:00:00	2024-11-06T18:00:00	4	Temperatura máxima	14.9
78091	7	Sololá	702	San José Chacayá	5	Chacayá	2	Febrero	2023-11-02T00:00:00	2024-11-06T18:00:00	3	Temperatura mínima	14.1
78092	7	Sololá	702	San José Chacayá	5	Chacayá	2	Febrero	2023-11-02T00:00:00	2024-11-06T18:00:00	5	Humedad	71
78093	7	Sololá	702	San José Chacayá	5	Chacayá	2	Febrero	2023-11-02T00:00:00	2024-11-06T18:00:00	6	Velocidad del viento	3.2
78094	7	Sololá	702	San José Chacayá	5	Chacayá	2	Febrero	2023-11-02T00:00:00	2024-11-06T18:00:00	7	Dirección del viento	3.22
78095	7	Sololá	702	San José Chacayá	5	Chacayá	2	Febrero	2023-11-02T00:00:00	2024-11-06T18:00:00	1	Precipitación	0
78096	7	Sololá	702	San José Chacayá	5	Chacayá	2	Febrero	2023-11-02T00:00:00	2024-11-06T18:00:00	8	Radiación solar	23
78097	7	Sololá	702	San José Chacayá	5	Chacayá	2	Febrero	2023-11-02T00:00:00	2024-11-06T19:00:00	2	Temperatura media	13.9
78098	7	Sololá	702	San José Chacayá	5	Chacayá	2	Febrero	2023-11-02T00:00:00	2024-11-06T19:00:00	4	Temperatura máxima	14.2
78099	7	Sololá	702	San José Chacayá	5	Chacayá	2	Febrero	2023-11-02T00:00:00	2024-11-06T19:00:00	3	Temperatura mínima	13.9
78100	7	Sololá	702	San José Chacayá	5	Chacayá	2	Febrero	2023-11-02T00:00:00	2024-11-06T19:00:00	5	Humedad	76
78101	7	Sololá	702	San José Chacayá	5	Chacayá	2	Febrero	2023-11-02T00:00:00	2024-11-06T19:00:00	6	Velocidad del viento	4.8
78102	7	Sololá	702	San José Chacayá	5	Chacayá	2	Febrero	2023-11-02T00:00:00	2024-11-06T19:00:00	7	Dirección del viento	4.83
78103	7	Sololá	702	San José Chacayá	5	Chacayá	2	Febrero	2023-11-02T00:00:00	2024-11-06T19:00:00	1	Precipitación	0
78104	7	Sololá	702	San José Chacayá	5	Chacayá	2	Febrero	2023-11-02T00:00:00	2024-11-06T19:00:00	8	Radiación solar	0
78105	7	Sololá	702	San José Chacayá	5	Chacayá	2	Febrero	2023-11-02T00:00:00	2024-11-06T20:00:00	2	Temperatura media	13.4
78106	7	Sololá	702	San José Chacayá	5	Chacayá	2	Febrero	2023-11-02T00:00:00	2024-11-06T20:00:00	4	Temperatura máxima	14.1
78107	7	Sololá	702	San José Chacayá	5	Chacayá	2	Febrero	2023-11-02T00:00:00	2024-11-06T20:00:00	3	Temperatura mínima	13.4
78108	7	Sololá	702	San José Chacayá	5	Chacayá	2	Febrero	2023-11-02T00:00:00	2024-11-06T20:00:00	5	Humedad	82
78109	7	Sololá	702	San José Chacayá	5	Chacayá	2	Febrero	2023-11-02T00:00:00	2024-11-06T20:00:00	6	Velocidad del viento	4.8
78110	7	Sololá	702	San José Chacayá	5	Chacayá	2	Febrero	2023-11-02T00:00:00	2024-11-06T20:00:00	7	Dirección del viento	4.83
78111	7	Sololá	702	San José Chacayá	5	Chacayá	2	Febrero	2023-11-02T00:00:00	2024-11-06T20:00:00	1	Precipitación	0
78112	7	Sololá	702	San José Chacayá	5	Chacayá	2	Febrero	2023-11-02T00:00:00	2024-11-06T20:00:00	8	Radiación solar	0
78113	7	Sololá	702	San José Chacayá	5	Chacayá	2	Febrero	2023-11-02T00:00:00	2024-11-06T21:00:00	2	Temperatura media	13.8
78114	7	Sololá	702	San José Chacayá	5	Chacayá	2	Febrero	2023-11-02T00:00:00	2024-11-06T21:00:00	4	Temperatura máxima	13.8
78115	7	Sololá	702	San José Chacayá	5	Chacayá	2	Febrero	2023-11-02T00:00:00	2024-11-06T21:00:00	3	Temperatura mínima	13.4
78116	7	Sololá	702	San José Chacayá	5	Chacayá	2	Febrero	2023-11-02T00:00:00	2024-11-06T21:00:00	5	Humedad	78
78117	7	Sololá	702	San José Chacayá	5	Chacayá	2	Febrero	2023-11-02T00:00:00	2024-11-06T21:00:00	6	Velocidad del viento	6.4
78118	7	Sololá	702	San José Chacayá	5	Chacayá	2	Febrero	2023-11-02T00:00:00	2024-11-06T21:00:00	7	Dirección del viento	6.44
78119	7	Sololá	702	San José Chacayá	5	Chacayá	2	Febrero	2023-11-02T00:00:00	2024-11-06T21:00:00	1	Precipitación	0
78120	7	Sololá	702	San José Chacayá	5	Chacayá	2	Febrero	2023-11-02T00:00:00	2024-11-06T21:00:00	8	Radiación solar	0
78121	7	Sololá	702	San José Chacayá	5	Chacayá	2	Febrero	2023-11-02T00:00:00	2024-11-06T22:00:00	2	Temperatura media	13.6
78122	7	Sololá	702	San José Chacayá	5	Chacayá	2	Febrero	2023-11-02T00:00:00	2024-11-06T22:00:00	4	Temperatura máxima	13.8
78123	7	Sololá	702	San José Chacayá	5	Chacayá	2	Febrero	2023-11-02T00:00:00	2024-11-06T22:00:00	3	Temperatura mínima	13.6
78124	7	Sololá	702	San José Chacayá	5	Chacayá	2	Febrero	2023-11-02T00:00:00	2024-11-06T22:00:00	5	Humedad	78
78125	7	Sololá	702	San José Chacayá	5	Chacayá	2	Febrero	2023-11-02T00:00:00	2024-11-06T22:00:00	6	Velocidad del viento	4.8
78126	7	Sololá	702	San José Chacayá	5	Chacayá	2	Febrero	2023-11-02T00:00:00	2024-11-06T22:00:00	7	Dirección del viento	4.83
78127	7	Sololá	702	San José Chacayá	5	Chacayá	2	Febrero	2023-11-02T00:00:00	2024-11-06T22:00:00	1	Precipitación	0
78128	7	Sololá	702	San José Chacayá	5	Chacayá	2	Febrero	2023-11-02T00:00:00	2024-11-06T22:00:00	8	Radiación solar	0
78129	7	Sololá	702	San José Chacayá	5	Chacayá	2	Febrero	2023-11-02T00:00:00	2024-11-06T23:00:00	2	Temperatura media	13.3
78130	7	Sololá	702	San José Chacayá	5	Chacayá	2	Febrero	2023-11-02T00:00:00	2024-11-06T23:00:00	4	Temperatura máxima	13.6
78131	7	Sololá	702	San José Chacayá	5	Chacayá	2	Febrero	2023-11-02T00:00:00	2024-11-06T23:00:00	3	Temperatura mínima	13.2
78132	7	Sololá	702	San José Chacayá	5	Chacayá	2	Febrero	2023-11-02T00:00:00	2024-11-06T23:00:00	5	Humedad	78
78133	7	Sololá	702	San José Chacayá	5	Chacayá	2	Febrero	2023-11-02T00:00:00	2024-11-06T23:00:00	6	Velocidad del viento	4.8
78134	7	Sololá	702	San José Chacayá	5	Chacayá	2	Febrero	2023-11-02T00:00:00	2024-11-06T23:00:00	7	Dirección del viento	4.83
78135	7	Sololá	702	San José Chacayá	5	Chacayá	2	Febrero	2023-11-02T00:00:00	2024-11-06T23:00:00	1	Precipitación	0
78136	7	Sololá	702	San José Chacayá	5	Chacayá	2	Febrero	2023-11-02T00:00:00	2024-11-06T23:00:00	8	Radiación solar	0
78137	7	Sololá	702	San José Chacayá	5	Chacayá	2	Febrero	2023-12-02T00:00:00	2024-11-06T00:00:00	2	Temperatura media	12.8
78138	7	Sololá	702	San José Chacayá	5	Chacayá	2	Febrero	2023-12-02T00:00:00	2024-11-06T00:00:00	4	Temperatura máxima	13.3
78139	7	Sololá	702	San José Chacayá	5	Chacayá	2	Febrero	2023-12-02T00:00:00	2024-11-06T00:00:00	3	Temperatura mínima	12.8
78140	7	Sololá	702	San José Chacayá	5	Chacayá	2	Febrero	2023-12-02T00:00:00	2024-11-06T00:00:00	5	Humedad	79
78141	7	Sololá	702	San José Chacayá	5	Chacayá	2	Febrero	2023-12-02T00:00:00	2024-11-06T00:00:00	6	Velocidad del viento	3.2
78142	7	Sololá	702	San José Chacayá	5	Chacayá	2	Febrero	2023-12-02T00:00:00	2024-11-06T00:00:00	7	Dirección del viento	3.22
78143	7	Sololá	702	San José Chacayá	5	Chacayá	2	Febrero	2023-12-02T00:00:00	2024-11-06T00:00:00	1	Precipitación	0
78144	7	Sololá	702	San José Chacayá	5	Chacayá	2	Febrero	2023-12-02T00:00:00	2024-11-06T00:00:00	8	Radiación solar	0
78145	7	Sololá	702	San José Chacayá	5	Chacayá	2	Febrero	2023-12-02T00:00:00	2024-11-06T01:00:00	2	Temperatura media	11.6
78146	7	Sololá	702	San José Chacayá	5	Chacayá	2	Febrero	2023-12-02T00:00:00	2024-11-06T01:00:00	4	Temperatura máxima	12.8
78147	7	Sololá	702	San José Chacayá	5	Chacayá	2	Febrero	2023-12-02T00:00:00	2024-11-06T01:00:00	3	Temperatura mínima	11.6
78148	7	Sololá	702	San José Chacayá	5	Chacayá	2	Febrero	2023-12-02T00:00:00	2024-11-06T01:00:00	5	Humedad	82
78149	7	Sololá	702	San José Chacayá	5	Chacayá	2	Febrero	2023-12-02T00:00:00	2024-11-06T01:00:00	6	Velocidad del viento	1.6
78150	7	Sololá	702	San José Chacayá	5	Chacayá	2	Febrero	2023-12-02T00:00:00	2024-11-06T01:00:00	7	Dirección del viento	1.61
78151	7	Sololá	702	San José Chacayá	5	Chacayá	2	Febrero	2023-12-02T00:00:00	2024-11-06T01:00:00	1	Precipitación	0
78152	7	Sololá	702	San José Chacayá	5	Chacayá	2	Febrero	2023-12-02T00:00:00	2024-11-06T01:00:00	8	Radiación solar	0
78153	7	Sololá	702	San José Chacayá	5	Chacayá	2	Febrero	2023-12-02T00:00:00	2024-11-06T02:00:00	2	Temperatura media	10.4
78154	7	Sololá	702	San José Chacayá	5	Chacayá	2	Febrero	2023-12-02T00:00:00	2024-11-06T02:00:00	4	Temperatura máxima	11.7
78155	7	Sololá	702	San José Chacayá	5	Chacayá	2	Febrero	2023-12-02T00:00:00	2024-11-06T02:00:00	3	Temperatura mínima	10.3
78156	7	Sololá	702	San José Chacayá	5	Chacayá	2	Febrero	2023-12-02T00:00:00	2024-11-06T02:00:00	5	Humedad	85
78157	7	Sololá	702	San José Chacayá	5	Chacayá	2	Febrero	2023-12-02T00:00:00	2024-11-06T02:00:00	6	Velocidad del viento	1.6
78158	7	Sololá	702	San José Chacayá	5	Chacayá	2	Febrero	2023-12-02T00:00:00	2024-11-06T02:00:00	7	Dirección del viento	1.61
78159	7	Sololá	702	San José Chacayá	5	Chacayá	2	Febrero	2023-12-02T00:00:00	2024-11-06T02:00:00	1	Precipitación	0
78160	7	Sololá	702	San José Chacayá	5	Chacayá	2	Febrero	2023-12-02T00:00:00	2024-11-06T02:00:00	8	Radiación solar	0
78161	7	Sololá	702	San José Chacayá	5	Chacayá	2	Febrero	2023-12-02T00:00:00	2024-11-06T03:00:00	2	Temperatura media	11.1
78162	7	Sololá	702	San José Chacayá	5	Chacayá	2	Febrero	2023-12-02T00:00:00	2024-11-06T03:00:00	4	Temperatura máxima	11.2
78163	7	Sololá	702	San José Chacayá	5	Chacayá	2	Febrero	2023-12-02T00:00:00	2024-11-06T03:00:00	3	Temperatura mínima	10.3
78164	7	Sololá	702	San José Chacayá	5	Chacayá	2	Febrero	2023-12-02T00:00:00	2024-11-06T03:00:00	5	Humedad	80
78165	7	Sololá	702	San José Chacayá	5	Chacayá	2	Febrero	2023-12-02T00:00:00	2024-11-06T03:00:00	6	Velocidad del viento	1.6
78166	7	Sololá	702	San José Chacayá	5	Chacayá	2	Febrero	2023-12-02T00:00:00	2024-11-06T03:00:00	7	Dirección del viento	1.61
78167	7	Sololá	702	San José Chacayá	5	Chacayá	2	Febrero	2023-12-02T00:00:00	2024-11-06T03:00:00	1	Precipitación	0
78168	7	Sololá	702	San José Chacayá	5	Chacayá	2	Febrero	2023-12-02T00:00:00	2024-11-06T03:00:00	8	Radiación solar	0
78169	7	Sololá	702	San José Chacayá	5	Chacayá	2	Febrero	2023-12-02T00:00:00	2024-11-06T04:00:00	2	Temperatura media	12.1
78170	7	Sololá	702	San José Chacayá	5	Chacayá	2	Febrero	2023-12-02T00:00:00	2024-11-06T04:00:00	4	Temperatura máxima	12.1
78171	7	Sololá	702	San José Chacayá	5	Chacayá	2	Febrero	2023-12-02T00:00:00	2024-11-06T04:00:00	3	Temperatura mínima	10.2
78172	7	Sololá	702	San José Chacayá	5	Chacayá	2	Febrero	2023-12-02T00:00:00	2024-11-06T04:00:00	5	Humedad	72
78173	7	Sololá	702	San José Chacayá	5	Chacayá	2	Febrero	2023-12-02T00:00:00	2024-11-06T04:00:00	6	Velocidad del viento	3.2
78174	7	Sololá	702	San José Chacayá	5	Chacayá	2	Febrero	2023-12-02T00:00:00	2024-11-06T04:00:00	7	Dirección del viento	3.22
78175	7	Sololá	702	San José Chacayá	5	Chacayá	2	Febrero	2023-12-02T00:00:00	2024-11-06T04:00:00	1	Precipitación	0
78176	7	Sololá	702	San José Chacayá	5	Chacayá	2	Febrero	2023-12-02T00:00:00	2024-11-06T04:00:00	8	Radiación solar	0
78177	7	Sololá	702	San José Chacayá	5	Chacayá	2	Febrero	2023-12-02T00:00:00	2024-11-06T05:00:00	2	Temperatura media	11.8
78178	7	Sololá	702	San José Chacayá	5	Chacayá	2	Febrero	2023-12-02T00:00:00	2024-11-06T05:00:00	4	Temperatura máxima	12.2
78179	7	Sololá	702	San José Chacayá	5	Chacayá	2	Febrero	2023-12-02T00:00:00	2024-11-06T05:00:00	3	Temperatura mínima	11.1
78180	7	Sololá	702	San José Chacayá	5	Chacayá	2	Febrero	2023-12-02T00:00:00	2024-11-06T05:00:00	5	Humedad	72
78181	7	Sololá	702	San José Chacayá	5	Chacayá	2	Febrero	2023-12-02T00:00:00	2024-11-06T05:00:00	6	Velocidad del viento	3.2
78182	7	Sololá	702	San José Chacayá	5	Chacayá	2	Febrero	2023-12-02T00:00:00	2024-11-06T05:00:00	7	Dirección del viento	3.22
78183	7	Sololá	702	San José Chacayá	5	Chacayá	2	Febrero	2023-12-02T00:00:00	2024-11-06T05:00:00	1	Precipitación	0
78184	7	Sololá	702	San José Chacayá	5	Chacayá	2	Febrero	2023-12-02T00:00:00	2024-11-06T05:00:00	8	Radiación solar	0
78185	7	Sololá	702	San José Chacayá	5	Chacayá	2	Febrero	2023-12-02T00:00:00	2024-11-06T06:00:00	2	Temperatura media	13.2
78186	7	Sololá	702	San José Chacayá	5	Chacayá	2	Febrero	2023-12-02T00:00:00	2024-11-06T06:00:00	4	Temperatura máxima	13.2
78187	7	Sololá	702	San José Chacayá	5	Chacayá	2	Febrero	2023-12-02T00:00:00	2024-11-06T06:00:00	3	Temperatura mínima	11.8
78188	7	Sololá	702	San José Chacayá	5	Chacayá	2	Febrero	2023-12-02T00:00:00	2024-11-06T06:00:00	5	Humedad	66
78189	7	Sololá	702	San José Chacayá	5	Chacayá	2	Febrero	2023-12-02T00:00:00	2024-11-06T06:00:00	6	Velocidad del viento	6.4
78190	7	Sololá	702	San José Chacayá	5	Chacayá	2	Febrero	2023-12-02T00:00:00	2024-11-06T06:00:00	7	Dirección del viento	6.44
78191	7	Sololá	702	San José Chacayá	5	Chacayá	2	Febrero	2023-12-02T00:00:00	2024-11-06T06:00:00	1	Precipitación	0
78192	7	Sololá	702	San José Chacayá	5	Chacayá	2	Febrero	2023-12-02T00:00:00	2024-11-06T06:00:00	8	Radiación solar	0
78193	7	Sololá	702	San José Chacayá	5	Chacayá	2	Febrero	2023-12-02T00:00:00	2024-11-06T07:00:00	2	Temperatura media	15.5
78194	7	Sololá	702	San José Chacayá	5	Chacayá	2	Febrero	2023-12-02T00:00:00	2024-11-06T07:00:00	4	Temperatura máxima	15.5
78195	7	Sololá	702	San José Chacayá	5	Chacayá	2	Febrero	2023-12-02T00:00:00	2024-11-06T07:00:00	3	Temperatura mínima	13.2
78196	7	Sololá	702	San José Chacayá	5	Chacayá	2	Febrero	2023-12-02T00:00:00	2024-11-06T07:00:00	5	Humedad	60
78197	7	Sololá	702	San José Chacayá	5	Chacayá	2	Febrero	2023-12-02T00:00:00	2024-11-06T07:00:00	6	Velocidad del viento	6.4
78198	7	Sololá	702	San José Chacayá	5	Chacayá	2	Febrero	2023-12-02T00:00:00	2024-11-06T07:00:00	7	Dirección del viento	6.44
78199	7	Sololá	702	San José Chacayá	5	Chacayá	2	Febrero	2023-12-02T00:00:00	2024-11-06T07:00:00	1	Precipitación	0
78200	7	Sololá	702	San José Chacayá	5	Chacayá	2	Febrero	2023-12-02T00:00:00	2024-11-06T07:00:00	8	Radiación solar	13
78201	7	Sololá	702	San José Chacayá	5	Chacayá	2	Febrero	2023-12-02T00:00:00	2024-11-06T08:00:00	2	Temperatura media	16.3
78202	7	Sololá	702	San José Chacayá	5	Chacayá	2	Febrero	2023-12-02T00:00:00	2024-11-06T08:00:00	4	Temperatura máxima	16.5
78203	7	Sololá	702	San José Chacayá	5	Chacayá	2	Febrero	2023-12-02T00:00:00	2024-11-06T08:00:00	3	Temperatura mínima	15.5
78204	7	Sololá	702	San José Chacayá	5	Chacayá	2	Febrero	2023-12-02T00:00:00	2024-11-06T08:00:00	5	Humedad	58
78205	7	Sololá	702	San José Chacayá	5	Chacayá	2	Febrero	2023-12-02T00:00:00	2024-11-06T08:00:00	6	Velocidad del viento	6.4
78206	7	Sololá	702	San José Chacayá	5	Chacayá	2	Febrero	2023-12-02T00:00:00	2024-11-06T08:00:00	7	Dirección del viento	6.44
78207	7	Sololá	702	San José Chacayá	5	Chacayá	2	Febrero	2023-12-02T00:00:00	2024-11-06T08:00:00	1	Precipitación	0
78208	7	Sololá	702	San José Chacayá	5	Chacayá	2	Febrero	2023-12-02T00:00:00	2024-11-06T08:00:00	8	Radiación solar	196
78209	7	Sololá	702	San José Chacayá	5	Chacayá	2	Febrero	2023-12-02T00:00:00	2024-11-06T09:00:00	2	Temperatura media	18.1
78210	7	Sololá	702	San José Chacayá	5	Chacayá	2	Febrero	2023-12-02T00:00:00	2024-11-06T09:00:00	4	Temperatura máxima	18.1
78211	7	Sololá	702	San José Chacayá	5	Chacayá	2	Febrero	2023-12-02T00:00:00	2024-11-06T09:00:00	3	Temperatura mínima	16.2
78212	7	Sololá	702	San José Chacayá	5	Chacayá	2	Febrero	2023-12-02T00:00:00	2024-11-06T09:00:00	5	Humedad	56
78213	7	Sololá	702	San José Chacayá	5	Chacayá	2	Febrero	2023-12-02T00:00:00	2024-11-06T09:00:00	6	Velocidad del viento	8
78214	7	Sololá	702	San José Chacayá	5	Chacayá	2	Febrero	2023-12-02T00:00:00	2024-11-06T09:00:00	7	Dirección del viento	8.05
78215	7	Sololá	702	San José Chacayá	5	Chacayá	2	Febrero	2023-12-02T00:00:00	2024-11-06T09:00:00	1	Precipitación	0
78216	7	Sololá	702	San José Chacayá	5	Chacayá	2	Febrero	2023-12-02T00:00:00	2024-11-06T09:00:00	8	Radiación solar	439
78217	7	Sololá	702	San José Chacayá	5	Chacayá	2	Febrero	2023-12-02T00:00:00	2024-11-06T10:00:00	2	Temperatura media	19.2
78218	7	Sololá	702	San José Chacayá	5	Chacayá	2	Febrero	2023-12-02T00:00:00	2024-11-06T10:00:00	4	Temperatura máxima	19.3
78219	7	Sololá	702	San José Chacayá	5	Chacayá	2	Febrero	2023-12-02T00:00:00	2024-11-06T10:00:00	3	Temperatura mínima	18.1
78220	7	Sololá	702	San José Chacayá	5	Chacayá	2	Febrero	2023-12-02T00:00:00	2024-11-06T10:00:00	5	Humedad	52
78221	7	Sololá	702	San José Chacayá	5	Chacayá	2	Febrero	2023-12-02T00:00:00	2024-11-06T10:00:00	6	Velocidad del viento	6.4
78222	7	Sololá	702	San José Chacayá	5	Chacayá	2	Febrero	2023-12-02T00:00:00	2024-11-06T10:00:00	7	Dirección del viento	6.44
78223	7	Sololá	702	San José Chacayá	5	Chacayá	2	Febrero	2023-12-02T00:00:00	2024-11-06T10:00:00	1	Precipitación	0
78224	7	Sololá	702	San José Chacayá	5	Chacayá	2	Febrero	2023-12-02T00:00:00	2024-11-06T10:00:00	8	Radiación solar	655
78225	7	Sololá	702	San José Chacayá	5	Chacayá	2	Febrero	2023-12-02T00:00:00	2024-11-06T11:00:00	2	Temperatura media	21.2
78226	7	Sololá	702	San José Chacayá	5	Chacayá	2	Febrero	2023-12-02T00:00:00	2024-11-06T11:00:00	4	Temperatura máxima	21.2
78227	7	Sololá	702	San José Chacayá	5	Chacayá	2	Febrero	2023-12-02T00:00:00	2024-11-06T11:00:00	3	Temperatura mínima	19.2
78228	7	Sololá	702	San José Chacayá	5	Chacayá	2	Febrero	2023-12-02T00:00:00	2024-11-06T11:00:00	5	Humedad	47
78229	7	Sololá	702	San José Chacayá	5	Chacayá	2	Febrero	2023-12-02T00:00:00	2024-11-06T11:00:00	6	Velocidad del viento	6.4
78230	7	Sololá	702	San José Chacayá	5	Chacayá	2	Febrero	2023-12-02T00:00:00	2024-11-06T11:00:00	7	Dirección del viento	6.44
78231	7	Sololá	702	San José Chacayá	5	Chacayá	2	Febrero	2023-12-02T00:00:00	2024-11-06T11:00:00	1	Precipitación	0
78232	7	Sololá	702	San José Chacayá	5	Chacayá	2	Febrero	2023-12-02T00:00:00	2024-11-06T11:00:00	8	Radiación solar	813
78233	7	Sololá	702	San José Chacayá	5	Chacayá	2	Febrero	2023-12-02T00:00:00	2024-11-06T12:00:00	2	Temperatura media	22.6
78234	7	Sololá	702	San José Chacayá	5	Chacayá	2	Febrero	2023-12-02T00:00:00	2024-11-06T12:00:00	4	Temperatura máxima	22.6
78235	7	Sololá	702	San José Chacayá	5	Chacayá	2	Febrero	2023-12-02T00:00:00	2024-11-06T12:00:00	3	Temperatura mínima	20.8
78236	7	Sololá	702	San José Chacayá	5	Chacayá	2	Febrero	2023-12-02T00:00:00	2024-11-06T12:00:00	5	Humedad	44
78237	7	Sololá	702	San José Chacayá	5	Chacayá	2	Febrero	2023-12-02T00:00:00	2024-11-06T12:00:00	6	Velocidad del viento	4.8
78238	7	Sololá	702	San José Chacayá	5	Chacayá	2	Febrero	2023-12-02T00:00:00	2024-11-06T12:00:00	7	Dirección del viento	4.83
78239	7	Sololá	702	San José Chacayá	5	Chacayá	2	Febrero	2023-12-02T00:00:00	2024-11-06T12:00:00	1	Precipitación	0
78240	7	Sololá	702	San José Chacayá	5	Chacayá	2	Febrero	2023-12-02T00:00:00	2024-11-06T12:00:00	8	Radiación solar	899
78241	7	Sololá	702	San José Chacayá	5	Chacayá	2	Febrero	2023-12-02T00:00:00	2024-11-06T13:00:00	2	Temperatura media	22.5
78242	7	Sololá	702	San José Chacayá	5	Chacayá	2	Febrero	2023-12-02T00:00:00	2024-11-06T13:00:00	4	Temperatura máxima	23.1
78243	7	Sololá	702	San José Chacayá	5	Chacayá	2	Febrero	2023-12-02T00:00:00	2024-11-06T13:00:00	3	Temperatura mínima	21
78244	7	Sololá	702	San José Chacayá	5	Chacayá	2	Febrero	2023-12-02T00:00:00	2024-11-06T13:00:00	5	Humedad	44
78245	7	Sololá	702	San José Chacayá	5	Chacayá	2	Febrero	2023-12-02T00:00:00	2024-11-06T13:00:00	6	Velocidad del viento	6.4
78246	7	Sololá	702	San José Chacayá	5	Chacayá	2	Febrero	2023-12-02T00:00:00	2024-11-06T13:00:00	7	Dirección del viento	6.44
78247	7	Sololá	702	San José Chacayá	5	Chacayá	2	Febrero	2023-12-02T00:00:00	2024-11-06T13:00:00	1	Precipitación	0
78248	7	Sololá	702	San José Chacayá	5	Chacayá	2	Febrero	2023-12-02T00:00:00	2024-11-06T13:00:00	8	Radiación solar	914
78249	7	Sololá	702	San José Chacayá	5	Chacayá	2	Febrero	2023-12-02T00:00:00	2024-11-06T14:00:00	2	Temperatura media	21.9
78250	7	Sololá	702	San José Chacayá	5	Chacayá	2	Febrero	2023-12-02T00:00:00	2024-11-06T14:00:00	4	Temperatura máxima	22.6
78251	7	Sololá	702	San José Chacayá	5	Chacayá	2	Febrero	2023-12-02T00:00:00	2024-11-06T14:00:00	3	Temperatura mínima	21.9
78252	7	Sololá	702	San José Chacayá	5	Chacayá	2	Febrero	2023-12-02T00:00:00	2024-11-06T14:00:00	5	Humedad	45
78253	7	Sololá	702	San José Chacayá	5	Chacayá	2	Febrero	2023-12-02T00:00:00	2024-11-06T14:00:00	6	Velocidad del viento	6.4
78254	7	Sololá	702	San José Chacayá	5	Chacayá	2	Febrero	2023-12-02T00:00:00	2024-11-06T14:00:00	7	Dirección del viento	6.44
78255	7	Sololá	702	San José Chacayá	5	Chacayá	2	Febrero	2023-12-02T00:00:00	2024-11-06T14:00:00	1	Precipitación	0
78256	7	Sololá	702	San José Chacayá	5	Chacayá	2	Febrero	2023-12-02T00:00:00	2024-11-06T14:00:00	8	Radiación solar	859
78257	7	Sololá	702	San José Chacayá	5	Chacayá	2	Febrero	2023-12-02T00:00:00	2024-11-06T15:00:00	2	Temperatura media	20.1
78258	7	Sololá	702	San José Chacayá	5	Chacayá	2	Febrero	2023-12-02T00:00:00	2024-11-06T15:00:00	4	Temperatura máxima	21.9
78259	7	Sololá	702	San José Chacayá	5	Chacayá	2	Febrero	2023-12-02T00:00:00	2024-11-06T15:00:00	3	Temperatura mínima	20.1
78260	7	Sololá	702	San José Chacayá	5	Chacayá	2	Febrero	2023-12-02T00:00:00	2024-11-06T15:00:00	5	Humedad	50
78261	7	Sololá	702	San José Chacayá	5	Chacayá	2	Febrero	2023-12-02T00:00:00	2024-11-06T15:00:00	6	Velocidad del viento	6.4
78262	7	Sololá	702	San José Chacayá	5	Chacayá	2	Febrero	2023-12-02T00:00:00	2024-11-06T15:00:00	7	Dirección del viento	6.44
78263	7	Sololá	702	San José Chacayá	5	Chacayá	2	Febrero	2023-12-02T00:00:00	2024-11-06T15:00:00	1	Precipitación	0
78264	7	Sololá	702	San José Chacayá	5	Chacayá	2	Febrero	2023-12-02T00:00:00	2024-11-06T15:00:00	8	Radiación solar	739
78265	7	Sololá	702	San José Chacayá	5	Chacayá	2	Febrero	2023-12-02T00:00:00	2024-11-06T16:00:00	2	Temperatura media	17.3
78266	7	Sololá	702	San José Chacayá	5	Chacayá	2	Febrero	2023-12-02T00:00:00	2024-11-06T16:00:00	4	Temperatura máxima	20.2
78267	7	Sololá	702	San José Chacayá	5	Chacayá	2	Febrero	2023-12-02T00:00:00	2024-11-06T16:00:00	3	Temperatura mínima	17.3
78268	7	Sololá	702	San José Chacayá	5	Chacayá	2	Febrero	2023-12-02T00:00:00	2024-11-06T16:00:00	5	Humedad	59
78269	7	Sololá	702	San José Chacayá	5	Chacayá	2	Febrero	2023-12-02T00:00:00	2024-11-06T16:00:00	6	Velocidad del viento	4.8
78270	7	Sololá	702	San José Chacayá	5	Chacayá	2	Febrero	2023-12-02T00:00:00	2024-11-06T16:00:00	7	Dirección del viento	4.83
78271	7	Sololá	702	San José Chacayá	5	Chacayá	2	Febrero	2023-12-02T00:00:00	2024-11-06T16:00:00	1	Precipitación	0
78272	7	Sololá	702	San José Chacayá	5	Chacayá	2	Febrero	2023-12-02T00:00:00	2024-11-06T16:00:00	8	Radiación solar	558
78273	7	Sololá	702	San José Chacayá	5	Chacayá	2	Febrero	2023-12-02T00:00:00	2024-11-06T17:00:00	2	Temperatura media	15.2
78274	7	Sololá	702	San José Chacayá	5	Chacayá	2	Febrero	2023-12-02T00:00:00	2024-11-06T17:00:00	4	Temperatura máxima	17.3
78275	7	Sololá	702	San José Chacayá	5	Chacayá	2	Febrero	2023-12-02T00:00:00	2024-11-06T17:00:00	3	Temperatura mínima	15.2
78276	7	Sololá	702	San José Chacayá	5	Chacayá	2	Febrero	2023-12-02T00:00:00	2024-11-06T17:00:00	5	Humedad	66
78277	7	Sololá	702	San José Chacayá	5	Chacayá	2	Febrero	2023-12-02T00:00:00	2024-11-06T17:00:00	6	Velocidad del viento	6.4
78278	7	Sololá	702	San José Chacayá	5	Chacayá	2	Febrero	2023-12-02T00:00:00	2024-11-06T17:00:00	7	Dirección del viento	6.44
78279	7	Sololá	702	San José Chacayá	5	Chacayá	2	Febrero	2023-12-02T00:00:00	2024-11-06T17:00:00	1	Precipitación	0
78280	7	Sololá	702	San José Chacayá	5	Chacayá	2	Febrero	2023-12-02T00:00:00	2024-11-06T17:00:00	8	Radiación solar	314
78281	7	Sololá	702	San José Chacayá	5	Chacayá	2	Febrero	2023-12-02T00:00:00	2024-11-06T18:00:00	2	Temperatura media	13.5
78282	7	Sololá	702	San José Chacayá	5	Chacayá	2	Febrero	2023-12-02T00:00:00	2024-11-06T18:00:00	4	Temperatura máxima	15.2
78283	7	Sololá	702	San José Chacayá	5	Chacayá	2	Febrero	2023-12-02T00:00:00	2024-11-06T18:00:00	3	Temperatura mínima	13.5
78284	7	Sololá	702	San José Chacayá	5	Chacayá	2	Febrero	2023-12-02T00:00:00	2024-11-06T18:00:00	5	Humedad	70
78285	7	Sololá	702	San José Chacayá	5	Chacayá	2	Febrero	2023-12-02T00:00:00	2024-11-06T18:00:00	6	Velocidad del viento	4.8
78286	7	Sololá	702	San José Chacayá	5	Chacayá	2	Febrero	2023-12-02T00:00:00	2024-11-06T18:00:00	7	Dirección del viento	4.83
78287	7	Sololá	702	San José Chacayá	5	Chacayá	2	Febrero	2023-12-02T00:00:00	2024-11-06T18:00:00	1	Precipitación	0
78288	7	Sololá	702	San José Chacayá	5	Chacayá	2	Febrero	2023-12-02T00:00:00	2024-11-06T18:00:00	8	Radiación solar	77
78289	7	Sololá	702	San José Chacayá	5	Chacayá	2	Febrero	2023-12-02T00:00:00	2024-11-06T19:00:00	2	Temperatura media	12.9
78290	7	Sololá	702	San José Chacayá	5	Chacayá	2	Febrero	2023-12-02T00:00:00	2024-11-06T19:00:00	4	Temperatura máxima	13.5
78291	7	Sololá	702	San José Chacayá	5	Chacayá	2	Febrero	2023-12-02T00:00:00	2024-11-06T19:00:00	3	Temperatura mínima	12.7
78292	7	Sololá	702	San José Chacayá	5	Chacayá	2	Febrero	2023-12-02T00:00:00	2024-11-06T19:00:00	5	Humedad	68
78293	7	Sololá	702	San José Chacayá	5	Chacayá	2	Febrero	2023-12-02T00:00:00	2024-11-06T19:00:00	6	Velocidad del viento	3.2
78294	7	Sololá	702	San José Chacayá	5	Chacayá	2	Febrero	2023-12-02T00:00:00	2024-11-06T19:00:00	7	Dirección del viento	3.22
78295	7	Sololá	702	San José Chacayá	5	Chacayá	2	Febrero	2023-12-02T00:00:00	2024-11-06T19:00:00	1	Precipitación	0
78296	7	Sololá	702	San José Chacayá	5	Chacayá	2	Febrero	2023-12-02T00:00:00	2024-11-06T19:00:00	8	Radiación solar	0
78297	7	Sololá	702	San José Chacayá	5	Chacayá	2	Febrero	2023-12-02T00:00:00	2024-11-06T20:00:00	2	Temperatura media	13.1
78298	7	Sololá	702	San José Chacayá	5	Chacayá	2	Febrero	2023-12-02T00:00:00	2024-11-06T20:00:00	4	Temperatura máxima	13.2
78299	7	Sololá	702	San José Chacayá	5	Chacayá	2	Febrero	2023-12-02T00:00:00	2024-11-06T20:00:00	3	Temperatura mínima	12.9
78300	7	Sololá	702	San José Chacayá	5	Chacayá	2	Febrero	2023-12-02T00:00:00	2024-11-06T20:00:00	5	Humedad	68
78301	7	Sololá	702	San José Chacayá	5	Chacayá	2	Febrero	2023-12-02T00:00:00	2024-11-06T20:00:00	6	Velocidad del viento	4.8
78302	7	Sololá	702	San José Chacayá	5	Chacayá	2	Febrero	2023-12-02T00:00:00	2024-11-06T20:00:00	7	Dirección del viento	4.83
78303	7	Sololá	702	San José Chacayá	5	Chacayá	2	Febrero	2023-12-02T00:00:00	2024-11-06T20:00:00	1	Precipitación	0
78304	7	Sololá	702	San José Chacayá	5	Chacayá	2	Febrero	2023-12-02T00:00:00	2024-11-06T20:00:00	8	Radiación solar	0
78305	7	Sololá	702	San José Chacayá	5	Chacayá	2	Febrero	2023-12-02T00:00:00	2024-11-06T21:00:00	2	Temperatura media	12.3
78306	7	Sololá	702	San José Chacayá	5	Chacayá	2	Febrero	2023-12-02T00:00:00	2024-11-06T21:00:00	4	Temperatura máxima	13.2
78307	7	Sololá	702	San José Chacayá	5	Chacayá	2	Febrero	2023-12-02T00:00:00	2024-11-06T21:00:00	3	Temperatura mínima	12.3
78308	7	Sololá	702	San José Chacayá	5	Chacayá	2	Febrero	2023-12-02T00:00:00	2024-11-06T21:00:00	5	Humedad	74
78309	7	Sololá	702	San José Chacayá	5	Chacayá	2	Febrero	2023-12-02T00:00:00	2024-11-06T21:00:00	6	Velocidad del viento	3.2
78310	7	Sololá	702	San José Chacayá	5	Chacayá	2	Febrero	2023-12-02T00:00:00	2024-11-06T21:00:00	7	Dirección del viento	3.22
78311	7	Sololá	702	San José Chacayá	5	Chacayá	2	Febrero	2023-12-02T00:00:00	2024-11-06T21:00:00	1	Precipitación	0
78312	7	Sololá	702	San José Chacayá	5	Chacayá	2	Febrero	2023-12-02T00:00:00	2024-11-06T21:00:00	8	Radiación solar	0
78313	7	Sololá	702	San José Chacayá	5	Chacayá	2	Febrero	2023-12-02T00:00:00	2024-11-06T22:00:00	2	Temperatura media	11.3
78314	7	Sololá	702	San José Chacayá	5	Chacayá	2	Febrero	2023-12-02T00:00:00	2024-11-06T22:00:00	4	Temperatura máxima	12.3
78315	7	Sololá	702	San José Chacayá	5	Chacayá	2	Febrero	2023-12-02T00:00:00	2024-11-06T22:00:00	3	Temperatura mínima	11.3
78316	7	Sololá	702	San José Chacayá	5	Chacayá	2	Febrero	2023-12-02T00:00:00	2024-11-06T22:00:00	5	Humedad	80
78317	7	Sololá	702	San José Chacayá	5	Chacayá	2	Febrero	2023-12-02T00:00:00	2024-11-06T22:00:00	6	Velocidad del viento	4.8
78318	7	Sololá	702	San José Chacayá	5	Chacayá	2	Febrero	2023-12-02T00:00:00	2024-11-06T22:00:00	7	Dirección del viento	4.83
78319	7	Sololá	702	San José Chacayá	5	Chacayá	2	Febrero	2023-12-02T00:00:00	2024-11-06T22:00:00	1	Precipitación	0
78320	7	Sololá	702	San José Chacayá	5	Chacayá	2	Febrero	2023-12-02T00:00:00	2024-11-06T22:00:00	8	Radiación solar	0
78321	7	Sololá	702	San José Chacayá	5	Chacayá	2	Febrero	2023-12-02T00:00:00	2024-11-06T23:00:00	2	Temperatura media	11.2
78322	7	Sololá	702	San José Chacayá	5	Chacayá	2	Febrero	2023-12-02T00:00:00	2024-11-06T23:00:00	4	Temperatura máxima	11.5
78323	7	Sololá	702	San José Chacayá	5	Chacayá	2	Febrero	2023-12-02T00:00:00	2024-11-06T23:00:00	3	Temperatura mínima	11.1
78324	7	Sololá	702	San José Chacayá	5	Chacayá	2	Febrero	2023-12-02T00:00:00	2024-11-06T23:00:00	5	Humedad	79
78325	7	Sololá	702	San José Chacayá	5	Chacayá	2	Febrero	2023-12-02T00:00:00	2024-11-06T23:00:00	6	Velocidad del viento	4.8
78326	7	Sololá	702	San José Chacayá	5	Chacayá	2	Febrero	2023-12-02T00:00:00	2024-11-06T23:00:00	7	Dirección del viento	4.83
78327	7	Sololá	702	San José Chacayá	5	Chacayá	2	Febrero	2023-12-02T00:00:00	2024-11-06T23:00:00	1	Precipitación	0
78328	7	Sololá	702	San José Chacayá	5	Chacayá	2	Febrero	2023-12-02T00:00:00	2024-11-06T23:00:00	8	Radiación solar	0
78329	7	Sololá	702	San José Chacayá	5	Chacayá	2	Febrero	2023-02-13T00:00:00	2024-11-06T00:00:00	2	Temperatura media	11.2
78330	7	Sololá	702	San José Chacayá	5	Chacayá	2	Febrero	2023-02-13T00:00:00	2024-11-06T00:00:00	4	Temperatura máxima	11.3
78331	7	Sololá	702	San José Chacayá	5	Chacayá	2	Febrero	2023-02-13T00:00:00	2024-11-06T00:00:00	3	Temperatura mínima	10.9
78332	7	Sololá	702	San José Chacayá	5	Chacayá	2	Febrero	2023-02-13T00:00:00	2024-11-06T00:00:00	5	Humedad	80
78333	7	Sololá	702	San José Chacayá	5	Chacayá	2	Febrero	2023-02-13T00:00:00	2024-11-06T00:00:00	6	Velocidad del viento	3.2
78334	7	Sololá	702	San José Chacayá	5	Chacayá	2	Febrero	2023-02-13T00:00:00	2024-11-06T00:00:00	7	Dirección del viento	3.22
78335	7	Sololá	702	San José Chacayá	5	Chacayá	2	Febrero	2023-02-13T00:00:00	2024-11-06T00:00:00	1	Precipitación	0
78336	7	Sololá	702	San José Chacayá	5	Chacayá	2	Febrero	2023-02-13T00:00:00	2024-11-06T00:00:00	8	Radiación solar	0
78337	7	Sololá	702	San José Chacayá	5	Chacayá	2	Febrero	2023-02-13T00:00:00	2024-11-06T01:00:00	2	Temperatura media	9.8
78338	7	Sololá	702	San José Chacayá	5	Chacayá	2	Febrero	2023-02-13T00:00:00	2024-11-06T01:00:00	4	Temperatura máxima	11.6
78339	7	Sololá	702	San José Chacayá	5	Chacayá	2	Febrero	2023-02-13T00:00:00	2024-11-06T01:00:00	3	Temperatura mínima	9.8
78340	7	Sololá	702	San José Chacayá	5	Chacayá	2	Febrero	2023-02-13T00:00:00	2024-11-06T01:00:00	5	Humedad	81
78341	7	Sololá	702	San José Chacayá	5	Chacayá	2	Febrero	2023-02-13T00:00:00	2024-11-06T01:00:00	6	Velocidad del viento	3.2
78342	7	Sololá	702	San José Chacayá	5	Chacayá	2	Febrero	2023-02-13T00:00:00	2024-11-06T01:00:00	7	Dirección del viento	3.22
78343	7	Sololá	702	San José Chacayá	5	Chacayá	2	Febrero	2023-02-13T00:00:00	2024-11-06T01:00:00	1	Precipitación	0
78344	7	Sololá	702	San José Chacayá	5	Chacayá	2	Febrero	2023-02-13T00:00:00	2024-11-06T01:00:00	8	Radiación solar	0
78345	7	Sololá	702	San José Chacayá	5	Chacayá	2	Febrero	2023-02-13T00:00:00	2024-11-06T02:00:00	2	Temperatura media	10.2
78346	7	Sololá	702	San José Chacayá	5	Chacayá	2	Febrero	2023-02-13T00:00:00	2024-11-06T02:00:00	4	Temperatura máxima	10.8
78347	7	Sololá	702	San José Chacayá	5	Chacayá	2	Febrero	2023-02-13T00:00:00	2024-11-06T02:00:00	3	Temperatura mínima	9.7
78348	7	Sololá	702	San José Chacayá	5	Chacayá	2	Febrero	2023-02-13T00:00:00	2024-11-06T02:00:00	5	Humedad	81
78349	7	Sololá	702	San José Chacayá	5	Chacayá	2	Febrero	2023-02-13T00:00:00	2024-11-06T02:00:00	6	Velocidad del viento	3.2
78350	7	Sololá	702	San José Chacayá	5	Chacayá	2	Febrero	2023-02-13T00:00:00	2024-11-06T02:00:00	7	Dirección del viento	3.22
78351	7	Sololá	702	San José Chacayá	5	Chacayá	2	Febrero	2023-02-13T00:00:00	2024-11-06T02:00:00	1	Precipitación	0
78352	7	Sololá	702	San José Chacayá	5	Chacayá	2	Febrero	2023-02-13T00:00:00	2024-11-06T02:00:00	8	Radiación solar	0
78353	7	Sololá	702	San José Chacayá	5	Chacayá	2	Febrero	2023-02-13T00:00:00	2024-11-06T03:00:00	2	Temperatura media	9.2
78354	7	Sololá	702	San José Chacayá	5	Chacayá	2	Febrero	2023-02-13T00:00:00	2024-11-06T03:00:00	4	Temperatura máxima	10.3
78355	7	Sololá	702	San José Chacayá	5	Chacayá	2	Febrero	2023-02-13T00:00:00	2024-11-06T03:00:00	3	Temperatura mínima	9.1
78356	7	Sololá	702	San José Chacayá	5	Chacayá	2	Febrero	2023-02-13T00:00:00	2024-11-06T03:00:00	5	Humedad	84
78357	7	Sololá	702	San José Chacayá	5	Chacayá	2	Febrero	2023-02-13T00:00:00	2024-11-06T03:00:00	6	Velocidad del viento	3.2
78358	7	Sololá	702	San José Chacayá	5	Chacayá	2	Febrero	2023-02-13T00:00:00	2024-11-06T03:00:00	7	Dirección del viento	3.22
78359	7	Sololá	702	San José Chacayá	5	Chacayá	2	Febrero	2023-02-13T00:00:00	2024-11-06T03:00:00	1	Precipitación	0
78360	7	Sololá	702	San José Chacayá	5	Chacayá	2	Febrero	2023-02-13T00:00:00	2024-11-06T03:00:00	8	Radiación solar	0
78361	7	Sololá	702	San José Chacayá	5	Chacayá	2	Febrero	2023-02-13T00:00:00	2024-11-06T04:00:00	2	Temperatura media	9.1
78362	7	Sololá	702	San José Chacayá	5	Chacayá	2	Febrero	2023-02-13T00:00:00	2024-11-06T04:00:00	4	Temperatura máxima	9.8
78363	7	Sololá	702	San José Chacayá	5	Chacayá	2	Febrero	2023-02-13T00:00:00	2024-11-06T04:00:00	3	Temperatura mínima	8.4
78364	7	Sololá	702	San José Chacayá	5	Chacayá	2	Febrero	2023-02-13T00:00:00	2024-11-06T04:00:00	5	Humedad	83
78365	7	Sololá	702	San José Chacayá	5	Chacayá	2	Febrero	2023-02-13T00:00:00	2024-11-06T04:00:00	6	Velocidad del viento	1.6
78366	7	Sololá	702	San José Chacayá	5	Chacayá	2	Febrero	2023-02-13T00:00:00	2024-11-06T04:00:00	7	Dirección del viento	1.61
78367	7	Sololá	702	San José Chacayá	5	Chacayá	2	Febrero	2023-02-13T00:00:00	2024-11-06T04:00:00	1	Precipitación	0
78368	7	Sololá	702	San José Chacayá	5	Chacayá	2	Febrero	2023-02-13T00:00:00	2024-11-06T04:00:00	8	Radiación solar	0
78369	7	Sololá	702	San José Chacayá	5	Chacayá	2	Febrero	2023-02-13T00:00:00	2024-11-06T05:00:00	2	Temperatura media	10.2
78370	7	Sololá	702	San José Chacayá	5	Chacayá	2	Febrero	2023-02-13T00:00:00	2024-11-06T05:00:00	4	Temperatura máxima	10.4
78371	7	Sololá	702	San José Chacayá	5	Chacayá	2	Febrero	2023-02-13T00:00:00	2024-11-06T05:00:00	3	Temperatura mínima	8.8
78372	7	Sololá	702	San José Chacayá	5	Chacayá	2	Febrero	2023-02-13T00:00:00	2024-11-06T05:00:00	5	Humedad	82
78373	7	Sololá	702	San José Chacayá	5	Chacayá	2	Febrero	2023-02-13T00:00:00	2024-11-06T05:00:00	6	Velocidad del viento	3.2
78374	7	Sololá	702	San José Chacayá	5	Chacayá	2	Febrero	2023-02-13T00:00:00	2024-11-06T05:00:00	7	Dirección del viento	3.22
78375	7	Sololá	702	San José Chacayá	5	Chacayá	2	Febrero	2023-02-13T00:00:00	2024-11-06T05:00:00	1	Precipitación	0
78376	7	Sololá	702	San José Chacayá	5	Chacayá	2	Febrero	2023-02-13T00:00:00	2024-11-06T05:00:00	8	Radiación solar	0
78377	7	Sololá	702	San José Chacayá	5	Chacayá	2	Febrero	2023-02-13T00:00:00	2024-11-06T06:00:00	2	Temperatura media	10.9
78378	7	Sololá	702	San José Chacayá	5	Chacayá	2	Febrero	2023-02-13T00:00:00	2024-11-06T06:00:00	4	Temperatura máxima	10.9
78379	7	Sololá	702	San José Chacayá	5	Chacayá	2	Febrero	2023-02-13T00:00:00	2024-11-06T06:00:00	3	Temperatura mínima	9.4
78380	7	Sololá	702	San José Chacayá	5	Chacayá	2	Febrero	2023-02-13T00:00:00	2024-11-06T06:00:00	5	Humedad	82
78381	7	Sololá	702	San José Chacayá	5	Chacayá	2	Febrero	2023-02-13T00:00:00	2024-11-06T06:00:00	6	Velocidad del viento	1.6
78382	7	Sololá	702	San José Chacayá	5	Chacayá	2	Febrero	2023-02-13T00:00:00	2024-11-06T06:00:00	7	Dirección del viento	1.61
78383	7	Sololá	702	San José Chacayá	5	Chacayá	2	Febrero	2023-02-13T00:00:00	2024-11-06T06:00:00	1	Precipitación	0
78384	7	Sololá	702	San José Chacayá	5	Chacayá	2	Febrero	2023-02-13T00:00:00	2024-11-06T06:00:00	8	Radiación solar	0
78385	7	Sololá	702	San José Chacayá	5	Chacayá	2	Febrero	2023-02-13T00:00:00	2024-11-06T07:00:00	2	Temperatura media	13.9
78386	7	Sololá	702	San José Chacayá	5	Chacayá	2	Febrero	2023-02-13T00:00:00	2024-11-06T07:00:00	4	Temperatura máxima	14.1
78387	7	Sololá	702	San José Chacayá	5	Chacayá	2	Febrero	2023-02-13T00:00:00	2024-11-06T07:00:00	3	Temperatura mínima	10.9
78388	7	Sololá	702	San José Chacayá	5	Chacayá	2	Febrero	2023-02-13T00:00:00	2024-11-06T07:00:00	5	Humedad	72
78389	7	Sololá	702	San José Chacayá	5	Chacayá	2	Febrero	2023-02-13T00:00:00	2024-11-06T07:00:00	6	Velocidad del viento	3.2
78390	7	Sololá	702	San José Chacayá	5	Chacayá	2	Febrero	2023-02-13T00:00:00	2024-11-06T07:00:00	7	Dirección del viento	3.22
78391	7	Sololá	702	San José Chacayá	5	Chacayá	2	Febrero	2023-02-13T00:00:00	2024-11-06T07:00:00	1	Precipitación	0
78392	7	Sololá	702	San José Chacayá	5	Chacayá	2	Febrero	2023-02-13T00:00:00	2024-11-06T07:00:00	8	Radiación solar	7
78393	7	Sololá	702	San José Chacayá	5	Chacayá	2	Febrero	2023-02-13T00:00:00	2024-11-06T08:00:00	2	Temperatura media	14.6
78394	7	Sololá	702	San José Chacayá	5	Chacayá	2	Febrero	2023-02-13T00:00:00	2024-11-06T08:00:00	4	Temperatura máxima	14.6
78395	7	Sololá	702	San José Chacayá	5	Chacayá	2	Febrero	2023-02-13T00:00:00	2024-11-06T08:00:00	3	Temperatura mínima	13.6
78396	7	Sololá	702	San José Chacayá	5	Chacayá	2	Febrero	2023-02-13T00:00:00	2024-11-06T08:00:00	5	Humedad	69
78397	7	Sololá	702	San José Chacayá	5	Chacayá	2	Febrero	2023-02-13T00:00:00	2024-11-06T08:00:00	6	Velocidad del viento	8
78398	7	Sololá	702	San José Chacayá	5	Chacayá	2	Febrero	2023-02-13T00:00:00	2024-11-06T08:00:00	7	Dirección del viento	8.05
78399	7	Sololá	702	San José Chacayá	5	Chacayá	2	Febrero	2023-02-13T00:00:00	2024-11-06T08:00:00	1	Precipitación	0
78400	7	Sololá	702	San José Chacayá	5	Chacayá	2	Febrero	2023-02-13T00:00:00	2024-11-06T08:00:00	8	Radiación solar	181
78401	7	Sololá	702	San José Chacayá	5	Chacayá	2	Febrero	2023-02-13T00:00:00	2024-11-06T09:00:00	2	Temperatura media	16.9
78402	7	Sololá	702	San José Chacayá	5	Chacayá	2	Febrero	2023-02-13T00:00:00	2024-11-06T09:00:00	4	Temperatura máxima	16.9
78403	7	Sololá	702	San José Chacayá	5	Chacayá	2	Febrero	2023-02-13T00:00:00	2024-11-06T09:00:00	3	Temperatura mínima	14.6
78404	7	Sololá	702	San José Chacayá	5	Chacayá	2	Febrero	2023-02-13T00:00:00	2024-11-06T09:00:00	5	Humedad	63
78405	7	Sololá	702	San José Chacayá	5	Chacayá	2	Febrero	2023-02-13T00:00:00	2024-11-06T09:00:00	6	Velocidad del viento	6.4
78406	7	Sololá	702	San José Chacayá	5	Chacayá	2	Febrero	2023-02-13T00:00:00	2024-11-06T09:00:00	7	Dirección del viento	6.44
78407	7	Sololá	702	San José Chacayá	5	Chacayá	2	Febrero	2023-02-13T00:00:00	2024-11-06T09:00:00	1	Precipitación	0
78408	7	Sololá	702	San José Chacayá	5	Chacayá	2	Febrero	2023-02-13T00:00:00	2024-11-06T09:00:00	8	Radiación solar	459
78409	7	Sololá	702	San José Chacayá	5	Chacayá	2	Febrero	2023-02-13T00:00:00	2024-11-06T10:00:00	2	Temperatura media	19.2
78410	7	Sololá	702	San José Chacayá	5	Chacayá	2	Febrero	2023-02-13T00:00:00	2024-11-06T10:00:00	4	Temperatura máxima	19.2
78411	7	Sololá	702	San José Chacayá	5	Chacayá	2	Febrero	2023-02-13T00:00:00	2024-11-06T10:00:00	3	Temperatura mínima	16.9
78412	7	Sololá	702	San José Chacayá	5	Chacayá	2	Febrero	2023-02-13T00:00:00	2024-11-06T10:00:00	5	Humedad	55
78413	7	Sololá	702	San José Chacayá	5	Chacayá	2	Febrero	2023-02-13T00:00:00	2024-11-06T10:00:00	6	Velocidad del viento	6.4
78414	7	Sololá	702	San José Chacayá	5	Chacayá	2	Febrero	2023-02-13T00:00:00	2024-11-06T10:00:00	7	Dirección del viento	6.44
78415	7	Sololá	702	San José Chacayá	5	Chacayá	2	Febrero	2023-02-13T00:00:00	2024-11-06T10:00:00	1	Precipitación	0
78416	7	Sololá	702	San José Chacayá	5	Chacayá	2	Febrero	2023-02-13T00:00:00	2024-11-06T10:00:00	8	Radiación solar	532
78417	7	Sololá	702	San José Chacayá	5	Chacayá	2	Febrero	2023-02-13T00:00:00	2024-11-06T11:00:00	2	Temperatura media	19.2
78418	7	Sololá	702	San José Chacayá	5	Chacayá	2	Febrero	2023-02-13T00:00:00	2024-11-06T11:00:00	4	Temperatura máxima	20.2
78419	7	Sololá	702	San José Chacayá	5	Chacayá	2	Febrero	2023-02-13T00:00:00	2024-11-06T11:00:00	3	Temperatura mínima	19.1
78420	7	Sololá	702	San José Chacayá	5	Chacayá	2	Febrero	2023-02-13T00:00:00	2024-11-06T11:00:00	5	Humedad	55
78421	7	Sololá	702	San José Chacayá	5	Chacayá	2	Febrero	2023-02-13T00:00:00	2024-11-06T11:00:00	6	Velocidad del viento	4.8
78422	7	Sololá	702	San José Chacayá	5	Chacayá	2	Febrero	2023-02-13T00:00:00	2024-11-06T11:00:00	7	Dirección del viento	4.83
78423	7	Sololá	702	San José Chacayá	5	Chacayá	2	Febrero	2023-02-13T00:00:00	2024-11-06T11:00:00	1	Precipitación	0
78424	7	Sololá	702	San José Chacayá	5	Chacayá	2	Febrero	2023-02-13T00:00:00	2024-11-06T11:00:00	8	Radiación solar	58
78425	7	Sololá	702	San José Chacayá	5	Chacayá	2	Febrero	2023-02-13T00:00:00	2024-11-06T12:00:00	2	Temperatura media	20.3
78426	7	Sololá	702	San José Chacayá	5	Chacayá	2	Febrero	2023-02-13T00:00:00	2024-11-06T12:00:00	4	Temperatura máxima	20.3
78427	7	Sololá	702	San José Chacayá	5	Chacayá	2	Febrero	2023-02-13T00:00:00	2024-11-06T12:00:00	3	Temperatura mínima	18.6
78428	7	Sololá	702	San José Chacayá	5	Chacayá	2	Febrero	2023-02-13T00:00:00	2024-11-06T12:00:00	5	Humedad	51
78429	7	Sololá	702	San José Chacayá	5	Chacayá	2	Febrero	2023-02-13T00:00:00	2024-11-06T12:00:00	6	Velocidad del viento	4.8
78430	7	Sololá	702	San José Chacayá	5	Chacayá	2	Febrero	2023-02-13T00:00:00	2024-11-06T12:00:00	7	Dirección del viento	4.83
78431	7	Sololá	702	San José Chacayá	5	Chacayá	2	Febrero	2023-02-13T00:00:00	2024-11-06T12:00:00	1	Precipitación	0
78432	7	Sololá	702	San José Chacayá	5	Chacayá	2	Febrero	2023-02-13T00:00:00	2024-11-06T12:00:00	8	Radiación solar	480
78433	7	Sololá	702	San José Chacayá	5	Chacayá	2	Febrero	2023-02-13T00:00:00	2024-11-06T13:00:00	2	Temperatura media	21
78434	7	Sololá	702	San José Chacayá	5	Chacayá	2	Febrero	2023-02-13T00:00:00	2024-11-06T13:00:00	4	Temperatura máxima	21.5
78435	7	Sololá	702	San José Chacayá	5	Chacayá	2	Febrero	2023-02-13T00:00:00	2024-11-06T13:00:00	3	Temperatura mínima	19.3
78436	7	Sololá	702	San José Chacayá	5	Chacayá	2	Febrero	2023-02-13T00:00:00	2024-11-06T13:00:00	5	Humedad	46
78437	7	Sololá	702	San José Chacayá	5	Chacayá	2	Febrero	2023-02-13T00:00:00	2024-11-06T13:00:00	6	Velocidad del viento	4.8
78438	7	Sololá	702	San José Chacayá	5	Chacayá	2	Febrero	2023-02-13T00:00:00	2024-11-06T13:00:00	7	Dirección del viento	4.83
78439	7	Sololá	702	San José Chacayá	5	Chacayá	2	Febrero	2023-02-13T00:00:00	2024-11-06T13:00:00	1	Precipitación	0
78440	7	Sololá	702	San José Chacayá	5	Chacayá	2	Febrero	2023-02-13T00:00:00	2024-11-06T13:00:00	8	Radiación solar	903
78441	7	Sololá	702	San José Chacayá	5	Chacayá	2	Febrero	2023-02-13T00:00:00	2024-11-06T14:00:00	2	Temperatura media	21.3
78442	7	Sololá	702	San José Chacayá	5	Chacayá	2	Febrero	2023-02-13T00:00:00	2024-11-06T14:00:00	4	Temperatura máxima	21.6
78443	7	Sololá	702	San José Chacayá	5	Chacayá	2	Febrero	2023-02-13T00:00:00	2024-11-06T14:00:00	3	Temperatura mínima	20.2
78444	7	Sololá	702	San José Chacayá	5	Chacayá	2	Febrero	2023-02-13T00:00:00	2024-11-06T14:00:00	5	Humedad	45
78445	7	Sololá	702	San José Chacayá	5	Chacayá	2	Febrero	2023-02-13T00:00:00	2024-11-06T14:00:00	6	Velocidad del viento	4.8
78446	7	Sololá	702	San José Chacayá	5	Chacayá	2	Febrero	2023-02-13T00:00:00	2024-11-06T14:00:00	7	Dirección del viento	4.83
78447	7	Sololá	702	San José Chacayá	5	Chacayá	2	Febrero	2023-02-13T00:00:00	2024-11-06T14:00:00	1	Precipitación	0
78448	7	Sololá	702	San José Chacayá	5	Chacayá	2	Febrero	2023-02-13T00:00:00	2024-11-06T14:00:00	8	Radiación solar	838
78449	7	Sololá	702	San José Chacayá	5	Chacayá	2	Febrero	2023-02-13T00:00:00	2024-11-06T15:00:00	2	Temperatura media	21.1
78450	7	Sololá	702	San José Chacayá	5	Chacayá	2	Febrero	2023-02-13T00:00:00	2024-11-06T15:00:00	4	Temperatura máxima	21.5
78451	7	Sololá	702	San José Chacayá	5	Chacayá	2	Febrero	2023-02-13T00:00:00	2024-11-06T15:00:00	3	Temperatura mínima	20.6
78452	7	Sololá	702	San José Chacayá	5	Chacayá	2	Febrero	2023-02-13T00:00:00	2024-11-06T15:00:00	5	Humedad	44
78453	7	Sololá	702	San José Chacayá	5	Chacayá	2	Febrero	2023-02-13T00:00:00	2024-11-06T15:00:00	6	Velocidad del viento	4.8
78454	7	Sololá	702	San José Chacayá	5	Chacayá	2	Febrero	2023-02-13T00:00:00	2024-11-06T15:00:00	7	Dirección del viento	4.83
78455	7	Sololá	702	San José Chacayá	5	Chacayá	2	Febrero	2023-02-13T00:00:00	2024-11-06T15:00:00	1	Precipitación	0
78456	7	Sololá	702	San José Chacayá	5	Chacayá	2	Febrero	2023-02-13T00:00:00	2024-11-06T15:00:00	8	Radiación solar	739
78457	7	Sololá	702	San José Chacayá	5	Chacayá	2	Febrero	2023-02-13T00:00:00	2024-11-06T16:00:00	2	Temperatura media	18.5
78458	7	Sololá	702	San José Chacayá	5	Chacayá	2	Febrero	2023-02-13T00:00:00	2024-11-06T16:00:00	4	Temperatura máxima	21.3
78459	7	Sololá	702	San José Chacayá	5	Chacayá	2	Febrero	2023-02-13T00:00:00	2024-11-06T16:00:00	3	Temperatura mínima	18.5
78460	7	Sololá	702	San José Chacayá	5	Chacayá	2	Febrero	2023-02-13T00:00:00	2024-11-06T16:00:00	5	Humedad	50
78461	7	Sololá	702	San José Chacayá	5	Chacayá	2	Febrero	2023-02-13T00:00:00	2024-11-06T16:00:00	6	Velocidad del viento	3.2
78462	7	Sololá	702	San José Chacayá	5	Chacayá	2	Febrero	2023-02-13T00:00:00	2024-11-06T16:00:00	7	Dirección del viento	3.22
78463	7	Sololá	702	San José Chacayá	5	Chacayá	2	Febrero	2023-02-13T00:00:00	2024-11-06T16:00:00	1	Precipitación	0
78464	7	Sololá	702	San José Chacayá	5	Chacayá	2	Febrero	2023-02-13T00:00:00	2024-11-06T16:00:00	8	Radiación solar	522
78465	7	Sololá	702	San José Chacayá	5	Chacayá	2	Febrero	2023-02-13T00:00:00	2024-11-06T17:00:00	2	Temperatura media	15.6
78466	7	Sololá	702	San José Chacayá	5	Chacayá	2	Febrero	2023-02-13T00:00:00	2024-11-06T17:00:00	4	Temperatura máxima	18.5
78467	7	Sololá	702	San José Chacayá	5	Chacayá	2	Febrero	2023-02-13T00:00:00	2024-11-06T17:00:00	3	Temperatura mínima	15.6
78468	7	Sololá	702	San José Chacayá	5	Chacayá	2	Febrero	2023-02-13T00:00:00	2024-11-06T17:00:00	5	Humedad	64
78469	7	Sololá	702	San José Chacayá	5	Chacayá	2	Febrero	2023-02-13T00:00:00	2024-11-06T17:00:00	6	Velocidad del viento	3.2
78470	7	Sololá	702	San José Chacayá	5	Chacayá	2	Febrero	2023-02-13T00:00:00	2024-11-06T17:00:00	7	Dirección del viento	3.22
78471	7	Sololá	702	San José Chacayá	5	Chacayá	2	Febrero	2023-02-13T00:00:00	2024-11-06T17:00:00	1	Precipitación	0
78472	7	Sololá	702	San José Chacayá	5	Chacayá	2	Febrero	2023-02-13T00:00:00	2024-11-06T17:00:00	8	Radiación solar	118
78473	7	Sololá	702	San José Chacayá	5	Chacayá	2	Febrero	2023-02-13T00:00:00	2024-11-06T18:00:00	2	Temperatura media	13.1
78474	7	Sololá	702	San José Chacayá	5	Chacayá	2	Febrero	2023-02-13T00:00:00	2024-11-06T18:00:00	4	Temperatura máxima	15.6
78475	7	Sololá	702	San José Chacayá	5	Chacayá	2	Febrero	2023-02-13T00:00:00	2024-11-06T18:00:00	3	Temperatura mínima	13.1
78476	7	Sololá	702	San José Chacayá	5	Chacayá	2	Febrero	2023-02-13T00:00:00	2024-11-06T18:00:00	5	Humedad	74
78477	7	Sololá	702	San José Chacayá	5	Chacayá	2	Febrero	2023-02-13T00:00:00	2024-11-06T18:00:00	6	Velocidad del viento	1.6
78478	7	Sololá	702	San José Chacayá	5	Chacayá	2	Febrero	2023-02-13T00:00:00	2024-11-06T18:00:00	7	Dirección del viento	1.61
78479	7	Sololá	702	San José Chacayá	5	Chacayá	2	Febrero	2023-02-13T00:00:00	2024-11-06T18:00:00	1	Precipitación	0
78480	7	Sololá	702	San José Chacayá	5	Chacayá	2	Febrero	2023-02-13T00:00:00	2024-11-06T18:00:00	8	Radiación solar	31
78481	7	Sololá	702	San José Chacayá	5	Chacayá	2	Febrero	2023-02-13T00:00:00	2024-11-06T19:00:00	2	Temperatura media	11.1
78482	7	Sololá	702	San José Chacayá	5	Chacayá	2	Febrero	2023-02-13T00:00:00	2024-11-06T19:00:00	4	Temperatura máxima	13.1
78483	7	Sololá	702	San José Chacayá	5	Chacayá	2	Febrero	2023-02-13T00:00:00	2024-11-06T19:00:00	3	Temperatura mínima	11.1
78484	7	Sololá	702	San José Chacayá	5	Chacayá	2	Febrero	2023-02-13T00:00:00	2024-11-06T19:00:00	5	Humedad	82
78485	7	Sololá	702	San José Chacayá	5	Chacayá	2	Febrero	2023-02-13T00:00:00	2024-11-06T19:00:00	6	Velocidad del viento	0
78486	7	Sololá	702	San José Chacayá	5	Chacayá	2	Febrero	2023-02-13T00:00:00	2024-11-06T19:00:00	7	Dirección del viento	0
78487	7	Sololá	702	San José Chacayá	5	Chacayá	2	Febrero	2023-02-13T00:00:00	2024-11-06T19:00:00	1	Precipitación	0
78488	7	Sololá	702	San José Chacayá	5	Chacayá	2	Febrero	2023-02-13T00:00:00	2024-11-06T19:00:00	8	Radiación solar	0
78489	7	Sololá	702	San José Chacayá	5	Chacayá	2	Febrero	2023-02-13T00:00:00	2024-11-06T20:00:00	2	Temperatura media	9.7
78490	7	Sololá	702	San José Chacayá	5	Chacayá	2	Febrero	2023-02-13T00:00:00	2024-11-06T20:00:00	4	Temperatura máxima	11.1
78491	7	Sololá	702	San José Chacayá	5	Chacayá	2	Febrero	2023-02-13T00:00:00	2024-11-06T20:00:00	3	Temperatura mínima	9.7
78492	7	Sololá	702	San José Chacayá	5	Chacayá	2	Febrero	2023-02-13T00:00:00	2024-11-06T20:00:00	5	Humedad	86
78493	7	Sololá	702	San José Chacayá	5	Chacayá	2	Febrero	2023-02-13T00:00:00	2024-11-06T20:00:00	6	Velocidad del viento	1.6
78494	7	Sololá	702	San José Chacayá	5	Chacayá	2	Febrero	2023-02-13T00:00:00	2024-11-06T20:00:00	7	Dirección del viento	1.61
78495	7	Sololá	702	San José Chacayá	5	Chacayá	2	Febrero	2023-02-13T00:00:00	2024-11-06T20:00:00	1	Precipitación	0
78496	7	Sololá	702	San José Chacayá	5	Chacayá	2	Febrero	2023-02-13T00:00:00	2024-11-06T20:00:00	8	Radiación solar	0
78497	7	Sololá	702	San José Chacayá	5	Chacayá	2	Febrero	2023-02-13T00:00:00	2024-11-06T21:00:00	2	Temperatura media	8.6
78498	7	Sololá	702	San José Chacayá	5	Chacayá	2	Febrero	2023-02-13T00:00:00	2024-11-06T21:00:00	4	Temperatura máxima	9.7
78499	7	Sololá	702	San José Chacayá	5	Chacayá	2	Febrero	2023-02-13T00:00:00	2024-11-06T21:00:00	3	Temperatura mínima	8.6
78500	7	Sololá	702	San José Chacayá	5	Chacayá	2	Febrero	2023-02-13T00:00:00	2024-11-06T21:00:00	5	Humedad	87
78501	7	Sololá	702	San José Chacayá	5	Chacayá	2	Febrero	2023-02-13T00:00:00	2024-11-06T21:00:00	6	Velocidad del viento	1.6
78502	7	Sololá	702	San José Chacayá	5	Chacayá	2	Febrero	2023-02-13T00:00:00	2024-11-06T21:00:00	7	Dirección del viento	1.61
78503	7	Sololá	702	San José Chacayá	5	Chacayá	2	Febrero	2023-02-13T00:00:00	2024-11-06T21:00:00	1	Precipitación	0
78504	7	Sololá	702	San José Chacayá	5	Chacayá	2	Febrero	2023-02-13T00:00:00	2024-11-06T21:00:00	8	Radiación solar	0
78505	7	Sololá	702	San José Chacayá	5	Chacayá	2	Febrero	2023-02-13T00:00:00	2024-11-06T22:00:00	2	Temperatura media	7.8
78506	7	Sololá	702	San José Chacayá	5	Chacayá	2	Febrero	2023-02-13T00:00:00	2024-11-06T22:00:00	4	Temperatura máxima	8.6
78507	7	Sololá	702	San José Chacayá	5	Chacayá	2	Febrero	2023-02-13T00:00:00	2024-11-06T22:00:00	3	Temperatura mínima	7.8
78508	7	Sololá	702	San José Chacayá	5	Chacayá	2	Febrero	2023-02-13T00:00:00	2024-11-06T22:00:00	5	Humedad	88
78509	7	Sololá	702	San José Chacayá	5	Chacayá	2	Febrero	2023-02-13T00:00:00	2024-11-06T22:00:00	6	Velocidad del viento	1.6
78510	7	Sololá	702	San José Chacayá	5	Chacayá	2	Febrero	2023-02-13T00:00:00	2024-11-06T22:00:00	7	Dirección del viento	1.61
78511	7	Sololá	702	San José Chacayá	5	Chacayá	2	Febrero	2023-02-13T00:00:00	2024-11-06T22:00:00	1	Precipitación	0
78512	7	Sololá	702	San José Chacayá	5	Chacayá	2	Febrero	2023-02-13T00:00:00	2024-11-06T22:00:00	8	Radiación solar	0
78513	7	Sololá	702	San José Chacayá	5	Chacayá	2	Febrero	2023-02-13T00:00:00	2024-11-06T23:00:00	2	Temperatura media	7.1
78514	7	Sololá	702	San José Chacayá	5	Chacayá	2	Febrero	2023-02-13T00:00:00	2024-11-06T23:00:00	4	Temperatura máxima	7.8
78515	7	Sololá	702	San José Chacayá	5	Chacayá	2	Febrero	2023-02-13T00:00:00	2024-11-06T23:00:00	3	Temperatura mínima	7.1
78516	7	Sololá	702	San José Chacayá	5	Chacayá	2	Febrero	2023-02-13T00:00:00	2024-11-06T23:00:00	5	Humedad	88
78517	7	Sololá	702	San José Chacayá	5	Chacayá	2	Febrero	2023-02-13T00:00:00	2024-11-06T23:00:00	6	Velocidad del viento	1.6
78518	7	Sololá	702	San José Chacayá	5	Chacayá	2	Febrero	2023-02-13T00:00:00	2024-11-06T23:00:00	7	Dirección del viento	1.61
78519	7	Sololá	702	San José Chacayá	5	Chacayá	2	Febrero	2023-02-13T00:00:00	2024-11-06T23:00:00	1	Precipitación	0
78520	7	Sololá	702	San José Chacayá	5	Chacayá	2	Febrero	2023-02-13T00:00:00	2024-11-06T23:00:00	8	Radiación solar	0
78521	7	Sololá	702	San José Chacayá	5	Chacayá	2	Febrero	2023-02-14T00:00:00	2024-11-06T00:00:00	2	Temperatura media	6.7
78522	7	Sololá	702	San José Chacayá	5	Chacayá	2	Febrero	2023-02-14T00:00:00	2024-11-06T00:00:00	4	Temperatura máxima	7.1
78523	7	Sololá	702	San José Chacayá	5	Chacayá	2	Febrero	2023-02-14T00:00:00	2024-11-06T00:00:00	3	Temperatura mínima	6.6
78524	7	Sololá	702	San José Chacayá	5	Chacayá	2	Febrero	2023-02-14T00:00:00	2024-11-06T00:00:00	5	Humedad	87
78525	7	Sololá	702	San José Chacayá	5	Chacayá	2	Febrero	2023-02-14T00:00:00	2024-11-06T00:00:00	6	Velocidad del viento	1.6
78526	7	Sololá	702	San José Chacayá	5	Chacayá	2	Febrero	2023-02-14T00:00:00	2024-11-06T00:00:00	7	Dirección del viento	1.61
78527	7	Sololá	702	San José Chacayá	5	Chacayá	2	Febrero	2023-02-14T00:00:00	2024-11-06T00:00:00	1	Precipitación	0
78528	7	Sololá	702	San José Chacayá	5	Chacayá	2	Febrero	2023-02-14T00:00:00	2024-11-06T00:00:00	8	Radiación solar	0
78529	7	Sololá	702	San José Chacayá	5	Chacayá	2	Febrero	2023-02-14T00:00:00	2024-11-06T01:00:00	2	Temperatura media	6.5
78530	7	Sololá	702	San José Chacayá	5	Chacayá	2	Febrero	2023-02-14T00:00:00	2024-11-06T01:00:00	4	Temperatura máxima	6.8
78531	7	Sololá	702	San José Chacayá	5	Chacayá	2	Febrero	2023-02-14T00:00:00	2024-11-06T01:00:00	3	Temperatura mínima	6.4
78532	7	Sololá	702	San José Chacayá	5	Chacayá	2	Febrero	2023-02-14T00:00:00	2024-11-06T01:00:00	5	Humedad	84
78533	7	Sololá	702	San José Chacayá	5	Chacayá	2	Febrero	2023-02-14T00:00:00	2024-11-06T01:00:00	6	Velocidad del viento	1.6
78534	7	Sololá	702	San José Chacayá	5	Chacayá	2	Febrero	2023-02-14T00:00:00	2024-11-06T01:00:00	7	Dirección del viento	1.61
78535	7	Sololá	702	San José Chacayá	5	Chacayá	2	Febrero	2023-02-14T00:00:00	2024-11-06T01:00:00	1	Precipitación	0
78536	7	Sololá	702	San José Chacayá	5	Chacayá	2	Febrero	2023-02-14T00:00:00	2024-11-06T01:00:00	8	Radiación solar	0
78537	7	Sololá	702	San José Chacayá	5	Chacayá	2	Febrero	2023-02-14T00:00:00	2024-11-06T02:00:00	2	Temperatura media	6.4
78538	7	Sololá	702	San José Chacayá	5	Chacayá	2	Febrero	2023-02-14T00:00:00	2024-11-06T02:00:00	4	Temperatura máxima	6.6
78539	7	Sololá	702	San José Chacayá	5	Chacayá	2	Febrero	2023-02-14T00:00:00	2024-11-06T02:00:00	3	Temperatura mínima	6.3
78540	7	Sololá	702	San José Chacayá	5	Chacayá	2	Febrero	2023-02-14T00:00:00	2024-11-06T02:00:00	5	Humedad	86
78541	7	Sololá	702	San José Chacayá	5	Chacayá	2	Febrero	2023-02-14T00:00:00	2024-11-06T02:00:00	6	Velocidad del viento	3.2
78542	7	Sololá	702	San José Chacayá	5	Chacayá	2	Febrero	2023-02-14T00:00:00	2024-11-06T02:00:00	7	Dirección del viento	3.22
78543	7	Sololá	702	San José Chacayá	5	Chacayá	2	Febrero	2023-02-14T00:00:00	2024-11-06T02:00:00	1	Precipitación	0
78544	7	Sololá	702	San José Chacayá	5	Chacayá	2	Febrero	2023-02-14T00:00:00	2024-11-06T02:00:00	8	Radiación solar	0
78545	7	Sololá	702	San José Chacayá	5	Chacayá	2	Febrero	2023-02-14T00:00:00	2024-11-06T03:00:00	2	Temperatura media	6.3
78546	7	Sololá	702	San José Chacayá	5	Chacayá	2	Febrero	2023-02-14T00:00:00	2024-11-06T03:00:00	4	Temperatura máxima	6.5
78547	7	Sololá	702	San José Chacayá	5	Chacayá	2	Febrero	2023-02-14T00:00:00	2024-11-06T03:00:00	3	Temperatura mínima	6.2
78548	7	Sololá	702	San José Chacayá	5	Chacayá	2	Febrero	2023-02-14T00:00:00	2024-11-06T03:00:00	5	Humedad	87
78549	7	Sololá	702	San José Chacayá	5	Chacayá	2	Febrero	2023-02-14T00:00:00	2024-11-06T03:00:00	6	Velocidad del viento	3.2
78550	7	Sololá	702	San José Chacayá	5	Chacayá	2	Febrero	2023-02-14T00:00:00	2024-11-06T03:00:00	7	Dirección del viento	3.22
78551	7	Sololá	702	San José Chacayá	5	Chacayá	2	Febrero	2023-02-14T00:00:00	2024-11-06T03:00:00	1	Precipitación	0
78552	7	Sololá	702	San José Chacayá	5	Chacayá	2	Febrero	2023-02-14T00:00:00	2024-11-06T03:00:00	8	Radiación solar	0
78553	7	Sololá	702	San José Chacayá	5	Chacayá	2	Febrero	2023-02-14T00:00:00	2024-11-06T04:00:00	2	Temperatura media	6.2
78554	7	Sololá	702	San José Chacayá	5	Chacayá	2	Febrero	2023-02-14T00:00:00	2024-11-06T04:00:00	4	Temperatura máxima	6.4
78555	7	Sololá	702	San José Chacayá	5	Chacayá	2	Febrero	2023-02-14T00:00:00	2024-11-06T04:00:00	3	Temperatura mínima	6.2
78556	7	Sololá	702	San José Chacayá	5	Chacayá	2	Febrero	2023-02-14T00:00:00	2024-11-06T04:00:00	5	Humedad	89
78557	7	Sololá	702	San José Chacayá	5	Chacayá	2	Febrero	2023-02-14T00:00:00	2024-11-06T04:00:00	6	Velocidad del viento	1.6
78558	7	Sololá	702	San José Chacayá	5	Chacayá	2	Febrero	2023-02-14T00:00:00	2024-11-06T04:00:00	7	Dirección del viento	1.61
78559	7	Sololá	702	San José Chacayá	5	Chacayá	2	Febrero	2023-02-14T00:00:00	2024-11-06T04:00:00	1	Precipitación	0
78560	7	Sololá	702	San José Chacayá	5	Chacayá	2	Febrero	2023-02-14T00:00:00	2024-11-06T04:00:00	8	Radiación solar	0
78561	7	Sololá	702	San José Chacayá	5	Chacayá	2	Febrero	2023-02-14T00:00:00	2024-11-06T05:00:00	2	Temperatura media	6.1
78562	7	Sololá	702	San José Chacayá	5	Chacayá	2	Febrero	2023-02-14T00:00:00	2024-11-06T05:00:00	4	Temperatura máxima	6.2
78563	7	Sololá	702	San José Chacayá	5	Chacayá	2	Febrero	2023-02-14T00:00:00	2024-11-06T05:00:00	3	Temperatura mínima	6
78564	7	Sololá	702	San José Chacayá	5	Chacayá	2	Febrero	2023-02-14T00:00:00	2024-11-06T05:00:00	5	Humedad	89
78565	7	Sololá	702	San José Chacayá	5	Chacayá	2	Febrero	2023-02-14T00:00:00	2024-11-06T05:00:00	6	Velocidad del viento	1.6
78566	7	Sololá	702	San José Chacayá	5	Chacayá	2	Febrero	2023-02-14T00:00:00	2024-11-06T05:00:00	7	Dirección del viento	1.61
78567	7	Sololá	702	San José Chacayá	5	Chacayá	2	Febrero	2023-02-14T00:00:00	2024-11-06T05:00:00	1	Precipitación	0
78568	7	Sololá	702	San José Chacayá	5	Chacayá	2	Febrero	2023-02-14T00:00:00	2024-11-06T05:00:00	8	Radiación solar	0
78569	7	Sololá	702	San José Chacayá	5	Chacayá	2	Febrero	2023-02-14T00:00:00	2024-11-06T06:00:00	2	Temperatura media	6.8
78570	7	Sololá	702	San José Chacayá	5	Chacayá	2	Febrero	2023-02-14T00:00:00	2024-11-06T06:00:00	4	Temperatura máxima	6.8
78571	7	Sololá	702	San José Chacayá	5	Chacayá	2	Febrero	2023-02-14T00:00:00	2024-11-06T06:00:00	3	Temperatura mínima	6
78572	7	Sololá	702	San José Chacayá	5	Chacayá	2	Febrero	2023-02-14T00:00:00	2024-11-06T06:00:00	5	Humedad	88
78573	7	Sololá	702	San José Chacayá	5	Chacayá	2	Febrero	2023-02-14T00:00:00	2024-11-06T06:00:00	6	Velocidad del viento	1.6
78574	7	Sololá	702	San José Chacayá	5	Chacayá	2	Febrero	2023-02-14T00:00:00	2024-11-06T06:00:00	7	Dirección del viento	1.61
78575	7	Sololá	702	San José Chacayá	5	Chacayá	2	Febrero	2023-02-14T00:00:00	2024-11-06T06:00:00	1	Precipitación	0
78576	7	Sololá	702	San José Chacayá	5	Chacayá	2	Febrero	2023-02-14T00:00:00	2024-11-06T06:00:00	8	Radiación solar	0
78577	7	Sololá	702	San José Chacayá	5	Chacayá	2	Febrero	2023-02-14T00:00:00	2024-11-06T07:00:00	2	Temperatura media	13.2
78578	7	Sololá	702	San José Chacayá	5	Chacayá	2	Febrero	2023-02-14T00:00:00	2024-11-06T07:00:00	4	Temperatura máxima	13.2
78579	7	Sololá	702	San José Chacayá	5	Chacayá	2	Febrero	2023-02-14T00:00:00	2024-11-06T07:00:00	3	Temperatura mínima	6.8
78580	7	Sololá	702	San José Chacayá	5	Chacayá	2	Febrero	2023-02-14T00:00:00	2024-11-06T07:00:00	5	Humedad	74
78581	7	Sololá	702	San José Chacayá	5	Chacayá	2	Febrero	2023-02-14T00:00:00	2024-11-06T07:00:00	6	Velocidad del viento	1.6
78582	7	Sololá	702	San José Chacayá	5	Chacayá	2	Febrero	2023-02-14T00:00:00	2024-11-06T07:00:00	7	Dirección del viento	1.61
78583	7	Sololá	702	San José Chacayá	5	Chacayá	2	Febrero	2023-02-14T00:00:00	2024-11-06T07:00:00	1	Precipitación	0
78584	7	Sololá	702	San José Chacayá	5	Chacayá	2	Febrero	2023-02-14T00:00:00	2024-11-06T07:00:00	8	Radiación solar	12
78585	7	Sololá	702	San José Chacayá	5	Chacayá	2	Febrero	2023-02-14T00:00:00	2024-11-06T08:00:00	2	Temperatura media	18.4
78586	7	Sololá	702	San José Chacayá	5	Chacayá	2	Febrero	2023-02-14T00:00:00	2024-11-06T08:00:00	4	Temperatura máxima	18.6
78587	7	Sololá	702	San José Chacayá	5	Chacayá	2	Febrero	2023-02-14T00:00:00	2024-11-06T08:00:00	3	Temperatura mínima	13.2
78588	7	Sololá	702	San José Chacayá	5	Chacayá	2	Febrero	2023-02-14T00:00:00	2024-11-06T08:00:00	5	Humedad	55
78589	7	Sololá	702	San José Chacayá	5	Chacayá	2	Febrero	2023-02-14T00:00:00	2024-11-06T08:00:00	6	Velocidad del viento	1.6
78590	7	Sololá	702	San José Chacayá	5	Chacayá	2	Febrero	2023-02-14T00:00:00	2024-11-06T08:00:00	7	Dirección del viento	1.61
78591	7	Sololá	702	San José Chacayá	5	Chacayá	2	Febrero	2023-02-14T00:00:00	2024-11-06T08:00:00	1	Precipitación	0
78592	7	Sololá	702	San José Chacayá	5	Chacayá	2	Febrero	2023-02-14T00:00:00	2024-11-06T08:00:00	8	Radiación solar	177
78593	7	Sololá	702	San José Chacayá	5	Chacayá	2	Febrero	2023-02-14T00:00:00	2024-11-06T09:00:00	2	Temperatura media	19.5
78594	7	Sololá	702	San José Chacayá	5	Chacayá	2	Febrero	2023-02-14T00:00:00	2024-11-06T09:00:00	4	Temperatura máxima	19.6
78595	7	Sololá	702	San José Chacayá	5	Chacayá	2	Febrero	2023-02-14T00:00:00	2024-11-06T09:00:00	3	Temperatura mínima	18.4
78596	7	Sololá	702	San José Chacayá	5	Chacayá	2	Febrero	2023-02-14T00:00:00	2024-11-06T09:00:00	5	Humedad	57
78597	7	Sololá	702	San José Chacayá	5	Chacayá	2	Febrero	2023-02-14T00:00:00	2024-11-06T09:00:00	6	Velocidad del viento	3.2
78598	7	Sololá	702	San José Chacayá	5	Chacayá	2	Febrero	2023-02-14T00:00:00	2024-11-06T09:00:00	7	Dirección del viento	3.22
78599	7	Sololá	702	San José Chacayá	5	Chacayá	2	Febrero	2023-02-14T00:00:00	2024-11-06T09:00:00	1	Precipitación	0
78600	7	Sololá	702	San José Chacayá	5	Chacayá	2	Febrero	2023-02-14T00:00:00	2024-11-06T09:00:00	8	Radiación solar	413
78601	7	Sololá	702	San José Chacayá	5	Chacayá	2	Febrero	2023-02-14T00:00:00	2024-11-06T10:00:00	2	Temperatura media	20
78602	7	Sololá	702	San José Chacayá	5	Chacayá	2	Febrero	2023-02-14T00:00:00	2024-11-06T10:00:00	4	Temperatura máxima	20.2
78603	7	Sololá	702	San José Chacayá	5	Chacayá	2	Febrero	2023-02-14T00:00:00	2024-11-06T10:00:00	3	Temperatura mínima	19.5
78604	7	Sololá	702	San José Chacayá	5	Chacayá	2	Febrero	2023-02-14T00:00:00	2024-11-06T10:00:00	5	Humedad	52
78605	7	Sololá	702	San José Chacayá	5	Chacayá	2	Febrero	2023-02-14T00:00:00	2024-11-06T10:00:00	6	Velocidad del viento	6.4
78606	7	Sololá	702	San José Chacayá	5	Chacayá	2	Febrero	2023-02-14T00:00:00	2024-11-06T10:00:00	7	Dirección del viento	6.44
78607	7	Sololá	702	San José Chacayá	5	Chacayá	2	Febrero	2023-02-14T00:00:00	2024-11-06T10:00:00	1	Precipitación	0
78608	7	Sololá	702	San José Chacayá	5	Chacayá	2	Febrero	2023-02-14T00:00:00	2024-11-06T10:00:00	8	Radiación solar	626
78609	7	Sololá	702	San José Chacayá	5	Chacayá	2	Febrero	2023-02-14T00:00:00	2024-11-06T11:00:00	2	Temperatura media	20.5
78610	7	Sololá	702	San José Chacayá	5	Chacayá	2	Febrero	2023-02-14T00:00:00	2024-11-06T11:00:00	4	Temperatura máxima	21.1
78611	7	Sololá	702	San José Chacayá	5	Chacayá	2	Febrero	2023-02-14T00:00:00	2024-11-06T11:00:00	3	Temperatura mínima	19.6
78612	7	Sololá	702	San José Chacayá	5	Chacayá	2	Febrero	2023-02-14T00:00:00	2024-11-06T11:00:00	5	Humedad	50
78613	7	Sololá	702	San José Chacayá	5	Chacayá	2	Febrero	2023-02-14T00:00:00	2024-11-06T11:00:00	6	Velocidad del viento	6.4
78614	7	Sololá	702	San José Chacayá	5	Chacayá	2	Febrero	2023-02-14T00:00:00	2024-11-06T11:00:00	7	Dirección del viento	6.44
78615	7	Sololá	702	San José Chacayá	5	Chacayá	2	Febrero	2023-02-14T00:00:00	2024-11-06T11:00:00	1	Precipitación	0
78616	7	Sololá	702	San José Chacayá	5	Chacayá	2	Febrero	2023-02-14T00:00:00	2024-11-06T11:00:00	8	Radiación solar	796
78617	7	Sololá	702	San José Chacayá	5	Chacayá	2	Febrero	2023-02-14T00:00:00	2024-11-06T12:00:00	2	Temperatura media	20.8
78618	7	Sololá	702	San José Chacayá	5	Chacayá	2	Febrero	2023-02-14T00:00:00	2024-11-06T12:00:00	4	Temperatura máxima	21.2
78619	7	Sololá	702	San José Chacayá	5	Chacayá	2	Febrero	2023-02-14T00:00:00	2024-11-06T12:00:00	3	Temperatura mínima	20.4
78620	7	Sololá	702	San José Chacayá	5	Chacayá	2	Febrero	2023-02-14T00:00:00	2024-11-06T12:00:00	5	Humedad	58
78621	7	Sololá	702	San José Chacayá	5	Chacayá	2	Febrero	2023-02-14T00:00:00	2024-11-06T12:00:00	6	Velocidad del viento	6.4
78622	7	Sololá	702	San José Chacayá	5	Chacayá	2	Febrero	2023-02-14T00:00:00	2024-11-06T12:00:00	7	Dirección del viento	6.44
78623	7	Sololá	702	San José Chacayá	5	Chacayá	2	Febrero	2023-02-14T00:00:00	2024-11-06T12:00:00	1	Precipitación	0
78624	7	Sololá	702	San José Chacayá	5	Chacayá	2	Febrero	2023-02-14T00:00:00	2024-11-06T12:00:00	8	Radiación solar	883
78625	7	Sololá	702	San José Chacayá	5	Chacayá	2	Febrero	2023-02-14T00:00:00	2024-11-06T13:00:00	2	Temperatura media	20.4
78626	7	Sololá	702	San José Chacayá	5	Chacayá	2	Febrero	2023-02-14T00:00:00	2024-11-06T13:00:00	4	Temperatura máxima	20.9
78627	7	Sololá	702	San José Chacayá	5	Chacayá	2	Febrero	2023-02-14T00:00:00	2024-11-06T13:00:00	3	Temperatura mínima	20.3
78628	7	Sololá	702	San José Chacayá	5	Chacayá	2	Febrero	2023-02-14T00:00:00	2024-11-06T13:00:00	5	Humedad	62
78629	7	Sololá	702	San José Chacayá	5	Chacayá	2	Febrero	2023-02-14T00:00:00	2024-11-06T13:00:00	6	Velocidad del viento	8
78630	7	Sololá	702	San José Chacayá	5	Chacayá	2	Febrero	2023-02-14T00:00:00	2024-11-06T13:00:00	7	Dirección del viento	8.05
78631	7	Sololá	702	San José Chacayá	5	Chacayá	2	Febrero	2023-02-14T00:00:00	2024-11-06T13:00:00	1	Precipitación	0
78632	7	Sololá	702	San José Chacayá	5	Chacayá	2	Febrero	2023-02-14T00:00:00	2024-11-06T13:00:00	8	Radiación solar	905
78633	7	Sololá	702	San José Chacayá	5	Chacayá	2	Febrero	2023-02-14T00:00:00	2024-11-06T14:00:00	2	Temperatura media	20.2
78634	7	Sololá	702	San José Chacayá	5	Chacayá	2	Febrero	2023-02-14T00:00:00	2024-11-06T14:00:00	4	Temperatura máxima	20.6
78635	7	Sololá	702	San José Chacayá	5	Chacayá	2	Febrero	2023-02-14T00:00:00	2024-11-06T14:00:00	3	Temperatura mínima	20.1
78636	7	Sololá	702	San José Chacayá	5	Chacayá	2	Febrero	2023-02-14T00:00:00	2024-11-06T14:00:00	5	Humedad	66
78637	7	Sololá	702	San José Chacayá	5	Chacayá	2	Febrero	2023-02-14T00:00:00	2024-11-06T14:00:00	6	Velocidad del viento	6.4
78638	7	Sololá	702	San José Chacayá	5	Chacayá	2	Febrero	2023-02-14T00:00:00	2024-11-06T14:00:00	7	Dirección del viento	6.44
78639	7	Sololá	702	San José Chacayá	5	Chacayá	2	Febrero	2023-02-14T00:00:00	2024-11-06T14:00:00	1	Precipitación	0
78640	7	Sololá	702	San José Chacayá	5	Chacayá	2	Febrero	2023-02-14T00:00:00	2024-11-06T14:00:00	8	Radiación solar	852
78641	7	Sololá	702	San José Chacayá	5	Chacayá	2	Febrero	2023-02-14T00:00:00	2024-11-06T15:00:00	2	Temperatura media	18.5
78642	7	Sololá	702	San José Chacayá	5	Chacayá	2	Febrero	2023-02-14T00:00:00	2024-11-06T15:00:00	4	Temperatura máxima	20.2
78643	7	Sololá	702	San José Chacayá	5	Chacayá	2	Febrero	2023-02-14T00:00:00	2024-11-06T15:00:00	3	Temperatura mínima	18.5
78644	7	Sololá	702	San José Chacayá	5	Chacayá	2	Febrero	2023-02-14T00:00:00	2024-11-06T15:00:00	5	Humedad	73
78645	7	Sololá	702	San José Chacayá	5	Chacayá	2	Febrero	2023-02-14T00:00:00	2024-11-06T15:00:00	6	Velocidad del viento	6.4
78646	7	Sololá	702	San José Chacayá	5	Chacayá	2	Febrero	2023-02-14T00:00:00	2024-11-06T15:00:00	7	Dirección del viento	6.44
78647	7	Sololá	702	San José Chacayá	5	Chacayá	2	Febrero	2023-02-14T00:00:00	2024-11-06T15:00:00	1	Precipitación	0
78648	7	Sololá	702	San José Chacayá	5	Chacayá	2	Febrero	2023-02-14T00:00:00	2024-11-06T15:00:00	8	Radiación solar	726
78649	7	Sololá	702	San José Chacayá	5	Chacayá	2	Febrero	2023-02-14T00:00:00	2024-11-06T16:00:00	2	Temperatura media	17.2
78650	7	Sololá	702	San José Chacayá	5	Chacayá	2	Febrero	2023-02-14T00:00:00	2024-11-06T16:00:00	4	Temperatura máxima	18.9
78651	7	Sololá	702	San José Chacayá	5	Chacayá	2	Febrero	2023-02-14T00:00:00	2024-11-06T16:00:00	3	Temperatura mínima	17.2
78652	7	Sololá	702	San José Chacayá	5	Chacayá	2	Febrero	2023-02-14T00:00:00	2024-11-06T16:00:00	5	Humedad	79
78653	7	Sololá	702	San José Chacayá	5	Chacayá	2	Febrero	2023-02-14T00:00:00	2024-11-06T16:00:00	6	Velocidad del viento	3.2
78654	7	Sololá	702	San José Chacayá	5	Chacayá	2	Febrero	2023-02-14T00:00:00	2024-11-06T16:00:00	7	Dirección del viento	3.22
78655	7	Sololá	702	San José Chacayá	5	Chacayá	2	Febrero	2023-02-14T00:00:00	2024-11-06T16:00:00	1	Precipitación	0
78656	7	Sololá	702	San José Chacayá	5	Chacayá	2	Febrero	2023-02-14T00:00:00	2024-11-06T16:00:00	8	Radiación solar	539
78657	7	Sololá	702	San José Chacayá	5	Chacayá	2	Febrero	2023-02-14T00:00:00	2024-11-06T17:00:00	2	Temperatura media	14.5
78658	7	Sololá	702	San José Chacayá	5	Chacayá	2	Febrero	2023-02-14T00:00:00	2024-11-06T17:00:00	4	Temperatura máxima	17.2
78659	7	Sololá	702	San José Chacayá	5	Chacayá	2	Febrero	2023-02-14T00:00:00	2024-11-06T17:00:00	3	Temperatura mínima	14.5
78660	7	Sololá	702	San José Chacayá	5	Chacayá	2	Febrero	2023-02-14T00:00:00	2024-11-06T17:00:00	5	Humedad	89
78661	7	Sololá	702	San José Chacayá	5	Chacayá	2	Febrero	2023-02-14T00:00:00	2024-11-06T17:00:00	6	Velocidad del viento	1.6
78662	7	Sololá	702	San José Chacayá	5	Chacayá	2	Febrero	2023-02-14T00:00:00	2024-11-06T17:00:00	7	Dirección del viento	1.61
78663	7	Sololá	702	San José Chacayá	5	Chacayá	2	Febrero	2023-02-14T00:00:00	2024-11-06T17:00:00	1	Precipitación	0
78664	7	Sololá	702	San José Chacayá	5	Chacayá	2	Febrero	2023-02-14T00:00:00	2024-11-06T17:00:00	8	Radiación solar	315
78665	7	Sololá	702	San José Chacayá	5	Chacayá	2	Febrero	2023-02-14T00:00:00	2024-11-06T18:00:00	2	Temperatura media	13.7
78666	7	Sololá	702	San José Chacayá	5	Chacayá	2	Febrero	2023-02-14T00:00:00	2024-11-06T18:00:00	4	Temperatura máxima	14.5
78667	7	Sololá	702	San José Chacayá	5	Chacayá	2	Febrero	2023-02-14T00:00:00	2024-11-06T18:00:00	3	Temperatura mínima	13.6
78668	7	Sololá	702	San José Chacayá	5	Chacayá	2	Febrero	2023-02-14T00:00:00	2024-11-06T18:00:00	5	Humedad	92
78669	7	Sololá	702	San José Chacayá	5	Chacayá	2	Febrero	2023-02-14T00:00:00	2024-11-06T18:00:00	6	Velocidad del viento	0
78670	7	Sololá	702	San José Chacayá	5	Chacayá	2	Febrero	2023-02-14T00:00:00	2024-11-06T18:00:00	7	Dirección del viento	0
78671	7	Sololá	702	San José Chacayá	5	Chacayá	2	Febrero	2023-02-14T00:00:00	2024-11-06T18:00:00	1	Precipitación	0
78672	7	Sololá	702	San José Chacayá	5	Chacayá	2	Febrero	2023-02-14T00:00:00	2024-11-06T18:00:00	8	Radiación solar	66
78673	7	Sololá	702	San José Chacayá	5	Chacayá	2	Febrero	2023-02-14T00:00:00	2024-11-06T19:00:00	2	Temperatura media	12.4
78674	7	Sololá	702	San José Chacayá	5	Chacayá	2	Febrero	2023-02-14T00:00:00	2024-11-06T19:00:00	4	Temperatura máxima	13.7
78675	7	Sololá	702	San José Chacayá	5	Chacayá	2	Febrero	2023-02-14T00:00:00	2024-11-06T19:00:00	3	Temperatura mínima	12.4
78676	7	Sololá	702	San José Chacayá	5	Chacayá	2	Febrero	2023-02-14T00:00:00	2024-11-06T19:00:00	5	Humedad	93
78677	7	Sololá	702	San José Chacayá	5	Chacayá	2	Febrero	2023-02-14T00:00:00	2024-11-06T19:00:00	6	Velocidad del viento	1.6
78678	7	Sololá	702	San José Chacayá	5	Chacayá	2	Febrero	2023-02-14T00:00:00	2024-11-06T19:00:00	7	Dirección del viento	1.61
78679	7	Sololá	702	San José Chacayá	5	Chacayá	2	Febrero	2023-02-14T00:00:00	2024-11-06T19:00:00	1	Precipitación	0
78680	7	Sololá	702	San José Chacayá	5	Chacayá	2	Febrero	2023-02-14T00:00:00	2024-11-06T19:00:00	8	Radiación solar	0
78681	7	Sololá	702	San José Chacayá	5	Chacayá	2	Febrero	2023-02-14T00:00:00	2024-11-06T20:00:00	2	Temperatura media	10.8
78682	7	Sololá	702	San José Chacayá	5	Chacayá	2	Febrero	2023-02-14T00:00:00	2024-11-06T20:00:00	4	Temperatura máxima	12.4
78683	7	Sololá	702	San José Chacayá	5	Chacayá	2	Febrero	2023-02-14T00:00:00	2024-11-06T20:00:00	3	Temperatura mínima	10.8
78684	7	Sololá	702	San José Chacayá	5	Chacayá	2	Febrero	2023-02-14T00:00:00	2024-11-06T20:00:00	5	Humedad	90
78685	7	Sololá	702	San José Chacayá	5	Chacayá	2	Febrero	2023-02-14T00:00:00	2024-11-06T20:00:00	6	Velocidad del viento	1.6
78686	7	Sololá	702	San José Chacayá	5	Chacayá	2	Febrero	2023-02-14T00:00:00	2024-11-06T20:00:00	7	Dirección del viento	1.61
78687	7	Sololá	702	San José Chacayá	5	Chacayá	2	Febrero	2023-02-14T00:00:00	2024-11-06T20:00:00	1	Precipitación	0
78688	7	Sololá	702	San José Chacayá	5	Chacayá	2	Febrero	2023-02-14T00:00:00	2024-11-06T20:00:00	8	Radiación solar	0
78689	7	Sololá	702	San José Chacayá	5	Chacayá	2	Febrero	2023-02-14T00:00:00	2024-11-06T21:00:00	2	Temperatura media	9.6
78690	7	Sololá	702	San José Chacayá	5	Chacayá	2	Febrero	2023-02-14T00:00:00	2024-11-06T21:00:00	4	Temperatura máxima	10.8
78691	7	Sololá	702	San José Chacayá	5	Chacayá	2	Febrero	2023-02-14T00:00:00	2024-11-06T21:00:00	3	Temperatura mínima	9.6
78692	7	Sololá	702	San José Chacayá	5	Chacayá	2	Febrero	2023-02-14T00:00:00	2024-11-06T21:00:00	5	Humedad	89
78693	7	Sololá	702	San José Chacayá	5	Chacayá	2	Febrero	2023-02-14T00:00:00	2024-11-06T21:00:00	6	Velocidad del viento	1.6
78694	7	Sololá	702	San José Chacayá	5	Chacayá	2	Febrero	2023-02-14T00:00:00	2024-11-06T21:00:00	7	Dirección del viento	1.61
78695	7	Sololá	702	San José Chacayá	5	Chacayá	2	Febrero	2023-02-14T00:00:00	2024-11-06T21:00:00	1	Precipitación	0
78696	7	Sololá	702	San José Chacayá	5	Chacayá	2	Febrero	2023-02-14T00:00:00	2024-11-06T21:00:00	8	Radiación solar	0
78697	7	Sololá	702	San José Chacayá	5	Chacayá	2	Febrero	2023-02-14T00:00:00	2024-11-06T22:00:00	2	Temperatura media	8.8
78698	7	Sololá	702	San José Chacayá	5	Chacayá	2	Febrero	2023-02-14T00:00:00	2024-11-06T22:00:00	4	Temperatura máxima	9.6
78699	7	Sololá	702	San José Chacayá	5	Chacayá	2	Febrero	2023-02-14T00:00:00	2024-11-06T22:00:00	3	Temperatura mínima	8.8
78700	7	Sololá	702	San José Chacayá	5	Chacayá	2	Febrero	2023-02-14T00:00:00	2024-11-06T22:00:00	5	Humedad	90
78701	7	Sololá	702	San José Chacayá	5	Chacayá	2	Febrero	2023-02-14T00:00:00	2024-11-06T22:00:00	6	Velocidad del viento	1.6
78702	7	Sololá	702	San José Chacayá	5	Chacayá	2	Febrero	2023-02-14T00:00:00	2024-11-06T22:00:00	7	Dirección del viento	1.61
78703	7	Sololá	702	San José Chacayá	5	Chacayá	2	Febrero	2023-02-14T00:00:00	2024-11-06T22:00:00	1	Precipitación	0
78704	7	Sololá	702	San José Chacayá	5	Chacayá	2	Febrero	2023-02-14T00:00:00	2024-11-06T22:00:00	8	Radiación solar	0
78705	7	Sololá	702	San José Chacayá	5	Chacayá	2	Febrero	2023-02-14T00:00:00	2024-11-06T23:00:00	2	Temperatura media	8.3
78706	7	Sololá	702	San José Chacayá	5	Chacayá	2	Febrero	2023-02-14T00:00:00	2024-11-06T23:00:00	4	Temperatura máxima	8.8
78707	7	Sololá	702	San José Chacayá	5	Chacayá	2	Febrero	2023-02-14T00:00:00	2024-11-06T23:00:00	3	Temperatura mínima	8.3
78708	7	Sololá	702	San José Chacayá	5	Chacayá	2	Febrero	2023-02-14T00:00:00	2024-11-06T23:00:00	5	Humedad	92
78709	7	Sololá	702	San José Chacayá	5	Chacayá	2	Febrero	2023-02-14T00:00:00	2024-11-06T23:00:00	6	Velocidad del viento	1.6
78710	7	Sololá	702	San José Chacayá	5	Chacayá	2	Febrero	2023-02-14T00:00:00	2024-11-06T23:00:00	7	Dirección del viento	1.61
78711	7	Sololá	702	San José Chacayá	5	Chacayá	2	Febrero	2023-02-14T00:00:00	2024-11-06T23:00:00	1	Precipitación	0
78712	7	Sololá	702	San José Chacayá	5	Chacayá	2	Febrero	2023-02-14T00:00:00	2024-11-06T23:00:00	8	Radiación solar	0
78713	7	Sololá	702	San José Chacayá	5	Chacayá	2	Febrero	2023-02-15T00:00:00	2024-11-06T00:00:00	2	Temperatura media	8.1
78714	7	Sololá	702	San José Chacayá	5	Chacayá	2	Febrero	2023-02-15T00:00:00	2024-11-06T00:00:00	4	Temperatura máxima	8.6
78715	7	Sololá	702	San José Chacayá	5	Chacayá	2	Febrero	2023-02-15T00:00:00	2024-11-06T00:00:00	3	Temperatura mínima	8.1
78716	7	Sololá	702	San José Chacayá	5	Chacayá	2	Febrero	2023-02-15T00:00:00	2024-11-06T00:00:00	5	Humedad	92
78717	7	Sololá	702	San José Chacayá	5	Chacayá	2	Febrero	2023-02-15T00:00:00	2024-11-06T00:00:00	6	Velocidad del viento	1.6
78718	7	Sololá	702	San José Chacayá	5	Chacayá	2	Febrero	2023-02-15T00:00:00	2024-11-06T00:00:00	7	Dirección del viento	1.61
78719	7	Sololá	702	San José Chacayá	5	Chacayá	2	Febrero	2023-02-15T00:00:00	2024-11-06T00:00:00	1	Precipitación	0
78720	7	Sololá	702	San José Chacayá	5	Chacayá	2	Febrero	2023-02-15T00:00:00	2024-11-06T00:00:00	8	Radiación solar	0
78721	7	Sololá	702	San José Chacayá	5	Chacayá	2	Febrero	2023-02-15T00:00:00	2024-11-06T01:00:00	2	Temperatura media	7.7
78722	7	Sololá	702	San José Chacayá	5	Chacayá	2	Febrero	2023-02-15T00:00:00	2024-11-06T01:00:00	4	Temperatura máxima	8.2
78723	7	Sololá	702	San José Chacayá	5	Chacayá	2	Febrero	2023-02-15T00:00:00	2024-11-06T01:00:00	3	Temperatura mínima	7.7
78724	7	Sololá	702	San José Chacayá	5	Chacayá	2	Febrero	2023-02-15T00:00:00	2024-11-06T01:00:00	5	Humedad	92
78725	7	Sololá	702	San José Chacayá	5	Chacayá	2	Febrero	2023-02-15T00:00:00	2024-11-06T01:00:00	6	Velocidad del viento	1.6
78726	7	Sololá	702	San José Chacayá	5	Chacayá	2	Febrero	2023-02-15T00:00:00	2024-11-06T01:00:00	7	Dirección del viento	1.61
78727	7	Sololá	702	San José Chacayá	5	Chacayá	2	Febrero	2023-02-15T00:00:00	2024-11-06T01:00:00	1	Precipitación	0
78728	7	Sololá	702	San José Chacayá	5	Chacayá	2	Febrero	2023-02-15T00:00:00	2024-11-06T01:00:00	8	Radiación solar	0
78729	7	Sololá	702	San José Chacayá	5	Chacayá	2	Febrero	2023-02-15T00:00:00	2024-11-06T02:00:00	2	Temperatura media	7.2
78730	7	Sololá	702	San José Chacayá	5	Chacayá	2	Febrero	2023-02-15T00:00:00	2024-11-06T02:00:00	4	Temperatura máxima	7.8
78731	7	Sololá	702	San José Chacayá	5	Chacayá	2	Febrero	2023-02-15T00:00:00	2024-11-06T02:00:00	3	Temperatura mínima	7.2
78732	7	Sololá	702	San José Chacayá	5	Chacayá	2	Febrero	2023-02-15T00:00:00	2024-11-06T02:00:00	5	Humedad	88
78733	7	Sololá	702	San José Chacayá	5	Chacayá	2	Febrero	2023-02-15T00:00:00	2024-11-06T02:00:00	6	Velocidad del viento	1.6
78734	7	Sololá	702	San José Chacayá	5	Chacayá	2	Febrero	2023-02-15T00:00:00	2024-11-06T02:00:00	7	Dirección del viento	1.61
78735	7	Sololá	702	San José Chacayá	5	Chacayá	2	Febrero	2023-02-15T00:00:00	2024-11-06T02:00:00	1	Precipitación	0
78736	7	Sololá	702	San José Chacayá	5	Chacayá	2	Febrero	2023-02-15T00:00:00	2024-11-06T02:00:00	8	Radiación solar	0
78737	7	Sololá	702	San José Chacayá	5	Chacayá	2	Febrero	2023-02-15T00:00:00	2024-11-06T03:00:00	2	Temperatura media	6.4
78738	7	Sololá	702	San José Chacayá	5	Chacayá	2	Febrero	2023-02-15T00:00:00	2024-11-06T03:00:00	4	Temperatura máxima	7.2
78739	7	Sololá	702	San José Chacayá	5	Chacayá	2	Febrero	2023-02-15T00:00:00	2024-11-06T03:00:00	3	Temperatura mínima	6.3
78740	7	Sololá	702	San José Chacayá	5	Chacayá	2	Febrero	2023-02-15T00:00:00	2024-11-06T03:00:00	5	Humedad	89
78741	7	Sololá	702	San José Chacayá	5	Chacayá	2	Febrero	2023-02-15T00:00:00	2024-11-06T03:00:00	6	Velocidad del viento	1.6
78742	7	Sololá	702	San José Chacayá	5	Chacayá	2	Febrero	2023-02-15T00:00:00	2024-11-06T03:00:00	7	Dirección del viento	1.61
78743	7	Sololá	702	San José Chacayá	5	Chacayá	2	Febrero	2023-02-15T00:00:00	2024-11-06T03:00:00	1	Precipitación	0
78744	7	Sololá	702	San José Chacayá	5	Chacayá	2	Febrero	2023-02-15T00:00:00	2024-11-06T03:00:00	8	Radiación solar	0
78745	7	Sololá	702	San José Chacayá	5	Chacayá	2	Febrero	2023-02-15T00:00:00	2024-11-06T04:00:00	2	Temperatura media	5.7
78746	7	Sololá	702	San José Chacayá	5	Chacayá	2	Febrero	2023-02-15T00:00:00	2024-11-06T04:00:00	4	Temperatura máxima	6.5
78747	7	Sololá	702	San José Chacayá	5	Chacayá	2	Febrero	2023-02-15T00:00:00	2024-11-06T04:00:00	3	Temperatura mínima	5.7
78748	7	Sololá	702	San José Chacayá	5	Chacayá	2	Febrero	2023-02-15T00:00:00	2024-11-06T04:00:00	5	Humedad	88
78749	7	Sololá	702	San José Chacayá	5	Chacayá	2	Febrero	2023-02-15T00:00:00	2024-11-06T04:00:00	6	Velocidad del viento	1.6
78750	7	Sololá	702	San José Chacayá	5	Chacayá	2	Febrero	2023-02-15T00:00:00	2024-11-06T04:00:00	7	Dirección del viento	1.61
78751	7	Sololá	702	San José Chacayá	5	Chacayá	2	Febrero	2023-02-15T00:00:00	2024-11-06T04:00:00	1	Precipitación	0
78752	7	Sololá	702	San José Chacayá	5	Chacayá	2	Febrero	2023-02-15T00:00:00	2024-11-06T04:00:00	8	Radiación solar	0
78753	7	Sololá	702	San José Chacayá	5	Chacayá	2	Febrero	2023-02-15T00:00:00	2024-11-06T05:00:00	2	Temperatura media	4.9
78754	7	Sololá	702	San José Chacayá	5	Chacayá	2	Febrero	2023-02-15T00:00:00	2024-11-06T05:00:00	4	Temperatura máxima	5.7
78755	7	Sololá	702	San José Chacayá	5	Chacayá	2	Febrero	2023-02-15T00:00:00	2024-11-06T05:00:00	3	Temperatura mínima	4.9
78756	7	Sololá	702	San José Chacayá	5	Chacayá	2	Febrero	2023-02-15T00:00:00	2024-11-06T05:00:00	5	Humedad	87
78757	7	Sololá	702	San José Chacayá	5	Chacayá	2	Febrero	2023-02-15T00:00:00	2024-11-06T05:00:00	6	Velocidad del viento	3.2
78758	7	Sololá	702	San José Chacayá	5	Chacayá	2	Febrero	2023-02-15T00:00:00	2024-11-06T05:00:00	7	Dirección del viento	3.22
78759	7	Sololá	702	San José Chacayá	5	Chacayá	2	Febrero	2023-02-15T00:00:00	2024-11-06T05:00:00	1	Precipitación	0
78760	7	Sololá	702	San José Chacayá	5	Chacayá	2	Febrero	2023-02-15T00:00:00	2024-11-06T05:00:00	8	Radiación solar	0
78761	7	Sololá	702	San José Chacayá	5	Chacayá	2	Febrero	2023-02-15T00:00:00	2024-11-06T06:00:00	2	Temperatura media	5.7
78762	7	Sololá	702	San José Chacayá	5	Chacayá	2	Febrero	2023-02-15T00:00:00	2024-11-06T06:00:00	4	Temperatura máxima	5.7
78763	7	Sololá	702	San José Chacayá	5	Chacayá	2	Febrero	2023-02-15T00:00:00	2024-11-06T06:00:00	3	Temperatura mínima	4.7
78764	7	Sololá	702	San José Chacayá	5	Chacayá	2	Febrero	2023-02-15T00:00:00	2024-11-06T06:00:00	5	Humedad	83
78765	7	Sololá	702	San José Chacayá	5	Chacayá	2	Febrero	2023-02-15T00:00:00	2024-11-06T06:00:00	6	Velocidad del viento	1.6
78766	7	Sololá	702	San José Chacayá	5	Chacayá	2	Febrero	2023-02-15T00:00:00	2024-11-06T06:00:00	7	Dirección del viento	1.61
78767	7	Sololá	702	San José Chacayá	5	Chacayá	2	Febrero	2023-02-15T00:00:00	2024-11-06T06:00:00	1	Precipitación	0
78768	7	Sololá	702	San José Chacayá	5	Chacayá	2	Febrero	2023-02-15T00:00:00	2024-11-06T06:00:00	8	Radiación solar	0
78769	7	Sololá	702	San José Chacayá	5	Chacayá	2	Febrero	2023-02-15T00:00:00	2024-11-06T07:00:00	2	Temperatura media	10.8
78770	7	Sololá	702	San José Chacayá	5	Chacayá	2	Febrero	2023-02-15T00:00:00	2024-11-06T07:00:00	4	Temperatura máxima	10.8
78771	7	Sololá	702	San José Chacayá	5	Chacayá	2	Febrero	2023-02-15T00:00:00	2024-11-06T07:00:00	3	Temperatura mínima	5.7
78772	7	Sololá	702	San José Chacayá	5	Chacayá	2	Febrero	2023-02-15T00:00:00	2024-11-06T07:00:00	5	Humedad	76
78773	7	Sololá	702	San José Chacayá	5	Chacayá	2	Febrero	2023-02-15T00:00:00	2024-11-06T07:00:00	6	Velocidad del viento	1.6
78774	7	Sololá	702	San José Chacayá	5	Chacayá	2	Febrero	2023-02-15T00:00:00	2024-11-06T07:00:00	7	Dirección del viento	1.61
78775	7	Sololá	702	San José Chacayá	5	Chacayá	2	Febrero	2023-02-15T00:00:00	2024-11-06T07:00:00	1	Precipitación	0
78776	7	Sololá	702	San José Chacayá	5	Chacayá	2	Febrero	2023-02-15T00:00:00	2024-11-06T07:00:00	8	Radiación solar	8
78777	7	Sololá	702	San José Chacayá	5	Chacayá	2	Febrero	2023-02-15T00:00:00	2024-11-06T08:00:00	2	Temperatura media	17.6
78778	7	Sololá	702	San José Chacayá	5	Chacayá	2	Febrero	2023-02-15T00:00:00	2024-11-06T08:00:00	4	Temperatura máxima	17.7
78779	7	Sololá	702	San José Chacayá	5	Chacayá	2	Febrero	2023-02-15T00:00:00	2024-11-06T08:00:00	3	Temperatura mínima	10.8
78780	7	Sololá	702	San José Chacayá	5	Chacayá	2	Febrero	2023-02-15T00:00:00	2024-11-06T08:00:00	5	Humedad	53
78781	7	Sololá	702	San José Chacayá	5	Chacayá	2	Febrero	2023-02-15T00:00:00	2024-11-06T08:00:00	6	Velocidad del viento	1.6
78782	7	Sololá	702	San José Chacayá	5	Chacayá	2	Febrero	2023-02-15T00:00:00	2024-11-06T08:00:00	7	Dirección del viento	1.61
78783	7	Sololá	702	San José Chacayá	5	Chacayá	2	Febrero	2023-02-15T00:00:00	2024-11-06T08:00:00	1	Precipitación	0
78784	7	Sololá	702	San José Chacayá	5	Chacayá	2	Febrero	2023-02-15T00:00:00	2024-11-06T08:00:00	8	Radiación solar	163
78785	7	Sololá	702	San José Chacayá	5	Chacayá	2	Febrero	2023-02-15T00:00:00	2024-11-06T09:00:00	2	Temperatura media	19.1
78786	7	Sololá	702	San José Chacayá	5	Chacayá	2	Febrero	2023-02-15T00:00:00	2024-11-06T09:00:00	4	Temperatura máxima	19.1
78787	7	Sololá	702	San José Chacayá	5	Chacayá	2	Febrero	2023-02-15T00:00:00	2024-11-06T09:00:00	3	Temperatura mínima	17.2
78788	7	Sololá	702	San José Chacayá	5	Chacayá	2	Febrero	2023-02-15T00:00:00	2024-11-06T09:00:00	5	Humedad	62
78789	7	Sololá	702	San José Chacayá	5	Chacayá	2	Febrero	2023-02-15T00:00:00	2024-11-06T09:00:00	6	Velocidad del viento	3.2
78790	7	Sololá	702	San José Chacayá	5	Chacayá	2	Febrero	2023-02-15T00:00:00	2024-11-06T09:00:00	7	Dirección del viento	3.22
78791	7	Sololá	702	San José Chacayá	5	Chacayá	2	Febrero	2023-02-15T00:00:00	2024-11-06T09:00:00	1	Precipitación	0
78792	7	Sololá	702	San José Chacayá	5	Chacayá	2	Febrero	2023-02-15T00:00:00	2024-11-06T09:00:00	8	Radiación solar	427
78793	7	Sololá	702	San José Chacayá	5	Chacayá	2	Febrero	2023-02-15T00:00:00	2024-11-06T10:00:00	2	Temperatura media	20.9
78794	7	Sololá	702	San José Chacayá	5	Chacayá	2	Febrero	2023-02-15T00:00:00	2024-11-06T10:00:00	4	Temperatura máxima	21
78795	7	Sololá	702	San José Chacayá	5	Chacayá	2	Febrero	2023-02-15T00:00:00	2024-11-06T10:00:00	3	Temperatura mínima	19.1
78796	7	Sololá	702	San José Chacayá	5	Chacayá	2	Febrero	2023-02-15T00:00:00	2024-11-06T10:00:00	5	Humedad	55
78797	7	Sololá	702	San José Chacayá	5	Chacayá	2	Febrero	2023-02-15T00:00:00	2024-11-06T10:00:00	6	Velocidad del viento	4.8
78798	7	Sololá	702	San José Chacayá	5	Chacayá	2	Febrero	2023-02-15T00:00:00	2024-11-06T10:00:00	7	Dirección del viento	4.83
78799	7	Sololá	702	San José Chacayá	5	Chacayá	2	Febrero	2023-02-15T00:00:00	2024-11-06T10:00:00	1	Precipitación	0
78800	7	Sololá	702	San José Chacayá	5	Chacayá	2	Febrero	2023-02-15T00:00:00	2024-11-06T10:00:00	8	Radiación solar	532
78801	7	Sololá	702	San José Chacayá	5	Chacayá	2	Febrero	2023-02-15T00:00:00	2024-11-06T11:00:00	2	Temperatura media	21.9
78802	7	Sololá	702	San José Chacayá	5	Chacayá	2	Febrero	2023-02-15T00:00:00	2024-11-06T11:00:00	4	Temperatura máxima	22.1
78803	7	Sololá	702	San José Chacayá	5	Chacayá	2	Febrero	2023-02-15T00:00:00	2024-11-06T11:00:00	3	Temperatura mínima	20.8
78804	7	Sololá	702	San José Chacayá	5	Chacayá	2	Febrero	2023-02-15T00:00:00	2024-11-06T11:00:00	5	Humedad	54
78805	7	Sololá	702	San José Chacayá	5	Chacayá	2	Febrero	2023-02-15T00:00:00	2024-11-06T11:00:00	6	Velocidad del viento	4.8
78806	7	Sololá	702	San José Chacayá	5	Chacayá	2	Febrero	2023-02-15T00:00:00	2024-11-06T11:00:00	7	Dirección del viento	4.83
78807	7	Sololá	702	San José Chacayá	5	Chacayá	2	Febrero	2023-02-15T00:00:00	2024-11-06T11:00:00	1	Precipitación	0
78808	7	Sololá	702	San José Chacayá	5	Chacayá	2	Febrero	2023-02-15T00:00:00	2024-11-06T11:00:00	8	Radiación solar	81
78809	7	Sololá	702	San José Chacayá	5	Chacayá	2	Febrero	2023-02-15T00:00:00	2024-11-06T12:00:00	2	Temperatura media	21.3
78810	7	Sololá	702	San José Chacayá	5	Chacayá	2	Febrero	2023-02-15T00:00:00	2024-11-06T12:00:00	4	Temperatura máxima	21.9
78811	7	Sololá	702	San José Chacayá	5	Chacayá	2	Febrero	2023-02-15T00:00:00	2024-11-06T12:00:00	3	Temperatura mínima	21.3
78812	7	Sololá	702	San José Chacayá	5	Chacayá	2	Febrero	2023-02-15T00:00:00	2024-11-06T12:00:00	5	Humedad	64
78813	7	Sololá	702	San José Chacayá	5	Chacayá	2	Febrero	2023-02-15T00:00:00	2024-11-06T12:00:00	6	Velocidad del viento	6.4
78814	7	Sololá	702	San José Chacayá	5	Chacayá	2	Febrero	2023-02-15T00:00:00	2024-11-06T12:00:00	7	Dirección del viento	6.44
78815	7	Sololá	702	San José Chacayá	5	Chacayá	2	Febrero	2023-02-15T00:00:00	2024-11-06T12:00:00	1	Precipitación	0
78816	7	Sololá	702	San José Chacayá	5	Chacayá	2	Febrero	2023-02-15T00:00:00	2024-11-06T12:00:00	8	Radiación solar	470
78817	7	Sololá	702	San José Chacayá	5	Chacayá	2	Febrero	2023-02-15T00:00:00	2024-11-06T13:00:00	2	Temperatura media	20.2
78818	7	Sololá	702	San José Chacayá	5	Chacayá	2	Febrero	2023-02-15T00:00:00	2024-11-06T13:00:00	4	Temperatura máxima	21.3
78819	7	Sololá	702	San José Chacayá	5	Chacayá	2	Febrero	2023-02-15T00:00:00	2024-11-06T13:00:00	3	Temperatura mínima	19.6
78820	7	Sololá	702	San José Chacayá	5	Chacayá	2	Febrero	2023-02-15T00:00:00	2024-11-06T13:00:00	5	Humedad	69
78821	7	Sololá	702	San José Chacayá	5	Chacayá	2	Febrero	2023-02-15T00:00:00	2024-11-06T13:00:00	6	Velocidad del viento	8
78822	7	Sololá	702	San José Chacayá	5	Chacayá	2	Febrero	2023-02-15T00:00:00	2024-11-06T13:00:00	7	Dirección del viento	8.05
78823	7	Sololá	702	San José Chacayá	5	Chacayá	2	Febrero	2023-02-15T00:00:00	2024-11-06T13:00:00	1	Precipitación	0
78824	7	Sololá	702	San José Chacayá	5	Chacayá	2	Febrero	2023-02-15T00:00:00	2024-11-06T13:00:00	8	Radiación solar	894
78825	7	Sololá	702	San José Chacayá	5	Chacayá	2	Febrero	2023-02-15T00:00:00	2024-11-06T14:00:00	2	Temperatura media	18.6
78826	7	Sololá	702	San José Chacayá	5	Chacayá	2	Febrero	2023-02-15T00:00:00	2024-11-06T14:00:00	4	Temperatura máxima	20.4
78827	7	Sololá	702	San José Chacayá	5	Chacayá	2	Febrero	2023-02-15T00:00:00	2024-11-06T14:00:00	3	Temperatura mínima	18.6
78828	7	Sololá	702	San José Chacayá	5	Chacayá	2	Febrero	2023-02-15T00:00:00	2024-11-06T14:00:00	5	Humedad	76
78829	7	Sololá	702	San José Chacayá	5	Chacayá	2	Febrero	2023-02-15T00:00:00	2024-11-06T14:00:00	6	Velocidad del viento	4.8
78830	7	Sololá	702	San José Chacayá	5	Chacayá	2	Febrero	2023-02-15T00:00:00	2024-11-06T14:00:00	7	Dirección del viento	4.83
78831	7	Sololá	702	San José Chacayá	5	Chacayá	2	Febrero	2023-02-15T00:00:00	2024-11-06T14:00:00	1	Precipitación	0
78832	7	Sololá	702	San José Chacayá	5	Chacayá	2	Febrero	2023-02-15T00:00:00	2024-11-06T14:00:00	8	Radiación solar	829
78833	7	Sololá	702	San José Chacayá	5	Chacayá	2	Febrero	2023-02-15T00:00:00	2024-11-06T15:00:00	2	Temperatura media	17.8
78834	7	Sololá	702	San José Chacayá	5	Chacayá	2	Febrero	2023-02-15T00:00:00	2024-11-06T15:00:00	4	Temperatura máxima	18.6
78835	7	Sololá	702	San José Chacayá	5	Chacayá	2	Febrero	2023-02-15T00:00:00	2024-11-06T15:00:00	3	Temperatura mínima	17.7
78836	7	Sololá	702	San José Chacayá	5	Chacayá	2	Febrero	2023-02-15T00:00:00	2024-11-06T15:00:00	5	Humedad	77
78837	7	Sololá	702	San José Chacayá	5	Chacayá	2	Febrero	2023-02-15T00:00:00	2024-11-06T15:00:00	6	Velocidad del viento	4.8
78838	7	Sololá	702	San José Chacayá	5	Chacayá	2	Febrero	2023-02-15T00:00:00	2024-11-06T15:00:00	7	Dirección del viento	4.83
78839	7	Sololá	702	San José Chacayá	5	Chacayá	2	Febrero	2023-02-15T00:00:00	2024-11-06T15:00:00	1	Precipitación	0
78840	7	Sololá	702	San José Chacayá	5	Chacayá	2	Febrero	2023-02-15T00:00:00	2024-11-06T15:00:00	8	Radiación solar	729
78841	7	Sololá	702	San José Chacayá	5	Chacayá	2	Febrero	2023-02-15T00:00:00	2024-11-06T16:00:00	2	Temperatura media	17.1
78842	7	Sololá	702	San José Chacayá	5	Chacayá	2	Febrero	2023-02-15T00:00:00	2024-11-06T16:00:00	4	Temperatura máxima	18.4
78843	7	Sololá	702	San José Chacayá	5	Chacayá	2	Febrero	2023-02-15T00:00:00	2024-11-06T16:00:00	3	Temperatura mínima	17.1
78844	7	Sololá	702	San José Chacayá	5	Chacayá	2	Febrero	2023-02-15T00:00:00	2024-11-06T16:00:00	5	Humedad	82
78845	7	Sololá	702	San José Chacayá	5	Chacayá	2	Febrero	2023-02-15T00:00:00	2024-11-06T16:00:00	6	Velocidad del viento	3.2
78846	7	Sololá	702	San José Chacayá	5	Chacayá	2	Febrero	2023-02-15T00:00:00	2024-11-06T16:00:00	7	Dirección del viento	3.22
78847	7	Sololá	702	San José Chacayá	5	Chacayá	2	Febrero	2023-02-15T00:00:00	2024-11-06T16:00:00	1	Precipitación	0
78848	7	Sololá	702	San José Chacayá	5	Chacayá	2	Febrero	2023-02-15T00:00:00	2024-11-06T16:00:00	8	Radiación solar	488
78849	7	Sololá	702	San José Chacayá	5	Chacayá	2	Febrero	2023-02-15T00:00:00	2024-11-06T17:00:00	2	Temperatura media	15.4
78850	7	Sololá	702	San José Chacayá	5	Chacayá	2	Febrero	2023-02-15T00:00:00	2024-11-06T17:00:00	4	Temperatura máxima	17.1
78851	7	Sololá	702	San José Chacayá	5	Chacayá	2	Febrero	2023-02-15T00:00:00	2024-11-06T17:00:00	3	Temperatura mínima	15.4
78852	7	Sololá	702	San José Chacayá	5	Chacayá	2	Febrero	2023-02-15T00:00:00	2024-11-06T17:00:00	5	Humedad	89
78853	7	Sololá	702	San José Chacayá	5	Chacayá	2	Febrero	2023-02-15T00:00:00	2024-11-06T17:00:00	6	Velocidad del viento	1.6
78854	7	Sololá	702	San José Chacayá	5	Chacayá	2	Febrero	2023-02-15T00:00:00	2024-11-06T17:00:00	7	Dirección del viento	1.61
78855	7	Sololá	702	San José Chacayá	5	Chacayá	2	Febrero	2023-02-15T00:00:00	2024-11-06T17:00:00	1	Precipitación	0
78856	7	Sololá	702	San José Chacayá	5	Chacayá	2	Febrero	2023-02-15T00:00:00	2024-11-06T17:00:00	8	Radiación solar	251
78857	7	Sololá	702	San José Chacayá	5	Chacayá	2	Febrero	2023-02-15T00:00:00	2024-11-06T18:00:00	2	Temperatura media	14.8
78858	7	Sololá	702	San José Chacayá	5	Chacayá	2	Febrero	2023-02-15T00:00:00	2024-11-06T18:00:00	4	Temperatura máxima	15.4
78859	7	Sololá	702	San José Chacayá	5	Chacayá	2	Febrero	2023-02-15T00:00:00	2024-11-06T18:00:00	3	Temperatura mínima	14.7
78860	7	Sololá	702	San José Chacayá	5	Chacayá	2	Febrero	2023-02-15T00:00:00	2024-11-06T18:00:00	5	Humedad	91
78861	7	Sololá	702	San José Chacayá	5	Chacayá	2	Febrero	2023-02-15T00:00:00	2024-11-06T18:00:00	6	Velocidad del viento	0
78862	7	Sololá	702	San José Chacayá	5	Chacayá	2	Febrero	2023-02-15T00:00:00	2024-11-06T18:00:00	7	Dirección del viento	0
78863	7	Sololá	702	San José Chacayá	5	Chacayá	2	Febrero	2023-02-15T00:00:00	2024-11-06T18:00:00	1	Precipitación	0
78864	7	Sololá	702	San José Chacayá	5	Chacayá	2	Febrero	2023-02-15T00:00:00	2024-11-06T18:00:00	8	Radiación solar	49
78865	7	Sololá	702	San José Chacayá	5	Chacayá	2	Febrero	2023-02-15T00:00:00	2024-11-06T19:00:00	2	Temperatura media	14.6
78866	7	Sololá	702	San José Chacayá	5	Chacayá	2	Febrero	2023-02-15T00:00:00	2024-11-06T19:00:00	4	Temperatura máxima	15
78867	7	Sololá	702	San José Chacayá	5	Chacayá	2	Febrero	2023-02-15T00:00:00	2024-11-06T19:00:00	3	Temperatura mínima	14.6
78868	7	Sololá	702	San José Chacayá	5	Chacayá	2	Febrero	2023-02-15T00:00:00	2024-11-06T19:00:00	5	Humedad	91
78869	7	Sololá	702	San José Chacayá	5	Chacayá	2	Febrero	2023-02-15T00:00:00	2024-11-06T19:00:00	6	Velocidad del viento	0
78870	7	Sololá	702	San José Chacayá	5	Chacayá	2	Febrero	2023-02-15T00:00:00	2024-11-06T19:00:00	7	Dirección del viento	0
78871	7	Sololá	702	San José Chacayá	5	Chacayá	2	Febrero	2023-02-15T00:00:00	2024-11-06T19:00:00	1	Precipitación	0
78872	7	Sololá	702	San José Chacayá	5	Chacayá	2	Febrero	2023-02-15T00:00:00	2024-11-06T19:00:00	8	Radiación solar	0
78873	7	Sololá	702	San José Chacayá	5	Chacayá	2	Febrero	2023-02-15T00:00:00	2024-11-06T20:00:00	2	Temperatura media	13
78874	7	Sololá	702	San José Chacayá	5	Chacayá	2	Febrero	2023-02-15T00:00:00	2024-11-06T20:00:00	4	Temperatura máxima	14.6
78875	7	Sololá	702	San José Chacayá	5	Chacayá	2	Febrero	2023-02-15T00:00:00	2024-11-06T20:00:00	3	Temperatura mínima	13
78876	7	Sololá	702	San José Chacayá	5	Chacayá	2	Febrero	2023-02-15T00:00:00	2024-11-06T20:00:00	5	Humedad	91
78877	7	Sololá	702	San José Chacayá	5	Chacayá	2	Febrero	2023-02-15T00:00:00	2024-11-06T20:00:00	6	Velocidad del viento	1.6
78878	7	Sololá	702	San José Chacayá	5	Chacayá	2	Febrero	2023-02-15T00:00:00	2024-11-06T20:00:00	7	Dirección del viento	1.61
78879	7	Sololá	702	San José Chacayá	5	Chacayá	2	Febrero	2023-02-15T00:00:00	2024-11-06T20:00:00	1	Precipitación	0
78880	7	Sololá	702	San José Chacayá	5	Chacayá	2	Febrero	2023-02-15T00:00:00	2024-11-06T20:00:00	8	Radiación solar	0
78881	7	Sololá	702	San José Chacayá	5	Chacayá	2	Febrero	2023-02-15T00:00:00	2024-11-06T21:00:00	2	Temperatura media	10.7
78882	7	Sololá	702	San José Chacayá	5	Chacayá	2	Febrero	2023-02-15T00:00:00	2024-11-06T21:00:00	4	Temperatura máxima	13
78883	7	Sololá	702	San José Chacayá	5	Chacayá	2	Febrero	2023-02-15T00:00:00	2024-11-06T21:00:00	3	Temperatura mínima	10.7
78884	7	Sololá	702	San José Chacayá	5	Chacayá	2	Febrero	2023-02-15T00:00:00	2024-11-06T21:00:00	5	Humedad	89
78885	7	Sololá	702	San José Chacayá	5	Chacayá	2	Febrero	2023-02-15T00:00:00	2024-11-06T21:00:00	6	Velocidad del viento	1.6
78886	7	Sololá	702	San José Chacayá	5	Chacayá	2	Febrero	2023-02-15T00:00:00	2024-11-06T21:00:00	7	Dirección del viento	1.61
78887	7	Sololá	702	San José Chacayá	5	Chacayá	2	Febrero	2023-02-15T00:00:00	2024-11-06T21:00:00	1	Precipitación	0
78888	7	Sololá	702	San José Chacayá	5	Chacayá	2	Febrero	2023-02-15T00:00:00	2024-11-06T21:00:00	8	Radiación solar	0
78889	7	Sololá	702	San José Chacayá	5	Chacayá	2	Febrero	2023-02-15T00:00:00	2024-11-06T22:00:00	2	Temperatura media	8.2
78890	7	Sololá	702	San José Chacayá	5	Chacayá	2	Febrero	2023-02-15T00:00:00	2024-11-06T22:00:00	4	Temperatura máxima	10.7
78891	7	Sololá	702	San José Chacayá	5	Chacayá	2	Febrero	2023-02-15T00:00:00	2024-11-06T22:00:00	3	Temperatura mínima	8.2
78892	7	Sololá	702	San José Chacayá	5	Chacayá	2	Febrero	2023-02-15T00:00:00	2024-11-06T22:00:00	5	Humedad	83
78893	7	Sololá	702	San José Chacayá	5	Chacayá	2	Febrero	2023-02-15T00:00:00	2024-11-06T22:00:00	6	Velocidad del viento	1.6
78894	7	Sololá	702	San José Chacayá	5	Chacayá	2	Febrero	2023-02-15T00:00:00	2024-11-06T22:00:00	7	Dirección del viento	1.61
78895	7	Sololá	702	San José Chacayá	5	Chacayá	2	Febrero	2023-02-15T00:00:00	2024-11-06T22:00:00	1	Precipitación	0
78896	7	Sololá	702	San José Chacayá	5	Chacayá	2	Febrero	2023-02-15T00:00:00	2024-11-06T22:00:00	8	Radiación solar	0
78897	7	Sololá	702	San José Chacayá	5	Chacayá	2	Febrero	2023-02-15T00:00:00	2024-11-06T23:00:00	2	Temperatura media	6.7
78898	7	Sololá	702	San José Chacayá	5	Chacayá	2	Febrero	2023-02-15T00:00:00	2024-11-06T23:00:00	4	Temperatura máxima	8.2
78899	7	Sololá	702	San José Chacayá	5	Chacayá	2	Febrero	2023-02-15T00:00:00	2024-11-06T23:00:00	3	Temperatura mínima	6.7
78900	7	Sololá	702	San José Chacayá	5	Chacayá	2	Febrero	2023-02-15T00:00:00	2024-11-06T23:00:00	5	Humedad	77
78901	7	Sololá	702	San José Chacayá	5	Chacayá	2	Febrero	2023-02-15T00:00:00	2024-11-06T23:00:00	6	Velocidad del viento	1.6
78902	7	Sololá	702	San José Chacayá	5	Chacayá	2	Febrero	2023-02-15T00:00:00	2024-11-06T23:00:00	7	Dirección del viento	1.61
78903	7	Sololá	702	San José Chacayá	5	Chacayá	2	Febrero	2023-02-15T00:00:00	2024-11-06T23:00:00	1	Precipitación	0
78904	7	Sololá	702	San José Chacayá	5	Chacayá	2	Febrero	2023-02-15T00:00:00	2024-11-06T23:00:00	8	Radiación solar	0
78905	7	Sololá	702	San José Chacayá	5	Chacayá	2	Febrero	2023-02-16T00:00:00	2024-11-06T00:00:00	2	Temperatura media	5.4
78906	7	Sololá	702	San José Chacayá	5	Chacayá	2	Febrero	2023-02-16T00:00:00	2024-11-06T00:00:00	4	Temperatura máxima	6.8
78907	7	Sololá	702	San José Chacayá	5	Chacayá	2	Febrero	2023-02-16T00:00:00	2024-11-06T00:00:00	3	Temperatura mínima	5.4
78908	7	Sololá	702	San José Chacayá	5	Chacayá	2	Febrero	2023-02-16T00:00:00	2024-11-06T00:00:00	5	Humedad	75
78909	7	Sololá	702	San José Chacayá	5	Chacayá	2	Febrero	2023-02-16T00:00:00	2024-11-06T00:00:00	6	Velocidad del viento	1.6
78910	7	Sololá	702	San José Chacayá	5	Chacayá	2	Febrero	2023-02-16T00:00:00	2024-11-06T00:00:00	7	Dirección del viento	1.61
78911	7	Sololá	702	San José Chacayá	5	Chacayá	2	Febrero	2023-02-16T00:00:00	2024-11-06T00:00:00	1	Precipitación	0
78912	7	Sololá	702	San José Chacayá	5	Chacayá	2	Febrero	2023-02-16T00:00:00	2024-11-06T00:00:00	8	Radiación solar	0
78913	7	Sololá	702	San José Chacayá	5	Chacayá	2	Febrero	2023-02-16T00:00:00	2024-11-06T01:00:00	2	Temperatura media	4.4
78914	7	Sololá	702	San José Chacayá	5	Chacayá	2	Febrero	2023-02-16T00:00:00	2024-11-06T01:00:00	4	Temperatura máxima	5.5
78915	7	Sololá	702	San José Chacayá	5	Chacayá	2	Febrero	2023-02-16T00:00:00	2024-11-06T01:00:00	3	Temperatura mínima	4.4
78916	7	Sololá	702	San José Chacayá	5	Chacayá	2	Febrero	2023-02-16T00:00:00	2024-11-06T01:00:00	5	Humedad	72
78917	7	Sololá	702	San José Chacayá	5	Chacayá	2	Febrero	2023-02-16T00:00:00	2024-11-06T01:00:00	6	Velocidad del viento	1.6
78918	7	Sololá	702	San José Chacayá	5	Chacayá	2	Febrero	2023-02-16T00:00:00	2024-11-06T01:00:00	7	Dirección del viento	1.61
78919	7	Sololá	702	San José Chacayá	5	Chacayá	2	Febrero	2023-02-16T00:00:00	2024-11-06T01:00:00	1	Precipitación	0
78920	7	Sololá	702	San José Chacayá	5	Chacayá	2	Febrero	2023-02-16T00:00:00	2024-11-06T01:00:00	8	Radiación solar	0
78921	7	Sololá	702	San José Chacayá	5	Chacayá	2	Febrero	2023-02-16T00:00:00	2024-11-06T02:00:00	2	Temperatura media	4.6
78922	7	Sololá	702	San José Chacayá	5	Chacayá	2	Febrero	2023-02-16T00:00:00	2024-11-06T02:00:00	4	Temperatura máxima	5.1
78923	7	Sololá	702	San José Chacayá	5	Chacayá	2	Febrero	2023-02-16T00:00:00	2024-11-06T02:00:00	3	Temperatura mínima	4.4
78924	7	Sololá	702	San José Chacayá	5	Chacayá	2	Febrero	2023-02-16T00:00:00	2024-11-06T02:00:00	5	Humedad	72
78925	7	Sololá	702	San José Chacayá	5	Chacayá	2	Febrero	2023-02-16T00:00:00	2024-11-06T02:00:00	6	Velocidad del viento	1.6
78926	7	Sololá	702	San José Chacayá	5	Chacayá	2	Febrero	2023-02-16T00:00:00	2024-11-06T02:00:00	7	Dirección del viento	1.61
78927	7	Sololá	702	San José Chacayá	5	Chacayá	2	Febrero	2023-02-16T00:00:00	2024-11-06T02:00:00	1	Precipitación	0
78928	7	Sololá	702	San José Chacayá	5	Chacayá	2	Febrero	2023-02-16T00:00:00	2024-11-06T02:00:00	8	Radiación solar	0
78929	7	Sololá	702	San José Chacayá	5	Chacayá	2	Febrero	2023-02-16T00:00:00	2024-11-06T03:00:00	2	Temperatura media	3.1
78930	7	Sololá	702	San José Chacayá	5	Chacayá	2	Febrero	2023-02-16T00:00:00	2024-11-06T03:00:00	4	Temperatura máxima	4.6
78931	7	Sololá	702	San José Chacayá	5	Chacayá	2	Febrero	2023-02-16T00:00:00	2024-11-06T03:00:00	3	Temperatura mínima	3
78932	7	Sololá	702	San José Chacayá	5	Chacayá	2	Febrero	2023-02-16T00:00:00	2024-11-06T03:00:00	5	Humedad	69
78933	7	Sololá	702	San José Chacayá	5	Chacayá	2	Febrero	2023-02-16T00:00:00	2024-11-06T03:00:00	6	Velocidad del viento	1.6
78934	7	Sololá	702	San José Chacayá	5	Chacayá	2	Febrero	2023-02-16T00:00:00	2024-11-06T03:00:00	7	Dirección del viento	1.61
78935	7	Sololá	702	San José Chacayá	5	Chacayá	2	Febrero	2023-02-16T00:00:00	2024-11-06T03:00:00	1	Precipitación	0
78936	7	Sololá	702	San José Chacayá	5	Chacayá	2	Febrero	2023-02-16T00:00:00	2024-11-06T03:00:00	8	Radiación solar	0
78937	7	Sololá	702	San José Chacayá	5	Chacayá	2	Febrero	2023-02-16T00:00:00	2024-11-06T04:00:00	2	Temperatura media	2.2
78938	7	Sololá	702	San José Chacayá	5	Chacayá	2	Febrero	2023-02-16T00:00:00	2024-11-06T04:00:00	4	Temperatura máxima	3.2
78939	7	Sololá	702	San José Chacayá	5	Chacayá	2	Febrero	2023-02-16T00:00:00	2024-11-06T04:00:00	3	Temperatura mínima	2.2
78940	7	Sololá	702	San José Chacayá	5	Chacayá	2	Febrero	2023-02-16T00:00:00	2024-11-06T04:00:00	5	Humedad	69
78941	7	Sololá	702	San José Chacayá	5	Chacayá	2	Febrero	2023-02-16T00:00:00	2024-11-06T04:00:00	6	Velocidad del viento	1.6
78942	7	Sololá	702	San José Chacayá	5	Chacayá	2	Febrero	2023-02-16T00:00:00	2024-11-06T04:00:00	7	Dirección del viento	1.61
78943	7	Sololá	702	San José Chacayá	5	Chacayá	2	Febrero	2023-02-16T00:00:00	2024-11-06T04:00:00	1	Precipitación	0
78944	7	Sololá	702	San José Chacayá	5	Chacayá	2	Febrero	2023-02-16T00:00:00	2024-11-06T04:00:00	8	Radiación solar	0
78945	7	Sololá	702	San José Chacayá	5	Chacayá	2	Febrero	2023-02-16T00:00:00	2024-11-06T05:00:00	2	Temperatura media	1.8
78946	7	Sololá	702	San José Chacayá	5	Chacayá	2	Febrero	2023-02-16T00:00:00	2024-11-06T05:00:00	4	Temperatura máxima	2.3
78947	7	Sololá	702	San José Chacayá	5	Chacayá	2	Febrero	2023-02-16T00:00:00	2024-11-06T05:00:00	3	Temperatura mínima	1.7
78948	7	Sololá	702	San José Chacayá	5	Chacayá	2	Febrero	2023-02-16T00:00:00	2024-11-06T05:00:00	5	Humedad	67
78949	7	Sololá	702	San José Chacayá	5	Chacayá	2	Febrero	2023-02-16T00:00:00	2024-11-06T05:00:00	6	Velocidad del viento	1.6
78950	7	Sololá	702	San José Chacayá	5	Chacayá	2	Febrero	2023-02-16T00:00:00	2024-11-06T05:00:00	7	Dirección del viento	1.61
78951	7	Sololá	702	San José Chacayá	5	Chacayá	2	Febrero	2023-02-16T00:00:00	2024-11-06T05:00:00	1	Precipitación	0
78952	7	Sololá	702	San José Chacayá	5	Chacayá	2	Febrero	2023-02-16T00:00:00	2024-11-06T05:00:00	8	Radiación solar	0
78953	7	Sololá	702	San José Chacayá	5	Chacayá	2	Febrero	2023-02-16T00:00:00	2024-11-06T06:00:00	2	Temperatura media	2.9
78954	7	Sololá	702	San José Chacayá	5	Chacayá	2	Febrero	2023-02-16T00:00:00	2024-11-06T06:00:00	4	Temperatura máxima	2.9
78955	7	Sololá	702	San José Chacayá	5	Chacayá	2	Febrero	2023-02-16T00:00:00	2024-11-06T06:00:00	3	Temperatura mínima	1.8
78956	7	Sololá	702	San José Chacayá	5	Chacayá	2	Febrero	2023-02-16T00:00:00	2024-11-06T06:00:00	5	Humedad	64
78957	7	Sololá	702	San José Chacayá	5	Chacayá	2	Febrero	2023-02-16T00:00:00	2024-11-06T06:00:00	6	Velocidad del viento	1.6
78958	7	Sololá	702	San José Chacayá	5	Chacayá	2	Febrero	2023-02-16T00:00:00	2024-11-06T06:00:00	7	Dirección del viento	1.61
78959	7	Sololá	702	San José Chacayá	5	Chacayá	2	Febrero	2023-02-16T00:00:00	2024-11-06T06:00:00	1	Precipitación	0
78960	7	Sololá	702	San José Chacayá	5	Chacayá	2	Febrero	2023-02-16T00:00:00	2024-11-06T06:00:00	8	Radiación solar	0
78961	7	Sololá	702	San José Chacayá	5	Chacayá	2	Febrero	2023-02-16T00:00:00	2024-11-06T07:00:00	2	Temperatura media	10.9
78962	7	Sololá	702	San José Chacayá	5	Chacayá	2	Febrero	2023-02-16T00:00:00	2024-11-06T07:00:00	4	Temperatura máxima	10.9
78963	7	Sololá	702	San José Chacayá	5	Chacayá	2	Febrero	2023-02-16T00:00:00	2024-11-06T07:00:00	3	Temperatura mínima	2.9
78964	7	Sololá	702	San José Chacayá	5	Chacayá	2	Febrero	2023-02-16T00:00:00	2024-11-06T07:00:00	5	Humedad	50
78965	7	Sololá	702	San José Chacayá	5	Chacayá	2	Febrero	2023-02-16T00:00:00	2024-11-06T07:00:00	6	Velocidad del viento	1.6
78966	7	Sololá	702	San José Chacayá	5	Chacayá	2	Febrero	2023-02-16T00:00:00	2024-11-06T07:00:00	7	Dirección del viento	1.61
78967	7	Sololá	702	San José Chacayá	5	Chacayá	2	Febrero	2023-02-16T00:00:00	2024-11-06T07:00:00	1	Precipitación	0
78968	7	Sololá	702	San José Chacayá	5	Chacayá	2	Febrero	2023-02-16T00:00:00	2024-11-06T07:00:00	8	Radiación solar	14
78969	7	Sololá	702	San José Chacayá	5	Chacayá	2	Febrero	2023-02-16T00:00:00	2024-11-06T08:00:00	2	Temperatura media	15.7
78970	7	Sololá	702	San José Chacayá	5	Chacayá	2	Febrero	2023-02-16T00:00:00	2024-11-06T08:00:00	4	Temperatura máxima	15.7
78971	7	Sololá	702	San José Chacayá	5	Chacayá	2	Febrero	2023-02-16T00:00:00	2024-11-06T08:00:00	3	Temperatura mínima	10.9
78972	7	Sololá	702	San José Chacayá	5	Chacayá	2	Febrero	2023-02-16T00:00:00	2024-11-06T08:00:00	5	Humedad	70
78973	7	Sololá	702	San José Chacayá	5	Chacayá	2	Febrero	2023-02-16T00:00:00	2024-11-06T08:00:00	6	Velocidad del viento	1.6
78974	7	Sololá	702	San José Chacayá	5	Chacayá	2	Febrero	2023-02-16T00:00:00	2024-11-06T08:00:00	7	Dirección del viento	1.61
78975	7	Sololá	702	San José Chacayá	5	Chacayá	2	Febrero	2023-02-16T00:00:00	2024-11-06T08:00:00	1	Precipitación	0
78976	7	Sololá	702	San José Chacayá	5	Chacayá	2	Febrero	2023-02-16T00:00:00	2024-11-06T08:00:00	8	Radiación solar	194
78977	7	Sololá	702	San José Chacayá	5	Chacayá	2	Febrero	2023-02-16T00:00:00	2024-11-06T09:00:00	2	Temperatura media	17.2
78978	7	Sololá	702	San José Chacayá	5	Chacayá	2	Febrero	2023-02-16T00:00:00	2024-11-06T09:00:00	4	Temperatura máxima	17.2
78979	7	Sololá	702	San José Chacayá	5	Chacayá	2	Febrero	2023-02-16T00:00:00	2024-11-06T09:00:00	3	Temperatura mínima	15.7
78980	7	Sololá	702	San José Chacayá	5	Chacayá	2	Febrero	2023-02-16T00:00:00	2024-11-06T09:00:00	5	Humedad	70
78981	7	Sololá	702	San José Chacayá	5	Chacayá	2	Febrero	2023-02-16T00:00:00	2024-11-06T09:00:00	6	Velocidad del viento	3.2
78982	7	Sololá	702	San José Chacayá	5	Chacayá	2	Febrero	2023-02-16T00:00:00	2024-11-06T09:00:00	7	Dirección del viento	3.22
78983	7	Sololá	702	San José Chacayá	5	Chacayá	2	Febrero	2023-02-16T00:00:00	2024-11-06T09:00:00	1	Precipitación	0
78984	7	Sololá	702	San José Chacayá	5	Chacayá	2	Febrero	2023-02-16T00:00:00	2024-11-06T09:00:00	8	Radiación solar	435
78985	7	Sololá	702	San José Chacayá	5	Chacayá	2	Febrero	2023-02-16T00:00:00	2024-11-06T10:00:00	2	Temperatura media	20
78986	7	Sololá	702	San José Chacayá	5	Chacayá	2	Febrero	2023-02-16T00:00:00	2024-11-06T10:00:00	4	Temperatura máxima	20
78987	7	Sololá	702	San José Chacayá	5	Chacayá	2	Febrero	2023-02-16T00:00:00	2024-11-06T10:00:00	3	Temperatura mínima	17.1
78988	7	Sololá	702	San José Chacayá	5	Chacayá	2	Febrero	2023-02-16T00:00:00	2024-11-06T10:00:00	5	Humedad	63
78989	7	Sololá	702	San José Chacayá	5	Chacayá	2	Febrero	2023-02-16T00:00:00	2024-11-06T10:00:00	6	Velocidad del viento	3.2
78990	7	Sololá	702	San José Chacayá	5	Chacayá	2	Febrero	2023-02-16T00:00:00	2024-11-06T10:00:00	7	Dirección del viento	3.22
78991	7	Sololá	702	San José Chacayá	5	Chacayá	2	Febrero	2023-02-16T00:00:00	2024-11-06T10:00:00	1	Precipitación	0
78992	7	Sololá	702	San José Chacayá	5	Chacayá	2	Febrero	2023-02-16T00:00:00	2024-11-06T10:00:00	8	Radiación solar	644
78993	7	Sololá	702	San José Chacayá	5	Chacayá	2	Febrero	2023-02-16T00:00:00	2024-11-06T11:00:00	2	Temperatura media	20.4
78994	7	Sololá	702	San José Chacayá	5	Chacayá	2	Febrero	2023-02-16T00:00:00	2024-11-06T11:00:00	4	Temperatura máxima	21.2
78995	7	Sololá	702	San José Chacayá	5	Chacayá	2	Febrero	2023-02-16T00:00:00	2024-11-06T11:00:00	3	Temperatura mínima	20
78996	7	Sololá	702	San José Chacayá	5	Chacayá	2	Febrero	2023-02-16T00:00:00	2024-11-06T11:00:00	5	Humedad	60
78997	7	Sololá	702	San José Chacayá	5	Chacayá	2	Febrero	2023-02-16T00:00:00	2024-11-06T11:00:00	6	Velocidad del viento	4.8
78998	7	Sololá	702	San José Chacayá	5	Chacayá	2	Febrero	2023-02-16T00:00:00	2024-11-06T11:00:00	7	Dirección del viento	4.83
78999	7	Sololá	702	San José Chacayá	5	Chacayá	2	Febrero	2023-02-16T00:00:00	2024-11-06T11:00:00	1	Precipitación	0
79000	7	Sololá	702	San José Chacayá	5	Chacayá	2	Febrero	2023-02-16T00:00:00	2024-11-06T11:00:00	8	Radiación solar	802
79001	7	Sololá	702	San José Chacayá	5	Chacayá	2	Febrero	2023-02-16T00:00:00	2024-11-06T12:00:00	2	Temperatura media	20.8
79002	7	Sololá	702	San José Chacayá	5	Chacayá	2	Febrero	2023-02-16T00:00:00	2024-11-06T12:00:00	4	Temperatura máxima	20.8
79003	7	Sololá	702	San José Chacayá	5	Chacayá	2	Febrero	2023-02-16T00:00:00	2024-11-06T12:00:00	3	Temperatura mínima	20.1
79004	7	Sololá	702	San José Chacayá	5	Chacayá	2	Febrero	2023-02-16T00:00:00	2024-11-06T12:00:00	5	Humedad	65
79005	7	Sololá	702	San José Chacayá	5	Chacayá	2	Febrero	2023-02-16T00:00:00	2024-11-06T12:00:00	6	Velocidad del viento	4.8
79006	7	Sololá	702	San José Chacayá	5	Chacayá	2	Febrero	2023-02-16T00:00:00	2024-11-06T12:00:00	7	Dirección del viento	4.83
79007	7	Sololá	702	San José Chacayá	5	Chacayá	2	Febrero	2023-02-16T00:00:00	2024-11-06T12:00:00	1	Precipitación	0
79008	7	Sololá	702	San José Chacayá	5	Chacayá	2	Febrero	2023-02-16T00:00:00	2024-11-06T12:00:00	8	Radiación solar	879
79009	7	Sololá	702	San José Chacayá	5	Chacayá	2	Febrero	2023-02-16T00:00:00	2024-11-06T13:00:00	2	Temperatura media	19.9
79010	7	Sololá	702	San José Chacayá	5	Chacayá	2	Febrero	2023-02-16T00:00:00	2024-11-06T13:00:00	4	Temperatura máxima	21
79011	7	Sololá	702	San José Chacayá	5	Chacayá	2	Febrero	2023-02-16T00:00:00	2024-11-06T13:00:00	3	Temperatura mínima	19.7
79012	7	Sololá	702	San José Chacayá	5	Chacayá	2	Febrero	2023-02-16T00:00:00	2024-11-06T13:00:00	5	Humedad	70
79013	7	Sololá	702	San José Chacayá	5	Chacayá	2	Febrero	2023-02-16T00:00:00	2024-11-06T13:00:00	6	Velocidad del viento	4.8
79014	7	Sololá	702	San José Chacayá	5	Chacayá	2	Febrero	2023-02-16T00:00:00	2024-11-06T13:00:00	7	Dirección del viento	4.83
79015	7	Sololá	702	San José Chacayá	5	Chacayá	2	Febrero	2023-02-16T00:00:00	2024-11-06T13:00:00	1	Precipitación	0
79016	7	Sololá	702	San José Chacayá	5	Chacayá	2	Febrero	2023-02-16T00:00:00	2024-11-06T13:00:00	8	Radiación solar	891
79017	7	Sololá	702	San José Chacayá	5	Chacayá	2	Febrero	2023-02-16T00:00:00	2024-11-06T14:00:00	2	Temperatura media	19.6
79018	7	Sololá	702	San José Chacayá	5	Chacayá	2	Febrero	2023-02-16T00:00:00	2024-11-06T14:00:00	4	Temperatura máxima	20.1
79019	7	Sololá	702	San José Chacayá	5	Chacayá	2	Febrero	2023-02-16T00:00:00	2024-11-06T14:00:00	3	Temperatura mínima	18.9
79020	7	Sololá	702	San José Chacayá	5	Chacayá	2	Febrero	2023-02-16T00:00:00	2024-11-06T14:00:00	5	Humedad	72
79021	7	Sololá	702	San José Chacayá	5	Chacayá	2	Febrero	2023-02-16T00:00:00	2024-11-06T14:00:00	6	Velocidad del viento	4.8
79022	7	Sololá	702	San José Chacayá	5	Chacayá	2	Febrero	2023-02-16T00:00:00	2024-11-06T14:00:00	7	Dirección del viento	4.83
79023	7	Sololá	702	San José Chacayá	5	Chacayá	2	Febrero	2023-02-16T00:00:00	2024-11-06T14:00:00	1	Precipitación	0
79024	7	Sololá	702	San José Chacayá	5	Chacayá	2	Febrero	2023-02-16T00:00:00	2024-11-06T14:00:00	8	Radiación solar	848
79025	7	Sololá	702	San José Chacayá	5	Chacayá	2	Febrero	2023-02-16T00:00:00	2024-11-06T15:00:00	2	Temperatura media	17.2
79026	7	Sololá	702	San José Chacayá	5	Chacayá	2	Febrero	2023-02-16T00:00:00	2024-11-06T15:00:00	4	Temperatura máxima	19.6
79027	7	Sololá	702	San José Chacayá	5	Chacayá	2	Febrero	2023-02-16T00:00:00	2024-11-06T15:00:00	3	Temperatura mínima	17.2
79028	7	Sololá	702	San José Chacayá	5	Chacayá	2	Febrero	2023-02-16T00:00:00	2024-11-06T15:00:00	5	Humedad	80
79029	7	Sololá	702	San José Chacayá	5	Chacayá	2	Febrero	2023-02-16T00:00:00	2024-11-06T15:00:00	6	Velocidad del viento	3.2
79030	7	Sololá	702	San José Chacayá	5	Chacayá	2	Febrero	2023-02-16T00:00:00	2024-11-06T15:00:00	7	Dirección del viento	3.22
79031	7	Sololá	702	San José Chacayá	5	Chacayá	2	Febrero	2023-02-16T00:00:00	2024-11-06T15:00:00	1	Precipitación	0
79032	7	Sololá	702	San José Chacayá	5	Chacayá	2	Febrero	2023-02-16T00:00:00	2024-11-06T15:00:00	8	Radiación solar	570
79033	7	Sololá	702	San José Chacayá	5	Chacayá	2	Febrero	2023-02-16T00:00:00	2024-11-06T16:00:00	2	Temperatura media	15.5
79034	7	Sololá	702	San José Chacayá	5	Chacayá	2	Febrero	2023-02-16T00:00:00	2024-11-06T16:00:00	4	Temperatura máxima	17.2
79035	7	Sololá	702	San José Chacayá	5	Chacayá	2	Febrero	2023-02-16T00:00:00	2024-11-06T16:00:00	3	Temperatura mínima	15.5
79036	7	Sololá	702	San José Chacayá	5	Chacayá	2	Febrero	2023-02-16T00:00:00	2024-11-06T16:00:00	5	Humedad	86
79037	7	Sololá	702	San José Chacayá	5	Chacayá	2	Febrero	2023-02-16T00:00:00	2024-11-06T16:00:00	6	Velocidad del viento	3.2
79038	7	Sololá	702	San José Chacayá	5	Chacayá	2	Febrero	2023-02-16T00:00:00	2024-11-06T16:00:00	7	Dirección del viento	3.22
79039	7	Sololá	702	San José Chacayá	5	Chacayá	2	Febrero	2023-02-16T00:00:00	2024-11-06T16:00:00	1	Precipitación	0
79040	7	Sololá	702	San José Chacayá	5	Chacayá	2	Febrero	2023-02-16T00:00:00	2024-11-06T16:00:00	8	Radiación solar	205
79041	7	Sololá	702	San José Chacayá	5	Chacayá	2	Febrero	2023-02-16T00:00:00	2024-11-06T17:00:00	2	Temperatura media	14.7
79042	7	Sololá	702	San José Chacayá	5	Chacayá	2	Febrero	2023-02-16T00:00:00	2024-11-06T17:00:00	4	Temperatura máxima	15.4
79043	7	Sololá	702	San José Chacayá	5	Chacayá	2	Febrero	2023-02-16T00:00:00	2024-11-06T17:00:00	3	Temperatura mínima	14.6
79044	7	Sololá	702	San José Chacayá	5	Chacayá	2	Febrero	2023-02-16T00:00:00	2024-11-06T17:00:00	5	Humedad	88
79045	7	Sololá	702	San José Chacayá	5	Chacayá	2	Febrero	2023-02-16T00:00:00	2024-11-06T17:00:00	6	Velocidad del viento	1.6
79046	7	Sololá	702	San José Chacayá	5	Chacayá	2	Febrero	2023-02-16T00:00:00	2024-11-06T17:00:00	7	Dirección del viento	1.61
79047	7	Sololá	702	San José Chacayá	5	Chacayá	2	Febrero	2023-02-16T00:00:00	2024-11-06T17:00:00	1	Precipitación	0
79048	7	Sololá	702	San José Chacayá	5	Chacayá	2	Febrero	2023-02-16T00:00:00	2024-11-06T17:00:00	8	Radiación solar	82
79049	7	Sololá	702	San José Chacayá	5	Chacayá	2	Febrero	2023-02-16T00:00:00	2024-11-06T18:00:00	2	Temperatura media	12.4
79050	7	Sololá	702	San José Chacayá	5	Chacayá	2	Febrero	2023-02-16T00:00:00	2024-11-06T18:00:00	4	Temperatura máxima	14.7
79051	7	Sololá	702	San José Chacayá	5	Chacayá	2	Febrero	2023-02-16T00:00:00	2024-11-06T18:00:00	3	Temperatura mínima	12.4
79052	7	Sololá	702	San José Chacayá	5	Chacayá	2	Febrero	2023-02-16T00:00:00	2024-11-06T18:00:00	5	Humedad	89
79053	7	Sololá	702	San José Chacayá	5	Chacayá	2	Febrero	2023-02-16T00:00:00	2024-11-06T18:00:00	6	Velocidad del viento	0
79054	7	Sololá	702	San José Chacayá	5	Chacayá	2	Febrero	2023-02-16T00:00:00	2024-11-06T18:00:00	7	Dirección del viento	0
79055	7	Sololá	702	San José Chacayá	5	Chacayá	2	Febrero	2023-02-16T00:00:00	2024-11-06T18:00:00	1	Precipitación	0
79056	7	Sololá	702	San José Chacayá	5	Chacayá	2	Febrero	2023-02-16T00:00:00	2024-11-06T18:00:00	8	Radiación solar	47
79057	7	Sololá	702	San José Chacayá	5	Chacayá	2	Febrero	2023-02-16T00:00:00	2024-11-06T19:00:00	2	Temperatura media	10.5
79058	7	Sololá	702	San José Chacayá	5	Chacayá	2	Febrero	2023-02-16T00:00:00	2024-11-06T19:00:00	4	Temperatura máxima	12.4
79059	7	Sololá	702	San José Chacayá	5	Chacayá	2	Febrero	2023-02-16T00:00:00	2024-11-06T19:00:00	3	Temperatura mínima	10.5
79060	7	Sololá	702	San José Chacayá	5	Chacayá	2	Febrero	2023-02-16T00:00:00	2024-11-06T19:00:00	5	Humedad	88
79061	7	Sololá	702	San José Chacayá	5	Chacayá	2	Febrero	2023-02-16T00:00:00	2024-11-06T19:00:00	6	Velocidad del viento	1.6
79062	7	Sololá	702	San José Chacayá	5	Chacayá	2	Febrero	2023-02-16T00:00:00	2024-11-06T19:00:00	7	Dirección del viento	1.61
79063	7	Sololá	702	San José Chacayá	5	Chacayá	2	Febrero	2023-02-16T00:00:00	2024-11-06T19:00:00	1	Precipitación	0
79064	7	Sololá	702	San José Chacayá	5	Chacayá	2	Febrero	2023-02-16T00:00:00	2024-11-06T19:00:00	8	Radiación solar	0
79065	7	Sololá	702	San José Chacayá	5	Chacayá	2	Febrero	2023-02-16T00:00:00	2024-11-06T20:00:00	2	Temperatura media	9.3
79066	7	Sololá	702	San José Chacayá	5	Chacayá	2	Febrero	2023-02-16T00:00:00	2024-11-06T20:00:00	4	Temperatura máxima	10.5
79067	7	Sololá	702	San José Chacayá	5	Chacayá	2	Febrero	2023-02-16T00:00:00	2024-11-06T20:00:00	3	Temperatura mínima	9.3
79068	7	Sololá	702	San José Chacayá	5	Chacayá	2	Febrero	2023-02-16T00:00:00	2024-11-06T20:00:00	5	Humedad	87
79069	7	Sololá	702	San José Chacayá	5	Chacayá	2	Febrero	2023-02-16T00:00:00	2024-11-06T20:00:00	6	Velocidad del viento	1.6
79070	7	Sololá	702	San José Chacayá	5	Chacayá	2	Febrero	2023-02-16T00:00:00	2024-11-06T20:00:00	7	Dirección del viento	1.61
79071	7	Sololá	702	San José Chacayá	5	Chacayá	2	Febrero	2023-02-16T00:00:00	2024-11-06T20:00:00	1	Precipitación	0
79072	7	Sololá	702	San José Chacayá	5	Chacayá	2	Febrero	2023-02-16T00:00:00	2024-11-06T20:00:00	8	Radiación solar	0
79073	7	Sololá	702	San José Chacayá	5	Chacayá	2	Febrero	2023-02-16T00:00:00	2024-11-06T21:00:00	2	Temperatura media	8.6
79074	7	Sololá	702	San José Chacayá	5	Chacayá	2	Febrero	2023-02-16T00:00:00	2024-11-06T21:00:00	4	Temperatura máxima	9.3
79075	7	Sololá	702	San José Chacayá	5	Chacayá	2	Febrero	2023-02-16T00:00:00	2024-11-06T21:00:00	3	Temperatura mínima	8.6
79076	7	Sololá	702	San José Chacayá	5	Chacayá	2	Febrero	2023-02-16T00:00:00	2024-11-06T21:00:00	5	Humedad	90
79077	7	Sololá	702	San José Chacayá	5	Chacayá	2	Febrero	2023-02-16T00:00:00	2024-11-06T21:00:00	6	Velocidad del viento	1.6
79078	7	Sololá	702	San José Chacayá	5	Chacayá	2	Febrero	2023-02-16T00:00:00	2024-11-06T21:00:00	7	Dirección del viento	1.61
79079	7	Sololá	702	San José Chacayá	5	Chacayá	2	Febrero	2023-02-16T00:00:00	2024-11-06T21:00:00	1	Precipitación	0
79080	7	Sololá	702	San José Chacayá	5	Chacayá	2	Febrero	2023-02-16T00:00:00	2024-11-06T21:00:00	8	Radiación solar	0
79081	7	Sololá	702	San José Chacayá	5	Chacayá	2	Febrero	2023-02-16T00:00:00	2024-11-06T22:00:00	2	Temperatura media	8.2
79082	7	Sololá	702	San José Chacayá	5	Chacayá	2	Febrero	2023-02-16T00:00:00	2024-11-06T22:00:00	4	Temperatura máxima	8.7
79083	7	Sololá	702	San José Chacayá	5	Chacayá	2	Febrero	2023-02-16T00:00:00	2024-11-06T22:00:00	3	Temperatura mínima	8.2
79084	7	Sololá	702	San José Chacayá	5	Chacayá	2	Febrero	2023-02-16T00:00:00	2024-11-06T22:00:00	5	Humedad	93
79085	7	Sololá	702	San José Chacayá	5	Chacayá	2	Febrero	2023-02-16T00:00:00	2024-11-06T22:00:00	6	Velocidad del viento	1.6
79086	7	Sololá	702	San José Chacayá	5	Chacayá	2	Febrero	2023-02-16T00:00:00	2024-11-06T22:00:00	7	Dirección del viento	1.61
79087	7	Sololá	702	San José Chacayá	5	Chacayá	2	Febrero	2023-02-16T00:00:00	2024-11-06T22:00:00	1	Precipitación	0
79088	7	Sololá	702	San José Chacayá	5	Chacayá	2	Febrero	2023-02-16T00:00:00	2024-11-06T22:00:00	8	Radiación solar	0
79089	7	Sololá	702	San José Chacayá	5	Chacayá	2	Febrero	2023-02-16T00:00:00	2024-11-06T23:00:00	2	Temperatura media	7.5
79090	7	Sololá	702	San José Chacayá	5	Chacayá	2	Febrero	2023-02-16T00:00:00	2024-11-06T23:00:00	4	Temperatura máxima	8.2
79091	7	Sololá	702	San José Chacayá	5	Chacayá	2	Febrero	2023-02-16T00:00:00	2024-11-06T23:00:00	3	Temperatura mínima	7.5
79092	7	Sololá	702	San José Chacayá	5	Chacayá	2	Febrero	2023-02-16T00:00:00	2024-11-06T23:00:00	5	Humedad	92
79093	7	Sololá	702	San José Chacayá	5	Chacayá	2	Febrero	2023-02-16T00:00:00	2024-11-06T23:00:00	6	Velocidad del viento	0
79094	7	Sololá	702	San José Chacayá	5	Chacayá	2	Febrero	2023-02-16T00:00:00	2024-11-06T23:00:00	7	Dirección del viento	0
79095	7	Sololá	702	San José Chacayá	5	Chacayá	2	Febrero	2023-02-16T00:00:00	2024-11-06T23:00:00	1	Precipitación	0
79096	7	Sololá	702	San José Chacayá	5	Chacayá	2	Febrero	2023-02-16T00:00:00	2024-11-06T23:00:00	8	Radiación solar	0
79097	7	Sololá	702	San José Chacayá	5	Chacayá	2	Febrero	2023-02-17T00:00:00	2024-11-06T00:00:00	2	Temperatura media	6.7
79098	7	Sololá	702	San José Chacayá	5	Chacayá	2	Febrero	2023-02-17T00:00:00	2024-11-06T00:00:00	4	Temperatura máxima	7.6
79099	7	Sololá	702	San José Chacayá	5	Chacayá	2	Febrero	2023-02-17T00:00:00	2024-11-06T00:00:00	3	Temperatura mínima	6.6
79100	7	Sololá	702	San José Chacayá	5	Chacayá	2	Febrero	2023-02-17T00:00:00	2024-11-06T00:00:00	5	Humedad	88
79101	7	Sololá	702	San José Chacayá	5	Chacayá	2	Febrero	2023-02-17T00:00:00	2024-11-06T00:00:00	6	Velocidad del viento	1.6
79102	7	Sololá	702	San José Chacayá	5	Chacayá	2	Febrero	2023-02-17T00:00:00	2024-11-06T00:00:00	7	Dirección del viento	1.61
79103	7	Sololá	702	San José Chacayá	5	Chacayá	2	Febrero	2023-02-17T00:00:00	2024-11-06T00:00:00	1	Precipitación	0
79104	7	Sololá	702	San José Chacayá	5	Chacayá	2	Febrero	2023-02-17T00:00:00	2024-11-06T00:00:00	8	Radiación solar	0
79105	7	Sololá	702	San José Chacayá	5	Chacayá	2	Febrero	2023-02-17T00:00:00	2024-11-06T01:00:00	2	Temperatura media	5.7
79106	7	Sololá	702	San José Chacayá	5	Chacayá	2	Febrero	2023-02-17T00:00:00	2024-11-06T01:00:00	4	Temperatura máxima	6.7
79107	7	Sololá	702	San José Chacayá	5	Chacayá	2	Febrero	2023-02-17T00:00:00	2024-11-06T01:00:00	3	Temperatura mínima	5.7
79108	7	Sololá	702	San José Chacayá	5	Chacayá	2	Febrero	2023-02-17T00:00:00	2024-11-06T01:00:00	5	Humedad	85
79109	7	Sololá	702	San José Chacayá	5	Chacayá	2	Febrero	2023-02-17T00:00:00	2024-11-06T01:00:00	6	Velocidad del viento	1.6
79110	7	Sololá	702	San José Chacayá	5	Chacayá	2	Febrero	2023-02-17T00:00:00	2024-11-06T01:00:00	7	Dirección del viento	1.61
79111	7	Sololá	702	San José Chacayá	5	Chacayá	2	Febrero	2023-02-17T00:00:00	2024-11-06T01:00:00	1	Precipitación	0
79112	7	Sololá	702	San José Chacayá	5	Chacayá	2	Febrero	2023-02-17T00:00:00	2024-11-06T01:00:00	8	Radiación solar	0
79113	7	Sololá	702	San José Chacayá	5	Chacayá	2	Febrero	2023-02-17T00:00:00	2024-11-06T02:00:00	2	Temperatura media	4.4
79114	7	Sololá	702	San José Chacayá	5	Chacayá	2	Febrero	2023-02-17T00:00:00	2024-11-06T02:00:00	4	Temperatura máxima	5.7
79115	7	Sololá	702	San José Chacayá	5	Chacayá	2	Febrero	2023-02-17T00:00:00	2024-11-06T02:00:00	3	Temperatura mínima	4.4
79116	7	Sololá	702	San José Chacayá	5	Chacayá	2	Febrero	2023-02-17T00:00:00	2024-11-06T02:00:00	5	Humedad	85
79117	7	Sololá	702	San José Chacayá	5	Chacayá	2	Febrero	2023-02-17T00:00:00	2024-11-06T02:00:00	6	Velocidad del viento	1.6
79118	7	Sololá	702	San José Chacayá	5	Chacayá	2	Febrero	2023-02-17T00:00:00	2024-11-06T02:00:00	7	Dirección del viento	1.61
79119	7	Sololá	702	San José Chacayá	5	Chacayá	2	Febrero	2023-02-17T00:00:00	2024-11-06T02:00:00	1	Precipitación	0
79120	7	Sololá	702	San José Chacayá	5	Chacayá	2	Febrero	2023-02-17T00:00:00	2024-11-06T02:00:00	8	Radiación solar	0
79121	7	Sololá	702	San José Chacayá	5	Chacayá	2	Febrero	2023-02-17T00:00:00	2024-11-06T03:00:00	2	Temperatura media	4
79122	7	Sololá	702	San José Chacayá	5	Chacayá	2	Febrero	2023-02-17T00:00:00	2024-11-06T03:00:00	4	Temperatura máxima	4.6
79123	7	Sololá	702	San José Chacayá	5	Chacayá	2	Febrero	2023-02-17T00:00:00	2024-11-06T03:00:00	3	Temperatura mínima	4
79124	7	Sololá	702	San José Chacayá	5	Chacayá	2	Febrero	2023-02-17T00:00:00	2024-11-06T03:00:00	5	Humedad	86
79125	7	Sololá	702	San José Chacayá	5	Chacayá	2	Febrero	2023-02-17T00:00:00	2024-11-06T03:00:00	6	Velocidad del viento	0
79126	7	Sololá	702	San José Chacayá	5	Chacayá	2	Febrero	2023-02-17T00:00:00	2024-11-06T03:00:00	7	Dirección del viento	0
79127	7	Sololá	702	San José Chacayá	5	Chacayá	2	Febrero	2023-02-17T00:00:00	2024-11-06T03:00:00	1	Precipitación	0
79128	7	Sololá	702	San José Chacayá	5	Chacayá	2	Febrero	2023-02-17T00:00:00	2024-11-06T03:00:00	8	Radiación solar	0
79129	7	Sololá	702	San José Chacayá	5	Chacayá	2	Febrero	2023-02-17T00:00:00	2024-11-06T04:00:00	2	Temperatura media	3.2
79130	7	Sololá	702	San José Chacayá	5	Chacayá	2	Febrero	2023-02-17T00:00:00	2024-11-06T04:00:00	4	Temperatura máxima	4
79131	7	Sololá	702	San José Chacayá	5	Chacayá	2	Febrero	2023-02-17T00:00:00	2024-11-06T04:00:00	3	Temperatura mínima	3.2
79132	7	Sololá	702	San José Chacayá	5	Chacayá	2	Febrero	2023-02-17T00:00:00	2024-11-06T04:00:00	5	Humedad	86
79133	7	Sololá	702	San José Chacayá	5	Chacayá	2	Febrero	2023-02-17T00:00:00	2024-11-06T04:00:00	6	Velocidad del viento	1.6
79134	7	Sololá	702	San José Chacayá	5	Chacayá	2	Febrero	2023-02-17T00:00:00	2024-11-06T04:00:00	7	Dirección del viento	1.61
79135	7	Sololá	702	San José Chacayá	5	Chacayá	2	Febrero	2023-02-17T00:00:00	2024-11-06T04:00:00	1	Precipitación	0
79136	7	Sololá	702	San José Chacayá	5	Chacayá	2	Febrero	2023-02-17T00:00:00	2024-11-06T04:00:00	8	Radiación solar	0
79137	7	Sololá	702	San José Chacayá	5	Chacayá	2	Febrero	2023-02-17T00:00:00	2024-11-06T05:00:00	2	Temperatura media	3
79138	7	Sololá	702	San José Chacayá	5	Chacayá	2	Febrero	2023-02-17T00:00:00	2024-11-06T05:00:00	4	Temperatura máxima	3.3
79139	7	Sololá	702	San José Chacayá	5	Chacayá	2	Febrero	2023-02-17T00:00:00	2024-11-06T05:00:00	3	Temperatura mínima	3
79140	7	Sololá	702	San José Chacayá	5	Chacayá	2	Febrero	2023-02-17T00:00:00	2024-11-06T05:00:00	5	Humedad	82
79141	7	Sololá	702	San José Chacayá	5	Chacayá	2	Febrero	2023-02-17T00:00:00	2024-11-06T05:00:00	6	Velocidad del viento	1.6
79142	7	Sololá	702	San José Chacayá	5	Chacayá	2	Febrero	2023-02-17T00:00:00	2024-11-06T05:00:00	7	Dirección del viento	1.61
79143	7	Sololá	702	San José Chacayá	5	Chacayá	2	Febrero	2023-02-17T00:00:00	2024-11-06T05:00:00	1	Precipitación	0
79144	7	Sololá	702	San José Chacayá	5	Chacayá	2	Febrero	2023-02-17T00:00:00	2024-11-06T05:00:00	8	Radiación solar	0
79145	7	Sololá	702	San José Chacayá	5	Chacayá	2	Febrero	2023-02-17T00:00:00	2024-11-06T06:00:00	2	Temperatura media	3.9
79146	7	Sololá	702	San José Chacayá	5	Chacayá	2	Febrero	2023-02-17T00:00:00	2024-11-06T06:00:00	4	Temperatura máxima	3.9
79147	7	Sololá	702	San José Chacayá	5	Chacayá	2	Febrero	2023-02-17T00:00:00	2024-11-06T06:00:00	3	Temperatura mínima	2.8
79148	7	Sololá	702	San José Chacayá	5	Chacayá	2	Febrero	2023-02-17T00:00:00	2024-11-06T06:00:00	5	Humedad	77
79149	7	Sololá	702	San José Chacayá	5	Chacayá	2	Febrero	2023-02-17T00:00:00	2024-11-06T06:00:00	6	Velocidad del viento	1.6
79150	7	Sololá	702	San José Chacayá	5	Chacayá	2	Febrero	2023-02-17T00:00:00	2024-11-06T06:00:00	7	Dirección del viento	1.61
79151	7	Sololá	702	San José Chacayá	5	Chacayá	2	Febrero	2023-02-17T00:00:00	2024-11-06T06:00:00	1	Precipitación	0
79152	7	Sololá	702	San José Chacayá	5	Chacayá	2	Febrero	2023-02-17T00:00:00	2024-11-06T06:00:00	8	Radiación solar	0
79153	7	Sololá	702	San José Chacayá	5	Chacayá	2	Febrero	2023-02-17T00:00:00	2024-11-06T07:00:00	2	Temperatura media	10.2
79154	7	Sololá	702	San José Chacayá	5	Chacayá	2	Febrero	2023-02-17T00:00:00	2024-11-06T07:00:00	4	Temperatura máxima	10.2
79155	7	Sololá	702	San José Chacayá	5	Chacayá	2	Febrero	2023-02-17T00:00:00	2024-11-06T07:00:00	3	Temperatura mínima	4
79156	7	Sololá	702	San José Chacayá	5	Chacayá	2	Febrero	2023-02-17T00:00:00	2024-11-06T07:00:00	5	Humedad	69
79157	7	Sololá	702	San José Chacayá	5	Chacayá	2	Febrero	2023-02-17T00:00:00	2024-11-06T07:00:00	6	Velocidad del viento	1.6
79158	7	Sololá	702	San José Chacayá	5	Chacayá	2	Febrero	2023-02-17T00:00:00	2024-11-06T07:00:00	7	Dirección del viento	1.61
79159	7	Sololá	702	San José Chacayá	5	Chacayá	2	Febrero	2023-02-17T00:00:00	2024-11-06T07:00:00	1	Precipitación	0
79160	7	Sololá	702	San José Chacayá	5	Chacayá	2	Febrero	2023-02-17T00:00:00	2024-11-06T07:00:00	8	Radiación solar	8
79161	7	Sololá	702	San José Chacayá	5	Chacayá	2	Febrero	2023-02-17T00:00:00	2024-11-06T08:00:00	2	Temperatura media	16.6
79162	7	Sololá	702	San José Chacayá	5	Chacayá	2	Febrero	2023-02-17T00:00:00	2024-11-06T08:00:00	4	Temperatura máxima	16.6
79163	7	Sololá	702	San José Chacayá	5	Chacayá	2	Febrero	2023-02-17T00:00:00	2024-11-06T08:00:00	3	Temperatura mínima	10.2
79164	7	Sololá	702	San José Chacayá	5	Chacayá	2	Febrero	2023-02-17T00:00:00	2024-11-06T08:00:00	5	Humedad	69
79165	7	Sololá	702	San José Chacayá	5	Chacayá	2	Febrero	2023-02-17T00:00:00	2024-11-06T08:00:00	6	Velocidad del viento	1.6
79166	7	Sololá	702	San José Chacayá	5	Chacayá	2	Febrero	2023-02-17T00:00:00	2024-11-06T08:00:00	7	Dirección del viento	1.61
79167	7	Sololá	702	San José Chacayá	5	Chacayá	2	Febrero	2023-02-17T00:00:00	2024-11-06T08:00:00	1	Precipitación	0
79168	7	Sololá	702	San José Chacayá	5	Chacayá	2	Febrero	2023-02-17T00:00:00	2024-11-06T08:00:00	8	Radiación solar	190
79169	7	Sololá	702	San José Chacayá	5	Chacayá	2	Febrero	2023-02-17T00:00:00	2024-11-06T09:00:00	2	Temperatura media	20.5
79170	7	Sololá	702	San José Chacayá	5	Chacayá	2	Febrero	2023-02-17T00:00:00	2024-11-06T09:00:00	4	Temperatura máxima	20.5
79171	7	Sololá	702	San José Chacayá	5	Chacayá	2	Febrero	2023-02-17T00:00:00	2024-11-06T09:00:00	3	Temperatura mínima	16.6
79172	7	Sololá	702	San José Chacayá	5	Chacayá	2	Febrero	2023-02-17T00:00:00	2024-11-06T09:00:00	5	Humedad	44
79173	7	Sololá	702	San José Chacayá	5	Chacayá	2	Febrero	2023-02-17T00:00:00	2024-11-06T09:00:00	6	Velocidad del viento	4.8
79174	7	Sololá	702	San José Chacayá	5	Chacayá	2	Febrero	2023-02-17T00:00:00	2024-11-06T09:00:00	7	Dirección del viento	4.83
79175	7	Sololá	702	San José Chacayá	5	Chacayá	2	Febrero	2023-02-17T00:00:00	2024-11-06T09:00:00	1	Precipitación	0
79176	7	Sololá	702	San José Chacayá	5	Chacayá	2	Febrero	2023-02-17T00:00:00	2024-11-06T09:00:00	8	Radiación solar	507
79177	7	Sololá	702	San José Chacayá	5	Chacayá	2	Febrero	2023-02-17T00:00:00	2024-11-06T10:00:00	2	Temperatura media	20.3
79178	7	Sololá	702	San José Chacayá	5	Chacayá	2	Febrero	2023-02-17T00:00:00	2024-11-06T10:00:00	4	Temperatura máxima	21.3
79179	7	Sololá	702	San José Chacayá	5	Chacayá	2	Febrero	2023-02-17T00:00:00	2024-11-06T10:00:00	3	Temperatura mínima	20.3
79180	7	Sololá	702	San José Chacayá	5	Chacayá	2	Febrero	2023-02-17T00:00:00	2024-11-06T10:00:00	5	Humedad	42
79181	7	Sololá	702	San José Chacayá	5	Chacayá	2	Febrero	2023-02-17T00:00:00	2024-11-06T10:00:00	6	Velocidad del viento	6.4
79182	7	Sololá	702	San José Chacayá	5	Chacayá	2	Febrero	2023-02-17T00:00:00	2024-11-06T10:00:00	7	Dirección del viento	6.44
79183	7	Sololá	702	San José Chacayá	5	Chacayá	2	Febrero	2023-02-17T00:00:00	2024-11-06T10:00:00	1	Precipitación	0
79184	7	Sololá	702	San José Chacayá	5	Chacayá	2	Febrero	2023-02-17T00:00:00	2024-11-06T10:00:00	8	Radiación solar	691
79185	7	Sololá	702	San José Chacayá	5	Chacayá	2	Febrero	2023-02-17T00:00:00	2024-11-06T11:00:00	2	Temperatura media	21.6
79186	7	Sololá	702	San José Chacayá	5	Chacayá	2	Febrero	2023-02-17T00:00:00	2024-11-06T11:00:00	4	Temperatura máxima	22.3
79187	7	Sololá	702	San José Chacayá	5	Chacayá	2	Febrero	2023-02-17T00:00:00	2024-11-06T11:00:00	3	Temperatura mínima	20.1
79188	7	Sololá	702	San José Chacayá	5	Chacayá	2	Febrero	2023-02-17T00:00:00	2024-11-06T11:00:00	5	Humedad	44
79189	7	Sololá	702	San José Chacayá	5	Chacayá	2	Febrero	2023-02-17T00:00:00	2024-11-06T11:00:00	6	Velocidad del viento	8
79190	7	Sololá	702	San José Chacayá	5	Chacayá	2	Febrero	2023-02-17T00:00:00	2024-11-06T11:00:00	7	Dirección del viento	8.05
79191	7	Sololá	702	San José Chacayá	5	Chacayá	2	Febrero	2023-02-17T00:00:00	2024-11-06T11:00:00	1	Precipitación	0
79192	7	Sololá	702	San José Chacayá	5	Chacayá	2	Febrero	2023-02-17T00:00:00	2024-11-06T11:00:00	8	Radiación solar	144
79193	7	Sololá	702	San José Chacayá	5	Chacayá	2	Febrero	2023-02-17T00:00:00	2024-11-06T12:00:00	2	Temperatura media	20.7
79194	7	Sololá	702	San José Chacayá	5	Chacayá	2	Febrero	2023-02-17T00:00:00	2024-11-06T12:00:00	4	Temperatura máxima	20.7
79195	7	Sololá	702	San José Chacayá	5	Chacayá	2	Febrero	2023-02-17T00:00:00	2024-11-06T12:00:00	3	Temperatura mínima	20.6
79196	7	Sololá	702	San José Chacayá	5	Chacayá	2	Febrero	2023-02-17T00:00:00	2024-11-06T12:00:00	5	Humedad	45
79197	7	Sololá	702	San José Chacayá	5	Chacayá	2	Febrero	2023-02-17T00:00:00	2024-11-06T12:00:00	6	Velocidad del viento	8
79198	7	Sololá	702	San José Chacayá	5	Chacayá	2	Febrero	2023-02-17T00:00:00	2024-11-06T12:00:00	7	Dirección del viento	0.13
79199	7	Sololá	702	San José Chacayá	5	Chacayá	2	Febrero	2023-02-17T00:00:00	2024-11-06T12:00:00	1	Precipitación	0
79200	7	Sololá	702	San José Chacayá	5	Chacayá	2	Febrero	2023-02-17T00:00:00	2024-11-06T12:00:00	8	Radiación solar	944
79201	7	Sololá	702	San José Chacayá	5	Chacayá	2	Febrero	2023-02-17T00:00:00	2024-11-06T13:00:00	2	Temperatura media	20.6
79202	7	Sololá	702	San José Chacayá	5	Chacayá	2	Febrero	2023-02-17T00:00:00	2024-11-06T13:00:00	4	Temperatura máxima	20.9
79203	7	Sololá	702	San José Chacayá	5	Chacayá	2	Febrero	2023-02-17T00:00:00	2024-11-06T13:00:00	3	Temperatura mínima	20.1
79204	7	Sololá	702	San José Chacayá	5	Chacayá	2	Febrero	2023-02-17T00:00:00	2024-11-06T13:00:00	5	Humedad	44
79205	7	Sololá	702	San José Chacayá	5	Chacayá	2	Febrero	2023-02-17T00:00:00	2024-11-06T13:00:00	6	Velocidad del viento	9.7
79206	7	Sololá	702	San José Chacayá	5	Chacayá	2	Febrero	2023-02-17T00:00:00	2024-11-06T13:00:00	7	Dirección del viento	9.66
79207	7	Sololá	702	San José Chacayá	5	Chacayá	2	Febrero	2023-02-17T00:00:00	2024-11-06T13:00:00	1	Precipitación	0
79208	7	Sololá	702	San José Chacayá	5	Chacayá	2	Febrero	2023-02-17T00:00:00	2024-11-06T13:00:00	8	Radiación solar	940
79209	7	Sololá	702	San José Chacayá	5	Chacayá	2	Febrero	2023-02-17T00:00:00	2024-11-06T14:00:00	2	Temperatura media	20.9
79210	7	Sololá	702	San José Chacayá	5	Chacayá	2	Febrero	2023-02-17T00:00:00	2024-11-06T14:00:00	4	Temperatura máxima	21.3
79211	7	Sololá	702	San José Chacayá	5	Chacayá	2	Febrero	2023-02-17T00:00:00	2024-11-06T14:00:00	3	Temperatura mínima	20.1
79212	7	Sololá	702	San José Chacayá	5	Chacayá	2	Febrero	2023-02-17T00:00:00	2024-11-06T14:00:00	5	Humedad	45
79213	7	Sololá	702	San José Chacayá	5	Chacayá	2	Febrero	2023-02-17T00:00:00	2024-11-06T14:00:00	6	Velocidad del viento	9.7
79214	7	Sololá	702	San José Chacayá	5	Chacayá	2	Febrero	2023-02-17T00:00:00	2024-11-06T14:00:00	7	Dirección del viento	9.66
79215	7	Sololá	702	San José Chacayá	5	Chacayá	2	Febrero	2023-02-17T00:00:00	2024-11-06T14:00:00	1	Precipitación	0
79216	7	Sololá	702	San José Chacayá	5	Chacayá	2	Febrero	2023-02-17T00:00:00	2024-11-06T14:00:00	8	Radiación solar	893
79217	7	Sololá	702	San José Chacayá	5	Chacayá	2	Febrero	2023-02-17T00:00:00	2024-11-06T15:00:00	2	Temperatura media	19.8
79218	7	Sololá	702	San José Chacayá	5	Chacayá	2	Febrero	2023-02-17T00:00:00	2024-11-06T15:00:00	4	Temperatura máxima	20.9
79219	7	Sololá	702	San José Chacayá	5	Chacayá	2	Febrero	2023-02-17T00:00:00	2024-11-06T15:00:00	3	Temperatura mínima	19.6
79220	7	Sololá	702	San José Chacayá	5	Chacayá	2	Febrero	2023-02-17T00:00:00	2024-11-06T15:00:00	5	Humedad	48
79221	7	Sololá	702	San José Chacayá	5	Chacayá	2	Febrero	2023-02-17T00:00:00	2024-11-06T15:00:00	6	Velocidad del viento	11.3
79222	7	Sololá	702	San José Chacayá	5	Chacayá	2	Febrero	2023-02-17T00:00:00	2024-11-06T15:00:00	7	Dirección del viento	11.27
79223	7	Sololá	702	San José Chacayá	5	Chacayá	2	Febrero	2023-02-17T00:00:00	2024-11-06T15:00:00	1	Precipitación	0
79224	7	Sololá	702	San José Chacayá	5	Chacayá	2	Febrero	2023-02-17T00:00:00	2024-11-06T15:00:00	8	Radiación solar	774
79225	7	Sololá	702	San José Chacayá	5	Chacayá	2	Febrero	2023-02-17T00:00:00	2024-11-06T16:00:00	2	Temperatura media	18.2
79226	7	Sololá	702	San José Chacayá	5	Chacayá	2	Febrero	2023-02-17T00:00:00	2024-11-06T16:00:00	4	Temperatura máxima	19.9
79227	7	Sololá	702	San José Chacayá	5	Chacayá	2	Febrero	2023-02-17T00:00:00	2024-11-06T16:00:00	3	Temperatura mínima	18.2
79228	7	Sololá	702	San José Chacayá	5	Chacayá	2	Febrero	2023-02-17T00:00:00	2024-11-06T16:00:00	5	Humedad	50
79229	7	Sololá	702	San José Chacayá	5	Chacayá	2	Febrero	2023-02-17T00:00:00	2024-11-06T16:00:00	6	Velocidad del viento	9.7
79230	7	Sololá	702	San José Chacayá	5	Chacayá	2	Febrero	2023-02-17T00:00:00	2024-11-06T16:00:00	7	Dirección del viento	9.66
79231	7	Sololá	702	San José Chacayá	5	Chacayá	2	Febrero	2023-02-17T00:00:00	2024-11-06T16:00:00	1	Precipitación	0
79232	7	Sololá	702	San José Chacayá	5	Chacayá	2	Febrero	2023-02-17T00:00:00	2024-11-06T16:00:00	8	Radiación solar	603
79233	7	Sololá	702	San José Chacayá	5	Chacayá	2	Febrero	2023-02-17T00:00:00	2024-11-06T17:00:00	2	Temperatura media	16.9
79234	7	Sololá	702	San José Chacayá	5	Chacayá	2	Febrero	2023-02-17T00:00:00	2024-11-06T17:00:00	4	Temperatura máxima	18.2
79235	7	Sololá	702	San José Chacayá	5	Chacayá	2	Febrero	2023-02-17T00:00:00	2024-11-06T17:00:00	3	Temperatura mínima	16.9
79236	7	Sololá	702	San José Chacayá	5	Chacayá	2	Febrero	2023-02-17T00:00:00	2024-11-06T17:00:00	5	Humedad	56
79237	7	Sololá	702	San José Chacayá	5	Chacayá	2	Febrero	2023-02-17T00:00:00	2024-11-06T17:00:00	6	Velocidad del viento	9.7
79238	7	Sololá	702	San José Chacayá	5	Chacayá	2	Febrero	2023-02-17T00:00:00	2024-11-06T17:00:00	7	Dirección del viento	9.66
79239	7	Sololá	702	San José Chacayá	5	Chacayá	2	Febrero	2023-02-17T00:00:00	2024-11-06T17:00:00	1	Precipitación	0
79240	7	Sololá	702	San José Chacayá	5	Chacayá	2	Febrero	2023-02-17T00:00:00	2024-11-06T17:00:00	8	Radiación solar	357
79241	7	Sololá	702	San José Chacayá	5	Chacayá	2	Febrero	2023-02-17T00:00:00	2024-11-06T18:00:00	2	Temperatura media	14.6
79242	7	Sololá	702	San José Chacayá	5	Chacayá	2	Febrero	2023-02-17T00:00:00	2024-11-06T18:00:00	4	Temperatura máxima	16.9
79243	7	Sololá	702	San José Chacayá	5	Chacayá	2	Febrero	2023-02-17T00:00:00	2024-11-06T18:00:00	3	Temperatura mínima	14.6
79244	7	Sololá	702	San José Chacayá	5	Chacayá	2	Febrero	2023-02-17T00:00:00	2024-11-06T18:00:00	5	Humedad	68
79245	7	Sololá	702	San José Chacayá	5	Chacayá	2	Febrero	2023-02-17T00:00:00	2024-11-06T18:00:00	6	Velocidad del viento	8
79246	7	Sololá	702	San José Chacayá	5	Chacayá	2	Febrero	2023-02-17T00:00:00	2024-11-06T18:00:00	7	Dirección del viento	8.05
79247	7	Sololá	702	San José Chacayá	5	Chacayá	2	Febrero	2023-02-17T00:00:00	2024-11-06T18:00:00	1	Precipitación	0
79248	7	Sololá	702	San José Chacayá	5	Chacayá	2	Febrero	2023-02-17T00:00:00	2024-11-06T18:00:00	8	Radiación solar	73
79249	7	Sololá	702	San José Chacayá	5	Chacayá	2	Febrero	2023-02-17T00:00:00	2024-11-06T19:00:00	2	Temperatura media	14
79250	7	Sololá	702	San José Chacayá	5	Chacayá	2	Febrero	2023-02-17T00:00:00	2024-11-06T19:00:00	4	Temperatura máxima	14.6
79251	7	Sololá	702	San José Chacayá	5	Chacayá	2	Febrero	2023-02-17T00:00:00	2024-11-06T19:00:00	3	Temperatura mínima	13.8
79252	7	Sololá	702	San José Chacayá	5	Chacayá	2	Febrero	2023-02-17T00:00:00	2024-11-06T19:00:00	5	Humedad	62
79253	7	Sololá	702	San José Chacayá	5	Chacayá	2	Febrero	2023-02-17T00:00:00	2024-11-06T19:00:00	6	Velocidad del viento	8
79254	7	Sololá	702	San José Chacayá	5	Chacayá	2	Febrero	2023-02-17T00:00:00	2024-11-06T19:00:00	7	Dirección del viento	8.05
79255	7	Sololá	702	San José Chacayá	5	Chacayá	2	Febrero	2023-02-17T00:00:00	2024-11-06T19:00:00	1	Precipitación	0
79256	7	Sololá	702	San José Chacayá	5	Chacayá	2	Febrero	2023-02-17T00:00:00	2024-11-06T19:00:00	8	Radiación solar	1
79257	7	Sololá	702	San José Chacayá	5	Chacayá	2	Febrero	2023-02-17T00:00:00	2024-11-06T20:00:00	2	Temperatura media	13.6
79258	7	Sololá	702	San José Chacayá	5	Chacayá	2	Febrero	2023-02-17T00:00:00	2024-11-06T20:00:00	4	Temperatura máxima	14.1
79259	7	Sololá	702	San José Chacayá	5	Chacayá	2	Febrero	2023-02-17T00:00:00	2024-11-06T20:00:00	3	Temperatura mínima	13.5
79260	7	Sololá	702	San José Chacayá	5	Chacayá	2	Febrero	2023-02-17T00:00:00	2024-11-06T20:00:00	5	Humedad	72
79261	7	Sololá	702	San José Chacayá	5	Chacayá	2	Febrero	2023-02-17T00:00:00	2024-11-06T20:00:00	6	Velocidad del viento	6.4
79262	7	Sololá	702	San José Chacayá	5	Chacayá	2	Febrero	2023-02-17T00:00:00	2024-11-06T20:00:00	7	Dirección del viento	6.44
79263	7	Sololá	702	San José Chacayá	5	Chacayá	2	Febrero	2023-02-17T00:00:00	2024-11-06T20:00:00	1	Precipitación	0
79264	7	Sololá	702	San José Chacayá	5	Chacayá	2	Febrero	2023-02-17T00:00:00	2024-11-06T20:00:00	8	Radiación solar	0
79265	7	Sololá	702	San José Chacayá	5	Chacayá	2	Febrero	2023-02-17T00:00:00	2024-11-06T21:00:00	2	Temperatura media	13.6
79266	7	Sololá	702	San José Chacayá	5	Chacayá	2	Febrero	2023-02-17T00:00:00	2024-11-06T21:00:00	4	Temperatura máxima	13.7
79267	7	Sololá	702	San José Chacayá	5	Chacayá	2	Febrero	2023-02-17T00:00:00	2024-11-06T21:00:00	3	Temperatura mínima	13.6
79268	7	Sololá	702	San José Chacayá	5	Chacayá	2	Febrero	2023-02-17T00:00:00	2024-11-06T21:00:00	5	Humedad	68
79269	7	Sololá	702	San José Chacayá	5	Chacayá	2	Febrero	2023-02-17T00:00:00	2024-11-06T21:00:00	6	Velocidad del viento	8
79270	7	Sololá	702	San José Chacayá	5	Chacayá	2	Febrero	2023-02-17T00:00:00	2024-11-06T21:00:00	7	Dirección del viento	8.05
79271	7	Sololá	702	San José Chacayá	5	Chacayá	2	Febrero	2023-02-17T00:00:00	2024-11-06T21:00:00	1	Precipitación	0
79272	7	Sololá	702	San José Chacayá	5	Chacayá	2	Febrero	2023-02-17T00:00:00	2024-11-06T21:00:00	8	Radiación solar	0
79273	7	Sololá	702	San José Chacayá	5	Chacayá	2	Febrero	2023-02-17T00:00:00	2024-11-06T22:00:00	2	Temperatura media	14.2
79274	7	Sololá	702	San José Chacayá	5	Chacayá	2	Febrero	2023-02-17T00:00:00	2024-11-06T22:00:00	4	Temperatura máxima	14.2
79275	7	Sololá	702	San José Chacayá	5	Chacayá	2	Febrero	2023-02-17T00:00:00	2024-11-06T22:00:00	3	Temperatura mínima	13.6
79276	7	Sololá	702	San José Chacayá	5	Chacayá	2	Febrero	2023-02-17T00:00:00	2024-11-06T22:00:00	5	Humedad	72
79277	7	Sololá	702	San José Chacayá	5	Chacayá	2	Febrero	2023-02-17T00:00:00	2024-11-06T22:00:00	6	Velocidad del viento	8
79278	7	Sololá	702	San José Chacayá	5	Chacayá	2	Febrero	2023-02-17T00:00:00	2024-11-06T22:00:00	7	Dirección del viento	8.05
79279	7	Sololá	702	San José Chacayá	5	Chacayá	2	Febrero	2023-02-17T00:00:00	2024-11-06T22:00:00	1	Precipitación	0
79280	7	Sololá	702	San José Chacayá	5	Chacayá	2	Febrero	2023-02-17T00:00:00	2024-11-06T22:00:00	8	Radiación solar	0
79281	7	Sololá	702	San José Chacayá	5	Chacayá	2	Febrero	2023-02-17T00:00:00	2024-11-06T23:00:00	2	Temperatura media	13.9
79282	7	Sololá	702	San José Chacayá	5	Chacayá	2	Febrero	2023-02-17T00:00:00	2024-11-06T23:00:00	4	Temperatura máxima	14.2
79283	7	Sololá	702	San José Chacayá	5	Chacayá	2	Febrero	2023-02-17T00:00:00	2024-11-06T23:00:00	3	Temperatura mínima	13.8
79284	7	Sololá	702	San José Chacayá	5	Chacayá	2	Febrero	2023-02-17T00:00:00	2024-11-06T23:00:00	5	Humedad	74
79285	7	Sololá	702	San José Chacayá	5	Chacayá	2	Febrero	2023-02-17T00:00:00	2024-11-06T23:00:00	6	Velocidad del viento	9.7
79286	7	Sololá	702	San José Chacayá	5	Chacayá	2	Febrero	2023-02-17T00:00:00	2024-11-06T23:00:00	7	Dirección del viento	9.66
79287	7	Sololá	702	San José Chacayá	5	Chacayá	2	Febrero	2023-02-17T00:00:00	2024-11-06T23:00:00	1	Precipitación	0
79288	7	Sololá	702	San José Chacayá	5	Chacayá	2	Febrero	2023-02-17T00:00:00	2024-11-06T23:00:00	8	Radiación solar	0
79289	7	Sololá	702	San José Chacayá	5	Chacayá	2	Febrero	2023-02-18T00:00:00	2024-11-06T00:00:00	2	Temperatura media	13.5
79290	7	Sololá	702	San José Chacayá	5	Chacayá	2	Febrero	2023-02-18T00:00:00	2024-11-06T00:00:00	4	Temperatura máxima	13.9
79291	7	Sololá	702	San José Chacayá	5	Chacayá	2	Febrero	2023-02-18T00:00:00	2024-11-06T00:00:00	3	Temperatura mínima	13.4
79292	7	Sololá	702	San José Chacayá	5	Chacayá	2	Febrero	2023-02-18T00:00:00	2024-11-06T00:00:00	5	Humedad	77
79293	7	Sololá	702	San José Chacayá	5	Chacayá	2	Febrero	2023-02-18T00:00:00	2024-11-06T00:00:00	6	Velocidad del viento	9.7
79294	7	Sololá	702	San José Chacayá	5	Chacayá	2	Febrero	2023-02-18T00:00:00	2024-11-06T00:00:00	7	Dirección del viento	9.66
79295	7	Sololá	702	San José Chacayá	5	Chacayá	2	Febrero	2023-02-18T00:00:00	2024-11-06T00:00:00	1	Precipitación	0
79296	7	Sololá	702	San José Chacayá	5	Chacayá	2	Febrero	2023-02-18T00:00:00	2024-11-06T00:00:00	8	Radiación solar	0
79297	7	Sololá	702	San José Chacayá	5	Chacayá	2	Febrero	2023-02-18T00:00:00	2024-11-06T01:00:00	2	Temperatura media	13.8
79298	7	Sololá	702	San José Chacayá	5	Chacayá	2	Febrero	2023-02-18T00:00:00	2024-11-06T01:00:00	4	Temperatura máxima	14
79299	7	Sololá	702	San José Chacayá	5	Chacayá	2	Febrero	2023-02-18T00:00:00	2024-11-06T01:00:00	3	Temperatura mínima	13.5
79300	7	Sololá	702	San José Chacayá	5	Chacayá	2	Febrero	2023-02-18T00:00:00	2024-11-06T01:00:00	5	Humedad	77
79301	7	Sololá	702	San José Chacayá	5	Chacayá	2	Febrero	2023-02-18T00:00:00	2024-11-06T01:00:00	6	Velocidad del viento	8
79302	7	Sololá	702	San José Chacayá	5	Chacayá	2	Febrero	2023-02-18T00:00:00	2024-11-06T01:00:00	7	Dirección del viento	8.05
79303	7	Sololá	702	San José Chacayá	5	Chacayá	2	Febrero	2023-02-18T00:00:00	2024-11-06T01:00:00	1	Precipitación	0
79304	7	Sololá	702	San José Chacayá	5	Chacayá	2	Febrero	2023-02-18T00:00:00	2024-11-06T01:00:00	8	Radiación solar	0
79305	7	Sololá	702	San José Chacayá	5	Chacayá	2	Febrero	2023-02-18T00:00:00	2024-11-06T02:00:00	2	Temperatura media	14
79306	7	Sololá	702	San José Chacayá	5	Chacayá	2	Febrero	2023-02-18T00:00:00	2024-11-06T02:00:00	4	Temperatura máxima	14.1
79307	7	Sololá	702	San José Chacayá	5	Chacayá	2	Febrero	2023-02-18T00:00:00	2024-11-06T02:00:00	3	Temperatura mínima	13.7
79308	7	Sololá	702	San José Chacayá	5	Chacayá	2	Febrero	2023-02-18T00:00:00	2024-11-06T02:00:00	5	Humedad	77
79309	7	Sololá	702	San José Chacayá	5	Chacayá	2	Febrero	2023-02-18T00:00:00	2024-11-06T02:00:00	6	Velocidad del viento	9.7
79310	7	Sololá	702	San José Chacayá	5	Chacayá	2	Febrero	2023-02-18T00:00:00	2024-11-06T02:00:00	7	Dirección del viento	9.66
79311	7	Sololá	702	San José Chacayá	5	Chacayá	2	Febrero	2023-02-18T00:00:00	2024-11-06T02:00:00	1	Precipitación	0
79312	7	Sololá	702	San José Chacayá	5	Chacayá	2	Febrero	2023-02-18T00:00:00	2024-11-06T02:00:00	8	Radiación solar	0
79313	7	Sololá	702	San José Chacayá	5	Chacayá	2	Febrero	2023-02-18T00:00:00	2024-11-06T03:00:00	2	Temperatura media	12.5
79314	7	Sololá	702	San José Chacayá	5	Chacayá	2	Febrero	2023-02-18T00:00:00	2024-11-06T03:00:00	4	Temperatura máxima	14
79315	7	Sololá	702	San José Chacayá	5	Chacayá	2	Febrero	2023-02-18T00:00:00	2024-11-06T03:00:00	3	Temperatura mínima	12.3
79316	7	Sololá	702	San José Chacayá	5	Chacayá	2	Febrero	2023-02-18T00:00:00	2024-11-06T03:00:00	5	Humedad	82
79317	7	Sololá	702	San José Chacayá	5	Chacayá	2	Febrero	2023-02-18T00:00:00	2024-11-06T03:00:00	6	Velocidad del viento	8
79318	7	Sololá	702	San José Chacayá	5	Chacayá	2	Febrero	2023-02-18T00:00:00	2024-11-06T03:00:00	7	Dirección del viento	8.05
79319	7	Sololá	702	San José Chacayá	5	Chacayá	2	Febrero	2023-02-18T00:00:00	2024-11-06T03:00:00	1	Precipitación	0
79320	7	Sololá	702	San José Chacayá	5	Chacayá	2	Febrero	2023-02-18T00:00:00	2024-11-06T03:00:00	8	Radiación solar	0
79321	7	Sololá	702	San José Chacayá	5	Chacayá	2	Febrero	2023-02-18T00:00:00	2024-11-06T04:00:00	2	Temperatura media	12
79322	7	Sololá	702	San José Chacayá	5	Chacayá	2	Febrero	2023-02-18T00:00:00	2024-11-06T04:00:00	4	Temperatura máxima	12.5
79323	7	Sololá	702	San José Chacayá	5	Chacayá	2	Febrero	2023-02-18T00:00:00	2024-11-06T04:00:00	3	Temperatura mínima	12
79324	7	Sololá	702	San José Chacayá	5	Chacayá	2	Febrero	2023-02-18T00:00:00	2024-11-06T04:00:00	5	Humedad	75
79325	7	Sololá	702	San José Chacayá	5	Chacayá	2	Febrero	2023-02-18T00:00:00	2024-11-06T04:00:00	6	Velocidad del viento	9.7
79326	7	Sololá	702	San José Chacayá	5	Chacayá	2	Febrero	2023-02-18T00:00:00	2024-11-06T04:00:00	7	Dirección del viento	9.66
79327	7	Sololá	702	San José Chacayá	5	Chacayá	2	Febrero	2023-02-18T00:00:00	2024-11-06T04:00:00	1	Precipitación	0
79328	7	Sololá	702	San José Chacayá	5	Chacayá	2	Febrero	2023-02-18T00:00:00	2024-11-06T04:00:00	8	Radiación solar	0
79329	7	Sololá	702	San José Chacayá	5	Chacayá	2	Febrero	2023-02-18T00:00:00	2024-11-06T05:00:00	2	Temperatura media	12
79330	7	Sololá	702	San José Chacayá	5	Chacayá	2	Febrero	2023-02-18T00:00:00	2024-11-06T05:00:00	4	Temperatura máxima	12.4
79331	7	Sololá	702	San José Chacayá	5	Chacayá	2	Febrero	2023-02-18T00:00:00	2024-11-06T05:00:00	3	Temperatura mínima	11.9
79332	7	Sololá	702	San José Chacayá	5	Chacayá	2	Febrero	2023-02-18T00:00:00	2024-11-06T05:00:00	5	Humedad	71
79333	7	Sololá	702	San José Chacayá	5	Chacayá	2	Febrero	2023-02-18T00:00:00	2024-11-06T05:00:00	6	Velocidad del viento	11.3
79334	7	Sololá	702	San José Chacayá	5	Chacayá	2	Febrero	2023-02-18T00:00:00	2024-11-06T05:00:00	7	Dirección del viento	11.27
79335	7	Sololá	702	San José Chacayá	5	Chacayá	2	Febrero	2023-02-18T00:00:00	2024-11-06T05:00:00	1	Precipitación	0
79336	7	Sololá	702	San José Chacayá	5	Chacayá	2	Febrero	2023-02-18T00:00:00	2024-11-06T05:00:00	8	Radiación solar	0
79337	7	Sololá	702	San José Chacayá	5	Chacayá	2	Febrero	2023-02-18T00:00:00	2024-11-06T06:00:00	2	Temperatura media	11.9
79338	7	Sololá	702	San José Chacayá	5	Chacayá	2	Febrero	2023-02-18T00:00:00	2024-11-06T06:00:00	4	Temperatura máxima	12.2
79339	7	Sololá	702	San José Chacayá	5	Chacayá	2	Febrero	2023-02-18T00:00:00	2024-11-06T06:00:00	3	Temperatura mínima	11.7
79340	7	Sololá	702	San José Chacayá	5	Chacayá	2	Febrero	2023-02-18T00:00:00	2024-11-06T06:00:00	5	Humedad	69
79341	7	Sololá	702	San José Chacayá	5	Chacayá	2	Febrero	2023-02-18T00:00:00	2024-11-06T06:00:00	6	Velocidad del viento	8
79342	7	Sololá	702	San José Chacayá	5	Chacayá	2	Febrero	2023-02-18T00:00:00	2024-11-06T06:00:00	7	Dirección del viento	8.05
79343	7	Sololá	702	San José Chacayá	5	Chacayá	2	Febrero	2023-02-18T00:00:00	2024-11-06T06:00:00	1	Precipitación	0
79344	7	Sololá	702	San José Chacayá	5	Chacayá	2	Febrero	2023-02-18T00:00:00	2024-11-06T06:00:00	8	Radiación solar	0
79345	7	Sololá	702	San José Chacayá	5	Chacayá	2	Febrero	2023-02-18T00:00:00	2024-11-06T07:00:00	2	Temperatura media	13.6
79346	7	Sololá	702	San José Chacayá	5	Chacayá	2	Febrero	2023-02-18T00:00:00	2024-11-06T07:00:00	4	Temperatura máxima	13.6
79347	7	Sololá	702	San José Chacayá	5	Chacayá	2	Febrero	2023-02-18T00:00:00	2024-11-06T07:00:00	3	Temperatura mínima	11.6
79348	7	Sololá	702	San José Chacayá	5	Chacayá	2	Febrero	2023-02-18T00:00:00	2024-11-06T07:00:00	5	Humedad	52
79349	7	Sololá	702	San José Chacayá	5	Chacayá	2	Febrero	2023-02-18T00:00:00	2024-11-06T07:00:00	6	Velocidad del viento	4.8
79350	7	Sololá	702	San José Chacayá	5	Chacayá	2	Febrero	2023-02-18T00:00:00	2024-11-06T07:00:00	7	Dirección del viento	4.83
79351	7	Sololá	702	San José Chacayá	5	Chacayá	2	Febrero	2023-02-18T00:00:00	2024-11-06T07:00:00	1	Precipitación	0
79352	7	Sololá	702	San José Chacayá	5	Chacayá	2	Febrero	2023-02-18T00:00:00	2024-11-06T07:00:00	8	Radiación solar	14
79353	7	Sololá	702	San José Chacayá	5	Chacayá	2	Febrero	2023-02-18T00:00:00	2024-11-06T08:00:00	2	Temperatura media	14.8
79354	7	Sololá	702	San José Chacayá	5	Chacayá	2	Febrero	2023-02-18T00:00:00	2024-11-06T08:00:00	4	Temperatura máxima	14.8
79355	7	Sololá	702	San José Chacayá	5	Chacayá	2	Febrero	2023-02-18T00:00:00	2024-11-06T08:00:00	3	Temperatura mínima	13.6
79356	7	Sololá	702	San José Chacayá	5	Chacayá	2	Febrero	2023-02-18T00:00:00	2024-11-06T08:00:00	5	Humedad	57
79357	7	Sololá	702	San José Chacayá	5	Chacayá	2	Febrero	2023-02-18T00:00:00	2024-11-06T08:00:00	6	Velocidad del viento	9.7
79358	7	Sololá	702	San José Chacayá	5	Chacayá	2	Febrero	2023-02-18T00:00:00	2024-11-06T08:00:00	7	Dirección del viento	9.66
79359	7	Sololá	702	San José Chacayá	5	Chacayá	2	Febrero	2023-02-18T00:00:00	2024-11-06T08:00:00	1	Precipitación	0
79360	7	Sololá	702	San José Chacayá	5	Chacayá	2	Febrero	2023-02-18T00:00:00	2024-11-06T08:00:00	8	Radiación solar	220
79361	7	Sololá	702	San José Chacayá	5	Chacayá	2	Febrero	2023-02-18T00:00:00	2024-11-06T09:00:00	2	Temperatura media	15.7
79362	7	Sololá	702	San José Chacayá	5	Chacayá	2	Febrero	2023-02-18T00:00:00	2024-11-06T09:00:00	4	Temperatura máxima	15.8
79363	7	Sololá	702	San José Chacayá	5	Chacayá	2	Febrero	2023-02-18T00:00:00	2024-11-06T09:00:00	3	Temperatura mínima	14.8
79364	7	Sololá	702	San José Chacayá	5	Chacayá	2	Febrero	2023-02-18T00:00:00	2024-11-06T09:00:00	5	Humedad	62
79365	7	Sololá	702	San José Chacayá	5	Chacayá	2	Febrero	2023-02-18T00:00:00	2024-11-06T09:00:00	6	Velocidad del viento	8
79366	7	Sololá	702	San José Chacayá	5	Chacayá	2	Febrero	2023-02-18T00:00:00	2024-11-06T09:00:00	7	Dirección del viento	8.05
79367	7	Sololá	702	San José Chacayá	5	Chacayá	2	Febrero	2023-02-18T00:00:00	2024-11-06T09:00:00	1	Precipitación	0
79368	7	Sololá	702	San José Chacayá	5	Chacayá	2	Febrero	2023-02-18T00:00:00	2024-11-06T09:00:00	8	Radiación solar	476
79369	7	Sololá	702	San José Chacayá	5	Chacayá	2	Febrero	2023-02-18T00:00:00	2024-11-06T10:00:00	2	Temperatura media	15.9
79370	7	Sololá	702	San José Chacayá	5	Chacayá	2	Febrero	2023-02-18T00:00:00	2024-11-06T10:00:00	4	Temperatura máxima	16.6
79371	7	Sololá	702	San José Chacayá	5	Chacayá	2	Febrero	2023-02-18T00:00:00	2024-11-06T10:00:00	3	Temperatura mínima	15.5
79372	7	Sololá	702	San José Chacayá	5	Chacayá	2	Febrero	2023-02-18T00:00:00	2024-11-06T10:00:00	5	Humedad	66
79373	7	Sololá	702	San José Chacayá	5	Chacayá	2	Febrero	2023-02-18T00:00:00	2024-11-06T10:00:00	6	Velocidad del viento	9.7
79374	7	Sololá	702	San José Chacayá	5	Chacayá	2	Febrero	2023-02-18T00:00:00	2024-11-06T10:00:00	7	Dirección del viento	9.66
79375	7	Sololá	702	San José Chacayá	5	Chacayá	2	Febrero	2023-02-18T00:00:00	2024-11-06T10:00:00	1	Precipitación	0
79376	7	Sololá	702	San José Chacayá	5	Chacayá	2	Febrero	2023-02-18T00:00:00	2024-11-06T10:00:00	8	Radiación solar	700
79377	7	Sololá	702	San José Chacayá	5	Chacayá	2	Febrero	2023-02-18T00:00:00	2024-11-06T11:00:00	2	Temperatura media	17.3
79378	7	Sololá	702	San José Chacayá	5	Chacayá	2	Febrero	2023-02-18T00:00:00	2024-11-06T11:00:00	4	Temperatura máxima	17.3
79379	7	Sololá	702	San José Chacayá	5	Chacayá	2	Febrero	2023-02-18T00:00:00	2024-11-06T11:00:00	3	Temperatura mínima	15.7
79380	7	Sololá	702	San José Chacayá	5	Chacayá	2	Febrero	2023-02-18T00:00:00	2024-11-06T11:00:00	5	Humedad	63
79381	7	Sololá	702	San José Chacayá	5	Chacayá	2	Febrero	2023-02-18T00:00:00	2024-11-06T11:00:00	6	Velocidad del viento	11.3
79382	7	Sololá	702	San José Chacayá	5	Chacayá	2	Febrero	2023-02-18T00:00:00	2024-11-06T11:00:00	7	Dirección del viento	11.27
79383	7	Sololá	702	San José Chacayá	5	Chacayá	2	Febrero	2023-02-18T00:00:00	2024-11-06T11:00:00	1	Precipitación	0
79384	7	Sololá	702	San José Chacayá	5	Chacayá	2	Febrero	2023-02-18T00:00:00	2024-11-06T11:00:00	8	Radiación solar	873
79385	7	Sololá	702	San José Chacayá	5	Chacayá	2	Febrero	2023-02-18T00:00:00	2024-11-06T12:00:00	2	Temperatura media	17.8
79386	7	Sololá	702	San José Chacayá	5	Chacayá	2	Febrero	2023-02-18T00:00:00	2024-11-06T12:00:00	4	Temperatura máxima	17.9
79387	7	Sololá	702	San José Chacayá	5	Chacayá	2	Febrero	2023-02-18T00:00:00	2024-11-06T12:00:00	3	Temperatura mínima	16.9
79388	7	Sololá	702	San José Chacayá	5	Chacayá	2	Febrero	2023-02-18T00:00:00	2024-11-06T12:00:00	5	Humedad	63
79389	7	Sololá	702	San José Chacayá	5	Chacayá	2	Febrero	2023-02-18T00:00:00	2024-11-06T12:00:00	6	Velocidad del viento	8
79390	7	Sololá	702	San José Chacayá	5	Chacayá	2	Febrero	2023-02-18T00:00:00	2024-11-06T12:00:00	7	Dirección del viento	8.05
79391	7	Sololá	702	San José Chacayá	5	Chacayá	2	Febrero	2023-02-18T00:00:00	2024-11-06T12:00:00	1	Precipitación	0
79392	7	Sololá	702	San José Chacayá	5	Chacayá	2	Febrero	2023-02-18T00:00:00	2024-11-06T12:00:00	8	Radiación solar	886
79393	7	Sololá	702	San José Chacayá	5	Chacayá	2	Febrero	2023-02-18T00:00:00	2024-11-06T13:00:00	2	Temperatura media	18.4
79394	7	Sololá	702	San José Chacayá	5	Chacayá	2	Febrero	2023-02-18T00:00:00	2024-11-06T13:00:00	4	Temperatura máxima	18.7
79395	7	Sololá	702	San José Chacayá	5	Chacayá	2	Febrero	2023-02-18T00:00:00	2024-11-06T13:00:00	3	Temperatura mínima	17.8
79396	7	Sololá	702	San José Chacayá	5	Chacayá	2	Febrero	2023-02-18T00:00:00	2024-11-06T13:00:00	5	Humedad	63
79397	7	Sololá	702	San José Chacayá	5	Chacayá	2	Febrero	2023-02-18T00:00:00	2024-11-06T13:00:00	6	Velocidad del viento	4.8
79398	7	Sololá	702	San José Chacayá	5	Chacayá	2	Febrero	2023-02-18T00:00:00	2024-11-06T13:00:00	7	Dirección del viento	4.83
79399	7	Sololá	702	San José Chacayá	5	Chacayá	2	Febrero	2023-02-18T00:00:00	2024-11-06T13:00:00	1	Precipitación	0
79400	7	Sololá	702	San José Chacayá	5	Chacayá	2	Febrero	2023-02-18T00:00:00	2024-11-06T13:00:00	8	Radiación solar	972
79401	7	Sololá	702	San José Chacayá	5	Chacayá	2	Febrero	2023-02-18T00:00:00	2024-11-06T14:00:00	2	Temperatura media	18
79402	7	Sololá	702	San José Chacayá	5	Chacayá	2	Febrero	2023-02-18T00:00:00	2024-11-06T14:00:00	4	Temperatura máxima	18.6
79403	7	Sololá	702	San José Chacayá	5	Chacayá	2	Febrero	2023-02-18T00:00:00	2024-11-06T14:00:00	3	Temperatura mínima	17.6
79404	7	Sololá	702	San José Chacayá	5	Chacayá	2	Febrero	2023-02-18T00:00:00	2024-11-06T14:00:00	5	Humedad	63
79405	7	Sololá	702	San José Chacayá	5	Chacayá	2	Febrero	2023-02-18T00:00:00	2024-11-06T14:00:00	6	Velocidad del viento	4.8
79406	7	Sololá	702	San José Chacayá	5	Chacayá	2	Febrero	2023-02-18T00:00:00	2024-11-06T14:00:00	7	Dirección del viento	4.83
79407	7	Sololá	702	San José Chacayá	5	Chacayá	2	Febrero	2023-02-18T00:00:00	2024-11-06T14:00:00	1	Precipitación	0
79408	7	Sololá	702	San José Chacayá	5	Chacayá	2	Febrero	2023-02-18T00:00:00	2024-11-06T14:00:00	8	Radiación solar	984
79409	7	Sololá	702	San José Chacayá	5	Chacayá	2	Febrero	2023-02-18T00:00:00	2024-11-06T15:00:00	2	Temperatura media	15.9
79410	7	Sololá	702	San José Chacayá	5	Chacayá	2	Febrero	2023-02-18T00:00:00	2024-11-06T15:00:00	4	Temperatura máxima	18
79411	7	Sololá	702	San José Chacayá	5	Chacayá	2	Febrero	2023-02-18T00:00:00	2024-11-06T15:00:00	3	Temperatura mínima	15.9
79412	7	Sololá	702	San José Chacayá	5	Chacayá	2	Febrero	2023-02-18T00:00:00	2024-11-06T15:00:00	5	Humedad	70
79413	7	Sololá	702	San José Chacayá	5	Chacayá	2	Febrero	2023-02-18T00:00:00	2024-11-06T15:00:00	6	Velocidad del viento	3.2
79414	7	Sololá	702	San José Chacayá	5	Chacayá	2	Febrero	2023-02-18T00:00:00	2024-11-06T15:00:00	7	Dirección del viento	3.22
79415	7	Sololá	702	San José Chacayá	5	Chacayá	2	Febrero	2023-02-18T00:00:00	2024-11-06T15:00:00	1	Precipitación	0
79416	7	Sololá	702	San José Chacayá	5	Chacayá	2	Febrero	2023-02-18T00:00:00	2024-11-06T15:00:00	8	Radiación solar	291
79417	7	Sololá	702	San José Chacayá	5	Chacayá	2	Febrero	2023-02-18T00:00:00	2024-11-06T16:00:00	2	Temperatura media	15
79418	7	Sololá	702	San José Chacayá	5	Chacayá	2	Febrero	2023-02-18T00:00:00	2024-11-06T16:00:00	4	Temperatura máxima	16.5
79419	7	Sololá	702	San José Chacayá	5	Chacayá	2	Febrero	2023-02-18T00:00:00	2024-11-06T16:00:00	3	Temperatura mínima	15
79420	7	Sololá	702	San José Chacayá	5	Chacayá	2	Febrero	2023-02-18T00:00:00	2024-11-06T16:00:00	5	Humedad	71
79421	7	Sololá	702	San José Chacayá	5	Chacayá	2	Febrero	2023-02-18T00:00:00	2024-11-06T16:00:00	6	Velocidad del viento	6.4
79422	7	Sololá	702	San José Chacayá	5	Chacayá	2	Febrero	2023-02-18T00:00:00	2024-11-06T16:00:00	7	Dirección del viento	6.44
79423	7	Sololá	702	San José Chacayá	5	Chacayá	2	Febrero	2023-02-18T00:00:00	2024-11-06T16:00:00	1	Precipitación	0
79424	7	Sololá	702	San José Chacayá	5	Chacayá	2	Febrero	2023-02-18T00:00:00	2024-11-06T16:00:00	8	Radiación solar	245
79425	7	Sololá	702	San José Chacayá	5	Chacayá	2	Febrero	2023-02-18T00:00:00	2024-11-06T17:00:00	2	Temperatura media	13.3
79426	7	Sololá	702	San José Chacayá	5	Chacayá	2	Febrero	2023-02-18T00:00:00	2024-11-06T17:00:00	4	Temperatura máxima	15
79427	7	Sololá	702	San José Chacayá	5	Chacayá	2	Febrero	2023-02-18T00:00:00	2024-11-06T17:00:00	3	Temperatura mínima	13.2
79428	7	Sololá	702	San José Chacayá	5	Chacayá	2	Febrero	2023-02-18T00:00:00	2024-11-06T17:00:00	5	Humedad	75
79429	7	Sololá	702	San José Chacayá	5	Chacayá	2	Febrero	2023-02-18T00:00:00	2024-11-06T17:00:00	6	Velocidad del viento	8
79430	7	Sololá	702	San José Chacayá	5	Chacayá	2	Febrero	2023-02-18T00:00:00	2024-11-06T17:00:00	7	Dirección del viento	8.05
79431	7	Sololá	702	San José Chacayá	5	Chacayá	2	Febrero	2023-02-18T00:00:00	2024-11-06T17:00:00	1	Precipitación	0
79432	7	Sololá	702	San José Chacayá	5	Chacayá	2	Febrero	2023-02-18T00:00:00	2024-11-06T17:00:00	8	Radiación solar	127
79433	7	Sololá	702	San José Chacayá	5	Chacayá	2	Febrero	2023-02-18T00:00:00	2024-11-06T18:00:00	2	Temperatura media	12.5
79434	7	Sololá	702	San José Chacayá	5	Chacayá	2	Febrero	2023-02-18T00:00:00	2024-11-06T18:00:00	4	Temperatura máxima	13.7
79435	7	Sololá	702	San José Chacayá	5	Chacayá	2	Febrero	2023-02-18T00:00:00	2024-11-06T18:00:00	3	Temperatura mínima	12.5
79436	7	Sololá	702	San José Chacayá	5	Chacayá	2	Febrero	2023-02-18T00:00:00	2024-11-06T18:00:00	5	Humedad	76
79437	7	Sololá	702	San José Chacayá	5	Chacayá	2	Febrero	2023-02-18T00:00:00	2024-11-06T18:00:00	6	Velocidad del viento	4.8
79438	7	Sololá	702	San José Chacayá	5	Chacayá	2	Febrero	2023-02-18T00:00:00	2024-11-06T18:00:00	7	Dirección del viento	4.83
79439	7	Sololá	702	San José Chacayá	5	Chacayá	2	Febrero	2023-02-18T00:00:00	2024-11-06T18:00:00	1	Precipitación	0
79440	7	Sololá	702	San José Chacayá	5	Chacayá	2	Febrero	2023-02-18T00:00:00	2024-11-06T18:00:00	8	Radiación solar	42
79441	7	Sololá	702	San José Chacayá	5	Chacayá	2	Febrero	2023-02-18T00:00:00	2024-11-06T19:00:00	2	Temperatura media	12.6
79442	7	Sololá	702	San José Chacayá	5	Chacayá	2	Febrero	2023-02-18T00:00:00	2024-11-06T19:00:00	4	Temperatura máxima	12.7
79443	7	Sololá	702	San José Chacayá	5	Chacayá	2	Febrero	2023-02-18T00:00:00	2024-11-06T19:00:00	3	Temperatura mínima	12.3
79444	7	Sololá	702	San José Chacayá	5	Chacayá	2	Febrero	2023-02-18T00:00:00	2024-11-06T19:00:00	5	Humedad	61
79445	7	Sololá	702	San José Chacayá	5	Chacayá	2	Febrero	2023-02-18T00:00:00	2024-11-06T19:00:00	6	Velocidad del viento	6.4
79446	7	Sololá	702	San José Chacayá	5	Chacayá	2	Febrero	2023-02-18T00:00:00	2024-11-06T19:00:00	7	Dirección del viento	6.44
79447	7	Sololá	702	San José Chacayá	5	Chacayá	2	Febrero	2023-02-18T00:00:00	2024-11-06T19:00:00	1	Precipitación	0
79448	7	Sololá	702	San José Chacayá	5	Chacayá	2	Febrero	2023-02-18T00:00:00	2024-11-06T19:00:00	8	Radiación solar	1
79449	7	Sololá	702	San José Chacayá	5	Chacayá	2	Febrero	2023-02-18T00:00:00	2024-11-06T20:00:00	2	Temperatura media	12.5
79450	7	Sololá	702	San José Chacayá	5	Chacayá	2	Febrero	2023-02-18T00:00:00	2024-11-06T20:00:00	4	Temperatura máxima	12.6
79451	7	Sololá	702	San José Chacayá	5	Chacayá	2	Febrero	2023-02-18T00:00:00	2024-11-06T20:00:00	3	Temperatura mínima	12.4
79452	7	Sololá	702	San José Chacayá	5	Chacayá	2	Febrero	2023-02-18T00:00:00	2024-11-06T20:00:00	5	Humedad	72
79453	7	Sololá	702	San José Chacayá	5	Chacayá	2	Febrero	2023-02-18T00:00:00	2024-11-06T20:00:00	6	Velocidad del viento	11.3
79454	7	Sololá	702	San José Chacayá	5	Chacayá	2	Febrero	2023-02-18T00:00:00	2024-11-06T20:00:00	7	Dirección del viento	11.27
79455	7	Sololá	702	San José Chacayá	5	Chacayá	2	Febrero	2023-02-18T00:00:00	2024-11-06T20:00:00	1	Precipitación	0
79456	7	Sololá	702	San José Chacayá	5	Chacayá	2	Febrero	2023-02-18T00:00:00	2024-11-06T20:00:00	8	Radiación solar	0
79457	7	Sololá	702	San José Chacayá	5	Chacayá	2	Febrero	2023-02-18T00:00:00	2024-11-06T21:00:00	2	Temperatura media	12.5
79458	7	Sololá	702	San José Chacayá	5	Chacayá	2	Febrero	2023-02-18T00:00:00	2024-11-06T21:00:00	4	Temperatura máxima	12.5
79459	7	Sololá	702	San José Chacayá	5	Chacayá	2	Febrero	2023-02-18T00:00:00	2024-11-06T21:00:00	3	Temperatura mínima	12.1
79460	7	Sololá	702	San José Chacayá	5	Chacayá	2	Febrero	2023-02-18T00:00:00	2024-11-06T21:00:00	5	Humedad	75
79461	7	Sololá	702	San José Chacayá	5	Chacayá	2	Febrero	2023-02-18T00:00:00	2024-11-06T21:00:00	6	Velocidad del viento	9.7
79462	7	Sololá	702	San José Chacayá	5	Chacayá	2	Febrero	2023-02-18T00:00:00	2024-11-06T21:00:00	7	Dirección del viento	9.66
79463	7	Sololá	702	San José Chacayá	5	Chacayá	2	Febrero	2023-02-18T00:00:00	2024-11-06T21:00:00	1	Precipitación	0
79464	7	Sololá	702	San José Chacayá	5	Chacayá	2	Febrero	2023-02-18T00:00:00	2024-11-06T21:00:00	8	Radiación solar	0
79465	7	Sololá	702	San José Chacayá	5	Chacayá	2	Febrero	2023-02-18T00:00:00	2024-11-06T22:00:00	2	Temperatura media	12.7
79466	7	Sololá	702	San José Chacayá	5	Chacayá	2	Febrero	2023-02-18T00:00:00	2024-11-06T22:00:00	4	Temperatura máxima	12.9
79467	7	Sololá	702	San José Chacayá	5	Chacayá	2	Febrero	2023-02-18T00:00:00	2024-11-06T22:00:00	3	Temperatura mínima	12.3
79468	7	Sololá	702	San José Chacayá	5	Chacayá	2	Febrero	2023-02-18T00:00:00	2024-11-06T22:00:00	5	Humedad	76
79469	7	Sololá	702	San José Chacayá	5	Chacayá	2	Febrero	2023-02-18T00:00:00	2024-11-06T22:00:00	6	Velocidad del viento	9.7
79470	7	Sololá	702	San José Chacayá	5	Chacayá	2	Febrero	2023-02-18T00:00:00	2024-11-06T22:00:00	7	Dirección del viento	9.66
79471	7	Sololá	702	San José Chacayá	5	Chacayá	2	Febrero	2023-02-18T00:00:00	2024-11-06T22:00:00	1	Precipitación	0
79472	7	Sololá	702	San José Chacayá	5	Chacayá	2	Febrero	2023-02-18T00:00:00	2024-11-06T22:00:00	8	Radiación solar	0
79473	7	Sololá	702	San José Chacayá	5	Chacayá	2	Febrero	2023-02-18T00:00:00	2024-11-06T23:00:00	2	Temperatura media	11.8
79474	7	Sololá	702	San José Chacayá	5	Chacayá	2	Febrero	2023-02-18T00:00:00	2024-11-06T23:00:00	4	Temperatura máxima	12.7
79475	7	Sololá	702	San José Chacayá	5	Chacayá	2	Febrero	2023-02-18T00:00:00	2024-11-06T23:00:00	3	Temperatura mínima	11.8
79476	7	Sololá	702	San José Chacayá	5	Chacayá	2	Febrero	2023-02-18T00:00:00	2024-11-06T23:00:00	5	Humedad	82
79477	7	Sololá	702	San José Chacayá	5	Chacayá	2	Febrero	2023-02-18T00:00:00	2024-11-06T23:00:00	6	Velocidad del viento	11.3
79478	7	Sololá	702	San José Chacayá	5	Chacayá	2	Febrero	2023-02-18T00:00:00	2024-11-06T23:00:00	7	Dirección del viento	11.27
79479	7	Sololá	702	San José Chacayá	5	Chacayá	2	Febrero	2023-02-18T00:00:00	2024-11-06T23:00:00	1	Precipitación	0
79480	7	Sololá	702	San José Chacayá	5	Chacayá	2	Febrero	2023-02-18T00:00:00	2024-11-06T23:00:00	8	Radiación solar	0
79481	7	Sololá	702	San José Chacayá	5	Chacayá	2	Febrero	2023-02-19T00:00:00	2024-11-06T00:00:00	2	Temperatura media	12.2
79482	7	Sololá	702	San José Chacayá	5	Chacayá	2	Febrero	2023-02-19T00:00:00	2024-11-06T00:00:00	4	Temperatura máxima	12.2
79483	7	Sololá	702	San José Chacayá	5	Chacayá	2	Febrero	2023-02-19T00:00:00	2024-11-06T00:00:00	3	Temperatura mínima	11.7
79484	7	Sololá	702	San José Chacayá	5	Chacayá	2	Febrero	2023-02-19T00:00:00	2024-11-06T00:00:00	5	Humedad	79
79485	7	Sololá	702	San José Chacayá	5	Chacayá	2	Febrero	2023-02-19T00:00:00	2024-11-06T00:00:00	6	Velocidad del viento	12.9
79486	7	Sololá	702	San José Chacayá	5	Chacayá	2	Febrero	2023-02-19T00:00:00	2024-11-06T00:00:00	7	Dirección del viento	12.87
79487	7	Sololá	702	San José Chacayá	5	Chacayá	2	Febrero	2023-02-19T00:00:00	2024-11-06T00:00:00	1	Precipitación	0
79488	7	Sololá	702	San José Chacayá	5	Chacayá	2	Febrero	2023-02-19T00:00:00	2024-11-06T00:00:00	8	Radiación solar	0
79489	7	Sololá	702	San José Chacayá	5	Chacayá	2	Febrero	2023-02-19T00:00:00	2024-11-06T01:00:00	2	Temperatura media	11.7
79490	7	Sololá	702	San José Chacayá	5	Chacayá	2	Febrero	2023-02-19T00:00:00	2024-11-06T01:00:00	4	Temperatura máxima	12.3
79491	7	Sololá	702	San José Chacayá	5	Chacayá	2	Febrero	2023-02-19T00:00:00	2024-11-06T01:00:00	3	Temperatura mínima	11.6
79492	7	Sololá	702	San José Chacayá	5	Chacayá	2	Febrero	2023-02-19T00:00:00	2024-11-06T01:00:00	5	Humedad	81
79493	7	Sololá	702	San José Chacayá	5	Chacayá	2	Febrero	2023-02-19T00:00:00	2024-11-06T01:00:00	6	Velocidad del viento	9.7
79494	7	Sololá	702	San José Chacayá	5	Chacayá	2	Febrero	2023-02-19T00:00:00	2024-11-06T01:00:00	7	Dirección del viento	9.66
79495	7	Sololá	702	San José Chacayá	5	Chacayá	2	Febrero	2023-02-19T00:00:00	2024-11-06T01:00:00	1	Precipitación	0
79496	7	Sololá	702	San José Chacayá	5	Chacayá	2	Febrero	2023-02-19T00:00:00	2024-11-06T01:00:00	8	Radiación solar	0
79497	7	Sololá	702	San José Chacayá	5	Chacayá	2	Febrero	2023-02-19T00:00:00	2024-11-06T02:00:00	2	Temperatura media	12
79498	7	Sololá	702	San José Chacayá	5	Chacayá	2	Febrero	2023-02-19T00:00:00	2024-11-06T02:00:00	4	Temperatura máxima	12.1
79499	7	Sololá	702	San José Chacayá	5	Chacayá	2	Febrero	2023-02-19T00:00:00	2024-11-06T02:00:00	3	Temperatura mínima	11.6
79500	7	Sololá	702	San José Chacayá	5	Chacayá	2	Febrero	2023-02-19T00:00:00	2024-11-06T02:00:00	5	Humedad	79
79501	7	Sololá	702	San José Chacayá	5	Chacayá	2	Febrero	2023-02-19T00:00:00	2024-11-06T02:00:00	6	Velocidad del viento	11.3
79502	7	Sololá	702	San José Chacayá	5	Chacayá	2	Febrero	2023-02-19T00:00:00	2024-11-06T02:00:00	7	Dirección del viento	11.27
79503	7	Sololá	702	San José Chacayá	5	Chacayá	2	Febrero	2023-02-19T00:00:00	2024-11-06T02:00:00	1	Precipitación	0
79504	7	Sololá	702	San José Chacayá	5	Chacayá	2	Febrero	2023-02-19T00:00:00	2024-11-06T02:00:00	8	Radiación solar	0
79505	7	Sololá	702	San José Chacayá	5	Chacayá	2	Febrero	2023-02-19T00:00:00	2024-11-06T03:00:00	2	Temperatura media	11.8
79506	7	Sololá	702	San José Chacayá	5	Chacayá	2	Febrero	2023-02-19T00:00:00	2024-11-06T03:00:00	4	Temperatura máxima	12.3
79507	7	Sololá	702	San José Chacayá	5	Chacayá	2	Febrero	2023-02-19T00:00:00	2024-11-06T03:00:00	3	Temperatura mínima	11.8
79508	7	Sololá	702	San José Chacayá	5	Chacayá	2	Febrero	2023-02-19T00:00:00	2024-11-06T03:00:00	5	Humedad	80
79509	7	Sololá	702	San José Chacayá	5	Chacayá	2	Febrero	2023-02-19T00:00:00	2024-11-06T03:00:00	6	Velocidad del viento	14.5
79510	7	Sololá	702	San José Chacayá	5	Chacayá	2	Febrero	2023-02-19T00:00:00	2024-11-06T03:00:00	7	Dirección del viento	14.48
79511	7	Sololá	702	San José Chacayá	5	Chacayá	2	Febrero	2023-02-19T00:00:00	2024-11-06T03:00:00	1	Precipitación	0
79512	7	Sololá	702	San José Chacayá	5	Chacayá	2	Febrero	2023-02-19T00:00:00	2024-11-06T03:00:00	8	Radiación solar	0
79513	7	Sololá	702	San José Chacayá	5	Chacayá	2	Febrero	2023-02-19T00:00:00	2024-11-06T04:00:00	2	Temperatura media	11.7
79514	7	Sololá	702	San José Chacayá	5	Chacayá	2	Febrero	2023-02-19T00:00:00	2024-11-06T04:00:00	4	Temperatura máxima	11.8
79515	7	Sololá	702	San José Chacayá	5	Chacayá	2	Febrero	2023-02-19T00:00:00	2024-11-06T04:00:00	3	Temperatura mínima	11.4
79516	7	Sololá	702	San José Chacayá	5	Chacayá	2	Febrero	2023-02-19T00:00:00	2024-11-06T04:00:00	5	Humedad	80
79517	7	Sololá	702	San José Chacayá	5	Chacayá	2	Febrero	2023-02-19T00:00:00	2024-11-06T04:00:00	6	Velocidad del viento	14.5
79518	7	Sololá	702	San José Chacayá	5	Chacayá	2	Febrero	2023-02-19T00:00:00	2024-11-06T04:00:00	7	Dirección del viento	14.48
79519	7	Sololá	702	San José Chacayá	5	Chacayá	2	Febrero	2023-02-19T00:00:00	2024-11-06T04:00:00	1	Precipitación	0
79520	7	Sololá	702	San José Chacayá	5	Chacayá	2	Febrero	2023-02-19T00:00:00	2024-11-06T04:00:00	8	Radiación solar	0
79521	7	Sololá	702	San José Chacayá	5	Chacayá	2	Febrero	2023-02-19T00:00:00	2024-11-06T05:00:00	2	Temperatura media	11.5
79522	7	Sololá	702	San José Chacayá	5	Chacayá	2	Febrero	2023-02-19T00:00:00	2024-11-06T05:00:00	4	Temperatura máxima	11.8
79523	7	Sololá	702	San José Chacayá	5	Chacayá	2	Febrero	2023-02-19T00:00:00	2024-11-06T05:00:00	3	Temperatura mínima	11.4
79524	7	Sololá	702	San José Chacayá	5	Chacayá	2	Febrero	2023-02-19T00:00:00	2024-11-06T05:00:00	5	Humedad	81
79525	7	Sololá	702	San José Chacayá	5	Chacayá	2	Febrero	2023-02-19T00:00:00	2024-11-06T05:00:00	6	Velocidad del viento	12.9
79526	7	Sololá	702	San José Chacayá	5	Chacayá	2	Febrero	2023-02-19T00:00:00	2024-11-06T05:00:00	7	Dirección del viento	12.87
79527	7	Sololá	702	San José Chacayá	5	Chacayá	2	Febrero	2023-02-19T00:00:00	2024-11-06T05:00:00	1	Precipitación	0
79528	7	Sololá	702	San José Chacayá	5	Chacayá	2	Febrero	2023-02-19T00:00:00	2024-11-06T05:00:00	8	Radiación solar	0
79529	7	Sololá	702	San José Chacayá	5	Chacayá	2	Febrero	2023-02-19T00:00:00	2024-11-06T06:00:00	2	Temperatura media	11.3
79530	7	Sololá	702	San José Chacayá	5	Chacayá	2	Febrero	2023-02-19T00:00:00	2024-11-06T06:00:00	4	Temperatura máxima	11.7
79531	7	Sololá	702	San José Chacayá	5	Chacayá	2	Febrero	2023-02-19T00:00:00	2024-11-06T06:00:00	3	Temperatura mínima	11.2
79532	7	Sololá	702	San José Chacayá	5	Chacayá	2	Febrero	2023-02-19T00:00:00	2024-11-06T06:00:00	5	Humedad	83
79533	7	Sololá	702	San José Chacayá	5	Chacayá	2	Febrero	2023-02-19T00:00:00	2024-11-06T06:00:00	6	Velocidad del viento	12.9
79534	7	Sololá	702	San José Chacayá	5	Chacayá	2	Febrero	2023-02-19T00:00:00	2024-11-06T06:00:00	7	Dirección del viento	12.87
79535	7	Sololá	702	San José Chacayá	5	Chacayá	2	Febrero	2023-02-19T00:00:00	2024-11-06T06:00:00	1	Precipitación	0
79536	7	Sololá	702	San José Chacayá	5	Chacayá	2	Febrero	2023-02-19T00:00:00	2024-11-06T06:00:00	8	Radiación solar	0
79537	7	Sololá	702	San José Chacayá	5	Chacayá	2	Febrero	2023-02-19T00:00:00	2024-11-06T07:00:00	2	Temperatura media	11.6
79538	7	Sololá	702	San José Chacayá	5	Chacayá	2	Febrero	2023-02-19T00:00:00	2024-11-06T07:00:00	4	Temperatura máxima	11.7
79539	7	Sololá	702	San José Chacayá	5	Chacayá	2	Febrero	2023-02-19T00:00:00	2024-11-06T07:00:00	3	Temperatura mínima	11.3
79540	7	Sololá	702	San José Chacayá	5	Chacayá	2	Febrero	2023-02-19T00:00:00	2024-11-06T07:00:00	5	Humedad	81
79541	7	Sololá	702	San José Chacayá	5	Chacayá	2	Febrero	2023-02-19T00:00:00	2024-11-06T07:00:00	6	Velocidad del viento	8
79542	7	Sololá	702	San José Chacayá	5	Chacayá	2	Febrero	2023-02-19T00:00:00	2024-11-06T07:00:00	7	Dirección del viento	8.05
79543	7	Sololá	702	San José Chacayá	5	Chacayá	2	Febrero	2023-02-19T00:00:00	2024-11-06T07:00:00	1	Precipitación	0
79544	7	Sololá	702	San José Chacayá	5	Chacayá	2	Febrero	2023-02-19T00:00:00	2024-11-06T07:00:00	8	Radiación solar	8
79545	7	Sololá	702	San José Chacayá	5	Chacayá	2	Febrero	2023-02-19T00:00:00	2024-11-06T08:00:00	2	Temperatura media	13.4
79546	7	Sololá	702	San José Chacayá	5	Chacayá	2	Febrero	2023-02-19T00:00:00	2024-11-06T08:00:00	4	Temperatura máxima	13.4
79547	7	Sololá	702	San José Chacayá	5	Chacayá	2	Febrero	2023-02-19T00:00:00	2024-11-06T08:00:00	3	Temperatura mínima	11.5
79548	7	Sololá	702	San José Chacayá	5	Chacayá	2	Febrero	2023-02-19T00:00:00	2024-11-06T08:00:00	5	Humedad	73
79549	7	Sololá	702	San José Chacayá	5	Chacayá	2	Febrero	2023-02-19T00:00:00	2024-11-06T08:00:00	6	Velocidad del viento	9.7
79550	7	Sololá	702	San José Chacayá	5	Chacayá	2	Febrero	2023-02-19T00:00:00	2024-11-06T08:00:00	7	Dirección del viento	9.66
79551	7	Sololá	702	San José Chacayá	5	Chacayá	2	Febrero	2023-02-19T00:00:00	2024-11-06T08:00:00	1	Precipitación	0
79552	7	Sololá	702	San José Chacayá	5	Chacayá	2	Febrero	2023-02-19T00:00:00	2024-11-06T08:00:00	8	Radiación solar	210
79553	7	Sololá	702	San José Chacayá	5	Chacayá	2	Febrero	2023-02-19T00:00:00	2024-11-06T09:00:00	2	Temperatura media	14.2
79554	7	Sololá	702	San José Chacayá	5	Chacayá	2	Febrero	2023-02-19T00:00:00	2024-11-06T09:00:00	4	Temperatura máxima	14.2
79555	7	Sololá	702	San José Chacayá	5	Chacayá	2	Febrero	2023-02-19T00:00:00	2024-11-06T09:00:00	3	Temperatura mínima	13.4
79556	7	Sololá	702	San José Chacayá	5	Chacayá	2	Febrero	2023-02-19T00:00:00	2024-11-06T09:00:00	5	Humedad	74
79557	7	Sololá	702	San José Chacayá	5	Chacayá	2	Febrero	2023-02-19T00:00:00	2024-11-06T09:00:00	6	Velocidad del viento	11.3
79558	7	Sololá	702	San José Chacayá	5	Chacayá	2	Febrero	2023-02-19T00:00:00	2024-11-06T09:00:00	7	Dirección del viento	11.27
79559	7	Sololá	702	San José Chacayá	5	Chacayá	2	Febrero	2023-02-19T00:00:00	2024-11-06T09:00:00	1	Precipitación	0
79560	7	Sololá	702	San José Chacayá	5	Chacayá	2	Febrero	2023-02-19T00:00:00	2024-11-06T09:00:00	8	Radiación solar	476
79561	7	Sololá	702	San José Chacayá	5	Chacayá	2	Febrero	2023-02-19T00:00:00	2024-11-06T10:00:00	2	Temperatura media	15.4
79562	7	Sololá	702	San José Chacayá	5	Chacayá	2	Febrero	2023-02-19T00:00:00	2024-11-06T10:00:00	4	Temperatura máxima	15.4
79563	7	Sololá	702	San José Chacayá	5	Chacayá	2	Febrero	2023-02-19T00:00:00	2024-11-06T10:00:00	3	Temperatura mínima	14.1
79564	7	Sololá	702	San José Chacayá	5	Chacayá	2	Febrero	2023-02-19T00:00:00	2024-11-06T10:00:00	5	Humedad	70
79565	7	Sololá	702	San José Chacayá	5	Chacayá	2	Febrero	2023-02-19T00:00:00	2024-11-06T10:00:00	6	Velocidad del viento	11.3
79566	7	Sololá	702	San José Chacayá	5	Chacayá	2	Febrero	2023-02-19T00:00:00	2024-11-06T10:00:00	7	Dirección del viento	11.27
79567	7	Sololá	702	San José Chacayá	5	Chacayá	2	Febrero	2023-02-19T00:00:00	2024-11-06T10:00:00	1	Precipitación	0
79568	7	Sololá	702	San José Chacayá	5	Chacayá	2	Febrero	2023-02-19T00:00:00	2024-11-06T10:00:00	8	Radiación solar	696
79569	7	Sololá	702	San José Chacayá	5	Chacayá	2	Febrero	2023-02-19T00:00:00	2024-11-06T11:00:00	2	Temperatura media	16
79570	7	Sololá	702	San José Chacayá	5	Chacayá	2	Febrero	2023-02-19T00:00:00	2024-11-06T11:00:00	4	Temperatura máxima	16.7
79571	7	Sololá	702	San José Chacayá	5	Chacayá	2	Febrero	2023-02-19T00:00:00	2024-11-06T11:00:00	3	Temperatura mínima	14.9
79572	7	Sololá	702	San José Chacayá	5	Chacayá	2	Febrero	2023-02-19T00:00:00	2024-11-06T11:00:00	5	Humedad	67
79573	7	Sololá	702	San José Chacayá	5	Chacayá	2	Febrero	2023-02-19T00:00:00	2024-11-06T11:00:00	6	Velocidad del viento	9.7
79574	7	Sololá	702	San José Chacayá	5	Chacayá	2	Febrero	2023-02-19T00:00:00	2024-11-06T11:00:00	7	Dirección del viento	9.66
79575	7	Sololá	702	San José Chacayá	5	Chacayá	2	Febrero	2023-02-19T00:00:00	2024-11-06T11:00:00	1	Precipitación	0
79576	7	Sololá	702	San José Chacayá	5	Chacayá	2	Febrero	2023-02-19T00:00:00	2024-11-06T11:00:00	8	Radiación solar	884
79577	7	Sololá	702	San José Chacayá	5	Chacayá	2	Febrero	2023-02-19T00:00:00	2024-11-06T12:00:00	2	Temperatura media	17
79578	7	Sololá	702	San José Chacayá	5	Chacayá	2	Febrero	2023-02-19T00:00:00	2024-11-06T12:00:00	4	Temperatura máxima	17.3
79579	7	Sololá	702	San José Chacayá	5	Chacayá	2	Febrero	2023-02-19T00:00:00	2024-11-06T12:00:00	3	Temperatura mínima	16
79580	7	Sololá	702	San José Chacayá	5	Chacayá	2	Febrero	2023-02-19T00:00:00	2024-11-06T12:00:00	5	Humedad	66
79581	7	Sololá	702	San José Chacayá	5	Chacayá	2	Febrero	2023-02-19T00:00:00	2024-11-06T12:00:00	6	Velocidad del viento	9.7
79582	7	Sololá	702	San José Chacayá	5	Chacayá	2	Febrero	2023-02-19T00:00:00	2024-11-06T12:00:00	7	Dirección del viento	9.66
79583	7	Sololá	702	San José Chacayá	5	Chacayá	2	Febrero	2023-02-19T00:00:00	2024-11-06T12:00:00	1	Precipitación	0
79584	7	Sololá	702	San José Chacayá	5	Chacayá	2	Febrero	2023-02-19T00:00:00	2024-11-06T12:00:00	8	Radiación solar	875
79585	7	Sololá	702	San José Chacayá	5	Chacayá	2	Febrero	2023-02-19T00:00:00	2024-11-06T13:00:00	2	Temperatura media	16.3
79586	7	Sololá	702	San José Chacayá	5	Chacayá	2	Febrero	2023-02-19T00:00:00	2024-11-06T13:00:00	4	Temperatura máxima	17.6
79587	7	Sololá	702	San José Chacayá	5	Chacayá	2	Febrero	2023-02-19T00:00:00	2024-11-06T13:00:00	3	Temperatura mínima	15.4
79588	7	Sololá	702	San José Chacayá	5	Chacayá	2	Febrero	2023-02-19T00:00:00	2024-11-06T13:00:00	5	Humedad	68
79589	7	Sololá	702	San José Chacayá	5	Chacayá	2	Febrero	2023-02-19T00:00:00	2024-11-06T13:00:00	6	Velocidad del viento	9.7
79590	7	Sololá	702	San José Chacayá	5	Chacayá	2	Febrero	2023-02-19T00:00:00	2024-11-06T13:00:00	7	Dirección del viento	9.66
79591	7	Sololá	702	San José Chacayá	5	Chacayá	2	Febrero	2023-02-19T00:00:00	2024-11-06T13:00:00	1	Precipitación	0
79592	7	Sololá	702	San José Chacayá	5	Chacayá	2	Febrero	2023-02-19T00:00:00	2024-11-06T13:00:00	8	Radiación solar	977
79593	7	Sololá	702	San José Chacayá	5	Chacayá	2	Febrero	2023-02-19T00:00:00	2024-11-06T14:00:00	2	Temperatura media	16.4
79594	7	Sololá	702	San José Chacayá	5	Chacayá	2	Febrero	2023-02-19T00:00:00	2024-11-06T14:00:00	4	Temperatura máxima	17.2
79595	7	Sololá	702	San José Chacayá	5	Chacayá	2	Febrero	2023-02-19T00:00:00	2024-11-06T14:00:00	3	Temperatura mínima	15.8
79596	7	Sololá	702	San José Chacayá	5	Chacayá	2	Febrero	2023-02-19T00:00:00	2024-11-06T14:00:00	5	Humedad	67
79597	7	Sololá	702	San José Chacayá	5	Chacayá	2	Febrero	2023-02-19T00:00:00	2024-11-06T14:00:00	6	Velocidad del viento	9.7
79598	7	Sololá	702	San José Chacayá	5	Chacayá	2	Febrero	2023-02-19T00:00:00	2024-11-06T14:00:00	7	Dirección del viento	9.66
79599	7	Sololá	702	San José Chacayá	5	Chacayá	2	Febrero	2023-02-19T00:00:00	2024-11-06T14:00:00	1	Precipitación	0
79600	7	Sololá	702	San José Chacayá	5	Chacayá	2	Febrero	2023-02-19T00:00:00	2024-11-06T14:00:00	8	Radiación solar	908
79601	7	Sololá	702	San José Chacayá	5	Chacayá	2	Febrero	2023-02-19T00:00:00	2024-11-06T15:00:00	2	Temperatura media	16.9
79602	7	Sololá	702	San José Chacayá	5	Chacayá	2	Febrero	2023-02-19T00:00:00	2024-11-06T15:00:00	4	Temperatura máxima	17.5
79603	7	Sololá	702	San José Chacayá	5	Chacayá	2	Febrero	2023-02-19T00:00:00	2024-11-06T15:00:00	3	Temperatura mínima	16.3
79604	7	Sololá	702	San José Chacayá	5	Chacayá	2	Febrero	2023-02-19T00:00:00	2024-11-06T15:00:00	5	Humedad	65
79605	7	Sololá	702	San José Chacayá	5	Chacayá	2	Febrero	2023-02-19T00:00:00	2024-11-06T15:00:00	6	Velocidad del viento	8
79606	7	Sololá	702	San José Chacayá	5	Chacayá	2	Febrero	2023-02-19T00:00:00	2024-11-06T15:00:00	7	Dirección del viento	8.05
79607	7	Sololá	702	San José Chacayá	5	Chacayá	2	Febrero	2023-02-19T00:00:00	2024-11-06T15:00:00	1	Precipitación	0
79608	7	Sololá	702	San José Chacayá	5	Chacayá	2	Febrero	2023-02-19T00:00:00	2024-11-06T15:00:00	8	Radiación solar	773
79609	7	Sololá	702	San José Chacayá	5	Chacayá	2	Febrero	2023-02-19T00:00:00	2024-11-06T16:00:00	2	Temperatura media	17.9
79610	7	Sololá	702	San José Chacayá	5	Chacayá	2	Febrero	2023-02-19T00:00:00	2024-11-06T16:00:00	4	Temperatura máxima	17.9
79611	7	Sololá	702	San José Chacayá	5	Chacayá	2	Febrero	2023-02-19T00:00:00	2024-11-06T16:00:00	3	Temperatura mínima	16.8
79612	7	Sololá	702	San José Chacayá	5	Chacayá	2	Febrero	2023-02-19T00:00:00	2024-11-06T16:00:00	5	Humedad	60
79613	7	Sololá	702	San José Chacayá	5	Chacayá	2	Febrero	2023-02-19T00:00:00	2024-11-06T16:00:00	6	Velocidad del viento	6.4
79614	7	Sololá	702	San José Chacayá	5	Chacayá	2	Febrero	2023-02-19T00:00:00	2024-11-06T16:00:00	7	Dirección del viento	6.44
79615	7	Sololá	702	San José Chacayá	5	Chacayá	2	Febrero	2023-02-19T00:00:00	2024-11-06T16:00:00	1	Precipitación	0
79616	7	Sololá	702	San José Chacayá	5	Chacayá	2	Febrero	2023-02-19T00:00:00	2024-11-06T16:00:00	8	Radiación solar	593
79617	7	Sololá	702	San José Chacayá	5	Chacayá	2	Febrero	2023-02-19T00:00:00	2024-11-06T17:00:00	2	Temperatura media	16.4
79618	7	Sololá	702	San José Chacayá	5	Chacayá	2	Febrero	2023-02-19T00:00:00	2024-11-06T17:00:00	4	Temperatura máxima	17.9
79619	7	Sololá	702	San José Chacayá	5	Chacayá	2	Febrero	2023-02-19T00:00:00	2024-11-06T17:00:00	3	Temperatura mínima	16.2
79620	7	Sololá	702	San José Chacayá	5	Chacayá	2	Febrero	2023-02-19T00:00:00	2024-11-06T17:00:00	5	Humedad	66
79621	7	Sololá	702	San José Chacayá	5	Chacayá	2	Febrero	2023-02-19T00:00:00	2024-11-06T17:00:00	6	Velocidad del viento	6.4
79622	7	Sololá	702	San José Chacayá	5	Chacayá	2	Febrero	2023-02-19T00:00:00	2024-11-06T17:00:00	7	Dirección del viento	6.44
79623	7	Sololá	702	San José Chacayá	5	Chacayá	2	Febrero	2023-02-19T00:00:00	2024-11-06T17:00:00	1	Precipitación	0
79624	7	Sololá	702	San José Chacayá	5	Chacayá	2	Febrero	2023-02-19T00:00:00	2024-11-06T17:00:00	8	Radiación solar	370
79625	7	Sololá	702	San José Chacayá	5	Chacayá	2	Febrero	2023-02-19T00:00:00	2024-11-06T18:00:00	2	Temperatura media	13.8
79626	7	Sololá	702	San José Chacayá	5	Chacayá	2	Febrero	2023-02-19T00:00:00	2024-11-06T18:00:00	4	Temperatura máxima	16.4
79627	7	Sololá	702	San José Chacayá	5	Chacayá	2	Febrero	2023-02-19T00:00:00	2024-11-06T18:00:00	3	Temperatura mínima	13.7
79628	7	Sololá	702	San José Chacayá	5	Chacayá	2	Febrero	2023-02-19T00:00:00	2024-11-06T18:00:00	5	Humedad	76
79629	7	Sololá	702	San José Chacayá	5	Chacayá	2	Febrero	2023-02-19T00:00:00	2024-11-06T18:00:00	6	Velocidad del viento	6.4
79630	7	Sololá	702	San José Chacayá	5	Chacayá	2	Febrero	2023-02-19T00:00:00	2024-11-06T18:00:00	7	Dirección del viento	6.44
79631	7	Sololá	702	San José Chacayá	5	Chacayá	2	Febrero	2023-02-19T00:00:00	2024-11-06T18:00:00	1	Precipitación	0
79632	7	Sololá	702	San José Chacayá	5	Chacayá	2	Febrero	2023-02-19T00:00:00	2024-11-06T18:00:00	8	Radiación solar	62
79633	7	Sololá	702	San José Chacayá	5	Chacayá	2	Febrero	2023-02-19T00:00:00	2024-11-06T19:00:00	2	Temperatura media	12.9
79634	7	Sololá	702	San José Chacayá	5	Chacayá	2	Febrero	2023-02-19T00:00:00	2024-11-06T19:00:00	4	Temperatura máxima	13.8
79635	7	Sololá	702	San José Chacayá	5	Chacayá	2	Febrero	2023-02-19T00:00:00	2024-11-06T19:00:00	3	Temperatura mínima	12.9
79636	7	Sololá	702	San José Chacayá	5	Chacayá	2	Febrero	2023-02-19T00:00:00	2024-11-06T19:00:00	5	Humedad	76
79637	7	Sololá	702	San José Chacayá	5	Chacayá	2	Febrero	2023-02-19T00:00:00	2024-11-06T19:00:00	6	Velocidad del viento	8
79638	7	Sololá	702	San José Chacayá	5	Chacayá	2	Febrero	2023-02-19T00:00:00	2024-11-06T19:00:00	7	Dirección del viento	8.05
79639	7	Sololá	702	San José Chacayá	5	Chacayá	2	Febrero	2023-02-19T00:00:00	2024-11-06T19:00:00	1	Precipitación	0
79640	7	Sololá	702	San José Chacayá	5	Chacayá	2	Febrero	2023-02-19T00:00:00	2024-11-06T19:00:00	8	Radiación solar	1
79641	7	Sololá	702	San José Chacayá	5	Chacayá	2	Febrero	2023-02-19T00:00:00	2024-11-06T20:00:00	2	Temperatura media	12.6
79642	7	Sololá	702	San José Chacayá	5	Chacayá	2	Febrero	2023-02-19T00:00:00	2024-11-06T20:00:00	4	Temperatura máxima	12.9
79643	7	Sololá	702	San José Chacayá	5	Chacayá	2	Febrero	2023-02-19T00:00:00	2024-11-06T20:00:00	3	Temperatura mínima	12.6
79644	7	Sololá	702	San José Chacayá	5	Chacayá	2	Febrero	2023-02-19T00:00:00	2024-11-06T20:00:00	5	Humedad	75
79645	7	Sololá	702	San José Chacayá	5	Chacayá	2	Febrero	2023-02-19T00:00:00	2024-11-06T20:00:00	6	Velocidad del viento	9.7
79646	7	Sololá	702	San José Chacayá	5	Chacayá	2	Febrero	2023-02-19T00:00:00	2024-11-06T20:00:00	7	Dirección del viento	9.66
79647	7	Sololá	702	San José Chacayá	5	Chacayá	2	Febrero	2023-02-19T00:00:00	2024-11-06T20:00:00	1	Precipitación	0
79648	7	Sololá	702	San José Chacayá	5	Chacayá	2	Febrero	2023-02-19T00:00:00	2024-11-06T20:00:00	8	Radiación solar	0
79649	7	Sololá	702	San José Chacayá	5	Chacayá	2	Febrero	2023-02-19T00:00:00	2024-11-06T21:00:00	2	Temperatura media	12.2
79650	7	Sololá	702	San José Chacayá	5	Chacayá	2	Febrero	2023-02-19T00:00:00	2024-11-06T21:00:00	4	Temperatura máxima	12.7
79651	7	Sololá	702	San José Chacayá	5	Chacayá	2	Febrero	2023-02-19T00:00:00	2024-11-06T21:00:00	3	Temperatura mínima	12.2
79652	7	Sololá	702	San José Chacayá	5	Chacayá	2	Febrero	2023-02-19T00:00:00	2024-11-06T21:00:00	5	Humedad	75
79653	7	Sololá	702	San José Chacayá	5	Chacayá	2	Febrero	2023-02-19T00:00:00	2024-11-06T21:00:00	6	Velocidad del viento	6.4
79654	7	Sololá	702	San José Chacayá	5	Chacayá	2	Febrero	2023-02-19T00:00:00	2024-11-06T21:00:00	7	Dirección del viento	6.44
79655	7	Sololá	702	San José Chacayá	5	Chacayá	2	Febrero	2023-02-19T00:00:00	2024-11-06T21:00:00	1	Precipitación	0
79656	7	Sololá	702	San José Chacayá	5	Chacayá	2	Febrero	2023-02-19T00:00:00	2024-11-06T21:00:00	8	Radiación solar	0
79657	7	Sololá	702	San José Chacayá	5	Chacayá	2	Febrero	2023-02-19T00:00:00	2024-11-06T22:00:00	2	Temperatura media	11.7
79658	7	Sololá	702	San José Chacayá	5	Chacayá	2	Febrero	2023-02-19T00:00:00	2024-11-06T22:00:00	4	Temperatura máxima	12.2
79659	7	Sololá	702	San José Chacayá	5	Chacayá	2	Febrero	2023-02-19T00:00:00	2024-11-06T22:00:00	3	Temperatura mínima	11.7
79660	7	Sololá	702	San José Chacayá	5	Chacayá	2	Febrero	2023-02-19T00:00:00	2024-11-06T22:00:00	5	Humedad	74
79661	7	Sololá	702	San José Chacayá	5	Chacayá	2	Febrero	2023-02-19T00:00:00	2024-11-06T22:00:00	6	Velocidad del viento	6.4
79662	7	Sololá	702	San José Chacayá	5	Chacayá	2	Febrero	2023-02-19T00:00:00	2024-11-06T22:00:00	7	Dirección del viento	6.44
79663	7	Sololá	702	San José Chacayá	5	Chacayá	2	Febrero	2023-02-19T00:00:00	2024-11-06T22:00:00	1	Precipitación	0
79664	7	Sololá	702	San José Chacayá	5	Chacayá	2	Febrero	2023-02-19T00:00:00	2024-11-06T22:00:00	8	Radiación solar	0
79665	7	Sololá	702	San José Chacayá	5	Chacayá	2	Febrero	2023-02-19T00:00:00	2024-11-06T23:00:00	2	Temperatura media	11.9
79666	7	Sololá	702	San José Chacayá	5	Chacayá	2	Febrero	2023-02-19T00:00:00	2024-11-06T23:00:00	4	Temperatura máxima	12
79667	7	Sololá	702	San José Chacayá	5	Chacayá	2	Febrero	2023-02-19T00:00:00	2024-11-06T23:00:00	3	Temperatura mínima	11.7
79668	7	Sololá	702	San José Chacayá	5	Chacayá	2	Febrero	2023-02-19T00:00:00	2024-11-06T23:00:00	5	Humedad	69
79669	7	Sololá	702	San José Chacayá	5	Chacayá	2	Febrero	2023-02-19T00:00:00	2024-11-06T23:00:00	6	Velocidad del viento	4.8
79670	7	Sololá	702	San José Chacayá	5	Chacayá	2	Febrero	2023-02-19T00:00:00	2024-11-06T23:00:00	7	Dirección del viento	4.83
79671	7	Sololá	702	San José Chacayá	5	Chacayá	2	Febrero	2023-02-19T00:00:00	2024-11-06T23:00:00	1	Precipitación	0
79672	7	Sololá	702	San José Chacayá	5	Chacayá	2	Febrero	2023-02-19T00:00:00	2024-11-06T23:00:00	8	Radiación solar	0
79673	7	Sololá	702	San José Chacayá	5	Chacayá	2	Febrero	2023-02-20T00:00:00	2024-11-06T00:00:00	2	Temperatura media	12.3
79674	7	Sololá	702	San José Chacayá	5	Chacayá	2	Febrero	2023-02-20T00:00:00	2024-11-06T00:00:00	4	Temperatura máxima	12.4
79675	7	Sololá	702	San José Chacayá	5	Chacayá	2	Febrero	2023-02-20T00:00:00	2024-11-06T00:00:00	3	Temperatura mínima	11.8
79676	7	Sololá	702	San José Chacayá	5	Chacayá	2	Febrero	2023-02-20T00:00:00	2024-11-06T00:00:00	5	Humedad	64
79677	7	Sololá	702	San José Chacayá	5	Chacayá	2	Febrero	2023-02-20T00:00:00	2024-11-06T00:00:00	6	Velocidad del viento	8
79678	7	Sololá	702	San José Chacayá	5	Chacayá	2	Febrero	2023-02-20T00:00:00	2024-11-06T00:00:00	7	Dirección del viento	8.05
79679	7	Sololá	702	San José Chacayá	5	Chacayá	2	Febrero	2023-02-20T00:00:00	2024-11-06T00:00:00	1	Precipitación	0
79680	7	Sololá	702	San José Chacayá	5	Chacayá	2	Febrero	2023-02-20T00:00:00	2024-11-06T00:00:00	8	Radiación solar	0
79681	7	Sololá	702	San José Chacayá	5	Chacayá	2	Febrero	2023-02-20T00:00:00	2024-11-06T01:00:00	2	Temperatura media	11.2
79682	7	Sololá	702	San José Chacayá	5	Chacayá	2	Febrero	2023-02-20T00:00:00	2024-11-06T01:00:00	4	Temperatura máxima	12.3
79683	7	Sololá	702	San José Chacayá	5	Chacayá	2	Febrero	2023-02-20T00:00:00	2024-11-06T01:00:00	3	Temperatura mínima	11.2
79684	7	Sololá	702	San José Chacayá	5	Chacayá	2	Febrero	2023-02-20T00:00:00	2024-11-06T01:00:00	5	Humedad	68
79685	7	Sololá	702	San José Chacayá	5	Chacayá	2	Febrero	2023-02-20T00:00:00	2024-11-06T01:00:00	6	Velocidad del viento	6.4
79686	7	Sololá	702	San José Chacayá	5	Chacayá	2	Febrero	2023-02-20T00:00:00	2024-11-06T01:00:00	7	Dirección del viento	6.44
79687	7	Sololá	702	San José Chacayá	5	Chacayá	2	Febrero	2023-02-20T00:00:00	2024-11-06T01:00:00	1	Precipitación	0
79688	7	Sololá	702	San José Chacayá	5	Chacayá	2	Febrero	2023-02-20T00:00:00	2024-11-06T01:00:00	8	Radiación solar	0
79689	7	Sololá	702	San José Chacayá	5	Chacayá	2	Febrero	2023-02-20T00:00:00	2024-11-06T02:00:00	2	Temperatura media	11.3
79690	7	Sololá	702	San José Chacayá	5	Chacayá	2	Febrero	2023-02-20T00:00:00	2024-11-06T02:00:00	4	Temperatura máxima	11.3
79691	7	Sololá	702	San José Chacayá	5	Chacayá	2	Febrero	2023-02-20T00:00:00	2024-11-06T02:00:00	3	Temperatura mínima	10.5
79692	7	Sololá	702	San José Chacayá	5	Chacayá	2	Febrero	2023-02-20T00:00:00	2024-11-06T02:00:00	5	Humedad	72
79693	7	Sololá	702	San José Chacayá	5	Chacayá	2	Febrero	2023-02-20T00:00:00	2024-11-06T02:00:00	6	Velocidad del viento	3.2
79694	7	Sololá	702	San José Chacayá	5	Chacayá	2	Febrero	2023-02-20T00:00:00	2024-11-06T02:00:00	7	Dirección del viento	3.22
79695	7	Sololá	702	San José Chacayá	5	Chacayá	2	Febrero	2023-02-20T00:00:00	2024-11-06T02:00:00	1	Precipitación	0
79696	7	Sololá	702	San José Chacayá	5	Chacayá	2	Febrero	2023-02-20T00:00:00	2024-11-06T02:00:00	8	Radiación solar	0
79697	7	Sololá	702	San José Chacayá	5	Chacayá	2	Febrero	2023-02-20T00:00:00	2024-11-06T03:00:00	2	Temperatura media	11.1
79698	7	Sololá	702	San José Chacayá	5	Chacayá	2	Febrero	2023-02-20T00:00:00	2024-11-06T03:00:00	4	Temperatura máxima	11.4
79699	7	Sololá	702	San José Chacayá	5	Chacayá	2	Febrero	2023-02-20T00:00:00	2024-11-06T03:00:00	3	Temperatura mínima	10.7
79700	7	Sololá	702	San José Chacayá	5	Chacayá	2	Febrero	2023-02-20T00:00:00	2024-11-06T03:00:00	5	Humedad	73
79701	7	Sololá	702	San José Chacayá	5	Chacayá	2	Febrero	2023-02-20T00:00:00	2024-11-06T03:00:00	6	Velocidad del viento	3.2
79702	7	Sololá	702	San José Chacayá	5	Chacayá	2	Febrero	2023-02-20T00:00:00	2024-11-06T03:00:00	7	Dirección del viento	3.22
79703	7	Sololá	702	San José Chacayá	5	Chacayá	2	Febrero	2023-02-20T00:00:00	2024-11-06T03:00:00	1	Precipitación	0
79704	7	Sololá	702	San José Chacayá	5	Chacayá	2	Febrero	2023-02-20T00:00:00	2024-11-06T03:00:00	8	Radiación solar	0
79705	7	Sololá	702	San José Chacayá	5	Chacayá	2	Febrero	2023-02-20T00:00:00	2024-11-06T04:00:00	2	Temperatura media	11.1
79706	7	Sololá	702	San José Chacayá	5	Chacayá	2	Febrero	2023-02-20T00:00:00	2024-11-06T04:00:00	4	Temperatura máxima	11.1
79707	7	Sololá	702	San José Chacayá	5	Chacayá	2	Febrero	2023-02-20T00:00:00	2024-11-06T04:00:00	3	Temperatura mínima	10.4
79708	7	Sololá	702	San José Chacayá	5	Chacayá	2	Febrero	2023-02-20T00:00:00	2024-11-06T04:00:00	5	Humedad	74
79709	7	Sololá	702	San José Chacayá	5	Chacayá	2	Febrero	2023-02-20T00:00:00	2024-11-06T04:00:00	6	Velocidad del viento	1.6
79710	7	Sololá	702	San José Chacayá	5	Chacayá	2	Febrero	2023-02-20T00:00:00	2024-11-06T04:00:00	7	Dirección del viento	1.61
79711	7	Sololá	702	San José Chacayá	5	Chacayá	2	Febrero	2023-02-20T00:00:00	2024-11-06T04:00:00	1	Precipitación	0
79712	7	Sololá	702	San José Chacayá	5	Chacayá	2	Febrero	2023-02-20T00:00:00	2024-11-06T04:00:00	8	Radiación solar	0
79713	7	Sololá	702	San José Chacayá	5	Chacayá	2	Febrero	2023-02-20T00:00:00	2024-11-06T05:00:00	2	Temperatura media	10.9
79714	7	Sololá	702	San José Chacayá	5	Chacayá	2	Febrero	2023-02-20T00:00:00	2024-11-06T05:00:00	4	Temperatura máxima	11.2
79715	7	Sololá	702	San José Chacayá	5	Chacayá	2	Febrero	2023-02-20T00:00:00	2024-11-06T05:00:00	3	Temperatura mínima	10.9
79716	7	Sololá	702	San José Chacayá	5	Chacayá	2	Febrero	2023-02-20T00:00:00	2024-11-06T05:00:00	5	Humedad	75
79717	7	Sololá	702	San José Chacayá	5	Chacayá	2	Febrero	2023-02-20T00:00:00	2024-11-06T05:00:00	6	Velocidad del viento	1.6
79718	7	Sololá	702	San José Chacayá	5	Chacayá	2	Febrero	2023-02-20T00:00:00	2024-11-06T05:00:00	7	Dirección del viento	1.61
79719	7	Sololá	702	San José Chacayá	5	Chacayá	2	Febrero	2023-02-20T00:00:00	2024-11-06T05:00:00	1	Precipitación	0
79720	7	Sololá	702	San José Chacayá	5	Chacayá	2	Febrero	2023-02-20T00:00:00	2024-11-06T05:00:00	8	Radiación solar	0
79721	7	Sololá	702	San José Chacayá	5	Chacayá	2	Febrero	2023-02-20T00:00:00	2024-11-06T06:00:00	2	Temperatura media	10.6
79722	7	Sololá	702	San José Chacayá	5	Chacayá	2	Febrero	2023-02-20T00:00:00	2024-11-06T06:00:00	4	Temperatura máxima	11.1
79723	7	Sololá	702	San José Chacayá	5	Chacayá	2	Febrero	2023-02-20T00:00:00	2024-11-06T06:00:00	3	Temperatura mínima	10.6
79724	7	Sololá	702	San José Chacayá	5	Chacayá	2	Febrero	2023-02-20T00:00:00	2024-11-06T06:00:00	5	Humedad	73
79725	7	Sololá	702	San José Chacayá	5	Chacayá	2	Febrero	2023-02-20T00:00:00	2024-11-06T06:00:00	6	Velocidad del viento	1.6
79726	7	Sololá	702	San José Chacayá	5	Chacayá	2	Febrero	2023-02-20T00:00:00	2024-11-06T06:00:00	7	Dirección del viento	1.61
79727	7	Sololá	702	San José Chacayá	5	Chacayá	2	Febrero	2023-02-20T00:00:00	2024-11-06T06:00:00	1	Precipitación	0
79728	7	Sololá	702	San José Chacayá	5	Chacayá	2	Febrero	2023-02-20T00:00:00	2024-11-06T06:00:00	8	Radiación solar	0
79729	7	Sololá	702	San José Chacayá	5	Chacayá	2	Febrero	2023-02-20T00:00:00	2024-11-06T07:00:00	2	Temperatura media	12.2
79730	7	Sololá	702	San José Chacayá	5	Chacayá	2	Febrero	2023-02-20T00:00:00	2024-11-06T07:00:00	4	Temperatura máxima	12.2
79731	7	Sololá	702	San José Chacayá	5	Chacayá	2	Febrero	2023-02-20T00:00:00	2024-11-06T07:00:00	3	Temperatura mínima	10.3
79732	7	Sololá	702	San José Chacayá	5	Chacayá	2	Febrero	2023-02-20T00:00:00	2024-11-06T07:00:00	5	Humedad	66
79733	7	Sololá	702	San José Chacayá	5	Chacayá	2	Febrero	2023-02-20T00:00:00	2024-11-06T07:00:00	6	Velocidad del viento	3.2
79734	7	Sololá	702	San José Chacayá	5	Chacayá	2	Febrero	2023-02-20T00:00:00	2024-11-06T07:00:00	7	Dirección del viento	3.22
79735	7	Sololá	702	San José Chacayá	5	Chacayá	2	Febrero	2023-02-20T00:00:00	2024-11-06T07:00:00	1	Precipitación	0
79736	7	Sololá	702	San José Chacayá	5	Chacayá	2	Febrero	2023-02-20T00:00:00	2024-11-06T07:00:00	8	Radiación solar	15
79737	7	Sololá	702	San José Chacayá	5	Chacayá	2	Febrero	2023-02-20T00:00:00	2024-11-06T08:00:00	2	Temperatura media	13.3
79738	7	Sololá	702	San José Chacayá	5	Chacayá	2	Febrero	2023-02-20T00:00:00	2024-11-06T08:00:00	4	Temperatura máxima	13.3
79739	7	Sololá	702	San José Chacayá	5	Chacayá	2	Febrero	2023-02-20T00:00:00	2024-11-06T08:00:00	3	Temperatura mínima	12.2
79740	7	Sololá	702	San José Chacayá	5	Chacayá	2	Febrero	2023-02-20T00:00:00	2024-11-06T08:00:00	5	Humedad	66
79741	7	Sololá	702	San José Chacayá	5	Chacayá	2	Febrero	2023-02-20T00:00:00	2024-11-06T08:00:00	6	Velocidad del viento	6.4
79742	7	Sololá	702	San José Chacayá	5	Chacayá	2	Febrero	2023-02-20T00:00:00	2024-11-06T08:00:00	7	Dirección del viento	6.44
79743	7	Sololá	702	San José Chacayá	5	Chacayá	2	Febrero	2023-02-20T00:00:00	2024-11-06T08:00:00	1	Precipitación	0
79744	7	Sololá	702	San José Chacayá	5	Chacayá	2	Febrero	2023-02-20T00:00:00	2024-11-06T08:00:00	8	Radiación solar	218
79745	7	Sololá	702	San José Chacayá	5	Chacayá	2	Febrero	2023-02-20T00:00:00	2024-11-06T09:00:00	2	Temperatura media	15.4
79746	7	Sololá	702	San José Chacayá	5	Chacayá	2	Febrero	2023-02-20T00:00:00	2024-11-06T09:00:00	4	Temperatura máxima	15.4
79747	7	Sololá	702	San José Chacayá	5	Chacayá	2	Febrero	2023-02-20T00:00:00	2024-11-06T09:00:00	3	Temperatura mínima	13.1
79748	7	Sololá	702	San José Chacayá	5	Chacayá	2	Febrero	2023-02-20T00:00:00	2024-11-06T09:00:00	5	Humedad	58
79749	7	Sololá	702	San José Chacayá	5	Chacayá	2	Febrero	2023-02-20T00:00:00	2024-11-06T09:00:00	6	Velocidad del viento	4.8
79750	7	Sololá	702	San José Chacayá	5	Chacayá	2	Febrero	2023-02-20T00:00:00	2024-11-06T09:00:00	7	Dirección del viento	4.83
79751	7	Sololá	702	San José Chacayá	5	Chacayá	2	Febrero	2023-02-20T00:00:00	2024-11-06T09:00:00	1	Precipitación	0
79752	7	Sololá	702	San José Chacayá	5	Chacayá	2	Febrero	2023-02-20T00:00:00	2024-11-06T09:00:00	8	Radiación solar	478
79753	7	Sololá	702	San José Chacayá	5	Chacayá	2	Febrero	2023-02-20T00:00:00	2024-11-06T10:00:00	2	Temperatura media	16.6
79754	7	Sololá	702	San José Chacayá	5	Chacayá	2	Febrero	2023-02-20T00:00:00	2024-11-06T10:00:00	4	Temperatura máxima	16.6
79755	7	Sololá	702	San José Chacayá	5	Chacayá	2	Febrero	2023-02-20T00:00:00	2024-11-06T10:00:00	3	Temperatura mínima	15.4
79756	7	Sololá	702	San José Chacayá	5	Chacayá	2	Febrero	2023-02-20T00:00:00	2024-11-06T10:00:00	5	Humedad	58
79757	7	Sololá	702	San José Chacayá	5	Chacayá	2	Febrero	2023-02-20T00:00:00	2024-11-06T10:00:00	6	Velocidad del viento	6.4
79758	7	Sololá	702	San José Chacayá	5	Chacayá	2	Febrero	2023-02-20T00:00:00	2024-11-06T10:00:00	7	Dirección del viento	6.44
79759	7	Sololá	702	San José Chacayá	5	Chacayá	2	Febrero	2023-02-20T00:00:00	2024-11-06T10:00:00	1	Precipitación	0
79760	7	Sololá	702	San José Chacayá	5	Chacayá	2	Febrero	2023-02-20T00:00:00	2024-11-06T10:00:00	8	Radiación solar	687
79761	7	Sololá	702	San José Chacayá	5	Chacayá	2	Febrero	2023-02-20T00:00:00	2024-11-06T11:00:00	2	Temperatura media	18
79762	7	Sololá	702	San José Chacayá	5	Chacayá	2	Febrero	2023-02-20T00:00:00	2024-11-06T11:00:00	4	Temperatura máxima	18.2
79763	7	Sololá	702	San José Chacayá	5	Chacayá	2	Febrero	2023-02-20T00:00:00	2024-11-06T11:00:00	3	Temperatura mínima	16.6
79764	7	Sololá	702	San José Chacayá	5	Chacayá	2	Febrero	2023-02-20T00:00:00	2024-11-06T11:00:00	5	Humedad	53
79765	7	Sololá	702	San José Chacayá	5	Chacayá	2	Febrero	2023-02-20T00:00:00	2024-11-06T11:00:00	6	Velocidad del viento	6.4
79766	7	Sololá	702	San José Chacayá	5	Chacayá	2	Febrero	2023-02-20T00:00:00	2024-11-06T11:00:00	7	Dirección del viento	6.44
79767	7	Sololá	702	San José Chacayá	5	Chacayá	2	Febrero	2023-02-20T00:00:00	2024-11-06T11:00:00	1	Precipitación	0
79768	7	Sololá	702	San José Chacayá	5	Chacayá	2	Febrero	2023-02-20T00:00:00	2024-11-06T11:00:00	8	Radiación solar	843
79769	7	Sololá	702	San José Chacayá	5	Chacayá	2	Febrero	2023-02-20T00:00:00	2024-11-06T12:00:00	2	Temperatura media	19.9
79770	7	Sololá	702	San José Chacayá	5	Chacayá	2	Febrero	2023-02-20T00:00:00	2024-11-06T12:00:00	4	Temperatura máxima	20.2
79771	7	Sololá	702	San José Chacayá	5	Chacayá	2	Febrero	2023-02-20T00:00:00	2024-11-06T12:00:00	3	Temperatura mínima	18
79772	7	Sololá	702	San José Chacayá	5	Chacayá	2	Febrero	2023-02-20T00:00:00	2024-11-06T12:00:00	5	Humedad	47
79773	7	Sololá	702	San José Chacayá	5	Chacayá	2	Febrero	2023-02-20T00:00:00	2024-11-06T12:00:00	6	Velocidad del viento	6.4
79774	7	Sololá	702	San José Chacayá	5	Chacayá	2	Febrero	2023-02-20T00:00:00	2024-11-06T12:00:00	7	Dirección del viento	6.44
79775	7	Sololá	702	San José Chacayá	5	Chacayá	2	Febrero	2023-02-20T00:00:00	2024-11-06T12:00:00	1	Precipitación	0
79776	7	Sololá	702	San José Chacayá	5	Chacayá	2	Febrero	2023-02-20T00:00:00	2024-11-06T12:00:00	8	Radiación solar	880
79777	7	Sololá	702	San José Chacayá	5	Chacayá	2	Febrero	2023-02-20T00:00:00	2024-11-06T13:00:00	2	Temperatura media	20.6
79778	7	Sololá	702	San José Chacayá	5	Chacayá	2	Febrero	2023-02-20T00:00:00	2024-11-06T13:00:00	4	Temperatura máxima	20.8
79779	7	Sololá	702	San José Chacayá	5	Chacayá	2	Febrero	2023-02-20T00:00:00	2024-11-06T13:00:00	3	Temperatura mínima	19.8
79780	7	Sololá	702	San José Chacayá	5	Chacayá	2	Febrero	2023-02-20T00:00:00	2024-11-06T13:00:00	5	Humedad	44
79781	7	Sololá	702	San José Chacayá	5	Chacayá	2	Febrero	2023-02-20T00:00:00	2024-11-06T13:00:00	6	Velocidad del viento	6.4
79782	7	Sololá	702	San José Chacayá	5	Chacayá	2	Febrero	2023-02-20T00:00:00	2024-11-06T13:00:00	7	Dirección del viento	6.44
79783	7	Sololá	702	San José Chacayá	5	Chacayá	2	Febrero	2023-02-20T00:00:00	2024-11-06T13:00:00	1	Precipitación	0
79784	7	Sololá	702	San José Chacayá	5	Chacayá	2	Febrero	2023-02-20T00:00:00	2024-11-06T13:00:00	8	Radiación solar	957
79785	7	Sololá	702	San José Chacayá	5	Chacayá	2	Febrero	2023-02-20T00:00:00	2024-11-06T14:00:00	2	Temperatura media	20.4
79786	7	Sololá	702	San José Chacayá	5	Chacayá	2	Febrero	2023-02-20T00:00:00	2024-11-06T14:00:00	4	Temperatura máxima	20.7
79787	7	Sololá	702	San José Chacayá	5	Chacayá	2	Febrero	2023-02-20T00:00:00	2024-11-06T14:00:00	3	Temperatura mínima	19.7
79788	7	Sololá	702	San José Chacayá	5	Chacayá	2	Febrero	2023-02-20T00:00:00	2024-11-06T14:00:00	5	Humedad	44
79789	7	Sololá	702	San José Chacayá	5	Chacayá	2	Febrero	2023-02-20T00:00:00	2024-11-06T14:00:00	6	Velocidad del viento	6.4
79790	7	Sololá	702	San José Chacayá	5	Chacayá	2	Febrero	2023-02-20T00:00:00	2024-11-06T14:00:00	7	Dirección del viento	6.44
79791	7	Sololá	702	San José Chacayá	5	Chacayá	2	Febrero	2023-02-20T00:00:00	2024-11-06T14:00:00	1	Precipitación	0
79792	7	Sololá	702	San José Chacayá	5	Chacayá	2	Febrero	2023-02-20T00:00:00	2024-11-06T14:00:00	8	Radiación solar	920
79793	7	Sololá	702	San José Chacayá	5	Chacayá	2	Febrero	2023-02-20T00:00:00	2024-11-06T15:00:00	2	Temperatura media	20.5
79794	7	Sololá	702	San José Chacayá	5	Chacayá	2	Febrero	2023-02-20T00:00:00	2024-11-06T15:00:00	4	Temperatura máxima	20.8
79795	7	Sololá	702	San José Chacayá	5	Chacayá	2	Febrero	2023-02-20T00:00:00	2024-11-06T15:00:00	3	Temperatura mínima	20
79796	7	Sololá	702	San José Chacayá	5	Chacayá	2	Febrero	2023-02-20T00:00:00	2024-11-06T15:00:00	5	Humedad	43
79797	7	Sololá	702	San José Chacayá	5	Chacayá	2	Febrero	2023-02-20T00:00:00	2024-11-06T15:00:00	6	Velocidad del viento	6.4
79798	7	Sololá	702	San José Chacayá	5	Chacayá	2	Febrero	2023-02-20T00:00:00	2024-11-06T15:00:00	7	Dirección del viento	6.44
79799	7	Sololá	702	San José Chacayá	5	Chacayá	2	Febrero	2023-02-20T00:00:00	2024-11-06T15:00:00	1	Precipitación	0
79800	7	Sololá	702	San José Chacayá	5	Chacayá	2	Febrero	2023-02-20T00:00:00	2024-11-06T15:00:00	8	Radiación solar	786
79801	7	Sololá	702	San José Chacayá	5	Chacayá	2	Febrero	2023-02-20T00:00:00	2024-11-06T16:00:00	2	Temperatura media	18.9
79802	7	Sololá	702	San José Chacayá	5	Chacayá	2	Febrero	2023-02-20T00:00:00	2024-11-06T16:00:00	4	Temperatura máxima	20.5
79803	7	Sololá	702	San José Chacayá	5	Chacayá	2	Febrero	2023-02-20T00:00:00	2024-11-06T16:00:00	3	Temperatura mínima	18.9
79804	7	Sololá	702	San José Chacayá	5	Chacayá	2	Febrero	2023-02-20T00:00:00	2024-11-06T16:00:00	5	Humedad	47
79805	7	Sololá	702	San José Chacayá	5	Chacayá	2	Febrero	2023-02-20T00:00:00	2024-11-06T16:00:00	6	Velocidad del viento	6.4
79806	7	Sololá	702	San José Chacayá	5	Chacayá	2	Febrero	2023-02-20T00:00:00	2024-11-06T16:00:00	7	Dirección del viento	6.44
79807	7	Sololá	702	San José Chacayá	5	Chacayá	2	Febrero	2023-02-20T00:00:00	2024-11-06T16:00:00	1	Precipitación	0
79808	7	Sololá	702	San José Chacayá	5	Chacayá	2	Febrero	2023-02-20T00:00:00	2024-11-06T16:00:00	8	Radiación solar	552
79809	7	Sololá	702	San José Chacayá	5	Chacayá	2	Febrero	2023-02-20T00:00:00	2024-11-06T17:00:00	2	Temperatura media	17.3
79810	7	Sololá	702	San José Chacayá	5	Chacayá	2	Febrero	2023-02-20T00:00:00	2024-11-06T17:00:00	4	Temperatura máxima	19.3
79811	7	Sololá	702	San José Chacayá	5	Chacayá	2	Febrero	2023-02-20T00:00:00	2024-11-06T17:00:00	3	Temperatura mínima	17.3
79812	7	Sololá	702	San José Chacayá	5	Chacayá	2	Febrero	2023-02-20T00:00:00	2024-11-06T17:00:00	5	Humedad	53
79813	7	Sololá	702	San José Chacayá	5	Chacayá	2	Febrero	2023-02-20T00:00:00	2024-11-06T17:00:00	6	Velocidad del viento	4.8
79814	7	Sololá	702	San José Chacayá	5	Chacayá	2	Febrero	2023-02-20T00:00:00	2024-11-06T17:00:00	7	Dirección del viento	4.83
79815	7	Sololá	702	San José Chacayá	5	Chacayá	2	Febrero	2023-02-20T00:00:00	2024-11-06T17:00:00	1	Precipitación	0
79816	7	Sololá	702	San José Chacayá	5	Chacayá	2	Febrero	2023-02-20T00:00:00	2024-11-06T17:00:00	8	Radiación solar	353
79817	7	Sololá	702	San José Chacayá	5	Chacayá	2	Febrero	2023-02-20T00:00:00	2024-11-06T18:00:00	2	Temperatura media	14.3
79818	7	Sololá	702	San José Chacayá	5	Chacayá	2	Febrero	2023-02-20T00:00:00	2024-11-06T18:00:00	4	Temperatura máxima	17.3
79819	7	Sololá	702	San José Chacayá	5	Chacayá	2	Febrero	2023-02-20T00:00:00	2024-11-06T18:00:00	3	Temperatura mínima	14.3
79820	7	Sololá	702	San José Chacayá	5	Chacayá	2	Febrero	2023-02-20T00:00:00	2024-11-06T18:00:00	5	Humedad	66
79821	7	Sololá	702	San José Chacayá	5	Chacayá	2	Febrero	2023-02-20T00:00:00	2024-11-06T18:00:00	6	Velocidad del viento	6.4
79822	7	Sololá	702	San José Chacayá	5	Chacayá	2	Febrero	2023-02-20T00:00:00	2024-11-06T18:00:00	7	Dirección del viento	6.44
79823	7	Sololá	702	San José Chacayá	5	Chacayá	2	Febrero	2023-02-20T00:00:00	2024-11-06T18:00:00	1	Precipitación	0
79824	7	Sololá	702	San José Chacayá	5	Chacayá	2	Febrero	2023-02-20T00:00:00	2024-11-06T18:00:00	8	Radiación solar	65
79825	7	Sololá	702	San José Chacayá	5	Chacayá	2	Febrero	2023-02-20T00:00:00	2024-11-06T19:00:00	2	Temperatura media	13
79826	7	Sololá	702	San José Chacayá	5	Chacayá	2	Febrero	2023-02-20T00:00:00	2024-11-06T19:00:00	4	Temperatura máxima	14.3
79827	7	Sololá	702	San José Chacayá	5	Chacayá	2	Febrero	2023-02-20T00:00:00	2024-11-06T19:00:00	3	Temperatura mínima	13
79828	7	Sololá	702	San José Chacayá	5	Chacayá	2	Febrero	2023-02-20T00:00:00	2024-11-06T19:00:00	5	Humedad	73
79829	7	Sololá	702	San José Chacayá	5	Chacayá	2	Febrero	2023-02-20T00:00:00	2024-11-06T19:00:00	6	Velocidad del viento	6.4
79830	7	Sololá	702	San José Chacayá	5	Chacayá	2	Febrero	2023-02-20T00:00:00	2024-11-06T19:00:00	7	Dirección del viento	6.44
79831	7	Sololá	702	San José Chacayá	5	Chacayá	2	Febrero	2023-02-20T00:00:00	2024-11-06T19:00:00	1	Precipitación	0
79832	7	Sololá	702	San José Chacayá	5	Chacayá	2	Febrero	2023-02-20T00:00:00	2024-11-06T19:00:00	8	Radiación solar	1
79833	7	Sololá	702	San José Chacayá	5	Chacayá	2	Febrero	2023-02-20T00:00:00	2024-11-06T20:00:00	2	Temperatura media	12.1
79834	7	Sololá	702	San José Chacayá	5	Chacayá	2	Febrero	2023-02-20T00:00:00	2024-11-06T20:00:00	4	Temperatura máxima	13
79835	7	Sololá	702	San José Chacayá	5	Chacayá	2	Febrero	2023-02-20T00:00:00	2024-11-06T20:00:00	3	Temperatura mínima	12.1
79836	7	Sololá	702	San José Chacayá	5	Chacayá	2	Febrero	2023-02-20T00:00:00	2024-11-06T20:00:00	5	Humedad	73
79837	7	Sololá	702	San José Chacayá	5	Chacayá	2	Febrero	2023-02-20T00:00:00	2024-11-06T20:00:00	6	Velocidad del viento	3.2
79838	7	Sololá	702	San José Chacayá	5	Chacayá	2	Febrero	2023-02-20T00:00:00	2024-11-06T20:00:00	7	Dirección del viento	3.22
79839	7	Sololá	702	San José Chacayá	5	Chacayá	2	Febrero	2023-02-20T00:00:00	2024-11-06T20:00:00	1	Precipitación	0
79840	7	Sololá	702	San José Chacayá	5	Chacayá	2	Febrero	2023-02-20T00:00:00	2024-11-06T20:00:00	8	Radiación solar	0
79841	7	Sololá	702	San José Chacayá	5	Chacayá	2	Febrero	2023-02-20T00:00:00	2024-11-06T21:00:00	2	Temperatura media	10.4
79842	7	Sololá	702	San José Chacayá	5	Chacayá	2	Febrero	2023-02-20T00:00:00	2024-11-06T21:00:00	4	Temperatura máxima	12.1
79843	7	Sololá	702	San José Chacayá	5	Chacayá	2	Febrero	2023-02-20T00:00:00	2024-11-06T21:00:00	3	Temperatura mínima	10.4
79844	7	Sololá	702	San José Chacayá	5	Chacayá	2	Febrero	2023-02-20T00:00:00	2024-11-06T21:00:00	5	Humedad	78
79845	7	Sololá	702	San José Chacayá	5	Chacayá	2	Febrero	2023-02-20T00:00:00	2024-11-06T21:00:00	6	Velocidad del viento	1.6
79846	7	Sololá	702	San José Chacayá	5	Chacayá	2	Febrero	2023-02-20T00:00:00	2024-11-06T21:00:00	7	Dirección del viento	1.61
79847	7	Sololá	702	San José Chacayá	5	Chacayá	2	Febrero	2023-02-20T00:00:00	2024-11-06T21:00:00	1	Precipitación	0
79848	7	Sololá	702	San José Chacayá	5	Chacayá	2	Febrero	2023-02-20T00:00:00	2024-11-06T21:00:00	8	Radiación solar	0
79849	7	Sololá	702	San José Chacayá	5	Chacayá	2	Febrero	2023-02-20T00:00:00	2024-11-06T22:00:00	2	Temperatura media	8.3
79850	7	Sololá	702	San José Chacayá	5	Chacayá	2	Febrero	2023-02-20T00:00:00	2024-11-06T22:00:00	4	Temperatura máxima	10.4
79851	7	Sololá	702	San José Chacayá	5	Chacayá	2	Febrero	2023-02-20T00:00:00	2024-11-06T22:00:00	3	Temperatura mínima	8.3
79852	7	Sololá	702	San José Chacayá	5	Chacayá	2	Febrero	2023-02-20T00:00:00	2024-11-06T22:00:00	5	Humedad	82
79853	7	Sololá	702	San José Chacayá	5	Chacayá	2	Febrero	2023-02-20T00:00:00	2024-11-06T22:00:00	6	Velocidad del viento	1.6
79854	7	Sololá	702	San José Chacayá	5	Chacayá	2	Febrero	2023-02-20T00:00:00	2024-11-06T22:00:00	7	Dirección del viento	1.61
79855	7	Sololá	702	San José Chacayá	5	Chacayá	2	Febrero	2023-02-20T00:00:00	2024-11-06T22:00:00	1	Precipitación	0
79856	7	Sololá	702	San José Chacayá	5	Chacayá	2	Febrero	2023-02-20T00:00:00	2024-11-06T22:00:00	8	Radiación solar	0
79857	7	Sololá	702	San José Chacayá	5	Chacayá	2	Febrero	2023-02-20T00:00:00	2024-11-06T23:00:00	2	Temperatura media	8
79858	7	Sololá	702	San José Chacayá	5	Chacayá	2	Febrero	2023-02-20T00:00:00	2024-11-06T23:00:00	4	Temperatura máxima	8.3
79859	7	Sololá	702	San José Chacayá	5	Chacayá	2	Febrero	2023-02-20T00:00:00	2024-11-06T23:00:00	3	Temperatura mínima	8
79860	7	Sololá	702	San José Chacayá	5	Chacayá	2	Febrero	2023-02-20T00:00:00	2024-11-06T23:00:00	5	Humedad	82
79861	7	Sololá	702	San José Chacayá	5	Chacayá	2	Febrero	2023-02-20T00:00:00	2024-11-06T23:00:00	6	Velocidad del viento	3.2
79862	7	Sololá	702	San José Chacayá	5	Chacayá	2	Febrero	2023-02-20T00:00:00	2024-11-06T23:00:00	7	Dirección del viento	3.22
79863	7	Sololá	702	San José Chacayá	5	Chacayá	2	Febrero	2023-02-20T00:00:00	2024-11-06T23:00:00	1	Precipitación	0
79864	7	Sololá	702	San José Chacayá	5	Chacayá	2	Febrero	2023-02-20T00:00:00	2024-11-06T23:00:00	8	Radiación solar	0
79865	7	Sololá	702	San José Chacayá	5	Chacayá	2	Febrero	2023-02-21T00:00:00	2024-11-06T00:00:00	2	Temperatura media	7.4
79866	7	Sololá	702	San José Chacayá	5	Chacayá	2	Febrero	2023-02-21T00:00:00	2024-11-06T00:00:00	4	Temperatura máxima	8
79867	7	Sololá	702	San José Chacayá	5	Chacayá	2	Febrero	2023-02-21T00:00:00	2024-11-06T00:00:00	3	Temperatura mínima	7.4
79868	7	Sololá	702	San José Chacayá	5	Chacayá	2	Febrero	2023-02-21T00:00:00	2024-11-06T00:00:00	5	Humedad	82
79869	7	Sololá	702	San José Chacayá	5	Chacayá	2	Febrero	2023-02-21T00:00:00	2024-11-06T00:00:00	6	Velocidad del viento	3.2
79870	7	Sololá	702	San José Chacayá	5	Chacayá	2	Febrero	2023-02-21T00:00:00	2024-11-06T00:00:00	7	Dirección del viento	3.22
79871	7	Sololá	702	San José Chacayá	5	Chacayá	2	Febrero	2023-02-21T00:00:00	2024-11-06T00:00:00	1	Precipitación	0
79872	7	Sololá	702	San José Chacayá	5	Chacayá	2	Febrero	2023-02-21T00:00:00	2024-11-06T00:00:00	8	Radiación solar	0
79873	7	Sololá	702	San José Chacayá	5	Chacayá	2	Febrero	2023-02-21T00:00:00	2024-11-06T01:00:00	2	Temperatura media	7.4
79874	7	Sololá	702	San José Chacayá	5	Chacayá	2	Febrero	2023-02-21T00:00:00	2024-11-06T01:00:00	4	Temperatura máxima	7.6
79875	7	Sololá	702	San José Chacayá	5	Chacayá	2	Febrero	2023-02-21T00:00:00	2024-11-06T01:00:00	3	Temperatura mínima	7.3
79876	7	Sololá	702	San José Chacayá	5	Chacayá	2	Febrero	2023-02-21T00:00:00	2024-11-06T01:00:00	5	Humedad	82
79877	7	Sololá	702	San José Chacayá	5	Chacayá	2	Febrero	2023-02-21T00:00:00	2024-11-06T01:00:00	6	Velocidad del viento	4.8
79878	7	Sololá	702	San José Chacayá	5	Chacayá	2	Febrero	2023-02-21T00:00:00	2024-11-06T01:00:00	7	Dirección del viento	4.83
79879	7	Sololá	702	San José Chacayá	5	Chacayá	2	Febrero	2023-02-21T00:00:00	2024-11-06T01:00:00	1	Precipitación	0
79880	7	Sololá	702	San José Chacayá	5	Chacayá	2	Febrero	2023-02-21T00:00:00	2024-11-06T01:00:00	8	Radiación solar	0
79881	7	Sololá	702	San José Chacayá	5	Chacayá	2	Febrero	2023-02-21T00:00:00	2024-11-06T02:00:00	2	Temperatura media	7.5
79882	7	Sololá	702	San José Chacayá	5	Chacayá	2	Febrero	2023-02-21T00:00:00	2024-11-06T02:00:00	4	Temperatura máxima	7.6
79883	7	Sololá	702	San José Chacayá	5	Chacayá	2	Febrero	2023-02-21T00:00:00	2024-11-06T02:00:00	3	Temperatura mínima	7.4
79884	7	Sololá	702	San José Chacayá	5	Chacayá	2	Febrero	2023-02-21T00:00:00	2024-11-06T02:00:00	5	Humedad	83
79885	7	Sololá	702	San José Chacayá	5	Chacayá	2	Febrero	2023-02-21T00:00:00	2024-11-06T02:00:00	6	Velocidad del viento	3.2
79886	7	Sololá	702	San José Chacayá	5	Chacayá	2	Febrero	2023-02-21T00:00:00	2024-11-06T02:00:00	7	Dirección del viento	3.22
79887	7	Sololá	702	San José Chacayá	5	Chacayá	2	Febrero	2023-02-21T00:00:00	2024-11-06T02:00:00	1	Precipitación	0
79888	7	Sololá	702	San José Chacayá	5	Chacayá	2	Febrero	2023-02-21T00:00:00	2024-11-06T02:00:00	8	Radiación solar	0
79889	7	Sololá	702	San José Chacayá	5	Chacayá	2	Febrero	2023-02-21T00:00:00	2024-11-06T03:00:00	2	Temperatura media	7.2
79890	7	Sololá	702	San José Chacayá	5	Chacayá	2	Febrero	2023-02-21T00:00:00	2024-11-06T03:00:00	4	Temperatura máxima	7.7
79891	7	Sololá	702	San José Chacayá	5	Chacayá	2	Febrero	2023-02-21T00:00:00	2024-11-06T03:00:00	3	Temperatura mínima	7.2
79892	7	Sololá	702	San José Chacayá	5	Chacayá	2	Febrero	2023-02-21T00:00:00	2024-11-06T03:00:00	5	Humedad	83
79893	7	Sololá	702	San José Chacayá	5	Chacayá	2	Febrero	2023-02-21T00:00:00	2024-11-06T03:00:00	6	Velocidad del viento	4.8
79894	7	Sololá	702	San José Chacayá	5	Chacayá	2	Febrero	2023-02-21T00:00:00	2024-11-06T03:00:00	7	Dirección del viento	4.83
79895	7	Sololá	702	San José Chacayá	5	Chacayá	2	Febrero	2023-02-21T00:00:00	2024-11-06T03:00:00	1	Precipitación	0
79896	7	Sololá	702	San José Chacayá	5	Chacayá	2	Febrero	2023-02-21T00:00:00	2024-11-06T03:00:00	8	Radiación solar	0
79897	7	Sololá	702	San José Chacayá	5	Chacayá	2	Febrero	2023-02-21T00:00:00	2024-11-06T04:00:00	2	Temperatura media	7.6
79898	7	Sololá	702	San José Chacayá	5	Chacayá	2	Febrero	2023-02-21T00:00:00	2024-11-06T04:00:00	4	Temperatura máxima	7.6
79899	7	Sololá	702	San José Chacayá	5	Chacayá	2	Febrero	2023-02-21T00:00:00	2024-11-06T04:00:00	3	Temperatura mínima	7.1
79900	7	Sololá	702	San José Chacayá	5	Chacayá	2	Febrero	2023-02-21T00:00:00	2024-11-06T04:00:00	5	Humedad	83
79901	7	Sololá	702	San José Chacayá	5	Chacayá	2	Febrero	2023-02-21T00:00:00	2024-11-06T04:00:00	6	Velocidad del viento	6.4
79902	7	Sololá	702	San José Chacayá	5	Chacayá	2	Febrero	2023-02-21T00:00:00	2024-11-06T04:00:00	7	Dirección del viento	6.44
79903	7	Sololá	702	San José Chacayá	5	Chacayá	2	Febrero	2023-02-21T00:00:00	2024-11-06T04:00:00	1	Precipitación	0
79904	7	Sololá	702	San José Chacayá	5	Chacayá	2	Febrero	2023-02-21T00:00:00	2024-11-06T04:00:00	8	Radiación solar	0
79905	7	Sololá	702	San José Chacayá	5	Chacayá	2	Febrero	2023-02-21T00:00:00	2024-11-06T05:00:00	2	Temperatura media	7.4
79906	7	Sololá	702	San José Chacayá	5	Chacayá	2	Febrero	2023-02-21T00:00:00	2024-11-06T05:00:00	4	Temperatura máxima	7.7
79907	7	Sololá	702	San José Chacayá	5	Chacayá	2	Febrero	2023-02-21T00:00:00	2024-11-06T05:00:00	3	Temperatura mínima	7.3
79908	7	Sololá	702	San José Chacayá	5	Chacayá	2	Febrero	2023-02-21T00:00:00	2024-11-06T05:00:00	5	Humedad	84
79909	7	Sololá	702	San José Chacayá	5	Chacayá	2	Febrero	2023-02-21T00:00:00	2024-11-06T05:00:00	6	Velocidad del viento	4.8
79910	7	Sololá	702	San José Chacayá	5	Chacayá	2	Febrero	2023-02-21T00:00:00	2024-11-06T05:00:00	7	Dirección del viento	4.83
79911	7	Sololá	702	San José Chacayá	5	Chacayá	2	Febrero	2023-02-21T00:00:00	2024-11-06T05:00:00	1	Precipitación	0
79912	7	Sololá	702	San José Chacayá	5	Chacayá	2	Febrero	2023-02-21T00:00:00	2024-11-06T05:00:00	8	Radiación solar	0
79913	7	Sololá	702	San José Chacayá	5	Chacayá	2	Febrero	2023-02-21T00:00:00	2024-11-06T06:00:00	2	Temperatura media	7.6
79914	7	Sololá	702	San José Chacayá	5	Chacayá	2	Febrero	2023-02-21T00:00:00	2024-11-06T06:00:00	4	Temperatura máxima	7.9
79915	7	Sololá	702	San José Chacayá	5	Chacayá	2	Febrero	2023-02-21T00:00:00	2024-11-06T06:00:00	3	Temperatura mínima	7.4
79916	7	Sololá	702	San José Chacayá	5	Chacayá	2	Febrero	2023-02-21T00:00:00	2024-11-06T06:00:00	5	Humedad	84
79917	7	Sololá	702	San José Chacayá	5	Chacayá	2	Febrero	2023-02-21T00:00:00	2024-11-06T06:00:00	6	Velocidad del viento	4.8
79918	7	Sololá	702	San José Chacayá	5	Chacayá	2	Febrero	2023-02-21T00:00:00	2024-11-06T06:00:00	7	Dirección del viento	4.83
79919	7	Sololá	702	San José Chacayá	5	Chacayá	2	Febrero	2023-02-21T00:00:00	2024-11-06T06:00:00	1	Precipitación	0
79920	7	Sololá	702	San José Chacayá	5	Chacayá	2	Febrero	2023-02-21T00:00:00	2024-11-06T06:00:00	8	Radiación solar	0
79921	7	Sololá	702	San José Chacayá	5	Chacayá	2	Febrero	2023-02-21T00:00:00	2024-11-06T07:00:00	2	Temperatura media	8.4
79922	7	Sololá	702	San José Chacayá	5	Chacayá	2	Febrero	2023-02-21T00:00:00	2024-11-06T07:00:00	4	Temperatura máxima	8.4
79923	7	Sololá	702	San José Chacayá	5	Chacayá	2	Febrero	2023-02-21T00:00:00	2024-11-06T07:00:00	3	Temperatura mínima	7.3
79924	7	Sololá	702	San José Chacayá	5	Chacayá	2	Febrero	2023-02-21T00:00:00	2024-11-06T07:00:00	5	Humedad	84
79925	7	Sololá	702	San José Chacayá	5	Chacayá	2	Febrero	2023-02-21T00:00:00	2024-11-06T07:00:00	6	Velocidad del viento	3.2
79926	7	Sololá	702	San José Chacayá	5	Chacayá	2	Febrero	2023-02-21T00:00:00	2024-11-06T07:00:00	7	Dirección del viento	3.22
79927	7	Sololá	702	San José Chacayá	5	Chacayá	2	Febrero	2023-02-21T00:00:00	2024-11-06T07:00:00	1	Precipitación	0
79928	7	Sololá	702	San José Chacayá	5	Chacayá	2	Febrero	2023-02-21T00:00:00	2024-11-06T07:00:00	8	Radiación solar	21
79929	7	Sololá	702	San José Chacayá	5	Chacayá	2	Febrero	2023-02-21T00:00:00	2024-11-06T08:00:00	2	Temperatura media	13.1
79930	7	Sololá	702	San José Chacayá	5	Chacayá	2	Febrero	2023-02-21T00:00:00	2024-11-06T08:00:00	4	Temperatura máxima	13.1
79931	7	Sololá	702	San José Chacayá	5	Chacayá	2	Febrero	2023-02-21T00:00:00	2024-11-06T08:00:00	3	Temperatura mínima	8.4
79932	7	Sololá	702	San José Chacayá	5	Chacayá	2	Febrero	2023-02-21T00:00:00	2024-11-06T08:00:00	5	Humedad	77
79933	7	Sololá	702	San José Chacayá	5	Chacayá	2	Febrero	2023-02-21T00:00:00	2024-11-06T08:00:00	6	Velocidad del viento	1.6
79934	7	Sololá	702	San José Chacayá	5	Chacayá	2	Febrero	2023-02-21T00:00:00	2024-11-06T08:00:00	7	Dirección del viento	1.61
79935	7	Sololá	702	San José Chacayá	5	Chacayá	2	Febrero	2023-02-21T00:00:00	2024-11-06T08:00:00	1	Precipitación	0
79936	7	Sololá	702	San José Chacayá	5	Chacayá	2	Febrero	2023-02-21T00:00:00	2024-11-06T08:00:00	8	Radiación solar	174
79937	7	Sololá	702	San José Chacayá	5	Chacayá	2	Febrero	2023-02-21T00:00:00	2024-11-06T09:00:00	2	Temperatura media	17.7
79938	7	Sololá	702	San José Chacayá	5	Chacayá	2	Febrero	2023-02-21T00:00:00	2024-11-06T09:00:00	4	Temperatura máxima	17.7
79939	7	Sololá	702	San José Chacayá	5	Chacayá	2	Febrero	2023-02-21T00:00:00	2024-11-06T09:00:00	3	Temperatura mínima	13.1
79940	7	Sololá	702	San José Chacayá	5	Chacayá	2	Febrero	2023-02-21T00:00:00	2024-11-06T09:00:00	5	Humedad	61
79941	7	Sololá	702	San José Chacayá	5	Chacayá	2	Febrero	2023-02-21T00:00:00	2024-11-06T09:00:00	6	Velocidad del viento	1.6
79942	7	Sololá	702	San José Chacayá	5	Chacayá	2	Febrero	2023-02-21T00:00:00	2024-11-06T09:00:00	7	Dirección del viento	1.61
79943	7	Sololá	702	San José Chacayá	5	Chacayá	2	Febrero	2023-02-21T00:00:00	2024-11-06T09:00:00	1	Precipitación	0
79944	7	Sololá	702	San José Chacayá	5	Chacayá	2	Febrero	2023-02-21T00:00:00	2024-11-06T09:00:00	8	Radiación solar	346
79945	7	Sololá	702	San José Chacayá	5	Chacayá	2	Febrero	2023-02-21T00:00:00	2024-11-06T10:00:00	2	Temperatura media	18.8
79946	7	Sololá	702	San José Chacayá	5	Chacayá	2	Febrero	2023-02-21T00:00:00	2024-11-06T10:00:00	4	Temperatura máxima	18.9
79947	7	Sololá	702	San José Chacayá	5	Chacayá	2	Febrero	2023-02-21T00:00:00	2024-11-06T10:00:00	3	Temperatura mínima	17.7
79948	7	Sololá	702	San José Chacayá	5	Chacayá	2	Febrero	2023-02-21T00:00:00	2024-11-06T10:00:00	5	Humedad	59
79949	7	Sololá	702	San José Chacayá	5	Chacayá	2	Febrero	2023-02-21T00:00:00	2024-11-06T10:00:00	6	Velocidad del viento	3.2
79950	7	Sololá	702	San José Chacayá	5	Chacayá	2	Febrero	2023-02-21T00:00:00	2024-11-06T10:00:00	7	Dirección del viento	3.22
79951	7	Sololá	702	San José Chacayá	5	Chacayá	2	Febrero	2023-02-21T00:00:00	2024-11-06T10:00:00	1	Precipitación	0
79952	7	Sololá	702	San José Chacayá	5	Chacayá	2	Febrero	2023-02-21T00:00:00	2024-11-06T10:00:00	8	Radiación solar	662
79953	7	Sololá	702	San José Chacayá	5	Chacayá	2	Febrero	2023-02-21T00:00:00	2024-11-06T11:00:00	2	Temperatura media	20.7
79954	7	Sololá	702	San José Chacayá	5	Chacayá	2	Febrero	2023-02-21T00:00:00	2024-11-06T11:00:00	4	Temperatura máxima	20.7
79955	7	Sololá	702	San José Chacayá	5	Chacayá	2	Febrero	2023-02-21T00:00:00	2024-11-06T11:00:00	3	Temperatura mínima	18.8
79956	7	Sololá	702	San José Chacayá	5	Chacayá	2	Febrero	2023-02-21T00:00:00	2024-11-06T11:00:00	5	Humedad	52
79957	7	Sololá	702	San José Chacayá	5	Chacayá	2	Febrero	2023-02-21T00:00:00	2024-11-06T11:00:00	6	Velocidad del viento	4.8
79958	7	Sololá	702	San José Chacayá	5	Chacayá	2	Febrero	2023-02-21T00:00:00	2024-11-06T11:00:00	7	Dirección del viento	4.83
79959	7	Sololá	702	San José Chacayá	5	Chacayá	2	Febrero	2023-02-21T00:00:00	2024-11-06T11:00:00	1	Precipitación	0
79960	7	Sololá	702	San José Chacayá	5	Chacayá	2	Febrero	2023-02-21T00:00:00	2024-11-06T11:00:00	8	Radiación solar	876
79961	7	Sololá	702	San José Chacayá	5	Chacayá	2	Febrero	2023-02-21T00:00:00	2024-11-06T12:00:00	2	Temperatura media	21
79962	7	Sololá	702	San José Chacayá	5	Chacayá	2	Febrero	2023-02-21T00:00:00	2024-11-06T12:00:00	4	Temperatura máxima	21
79963	7	Sololá	702	San José Chacayá	5	Chacayá	2	Febrero	2023-02-21T00:00:00	2024-11-06T12:00:00	3	Temperatura mínima	20.1
79964	7	Sololá	702	San José Chacayá	5	Chacayá	2	Febrero	2023-02-21T00:00:00	2024-11-06T12:00:00	5	Humedad	50
79965	7	Sololá	702	San José Chacayá	5	Chacayá	2	Febrero	2023-02-21T00:00:00	2024-11-06T12:00:00	6	Velocidad del viento	6.4
79966	7	Sololá	702	San José Chacayá	5	Chacayá	2	Febrero	2023-02-21T00:00:00	2024-11-06T12:00:00	7	Dirección del viento	6.44
79967	7	Sololá	702	San José Chacayá	5	Chacayá	2	Febrero	2023-02-21T00:00:00	2024-11-06T12:00:00	1	Precipitación	0
79968	7	Sololá	702	San José Chacayá	5	Chacayá	2	Febrero	2023-02-21T00:00:00	2024-11-06T12:00:00	8	Radiación solar	898
79969	7	Sololá	702	San José Chacayá	5	Chacayá	2	Febrero	2023-02-21T00:00:00	2024-11-06T13:00:00	2	Temperatura media	21.4
79970	7	Sololá	702	San José Chacayá	5	Chacayá	2	Febrero	2023-02-21T00:00:00	2024-11-06T13:00:00	4	Temperatura máxima	21.9
79971	7	Sololá	702	San José Chacayá	5	Chacayá	2	Febrero	2023-02-21T00:00:00	2024-11-06T13:00:00	3	Temperatura mínima	20.6
79972	7	Sololá	702	San José Chacayá	5	Chacayá	2	Febrero	2023-02-21T00:00:00	2024-11-06T13:00:00	5	Humedad	49
79973	7	Sololá	702	San José Chacayá	5	Chacayá	2	Febrero	2023-02-21T00:00:00	2024-11-06T13:00:00	6	Velocidad del viento	6.4
79974	7	Sololá	702	San José Chacayá	5	Chacayá	2	Febrero	2023-02-21T00:00:00	2024-11-06T13:00:00	7	Dirección del viento	6.44
79975	7	Sololá	702	San José Chacayá	5	Chacayá	2	Febrero	2023-02-21T00:00:00	2024-11-06T13:00:00	1	Precipitación	0
79976	7	Sololá	702	San José Chacayá	5	Chacayá	2	Febrero	2023-02-21T00:00:00	2024-11-06T13:00:00	8	Radiación solar	955
79977	7	Sololá	702	San José Chacayá	5	Chacayá	2	Febrero	2023-02-21T00:00:00	2024-11-06T14:00:00	2	Temperatura media	20.1
79978	7	Sololá	702	San José Chacayá	5	Chacayá	2	Febrero	2023-02-21T00:00:00	2024-11-06T14:00:00	4	Temperatura máxima	21.4
79979	7	Sololá	702	San José Chacayá	5	Chacayá	2	Febrero	2023-02-21T00:00:00	2024-11-06T14:00:00	3	Temperatura mínima	20.1
79980	7	Sololá	702	San José Chacayá	5	Chacayá	2	Febrero	2023-02-21T00:00:00	2024-11-06T14:00:00	5	Humedad	61
79981	7	Sololá	702	San José Chacayá	5	Chacayá	2	Febrero	2023-02-21T00:00:00	2024-11-06T14:00:00	6	Velocidad del viento	8
79982	7	Sololá	702	San José Chacayá	5	Chacayá	2	Febrero	2023-02-21T00:00:00	2024-11-06T14:00:00	7	Dirección del viento	8.05
79983	7	Sololá	702	San José Chacayá	5	Chacayá	2	Febrero	2023-02-21T00:00:00	2024-11-06T14:00:00	1	Precipitación	0
79984	7	Sololá	702	San José Chacayá	5	Chacayá	2	Febrero	2023-02-21T00:00:00	2024-11-06T14:00:00	8	Radiación solar	915
79985	7	Sololá	702	San José Chacayá	5	Chacayá	2	Febrero	2023-02-21T00:00:00	2024-11-06T15:00:00	2	Temperatura media	18.9
79986	7	Sololá	702	San José Chacayá	5	Chacayá	2	Febrero	2023-02-21T00:00:00	2024-11-06T15:00:00	4	Temperatura máxima	20.2
79987	7	Sololá	702	San José Chacayá	5	Chacayá	2	Febrero	2023-02-21T00:00:00	2024-11-06T15:00:00	3	Temperatura mínima	18.9
79988	7	Sololá	702	San José Chacayá	5	Chacayá	2	Febrero	2023-02-21T00:00:00	2024-11-06T15:00:00	5	Humedad	66
79989	7	Sololá	702	San José Chacayá	5	Chacayá	2	Febrero	2023-02-21T00:00:00	2024-11-06T15:00:00	6	Velocidad del viento	8
79990	7	Sololá	702	San José Chacayá	5	Chacayá	2	Febrero	2023-02-21T00:00:00	2024-11-06T15:00:00	7	Dirección del viento	8.05
79991	7	Sololá	702	San José Chacayá	5	Chacayá	2	Febrero	2023-02-21T00:00:00	2024-11-06T15:00:00	1	Precipitación	0
79992	7	Sololá	702	San José Chacayá	5	Chacayá	2	Febrero	2023-02-21T00:00:00	2024-11-06T15:00:00	8	Radiación solar	731
79993	7	Sololá	702	San José Chacayá	5	Chacayá	2	Febrero	2023-02-21T00:00:00	2024-11-06T16:00:00	2	Temperatura media	19.1
79994	7	Sololá	702	San José Chacayá	5	Chacayá	2	Febrero	2023-02-21T00:00:00	2024-11-06T16:00:00	4	Temperatura máxima	19.6
79995	7	Sololá	702	San José Chacayá	5	Chacayá	2	Febrero	2023-02-21T00:00:00	2024-11-06T16:00:00	3	Temperatura mínima	18.9
79996	7	Sololá	702	San José Chacayá	5	Chacayá	2	Febrero	2023-02-21T00:00:00	2024-11-06T16:00:00	5	Humedad	67
79997	7	Sololá	702	San José Chacayá	5	Chacayá	2	Febrero	2023-02-21T00:00:00	2024-11-06T16:00:00	6	Velocidad del viento	4.8
79998	7	Sololá	702	San José Chacayá	5	Chacayá	2	Febrero	2023-02-21T00:00:00	2024-11-06T16:00:00	7	Dirección del viento	4.83
79999	7	Sololá	702	San José Chacayá	5	Chacayá	2	Febrero	2023-02-21T00:00:00	2024-11-06T16:00:00	1	Precipitación	0
80000	7	Sololá	702	San José Chacayá	5	Chacayá	2	Febrero	2023-02-21T00:00:00	2024-11-06T16:00:00	8	Radiación solar	524
80001	7	Sololá	702	San José Chacayá	5	Chacayá	2	Febrero	2023-02-21T00:00:00	2024-11-06T17:00:00	2	Temperatura media	18.1
80002	7	Sololá	702	San José Chacayá	5	Chacayá	2	Febrero	2023-02-21T00:00:00	2024-11-06T17:00:00	4	Temperatura máxima	19.1
80003	7	Sololá	702	San José Chacayá	5	Chacayá	2	Febrero	2023-02-21T00:00:00	2024-11-06T17:00:00	3	Temperatura mínima	17.8
80004	7	Sololá	702	San José Chacayá	5	Chacayá	2	Febrero	2023-02-21T00:00:00	2024-11-06T17:00:00	5	Humedad	72
80005	7	Sololá	702	San José Chacayá	5	Chacayá	2	Febrero	2023-02-21T00:00:00	2024-11-06T17:00:00	6	Velocidad del viento	3.2
80006	7	Sololá	702	San José Chacayá	5	Chacayá	2	Febrero	2023-02-21T00:00:00	2024-11-06T17:00:00	7	Dirección del viento	3.22
80007	7	Sololá	702	San José Chacayá	5	Chacayá	2	Febrero	2023-02-21T00:00:00	2024-11-06T17:00:00	1	Precipitación	0
80008	7	Sololá	702	San José Chacayá	5	Chacayá	2	Febrero	2023-02-21T00:00:00	2024-11-06T17:00:00	8	Radiación solar	307
80009	7	Sololá	702	San José Chacayá	5	Chacayá	2	Febrero	2023-02-21T00:00:00	2024-11-06T18:00:00	2	Temperatura media	15.8
80010	7	Sololá	702	San José Chacayá	5	Chacayá	2	Febrero	2023-02-21T00:00:00	2024-11-06T18:00:00	4	Temperatura máxima	18.1
80011	7	Sololá	702	San José Chacayá	5	Chacayá	2	Febrero	2023-02-21T00:00:00	2024-11-06T18:00:00	3	Temperatura mínima	15.8
80012	7	Sololá	702	San José Chacayá	5	Chacayá	2	Febrero	2023-02-21T00:00:00	2024-11-06T18:00:00	5	Humedad	82
80013	7	Sololá	702	San José Chacayá	5	Chacayá	2	Febrero	2023-02-21T00:00:00	2024-11-06T18:00:00	6	Velocidad del viento	0
80014	7	Sololá	702	San José Chacayá	5	Chacayá	2	Febrero	2023-02-21T00:00:00	2024-11-06T18:00:00	7	Dirección del viento	0
80015	7	Sololá	702	San José Chacayá	5	Chacayá	2	Febrero	2023-02-21T00:00:00	2024-11-06T18:00:00	1	Precipitación	0
80016	7	Sololá	702	San José Chacayá	5	Chacayá	2	Febrero	2023-02-21T00:00:00	2024-11-06T18:00:00	8	Radiación solar	64
80017	7	Sololá	702	San José Chacayá	5	Chacayá	2	Febrero	2023-02-21T00:00:00	2024-11-06T19:00:00	2	Temperatura media	15
80018	7	Sololá	702	San José Chacayá	5	Chacayá	2	Febrero	2023-02-21T00:00:00	2024-11-06T19:00:00	4	Temperatura máxima	15.8
80019	7	Sololá	702	San José Chacayá	5	Chacayá	2	Febrero	2023-02-21T00:00:00	2024-11-06T19:00:00	3	Temperatura mínima	14.9
80020	7	Sololá	702	San José Chacayá	5	Chacayá	2	Febrero	2023-02-21T00:00:00	2024-11-06T19:00:00	5	Humedad	82
80021	7	Sololá	702	San José Chacayá	5	Chacayá	2	Febrero	2023-02-21T00:00:00	2024-11-06T19:00:00	6	Velocidad del viento	0
80022	7	Sololá	702	San José Chacayá	5	Chacayá	2	Febrero	2023-02-21T00:00:00	2024-11-06T19:00:00	7	Dirección del viento	0
80023	7	Sololá	702	San José Chacayá	5	Chacayá	2	Febrero	2023-02-21T00:00:00	2024-11-06T19:00:00	1	Precipitación	0
80024	7	Sololá	702	San José Chacayá	5	Chacayá	2	Febrero	2023-02-21T00:00:00	2024-11-06T19:00:00	8	Radiación solar	1
80025	7	Sololá	702	San José Chacayá	5	Chacayá	2	Febrero	2023-02-21T00:00:00	2024-11-06T20:00:00	2	Temperatura media	13.8
80026	7	Sololá	702	San José Chacayá	5	Chacayá	2	Febrero	2023-02-21T00:00:00	2024-11-06T20:00:00	4	Temperatura máxima	15
80027	7	Sololá	702	San José Chacayá	5	Chacayá	2	Febrero	2023-02-21T00:00:00	2024-11-06T20:00:00	3	Temperatura mínima	13.8
80028	7	Sololá	702	San José Chacayá	5	Chacayá	2	Febrero	2023-02-21T00:00:00	2024-11-06T20:00:00	5	Humedad	82
80029	7	Sololá	702	San José Chacayá	5	Chacayá	2	Febrero	2023-02-21T00:00:00	2024-11-06T20:00:00	6	Velocidad del viento	0
80030	7	Sololá	702	San José Chacayá	5	Chacayá	2	Febrero	2023-02-21T00:00:00	2024-11-06T20:00:00	7	Dirección del viento	0
80031	7	Sololá	702	San José Chacayá	5	Chacayá	2	Febrero	2023-02-21T00:00:00	2024-11-06T20:00:00	1	Precipitación	0
80032	7	Sololá	702	San José Chacayá	5	Chacayá	2	Febrero	2023-02-21T00:00:00	2024-11-06T20:00:00	8	Radiación solar	0
80033	7	Sololá	702	San José Chacayá	5	Chacayá	2	Febrero	2023-02-21T00:00:00	2024-11-06T21:00:00	2	Temperatura media	12.6
80034	7	Sololá	702	San José Chacayá	5	Chacayá	2	Febrero	2023-02-21T00:00:00	2024-11-06T21:00:00	4	Temperatura máxima	13.8
80035	7	Sololá	702	San José Chacayá	5	Chacayá	2	Febrero	2023-02-21T00:00:00	2024-11-06T21:00:00	3	Temperatura mínima	12.6
80036	7	Sololá	702	San José Chacayá	5	Chacayá	2	Febrero	2023-02-21T00:00:00	2024-11-06T21:00:00	5	Humedad	82
80037	7	Sololá	702	San José Chacayá	5	Chacayá	2	Febrero	2023-02-21T00:00:00	2024-11-06T21:00:00	6	Velocidad del viento	1.6
80038	7	Sololá	702	San José Chacayá	5	Chacayá	2	Febrero	2023-02-21T00:00:00	2024-11-06T21:00:00	7	Dirección del viento	1.61
80039	7	Sololá	702	San José Chacayá	5	Chacayá	2	Febrero	2023-02-21T00:00:00	2024-11-06T21:00:00	1	Precipitación	0
80040	7	Sololá	702	San José Chacayá	5	Chacayá	2	Febrero	2023-02-21T00:00:00	2024-11-06T21:00:00	8	Radiación solar	0
80041	7	Sololá	702	San José Chacayá	5	Chacayá	2	Febrero	2023-02-21T00:00:00	2024-11-06T22:00:00	2	Temperatura media	11.6
80042	7	Sololá	702	San José Chacayá	5	Chacayá	2	Febrero	2023-02-21T00:00:00	2024-11-06T22:00:00	4	Temperatura máxima	12.6
80043	7	Sololá	702	San José Chacayá	5	Chacayá	2	Febrero	2023-02-21T00:00:00	2024-11-06T22:00:00	3	Temperatura mínima	11.6
80044	7	Sololá	702	San José Chacayá	5	Chacayá	2	Febrero	2023-02-21T00:00:00	2024-11-06T22:00:00	5	Humedad	83
80045	7	Sololá	702	San José Chacayá	5	Chacayá	2	Febrero	2023-02-21T00:00:00	2024-11-06T22:00:00	6	Velocidad del viento	4.8
80046	7	Sololá	702	San José Chacayá	5	Chacayá	2	Febrero	2023-02-21T00:00:00	2024-11-06T22:00:00	7	Dirección del viento	4.83
80047	7	Sololá	702	San José Chacayá	5	Chacayá	2	Febrero	2023-02-21T00:00:00	2024-11-06T22:00:00	1	Precipitación	0
80048	7	Sololá	702	San José Chacayá	5	Chacayá	2	Febrero	2023-02-21T00:00:00	2024-11-06T22:00:00	8	Radiación solar	0
80049	7	Sololá	702	San José Chacayá	5	Chacayá	2	Febrero	2023-02-21T00:00:00	2024-11-06T23:00:00	2	Temperatura media	11
80050	7	Sololá	702	San José Chacayá	5	Chacayá	2	Febrero	2023-02-21T00:00:00	2024-11-06T23:00:00	4	Temperatura máxima	11.6
80051	7	Sololá	702	San José Chacayá	5	Chacayá	2	Febrero	2023-02-21T00:00:00	2024-11-06T23:00:00	3	Temperatura mínima	11
80052	7	Sololá	702	San José Chacayá	5	Chacayá	2	Febrero	2023-02-21T00:00:00	2024-11-06T23:00:00	5	Humedad	83
80053	7	Sololá	702	San José Chacayá	5	Chacayá	2	Febrero	2023-02-21T00:00:00	2024-11-06T23:00:00	6	Velocidad del viento	3.2
80054	7	Sololá	702	San José Chacayá	5	Chacayá	2	Febrero	2023-02-21T00:00:00	2024-11-06T23:00:00	7	Dirección del viento	3.22
80055	7	Sololá	702	San José Chacayá	5	Chacayá	2	Febrero	2023-02-21T00:00:00	2024-11-06T23:00:00	1	Precipitación	0
80056	7	Sololá	702	San José Chacayá	5	Chacayá	2	Febrero	2023-02-21T00:00:00	2024-11-06T23:00:00	8	Radiación solar	0
80057	7	Sololá	702	San José Chacayá	5	Chacayá	2	Febrero	2023-02-22T00:00:00	2024-11-06T00:00:00	2	Temperatura media	11.3
80058	7	Sololá	702	San José Chacayá	5	Chacayá	2	Febrero	2023-02-22T00:00:00	2024-11-06T00:00:00	4	Temperatura máxima	11.3
80059	7	Sololá	702	San José Chacayá	5	Chacayá	2	Febrero	2023-02-22T00:00:00	2024-11-06T00:00:00	3	Temperatura mínima	10.8
80060	7	Sololá	702	San José Chacayá	5	Chacayá	2	Febrero	2023-02-22T00:00:00	2024-11-06T00:00:00	5	Humedad	82
80061	7	Sololá	702	San José Chacayá	5	Chacayá	2	Febrero	2023-02-22T00:00:00	2024-11-06T00:00:00	6	Velocidad del viento	3.2
80062	7	Sololá	702	San José Chacayá	5	Chacayá	2	Febrero	2023-02-22T00:00:00	2024-11-06T00:00:00	7	Dirección del viento	3.22
80063	7	Sololá	702	San José Chacayá	5	Chacayá	2	Febrero	2023-02-22T00:00:00	2024-11-06T00:00:00	1	Precipitación	0
80064	7	Sololá	702	San José Chacayá	5	Chacayá	2	Febrero	2023-02-22T00:00:00	2024-11-06T00:00:00	8	Radiación solar	0
80065	7	Sololá	702	San José Chacayá	5	Chacayá	2	Febrero	2023-02-22T00:00:00	2024-11-06T01:00:00	2	Temperatura media	11.8
80066	7	Sololá	702	San José Chacayá	5	Chacayá	2	Febrero	2023-02-22T00:00:00	2024-11-06T01:00:00	4	Temperatura máxima	11.8
80067	7	Sololá	702	San José Chacayá	5	Chacayá	2	Febrero	2023-02-22T00:00:00	2024-11-06T01:00:00	3	Temperatura mínima	11.3
80068	7	Sololá	702	San José Chacayá	5	Chacayá	2	Febrero	2023-02-22T00:00:00	2024-11-06T01:00:00	5	Humedad	82
80069	7	Sololá	702	San José Chacayá	5	Chacayá	2	Febrero	2023-02-22T00:00:00	2024-11-06T01:00:00	6	Velocidad del viento	3.2
80070	7	Sololá	702	San José Chacayá	5	Chacayá	2	Febrero	2023-02-22T00:00:00	2024-11-06T01:00:00	7	Dirección del viento	3.22
80071	7	Sololá	702	San José Chacayá	5	Chacayá	2	Febrero	2023-02-22T00:00:00	2024-11-06T01:00:00	1	Precipitación	0
80072	7	Sololá	702	San José Chacayá	5	Chacayá	2	Febrero	2023-02-22T00:00:00	2024-11-06T01:00:00	8	Radiación solar	0
80073	7	Sololá	702	San José Chacayá	5	Chacayá	2	Febrero	2023-02-22T00:00:00	2024-11-06T02:00:00	2	Temperatura media	11.3
80074	7	Sololá	702	San José Chacayá	5	Chacayá	2	Febrero	2023-02-22T00:00:00	2024-11-06T02:00:00	4	Temperatura máxima	11.8
80075	7	Sololá	702	San José Chacayá	5	Chacayá	2	Febrero	2023-02-22T00:00:00	2024-11-06T02:00:00	3	Temperatura mínima	11.2
80076	7	Sololá	702	San José Chacayá	5	Chacayá	2	Febrero	2023-02-22T00:00:00	2024-11-06T02:00:00	5	Humedad	83
80077	7	Sololá	702	San José Chacayá	5	Chacayá	2	Febrero	2023-02-22T00:00:00	2024-11-06T02:00:00	6	Velocidad del viento	3.2
80078	7	Sololá	702	San José Chacayá	5	Chacayá	2	Febrero	2023-02-22T00:00:00	2024-11-06T02:00:00	7	Dirección del viento	3.22
80079	7	Sololá	702	San José Chacayá	5	Chacayá	2	Febrero	2023-02-22T00:00:00	2024-11-06T02:00:00	1	Precipitación	0
80080	7	Sololá	702	San José Chacayá	5	Chacayá	2	Febrero	2023-02-22T00:00:00	2024-11-06T02:00:00	8	Radiación solar	0
80081	7	Sololá	702	San José Chacayá	5	Chacayá	2	Febrero	2023-02-22T00:00:00	2024-11-06T03:00:00	2	Temperatura media	10.8
80082	7	Sololá	702	San José Chacayá	5	Chacayá	2	Febrero	2023-02-22T00:00:00	2024-11-06T03:00:00	4	Temperatura máxima	11.3
80083	7	Sololá	702	San José Chacayá	5	Chacayá	2	Febrero	2023-02-22T00:00:00	2024-11-06T03:00:00	3	Temperatura mínima	10.8
80084	7	Sololá	702	San José Chacayá	5	Chacayá	2	Febrero	2023-02-22T00:00:00	2024-11-06T03:00:00	5	Humedad	83
80085	7	Sololá	702	San José Chacayá	5	Chacayá	2	Febrero	2023-02-22T00:00:00	2024-11-06T03:00:00	6	Velocidad del viento	0
80086	7	Sololá	702	San José Chacayá	5	Chacayá	2	Febrero	2023-02-22T00:00:00	2024-11-06T03:00:00	7	Dirección del viento	0
80087	7	Sololá	702	San José Chacayá	5	Chacayá	2	Febrero	2023-02-22T00:00:00	2024-11-06T03:00:00	1	Precipitación	0
80088	7	Sololá	702	San José Chacayá	5	Chacayá	2	Febrero	2023-02-22T00:00:00	2024-11-06T03:00:00	8	Radiación solar	0
80089	7	Sololá	702	San José Chacayá	5	Chacayá	2	Febrero	2023-02-22T00:00:00	2024-11-06T04:00:00	2	Temperatura media	10.8
80090	7	Sololá	702	San José Chacayá	5	Chacayá	2	Febrero	2023-02-22T00:00:00	2024-11-06T04:00:00	4	Temperatura máxima	10.8
80091	7	Sololá	702	San José Chacayá	5	Chacayá	2	Febrero	2023-02-22T00:00:00	2024-11-06T04:00:00	3	Temperatura mínima	10.7
80092	7	Sololá	702	San José Chacayá	5	Chacayá	2	Febrero	2023-02-22T00:00:00	2024-11-06T04:00:00	5	Humedad	82
80093	7	Sololá	702	San José Chacayá	5	Chacayá	2	Febrero	2023-02-22T00:00:00	2024-11-06T04:00:00	6	Velocidad del viento	0
80094	7	Sololá	702	San José Chacayá	5	Chacayá	2	Febrero	2023-02-22T00:00:00	2024-11-06T04:00:00	7	Dirección del viento	0
80095	7	Sololá	702	San José Chacayá	5	Chacayá	2	Febrero	2023-02-22T00:00:00	2024-11-06T04:00:00	1	Precipitación	0
80096	7	Sololá	702	San José Chacayá	5	Chacayá	2	Febrero	2023-02-22T00:00:00	2024-11-06T04:00:00	8	Radiación solar	0
80097	7	Sololá	702	San José Chacayá	5	Chacayá	2	Febrero	2023-02-22T00:00:00	2024-11-06T05:00:00	2	Temperatura media	10
80098	7	Sololá	702	San José Chacayá	5	Chacayá	2	Febrero	2023-02-22T00:00:00	2024-11-06T05:00:00	4	Temperatura máxima	10.8
80099	7	Sololá	702	San José Chacayá	5	Chacayá	2	Febrero	2023-02-22T00:00:00	2024-11-06T05:00:00	3	Temperatura mínima	9.9
80100	7	Sololá	702	San José Chacayá	5	Chacayá	2	Febrero	2023-02-22T00:00:00	2024-11-06T05:00:00	5	Humedad	81
80101	7	Sololá	702	San José Chacayá	5	Chacayá	2	Febrero	2023-02-22T00:00:00	2024-11-06T05:00:00	6	Velocidad del viento	1.6
80102	7	Sololá	702	San José Chacayá	5	Chacayá	2	Febrero	2023-02-22T00:00:00	2024-11-06T05:00:00	7	Dirección del viento	1.61
80103	7	Sololá	702	San José Chacayá	5	Chacayá	2	Febrero	2023-02-22T00:00:00	2024-11-06T05:00:00	1	Precipitación	0
80104	7	Sololá	702	San José Chacayá	5	Chacayá	2	Febrero	2023-02-22T00:00:00	2024-11-06T05:00:00	8	Radiación solar	0
80105	7	Sololá	702	San José Chacayá	5	Chacayá	2	Febrero	2023-02-22T00:00:00	2024-11-06T06:00:00	2	Temperatura media	9.8
80106	7	Sololá	702	San José Chacayá	5	Chacayá	2	Febrero	2023-02-22T00:00:00	2024-11-06T06:00:00	4	Temperatura máxima	10
80107	7	Sololá	702	San José Chacayá	5	Chacayá	2	Febrero	2023-02-22T00:00:00	2024-11-06T06:00:00	3	Temperatura mínima	9.8
80108	7	Sololá	702	San José Chacayá	5	Chacayá	2	Febrero	2023-02-22T00:00:00	2024-11-06T06:00:00	5	Humedad	80
80109	7	Sololá	702	San José Chacayá	5	Chacayá	2	Febrero	2023-02-22T00:00:00	2024-11-06T06:00:00	6	Velocidad del viento	1.6
80110	7	Sololá	702	San José Chacayá	5	Chacayá	2	Febrero	2023-02-22T00:00:00	2024-11-06T06:00:00	7	Dirección del viento	1.61
80111	7	Sololá	702	San José Chacayá	5	Chacayá	2	Febrero	2023-02-22T00:00:00	2024-11-06T06:00:00	1	Precipitación	0
80112	7	Sololá	702	San José Chacayá	5	Chacayá	2	Febrero	2023-02-22T00:00:00	2024-11-06T06:00:00	8	Radiación solar	0
80113	7	Sololá	702	San José Chacayá	5	Chacayá	2	Febrero	2023-02-22T00:00:00	2024-11-06T07:00:00	2	Temperatura media	10.4
80114	7	Sololá	702	San José Chacayá	5	Chacayá	2	Febrero	2023-02-22T00:00:00	2024-11-06T07:00:00	4	Temperatura máxima	10.4
80115	7	Sololá	702	San José Chacayá	5	Chacayá	2	Febrero	2023-02-22T00:00:00	2024-11-06T07:00:00	3	Temperatura mínima	9.8
80116	7	Sololá	702	San José Chacayá	5	Chacayá	2	Febrero	2023-02-22T00:00:00	2024-11-06T07:00:00	5	Humedad	78
80117	7	Sololá	702	San José Chacayá	5	Chacayá	2	Febrero	2023-02-22T00:00:00	2024-11-06T07:00:00	6	Velocidad del viento	1.6
80118	7	Sololá	702	San José Chacayá	5	Chacayá	2	Febrero	2023-02-22T00:00:00	2024-11-06T07:00:00	7	Dirección del viento	1.61
80119	7	Sololá	702	San José Chacayá	5	Chacayá	2	Febrero	2023-02-22T00:00:00	2024-11-06T07:00:00	1	Precipitación	0
80120	7	Sololá	702	San José Chacayá	5	Chacayá	2	Febrero	2023-02-22T00:00:00	2024-11-06T07:00:00	8	Radiación solar	27
80121	7	Sololá	702	San José Chacayá	5	Chacayá	2	Febrero	2023-02-22T00:00:00	2024-11-06T08:00:00	2	Temperatura media	14
80122	7	Sololá	702	San José Chacayá	5	Chacayá	2	Febrero	2023-02-22T00:00:00	2024-11-06T08:00:00	4	Temperatura máxima	14
80123	7	Sololá	702	San José Chacayá	5	Chacayá	2	Febrero	2023-02-22T00:00:00	2024-11-06T08:00:00	3	Temperatura mínima	10.4
80124	7	Sololá	702	San José Chacayá	5	Chacayá	2	Febrero	2023-02-22T00:00:00	2024-11-06T08:00:00	5	Humedad	83
80125	7	Sololá	702	San José Chacayá	5	Chacayá	2	Febrero	2023-02-22T00:00:00	2024-11-06T08:00:00	6	Velocidad del viento	0
80126	7	Sololá	702	San José Chacayá	5	Chacayá	2	Febrero	2023-02-22T00:00:00	2024-11-06T08:00:00	7	Dirección del viento	0
80127	7	Sololá	702	San José Chacayá	5	Chacayá	2	Febrero	2023-02-22T00:00:00	2024-11-06T08:00:00	1	Precipitación	0
80128	7	Sololá	702	San José Chacayá	5	Chacayá	2	Febrero	2023-02-22T00:00:00	2024-11-06T08:00:00	8	Radiación solar	139
80129	7	Sololá	702	San José Chacayá	5	Chacayá	2	Febrero	2023-02-22T00:00:00	2024-11-06T09:00:00	2	Temperatura media	16.3
80130	7	Sololá	702	San José Chacayá	5	Chacayá	2	Febrero	2023-02-22T00:00:00	2024-11-06T09:00:00	4	Temperatura máxima	16.3
80131	7	Sololá	702	San José Chacayá	5	Chacayá	2	Febrero	2023-02-22T00:00:00	2024-11-06T09:00:00	3	Temperatura mínima	14
80132	7	Sololá	702	San José Chacayá	5	Chacayá	2	Febrero	2023-02-22T00:00:00	2024-11-06T09:00:00	5	Humedad	77
80133	7	Sololá	702	San José Chacayá	5	Chacayá	2	Febrero	2023-02-22T00:00:00	2024-11-06T09:00:00	6	Velocidad del viento	3.2
80134	7	Sololá	702	San José Chacayá	5	Chacayá	2	Febrero	2023-02-22T00:00:00	2024-11-06T09:00:00	7	Dirección del viento	3.22
80135	7	Sololá	702	San José Chacayá	5	Chacayá	2	Febrero	2023-02-22T00:00:00	2024-11-06T09:00:00	1	Precipitación	0
80136	7	Sololá	702	San José Chacayá	5	Chacayá	2	Febrero	2023-02-22T00:00:00	2024-11-06T09:00:00	8	Radiación solar	257
80137	7	Sololá	702	San José Chacayá	5	Chacayá	2	Febrero	2023-02-22T00:00:00	2024-11-06T10:00:00	2	Temperatura media	16.7
80138	7	Sololá	702	San José Chacayá	5	Chacayá	2	Febrero	2023-02-22T00:00:00	2024-11-06T10:00:00	4	Temperatura máxima	16.8
80139	7	Sololá	702	San José Chacayá	5	Chacayá	2	Febrero	2023-02-22T00:00:00	2024-11-06T10:00:00	3	Temperatura mínima	16.2
80140	7	Sololá	702	San José Chacayá	5	Chacayá	2	Febrero	2023-02-22T00:00:00	2024-11-06T10:00:00	5	Humedad	79
80141	7	Sololá	702	San José Chacayá	5	Chacayá	2	Febrero	2023-02-22T00:00:00	2024-11-06T10:00:00	6	Velocidad del viento	3.2
80142	7	Sololá	702	San José Chacayá	5	Chacayá	2	Febrero	2023-02-22T00:00:00	2024-11-06T10:00:00	7	Dirección del viento	3.22
80143	7	Sololá	702	San José Chacayá	5	Chacayá	2	Febrero	2023-02-22T00:00:00	2024-11-06T10:00:00	1	Precipitación	0
80144	7	Sololá	702	San José Chacayá	5	Chacayá	2	Febrero	2023-02-22T00:00:00	2024-11-06T10:00:00	8	Radiación solar	266
80145	7	Sololá	702	San José Chacayá	5	Chacayá	2	Febrero	2023-02-22T00:00:00	2024-11-06T11:00:00	2	Temperatura media	17.4
80146	7	Sololá	702	San José Chacayá	5	Chacayá	2	Febrero	2023-02-22T00:00:00	2024-11-06T11:00:00	4	Temperatura máxima	17.4
80147	7	Sololá	702	San José Chacayá	5	Chacayá	2	Febrero	2023-02-22T00:00:00	2024-11-06T11:00:00	3	Temperatura mínima	16.6
80148	7	Sololá	702	San José Chacayá	5	Chacayá	2	Febrero	2023-02-22T00:00:00	2024-11-06T11:00:00	5	Humedad	74
80149	7	Sololá	702	San José Chacayá	5	Chacayá	2	Febrero	2023-02-22T00:00:00	2024-11-06T11:00:00	6	Velocidad del viento	4.8
80150	7	Sololá	702	San José Chacayá	5	Chacayá	2	Febrero	2023-02-22T00:00:00	2024-11-06T11:00:00	7	Dirección del viento	4.83
80151	7	Sololá	702	San José Chacayá	5	Chacayá	2	Febrero	2023-02-22T00:00:00	2024-11-06T11:00:00	1	Precipitación	0
80152	7	Sololá	702	San José Chacayá	5	Chacayá	2	Febrero	2023-02-22T00:00:00	2024-11-06T11:00:00	8	Radiación solar	299
80153	7	Sololá	702	San José Chacayá	5	Chacayá	2	Febrero	2023-02-22T00:00:00	2024-11-06T12:00:00	2	Temperatura media	19.7
80154	7	Sololá	702	San José Chacayá	5	Chacayá	2	Febrero	2023-02-22T00:00:00	2024-11-06T12:00:00	4	Temperatura máxima	19.7
80155	7	Sololá	702	San José Chacayá	5	Chacayá	2	Febrero	2023-02-22T00:00:00	2024-11-06T12:00:00	3	Temperatura mínima	17.4
80156	7	Sololá	702	San José Chacayá	5	Chacayá	2	Febrero	2023-02-22T00:00:00	2024-11-06T12:00:00	5	Humedad	58
80157	7	Sololá	702	San José Chacayá	5	Chacayá	2	Febrero	2023-02-22T00:00:00	2024-11-06T12:00:00	6	Velocidad del viento	6.4
80158	7	Sololá	702	San José Chacayá	5	Chacayá	2	Febrero	2023-02-22T00:00:00	2024-11-06T12:00:00	7	Dirección del viento	6.44
80159	7	Sololá	702	San José Chacayá	5	Chacayá	2	Febrero	2023-02-22T00:00:00	2024-11-06T12:00:00	1	Precipitación	0
80160	7	Sololá	702	San José Chacayá	5	Chacayá	2	Febrero	2023-02-22T00:00:00	2024-11-06T12:00:00	8	Radiación solar	890
80161	7	Sololá	702	San José Chacayá	5	Chacayá	2	Febrero	2023-02-22T00:00:00	2024-11-06T13:00:00	2	Temperatura media	18.3
80162	7	Sololá	702	San José Chacayá	5	Chacayá	2	Febrero	2023-02-22T00:00:00	2024-11-06T13:00:00	4	Temperatura máxima	19.8
80163	7	Sololá	702	San José Chacayá	5	Chacayá	2	Febrero	2023-02-22T00:00:00	2024-11-06T13:00:00	3	Temperatura mínima	18
80164	7	Sololá	702	San José Chacayá	5	Chacayá	2	Febrero	2023-02-22T00:00:00	2024-11-06T13:00:00	5	Humedad	67
80165	7	Sololá	702	San José Chacayá	5	Chacayá	2	Febrero	2023-02-22T00:00:00	2024-11-06T13:00:00	6	Velocidad del viento	8
80166	7	Sololá	702	San José Chacayá	5	Chacayá	2	Febrero	2023-02-22T00:00:00	2024-11-06T13:00:00	7	Dirección del viento	8.05
80167	7	Sololá	702	San José Chacayá	5	Chacayá	2	Febrero	2023-02-22T00:00:00	2024-11-06T13:00:00	1	Precipitación	0
80168	7	Sololá	702	San José Chacayá	5	Chacayá	2	Febrero	2023-02-22T00:00:00	2024-11-06T13:00:00	8	Radiación solar	736
80169	7	Sololá	702	San José Chacayá	5	Chacayá	2	Febrero	2023-02-22T00:00:00	2024-11-06T14:00:00	2	Temperatura media	19.6
80170	7	Sololá	702	San José Chacayá	5	Chacayá	2	Febrero	2023-02-22T00:00:00	2024-11-06T14:00:00	4	Temperatura máxima	19.8
80171	7	Sololá	702	San José Chacayá	5	Chacayá	2	Febrero	2023-02-22T00:00:00	2024-11-06T14:00:00	3	Temperatura mínima	18.3
80172	7	Sololá	702	San José Chacayá	5	Chacayá	2	Febrero	2023-02-22T00:00:00	2024-11-06T14:00:00	5	Humedad	66
80173	7	Sololá	702	San José Chacayá	5	Chacayá	2	Febrero	2023-02-22T00:00:00	2024-11-06T14:00:00	6	Velocidad del viento	8
80174	7	Sololá	702	San José Chacayá	5	Chacayá	2	Febrero	2023-02-22T00:00:00	2024-11-06T14:00:00	7	Dirección del viento	8.05
80175	7	Sololá	702	San José Chacayá	5	Chacayá	2	Febrero	2023-02-22T00:00:00	2024-11-06T14:00:00	1	Precipitación	0
80176	7	Sololá	702	San José Chacayá	5	Chacayá	2	Febrero	2023-02-22T00:00:00	2024-11-06T14:00:00	8	Radiación solar	929
80177	7	Sololá	702	San José Chacayá	5	Chacayá	2	Febrero	2023-02-22T00:00:00	2024-11-06T15:00:00	2	Temperatura media	18.9
80178	7	Sololá	702	San José Chacayá	5	Chacayá	2	Febrero	2023-02-22T00:00:00	2024-11-06T15:00:00	4	Temperatura máxima	20
80179	7	Sololá	702	San José Chacayá	5	Chacayá	2	Febrero	2023-02-22T00:00:00	2024-11-06T15:00:00	3	Temperatura mínima	18.8
80180	7	Sololá	702	San José Chacayá	5	Chacayá	2	Febrero	2023-02-22T00:00:00	2024-11-06T15:00:00	5	Humedad	70
80181	7	Sololá	702	San José Chacayá	5	Chacayá	2	Febrero	2023-02-22T00:00:00	2024-11-06T15:00:00	6	Velocidad del viento	6.4
80182	7	Sololá	702	San José Chacayá	5	Chacayá	2	Febrero	2023-02-22T00:00:00	2024-11-06T15:00:00	7	Dirección del viento	6.44
80183	7	Sololá	702	San José Chacayá	5	Chacayá	2	Febrero	2023-02-22T00:00:00	2024-11-06T15:00:00	1	Precipitación	0
80184	7	Sololá	702	San José Chacayá	5	Chacayá	2	Febrero	2023-02-22T00:00:00	2024-11-06T15:00:00	8	Radiación solar	857
80185	7	Sololá	702	San José Chacayá	5	Chacayá	2	Febrero	2023-02-22T00:00:00	2024-11-06T16:00:00	2	Temperatura media	17.3
80186	7	Sololá	702	San José Chacayá	5	Chacayá	2	Febrero	2023-02-22T00:00:00	2024-11-06T16:00:00	4	Temperatura máxima	19.1
80187	7	Sololá	702	San José Chacayá	5	Chacayá	2	Febrero	2023-02-22T00:00:00	2024-11-06T16:00:00	3	Temperatura mínima	17.3
80188	7	Sololá	702	San José Chacayá	5	Chacayá	2	Febrero	2023-02-22T00:00:00	2024-11-06T16:00:00	5	Humedad	77
80189	7	Sololá	702	San José Chacayá	5	Chacayá	2	Febrero	2023-02-22T00:00:00	2024-11-06T16:00:00	6	Velocidad del viento	6.4
80190	7	Sololá	702	San José Chacayá	5	Chacayá	2	Febrero	2023-02-22T00:00:00	2024-11-06T16:00:00	7	Dirección del viento	6.44
80191	7	Sololá	702	San José Chacayá	5	Chacayá	2	Febrero	2023-02-22T00:00:00	2024-11-06T16:00:00	1	Precipitación	0
80192	7	Sololá	702	San José Chacayá	5	Chacayá	2	Febrero	2023-02-22T00:00:00	2024-11-06T16:00:00	8	Radiación solar	498
80193	7	Sololá	702	San José Chacayá	5	Chacayá	2	Febrero	2023-02-22T00:00:00	2024-11-06T17:00:00	2	Temperatura media	15.9
80194	7	Sololá	702	San José Chacayá	5	Chacayá	2	Febrero	2023-02-22T00:00:00	2024-11-06T17:00:00	4	Temperatura máxima	17.3
80195	7	Sololá	702	San José Chacayá	5	Chacayá	2	Febrero	2023-02-22T00:00:00	2024-11-06T17:00:00	3	Temperatura mínima	15.8
80196	7	Sololá	702	San José Chacayá	5	Chacayá	2	Febrero	2023-02-22T00:00:00	2024-11-06T17:00:00	5	Humedad	81
80197	7	Sololá	702	San José Chacayá	5	Chacayá	2	Febrero	2023-02-22T00:00:00	2024-11-06T17:00:00	6	Velocidad del viento	3.2
80198	7	Sololá	702	San José Chacayá	5	Chacayá	2	Febrero	2023-02-22T00:00:00	2024-11-06T17:00:00	7	Dirección del viento	3.22
80199	7	Sololá	702	San José Chacayá	5	Chacayá	2	Febrero	2023-02-22T00:00:00	2024-11-06T17:00:00	1	Precipitación	0
80200	7	Sololá	702	San José Chacayá	5	Chacayá	2	Febrero	2023-02-22T00:00:00	2024-11-06T17:00:00	8	Radiación solar	124
80201	7	Sololá	702	San José Chacayá	5	Chacayá	2	Febrero	2023-02-22T00:00:00	2024-11-06T18:00:00	2	Temperatura media	15.6
80202	7	Sololá	702	San José Chacayá	5	Chacayá	2	Febrero	2023-02-22T00:00:00	2024-11-06T18:00:00	4	Temperatura máxima	15.9
80203	7	Sololá	702	San José Chacayá	5	Chacayá	2	Febrero	2023-02-22T00:00:00	2024-11-06T18:00:00	3	Temperatura mínima	15.6
80204	7	Sololá	702	San José Chacayá	5	Chacayá	2	Febrero	2023-02-22T00:00:00	2024-11-06T18:00:00	5	Humedad	83
80205	7	Sololá	702	San José Chacayá	5	Chacayá	2	Febrero	2023-02-22T00:00:00	2024-11-06T18:00:00	6	Velocidad del viento	1.6
80206	7	Sololá	702	San José Chacayá	5	Chacayá	2	Febrero	2023-02-22T00:00:00	2024-11-06T18:00:00	7	Dirección del viento	1.61
80207	7	Sololá	702	San José Chacayá	5	Chacayá	2	Febrero	2023-02-22T00:00:00	2024-11-06T18:00:00	1	Precipitación	0
80208	7	Sololá	702	San José Chacayá	5	Chacayá	2	Febrero	2023-02-22T00:00:00	2024-11-06T18:00:00	8	Radiación solar	53
80209	7	Sololá	702	San José Chacayá	5	Chacayá	2	Febrero	2023-02-22T00:00:00	2024-11-06T19:00:00	2	Temperatura media	13.9
80210	7	Sololá	702	San José Chacayá	5	Chacayá	2	Febrero	2023-02-22T00:00:00	2024-11-06T19:00:00	4	Temperatura máxima	15.6
80211	7	Sololá	702	San José Chacayá	5	Chacayá	2	Febrero	2023-02-22T00:00:00	2024-11-06T19:00:00	3	Temperatura mínima	13.9
80212	7	Sololá	702	San José Chacayá	5	Chacayá	2	Febrero	2023-02-22T00:00:00	2024-11-06T19:00:00	5	Humedad	82
80213	7	Sololá	702	San José Chacayá	5	Chacayá	2	Febrero	2023-02-22T00:00:00	2024-11-06T19:00:00	6	Velocidad del viento	0
80214	7	Sololá	702	San José Chacayá	5	Chacayá	2	Febrero	2023-02-22T00:00:00	2024-11-06T19:00:00	7	Dirección del viento	0
80215	7	Sololá	702	San José Chacayá	5	Chacayá	2	Febrero	2023-02-22T00:00:00	2024-11-06T19:00:00	1	Precipitación	0
80216	7	Sololá	702	San José Chacayá	5	Chacayá	2	Febrero	2023-02-22T00:00:00	2024-11-06T19:00:00	8	Radiación solar	0
80217	7	Sololá	702	San José Chacayá	5	Chacayá	2	Febrero	2023-02-22T00:00:00	2024-11-06T20:00:00	2	Temperatura media	13.1
80218	7	Sololá	702	San José Chacayá	5	Chacayá	2	Febrero	2023-02-22T00:00:00	2024-11-06T20:00:00	4	Temperatura máxima	13.9
80219	7	Sololá	702	San José Chacayá	5	Chacayá	2	Febrero	2023-02-22T00:00:00	2024-11-06T20:00:00	3	Temperatura mínima	13.1
80220	7	Sololá	702	San José Chacayá	5	Chacayá	2	Febrero	2023-02-22T00:00:00	2024-11-06T20:00:00	5	Humedad	81
80221	7	Sololá	702	San José Chacayá	5	Chacayá	2	Febrero	2023-02-22T00:00:00	2024-11-06T20:00:00	6	Velocidad del viento	1.6
80222	7	Sololá	702	San José Chacayá	5	Chacayá	2	Febrero	2023-02-22T00:00:00	2024-11-06T20:00:00	7	Dirección del viento	1.61
80223	7	Sololá	702	San José Chacayá	5	Chacayá	2	Febrero	2023-02-22T00:00:00	2024-11-06T20:00:00	1	Precipitación	0
80224	7	Sololá	702	San José Chacayá	5	Chacayá	2	Febrero	2023-02-22T00:00:00	2024-11-06T20:00:00	8	Radiación solar	0
80225	7	Sololá	702	San José Chacayá	5	Chacayá	2	Febrero	2023-02-22T00:00:00	2024-11-06T21:00:00	2	Temperatura media	13.4
80226	7	Sololá	702	San José Chacayá	5	Chacayá	2	Febrero	2023-02-22T00:00:00	2024-11-06T21:00:00	4	Temperatura máxima	13.4
80227	7	Sololá	702	San José Chacayá	5	Chacayá	2	Febrero	2023-02-22T00:00:00	2024-11-06T21:00:00	3	Temperatura mínima	12.9
80228	7	Sololá	702	San José Chacayá	5	Chacayá	2	Febrero	2023-02-22T00:00:00	2024-11-06T21:00:00	5	Humedad	80
80229	7	Sololá	702	San José Chacayá	5	Chacayá	2	Febrero	2023-02-22T00:00:00	2024-11-06T21:00:00	6	Velocidad del viento	0
80230	7	Sololá	702	San José Chacayá	5	Chacayá	2	Febrero	2023-02-22T00:00:00	2024-11-06T21:00:00	7	Dirección del viento	0
80231	7	Sololá	702	San José Chacayá	5	Chacayá	2	Febrero	2023-02-22T00:00:00	2024-11-06T21:00:00	1	Precipitación	0
80232	7	Sololá	702	San José Chacayá	5	Chacayá	2	Febrero	2023-02-22T00:00:00	2024-11-06T21:00:00	8	Radiación solar	0
80233	7	Sololá	702	San José Chacayá	5	Chacayá	2	Febrero	2023-02-22T00:00:00	2024-11-06T22:00:00	2	Temperatura media	13.3
80234	7	Sololá	702	San José Chacayá	5	Chacayá	2	Febrero	2023-02-22T00:00:00	2024-11-06T22:00:00	4	Temperatura máxima	13.6
80235	7	Sololá	702	San José Chacayá	5	Chacayá	2	Febrero	2023-02-22T00:00:00	2024-11-06T22:00:00	3	Temperatura mínima	13.3
80236	7	Sololá	702	San José Chacayá	5	Chacayá	2	Febrero	2023-02-22T00:00:00	2024-11-06T22:00:00	5	Humedad	83
80237	7	Sololá	702	San José Chacayá	5	Chacayá	2	Febrero	2023-02-22T00:00:00	2024-11-06T22:00:00	6	Velocidad del viento	0
80238	7	Sololá	702	San José Chacayá	5	Chacayá	2	Febrero	2023-02-22T00:00:00	2024-11-06T22:00:00	7	Dirección del viento	0
80239	7	Sololá	702	San José Chacayá	5	Chacayá	2	Febrero	2023-02-22T00:00:00	2024-11-06T22:00:00	1	Precipitación	0
80240	7	Sololá	702	San José Chacayá	5	Chacayá	2	Febrero	2023-02-22T00:00:00	2024-11-06T22:00:00	8	Radiación solar	0
80241	7	Sololá	702	San José Chacayá	5	Chacayá	2	Febrero	2023-02-22T00:00:00	2024-11-06T23:00:00	2	Temperatura media	12.2
80242	7	Sololá	702	San José Chacayá	5	Chacayá	2	Febrero	2023-02-22T00:00:00	2024-11-06T23:00:00	4	Temperatura máxima	13.3
80243	7	Sololá	702	San José Chacayá	5	Chacayá	2	Febrero	2023-02-22T00:00:00	2024-11-06T23:00:00	3	Temperatura mínima	12.2
80244	7	Sololá	702	San José Chacayá	5	Chacayá	2	Febrero	2023-02-22T00:00:00	2024-11-06T23:00:00	5	Humedad	82
80245	7	Sololá	702	San José Chacayá	5	Chacayá	2	Febrero	2023-02-22T00:00:00	2024-11-06T23:00:00	6	Velocidad del viento	1.6
80246	7	Sololá	702	San José Chacayá	5	Chacayá	2	Febrero	2023-02-22T00:00:00	2024-11-06T23:00:00	7	Dirección del viento	1.61
80247	7	Sololá	702	San José Chacayá	5	Chacayá	2	Febrero	2023-02-22T00:00:00	2024-11-06T23:00:00	1	Precipitación	0
80248	7	Sololá	702	San José Chacayá	5	Chacayá	2	Febrero	2023-02-22T00:00:00	2024-11-06T23:00:00	8	Radiación solar	0
80249	7	Sololá	702	San José Chacayá	5	Chacayá	2	Febrero	2023-02-23T00:00:00	2024-11-06T00:00:00	2	Temperatura media	11.3
80250	7	Sololá	702	San José Chacayá	5	Chacayá	2	Febrero	2023-02-23T00:00:00	2024-11-06T00:00:00	4	Temperatura máxima	12.2
80251	7	Sololá	702	San José Chacayá	5	Chacayá	2	Febrero	2023-02-23T00:00:00	2024-11-06T00:00:00	3	Temperatura mínima	11.3
80252	7	Sololá	702	San José Chacayá	5	Chacayá	2	Febrero	2023-02-23T00:00:00	2024-11-06T00:00:00	5	Humedad	82
80253	7	Sololá	702	San José Chacayá	5	Chacayá	2	Febrero	2023-02-23T00:00:00	2024-11-06T00:00:00	6	Velocidad del viento	1.6
80254	7	Sololá	702	San José Chacayá	5	Chacayá	2	Febrero	2023-02-23T00:00:00	2024-11-06T00:00:00	7	Dirección del viento	1.61
80255	7	Sololá	702	San José Chacayá	5	Chacayá	2	Febrero	2023-02-23T00:00:00	2024-11-06T00:00:00	1	Precipitación	0
80256	7	Sololá	702	San José Chacayá	5	Chacayá	2	Febrero	2023-02-23T00:00:00	2024-11-06T00:00:00	8	Radiación solar	0
80257	7	Sololá	702	San José Chacayá	5	Chacayá	2	Febrero	2023-02-23T00:00:00	2024-11-06T01:00:00	2	Temperatura media	11
80258	7	Sololá	702	San José Chacayá	5	Chacayá	2	Febrero	2023-02-23T00:00:00	2024-11-06T01:00:00	4	Temperatura máxima	11.4
80259	7	Sololá	702	San José Chacayá	5	Chacayá	2	Febrero	2023-02-23T00:00:00	2024-11-06T01:00:00	3	Temperatura mínima	10.9
80260	7	Sololá	702	San José Chacayá	5	Chacayá	2	Febrero	2023-02-23T00:00:00	2024-11-06T01:00:00	5	Humedad	81
80261	7	Sololá	702	San José Chacayá	5	Chacayá	2	Febrero	2023-02-23T00:00:00	2024-11-06T01:00:00	6	Velocidad del viento	1.6
80262	7	Sololá	702	San José Chacayá	5	Chacayá	2	Febrero	2023-02-23T00:00:00	2024-11-06T01:00:00	7	Dirección del viento	1.61
80263	7	Sololá	702	San José Chacayá	5	Chacayá	2	Febrero	2023-02-23T00:00:00	2024-11-06T01:00:00	1	Precipitación	0
80264	7	Sololá	702	San José Chacayá	5	Chacayá	2	Febrero	2023-02-23T00:00:00	2024-11-06T01:00:00	8	Radiación solar	0
80265	7	Sololá	702	San José Chacayá	5	Chacayá	2	Febrero	2023-02-23T00:00:00	2024-11-06T02:00:00	2	Temperatura media	10.9
80266	7	Sololá	702	San José Chacayá	5	Chacayá	2	Febrero	2023-02-23T00:00:00	2024-11-06T02:00:00	4	Temperatura máxima	11.2
80267	7	Sololá	702	San José Chacayá	5	Chacayá	2	Febrero	2023-02-23T00:00:00	2024-11-06T02:00:00	3	Temperatura mínima	10.9
80268	7	Sololá	702	San José Chacayá	5	Chacayá	2	Febrero	2023-02-23T00:00:00	2024-11-06T02:00:00	5	Humedad	82
80269	7	Sololá	702	San José Chacayá	5	Chacayá	2	Febrero	2023-02-23T00:00:00	2024-11-06T02:00:00	6	Velocidad del viento	1.6
80270	7	Sololá	702	San José Chacayá	5	Chacayá	2	Febrero	2023-02-23T00:00:00	2024-11-06T02:00:00	7	Dirección del viento	1.61
80271	7	Sololá	702	San José Chacayá	5	Chacayá	2	Febrero	2023-02-23T00:00:00	2024-11-06T02:00:00	1	Precipitación	0
80272	7	Sololá	702	San José Chacayá	5	Chacayá	2	Febrero	2023-02-23T00:00:00	2024-11-06T02:00:00	8	Radiación solar	0
80273	7	Sololá	702	San José Chacayá	5	Chacayá	2	Febrero	2023-02-23T00:00:00	2024-11-06T03:00:00	2	Temperatura media	11.4
80274	7	Sololá	702	San José Chacayá	5	Chacayá	2	Febrero	2023-02-23T00:00:00	2024-11-06T03:00:00	4	Temperatura máxima	11.4
80275	7	Sololá	702	San José Chacayá	5	Chacayá	2	Febrero	2023-02-23T00:00:00	2024-11-06T03:00:00	3	Temperatura mínima	10.8
80276	7	Sololá	702	San José Chacayá	5	Chacayá	2	Febrero	2023-02-23T00:00:00	2024-11-06T03:00:00	5	Humedad	82
80277	7	Sololá	702	San José Chacayá	5	Chacayá	2	Febrero	2023-02-23T00:00:00	2024-11-06T03:00:00	6	Velocidad del viento	1.6
80278	7	Sololá	702	San José Chacayá	5	Chacayá	2	Febrero	2023-02-23T00:00:00	2024-11-06T03:00:00	7	Dirección del viento	1.61
80279	7	Sololá	702	San José Chacayá	5	Chacayá	2	Febrero	2023-02-23T00:00:00	2024-11-06T03:00:00	1	Precipitación	0
80280	7	Sololá	702	San José Chacayá	5	Chacayá	2	Febrero	2023-02-23T00:00:00	2024-11-06T03:00:00	8	Radiación solar	0
80281	7	Sololá	702	San José Chacayá	5	Chacayá	2	Febrero	2023-02-23T00:00:00	2024-11-06T04:00:00	2	Temperatura media	10.8
80282	7	Sololá	702	San José Chacayá	5	Chacayá	2	Febrero	2023-02-23T00:00:00	2024-11-06T04:00:00	4	Temperatura máxima	11.6
80283	7	Sololá	702	San José Chacayá	5	Chacayá	2	Febrero	2023-02-23T00:00:00	2024-11-06T04:00:00	3	Temperatura mínima	10.8
80284	7	Sololá	702	San José Chacayá	5	Chacayá	2	Febrero	2023-02-23T00:00:00	2024-11-06T04:00:00	5	Humedad	81
80285	7	Sololá	702	San José Chacayá	5	Chacayá	2	Febrero	2023-02-23T00:00:00	2024-11-06T04:00:00	6	Velocidad del viento	0
80286	7	Sololá	702	San José Chacayá	5	Chacayá	2	Febrero	2023-02-23T00:00:00	2024-11-06T04:00:00	7	Dirección del viento	0
80287	7	Sololá	702	San José Chacayá	5	Chacayá	2	Febrero	2023-02-23T00:00:00	2024-11-06T04:00:00	1	Precipitación	0
80288	7	Sololá	702	San José Chacayá	5	Chacayá	2	Febrero	2023-02-23T00:00:00	2024-11-06T04:00:00	8	Radiación solar	0
80289	7	Sololá	702	San José Chacayá	5	Chacayá	2	Febrero	2023-02-23T00:00:00	2024-11-06T05:00:00	2	Temperatura media	9.8
80290	7	Sololá	702	San José Chacayá	5	Chacayá	2	Febrero	2023-02-23T00:00:00	2024-11-06T05:00:00	4	Temperatura máxima	10.8
80291	7	Sololá	702	San José Chacayá	5	Chacayá	2	Febrero	2023-02-23T00:00:00	2024-11-06T05:00:00	3	Temperatura mínima	9.8
80292	7	Sololá	702	San José Chacayá	5	Chacayá	2	Febrero	2023-02-23T00:00:00	2024-11-06T05:00:00	5	Humedad	79
80293	7	Sololá	702	San José Chacayá	5	Chacayá	2	Febrero	2023-02-23T00:00:00	2024-11-06T05:00:00	6	Velocidad del viento	1.6
80294	7	Sololá	702	San José Chacayá	5	Chacayá	2	Febrero	2023-02-23T00:00:00	2024-11-06T05:00:00	7	Dirección del viento	1.61
80295	7	Sololá	702	San José Chacayá	5	Chacayá	2	Febrero	2023-02-23T00:00:00	2024-11-06T05:00:00	1	Precipitación	0
80296	7	Sololá	702	San José Chacayá	5	Chacayá	2	Febrero	2023-02-23T00:00:00	2024-11-06T05:00:00	8	Radiación solar	0
80297	7	Sololá	702	San José Chacayá	5	Chacayá	2	Febrero	2023-02-23T00:00:00	2024-11-06T06:00:00	2	Temperatura media	9.7
80298	7	Sololá	702	San José Chacayá	5	Chacayá	2	Febrero	2023-02-23T00:00:00	2024-11-06T06:00:00	4	Temperatura máxima	9.8
80299	7	Sololá	702	San José Chacayá	5	Chacayá	2	Febrero	2023-02-23T00:00:00	2024-11-06T06:00:00	3	Temperatura mínima	9.3
80300	7	Sololá	702	San José Chacayá	5	Chacayá	2	Febrero	2023-02-23T00:00:00	2024-11-06T06:00:00	5	Humedad	73
80301	7	Sololá	702	San José Chacayá	5	Chacayá	2	Febrero	2023-02-23T00:00:00	2024-11-06T06:00:00	6	Velocidad del viento	0
80302	7	Sololá	702	San José Chacayá	5	Chacayá	2	Febrero	2023-02-23T00:00:00	2024-11-06T06:00:00	7	Dirección del viento	0
80303	7	Sololá	702	San José Chacayá	5	Chacayá	2	Febrero	2023-02-23T00:00:00	2024-11-06T06:00:00	1	Precipitación	0
80304	7	Sololá	702	San José Chacayá	5	Chacayá	2	Febrero	2023-02-23T00:00:00	2024-11-06T06:00:00	8	Radiación solar	0
80305	7	Sololá	702	San José Chacayá	5	Chacayá	2	Febrero	2023-02-23T00:00:00	2024-11-06T07:00:00	2	Temperatura media	10.1
80306	7	Sololá	702	San José Chacayá	5	Chacayá	2	Febrero	2023-02-23T00:00:00	2024-11-06T07:00:00	4	Temperatura máxima	10.1
80307	7	Sololá	702	San José Chacayá	5	Chacayá	2	Febrero	2023-02-23T00:00:00	2024-11-06T07:00:00	3	Temperatura mínima	9.4
80308	7	Sololá	702	San José Chacayá	5	Chacayá	2	Febrero	2023-02-23T00:00:00	2024-11-06T07:00:00	5	Humedad	78
80309	7	Sololá	702	San José Chacayá	5	Chacayá	2	Febrero	2023-02-23T00:00:00	2024-11-06T07:00:00	6	Velocidad del viento	0
80310	7	Sololá	702	San José Chacayá	5	Chacayá	2	Febrero	2023-02-23T00:00:00	2024-11-06T07:00:00	7	Dirección del viento	0
80311	7	Sololá	702	San José Chacayá	5	Chacayá	2	Febrero	2023-02-23T00:00:00	2024-11-06T07:00:00	1	Precipitación	0
80312	7	Sololá	702	San José Chacayá	5	Chacayá	2	Febrero	2023-02-23T00:00:00	2024-11-06T07:00:00	8	Radiación solar	24
80313	7	Sololá	702	San José Chacayá	5	Chacayá	2	Febrero	2023-02-23T00:00:00	2024-11-06T08:00:00	2	Temperatura media	12.7
80314	7	Sololá	702	San José Chacayá	5	Chacayá	2	Febrero	2023-02-23T00:00:00	2024-11-06T08:00:00	4	Temperatura máxima	12.7
80315	7	Sololá	702	San José Chacayá	5	Chacayá	2	Febrero	2023-02-23T00:00:00	2024-11-06T08:00:00	3	Temperatura mínima	10.1
80316	7	Sololá	702	San José Chacayá	5	Chacayá	2	Febrero	2023-02-23T00:00:00	2024-11-06T08:00:00	5	Humedad	83
80317	7	Sololá	702	San José Chacayá	5	Chacayá	2	Febrero	2023-02-23T00:00:00	2024-11-06T08:00:00	6	Velocidad del viento	1.6
80318	7	Sololá	702	San José Chacayá	5	Chacayá	2	Febrero	2023-02-23T00:00:00	2024-11-06T08:00:00	7	Dirección del viento	1.61
80319	7	Sololá	702	San José Chacayá	5	Chacayá	2	Febrero	2023-02-23T00:00:00	2024-11-06T08:00:00	1	Precipitación	0
80320	7	Sololá	702	San José Chacayá	5	Chacayá	2	Febrero	2023-02-23T00:00:00	2024-11-06T08:00:00	8	Radiación solar	196
80321	7	Sololá	702	San José Chacayá	5	Chacayá	2	Febrero	2023-02-23T00:00:00	2024-11-06T09:00:00	2	Temperatura media	15.7
80322	7	Sololá	702	San José Chacayá	5	Chacayá	2	Febrero	2023-02-23T00:00:00	2024-11-06T09:00:00	4	Temperatura máxima	15.7
80323	7	Sololá	702	San José Chacayá	5	Chacayá	2	Febrero	2023-02-23T00:00:00	2024-11-06T09:00:00	3	Temperatura mínima	12.7
80324	7	Sololá	702	San José Chacayá	5	Chacayá	2	Febrero	2023-02-23T00:00:00	2024-11-06T09:00:00	5	Humedad	71
80325	7	Sololá	702	San José Chacayá	5	Chacayá	2	Febrero	2023-02-23T00:00:00	2024-11-06T09:00:00	6	Velocidad del viento	1.6
80326	7	Sololá	702	San José Chacayá	5	Chacayá	2	Febrero	2023-02-23T00:00:00	2024-11-06T09:00:00	7	Dirección del viento	1.61
80327	7	Sololá	702	San José Chacayá	5	Chacayá	2	Febrero	2023-02-23T00:00:00	2024-11-06T09:00:00	1	Precipitación	0
80328	7	Sololá	702	San José Chacayá	5	Chacayá	2	Febrero	2023-02-23T00:00:00	2024-11-06T09:00:00	8	Radiación solar	462
80329	7	Sololá	702	San José Chacayá	5	Chacayá	2	Febrero	2023-02-23T00:00:00	2024-11-06T10:00:00	2	Temperatura media	17.7
80330	7	Sololá	702	San José Chacayá	5	Chacayá	2	Febrero	2023-02-23T00:00:00	2024-11-06T10:00:00	4	Temperatura máxima	17.8
80331	7	Sololá	702	San José Chacayá	5	Chacayá	2	Febrero	2023-02-23T00:00:00	2024-11-06T10:00:00	3	Temperatura mínima	15.7
80332	7	Sololá	702	San José Chacayá	5	Chacayá	2	Febrero	2023-02-23T00:00:00	2024-11-06T10:00:00	5	Humedad	62
80333	7	Sololá	702	San José Chacayá	5	Chacayá	2	Febrero	2023-02-23T00:00:00	2024-11-06T10:00:00	6	Velocidad del viento	4.8
80334	7	Sololá	702	San José Chacayá	5	Chacayá	2	Febrero	2023-02-23T00:00:00	2024-11-06T10:00:00	7	Dirección del viento	4.83
80335	7	Sololá	702	San José Chacayá	5	Chacayá	2	Febrero	2023-02-23T00:00:00	2024-11-06T10:00:00	1	Precipitación	0
80336	7	Sololá	702	San José Chacayá	5	Chacayá	2	Febrero	2023-02-23T00:00:00	2024-11-06T10:00:00	8	Radiación solar	674
80337	7	Sololá	702	San José Chacayá	5	Chacayá	2	Febrero	2023-02-23T00:00:00	2024-11-06T11:00:00	2	Temperatura media	19.4
80338	7	Sololá	702	San José Chacayá	5	Chacayá	2	Febrero	2023-02-23T00:00:00	2024-11-06T11:00:00	4	Temperatura máxima	19.4
80339	7	Sololá	702	San José Chacayá	5	Chacayá	2	Febrero	2023-02-23T00:00:00	2024-11-06T11:00:00	3	Temperatura mínima	17.7
80340	7	Sololá	702	San José Chacayá	5	Chacayá	2	Febrero	2023-02-23T00:00:00	2024-11-06T11:00:00	5	Humedad	42
80341	7	Sololá	702	San José Chacayá	5	Chacayá	2	Febrero	2023-02-23T00:00:00	2024-11-06T11:00:00	6	Velocidad del viento	6.4
80342	7	Sololá	702	San José Chacayá	5	Chacayá	2	Febrero	2023-02-23T00:00:00	2024-11-06T11:00:00	7	Dirección del viento	6.44
80343	7	Sololá	702	San José Chacayá	5	Chacayá	2	Febrero	2023-02-23T00:00:00	2024-11-06T11:00:00	1	Precipitación	0
80344	7	Sololá	702	San José Chacayá	5	Chacayá	2	Febrero	2023-02-23T00:00:00	2024-11-06T11:00:00	8	Radiación solar	844
80345	7	Sololá	702	San José Chacayá	5	Chacayá	2	Febrero	2023-02-23T00:00:00	2024-11-06T12:00:00	2	Temperatura media	20.3
80346	7	Sololá	702	San José Chacayá	5	Chacayá	2	Febrero	2023-02-23T00:00:00	2024-11-06T12:00:00	4	Temperatura máxima	20.4
80347	7	Sololá	702	San José Chacayá	5	Chacayá	2	Febrero	2023-02-23T00:00:00	2024-11-06T12:00:00	3	Temperatura mínima	19.4
80348	7	Sololá	702	San José Chacayá	5	Chacayá	2	Febrero	2023-02-23T00:00:00	2024-11-06T12:00:00	5	Humedad	44
80349	7	Sololá	702	San José Chacayá	5	Chacayá	2	Febrero	2023-02-23T00:00:00	2024-11-06T12:00:00	6	Velocidad del viento	9.7
80350	7	Sololá	702	San José Chacayá	5	Chacayá	2	Febrero	2023-02-23T00:00:00	2024-11-06T12:00:00	7	Dirección del viento	9.66
80351	7	Sololá	702	San José Chacayá	5	Chacayá	2	Febrero	2023-02-23T00:00:00	2024-11-06T12:00:00	1	Precipitación	0
80352	7	Sololá	702	San José Chacayá	5	Chacayá	2	Febrero	2023-02-23T00:00:00	2024-11-06T12:00:00	8	Radiación solar	899
80353	7	Sololá	702	San José Chacayá	5	Chacayá	2	Febrero	2023-02-23T00:00:00	2024-11-06T13:00:00	2	Temperatura media	19.8
80354	7	Sololá	702	San José Chacayá	5	Chacayá	2	Febrero	2023-02-23T00:00:00	2024-11-06T13:00:00	4	Temperatura máxima	20.8
80355	7	Sololá	702	San José Chacayá	5	Chacayá	2	Febrero	2023-02-23T00:00:00	2024-11-06T13:00:00	3	Temperatura mínima	19.8
80356	7	Sololá	702	San José Chacayá	5	Chacayá	2	Febrero	2023-02-23T00:00:00	2024-11-06T13:00:00	5	Humedad	65
80357	7	Sololá	702	San José Chacayá	5	Chacayá	2	Febrero	2023-02-23T00:00:00	2024-11-06T13:00:00	6	Velocidad del viento	8
80358	7	Sololá	702	San José Chacayá	5	Chacayá	2	Febrero	2023-02-23T00:00:00	2024-11-06T13:00:00	7	Dirección del viento	8.05
80359	7	Sololá	702	San José Chacayá	5	Chacayá	2	Febrero	2023-02-23T00:00:00	2024-11-06T13:00:00	1	Precipitación	0
80360	7	Sololá	702	San José Chacayá	5	Chacayá	2	Febrero	2023-02-23T00:00:00	2024-11-06T13:00:00	8	Radiación solar	944
80361	7	Sololá	702	San José Chacayá	5	Chacayá	2	Febrero	2023-02-23T00:00:00	2024-11-06T14:00:00	2	Temperatura media	18.7
80362	7	Sololá	702	San José Chacayá	5	Chacayá	2	Febrero	2023-02-23T00:00:00	2024-11-06T14:00:00	4	Temperatura máxima	19.9
80363	7	Sololá	702	San José Chacayá	5	Chacayá	2	Febrero	2023-02-23T00:00:00	2024-11-06T14:00:00	3	Temperatura mínima	18.6
80364	7	Sololá	702	San José Chacayá	5	Chacayá	2	Febrero	2023-02-23T00:00:00	2024-11-06T14:00:00	5	Humedad	72
80365	7	Sololá	702	San José Chacayá	5	Chacayá	2	Febrero	2023-02-23T00:00:00	2024-11-06T14:00:00	6	Velocidad del viento	8
80366	7	Sololá	702	San José Chacayá	5	Chacayá	2	Febrero	2023-02-23T00:00:00	2024-11-06T14:00:00	7	Dirección del viento	8.05
80367	7	Sololá	702	San José Chacayá	5	Chacayá	2	Febrero	2023-02-23T00:00:00	2024-11-06T14:00:00	1	Precipitación	0
80368	7	Sololá	702	San José Chacayá	5	Chacayá	2	Febrero	2023-02-23T00:00:00	2024-11-06T14:00:00	8	Radiación solar	899
80369	7	Sololá	702	San José Chacayá	5	Chacayá	2	Febrero	2023-02-23T00:00:00	2024-11-06T15:00:00	2	Temperatura media	18.2
80370	7	Sololá	702	San José Chacayá	5	Chacayá	2	Febrero	2023-02-23T00:00:00	2024-11-06T15:00:00	4	Temperatura máxima	18.7
80371	7	Sololá	702	San José Chacayá	5	Chacayá	2	Febrero	2023-02-23T00:00:00	2024-11-06T15:00:00	3	Temperatura mínima	17.9
80372	7	Sololá	702	San José Chacayá	5	Chacayá	2	Febrero	2023-02-23T00:00:00	2024-11-06T15:00:00	5	Humedad	74
80373	7	Sololá	702	San José Chacayá	5	Chacayá	2	Febrero	2023-02-23T00:00:00	2024-11-06T15:00:00	6	Velocidad del viento	6.4
80374	7	Sololá	702	San José Chacayá	5	Chacayá	2	Febrero	2023-02-23T00:00:00	2024-11-06T15:00:00	7	Dirección del viento	6.44
80375	7	Sololá	702	San José Chacayá	5	Chacayá	2	Febrero	2023-02-23T00:00:00	2024-11-06T15:00:00	1	Precipitación	0
80376	7	Sololá	702	San José Chacayá	5	Chacayá	2	Febrero	2023-02-23T00:00:00	2024-11-06T15:00:00	8	Radiación solar	695
80377	7	Sololá	702	San José Chacayá	5	Chacayá	2	Febrero	2023-02-23T00:00:00	2024-11-06T16:00:00	2	Temperatura media	16.9
80378	7	Sololá	702	San José Chacayá	5	Chacayá	2	Febrero	2023-02-23T00:00:00	2024-11-06T16:00:00	4	Temperatura máxima	18.2
80379	7	Sololá	702	San José Chacayá	5	Chacayá	2	Febrero	2023-02-23T00:00:00	2024-11-06T16:00:00	3	Temperatura mínima	16.6
80380	7	Sololá	702	San José Chacayá	5	Chacayá	2	Febrero	2023-02-23T00:00:00	2024-11-06T16:00:00	5	Humedad	78
80381	7	Sololá	702	San José Chacayá	5	Chacayá	2	Febrero	2023-02-23T00:00:00	2024-11-06T16:00:00	6	Velocidad del viento	8
80382	7	Sololá	702	San José Chacayá	5	Chacayá	2	Febrero	2023-02-23T00:00:00	2024-11-06T16:00:00	7	Dirección del viento	8.05
80383	7	Sololá	702	San José Chacayá	5	Chacayá	2	Febrero	2023-02-23T00:00:00	2024-11-06T16:00:00	1	Precipitación	0
80384	7	Sololá	702	San José Chacayá	5	Chacayá	2	Febrero	2023-02-23T00:00:00	2024-11-06T16:00:00	8	Radiación solar	512
80385	7	Sololá	702	San José Chacayá	5	Chacayá	2	Febrero	2023-02-23T00:00:00	2024-11-06T17:00:00	2	Temperatura media	16.6
80386	7	Sololá	702	San José Chacayá	5	Chacayá	2	Febrero	2023-02-23T00:00:00	2024-11-06T17:00:00	4	Temperatura máxima	17.1
80387	7	Sololá	702	San José Chacayá	5	Chacayá	2	Febrero	2023-02-23T00:00:00	2024-11-06T17:00:00	3	Temperatura mínima	15.9
80388	7	Sololá	702	San José Chacayá	5	Chacayá	2	Febrero	2023-02-23T00:00:00	2024-11-06T17:00:00	5	Humedad	80
80389	7	Sololá	702	San José Chacayá	5	Chacayá	2	Febrero	2023-02-23T00:00:00	2024-11-06T17:00:00	6	Velocidad del viento	4.8
80390	7	Sololá	702	San José Chacayá	5	Chacayá	2	Febrero	2023-02-23T00:00:00	2024-11-06T17:00:00	7	Dirección del viento	4.83
80391	7	Sololá	702	San José Chacayá	5	Chacayá	2	Febrero	2023-02-23T00:00:00	2024-11-06T17:00:00	1	Precipitación	0
80392	7	Sololá	702	San José Chacayá	5	Chacayá	2	Febrero	2023-02-23T00:00:00	2024-11-06T17:00:00	8	Radiación solar	246
80393	7	Sololá	702	San José Chacayá	5	Chacayá	2	Febrero	2023-02-23T00:00:00	2024-11-06T18:00:00	2	Temperatura media	15.1
80394	7	Sololá	702	San José Chacayá	5	Chacayá	2	Febrero	2023-02-23T00:00:00	2024-11-06T18:00:00	4	Temperatura máxima	16.6
80395	7	Sololá	702	San José Chacayá	5	Chacayá	2	Febrero	2023-02-23T00:00:00	2024-11-06T18:00:00	3	Temperatura mínima	15.1
80396	7	Sololá	702	San José Chacayá	5	Chacayá	2	Febrero	2023-02-23T00:00:00	2024-11-06T18:00:00	5	Humedad	83
80397	7	Sololá	702	San José Chacayá	5	Chacayá	2	Febrero	2023-02-23T00:00:00	2024-11-06T18:00:00	6	Velocidad del viento	1.6
80398	7	Sololá	702	San José Chacayá	5	Chacayá	2	Febrero	2023-02-23T00:00:00	2024-11-06T18:00:00	7	Dirección del viento	1.61
80399	7	Sololá	702	San José Chacayá	5	Chacayá	2	Febrero	2023-02-23T00:00:00	2024-11-06T18:00:00	1	Precipitación	0
80400	7	Sololá	702	San José Chacayá	5	Chacayá	2	Febrero	2023-02-23T00:00:00	2024-11-06T18:00:00	8	Radiación solar	61
80401	7	Sololá	702	San José Chacayá	5	Chacayá	2	Febrero	2023-02-23T00:00:00	2024-11-06T19:00:00	2	Temperatura media	13.6
80402	7	Sololá	702	San José Chacayá	5	Chacayá	2	Febrero	2023-02-23T00:00:00	2024-11-06T19:00:00	4	Temperatura máxima	15.1
80403	7	Sololá	702	San José Chacayá	5	Chacayá	2	Febrero	2023-02-23T00:00:00	2024-11-06T19:00:00	3	Temperatura mínima	13.6
80404	7	Sololá	702	San José Chacayá	5	Chacayá	2	Febrero	2023-02-23T00:00:00	2024-11-06T19:00:00	5	Humedad	82
80405	7	Sololá	702	San José Chacayá	5	Chacayá	2	Febrero	2023-02-23T00:00:00	2024-11-06T19:00:00	6	Velocidad del viento	0
80406	7	Sololá	702	San José Chacayá	5	Chacayá	2	Febrero	2023-02-23T00:00:00	2024-11-06T19:00:00	7	Dirección del viento	0
80407	7	Sololá	702	San José Chacayá	5	Chacayá	2	Febrero	2023-02-23T00:00:00	2024-11-06T19:00:00	1	Precipitación	0
80408	7	Sololá	702	San José Chacayá	5	Chacayá	2	Febrero	2023-02-23T00:00:00	2024-11-06T19:00:00	8	Radiación solar	1
80409	7	Sololá	702	San José Chacayá	5	Chacayá	2	Febrero	2023-02-23T00:00:00	2024-11-06T20:00:00	2	Temperatura media	11.8
80410	7	Sololá	702	San José Chacayá	5	Chacayá	2	Febrero	2023-02-23T00:00:00	2024-11-06T20:00:00	4	Temperatura máxima	13.6
80411	7	Sololá	702	San José Chacayá	5	Chacayá	2	Febrero	2023-02-23T00:00:00	2024-11-06T20:00:00	3	Temperatura mínima	11.8
80412	7	Sololá	702	San José Chacayá	5	Chacayá	2	Febrero	2023-02-23T00:00:00	2024-11-06T20:00:00	5	Humedad	84
80413	7	Sololá	702	San José Chacayá	5	Chacayá	2	Febrero	2023-02-23T00:00:00	2024-11-06T20:00:00	6	Velocidad del viento	1.6
80414	7	Sololá	702	San José Chacayá	5	Chacayá	2	Febrero	2023-02-23T00:00:00	2024-11-06T20:00:00	7	Dirección del viento	1.61
80415	7	Sololá	702	San José Chacayá	5	Chacayá	2	Febrero	2023-02-23T00:00:00	2024-11-06T20:00:00	1	Precipitación	0
80416	7	Sololá	702	San José Chacayá	5	Chacayá	2	Febrero	2023-02-23T00:00:00	2024-11-06T20:00:00	8	Radiación solar	0
80417	7	Sololá	702	San José Chacayá	5	Chacayá	2	Febrero	2023-02-23T00:00:00	2024-11-06T21:00:00	2	Temperatura media	10.6
80418	7	Sololá	702	San José Chacayá	5	Chacayá	2	Febrero	2023-02-23T00:00:00	2024-11-06T21:00:00	4	Temperatura máxima	11.8
80419	7	Sololá	702	San José Chacayá	5	Chacayá	2	Febrero	2023-02-23T00:00:00	2024-11-06T21:00:00	3	Temperatura mínima	10.6
80420	7	Sololá	702	San José Chacayá	5	Chacayá	2	Febrero	2023-02-23T00:00:00	2024-11-06T21:00:00	5	Humedad	84
80421	7	Sololá	702	San José Chacayá	5	Chacayá	2	Febrero	2023-02-23T00:00:00	2024-11-06T21:00:00	6	Velocidad del viento	3.2
80422	7	Sololá	702	San José Chacayá	5	Chacayá	2	Febrero	2023-02-23T00:00:00	2024-11-06T21:00:00	7	Dirección del viento	3.22
80423	7	Sololá	702	San José Chacayá	5	Chacayá	2	Febrero	2023-02-23T00:00:00	2024-11-06T21:00:00	1	Precipitación	0
80424	7	Sololá	702	San José Chacayá	5	Chacayá	2	Febrero	2023-02-23T00:00:00	2024-11-06T21:00:00	8	Radiación solar	0
80425	7	Sololá	702	San José Chacayá	5	Chacayá	2	Febrero	2023-02-23T00:00:00	2024-11-06T22:00:00	2	Temperatura media	9.9
80426	7	Sololá	702	San José Chacayá	5	Chacayá	2	Febrero	2023-02-23T00:00:00	2024-11-06T22:00:00	4	Temperatura máxima	10.6
80427	7	Sololá	702	San José Chacayá	5	Chacayá	2	Febrero	2023-02-23T00:00:00	2024-11-06T22:00:00	3	Temperatura mínima	9.9
80428	7	Sololá	702	San José Chacayá	5	Chacayá	2	Febrero	2023-02-23T00:00:00	2024-11-06T22:00:00	5	Humedad	84
80429	7	Sololá	702	San José Chacayá	5	Chacayá	2	Febrero	2023-02-23T00:00:00	2024-11-06T22:00:00	6	Velocidad del viento	3.2
80430	7	Sololá	702	San José Chacayá	5	Chacayá	2	Febrero	2023-02-23T00:00:00	2024-11-06T22:00:00	7	Dirección del viento	3.22
80431	7	Sololá	702	San José Chacayá	5	Chacayá	2	Febrero	2023-02-23T00:00:00	2024-11-06T22:00:00	1	Precipitación	0
80432	7	Sololá	702	San José Chacayá	5	Chacayá	2	Febrero	2023-02-23T00:00:00	2024-11-06T22:00:00	8	Radiación solar	0
80433	7	Sololá	702	San José Chacayá	5	Chacayá	2	Febrero	2023-02-23T00:00:00	2024-11-06T23:00:00	2	Temperatura media	8.8
80434	7	Sololá	702	San José Chacayá	5	Chacayá	2	Febrero	2023-02-23T00:00:00	2024-11-06T23:00:00	4	Temperatura máxima	9.9
80435	7	Sololá	702	San José Chacayá	5	Chacayá	2	Febrero	2023-02-23T00:00:00	2024-11-06T23:00:00	3	Temperatura mínima	8.8
80436	7	Sololá	702	San José Chacayá	5	Chacayá	2	Febrero	2023-02-23T00:00:00	2024-11-06T23:00:00	5	Humedad	84
80437	7	Sololá	702	San José Chacayá	5	Chacayá	2	Febrero	2023-02-23T00:00:00	2024-11-06T23:00:00	6	Velocidad del viento	3.2
80438	7	Sololá	702	San José Chacayá	5	Chacayá	2	Febrero	2023-02-23T00:00:00	2024-11-06T23:00:00	7	Dirección del viento	3.22
80439	7	Sololá	702	San José Chacayá	5	Chacayá	2	Febrero	2023-02-23T00:00:00	2024-11-06T23:00:00	1	Precipitación	0
80440	7	Sololá	702	San José Chacayá	5	Chacayá	2	Febrero	2023-02-23T00:00:00	2024-11-06T23:00:00	8	Radiación solar	0
80441	7	Sololá	702	San José Chacayá	5	Chacayá	2	Febrero	2023-02-24T00:00:00	2024-11-06T00:00:00	2	Temperatura media	8.6
80442	7	Sololá	702	San José Chacayá	5	Chacayá	2	Febrero	2023-02-24T00:00:00	2024-11-06T00:00:00	4	Temperatura máxima	8.8
80443	7	Sololá	702	San José Chacayá	5	Chacayá	2	Febrero	2023-02-24T00:00:00	2024-11-06T00:00:00	3	Temperatura mínima	8.4
80444	7	Sololá	702	San José Chacayá	5	Chacayá	2	Febrero	2023-02-24T00:00:00	2024-11-06T00:00:00	5	Humedad	83
80445	7	Sololá	702	San José Chacayá	5	Chacayá	2	Febrero	2023-02-24T00:00:00	2024-11-06T00:00:00	6	Velocidad del viento	4.8
80446	7	Sololá	702	San José Chacayá	5	Chacayá	2	Febrero	2023-02-24T00:00:00	2024-11-06T00:00:00	7	Dirección del viento	4.83
80447	7	Sololá	702	San José Chacayá	5	Chacayá	2	Febrero	2023-02-24T00:00:00	2024-11-06T00:00:00	1	Precipitación	0
80448	7	Sololá	702	San José Chacayá	5	Chacayá	2	Febrero	2023-02-24T00:00:00	2024-11-06T00:00:00	8	Radiación solar	0
80449	7	Sololá	702	San José Chacayá	5	Chacayá	2	Febrero	2023-02-24T00:00:00	2024-11-06T01:00:00	2	Temperatura media	10.4
80450	7	Sololá	702	San José Chacayá	5	Chacayá	2	Febrero	2023-02-24T00:00:00	2024-11-06T01:00:00	4	Temperatura máxima	10.4
80451	7	Sololá	702	San José Chacayá	5	Chacayá	2	Febrero	2023-02-24T00:00:00	2024-11-06T01:00:00	3	Temperatura mínima	8.6
80452	7	Sololá	702	San José Chacayá	5	Chacayá	2	Febrero	2023-02-24T00:00:00	2024-11-06T01:00:00	5	Humedad	84
80453	7	Sololá	702	San José Chacayá	5	Chacayá	2	Febrero	2023-02-24T00:00:00	2024-11-06T01:00:00	6	Velocidad del viento	1.6
80454	7	Sololá	702	San José Chacayá	5	Chacayá	2	Febrero	2023-02-24T00:00:00	2024-11-06T01:00:00	7	Dirección del viento	1.61
80455	7	Sololá	702	San José Chacayá	5	Chacayá	2	Febrero	2023-02-24T00:00:00	2024-11-06T01:00:00	1	Precipitación	0
80456	7	Sololá	702	San José Chacayá	5	Chacayá	2	Febrero	2023-02-24T00:00:00	2024-11-06T01:00:00	8	Radiación solar	0
80457	7	Sololá	702	San José Chacayá	5	Chacayá	2	Febrero	2023-02-24T00:00:00	2024-11-06T02:00:00	2	Temperatura media	8
80458	7	Sololá	702	San José Chacayá	5	Chacayá	2	Febrero	2023-02-24T00:00:00	2024-11-06T02:00:00	4	Temperatura máxima	10.6
80459	7	Sololá	702	San José Chacayá	5	Chacayá	2	Febrero	2023-02-24T00:00:00	2024-11-06T02:00:00	3	Temperatura mínima	8
80460	7	Sololá	702	San José Chacayá	5	Chacayá	2	Febrero	2023-02-24T00:00:00	2024-11-06T02:00:00	5	Humedad	84
80461	7	Sololá	702	San José Chacayá	5	Chacayá	2	Febrero	2023-02-24T00:00:00	2024-11-06T02:00:00	6	Velocidad del viento	3.2
80462	7	Sololá	702	San José Chacayá	5	Chacayá	2	Febrero	2023-02-24T00:00:00	2024-11-06T02:00:00	7	Dirección del viento	3.22
80463	7	Sololá	702	San José Chacayá	5	Chacayá	2	Febrero	2023-02-24T00:00:00	2024-11-06T02:00:00	1	Precipitación	0
80464	7	Sololá	702	San José Chacayá	5	Chacayá	2	Febrero	2023-02-24T00:00:00	2024-11-06T02:00:00	8	Radiación solar	0
80465	7	Sololá	702	San José Chacayá	5	Chacayá	2	Febrero	2023-02-24T00:00:00	2024-11-06T03:00:00	2	Temperatura media	7.7
80466	7	Sololá	702	San José Chacayá	5	Chacayá	2	Febrero	2023-02-24T00:00:00	2024-11-06T03:00:00	4	Temperatura máxima	8
80467	7	Sololá	702	San José Chacayá	5	Chacayá	2	Febrero	2023-02-24T00:00:00	2024-11-06T03:00:00	3	Temperatura mínima	7.6
80468	7	Sololá	702	San José Chacayá	5	Chacayá	2	Febrero	2023-02-24T00:00:00	2024-11-06T03:00:00	5	Humedad	84
80469	7	Sololá	702	San José Chacayá	5	Chacayá	2	Febrero	2023-02-24T00:00:00	2024-11-06T03:00:00	6	Velocidad del viento	4.8
80470	7	Sololá	702	San José Chacayá	5	Chacayá	2	Febrero	2023-02-24T00:00:00	2024-11-06T03:00:00	7	Dirección del viento	4.83
80471	7	Sololá	702	San José Chacayá	5	Chacayá	2	Febrero	2023-02-24T00:00:00	2024-11-06T03:00:00	1	Precipitación	0
80472	7	Sololá	702	San José Chacayá	5	Chacayá	2	Febrero	2023-02-24T00:00:00	2024-11-06T03:00:00	8	Radiación solar	0
80473	7	Sololá	702	San José Chacayá	5	Chacayá	2	Febrero	2023-02-24T00:00:00	2024-11-06T04:00:00	2	Temperatura media	7.1
80474	7	Sololá	702	San José Chacayá	5	Chacayá	2	Febrero	2023-02-24T00:00:00	2024-11-06T04:00:00	4	Temperatura máxima	7.8
80475	7	Sololá	702	San José Chacayá	5	Chacayá	2	Febrero	2023-02-24T00:00:00	2024-11-06T04:00:00	3	Temperatura mínima	6.9
80476	7	Sololá	702	San José Chacayá	5	Chacayá	2	Febrero	2023-02-24T00:00:00	2024-11-06T04:00:00	5	Humedad	85
80477	7	Sololá	702	San José Chacayá	5	Chacayá	2	Febrero	2023-02-24T00:00:00	2024-11-06T04:00:00	6	Velocidad del viento	3.2
80478	7	Sololá	702	San José Chacayá	5	Chacayá	2	Febrero	2023-02-24T00:00:00	2024-11-06T04:00:00	7	Dirección del viento	3.22
80479	7	Sololá	702	San José Chacayá	5	Chacayá	2	Febrero	2023-02-24T00:00:00	2024-11-06T04:00:00	1	Precipitación	0
80480	7	Sololá	702	San José Chacayá	5	Chacayá	2	Febrero	2023-02-24T00:00:00	2024-11-06T04:00:00	8	Radiación solar	0
80481	7	Sololá	702	San José Chacayá	5	Chacayá	2	Febrero	2023-02-24T00:00:00	2024-11-06T05:00:00	2	Temperatura media	6
80482	7	Sololá	702	San José Chacayá	5	Chacayá	2	Febrero	2023-02-24T00:00:00	2024-11-06T05:00:00	4	Temperatura máxima	7.1
80483	7	Sololá	702	San José Chacayá	5	Chacayá	2	Febrero	2023-02-24T00:00:00	2024-11-06T05:00:00	3	Temperatura mínima	6
80484	7	Sololá	702	San José Chacayá	5	Chacayá	2	Febrero	2023-02-24T00:00:00	2024-11-06T05:00:00	5	Humedad	85
80485	7	Sololá	702	San José Chacayá	5	Chacayá	2	Febrero	2023-02-24T00:00:00	2024-11-06T05:00:00	6	Velocidad del viento	4.8
80486	7	Sololá	702	San José Chacayá	5	Chacayá	2	Febrero	2023-02-24T00:00:00	2024-11-06T05:00:00	7	Dirección del viento	4.83
80487	7	Sololá	702	San José Chacayá	5	Chacayá	2	Febrero	2023-02-24T00:00:00	2024-11-06T05:00:00	1	Precipitación	0
80488	7	Sololá	702	San José Chacayá	5	Chacayá	2	Febrero	2023-02-24T00:00:00	2024-11-06T05:00:00	8	Radiación solar	0
80489	7	Sololá	702	San José Chacayá	5	Chacayá	2	Febrero	2023-02-24T00:00:00	2024-11-06T06:00:00	2	Temperatura media	5.8
80490	7	Sololá	702	San José Chacayá	5	Chacayá	2	Febrero	2023-02-24T00:00:00	2024-11-06T06:00:00	4	Temperatura máxima	6.4
80491	7	Sololá	702	San José Chacayá	5	Chacayá	2	Febrero	2023-02-24T00:00:00	2024-11-06T06:00:00	3	Temperatura mínima	5.4
80492	7	Sololá	702	San José Chacayá	5	Chacayá	2	Febrero	2023-02-24T00:00:00	2024-11-06T06:00:00	5	Humedad	84
80493	7	Sololá	702	San José Chacayá	5	Chacayá	2	Febrero	2023-02-24T00:00:00	2024-11-06T06:00:00	6	Velocidad del viento	4.8
80494	7	Sololá	702	San José Chacayá	5	Chacayá	2	Febrero	2023-02-24T00:00:00	2024-11-06T06:00:00	7	Dirección del viento	4.83
80495	7	Sololá	702	San José Chacayá	5	Chacayá	2	Febrero	2023-02-24T00:00:00	2024-11-06T06:00:00	1	Precipitación	0
80496	7	Sololá	702	San José Chacayá	5	Chacayá	2	Febrero	2023-02-24T00:00:00	2024-11-06T06:00:00	8	Radiación solar	0
80497	7	Sololá	702	San José Chacayá	5	Chacayá	2	Febrero	2023-02-24T00:00:00	2024-11-06T07:00:00	2	Temperatura media	6.6
80498	7	Sololá	702	San José Chacayá	5	Chacayá	2	Febrero	2023-02-24T00:00:00	2024-11-06T07:00:00	4	Temperatura máxima	6.6
80499	7	Sololá	702	San José Chacayá	5	Chacayá	2	Febrero	2023-02-24T00:00:00	2024-11-06T07:00:00	3	Temperatura mínima	5.4
80500	7	Sololá	702	San José Chacayá	5	Chacayá	2	Febrero	2023-02-24T00:00:00	2024-11-06T07:00:00	5	Humedad	83
80501	7	Sololá	702	San José Chacayá	5	Chacayá	2	Febrero	2023-02-24T00:00:00	2024-11-06T07:00:00	6	Velocidad del viento	4.8
80502	7	Sololá	702	San José Chacayá	5	Chacayá	2	Febrero	2023-02-24T00:00:00	2024-11-06T07:00:00	7	Dirección del viento	4.83
80503	7	Sololá	702	San José Chacayá	5	Chacayá	2	Febrero	2023-02-24T00:00:00	2024-11-06T07:00:00	1	Precipitación	0
80504	7	Sololá	702	San José Chacayá	5	Chacayá	2	Febrero	2023-02-24T00:00:00	2024-11-06T07:00:00	8	Radiación solar	22
80505	7	Sololá	702	San José Chacayá	5	Chacayá	2	Febrero	2023-02-24T00:00:00	2024-11-06T08:00:00	2	Temperatura media	12.6
80506	7	Sololá	702	San José Chacayá	5	Chacayá	2	Febrero	2023-02-24T00:00:00	2024-11-06T08:00:00	4	Temperatura máxima	12.6
80507	7	Sololá	702	San José Chacayá	5	Chacayá	2	Febrero	2023-02-24T00:00:00	2024-11-06T08:00:00	3	Temperatura mínima	6.7
80508	7	Sololá	702	San José Chacayá	5	Chacayá	2	Febrero	2023-02-24T00:00:00	2024-11-06T08:00:00	5	Humedad	67
80509	7	Sololá	702	San José Chacayá	5	Chacayá	2	Febrero	2023-02-24T00:00:00	2024-11-06T08:00:00	6	Velocidad del viento	3.2
80510	7	Sololá	702	San José Chacayá	5	Chacayá	2	Febrero	2023-02-24T00:00:00	2024-11-06T08:00:00	7	Dirección del viento	3.22
80511	7	Sololá	702	San José Chacayá	5	Chacayá	2	Febrero	2023-02-24T00:00:00	2024-11-06T08:00:00	1	Precipitación	0
80512	7	Sololá	702	San José Chacayá	5	Chacayá	2	Febrero	2023-02-24T00:00:00	2024-11-06T08:00:00	8	Radiación solar	214
80513	7	Sololá	702	San José Chacayá	5	Chacayá	2	Febrero	2023-02-24T00:00:00	2024-11-06T09:00:00	2	Temperatura media	18.7
80514	7	Sololá	702	San José Chacayá	5	Chacayá	2	Febrero	2023-02-24T00:00:00	2024-11-06T09:00:00	4	Temperatura máxima	18.7
80515	7	Sololá	702	San José Chacayá	5	Chacayá	2	Febrero	2023-02-24T00:00:00	2024-11-06T09:00:00	3	Temperatura mínima	12.7
80516	7	Sololá	702	San José Chacayá	5	Chacayá	2	Febrero	2023-02-24T00:00:00	2024-11-06T09:00:00	5	Humedad	33
80517	7	Sololá	702	San José Chacayá	5	Chacayá	2	Febrero	2023-02-24T00:00:00	2024-11-06T09:00:00	6	Velocidad del viento	1.6
80518	7	Sololá	702	San José Chacayá	5	Chacayá	2	Febrero	2023-02-24T00:00:00	2024-11-06T09:00:00	7	Dirección del viento	1.61
80519	7	Sololá	702	San José Chacayá	5	Chacayá	2	Febrero	2023-02-24T00:00:00	2024-11-06T09:00:00	1	Precipitación	0
80520	7	Sololá	702	San José Chacayá	5	Chacayá	2	Febrero	2023-02-24T00:00:00	2024-11-06T09:00:00	8	Radiación solar	480
80521	7	Sololá	702	San José Chacayá	5	Chacayá	2	Febrero	2023-02-24T00:00:00	2024-11-06T10:00:00	2	Temperatura media	20.1
80522	7	Sololá	702	San José Chacayá	5	Chacayá	2	Febrero	2023-02-24T00:00:00	2024-11-06T10:00:00	4	Temperatura máxima	20.1
80523	7	Sololá	702	San José Chacayá	5	Chacayá	2	Febrero	2023-02-24T00:00:00	2024-11-06T10:00:00	3	Temperatura mínima	18.6
80524	7	Sololá	702	San José Chacayá	5	Chacayá	2	Febrero	2023-02-24T00:00:00	2024-11-06T10:00:00	5	Humedad	34
80525	7	Sololá	702	San José Chacayá	5	Chacayá	2	Febrero	2023-02-24T00:00:00	2024-11-06T10:00:00	6	Velocidad del viento	4.8
80526	7	Sololá	702	San José Chacayá	5	Chacayá	2	Febrero	2023-02-24T00:00:00	2024-11-06T10:00:00	7	Dirección del viento	4.83
80527	7	Sololá	702	San José Chacayá	5	Chacayá	2	Febrero	2023-02-24T00:00:00	2024-11-06T10:00:00	1	Precipitación	0
80528	7	Sololá	702	San José Chacayá	5	Chacayá	2	Febrero	2023-02-24T00:00:00	2024-11-06T10:00:00	8	Radiación solar	697
80529	7	Sololá	702	San José Chacayá	5	Chacayá	2	Febrero	2023-02-24T00:00:00	2024-11-06T11:00:00	2	Temperatura media	21.1
80530	7	Sololá	702	San José Chacayá	5	Chacayá	2	Febrero	2023-02-24T00:00:00	2024-11-06T11:00:00	4	Temperatura máxima	21.1
80531	7	Sololá	702	San José Chacayá	5	Chacayá	2	Febrero	2023-02-24T00:00:00	2024-11-06T11:00:00	3	Temperatura mínima	19.9
80532	7	Sololá	702	San José Chacayá	5	Chacayá	2	Febrero	2023-02-24T00:00:00	2024-11-06T11:00:00	5	Humedad	34
80533	7	Sololá	702	San José Chacayá	5	Chacayá	2	Febrero	2023-02-24T00:00:00	2024-11-06T11:00:00	6	Velocidad del viento	8
80534	7	Sololá	702	San José Chacayá	5	Chacayá	2	Febrero	2023-02-24T00:00:00	2024-11-06T11:00:00	7	Dirección del viento	8.05
80535	7	Sololá	702	San José Chacayá	5	Chacayá	2	Febrero	2023-02-24T00:00:00	2024-11-06T11:00:00	1	Precipitación	0
80536	7	Sololá	702	San José Chacayá	5	Chacayá	2	Febrero	2023-02-24T00:00:00	2024-11-06T11:00:00	8	Radiación solar	851
80537	7	Sololá	702	San José Chacayá	5	Chacayá	2	Febrero	2023-02-24T00:00:00	2024-11-06T12:00:00	2	Temperatura media	21
80538	7	Sololá	702	San José Chacayá	5	Chacayá	2	Febrero	2023-02-24T00:00:00	2024-11-06T12:00:00	4	Temperatura máxima	21.7
80539	7	Sololá	702	San José Chacayá	5	Chacayá	2	Febrero	2023-02-24T00:00:00	2024-11-06T12:00:00	3	Temperatura mínima	20.9
80540	7	Sololá	702	San José Chacayá	5	Chacayá	2	Febrero	2023-02-24T00:00:00	2024-11-06T12:00:00	5	Humedad	40
80541	7	Sololá	702	San José Chacayá	5	Chacayá	2	Febrero	2023-02-24T00:00:00	2024-11-06T12:00:00	6	Velocidad del viento	8
80542	7	Sololá	702	San José Chacayá	5	Chacayá	2	Febrero	2023-02-24T00:00:00	2024-11-06T12:00:00	7	Dirección del viento	8.05
80543	7	Sololá	702	San José Chacayá	5	Chacayá	2	Febrero	2023-02-24T00:00:00	2024-11-06T12:00:00	1	Precipitación	0
80544	7	Sololá	702	San José Chacayá	5	Chacayá	2	Febrero	2023-02-24T00:00:00	2024-11-06T12:00:00	8	Radiación solar	908
80545	7	Sololá	702	San José Chacayá	5	Chacayá	2	Febrero	2023-02-24T00:00:00	2024-11-06T13:00:00	2	Temperatura media	21.1
80546	7	Sololá	702	San José Chacayá	5	Chacayá	2	Febrero	2023-02-24T00:00:00	2024-11-06T13:00:00	4	Temperatura máxima	21.4
80547	7	Sololá	702	San José Chacayá	5	Chacayá	2	Febrero	2023-02-24T00:00:00	2024-11-06T13:00:00	3	Temperatura mínima	20.5
80548	7	Sololá	702	San José Chacayá	5	Chacayá	2	Febrero	2023-02-24T00:00:00	2024-11-06T13:00:00	5	Humedad	54
80549	7	Sololá	702	San José Chacayá	5	Chacayá	2	Febrero	2023-02-24T00:00:00	2024-11-06T13:00:00	6	Velocidad del viento	8
80550	7	Sololá	702	San José Chacayá	5	Chacayá	2	Febrero	2023-02-24T00:00:00	2024-11-06T13:00:00	7	Dirección del viento	8.05
80551	7	Sololá	702	San José Chacayá	5	Chacayá	2	Febrero	2023-02-24T00:00:00	2024-11-06T13:00:00	1	Precipitación	0
80552	7	Sololá	702	San José Chacayá	5	Chacayá	2	Febrero	2023-02-24T00:00:00	2024-11-06T13:00:00	8	Radiación solar	944
80553	7	Sololá	702	San José Chacayá	5	Chacayá	2	Febrero	2023-02-24T00:00:00	2024-11-06T14:00:00	2	Temperatura media	21.2
80554	7	Sololá	702	San José Chacayá	5	Chacayá	2	Febrero	2023-02-24T00:00:00	2024-11-06T14:00:00	4	Temperatura máxima	21.4
80555	7	Sololá	702	San José Chacayá	5	Chacayá	2	Febrero	2023-02-24T00:00:00	2024-11-06T14:00:00	3	Temperatura mínima	20.7
80556	7	Sololá	702	San José Chacayá	5	Chacayá	2	Febrero	2023-02-24T00:00:00	2024-11-06T14:00:00	5	Humedad	60
80557	7	Sololá	702	San José Chacayá	5	Chacayá	2	Febrero	2023-02-24T00:00:00	2024-11-06T14:00:00	6	Velocidad del viento	6.4
80558	7	Sololá	702	San José Chacayá	5	Chacayá	2	Febrero	2023-02-24T00:00:00	2024-11-06T14:00:00	7	Dirección del viento	6.44
80559	7	Sololá	702	San José Chacayá	5	Chacayá	2	Febrero	2023-02-24T00:00:00	2024-11-06T14:00:00	1	Precipitación	0
80560	7	Sololá	702	San José Chacayá	5	Chacayá	2	Febrero	2023-02-24T00:00:00	2024-11-06T14:00:00	8	Radiación solar	882
80561	7	Sololá	702	San José Chacayá	5	Chacayá	2	Febrero	2023-02-24T00:00:00	2024-11-06T15:00:00	2	Temperatura media	19.1
80562	7	Sololá	702	San José Chacayá	5	Chacayá	2	Febrero	2023-02-24T00:00:00	2024-11-06T15:00:00	4	Temperatura máxima	21.2
80563	7	Sololá	702	San José Chacayá	5	Chacayá	2	Febrero	2023-02-24T00:00:00	2024-11-06T15:00:00	3	Temperatura mínima	19.1
80564	7	Sololá	702	San José Chacayá	5	Chacayá	2	Febrero	2023-02-24T00:00:00	2024-11-06T15:00:00	5	Humedad	70
80565	7	Sololá	702	San José Chacayá	5	Chacayá	2	Febrero	2023-02-24T00:00:00	2024-11-06T15:00:00	6	Velocidad del viento	6.4
80566	7	Sololá	702	San José Chacayá	5	Chacayá	2	Febrero	2023-02-24T00:00:00	2024-11-06T15:00:00	7	Dirección del viento	6.44
80567	7	Sololá	702	San José Chacayá	5	Chacayá	2	Febrero	2023-02-24T00:00:00	2024-11-06T15:00:00	1	Precipitación	0
80568	7	Sololá	702	San José Chacayá	5	Chacayá	2	Febrero	2023-02-24T00:00:00	2024-11-06T15:00:00	8	Radiación solar	744
80569	7	Sololá	702	San José Chacayá	5	Chacayá	2	Febrero	2023-02-24T00:00:00	2024-11-06T16:00:00	2	Temperatura media	18.4
80570	7	Sololá	702	San José Chacayá	5	Chacayá	2	Febrero	2023-02-24T00:00:00	2024-11-06T16:00:00	4	Temperatura máxima	19.2
80571	7	Sololá	702	San José Chacayá	5	Chacayá	2	Febrero	2023-02-24T00:00:00	2024-11-06T16:00:00	3	Temperatura mínima	18.4
80572	7	Sololá	702	San José Chacayá	5	Chacayá	2	Febrero	2023-02-24T00:00:00	2024-11-06T16:00:00	5	Humedad	74
80573	7	Sololá	702	San José Chacayá	5	Chacayá	2	Febrero	2023-02-24T00:00:00	2024-11-06T16:00:00	6	Velocidad del viento	8
80574	7	Sololá	702	San José Chacayá	5	Chacayá	2	Febrero	2023-02-24T00:00:00	2024-11-06T16:00:00	7	Dirección del viento	8.05
80575	7	Sololá	702	San José Chacayá	5	Chacayá	2	Febrero	2023-02-24T00:00:00	2024-11-06T16:00:00	1	Precipitación	0
80576	7	Sololá	702	San José Chacayá	5	Chacayá	2	Febrero	2023-02-24T00:00:00	2024-11-06T16:00:00	8	Radiación solar	570
80577	7	Sololá	702	San José Chacayá	5	Chacayá	2	Febrero	2023-02-24T00:00:00	2024-11-06T17:00:00	2	Temperatura media	16.9
80578	7	Sololá	702	San José Chacayá	5	Chacayá	2	Febrero	2023-02-24T00:00:00	2024-11-06T17:00:00	4	Temperatura máxima	18.6
80579	7	Sololá	702	San José Chacayá	5	Chacayá	2	Febrero	2023-02-24T00:00:00	2024-11-06T17:00:00	3	Temperatura mínima	16.9
80580	7	Sololá	702	San José Chacayá	5	Chacayá	2	Febrero	2023-02-24T00:00:00	2024-11-06T17:00:00	5	Humedad	78
80581	7	Sololá	702	San José Chacayá	5	Chacayá	2	Febrero	2023-02-24T00:00:00	2024-11-06T17:00:00	6	Velocidad del viento	4.8
80582	7	Sololá	702	San José Chacayá	5	Chacayá	2	Febrero	2023-02-24T00:00:00	2024-11-06T17:00:00	7	Dirección del viento	4.83
80583	7	Sololá	702	San José Chacayá	5	Chacayá	2	Febrero	2023-02-24T00:00:00	2024-11-06T17:00:00	1	Precipitación	0
80584	7	Sololá	702	San José Chacayá	5	Chacayá	2	Febrero	2023-02-24T00:00:00	2024-11-06T17:00:00	8	Radiación solar	331
80585	7	Sololá	702	San José Chacayá	5	Chacayá	2	Febrero	2023-02-24T00:00:00	2024-11-06T18:00:00	2	Temperatura media	15.3
80586	7	Sololá	702	San José Chacayá	5	Chacayá	2	Febrero	2023-02-24T00:00:00	2024-11-06T18:00:00	4	Temperatura máxima	17.2
80587	7	Sololá	702	San José Chacayá	5	Chacayá	2	Febrero	2023-02-24T00:00:00	2024-11-06T18:00:00	3	Temperatura mínima	15.3
80588	7	Sololá	702	San José Chacayá	5	Chacayá	2	Febrero	2023-02-24T00:00:00	2024-11-06T18:00:00	5	Humedad	83
80589	7	Sololá	702	San José Chacayá	5	Chacayá	2	Febrero	2023-02-24T00:00:00	2024-11-06T18:00:00	6	Velocidad del viento	0
80590	7	Sololá	702	San José Chacayá	5	Chacayá	2	Febrero	2023-02-24T00:00:00	2024-11-06T18:00:00	7	Dirección del viento	0
80591	7	Sololá	702	San José Chacayá	5	Chacayá	2	Febrero	2023-02-24T00:00:00	2024-11-06T18:00:00	1	Precipitación	0
80592	7	Sololá	702	San José Chacayá	5	Chacayá	2	Febrero	2023-02-24T00:00:00	2024-11-06T18:00:00	8	Radiación solar	61
80593	7	Sololá	702	San José Chacayá	5	Chacayá	2	Febrero	2023-02-24T00:00:00	2024-11-06T19:00:00	2	Temperatura media	13.2
80594	7	Sololá	702	San José Chacayá	5	Chacayá	2	Febrero	2023-02-24T00:00:00	2024-11-06T19:00:00	4	Temperatura máxima	15.3
80595	7	Sololá	702	San José Chacayá	5	Chacayá	2	Febrero	2023-02-24T00:00:00	2024-11-06T19:00:00	3	Temperatura mínima	13.2
80596	7	Sololá	702	San José Chacayá	5	Chacayá	2	Febrero	2023-02-24T00:00:00	2024-11-06T19:00:00	5	Humedad	83
80597	7	Sololá	702	San José Chacayá	5	Chacayá	2	Febrero	2023-02-24T00:00:00	2024-11-06T19:00:00	6	Velocidad del viento	1.6
80598	7	Sololá	702	San José Chacayá	5	Chacayá	2	Febrero	2023-02-24T00:00:00	2024-11-06T19:00:00	7	Dirección del viento	1.61
80599	7	Sololá	702	San José Chacayá	5	Chacayá	2	Febrero	2023-02-24T00:00:00	2024-11-06T19:00:00	1	Precipitación	0
80600	7	Sololá	702	San José Chacayá	5	Chacayá	2	Febrero	2023-02-24T00:00:00	2024-11-06T19:00:00	8	Radiación solar	1
80601	7	Sololá	702	San José Chacayá	5	Chacayá	2	Febrero	2023-02-24T00:00:00	2024-11-06T20:00:00	2	Temperatura media	14
80602	7	Sololá	702	San José Chacayá	5	Chacayá	2	Febrero	2023-02-24T00:00:00	2024-11-06T20:00:00	4	Temperatura máxima	14.2
80603	7	Sololá	702	San José Chacayá	5	Chacayá	2	Febrero	2023-02-24T00:00:00	2024-11-06T20:00:00	3	Temperatura mínima	12.4
80604	7	Sololá	702	San José Chacayá	5	Chacayá	2	Febrero	2023-02-24T00:00:00	2024-11-06T20:00:00	5	Humedad	74
80605	7	Sololá	702	San José Chacayá	5	Chacayá	2	Febrero	2023-02-24T00:00:00	2024-11-06T20:00:00	6	Velocidad del viento	1.6
80606	7	Sololá	702	San José Chacayá	5	Chacayá	2	Febrero	2023-02-24T00:00:00	2024-11-06T20:00:00	7	Dirección del viento	1.61
80607	7	Sololá	702	San José Chacayá	5	Chacayá	2	Febrero	2023-02-24T00:00:00	2024-11-06T20:00:00	1	Precipitación	0
80608	7	Sololá	702	San José Chacayá	5	Chacayá	2	Febrero	2023-02-24T00:00:00	2024-11-06T20:00:00	8	Radiación solar	0
80609	7	Sololá	702	San José Chacayá	5	Chacayá	2	Febrero	2023-02-24T00:00:00	2024-11-06T21:00:00	2	Temperatura media	11.7
80610	7	Sololá	702	San José Chacayá	5	Chacayá	2	Febrero	2023-02-24T00:00:00	2024-11-06T21:00:00	4	Temperatura máxima	14.1
80611	7	Sololá	702	San José Chacayá	5	Chacayá	2	Febrero	2023-02-24T00:00:00	2024-11-06T21:00:00	3	Temperatura mínima	11.7
80612	7	Sololá	702	San José Chacayá	5	Chacayá	2	Febrero	2023-02-24T00:00:00	2024-11-06T21:00:00	5	Humedad	81
80613	7	Sololá	702	San José Chacayá	5	Chacayá	2	Febrero	2023-02-24T00:00:00	2024-11-06T21:00:00	6	Velocidad del viento	1.6
80614	7	Sololá	702	San José Chacayá	5	Chacayá	2	Febrero	2023-02-24T00:00:00	2024-11-06T21:00:00	7	Dirección del viento	1.61
80615	7	Sololá	702	San José Chacayá	5	Chacayá	2	Febrero	2023-02-24T00:00:00	2024-11-06T21:00:00	1	Precipitación	0
80616	7	Sololá	702	San José Chacayá	5	Chacayá	2	Febrero	2023-02-24T00:00:00	2024-11-06T21:00:00	8	Radiación solar	0
80617	7	Sololá	702	San José Chacayá	5	Chacayá	2	Febrero	2023-02-24T00:00:00	2024-11-06T22:00:00	2	Temperatura media	10.1
80618	7	Sololá	702	San José Chacayá	5	Chacayá	2	Febrero	2023-02-24T00:00:00	2024-11-06T22:00:00	4	Temperatura máxima	11.7
80619	7	Sololá	702	San José Chacayá	5	Chacayá	2	Febrero	2023-02-24T00:00:00	2024-11-06T22:00:00	3	Temperatura mínima	10.1
80620	7	Sololá	702	San José Chacayá	5	Chacayá	2	Febrero	2023-02-24T00:00:00	2024-11-06T22:00:00	5	Humedad	84
80621	7	Sololá	702	San José Chacayá	5	Chacayá	2	Febrero	2023-02-24T00:00:00	2024-11-06T22:00:00	6	Velocidad del viento	3.2
80622	7	Sololá	702	San José Chacayá	5	Chacayá	2	Febrero	2023-02-24T00:00:00	2024-11-06T22:00:00	7	Dirección del viento	3.22
80623	7	Sololá	702	San José Chacayá	5	Chacayá	2	Febrero	2023-02-24T00:00:00	2024-11-06T22:00:00	1	Precipitación	0
80624	7	Sololá	702	San José Chacayá	5	Chacayá	2	Febrero	2023-02-24T00:00:00	2024-11-06T22:00:00	8	Radiación solar	0
80625	7	Sololá	702	San José Chacayá	5	Chacayá	2	Febrero	2023-02-24T00:00:00	2024-11-06T23:00:00	2	Temperatura media	9.4
80626	7	Sololá	702	San José Chacayá	5	Chacayá	2	Febrero	2023-02-24T00:00:00	2024-11-06T23:00:00	4	Temperatura máxima	10.1
80627	7	Sololá	702	San José Chacayá	5	Chacayá	2	Febrero	2023-02-24T00:00:00	2024-11-06T23:00:00	3	Temperatura mínima	9.4
80628	7	Sololá	702	San José Chacayá	5	Chacayá	2	Febrero	2023-02-24T00:00:00	2024-11-06T23:00:00	5	Humedad	84
80629	7	Sololá	702	San José Chacayá	5	Chacayá	2	Febrero	2023-02-24T00:00:00	2024-11-06T23:00:00	6	Velocidad del viento	3.2
80630	7	Sololá	702	San José Chacayá	5	Chacayá	2	Febrero	2023-02-24T00:00:00	2024-11-06T23:00:00	7	Dirección del viento	3.22
80631	7	Sololá	702	San José Chacayá	5	Chacayá	2	Febrero	2023-02-24T00:00:00	2024-11-06T23:00:00	1	Precipitación	0
80632	7	Sololá	702	San José Chacayá	5	Chacayá	2	Febrero	2023-02-24T00:00:00	2024-11-06T23:00:00	8	Radiación solar	0
80633	7	Sololá	702	San José Chacayá	5	Chacayá	2	Febrero	2023-02-25T00:00:00	2024-11-06T00:00:00	2	Temperatura media	8.1
80634	7	Sololá	702	San José Chacayá	5	Chacayá	2	Febrero	2023-02-25T00:00:00	2024-11-06T00:00:00	4	Temperatura máxima	9.4
80635	7	Sololá	702	San José Chacayá	5	Chacayá	2	Febrero	2023-02-25T00:00:00	2024-11-06T00:00:00	3	Temperatura mínima	8.1
80636	7	Sololá	702	San José Chacayá	5	Chacayá	2	Febrero	2023-02-25T00:00:00	2024-11-06T00:00:00	5	Humedad	83
80637	7	Sololá	702	San José Chacayá	5	Chacayá	2	Febrero	2023-02-25T00:00:00	2024-11-06T00:00:00	6	Velocidad del viento	3.2
80638	7	Sololá	702	San José Chacayá	5	Chacayá	2	Febrero	2023-02-25T00:00:00	2024-11-06T00:00:00	7	Dirección del viento	3.22
80639	7	Sololá	702	San José Chacayá	5	Chacayá	2	Febrero	2023-02-25T00:00:00	2024-11-06T00:00:00	1	Precipitación	0
80640	7	Sololá	702	San José Chacayá	5	Chacayá	2	Febrero	2023-02-25T00:00:00	2024-11-06T00:00:00	8	Radiación solar	0
80641	7	Sololá	702	San José Chacayá	5	Chacayá	2	Febrero	2023-02-25T00:00:00	2024-11-06T01:00:00	2	Temperatura media	7.3
80642	7	Sololá	702	San José Chacayá	5	Chacayá	2	Febrero	2023-02-25T00:00:00	2024-11-06T01:00:00	4	Temperatura máxima	8.1
80643	7	Sololá	702	San José Chacayá	5	Chacayá	2	Febrero	2023-02-25T00:00:00	2024-11-06T01:00:00	3	Temperatura mínima	7.2
80644	7	Sololá	702	San José Chacayá	5	Chacayá	2	Febrero	2023-02-25T00:00:00	2024-11-06T01:00:00	5	Humedad	84
80645	7	Sololá	702	San José Chacayá	5	Chacayá	2	Febrero	2023-02-25T00:00:00	2024-11-06T01:00:00	6	Velocidad del viento	3.2
80646	7	Sololá	702	San José Chacayá	5	Chacayá	2	Febrero	2023-02-25T00:00:00	2024-11-06T01:00:00	7	Dirección del viento	3.22
80647	7	Sololá	702	San José Chacayá	5	Chacayá	2	Febrero	2023-02-25T00:00:00	2024-11-06T01:00:00	1	Precipitación	0
80648	7	Sololá	702	San José Chacayá	5	Chacayá	2	Febrero	2023-02-25T00:00:00	2024-11-06T01:00:00	8	Radiación solar	0
80649	7	Sololá	702	San José Chacayá	5	Chacayá	2	Febrero	2023-02-25T00:00:00	2024-11-06T02:00:00	2	Temperatura media	6.7
80650	7	Sololá	702	San José Chacayá	5	Chacayá	2	Febrero	2023-02-25T00:00:00	2024-11-06T02:00:00	4	Temperatura máxima	7.7
80651	7	Sololá	702	San José Chacayá	5	Chacayá	2	Febrero	2023-02-25T00:00:00	2024-11-06T02:00:00	3	Temperatura mínima	6.7
80652	7	Sololá	702	San José Chacayá	5	Chacayá	2	Febrero	2023-02-25T00:00:00	2024-11-06T02:00:00	5	Humedad	82
80653	7	Sololá	702	San José Chacayá	5	Chacayá	2	Febrero	2023-02-25T00:00:00	2024-11-06T02:00:00	6	Velocidad del viento	4.8
80654	7	Sololá	702	San José Chacayá	5	Chacayá	2	Febrero	2023-02-25T00:00:00	2024-11-06T02:00:00	7	Dirección del viento	4.83
80655	7	Sololá	702	San José Chacayá	5	Chacayá	2	Febrero	2023-02-25T00:00:00	2024-11-06T02:00:00	1	Precipitación	0
80656	7	Sololá	702	San José Chacayá	5	Chacayá	2	Febrero	2023-02-25T00:00:00	2024-11-06T02:00:00	8	Radiación solar	0
80657	7	Sololá	702	San José Chacayá	5	Chacayá	2	Febrero	2023-02-25T00:00:00	2024-11-06T03:00:00	2	Temperatura media	6.2
80658	7	Sololá	702	San José Chacayá	5	Chacayá	2	Febrero	2023-02-25T00:00:00	2024-11-06T03:00:00	4	Temperatura máxima	6.7
80659	7	Sololá	702	San José Chacayá	5	Chacayá	2	Febrero	2023-02-25T00:00:00	2024-11-06T03:00:00	3	Temperatura mínima	6.1
80660	7	Sololá	702	San José Chacayá	5	Chacayá	2	Febrero	2023-02-25T00:00:00	2024-11-06T03:00:00	5	Humedad	82
80661	7	Sololá	702	San José Chacayá	5	Chacayá	2	Febrero	2023-02-25T00:00:00	2024-11-06T03:00:00	6	Velocidad del viento	3.2
80662	7	Sololá	702	San José Chacayá	5	Chacayá	2	Febrero	2023-02-25T00:00:00	2024-11-06T03:00:00	7	Dirección del viento	3.22
80663	7	Sololá	702	San José Chacayá	5	Chacayá	2	Febrero	2023-02-25T00:00:00	2024-11-06T03:00:00	1	Precipitación	0
80664	7	Sololá	702	San José Chacayá	5	Chacayá	2	Febrero	2023-02-25T00:00:00	2024-11-06T03:00:00	8	Radiación solar	0
80665	7	Sololá	702	San José Chacayá	5	Chacayá	2	Febrero	2023-02-25T00:00:00	2024-11-06T04:00:00	2	Temperatura media	5.7
80666	7	Sololá	702	San José Chacayá	5	Chacayá	2	Febrero	2023-02-25T00:00:00	2024-11-06T04:00:00	4	Temperatura máxima	6.3
80667	7	Sololá	702	San José Chacayá	5	Chacayá	2	Febrero	2023-02-25T00:00:00	2024-11-06T04:00:00	3	Temperatura mínima	5.5
80668	7	Sololá	702	San José Chacayá	5	Chacayá	2	Febrero	2023-02-25T00:00:00	2024-11-06T04:00:00	5	Humedad	81
80669	7	Sololá	702	San José Chacayá	5	Chacayá	2	Febrero	2023-02-25T00:00:00	2024-11-06T04:00:00	6	Velocidad del viento	4.8
80670	7	Sololá	702	San José Chacayá	5	Chacayá	2	Febrero	2023-02-25T00:00:00	2024-11-06T04:00:00	7	Dirección del viento	4.83
80671	7	Sololá	702	San José Chacayá	5	Chacayá	2	Febrero	2023-02-25T00:00:00	2024-11-06T04:00:00	1	Precipitación	0
80672	7	Sololá	702	San José Chacayá	5	Chacayá	2	Febrero	2023-02-25T00:00:00	2024-11-06T04:00:00	8	Radiación solar	0
80673	7	Sololá	702	San José Chacayá	5	Chacayá	2	Febrero	2023-02-25T00:00:00	2024-11-06T05:00:00	2	Temperatura media	5
80674	7	Sololá	702	San José Chacayá	5	Chacayá	2	Febrero	2023-02-25T00:00:00	2024-11-06T05:00:00	4	Temperatura máxima	5.7
80675	7	Sololá	702	San José Chacayá	5	Chacayá	2	Febrero	2023-02-25T00:00:00	2024-11-06T05:00:00	3	Temperatura mínima	4.9
80676	7	Sololá	702	San José Chacayá	5	Chacayá	2	Febrero	2023-02-25T00:00:00	2024-11-06T05:00:00	5	Humedad	81
80677	7	Sololá	702	San José Chacayá	5	Chacayá	2	Febrero	2023-02-25T00:00:00	2024-11-06T05:00:00	6	Velocidad del viento	3.2
80678	7	Sololá	702	San José Chacayá	5	Chacayá	2	Febrero	2023-02-25T00:00:00	2024-11-06T05:00:00	7	Dirección del viento	3.22
80679	7	Sololá	702	San José Chacayá	5	Chacayá	2	Febrero	2023-02-25T00:00:00	2024-11-06T05:00:00	1	Precipitación	0
80680	7	Sololá	702	San José Chacayá	5	Chacayá	2	Febrero	2023-02-25T00:00:00	2024-11-06T05:00:00	8	Radiación solar	0
80681	7	Sololá	702	San José Chacayá	5	Chacayá	2	Febrero	2023-02-25T00:00:00	2024-11-06T06:00:00	2	Temperatura media	4.9
80682	7	Sololá	702	San José Chacayá	5	Chacayá	2	Febrero	2023-02-25T00:00:00	2024-11-06T06:00:00	4	Temperatura máxima	5
80683	7	Sololá	702	San José Chacayá	5	Chacayá	2	Febrero	2023-02-25T00:00:00	2024-11-06T06:00:00	3	Temperatura mínima	4.7
80684	7	Sololá	702	San José Chacayá	5	Chacayá	2	Febrero	2023-02-25T00:00:00	2024-11-06T06:00:00	5	Humedad	79
80685	7	Sololá	702	San José Chacayá	5	Chacayá	2	Febrero	2023-02-25T00:00:00	2024-11-06T06:00:00	6	Velocidad del viento	4.8
80686	7	Sololá	702	San José Chacayá	5	Chacayá	2	Febrero	2023-02-25T00:00:00	2024-11-06T06:00:00	7	Dirección del viento	4.83
80687	7	Sololá	702	San José Chacayá	5	Chacayá	2	Febrero	2023-02-25T00:00:00	2024-11-06T06:00:00	1	Precipitación	0
80688	7	Sololá	702	San José Chacayá	5	Chacayá	2	Febrero	2023-02-25T00:00:00	2024-11-06T06:00:00	8	Radiación solar	0
80689	7	Sololá	702	San José Chacayá	5	Chacayá	2	Febrero	2023-02-25T00:00:00	2024-11-06T07:00:00	2	Temperatura media	6.2
80690	7	Sololá	702	San José Chacayá	5	Chacayá	2	Febrero	2023-02-25T00:00:00	2024-11-06T07:00:00	4	Temperatura máxima	6.2
80691	7	Sololá	702	San José Chacayá	5	Chacayá	2	Febrero	2023-02-25T00:00:00	2024-11-06T07:00:00	3	Temperatura mínima	4.6
80692	7	Sololá	702	San José Chacayá	5	Chacayá	2	Febrero	2023-02-25T00:00:00	2024-11-06T07:00:00	5	Humedad	78
80693	7	Sololá	702	San José Chacayá	5	Chacayá	2	Febrero	2023-02-25T00:00:00	2024-11-06T07:00:00	6	Velocidad del viento	4.8
80694	7	Sololá	702	San José Chacayá	5	Chacayá	2	Febrero	2023-02-25T00:00:00	2024-11-06T07:00:00	7	Dirección del viento	4.83
80695	7	Sololá	702	San José Chacayá	5	Chacayá	2	Febrero	2023-02-25T00:00:00	2024-11-06T07:00:00	1	Precipitación	0
80696	7	Sololá	702	San José Chacayá	5	Chacayá	2	Febrero	2023-02-25T00:00:00	2024-11-06T07:00:00	8	Radiación solar	19
80697	7	Sololá	702	San José Chacayá	5	Chacayá	2	Febrero	2023-02-25T00:00:00	2024-11-06T08:00:00	2	Temperatura media	13.4
80698	7	Sololá	702	San José Chacayá	5	Chacayá	2	Febrero	2023-02-25T00:00:00	2024-11-06T08:00:00	4	Temperatura máxima	13.4
80699	7	Sololá	702	San José Chacayá	5	Chacayá	2	Febrero	2023-02-25T00:00:00	2024-11-06T08:00:00	3	Temperatura mínima	6.2
80700	7	Sololá	702	San José Chacayá	5	Chacayá	2	Febrero	2023-02-25T00:00:00	2024-11-06T08:00:00	5	Humedad	62
80701	7	Sololá	702	San José Chacayá	5	Chacayá	2	Febrero	2023-02-25T00:00:00	2024-11-06T08:00:00	6	Velocidad del viento	4.8
80702	7	Sololá	702	San José Chacayá	5	Chacayá	2	Febrero	2023-02-25T00:00:00	2024-11-06T08:00:00	7	Dirección del viento	4.83
80703	7	Sololá	702	San José Chacayá	5	Chacayá	2	Febrero	2023-02-25T00:00:00	2024-11-06T08:00:00	1	Precipitación	0
80704	7	Sololá	702	San José Chacayá	5	Chacayá	2	Febrero	2023-02-25T00:00:00	2024-11-06T08:00:00	8	Radiación solar	210
80705	7	Sololá	702	San José Chacayá	5	Chacayá	2	Febrero	2023-02-25T00:00:00	2024-11-06T09:00:00	2	Temperatura media	19.9
80706	7	Sololá	702	San José Chacayá	5	Chacayá	2	Febrero	2023-02-25T00:00:00	2024-11-06T09:00:00	4	Temperatura máxima	19.9
80707	7	Sololá	702	San José Chacayá	5	Chacayá	2	Febrero	2023-02-25T00:00:00	2024-11-06T09:00:00	3	Temperatura mínima	13.4
80708	7	Sololá	702	San José Chacayá	5	Chacayá	2	Febrero	2023-02-25T00:00:00	2024-11-06T09:00:00	5	Humedad	36
80709	7	Sololá	702	San José Chacayá	5	Chacayá	2	Febrero	2023-02-25T00:00:00	2024-11-06T09:00:00	6	Velocidad del viento	1.6
80710	7	Sololá	702	San José Chacayá	5	Chacayá	2	Febrero	2023-02-25T00:00:00	2024-11-06T09:00:00	7	Dirección del viento	1.61
80711	7	Sololá	702	San José Chacayá	5	Chacayá	2	Febrero	2023-02-25T00:00:00	2024-11-06T09:00:00	1	Precipitación	0
80712	7	Sololá	702	San José Chacayá	5	Chacayá	2	Febrero	2023-02-25T00:00:00	2024-11-06T09:00:00	8	Radiación solar	481
80713	7	Sololá	702	San José Chacayá	5	Chacayá	2	Febrero	2023-02-25T00:00:00	2024-11-06T10:00:00	2	Temperatura media	20.9
80714	7	Sololá	702	San José Chacayá	5	Chacayá	2	Febrero	2023-02-25T00:00:00	2024-11-06T10:00:00	4	Temperatura máxima	21.1
80715	7	Sololá	702	San José Chacayá	5	Chacayá	2	Febrero	2023-02-25T00:00:00	2024-11-06T10:00:00	3	Temperatura mínima	19.6
80716	7	Sololá	702	San José Chacayá	5	Chacayá	2	Febrero	2023-02-25T00:00:00	2024-11-06T10:00:00	5	Humedad	32
80717	7	Sololá	702	San José Chacayá	5	Chacayá	2	Febrero	2023-02-25T00:00:00	2024-11-06T10:00:00	6	Velocidad del viento	4.8
80718	7	Sololá	702	San José Chacayá	5	Chacayá	2	Febrero	2023-02-25T00:00:00	2024-11-06T10:00:00	7	Dirección del viento	4.83
80719	7	Sololá	702	San José Chacayá	5	Chacayá	2	Febrero	2023-02-25T00:00:00	2024-11-06T10:00:00	1	Precipitación	0
80720	7	Sololá	702	San José Chacayá	5	Chacayá	2	Febrero	2023-02-25T00:00:00	2024-11-06T10:00:00	8	Radiación solar	700
80721	7	Sololá	702	San José Chacayá	5	Chacayá	2	Febrero	2023-02-25T00:00:00	2024-11-06T11:00:00	2	Temperatura media	22.3
80722	7	Sololá	702	San José Chacayá	5	Chacayá	2	Febrero	2023-02-25T00:00:00	2024-11-06T11:00:00	4	Temperatura máxima	22.3
80723	7	Sololá	702	San José Chacayá	5	Chacayá	2	Febrero	2023-02-25T00:00:00	2024-11-06T11:00:00	3	Temperatura mínima	21
80724	7	Sololá	702	San José Chacayá	5	Chacayá	2	Febrero	2023-02-25T00:00:00	2024-11-06T11:00:00	5	Humedad	35
80725	7	Sololá	702	San José Chacayá	5	Chacayá	2	Febrero	2023-02-25T00:00:00	2024-11-06T11:00:00	6	Velocidad del viento	4.8
80726	7	Sololá	702	San José Chacayá	5	Chacayá	2	Febrero	2023-02-25T00:00:00	2024-11-06T11:00:00	7	Dirección del viento	4.83
80727	7	Sololá	702	San José Chacayá	5	Chacayá	2	Febrero	2023-02-25T00:00:00	2024-11-06T11:00:00	1	Precipitación	0
80728	7	Sololá	702	San José Chacayá	5	Chacayá	2	Febrero	2023-02-25T00:00:00	2024-11-06T11:00:00	8	Radiación solar	850
80729	7	Sololá	702	San José Chacayá	5	Chacayá	2	Febrero	2023-02-25T00:00:00	2024-11-06T12:00:00	2	Temperatura media	22.5
80730	7	Sololá	702	San José Chacayá	5	Chacayá	2	Febrero	2023-02-25T00:00:00	2024-11-06T12:00:00	4	Temperatura máxima	22.9
80731	7	Sololá	702	San José Chacayá	5	Chacayá	2	Febrero	2023-02-25T00:00:00	2024-11-06T12:00:00	3	Temperatura mínima	22.1
80732	7	Sololá	702	San José Chacayá	5	Chacayá	2	Febrero	2023-02-25T00:00:00	2024-11-06T12:00:00	5	Humedad	34
80733	7	Sololá	702	San José Chacayá	5	Chacayá	2	Febrero	2023-02-25T00:00:00	2024-11-06T12:00:00	6	Velocidad del viento	4.8
80734	7	Sololá	702	San José Chacayá	5	Chacayá	2	Febrero	2023-02-25T00:00:00	2024-11-06T12:00:00	7	Dirección del viento	4.83
80735	7	Sololá	702	San José Chacayá	5	Chacayá	2	Febrero	2023-02-25T00:00:00	2024-11-06T12:00:00	1	Precipitación	0
80736	7	Sololá	702	San José Chacayá	5	Chacayá	2	Febrero	2023-02-25T00:00:00	2024-11-06T12:00:00	8	Radiación solar	915
80737	7	Sololá	702	San José Chacayá	5	Chacayá	2	Febrero	2023-02-25T00:00:00	2024-11-06T13:00:00	2	Temperatura media	23.4
80738	7	Sololá	702	San José Chacayá	5	Chacayá	2	Febrero	2023-02-25T00:00:00	2024-11-06T13:00:00	4	Temperatura máxima	23.5
80739	7	Sololá	702	San José Chacayá	5	Chacayá	2	Febrero	2023-02-25T00:00:00	2024-11-06T13:00:00	3	Temperatura mínima	22.4
80740	7	Sololá	702	San José Chacayá	5	Chacayá	2	Febrero	2023-02-25T00:00:00	2024-11-06T13:00:00	5	Humedad	38
80741	7	Sololá	702	San José Chacayá	5	Chacayá	2	Febrero	2023-02-25T00:00:00	2024-11-06T13:00:00	6	Velocidad del viento	6.4
80742	7	Sololá	702	San José Chacayá	5	Chacayá	2	Febrero	2023-02-25T00:00:00	2024-11-06T13:00:00	7	Dirección del viento	6.44
80743	7	Sololá	702	San José Chacayá	5	Chacayá	2	Febrero	2023-02-25T00:00:00	2024-11-06T13:00:00	1	Precipitación	0
80744	7	Sololá	702	San José Chacayá	5	Chacayá	2	Febrero	2023-02-25T00:00:00	2024-11-06T13:00:00	8	Radiación solar	958
80745	7	Sololá	702	San José Chacayá	5	Chacayá	2	Febrero	2023-02-25T00:00:00	2024-11-06T14:00:00	2	Temperatura media	22.8
80746	7	Sololá	702	San José Chacayá	5	Chacayá	2	Febrero	2023-02-25T00:00:00	2024-11-06T14:00:00	4	Temperatura máxima	23.5
80747	7	Sololá	702	San José Chacayá	5	Chacayá	2	Febrero	2023-02-25T00:00:00	2024-11-06T14:00:00	3	Temperatura mínima	22.8
80748	7	Sololá	702	San José Chacayá	5	Chacayá	2	Febrero	2023-02-25T00:00:00	2024-11-06T14:00:00	5	Humedad	56
80749	7	Sololá	702	San José Chacayá	5	Chacayá	2	Febrero	2023-02-25T00:00:00	2024-11-06T14:00:00	6	Velocidad del viento	8
80750	7	Sololá	702	San José Chacayá	5	Chacayá	2	Febrero	2023-02-25T00:00:00	2024-11-06T14:00:00	7	Dirección del viento	8.05
80751	7	Sololá	702	San José Chacayá	5	Chacayá	2	Febrero	2023-02-25T00:00:00	2024-11-06T14:00:00	1	Precipitación	0
80752	7	Sololá	702	San José Chacayá	5	Chacayá	2	Febrero	2023-02-25T00:00:00	2024-11-06T14:00:00	8	Radiación solar	890
80753	7	Sololá	702	San José Chacayá	5	Chacayá	2	Febrero	2023-02-25T00:00:00	2024-11-06T15:00:00	2	Temperatura media	22.9
80754	7	Sololá	702	San José Chacayá	5	Chacayá	2	Febrero	2023-02-25T00:00:00	2024-11-06T15:00:00	4	Temperatura máxima	23.1
80755	7	Sololá	702	San José Chacayá	5	Chacayá	2	Febrero	2023-02-25T00:00:00	2024-11-06T15:00:00	3	Temperatura mínima	22.1
80756	7	Sololá	702	San José Chacayá	5	Chacayá	2	Febrero	2023-02-25T00:00:00	2024-11-06T15:00:00	5	Humedad	57
80757	7	Sololá	702	San José Chacayá	5	Chacayá	2	Febrero	2023-02-25T00:00:00	2024-11-06T15:00:00	6	Velocidad del viento	4.8
80758	7	Sololá	702	San José Chacayá	5	Chacayá	2	Febrero	2023-02-25T00:00:00	2024-11-06T15:00:00	7	Dirección del viento	4.83
80759	7	Sololá	702	San José Chacayá	5	Chacayá	2	Febrero	2023-02-25T00:00:00	2024-11-06T15:00:00	1	Precipitación	0
80760	7	Sololá	702	San José Chacayá	5	Chacayá	2	Febrero	2023-02-25T00:00:00	2024-11-06T15:00:00	8	Radiación solar	746
80761	7	Sololá	702	San José Chacayá	5	Chacayá	2	Febrero	2023-02-25T00:00:00	2024-11-06T16:00:00	2	Temperatura media	21.3
80762	7	Sololá	702	San José Chacayá	5	Chacayá	2	Febrero	2023-02-25T00:00:00	2024-11-06T16:00:00	4	Temperatura máxima	22.9
80763	7	Sololá	702	San José Chacayá	5	Chacayá	2	Febrero	2023-02-25T00:00:00	2024-11-06T16:00:00	3	Temperatura mínima	21.3
80764	7	Sololá	702	San José Chacayá	5	Chacayá	2	Febrero	2023-02-25T00:00:00	2024-11-06T16:00:00	5	Humedad	64
80765	7	Sololá	702	San José Chacayá	5	Chacayá	2	Febrero	2023-02-25T00:00:00	2024-11-06T16:00:00	6	Velocidad del viento	3.2
80766	7	Sololá	702	San José Chacayá	5	Chacayá	2	Febrero	2023-02-25T00:00:00	2024-11-06T16:00:00	7	Dirección del viento	3.22
80767	7	Sololá	702	San José Chacayá	5	Chacayá	2	Febrero	2023-02-25T00:00:00	2024-11-06T16:00:00	1	Precipitación	0
80768	7	Sololá	702	San José Chacayá	5	Chacayá	2	Febrero	2023-02-25T00:00:00	2024-11-06T16:00:00	8	Radiación solar	561
80769	7	Sololá	702	San José Chacayá	5	Chacayá	2	Febrero	2023-02-25T00:00:00	2024-11-06T17:00:00	2	Temperatura media	19.8
80770	7	Sololá	702	San José Chacayá	5	Chacayá	2	Febrero	2023-02-25T00:00:00	2024-11-06T17:00:00	4	Temperatura máxima	21.3
80771	7	Sololá	702	San José Chacayá	5	Chacayá	2	Febrero	2023-02-25T00:00:00	2024-11-06T17:00:00	3	Temperatura mínima	19.8
80772	7	Sololá	702	San José Chacayá	5	Chacayá	2	Febrero	2023-02-25T00:00:00	2024-11-06T17:00:00	5	Humedad	69
80773	7	Sololá	702	San José Chacayá	5	Chacayá	2	Febrero	2023-02-25T00:00:00	2024-11-06T17:00:00	6	Velocidad del viento	3.2
80774	7	Sololá	702	San José Chacayá	5	Chacayá	2	Febrero	2023-02-25T00:00:00	2024-11-06T17:00:00	7	Dirección del viento	3.22
80775	7	Sololá	702	San José Chacayá	5	Chacayá	2	Febrero	2023-02-25T00:00:00	2024-11-06T17:00:00	1	Precipitación	0
80776	7	Sololá	702	San José Chacayá	5	Chacayá	2	Febrero	2023-02-25T00:00:00	2024-11-06T17:00:00	8	Radiación solar	342
80777	7	Sololá	702	San José Chacayá	5	Chacayá	2	Febrero	2023-02-25T00:00:00	2024-11-06T18:00:00	2	Temperatura media	17.6
80778	7	Sololá	702	San José Chacayá	5	Chacayá	2	Febrero	2023-02-25T00:00:00	2024-11-06T18:00:00	4	Temperatura máxima	19.8
80779	7	Sololá	702	San José Chacayá	5	Chacayá	2	Febrero	2023-02-25T00:00:00	2024-11-06T18:00:00	3	Temperatura mínima	17.6
80780	7	Sololá	702	San José Chacayá	5	Chacayá	2	Febrero	2023-02-25T00:00:00	2024-11-06T18:00:00	5	Humedad	64
80781	7	Sololá	702	San José Chacayá	5	Chacayá	2	Febrero	2023-02-25T00:00:00	2024-11-06T18:00:00	6	Velocidad del viento	1.6
80782	7	Sololá	702	San José Chacayá	5	Chacayá	2	Febrero	2023-02-25T00:00:00	2024-11-06T18:00:00	7	Dirección del viento	1.61
80783	7	Sololá	702	San José Chacayá	5	Chacayá	2	Febrero	2023-02-25T00:00:00	2024-11-06T18:00:00	1	Precipitación	0
80784	7	Sololá	702	San José Chacayá	5	Chacayá	2	Febrero	2023-02-25T00:00:00	2024-11-06T18:00:00	8	Radiación solar	54
80785	7	Sololá	702	San José Chacayá	5	Chacayá	2	Febrero	2023-02-25T00:00:00	2024-11-06T19:00:00	2	Temperatura media	15.8
80786	7	Sololá	702	San José Chacayá	5	Chacayá	2	Febrero	2023-02-25T00:00:00	2024-11-06T19:00:00	4	Temperatura máxima	17.6
80787	7	Sololá	702	San José Chacayá	5	Chacayá	2	Febrero	2023-02-25T00:00:00	2024-11-06T19:00:00	3	Temperatura mínima	15.8
80788	7	Sololá	702	San José Chacayá	5	Chacayá	2	Febrero	2023-02-25T00:00:00	2024-11-06T19:00:00	5	Humedad	73
80789	7	Sololá	702	San José Chacayá	5	Chacayá	2	Febrero	2023-02-25T00:00:00	2024-11-06T19:00:00	6	Velocidad del viento	4.8
80790	7	Sololá	702	San José Chacayá	5	Chacayá	2	Febrero	2023-02-25T00:00:00	2024-11-06T19:00:00	7	Dirección del viento	4.83
80791	7	Sololá	702	San José Chacayá	5	Chacayá	2	Febrero	2023-02-25T00:00:00	2024-11-06T19:00:00	1	Precipitación	0
80792	7	Sololá	702	San José Chacayá	5	Chacayá	2	Febrero	2023-02-25T00:00:00	2024-11-06T19:00:00	8	Radiación solar	1
80793	7	Sololá	702	San José Chacayá	5	Chacayá	2	Febrero	2023-02-25T00:00:00	2024-11-06T20:00:00	2	Temperatura media	14.7
80794	7	Sololá	702	San José Chacayá	5	Chacayá	2	Febrero	2023-02-25T00:00:00	2024-11-06T20:00:00	4	Temperatura máxima	15.8
80795	7	Sololá	702	San José Chacayá	5	Chacayá	2	Febrero	2023-02-25T00:00:00	2024-11-06T20:00:00	3	Temperatura mínima	14.7
80796	7	Sololá	702	San José Chacayá	5	Chacayá	2	Febrero	2023-02-25T00:00:00	2024-11-06T20:00:00	5	Humedad	74
80797	7	Sololá	702	San José Chacayá	5	Chacayá	2	Febrero	2023-02-25T00:00:00	2024-11-06T20:00:00	6	Velocidad del viento	3.2
80798	7	Sololá	702	San José Chacayá	5	Chacayá	2	Febrero	2023-02-25T00:00:00	2024-11-06T20:00:00	7	Dirección del viento	3.22
80799	7	Sololá	702	San José Chacayá	5	Chacayá	2	Febrero	2023-02-25T00:00:00	2024-11-06T20:00:00	1	Precipitación	0
80800	7	Sololá	702	San José Chacayá	5	Chacayá	2	Febrero	2023-02-25T00:00:00	2024-11-06T20:00:00	8	Radiación solar	0
80801	7	Sololá	702	San José Chacayá	5	Chacayá	2	Febrero	2023-02-25T00:00:00	2024-11-06T21:00:00	2	Temperatura media	10.8
80802	7	Sololá	702	San José Chacayá	5	Chacayá	2	Febrero	2023-02-25T00:00:00	2024-11-06T21:00:00	4	Temperatura máxima	14.7
80803	7	Sololá	702	San José Chacayá	5	Chacayá	2	Febrero	2023-02-25T00:00:00	2024-11-06T21:00:00	3	Temperatura mínima	10.8
80804	7	Sololá	702	San José Chacayá	5	Chacayá	2	Febrero	2023-02-25T00:00:00	2024-11-06T21:00:00	5	Humedad	82
80805	7	Sololá	702	San José Chacayá	5	Chacayá	2	Febrero	2023-02-25T00:00:00	2024-11-06T21:00:00	6	Velocidad del viento	1.6
80806	7	Sololá	702	San José Chacayá	5	Chacayá	2	Febrero	2023-02-25T00:00:00	2024-11-06T21:00:00	7	Dirección del viento	1.61
80807	7	Sololá	702	San José Chacayá	5	Chacayá	2	Febrero	2023-02-25T00:00:00	2024-11-06T21:00:00	1	Precipitación	0
80808	7	Sololá	702	San José Chacayá	5	Chacayá	2	Febrero	2023-02-25T00:00:00	2024-11-06T21:00:00	8	Radiación solar	0
80809	7	Sololá	702	San José Chacayá	5	Chacayá	2	Febrero	2023-02-25T00:00:00	2024-11-06T22:00:00	2	Temperatura media	9.4
80810	7	Sololá	702	San José Chacayá	5	Chacayá	2	Febrero	2023-02-25T00:00:00	2024-11-06T22:00:00	4	Temperatura máxima	10.8
80811	7	Sololá	702	San José Chacayá	5	Chacayá	2	Febrero	2023-02-25T00:00:00	2024-11-06T22:00:00	3	Temperatura mínima	9.4
80812	7	Sololá	702	San José Chacayá	5	Chacayá	2	Febrero	2023-02-25T00:00:00	2024-11-06T22:00:00	5	Humedad	83
80813	7	Sololá	702	San José Chacayá	5	Chacayá	2	Febrero	2023-02-25T00:00:00	2024-11-06T22:00:00	6	Velocidad del viento	1.6
80814	7	Sololá	702	San José Chacayá	5	Chacayá	2	Febrero	2023-02-25T00:00:00	2024-11-06T22:00:00	7	Dirección del viento	1.61
80815	7	Sololá	702	San José Chacayá	5	Chacayá	2	Febrero	2023-02-25T00:00:00	2024-11-06T22:00:00	1	Precipitación	0
80816	7	Sololá	702	San José Chacayá	5	Chacayá	2	Febrero	2023-02-25T00:00:00	2024-11-06T22:00:00	8	Radiación solar	0
80817	7	Sololá	702	San José Chacayá	5	Chacayá	2	Febrero	2023-02-25T00:00:00	2024-11-06T23:00:00	2	Temperatura media	7.8
80818	7	Sololá	702	San José Chacayá	5	Chacayá	2	Febrero	2023-02-25T00:00:00	2024-11-06T23:00:00	4	Temperatura máxima	9.4
80819	7	Sololá	702	San José Chacayá	5	Chacayá	2	Febrero	2023-02-25T00:00:00	2024-11-06T23:00:00	3	Temperatura mínima	7.8
80820	7	Sololá	702	San José Chacayá	5	Chacayá	2	Febrero	2023-02-25T00:00:00	2024-11-06T23:00:00	5	Humedad	84
80821	7	Sololá	702	San José Chacayá	5	Chacayá	2	Febrero	2023-02-25T00:00:00	2024-11-06T23:00:00	6	Velocidad del viento	3.2
80822	7	Sololá	702	San José Chacayá	5	Chacayá	2	Febrero	2023-02-25T00:00:00	2024-11-06T23:00:00	7	Dirección del viento	3.22
80823	7	Sololá	702	San José Chacayá	5	Chacayá	2	Febrero	2023-02-25T00:00:00	2024-11-06T23:00:00	1	Precipitación	0
80824	7	Sololá	702	San José Chacayá	5	Chacayá	2	Febrero	2023-02-25T00:00:00	2024-11-06T23:00:00	8	Radiación solar	0
80825	7	Sololá	702	San José Chacayá	5	Chacayá	2	Febrero	2023-02-26T00:00:00	2024-11-06T00:00:00	2	Temperatura media	6.7
80826	7	Sololá	702	San José Chacayá	5	Chacayá	2	Febrero	2023-02-26T00:00:00	2024-11-06T00:00:00	4	Temperatura máxima	7.8
80827	7	Sololá	702	San José Chacayá	5	Chacayá	2	Febrero	2023-02-26T00:00:00	2024-11-06T00:00:00	3	Temperatura mínima	6.7
80828	7	Sololá	702	San José Chacayá	5	Chacayá	2	Febrero	2023-02-26T00:00:00	2024-11-06T00:00:00	5	Humedad	83
80829	7	Sololá	702	San José Chacayá	5	Chacayá	2	Febrero	2023-02-26T00:00:00	2024-11-06T00:00:00	6	Velocidad del viento	3.2
80830	7	Sololá	702	San José Chacayá	5	Chacayá	2	Febrero	2023-02-26T00:00:00	2024-11-06T00:00:00	7	Dirección del viento	3.22
80831	7	Sololá	702	San José Chacayá	5	Chacayá	2	Febrero	2023-02-26T00:00:00	2024-11-06T00:00:00	1	Precipitación	0
80832	7	Sololá	702	San José Chacayá	5	Chacayá	2	Febrero	2023-02-26T00:00:00	2024-11-06T00:00:00	8	Radiación solar	0
80833	7	Sololá	702	San José Chacayá	5	Chacayá	2	Febrero	2023-02-26T00:00:00	2024-11-06T01:00:00	2	Temperatura media	5.4
80834	7	Sololá	702	San José Chacayá	5	Chacayá	2	Febrero	2023-02-26T00:00:00	2024-11-06T01:00:00	4	Temperatura máxima	6.7
80835	7	Sololá	702	San José Chacayá	5	Chacayá	2	Febrero	2023-02-26T00:00:00	2024-11-06T01:00:00	3	Temperatura mínima	5.4
80836	7	Sololá	702	San José Chacayá	5	Chacayá	2	Febrero	2023-02-26T00:00:00	2024-11-06T01:00:00	5	Humedad	84
80837	7	Sololá	702	San José Chacayá	5	Chacayá	2	Febrero	2023-02-26T00:00:00	2024-11-06T01:00:00	6	Velocidad del viento	3.2
80838	7	Sololá	702	San José Chacayá	5	Chacayá	2	Febrero	2023-02-26T00:00:00	2024-11-06T01:00:00	7	Dirección del viento	3.22
80839	7	Sololá	702	San José Chacayá	5	Chacayá	2	Febrero	2023-02-26T00:00:00	2024-11-06T01:00:00	1	Precipitación	0
80840	7	Sololá	702	San José Chacayá	5	Chacayá	2	Febrero	2023-02-26T00:00:00	2024-11-06T01:00:00	8	Radiación solar	0
80841	7	Sololá	702	San José Chacayá	5	Chacayá	2	Febrero	2023-02-26T00:00:00	2024-11-06T02:00:00	2	Temperatura media	5.1
80842	7	Sololá	702	San José Chacayá	5	Chacayá	2	Febrero	2023-02-26T00:00:00	2024-11-06T02:00:00	4	Temperatura máxima	5.4
80843	7	Sololá	702	San José Chacayá	5	Chacayá	2	Febrero	2023-02-26T00:00:00	2024-11-06T02:00:00	3	Temperatura mínima	5
80844	7	Sololá	702	San José Chacayá	5	Chacayá	2	Febrero	2023-02-26T00:00:00	2024-11-06T02:00:00	5	Humedad	83
80845	7	Sololá	702	San José Chacayá	5	Chacayá	2	Febrero	2023-02-26T00:00:00	2024-11-06T02:00:00	6	Velocidad del viento	4.8
80846	7	Sololá	702	San José Chacayá	5	Chacayá	2	Febrero	2023-02-26T00:00:00	2024-11-06T02:00:00	7	Dirección del viento	4.83
80847	7	Sololá	702	San José Chacayá	5	Chacayá	2	Febrero	2023-02-26T00:00:00	2024-11-06T02:00:00	1	Precipitación	0
80848	7	Sololá	702	San José Chacayá	5	Chacayá	2	Febrero	2023-02-26T00:00:00	2024-11-06T02:00:00	8	Radiación solar	0
80849	7	Sololá	702	San José Chacayá	5	Chacayá	2	Febrero	2023-02-26T00:00:00	2024-11-06T03:00:00	2	Temperatura media	4.6
80850	7	Sololá	702	San José Chacayá	5	Chacayá	2	Febrero	2023-02-26T00:00:00	2024-11-06T03:00:00	4	Temperatura máxima	5.1
80851	7	Sololá	702	San José Chacayá	5	Chacayá	2	Febrero	2023-02-26T00:00:00	2024-11-06T03:00:00	3	Temperatura mínima	4.5
80852	7	Sololá	702	San José Chacayá	5	Chacayá	2	Febrero	2023-02-26T00:00:00	2024-11-06T03:00:00	5	Humedad	81
80853	7	Sololá	702	San José Chacayá	5	Chacayá	2	Febrero	2023-02-26T00:00:00	2024-11-06T03:00:00	6	Velocidad del viento	4.8
80854	7	Sololá	702	San José Chacayá	5	Chacayá	2	Febrero	2023-02-26T00:00:00	2024-11-06T03:00:00	7	Dirección del viento	4.83
80855	7	Sololá	702	San José Chacayá	5	Chacayá	2	Febrero	2023-02-26T00:00:00	2024-11-06T03:00:00	1	Precipitación	0
80856	7	Sololá	702	San José Chacayá	5	Chacayá	2	Febrero	2023-02-26T00:00:00	2024-11-06T03:00:00	8	Radiación solar	0
80857	7	Sololá	702	San José Chacayá	5	Chacayá	2	Febrero	2023-02-26T00:00:00	2024-11-06T04:00:00	2	Temperatura media	4
80858	7	Sololá	702	San José Chacayá	5	Chacayá	2	Febrero	2023-02-26T00:00:00	2024-11-06T04:00:00	4	Temperatura máxima	4.6
80859	7	Sololá	702	San José Chacayá	5	Chacayá	2	Febrero	2023-02-26T00:00:00	2024-11-06T04:00:00	3	Temperatura mínima	3.8
80860	7	Sololá	702	San José Chacayá	5	Chacayá	2	Febrero	2023-02-26T00:00:00	2024-11-06T04:00:00	5	Humedad	80
80861	7	Sololá	702	San José Chacayá	5	Chacayá	2	Febrero	2023-02-26T00:00:00	2024-11-06T04:00:00	6	Velocidad del viento	4.8
80862	7	Sololá	702	San José Chacayá	5	Chacayá	2	Febrero	2023-02-26T00:00:00	2024-11-06T04:00:00	7	Dirección del viento	4.83
80863	7	Sololá	702	San José Chacayá	5	Chacayá	2	Febrero	2023-02-26T00:00:00	2024-11-06T04:00:00	1	Precipitación	0
80864	7	Sololá	702	San José Chacayá	5	Chacayá	2	Febrero	2023-02-26T00:00:00	2024-11-06T04:00:00	8	Radiación solar	0
80865	7	Sololá	702	San José Chacayá	5	Chacayá	2	Febrero	2023-02-26T00:00:00	2024-11-06T05:00:00	2	Temperatura media	3.4
80866	7	Sololá	702	San José Chacayá	5	Chacayá	2	Febrero	2023-02-26T00:00:00	2024-11-06T05:00:00	4	Temperatura máxima	4.1
80867	7	Sololá	702	San José Chacayá	5	Chacayá	2	Febrero	2023-02-26T00:00:00	2024-11-06T05:00:00	3	Temperatura mínima	3.4
80868	7	Sololá	702	San José Chacayá	5	Chacayá	2	Febrero	2023-02-26T00:00:00	2024-11-06T05:00:00	5	Humedad	80
80869	7	Sololá	702	San José Chacayá	5	Chacayá	2	Febrero	2023-02-26T00:00:00	2024-11-06T05:00:00	6	Velocidad del viento	4.8
80870	7	Sololá	702	San José Chacayá	5	Chacayá	2	Febrero	2023-02-26T00:00:00	2024-11-06T05:00:00	7	Dirección del viento	4.83
80871	7	Sololá	702	San José Chacayá	5	Chacayá	2	Febrero	2023-02-26T00:00:00	2024-11-06T05:00:00	1	Precipitación	0
80872	7	Sololá	702	San José Chacayá	5	Chacayá	2	Febrero	2023-02-26T00:00:00	2024-11-06T05:00:00	8	Radiación solar	0
80873	7	Sololá	702	San José Chacayá	5	Chacayá	2	Febrero	2023-02-26T00:00:00	2024-11-06T06:00:00	2	Temperatura media	3.1
80874	7	Sololá	702	San José Chacayá	5	Chacayá	2	Febrero	2023-02-26T00:00:00	2024-11-06T06:00:00	4	Temperatura máxima	3.6
80875	7	Sololá	702	San José Chacayá	5	Chacayá	2	Febrero	2023-02-26T00:00:00	2024-11-06T06:00:00	3	Temperatura mínima	3.1
80876	7	Sololá	702	San José Chacayá	5	Chacayá	2	Febrero	2023-02-26T00:00:00	2024-11-06T06:00:00	5	Humedad	79
80877	7	Sololá	702	San José Chacayá	5	Chacayá	2	Febrero	2023-02-26T00:00:00	2024-11-06T06:00:00	6	Velocidad del viento	4.8
80878	7	Sololá	702	San José Chacayá	5	Chacayá	2	Febrero	2023-02-26T00:00:00	2024-11-06T06:00:00	7	Dirección del viento	4.83
80879	7	Sololá	702	San José Chacayá	5	Chacayá	2	Febrero	2023-02-26T00:00:00	2024-11-06T06:00:00	1	Precipitación	0
80880	7	Sololá	702	San José Chacayá	5	Chacayá	2	Febrero	2023-02-26T00:00:00	2024-11-06T06:00:00	8	Radiación solar	0
80881	7	Sololá	702	San José Chacayá	5	Chacayá	2	Febrero	2023-02-26T00:00:00	2024-11-06T07:00:00	2	Temperatura media	4.3
80882	7	Sololá	702	San José Chacayá	5	Chacayá	2	Febrero	2023-02-26T00:00:00	2024-11-06T07:00:00	4	Temperatura máxima	4.3
80883	7	Sololá	702	San José Chacayá	5	Chacayá	2	Febrero	2023-02-26T00:00:00	2024-11-06T07:00:00	3	Temperatura mínima	2.9
80884	7	Sololá	702	San José Chacayá	5	Chacayá	2	Febrero	2023-02-26T00:00:00	2024-11-06T07:00:00	5	Humedad	79
80885	7	Sololá	702	San José Chacayá	5	Chacayá	2	Febrero	2023-02-26T00:00:00	2024-11-06T07:00:00	6	Velocidad del viento	4.8
80886	7	Sololá	702	San José Chacayá	5	Chacayá	2	Febrero	2023-02-26T00:00:00	2024-11-06T07:00:00	7	Dirección del viento	4.83
80887	7	Sololá	702	San José Chacayá	5	Chacayá	2	Febrero	2023-02-26T00:00:00	2024-11-06T07:00:00	1	Precipitación	0
80888	7	Sololá	702	San José Chacayá	5	Chacayá	2	Febrero	2023-02-26T00:00:00	2024-11-06T07:00:00	8	Radiación solar	20
80889	7	Sololá	702	San José Chacayá	5	Chacayá	2	Febrero	2023-02-26T00:00:00	2024-11-06T08:00:00	2	Temperatura media	12.3
80890	7	Sololá	702	San José Chacayá	5	Chacayá	2	Febrero	2023-02-26T00:00:00	2024-11-06T08:00:00	4	Temperatura máxima	12.3
80891	7	Sololá	702	San José Chacayá	5	Chacayá	2	Febrero	2023-02-26T00:00:00	2024-11-06T08:00:00	3	Temperatura mínima	4.3
80892	7	Sololá	702	San José Chacayá	5	Chacayá	2	Febrero	2023-02-26T00:00:00	2024-11-06T08:00:00	5	Humedad	66
80893	7	Sololá	702	San José Chacayá	5	Chacayá	2	Febrero	2023-02-26T00:00:00	2024-11-06T08:00:00	6	Velocidad del viento	3.2
80894	7	Sololá	702	San José Chacayá	5	Chacayá	2	Febrero	2023-02-26T00:00:00	2024-11-06T08:00:00	7	Dirección del viento	3.22
80895	7	Sololá	702	San José Chacayá	5	Chacayá	2	Febrero	2023-02-26T00:00:00	2024-11-06T08:00:00	1	Precipitación	0
80896	7	Sololá	702	San José Chacayá	5	Chacayá	2	Febrero	2023-02-26T00:00:00	2024-11-06T08:00:00	8	Radiación solar	213
80897	7	Sololá	702	San José Chacayá	5	Chacayá	2	Febrero	2023-02-26T00:00:00	2024-11-06T09:00:00	2	Temperatura media	16.9
80898	7	Sololá	702	San José Chacayá	5	Chacayá	2	Febrero	2023-02-26T00:00:00	2024-11-06T09:00:00	4	Temperatura máxima	16.9
80899	7	Sololá	702	San José Chacayá	5	Chacayá	2	Febrero	2023-02-26T00:00:00	2024-11-06T09:00:00	3	Temperatura mínima	12.3
80900	7	Sololá	702	San José Chacayá	5	Chacayá	2	Febrero	2023-02-26T00:00:00	2024-11-06T09:00:00	5	Humedad	50
80901	7	Sololá	702	San José Chacayá	5	Chacayá	2	Febrero	2023-02-26T00:00:00	2024-11-06T09:00:00	6	Velocidad del viento	4.8
80902	7	Sololá	702	San José Chacayá	5	Chacayá	2	Febrero	2023-02-26T00:00:00	2024-11-06T09:00:00	7	Dirección del viento	4.83
80903	7	Sololá	702	San José Chacayá	5	Chacayá	2	Febrero	2023-02-26T00:00:00	2024-11-06T09:00:00	1	Precipitación	0
80904	7	Sololá	702	San José Chacayá	5	Chacayá	2	Febrero	2023-02-26T00:00:00	2024-11-06T09:00:00	8	Radiación solar	487
80905	7	Sololá	702	San José Chacayá	5	Chacayá	2	Febrero	2023-02-26T00:00:00	2024-11-06T10:00:00	2	Temperatura media	19.3
80906	7	Sololá	702	San José Chacayá	5	Chacayá	2	Febrero	2023-02-26T00:00:00	2024-11-06T10:00:00	4	Temperatura máxima	19.3
80907	7	Sololá	702	San José Chacayá	5	Chacayá	2	Febrero	2023-02-26T00:00:00	2024-11-06T10:00:00	3	Temperatura mínima	16.9
80908	7	Sololá	702	San José Chacayá	5	Chacayá	2	Febrero	2023-02-26T00:00:00	2024-11-06T10:00:00	5	Humedad	46
80909	7	Sololá	702	San José Chacayá	5	Chacayá	2	Febrero	2023-02-26T00:00:00	2024-11-06T10:00:00	6	Velocidad del viento	4.8
80910	7	Sololá	702	San José Chacayá	5	Chacayá	2	Febrero	2023-02-26T00:00:00	2024-11-06T10:00:00	7	Dirección del viento	4.83
80911	7	Sololá	702	San José Chacayá	5	Chacayá	2	Febrero	2023-02-26T00:00:00	2024-11-06T10:00:00	1	Precipitación	0
80912	7	Sololá	702	San José Chacayá	5	Chacayá	2	Febrero	2023-02-26T00:00:00	2024-11-06T10:00:00	8	Radiación solar	702
80913	7	Sololá	702	San José Chacayá	5	Chacayá	2	Febrero	2023-02-26T00:00:00	2024-11-06T11:00:00	2	Temperatura media	20.8
80914	7	Sololá	702	San José Chacayá	5	Chacayá	2	Febrero	2023-02-26T00:00:00	2024-11-06T11:00:00	4	Temperatura máxima	20.9
80915	7	Sololá	702	San José Chacayá	5	Chacayá	2	Febrero	2023-02-26T00:00:00	2024-11-06T11:00:00	3	Temperatura mínima	19.3
80916	7	Sololá	702	San José Chacayá	5	Chacayá	2	Febrero	2023-02-26T00:00:00	2024-11-06T11:00:00	5	Humedad	43
80917	7	Sololá	702	San José Chacayá	5	Chacayá	2	Febrero	2023-02-26T00:00:00	2024-11-06T11:00:00	6	Velocidad del viento	6.4
80918	7	Sololá	702	San José Chacayá	5	Chacayá	2	Febrero	2023-02-26T00:00:00	2024-11-06T11:00:00	7	Dirección del viento	6.44
80919	7	Sololá	702	San José Chacayá	5	Chacayá	2	Febrero	2023-02-26T00:00:00	2024-11-06T11:00:00	1	Precipitación	0
80920	7	Sololá	702	San José Chacayá	5	Chacayá	2	Febrero	2023-02-26T00:00:00	2024-11-06T11:00:00	8	Radiación solar	859
80921	7	Sololá	702	San José Chacayá	5	Chacayá	2	Febrero	2023-02-26T00:00:00	2024-11-06T12:00:00	2	Temperatura media	21.9
80922	7	Sololá	702	San José Chacayá	5	Chacayá	2	Febrero	2023-02-26T00:00:00	2024-11-06T12:00:00	4	Temperatura máxima	21.9
80923	7	Sololá	702	San José Chacayá	5	Chacayá	2	Febrero	2023-02-26T00:00:00	2024-11-06T12:00:00	3	Temperatura mínima	20.2
80924	7	Sololá	702	San José Chacayá	5	Chacayá	2	Febrero	2023-02-26T00:00:00	2024-11-06T12:00:00	5	Humedad	39
80925	7	Sololá	702	San José Chacayá	5	Chacayá	2	Febrero	2023-02-26T00:00:00	2024-11-06T12:00:00	6	Velocidad del viento	6.4
80926	7	Sololá	702	San José Chacayá	5	Chacayá	2	Febrero	2023-02-26T00:00:00	2024-11-06T12:00:00	7	Dirección del viento	6.44
80927	7	Sololá	702	San José Chacayá	5	Chacayá	2	Febrero	2023-02-26T00:00:00	2024-11-06T12:00:00	1	Precipitación	0
80928	7	Sololá	702	San José Chacayá	5	Chacayá	2	Febrero	2023-02-26T00:00:00	2024-11-06T12:00:00	8	Radiación solar	928
80929	7	Sololá	702	San José Chacayá	5	Chacayá	2	Febrero	2023-02-26T00:00:00	2024-11-06T13:00:00	2	Temperatura media	22
80930	7	Sololá	702	San José Chacayá	5	Chacayá	2	Febrero	2023-02-26T00:00:00	2024-11-06T13:00:00	4	Temperatura máxima	22.2
80931	7	Sololá	702	San José Chacayá	5	Chacayá	2	Febrero	2023-02-26T00:00:00	2024-11-06T13:00:00	3	Temperatura mínima	21.3
80932	7	Sololá	702	San José Chacayá	5	Chacayá	2	Febrero	2023-02-26T00:00:00	2024-11-06T13:00:00	5	Humedad	46
80933	7	Sololá	702	San José Chacayá	5	Chacayá	2	Febrero	2023-02-26T00:00:00	2024-11-06T13:00:00	6	Velocidad del viento	8
80934	7	Sololá	702	San José Chacayá	5	Chacayá	2	Febrero	2023-02-26T00:00:00	2024-11-06T13:00:00	7	Dirección del viento	8.05
80935	7	Sololá	702	San José Chacayá	5	Chacayá	2	Febrero	2023-02-26T00:00:00	2024-11-06T13:00:00	1	Precipitación	0
80936	7	Sololá	702	San José Chacayá	5	Chacayá	2	Febrero	2023-02-26T00:00:00	2024-11-06T13:00:00	8	Radiación solar	962
80937	7	Sololá	702	San José Chacayá	5	Chacayá	2	Febrero	2023-02-26T00:00:00	2024-11-06T14:00:00	2	Temperatura media	20.9
80938	7	Sololá	702	San José Chacayá	5	Chacayá	2	Febrero	2023-02-26T00:00:00	2024-11-06T14:00:00	4	Temperatura máxima	22.1
80939	7	Sololá	702	San José Chacayá	5	Chacayá	2	Febrero	2023-02-26T00:00:00	2024-11-06T14:00:00	3	Temperatura mínima	20.9
80940	7	Sololá	702	San José Chacayá	5	Chacayá	2	Febrero	2023-02-26T00:00:00	2024-11-06T14:00:00	5	Humedad	61
80941	7	Sololá	702	San José Chacayá	5	Chacayá	2	Febrero	2023-02-26T00:00:00	2024-11-06T14:00:00	6	Velocidad del viento	8
80942	7	Sololá	702	San José Chacayá	5	Chacayá	2	Febrero	2023-02-26T00:00:00	2024-11-06T14:00:00	7	Dirección del viento	8.05
80943	7	Sololá	702	San José Chacayá	5	Chacayá	2	Febrero	2023-02-26T00:00:00	2024-11-06T14:00:00	1	Precipitación	0
80944	7	Sololá	702	San José Chacayá	5	Chacayá	2	Febrero	2023-02-26T00:00:00	2024-11-06T14:00:00	8	Radiación solar	894
80945	7	Sololá	702	San José Chacayá	5	Chacayá	2	Febrero	2023-02-26T00:00:00	2024-11-06T15:00:00	2	Temperatura media	19.8
80946	7	Sololá	702	San José Chacayá	5	Chacayá	2	Febrero	2023-02-26T00:00:00	2024-11-06T15:00:00	4	Temperatura máxima	21.2
80947	7	Sololá	702	San José Chacayá	5	Chacayá	2	Febrero	2023-02-26T00:00:00	2024-11-06T15:00:00	3	Temperatura mínima	19.7
80948	7	Sololá	702	San José Chacayá	5	Chacayá	2	Febrero	2023-02-26T00:00:00	2024-11-06T15:00:00	5	Humedad	68
80949	7	Sololá	702	San José Chacayá	5	Chacayá	2	Febrero	2023-02-26T00:00:00	2024-11-06T15:00:00	6	Velocidad del viento	6.4
80950	7	Sololá	702	San José Chacayá	5	Chacayá	2	Febrero	2023-02-26T00:00:00	2024-11-06T15:00:00	7	Dirección del viento	6.44
80951	7	Sololá	702	San José Chacayá	5	Chacayá	2	Febrero	2023-02-26T00:00:00	2024-11-06T15:00:00	1	Precipitación	0
80952	7	Sololá	702	San José Chacayá	5	Chacayá	2	Febrero	2023-02-26T00:00:00	2024-11-06T15:00:00	8	Radiación solar	763
80953	7	Sololá	702	San José Chacayá	5	Chacayá	2	Febrero	2023-02-26T00:00:00	2024-11-06T16:00:00	2	Temperatura media	18.3
80954	7	Sololá	702	San José Chacayá	5	Chacayá	2	Febrero	2023-02-26T00:00:00	2024-11-06T16:00:00	4	Temperatura máxima	19.7
80955	7	Sololá	702	San José Chacayá	5	Chacayá	2	Febrero	2023-02-26T00:00:00	2024-11-06T16:00:00	3	Temperatura mínima	18.3
80956	7	Sololá	702	San José Chacayá	5	Chacayá	2	Febrero	2023-02-26T00:00:00	2024-11-06T16:00:00	5	Humedad	74
80957	7	Sololá	702	San José Chacayá	5	Chacayá	2	Febrero	2023-02-26T00:00:00	2024-11-06T16:00:00	6	Velocidad del viento	6.4
80958	7	Sololá	702	San José Chacayá	5	Chacayá	2	Febrero	2023-02-26T00:00:00	2024-11-06T16:00:00	7	Dirección del viento	6.44
80959	7	Sololá	702	San José Chacayá	5	Chacayá	2	Febrero	2023-02-26T00:00:00	2024-11-06T16:00:00	1	Precipitación	0
80960	7	Sololá	702	San José Chacayá	5	Chacayá	2	Febrero	2023-02-26T00:00:00	2024-11-06T16:00:00	8	Radiación solar	575
80961	7	Sololá	702	San José Chacayá	5	Chacayá	2	Febrero	2023-02-26T00:00:00	2024-11-06T17:00:00	2	Temperatura media	16.7
80962	7	Sololá	702	San José Chacayá	5	Chacayá	2	Febrero	2023-02-26T00:00:00	2024-11-06T17:00:00	4	Temperatura máxima	18.3
80963	7	Sololá	702	San José Chacayá	5	Chacayá	2	Febrero	2023-02-26T00:00:00	2024-11-06T17:00:00	3	Temperatura mínima	16.7
80964	7	Sololá	702	San José Chacayá	5	Chacayá	2	Febrero	2023-02-26T00:00:00	2024-11-06T17:00:00	5	Humedad	80
80965	7	Sololá	702	San José Chacayá	5	Chacayá	2	Febrero	2023-02-26T00:00:00	2024-11-06T17:00:00	6	Velocidad del viento	6.4
80966	7	Sololá	702	San José Chacayá	5	Chacayá	2	Febrero	2023-02-26T00:00:00	2024-11-06T17:00:00	7	Dirección del viento	6.44
80967	7	Sololá	702	San José Chacayá	5	Chacayá	2	Febrero	2023-02-26T00:00:00	2024-11-06T17:00:00	1	Precipitación	0
80968	7	Sololá	702	San José Chacayá	5	Chacayá	2	Febrero	2023-02-26T00:00:00	2024-11-06T17:00:00	8	Radiación solar	342
80969	7	Sololá	702	San José Chacayá	5	Chacayá	2	Febrero	2023-02-26T00:00:00	2024-11-06T18:00:00	2	Temperatura media	15.4
80970	7	Sololá	702	San José Chacayá	5	Chacayá	2	Febrero	2023-02-26T00:00:00	2024-11-06T18:00:00	4	Temperatura máxima	16.7
80971	7	Sololá	702	San José Chacayá	5	Chacayá	2	Febrero	2023-02-26T00:00:00	2024-11-06T18:00:00	3	Temperatura mínima	15.4
80972	7	Sololá	702	San José Chacayá	5	Chacayá	2	Febrero	2023-02-26T00:00:00	2024-11-06T18:00:00	5	Humedad	83
80973	7	Sololá	702	San José Chacayá	5	Chacayá	2	Febrero	2023-02-26T00:00:00	2024-11-06T18:00:00	6	Velocidad del viento	3.2
80974	7	Sololá	702	San José Chacayá	5	Chacayá	2	Febrero	2023-02-26T00:00:00	2024-11-06T18:00:00	7	Dirección del viento	3.22
80975	7	Sololá	702	San José Chacayá	5	Chacayá	2	Febrero	2023-02-26T00:00:00	2024-11-06T18:00:00	1	Precipitación	0
80976	7	Sololá	702	San José Chacayá	5	Chacayá	2	Febrero	2023-02-26T00:00:00	2024-11-06T18:00:00	8	Radiación solar	70
80977	7	Sololá	702	San José Chacayá	5	Chacayá	2	Febrero	2023-02-26T00:00:00	2024-11-06T19:00:00	2	Temperatura media	13.7
80978	7	Sololá	702	San José Chacayá	5	Chacayá	2	Febrero	2023-02-26T00:00:00	2024-11-06T19:00:00	4	Temperatura máxima	15.4
80979	7	Sololá	702	San José Chacayá	5	Chacayá	2	Febrero	2023-02-26T00:00:00	2024-11-06T19:00:00	3	Temperatura mínima	13.7
80980	7	Sololá	702	San José Chacayá	5	Chacayá	2	Febrero	2023-02-26T00:00:00	2024-11-06T19:00:00	5	Humedad	83
80981	7	Sololá	702	San José Chacayá	5	Chacayá	2	Febrero	2023-02-26T00:00:00	2024-11-06T19:00:00	6	Velocidad del viento	0
80982	7	Sololá	702	San José Chacayá	5	Chacayá	2	Febrero	2023-02-26T00:00:00	2024-11-06T19:00:00	7	Dirección del viento	0
80983	7	Sololá	702	San José Chacayá	5	Chacayá	2	Febrero	2023-02-26T00:00:00	2024-11-06T19:00:00	1	Precipitación	0
80984	7	Sololá	702	San José Chacayá	5	Chacayá	2	Febrero	2023-02-26T00:00:00	2024-11-06T19:00:00	8	Radiación solar	2
80985	7	Sololá	702	San José Chacayá	5	Chacayá	2	Febrero	2023-02-26T00:00:00	2024-11-06T20:00:00	2	Temperatura media	11.9
80986	7	Sololá	702	San José Chacayá	5	Chacayá	2	Febrero	2023-02-26T00:00:00	2024-11-06T20:00:00	4	Temperatura máxima	13.7
80987	7	Sololá	702	San José Chacayá	5	Chacayá	2	Febrero	2023-02-26T00:00:00	2024-11-06T20:00:00	3	Temperatura mínima	11.9
80988	7	Sololá	702	San José Chacayá	5	Chacayá	2	Febrero	2023-02-26T00:00:00	2024-11-06T20:00:00	5	Humedad	83
80989	7	Sololá	702	San José Chacayá	5	Chacayá	2	Febrero	2023-02-26T00:00:00	2024-11-06T20:00:00	6	Velocidad del viento	1.6
80990	7	Sololá	702	San José Chacayá	5	Chacayá	2	Febrero	2023-02-26T00:00:00	2024-11-06T20:00:00	7	Dirección del viento	1.61
80991	7	Sololá	702	San José Chacayá	5	Chacayá	2	Febrero	2023-02-26T00:00:00	2024-11-06T20:00:00	1	Precipitación	0
80992	7	Sololá	702	San José Chacayá	5	Chacayá	2	Febrero	2023-02-26T00:00:00	2024-11-06T20:00:00	8	Radiación solar	0
80993	7	Sololá	702	San José Chacayá	5	Chacayá	2	Febrero	2023-02-26T00:00:00	2024-11-06T21:00:00	2	Temperatura media	10.2
80994	7	Sololá	702	San José Chacayá	5	Chacayá	2	Febrero	2023-02-26T00:00:00	2024-11-06T21:00:00	4	Temperatura máxima	11.9
80995	7	Sololá	702	San José Chacayá	5	Chacayá	2	Febrero	2023-02-26T00:00:00	2024-11-06T21:00:00	3	Temperatura mínima	10.2
80996	7	Sololá	702	San José Chacayá	5	Chacayá	2	Febrero	2023-02-26T00:00:00	2024-11-06T21:00:00	5	Humedad	84
80997	7	Sololá	702	San José Chacayá	5	Chacayá	2	Febrero	2023-02-26T00:00:00	2024-11-06T21:00:00	6	Velocidad del viento	1.6
80998	7	Sololá	702	San José Chacayá	5	Chacayá	2	Febrero	2023-02-26T00:00:00	2024-11-06T21:00:00	7	Dirección del viento	1.61
80999	7	Sololá	702	San José Chacayá	5	Chacayá	2	Febrero	2023-02-26T00:00:00	2024-11-06T21:00:00	1	Precipitación	0
81000	7	Sololá	702	San José Chacayá	5	Chacayá	2	Febrero	2023-02-26T00:00:00	2024-11-06T21:00:00	8	Radiación solar	0
81001	7	Sololá	702	San José Chacayá	5	Chacayá	2	Febrero	2023-02-26T00:00:00	2024-11-06T22:00:00	2	Temperatura media	8.9
81002	7	Sololá	702	San José Chacayá	5	Chacayá	2	Febrero	2023-02-26T00:00:00	2024-11-06T22:00:00	4	Temperatura máxima	10.1
81003	7	Sololá	702	San José Chacayá	5	Chacayá	2	Febrero	2023-02-26T00:00:00	2024-11-06T22:00:00	3	Temperatura mínima	8.9
81004	7	Sololá	702	San José Chacayá	5	Chacayá	2	Febrero	2023-02-26T00:00:00	2024-11-06T22:00:00	5	Humedad	84
81005	7	Sololá	702	San José Chacayá	5	Chacayá	2	Febrero	2023-02-26T00:00:00	2024-11-06T22:00:00	6	Velocidad del viento	1.6
81006	7	Sololá	702	San José Chacayá	5	Chacayá	2	Febrero	2023-02-26T00:00:00	2024-11-06T22:00:00	7	Dirección del viento	1.61
81007	7	Sololá	702	San José Chacayá	5	Chacayá	2	Febrero	2023-02-26T00:00:00	2024-11-06T22:00:00	1	Precipitación	0
81008	7	Sololá	702	San José Chacayá	5	Chacayá	2	Febrero	2023-02-26T00:00:00	2024-11-06T22:00:00	8	Radiación solar	0
81009	7	Sololá	702	San José Chacayá	5	Chacayá	2	Febrero	2023-02-26T00:00:00	2024-11-06T23:00:00	2	Temperatura media	8.1
81010	7	Sololá	702	San José Chacayá	5	Chacayá	2	Febrero	2023-02-26T00:00:00	2024-11-06T23:00:00	4	Temperatura máxima	8.9
81011	7	Sololá	702	San José Chacayá	5	Chacayá	2	Febrero	2023-02-26T00:00:00	2024-11-06T23:00:00	3	Temperatura mínima	8.1
81012	7	Sololá	702	San José Chacayá	5	Chacayá	2	Febrero	2023-02-26T00:00:00	2024-11-06T23:00:00	5	Humedad	84
81013	7	Sololá	702	San José Chacayá	5	Chacayá	2	Febrero	2023-02-26T00:00:00	2024-11-06T23:00:00	6	Velocidad del viento	3.2
81014	7	Sololá	702	San José Chacayá	5	Chacayá	2	Febrero	2023-02-26T00:00:00	2024-11-06T23:00:00	7	Dirección del viento	3.22
81015	7	Sololá	702	San José Chacayá	5	Chacayá	2	Febrero	2023-02-26T00:00:00	2024-11-06T23:00:00	1	Precipitación	0
81016	7	Sololá	702	San José Chacayá	5	Chacayá	2	Febrero	2023-02-26T00:00:00	2024-11-06T23:00:00	8	Radiación solar	0
81017	7	Sololá	702	San José Chacayá	5	Chacayá	2	Febrero	2023-02-27T00:00:00	2024-11-06T00:00:00	2	Temperatura media	7.4
81018	7	Sololá	702	San José Chacayá	5	Chacayá	2	Febrero	2023-02-27T00:00:00	2024-11-06T00:00:00	4	Temperatura máxima	8.2
81019	7	Sololá	702	San José Chacayá	5	Chacayá	2	Febrero	2023-02-27T00:00:00	2024-11-06T00:00:00	3	Temperatura mínima	7.4
81020	7	Sololá	702	San José Chacayá	5	Chacayá	2	Febrero	2023-02-27T00:00:00	2024-11-06T00:00:00	5	Humedad	85
81021	7	Sololá	702	San José Chacayá	5	Chacayá	2	Febrero	2023-02-27T00:00:00	2024-11-06T00:00:00	6	Velocidad del viento	4.8
81022	7	Sololá	702	San José Chacayá	5	Chacayá	2	Febrero	2023-02-27T00:00:00	2024-11-06T00:00:00	7	Dirección del viento	4.83
81023	7	Sololá	702	San José Chacayá	5	Chacayá	2	Febrero	2023-02-27T00:00:00	2024-11-06T00:00:00	1	Precipitación	0
81024	7	Sololá	702	San José Chacayá	5	Chacayá	2	Febrero	2023-02-27T00:00:00	2024-11-06T00:00:00	8	Radiación solar	0
81025	7	Sololá	702	San José Chacayá	5	Chacayá	2	Febrero	2023-02-27T00:00:00	2024-11-06T01:00:00	2	Temperatura media	7
81026	7	Sololá	702	San José Chacayá	5	Chacayá	2	Febrero	2023-02-27T00:00:00	2024-11-06T01:00:00	4	Temperatura máxima	7.4
81027	7	Sololá	702	San José Chacayá	5	Chacayá	2	Febrero	2023-02-27T00:00:00	2024-11-06T01:00:00	3	Temperatura mínima	7
81028	7	Sololá	702	San José Chacayá	5	Chacayá	2	Febrero	2023-02-27T00:00:00	2024-11-06T01:00:00	5	Humedad	85
81029	7	Sololá	702	San José Chacayá	5	Chacayá	2	Febrero	2023-02-27T00:00:00	2024-11-06T01:00:00	6	Velocidad del viento	3.2
81030	7	Sololá	702	San José Chacayá	5	Chacayá	2	Febrero	2023-02-27T00:00:00	2024-11-06T01:00:00	7	Dirección del viento	3.22
81031	7	Sololá	702	San José Chacayá	5	Chacayá	2	Febrero	2023-02-27T00:00:00	2024-11-06T01:00:00	1	Precipitación	0
81032	7	Sololá	702	San José Chacayá	5	Chacayá	2	Febrero	2023-02-27T00:00:00	2024-11-06T01:00:00	8	Radiación solar	0
81033	7	Sololá	702	San José Chacayá	5	Chacayá	2	Febrero	2023-02-27T00:00:00	2024-11-06T02:00:00	2	Temperatura media	6.6
81034	7	Sololá	702	San José Chacayá	5	Chacayá	2	Febrero	2023-02-27T00:00:00	2024-11-06T02:00:00	4	Temperatura máxima	7.1
81035	7	Sololá	702	San José Chacayá	5	Chacayá	2	Febrero	2023-02-27T00:00:00	2024-11-06T02:00:00	3	Temperatura mínima	6.6
81036	7	Sololá	702	San José Chacayá	5	Chacayá	2	Febrero	2023-02-27T00:00:00	2024-11-06T02:00:00	5	Humedad	85
81037	7	Sololá	702	San José Chacayá	5	Chacayá	2	Febrero	2023-02-27T00:00:00	2024-11-06T02:00:00	6	Velocidad del viento	4.8
81038	7	Sololá	702	San José Chacayá	5	Chacayá	2	Febrero	2023-02-27T00:00:00	2024-11-06T02:00:00	7	Dirección del viento	4.83
81039	7	Sololá	702	San José Chacayá	5	Chacayá	2	Febrero	2023-02-27T00:00:00	2024-11-06T02:00:00	1	Precipitación	0
81040	7	Sololá	702	San José Chacayá	5	Chacayá	2	Febrero	2023-02-27T00:00:00	2024-11-06T02:00:00	8	Radiación solar	0
81041	7	Sololá	702	San José Chacayá	5	Chacayá	2	Febrero	2023-02-27T00:00:00	2024-11-06T03:00:00	2	Temperatura media	6.4
81042	7	Sololá	702	San José Chacayá	5	Chacayá	2	Febrero	2023-02-27T00:00:00	2024-11-06T03:00:00	4	Temperatura máxima	6.7
81043	7	Sololá	702	San José Chacayá	5	Chacayá	2	Febrero	2023-02-27T00:00:00	2024-11-06T03:00:00	3	Temperatura mínima	6.3
81044	7	Sololá	702	San José Chacayá	5	Chacayá	2	Febrero	2023-02-27T00:00:00	2024-11-06T03:00:00	5	Humedad	85
81045	7	Sololá	702	San José Chacayá	5	Chacayá	2	Febrero	2023-02-27T00:00:00	2024-11-06T03:00:00	6	Velocidad del viento	6.4
81046	7	Sololá	702	San José Chacayá	5	Chacayá	2	Febrero	2023-02-27T00:00:00	2024-11-06T03:00:00	7	Dirección del viento	6.44
81047	7	Sololá	702	San José Chacayá	5	Chacayá	2	Febrero	2023-02-27T00:00:00	2024-11-06T03:00:00	1	Precipitación	0
81048	7	Sololá	702	San José Chacayá	5	Chacayá	2	Febrero	2023-02-27T00:00:00	2024-11-06T03:00:00	8	Radiación solar	0
81049	7	Sololá	702	San José Chacayá	5	Chacayá	2	Febrero	2023-02-27T00:00:00	2024-11-06T04:00:00	2	Temperatura media	6.1
81050	7	Sololá	702	San José Chacayá	5	Chacayá	2	Febrero	2023-02-27T00:00:00	2024-11-06T04:00:00	4	Temperatura máxima	6.4
81051	7	Sololá	702	San José Chacayá	5	Chacayá	2	Febrero	2023-02-27T00:00:00	2024-11-06T04:00:00	3	Temperatura mínima	6
81052	7	Sololá	702	San José Chacayá	5	Chacayá	2	Febrero	2023-02-27T00:00:00	2024-11-06T04:00:00	5	Humedad	85
81053	7	Sololá	702	San José Chacayá	5	Chacayá	2	Febrero	2023-02-27T00:00:00	2024-11-06T04:00:00	6	Velocidad del viento	6.4
81054	7	Sololá	702	San José Chacayá	5	Chacayá	2	Febrero	2023-02-27T00:00:00	2024-11-06T04:00:00	7	Dirección del viento	6.44
81055	7	Sololá	702	San José Chacayá	5	Chacayá	2	Febrero	2023-02-27T00:00:00	2024-11-06T04:00:00	1	Precipitación	0
81056	7	Sololá	702	San José Chacayá	5	Chacayá	2	Febrero	2023-02-27T00:00:00	2024-11-06T04:00:00	8	Radiación solar	0
81057	7	Sololá	702	San José Chacayá	5	Chacayá	2	Febrero	2023-02-27T00:00:00	2024-11-06T05:00:00	2	Temperatura media	5.3
81058	7	Sololá	702	San José Chacayá	5	Chacayá	2	Febrero	2023-02-27T00:00:00	2024-11-06T05:00:00	4	Temperatura máxima	6.1
81059	7	Sololá	702	San José Chacayá	5	Chacayá	2	Febrero	2023-02-27T00:00:00	2024-11-06T05:00:00	3	Temperatura mínima	5.3
81060	7	Sololá	702	San José Chacayá	5	Chacayá	2	Febrero	2023-02-27T00:00:00	2024-11-06T05:00:00	5	Humedad	85
81061	7	Sololá	702	San José Chacayá	5	Chacayá	2	Febrero	2023-02-27T00:00:00	2024-11-06T05:00:00	6	Velocidad del viento	4.8
81062	7	Sololá	702	San José Chacayá	5	Chacayá	2	Febrero	2023-02-27T00:00:00	2024-11-06T05:00:00	7	Dirección del viento	4.83
81063	7	Sololá	702	San José Chacayá	5	Chacayá	2	Febrero	2023-02-27T00:00:00	2024-11-06T05:00:00	1	Precipitación	0
81064	7	Sololá	702	San José Chacayá	5	Chacayá	2	Febrero	2023-02-27T00:00:00	2024-11-06T05:00:00	8	Radiación solar	0
81065	7	Sololá	702	San José Chacayá	5	Chacayá	2	Febrero	2023-02-27T00:00:00	2024-11-06T06:00:00	2	Temperatura media	5.1
81066	7	Sololá	702	San José Chacayá	5	Chacayá	2	Febrero	2023-02-27T00:00:00	2024-11-06T06:00:00	4	Temperatura máxima	5.3
81067	7	Sololá	702	San José Chacayá	5	Chacayá	2	Febrero	2023-02-27T00:00:00	2024-11-06T06:00:00	3	Temperatura mínima	5
81068	7	Sololá	702	San José Chacayá	5	Chacayá	2	Febrero	2023-02-27T00:00:00	2024-11-06T06:00:00	5	Humedad	85
81069	7	Sololá	702	San José Chacayá	5	Chacayá	2	Febrero	2023-02-27T00:00:00	2024-11-06T06:00:00	6	Velocidad del viento	6.4
81070	7	Sololá	702	San José Chacayá	5	Chacayá	2	Febrero	2023-02-27T00:00:00	2024-11-06T06:00:00	7	Dirección del viento	6.44
81071	7	Sololá	702	San José Chacayá	5	Chacayá	2	Febrero	2023-02-27T00:00:00	2024-11-06T06:00:00	1	Precipitación	0
81072	7	Sololá	702	San José Chacayá	5	Chacayá	2	Febrero	2023-02-27T00:00:00	2024-11-06T06:00:00	8	Radiación solar	0
81073	7	Sololá	702	San José Chacayá	5	Chacayá	2	Febrero	2023-02-27T00:00:00	2024-11-06T07:00:00	2	Temperatura media	6.8
81074	7	Sololá	702	San José Chacayá	5	Chacayá	2	Febrero	2023-02-27T00:00:00	2024-11-06T07:00:00	4	Temperatura máxima	6.8
81075	7	Sololá	702	San José Chacayá	5	Chacayá	2	Febrero	2023-02-27T00:00:00	2024-11-06T07:00:00	3	Temperatura mínima	5
81076	7	Sololá	702	San José Chacayá	5	Chacayá	2	Febrero	2023-02-27T00:00:00	2024-11-06T07:00:00	5	Humedad	85
81077	7	Sololá	702	San José Chacayá	5	Chacayá	2	Febrero	2023-02-27T00:00:00	2024-11-06T07:00:00	6	Velocidad del viento	4.8
81078	7	Sololá	702	San José Chacayá	5	Chacayá	2	Febrero	2023-02-27T00:00:00	2024-11-06T07:00:00	7	Dirección del viento	4.83
81079	7	Sololá	702	San José Chacayá	5	Chacayá	2	Febrero	2023-02-27T00:00:00	2024-11-06T07:00:00	1	Precipitación	0
81080	7	Sololá	702	San José Chacayá	5	Chacayá	2	Febrero	2023-02-27T00:00:00	2024-11-06T07:00:00	8	Radiación solar	23
81081	7	Sololá	702	San José Chacayá	5	Chacayá	2	Febrero	2023-02-27T00:00:00	2024-11-06T08:00:00	2	Temperatura media	12.1
81082	7	Sololá	702	San José Chacayá	5	Chacayá	2	Febrero	2023-02-27T00:00:00	2024-11-06T08:00:00	4	Temperatura máxima	12.1
81083	7	Sololá	702	San José Chacayá	5	Chacayá	2	Febrero	2023-02-27T00:00:00	2024-11-06T08:00:00	3	Temperatura mínima	6.8
81084	7	Sololá	702	San José Chacayá	5	Chacayá	2	Febrero	2023-02-27T00:00:00	2024-11-06T08:00:00	5	Humedad	77
81085	7	Sololá	702	San José Chacayá	5	Chacayá	2	Febrero	2023-02-27T00:00:00	2024-11-06T08:00:00	6	Velocidad del viento	3.2
81086	7	Sololá	702	San José Chacayá	5	Chacayá	2	Febrero	2023-02-27T00:00:00	2024-11-06T08:00:00	7	Dirección del viento	3.22
81087	7	Sololá	702	San José Chacayá	5	Chacayá	2	Febrero	2023-02-27T00:00:00	2024-11-06T08:00:00	1	Precipitación	0
81088	7	Sololá	702	San José Chacayá	5	Chacayá	2	Febrero	2023-02-27T00:00:00	2024-11-06T08:00:00	8	Radiación solar	210
81089	7	Sololá	702	San José Chacayá	5	Chacayá	2	Febrero	2023-02-27T00:00:00	2024-11-06T09:00:00	2	Temperatura media	16
81090	7	Sololá	702	San José Chacayá	5	Chacayá	2	Febrero	2023-02-27T00:00:00	2024-11-06T09:00:00	4	Temperatura máxima	16
81091	7	Sololá	702	San José Chacayá	5	Chacayá	2	Febrero	2023-02-27T00:00:00	2024-11-06T09:00:00	3	Temperatura mínima	12.1
81092	7	Sololá	702	San José Chacayá	5	Chacayá	2	Febrero	2023-02-27T00:00:00	2024-11-06T09:00:00	5	Humedad	65
81093	7	Sololá	702	San José Chacayá	5	Chacayá	2	Febrero	2023-02-27T00:00:00	2024-11-06T09:00:00	6	Velocidad del viento	3.2
81094	7	Sololá	702	San José Chacayá	5	Chacayá	2	Febrero	2023-02-27T00:00:00	2024-11-06T09:00:00	7	Dirección del viento	3.22
81095	7	Sololá	702	San José Chacayá	5	Chacayá	2	Febrero	2023-02-27T00:00:00	2024-11-06T09:00:00	1	Precipitación	0
81096	7	Sololá	702	San José Chacayá	5	Chacayá	2	Febrero	2023-02-27T00:00:00	2024-11-06T09:00:00	8	Radiación solar	473
81097	7	Sololá	702	San José Chacayá	5	Chacayá	2	Febrero	2023-02-27T00:00:00	2024-11-06T10:00:00	2	Temperatura media	17.3
81098	7	Sololá	702	San José Chacayá	5	Chacayá	2	Febrero	2023-02-27T00:00:00	2024-11-06T10:00:00	4	Temperatura máxima	17.3
81099	7	Sololá	702	San José Chacayá	5	Chacayá	2	Febrero	2023-02-27T00:00:00	2024-11-06T10:00:00	3	Temperatura mínima	16
81100	7	Sololá	702	San José Chacayá	5	Chacayá	2	Febrero	2023-02-27T00:00:00	2024-11-06T10:00:00	5	Humedad	66
81101	7	Sololá	702	San José Chacayá	5	Chacayá	2	Febrero	2023-02-27T00:00:00	2024-11-06T10:00:00	6	Velocidad del viento	4.8
81102	7	Sololá	702	San José Chacayá	5	Chacayá	2	Febrero	2023-02-27T00:00:00	2024-11-06T10:00:00	7	Dirección del viento	4.83
81103	7	Sololá	702	San José Chacayá	5	Chacayá	2	Febrero	2023-02-27T00:00:00	2024-11-06T10:00:00	1	Precipitación	0
81104	7	Sololá	702	San José Chacayá	5	Chacayá	2	Febrero	2023-02-27T00:00:00	2024-11-06T10:00:00	8	Radiación solar	699
81105	7	Sololá	702	San José Chacayá	5	Chacayá	2	Febrero	2023-02-27T00:00:00	2024-11-06T11:00:00	2	Temperatura media	19.1
81106	7	Sololá	702	San José Chacayá	5	Chacayá	2	Febrero	2023-02-27T00:00:00	2024-11-06T11:00:00	4	Temperatura máxima	19.3
81107	7	Sololá	702	San José Chacayá	5	Chacayá	2	Febrero	2023-02-27T00:00:00	2024-11-06T11:00:00	3	Temperatura mínima	17.3
81108	7	Sololá	702	San José Chacayá	5	Chacayá	2	Febrero	2023-02-27T00:00:00	2024-11-06T11:00:00	5	Humedad	51
81109	7	Sololá	702	San José Chacayá	5	Chacayá	2	Febrero	2023-02-27T00:00:00	2024-11-06T11:00:00	6	Velocidad del viento	6.4
81110	7	Sololá	702	San José Chacayá	5	Chacayá	2	Febrero	2023-02-27T00:00:00	2024-11-06T11:00:00	7	Dirección del viento	6.44
81111	7	Sololá	702	San José Chacayá	5	Chacayá	2	Febrero	2023-02-27T00:00:00	2024-11-06T11:00:00	1	Precipitación	0
81112	7	Sololá	702	San José Chacayá	5	Chacayá	2	Febrero	2023-02-27T00:00:00	2024-11-06T11:00:00	8	Radiación solar	862
81113	7	Sololá	702	San José Chacayá	5	Chacayá	2	Febrero	2023-02-27T00:00:00	2024-11-06T12:00:00	2	Temperatura media	19.9
81114	7	Sololá	702	San José Chacayá	5	Chacayá	2	Febrero	2023-02-27T00:00:00	2024-11-06T12:00:00	4	Temperatura máxima	20.2
81115	7	Sololá	702	San José Chacayá	5	Chacayá	2	Febrero	2023-02-27T00:00:00	2024-11-06T12:00:00	3	Temperatura mínima	18.9
81116	7	Sololá	702	San José Chacayá	5	Chacayá	2	Febrero	2023-02-27T00:00:00	2024-11-06T12:00:00	5	Humedad	53
81117	7	Sololá	702	San José Chacayá	5	Chacayá	2	Febrero	2023-02-27T00:00:00	2024-11-06T12:00:00	6	Velocidad del viento	6.4
81118	7	Sololá	702	San José Chacayá	5	Chacayá	2	Febrero	2023-02-27T00:00:00	2024-11-06T12:00:00	7	Dirección del viento	6.44
81119	7	Sololá	702	San José Chacayá	5	Chacayá	2	Febrero	2023-02-27T00:00:00	2024-11-06T12:00:00	1	Precipitación	0
81120	7	Sololá	702	San José Chacayá	5	Chacayá	2	Febrero	2023-02-27T00:00:00	2024-11-06T12:00:00	8	Radiación solar	938
81121	7	Sololá	702	San José Chacayá	5	Chacayá	2	Febrero	2023-02-27T00:00:00	2024-11-06T13:00:00	2	Temperatura media	19.2
81122	7	Sololá	702	San José Chacayá	5	Chacayá	2	Febrero	2023-02-27T00:00:00	2024-11-06T13:00:00	4	Temperatura máxima	20.6
81123	7	Sololá	702	San José Chacayá	5	Chacayá	2	Febrero	2023-02-27T00:00:00	2024-11-06T13:00:00	3	Temperatura mínima	19.2
81124	7	Sololá	702	San José Chacayá	5	Chacayá	2	Febrero	2023-02-27T00:00:00	2024-11-06T13:00:00	5	Humedad	63
81125	7	Sololá	702	San José Chacayá	5	Chacayá	2	Febrero	2023-02-27T00:00:00	2024-11-06T13:00:00	6	Velocidad del viento	6.4
81126	7	Sololá	702	San José Chacayá	5	Chacayá	2	Febrero	2023-02-27T00:00:00	2024-11-06T13:00:00	7	Dirección del viento	6.44
81127	7	Sololá	702	San José Chacayá	5	Chacayá	2	Febrero	2023-02-27T00:00:00	2024-11-06T13:00:00	1	Precipitación	0
81128	7	Sololá	702	San José Chacayá	5	Chacayá	2	Febrero	2023-02-27T00:00:00	2024-11-06T13:00:00	8	Radiación solar	960
81129	7	Sololá	702	San José Chacayá	5	Chacayá	2	Febrero	2023-02-27T00:00:00	2024-11-06T14:00:00	2	Temperatura media	19.6
81130	7	Sololá	702	San José Chacayá	5	Chacayá	2	Febrero	2023-02-27T00:00:00	2024-11-06T14:00:00	4	Temperatura máxima	20.4
81131	7	Sololá	702	San José Chacayá	5	Chacayá	2	Febrero	2023-02-27T00:00:00	2024-11-06T14:00:00	3	Temperatura mínima	19.2
81132	7	Sololá	702	San José Chacayá	5	Chacayá	2	Febrero	2023-02-27T00:00:00	2024-11-06T14:00:00	5	Humedad	68
81133	7	Sololá	702	San José Chacayá	5	Chacayá	2	Febrero	2023-02-27T00:00:00	2024-11-06T14:00:00	6	Velocidad del viento	6.4
81134	7	Sololá	702	San José Chacayá	5	Chacayá	2	Febrero	2023-02-27T00:00:00	2024-11-06T14:00:00	7	Dirección del viento	6.44
81135	7	Sololá	702	San José Chacayá	5	Chacayá	2	Febrero	2023-02-27T00:00:00	2024-11-06T14:00:00	1	Precipitación	0
81136	7	Sololá	702	San José Chacayá	5	Chacayá	2	Febrero	2023-02-27T00:00:00	2024-11-06T14:00:00	8	Radiación solar	916
81137	7	Sololá	702	San José Chacayá	5	Chacayá	2	Febrero	2023-02-27T00:00:00	2024-11-06T15:00:00	2	Temperatura media	18.6
81138	7	Sololá	702	San José Chacayá	5	Chacayá	2	Febrero	2023-02-27T00:00:00	2024-11-06T15:00:00	4	Temperatura máxima	19.7
81139	7	Sololá	702	San José Chacayá	5	Chacayá	2	Febrero	2023-02-27T00:00:00	2024-11-06T15:00:00	3	Temperatura mínima	18.1
81140	7	Sololá	702	San José Chacayá	5	Chacayá	2	Febrero	2023-02-27T00:00:00	2024-11-06T15:00:00	5	Humedad	73
81141	7	Sololá	702	San José Chacayá	5	Chacayá	2	Febrero	2023-02-27T00:00:00	2024-11-06T15:00:00	6	Velocidad del viento	9.7
81142	7	Sololá	702	San José Chacayá	5	Chacayá	2	Febrero	2023-02-27T00:00:00	2024-11-06T15:00:00	7	Dirección del viento	9.66
81143	7	Sololá	702	San José Chacayá	5	Chacayá	2	Febrero	2023-02-27T00:00:00	2024-11-06T15:00:00	1	Precipitación	0
81144	7	Sololá	702	San José Chacayá	5	Chacayá	2	Febrero	2023-02-27T00:00:00	2024-11-06T15:00:00	8	Radiación solar	858
81145	7	Sololá	702	San José Chacayá	5	Chacayá	2	Febrero	2023-02-27T00:00:00	2024-11-06T16:00:00	2	Temperatura media	17.3
81146	7	Sololá	702	San José Chacayá	5	Chacayá	2	Febrero	2023-02-27T00:00:00	2024-11-06T16:00:00	4	Temperatura máxima	18.6
81147	7	Sololá	702	San José Chacayá	5	Chacayá	2	Febrero	2023-02-27T00:00:00	2024-11-06T16:00:00	3	Temperatura mínima	17.2
81148	7	Sololá	702	San José Chacayá	5	Chacayá	2	Febrero	2023-02-27T00:00:00	2024-11-06T16:00:00	5	Humedad	77
81149	7	Sololá	702	San José Chacayá	5	Chacayá	2	Febrero	2023-02-27T00:00:00	2024-11-06T16:00:00	6	Velocidad del viento	8
81150	7	Sololá	702	San José Chacayá	5	Chacayá	2	Febrero	2023-02-27T00:00:00	2024-11-06T16:00:00	7	Dirección del viento	8.05
81151	7	Sololá	702	San José Chacayá	5	Chacayá	2	Febrero	2023-02-27T00:00:00	2024-11-06T16:00:00	1	Precipitación	0
81152	7	Sololá	702	San José Chacayá	5	Chacayá	2	Febrero	2023-02-27T00:00:00	2024-11-06T16:00:00	8	Radiación solar	296
81153	7	Sololá	702	San José Chacayá	5	Chacayá	2	Febrero	2023-02-27T00:00:00	2024-11-06T17:00:00	2	Temperatura media	15.9
81154	7	Sololá	702	San José Chacayá	5	Chacayá	2	Febrero	2023-02-27T00:00:00	2024-11-06T17:00:00	4	Temperatura máxima	17.2
81155	7	Sololá	702	San José Chacayá	5	Chacayá	2	Febrero	2023-02-27T00:00:00	2024-11-06T17:00:00	3	Temperatura mínima	15.9
81156	7	Sololá	702	San José Chacayá	5	Chacayá	2	Febrero	2023-02-27T00:00:00	2024-11-06T17:00:00	5	Humedad	82
81157	7	Sololá	702	San José Chacayá	5	Chacayá	2	Febrero	2023-02-27T00:00:00	2024-11-06T17:00:00	6	Velocidad del viento	4.8
81158	7	Sololá	702	San José Chacayá	5	Chacayá	2	Febrero	2023-02-27T00:00:00	2024-11-06T17:00:00	7	Dirección del viento	4.83
81159	7	Sololá	702	San José Chacayá	5	Chacayá	2	Febrero	2023-02-27T00:00:00	2024-11-06T17:00:00	1	Precipitación	0
81160	7	Sololá	702	San José Chacayá	5	Chacayá	2	Febrero	2023-02-27T00:00:00	2024-11-06T17:00:00	8	Radiación solar	61
81161	7	Sololá	702	San José Chacayá	5	Chacayá	2	Febrero	2023-02-27T00:00:00	2024-11-06T18:00:00	2	Temperatura media	15.3
81162	7	Sololá	702	San José Chacayá	5	Chacayá	2	Febrero	2023-02-27T00:00:00	2024-11-06T18:00:00	4	Temperatura máxima	15.9
81163	7	Sololá	702	San José Chacayá	5	Chacayá	2	Febrero	2023-02-27T00:00:00	2024-11-06T18:00:00	3	Temperatura mínima	15.3
81164	7	Sololá	702	San José Chacayá	5	Chacayá	2	Febrero	2023-02-27T00:00:00	2024-11-06T18:00:00	5	Humedad	83
81165	7	Sololá	702	San José Chacayá	5	Chacayá	2	Febrero	2023-02-27T00:00:00	2024-11-06T18:00:00	6	Velocidad del viento	3.2
81166	7	Sololá	702	San José Chacayá	5	Chacayá	2	Febrero	2023-02-27T00:00:00	2024-11-06T18:00:00	7	Dirección del viento	3.22
81167	7	Sololá	702	San José Chacayá	5	Chacayá	2	Febrero	2023-02-27T00:00:00	2024-11-06T18:00:00	1	Precipitación	0
81168	7	Sololá	702	San José Chacayá	5	Chacayá	2	Febrero	2023-02-27T00:00:00	2024-11-06T18:00:00	8	Radiación solar	14
81169	7	Sololá	702	San José Chacayá	5	Chacayá	2	Febrero	2023-02-27T00:00:00	2024-11-06T19:00:00	2	Temperatura media	14.2
81170	7	Sololá	702	San José Chacayá	5	Chacayá	2	Febrero	2023-02-27T00:00:00	2024-11-06T19:00:00	4	Temperatura máxima	15.4
81171	7	Sololá	702	San José Chacayá	5	Chacayá	2	Febrero	2023-02-27T00:00:00	2024-11-06T19:00:00	3	Temperatura mínima	14.2
81172	7	Sololá	702	San José Chacayá	5	Chacayá	2	Febrero	2023-02-27T00:00:00	2024-11-06T19:00:00	5	Humedad	83
81173	7	Sololá	702	San José Chacayá	5	Chacayá	2	Febrero	2023-02-27T00:00:00	2024-11-06T19:00:00	6	Velocidad del viento	0
81174	7	Sololá	702	San José Chacayá	5	Chacayá	2	Febrero	2023-02-27T00:00:00	2024-11-06T19:00:00	7	Dirección del viento	0
81175	7	Sololá	702	San José Chacayá	5	Chacayá	2	Febrero	2023-02-27T00:00:00	2024-11-06T19:00:00	1	Precipitación	0
81176	7	Sololá	702	San José Chacayá	5	Chacayá	2	Febrero	2023-02-27T00:00:00	2024-11-06T19:00:00	8	Radiación solar	0
81177	7	Sololá	702	San José Chacayá	5	Chacayá	2	Febrero	2023-02-27T00:00:00	2024-11-06T20:00:00	2	Temperatura media	12.1
81178	7	Sololá	702	San José Chacayá	5	Chacayá	2	Febrero	2023-02-27T00:00:00	2024-11-06T20:00:00	4	Temperatura máxima	14.2
81179	7	Sololá	702	San José Chacayá	5	Chacayá	2	Febrero	2023-02-27T00:00:00	2024-11-06T20:00:00	3	Temperatura mínima	12.1
81180	7	Sololá	702	San José Chacayá	5	Chacayá	2	Febrero	2023-02-27T00:00:00	2024-11-06T20:00:00	5	Humedad	83
81181	7	Sololá	702	San José Chacayá	5	Chacayá	2	Febrero	2023-02-27T00:00:00	2024-11-06T20:00:00	6	Velocidad del viento	1.6
81182	7	Sololá	702	San José Chacayá	5	Chacayá	2	Febrero	2023-02-27T00:00:00	2024-11-06T20:00:00	7	Dirección del viento	1.61
81183	7	Sololá	702	San José Chacayá	5	Chacayá	2	Febrero	2023-02-27T00:00:00	2024-11-06T20:00:00	1	Precipitación	0
81184	7	Sololá	702	San José Chacayá	5	Chacayá	2	Febrero	2023-02-27T00:00:00	2024-11-06T20:00:00	8	Radiación solar	0
81185	7	Sololá	702	San José Chacayá	5	Chacayá	2	Febrero	2023-02-27T00:00:00	2024-11-06T21:00:00	2	Temperatura media	11.1
81186	7	Sololá	702	San José Chacayá	5	Chacayá	2	Febrero	2023-02-27T00:00:00	2024-11-06T21:00:00	4	Temperatura máxima	12.1
81187	7	Sololá	702	San José Chacayá	5	Chacayá	2	Febrero	2023-02-27T00:00:00	2024-11-06T21:00:00	3	Temperatura mínima	11.1
81188	7	Sololá	702	San José Chacayá	5	Chacayá	2	Febrero	2023-02-27T00:00:00	2024-11-06T21:00:00	5	Humedad	83
81189	7	Sololá	702	San José Chacayá	5	Chacayá	2	Febrero	2023-02-27T00:00:00	2024-11-06T21:00:00	6	Velocidad del viento	3.2
81190	7	Sololá	702	San José Chacayá	5	Chacayá	2	Febrero	2023-02-27T00:00:00	2024-11-06T21:00:00	7	Dirección del viento	3.22
81191	7	Sololá	702	San José Chacayá	5	Chacayá	2	Febrero	2023-02-27T00:00:00	2024-11-06T21:00:00	1	Precipitación	0
81192	7	Sololá	702	San José Chacayá	5	Chacayá	2	Febrero	2023-02-27T00:00:00	2024-11-06T21:00:00	8	Radiación solar	0
81193	7	Sololá	702	San José Chacayá	5	Chacayá	2	Febrero	2023-02-27T00:00:00	2024-11-06T22:00:00	2	Temperatura media	10.5
81194	7	Sololá	702	San José Chacayá	5	Chacayá	2	Febrero	2023-02-27T00:00:00	2024-11-06T22:00:00	4	Temperatura máxima	11.1
81195	7	Sololá	702	San José Chacayá	5	Chacayá	2	Febrero	2023-02-27T00:00:00	2024-11-06T22:00:00	3	Temperatura mínima	10.4
81196	7	Sololá	702	San José Chacayá	5	Chacayá	2	Febrero	2023-02-27T00:00:00	2024-11-06T22:00:00	5	Humedad	83
81197	7	Sololá	702	San José Chacayá	5	Chacayá	2	Febrero	2023-02-27T00:00:00	2024-11-06T22:00:00	6	Velocidad del viento	4.8
81198	7	Sololá	702	San José Chacayá	5	Chacayá	2	Febrero	2023-02-27T00:00:00	2024-11-06T22:00:00	7	Dirección del viento	4.83
81199	7	Sololá	702	San José Chacayá	5	Chacayá	2	Febrero	2023-02-27T00:00:00	2024-11-06T22:00:00	1	Precipitación	0
81200	7	Sololá	702	San José Chacayá	5	Chacayá	2	Febrero	2023-02-27T00:00:00	2024-11-06T22:00:00	8	Radiación solar	0
81201	7	Sololá	702	San José Chacayá	5	Chacayá	2	Febrero	2023-02-27T00:00:00	2024-11-06T23:00:00	2	Temperatura media	9.7
81202	7	Sololá	702	San José Chacayá	5	Chacayá	2	Febrero	2023-02-27T00:00:00	2024-11-06T23:00:00	4	Temperatura máxima	10.6
81203	7	Sololá	702	San José Chacayá	5	Chacayá	2	Febrero	2023-02-27T00:00:00	2024-11-06T23:00:00	3	Temperatura mínima	9.7
81204	7	Sololá	702	San José Chacayá	5	Chacayá	2	Febrero	2023-02-27T00:00:00	2024-11-06T23:00:00	5	Humedad	83
81205	7	Sololá	702	San José Chacayá	5	Chacayá	2	Febrero	2023-02-27T00:00:00	2024-11-06T23:00:00	6	Velocidad del viento	4.8
81206	7	Sololá	702	San José Chacayá	5	Chacayá	2	Febrero	2023-02-27T00:00:00	2024-11-06T23:00:00	7	Dirección del viento	4.83
81207	7	Sololá	702	San José Chacayá	5	Chacayá	2	Febrero	2023-02-27T00:00:00	2024-11-06T23:00:00	1	Precipitación	0
81208	7	Sololá	702	San José Chacayá	5	Chacayá	2	Febrero	2023-02-27T00:00:00	2024-11-06T23:00:00	8	Radiación solar	0
81209	7	Sololá	702	San José Chacayá	5	Chacayá	2	Febrero	2023-02-28T00:00:00	2024-11-06T00:00:00	2	Temperatura media	9.9
81210	7	Sololá	702	San José Chacayá	5	Chacayá	2	Febrero	2023-02-28T00:00:00	2024-11-06T00:00:00	4	Temperatura máxima	10
81211	7	Sololá	702	San José Chacayá	5	Chacayá	2	Febrero	2023-02-28T00:00:00	2024-11-06T00:00:00	3	Temperatura mínima	9.5
81212	7	Sololá	702	San José Chacayá	5	Chacayá	2	Febrero	2023-02-28T00:00:00	2024-11-06T00:00:00	5	Humedad	83
81213	7	Sololá	702	San José Chacayá	5	Chacayá	2	Febrero	2023-02-28T00:00:00	2024-11-06T00:00:00	6	Velocidad del viento	4.8
81214	7	Sololá	702	San José Chacayá	5	Chacayá	2	Febrero	2023-02-28T00:00:00	2024-11-06T00:00:00	7	Dirección del viento	4.83
81215	7	Sololá	702	San José Chacayá	5	Chacayá	2	Febrero	2023-02-28T00:00:00	2024-11-06T00:00:00	1	Precipitación	0
81216	7	Sololá	702	San José Chacayá	5	Chacayá	2	Febrero	2023-02-28T00:00:00	2024-11-06T00:00:00	8	Radiación solar	0
81217	7	Sololá	702	San José Chacayá	5	Chacayá	2	Febrero	2023-02-28T00:00:00	2024-11-06T01:00:00	2	Temperatura media	9
81218	7	Sololá	702	San José Chacayá	5	Chacayá	2	Febrero	2023-02-28T00:00:00	2024-11-06T01:00:00	4	Temperatura máxima	9.9
81219	7	Sololá	702	San José Chacayá	5	Chacayá	2	Febrero	2023-02-28T00:00:00	2024-11-06T01:00:00	3	Temperatura mínima	8.9
81220	7	Sololá	702	San José Chacayá	5	Chacayá	2	Febrero	2023-02-28T00:00:00	2024-11-06T01:00:00	5	Humedad	84
81221	7	Sololá	702	San José Chacayá	5	Chacayá	2	Febrero	2023-02-28T00:00:00	2024-11-06T01:00:00	6	Velocidad del viento	4.8
81222	7	Sololá	702	San José Chacayá	5	Chacayá	2	Febrero	2023-02-28T00:00:00	2024-11-06T01:00:00	7	Dirección del viento	4.83
81223	7	Sololá	702	San José Chacayá	5	Chacayá	2	Febrero	2023-02-28T00:00:00	2024-11-06T01:00:00	1	Precipitación	0
81224	7	Sololá	702	San José Chacayá	5	Chacayá	2	Febrero	2023-02-28T00:00:00	2024-11-06T01:00:00	8	Radiación solar	0
81225	7	Sololá	702	San José Chacayá	5	Chacayá	2	Febrero	2023-02-28T00:00:00	2024-11-06T02:00:00	2	Temperatura media	8.7
81226	7	Sololá	702	San José Chacayá	5	Chacayá	2	Febrero	2023-02-28T00:00:00	2024-11-06T02:00:00	4	Temperatura máxima	9.1
81227	7	Sololá	702	San José Chacayá	5	Chacayá	2	Febrero	2023-02-28T00:00:00	2024-11-06T02:00:00	3	Temperatura mínima	8.6
81228	7	Sololá	702	San José Chacayá	5	Chacayá	2	Febrero	2023-02-28T00:00:00	2024-11-06T02:00:00	5	Humedad	84
81229	7	Sololá	702	San José Chacayá	5	Chacayá	2	Febrero	2023-02-28T00:00:00	2024-11-06T02:00:00	6	Velocidad del viento	6.4
81230	7	Sololá	702	San José Chacayá	5	Chacayá	2	Febrero	2023-02-28T00:00:00	2024-11-06T02:00:00	7	Dirección del viento	6.44
81231	7	Sololá	702	San José Chacayá	5	Chacayá	2	Febrero	2023-02-28T00:00:00	2024-11-06T02:00:00	1	Precipitación	0
81232	7	Sololá	702	San José Chacayá	5	Chacayá	2	Febrero	2023-02-28T00:00:00	2024-11-06T02:00:00	8	Radiación solar	0
81233	7	Sololá	702	San José Chacayá	5	Chacayá	2	Febrero	2023-02-28T00:00:00	2024-11-06T03:00:00	2	Temperatura media	8.4
81234	7	Sololá	702	San José Chacayá	5	Chacayá	2	Febrero	2023-02-28T00:00:00	2024-11-06T03:00:00	4	Temperatura máxima	8.7
81235	7	Sololá	702	San José Chacayá	5	Chacayá	2	Febrero	2023-02-28T00:00:00	2024-11-06T03:00:00	3	Temperatura mínima	8.1
81236	7	Sololá	702	San José Chacayá	5	Chacayá	2	Febrero	2023-02-28T00:00:00	2024-11-06T03:00:00	5	Humedad	83
81237	7	Sololá	702	San José Chacayá	5	Chacayá	2	Febrero	2023-02-28T00:00:00	2024-11-06T03:00:00	6	Velocidad del viento	4.8
81238	7	Sololá	702	San José Chacayá	5	Chacayá	2	Febrero	2023-02-28T00:00:00	2024-11-06T03:00:00	7	Dirección del viento	4.83
81239	7	Sololá	702	San José Chacayá	5	Chacayá	2	Febrero	2023-02-28T00:00:00	2024-11-06T03:00:00	1	Precipitación	0
81240	7	Sololá	702	San José Chacayá	5	Chacayá	2	Febrero	2023-02-28T00:00:00	2024-11-06T03:00:00	8	Radiación solar	0
81241	7	Sololá	702	San José Chacayá	5	Chacayá	2	Febrero	2023-02-28T00:00:00	2024-11-06T04:00:00	2	Temperatura media	7.5
81242	7	Sololá	702	San José Chacayá	5	Chacayá	2	Febrero	2023-02-28T00:00:00	2024-11-06T04:00:00	4	Temperatura máxima	8.4
81243	7	Sololá	702	San José Chacayá	5	Chacayá	2	Febrero	2023-02-28T00:00:00	2024-11-06T04:00:00	3	Temperatura mínima	7.5
81244	7	Sololá	702	San José Chacayá	5	Chacayá	2	Febrero	2023-02-28T00:00:00	2024-11-06T04:00:00	5	Humedad	84
81245	7	Sololá	702	San José Chacayá	5	Chacayá	2	Febrero	2023-02-28T00:00:00	2024-11-06T04:00:00	6	Velocidad del viento	4.8
81246	7	Sololá	702	San José Chacayá	5	Chacayá	2	Febrero	2023-02-28T00:00:00	2024-11-06T04:00:00	7	Dirección del viento	4.83
81247	7	Sololá	702	San José Chacayá	5	Chacayá	2	Febrero	2023-02-28T00:00:00	2024-11-06T04:00:00	1	Precipitación	0
81248	7	Sololá	702	San José Chacayá	5	Chacayá	2	Febrero	2023-02-28T00:00:00	2024-11-06T04:00:00	8	Radiación solar	0
81249	7	Sololá	702	San José Chacayá	5	Chacayá	2	Febrero	2023-02-28T00:00:00	2024-11-06T05:00:00	2	Temperatura media	6.7
81250	7	Sololá	702	San José Chacayá	5	Chacayá	2	Febrero	2023-02-28T00:00:00	2024-11-06T05:00:00	4	Temperatura máxima	7.4
81251	7	Sololá	702	San José Chacayá	5	Chacayá	2	Febrero	2023-02-28T00:00:00	2024-11-06T05:00:00	3	Temperatura mínima	6.7
81252	7	Sololá	702	San José Chacayá	5	Chacayá	2	Febrero	2023-02-28T00:00:00	2024-11-06T05:00:00	5	Humedad	85
81253	7	Sololá	702	San José Chacayá	5	Chacayá	2	Febrero	2023-02-28T00:00:00	2024-11-06T05:00:00	6	Velocidad del viento	6.4
81254	7	Sololá	702	San José Chacayá	5	Chacayá	2	Febrero	2023-02-28T00:00:00	2024-11-06T05:00:00	7	Dirección del viento	6.44
81255	7	Sololá	702	San José Chacayá	5	Chacayá	2	Febrero	2023-02-28T00:00:00	2024-11-06T05:00:00	1	Precipitación	0
81256	7	Sololá	702	San José Chacayá	5	Chacayá	2	Febrero	2023-02-28T00:00:00	2024-11-06T05:00:00	8	Radiación solar	0
81257	7	Sololá	702	San José Chacayá	5	Chacayá	2	Febrero	2023-02-28T00:00:00	2024-11-06T06:00:00	2	Temperatura media	6.3
81258	7	Sololá	702	San José Chacayá	5	Chacayá	2	Febrero	2023-02-28T00:00:00	2024-11-06T06:00:00	4	Temperatura máxima	6.7
81259	7	Sololá	702	San José Chacayá	5	Chacayá	2	Febrero	2023-02-28T00:00:00	2024-11-06T06:00:00	3	Temperatura mínima	6.1
81260	7	Sololá	702	San José Chacayá	5	Chacayá	2	Febrero	2023-02-28T00:00:00	2024-11-06T06:00:00	5	Humedad	85
81261	7	Sololá	702	San José Chacayá	5	Chacayá	2	Febrero	2023-02-28T00:00:00	2024-11-06T06:00:00	6	Velocidad del viento	6.4
81262	7	Sololá	702	San José Chacayá	5	Chacayá	2	Febrero	2023-02-28T00:00:00	2024-11-06T06:00:00	7	Dirección del viento	6.44
81263	7	Sololá	702	San José Chacayá	5	Chacayá	2	Febrero	2023-02-28T00:00:00	2024-11-06T06:00:00	1	Precipitación	0
81264	7	Sololá	702	San José Chacayá	5	Chacayá	2	Febrero	2023-02-28T00:00:00	2024-11-06T06:00:00	8	Radiación solar	0
81265	7	Sololá	702	San José Chacayá	5	Chacayá	2	Febrero	2023-02-28T00:00:00	2024-11-06T07:00:00	2	Temperatura media	6
81266	7	Sololá	702	San José Chacayá	5	Chacayá	2	Febrero	2023-02-28T00:00:00	2024-11-06T07:00:00	4	Temperatura máxima	6.3
81267	7	Sololá	702	San José Chacayá	5	Chacayá	2	Febrero	2023-02-28T00:00:00	2024-11-06T07:00:00	3	Temperatura mínima	5.3
81268	7	Sololá	702	San José Chacayá	5	Chacayá	2	Febrero	2023-02-28T00:00:00	2024-11-06T07:00:00	5	Humedad	85
81269	7	Sololá	702	San José Chacayá	5	Chacayá	2	Febrero	2023-02-28T00:00:00	2024-11-06T07:00:00	6	Velocidad del viento	6.4
81270	7	Sololá	702	San José Chacayá	5	Chacayá	2	Febrero	2023-02-28T00:00:00	2024-11-06T07:00:00	7	Dirección del viento	6.44
81271	7	Sololá	702	San José Chacayá	5	Chacayá	2	Febrero	2023-02-28T00:00:00	2024-11-06T07:00:00	1	Precipitación	0
81272	7	Sololá	702	San José Chacayá	5	Chacayá	2	Febrero	2023-02-28T00:00:00	2024-11-06T07:00:00	8	Radiación solar	24
81273	7	Sololá	702	San José Chacayá	5	Chacayá	2	Febrero	2023-02-28T00:00:00	2024-11-06T08:00:00	2	Temperatura media	11.9
81274	7	Sololá	702	San José Chacayá	5	Chacayá	2	Febrero	2023-02-28T00:00:00	2024-11-06T08:00:00	4	Temperatura máxima	11.9
81275	7	Sololá	702	San José Chacayá	5	Chacayá	2	Febrero	2023-02-28T00:00:00	2024-11-06T08:00:00	3	Temperatura mínima	6
81276	7	Sololá	702	San José Chacayá	5	Chacayá	2	Febrero	2023-02-28T00:00:00	2024-11-06T08:00:00	5	Humedad	80
81277	7	Sololá	702	San José Chacayá	5	Chacayá	2	Febrero	2023-02-28T00:00:00	2024-11-06T08:00:00	6	Velocidad del viento	3.2
81278	7	Sololá	702	San José Chacayá	5	Chacayá	2	Febrero	2023-02-28T00:00:00	2024-11-06T08:00:00	7	Dirección del viento	3.22
81279	7	Sololá	702	San José Chacayá	5	Chacayá	2	Febrero	2023-02-28T00:00:00	2024-11-06T08:00:00	1	Precipitación	0
81280	7	Sololá	702	San José Chacayá	5	Chacayá	2	Febrero	2023-02-28T00:00:00	2024-11-06T08:00:00	8	Radiación solar	205
81281	7	Sololá	702	San José Chacayá	5	Chacayá	2	Febrero	2023-02-28T00:00:00	2024-11-06T09:00:00	2	Temperatura media	17.2
81282	7	Sololá	702	San José Chacayá	5	Chacayá	2	Febrero	2023-02-28T00:00:00	2024-11-06T09:00:00	4	Temperatura máxima	17.2
81283	7	Sololá	702	San José Chacayá	5	Chacayá	2	Febrero	2023-02-28T00:00:00	2024-11-06T09:00:00	3	Temperatura mínima	11.9
81284	7	Sololá	702	San José Chacayá	5	Chacayá	2	Febrero	2023-02-28T00:00:00	2024-11-06T09:00:00	5	Humedad	62
81285	7	Sololá	702	San José Chacayá	5	Chacayá	2	Febrero	2023-02-28T00:00:00	2024-11-06T09:00:00	6	Velocidad del viento	1.6
81286	7	Sololá	702	San José Chacayá	5	Chacayá	2	Febrero	2023-02-28T00:00:00	2024-11-06T09:00:00	7	Dirección del viento	1.61
81287	7	Sololá	702	San José Chacayá	5	Chacayá	2	Febrero	2023-02-28T00:00:00	2024-11-06T09:00:00	1	Precipitación	0
81288	7	Sololá	702	San José Chacayá	5	Chacayá	2	Febrero	2023-02-28T00:00:00	2024-11-06T09:00:00	8	Radiación solar	483
81289	7	Sololá	702	San José Chacayá	5	Chacayá	2	Febrero	2023-02-28T00:00:00	2024-11-06T10:00:00	2	Temperatura media	18.3
81290	7	Sololá	702	San José Chacayá	5	Chacayá	2	Febrero	2023-02-28T00:00:00	2024-11-06T10:00:00	4	Temperatura máxima	18.7
81291	7	Sololá	702	San José Chacayá	5	Chacayá	2	Febrero	2023-02-28T00:00:00	2024-11-06T10:00:00	3	Temperatura mínima	17.1
81292	7	Sololá	702	San José Chacayá	5	Chacayá	2	Febrero	2023-02-28T00:00:00	2024-11-06T10:00:00	5	Humedad	65
81293	7	Sololá	702	San José Chacayá	5	Chacayá	2	Febrero	2023-02-28T00:00:00	2024-11-06T10:00:00	6	Velocidad del viento	4.8
81294	7	Sololá	702	San José Chacayá	5	Chacayá	2	Febrero	2023-02-28T00:00:00	2024-11-06T10:00:00	7	Dirección del viento	4.83
81295	7	Sololá	702	San José Chacayá	5	Chacayá	2	Febrero	2023-02-28T00:00:00	2024-11-06T10:00:00	1	Precipitación	0
81296	7	Sololá	702	San José Chacayá	5	Chacayá	2	Febrero	2023-02-28T00:00:00	2024-11-06T10:00:00	8	Radiación solar	705
81297	7	Sololá	702	San José Chacayá	5	Chacayá	2	Febrero	2023-02-28T00:00:00	2024-11-06T11:00:00	2	Temperatura media	20
81298	7	Sololá	702	San José Chacayá	5	Chacayá	2	Febrero	2023-02-28T00:00:00	2024-11-06T11:00:00	4	Temperatura máxima	20.1
81299	7	Sololá	702	San José Chacayá	5	Chacayá	2	Febrero	2023-02-28T00:00:00	2024-11-06T11:00:00	3	Temperatura mínima	18.4
81300	7	Sololá	702	San José Chacayá	5	Chacayá	2	Febrero	2023-02-28T00:00:00	2024-11-06T11:00:00	5	Humedad	59
81301	7	Sololá	702	San José Chacayá	5	Chacayá	2	Febrero	2023-02-28T00:00:00	2024-11-06T11:00:00	6	Velocidad del viento	6.4
81302	7	Sololá	702	San José Chacayá	5	Chacayá	2	Febrero	2023-02-28T00:00:00	2024-11-06T11:00:00	7	Dirección del viento	6.44
81303	7	Sololá	702	San José Chacayá	5	Chacayá	2	Febrero	2023-02-28T00:00:00	2024-11-06T11:00:00	1	Precipitación	0
81304	7	Sololá	702	San José Chacayá	5	Chacayá	2	Febrero	2023-02-28T00:00:00	2024-11-06T11:00:00	8	Radiación solar	865
81305	7	Sololá	702	San José Chacayá	5	Chacayá	2	Febrero	2023-02-28T00:00:00	2024-11-06T12:00:00	2	Temperatura media	20
81306	7	Sololá	702	San José Chacayá	5	Chacayá	2	Febrero	2023-02-28T00:00:00	2024-11-06T12:00:00	4	Temperatura máxima	20.2
81307	7	Sololá	702	San José Chacayá	5	Chacayá	2	Febrero	2023-02-28T00:00:00	2024-11-06T12:00:00	3	Temperatura mínima	19.8
81308	7	Sololá	702	San José Chacayá	5	Chacayá	2	Febrero	2023-02-28T00:00:00	2024-11-06T12:00:00	5	Humedad	64
81309	7	Sololá	702	San José Chacayá	5	Chacayá	2	Febrero	2023-02-28T00:00:00	2024-11-06T12:00:00	6	Velocidad del viento	6.4
81310	7	Sololá	702	San José Chacayá	5	Chacayá	2	Febrero	2023-02-28T00:00:00	2024-11-06T12:00:00	7	Dirección del viento	6.44
81311	7	Sololá	702	San José Chacayá	5	Chacayá	2	Febrero	2023-02-28T00:00:00	2024-11-06T12:00:00	1	Precipitación	0
81312	7	Sololá	702	San José Chacayá	5	Chacayá	2	Febrero	2023-02-28T00:00:00	2024-11-06T12:00:00	8	Radiación solar	927
81313	7	Sololá	702	San José Chacayá	5	Chacayá	2	Febrero	2023-02-28T00:00:00	2024-11-06T13:00:00	2	Temperatura media	20.3
81314	7	Sololá	702	San José Chacayá	5	Chacayá	2	Febrero	2023-02-28T00:00:00	2024-11-06T13:00:00	4	Temperatura máxima	20.7
81315	7	Sololá	702	San José Chacayá	5	Chacayá	2	Febrero	2023-02-28T00:00:00	2024-11-06T13:00:00	3	Temperatura mínima	20
81316	7	Sololá	702	San José Chacayá	5	Chacayá	2	Febrero	2023-02-28T00:00:00	2024-11-06T13:00:00	5	Humedad	69
81317	7	Sololá	702	San José Chacayá	5	Chacayá	2	Febrero	2023-02-28T00:00:00	2024-11-06T13:00:00	6	Velocidad del viento	8
81318	7	Sololá	702	San José Chacayá	5	Chacayá	2	Febrero	2023-02-28T00:00:00	2024-11-06T13:00:00	7	Dirección del viento	8.05
81319	7	Sololá	702	San José Chacayá	5	Chacayá	2	Febrero	2023-02-28T00:00:00	2024-11-06T13:00:00	1	Precipitación	0
81320	7	Sololá	702	San José Chacayá	5	Chacayá	2	Febrero	2023-02-28T00:00:00	2024-11-06T13:00:00	8	Radiación solar	938
81321	7	Sololá	702	San José Chacayá	5	Chacayá	2	Febrero	2023-02-28T00:00:00	2024-11-06T14:00:00	2	Temperatura media	20.4
81322	7	Sololá	702	San José Chacayá	5	Chacayá	2	Febrero	2023-02-28T00:00:00	2024-11-06T14:00:00	4	Temperatura máxima	20.7
81323	7	Sololá	702	San José Chacayá	5	Chacayá	2	Febrero	2023-02-28T00:00:00	2024-11-06T14:00:00	3	Temperatura mínima	20.2
81324	7	Sololá	702	San José Chacayá	5	Chacayá	2	Febrero	2023-02-28T00:00:00	2024-11-06T14:00:00	5	Humedad	69
81325	7	Sololá	702	San José Chacayá	5	Chacayá	2	Febrero	2023-02-28T00:00:00	2024-11-06T14:00:00	6	Velocidad del viento	6.4
81326	7	Sololá	702	San José Chacayá	5	Chacayá	2	Febrero	2023-02-28T00:00:00	2024-11-06T14:00:00	7	Dirección del viento	6.44
81327	7	Sololá	702	San José Chacayá	5	Chacayá	2	Febrero	2023-02-28T00:00:00	2024-11-06T14:00:00	1	Precipitación	0
81328	7	Sololá	702	San José Chacayá	5	Chacayá	2	Febrero	2023-02-28T00:00:00	2024-11-06T14:00:00	8	Radiación solar	856
81329	7	Sololá	702	San José Chacayá	5	Chacayá	2	Febrero	2023-02-28T00:00:00	2024-11-06T15:00:00	2	Temperatura media	19.4
81330	7	Sololá	702	San José Chacayá	5	Chacayá	2	Febrero	2023-02-28T00:00:00	2024-11-06T15:00:00	4	Temperatura máxima	20.9
81331	7	Sololá	702	San José Chacayá	5	Chacayá	2	Febrero	2023-02-28T00:00:00	2024-11-06T15:00:00	3	Temperatura mínima	19.4
81332	7	Sololá	702	San José Chacayá	5	Chacayá	2	Febrero	2023-02-28T00:00:00	2024-11-06T15:00:00	5	Humedad	74
81333	7	Sololá	702	San José Chacayá	5	Chacayá	2	Febrero	2023-02-28T00:00:00	2024-11-06T15:00:00	6	Velocidad del viento	6.4
81334	7	Sololá	702	San José Chacayá	5	Chacayá	2	Febrero	2023-02-28T00:00:00	2024-11-06T15:00:00	7	Dirección del viento	6.44
81335	7	Sololá	702	San José Chacayá	5	Chacayá	2	Febrero	2023-02-28T00:00:00	2024-11-06T15:00:00	1	Precipitación	0
81336	7	Sololá	702	San José Chacayá	5	Chacayá	2	Febrero	2023-02-28T00:00:00	2024-11-06T15:00:00	8	Radiación solar	730
81337	7	Sololá	702	San José Chacayá	5	Chacayá	2	Febrero	2023-02-28T00:00:00	2024-11-06T16:00:00	2	Temperatura media	17.7
81338	7	Sololá	702	San José Chacayá	5	Chacayá	2	Febrero	2023-02-28T00:00:00	2024-11-06T16:00:00	4	Temperatura máxima	19.7
81339	7	Sololá	702	San José Chacayá	5	Chacayá	2	Febrero	2023-02-28T00:00:00	2024-11-06T16:00:00	3	Temperatura mínima	17.6
81340	7	Sololá	702	San José Chacayá	5	Chacayá	2	Febrero	2023-02-28T00:00:00	2024-11-06T16:00:00	5	Humedad	82
81341	7	Sololá	702	San José Chacayá	5	Chacayá	2	Febrero	2023-02-28T00:00:00	2024-11-06T16:00:00	6	Velocidad del viento	4.8
81342	7	Sololá	702	San José Chacayá	5	Chacayá	2	Febrero	2023-02-28T00:00:00	2024-11-06T16:00:00	7	Dirección del viento	4.83
81343	7	Sololá	702	San José Chacayá	5	Chacayá	2	Febrero	2023-02-28T00:00:00	2024-11-06T16:00:00	1	Precipitación	0
81344	7	Sololá	702	San José Chacayá	5	Chacayá	2	Febrero	2023-02-28T00:00:00	2024-11-06T16:00:00	8	Radiación solar	293
81345	7	Sololá	702	San José Chacayá	5	Chacayá	2	Febrero	2023-02-28T00:00:00	2024-11-06T17:00:00	2	Temperatura media	17.4
81346	7	Sololá	702	San José Chacayá	5	Chacayá	2	Febrero	2023-02-28T00:00:00	2024-11-06T17:00:00	4	Temperatura máxima	17.9
81347	7	Sololá	702	San José Chacayá	5	Chacayá	2	Febrero	2023-02-28T00:00:00	2024-11-06T17:00:00	3	Temperatura mínima	17.4
81348	7	Sololá	702	San José Chacayá	5	Chacayá	2	Febrero	2023-02-28T00:00:00	2024-11-06T17:00:00	5	Humedad	82
81349	7	Sololá	702	San José Chacayá	5	Chacayá	2	Febrero	2023-02-28T00:00:00	2024-11-06T17:00:00	6	Velocidad del viento	3.2
81350	7	Sololá	702	San José Chacayá	5	Chacayá	2	Febrero	2023-02-28T00:00:00	2024-11-06T17:00:00	7	Dirección del viento	3.22
81351	7	Sololá	702	San José Chacayá	5	Chacayá	2	Febrero	2023-02-28T00:00:00	2024-11-06T17:00:00	1	Precipitación	0
81352	7	Sololá	702	San José Chacayá	5	Chacayá	2	Febrero	2023-02-28T00:00:00	2024-11-06T17:00:00	8	Radiación solar	123
81353	7	Sololá	702	San José Chacayá	5	Chacayá	2	Febrero	2023-02-28T00:00:00	2024-11-06T18:00:00	2	Temperatura media	16.5
81354	7	Sololá	702	San José Chacayá	5	Chacayá	2	Febrero	2023-02-28T00:00:00	2024-11-06T18:00:00	4	Temperatura máxima	17.4
81355	7	Sololá	702	San José Chacayá	5	Chacayá	2	Febrero	2023-02-28T00:00:00	2024-11-06T18:00:00	3	Temperatura mínima	16.5
81356	7	Sololá	702	San José Chacayá	5	Chacayá	2	Febrero	2023-02-28T00:00:00	2024-11-06T18:00:00	5	Humedad	82
81357	7	Sololá	702	San José Chacayá	5	Chacayá	2	Febrero	2023-02-28T00:00:00	2024-11-06T18:00:00	6	Velocidad del viento	1.6
81358	7	Sololá	702	San José Chacayá	5	Chacayá	2	Febrero	2023-02-28T00:00:00	2024-11-06T18:00:00	7	Dirección del viento	1.61
81359	7	Sololá	702	San José Chacayá	5	Chacayá	2	Febrero	2023-02-28T00:00:00	2024-11-06T18:00:00	1	Precipitación	0
81360	7	Sololá	702	San José Chacayá	5	Chacayá	2	Febrero	2023-02-28T00:00:00	2024-11-06T18:00:00	8	Radiación solar	52
81361	7	Sololá	702	San José Chacayá	5	Chacayá	2	Febrero	2023-02-28T00:00:00	2024-11-06T19:00:00	2	Temperatura media	15.1
81362	7	Sololá	702	San José Chacayá	5	Chacayá	2	Febrero	2023-02-28T00:00:00	2024-11-06T19:00:00	4	Temperatura máxima	16.5
81363	7	Sololá	702	San José Chacayá	5	Chacayá	2	Febrero	2023-02-28T00:00:00	2024-11-06T19:00:00	3	Temperatura mínima	15.1
81364	7	Sololá	702	San José Chacayá	5	Chacayá	2	Febrero	2023-02-28T00:00:00	2024-11-06T19:00:00	5	Humedad	83
81365	7	Sololá	702	San José Chacayá	5	Chacayá	2	Febrero	2023-02-28T00:00:00	2024-11-06T19:00:00	6	Velocidad del viento	0
81366	7	Sololá	702	San José Chacayá	5	Chacayá	2	Febrero	2023-02-28T00:00:00	2024-11-06T19:00:00	7	Dirección del viento	0
81367	7	Sololá	702	San José Chacayá	5	Chacayá	2	Febrero	2023-02-28T00:00:00	2024-11-06T19:00:00	1	Precipitación	0
81368	7	Sololá	702	San José Chacayá	5	Chacayá	2	Febrero	2023-02-28T00:00:00	2024-11-06T19:00:00	8	Radiación solar	1
81369	7	Sololá	702	San José Chacayá	5	Chacayá	2	Febrero	2023-02-28T00:00:00	2024-11-06T20:00:00	2	Temperatura media	13.3
81370	7	Sololá	702	San José Chacayá	5	Chacayá	2	Febrero	2023-02-28T00:00:00	2024-11-06T20:00:00	4	Temperatura máxima	15.1
81371	7	Sololá	702	San José Chacayá	5	Chacayá	2	Febrero	2023-02-28T00:00:00	2024-11-06T20:00:00	3	Temperatura mínima	13.3
81372	7	Sololá	702	San José Chacayá	5	Chacayá	2	Febrero	2023-02-28T00:00:00	2024-11-06T20:00:00	5	Humedad	82
81373	7	Sololá	702	San José Chacayá	5	Chacayá	2	Febrero	2023-02-28T00:00:00	2024-11-06T20:00:00	6	Velocidad del viento	1.6
81374	7	Sololá	702	San José Chacayá	5	Chacayá	2	Febrero	2023-02-28T00:00:00	2024-11-06T20:00:00	7	Dirección del viento	1.61
81375	7	Sololá	702	San José Chacayá	5	Chacayá	2	Febrero	2023-02-28T00:00:00	2024-11-06T20:00:00	1	Precipitación	0
81376	7	Sololá	702	San José Chacayá	5	Chacayá	2	Febrero	2023-02-28T00:00:00	2024-11-06T20:00:00	8	Radiación solar	0
81377	7	Sololá	702	San José Chacayá	5	Chacayá	2	Febrero	2023-02-28T00:00:00	2024-11-06T21:00:00	2	Temperatura media	11.6
81378	7	Sololá	702	San José Chacayá	5	Chacayá	2	Febrero	2023-02-28T00:00:00	2024-11-06T21:00:00	4	Temperatura máxima	13.3
81379	7	Sololá	702	San José Chacayá	5	Chacayá	2	Febrero	2023-02-28T00:00:00	2024-11-06T21:00:00	3	Temperatura mínima	11.6
81380	7	Sololá	702	San José Chacayá	5	Chacayá	2	Febrero	2023-02-28T00:00:00	2024-11-06T21:00:00	5	Humedad	84
81381	7	Sololá	702	San José Chacayá	5	Chacayá	2	Febrero	2023-02-28T00:00:00	2024-11-06T21:00:00	6	Velocidad del viento	3.2
81382	7	Sololá	702	San José Chacayá	5	Chacayá	2	Febrero	2023-02-28T00:00:00	2024-11-06T21:00:00	7	Dirección del viento	3.22
81383	7	Sololá	702	San José Chacayá	5	Chacayá	2	Febrero	2023-02-28T00:00:00	2024-11-06T21:00:00	1	Precipitación	0
81384	7	Sololá	702	San José Chacayá	5	Chacayá	2	Febrero	2023-02-28T00:00:00	2024-11-06T21:00:00	8	Radiación solar	0
81385	7	Sololá	702	San José Chacayá	5	Chacayá	2	Febrero	2023-02-28T00:00:00	2024-11-06T22:00:00	2	Temperatura media	10.2
81386	7	Sololá	702	San José Chacayá	5	Chacayá	2	Febrero	2023-02-28T00:00:00	2024-11-06T22:00:00	4	Temperatura máxima	11.6
81387	7	Sololá	702	San José Chacayá	5	Chacayá	2	Febrero	2023-02-28T00:00:00	2024-11-06T22:00:00	3	Temperatura mínima	10.2
81388	7	Sololá	702	San José Chacayá	5	Chacayá	2	Febrero	2023-02-28T00:00:00	2024-11-06T22:00:00	5	Humedad	84
81389	7	Sololá	702	San José Chacayá	5	Chacayá	2	Febrero	2023-02-28T00:00:00	2024-11-06T22:00:00	6	Velocidad del viento	3.2
81390	7	Sololá	702	San José Chacayá	5	Chacayá	2	Febrero	2023-02-28T00:00:00	2024-11-06T22:00:00	7	Dirección del viento	3.22
81391	7	Sololá	702	San José Chacayá	5	Chacayá	2	Febrero	2023-02-28T00:00:00	2024-11-06T22:00:00	1	Precipitación	0
81392	7	Sololá	702	San José Chacayá	5	Chacayá	2	Febrero	2023-02-28T00:00:00	2024-11-06T22:00:00	8	Radiación solar	0
81393	7	Sololá	702	San José Chacayá	5	Chacayá	2	Febrero	2023-02-28T00:00:00	2024-11-06T23:00:00	2	Temperatura media	9.5
81394	7	Sololá	702	San José Chacayá	5	Chacayá	2	Febrero	2023-02-28T00:00:00	2024-11-06T23:00:00	4	Temperatura máxima	10.3
81395	7	Sololá	702	San José Chacayá	5	Chacayá	2	Febrero	2023-02-28T00:00:00	2024-11-06T23:00:00	3	Temperatura mínima	9.5
81396	7	Sololá	702	San José Chacayá	5	Chacayá	2	Febrero	2023-02-28T00:00:00	2024-11-06T23:00:00	5	Humedad	85
81397	7	Sololá	702	San José Chacayá	5	Chacayá	2	Febrero	2023-02-28T00:00:00	2024-11-06T23:00:00	6	Velocidad del viento	4.8
81398	7	Sololá	702	San José Chacayá	5	Chacayá	2	Febrero	2023-02-28T00:00:00	2024-11-06T23:00:00	7	Dirección del viento	4.83
81399	7	Sololá	702	San José Chacayá	5	Chacayá	2	Febrero	2023-02-28T00:00:00	2024-11-06T23:00:00	1	Precipitación	0
81400	7	Sololá	702	San José Chacayá	5	Chacayá	2	Febrero	2023-02-28T00:00:00	2024-11-06T23:00:00	8	Radiación solar	0
81401	7	Sololá	702	San José Chacayá	5	Chacayá	3	Marzo	2023-01-03T00:00:00	2024-11-06T00:00:00	2	Temperatura media	8.8
81402	7	Sololá	702	San José Chacayá	5	Chacayá	3	Marzo	2023-01-03T00:00:00	2024-11-06T00:00:00	4	Temperatura máxima	9.5
81403	7	Sololá	702	San José Chacayá	5	Chacayá	3	Marzo	2023-01-03T00:00:00	2024-11-06T00:00:00	3	Temperatura mínima	8.8
81404	7	Sololá	702	San José Chacayá	5	Chacayá	3	Marzo	2023-01-03T00:00:00	2024-11-06T00:00:00	5	Humedad	84
81405	7	Sololá	702	San José Chacayá	5	Chacayá	3	Marzo	2023-01-03T00:00:00	2024-11-06T00:00:00	6	Velocidad del viento	6.4
81406	7	Sololá	702	San José Chacayá	5	Chacayá	3	Marzo	2023-01-03T00:00:00	2024-11-06T00:00:00	7	Dirección del viento	6.44
81407	7	Sololá	702	San José Chacayá	5	Chacayá	3	Marzo	2023-01-03T00:00:00	2024-11-06T00:00:00	1	Precipitación	0
81408	7	Sololá	702	San José Chacayá	5	Chacayá	3	Marzo	2023-01-03T00:00:00	2024-11-06T00:00:00	8	Radiación solar	0
81409	7	Sololá	702	San José Chacayá	5	Chacayá	3	Marzo	2023-01-03T00:00:00	2024-11-06T01:00:00	2	Temperatura media	7.5
81410	7	Sololá	702	San José Chacayá	5	Chacayá	3	Marzo	2023-01-03T00:00:00	2024-11-06T01:00:00	4	Temperatura máxima	8.7
81411	7	Sololá	702	San José Chacayá	5	Chacayá	3	Marzo	2023-01-03T00:00:00	2024-11-06T01:00:00	3	Temperatura mínima	7.5
81412	7	Sololá	702	San José Chacayá	5	Chacayá	3	Marzo	2023-01-03T00:00:00	2024-11-06T01:00:00	5	Humedad	82
81413	7	Sololá	702	San José Chacayá	5	Chacayá	3	Marzo	2023-01-03T00:00:00	2024-11-06T01:00:00	6	Velocidad del viento	4.8
81414	7	Sololá	702	San José Chacayá	5	Chacayá	3	Marzo	2023-01-03T00:00:00	2024-11-06T01:00:00	7	Dirección del viento	4.83
81415	7	Sololá	702	San José Chacayá	5	Chacayá	3	Marzo	2023-01-03T00:00:00	2024-11-06T01:00:00	1	Precipitación	0
81416	7	Sololá	702	San José Chacayá	5	Chacayá	3	Marzo	2023-01-03T00:00:00	2024-11-06T01:00:00	8	Radiación solar	0
81417	7	Sololá	702	San José Chacayá	5	Chacayá	3	Marzo	2023-01-03T00:00:00	2024-11-06T02:00:00	2	Temperatura media	6.8
81418	7	Sololá	702	San José Chacayá	5	Chacayá	3	Marzo	2023-01-03T00:00:00	2024-11-06T02:00:00	4	Temperatura máxima	7.5
81419	7	Sololá	702	San José Chacayá	5	Chacayá	3	Marzo	2023-01-03T00:00:00	2024-11-06T02:00:00	3	Temperatura mínima	6.8
81420	7	Sololá	702	San José Chacayá	5	Chacayá	3	Marzo	2023-01-03T00:00:00	2024-11-06T02:00:00	5	Humedad	81
81421	7	Sololá	702	San José Chacayá	5	Chacayá	3	Marzo	2023-01-03T00:00:00	2024-11-06T02:00:00	6	Velocidad del viento	4.8
81422	7	Sololá	702	San José Chacayá	5	Chacayá	3	Marzo	2023-01-03T00:00:00	2024-11-06T02:00:00	7	Dirección del viento	4.83
81423	7	Sololá	702	San José Chacayá	5	Chacayá	3	Marzo	2023-01-03T00:00:00	2024-11-06T02:00:00	1	Precipitación	0
81424	7	Sololá	702	San José Chacayá	5	Chacayá	3	Marzo	2023-01-03T00:00:00	2024-11-06T02:00:00	8	Radiación solar	0
81425	7	Sololá	702	San José Chacayá	5	Chacayá	3	Marzo	2023-01-03T00:00:00	2024-11-06T03:00:00	2	Temperatura media	6.7
81426	7	Sololá	702	San José Chacayá	5	Chacayá	3	Marzo	2023-01-03T00:00:00	2024-11-06T03:00:00	4	Temperatura máxima	7.1
81427	7	Sololá	702	San José Chacayá	5	Chacayá	3	Marzo	2023-01-03T00:00:00	2024-11-06T03:00:00	3	Temperatura mínima	6.7
81428	7	Sololá	702	San José Chacayá	5	Chacayá	3	Marzo	2023-01-03T00:00:00	2024-11-06T03:00:00	5	Humedad	81
81429	7	Sololá	702	San José Chacayá	5	Chacayá	3	Marzo	2023-01-03T00:00:00	2024-11-06T03:00:00	6	Velocidad del viento	4.8
81430	7	Sololá	702	San José Chacayá	5	Chacayá	3	Marzo	2023-01-03T00:00:00	2024-11-06T03:00:00	7	Dirección del viento	4.83
81431	7	Sololá	702	San José Chacayá	5	Chacayá	3	Marzo	2023-01-03T00:00:00	2024-11-06T03:00:00	1	Precipitación	0
81432	7	Sololá	702	San José Chacayá	5	Chacayá	3	Marzo	2023-01-03T00:00:00	2024-11-06T03:00:00	8	Radiación solar	0
81433	7	Sololá	702	San José Chacayá	5	Chacayá	3	Marzo	2023-01-03T00:00:00	2024-11-06T04:00:00	2	Temperatura media	6.8
81434	7	Sololá	702	San José Chacayá	5	Chacayá	3	Marzo	2023-01-03T00:00:00	2024-11-06T04:00:00	4	Temperatura máxima	6.9
81435	7	Sololá	702	San José Chacayá	5	Chacayá	3	Marzo	2023-01-03T00:00:00	2024-11-06T04:00:00	3	Temperatura mínima	6.7
81436	7	Sololá	702	San José Chacayá	5	Chacayá	3	Marzo	2023-01-03T00:00:00	2024-11-06T04:00:00	5	Humedad	81
81437	7	Sololá	702	San José Chacayá	5	Chacayá	3	Marzo	2023-01-03T00:00:00	2024-11-06T04:00:00	6	Velocidad del viento	4.8
81438	7	Sololá	702	San José Chacayá	5	Chacayá	3	Marzo	2023-01-03T00:00:00	2024-11-06T04:00:00	7	Dirección del viento	4.83
81439	7	Sololá	702	San José Chacayá	5	Chacayá	3	Marzo	2023-01-03T00:00:00	2024-11-06T04:00:00	1	Precipitación	0
81440	7	Sololá	702	San José Chacayá	5	Chacayá	3	Marzo	2023-01-03T00:00:00	2024-11-06T04:00:00	8	Radiación solar	0
81441	7	Sololá	702	San José Chacayá	5	Chacayá	3	Marzo	2023-01-03T00:00:00	2024-11-06T05:00:00	2	Temperatura media	6.3
81442	7	Sololá	702	San José Chacayá	5	Chacayá	3	Marzo	2023-01-03T00:00:00	2024-11-06T05:00:00	4	Temperatura máxima	7.2
81443	7	Sololá	702	San José Chacayá	5	Chacayá	3	Marzo	2023-01-03T00:00:00	2024-11-06T05:00:00	3	Temperatura mínima	6.3
81444	7	Sololá	702	San José Chacayá	5	Chacayá	3	Marzo	2023-01-03T00:00:00	2024-11-06T05:00:00	5	Humedad	81
81445	7	Sololá	702	San José Chacayá	5	Chacayá	3	Marzo	2023-01-03T00:00:00	2024-11-06T05:00:00	6	Velocidad del viento	6.4
81446	7	Sololá	702	San José Chacayá	5	Chacayá	3	Marzo	2023-01-03T00:00:00	2024-11-06T05:00:00	7	Dirección del viento	6.44
81447	7	Sololá	702	San José Chacayá	5	Chacayá	3	Marzo	2023-01-03T00:00:00	2024-11-06T05:00:00	1	Precipitación	0
81448	7	Sololá	702	San José Chacayá	5	Chacayá	3	Marzo	2023-01-03T00:00:00	2024-11-06T05:00:00	8	Radiación solar	0
81449	7	Sololá	702	San José Chacayá	5	Chacayá	3	Marzo	2023-01-03T00:00:00	2024-11-06T06:00:00	2	Temperatura media	5.3
81450	7	Sololá	702	San José Chacayá	5	Chacayá	3	Marzo	2023-01-03T00:00:00	2024-11-06T06:00:00	4	Temperatura máxima	6.4
81451	7	Sololá	702	San José Chacayá	5	Chacayá	3	Marzo	2023-01-03T00:00:00	2024-11-06T06:00:00	3	Temperatura mínima	5.3
81452	7	Sololá	702	San José Chacayá	5	Chacayá	3	Marzo	2023-01-03T00:00:00	2024-11-06T06:00:00	5	Humedad	81
81453	7	Sololá	702	San José Chacayá	5	Chacayá	3	Marzo	2023-01-03T00:00:00	2024-11-06T06:00:00	6	Velocidad del viento	8
81454	7	Sololá	702	San José Chacayá	5	Chacayá	3	Marzo	2023-01-03T00:00:00	2024-11-06T06:00:00	7	Dirección del viento	8.05
81455	7	Sololá	702	San José Chacayá	5	Chacayá	3	Marzo	2023-01-03T00:00:00	2024-11-06T06:00:00	1	Precipitación	0
81456	7	Sololá	702	San José Chacayá	5	Chacayá	3	Marzo	2023-01-03T00:00:00	2024-11-06T06:00:00	8	Radiación solar	0
81457	7	Sololá	702	San José Chacayá	5	Chacayá	3	Marzo	2023-01-03T00:00:00	2024-11-06T07:00:00	2	Temperatura media	6.9
81458	7	Sololá	702	San José Chacayá	5	Chacayá	3	Marzo	2023-01-03T00:00:00	2024-11-06T07:00:00	4	Temperatura máxima	6.9
81459	7	Sololá	702	San José Chacayá	5	Chacayá	3	Marzo	2023-01-03T00:00:00	2024-11-06T07:00:00	3	Temperatura mínima	4.9
81460	7	Sololá	702	San José Chacayá	5	Chacayá	3	Marzo	2023-01-03T00:00:00	2024-11-06T07:00:00	5	Humedad	72
81461	7	Sololá	702	San José Chacayá	5	Chacayá	3	Marzo	2023-01-03T00:00:00	2024-11-06T07:00:00	6	Velocidad del viento	6.4
81462	7	Sololá	702	San José Chacayá	5	Chacayá	3	Marzo	2023-01-03T00:00:00	2024-11-06T07:00:00	7	Dirección del viento	6.44
81463	7	Sololá	702	San José Chacayá	5	Chacayá	3	Marzo	2023-01-03T00:00:00	2024-11-06T07:00:00	1	Precipitación	0
81464	7	Sololá	702	San José Chacayá	5	Chacayá	3	Marzo	2023-01-03T00:00:00	2024-11-06T07:00:00	8	Radiación solar	24
81465	7	Sololá	702	San José Chacayá	5	Chacayá	3	Marzo	2023-01-03T00:00:00	2024-11-06T08:00:00	2	Temperatura media	12.7
81466	7	Sololá	702	San José Chacayá	5	Chacayá	3	Marzo	2023-01-03T00:00:00	2024-11-06T08:00:00	4	Temperatura máxima	12.7
81467	7	Sololá	702	San José Chacayá	5	Chacayá	3	Marzo	2023-01-03T00:00:00	2024-11-06T08:00:00	3	Temperatura mínima	6.9
81468	7	Sololá	702	San José Chacayá	5	Chacayá	3	Marzo	2023-01-03T00:00:00	2024-11-06T08:00:00	5	Humedad	61
81469	7	Sololá	702	San José Chacayá	5	Chacayá	3	Marzo	2023-01-03T00:00:00	2024-11-06T08:00:00	6	Velocidad del viento	4.8
81470	7	Sololá	702	San José Chacayá	5	Chacayá	3	Marzo	2023-01-03T00:00:00	2024-11-06T08:00:00	7	Dirección del viento	4.83
81471	7	Sololá	702	San José Chacayá	5	Chacayá	3	Marzo	2023-01-03T00:00:00	2024-11-06T08:00:00	1	Precipitación	0
81472	7	Sololá	702	San José Chacayá	5	Chacayá	3	Marzo	2023-01-03T00:00:00	2024-11-06T08:00:00	8	Radiación solar	212
81473	7	Sololá	702	San José Chacayá	5	Chacayá	3	Marzo	2023-01-03T00:00:00	2024-11-06T09:00:00	2	Temperatura media	18.8
81474	7	Sololá	702	San José Chacayá	5	Chacayá	3	Marzo	2023-01-03T00:00:00	2024-11-06T09:00:00	4	Temperatura máxima	18.8
81475	7	Sololá	702	San José Chacayá	5	Chacayá	3	Marzo	2023-01-03T00:00:00	2024-11-06T09:00:00	3	Temperatura mínima	12.7
81476	7	Sololá	702	San José Chacayá	5	Chacayá	3	Marzo	2023-01-03T00:00:00	2024-11-06T09:00:00	5	Humedad	44
81477	7	Sololá	702	San José Chacayá	5	Chacayá	3	Marzo	2023-01-03T00:00:00	2024-11-06T09:00:00	6	Velocidad del viento	3.2
81478	7	Sololá	702	San José Chacayá	5	Chacayá	3	Marzo	2023-01-03T00:00:00	2024-11-06T09:00:00	7	Dirección del viento	3.22
81479	7	Sololá	702	San José Chacayá	5	Chacayá	3	Marzo	2023-01-03T00:00:00	2024-11-06T09:00:00	1	Precipitación	0
81480	7	Sololá	702	San José Chacayá	5	Chacayá	3	Marzo	2023-01-03T00:00:00	2024-11-06T09:00:00	8	Radiación solar	498
81481	7	Sololá	702	San José Chacayá	5	Chacayá	3	Marzo	2023-01-03T00:00:00	2024-11-06T10:00:00	2	Temperatura media	19.3
81482	7	Sololá	702	San José Chacayá	5	Chacayá	3	Marzo	2023-01-03T00:00:00	2024-11-06T10:00:00	4	Temperatura máxima	19.3
81483	7	Sololá	702	San José Chacayá	5	Chacayá	3	Marzo	2023-01-03T00:00:00	2024-11-06T10:00:00	3	Temperatura mínima	18.8
81484	7	Sololá	702	San José Chacayá	5	Chacayá	3	Marzo	2023-01-03T00:00:00	2024-11-06T10:00:00	5	Humedad	57
81485	7	Sololá	702	San José Chacayá	5	Chacayá	3	Marzo	2023-01-03T00:00:00	2024-11-06T10:00:00	6	Velocidad del viento	3.2
81486	7	Sololá	702	San José Chacayá	5	Chacayá	3	Marzo	2023-01-03T00:00:00	2024-11-06T10:00:00	7	Dirección del viento	3.22
81487	7	Sololá	702	San José Chacayá	5	Chacayá	3	Marzo	2023-01-03T00:00:00	2024-11-06T10:00:00	1	Precipitación	0
81488	7	Sololá	702	San José Chacayá	5	Chacayá	3	Marzo	2023-01-03T00:00:00	2024-11-06T10:00:00	8	Radiación solar	717
81489	7	Sololá	702	San José Chacayá	5	Chacayá	3	Marzo	2023-01-03T00:00:00	2024-11-06T11:00:00	2	Temperatura media	21.2
81490	7	Sololá	702	San José Chacayá	5	Chacayá	3	Marzo	2023-01-03T00:00:00	2024-11-06T11:00:00	4	Temperatura máxima	21.2
81491	7	Sololá	702	San José Chacayá	5	Chacayá	3	Marzo	2023-01-03T00:00:00	2024-11-06T11:00:00	3	Temperatura mínima	19.3
81492	7	Sololá	702	San José Chacayá	5	Chacayá	3	Marzo	2023-01-03T00:00:00	2024-11-06T11:00:00	5	Humedad	52
81493	7	Sololá	702	San José Chacayá	5	Chacayá	3	Marzo	2023-01-03T00:00:00	2024-11-06T11:00:00	6	Velocidad del viento	4.8
81494	7	Sololá	702	San José Chacayá	5	Chacayá	3	Marzo	2023-01-03T00:00:00	2024-11-06T11:00:00	7	Dirección del viento	4.83
81495	7	Sololá	702	San José Chacayá	5	Chacayá	3	Marzo	2023-01-03T00:00:00	2024-11-06T11:00:00	1	Precipitación	0
81496	7	Sololá	702	San José Chacayá	5	Chacayá	3	Marzo	2023-01-03T00:00:00	2024-11-06T11:00:00	8	Radiación solar	876
81497	7	Sololá	702	San José Chacayá	5	Chacayá	3	Marzo	2023-01-03T00:00:00	2024-11-06T12:00:00	2	Temperatura media	21.2
81498	7	Sololá	702	San José Chacayá	5	Chacayá	3	Marzo	2023-01-03T00:00:00	2024-11-06T12:00:00	4	Temperatura máxima	21.7
81499	7	Sololá	702	San José Chacayá	5	Chacayá	3	Marzo	2023-01-03T00:00:00	2024-11-06T12:00:00	3	Temperatura mínima	21.1
81500	7	Sololá	702	San José Chacayá	5	Chacayá	3	Marzo	2023-01-03T00:00:00	2024-11-06T12:00:00	5	Humedad	61
81501	7	Sololá	702	San José Chacayá	5	Chacayá	3	Marzo	2023-01-03T00:00:00	2024-11-06T12:00:00	6	Velocidad del viento	6.4
81502	7	Sololá	702	San José Chacayá	5	Chacayá	3	Marzo	2023-01-03T00:00:00	2024-11-06T12:00:00	7	Dirección del viento	6.44
81503	7	Sololá	702	San José Chacayá	5	Chacayá	3	Marzo	2023-01-03T00:00:00	2024-11-06T12:00:00	1	Precipitación	0
81504	7	Sololá	702	San José Chacayá	5	Chacayá	3	Marzo	2023-01-03T00:00:00	2024-11-06T12:00:00	8	Radiación solar	946
81505	7	Sololá	702	San José Chacayá	5	Chacayá	3	Marzo	2023-01-03T00:00:00	2024-11-06T13:00:00	2	Temperatura media	20.4
81506	7	Sololá	702	San José Chacayá	5	Chacayá	3	Marzo	2023-01-03T00:00:00	2024-11-06T13:00:00	4	Temperatura máxima	21.3
81507	7	Sololá	702	San José Chacayá	5	Chacayá	3	Marzo	2023-01-03T00:00:00	2024-11-06T13:00:00	3	Temperatura mínima	19.8
81508	7	Sololá	702	San José Chacayá	5	Chacayá	3	Marzo	2023-01-03T00:00:00	2024-11-06T13:00:00	5	Humedad	70
81509	7	Sololá	702	San José Chacayá	5	Chacayá	3	Marzo	2023-01-03T00:00:00	2024-11-06T13:00:00	6	Velocidad del viento	8
81510	7	Sololá	702	San José Chacayá	5	Chacayá	3	Marzo	2023-01-03T00:00:00	2024-11-06T13:00:00	7	Dirección del viento	8.05
81511	7	Sololá	702	San José Chacayá	5	Chacayá	3	Marzo	2023-01-03T00:00:00	2024-11-06T13:00:00	1	Precipitación	0
81512	7	Sololá	702	San José Chacayá	5	Chacayá	3	Marzo	2023-01-03T00:00:00	2024-11-06T13:00:00	8	Radiación solar	940
81513	7	Sololá	702	San José Chacayá	5	Chacayá	3	Marzo	2023-01-03T00:00:00	2024-11-06T14:00:00	2	Temperatura media	19.8
81514	7	Sololá	702	San José Chacayá	5	Chacayá	3	Marzo	2023-01-03T00:00:00	2024-11-06T14:00:00	4	Temperatura máxima	20.5
81515	7	Sololá	702	San José Chacayá	5	Chacayá	3	Marzo	2023-01-03T00:00:00	2024-11-06T14:00:00	3	Temperatura mínima	19.7
81516	7	Sololá	702	San José Chacayá	5	Chacayá	3	Marzo	2023-01-03T00:00:00	2024-11-06T14:00:00	5	Humedad	74
81517	7	Sololá	702	San José Chacayá	5	Chacayá	3	Marzo	2023-01-03T00:00:00	2024-11-06T14:00:00	6	Velocidad del viento	8
81518	7	Sololá	702	San José Chacayá	5	Chacayá	3	Marzo	2023-01-03T00:00:00	2024-11-06T14:00:00	7	Dirección del viento	8.05
81519	7	Sololá	702	San José Chacayá	5	Chacayá	3	Marzo	2023-01-03T00:00:00	2024-11-06T14:00:00	1	Precipitación	0
81520	7	Sololá	702	San José Chacayá	5	Chacayá	3	Marzo	2023-01-03T00:00:00	2024-11-06T14:00:00	8	Radiación solar	871
81521	7	Sololá	702	San José Chacayá	5	Chacayá	3	Marzo	2023-01-03T00:00:00	2024-11-06T15:00:00	2	Temperatura media	18.4
81522	7	Sololá	702	San José Chacayá	5	Chacayá	3	Marzo	2023-01-03T00:00:00	2024-11-06T15:00:00	4	Temperatura máxima	19.7
81523	7	Sololá	702	San José Chacayá	5	Chacayá	3	Marzo	2023-01-03T00:00:00	2024-11-06T15:00:00	3	Temperatura mínima	18.3
81524	7	Sololá	702	San José Chacayá	5	Chacayá	3	Marzo	2023-01-03T00:00:00	2024-11-06T15:00:00	5	Humedad	79
81525	7	Sololá	702	San José Chacayá	5	Chacayá	3	Marzo	2023-01-03T00:00:00	2024-11-06T15:00:00	6	Velocidad del viento	6.4
81526	7	Sololá	702	San José Chacayá	5	Chacayá	3	Marzo	2023-01-03T00:00:00	2024-11-06T15:00:00	7	Dirección del viento	6.44
81527	7	Sololá	702	San José Chacayá	5	Chacayá	3	Marzo	2023-01-03T00:00:00	2024-11-06T15:00:00	1	Precipitación	0
81528	7	Sololá	702	San José Chacayá	5	Chacayá	3	Marzo	2023-01-03T00:00:00	2024-11-06T15:00:00	8	Radiación solar	452
81529	7	Sololá	702	San José Chacayá	5	Chacayá	3	Marzo	2023-01-03T00:00:00	2024-11-06T16:00:00	2	Temperatura media	18.3
81530	7	Sololá	702	San José Chacayá	5	Chacayá	3	Marzo	2023-01-03T00:00:00	2024-11-06T16:00:00	4	Temperatura máxima	19.2
81531	7	Sololá	702	San José Chacayá	5	Chacayá	3	Marzo	2023-01-03T00:00:00	2024-11-06T16:00:00	3	Temperatura mínima	18.2
81532	7	Sololá	702	San José Chacayá	5	Chacayá	3	Marzo	2023-01-03T00:00:00	2024-11-06T16:00:00	5	Humedad	79
81533	7	Sololá	702	San José Chacayá	5	Chacayá	3	Marzo	2023-01-03T00:00:00	2024-11-06T16:00:00	6	Velocidad del viento	6.4
81534	7	Sololá	702	San José Chacayá	5	Chacayá	3	Marzo	2023-01-03T00:00:00	2024-11-06T16:00:00	7	Dirección del viento	6.44
81535	7	Sololá	702	San José Chacayá	5	Chacayá	3	Marzo	2023-01-03T00:00:00	2024-11-06T16:00:00	1	Precipitación	0
81536	7	Sololá	702	San José Chacayá	5	Chacayá	3	Marzo	2023-01-03T00:00:00	2024-11-06T16:00:00	8	Radiación solar	542
81537	7	Sololá	702	San José Chacayá	5	Chacayá	3	Marzo	2023-01-03T00:00:00	2024-11-06T17:00:00	2	Temperatura media	17.2
81538	7	Sololá	702	San José Chacayá	5	Chacayá	3	Marzo	2023-01-03T00:00:00	2024-11-06T17:00:00	4	Temperatura máxima	18.5
81539	7	Sololá	702	San José Chacayá	5	Chacayá	3	Marzo	2023-01-03T00:00:00	2024-11-06T17:00:00	3	Temperatura mínima	17.2
81540	7	Sololá	702	San José Chacayá	5	Chacayá	3	Marzo	2023-01-03T00:00:00	2024-11-06T17:00:00	5	Humedad	82
81541	7	Sololá	702	San José Chacayá	5	Chacayá	3	Marzo	2023-01-03T00:00:00	2024-11-06T17:00:00	6	Velocidad del viento	4.8
81542	7	Sololá	702	San José Chacayá	5	Chacayá	3	Marzo	2023-01-03T00:00:00	2024-11-06T17:00:00	7	Dirección del viento	4.83
81543	7	Sololá	702	San José Chacayá	5	Chacayá	3	Marzo	2023-01-03T00:00:00	2024-11-06T17:00:00	1	Precipitación	0
81544	7	Sololá	702	San José Chacayá	5	Chacayá	3	Marzo	2023-01-03T00:00:00	2024-11-06T17:00:00	8	Radiación solar	208
81545	7	Sololá	702	San José Chacayá	5	Chacayá	3	Marzo	2023-01-03T00:00:00	2024-11-06T18:00:00	2	Temperatura media	16.4
81546	7	Sololá	702	San José Chacayá	5	Chacayá	3	Marzo	2023-01-03T00:00:00	2024-11-06T18:00:00	4	Temperatura máxima	17.2
81547	7	Sololá	702	San José Chacayá	5	Chacayá	3	Marzo	2023-01-03T00:00:00	2024-11-06T18:00:00	3	Temperatura mínima	16.4
81548	7	Sololá	702	San José Chacayá	5	Chacayá	3	Marzo	2023-01-03T00:00:00	2024-11-06T18:00:00	5	Humedad	83
81549	7	Sololá	702	San José Chacayá	5	Chacayá	3	Marzo	2023-01-03T00:00:00	2024-11-06T18:00:00	6	Velocidad del viento	1.6
81550	7	Sololá	702	San José Chacayá	5	Chacayá	3	Marzo	2023-01-03T00:00:00	2024-11-06T18:00:00	7	Dirección del viento	1.61
81551	7	Sololá	702	San José Chacayá	5	Chacayá	3	Marzo	2023-01-03T00:00:00	2024-11-06T18:00:00	1	Precipitación	0
81552	7	Sololá	702	San José Chacayá	5	Chacayá	3	Marzo	2023-01-03T00:00:00	2024-11-06T18:00:00	8	Radiación solar	52
81553	7	Sololá	702	San José Chacayá	5	Chacayá	3	Marzo	2023-01-03T00:00:00	2024-11-06T19:00:00	2	Temperatura media	15
81554	7	Sololá	702	San José Chacayá	5	Chacayá	3	Marzo	2023-01-03T00:00:00	2024-11-06T19:00:00	4	Temperatura máxima	16.4
81555	7	Sololá	702	San José Chacayá	5	Chacayá	3	Marzo	2023-01-03T00:00:00	2024-11-06T19:00:00	3	Temperatura mínima	15
81556	7	Sololá	702	San José Chacayá	5	Chacayá	3	Marzo	2023-01-03T00:00:00	2024-11-06T19:00:00	5	Humedad	82
81557	7	Sololá	702	San José Chacayá	5	Chacayá	3	Marzo	2023-01-03T00:00:00	2024-11-06T19:00:00	6	Velocidad del viento	0
81558	7	Sololá	702	San José Chacayá	5	Chacayá	3	Marzo	2023-01-03T00:00:00	2024-11-06T19:00:00	7	Dirección del viento	0
81559	7	Sololá	702	San José Chacayá	5	Chacayá	3	Marzo	2023-01-03T00:00:00	2024-11-06T19:00:00	1	Precipitación	0
81560	7	Sololá	702	San José Chacayá	5	Chacayá	3	Marzo	2023-01-03T00:00:00	2024-11-06T19:00:00	8	Radiación solar	0
81561	7	Sololá	702	San José Chacayá	5	Chacayá	3	Marzo	2023-01-03T00:00:00	2024-11-06T20:00:00	2	Temperatura media	12.7
81562	7	Sololá	702	San José Chacayá	5	Chacayá	3	Marzo	2023-01-03T00:00:00	2024-11-06T20:00:00	4	Temperatura máxima	15
81563	7	Sololá	702	San José Chacayá	5	Chacayá	3	Marzo	2023-01-03T00:00:00	2024-11-06T20:00:00	3	Temperatura mínima	12.7
81564	7	Sololá	702	San José Chacayá	5	Chacayá	3	Marzo	2023-01-03T00:00:00	2024-11-06T20:00:00	5	Humedad	83
81565	7	Sololá	702	San José Chacayá	5	Chacayá	3	Marzo	2023-01-03T00:00:00	2024-11-06T20:00:00	6	Velocidad del viento	1.6
81566	7	Sololá	702	San José Chacayá	5	Chacayá	3	Marzo	2023-01-03T00:00:00	2024-11-06T20:00:00	7	Dirección del viento	1.61
81567	7	Sololá	702	San José Chacayá	5	Chacayá	3	Marzo	2023-01-03T00:00:00	2024-11-06T20:00:00	1	Precipitación	0
81568	7	Sololá	702	San José Chacayá	5	Chacayá	3	Marzo	2023-01-03T00:00:00	2024-11-06T20:00:00	8	Radiación solar	0
81569	7	Sololá	702	San José Chacayá	5	Chacayá	3	Marzo	2023-01-03T00:00:00	2024-11-06T21:00:00	2	Temperatura media	11.4
81570	7	Sololá	702	San José Chacayá	5	Chacayá	3	Marzo	2023-01-03T00:00:00	2024-11-06T21:00:00	4	Temperatura máxima	12.7
81571	7	Sololá	702	San José Chacayá	5	Chacayá	3	Marzo	2023-01-03T00:00:00	2024-11-06T21:00:00	3	Temperatura mínima	11.4
81572	7	Sololá	702	San José Chacayá	5	Chacayá	3	Marzo	2023-01-03T00:00:00	2024-11-06T21:00:00	5	Humedad	83
81573	7	Sololá	702	San José Chacayá	5	Chacayá	3	Marzo	2023-01-03T00:00:00	2024-11-06T21:00:00	6	Velocidad del viento	1.6
81574	7	Sololá	702	San José Chacayá	5	Chacayá	3	Marzo	2023-01-03T00:00:00	2024-11-06T21:00:00	7	Dirección del viento	1.61
81575	7	Sololá	702	San José Chacayá	5	Chacayá	3	Marzo	2023-01-03T00:00:00	2024-11-06T21:00:00	1	Precipitación	0
81576	7	Sololá	702	San José Chacayá	5	Chacayá	3	Marzo	2023-01-03T00:00:00	2024-11-06T21:00:00	8	Radiación solar	0
81577	7	Sololá	702	San José Chacayá	5	Chacayá	3	Marzo	2023-01-03T00:00:00	2024-11-06T22:00:00	2	Temperatura media	11.7
81578	7	Sololá	702	San José Chacayá	5	Chacayá	3	Marzo	2023-01-03T00:00:00	2024-11-06T22:00:00	4	Temperatura máxima	11.9
81579	7	Sololá	702	San José Chacayá	5	Chacayá	3	Marzo	2023-01-03T00:00:00	2024-11-06T22:00:00	3	Temperatura mínima	11.4
81580	7	Sololá	702	San José Chacayá	5	Chacayá	3	Marzo	2023-01-03T00:00:00	2024-11-06T22:00:00	5	Humedad	84
81581	7	Sololá	702	San José Chacayá	5	Chacayá	3	Marzo	2023-01-03T00:00:00	2024-11-06T22:00:00	6	Velocidad del viento	3.2
81582	7	Sololá	702	San José Chacayá	5	Chacayá	3	Marzo	2023-01-03T00:00:00	2024-11-06T22:00:00	7	Dirección del viento	3.22
81583	7	Sololá	702	San José Chacayá	5	Chacayá	3	Marzo	2023-01-03T00:00:00	2024-11-06T22:00:00	1	Precipitación	0
81584	7	Sololá	702	San José Chacayá	5	Chacayá	3	Marzo	2023-01-03T00:00:00	2024-11-06T22:00:00	8	Radiación solar	0
81585	7	Sololá	702	San José Chacayá	5	Chacayá	3	Marzo	2023-01-03T00:00:00	2024-11-06T23:00:00	2	Temperatura media	10.8
81586	7	Sololá	702	San José Chacayá	5	Chacayá	3	Marzo	2023-01-03T00:00:00	2024-11-06T23:00:00	4	Temperatura máxima	11.7
81587	7	Sololá	702	San José Chacayá	5	Chacayá	3	Marzo	2023-01-03T00:00:00	2024-11-06T23:00:00	3	Temperatura mínima	10.8
81588	7	Sololá	702	San José Chacayá	5	Chacayá	3	Marzo	2023-01-03T00:00:00	2024-11-06T23:00:00	5	Humedad	84
81589	7	Sololá	702	San José Chacayá	5	Chacayá	3	Marzo	2023-01-03T00:00:00	2024-11-06T23:00:00	6	Velocidad del viento	4.8
81590	7	Sololá	702	San José Chacayá	5	Chacayá	3	Marzo	2023-01-03T00:00:00	2024-11-06T23:00:00	7	Dirección del viento	4.83
81591	7	Sololá	702	San José Chacayá	5	Chacayá	3	Marzo	2023-01-03T00:00:00	2024-11-06T23:00:00	1	Precipitación	0
81592	7	Sololá	702	San José Chacayá	5	Chacayá	3	Marzo	2023-01-03T00:00:00	2024-11-06T23:00:00	8	Radiación solar	0
81593	7	Sololá	702	San José Chacayá	5	Chacayá	3	Marzo	2023-02-03T00:00:00	2024-11-06T00:00:00	2	Temperatura media	10.4
81594	7	Sololá	702	San José Chacayá	5	Chacayá	3	Marzo	2023-02-03T00:00:00	2024-11-06T00:00:00	4	Temperatura máxima	10.8
81595	7	Sololá	702	San José Chacayá	5	Chacayá	3	Marzo	2023-02-03T00:00:00	2024-11-06T00:00:00	3	Temperatura mínima	10.3
81596	7	Sololá	702	San José Chacayá	5	Chacayá	3	Marzo	2023-02-03T00:00:00	2024-11-06T00:00:00	5	Humedad	84
81597	7	Sololá	702	San José Chacayá	5	Chacayá	3	Marzo	2023-02-03T00:00:00	2024-11-06T00:00:00	6	Velocidad del viento	4.8
81598	7	Sololá	702	San José Chacayá	5	Chacayá	3	Marzo	2023-02-03T00:00:00	2024-11-06T00:00:00	7	Dirección del viento	4.83
81599	7	Sololá	702	San José Chacayá	5	Chacayá	3	Marzo	2023-02-03T00:00:00	2024-11-06T00:00:00	1	Precipitación	0
81600	7	Sololá	702	San José Chacayá	5	Chacayá	3	Marzo	2023-02-03T00:00:00	2024-11-06T00:00:00	8	Radiación solar	0
81601	7	Sololá	702	San José Chacayá	5	Chacayá	3	Marzo	2023-02-03T00:00:00	2024-11-06T01:00:00	2	Temperatura media	9.6
81602	7	Sololá	702	San José Chacayá	5	Chacayá	3	Marzo	2023-02-03T00:00:00	2024-11-06T01:00:00	4	Temperatura máxima	10.4
81603	7	Sololá	702	San José Chacayá	5	Chacayá	3	Marzo	2023-02-03T00:00:00	2024-11-06T01:00:00	3	Temperatura mínima	9.6
81604	7	Sololá	702	San José Chacayá	5	Chacayá	3	Marzo	2023-02-03T00:00:00	2024-11-06T01:00:00	5	Humedad	84
81605	7	Sololá	702	San José Chacayá	5	Chacayá	3	Marzo	2023-02-03T00:00:00	2024-11-06T01:00:00	6	Velocidad del viento	1.6
81606	7	Sololá	702	San José Chacayá	5	Chacayá	3	Marzo	2023-02-03T00:00:00	2024-11-06T01:00:00	7	Dirección del viento	1.61
81607	7	Sololá	702	San José Chacayá	5	Chacayá	3	Marzo	2023-02-03T00:00:00	2024-11-06T01:00:00	1	Precipitación	0
81608	7	Sololá	702	San José Chacayá	5	Chacayá	3	Marzo	2023-02-03T00:00:00	2024-11-06T01:00:00	8	Radiación solar	0
81609	7	Sololá	702	San José Chacayá	5	Chacayá	3	Marzo	2023-02-03T00:00:00	2024-11-06T02:00:00	2	Temperatura media	9.6
81610	7	Sololá	702	San José Chacayá	5	Chacayá	3	Marzo	2023-02-03T00:00:00	2024-11-06T02:00:00	4	Temperatura máxima	9.7
81611	7	Sololá	702	San José Chacayá	5	Chacayá	3	Marzo	2023-02-03T00:00:00	2024-11-06T02:00:00	3	Temperatura mínima	9.4
81612	7	Sololá	702	San José Chacayá	5	Chacayá	3	Marzo	2023-02-03T00:00:00	2024-11-06T02:00:00	5	Humedad	84
81613	7	Sololá	702	San José Chacayá	5	Chacayá	3	Marzo	2023-02-03T00:00:00	2024-11-06T02:00:00	6	Velocidad del viento	3.2
81614	7	Sololá	702	San José Chacayá	5	Chacayá	3	Marzo	2023-02-03T00:00:00	2024-11-06T02:00:00	7	Dirección del viento	3.22
81615	7	Sololá	702	San José Chacayá	5	Chacayá	3	Marzo	2023-02-03T00:00:00	2024-11-06T02:00:00	1	Precipitación	0
81616	7	Sololá	702	San José Chacayá	5	Chacayá	3	Marzo	2023-02-03T00:00:00	2024-11-06T02:00:00	8	Radiación solar	0
81617	7	Sololá	702	San José Chacayá	5	Chacayá	3	Marzo	2023-02-03T00:00:00	2024-11-06T03:00:00	2	Temperatura media	9.3
81618	7	Sololá	702	San José Chacayá	5	Chacayá	3	Marzo	2023-02-03T00:00:00	2024-11-06T03:00:00	4	Temperatura máxima	9.6
81619	7	Sololá	702	San José Chacayá	5	Chacayá	3	Marzo	2023-02-03T00:00:00	2024-11-06T03:00:00	3	Temperatura mínima	9.3
81620	7	Sololá	702	San José Chacayá	5	Chacayá	3	Marzo	2023-02-03T00:00:00	2024-11-06T03:00:00	5	Humedad	82
81621	7	Sololá	702	San José Chacayá	5	Chacayá	3	Marzo	2023-02-03T00:00:00	2024-11-06T03:00:00	6	Velocidad del viento	4.8
81622	7	Sololá	702	San José Chacayá	5	Chacayá	3	Marzo	2023-02-03T00:00:00	2024-11-06T03:00:00	7	Dirección del viento	4.83
81623	7	Sololá	702	San José Chacayá	5	Chacayá	3	Marzo	2023-02-03T00:00:00	2024-11-06T03:00:00	1	Precipitación	0
81624	7	Sololá	702	San José Chacayá	5	Chacayá	3	Marzo	2023-02-03T00:00:00	2024-11-06T03:00:00	8	Radiación solar	0
81625	7	Sololá	702	San José Chacayá	5	Chacayá	3	Marzo	2023-02-03T00:00:00	2024-11-06T04:00:00	2	Temperatura media	8.7
81626	7	Sololá	702	San José Chacayá	5	Chacayá	3	Marzo	2023-02-03T00:00:00	2024-11-06T04:00:00	4	Temperatura máxima	9.4
81627	7	Sololá	702	San José Chacayá	5	Chacayá	3	Marzo	2023-02-03T00:00:00	2024-11-06T04:00:00	3	Temperatura mínima	8.7
81628	7	Sololá	702	San José Chacayá	5	Chacayá	3	Marzo	2023-02-03T00:00:00	2024-11-06T04:00:00	5	Humedad	83
81629	7	Sololá	702	San José Chacayá	5	Chacayá	3	Marzo	2023-02-03T00:00:00	2024-11-06T04:00:00	6	Velocidad del viento	3.2
81630	7	Sololá	702	San José Chacayá	5	Chacayá	3	Marzo	2023-02-03T00:00:00	2024-11-06T04:00:00	7	Dirección del viento	3.22
81631	7	Sololá	702	San José Chacayá	5	Chacayá	3	Marzo	2023-02-03T00:00:00	2024-11-06T04:00:00	1	Precipitación	0
81632	7	Sololá	702	San José Chacayá	5	Chacayá	3	Marzo	2023-02-03T00:00:00	2024-11-06T04:00:00	8	Radiación solar	0
81633	7	Sololá	702	San José Chacayá	5	Chacayá	3	Marzo	2023-02-03T00:00:00	2024-11-06T05:00:00	2	Temperatura media	8.2
81634	7	Sololá	702	San José Chacayá	5	Chacayá	3	Marzo	2023-02-03T00:00:00	2024-11-06T05:00:00	4	Temperatura máxima	8.8
81635	7	Sololá	702	San José Chacayá	5	Chacayá	3	Marzo	2023-02-03T00:00:00	2024-11-06T05:00:00	3	Temperatura mínima	8.2
81636	7	Sololá	702	San José Chacayá	5	Chacayá	3	Marzo	2023-02-03T00:00:00	2024-11-06T05:00:00	5	Humedad	80
81637	7	Sololá	702	San José Chacayá	5	Chacayá	3	Marzo	2023-02-03T00:00:00	2024-11-06T05:00:00	6	Velocidad del viento	3.2
81638	7	Sololá	702	San José Chacayá	5	Chacayá	3	Marzo	2023-02-03T00:00:00	2024-11-06T05:00:00	7	Dirección del viento	3.22
81639	7	Sololá	702	San José Chacayá	5	Chacayá	3	Marzo	2023-02-03T00:00:00	2024-11-06T05:00:00	1	Precipitación	0
81640	7	Sololá	702	San José Chacayá	5	Chacayá	3	Marzo	2023-02-03T00:00:00	2024-11-06T05:00:00	8	Radiación solar	0
81641	7	Sololá	702	San José Chacayá	5	Chacayá	3	Marzo	2023-02-03T00:00:00	2024-11-06T06:00:00	2	Temperatura media	8.7
81642	7	Sololá	702	San José Chacayá	5	Chacayá	3	Marzo	2023-02-03T00:00:00	2024-11-06T06:00:00	4	Temperatura máxima	8.7
81643	7	Sololá	702	San José Chacayá	5	Chacayá	3	Marzo	2023-02-03T00:00:00	2024-11-06T06:00:00	3	Temperatura mínima	8.2
81644	7	Sololá	702	San José Chacayá	5	Chacayá	3	Marzo	2023-02-03T00:00:00	2024-11-06T06:00:00	5	Humedad	80
81645	7	Sololá	702	San José Chacayá	5	Chacayá	3	Marzo	2023-02-03T00:00:00	2024-11-06T06:00:00	6	Velocidad del viento	3.2
81646	7	Sololá	702	San José Chacayá	5	Chacayá	3	Marzo	2023-02-03T00:00:00	2024-11-06T06:00:00	7	Dirección del viento	3.22
81647	7	Sololá	702	San José Chacayá	5	Chacayá	3	Marzo	2023-02-03T00:00:00	2024-11-06T06:00:00	1	Precipitación	0
81648	7	Sololá	702	San José Chacayá	5	Chacayá	3	Marzo	2023-02-03T00:00:00	2024-11-06T06:00:00	8	Radiación solar	0
81649	7	Sololá	702	San José Chacayá	5	Chacayá	3	Marzo	2023-02-03T00:00:00	2024-11-06T07:00:00	2	Temperatura media	8.8
81650	7	Sololá	702	San José Chacayá	5	Chacayá	3	Marzo	2023-02-03T00:00:00	2024-11-06T07:00:00	4	Temperatura máxima	8.8
81651	7	Sololá	702	San José Chacayá	5	Chacayá	3	Marzo	2023-02-03T00:00:00	2024-11-06T07:00:00	3	Temperatura mínima	7.8
81652	7	Sololá	702	San José Chacayá	5	Chacayá	3	Marzo	2023-02-03T00:00:00	2024-11-06T07:00:00	5	Humedad	83
81653	7	Sololá	702	San José Chacayá	5	Chacayá	3	Marzo	2023-02-03T00:00:00	2024-11-06T07:00:00	6	Velocidad del viento	3.2
81654	7	Sololá	702	San José Chacayá	5	Chacayá	3	Marzo	2023-02-03T00:00:00	2024-11-06T07:00:00	7	Dirección del viento	3.22
81655	7	Sololá	702	San José Chacayá	5	Chacayá	3	Marzo	2023-02-03T00:00:00	2024-11-06T07:00:00	1	Precipitación	0
81656	7	Sololá	702	San José Chacayá	5	Chacayá	3	Marzo	2023-02-03T00:00:00	2024-11-06T07:00:00	8	Radiación solar	25
81657	7	Sololá	702	San José Chacayá	5	Chacayá	3	Marzo	2023-02-03T00:00:00	2024-11-06T08:00:00	2	Temperatura media	13.6
81658	7	Sololá	702	San José Chacayá	5	Chacayá	3	Marzo	2023-02-03T00:00:00	2024-11-06T08:00:00	4	Temperatura máxima	13.6
81659	7	Sololá	702	San José Chacayá	5	Chacayá	3	Marzo	2023-02-03T00:00:00	2024-11-06T08:00:00	3	Temperatura mínima	8.8
81660	7	Sololá	702	San José Chacayá	5	Chacayá	3	Marzo	2023-02-03T00:00:00	2024-11-06T08:00:00	5	Humedad	80
81661	7	Sololá	702	San José Chacayá	5	Chacayá	3	Marzo	2023-02-03T00:00:00	2024-11-06T08:00:00	6	Velocidad del viento	1.6
81662	7	Sololá	702	San José Chacayá	5	Chacayá	3	Marzo	2023-02-03T00:00:00	2024-11-06T08:00:00	7	Dirección del viento	1.61
81663	7	Sololá	702	San José Chacayá	5	Chacayá	3	Marzo	2023-02-03T00:00:00	2024-11-06T08:00:00	1	Precipitación	0
81664	7	Sololá	702	San José Chacayá	5	Chacayá	3	Marzo	2023-02-03T00:00:00	2024-11-06T08:00:00	8	Radiación solar	182
81665	7	Sololá	702	San José Chacayá	5	Chacayá	3	Marzo	2023-02-03T00:00:00	2024-11-06T09:00:00	2	Temperatura media	17.3
81666	7	Sololá	702	San José Chacayá	5	Chacayá	3	Marzo	2023-02-03T00:00:00	2024-11-06T09:00:00	4	Temperatura máxima	17.3
81667	7	Sololá	702	San José Chacayá	5	Chacayá	3	Marzo	2023-02-03T00:00:00	2024-11-06T09:00:00	3	Temperatura mínima	13.6
81668	7	Sololá	702	San José Chacayá	5	Chacayá	3	Marzo	2023-02-03T00:00:00	2024-11-06T09:00:00	5	Humedad	63
81669	7	Sololá	702	San José Chacayá	5	Chacayá	3	Marzo	2023-02-03T00:00:00	2024-11-06T09:00:00	6	Velocidad del viento	3.2
81670	7	Sololá	702	San José Chacayá	5	Chacayá	3	Marzo	2023-02-03T00:00:00	2024-11-06T09:00:00	7	Dirección del viento	3.22
81671	7	Sololá	702	San José Chacayá	5	Chacayá	3	Marzo	2023-02-03T00:00:00	2024-11-06T09:00:00	1	Precipitación	0
81672	7	Sololá	702	San José Chacayá	5	Chacayá	3	Marzo	2023-02-03T00:00:00	2024-11-06T09:00:00	8	Radiación solar	467
81673	7	Sololá	702	San José Chacayá	5	Chacayá	3	Marzo	2023-02-03T00:00:00	2024-11-06T10:00:00	2	Temperatura media	19.2
81674	7	Sololá	702	San José Chacayá	5	Chacayá	3	Marzo	2023-02-03T00:00:00	2024-11-06T10:00:00	4	Temperatura máxima	19.2
81675	7	Sololá	702	San José Chacayá	5	Chacayá	3	Marzo	2023-02-03T00:00:00	2024-11-06T10:00:00	3	Temperatura mínima	17.3
81676	7	Sololá	702	San José Chacayá	5	Chacayá	3	Marzo	2023-02-03T00:00:00	2024-11-06T10:00:00	5	Humedad	57
81677	7	Sololá	702	San José Chacayá	5	Chacayá	3	Marzo	2023-02-03T00:00:00	2024-11-06T10:00:00	6	Velocidad del viento	4.8
81678	7	Sololá	702	San José Chacayá	5	Chacayá	3	Marzo	2023-02-03T00:00:00	2024-11-06T10:00:00	7	Dirección del viento	4.83
81679	7	Sololá	702	San José Chacayá	5	Chacayá	3	Marzo	2023-02-03T00:00:00	2024-11-06T10:00:00	1	Precipitación	0
81680	7	Sololá	702	San José Chacayá	5	Chacayá	3	Marzo	2023-02-03T00:00:00	2024-11-06T10:00:00	8	Radiación solar	701
81681	7	Sololá	702	San José Chacayá	5	Chacayá	3	Marzo	2023-02-03T00:00:00	2024-11-06T11:00:00	2	Temperatura media	20.2
81682	7	Sololá	702	San José Chacayá	5	Chacayá	3	Marzo	2023-02-03T00:00:00	2024-11-06T11:00:00	4	Temperatura máxima	20.4
81683	7	Sololá	702	San José Chacayá	5	Chacayá	3	Marzo	2023-02-03T00:00:00	2024-11-06T11:00:00	3	Temperatura mínima	19
81684	7	Sololá	702	San José Chacayá	5	Chacayá	3	Marzo	2023-02-03T00:00:00	2024-11-06T11:00:00	5	Humedad	41
81685	7	Sololá	702	San José Chacayá	5	Chacayá	3	Marzo	2023-02-03T00:00:00	2024-11-06T11:00:00	6	Velocidad del viento	6.4
81686	7	Sololá	702	San José Chacayá	5	Chacayá	3	Marzo	2023-02-03T00:00:00	2024-11-06T11:00:00	7	Dirección del viento	6.44
81687	7	Sololá	702	San José Chacayá	5	Chacayá	3	Marzo	2023-02-03T00:00:00	2024-11-06T11:00:00	1	Precipitación	0
81688	7	Sololá	702	San José Chacayá	5	Chacayá	3	Marzo	2023-02-03T00:00:00	2024-11-06T11:00:00	8	Radiación solar	868
81689	7	Sololá	702	San José Chacayá	5	Chacayá	3	Marzo	2023-02-03T00:00:00	2024-11-06T12:00:00	2	Temperatura media	20.7
81690	7	Sololá	702	San José Chacayá	5	Chacayá	3	Marzo	2023-02-03T00:00:00	2024-11-06T12:00:00	4	Temperatura máxima	20.7
81691	7	Sololá	702	San José Chacayá	5	Chacayá	3	Marzo	2023-02-03T00:00:00	2024-11-06T12:00:00	3	Temperatura mínima	20.1
81692	7	Sololá	702	San José Chacayá	5	Chacayá	3	Marzo	2023-02-03T00:00:00	2024-11-06T12:00:00	5	Humedad	50
81693	7	Sololá	702	San José Chacayá	5	Chacayá	3	Marzo	2023-02-03T00:00:00	2024-11-06T12:00:00	6	Velocidad del viento	8
81694	7	Sololá	702	San José Chacayá	5	Chacayá	3	Marzo	2023-02-03T00:00:00	2024-11-06T12:00:00	7	Dirección del viento	8.05
81695	7	Sololá	702	San José Chacayá	5	Chacayá	3	Marzo	2023-02-03T00:00:00	2024-11-06T12:00:00	1	Precipitación	0
81696	7	Sololá	702	San José Chacayá	5	Chacayá	3	Marzo	2023-02-03T00:00:00	2024-11-06T12:00:00	8	Radiación solar	960
81697	7	Sololá	702	San José Chacayá	5	Chacayá	3	Marzo	2023-02-03T00:00:00	2024-11-06T13:00:00	2	Temperatura media	20.5
81698	7	Sololá	702	San José Chacayá	5	Chacayá	3	Marzo	2023-02-03T00:00:00	2024-11-06T13:00:00	4	Temperatura máxima	20.9
81699	7	Sololá	702	San José Chacayá	5	Chacayá	3	Marzo	2023-02-03T00:00:00	2024-11-06T13:00:00	3	Temperatura mínima	20.1
81700	7	Sololá	702	San José Chacayá	5	Chacayá	3	Marzo	2023-02-03T00:00:00	2024-11-06T13:00:00	5	Humedad	44
81701	7	Sololá	702	San José Chacayá	5	Chacayá	3	Marzo	2023-02-03T00:00:00	2024-11-06T13:00:00	6	Velocidad del viento	8
81702	7	Sololá	702	San José Chacayá	5	Chacayá	3	Marzo	2023-02-03T00:00:00	2024-11-06T13:00:00	7	Dirección del viento	8.05
81703	7	Sololá	702	San José Chacayá	5	Chacayá	3	Marzo	2023-02-03T00:00:00	2024-11-06T13:00:00	1	Precipitación	0
81704	7	Sololá	702	San José Chacayá	5	Chacayá	3	Marzo	2023-02-03T00:00:00	2024-11-06T13:00:00	8	Radiación solar	945
81705	7	Sololá	702	San José Chacayá	5	Chacayá	3	Marzo	2023-02-03T00:00:00	2024-11-06T14:00:00	2	Temperatura media	19.6
81706	7	Sololá	702	San José Chacayá	5	Chacayá	3	Marzo	2023-02-03T00:00:00	2024-11-06T14:00:00	4	Temperatura máxima	20.7
81707	7	Sololá	702	San José Chacayá	5	Chacayá	3	Marzo	2023-02-03T00:00:00	2024-11-06T14:00:00	3	Temperatura mínima	19.5
81708	7	Sololá	702	San José Chacayá	5	Chacayá	3	Marzo	2023-02-03T00:00:00	2024-11-06T14:00:00	5	Humedad	66
81709	7	Sololá	702	San José Chacayá	5	Chacayá	3	Marzo	2023-02-03T00:00:00	2024-11-06T14:00:00	6	Velocidad del viento	9.7
81710	7	Sololá	702	San José Chacayá	5	Chacayá	3	Marzo	2023-02-03T00:00:00	2024-11-06T14:00:00	7	Dirección del viento	9.66
81711	7	Sololá	702	San José Chacayá	5	Chacayá	3	Marzo	2023-02-03T00:00:00	2024-11-06T14:00:00	1	Precipitación	0
81712	7	Sololá	702	San José Chacayá	5	Chacayá	3	Marzo	2023-02-03T00:00:00	2024-11-06T14:00:00	8	Radiación solar	912
81713	7	Sololá	702	San José Chacayá	5	Chacayá	3	Marzo	2023-02-03T00:00:00	2024-11-06T15:00:00	2	Temperatura media	20.5
81714	7	Sololá	702	San José Chacayá	5	Chacayá	3	Marzo	2023-02-03T00:00:00	2024-11-06T15:00:00	4	Temperatura máxima	20.5
81715	7	Sololá	702	San José Chacayá	5	Chacayá	3	Marzo	2023-02-03T00:00:00	2024-11-06T15:00:00	3	Temperatura mínima	19.4
81716	7	Sololá	702	San José Chacayá	5	Chacayá	3	Marzo	2023-02-03T00:00:00	2024-11-06T15:00:00	5	Humedad	64
81717	7	Sololá	702	San José Chacayá	5	Chacayá	3	Marzo	2023-02-03T00:00:00	2024-11-06T15:00:00	6	Velocidad del viento	6.4
81718	7	Sololá	702	San José Chacayá	5	Chacayá	3	Marzo	2023-02-03T00:00:00	2024-11-06T15:00:00	7	Dirección del viento	6.44
81719	7	Sololá	702	San José Chacayá	5	Chacayá	3	Marzo	2023-02-03T00:00:00	2024-11-06T15:00:00	1	Precipitación	0
81720	7	Sololá	702	San José Chacayá	5	Chacayá	3	Marzo	2023-02-03T00:00:00	2024-11-06T15:00:00	8	Radiación solar	792
81721	7	Sololá	702	San José Chacayá	5	Chacayá	3	Marzo	2023-02-03T00:00:00	2024-11-06T16:00:00	2	Temperatura media	18.9
81722	7	Sololá	702	San José Chacayá	5	Chacayá	3	Marzo	2023-02-03T00:00:00	2024-11-06T16:00:00	4	Temperatura máxima	20.5
81723	7	Sololá	702	San José Chacayá	5	Chacayá	3	Marzo	2023-02-03T00:00:00	2024-11-06T16:00:00	3	Temperatura mínima	18.3
81724	7	Sololá	702	San José Chacayá	5	Chacayá	3	Marzo	2023-02-03T00:00:00	2024-11-06T16:00:00	5	Humedad	72
81725	7	Sololá	702	San José Chacayá	5	Chacayá	3	Marzo	2023-02-03T00:00:00	2024-11-06T16:00:00	6	Velocidad del viento	4.8
81726	7	Sololá	702	San José Chacayá	5	Chacayá	3	Marzo	2023-02-03T00:00:00	2024-11-06T16:00:00	7	Dirección del viento	4.83
81727	7	Sololá	702	San José Chacayá	5	Chacayá	3	Marzo	2023-02-03T00:00:00	2024-11-06T16:00:00	1	Precipitación	0
81728	7	Sololá	702	San José Chacayá	5	Chacayá	3	Marzo	2023-02-03T00:00:00	2024-11-06T16:00:00	8	Radiación solar	547
81729	7	Sololá	702	San José Chacayá	5	Chacayá	3	Marzo	2023-02-03T00:00:00	2024-11-06T17:00:00	2	Temperatura media	16.3
81730	7	Sololá	702	San José Chacayá	5	Chacayá	3	Marzo	2023-02-03T00:00:00	2024-11-06T17:00:00	4	Temperatura máxima	18.9
81731	7	Sololá	702	San José Chacayá	5	Chacayá	3	Marzo	2023-02-03T00:00:00	2024-11-06T17:00:00	3	Temperatura mínima	16.3
81732	7	Sololá	702	San José Chacayá	5	Chacayá	3	Marzo	2023-02-03T00:00:00	2024-11-06T17:00:00	5	Humedad	81
81733	7	Sololá	702	San José Chacayá	5	Chacayá	3	Marzo	2023-02-03T00:00:00	2024-11-06T17:00:00	6	Velocidad del viento	4.8
81734	7	Sololá	702	San José Chacayá	5	Chacayá	3	Marzo	2023-02-03T00:00:00	2024-11-06T17:00:00	7	Dirección del viento	4.83
81735	7	Sololá	702	San José Chacayá	5	Chacayá	3	Marzo	2023-02-03T00:00:00	2024-11-06T17:00:00	1	Precipitación	0
81736	7	Sololá	702	San José Chacayá	5	Chacayá	3	Marzo	2023-02-03T00:00:00	2024-11-06T17:00:00	8	Radiación solar	191
81737	7	Sololá	702	San José Chacayá	5	Chacayá	3	Marzo	2023-02-03T00:00:00	2024-11-06T18:00:00	2	Temperatura media	15.8
81738	7	Sololá	702	San José Chacayá	5	Chacayá	3	Marzo	2023-02-03T00:00:00	2024-11-06T18:00:00	4	Temperatura máxima	16.3
81739	7	Sololá	702	San José Chacayá	5	Chacayá	3	Marzo	2023-02-03T00:00:00	2024-11-06T18:00:00	3	Temperatura mínima	15.8
81740	7	Sololá	702	San José Chacayá	5	Chacayá	3	Marzo	2023-02-03T00:00:00	2024-11-06T18:00:00	5	Humedad	82
81741	7	Sololá	702	San José Chacayá	5	Chacayá	3	Marzo	2023-02-03T00:00:00	2024-11-06T18:00:00	6	Velocidad del viento	1.6
81742	7	Sololá	702	San José Chacayá	5	Chacayá	3	Marzo	2023-02-03T00:00:00	2024-11-06T18:00:00	7	Dirección del viento	1.61
81743	7	Sololá	702	San José Chacayá	5	Chacayá	3	Marzo	2023-02-03T00:00:00	2024-11-06T18:00:00	1	Precipitación	0
81744	7	Sololá	702	San José Chacayá	5	Chacayá	3	Marzo	2023-02-03T00:00:00	2024-11-06T18:00:00	8	Radiación solar	46
81745	7	Sololá	702	San José Chacayá	5	Chacayá	3	Marzo	2023-02-03T00:00:00	2024-11-06T19:00:00	2	Temperatura media	14.8
81746	7	Sololá	702	San José Chacayá	5	Chacayá	3	Marzo	2023-02-03T00:00:00	2024-11-06T19:00:00	4	Temperatura máxima	15.8
81747	7	Sololá	702	San José Chacayá	5	Chacayá	3	Marzo	2023-02-03T00:00:00	2024-11-06T19:00:00	3	Temperatura mínima	14.8
81748	7	Sololá	702	San José Chacayá	5	Chacayá	3	Marzo	2023-02-03T00:00:00	2024-11-06T19:00:00	5	Humedad	82
81749	7	Sololá	702	San José Chacayá	5	Chacayá	3	Marzo	2023-02-03T00:00:00	2024-11-06T19:00:00	6	Velocidad del viento	0
81750	7	Sololá	702	San José Chacayá	5	Chacayá	3	Marzo	2023-02-03T00:00:00	2024-11-06T19:00:00	7	Dirección del viento	0
81751	7	Sololá	702	San José Chacayá	5	Chacayá	3	Marzo	2023-02-03T00:00:00	2024-11-06T19:00:00	1	Precipitación	0
81752	7	Sololá	702	San José Chacayá	5	Chacayá	3	Marzo	2023-02-03T00:00:00	2024-11-06T19:00:00	8	Radiación solar	0
81753	7	Sololá	702	San José Chacayá	5	Chacayá	3	Marzo	2023-02-03T00:00:00	2024-11-06T20:00:00	2	Temperatura media	12.5
81754	7	Sololá	702	San José Chacayá	5	Chacayá	3	Marzo	2023-02-03T00:00:00	2024-11-06T20:00:00	4	Temperatura máxima	14.8
81755	7	Sololá	702	San José Chacayá	5	Chacayá	3	Marzo	2023-02-03T00:00:00	2024-11-06T20:00:00	3	Temperatura mínima	12.5
81756	7	Sololá	702	San José Chacayá	5	Chacayá	3	Marzo	2023-02-03T00:00:00	2024-11-06T20:00:00	5	Humedad	84
81757	7	Sololá	702	San José Chacayá	5	Chacayá	3	Marzo	2023-02-03T00:00:00	2024-11-06T20:00:00	6	Velocidad del viento	0
81758	7	Sololá	702	San José Chacayá	5	Chacayá	3	Marzo	2023-02-03T00:00:00	2024-11-06T20:00:00	7	Dirección del viento	0
81759	7	Sololá	702	San José Chacayá	5	Chacayá	3	Marzo	2023-02-03T00:00:00	2024-11-06T20:00:00	1	Precipitación	0
81760	7	Sololá	702	San José Chacayá	5	Chacayá	3	Marzo	2023-02-03T00:00:00	2024-11-06T20:00:00	8	Radiación solar	0
81761	7	Sololá	702	San José Chacayá	5	Chacayá	3	Marzo	2023-02-03T00:00:00	2024-11-06T21:00:00	2	Temperatura media	11.1
81762	7	Sololá	702	San José Chacayá	5	Chacayá	3	Marzo	2023-02-03T00:00:00	2024-11-06T21:00:00	4	Temperatura máxima	12.5
81763	7	Sololá	702	San José Chacayá	5	Chacayá	3	Marzo	2023-02-03T00:00:00	2024-11-06T21:00:00	3	Temperatura mínima	11.1
81764	7	Sololá	702	San José Chacayá	5	Chacayá	3	Marzo	2023-02-03T00:00:00	2024-11-06T21:00:00	5	Humedad	83
81765	7	Sololá	702	San José Chacayá	5	Chacayá	3	Marzo	2023-02-03T00:00:00	2024-11-06T21:00:00	6	Velocidad del viento	0
81766	7	Sololá	702	San José Chacayá	5	Chacayá	3	Marzo	2023-02-03T00:00:00	2024-11-06T21:00:00	7	Dirección del viento	0
81767	7	Sololá	702	San José Chacayá	5	Chacayá	3	Marzo	2023-02-03T00:00:00	2024-11-06T21:00:00	1	Precipitación	0
81768	7	Sololá	702	San José Chacayá	5	Chacayá	3	Marzo	2023-02-03T00:00:00	2024-11-06T21:00:00	8	Radiación solar	0
81769	7	Sololá	702	San José Chacayá	5	Chacayá	3	Marzo	2023-02-03T00:00:00	2024-11-06T22:00:00	2	Temperatura media	9.5
81770	7	Sololá	702	San José Chacayá	5	Chacayá	3	Marzo	2023-02-03T00:00:00	2024-11-06T22:00:00	4	Temperatura máxima	11.1
81771	7	Sololá	702	San José Chacayá	5	Chacayá	3	Marzo	2023-02-03T00:00:00	2024-11-06T22:00:00	3	Temperatura mínima	9.5
81772	7	Sololá	702	San José Chacayá	5	Chacayá	3	Marzo	2023-02-03T00:00:00	2024-11-06T22:00:00	5	Humedad	84
81773	7	Sololá	702	San José Chacayá	5	Chacayá	3	Marzo	2023-02-03T00:00:00	2024-11-06T22:00:00	6	Velocidad del viento	3.2
81774	7	Sololá	702	San José Chacayá	5	Chacayá	3	Marzo	2023-02-03T00:00:00	2024-11-06T22:00:00	7	Dirección del viento	3.22
81775	7	Sololá	702	San José Chacayá	5	Chacayá	3	Marzo	2023-02-03T00:00:00	2024-11-06T22:00:00	1	Precipitación	0
81776	7	Sololá	702	San José Chacayá	5	Chacayá	3	Marzo	2023-02-03T00:00:00	2024-11-06T22:00:00	8	Radiación solar	0
81777	7	Sololá	702	San José Chacayá	5	Chacayá	3	Marzo	2023-02-03T00:00:00	2024-11-06T23:00:00	2	Temperatura media	7.5
81778	7	Sololá	702	San José Chacayá	5	Chacayá	3	Marzo	2023-02-03T00:00:00	2024-11-06T23:00:00	4	Temperatura máxima	9.5
81779	7	Sololá	702	San José Chacayá	5	Chacayá	3	Marzo	2023-02-03T00:00:00	2024-11-06T23:00:00	3	Temperatura mínima	7.5
81780	7	Sololá	702	San José Chacayá	5	Chacayá	3	Marzo	2023-02-03T00:00:00	2024-11-06T23:00:00	5	Humedad	82
81781	7	Sololá	702	San José Chacayá	5	Chacayá	3	Marzo	2023-02-03T00:00:00	2024-11-06T23:00:00	6	Velocidad del viento	3.2
81782	7	Sololá	702	San José Chacayá	5	Chacayá	3	Marzo	2023-02-03T00:00:00	2024-11-06T23:00:00	7	Dirección del viento	3.22
81783	7	Sololá	702	San José Chacayá	5	Chacayá	3	Marzo	2023-02-03T00:00:00	2024-11-06T23:00:00	1	Precipitación	0
81784	7	Sololá	702	San José Chacayá	5	Chacayá	3	Marzo	2023-02-03T00:00:00	2024-11-06T23:00:00	8	Radiación solar	0
81785	7	Sololá	702	San José Chacayá	5	Chacayá	3	Marzo	2023-03-03T00:00:00	2024-11-06T00:00:00	2	Temperatura media	6.2
81786	7	Sololá	702	San José Chacayá	5	Chacayá	3	Marzo	2023-03-03T00:00:00	2024-11-06T00:00:00	4	Temperatura máxima	7.4
81787	7	Sololá	702	San José Chacayá	5	Chacayá	3	Marzo	2023-03-03T00:00:00	2024-11-06T00:00:00	3	Temperatura mínima	6.2
81788	7	Sololá	702	San José Chacayá	5	Chacayá	3	Marzo	2023-03-03T00:00:00	2024-11-06T00:00:00	5	Humedad	73
81789	7	Sololá	702	San José Chacayá	5	Chacayá	3	Marzo	2023-03-03T00:00:00	2024-11-06T00:00:00	6	Velocidad del viento	6.4
81790	7	Sololá	702	San José Chacayá	5	Chacayá	3	Marzo	2023-03-03T00:00:00	2024-11-06T00:00:00	7	Dirección del viento	6.44
81791	7	Sololá	702	San José Chacayá	5	Chacayá	3	Marzo	2023-03-03T00:00:00	2024-11-06T00:00:00	1	Precipitación	0
81792	7	Sololá	702	San José Chacayá	5	Chacayá	3	Marzo	2023-03-03T00:00:00	2024-11-06T00:00:00	8	Radiación solar	0
81793	7	Sololá	702	San José Chacayá	5	Chacayá	3	Marzo	2023-03-03T00:00:00	2024-11-06T01:00:00	2	Temperatura media	5.3
81794	7	Sololá	702	San José Chacayá	5	Chacayá	3	Marzo	2023-03-03T00:00:00	2024-11-06T01:00:00	4	Temperatura máxima	6.3
81795	7	Sololá	702	San José Chacayá	5	Chacayá	3	Marzo	2023-03-03T00:00:00	2024-11-06T01:00:00	3	Temperatura mínima	5.3
81796	7	Sololá	702	San José Chacayá	5	Chacayá	3	Marzo	2023-03-03T00:00:00	2024-11-06T01:00:00	5	Humedad	68
81797	7	Sololá	702	San José Chacayá	5	Chacayá	3	Marzo	2023-03-03T00:00:00	2024-11-06T01:00:00	6	Velocidad del viento	6.4
81798	7	Sololá	702	San José Chacayá	5	Chacayá	3	Marzo	2023-03-03T00:00:00	2024-11-06T01:00:00	7	Dirección del viento	6.44
81799	7	Sololá	702	San José Chacayá	5	Chacayá	3	Marzo	2023-03-03T00:00:00	2024-11-06T01:00:00	1	Precipitación	0
81800	7	Sololá	702	San José Chacayá	5	Chacayá	3	Marzo	2023-03-03T00:00:00	2024-11-06T01:00:00	8	Radiación solar	0
81801	7	Sololá	702	San José Chacayá	5	Chacayá	3	Marzo	2023-03-03T00:00:00	2024-11-06T02:00:00	2	Temperatura media	7.2
81802	7	Sololá	702	San José Chacayá	5	Chacayá	3	Marzo	2023-03-03T00:00:00	2024-11-06T02:00:00	4	Temperatura máxima	7.2
81803	7	Sololá	702	San José Chacayá	5	Chacayá	3	Marzo	2023-03-03T00:00:00	2024-11-06T02:00:00	3	Temperatura mínima	5.3
81804	7	Sololá	702	San José Chacayá	5	Chacayá	3	Marzo	2023-03-03T00:00:00	2024-11-06T02:00:00	5	Humedad	61
81805	7	Sololá	702	San José Chacayá	5	Chacayá	3	Marzo	2023-03-03T00:00:00	2024-11-06T02:00:00	6	Velocidad del viento	3.2
81806	7	Sololá	702	San José Chacayá	5	Chacayá	3	Marzo	2023-03-03T00:00:00	2024-11-06T02:00:00	7	Dirección del viento	3.22
81807	7	Sololá	702	San José Chacayá	5	Chacayá	3	Marzo	2023-03-03T00:00:00	2024-11-06T02:00:00	1	Precipitación	0
81808	7	Sololá	702	San José Chacayá	5	Chacayá	3	Marzo	2023-03-03T00:00:00	2024-11-06T02:00:00	8	Radiación solar	0
81809	7	Sololá	702	San José Chacayá	5	Chacayá	3	Marzo	2023-03-03T00:00:00	2024-11-06T03:00:00	2	Temperatura media	7.3
81810	7	Sololá	702	San José Chacayá	5	Chacayá	3	Marzo	2023-03-03T00:00:00	2024-11-06T03:00:00	4	Temperatura máxima	7.7
81811	7	Sololá	702	San José Chacayá	5	Chacayá	3	Marzo	2023-03-03T00:00:00	2024-11-06T03:00:00	3	Temperatura mínima	6.8
81812	7	Sololá	702	San José Chacayá	5	Chacayá	3	Marzo	2023-03-03T00:00:00	2024-11-06T03:00:00	5	Humedad	66
81813	7	Sololá	702	San José Chacayá	5	Chacayá	3	Marzo	2023-03-03T00:00:00	2024-11-06T03:00:00	6	Velocidad del viento	3.2
81814	7	Sololá	702	San José Chacayá	5	Chacayá	3	Marzo	2023-03-03T00:00:00	2024-11-06T03:00:00	7	Dirección del viento	3.22
81815	7	Sololá	702	San José Chacayá	5	Chacayá	3	Marzo	2023-03-03T00:00:00	2024-11-06T03:00:00	1	Precipitación	0
81816	7	Sololá	702	San José Chacayá	5	Chacayá	3	Marzo	2023-03-03T00:00:00	2024-11-06T03:00:00	8	Radiación solar	0
81817	7	Sololá	702	San José Chacayá	5	Chacayá	3	Marzo	2023-03-03T00:00:00	2024-11-06T04:00:00	2	Temperatura media	7.6
81818	7	Sololá	702	San José Chacayá	5	Chacayá	3	Marzo	2023-03-03T00:00:00	2024-11-06T04:00:00	4	Temperatura máxima	7.6
81819	7	Sololá	702	San José Chacayá	5	Chacayá	3	Marzo	2023-03-03T00:00:00	2024-11-06T04:00:00	3	Temperatura mínima	7.1
81820	7	Sololá	702	San José Chacayá	5	Chacayá	3	Marzo	2023-03-03T00:00:00	2024-11-06T04:00:00	5	Humedad	69
81821	7	Sololá	702	San José Chacayá	5	Chacayá	3	Marzo	2023-03-03T00:00:00	2024-11-06T04:00:00	6	Velocidad del viento	3.2
81822	7	Sololá	702	San José Chacayá	5	Chacayá	3	Marzo	2023-03-03T00:00:00	2024-11-06T04:00:00	7	Dirección del viento	3.22
81823	7	Sololá	702	San José Chacayá	5	Chacayá	3	Marzo	2023-03-03T00:00:00	2024-11-06T04:00:00	1	Precipitación	0
81824	7	Sololá	702	San José Chacayá	5	Chacayá	3	Marzo	2023-03-03T00:00:00	2024-11-06T04:00:00	8	Radiación solar	0
81825	7	Sololá	702	San José Chacayá	5	Chacayá	3	Marzo	2023-03-03T00:00:00	2024-11-06T05:00:00	2	Temperatura media	8.3
81826	7	Sololá	702	San José Chacayá	5	Chacayá	3	Marzo	2023-03-03T00:00:00	2024-11-06T05:00:00	4	Temperatura máxima	8.3
81827	7	Sololá	702	San José Chacayá	5	Chacayá	3	Marzo	2023-03-03T00:00:00	2024-11-06T05:00:00	3	Temperatura mínima	7.4
81828	7	Sololá	702	San José Chacayá	5	Chacayá	3	Marzo	2023-03-03T00:00:00	2024-11-06T05:00:00	5	Humedad	65
81829	7	Sololá	702	San José Chacayá	5	Chacayá	3	Marzo	2023-03-03T00:00:00	2024-11-06T05:00:00	6	Velocidad del viento	3.2
81830	7	Sololá	702	San José Chacayá	5	Chacayá	3	Marzo	2023-03-03T00:00:00	2024-11-06T05:00:00	7	Dirección del viento	3.22
81831	7	Sololá	702	San José Chacayá	5	Chacayá	3	Marzo	2023-03-03T00:00:00	2024-11-06T05:00:00	1	Precipitación	0
81832	7	Sololá	702	San José Chacayá	5	Chacayá	3	Marzo	2023-03-03T00:00:00	2024-11-06T05:00:00	8	Radiación solar	0
81833	7	Sololá	702	San José Chacayá	5	Chacayá	3	Marzo	2023-03-03T00:00:00	2024-11-06T06:00:00	2	Temperatura media	9.3
81834	7	Sololá	702	San José Chacayá	5	Chacayá	3	Marzo	2023-03-03T00:00:00	2024-11-06T06:00:00	4	Temperatura máxima	9.5
81835	7	Sololá	702	San José Chacayá	5	Chacayá	3	Marzo	2023-03-03T00:00:00	2024-11-06T06:00:00	3	Temperatura mínima	8.3
81836	7	Sololá	702	San José Chacayá	5	Chacayá	3	Marzo	2023-03-03T00:00:00	2024-11-06T06:00:00	5	Humedad	63
81837	7	Sololá	702	San José Chacayá	5	Chacayá	3	Marzo	2023-03-03T00:00:00	2024-11-06T06:00:00	6	Velocidad del viento	3.2
81838	7	Sololá	702	San José Chacayá	5	Chacayá	3	Marzo	2023-03-03T00:00:00	2024-11-06T06:00:00	7	Dirección del viento	3.22
81839	7	Sololá	702	San José Chacayá	5	Chacayá	3	Marzo	2023-03-03T00:00:00	2024-11-06T06:00:00	1	Precipitación	0
81840	7	Sololá	702	San José Chacayá	5	Chacayá	3	Marzo	2023-03-03T00:00:00	2024-11-06T06:00:00	8	Radiación solar	0
81841	7	Sololá	702	San José Chacayá	5	Chacayá	3	Marzo	2023-03-03T00:00:00	2024-11-06T07:00:00	2	Temperatura media	10.9
81842	7	Sololá	702	San José Chacayá	5	Chacayá	3	Marzo	2023-03-03T00:00:00	2024-11-06T07:00:00	4	Temperatura máxima	10.9
81843	7	Sololá	702	San José Chacayá	5	Chacayá	3	Marzo	2023-03-03T00:00:00	2024-11-06T07:00:00	3	Temperatura mínima	9
81844	7	Sololá	702	San José Chacayá	5	Chacayá	3	Marzo	2023-03-03T00:00:00	2024-11-06T07:00:00	5	Humedad	63
81845	7	Sololá	702	San José Chacayá	5	Chacayá	3	Marzo	2023-03-03T00:00:00	2024-11-06T07:00:00	6	Velocidad del viento	3.2
81846	7	Sololá	702	San José Chacayá	5	Chacayá	3	Marzo	2023-03-03T00:00:00	2024-11-06T07:00:00	7	Dirección del viento	3.22
81847	7	Sololá	702	San José Chacayá	5	Chacayá	3	Marzo	2023-03-03T00:00:00	2024-11-06T07:00:00	1	Precipitación	0
81848	7	Sololá	702	San José Chacayá	5	Chacayá	3	Marzo	2023-03-03T00:00:00	2024-11-06T07:00:00	8	Radiación solar	26
81849	7	Sololá	702	San José Chacayá	5	Chacayá	3	Marzo	2023-03-03T00:00:00	2024-11-06T08:00:00	2	Temperatura media	17.4
81850	7	Sololá	702	San José Chacayá	5	Chacayá	3	Marzo	2023-03-03T00:00:00	2024-11-06T08:00:00	4	Temperatura máxima	17.4
81851	7	Sololá	702	San José Chacayá	5	Chacayá	3	Marzo	2023-03-03T00:00:00	2024-11-06T08:00:00	3	Temperatura mínima	10.9
81852	7	Sololá	702	San José Chacayá	5	Chacayá	3	Marzo	2023-03-03T00:00:00	2024-11-06T08:00:00	5	Humedad	42
81853	7	Sololá	702	San José Chacayá	5	Chacayá	3	Marzo	2023-03-03T00:00:00	2024-11-06T08:00:00	6	Velocidad del viento	1.6
81854	7	Sololá	702	San José Chacayá	5	Chacayá	3	Marzo	2023-03-03T00:00:00	2024-11-06T08:00:00	7	Dirección del viento	1.61
81855	7	Sololá	702	San José Chacayá	5	Chacayá	3	Marzo	2023-03-03T00:00:00	2024-11-06T08:00:00	1	Precipitación	0
81856	7	Sololá	702	San José Chacayá	5	Chacayá	3	Marzo	2023-03-03T00:00:00	2024-11-06T08:00:00	8	Radiación solar	202
81857	7	Sololá	702	San José Chacayá	5	Chacayá	3	Marzo	2023-03-03T00:00:00	2024-11-06T09:00:00	2	Temperatura media	19.9
81858	7	Sololá	702	San José Chacayá	5	Chacayá	3	Marzo	2023-03-03T00:00:00	2024-11-06T09:00:00	4	Temperatura máxima	20.1
81859	7	Sololá	702	San José Chacayá	5	Chacayá	3	Marzo	2023-03-03T00:00:00	2024-11-06T09:00:00	3	Temperatura mínima	17.4
81860	7	Sololá	702	San José Chacayá	5	Chacayá	3	Marzo	2023-03-03T00:00:00	2024-11-06T09:00:00	5	Humedad	35
81861	7	Sololá	702	San José Chacayá	5	Chacayá	3	Marzo	2023-03-03T00:00:00	2024-11-06T09:00:00	6	Velocidad del viento	3.2
81862	7	Sololá	702	San José Chacayá	5	Chacayá	3	Marzo	2023-03-03T00:00:00	2024-11-06T09:00:00	7	Dirección del viento	3.22
81863	7	Sololá	702	San José Chacayá	5	Chacayá	3	Marzo	2023-03-03T00:00:00	2024-11-06T09:00:00	1	Precipitación	0
81864	7	Sololá	702	San José Chacayá	5	Chacayá	3	Marzo	2023-03-03T00:00:00	2024-11-06T09:00:00	8	Radiación solar	489
81865	7	Sololá	702	San José Chacayá	5	Chacayá	3	Marzo	2023-03-03T00:00:00	2024-11-06T10:00:00	2	Temperatura media	20.4
81866	7	Sololá	702	San José Chacayá	5	Chacayá	3	Marzo	2023-03-03T00:00:00	2024-11-06T10:00:00	4	Temperatura máxima	21.1
81867	7	Sololá	702	San José Chacayá	5	Chacayá	3	Marzo	2023-03-03T00:00:00	2024-11-06T10:00:00	3	Temperatura mínima	19.9
81868	7	Sololá	702	San José Chacayá	5	Chacayá	3	Marzo	2023-03-03T00:00:00	2024-11-06T10:00:00	5	Humedad	35
81869	7	Sololá	702	San José Chacayá	5	Chacayá	3	Marzo	2023-03-03T00:00:00	2024-11-06T10:00:00	6	Velocidad del viento	4.8
81870	7	Sololá	702	San José Chacayá	5	Chacayá	3	Marzo	2023-03-03T00:00:00	2024-11-06T10:00:00	7	Dirección del viento	4.83
81871	7	Sololá	702	San José Chacayá	5	Chacayá	3	Marzo	2023-03-03T00:00:00	2024-11-06T10:00:00	1	Precipitación	0
81872	7	Sololá	702	San José Chacayá	5	Chacayá	3	Marzo	2023-03-03T00:00:00	2024-11-06T10:00:00	8	Radiación solar	721
81873	7	Sololá	702	San José Chacayá	5	Chacayá	3	Marzo	2023-03-03T00:00:00	2024-11-06T11:00:00	2	Temperatura media	21.2
81874	7	Sololá	702	San José Chacayá	5	Chacayá	3	Marzo	2023-03-03T00:00:00	2024-11-06T11:00:00	4	Temperatura máxima	21.2
81875	7	Sololá	702	San José Chacayá	5	Chacayá	3	Marzo	2023-03-03T00:00:00	2024-11-06T11:00:00	3	Temperatura mínima	20.4
81876	7	Sololá	702	San José Chacayá	5	Chacayá	3	Marzo	2023-03-03T00:00:00	2024-11-06T11:00:00	5	Humedad	32
81877	7	Sololá	702	San José Chacayá	5	Chacayá	3	Marzo	2023-03-03T00:00:00	2024-11-06T11:00:00	6	Velocidad del viento	6.4
81878	7	Sololá	702	San José Chacayá	5	Chacayá	3	Marzo	2023-03-03T00:00:00	2024-11-06T11:00:00	7	Dirección del viento	6.44
81879	7	Sololá	702	San José Chacayá	5	Chacayá	3	Marzo	2023-03-03T00:00:00	2024-11-06T11:00:00	1	Precipitación	0
81880	7	Sololá	702	San José Chacayá	5	Chacayá	3	Marzo	2023-03-03T00:00:00	2024-11-06T11:00:00	8	Radiación solar	882
81881	7	Sololá	702	San José Chacayá	5	Chacayá	3	Marzo	2023-03-03T00:00:00	2024-11-06T12:00:00	2	Temperatura media	21.3
81882	7	Sololá	702	San José Chacayá	5	Chacayá	3	Marzo	2023-03-03T00:00:00	2024-11-06T12:00:00	4	Temperatura máxima	21.6
81883	7	Sololá	702	San José Chacayá	5	Chacayá	3	Marzo	2023-03-03T00:00:00	2024-11-06T12:00:00	3	Temperatura mínima	20.7
81884	7	Sololá	702	San José Chacayá	5	Chacayá	3	Marzo	2023-03-03T00:00:00	2024-11-06T12:00:00	5	Humedad	42
81885	7	Sololá	702	San José Chacayá	5	Chacayá	3	Marzo	2023-03-03T00:00:00	2024-11-06T12:00:00	6	Velocidad del viento	8
81886	7	Sololá	702	San José Chacayá	5	Chacayá	3	Marzo	2023-03-03T00:00:00	2024-11-06T12:00:00	7	Dirección del viento	8.05
81887	7	Sololá	702	San José Chacayá	5	Chacayá	3	Marzo	2023-03-03T00:00:00	2024-11-06T12:00:00	1	Precipitación	0
81888	7	Sololá	702	San José Chacayá	5	Chacayá	3	Marzo	2023-03-03T00:00:00	2024-11-06T12:00:00	8	Radiación solar	969
81889	7	Sololá	702	San José Chacayá	5	Chacayá	3	Marzo	2023-03-03T00:00:00	2024-11-06T13:00:00	2	Temperatura media	20.9
81890	7	Sololá	702	San José Chacayá	5	Chacayá	3	Marzo	2023-03-03T00:00:00	2024-11-06T13:00:00	4	Temperatura máxima	21.5
81891	7	Sololá	702	San José Chacayá	5	Chacayá	3	Marzo	2023-03-03T00:00:00	2024-11-06T13:00:00	3	Temperatura mínima	20.8
81892	7	Sololá	702	San José Chacayá	5	Chacayá	3	Marzo	2023-03-03T00:00:00	2024-11-06T13:00:00	5	Humedad	50
81893	7	Sololá	702	San José Chacayá	5	Chacayá	3	Marzo	2023-03-03T00:00:00	2024-11-06T13:00:00	6	Velocidad del viento	6.4
81894	7	Sololá	702	San José Chacayá	5	Chacayá	3	Marzo	2023-03-03T00:00:00	2024-11-06T13:00:00	7	Dirección del viento	6.44
81895	7	Sololá	702	San José Chacayá	5	Chacayá	3	Marzo	2023-03-03T00:00:00	2024-11-06T13:00:00	1	Precipitación	0
81896	7	Sololá	702	San José Chacayá	5	Chacayá	3	Marzo	2023-03-03T00:00:00	2024-11-06T13:00:00	8	Radiación solar	981
81897	7	Sololá	702	San José Chacayá	5	Chacayá	3	Marzo	2023-03-03T00:00:00	2024-11-06T14:00:00	2	Temperatura media	20.8
81898	7	Sololá	702	San José Chacayá	5	Chacayá	3	Marzo	2023-03-03T00:00:00	2024-11-06T14:00:00	4	Temperatura máxima	21.8
81899	7	Sololá	702	San José Chacayá	5	Chacayá	3	Marzo	2023-03-03T00:00:00	2024-11-06T14:00:00	3	Temperatura mínima	20.6
81900	7	Sololá	702	San José Chacayá	5	Chacayá	3	Marzo	2023-03-03T00:00:00	2024-11-06T14:00:00	5	Humedad	58
81901	7	Sololá	702	San José Chacayá	5	Chacayá	3	Marzo	2023-03-03T00:00:00	2024-11-06T14:00:00	6	Velocidad del viento	6.4
81902	7	Sololá	702	San José Chacayá	5	Chacayá	3	Marzo	2023-03-03T00:00:00	2024-11-06T14:00:00	7	Dirección del viento	6.44
81903	7	Sololá	702	San José Chacayá	5	Chacayá	3	Marzo	2023-03-03T00:00:00	2024-11-06T14:00:00	1	Precipitación	0
81904	7	Sololá	702	San José Chacayá	5	Chacayá	3	Marzo	2023-03-03T00:00:00	2024-11-06T14:00:00	8	Radiación solar	920
81905	7	Sololá	702	San José Chacayá	5	Chacayá	3	Marzo	2023-03-03T00:00:00	2024-11-06T15:00:00	2	Temperatura media	19.3
81906	7	Sololá	702	San José Chacayá	5	Chacayá	3	Marzo	2023-03-03T00:00:00	2024-11-06T15:00:00	4	Temperatura máxima	21.4
81907	7	Sololá	702	San José Chacayá	5	Chacayá	3	Marzo	2023-03-03T00:00:00	2024-11-06T15:00:00	3	Temperatura mínima	19.2
81908	7	Sololá	702	San José Chacayá	5	Chacayá	3	Marzo	2023-03-03T00:00:00	2024-11-06T15:00:00	5	Humedad	70
81909	7	Sololá	702	San José Chacayá	5	Chacayá	3	Marzo	2023-03-03T00:00:00	2024-11-06T15:00:00	6	Velocidad del viento	6.4
81910	7	Sololá	702	San José Chacayá	5	Chacayá	3	Marzo	2023-03-03T00:00:00	2024-11-06T15:00:00	7	Dirección del viento	6.44
81911	7	Sololá	702	San José Chacayá	5	Chacayá	3	Marzo	2023-03-03T00:00:00	2024-11-06T15:00:00	1	Precipitación	0
81912	7	Sololá	702	San José Chacayá	5	Chacayá	3	Marzo	2023-03-03T00:00:00	2024-11-06T15:00:00	8	Radiación solar	816
81913	7	Sololá	702	San José Chacayá	5	Chacayá	3	Marzo	2023-03-03T00:00:00	2024-11-06T16:00:00	2	Temperatura media	18.3
81914	7	Sololá	702	San José Chacayá	5	Chacayá	3	Marzo	2023-03-03T00:00:00	2024-11-06T16:00:00	4	Temperatura máxima	19.3
81915	7	Sololá	702	San José Chacayá	5	Chacayá	3	Marzo	2023-03-03T00:00:00	2024-11-06T16:00:00	3	Temperatura mínima	18.1
81916	7	Sololá	702	San José Chacayá	5	Chacayá	3	Marzo	2023-03-03T00:00:00	2024-11-06T16:00:00	5	Humedad	73
81917	7	Sololá	702	San José Chacayá	5	Chacayá	3	Marzo	2023-03-03T00:00:00	2024-11-06T16:00:00	6	Velocidad del viento	8
81918	7	Sololá	702	San José Chacayá	5	Chacayá	3	Marzo	2023-03-03T00:00:00	2024-11-06T16:00:00	7	Dirección del viento	8.05
81919	7	Sololá	702	San José Chacayá	5	Chacayá	3	Marzo	2023-03-03T00:00:00	2024-11-06T16:00:00	1	Precipitación	0
81920	7	Sololá	702	San José Chacayá	5	Chacayá	3	Marzo	2023-03-03T00:00:00	2024-11-06T16:00:00	8	Radiación solar	643
81921	7	Sololá	702	San José Chacayá	5	Chacayá	3	Marzo	2023-03-03T00:00:00	2024-11-06T17:00:00	2	Temperatura media	16.9
81922	7	Sololá	702	San José Chacayá	5	Chacayá	3	Marzo	2023-03-03T00:00:00	2024-11-06T17:00:00	4	Temperatura máxima	18.6
81923	7	Sololá	702	San José Chacayá	5	Chacayá	3	Marzo	2023-03-03T00:00:00	2024-11-06T17:00:00	3	Temperatura mínima	16.9
81924	7	Sololá	702	San José Chacayá	5	Chacayá	3	Marzo	2023-03-03T00:00:00	2024-11-06T17:00:00	5	Humedad	77
81925	7	Sololá	702	San José Chacayá	5	Chacayá	3	Marzo	2023-03-03T00:00:00	2024-11-06T17:00:00	6	Velocidad del viento	6.4
81926	7	Sololá	702	San José Chacayá	5	Chacayá	3	Marzo	2023-03-03T00:00:00	2024-11-06T17:00:00	7	Dirección del viento	6.44
81927	7	Sololá	702	San José Chacayá	5	Chacayá	3	Marzo	2023-03-03T00:00:00	2024-11-06T17:00:00	1	Precipitación	0
81928	7	Sololá	702	San José Chacayá	5	Chacayá	3	Marzo	2023-03-03T00:00:00	2024-11-06T17:00:00	8	Radiación solar	352
81929	7	Sololá	702	San José Chacayá	5	Chacayá	3	Marzo	2023-03-03T00:00:00	2024-11-06T18:00:00	2	Temperatura media	15.7
81930	7	Sololá	702	San José Chacayá	5	Chacayá	3	Marzo	2023-03-03T00:00:00	2024-11-06T18:00:00	4	Temperatura máxima	16.9
81931	7	Sololá	702	San José Chacayá	5	Chacayá	3	Marzo	2023-03-03T00:00:00	2024-11-06T18:00:00	3	Temperatura mínima	15.7
81932	7	Sololá	702	San José Chacayá	5	Chacayá	3	Marzo	2023-03-03T00:00:00	2024-11-06T18:00:00	5	Humedad	81
81933	7	Sololá	702	San José Chacayá	5	Chacayá	3	Marzo	2023-03-03T00:00:00	2024-11-06T18:00:00	6	Velocidad del viento	3.2
81934	7	Sololá	702	San José Chacayá	5	Chacayá	3	Marzo	2023-03-03T00:00:00	2024-11-06T18:00:00	7	Dirección del viento	3.22
81935	7	Sololá	702	San José Chacayá	5	Chacayá	3	Marzo	2023-03-03T00:00:00	2024-11-06T18:00:00	1	Precipitación	0
81936	7	Sololá	702	San José Chacayá	5	Chacayá	3	Marzo	2023-03-03T00:00:00	2024-11-06T18:00:00	8	Radiación solar	67
81937	7	Sololá	702	San José Chacayá	5	Chacayá	3	Marzo	2023-03-03T00:00:00	2024-11-06T19:00:00	2	Temperatura media	15.2
81938	7	Sololá	702	San José Chacayá	5	Chacayá	3	Marzo	2023-03-03T00:00:00	2024-11-06T19:00:00	4	Temperatura máxima	15.7
81939	7	Sololá	702	San José Chacayá	5	Chacayá	3	Marzo	2023-03-03T00:00:00	2024-11-06T19:00:00	3	Temperatura mínima	15.2
81940	7	Sololá	702	San José Chacayá	5	Chacayá	3	Marzo	2023-03-03T00:00:00	2024-11-06T19:00:00	5	Humedad	82
81941	7	Sololá	702	San José Chacayá	5	Chacayá	3	Marzo	2023-03-03T00:00:00	2024-11-06T19:00:00	6	Velocidad del viento	0
81942	7	Sololá	702	San José Chacayá	5	Chacayá	3	Marzo	2023-03-03T00:00:00	2024-11-06T19:00:00	7	Dirección del viento	0
81943	7	Sololá	702	San José Chacayá	5	Chacayá	3	Marzo	2023-03-03T00:00:00	2024-11-06T19:00:00	1	Precipitación	0
81944	7	Sololá	702	San José Chacayá	5	Chacayá	3	Marzo	2023-03-03T00:00:00	2024-11-06T19:00:00	8	Radiación solar	0
81945	7	Sololá	702	San José Chacayá	5	Chacayá	3	Marzo	2023-03-03T00:00:00	2024-11-06T20:00:00	2	Temperatura media	13.7
81946	7	Sololá	702	San José Chacayá	5	Chacayá	3	Marzo	2023-03-03T00:00:00	2024-11-06T20:00:00	4	Temperatura máxima	15.2
81947	7	Sololá	702	San José Chacayá	5	Chacayá	3	Marzo	2023-03-03T00:00:00	2024-11-06T20:00:00	3	Temperatura mínima	13.7
81948	7	Sololá	702	San José Chacayá	5	Chacayá	3	Marzo	2023-03-03T00:00:00	2024-11-06T20:00:00	5	Humedad	83
81949	7	Sololá	702	San José Chacayá	5	Chacayá	3	Marzo	2023-03-03T00:00:00	2024-11-06T20:00:00	6	Velocidad del viento	0
81950	7	Sololá	702	San José Chacayá	5	Chacayá	3	Marzo	2023-03-03T00:00:00	2024-11-06T20:00:00	7	Dirección del viento	0
81951	7	Sololá	702	San José Chacayá	5	Chacayá	3	Marzo	2023-03-03T00:00:00	2024-11-06T20:00:00	1	Precipitación	0
81952	7	Sololá	702	San José Chacayá	5	Chacayá	3	Marzo	2023-03-03T00:00:00	2024-11-06T20:00:00	8	Radiación solar	0
81953	7	Sololá	702	San José Chacayá	5	Chacayá	3	Marzo	2023-03-03T00:00:00	2024-11-06T21:00:00	2	Temperatura media	12.9
81954	7	Sololá	702	San José Chacayá	5	Chacayá	3	Marzo	2023-03-03T00:00:00	2024-11-06T21:00:00	4	Temperatura máxima	13.7
81955	7	Sololá	702	San José Chacayá	5	Chacayá	3	Marzo	2023-03-03T00:00:00	2024-11-06T21:00:00	3	Temperatura mínima	12.9
81956	7	Sololá	702	San José Chacayá	5	Chacayá	3	Marzo	2023-03-03T00:00:00	2024-11-06T21:00:00	5	Humedad	84
81957	7	Sololá	702	San José Chacayá	5	Chacayá	3	Marzo	2023-03-03T00:00:00	2024-11-06T21:00:00	6	Velocidad del viento	1.6
81958	7	Sololá	702	San José Chacayá	5	Chacayá	3	Marzo	2023-03-03T00:00:00	2024-11-06T21:00:00	7	Dirección del viento	1.61
81959	7	Sololá	702	San José Chacayá	5	Chacayá	3	Marzo	2023-03-03T00:00:00	2024-11-06T21:00:00	1	Precipitación	0
81960	7	Sololá	702	San José Chacayá	5	Chacayá	3	Marzo	2023-03-03T00:00:00	2024-11-06T21:00:00	8	Radiación solar	0
81961	7	Sololá	702	San José Chacayá	5	Chacayá	3	Marzo	2023-03-03T00:00:00	2024-11-06T22:00:00	2	Temperatura media	11.6
81962	7	Sololá	702	San José Chacayá	5	Chacayá	3	Marzo	2023-03-03T00:00:00	2024-11-06T22:00:00	4	Temperatura máxima	12.9
81963	7	Sololá	702	San José Chacayá	5	Chacayá	3	Marzo	2023-03-03T00:00:00	2024-11-06T22:00:00	3	Temperatura mínima	11.6
81964	7	Sololá	702	San José Chacayá	5	Chacayá	3	Marzo	2023-03-03T00:00:00	2024-11-06T22:00:00	5	Humedad	84
81965	7	Sololá	702	San José Chacayá	5	Chacayá	3	Marzo	2023-03-03T00:00:00	2024-11-06T22:00:00	6	Velocidad del viento	1.6
81966	7	Sololá	702	San José Chacayá	5	Chacayá	3	Marzo	2023-03-03T00:00:00	2024-11-06T22:00:00	7	Dirección del viento	1.61
81967	7	Sololá	702	San José Chacayá	5	Chacayá	3	Marzo	2023-03-03T00:00:00	2024-11-06T22:00:00	1	Precipitación	0
81968	7	Sololá	702	San José Chacayá	5	Chacayá	3	Marzo	2023-03-03T00:00:00	2024-11-06T22:00:00	8	Radiación solar	0
81969	7	Sololá	702	San José Chacayá	5	Chacayá	3	Marzo	2023-03-03T00:00:00	2024-11-06T23:00:00	2	Temperatura media	10.3
81970	7	Sololá	702	San José Chacayá	5	Chacayá	3	Marzo	2023-03-03T00:00:00	2024-11-06T23:00:00	4	Temperatura máxima	11.6
81971	7	Sololá	702	San José Chacayá	5	Chacayá	3	Marzo	2023-03-03T00:00:00	2024-11-06T23:00:00	3	Temperatura mínima	10.3
81972	7	Sololá	702	San José Chacayá	5	Chacayá	3	Marzo	2023-03-03T00:00:00	2024-11-06T23:00:00	5	Humedad	85
81973	7	Sololá	702	San José Chacayá	5	Chacayá	3	Marzo	2023-03-03T00:00:00	2024-11-06T23:00:00	6	Velocidad del viento	3.2
81974	7	Sololá	702	San José Chacayá	5	Chacayá	3	Marzo	2023-03-03T00:00:00	2024-11-06T23:00:00	7	Dirección del viento	3.22
81975	7	Sololá	702	San José Chacayá	5	Chacayá	3	Marzo	2023-03-03T00:00:00	2024-11-06T23:00:00	1	Precipitación	0
81976	7	Sololá	702	San José Chacayá	5	Chacayá	3	Marzo	2023-03-03T00:00:00	2024-11-06T23:00:00	8	Radiación solar	0
81977	7	Sololá	702	San José Chacayá	5	Chacayá	3	Marzo	2023-04-03T00:00:00	2024-11-06T00:00:00	2	Temperatura media	9.6
81978	7	Sololá	702	San José Chacayá	5	Chacayá	3	Marzo	2023-04-03T00:00:00	2024-11-06T00:00:00	4	Temperatura máxima	10.3
81979	7	Sololá	702	San José Chacayá	5	Chacayá	3	Marzo	2023-04-03T00:00:00	2024-11-06T00:00:00	3	Temperatura mínima	9.4
81980	7	Sololá	702	San José Chacayá	5	Chacayá	3	Marzo	2023-04-03T00:00:00	2024-11-06T00:00:00	5	Humedad	84
81981	7	Sololá	702	San José Chacayá	5	Chacayá	3	Marzo	2023-04-03T00:00:00	2024-11-06T00:00:00	6	Velocidad del viento	4.8
81982	7	Sololá	702	San José Chacayá	5	Chacayá	3	Marzo	2023-04-03T00:00:00	2024-11-06T00:00:00	7	Dirección del viento	4.83
81983	7	Sololá	702	San José Chacayá	5	Chacayá	3	Marzo	2023-04-03T00:00:00	2024-11-06T00:00:00	1	Precipitación	0
81984	7	Sololá	702	San José Chacayá	5	Chacayá	3	Marzo	2023-04-03T00:00:00	2024-11-06T00:00:00	8	Radiación solar	0
81985	7	Sololá	702	San José Chacayá	5	Chacayá	3	Marzo	2023-04-03T00:00:00	2024-11-06T01:00:00	2	Temperatura media	9.2
81986	7	Sololá	702	San José Chacayá	5	Chacayá	3	Marzo	2023-04-03T00:00:00	2024-11-06T01:00:00	4	Temperatura máxima	9.6
81987	7	Sololá	702	San José Chacayá	5	Chacayá	3	Marzo	2023-04-03T00:00:00	2024-11-06T01:00:00	3	Temperatura mínima	8.9
81988	7	Sololá	702	San José Chacayá	5	Chacayá	3	Marzo	2023-04-03T00:00:00	2024-11-06T01:00:00	5	Humedad	83
81989	7	Sololá	702	San José Chacayá	5	Chacayá	3	Marzo	2023-04-03T00:00:00	2024-11-06T01:00:00	6	Velocidad del viento	4.8
81990	7	Sololá	702	San José Chacayá	5	Chacayá	3	Marzo	2023-04-03T00:00:00	2024-11-06T01:00:00	7	Dirección del viento	4.83
81991	7	Sololá	702	San José Chacayá	5	Chacayá	3	Marzo	2023-04-03T00:00:00	2024-11-06T01:00:00	1	Precipitación	0
81992	7	Sololá	702	San José Chacayá	5	Chacayá	3	Marzo	2023-04-03T00:00:00	2024-11-06T01:00:00	8	Radiación solar	0
81993	7	Sololá	702	San José Chacayá	5	Chacayá	3	Marzo	2023-04-03T00:00:00	2024-11-06T02:00:00	2	Temperatura media	8.7
81994	7	Sololá	702	San José Chacayá	5	Chacayá	3	Marzo	2023-04-03T00:00:00	2024-11-06T02:00:00	4	Temperatura máxima	9.2
81995	7	Sololá	702	San José Chacayá	5	Chacayá	3	Marzo	2023-04-03T00:00:00	2024-11-06T02:00:00	3	Temperatura mínima	8.6
81996	7	Sololá	702	San José Chacayá	5	Chacayá	3	Marzo	2023-04-03T00:00:00	2024-11-06T02:00:00	5	Humedad	82
81997	7	Sololá	702	San José Chacayá	5	Chacayá	3	Marzo	2023-04-03T00:00:00	2024-11-06T02:00:00	6	Velocidad del viento	6.4
81998	7	Sololá	702	San José Chacayá	5	Chacayá	3	Marzo	2023-04-03T00:00:00	2024-11-06T02:00:00	7	Dirección del viento	6.44
81999	7	Sololá	702	San José Chacayá	5	Chacayá	3	Marzo	2023-04-03T00:00:00	2024-11-06T02:00:00	1	Precipitación	0
82000	7	Sololá	702	San José Chacayá	5	Chacayá	3	Marzo	2023-04-03T00:00:00	2024-11-06T02:00:00	8	Radiación solar	0
82001	7	Sololá	702	San José Chacayá	5	Chacayá	3	Marzo	2023-04-03T00:00:00	2024-11-06T03:00:00	2	Temperatura media	8.2
82002	7	Sololá	702	San José Chacayá	5	Chacayá	3	Marzo	2023-04-03T00:00:00	2024-11-06T03:00:00	4	Temperatura máxima	8.7
82003	7	Sololá	702	San José Chacayá	5	Chacayá	3	Marzo	2023-04-03T00:00:00	2024-11-06T03:00:00	3	Temperatura mínima	8.2
82004	7	Sololá	702	San José Chacayá	5	Chacayá	3	Marzo	2023-04-03T00:00:00	2024-11-06T03:00:00	5	Humedad	82
82005	7	Sololá	702	San José Chacayá	5	Chacayá	3	Marzo	2023-04-03T00:00:00	2024-11-06T03:00:00	6	Velocidad del viento	6.4
82006	7	Sololá	702	San José Chacayá	5	Chacayá	3	Marzo	2023-04-03T00:00:00	2024-11-06T03:00:00	7	Dirección del viento	6.44
82007	7	Sololá	702	San José Chacayá	5	Chacayá	3	Marzo	2023-04-03T00:00:00	2024-11-06T03:00:00	1	Precipitación	0
82008	7	Sololá	702	San José Chacayá	5	Chacayá	3	Marzo	2023-04-03T00:00:00	2024-11-06T03:00:00	8	Radiación solar	0
82009	7	Sololá	702	San José Chacayá	5	Chacayá	3	Marzo	2023-04-03T00:00:00	2024-11-06T04:00:00	2	Temperatura media	7.7
82010	7	Sololá	702	San José Chacayá	5	Chacayá	3	Marzo	2023-04-03T00:00:00	2024-11-06T04:00:00	4	Temperatura máxima	8.2
82011	7	Sololá	702	San José Chacayá	5	Chacayá	3	Marzo	2023-04-03T00:00:00	2024-11-06T04:00:00	3	Temperatura mínima	7.7
82012	7	Sololá	702	San José Chacayá	5	Chacayá	3	Marzo	2023-04-03T00:00:00	2024-11-06T04:00:00	5	Humedad	83
82013	7	Sololá	702	San José Chacayá	5	Chacayá	3	Marzo	2023-04-03T00:00:00	2024-11-06T04:00:00	6	Velocidad del viento	6.4
82014	7	Sololá	702	San José Chacayá	5	Chacayá	3	Marzo	2023-04-03T00:00:00	2024-11-06T04:00:00	7	Dirección del viento	6.44
82015	7	Sololá	702	San José Chacayá	5	Chacayá	3	Marzo	2023-04-03T00:00:00	2024-11-06T04:00:00	1	Precipitación	0
82016	7	Sololá	702	San José Chacayá	5	Chacayá	3	Marzo	2023-04-03T00:00:00	2024-11-06T04:00:00	8	Radiación solar	0
82017	7	Sololá	702	San José Chacayá	5	Chacayá	3	Marzo	2023-04-03T00:00:00	2024-11-06T05:00:00	2	Temperatura media	7.2
82018	7	Sololá	702	San José Chacayá	5	Chacayá	3	Marzo	2023-04-03T00:00:00	2024-11-06T05:00:00	4	Temperatura máxima	8
82019	7	Sololá	702	San José Chacayá	5	Chacayá	3	Marzo	2023-04-03T00:00:00	2024-11-06T05:00:00	3	Temperatura mínima	7.2
82020	7	Sololá	702	San José Chacayá	5	Chacayá	3	Marzo	2023-04-03T00:00:00	2024-11-06T05:00:00	5	Humedad	84
82021	7	Sololá	702	San José Chacayá	5	Chacayá	3	Marzo	2023-04-03T00:00:00	2024-11-06T05:00:00	6	Velocidad del viento	4.8
82022	7	Sololá	702	San José Chacayá	5	Chacayá	3	Marzo	2023-04-03T00:00:00	2024-11-06T05:00:00	7	Dirección del viento	4.83
82023	7	Sololá	702	San José Chacayá	5	Chacayá	3	Marzo	2023-04-03T00:00:00	2024-11-06T05:00:00	1	Precipitación	0
82024	7	Sololá	702	San José Chacayá	5	Chacayá	3	Marzo	2023-04-03T00:00:00	2024-11-06T05:00:00	8	Radiación solar	0
82025	7	Sololá	702	San José Chacayá	5	Chacayá	3	Marzo	2023-04-03T00:00:00	2024-11-06T06:00:00	2	Temperatura media	7.2
82026	7	Sololá	702	San José Chacayá	5	Chacayá	3	Marzo	2023-04-03T00:00:00	2024-11-06T06:00:00	4	Temperatura máxima	7.2
82027	7	Sololá	702	San José Chacayá	5	Chacayá	3	Marzo	2023-04-03T00:00:00	2024-11-06T06:00:00	3	Temperatura mínima	7
82028	7	Sololá	702	San José Chacayá	5	Chacayá	3	Marzo	2023-04-03T00:00:00	2024-11-06T06:00:00	5	Humedad	85
82029	7	Sololá	702	San José Chacayá	5	Chacayá	3	Marzo	2023-04-03T00:00:00	2024-11-06T06:00:00	6	Velocidad del viento	3.2
82030	7	Sololá	702	San José Chacayá	5	Chacayá	3	Marzo	2023-04-03T00:00:00	2024-11-06T06:00:00	7	Dirección del viento	3.22
82031	7	Sololá	702	San José Chacayá	5	Chacayá	3	Marzo	2023-04-03T00:00:00	2024-11-06T06:00:00	1	Precipitación	0
82032	7	Sololá	702	San José Chacayá	5	Chacayá	3	Marzo	2023-04-03T00:00:00	2024-11-06T06:00:00	8	Radiación solar	0
82033	7	Sololá	702	San José Chacayá	5	Chacayá	3	Marzo	2023-04-03T00:00:00	2024-11-06T07:00:00	2	Temperatura media	8.6
82034	7	Sololá	702	San José Chacayá	5	Chacayá	3	Marzo	2023-04-03T00:00:00	2024-11-06T07:00:00	4	Temperatura máxima	8.6
82035	7	Sololá	702	San José Chacayá	5	Chacayá	3	Marzo	2023-04-03T00:00:00	2024-11-06T07:00:00	3	Temperatura mínima	7.1
82036	7	Sololá	702	San José Chacayá	5	Chacayá	3	Marzo	2023-04-03T00:00:00	2024-11-06T07:00:00	5	Humedad	82
82037	7	Sololá	702	San José Chacayá	5	Chacayá	3	Marzo	2023-04-03T00:00:00	2024-11-06T07:00:00	6	Velocidad del viento	4.8
82038	7	Sololá	702	San José Chacayá	5	Chacayá	3	Marzo	2023-04-03T00:00:00	2024-11-06T07:00:00	7	Dirección del viento	4.83
82039	7	Sololá	702	San José Chacayá	5	Chacayá	3	Marzo	2023-04-03T00:00:00	2024-11-06T07:00:00	1	Precipitación	0
82040	7	Sololá	702	San José Chacayá	5	Chacayá	3	Marzo	2023-04-03T00:00:00	2024-11-06T07:00:00	8	Radiación solar	25
82041	7	Sololá	702	San José Chacayá	5	Chacayá	3	Marzo	2023-04-03T00:00:00	2024-11-06T08:00:00	2	Temperatura media	14.2
82042	7	Sololá	702	San José Chacayá	5	Chacayá	3	Marzo	2023-04-03T00:00:00	2024-11-06T08:00:00	4	Temperatura máxima	14.2
82043	7	Sololá	702	San José Chacayá	5	Chacayá	3	Marzo	2023-04-03T00:00:00	2024-11-06T08:00:00	3	Temperatura mínima	8.6
82044	7	Sololá	702	San José Chacayá	5	Chacayá	3	Marzo	2023-04-03T00:00:00	2024-11-06T08:00:00	5	Humedad	71
82045	7	Sololá	702	San José Chacayá	5	Chacayá	3	Marzo	2023-04-03T00:00:00	2024-11-06T08:00:00	6	Velocidad del viento	3.2
82046	7	Sololá	702	San José Chacayá	5	Chacayá	3	Marzo	2023-04-03T00:00:00	2024-11-06T08:00:00	7	Dirección del viento	3.22
82047	7	Sololá	702	San José Chacayá	5	Chacayá	3	Marzo	2023-04-03T00:00:00	2024-11-06T08:00:00	1	Precipitación	0
82048	7	Sololá	702	San José Chacayá	5	Chacayá	3	Marzo	2023-04-03T00:00:00	2024-11-06T08:00:00	8	Radiación solar	179
82049	7	Sololá	702	San José Chacayá	5	Chacayá	3	Marzo	2023-04-03T00:00:00	2024-11-06T09:00:00	2	Temperatura media	20.7
82050	7	Sololá	702	San José Chacayá	5	Chacayá	3	Marzo	2023-04-03T00:00:00	2024-11-06T09:00:00	4	Temperatura máxima	20.7
82051	7	Sololá	702	San José Chacayá	5	Chacayá	3	Marzo	2023-04-03T00:00:00	2024-11-06T09:00:00	3	Temperatura mínima	14.2
82052	7	Sololá	702	San José Chacayá	5	Chacayá	3	Marzo	2023-04-03T00:00:00	2024-11-06T09:00:00	5	Humedad	53
82053	7	Sololá	702	San José Chacayá	5	Chacayá	3	Marzo	2023-04-03T00:00:00	2024-11-06T09:00:00	6	Velocidad del viento	1.6
82054	7	Sololá	702	San José Chacayá	5	Chacayá	3	Marzo	2023-04-03T00:00:00	2024-11-06T09:00:00	7	Dirección del viento	1.61
82055	7	Sololá	702	San José Chacayá	5	Chacayá	3	Marzo	2023-04-03T00:00:00	2024-11-06T09:00:00	1	Precipitación	0
82056	7	Sololá	702	San José Chacayá	5	Chacayá	3	Marzo	2023-04-03T00:00:00	2024-11-06T09:00:00	8	Radiación solar	455
82057	7	Sololá	702	San José Chacayá	5	Chacayá	3	Marzo	2023-04-03T00:00:00	2024-11-06T10:00:00	2	Temperatura media	22
82058	7	Sololá	702	San José Chacayá	5	Chacayá	3	Marzo	2023-04-03T00:00:00	2024-11-06T10:00:00	4	Temperatura máxima	22.1
82059	7	Sololá	702	San José Chacayá	5	Chacayá	3	Marzo	2023-04-03T00:00:00	2024-11-06T10:00:00	3	Temperatura mínima	20.7
82060	7	Sololá	702	San José Chacayá	5	Chacayá	3	Marzo	2023-04-03T00:00:00	2024-11-06T10:00:00	5	Humedad	42
82061	7	Sololá	702	San José Chacayá	5	Chacayá	3	Marzo	2023-04-03T00:00:00	2024-11-06T10:00:00	6	Velocidad del viento	4.8
82062	7	Sololá	702	San José Chacayá	5	Chacayá	3	Marzo	2023-04-03T00:00:00	2024-11-06T10:00:00	7	Dirección del viento	4.83
82063	7	Sololá	702	San José Chacayá	5	Chacayá	3	Marzo	2023-04-03T00:00:00	2024-11-06T10:00:00	1	Precipitación	0
82064	7	Sololá	702	San José Chacayá	5	Chacayá	3	Marzo	2023-04-03T00:00:00	2024-11-06T10:00:00	8	Radiación solar	690
82065	7	Sololá	702	San José Chacayá	5	Chacayá	3	Marzo	2023-04-03T00:00:00	2024-11-06T11:00:00	2	Temperatura media	22.2
82066	7	Sololá	702	San José Chacayá	5	Chacayá	3	Marzo	2023-04-03T00:00:00	2024-11-06T11:00:00	4	Temperatura máxima	23
82067	7	Sololá	702	San José Chacayá	5	Chacayá	3	Marzo	2023-04-03T00:00:00	2024-11-06T11:00:00	3	Temperatura mínima	22
82068	7	Sololá	702	San José Chacayá	5	Chacayá	3	Marzo	2023-04-03T00:00:00	2024-11-06T11:00:00	5	Humedad	35
82069	7	Sololá	702	San José Chacayá	5	Chacayá	3	Marzo	2023-04-03T00:00:00	2024-11-06T11:00:00	6	Velocidad del viento	8
82070	7	Sololá	702	San José Chacayá	5	Chacayá	3	Marzo	2023-04-03T00:00:00	2024-11-06T11:00:00	7	Dirección del viento	8.05
82071	7	Sololá	702	San José Chacayá	5	Chacayá	3	Marzo	2023-04-03T00:00:00	2024-11-06T11:00:00	1	Precipitación	0
82072	7	Sololá	702	San José Chacayá	5	Chacayá	3	Marzo	2023-04-03T00:00:00	2024-11-06T11:00:00	8	Radiación solar	844
82073	7	Sololá	702	San José Chacayá	5	Chacayá	3	Marzo	2023-04-03T00:00:00	2024-11-06T12:00:00	2	Temperatura media	22.7
82074	7	Sololá	702	San José Chacayá	5	Chacayá	3	Marzo	2023-04-03T00:00:00	2024-11-06T12:00:00	4	Temperatura máxima	22.8
82075	7	Sololá	702	San José Chacayá	5	Chacayá	3	Marzo	2023-04-03T00:00:00	2024-11-06T12:00:00	3	Temperatura mínima	22.2
82076	7	Sololá	702	San José Chacayá	5	Chacayá	3	Marzo	2023-04-03T00:00:00	2024-11-06T12:00:00	5	Humedad	44
82077	7	Sololá	702	San José Chacayá	5	Chacayá	3	Marzo	2023-04-03T00:00:00	2024-11-06T12:00:00	6	Velocidad del viento	8
82078	7	Sololá	702	San José Chacayá	5	Chacayá	3	Marzo	2023-04-03T00:00:00	2024-11-06T12:00:00	7	Dirección del viento	8.05
82079	7	Sololá	702	San José Chacayá	5	Chacayá	3	Marzo	2023-04-03T00:00:00	2024-11-06T12:00:00	1	Precipitación	0
82080	7	Sololá	702	San José Chacayá	5	Chacayá	3	Marzo	2023-04-03T00:00:00	2024-11-06T12:00:00	8	Radiación solar	923
82081	7	Sololá	702	San José Chacayá	5	Chacayá	3	Marzo	2023-04-03T00:00:00	2024-11-06T13:00:00	2	Temperatura media	21.3
82082	7	Sololá	702	San José Chacayá	5	Chacayá	3	Marzo	2023-04-03T00:00:00	2024-11-06T13:00:00	4	Temperatura máxima	22.8
82083	7	Sololá	702	San José Chacayá	5	Chacayá	3	Marzo	2023-04-03T00:00:00	2024-11-06T13:00:00	3	Temperatura mínima	21.3
82084	7	Sololá	702	San José Chacayá	5	Chacayá	3	Marzo	2023-04-03T00:00:00	2024-11-06T13:00:00	5	Humedad	62
82085	7	Sololá	702	San José Chacayá	5	Chacayá	3	Marzo	2023-04-03T00:00:00	2024-11-06T13:00:00	6	Velocidad del viento	6.4
82086	7	Sololá	702	San José Chacayá	5	Chacayá	3	Marzo	2023-04-03T00:00:00	2024-11-06T13:00:00	7	Dirección del viento	6.44
82087	7	Sololá	702	San José Chacayá	5	Chacayá	3	Marzo	2023-04-03T00:00:00	2024-11-06T13:00:00	1	Precipitación	0
82088	7	Sololá	702	San José Chacayá	5	Chacayá	3	Marzo	2023-04-03T00:00:00	2024-11-06T13:00:00	8	Radiación solar	948
82089	7	Sololá	702	San José Chacayá	5	Chacayá	3	Marzo	2023-04-03T00:00:00	2024-11-06T14:00:00	2	Temperatura media	21.2
82090	7	Sololá	702	San José Chacayá	5	Chacayá	3	Marzo	2023-04-03T00:00:00	2024-11-06T14:00:00	4	Temperatura máxima	21.3
82091	7	Sololá	702	San José Chacayá	5	Chacayá	3	Marzo	2023-04-03T00:00:00	2024-11-06T14:00:00	3	Temperatura mínima	20.2
82092	7	Sololá	702	San José Chacayá	5	Chacayá	3	Marzo	2023-04-03T00:00:00	2024-11-06T14:00:00	5	Humedad	67
82093	7	Sololá	702	San José Chacayá	5	Chacayá	3	Marzo	2023-04-03T00:00:00	2024-11-06T14:00:00	6	Velocidad del viento	8
82094	7	Sololá	702	San José Chacayá	5	Chacayá	3	Marzo	2023-04-03T00:00:00	2024-11-06T14:00:00	7	Dirección del viento	8.05
82095	7	Sololá	702	San José Chacayá	5	Chacayá	3	Marzo	2023-04-03T00:00:00	2024-11-06T14:00:00	1	Precipitación	0
82096	7	Sololá	702	San José Chacayá	5	Chacayá	3	Marzo	2023-04-03T00:00:00	2024-11-06T14:00:00	8	Radiación solar	894
82097	7	Sololá	702	San José Chacayá	5	Chacayá	3	Marzo	2023-04-03T00:00:00	2024-11-06T15:00:00	2	Temperatura media	21.1
82098	7	Sololá	702	San José Chacayá	5	Chacayá	3	Marzo	2023-04-03T00:00:00	2024-11-06T15:00:00	4	Temperatura máxima	21.4
82099	7	Sololá	702	San José Chacayá	5	Chacayá	3	Marzo	2023-04-03T00:00:00	2024-11-06T15:00:00	3	Temperatura mínima	20.2
82100	7	Sololá	702	San José Chacayá	5	Chacayá	3	Marzo	2023-04-03T00:00:00	2024-11-06T15:00:00	5	Humedad	68
82101	7	Sololá	702	San José Chacayá	5	Chacayá	3	Marzo	2023-04-03T00:00:00	2024-11-06T15:00:00	6	Velocidad del viento	6.4
82102	7	Sololá	702	San José Chacayá	5	Chacayá	3	Marzo	2023-04-03T00:00:00	2024-11-06T15:00:00	7	Dirección del viento	6.44
82103	7	Sololá	702	San José Chacayá	5	Chacayá	3	Marzo	2023-04-03T00:00:00	2024-11-06T15:00:00	1	Precipitación	0
82104	7	Sololá	702	San José Chacayá	5	Chacayá	3	Marzo	2023-04-03T00:00:00	2024-11-06T15:00:00	8	Radiación solar	730
82105	7	Sololá	702	San José Chacayá	5	Chacayá	3	Marzo	2023-04-03T00:00:00	2024-11-06T16:00:00	2	Temperatura media	19.3
82106	7	Sololá	702	San José Chacayá	5	Chacayá	3	Marzo	2023-04-03T00:00:00	2024-11-06T16:00:00	4	Temperatura máxima	21.2
82107	7	Sololá	702	San José Chacayá	5	Chacayá	3	Marzo	2023-04-03T00:00:00	2024-11-06T16:00:00	3	Temperatura mínima	19.2
82108	7	Sololá	702	San José Chacayá	5	Chacayá	3	Marzo	2023-04-03T00:00:00	2024-11-06T16:00:00	5	Humedad	74
82109	7	Sololá	702	San José Chacayá	5	Chacayá	3	Marzo	2023-04-03T00:00:00	2024-11-06T16:00:00	6	Velocidad del viento	8
82110	7	Sololá	702	San José Chacayá	5	Chacayá	3	Marzo	2023-04-03T00:00:00	2024-11-06T16:00:00	7	Dirección del viento	8.05
82111	7	Sololá	702	San José Chacayá	5	Chacayá	3	Marzo	2023-04-03T00:00:00	2024-11-06T16:00:00	1	Precipitación	0
82112	7	Sololá	702	San José Chacayá	5	Chacayá	3	Marzo	2023-04-03T00:00:00	2024-11-06T16:00:00	8	Radiación solar	578
82113	7	Sololá	702	San José Chacayá	5	Chacayá	3	Marzo	2023-04-03T00:00:00	2024-11-06T17:00:00	2	Temperatura media	17.8
82114	7	Sololá	702	San José Chacayá	5	Chacayá	3	Marzo	2023-04-03T00:00:00	2024-11-06T17:00:00	4	Temperatura máxima	19.8
82115	7	Sololá	702	San José Chacayá	5	Chacayá	3	Marzo	2023-04-03T00:00:00	2024-11-06T17:00:00	3	Temperatura mínima	17.8
82116	7	Sololá	702	San José Chacayá	5	Chacayá	3	Marzo	2023-04-03T00:00:00	2024-11-06T17:00:00	5	Humedad	79
82117	7	Sololá	702	San José Chacayá	5	Chacayá	3	Marzo	2023-04-03T00:00:00	2024-11-06T17:00:00	6	Velocidad del viento	4.8
82118	7	Sololá	702	San José Chacayá	5	Chacayá	3	Marzo	2023-04-03T00:00:00	2024-11-06T17:00:00	7	Dirección del viento	4.83
82119	7	Sololá	702	San José Chacayá	5	Chacayá	3	Marzo	2023-04-03T00:00:00	2024-11-06T17:00:00	1	Precipitación	0
82120	7	Sololá	702	San José Chacayá	5	Chacayá	3	Marzo	2023-04-03T00:00:00	2024-11-06T17:00:00	8	Radiación solar	185
82121	7	Sololá	702	San José Chacayá	5	Chacayá	3	Marzo	2023-04-03T00:00:00	2024-11-06T18:00:00	2	Temperatura media	16.1
82122	7	Sololá	702	San José Chacayá	5	Chacayá	3	Marzo	2023-04-03T00:00:00	2024-11-06T18:00:00	4	Temperatura máxima	17.8
82123	7	Sololá	702	San José Chacayá	5	Chacayá	3	Marzo	2023-04-03T00:00:00	2024-11-06T18:00:00	3	Temperatura mínima	16.1
82124	7	Sololá	702	San José Chacayá	5	Chacayá	3	Marzo	2023-04-03T00:00:00	2024-11-06T18:00:00	5	Humedad	83
82125	7	Sololá	702	San José Chacayá	5	Chacayá	3	Marzo	2023-04-03T00:00:00	2024-11-06T18:00:00	6	Velocidad del viento	1.6
82126	7	Sololá	702	San José Chacayá	5	Chacayá	3	Marzo	2023-04-03T00:00:00	2024-11-06T18:00:00	7	Dirección del viento	1.61
82127	7	Sololá	702	San José Chacayá	5	Chacayá	3	Marzo	2023-04-03T00:00:00	2024-11-06T18:00:00	1	Precipitación	0
82128	7	Sololá	702	San José Chacayá	5	Chacayá	3	Marzo	2023-04-03T00:00:00	2024-11-06T18:00:00	8	Radiación solar	43
82129	7	Sololá	702	San José Chacayá	5	Chacayá	3	Marzo	2023-04-03T00:00:00	2024-11-06T19:00:00	2	Temperatura media	14.6
82130	7	Sololá	702	San José Chacayá	5	Chacayá	3	Marzo	2023-04-03T00:00:00	2024-11-06T19:00:00	4	Temperatura máxima	16.1
82131	7	Sololá	702	San José Chacayá	5	Chacayá	3	Marzo	2023-04-03T00:00:00	2024-11-06T19:00:00	3	Temperatura mínima	14.6
82132	7	Sololá	702	San José Chacayá	5	Chacayá	3	Marzo	2023-04-03T00:00:00	2024-11-06T19:00:00	5	Humedad	83
82133	7	Sololá	702	San José Chacayá	5	Chacayá	3	Marzo	2023-04-03T00:00:00	2024-11-06T19:00:00	6	Velocidad del viento	0
82134	7	Sololá	702	San José Chacayá	5	Chacayá	3	Marzo	2023-04-03T00:00:00	2024-11-06T19:00:00	7	Dirección del viento	0
82135	7	Sololá	702	San José Chacayá	5	Chacayá	3	Marzo	2023-04-03T00:00:00	2024-11-06T19:00:00	1	Precipitación	0
82136	7	Sololá	702	San José Chacayá	5	Chacayá	3	Marzo	2023-04-03T00:00:00	2024-11-06T19:00:00	8	Radiación solar	0
82137	7	Sololá	702	San José Chacayá	5	Chacayá	3	Marzo	2023-04-03T00:00:00	2024-11-06T20:00:00	2	Temperatura media	14.6
82138	7	Sololá	702	San José Chacayá	5	Chacayá	3	Marzo	2023-04-03T00:00:00	2024-11-06T20:00:00	4	Temperatura máxima	14.6
82139	7	Sololá	702	San José Chacayá	5	Chacayá	3	Marzo	2023-04-03T00:00:00	2024-11-06T20:00:00	3	Temperatura mínima	14.4
82140	7	Sololá	702	San José Chacayá	5	Chacayá	3	Marzo	2023-04-03T00:00:00	2024-11-06T20:00:00	5	Humedad	84
82141	7	Sololá	702	San José Chacayá	5	Chacayá	3	Marzo	2023-04-03T00:00:00	2024-11-06T20:00:00	6	Velocidad del viento	3.2
82142	7	Sololá	702	San José Chacayá	5	Chacayá	3	Marzo	2023-04-03T00:00:00	2024-11-06T20:00:00	7	Dirección del viento	3.22
82143	7	Sololá	702	San José Chacayá	5	Chacayá	3	Marzo	2023-04-03T00:00:00	2024-11-06T20:00:00	1	Precipitación	0
82144	7	Sololá	702	San José Chacayá	5	Chacayá	3	Marzo	2023-04-03T00:00:00	2024-11-06T20:00:00	8	Radiación solar	0
82145	7	Sololá	702	San José Chacayá	5	Chacayá	3	Marzo	2023-04-03T00:00:00	2024-11-06T21:00:00	2	Temperatura media	14.4
82146	7	Sololá	702	San José Chacayá	5	Chacayá	3	Marzo	2023-04-03T00:00:00	2024-11-06T21:00:00	4	Temperatura máxima	14.7
82147	7	Sololá	702	San José Chacayá	5	Chacayá	3	Marzo	2023-04-03T00:00:00	2024-11-06T21:00:00	3	Temperatura mínima	14.4
82148	7	Sololá	702	San José Chacayá	5	Chacayá	3	Marzo	2023-04-03T00:00:00	2024-11-06T21:00:00	5	Humedad	83
82149	7	Sololá	702	San José Chacayá	5	Chacayá	3	Marzo	2023-04-03T00:00:00	2024-11-06T21:00:00	6	Velocidad del viento	3.2
82150	7	Sololá	702	San José Chacayá	5	Chacayá	3	Marzo	2023-04-03T00:00:00	2024-11-06T21:00:00	7	Dirección del viento	3.22
82151	7	Sololá	702	San José Chacayá	5	Chacayá	3	Marzo	2023-04-03T00:00:00	2024-11-06T21:00:00	1	Precipitación	0
82152	7	Sololá	702	San José Chacayá	5	Chacayá	3	Marzo	2023-04-03T00:00:00	2024-11-06T21:00:00	8	Radiación solar	0
82153	7	Sololá	702	San José Chacayá	5	Chacayá	3	Marzo	2023-04-03T00:00:00	2024-11-06T22:00:00	2	Temperatura media	14
82154	7	Sololá	702	San José Chacayá	5	Chacayá	3	Marzo	2023-04-03T00:00:00	2024-11-06T22:00:00	4	Temperatura máxima	14.6
82155	7	Sololá	702	San José Chacayá	5	Chacayá	3	Marzo	2023-04-03T00:00:00	2024-11-06T22:00:00	3	Temperatura mínima	14
82156	7	Sololá	702	San José Chacayá	5	Chacayá	3	Marzo	2023-04-03T00:00:00	2024-11-06T22:00:00	5	Humedad	83
82157	7	Sololá	702	San José Chacayá	5	Chacayá	3	Marzo	2023-04-03T00:00:00	2024-11-06T22:00:00	6	Velocidad del viento	1.6
82158	7	Sololá	702	San José Chacayá	5	Chacayá	3	Marzo	2023-04-03T00:00:00	2024-11-06T22:00:00	7	Dirección del viento	1.61
82159	7	Sololá	702	San José Chacayá	5	Chacayá	3	Marzo	2023-04-03T00:00:00	2024-11-06T22:00:00	1	Precipitación	0
82160	7	Sololá	702	San José Chacayá	5	Chacayá	3	Marzo	2023-04-03T00:00:00	2024-11-06T22:00:00	8	Radiación solar	0
82161	7	Sololá	702	San José Chacayá	5	Chacayá	3	Marzo	2023-04-03T00:00:00	2024-11-06T23:00:00	2	Temperatura media	13.4
82162	7	Sololá	702	San José Chacayá	5	Chacayá	3	Marzo	2023-04-03T00:00:00	2024-11-06T23:00:00	4	Temperatura máxima	14.1
82163	7	Sololá	702	San José Chacayá	5	Chacayá	3	Marzo	2023-04-03T00:00:00	2024-11-06T23:00:00	3	Temperatura mínima	13.4
82164	7	Sololá	702	San José Chacayá	5	Chacayá	3	Marzo	2023-04-03T00:00:00	2024-11-06T23:00:00	5	Humedad	84
82165	7	Sololá	702	San José Chacayá	5	Chacayá	3	Marzo	2023-04-03T00:00:00	2024-11-06T23:00:00	6	Velocidad del viento	1.6
82166	7	Sololá	702	San José Chacayá	5	Chacayá	3	Marzo	2023-04-03T00:00:00	2024-11-06T23:00:00	7	Dirección del viento	1.61
82167	7	Sololá	702	San José Chacayá	5	Chacayá	3	Marzo	2023-04-03T00:00:00	2024-11-06T23:00:00	1	Precipitación	0
82168	7	Sololá	702	San José Chacayá	5	Chacayá	3	Marzo	2023-04-03T00:00:00	2024-11-06T23:00:00	8	Radiación solar	0
82169	7	Sololá	702	San José Chacayá	5	Chacayá	3	Marzo	2023-05-03T00:00:00	2024-11-06T00:00:00	2	Temperatura media	11.8
82170	7	Sololá	702	San José Chacayá	5	Chacayá	3	Marzo	2023-05-03T00:00:00	2024-11-06T00:00:00	4	Temperatura máxima	13.4
82171	7	Sololá	702	San José Chacayá	5	Chacayá	3	Marzo	2023-05-03T00:00:00	2024-11-06T00:00:00	3	Temperatura mínima	11.8
82172	7	Sololá	702	San José Chacayá	5	Chacayá	3	Marzo	2023-05-03T00:00:00	2024-11-06T00:00:00	5	Humedad	84
82173	7	Sololá	702	San José Chacayá	5	Chacayá	3	Marzo	2023-05-03T00:00:00	2024-11-06T00:00:00	6	Velocidad del viento	3.2
82174	7	Sololá	702	San José Chacayá	5	Chacayá	3	Marzo	2023-05-03T00:00:00	2024-11-06T00:00:00	7	Dirección del viento	3.22
82175	7	Sololá	702	San José Chacayá	5	Chacayá	3	Marzo	2023-05-03T00:00:00	2024-11-06T00:00:00	1	Precipitación	0
82176	7	Sololá	702	San José Chacayá	5	Chacayá	3	Marzo	2023-05-03T00:00:00	2024-11-06T00:00:00	8	Radiación solar	0
82177	7	Sololá	702	San José Chacayá	5	Chacayá	3	Marzo	2023-05-03T00:00:00	2024-11-06T01:00:00	2	Temperatura media	11.3
82178	7	Sololá	702	San José Chacayá	5	Chacayá	3	Marzo	2023-05-03T00:00:00	2024-11-06T01:00:00	4	Temperatura máxima	11.9
82179	7	Sololá	702	San José Chacayá	5	Chacayá	3	Marzo	2023-05-03T00:00:00	2024-11-06T01:00:00	3	Temperatura mínima	11.3
82180	7	Sololá	702	San José Chacayá	5	Chacayá	3	Marzo	2023-05-03T00:00:00	2024-11-06T01:00:00	5	Humedad	84
82181	7	Sololá	702	San José Chacayá	5	Chacayá	3	Marzo	2023-05-03T00:00:00	2024-11-06T01:00:00	6	Velocidad del viento	4.8
82182	7	Sololá	702	San José Chacayá	5	Chacayá	3	Marzo	2023-05-03T00:00:00	2024-11-06T01:00:00	7	Dirección del viento	4.83
82183	7	Sololá	702	San José Chacayá	5	Chacayá	3	Marzo	2023-05-03T00:00:00	2024-11-06T01:00:00	1	Precipitación	0
82184	7	Sololá	702	San José Chacayá	5	Chacayá	3	Marzo	2023-05-03T00:00:00	2024-11-06T01:00:00	8	Radiación solar	0
82185	7	Sololá	702	San José Chacayá	5	Chacayá	3	Marzo	2023-05-03T00:00:00	2024-11-06T02:00:00	2	Temperatura media	10.2
82186	7	Sololá	702	San José Chacayá	5	Chacayá	3	Marzo	2023-05-03T00:00:00	2024-11-06T02:00:00	4	Temperatura máxima	11.3
82187	7	Sololá	702	San José Chacayá	5	Chacayá	3	Marzo	2023-05-03T00:00:00	2024-11-06T02:00:00	3	Temperatura mínima	10.2
82188	7	Sololá	702	San José Chacayá	5	Chacayá	3	Marzo	2023-05-03T00:00:00	2024-11-06T02:00:00	5	Humedad	84
82189	7	Sololá	702	San José Chacayá	5	Chacayá	3	Marzo	2023-05-03T00:00:00	2024-11-06T02:00:00	6	Velocidad del viento	4.8
82190	7	Sololá	702	San José Chacayá	5	Chacayá	3	Marzo	2023-05-03T00:00:00	2024-11-06T02:00:00	7	Dirección del viento	4.83
82191	7	Sololá	702	San José Chacayá	5	Chacayá	3	Marzo	2023-05-03T00:00:00	2024-11-06T02:00:00	1	Precipitación	0
82192	7	Sololá	702	San José Chacayá	5	Chacayá	3	Marzo	2023-05-03T00:00:00	2024-11-06T02:00:00	8	Radiación solar	0
82193	7	Sololá	702	San José Chacayá	5	Chacayá	3	Marzo	2023-05-03T00:00:00	2024-11-06T03:00:00	2	Temperatura media	9.5
82194	7	Sololá	702	San José Chacayá	5	Chacayá	3	Marzo	2023-05-03T00:00:00	2024-11-06T03:00:00	4	Temperatura máxima	10.2
82195	7	Sololá	702	San José Chacayá	5	Chacayá	3	Marzo	2023-05-03T00:00:00	2024-11-06T03:00:00	3	Temperatura mínima	9.5
82196	7	Sololá	702	San José Chacayá	5	Chacayá	3	Marzo	2023-05-03T00:00:00	2024-11-06T03:00:00	5	Humedad	85
82197	7	Sololá	702	San José Chacayá	5	Chacayá	3	Marzo	2023-05-03T00:00:00	2024-11-06T03:00:00	6	Velocidad del viento	4.8
82198	7	Sololá	702	San José Chacayá	5	Chacayá	3	Marzo	2023-05-03T00:00:00	2024-11-06T03:00:00	7	Dirección del viento	4.83
82199	7	Sololá	702	San José Chacayá	5	Chacayá	3	Marzo	2023-05-03T00:00:00	2024-11-06T03:00:00	1	Precipitación	0
82200	7	Sololá	702	San José Chacayá	5	Chacayá	3	Marzo	2023-05-03T00:00:00	2024-11-06T03:00:00	8	Radiación solar	0
82201	7	Sololá	702	San José Chacayá	5	Chacayá	3	Marzo	2023-05-03T00:00:00	2024-11-06T04:00:00	2	Temperatura media	8.8
82202	7	Sololá	702	San José Chacayá	5	Chacayá	3	Marzo	2023-05-03T00:00:00	2024-11-06T04:00:00	4	Temperatura máxima	9.6
82203	7	Sololá	702	San José Chacayá	5	Chacayá	3	Marzo	2023-05-03T00:00:00	2024-11-06T04:00:00	3	Temperatura mínima	8.8
82204	7	Sololá	702	San José Chacayá	5	Chacayá	3	Marzo	2023-05-03T00:00:00	2024-11-06T04:00:00	5	Humedad	85
82205	7	Sololá	702	San José Chacayá	5	Chacayá	3	Marzo	2023-05-03T00:00:00	2024-11-06T04:00:00	6	Velocidad del viento	6.4
82206	7	Sololá	702	San José Chacayá	5	Chacayá	3	Marzo	2023-05-03T00:00:00	2024-11-06T04:00:00	7	Dirección del viento	6.44
82207	7	Sololá	702	San José Chacayá	5	Chacayá	3	Marzo	2023-05-03T00:00:00	2024-11-06T04:00:00	1	Precipitación	0
82208	7	Sololá	702	San José Chacayá	5	Chacayá	3	Marzo	2023-05-03T00:00:00	2024-11-06T04:00:00	8	Radiación solar	0
82209	7	Sololá	702	San José Chacayá	5	Chacayá	3	Marzo	2023-05-03T00:00:00	2024-11-06T05:00:00	2	Temperatura media	8.4
82210	7	Sololá	702	San José Chacayá	5	Chacayá	3	Marzo	2023-05-03T00:00:00	2024-11-06T05:00:00	4	Temperatura máxima	8.9
82211	7	Sololá	702	San José Chacayá	5	Chacayá	3	Marzo	2023-05-03T00:00:00	2024-11-06T05:00:00	3	Temperatura mínima	8.4
82212	7	Sololá	702	San José Chacayá	5	Chacayá	3	Marzo	2023-05-03T00:00:00	2024-11-06T05:00:00	5	Humedad	85
82213	7	Sololá	702	San José Chacayá	5	Chacayá	3	Marzo	2023-05-03T00:00:00	2024-11-06T05:00:00	6	Velocidad del viento	6.4
82214	7	Sololá	702	San José Chacayá	5	Chacayá	3	Marzo	2023-05-03T00:00:00	2024-11-06T05:00:00	7	Dirección del viento	6.44
82215	7	Sololá	702	San José Chacayá	5	Chacayá	3	Marzo	2023-05-03T00:00:00	2024-11-06T05:00:00	1	Precipitación	0
82216	7	Sololá	702	San José Chacayá	5	Chacayá	3	Marzo	2023-05-03T00:00:00	2024-11-06T05:00:00	8	Radiación solar	0
82217	7	Sololá	702	San José Chacayá	5	Chacayá	3	Marzo	2023-05-03T00:00:00	2024-11-06T06:00:00	2	Temperatura media	8
82218	7	Sololá	702	San José Chacayá	5	Chacayá	3	Marzo	2023-05-03T00:00:00	2024-11-06T06:00:00	4	Temperatura máxima	8.4
82219	7	Sololá	702	San José Chacayá	5	Chacayá	3	Marzo	2023-05-03T00:00:00	2024-11-06T06:00:00	3	Temperatura mínima	7.8
82220	7	Sololá	702	San José Chacayá	5	Chacayá	3	Marzo	2023-05-03T00:00:00	2024-11-06T06:00:00	5	Humedad	85
82221	7	Sololá	702	San José Chacayá	5	Chacayá	3	Marzo	2023-05-03T00:00:00	2024-11-06T06:00:00	6	Velocidad del viento	4.8
82222	7	Sololá	702	San José Chacayá	5	Chacayá	3	Marzo	2023-05-03T00:00:00	2024-11-06T06:00:00	7	Dirección del viento	4.83
82223	7	Sololá	702	San José Chacayá	5	Chacayá	3	Marzo	2023-05-03T00:00:00	2024-11-06T06:00:00	1	Precipitación	0
82224	7	Sololá	702	San José Chacayá	5	Chacayá	3	Marzo	2023-05-03T00:00:00	2024-11-06T06:00:00	8	Radiación solar	0
82225	7	Sololá	702	San José Chacayá	5	Chacayá	3	Marzo	2023-05-03T00:00:00	2024-11-06T07:00:00	2	Temperatura media	8.9
82226	7	Sololá	702	San José Chacayá	5	Chacayá	3	Marzo	2023-05-03T00:00:00	2024-11-06T07:00:00	4	Temperatura máxima	8.9
82227	7	Sololá	702	San José Chacayá	5	Chacayá	3	Marzo	2023-05-03T00:00:00	2024-11-06T07:00:00	3	Temperatura mínima	7.8
82228	7	Sololá	702	San José Chacayá	5	Chacayá	3	Marzo	2023-05-03T00:00:00	2024-11-06T07:00:00	5	Humedad	85
82229	7	Sololá	702	San José Chacayá	5	Chacayá	3	Marzo	2023-05-03T00:00:00	2024-11-06T07:00:00	6	Velocidad del viento	4.8
82230	7	Sololá	702	San José Chacayá	5	Chacayá	3	Marzo	2023-05-03T00:00:00	2024-11-06T07:00:00	7	Dirección del viento	4.83
82231	7	Sololá	702	San José Chacayá	5	Chacayá	3	Marzo	2023-05-03T00:00:00	2024-11-06T07:00:00	1	Precipitación	0
82232	7	Sololá	702	San José Chacayá	5	Chacayá	3	Marzo	2023-05-03T00:00:00	2024-11-06T07:00:00	8	Radiación solar	32
82233	7	Sololá	702	San José Chacayá	5	Chacayá	3	Marzo	2023-05-03T00:00:00	2024-11-06T08:00:00	2	Temperatura media	14.6
82234	7	Sololá	702	San José Chacayá	5	Chacayá	3	Marzo	2023-05-03T00:00:00	2024-11-06T08:00:00	4	Temperatura máxima	14.6
82235	7	Sololá	702	San José Chacayá	5	Chacayá	3	Marzo	2023-05-03T00:00:00	2024-11-06T08:00:00	3	Temperatura mínima	8.9
82236	7	Sololá	702	San José Chacayá	5	Chacayá	3	Marzo	2023-05-03T00:00:00	2024-11-06T08:00:00	5	Humedad	73
82237	7	Sololá	702	San José Chacayá	5	Chacayá	3	Marzo	2023-05-03T00:00:00	2024-11-06T08:00:00	6	Velocidad del viento	3.2
82238	7	Sololá	702	San José Chacayá	5	Chacayá	3	Marzo	2023-05-03T00:00:00	2024-11-06T08:00:00	7	Dirección del viento	3.22
82239	7	Sololá	702	San José Chacayá	5	Chacayá	3	Marzo	2023-05-03T00:00:00	2024-11-06T08:00:00	1	Precipitación	0
82240	7	Sololá	702	San José Chacayá	5	Chacayá	3	Marzo	2023-05-03T00:00:00	2024-11-06T08:00:00	8	Radiación solar	193
82241	7	Sololá	702	San José Chacayá	5	Chacayá	3	Marzo	2023-05-03T00:00:00	2024-11-06T09:00:00	2	Temperatura media	21.1
82242	7	Sololá	702	San José Chacayá	5	Chacayá	3	Marzo	2023-05-03T00:00:00	2024-11-06T09:00:00	4	Temperatura máxima	21.1
82243	7	Sololá	702	San José Chacayá	5	Chacayá	3	Marzo	2023-05-03T00:00:00	2024-11-06T09:00:00	3	Temperatura mínima	14.6
82244	7	Sololá	702	San José Chacayá	5	Chacayá	3	Marzo	2023-05-03T00:00:00	2024-11-06T09:00:00	5	Humedad	36
82245	7	Sololá	702	San José Chacayá	5	Chacayá	3	Marzo	2023-05-03T00:00:00	2024-11-06T09:00:00	6	Velocidad del viento	3.2
82246	7	Sololá	702	San José Chacayá	5	Chacayá	3	Marzo	2023-05-03T00:00:00	2024-11-06T09:00:00	7	Dirección del viento	3.22
82247	7	Sololá	702	San José Chacayá	5	Chacayá	3	Marzo	2023-05-03T00:00:00	2024-11-06T09:00:00	1	Precipitación	0
82248	7	Sololá	702	San José Chacayá	5	Chacayá	3	Marzo	2023-05-03T00:00:00	2024-11-06T09:00:00	8	Radiación solar	474
82249	7	Sololá	702	San José Chacayá	5	Chacayá	3	Marzo	2023-05-03T00:00:00	2024-11-06T10:00:00	2	Temperatura media	22.4
82250	7	Sololá	702	San José Chacayá	5	Chacayá	3	Marzo	2023-05-03T00:00:00	2024-11-06T10:00:00	4	Temperatura máxima	22.4
82251	7	Sololá	702	San José Chacayá	5	Chacayá	3	Marzo	2023-05-03T00:00:00	2024-11-06T10:00:00	3	Temperatura mínima	21.1
82252	7	Sololá	702	San José Chacayá	5	Chacayá	3	Marzo	2023-05-03T00:00:00	2024-11-06T10:00:00	5	Humedad	36
82253	7	Sololá	702	San José Chacayá	5	Chacayá	3	Marzo	2023-05-03T00:00:00	2024-11-06T10:00:00	6	Velocidad del viento	4.8
82254	7	Sololá	702	San José Chacayá	5	Chacayá	3	Marzo	2023-05-03T00:00:00	2024-11-06T10:00:00	7	Dirección del viento	4.83
82255	7	Sololá	702	San José Chacayá	5	Chacayá	3	Marzo	2023-05-03T00:00:00	2024-11-06T10:00:00	1	Precipitación	0
82256	7	Sololá	702	San José Chacayá	5	Chacayá	3	Marzo	2023-05-03T00:00:00	2024-11-06T10:00:00	8	Radiación solar	706
82257	7	Sololá	702	San José Chacayá	5	Chacayá	3	Marzo	2023-05-03T00:00:00	2024-11-06T11:00:00	2	Temperatura media	22.9
82258	7	Sololá	702	San José Chacayá	5	Chacayá	3	Marzo	2023-05-03T00:00:00	2024-11-06T11:00:00	4	Temperatura máxima	23.2
82259	7	Sololá	702	San José Chacayá	5	Chacayá	3	Marzo	2023-05-03T00:00:00	2024-11-06T11:00:00	3	Temperatura mínima	22.3
82260	7	Sololá	702	San José Chacayá	5	Chacayá	3	Marzo	2023-05-03T00:00:00	2024-11-06T11:00:00	5	Humedad	37
82261	7	Sololá	702	San José Chacayá	5	Chacayá	3	Marzo	2023-05-03T00:00:00	2024-11-06T11:00:00	6	Velocidad del viento	8
82262	7	Sololá	702	San José Chacayá	5	Chacayá	3	Marzo	2023-05-03T00:00:00	2024-11-06T11:00:00	7	Dirección del viento	8.05
82263	7	Sololá	702	San José Chacayá	5	Chacayá	3	Marzo	2023-05-03T00:00:00	2024-11-06T11:00:00	1	Precipitación	0
82264	7	Sololá	702	San José Chacayá	5	Chacayá	3	Marzo	2023-05-03T00:00:00	2024-11-06T11:00:00	8	Radiación solar	857
82265	7	Sololá	702	San José Chacayá	5	Chacayá	3	Marzo	2023-05-03T00:00:00	2024-11-06T12:00:00	2	Temperatura media	24.2
82266	7	Sololá	702	San José Chacayá	5	Chacayá	3	Marzo	2023-05-03T00:00:00	2024-11-06T12:00:00	4	Temperatura máxima	24.2
82267	7	Sololá	702	San José Chacayá	5	Chacayá	3	Marzo	2023-05-03T00:00:00	2024-11-06T12:00:00	3	Temperatura mínima	22.9
82268	7	Sololá	702	San José Chacayá	5	Chacayá	3	Marzo	2023-05-03T00:00:00	2024-11-06T12:00:00	5	Humedad	39
82269	7	Sololá	702	San José Chacayá	5	Chacayá	3	Marzo	2023-05-03T00:00:00	2024-11-06T12:00:00	6	Velocidad del viento	6.4
82270	7	Sololá	702	San José Chacayá	5	Chacayá	3	Marzo	2023-05-03T00:00:00	2024-11-06T12:00:00	7	Dirección del viento	6.44
82271	7	Sololá	702	San José Chacayá	5	Chacayá	3	Marzo	2023-05-03T00:00:00	2024-11-06T12:00:00	1	Precipitación	0
82272	7	Sololá	702	San José Chacayá	5	Chacayá	3	Marzo	2023-05-03T00:00:00	2024-11-06T12:00:00	8	Radiación solar	941
82273	7	Sololá	702	San José Chacayá	5	Chacayá	3	Marzo	2023-05-03T00:00:00	2024-11-06T13:00:00	2	Temperatura media	22.9
82274	7	Sololá	702	San José Chacayá	5	Chacayá	3	Marzo	2023-05-03T00:00:00	2024-11-06T13:00:00	4	Temperatura máxima	24.4
82275	7	Sololá	702	San José Chacayá	5	Chacayá	3	Marzo	2023-05-03T00:00:00	2024-11-06T13:00:00	3	Temperatura mínima	22.9
82276	7	Sololá	702	San José Chacayá	5	Chacayá	3	Marzo	2023-05-03T00:00:00	2024-11-06T13:00:00	5	Humedad	57
82277	7	Sololá	702	San José Chacayá	5	Chacayá	3	Marzo	2023-05-03T00:00:00	2024-11-06T13:00:00	6	Velocidad del viento	8
82278	7	Sololá	702	San José Chacayá	5	Chacayá	3	Marzo	2023-05-03T00:00:00	2024-11-06T13:00:00	7	Dirección del viento	8.05
82279	7	Sololá	702	San José Chacayá	5	Chacayá	3	Marzo	2023-05-03T00:00:00	2024-11-06T13:00:00	1	Precipitación	0
82280	7	Sololá	702	San José Chacayá	5	Chacayá	3	Marzo	2023-05-03T00:00:00	2024-11-06T13:00:00	8	Radiación solar	1002
82281	7	Sololá	702	San José Chacayá	5	Chacayá	3	Marzo	2023-05-03T00:00:00	2024-11-06T14:00:00	2	Temperatura media	22.2
82282	7	Sololá	702	San José Chacayá	5	Chacayá	3	Marzo	2023-05-03T00:00:00	2024-11-06T14:00:00	4	Temperatura máxima	22.9
82283	7	Sololá	702	San José Chacayá	5	Chacayá	3	Marzo	2023-05-03T00:00:00	2024-11-06T14:00:00	3	Temperatura mínima	22.1
82284	7	Sololá	702	San José Chacayá	5	Chacayá	3	Marzo	2023-05-03T00:00:00	2024-11-06T14:00:00	5	Humedad	62
82285	7	Sololá	702	San José Chacayá	5	Chacayá	3	Marzo	2023-05-03T00:00:00	2024-11-06T14:00:00	6	Velocidad del viento	8
82286	7	Sololá	702	San José Chacayá	5	Chacayá	3	Marzo	2023-05-03T00:00:00	2024-11-06T14:00:00	7	Dirección del viento	8.05
82287	7	Sololá	702	San José Chacayá	5	Chacayá	3	Marzo	2023-05-03T00:00:00	2024-11-06T14:00:00	1	Precipitación	0
82288	7	Sololá	702	San José Chacayá	5	Chacayá	3	Marzo	2023-05-03T00:00:00	2024-11-06T14:00:00	8	Radiación solar	906
82289	7	Sololá	702	San José Chacayá	5	Chacayá	3	Marzo	2023-05-03T00:00:00	2024-11-06T15:00:00	2	Temperatura media	20.1
82290	7	Sololá	702	San José Chacayá	5	Chacayá	3	Marzo	2023-05-03T00:00:00	2024-11-06T15:00:00	4	Temperatura máxima	22.1
82291	7	Sololá	702	San José Chacayá	5	Chacayá	3	Marzo	2023-05-03T00:00:00	2024-11-06T15:00:00	3	Temperatura mínima	19.4
82292	7	Sololá	702	San José Chacayá	5	Chacayá	3	Marzo	2023-05-03T00:00:00	2024-11-06T15:00:00	5	Humedad	75
82293	7	Sololá	702	San José Chacayá	5	Chacayá	3	Marzo	2023-05-03T00:00:00	2024-11-06T15:00:00	6	Velocidad del viento	8
82294	7	Sololá	702	San José Chacayá	5	Chacayá	3	Marzo	2023-05-03T00:00:00	2024-11-06T15:00:00	7	Dirección del viento	8.05
82295	7	Sololá	702	San José Chacayá	5	Chacayá	3	Marzo	2023-05-03T00:00:00	2024-11-06T15:00:00	1	Precipitación	0
82296	7	Sololá	702	San José Chacayá	5	Chacayá	3	Marzo	2023-05-03T00:00:00	2024-11-06T15:00:00	8	Radiación solar	674
82297	7	Sololá	702	San José Chacayá	5	Chacayá	3	Marzo	2023-05-03T00:00:00	2024-11-06T16:00:00	2	Temperatura media	19
82298	7	Sololá	702	San José Chacayá	5	Chacayá	3	Marzo	2023-05-03T00:00:00	2024-11-06T16:00:00	4	Temperatura máxima	20.3
82299	7	Sololá	702	San José Chacayá	5	Chacayá	3	Marzo	2023-05-03T00:00:00	2024-11-06T16:00:00	3	Temperatura mínima	18.9
82300	7	Sololá	702	San José Chacayá	5	Chacayá	3	Marzo	2023-05-03T00:00:00	2024-11-06T16:00:00	5	Humedad	80
82301	7	Sololá	702	San José Chacayá	5	Chacayá	3	Marzo	2023-05-03T00:00:00	2024-11-06T16:00:00	6	Velocidad del viento	4.8
82302	7	Sololá	702	San José Chacayá	5	Chacayá	3	Marzo	2023-05-03T00:00:00	2024-11-06T16:00:00	7	Dirección del viento	4.83
82303	7	Sololá	702	San José Chacayá	5	Chacayá	3	Marzo	2023-05-03T00:00:00	2024-11-06T16:00:00	1	Precipitación	0
82304	7	Sololá	702	San José Chacayá	5	Chacayá	3	Marzo	2023-05-03T00:00:00	2024-11-06T16:00:00	8	Radiación solar	348
82305	7	Sololá	702	San José Chacayá	5	Chacayá	3	Marzo	2023-05-03T00:00:00	2024-11-06T17:00:00	2	Temperatura media	17.8
82306	7	Sololá	702	San José Chacayá	5	Chacayá	3	Marzo	2023-05-03T00:00:00	2024-11-06T17:00:00	4	Temperatura máxima	19.4
82307	7	Sololá	702	San José Chacayá	5	Chacayá	3	Marzo	2023-05-03T00:00:00	2024-11-06T17:00:00	3	Temperatura mínima	17.8
82308	7	Sololá	702	San José Chacayá	5	Chacayá	3	Marzo	2023-05-03T00:00:00	2024-11-06T17:00:00	5	Humedad	81
82309	7	Sololá	702	San José Chacayá	5	Chacayá	3	Marzo	2023-05-03T00:00:00	2024-11-06T17:00:00	6	Velocidad del viento	6.4
82310	7	Sololá	702	San José Chacayá	5	Chacayá	3	Marzo	2023-05-03T00:00:00	2024-11-06T17:00:00	7	Dirección del viento	6.44
82311	7	Sololá	702	San José Chacayá	5	Chacayá	3	Marzo	2023-05-03T00:00:00	2024-11-06T17:00:00	1	Precipitación	0
82312	7	Sololá	702	San José Chacayá	5	Chacayá	3	Marzo	2023-05-03T00:00:00	2024-11-06T17:00:00	8	Radiación solar	209
82313	7	Sololá	702	San José Chacayá	5	Chacayá	3	Marzo	2023-05-03T00:00:00	2024-11-06T18:00:00	2	Temperatura media	16.3
82314	7	Sololá	702	San José Chacayá	5	Chacayá	3	Marzo	2023-05-03T00:00:00	2024-11-06T18:00:00	4	Temperatura máxima	17.8
82315	7	Sololá	702	San José Chacayá	5	Chacayá	3	Marzo	2023-05-03T00:00:00	2024-11-06T18:00:00	3	Temperatura mínima	16.3
82316	7	Sololá	702	San José Chacayá	5	Chacayá	3	Marzo	2023-05-03T00:00:00	2024-11-06T18:00:00	5	Humedad	81
82317	7	Sololá	702	San José Chacayá	5	Chacayá	3	Marzo	2023-05-03T00:00:00	2024-11-06T18:00:00	6	Velocidad del viento	4.8
82318	7	Sololá	702	San José Chacayá	5	Chacayá	3	Marzo	2023-05-03T00:00:00	2024-11-06T18:00:00	7	Dirección del viento	4.83
82319	7	Sololá	702	San José Chacayá	5	Chacayá	3	Marzo	2023-05-03T00:00:00	2024-11-06T18:00:00	1	Precipitación	0
82320	7	Sololá	702	San José Chacayá	5	Chacayá	3	Marzo	2023-05-03T00:00:00	2024-11-06T18:00:00	8	Radiación solar	76
82321	7	Sololá	702	San José Chacayá	5	Chacayá	3	Marzo	2023-05-03T00:00:00	2024-11-06T19:00:00	2	Temperatura media	15.8
82322	7	Sololá	702	San José Chacayá	5	Chacayá	3	Marzo	2023-05-03T00:00:00	2024-11-06T19:00:00	4	Temperatura máxima	16.3
82323	7	Sololá	702	San José Chacayá	5	Chacayá	3	Marzo	2023-05-03T00:00:00	2024-11-06T19:00:00	3	Temperatura mínima	15.8
82324	7	Sololá	702	San José Chacayá	5	Chacayá	3	Marzo	2023-05-03T00:00:00	2024-11-06T19:00:00	5	Humedad	79
82325	7	Sololá	702	San José Chacayá	5	Chacayá	3	Marzo	2023-05-03T00:00:00	2024-11-06T19:00:00	6	Velocidad del viento	1.6
82326	7	Sololá	702	San José Chacayá	5	Chacayá	3	Marzo	2023-05-03T00:00:00	2024-11-06T19:00:00	7	Dirección del viento	1.61
82327	7	Sololá	702	San José Chacayá	5	Chacayá	3	Marzo	2023-05-03T00:00:00	2024-11-06T19:00:00	1	Precipitación	0
82328	7	Sololá	702	San José Chacayá	5	Chacayá	3	Marzo	2023-05-03T00:00:00	2024-11-06T19:00:00	8	Radiación solar	0
82329	7	Sololá	702	San José Chacayá	5	Chacayá	3	Marzo	2023-05-03T00:00:00	2024-11-06T20:00:00	2	Temperatura media	15.6
82330	7	Sololá	702	San José Chacayá	5	Chacayá	3	Marzo	2023-05-03T00:00:00	2024-11-06T20:00:00	4	Temperatura máxima	15.8
82331	7	Sololá	702	San José Chacayá	5	Chacayá	3	Marzo	2023-05-03T00:00:00	2024-11-06T20:00:00	3	Temperatura mínima	15.5
82332	7	Sololá	702	San José Chacayá	5	Chacayá	3	Marzo	2023-05-03T00:00:00	2024-11-06T20:00:00	5	Humedad	79
82333	7	Sololá	702	San José Chacayá	5	Chacayá	3	Marzo	2023-05-03T00:00:00	2024-11-06T20:00:00	6	Velocidad del viento	0
82334	7	Sololá	702	San José Chacayá	5	Chacayá	3	Marzo	2023-05-03T00:00:00	2024-11-06T20:00:00	7	Dirección del viento	0
82335	7	Sololá	702	San José Chacayá	5	Chacayá	3	Marzo	2023-05-03T00:00:00	2024-11-06T20:00:00	1	Precipitación	0
82336	7	Sololá	702	San José Chacayá	5	Chacayá	3	Marzo	2023-05-03T00:00:00	2024-11-06T20:00:00	8	Radiación solar	0
82337	7	Sololá	702	San José Chacayá	5	Chacayá	3	Marzo	2023-05-03T00:00:00	2024-11-06T21:00:00	2	Temperatura media	14.8
82338	7	Sololá	702	San José Chacayá	5	Chacayá	3	Marzo	2023-05-03T00:00:00	2024-11-06T21:00:00	4	Temperatura máxima	15.6
82339	7	Sololá	702	San José Chacayá	5	Chacayá	3	Marzo	2023-05-03T00:00:00	2024-11-06T21:00:00	3	Temperatura mínima	14.7
82340	7	Sololá	702	San José Chacayá	5	Chacayá	3	Marzo	2023-05-03T00:00:00	2024-11-06T21:00:00	5	Humedad	82
82341	7	Sololá	702	San José Chacayá	5	Chacayá	3	Marzo	2023-05-03T00:00:00	2024-11-06T21:00:00	6	Velocidad del viento	1.6
82342	7	Sololá	702	San José Chacayá	5	Chacayá	3	Marzo	2023-05-03T00:00:00	2024-11-06T21:00:00	7	Dirección del viento	1.61
82343	7	Sololá	702	San José Chacayá	5	Chacayá	3	Marzo	2023-05-03T00:00:00	2024-11-06T21:00:00	1	Precipitación	0
82344	7	Sololá	702	San José Chacayá	5	Chacayá	3	Marzo	2023-05-03T00:00:00	2024-11-06T21:00:00	8	Radiación solar	0
82345	7	Sololá	702	San José Chacayá	5	Chacayá	3	Marzo	2023-05-03T00:00:00	2024-11-06T22:00:00	2	Temperatura media	14.2
82346	7	Sololá	702	San José Chacayá	5	Chacayá	3	Marzo	2023-05-03T00:00:00	2024-11-06T22:00:00	4	Temperatura máxima	15.2
82347	7	Sololá	702	San José Chacayá	5	Chacayá	3	Marzo	2023-05-03T00:00:00	2024-11-06T22:00:00	3	Temperatura mínima	14.2
82348	7	Sololá	702	San José Chacayá	5	Chacayá	3	Marzo	2023-05-03T00:00:00	2024-11-06T22:00:00	5	Humedad	81
82349	7	Sololá	702	San José Chacayá	5	Chacayá	3	Marzo	2023-05-03T00:00:00	2024-11-06T22:00:00	6	Velocidad del viento	1.6
82350	7	Sololá	702	San José Chacayá	5	Chacayá	3	Marzo	2023-05-03T00:00:00	2024-11-06T22:00:00	7	Dirección del viento	1.61
82351	7	Sololá	702	San José Chacayá	5	Chacayá	3	Marzo	2023-05-03T00:00:00	2024-11-06T22:00:00	1	Precipitación	0
82352	7	Sololá	702	San José Chacayá	5	Chacayá	3	Marzo	2023-05-03T00:00:00	2024-11-06T22:00:00	8	Radiación solar	0
82353	7	Sololá	702	San José Chacayá	5	Chacayá	3	Marzo	2023-05-03T00:00:00	2024-11-06T23:00:00	2	Temperatura media	11.6
82354	7	Sololá	702	San José Chacayá	5	Chacayá	3	Marzo	2023-05-03T00:00:00	2024-11-06T23:00:00	4	Temperatura máxima	14.2
82355	7	Sololá	702	San José Chacayá	5	Chacayá	3	Marzo	2023-05-03T00:00:00	2024-11-06T23:00:00	3	Temperatura mínima	11.6
82356	7	Sololá	702	San José Chacayá	5	Chacayá	3	Marzo	2023-05-03T00:00:00	2024-11-06T23:00:00	5	Humedad	84
82357	7	Sololá	702	San José Chacayá	5	Chacayá	3	Marzo	2023-05-03T00:00:00	2024-11-06T23:00:00	6	Velocidad del viento	1.6
82358	7	Sololá	702	San José Chacayá	5	Chacayá	3	Marzo	2023-05-03T00:00:00	2024-11-06T23:00:00	7	Dirección del viento	1.61
82359	7	Sololá	702	San José Chacayá	5	Chacayá	3	Marzo	2023-05-03T00:00:00	2024-11-06T23:00:00	1	Precipitación	0
82360	7	Sololá	702	San José Chacayá	5	Chacayá	3	Marzo	2023-05-03T00:00:00	2024-11-06T23:00:00	8	Radiación solar	0
82361	7	Sololá	702	San José Chacayá	5	Chacayá	3	Marzo	2023-06-03T00:00:00	2024-11-06T00:00:00	2	Temperatura media	10.6
82362	7	Sololá	702	San José Chacayá	5	Chacayá	3	Marzo	2023-06-03T00:00:00	2024-11-06T00:00:00	4	Temperatura máxima	11.6
82363	7	Sololá	702	San José Chacayá	5	Chacayá	3	Marzo	2023-06-03T00:00:00	2024-11-06T00:00:00	3	Temperatura mínima	10.6
82364	7	Sololá	702	San José Chacayá	5	Chacayá	3	Marzo	2023-06-03T00:00:00	2024-11-06T00:00:00	5	Humedad	84
82365	7	Sololá	702	San José Chacayá	5	Chacayá	3	Marzo	2023-06-03T00:00:00	2024-11-06T00:00:00	6	Velocidad del viento	1.6
82366	7	Sololá	702	San José Chacayá	5	Chacayá	3	Marzo	2023-06-03T00:00:00	2024-11-06T00:00:00	7	Dirección del viento	1.61
82367	7	Sololá	702	San José Chacayá	5	Chacayá	3	Marzo	2023-06-03T00:00:00	2024-11-06T00:00:00	1	Precipitación	0
82368	7	Sololá	702	San José Chacayá	5	Chacayá	3	Marzo	2023-06-03T00:00:00	2024-11-06T00:00:00	8	Radiación solar	0
82369	7	Sololá	702	San José Chacayá	5	Chacayá	3	Marzo	2023-06-03T00:00:00	2024-11-06T01:00:00	2	Temperatura media	9.8
82370	7	Sololá	702	San José Chacayá	5	Chacayá	3	Marzo	2023-06-03T00:00:00	2024-11-06T01:00:00	4	Temperatura máxima	10.6
82371	7	Sololá	702	San José Chacayá	5	Chacayá	3	Marzo	2023-06-03T00:00:00	2024-11-06T01:00:00	3	Temperatura mínima	9.8
82372	7	Sololá	702	San José Chacayá	5	Chacayá	3	Marzo	2023-06-03T00:00:00	2024-11-06T01:00:00	5	Humedad	85
82373	7	Sololá	702	San José Chacayá	5	Chacayá	3	Marzo	2023-06-03T00:00:00	2024-11-06T01:00:00	6	Velocidad del viento	3.2
82374	7	Sololá	702	San José Chacayá	5	Chacayá	3	Marzo	2023-06-03T00:00:00	2024-11-06T01:00:00	7	Dirección del viento	3.22
82375	7	Sololá	702	San José Chacayá	5	Chacayá	3	Marzo	2023-06-03T00:00:00	2024-11-06T01:00:00	1	Precipitación	0
82376	7	Sololá	702	San José Chacayá	5	Chacayá	3	Marzo	2023-06-03T00:00:00	2024-11-06T01:00:00	8	Radiación solar	0
82377	7	Sololá	702	San José Chacayá	5	Chacayá	3	Marzo	2023-06-03T00:00:00	2024-11-06T02:00:00	2	Temperatura media	8.2
82378	7	Sololá	702	San José Chacayá	5	Chacayá	3	Marzo	2023-06-03T00:00:00	2024-11-06T02:00:00	4	Temperatura máxima	9.8
82379	7	Sololá	702	San José Chacayá	5	Chacayá	3	Marzo	2023-06-03T00:00:00	2024-11-06T02:00:00	3	Temperatura mínima	8.2
82380	7	Sololá	702	San José Chacayá	5	Chacayá	3	Marzo	2023-06-03T00:00:00	2024-11-06T02:00:00	5	Humedad	85
82381	7	Sololá	702	San José Chacayá	5	Chacayá	3	Marzo	2023-06-03T00:00:00	2024-11-06T02:00:00	6	Velocidad del viento	3.2
82382	7	Sololá	702	San José Chacayá	5	Chacayá	3	Marzo	2023-06-03T00:00:00	2024-11-06T02:00:00	7	Dirección del viento	3.22
82383	7	Sololá	702	San José Chacayá	5	Chacayá	3	Marzo	2023-06-03T00:00:00	2024-11-06T02:00:00	1	Precipitación	0
82384	7	Sololá	702	San José Chacayá	5	Chacayá	3	Marzo	2023-06-03T00:00:00	2024-11-06T02:00:00	8	Radiación solar	0
82385	7	Sololá	702	San José Chacayá	5	Chacayá	3	Marzo	2023-06-03T00:00:00	2024-11-06T03:00:00	2	Temperatura media	7.6
82386	7	Sololá	702	San José Chacayá	5	Chacayá	3	Marzo	2023-06-03T00:00:00	2024-11-06T03:00:00	4	Temperatura máxima	8.2
82387	7	Sololá	702	San José Chacayá	5	Chacayá	3	Marzo	2023-06-03T00:00:00	2024-11-06T03:00:00	3	Temperatura mínima	7.6
82388	7	Sololá	702	San José Chacayá	5	Chacayá	3	Marzo	2023-06-03T00:00:00	2024-11-06T03:00:00	5	Humedad	85
82389	7	Sololá	702	San José Chacayá	5	Chacayá	3	Marzo	2023-06-03T00:00:00	2024-11-06T03:00:00	6	Velocidad del viento	3.2
82390	7	Sololá	702	San José Chacayá	5	Chacayá	3	Marzo	2023-06-03T00:00:00	2024-11-06T03:00:00	7	Dirección del viento	3.22
82391	7	Sololá	702	San José Chacayá	5	Chacayá	3	Marzo	2023-06-03T00:00:00	2024-11-06T03:00:00	1	Precipitación	0
82392	7	Sololá	702	San José Chacayá	5	Chacayá	3	Marzo	2023-06-03T00:00:00	2024-11-06T03:00:00	8	Radiación solar	0
82393	7	Sololá	702	San José Chacayá	5	Chacayá	3	Marzo	2023-06-03T00:00:00	2024-11-06T04:00:00	2	Temperatura media	7.1
82394	7	Sololá	702	San José Chacayá	5	Chacayá	3	Marzo	2023-06-03T00:00:00	2024-11-06T04:00:00	4	Temperatura máxima	7.7
82395	7	Sololá	702	San José Chacayá	5	Chacayá	3	Marzo	2023-06-03T00:00:00	2024-11-06T04:00:00	3	Temperatura mínima	7.1
82396	7	Sololá	702	San José Chacayá	5	Chacayá	3	Marzo	2023-06-03T00:00:00	2024-11-06T04:00:00	5	Humedad	85
82397	7	Sololá	702	San José Chacayá	5	Chacayá	3	Marzo	2023-06-03T00:00:00	2024-11-06T04:00:00	6	Velocidad del viento	4.8
82398	7	Sololá	702	San José Chacayá	5	Chacayá	3	Marzo	2023-06-03T00:00:00	2024-11-06T04:00:00	7	Dirección del viento	4.83
82399	7	Sololá	702	San José Chacayá	5	Chacayá	3	Marzo	2023-06-03T00:00:00	2024-11-06T04:00:00	1	Precipitación	0
82400	7	Sololá	702	San José Chacayá	5	Chacayá	3	Marzo	2023-06-03T00:00:00	2024-11-06T04:00:00	8	Radiación solar	0
82401	7	Sololá	702	San José Chacayá	5	Chacayá	3	Marzo	2023-06-03T00:00:00	2024-11-06T05:00:00	2	Temperatura media	7
82402	7	Sololá	702	San José Chacayá	5	Chacayá	3	Marzo	2023-06-03T00:00:00	2024-11-06T05:00:00	4	Temperatura máxima	7.2
82403	7	Sololá	702	San José Chacayá	5	Chacayá	3	Marzo	2023-06-03T00:00:00	2024-11-06T05:00:00	3	Temperatura mínima	6.9
82404	7	Sololá	702	San José Chacayá	5	Chacayá	3	Marzo	2023-06-03T00:00:00	2024-11-06T05:00:00	5	Humedad	85
82405	7	Sololá	702	San José Chacayá	5	Chacayá	3	Marzo	2023-06-03T00:00:00	2024-11-06T05:00:00	6	Velocidad del viento	4.8
82406	7	Sololá	702	San José Chacayá	5	Chacayá	3	Marzo	2023-06-03T00:00:00	2024-11-06T05:00:00	7	Dirección del viento	4.83
82407	7	Sololá	702	San José Chacayá	5	Chacayá	3	Marzo	2023-06-03T00:00:00	2024-11-06T05:00:00	1	Precipitación	0
82408	7	Sololá	702	San José Chacayá	5	Chacayá	3	Marzo	2023-06-03T00:00:00	2024-11-06T05:00:00	8	Radiación solar	0
82409	7	Sololá	702	San José Chacayá	5	Chacayá	3	Marzo	2023-06-03T00:00:00	2024-11-06T06:00:00	2	Temperatura media	6.7
82410	7	Sololá	702	San José Chacayá	5	Chacayá	3	Marzo	2023-06-03T00:00:00	2024-11-06T06:00:00	4	Temperatura máxima	7.1
82411	7	Sololá	702	San José Chacayá	5	Chacayá	3	Marzo	2023-06-03T00:00:00	2024-11-06T06:00:00	3	Temperatura mínima	6.7
82412	7	Sololá	702	San José Chacayá	5	Chacayá	3	Marzo	2023-06-03T00:00:00	2024-11-06T06:00:00	5	Humedad	85
82413	7	Sololá	702	San José Chacayá	5	Chacayá	3	Marzo	2023-06-03T00:00:00	2024-11-06T06:00:00	6	Velocidad del viento	6.4
82414	7	Sololá	702	San José Chacayá	5	Chacayá	3	Marzo	2023-06-03T00:00:00	2024-11-06T06:00:00	7	Dirección del viento	6.44
82415	7	Sololá	702	San José Chacayá	5	Chacayá	3	Marzo	2023-06-03T00:00:00	2024-11-06T06:00:00	1	Precipitación	0
82416	7	Sololá	702	San José Chacayá	5	Chacayá	3	Marzo	2023-06-03T00:00:00	2024-11-06T06:00:00	8	Radiación solar	0
82417	7	Sololá	702	San José Chacayá	5	Chacayá	3	Marzo	2023-06-03T00:00:00	2024-11-06T07:00:00	2	Temperatura media	8
82418	7	Sololá	702	San José Chacayá	5	Chacayá	3	Marzo	2023-06-03T00:00:00	2024-11-06T07:00:00	4	Temperatura máxima	8
82419	7	Sololá	702	San José Chacayá	5	Chacayá	3	Marzo	2023-06-03T00:00:00	2024-11-06T07:00:00	3	Temperatura mínima	6.5
82420	7	Sololá	702	San José Chacayá	5	Chacayá	3	Marzo	2023-06-03T00:00:00	2024-11-06T07:00:00	5	Humedad	84
82421	7	Sololá	702	San José Chacayá	5	Chacayá	3	Marzo	2023-06-03T00:00:00	2024-11-06T07:00:00	6	Velocidad del viento	6.4
82422	7	Sololá	702	San José Chacayá	5	Chacayá	3	Marzo	2023-06-03T00:00:00	2024-11-06T07:00:00	7	Dirección del viento	6.44
82423	7	Sololá	702	San José Chacayá	5	Chacayá	3	Marzo	2023-06-03T00:00:00	2024-11-06T07:00:00	1	Precipitación	0
82424	7	Sololá	702	San José Chacayá	5	Chacayá	3	Marzo	2023-06-03T00:00:00	2024-11-06T07:00:00	8	Radiación solar	29
82425	7	Sololá	702	San José Chacayá	5	Chacayá	3	Marzo	2023-06-03T00:00:00	2024-11-06T08:00:00	2	Temperatura media	13.7
82426	7	Sololá	702	San José Chacayá	5	Chacayá	3	Marzo	2023-06-03T00:00:00	2024-11-06T08:00:00	4	Temperatura máxima	13.7
82427	7	Sololá	702	San José Chacayá	5	Chacayá	3	Marzo	2023-06-03T00:00:00	2024-11-06T08:00:00	3	Temperatura mínima	8.1
82428	7	Sololá	702	San José Chacayá	5	Chacayá	3	Marzo	2023-06-03T00:00:00	2024-11-06T08:00:00	5	Humedad	72
82429	7	Sololá	702	San José Chacayá	5	Chacayá	3	Marzo	2023-06-03T00:00:00	2024-11-06T08:00:00	6	Velocidad del viento	3.2
82430	7	Sololá	702	San José Chacayá	5	Chacayá	3	Marzo	2023-06-03T00:00:00	2024-11-06T08:00:00	7	Dirección del viento	3.22
82431	7	Sololá	702	San José Chacayá	5	Chacayá	3	Marzo	2023-06-03T00:00:00	2024-11-06T08:00:00	1	Precipitación	0
82432	7	Sololá	702	San José Chacayá	5	Chacayá	3	Marzo	2023-06-03T00:00:00	2024-11-06T08:00:00	8	Radiación solar	187
82433	7	Sololá	702	San José Chacayá	5	Chacayá	3	Marzo	2023-06-03T00:00:00	2024-11-06T09:00:00	2	Temperatura media	18.7
82434	7	Sololá	702	San José Chacayá	5	Chacayá	3	Marzo	2023-06-03T00:00:00	2024-11-06T09:00:00	4	Temperatura máxima	18.7
82435	7	Sololá	702	San José Chacayá	5	Chacayá	3	Marzo	2023-06-03T00:00:00	2024-11-06T09:00:00	3	Temperatura mínima	13.8
82436	7	Sololá	702	San José Chacayá	5	Chacayá	3	Marzo	2023-06-03T00:00:00	2024-11-06T09:00:00	5	Humedad	55
82437	7	Sololá	702	San José Chacayá	5	Chacayá	3	Marzo	2023-06-03T00:00:00	2024-11-06T09:00:00	6	Velocidad del viento	3.2
82438	7	Sololá	702	San José Chacayá	5	Chacayá	3	Marzo	2023-06-03T00:00:00	2024-11-06T09:00:00	7	Dirección del viento	3.22
82439	7	Sololá	702	San José Chacayá	5	Chacayá	3	Marzo	2023-06-03T00:00:00	2024-11-06T09:00:00	1	Precipitación	0
82440	7	Sololá	702	San José Chacayá	5	Chacayá	3	Marzo	2023-06-03T00:00:00	2024-11-06T09:00:00	8	Radiación solar	459
82441	7	Sololá	702	San José Chacayá	5	Chacayá	3	Marzo	2023-06-03T00:00:00	2024-11-06T10:00:00	2	Temperatura media	20.2
82442	7	Sololá	702	San José Chacayá	5	Chacayá	3	Marzo	2023-06-03T00:00:00	2024-11-06T10:00:00	4	Temperatura máxima	20.3
82443	7	Sololá	702	San José Chacayá	5	Chacayá	3	Marzo	2023-06-03T00:00:00	2024-11-06T10:00:00	3	Temperatura mínima	18.7
82444	7	Sololá	702	San José Chacayá	5	Chacayá	3	Marzo	2023-06-03T00:00:00	2024-11-06T10:00:00	5	Humedad	56
82445	7	Sololá	702	San José Chacayá	5	Chacayá	3	Marzo	2023-06-03T00:00:00	2024-11-06T10:00:00	6	Velocidad del viento	3.2
82446	7	Sololá	702	San José Chacayá	5	Chacayá	3	Marzo	2023-06-03T00:00:00	2024-11-06T10:00:00	7	Dirección del viento	3.22
82447	7	Sololá	702	San José Chacayá	5	Chacayá	3	Marzo	2023-06-03T00:00:00	2024-11-06T10:00:00	1	Precipitación	3.8
82448	7	Sololá	702	San José Chacayá	5	Chacayá	3	Marzo	2023-06-03T00:00:00	2024-11-06T10:00:00	8	Radiación solar	669
82449	7	Sololá	702	San José Chacayá	5	Chacayá	3	Marzo	2023-06-03T00:00:00	2024-11-06T11:00:00	2	Temperatura media	21.8
82450	7	Sololá	702	San José Chacayá	5	Chacayá	3	Marzo	2023-06-03T00:00:00	2024-11-06T11:00:00	4	Temperatura máxima	21.8
82451	7	Sololá	702	San José Chacayá	5	Chacayá	3	Marzo	2023-06-03T00:00:00	2024-11-06T11:00:00	3	Temperatura mínima	20.5
82452	7	Sololá	702	San José Chacayá	5	Chacayá	3	Marzo	2023-06-03T00:00:00	2024-11-06T11:00:00	5	Humedad	46
82453	7	Sololá	702	San José Chacayá	5	Chacayá	3	Marzo	2023-06-03T00:00:00	2024-11-06T11:00:00	6	Velocidad del viento	4.8
82454	7	Sololá	702	San José Chacayá	5	Chacayá	3	Marzo	2023-06-03T00:00:00	2024-11-06T11:00:00	7	Dirección del viento	4.83
82455	7	Sololá	702	San José Chacayá	5	Chacayá	3	Marzo	2023-06-03T00:00:00	2024-11-06T11:00:00	1	Precipitación	0
82456	7	Sololá	702	San José Chacayá	5	Chacayá	3	Marzo	2023-06-03T00:00:00	2024-11-06T11:00:00	8	Radiación solar	768
82457	7	Sololá	702	San José Chacayá	5	Chacayá	3	Marzo	2023-06-03T00:00:00	2024-11-06T12:00:00	2	Temperatura media	22.4
82458	7	Sololá	702	San José Chacayá	5	Chacayá	3	Marzo	2023-06-03T00:00:00	2024-11-06T12:00:00	4	Temperatura máxima	22.6
82459	7	Sololá	702	San José Chacayá	5	Chacayá	3	Marzo	2023-06-03T00:00:00	2024-11-06T12:00:00	3	Temperatura mínima	21.9
82460	7	Sololá	702	San José Chacayá	5	Chacayá	3	Marzo	2023-06-03T00:00:00	2024-11-06T12:00:00	5	Humedad	50
82461	7	Sololá	702	San José Chacayá	5	Chacayá	3	Marzo	2023-06-03T00:00:00	2024-11-06T12:00:00	6	Velocidad del viento	9.7
82462	7	Sololá	702	San José Chacayá	5	Chacayá	3	Marzo	2023-06-03T00:00:00	2024-11-06T12:00:00	7	Dirección del viento	9.66
82463	7	Sololá	702	San José Chacayá	5	Chacayá	3	Marzo	2023-06-03T00:00:00	2024-11-06T12:00:00	1	Precipitación	0
82464	7	Sololá	702	San José Chacayá	5	Chacayá	3	Marzo	2023-06-03T00:00:00	2024-11-06T12:00:00	8	Radiación solar	929
82465	7	Sololá	702	San José Chacayá	5	Chacayá	3	Marzo	2023-06-03T00:00:00	2024-11-06T13:00:00	2	Temperatura media	21.9
82466	7	Sololá	702	San José Chacayá	5	Chacayá	3	Marzo	2023-06-03T00:00:00	2024-11-06T13:00:00	4	Temperatura máxima	22.8
82467	7	Sololá	702	San José Chacayá	5	Chacayá	3	Marzo	2023-06-03T00:00:00	2024-11-06T13:00:00	3	Temperatura mínima	21.8
82468	7	Sololá	702	San José Chacayá	5	Chacayá	3	Marzo	2023-06-03T00:00:00	2024-11-06T13:00:00	5	Humedad	61
82469	7	Sololá	702	San José Chacayá	5	Chacayá	3	Marzo	2023-06-03T00:00:00	2024-11-06T13:00:00	6	Velocidad del viento	6.4
82470	7	Sololá	702	San José Chacayá	5	Chacayá	3	Marzo	2023-06-03T00:00:00	2024-11-06T13:00:00	7	Dirección del viento	6.44
82471	7	Sololá	702	San José Chacayá	5	Chacayá	3	Marzo	2023-06-03T00:00:00	2024-11-06T13:00:00	1	Precipitación	0
82472	7	Sololá	702	San José Chacayá	5	Chacayá	3	Marzo	2023-06-03T00:00:00	2024-11-06T13:00:00	8	Radiación solar	955
82473	7	Sololá	702	San José Chacayá	5	Chacayá	3	Marzo	2023-06-03T00:00:00	2024-11-06T14:00:00	2	Temperatura media	21.5
82474	7	Sololá	702	San José Chacayá	5	Chacayá	3	Marzo	2023-06-03T00:00:00	2024-11-06T14:00:00	4	Temperatura máxima	22.3
82475	7	Sololá	702	San José Chacayá	5	Chacayá	3	Marzo	2023-06-03T00:00:00	2024-11-06T14:00:00	3	Temperatura mínima	21.5
82476	7	Sololá	702	San José Chacayá	5	Chacayá	3	Marzo	2023-06-03T00:00:00	2024-11-06T14:00:00	5	Humedad	64
82477	7	Sololá	702	San José Chacayá	5	Chacayá	3	Marzo	2023-06-03T00:00:00	2024-11-06T14:00:00	6	Velocidad del viento	8
82478	7	Sololá	702	San José Chacayá	5	Chacayá	3	Marzo	2023-06-03T00:00:00	2024-11-06T14:00:00	7	Dirección del viento	8.05
82479	7	Sololá	702	San José Chacayá	5	Chacayá	3	Marzo	2023-06-03T00:00:00	2024-11-06T14:00:00	1	Precipitación	0
82480	7	Sololá	702	San José Chacayá	5	Chacayá	3	Marzo	2023-06-03T00:00:00	2024-11-06T14:00:00	8	Radiación solar	905
82481	7	Sololá	702	San José Chacayá	5	Chacayá	3	Marzo	2023-06-03T00:00:00	2024-11-06T15:00:00	2	Temperatura media	19.6
82482	7	Sololá	702	San José Chacayá	5	Chacayá	3	Marzo	2023-06-03T00:00:00	2024-11-06T15:00:00	4	Temperatura máxima	21.8
82483	7	Sololá	702	San José Chacayá	5	Chacayá	3	Marzo	2023-06-03T00:00:00	2024-11-06T15:00:00	3	Temperatura mínima	19.5
82484	7	Sololá	702	San José Chacayá	5	Chacayá	3	Marzo	2023-06-03T00:00:00	2024-11-06T15:00:00	5	Humedad	73
82485	7	Sololá	702	San José Chacayá	5	Chacayá	3	Marzo	2023-06-03T00:00:00	2024-11-06T15:00:00	6	Velocidad del viento	8
82486	7	Sololá	702	San José Chacayá	5	Chacayá	3	Marzo	2023-06-03T00:00:00	2024-11-06T15:00:00	7	Dirección del viento	8.05
82487	7	Sololá	702	San José Chacayá	5	Chacayá	3	Marzo	2023-06-03T00:00:00	2024-11-06T15:00:00	1	Precipitación	0
82488	7	Sololá	702	San José Chacayá	5	Chacayá	3	Marzo	2023-06-03T00:00:00	2024-11-06T15:00:00	8	Radiación solar	757
82489	7	Sololá	702	San José Chacayá	5	Chacayá	3	Marzo	2023-06-03T00:00:00	2024-11-06T16:00:00	2	Temperatura media	19.2
82490	7	Sololá	702	San José Chacayá	5	Chacayá	3	Marzo	2023-06-03T00:00:00	2024-11-06T16:00:00	4	Temperatura máxima	19.9
82491	7	Sololá	702	San José Chacayá	5	Chacayá	3	Marzo	2023-06-03T00:00:00	2024-11-06T16:00:00	3	Temperatura mínima	19.2
82492	7	Sololá	702	San José Chacayá	5	Chacayá	3	Marzo	2023-06-03T00:00:00	2024-11-06T16:00:00	5	Humedad	74
82493	7	Sololá	702	San José Chacayá	5	Chacayá	3	Marzo	2023-06-03T00:00:00	2024-11-06T16:00:00	6	Velocidad del viento	6.4
82494	7	Sololá	702	San José Chacayá	5	Chacayá	3	Marzo	2023-06-03T00:00:00	2024-11-06T16:00:00	7	Dirección del viento	6.44
82495	7	Sololá	702	San José Chacayá	5	Chacayá	3	Marzo	2023-06-03T00:00:00	2024-11-06T16:00:00	1	Precipitación	0
82496	7	Sololá	702	San José Chacayá	5	Chacayá	3	Marzo	2023-06-03T00:00:00	2024-11-06T16:00:00	8	Radiación solar	553
82497	7	Sololá	702	San José Chacayá	5	Chacayá	3	Marzo	2023-06-03T00:00:00	2024-11-06T17:00:00	2	Temperatura media	17.4
82498	7	Sololá	702	San José Chacayá	5	Chacayá	3	Marzo	2023-06-03T00:00:00	2024-11-06T17:00:00	4	Temperatura máxima	19.2
82499	7	Sololá	702	San José Chacayá	5	Chacayá	3	Marzo	2023-06-03T00:00:00	2024-11-06T17:00:00	3	Temperatura mínima	17.4
82500	7	Sololá	702	San José Chacayá	5	Chacayá	3	Marzo	2023-06-03T00:00:00	2024-11-06T17:00:00	5	Humedad	80
82501	7	Sololá	702	San José Chacayá	5	Chacayá	3	Marzo	2023-06-03T00:00:00	2024-11-06T17:00:00	6	Velocidad del viento	8
82502	7	Sololá	702	San José Chacayá	5	Chacayá	3	Marzo	2023-06-03T00:00:00	2024-11-06T17:00:00	7	Dirección del viento	8.05
82503	7	Sololá	702	San José Chacayá	5	Chacayá	3	Marzo	2023-06-03T00:00:00	2024-11-06T17:00:00	1	Precipitación	0
82504	7	Sololá	702	San José Chacayá	5	Chacayá	3	Marzo	2023-06-03T00:00:00	2024-11-06T17:00:00	8	Radiación solar	310
82505	7	Sololá	702	San José Chacayá	5	Chacayá	3	Marzo	2023-06-03T00:00:00	2024-11-06T18:00:00	2	Temperatura media	16.6
82506	7	Sololá	702	San José Chacayá	5	Chacayá	3	Marzo	2023-06-03T00:00:00	2024-11-06T18:00:00	4	Temperatura máxima	17.4
82507	7	Sololá	702	San José Chacayá	5	Chacayá	3	Marzo	2023-06-03T00:00:00	2024-11-06T18:00:00	3	Temperatura mínima	16.6
82508	7	Sololá	702	San José Chacayá	5	Chacayá	3	Marzo	2023-06-03T00:00:00	2024-11-06T18:00:00	5	Humedad	83
82509	7	Sololá	702	San José Chacayá	5	Chacayá	3	Marzo	2023-06-03T00:00:00	2024-11-06T18:00:00	6	Velocidad del viento	3.2
82510	7	Sololá	702	San José Chacayá	5	Chacayá	3	Marzo	2023-06-03T00:00:00	2024-11-06T18:00:00	7	Dirección del viento	3.22
82511	7	Sololá	702	San José Chacayá	5	Chacayá	3	Marzo	2023-06-03T00:00:00	2024-11-06T18:00:00	1	Precipitación	0
82512	7	Sololá	702	San José Chacayá	5	Chacayá	3	Marzo	2023-06-03T00:00:00	2024-11-06T18:00:00	8	Radiación solar	56
82513	7	Sololá	702	San José Chacayá	5	Chacayá	3	Marzo	2023-06-03T00:00:00	2024-11-06T19:00:00	2	Temperatura media	15.5
82514	7	Sololá	702	San José Chacayá	5	Chacayá	3	Marzo	2023-06-03T00:00:00	2024-11-06T19:00:00	4	Temperatura máxima	16.6
82515	7	Sololá	702	San José Chacayá	5	Chacayá	3	Marzo	2023-06-03T00:00:00	2024-11-06T19:00:00	3	Temperatura mínima	15.5
82516	7	Sololá	702	San José Chacayá	5	Chacayá	3	Marzo	2023-06-03T00:00:00	2024-11-06T19:00:00	5	Humedad	82
82517	7	Sololá	702	San José Chacayá	5	Chacayá	3	Marzo	2023-06-03T00:00:00	2024-11-06T19:00:00	6	Velocidad del viento	0
82518	7	Sololá	702	San José Chacayá	5	Chacayá	3	Marzo	2023-06-03T00:00:00	2024-11-06T19:00:00	7	Dirección del viento	0
82519	7	Sololá	702	San José Chacayá	5	Chacayá	3	Marzo	2023-06-03T00:00:00	2024-11-06T19:00:00	1	Precipitación	0
82520	7	Sololá	702	San José Chacayá	5	Chacayá	3	Marzo	2023-06-03T00:00:00	2024-11-06T19:00:00	8	Radiación solar	0
82521	7	Sololá	702	San José Chacayá	5	Chacayá	3	Marzo	2023-06-03T00:00:00	2024-11-06T20:00:00	2	Temperatura media	14
82522	7	Sololá	702	San José Chacayá	5	Chacayá	3	Marzo	2023-06-03T00:00:00	2024-11-06T20:00:00	4	Temperatura máxima	15.6
82523	7	Sololá	702	San José Chacayá	5	Chacayá	3	Marzo	2023-06-03T00:00:00	2024-11-06T20:00:00	3	Temperatura mínima	14
82524	7	Sololá	702	San José Chacayá	5	Chacayá	3	Marzo	2023-06-03T00:00:00	2024-11-06T20:00:00	5	Humedad	83
82525	7	Sololá	702	San José Chacayá	5	Chacayá	3	Marzo	2023-06-03T00:00:00	2024-11-06T20:00:00	6	Velocidad del viento	0
82526	7	Sololá	702	San José Chacayá	5	Chacayá	3	Marzo	2023-06-03T00:00:00	2024-11-06T20:00:00	7	Dirección del viento	0
82527	7	Sololá	702	San José Chacayá	5	Chacayá	3	Marzo	2023-06-03T00:00:00	2024-11-06T20:00:00	1	Precipitación	0
82528	7	Sololá	702	San José Chacayá	5	Chacayá	3	Marzo	2023-06-03T00:00:00	2024-11-06T20:00:00	8	Radiación solar	0
82529	7	Sololá	702	San José Chacayá	5	Chacayá	3	Marzo	2023-06-03T00:00:00	2024-11-06T21:00:00	2	Temperatura media	13.8
82530	7	Sololá	702	San José Chacayá	5	Chacayá	3	Marzo	2023-06-03T00:00:00	2024-11-06T21:00:00	4	Temperatura máxima	14.5
82531	7	Sololá	702	San José Chacayá	5	Chacayá	3	Marzo	2023-06-03T00:00:00	2024-11-06T21:00:00	3	Temperatura mínima	13.7
82532	7	Sololá	702	San José Chacayá	5	Chacayá	3	Marzo	2023-06-03T00:00:00	2024-11-06T21:00:00	5	Humedad	80
82533	7	Sololá	702	San José Chacayá	5	Chacayá	3	Marzo	2023-06-03T00:00:00	2024-11-06T21:00:00	6	Velocidad del viento	1.6
82534	7	Sololá	702	San José Chacayá	5	Chacayá	3	Marzo	2023-06-03T00:00:00	2024-11-06T21:00:00	7	Dirección del viento	1.61
82535	7	Sololá	702	San José Chacayá	5	Chacayá	3	Marzo	2023-06-03T00:00:00	2024-11-06T21:00:00	1	Precipitación	0
82536	7	Sololá	702	San José Chacayá	5	Chacayá	3	Marzo	2023-06-03T00:00:00	2024-11-06T21:00:00	8	Radiación solar	0
82537	7	Sololá	702	San José Chacayá	5	Chacayá	3	Marzo	2023-06-03T00:00:00	2024-11-06T22:00:00	2	Temperatura media	11
82538	7	Sololá	702	San José Chacayá	5	Chacayá	3	Marzo	2023-06-03T00:00:00	2024-11-06T22:00:00	4	Temperatura máxima	13.8
82539	7	Sololá	702	San José Chacayá	5	Chacayá	3	Marzo	2023-06-03T00:00:00	2024-11-06T22:00:00	3	Temperatura mínima	11
82540	7	Sololá	702	San José Chacayá	5	Chacayá	3	Marzo	2023-06-03T00:00:00	2024-11-06T22:00:00	5	Humedad	84
82541	7	Sololá	702	San José Chacayá	5	Chacayá	3	Marzo	2023-06-03T00:00:00	2024-11-06T22:00:00	6	Velocidad del viento	1.6
82542	7	Sololá	702	San José Chacayá	5	Chacayá	3	Marzo	2023-06-03T00:00:00	2024-11-06T22:00:00	7	Dirección del viento	1.61
82543	7	Sololá	702	San José Chacayá	5	Chacayá	3	Marzo	2023-06-03T00:00:00	2024-11-06T22:00:00	1	Precipitación	0
82544	7	Sololá	702	San José Chacayá	5	Chacayá	3	Marzo	2023-06-03T00:00:00	2024-11-06T22:00:00	8	Radiación solar	0
82545	7	Sololá	702	San José Chacayá	5	Chacayá	3	Marzo	2023-06-03T00:00:00	2024-11-06T23:00:00	2	Temperatura media	10
82546	7	Sololá	702	San José Chacayá	5	Chacayá	3	Marzo	2023-06-03T00:00:00	2024-11-06T23:00:00	4	Temperatura máxima	11
82547	7	Sololá	702	San José Chacayá	5	Chacayá	3	Marzo	2023-06-03T00:00:00	2024-11-06T23:00:00	3	Temperatura mínima	10
82548	7	Sololá	702	San José Chacayá	5	Chacayá	3	Marzo	2023-06-03T00:00:00	2024-11-06T23:00:00	5	Humedad	84
82549	7	Sololá	702	San José Chacayá	5	Chacayá	3	Marzo	2023-06-03T00:00:00	2024-11-06T23:00:00	6	Velocidad del viento	3.2
82550	7	Sololá	702	San José Chacayá	5	Chacayá	3	Marzo	2023-06-03T00:00:00	2024-11-06T23:00:00	7	Dirección del viento	3.22
82551	7	Sololá	702	San José Chacayá	5	Chacayá	3	Marzo	2023-06-03T00:00:00	2024-11-06T23:00:00	1	Precipitación	0
82552	7	Sololá	702	San José Chacayá	5	Chacayá	3	Marzo	2023-06-03T00:00:00	2024-11-06T23:00:00	8	Radiación solar	0
82553	7	Sololá	702	San José Chacayá	5	Chacayá	3	Marzo	2023-07-03T00:00:00	2024-11-06T00:00:00	2	Temperatura media	8.9
82554	7	Sololá	702	San José Chacayá	5	Chacayá	3	Marzo	2023-07-03T00:00:00	2024-11-06T00:00:00	4	Temperatura máxima	10
82555	7	Sololá	702	San José Chacayá	5	Chacayá	3	Marzo	2023-07-03T00:00:00	2024-11-06T00:00:00	3	Temperatura mínima	8.9
82556	7	Sololá	702	San José Chacayá	5	Chacayá	3	Marzo	2023-07-03T00:00:00	2024-11-06T00:00:00	5	Humedad	85
82557	7	Sololá	702	San José Chacayá	5	Chacayá	3	Marzo	2023-07-03T00:00:00	2024-11-06T00:00:00	6	Velocidad del viento	1.6
82558	7	Sololá	702	San José Chacayá	5	Chacayá	3	Marzo	2023-07-03T00:00:00	2024-11-06T00:00:00	7	Dirección del viento	1.61
82559	7	Sololá	702	San José Chacayá	5	Chacayá	3	Marzo	2023-07-03T00:00:00	2024-11-06T00:00:00	1	Precipitación	0
82560	7	Sololá	702	San José Chacayá	5	Chacayá	3	Marzo	2023-07-03T00:00:00	2024-11-06T00:00:00	8	Radiación solar	0
82561	7	Sololá	702	San José Chacayá	5	Chacayá	3	Marzo	2023-07-03T00:00:00	2024-11-06T01:00:00	2	Temperatura media	7.8
82562	7	Sololá	702	San José Chacayá	5	Chacayá	3	Marzo	2023-07-03T00:00:00	2024-11-06T01:00:00	4	Temperatura máxima	8.9
82563	7	Sololá	702	San José Chacayá	5	Chacayá	3	Marzo	2023-07-03T00:00:00	2024-11-06T01:00:00	3	Temperatura mínima	7.8
82564	7	Sololá	702	San José Chacayá	5	Chacayá	3	Marzo	2023-07-03T00:00:00	2024-11-06T01:00:00	5	Humedad	85
82565	7	Sololá	702	San José Chacayá	5	Chacayá	3	Marzo	2023-07-03T00:00:00	2024-11-06T01:00:00	6	Velocidad del viento	3.2
82566	7	Sololá	702	San José Chacayá	5	Chacayá	3	Marzo	2023-07-03T00:00:00	2024-11-06T01:00:00	7	Dirección del viento	3.22
82567	7	Sololá	702	San José Chacayá	5	Chacayá	3	Marzo	2023-07-03T00:00:00	2024-11-06T01:00:00	1	Precipitación	0
82568	7	Sololá	702	San José Chacayá	5	Chacayá	3	Marzo	2023-07-03T00:00:00	2024-11-06T01:00:00	8	Radiación solar	0
82569	7	Sololá	702	San José Chacayá	5	Chacayá	3	Marzo	2023-07-03T00:00:00	2024-11-06T02:00:00	2	Temperatura media	7.6
82570	7	Sololá	702	San José Chacayá	5	Chacayá	3	Marzo	2023-07-03T00:00:00	2024-11-06T02:00:00	4	Temperatura máxima	7.8
82571	7	Sololá	702	San José Chacayá	5	Chacayá	3	Marzo	2023-07-03T00:00:00	2024-11-06T02:00:00	3	Temperatura mínima	7.5
82572	7	Sololá	702	San José Chacayá	5	Chacayá	3	Marzo	2023-07-03T00:00:00	2024-11-06T02:00:00	5	Humedad	85
82573	7	Sololá	702	San José Chacayá	5	Chacayá	3	Marzo	2023-07-03T00:00:00	2024-11-06T02:00:00	6	Velocidad del viento	3.2
82574	7	Sololá	702	San José Chacayá	5	Chacayá	3	Marzo	2023-07-03T00:00:00	2024-11-06T02:00:00	7	Dirección del viento	3.22
82575	7	Sololá	702	San José Chacayá	5	Chacayá	3	Marzo	2023-07-03T00:00:00	2024-11-06T02:00:00	1	Precipitación	0
82576	7	Sololá	702	San José Chacayá	5	Chacayá	3	Marzo	2023-07-03T00:00:00	2024-11-06T02:00:00	8	Radiación solar	0
82577	7	Sololá	702	San José Chacayá	5	Chacayá	3	Marzo	2023-07-03T00:00:00	2024-11-06T03:00:00	2	Temperatura media	7.2
82578	7	Sololá	702	San José Chacayá	5	Chacayá	3	Marzo	2023-07-03T00:00:00	2024-11-06T03:00:00	4	Temperatura máxima	7.6
82579	7	Sololá	702	San José Chacayá	5	Chacayá	3	Marzo	2023-07-03T00:00:00	2024-11-06T03:00:00	3	Temperatura mínima	7.1
82580	7	Sololá	702	San José Chacayá	5	Chacayá	3	Marzo	2023-07-03T00:00:00	2024-11-06T03:00:00	5	Humedad	84
82581	7	Sololá	702	San José Chacayá	5	Chacayá	3	Marzo	2023-07-03T00:00:00	2024-11-06T03:00:00	6	Velocidad del viento	3.2
82582	7	Sololá	702	San José Chacayá	5	Chacayá	3	Marzo	2023-07-03T00:00:00	2024-11-06T03:00:00	7	Dirección del viento	3.22
82583	7	Sololá	702	San José Chacayá	5	Chacayá	3	Marzo	2023-07-03T00:00:00	2024-11-06T03:00:00	1	Precipitación	0
82584	7	Sololá	702	San José Chacayá	5	Chacayá	3	Marzo	2023-07-03T00:00:00	2024-11-06T03:00:00	8	Radiación solar	0
82585	7	Sololá	702	San José Chacayá	5	Chacayá	3	Marzo	2023-07-03T00:00:00	2024-11-06T04:00:00	2	Temperatura media	7.4
82586	7	Sololá	702	San José Chacayá	5	Chacayá	3	Marzo	2023-07-03T00:00:00	2024-11-06T04:00:00	4	Temperatura máxima	8
82587	7	Sololá	702	San José Chacayá	5	Chacayá	3	Marzo	2023-07-03T00:00:00	2024-11-06T04:00:00	3	Temperatura mínima	7.2
82588	7	Sololá	702	San José Chacayá	5	Chacayá	3	Marzo	2023-07-03T00:00:00	2024-11-06T04:00:00	5	Humedad	84
82589	7	Sololá	702	San José Chacayá	5	Chacayá	3	Marzo	2023-07-03T00:00:00	2024-11-06T04:00:00	6	Velocidad del viento	3.2
82590	7	Sololá	702	San José Chacayá	5	Chacayá	3	Marzo	2023-07-03T00:00:00	2024-11-06T04:00:00	7	Dirección del viento	3.22
82591	7	Sololá	702	San José Chacayá	5	Chacayá	3	Marzo	2023-07-03T00:00:00	2024-11-06T04:00:00	1	Precipitación	0
82592	7	Sololá	702	San José Chacayá	5	Chacayá	3	Marzo	2023-07-03T00:00:00	2024-11-06T04:00:00	8	Radiación solar	0
82593	7	Sololá	702	San José Chacayá	5	Chacayá	3	Marzo	2023-07-03T00:00:00	2024-11-06T05:00:00	2	Temperatura media	7.4
82594	7	Sololá	702	San José Chacayá	5	Chacayá	3	Marzo	2023-07-03T00:00:00	2024-11-06T05:00:00	4	Temperatura máxima	7.6
82595	7	Sololá	702	San José Chacayá	5	Chacayá	3	Marzo	2023-07-03T00:00:00	2024-11-06T05:00:00	3	Temperatura mínima	7.3
82596	7	Sololá	702	San José Chacayá	5	Chacayá	3	Marzo	2023-07-03T00:00:00	2024-11-06T05:00:00	5	Humedad	85
82597	7	Sololá	702	San José Chacayá	5	Chacayá	3	Marzo	2023-07-03T00:00:00	2024-11-06T05:00:00	6	Velocidad del viento	4.8
82598	7	Sololá	702	San José Chacayá	5	Chacayá	3	Marzo	2023-07-03T00:00:00	2024-11-06T05:00:00	7	Dirección del viento	4.83
82599	7	Sololá	702	San José Chacayá	5	Chacayá	3	Marzo	2023-07-03T00:00:00	2024-11-06T05:00:00	1	Precipitación	0
82600	7	Sololá	702	San José Chacayá	5	Chacayá	3	Marzo	2023-07-03T00:00:00	2024-11-06T05:00:00	8	Radiación solar	0
82601	7	Sololá	702	San José Chacayá	5	Chacayá	3	Marzo	2023-07-03T00:00:00	2024-11-06T06:00:00	2	Temperatura media	7.4
82602	7	Sololá	702	San José Chacayá	5	Chacayá	3	Marzo	2023-07-03T00:00:00	2024-11-06T06:00:00	4	Temperatura máxima	7.7
82603	7	Sololá	702	San José Chacayá	5	Chacayá	3	Marzo	2023-07-03T00:00:00	2024-11-06T06:00:00	3	Temperatura mínima	7.3
82604	7	Sololá	702	San José Chacayá	5	Chacayá	3	Marzo	2023-07-03T00:00:00	2024-11-06T06:00:00	5	Humedad	85
82605	7	Sololá	702	San José Chacayá	5	Chacayá	3	Marzo	2023-07-03T00:00:00	2024-11-06T06:00:00	6	Velocidad del viento	4.8
82606	7	Sololá	702	San José Chacayá	5	Chacayá	3	Marzo	2023-07-03T00:00:00	2024-11-06T06:00:00	7	Dirección del viento	4.83
82607	7	Sololá	702	San José Chacayá	5	Chacayá	3	Marzo	2023-07-03T00:00:00	2024-11-06T06:00:00	1	Precipitación	0
82608	7	Sololá	702	San José Chacayá	5	Chacayá	3	Marzo	2023-07-03T00:00:00	2024-11-06T06:00:00	8	Radiación solar	0
82609	7	Sololá	702	San José Chacayá	5	Chacayá	3	Marzo	2023-07-03T00:00:00	2024-11-06T07:00:00	2	Temperatura media	8.1
82610	7	Sololá	702	San José Chacayá	5	Chacayá	3	Marzo	2023-07-03T00:00:00	2024-11-06T07:00:00	4	Temperatura máxima	8.1
82611	7	Sololá	702	San José Chacayá	5	Chacayá	3	Marzo	2023-07-03T00:00:00	2024-11-06T07:00:00	3	Temperatura mínima	7.2
82612	7	Sololá	702	San José Chacayá	5	Chacayá	3	Marzo	2023-07-03T00:00:00	2024-11-06T07:00:00	5	Humedad	82
82613	7	Sololá	702	San José Chacayá	5	Chacayá	3	Marzo	2023-07-03T00:00:00	2024-11-06T07:00:00	6	Velocidad del viento	4.8
82614	7	Sololá	702	San José Chacayá	5	Chacayá	3	Marzo	2023-07-03T00:00:00	2024-11-06T07:00:00	7	Dirección del viento	4.83
82615	7	Sololá	702	San José Chacayá	5	Chacayá	3	Marzo	2023-07-03T00:00:00	2024-11-06T07:00:00	1	Precipitación	0
82616	7	Sololá	702	San José Chacayá	5	Chacayá	3	Marzo	2023-07-03T00:00:00	2024-11-06T07:00:00	8	Radiación solar	24
82617	7	Sololá	702	San José Chacayá	5	Chacayá	3	Marzo	2023-07-03T00:00:00	2024-11-06T08:00:00	2	Temperatura media	11.2
82618	7	Sololá	702	San José Chacayá	5	Chacayá	3	Marzo	2023-07-03T00:00:00	2024-11-06T08:00:00	4	Temperatura máxima	11.2
82619	7	Sololá	702	San José Chacayá	5	Chacayá	3	Marzo	2023-07-03T00:00:00	2024-11-06T08:00:00	3	Temperatura mínima	8.1
82620	7	Sololá	702	San José Chacayá	5	Chacayá	3	Marzo	2023-07-03T00:00:00	2024-11-06T08:00:00	5	Humedad	80
82621	7	Sololá	702	San José Chacayá	5	Chacayá	3	Marzo	2023-07-03T00:00:00	2024-11-06T08:00:00	6	Velocidad del viento	3.2
82622	7	Sololá	702	San José Chacayá	5	Chacayá	3	Marzo	2023-07-03T00:00:00	2024-11-06T08:00:00	7	Dirección del viento	3.22
82623	7	Sololá	702	San José Chacayá	5	Chacayá	3	Marzo	2023-07-03T00:00:00	2024-11-06T08:00:00	1	Precipitación	0
82624	7	Sololá	702	San José Chacayá	5	Chacayá	3	Marzo	2023-07-03T00:00:00	2024-11-06T08:00:00	8	Radiación solar	142
82625	7	Sololá	702	San José Chacayá	5	Chacayá	3	Marzo	2023-07-03T00:00:00	2024-11-06T09:00:00	2	Temperatura media	16.1
82626	7	Sololá	702	San José Chacayá	5	Chacayá	3	Marzo	2023-07-03T00:00:00	2024-11-06T09:00:00	4	Temperatura máxima	16.1
82627	7	Sololá	702	San José Chacayá	5	Chacayá	3	Marzo	2023-07-03T00:00:00	2024-11-06T09:00:00	3	Temperatura mínima	11.2
82628	7	Sololá	702	San José Chacayá	5	Chacayá	3	Marzo	2023-07-03T00:00:00	2024-11-06T09:00:00	5	Humedad	63
82629	7	Sololá	702	San José Chacayá	5	Chacayá	3	Marzo	2023-07-03T00:00:00	2024-11-06T09:00:00	6	Velocidad del viento	0
82630	7	Sololá	702	San José Chacayá	5	Chacayá	3	Marzo	2023-07-03T00:00:00	2024-11-06T09:00:00	7	Dirección del viento	0
82631	7	Sololá	702	San José Chacayá	5	Chacayá	3	Marzo	2023-07-03T00:00:00	2024-11-06T09:00:00	1	Precipitación	0
82632	7	Sololá	702	San José Chacayá	5	Chacayá	3	Marzo	2023-07-03T00:00:00	2024-11-06T09:00:00	8	Radiación solar	304
82633	7	Sololá	702	San José Chacayá	5	Chacayá	3	Marzo	2023-07-03T00:00:00	2024-11-06T10:00:00	2	Temperatura media	17.6
82634	7	Sololá	702	San José Chacayá	5	Chacayá	3	Marzo	2023-07-03T00:00:00	2024-11-06T10:00:00	4	Temperatura máxima	17.6
82635	7	Sololá	702	San José Chacayá	5	Chacayá	3	Marzo	2023-07-03T00:00:00	2024-11-06T10:00:00	3	Temperatura mínima	15.8
82636	7	Sololá	702	San José Chacayá	5	Chacayá	3	Marzo	2023-07-03T00:00:00	2024-11-06T10:00:00	5	Humedad	69
82637	7	Sololá	702	San José Chacayá	5	Chacayá	3	Marzo	2023-07-03T00:00:00	2024-11-06T10:00:00	6	Velocidad del viento	4.8
82638	7	Sololá	702	San José Chacayá	5	Chacayá	3	Marzo	2023-07-03T00:00:00	2024-11-06T10:00:00	7	Dirección del viento	4.83
82639	7	Sololá	702	San José Chacayá	5	Chacayá	3	Marzo	2023-07-03T00:00:00	2024-11-06T10:00:00	1	Precipitación	0
82640	7	Sololá	702	San José Chacayá	5	Chacayá	3	Marzo	2023-07-03T00:00:00	2024-11-06T10:00:00	8	Radiación solar	587
82641	7	Sololá	702	San José Chacayá	5	Chacayá	3	Marzo	2023-07-03T00:00:00	2024-11-06T11:00:00	2	Temperatura media	18.7
82642	7	Sololá	702	San José Chacayá	5	Chacayá	3	Marzo	2023-07-03T00:00:00	2024-11-06T11:00:00	4	Temperatura máxima	18.8
82643	7	Sololá	702	San José Chacayá	5	Chacayá	3	Marzo	2023-07-03T00:00:00	2024-11-06T11:00:00	3	Temperatura mínima	16.1
82644	7	Sololá	702	San José Chacayá	5	Chacayá	3	Marzo	2023-07-03T00:00:00	2024-11-06T11:00:00	5	Humedad	63
82645	7	Sololá	702	San José Chacayá	5	Chacayá	3	Marzo	2023-07-03T00:00:00	2024-11-06T11:00:00	6	Velocidad del viento	4.8
82646	7	Sololá	702	San José Chacayá	5	Chacayá	3	Marzo	2023-07-03T00:00:00	2024-11-06T11:00:00	7	Dirección del viento	4.83
82647	7	Sololá	702	San José Chacayá	5	Chacayá	3	Marzo	2023-07-03T00:00:00	2024-11-06T11:00:00	1	Precipitación	0
82648	7	Sololá	702	San José Chacayá	5	Chacayá	3	Marzo	2023-07-03T00:00:00	2024-11-06T11:00:00	8	Radiación solar	589
82649	7	Sololá	702	San José Chacayá	5	Chacayá	3	Marzo	2023-07-03T00:00:00	2024-11-06T12:00:00	2	Temperatura media	18.8
82650	7	Sololá	702	San José Chacayá	5	Chacayá	3	Marzo	2023-07-03T00:00:00	2024-11-06T12:00:00	4	Temperatura máxima	19
82651	7	Sololá	702	San José Chacayá	5	Chacayá	3	Marzo	2023-07-03T00:00:00	2024-11-06T12:00:00	3	Temperatura mínima	18.1
82652	7	Sololá	702	San José Chacayá	5	Chacayá	3	Marzo	2023-07-03T00:00:00	2024-11-06T12:00:00	5	Humedad	67
82653	7	Sololá	702	San José Chacayá	5	Chacayá	3	Marzo	2023-07-03T00:00:00	2024-11-06T12:00:00	6	Velocidad del viento	6.4
82654	7	Sololá	702	San José Chacayá	5	Chacayá	3	Marzo	2023-07-03T00:00:00	2024-11-06T12:00:00	7	Dirección del viento	6.44
82655	7	Sololá	702	San José Chacayá	5	Chacayá	3	Marzo	2023-07-03T00:00:00	2024-11-06T12:00:00	1	Precipitación	0
82656	7	Sololá	702	San José Chacayá	5	Chacayá	3	Marzo	2023-07-03T00:00:00	2024-11-06T12:00:00	8	Radiación solar	942
82657	7	Sololá	702	San José Chacayá	5	Chacayá	3	Marzo	2023-07-03T00:00:00	2024-11-06T13:00:00	2	Temperatura media	18.1
82658	7	Sololá	702	San José Chacayá	5	Chacayá	3	Marzo	2023-07-03T00:00:00	2024-11-06T13:00:00	4	Temperatura máxima	19.2
82659	7	Sololá	702	San José Chacayá	5	Chacayá	3	Marzo	2023-07-03T00:00:00	2024-11-06T13:00:00	3	Temperatura mínima	17.8
82660	7	Sololá	702	San José Chacayá	5	Chacayá	3	Marzo	2023-07-03T00:00:00	2024-11-06T13:00:00	5	Humedad	72
82661	7	Sololá	702	San José Chacayá	5	Chacayá	3	Marzo	2023-07-03T00:00:00	2024-11-06T13:00:00	6	Velocidad del viento	8
82662	7	Sololá	702	San José Chacayá	5	Chacayá	3	Marzo	2023-07-03T00:00:00	2024-11-06T13:00:00	7	Dirección del viento	8.05
82663	7	Sololá	702	San José Chacayá	5	Chacayá	3	Marzo	2023-07-03T00:00:00	2024-11-06T13:00:00	1	Precipitación	0
82664	7	Sololá	702	San José Chacayá	5	Chacayá	3	Marzo	2023-07-03T00:00:00	2024-11-06T13:00:00	8	Radiación solar	618
82665	7	Sololá	702	San José Chacayá	5	Chacayá	3	Marzo	2023-07-03T00:00:00	2024-11-06T14:00:00	2	Temperatura media	17.9
82666	7	Sololá	702	San José Chacayá	5	Chacayá	3	Marzo	2023-07-03T00:00:00	2024-11-06T14:00:00	4	Temperatura máxima	18.9
82667	7	Sololá	702	San José Chacayá	5	Chacayá	3	Marzo	2023-07-03T00:00:00	2024-11-06T14:00:00	3	Temperatura mínima	17.3
82668	7	Sololá	702	San José Chacayá	5	Chacayá	3	Marzo	2023-07-03T00:00:00	2024-11-06T14:00:00	5	Humedad	75
82669	7	Sololá	702	San José Chacayá	5	Chacayá	3	Marzo	2023-07-03T00:00:00	2024-11-06T14:00:00	6	Velocidad del viento	6.4
82670	7	Sololá	702	San José Chacayá	5	Chacayá	3	Marzo	2023-07-03T00:00:00	2024-11-06T14:00:00	7	Dirección del viento	6.44
82671	7	Sololá	702	San José Chacayá	5	Chacayá	3	Marzo	2023-07-03T00:00:00	2024-11-06T14:00:00	1	Precipitación	0
82672	7	Sololá	702	San José Chacayá	5	Chacayá	3	Marzo	2023-07-03T00:00:00	2024-11-06T14:00:00	8	Radiación solar	621
82673	7	Sololá	702	San José Chacayá	5	Chacayá	3	Marzo	2023-07-03T00:00:00	2024-11-06T15:00:00	2	Temperatura media	17.7
82674	7	Sololá	702	San José Chacayá	5	Chacayá	3	Marzo	2023-07-03T00:00:00	2024-11-06T15:00:00	4	Temperatura máxima	18.1
82675	7	Sololá	702	San José Chacayá	5	Chacayá	3	Marzo	2023-07-03T00:00:00	2024-11-06T15:00:00	3	Temperatura mínima	17.2
82676	7	Sololá	702	San José Chacayá	5	Chacayá	3	Marzo	2023-07-03T00:00:00	2024-11-06T15:00:00	5	Humedad	79
82677	7	Sololá	702	San José Chacayá	5	Chacayá	3	Marzo	2023-07-03T00:00:00	2024-11-06T15:00:00	6	Velocidad del viento	6.4
82678	7	Sololá	702	San José Chacayá	5	Chacayá	3	Marzo	2023-07-03T00:00:00	2024-11-06T15:00:00	7	Dirección del viento	6.44
82679	7	Sololá	702	San José Chacayá	5	Chacayá	3	Marzo	2023-07-03T00:00:00	2024-11-06T15:00:00	1	Precipitación	0
82680	7	Sololá	702	San José Chacayá	5	Chacayá	3	Marzo	2023-07-03T00:00:00	2024-11-06T15:00:00	8	Radiación solar	439
82681	7	Sololá	702	San José Chacayá	5	Chacayá	3	Marzo	2023-07-03T00:00:00	2024-11-06T16:00:00	2	Temperatura media	16.8
82682	7	Sololá	702	San José Chacayá	5	Chacayá	3	Marzo	2023-07-03T00:00:00	2024-11-06T16:00:00	4	Temperatura máxima	17.7
82683	7	Sololá	702	San José Chacayá	5	Chacayá	3	Marzo	2023-07-03T00:00:00	2024-11-06T16:00:00	3	Temperatura mínima	16.7
82684	7	Sololá	702	San José Chacayá	5	Chacayá	3	Marzo	2023-07-03T00:00:00	2024-11-06T16:00:00	5	Humedad	81
82685	7	Sololá	702	San José Chacayá	5	Chacayá	3	Marzo	2023-07-03T00:00:00	2024-11-06T16:00:00	6	Velocidad del viento	4.8
82686	7	Sololá	702	San José Chacayá	5	Chacayá	3	Marzo	2023-07-03T00:00:00	2024-11-06T16:00:00	7	Dirección del viento	4.83
82687	7	Sololá	702	San José Chacayá	5	Chacayá	3	Marzo	2023-07-03T00:00:00	2024-11-06T16:00:00	1	Precipitación	0
82688	7	Sololá	702	San José Chacayá	5	Chacayá	3	Marzo	2023-07-03T00:00:00	2024-11-06T16:00:00	8	Radiación solar	261
82689	7	Sololá	702	San José Chacayá	5	Chacayá	3	Marzo	2023-07-03T00:00:00	2024-11-06T17:00:00	2	Temperatura media	16.3
82690	7	Sololá	702	San José Chacayá	5	Chacayá	3	Marzo	2023-07-03T00:00:00	2024-11-06T17:00:00	4	Temperatura máxima	16.9
82691	7	Sololá	702	San José Chacayá	5	Chacayá	3	Marzo	2023-07-03T00:00:00	2024-11-06T17:00:00	3	Temperatura mínima	16.2
82692	7	Sololá	702	San José Chacayá	5	Chacayá	3	Marzo	2023-07-03T00:00:00	2024-11-06T17:00:00	5	Humedad	83
82693	7	Sololá	702	San José Chacayá	5	Chacayá	3	Marzo	2023-07-03T00:00:00	2024-11-06T17:00:00	6	Velocidad del viento	3.2
82694	7	Sololá	702	San José Chacayá	5	Chacayá	3	Marzo	2023-07-03T00:00:00	2024-11-06T17:00:00	7	Dirección del viento	3.22
82695	7	Sololá	702	San José Chacayá	5	Chacayá	3	Marzo	2023-07-03T00:00:00	2024-11-06T17:00:00	1	Precipitación	0
82696	7	Sololá	702	San José Chacayá	5	Chacayá	3	Marzo	2023-07-03T00:00:00	2024-11-06T17:00:00	8	Radiación solar	122
82697	7	Sololá	702	San José Chacayá	5	Chacayá	3	Marzo	2023-07-03T00:00:00	2024-11-06T18:00:00	2	Temperatura media	15.4
82698	7	Sololá	702	San José Chacayá	5	Chacayá	3	Marzo	2023-07-03T00:00:00	2024-11-06T18:00:00	4	Temperatura máxima	16.2
82699	7	Sololá	702	San José Chacayá	5	Chacayá	3	Marzo	2023-07-03T00:00:00	2024-11-06T18:00:00	3	Temperatura mínima	15.4
82700	7	Sololá	702	San José Chacayá	5	Chacayá	3	Marzo	2023-07-03T00:00:00	2024-11-06T18:00:00	5	Humedad	83
82701	7	Sololá	702	San José Chacayá	5	Chacayá	3	Marzo	2023-07-03T00:00:00	2024-11-06T18:00:00	6	Velocidad del viento	1.6
82702	7	Sololá	702	San José Chacayá	5	Chacayá	3	Marzo	2023-07-03T00:00:00	2024-11-06T18:00:00	7	Dirección del viento	1.61
82703	7	Sololá	702	San José Chacayá	5	Chacayá	3	Marzo	2023-07-03T00:00:00	2024-11-06T18:00:00	1	Precipitación	0
82704	7	Sololá	702	San José Chacayá	5	Chacayá	3	Marzo	2023-07-03T00:00:00	2024-11-06T18:00:00	8	Radiación solar	55
82705	7	Sololá	702	San José Chacayá	5	Chacayá	3	Marzo	2023-07-03T00:00:00	2024-11-06T19:00:00	2	Temperatura media	14.7
82706	7	Sololá	702	San José Chacayá	5	Chacayá	3	Marzo	2023-07-03T00:00:00	2024-11-06T19:00:00	4	Temperatura máxima	15.4
82707	7	Sololá	702	San José Chacayá	5	Chacayá	3	Marzo	2023-07-03T00:00:00	2024-11-06T19:00:00	3	Temperatura mínima	14.7
82708	7	Sololá	702	San José Chacayá	5	Chacayá	3	Marzo	2023-07-03T00:00:00	2024-11-06T19:00:00	5	Humedad	80
82709	7	Sololá	702	San José Chacayá	5	Chacayá	3	Marzo	2023-07-03T00:00:00	2024-11-06T19:00:00	6	Velocidad del viento	0
82710	7	Sololá	702	San José Chacayá	5	Chacayá	3	Marzo	2023-07-03T00:00:00	2024-11-06T19:00:00	7	Dirección del viento	0
82711	7	Sololá	702	San José Chacayá	5	Chacayá	3	Marzo	2023-07-03T00:00:00	2024-11-06T19:00:00	1	Precipitación	0
82712	7	Sololá	702	San José Chacayá	5	Chacayá	3	Marzo	2023-07-03T00:00:00	2024-11-06T19:00:00	8	Radiación solar	0
82713	7	Sololá	702	San José Chacayá	5	Chacayá	3	Marzo	2023-07-03T00:00:00	2024-11-06T20:00:00	2	Temperatura media	13.4
82714	7	Sololá	702	San José Chacayá	5	Chacayá	3	Marzo	2023-07-03T00:00:00	2024-11-06T20:00:00	4	Temperatura máxima	14.7
82715	7	Sololá	702	San José Chacayá	5	Chacayá	3	Marzo	2023-07-03T00:00:00	2024-11-06T20:00:00	3	Temperatura mínima	13.4
82716	7	Sololá	702	San José Chacayá	5	Chacayá	3	Marzo	2023-07-03T00:00:00	2024-11-06T20:00:00	5	Humedad	80
82717	7	Sololá	702	San José Chacayá	5	Chacayá	3	Marzo	2023-07-03T00:00:00	2024-11-06T20:00:00	6	Velocidad del viento	0
82718	7	Sololá	702	San José Chacayá	5	Chacayá	3	Marzo	2023-07-03T00:00:00	2024-11-06T20:00:00	7	Dirección del viento	0
82719	7	Sololá	702	San José Chacayá	5	Chacayá	3	Marzo	2023-07-03T00:00:00	2024-11-06T20:00:00	1	Precipitación	0
82720	7	Sololá	702	San José Chacayá	5	Chacayá	3	Marzo	2023-07-03T00:00:00	2024-11-06T20:00:00	8	Radiación solar	0
82721	7	Sololá	702	San José Chacayá	5	Chacayá	3	Marzo	2023-07-03T00:00:00	2024-11-06T21:00:00	2	Temperatura media	12.4
82722	7	Sololá	702	San José Chacayá	5	Chacayá	3	Marzo	2023-07-03T00:00:00	2024-11-06T21:00:00	4	Temperatura máxima	13.4
82723	7	Sololá	702	San José Chacayá	5	Chacayá	3	Marzo	2023-07-03T00:00:00	2024-11-06T21:00:00	3	Temperatura mínima	12.4
82724	7	Sololá	702	San José Chacayá	5	Chacayá	3	Marzo	2023-07-03T00:00:00	2024-11-06T21:00:00	5	Humedad	83
82725	7	Sololá	702	San José Chacayá	5	Chacayá	3	Marzo	2023-07-03T00:00:00	2024-11-06T21:00:00	6	Velocidad del viento	0
82726	7	Sololá	702	San José Chacayá	5	Chacayá	3	Marzo	2023-07-03T00:00:00	2024-11-06T21:00:00	7	Dirección del viento	0
82727	7	Sololá	702	San José Chacayá	5	Chacayá	3	Marzo	2023-07-03T00:00:00	2024-11-06T21:00:00	1	Precipitación	0
82728	7	Sololá	702	San José Chacayá	5	Chacayá	3	Marzo	2023-07-03T00:00:00	2024-11-06T21:00:00	8	Radiación solar	0
82729	7	Sololá	702	San José Chacayá	5	Chacayá	3	Marzo	2023-07-03T00:00:00	2024-11-06T22:00:00	2	Temperatura media	11.9
82730	7	Sololá	702	San José Chacayá	5	Chacayá	3	Marzo	2023-07-03T00:00:00	2024-11-06T22:00:00	4	Temperatura máxima	12.4
82731	7	Sololá	702	San José Chacayá	5	Chacayá	3	Marzo	2023-07-03T00:00:00	2024-11-06T22:00:00	3	Temperatura mínima	11.9
82732	7	Sololá	702	San José Chacayá	5	Chacayá	3	Marzo	2023-07-03T00:00:00	2024-11-06T22:00:00	5	Humedad	84
82733	7	Sololá	702	San José Chacayá	5	Chacayá	3	Marzo	2023-07-03T00:00:00	2024-11-06T22:00:00	6	Velocidad del viento	0
82734	7	Sololá	702	San José Chacayá	5	Chacayá	3	Marzo	2023-07-03T00:00:00	2024-11-06T22:00:00	7	Dirección del viento	0
82735	7	Sololá	702	San José Chacayá	5	Chacayá	3	Marzo	2023-07-03T00:00:00	2024-11-06T22:00:00	1	Precipitación	0
82736	7	Sololá	702	San José Chacayá	5	Chacayá	3	Marzo	2023-07-03T00:00:00	2024-11-06T22:00:00	8	Radiación solar	0
82737	7	Sololá	702	San José Chacayá	5	Chacayá	3	Marzo	2023-07-03T00:00:00	2024-11-06T23:00:00	2	Temperatura media	11.4
82738	7	Sololá	702	San José Chacayá	5	Chacayá	3	Marzo	2023-07-03T00:00:00	2024-11-06T23:00:00	4	Temperatura máxima	11.9
82739	7	Sololá	702	San José Chacayá	5	Chacayá	3	Marzo	2023-07-03T00:00:00	2024-11-06T23:00:00	3	Temperatura mínima	11.4
82740	7	Sololá	702	San José Chacayá	5	Chacayá	3	Marzo	2023-07-03T00:00:00	2024-11-06T23:00:00	5	Humedad	84
82741	7	Sololá	702	San José Chacayá	5	Chacayá	3	Marzo	2023-07-03T00:00:00	2024-11-06T23:00:00	6	Velocidad del viento	1.6
82742	7	Sololá	702	San José Chacayá	5	Chacayá	3	Marzo	2023-07-03T00:00:00	2024-11-06T23:00:00	7	Dirección del viento	1.61
82743	7	Sololá	702	San José Chacayá	5	Chacayá	3	Marzo	2023-07-03T00:00:00	2024-11-06T23:00:00	1	Precipitación	0
82744	7	Sololá	702	San José Chacayá	5	Chacayá	3	Marzo	2023-07-03T00:00:00	2024-11-06T23:00:00	8	Radiación solar	0
82745	7	Sololá	702	San José Chacayá	5	Chacayá	3	Marzo	2023-08-03T00:00:00	2024-11-06T00:00:00	2	Temperatura media	11.1
82746	7	Sololá	702	San José Chacayá	5	Chacayá	3	Marzo	2023-08-03T00:00:00	2024-11-06T00:00:00	4	Temperatura máxima	11.4
82747	7	Sololá	702	San José Chacayá	5	Chacayá	3	Marzo	2023-08-03T00:00:00	2024-11-06T00:00:00	3	Temperatura mínima	11.1
82748	7	Sololá	702	San José Chacayá	5	Chacayá	3	Marzo	2023-08-03T00:00:00	2024-11-06T00:00:00	5	Humedad	83
82749	7	Sololá	702	San José Chacayá	5	Chacayá	3	Marzo	2023-08-03T00:00:00	2024-11-06T00:00:00	6	Velocidad del viento	0
82750	7	Sololá	702	San José Chacayá	5	Chacayá	3	Marzo	2023-08-03T00:00:00	2024-11-06T00:00:00	7	Dirección del viento	0
82751	7	Sololá	702	San José Chacayá	5	Chacayá	3	Marzo	2023-08-03T00:00:00	2024-11-06T00:00:00	1	Precipitación	0
82752	7	Sololá	702	San José Chacayá	5	Chacayá	3	Marzo	2023-08-03T00:00:00	2024-11-06T00:00:00	8	Radiación solar	0
82753	7	Sololá	702	San José Chacayá	5	Chacayá	3	Marzo	2023-08-03T00:00:00	2024-11-06T01:00:00	2	Temperatura media	11
82754	7	Sololá	702	San José Chacayá	5	Chacayá	3	Marzo	2023-08-03T00:00:00	2024-11-06T01:00:00	4	Temperatura máxima	11.1
82755	7	Sololá	702	San José Chacayá	5	Chacayá	3	Marzo	2023-08-03T00:00:00	2024-11-06T01:00:00	3	Temperatura mínima	10.9
82756	7	Sololá	702	San José Chacayá	5	Chacayá	3	Marzo	2023-08-03T00:00:00	2024-11-06T01:00:00	5	Humedad	82
82757	7	Sololá	702	San José Chacayá	5	Chacayá	3	Marzo	2023-08-03T00:00:00	2024-11-06T01:00:00	6	Velocidad del viento	1.6
82758	7	Sololá	702	San José Chacayá	5	Chacayá	3	Marzo	2023-08-03T00:00:00	2024-11-06T01:00:00	7	Dirección del viento	1.61
82759	7	Sololá	702	San José Chacayá	5	Chacayá	3	Marzo	2023-08-03T00:00:00	2024-11-06T01:00:00	1	Precipitación	0
82760	7	Sololá	702	San José Chacayá	5	Chacayá	3	Marzo	2023-08-03T00:00:00	2024-11-06T01:00:00	8	Radiación solar	0
82761	7	Sololá	702	San José Chacayá	5	Chacayá	3	Marzo	2023-08-03T00:00:00	2024-11-06T02:00:00	2	Temperatura media	10.8
82762	7	Sololá	702	San José Chacayá	5	Chacayá	3	Marzo	2023-08-03T00:00:00	2024-11-06T02:00:00	4	Temperatura máxima	11.3
82763	7	Sololá	702	San José Chacayá	5	Chacayá	3	Marzo	2023-08-03T00:00:00	2024-11-06T02:00:00	3	Temperatura mínima	10.8
82764	7	Sololá	702	San José Chacayá	5	Chacayá	3	Marzo	2023-08-03T00:00:00	2024-11-06T02:00:00	5	Humedad	83
82765	7	Sololá	702	San José Chacayá	5	Chacayá	3	Marzo	2023-08-03T00:00:00	2024-11-06T02:00:00	6	Velocidad del viento	1.6
82766	7	Sololá	702	San José Chacayá	5	Chacayá	3	Marzo	2023-08-03T00:00:00	2024-11-06T02:00:00	7	Dirección del viento	1.61
82767	7	Sololá	702	San José Chacayá	5	Chacayá	3	Marzo	2023-08-03T00:00:00	2024-11-06T02:00:00	1	Precipitación	0
82768	7	Sololá	702	San José Chacayá	5	Chacayá	3	Marzo	2023-08-03T00:00:00	2024-11-06T02:00:00	8	Radiación solar	0
82769	7	Sololá	702	San José Chacayá	5	Chacayá	3	Marzo	2023-08-03T00:00:00	2024-11-06T03:00:00	2	Temperatura media	10.2
82770	7	Sololá	702	San José Chacayá	5	Chacayá	3	Marzo	2023-08-03T00:00:00	2024-11-06T03:00:00	4	Temperatura máxima	10.8
82771	7	Sololá	702	San José Chacayá	5	Chacayá	3	Marzo	2023-08-03T00:00:00	2024-11-06T03:00:00	3	Temperatura mínima	10.2
82772	7	Sololá	702	San José Chacayá	5	Chacayá	3	Marzo	2023-08-03T00:00:00	2024-11-06T03:00:00	5	Humedad	83
82773	7	Sololá	702	San José Chacayá	5	Chacayá	3	Marzo	2023-08-03T00:00:00	2024-11-06T03:00:00	6	Velocidad del viento	1.6
82774	7	Sololá	702	San José Chacayá	5	Chacayá	3	Marzo	2023-08-03T00:00:00	2024-11-06T03:00:00	7	Dirección del viento	1.61
82775	7	Sololá	702	San José Chacayá	5	Chacayá	3	Marzo	2023-08-03T00:00:00	2024-11-06T03:00:00	1	Precipitación	0
82776	7	Sololá	702	San José Chacayá	5	Chacayá	3	Marzo	2023-08-03T00:00:00	2024-11-06T03:00:00	8	Radiación solar	0
82777	7	Sololá	702	San José Chacayá	5	Chacayá	3	Marzo	2023-08-03T00:00:00	2024-11-06T04:00:00	2	Temperatura media	9.6
82778	7	Sololá	702	San José Chacayá	5	Chacayá	3	Marzo	2023-08-03T00:00:00	2024-11-06T04:00:00	4	Temperatura máxima	10.1
82779	7	Sololá	702	San José Chacayá	5	Chacayá	3	Marzo	2023-08-03T00:00:00	2024-11-06T04:00:00	3	Temperatura mínima	9.6
82780	7	Sololá	702	San José Chacayá	5	Chacayá	3	Marzo	2023-08-03T00:00:00	2024-11-06T04:00:00	5	Humedad	80
82781	7	Sololá	702	San José Chacayá	5	Chacayá	3	Marzo	2023-08-03T00:00:00	2024-11-06T04:00:00	6	Velocidad del viento	1.6
82782	7	Sololá	702	San José Chacayá	5	Chacayá	3	Marzo	2023-08-03T00:00:00	2024-11-06T04:00:00	7	Dirección del viento	1.61
82783	7	Sololá	702	San José Chacayá	5	Chacayá	3	Marzo	2023-08-03T00:00:00	2024-11-06T04:00:00	1	Precipitación	0
82784	7	Sololá	702	San José Chacayá	5	Chacayá	3	Marzo	2023-08-03T00:00:00	2024-11-06T04:00:00	8	Radiación solar	0
82785	7	Sololá	702	San José Chacayá	5	Chacayá	3	Marzo	2023-08-03T00:00:00	2024-11-06T05:00:00	2	Temperatura media	9.1
82786	7	Sololá	702	San José Chacayá	5	Chacayá	3	Marzo	2023-08-03T00:00:00	2024-11-06T05:00:00	4	Temperatura máxima	9.6
82787	7	Sololá	702	San José Chacayá	5	Chacayá	3	Marzo	2023-08-03T00:00:00	2024-11-06T05:00:00	3	Temperatura mínima	9.1
82788	7	Sololá	702	San José Chacayá	5	Chacayá	3	Marzo	2023-08-03T00:00:00	2024-11-06T05:00:00	5	Humedad	80
82789	7	Sololá	702	San José Chacayá	5	Chacayá	3	Marzo	2023-08-03T00:00:00	2024-11-06T05:00:00	6	Velocidad del viento	1.6
82790	7	Sololá	702	San José Chacayá	5	Chacayá	3	Marzo	2023-08-03T00:00:00	2024-11-06T05:00:00	7	Dirección del viento	1.61
82791	7	Sololá	702	San José Chacayá	5	Chacayá	3	Marzo	2023-08-03T00:00:00	2024-11-06T05:00:00	1	Precipitación	0
82792	7	Sololá	702	San José Chacayá	5	Chacayá	3	Marzo	2023-08-03T00:00:00	2024-11-06T05:00:00	8	Radiación solar	0
82793	7	Sololá	702	San José Chacayá	5	Chacayá	3	Marzo	2023-08-03T00:00:00	2024-11-06T06:00:00	2	Temperatura media	9.2
82794	7	Sololá	702	San José Chacayá	5	Chacayá	3	Marzo	2023-08-03T00:00:00	2024-11-06T06:00:00	4	Temperatura máxima	9.3
82795	7	Sololá	702	San José Chacayá	5	Chacayá	3	Marzo	2023-08-03T00:00:00	2024-11-06T06:00:00	3	Temperatura mínima	9.1
82796	7	Sololá	702	San José Chacayá	5	Chacayá	3	Marzo	2023-08-03T00:00:00	2024-11-06T06:00:00	5	Humedad	79
82797	7	Sololá	702	San José Chacayá	5	Chacayá	3	Marzo	2023-08-03T00:00:00	2024-11-06T06:00:00	6	Velocidad del viento	1.6
82798	7	Sololá	702	San José Chacayá	5	Chacayá	3	Marzo	2023-08-03T00:00:00	2024-11-06T06:00:00	7	Dirección del viento	1.61
82799	7	Sololá	702	San José Chacayá	5	Chacayá	3	Marzo	2023-08-03T00:00:00	2024-11-06T06:00:00	1	Precipitación	0
82800	7	Sololá	702	San José Chacayá	5	Chacayá	3	Marzo	2023-08-03T00:00:00	2024-11-06T06:00:00	8	Radiación solar	0
82801	7	Sololá	702	San José Chacayá	5	Chacayá	3	Marzo	2023-08-03T00:00:00	2024-11-06T07:00:00	2	Temperatura media	9.6
82802	7	Sololá	702	San José Chacayá	5	Chacayá	3	Marzo	2023-08-03T00:00:00	2024-11-06T07:00:00	4	Temperatura máxima	9.6
82803	7	Sololá	702	San José Chacayá	5	Chacayá	3	Marzo	2023-08-03T00:00:00	2024-11-06T07:00:00	3	Temperatura mínima	9.2
82804	7	Sololá	702	San José Chacayá	5	Chacayá	3	Marzo	2023-08-03T00:00:00	2024-11-06T07:00:00	5	Humedad	80
82805	7	Sololá	702	San José Chacayá	5	Chacayá	3	Marzo	2023-08-03T00:00:00	2024-11-06T07:00:00	6	Velocidad del viento	1.6
82806	7	Sololá	702	San José Chacayá	5	Chacayá	3	Marzo	2023-08-03T00:00:00	2024-11-06T07:00:00	7	Dirección del viento	1.61
82807	7	Sololá	702	San José Chacayá	5	Chacayá	3	Marzo	2023-08-03T00:00:00	2024-11-06T07:00:00	1	Precipitación	0
82808	7	Sololá	702	San José Chacayá	5	Chacayá	3	Marzo	2023-08-03T00:00:00	2024-11-06T07:00:00	8	Radiación solar	20
82809	7	Sololá	702	San José Chacayá	5	Chacayá	3	Marzo	2023-08-03T00:00:00	2024-11-06T08:00:00	2	Temperatura media	14.4
82810	7	Sololá	702	San José Chacayá	5	Chacayá	3	Marzo	2023-08-03T00:00:00	2024-11-06T08:00:00	4	Temperatura máxima	14.4
82811	7	Sololá	702	San José Chacayá	5	Chacayá	3	Marzo	2023-08-03T00:00:00	2024-11-06T08:00:00	3	Temperatura mínima	9.6
82812	7	Sololá	702	San José Chacayá	5	Chacayá	3	Marzo	2023-08-03T00:00:00	2024-11-06T08:00:00	5	Humedad	80
82813	7	Sololá	702	San José Chacayá	5	Chacayá	3	Marzo	2023-08-03T00:00:00	2024-11-06T08:00:00	6	Velocidad del viento	1.6
82814	7	Sololá	702	San José Chacayá	5	Chacayá	3	Marzo	2023-08-03T00:00:00	2024-11-06T08:00:00	7	Dirección del viento	1.61
82815	7	Sololá	702	San José Chacayá	5	Chacayá	3	Marzo	2023-08-03T00:00:00	2024-11-06T08:00:00	1	Precipitación	0
82816	7	Sololá	702	San José Chacayá	5	Chacayá	3	Marzo	2023-08-03T00:00:00	2024-11-06T08:00:00	8	Radiación solar	232
82817	7	Sololá	702	San José Chacayá	5	Chacayá	3	Marzo	2023-08-03T00:00:00	2024-11-06T09:00:00	2	Temperatura media	16.6
82818	7	Sololá	702	San José Chacayá	5	Chacayá	3	Marzo	2023-08-03T00:00:00	2024-11-06T09:00:00	4	Temperatura máxima	16.6
82819	7	Sololá	702	San José Chacayá	5	Chacayá	3	Marzo	2023-08-03T00:00:00	2024-11-06T09:00:00	3	Temperatura mínima	14.5
82820	7	Sololá	702	San José Chacayá	5	Chacayá	3	Marzo	2023-08-03T00:00:00	2024-11-06T09:00:00	5	Humedad	76
82821	7	Sololá	702	San José Chacayá	5	Chacayá	3	Marzo	2023-08-03T00:00:00	2024-11-06T09:00:00	6	Velocidad del viento	3.2
82822	7	Sololá	702	San José Chacayá	5	Chacayá	3	Marzo	2023-08-03T00:00:00	2024-11-06T09:00:00	7	Dirección del viento	3.22
82823	7	Sololá	702	San José Chacayá	5	Chacayá	3	Marzo	2023-08-03T00:00:00	2024-11-06T09:00:00	1	Precipitación	0
82824	7	Sololá	702	San José Chacayá	5	Chacayá	3	Marzo	2023-08-03T00:00:00	2024-11-06T09:00:00	8	Radiación solar	422
82825	7	Sololá	702	San José Chacayá	5	Chacayá	3	Marzo	2023-08-03T00:00:00	2024-11-06T10:00:00	2	Temperatura media	17.6
82826	7	Sololá	702	San José Chacayá	5	Chacayá	3	Marzo	2023-08-03T00:00:00	2024-11-06T10:00:00	4	Temperatura máxima	17.6
82827	7	Sololá	702	San José Chacayá	5	Chacayá	3	Marzo	2023-08-03T00:00:00	2024-11-06T10:00:00	3	Temperatura mínima	16.3
82828	7	Sololá	702	San José Chacayá	5	Chacayá	3	Marzo	2023-08-03T00:00:00	2024-11-06T10:00:00	5	Humedad	71
82829	7	Sololá	702	San José Chacayá	5	Chacayá	3	Marzo	2023-08-03T00:00:00	2024-11-06T10:00:00	6	Velocidad del viento	6.4
82830	7	Sololá	702	San José Chacayá	5	Chacayá	3	Marzo	2023-08-03T00:00:00	2024-11-06T10:00:00	7	Dirección del viento	6.44
82831	7	Sololá	702	San José Chacayá	5	Chacayá	3	Marzo	2023-08-03T00:00:00	2024-11-06T10:00:00	1	Precipitación	0
82832	7	Sololá	702	San José Chacayá	5	Chacayá	3	Marzo	2023-08-03T00:00:00	2024-11-06T10:00:00	8	Radiación solar	669
82833	7	Sololá	702	San José Chacayá	5	Chacayá	3	Marzo	2023-08-03T00:00:00	2024-11-06T11:00:00	2	Temperatura media	16.8
82834	7	Sololá	702	San José Chacayá	5	Chacayá	3	Marzo	2023-08-03T00:00:00	2024-11-06T11:00:00	4	Temperatura máxima	18.3
82835	7	Sololá	702	San José Chacayá	5	Chacayá	3	Marzo	2023-08-03T00:00:00	2024-11-06T11:00:00	3	Temperatura mínima	16.8
82836	7	Sololá	702	San José Chacayá	5	Chacayá	3	Marzo	2023-08-03T00:00:00	2024-11-06T11:00:00	5	Humedad	76
82837	7	Sololá	702	San José Chacayá	5	Chacayá	3	Marzo	2023-08-03T00:00:00	2024-11-06T11:00:00	6	Velocidad del viento	8
82838	7	Sololá	702	San José Chacayá	5	Chacayá	3	Marzo	2023-08-03T00:00:00	2024-11-06T11:00:00	7	Dirección del viento	8.05
82839	7	Sololá	702	San José Chacayá	5	Chacayá	3	Marzo	2023-08-03T00:00:00	2024-11-06T11:00:00	1	Precipitación	0
82840	7	Sololá	702	San José Chacayá	5	Chacayá	3	Marzo	2023-08-03T00:00:00	2024-11-06T11:00:00	8	Radiación solar	652
82841	7	Sololá	702	San José Chacayá	5	Chacayá	3	Marzo	2023-08-03T00:00:00	2024-11-06T12:00:00	2	Temperatura media	18.1
82842	7	Sololá	702	San José Chacayá	5	Chacayá	3	Marzo	2023-08-03T00:00:00	2024-11-06T12:00:00	4	Temperatura máxima	18.1
82843	7	Sololá	702	San José Chacayá	5	Chacayá	3	Marzo	2023-08-03T00:00:00	2024-11-06T12:00:00	3	Temperatura mínima	16.2
82844	7	Sololá	702	San José Chacayá	5	Chacayá	3	Marzo	2023-08-03T00:00:00	2024-11-06T12:00:00	5	Humedad	75
82845	7	Sololá	702	San José Chacayá	5	Chacayá	3	Marzo	2023-08-03T00:00:00	2024-11-06T12:00:00	6	Velocidad del viento	6.4
82846	7	Sololá	702	San José Chacayá	5	Chacayá	3	Marzo	2023-08-03T00:00:00	2024-11-06T12:00:00	7	Dirección del viento	6.44
82847	7	Sololá	702	San José Chacayá	5	Chacayá	3	Marzo	2023-08-03T00:00:00	2024-11-06T12:00:00	1	Precipitación	0
82848	7	Sololá	702	San José Chacayá	5	Chacayá	3	Marzo	2023-08-03T00:00:00	2024-11-06T12:00:00	8	Radiación solar	586
82849	7	Sololá	702	San José Chacayá	5	Chacayá	3	Marzo	2023-08-03T00:00:00	2024-11-06T13:00:00	2	Temperatura media	17.5
82850	7	Sololá	702	San José Chacayá	5	Chacayá	3	Marzo	2023-08-03T00:00:00	2024-11-06T13:00:00	4	Temperatura máxima	18.7
82851	7	Sololá	702	San José Chacayá	5	Chacayá	3	Marzo	2023-08-03T00:00:00	2024-11-06T13:00:00	3	Temperatura mínima	17.4
82852	7	Sololá	702	San José Chacayá	5	Chacayá	3	Marzo	2023-08-03T00:00:00	2024-11-06T13:00:00	5	Humedad	77
82853	7	Sololá	702	San José Chacayá	5	Chacayá	3	Marzo	2023-08-03T00:00:00	2024-11-06T13:00:00	6	Velocidad del viento	8
82854	7	Sololá	702	San José Chacayá	5	Chacayá	3	Marzo	2023-08-03T00:00:00	2024-11-06T13:00:00	7	Dirección del viento	8.05
82855	7	Sololá	702	San José Chacayá	5	Chacayá	3	Marzo	2023-08-03T00:00:00	2024-11-06T13:00:00	1	Precipitación	0
82856	7	Sololá	702	San José Chacayá	5	Chacayá	3	Marzo	2023-08-03T00:00:00	2024-11-06T13:00:00	8	Radiación solar	858
82857	7	Sololá	702	San José Chacayá	5	Chacayá	3	Marzo	2023-08-03T00:00:00	2024-11-06T14:00:00	2	Temperatura media	16.7
82858	7	Sololá	702	San José Chacayá	5	Chacayá	3	Marzo	2023-08-03T00:00:00	2024-11-06T14:00:00	4	Temperatura máxima	17.8
82859	7	Sololá	702	San José Chacayá	5	Chacayá	3	Marzo	2023-08-03T00:00:00	2024-11-06T14:00:00	3	Temperatura mínima	16.3
82860	7	Sololá	702	San José Chacayá	5	Chacayá	3	Marzo	2023-08-03T00:00:00	2024-11-06T14:00:00	5	Humedad	79
82861	7	Sololá	702	San José Chacayá	5	Chacayá	3	Marzo	2023-08-03T00:00:00	2024-11-06T14:00:00	6	Velocidad del viento	8
82862	7	Sololá	702	San José Chacayá	5	Chacayá	3	Marzo	2023-08-03T00:00:00	2024-11-06T14:00:00	7	Dirección del viento	8.05
82863	7	Sololá	702	San José Chacayá	5	Chacayá	3	Marzo	2023-08-03T00:00:00	2024-11-06T14:00:00	1	Precipitación	0
82864	7	Sololá	702	San José Chacayá	5	Chacayá	3	Marzo	2023-08-03T00:00:00	2024-11-06T14:00:00	8	Radiación solar	421
82865	7	Sololá	702	San José Chacayá	5	Chacayá	3	Marzo	2023-08-03T00:00:00	2024-11-06T15:00:00	2	Temperatura media	15.5
82866	7	Sololá	702	San José Chacayá	5	Chacayá	3	Marzo	2023-08-03T00:00:00	2024-11-06T15:00:00	4	Temperatura máxima	16.8
82867	7	Sololá	702	San José Chacayá	5	Chacayá	3	Marzo	2023-08-03T00:00:00	2024-11-06T15:00:00	3	Temperatura mínima	15.5
82868	7	Sololá	702	San José Chacayá	5	Chacayá	3	Marzo	2023-08-03T00:00:00	2024-11-06T15:00:00	5	Humedad	83
82869	7	Sololá	702	San José Chacayá	5	Chacayá	3	Marzo	2023-08-03T00:00:00	2024-11-06T15:00:00	6	Velocidad del viento	6.4
82870	7	Sololá	702	San José Chacayá	5	Chacayá	3	Marzo	2023-08-03T00:00:00	2024-11-06T15:00:00	7	Dirección del viento	6.44
82871	7	Sololá	702	San José Chacayá	5	Chacayá	3	Marzo	2023-08-03T00:00:00	2024-11-06T15:00:00	1	Precipitación	0
82872	7	Sololá	702	San José Chacayá	5	Chacayá	3	Marzo	2023-08-03T00:00:00	2024-11-06T15:00:00	8	Radiación solar	249
82873	7	Sololá	702	San José Chacayá	5	Chacayá	3	Marzo	2023-08-03T00:00:00	2024-11-06T16:00:00	2	Temperatura media	16.1
82874	7	Sololá	702	San José Chacayá	5	Chacayá	3	Marzo	2023-08-03T00:00:00	2024-11-06T16:00:00	4	Temperatura máxima	16.2
82875	7	Sololá	702	San José Chacayá	5	Chacayá	3	Marzo	2023-08-03T00:00:00	2024-11-06T16:00:00	3	Temperatura mínima	15.3
82876	7	Sololá	702	San José Chacayá	5	Chacayá	3	Marzo	2023-08-03T00:00:00	2024-11-06T16:00:00	5	Humedad	83
82877	7	Sololá	702	San José Chacayá	5	Chacayá	3	Marzo	2023-08-03T00:00:00	2024-11-06T16:00:00	6	Velocidad del viento	3.2
82878	7	Sololá	702	San José Chacayá	5	Chacayá	3	Marzo	2023-08-03T00:00:00	2024-11-06T16:00:00	7	Dirección del viento	3.22
82879	7	Sololá	702	San José Chacayá	5	Chacayá	3	Marzo	2023-08-03T00:00:00	2024-11-06T16:00:00	1	Precipitación	0
82880	7	Sololá	702	San José Chacayá	5	Chacayá	3	Marzo	2023-08-03T00:00:00	2024-11-06T16:00:00	8	Radiación solar	189
82881	7	Sololá	702	San José Chacayá	5	Chacayá	3	Marzo	2023-08-03T00:00:00	2024-11-06T17:00:00	2	Temperatura media	15
82882	7	Sololá	702	San José Chacayá	5	Chacayá	3	Marzo	2023-08-03T00:00:00	2024-11-06T17:00:00	4	Temperatura máxima	16.1
82883	7	Sololá	702	San José Chacayá	5	Chacayá	3	Marzo	2023-08-03T00:00:00	2024-11-06T17:00:00	3	Temperatura mínima	15
82884	7	Sololá	702	San José Chacayá	5	Chacayá	3	Marzo	2023-08-03T00:00:00	2024-11-06T17:00:00	5	Humedad	84
82885	7	Sololá	702	San José Chacayá	5	Chacayá	3	Marzo	2023-08-03T00:00:00	2024-11-06T17:00:00	6	Velocidad del viento	1.6
82886	7	Sololá	702	San José Chacayá	5	Chacayá	3	Marzo	2023-08-03T00:00:00	2024-11-06T17:00:00	7	Dirección del viento	1.61
82887	7	Sololá	702	San José Chacayá	5	Chacayá	3	Marzo	2023-08-03T00:00:00	2024-11-06T17:00:00	1	Precipitación	0
82888	7	Sololá	702	San José Chacayá	5	Chacayá	3	Marzo	2023-08-03T00:00:00	2024-11-06T17:00:00	8	Radiación solar	58
82889	7	Sololá	702	San José Chacayá	5	Chacayá	3	Marzo	2023-08-03T00:00:00	2024-11-06T18:00:00	2	Temperatura media	14.9
82890	7	Sololá	702	San José Chacayá	5	Chacayá	3	Marzo	2023-08-03T00:00:00	2024-11-06T18:00:00	4	Temperatura máxima	15.2
82891	7	Sololá	702	San José Chacayá	5	Chacayá	3	Marzo	2023-08-03T00:00:00	2024-11-06T18:00:00	3	Temperatura mínima	14.9
82892	7	Sololá	702	San José Chacayá	5	Chacayá	3	Marzo	2023-08-03T00:00:00	2024-11-06T18:00:00	5	Humedad	83
82893	7	Sololá	702	San José Chacayá	5	Chacayá	3	Marzo	2023-08-03T00:00:00	2024-11-06T18:00:00	6	Velocidad del viento	0
82894	7	Sololá	702	San José Chacayá	5	Chacayá	3	Marzo	2023-08-03T00:00:00	2024-11-06T18:00:00	7	Dirección del viento	0
82895	7	Sololá	702	San José Chacayá	5	Chacayá	3	Marzo	2023-08-03T00:00:00	2024-11-06T18:00:00	1	Precipitación	0
82896	7	Sololá	702	San José Chacayá	5	Chacayá	3	Marzo	2023-08-03T00:00:00	2024-11-06T18:00:00	8	Radiación solar	53
82897	7	Sololá	702	San José Chacayá	5	Chacayá	3	Marzo	2023-08-03T00:00:00	2024-11-06T19:00:00	2	Temperatura media	14.3
82898	7	Sololá	702	San José Chacayá	5	Chacayá	3	Marzo	2023-08-03T00:00:00	2024-11-06T19:00:00	4	Temperatura máxima	14.9
82899	7	Sololá	702	San José Chacayá	5	Chacayá	3	Marzo	2023-08-03T00:00:00	2024-11-06T19:00:00	3	Temperatura mínima	14.3
82900	7	Sololá	702	San José Chacayá	5	Chacayá	3	Marzo	2023-08-03T00:00:00	2024-11-06T19:00:00	5	Humedad	79
82901	7	Sololá	702	San José Chacayá	5	Chacayá	3	Marzo	2023-08-03T00:00:00	2024-11-06T19:00:00	6	Velocidad del viento	0
82902	7	Sololá	702	San José Chacayá	5	Chacayá	3	Marzo	2023-08-03T00:00:00	2024-11-06T19:00:00	7	Dirección del viento	0
82903	7	Sololá	702	San José Chacayá	5	Chacayá	3	Marzo	2023-08-03T00:00:00	2024-11-06T19:00:00	1	Precipitación	0
82904	7	Sololá	702	San José Chacayá	5	Chacayá	3	Marzo	2023-08-03T00:00:00	2024-11-06T19:00:00	8	Radiación solar	0
82905	7	Sololá	702	San José Chacayá	5	Chacayá	3	Marzo	2023-08-03T00:00:00	2024-11-06T20:00:00	2	Temperatura media	12.8
82906	7	Sololá	702	San José Chacayá	5	Chacayá	3	Marzo	2023-08-03T00:00:00	2024-11-06T20:00:00	4	Temperatura máxima	14.3
82907	7	Sololá	702	San José Chacayá	5	Chacayá	3	Marzo	2023-08-03T00:00:00	2024-11-06T20:00:00	3	Temperatura mínima	12.8
82908	7	Sololá	702	San José Chacayá	5	Chacayá	3	Marzo	2023-08-03T00:00:00	2024-11-06T20:00:00	5	Humedad	81
82909	7	Sololá	702	San José Chacayá	5	Chacayá	3	Marzo	2023-08-03T00:00:00	2024-11-06T20:00:00	6	Velocidad del viento	0
82910	7	Sololá	702	San José Chacayá	5	Chacayá	3	Marzo	2023-08-03T00:00:00	2024-11-06T20:00:00	7	Dirección del viento	0
82911	7	Sololá	702	San José Chacayá	5	Chacayá	3	Marzo	2023-08-03T00:00:00	2024-11-06T20:00:00	1	Precipitación	0
82912	7	Sololá	702	San José Chacayá	5	Chacayá	3	Marzo	2023-08-03T00:00:00	2024-11-06T20:00:00	8	Radiación solar	0
82913	7	Sololá	702	San José Chacayá	5	Chacayá	3	Marzo	2023-08-03T00:00:00	2024-11-06T21:00:00	2	Temperatura media	11.6
82914	7	Sololá	702	San José Chacayá	5	Chacayá	3	Marzo	2023-08-03T00:00:00	2024-11-06T21:00:00	4	Temperatura máxima	12.8
82915	7	Sololá	702	San José Chacayá	5	Chacayá	3	Marzo	2023-08-03T00:00:00	2024-11-06T21:00:00	3	Temperatura mínima	11.6
82916	7	Sololá	702	San José Chacayá	5	Chacayá	3	Marzo	2023-08-03T00:00:00	2024-11-06T21:00:00	5	Humedad	83
82917	7	Sololá	702	San José Chacayá	5	Chacayá	3	Marzo	2023-08-03T00:00:00	2024-11-06T21:00:00	6	Velocidad del viento	1.6
82918	7	Sololá	702	San José Chacayá	5	Chacayá	3	Marzo	2023-08-03T00:00:00	2024-11-06T21:00:00	7	Dirección del viento	1.61
82919	7	Sololá	702	San José Chacayá	5	Chacayá	3	Marzo	2023-08-03T00:00:00	2024-11-06T21:00:00	1	Precipitación	0
82920	7	Sololá	702	San José Chacayá	5	Chacayá	3	Marzo	2023-08-03T00:00:00	2024-11-06T21:00:00	8	Radiación solar	0
82921	7	Sololá	702	San José Chacayá	5	Chacayá	3	Marzo	2023-08-03T00:00:00	2024-11-06T22:00:00	2	Temperatura media	11.3
82922	7	Sololá	702	San José Chacayá	5	Chacayá	3	Marzo	2023-08-03T00:00:00	2024-11-06T22:00:00	4	Temperatura máxima	11.7
82923	7	Sololá	702	San José Chacayá	5	Chacayá	3	Marzo	2023-08-03T00:00:00	2024-11-06T22:00:00	3	Temperatura mínima	11.2
82924	7	Sololá	702	San José Chacayá	5	Chacayá	3	Marzo	2023-08-03T00:00:00	2024-11-06T22:00:00	5	Humedad	84
82925	7	Sololá	702	San José Chacayá	5	Chacayá	3	Marzo	2023-08-03T00:00:00	2024-11-06T22:00:00	6	Velocidad del viento	1.6
82926	7	Sololá	702	San José Chacayá	5	Chacayá	3	Marzo	2023-08-03T00:00:00	2024-11-06T22:00:00	7	Dirección del viento	1.61
82927	7	Sololá	702	San José Chacayá	5	Chacayá	3	Marzo	2023-08-03T00:00:00	2024-11-06T22:00:00	1	Precipitación	0
82928	7	Sololá	702	San José Chacayá	5	Chacayá	3	Marzo	2023-08-03T00:00:00	2024-11-06T22:00:00	8	Radiación solar	0
82929	7	Sololá	702	San José Chacayá	5	Chacayá	3	Marzo	2023-08-03T00:00:00	2024-11-06T23:00:00	2	Temperatura media	10.3
82930	7	Sololá	702	San José Chacayá	5	Chacayá	3	Marzo	2023-08-03T00:00:00	2024-11-06T23:00:00	4	Temperatura máxima	11.3
82931	7	Sololá	702	San José Chacayá	5	Chacayá	3	Marzo	2023-08-03T00:00:00	2024-11-06T23:00:00	3	Temperatura mínima	10.3
82932	7	Sololá	702	San José Chacayá	5	Chacayá	3	Marzo	2023-08-03T00:00:00	2024-11-06T23:00:00	5	Humedad	84
82933	7	Sololá	702	San José Chacayá	5	Chacayá	3	Marzo	2023-08-03T00:00:00	2024-11-06T23:00:00	6	Velocidad del viento	1.6
82934	7	Sololá	702	San José Chacayá	5	Chacayá	3	Marzo	2023-08-03T00:00:00	2024-11-06T23:00:00	7	Dirección del viento	1.61
82935	7	Sololá	702	San José Chacayá	5	Chacayá	3	Marzo	2023-08-03T00:00:00	2024-11-06T23:00:00	1	Precipitación	0
82936	7	Sololá	702	San José Chacayá	5	Chacayá	3	Marzo	2023-08-03T00:00:00	2024-11-06T23:00:00	8	Radiación solar	0
82937	7	Sololá	702	San José Chacayá	5	Chacayá	3	Marzo	2023-09-03T00:00:00	2024-11-06T00:00:00	2	Temperatura media	9.4
82938	7	Sololá	702	San José Chacayá	5	Chacayá	3	Marzo	2023-09-03T00:00:00	2024-11-06T00:00:00	4	Temperatura máxima	10.3
82939	7	Sololá	702	San José Chacayá	5	Chacayá	3	Marzo	2023-09-03T00:00:00	2024-11-06T00:00:00	3	Temperatura mínima	9.4
82940	7	Sololá	702	San José Chacayá	5	Chacayá	3	Marzo	2023-09-03T00:00:00	2024-11-06T00:00:00	5	Humedad	84
82941	7	Sololá	702	San José Chacayá	5	Chacayá	3	Marzo	2023-09-03T00:00:00	2024-11-06T00:00:00	6	Velocidad del viento	3.2
82942	7	Sololá	702	San José Chacayá	5	Chacayá	3	Marzo	2023-09-03T00:00:00	2024-11-06T00:00:00	7	Dirección del viento	3.22
82943	7	Sololá	702	San José Chacayá	5	Chacayá	3	Marzo	2023-09-03T00:00:00	2024-11-06T00:00:00	1	Precipitación	0
82944	7	Sololá	702	San José Chacayá	5	Chacayá	3	Marzo	2023-09-03T00:00:00	2024-11-06T00:00:00	8	Radiación solar	0
82945	7	Sololá	702	San José Chacayá	5	Chacayá	3	Marzo	2023-09-03T00:00:00	2024-11-06T01:00:00	2	Temperatura media	9
82946	7	Sololá	702	San José Chacayá	5	Chacayá	3	Marzo	2023-09-03T00:00:00	2024-11-06T01:00:00	4	Temperatura máxima	9.4
82947	7	Sololá	702	San José Chacayá	5	Chacayá	3	Marzo	2023-09-03T00:00:00	2024-11-06T01:00:00	3	Temperatura mínima	8.9
82948	7	Sololá	702	San José Chacayá	5	Chacayá	3	Marzo	2023-09-03T00:00:00	2024-11-06T01:00:00	5	Humedad	85
82949	7	Sololá	702	San José Chacayá	5	Chacayá	3	Marzo	2023-09-03T00:00:00	2024-11-06T01:00:00	6	Velocidad del viento	3.2
82950	7	Sololá	702	San José Chacayá	5	Chacayá	3	Marzo	2023-09-03T00:00:00	2024-11-06T01:00:00	7	Dirección del viento	3.22
82951	7	Sololá	702	San José Chacayá	5	Chacayá	3	Marzo	2023-09-03T00:00:00	2024-11-06T01:00:00	1	Precipitación	0
82952	7	Sololá	702	San José Chacayá	5	Chacayá	3	Marzo	2023-09-03T00:00:00	2024-11-06T01:00:00	8	Radiación solar	0
82953	7	Sololá	702	San José Chacayá	5	Chacayá	3	Marzo	2023-09-03T00:00:00	2024-11-06T02:00:00	2	Temperatura media	8.8
82954	7	Sololá	702	San José Chacayá	5	Chacayá	3	Marzo	2023-09-03T00:00:00	2024-11-06T02:00:00	4	Temperatura máxima	9.1
82955	7	Sololá	702	San José Chacayá	5	Chacayá	3	Marzo	2023-09-03T00:00:00	2024-11-06T02:00:00	3	Temperatura mínima	8.8
82956	7	Sololá	702	San José Chacayá	5	Chacayá	3	Marzo	2023-09-03T00:00:00	2024-11-06T02:00:00	5	Humedad	85
82957	7	Sololá	702	San José Chacayá	5	Chacayá	3	Marzo	2023-09-03T00:00:00	2024-11-06T02:00:00	6	Velocidad del viento	3.2
82958	7	Sololá	702	San José Chacayá	5	Chacayá	3	Marzo	2023-09-03T00:00:00	2024-11-06T02:00:00	7	Dirección del viento	3.22
82959	7	Sololá	702	San José Chacayá	5	Chacayá	3	Marzo	2023-09-03T00:00:00	2024-11-06T02:00:00	1	Precipitación	0
82960	7	Sololá	702	San José Chacayá	5	Chacayá	3	Marzo	2023-09-03T00:00:00	2024-11-06T02:00:00	8	Radiación solar	0
82961	7	Sololá	702	San José Chacayá	5	Chacayá	3	Marzo	2023-09-03T00:00:00	2024-11-06T03:00:00	2	Temperatura media	8.5
82962	7	Sololá	702	San José Chacayá	5	Chacayá	3	Marzo	2023-09-03T00:00:00	2024-11-06T03:00:00	4	Temperatura máxima	8.8
82963	7	Sololá	702	San José Chacayá	5	Chacayá	3	Marzo	2023-09-03T00:00:00	2024-11-06T03:00:00	3	Temperatura mínima	8.4
82964	7	Sololá	702	San José Chacayá	5	Chacayá	3	Marzo	2023-09-03T00:00:00	2024-11-06T03:00:00	5	Humedad	85
82965	7	Sololá	702	San José Chacayá	5	Chacayá	3	Marzo	2023-09-03T00:00:00	2024-11-06T03:00:00	6	Velocidad del viento	4.8
82966	7	Sololá	702	San José Chacayá	5	Chacayá	3	Marzo	2023-09-03T00:00:00	2024-11-06T03:00:00	7	Dirección del viento	4.83
82967	7	Sololá	702	San José Chacayá	5	Chacayá	3	Marzo	2023-09-03T00:00:00	2024-11-06T03:00:00	1	Precipitación	0
82968	7	Sololá	702	San José Chacayá	5	Chacayá	3	Marzo	2023-09-03T00:00:00	2024-11-06T03:00:00	8	Radiación solar	0
82969	7	Sololá	702	San José Chacayá	5	Chacayá	3	Marzo	2023-09-03T00:00:00	2024-11-06T04:00:00	2	Temperatura media	8.6
82970	7	Sololá	702	San José Chacayá	5	Chacayá	3	Marzo	2023-09-03T00:00:00	2024-11-06T04:00:00	4	Temperatura máxima	8.6
82971	7	Sololá	702	San José Chacayá	5	Chacayá	3	Marzo	2023-09-03T00:00:00	2024-11-06T04:00:00	3	Temperatura mínima	8.4
82972	7	Sololá	702	San José Chacayá	5	Chacayá	3	Marzo	2023-09-03T00:00:00	2024-11-06T04:00:00	5	Humedad	85
82973	7	Sololá	702	San José Chacayá	5	Chacayá	3	Marzo	2023-09-03T00:00:00	2024-11-06T04:00:00	6	Velocidad del viento	3.2
82974	7	Sololá	702	San José Chacayá	5	Chacayá	3	Marzo	2023-09-03T00:00:00	2024-11-06T04:00:00	7	Dirección del viento	3.22
82975	7	Sololá	702	San José Chacayá	5	Chacayá	3	Marzo	2023-09-03T00:00:00	2024-11-06T04:00:00	1	Precipitación	0
82976	7	Sololá	702	San José Chacayá	5	Chacayá	3	Marzo	2023-09-03T00:00:00	2024-11-06T04:00:00	8	Radiación solar	0
82977	7	Sololá	702	San José Chacayá	5	Chacayá	3	Marzo	2023-09-03T00:00:00	2024-11-06T05:00:00	2	Temperatura media	8.2
82978	7	Sololá	702	San José Chacayá	5	Chacayá	3	Marzo	2023-09-03T00:00:00	2024-11-06T05:00:00	4	Temperatura máxima	8.7
82979	7	Sololá	702	San José Chacayá	5	Chacayá	3	Marzo	2023-09-03T00:00:00	2024-11-06T05:00:00	3	Temperatura mínima	8.2
82980	7	Sololá	702	San José Chacayá	5	Chacayá	3	Marzo	2023-09-03T00:00:00	2024-11-06T05:00:00	5	Humedad	85
82981	7	Sololá	702	San José Chacayá	5	Chacayá	3	Marzo	2023-09-03T00:00:00	2024-11-06T05:00:00	6	Velocidad del viento	3.2
82982	7	Sololá	702	San José Chacayá	5	Chacayá	3	Marzo	2023-09-03T00:00:00	2024-11-06T05:00:00	7	Dirección del viento	3.22
82983	7	Sololá	702	San José Chacayá	5	Chacayá	3	Marzo	2023-09-03T00:00:00	2024-11-06T05:00:00	1	Precipitación	0
82984	7	Sololá	702	San José Chacayá	5	Chacayá	3	Marzo	2023-09-03T00:00:00	2024-11-06T05:00:00	8	Radiación solar	0
82985	7	Sololá	702	San José Chacayá	5	Chacayá	3	Marzo	2023-09-03T00:00:00	2024-11-06T06:00:00	2	Temperatura media	7.7
82986	7	Sololá	702	San José Chacayá	5	Chacayá	3	Marzo	2023-09-03T00:00:00	2024-11-06T06:00:00	4	Temperatura máxima	8.2
82987	7	Sololá	702	San José Chacayá	5	Chacayá	3	Marzo	2023-09-03T00:00:00	2024-11-06T06:00:00	3	Temperatura mínima	7.6
82988	7	Sololá	702	San José Chacayá	5	Chacayá	3	Marzo	2023-09-03T00:00:00	2024-11-06T06:00:00	5	Humedad	84
82989	7	Sololá	702	San José Chacayá	5	Chacayá	3	Marzo	2023-09-03T00:00:00	2024-11-06T06:00:00	6	Velocidad del viento	4.8
82990	7	Sololá	702	San José Chacayá	5	Chacayá	3	Marzo	2023-09-03T00:00:00	2024-11-06T06:00:00	7	Dirección del viento	4.83
82991	7	Sololá	702	San José Chacayá	5	Chacayá	3	Marzo	2023-09-03T00:00:00	2024-11-06T06:00:00	1	Precipitación	0
82992	7	Sololá	702	San José Chacayá	5	Chacayá	3	Marzo	2023-09-03T00:00:00	2024-11-06T06:00:00	8	Radiación solar	0
82993	7	Sololá	702	San José Chacayá	5	Chacayá	3	Marzo	2023-09-03T00:00:00	2024-11-06T07:00:00	2	Temperatura media	8.9
82994	7	Sololá	702	San José Chacayá	5	Chacayá	3	Marzo	2023-09-03T00:00:00	2024-11-06T07:00:00	4	Temperatura máxima	8.9
82995	7	Sololá	702	San José Chacayá	5	Chacayá	3	Marzo	2023-09-03T00:00:00	2024-11-06T07:00:00	3	Temperatura mínima	7.6
82996	7	Sololá	702	San José Chacayá	5	Chacayá	3	Marzo	2023-09-03T00:00:00	2024-11-06T07:00:00	5	Humedad	82
82997	7	Sololá	702	San José Chacayá	5	Chacayá	3	Marzo	2023-09-03T00:00:00	2024-11-06T07:00:00	6	Velocidad del viento	4.8
82998	7	Sololá	702	San José Chacayá	5	Chacayá	3	Marzo	2023-09-03T00:00:00	2024-11-06T07:00:00	7	Dirección del viento	4.83
82999	7	Sololá	702	San José Chacayá	5	Chacayá	3	Marzo	2023-09-03T00:00:00	2024-11-06T07:00:00	1	Precipitación	0
83000	7	Sololá	702	San José Chacayá	5	Chacayá	3	Marzo	2023-09-03T00:00:00	2024-11-06T07:00:00	8	Radiación solar	31
83001	7	Sololá	702	San José Chacayá	5	Chacayá	3	Marzo	2023-09-03T00:00:00	2024-11-06T08:00:00	2	Temperatura media	12.6
83002	7	Sololá	702	San José Chacayá	5	Chacayá	3	Marzo	2023-09-03T00:00:00	2024-11-06T08:00:00	4	Temperatura máxima	12.6
83003	7	Sololá	702	San José Chacayá	5	Chacayá	3	Marzo	2023-09-03T00:00:00	2024-11-06T08:00:00	3	Temperatura mínima	8.9
83004	7	Sololá	702	San José Chacayá	5	Chacayá	3	Marzo	2023-09-03T00:00:00	2024-11-06T08:00:00	5	Humedad	83
83005	7	Sololá	702	San José Chacayá	5	Chacayá	3	Marzo	2023-09-03T00:00:00	2024-11-06T08:00:00	6	Velocidad del viento	1.6
83006	7	Sololá	702	San José Chacayá	5	Chacayá	3	Marzo	2023-09-03T00:00:00	2024-11-06T08:00:00	7	Dirección del viento	1.61
83007	7	Sololá	702	San José Chacayá	5	Chacayá	3	Marzo	2023-09-03T00:00:00	2024-11-06T08:00:00	1	Precipitación	0
83008	7	Sololá	702	San José Chacayá	5	Chacayá	3	Marzo	2023-09-03T00:00:00	2024-11-06T08:00:00	8	Radiación solar	167
83009	7	Sololá	702	San José Chacayá	5	Chacayá	3	Marzo	2023-09-03T00:00:00	2024-11-06T09:00:00	2	Temperatura media	16.4
83010	7	Sololá	702	San José Chacayá	5	Chacayá	3	Marzo	2023-09-03T00:00:00	2024-11-06T09:00:00	4	Temperatura máxima	16.6
83011	7	Sololá	702	San José Chacayá	5	Chacayá	3	Marzo	2023-09-03T00:00:00	2024-11-06T09:00:00	3	Temperatura mínima	12.7
83012	7	Sololá	702	San José Chacayá	5	Chacayá	3	Marzo	2023-09-03T00:00:00	2024-11-06T09:00:00	5	Humedad	71
83013	7	Sololá	702	San José Chacayá	5	Chacayá	3	Marzo	2023-09-03T00:00:00	2024-11-06T09:00:00	6	Velocidad del viento	1.6
83014	7	Sololá	702	San José Chacayá	5	Chacayá	3	Marzo	2023-09-03T00:00:00	2024-11-06T09:00:00	7	Dirección del viento	1.61
83015	7	Sololá	702	San José Chacayá	5	Chacayá	3	Marzo	2023-09-03T00:00:00	2024-11-06T09:00:00	1	Precipitación	0
83016	7	Sololá	702	San José Chacayá	5	Chacayá	3	Marzo	2023-09-03T00:00:00	2024-11-06T09:00:00	8	Radiación solar	393
83017	7	Sololá	702	San José Chacayá	5	Chacayá	3	Marzo	2023-09-03T00:00:00	2024-11-06T10:00:00	2	Temperatura media	17.1
83018	7	Sololá	702	San José Chacayá	5	Chacayá	3	Marzo	2023-09-03T00:00:00	2024-11-06T10:00:00	4	Temperatura máxima	17.3
83019	7	Sololá	702	San José Chacayá	5	Chacayá	3	Marzo	2023-09-03T00:00:00	2024-11-06T10:00:00	3	Temperatura mínima	16.3
83020	7	Sololá	702	San José Chacayá	5	Chacayá	3	Marzo	2023-09-03T00:00:00	2024-11-06T10:00:00	5	Humedad	72
83021	7	Sololá	702	San José Chacayá	5	Chacayá	3	Marzo	2023-09-03T00:00:00	2024-11-06T10:00:00	6	Velocidad del viento	4.8
83022	7	Sololá	702	San José Chacayá	5	Chacayá	3	Marzo	2023-09-03T00:00:00	2024-11-06T10:00:00	7	Dirección del viento	4.83
83023	7	Sololá	702	San José Chacayá	5	Chacayá	3	Marzo	2023-09-03T00:00:00	2024-11-06T10:00:00	1	Precipitación	0
83024	7	Sololá	702	San José Chacayá	5	Chacayá	3	Marzo	2023-09-03T00:00:00	2024-11-06T10:00:00	8	Radiación solar	469
83025	7	Sololá	702	San José Chacayá	5	Chacayá	3	Marzo	2023-09-03T00:00:00	2024-11-06T11:00:00	2	Temperatura media	19
83026	7	Sololá	702	San José Chacayá	5	Chacayá	3	Marzo	2023-09-03T00:00:00	2024-11-06T11:00:00	4	Temperatura máxima	19.1
83027	7	Sololá	702	San José Chacayá	5	Chacayá	3	Marzo	2023-09-03T00:00:00	2024-11-06T11:00:00	3	Temperatura mínima	16.7
83028	7	Sololá	702	San José Chacayá	5	Chacayá	3	Marzo	2023-09-03T00:00:00	2024-11-06T11:00:00	5	Humedad	66
83029	7	Sololá	702	San José Chacayá	5	Chacayá	3	Marzo	2023-09-03T00:00:00	2024-11-06T11:00:00	6	Velocidad del viento	4.8
83030	7	Sololá	702	San José Chacayá	5	Chacayá	3	Marzo	2023-09-03T00:00:00	2024-11-06T11:00:00	7	Dirección del viento	4.83
83031	7	Sololá	702	San José Chacayá	5	Chacayá	3	Marzo	2023-09-03T00:00:00	2024-11-06T11:00:00	1	Precipitación	0
83032	7	Sololá	702	San José Chacayá	5	Chacayá	3	Marzo	2023-09-03T00:00:00	2024-11-06T11:00:00	8	Radiación solar	647
83033	7	Sololá	702	San José Chacayá	5	Chacayá	3	Marzo	2023-09-03T00:00:00	2024-11-06T12:00:00	2	Temperatura media	20.1
83034	7	Sololá	702	San José Chacayá	5	Chacayá	3	Marzo	2023-09-03T00:00:00	2024-11-06T12:00:00	4	Temperatura máxima	20.1
83035	7	Sololá	702	San José Chacayá	5	Chacayá	3	Marzo	2023-09-03T00:00:00	2024-11-06T12:00:00	3	Temperatura mínima	19
83036	7	Sololá	702	San José Chacayá	5	Chacayá	3	Marzo	2023-09-03T00:00:00	2024-11-06T12:00:00	5	Humedad	65
83037	7	Sololá	702	San José Chacayá	5	Chacayá	3	Marzo	2023-09-03T00:00:00	2024-11-06T12:00:00	6	Velocidad del viento	6.4
83038	7	Sololá	702	San José Chacayá	5	Chacayá	3	Marzo	2023-09-03T00:00:00	2024-11-06T12:00:00	7	Dirección del viento	6.44
83039	7	Sololá	702	San José Chacayá	5	Chacayá	3	Marzo	2023-09-03T00:00:00	2024-11-06T12:00:00	1	Precipitación	0
83040	7	Sololá	702	San José Chacayá	5	Chacayá	3	Marzo	2023-09-03T00:00:00	2024-11-06T12:00:00	8	Radiación solar	942
83041	7	Sololá	702	San José Chacayá	5	Chacayá	3	Marzo	2023-09-03T00:00:00	2024-11-06T13:00:00	2	Temperatura media	18.8
83042	7	Sololá	702	San José Chacayá	5	Chacayá	3	Marzo	2023-09-03T00:00:00	2024-11-06T13:00:00	4	Temperatura máxima	20.6
83043	7	Sololá	702	San José Chacayá	5	Chacayá	3	Marzo	2023-09-03T00:00:00	2024-11-06T13:00:00	3	Temperatura mínima	18.8
83044	7	Sololá	702	San José Chacayá	5	Chacayá	3	Marzo	2023-09-03T00:00:00	2024-11-06T13:00:00	5	Humedad	73
83045	7	Sololá	702	San José Chacayá	5	Chacayá	3	Marzo	2023-09-03T00:00:00	2024-11-06T13:00:00	6	Velocidad del viento	8
83046	7	Sololá	702	San José Chacayá	5	Chacayá	3	Marzo	2023-09-03T00:00:00	2024-11-06T13:00:00	7	Dirección del viento	8.05
83047	7	Sololá	702	San José Chacayá	5	Chacayá	3	Marzo	2023-09-03T00:00:00	2024-11-06T13:00:00	1	Precipitación	0
83048	7	Sololá	702	San José Chacayá	5	Chacayá	3	Marzo	2023-09-03T00:00:00	2024-11-06T13:00:00	8	Radiación solar	981
83049	7	Sololá	702	San José Chacayá	5	Chacayá	3	Marzo	2023-09-03T00:00:00	2024-11-06T14:00:00	2	Temperatura media	18.3
83050	7	Sololá	702	San José Chacayá	5	Chacayá	3	Marzo	2023-09-03T00:00:00	2024-11-06T14:00:00	4	Temperatura máxima	18.8
83051	7	Sololá	702	San José Chacayá	5	Chacayá	3	Marzo	2023-09-03T00:00:00	2024-11-06T14:00:00	3	Temperatura mínima	18
83052	7	Sololá	702	San José Chacayá	5	Chacayá	3	Marzo	2023-09-03T00:00:00	2024-11-06T14:00:00	5	Humedad	76
83053	7	Sololá	702	San José Chacayá	5	Chacayá	3	Marzo	2023-09-03T00:00:00	2024-11-06T14:00:00	6	Velocidad del viento	6.4
83054	7	Sololá	702	San José Chacayá	5	Chacayá	3	Marzo	2023-09-03T00:00:00	2024-11-06T14:00:00	7	Dirección del viento	6.44
83055	7	Sololá	702	San José Chacayá	5	Chacayá	3	Marzo	2023-09-03T00:00:00	2024-11-06T14:00:00	1	Precipitación	0
83056	7	Sololá	702	San José Chacayá	5	Chacayá	3	Marzo	2023-09-03T00:00:00	2024-11-06T14:00:00	8	Radiación solar	495
83057	7	Sololá	702	San José Chacayá	5	Chacayá	3	Marzo	2023-09-03T00:00:00	2024-11-06T15:00:00	2	Temperatura media	17.5
83058	7	Sololá	702	San José Chacayá	5	Chacayá	3	Marzo	2023-09-03T00:00:00	2024-11-06T15:00:00	4	Temperatura máxima	18.3
83059	7	Sololá	702	San José Chacayá	5	Chacayá	3	Marzo	2023-09-03T00:00:00	2024-11-06T15:00:00	3	Temperatura mínima	17.4
83060	7	Sololá	702	San José Chacayá	5	Chacayá	3	Marzo	2023-09-03T00:00:00	2024-11-06T15:00:00	5	Humedad	79
83061	7	Sololá	702	San José Chacayá	5	Chacayá	3	Marzo	2023-09-03T00:00:00	2024-11-06T15:00:00	6	Velocidad del viento	6.4
83062	7	Sololá	702	San José Chacayá	5	Chacayá	3	Marzo	2023-09-03T00:00:00	2024-11-06T15:00:00	7	Dirección del viento	6.44
83063	7	Sololá	702	San José Chacayá	5	Chacayá	3	Marzo	2023-09-03T00:00:00	2024-11-06T15:00:00	1	Precipitación	0
83064	7	Sololá	702	San José Chacayá	5	Chacayá	3	Marzo	2023-09-03T00:00:00	2024-11-06T15:00:00	8	Radiación solar	407
83065	7	Sololá	702	San José Chacayá	5	Chacayá	3	Marzo	2023-09-03T00:00:00	2024-11-06T16:00:00	2	Temperatura media	16.7
83066	7	Sololá	702	San José Chacayá	5	Chacayá	3	Marzo	2023-09-03T00:00:00	2024-11-06T16:00:00	4	Temperatura máxima	17.7
83067	7	Sololá	702	San José Chacayá	5	Chacayá	3	Marzo	2023-09-03T00:00:00	2024-11-06T16:00:00	3	Temperatura mínima	16.6
83068	7	Sololá	702	San José Chacayá	5	Chacayá	3	Marzo	2023-09-03T00:00:00	2024-11-06T16:00:00	5	Humedad	81
83069	7	Sololá	702	San José Chacayá	5	Chacayá	3	Marzo	2023-09-03T00:00:00	2024-11-06T16:00:00	6	Velocidad del viento	6.4
83070	7	Sololá	702	San José Chacayá	5	Chacayá	3	Marzo	2023-09-03T00:00:00	2024-11-06T16:00:00	7	Dirección del viento	6.44
83071	7	Sololá	702	San José Chacayá	5	Chacayá	3	Marzo	2023-09-03T00:00:00	2024-11-06T16:00:00	1	Precipitación	0
83072	7	Sololá	702	San José Chacayá	5	Chacayá	3	Marzo	2023-09-03T00:00:00	2024-11-06T16:00:00	8	Radiación solar	282
83073	7	Sololá	702	San José Chacayá	5	Chacayá	3	Marzo	2023-09-03T00:00:00	2024-11-06T17:00:00	2	Temperatura media	16.5
83074	7	Sololá	702	San José Chacayá	5	Chacayá	3	Marzo	2023-09-03T00:00:00	2024-11-06T17:00:00	4	Temperatura máxima	17.2
83075	7	Sololá	702	San José Chacayá	5	Chacayá	3	Marzo	2023-09-03T00:00:00	2024-11-06T17:00:00	3	Temperatura mínima	16.5
83076	7	Sololá	702	San José Chacayá	5	Chacayá	3	Marzo	2023-09-03T00:00:00	2024-11-06T17:00:00	5	Humedad	81
83077	7	Sololá	702	San José Chacayá	5	Chacayá	3	Marzo	2023-09-03T00:00:00	2024-11-06T17:00:00	6	Velocidad del viento	4.8
83078	7	Sololá	702	San José Chacayá	5	Chacayá	3	Marzo	2023-09-03T00:00:00	2024-11-06T17:00:00	7	Dirección del viento	4.83
83079	7	Sololá	702	San José Chacayá	5	Chacayá	3	Marzo	2023-09-03T00:00:00	2024-11-06T17:00:00	1	Precipitación	0
83080	7	Sololá	702	San José Chacayá	5	Chacayá	3	Marzo	2023-09-03T00:00:00	2024-11-06T17:00:00	8	Radiación solar	184
83081	7	Sololá	702	San José Chacayá	5	Chacayá	3	Marzo	2023-09-03T00:00:00	2024-11-06T18:00:00	2	Temperatura media	15.6
83082	7	Sololá	702	San José Chacayá	5	Chacayá	3	Marzo	2023-09-03T00:00:00	2024-11-06T18:00:00	4	Temperatura máxima	16.5
83083	7	Sololá	702	San José Chacayá	5	Chacayá	3	Marzo	2023-09-03T00:00:00	2024-11-06T18:00:00	3	Temperatura mínima	15.6
83084	7	Sololá	702	San José Chacayá	5	Chacayá	3	Marzo	2023-09-03T00:00:00	2024-11-06T18:00:00	5	Humedad	84
83085	7	Sololá	702	San José Chacayá	5	Chacayá	3	Marzo	2023-09-03T00:00:00	2024-11-06T18:00:00	6	Velocidad del viento	1.6
83086	7	Sololá	702	San José Chacayá	5	Chacayá	3	Marzo	2023-09-03T00:00:00	2024-11-06T18:00:00	7	Dirección del viento	1.61
83087	7	Sololá	702	San José Chacayá	5	Chacayá	3	Marzo	2023-09-03T00:00:00	2024-11-06T18:00:00	1	Precipitación	0
83088	7	Sololá	702	San José Chacayá	5	Chacayá	3	Marzo	2023-09-03T00:00:00	2024-11-06T18:00:00	8	Radiación solar	56
83089	7	Sololá	702	San José Chacayá	5	Chacayá	3	Marzo	2023-09-03T00:00:00	2024-11-06T19:00:00	2	Temperatura media	14.9
83090	7	Sololá	702	San José Chacayá	5	Chacayá	3	Marzo	2023-09-03T00:00:00	2024-11-06T19:00:00	4	Temperatura máxima	15.6
83091	7	Sololá	702	San José Chacayá	5	Chacayá	3	Marzo	2023-09-03T00:00:00	2024-11-06T19:00:00	3	Temperatura mínima	14.8
83092	7	Sololá	702	San José Chacayá	5	Chacayá	3	Marzo	2023-09-03T00:00:00	2024-11-06T19:00:00	5	Humedad	81
83093	7	Sololá	702	San José Chacayá	5	Chacayá	3	Marzo	2023-09-03T00:00:00	2024-11-06T19:00:00	6	Velocidad del viento	0
83094	7	Sololá	702	San José Chacayá	5	Chacayá	3	Marzo	2023-09-03T00:00:00	2024-11-06T19:00:00	7	Dirección del viento	0
83095	7	Sololá	702	San José Chacayá	5	Chacayá	3	Marzo	2023-09-03T00:00:00	2024-11-06T19:00:00	1	Precipitación	0
83096	7	Sololá	702	San José Chacayá	5	Chacayá	3	Marzo	2023-09-03T00:00:00	2024-11-06T19:00:00	8	Radiación solar	0
83097	7	Sololá	702	San José Chacayá	5	Chacayá	3	Marzo	2023-09-03T00:00:00	2024-11-06T20:00:00	2	Temperatura media	14.4
83098	7	Sololá	702	San José Chacayá	5	Chacayá	3	Marzo	2023-09-03T00:00:00	2024-11-06T20:00:00	4	Temperatura máxima	14.9
83099	7	Sololá	702	San José Chacayá	5	Chacayá	3	Marzo	2023-09-03T00:00:00	2024-11-06T20:00:00	3	Temperatura mínima	14.4
83100	7	Sololá	702	San José Chacayá	5	Chacayá	3	Marzo	2023-09-03T00:00:00	2024-11-06T20:00:00	5	Humedad	81
83101	7	Sololá	702	San José Chacayá	5	Chacayá	3	Marzo	2023-09-03T00:00:00	2024-11-06T20:00:00	6	Velocidad del viento	0
83102	7	Sololá	702	San José Chacayá	5	Chacayá	3	Marzo	2023-09-03T00:00:00	2024-11-06T20:00:00	7	Dirección del viento	0
83103	7	Sololá	702	San José Chacayá	5	Chacayá	3	Marzo	2023-09-03T00:00:00	2024-11-06T20:00:00	1	Precipitación	0
83104	7	Sololá	702	San José Chacayá	5	Chacayá	3	Marzo	2023-09-03T00:00:00	2024-11-06T20:00:00	8	Radiación solar	0
83105	7	Sololá	702	San José Chacayá	5	Chacayá	3	Marzo	2023-09-03T00:00:00	2024-11-06T21:00:00	2	Temperatura media	12.6
83106	7	Sololá	702	San José Chacayá	5	Chacayá	3	Marzo	2023-09-03T00:00:00	2024-11-06T21:00:00	4	Temperatura máxima	14.4
83107	7	Sololá	702	San José Chacayá	5	Chacayá	3	Marzo	2023-09-03T00:00:00	2024-11-06T21:00:00	3	Temperatura mínima	12.5
83108	7	Sololá	702	San José Chacayá	5	Chacayá	3	Marzo	2023-09-03T00:00:00	2024-11-06T21:00:00	5	Humedad	84
83109	7	Sololá	702	San José Chacayá	5	Chacayá	3	Marzo	2023-09-03T00:00:00	2024-11-06T21:00:00	6	Velocidad del viento	0
83110	7	Sololá	702	San José Chacayá	5	Chacayá	3	Marzo	2023-09-03T00:00:00	2024-11-06T21:00:00	7	Dirección del viento	0
83111	7	Sololá	702	San José Chacayá	5	Chacayá	3	Marzo	2023-09-03T00:00:00	2024-11-06T21:00:00	1	Precipitación	0
83112	7	Sololá	702	San José Chacayá	5	Chacayá	3	Marzo	2023-09-03T00:00:00	2024-11-06T21:00:00	8	Radiación solar	0
83113	7	Sololá	702	San José Chacayá	5	Chacayá	3	Marzo	2023-09-03T00:00:00	2024-11-06T22:00:00	2	Temperatura media	12.2
83114	7	Sololá	702	San José Chacayá	5	Chacayá	3	Marzo	2023-09-03T00:00:00	2024-11-06T22:00:00	4	Temperatura máxima	12.7
83115	7	Sololá	702	San José Chacayá	5	Chacayá	3	Marzo	2023-09-03T00:00:00	2024-11-06T22:00:00	3	Temperatura mínima	12.2
83116	7	Sololá	702	San José Chacayá	5	Chacayá	3	Marzo	2023-09-03T00:00:00	2024-11-06T22:00:00	5	Humedad	83
83117	7	Sololá	702	San José Chacayá	5	Chacayá	3	Marzo	2023-09-03T00:00:00	2024-11-06T22:00:00	6	Velocidad del viento	0
83118	7	Sololá	702	San José Chacayá	5	Chacayá	3	Marzo	2023-09-03T00:00:00	2024-11-06T22:00:00	7	Dirección del viento	0
83119	7	Sololá	702	San José Chacayá	5	Chacayá	3	Marzo	2023-09-03T00:00:00	2024-11-06T22:00:00	1	Precipitación	0
83120	7	Sololá	702	San José Chacayá	5	Chacayá	3	Marzo	2023-09-03T00:00:00	2024-11-06T22:00:00	8	Radiación solar	0
83121	7	Sololá	702	San José Chacayá	5	Chacayá	3	Marzo	2023-09-03T00:00:00	2024-11-06T23:00:00	2	Temperatura media	10
83122	7	Sololá	702	San José Chacayá	5	Chacayá	3	Marzo	2023-09-03T00:00:00	2024-11-06T23:00:00	4	Temperatura máxima	12.2
83123	7	Sololá	702	San José Chacayá	5	Chacayá	3	Marzo	2023-09-03T00:00:00	2024-11-06T23:00:00	3	Temperatura mínima	10
83124	7	Sololá	702	San José Chacayá	5	Chacayá	3	Marzo	2023-09-03T00:00:00	2024-11-06T23:00:00	5	Humedad	84
83125	7	Sololá	702	San José Chacayá	5	Chacayá	3	Marzo	2023-09-03T00:00:00	2024-11-06T23:00:00	6	Velocidad del viento	0
83126	7	Sololá	702	San José Chacayá	5	Chacayá	3	Marzo	2023-09-03T00:00:00	2024-11-06T23:00:00	7	Dirección del viento	0
83127	7	Sololá	702	San José Chacayá	5	Chacayá	3	Marzo	2023-09-03T00:00:00	2024-11-06T23:00:00	1	Precipitación	0
83128	7	Sololá	702	San José Chacayá	5	Chacayá	3	Marzo	2023-09-03T00:00:00	2024-11-06T23:00:00	8	Radiación solar	0
83129	7	Sololá	702	San José Chacayá	5	Chacayá	3	Marzo	2023-10-03T00:00:00	2024-11-06T00:00:00	2	Temperatura media	9.4
83130	7	Sololá	702	San José Chacayá	5	Chacayá	3	Marzo	2023-10-03T00:00:00	2024-11-06T00:00:00	4	Temperatura máxima	10
83131	7	Sololá	702	San José Chacayá	5	Chacayá	3	Marzo	2023-10-03T00:00:00	2024-11-06T00:00:00	3	Temperatura mínima	9.4
83132	7	Sololá	702	San José Chacayá	5	Chacayá	3	Marzo	2023-10-03T00:00:00	2024-11-06T00:00:00	5	Humedad	84
83133	7	Sololá	702	San José Chacayá	5	Chacayá	3	Marzo	2023-10-03T00:00:00	2024-11-06T00:00:00	6	Velocidad del viento	3.2
83134	7	Sololá	702	San José Chacayá	5	Chacayá	3	Marzo	2023-10-03T00:00:00	2024-11-06T00:00:00	7	Dirección del viento	3.22
83135	7	Sololá	702	San José Chacayá	5	Chacayá	3	Marzo	2023-10-03T00:00:00	2024-11-06T00:00:00	1	Precipitación	0
83136	7	Sololá	702	San José Chacayá	5	Chacayá	3	Marzo	2023-10-03T00:00:00	2024-11-06T00:00:00	8	Radiación solar	0
83137	7	Sololá	702	San José Chacayá	5	Chacayá	3	Marzo	2023-10-03T00:00:00	2024-11-06T01:00:00	2	Temperatura media	9.2
83138	7	Sololá	702	San José Chacayá	5	Chacayá	3	Marzo	2023-10-03T00:00:00	2024-11-06T01:00:00	4	Temperatura máxima	9.6
83139	7	Sololá	702	San José Chacayá	5	Chacayá	3	Marzo	2023-10-03T00:00:00	2024-11-06T01:00:00	3	Temperatura mínima	9.2
83140	7	Sololá	702	San José Chacayá	5	Chacayá	3	Marzo	2023-10-03T00:00:00	2024-11-06T01:00:00	5	Humedad	84
83141	7	Sololá	702	San José Chacayá	5	Chacayá	3	Marzo	2023-10-03T00:00:00	2024-11-06T01:00:00	6	Velocidad del viento	6.4
83142	7	Sololá	702	San José Chacayá	5	Chacayá	3	Marzo	2023-10-03T00:00:00	2024-11-06T01:00:00	7	Dirección del viento	6.44
83143	7	Sololá	702	San José Chacayá	5	Chacayá	3	Marzo	2023-10-03T00:00:00	2024-11-06T01:00:00	1	Precipitación	0
83144	7	Sololá	702	San José Chacayá	5	Chacayá	3	Marzo	2023-10-03T00:00:00	2024-11-06T01:00:00	8	Radiación solar	0
83145	7	Sololá	702	San José Chacayá	5	Chacayá	3	Marzo	2023-10-03T00:00:00	2024-11-06T02:00:00	2	Temperatura media	8.2
83146	7	Sololá	702	San José Chacayá	5	Chacayá	3	Marzo	2023-10-03T00:00:00	2024-11-06T02:00:00	4	Temperatura máxima	9.2
83147	7	Sololá	702	San José Chacayá	5	Chacayá	3	Marzo	2023-10-03T00:00:00	2024-11-06T02:00:00	3	Temperatura mínima	8.2
83148	7	Sololá	702	San José Chacayá	5	Chacayá	3	Marzo	2023-10-03T00:00:00	2024-11-06T02:00:00	5	Humedad	84
83149	7	Sololá	702	San José Chacayá	5	Chacayá	3	Marzo	2023-10-03T00:00:00	2024-11-06T02:00:00	6	Velocidad del viento	3.2
83150	7	Sololá	702	San José Chacayá	5	Chacayá	3	Marzo	2023-10-03T00:00:00	2024-11-06T02:00:00	7	Dirección del viento	3.22
83151	7	Sololá	702	San José Chacayá	5	Chacayá	3	Marzo	2023-10-03T00:00:00	2024-11-06T02:00:00	1	Precipitación	0
83152	7	Sololá	702	San José Chacayá	5	Chacayá	3	Marzo	2023-10-03T00:00:00	2024-11-06T02:00:00	8	Radiación solar	0
83153	7	Sololá	702	San José Chacayá	5	Chacayá	3	Marzo	2023-10-03T00:00:00	2024-11-06T03:00:00	2	Temperatura media	8.2
83154	7	Sololá	702	San José Chacayá	5	Chacayá	3	Marzo	2023-10-03T00:00:00	2024-11-06T03:00:00	4	Temperatura máxima	8.6
83155	7	Sololá	702	San José Chacayá	5	Chacayá	3	Marzo	2023-10-03T00:00:00	2024-11-06T03:00:00	3	Temperatura mínima	8.1
83156	7	Sololá	702	San José Chacayá	5	Chacayá	3	Marzo	2023-10-03T00:00:00	2024-11-06T03:00:00	5	Humedad	83
83157	7	Sololá	702	San José Chacayá	5	Chacayá	3	Marzo	2023-10-03T00:00:00	2024-11-06T03:00:00	6	Velocidad del viento	3.2
83158	7	Sololá	702	San José Chacayá	5	Chacayá	3	Marzo	2023-10-03T00:00:00	2024-11-06T03:00:00	7	Dirección del viento	3.22
83159	7	Sololá	702	San José Chacayá	5	Chacayá	3	Marzo	2023-10-03T00:00:00	2024-11-06T03:00:00	1	Precipitación	0
83160	7	Sololá	702	San José Chacayá	5	Chacayá	3	Marzo	2023-10-03T00:00:00	2024-11-06T03:00:00	8	Radiación solar	0
83161	7	Sololá	702	San José Chacayá	5	Chacayá	3	Marzo	2023-10-03T00:00:00	2024-11-06T04:00:00	2	Temperatura media	7.8
83162	7	Sololá	702	San José Chacayá	5	Chacayá	3	Marzo	2023-10-03T00:00:00	2024-11-06T04:00:00	4	Temperatura máxima	8.4
83163	7	Sololá	702	San José Chacayá	5	Chacayá	3	Marzo	2023-10-03T00:00:00	2024-11-06T04:00:00	3	Temperatura mínima	7.8
83164	7	Sololá	702	San José Chacayá	5	Chacayá	3	Marzo	2023-10-03T00:00:00	2024-11-06T04:00:00	5	Humedad	83
83165	7	Sololá	702	San José Chacayá	5	Chacayá	3	Marzo	2023-10-03T00:00:00	2024-11-06T04:00:00	6	Velocidad del viento	3.2
83166	7	Sololá	702	San José Chacayá	5	Chacayá	3	Marzo	2023-10-03T00:00:00	2024-11-06T04:00:00	7	Dirección del viento	3.22
83167	7	Sololá	702	San José Chacayá	5	Chacayá	3	Marzo	2023-10-03T00:00:00	2024-11-06T04:00:00	1	Precipitación	0
83168	7	Sololá	702	San José Chacayá	5	Chacayá	3	Marzo	2023-10-03T00:00:00	2024-11-06T04:00:00	8	Radiación solar	0
83169	7	Sololá	702	San José Chacayá	5	Chacayá	3	Marzo	2023-10-03T00:00:00	2024-11-06T05:00:00	2	Temperatura media	8.1
83170	7	Sololá	702	San José Chacayá	5	Chacayá	3	Marzo	2023-10-03T00:00:00	2024-11-06T05:00:00	4	Temperatura máxima	8.3
83171	7	Sololá	702	San José Chacayá	5	Chacayá	3	Marzo	2023-10-03T00:00:00	2024-11-06T05:00:00	3	Temperatura mínima	7.7
83172	7	Sololá	702	San José Chacayá	5	Chacayá	3	Marzo	2023-10-03T00:00:00	2024-11-06T05:00:00	5	Humedad	81
83173	7	Sololá	702	San José Chacayá	5	Chacayá	3	Marzo	2023-10-03T00:00:00	2024-11-06T05:00:00	6	Velocidad del viento	3.2
83174	7	Sololá	702	San José Chacayá	5	Chacayá	3	Marzo	2023-10-03T00:00:00	2024-11-06T05:00:00	7	Dirección del viento	3.22
83175	7	Sololá	702	San José Chacayá	5	Chacayá	3	Marzo	2023-10-03T00:00:00	2024-11-06T05:00:00	1	Precipitación	0
83176	7	Sololá	702	San José Chacayá	5	Chacayá	3	Marzo	2023-10-03T00:00:00	2024-11-06T05:00:00	8	Radiación solar	0
83177	7	Sololá	702	San José Chacayá	5	Chacayá	3	Marzo	2023-10-03T00:00:00	2024-11-06T06:00:00	2	Temperatura media	8.6
83178	7	Sololá	702	San José Chacayá	5	Chacayá	3	Marzo	2023-10-03T00:00:00	2024-11-06T06:00:00	4	Temperatura máxima	8.6
83179	7	Sololá	702	San José Chacayá	5	Chacayá	3	Marzo	2023-10-03T00:00:00	2024-11-06T06:00:00	3	Temperatura mínima	7.6
83180	7	Sololá	702	San José Chacayá	5	Chacayá	3	Marzo	2023-10-03T00:00:00	2024-11-06T06:00:00	5	Humedad	82
83181	7	Sololá	702	San José Chacayá	5	Chacayá	3	Marzo	2023-10-03T00:00:00	2024-11-06T06:00:00	6	Velocidad del viento	3.2
83182	7	Sololá	702	San José Chacayá	5	Chacayá	3	Marzo	2023-10-03T00:00:00	2024-11-06T06:00:00	7	Dirección del viento	3.22
83183	7	Sololá	702	San José Chacayá	5	Chacayá	3	Marzo	2023-10-03T00:00:00	2024-11-06T06:00:00	1	Precipitación	0
83184	7	Sololá	702	San José Chacayá	5	Chacayá	3	Marzo	2023-10-03T00:00:00	2024-11-06T06:00:00	8	Radiación solar	0
83185	7	Sololá	702	San José Chacayá	5	Chacayá	3	Marzo	2023-10-03T00:00:00	2024-11-06T07:00:00	2	Temperatura media	8.8
83186	7	Sololá	702	San José Chacayá	5	Chacayá	3	Marzo	2023-10-03T00:00:00	2024-11-06T07:00:00	4	Temperatura máxima	8.8
83187	7	Sololá	702	San José Chacayá	5	Chacayá	3	Marzo	2023-10-03T00:00:00	2024-11-06T07:00:00	3	Temperatura mínima	8.6
83188	7	Sololá	702	San José Chacayá	5	Chacayá	3	Marzo	2023-10-03T00:00:00	2024-11-06T07:00:00	5	Humedad	82
83189	7	Sololá	702	San José Chacayá	5	Chacayá	3	Marzo	2023-10-03T00:00:00	2024-11-06T07:00:00	6	Velocidad del viento	1.6
83190	7	Sololá	702	San José Chacayá	5	Chacayá	3	Marzo	2023-10-03T00:00:00	2024-11-06T07:00:00	7	Dirección del viento	1.61
83191	7	Sololá	702	San José Chacayá	5	Chacayá	3	Marzo	2023-10-03T00:00:00	2024-11-06T07:00:00	1	Precipitación	0
83192	7	Sololá	702	San José Chacayá	5	Chacayá	3	Marzo	2023-10-03T00:00:00	2024-11-06T07:00:00	8	Radiación solar	16
83193	7	Sololá	702	San José Chacayá	5	Chacayá	3	Marzo	2023-10-03T00:00:00	2024-11-06T08:00:00	2	Temperatura media	11.5
83194	7	Sololá	702	San José Chacayá	5	Chacayá	3	Marzo	2023-10-03T00:00:00	2024-11-06T08:00:00	4	Temperatura máxima	11.5
83195	7	Sololá	702	San José Chacayá	5	Chacayá	3	Marzo	2023-10-03T00:00:00	2024-11-06T08:00:00	3	Temperatura mínima	8.8
83196	7	Sololá	702	San José Chacayá	5	Chacayá	3	Marzo	2023-10-03T00:00:00	2024-11-06T08:00:00	5	Humedad	85
83197	7	Sololá	702	San José Chacayá	5	Chacayá	3	Marzo	2023-10-03T00:00:00	2024-11-06T08:00:00	6	Velocidad del viento	1.6
83198	7	Sololá	702	San José Chacayá	5	Chacayá	3	Marzo	2023-10-03T00:00:00	2024-11-06T08:00:00	7	Dirección del viento	1.61
83199	7	Sololá	702	San José Chacayá	5	Chacayá	3	Marzo	2023-10-03T00:00:00	2024-11-06T08:00:00	1	Precipitación	0
83200	7	Sololá	702	San José Chacayá	5	Chacayá	3	Marzo	2023-10-03T00:00:00	2024-11-06T08:00:00	8	Radiación solar	84
83201	7	Sololá	702	San José Chacayá	5	Chacayá	3	Marzo	2023-10-03T00:00:00	2024-11-06T09:00:00	2	Temperatura media	14.5
83202	7	Sololá	702	San José Chacayá	5	Chacayá	3	Marzo	2023-10-03T00:00:00	2024-11-06T09:00:00	4	Temperatura máxima	14.5
83203	7	Sololá	702	San José Chacayá	5	Chacayá	3	Marzo	2023-10-03T00:00:00	2024-11-06T09:00:00	3	Temperatura mínima	11.5
83204	7	Sololá	702	San José Chacayá	5	Chacayá	3	Marzo	2023-10-03T00:00:00	2024-11-06T09:00:00	5	Humedad	83
83205	7	Sololá	702	San José Chacayá	5	Chacayá	3	Marzo	2023-10-03T00:00:00	2024-11-06T09:00:00	6	Velocidad del viento	1.6
83206	7	Sololá	702	San José Chacayá	5	Chacayá	3	Marzo	2023-10-03T00:00:00	2024-11-06T09:00:00	7	Dirección del viento	1.61
83207	7	Sololá	702	San José Chacayá	5	Chacayá	3	Marzo	2023-10-03T00:00:00	2024-11-06T09:00:00	1	Precipitación	0
83208	7	Sololá	702	San José Chacayá	5	Chacayá	3	Marzo	2023-10-03T00:00:00	2024-11-06T09:00:00	8	Radiación solar	223
83209	7	Sololá	702	San José Chacayá	5	Chacayá	3	Marzo	2023-10-03T00:00:00	2024-11-06T10:00:00	2	Temperatura media	15.1
83210	7	Sololá	702	San José Chacayá	5	Chacayá	3	Marzo	2023-10-03T00:00:00	2024-11-06T10:00:00	4	Temperatura máxima	15.2
83211	7	Sololá	702	San José Chacayá	5	Chacayá	3	Marzo	2023-10-03T00:00:00	2024-11-06T10:00:00	3	Temperatura mínima	14.4
83212	7	Sololá	702	San José Chacayá	5	Chacayá	3	Marzo	2023-10-03T00:00:00	2024-11-06T10:00:00	5	Humedad	82
83213	7	Sololá	702	San José Chacayá	5	Chacayá	3	Marzo	2023-10-03T00:00:00	2024-11-06T10:00:00	6	Velocidad del viento	4.8
83214	7	Sololá	702	San José Chacayá	5	Chacayá	3	Marzo	2023-10-03T00:00:00	2024-11-06T10:00:00	7	Dirección del viento	4.83
83215	7	Sololá	702	San José Chacayá	5	Chacayá	3	Marzo	2023-10-03T00:00:00	2024-11-06T10:00:00	1	Precipitación	0
83216	7	Sololá	702	San José Chacayá	5	Chacayá	3	Marzo	2023-10-03T00:00:00	2024-11-06T10:00:00	8	Radiación solar	341
83217	7	Sololá	702	San José Chacayá	5	Chacayá	3	Marzo	2023-10-03T00:00:00	2024-11-06T11:00:00	2	Temperatura media	14.3
83218	7	Sololá	702	San José Chacayá	5	Chacayá	3	Marzo	2023-10-03T00:00:00	2024-11-06T11:00:00	4	Temperatura máxima	15.4
83219	7	Sololá	702	San José Chacayá	5	Chacayá	3	Marzo	2023-10-03T00:00:00	2024-11-06T11:00:00	3	Temperatura mínima	14.3
83220	7	Sololá	702	San José Chacayá	5	Chacayá	3	Marzo	2023-10-03T00:00:00	2024-11-06T11:00:00	5	Humedad	82
83221	7	Sololá	702	San José Chacayá	5	Chacayá	3	Marzo	2023-10-03T00:00:00	2024-11-06T11:00:00	6	Velocidad del viento	6.4
83222	7	Sololá	702	San José Chacayá	5	Chacayá	3	Marzo	2023-10-03T00:00:00	2024-11-06T11:00:00	7	Dirección del viento	6.44
83223	7	Sololá	702	San José Chacayá	5	Chacayá	3	Marzo	2023-10-03T00:00:00	2024-11-06T11:00:00	1	Precipitación	0
83224	7	Sololá	702	San José Chacayá	5	Chacayá	3	Marzo	2023-10-03T00:00:00	2024-11-06T11:00:00	8	Radiación solar	255
83225	7	Sololá	702	San José Chacayá	5	Chacayá	3	Marzo	2023-10-03T00:00:00	2024-11-06T12:00:00	2	Temperatura media	13.8
83226	7	Sololá	702	San José Chacayá	5	Chacayá	3	Marzo	2023-10-03T00:00:00	2024-11-06T12:00:00	4	Temperatura máxima	14.4
83227	7	Sololá	702	San José Chacayá	5	Chacayá	3	Marzo	2023-10-03T00:00:00	2024-11-06T12:00:00	3	Temperatura mínima	13.7
83228	7	Sololá	702	San José Chacayá	5	Chacayá	3	Marzo	2023-10-03T00:00:00	2024-11-06T12:00:00	5	Humedad	84
83229	7	Sololá	702	San José Chacayá	5	Chacayá	3	Marzo	2023-10-03T00:00:00	2024-11-06T12:00:00	6	Velocidad del viento	3.2
83230	7	Sololá	702	San José Chacayá	5	Chacayá	3	Marzo	2023-10-03T00:00:00	2024-11-06T12:00:00	7	Dirección del viento	3.22
83231	7	Sololá	702	San José Chacayá	5	Chacayá	3	Marzo	2023-10-03T00:00:00	2024-11-06T12:00:00	1	Precipitación	0
83232	7	Sololá	702	San José Chacayá	5	Chacayá	3	Marzo	2023-10-03T00:00:00	2024-11-06T12:00:00	8	Radiación solar	101
83233	7	Sololá	702	San José Chacayá	5	Chacayá	3	Marzo	2023-10-03T00:00:00	2024-11-06T13:00:00	2	Temperatura media	14.1
83234	7	Sololá	702	San José Chacayá	5	Chacayá	3	Marzo	2023-10-03T00:00:00	2024-11-06T13:00:00	4	Temperatura máxima	14.1
83235	7	Sololá	702	San José Chacayá	5	Chacayá	3	Marzo	2023-10-03T00:00:00	2024-11-06T13:00:00	3	Temperatura mínima	13.6
83236	7	Sololá	702	San José Chacayá	5	Chacayá	3	Marzo	2023-10-03T00:00:00	2024-11-06T13:00:00	5	Humedad	84
83237	7	Sololá	702	San José Chacayá	5	Chacayá	3	Marzo	2023-10-03T00:00:00	2024-11-06T13:00:00	6	Velocidad del viento	1.6
83238	7	Sololá	702	San José Chacayá	5	Chacayá	3	Marzo	2023-10-03T00:00:00	2024-11-06T13:00:00	7	Dirección del viento	1.61
83239	7	Sololá	702	San José Chacayá	5	Chacayá	3	Marzo	2023-10-03T00:00:00	2024-11-06T13:00:00	1	Precipitación	0
83240	7	Sololá	702	San José Chacayá	5	Chacayá	3	Marzo	2023-10-03T00:00:00	2024-11-06T13:00:00	8	Radiación solar	116
83241	7	Sololá	702	San José Chacayá	5	Chacayá	3	Marzo	2023-10-03T00:00:00	2024-11-06T14:00:00	2	Temperatura media	17
83242	7	Sololá	702	San José Chacayá	5	Chacayá	3	Marzo	2023-10-03T00:00:00	2024-11-06T14:00:00	4	Temperatura máxima	17.2
83243	7	Sololá	702	San José Chacayá	5	Chacayá	3	Marzo	2023-10-03T00:00:00	2024-11-06T14:00:00	3	Temperatura mínima	14.1
83244	7	Sololá	702	San José Chacayá	5	Chacayá	3	Marzo	2023-10-03T00:00:00	2024-11-06T14:00:00	5	Humedad	78
83245	7	Sololá	702	San José Chacayá	5	Chacayá	3	Marzo	2023-10-03T00:00:00	2024-11-06T14:00:00	6	Velocidad del viento	3.2
83246	7	Sololá	702	San José Chacayá	5	Chacayá	3	Marzo	2023-10-03T00:00:00	2024-11-06T14:00:00	7	Dirección del viento	3.22
83247	7	Sololá	702	San José Chacayá	5	Chacayá	3	Marzo	2023-10-03T00:00:00	2024-11-06T14:00:00	1	Precipitación	0
83248	7	Sololá	702	San José Chacayá	5	Chacayá	3	Marzo	2023-10-03T00:00:00	2024-11-06T14:00:00	8	Radiación solar	403
83249	7	Sololá	702	San José Chacayá	5	Chacayá	3	Marzo	2023-10-03T00:00:00	2024-11-06T15:00:00	2	Temperatura media	16.7
83250	7	Sololá	702	San José Chacayá	5	Chacayá	3	Marzo	2023-10-03T00:00:00	2024-11-06T15:00:00	4	Temperatura máxima	17.1
83251	7	Sololá	702	San José Chacayá	5	Chacayá	3	Marzo	2023-10-03T00:00:00	2024-11-06T15:00:00	3	Temperatura mínima	16.7
83252	7	Sololá	702	San José Chacayá	5	Chacayá	3	Marzo	2023-10-03T00:00:00	2024-11-06T15:00:00	5	Humedad	79
83253	7	Sololá	702	San José Chacayá	5	Chacayá	3	Marzo	2023-10-03T00:00:00	2024-11-06T15:00:00	6	Velocidad del viento	3.2
83254	7	Sololá	702	San José Chacayá	5	Chacayá	3	Marzo	2023-10-03T00:00:00	2024-11-06T15:00:00	7	Dirección del viento	3.22
83255	7	Sololá	702	San José Chacayá	5	Chacayá	3	Marzo	2023-10-03T00:00:00	2024-11-06T15:00:00	1	Precipitación	0
83256	7	Sololá	702	San José Chacayá	5	Chacayá	3	Marzo	2023-10-03T00:00:00	2024-11-06T15:00:00	8	Radiación solar	320
83257	7	Sololá	702	San José Chacayá	5	Chacayá	3	Marzo	2023-10-03T00:00:00	2024-11-06T16:00:00	2	Temperatura media	15.8
83258	7	Sololá	702	San José Chacayá	5	Chacayá	3	Marzo	2023-10-03T00:00:00	2024-11-06T16:00:00	4	Temperatura máxima	17.5
83259	7	Sololá	702	San José Chacayá	5	Chacayá	3	Marzo	2023-10-03T00:00:00	2024-11-06T16:00:00	3	Temperatura mínima	15.7
83260	7	Sololá	702	San José Chacayá	5	Chacayá	3	Marzo	2023-10-03T00:00:00	2024-11-06T16:00:00	5	Humedad	83
83261	7	Sololá	702	San José Chacayá	5	Chacayá	3	Marzo	2023-10-03T00:00:00	2024-11-06T16:00:00	6	Velocidad del viento	4.8
83262	7	Sololá	702	San José Chacayá	5	Chacayá	3	Marzo	2023-10-03T00:00:00	2024-11-06T16:00:00	7	Dirección del viento	4.83
83263	7	Sololá	702	San José Chacayá	5	Chacayá	3	Marzo	2023-10-03T00:00:00	2024-11-06T16:00:00	1	Precipitación	0
83264	7	Sololá	702	San José Chacayá	5	Chacayá	3	Marzo	2023-10-03T00:00:00	2024-11-06T16:00:00	8	Radiación solar	329
83265	7	Sololá	702	San José Chacayá	5	Chacayá	3	Marzo	2023-10-03T00:00:00	2024-11-06T17:00:00	2	Temperatura media	15.7
83266	7	Sololá	702	San José Chacayá	5	Chacayá	3	Marzo	2023-10-03T00:00:00	2024-11-06T17:00:00	4	Temperatura máxima	16
83267	7	Sololá	702	San José Chacayá	5	Chacayá	3	Marzo	2023-10-03T00:00:00	2024-11-06T17:00:00	3	Temperatura mínima	15.7
83268	7	Sololá	702	San José Chacayá	5	Chacayá	3	Marzo	2023-10-03T00:00:00	2024-11-06T17:00:00	5	Humedad	84
83269	7	Sololá	702	San José Chacayá	5	Chacayá	3	Marzo	2023-10-03T00:00:00	2024-11-06T17:00:00	6	Velocidad del viento	1.6
83270	7	Sololá	702	San José Chacayá	5	Chacayá	3	Marzo	2023-10-03T00:00:00	2024-11-06T17:00:00	7	Dirección del viento	1.61
83271	7	Sololá	702	San José Chacayá	5	Chacayá	3	Marzo	2023-10-03T00:00:00	2024-11-06T17:00:00	1	Precipitación	0
83272	7	Sololá	702	San José Chacayá	5	Chacayá	3	Marzo	2023-10-03T00:00:00	2024-11-06T17:00:00	8	Radiación solar	143
83273	7	Sololá	702	San José Chacayá	5	Chacayá	3	Marzo	2023-10-03T00:00:00	2024-11-06T18:00:00	2	Temperatura media	14.8
83274	7	Sololá	702	San José Chacayá	5	Chacayá	3	Marzo	2023-10-03T00:00:00	2024-11-06T18:00:00	4	Temperatura máxima	15.7
83275	7	Sololá	702	San José Chacayá	5	Chacayá	3	Marzo	2023-10-03T00:00:00	2024-11-06T18:00:00	3	Temperatura mínima	14.8
83276	7	Sololá	702	San José Chacayá	5	Chacayá	3	Marzo	2023-10-03T00:00:00	2024-11-06T18:00:00	5	Humedad	83
83277	7	Sololá	702	San José Chacayá	5	Chacayá	3	Marzo	2023-10-03T00:00:00	2024-11-06T18:00:00	6	Velocidad del viento	0
83278	7	Sololá	702	San José Chacayá	5	Chacayá	3	Marzo	2023-10-03T00:00:00	2024-11-06T18:00:00	7	Dirección del viento	0
83279	7	Sololá	702	San José Chacayá	5	Chacayá	3	Marzo	2023-10-03T00:00:00	2024-11-06T18:00:00	1	Precipitación	0
83280	7	Sololá	702	San José Chacayá	5	Chacayá	3	Marzo	2023-10-03T00:00:00	2024-11-06T18:00:00	8	Radiación solar	32
83281	7	Sololá	702	San José Chacayá	5	Chacayá	3	Marzo	2023-10-03T00:00:00	2024-11-06T19:00:00	2	Temperatura media	13.7
83282	7	Sololá	702	San José Chacayá	5	Chacayá	3	Marzo	2023-10-03T00:00:00	2024-11-06T19:00:00	4	Temperatura máxima	14.8
83283	7	Sololá	702	San José Chacayá	5	Chacayá	3	Marzo	2023-10-03T00:00:00	2024-11-06T19:00:00	3	Temperatura mínima	13.7
83284	7	Sololá	702	San José Chacayá	5	Chacayá	3	Marzo	2023-10-03T00:00:00	2024-11-06T19:00:00	5	Humedad	81
83285	7	Sololá	702	San José Chacayá	5	Chacayá	3	Marzo	2023-10-03T00:00:00	2024-11-06T19:00:00	6	Velocidad del viento	0
83286	7	Sololá	702	San José Chacayá	5	Chacayá	3	Marzo	2023-10-03T00:00:00	2024-11-06T19:00:00	7	Dirección del viento	0
83287	7	Sololá	702	San José Chacayá	5	Chacayá	3	Marzo	2023-10-03T00:00:00	2024-11-06T19:00:00	1	Precipitación	0
83288	7	Sololá	702	San José Chacayá	5	Chacayá	3	Marzo	2023-10-03T00:00:00	2024-11-06T19:00:00	8	Radiación solar	0
83289	7	Sololá	702	San José Chacayá	5	Chacayá	3	Marzo	2023-10-03T00:00:00	2024-11-06T20:00:00	2	Temperatura media	12.9
83290	7	Sololá	702	San José Chacayá	5	Chacayá	3	Marzo	2023-10-03T00:00:00	2024-11-06T20:00:00	4	Temperatura máxima	13.7
83291	7	Sololá	702	San José Chacayá	5	Chacayá	3	Marzo	2023-10-03T00:00:00	2024-11-06T20:00:00	3	Temperatura mínima	12.9
83292	7	Sololá	702	San José Chacayá	5	Chacayá	3	Marzo	2023-10-03T00:00:00	2024-11-06T20:00:00	5	Humedad	81
83293	7	Sololá	702	San José Chacayá	5	Chacayá	3	Marzo	2023-10-03T00:00:00	2024-11-06T20:00:00	6	Velocidad del viento	1.6
83294	7	Sololá	702	San José Chacayá	5	Chacayá	3	Marzo	2023-10-03T00:00:00	2024-11-06T20:00:00	7	Dirección del viento	1.61
83295	7	Sololá	702	San José Chacayá	5	Chacayá	3	Marzo	2023-10-03T00:00:00	2024-11-06T20:00:00	1	Precipitación	0
83296	7	Sololá	702	San José Chacayá	5	Chacayá	3	Marzo	2023-10-03T00:00:00	2024-11-06T20:00:00	8	Radiación solar	0
83297	7	Sololá	702	San José Chacayá	5	Chacayá	3	Marzo	2023-10-03T00:00:00	2024-11-06T21:00:00	2	Temperatura media	12
83298	7	Sololá	702	San José Chacayá	5	Chacayá	3	Marzo	2023-10-03T00:00:00	2024-11-06T21:00:00	4	Temperatura máxima	12.9
83299	7	Sololá	702	San José Chacayá	5	Chacayá	3	Marzo	2023-10-03T00:00:00	2024-11-06T21:00:00	3	Temperatura mínima	12
83300	7	Sololá	702	San José Chacayá	5	Chacayá	3	Marzo	2023-10-03T00:00:00	2024-11-06T21:00:00	5	Humedad	83
83301	7	Sololá	702	San José Chacayá	5	Chacayá	3	Marzo	2023-10-03T00:00:00	2024-11-06T21:00:00	6	Velocidad del viento	1.6
83302	7	Sololá	702	San José Chacayá	5	Chacayá	3	Marzo	2023-10-03T00:00:00	2024-11-06T21:00:00	7	Dirección del viento	1.61
83303	7	Sololá	702	San José Chacayá	5	Chacayá	3	Marzo	2023-10-03T00:00:00	2024-11-06T21:00:00	1	Precipitación	0
83304	7	Sololá	702	San José Chacayá	5	Chacayá	3	Marzo	2023-10-03T00:00:00	2024-11-06T21:00:00	8	Radiación solar	0
83305	7	Sololá	702	San José Chacayá	5	Chacayá	3	Marzo	2023-10-03T00:00:00	2024-11-06T22:00:00	2	Temperatura media	11
83306	7	Sololá	702	San José Chacayá	5	Chacayá	3	Marzo	2023-10-03T00:00:00	2024-11-06T22:00:00	4	Temperatura máxima	12
83307	7	Sololá	702	San José Chacayá	5	Chacayá	3	Marzo	2023-10-03T00:00:00	2024-11-06T22:00:00	3	Temperatura mínima	11
83308	7	Sololá	702	San José Chacayá	5	Chacayá	3	Marzo	2023-10-03T00:00:00	2024-11-06T22:00:00	5	Humedad	83
83309	7	Sololá	702	San José Chacayá	5	Chacayá	3	Marzo	2023-10-03T00:00:00	2024-11-06T22:00:00	6	Velocidad del viento	1.6
83310	7	Sololá	702	San José Chacayá	5	Chacayá	3	Marzo	2023-10-03T00:00:00	2024-11-06T22:00:00	7	Dirección del viento	1.61
83311	7	Sololá	702	San José Chacayá	5	Chacayá	3	Marzo	2023-10-03T00:00:00	2024-11-06T22:00:00	1	Precipitación	0
83312	7	Sololá	702	San José Chacayá	5	Chacayá	3	Marzo	2023-10-03T00:00:00	2024-11-06T22:00:00	8	Radiación solar	0
83313	7	Sololá	702	San José Chacayá	5	Chacayá	3	Marzo	2023-10-03T00:00:00	2024-11-06T23:00:00	2	Temperatura media	10.2
83314	7	Sololá	702	San José Chacayá	5	Chacayá	3	Marzo	2023-10-03T00:00:00	2024-11-06T23:00:00	4	Temperatura máxima	11
83315	7	Sololá	702	San José Chacayá	5	Chacayá	3	Marzo	2023-10-03T00:00:00	2024-11-06T23:00:00	3	Temperatura mínima	10.2
83316	7	Sololá	702	San José Chacayá	5	Chacayá	3	Marzo	2023-10-03T00:00:00	2024-11-06T23:00:00	5	Humedad	80
83317	7	Sololá	702	San José Chacayá	5	Chacayá	3	Marzo	2023-10-03T00:00:00	2024-11-06T23:00:00	6	Velocidad del viento	3.2
83318	7	Sololá	702	San José Chacayá	5	Chacayá	3	Marzo	2023-10-03T00:00:00	2024-11-06T23:00:00	7	Dirección del viento	3.22
83319	7	Sololá	702	San José Chacayá	5	Chacayá	3	Marzo	2023-10-03T00:00:00	2024-11-06T23:00:00	1	Precipitación	0
83320	7	Sololá	702	San José Chacayá	5	Chacayá	3	Marzo	2023-10-03T00:00:00	2024-11-06T23:00:00	8	Radiación solar	0
83321	7	Sololá	702	San José Chacayá	5	Chacayá	3	Marzo	2023-11-03T00:00:00	2024-11-06T00:00:00	2	Temperatura media	10.1
83322	7	Sololá	702	San José Chacayá	5	Chacayá	3	Marzo	2023-11-03T00:00:00	2024-11-06T00:00:00	4	Temperatura máxima	10.2
83323	7	Sololá	702	San José Chacayá	5	Chacayá	3	Marzo	2023-11-03T00:00:00	2024-11-06T00:00:00	3	Temperatura mínima	10
83324	7	Sololá	702	San José Chacayá	5	Chacayá	3	Marzo	2023-11-03T00:00:00	2024-11-06T00:00:00	5	Humedad	80
83325	7	Sololá	702	San José Chacayá	5	Chacayá	3	Marzo	2023-11-03T00:00:00	2024-11-06T00:00:00	6	Velocidad del viento	3.2
83326	7	Sololá	702	San José Chacayá	5	Chacayá	3	Marzo	2023-11-03T00:00:00	2024-11-06T00:00:00	7	Dirección del viento	3.22
83327	7	Sololá	702	San José Chacayá	5	Chacayá	3	Marzo	2023-11-03T00:00:00	2024-11-06T00:00:00	1	Precipitación	0
83328	7	Sololá	702	San José Chacayá	5	Chacayá	3	Marzo	2023-11-03T00:00:00	2024-11-06T00:00:00	8	Radiación solar	0
83329	7	Sololá	702	San José Chacayá	5	Chacayá	3	Marzo	2023-11-03T00:00:00	2024-11-06T01:00:00	2	Temperatura media	10
83330	7	Sololá	702	San José Chacayá	5	Chacayá	3	Marzo	2023-11-03T00:00:00	2024-11-06T01:00:00	4	Temperatura máxima	10.3
83331	7	Sololá	702	San José Chacayá	5	Chacayá	3	Marzo	2023-11-03T00:00:00	2024-11-06T01:00:00	3	Temperatura mínima	9.8
83332	7	Sololá	702	San José Chacayá	5	Chacayá	3	Marzo	2023-11-03T00:00:00	2024-11-06T01:00:00	5	Humedad	81
83333	7	Sololá	702	San José Chacayá	5	Chacayá	3	Marzo	2023-11-03T00:00:00	2024-11-06T01:00:00	6	Velocidad del viento	1.6
83334	7	Sololá	702	San José Chacayá	5	Chacayá	3	Marzo	2023-11-03T00:00:00	2024-11-06T01:00:00	7	Dirección del viento	1.61
83335	7	Sololá	702	San José Chacayá	5	Chacayá	3	Marzo	2023-11-03T00:00:00	2024-11-06T01:00:00	1	Precipitación	0
83336	7	Sololá	702	San José Chacayá	5	Chacayá	3	Marzo	2023-11-03T00:00:00	2024-11-06T01:00:00	8	Radiación solar	0
83337	7	Sololá	702	San José Chacayá	5	Chacayá	3	Marzo	2023-11-03T00:00:00	2024-11-06T02:00:00	2	Temperatura media	9.3
83338	7	Sololá	702	San José Chacayá	5	Chacayá	3	Marzo	2023-11-03T00:00:00	2024-11-06T02:00:00	4	Temperatura máxima	9.9
83339	7	Sololá	702	San José Chacayá	5	Chacayá	3	Marzo	2023-11-03T00:00:00	2024-11-06T02:00:00	3	Temperatura mínima	9.3
83340	7	Sololá	702	San José Chacayá	5	Chacayá	3	Marzo	2023-11-03T00:00:00	2024-11-06T02:00:00	5	Humedad	80
83341	7	Sololá	702	San José Chacayá	5	Chacayá	3	Marzo	2023-11-03T00:00:00	2024-11-06T02:00:00	6	Velocidad del viento	3.2
83342	7	Sololá	702	San José Chacayá	5	Chacayá	3	Marzo	2023-11-03T00:00:00	2024-11-06T02:00:00	7	Dirección del viento	3.22
83343	7	Sololá	702	San José Chacayá	5	Chacayá	3	Marzo	2023-11-03T00:00:00	2024-11-06T02:00:00	1	Precipitación	0
83344	7	Sololá	702	San José Chacayá	5	Chacayá	3	Marzo	2023-11-03T00:00:00	2024-11-06T02:00:00	8	Radiación solar	0
83345	7	Sololá	702	San José Chacayá	5	Chacayá	3	Marzo	2023-11-03T00:00:00	2024-11-06T03:00:00	2	Temperatura media	9
83346	7	Sololá	702	San José Chacayá	5	Chacayá	3	Marzo	2023-11-03T00:00:00	2024-11-06T03:00:00	4	Temperatura máxima	9.3
83347	7	Sololá	702	San José Chacayá	5	Chacayá	3	Marzo	2023-11-03T00:00:00	2024-11-06T03:00:00	3	Temperatura mínima	9
83348	7	Sololá	702	San José Chacayá	5	Chacayá	3	Marzo	2023-11-03T00:00:00	2024-11-06T03:00:00	5	Humedad	80
83349	7	Sololá	702	San José Chacayá	5	Chacayá	3	Marzo	2023-11-03T00:00:00	2024-11-06T03:00:00	6	Velocidad del viento	3.2
83350	7	Sololá	702	San José Chacayá	5	Chacayá	3	Marzo	2023-11-03T00:00:00	2024-11-06T03:00:00	7	Dirección del viento	3.22
83351	7	Sololá	702	San José Chacayá	5	Chacayá	3	Marzo	2023-11-03T00:00:00	2024-11-06T03:00:00	1	Precipitación	0
83352	7	Sololá	702	San José Chacayá	5	Chacayá	3	Marzo	2023-11-03T00:00:00	2024-11-06T03:00:00	8	Radiación solar	0
83353	7	Sololá	702	San José Chacayá	5	Chacayá	3	Marzo	2023-11-03T00:00:00	2024-11-06T04:00:00	2	Temperatura media	8.4
83354	7	Sololá	702	San José Chacayá	5	Chacayá	3	Marzo	2023-11-03T00:00:00	2024-11-06T04:00:00	4	Temperatura máxima	9
83355	7	Sololá	702	San José Chacayá	5	Chacayá	3	Marzo	2023-11-03T00:00:00	2024-11-06T04:00:00	3	Temperatura mínima	8.4
83356	7	Sololá	702	San José Chacayá	5	Chacayá	3	Marzo	2023-11-03T00:00:00	2024-11-06T04:00:00	5	Humedad	79
83357	7	Sololá	702	San José Chacayá	5	Chacayá	3	Marzo	2023-11-03T00:00:00	2024-11-06T04:00:00	6	Velocidad del viento	3.2
83358	7	Sololá	702	San José Chacayá	5	Chacayá	3	Marzo	2023-11-03T00:00:00	2024-11-06T04:00:00	7	Dirección del viento	3.22
83359	7	Sololá	702	San José Chacayá	5	Chacayá	3	Marzo	2023-11-03T00:00:00	2024-11-06T04:00:00	1	Precipitación	0
83360	7	Sololá	702	San José Chacayá	5	Chacayá	3	Marzo	2023-11-03T00:00:00	2024-11-06T04:00:00	8	Radiación solar	0
83361	7	Sololá	702	San José Chacayá	5	Chacayá	3	Marzo	2023-11-03T00:00:00	2024-11-06T05:00:00	2	Temperatura media	8.5
83362	7	Sololá	702	San José Chacayá	5	Chacayá	3	Marzo	2023-11-03T00:00:00	2024-11-06T05:00:00	4	Temperatura máxima	8.8
83363	7	Sololá	702	San José Chacayá	5	Chacayá	3	Marzo	2023-11-03T00:00:00	2024-11-06T05:00:00	3	Temperatura mínima	8.4
83364	7	Sololá	702	San José Chacayá	5	Chacayá	3	Marzo	2023-11-03T00:00:00	2024-11-06T05:00:00	5	Humedad	80
83365	7	Sololá	702	San José Chacayá	5	Chacayá	3	Marzo	2023-11-03T00:00:00	2024-11-06T05:00:00	6	Velocidad del viento	3.2
83366	7	Sololá	702	San José Chacayá	5	Chacayá	3	Marzo	2023-11-03T00:00:00	2024-11-06T05:00:00	7	Dirección del viento	3.22
83367	7	Sololá	702	San José Chacayá	5	Chacayá	3	Marzo	2023-11-03T00:00:00	2024-11-06T05:00:00	1	Precipitación	0
83368	7	Sololá	702	San José Chacayá	5	Chacayá	3	Marzo	2023-11-03T00:00:00	2024-11-06T05:00:00	8	Radiación solar	0
83369	7	Sololá	702	San José Chacayá	5	Chacayá	3	Marzo	2023-11-03T00:00:00	2024-11-06T06:00:00	2	Temperatura media	7.9
83370	7	Sololá	702	San José Chacayá	5	Chacayá	3	Marzo	2023-11-03T00:00:00	2024-11-06T06:00:00	4	Temperatura máxima	8.5
83371	7	Sololá	702	San José Chacayá	5	Chacayá	3	Marzo	2023-11-03T00:00:00	2024-11-06T06:00:00	3	Temperatura mínima	7.9
83372	7	Sololá	702	San José Chacayá	5	Chacayá	3	Marzo	2023-11-03T00:00:00	2024-11-06T06:00:00	5	Humedad	78
83373	7	Sololá	702	San José Chacayá	5	Chacayá	3	Marzo	2023-11-03T00:00:00	2024-11-06T06:00:00	6	Velocidad del viento	1.6
83374	7	Sololá	702	San José Chacayá	5	Chacayá	3	Marzo	2023-11-03T00:00:00	2024-11-06T06:00:00	7	Dirección del viento	1.61
83375	7	Sololá	702	San José Chacayá	5	Chacayá	3	Marzo	2023-11-03T00:00:00	2024-11-06T06:00:00	1	Precipitación	0
83376	7	Sololá	702	San José Chacayá	5	Chacayá	3	Marzo	2023-11-03T00:00:00	2024-11-06T06:00:00	8	Radiación solar	0
83377	7	Sololá	702	San José Chacayá	5	Chacayá	3	Marzo	2023-11-03T00:00:00	2024-11-06T07:00:00	2	Temperatura media	8.9
83378	7	Sololá	702	San José Chacayá	5	Chacayá	3	Marzo	2023-11-03T00:00:00	2024-11-06T07:00:00	4	Temperatura máxima	8.9
83379	7	Sololá	702	San José Chacayá	5	Chacayá	3	Marzo	2023-11-03T00:00:00	2024-11-06T07:00:00	3	Temperatura mínima	7.9
83380	7	Sololá	702	San José Chacayá	5	Chacayá	3	Marzo	2023-11-03T00:00:00	2024-11-06T07:00:00	5	Humedad	76
83381	7	Sololá	702	San José Chacayá	5	Chacayá	3	Marzo	2023-11-03T00:00:00	2024-11-06T07:00:00	6	Velocidad del viento	3.2
83382	7	Sololá	702	San José Chacayá	5	Chacayá	3	Marzo	2023-11-03T00:00:00	2024-11-06T07:00:00	7	Dirección del viento	3.22
83383	7	Sololá	702	San José Chacayá	5	Chacayá	3	Marzo	2023-11-03T00:00:00	2024-11-06T07:00:00	1	Precipitación	0
83384	7	Sololá	702	San José Chacayá	5	Chacayá	3	Marzo	2023-11-03T00:00:00	2024-11-06T07:00:00	8	Radiación solar	22
83385	7	Sololá	702	San José Chacayá	5	Chacayá	3	Marzo	2023-11-03T00:00:00	2024-11-06T08:00:00	2	Temperatura media	14.1
83386	7	Sololá	702	San José Chacayá	5	Chacayá	3	Marzo	2023-11-03T00:00:00	2024-11-06T08:00:00	4	Temperatura máxima	14.1
83387	7	Sololá	702	San José Chacayá	5	Chacayá	3	Marzo	2023-11-03T00:00:00	2024-11-06T08:00:00	3	Temperatura mínima	8.9
83388	7	Sololá	702	San José Chacayá	5	Chacayá	3	Marzo	2023-11-03T00:00:00	2024-11-06T08:00:00	5	Humedad	81
83389	7	Sololá	702	San José Chacayá	5	Chacayá	3	Marzo	2023-11-03T00:00:00	2024-11-06T08:00:00	6	Velocidad del viento	1.6
83390	7	Sololá	702	San José Chacayá	5	Chacayá	3	Marzo	2023-11-03T00:00:00	2024-11-06T08:00:00	7	Dirección del viento	1.61
83391	7	Sololá	702	San José Chacayá	5	Chacayá	3	Marzo	2023-11-03T00:00:00	2024-11-06T08:00:00	1	Precipitación	0
83392	7	Sololá	702	San José Chacayá	5	Chacayá	3	Marzo	2023-11-03T00:00:00	2024-11-06T08:00:00	8	Radiación solar	218
83393	7	Sololá	702	San José Chacayá	5	Chacayá	3	Marzo	2023-11-03T00:00:00	2024-11-06T09:00:00	2	Temperatura media	14.6
83394	7	Sololá	702	San José Chacayá	5	Chacayá	3	Marzo	2023-11-03T00:00:00	2024-11-06T09:00:00	4	Temperatura máxima	15.2
83395	7	Sololá	702	San José Chacayá	5	Chacayá	3	Marzo	2023-11-03T00:00:00	2024-11-06T09:00:00	3	Temperatura mínima	14.1
83396	7	Sololá	702	San José Chacayá	5	Chacayá	3	Marzo	2023-11-03T00:00:00	2024-11-06T09:00:00	5	Humedad	83
83397	7	Sololá	702	San José Chacayá	5	Chacayá	3	Marzo	2023-11-03T00:00:00	2024-11-06T09:00:00	6	Velocidad del viento	1.6
83398	7	Sololá	702	San José Chacayá	5	Chacayá	3	Marzo	2023-11-03T00:00:00	2024-11-06T09:00:00	7	Dirección del viento	1.61
83399	7	Sololá	702	San José Chacayá	5	Chacayá	3	Marzo	2023-11-03T00:00:00	2024-11-06T09:00:00	1	Precipitación	0
83400	7	Sololá	702	San José Chacayá	5	Chacayá	3	Marzo	2023-11-03T00:00:00	2024-11-06T09:00:00	8	Radiación solar	252
83401	7	Sololá	702	San José Chacayá	5	Chacayá	3	Marzo	2023-11-03T00:00:00	2024-11-06T10:00:00	2	Temperatura media	15.5
83402	7	Sololá	702	San José Chacayá	5	Chacayá	3	Marzo	2023-11-03T00:00:00	2024-11-06T10:00:00	4	Temperatura máxima	15.6
83403	7	Sololá	702	San José Chacayá	5	Chacayá	3	Marzo	2023-11-03T00:00:00	2024-11-06T10:00:00	3	Temperatura mínima	14.4
83404	7	Sololá	702	San José Chacayá	5	Chacayá	3	Marzo	2023-11-03T00:00:00	2024-11-06T10:00:00	5	Humedad	83
83405	7	Sololá	702	San José Chacayá	5	Chacayá	3	Marzo	2023-11-03T00:00:00	2024-11-06T10:00:00	6	Velocidad del viento	6.4
83406	7	Sololá	702	San José Chacayá	5	Chacayá	3	Marzo	2023-11-03T00:00:00	2024-11-06T10:00:00	7	Dirección del viento	6.44
83407	7	Sololá	702	San José Chacayá	5	Chacayá	3	Marzo	2023-11-03T00:00:00	2024-11-06T10:00:00	1	Precipitación	0
83408	7	Sololá	702	San José Chacayá	5	Chacayá	3	Marzo	2023-11-03T00:00:00	2024-11-06T10:00:00	8	Radiación solar	343
83409	7	Sololá	702	San José Chacayá	5	Chacayá	3	Marzo	2023-11-03T00:00:00	2024-11-06T11:00:00	2	Temperatura media	16.9
83410	7	Sololá	702	San José Chacayá	5	Chacayá	3	Marzo	2023-11-03T00:00:00	2024-11-06T11:00:00	4	Temperatura máxima	16.9
83411	7	Sololá	702	San José Chacayá	5	Chacayá	3	Marzo	2023-11-03T00:00:00	2024-11-06T11:00:00	3	Temperatura mínima	15.4
83412	7	Sololá	702	San José Chacayá	5	Chacayá	3	Marzo	2023-11-03T00:00:00	2024-11-06T11:00:00	5	Humedad	78
83413	7	Sololá	702	San José Chacayá	5	Chacayá	3	Marzo	2023-11-03T00:00:00	2024-11-06T11:00:00	6	Velocidad del viento	6.4
83414	7	Sololá	702	San José Chacayá	5	Chacayá	3	Marzo	2023-11-03T00:00:00	2024-11-06T11:00:00	7	Dirección del viento	6.44
83415	7	Sololá	702	San José Chacayá	5	Chacayá	3	Marzo	2023-11-03T00:00:00	2024-11-06T11:00:00	1	Precipitación	0
83416	7	Sololá	702	San José Chacayá	5	Chacayá	3	Marzo	2023-11-03T00:00:00	2024-11-06T11:00:00	8	Radiación solar	450
83417	7	Sololá	702	San José Chacayá	5	Chacayá	3	Marzo	2023-11-03T00:00:00	2024-11-06T12:00:00	2	Temperatura media	16.6
83418	7	Sololá	702	San José Chacayá	5	Chacayá	3	Marzo	2023-11-03T00:00:00	2024-11-06T12:00:00	4	Temperatura máxima	17.1
83419	7	Sololá	702	San José Chacayá	5	Chacayá	3	Marzo	2023-11-03T00:00:00	2024-11-06T12:00:00	3	Temperatura mínima	16.3
83420	7	Sololá	702	San José Chacayá	5	Chacayá	3	Marzo	2023-11-03T00:00:00	2024-11-06T12:00:00	5	Humedad	81
83421	7	Sololá	702	San José Chacayá	5	Chacayá	3	Marzo	2023-11-03T00:00:00	2024-11-06T12:00:00	6	Velocidad del viento	8
83422	7	Sololá	702	San José Chacayá	5	Chacayá	3	Marzo	2023-11-03T00:00:00	2024-11-06T12:00:00	7	Dirección del viento	8.05
83423	7	Sololá	702	San José Chacayá	5	Chacayá	3	Marzo	2023-11-03T00:00:00	2024-11-06T12:00:00	1	Precipitación	0
83424	7	Sololá	702	San José Chacayá	5	Chacayá	3	Marzo	2023-11-03T00:00:00	2024-11-06T12:00:00	8	Radiación solar	543
83425	7	Sololá	702	San José Chacayá	5	Chacayá	3	Marzo	2023-11-03T00:00:00	2024-11-06T13:00:00	2	Temperatura media	16.2
83426	7	Sololá	702	San José Chacayá	5	Chacayá	3	Marzo	2023-11-03T00:00:00	2024-11-06T13:00:00	4	Temperatura máxima	17.1
83427	7	Sololá	702	San José Chacayá	5	Chacayá	3	Marzo	2023-11-03T00:00:00	2024-11-06T13:00:00	3	Temperatura mínima	15.6
83428	7	Sololá	702	San José Chacayá	5	Chacayá	3	Marzo	2023-11-03T00:00:00	2024-11-06T13:00:00	5	Humedad	82
83429	7	Sololá	702	San José Chacayá	5	Chacayá	3	Marzo	2023-11-03T00:00:00	2024-11-06T13:00:00	6	Velocidad del viento	6.4
83430	7	Sololá	702	San José Chacayá	5	Chacayá	3	Marzo	2023-11-03T00:00:00	2024-11-06T13:00:00	7	Dirección del viento	6.44
83431	7	Sololá	702	San José Chacayá	5	Chacayá	3	Marzo	2023-11-03T00:00:00	2024-11-06T13:00:00	1	Precipitación	0
83432	7	Sololá	702	San José Chacayá	5	Chacayá	3	Marzo	2023-11-03T00:00:00	2024-11-06T13:00:00	8	Radiación solar	369
83433	7	Sololá	702	San José Chacayá	5	Chacayá	3	Marzo	2023-11-03T00:00:00	2024-11-06T14:00:00	2	Temperatura media	15.1
83434	7	Sololá	702	San José Chacayá	5	Chacayá	3	Marzo	2023-11-03T00:00:00	2024-11-06T14:00:00	4	Temperatura máxima	16.5
83435	7	Sololá	702	San José Chacayá	5	Chacayá	3	Marzo	2023-11-03T00:00:00	2024-11-06T14:00:00	3	Temperatura mínima	15.1
83436	7	Sololá	702	San José Chacayá	5	Chacayá	3	Marzo	2023-11-03T00:00:00	2024-11-06T14:00:00	5	Humedad	84
83437	7	Sololá	702	San José Chacayá	5	Chacayá	3	Marzo	2023-11-03T00:00:00	2024-11-06T14:00:00	6	Velocidad del viento	6.4
83438	7	Sololá	702	San José Chacayá	5	Chacayá	3	Marzo	2023-11-03T00:00:00	2024-11-06T14:00:00	7	Dirección del viento	6.44
83439	7	Sololá	702	San José Chacayá	5	Chacayá	3	Marzo	2023-11-03T00:00:00	2024-11-06T14:00:00	1	Precipitación	0
83440	7	Sololá	702	San José Chacayá	5	Chacayá	3	Marzo	2023-11-03T00:00:00	2024-11-06T14:00:00	8	Radiación solar	206
83441	7	Sololá	702	San José Chacayá	5	Chacayá	3	Marzo	2023-11-03T00:00:00	2024-11-06T15:00:00	2	Temperatura media	15.6
83442	7	Sololá	702	San José Chacayá	5	Chacayá	3	Marzo	2023-11-03T00:00:00	2024-11-06T15:00:00	4	Temperatura máxima	16
83443	7	Sololá	702	San José Chacayá	5	Chacayá	3	Marzo	2023-11-03T00:00:00	2024-11-06T15:00:00	3	Temperatura mínima	15.1
83444	7	Sololá	702	San José Chacayá	5	Chacayá	3	Marzo	2023-11-03T00:00:00	2024-11-06T15:00:00	5	Humedad	84
83445	7	Sololá	702	San José Chacayá	5	Chacayá	3	Marzo	2023-11-03T00:00:00	2024-11-06T15:00:00	6	Velocidad del viento	3.2
83446	7	Sololá	702	San José Chacayá	5	Chacayá	3	Marzo	2023-11-03T00:00:00	2024-11-06T15:00:00	7	Dirección del viento	3.22
83447	7	Sololá	702	San José Chacayá	5	Chacayá	3	Marzo	2023-11-03T00:00:00	2024-11-06T15:00:00	1	Precipitación	0
83448	7	Sololá	702	San José Chacayá	5	Chacayá	3	Marzo	2023-11-03T00:00:00	2024-11-06T15:00:00	8	Radiación solar	186
83449	7	Sololá	702	San José Chacayá	5	Chacayá	3	Marzo	2023-11-03T00:00:00	2024-11-06T16:00:00	2	Temperatura media	15.9
83450	7	Sololá	702	San José Chacayá	5	Chacayá	3	Marzo	2023-11-03T00:00:00	2024-11-06T16:00:00	4	Temperatura máxima	15.9
83451	7	Sololá	702	San José Chacayá	5	Chacayá	3	Marzo	2023-11-03T00:00:00	2024-11-06T16:00:00	3	Temperatura mínima	15.1
83452	7	Sololá	702	San José Chacayá	5	Chacayá	3	Marzo	2023-11-03T00:00:00	2024-11-06T16:00:00	5	Humedad	84
83453	7	Sololá	702	San José Chacayá	5	Chacayá	3	Marzo	2023-11-03T00:00:00	2024-11-06T16:00:00	6	Velocidad del viento	1.6
83454	7	Sololá	702	San José Chacayá	5	Chacayá	3	Marzo	2023-11-03T00:00:00	2024-11-06T16:00:00	7	Dirección del viento	1.61
83455	7	Sololá	702	San José Chacayá	5	Chacayá	3	Marzo	2023-11-03T00:00:00	2024-11-06T16:00:00	1	Precipitación	0
83456	7	Sololá	702	San José Chacayá	5	Chacayá	3	Marzo	2023-11-03T00:00:00	2024-11-06T16:00:00	8	Radiación solar	143
83457	7	Sololá	702	San José Chacayá	5	Chacayá	3	Marzo	2023-11-03T00:00:00	2024-11-06T17:00:00	2	Temperatura media	15.4
83458	7	Sololá	702	San José Chacayá	5	Chacayá	3	Marzo	2023-11-03T00:00:00	2024-11-06T17:00:00	4	Temperatura máxima	15.9
83459	7	Sololá	702	San José Chacayá	5	Chacayá	3	Marzo	2023-11-03T00:00:00	2024-11-06T17:00:00	3	Temperatura mínima	15.3
83460	7	Sololá	702	San José Chacayá	5	Chacayá	3	Marzo	2023-11-03T00:00:00	2024-11-06T17:00:00	5	Humedad	84
83461	7	Sololá	702	San José Chacayá	5	Chacayá	3	Marzo	2023-11-03T00:00:00	2024-11-06T17:00:00	6	Velocidad del viento	3.2
83462	7	Sololá	702	San José Chacayá	5	Chacayá	3	Marzo	2023-11-03T00:00:00	2024-11-06T17:00:00	7	Dirección del viento	3.22
83463	7	Sololá	702	San José Chacayá	5	Chacayá	3	Marzo	2023-11-03T00:00:00	2024-11-06T17:00:00	1	Precipitación	0
83464	7	Sololá	702	San José Chacayá	5	Chacayá	3	Marzo	2023-11-03T00:00:00	2024-11-06T17:00:00	8	Radiación solar	135
83465	7	Sololá	702	San José Chacayá	5	Chacayá	3	Marzo	2023-11-03T00:00:00	2024-11-06T18:00:00	2	Temperatura media	15.1
83466	7	Sololá	702	San José Chacayá	5	Chacayá	3	Marzo	2023-11-03T00:00:00	2024-11-06T18:00:00	4	Temperatura máxima	15.5
83467	7	Sololá	702	San José Chacayá	5	Chacayá	3	Marzo	2023-11-03T00:00:00	2024-11-06T18:00:00	3	Temperatura mínima	15.1
83468	7	Sololá	702	San José Chacayá	5	Chacayá	3	Marzo	2023-11-03T00:00:00	2024-11-06T18:00:00	5	Humedad	83
83469	7	Sololá	702	San José Chacayá	5	Chacayá	3	Marzo	2023-11-03T00:00:00	2024-11-06T18:00:00	6	Velocidad del viento	1.6
83470	7	Sololá	702	San José Chacayá	5	Chacayá	3	Marzo	2023-11-03T00:00:00	2024-11-06T18:00:00	7	Dirección del viento	1.61
83471	7	Sololá	702	San José Chacayá	5	Chacayá	3	Marzo	2023-11-03T00:00:00	2024-11-06T18:00:00	1	Precipitación	0
83472	7	Sololá	702	San José Chacayá	5	Chacayá	3	Marzo	2023-11-03T00:00:00	2024-11-06T18:00:00	8	Radiación solar	61
83473	7	Sololá	702	San José Chacayá	5	Chacayá	3	Marzo	2023-11-03T00:00:00	2024-11-06T19:00:00	2	Temperatura media	14.4
83474	7	Sololá	702	San José Chacayá	5	Chacayá	3	Marzo	2023-11-03T00:00:00	2024-11-06T19:00:00	4	Temperatura máxima	15.1
83475	7	Sololá	702	San José Chacayá	5	Chacayá	3	Marzo	2023-11-03T00:00:00	2024-11-06T19:00:00	3	Temperatura mínima	14.4
83476	7	Sololá	702	San José Chacayá	5	Chacayá	3	Marzo	2023-11-03T00:00:00	2024-11-06T19:00:00	5	Humedad	78
83477	7	Sololá	702	San José Chacayá	5	Chacayá	3	Marzo	2023-11-03T00:00:00	2024-11-06T19:00:00	6	Velocidad del viento	1.6
83478	7	Sololá	702	San José Chacayá	5	Chacayá	3	Marzo	2023-11-03T00:00:00	2024-11-06T19:00:00	7	Dirección del viento	1.61
83479	7	Sololá	702	San José Chacayá	5	Chacayá	3	Marzo	2023-11-03T00:00:00	2024-11-06T19:00:00	1	Precipitación	0
83480	7	Sololá	702	San José Chacayá	5	Chacayá	3	Marzo	2023-11-03T00:00:00	2024-11-06T19:00:00	8	Radiación solar	0
83481	7	Sololá	702	San José Chacayá	5	Chacayá	3	Marzo	2023-11-03T00:00:00	2024-11-06T20:00:00	2	Temperatura media	14
83482	7	Sololá	702	San José Chacayá	5	Chacayá	3	Marzo	2023-11-03T00:00:00	2024-11-06T20:00:00	4	Temperatura máxima	14.4
83483	7	Sololá	702	San José Chacayá	5	Chacayá	3	Marzo	2023-11-03T00:00:00	2024-11-06T20:00:00	3	Temperatura mínima	14
83484	7	Sololá	702	San José Chacayá	5	Chacayá	3	Marzo	2023-11-03T00:00:00	2024-11-06T20:00:00	5	Humedad	76
83485	7	Sololá	702	San José Chacayá	5	Chacayá	3	Marzo	2023-11-03T00:00:00	2024-11-06T20:00:00	6	Velocidad del viento	0
83486	7	Sololá	702	San José Chacayá	5	Chacayá	3	Marzo	2023-11-03T00:00:00	2024-11-06T20:00:00	7	Dirección del viento	0
83487	7	Sololá	702	San José Chacayá	5	Chacayá	3	Marzo	2023-11-03T00:00:00	2024-11-06T20:00:00	1	Precipitación	0
83488	7	Sololá	702	San José Chacayá	5	Chacayá	3	Marzo	2023-11-03T00:00:00	2024-11-06T20:00:00	8	Radiación solar	0
83489	7	Sololá	702	San José Chacayá	5	Chacayá	3	Marzo	2023-11-03T00:00:00	2024-11-06T21:00:00	2	Temperatura media	14
83490	7	Sololá	702	San José Chacayá	5	Chacayá	3	Marzo	2023-11-03T00:00:00	2024-11-06T21:00:00	4	Temperatura máxima	14.1
83491	7	Sololá	702	San José Chacayá	5	Chacayá	3	Marzo	2023-11-03T00:00:00	2024-11-06T21:00:00	3	Temperatura mínima	13.8
83492	7	Sololá	702	San José Chacayá	5	Chacayá	3	Marzo	2023-11-03T00:00:00	2024-11-06T21:00:00	5	Humedad	70
83493	7	Sololá	702	San José Chacayá	5	Chacayá	3	Marzo	2023-11-03T00:00:00	2024-11-06T21:00:00	6	Velocidad del viento	0
83494	7	Sololá	702	San José Chacayá	5	Chacayá	3	Marzo	2023-11-03T00:00:00	2024-11-06T21:00:00	7	Dirección del viento	0
83495	7	Sololá	702	San José Chacayá	5	Chacayá	3	Marzo	2023-11-03T00:00:00	2024-11-06T21:00:00	1	Precipitación	0.2
83496	7	Sololá	702	San José Chacayá	5	Chacayá	3	Marzo	2023-11-03T00:00:00	2024-11-06T21:00:00	8	Radiación solar	0
83497	7	Sololá	702	San José Chacayá	5	Chacayá	3	Marzo	2023-11-03T00:00:00	2024-11-06T22:00:00	2	Temperatura media	13.8
83498	7	Sololá	702	San José Chacayá	5	Chacayá	3	Marzo	2023-11-03T00:00:00	2024-11-06T22:00:00	4	Temperatura máxima	14
83499	7	Sololá	702	San José Chacayá	5	Chacayá	3	Marzo	2023-11-03T00:00:00	2024-11-06T22:00:00	3	Temperatura mínima	13.7
83500	7	Sololá	702	San José Chacayá	5	Chacayá	3	Marzo	2023-11-03T00:00:00	2024-11-06T22:00:00	5	Humedad	62
83501	7	Sololá	702	San José Chacayá	5	Chacayá	3	Marzo	2023-11-03T00:00:00	2024-11-06T22:00:00	6	Velocidad del viento	0
83502	7	Sololá	702	San José Chacayá	5	Chacayá	3	Marzo	2023-11-03T00:00:00	2024-11-06T22:00:00	7	Dirección del viento	0
83503	7	Sololá	702	San José Chacayá	5	Chacayá	3	Marzo	2023-11-03T00:00:00	2024-11-06T22:00:00	1	Precipitación	0.8
83504	7	Sololá	702	San José Chacayá	5	Chacayá	3	Marzo	2023-11-03T00:00:00	2024-11-06T22:00:00	8	Radiación solar	0
83505	7	Sololá	702	San José Chacayá	5	Chacayá	3	Marzo	2023-11-03T00:00:00	2024-11-06T23:00:00	2	Temperatura media	13.3
83506	7	Sololá	702	San José Chacayá	5	Chacayá	3	Marzo	2023-11-03T00:00:00	2024-11-06T23:00:00	4	Temperatura máxima	13.8
83507	7	Sololá	702	San José Chacayá	5	Chacayá	3	Marzo	2023-11-03T00:00:00	2024-11-06T23:00:00	3	Temperatura mínima	13.3
83508	7	Sololá	702	San José Chacayá	5	Chacayá	3	Marzo	2023-11-03T00:00:00	2024-11-06T23:00:00	5	Humedad	57
83509	7	Sololá	702	San José Chacayá	5	Chacayá	3	Marzo	2023-11-03T00:00:00	2024-11-06T23:00:00	6	Velocidad del viento	1.6
83510	7	Sololá	702	San José Chacayá	5	Chacayá	3	Marzo	2023-11-03T00:00:00	2024-11-06T23:00:00	7	Dirección del viento	1.61
83511	7	Sololá	702	San José Chacayá	5	Chacayá	3	Marzo	2023-11-03T00:00:00	2024-11-06T23:00:00	1	Precipitación	0.4
83512	7	Sololá	702	San José Chacayá	5	Chacayá	3	Marzo	2023-11-03T00:00:00	2024-11-06T23:00:00	8	Radiación solar	0
83513	7	Sololá	702	San José Chacayá	5	Chacayá	3	Marzo	2023-12-03T00:00:00	2024-11-06T00:00:00	2	Temperatura media	13.2
83514	7	Sololá	702	San José Chacayá	5	Chacayá	3	Marzo	2023-12-03T00:00:00	2024-11-06T00:00:00	4	Temperatura máxima	13.3
83515	7	Sololá	702	San José Chacayá	5	Chacayá	3	Marzo	2023-12-03T00:00:00	2024-11-06T00:00:00	3	Temperatura mínima	13.2
83516	7	Sololá	702	San José Chacayá	5	Chacayá	3	Marzo	2023-12-03T00:00:00	2024-11-06T00:00:00	5	Humedad	52
83517	7	Sololá	702	San José Chacayá	5	Chacayá	3	Marzo	2023-12-03T00:00:00	2024-11-06T00:00:00	6	Velocidad del viento	0
83518	7	Sololá	702	San José Chacayá	5	Chacayá	3	Marzo	2023-12-03T00:00:00	2024-11-06T00:00:00	7	Dirección del viento	0
83519	7	Sololá	702	San José Chacayá	5	Chacayá	3	Marzo	2023-12-03T00:00:00	2024-11-06T00:00:00	1	Precipitación	0
83520	7	Sololá	702	San José Chacayá	5	Chacayá	3	Marzo	2023-12-03T00:00:00	2024-11-06T00:00:00	8	Radiación solar	0
83521	7	Sololá	702	San José Chacayá	5	Chacayá	3	Marzo	2023-12-03T00:00:00	2024-11-06T01:00:00	2	Temperatura media	12.5
83522	7	Sololá	702	San José Chacayá	5	Chacayá	3	Marzo	2023-12-03T00:00:00	2024-11-06T01:00:00	4	Temperatura máxima	13.2
83523	7	Sololá	702	San José Chacayá	5	Chacayá	3	Marzo	2023-12-03T00:00:00	2024-11-06T01:00:00	3	Temperatura mínima	12.5
83524	7	Sololá	702	San José Chacayá	5	Chacayá	3	Marzo	2023-12-03T00:00:00	2024-11-06T01:00:00	5	Humedad	54
83525	7	Sololá	702	San José Chacayá	5	Chacayá	3	Marzo	2023-12-03T00:00:00	2024-11-06T01:00:00	6	Velocidad del viento	0
83526	7	Sololá	702	San José Chacayá	5	Chacayá	3	Marzo	2023-12-03T00:00:00	2024-11-06T01:00:00	7	Dirección del viento	0
83527	7	Sololá	702	San José Chacayá	5	Chacayá	3	Marzo	2023-12-03T00:00:00	2024-11-06T01:00:00	1	Precipitación	0
83528	7	Sololá	702	San José Chacayá	5	Chacayá	3	Marzo	2023-12-03T00:00:00	2024-11-06T01:00:00	8	Radiación solar	0
83529	7	Sololá	702	San José Chacayá	5	Chacayá	3	Marzo	2023-12-03T00:00:00	2024-11-06T02:00:00	2	Temperatura media	11.8
83530	7	Sololá	702	San José Chacayá	5	Chacayá	3	Marzo	2023-12-03T00:00:00	2024-11-06T02:00:00	4	Temperatura máxima	12.2
83531	7	Sololá	702	San José Chacayá	5	Chacayá	3	Marzo	2023-12-03T00:00:00	2024-11-06T02:00:00	3	Temperatura mínima	11.6
83532	7	Sololá	702	San José Chacayá	5	Chacayá	3	Marzo	2023-12-03T00:00:00	2024-11-06T02:00:00	5	Humedad	80
83533	7	Sololá	702	San José Chacayá	5	Chacayá	3	Marzo	2023-12-03T00:00:00	2024-11-06T02:00:00	6	Velocidad del viento	1.6
83534	7	Sololá	702	San José Chacayá	5	Chacayá	3	Marzo	2023-12-03T00:00:00	2024-11-06T02:00:00	7	Dirección del viento	1.61
83535	7	Sololá	702	San José Chacayá	5	Chacayá	3	Marzo	2023-12-03T00:00:00	2024-11-06T02:00:00	1	Precipitación	0
83536	7	Sololá	702	San José Chacayá	5	Chacayá	3	Marzo	2023-12-03T00:00:00	2024-11-06T02:00:00	8	Radiación solar	0
83537	7	Sololá	702	San José Chacayá	5	Chacayá	3	Marzo	2023-12-03T00:00:00	2024-11-06T03:00:00	2	Temperatura media	12.1
83538	7	Sololá	702	San José Chacayá	5	Chacayá	3	Marzo	2023-12-03T00:00:00	2024-11-06T03:00:00	4	Temperatura máxima	12.5
83539	7	Sololá	702	San José Chacayá	5	Chacayá	3	Marzo	2023-12-03T00:00:00	2024-11-06T03:00:00	3	Temperatura mínima	12.1
83540	7	Sololá	702	San José Chacayá	5	Chacayá	3	Marzo	2023-12-03T00:00:00	2024-11-06T03:00:00	5	Humedad	52
83541	7	Sololá	702	San José Chacayá	5	Chacayá	3	Marzo	2023-12-03T00:00:00	2024-11-06T03:00:00	6	Velocidad del viento	0
83542	7	Sololá	702	San José Chacayá	5	Chacayá	3	Marzo	2023-12-03T00:00:00	2024-11-06T03:00:00	7	Dirección del viento	0
83543	7	Sololá	702	San José Chacayá	5	Chacayá	3	Marzo	2023-12-03T00:00:00	2024-11-06T03:00:00	1	Precipitación	0
83544	7	Sololá	702	San José Chacayá	5	Chacayá	3	Marzo	2023-12-03T00:00:00	2024-11-06T03:00:00	8	Radiación solar	0
83545	7	Sololá	702	San José Chacayá	5	Chacayá	3	Marzo	2023-12-03T00:00:00	2024-11-06T04:00:00	2	Temperatura media	12.1
83546	7	Sololá	702	San José Chacayá	5	Chacayá	3	Marzo	2023-12-03T00:00:00	2024-11-06T04:00:00	4	Temperatura máxima	12.1
83547	7	Sololá	702	San José Chacayá	5	Chacayá	3	Marzo	2023-12-03T00:00:00	2024-11-06T04:00:00	3	Temperatura mínima	12.1
83548	7	Sololá	702	San José Chacayá	5	Chacayá	3	Marzo	2023-12-03T00:00:00	2024-11-06T04:00:00	5	Humedad	50
83549	7	Sololá	702	San José Chacayá	5	Chacayá	3	Marzo	2023-12-03T00:00:00	2024-11-06T04:00:00	6	Velocidad del viento	0
83550	7	Sololá	702	San José Chacayá	5	Chacayá	3	Marzo	2023-12-03T00:00:00	2024-11-06T04:00:00	7	Dirección del viento	0
83551	7	Sololá	702	San José Chacayá	5	Chacayá	3	Marzo	2023-12-03T00:00:00	2024-11-06T04:00:00	1	Precipitación	0
83552	7	Sololá	702	San José Chacayá	5	Chacayá	3	Marzo	2023-12-03T00:00:00	2024-11-06T04:00:00	8	Radiación solar	0
83553	7	Sololá	702	San José Chacayá	5	Chacayá	3	Marzo	2023-12-03T00:00:00	2024-11-06T05:00:00	2	Temperatura media	12.1
83554	7	Sololá	702	San José Chacayá	5	Chacayá	3	Marzo	2023-12-03T00:00:00	2024-11-06T05:00:00	4	Temperatura máxima	12.2
83555	7	Sololá	702	San José Chacayá	5	Chacayá	3	Marzo	2023-12-03T00:00:00	2024-11-06T05:00:00	3	Temperatura mínima	12.1
83556	7	Sololá	702	San José Chacayá	5	Chacayá	3	Marzo	2023-12-03T00:00:00	2024-11-06T05:00:00	5	Humedad	50
83557	7	Sololá	702	San José Chacayá	5	Chacayá	3	Marzo	2023-12-03T00:00:00	2024-11-06T05:00:00	6	Velocidad del viento	0
83558	7	Sololá	702	San José Chacayá	5	Chacayá	3	Marzo	2023-12-03T00:00:00	2024-11-06T05:00:00	7	Dirección del viento	0
83559	7	Sololá	702	San José Chacayá	5	Chacayá	3	Marzo	2023-12-03T00:00:00	2024-11-06T05:00:00	1	Precipitación	0
83560	7	Sololá	702	San José Chacayá	5	Chacayá	3	Marzo	2023-12-03T00:00:00	2024-11-06T05:00:00	8	Radiación solar	0
83561	7	Sololá	702	San José Chacayá	5	Chacayá	3	Marzo	2023-12-03T00:00:00	2024-11-06T06:00:00	2	Temperatura media	12.3
83562	7	Sololá	702	San José Chacayá	5	Chacayá	3	Marzo	2023-12-03T00:00:00	2024-11-06T06:00:00	4	Temperatura máxima	12.3
83563	7	Sololá	702	San José Chacayá	5	Chacayá	3	Marzo	2023-12-03T00:00:00	2024-11-06T06:00:00	3	Temperatura mínima	12.1
83564	7	Sololá	702	San José Chacayá	5	Chacayá	3	Marzo	2023-12-03T00:00:00	2024-11-06T06:00:00	5	Humedad	49
83565	7	Sololá	702	San José Chacayá	5	Chacayá	3	Marzo	2023-12-03T00:00:00	2024-11-06T06:00:00	6	Velocidad del viento	0
83566	7	Sololá	702	San José Chacayá	5	Chacayá	3	Marzo	2023-12-03T00:00:00	2024-11-06T06:00:00	7	Dirección del viento	0
83567	7	Sololá	702	San José Chacayá	5	Chacayá	3	Marzo	2023-12-03T00:00:00	2024-11-06T06:00:00	1	Precipitación	0
83568	7	Sololá	702	San José Chacayá	5	Chacayá	3	Marzo	2023-12-03T00:00:00	2024-11-06T06:00:00	8	Radiación solar	0
83569	7	Sololá	702	San José Chacayá	5	Chacayá	3	Marzo	2023-12-03T00:00:00	2024-11-06T07:00:00	2	Temperatura media	12.7
83570	7	Sololá	702	San José Chacayá	5	Chacayá	3	Marzo	2023-12-03T00:00:00	2024-11-06T07:00:00	4	Temperatura máxima	12.7
83571	7	Sololá	702	San José Chacayá	5	Chacayá	3	Marzo	2023-12-03T00:00:00	2024-11-06T07:00:00	3	Temperatura mínima	12.3
83572	7	Sololá	702	San José Chacayá	5	Chacayá	3	Marzo	2023-12-03T00:00:00	2024-11-06T07:00:00	5	Humedad	46
83573	7	Sololá	702	San José Chacayá	5	Chacayá	3	Marzo	2023-12-03T00:00:00	2024-11-06T07:00:00	6	Velocidad del viento	0
83574	7	Sololá	702	San José Chacayá	5	Chacayá	3	Marzo	2023-12-03T00:00:00	2024-11-06T07:00:00	7	Dirección del viento	0
83575	7	Sololá	702	San José Chacayá	5	Chacayá	3	Marzo	2023-12-03T00:00:00	2024-11-06T07:00:00	1	Precipitación	0.8
83576	7	Sololá	702	San José Chacayá	5	Chacayá	3	Marzo	2023-12-03T00:00:00	2024-11-06T07:00:00	8	Radiación solar	4
83577	7	Sololá	702	San José Chacayá	5	Chacayá	3	Marzo	2023-12-03T00:00:00	2024-11-06T08:00:00	2	Temperatura media	12.7
83578	7	Sololá	702	San José Chacayá	5	Chacayá	3	Marzo	2023-12-03T00:00:00	2024-11-06T08:00:00	4	Temperatura máxima	12.7
83579	7	Sololá	702	San José Chacayá	5	Chacayá	3	Marzo	2023-12-03T00:00:00	2024-11-06T08:00:00	3	Temperatura mínima	12.7
83580	7	Sololá	702	San José Chacayá	5	Chacayá	3	Marzo	2023-12-03T00:00:00	2024-11-06T08:00:00	5	Humedad	43
83581	7	Sololá	702	San José Chacayá	5	Chacayá	3	Marzo	2023-12-03T00:00:00	2024-11-06T08:00:00	6	Velocidad del viento	0
83582	7	Sololá	702	San José Chacayá	5	Chacayá	3	Marzo	2023-12-03T00:00:00	2024-11-06T08:00:00	7	Dirección del viento	0
83583	7	Sololá	702	San José Chacayá	5	Chacayá	3	Marzo	2023-12-03T00:00:00	2024-11-06T08:00:00	1	Precipitación	0.6
83584	7	Sololá	702	San José Chacayá	5	Chacayá	3	Marzo	2023-12-03T00:00:00	2024-11-06T08:00:00	8	Radiación solar	47
83585	7	Sololá	702	San José Chacayá	5	Chacayá	3	Marzo	2023-12-03T00:00:00	2024-11-06T09:00:00	2	Temperatura media	12.8
83586	7	Sololá	702	San José Chacayá	5	Chacayá	3	Marzo	2023-12-03T00:00:00	2024-11-06T09:00:00	4	Temperatura máxima	12.8
83587	7	Sololá	702	San José Chacayá	5	Chacayá	3	Marzo	2023-12-03T00:00:00	2024-11-06T09:00:00	3	Temperatura mínima	12.7
83588	7	Sololá	702	San José Chacayá	5	Chacayá	3	Marzo	2023-12-03T00:00:00	2024-11-06T09:00:00	5	Humedad	42
83589	7	Sololá	702	San José Chacayá	5	Chacayá	3	Marzo	2023-12-03T00:00:00	2024-11-06T09:00:00	6	Velocidad del viento	0
83590	7	Sololá	702	San José Chacayá	5	Chacayá	3	Marzo	2023-12-03T00:00:00	2024-11-06T09:00:00	7	Dirección del viento	0
83591	7	Sololá	702	San José Chacayá	5	Chacayá	3	Marzo	2023-12-03T00:00:00	2024-11-06T09:00:00	1	Precipitación	0
83592	7	Sololá	702	San José Chacayá	5	Chacayá	3	Marzo	2023-12-03T00:00:00	2024-11-06T09:00:00	8	Radiación solar	81
83593	7	Sololá	702	San José Chacayá	5	Chacayá	3	Marzo	2023-12-03T00:00:00	2024-11-06T10:00:00	2	Temperatura media	12.8
83594	7	Sololá	702	San José Chacayá	5	Chacayá	3	Marzo	2023-12-03T00:00:00	2024-11-06T10:00:00	4	Temperatura máxima	12.9
83595	7	Sololá	702	San José Chacayá	5	Chacayá	3	Marzo	2023-12-03T00:00:00	2024-11-06T10:00:00	3	Temperatura mínima	12.7
83596	7	Sololá	702	San José Chacayá	5	Chacayá	3	Marzo	2023-12-03T00:00:00	2024-11-06T10:00:00	5	Humedad	42
83597	7	Sololá	702	San José Chacayá	5	Chacayá	3	Marzo	2023-12-03T00:00:00	2024-11-06T10:00:00	6	Velocidad del viento	1.6
83598	7	Sololá	702	San José Chacayá	5	Chacayá	3	Marzo	2023-12-03T00:00:00	2024-11-06T10:00:00	7	Dirección del viento	1.61
83599	7	Sololá	702	San José Chacayá	5	Chacayá	3	Marzo	2023-12-03T00:00:00	2024-11-06T10:00:00	1	Precipitación	0
83600	7	Sololá	702	San José Chacayá	5	Chacayá	3	Marzo	2023-12-03T00:00:00	2024-11-06T10:00:00	8	Radiación solar	240
83601	7	Sololá	702	San José Chacayá	5	Chacayá	3	Marzo	2023-12-03T00:00:00	2024-11-06T11:00:00	2	Temperatura media	14.7
83602	7	Sololá	702	San José Chacayá	5	Chacayá	3	Marzo	2023-12-03T00:00:00	2024-11-06T11:00:00	4	Temperatura máxima	14.7
83603	7	Sololá	702	San José Chacayá	5	Chacayá	3	Marzo	2023-12-03T00:00:00	2024-11-06T11:00:00	3	Temperatura mínima	12.8
83604	7	Sololá	702	San José Chacayá	5	Chacayá	3	Marzo	2023-12-03T00:00:00	2024-11-06T11:00:00	5	Humedad	59
83605	7	Sololá	702	San José Chacayá	5	Chacayá	3	Marzo	2023-12-03T00:00:00	2024-11-06T11:00:00	6	Velocidad del viento	1.6
83606	7	Sololá	702	San José Chacayá	5	Chacayá	3	Marzo	2023-12-03T00:00:00	2024-11-06T11:00:00	7	Dirección del viento	1.61
83607	7	Sololá	702	San José Chacayá	5	Chacayá	3	Marzo	2023-12-03T00:00:00	2024-11-06T11:00:00	1	Precipitación	0
83608	7	Sololá	702	San José Chacayá	5	Chacayá	3	Marzo	2023-12-03T00:00:00	2024-11-06T11:00:00	8	Radiación solar	473
83609	7	Sololá	702	San José Chacayá	5	Chacayá	3	Marzo	2023-12-03T00:00:00	2024-11-06T12:00:00	2	Temperatura media	16.9
83610	7	Sololá	702	San José Chacayá	5	Chacayá	3	Marzo	2023-12-03T00:00:00	2024-11-06T12:00:00	4	Temperatura máxima	16.9
83611	7	Sololá	702	San José Chacayá	5	Chacayá	3	Marzo	2023-12-03T00:00:00	2024-11-06T12:00:00	3	Temperatura mínima	14.7
83612	7	Sololá	702	San José Chacayá	5	Chacayá	3	Marzo	2023-12-03T00:00:00	2024-11-06T12:00:00	5	Humedad	81
83613	7	Sololá	702	San José Chacayá	5	Chacayá	3	Marzo	2023-12-03T00:00:00	2024-11-06T12:00:00	6	Velocidad del viento	3.2
83614	7	Sololá	702	San José Chacayá	5	Chacayá	3	Marzo	2023-12-03T00:00:00	2024-11-06T12:00:00	7	Dirección del viento	3.22
83615	7	Sololá	702	San José Chacayá	5	Chacayá	3	Marzo	2023-12-03T00:00:00	2024-11-06T12:00:00	1	Precipitación	0
83616	7	Sololá	702	San José Chacayá	5	Chacayá	3	Marzo	2023-12-03T00:00:00	2024-11-06T12:00:00	8	Radiación solar	219
83617	7	Sololá	702	San José Chacayá	5	Chacayá	3	Marzo	2023-12-03T00:00:00	2024-11-06T13:00:00	2	Temperatura media	14.5
83618	7	Sololá	702	San José Chacayá	5	Chacayá	3	Marzo	2023-12-03T00:00:00	2024-11-06T13:00:00	4	Temperatura máxima	16.9
83619	7	Sololá	702	San José Chacayá	5	Chacayá	3	Marzo	2023-12-03T00:00:00	2024-11-06T13:00:00	3	Temperatura mínima	14.5
83620	7	Sololá	702	San José Chacayá	5	Chacayá	3	Marzo	2023-12-03T00:00:00	2024-11-06T13:00:00	5	Humedad	84
83621	7	Sololá	702	San José Chacayá	5	Chacayá	3	Marzo	2023-12-03T00:00:00	2024-11-06T13:00:00	6	Velocidad del viento	4.8
83622	7	Sololá	702	San José Chacayá	5	Chacayá	3	Marzo	2023-12-03T00:00:00	2024-11-06T13:00:00	7	Dirección del viento	4.83
83623	7	Sololá	702	San José Chacayá	5	Chacayá	3	Marzo	2023-12-03T00:00:00	2024-11-06T13:00:00	1	Precipitación	0
83624	7	Sololá	702	San José Chacayá	5	Chacayá	3	Marzo	2023-12-03T00:00:00	2024-11-06T13:00:00	8	Radiación solar	80
83625	7	Sololá	702	San José Chacayá	5	Chacayá	3	Marzo	2023-12-03T00:00:00	2024-11-06T14:00:00	2	Temperatura media	14.3
83626	7	Sololá	702	San José Chacayá	5	Chacayá	3	Marzo	2023-12-03T00:00:00	2024-11-06T14:00:00	4	Temperatura máxima	14.5
83627	7	Sololá	702	San José Chacayá	5	Chacayá	3	Marzo	2023-12-03T00:00:00	2024-11-06T14:00:00	3	Temperatura mínima	14.3
83628	7	Sololá	702	San José Chacayá	5	Chacayá	3	Marzo	2023-12-03T00:00:00	2024-11-06T14:00:00	5	Humedad	82
83629	7	Sololá	702	San José Chacayá	5	Chacayá	3	Marzo	2023-12-03T00:00:00	2024-11-06T14:00:00	6	Velocidad del viento	1.6
83630	7	Sololá	702	San José Chacayá	5	Chacayá	3	Marzo	2023-12-03T00:00:00	2024-11-06T14:00:00	7	Dirección del viento	1.61
83631	7	Sololá	702	San José Chacayá	5	Chacayá	3	Marzo	2023-12-03T00:00:00	2024-11-06T14:00:00	1	Precipitación	0
83632	7	Sololá	702	San José Chacayá	5	Chacayá	3	Marzo	2023-12-03T00:00:00	2024-11-06T14:00:00	8	Radiación solar	109
83633	7	Sololá	702	San José Chacayá	5	Chacayá	3	Marzo	2023-12-03T00:00:00	2024-11-06T15:00:00	2	Temperatura media	14.8
83634	7	Sololá	702	San José Chacayá	5	Chacayá	3	Marzo	2023-12-03T00:00:00	2024-11-06T15:00:00	4	Temperatura máxima	14.8
83635	7	Sololá	702	San José Chacayá	5	Chacayá	3	Marzo	2023-12-03T00:00:00	2024-11-06T15:00:00	3	Temperatura mínima	14.2
83636	7	Sololá	702	San José Chacayá	5	Chacayá	3	Marzo	2023-12-03T00:00:00	2024-11-06T15:00:00	5	Humedad	82
83637	7	Sololá	702	San José Chacayá	5	Chacayá	3	Marzo	2023-12-03T00:00:00	2024-11-06T15:00:00	6	Velocidad del viento	1.6
83638	7	Sololá	702	San José Chacayá	5	Chacayá	3	Marzo	2023-12-03T00:00:00	2024-11-06T15:00:00	7	Dirección del viento	1.61
83639	7	Sololá	702	San José Chacayá	5	Chacayá	3	Marzo	2023-12-03T00:00:00	2024-11-06T15:00:00	1	Precipitación	0
83640	7	Sololá	702	San José Chacayá	5	Chacayá	3	Marzo	2023-12-03T00:00:00	2024-11-06T15:00:00	8	Radiación solar	146
83641	7	Sololá	702	San José Chacayá	5	Chacayá	3	Marzo	2023-12-03T00:00:00	2024-11-06T16:00:00	2	Temperatura media	14.6
83642	7	Sololá	702	San José Chacayá	5	Chacayá	3	Marzo	2023-12-03T00:00:00	2024-11-06T16:00:00	4	Temperatura máxima	15.2
83643	7	Sololá	702	San José Chacayá	5	Chacayá	3	Marzo	2023-12-03T00:00:00	2024-11-06T16:00:00	3	Temperatura mínima	14.6
83644	7	Sololá	702	San José Chacayá	5	Chacayá	3	Marzo	2023-12-03T00:00:00	2024-11-06T16:00:00	5	Humedad	84
83645	7	Sololá	702	San José Chacayá	5	Chacayá	3	Marzo	2023-12-03T00:00:00	2024-11-06T16:00:00	6	Velocidad del viento	3.2
83646	7	Sololá	702	San José Chacayá	5	Chacayá	3	Marzo	2023-12-03T00:00:00	2024-11-06T16:00:00	7	Dirección del viento	3.22
83647	7	Sololá	702	San José Chacayá	5	Chacayá	3	Marzo	2023-12-03T00:00:00	2024-11-06T16:00:00	1	Precipitación	0
83648	7	Sololá	702	San José Chacayá	5	Chacayá	3	Marzo	2023-12-03T00:00:00	2024-11-06T16:00:00	8	Radiación solar	68
83649	7	Sololá	702	San José Chacayá	5	Chacayá	3	Marzo	2023-12-03T00:00:00	2024-11-06T17:00:00	2	Temperatura media	14.4
83650	7	Sololá	702	San José Chacayá	5	Chacayá	3	Marzo	2023-12-03T00:00:00	2024-11-06T17:00:00	4	Temperatura máxima	14.7
83651	7	Sololá	702	San José Chacayá	5	Chacayá	3	Marzo	2023-12-03T00:00:00	2024-11-06T17:00:00	3	Temperatura mínima	14.4
83652	7	Sololá	702	San José Chacayá	5	Chacayá	3	Marzo	2023-12-03T00:00:00	2024-11-06T17:00:00	5	Humedad	82
83653	7	Sololá	702	San José Chacayá	5	Chacayá	3	Marzo	2023-12-03T00:00:00	2024-11-06T17:00:00	6	Velocidad del viento	1.6
83654	7	Sololá	702	San José Chacayá	5	Chacayá	3	Marzo	2023-12-03T00:00:00	2024-11-06T17:00:00	7	Dirección del viento	1.61
83655	7	Sololá	702	San José Chacayá	5	Chacayá	3	Marzo	2023-12-03T00:00:00	2024-11-06T17:00:00	1	Precipitación	0
83656	7	Sololá	702	San José Chacayá	5	Chacayá	3	Marzo	2023-12-03T00:00:00	2024-11-06T17:00:00	8	Radiación solar	16
83657	7	Sololá	702	San José Chacayá	5	Chacayá	3	Marzo	2023-12-03T00:00:00	2024-11-06T18:00:00	2	Temperatura media	14.1
83658	7	Sololá	702	San José Chacayá	5	Chacayá	3	Marzo	2023-12-03T00:00:00	2024-11-06T18:00:00	4	Temperatura máxima	14.4
83659	7	Sololá	702	San José Chacayá	5	Chacayá	3	Marzo	2023-12-03T00:00:00	2024-11-06T18:00:00	3	Temperatura mínima	14
83660	7	Sololá	702	San José Chacayá	5	Chacayá	3	Marzo	2023-12-03T00:00:00	2024-11-06T18:00:00	5	Humedad	73
83661	7	Sololá	702	San José Chacayá	5	Chacayá	3	Marzo	2023-12-03T00:00:00	2024-11-06T18:00:00	6	Velocidad del viento	0
83662	7	Sololá	702	San José Chacayá	5	Chacayá	3	Marzo	2023-12-03T00:00:00	2024-11-06T18:00:00	7	Dirección del viento	0
83663	7	Sololá	702	San José Chacayá	5	Chacayá	3	Marzo	2023-12-03T00:00:00	2024-11-06T18:00:00	1	Precipitación	0
83664	7	Sololá	702	San José Chacayá	5	Chacayá	3	Marzo	2023-12-03T00:00:00	2024-11-06T18:00:00	8	Radiación solar	27
83665	7	Sololá	702	San José Chacayá	5	Chacayá	3	Marzo	2023-12-03T00:00:00	2024-11-06T19:00:00	2	Temperatura media	14.1
83666	7	Sololá	702	San José Chacayá	5	Chacayá	3	Marzo	2023-12-03T00:00:00	2024-11-06T19:00:00	4	Temperatura máxima	14.1
83667	7	Sololá	702	San José Chacayá	5	Chacayá	3	Marzo	2023-12-03T00:00:00	2024-11-06T19:00:00	3	Temperatura mínima	14.1
83668	7	Sololá	702	San José Chacayá	5	Chacayá	3	Marzo	2023-12-03T00:00:00	2024-11-06T19:00:00	5	Humedad	68
83669	7	Sololá	702	San José Chacayá	5	Chacayá	3	Marzo	2023-12-03T00:00:00	2024-11-06T19:00:00	6	Velocidad del viento	0
83670	7	Sololá	702	San José Chacayá	5	Chacayá	3	Marzo	2023-12-03T00:00:00	2024-11-06T19:00:00	7	Dirección del viento	0
83671	7	Sololá	702	San José Chacayá	5	Chacayá	3	Marzo	2023-12-03T00:00:00	2024-11-06T19:00:00	1	Precipitación	0
83672	7	Sololá	702	San José Chacayá	5	Chacayá	3	Marzo	2023-12-03T00:00:00	2024-11-06T19:00:00	8	Radiación solar	0
83673	7	Sololá	702	San José Chacayá	5	Chacayá	3	Marzo	2023-12-03T00:00:00	2024-11-06T20:00:00	2	Temperatura media	14
83674	7	Sololá	702	San José Chacayá	5	Chacayá	3	Marzo	2023-12-03T00:00:00	2024-11-06T20:00:00	4	Temperatura máxima	14.2
83675	7	Sololá	702	San José Chacayá	5	Chacayá	3	Marzo	2023-12-03T00:00:00	2024-11-06T20:00:00	3	Temperatura mínima	14
83676	7	Sololá	702	San José Chacayá	5	Chacayá	3	Marzo	2023-12-03T00:00:00	2024-11-06T20:00:00	5	Humedad	71
83677	7	Sololá	702	San José Chacayá	5	Chacayá	3	Marzo	2023-12-03T00:00:00	2024-11-06T20:00:00	6	Velocidad del viento	0
83678	7	Sololá	702	San José Chacayá	5	Chacayá	3	Marzo	2023-12-03T00:00:00	2024-11-06T20:00:00	7	Dirección del viento	0
83679	7	Sololá	702	San José Chacayá	5	Chacayá	3	Marzo	2023-12-03T00:00:00	2024-11-06T20:00:00	1	Precipitación	0
83680	7	Sololá	702	San José Chacayá	5	Chacayá	3	Marzo	2023-12-03T00:00:00	2024-11-06T20:00:00	8	Radiación solar	0
83681	7	Sololá	702	San José Chacayá	5	Chacayá	3	Marzo	2023-12-03T00:00:00	2024-11-06T21:00:00	2	Temperatura media	13.9
83682	7	Sololá	702	San José Chacayá	5	Chacayá	3	Marzo	2023-12-03T00:00:00	2024-11-06T21:00:00	4	Temperatura máxima	14.1
83683	7	Sololá	702	San José Chacayá	5	Chacayá	3	Marzo	2023-12-03T00:00:00	2024-11-06T21:00:00	3	Temperatura mínima	13.9
83684	7	Sololá	702	San José Chacayá	5	Chacayá	3	Marzo	2023-12-03T00:00:00	2024-11-06T21:00:00	5	Humedad	59
83685	7	Sololá	702	San José Chacayá	5	Chacayá	3	Marzo	2023-12-03T00:00:00	2024-11-06T21:00:00	6	Velocidad del viento	0
83686	7	Sololá	702	San José Chacayá	5	Chacayá	3	Marzo	2023-12-03T00:00:00	2024-11-06T21:00:00	7	Dirección del viento	0
83687	7	Sololá	702	San José Chacayá	5	Chacayá	3	Marzo	2023-12-03T00:00:00	2024-11-06T21:00:00	1	Precipitación	0
83688	7	Sololá	702	San José Chacayá	5	Chacayá	3	Marzo	2023-12-03T00:00:00	2024-11-06T21:00:00	8	Radiación solar	0
83689	7	Sololá	702	San José Chacayá	5	Chacayá	3	Marzo	2023-12-03T00:00:00	2024-11-06T22:00:00	2	Temperatura media	13.8
83690	7	Sololá	702	San José Chacayá	5	Chacayá	3	Marzo	2023-12-03T00:00:00	2024-11-06T22:00:00	4	Temperatura máxima	13.9
83691	7	Sololá	702	San José Chacayá	5	Chacayá	3	Marzo	2023-12-03T00:00:00	2024-11-06T22:00:00	3	Temperatura mínima	13.8
83692	7	Sololá	702	San José Chacayá	5	Chacayá	3	Marzo	2023-12-03T00:00:00	2024-11-06T22:00:00	5	Humedad	51
83693	7	Sololá	702	San José Chacayá	5	Chacayá	3	Marzo	2023-12-03T00:00:00	2024-11-06T22:00:00	6	Velocidad del viento	0
83694	7	Sololá	702	San José Chacayá	5	Chacayá	3	Marzo	2023-12-03T00:00:00	2024-11-06T22:00:00	7	Dirección del viento	0
83695	7	Sololá	702	San José Chacayá	5	Chacayá	3	Marzo	2023-12-03T00:00:00	2024-11-06T22:00:00	1	Precipitación	0
83696	7	Sololá	702	San José Chacayá	5	Chacayá	3	Marzo	2023-12-03T00:00:00	2024-11-06T22:00:00	8	Radiación solar	0
83697	7	Sololá	702	San José Chacayá	5	Chacayá	3	Marzo	2023-12-03T00:00:00	2024-11-06T23:00:00	2	Temperatura media	13.6
83698	7	Sololá	702	San José Chacayá	5	Chacayá	3	Marzo	2023-12-03T00:00:00	2024-11-06T23:00:00	4	Temperatura máxima	13.8
83699	7	Sololá	702	San José Chacayá	5	Chacayá	3	Marzo	2023-12-03T00:00:00	2024-11-06T23:00:00	3	Temperatura mínima	13.6
83700	7	Sololá	702	San José Chacayá	5	Chacayá	3	Marzo	2023-12-03T00:00:00	2024-11-06T23:00:00	5	Humedad	49
83701	7	Sololá	702	San José Chacayá	5	Chacayá	3	Marzo	2023-12-03T00:00:00	2024-11-06T23:00:00	6	Velocidad del viento	0
83702	7	Sololá	702	San José Chacayá	5	Chacayá	3	Marzo	2023-12-03T00:00:00	2024-11-06T23:00:00	7	Dirección del viento	0
83703	7	Sololá	702	San José Chacayá	5	Chacayá	3	Marzo	2023-12-03T00:00:00	2024-11-06T23:00:00	1	Precipitación	0
83704	7	Sololá	702	San José Chacayá	5	Chacayá	3	Marzo	2023-12-03T00:00:00	2024-11-06T23:00:00	8	Radiación solar	0
83705	7	Sololá	702	San José Chacayá	5	Chacayá	3	Marzo	2023-03-13T00:00:00	2024-11-06T00:00:00	2	Temperatura media	13.5
83706	7	Sololá	702	San José Chacayá	5	Chacayá	3	Marzo	2023-03-13T00:00:00	2024-11-06T00:00:00	4	Temperatura máxima	13.6
83707	7	Sololá	702	San José Chacayá	5	Chacayá	3	Marzo	2023-03-13T00:00:00	2024-11-06T00:00:00	3	Temperatura mínima	13.5
83708	7	Sololá	702	San José Chacayá	5	Chacayá	3	Marzo	2023-03-13T00:00:00	2024-11-06T00:00:00	5	Humedad	47
83709	7	Sololá	702	San José Chacayá	5	Chacayá	3	Marzo	2023-03-13T00:00:00	2024-11-06T00:00:00	6	Velocidad del viento	0
83710	7	Sololá	702	San José Chacayá	5	Chacayá	3	Marzo	2023-03-13T00:00:00	2024-11-06T00:00:00	7	Dirección del viento	0
83711	7	Sololá	702	San José Chacayá	5	Chacayá	3	Marzo	2023-03-13T00:00:00	2024-11-06T00:00:00	1	Precipitación	0
83712	7	Sololá	702	San José Chacayá	5	Chacayá	3	Marzo	2023-03-13T00:00:00	2024-11-06T00:00:00	8	Radiación solar	0
83713	7	Sololá	702	San José Chacayá	5	Chacayá	3	Marzo	2023-03-13T00:00:00	2024-11-06T01:00:00	2	Temperatura media	13.4
83714	7	Sololá	702	San José Chacayá	5	Chacayá	3	Marzo	2023-03-13T00:00:00	2024-11-06T01:00:00	4	Temperatura máxima	13.6
83715	7	Sololá	702	San José Chacayá	5	Chacayá	3	Marzo	2023-03-13T00:00:00	2024-11-06T01:00:00	3	Temperatura mínima	13.4
83716	7	Sololá	702	San José Chacayá	5	Chacayá	3	Marzo	2023-03-13T00:00:00	2024-11-06T01:00:00	5	Humedad	46
83717	7	Sololá	702	San José Chacayá	5	Chacayá	3	Marzo	2023-03-13T00:00:00	2024-11-06T01:00:00	6	Velocidad del viento	0
83718	7	Sololá	702	San José Chacayá	5	Chacayá	3	Marzo	2023-03-13T00:00:00	2024-11-06T01:00:00	7	Dirección del viento	0
83719	7	Sololá	702	San José Chacayá	5	Chacayá	3	Marzo	2023-03-13T00:00:00	2024-11-06T01:00:00	1	Precipitación	0
83720	7	Sololá	702	San José Chacayá	5	Chacayá	3	Marzo	2023-03-13T00:00:00	2024-11-06T01:00:00	8	Radiación solar	0
83721	7	Sololá	702	San José Chacayá	5	Chacayá	3	Marzo	2023-03-13T00:00:00	2024-11-06T02:00:00	2	Temperatura media	13
83722	7	Sololá	702	San José Chacayá	5	Chacayá	3	Marzo	2023-03-13T00:00:00	2024-11-06T02:00:00	4	Temperatura máxima	13.4
83723	7	Sololá	702	San José Chacayá	5	Chacayá	3	Marzo	2023-03-13T00:00:00	2024-11-06T02:00:00	3	Temperatura mínima	13
83724	7	Sololá	702	San José Chacayá	5	Chacayá	3	Marzo	2023-03-13T00:00:00	2024-11-06T02:00:00	5	Humedad	44
83725	7	Sololá	702	San José Chacayá	5	Chacayá	3	Marzo	2023-03-13T00:00:00	2024-11-06T02:00:00	6	Velocidad del viento	0
83726	7	Sololá	702	San José Chacayá	5	Chacayá	3	Marzo	2023-03-13T00:00:00	2024-11-06T02:00:00	7	Dirección del viento	0
83727	7	Sololá	702	San José Chacayá	5	Chacayá	3	Marzo	2023-03-13T00:00:00	2024-11-06T02:00:00	1	Precipitación	0
83728	7	Sololá	702	San José Chacayá	5	Chacayá	3	Marzo	2023-03-13T00:00:00	2024-11-06T02:00:00	8	Radiación solar	0
83729	7	Sololá	702	San José Chacayá	5	Chacayá	3	Marzo	2023-03-13T00:00:00	2024-11-06T03:00:00	2	Temperatura media	12.5
83730	7	Sololá	702	San José Chacayá	5	Chacayá	3	Marzo	2023-03-13T00:00:00	2024-11-06T03:00:00	4	Temperatura máxima	13
83731	7	Sololá	702	San José Chacayá	5	Chacayá	3	Marzo	2023-03-13T00:00:00	2024-11-06T03:00:00	3	Temperatura mínima	12.5
83732	7	Sololá	702	San José Chacayá	5	Chacayá	3	Marzo	2023-03-13T00:00:00	2024-11-06T03:00:00	5	Humedad	43
83733	7	Sololá	702	San José Chacayá	5	Chacayá	3	Marzo	2023-03-13T00:00:00	2024-11-06T03:00:00	6	Velocidad del viento	0
83734	7	Sololá	702	San José Chacayá	5	Chacayá	3	Marzo	2023-03-13T00:00:00	2024-11-06T03:00:00	7	Dirección del viento	0
83735	7	Sololá	702	San José Chacayá	5	Chacayá	3	Marzo	2023-03-13T00:00:00	2024-11-06T03:00:00	1	Precipitación	0
83736	7	Sololá	702	San José Chacayá	5	Chacayá	3	Marzo	2023-03-13T00:00:00	2024-11-06T03:00:00	8	Radiación solar	0
83737	7	Sololá	702	San José Chacayá	5	Chacayá	3	Marzo	2023-03-13T00:00:00	2024-11-06T04:00:00	2	Temperatura media	11.8
83738	7	Sololá	702	San José Chacayá	5	Chacayá	3	Marzo	2023-03-13T00:00:00	2024-11-06T04:00:00	4	Temperatura máxima	12.5
83739	7	Sololá	702	San José Chacayá	5	Chacayá	3	Marzo	2023-03-13T00:00:00	2024-11-06T04:00:00	3	Temperatura mínima	11.8
83740	7	Sololá	702	San José Chacayá	5	Chacayá	3	Marzo	2023-03-13T00:00:00	2024-11-06T04:00:00	5	Humedad	50
83741	7	Sololá	702	San José Chacayá	5	Chacayá	3	Marzo	2023-03-13T00:00:00	2024-11-06T04:00:00	6	Velocidad del viento	0
83742	7	Sololá	702	San José Chacayá	5	Chacayá	3	Marzo	2023-03-13T00:00:00	2024-11-06T04:00:00	7	Dirección del viento	0
83743	7	Sololá	702	San José Chacayá	5	Chacayá	3	Marzo	2023-03-13T00:00:00	2024-11-06T04:00:00	1	Precipitación	0
83744	7	Sololá	702	San José Chacayá	5	Chacayá	3	Marzo	2023-03-13T00:00:00	2024-11-06T04:00:00	8	Radiación solar	0
83745	7	Sololá	702	San José Chacayá	5	Chacayá	3	Marzo	2023-03-13T00:00:00	2024-11-06T05:00:00	2	Temperatura media	10.8
83746	7	Sololá	702	San José Chacayá	5	Chacayá	3	Marzo	2023-03-13T00:00:00	2024-11-06T05:00:00	4	Temperatura máxima	11.8
83747	7	Sololá	702	San José Chacayá	5	Chacayá	3	Marzo	2023-03-13T00:00:00	2024-11-06T05:00:00	3	Temperatura mínima	10.8
83748	7	Sololá	702	San José Chacayá	5	Chacayá	3	Marzo	2023-03-13T00:00:00	2024-11-06T05:00:00	5	Humedad	60
83749	7	Sololá	702	San José Chacayá	5	Chacayá	3	Marzo	2023-03-13T00:00:00	2024-11-06T05:00:00	6	Velocidad del viento	1.6
83750	7	Sololá	702	San José Chacayá	5	Chacayá	3	Marzo	2023-03-13T00:00:00	2024-11-06T05:00:00	7	Dirección del viento	1.61
83751	7	Sololá	702	San José Chacayá	5	Chacayá	3	Marzo	2023-03-13T00:00:00	2024-11-06T05:00:00	1	Precipitación	0
83752	7	Sololá	702	San José Chacayá	5	Chacayá	3	Marzo	2023-03-13T00:00:00	2024-11-06T05:00:00	8	Radiación solar	0
83753	7	Sololá	702	San José Chacayá	5	Chacayá	3	Marzo	2023-03-13T00:00:00	2024-11-06T06:00:00	2	Temperatura media	9.9
83754	7	Sololá	702	San José Chacayá	5	Chacayá	3	Marzo	2023-03-13T00:00:00	2024-11-06T06:00:00	4	Temperatura máxima	10.8
83755	7	Sololá	702	San José Chacayá	5	Chacayá	3	Marzo	2023-03-13T00:00:00	2024-11-06T06:00:00	3	Temperatura mínima	9.9
83756	7	Sololá	702	San José Chacayá	5	Chacayá	3	Marzo	2023-03-13T00:00:00	2024-11-06T06:00:00	5	Humedad	67
83757	7	Sololá	702	San José Chacayá	5	Chacayá	3	Marzo	2023-03-13T00:00:00	2024-11-06T06:00:00	6	Velocidad del viento	3.2
83758	7	Sololá	702	San José Chacayá	5	Chacayá	3	Marzo	2023-03-13T00:00:00	2024-11-06T06:00:00	7	Dirección del viento	3.22
83759	7	Sololá	702	San José Chacayá	5	Chacayá	3	Marzo	2023-03-13T00:00:00	2024-11-06T06:00:00	1	Precipitación	0
83760	7	Sololá	702	San José Chacayá	5	Chacayá	3	Marzo	2023-03-13T00:00:00	2024-11-06T06:00:00	8	Radiación solar	0
83761	7	Sololá	702	San José Chacayá	5	Chacayá	3	Marzo	2023-03-13T00:00:00	2024-11-06T07:00:00	2	Temperatura media	9.2
83762	7	Sololá	702	San José Chacayá	5	Chacayá	3	Marzo	2023-03-13T00:00:00	2024-11-06T07:00:00	4	Temperatura máxima	9.9
83763	7	Sololá	702	San José Chacayá	5	Chacayá	3	Marzo	2023-03-13T00:00:00	2024-11-06T07:00:00	3	Temperatura mínima	9.1
83764	7	Sololá	702	San José Chacayá	5	Chacayá	3	Marzo	2023-03-13T00:00:00	2024-11-06T07:00:00	5	Humedad	71
83765	7	Sololá	702	San José Chacayá	5	Chacayá	3	Marzo	2023-03-13T00:00:00	2024-11-06T07:00:00	6	Velocidad del viento	3.2
83766	7	Sololá	702	San José Chacayá	5	Chacayá	3	Marzo	2023-03-13T00:00:00	2024-11-06T07:00:00	7	Dirección del viento	3.22
83767	7	Sololá	702	San José Chacayá	5	Chacayá	3	Marzo	2023-03-13T00:00:00	2024-11-06T07:00:00	1	Precipitación	0
83768	7	Sololá	702	San José Chacayá	5	Chacayá	3	Marzo	2023-03-13T00:00:00	2024-11-06T07:00:00	8	Radiación solar	32
83769	7	Sololá	702	San José Chacayá	5	Chacayá	3	Marzo	2023-03-13T00:00:00	2024-11-06T08:00:00	2	Temperatura media	9.8
83770	7	Sololá	702	San José Chacayá	5	Chacayá	3	Marzo	2023-03-13T00:00:00	2024-11-06T08:00:00	4	Temperatura máxima	9.8
83771	7	Sololá	702	San José Chacayá	5	Chacayá	3	Marzo	2023-03-13T00:00:00	2024-11-06T08:00:00	3	Temperatura mínima	8.9
83772	7	Sololá	702	San José Chacayá	5	Chacayá	3	Marzo	2023-03-13T00:00:00	2024-11-06T08:00:00	5	Humedad	76
83773	7	Sololá	702	San José Chacayá	5	Chacayá	3	Marzo	2023-03-13T00:00:00	2024-11-06T08:00:00	6	Velocidad del viento	3.2
83774	7	Sololá	702	San José Chacayá	5	Chacayá	3	Marzo	2023-03-13T00:00:00	2024-11-06T08:00:00	7	Dirección del viento	3.22
83775	7	Sololá	702	San José Chacayá	5	Chacayá	3	Marzo	2023-03-13T00:00:00	2024-11-06T08:00:00	1	Precipitación	0
83776	7	Sololá	702	San José Chacayá	5	Chacayá	3	Marzo	2023-03-13T00:00:00	2024-11-06T08:00:00	8	Radiación solar	152
83777	7	Sololá	702	San José Chacayá	5	Chacayá	3	Marzo	2023-03-13T00:00:00	2024-11-06T09:00:00	2	Temperatura media	14.4
83778	7	Sololá	702	San José Chacayá	5	Chacayá	3	Marzo	2023-03-13T00:00:00	2024-11-06T09:00:00	4	Temperatura máxima	14.4
83779	7	Sololá	702	San José Chacayá	5	Chacayá	3	Marzo	2023-03-13T00:00:00	2024-11-06T09:00:00	3	Temperatura mínima	9.8
83780	7	Sololá	702	San José Chacayá	5	Chacayá	3	Marzo	2023-03-13T00:00:00	2024-11-06T09:00:00	5	Humedad	83
83781	7	Sololá	702	San José Chacayá	5	Chacayá	3	Marzo	2023-03-13T00:00:00	2024-11-06T09:00:00	6	Velocidad del viento	1.6
83782	7	Sololá	702	San José Chacayá	5	Chacayá	3	Marzo	2023-03-13T00:00:00	2024-11-06T09:00:00	7	Dirección del viento	1.61
83783	7	Sololá	702	San José Chacayá	5	Chacayá	3	Marzo	2023-03-13T00:00:00	2024-11-06T09:00:00	1	Precipitación	0
83784	7	Sololá	702	San José Chacayá	5	Chacayá	3	Marzo	2023-03-13T00:00:00	2024-11-06T09:00:00	8	Radiación solar	463
83785	7	Sololá	702	San José Chacayá	5	Chacayá	3	Marzo	2023-03-13T00:00:00	2024-11-06T10:00:00	2	Temperatura media	17.3
83786	7	Sololá	702	San José Chacayá	5	Chacayá	3	Marzo	2023-03-13T00:00:00	2024-11-06T10:00:00	4	Temperatura máxima	17.3
83787	7	Sololá	702	San José Chacayá	5	Chacayá	3	Marzo	2023-03-13T00:00:00	2024-11-06T10:00:00	3	Temperatura mínima	14.4
83788	7	Sololá	702	San José Chacayá	5	Chacayá	3	Marzo	2023-03-13T00:00:00	2024-11-06T10:00:00	5	Humedad	78
83789	7	Sololá	702	San José Chacayá	5	Chacayá	3	Marzo	2023-03-13T00:00:00	2024-11-06T10:00:00	6	Velocidad del viento	3.2
83790	7	Sololá	702	San José Chacayá	5	Chacayá	3	Marzo	2023-03-13T00:00:00	2024-11-06T10:00:00	7	Dirección del viento	3.22
83791	7	Sololá	702	San José Chacayá	5	Chacayá	3	Marzo	2023-03-13T00:00:00	2024-11-06T10:00:00	1	Precipitación	0
83792	7	Sololá	702	San José Chacayá	5	Chacayá	3	Marzo	2023-03-13T00:00:00	2024-11-06T10:00:00	8	Radiación solar	744
83793	7	Sololá	702	San José Chacayá	5	Chacayá	3	Marzo	2023-03-13T00:00:00	2024-11-06T11:00:00	2	Temperatura media	18.9
83794	7	Sololá	702	San José Chacayá	5	Chacayá	3	Marzo	2023-03-13T00:00:00	2024-11-06T11:00:00	4	Temperatura máxima	18.9
83795	7	Sololá	702	San José Chacayá	5	Chacayá	3	Marzo	2023-03-13T00:00:00	2024-11-06T11:00:00	3	Temperatura mínima	17.3
83796	7	Sololá	702	San José Chacayá	5	Chacayá	3	Marzo	2023-03-13T00:00:00	2024-11-06T11:00:00	5	Humedad	75
83797	7	Sololá	702	San José Chacayá	5	Chacayá	3	Marzo	2023-03-13T00:00:00	2024-11-06T11:00:00	6	Velocidad del viento	4.8
83798	7	Sololá	702	San José Chacayá	5	Chacayá	3	Marzo	2023-03-13T00:00:00	2024-11-06T11:00:00	7	Dirección del viento	4.83
83799	7	Sololá	702	San José Chacayá	5	Chacayá	3	Marzo	2023-03-13T00:00:00	2024-11-06T11:00:00	1	Precipitación	0
83800	7	Sololá	702	San José Chacayá	5	Chacayá	3	Marzo	2023-03-13T00:00:00	2024-11-06T11:00:00	8	Radiación solar	764
83801	7	Sololá	702	San José Chacayá	5	Chacayá	3	Marzo	2023-03-13T00:00:00	2024-11-06T12:00:00	2	Temperatura media	19.2
83802	7	Sololá	702	San José Chacayá	5	Chacayá	3	Marzo	2023-03-13T00:00:00	2024-11-06T12:00:00	4	Temperatura máxima	19.6
83803	7	Sololá	702	San José Chacayá	5	Chacayá	3	Marzo	2023-03-13T00:00:00	2024-11-06T12:00:00	3	Temperatura mínima	18.8
83804	7	Sololá	702	San José Chacayá	5	Chacayá	3	Marzo	2023-03-13T00:00:00	2024-11-06T12:00:00	5	Humedad	71
83805	7	Sololá	702	San José Chacayá	5	Chacayá	3	Marzo	2023-03-13T00:00:00	2024-11-06T12:00:00	6	Velocidad del viento	8
83806	7	Sololá	702	San José Chacayá	5	Chacayá	3	Marzo	2023-03-13T00:00:00	2024-11-06T12:00:00	7	Dirección del viento	8.05
83807	7	Sololá	702	San José Chacayá	5	Chacayá	3	Marzo	2023-03-13T00:00:00	2024-11-06T12:00:00	1	Precipitación	0
83808	7	Sololá	702	San José Chacayá	5	Chacayá	3	Marzo	2023-03-13T00:00:00	2024-11-06T12:00:00	8	Radiación solar	1008
83809	7	Sololá	702	San José Chacayá	5	Chacayá	3	Marzo	2023-03-13T00:00:00	2024-11-06T13:00:00	2	Temperatura media	19.5
83810	7	Sololá	702	San José Chacayá	5	Chacayá	3	Marzo	2023-03-13T00:00:00	2024-11-06T13:00:00	4	Temperatura máxima	19.9
83811	7	Sololá	702	San José Chacayá	5	Chacayá	3	Marzo	2023-03-13T00:00:00	2024-11-06T13:00:00	3	Temperatura mínima	18.6
83812	7	Sololá	702	San José Chacayá	5	Chacayá	3	Marzo	2023-03-13T00:00:00	2024-11-06T13:00:00	5	Humedad	74
83813	7	Sololá	702	San José Chacayá	5	Chacayá	3	Marzo	2023-03-13T00:00:00	2024-11-06T13:00:00	6	Velocidad del viento	6.4
83814	7	Sololá	702	San José Chacayá	5	Chacayá	3	Marzo	2023-03-13T00:00:00	2024-11-06T13:00:00	7	Dirección del viento	6.44
83815	7	Sololá	702	San José Chacayá	5	Chacayá	3	Marzo	2023-03-13T00:00:00	2024-11-06T13:00:00	1	Precipitación	0
83816	7	Sololá	702	San José Chacayá	5	Chacayá	3	Marzo	2023-03-13T00:00:00	2024-11-06T13:00:00	8	Radiación solar	771
83817	7	Sololá	702	San José Chacayá	5	Chacayá	3	Marzo	2023-03-13T00:00:00	2024-11-06T14:00:00	2	Temperatura media	18.4
83818	7	Sololá	702	San José Chacayá	5	Chacayá	3	Marzo	2023-03-13T00:00:00	2024-11-06T14:00:00	4	Temperatura máxima	19.9
83819	7	Sololá	702	San José Chacayá	5	Chacayá	3	Marzo	2023-03-13T00:00:00	2024-11-06T14:00:00	3	Temperatura mínima	18.4
83820	7	Sololá	702	San José Chacayá	5	Chacayá	3	Marzo	2023-03-13T00:00:00	2024-11-06T14:00:00	5	Humedad	75
83821	7	Sololá	702	San José Chacayá	5	Chacayá	3	Marzo	2023-03-13T00:00:00	2024-11-06T14:00:00	6	Velocidad del viento	6.4
83822	7	Sololá	702	San José Chacayá	5	Chacayá	3	Marzo	2023-03-13T00:00:00	2024-11-06T14:00:00	7	Dirección del viento	6.44
83823	7	Sololá	702	San José Chacayá	5	Chacayá	3	Marzo	2023-03-13T00:00:00	2024-11-06T14:00:00	1	Precipitación	0
83824	7	Sololá	702	San José Chacayá	5	Chacayá	3	Marzo	2023-03-13T00:00:00	2024-11-06T14:00:00	8	Radiación solar	645
83825	7	Sololá	702	San José Chacayá	5	Chacayá	3	Marzo	2023-03-13T00:00:00	2024-11-06T15:00:00	2	Temperatura media	18.6
83826	7	Sololá	702	San José Chacayá	5	Chacayá	3	Marzo	2023-03-13T00:00:00	2024-11-06T15:00:00	4	Temperatura máxima	19.2
83827	7	Sololá	702	San José Chacayá	5	Chacayá	3	Marzo	2023-03-13T00:00:00	2024-11-06T15:00:00	3	Temperatura mínima	17.3
83828	7	Sololá	702	San José Chacayá	5	Chacayá	3	Marzo	2023-03-13T00:00:00	2024-11-06T15:00:00	5	Humedad	76
83829	7	Sololá	702	San José Chacayá	5	Chacayá	3	Marzo	2023-03-13T00:00:00	2024-11-06T15:00:00	6	Velocidad del viento	6.4
83830	7	Sololá	702	San José Chacayá	5	Chacayá	3	Marzo	2023-03-13T00:00:00	2024-11-06T15:00:00	7	Dirección del viento	6.44
83831	7	Sololá	702	San José Chacayá	5	Chacayá	3	Marzo	2023-03-13T00:00:00	2024-11-06T15:00:00	1	Precipitación	0
83832	7	Sololá	702	San José Chacayá	5	Chacayá	3	Marzo	2023-03-13T00:00:00	2024-11-06T15:00:00	8	Radiación solar	164
83833	7	Sololá	702	San José Chacayá	5	Chacayá	3	Marzo	2023-03-13T00:00:00	2024-11-06T16:00:00	2	Temperatura media	16
83834	7	Sololá	702	San José Chacayá	5	Chacayá	3	Marzo	2023-03-13T00:00:00	2024-11-06T16:00:00	4	Temperatura máxima	18.8
83835	7	Sololá	702	San José Chacayá	5	Chacayá	3	Marzo	2023-03-13T00:00:00	2024-11-06T16:00:00	3	Temperatura mínima	15.9
83836	7	Sololá	702	San José Chacayá	5	Chacayá	3	Marzo	2023-03-13T00:00:00	2024-11-06T16:00:00	5	Humedad	83
83837	7	Sololá	702	San José Chacayá	5	Chacayá	3	Marzo	2023-03-13T00:00:00	2024-11-06T16:00:00	6	Velocidad del viento	4.8
83838	7	Sololá	702	San José Chacayá	5	Chacayá	3	Marzo	2023-03-13T00:00:00	2024-11-06T16:00:00	7	Dirección del viento	4.83
83839	7	Sololá	702	San José Chacayá	5	Chacayá	3	Marzo	2023-03-13T00:00:00	2024-11-06T16:00:00	1	Precipitación	0
83840	7	Sololá	702	San José Chacayá	5	Chacayá	3	Marzo	2023-03-13T00:00:00	2024-11-06T16:00:00	8	Radiación solar	52
83841	7	Sololá	702	San José Chacayá	5	Chacayá	3	Marzo	2023-03-13T00:00:00	2024-11-06T17:00:00	2	Temperatura media	15.6
83842	7	Sololá	702	San José Chacayá	5	Chacayá	3	Marzo	2023-03-13T00:00:00	2024-11-06T17:00:00	4	Temperatura máxima	16.3
83843	7	Sololá	702	San José Chacayá	5	Chacayá	3	Marzo	2023-03-13T00:00:00	2024-11-06T17:00:00	3	Temperatura mínima	15.6
83844	7	Sololá	702	San José Chacayá	5	Chacayá	3	Marzo	2023-03-13T00:00:00	2024-11-06T17:00:00	5	Humedad	83
83845	7	Sololá	702	San José Chacayá	5	Chacayá	3	Marzo	2023-03-13T00:00:00	2024-11-06T17:00:00	6	Velocidad del viento	1.6
83846	7	Sololá	702	San José Chacayá	5	Chacayá	3	Marzo	2023-03-13T00:00:00	2024-11-06T17:00:00	7	Dirección del viento	1.61
83847	7	Sololá	702	San José Chacayá	5	Chacayá	3	Marzo	2023-03-13T00:00:00	2024-11-06T17:00:00	1	Precipitación	0
83848	7	Sololá	702	San José Chacayá	5	Chacayá	3	Marzo	2023-03-13T00:00:00	2024-11-06T17:00:00	8	Radiación solar	80
83849	7	Sololá	702	San José Chacayá	5	Chacayá	3	Marzo	2023-03-13T00:00:00	2024-11-06T18:00:00	2	Temperatura media	15.4
83850	7	Sololá	702	San José Chacayá	5	Chacayá	3	Marzo	2023-03-13T00:00:00	2024-11-06T18:00:00	4	Temperatura máxima	15.9
83851	7	Sololá	702	San José Chacayá	5	Chacayá	3	Marzo	2023-03-13T00:00:00	2024-11-06T18:00:00	3	Temperatura mínima	15.4
83852	7	Sololá	702	San José Chacayá	5	Chacayá	3	Marzo	2023-03-13T00:00:00	2024-11-06T18:00:00	5	Humedad	81
83853	7	Sololá	702	San José Chacayá	5	Chacayá	3	Marzo	2023-03-13T00:00:00	2024-11-06T18:00:00	6	Velocidad del viento	1.6
83854	7	Sololá	702	San José Chacayá	5	Chacayá	3	Marzo	2023-03-13T00:00:00	2024-11-06T18:00:00	7	Dirección del viento	1.61
83855	7	Sololá	702	San José Chacayá	5	Chacayá	3	Marzo	2023-03-13T00:00:00	2024-11-06T18:00:00	1	Precipitación	0
83856	7	Sololá	702	San José Chacayá	5	Chacayá	3	Marzo	2023-03-13T00:00:00	2024-11-06T18:00:00	8	Radiación solar	22
83857	7	Sololá	702	San José Chacayá	5	Chacayá	3	Marzo	2023-03-13T00:00:00	2024-11-06T19:00:00	2	Temperatura media	14.9
83858	7	Sololá	702	San José Chacayá	5	Chacayá	3	Marzo	2023-03-13T00:00:00	2024-11-06T19:00:00	4	Temperatura máxima	15.4
83859	7	Sololá	702	San José Chacayá	5	Chacayá	3	Marzo	2023-03-13T00:00:00	2024-11-06T19:00:00	3	Temperatura mínima	14.9
83860	7	Sololá	702	San José Chacayá	5	Chacayá	3	Marzo	2023-03-13T00:00:00	2024-11-06T19:00:00	5	Humedad	78
83861	7	Sololá	702	San José Chacayá	5	Chacayá	3	Marzo	2023-03-13T00:00:00	2024-11-06T19:00:00	6	Velocidad del viento	3.2
83862	7	Sololá	702	San José Chacayá	5	Chacayá	3	Marzo	2023-03-13T00:00:00	2024-11-06T19:00:00	7	Dirección del viento	3.22
83863	7	Sololá	702	San José Chacayá	5	Chacayá	3	Marzo	2023-03-13T00:00:00	2024-11-06T19:00:00	1	Precipitación	0
83864	7	Sololá	702	San José Chacayá	5	Chacayá	3	Marzo	2023-03-13T00:00:00	2024-11-06T19:00:00	8	Radiación solar	0
83865	7	Sololá	702	San José Chacayá	5	Chacayá	3	Marzo	2023-03-13T00:00:00	2024-11-06T20:00:00	2	Temperatura media	14.7
83866	7	Sololá	702	San José Chacayá	5	Chacayá	3	Marzo	2023-03-13T00:00:00	2024-11-06T20:00:00	4	Temperatura máxima	14.9
83867	7	Sololá	702	San José Chacayá	5	Chacayá	3	Marzo	2023-03-13T00:00:00	2024-11-06T20:00:00	3	Temperatura mínima	14.7
83868	7	Sololá	702	San José Chacayá	5	Chacayá	3	Marzo	2023-03-13T00:00:00	2024-11-06T20:00:00	5	Humedad	76
83869	7	Sololá	702	San José Chacayá	5	Chacayá	3	Marzo	2023-03-13T00:00:00	2024-11-06T20:00:00	6	Velocidad del viento	0
83870	7	Sololá	702	San José Chacayá	5	Chacayá	3	Marzo	2023-03-13T00:00:00	2024-11-06T20:00:00	7	Dirección del viento	0
83871	7	Sololá	702	San José Chacayá	5	Chacayá	3	Marzo	2023-03-13T00:00:00	2024-11-06T20:00:00	1	Precipitación	0
83872	7	Sololá	702	San José Chacayá	5	Chacayá	3	Marzo	2023-03-13T00:00:00	2024-11-06T20:00:00	8	Radiación solar	0
83873	7	Sololá	702	San José Chacayá	5	Chacayá	3	Marzo	2023-03-13T00:00:00	2024-11-06T21:00:00	2	Temperatura media	14.5
83874	7	Sololá	702	San José Chacayá	5	Chacayá	3	Marzo	2023-03-13T00:00:00	2024-11-06T21:00:00	4	Temperatura máxima	14.7
83875	7	Sololá	702	San José Chacayá	5	Chacayá	3	Marzo	2023-03-13T00:00:00	2024-11-06T21:00:00	3	Temperatura mínima	14.5
83876	7	Sololá	702	San José Chacayá	5	Chacayá	3	Marzo	2023-03-13T00:00:00	2024-11-06T21:00:00	5	Humedad	71
83877	7	Sololá	702	San José Chacayá	5	Chacayá	3	Marzo	2023-03-13T00:00:00	2024-11-06T21:00:00	6	Velocidad del viento	0
83878	7	Sololá	702	San José Chacayá	5	Chacayá	3	Marzo	2023-03-13T00:00:00	2024-11-06T21:00:00	7	Dirección del viento	0
83879	7	Sololá	702	San José Chacayá	5	Chacayá	3	Marzo	2023-03-13T00:00:00	2024-11-06T21:00:00	1	Precipitación	0
83880	7	Sololá	702	San José Chacayá	5	Chacayá	3	Marzo	2023-03-13T00:00:00	2024-11-06T21:00:00	8	Radiación solar	0
83881	7	Sololá	702	San José Chacayá	5	Chacayá	3	Marzo	2023-03-13T00:00:00	2024-11-06T22:00:00	2	Temperatura media	14.3
83882	7	Sololá	702	San José Chacayá	5	Chacayá	3	Marzo	2023-03-13T00:00:00	2024-11-06T22:00:00	4	Temperatura máxima	14.5
83883	7	Sololá	702	San José Chacayá	5	Chacayá	3	Marzo	2023-03-13T00:00:00	2024-11-06T22:00:00	3	Temperatura mínima	14.3
83884	7	Sololá	702	San José Chacayá	5	Chacayá	3	Marzo	2023-03-13T00:00:00	2024-11-06T22:00:00	5	Humedad	60
83885	7	Sololá	702	San José Chacayá	5	Chacayá	3	Marzo	2023-03-13T00:00:00	2024-11-06T22:00:00	6	Velocidad del viento	0
83886	7	Sololá	702	San José Chacayá	5	Chacayá	3	Marzo	2023-03-13T00:00:00	2024-11-06T22:00:00	7	Dirección del viento	0
83887	7	Sololá	702	San José Chacayá	5	Chacayá	3	Marzo	2023-03-13T00:00:00	2024-11-06T22:00:00	1	Precipitación	6.6
83888	7	Sololá	702	San José Chacayá	5	Chacayá	3	Marzo	2023-03-13T00:00:00	2024-11-06T22:00:00	8	Radiación solar	0
83889	7	Sololá	702	San José Chacayá	5	Chacayá	3	Marzo	2023-03-13T00:00:00	2024-11-06T23:00:00	2	Temperatura media	13.7
83890	7	Sololá	702	San José Chacayá	5	Chacayá	3	Marzo	2023-03-13T00:00:00	2024-11-06T23:00:00	4	Temperatura máxima	14.3
83891	7	Sololá	702	San José Chacayá	5	Chacayá	3	Marzo	2023-03-13T00:00:00	2024-11-06T23:00:00	3	Temperatura mínima	13.7
83892	7	Sololá	702	San José Chacayá	5	Chacayá	3	Marzo	2023-03-13T00:00:00	2024-11-06T23:00:00	5	Humedad	57
83893	7	Sololá	702	San José Chacayá	5	Chacayá	3	Marzo	2023-03-13T00:00:00	2024-11-06T23:00:00	6	Velocidad del viento	0
83894	7	Sololá	702	San José Chacayá	5	Chacayá	3	Marzo	2023-03-13T00:00:00	2024-11-06T23:00:00	7	Dirección del viento	0
83895	7	Sololá	702	San José Chacayá	5	Chacayá	3	Marzo	2023-03-13T00:00:00	2024-11-06T23:00:00	1	Precipitación	0.2
83896	7	Sololá	702	San José Chacayá	5	Chacayá	3	Marzo	2023-03-13T00:00:00	2024-11-06T23:00:00	8	Radiación solar	0
83897	7	Sololá	702	San José Chacayá	5	Chacayá	3	Marzo	2023-03-14T00:00:00	2024-11-06T00:00:00	2	Temperatura media	12.4
83898	7	Sololá	702	San José Chacayá	5	Chacayá	3	Marzo	2023-03-14T00:00:00	2024-11-06T00:00:00	4	Temperatura máxima	13.7
83899	7	Sololá	702	San José Chacayá	5	Chacayá	3	Marzo	2023-03-14T00:00:00	2024-11-06T00:00:00	3	Temperatura mínima	12.4
83900	7	Sololá	702	San José Chacayá	5	Chacayá	3	Marzo	2023-03-14T00:00:00	2024-11-06T00:00:00	5	Humedad	73
83901	7	Sololá	702	San José Chacayá	5	Chacayá	3	Marzo	2023-03-14T00:00:00	2024-11-06T00:00:00	6	Velocidad del viento	1.6
83902	7	Sololá	702	San José Chacayá	5	Chacayá	3	Marzo	2023-03-14T00:00:00	2024-11-06T00:00:00	7	Dirección del viento	1.61
83903	7	Sololá	702	San José Chacayá	5	Chacayá	3	Marzo	2023-03-14T00:00:00	2024-11-06T00:00:00	1	Precipitación	0
83904	7	Sololá	702	San José Chacayá	5	Chacayá	3	Marzo	2023-03-14T00:00:00	2024-11-06T00:00:00	8	Radiación solar	0
83905	7	Sololá	702	San José Chacayá	5	Chacayá	3	Marzo	2023-03-14T00:00:00	2024-11-06T01:00:00	2	Temperatura media	11.4
83906	7	Sololá	702	San José Chacayá	5	Chacayá	3	Marzo	2023-03-14T00:00:00	2024-11-06T01:00:00	4	Temperatura máxima	12.4
83907	7	Sololá	702	San José Chacayá	5	Chacayá	3	Marzo	2023-03-14T00:00:00	2024-11-06T01:00:00	3	Temperatura mínima	11.4
83908	7	Sololá	702	San José Chacayá	5	Chacayá	3	Marzo	2023-03-14T00:00:00	2024-11-06T01:00:00	5	Humedad	69
83909	7	Sololá	702	San José Chacayá	5	Chacayá	3	Marzo	2023-03-14T00:00:00	2024-11-06T01:00:00	6	Velocidad del viento	1.6
83910	7	Sololá	702	San José Chacayá	5	Chacayá	3	Marzo	2023-03-14T00:00:00	2024-11-06T01:00:00	7	Dirección del viento	1.61
83911	7	Sololá	702	San José Chacayá	5	Chacayá	3	Marzo	2023-03-14T00:00:00	2024-11-06T01:00:00	1	Precipitación	0.2
83912	7	Sololá	702	San José Chacayá	5	Chacayá	3	Marzo	2023-03-14T00:00:00	2024-11-06T01:00:00	8	Radiación solar	0
83913	7	Sololá	702	San José Chacayá	5	Chacayá	3	Marzo	2023-03-14T00:00:00	2024-11-06T02:00:00	2	Temperatura media	11.1
83914	7	Sololá	702	San José Chacayá	5	Chacayá	3	Marzo	2023-03-14T00:00:00	2024-11-06T02:00:00	4	Temperatura máxima	11.4
83915	7	Sololá	702	San José Chacayá	5	Chacayá	3	Marzo	2023-03-14T00:00:00	2024-11-06T02:00:00	3	Temperatura mínima	10.9
83916	7	Sololá	702	San José Chacayá	5	Chacayá	3	Marzo	2023-03-14T00:00:00	2024-11-06T02:00:00	5	Humedad	71
83917	7	Sololá	702	San José Chacayá	5	Chacayá	3	Marzo	2023-03-14T00:00:00	2024-11-06T02:00:00	6	Velocidad del viento	3.2
83918	7	Sololá	702	San José Chacayá	5	Chacayá	3	Marzo	2023-03-14T00:00:00	2024-11-06T02:00:00	7	Dirección del viento	3.22
83919	7	Sololá	702	San José Chacayá	5	Chacayá	3	Marzo	2023-03-14T00:00:00	2024-11-06T02:00:00	1	Precipitación	0
83920	7	Sololá	702	San José Chacayá	5	Chacayá	3	Marzo	2023-03-14T00:00:00	2024-11-06T02:00:00	8	Radiación solar	0
83921	7	Sololá	702	San José Chacayá	5	Chacayá	3	Marzo	2023-03-14T00:00:00	2024-11-06T03:00:00	2	Temperatura media	11.3
83922	7	Sololá	702	San José Chacayá	5	Chacayá	3	Marzo	2023-03-14T00:00:00	2024-11-06T03:00:00	4	Temperatura máxima	11.4
83923	7	Sololá	702	San José Chacayá	5	Chacayá	3	Marzo	2023-03-14T00:00:00	2024-11-06T03:00:00	3	Temperatura mínima	11.1
83924	7	Sololá	702	San José Chacayá	5	Chacayá	3	Marzo	2023-03-14T00:00:00	2024-11-06T03:00:00	5	Humedad	79
83925	7	Sololá	702	San José Chacayá	5	Chacayá	3	Marzo	2023-03-14T00:00:00	2024-11-06T03:00:00	6	Velocidad del viento	3.2
83926	7	Sololá	702	San José Chacayá	5	Chacayá	3	Marzo	2023-03-14T00:00:00	2024-11-06T03:00:00	7	Dirección del viento	3.22
83927	7	Sololá	702	San José Chacayá	5	Chacayá	3	Marzo	2023-03-14T00:00:00	2024-11-06T03:00:00	1	Precipitación	0
83928	7	Sololá	702	San José Chacayá	5	Chacayá	3	Marzo	2023-03-14T00:00:00	2024-11-06T03:00:00	8	Radiación solar	0
83929	7	Sololá	702	San José Chacayá	5	Chacayá	3	Marzo	2023-03-14T00:00:00	2024-11-06T04:00:00	2	Temperatura media	11.6
83930	7	Sololá	702	San José Chacayá	5	Chacayá	3	Marzo	2023-03-14T00:00:00	2024-11-06T04:00:00	4	Temperatura máxima	11.6
83931	7	Sololá	702	San José Chacayá	5	Chacayá	3	Marzo	2023-03-14T00:00:00	2024-11-06T04:00:00	3	Temperatura mínima	11.3
83932	7	Sololá	702	San José Chacayá	5	Chacayá	3	Marzo	2023-03-14T00:00:00	2024-11-06T04:00:00	5	Humedad	73
83933	7	Sololá	702	San José Chacayá	5	Chacayá	3	Marzo	2023-03-14T00:00:00	2024-11-06T04:00:00	6	Velocidad del viento	1.6
83934	7	Sololá	702	San José Chacayá	5	Chacayá	3	Marzo	2023-03-14T00:00:00	2024-11-06T04:00:00	7	Dirección del viento	1.61
83935	7	Sololá	702	San José Chacayá	5	Chacayá	3	Marzo	2023-03-14T00:00:00	2024-11-06T04:00:00	1	Precipitación	0
83936	7	Sololá	702	San José Chacayá	5	Chacayá	3	Marzo	2023-03-14T00:00:00	2024-11-06T04:00:00	8	Radiación solar	0
83937	7	Sololá	702	San José Chacayá	5	Chacayá	3	Marzo	2023-03-14T00:00:00	2024-11-06T05:00:00	2	Temperatura media	11.5
83938	7	Sololá	702	San José Chacayá	5	Chacayá	3	Marzo	2023-03-14T00:00:00	2024-11-06T05:00:00	4	Temperatura máxima	11.7
83939	7	Sololá	702	San José Chacayá	5	Chacayá	3	Marzo	2023-03-14T00:00:00	2024-11-06T05:00:00	3	Temperatura mínima	11.5
83940	7	Sololá	702	San José Chacayá	5	Chacayá	3	Marzo	2023-03-14T00:00:00	2024-11-06T05:00:00	5	Humedad	75
83941	7	Sololá	702	San José Chacayá	5	Chacayá	3	Marzo	2023-03-14T00:00:00	2024-11-06T05:00:00	6	Velocidad del viento	3.2
83942	7	Sololá	702	San José Chacayá	5	Chacayá	3	Marzo	2023-03-14T00:00:00	2024-11-06T05:00:00	7	Dirección del viento	3.22
83943	7	Sololá	702	San José Chacayá	5	Chacayá	3	Marzo	2023-03-14T00:00:00	2024-11-06T05:00:00	1	Precipitación	0
83944	7	Sololá	702	San José Chacayá	5	Chacayá	3	Marzo	2023-03-14T00:00:00	2024-11-06T05:00:00	8	Radiación solar	0
83945	7	Sololá	702	San José Chacayá	5	Chacayá	3	Marzo	2023-03-14T00:00:00	2024-11-06T06:00:00	2	Temperatura media	11.1
83946	7	Sololá	702	San José Chacayá	5	Chacayá	3	Marzo	2023-03-14T00:00:00	2024-11-06T06:00:00	4	Temperatura máxima	11.6
83947	7	Sololá	702	San José Chacayá	5	Chacayá	3	Marzo	2023-03-14T00:00:00	2024-11-06T06:00:00	3	Temperatura mínima	11.1
83948	7	Sololá	702	San José Chacayá	5	Chacayá	3	Marzo	2023-03-14T00:00:00	2024-11-06T06:00:00	5	Humedad	70
83949	7	Sololá	702	San José Chacayá	5	Chacayá	3	Marzo	2023-03-14T00:00:00	2024-11-06T06:00:00	6	Velocidad del viento	1.6
83950	7	Sololá	702	San José Chacayá	5	Chacayá	3	Marzo	2023-03-14T00:00:00	2024-11-06T06:00:00	7	Dirección del viento	1.61
83951	7	Sololá	702	San José Chacayá	5	Chacayá	3	Marzo	2023-03-14T00:00:00	2024-11-06T06:00:00	1	Precipitación	0
83952	7	Sololá	702	San José Chacayá	5	Chacayá	3	Marzo	2023-03-14T00:00:00	2024-11-06T06:00:00	8	Radiación solar	0
83953	7	Sololá	702	San José Chacayá	5	Chacayá	3	Marzo	2023-03-14T00:00:00	2024-11-06T07:00:00	2	Temperatura media	10.4
83954	7	Sololá	702	San José Chacayá	5	Chacayá	3	Marzo	2023-03-14T00:00:00	2024-11-06T07:00:00	4	Temperatura máxima	11.1
83955	7	Sololá	702	San José Chacayá	5	Chacayá	3	Marzo	2023-03-14T00:00:00	2024-11-06T07:00:00	3	Temperatura mínima	10.4
83956	7	Sololá	702	San José Chacayá	5	Chacayá	3	Marzo	2023-03-14T00:00:00	2024-11-06T07:00:00	5	Humedad	74
83957	7	Sololá	702	San José Chacayá	5	Chacayá	3	Marzo	2023-03-14T00:00:00	2024-11-06T07:00:00	6	Velocidad del viento	1.6
83958	7	Sololá	702	San José Chacayá	5	Chacayá	3	Marzo	2023-03-14T00:00:00	2024-11-06T07:00:00	7	Dirección del viento	1.61
83959	7	Sololá	702	San José Chacayá	5	Chacayá	3	Marzo	2023-03-14T00:00:00	2024-11-06T07:00:00	1	Precipitación	0
83960	7	Sololá	702	San José Chacayá	5	Chacayá	3	Marzo	2023-03-14T00:00:00	2024-11-06T07:00:00	8	Radiación solar	17
83961	7	Sololá	702	San José Chacayá	5	Chacayá	3	Marzo	2023-03-14T00:00:00	2024-11-06T08:00:00	2	Temperatura media	11.1
83962	7	Sololá	702	San José Chacayá	5	Chacayá	3	Marzo	2023-03-14T00:00:00	2024-11-06T08:00:00	4	Temperatura máxima	11.1
83963	7	Sololá	702	San José Chacayá	5	Chacayá	3	Marzo	2023-03-14T00:00:00	2024-11-06T08:00:00	3	Temperatura mínima	10.3
83964	7	Sololá	702	San José Chacayá	5	Chacayá	3	Marzo	2023-03-14T00:00:00	2024-11-06T08:00:00	5	Humedad	74
83965	7	Sololá	702	San José Chacayá	5	Chacayá	3	Marzo	2023-03-14T00:00:00	2024-11-06T08:00:00	6	Velocidad del viento	1.6
83966	7	Sololá	702	San José Chacayá	5	Chacayá	3	Marzo	2023-03-14T00:00:00	2024-11-06T08:00:00	7	Dirección del viento	1.61
83967	7	Sololá	702	San José Chacayá	5	Chacayá	3	Marzo	2023-03-14T00:00:00	2024-11-06T08:00:00	1	Precipitación	0
83968	7	Sololá	702	San José Chacayá	5	Chacayá	3	Marzo	2023-03-14T00:00:00	2024-11-06T08:00:00	8	Radiación solar	143
83969	7	Sololá	702	San José Chacayá	5	Chacayá	3	Marzo	2023-03-14T00:00:00	2024-11-06T09:00:00	2	Temperatura media	15
83970	7	Sololá	702	San José Chacayá	5	Chacayá	3	Marzo	2023-03-14T00:00:00	2024-11-06T09:00:00	4	Temperatura máxima	15
83971	7	Sololá	702	San José Chacayá	5	Chacayá	3	Marzo	2023-03-14T00:00:00	2024-11-06T09:00:00	3	Temperatura mínima	11.1
83972	7	Sololá	702	San José Chacayá	5	Chacayá	3	Marzo	2023-03-14T00:00:00	2024-11-06T09:00:00	5	Humedad	84
83973	7	Sololá	702	San José Chacayá	5	Chacayá	3	Marzo	2023-03-14T00:00:00	2024-11-06T09:00:00	6	Velocidad del viento	3.2
83974	7	Sololá	702	San José Chacayá	5	Chacayá	3	Marzo	2023-03-14T00:00:00	2024-11-06T09:00:00	7	Dirección del viento	3.22
83975	7	Sololá	702	San José Chacayá	5	Chacayá	3	Marzo	2023-03-14T00:00:00	2024-11-06T09:00:00	1	Precipitación	0
83976	7	Sololá	702	San José Chacayá	5	Chacayá	3	Marzo	2023-03-14T00:00:00	2024-11-06T09:00:00	8	Radiación solar	467
83977	7	Sololá	702	San José Chacayá	5	Chacayá	3	Marzo	2023-03-14T00:00:00	2024-11-06T10:00:00	2	Temperatura media	19.2
83978	7	Sololá	702	San José Chacayá	5	Chacayá	3	Marzo	2023-03-14T00:00:00	2024-11-06T10:00:00	4	Temperatura máxima	19.2
83979	7	Sololá	702	San José Chacayá	5	Chacayá	3	Marzo	2023-03-14T00:00:00	2024-11-06T10:00:00	3	Temperatura mínima	15
83980	7	Sololá	702	San José Chacayá	5	Chacayá	3	Marzo	2023-03-14T00:00:00	2024-11-06T10:00:00	5	Humedad	67
83981	7	Sololá	702	San José Chacayá	5	Chacayá	3	Marzo	2023-03-14T00:00:00	2024-11-06T10:00:00	6	Velocidad del viento	1.6
83982	7	Sololá	702	San José Chacayá	5	Chacayá	3	Marzo	2023-03-14T00:00:00	2024-11-06T10:00:00	7	Dirección del viento	1.61
83983	7	Sololá	702	San José Chacayá	5	Chacayá	3	Marzo	2023-03-14T00:00:00	2024-11-06T10:00:00	1	Precipitación	0
83984	7	Sololá	702	San José Chacayá	5	Chacayá	3	Marzo	2023-03-14T00:00:00	2024-11-06T10:00:00	8	Radiación solar	721
83985	7	Sololá	702	San José Chacayá	5	Chacayá	3	Marzo	2023-03-14T00:00:00	2024-11-06T11:00:00	2	Temperatura media	20.4
83986	7	Sololá	702	San José Chacayá	5	Chacayá	3	Marzo	2023-03-14T00:00:00	2024-11-06T11:00:00	4	Temperatura máxima	20.4
83987	7	Sololá	702	San José Chacayá	5	Chacayá	3	Marzo	2023-03-14T00:00:00	2024-11-06T11:00:00	3	Temperatura mínima	19.2
83988	7	Sololá	702	San José Chacayá	5	Chacayá	3	Marzo	2023-03-14T00:00:00	2024-11-06T11:00:00	5	Humedad	61
83989	7	Sololá	702	San José Chacayá	5	Chacayá	3	Marzo	2023-03-14T00:00:00	2024-11-06T11:00:00	6	Velocidad del viento	4.8
83990	7	Sololá	702	San José Chacayá	5	Chacayá	3	Marzo	2023-03-14T00:00:00	2024-11-06T11:00:00	7	Dirección del viento	4.83
83991	7	Sololá	702	San José Chacayá	5	Chacayá	3	Marzo	2023-03-14T00:00:00	2024-11-06T11:00:00	1	Precipitación	0
83992	7	Sololá	702	San José Chacayá	5	Chacayá	3	Marzo	2023-03-14T00:00:00	2024-11-06T11:00:00	8	Radiación solar	748
83993	7	Sololá	702	San José Chacayá	5	Chacayá	3	Marzo	2023-03-14T00:00:00	2024-11-06T12:00:00	2	Temperatura media	21.2
83994	7	Sololá	702	San José Chacayá	5	Chacayá	3	Marzo	2023-03-14T00:00:00	2024-11-06T12:00:00	4	Temperatura máxima	21.2
83995	7	Sololá	702	San José Chacayá	5	Chacayá	3	Marzo	2023-03-14T00:00:00	2024-11-06T12:00:00	3	Temperatura mínima	20.4
83996	7	Sololá	702	San José Chacayá	5	Chacayá	3	Marzo	2023-03-14T00:00:00	2024-11-06T12:00:00	5	Humedad	62
83997	7	Sololá	702	San José Chacayá	5	Chacayá	3	Marzo	2023-03-14T00:00:00	2024-11-06T12:00:00	6	Velocidad del viento	6.4
83998	7	Sololá	702	San José Chacayá	5	Chacayá	3	Marzo	2023-03-14T00:00:00	2024-11-06T12:00:00	7	Dirección del viento	6.44
83999	7	Sololá	702	San José Chacayá	5	Chacayá	3	Marzo	2023-03-14T00:00:00	2024-11-06T12:00:00	1	Precipitación	0
84000	7	Sololá	702	San José Chacayá	5	Chacayá	3	Marzo	2023-03-14T00:00:00	2024-11-06T12:00:00	8	Radiación solar	956
84001	7	Sololá	702	San José Chacayá	5	Chacayá	3	Marzo	2023-03-14T00:00:00	2024-11-06T13:00:00	2	Temperatura media	21.4
84002	7	Sololá	702	San José Chacayá	5	Chacayá	3	Marzo	2023-03-14T00:00:00	2024-11-06T13:00:00	4	Temperatura máxima	21.4
84003	7	Sololá	702	San José Chacayá	5	Chacayá	3	Marzo	2023-03-14T00:00:00	2024-11-06T13:00:00	3	Temperatura mínima	20.7
84004	7	Sololá	702	San José Chacayá	5	Chacayá	3	Marzo	2023-03-14T00:00:00	2024-11-06T13:00:00	5	Humedad	64
84005	7	Sololá	702	San José Chacayá	5	Chacayá	3	Marzo	2023-03-14T00:00:00	2024-11-06T13:00:00	6	Velocidad del viento	8
84006	7	Sololá	702	San José Chacayá	5	Chacayá	3	Marzo	2023-03-14T00:00:00	2024-11-06T13:00:00	7	Dirección del viento	8.05
84007	7	Sololá	702	San José Chacayá	5	Chacayá	3	Marzo	2023-03-14T00:00:00	2024-11-06T13:00:00	1	Precipitación	0
84008	7	Sololá	702	San José Chacayá	5	Chacayá	3	Marzo	2023-03-14T00:00:00	2024-11-06T13:00:00	8	Radiación solar	1017
84009	7	Sololá	702	San José Chacayá	5	Chacayá	3	Marzo	2023-03-14T00:00:00	2024-11-06T14:00:00	2	Temperatura media	20.6
84010	7	Sololá	702	San José Chacayá	5	Chacayá	3	Marzo	2023-03-14T00:00:00	2024-11-06T14:00:00	4	Temperatura máxima	21.5
84011	7	Sololá	702	San José Chacayá	5	Chacayá	3	Marzo	2023-03-14T00:00:00	2024-11-06T14:00:00	3	Temperatura mínima	20.2
84012	7	Sololá	702	San José Chacayá	5	Chacayá	3	Marzo	2023-03-14T00:00:00	2024-11-06T14:00:00	5	Humedad	69
84013	7	Sololá	702	San José Chacayá	5	Chacayá	3	Marzo	2023-03-14T00:00:00	2024-11-06T14:00:00	6	Velocidad del viento	8
84014	7	Sololá	702	San José Chacayá	5	Chacayá	3	Marzo	2023-03-14T00:00:00	2024-11-06T14:00:00	7	Dirección del viento	8.05
84015	7	Sololá	702	San José Chacayá	5	Chacayá	3	Marzo	2023-03-14T00:00:00	2024-11-06T14:00:00	1	Precipitación	0
84016	7	Sololá	702	San José Chacayá	5	Chacayá	3	Marzo	2023-03-14T00:00:00	2024-11-06T14:00:00	8	Radiación solar	801
84017	7	Sololá	702	San José Chacayá	5	Chacayá	3	Marzo	2023-03-14T00:00:00	2024-11-06T15:00:00	2	Temperatura media	19.8
84018	7	Sololá	702	San José Chacayá	5	Chacayá	3	Marzo	2023-03-14T00:00:00	2024-11-06T15:00:00	4	Temperatura máxima	21.3
84019	7	Sololá	702	San José Chacayá	5	Chacayá	3	Marzo	2023-03-14T00:00:00	2024-11-06T15:00:00	3	Temperatura mínima	19.3
84020	7	Sololá	702	San José Chacayá	5	Chacayá	3	Marzo	2023-03-14T00:00:00	2024-11-06T15:00:00	5	Humedad	75
84021	7	Sololá	702	San José Chacayá	5	Chacayá	3	Marzo	2023-03-14T00:00:00	2024-11-06T15:00:00	6	Velocidad del viento	8
84022	7	Sololá	702	San José Chacayá	5	Chacayá	3	Marzo	2023-03-14T00:00:00	2024-11-06T15:00:00	7	Dirección del viento	8.05
84023	7	Sololá	702	San José Chacayá	5	Chacayá	3	Marzo	2023-03-14T00:00:00	2024-11-06T15:00:00	1	Precipitación	0
84024	7	Sololá	702	San José Chacayá	5	Chacayá	3	Marzo	2023-03-14T00:00:00	2024-11-06T15:00:00	8	Radiación solar	244
84025	7	Sololá	702	San José Chacayá	5	Chacayá	3	Marzo	2023-03-14T00:00:00	2024-11-06T16:00:00	2	Temperatura media	18.1
84026	7	Sololá	702	San José Chacayá	5	Chacayá	3	Marzo	2023-03-14T00:00:00	2024-11-06T16:00:00	4	Temperatura máxima	20
84027	7	Sololá	702	San José Chacayá	5	Chacayá	3	Marzo	2023-03-14T00:00:00	2024-11-06T16:00:00	3	Temperatura mínima	17.9
84028	7	Sololá	702	San José Chacayá	5	Chacayá	3	Marzo	2023-03-14T00:00:00	2024-11-06T16:00:00	5	Humedad	81
84029	7	Sololá	702	San José Chacayá	5	Chacayá	3	Marzo	2023-03-14T00:00:00	2024-11-06T16:00:00	6	Velocidad del viento	4.8
84030	7	Sololá	702	San José Chacayá	5	Chacayá	3	Marzo	2023-03-14T00:00:00	2024-11-06T16:00:00	7	Dirección del viento	4.83
84031	7	Sololá	702	San José Chacayá	5	Chacayá	3	Marzo	2023-03-14T00:00:00	2024-11-06T16:00:00	1	Precipitación	0
84032	7	Sololá	702	San José Chacayá	5	Chacayá	3	Marzo	2023-03-14T00:00:00	2024-11-06T16:00:00	8	Radiación solar	130
84033	7	Sololá	702	San José Chacayá	5	Chacayá	3	Marzo	2023-03-14T00:00:00	2024-11-06T17:00:00	2	Temperatura media	17.1
84034	7	Sololá	702	San José Chacayá	5	Chacayá	3	Marzo	2023-03-14T00:00:00	2024-11-06T17:00:00	4	Temperatura máxima	18.3
84035	7	Sololá	702	San José Chacayá	5	Chacayá	3	Marzo	2023-03-14T00:00:00	2024-11-06T17:00:00	3	Temperatura mínima	17
84036	7	Sololá	702	San José Chacayá	5	Chacayá	3	Marzo	2023-03-14T00:00:00	2024-11-06T17:00:00	5	Humedad	83
84037	7	Sololá	702	San José Chacayá	5	Chacayá	3	Marzo	2023-03-14T00:00:00	2024-11-06T17:00:00	6	Velocidad del viento	3.2
84038	7	Sololá	702	San José Chacayá	5	Chacayá	3	Marzo	2023-03-14T00:00:00	2024-11-06T17:00:00	7	Dirección del viento	3.22
84039	7	Sololá	702	San José Chacayá	5	Chacayá	3	Marzo	2023-03-14T00:00:00	2024-11-06T17:00:00	1	Precipitación	0
84040	7	Sololá	702	San José Chacayá	5	Chacayá	3	Marzo	2023-03-14T00:00:00	2024-11-06T17:00:00	8	Radiación solar	87
84041	7	Sololá	702	San José Chacayá	5	Chacayá	3	Marzo	2023-03-14T00:00:00	2024-11-06T18:00:00	2	Temperatura media	16.3
84042	7	Sololá	702	San José Chacayá	5	Chacayá	3	Marzo	2023-03-14T00:00:00	2024-11-06T18:00:00	4	Temperatura máxima	17.1
84043	7	Sololá	702	San José Chacayá	5	Chacayá	3	Marzo	2023-03-14T00:00:00	2024-11-06T18:00:00	3	Temperatura mínima	16.3
84044	7	Sololá	702	San José Chacayá	5	Chacayá	3	Marzo	2023-03-14T00:00:00	2024-11-06T18:00:00	5	Humedad	83
84045	7	Sololá	702	San José Chacayá	5	Chacayá	3	Marzo	2023-03-14T00:00:00	2024-11-06T18:00:00	6	Velocidad del viento	1.6
84046	7	Sololá	702	San José Chacayá	5	Chacayá	3	Marzo	2023-03-14T00:00:00	2024-11-06T18:00:00	7	Dirección del viento	1.61
84047	7	Sololá	702	San José Chacayá	5	Chacayá	3	Marzo	2023-03-14T00:00:00	2024-11-06T18:00:00	1	Precipitación	0
84048	7	Sololá	702	San José Chacayá	5	Chacayá	3	Marzo	2023-03-14T00:00:00	2024-11-06T18:00:00	8	Radiación solar	55
84049	7	Sololá	702	San José Chacayá	5	Chacayá	3	Marzo	2023-03-14T00:00:00	2024-11-06T19:00:00	2	Temperatura media	16.1
84050	7	Sololá	702	San José Chacayá	5	Chacayá	3	Marzo	2023-03-14T00:00:00	2024-11-06T19:00:00	4	Temperatura máxima	16.5
84051	7	Sololá	702	San José Chacayá	5	Chacayá	3	Marzo	2023-03-14T00:00:00	2024-11-06T19:00:00	3	Temperatura mínima	16.1
84052	7	Sololá	702	San José Chacayá	5	Chacayá	3	Marzo	2023-03-14T00:00:00	2024-11-06T19:00:00	5	Humedad	80
84053	7	Sololá	702	San José Chacayá	5	Chacayá	3	Marzo	2023-03-14T00:00:00	2024-11-06T19:00:00	6	Velocidad del viento	1.6
84054	7	Sololá	702	San José Chacayá	5	Chacayá	3	Marzo	2023-03-14T00:00:00	2024-11-06T19:00:00	7	Dirección del viento	1.61
84055	7	Sololá	702	San José Chacayá	5	Chacayá	3	Marzo	2023-03-14T00:00:00	2024-11-06T19:00:00	1	Precipitación	0
84056	7	Sololá	702	San José Chacayá	5	Chacayá	3	Marzo	2023-03-14T00:00:00	2024-11-06T19:00:00	8	Radiación solar	0
84057	7	Sololá	702	San José Chacayá	5	Chacayá	3	Marzo	2023-03-14T00:00:00	2024-11-06T20:00:00	2	Temperatura media	15.2
84058	7	Sololá	702	San José Chacayá	5	Chacayá	3	Marzo	2023-03-14T00:00:00	2024-11-06T20:00:00	4	Temperatura máxima	16.1
84059	7	Sololá	702	San José Chacayá	5	Chacayá	3	Marzo	2023-03-14T00:00:00	2024-11-06T20:00:00	3	Temperatura mínima	15.1
84060	7	Sololá	702	San José Chacayá	5	Chacayá	3	Marzo	2023-03-14T00:00:00	2024-11-06T20:00:00	5	Humedad	80
84061	7	Sololá	702	San José Chacayá	5	Chacayá	3	Marzo	2023-03-14T00:00:00	2024-11-06T20:00:00	6	Velocidad del viento	0
84062	7	Sololá	702	San José Chacayá	5	Chacayá	3	Marzo	2023-03-14T00:00:00	2024-11-06T20:00:00	7	Dirección del viento	0
84063	7	Sololá	702	San José Chacayá	5	Chacayá	3	Marzo	2023-03-14T00:00:00	2024-11-06T20:00:00	1	Precipitación	0
84064	7	Sololá	702	San José Chacayá	5	Chacayá	3	Marzo	2023-03-14T00:00:00	2024-11-06T20:00:00	8	Radiación solar	0
84065	7	Sololá	702	San José Chacayá	5	Chacayá	3	Marzo	2023-03-14T00:00:00	2024-11-06T21:00:00	2	Temperatura media	15
84066	7	Sololá	702	San José Chacayá	5	Chacayá	3	Marzo	2023-03-14T00:00:00	2024-11-06T21:00:00	4	Temperatura máxima	15.2
84067	7	Sololá	702	San José Chacayá	5	Chacayá	3	Marzo	2023-03-14T00:00:00	2024-11-06T21:00:00	3	Temperatura mínima	14.9
84068	7	Sololá	702	San José Chacayá	5	Chacayá	3	Marzo	2023-03-14T00:00:00	2024-11-06T21:00:00	5	Humedad	70
84069	7	Sololá	702	San José Chacayá	5	Chacayá	3	Marzo	2023-03-14T00:00:00	2024-11-06T21:00:00	6	Velocidad del viento	0
84070	7	Sololá	702	San José Chacayá	5	Chacayá	3	Marzo	2023-03-14T00:00:00	2024-11-06T21:00:00	7	Dirección del viento	0
84071	7	Sololá	702	San José Chacayá	5	Chacayá	3	Marzo	2023-03-14T00:00:00	2024-11-06T21:00:00	1	Precipitación	0
84072	7	Sololá	702	San José Chacayá	5	Chacayá	3	Marzo	2023-03-14T00:00:00	2024-11-06T21:00:00	8	Radiación solar	0
84073	7	Sololá	702	San José Chacayá	5	Chacayá	3	Marzo	2023-03-14T00:00:00	2024-11-06T22:00:00	2	Temperatura media	14.2
84074	7	Sololá	702	San José Chacayá	5	Chacayá	3	Marzo	2023-03-14T00:00:00	2024-11-06T22:00:00	4	Temperatura máxima	15.1
84075	7	Sololá	702	San José Chacayá	5	Chacayá	3	Marzo	2023-03-14T00:00:00	2024-11-06T22:00:00	3	Temperatura mínima	14.2
84076	7	Sololá	702	San José Chacayá	5	Chacayá	3	Marzo	2023-03-14T00:00:00	2024-11-06T22:00:00	5	Humedad	78
84077	7	Sololá	702	San José Chacayá	5	Chacayá	3	Marzo	2023-03-14T00:00:00	2024-11-06T22:00:00	6	Velocidad del viento	1.6
84078	7	Sololá	702	San José Chacayá	5	Chacayá	3	Marzo	2023-03-14T00:00:00	2024-11-06T22:00:00	7	Dirección del viento	1.61
84079	7	Sololá	702	San José Chacayá	5	Chacayá	3	Marzo	2023-03-14T00:00:00	2024-11-06T22:00:00	1	Precipitación	0
84080	7	Sololá	702	San José Chacayá	5	Chacayá	3	Marzo	2023-03-14T00:00:00	2024-11-06T22:00:00	8	Radiación solar	0
84081	7	Sololá	702	San José Chacayá	5	Chacayá	3	Marzo	2023-03-14T00:00:00	2024-11-06T23:00:00	2	Temperatura media	13.2
84082	7	Sololá	702	San José Chacayá	5	Chacayá	3	Marzo	2023-03-14T00:00:00	2024-11-06T23:00:00	4	Temperatura máxima	14.2
84083	7	Sololá	702	San José Chacayá	5	Chacayá	3	Marzo	2023-03-14T00:00:00	2024-11-06T23:00:00	3	Temperatura mínima	13.2
84084	7	Sololá	702	San José Chacayá	5	Chacayá	3	Marzo	2023-03-14T00:00:00	2024-11-06T23:00:00	5	Humedad	84
84085	7	Sololá	702	San José Chacayá	5	Chacayá	3	Marzo	2023-03-14T00:00:00	2024-11-06T23:00:00	6	Velocidad del viento	1.6
84086	7	Sololá	702	San José Chacayá	5	Chacayá	3	Marzo	2023-03-14T00:00:00	2024-11-06T23:00:00	7	Dirección del viento	1.61
84087	7	Sololá	702	San José Chacayá	5	Chacayá	3	Marzo	2023-03-14T00:00:00	2024-11-06T23:00:00	1	Precipitación	0
84088	7	Sololá	702	San José Chacayá	5	Chacayá	3	Marzo	2023-03-14T00:00:00	2024-11-06T23:00:00	8	Radiación solar	0
84089	7	Sololá	702	San José Chacayá	5	Chacayá	3	Marzo	2023-03-15T00:00:00	2024-11-06T00:00:00	2	Temperatura media	11.5
84090	7	Sololá	702	San José Chacayá	5	Chacayá	3	Marzo	2023-03-15T00:00:00	2024-11-06T00:00:00	4	Temperatura máxima	13.2
84091	7	Sololá	702	San José Chacayá	5	Chacayá	3	Marzo	2023-03-15T00:00:00	2024-11-06T00:00:00	3	Temperatura mínima	11.5
84092	7	Sololá	702	San José Chacayá	5	Chacayá	3	Marzo	2023-03-15T00:00:00	2024-11-06T00:00:00	5	Humedad	84
84093	7	Sololá	702	San José Chacayá	5	Chacayá	3	Marzo	2023-03-15T00:00:00	2024-11-06T00:00:00	6	Velocidad del viento	1.6
84094	7	Sololá	702	San José Chacayá	5	Chacayá	3	Marzo	2023-03-15T00:00:00	2024-11-06T00:00:00	7	Dirección del viento	1.61
84095	7	Sololá	702	San José Chacayá	5	Chacayá	3	Marzo	2023-03-15T00:00:00	2024-11-06T00:00:00	1	Precipitación	0
84096	7	Sololá	702	San José Chacayá	5	Chacayá	3	Marzo	2023-03-15T00:00:00	2024-11-06T00:00:00	8	Radiación solar	0
84097	7	Sololá	702	San José Chacayá	5	Chacayá	3	Marzo	2023-03-15T00:00:00	2024-11-06T01:00:00	2	Temperatura media	10.9
84098	7	Sololá	702	San José Chacayá	5	Chacayá	3	Marzo	2023-03-15T00:00:00	2024-11-06T01:00:00	4	Temperatura máxima	11.5
84099	7	Sololá	702	San José Chacayá	5	Chacayá	3	Marzo	2023-03-15T00:00:00	2024-11-06T01:00:00	3	Temperatura mínima	10.8
84100	7	Sololá	702	San José Chacayá	5	Chacayá	3	Marzo	2023-03-15T00:00:00	2024-11-06T01:00:00	5	Humedad	85
84101	7	Sololá	702	San José Chacayá	5	Chacayá	3	Marzo	2023-03-15T00:00:00	2024-11-06T01:00:00	6	Velocidad del viento	3.2
84102	7	Sololá	702	San José Chacayá	5	Chacayá	3	Marzo	2023-03-15T00:00:00	2024-11-06T01:00:00	7	Dirección del viento	3.22
84103	7	Sololá	702	San José Chacayá	5	Chacayá	3	Marzo	2023-03-15T00:00:00	2024-11-06T01:00:00	1	Precipitación	0
84104	7	Sololá	702	San José Chacayá	5	Chacayá	3	Marzo	2023-03-15T00:00:00	2024-11-06T01:00:00	8	Radiación solar	0
84105	7	Sololá	702	San José Chacayá	5	Chacayá	3	Marzo	2023-03-15T00:00:00	2024-11-06T02:00:00	2	Temperatura media	10.3
84106	7	Sololá	702	San José Chacayá	5	Chacayá	3	Marzo	2023-03-15T00:00:00	2024-11-06T02:00:00	4	Temperatura máxima	10.9
84107	7	Sololá	702	San José Chacayá	5	Chacayá	3	Marzo	2023-03-15T00:00:00	2024-11-06T02:00:00	3	Temperatura mínima	10.3
84108	7	Sololá	702	San José Chacayá	5	Chacayá	3	Marzo	2023-03-15T00:00:00	2024-11-06T02:00:00	5	Humedad	85
84109	7	Sololá	702	San José Chacayá	5	Chacayá	3	Marzo	2023-03-15T00:00:00	2024-11-06T02:00:00	6	Velocidad del viento	4.8
84110	7	Sololá	702	San José Chacayá	5	Chacayá	3	Marzo	2023-03-15T00:00:00	2024-11-06T02:00:00	7	Dirección del viento	4.83
84111	7	Sololá	702	San José Chacayá	5	Chacayá	3	Marzo	2023-03-15T00:00:00	2024-11-06T02:00:00	1	Precipitación	0
84112	7	Sololá	702	San José Chacayá	5	Chacayá	3	Marzo	2023-03-15T00:00:00	2024-11-06T02:00:00	8	Radiación solar	0
84113	7	Sololá	702	San José Chacayá	5	Chacayá	3	Marzo	2023-03-15T00:00:00	2024-11-06T03:00:00	2	Temperatura media	9.9
84114	7	Sololá	702	San José Chacayá	5	Chacayá	3	Marzo	2023-03-15T00:00:00	2024-11-06T03:00:00	4	Temperatura máxima	10.3
84115	7	Sololá	702	San José Chacayá	5	Chacayá	3	Marzo	2023-03-15T00:00:00	2024-11-06T03:00:00	3	Temperatura mínima	9.9
84116	7	Sololá	702	San José Chacayá	5	Chacayá	3	Marzo	2023-03-15T00:00:00	2024-11-06T03:00:00	5	Humedad	85
84117	7	Sololá	702	San José Chacayá	5	Chacayá	3	Marzo	2023-03-15T00:00:00	2024-11-06T03:00:00	6	Velocidad del viento	4.8
84118	7	Sololá	702	San José Chacayá	5	Chacayá	3	Marzo	2023-03-15T00:00:00	2024-11-06T03:00:00	7	Dirección del viento	4.83
84119	7	Sololá	702	San José Chacayá	5	Chacayá	3	Marzo	2023-03-15T00:00:00	2024-11-06T03:00:00	1	Precipitación	0
84120	7	Sololá	702	San José Chacayá	5	Chacayá	3	Marzo	2023-03-15T00:00:00	2024-11-06T03:00:00	8	Radiación solar	0
84121	7	Sololá	702	San José Chacayá	5	Chacayá	3	Marzo	2023-03-15T00:00:00	2024-11-06T04:00:00	2	Temperatura media	9.4
84122	7	Sololá	702	San José Chacayá	5	Chacayá	3	Marzo	2023-03-15T00:00:00	2024-11-06T04:00:00	4	Temperatura máxima	9.9
84123	7	Sololá	702	San José Chacayá	5	Chacayá	3	Marzo	2023-03-15T00:00:00	2024-11-06T04:00:00	3	Temperatura mínima	9.4
84124	7	Sololá	702	San José Chacayá	5	Chacayá	3	Marzo	2023-03-15T00:00:00	2024-11-06T04:00:00	5	Humedad	85
84125	7	Sololá	702	San José Chacayá	5	Chacayá	3	Marzo	2023-03-15T00:00:00	2024-11-06T04:00:00	6	Velocidad del viento	4.8
84126	7	Sololá	702	San José Chacayá	5	Chacayá	3	Marzo	2023-03-15T00:00:00	2024-11-06T04:00:00	7	Dirección del viento	4.83
84127	7	Sololá	702	San José Chacayá	5	Chacayá	3	Marzo	2023-03-15T00:00:00	2024-11-06T04:00:00	1	Precipitación	0
84128	7	Sololá	702	San José Chacayá	5	Chacayá	3	Marzo	2023-03-15T00:00:00	2024-11-06T04:00:00	8	Radiación solar	0
84129	7	Sololá	702	San José Chacayá	5	Chacayá	3	Marzo	2023-03-15T00:00:00	2024-11-06T05:00:00	2	Temperatura media	9.1
84130	7	Sololá	702	San José Chacayá	5	Chacayá	3	Marzo	2023-03-15T00:00:00	2024-11-06T05:00:00	4	Temperatura máxima	9.4
84131	7	Sololá	702	San José Chacayá	5	Chacayá	3	Marzo	2023-03-15T00:00:00	2024-11-06T05:00:00	3	Temperatura mínima	9
84132	7	Sololá	702	San José Chacayá	5	Chacayá	3	Marzo	2023-03-15T00:00:00	2024-11-06T05:00:00	5	Humedad	85
84133	7	Sololá	702	San José Chacayá	5	Chacayá	3	Marzo	2023-03-15T00:00:00	2024-11-06T05:00:00	6	Velocidad del viento	4.8
84134	7	Sololá	702	San José Chacayá	5	Chacayá	3	Marzo	2023-03-15T00:00:00	2024-11-06T05:00:00	7	Dirección del viento	4.83
84135	7	Sololá	702	San José Chacayá	5	Chacayá	3	Marzo	2023-03-15T00:00:00	2024-11-06T05:00:00	1	Precipitación	0
84136	7	Sololá	702	San José Chacayá	5	Chacayá	3	Marzo	2023-03-15T00:00:00	2024-11-06T05:00:00	8	Radiación solar	0
84137	7	Sololá	702	San José Chacayá	5	Chacayá	3	Marzo	2023-03-15T00:00:00	2024-11-06T06:00:00	2	Temperatura media	9.2
84138	7	Sololá	702	San José Chacayá	5	Chacayá	3	Marzo	2023-03-15T00:00:00	2024-11-06T06:00:00	4	Temperatura máxima	9.7
84139	7	Sololá	702	San José Chacayá	5	Chacayá	3	Marzo	2023-03-15T00:00:00	2024-11-06T06:00:00	3	Temperatura mínima	9.1
84140	7	Sololá	702	San José Chacayá	5	Chacayá	3	Marzo	2023-03-15T00:00:00	2024-11-06T06:00:00	5	Humedad	85
84141	7	Sololá	702	San José Chacayá	5	Chacayá	3	Marzo	2023-03-15T00:00:00	2024-11-06T06:00:00	6	Velocidad del viento	4.8
84142	7	Sololá	702	San José Chacayá	5	Chacayá	3	Marzo	2023-03-15T00:00:00	2024-11-06T06:00:00	7	Dirección del viento	4.83
84143	7	Sololá	702	San José Chacayá	5	Chacayá	3	Marzo	2023-03-15T00:00:00	2024-11-06T06:00:00	1	Precipitación	0
84144	7	Sololá	702	San José Chacayá	5	Chacayá	3	Marzo	2023-03-15T00:00:00	2024-11-06T06:00:00	8	Radiación solar	0
84145	7	Sololá	702	San José Chacayá	5	Chacayá	3	Marzo	2023-03-15T00:00:00	2024-11-06T07:00:00	2	Temperatura media	8.8
84146	7	Sololá	702	San José Chacayá	5	Chacayá	3	Marzo	2023-03-15T00:00:00	2024-11-06T07:00:00	4	Temperatura máxima	9.2
84147	7	Sololá	702	San José Chacayá	5	Chacayá	3	Marzo	2023-03-15T00:00:00	2024-11-06T07:00:00	3	Temperatura mínima	8.7
84148	7	Sololá	702	San José Chacayá	5	Chacayá	3	Marzo	2023-03-15T00:00:00	2024-11-06T07:00:00	5	Humedad	85
84149	7	Sololá	702	San José Chacayá	5	Chacayá	3	Marzo	2023-03-15T00:00:00	2024-11-06T07:00:00	6	Velocidad del viento	4.8
84150	7	Sololá	702	San José Chacayá	5	Chacayá	3	Marzo	2023-03-15T00:00:00	2024-11-06T07:00:00	7	Dirección del viento	4.83
84151	7	Sololá	702	San José Chacayá	5	Chacayá	3	Marzo	2023-03-15T00:00:00	2024-11-06T07:00:00	1	Precipitación	0
84152	7	Sololá	702	San José Chacayá	5	Chacayá	3	Marzo	2023-03-15T00:00:00	2024-11-06T07:00:00	8	Radiación solar	38
84153	7	Sololá	702	San José Chacayá	5	Chacayá	3	Marzo	2023-03-15T00:00:00	2024-11-06T08:00:00	2	Temperatura media	9.8
84154	7	Sololá	702	San José Chacayá	5	Chacayá	3	Marzo	2023-03-15T00:00:00	2024-11-06T08:00:00	4	Temperatura máxima	9.8
84155	7	Sololá	702	San José Chacayá	5	Chacayá	3	Marzo	2023-03-15T00:00:00	2024-11-06T08:00:00	3	Temperatura mínima	8.3
84156	7	Sololá	702	San José Chacayá	5	Chacayá	3	Marzo	2023-03-15T00:00:00	2024-11-06T08:00:00	5	Humedad	85
84157	7	Sololá	702	San José Chacayá	5	Chacayá	3	Marzo	2023-03-15T00:00:00	2024-11-06T08:00:00	6	Velocidad del viento	3.2
84158	7	Sololá	702	San José Chacayá	5	Chacayá	3	Marzo	2023-03-15T00:00:00	2024-11-06T08:00:00	7	Dirección del viento	3.22
84159	7	Sololá	702	San José Chacayá	5	Chacayá	3	Marzo	2023-03-15T00:00:00	2024-11-06T08:00:00	1	Precipitación	0
84160	7	Sololá	702	San José Chacayá	5	Chacayá	3	Marzo	2023-03-15T00:00:00	2024-11-06T08:00:00	8	Radiación solar	132
84161	7	Sololá	702	San José Chacayá	5	Chacayá	3	Marzo	2023-03-15T00:00:00	2024-11-06T09:00:00	2	Temperatura media	15.6
84162	7	Sololá	702	San José Chacayá	5	Chacayá	3	Marzo	2023-03-15T00:00:00	2024-11-06T09:00:00	4	Temperatura máxima	15.6
84163	7	Sololá	702	San José Chacayá	5	Chacayá	3	Marzo	2023-03-15T00:00:00	2024-11-06T09:00:00	3	Temperatura mínima	9.8
84164	7	Sololá	702	San José Chacayá	5	Chacayá	3	Marzo	2023-03-15T00:00:00	2024-11-06T09:00:00	5	Humedad	73
84165	7	Sololá	702	San José Chacayá	5	Chacayá	3	Marzo	2023-03-15T00:00:00	2024-11-06T09:00:00	6	Velocidad del viento	1.6
84166	7	Sololá	702	San José Chacayá	5	Chacayá	3	Marzo	2023-03-15T00:00:00	2024-11-06T09:00:00	7	Dirección del viento	1.61
84167	7	Sololá	702	San José Chacayá	5	Chacayá	3	Marzo	2023-03-15T00:00:00	2024-11-06T09:00:00	1	Precipitación	0
84168	7	Sololá	702	San José Chacayá	5	Chacayá	3	Marzo	2023-03-15T00:00:00	2024-11-06T09:00:00	8	Radiación solar	448
84169	7	Sololá	702	San José Chacayá	5	Chacayá	3	Marzo	2023-03-15T00:00:00	2024-11-06T10:00:00	2	Temperatura media	18.5
84170	7	Sololá	702	San José Chacayá	5	Chacayá	3	Marzo	2023-03-15T00:00:00	2024-11-06T10:00:00	4	Temperatura máxima	18.9
84171	7	Sololá	702	San José Chacayá	5	Chacayá	3	Marzo	2023-03-15T00:00:00	2024-11-06T10:00:00	3	Temperatura mínima	15.6
84172	7	Sololá	702	San José Chacayá	5	Chacayá	3	Marzo	2023-03-15T00:00:00	2024-11-06T10:00:00	5	Humedad	66
84173	7	Sololá	702	San José Chacayá	5	Chacayá	3	Marzo	2023-03-15T00:00:00	2024-11-06T10:00:00	6	Velocidad del viento	3.2
84174	7	Sololá	702	San José Chacayá	5	Chacayá	3	Marzo	2023-03-15T00:00:00	2024-11-06T10:00:00	7	Dirección del viento	3.22
84175	7	Sololá	702	San José Chacayá	5	Chacayá	3	Marzo	2023-03-15T00:00:00	2024-11-06T10:00:00	1	Precipitación	0
84176	7	Sololá	702	San José Chacayá	5	Chacayá	3	Marzo	2023-03-15T00:00:00	2024-11-06T10:00:00	8	Radiación solar	227
84177	7	Sololá	702	San José Chacayá	5	Chacayá	3	Marzo	2023-03-15T00:00:00	2024-11-06T11:00:00	2	Temperatura media	18.1
84178	7	Sololá	702	San José Chacayá	5	Chacayá	3	Marzo	2023-03-15T00:00:00	2024-11-06T11:00:00	4	Temperatura máxima	18.8
84179	7	Sololá	702	San José Chacayá	5	Chacayá	3	Marzo	2023-03-15T00:00:00	2024-11-06T11:00:00	3	Temperatura mínima	17.8
84180	7	Sololá	702	San José Chacayá	5	Chacayá	3	Marzo	2023-03-15T00:00:00	2024-11-06T11:00:00	5	Humedad	65
84181	7	Sololá	702	San José Chacayá	5	Chacayá	3	Marzo	2023-03-15T00:00:00	2024-11-06T11:00:00	6	Velocidad del viento	4.8
84182	7	Sololá	702	San José Chacayá	5	Chacayá	3	Marzo	2023-03-15T00:00:00	2024-11-06T11:00:00	7	Dirección del viento	4.83
84183	7	Sololá	702	San José Chacayá	5	Chacayá	3	Marzo	2023-03-15T00:00:00	2024-11-06T11:00:00	1	Precipitación	0
84184	7	Sololá	702	San José Chacayá	5	Chacayá	3	Marzo	2023-03-15T00:00:00	2024-11-06T11:00:00	8	Radiación solar	430
84185	7	Sololá	702	San José Chacayá	5	Chacayá	3	Marzo	2023-03-15T00:00:00	2024-11-06T12:00:00	2	Temperatura media	20.1
84186	7	Sololá	702	San José Chacayá	5	Chacayá	3	Marzo	2023-03-15T00:00:00	2024-11-06T12:00:00	4	Temperatura máxima	21
84187	7	Sololá	702	San José Chacayá	5	Chacayá	3	Marzo	2023-03-15T00:00:00	2024-11-06T12:00:00	3	Temperatura mínima	18.1
84188	7	Sololá	702	San José Chacayá	5	Chacayá	3	Marzo	2023-03-15T00:00:00	2024-11-06T12:00:00	5	Humedad	53
84189	7	Sololá	702	San José Chacayá	5	Chacayá	3	Marzo	2023-03-15T00:00:00	2024-11-06T12:00:00	6	Velocidad del viento	4.8
84190	7	Sololá	702	San José Chacayá	5	Chacayá	3	Marzo	2023-03-15T00:00:00	2024-11-06T12:00:00	7	Dirección del viento	4.83
84191	7	Sololá	702	San José Chacayá	5	Chacayá	3	Marzo	2023-03-15T00:00:00	2024-11-06T12:00:00	1	Precipitación	0
84192	7	Sololá	702	San José Chacayá	5	Chacayá	3	Marzo	2023-03-15T00:00:00	2024-11-06T12:00:00	8	Radiación solar	482
84193	7	Sololá	702	San José Chacayá	5	Chacayá	3	Marzo	2023-03-15T00:00:00	2024-11-06T13:00:00	2	Temperatura media	20.9
84194	7	Sololá	702	San José Chacayá	5	Chacayá	3	Marzo	2023-03-15T00:00:00	2024-11-06T13:00:00	4	Temperatura máxima	21.4
84195	7	Sololá	702	San José Chacayá	5	Chacayá	3	Marzo	2023-03-15T00:00:00	2024-11-06T13:00:00	3	Temperatura mínima	20
84196	7	Sololá	702	San José Chacayá	5	Chacayá	3	Marzo	2023-03-15T00:00:00	2024-11-06T13:00:00	5	Humedad	52
84197	7	Sololá	702	San José Chacayá	5	Chacayá	3	Marzo	2023-03-15T00:00:00	2024-11-06T13:00:00	6	Velocidad del viento	6.4
84198	7	Sololá	702	San José Chacayá	5	Chacayá	3	Marzo	2023-03-15T00:00:00	2024-11-06T13:00:00	7	Dirección del viento	6.44
84199	7	Sololá	702	San José Chacayá	5	Chacayá	3	Marzo	2023-03-15T00:00:00	2024-11-06T13:00:00	1	Precipitación	0
84200	7	Sololá	702	San José Chacayá	5	Chacayá	3	Marzo	2023-03-15T00:00:00	2024-11-06T13:00:00	8	Radiación solar	417
84201	7	Sololá	702	San José Chacayá	5	Chacayá	3	Marzo	2023-03-15T00:00:00	2024-11-06T14:00:00	2	Temperatura media	20
84202	7	Sololá	702	San José Chacayá	5	Chacayá	3	Marzo	2023-03-15T00:00:00	2024-11-06T14:00:00	4	Temperatura máxima	20.9
84203	7	Sololá	702	San José Chacayá	5	Chacayá	3	Marzo	2023-03-15T00:00:00	2024-11-06T14:00:00	3	Temperatura mínima	19.6
84204	7	Sololá	702	San José Chacayá	5	Chacayá	3	Marzo	2023-03-15T00:00:00	2024-11-06T14:00:00	5	Humedad	68
84205	7	Sololá	702	San José Chacayá	5	Chacayá	3	Marzo	2023-03-15T00:00:00	2024-11-06T14:00:00	6	Velocidad del viento	8
84206	7	Sololá	702	San José Chacayá	5	Chacayá	3	Marzo	2023-03-15T00:00:00	2024-11-06T14:00:00	7	Dirección del viento	8.05
84207	7	Sololá	702	San José Chacayá	5	Chacayá	3	Marzo	2023-03-15T00:00:00	2024-11-06T14:00:00	1	Precipitación	0
84208	7	Sololá	702	San José Chacayá	5	Chacayá	3	Marzo	2023-03-15T00:00:00	2024-11-06T14:00:00	8	Radiación solar	150
84209	7	Sololá	702	San José Chacayá	5	Chacayá	3	Marzo	2023-03-15T00:00:00	2024-11-06T15:00:00	2	Temperatura media	17.6
84210	7	Sololá	702	San José Chacayá	5	Chacayá	3	Marzo	2023-03-15T00:00:00	2024-11-06T15:00:00	4	Temperatura máxima	20
84211	7	Sololá	702	San José Chacayá	5	Chacayá	3	Marzo	2023-03-15T00:00:00	2024-11-06T15:00:00	3	Temperatura mínima	17.6
84212	7	Sololá	702	San José Chacayá	5	Chacayá	3	Marzo	2023-03-15T00:00:00	2024-11-06T15:00:00	5	Humedad	80
84213	7	Sololá	702	San José Chacayá	5	Chacayá	3	Marzo	2023-03-15T00:00:00	2024-11-06T15:00:00	6	Velocidad del viento	3.2
84214	7	Sololá	702	San José Chacayá	5	Chacayá	3	Marzo	2023-03-15T00:00:00	2024-11-06T15:00:00	7	Dirección del viento	3.22
84215	7	Sololá	702	San José Chacayá	5	Chacayá	3	Marzo	2023-03-15T00:00:00	2024-11-06T15:00:00	1	Precipitación	0
84216	7	Sololá	702	San José Chacayá	5	Chacayá	3	Marzo	2023-03-15T00:00:00	2024-11-06T15:00:00	8	Radiación solar	145
84217	7	Sololá	702	San José Chacayá	5	Chacayá	3	Marzo	2023-03-15T00:00:00	2024-11-06T16:00:00	2	Temperatura media	16.6
84218	7	Sololá	702	San José Chacayá	5	Chacayá	3	Marzo	2023-03-15T00:00:00	2024-11-06T16:00:00	4	Temperatura máxima	17.6
84219	7	Sololá	702	San José Chacayá	5	Chacayá	3	Marzo	2023-03-15T00:00:00	2024-11-06T16:00:00	3	Temperatura mínima	16.6
84220	7	Sololá	702	San José Chacayá	5	Chacayá	3	Marzo	2023-03-15T00:00:00	2024-11-06T16:00:00	5	Humedad	82
84221	7	Sololá	702	San José Chacayá	5	Chacayá	3	Marzo	2023-03-15T00:00:00	2024-11-06T16:00:00	6	Velocidad del viento	1.6
84222	7	Sololá	702	San José Chacayá	5	Chacayá	3	Marzo	2023-03-15T00:00:00	2024-11-06T16:00:00	7	Dirección del viento	1.61
84223	7	Sololá	702	San José Chacayá	5	Chacayá	3	Marzo	2023-03-15T00:00:00	2024-11-06T16:00:00	1	Precipitación	5.4
84224	7	Sololá	702	San José Chacayá	5	Chacayá	3	Marzo	2023-03-15T00:00:00	2024-11-06T16:00:00	8	Radiación solar	127
84225	7	Sololá	702	San José Chacayá	5	Chacayá	3	Marzo	2023-03-15T00:00:00	2024-11-06T17:00:00	2	Temperatura media	14.9
84226	7	Sololá	702	San José Chacayá	5	Chacayá	3	Marzo	2023-03-15T00:00:00	2024-11-06T17:00:00	4	Temperatura máxima	16.5
84227	7	Sololá	702	San José Chacayá	5	Chacayá	3	Marzo	2023-03-15T00:00:00	2024-11-06T17:00:00	3	Temperatura mínima	14.9
84228	7	Sololá	702	San José Chacayá	5	Chacayá	3	Marzo	2023-03-15T00:00:00	2024-11-06T17:00:00	5	Humedad	84
84229	7	Sololá	702	San José Chacayá	5	Chacayá	3	Marzo	2023-03-15T00:00:00	2024-11-06T17:00:00	6	Velocidad del viento	1.6
84230	7	Sololá	702	San José Chacayá	5	Chacayá	3	Marzo	2023-03-15T00:00:00	2024-11-06T17:00:00	7	Dirección del viento	1.61
84231	7	Sololá	702	San José Chacayá	5	Chacayá	3	Marzo	2023-03-15T00:00:00	2024-11-06T17:00:00	1	Precipitación	1.8
84232	7	Sololá	702	San José Chacayá	5	Chacayá	3	Marzo	2023-03-15T00:00:00	2024-11-06T17:00:00	8	Radiación solar	28
84233	7	Sololá	702	San José Chacayá	5	Chacayá	3	Marzo	2023-03-15T00:00:00	2024-11-06T18:00:00	2	Temperatura media	14.3
84234	7	Sololá	702	San José Chacayá	5	Chacayá	3	Marzo	2023-03-15T00:00:00	2024-11-06T18:00:00	4	Temperatura máxima	15
84235	7	Sololá	702	San José Chacayá	5	Chacayá	3	Marzo	2023-03-15T00:00:00	2024-11-06T18:00:00	3	Temperatura mínima	14.3
84236	7	Sololá	702	San José Chacayá	5	Chacayá	3	Marzo	2023-03-15T00:00:00	2024-11-06T18:00:00	5	Humedad	79
84237	7	Sololá	702	San José Chacayá	5	Chacayá	3	Marzo	2023-03-15T00:00:00	2024-11-06T18:00:00	6	Velocidad del viento	0
84238	7	Sololá	702	San José Chacayá	5	Chacayá	3	Marzo	2023-03-15T00:00:00	2024-11-06T18:00:00	7	Dirección del viento	0
84239	7	Sololá	702	San José Chacayá	5	Chacayá	3	Marzo	2023-03-15T00:00:00	2024-11-06T18:00:00	1	Precipitación	2
84240	7	Sololá	702	San José Chacayá	5	Chacayá	3	Marzo	2023-03-15T00:00:00	2024-11-06T18:00:00	8	Radiación solar	15
84241	7	Sololá	702	San José Chacayá	5	Chacayá	3	Marzo	2023-03-15T00:00:00	2024-11-06T19:00:00	2	Temperatura media	13.6
84242	7	Sololá	702	San José Chacayá	5	Chacayá	3	Marzo	2023-03-15T00:00:00	2024-11-06T19:00:00	4	Temperatura máxima	14.3
84243	7	Sololá	702	San José Chacayá	5	Chacayá	3	Marzo	2023-03-15T00:00:00	2024-11-06T19:00:00	3	Temperatura mínima	13.4
84244	7	Sololá	702	San José Chacayá	5	Chacayá	3	Marzo	2023-03-15T00:00:00	2024-11-06T19:00:00	5	Humedad	71
84245	7	Sololá	702	San José Chacayá	5	Chacayá	3	Marzo	2023-03-15T00:00:00	2024-11-06T19:00:00	6	Velocidad del viento	1.6
84246	7	Sololá	702	San José Chacayá	5	Chacayá	3	Marzo	2023-03-15T00:00:00	2024-11-06T19:00:00	7	Dirección del viento	1.61
84247	7	Sololá	702	San José Chacayá	5	Chacayá	3	Marzo	2023-03-15T00:00:00	2024-11-06T19:00:00	1	Precipitación	2.4
84248	7	Sololá	702	San José Chacayá	5	Chacayá	3	Marzo	2023-03-15T00:00:00	2024-11-06T19:00:00	8	Radiación solar	0
84249	7	Sololá	702	San José Chacayá	5	Chacayá	3	Marzo	2023-03-15T00:00:00	2024-11-06T20:00:00	2	Temperatura media	12.3
84250	7	Sololá	702	San José Chacayá	5	Chacayá	3	Marzo	2023-03-15T00:00:00	2024-11-06T20:00:00	4	Temperatura máxima	13.6
84251	7	Sololá	702	San José Chacayá	5	Chacayá	3	Marzo	2023-03-15T00:00:00	2024-11-06T20:00:00	3	Temperatura mínima	12.3
84252	7	Sololá	702	San José Chacayá	5	Chacayá	3	Marzo	2023-03-15T00:00:00	2024-11-06T20:00:00	5	Humedad	81
84253	7	Sololá	702	San José Chacayá	5	Chacayá	3	Marzo	2023-03-15T00:00:00	2024-11-06T20:00:00	6	Velocidad del viento	0
84254	7	Sololá	702	San José Chacayá	5	Chacayá	3	Marzo	2023-03-15T00:00:00	2024-11-06T20:00:00	7	Dirección del viento	0
84255	7	Sololá	702	San José Chacayá	5	Chacayá	3	Marzo	2023-03-15T00:00:00	2024-11-06T20:00:00	1	Precipitación	0.8
84256	7	Sololá	702	San José Chacayá	5	Chacayá	3	Marzo	2023-03-15T00:00:00	2024-11-06T20:00:00	8	Radiación solar	0
84257	7	Sololá	702	San José Chacayá	5	Chacayá	3	Marzo	2023-03-15T00:00:00	2024-11-06T21:00:00	2	Temperatura media	11.6
84258	7	Sololá	702	San José Chacayá	5	Chacayá	3	Marzo	2023-03-15T00:00:00	2024-11-06T21:00:00	4	Temperatura máxima	12.3
84259	7	Sololá	702	San José Chacayá	5	Chacayá	3	Marzo	2023-03-15T00:00:00	2024-11-06T21:00:00	3	Temperatura mínima	11.4
84260	7	Sololá	702	San José Chacayá	5	Chacayá	3	Marzo	2023-03-15T00:00:00	2024-11-06T21:00:00	5	Humedad	77
84261	7	Sololá	702	San José Chacayá	5	Chacayá	3	Marzo	2023-03-15T00:00:00	2024-11-06T21:00:00	6	Velocidad del viento	1.6
84262	7	Sololá	702	San José Chacayá	5	Chacayá	3	Marzo	2023-03-15T00:00:00	2024-11-06T21:00:00	7	Dirección del viento	1.61
84263	7	Sololá	702	San José Chacayá	5	Chacayá	3	Marzo	2023-03-15T00:00:00	2024-11-06T21:00:00	1	Precipitación	0
84264	7	Sololá	702	San José Chacayá	5	Chacayá	3	Marzo	2023-03-15T00:00:00	2024-11-06T21:00:00	8	Radiación solar	0
84265	7	Sololá	702	San José Chacayá	5	Chacayá	3	Marzo	2023-03-15T00:00:00	2024-11-06T22:00:00	2	Temperatura media	10.4
84266	7	Sololá	702	San José Chacayá	5	Chacayá	3	Marzo	2023-03-15T00:00:00	2024-11-06T22:00:00	4	Temperatura máxima	11.6
84267	7	Sololá	702	San José Chacayá	5	Chacayá	3	Marzo	2023-03-15T00:00:00	2024-11-06T22:00:00	3	Temperatura mínima	10.4
84268	7	Sololá	702	San José Chacayá	5	Chacayá	3	Marzo	2023-03-15T00:00:00	2024-11-06T22:00:00	5	Humedad	78
84269	7	Sololá	702	San José Chacayá	5	Chacayá	3	Marzo	2023-03-15T00:00:00	2024-11-06T22:00:00	6	Velocidad del viento	1.6
84270	7	Sololá	702	San José Chacayá	5	Chacayá	3	Marzo	2023-03-15T00:00:00	2024-11-06T22:00:00	7	Dirección del viento	1.61
84271	7	Sololá	702	San José Chacayá	5	Chacayá	3	Marzo	2023-03-15T00:00:00	2024-11-06T22:00:00	1	Precipitación	0
84272	7	Sololá	702	San José Chacayá	5	Chacayá	3	Marzo	2023-03-15T00:00:00	2024-11-06T22:00:00	8	Radiación solar	0
84273	7	Sololá	702	San José Chacayá	5	Chacayá	3	Marzo	2023-03-15T00:00:00	2024-11-06T23:00:00	2	Temperatura media	9.8
84274	7	Sololá	702	San José Chacayá	5	Chacayá	3	Marzo	2023-03-15T00:00:00	2024-11-06T23:00:00	4	Temperatura máxima	10.5
84275	7	Sololá	702	San José Chacayá	5	Chacayá	3	Marzo	2023-03-15T00:00:00	2024-11-06T23:00:00	3	Temperatura mínima	9.8
84276	7	Sololá	702	San José Chacayá	5	Chacayá	3	Marzo	2023-03-15T00:00:00	2024-11-06T23:00:00	5	Humedad	74
84277	7	Sololá	702	San José Chacayá	5	Chacayá	3	Marzo	2023-03-15T00:00:00	2024-11-06T23:00:00	6	Velocidad del viento	3.2
84278	7	Sololá	702	San José Chacayá	5	Chacayá	3	Marzo	2023-03-15T00:00:00	2024-11-06T23:00:00	7	Dirección del viento	3.22
84279	7	Sololá	702	San José Chacayá	5	Chacayá	3	Marzo	2023-03-15T00:00:00	2024-11-06T23:00:00	1	Precipitación	0
84280	7	Sololá	702	San José Chacayá	5	Chacayá	3	Marzo	2023-03-15T00:00:00	2024-11-06T23:00:00	8	Radiación solar	0
84281	7	Sololá	702	San José Chacayá	5	Chacayá	3	Marzo	2023-03-16T00:00:00	2024-11-06T00:00:00	2	Temperatura media	9.6
84282	7	Sololá	702	San José Chacayá	5	Chacayá	3	Marzo	2023-03-16T00:00:00	2024-11-06T00:00:00	4	Temperatura máxima	9.8
84283	7	Sololá	702	San José Chacayá	5	Chacayá	3	Marzo	2023-03-16T00:00:00	2024-11-06T00:00:00	3	Temperatura mínima	9.6
84284	7	Sololá	702	San José Chacayá	5	Chacayá	3	Marzo	2023-03-16T00:00:00	2024-11-06T00:00:00	5	Humedad	73
84285	7	Sololá	702	San José Chacayá	5	Chacayá	3	Marzo	2023-03-16T00:00:00	2024-11-06T00:00:00	6	Velocidad del viento	1.6
84286	7	Sololá	702	San José Chacayá	5	Chacayá	3	Marzo	2023-03-16T00:00:00	2024-11-06T00:00:00	7	Dirección del viento	1.61
84287	7	Sololá	702	San José Chacayá	5	Chacayá	3	Marzo	2023-03-16T00:00:00	2024-11-06T00:00:00	1	Precipitación	0
84288	7	Sololá	702	San José Chacayá	5	Chacayá	3	Marzo	2023-03-16T00:00:00	2024-11-06T00:00:00	8	Radiación solar	0
84289	7	Sololá	702	San José Chacayá	5	Chacayá	3	Marzo	2023-03-16T00:00:00	2024-11-06T01:00:00	2	Temperatura media	9.1
84290	7	Sololá	702	San José Chacayá	5	Chacayá	3	Marzo	2023-03-16T00:00:00	2024-11-06T01:00:00	4	Temperatura máxima	9.6
84291	7	Sololá	702	San José Chacayá	5	Chacayá	3	Marzo	2023-03-16T00:00:00	2024-11-06T01:00:00	3	Temperatura mínima	9.1
84292	7	Sololá	702	San José Chacayá	5	Chacayá	3	Marzo	2023-03-16T00:00:00	2024-11-06T01:00:00	5	Humedad	76
84293	7	Sololá	702	San José Chacayá	5	Chacayá	3	Marzo	2023-03-16T00:00:00	2024-11-06T01:00:00	6	Velocidad del viento	3.2
84294	7	Sololá	702	San José Chacayá	5	Chacayá	3	Marzo	2023-03-16T00:00:00	2024-11-06T01:00:00	7	Dirección del viento	3.22
84295	7	Sololá	702	San José Chacayá	5	Chacayá	3	Marzo	2023-03-16T00:00:00	2024-11-06T01:00:00	1	Precipitación	0
84296	7	Sololá	702	San José Chacayá	5	Chacayá	3	Marzo	2023-03-16T00:00:00	2024-11-06T01:00:00	8	Radiación solar	0
84297	7	Sololá	702	San José Chacayá	5	Chacayá	3	Marzo	2023-03-16T00:00:00	2024-11-06T02:00:00	2	Temperatura media	8.6
84298	7	Sololá	702	San José Chacayá	5	Chacayá	3	Marzo	2023-03-16T00:00:00	2024-11-06T02:00:00	4	Temperatura máxima	9.1
84299	7	Sololá	702	San José Chacayá	5	Chacayá	3	Marzo	2023-03-16T00:00:00	2024-11-06T02:00:00	3	Temperatura mínima	8.6
84300	7	Sololá	702	San José Chacayá	5	Chacayá	3	Marzo	2023-03-16T00:00:00	2024-11-06T02:00:00	5	Humedad	77
84301	7	Sololá	702	San José Chacayá	5	Chacayá	3	Marzo	2023-03-16T00:00:00	2024-11-06T02:00:00	6	Velocidad del viento	3.2
84302	7	Sololá	702	San José Chacayá	5	Chacayá	3	Marzo	2023-03-16T00:00:00	2024-11-06T02:00:00	7	Dirección del viento	3.22
84303	7	Sololá	702	San José Chacayá	5	Chacayá	3	Marzo	2023-03-16T00:00:00	2024-11-06T02:00:00	1	Precipitación	0
84304	7	Sololá	702	San José Chacayá	5	Chacayá	3	Marzo	2023-03-16T00:00:00	2024-11-06T02:00:00	8	Radiación solar	0
84305	7	Sololá	702	San José Chacayá	5	Chacayá	3	Marzo	2023-03-16T00:00:00	2024-11-06T03:00:00	2	Temperatura media	8.3
84306	7	Sololá	702	San José Chacayá	5	Chacayá	3	Marzo	2023-03-16T00:00:00	2024-11-06T03:00:00	4	Temperatura máxima	8.7
84307	7	Sololá	702	San José Chacayá	5	Chacayá	3	Marzo	2023-03-16T00:00:00	2024-11-06T03:00:00	3	Temperatura mínima	8.3
84308	7	Sololá	702	San José Chacayá	5	Chacayá	3	Marzo	2023-03-16T00:00:00	2024-11-06T03:00:00	5	Humedad	80
84309	7	Sololá	702	San José Chacayá	5	Chacayá	3	Marzo	2023-03-16T00:00:00	2024-11-06T03:00:00	6	Velocidad del viento	4.8
84310	7	Sololá	702	San José Chacayá	5	Chacayá	3	Marzo	2023-03-16T00:00:00	2024-11-06T03:00:00	7	Dirección del viento	4.83
84311	7	Sololá	702	San José Chacayá	5	Chacayá	3	Marzo	2023-03-16T00:00:00	2024-11-06T03:00:00	1	Precipitación	0
84312	7	Sololá	702	San José Chacayá	5	Chacayá	3	Marzo	2023-03-16T00:00:00	2024-11-06T03:00:00	8	Radiación solar	0
84313	7	Sololá	702	San José Chacayá	5	Chacayá	3	Marzo	2023-03-16T00:00:00	2024-11-06T04:00:00	2	Temperatura media	8.1
84314	7	Sololá	702	San José Chacayá	5	Chacayá	3	Marzo	2023-03-16T00:00:00	2024-11-06T04:00:00	4	Temperatura máxima	8.3
84315	7	Sololá	702	San José Chacayá	5	Chacayá	3	Marzo	2023-03-16T00:00:00	2024-11-06T04:00:00	3	Temperatura mínima	8.1
84316	7	Sololá	702	San José Chacayá	5	Chacayá	3	Marzo	2023-03-16T00:00:00	2024-11-06T04:00:00	5	Humedad	79
84317	7	Sololá	702	San José Chacayá	5	Chacayá	3	Marzo	2023-03-16T00:00:00	2024-11-06T04:00:00	6	Velocidad del viento	3.2
84318	7	Sololá	702	San José Chacayá	5	Chacayá	3	Marzo	2023-03-16T00:00:00	2024-11-06T04:00:00	7	Dirección del viento	3.22
84319	7	Sololá	702	San José Chacayá	5	Chacayá	3	Marzo	2023-03-16T00:00:00	2024-11-06T04:00:00	1	Precipitación	0
84320	7	Sololá	702	San José Chacayá	5	Chacayá	3	Marzo	2023-03-16T00:00:00	2024-11-06T04:00:00	8	Radiación solar	0
84321	7	Sololá	702	San José Chacayá	5	Chacayá	3	Marzo	2023-03-16T00:00:00	2024-11-06T05:00:00	2	Temperatura media	7.9
84322	7	Sololá	702	San José Chacayá	5	Chacayá	3	Marzo	2023-03-16T00:00:00	2024-11-06T05:00:00	4	Temperatura máxima	8.1
84323	7	Sololá	702	San José Chacayá	5	Chacayá	3	Marzo	2023-03-16T00:00:00	2024-11-06T05:00:00	3	Temperatura mínima	7.7
84324	7	Sololá	702	San José Chacayá	5	Chacayá	3	Marzo	2023-03-16T00:00:00	2024-11-06T05:00:00	5	Humedad	79
84325	7	Sololá	702	San José Chacayá	5	Chacayá	3	Marzo	2023-03-16T00:00:00	2024-11-06T05:00:00	6	Velocidad del viento	4.8
84326	7	Sololá	702	San José Chacayá	5	Chacayá	3	Marzo	2023-03-16T00:00:00	2024-11-06T05:00:00	7	Dirección del viento	4.83
84327	7	Sololá	702	San José Chacayá	5	Chacayá	3	Marzo	2023-03-16T00:00:00	2024-11-06T05:00:00	1	Precipitación	0.2
84328	7	Sololá	702	San José Chacayá	5	Chacayá	3	Marzo	2023-03-16T00:00:00	2024-11-06T05:00:00	8	Radiación solar	0
84329	7	Sololá	702	San José Chacayá	5	Chacayá	3	Marzo	2023-03-16T00:00:00	2024-11-06T06:00:00	2	Temperatura media	7.8
84330	7	Sololá	702	San José Chacayá	5	Chacayá	3	Marzo	2023-03-16T00:00:00	2024-11-06T06:00:00	4	Temperatura máxima	8
84331	7	Sololá	702	San José Chacayá	5	Chacayá	3	Marzo	2023-03-16T00:00:00	2024-11-06T06:00:00	3	Temperatura mínima	7.6
84332	7	Sololá	702	San José Chacayá	5	Chacayá	3	Marzo	2023-03-16T00:00:00	2024-11-06T06:00:00	5	Humedad	80
84333	7	Sololá	702	San José Chacayá	5	Chacayá	3	Marzo	2023-03-16T00:00:00	2024-11-06T06:00:00	6	Velocidad del viento	4.8
84334	7	Sololá	702	San José Chacayá	5	Chacayá	3	Marzo	2023-03-16T00:00:00	2024-11-06T06:00:00	7	Dirección del viento	4.83
84335	7	Sololá	702	San José Chacayá	5	Chacayá	3	Marzo	2023-03-16T00:00:00	2024-11-06T06:00:00	1	Precipitación	0
84336	7	Sololá	702	San José Chacayá	5	Chacayá	3	Marzo	2023-03-16T00:00:00	2024-11-06T06:00:00	8	Radiación solar	0
84337	7	Sololá	702	San José Chacayá	5	Chacayá	3	Marzo	2023-03-16T00:00:00	2024-11-06T07:00:00	2	Temperatura media	7.7
84338	7	Sololá	702	San José Chacayá	5	Chacayá	3	Marzo	2023-03-16T00:00:00	2024-11-06T07:00:00	4	Temperatura máxima	7.9
84339	7	Sololá	702	San José Chacayá	5	Chacayá	3	Marzo	2023-03-16T00:00:00	2024-11-06T07:00:00	3	Temperatura mínima	7.6
84340	7	Sololá	702	San José Chacayá	5	Chacayá	3	Marzo	2023-03-16T00:00:00	2024-11-06T07:00:00	5	Humedad	83
84341	7	Sololá	702	San José Chacayá	5	Chacayá	3	Marzo	2023-03-16T00:00:00	2024-11-06T07:00:00	6	Velocidad del viento	4.8
84342	7	Sololá	702	San José Chacayá	5	Chacayá	3	Marzo	2023-03-16T00:00:00	2024-11-06T07:00:00	7	Dirección del viento	4.83
84343	7	Sololá	702	San José Chacayá	5	Chacayá	3	Marzo	2023-03-16T00:00:00	2024-11-06T07:00:00	1	Precipitación	0
84344	7	Sololá	702	San José Chacayá	5	Chacayá	3	Marzo	2023-03-16T00:00:00	2024-11-06T07:00:00	8	Radiación solar	49
84345	7	Sololá	702	San José Chacayá	5	Chacayá	3	Marzo	2023-03-16T00:00:00	2024-11-06T08:00:00	2	Temperatura media	9.4
84346	7	Sololá	702	San José Chacayá	5	Chacayá	3	Marzo	2023-03-16T00:00:00	2024-11-06T08:00:00	4	Temperatura máxima	9.4
84347	7	Sololá	702	San José Chacayá	5	Chacayá	3	Marzo	2023-03-16T00:00:00	2024-11-06T08:00:00	3	Temperatura mínima	7.6
84348	7	Sololá	702	San José Chacayá	5	Chacayá	3	Marzo	2023-03-16T00:00:00	2024-11-06T08:00:00	5	Humedad	84
84349	7	Sololá	702	San José Chacayá	5	Chacayá	3	Marzo	2023-03-16T00:00:00	2024-11-06T08:00:00	6	Velocidad del viento	3.2
84350	7	Sololá	702	San José Chacayá	5	Chacayá	3	Marzo	2023-03-16T00:00:00	2024-11-06T08:00:00	7	Dirección del viento	3.22
84351	7	Sololá	702	San José Chacayá	5	Chacayá	3	Marzo	2023-03-16T00:00:00	2024-11-06T08:00:00	1	Precipitación	0
84352	7	Sololá	702	San José Chacayá	5	Chacayá	3	Marzo	2023-03-16T00:00:00	2024-11-06T08:00:00	8	Radiación solar	144
84353	7	Sololá	702	San José Chacayá	5	Chacayá	3	Marzo	2023-03-16T00:00:00	2024-11-06T09:00:00	2	Temperatura media	13.4
84354	7	Sololá	702	San José Chacayá	5	Chacayá	3	Marzo	2023-03-16T00:00:00	2024-11-06T09:00:00	4	Temperatura máxima	13.4
84355	7	Sololá	702	San José Chacayá	5	Chacayá	3	Marzo	2023-03-16T00:00:00	2024-11-06T09:00:00	3	Temperatura mínima	9.4
84356	7	Sololá	702	San José Chacayá	5	Chacayá	3	Marzo	2023-03-16T00:00:00	2024-11-06T09:00:00	5	Humedad	83
84357	7	Sololá	702	San José Chacayá	5	Chacayá	3	Marzo	2023-03-16T00:00:00	2024-11-06T09:00:00	6	Velocidad del viento	1.6
84358	7	Sololá	702	San José Chacayá	5	Chacayá	3	Marzo	2023-03-16T00:00:00	2024-11-06T09:00:00	7	Dirección del viento	1.61
84359	7	Sololá	702	San José Chacayá	5	Chacayá	3	Marzo	2023-03-16T00:00:00	2024-11-06T09:00:00	1	Precipitación	0
84360	7	Sololá	702	San José Chacayá	5	Chacayá	3	Marzo	2023-03-16T00:00:00	2024-11-06T09:00:00	8	Radiación solar	518
84361	7	Sololá	702	San José Chacayá	5	Chacayá	3	Marzo	2023-03-16T00:00:00	2024-11-06T10:00:00	2	Temperatura media	18.2
84362	7	Sololá	702	San José Chacayá	5	Chacayá	3	Marzo	2023-03-16T00:00:00	2024-11-06T10:00:00	4	Temperatura máxima	18.2
84363	7	Sololá	702	San José Chacayá	5	Chacayá	3	Marzo	2023-03-16T00:00:00	2024-11-06T10:00:00	3	Temperatura mínima	13.4
84364	7	Sololá	702	San José Chacayá	5	Chacayá	3	Marzo	2023-03-16T00:00:00	2024-11-06T10:00:00	5	Humedad	66
84365	7	Sololá	702	San José Chacayá	5	Chacayá	3	Marzo	2023-03-16T00:00:00	2024-11-06T10:00:00	6	Velocidad del viento	1.6
84366	7	Sololá	702	San José Chacayá	5	Chacayá	3	Marzo	2023-03-16T00:00:00	2024-11-06T10:00:00	7	Dirección del viento	1.61
84367	7	Sololá	702	San José Chacayá	5	Chacayá	3	Marzo	2023-03-16T00:00:00	2024-11-06T10:00:00	1	Precipitación	0
84368	7	Sololá	702	San José Chacayá	5	Chacayá	3	Marzo	2023-03-16T00:00:00	2024-11-06T10:00:00	8	Radiación solar	736
84369	7	Sololá	702	San José Chacayá	5	Chacayá	3	Marzo	2023-03-16T00:00:00	2024-11-06T11:00:00	2	Temperatura media	19.7
84370	7	Sololá	702	San José Chacayá	5	Chacayá	3	Marzo	2023-03-16T00:00:00	2024-11-06T11:00:00	4	Temperatura máxima	19.7
84371	7	Sololá	702	San José Chacayá	5	Chacayá	3	Marzo	2023-03-16T00:00:00	2024-11-06T11:00:00	3	Temperatura mínima	18.2
84372	7	Sololá	702	San José Chacayá	5	Chacayá	3	Marzo	2023-03-16T00:00:00	2024-11-06T11:00:00	5	Humedad	65
84373	7	Sololá	702	San José Chacayá	5	Chacayá	3	Marzo	2023-03-16T00:00:00	2024-11-06T11:00:00	6	Velocidad del viento	4.8
84374	7	Sololá	702	San José Chacayá	5	Chacayá	3	Marzo	2023-03-16T00:00:00	2024-11-06T11:00:00	7	Dirección del viento	4.83
84375	7	Sololá	702	San José Chacayá	5	Chacayá	3	Marzo	2023-03-16T00:00:00	2024-11-06T11:00:00	1	Precipitación	0
84376	7	Sololá	702	San José Chacayá	5	Chacayá	3	Marzo	2023-03-16T00:00:00	2024-11-06T11:00:00	8	Radiación solar	771
84377	7	Sololá	702	San José Chacayá	5	Chacayá	3	Marzo	2023-03-16T00:00:00	2024-11-06T12:00:00	2	Temperatura media	19.7
84378	7	Sololá	702	San José Chacayá	5	Chacayá	3	Marzo	2023-03-16T00:00:00	2024-11-06T12:00:00	4	Temperatura máxima	20.1
84379	7	Sololá	702	San José Chacayá	5	Chacayá	3	Marzo	2023-03-16T00:00:00	2024-11-06T12:00:00	3	Temperatura mínima	19.5
84380	7	Sololá	702	San José Chacayá	5	Chacayá	3	Marzo	2023-03-16T00:00:00	2024-11-06T12:00:00	5	Humedad	69
84381	7	Sololá	702	San José Chacayá	5	Chacayá	3	Marzo	2023-03-16T00:00:00	2024-11-06T12:00:00	6	Velocidad del viento	4.8
84382	7	Sololá	702	San José Chacayá	5	Chacayá	3	Marzo	2023-03-16T00:00:00	2024-11-06T12:00:00	7	Dirección del viento	4.83
84383	7	Sololá	702	San José Chacayá	5	Chacayá	3	Marzo	2023-03-16T00:00:00	2024-11-06T12:00:00	1	Precipitación	0
84384	7	Sololá	702	San José Chacayá	5	Chacayá	3	Marzo	2023-03-16T00:00:00	2024-11-06T12:00:00	8	Radiación solar	1005
84385	7	Sololá	702	San José Chacayá	5	Chacayá	3	Marzo	2023-03-16T00:00:00	2024-11-06T13:00:00	2	Temperatura media	19.3
84386	7	Sololá	702	San José Chacayá	5	Chacayá	3	Marzo	2023-03-16T00:00:00	2024-11-06T13:00:00	4	Temperatura máxima	19.7
84387	7	Sololá	702	San José Chacayá	5	Chacayá	3	Marzo	2023-03-16T00:00:00	2024-11-06T13:00:00	3	Temperatura mínima	19.1
84388	7	Sololá	702	San José Chacayá	5	Chacayá	3	Marzo	2023-03-16T00:00:00	2024-11-06T13:00:00	5	Humedad	71
84389	7	Sololá	702	San José Chacayá	5	Chacayá	3	Marzo	2023-03-16T00:00:00	2024-11-06T13:00:00	6	Velocidad del viento	8
84390	7	Sololá	702	San José Chacayá	5	Chacayá	3	Marzo	2023-03-16T00:00:00	2024-11-06T13:00:00	7	Dirección del viento	8.05
84391	7	Sololá	702	San José Chacayá	5	Chacayá	3	Marzo	2023-03-16T00:00:00	2024-11-06T13:00:00	1	Precipitación	0
84392	7	Sololá	702	San José Chacayá	5	Chacayá	3	Marzo	2023-03-16T00:00:00	2024-11-06T13:00:00	8	Radiación solar	1064
84393	7	Sololá	702	San José Chacayá	5	Chacayá	3	Marzo	2023-03-16T00:00:00	2024-11-06T14:00:00	2	Temperatura media	18.7
84394	7	Sololá	702	San José Chacayá	5	Chacayá	3	Marzo	2023-03-16T00:00:00	2024-11-06T14:00:00	4	Temperatura máxima	19.8
84395	7	Sololá	702	San José Chacayá	5	Chacayá	3	Marzo	2023-03-16T00:00:00	2024-11-06T14:00:00	3	Temperatura mínima	18.6
84396	7	Sololá	702	San José Chacayá	5	Chacayá	3	Marzo	2023-03-16T00:00:00	2024-11-06T14:00:00	5	Humedad	76
84397	7	Sololá	702	San José Chacayá	5	Chacayá	3	Marzo	2023-03-16T00:00:00	2024-11-06T14:00:00	6	Velocidad del viento	8
84398	7	Sololá	702	San José Chacayá	5	Chacayá	3	Marzo	2023-03-16T00:00:00	2024-11-06T14:00:00	7	Dirección del viento	8.05
84399	7	Sololá	702	San José Chacayá	5	Chacayá	3	Marzo	2023-03-16T00:00:00	2024-11-06T14:00:00	1	Precipitación	0
84400	7	Sololá	702	San José Chacayá	5	Chacayá	3	Marzo	2023-03-16T00:00:00	2024-11-06T14:00:00	8	Radiación solar	594
84401	7	Sololá	702	San José Chacayá	5	Chacayá	3	Marzo	2023-03-16T00:00:00	2024-11-06T15:00:00	2	Temperatura media	18.1
84402	7	Sololá	702	San José Chacayá	5	Chacayá	3	Marzo	2023-03-16T00:00:00	2024-11-06T15:00:00	4	Temperatura máxima	19.3
84403	7	Sololá	702	San José Chacayá	5	Chacayá	3	Marzo	2023-03-16T00:00:00	2024-11-06T15:00:00	3	Temperatura mínima	17.7
84404	7	Sololá	702	San José Chacayá	5	Chacayá	3	Marzo	2023-03-16T00:00:00	2024-11-06T15:00:00	5	Humedad	79
84405	7	Sololá	702	San José Chacayá	5	Chacayá	3	Marzo	2023-03-16T00:00:00	2024-11-06T15:00:00	6	Velocidad del viento	8
84406	7	Sololá	702	San José Chacayá	5	Chacayá	3	Marzo	2023-03-16T00:00:00	2024-11-06T15:00:00	7	Dirección del viento	8.05
84407	7	Sololá	702	San José Chacayá	5	Chacayá	3	Marzo	2023-03-16T00:00:00	2024-11-06T15:00:00	1	Precipitación	0
84408	7	Sololá	702	San José Chacayá	5	Chacayá	3	Marzo	2023-03-16T00:00:00	2024-11-06T15:00:00	8	Radiación solar	180
84409	7	Sololá	702	San José Chacayá	5	Chacayá	3	Marzo	2023-03-16T00:00:00	2024-11-06T16:00:00	2	Temperatura media	16.7
84410	7	Sololá	702	San José Chacayá	5	Chacayá	3	Marzo	2023-03-16T00:00:00	2024-11-06T16:00:00	4	Temperatura máxima	18.1
84411	7	Sololá	702	San José Chacayá	5	Chacayá	3	Marzo	2023-03-16T00:00:00	2024-11-06T16:00:00	3	Temperatura mínima	16.7
84412	7	Sololá	702	San José Chacayá	5	Chacayá	3	Marzo	2023-03-16T00:00:00	2024-11-06T16:00:00	5	Humedad	82
84413	7	Sololá	702	San José Chacayá	5	Chacayá	3	Marzo	2023-03-16T00:00:00	2024-11-06T16:00:00	6	Velocidad del viento	3.2
84414	7	Sololá	702	San José Chacayá	5	Chacayá	3	Marzo	2023-03-16T00:00:00	2024-11-06T16:00:00	7	Dirección del viento	3.22
84415	7	Sololá	702	San José Chacayá	5	Chacayá	3	Marzo	2023-03-16T00:00:00	2024-11-06T16:00:00	1	Precipitación	0
84416	7	Sololá	702	San José Chacayá	5	Chacayá	3	Marzo	2023-03-16T00:00:00	2024-11-06T16:00:00	8	Radiación solar	69
84417	7	Sololá	702	San José Chacayá	5	Chacayá	3	Marzo	2023-03-16T00:00:00	2024-11-06T17:00:00	2	Temperatura media	15.9
84418	7	Sololá	702	San José Chacayá	5	Chacayá	3	Marzo	2023-03-16T00:00:00	2024-11-06T17:00:00	4	Temperatura máxima	16.7
84419	7	Sololá	702	San José Chacayá	5	Chacayá	3	Marzo	2023-03-16T00:00:00	2024-11-06T17:00:00	3	Temperatura mínima	15.9
84420	7	Sololá	702	San José Chacayá	5	Chacayá	3	Marzo	2023-03-16T00:00:00	2024-11-06T17:00:00	5	Humedad	84
84421	7	Sololá	702	San José Chacayá	5	Chacayá	3	Marzo	2023-03-16T00:00:00	2024-11-06T17:00:00	6	Velocidad del viento	1.6
84422	7	Sololá	702	San José Chacayá	5	Chacayá	3	Marzo	2023-03-16T00:00:00	2024-11-06T17:00:00	7	Dirección del viento	1.61
84423	7	Sololá	702	San José Chacayá	5	Chacayá	3	Marzo	2023-03-16T00:00:00	2024-11-06T17:00:00	1	Precipitación	0
84424	7	Sololá	702	San José Chacayá	5	Chacayá	3	Marzo	2023-03-16T00:00:00	2024-11-06T17:00:00	8	Radiación solar	64
84425	7	Sololá	702	San José Chacayá	5	Chacayá	3	Marzo	2023-03-16T00:00:00	2024-11-06T18:00:00	2	Temperatura media	15.2
84426	7	Sololá	702	San José Chacayá	5	Chacayá	3	Marzo	2023-03-16T00:00:00	2024-11-06T18:00:00	4	Temperatura máxima	16.3
84427	7	Sololá	702	San José Chacayá	5	Chacayá	3	Marzo	2023-03-16T00:00:00	2024-11-06T18:00:00	3	Temperatura mínima	15.2
84428	7	Sololá	702	San José Chacayá	5	Chacayá	3	Marzo	2023-03-16T00:00:00	2024-11-06T18:00:00	5	Humedad	84
84429	7	Sololá	702	San José Chacayá	5	Chacayá	3	Marzo	2023-03-16T00:00:00	2024-11-06T18:00:00	6	Velocidad del viento	3.2
84430	7	Sololá	702	San José Chacayá	5	Chacayá	3	Marzo	2023-03-16T00:00:00	2024-11-06T18:00:00	7	Dirección del viento	3.22
84431	7	Sololá	702	San José Chacayá	5	Chacayá	3	Marzo	2023-03-16T00:00:00	2024-11-06T18:00:00	1	Precipitación	0
84432	7	Sololá	702	San José Chacayá	5	Chacayá	3	Marzo	2023-03-16T00:00:00	2024-11-06T18:00:00	8	Radiación solar	16
84433	7	Sololá	702	San José Chacayá	5	Chacayá	3	Marzo	2023-03-16T00:00:00	2024-11-06T19:00:00	2	Temperatura media	14.7
84434	7	Sololá	702	San José Chacayá	5	Chacayá	3	Marzo	2023-03-16T00:00:00	2024-11-06T19:00:00	4	Temperatura máxima	15.2
84435	7	Sololá	702	San José Chacayá	5	Chacayá	3	Marzo	2023-03-16T00:00:00	2024-11-06T19:00:00	3	Temperatura mínima	14.6
84436	7	Sololá	702	San José Chacayá	5	Chacayá	3	Marzo	2023-03-16T00:00:00	2024-11-06T19:00:00	5	Humedad	84
84437	7	Sololá	702	San José Chacayá	5	Chacayá	3	Marzo	2023-03-16T00:00:00	2024-11-06T19:00:00	6	Velocidad del viento	1.6
84438	7	Sololá	702	San José Chacayá	5	Chacayá	3	Marzo	2023-03-16T00:00:00	2024-11-06T19:00:00	7	Dirección del viento	1.61
84439	7	Sololá	702	San José Chacayá	5	Chacayá	3	Marzo	2023-03-16T00:00:00	2024-11-06T19:00:00	1	Precipitación	0
84440	7	Sololá	702	San José Chacayá	5	Chacayá	3	Marzo	2023-03-16T00:00:00	2024-11-06T19:00:00	8	Radiación solar	0
84441	7	Sololá	702	San José Chacayá	5	Chacayá	3	Marzo	2023-03-16T00:00:00	2024-11-06T20:00:00	2	Temperatura media	13.8
84442	7	Sololá	702	San José Chacayá	5	Chacayá	3	Marzo	2023-03-16T00:00:00	2024-11-06T20:00:00	4	Temperatura máxima	14.7
84443	7	Sololá	702	San José Chacayá	5	Chacayá	3	Marzo	2023-03-16T00:00:00	2024-11-06T20:00:00	3	Temperatura mínima	13.8
84444	7	Sololá	702	San José Chacayá	5	Chacayá	3	Marzo	2023-03-16T00:00:00	2024-11-06T20:00:00	5	Humedad	84
84445	7	Sololá	702	San José Chacayá	5	Chacayá	3	Marzo	2023-03-16T00:00:00	2024-11-06T20:00:00	6	Velocidad del viento	0
84446	7	Sololá	702	San José Chacayá	5	Chacayá	3	Marzo	2023-03-16T00:00:00	2024-11-06T20:00:00	7	Dirección del viento	0
84447	7	Sololá	702	San José Chacayá	5	Chacayá	3	Marzo	2023-03-16T00:00:00	2024-11-06T20:00:00	1	Precipitación	0
84448	7	Sololá	702	San José Chacayá	5	Chacayá	3	Marzo	2023-03-16T00:00:00	2024-11-06T20:00:00	8	Radiación solar	0
84449	7	Sololá	702	San José Chacayá	5	Chacayá	3	Marzo	2023-03-16T00:00:00	2024-11-06T21:00:00	2	Temperatura media	12.2
84450	7	Sololá	702	San José Chacayá	5	Chacayá	3	Marzo	2023-03-16T00:00:00	2024-11-06T21:00:00	4	Temperatura máxima	13.8
84451	7	Sololá	702	San José Chacayá	5	Chacayá	3	Marzo	2023-03-16T00:00:00	2024-11-06T21:00:00	3	Temperatura mínima	12.2
84452	7	Sololá	702	San José Chacayá	5	Chacayá	3	Marzo	2023-03-16T00:00:00	2024-11-06T21:00:00	5	Humedad	84
84453	7	Sololá	702	San José Chacayá	5	Chacayá	3	Marzo	2023-03-16T00:00:00	2024-11-06T21:00:00	6	Velocidad del viento	1.6
84454	7	Sololá	702	San José Chacayá	5	Chacayá	3	Marzo	2023-03-16T00:00:00	2024-11-06T21:00:00	7	Dirección del viento	1.61
84455	7	Sololá	702	San José Chacayá	5	Chacayá	3	Marzo	2023-03-16T00:00:00	2024-11-06T21:00:00	1	Precipitación	0
84456	7	Sololá	702	San José Chacayá	5	Chacayá	3	Marzo	2023-03-16T00:00:00	2024-11-06T21:00:00	8	Radiación solar	0
84457	7	Sololá	702	San José Chacayá	5	Chacayá	3	Marzo	2023-03-16T00:00:00	2024-11-06T22:00:00	2	Temperatura media	11.3
84458	7	Sololá	702	San José Chacayá	5	Chacayá	3	Marzo	2023-03-16T00:00:00	2024-11-06T22:00:00	4	Temperatura máxima	12.2
84459	7	Sololá	702	San José Chacayá	5	Chacayá	3	Marzo	2023-03-16T00:00:00	2024-11-06T22:00:00	3	Temperatura mínima	11.3
84460	7	Sololá	702	San José Chacayá	5	Chacayá	3	Marzo	2023-03-16T00:00:00	2024-11-06T22:00:00	5	Humedad	84
84461	7	Sololá	702	San José Chacayá	5	Chacayá	3	Marzo	2023-03-16T00:00:00	2024-11-06T22:00:00	6	Velocidad del viento	3.2
84462	7	Sololá	702	San José Chacayá	5	Chacayá	3	Marzo	2023-03-16T00:00:00	2024-11-06T22:00:00	7	Dirección del viento	3.22
84463	7	Sololá	702	San José Chacayá	5	Chacayá	3	Marzo	2023-03-16T00:00:00	2024-11-06T22:00:00	1	Precipitación	0
84464	7	Sololá	702	San José Chacayá	5	Chacayá	3	Marzo	2023-03-16T00:00:00	2024-11-06T22:00:00	8	Radiación solar	0
84465	7	Sololá	702	San José Chacayá	5	Chacayá	3	Marzo	2023-03-16T00:00:00	2024-11-06T23:00:00	2	Temperatura media	11.4
84466	7	Sololá	702	San José Chacayá	5	Chacayá	3	Marzo	2023-03-16T00:00:00	2024-11-06T23:00:00	4	Temperatura máxima	11.4
84467	7	Sololá	702	San José Chacayá	5	Chacayá	3	Marzo	2023-03-16T00:00:00	2024-11-06T23:00:00	3	Temperatura mínima	11.1
84468	7	Sololá	702	San José Chacayá	5	Chacayá	3	Marzo	2023-03-16T00:00:00	2024-11-06T23:00:00	5	Humedad	85
84469	7	Sololá	702	San José Chacayá	5	Chacayá	3	Marzo	2023-03-16T00:00:00	2024-11-06T23:00:00	6	Velocidad del viento	4.8
84470	7	Sololá	702	San José Chacayá	5	Chacayá	3	Marzo	2023-03-16T00:00:00	2024-11-06T23:00:00	7	Dirección del viento	4.83
84471	7	Sololá	702	San José Chacayá	5	Chacayá	3	Marzo	2023-03-16T00:00:00	2024-11-06T23:00:00	1	Precipitación	0
84472	7	Sololá	702	San José Chacayá	5	Chacayá	3	Marzo	2023-03-16T00:00:00	2024-11-06T23:00:00	8	Radiación solar	0
84473	7	Sololá	702	San José Chacayá	5	Chacayá	3	Marzo	2023-03-17T00:00:00	2024-11-06T00:00:00	2	Temperatura media	11.4
84474	7	Sololá	702	San José Chacayá	5	Chacayá	3	Marzo	2023-03-17T00:00:00	2024-11-06T00:00:00	4	Temperatura máxima	11.6
84475	7	Sololá	702	San José Chacayá	5	Chacayá	3	Marzo	2023-03-17T00:00:00	2024-11-06T00:00:00	3	Temperatura mínima	11.3
84476	7	Sololá	702	San José Chacayá	5	Chacayá	3	Marzo	2023-03-17T00:00:00	2024-11-06T00:00:00	5	Humedad	84
84477	7	Sololá	702	San José Chacayá	5	Chacayá	3	Marzo	2023-03-17T00:00:00	2024-11-06T00:00:00	6	Velocidad del viento	0
84478	7	Sololá	702	San José Chacayá	5	Chacayá	3	Marzo	2023-03-17T00:00:00	2024-11-06T00:00:00	7	Dirección del viento	0
84479	7	Sololá	702	San José Chacayá	5	Chacayá	3	Marzo	2023-03-17T00:00:00	2024-11-06T00:00:00	1	Precipitación	0
84480	7	Sololá	702	San José Chacayá	5	Chacayá	3	Marzo	2023-03-17T00:00:00	2024-11-06T00:00:00	8	Radiación solar	0
84481	7	Sololá	702	San José Chacayá	5	Chacayá	3	Marzo	2023-03-17T00:00:00	2024-11-06T01:00:00	2	Temperatura media	11.3
84482	7	Sololá	702	San José Chacayá	5	Chacayá	3	Marzo	2023-03-17T00:00:00	2024-11-06T01:00:00	4	Temperatura máxima	11.6
84483	7	Sololá	702	San José Chacayá	5	Chacayá	3	Marzo	2023-03-17T00:00:00	2024-11-06T01:00:00	3	Temperatura mínima	11.3
84484	7	Sololá	702	San José Chacayá	5	Chacayá	3	Marzo	2023-03-17T00:00:00	2024-11-06T01:00:00	5	Humedad	83
84485	7	Sololá	702	San José Chacayá	5	Chacayá	3	Marzo	2023-03-17T00:00:00	2024-11-06T01:00:00	6	Velocidad del viento	1.6
84486	7	Sololá	702	San José Chacayá	5	Chacayá	3	Marzo	2023-03-17T00:00:00	2024-11-06T01:00:00	7	Dirección del viento	1.61
84487	7	Sololá	702	San José Chacayá	5	Chacayá	3	Marzo	2023-03-17T00:00:00	2024-11-06T01:00:00	1	Precipitación	0
84488	7	Sololá	702	San José Chacayá	5	Chacayá	3	Marzo	2023-03-17T00:00:00	2024-11-06T01:00:00	8	Radiación solar	0
84489	7	Sololá	702	San José Chacayá	5	Chacayá	3	Marzo	2023-03-17T00:00:00	2024-11-06T02:00:00	2	Temperatura media	11.6
84490	7	Sololá	702	San José Chacayá	5	Chacayá	3	Marzo	2023-03-17T00:00:00	2024-11-06T02:00:00	4	Temperatura máxima	11.6
84491	7	Sololá	702	San José Chacayá	5	Chacayá	3	Marzo	2023-03-17T00:00:00	2024-11-06T02:00:00	3	Temperatura mínima	11.3
84492	7	Sololá	702	San José Chacayá	5	Chacayá	3	Marzo	2023-03-17T00:00:00	2024-11-06T02:00:00	5	Humedad	83
84493	7	Sololá	702	San José Chacayá	5	Chacayá	3	Marzo	2023-03-17T00:00:00	2024-11-06T02:00:00	6	Velocidad del viento	1.6
84494	7	Sololá	702	San José Chacayá	5	Chacayá	3	Marzo	2023-03-17T00:00:00	2024-11-06T02:00:00	7	Dirección del viento	1.61
84495	7	Sololá	702	San José Chacayá	5	Chacayá	3	Marzo	2023-03-17T00:00:00	2024-11-06T02:00:00	1	Precipitación	0
84496	7	Sololá	702	San José Chacayá	5	Chacayá	3	Marzo	2023-03-17T00:00:00	2024-11-06T02:00:00	8	Radiación solar	0
84497	7	Sololá	702	San José Chacayá	5	Chacayá	3	Marzo	2023-03-17T00:00:00	2024-11-06T03:00:00	2	Temperatura media	11.5
84498	7	Sololá	702	San José Chacayá	5	Chacayá	3	Marzo	2023-03-17T00:00:00	2024-11-06T03:00:00	4	Temperatura máxima	11.6
84499	7	Sololá	702	San José Chacayá	5	Chacayá	3	Marzo	2023-03-17T00:00:00	2024-11-06T03:00:00	3	Temperatura mínima	11.2
84500	7	Sololá	702	San José Chacayá	5	Chacayá	3	Marzo	2023-03-17T00:00:00	2024-11-06T03:00:00	5	Humedad	78
84501	7	Sololá	702	San José Chacayá	5	Chacayá	3	Marzo	2023-03-17T00:00:00	2024-11-06T03:00:00	6	Velocidad del viento	1.6
84502	7	Sololá	702	San José Chacayá	5	Chacayá	3	Marzo	2023-03-17T00:00:00	2024-11-06T03:00:00	7	Dirección del viento	1.61
84503	7	Sololá	702	San José Chacayá	5	Chacayá	3	Marzo	2023-03-17T00:00:00	2024-11-06T03:00:00	1	Precipitación	0
84504	7	Sololá	702	San José Chacayá	5	Chacayá	3	Marzo	2023-03-17T00:00:00	2024-11-06T03:00:00	8	Radiación solar	0
84505	7	Sololá	702	San José Chacayá	5	Chacayá	3	Marzo	2023-03-17T00:00:00	2024-11-06T04:00:00	2	Temperatura media	11.3
84506	7	Sololá	702	San José Chacayá	5	Chacayá	3	Marzo	2023-03-17T00:00:00	2024-11-06T04:00:00	4	Temperatura máxima	11.8
84507	7	Sololá	702	San José Chacayá	5	Chacayá	3	Marzo	2023-03-17T00:00:00	2024-11-06T04:00:00	3	Temperatura mínima	11.3
84508	7	Sololá	702	San José Chacayá	5	Chacayá	3	Marzo	2023-03-17T00:00:00	2024-11-06T04:00:00	5	Humedad	82
84509	7	Sololá	702	San José Chacayá	5	Chacayá	3	Marzo	2023-03-17T00:00:00	2024-11-06T04:00:00	6	Velocidad del viento	1.6
84510	7	Sololá	702	San José Chacayá	5	Chacayá	3	Marzo	2023-03-17T00:00:00	2024-11-06T04:00:00	7	Dirección del viento	1.61
84511	7	Sololá	702	San José Chacayá	5	Chacayá	3	Marzo	2023-03-17T00:00:00	2024-11-06T04:00:00	1	Precipitación	0
84512	7	Sololá	702	San José Chacayá	5	Chacayá	3	Marzo	2023-03-17T00:00:00	2024-11-06T04:00:00	8	Radiación solar	0
84513	7	Sololá	702	San José Chacayá	5	Chacayá	3	Marzo	2023-03-17T00:00:00	2024-11-06T05:00:00	2	Temperatura media	9.9
84514	7	Sololá	702	San José Chacayá	5	Chacayá	3	Marzo	2023-03-17T00:00:00	2024-11-06T05:00:00	4	Temperatura máxima	11.3
84515	7	Sololá	702	San José Chacayá	5	Chacayá	3	Marzo	2023-03-17T00:00:00	2024-11-06T05:00:00	3	Temperatura mínima	9.9
84516	7	Sololá	702	San José Chacayá	5	Chacayá	3	Marzo	2023-03-17T00:00:00	2024-11-06T05:00:00	5	Humedad	80
84517	7	Sololá	702	San José Chacayá	5	Chacayá	3	Marzo	2023-03-17T00:00:00	2024-11-06T05:00:00	6	Velocidad del viento	1.6
84518	7	Sololá	702	San José Chacayá	5	Chacayá	3	Marzo	2023-03-17T00:00:00	2024-11-06T05:00:00	7	Dirección del viento	1.61
84519	7	Sololá	702	San José Chacayá	5	Chacayá	3	Marzo	2023-03-17T00:00:00	2024-11-06T05:00:00	1	Precipitación	0
84520	7	Sololá	702	San José Chacayá	5	Chacayá	3	Marzo	2023-03-17T00:00:00	2024-11-06T05:00:00	8	Radiación solar	0
84521	7	Sololá	702	San José Chacayá	5	Chacayá	3	Marzo	2023-03-17T00:00:00	2024-11-06T06:00:00	2	Temperatura media	9.3
84522	7	Sololá	702	San José Chacayá	5	Chacayá	3	Marzo	2023-03-17T00:00:00	2024-11-06T06:00:00	4	Temperatura máxima	9.9
84523	7	Sololá	702	San José Chacayá	5	Chacayá	3	Marzo	2023-03-17T00:00:00	2024-11-06T06:00:00	3	Temperatura mínima	9.3
84524	7	Sololá	702	San José Chacayá	5	Chacayá	3	Marzo	2023-03-17T00:00:00	2024-11-06T06:00:00	5	Humedad	82
84525	7	Sololá	702	San José Chacayá	5	Chacayá	3	Marzo	2023-03-17T00:00:00	2024-11-06T06:00:00	6	Velocidad del viento	3.2
84526	7	Sololá	702	San José Chacayá	5	Chacayá	3	Marzo	2023-03-17T00:00:00	2024-11-06T06:00:00	7	Dirección del viento	3.22
84527	7	Sololá	702	San José Chacayá	5	Chacayá	3	Marzo	2023-03-17T00:00:00	2024-11-06T06:00:00	1	Precipitación	0
84528	7	Sololá	702	San José Chacayá	5	Chacayá	3	Marzo	2023-03-17T00:00:00	2024-11-06T06:00:00	8	Radiación solar	0
84529	7	Sololá	702	San José Chacayá	5	Chacayá	3	Marzo	2023-03-17T00:00:00	2024-11-06T07:00:00	2	Temperatura media	8.8
84530	7	Sololá	702	San José Chacayá	5	Chacayá	3	Marzo	2023-03-17T00:00:00	2024-11-06T07:00:00	4	Temperatura máxima	9.3
84531	7	Sololá	702	San José Chacayá	5	Chacayá	3	Marzo	2023-03-17T00:00:00	2024-11-06T07:00:00	3	Temperatura mínima	8.8
84532	7	Sololá	702	San José Chacayá	5	Chacayá	3	Marzo	2023-03-17T00:00:00	2024-11-06T07:00:00	5	Humedad	81
84533	7	Sololá	702	San José Chacayá	5	Chacayá	3	Marzo	2023-03-17T00:00:00	2024-11-06T07:00:00	6	Velocidad del viento	3.2
84534	7	Sololá	702	San José Chacayá	5	Chacayá	3	Marzo	2023-03-17T00:00:00	2024-11-06T07:00:00	7	Dirección del viento	3.22
84535	7	Sololá	702	San José Chacayá	5	Chacayá	3	Marzo	2023-03-17T00:00:00	2024-11-06T07:00:00	1	Precipitación	0
84536	7	Sololá	702	San José Chacayá	5	Chacayá	3	Marzo	2023-03-17T00:00:00	2024-11-06T07:00:00	8	Radiación solar	27
84537	7	Sololá	702	San José Chacayá	5	Chacayá	3	Marzo	2023-03-17T00:00:00	2024-11-06T08:00:00	2	Temperatura media	9.4
84538	7	Sololá	702	San José Chacayá	5	Chacayá	3	Marzo	2023-03-17T00:00:00	2024-11-06T08:00:00	4	Temperatura máxima	9.4
84539	7	Sololá	702	San José Chacayá	5	Chacayá	3	Marzo	2023-03-17T00:00:00	2024-11-06T08:00:00	3	Temperatura mínima	8.7
84540	7	Sololá	702	San José Chacayá	5	Chacayá	3	Marzo	2023-03-17T00:00:00	2024-11-06T08:00:00	5	Humedad	81
84541	7	Sololá	702	San José Chacayá	5	Chacayá	3	Marzo	2023-03-17T00:00:00	2024-11-06T08:00:00	6	Velocidad del viento	3.2
84542	7	Sololá	702	San José Chacayá	5	Chacayá	3	Marzo	2023-03-17T00:00:00	2024-11-06T08:00:00	7	Dirección del viento	3.22
84543	7	Sololá	702	San José Chacayá	5	Chacayá	3	Marzo	2023-03-17T00:00:00	2024-11-06T08:00:00	1	Precipitación	0
84544	7	Sololá	702	San José Chacayá	5	Chacayá	3	Marzo	2023-03-17T00:00:00	2024-11-06T08:00:00	8	Radiación solar	144
84545	7	Sololá	702	San José Chacayá	5	Chacayá	3	Marzo	2023-03-17T00:00:00	2024-11-06T09:00:00	2	Temperatura media	14.3
84546	7	Sololá	702	San José Chacayá	5	Chacayá	3	Marzo	2023-03-17T00:00:00	2024-11-06T09:00:00	4	Temperatura máxima	14.3
84547	7	Sololá	702	San José Chacayá	5	Chacayá	3	Marzo	2023-03-17T00:00:00	2024-11-06T09:00:00	3	Temperatura mínima	9.4
84548	7	Sololá	702	San José Chacayá	5	Chacayá	3	Marzo	2023-03-17T00:00:00	2024-11-06T09:00:00	5	Humedad	82
84549	7	Sololá	702	San José Chacayá	5	Chacayá	3	Marzo	2023-03-17T00:00:00	2024-11-06T09:00:00	6	Velocidad del viento	1.6
84550	7	Sololá	702	San José Chacayá	5	Chacayá	3	Marzo	2023-03-17T00:00:00	2024-11-06T09:00:00	7	Dirección del viento	1.61
84551	7	Sololá	702	San José Chacayá	5	Chacayá	3	Marzo	2023-03-17T00:00:00	2024-11-06T09:00:00	1	Precipitación	0
84552	7	Sololá	702	San José Chacayá	5	Chacayá	3	Marzo	2023-03-17T00:00:00	2024-11-06T09:00:00	8	Radiación solar	384
84553	7	Sololá	702	San José Chacayá	5	Chacayá	3	Marzo	2023-03-17T00:00:00	2024-11-06T10:00:00	2	Temperatura media	16.7
84554	7	Sololá	702	San José Chacayá	5	Chacayá	3	Marzo	2023-03-17T00:00:00	2024-11-06T10:00:00	4	Temperatura máxima	16.7
84555	7	Sololá	702	San José Chacayá	5	Chacayá	3	Marzo	2023-03-17T00:00:00	2024-11-06T10:00:00	3	Temperatura mínima	14.3
84556	7	Sololá	702	San José Chacayá	5	Chacayá	3	Marzo	2023-03-17T00:00:00	2024-11-06T10:00:00	5	Humedad	78
84557	7	Sololá	702	San José Chacayá	5	Chacayá	3	Marzo	2023-03-17T00:00:00	2024-11-06T10:00:00	6	Velocidad del viento	3.2
84558	7	Sololá	702	San José Chacayá	5	Chacayá	3	Marzo	2023-03-17T00:00:00	2024-11-06T10:00:00	7	Dirección del viento	3.22
84559	7	Sololá	702	San José Chacayá	5	Chacayá	3	Marzo	2023-03-17T00:00:00	2024-11-06T10:00:00	1	Precipitación	0
84560	7	Sololá	702	San José Chacayá	5	Chacayá	3	Marzo	2023-03-17T00:00:00	2024-11-06T10:00:00	8	Radiación solar	688
84561	7	Sololá	702	San José Chacayá	5	Chacayá	3	Marzo	2023-03-17T00:00:00	2024-11-06T11:00:00	2	Temperatura media	18.2
84562	7	Sololá	702	San José Chacayá	5	Chacayá	3	Marzo	2023-03-17T00:00:00	2024-11-06T11:00:00	4	Temperatura máxima	18.3
84563	7	Sololá	702	San José Chacayá	5	Chacayá	3	Marzo	2023-03-17T00:00:00	2024-11-06T11:00:00	3	Temperatura mínima	16.7
84564	7	Sololá	702	San José Chacayá	5	Chacayá	3	Marzo	2023-03-17T00:00:00	2024-11-06T11:00:00	5	Humedad	74
84565	7	Sololá	702	San José Chacayá	5	Chacayá	3	Marzo	2023-03-17T00:00:00	2024-11-06T11:00:00	6	Velocidad del viento	4.8
84566	7	Sololá	702	San José Chacayá	5	Chacayá	3	Marzo	2023-03-17T00:00:00	2024-11-06T11:00:00	7	Dirección del viento	4.83
84567	7	Sololá	702	San José Chacayá	5	Chacayá	3	Marzo	2023-03-17T00:00:00	2024-11-06T11:00:00	1	Precipitación	0
84568	7	Sololá	702	San José Chacayá	5	Chacayá	3	Marzo	2023-03-17T00:00:00	2024-11-06T11:00:00	8	Radiación solar	809
84569	7	Sololá	702	San José Chacayá	5	Chacayá	3	Marzo	2023-03-17T00:00:00	2024-11-06T12:00:00	2	Temperatura media	18.9
84570	7	Sololá	702	San José Chacayá	5	Chacayá	3	Marzo	2023-03-17T00:00:00	2024-11-06T12:00:00	4	Temperatura máxima	19.4
84571	7	Sololá	702	San José Chacayá	5	Chacayá	3	Marzo	2023-03-17T00:00:00	2024-11-06T12:00:00	3	Temperatura mínima	18.1
84572	7	Sololá	702	San José Chacayá	5	Chacayá	3	Marzo	2023-03-17T00:00:00	2024-11-06T12:00:00	5	Humedad	71
84573	7	Sololá	702	San José Chacayá	5	Chacayá	3	Marzo	2023-03-17T00:00:00	2024-11-06T12:00:00	6	Velocidad del viento	6.4
84574	7	Sololá	702	San José Chacayá	5	Chacayá	3	Marzo	2023-03-17T00:00:00	2024-11-06T12:00:00	7	Dirección del viento	6.44
84575	7	Sololá	702	San José Chacayá	5	Chacayá	3	Marzo	2023-03-17T00:00:00	2024-11-06T12:00:00	1	Precipitación	0
84576	7	Sololá	702	San José Chacayá	5	Chacayá	3	Marzo	2023-03-17T00:00:00	2024-11-06T12:00:00	8	Radiación solar	1060
84577	7	Sololá	702	San José Chacayá	5	Chacayá	3	Marzo	2023-03-17T00:00:00	2024-11-06T13:00:00	2	Temperatura media	19.3
84578	7	Sololá	702	San José Chacayá	5	Chacayá	3	Marzo	2023-03-17T00:00:00	2024-11-06T13:00:00	4	Temperatura máxima	20.5
84579	7	Sololá	702	San José Chacayá	5	Chacayá	3	Marzo	2023-03-17T00:00:00	2024-11-06T13:00:00	3	Temperatura mínima	18.9
84580	7	Sololá	702	San José Chacayá	5	Chacayá	3	Marzo	2023-03-17T00:00:00	2024-11-06T13:00:00	5	Humedad	70
84581	7	Sololá	702	San José Chacayá	5	Chacayá	3	Marzo	2023-03-17T00:00:00	2024-11-06T13:00:00	6	Velocidad del viento	6.4
84582	7	Sololá	702	San José Chacayá	5	Chacayá	3	Marzo	2023-03-17T00:00:00	2024-11-06T13:00:00	7	Dirección del viento	6.44
84583	7	Sololá	702	San José Chacayá	5	Chacayá	3	Marzo	2023-03-17T00:00:00	2024-11-06T13:00:00	1	Precipitación	0
84584	7	Sololá	702	San José Chacayá	5	Chacayá	3	Marzo	2023-03-17T00:00:00	2024-11-06T13:00:00	8	Radiación solar	697
84585	7	Sololá	702	San José Chacayá	5	Chacayá	3	Marzo	2023-03-17T00:00:00	2024-11-06T14:00:00	2	Temperatura media	19
84586	7	Sololá	702	San José Chacayá	5	Chacayá	3	Marzo	2023-03-17T00:00:00	2024-11-06T14:00:00	4	Temperatura máxima	19.6
84587	7	Sololá	702	San José Chacayá	5	Chacayá	3	Marzo	2023-03-17T00:00:00	2024-11-06T14:00:00	3	Temperatura mínima	18.3
84588	7	Sololá	702	San José Chacayá	5	Chacayá	3	Marzo	2023-03-17T00:00:00	2024-11-06T14:00:00	5	Humedad	72
84589	7	Sololá	702	San José Chacayá	5	Chacayá	3	Marzo	2023-03-17T00:00:00	2024-11-06T14:00:00	6	Velocidad del viento	6.4
84590	7	Sololá	702	San José Chacayá	5	Chacayá	3	Marzo	2023-03-17T00:00:00	2024-11-06T14:00:00	7	Dirección del viento	6.44
84591	7	Sololá	702	San José Chacayá	5	Chacayá	3	Marzo	2023-03-17T00:00:00	2024-11-06T14:00:00	1	Precipitación	0
84592	7	Sololá	702	San José Chacayá	5	Chacayá	3	Marzo	2023-03-17T00:00:00	2024-11-06T14:00:00	8	Radiación solar	156
84593	7	Sololá	702	San José Chacayá	5	Chacayá	3	Marzo	2023-03-17T00:00:00	2024-11-06T15:00:00	2	Temperatura media	16.1
84594	7	Sololá	702	San José Chacayá	5	Chacayá	3	Marzo	2023-03-17T00:00:00	2024-11-06T15:00:00	4	Temperatura máxima	19
84595	7	Sololá	702	San José Chacayá	5	Chacayá	3	Marzo	2023-03-17T00:00:00	2024-11-06T15:00:00	3	Temperatura mínima	16.1
84596	7	Sololá	702	San José Chacayá	5	Chacayá	3	Marzo	2023-03-17T00:00:00	2024-11-06T15:00:00	5	Humedad	83
84597	7	Sololá	702	San José Chacayá	5	Chacayá	3	Marzo	2023-03-17T00:00:00	2024-11-06T15:00:00	6	Velocidad del viento	4.8
84598	7	Sololá	702	San José Chacayá	5	Chacayá	3	Marzo	2023-03-17T00:00:00	2024-11-06T15:00:00	7	Dirección del viento	4.83
84599	7	Sololá	702	San José Chacayá	5	Chacayá	3	Marzo	2023-03-17T00:00:00	2024-11-06T15:00:00	1	Precipitación	0
84600	7	Sololá	702	San José Chacayá	5	Chacayá	3	Marzo	2023-03-17T00:00:00	2024-11-06T15:00:00	8	Radiación solar	193
84601	7	Sololá	702	San José Chacayá	5	Chacayá	3	Marzo	2023-03-17T00:00:00	2024-11-06T16:00:00	2	Temperatura media	16.5
84602	7	Sololá	702	San José Chacayá	5	Chacayá	3	Marzo	2023-03-17T00:00:00	2024-11-06T16:00:00	4	Temperatura máxima	16.5
84603	7	Sololá	702	San José Chacayá	5	Chacayá	3	Marzo	2023-03-17T00:00:00	2024-11-06T16:00:00	3	Temperatura mínima	15.8
84604	7	Sololá	702	San José Chacayá	5	Chacayá	3	Marzo	2023-03-17T00:00:00	2024-11-06T16:00:00	5	Humedad	82
84605	7	Sololá	702	San José Chacayá	5	Chacayá	3	Marzo	2023-03-17T00:00:00	2024-11-06T16:00:00	6	Velocidad del viento	1.6
84606	7	Sololá	702	San José Chacayá	5	Chacayá	3	Marzo	2023-03-17T00:00:00	2024-11-06T16:00:00	7	Dirección del viento	1.61
84607	7	Sololá	702	San José Chacayá	5	Chacayá	3	Marzo	2023-03-17T00:00:00	2024-11-06T16:00:00	1	Precipitación	0.2
84608	7	Sololá	702	San José Chacayá	5	Chacayá	3	Marzo	2023-03-17T00:00:00	2024-11-06T16:00:00	8	Radiación solar	413
84609	7	Sololá	702	San José Chacayá	5	Chacayá	3	Marzo	2023-03-17T00:00:00	2024-11-06T17:00:00	2	Temperatura media	16.9
84610	7	Sololá	702	San José Chacayá	5	Chacayá	3	Marzo	2023-03-17T00:00:00	2024-11-06T17:00:00	4	Temperatura máxima	18.6
84611	7	Sololá	702	San José Chacayá	5	Chacayá	3	Marzo	2023-03-17T00:00:00	2024-11-06T17:00:00	3	Temperatura mínima	16.5
84612	7	Sololá	702	San José Chacayá	5	Chacayá	3	Marzo	2023-03-17T00:00:00	2024-11-06T17:00:00	5	Humedad	78
84613	7	Sololá	702	San José Chacayá	5	Chacayá	3	Marzo	2023-03-17T00:00:00	2024-11-06T17:00:00	6	Velocidad del viento	3.2
84614	7	Sololá	702	San José Chacayá	5	Chacayá	3	Marzo	2023-03-17T00:00:00	2024-11-06T17:00:00	7	Dirección del viento	3.22
84615	7	Sololá	702	San José Chacayá	5	Chacayá	3	Marzo	2023-03-17T00:00:00	2024-11-06T17:00:00	1	Precipitación	0
84616	7	Sololá	702	San José Chacayá	5	Chacayá	3	Marzo	2023-03-17T00:00:00	2024-11-06T17:00:00	8	Radiación solar	93
84617	7	Sololá	702	San José Chacayá	5	Chacayá	3	Marzo	2023-03-17T00:00:00	2024-11-06T18:00:00	2	Temperatura media	15.1
84618	7	Sololá	702	San José Chacayá	5	Chacayá	3	Marzo	2023-03-17T00:00:00	2024-11-06T18:00:00	4	Temperatura máxima	16.9
84619	7	Sololá	702	San José Chacayá	5	Chacayá	3	Marzo	2023-03-17T00:00:00	2024-11-06T18:00:00	3	Temperatura mínima	15.1
84620	7	Sololá	702	San José Chacayá	5	Chacayá	3	Marzo	2023-03-17T00:00:00	2024-11-06T18:00:00	5	Humedad	83
84621	7	Sololá	702	San José Chacayá	5	Chacayá	3	Marzo	2023-03-17T00:00:00	2024-11-06T18:00:00	6	Velocidad del viento	3.2
84622	7	Sololá	702	San José Chacayá	5	Chacayá	3	Marzo	2023-03-17T00:00:00	2024-11-06T18:00:00	7	Dirección del viento	3.22
84623	7	Sololá	702	San José Chacayá	5	Chacayá	3	Marzo	2023-03-17T00:00:00	2024-11-06T18:00:00	1	Precipitación	0
84624	7	Sololá	702	San José Chacayá	5	Chacayá	3	Marzo	2023-03-17T00:00:00	2024-11-06T18:00:00	8	Radiación solar	25
84625	7	Sololá	702	San José Chacayá	5	Chacayá	3	Marzo	2023-03-17T00:00:00	2024-11-06T19:00:00	2	Temperatura media	14.6
84626	7	Sololá	702	San José Chacayá	5	Chacayá	3	Marzo	2023-03-17T00:00:00	2024-11-06T19:00:00	4	Temperatura máxima	15.1
84627	7	Sololá	702	San José Chacayá	5	Chacayá	3	Marzo	2023-03-17T00:00:00	2024-11-06T19:00:00	3	Temperatura mínima	14.6
84628	7	Sololá	702	San José Chacayá	5	Chacayá	3	Marzo	2023-03-17T00:00:00	2024-11-06T19:00:00	5	Humedad	82
84629	7	Sololá	702	San José Chacayá	5	Chacayá	3	Marzo	2023-03-17T00:00:00	2024-11-06T19:00:00	6	Velocidad del viento	1.6
84630	7	Sololá	702	San José Chacayá	5	Chacayá	3	Marzo	2023-03-17T00:00:00	2024-11-06T19:00:00	7	Dirección del viento	1.61
84631	7	Sololá	702	San José Chacayá	5	Chacayá	3	Marzo	2023-03-17T00:00:00	2024-11-06T19:00:00	1	Precipitación	0
84632	7	Sololá	702	San José Chacayá	5	Chacayá	3	Marzo	2023-03-17T00:00:00	2024-11-06T19:00:00	8	Radiación solar	0
84633	7	Sololá	702	San José Chacayá	5	Chacayá	3	Marzo	2023-03-17T00:00:00	2024-11-06T20:00:00	2	Temperatura media	14.2
84634	7	Sololá	702	San José Chacayá	5	Chacayá	3	Marzo	2023-03-17T00:00:00	2024-11-06T20:00:00	4	Temperatura máxima	14.6
84635	7	Sololá	702	San José Chacayá	5	Chacayá	3	Marzo	2023-03-17T00:00:00	2024-11-06T20:00:00	3	Temperatura mínima	14.1
84636	7	Sololá	702	San José Chacayá	5	Chacayá	3	Marzo	2023-03-17T00:00:00	2024-11-06T20:00:00	5	Humedad	73
84637	7	Sololá	702	San José Chacayá	5	Chacayá	3	Marzo	2023-03-17T00:00:00	2024-11-06T20:00:00	6	Velocidad del viento	0
84638	7	Sololá	702	San José Chacayá	5	Chacayá	3	Marzo	2023-03-17T00:00:00	2024-11-06T20:00:00	7	Dirección del viento	0
84639	7	Sololá	702	San José Chacayá	5	Chacayá	3	Marzo	2023-03-17T00:00:00	2024-11-06T20:00:00	1	Precipitación	0.2
84640	7	Sololá	702	San José Chacayá	5	Chacayá	3	Marzo	2023-03-17T00:00:00	2024-11-06T20:00:00	8	Radiación solar	0
84641	7	Sololá	702	San José Chacayá	5	Chacayá	3	Marzo	2023-03-17T00:00:00	2024-11-06T21:00:00	2	Temperatura media	13.9
84642	7	Sololá	702	San José Chacayá	5	Chacayá	3	Marzo	2023-03-17T00:00:00	2024-11-06T21:00:00	4	Temperatura máxima	14.2
84643	7	Sololá	702	San José Chacayá	5	Chacayá	3	Marzo	2023-03-17T00:00:00	2024-11-06T21:00:00	3	Temperatura mínima	13.9
84644	7	Sololá	702	San José Chacayá	5	Chacayá	3	Marzo	2023-03-17T00:00:00	2024-11-06T21:00:00	5	Humedad	64
84645	7	Sololá	702	San José Chacayá	5	Chacayá	3	Marzo	2023-03-17T00:00:00	2024-11-06T21:00:00	6	Velocidad del viento	0
84646	7	Sololá	702	San José Chacayá	5	Chacayá	3	Marzo	2023-03-17T00:00:00	2024-11-06T21:00:00	7	Dirección del viento	0
84647	7	Sololá	702	San José Chacayá	5	Chacayá	3	Marzo	2023-03-17T00:00:00	2024-11-06T21:00:00	1	Precipitación	0
84648	7	Sololá	702	San José Chacayá	5	Chacayá	3	Marzo	2023-03-17T00:00:00	2024-11-06T21:00:00	8	Radiación solar	0
84649	7	Sololá	702	San José Chacayá	5	Chacayá	3	Marzo	2023-03-17T00:00:00	2024-11-06T22:00:00	2	Temperatura media	13.3
84650	7	Sololá	702	San José Chacayá	5	Chacayá	3	Marzo	2023-03-17T00:00:00	2024-11-06T22:00:00	4	Temperatura máxima	13.9
84651	7	Sololá	702	San José Chacayá	5	Chacayá	3	Marzo	2023-03-17T00:00:00	2024-11-06T22:00:00	3	Temperatura mínima	13.3
84652	7	Sololá	702	San José Chacayá	5	Chacayá	3	Marzo	2023-03-17T00:00:00	2024-11-06T22:00:00	5	Humedad	68
84653	7	Sololá	702	San José Chacayá	5	Chacayá	3	Marzo	2023-03-17T00:00:00	2024-11-06T22:00:00	6	Velocidad del viento	0
84654	7	Sololá	702	San José Chacayá	5	Chacayá	3	Marzo	2023-03-17T00:00:00	2024-11-06T22:00:00	7	Dirección del viento	0
84655	7	Sololá	702	San José Chacayá	5	Chacayá	3	Marzo	2023-03-17T00:00:00	2024-11-06T22:00:00	1	Precipitación	0
84656	7	Sololá	702	San José Chacayá	5	Chacayá	3	Marzo	2023-03-17T00:00:00	2024-11-06T22:00:00	8	Radiación solar	0
84657	7	Sololá	702	San José Chacayá	5	Chacayá	3	Marzo	2023-03-17T00:00:00	2024-11-06T23:00:00	2	Temperatura media	12.2
84658	7	Sololá	702	San José Chacayá	5	Chacayá	3	Marzo	2023-03-17T00:00:00	2024-11-06T23:00:00	4	Temperatura máxima	13.3
84659	7	Sololá	702	San José Chacayá	5	Chacayá	3	Marzo	2023-03-17T00:00:00	2024-11-06T23:00:00	3	Temperatura mínima	12.2
84660	7	Sololá	702	San José Chacayá	5	Chacayá	3	Marzo	2023-03-17T00:00:00	2024-11-06T23:00:00	5	Humedad	72
84661	7	Sololá	702	San José Chacayá	5	Chacayá	3	Marzo	2023-03-17T00:00:00	2024-11-06T23:00:00	6	Velocidad del viento	1.6
84662	7	Sololá	702	San José Chacayá	5	Chacayá	3	Marzo	2023-03-17T00:00:00	2024-11-06T23:00:00	7	Dirección del viento	1.61
84663	7	Sololá	702	San José Chacayá	5	Chacayá	3	Marzo	2023-03-17T00:00:00	2024-11-06T23:00:00	1	Precipitación	0
84664	7	Sololá	702	San José Chacayá	5	Chacayá	3	Marzo	2023-03-17T00:00:00	2024-11-06T23:00:00	8	Radiación solar	0
84665	7	Sololá	702	San José Chacayá	5	Chacayá	3	Marzo	2023-03-18T00:00:00	2024-11-06T00:00:00	2	Temperatura media	11.4
84666	7	Sololá	702	San José Chacayá	5	Chacayá	3	Marzo	2023-03-18T00:00:00	2024-11-06T00:00:00	4	Temperatura máxima	12.2
84667	7	Sololá	702	San José Chacayá	5	Chacayá	3	Marzo	2023-03-18T00:00:00	2024-11-06T00:00:00	3	Temperatura mínima	11.4
84668	7	Sololá	702	San José Chacayá	5	Chacayá	3	Marzo	2023-03-18T00:00:00	2024-11-06T00:00:00	5	Humedad	73
84669	7	Sololá	702	San José Chacayá	5	Chacayá	3	Marzo	2023-03-18T00:00:00	2024-11-06T00:00:00	6	Velocidad del viento	1.6
84670	7	Sololá	702	San José Chacayá	5	Chacayá	3	Marzo	2023-03-18T00:00:00	2024-11-06T00:00:00	7	Dirección del viento	1.61
84671	7	Sololá	702	San José Chacayá	5	Chacayá	3	Marzo	2023-03-18T00:00:00	2024-11-06T00:00:00	1	Precipitación	0
84672	7	Sololá	702	San José Chacayá	5	Chacayá	3	Marzo	2023-03-18T00:00:00	2024-11-06T00:00:00	8	Radiación solar	0
84673	7	Sololá	702	San José Chacayá	5	Chacayá	3	Marzo	2023-03-18T00:00:00	2024-11-06T01:00:00	2	Temperatura media	10.5
84674	7	Sololá	702	San José Chacayá	5	Chacayá	3	Marzo	2023-03-18T00:00:00	2024-11-06T01:00:00	4	Temperatura máxima	11.4
84675	7	Sololá	702	San José Chacayá	5	Chacayá	3	Marzo	2023-03-18T00:00:00	2024-11-06T01:00:00	3	Temperatura mínima	10.5
84676	7	Sololá	702	San José Chacayá	5	Chacayá	3	Marzo	2023-03-18T00:00:00	2024-11-06T01:00:00	5	Humedad	78
84677	7	Sololá	702	San José Chacayá	5	Chacayá	3	Marzo	2023-03-18T00:00:00	2024-11-06T01:00:00	6	Velocidad del viento	3.2
84678	7	Sololá	702	San José Chacayá	5	Chacayá	3	Marzo	2023-03-18T00:00:00	2024-11-06T01:00:00	7	Dirección del viento	3.22
84679	7	Sololá	702	San José Chacayá	5	Chacayá	3	Marzo	2023-03-18T00:00:00	2024-11-06T01:00:00	1	Precipitación	0
84680	7	Sololá	702	San José Chacayá	5	Chacayá	3	Marzo	2023-03-18T00:00:00	2024-11-06T01:00:00	8	Radiación solar	0
84681	7	Sololá	702	San José Chacayá	5	Chacayá	3	Marzo	2023-03-18T00:00:00	2024-11-06T02:00:00	2	Temperatura media	10.1
84682	7	Sololá	702	San José Chacayá	5	Chacayá	3	Marzo	2023-03-18T00:00:00	2024-11-06T02:00:00	4	Temperatura máxima	10.6
84683	7	Sololá	702	San José Chacayá	5	Chacayá	3	Marzo	2023-03-18T00:00:00	2024-11-06T02:00:00	3	Temperatura mínima	10
84684	7	Sololá	702	San José Chacayá	5	Chacayá	3	Marzo	2023-03-18T00:00:00	2024-11-06T02:00:00	5	Humedad	76
84685	7	Sololá	702	San José Chacayá	5	Chacayá	3	Marzo	2023-03-18T00:00:00	2024-11-06T02:00:00	6	Velocidad del viento	3.2
84686	7	Sololá	702	San José Chacayá	5	Chacayá	3	Marzo	2023-03-18T00:00:00	2024-11-06T02:00:00	7	Dirección del viento	3.22
84687	7	Sololá	702	San José Chacayá	5	Chacayá	3	Marzo	2023-03-18T00:00:00	2024-11-06T02:00:00	1	Precipitación	0
84688	7	Sololá	702	San José Chacayá	5	Chacayá	3	Marzo	2023-03-18T00:00:00	2024-11-06T02:00:00	8	Radiación solar	0
84689	7	Sololá	702	San José Chacayá	5	Chacayá	3	Marzo	2023-03-18T00:00:00	2024-11-06T03:00:00	2	Temperatura media	10.7
84690	7	Sololá	702	San José Chacayá	5	Chacayá	3	Marzo	2023-03-18T00:00:00	2024-11-06T03:00:00	4	Temperatura máxima	10.7
84691	7	Sololá	702	San José Chacayá	5	Chacayá	3	Marzo	2023-03-18T00:00:00	2024-11-06T03:00:00	3	Temperatura mínima	10.1
84692	7	Sololá	702	San José Chacayá	5	Chacayá	3	Marzo	2023-03-18T00:00:00	2024-11-06T03:00:00	5	Humedad	79
84693	7	Sololá	702	San José Chacayá	5	Chacayá	3	Marzo	2023-03-18T00:00:00	2024-11-06T03:00:00	6	Velocidad del viento	1.6
84694	7	Sololá	702	San José Chacayá	5	Chacayá	3	Marzo	2023-03-18T00:00:00	2024-11-06T03:00:00	7	Dirección del viento	1.61
84695	7	Sololá	702	San José Chacayá	5	Chacayá	3	Marzo	2023-03-18T00:00:00	2024-11-06T03:00:00	1	Precipitación	0
84696	7	Sololá	702	San José Chacayá	5	Chacayá	3	Marzo	2023-03-18T00:00:00	2024-11-06T03:00:00	8	Radiación solar	0
84697	7	Sololá	702	San José Chacayá	5	Chacayá	3	Marzo	2023-03-18T00:00:00	2024-11-06T04:00:00	2	Temperatura media	9.6
84698	7	Sololá	702	San José Chacayá	5	Chacayá	3	Marzo	2023-03-18T00:00:00	2024-11-06T04:00:00	4	Temperatura máxima	10.7
84699	7	Sololá	702	San José Chacayá	5	Chacayá	3	Marzo	2023-03-18T00:00:00	2024-11-06T04:00:00	3	Temperatura mínima	9.6
84700	7	Sololá	702	San José Chacayá	5	Chacayá	3	Marzo	2023-03-18T00:00:00	2024-11-06T04:00:00	5	Humedad	83
84701	7	Sololá	702	San José Chacayá	5	Chacayá	3	Marzo	2023-03-18T00:00:00	2024-11-06T04:00:00	6	Velocidad del viento	3.2
84702	7	Sololá	702	San José Chacayá	5	Chacayá	3	Marzo	2023-03-18T00:00:00	2024-11-06T04:00:00	7	Dirección del viento	3.22
84703	7	Sololá	702	San José Chacayá	5	Chacayá	3	Marzo	2023-03-18T00:00:00	2024-11-06T04:00:00	1	Precipitación	0
84704	7	Sololá	702	San José Chacayá	5	Chacayá	3	Marzo	2023-03-18T00:00:00	2024-11-06T04:00:00	8	Radiación solar	0
84705	7	Sololá	702	San José Chacayá	5	Chacayá	3	Marzo	2023-03-18T00:00:00	2024-11-06T05:00:00	2	Temperatura media	8.7
84706	7	Sololá	702	San José Chacayá	5	Chacayá	3	Marzo	2023-03-18T00:00:00	2024-11-06T05:00:00	4	Temperatura máxima	9.6
84707	7	Sololá	702	San José Chacayá	5	Chacayá	3	Marzo	2023-03-18T00:00:00	2024-11-06T05:00:00	3	Temperatura mínima	8.7
84708	7	Sololá	702	San José Chacayá	5	Chacayá	3	Marzo	2023-03-18T00:00:00	2024-11-06T05:00:00	5	Humedad	85
84709	7	Sololá	702	San José Chacayá	5	Chacayá	3	Marzo	2023-03-18T00:00:00	2024-11-06T05:00:00	6	Velocidad del viento	4.8
84710	7	Sololá	702	San José Chacayá	5	Chacayá	3	Marzo	2023-03-18T00:00:00	2024-11-06T05:00:00	7	Dirección del viento	4.83
84711	7	Sololá	702	San José Chacayá	5	Chacayá	3	Marzo	2023-03-18T00:00:00	2024-11-06T05:00:00	1	Precipitación	0
84712	7	Sololá	702	San José Chacayá	5	Chacayá	3	Marzo	2023-03-18T00:00:00	2024-11-06T05:00:00	8	Radiación solar	0
84713	7	Sololá	702	San José Chacayá	5	Chacayá	3	Marzo	2023-03-18T00:00:00	2024-11-06T06:00:00	2	Temperatura media	7.6
84714	7	Sololá	702	San José Chacayá	5	Chacayá	3	Marzo	2023-03-18T00:00:00	2024-11-06T06:00:00	4	Temperatura máxima	8.7
84715	7	Sololá	702	San José Chacayá	5	Chacayá	3	Marzo	2023-03-18T00:00:00	2024-11-06T06:00:00	3	Temperatura mínima	7.5
84716	7	Sololá	702	San José Chacayá	5	Chacayá	3	Marzo	2023-03-18T00:00:00	2024-11-06T06:00:00	5	Humedad	85
84717	7	Sololá	702	San José Chacayá	5	Chacayá	3	Marzo	2023-03-18T00:00:00	2024-11-06T06:00:00	6	Velocidad del viento	3.2
84718	7	Sololá	702	San José Chacayá	5	Chacayá	3	Marzo	2023-03-18T00:00:00	2024-11-06T06:00:00	7	Dirección del viento	3.22
84719	7	Sololá	702	San José Chacayá	5	Chacayá	3	Marzo	2023-03-18T00:00:00	2024-11-06T06:00:00	1	Precipitación	0
84720	7	Sololá	702	San José Chacayá	5	Chacayá	3	Marzo	2023-03-18T00:00:00	2024-11-06T06:00:00	8	Radiación solar	0
84721	7	Sololá	702	San José Chacayá	5	Chacayá	3	Marzo	2023-03-18T00:00:00	2024-11-06T07:00:00	2	Temperatura media	7.8
84722	7	Sololá	702	San José Chacayá	5	Chacayá	3	Marzo	2023-03-18T00:00:00	2024-11-06T07:00:00	4	Temperatura máxima	7.8
84723	7	Sololá	702	San José Chacayá	5	Chacayá	3	Marzo	2023-03-18T00:00:00	2024-11-06T07:00:00	3	Temperatura mínima	7.3
84724	7	Sololá	702	San José Chacayá	5	Chacayá	3	Marzo	2023-03-18T00:00:00	2024-11-06T07:00:00	5	Humedad	85
84725	7	Sololá	702	San José Chacayá	5	Chacayá	3	Marzo	2023-03-18T00:00:00	2024-11-06T07:00:00	6	Velocidad del viento	6.4
84726	7	Sololá	702	San José Chacayá	5	Chacayá	3	Marzo	2023-03-18T00:00:00	2024-11-06T07:00:00	7	Dirección del viento	6.44
84727	7	Sololá	702	San José Chacayá	5	Chacayá	3	Marzo	2023-03-18T00:00:00	2024-11-06T07:00:00	1	Precipitación	0
84728	7	Sololá	702	San José Chacayá	5	Chacayá	3	Marzo	2023-03-18T00:00:00	2024-11-06T07:00:00	8	Radiación solar	38
84729	7	Sololá	702	San José Chacayá	5	Chacayá	3	Marzo	2023-03-18T00:00:00	2024-11-06T08:00:00	2	Temperatura media	8.8
84730	7	Sololá	702	San José Chacayá	5	Chacayá	3	Marzo	2023-03-18T00:00:00	2024-11-06T08:00:00	4	Temperatura máxima	8.8
84731	7	Sololá	702	San José Chacayá	5	Chacayá	3	Marzo	2023-03-18T00:00:00	2024-11-06T08:00:00	3	Temperatura mínima	7.4
84732	7	Sololá	702	San José Chacayá	5	Chacayá	3	Marzo	2023-03-18T00:00:00	2024-11-06T08:00:00	5	Humedad	82
84733	7	Sololá	702	San José Chacayá	5	Chacayá	3	Marzo	2023-03-18T00:00:00	2024-11-06T08:00:00	6	Velocidad del viento	6.4
84734	7	Sololá	702	San José Chacayá	5	Chacayá	3	Marzo	2023-03-18T00:00:00	2024-11-06T08:00:00	7	Dirección del viento	6.44
84735	7	Sololá	702	San José Chacayá	5	Chacayá	3	Marzo	2023-03-18T00:00:00	2024-11-06T08:00:00	1	Precipitación	0
84736	7	Sololá	702	San José Chacayá	5	Chacayá	3	Marzo	2023-03-18T00:00:00	2024-11-06T08:00:00	8	Radiación solar	150
84737	7	Sololá	702	San José Chacayá	5	Chacayá	3	Marzo	2023-03-18T00:00:00	2024-11-06T09:00:00	2	Temperatura media	13.9
84738	7	Sololá	702	San José Chacayá	5	Chacayá	3	Marzo	2023-03-18T00:00:00	2024-11-06T09:00:00	4	Temperatura máxima	13.9
84739	7	Sololá	702	San José Chacayá	5	Chacayá	3	Marzo	2023-03-18T00:00:00	2024-11-06T09:00:00	3	Temperatura mínima	8.8
84740	7	Sololá	702	San José Chacayá	5	Chacayá	3	Marzo	2023-03-18T00:00:00	2024-11-06T09:00:00	5	Humedad	75
84741	7	Sololá	702	San José Chacayá	5	Chacayá	3	Marzo	2023-03-18T00:00:00	2024-11-06T09:00:00	6	Velocidad del viento	3.2
84742	7	Sololá	702	San José Chacayá	5	Chacayá	3	Marzo	2023-03-18T00:00:00	2024-11-06T09:00:00	7	Dirección del viento	3.22
84743	7	Sololá	702	San José Chacayá	5	Chacayá	3	Marzo	2023-03-18T00:00:00	2024-11-06T09:00:00	1	Precipitación	0
84744	7	Sololá	702	San José Chacayá	5	Chacayá	3	Marzo	2023-03-18T00:00:00	2024-11-06T09:00:00	8	Radiación solar	523
84745	7	Sololá	702	San José Chacayá	5	Chacayá	3	Marzo	2023-03-18T00:00:00	2024-11-06T10:00:00	2	Temperatura media	19.2
84746	7	Sololá	702	San José Chacayá	5	Chacayá	3	Marzo	2023-03-18T00:00:00	2024-11-06T10:00:00	4	Temperatura máxima	19.2
84747	7	Sololá	702	San José Chacayá	5	Chacayá	3	Marzo	2023-03-18T00:00:00	2024-11-06T10:00:00	3	Temperatura mínima	13.9
84748	7	Sololá	702	San José Chacayá	5	Chacayá	3	Marzo	2023-03-18T00:00:00	2024-11-06T10:00:00	5	Humedad	62
84749	7	Sololá	702	San José Chacayá	5	Chacayá	3	Marzo	2023-03-18T00:00:00	2024-11-06T10:00:00	6	Velocidad del viento	3.2
84750	7	Sololá	702	San José Chacayá	5	Chacayá	3	Marzo	2023-03-18T00:00:00	2024-11-06T10:00:00	7	Dirección del viento	3.22
84751	7	Sololá	702	San José Chacayá	5	Chacayá	3	Marzo	2023-03-18T00:00:00	2024-11-06T10:00:00	1	Precipitación	0
84752	7	Sololá	702	San José Chacayá	5	Chacayá	3	Marzo	2023-03-18T00:00:00	2024-11-06T10:00:00	8	Radiación solar	736
84753	7	Sololá	702	San José Chacayá	5	Chacayá	3	Marzo	2023-03-18T00:00:00	2024-11-06T11:00:00	2	Temperatura media	19.9
84754	7	Sololá	702	San José Chacayá	5	Chacayá	3	Marzo	2023-03-18T00:00:00	2024-11-06T11:00:00	4	Temperatura máxima	19.9
84755	7	Sololá	702	San José Chacayá	5	Chacayá	3	Marzo	2023-03-18T00:00:00	2024-11-06T11:00:00	3	Temperatura mínima	19
84756	7	Sololá	702	San José Chacayá	5	Chacayá	3	Marzo	2023-03-18T00:00:00	2024-11-06T11:00:00	5	Humedad	63
84757	7	Sololá	702	San José Chacayá	5	Chacayá	3	Marzo	2023-03-18T00:00:00	2024-11-06T11:00:00	6	Velocidad del viento	6.4
84758	7	Sololá	702	San José Chacayá	5	Chacayá	3	Marzo	2023-03-18T00:00:00	2024-11-06T11:00:00	7	Dirección del viento	6.44
84759	7	Sololá	702	San José Chacayá	5	Chacayá	3	Marzo	2023-03-18T00:00:00	2024-11-06T11:00:00	1	Precipitación	0
84760	7	Sololá	702	San José Chacayá	5	Chacayá	3	Marzo	2023-03-18T00:00:00	2024-11-06T11:00:00	8	Radiación solar	777
84761	7	Sololá	702	San José Chacayá	5	Chacayá	3	Marzo	2023-03-18T00:00:00	2024-11-06T12:00:00	2	Temperatura media	20.8
84762	7	Sololá	702	San José Chacayá	5	Chacayá	3	Marzo	2023-03-18T00:00:00	2024-11-06T12:00:00	4	Temperatura máxima	20.8
84763	7	Sololá	702	San José Chacayá	5	Chacayá	3	Marzo	2023-03-18T00:00:00	2024-11-06T12:00:00	3	Temperatura mínima	19.8
84764	7	Sololá	702	San José Chacayá	5	Chacayá	3	Marzo	2023-03-18T00:00:00	2024-11-06T12:00:00	5	Humedad	60
84765	7	Sololá	702	San José Chacayá	5	Chacayá	3	Marzo	2023-03-18T00:00:00	2024-11-06T12:00:00	6	Velocidad del viento	6.4
84766	7	Sololá	702	San José Chacayá	5	Chacayá	3	Marzo	2023-03-18T00:00:00	2024-11-06T12:00:00	7	Dirección del viento	6.44
84767	7	Sololá	702	San José Chacayá	5	Chacayá	3	Marzo	2023-03-18T00:00:00	2024-11-06T12:00:00	1	Precipitación	0
84768	7	Sololá	702	San José Chacayá	5	Chacayá	3	Marzo	2023-03-18T00:00:00	2024-11-06T12:00:00	8	Radiación solar	990
84769	7	Sololá	702	San José Chacayá	5	Chacayá	3	Marzo	2023-03-18T00:00:00	2024-11-06T13:00:00	2	Temperatura media	20.6
84770	7	Sololá	702	San José Chacayá	5	Chacayá	3	Marzo	2023-03-18T00:00:00	2024-11-06T13:00:00	4	Temperatura máxima	21.2
84771	7	Sololá	702	San José Chacayá	5	Chacayá	3	Marzo	2023-03-18T00:00:00	2024-11-06T13:00:00	3	Temperatura mínima	20.5
84772	7	Sololá	702	San José Chacayá	5	Chacayá	3	Marzo	2023-03-18T00:00:00	2024-11-06T13:00:00	5	Humedad	64
84773	7	Sololá	702	San José Chacayá	5	Chacayá	3	Marzo	2023-03-18T00:00:00	2024-11-06T13:00:00	6	Velocidad del viento	6.4
84774	7	Sololá	702	San José Chacayá	5	Chacayá	3	Marzo	2023-03-18T00:00:00	2024-11-06T13:00:00	7	Dirección del viento	6.44
84775	7	Sololá	702	San José Chacayá	5	Chacayá	3	Marzo	2023-03-18T00:00:00	2024-11-06T13:00:00	1	Precipitación	0
84776	7	Sololá	702	San José Chacayá	5	Chacayá	3	Marzo	2023-03-18T00:00:00	2024-11-06T13:00:00	8	Radiación solar	1085
84777	7	Sololá	702	San José Chacayá	5	Chacayá	3	Marzo	2023-03-18T00:00:00	2024-11-06T14:00:00	2	Temperatura media	20
84778	7	Sololá	702	San José Chacayá	5	Chacayá	3	Marzo	2023-03-18T00:00:00	2024-11-06T14:00:00	4	Temperatura máxima	20.6
84779	7	Sololá	702	San José Chacayá	5	Chacayá	3	Marzo	2023-03-18T00:00:00	2024-11-06T14:00:00	3	Temperatura mínima	19.4
84780	7	Sololá	702	San José Chacayá	5	Chacayá	3	Marzo	2023-03-18T00:00:00	2024-11-06T14:00:00	5	Humedad	68
84781	7	Sololá	702	San José Chacayá	5	Chacayá	3	Marzo	2023-03-18T00:00:00	2024-11-06T14:00:00	6	Velocidad del viento	8
84782	7	Sololá	702	San José Chacayá	5	Chacayá	3	Marzo	2023-03-18T00:00:00	2024-11-06T14:00:00	7	Dirección del viento	8.05
84783	7	Sololá	702	San José Chacayá	5	Chacayá	3	Marzo	2023-03-18T00:00:00	2024-11-06T14:00:00	1	Precipitación	0
84784	7	Sololá	702	San José Chacayá	5	Chacayá	3	Marzo	2023-03-18T00:00:00	2024-11-06T14:00:00	8	Radiación solar	337
84785	7	Sololá	702	San José Chacayá	5	Chacayá	3	Marzo	2023-03-18T00:00:00	2024-11-06T15:00:00	2	Temperatura media	17.2
84786	7	Sololá	702	San José Chacayá	5	Chacayá	3	Marzo	2023-03-18T00:00:00	2024-11-06T15:00:00	4	Temperatura máxima	19.9
84787	7	Sololá	702	San José Chacayá	5	Chacayá	3	Marzo	2023-03-18T00:00:00	2024-11-06T15:00:00	3	Temperatura mínima	17.2
84788	7	Sololá	702	San José Chacayá	5	Chacayá	3	Marzo	2023-03-18T00:00:00	2024-11-06T15:00:00	5	Humedad	79
84789	7	Sololá	702	San José Chacayá	5	Chacayá	3	Marzo	2023-03-18T00:00:00	2024-11-06T15:00:00	6	Velocidad del viento	6.4
84790	7	Sololá	702	San José Chacayá	5	Chacayá	3	Marzo	2023-03-18T00:00:00	2024-11-06T15:00:00	7	Dirección del viento	6.44
84791	7	Sololá	702	San José Chacayá	5	Chacayá	3	Marzo	2023-03-18T00:00:00	2024-11-06T15:00:00	1	Precipitación	0
84792	7	Sololá	702	San José Chacayá	5	Chacayá	3	Marzo	2023-03-18T00:00:00	2024-11-06T15:00:00	8	Radiación solar	177
84793	7	Sololá	702	San José Chacayá	5	Chacayá	3	Marzo	2023-03-18T00:00:00	2024-11-06T16:00:00	2	Temperatura media	16.8
84794	7	Sololá	702	San José Chacayá	5	Chacayá	3	Marzo	2023-03-18T00:00:00	2024-11-06T16:00:00	4	Temperatura máxima	17.2
84795	7	Sololá	702	San José Chacayá	5	Chacayá	3	Marzo	2023-03-18T00:00:00	2024-11-06T16:00:00	3	Temperatura mínima	16.8
84796	7	Sololá	702	San José Chacayá	5	Chacayá	3	Marzo	2023-03-18T00:00:00	2024-11-06T16:00:00	5	Humedad	83
84797	7	Sololá	702	San José Chacayá	5	Chacayá	3	Marzo	2023-03-18T00:00:00	2024-11-06T16:00:00	6	Velocidad del viento	3.2
84798	7	Sololá	702	San José Chacayá	5	Chacayá	3	Marzo	2023-03-18T00:00:00	2024-11-06T16:00:00	7	Dirección del viento	3.22
84799	7	Sololá	702	San José Chacayá	5	Chacayá	3	Marzo	2023-03-18T00:00:00	2024-11-06T16:00:00	1	Precipitación	0
84800	7	Sololá	702	San José Chacayá	5	Chacayá	3	Marzo	2023-03-18T00:00:00	2024-11-06T16:00:00	8	Radiación solar	344
84801	7	Sololá	702	San José Chacayá	5	Chacayá	3	Marzo	2023-03-18T00:00:00	2024-11-06T17:00:00	2	Temperatura media	17.4
84802	7	Sololá	702	San José Chacayá	5	Chacayá	3	Marzo	2023-03-18T00:00:00	2024-11-06T17:00:00	4	Temperatura máxima	17.8
84803	7	Sololá	702	San José Chacayá	5	Chacayá	3	Marzo	2023-03-18T00:00:00	2024-11-06T17:00:00	3	Temperatura mínima	16.7
84804	7	Sololá	702	San José Chacayá	5	Chacayá	3	Marzo	2023-03-18T00:00:00	2024-11-06T17:00:00	5	Humedad	79
84805	7	Sololá	702	San José Chacayá	5	Chacayá	3	Marzo	2023-03-18T00:00:00	2024-11-06T17:00:00	6	Velocidad del viento	3.2
84806	7	Sololá	702	San José Chacayá	5	Chacayá	3	Marzo	2023-03-18T00:00:00	2024-11-06T17:00:00	7	Dirección del viento	3.22
84807	7	Sololá	702	San José Chacayá	5	Chacayá	3	Marzo	2023-03-18T00:00:00	2024-11-06T17:00:00	1	Precipitación	0.2
84808	7	Sololá	702	San José Chacayá	5	Chacayá	3	Marzo	2023-03-18T00:00:00	2024-11-06T17:00:00	8	Radiación solar	68
84809	7	Sololá	702	San José Chacayá	5	Chacayá	3	Marzo	2023-03-18T00:00:00	2024-11-06T18:00:00	2	Temperatura media	15.9
84810	7	Sololá	702	San José Chacayá	5	Chacayá	3	Marzo	2023-03-18T00:00:00	2024-11-06T18:00:00	4	Temperatura máxima	17.4
84811	7	Sololá	702	San José Chacayá	5	Chacayá	3	Marzo	2023-03-18T00:00:00	2024-11-06T18:00:00	3	Temperatura mínima	15.9
84812	7	Sololá	702	San José Chacayá	5	Chacayá	3	Marzo	2023-03-18T00:00:00	2024-11-06T18:00:00	5	Humedad	84
84813	7	Sololá	702	San José Chacayá	5	Chacayá	3	Marzo	2023-03-18T00:00:00	2024-11-06T18:00:00	6	Velocidad del viento	3.2
84814	7	Sololá	702	San José Chacayá	5	Chacayá	3	Marzo	2023-03-18T00:00:00	2024-11-06T18:00:00	7	Dirección del viento	3.22
84815	7	Sololá	702	San José Chacayá	5	Chacayá	3	Marzo	2023-03-18T00:00:00	2024-11-06T18:00:00	1	Precipitación	0
84816	7	Sololá	702	San José Chacayá	5	Chacayá	3	Marzo	2023-03-18T00:00:00	2024-11-06T18:00:00	8	Radiación solar	93
84817	7	Sololá	702	San José Chacayá	5	Chacayá	3	Marzo	2023-03-18T00:00:00	2024-11-06T19:00:00	2	Temperatura media	15.2
84818	7	Sololá	702	San José Chacayá	5	Chacayá	3	Marzo	2023-03-18T00:00:00	2024-11-06T19:00:00	4	Temperatura máxima	15.9
84819	7	Sololá	702	San José Chacayá	5	Chacayá	3	Marzo	2023-03-18T00:00:00	2024-11-06T19:00:00	3	Temperatura mínima	15.2
84820	7	Sololá	702	San José Chacayá	5	Chacayá	3	Marzo	2023-03-18T00:00:00	2024-11-06T19:00:00	5	Humedad	81
84821	7	Sololá	702	San José Chacayá	5	Chacayá	3	Marzo	2023-03-18T00:00:00	2024-11-06T19:00:00	6	Velocidad del viento	1.6
84822	7	Sololá	702	San José Chacayá	5	Chacayá	3	Marzo	2023-03-18T00:00:00	2024-11-06T19:00:00	7	Dirección del viento	1.61
84823	7	Sololá	702	San José Chacayá	5	Chacayá	3	Marzo	2023-03-18T00:00:00	2024-11-06T19:00:00	1	Precipitación	0.2
84824	7	Sololá	702	San José Chacayá	5	Chacayá	3	Marzo	2023-03-18T00:00:00	2024-11-06T19:00:00	8	Radiación solar	0
84825	7	Sololá	702	San José Chacayá	5	Chacayá	3	Marzo	2023-03-18T00:00:00	2024-11-06T20:00:00	2	Temperatura media	14.3
84826	7	Sololá	702	San José Chacayá	5	Chacayá	3	Marzo	2023-03-18T00:00:00	2024-11-06T20:00:00	4	Temperatura máxima	15.2
84827	7	Sololá	702	San José Chacayá	5	Chacayá	3	Marzo	2023-03-18T00:00:00	2024-11-06T20:00:00	3	Temperatura mínima	14.3
84828	7	Sololá	702	San José Chacayá	5	Chacayá	3	Marzo	2023-03-18T00:00:00	2024-11-06T20:00:00	5	Humedad	76
84829	7	Sololá	702	San José Chacayá	5	Chacayá	3	Marzo	2023-03-18T00:00:00	2024-11-06T20:00:00	6	Velocidad del viento	0
84830	7	Sololá	702	San José Chacayá	5	Chacayá	3	Marzo	2023-03-18T00:00:00	2024-11-06T20:00:00	7	Dirección del viento	0
84831	7	Sololá	702	San José Chacayá	5	Chacayá	3	Marzo	2023-03-18T00:00:00	2024-11-06T20:00:00	1	Precipitación	0
84832	7	Sololá	702	San José Chacayá	5	Chacayá	3	Marzo	2023-03-18T00:00:00	2024-11-06T20:00:00	8	Radiación solar	0
84833	7	Sololá	702	San José Chacayá	5	Chacayá	3	Marzo	2023-03-18T00:00:00	2024-11-06T21:00:00	2	Temperatura media	13.1
84834	7	Sololá	702	San José Chacayá	5	Chacayá	3	Marzo	2023-03-18T00:00:00	2024-11-06T21:00:00	4	Temperatura máxima	14.3
84835	7	Sololá	702	San José Chacayá	5	Chacayá	3	Marzo	2023-03-18T00:00:00	2024-11-06T21:00:00	3	Temperatura mínima	13.1
84836	7	Sololá	702	San José Chacayá	5	Chacayá	3	Marzo	2023-03-18T00:00:00	2024-11-06T21:00:00	5	Humedad	77
84837	7	Sololá	702	San José Chacayá	5	Chacayá	3	Marzo	2023-03-18T00:00:00	2024-11-06T21:00:00	6	Velocidad del viento	0
84838	7	Sololá	702	San José Chacayá	5	Chacayá	3	Marzo	2023-03-18T00:00:00	2024-11-06T21:00:00	7	Dirección del viento	0
84839	7	Sololá	702	San José Chacayá	5	Chacayá	3	Marzo	2023-03-18T00:00:00	2024-11-06T21:00:00	1	Precipitación	0
84840	7	Sololá	702	San José Chacayá	5	Chacayá	3	Marzo	2023-03-18T00:00:00	2024-11-06T21:00:00	8	Radiación solar	0
84841	7	Sololá	702	San José Chacayá	5	Chacayá	3	Marzo	2023-03-18T00:00:00	2024-11-06T22:00:00	2	Temperatura media	12.3
84842	7	Sololá	702	San José Chacayá	5	Chacayá	3	Marzo	2023-03-18T00:00:00	2024-11-06T22:00:00	4	Temperatura máxima	13.1
84843	7	Sololá	702	San José Chacayá	5	Chacayá	3	Marzo	2023-03-18T00:00:00	2024-11-06T22:00:00	3	Temperatura mínima	12.3
84844	7	Sololá	702	San José Chacayá	5	Chacayá	3	Marzo	2023-03-18T00:00:00	2024-11-06T22:00:00	5	Humedad	76
84845	7	Sololá	702	San José Chacayá	5	Chacayá	3	Marzo	2023-03-18T00:00:00	2024-11-06T22:00:00	6	Velocidad del viento	1.6
84846	7	Sololá	702	San José Chacayá	5	Chacayá	3	Marzo	2023-03-18T00:00:00	2024-11-06T22:00:00	7	Dirección del viento	1.61
84847	7	Sololá	702	San José Chacayá	5	Chacayá	3	Marzo	2023-03-18T00:00:00	2024-11-06T22:00:00	1	Precipitación	0
84848	7	Sololá	702	San José Chacayá	5	Chacayá	3	Marzo	2023-03-18T00:00:00	2024-11-06T22:00:00	8	Radiación solar	0
84849	7	Sololá	702	San José Chacayá	5	Chacayá	3	Marzo	2023-03-18T00:00:00	2024-11-06T23:00:00	2	Temperatura media	12
84850	7	Sololá	702	San José Chacayá	5	Chacayá	3	Marzo	2023-03-18T00:00:00	2024-11-06T23:00:00	4	Temperatura máxima	12.3
84851	7	Sololá	702	San José Chacayá	5	Chacayá	3	Marzo	2023-03-18T00:00:00	2024-11-06T23:00:00	3	Temperatura mínima	11.9
84852	7	Sololá	702	San José Chacayá	5	Chacayá	3	Marzo	2023-03-18T00:00:00	2024-11-06T23:00:00	5	Humedad	79
84853	7	Sololá	702	San José Chacayá	5	Chacayá	3	Marzo	2023-03-18T00:00:00	2024-11-06T23:00:00	6	Velocidad del viento	3.2
84854	7	Sololá	702	San José Chacayá	5	Chacayá	3	Marzo	2023-03-18T00:00:00	2024-11-06T23:00:00	7	Dirección del viento	3.22
84855	7	Sololá	702	San José Chacayá	5	Chacayá	3	Marzo	2023-03-18T00:00:00	2024-11-06T23:00:00	1	Precipitación	0
84856	7	Sololá	702	San José Chacayá	5	Chacayá	3	Marzo	2023-03-18T00:00:00	2024-11-06T23:00:00	8	Radiación solar	0
84857	7	Sololá	702	San José Chacayá	5	Chacayá	3	Marzo	2023-03-19T00:00:00	2024-11-06T00:00:00	2	Temperatura media	11.4
84858	7	Sololá	702	San José Chacayá	5	Chacayá	3	Marzo	2023-03-19T00:00:00	2024-11-06T00:00:00	4	Temperatura máxima	12
84859	7	Sololá	702	San José Chacayá	5	Chacayá	3	Marzo	2023-03-19T00:00:00	2024-11-06T00:00:00	3	Temperatura mínima	11.3
84860	7	Sololá	702	San José Chacayá	5	Chacayá	3	Marzo	2023-03-19T00:00:00	2024-11-06T00:00:00	5	Humedad	78
84861	7	Sololá	702	San José Chacayá	5	Chacayá	3	Marzo	2023-03-19T00:00:00	2024-11-06T00:00:00	6	Velocidad del viento	3.2
84862	7	Sololá	702	San José Chacayá	5	Chacayá	3	Marzo	2023-03-19T00:00:00	2024-11-06T00:00:00	7	Dirección del viento	3.22
84863	7	Sololá	702	San José Chacayá	5	Chacayá	3	Marzo	2023-03-19T00:00:00	2024-11-06T00:00:00	1	Precipitación	0
84864	7	Sololá	702	San José Chacayá	5	Chacayá	3	Marzo	2023-03-19T00:00:00	2024-11-06T00:00:00	8	Radiación solar	0
84865	7	Sololá	702	San José Chacayá	5	Chacayá	3	Marzo	2023-03-19T00:00:00	2024-11-06T01:00:00	2	Temperatura media	11.2
84866	7	Sololá	702	San José Chacayá	5	Chacayá	3	Marzo	2023-03-19T00:00:00	2024-11-06T01:00:00	4	Temperatura máxima	11.5
84867	7	Sololá	702	San José Chacayá	5	Chacayá	3	Marzo	2023-03-19T00:00:00	2024-11-06T01:00:00	3	Temperatura mínima	11.2
84868	7	Sololá	702	San José Chacayá	5	Chacayá	3	Marzo	2023-03-19T00:00:00	2024-11-06T01:00:00	5	Humedad	78
84869	7	Sololá	702	San José Chacayá	5	Chacayá	3	Marzo	2023-03-19T00:00:00	2024-11-06T01:00:00	6	Velocidad del viento	1.6
84870	7	Sololá	702	San José Chacayá	5	Chacayá	3	Marzo	2023-03-19T00:00:00	2024-11-06T01:00:00	7	Dirección del viento	1.61
84871	7	Sololá	702	San José Chacayá	5	Chacayá	3	Marzo	2023-03-19T00:00:00	2024-11-06T01:00:00	1	Precipitación	0
84872	7	Sololá	702	San José Chacayá	5	Chacayá	3	Marzo	2023-03-19T00:00:00	2024-11-06T01:00:00	8	Radiación solar	0
84873	7	Sololá	702	San José Chacayá	5	Chacayá	3	Marzo	2023-03-19T00:00:00	2024-11-06T02:00:00	2	Temperatura media	11.3
84874	7	Sololá	702	San José Chacayá	5	Chacayá	3	Marzo	2023-03-19T00:00:00	2024-11-06T02:00:00	4	Temperatura máxima	11.5
84875	7	Sololá	702	San José Chacayá	5	Chacayá	3	Marzo	2023-03-19T00:00:00	2024-11-06T02:00:00	3	Temperatura mínima	11.2
84876	7	Sololá	702	San José Chacayá	5	Chacayá	3	Marzo	2023-03-19T00:00:00	2024-11-06T02:00:00	5	Humedad	77
84877	7	Sololá	702	San José Chacayá	5	Chacayá	3	Marzo	2023-03-19T00:00:00	2024-11-06T02:00:00	6	Velocidad del viento	1.6
84878	7	Sololá	702	San José Chacayá	5	Chacayá	3	Marzo	2023-03-19T00:00:00	2024-11-06T02:00:00	7	Dirección del viento	1.61
84879	7	Sololá	702	San José Chacayá	5	Chacayá	3	Marzo	2023-03-19T00:00:00	2024-11-06T02:00:00	1	Precipitación	0
84880	7	Sololá	702	San José Chacayá	5	Chacayá	3	Marzo	2023-03-19T00:00:00	2024-11-06T02:00:00	8	Radiación solar	0
84881	7	Sololá	702	San José Chacayá	5	Chacayá	3	Marzo	2023-03-19T00:00:00	2024-11-06T03:00:00	2	Temperatura media	12.1
84882	7	Sololá	702	San José Chacayá	5	Chacayá	3	Marzo	2023-03-19T00:00:00	2024-11-06T03:00:00	4	Temperatura máxima	12.1
84883	7	Sololá	702	San José Chacayá	5	Chacayá	3	Marzo	2023-03-19T00:00:00	2024-11-06T03:00:00	3	Temperatura mínima	11.3
84884	7	Sololá	702	San José Chacayá	5	Chacayá	3	Marzo	2023-03-19T00:00:00	2024-11-06T03:00:00	5	Humedad	78
84885	7	Sololá	702	San José Chacayá	5	Chacayá	3	Marzo	2023-03-19T00:00:00	2024-11-06T03:00:00	6	Velocidad del viento	1.6
84886	7	Sololá	702	San José Chacayá	5	Chacayá	3	Marzo	2023-03-19T00:00:00	2024-11-06T03:00:00	7	Dirección del viento	1.61
84887	7	Sololá	702	San José Chacayá	5	Chacayá	3	Marzo	2023-03-19T00:00:00	2024-11-06T03:00:00	1	Precipitación	0
84888	7	Sololá	702	San José Chacayá	5	Chacayá	3	Marzo	2023-03-19T00:00:00	2024-11-06T03:00:00	8	Radiación solar	0
84889	7	Sololá	702	San José Chacayá	5	Chacayá	3	Marzo	2023-03-19T00:00:00	2024-11-06T04:00:00	2	Temperatura media	12.4
84890	7	Sololá	702	San José Chacayá	5	Chacayá	3	Marzo	2023-03-19T00:00:00	2024-11-06T04:00:00	4	Temperatura máxima	12.4
84891	7	Sololá	702	San José Chacayá	5	Chacayá	3	Marzo	2023-03-19T00:00:00	2024-11-06T04:00:00	3	Temperatura mínima	12
84892	7	Sololá	702	San José Chacayá	5	Chacayá	3	Marzo	2023-03-19T00:00:00	2024-11-06T04:00:00	5	Humedad	79
84893	7	Sololá	702	San José Chacayá	5	Chacayá	3	Marzo	2023-03-19T00:00:00	2024-11-06T04:00:00	6	Velocidad del viento	0
84894	7	Sololá	702	San José Chacayá	5	Chacayá	3	Marzo	2023-03-19T00:00:00	2024-11-06T04:00:00	7	Dirección del viento	0
84895	7	Sololá	702	San José Chacayá	5	Chacayá	3	Marzo	2023-03-19T00:00:00	2024-11-06T04:00:00	1	Precipitación	0
84896	7	Sololá	702	San José Chacayá	5	Chacayá	3	Marzo	2023-03-19T00:00:00	2024-11-06T04:00:00	8	Radiación solar	0
84897	7	Sololá	702	San José Chacayá	5	Chacayá	3	Marzo	2023-03-19T00:00:00	2024-11-06T05:00:00	2	Temperatura media	12.3
84898	7	Sololá	702	San José Chacayá	5	Chacayá	3	Marzo	2023-03-19T00:00:00	2024-11-06T05:00:00	4	Temperatura máxima	12.4
84899	7	Sololá	702	San José Chacayá	5	Chacayá	3	Marzo	2023-03-19T00:00:00	2024-11-06T05:00:00	3	Temperatura mínima	12.3
84900	7	Sololá	702	San José Chacayá	5	Chacayá	3	Marzo	2023-03-19T00:00:00	2024-11-06T05:00:00	5	Humedad	78
84901	7	Sololá	702	San José Chacayá	5	Chacayá	3	Marzo	2023-03-19T00:00:00	2024-11-06T05:00:00	6	Velocidad del viento	0
84902	7	Sololá	702	San José Chacayá	5	Chacayá	3	Marzo	2023-03-19T00:00:00	2024-11-06T05:00:00	7	Dirección del viento	0
84903	7	Sololá	702	San José Chacayá	5	Chacayá	3	Marzo	2023-03-19T00:00:00	2024-11-06T05:00:00	1	Precipitación	0
84904	7	Sololá	702	San José Chacayá	5	Chacayá	3	Marzo	2023-03-19T00:00:00	2024-11-06T05:00:00	8	Radiación solar	0
84905	7	Sololá	702	San José Chacayá	5	Chacayá	3	Marzo	2023-03-19T00:00:00	2024-11-06T06:00:00	2	Temperatura media	11.9
84906	7	Sololá	702	San José Chacayá	5	Chacayá	3	Marzo	2023-03-19T00:00:00	2024-11-06T06:00:00	4	Temperatura máxima	12.3
84907	7	Sololá	702	San José Chacayá	5	Chacayá	3	Marzo	2023-03-19T00:00:00	2024-11-06T06:00:00	3	Temperatura mínima	11.9
84908	7	Sololá	702	San José Chacayá	5	Chacayá	3	Marzo	2023-03-19T00:00:00	2024-11-06T06:00:00	5	Humedad	78
84909	7	Sololá	702	San José Chacayá	5	Chacayá	3	Marzo	2023-03-19T00:00:00	2024-11-06T06:00:00	6	Velocidad del viento	1.6
84910	7	Sololá	702	San José Chacayá	5	Chacayá	3	Marzo	2023-03-19T00:00:00	2024-11-06T06:00:00	7	Dirección del viento	1.61
84911	7	Sololá	702	San José Chacayá	5	Chacayá	3	Marzo	2023-03-19T00:00:00	2024-11-06T06:00:00	1	Precipitación	0
84912	7	Sololá	702	San José Chacayá	5	Chacayá	3	Marzo	2023-03-19T00:00:00	2024-11-06T06:00:00	8	Radiación solar	0
84913	7	Sololá	702	San José Chacayá	5	Chacayá	3	Marzo	2023-03-19T00:00:00	2024-11-06T07:00:00	2	Temperatura media	10.9
84914	7	Sololá	702	San José Chacayá	5	Chacayá	3	Marzo	2023-03-19T00:00:00	2024-11-06T07:00:00	4	Temperatura máxima	11.9
84915	7	Sololá	702	San José Chacayá	5	Chacayá	3	Marzo	2023-03-19T00:00:00	2024-11-06T07:00:00	3	Temperatura mínima	10.9
84916	7	Sololá	702	San José Chacayá	5	Chacayá	3	Marzo	2023-03-19T00:00:00	2024-11-06T07:00:00	5	Humedad	75
84917	7	Sololá	702	San José Chacayá	5	Chacayá	3	Marzo	2023-03-19T00:00:00	2024-11-06T07:00:00	6	Velocidad del viento	3.2
84918	7	Sololá	702	San José Chacayá	5	Chacayá	3	Marzo	2023-03-19T00:00:00	2024-11-06T07:00:00	7	Dirección del viento	3.22
84919	7	Sololá	702	San José Chacayá	5	Chacayá	3	Marzo	2023-03-19T00:00:00	2024-11-06T07:00:00	1	Precipitación	0
84920	7	Sololá	702	San José Chacayá	5	Chacayá	3	Marzo	2023-03-19T00:00:00	2024-11-06T07:00:00	8	Radiación solar	34
84921	7	Sololá	702	San José Chacayá	5	Chacayá	3	Marzo	2023-03-19T00:00:00	2024-11-06T08:00:00	2	Temperatura media	11.9
84922	7	Sololá	702	San José Chacayá	5	Chacayá	3	Marzo	2023-03-19T00:00:00	2024-11-06T08:00:00	4	Temperatura máxima	11.9
84923	7	Sololá	702	San José Chacayá	5	Chacayá	3	Marzo	2023-03-19T00:00:00	2024-11-06T08:00:00	3	Temperatura mínima	10.8
84924	7	Sololá	702	San José Chacayá	5	Chacayá	3	Marzo	2023-03-19T00:00:00	2024-11-06T08:00:00	5	Humedad	82
84925	7	Sololá	702	San José Chacayá	5	Chacayá	3	Marzo	2023-03-19T00:00:00	2024-11-06T08:00:00	6	Velocidad del viento	3.2
84926	7	Sololá	702	San José Chacayá	5	Chacayá	3	Marzo	2023-03-19T00:00:00	2024-11-06T08:00:00	7	Dirección del viento	3.22
84927	7	Sololá	702	San José Chacayá	5	Chacayá	3	Marzo	2023-03-19T00:00:00	2024-11-06T08:00:00	1	Precipitación	0
84928	7	Sololá	702	San José Chacayá	5	Chacayá	3	Marzo	2023-03-19T00:00:00	2024-11-06T08:00:00	8	Radiación solar	139
84929	7	Sololá	702	San José Chacayá	5	Chacayá	3	Marzo	2023-03-19T00:00:00	2024-11-06T09:00:00	2	Temperatura media	16
84930	7	Sololá	702	San José Chacayá	5	Chacayá	3	Marzo	2023-03-19T00:00:00	2024-11-06T09:00:00	4	Temperatura máxima	16
84931	7	Sololá	702	San José Chacayá	5	Chacayá	3	Marzo	2023-03-19T00:00:00	2024-11-06T09:00:00	3	Temperatura mínima	11.9
84932	7	Sololá	702	San José Chacayá	5	Chacayá	3	Marzo	2023-03-19T00:00:00	2024-11-06T09:00:00	5	Humedad	79
84933	7	Sololá	702	San José Chacayá	5	Chacayá	3	Marzo	2023-03-19T00:00:00	2024-11-06T09:00:00	6	Velocidad del viento	1.6
84934	7	Sololá	702	San José Chacayá	5	Chacayá	3	Marzo	2023-03-19T00:00:00	2024-11-06T09:00:00	7	Dirección del viento	1.61
84935	7	Sololá	702	San José Chacayá	5	Chacayá	3	Marzo	2023-03-19T00:00:00	2024-11-06T09:00:00	1	Precipitación	0
84936	7	Sololá	702	San José Chacayá	5	Chacayá	3	Marzo	2023-03-19T00:00:00	2024-11-06T09:00:00	8	Radiación solar	502
84937	7	Sololá	702	San José Chacayá	5	Chacayá	3	Marzo	2023-03-19T00:00:00	2024-11-06T10:00:00	2	Temperatura media	18.6
84938	7	Sololá	702	San José Chacayá	5	Chacayá	3	Marzo	2023-03-19T00:00:00	2024-11-06T10:00:00	4	Temperatura máxima	18.6
84939	7	Sololá	702	San José Chacayá	5	Chacayá	3	Marzo	2023-03-19T00:00:00	2024-11-06T10:00:00	3	Temperatura mínima	16
84940	7	Sololá	702	San José Chacayá	5	Chacayá	3	Marzo	2023-03-19T00:00:00	2024-11-06T10:00:00	5	Humedad	69
84941	7	Sololá	702	San José Chacayá	5	Chacayá	3	Marzo	2023-03-19T00:00:00	2024-11-06T10:00:00	6	Velocidad del viento	3.2
84942	7	Sololá	702	San José Chacayá	5	Chacayá	3	Marzo	2023-03-19T00:00:00	2024-11-06T10:00:00	7	Dirección del viento	3.22
84943	7	Sololá	702	San José Chacayá	5	Chacayá	3	Marzo	2023-03-19T00:00:00	2024-11-06T10:00:00	1	Precipitación	0
84944	7	Sololá	702	San José Chacayá	5	Chacayá	3	Marzo	2023-03-19T00:00:00	2024-11-06T10:00:00	8	Radiación solar	753
84945	7	Sololá	702	San José Chacayá	5	Chacayá	3	Marzo	2023-03-19T00:00:00	2024-11-06T11:00:00	2	Temperatura media	18.8
84946	7	Sololá	702	San José Chacayá	5	Chacayá	3	Marzo	2023-03-19T00:00:00	2024-11-06T11:00:00	4	Temperatura máxima	19.2
84947	7	Sololá	702	San José Chacayá	5	Chacayá	3	Marzo	2023-03-19T00:00:00	2024-11-06T11:00:00	3	Temperatura mínima	18.6
84948	7	Sololá	702	San José Chacayá	5	Chacayá	3	Marzo	2023-03-19T00:00:00	2024-11-06T11:00:00	5	Humedad	69
84949	7	Sololá	702	San José Chacayá	5	Chacayá	3	Marzo	2023-03-19T00:00:00	2024-11-06T11:00:00	6	Velocidad del viento	8
84950	7	Sololá	702	San José Chacayá	5	Chacayá	3	Marzo	2023-03-19T00:00:00	2024-11-06T11:00:00	7	Dirección del viento	8.05
84951	7	Sololá	702	San José Chacayá	5	Chacayá	3	Marzo	2023-03-19T00:00:00	2024-11-06T11:00:00	1	Precipitación	0
84952	7	Sololá	702	San José Chacayá	5	Chacayá	3	Marzo	2023-03-19T00:00:00	2024-11-06T11:00:00	8	Radiación solar	913
84953	7	Sololá	702	San José Chacayá	5	Chacayá	3	Marzo	2023-03-19T00:00:00	2024-11-06T12:00:00	2	Temperatura media	19.9
84954	7	Sololá	702	San José Chacayá	5	Chacayá	3	Marzo	2023-03-19T00:00:00	2024-11-06T12:00:00	4	Temperatura máxima	20.3
84955	7	Sololá	702	San José Chacayá	5	Chacayá	3	Marzo	2023-03-19T00:00:00	2024-11-06T12:00:00	3	Temperatura mínima	18.7
84956	7	Sololá	702	San José Chacayá	5	Chacayá	3	Marzo	2023-03-19T00:00:00	2024-11-06T12:00:00	5	Humedad	65
84957	7	Sololá	702	San José Chacayá	5	Chacayá	3	Marzo	2023-03-19T00:00:00	2024-11-06T12:00:00	6	Velocidad del viento	8
84958	7	Sololá	702	San José Chacayá	5	Chacayá	3	Marzo	2023-03-19T00:00:00	2024-11-06T12:00:00	7	Dirección del viento	8.05
84959	7	Sololá	702	San José Chacayá	5	Chacayá	3	Marzo	2023-03-19T00:00:00	2024-11-06T12:00:00	1	Precipitación	0
84960	7	Sololá	702	San José Chacayá	5	Chacayá	3	Marzo	2023-03-19T00:00:00	2024-11-06T12:00:00	8	Radiación solar	307
84961	7	Sololá	702	San José Chacayá	5	Chacayá	3	Marzo	2023-03-19T00:00:00	2024-11-06T13:00:00	2	Temperatura media	18.1
84962	7	Sololá	702	San José Chacayá	5	Chacayá	3	Marzo	2023-03-19T00:00:00	2024-11-06T13:00:00	4	Temperatura máxima	20
84963	7	Sololá	702	San José Chacayá	5	Chacayá	3	Marzo	2023-03-19T00:00:00	2024-11-06T13:00:00	3	Temperatura mínima	18.1
84964	7	Sololá	702	San José Chacayá	5	Chacayá	3	Marzo	2023-03-19T00:00:00	2024-11-06T13:00:00	5	Humedad	75
84965	7	Sololá	702	San José Chacayá	5	Chacayá	3	Marzo	2023-03-19T00:00:00	2024-11-06T13:00:00	6	Velocidad del viento	6.4
84966	7	Sololá	702	San José Chacayá	5	Chacayá	3	Marzo	2023-03-19T00:00:00	2024-11-06T13:00:00	7	Dirección del viento	6.44
84967	7	Sololá	702	San José Chacayá	5	Chacayá	3	Marzo	2023-03-19T00:00:00	2024-11-06T13:00:00	1	Precipitación	0
84968	7	Sololá	702	San José Chacayá	5	Chacayá	3	Marzo	2023-03-19T00:00:00	2024-11-06T13:00:00	8	Radiación solar	254
84969	7	Sololá	702	San José Chacayá	5	Chacayá	3	Marzo	2023-03-19T00:00:00	2024-11-06T14:00:00	2	Temperatura media	17
84970	7	Sololá	702	San José Chacayá	5	Chacayá	3	Marzo	2023-03-19T00:00:00	2024-11-06T14:00:00	4	Temperatura máxima	19.3
84971	7	Sololá	702	San José Chacayá	5	Chacayá	3	Marzo	2023-03-19T00:00:00	2024-11-06T14:00:00	3	Temperatura mínima	17
84972	7	Sololá	702	San José Chacayá	5	Chacayá	3	Marzo	2023-03-19T00:00:00	2024-11-06T14:00:00	5	Humedad	82
84973	7	Sololá	702	San José Chacayá	5	Chacayá	3	Marzo	2023-03-19T00:00:00	2024-11-06T14:00:00	6	Velocidad del viento	4.8
84974	7	Sololá	702	San José Chacayá	5	Chacayá	3	Marzo	2023-03-19T00:00:00	2024-11-06T14:00:00	7	Dirección del viento	4.83
84975	7	Sololá	702	San José Chacayá	5	Chacayá	3	Marzo	2023-03-19T00:00:00	2024-11-06T14:00:00	1	Precipitación	3.2
84976	7	Sololá	702	San José Chacayá	5	Chacayá	3	Marzo	2023-03-19T00:00:00	2024-11-06T14:00:00	8	Radiación solar	170
84977	7	Sololá	702	San José Chacayá	5	Chacayá	3	Marzo	2023-03-19T00:00:00	2024-11-06T15:00:00	2	Temperatura media	16.2
84978	7	Sololá	702	San José Chacayá	5	Chacayá	3	Marzo	2023-03-19T00:00:00	2024-11-06T15:00:00	4	Temperatura máxima	16.9
84979	7	Sololá	702	San José Chacayá	5	Chacayá	3	Marzo	2023-03-19T00:00:00	2024-11-06T15:00:00	3	Temperatura mínima	15.9
84980	7	Sololá	702	San José Chacayá	5	Chacayá	3	Marzo	2023-03-19T00:00:00	2024-11-06T15:00:00	5	Humedad	83
84981	7	Sololá	702	San José Chacayá	5	Chacayá	3	Marzo	2023-03-19T00:00:00	2024-11-06T15:00:00	6	Velocidad del viento	0
84982	7	Sololá	702	San José Chacayá	5	Chacayá	3	Marzo	2023-03-19T00:00:00	2024-11-06T15:00:00	7	Dirección del viento	0
84983	7	Sololá	702	San José Chacayá	5	Chacayá	3	Marzo	2023-03-19T00:00:00	2024-11-06T15:00:00	1	Precipitación	1
84984	7	Sololá	702	San José Chacayá	5	Chacayá	3	Marzo	2023-03-19T00:00:00	2024-11-06T15:00:00	8	Radiación solar	263
84985	7	Sololá	702	San José Chacayá	5	Chacayá	3	Marzo	2023-03-19T00:00:00	2024-11-06T16:00:00	2	Temperatura media	16
84986	7	Sololá	702	San José Chacayá	5	Chacayá	3	Marzo	2023-03-19T00:00:00	2024-11-06T16:00:00	4	Temperatura máxima	17.3
84987	7	Sololá	702	San José Chacayá	5	Chacayá	3	Marzo	2023-03-19T00:00:00	2024-11-06T16:00:00	3	Temperatura mínima	16
84988	7	Sololá	702	San José Chacayá	5	Chacayá	3	Marzo	2023-03-19T00:00:00	2024-11-06T16:00:00	5	Humedad	84
84989	7	Sololá	702	San José Chacayá	5	Chacayá	3	Marzo	2023-03-19T00:00:00	2024-11-06T16:00:00	6	Velocidad del viento	3.2
84990	7	Sololá	702	San José Chacayá	5	Chacayá	3	Marzo	2023-03-19T00:00:00	2024-11-06T16:00:00	7	Dirección del viento	3.22
84991	7	Sololá	702	San José Chacayá	5	Chacayá	3	Marzo	2023-03-19T00:00:00	2024-11-06T16:00:00	1	Precipitación	0
84992	7	Sololá	702	San José Chacayá	5	Chacayá	3	Marzo	2023-03-19T00:00:00	2024-11-06T16:00:00	8	Radiación solar	32
84993	7	Sololá	702	San José Chacayá	5	Chacayá	3	Marzo	2023-03-19T00:00:00	2024-11-06T17:00:00	2	Temperatura media	15.1
84994	7	Sololá	702	San José Chacayá	5	Chacayá	3	Marzo	2023-03-19T00:00:00	2024-11-06T17:00:00	4	Temperatura máxima	16
84995	7	Sololá	702	San José Chacayá	5	Chacayá	3	Marzo	2023-03-19T00:00:00	2024-11-06T17:00:00	3	Temperatura mínima	15.1
84996	7	Sololá	702	San José Chacayá	5	Chacayá	3	Marzo	2023-03-19T00:00:00	2024-11-06T17:00:00	5	Humedad	80
84997	7	Sololá	702	San José Chacayá	5	Chacayá	3	Marzo	2023-03-19T00:00:00	2024-11-06T17:00:00	6	Velocidad del viento	1.6
84998	7	Sololá	702	San José Chacayá	5	Chacayá	3	Marzo	2023-03-19T00:00:00	2024-11-06T17:00:00	7	Dirección del viento	1.61
84999	7	Sololá	702	San José Chacayá	5	Chacayá	3	Marzo	2023-03-19T00:00:00	2024-11-06T17:00:00	1	Precipitación	0
85000	7	Sololá	702	San José Chacayá	5	Chacayá	3	Marzo	2023-03-19T00:00:00	2024-11-06T17:00:00	8	Radiación solar	51
85001	7	Sololá	702	San José Chacayá	5	Chacayá	3	Marzo	2023-03-19T00:00:00	2024-11-06T18:00:00	2	Temperatura media	15.2
85002	7	Sololá	702	San José Chacayá	5	Chacayá	3	Marzo	2023-03-19T00:00:00	2024-11-06T18:00:00	4	Temperatura máxima	15.4
85003	7	Sololá	702	San José Chacayá	5	Chacayá	3	Marzo	2023-03-19T00:00:00	2024-11-06T18:00:00	3	Temperatura mínima	15
85004	7	Sololá	702	San José Chacayá	5	Chacayá	3	Marzo	2023-03-19T00:00:00	2024-11-06T18:00:00	5	Humedad	78
85005	7	Sololá	702	San José Chacayá	5	Chacayá	3	Marzo	2023-03-19T00:00:00	2024-11-06T18:00:00	6	Velocidad del viento	0
85006	7	Sololá	702	San José Chacayá	5	Chacayá	3	Marzo	2023-03-19T00:00:00	2024-11-06T18:00:00	7	Dirección del viento	0
85007	7	Sololá	702	San José Chacayá	5	Chacayá	3	Marzo	2023-03-19T00:00:00	2024-11-06T18:00:00	1	Precipitación	0.2
85008	7	Sololá	702	San José Chacayá	5	Chacayá	3	Marzo	2023-03-19T00:00:00	2024-11-06T18:00:00	8	Radiación solar	15
85009	7	Sololá	702	San José Chacayá	5	Chacayá	3	Marzo	2023-03-19T00:00:00	2024-11-06T19:00:00	2	Temperatura media	14.4
85010	7	Sololá	702	San José Chacayá	5	Chacayá	3	Marzo	2023-03-19T00:00:00	2024-11-06T19:00:00	4	Temperatura máxima	15.2
85011	7	Sololá	702	San José Chacayá	5	Chacayá	3	Marzo	2023-03-19T00:00:00	2024-11-06T19:00:00	3	Temperatura mínima	14.4
85012	7	Sololá	702	San José Chacayá	5	Chacayá	3	Marzo	2023-03-19T00:00:00	2024-11-06T19:00:00	5	Humedad	72
85013	7	Sololá	702	San José Chacayá	5	Chacayá	3	Marzo	2023-03-19T00:00:00	2024-11-06T19:00:00	6	Velocidad del viento	0
85014	7	Sololá	702	San José Chacayá	5	Chacayá	3	Marzo	2023-03-19T00:00:00	2024-11-06T19:00:00	7	Dirección del viento	0
85015	7	Sololá	702	San José Chacayá	5	Chacayá	3	Marzo	2023-03-19T00:00:00	2024-11-06T19:00:00	1	Precipitación	1.6
85016	7	Sololá	702	San José Chacayá	5	Chacayá	3	Marzo	2023-03-19T00:00:00	2024-11-06T19:00:00	8	Radiación solar	0
85017	7	Sololá	702	San José Chacayá	5	Chacayá	3	Marzo	2023-03-19T00:00:00	2024-11-06T20:00:00	2	Temperatura media	13.9
85018	7	Sololá	702	San José Chacayá	5	Chacayá	3	Marzo	2023-03-19T00:00:00	2024-11-06T20:00:00	4	Temperatura máxima	14.4
85019	7	Sololá	702	San José Chacayá	5	Chacayá	3	Marzo	2023-03-19T00:00:00	2024-11-06T20:00:00	3	Temperatura mínima	13.9
85020	7	Sololá	702	San José Chacayá	5	Chacayá	3	Marzo	2023-03-19T00:00:00	2024-11-06T20:00:00	5	Humedad	66
85021	7	Sololá	702	San José Chacayá	5	Chacayá	3	Marzo	2023-03-19T00:00:00	2024-11-06T20:00:00	6	Velocidad del viento	0
85022	7	Sololá	702	San José Chacayá	5	Chacayá	3	Marzo	2023-03-19T00:00:00	2024-11-06T20:00:00	7	Dirección del viento	0
85023	7	Sololá	702	San José Chacayá	5	Chacayá	3	Marzo	2023-03-19T00:00:00	2024-11-06T20:00:00	1	Precipitación	0
85024	7	Sololá	702	San José Chacayá	5	Chacayá	3	Marzo	2023-03-19T00:00:00	2024-11-06T20:00:00	8	Radiación solar	0
85025	7	Sololá	702	San José Chacayá	5	Chacayá	3	Marzo	2023-03-19T00:00:00	2024-11-06T21:00:00	2	Temperatura media	13.1
85026	7	Sololá	702	San José Chacayá	5	Chacayá	3	Marzo	2023-03-19T00:00:00	2024-11-06T21:00:00	4	Temperatura máxima	13.9
85027	7	Sololá	702	San José Chacayá	5	Chacayá	3	Marzo	2023-03-19T00:00:00	2024-11-06T21:00:00	3	Temperatura mínima	13.1
85028	7	Sololá	702	San José Chacayá	5	Chacayá	3	Marzo	2023-03-19T00:00:00	2024-11-06T21:00:00	5	Humedad	68
85029	7	Sololá	702	San José Chacayá	5	Chacayá	3	Marzo	2023-03-19T00:00:00	2024-11-06T21:00:00	6	Velocidad del viento	0
85030	7	Sololá	702	San José Chacayá	5	Chacayá	3	Marzo	2023-03-19T00:00:00	2024-11-06T21:00:00	7	Dirección del viento	0
85031	7	Sololá	702	San José Chacayá	5	Chacayá	3	Marzo	2023-03-19T00:00:00	2024-11-06T21:00:00	1	Precipitación	0.2
85032	7	Sololá	702	San José Chacayá	5	Chacayá	3	Marzo	2023-03-19T00:00:00	2024-11-06T21:00:00	8	Radiación solar	0
85033	7	Sololá	702	San José Chacayá	5	Chacayá	3	Marzo	2023-03-19T00:00:00	2024-11-06T22:00:00	2	Temperatura media	11.9
85034	7	Sololá	702	San José Chacayá	5	Chacayá	3	Marzo	2023-03-19T00:00:00	2024-11-06T22:00:00	4	Temperatura máxima	13.1
85035	7	Sololá	702	San José Chacayá	5	Chacayá	3	Marzo	2023-03-19T00:00:00	2024-11-06T22:00:00	3	Temperatura mínima	11.9
85036	7	Sololá	702	San José Chacayá	5	Chacayá	3	Marzo	2023-03-19T00:00:00	2024-11-06T22:00:00	5	Humedad	67
85037	7	Sololá	702	San José Chacayá	5	Chacayá	3	Marzo	2023-03-19T00:00:00	2024-11-06T22:00:00	6	Velocidad del viento	1.6
85038	7	Sololá	702	San José Chacayá	5	Chacayá	3	Marzo	2023-03-19T00:00:00	2024-11-06T22:00:00	7	Dirección del viento	1.61
85039	7	Sololá	702	San José Chacayá	5	Chacayá	3	Marzo	2023-03-19T00:00:00	2024-11-06T22:00:00	1	Precipitación	0
85040	7	Sololá	702	San José Chacayá	5	Chacayá	3	Marzo	2023-03-19T00:00:00	2024-11-06T22:00:00	8	Radiación solar	0
85041	7	Sololá	702	San José Chacayá	5	Chacayá	3	Marzo	2023-03-19T00:00:00	2024-11-06T23:00:00	2	Temperatura media	11.8
85042	7	Sololá	702	San José Chacayá	5	Chacayá	3	Marzo	2023-03-19T00:00:00	2024-11-06T23:00:00	4	Temperatura máxima	11.9
85043	7	Sololá	702	San José Chacayá	5	Chacayá	3	Marzo	2023-03-19T00:00:00	2024-11-06T23:00:00	3	Temperatura mínima	11.8
85044	7	Sololá	702	San José Chacayá	5	Chacayá	3	Marzo	2023-03-19T00:00:00	2024-11-06T23:00:00	5	Humedad	63
85045	7	Sololá	702	San José Chacayá	5	Chacayá	3	Marzo	2023-03-19T00:00:00	2024-11-06T23:00:00	6	Velocidad del viento	0
85046	7	Sololá	702	San José Chacayá	5	Chacayá	3	Marzo	2023-03-19T00:00:00	2024-11-06T23:00:00	7	Dirección del viento	0
85047	7	Sololá	702	San José Chacayá	5	Chacayá	3	Marzo	2023-03-19T00:00:00	2024-11-06T23:00:00	1	Precipitación	0
85048	7	Sololá	702	San José Chacayá	5	Chacayá	3	Marzo	2023-03-19T00:00:00	2024-11-06T23:00:00	8	Radiación solar	0
85049	7	Sololá	702	San José Chacayá	5	Chacayá	3	Marzo	2023-03-20T00:00:00	2024-11-06T00:00:00	2	Temperatura media	11.1
85050	7	Sololá	702	San José Chacayá	5	Chacayá	3	Marzo	2023-03-20T00:00:00	2024-11-06T00:00:00	4	Temperatura máxima	11.8
85051	7	Sololá	702	San José Chacayá	5	Chacayá	3	Marzo	2023-03-20T00:00:00	2024-11-06T00:00:00	3	Temperatura mínima	11.1
85052	7	Sololá	702	San José Chacayá	5	Chacayá	3	Marzo	2023-03-20T00:00:00	2024-11-06T00:00:00	5	Humedad	71
85053	7	Sololá	702	San José Chacayá	5	Chacayá	3	Marzo	2023-03-20T00:00:00	2024-11-06T00:00:00	6	Velocidad del viento	1.6
85054	7	Sololá	702	San José Chacayá	5	Chacayá	3	Marzo	2023-03-20T00:00:00	2024-11-06T00:00:00	7	Dirección del viento	1.61
85055	7	Sololá	702	San José Chacayá	5	Chacayá	3	Marzo	2023-03-20T00:00:00	2024-11-06T00:00:00	1	Precipitación	0
85056	7	Sololá	702	San José Chacayá	5	Chacayá	3	Marzo	2023-03-20T00:00:00	2024-11-06T00:00:00	8	Radiación solar	0
85057	7	Sololá	702	San José Chacayá	5	Chacayá	3	Marzo	2023-03-20T00:00:00	2024-11-06T01:00:00	2	Temperatura media	10.6
85058	7	Sololá	702	San José Chacayá	5	Chacayá	3	Marzo	2023-03-20T00:00:00	2024-11-06T01:00:00	4	Temperatura máxima	11.1
85059	7	Sololá	702	San José Chacayá	5	Chacayá	3	Marzo	2023-03-20T00:00:00	2024-11-06T01:00:00	3	Temperatura mínima	10.6
85060	7	Sololá	702	San José Chacayá	5	Chacayá	3	Marzo	2023-03-20T00:00:00	2024-11-06T01:00:00	5	Humedad	73
85061	7	Sololá	702	San José Chacayá	5	Chacayá	3	Marzo	2023-03-20T00:00:00	2024-11-06T01:00:00	6	Velocidad del viento	3.2
85062	7	Sololá	702	San José Chacayá	5	Chacayá	3	Marzo	2023-03-20T00:00:00	2024-11-06T01:00:00	7	Dirección del viento	3.22
85063	7	Sololá	702	San José Chacayá	5	Chacayá	3	Marzo	2023-03-20T00:00:00	2024-11-06T01:00:00	1	Precipitación	0
85064	7	Sololá	702	San José Chacayá	5	Chacayá	3	Marzo	2023-03-20T00:00:00	2024-11-06T01:00:00	8	Radiación solar	0
85065	7	Sololá	702	San José Chacayá	5	Chacayá	3	Marzo	2023-03-20T00:00:00	2024-11-06T02:00:00	2	Temperatura media	10
85066	7	Sololá	702	San José Chacayá	5	Chacayá	3	Marzo	2023-03-20T00:00:00	2024-11-06T02:00:00	4	Temperatura máxima	10.6
85067	7	Sololá	702	San José Chacayá	5	Chacayá	3	Marzo	2023-03-20T00:00:00	2024-11-06T02:00:00	3	Temperatura mínima	10
85068	7	Sololá	702	San José Chacayá	5	Chacayá	3	Marzo	2023-03-20T00:00:00	2024-11-06T02:00:00	5	Humedad	76
85069	7	Sololá	702	San José Chacayá	5	Chacayá	3	Marzo	2023-03-20T00:00:00	2024-11-06T02:00:00	6	Velocidad del viento	3.2
85070	7	Sololá	702	San José Chacayá	5	Chacayá	3	Marzo	2023-03-20T00:00:00	2024-11-06T02:00:00	7	Dirección del viento	3.22
85071	7	Sololá	702	San José Chacayá	5	Chacayá	3	Marzo	2023-03-20T00:00:00	2024-11-06T02:00:00	1	Precipitación	0
85072	7	Sololá	702	San José Chacayá	5	Chacayá	3	Marzo	2023-03-20T00:00:00	2024-11-06T02:00:00	8	Radiación solar	0
85073	7	Sololá	702	San José Chacayá	5	Chacayá	3	Marzo	2023-03-20T00:00:00	2024-11-06T03:00:00	2	Temperatura media	10.3
85074	7	Sololá	702	San José Chacayá	5	Chacayá	3	Marzo	2023-03-20T00:00:00	2024-11-06T03:00:00	4	Temperatura máxima	10.3
85075	7	Sololá	702	San José Chacayá	5	Chacayá	3	Marzo	2023-03-20T00:00:00	2024-11-06T03:00:00	3	Temperatura mínima	9.7
85076	7	Sololá	702	San José Chacayá	5	Chacayá	3	Marzo	2023-03-20T00:00:00	2024-11-06T03:00:00	5	Humedad	65
85077	7	Sololá	702	San José Chacayá	5	Chacayá	3	Marzo	2023-03-20T00:00:00	2024-11-06T03:00:00	6	Velocidad del viento	1.6
85078	7	Sololá	702	San José Chacayá	5	Chacayá	3	Marzo	2023-03-20T00:00:00	2024-11-06T03:00:00	7	Dirección del viento	1.61
85079	7	Sololá	702	San José Chacayá	5	Chacayá	3	Marzo	2023-03-20T00:00:00	2024-11-06T03:00:00	1	Precipitación	0
85080	7	Sololá	702	San José Chacayá	5	Chacayá	3	Marzo	2023-03-20T00:00:00	2024-11-06T03:00:00	8	Radiación solar	0
85081	7	Sololá	702	San José Chacayá	5	Chacayá	3	Marzo	2023-03-20T00:00:00	2024-11-06T04:00:00	2	Temperatura media	9.5
85082	7	Sololá	702	San José Chacayá	5	Chacayá	3	Marzo	2023-03-20T00:00:00	2024-11-06T04:00:00	4	Temperatura máxima	10.7
85083	7	Sololá	702	San José Chacayá	5	Chacayá	3	Marzo	2023-03-20T00:00:00	2024-11-06T04:00:00	3	Temperatura mínima	9.5
85084	7	Sololá	702	San José Chacayá	5	Chacayá	3	Marzo	2023-03-20T00:00:00	2024-11-06T04:00:00	5	Humedad	75
85085	7	Sololá	702	San José Chacayá	5	Chacayá	3	Marzo	2023-03-20T00:00:00	2024-11-06T04:00:00	6	Velocidad del viento	1.6
85086	7	Sololá	702	San José Chacayá	5	Chacayá	3	Marzo	2023-03-20T00:00:00	2024-11-06T04:00:00	7	Dirección del viento	1.61
85087	7	Sololá	702	San José Chacayá	5	Chacayá	3	Marzo	2023-03-20T00:00:00	2024-11-06T04:00:00	1	Precipitación	0
85088	7	Sololá	702	San José Chacayá	5	Chacayá	3	Marzo	2023-03-20T00:00:00	2024-11-06T04:00:00	8	Radiación solar	0
85089	7	Sololá	702	San José Chacayá	5	Chacayá	3	Marzo	2023-03-20T00:00:00	2024-11-06T05:00:00	2	Temperatura media	10.1
85090	7	Sololá	702	San José Chacayá	5	Chacayá	3	Marzo	2023-03-20T00:00:00	2024-11-06T05:00:00	4	Temperatura máxima	10.5
85091	7	Sololá	702	San José Chacayá	5	Chacayá	3	Marzo	2023-03-20T00:00:00	2024-11-06T05:00:00	3	Temperatura mínima	9.5
85092	7	Sololá	702	San José Chacayá	5	Chacayá	3	Marzo	2023-03-20T00:00:00	2024-11-06T05:00:00	5	Humedad	80
85093	7	Sololá	702	San José Chacayá	5	Chacayá	3	Marzo	2023-03-20T00:00:00	2024-11-06T05:00:00	6	Velocidad del viento	1.6
85094	7	Sololá	702	San José Chacayá	5	Chacayá	3	Marzo	2023-03-20T00:00:00	2024-11-06T05:00:00	7	Dirección del viento	1.61
85095	7	Sololá	702	San José Chacayá	5	Chacayá	3	Marzo	2023-03-20T00:00:00	2024-11-06T05:00:00	1	Precipitación	0
85096	7	Sololá	702	San José Chacayá	5	Chacayá	3	Marzo	2023-03-20T00:00:00	2024-11-06T05:00:00	8	Radiación solar	0
85097	7	Sololá	702	San José Chacayá	5	Chacayá	3	Marzo	2023-03-20T00:00:00	2024-11-06T06:00:00	2	Temperatura media	13
85098	7	Sololá	702	San José Chacayá	5	Chacayá	3	Marzo	2023-03-20T00:00:00	2024-11-06T06:00:00	4	Temperatura máxima	13.1
85099	7	Sololá	702	San José Chacayá	5	Chacayá	3	Marzo	2023-03-20T00:00:00	2024-11-06T06:00:00	3	Temperatura mínima	10.1
85100	7	Sololá	702	San José Chacayá	5	Chacayá	3	Marzo	2023-03-20T00:00:00	2024-11-06T06:00:00	5	Humedad	81
85101	7	Sololá	702	San José Chacayá	5	Chacayá	3	Marzo	2023-03-20T00:00:00	2024-11-06T06:00:00	6	Velocidad del viento	6.4
85102	7	Sololá	702	San José Chacayá	5	Chacayá	3	Marzo	2023-03-20T00:00:00	2024-11-06T06:00:00	7	Dirección del viento	6.44
85103	7	Sololá	702	San José Chacayá	5	Chacayá	3	Marzo	2023-03-20T00:00:00	2024-11-06T06:00:00	1	Precipitación	0
85104	7	Sololá	702	San José Chacayá	5	Chacayá	3	Marzo	2023-03-20T00:00:00	2024-11-06T06:00:00	8	Radiación solar	0
85105	7	Sololá	702	San José Chacayá	5	Chacayá	3	Marzo	2023-03-20T00:00:00	2024-11-06T07:00:00	2	Temperatura media	13
85106	7	Sololá	702	San José Chacayá	5	Chacayá	3	Marzo	2023-03-20T00:00:00	2024-11-06T07:00:00	4	Temperatura máxima	13.2
85107	7	Sololá	702	San José Chacayá	5	Chacayá	3	Marzo	2023-03-20T00:00:00	2024-11-06T07:00:00	3	Temperatura mínima	11.7
85108	7	Sololá	702	San José Chacayá	5	Chacayá	3	Marzo	2023-03-20T00:00:00	2024-11-06T07:00:00	5	Humedad	79
85109	7	Sololá	702	San José Chacayá	5	Chacayá	3	Marzo	2023-03-20T00:00:00	2024-11-06T07:00:00	6	Velocidad del viento	6.4
85110	7	Sololá	702	San José Chacayá	5	Chacayá	3	Marzo	2023-03-20T00:00:00	2024-11-06T07:00:00	7	Dirección del viento	6.44
85111	7	Sololá	702	San José Chacayá	5	Chacayá	3	Marzo	2023-03-20T00:00:00	2024-11-06T07:00:00	1	Precipitación	0
85112	7	Sololá	702	San José Chacayá	5	Chacayá	3	Marzo	2023-03-20T00:00:00	2024-11-06T07:00:00	8	Radiación solar	32
85113	7	Sololá	702	San José Chacayá	5	Chacayá	3	Marzo	2023-03-20T00:00:00	2024-11-06T08:00:00	2	Temperatura media	14.1
85114	7	Sololá	702	San José Chacayá	5	Chacayá	3	Marzo	2023-03-20T00:00:00	2024-11-06T08:00:00	4	Temperatura máxima	14.1
85115	7	Sololá	702	San José Chacayá	5	Chacayá	3	Marzo	2023-03-20T00:00:00	2024-11-06T08:00:00	3	Temperatura mínima	12.3
85116	7	Sololá	702	San José Chacayá	5	Chacayá	3	Marzo	2023-03-20T00:00:00	2024-11-06T08:00:00	5	Humedad	75
85117	7	Sololá	702	San José Chacayá	5	Chacayá	3	Marzo	2023-03-20T00:00:00	2024-11-06T08:00:00	6	Velocidad del viento	8
85118	7	Sololá	702	San José Chacayá	5	Chacayá	3	Marzo	2023-03-20T00:00:00	2024-11-06T08:00:00	7	Dirección del viento	8.05
85119	7	Sololá	702	San José Chacayá	5	Chacayá	3	Marzo	2023-03-20T00:00:00	2024-11-06T08:00:00	1	Precipitación	0
85120	7	Sololá	702	San José Chacayá	5	Chacayá	3	Marzo	2023-03-20T00:00:00	2024-11-06T08:00:00	8	Radiación solar	142
85121	7	Sololá	702	San José Chacayá	5	Chacayá	3	Marzo	2023-03-20T00:00:00	2024-11-06T09:00:00	2	Temperatura media	15.5
85122	7	Sololá	702	San José Chacayá	5	Chacayá	3	Marzo	2023-03-20T00:00:00	2024-11-06T09:00:00	4	Temperatura máxima	15.5
85123	7	Sololá	702	San José Chacayá	5	Chacayá	3	Marzo	2023-03-20T00:00:00	2024-11-06T09:00:00	3	Temperatura mínima	14.1
85124	7	Sololá	702	San José Chacayá	5	Chacayá	3	Marzo	2023-03-20T00:00:00	2024-11-06T09:00:00	5	Humedad	71
85125	7	Sololá	702	San José Chacayá	5	Chacayá	3	Marzo	2023-03-20T00:00:00	2024-11-06T09:00:00	6	Velocidad del viento	8
85126	7	Sololá	702	San José Chacayá	5	Chacayá	3	Marzo	2023-03-20T00:00:00	2024-11-06T09:00:00	7	Dirección del viento	8.05
85127	7	Sololá	702	San José Chacayá	5	Chacayá	3	Marzo	2023-03-20T00:00:00	2024-11-06T09:00:00	1	Precipitación	0
85128	7	Sololá	702	San José Chacayá	5	Chacayá	3	Marzo	2023-03-20T00:00:00	2024-11-06T09:00:00	8	Radiación solar	476
85129	7	Sololá	702	San José Chacayá	5	Chacayá	3	Marzo	2023-03-20T00:00:00	2024-11-06T10:00:00	2	Temperatura media	16.9
85130	7	Sololá	702	San José Chacayá	5	Chacayá	3	Marzo	2023-03-20T00:00:00	2024-11-06T10:00:00	4	Temperatura máxima	17
85131	7	Sololá	702	San José Chacayá	5	Chacayá	3	Marzo	2023-03-20T00:00:00	2024-11-06T10:00:00	3	Temperatura mínima	15.5
85132	7	Sololá	702	San José Chacayá	5	Chacayá	3	Marzo	2023-03-20T00:00:00	2024-11-06T10:00:00	5	Humedad	68
85133	7	Sololá	702	San José Chacayá	5	Chacayá	3	Marzo	2023-03-20T00:00:00	2024-11-06T10:00:00	6	Velocidad del viento	6.4
85134	7	Sololá	702	San José Chacayá	5	Chacayá	3	Marzo	2023-03-20T00:00:00	2024-11-06T10:00:00	7	Dirección del viento	6.44
85135	7	Sololá	702	San José Chacayá	5	Chacayá	3	Marzo	2023-03-20T00:00:00	2024-11-06T10:00:00	1	Precipitación	0
85136	7	Sololá	702	San José Chacayá	5	Chacayá	3	Marzo	2023-03-20T00:00:00	2024-11-06T10:00:00	8	Radiación solar	753
85137	7	Sololá	702	San José Chacayá	5	Chacayá	3	Marzo	2023-03-20T00:00:00	2024-11-06T11:00:00	2	Temperatura media	18.1
85138	7	Sololá	702	San José Chacayá	5	Chacayá	3	Marzo	2023-03-20T00:00:00	2024-11-06T11:00:00	4	Temperatura máxima	18.2
85139	7	Sololá	702	San José Chacayá	5	Chacayá	3	Marzo	2023-03-20T00:00:00	2024-11-06T11:00:00	3	Temperatura mínima	16.9
85140	7	Sololá	702	San José Chacayá	5	Chacayá	3	Marzo	2023-03-20T00:00:00	2024-11-06T11:00:00	5	Humedad	65
85141	7	Sololá	702	San José Chacayá	5	Chacayá	3	Marzo	2023-03-20T00:00:00	2024-11-06T11:00:00	6	Velocidad del viento	6.4
85142	7	Sololá	702	San José Chacayá	5	Chacayá	3	Marzo	2023-03-20T00:00:00	2024-11-06T11:00:00	7	Dirección del viento	6.44
85143	7	Sololá	702	San José Chacayá	5	Chacayá	3	Marzo	2023-03-20T00:00:00	2024-11-06T11:00:00	1	Precipitación	0
85144	7	Sololá	702	San José Chacayá	5	Chacayá	3	Marzo	2023-03-20T00:00:00	2024-11-06T11:00:00	8	Radiación solar	811
85145	7	Sololá	702	San José Chacayá	5	Chacayá	3	Marzo	2023-03-20T00:00:00	2024-11-06T12:00:00	2	Temperatura media	18.6
85146	7	Sololá	702	San José Chacayá	5	Chacayá	3	Marzo	2023-03-20T00:00:00	2024-11-06T12:00:00	4	Temperatura máxima	18.6
85147	7	Sololá	702	San José Chacayá	5	Chacayá	3	Marzo	2023-03-20T00:00:00	2024-11-06T12:00:00	3	Temperatura mínima	17.7
85148	7	Sololá	702	San José Chacayá	5	Chacayá	3	Marzo	2023-03-20T00:00:00	2024-11-06T12:00:00	5	Humedad	66
85149	7	Sololá	702	San José Chacayá	5	Chacayá	3	Marzo	2023-03-20T00:00:00	2024-11-06T12:00:00	6	Velocidad del viento	9.7
85150	7	Sololá	702	San José Chacayá	5	Chacayá	3	Marzo	2023-03-20T00:00:00	2024-11-06T12:00:00	7	Dirección del viento	9.66
85151	7	Sololá	702	San José Chacayá	5	Chacayá	3	Marzo	2023-03-20T00:00:00	2024-11-06T12:00:00	1	Precipitación	0
85152	7	Sololá	702	San José Chacayá	5	Chacayá	3	Marzo	2023-03-20T00:00:00	2024-11-06T12:00:00	8	Radiación solar	999
85153	7	Sololá	702	San José Chacayá	5	Chacayá	3	Marzo	2023-03-20T00:00:00	2024-11-06T13:00:00	2	Temperatura media	20.2
85154	7	Sololá	702	San José Chacayá	5	Chacayá	3	Marzo	2023-03-20T00:00:00	2024-11-06T13:00:00	4	Temperatura máxima	20.9
85155	7	Sololá	702	San José Chacayá	5	Chacayá	3	Marzo	2023-03-20T00:00:00	2024-11-06T13:00:00	3	Temperatura mínima	18.6
85156	7	Sololá	702	San José Chacayá	5	Chacayá	3	Marzo	2023-03-20T00:00:00	2024-11-06T13:00:00	5	Humedad	59
85157	7	Sololá	702	San José Chacayá	5	Chacayá	3	Marzo	2023-03-20T00:00:00	2024-11-06T13:00:00	6	Velocidad del viento	6.4
85158	7	Sololá	702	San José Chacayá	5	Chacayá	3	Marzo	2023-03-20T00:00:00	2024-11-06T13:00:00	7	Dirección del viento	6.44
85159	7	Sololá	702	San José Chacayá	5	Chacayá	3	Marzo	2023-03-20T00:00:00	2024-11-06T13:00:00	1	Precipitación	0
85160	7	Sololá	702	San José Chacayá	5	Chacayá	3	Marzo	2023-03-20T00:00:00	2024-11-06T13:00:00	8	Radiación solar	1049
85161	7	Sololá	702	San José Chacayá	5	Chacayá	3	Marzo	2023-03-20T00:00:00	2024-11-06T14:00:00	2	Temperatura media	20.4
85162	7	Sololá	702	San José Chacayá	5	Chacayá	3	Marzo	2023-03-20T00:00:00	2024-11-06T14:00:00	4	Temperatura máxima	21.7
85163	7	Sololá	702	San José Chacayá	5	Chacayá	3	Marzo	2023-03-20T00:00:00	2024-11-06T14:00:00	3	Temperatura mínima	20.2
85164	7	Sololá	702	San José Chacayá	5	Chacayá	3	Marzo	2023-03-20T00:00:00	2024-11-06T14:00:00	5	Humedad	61
85165	7	Sololá	702	San José Chacayá	5	Chacayá	3	Marzo	2023-03-20T00:00:00	2024-11-06T14:00:00	6	Velocidad del viento	8
85166	7	Sololá	702	San José Chacayá	5	Chacayá	3	Marzo	2023-03-20T00:00:00	2024-11-06T14:00:00	7	Dirección del viento	8.05
85167	7	Sololá	702	San José Chacayá	5	Chacayá	3	Marzo	2023-03-20T00:00:00	2024-11-06T14:00:00	1	Precipitación	0
85168	7	Sololá	702	San José Chacayá	5	Chacayá	3	Marzo	2023-03-20T00:00:00	2024-11-06T14:00:00	8	Radiación solar	776
85169	7	Sololá	702	San José Chacayá	5	Chacayá	3	Marzo	2023-03-20T00:00:00	2024-11-06T15:00:00	2	Temperatura media	20.1
85170	7	Sololá	702	San José Chacayá	5	Chacayá	3	Marzo	2023-03-20T00:00:00	2024-11-06T15:00:00	4	Temperatura máxima	20.8
85171	7	Sololá	702	San José Chacayá	5	Chacayá	3	Marzo	2023-03-20T00:00:00	2024-11-06T15:00:00	3	Temperatura mínima	19.8
85172	7	Sololá	702	San José Chacayá	5	Chacayá	3	Marzo	2023-03-20T00:00:00	2024-11-06T15:00:00	5	Humedad	61
85173	7	Sololá	702	San José Chacayá	5	Chacayá	3	Marzo	2023-03-20T00:00:00	2024-11-06T15:00:00	6	Velocidad del viento	8
85174	7	Sololá	702	San José Chacayá	5	Chacayá	3	Marzo	2023-03-20T00:00:00	2024-11-06T15:00:00	7	Dirección del viento	8.05
85175	7	Sololá	702	San José Chacayá	5	Chacayá	3	Marzo	2023-03-20T00:00:00	2024-11-06T15:00:00	1	Precipitación	0
85176	7	Sololá	702	San José Chacayá	5	Chacayá	3	Marzo	2023-03-20T00:00:00	2024-11-06T15:00:00	8	Radiación solar	465
85177	7	Sololá	702	San José Chacayá	5	Chacayá	3	Marzo	2023-03-20T00:00:00	2024-11-06T16:00:00	2	Temperatura media	19.3
85178	7	Sololá	702	San José Chacayá	5	Chacayá	3	Marzo	2023-03-20T00:00:00	2024-11-06T16:00:00	4	Temperatura máxima	21.1
85179	7	Sololá	702	San José Chacayá	5	Chacayá	3	Marzo	2023-03-20T00:00:00	2024-11-06T16:00:00	3	Temperatura mínima	19.3
85180	7	Sololá	702	San José Chacayá	5	Chacayá	3	Marzo	2023-03-20T00:00:00	2024-11-06T16:00:00	5	Humedad	61
85181	7	Sololá	702	San José Chacayá	5	Chacayá	3	Marzo	2023-03-20T00:00:00	2024-11-06T16:00:00	6	Velocidad del viento	6.4
85182	7	Sololá	702	San José Chacayá	5	Chacayá	3	Marzo	2023-03-20T00:00:00	2024-11-06T16:00:00	7	Dirección del viento	6.44
85183	7	Sololá	702	San José Chacayá	5	Chacayá	3	Marzo	2023-03-20T00:00:00	2024-11-06T16:00:00	1	Precipitación	0
85184	7	Sololá	702	San José Chacayá	5	Chacayá	3	Marzo	2023-03-20T00:00:00	2024-11-06T16:00:00	8	Radiación solar	104
85185	7	Sololá	702	San José Chacayá	5	Chacayá	3	Marzo	2023-03-20T00:00:00	2024-11-06T17:00:00	2	Temperatura media	17.3
85186	7	Sololá	702	San José Chacayá	5	Chacayá	3	Marzo	2023-03-20T00:00:00	2024-11-06T17:00:00	4	Temperatura máxima	19.3
85187	7	Sololá	702	San José Chacayá	5	Chacayá	3	Marzo	2023-03-20T00:00:00	2024-11-06T17:00:00	3	Temperatura mínima	17.3
85188	7	Sololá	702	San José Chacayá	5	Chacayá	3	Marzo	2023-03-20T00:00:00	2024-11-06T17:00:00	5	Humedad	70
85189	7	Sololá	702	San José Chacayá	5	Chacayá	3	Marzo	2023-03-20T00:00:00	2024-11-06T17:00:00	6	Velocidad del viento	3.2
85190	7	Sololá	702	San José Chacayá	5	Chacayá	3	Marzo	2023-03-20T00:00:00	2024-11-06T17:00:00	7	Dirección del viento	3.22
85191	7	Sololá	702	San José Chacayá	5	Chacayá	3	Marzo	2023-03-20T00:00:00	2024-11-06T17:00:00	1	Precipitación	0
85192	7	Sololá	702	San José Chacayá	5	Chacayá	3	Marzo	2023-03-20T00:00:00	2024-11-06T17:00:00	8	Radiación solar	22
85193	7	Sololá	702	San José Chacayá	5	Chacayá	3	Marzo	2023-03-20T00:00:00	2024-11-06T18:00:00	2	Temperatura media	15.7
85194	7	Sololá	702	San José Chacayá	5	Chacayá	3	Marzo	2023-03-20T00:00:00	2024-11-06T18:00:00	4	Temperatura máxima	17.3
85195	7	Sololá	702	San José Chacayá	5	Chacayá	3	Marzo	2023-03-20T00:00:00	2024-11-06T18:00:00	3	Temperatura mínima	15.7
85196	7	Sololá	702	San José Chacayá	5	Chacayá	3	Marzo	2023-03-20T00:00:00	2024-11-06T18:00:00	5	Humedad	77
85197	7	Sololá	702	San José Chacayá	5	Chacayá	3	Marzo	2023-03-20T00:00:00	2024-11-06T18:00:00	6	Velocidad del viento	4.8
85198	7	Sololá	702	San José Chacayá	5	Chacayá	3	Marzo	2023-03-20T00:00:00	2024-11-06T18:00:00	7	Dirección del viento	4.83
85199	7	Sololá	702	San José Chacayá	5	Chacayá	3	Marzo	2023-03-20T00:00:00	2024-11-06T18:00:00	1	Precipitación	0
85200	7	Sololá	702	San José Chacayá	5	Chacayá	3	Marzo	2023-03-20T00:00:00	2024-11-06T18:00:00	8	Radiación solar	15
85201	7	Sololá	702	San José Chacayá	5	Chacayá	3	Marzo	2023-03-20T00:00:00	2024-11-06T19:00:00	2	Temperatura media	15.1
85202	7	Sololá	702	San José Chacayá	5	Chacayá	3	Marzo	2023-03-20T00:00:00	2024-11-06T19:00:00	4	Temperatura máxima	15.7
85203	7	Sololá	702	San José Chacayá	5	Chacayá	3	Marzo	2023-03-20T00:00:00	2024-11-06T19:00:00	3	Temperatura mínima	15
85204	7	Sololá	702	San José Chacayá	5	Chacayá	3	Marzo	2023-03-20T00:00:00	2024-11-06T19:00:00	5	Humedad	79
85205	7	Sololá	702	San José Chacayá	5	Chacayá	3	Marzo	2023-03-20T00:00:00	2024-11-06T19:00:00	6	Velocidad del viento	3.2
85206	7	Sololá	702	San José Chacayá	5	Chacayá	3	Marzo	2023-03-20T00:00:00	2024-11-06T19:00:00	7	Dirección del viento	3.22
85207	7	Sololá	702	San José Chacayá	5	Chacayá	3	Marzo	2023-03-20T00:00:00	2024-11-06T19:00:00	1	Precipitación	0
85208	7	Sololá	702	San José Chacayá	5	Chacayá	3	Marzo	2023-03-20T00:00:00	2024-11-06T19:00:00	8	Radiación solar	0
85209	7	Sololá	702	San José Chacayá	5	Chacayá	3	Marzo	2023-03-20T00:00:00	2024-11-06T20:00:00	2	Temperatura media	14.3
85210	7	Sololá	702	San José Chacayá	5	Chacayá	3	Marzo	2023-03-20T00:00:00	2024-11-06T20:00:00	4	Temperatura máxima	15.1
85211	7	Sololá	702	San José Chacayá	5	Chacayá	3	Marzo	2023-03-20T00:00:00	2024-11-06T20:00:00	3	Temperatura mínima	14.2
85212	7	Sololá	702	San José Chacayá	5	Chacayá	3	Marzo	2023-03-20T00:00:00	2024-11-06T20:00:00	5	Humedad	79
85213	7	Sololá	702	San José Chacayá	5	Chacayá	3	Marzo	2023-03-20T00:00:00	2024-11-06T20:00:00	6	Velocidad del viento	4.8
85214	7	Sololá	702	San José Chacayá	5	Chacayá	3	Marzo	2023-03-20T00:00:00	2024-11-06T20:00:00	7	Dirección del viento	4.83
85215	7	Sololá	702	San José Chacayá	5	Chacayá	3	Marzo	2023-03-20T00:00:00	2024-11-06T20:00:00	1	Precipitación	0
85216	7	Sololá	702	San José Chacayá	5	Chacayá	3	Marzo	2023-03-20T00:00:00	2024-11-06T20:00:00	8	Radiación solar	0
85217	7	Sololá	702	San José Chacayá	5	Chacayá	3	Marzo	2023-03-20T00:00:00	2024-11-06T21:00:00	2	Temperatura media	14.1
85218	7	Sololá	702	San José Chacayá	5	Chacayá	3	Marzo	2023-03-20T00:00:00	2024-11-06T21:00:00	4	Temperatura máxima	14.3
85219	7	Sololá	702	San José Chacayá	5	Chacayá	3	Marzo	2023-03-20T00:00:00	2024-11-06T21:00:00	3	Temperatura mínima	14
85220	7	Sololá	702	San José Chacayá	5	Chacayá	3	Marzo	2023-03-20T00:00:00	2024-11-06T21:00:00	5	Humedad	77
85221	7	Sololá	702	San José Chacayá	5	Chacayá	3	Marzo	2023-03-20T00:00:00	2024-11-06T21:00:00	6	Velocidad del viento	4.8
85222	7	Sololá	702	San José Chacayá	5	Chacayá	3	Marzo	2023-03-20T00:00:00	2024-11-06T21:00:00	7	Dirección del viento	4.83
85223	7	Sololá	702	San José Chacayá	5	Chacayá	3	Marzo	2023-03-20T00:00:00	2024-11-06T21:00:00	1	Precipitación	0
85224	7	Sololá	702	San José Chacayá	5	Chacayá	3	Marzo	2023-03-20T00:00:00	2024-11-06T21:00:00	8	Radiación solar	0
85225	7	Sololá	702	San José Chacayá	5	Chacayá	3	Marzo	2023-03-20T00:00:00	2024-11-06T22:00:00	2	Temperatura media	13.8
85226	7	Sololá	702	San José Chacayá	5	Chacayá	3	Marzo	2023-03-20T00:00:00	2024-11-06T22:00:00	4	Temperatura máxima	14.2
85227	7	Sololá	702	San José Chacayá	5	Chacayá	3	Marzo	2023-03-20T00:00:00	2024-11-06T22:00:00	3	Temperatura mínima	13.7
85228	7	Sololá	702	San José Chacayá	5	Chacayá	3	Marzo	2023-03-20T00:00:00	2024-11-06T22:00:00	5	Humedad	77
85229	7	Sololá	702	San José Chacayá	5	Chacayá	3	Marzo	2023-03-20T00:00:00	2024-11-06T22:00:00	6	Velocidad del viento	3.2
85230	7	Sololá	702	San José Chacayá	5	Chacayá	3	Marzo	2023-03-20T00:00:00	2024-11-06T22:00:00	7	Dirección del viento	3.22
85231	7	Sololá	702	San José Chacayá	5	Chacayá	3	Marzo	2023-03-20T00:00:00	2024-11-06T22:00:00	1	Precipitación	0
85232	7	Sololá	702	San José Chacayá	5	Chacayá	3	Marzo	2023-03-20T00:00:00	2024-11-06T22:00:00	8	Radiación solar	0
85233	7	Sololá	702	San José Chacayá	5	Chacayá	3	Marzo	2023-03-20T00:00:00	2024-11-06T23:00:00	2	Temperatura media	14
85234	7	Sololá	702	San José Chacayá	5	Chacayá	3	Marzo	2023-03-20T00:00:00	2024-11-06T23:00:00	4	Temperatura máxima	14.1
85235	7	Sololá	702	San José Chacayá	5	Chacayá	3	Marzo	2023-03-20T00:00:00	2024-11-06T23:00:00	3	Temperatura mínima	13.6
85236	7	Sololá	702	San José Chacayá	5	Chacayá	3	Marzo	2023-03-20T00:00:00	2024-11-06T23:00:00	5	Humedad	78
85237	7	Sololá	702	San José Chacayá	5	Chacayá	3	Marzo	2023-03-20T00:00:00	2024-11-06T23:00:00	6	Velocidad del viento	3.2
85238	7	Sololá	702	San José Chacayá	5	Chacayá	3	Marzo	2023-03-20T00:00:00	2024-11-06T23:00:00	7	Dirección del viento	3.22
85239	7	Sololá	702	San José Chacayá	5	Chacayá	3	Marzo	2023-03-20T00:00:00	2024-11-06T23:00:00	1	Precipitación	0
85240	7	Sololá	702	San José Chacayá	5	Chacayá	3	Marzo	2023-03-20T00:00:00	2024-11-06T23:00:00	8	Radiación solar	0
85241	7	Sololá	702	San José Chacayá	5	Chacayá	3	Marzo	2023-03-21T00:00:00	2024-11-06T00:00:00	2	Temperatura media	13.8
85242	7	Sololá	702	San José Chacayá	5	Chacayá	3	Marzo	2023-03-21T00:00:00	2024-11-06T00:00:00	4	Temperatura máxima	14.2
85243	7	Sololá	702	San José Chacayá	5	Chacayá	3	Marzo	2023-03-21T00:00:00	2024-11-06T00:00:00	3	Temperatura mínima	13.3
85244	7	Sololá	702	San José Chacayá	5	Chacayá	3	Marzo	2023-03-21T00:00:00	2024-11-06T00:00:00	5	Humedad	77
85245	7	Sololá	702	San José Chacayá	5	Chacayá	3	Marzo	2023-03-21T00:00:00	2024-11-06T00:00:00	6	Velocidad del viento	1.6
85246	7	Sololá	702	San José Chacayá	5	Chacayá	3	Marzo	2023-03-21T00:00:00	2024-11-06T00:00:00	7	Dirección del viento	1.61
85247	7	Sololá	702	San José Chacayá	5	Chacayá	3	Marzo	2023-03-21T00:00:00	2024-11-06T00:00:00	1	Precipitación	0
85248	7	Sololá	702	San José Chacayá	5	Chacayá	3	Marzo	2023-03-21T00:00:00	2024-11-06T00:00:00	8	Radiación solar	0
85249	7	Sololá	702	San José Chacayá	5	Chacayá	3	Marzo	2023-03-21T00:00:00	2024-11-06T01:00:00	2	Temperatura media	14.3
85250	7	Sololá	702	San José Chacayá	5	Chacayá	3	Marzo	2023-03-21T00:00:00	2024-11-06T01:00:00	4	Temperatura máxima	14.3
85251	7	Sololá	702	San José Chacayá	5	Chacayá	3	Marzo	2023-03-21T00:00:00	2024-11-06T01:00:00	3	Temperatura mínima	13.7
85252	7	Sololá	702	San José Chacayá	5	Chacayá	3	Marzo	2023-03-21T00:00:00	2024-11-06T01:00:00	5	Humedad	78
85253	7	Sololá	702	San José Chacayá	5	Chacayá	3	Marzo	2023-03-21T00:00:00	2024-11-06T01:00:00	6	Velocidad del viento	3.2
85254	7	Sololá	702	San José Chacayá	5	Chacayá	3	Marzo	2023-03-21T00:00:00	2024-11-06T01:00:00	7	Dirección del viento	3.22
85255	7	Sololá	702	San José Chacayá	5	Chacayá	3	Marzo	2023-03-21T00:00:00	2024-11-06T01:00:00	1	Precipitación	0
85256	7	Sololá	702	San José Chacayá	5	Chacayá	3	Marzo	2023-03-21T00:00:00	2024-11-06T01:00:00	8	Radiación solar	0
85257	7	Sololá	702	San José Chacayá	5	Chacayá	3	Marzo	2023-03-21T00:00:00	2024-11-06T02:00:00	2	Temperatura media	13.8
85258	7	Sololá	702	San José Chacayá	5	Chacayá	3	Marzo	2023-03-21T00:00:00	2024-11-06T02:00:00	4	Temperatura máxima	14.3
85259	7	Sololá	702	San José Chacayá	5	Chacayá	3	Marzo	2023-03-21T00:00:00	2024-11-06T02:00:00	3	Temperatura mínima	13.6
85260	7	Sololá	702	San José Chacayá	5	Chacayá	3	Marzo	2023-03-21T00:00:00	2024-11-06T02:00:00	5	Humedad	79
85261	7	Sololá	702	San José Chacayá	5	Chacayá	3	Marzo	2023-03-21T00:00:00	2024-11-06T02:00:00	6	Velocidad del viento	1.6
85262	7	Sololá	702	San José Chacayá	5	Chacayá	3	Marzo	2023-03-21T00:00:00	2024-11-06T02:00:00	7	Dirección del viento	1.61
85263	7	Sololá	702	San José Chacayá	5	Chacayá	3	Marzo	2023-03-21T00:00:00	2024-11-06T02:00:00	1	Precipitación	0
85264	7	Sololá	702	San José Chacayá	5	Chacayá	3	Marzo	2023-03-21T00:00:00	2024-11-06T02:00:00	8	Radiación solar	0
85265	7	Sololá	702	San José Chacayá	5	Chacayá	3	Marzo	2023-03-21T00:00:00	2024-11-06T03:00:00	2	Temperatura media	14.6
85266	7	Sololá	702	San José Chacayá	5	Chacayá	3	Marzo	2023-03-21T00:00:00	2024-11-06T03:00:00	4	Temperatura máxima	14.7
85267	7	Sololá	702	San José Chacayá	5	Chacayá	3	Marzo	2023-03-21T00:00:00	2024-11-06T03:00:00	3	Temperatura mínima	13.8
85268	7	Sololá	702	San José Chacayá	5	Chacayá	3	Marzo	2023-03-21T00:00:00	2024-11-06T03:00:00	5	Humedad	75
85269	7	Sololá	702	San José Chacayá	5	Chacayá	3	Marzo	2023-03-21T00:00:00	2024-11-06T03:00:00	6	Velocidad del viento	4.8
85270	7	Sololá	702	San José Chacayá	5	Chacayá	3	Marzo	2023-03-21T00:00:00	2024-11-06T03:00:00	7	Dirección del viento	4.83
85271	7	Sololá	702	San José Chacayá	5	Chacayá	3	Marzo	2023-03-21T00:00:00	2024-11-06T03:00:00	1	Precipitación	0
85272	7	Sololá	702	San José Chacayá	5	Chacayá	3	Marzo	2023-03-21T00:00:00	2024-11-06T03:00:00	8	Radiación solar	0
85273	7	Sololá	702	San José Chacayá	5	Chacayá	3	Marzo	2023-03-21T00:00:00	2024-11-06T04:00:00	2	Temperatura media	13.9
85274	7	Sololá	702	San José Chacayá	5	Chacayá	3	Marzo	2023-03-21T00:00:00	2024-11-06T04:00:00	4	Temperatura máxima	14.6
85275	7	Sololá	702	San José Chacayá	5	Chacayá	3	Marzo	2023-03-21T00:00:00	2024-11-06T04:00:00	3	Temperatura mínima	13.6
85276	7	Sololá	702	San José Chacayá	5	Chacayá	3	Marzo	2023-03-21T00:00:00	2024-11-06T04:00:00	5	Humedad	76
85277	7	Sololá	702	San José Chacayá	5	Chacayá	3	Marzo	2023-03-21T00:00:00	2024-11-06T04:00:00	6	Velocidad del viento	3.2
85278	7	Sololá	702	San José Chacayá	5	Chacayá	3	Marzo	2023-03-21T00:00:00	2024-11-06T04:00:00	7	Dirección del viento	3.22
85279	7	Sololá	702	San José Chacayá	5	Chacayá	3	Marzo	2023-03-21T00:00:00	2024-11-06T04:00:00	1	Precipitación	0
85280	7	Sololá	702	San José Chacayá	5	Chacayá	3	Marzo	2023-03-21T00:00:00	2024-11-06T04:00:00	8	Radiación solar	0
85281	7	Sololá	702	San José Chacayá	5	Chacayá	3	Marzo	2023-03-21T00:00:00	2024-11-06T05:00:00	2	Temperatura media	12.7
85282	7	Sololá	702	San José Chacayá	5	Chacayá	3	Marzo	2023-03-21T00:00:00	2024-11-06T05:00:00	4	Temperatura máxima	14.2
85283	7	Sololá	702	San José Chacayá	5	Chacayá	3	Marzo	2023-03-21T00:00:00	2024-11-06T05:00:00	3	Temperatura mínima	12.7
85284	7	Sololá	702	San José Chacayá	5	Chacayá	3	Marzo	2023-03-21T00:00:00	2024-11-06T05:00:00	5	Humedad	80
85285	7	Sololá	702	San José Chacayá	5	Chacayá	3	Marzo	2023-03-21T00:00:00	2024-11-06T05:00:00	6	Velocidad del viento	4.8
85286	7	Sololá	702	San José Chacayá	5	Chacayá	3	Marzo	2023-03-21T00:00:00	2024-11-06T05:00:00	7	Dirección del viento	4.83
85287	7	Sololá	702	San José Chacayá	5	Chacayá	3	Marzo	2023-03-21T00:00:00	2024-11-06T05:00:00	1	Precipitación	0
85288	7	Sololá	702	San José Chacayá	5	Chacayá	3	Marzo	2023-03-21T00:00:00	2024-11-06T05:00:00	8	Radiación solar	0
85289	7	Sololá	702	San José Chacayá	5	Chacayá	3	Marzo	2023-03-21T00:00:00	2024-11-06T06:00:00	2	Temperatura media	13.3
85290	7	Sololá	702	San José Chacayá	5	Chacayá	3	Marzo	2023-03-21T00:00:00	2024-11-06T06:00:00	4	Temperatura máxima	13.3
85291	7	Sololá	702	San José Chacayá	5	Chacayá	3	Marzo	2023-03-21T00:00:00	2024-11-06T06:00:00	3	Temperatura mínima	11.1
85292	7	Sololá	702	San José Chacayá	5	Chacayá	3	Marzo	2023-03-21T00:00:00	2024-11-06T06:00:00	5	Humedad	81
85293	7	Sololá	702	San José Chacayá	5	Chacayá	3	Marzo	2023-03-21T00:00:00	2024-11-06T06:00:00	6	Velocidad del viento	1.6
85294	7	Sololá	702	San José Chacayá	5	Chacayá	3	Marzo	2023-03-21T00:00:00	2024-11-06T06:00:00	7	Dirección del viento	1.61
85295	7	Sololá	702	San José Chacayá	5	Chacayá	3	Marzo	2023-03-21T00:00:00	2024-11-06T06:00:00	1	Precipitación	0
85296	7	Sololá	702	San José Chacayá	5	Chacayá	3	Marzo	2023-03-21T00:00:00	2024-11-06T06:00:00	8	Radiación solar	0
85297	7	Sololá	702	San José Chacayá	5	Chacayá	3	Marzo	2023-03-21T00:00:00	2024-11-06T07:00:00	2	Temperatura media	13.6
85298	7	Sololá	702	San José Chacayá	5	Chacayá	3	Marzo	2023-03-21T00:00:00	2024-11-06T07:00:00	4	Temperatura máxima	13.9
85299	7	Sololá	702	San José Chacayá	5	Chacayá	3	Marzo	2023-03-21T00:00:00	2024-11-06T07:00:00	3	Temperatura mínima	13.3
85300	7	Sololá	702	San José Chacayá	5	Chacayá	3	Marzo	2023-03-21T00:00:00	2024-11-06T07:00:00	5	Humedad	78
85301	7	Sololá	702	San José Chacayá	5	Chacayá	3	Marzo	2023-03-21T00:00:00	2024-11-06T07:00:00	6	Velocidad del viento	3.2
85302	7	Sololá	702	San José Chacayá	5	Chacayá	3	Marzo	2023-03-21T00:00:00	2024-11-06T07:00:00	7	Dirección del viento	3.22
85303	7	Sololá	702	San José Chacayá	5	Chacayá	3	Marzo	2023-03-21T00:00:00	2024-11-06T07:00:00	1	Precipitación	0
85304	7	Sololá	702	San José Chacayá	5	Chacayá	3	Marzo	2023-03-21T00:00:00	2024-11-06T07:00:00	8	Radiación solar	30
85305	7	Sololá	702	San José Chacayá	5	Chacayá	3	Marzo	2023-03-21T00:00:00	2024-11-06T08:00:00	2	Temperatura media	14.8
85306	7	Sololá	702	San José Chacayá	5	Chacayá	3	Marzo	2023-03-21T00:00:00	2024-11-06T08:00:00	4	Temperatura máxima	14.8
85307	7	Sololá	702	San José Chacayá	5	Chacayá	3	Marzo	2023-03-21T00:00:00	2024-11-06T08:00:00	3	Temperatura mínima	13.2
85308	7	Sololá	702	San José Chacayá	5	Chacayá	3	Marzo	2023-03-21T00:00:00	2024-11-06T08:00:00	5	Humedad	76
85309	7	Sololá	702	San José Chacayá	5	Chacayá	3	Marzo	2023-03-21T00:00:00	2024-11-06T08:00:00	6	Velocidad del viento	4.8
85310	7	Sololá	702	San José Chacayá	5	Chacayá	3	Marzo	2023-03-21T00:00:00	2024-11-06T08:00:00	7	Dirección del viento	4.83
85311	7	Sololá	702	San José Chacayá	5	Chacayá	3	Marzo	2023-03-21T00:00:00	2024-11-06T08:00:00	1	Precipitación	0
85312	7	Sololá	702	San José Chacayá	5	Chacayá	3	Marzo	2023-03-21T00:00:00	2024-11-06T08:00:00	8	Radiación solar	129
85313	7	Sololá	702	San José Chacayá	5	Chacayá	3	Marzo	2023-03-21T00:00:00	2024-11-06T09:00:00	2	Temperatura media	16.5
85314	7	Sololá	702	San José Chacayá	5	Chacayá	3	Marzo	2023-03-21T00:00:00	2024-11-06T09:00:00	4	Temperatura máxima	16.5
85315	7	Sololá	702	San José Chacayá	5	Chacayá	3	Marzo	2023-03-21T00:00:00	2024-11-06T09:00:00	3	Temperatura mínima	14.8
85316	7	Sololá	702	San José Chacayá	5	Chacayá	3	Marzo	2023-03-21T00:00:00	2024-11-06T09:00:00	5	Humedad	72
85317	7	Sololá	702	San José Chacayá	5	Chacayá	3	Marzo	2023-03-21T00:00:00	2024-11-06T09:00:00	6	Velocidad del viento	6.4
85318	7	Sololá	702	San José Chacayá	5	Chacayá	3	Marzo	2023-03-21T00:00:00	2024-11-06T09:00:00	7	Dirección del viento	6.44
85319	7	Sololá	702	San José Chacayá	5	Chacayá	3	Marzo	2023-03-21T00:00:00	2024-11-06T09:00:00	1	Precipitación	0
85320	7	Sololá	702	San José Chacayá	5	Chacayá	3	Marzo	2023-03-21T00:00:00	2024-11-06T09:00:00	8	Radiación solar	446
85321	7	Sololá	702	San José Chacayá	5	Chacayá	3	Marzo	2023-03-21T00:00:00	2024-11-06T10:00:00	2	Temperatura media	17.9
85322	7	Sololá	702	San José Chacayá	5	Chacayá	3	Marzo	2023-03-21T00:00:00	2024-11-06T10:00:00	4	Temperatura máxima	18
85323	7	Sololá	702	San José Chacayá	5	Chacayá	3	Marzo	2023-03-21T00:00:00	2024-11-06T10:00:00	3	Temperatura mínima	16.5
85324	7	Sololá	702	San José Chacayá	5	Chacayá	3	Marzo	2023-03-21T00:00:00	2024-11-06T10:00:00	5	Humedad	66
85325	7	Sololá	702	San José Chacayá	5	Chacayá	3	Marzo	2023-03-21T00:00:00	2024-11-06T10:00:00	6	Velocidad del viento	6.4
85326	7	Sololá	702	San José Chacayá	5	Chacayá	3	Marzo	2023-03-21T00:00:00	2024-11-06T10:00:00	7	Dirección del viento	6.44
85327	7	Sololá	702	San José Chacayá	5	Chacayá	3	Marzo	2023-03-21T00:00:00	2024-11-06T10:00:00	1	Precipitación	0
85328	7	Sololá	702	San José Chacayá	5	Chacayá	3	Marzo	2023-03-21T00:00:00	2024-11-06T10:00:00	8	Radiación solar	773
85329	7	Sololá	702	San José Chacayá	5	Chacayá	3	Marzo	2023-03-21T00:00:00	2024-11-06T11:00:00	2	Temperatura media	19.4
85330	7	Sololá	702	San José Chacayá	5	Chacayá	3	Marzo	2023-03-21T00:00:00	2024-11-06T11:00:00	4	Temperatura máxima	19.4
85331	7	Sololá	702	San José Chacayá	5	Chacayá	3	Marzo	2023-03-21T00:00:00	2024-11-06T11:00:00	3	Temperatura mínima	17.7
85332	7	Sololá	702	San José Chacayá	5	Chacayá	3	Marzo	2023-03-21T00:00:00	2024-11-06T11:00:00	5	Humedad	64
85333	7	Sololá	702	San José Chacayá	5	Chacayá	3	Marzo	2023-03-21T00:00:00	2024-11-06T11:00:00	6	Velocidad del viento	4.8
85334	7	Sololá	702	San José Chacayá	5	Chacayá	3	Marzo	2023-03-21T00:00:00	2024-11-06T11:00:00	7	Dirección del viento	4.83
85335	7	Sololá	702	San José Chacayá	5	Chacayá	3	Marzo	2023-03-21T00:00:00	2024-11-06T11:00:00	1	Precipitación	0
85336	7	Sololá	702	San José Chacayá	5	Chacayá	3	Marzo	2023-03-21T00:00:00	2024-11-06T11:00:00	8	Radiación solar	847
85337	7	Sololá	702	San José Chacayá	5	Chacayá	3	Marzo	2023-03-21T00:00:00	2024-11-06T12:00:00	2	Temperatura media	20.1
85338	7	Sololá	702	San José Chacayá	5	Chacayá	3	Marzo	2023-03-21T00:00:00	2024-11-06T12:00:00	4	Temperatura máxima	20.4
85339	7	Sololá	702	San José Chacayá	5	Chacayá	3	Marzo	2023-03-21T00:00:00	2024-11-06T12:00:00	3	Temperatura mínima	19.4
85340	7	Sololá	702	San José Chacayá	5	Chacayá	3	Marzo	2023-03-21T00:00:00	2024-11-06T12:00:00	5	Humedad	61
85341	7	Sololá	702	San José Chacayá	5	Chacayá	3	Marzo	2023-03-21T00:00:00	2024-11-06T12:00:00	6	Velocidad del viento	6.4
85342	7	Sololá	702	San José Chacayá	5	Chacayá	3	Marzo	2023-03-21T00:00:00	2024-11-06T12:00:00	7	Dirección del viento	6.44
85343	7	Sololá	702	San José Chacayá	5	Chacayá	3	Marzo	2023-03-21T00:00:00	2024-11-06T12:00:00	1	Precipitación	0
85344	7	Sololá	702	San José Chacayá	5	Chacayá	3	Marzo	2023-03-21T00:00:00	2024-11-06T12:00:00	8	Radiación solar	1006
85345	7	Sololá	702	San José Chacayá	5	Chacayá	3	Marzo	2023-03-21T00:00:00	2024-11-06T13:00:00	2	Temperatura media	20.8
85346	7	Sololá	702	San José Chacayá	5	Chacayá	3	Marzo	2023-03-21T00:00:00	2024-11-06T13:00:00	4	Temperatura máxima	21.8
85347	7	Sololá	702	San José Chacayá	5	Chacayá	3	Marzo	2023-03-21T00:00:00	2024-11-06T13:00:00	3	Temperatura mínima	20.1
85348	7	Sololá	702	San José Chacayá	5	Chacayá	3	Marzo	2023-03-21T00:00:00	2024-11-06T13:00:00	5	Humedad	55
85349	7	Sololá	702	San José Chacayá	5	Chacayá	3	Marzo	2023-03-21T00:00:00	2024-11-06T13:00:00	6	Velocidad del viento	4.8
85350	7	Sololá	702	San José Chacayá	5	Chacayá	3	Marzo	2023-03-21T00:00:00	2024-11-06T13:00:00	7	Dirección del viento	4.83
85351	7	Sololá	702	San José Chacayá	5	Chacayá	3	Marzo	2023-03-21T00:00:00	2024-11-06T13:00:00	1	Precipitación	0
85352	7	Sololá	702	San José Chacayá	5	Chacayá	3	Marzo	2023-03-21T00:00:00	2024-11-06T13:00:00	8	Radiación solar	817
85353	7	Sololá	702	San José Chacayá	5	Chacayá	3	Marzo	2023-03-21T00:00:00	2024-11-06T14:00:00	2	Temperatura media	20.8
85354	7	Sololá	702	San José Chacayá	5	Chacayá	3	Marzo	2023-03-21T00:00:00	2024-11-06T14:00:00	4	Temperatura máxima	21.1
85355	7	Sololá	702	San José Chacayá	5	Chacayá	3	Marzo	2023-03-21T00:00:00	2024-11-06T14:00:00	3	Temperatura mínima	20.1
85356	7	Sololá	702	San José Chacayá	5	Chacayá	3	Marzo	2023-03-21T00:00:00	2024-11-06T14:00:00	5	Humedad	52
85357	7	Sololá	702	San José Chacayá	5	Chacayá	3	Marzo	2023-03-21T00:00:00	2024-11-06T14:00:00	6	Velocidad del viento	4.8
85358	7	Sololá	702	San José Chacayá	5	Chacayá	3	Marzo	2023-03-21T00:00:00	2024-11-06T14:00:00	7	Dirección del viento	4.83
85359	7	Sololá	702	San José Chacayá	5	Chacayá	3	Marzo	2023-03-21T00:00:00	2024-11-06T14:00:00	1	Precipitación	0
85360	7	Sololá	702	San José Chacayá	5	Chacayá	3	Marzo	2023-03-21T00:00:00	2024-11-06T14:00:00	8	Radiación solar	364
85361	7	Sololá	702	San José Chacayá	5	Chacayá	3	Marzo	2023-03-21T00:00:00	2024-11-06T15:00:00	2	Temperatura media	19.1
85362	7	Sololá	702	San José Chacayá	5	Chacayá	3	Marzo	2023-03-21T00:00:00	2024-11-06T15:00:00	4	Temperatura máxima	21.1
85363	7	Sololá	702	San José Chacayá	5	Chacayá	3	Marzo	2023-03-21T00:00:00	2024-11-06T15:00:00	3	Temperatura mínima	19.1
85364	7	Sololá	702	San José Chacayá	5	Chacayá	3	Marzo	2023-03-21T00:00:00	2024-11-06T15:00:00	5	Humedad	58
85365	7	Sololá	702	San José Chacayá	5	Chacayá	3	Marzo	2023-03-21T00:00:00	2024-11-06T15:00:00	6	Velocidad del viento	4.8
85366	7	Sololá	702	San José Chacayá	5	Chacayá	3	Marzo	2023-03-21T00:00:00	2024-11-06T15:00:00	7	Dirección del viento	4.83
85367	7	Sololá	702	San José Chacayá	5	Chacayá	3	Marzo	2023-03-21T00:00:00	2024-11-06T15:00:00	1	Precipitación	0
85368	7	Sololá	702	San José Chacayá	5	Chacayá	3	Marzo	2023-03-21T00:00:00	2024-11-06T15:00:00	8	Radiación solar	385
85369	7	Sololá	702	San José Chacayá	5	Chacayá	3	Marzo	2023-03-21T00:00:00	2024-11-06T16:00:00	2	Temperatura media	19.9
85370	7	Sololá	702	San José Chacayá	5	Chacayá	3	Marzo	2023-03-21T00:00:00	2024-11-06T16:00:00	4	Temperatura máxima	19.9
85371	7	Sololá	702	San José Chacayá	5	Chacayá	3	Marzo	2023-03-21T00:00:00	2024-11-06T16:00:00	3	Temperatura mínima	18.9
85372	7	Sololá	702	San José Chacayá	5	Chacayá	3	Marzo	2023-03-21T00:00:00	2024-11-06T16:00:00	5	Humedad	60
85373	7	Sololá	702	San José Chacayá	5	Chacayá	3	Marzo	2023-03-21T00:00:00	2024-11-06T16:00:00	6	Velocidad del viento	4.8
85374	7	Sololá	702	San José Chacayá	5	Chacayá	3	Marzo	2023-03-21T00:00:00	2024-11-06T16:00:00	7	Dirección del viento	4.83
85375	7	Sololá	702	San José Chacayá	5	Chacayá	3	Marzo	2023-03-21T00:00:00	2024-11-06T16:00:00	1	Precipitación	0
85376	7	Sololá	702	San José Chacayá	5	Chacayá	3	Marzo	2023-03-21T00:00:00	2024-11-06T16:00:00	8	Radiación solar	342
85377	7	Sololá	702	San José Chacayá	5	Chacayá	3	Marzo	2023-03-21T00:00:00	2024-11-06T17:00:00	2	Temperatura media	19
85378	7	Sololá	702	San José Chacayá	5	Chacayá	3	Marzo	2023-03-21T00:00:00	2024-11-06T17:00:00	4	Temperatura máxima	20.6
85379	7	Sololá	702	San José Chacayá	5	Chacayá	3	Marzo	2023-03-21T00:00:00	2024-11-06T17:00:00	3	Temperatura mínima	19
85380	7	Sololá	702	San José Chacayá	5	Chacayá	3	Marzo	2023-03-21T00:00:00	2024-11-06T17:00:00	5	Humedad	62
85381	7	Sololá	702	San José Chacayá	5	Chacayá	3	Marzo	2023-03-21T00:00:00	2024-11-06T17:00:00	6	Velocidad del viento	4.8
85382	7	Sololá	702	San José Chacayá	5	Chacayá	3	Marzo	2023-03-21T00:00:00	2024-11-06T17:00:00	7	Dirección del viento	4.83
85383	7	Sololá	702	San José Chacayá	5	Chacayá	3	Marzo	2023-03-21T00:00:00	2024-11-06T17:00:00	1	Precipitación	0
85384	7	Sololá	702	San José Chacayá	5	Chacayá	3	Marzo	2023-03-21T00:00:00	2024-11-06T17:00:00	8	Radiación solar	144
85385	7	Sololá	702	San José Chacayá	5	Chacayá	3	Marzo	2023-03-21T00:00:00	2024-11-06T18:00:00	2	Temperatura media	17.9
85386	7	Sololá	702	San José Chacayá	5	Chacayá	3	Marzo	2023-03-21T00:00:00	2024-11-06T18:00:00	4	Temperatura máxima	19.2
85387	7	Sololá	702	San José Chacayá	5	Chacayá	3	Marzo	2023-03-21T00:00:00	2024-11-06T18:00:00	3	Temperatura mínima	17.9
85388	7	Sololá	702	San José Chacayá	5	Chacayá	3	Marzo	2023-03-21T00:00:00	2024-11-06T18:00:00	5	Humedad	64
85389	7	Sololá	702	San José Chacayá	5	Chacayá	3	Marzo	2023-03-21T00:00:00	2024-11-06T18:00:00	6	Velocidad del viento	4.8
85390	7	Sololá	702	San José Chacayá	5	Chacayá	3	Marzo	2023-03-21T00:00:00	2024-11-06T18:00:00	7	Dirección del viento	4.83
85391	7	Sololá	702	San José Chacayá	5	Chacayá	3	Marzo	2023-03-21T00:00:00	2024-11-06T18:00:00	1	Precipitación	0
85392	7	Sololá	702	San José Chacayá	5	Chacayá	3	Marzo	2023-03-21T00:00:00	2024-11-06T18:00:00	8	Radiación solar	48
85393	7	Sololá	702	San José Chacayá	5	Chacayá	3	Marzo	2023-03-21T00:00:00	2024-11-06T19:00:00	2	Temperatura media	16.8
85394	7	Sololá	702	San José Chacayá	5	Chacayá	3	Marzo	2023-03-21T00:00:00	2024-11-06T19:00:00	4	Temperatura máxima	17.9
85395	7	Sololá	702	San José Chacayá	5	Chacayá	3	Marzo	2023-03-21T00:00:00	2024-11-06T19:00:00	3	Temperatura mínima	16.8
85396	7	Sololá	702	San José Chacayá	5	Chacayá	3	Marzo	2023-03-21T00:00:00	2024-11-06T19:00:00	5	Humedad	71
85397	7	Sololá	702	San José Chacayá	5	Chacayá	3	Marzo	2023-03-21T00:00:00	2024-11-06T19:00:00	6	Velocidad del viento	3.2
85398	7	Sololá	702	San José Chacayá	5	Chacayá	3	Marzo	2023-03-21T00:00:00	2024-11-06T19:00:00	7	Dirección del viento	3.22
85399	7	Sololá	702	San José Chacayá	5	Chacayá	3	Marzo	2023-03-21T00:00:00	2024-11-06T19:00:00	1	Precipitación	0
85400	7	Sololá	702	San José Chacayá	5	Chacayá	3	Marzo	2023-03-21T00:00:00	2024-11-06T19:00:00	8	Radiación solar	0
85401	7	Sololá	702	San José Chacayá	5	Chacayá	3	Marzo	2023-03-21T00:00:00	2024-11-06T20:00:00	2	Temperatura media	15.5
85402	7	Sololá	702	San José Chacayá	5	Chacayá	3	Marzo	2023-03-21T00:00:00	2024-11-06T20:00:00	4	Temperatura máxima	16.8
85403	7	Sololá	702	San José Chacayá	5	Chacayá	3	Marzo	2023-03-21T00:00:00	2024-11-06T20:00:00	3	Temperatura mínima	15.5
85404	7	Sololá	702	San José Chacayá	5	Chacayá	3	Marzo	2023-03-21T00:00:00	2024-11-06T20:00:00	5	Humedad	77
85405	7	Sololá	702	San José Chacayá	5	Chacayá	3	Marzo	2023-03-21T00:00:00	2024-11-06T20:00:00	6	Velocidad del viento	1.6
85406	7	Sololá	702	San José Chacayá	5	Chacayá	3	Marzo	2023-03-21T00:00:00	2024-11-06T20:00:00	7	Dirección del viento	1.61
85407	7	Sololá	702	San José Chacayá	5	Chacayá	3	Marzo	2023-03-21T00:00:00	2024-11-06T20:00:00	1	Precipitación	0
85408	7	Sololá	702	San José Chacayá	5	Chacayá	3	Marzo	2023-03-21T00:00:00	2024-11-06T20:00:00	8	Radiación solar	0
85409	7	Sololá	702	San José Chacayá	5	Chacayá	3	Marzo	2023-03-21T00:00:00	2024-11-06T21:00:00	2	Temperatura media	15.2
85410	7	Sololá	702	San José Chacayá	5	Chacayá	3	Marzo	2023-03-21T00:00:00	2024-11-06T21:00:00	4	Temperatura máxima	15.5
85411	7	Sololá	702	San José Chacayá	5	Chacayá	3	Marzo	2023-03-21T00:00:00	2024-11-06T21:00:00	3	Temperatura mínima	15.2
85412	7	Sololá	702	San José Chacayá	5	Chacayá	3	Marzo	2023-03-21T00:00:00	2024-11-06T21:00:00	5	Humedad	81
85413	7	Sololá	702	San José Chacayá	5	Chacayá	3	Marzo	2023-03-21T00:00:00	2024-11-06T21:00:00	6	Velocidad del viento	3.2
85414	7	Sololá	702	San José Chacayá	5	Chacayá	3	Marzo	2023-03-21T00:00:00	2024-11-06T21:00:00	7	Dirección del viento	3.22
85415	7	Sololá	702	San José Chacayá	5	Chacayá	3	Marzo	2023-03-21T00:00:00	2024-11-06T21:00:00	1	Precipitación	0
85416	7	Sololá	702	San José Chacayá	5	Chacayá	3	Marzo	2023-03-21T00:00:00	2024-11-06T21:00:00	8	Radiación solar	0
85417	7	Sololá	702	San José Chacayá	5	Chacayá	3	Marzo	2023-03-21T00:00:00	2024-11-06T22:00:00	2	Temperatura media	14.9
85418	7	Sololá	702	San José Chacayá	5	Chacayá	3	Marzo	2023-03-21T00:00:00	2024-11-06T22:00:00	4	Temperatura máxima	15.2
85419	7	Sololá	702	San José Chacayá	5	Chacayá	3	Marzo	2023-03-21T00:00:00	2024-11-06T22:00:00	3	Temperatura mínima	14.8
85420	7	Sololá	702	San José Chacayá	5	Chacayá	3	Marzo	2023-03-21T00:00:00	2024-11-06T22:00:00	5	Humedad	79
85421	7	Sololá	702	San José Chacayá	5	Chacayá	3	Marzo	2023-03-21T00:00:00	2024-11-06T22:00:00	6	Velocidad del viento	6.4
85422	7	Sololá	702	San José Chacayá	5	Chacayá	3	Marzo	2023-03-21T00:00:00	2024-11-06T22:00:00	7	Dirección del viento	6.44
85423	7	Sololá	702	San José Chacayá	5	Chacayá	3	Marzo	2023-03-21T00:00:00	2024-11-06T22:00:00	1	Precipitación	0
85424	7	Sololá	702	San José Chacayá	5	Chacayá	3	Marzo	2023-03-21T00:00:00	2024-11-06T22:00:00	8	Radiación solar	0
85425	7	Sololá	702	San José Chacayá	5	Chacayá	3	Marzo	2023-03-21T00:00:00	2024-11-06T23:00:00	2	Temperatura media	14.8
85426	7	Sololá	702	San José Chacayá	5	Chacayá	3	Marzo	2023-03-21T00:00:00	2024-11-06T23:00:00	4	Temperatura máxima	15
85427	7	Sololá	702	San José Chacayá	5	Chacayá	3	Marzo	2023-03-21T00:00:00	2024-11-06T23:00:00	3	Temperatura mínima	14.8
85428	7	Sololá	702	San José Chacayá	5	Chacayá	3	Marzo	2023-03-21T00:00:00	2024-11-06T23:00:00	5	Humedad	76
85429	7	Sololá	702	San José Chacayá	5	Chacayá	3	Marzo	2023-03-21T00:00:00	2024-11-06T23:00:00	6	Velocidad del viento	4.8
85430	7	Sololá	702	San José Chacayá	5	Chacayá	3	Marzo	2023-03-21T00:00:00	2024-11-06T23:00:00	7	Dirección del viento	4.83
85431	7	Sololá	702	San José Chacayá	5	Chacayá	3	Marzo	2023-03-21T00:00:00	2024-11-06T23:00:00	1	Precipitación	0
85432	7	Sololá	702	San José Chacayá	5	Chacayá	3	Marzo	2023-03-21T00:00:00	2024-11-06T23:00:00	8	Radiación solar	0
85433	7	Sololá	702	San José Chacayá	5	Chacayá	3	Marzo	2023-03-22T00:00:00	2024-11-06T00:00:00	2	Temperatura media	14.7
85434	7	Sololá	702	San José Chacayá	5	Chacayá	3	Marzo	2023-03-22T00:00:00	2024-11-06T00:00:00	4	Temperatura máxima	14.8
85435	7	Sololá	702	San José Chacayá	5	Chacayá	3	Marzo	2023-03-22T00:00:00	2024-11-06T00:00:00	3	Temperatura mínima	14.4
85436	7	Sololá	702	San José Chacayá	5	Chacayá	3	Marzo	2023-03-22T00:00:00	2024-11-06T00:00:00	5	Humedad	78
85437	7	Sololá	702	San José Chacayá	5	Chacayá	3	Marzo	2023-03-22T00:00:00	2024-11-06T00:00:00	6	Velocidad del viento	4.8
85438	7	Sololá	702	San José Chacayá	5	Chacayá	3	Marzo	2023-03-22T00:00:00	2024-11-06T00:00:00	7	Dirección del viento	4.83
85439	7	Sololá	702	San José Chacayá	5	Chacayá	3	Marzo	2023-03-22T00:00:00	2024-11-06T00:00:00	1	Precipitación	0
85440	7	Sololá	702	San José Chacayá	5	Chacayá	3	Marzo	2023-03-22T00:00:00	2024-11-06T00:00:00	8	Radiación solar	0
85441	7	Sololá	702	San José Chacayá	5	Chacayá	3	Marzo	2023-03-22T00:00:00	2024-11-06T01:00:00	2	Temperatura media	14.4
85442	7	Sololá	702	San José Chacayá	5	Chacayá	3	Marzo	2023-03-22T00:00:00	2024-11-06T01:00:00	4	Temperatura máxima	14.7
85443	7	Sololá	702	San José Chacayá	5	Chacayá	3	Marzo	2023-03-22T00:00:00	2024-11-06T01:00:00	3	Temperatura mínima	14.4
85444	7	Sololá	702	San José Chacayá	5	Chacayá	3	Marzo	2023-03-22T00:00:00	2024-11-06T01:00:00	5	Humedad	77
85445	7	Sololá	702	San José Chacayá	5	Chacayá	3	Marzo	2023-03-22T00:00:00	2024-11-06T01:00:00	6	Velocidad del viento	4.8
85446	7	Sololá	702	San José Chacayá	5	Chacayá	3	Marzo	2023-03-22T00:00:00	2024-11-06T01:00:00	7	Dirección del viento	4.83
85447	7	Sololá	702	San José Chacayá	5	Chacayá	3	Marzo	2023-03-22T00:00:00	2024-11-06T01:00:00	1	Precipitación	0
85448	7	Sololá	702	San José Chacayá	5	Chacayá	3	Marzo	2023-03-22T00:00:00	2024-11-06T01:00:00	8	Radiación solar	0
85449	7	Sololá	702	San José Chacayá	5	Chacayá	3	Marzo	2023-03-22T00:00:00	2024-11-06T02:00:00	2	Temperatura media	14.6
85450	7	Sololá	702	San José Chacayá	5	Chacayá	3	Marzo	2023-03-22T00:00:00	2024-11-06T02:00:00	4	Temperatura máxima	14.7
85451	7	Sololá	702	San José Chacayá	5	Chacayá	3	Marzo	2023-03-22T00:00:00	2024-11-06T02:00:00	3	Temperatura mínima	14.3
85452	7	Sololá	702	San José Chacayá	5	Chacayá	3	Marzo	2023-03-22T00:00:00	2024-11-06T02:00:00	5	Humedad	78
85453	7	Sololá	702	San José Chacayá	5	Chacayá	3	Marzo	2023-03-22T00:00:00	2024-11-06T02:00:00	6	Velocidad del viento	4.8
85454	7	Sololá	702	San José Chacayá	5	Chacayá	3	Marzo	2023-03-22T00:00:00	2024-11-06T02:00:00	7	Dirección del viento	4.83
85455	7	Sololá	702	San José Chacayá	5	Chacayá	3	Marzo	2023-03-22T00:00:00	2024-11-06T02:00:00	1	Precipitación	0
85456	7	Sololá	702	San José Chacayá	5	Chacayá	3	Marzo	2023-03-22T00:00:00	2024-11-06T02:00:00	8	Radiación solar	0
85457	7	Sololá	702	San José Chacayá	5	Chacayá	3	Marzo	2023-03-22T00:00:00	2024-11-06T03:00:00	2	Temperatura media	14.3
85458	7	Sololá	702	San José Chacayá	5	Chacayá	3	Marzo	2023-03-22T00:00:00	2024-11-06T03:00:00	4	Temperatura máxima	14.6
85459	7	Sololá	702	San José Chacayá	5	Chacayá	3	Marzo	2023-03-22T00:00:00	2024-11-06T03:00:00	3	Temperatura mínima	14.3
85460	7	Sololá	702	San José Chacayá	5	Chacayá	3	Marzo	2023-03-22T00:00:00	2024-11-06T03:00:00	5	Humedad	79
85461	7	Sololá	702	San José Chacayá	5	Chacayá	3	Marzo	2023-03-22T00:00:00	2024-11-06T03:00:00	6	Velocidad del viento	3.2
85462	7	Sololá	702	San José Chacayá	5	Chacayá	3	Marzo	2023-03-22T00:00:00	2024-11-06T03:00:00	7	Dirección del viento	3.22
85463	7	Sololá	702	San José Chacayá	5	Chacayá	3	Marzo	2023-03-22T00:00:00	2024-11-06T03:00:00	1	Precipitación	0
85464	7	Sololá	702	San José Chacayá	5	Chacayá	3	Marzo	2023-03-22T00:00:00	2024-11-06T03:00:00	8	Radiación solar	0
85465	7	Sololá	702	San José Chacayá	5	Chacayá	3	Marzo	2023-03-22T00:00:00	2024-11-06T04:00:00	2	Temperatura media	13.7
85466	7	Sololá	702	San José Chacayá	5	Chacayá	3	Marzo	2023-03-22T00:00:00	2024-11-06T04:00:00	4	Temperatura máxima	14.4
85467	7	Sololá	702	San José Chacayá	5	Chacayá	3	Marzo	2023-03-22T00:00:00	2024-11-06T04:00:00	3	Temperatura mínima	13.7
85468	7	Sololá	702	San José Chacayá	5	Chacayá	3	Marzo	2023-03-22T00:00:00	2024-11-06T04:00:00	5	Humedad	83
85469	7	Sololá	702	San José Chacayá	5	Chacayá	3	Marzo	2023-03-22T00:00:00	2024-11-06T04:00:00	6	Velocidad del viento	3.2
85470	7	Sololá	702	San José Chacayá	5	Chacayá	3	Marzo	2023-03-22T00:00:00	2024-11-06T04:00:00	7	Dirección del viento	3.22
85471	7	Sololá	702	San José Chacayá	5	Chacayá	3	Marzo	2023-03-22T00:00:00	2024-11-06T04:00:00	1	Precipitación	0
85472	7	Sololá	702	San José Chacayá	5	Chacayá	3	Marzo	2023-03-22T00:00:00	2024-11-06T04:00:00	8	Radiación solar	0
85473	7	Sololá	702	San José Chacayá	5	Chacayá	3	Marzo	2023-03-22T00:00:00	2024-11-06T05:00:00	2	Temperatura media	13.7
85474	7	Sololá	702	San José Chacayá	5	Chacayá	3	Marzo	2023-03-22T00:00:00	2024-11-06T05:00:00	4	Temperatura máxima	13.8
85475	7	Sololá	702	San José Chacayá	5	Chacayá	3	Marzo	2023-03-22T00:00:00	2024-11-06T05:00:00	3	Temperatura mínima	13.6
85476	7	Sololá	702	San José Chacayá	5	Chacayá	3	Marzo	2023-03-22T00:00:00	2024-11-06T05:00:00	5	Humedad	83
85477	7	Sololá	702	San José Chacayá	5	Chacayá	3	Marzo	2023-03-22T00:00:00	2024-11-06T05:00:00	6	Velocidad del viento	1.6
85478	7	Sololá	702	San José Chacayá	5	Chacayá	3	Marzo	2023-03-22T00:00:00	2024-11-06T05:00:00	7	Dirección del viento	1.61
85479	7	Sololá	702	San José Chacayá	5	Chacayá	3	Marzo	2023-03-22T00:00:00	2024-11-06T05:00:00	1	Precipitación	0
85480	7	Sololá	702	San José Chacayá	5	Chacayá	3	Marzo	2023-03-22T00:00:00	2024-11-06T05:00:00	8	Radiación solar	0
85481	7	Sololá	702	San José Chacayá	5	Chacayá	3	Marzo	2023-03-22T00:00:00	2024-11-06T06:00:00	2	Temperatura media	13.9
85482	7	Sololá	702	San José Chacayá	5	Chacayá	3	Marzo	2023-03-22T00:00:00	2024-11-06T06:00:00	4	Temperatura máxima	13.9
85483	7	Sololá	702	San José Chacayá	5	Chacayá	3	Marzo	2023-03-22T00:00:00	2024-11-06T06:00:00	3	Temperatura mínima	13.7
85484	7	Sololá	702	San José Chacayá	5	Chacayá	3	Marzo	2023-03-22T00:00:00	2024-11-06T06:00:00	5	Humedad	82
85485	7	Sololá	702	San José Chacayá	5	Chacayá	3	Marzo	2023-03-22T00:00:00	2024-11-06T06:00:00	6	Velocidad del viento	1.6
85486	7	Sololá	702	San José Chacayá	5	Chacayá	3	Marzo	2023-03-22T00:00:00	2024-11-06T06:00:00	7	Dirección del viento	1.61
85487	7	Sololá	702	San José Chacayá	5	Chacayá	3	Marzo	2023-03-22T00:00:00	2024-11-06T06:00:00	1	Precipitación	0
85488	7	Sololá	702	San José Chacayá	5	Chacayá	3	Marzo	2023-03-22T00:00:00	2024-11-06T06:00:00	8	Radiación solar	0
85489	7	Sololá	702	San José Chacayá	5	Chacayá	3	Marzo	2023-03-22T00:00:00	2024-11-06T07:00:00	2	Temperatura media	13.7
85490	7	Sololá	702	San José Chacayá	5	Chacayá	3	Marzo	2023-03-22T00:00:00	2024-11-06T07:00:00	4	Temperatura máxima	14
85491	7	Sololá	702	San José Chacayá	5	Chacayá	3	Marzo	2023-03-22T00:00:00	2024-11-06T07:00:00	3	Temperatura mínima	13.6
85492	7	Sololá	702	San José Chacayá	5	Chacayá	3	Marzo	2023-03-22T00:00:00	2024-11-06T07:00:00	5	Humedad	83
85493	7	Sololá	702	San José Chacayá	5	Chacayá	3	Marzo	2023-03-22T00:00:00	2024-11-06T07:00:00	6	Velocidad del viento	3.2
85494	7	Sololá	702	San José Chacayá	5	Chacayá	3	Marzo	2023-03-22T00:00:00	2024-11-06T07:00:00	7	Dirección del viento	3.22
85495	7	Sololá	702	San José Chacayá	5	Chacayá	3	Marzo	2023-03-22T00:00:00	2024-11-06T07:00:00	1	Precipitación	0
85496	7	Sololá	702	San José Chacayá	5	Chacayá	3	Marzo	2023-03-22T00:00:00	2024-11-06T07:00:00	8	Radiación solar	25
85497	7	Sololá	702	San José Chacayá	5	Chacayá	3	Marzo	2023-03-22T00:00:00	2024-11-06T08:00:00	2	Temperatura media	13.6
85498	7	Sololá	702	San José Chacayá	5	Chacayá	3	Marzo	2023-03-22T00:00:00	2024-11-06T08:00:00	4	Temperatura máxima	13.7
85499	7	Sololá	702	San José Chacayá	5	Chacayá	3	Marzo	2023-03-22T00:00:00	2024-11-06T08:00:00	3	Temperatura mínima	13.6
85500	7	Sololá	702	San José Chacayá	5	Chacayá	3	Marzo	2023-03-22T00:00:00	2024-11-06T08:00:00	5	Humedad	84
85501	7	Sololá	702	San José Chacayá	5	Chacayá	3	Marzo	2023-03-22T00:00:00	2024-11-06T08:00:00	6	Velocidad del viento	3.2
85502	7	Sololá	702	San José Chacayá	5	Chacayá	3	Marzo	2023-03-22T00:00:00	2024-11-06T08:00:00	7	Dirección del viento	3.22
85503	7	Sololá	702	San José Chacayá	5	Chacayá	3	Marzo	2023-03-22T00:00:00	2024-11-06T08:00:00	1	Precipitación	0
85504	7	Sololá	702	San José Chacayá	5	Chacayá	3	Marzo	2023-03-22T00:00:00	2024-11-06T08:00:00	8	Radiación solar	144
85505	7	Sololá	702	San José Chacayá	5	Chacayá	3	Marzo	2023-03-22T00:00:00	2024-11-06T09:00:00	2	Temperatura media	15.7
85506	7	Sololá	702	San José Chacayá	5	Chacayá	3	Marzo	2023-03-22T00:00:00	2024-11-06T09:00:00	4	Temperatura máxima	15.7
85507	7	Sololá	702	San José Chacayá	5	Chacayá	3	Marzo	2023-03-22T00:00:00	2024-11-06T09:00:00	3	Temperatura mínima	13.6
85508	7	Sololá	702	San José Chacayá	5	Chacayá	3	Marzo	2023-03-22T00:00:00	2024-11-06T09:00:00	5	Humedad	79
85509	7	Sololá	702	San José Chacayá	5	Chacayá	3	Marzo	2023-03-22T00:00:00	2024-11-06T09:00:00	6	Velocidad del viento	4.8
85510	7	Sololá	702	San José Chacayá	5	Chacayá	3	Marzo	2023-03-22T00:00:00	2024-11-06T09:00:00	7	Dirección del viento	4.83
85511	7	Sololá	702	San José Chacayá	5	Chacayá	3	Marzo	2023-03-22T00:00:00	2024-11-06T09:00:00	1	Precipitación	0
85512	7	Sololá	702	San José Chacayá	5	Chacayá	3	Marzo	2023-03-22T00:00:00	2024-11-06T09:00:00	8	Radiación solar	137
85513	7	Sololá	702	San José Chacayá	5	Chacayá	3	Marzo	2023-03-22T00:00:00	2024-11-06T10:00:00	2	Temperatura media	15.3
85514	7	Sololá	702	San José Chacayá	5	Chacayá	3	Marzo	2023-03-22T00:00:00	2024-11-06T10:00:00	4	Temperatura máxima	15.7
85515	7	Sololá	702	San José Chacayá	5	Chacayá	3	Marzo	2023-03-22T00:00:00	2024-11-06T10:00:00	3	Temperatura mínima	14.7
85516	7	Sololá	702	San José Chacayá	5	Chacayá	3	Marzo	2023-03-22T00:00:00	2024-11-06T10:00:00	5	Humedad	80
85517	7	Sololá	702	San José Chacayá	5	Chacayá	3	Marzo	2023-03-22T00:00:00	2024-11-06T10:00:00	6	Velocidad del viento	4.8
85518	7	Sololá	702	San José Chacayá	5	Chacayá	3	Marzo	2023-03-22T00:00:00	2024-11-06T10:00:00	7	Dirección del viento	4.83
85519	7	Sololá	702	San José Chacayá	5	Chacayá	3	Marzo	2023-03-22T00:00:00	2024-11-06T10:00:00	1	Precipitación	0
85520	7	Sololá	702	San José Chacayá	5	Chacayá	3	Marzo	2023-03-22T00:00:00	2024-11-06T10:00:00	8	Radiación solar	224
85521	7	Sololá	702	San José Chacayá	5	Chacayá	3	Marzo	2023-03-22T00:00:00	2024-11-06T11:00:00	2	Temperatura media	16.8
85522	7	Sololá	702	San José Chacayá	5	Chacayá	3	Marzo	2023-03-22T00:00:00	2024-11-06T11:00:00	4	Temperatura máxima	16.8
85523	7	Sololá	702	San José Chacayá	5	Chacayá	3	Marzo	2023-03-22T00:00:00	2024-11-06T11:00:00	3	Temperatura mínima	15.3
85524	7	Sololá	702	San José Chacayá	5	Chacayá	3	Marzo	2023-03-22T00:00:00	2024-11-06T11:00:00	5	Humedad	74
85525	7	Sololá	702	San José Chacayá	5	Chacayá	3	Marzo	2023-03-22T00:00:00	2024-11-06T11:00:00	6	Velocidad del viento	6.4
85526	7	Sololá	702	San José Chacayá	5	Chacayá	3	Marzo	2023-03-22T00:00:00	2024-11-06T11:00:00	7	Dirección del viento	6.44
85527	7	Sololá	702	San José Chacayá	5	Chacayá	3	Marzo	2023-03-22T00:00:00	2024-11-06T11:00:00	1	Precipitación	0
85528	7	Sololá	702	San José Chacayá	5	Chacayá	3	Marzo	2023-03-22T00:00:00	2024-11-06T11:00:00	8	Radiación solar	207
85529	7	Sololá	702	San José Chacayá	5	Chacayá	3	Marzo	2023-03-22T00:00:00	2024-11-06T12:00:00	2	Temperatura media	17.2
85530	7	Sololá	702	San José Chacayá	5	Chacayá	3	Marzo	2023-03-22T00:00:00	2024-11-06T12:00:00	4	Temperatura máxima	17.3
85531	7	Sololá	702	San José Chacayá	5	Chacayá	3	Marzo	2023-03-22T00:00:00	2024-11-06T12:00:00	3	Temperatura mínima	16.7
85532	7	Sololá	702	San José Chacayá	5	Chacayá	3	Marzo	2023-03-22T00:00:00	2024-11-06T12:00:00	5	Humedad	74
85533	7	Sololá	702	San José Chacayá	5	Chacayá	3	Marzo	2023-03-22T00:00:00	2024-11-06T12:00:00	6	Velocidad del viento	6.4
85534	7	Sololá	702	San José Chacayá	5	Chacayá	3	Marzo	2023-03-22T00:00:00	2024-11-06T12:00:00	7	Dirección del viento	6.44
85535	7	Sololá	702	San José Chacayá	5	Chacayá	3	Marzo	2023-03-22T00:00:00	2024-11-06T12:00:00	1	Precipitación	0
85536	7	Sololá	702	San José Chacayá	5	Chacayá	3	Marzo	2023-03-22T00:00:00	2024-11-06T12:00:00	8	Radiación solar	338
85537	7	Sololá	702	San José Chacayá	5	Chacayá	3	Marzo	2023-03-22T00:00:00	2024-11-06T13:00:00	2	Temperatura media	18.8
85538	7	Sololá	702	San José Chacayá	5	Chacayá	3	Marzo	2023-03-22T00:00:00	2024-11-06T13:00:00	4	Temperatura máxima	19.6
85539	7	Sololá	702	San José Chacayá	5	Chacayá	3	Marzo	2023-03-22T00:00:00	2024-11-06T13:00:00	3	Temperatura mínima	17.2
85540	7	Sololá	702	San José Chacayá	5	Chacayá	3	Marzo	2023-03-22T00:00:00	2024-11-06T13:00:00	5	Humedad	64
85541	7	Sololá	702	San José Chacayá	5	Chacayá	3	Marzo	2023-03-22T00:00:00	2024-11-06T13:00:00	6	Velocidad del viento	4.8
85542	7	Sololá	702	San José Chacayá	5	Chacayá	3	Marzo	2023-03-22T00:00:00	2024-11-06T13:00:00	7	Dirección del viento	4.83
85543	7	Sololá	702	San José Chacayá	5	Chacayá	3	Marzo	2023-03-22T00:00:00	2024-11-06T13:00:00	1	Precipitación	0
85544	7	Sololá	702	San José Chacayá	5	Chacayá	3	Marzo	2023-03-22T00:00:00	2024-11-06T13:00:00	8	Radiación solar	376
85545	7	Sololá	702	San José Chacayá	5	Chacayá	3	Marzo	2023-03-22T00:00:00	2024-11-06T14:00:00	2	Temperatura media	19.5
85546	7	Sololá	702	San José Chacayá	5	Chacayá	3	Marzo	2023-03-22T00:00:00	2024-11-06T14:00:00	4	Temperatura máxima	20.1
85547	7	Sololá	702	San José Chacayá	5	Chacayá	3	Marzo	2023-03-22T00:00:00	2024-11-06T14:00:00	3	Temperatura mínima	18.3
85548	7	Sololá	702	San José Chacayá	5	Chacayá	3	Marzo	2023-03-22T00:00:00	2024-11-06T14:00:00	5	Humedad	63
85549	7	Sololá	702	San José Chacayá	5	Chacayá	3	Marzo	2023-03-22T00:00:00	2024-11-06T14:00:00	6	Velocidad del viento	6.4
85550	7	Sololá	702	San José Chacayá	5	Chacayá	3	Marzo	2023-03-22T00:00:00	2024-11-06T14:00:00	7	Dirección del viento	6.44
85551	7	Sololá	702	San José Chacayá	5	Chacayá	3	Marzo	2023-03-22T00:00:00	2024-11-06T14:00:00	1	Precipitación	0
85552	7	Sololá	702	San José Chacayá	5	Chacayá	3	Marzo	2023-03-22T00:00:00	2024-11-06T14:00:00	8	Radiación solar	447
85553	7	Sololá	702	San José Chacayá	5	Chacayá	3	Marzo	2023-03-22T00:00:00	2024-11-06T15:00:00	2	Temperatura media	20.6
85554	7	Sololá	702	San José Chacayá	5	Chacayá	3	Marzo	2023-03-22T00:00:00	2024-11-06T15:00:00	4	Temperatura máxima	20.7
85555	7	Sololá	702	San José Chacayá	5	Chacayá	3	Marzo	2023-03-22T00:00:00	2024-11-06T15:00:00	3	Temperatura mínima	19.5
85556	7	Sololá	702	San José Chacayá	5	Chacayá	3	Marzo	2023-03-22T00:00:00	2024-11-06T15:00:00	5	Humedad	57
85557	7	Sololá	702	San José Chacayá	5	Chacayá	3	Marzo	2023-03-22T00:00:00	2024-11-06T15:00:00	6	Velocidad del viento	6.4
85558	7	Sololá	702	San José Chacayá	5	Chacayá	3	Marzo	2023-03-22T00:00:00	2024-11-06T15:00:00	7	Dirección del viento	6.44
85559	7	Sololá	702	San José Chacayá	5	Chacayá	3	Marzo	2023-03-22T00:00:00	2024-11-06T15:00:00	1	Precipitación	0
85560	7	Sololá	702	San José Chacayá	5	Chacayá	3	Marzo	2023-03-22T00:00:00	2024-11-06T15:00:00	8	Radiación solar	631
85561	7	Sololá	702	San José Chacayá	5	Chacayá	3	Marzo	2023-03-22T00:00:00	2024-11-06T16:00:00	2	Temperatura media	21.2
85562	7	Sololá	702	San José Chacayá	5	Chacayá	3	Marzo	2023-03-22T00:00:00	2024-11-06T16:00:00	4	Temperatura máxima	21.6
85563	7	Sololá	702	San José Chacayá	5	Chacayá	3	Marzo	2023-03-22T00:00:00	2024-11-06T16:00:00	3	Temperatura mínima	20.2
85564	7	Sololá	702	San José Chacayá	5	Chacayá	3	Marzo	2023-03-22T00:00:00	2024-11-06T16:00:00	5	Humedad	52
85565	7	Sololá	702	San José Chacayá	5	Chacayá	3	Marzo	2023-03-22T00:00:00	2024-11-06T16:00:00	6	Velocidad del viento	8
85566	7	Sololá	702	San José Chacayá	5	Chacayá	3	Marzo	2023-03-22T00:00:00	2024-11-06T16:00:00	7	Dirección del viento	8.05
85567	7	Sololá	702	San José Chacayá	5	Chacayá	3	Marzo	2023-03-22T00:00:00	2024-11-06T16:00:00	1	Precipitación	0
85568	7	Sololá	702	San José Chacayá	5	Chacayá	3	Marzo	2023-03-22T00:00:00	2024-11-06T16:00:00	8	Radiación solar	544
85569	7	Sololá	702	San José Chacayá	5	Chacayá	3	Marzo	2023-03-22T00:00:00	2024-11-06T17:00:00	2	Temperatura media	20.7
85570	7	Sololá	702	San José Chacayá	5	Chacayá	3	Marzo	2023-03-22T00:00:00	2024-11-06T17:00:00	4	Temperatura máxima	21.6
85571	7	Sololá	702	San José Chacayá	5	Chacayá	3	Marzo	2023-03-22T00:00:00	2024-11-06T17:00:00	3	Temperatura mínima	20.5
85572	7	Sololá	702	San José Chacayá	5	Chacayá	3	Marzo	2023-03-22T00:00:00	2024-11-06T17:00:00	5	Humedad	50
85573	7	Sololá	702	San José Chacayá	5	Chacayá	3	Marzo	2023-03-22T00:00:00	2024-11-06T17:00:00	6	Velocidad del viento	6.4
85574	7	Sololá	702	San José Chacayá	5	Chacayá	3	Marzo	2023-03-22T00:00:00	2024-11-06T17:00:00	7	Dirección del viento	6.44
85575	7	Sololá	702	San José Chacayá	5	Chacayá	3	Marzo	2023-03-22T00:00:00	2024-11-06T17:00:00	1	Precipitación	0
85576	7	Sololá	702	San José Chacayá	5	Chacayá	3	Marzo	2023-03-22T00:00:00	2024-11-06T17:00:00	8	Radiación solar	167
85577	7	Sololá	702	San José Chacayá	5	Chacayá	3	Marzo	2023-03-22T00:00:00	2024-11-06T18:00:00	2	Temperatura media	19.4
85578	7	Sololá	702	San José Chacayá	5	Chacayá	3	Marzo	2023-03-22T00:00:00	2024-11-06T18:00:00	4	Temperatura máxima	20.7
85579	7	Sololá	702	San José Chacayá	5	Chacayá	3	Marzo	2023-03-22T00:00:00	2024-11-06T18:00:00	3	Temperatura mínima	19.4
85580	7	Sololá	702	San José Chacayá	5	Chacayá	3	Marzo	2023-03-22T00:00:00	2024-11-06T18:00:00	5	Humedad	55
85581	7	Sololá	702	San José Chacayá	5	Chacayá	3	Marzo	2023-03-22T00:00:00	2024-11-06T18:00:00	6	Velocidad del viento	4.8
85582	7	Sololá	702	San José Chacayá	5	Chacayá	3	Marzo	2023-03-22T00:00:00	2024-11-06T18:00:00	7	Dirección del viento	4.83
85583	7	Sololá	702	San José Chacayá	5	Chacayá	3	Marzo	2023-03-22T00:00:00	2024-11-06T18:00:00	1	Precipitación	0
85584	7	Sololá	702	San José Chacayá	5	Chacayá	3	Marzo	2023-03-22T00:00:00	2024-11-06T18:00:00	8	Radiación solar	44
85585	7	Sololá	702	San José Chacayá	5	Chacayá	3	Marzo	2023-03-22T00:00:00	2024-11-06T19:00:00	2	Temperatura media	16.9
85586	7	Sololá	702	San José Chacayá	5	Chacayá	3	Marzo	2023-03-22T00:00:00	2024-11-06T19:00:00	4	Temperatura máxima	19.4
85587	7	Sololá	702	San José Chacayá	5	Chacayá	3	Marzo	2023-03-22T00:00:00	2024-11-06T19:00:00	3	Temperatura mínima	16.9
85588	7	Sololá	702	San José Chacayá	5	Chacayá	3	Marzo	2023-03-22T00:00:00	2024-11-06T19:00:00	5	Humedad	67
85589	7	Sololá	702	San José Chacayá	5	Chacayá	3	Marzo	2023-03-22T00:00:00	2024-11-06T19:00:00	6	Velocidad del viento	4.8
85590	7	Sololá	702	San José Chacayá	5	Chacayá	3	Marzo	2023-03-22T00:00:00	2024-11-06T19:00:00	7	Dirección del viento	4.83
85591	7	Sololá	702	San José Chacayá	5	Chacayá	3	Marzo	2023-03-22T00:00:00	2024-11-06T19:00:00	1	Precipitación	0
85592	7	Sololá	702	San José Chacayá	5	Chacayá	3	Marzo	2023-03-22T00:00:00	2024-11-06T19:00:00	8	Radiación solar	0
85593	7	Sololá	702	San José Chacayá	5	Chacayá	3	Marzo	2023-03-22T00:00:00	2024-11-06T20:00:00	2	Temperatura media	15.3
85594	7	Sololá	702	San José Chacayá	5	Chacayá	3	Marzo	2023-03-22T00:00:00	2024-11-06T20:00:00	4	Temperatura máxima	16.9
85595	7	Sololá	702	San José Chacayá	5	Chacayá	3	Marzo	2023-03-22T00:00:00	2024-11-06T20:00:00	3	Temperatura mínima	15.3
85596	7	Sololá	702	San José Chacayá	5	Chacayá	3	Marzo	2023-03-22T00:00:00	2024-11-06T20:00:00	5	Humedad	76
85597	7	Sololá	702	San José Chacayá	5	Chacayá	3	Marzo	2023-03-22T00:00:00	2024-11-06T20:00:00	6	Velocidad del viento	4.8
85598	7	Sololá	702	San José Chacayá	5	Chacayá	3	Marzo	2023-03-22T00:00:00	2024-11-06T20:00:00	7	Dirección del viento	4.83
85599	7	Sololá	702	San José Chacayá	5	Chacayá	3	Marzo	2023-03-22T00:00:00	2024-11-06T20:00:00	1	Precipitación	0
85600	7	Sololá	702	San José Chacayá	5	Chacayá	3	Marzo	2023-03-22T00:00:00	2024-11-06T20:00:00	8	Radiación solar	0
85601	7	Sololá	702	San José Chacayá	5	Chacayá	3	Marzo	2023-03-22T00:00:00	2024-11-06T21:00:00	2	Temperatura media	14.6
85602	7	Sololá	702	San José Chacayá	5	Chacayá	3	Marzo	2023-03-22T00:00:00	2024-11-06T21:00:00	4	Temperatura máxima	15.3
85603	7	Sololá	702	San José Chacayá	5	Chacayá	3	Marzo	2023-03-22T00:00:00	2024-11-06T21:00:00	3	Temperatura mínima	14.6
85604	7	Sololá	702	San José Chacayá	5	Chacayá	3	Marzo	2023-03-22T00:00:00	2024-11-06T21:00:00	5	Humedad	78
85605	7	Sololá	702	San José Chacayá	5	Chacayá	3	Marzo	2023-03-22T00:00:00	2024-11-06T21:00:00	6	Velocidad del viento	3.2
85606	7	Sololá	702	San José Chacayá	5	Chacayá	3	Marzo	2023-03-22T00:00:00	2024-11-06T21:00:00	7	Dirección del viento	3.22
85607	7	Sololá	702	San José Chacayá	5	Chacayá	3	Marzo	2023-03-22T00:00:00	2024-11-06T21:00:00	1	Precipitación	0
85608	7	Sololá	702	San José Chacayá	5	Chacayá	3	Marzo	2023-03-22T00:00:00	2024-11-06T21:00:00	8	Radiación solar	0
85609	7	Sololá	702	San José Chacayá	5	Chacayá	3	Marzo	2023-03-22T00:00:00	2024-11-06T22:00:00	2	Temperatura media	13.7
85610	7	Sololá	702	San José Chacayá	5	Chacayá	3	Marzo	2023-03-22T00:00:00	2024-11-06T22:00:00	4	Temperatura máxima	14.6
85611	7	Sololá	702	San José Chacayá	5	Chacayá	3	Marzo	2023-03-22T00:00:00	2024-11-06T22:00:00	3	Temperatura mínima	13.7
85612	7	Sololá	702	San José Chacayá	5	Chacayá	3	Marzo	2023-03-22T00:00:00	2024-11-06T22:00:00	5	Humedad	82
85613	7	Sololá	702	San José Chacayá	5	Chacayá	3	Marzo	2023-03-22T00:00:00	2024-11-06T22:00:00	6	Velocidad del viento	1.6
85614	7	Sololá	702	San José Chacayá	5	Chacayá	3	Marzo	2023-03-22T00:00:00	2024-11-06T22:00:00	7	Dirección del viento	1.61
85615	7	Sololá	702	San José Chacayá	5	Chacayá	3	Marzo	2023-03-22T00:00:00	2024-11-06T22:00:00	1	Precipitación	0
85616	7	Sololá	702	San José Chacayá	5	Chacayá	3	Marzo	2023-03-22T00:00:00	2024-11-06T22:00:00	8	Radiación solar	0
85617	7	Sololá	702	San José Chacayá	5	Chacayá	3	Marzo	2023-03-22T00:00:00	2024-11-06T23:00:00	2	Temperatura media	11.9
85618	7	Sololá	702	San José Chacayá	5	Chacayá	3	Marzo	2023-03-22T00:00:00	2024-11-06T23:00:00	4	Temperatura máxima	13.7
85619	7	Sololá	702	San José Chacayá	5	Chacayá	3	Marzo	2023-03-22T00:00:00	2024-11-06T23:00:00	3	Temperatura mínima	11.9
85620	7	Sololá	702	San José Chacayá	5	Chacayá	3	Marzo	2023-03-22T00:00:00	2024-11-06T23:00:00	5	Humedad	85
85621	7	Sololá	702	San José Chacayá	5	Chacayá	3	Marzo	2023-03-22T00:00:00	2024-11-06T23:00:00	6	Velocidad del viento	1.6
85622	7	Sololá	702	San José Chacayá	5	Chacayá	3	Marzo	2023-03-22T00:00:00	2024-11-06T23:00:00	7	Dirección del viento	1.61
85623	7	Sololá	702	San José Chacayá	5	Chacayá	3	Marzo	2023-03-22T00:00:00	2024-11-06T23:00:00	1	Precipitación	0
85624	7	Sololá	702	San José Chacayá	5	Chacayá	3	Marzo	2023-03-22T00:00:00	2024-11-06T23:00:00	8	Radiación solar	0
85625	7	Sololá	702	San José Chacayá	5	Chacayá	3	Marzo	2023-03-23T00:00:00	2024-11-06T00:00:00	2	Temperatura media	12
85626	7	Sololá	702	San José Chacayá	5	Chacayá	3	Marzo	2023-03-23T00:00:00	2024-11-06T00:00:00	4	Temperatura máxima	13
85627	7	Sololá	702	San José Chacayá	5	Chacayá	3	Marzo	2023-03-23T00:00:00	2024-11-06T00:00:00	3	Temperatura mínima	11.9
85628	7	Sololá	702	San José Chacayá	5	Chacayá	3	Marzo	2023-03-23T00:00:00	2024-11-06T00:00:00	5	Humedad	81
85629	7	Sololá	702	San José Chacayá	5	Chacayá	3	Marzo	2023-03-23T00:00:00	2024-11-06T00:00:00	6	Velocidad del viento	1.6
85630	7	Sololá	702	San José Chacayá	5	Chacayá	3	Marzo	2023-03-23T00:00:00	2024-11-06T00:00:00	7	Dirección del viento	1.61
85631	7	Sololá	702	San José Chacayá	5	Chacayá	3	Marzo	2023-03-23T00:00:00	2024-11-06T00:00:00	1	Precipitación	0
85632	7	Sololá	702	San José Chacayá	5	Chacayá	3	Marzo	2023-03-23T00:00:00	2024-11-06T00:00:00	8	Radiación solar	0
85633	7	Sololá	702	San José Chacayá	5	Chacayá	3	Marzo	2023-03-23T00:00:00	2024-11-06T01:00:00	2	Temperatura media	11.3
85634	7	Sololá	702	San José Chacayá	5	Chacayá	3	Marzo	2023-03-23T00:00:00	2024-11-06T01:00:00	4	Temperatura máxima	12
85635	7	Sololá	702	San José Chacayá	5	Chacayá	3	Marzo	2023-03-23T00:00:00	2024-11-06T01:00:00	3	Temperatura mínima	11.1
85636	7	Sololá	702	San José Chacayá	5	Chacayá	3	Marzo	2023-03-23T00:00:00	2024-11-06T01:00:00	5	Humedad	82
85637	7	Sololá	702	San José Chacayá	5	Chacayá	3	Marzo	2023-03-23T00:00:00	2024-11-06T01:00:00	6	Velocidad del viento	1.6
85638	7	Sololá	702	San José Chacayá	5	Chacayá	3	Marzo	2023-03-23T00:00:00	2024-11-06T01:00:00	7	Dirección del viento	1.61
85639	7	Sololá	702	San José Chacayá	5	Chacayá	3	Marzo	2023-03-23T00:00:00	2024-11-06T01:00:00	1	Precipitación	0
85640	7	Sololá	702	San José Chacayá	5	Chacayá	3	Marzo	2023-03-23T00:00:00	2024-11-06T01:00:00	8	Radiación solar	0
85641	7	Sololá	702	San José Chacayá	5	Chacayá	3	Marzo	2023-03-23T00:00:00	2024-11-06T02:00:00	2	Temperatura media	9.6
85642	7	Sololá	702	San José Chacayá	5	Chacayá	3	Marzo	2023-03-23T00:00:00	2024-11-06T02:00:00	4	Temperatura máxima	11.3
85643	7	Sololá	702	San José Chacayá	5	Chacayá	3	Marzo	2023-03-23T00:00:00	2024-11-06T02:00:00	3	Temperatura mínima	9.6
85644	7	Sololá	702	San José Chacayá	5	Chacayá	3	Marzo	2023-03-23T00:00:00	2024-11-06T02:00:00	5	Humedad	85
85645	7	Sololá	702	San José Chacayá	5	Chacayá	3	Marzo	2023-03-23T00:00:00	2024-11-06T02:00:00	6	Velocidad del viento	1.6
85646	7	Sololá	702	San José Chacayá	5	Chacayá	3	Marzo	2023-03-23T00:00:00	2024-11-06T02:00:00	7	Dirección del viento	1.61
85647	7	Sololá	702	San José Chacayá	5	Chacayá	3	Marzo	2023-03-23T00:00:00	2024-11-06T02:00:00	1	Precipitación	0
85648	7	Sololá	702	San José Chacayá	5	Chacayá	3	Marzo	2023-03-23T00:00:00	2024-11-06T02:00:00	8	Radiación solar	0
85649	7	Sololá	702	San José Chacayá	5	Chacayá	3	Marzo	2023-03-23T00:00:00	2024-11-06T03:00:00	2	Temperatura media	8.9
85650	7	Sololá	702	San José Chacayá	5	Chacayá	3	Marzo	2023-03-23T00:00:00	2024-11-06T03:00:00	4	Temperatura máxima	9.6
85651	7	Sololá	702	San José Chacayá	5	Chacayá	3	Marzo	2023-03-23T00:00:00	2024-11-06T03:00:00	3	Temperatura mínima	8.9
85652	7	Sololá	702	San José Chacayá	5	Chacayá	3	Marzo	2023-03-23T00:00:00	2024-11-06T03:00:00	5	Humedad	85
85653	7	Sololá	702	San José Chacayá	5	Chacayá	3	Marzo	2023-03-23T00:00:00	2024-11-06T03:00:00	6	Velocidad del viento	3.2
85654	7	Sololá	702	San José Chacayá	5	Chacayá	3	Marzo	2023-03-23T00:00:00	2024-11-06T03:00:00	7	Dirección del viento	3.22
85655	7	Sololá	702	San José Chacayá	5	Chacayá	3	Marzo	2023-03-23T00:00:00	2024-11-06T03:00:00	1	Precipitación	0
85656	7	Sololá	702	San José Chacayá	5	Chacayá	3	Marzo	2023-03-23T00:00:00	2024-11-06T03:00:00	8	Radiación solar	0
85657	7	Sololá	702	San José Chacayá	5	Chacayá	3	Marzo	2023-03-23T00:00:00	2024-11-06T04:00:00	2	Temperatura media	8.6
85658	7	Sololá	702	San José Chacayá	5	Chacayá	3	Marzo	2023-03-23T00:00:00	2024-11-06T04:00:00	4	Temperatura máxima	8.9
85659	7	Sololá	702	San José Chacayá	5	Chacayá	3	Marzo	2023-03-23T00:00:00	2024-11-06T04:00:00	3	Temperatura mínima	8.6
85660	7	Sololá	702	San José Chacayá	5	Chacayá	3	Marzo	2023-03-23T00:00:00	2024-11-06T04:00:00	5	Humedad	85
85661	7	Sololá	702	San José Chacayá	5	Chacayá	3	Marzo	2023-03-23T00:00:00	2024-11-06T04:00:00	6	Velocidad del viento	3.2
85662	7	Sololá	702	San José Chacayá	5	Chacayá	3	Marzo	2023-03-23T00:00:00	2024-11-06T04:00:00	7	Dirección del viento	3.22
85663	7	Sololá	702	San José Chacayá	5	Chacayá	3	Marzo	2023-03-23T00:00:00	2024-11-06T04:00:00	1	Precipitación	0
85664	7	Sololá	702	San José Chacayá	5	Chacayá	3	Marzo	2023-03-23T00:00:00	2024-11-06T04:00:00	8	Radiación solar	0
85665	7	Sololá	702	San José Chacayá	5	Chacayá	3	Marzo	2023-03-23T00:00:00	2024-11-06T05:00:00	2	Temperatura media	8.2
85666	7	Sololá	702	San José Chacayá	5	Chacayá	3	Marzo	2023-03-23T00:00:00	2024-11-06T05:00:00	4	Temperatura máxima	8.6
85667	7	Sololá	702	San José Chacayá	5	Chacayá	3	Marzo	2023-03-23T00:00:00	2024-11-06T05:00:00	3	Temperatura mínima	8.2
85668	7	Sololá	702	San José Chacayá	5	Chacayá	3	Marzo	2023-03-23T00:00:00	2024-11-06T05:00:00	5	Humedad	85
85669	7	Sololá	702	San José Chacayá	5	Chacayá	3	Marzo	2023-03-23T00:00:00	2024-11-06T05:00:00	6	Velocidad del viento	1.6
85670	7	Sololá	702	San José Chacayá	5	Chacayá	3	Marzo	2023-03-23T00:00:00	2024-11-06T05:00:00	7	Dirección del viento	1.61
85671	7	Sololá	702	San José Chacayá	5	Chacayá	3	Marzo	2023-03-23T00:00:00	2024-11-06T05:00:00	1	Precipitación	0
85672	7	Sololá	702	San José Chacayá	5	Chacayá	3	Marzo	2023-03-23T00:00:00	2024-11-06T05:00:00	8	Radiación solar	0
85673	7	Sololá	702	San José Chacayá	5	Chacayá	3	Marzo	2023-03-23T00:00:00	2024-11-06T06:00:00	2	Temperatura media	7.9
85674	7	Sololá	702	San José Chacayá	5	Chacayá	3	Marzo	2023-03-23T00:00:00	2024-11-06T06:00:00	4	Temperatura máxima	8.2
85675	7	Sololá	702	San José Chacayá	5	Chacayá	3	Marzo	2023-03-23T00:00:00	2024-11-06T06:00:00	3	Temperatura mínima	7.8
85676	7	Sololá	702	San José Chacayá	5	Chacayá	3	Marzo	2023-03-23T00:00:00	2024-11-06T06:00:00	5	Humedad	84
85677	7	Sololá	702	San José Chacayá	5	Chacayá	3	Marzo	2023-03-23T00:00:00	2024-11-06T06:00:00	6	Velocidad del viento	3.2
85678	7	Sololá	702	San José Chacayá	5	Chacayá	3	Marzo	2023-03-23T00:00:00	2024-11-06T06:00:00	7	Dirección del viento	3.22
85679	7	Sololá	702	San José Chacayá	5	Chacayá	3	Marzo	2023-03-23T00:00:00	2024-11-06T06:00:00	1	Precipitación	0
85680	7	Sololá	702	San José Chacayá	5	Chacayá	3	Marzo	2023-03-23T00:00:00	2024-11-06T06:00:00	8	Radiación solar	0
85681	7	Sololá	702	San José Chacayá	5	Chacayá	3	Marzo	2023-03-23T00:00:00	2024-11-06T07:00:00	2	Temperatura media	8.1
85682	7	Sololá	702	San José Chacayá	5	Chacayá	3	Marzo	2023-03-23T00:00:00	2024-11-06T07:00:00	4	Temperatura máxima	8.4
85683	7	Sololá	702	San José Chacayá	5	Chacayá	3	Marzo	2023-03-23T00:00:00	2024-11-06T07:00:00	3	Temperatura mínima	7.9
85684	7	Sololá	702	San José Chacayá	5	Chacayá	3	Marzo	2023-03-23T00:00:00	2024-11-06T07:00:00	5	Humedad	85
85685	7	Sololá	702	San José Chacayá	5	Chacayá	3	Marzo	2023-03-23T00:00:00	2024-11-06T07:00:00	6	Velocidad del viento	4.8
85686	7	Sololá	702	San José Chacayá	5	Chacayá	3	Marzo	2023-03-23T00:00:00	2024-11-06T07:00:00	7	Dirección del viento	4.83
85687	7	Sololá	702	San José Chacayá	5	Chacayá	3	Marzo	2023-03-23T00:00:00	2024-11-06T07:00:00	1	Precipitación	0
85688	7	Sololá	702	San José Chacayá	5	Chacayá	3	Marzo	2023-03-23T00:00:00	2024-11-06T07:00:00	8	Radiación solar	31
85689	7	Sololá	702	San José Chacayá	5	Chacayá	3	Marzo	2023-03-23T00:00:00	2024-11-06T08:00:00	2	Temperatura media	10
85690	7	Sololá	702	San José Chacayá	5	Chacayá	3	Marzo	2023-03-23T00:00:00	2024-11-06T08:00:00	4	Temperatura máxima	10
85691	7	Sololá	702	San José Chacayá	5	Chacayá	3	Marzo	2023-03-23T00:00:00	2024-11-06T08:00:00	3	Temperatura mínima	8.1
85692	7	Sololá	702	San José Chacayá	5	Chacayá	3	Marzo	2023-03-23T00:00:00	2024-11-06T08:00:00	5	Humedad	85
85693	7	Sololá	702	San José Chacayá	5	Chacayá	3	Marzo	2023-03-23T00:00:00	2024-11-06T08:00:00	6	Velocidad del viento	3.2
85694	7	Sololá	702	San José Chacayá	5	Chacayá	3	Marzo	2023-03-23T00:00:00	2024-11-06T08:00:00	7	Dirección del viento	3.22
85695	7	Sololá	702	San José Chacayá	5	Chacayá	3	Marzo	2023-03-23T00:00:00	2024-11-06T08:00:00	1	Precipitación	0
85696	7	Sololá	702	San José Chacayá	5	Chacayá	3	Marzo	2023-03-23T00:00:00	2024-11-06T08:00:00	8	Radiación solar	105
85697	7	Sololá	702	San José Chacayá	5	Chacayá	3	Marzo	2023-03-23T00:00:00	2024-11-06T09:00:00	2	Temperatura media	15.1
85698	7	Sololá	702	San José Chacayá	5	Chacayá	3	Marzo	2023-03-23T00:00:00	2024-11-06T09:00:00	4	Temperatura máxima	15.2
85699	7	Sololá	702	San José Chacayá	5	Chacayá	3	Marzo	2023-03-23T00:00:00	2024-11-06T09:00:00	3	Temperatura mínima	10
85700	7	Sololá	702	San José Chacayá	5	Chacayá	3	Marzo	2023-03-23T00:00:00	2024-11-06T09:00:00	5	Humedad	75
85701	7	Sololá	702	San José Chacayá	5	Chacayá	3	Marzo	2023-03-23T00:00:00	2024-11-06T09:00:00	6	Velocidad del viento	1.6
85702	7	Sololá	702	San José Chacayá	5	Chacayá	3	Marzo	2023-03-23T00:00:00	2024-11-06T09:00:00	7	Dirección del viento	1.61
85703	7	Sololá	702	San José Chacayá	5	Chacayá	3	Marzo	2023-03-23T00:00:00	2024-11-06T09:00:00	1	Precipitación	0
85704	7	Sololá	702	San José Chacayá	5	Chacayá	3	Marzo	2023-03-23T00:00:00	2024-11-06T09:00:00	8	Radiación solar	494
85705	7	Sololá	702	San José Chacayá	5	Chacayá	3	Marzo	2023-03-23T00:00:00	2024-11-06T10:00:00	2	Temperatura media	18.3
85706	7	Sololá	702	San José Chacayá	5	Chacayá	3	Marzo	2023-03-23T00:00:00	2024-11-06T10:00:00	4	Temperatura máxima	18.3
85707	7	Sololá	702	San José Chacayá	5	Chacayá	3	Marzo	2023-03-23T00:00:00	2024-11-06T10:00:00	3	Temperatura mínima	15.1
85708	7	Sololá	702	San José Chacayá	5	Chacayá	3	Marzo	2023-03-23T00:00:00	2024-11-06T10:00:00	5	Humedad	65
85709	7	Sololá	702	San José Chacayá	5	Chacayá	3	Marzo	2023-03-23T00:00:00	2024-11-06T10:00:00	6	Velocidad del viento	4.8
85710	7	Sololá	702	San José Chacayá	5	Chacayá	3	Marzo	2023-03-23T00:00:00	2024-11-06T10:00:00	7	Dirección del viento	4.83
85711	7	Sololá	702	San José Chacayá	5	Chacayá	3	Marzo	2023-03-23T00:00:00	2024-11-06T10:00:00	1	Precipitación	0
85712	7	Sololá	702	San José Chacayá	5	Chacayá	3	Marzo	2023-03-23T00:00:00	2024-11-06T10:00:00	8	Radiación solar	577
85713	7	Sololá	702	San José Chacayá	5	Chacayá	3	Marzo	2023-03-23T00:00:00	2024-11-06T11:00:00	2	Temperatura media	18.3
85714	7	Sololá	702	San José Chacayá	5	Chacayá	3	Marzo	2023-03-23T00:00:00	2024-11-06T11:00:00	4	Temperatura máxima	18.9
85715	7	Sololá	702	San José Chacayá	5	Chacayá	3	Marzo	2023-03-23T00:00:00	2024-11-06T11:00:00	3	Temperatura mínima	17.8
85716	7	Sololá	702	San José Chacayá	5	Chacayá	3	Marzo	2023-03-23T00:00:00	2024-11-06T11:00:00	5	Humedad	65
85717	7	Sololá	702	San José Chacayá	5	Chacayá	3	Marzo	2023-03-23T00:00:00	2024-11-06T11:00:00	6	Velocidad del viento	6.4
85718	7	Sololá	702	San José Chacayá	5	Chacayá	3	Marzo	2023-03-23T00:00:00	2024-11-06T11:00:00	7	Dirección del viento	6.44
85719	7	Sololá	702	San José Chacayá	5	Chacayá	3	Marzo	2023-03-23T00:00:00	2024-11-06T11:00:00	1	Precipitación	0
85720	7	Sololá	702	San José Chacayá	5	Chacayá	3	Marzo	2023-03-23T00:00:00	2024-11-06T11:00:00	8	Radiación solar	867
85721	7	Sololá	702	San José Chacayá	5	Chacayá	3	Marzo	2023-03-23T00:00:00	2024-11-06T12:00:00	2	Temperatura media	20.2
85722	7	Sololá	702	San José Chacayá	5	Chacayá	3	Marzo	2023-03-23T00:00:00	2024-11-06T12:00:00	4	Temperatura máxima	20.6
85723	7	Sololá	702	San José Chacayá	5	Chacayá	3	Marzo	2023-03-23T00:00:00	2024-11-06T12:00:00	3	Temperatura mínima	18.3
85724	7	Sololá	702	San José Chacayá	5	Chacayá	3	Marzo	2023-03-23T00:00:00	2024-11-06T12:00:00	5	Humedad	58
85725	7	Sololá	702	San José Chacayá	5	Chacayá	3	Marzo	2023-03-23T00:00:00	2024-11-06T12:00:00	6	Velocidad del viento	6.4
85726	7	Sololá	702	San José Chacayá	5	Chacayá	3	Marzo	2023-03-23T00:00:00	2024-11-06T12:00:00	7	Dirección del viento	6.44
85727	7	Sololá	702	San José Chacayá	5	Chacayá	3	Marzo	2023-03-23T00:00:00	2024-11-06T12:00:00	1	Precipitación	0
85728	7	Sololá	702	San José Chacayá	5	Chacayá	3	Marzo	2023-03-23T00:00:00	2024-11-06T12:00:00	8	Radiación solar	1121
85729	7	Sololá	702	San José Chacayá	5	Chacayá	3	Marzo	2023-03-23T00:00:00	2024-11-06T13:00:00	2	Temperatura media	21.9
85730	7	Sololá	702	San José Chacayá	5	Chacayá	3	Marzo	2023-03-23T00:00:00	2024-11-06T13:00:00	4	Temperatura máxima	21.9
85731	7	Sololá	702	San José Chacayá	5	Chacayá	3	Marzo	2023-03-23T00:00:00	2024-11-06T13:00:00	3	Temperatura mínima	20.2
85732	7	Sololá	702	San José Chacayá	5	Chacayá	3	Marzo	2023-03-23T00:00:00	2024-11-06T13:00:00	5	Humedad	53
85733	7	Sololá	702	San José Chacayá	5	Chacayá	3	Marzo	2023-03-23T00:00:00	2024-11-06T13:00:00	6	Velocidad del viento	8
85734	7	Sololá	702	San José Chacayá	5	Chacayá	3	Marzo	2023-03-23T00:00:00	2024-11-06T13:00:00	7	Dirección del viento	8.05
85735	7	Sololá	702	San José Chacayá	5	Chacayá	3	Marzo	2023-03-23T00:00:00	2024-11-06T13:00:00	1	Precipitación	0
85736	7	Sololá	702	San José Chacayá	5	Chacayá	3	Marzo	2023-03-23T00:00:00	2024-11-06T13:00:00	8	Radiación solar	696
85737	7	Sololá	702	San José Chacayá	5	Chacayá	3	Marzo	2023-03-23T00:00:00	2024-11-06T14:00:00	2	Temperatura media	21.4
85738	7	Sololá	702	San José Chacayá	5	Chacayá	3	Marzo	2023-03-23T00:00:00	2024-11-06T14:00:00	4	Temperatura máxima	22.1
85739	7	Sololá	702	San José Chacayá	5	Chacayá	3	Marzo	2023-03-23T00:00:00	2024-11-06T14:00:00	3	Temperatura mínima	20.6
85740	7	Sololá	702	San José Chacayá	5	Chacayá	3	Marzo	2023-03-23T00:00:00	2024-11-06T14:00:00	5	Humedad	52
85741	7	Sololá	702	San José Chacayá	5	Chacayá	3	Marzo	2023-03-23T00:00:00	2024-11-06T14:00:00	6	Velocidad del viento	6.4
85742	7	Sololá	702	San José Chacayá	5	Chacayá	3	Marzo	2023-03-23T00:00:00	2024-11-06T14:00:00	7	Dirección del viento	6.44
85743	7	Sololá	702	San José Chacayá	5	Chacayá	3	Marzo	2023-03-23T00:00:00	2024-11-06T14:00:00	1	Precipitación	0
85744	7	Sololá	702	San José Chacayá	5	Chacayá	3	Marzo	2023-03-23T00:00:00	2024-11-06T14:00:00	8	Radiación solar	526
85745	7	Sololá	702	San José Chacayá	5	Chacayá	3	Marzo	2023-03-23T00:00:00	2024-11-06T15:00:00	2	Temperatura media	21.2
85746	7	Sololá	702	San José Chacayá	5	Chacayá	3	Marzo	2023-03-23T00:00:00	2024-11-06T15:00:00	4	Temperatura máxima	22
85747	7	Sololá	702	San José Chacayá	5	Chacayá	3	Marzo	2023-03-23T00:00:00	2024-11-06T15:00:00	3	Temperatura mínima	20.3
85748	7	Sololá	702	San José Chacayá	5	Chacayá	3	Marzo	2023-03-23T00:00:00	2024-11-06T15:00:00	5	Humedad	50
85749	7	Sololá	702	San José Chacayá	5	Chacayá	3	Marzo	2023-03-23T00:00:00	2024-11-06T15:00:00	6	Velocidad del viento	6.4
85750	7	Sololá	702	San José Chacayá	5	Chacayá	3	Marzo	2023-03-23T00:00:00	2024-11-06T15:00:00	7	Dirección del viento	6.44
85751	7	Sololá	702	San José Chacayá	5	Chacayá	3	Marzo	2023-03-23T00:00:00	2024-11-06T15:00:00	1	Precipitación	0
85752	7	Sololá	702	San José Chacayá	5	Chacayá	3	Marzo	2023-03-23T00:00:00	2024-11-06T15:00:00	8	Radiación solar	257
85753	7	Sololá	702	San José Chacayá	5	Chacayá	3	Marzo	2023-03-23T00:00:00	2024-11-06T16:00:00	2	Temperatura media	20.4
85754	7	Sololá	702	San José Chacayá	5	Chacayá	3	Marzo	2023-03-23T00:00:00	2024-11-06T16:00:00	4	Temperatura máxima	21.2
85755	7	Sololá	702	San José Chacayá	5	Chacayá	3	Marzo	2023-03-23T00:00:00	2024-11-06T16:00:00	3	Temperatura mínima	19.7
85756	7	Sololá	702	San José Chacayá	5	Chacayá	3	Marzo	2023-03-23T00:00:00	2024-11-06T16:00:00	5	Humedad	56
85757	7	Sololá	702	San José Chacayá	5	Chacayá	3	Marzo	2023-03-23T00:00:00	2024-11-06T16:00:00	6	Velocidad del viento	4.8
85758	7	Sololá	702	San José Chacayá	5	Chacayá	3	Marzo	2023-03-23T00:00:00	2024-11-06T16:00:00	7	Dirección del viento	4.83
85759	7	Sololá	702	San José Chacayá	5	Chacayá	3	Marzo	2023-03-23T00:00:00	2024-11-06T16:00:00	1	Precipitación	0
85760	7	Sololá	702	San José Chacayá	5	Chacayá	3	Marzo	2023-03-23T00:00:00	2024-11-06T16:00:00	8	Radiación solar	405
85761	7	Sololá	702	San José Chacayá	5	Chacayá	3	Marzo	2023-03-23T00:00:00	2024-11-06T17:00:00	2	Temperatura media	21
85762	7	Sololá	702	San José Chacayá	5	Chacayá	3	Marzo	2023-03-23T00:00:00	2024-11-06T17:00:00	4	Temperatura máxima	21.2
85763	7	Sololá	702	San José Chacayá	5	Chacayá	3	Marzo	2023-03-23T00:00:00	2024-11-06T17:00:00	3	Temperatura mínima	19.7
85764	7	Sololá	702	San José Chacayá	5	Chacayá	3	Marzo	2023-03-23T00:00:00	2024-11-06T17:00:00	5	Humedad	52
85765	7	Sololá	702	San José Chacayá	5	Chacayá	3	Marzo	2023-03-23T00:00:00	2024-11-06T17:00:00	6	Velocidad del viento	4.8
85766	7	Sololá	702	San José Chacayá	5	Chacayá	3	Marzo	2023-03-23T00:00:00	2024-11-06T17:00:00	7	Dirección del viento	4.83
85767	7	Sololá	702	San José Chacayá	5	Chacayá	3	Marzo	2023-03-23T00:00:00	2024-11-06T17:00:00	1	Precipitación	0
85768	7	Sololá	702	San José Chacayá	5	Chacayá	3	Marzo	2023-03-23T00:00:00	2024-11-06T17:00:00	8	Radiación solar	118
85769	7	Sololá	702	San José Chacayá	5	Chacayá	3	Marzo	2023-03-23T00:00:00	2024-11-06T18:00:00	2	Temperatura media	19.3
85770	7	Sololá	702	San José Chacayá	5	Chacayá	3	Marzo	2023-03-23T00:00:00	2024-11-06T18:00:00	4	Temperatura máxima	21
85771	7	Sololá	702	San José Chacayá	5	Chacayá	3	Marzo	2023-03-23T00:00:00	2024-11-06T18:00:00	3	Temperatura mínima	19.3
85772	7	Sololá	702	San José Chacayá	5	Chacayá	3	Marzo	2023-03-23T00:00:00	2024-11-06T18:00:00	5	Humedad	57
85773	7	Sololá	702	San José Chacayá	5	Chacayá	3	Marzo	2023-03-23T00:00:00	2024-11-06T18:00:00	6	Velocidad del viento	3.2
85774	7	Sololá	702	San José Chacayá	5	Chacayá	3	Marzo	2023-03-23T00:00:00	2024-11-06T18:00:00	7	Dirección del viento	3.22
85775	7	Sololá	702	San José Chacayá	5	Chacayá	3	Marzo	2023-03-23T00:00:00	2024-11-06T18:00:00	1	Precipitación	0
85776	7	Sololá	702	San José Chacayá	5	Chacayá	3	Marzo	2023-03-23T00:00:00	2024-11-06T18:00:00	8	Radiación solar	44
85777	7	Sololá	702	San José Chacayá	5	Chacayá	3	Marzo	2023-03-23T00:00:00	2024-11-06T19:00:00	2	Temperatura media	17.1
85778	7	Sololá	702	San José Chacayá	5	Chacayá	3	Marzo	2023-03-23T00:00:00	2024-11-06T19:00:00	4	Temperatura máxima	19.3
85779	7	Sololá	702	San José Chacayá	5	Chacayá	3	Marzo	2023-03-23T00:00:00	2024-11-06T19:00:00	3	Temperatura mínima	17.1
85780	7	Sololá	702	San José Chacayá	5	Chacayá	3	Marzo	2023-03-23T00:00:00	2024-11-06T19:00:00	5	Humedad	65
85781	7	Sololá	702	San José Chacayá	5	Chacayá	3	Marzo	2023-03-23T00:00:00	2024-11-06T19:00:00	6	Velocidad del viento	1.6
85782	7	Sololá	702	San José Chacayá	5	Chacayá	3	Marzo	2023-03-23T00:00:00	2024-11-06T19:00:00	7	Dirección del viento	1.61
85783	7	Sololá	702	San José Chacayá	5	Chacayá	3	Marzo	2023-03-23T00:00:00	2024-11-06T19:00:00	1	Precipitación	0
85784	7	Sololá	702	San José Chacayá	5	Chacayá	3	Marzo	2023-03-23T00:00:00	2024-11-06T19:00:00	8	Radiación solar	0
85785	7	Sololá	702	San José Chacayá	5	Chacayá	3	Marzo	2023-03-23T00:00:00	2024-11-06T20:00:00	2	Temperatura media	16
85786	7	Sololá	702	San José Chacayá	5	Chacayá	3	Marzo	2023-03-23T00:00:00	2024-11-06T20:00:00	4	Temperatura máxima	17.1
85787	7	Sololá	702	San José Chacayá	5	Chacayá	3	Marzo	2023-03-23T00:00:00	2024-11-06T20:00:00	3	Temperatura mínima	16
85788	7	Sololá	702	San José Chacayá	5	Chacayá	3	Marzo	2023-03-23T00:00:00	2024-11-06T20:00:00	5	Humedad	70
85789	7	Sololá	702	San José Chacayá	5	Chacayá	3	Marzo	2023-03-23T00:00:00	2024-11-06T20:00:00	6	Velocidad del viento	1.6
85790	7	Sololá	702	San José Chacayá	5	Chacayá	3	Marzo	2023-03-23T00:00:00	2024-11-06T20:00:00	7	Dirección del viento	1.61
85791	7	Sololá	702	San José Chacayá	5	Chacayá	3	Marzo	2023-03-23T00:00:00	2024-11-06T20:00:00	1	Precipitación	0
85792	7	Sololá	702	San José Chacayá	5	Chacayá	3	Marzo	2023-03-23T00:00:00	2024-11-06T20:00:00	8	Radiación solar	0
85793	7	Sololá	702	San José Chacayá	5	Chacayá	3	Marzo	2023-03-23T00:00:00	2024-11-06T21:00:00	2	Temperatura media	15.3
85794	7	Sololá	702	San José Chacayá	5	Chacayá	3	Marzo	2023-03-23T00:00:00	2024-11-06T21:00:00	4	Temperatura máxima	16
85795	7	Sololá	702	San José Chacayá	5	Chacayá	3	Marzo	2023-03-23T00:00:00	2024-11-06T21:00:00	3	Temperatura mínima	15.3
85796	7	Sololá	702	San José Chacayá	5	Chacayá	3	Marzo	2023-03-23T00:00:00	2024-11-06T21:00:00	5	Humedad	73
85797	7	Sololá	702	San José Chacayá	5	Chacayá	3	Marzo	2023-03-23T00:00:00	2024-11-06T21:00:00	6	Velocidad del viento	3.2
85798	7	Sololá	702	San José Chacayá	5	Chacayá	3	Marzo	2023-03-23T00:00:00	2024-11-06T21:00:00	7	Dirección del viento	3.22
85799	7	Sololá	702	San José Chacayá	5	Chacayá	3	Marzo	2023-03-23T00:00:00	2024-11-06T21:00:00	1	Precipitación	0
85800	7	Sololá	702	San José Chacayá	5	Chacayá	3	Marzo	2023-03-23T00:00:00	2024-11-06T21:00:00	8	Radiación solar	0
85801	7	Sololá	702	San José Chacayá	5	Chacayá	3	Marzo	2023-03-23T00:00:00	2024-11-06T22:00:00	2	Temperatura media	14.4
85802	7	Sololá	702	San José Chacayá	5	Chacayá	3	Marzo	2023-03-23T00:00:00	2024-11-06T22:00:00	4	Temperatura máxima	15.3
85803	7	Sololá	702	San José Chacayá	5	Chacayá	3	Marzo	2023-03-23T00:00:00	2024-11-06T22:00:00	3	Temperatura mínima	14.4
85804	7	Sololá	702	San José Chacayá	5	Chacayá	3	Marzo	2023-03-23T00:00:00	2024-11-06T22:00:00	5	Humedad	77
85805	7	Sololá	702	San José Chacayá	5	Chacayá	3	Marzo	2023-03-23T00:00:00	2024-11-06T22:00:00	6	Velocidad del viento	3.2
85806	7	Sololá	702	San José Chacayá	5	Chacayá	3	Marzo	2023-03-23T00:00:00	2024-11-06T22:00:00	7	Dirección del viento	3.22
85807	7	Sololá	702	San José Chacayá	5	Chacayá	3	Marzo	2023-03-23T00:00:00	2024-11-06T22:00:00	1	Precipitación	0
85808	7	Sololá	702	San José Chacayá	5	Chacayá	3	Marzo	2023-03-23T00:00:00	2024-11-06T22:00:00	8	Radiación solar	0
85809	7	Sololá	702	San José Chacayá	5	Chacayá	3	Marzo	2023-03-23T00:00:00	2024-11-06T23:00:00	2	Temperatura media	12.2
85810	7	Sololá	702	San José Chacayá	5	Chacayá	3	Marzo	2023-03-23T00:00:00	2024-11-06T23:00:00	4	Temperatura máxima	14.4
85811	7	Sololá	702	San José Chacayá	5	Chacayá	3	Marzo	2023-03-23T00:00:00	2024-11-06T23:00:00	3	Temperatura mínima	12.2
85812	7	Sololá	702	San José Chacayá	5	Chacayá	3	Marzo	2023-03-23T00:00:00	2024-11-06T23:00:00	5	Humedad	83
85813	7	Sololá	702	San José Chacayá	5	Chacayá	3	Marzo	2023-03-23T00:00:00	2024-11-06T23:00:00	6	Velocidad del viento	1.6
85814	7	Sololá	702	San José Chacayá	5	Chacayá	3	Marzo	2023-03-23T00:00:00	2024-11-06T23:00:00	7	Dirección del viento	1.61
85815	7	Sololá	702	San José Chacayá	5	Chacayá	3	Marzo	2023-03-23T00:00:00	2024-11-06T23:00:00	1	Precipitación	0
85816	7	Sololá	702	San José Chacayá	5	Chacayá	3	Marzo	2023-03-23T00:00:00	2024-11-06T23:00:00	8	Radiación solar	0
85817	7	Sololá	702	San José Chacayá	5	Chacayá	3	Marzo	2023-03-24T00:00:00	2024-11-06T00:00:00	2	Temperatura media	10.5
85818	7	Sololá	702	San José Chacayá	5	Chacayá	3	Marzo	2023-03-24T00:00:00	2024-11-06T00:00:00	4	Temperatura máxima	12.2
85819	7	Sololá	702	San José Chacayá	5	Chacayá	3	Marzo	2023-03-24T00:00:00	2024-11-06T00:00:00	3	Temperatura mínima	10.5
85820	7	Sololá	702	San José Chacayá	5	Chacayá	3	Marzo	2023-03-24T00:00:00	2024-11-06T00:00:00	5	Humedad	85
85821	7	Sololá	702	San José Chacayá	5	Chacayá	3	Marzo	2023-03-24T00:00:00	2024-11-06T00:00:00	6	Velocidad del viento	0
85822	7	Sololá	702	San José Chacayá	5	Chacayá	3	Marzo	2023-03-24T00:00:00	2024-11-06T00:00:00	7	Dirección del viento	0
85823	7	Sololá	702	San José Chacayá	5	Chacayá	3	Marzo	2023-03-24T00:00:00	2024-11-06T00:00:00	1	Precipitación	0
85824	7	Sololá	702	San José Chacayá	5	Chacayá	3	Marzo	2023-03-24T00:00:00	2024-11-06T00:00:00	8	Radiación solar	0
85825	7	Sololá	702	San José Chacayá	5	Chacayá	3	Marzo	2023-03-24T00:00:00	2024-11-06T01:00:00	2	Temperatura media	9.7
85826	7	Sololá	702	San José Chacayá	5	Chacayá	3	Marzo	2023-03-24T00:00:00	2024-11-06T01:00:00	4	Temperatura máxima	10.5
85827	7	Sololá	702	San José Chacayá	5	Chacayá	3	Marzo	2023-03-24T00:00:00	2024-11-06T01:00:00	3	Temperatura mínima	9.7
85828	7	Sololá	702	San José Chacayá	5	Chacayá	3	Marzo	2023-03-24T00:00:00	2024-11-06T01:00:00	5	Humedad	85
85829	7	Sololá	702	San José Chacayá	5	Chacayá	3	Marzo	2023-03-24T00:00:00	2024-11-06T01:00:00	6	Velocidad del viento	1.6
85830	7	Sololá	702	San José Chacayá	5	Chacayá	3	Marzo	2023-03-24T00:00:00	2024-11-06T01:00:00	7	Dirección del viento	1.61
85831	7	Sololá	702	San José Chacayá	5	Chacayá	3	Marzo	2023-03-24T00:00:00	2024-11-06T01:00:00	1	Precipitación	0
85832	7	Sololá	702	San José Chacayá	5	Chacayá	3	Marzo	2023-03-24T00:00:00	2024-11-06T01:00:00	8	Radiación solar	0
85833	7	Sololá	702	San José Chacayá	5	Chacayá	3	Marzo	2023-03-24T00:00:00	2024-11-06T02:00:00	2	Temperatura media	9.1
85834	7	Sololá	702	San José Chacayá	5	Chacayá	3	Marzo	2023-03-24T00:00:00	2024-11-06T02:00:00	4	Temperatura máxima	9.7
85835	7	Sololá	702	San José Chacayá	5	Chacayá	3	Marzo	2023-03-24T00:00:00	2024-11-06T02:00:00	3	Temperatura mínima	9.1
85836	7	Sololá	702	San José Chacayá	5	Chacayá	3	Marzo	2023-03-24T00:00:00	2024-11-06T02:00:00	5	Humedad	85
85837	7	Sololá	702	San José Chacayá	5	Chacayá	3	Marzo	2023-03-24T00:00:00	2024-11-06T02:00:00	6	Velocidad del viento	3.2
85838	7	Sololá	702	San José Chacayá	5	Chacayá	3	Marzo	2023-03-24T00:00:00	2024-11-06T02:00:00	7	Dirección del viento	3.22
85839	7	Sololá	702	San José Chacayá	5	Chacayá	3	Marzo	2023-03-24T00:00:00	2024-11-06T02:00:00	1	Precipitación	0
85840	7	Sololá	702	San José Chacayá	5	Chacayá	3	Marzo	2023-03-24T00:00:00	2024-11-06T02:00:00	8	Radiación solar	0
85841	7	Sololá	702	San José Chacayá	5	Chacayá	3	Marzo	2023-03-24T00:00:00	2024-11-06T03:00:00	2	Temperatura media	9.3
85842	7	Sololá	702	San José Chacayá	5	Chacayá	3	Marzo	2023-03-24T00:00:00	2024-11-06T03:00:00	4	Temperatura máxima	9.4
85843	7	Sololá	702	San José Chacayá	5	Chacayá	3	Marzo	2023-03-24T00:00:00	2024-11-06T03:00:00	3	Temperatura mínima	8.9
85844	7	Sololá	702	San José Chacayá	5	Chacayá	3	Marzo	2023-03-24T00:00:00	2024-11-06T03:00:00	5	Humedad	83
85845	7	Sololá	702	San José Chacayá	5	Chacayá	3	Marzo	2023-03-24T00:00:00	2024-11-06T03:00:00	6	Velocidad del viento	6.4
85846	7	Sololá	702	San José Chacayá	5	Chacayá	3	Marzo	2023-03-24T00:00:00	2024-11-06T03:00:00	7	Dirección del viento	6.44
85847	7	Sololá	702	San José Chacayá	5	Chacayá	3	Marzo	2023-03-24T00:00:00	2024-11-06T03:00:00	1	Precipitación	0
85848	7	Sololá	702	San José Chacayá	5	Chacayá	3	Marzo	2023-03-24T00:00:00	2024-11-06T03:00:00	8	Radiación solar	0
85849	7	Sololá	702	San José Chacayá	5	Chacayá	3	Marzo	2023-03-24T00:00:00	2024-11-06T04:00:00	2	Temperatura media	8.7
85850	7	Sololá	702	San José Chacayá	5	Chacayá	3	Marzo	2023-03-24T00:00:00	2024-11-06T04:00:00	4	Temperatura máxima	9.4
85851	7	Sololá	702	San José Chacayá	5	Chacayá	3	Marzo	2023-03-24T00:00:00	2024-11-06T04:00:00	3	Temperatura mínima	8.5
85852	7	Sololá	702	San José Chacayá	5	Chacayá	3	Marzo	2023-03-24T00:00:00	2024-11-06T04:00:00	5	Humedad	82
85853	7	Sololá	702	San José Chacayá	5	Chacayá	3	Marzo	2023-03-24T00:00:00	2024-11-06T04:00:00	6	Velocidad del viento	4.8
85854	7	Sololá	702	San José Chacayá	5	Chacayá	3	Marzo	2023-03-24T00:00:00	2024-11-06T04:00:00	7	Dirección del viento	4.83
85855	7	Sololá	702	San José Chacayá	5	Chacayá	3	Marzo	2023-03-24T00:00:00	2024-11-06T04:00:00	1	Precipitación	0
85856	7	Sololá	702	San José Chacayá	5	Chacayá	3	Marzo	2023-03-24T00:00:00	2024-11-06T04:00:00	8	Radiación solar	0
85857	7	Sololá	702	San José Chacayá	5	Chacayá	3	Marzo	2023-03-24T00:00:00	2024-11-06T05:00:00	2	Temperatura media	7.9
85858	7	Sololá	702	San José Chacayá	5	Chacayá	3	Marzo	2023-03-24T00:00:00	2024-11-06T05:00:00	4	Temperatura máxima	8.7
85859	7	Sololá	702	San José Chacayá	5	Chacayá	3	Marzo	2023-03-24T00:00:00	2024-11-06T05:00:00	3	Temperatura mínima	7.9
85860	7	Sololá	702	San José Chacayá	5	Chacayá	3	Marzo	2023-03-24T00:00:00	2024-11-06T05:00:00	5	Humedad	84
85861	7	Sololá	702	San José Chacayá	5	Chacayá	3	Marzo	2023-03-24T00:00:00	2024-11-06T05:00:00	6	Velocidad del viento	6.4
85862	7	Sololá	702	San José Chacayá	5	Chacayá	3	Marzo	2023-03-24T00:00:00	2024-11-06T05:00:00	7	Dirección del viento	6.44
85863	7	Sololá	702	San José Chacayá	5	Chacayá	3	Marzo	2023-03-24T00:00:00	2024-11-06T05:00:00	1	Precipitación	0
85864	7	Sololá	702	San José Chacayá	5	Chacayá	3	Marzo	2023-03-24T00:00:00	2024-11-06T05:00:00	8	Radiación solar	0
85865	7	Sololá	702	San José Chacayá	5	Chacayá	3	Marzo	2023-03-24T00:00:00	2024-11-06T06:00:00	2	Temperatura media	7.7
85866	7	Sololá	702	San José Chacayá	5	Chacayá	3	Marzo	2023-03-24T00:00:00	2024-11-06T06:00:00	4	Temperatura máxima	8.7
85867	7	Sololá	702	San José Chacayá	5	Chacayá	3	Marzo	2023-03-24T00:00:00	2024-11-06T06:00:00	3	Temperatura mínima	7.7
85868	7	Sololá	702	San José Chacayá	5	Chacayá	3	Marzo	2023-03-24T00:00:00	2024-11-06T06:00:00	5	Humedad	85
85869	7	Sololá	702	San José Chacayá	5	Chacayá	3	Marzo	2023-03-24T00:00:00	2024-11-06T06:00:00	6	Velocidad del viento	4.8
85870	7	Sololá	702	San José Chacayá	5	Chacayá	3	Marzo	2023-03-24T00:00:00	2024-11-06T06:00:00	7	Dirección del viento	4.83
85871	7	Sololá	702	San José Chacayá	5	Chacayá	3	Marzo	2023-03-24T00:00:00	2024-11-06T06:00:00	1	Precipitación	0
85872	7	Sololá	702	San José Chacayá	5	Chacayá	3	Marzo	2023-03-24T00:00:00	2024-11-06T06:00:00	8	Radiación solar	0
85873	7	Sololá	702	San José Chacayá	5	Chacayá	3	Marzo	2023-03-24T00:00:00	2024-11-06T07:00:00	2	Temperatura media	7.1
85874	7	Sololá	702	San José Chacayá	5	Chacayá	3	Marzo	2023-03-24T00:00:00	2024-11-06T07:00:00	4	Temperatura máxima	7.7
85875	7	Sololá	702	San José Chacayá	5	Chacayá	3	Marzo	2023-03-24T00:00:00	2024-11-06T07:00:00	3	Temperatura mínima	7.1
85876	7	Sololá	702	San José Chacayá	5	Chacayá	3	Marzo	2023-03-24T00:00:00	2024-11-06T07:00:00	5	Humedad	86
85877	7	Sololá	702	San José Chacayá	5	Chacayá	3	Marzo	2023-03-24T00:00:00	2024-11-06T07:00:00	6	Velocidad del viento	4.8
85878	7	Sololá	702	San José Chacayá	5	Chacayá	3	Marzo	2023-03-24T00:00:00	2024-11-06T07:00:00	7	Dirección del viento	4.83
85879	7	Sololá	702	San José Chacayá	5	Chacayá	3	Marzo	2023-03-24T00:00:00	2024-11-06T07:00:00	1	Precipitación	0
85880	7	Sololá	702	San José Chacayá	5	Chacayá	3	Marzo	2023-03-24T00:00:00	2024-11-06T07:00:00	8	Radiación solar	28
85881	7	Sololá	702	San José Chacayá	5	Chacayá	3	Marzo	2023-03-24T00:00:00	2024-11-06T08:00:00	2	Temperatura media	8.8
85882	7	Sololá	702	San José Chacayá	5	Chacayá	3	Marzo	2023-03-24T00:00:00	2024-11-06T08:00:00	4	Temperatura máxima	8.8
85883	7	Sololá	702	San José Chacayá	5	Chacayá	3	Marzo	2023-03-24T00:00:00	2024-11-06T08:00:00	3	Temperatura mínima	7
85884	7	Sololá	702	San José Chacayá	5	Chacayá	3	Marzo	2023-03-24T00:00:00	2024-11-06T08:00:00	5	Humedad	85
85885	7	Sololá	702	San José Chacayá	5	Chacayá	3	Marzo	2023-03-24T00:00:00	2024-11-06T08:00:00	6	Velocidad del viento	4.8
85886	7	Sololá	702	San José Chacayá	5	Chacayá	3	Marzo	2023-03-24T00:00:00	2024-11-06T08:00:00	7	Dirección del viento	4.83
85887	7	Sololá	702	San José Chacayá	5	Chacayá	3	Marzo	2023-03-24T00:00:00	2024-11-06T08:00:00	1	Precipitación	0
85888	7	Sololá	702	San José Chacayá	5	Chacayá	3	Marzo	2023-03-24T00:00:00	2024-11-06T08:00:00	8	Radiación solar	115
85889	7	Sololá	702	San José Chacayá	5	Chacayá	3	Marzo	2023-03-24T00:00:00	2024-11-06T09:00:00	2	Temperatura media	14.2
85890	7	Sololá	702	San José Chacayá	5	Chacayá	3	Marzo	2023-03-24T00:00:00	2024-11-06T09:00:00	4	Temperatura máxima	14.2
85891	7	Sololá	702	San José Chacayá	5	Chacayá	3	Marzo	2023-03-24T00:00:00	2024-11-06T09:00:00	3	Temperatura mínima	8.8
85892	7	Sololá	702	San José Chacayá	5	Chacayá	3	Marzo	2023-03-24T00:00:00	2024-11-06T09:00:00	5	Humedad	79
85893	7	Sololá	702	San José Chacayá	5	Chacayá	3	Marzo	2023-03-24T00:00:00	2024-11-06T09:00:00	6	Velocidad del viento	1.6
85894	7	Sololá	702	San José Chacayá	5	Chacayá	3	Marzo	2023-03-24T00:00:00	2024-11-06T09:00:00	7	Dirección del viento	1.61
85895	7	Sololá	702	San José Chacayá	5	Chacayá	3	Marzo	2023-03-24T00:00:00	2024-11-06T09:00:00	1	Precipitación	0
85896	7	Sololá	702	San José Chacayá	5	Chacayá	3	Marzo	2023-03-24T00:00:00	2024-11-06T09:00:00	8	Radiación solar	418
85897	7	Sololá	702	San José Chacayá	5	Chacayá	3	Marzo	2023-03-24T00:00:00	2024-11-06T10:00:00	2	Temperatura media	17.1
85898	7	Sololá	702	San José Chacayá	5	Chacayá	3	Marzo	2023-03-24T00:00:00	2024-11-06T10:00:00	4	Temperatura máxima	17.1
85899	7	Sololá	702	San José Chacayá	5	Chacayá	3	Marzo	2023-03-24T00:00:00	2024-11-06T10:00:00	3	Temperatura mínima	14.2
85900	7	Sololá	702	San José Chacayá	5	Chacayá	3	Marzo	2023-03-24T00:00:00	2024-11-06T10:00:00	5	Humedad	69
85901	7	Sololá	702	San José Chacayá	5	Chacayá	3	Marzo	2023-03-24T00:00:00	2024-11-06T10:00:00	6	Velocidad del viento	3.2
85902	7	Sololá	702	San José Chacayá	5	Chacayá	3	Marzo	2023-03-24T00:00:00	2024-11-06T10:00:00	7	Dirección del viento	3.22
85903	7	Sololá	702	San José Chacayá	5	Chacayá	3	Marzo	2023-03-24T00:00:00	2024-11-06T10:00:00	1	Precipitación	0
85904	7	Sololá	702	San José Chacayá	5	Chacayá	3	Marzo	2023-03-24T00:00:00	2024-11-06T10:00:00	8	Radiación solar	777
85905	7	Sololá	702	San José Chacayá	5	Chacayá	3	Marzo	2023-03-24T00:00:00	2024-11-06T11:00:00	2	Temperatura media	19.6
85906	7	Sololá	702	San José Chacayá	5	Chacayá	3	Marzo	2023-03-24T00:00:00	2024-11-06T11:00:00	4	Temperatura máxima	19.7
85907	7	Sololá	702	San José Chacayá	5	Chacayá	3	Marzo	2023-03-24T00:00:00	2024-11-06T11:00:00	3	Temperatura mínima	17.1
85908	7	Sololá	702	San José Chacayá	5	Chacayá	3	Marzo	2023-03-24T00:00:00	2024-11-06T11:00:00	5	Humedad	63
85909	7	Sololá	702	San José Chacayá	5	Chacayá	3	Marzo	2023-03-24T00:00:00	2024-11-06T11:00:00	6	Velocidad del viento	4.8
85910	7	Sololá	702	San José Chacayá	5	Chacayá	3	Marzo	2023-03-24T00:00:00	2024-11-06T11:00:00	7	Dirección del viento	4.83
85911	7	Sololá	702	San José Chacayá	5	Chacayá	3	Marzo	2023-03-24T00:00:00	2024-11-06T11:00:00	1	Precipitación	0
85912	7	Sololá	702	San José Chacayá	5	Chacayá	3	Marzo	2023-03-24T00:00:00	2024-11-06T11:00:00	8	Radiación solar	862
85913	7	Sololá	702	San José Chacayá	5	Chacayá	3	Marzo	2023-03-24T00:00:00	2024-11-06T12:00:00	2	Temperatura media	20
85914	7	Sololá	702	San José Chacayá	5	Chacayá	3	Marzo	2023-03-24T00:00:00	2024-11-06T12:00:00	4	Temperatura máxima	20.7
85915	7	Sololá	702	San José Chacayá	5	Chacayá	3	Marzo	2023-03-24T00:00:00	2024-11-06T12:00:00	3	Temperatura mínima	19.6
85916	7	Sololá	702	San José Chacayá	5	Chacayá	3	Marzo	2023-03-24T00:00:00	2024-11-06T12:00:00	5	Humedad	58
85917	7	Sololá	702	San José Chacayá	5	Chacayá	3	Marzo	2023-03-24T00:00:00	2024-11-06T12:00:00	6	Velocidad del viento	6.4
85918	7	Sololá	702	San José Chacayá	5	Chacayá	3	Marzo	2023-03-24T00:00:00	2024-11-06T12:00:00	7	Dirección del viento	6.44
85919	7	Sololá	702	San José Chacayá	5	Chacayá	3	Marzo	2023-03-24T00:00:00	2024-11-06T12:00:00	1	Precipitación	0
85920	7	Sololá	702	San José Chacayá	5	Chacayá	3	Marzo	2023-03-24T00:00:00	2024-11-06T12:00:00	8	Radiación solar	972
85921	7	Sololá	702	San José Chacayá	5	Chacayá	3	Marzo	2023-03-24T00:00:00	2024-11-06T13:00:00	2	Temperatura media	19.3
85922	7	Sololá	702	San José Chacayá	5	Chacayá	3	Marzo	2023-03-24T00:00:00	2024-11-06T13:00:00	4	Temperatura máxima	20.2
85923	7	Sololá	702	San José Chacayá	5	Chacayá	3	Marzo	2023-03-24T00:00:00	2024-11-06T13:00:00	3	Temperatura mínima	19.2
85924	7	Sololá	702	San José Chacayá	5	Chacayá	3	Marzo	2023-03-24T00:00:00	2024-11-06T13:00:00	5	Humedad	71
85925	7	Sololá	702	San José Chacayá	5	Chacayá	3	Marzo	2023-03-24T00:00:00	2024-11-06T13:00:00	6	Velocidad del viento	6.4
85926	7	Sololá	702	San José Chacayá	5	Chacayá	3	Marzo	2023-03-24T00:00:00	2024-11-06T13:00:00	7	Dirección del viento	6.44
85927	7	Sololá	702	San José Chacayá	5	Chacayá	3	Marzo	2023-03-24T00:00:00	2024-11-06T13:00:00	1	Precipitación	0
85928	7	Sololá	702	San José Chacayá	5	Chacayá	3	Marzo	2023-03-24T00:00:00	2024-11-06T13:00:00	8	Radiación solar	897
85929	7	Sololá	702	San José Chacayá	5	Chacayá	3	Marzo	2023-03-24T00:00:00	2024-11-06T14:00:00	2	Temperatura media	19.3
85930	7	Sololá	702	San José Chacayá	5	Chacayá	3	Marzo	2023-03-24T00:00:00	2024-11-06T14:00:00	4	Temperatura máxima	19.3
85931	7	Sololá	702	San José Chacayá	5	Chacayá	3	Marzo	2023-03-24T00:00:00	2024-11-06T14:00:00	3	Temperatura mínima	18.8
85932	7	Sololá	702	San José Chacayá	5	Chacayá	3	Marzo	2023-03-24T00:00:00	2024-11-06T14:00:00	5	Humedad	73
85933	7	Sololá	702	San José Chacayá	5	Chacayá	3	Marzo	2023-03-24T00:00:00	2024-11-06T14:00:00	6	Velocidad del viento	8
85934	7	Sololá	702	San José Chacayá	5	Chacayá	3	Marzo	2023-03-24T00:00:00	2024-11-06T14:00:00	7	Dirección del viento	8.05
85935	7	Sololá	702	San José Chacayá	5	Chacayá	3	Marzo	2023-03-24T00:00:00	2024-11-06T14:00:00	1	Precipitación	0
85936	7	Sololá	702	San José Chacayá	5	Chacayá	3	Marzo	2023-03-24T00:00:00	2024-11-06T14:00:00	8	Radiación solar	895
85937	7	Sololá	702	San José Chacayá	5	Chacayá	3	Marzo	2023-03-24T00:00:00	2024-11-06T15:00:00	2	Temperatura media	19.7
85938	7	Sololá	702	San José Chacayá	5	Chacayá	3	Marzo	2023-03-24T00:00:00	2024-11-06T15:00:00	4	Temperatura máxima	20.3
85939	7	Sololá	702	San José Chacayá	5	Chacayá	3	Marzo	2023-03-24T00:00:00	2024-11-06T15:00:00	3	Temperatura mínima	18.6
85940	7	Sololá	702	San José Chacayá	5	Chacayá	3	Marzo	2023-03-24T00:00:00	2024-11-06T15:00:00	5	Humedad	70
85941	7	Sololá	702	San José Chacayá	5	Chacayá	3	Marzo	2023-03-24T00:00:00	2024-11-06T15:00:00	6	Velocidad del viento	8
85942	7	Sololá	702	San José Chacayá	5	Chacayá	3	Marzo	2023-03-24T00:00:00	2024-11-06T15:00:00	7	Dirección del viento	8.05
85943	7	Sololá	702	San José Chacayá	5	Chacayá	3	Marzo	2023-03-24T00:00:00	2024-11-06T15:00:00	1	Precipitación	0
85944	7	Sololá	702	San José Chacayá	5	Chacayá	3	Marzo	2023-03-24T00:00:00	2024-11-06T15:00:00	8	Radiación solar	778
85945	7	Sololá	702	San José Chacayá	5	Chacayá	3	Marzo	2023-03-24T00:00:00	2024-11-06T16:00:00	2	Temperatura media	18.2
85946	7	Sololá	702	San José Chacayá	5	Chacayá	3	Marzo	2023-03-24T00:00:00	2024-11-06T16:00:00	4	Temperatura máxima	20.2
85947	7	Sololá	702	San José Chacayá	5	Chacayá	3	Marzo	2023-03-24T00:00:00	2024-11-06T16:00:00	3	Temperatura mínima	18.1
85948	7	Sololá	702	San José Chacayá	5	Chacayá	3	Marzo	2023-03-24T00:00:00	2024-11-06T16:00:00	5	Humedad	76
85949	7	Sololá	702	San José Chacayá	5	Chacayá	3	Marzo	2023-03-24T00:00:00	2024-11-06T16:00:00	6	Velocidad del viento	9.7
85950	7	Sololá	702	San José Chacayá	5	Chacayá	3	Marzo	2023-03-24T00:00:00	2024-11-06T16:00:00	7	Dirección del viento	9.66
85951	7	Sololá	702	San José Chacayá	5	Chacayá	3	Marzo	2023-03-24T00:00:00	2024-11-06T16:00:00	1	Precipitación	0
85952	7	Sololá	702	San José Chacayá	5	Chacayá	3	Marzo	2023-03-24T00:00:00	2024-11-06T16:00:00	8	Radiación solar	379
85953	7	Sololá	702	San José Chacayá	5	Chacayá	3	Marzo	2023-03-24T00:00:00	2024-11-06T17:00:00	2	Temperatura media	19.1
85954	7	Sololá	702	San José Chacayá	5	Chacayá	3	Marzo	2023-03-24T00:00:00	2024-11-06T17:00:00	4	Temperatura máxima	19.2
85955	7	Sololá	702	San José Chacayá	5	Chacayá	3	Marzo	2023-03-24T00:00:00	2024-11-06T17:00:00	3	Temperatura mínima	17.4
85956	7	Sololá	702	San José Chacayá	5	Chacayá	3	Marzo	2023-03-24T00:00:00	2024-11-06T17:00:00	5	Humedad	75
85957	7	Sololá	702	San José Chacayá	5	Chacayá	3	Marzo	2023-03-24T00:00:00	2024-11-06T17:00:00	6	Velocidad del viento	4.8
85958	7	Sololá	702	San José Chacayá	5	Chacayá	3	Marzo	2023-03-24T00:00:00	2024-11-06T17:00:00	7	Dirección del viento	4.83
85959	7	Sololá	702	San José Chacayá	5	Chacayá	3	Marzo	2023-03-24T00:00:00	2024-11-06T17:00:00	1	Precipitación	0
85960	7	Sololá	702	San José Chacayá	5	Chacayá	3	Marzo	2023-03-24T00:00:00	2024-11-06T17:00:00	8	Radiación solar	100
85961	7	Sololá	702	San José Chacayá	5	Chacayá	3	Marzo	2023-03-24T00:00:00	2024-11-06T18:00:00	2	Temperatura media	17.3
85962	7	Sololá	702	San José Chacayá	5	Chacayá	3	Marzo	2023-03-24T00:00:00	2024-11-06T18:00:00	4	Temperatura máxima	19.1
85963	7	Sololá	702	San José Chacayá	5	Chacayá	3	Marzo	2023-03-24T00:00:00	2024-11-06T18:00:00	3	Temperatura mínima	17.1
85964	7	Sololá	702	San José Chacayá	5	Chacayá	3	Marzo	2023-03-24T00:00:00	2024-11-06T18:00:00	5	Humedad	80
85965	7	Sololá	702	San José Chacayá	5	Chacayá	3	Marzo	2023-03-24T00:00:00	2024-11-06T18:00:00	6	Velocidad del viento	3.2
85966	7	Sololá	702	San José Chacayá	5	Chacayá	3	Marzo	2023-03-24T00:00:00	2024-11-06T18:00:00	7	Dirección del viento	3.22
85967	7	Sololá	702	San José Chacayá	5	Chacayá	3	Marzo	2023-03-24T00:00:00	2024-11-06T18:00:00	1	Precipitación	0
85968	7	Sololá	702	San José Chacayá	5	Chacayá	3	Marzo	2023-03-24T00:00:00	2024-11-06T18:00:00	8	Radiación solar	31
85969	7	Sololá	702	San José Chacayá	5	Chacayá	3	Marzo	2023-03-24T00:00:00	2024-11-06T19:00:00	2	Temperatura media	15.7
85970	7	Sololá	702	San José Chacayá	5	Chacayá	3	Marzo	2023-03-24T00:00:00	2024-11-06T19:00:00	4	Temperatura máxima	17.3
85971	7	Sololá	702	San José Chacayá	5	Chacayá	3	Marzo	2023-03-24T00:00:00	2024-11-06T19:00:00	3	Temperatura mínima	15.7
85972	7	Sololá	702	San José Chacayá	5	Chacayá	3	Marzo	2023-03-24T00:00:00	2024-11-06T19:00:00	5	Humedad	84
85973	7	Sololá	702	San José Chacayá	5	Chacayá	3	Marzo	2023-03-24T00:00:00	2024-11-06T19:00:00	6	Velocidad del viento	3.2
85974	7	Sololá	702	San José Chacayá	5	Chacayá	3	Marzo	2023-03-24T00:00:00	2024-11-06T19:00:00	7	Dirección del viento	3.22
85975	7	Sololá	702	San José Chacayá	5	Chacayá	3	Marzo	2023-03-24T00:00:00	2024-11-06T19:00:00	1	Precipitación	0
85976	7	Sololá	702	San José Chacayá	5	Chacayá	3	Marzo	2023-03-24T00:00:00	2024-11-06T19:00:00	8	Radiación solar	0
85977	7	Sololá	702	San José Chacayá	5	Chacayá	3	Marzo	2023-03-24T00:00:00	2024-11-06T20:00:00	2	Temperatura media	15.3
85978	7	Sololá	702	San José Chacayá	5	Chacayá	3	Marzo	2023-03-24T00:00:00	2024-11-06T20:00:00	4	Temperatura máxima	15.7
85979	7	Sololá	702	San José Chacayá	5	Chacayá	3	Marzo	2023-03-24T00:00:00	2024-11-06T20:00:00	3	Temperatura mínima	15.2
85980	7	Sololá	702	San José Chacayá	5	Chacayá	3	Marzo	2023-03-24T00:00:00	2024-11-06T20:00:00	5	Humedad	80
85981	7	Sololá	702	San José Chacayá	5	Chacayá	3	Marzo	2023-03-24T00:00:00	2024-11-06T20:00:00	6	Velocidad del viento	1.6
85982	7	Sololá	702	San José Chacayá	5	Chacayá	3	Marzo	2023-03-24T00:00:00	2024-11-06T20:00:00	7	Dirección del viento	1.61
85983	7	Sololá	702	San José Chacayá	5	Chacayá	3	Marzo	2023-03-24T00:00:00	2024-11-06T20:00:00	1	Precipitación	0
85984	7	Sololá	702	San José Chacayá	5	Chacayá	3	Marzo	2023-03-24T00:00:00	2024-11-06T20:00:00	8	Radiación solar	0
85985	7	Sololá	702	San José Chacayá	5	Chacayá	3	Marzo	2023-03-24T00:00:00	2024-11-06T21:00:00	2	Temperatura media	15
85986	7	Sololá	702	San José Chacayá	5	Chacayá	3	Marzo	2023-03-24T00:00:00	2024-11-06T21:00:00	4	Temperatura máxima	15.3
85987	7	Sololá	702	San José Chacayá	5	Chacayá	3	Marzo	2023-03-24T00:00:00	2024-11-06T21:00:00	3	Temperatura mínima	15
85988	7	Sololá	702	San José Chacayá	5	Chacayá	3	Marzo	2023-03-24T00:00:00	2024-11-06T21:00:00	5	Humedad	78
85989	7	Sololá	702	San José Chacayá	5	Chacayá	3	Marzo	2023-03-24T00:00:00	2024-11-06T21:00:00	6	Velocidad del viento	1.6
85990	7	Sololá	702	San José Chacayá	5	Chacayá	3	Marzo	2023-03-24T00:00:00	2024-11-06T21:00:00	7	Dirección del viento	1.61
85991	7	Sololá	702	San José Chacayá	5	Chacayá	3	Marzo	2023-03-24T00:00:00	2024-11-06T21:00:00	1	Precipitación	0
85992	7	Sololá	702	San José Chacayá	5	Chacayá	3	Marzo	2023-03-24T00:00:00	2024-11-06T21:00:00	8	Radiación solar	0
85993	7	Sololá	702	San José Chacayá	5	Chacayá	3	Marzo	2023-03-24T00:00:00	2024-11-06T22:00:00	2	Temperatura media	14.8
85994	7	Sololá	702	San José Chacayá	5	Chacayá	3	Marzo	2023-03-24T00:00:00	2024-11-06T22:00:00	4	Temperatura máxima	15
85995	7	Sololá	702	San José Chacayá	5	Chacayá	3	Marzo	2023-03-24T00:00:00	2024-11-06T22:00:00	3	Temperatura mínima	14.8
85996	7	Sololá	702	San José Chacayá	5	Chacayá	3	Marzo	2023-03-24T00:00:00	2024-11-06T22:00:00	5	Humedad	72
85997	7	Sololá	702	San José Chacayá	5	Chacayá	3	Marzo	2023-03-24T00:00:00	2024-11-06T22:00:00	6	Velocidad del viento	0
85998	7	Sololá	702	San José Chacayá	5	Chacayá	3	Marzo	2023-03-24T00:00:00	2024-11-06T22:00:00	7	Dirección del viento	0
85999	7	Sololá	702	San José Chacayá	5	Chacayá	3	Marzo	2023-03-24T00:00:00	2024-11-06T22:00:00	1	Precipitación	0
86000	7	Sololá	702	San José Chacayá	5	Chacayá	3	Marzo	2023-03-24T00:00:00	2024-11-06T22:00:00	8	Radiación solar	0
86001	7	Sololá	702	San José Chacayá	5	Chacayá	3	Marzo	2023-03-24T00:00:00	2024-11-06T23:00:00	2	Temperatura media	14.5
86002	7	Sololá	702	San José Chacayá	5	Chacayá	3	Marzo	2023-03-24T00:00:00	2024-11-06T23:00:00	4	Temperatura máxima	14.8
86003	7	Sololá	702	San José Chacayá	5	Chacayá	3	Marzo	2023-03-24T00:00:00	2024-11-06T23:00:00	3	Temperatura mínima	14.5
86004	7	Sololá	702	San José Chacayá	5	Chacayá	3	Marzo	2023-03-24T00:00:00	2024-11-06T23:00:00	5	Humedad	71
86005	7	Sololá	702	San José Chacayá	5	Chacayá	3	Marzo	2023-03-24T00:00:00	2024-11-06T23:00:00	6	Velocidad del viento	0
86006	7	Sololá	702	San José Chacayá	5	Chacayá	3	Marzo	2023-03-24T00:00:00	2024-11-06T23:00:00	7	Dirección del viento	0
86007	7	Sololá	702	San José Chacayá	5	Chacayá	3	Marzo	2023-03-24T00:00:00	2024-11-06T23:00:00	1	Precipitación	0
86008	7	Sololá	702	San José Chacayá	5	Chacayá	3	Marzo	2023-03-24T00:00:00	2024-11-06T23:00:00	8	Radiación solar	0
86009	7	Sololá	702	San José Chacayá	5	Chacayá	3	Marzo	2023-03-25T00:00:00	2024-11-06T00:00:00	2	Temperatura media	14.4
86010	7	Sololá	702	San José Chacayá	5	Chacayá	3	Marzo	2023-03-25T00:00:00	2024-11-06T00:00:00	4	Temperatura máxima	14.6
86011	7	Sololá	702	San José Chacayá	5	Chacayá	3	Marzo	2023-03-25T00:00:00	2024-11-06T00:00:00	3	Temperatura mínima	14.2
86012	7	Sololá	702	San José Chacayá	5	Chacayá	3	Marzo	2023-03-25T00:00:00	2024-11-06T00:00:00	5	Humedad	83
86013	7	Sololá	702	San José Chacayá	5	Chacayá	3	Marzo	2023-03-25T00:00:00	2024-11-06T00:00:00	6	Velocidad del viento	1.6
86014	7	Sololá	702	San José Chacayá	5	Chacayá	3	Marzo	2023-03-25T00:00:00	2024-11-06T00:00:00	7	Dirección del viento	1.61
86015	7	Sololá	702	San José Chacayá	5	Chacayá	3	Marzo	2023-03-25T00:00:00	2024-11-06T00:00:00	1	Precipitación	0
86016	7	Sololá	702	San José Chacayá	5	Chacayá	3	Marzo	2023-03-25T00:00:00	2024-11-06T00:00:00	8	Radiación solar	0
86017	7	Sololá	702	San José Chacayá	5	Chacayá	3	Marzo	2023-03-25T00:00:00	2024-11-06T01:00:00	2	Temperatura media	13.9
86018	7	Sololá	702	San José Chacayá	5	Chacayá	3	Marzo	2023-03-25T00:00:00	2024-11-06T01:00:00	4	Temperatura máxima	14.4
86019	7	Sololá	702	San José Chacayá	5	Chacayá	3	Marzo	2023-03-25T00:00:00	2024-11-06T01:00:00	3	Temperatura mínima	13.9
86020	7	Sololá	702	San José Chacayá	5	Chacayá	3	Marzo	2023-03-25T00:00:00	2024-11-06T01:00:00	5	Humedad	83
86021	7	Sololá	702	San José Chacayá	5	Chacayá	3	Marzo	2023-03-25T00:00:00	2024-11-06T01:00:00	6	Velocidad del viento	1.6
86022	7	Sololá	702	San José Chacayá	5	Chacayá	3	Marzo	2023-03-25T00:00:00	2024-11-06T01:00:00	7	Dirección del viento	1.61
86023	7	Sololá	702	San José Chacayá	5	Chacayá	3	Marzo	2023-03-25T00:00:00	2024-11-06T01:00:00	1	Precipitación	0
86024	7	Sololá	702	San José Chacayá	5	Chacayá	3	Marzo	2023-03-25T00:00:00	2024-11-06T01:00:00	8	Radiación solar	0
86025	7	Sololá	702	San José Chacayá	5	Chacayá	3	Marzo	2023-03-25T00:00:00	2024-11-06T02:00:00	2	Temperatura media	13.6
86026	7	Sololá	702	San José Chacayá	5	Chacayá	3	Marzo	2023-03-25T00:00:00	2024-11-06T02:00:00	4	Temperatura máxima	13.9
86027	7	Sololá	702	San José Chacayá	5	Chacayá	3	Marzo	2023-03-25T00:00:00	2024-11-06T02:00:00	3	Temperatura mínima	13.6
86028	7	Sololá	702	San José Chacayá	5	Chacayá	3	Marzo	2023-03-25T00:00:00	2024-11-06T02:00:00	5	Humedad	85
86029	7	Sololá	702	San José Chacayá	5	Chacayá	3	Marzo	2023-03-25T00:00:00	2024-11-06T02:00:00	6	Velocidad del viento	0
86030	7	Sololá	702	San José Chacayá	5	Chacayá	3	Marzo	2023-03-25T00:00:00	2024-11-06T02:00:00	7	Dirección del viento	0
86031	7	Sololá	702	San José Chacayá	5	Chacayá	3	Marzo	2023-03-25T00:00:00	2024-11-06T02:00:00	1	Precipitación	0
86032	7	Sololá	702	San José Chacayá	5	Chacayá	3	Marzo	2023-03-25T00:00:00	2024-11-06T02:00:00	8	Radiación solar	0
86033	7	Sololá	702	San José Chacayá	5	Chacayá	3	Marzo	2023-03-25T00:00:00	2024-11-06T03:00:00	2	Temperatura media	13.5
86034	7	Sololá	702	San José Chacayá	5	Chacayá	3	Marzo	2023-03-25T00:00:00	2024-11-06T03:00:00	4	Temperatura máxima	13.7
86035	7	Sololá	702	San José Chacayá	5	Chacayá	3	Marzo	2023-03-25T00:00:00	2024-11-06T03:00:00	3	Temperatura mínima	13.5
86036	7	Sololá	702	San José Chacayá	5	Chacayá	3	Marzo	2023-03-25T00:00:00	2024-11-06T03:00:00	5	Humedad	85
86037	7	Sololá	702	San José Chacayá	5	Chacayá	3	Marzo	2023-03-25T00:00:00	2024-11-06T03:00:00	6	Velocidad del viento	0
86038	7	Sololá	702	San José Chacayá	5	Chacayá	3	Marzo	2023-03-25T00:00:00	2024-11-06T03:00:00	7	Dirección del viento	0
86039	7	Sololá	702	San José Chacayá	5	Chacayá	3	Marzo	2023-03-25T00:00:00	2024-11-06T03:00:00	1	Precipitación	0
86040	7	Sololá	702	San José Chacayá	5	Chacayá	3	Marzo	2023-03-25T00:00:00	2024-11-06T03:00:00	8	Radiación solar	0
86041	7	Sololá	702	San José Chacayá	5	Chacayá	3	Marzo	2023-03-25T00:00:00	2024-11-06T04:00:00	2	Temperatura media	13.5
86042	7	Sololá	702	San José Chacayá	5	Chacayá	3	Marzo	2023-03-25T00:00:00	2024-11-06T04:00:00	4	Temperatura máxima	13.5
86043	7	Sololá	702	San José Chacayá	5	Chacayá	3	Marzo	2023-03-25T00:00:00	2024-11-06T04:00:00	3	Temperatura mínima	13.4
86044	7	Sololá	702	San José Chacayá	5	Chacayá	3	Marzo	2023-03-25T00:00:00	2024-11-06T04:00:00	5	Humedad	83
86045	7	Sololá	702	San José Chacayá	5	Chacayá	3	Marzo	2023-03-25T00:00:00	2024-11-06T04:00:00	6	Velocidad del viento	0
86046	7	Sololá	702	San José Chacayá	5	Chacayá	3	Marzo	2023-03-25T00:00:00	2024-11-06T04:00:00	7	Dirección del viento	0
86047	7	Sololá	702	San José Chacayá	5	Chacayá	3	Marzo	2023-03-25T00:00:00	2024-11-06T04:00:00	1	Precipitación	0
86048	7	Sololá	702	San José Chacayá	5	Chacayá	3	Marzo	2023-03-25T00:00:00	2024-11-06T04:00:00	8	Radiación solar	0
86049	7	Sololá	702	San José Chacayá	5	Chacayá	3	Marzo	2023-03-25T00:00:00	2024-11-06T05:00:00	2	Temperatura media	13.3
86050	7	Sololá	702	San José Chacayá	5	Chacayá	3	Marzo	2023-03-25T00:00:00	2024-11-06T05:00:00	4	Temperatura máxima	13.6
86051	7	Sololá	702	San José Chacayá	5	Chacayá	3	Marzo	2023-03-25T00:00:00	2024-11-06T05:00:00	3	Temperatura mínima	13.3
86052	7	Sololá	702	San José Chacayá	5	Chacayá	3	Marzo	2023-03-25T00:00:00	2024-11-06T05:00:00	5	Humedad	85
86053	7	Sololá	702	San José Chacayá	5	Chacayá	3	Marzo	2023-03-25T00:00:00	2024-11-06T05:00:00	6	Velocidad del viento	1.6
86054	7	Sololá	702	San José Chacayá	5	Chacayá	3	Marzo	2023-03-25T00:00:00	2024-11-06T05:00:00	7	Dirección del viento	1.61
86055	7	Sololá	702	San José Chacayá	5	Chacayá	3	Marzo	2023-03-25T00:00:00	2024-11-06T05:00:00	1	Precipitación	0
86056	7	Sololá	702	San José Chacayá	5	Chacayá	3	Marzo	2023-03-25T00:00:00	2024-11-06T05:00:00	8	Radiación solar	0
86057	7	Sololá	702	San José Chacayá	5	Chacayá	3	Marzo	2023-03-25T00:00:00	2024-11-06T06:00:00	2	Temperatura media	13.1
86058	7	Sololá	702	San José Chacayá	5	Chacayá	3	Marzo	2023-03-25T00:00:00	2024-11-06T06:00:00	4	Temperatura máxima	13.3
86059	7	Sololá	702	San José Chacayá	5	Chacayá	3	Marzo	2023-03-25T00:00:00	2024-11-06T06:00:00	3	Temperatura mínima	13.1
86060	7	Sololá	702	San José Chacayá	5	Chacayá	3	Marzo	2023-03-25T00:00:00	2024-11-06T06:00:00	5	Humedad	83
86061	7	Sololá	702	San José Chacayá	5	Chacayá	3	Marzo	2023-03-25T00:00:00	2024-11-06T06:00:00	6	Velocidad del viento	0
86062	7	Sololá	702	San José Chacayá	5	Chacayá	3	Marzo	2023-03-25T00:00:00	2024-11-06T06:00:00	7	Dirección del viento	0
86063	7	Sololá	702	San José Chacayá	5	Chacayá	3	Marzo	2023-03-25T00:00:00	2024-11-06T06:00:00	1	Precipitación	0
86064	7	Sololá	702	San José Chacayá	5	Chacayá	3	Marzo	2023-03-25T00:00:00	2024-11-06T06:00:00	8	Radiación solar	0
86065	7	Sololá	702	San José Chacayá	5	Chacayá	3	Marzo	2023-03-25T00:00:00	2024-11-06T07:00:00	2	Temperatura media	12.8
86066	7	Sololá	702	San José Chacayá	5	Chacayá	3	Marzo	2023-03-25T00:00:00	2024-11-06T07:00:00	4	Temperatura máxima	13.1
86067	7	Sololá	702	San José Chacayá	5	Chacayá	3	Marzo	2023-03-25T00:00:00	2024-11-06T07:00:00	3	Temperatura mínima	12.8
86068	7	Sololá	702	San José Chacayá	5	Chacayá	3	Marzo	2023-03-25T00:00:00	2024-11-06T07:00:00	5	Humedad	79
86069	7	Sololá	702	San José Chacayá	5	Chacayá	3	Marzo	2023-03-25T00:00:00	2024-11-06T07:00:00	6	Velocidad del viento	0
86070	7	Sololá	702	San José Chacayá	5	Chacayá	3	Marzo	2023-03-25T00:00:00	2024-11-06T07:00:00	7	Dirección del viento	0
86071	7	Sololá	702	San José Chacayá	5	Chacayá	3	Marzo	2023-03-25T00:00:00	2024-11-06T07:00:00	1	Precipitación	0
86072	7	Sololá	702	San José Chacayá	5	Chacayá	3	Marzo	2023-03-25T00:00:00	2024-11-06T07:00:00	8	Radiación solar	21
86073	7	Sololá	702	San José Chacayá	5	Chacayá	3	Marzo	2023-03-25T00:00:00	2024-11-06T08:00:00	2	Temperatura media	13.1
86074	7	Sololá	702	San José Chacayá	5	Chacayá	3	Marzo	2023-03-25T00:00:00	2024-11-06T08:00:00	4	Temperatura máxima	13.1
86075	7	Sololá	702	San José Chacayá	5	Chacayá	3	Marzo	2023-03-25T00:00:00	2024-11-06T08:00:00	3	Temperatura mínima	12.8
86076	7	Sololá	702	San José Chacayá	5	Chacayá	3	Marzo	2023-03-25T00:00:00	2024-11-06T08:00:00	5	Humedad	75
86077	7	Sololá	702	San José Chacayá	5	Chacayá	3	Marzo	2023-03-25T00:00:00	2024-11-06T08:00:00	6	Velocidad del viento	0
86078	7	Sololá	702	San José Chacayá	5	Chacayá	3	Marzo	2023-03-25T00:00:00	2024-11-06T08:00:00	7	Dirección del viento	0
86079	7	Sololá	702	San José Chacayá	5	Chacayá	3	Marzo	2023-03-25T00:00:00	2024-11-06T08:00:00	1	Precipitación	0
86080	7	Sololá	702	San José Chacayá	5	Chacayá	3	Marzo	2023-03-25T00:00:00	2024-11-06T08:00:00	8	Radiación solar	120
86081	7	Sololá	702	San José Chacayá	5	Chacayá	3	Marzo	2023-03-25T00:00:00	2024-11-06T09:00:00	2	Temperatura media	14.1
86082	7	Sololá	702	San José Chacayá	5	Chacayá	3	Marzo	2023-03-25T00:00:00	2024-11-06T09:00:00	4	Temperatura máxima	14.2
86083	7	Sololá	702	San José Chacayá	5	Chacayá	3	Marzo	2023-03-25T00:00:00	2024-11-06T09:00:00	3	Temperatura mínima	13.1
86084	7	Sololá	702	San José Chacayá	5	Chacayá	3	Marzo	2023-03-25T00:00:00	2024-11-06T09:00:00	5	Humedad	84
86085	7	Sololá	702	San José Chacayá	5	Chacayá	3	Marzo	2023-03-25T00:00:00	2024-11-06T09:00:00	6	Velocidad del viento	1.6
86086	7	Sololá	702	San José Chacayá	5	Chacayá	3	Marzo	2023-03-25T00:00:00	2024-11-06T09:00:00	7	Dirección del viento	1.61
86087	7	Sololá	702	San José Chacayá	5	Chacayá	3	Marzo	2023-03-25T00:00:00	2024-11-06T09:00:00	1	Precipitación	0
86088	7	Sololá	702	San José Chacayá	5	Chacayá	3	Marzo	2023-03-25T00:00:00	2024-11-06T09:00:00	8	Radiación solar	204
86089	7	Sololá	702	San José Chacayá	5	Chacayá	3	Marzo	2023-03-25T00:00:00	2024-11-06T10:00:00	2	Temperatura media	15.3
86090	7	Sololá	702	San José Chacayá	5	Chacayá	3	Marzo	2023-03-25T00:00:00	2024-11-06T10:00:00	4	Temperatura máxima	15.3
86091	7	Sololá	702	San José Chacayá	5	Chacayá	3	Marzo	2023-03-25T00:00:00	2024-11-06T10:00:00	3	Temperatura mínima	14.2
86092	7	Sololá	702	San José Chacayá	5	Chacayá	3	Marzo	2023-03-25T00:00:00	2024-11-06T10:00:00	5	Humedad	84
86093	7	Sololá	702	San José Chacayá	5	Chacayá	3	Marzo	2023-03-25T00:00:00	2024-11-06T10:00:00	6	Velocidad del viento	3.2
86094	7	Sololá	702	San José Chacayá	5	Chacayá	3	Marzo	2023-03-25T00:00:00	2024-11-06T10:00:00	7	Dirección del viento	3.22
86095	7	Sololá	702	San José Chacayá	5	Chacayá	3	Marzo	2023-03-25T00:00:00	2024-11-06T10:00:00	1	Precipitación	0
86096	7	Sololá	702	San José Chacayá	5	Chacayá	3	Marzo	2023-03-25T00:00:00	2024-11-06T10:00:00	8	Radiación solar	599
86097	7	Sololá	702	San José Chacayá	5	Chacayá	3	Marzo	2023-03-25T00:00:00	2024-11-06T11:00:00	2	Temperatura media	17.2
86098	7	Sololá	702	San José Chacayá	5	Chacayá	3	Marzo	2023-03-25T00:00:00	2024-11-06T11:00:00	4	Temperatura máxima	17.6
86099	7	Sololá	702	San José Chacayá	5	Chacayá	3	Marzo	2023-03-25T00:00:00	2024-11-06T11:00:00	3	Temperatura mínima	15.3
86100	7	Sololá	702	San José Chacayá	5	Chacayá	3	Marzo	2023-03-25T00:00:00	2024-11-06T11:00:00	5	Humedad	77
86101	7	Sololá	702	San José Chacayá	5	Chacayá	3	Marzo	2023-03-25T00:00:00	2024-11-06T11:00:00	6	Velocidad del viento	6.4
86102	7	Sololá	702	San José Chacayá	5	Chacayá	3	Marzo	2023-03-25T00:00:00	2024-11-06T11:00:00	7	Dirección del viento	6.44
86103	7	Sololá	702	San José Chacayá	5	Chacayá	3	Marzo	2023-03-25T00:00:00	2024-11-06T11:00:00	1	Precipitación	0
86104	7	Sololá	702	San José Chacayá	5	Chacayá	3	Marzo	2023-03-25T00:00:00	2024-11-06T11:00:00	8	Radiación solar	645
86105	7	Sololá	702	San José Chacayá	5	Chacayá	3	Marzo	2023-03-25T00:00:00	2024-11-06T12:00:00	2	Temperatura media	18.2
86106	7	Sololá	702	San José Chacayá	5	Chacayá	3	Marzo	2023-03-25T00:00:00	2024-11-06T12:00:00	4	Temperatura máxima	18.5
86107	7	Sololá	702	San José Chacayá	5	Chacayá	3	Marzo	2023-03-25T00:00:00	2024-11-06T12:00:00	3	Temperatura mínima	17.1
86108	7	Sololá	702	San José Chacayá	5	Chacayá	3	Marzo	2023-03-25T00:00:00	2024-11-06T12:00:00	5	Humedad	72
86109	7	Sololá	702	San José Chacayá	5	Chacayá	3	Marzo	2023-03-25T00:00:00	2024-11-06T12:00:00	6	Velocidad del viento	6.4
86110	7	Sololá	702	San José Chacayá	5	Chacayá	3	Marzo	2023-03-25T00:00:00	2024-11-06T12:00:00	7	Dirección del viento	6.44
86111	7	Sololá	702	San José Chacayá	5	Chacayá	3	Marzo	2023-03-25T00:00:00	2024-11-06T12:00:00	1	Precipitación	0
86112	7	Sololá	702	San José Chacayá	5	Chacayá	3	Marzo	2023-03-25T00:00:00	2024-11-06T12:00:00	8	Radiación solar	993
86113	7	Sololá	702	San José Chacayá	5	Chacayá	3	Marzo	2023-03-25T00:00:00	2024-11-06T13:00:00	2	Temperatura media	19.1
86114	7	Sololá	702	San José Chacayá	5	Chacayá	3	Marzo	2023-03-25T00:00:00	2024-11-06T13:00:00	4	Temperatura máxima	19.2
86115	7	Sololá	702	San José Chacayá	5	Chacayá	3	Marzo	2023-03-25T00:00:00	2024-11-06T13:00:00	3	Temperatura mínima	17.8
86116	7	Sololá	702	San José Chacayá	5	Chacayá	3	Marzo	2023-03-25T00:00:00	2024-11-06T13:00:00	5	Humedad	70
86117	7	Sololá	702	San José Chacayá	5	Chacayá	3	Marzo	2023-03-25T00:00:00	2024-11-06T13:00:00	6	Velocidad del viento	9.7
86118	7	Sololá	702	San José Chacayá	5	Chacayá	3	Marzo	2023-03-25T00:00:00	2024-11-06T13:00:00	7	Dirección del viento	9.66
86119	7	Sololá	702	San José Chacayá	5	Chacayá	3	Marzo	2023-03-25T00:00:00	2024-11-06T13:00:00	1	Precipitación	0
86120	7	Sololá	702	San José Chacayá	5	Chacayá	3	Marzo	2023-03-25T00:00:00	2024-11-06T13:00:00	8	Radiación solar	1027
86121	7	Sololá	702	San José Chacayá	5	Chacayá	3	Marzo	2023-03-25T00:00:00	2024-11-06T14:00:00	2	Temperatura media	19.6
86122	7	Sololá	702	San José Chacayá	5	Chacayá	3	Marzo	2023-03-25T00:00:00	2024-11-06T14:00:00	4	Temperatura máxima	19.8
86123	7	Sololá	702	San José Chacayá	5	Chacayá	3	Marzo	2023-03-25T00:00:00	2024-11-06T14:00:00	3	Temperatura mínima	18.8
86124	7	Sololá	702	San José Chacayá	5	Chacayá	3	Marzo	2023-03-25T00:00:00	2024-11-06T14:00:00	5	Humedad	69
86125	7	Sololá	702	San José Chacayá	5	Chacayá	3	Marzo	2023-03-25T00:00:00	2024-11-06T14:00:00	6	Velocidad del viento	6.4
86126	7	Sololá	702	San José Chacayá	5	Chacayá	3	Marzo	2023-03-25T00:00:00	2024-11-06T14:00:00	7	Dirección del viento	6.44
86127	7	Sololá	702	San José Chacayá	5	Chacayá	3	Marzo	2023-03-25T00:00:00	2024-11-06T14:00:00	1	Precipitación	0
86128	7	Sololá	702	San José Chacayá	5	Chacayá	3	Marzo	2023-03-25T00:00:00	2024-11-06T14:00:00	8	Radiación solar	482
86129	7	Sololá	702	San José Chacayá	5	Chacayá	3	Marzo	2023-03-25T00:00:00	2024-11-06T15:00:00	2	Temperatura media	18.1
86130	7	Sololá	702	San José Chacayá	5	Chacayá	3	Marzo	2023-03-25T00:00:00	2024-11-06T15:00:00	4	Temperatura máxima	19.6
86131	7	Sololá	702	San José Chacayá	5	Chacayá	3	Marzo	2023-03-25T00:00:00	2024-11-06T15:00:00	3	Temperatura mínima	17.7
86132	7	Sololá	702	San José Chacayá	5	Chacayá	3	Marzo	2023-03-25T00:00:00	2024-11-06T15:00:00	5	Humedad	77
86133	7	Sololá	702	San José Chacayá	5	Chacayá	3	Marzo	2023-03-25T00:00:00	2024-11-06T15:00:00	6	Velocidad del viento	6.4
86134	7	Sololá	702	San José Chacayá	5	Chacayá	3	Marzo	2023-03-25T00:00:00	2024-11-06T15:00:00	7	Dirección del viento	6.44
86135	7	Sololá	702	San José Chacayá	5	Chacayá	3	Marzo	2023-03-25T00:00:00	2024-11-06T15:00:00	1	Precipitación	0
86136	7	Sololá	702	San José Chacayá	5	Chacayá	3	Marzo	2023-03-25T00:00:00	2024-11-06T15:00:00	8	Radiación solar	444
86137	7	Sololá	702	San José Chacayá	5	Chacayá	3	Marzo	2023-03-25T00:00:00	2024-11-06T16:00:00	2	Temperatura media	17.8
86138	7	Sololá	702	San José Chacayá	5	Chacayá	3	Marzo	2023-03-25T00:00:00	2024-11-06T16:00:00	4	Temperatura máxima	18.2
86139	7	Sololá	702	San José Chacayá	5	Chacayá	3	Marzo	2023-03-25T00:00:00	2024-11-06T16:00:00	3	Temperatura mínima	17.4
86140	7	Sololá	702	San José Chacayá	5	Chacayá	3	Marzo	2023-03-25T00:00:00	2024-11-06T16:00:00	5	Humedad	79
86141	7	Sololá	702	San José Chacayá	5	Chacayá	3	Marzo	2023-03-25T00:00:00	2024-11-06T16:00:00	6	Velocidad del viento	8
86142	7	Sololá	702	San José Chacayá	5	Chacayá	3	Marzo	2023-03-25T00:00:00	2024-11-06T16:00:00	7	Dirección del viento	8.05
86143	7	Sololá	702	San José Chacayá	5	Chacayá	3	Marzo	2023-03-25T00:00:00	2024-11-06T16:00:00	1	Precipitación	0
86144	7	Sololá	702	San José Chacayá	5	Chacayá	3	Marzo	2023-03-25T00:00:00	2024-11-06T16:00:00	8	Radiación solar	198
86145	7	Sololá	702	San José Chacayá	5	Chacayá	3	Marzo	2023-03-25T00:00:00	2024-11-06T17:00:00	2	Temperatura media	16.7
86146	7	Sololá	702	San José Chacayá	5	Chacayá	3	Marzo	2023-03-25T00:00:00	2024-11-06T17:00:00	4	Temperatura máxima	17.8
86147	7	Sololá	702	San José Chacayá	5	Chacayá	3	Marzo	2023-03-25T00:00:00	2024-11-06T17:00:00	3	Temperatura mínima	16.4
86148	7	Sololá	702	San José Chacayá	5	Chacayá	3	Marzo	2023-03-25T00:00:00	2024-11-06T17:00:00	5	Humedad	83
86149	7	Sololá	702	San José Chacayá	5	Chacayá	3	Marzo	2023-03-25T00:00:00	2024-11-06T17:00:00	6	Velocidad del viento	4.8
86150	7	Sololá	702	San José Chacayá	5	Chacayá	3	Marzo	2023-03-25T00:00:00	2024-11-06T17:00:00	7	Dirección del viento	4.83
86151	7	Sololá	702	San José Chacayá	5	Chacayá	3	Marzo	2023-03-25T00:00:00	2024-11-06T17:00:00	1	Precipitación	0
86152	7	Sololá	702	San José Chacayá	5	Chacayá	3	Marzo	2023-03-25T00:00:00	2024-11-06T17:00:00	8	Radiación solar	121
86153	7	Sololá	702	San José Chacayá	5	Chacayá	3	Marzo	2023-03-25T00:00:00	2024-11-06T18:00:00	2	Temperatura media	16.7
86154	7	Sololá	702	San José Chacayá	5	Chacayá	3	Marzo	2023-03-25T00:00:00	2024-11-06T18:00:00	4	Temperatura máxima	16.7
86155	7	Sololá	702	San José Chacayá	5	Chacayá	3	Marzo	2023-03-25T00:00:00	2024-11-06T18:00:00	3	Temperatura mínima	16.3
86156	7	Sololá	702	San José Chacayá	5	Chacayá	3	Marzo	2023-03-25T00:00:00	2024-11-06T18:00:00	5	Humedad	83
86157	7	Sololá	702	San José Chacayá	5	Chacayá	3	Marzo	2023-03-25T00:00:00	2024-11-06T18:00:00	6	Velocidad del viento	3.2
86158	7	Sololá	702	San José Chacayá	5	Chacayá	3	Marzo	2023-03-25T00:00:00	2024-11-06T18:00:00	7	Dirección del viento	3.22
86159	7	Sololá	702	San José Chacayá	5	Chacayá	3	Marzo	2023-03-25T00:00:00	2024-11-06T18:00:00	1	Precipitación	0
86160	7	Sololá	702	San José Chacayá	5	Chacayá	3	Marzo	2023-03-25T00:00:00	2024-11-06T18:00:00	8	Radiación solar	60
86161	7	Sololá	702	San José Chacayá	5	Chacayá	3	Marzo	2023-03-25T00:00:00	2024-11-06T19:00:00	2	Temperatura media	15.6
86162	7	Sololá	702	San José Chacayá	5	Chacayá	3	Marzo	2023-03-25T00:00:00	2024-11-06T19:00:00	4	Temperatura máxima	16.7
86163	7	Sololá	702	San José Chacayá	5	Chacayá	3	Marzo	2023-03-25T00:00:00	2024-11-06T19:00:00	3	Temperatura mínima	15.6
86164	7	Sololá	702	San José Chacayá	5	Chacayá	3	Marzo	2023-03-25T00:00:00	2024-11-06T19:00:00	5	Humedad	84
86165	7	Sololá	702	San José Chacayá	5	Chacayá	3	Marzo	2023-03-25T00:00:00	2024-11-06T19:00:00	6	Velocidad del viento	1.6
86166	7	Sololá	702	San José Chacayá	5	Chacayá	3	Marzo	2023-03-25T00:00:00	2024-11-06T19:00:00	7	Dirección del viento	1.61
86167	7	Sololá	702	San José Chacayá	5	Chacayá	3	Marzo	2023-03-25T00:00:00	2024-11-06T19:00:00	1	Precipitación	0
86168	7	Sololá	702	San José Chacayá	5	Chacayá	3	Marzo	2023-03-25T00:00:00	2024-11-06T19:00:00	8	Radiación solar	0
86169	7	Sololá	702	San José Chacayá	5	Chacayá	3	Marzo	2023-03-25T00:00:00	2024-11-06T20:00:00	2	Temperatura media	13.8
86170	7	Sololá	702	San José Chacayá	5	Chacayá	3	Marzo	2023-03-25T00:00:00	2024-11-06T20:00:00	4	Temperatura máxima	15.6
86171	7	Sololá	702	San José Chacayá	5	Chacayá	3	Marzo	2023-03-25T00:00:00	2024-11-06T20:00:00	3	Temperatura mínima	13.8
86172	7	Sololá	702	San José Chacayá	5	Chacayá	3	Marzo	2023-03-25T00:00:00	2024-11-06T20:00:00	5	Humedad	84
86173	7	Sololá	702	San José Chacayá	5	Chacayá	3	Marzo	2023-03-25T00:00:00	2024-11-06T20:00:00	6	Velocidad del viento	0
86174	7	Sololá	702	San José Chacayá	5	Chacayá	3	Marzo	2023-03-25T00:00:00	2024-11-06T20:00:00	7	Dirección del viento	0
86175	7	Sololá	702	San José Chacayá	5	Chacayá	3	Marzo	2023-03-25T00:00:00	2024-11-06T20:00:00	1	Precipitación	0
86176	7	Sololá	702	San José Chacayá	5	Chacayá	3	Marzo	2023-03-25T00:00:00	2024-11-06T20:00:00	8	Radiación solar	0
86177	7	Sololá	702	San José Chacayá	5	Chacayá	3	Marzo	2023-03-25T00:00:00	2024-11-06T21:00:00	2	Temperatura media	12.6
86178	7	Sololá	702	San José Chacayá	5	Chacayá	3	Marzo	2023-03-25T00:00:00	2024-11-06T21:00:00	4	Temperatura máxima	13.8
86179	7	Sololá	702	San José Chacayá	5	Chacayá	3	Marzo	2023-03-25T00:00:00	2024-11-06T21:00:00	3	Temperatura mínima	12.6
86180	7	Sololá	702	San José Chacayá	5	Chacayá	3	Marzo	2023-03-25T00:00:00	2024-11-06T21:00:00	5	Humedad	84
86181	7	Sololá	702	San José Chacayá	5	Chacayá	3	Marzo	2023-03-25T00:00:00	2024-11-06T21:00:00	6	Velocidad del viento	1.6
86182	7	Sololá	702	San José Chacayá	5	Chacayá	3	Marzo	2023-03-25T00:00:00	2024-11-06T21:00:00	7	Dirección del viento	1.61
86183	7	Sololá	702	San José Chacayá	5	Chacayá	3	Marzo	2023-03-25T00:00:00	2024-11-06T21:00:00	1	Precipitación	0
86184	7	Sololá	702	San José Chacayá	5	Chacayá	3	Marzo	2023-03-25T00:00:00	2024-11-06T21:00:00	8	Radiación solar	0
86185	7	Sololá	702	San José Chacayá	5	Chacayá	3	Marzo	2023-03-25T00:00:00	2024-11-06T22:00:00	2	Temperatura media	12
86186	7	Sololá	702	San José Chacayá	5	Chacayá	3	Marzo	2023-03-25T00:00:00	2024-11-06T22:00:00	4	Temperatura máxima	12.6
86187	7	Sololá	702	San José Chacayá	5	Chacayá	3	Marzo	2023-03-25T00:00:00	2024-11-06T22:00:00	3	Temperatura mínima	12
86188	7	Sololá	702	San José Chacayá	5	Chacayá	3	Marzo	2023-03-25T00:00:00	2024-11-06T22:00:00	5	Humedad	84
86189	7	Sololá	702	San José Chacayá	5	Chacayá	3	Marzo	2023-03-25T00:00:00	2024-11-06T22:00:00	6	Velocidad del viento	3.2
86190	7	Sololá	702	San José Chacayá	5	Chacayá	3	Marzo	2023-03-25T00:00:00	2024-11-06T22:00:00	7	Dirección del viento	3.22
86191	7	Sololá	702	San José Chacayá	5	Chacayá	3	Marzo	2023-03-25T00:00:00	2024-11-06T22:00:00	1	Precipitación	0
86192	7	Sololá	702	San José Chacayá	5	Chacayá	3	Marzo	2023-03-25T00:00:00	2024-11-06T22:00:00	8	Radiación solar	0
86193	7	Sololá	702	San José Chacayá	5	Chacayá	3	Marzo	2023-03-25T00:00:00	2024-11-06T23:00:00	2	Temperatura media	12.2
86194	7	Sololá	702	San José Chacayá	5	Chacayá	3	Marzo	2023-03-25T00:00:00	2024-11-06T23:00:00	4	Temperatura máxima	12.3
86195	7	Sololá	702	San José Chacayá	5	Chacayá	3	Marzo	2023-03-25T00:00:00	2024-11-06T23:00:00	3	Temperatura mínima	12
86196	7	Sololá	702	San José Chacayá	5	Chacayá	3	Marzo	2023-03-25T00:00:00	2024-11-06T23:00:00	5	Humedad	84
86197	7	Sololá	702	San José Chacayá	5	Chacayá	3	Marzo	2023-03-25T00:00:00	2024-11-06T23:00:00	6	Velocidad del viento	3.2
86198	7	Sololá	702	San José Chacayá	5	Chacayá	3	Marzo	2023-03-25T00:00:00	2024-11-06T23:00:00	7	Dirección del viento	3.22
86199	7	Sololá	702	San José Chacayá	5	Chacayá	3	Marzo	2023-03-25T00:00:00	2024-11-06T23:00:00	1	Precipitación	0
86200	7	Sololá	702	San José Chacayá	5	Chacayá	3	Marzo	2023-03-25T00:00:00	2024-11-06T23:00:00	8	Radiación solar	0
86201	7	Sololá	702	San José Chacayá	5	Chacayá	3	Marzo	2023-03-26T00:00:00	2024-11-06T00:00:00	2	Temperatura media	12
86202	7	Sololá	702	San José Chacayá	5	Chacayá	3	Marzo	2023-03-26T00:00:00	2024-11-06T00:00:00	4	Temperatura máxima	12.2
86203	7	Sololá	702	San José Chacayá	5	Chacayá	3	Marzo	2023-03-26T00:00:00	2024-11-06T00:00:00	3	Temperatura mínima	11.7
86204	7	Sololá	702	San José Chacayá	5	Chacayá	3	Marzo	2023-03-26T00:00:00	2024-11-06T00:00:00	5	Humedad	84
86205	7	Sololá	702	San José Chacayá	5	Chacayá	3	Marzo	2023-03-26T00:00:00	2024-11-06T00:00:00	6	Velocidad del viento	3.2
86206	7	Sololá	702	San José Chacayá	5	Chacayá	3	Marzo	2023-03-26T00:00:00	2024-11-06T00:00:00	7	Dirección del viento	3.22
86207	7	Sololá	702	San José Chacayá	5	Chacayá	3	Marzo	2023-03-26T00:00:00	2024-11-06T00:00:00	1	Precipitación	0
86208	7	Sololá	702	San José Chacayá	5	Chacayá	3	Marzo	2023-03-26T00:00:00	2024-11-06T00:00:00	8	Radiación solar	0
86209	7	Sololá	702	San José Chacayá	5	Chacayá	3	Marzo	2023-03-26T00:00:00	2024-11-06T01:00:00	2	Temperatura media	12.2
86210	7	Sololá	702	San José Chacayá	5	Chacayá	3	Marzo	2023-03-26T00:00:00	2024-11-06T01:00:00	4	Temperatura máxima	12.3
86211	7	Sololá	702	San José Chacayá	5	Chacayá	3	Marzo	2023-03-26T00:00:00	2024-11-06T01:00:00	3	Temperatura mínima	12
86212	7	Sololá	702	San José Chacayá	5	Chacayá	3	Marzo	2023-03-26T00:00:00	2024-11-06T01:00:00	5	Humedad	83
86213	7	Sololá	702	San José Chacayá	5	Chacayá	3	Marzo	2023-03-26T00:00:00	2024-11-06T01:00:00	6	Velocidad del viento	1.6
86214	7	Sololá	702	San José Chacayá	5	Chacayá	3	Marzo	2023-03-26T00:00:00	2024-11-06T01:00:00	7	Dirección del viento	1.61
86215	7	Sololá	702	San José Chacayá	5	Chacayá	3	Marzo	2023-03-26T00:00:00	2024-11-06T01:00:00	1	Precipitación	0
86216	7	Sololá	702	San José Chacayá	5	Chacayá	3	Marzo	2023-03-26T00:00:00	2024-11-06T01:00:00	8	Radiación solar	0
86217	7	Sololá	702	San José Chacayá	5	Chacayá	3	Marzo	2023-03-26T00:00:00	2024-11-06T02:00:00	2	Temperatura media	11.8
86218	7	Sololá	702	San José Chacayá	5	Chacayá	3	Marzo	2023-03-26T00:00:00	2024-11-06T02:00:00	4	Temperatura máxima	12.2
86219	7	Sololá	702	San José Chacayá	5	Chacayá	3	Marzo	2023-03-26T00:00:00	2024-11-06T02:00:00	3	Temperatura mínima	11.6
86220	7	Sololá	702	San José Chacayá	5	Chacayá	3	Marzo	2023-03-26T00:00:00	2024-11-06T02:00:00	5	Humedad	80
86221	7	Sololá	702	San José Chacayá	5	Chacayá	3	Marzo	2023-03-26T00:00:00	2024-11-06T02:00:00	6	Velocidad del viento	1.6
86222	7	Sololá	702	San José Chacayá	5	Chacayá	3	Marzo	2023-03-26T00:00:00	2024-11-06T02:00:00	7	Dirección del viento	1.61
86223	7	Sololá	702	San José Chacayá	5	Chacayá	3	Marzo	2023-03-26T00:00:00	2024-11-06T02:00:00	1	Precipitación	0
86224	7	Sololá	702	San José Chacayá	5	Chacayá	3	Marzo	2023-03-26T00:00:00	2024-11-06T02:00:00	8	Radiación solar	0
86225	7	Sololá	702	San José Chacayá	5	Chacayá	3	Marzo	2023-03-26T00:00:00	2024-11-06T03:00:00	2	Temperatura media	11.8
86226	7	Sololá	702	San José Chacayá	5	Chacayá	3	Marzo	2023-03-26T00:00:00	2024-11-06T03:00:00	4	Temperatura máxima	12.1
86227	7	Sololá	702	San José Chacayá	5	Chacayá	3	Marzo	2023-03-26T00:00:00	2024-11-06T03:00:00	3	Temperatura mínima	11.8
86228	7	Sololá	702	San José Chacayá	5	Chacayá	3	Marzo	2023-03-26T00:00:00	2024-11-06T03:00:00	5	Humedad	79
86229	7	Sololá	702	San José Chacayá	5	Chacayá	3	Marzo	2023-03-26T00:00:00	2024-11-06T03:00:00	6	Velocidad del viento	1.6
86230	7	Sololá	702	San José Chacayá	5	Chacayá	3	Marzo	2023-03-26T00:00:00	2024-11-06T03:00:00	7	Dirección del viento	1.61
86231	7	Sololá	702	San José Chacayá	5	Chacayá	3	Marzo	2023-03-26T00:00:00	2024-11-06T03:00:00	1	Precipitación	0
86232	7	Sololá	702	San José Chacayá	5	Chacayá	3	Marzo	2023-03-26T00:00:00	2024-11-06T03:00:00	8	Radiación solar	0
86233	7	Sololá	702	San José Chacayá	5	Chacayá	3	Marzo	2023-03-26T00:00:00	2024-11-06T04:00:00	2	Temperatura media	12.6
86234	7	Sololá	702	San José Chacayá	5	Chacayá	3	Marzo	2023-03-26T00:00:00	2024-11-06T04:00:00	4	Temperatura máxima	12.7
86235	7	Sololá	702	San José Chacayá	5	Chacayá	3	Marzo	2023-03-26T00:00:00	2024-11-06T04:00:00	3	Temperatura mínima	11.8
86236	7	Sololá	702	San José Chacayá	5	Chacayá	3	Marzo	2023-03-26T00:00:00	2024-11-06T04:00:00	5	Humedad	74
86237	7	Sololá	702	San José Chacayá	5	Chacayá	3	Marzo	2023-03-26T00:00:00	2024-11-06T04:00:00	6	Velocidad del viento	0
86238	7	Sololá	702	San José Chacayá	5	Chacayá	3	Marzo	2023-03-26T00:00:00	2024-11-06T04:00:00	7	Dirección del viento	0
86239	7	Sololá	702	San José Chacayá	5	Chacayá	3	Marzo	2023-03-26T00:00:00	2024-11-06T04:00:00	1	Precipitación	0
86240	7	Sololá	702	San José Chacayá	5	Chacayá	3	Marzo	2023-03-26T00:00:00	2024-11-06T04:00:00	8	Radiación solar	0
86241	7	Sololá	702	San José Chacayá	5	Chacayá	3	Marzo	2023-03-26T00:00:00	2024-11-06T05:00:00	2	Temperatura media	12.9
86242	7	Sololá	702	San José Chacayá	5	Chacayá	3	Marzo	2023-03-26T00:00:00	2024-11-06T05:00:00	4	Temperatura máxima	12.9
86243	7	Sololá	702	San José Chacayá	5	Chacayá	3	Marzo	2023-03-26T00:00:00	2024-11-06T05:00:00	3	Temperatura mínima	12.7
86244	7	Sololá	702	San José Chacayá	5	Chacayá	3	Marzo	2023-03-26T00:00:00	2024-11-06T05:00:00	5	Humedad	77
86245	7	Sololá	702	San José Chacayá	5	Chacayá	3	Marzo	2023-03-26T00:00:00	2024-11-06T05:00:00	6	Velocidad del viento	0
86246	7	Sololá	702	San José Chacayá	5	Chacayá	3	Marzo	2023-03-26T00:00:00	2024-11-06T05:00:00	7	Dirección del viento	0
86247	7	Sololá	702	San José Chacayá	5	Chacayá	3	Marzo	2023-03-26T00:00:00	2024-11-06T05:00:00	1	Precipitación	0
86248	7	Sololá	702	San José Chacayá	5	Chacayá	3	Marzo	2023-03-26T00:00:00	2024-11-06T05:00:00	8	Radiación solar	0
86249	7	Sololá	702	San José Chacayá	5	Chacayá	3	Marzo	2023-03-26T00:00:00	2024-11-06T06:00:00	2	Temperatura media	12.6
86250	7	Sololá	702	San José Chacayá	5	Chacayá	3	Marzo	2023-03-26T00:00:00	2024-11-06T06:00:00	4	Temperatura máxima	13.2
86251	7	Sololá	702	San José Chacayá	5	Chacayá	3	Marzo	2023-03-26T00:00:00	2024-11-06T06:00:00	3	Temperatura mínima	12.6
86252	7	Sololá	702	San José Chacayá	5	Chacayá	3	Marzo	2023-03-26T00:00:00	2024-11-06T06:00:00	5	Humedad	82
86253	7	Sololá	702	San José Chacayá	5	Chacayá	3	Marzo	2023-03-26T00:00:00	2024-11-06T06:00:00	6	Velocidad del viento	3.2
86254	7	Sololá	702	San José Chacayá	5	Chacayá	3	Marzo	2023-03-26T00:00:00	2024-11-06T06:00:00	7	Dirección del viento	3.22
86255	7	Sololá	702	San José Chacayá	5	Chacayá	3	Marzo	2023-03-26T00:00:00	2024-11-06T06:00:00	1	Precipitación	0
86256	7	Sololá	702	San José Chacayá	5	Chacayá	3	Marzo	2023-03-26T00:00:00	2024-11-06T06:00:00	8	Radiación solar	0
86257	7	Sololá	702	San José Chacayá	5	Chacayá	3	Marzo	2023-03-26T00:00:00	2024-11-06T07:00:00	2	Temperatura media	12.4
86258	7	Sololá	702	San José Chacayá	5	Chacayá	3	Marzo	2023-03-26T00:00:00	2024-11-06T07:00:00	4	Temperatura máxima	12.7
86259	7	Sololá	702	San José Chacayá	5	Chacayá	3	Marzo	2023-03-26T00:00:00	2024-11-06T07:00:00	3	Temperatura mínima	12.4
86260	7	Sololá	702	San José Chacayá	5	Chacayá	3	Marzo	2023-03-26T00:00:00	2024-11-06T07:00:00	5	Humedad	78
86261	7	Sololá	702	San José Chacayá	5	Chacayá	3	Marzo	2023-03-26T00:00:00	2024-11-06T07:00:00	6	Velocidad del viento	1.6
86262	7	Sololá	702	San José Chacayá	5	Chacayá	3	Marzo	2023-03-26T00:00:00	2024-11-06T07:00:00	7	Dirección del viento	1.61
86263	7	Sololá	702	San José Chacayá	5	Chacayá	3	Marzo	2023-03-26T00:00:00	2024-11-06T07:00:00	1	Precipitación	0
86264	7	Sololá	702	San José Chacayá	5	Chacayá	3	Marzo	2023-03-26T00:00:00	2024-11-06T07:00:00	8	Radiación solar	34
86265	7	Sololá	702	San José Chacayá	5	Chacayá	3	Marzo	2023-03-26T00:00:00	2024-11-06T08:00:00	2	Temperatura media	12.7
86266	7	Sololá	702	San José Chacayá	5	Chacayá	3	Marzo	2023-03-26T00:00:00	2024-11-06T08:00:00	4	Temperatura máxima	12.7
86267	7	Sololá	702	San José Chacayá	5	Chacayá	3	Marzo	2023-03-26T00:00:00	2024-11-06T08:00:00	3	Temperatura mínima	12.3
86268	7	Sololá	702	San José Chacayá	5	Chacayá	3	Marzo	2023-03-26T00:00:00	2024-11-06T08:00:00	5	Humedad	70
86269	7	Sololá	702	San José Chacayá	5	Chacayá	3	Marzo	2023-03-26T00:00:00	2024-11-06T08:00:00	6	Velocidad del viento	0
86270	7	Sololá	702	San José Chacayá	5	Chacayá	3	Marzo	2023-03-26T00:00:00	2024-11-06T08:00:00	7	Dirección del viento	0
86271	7	Sololá	702	San José Chacayá	5	Chacayá	3	Marzo	2023-03-26T00:00:00	2024-11-06T08:00:00	1	Precipitación	0
86272	7	Sololá	702	San José Chacayá	5	Chacayá	3	Marzo	2023-03-26T00:00:00	2024-11-06T08:00:00	8	Radiación solar	106
86273	7	Sololá	702	San José Chacayá	5	Chacayá	3	Marzo	2023-03-26T00:00:00	2024-11-06T09:00:00	2	Temperatura media	13.5
86274	7	Sololá	702	San José Chacayá	5	Chacayá	3	Marzo	2023-03-26T00:00:00	2024-11-06T09:00:00	4	Temperatura máxima	13.7
86275	7	Sololá	702	San José Chacayá	5	Chacayá	3	Marzo	2023-03-26T00:00:00	2024-11-06T09:00:00	3	Temperatura mínima	12.7
86276	7	Sololá	702	San José Chacayá	5	Chacayá	3	Marzo	2023-03-26T00:00:00	2024-11-06T09:00:00	5	Humedad	85
86277	7	Sololá	702	San José Chacayá	5	Chacayá	3	Marzo	2023-03-26T00:00:00	2024-11-06T09:00:00	6	Velocidad del viento	0
86278	7	Sololá	702	San José Chacayá	5	Chacayá	3	Marzo	2023-03-26T00:00:00	2024-11-06T09:00:00	7	Dirección del viento	0
86279	7	Sololá	702	San José Chacayá	5	Chacayá	3	Marzo	2023-03-26T00:00:00	2024-11-06T09:00:00	1	Precipitación	0
86280	7	Sololá	702	San José Chacayá	5	Chacayá	3	Marzo	2023-03-26T00:00:00	2024-11-06T09:00:00	8	Radiación solar	184
86281	7	Sololá	702	San José Chacayá	5	Chacayá	3	Marzo	2023-03-26T00:00:00	2024-11-06T10:00:00	2	Temperatura media	14.4
86282	7	Sololá	702	San José Chacayá	5	Chacayá	3	Marzo	2023-03-26T00:00:00	2024-11-06T10:00:00	4	Temperatura máxima	14.4
86283	7	Sololá	702	San José Chacayá	5	Chacayá	3	Marzo	2023-03-26T00:00:00	2024-11-06T10:00:00	3	Temperatura mínima	13.5
86284	7	Sololá	702	San José Chacayá	5	Chacayá	3	Marzo	2023-03-26T00:00:00	2024-11-06T10:00:00	5	Humedad	84
86285	7	Sololá	702	San José Chacayá	5	Chacayá	3	Marzo	2023-03-26T00:00:00	2024-11-06T10:00:00	6	Velocidad del viento	1.6
86286	7	Sololá	702	San José Chacayá	5	Chacayá	3	Marzo	2023-03-26T00:00:00	2024-11-06T10:00:00	7	Dirección del viento	1.61
86287	7	Sololá	702	San José Chacayá	5	Chacayá	3	Marzo	2023-03-26T00:00:00	2024-11-06T10:00:00	1	Precipitación	0
86288	7	Sololá	702	San José Chacayá	5	Chacayá	3	Marzo	2023-03-26T00:00:00	2024-11-06T10:00:00	8	Radiación solar	530
86289	7	Sololá	702	San José Chacayá	5	Chacayá	3	Marzo	2023-03-26T00:00:00	2024-11-06T11:00:00	2	Temperatura media	17.2
86290	7	Sololá	702	San José Chacayá	5	Chacayá	3	Marzo	2023-03-26T00:00:00	2024-11-06T11:00:00	4	Temperatura máxima	17.8
86291	7	Sololá	702	San José Chacayá	5	Chacayá	3	Marzo	2023-03-26T00:00:00	2024-11-06T11:00:00	3	Temperatura mínima	14.4
86292	7	Sololá	702	San José Chacayá	5	Chacayá	3	Marzo	2023-03-26T00:00:00	2024-11-06T11:00:00	5	Humedad	77
86293	7	Sololá	702	San José Chacayá	5	Chacayá	3	Marzo	2023-03-26T00:00:00	2024-11-06T11:00:00	6	Velocidad del viento	4.8
86294	7	Sololá	702	San José Chacayá	5	Chacayá	3	Marzo	2023-03-26T00:00:00	2024-11-06T11:00:00	7	Dirección del viento	4.83
86295	7	Sololá	702	San José Chacayá	5	Chacayá	3	Marzo	2023-03-26T00:00:00	2024-11-06T11:00:00	1	Precipitación	0
86296	7	Sololá	702	San José Chacayá	5	Chacayá	3	Marzo	2023-03-26T00:00:00	2024-11-06T11:00:00	8	Radiación solar	874
86297	7	Sololá	702	San José Chacayá	5	Chacayá	3	Marzo	2023-03-26T00:00:00	2024-11-06T12:00:00	2	Temperatura media	18.8
86298	7	Sololá	702	San José Chacayá	5	Chacayá	3	Marzo	2023-03-26T00:00:00	2024-11-06T12:00:00	4	Temperatura máxima	19.1
86299	7	Sololá	702	San José Chacayá	5	Chacayá	3	Marzo	2023-03-26T00:00:00	2024-11-06T12:00:00	3	Temperatura mínima	17.1
86300	7	Sololá	702	San José Chacayá	5	Chacayá	3	Marzo	2023-03-26T00:00:00	2024-11-06T12:00:00	5	Humedad	73
86301	7	Sololá	702	San José Chacayá	5	Chacayá	3	Marzo	2023-03-26T00:00:00	2024-11-06T12:00:00	6	Velocidad del viento	8
86302	7	Sololá	702	San José Chacayá	5	Chacayá	3	Marzo	2023-03-26T00:00:00	2024-11-06T12:00:00	7	Dirección del viento	8.05
86303	7	Sololá	702	San José Chacayá	5	Chacayá	3	Marzo	2023-03-26T00:00:00	2024-11-06T12:00:00	1	Precipitación	0
86304	7	Sololá	702	San José Chacayá	5	Chacayá	3	Marzo	2023-03-26T00:00:00	2024-11-06T12:00:00	8	Radiación solar	913
86305	7	Sololá	702	San José Chacayá	5	Chacayá	3	Marzo	2023-03-26T00:00:00	2024-11-06T13:00:00	2	Temperatura media	18.5
86306	7	Sololá	702	San José Chacayá	5	Chacayá	3	Marzo	2023-03-26T00:00:00	2024-11-06T13:00:00	4	Temperatura máxima	18.9
86307	7	Sololá	702	San José Chacayá	5	Chacayá	3	Marzo	2023-03-26T00:00:00	2024-11-06T13:00:00	3	Temperatura mínima	18.1
86308	7	Sololá	702	San José Chacayá	5	Chacayá	3	Marzo	2023-03-26T00:00:00	2024-11-06T13:00:00	5	Humedad	76
86309	7	Sololá	702	San José Chacayá	5	Chacayá	3	Marzo	2023-03-26T00:00:00	2024-11-06T13:00:00	6	Velocidad del viento	8
86310	7	Sololá	702	San José Chacayá	5	Chacayá	3	Marzo	2023-03-26T00:00:00	2024-11-06T13:00:00	7	Dirección del viento	8.05
86311	7	Sololá	702	San José Chacayá	5	Chacayá	3	Marzo	2023-03-26T00:00:00	2024-11-06T13:00:00	1	Precipitación	0
86312	7	Sololá	702	San José Chacayá	5	Chacayá	3	Marzo	2023-03-26T00:00:00	2024-11-06T13:00:00	8	Radiación solar	489
86313	7	Sololá	702	San José Chacayá	5	Chacayá	3	Marzo	2023-03-26T00:00:00	2024-11-06T14:00:00	2	Temperatura media	17.8
86314	7	Sololá	702	San José Chacayá	5	Chacayá	3	Marzo	2023-03-26T00:00:00	2024-11-06T14:00:00	4	Temperatura máxima	18.6
86315	7	Sololá	702	San José Chacayá	5	Chacayá	3	Marzo	2023-03-26T00:00:00	2024-11-06T14:00:00	3	Temperatura mínima	17.6
86316	7	Sololá	702	San José Chacayá	5	Chacayá	3	Marzo	2023-03-26T00:00:00	2024-11-06T14:00:00	5	Humedad	78
86317	7	Sololá	702	San José Chacayá	5	Chacayá	3	Marzo	2023-03-26T00:00:00	2024-11-06T14:00:00	6	Velocidad del viento	6.4
86318	7	Sololá	702	San José Chacayá	5	Chacayá	3	Marzo	2023-03-26T00:00:00	2024-11-06T14:00:00	7	Dirección del viento	6.44
86319	7	Sololá	702	San José Chacayá	5	Chacayá	3	Marzo	2023-03-26T00:00:00	2024-11-06T14:00:00	1	Precipitación	0
86320	7	Sololá	702	San José Chacayá	5	Chacayá	3	Marzo	2023-03-26T00:00:00	2024-11-06T14:00:00	8	Radiación solar	654
86321	7	Sololá	702	San José Chacayá	5	Chacayá	3	Marzo	2023-03-26T00:00:00	2024-11-06T15:00:00	2	Temperatura media	18.1
86322	7	Sololá	702	San José Chacayá	5	Chacayá	3	Marzo	2023-03-26T00:00:00	2024-11-06T15:00:00	4	Temperatura máxima	18.4
86323	7	Sololá	702	San José Chacayá	5	Chacayá	3	Marzo	2023-03-26T00:00:00	2024-11-06T15:00:00	3	Temperatura mínima	17.8
86324	7	Sololá	702	San José Chacayá	5	Chacayá	3	Marzo	2023-03-26T00:00:00	2024-11-06T15:00:00	5	Humedad	78
86325	7	Sololá	702	San José Chacayá	5	Chacayá	3	Marzo	2023-03-26T00:00:00	2024-11-06T15:00:00	6	Velocidad del viento	8
86326	7	Sololá	702	San José Chacayá	5	Chacayá	3	Marzo	2023-03-26T00:00:00	2024-11-06T15:00:00	7	Dirección del viento	8.05
86327	7	Sololá	702	San José Chacayá	5	Chacayá	3	Marzo	2023-03-26T00:00:00	2024-11-06T15:00:00	1	Precipitación	0
86328	7	Sololá	702	San José Chacayá	5	Chacayá	3	Marzo	2023-03-26T00:00:00	2024-11-06T15:00:00	8	Radiación solar	293
86329	7	Sololá	702	San José Chacayá	5	Chacayá	3	Marzo	2023-03-26T00:00:00	2024-11-06T16:00:00	2	Temperatura media	16.9
86330	7	Sololá	702	San José Chacayá	5	Chacayá	3	Marzo	2023-03-26T00:00:00	2024-11-06T16:00:00	4	Temperatura máxima	18.1
86331	7	Sololá	702	San José Chacayá	5	Chacayá	3	Marzo	2023-03-26T00:00:00	2024-11-06T16:00:00	3	Temperatura mínima	16.9
86332	7	Sololá	702	San José Chacayá	5	Chacayá	3	Marzo	2023-03-26T00:00:00	2024-11-06T16:00:00	5	Humedad	82
86333	7	Sololá	702	San José Chacayá	5	Chacayá	3	Marzo	2023-03-26T00:00:00	2024-11-06T16:00:00	6	Velocidad del viento	6.4
86334	7	Sololá	702	San José Chacayá	5	Chacayá	3	Marzo	2023-03-26T00:00:00	2024-11-06T16:00:00	7	Dirección del viento	6.44
86335	7	Sololá	702	San José Chacayá	5	Chacayá	3	Marzo	2023-03-26T00:00:00	2024-11-06T16:00:00	1	Precipitación	0
86336	7	Sololá	702	San José Chacayá	5	Chacayá	3	Marzo	2023-03-26T00:00:00	2024-11-06T16:00:00	8	Radiación solar	178
86337	7	Sololá	702	San José Chacayá	5	Chacayá	3	Marzo	2023-03-26T00:00:00	2024-11-06T17:00:00	2	Temperatura media	16.3
86338	7	Sololá	702	San José Chacayá	5	Chacayá	3	Marzo	2023-03-26T00:00:00	2024-11-06T17:00:00	4	Temperatura máxima	16.9
86339	7	Sololá	702	San José Chacayá	5	Chacayá	3	Marzo	2023-03-26T00:00:00	2024-11-06T17:00:00	3	Temperatura mínima	16.2
86340	7	Sololá	702	San José Chacayá	5	Chacayá	3	Marzo	2023-03-26T00:00:00	2024-11-06T17:00:00	5	Humedad	83
86341	7	Sololá	702	San José Chacayá	5	Chacayá	3	Marzo	2023-03-26T00:00:00	2024-11-06T17:00:00	6	Velocidad del viento	6.4
86342	7	Sololá	702	San José Chacayá	5	Chacayá	3	Marzo	2023-03-26T00:00:00	2024-11-06T17:00:00	7	Dirección del viento	6.44
86343	7	Sololá	702	San José Chacayá	5	Chacayá	3	Marzo	2023-03-26T00:00:00	2024-11-06T17:00:00	1	Precipitación	0
86344	7	Sololá	702	San José Chacayá	5	Chacayá	3	Marzo	2023-03-26T00:00:00	2024-11-06T17:00:00	8	Radiación solar	122
86345	7	Sololá	702	San José Chacayá	5	Chacayá	3	Marzo	2023-03-26T00:00:00	2024-11-06T18:00:00	2	Temperatura media	16.1
86346	7	Sololá	702	San José Chacayá	5	Chacayá	3	Marzo	2023-03-26T00:00:00	2024-11-06T18:00:00	4	Temperatura máxima	16.4
86347	7	Sololá	702	San José Chacayá	5	Chacayá	3	Marzo	2023-03-26T00:00:00	2024-11-06T18:00:00	3	Temperatura mínima	15.8
86348	7	Sololá	702	San José Chacayá	5	Chacayá	3	Marzo	2023-03-26T00:00:00	2024-11-06T18:00:00	5	Humedad	84
86349	7	Sololá	702	San José Chacayá	5	Chacayá	3	Marzo	2023-03-26T00:00:00	2024-11-06T18:00:00	6	Velocidad del viento	4.8
86350	7	Sololá	702	San José Chacayá	5	Chacayá	3	Marzo	2023-03-26T00:00:00	2024-11-06T18:00:00	7	Dirección del viento	4.83
86351	7	Sololá	702	San José Chacayá	5	Chacayá	3	Marzo	2023-03-26T00:00:00	2024-11-06T18:00:00	1	Precipitación	0
86352	7	Sololá	702	San José Chacayá	5	Chacayá	3	Marzo	2023-03-26T00:00:00	2024-11-06T18:00:00	8	Radiación solar	47
86353	7	Sololá	702	San José Chacayá	5	Chacayá	3	Marzo	2023-03-26T00:00:00	2024-11-06T19:00:00	2	Temperatura media	15.3
86354	7	Sololá	702	San José Chacayá	5	Chacayá	3	Marzo	2023-03-26T00:00:00	2024-11-06T19:00:00	4	Temperatura máxima	16.1
86355	7	Sololá	702	San José Chacayá	5	Chacayá	3	Marzo	2023-03-26T00:00:00	2024-11-06T19:00:00	3	Temperatura mínima	15.3
86356	7	Sololá	702	San José Chacayá	5	Chacayá	3	Marzo	2023-03-26T00:00:00	2024-11-06T19:00:00	5	Humedad	83
86357	7	Sololá	702	San José Chacayá	5	Chacayá	3	Marzo	2023-03-26T00:00:00	2024-11-06T19:00:00	6	Velocidad del viento	1.6
86358	7	Sololá	702	San José Chacayá	5	Chacayá	3	Marzo	2023-03-26T00:00:00	2024-11-06T19:00:00	7	Dirección del viento	1.61
86359	7	Sololá	702	San José Chacayá	5	Chacayá	3	Marzo	2023-03-26T00:00:00	2024-11-06T19:00:00	1	Precipitación	0
86360	7	Sololá	702	San José Chacayá	5	Chacayá	3	Marzo	2023-03-26T00:00:00	2024-11-06T19:00:00	8	Radiación solar	0
86361	7	Sololá	702	San José Chacayá	5	Chacayá	3	Marzo	2023-03-26T00:00:00	2024-11-06T20:00:00	2	Temperatura media	13.8
86362	7	Sololá	702	San José Chacayá	5	Chacayá	3	Marzo	2023-03-26T00:00:00	2024-11-06T20:00:00	4	Temperatura máxima	15.3
86363	7	Sololá	702	San José Chacayá	5	Chacayá	3	Marzo	2023-03-26T00:00:00	2024-11-06T20:00:00	3	Temperatura mínima	13.8
86364	7	Sololá	702	San José Chacayá	5	Chacayá	3	Marzo	2023-03-26T00:00:00	2024-11-06T20:00:00	5	Humedad	83
86365	7	Sololá	702	San José Chacayá	5	Chacayá	3	Marzo	2023-03-26T00:00:00	2024-11-06T20:00:00	6	Velocidad del viento	0
86366	7	Sololá	702	San José Chacayá	5	Chacayá	3	Marzo	2023-03-26T00:00:00	2024-11-06T20:00:00	7	Dirección del viento	0
86367	7	Sololá	702	San José Chacayá	5	Chacayá	3	Marzo	2023-03-26T00:00:00	2024-11-06T20:00:00	1	Precipitación	0
86368	7	Sololá	702	San José Chacayá	5	Chacayá	3	Marzo	2023-03-26T00:00:00	2024-11-06T20:00:00	8	Radiación solar	0
86369	7	Sololá	702	San José Chacayá	5	Chacayá	3	Marzo	2023-03-26T00:00:00	2024-11-06T21:00:00	2	Temperatura media	12.6
86370	7	Sololá	702	San José Chacayá	5	Chacayá	3	Marzo	2023-03-26T00:00:00	2024-11-06T21:00:00	4	Temperatura máxima	13.8
86371	7	Sololá	702	San José Chacayá	5	Chacayá	3	Marzo	2023-03-26T00:00:00	2024-11-06T21:00:00	3	Temperatura mínima	12.6
86372	7	Sololá	702	San José Chacayá	5	Chacayá	3	Marzo	2023-03-26T00:00:00	2024-11-06T21:00:00	5	Humedad	82
86373	7	Sololá	702	San José Chacayá	5	Chacayá	3	Marzo	2023-03-26T00:00:00	2024-11-06T21:00:00	6	Velocidad del viento	1.6
86374	7	Sololá	702	San José Chacayá	5	Chacayá	3	Marzo	2023-03-26T00:00:00	2024-11-06T21:00:00	7	Dirección del viento	1.61
86375	7	Sololá	702	San José Chacayá	5	Chacayá	3	Marzo	2023-03-26T00:00:00	2024-11-06T21:00:00	1	Precipitación	0
86376	7	Sololá	702	San José Chacayá	5	Chacayá	3	Marzo	2023-03-26T00:00:00	2024-11-06T21:00:00	8	Radiación solar	0
86377	7	Sololá	702	San José Chacayá	5	Chacayá	3	Marzo	2023-03-26T00:00:00	2024-11-06T22:00:00	2	Temperatura media	11.9
86378	7	Sololá	702	San José Chacayá	5	Chacayá	3	Marzo	2023-03-26T00:00:00	2024-11-06T22:00:00	4	Temperatura máxima	12.6
86379	7	Sololá	702	San José Chacayá	5	Chacayá	3	Marzo	2023-03-26T00:00:00	2024-11-06T22:00:00	3	Temperatura mínima	11.9
86380	7	Sololá	702	San José Chacayá	5	Chacayá	3	Marzo	2023-03-26T00:00:00	2024-11-06T22:00:00	5	Humedad	84
86381	7	Sololá	702	San José Chacayá	5	Chacayá	3	Marzo	2023-03-26T00:00:00	2024-11-06T22:00:00	6	Velocidad del viento	3.2
86382	7	Sololá	702	San José Chacayá	5	Chacayá	3	Marzo	2023-03-26T00:00:00	2024-11-06T22:00:00	7	Dirección del viento	3.22
86383	7	Sololá	702	San José Chacayá	5	Chacayá	3	Marzo	2023-03-26T00:00:00	2024-11-06T22:00:00	1	Precipitación	0
86384	7	Sololá	702	San José Chacayá	5	Chacayá	3	Marzo	2023-03-26T00:00:00	2024-11-06T22:00:00	8	Radiación solar	0
86385	7	Sololá	702	San José Chacayá	5	Chacayá	3	Marzo	2023-03-26T00:00:00	2024-11-06T23:00:00	2	Temperatura media	11.3
86386	7	Sololá	702	San José Chacayá	5	Chacayá	3	Marzo	2023-03-26T00:00:00	2024-11-06T23:00:00	4	Temperatura máxima	11.8
86387	7	Sololá	702	San José Chacayá	5	Chacayá	3	Marzo	2023-03-26T00:00:00	2024-11-06T23:00:00	3	Temperatura mínima	11.3
86388	7	Sololá	702	San José Chacayá	5	Chacayá	3	Marzo	2023-03-26T00:00:00	2024-11-06T23:00:00	5	Humedad	84
86389	7	Sololá	702	San José Chacayá	5	Chacayá	3	Marzo	2023-03-26T00:00:00	2024-11-06T23:00:00	6	Velocidad del viento	3.2
86390	7	Sololá	702	San José Chacayá	5	Chacayá	3	Marzo	2023-03-26T00:00:00	2024-11-06T23:00:00	7	Dirección del viento	3.22
86391	7	Sololá	702	San José Chacayá	5	Chacayá	3	Marzo	2023-03-26T00:00:00	2024-11-06T23:00:00	1	Precipitación	0
86392	7	Sololá	702	San José Chacayá	5	Chacayá	3	Marzo	2023-03-26T00:00:00	2024-11-06T23:00:00	8	Radiación solar	0
86393	7	Sololá	702	San José Chacayá	5	Chacayá	3	Marzo	2023-03-27T00:00:00	2024-11-06T00:00:00	2	Temperatura media	10.7
86394	7	Sololá	702	San José Chacayá	5	Chacayá	3	Marzo	2023-03-27T00:00:00	2024-11-06T00:00:00	4	Temperatura máxima	11.3
86395	7	Sololá	702	San José Chacayá	5	Chacayá	3	Marzo	2023-03-27T00:00:00	2024-11-06T00:00:00	3	Temperatura mínima	10.7
86396	7	Sololá	702	San José Chacayá	5	Chacayá	3	Marzo	2023-03-27T00:00:00	2024-11-06T00:00:00	5	Humedad	84
86397	7	Sololá	702	San José Chacayá	5	Chacayá	3	Marzo	2023-03-27T00:00:00	2024-11-06T00:00:00	6	Velocidad del viento	3.2
86398	7	Sololá	702	San José Chacayá	5	Chacayá	3	Marzo	2023-03-27T00:00:00	2024-11-06T00:00:00	7	Dirección del viento	3.22
86399	7	Sololá	702	San José Chacayá	5	Chacayá	3	Marzo	2023-03-27T00:00:00	2024-11-06T00:00:00	1	Precipitación	0
86400	7	Sololá	702	San José Chacayá	5	Chacayá	3	Marzo	2023-03-27T00:00:00	2024-11-06T00:00:00	8	Radiación solar	0
86401	7	Sololá	702	San José Chacayá	5	Chacayá	3	Marzo	2023-03-27T00:00:00	2024-11-06T01:00:00	2	Temperatura media	10.7
86402	7	Sololá	702	San José Chacayá	5	Chacayá	3	Marzo	2023-03-27T00:00:00	2024-11-06T01:00:00	4	Temperatura máxima	10.8
86403	7	Sololá	702	San José Chacayá	5	Chacayá	3	Marzo	2023-03-27T00:00:00	2024-11-06T01:00:00	3	Temperatura mínima	10.4
86404	7	Sololá	702	San José Chacayá	5	Chacayá	3	Marzo	2023-03-27T00:00:00	2024-11-06T01:00:00	5	Humedad	83
86405	7	Sololá	702	San José Chacayá	5	Chacayá	3	Marzo	2023-03-27T00:00:00	2024-11-06T01:00:00	6	Velocidad del viento	1.6
86406	7	Sololá	702	San José Chacayá	5	Chacayá	3	Marzo	2023-03-27T00:00:00	2024-11-06T01:00:00	7	Dirección del viento	1.61
86407	7	Sololá	702	San José Chacayá	5	Chacayá	3	Marzo	2023-03-27T00:00:00	2024-11-06T01:00:00	1	Precipitación	0
86408	7	Sololá	702	San José Chacayá	5	Chacayá	3	Marzo	2023-03-27T00:00:00	2024-11-06T01:00:00	8	Radiación solar	0
86409	7	Sololá	702	San José Chacayá	5	Chacayá	3	Marzo	2023-03-27T00:00:00	2024-11-06T02:00:00	2	Temperatura media	10.7
86410	7	Sololá	702	San José Chacayá	5	Chacayá	3	Marzo	2023-03-27T00:00:00	2024-11-06T02:00:00	4	Temperatura máxima	10.7
86411	7	Sololá	702	San José Chacayá	5	Chacayá	3	Marzo	2023-03-27T00:00:00	2024-11-06T02:00:00	3	Temperatura mínima	10.6
86412	7	Sololá	702	San José Chacayá	5	Chacayá	3	Marzo	2023-03-27T00:00:00	2024-11-06T02:00:00	5	Humedad	83
86413	7	Sololá	702	San José Chacayá	5	Chacayá	3	Marzo	2023-03-27T00:00:00	2024-11-06T02:00:00	6	Velocidad del viento	3.2
86414	7	Sololá	702	San José Chacayá	5	Chacayá	3	Marzo	2023-03-27T00:00:00	2024-11-06T02:00:00	7	Dirección del viento	3.22
86415	7	Sololá	702	San José Chacayá	5	Chacayá	3	Marzo	2023-03-27T00:00:00	2024-11-06T02:00:00	1	Precipitación	0
86416	7	Sololá	702	San José Chacayá	5	Chacayá	3	Marzo	2023-03-27T00:00:00	2024-11-06T02:00:00	8	Radiación solar	0
86417	7	Sololá	702	San José Chacayá	5	Chacayá	3	Marzo	2023-03-27T00:00:00	2024-11-06T03:00:00	2	Temperatura media	10.4
86418	7	Sololá	702	San José Chacayá	5	Chacayá	3	Marzo	2023-03-27T00:00:00	2024-11-06T03:00:00	4	Temperatura máxima	10.8
86419	7	Sololá	702	San José Chacayá	5	Chacayá	3	Marzo	2023-03-27T00:00:00	2024-11-06T03:00:00	3	Temperatura mínima	10.4
86420	7	Sololá	702	San José Chacayá	5	Chacayá	3	Marzo	2023-03-27T00:00:00	2024-11-06T03:00:00	5	Humedad	83
86421	7	Sololá	702	San José Chacayá	5	Chacayá	3	Marzo	2023-03-27T00:00:00	2024-11-06T03:00:00	6	Velocidad del viento	1.6
86422	7	Sololá	702	San José Chacayá	5	Chacayá	3	Marzo	2023-03-27T00:00:00	2024-11-06T03:00:00	7	Dirección del viento	1.61
86423	7	Sololá	702	San José Chacayá	5	Chacayá	3	Marzo	2023-03-27T00:00:00	2024-11-06T03:00:00	1	Precipitación	0
86424	7	Sololá	702	San José Chacayá	5	Chacayá	3	Marzo	2023-03-27T00:00:00	2024-11-06T03:00:00	8	Radiación solar	0
86425	7	Sololá	702	San José Chacayá	5	Chacayá	3	Marzo	2023-03-27T00:00:00	2024-11-06T04:00:00	2	Temperatura media	10.6
86426	7	Sololá	702	San José Chacayá	5	Chacayá	3	Marzo	2023-03-27T00:00:00	2024-11-06T04:00:00	4	Temperatura máxima	10.6
86427	7	Sololá	702	San José Chacayá	5	Chacayá	3	Marzo	2023-03-27T00:00:00	2024-11-06T04:00:00	3	Temperatura mínima	10.3
86428	7	Sololá	702	San José Chacayá	5	Chacayá	3	Marzo	2023-03-27T00:00:00	2024-11-06T04:00:00	5	Humedad	81
86429	7	Sololá	702	San José Chacayá	5	Chacayá	3	Marzo	2023-03-27T00:00:00	2024-11-06T04:00:00	6	Velocidad del viento	1.6
86430	7	Sololá	702	San José Chacayá	5	Chacayá	3	Marzo	2023-03-27T00:00:00	2024-11-06T04:00:00	7	Dirección del viento	1.61
86431	7	Sololá	702	San José Chacayá	5	Chacayá	3	Marzo	2023-03-27T00:00:00	2024-11-06T04:00:00	1	Precipitación	0
86432	7	Sololá	702	San José Chacayá	5	Chacayá	3	Marzo	2023-03-27T00:00:00	2024-11-06T04:00:00	8	Radiación solar	0
86433	7	Sololá	702	San José Chacayá	5	Chacayá	3	Marzo	2023-03-27T00:00:00	2024-11-06T05:00:00	2	Temperatura media	10.7
86434	7	Sololá	702	San José Chacayá	5	Chacayá	3	Marzo	2023-03-27T00:00:00	2024-11-06T05:00:00	4	Temperatura máxima	10.8
86435	7	Sololá	702	San José Chacayá	5	Chacayá	3	Marzo	2023-03-27T00:00:00	2024-11-06T05:00:00	3	Temperatura mínima	10.6
86436	7	Sololá	702	San José Chacayá	5	Chacayá	3	Marzo	2023-03-27T00:00:00	2024-11-06T05:00:00	5	Humedad	83
86437	7	Sololá	702	San José Chacayá	5	Chacayá	3	Marzo	2023-03-27T00:00:00	2024-11-06T05:00:00	6	Velocidad del viento	1.6
86438	7	Sololá	702	San José Chacayá	5	Chacayá	3	Marzo	2023-03-27T00:00:00	2024-11-06T05:00:00	7	Dirección del viento	1.61
86439	7	Sololá	702	San José Chacayá	5	Chacayá	3	Marzo	2023-03-27T00:00:00	2024-11-06T05:00:00	1	Precipitación	0
86440	7	Sololá	702	San José Chacayá	5	Chacayá	3	Marzo	2023-03-27T00:00:00	2024-11-06T05:00:00	8	Radiación solar	0
86441	7	Sololá	702	San José Chacayá	5	Chacayá	3	Marzo	2023-03-27T00:00:00	2024-11-06T06:00:00	2	Temperatura media	10.8
86442	7	Sololá	702	San José Chacayá	5	Chacayá	3	Marzo	2023-03-27T00:00:00	2024-11-06T06:00:00	4	Temperatura máxima	10.9
86443	7	Sololá	702	San José Chacayá	5	Chacayá	3	Marzo	2023-03-27T00:00:00	2024-11-06T06:00:00	3	Temperatura mínima	10.7
86444	7	Sololá	702	San José Chacayá	5	Chacayá	3	Marzo	2023-03-27T00:00:00	2024-11-06T06:00:00	5	Humedad	85
86445	7	Sololá	702	San José Chacayá	5	Chacayá	3	Marzo	2023-03-27T00:00:00	2024-11-06T06:00:00	6	Velocidad del viento	1.6
86446	7	Sololá	702	San José Chacayá	5	Chacayá	3	Marzo	2023-03-27T00:00:00	2024-11-06T06:00:00	7	Dirección del viento	1.61
86447	7	Sololá	702	San José Chacayá	5	Chacayá	3	Marzo	2023-03-27T00:00:00	2024-11-06T06:00:00	1	Precipitación	0
86448	7	Sololá	702	San José Chacayá	5	Chacayá	3	Marzo	2023-03-27T00:00:00	2024-11-06T06:00:00	8	Radiación solar	0
86449	7	Sololá	702	San José Chacayá	5	Chacayá	3	Marzo	2023-03-27T00:00:00	2024-11-06T07:00:00	2	Temperatura media	9.4
86450	7	Sololá	702	San José Chacayá	5	Chacayá	3	Marzo	2023-03-27T00:00:00	2024-11-06T07:00:00	4	Temperatura máxima	10.8
86451	7	Sololá	702	San José Chacayá	5	Chacayá	3	Marzo	2023-03-27T00:00:00	2024-11-06T07:00:00	3	Temperatura mínima	9.4
86452	7	Sololá	702	San José Chacayá	5	Chacayá	3	Marzo	2023-03-27T00:00:00	2024-11-06T07:00:00	5	Humedad	85
86453	7	Sololá	702	San José Chacayá	5	Chacayá	3	Marzo	2023-03-27T00:00:00	2024-11-06T07:00:00	6	Velocidad del viento	3.2
86454	7	Sololá	702	San José Chacayá	5	Chacayá	3	Marzo	2023-03-27T00:00:00	2024-11-06T07:00:00	7	Dirección del viento	3.22
86455	7	Sololá	702	San José Chacayá	5	Chacayá	3	Marzo	2023-03-27T00:00:00	2024-11-06T07:00:00	1	Precipitación	0
86456	7	Sololá	702	San José Chacayá	5	Chacayá	3	Marzo	2023-03-27T00:00:00	2024-11-06T07:00:00	8	Radiación solar	32
86457	7	Sololá	702	San José Chacayá	5	Chacayá	3	Marzo	2023-03-27T00:00:00	2024-11-06T08:00:00	2	Temperatura media	10.3
86458	7	Sololá	702	San José Chacayá	5	Chacayá	3	Marzo	2023-03-27T00:00:00	2024-11-06T08:00:00	4	Temperatura máxima	10.3
86459	7	Sololá	702	San José Chacayá	5	Chacayá	3	Marzo	2023-03-27T00:00:00	2024-11-06T08:00:00	3	Temperatura mínima	9.1
86460	7	Sololá	702	San José Chacayá	5	Chacayá	3	Marzo	2023-03-27T00:00:00	2024-11-06T08:00:00	5	Humedad	85
86461	7	Sololá	702	San José Chacayá	5	Chacayá	3	Marzo	2023-03-27T00:00:00	2024-11-06T08:00:00	6	Velocidad del viento	3.2
86462	7	Sololá	702	San José Chacayá	5	Chacayá	3	Marzo	2023-03-27T00:00:00	2024-11-06T08:00:00	7	Dirección del viento	3.22
86463	7	Sololá	702	San José Chacayá	5	Chacayá	3	Marzo	2023-03-27T00:00:00	2024-11-06T08:00:00	1	Precipitación	0
86464	7	Sololá	702	San José Chacayá	5	Chacayá	3	Marzo	2023-03-27T00:00:00	2024-11-06T08:00:00	8	Radiación solar	119
86465	7	Sololá	702	San José Chacayá	5	Chacayá	3	Marzo	2023-03-27T00:00:00	2024-11-06T09:00:00	2	Temperatura media	14.6
86466	7	Sololá	702	San José Chacayá	5	Chacayá	3	Marzo	2023-03-27T00:00:00	2024-11-06T09:00:00	4	Temperatura máxima	14.6
86467	7	Sololá	702	San José Chacayá	5	Chacayá	3	Marzo	2023-03-27T00:00:00	2024-11-06T09:00:00	3	Temperatura mínima	10.3
86468	7	Sololá	702	San José Chacayá	5	Chacayá	3	Marzo	2023-03-27T00:00:00	2024-11-06T09:00:00	5	Humedad	76
86469	7	Sololá	702	San José Chacayá	5	Chacayá	3	Marzo	2023-03-27T00:00:00	2024-11-06T09:00:00	6	Velocidad del viento	1.6
86470	7	Sololá	702	San José Chacayá	5	Chacayá	3	Marzo	2023-03-27T00:00:00	2024-11-06T09:00:00	7	Dirección del viento	1.61
86471	7	Sololá	702	San José Chacayá	5	Chacayá	3	Marzo	2023-03-27T00:00:00	2024-11-06T09:00:00	1	Precipitación	0
86472	7	Sololá	702	San José Chacayá	5	Chacayá	3	Marzo	2023-03-27T00:00:00	2024-11-06T09:00:00	8	Radiación solar	452
86473	7	Sololá	702	San José Chacayá	5	Chacayá	3	Marzo	2023-03-27T00:00:00	2024-11-06T10:00:00	2	Temperatura media	17.2
86474	7	Sololá	702	San José Chacayá	5	Chacayá	3	Marzo	2023-03-27T00:00:00	2024-11-06T10:00:00	4	Temperatura máxima	17.2
86475	7	Sololá	702	San José Chacayá	5	Chacayá	3	Marzo	2023-03-27T00:00:00	2024-11-06T10:00:00	3	Temperatura mínima	14.6
86476	7	Sololá	702	San José Chacayá	5	Chacayá	3	Marzo	2023-03-27T00:00:00	2024-11-06T10:00:00	5	Humedad	72
86477	7	Sololá	702	San José Chacayá	5	Chacayá	3	Marzo	2023-03-27T00:00:00	2024-11-06T10:00:00	6	Velocidad del viento	4.8
86478	7	Sololá	702	San José Chacayá	5	Chacayá	3	Marzo	2023-03-27T00:00:00	2024-11-06T10:00:00	7	Dirección del viento	4.83
86479	7	Sololá	702	San José Chacayá	5	Chacayá	3	Marzo	2023-03-27T00:00:00	2024-11-06T10:00:00	1	Precipitación	0
86480	7	Sololá	702	San José Chacayá	5	Chacayá	3	Marzo	2023-03-27T00:00:00	2024-11-06T10:00:00	8	Radiación solar	771
86481	7	Sololá	702	San José Chacayá	5	Chacayá	3	Marzo	2023-03-27T00:00:00	2024-11-06T11:00:00	2	Temperatura media	19.2
86482	7	Sololá	702	San José Chacayá	5	Chacayá	3	Marzo	2023-03-27T00:00:00	2024-11-06T11:00:00	4	Temperatura máxima	19.2
86483	7	Sololá	702	San José Chacayá	5	Chacayá	3	Marzo	2023-03-27T00:00:00	2024-11-06T11:00:00	3	Temperatura mínima	17.2
86484	7	Sololá	702	San José Chacayá	5	Chacayá	3	Marzo	2023-03-27T00:00:00	2024-11-06T11:00:00	5	Humedad	64
86485	7	Sololá	702	San José Chacayá	5	Chacayá	3	Marzo	2023-03-27T00:00:00	2024-11-06T11:00:00	6	Velocidad del viento	4.8
86486	7	Sololá	702	San José Chacayá	5	Chacayá	3	Marzo	2023-03-27T00:00:00	2024-11-06T11:00:00	7	Dirección del viento	4.83
86487	7	Sololá	702	San José Chacayá	5	Chacayá	3	Marzo	2023-03-27T00:00:00	2024-11-06T11:00:00	1	Precipitación	0
86488	7	Sololá	702	San José Chacayá	5	Chacayá	3	Marzo	2023-03-27T00:00:00	2024-11-06T11:00:00	8	Radiación solar	903
86489	7	Sololá	702	San José Chacayá	5	Chacayá	3	Marzo	2023-03-27T00:00:00	2024-11-06T12:00:00	2	Temperatura media	20.3
86490	7	Sololá	702	San José Chacayá	5	Chacayá	3	Marzo	2023-03-27T00:00:00	2024-11-06T12:00:00	4	Temperatura máxima	20.3
86491	7	Sololá	702	San José Chacayá	5	Chacayá	3	Marzo	2023-03-27T00:00:00	2024-11-06T12:00:00	3	Temperatura mínima	19.1
86492	7	Sololá	702	San José Chacayá	5	Chacayá	3	Marzo	2023-03-27T00:00:00	2024-11-06T12:00:00	5	Humedad	59
86493	7	Sololá	702	San José Chacayá	5	Chacayá	3	Marzo	2023-03-27T00:00:00	2024-11-06T12:00:00	6	Velocidad del viento	8
86494	7	Sololá	702	San José Chacayá	5	Chacayá	3	Marzo	2023-03-27T00:00:00	2024-11-06T12:00:00	7	Dirección del viento	8.05
86495	7	Sololá	702	San José Chacayá	5	Chacayá	3	Marzo	2023-03-27T00:00:00	2024-11-06T12:00:00	1	Precipitación	0
86496	7	Sololá	702	San José Chacayá	5	Chacayá	3	Marzo	2023-03-27T00:00:00	2024-11-06T12:00:00	8	Radiación solar	1062
86497	7	Sololá	702	San José Chacayá	5	Chacayá	3	Marzo	2023-03-27T00:00:00	2024-11-06T13:00:00	2	Temperatura media	20.3
86498	7	Sololá	702	San José Chacayá	5	Chacayá	3	Marzo	2023-03-27T00:00:00	2024-11-06T13:00:00	4	Temperatura máxima	21.1
86499	7	Sololá	702	San José Chacayá	5	Chacayá	3	Marzo	2023-03-27T00:00:00	2024-11-06T13:00:00	3	Temperatura mínima	20.2
86500	7	Sololá	702	San José Chacayá	5	Chacayá	3	Marzo	2023-03-27T00:00:00	2024-11-06T13:00:00	5	Humedad	64
86501	7	Sololá	702	San José Chacayá	5	Chacayá	3	Marzo	2023-03-27T00:00:00	2024-11-06T13:00:00	6	Velocidad del viento	8
86502	7	Sololá	702	San José Chacayá	5	Chacayá	3	Marzo	2023-03-27T00:00:00	2024-11-06T13:00:00	7	Dirección del viento	8.05
86503	7	Sololá	702	San José Chacayá	5	Chacayá	3	Marzo	2023-03-27T00:00:00	2024-11-06T13:00:00	1	Precipitación	0
86504	7	Sololá	702	San José Chacayá	5	Chacayá	3	Marzo	2023-03-27T00:00:00	2024-11-06T13:00:00	8	Radiación solar	1024
86505	7	Sololá	702	San José Chacayá	5	Chacayá	3	Marzo	2023-03-27T00:00:00	2024-11-06T14:00:00	2	Temperatura media	20.4
86506	7	Sololá	702	San José Chacayá	5	Chacayá	3	Marzo	2023-03-27T00:00:00	2024-11-06T14:00:00	4	Temperatura máxima	20.6
86507	7	Sololá	702	San José Chacayá	5	Chacayá	3	Marzo	2023-03-27T00:00:00	2024-11-06T14:00:00	3	Temperatura mínima	19.6
86508	7	Sololá	702	San José Chacayá	5	Chacayá	3	Marzo	2023-03-27T00:00:00	2024-11-06T14:00:00	5	Humedad	69
86509	7	Sololá	702	San José Chacayá	5	Chacayá	3	Marzo	2023-03-27T00:00:00	2024-11-06T14:00:00	6	Velocidad del viento	8
86510	7	Sololá	702	San José Chacayá	5	Chacayá	3	Marzo	2023-03-27T00:00:00	2024-11-06T14:00:00	7	Dirección del viento	8.05
86511	7	Sololá	702	San José Chacayá	5	Chacayá	3	Marzo	2023-03-27T00:00:00	2024-11-06T14:00:00	1	Precipitación	0
86512	7	Sololá	702	San José Chacayá	5	Chacayá	3	Marzo	2023-03-27T00:00:00	2024-11-06T14:00:00	8	Radiación solar	920
86513	7	Sololá	702	San José Chacayá	5	Chacayá	3	Marzo	2023-03-27T00:00:00	2024-11-06T15:00:00	2	Temperatura media	19.9
86514	7	Sololá	702	San José Chacayá	5	Chacayá	3	Marzo	2023-03-27T00:00:00	2024-11-06T15:00:00	4	Temperatura máxima	20.6
86515	7	Sololá	702	San José Chacayá	5	Chacayá	3	Marzo	2023-03-27T00:00:00	2024-11-06T15:00:00	3	Temperatura mínima	19.5
86516	7	Sololá	702	San José Chacayá	5	Chacayá	3	Marzo	2023-03-27T00:00:00	2024-11-06T15:00:00	5	Humedad	71
86517	7	Sololá	702	San José Chacayá	5	Chacayá	3	Marzo	2023-03-27T00:00:00	2024-11-06T15:00:00	6	Velocidad del viento	8
86518	7	Sololá	702	San José Chacayá	5	Chacayá	3	Marzo	2023-03-27T00:00:00	2024-11-06T15:00:00	7	Dirección del viento	8.05
86519	7	Sololá	702	San José Chacayá	5	Chacayá	3	Marzo	2023-03-27T00:00:00	2024-11-06T15:00:00	1	Precipitación	0
86520	7	Sololá	702	San José Chacayá	5	Chacayá	3	Marzo	2023-03-27T00:00:00	2024-11-06T15:00:00	8	Radiación solar	642
86521	7	Sololá	702	San José Chacayá	5	Chacayá	3	Marzo	2023-03-27T00:00:00	2024-11-06T16:00:00	2	Temperatura media	18.8
86522	7	Sololá	702	San José Chacayá	5	Chacayá	3	Marzo	2023-03-27T00:00:00	2024-11-06T16:00:00	4	Temperatura máxima	19.9
86523	7	Sololá	702	San José Chacayá	5	Chacayá	3	Marzo	2023-03-27T00:00:00	2024-11-06T16:00:00	3	Temperatura mínima	18.6
86524	7	Sololá	702	San José Chacayá	5	Chacayá	3	Marzo	2023-03-27T00:00:00	2024-11-06T16:00:00	5	Humedad	75
86525	7	Sololá	702	San José Chacayá	5	Chacayá	3	Marzo	2023-03-27T00:00:00	2024-11-06T16:00:00	6	Velocidad del viento	8
86526	7	Sololá	702	San José Chacayá	5	Chacayá	3	Marzo	2023-03-27T00:00:00	2024-11-06T16:00:00	7	Dirección del viento	8.05
86527	7	Sololá	702	San José Chacayá	5	Chacayá	3	Marzo	2023-03-27T00:00:00	2024-11-06T16:00:00	1	Precipitación	0
86528	7	Sololá	702	San José Chacayá	5	Chacayá	3	Marzo	2023-03-27T00:00:00	2024-11-06T16:00:00	8	Radiación solar	532
86529	7	Sololá	702	San José Chacayá	5	Chacayá	3	Marzo	2023-03-27T00:00:00	2024-11-06T17:00:00	2	Temperatura media	18.6
86530	7	Sololá	702	San José Chacayá	5	Chacayá	3	Marzo	2023-03-27T00:00:00	2024-11-06T17:00:00	4	Temperatura máxima	19.4
86531	7	Sololá	702	San José Chacayá	5	Chacayá	3	Marzo	2023-03-27T00:00:00	2024-11-06T17:00:00	3	Temperatura mínima	18.6
86532	7	Sololá	702	San José Chacayá	5	Chacayá	3	Marzo	2023-03-27T00:00:00	2024-11-06T17:00:00	5	Humedad	77
86533	7	Sololá	702	San José Chacayá	5	Chacayá	3	Marzo	2023-03-27T00:00:00	2024-11-06T17:00:00	6	Velocidad del viento	4.8
86534	7	Sololá	702	San José Chacayá	5	Chacayá	3	Marzo	2023-03-27T00:00:00	2024-11-06T17:00:00	7	Dirección del viento	4.83
86535	7	Sololá	702	San José Chacayá	5	Chacayá	3	Marzo	2023-03-27T00:00:00	2024-11-06T17:00:00	1	Precipitación	0
86536	7	Sololá	702	San José Chacayá	5	Chacayá	3	Marzo	2023-03-27T00:00:00	2024-11-06T17:00:00	8	Radiación solar	156
86537	7	Sololá	702	San José Chacayá	5	Chacayá	3	Marzo	2023-03-27T00:00:00	2024-11-06T18:00:00	2	Temperatura media	17.3
86538	7	Sololá	702	San José Chacayá	5	Chacayá	3	Marzo	2023-03-27T00:00:00	2024-11-06T18:00:00	4	Temperatura máxima	18.6
86539	7	Sololá	702	San José Chacayá	5	Chacayá	3	Marzo	2023-03-27T00:00:00	2024-11-06T18:00:00	3	Temperatura mínima	17.3
86540	7	Sololá	702	San José Chacayá	5	Chacayá	3	Marzo	2023-03-27T00:00:00	2024-11-06T18:00:00	5	Humedad	81
86541	7	Sololá	702	San José Chacayá	5	Chacayá	3	Marzo	2023-03-27T00:00:00	2024-11-06T18:00:00	6	Velocidad del viento	6.4
86542	7	Sololá	702	San José Chacayá	5	Chacayá	3	Marzo	2023-03-27T00:00:00	2024-11-06T18:00:00	7	Dirección del viento	6.44
86543	7	Sololá	702	San José Chacayá	5	Chacayá	3	Marzo	2023-03-27T00:00:00	2024-11-06T18:00:00	1	Precipitación	0
86544	7	Sololá	702	San José Chacayá	5	Chacayá	3	Marzo	2023-03-27T00:00:00	2024-11-06T18:00:00	8	Radiación solar	47
86545	7	Sololá	702	San José Chacayá	5	Chacayá	3	Marzo	2023-03-27T00:00:00	2024-11-06T19:00:00	2	Temperatura media	16
86546	7	Sololá	702	San José Chacayá	5	Chacayá	3	Marzo	2023-03-27T00:00:00	2024-11-06T19:00:00	4	Temperatura máxima	17.3
86547	7	Sololá	702	San José Chacayá	5	Chacayá	3	Marzo	2023-03-27T00:00:00	2024-11-06T19:00:00	3	Temperatura mínima	16
86548	7	Sololá	702	San José Chacayá	5	Chacayá	3	Marzo	2023-03-27T00:00:00	2024-11-06T19:00:00	5	Humedad	84
86549	7	Sololá	702	San José Chacayá	5	Chacayá	3	Marzo	2023-03-27T00:00:00	2024-11-06T19:00:00	6	Velocidad del viento	1.6
86550	7	Sololá	702	San José Chacayá	5	Chacayá	3	Marzo	2023-03-27T00:00:00	2024-11-06T19:00:00	7	Dirección del viento	1.61
86551	7	Sololá	702	San José Chacayá	5	Chacayá	3	Marzo	2023-03-27T00:00:00	2024-11-06T19:00:00	1	Precipitación	0
86552	7	Sololá	702	San José Chacayá	5	Chacayá	3	Marzo	2023-03-27T00:00:00	2024-11-06T19:00:00	8	Radiación solar	0
86553	7	Sololá	702	San José Chacayá	5	Chacayá	3	Marzo	2023-03-27T00:00:00	2024-11-06T20:00:00	2	Temperatura media	14.8
86554	7	Sololá	702	San José Chacayá	5	Chacayá	3	Marzo	2023-03-27T00:00:00	2024-11-06T20:00:00	4	Temperatura máxima	16
86555	7	Sololá	702	San José Chacayá	5	Chacayá	3	Marzo	2023-03-27T00:00:00	2024-11-06T20:00:00	3	Temperatura mínima	14.8
86556	7	Sololá	702	San José Chacayá	5	Chacayá	3	Marzo	2023-03-27T00:00:00	2024-11-06T20:00:00	5	Humedad	80
86557	7	Sololá	702	San José Chacayá	5	Chacayá	3	Marzo	2023-03-27T00:00:00	2024-11-06T20:00:00	6	Velocidad del viento	0
86558	7	Sololá	702	San José Chacayá	5	Chacayá	3	Marzo	2023-03-27T00:00:00	2024-11-06T20:00:00	7	Dirección del viento	0
86559	7	Sololá	702	San José Chacayá	5	Chacayá	3	Marzo	2023-03-27T00:00:00	2024-11-06T20:00:00	1	Precipitación	0
86560	7	Sololá	702	San José Chacayá	5	Chacayá	3	Marzo	2023-03-27T00:00:00	2024-11-06T20:00:00	8	Radiación solar	0
86561	7	Sololá	702	San José Chacayá	5	Chacayá	3	Marzo	2023-03-27T00:00:00	2024-11-06T21:00:00	2	Temperatura media	13.9
86562	7	Sololá	702	San José Chacayá	5	Chacayá	3	Marzo	2023-03-27T00:00:00	2024-11-06T21:00:00	4	Temperatura máxima	14.8
86563	7	Sololá	702	San José Chacayá	5	Chacayá	3	Marzo	2023-03-27T00:00:00	2024-11-06T21:00:00	3	Temperatura mínima	13.9
86564	7	Sololá	702	San José Chacayá	5	Chacayá	3	Marzo	2023-03-27T00:00:00	2024-11-06T21:00:00	5	Humedad	82
86565	7	Sololá	702	San José Chacayá	5	Chacayá	3	Marzo	2023-03-27T00:00:00	2024-11-06T21:00:00	6	Velocidad del viento	1.6
86566	7	Sololá	702	San José Chacayá	5	Chacayá	3	Marzo	2023-03-27T00:00:00	2024-11-06T21:00:00	7	Dirección del viento	1.61
86567	7	Sololá	702	San José Chacayá	5	Chacayá	3	Marzo	2023-03-27T00:00:00	2024-11-06T21:00:00	1	Precipitación	0
86568	7	Sololá	702	San José Chacayá	5	Chacayá	3	Marzo	2023-03-27T00:00:00	2024-11-06T21:00:00	8	Radiación solar	0
86569	7	Sololá	702	San José Chacayá	5	Chacayá	3	Marzo	2023-03-27T00:00:00	2024-11-06T22:00:00	2	Temperatura media	13.1
86570	7	Sololá	702	San José Chacayá	5	Chacayá	3	Marzo	2023-03-27T00:00:00	2024-11-06T22:00:00	4	Temperatura máxima	13.9
86571	7	Sololá	702	San José Chacayá	5	Chacayá	3	Marzo	2023-03-27T00:00:00	2024-11-06T22:00:00	3	Temperatura mínima	13.1
86572	7	Sololá	702	San José Chacayá	5	Chacayá	3	Marzo	2023-03-27T00:00:00	2024-11-06T22:00:00	5	Humedad	83
86573	7	Sololá	702	San José Chacayá	5	Chacayá	3	Marzo	2023-03-27T00:00:00	2024-11-06T22:00:00	6	Velocidad del viento	1.6
86574	7	Sololá	702	San José Chacayá	5	Chacayá	3	Marzo	2023-03-27T00:00:00	2024-11-06T22:00:00	7	Dirección del viento	1.61
86575	7	Sololá	702	San José Chacayá	5	Chacayá	3	Marzo	2023-03-27T00:00:00	2024-11-06T22:00:00	1	Precipitación	0
86576	7	Sololá	702	San José Chacayá	5	Chacayá	3	Marzo	2023-03-27T00:00:00	2024-11-06T22:00:00	8	Radiación solar	0
86577	7	Sololá	702	San José Chacayá	5	Chacayá	3	Marzo	2023-03-27T00:00:00	2024-11-06T23:00:00	2	Temperatura media	12
86578	7	Sololá	702	San José Chacayá	5	Chacayá	3	Marzo	2023-03-27T00:00:00	2024-11-06T23:00:00	4	Temperatura máxima	13.1
86579	7	Sololá	702	San José Chacayá	5	Chacayá	3	Marzo	2023-03-27T00:00:00	2024-11-06T23:00:00	3	Temperatura mínima	12
86580	7	Sololá	702	San José Chacayá	5	Chacayá	3	Marzo	2023-03-27T00:00:00	2024-11-06T23:00:00	5	Humedad	84
86581	7	Sololá	702	San José Chacayá	5	Chacayá	3	Marzo	2023-03-27T00:00:00	2024-11-06T23:00:00	6	Velocidad del viento	1.6
86582	7	Sololá	702	San José Chacayá	5	Chacayá	3	Marzo	2023-03-27T00:00:00	2024-11-06T23:00:00	7	Dirección del viento	1.61
86583	7	Sololá	702	San José Chacayá	5	Chacayá	3	Marzo	2023-03-27T00:00:00	2024-11-06T23:00:00	1	Precipitación	0
86584	7	Sololá	702	San José Chacayá	5	Chacayá	3	Marzo	2023-03-27T00:00:00	2024-11-06T23:00:00	8	Radiación solar	0
86585	7	Sololá	702	San José Chacayá	5	Chacayá	3	Marzo	2023-03-28T00:00:00	2024-11-06T00:00:00	2	Temperatura media	11.3
86586	7	Sololá	702	San José Chacayá	5	Chacayá	3	Marzo	2023-03-28T00:00:00	2024-11-06T00:00:00	4	Temperatura máxima	12
86587	7	Sololá	702	San José Chacayá	5	Chacayá	3	Marzo	2023-03-28T00:00:00	2024-11-06T00:00:00	3	Temperatura mínima	11.3
86588	7	Sololá	702	San José Chacayá	5	Chacayá	3	Marzo	2023-03-28T00:00:00	2024-11-06T00:00:00	5	Humedad	84
86589	7	Sololá	702	San José Chacayá	5	Chacayá	3	Marzo	2023-03-28T00:00:00	2024-11-06T00:00:00	6	Velocidad del viento	4.8
86590	7	Sololá	702	San José Chacayá	5	Chacayá	3	Marzo	2023-03-28T00:00:00	2024-11-06T00:00:00	7	Dirección del viento	4.83
86591	7	Sololá	702	San José Chacayá	5	Chacayá	3	Marzo	2023-03-28T00:00:00	2024-11-06T00:00:00	1	Precipitación	0
86592	7	Sololá	702	San José Chacayá	5	Chacayá	3	Marzo	2023-03-28T00:00:00	2024-11-06T00:00:00	8	Radiación solar	0
86593	7	Sololá	702	San José Chacayá	5	Chacayá	3	Marzo	2023-03-28T00:00:00	2024-11-06T01:00:00	2	Temperatura media	10.6
86594	7	Sololá	702	San José Chacayá	5	Chacayá	3	Marzo	2023-03-28T00:00:00	2024-11-06T01:00:00	4	Temperatura máxima	11.3
86595	7	Sololá	702	San José Chacayá	5	Chacayá	3	Marzo	2023-03-28T00:00:00	2024-11-06T01:00:00	3	Temperatura mínima	10.6
86596	7	Sololá	702	San José Chacayá	5	Chacayá	3	Marzo	2023-03-28T00:00:00	2024-11-06T01:00:00	5	Humedad	84
86597	7	Sololá	702	San José Chacayá	5	Chacayá	3	Marzo	2023-03-28T00:00:00	2024-11-06T01:00:00	6	Velocidad del viento	4.8
86598	7	Sololá	702	San José Chacayá	5	Chacayá	3	Marzo	2023-03-28T00:00:00	2024-11-06T01:00:00	7	Dirección del viento	4.83
86599	7	Sololá	702	San José Chacayá	5	Chacayá	3	Marzo	2023-03-28T00:00:00	2024-11-06T01:00:00	1	Precipitación	0
86600	7	Sololá	702	San José Chacayá	5	Chacayá	3	Marzo	2023-03-28T00:00:00	2024-11-06T01:00:00	8	Radiación solar	0
86601	7	Sololá	702	San José Chacayá	5	Chacayá	3	Marzo	2023-03-28T00:00:00	2024-11-06T02:00:00	2	Temperatura media	10.3
86602	7	Sololá	702	San José Chacayá	5	Chacayá	3	Marzo	2023-03-28T00:00:00	2024-11-06T02:00:00	4	Temperatura máxima	10.6
86603	7	Sololá	702	San José Chacayá	5	Chacayá	3	Marzo	2023-03-28T00:00:00	2024-11-06T02:00:00	3	Temperatura mínima	10.2
86604	7	Sololá	702	San José Chacayá	5	Chacayá	3	Marzo	2023-03-28T00:00:00	2024-11-06T02:00:00	5	Humedad	84
86605	7	Sololá	702	San José Chacayá	5	Chacayá	3	Marzo	2023-03-28T00:00:00	2024-11-06T02:00:00	6	Velocidad del viento	3.2
86606	7	Sololá	702	San José Chacayá	5	Chacayá	3	Marzo	2023-03-28T00:00:00	2024-11-06T02:00:00	7	Dirección del viento	3.22
86607	7	Sololá	702	San José Chacayá	5	Chacayá	3	Marzo	2023-03-28T00:00:00	2024-11-06T02:00:00	1	Precipitación	0
86608	7	Sololá	702	San José Chacayá	5	Chacayá	3	Marzo	2023-03-28T00:00:00	2024-11-06T02:00:00	8	Radiación solar	0
86609	7	Sololá	702	San José Chacayá	5	Chacayá	3	Marzo	2023-03-28T00:00:00	2024-11-06T03:00:00	2	Temperatura media	10.3
86610	7	Sololá	702	San José Chacayá	5	Chacayá	3	Marzo	2023-03-28T00:00:00	2024-11-06T03:00:00	4	Temperatura máxima	10.3
86611	7	Sololá	702	San José Chacayá	5	Chacayá	3	Marzo	2023-03-28T00:00:00	2024-11-06T03:00:00	3	Temperatura mínima	10.1
86612	7	Sololá	702	San José Chacayá	5	Chacayá	3	Marzo	2023-03-28T00:00:00	2024-11-06T03:00:00	5	Humedad	85
86613	7	Sololá	702	San José Chacayá	5	Chacayá	3	Marzo	2023-03-28T00:00:00	2024-11-06T03:00:00	6	Velocidad del viento	3.2
86614	7	Sololá	702	San José Chacayá	5	Chacayá	3	Marzo	2023-03-28T00:00:00	2024-11-06T03:00:00	7	Dirección del viento	3.22
86615	7	Sololá	702	San José Chacayá	5	Chacayá	3	Marzo	2023-03-28T00:00:00	2024-11-06T03:00:00	1	Precipitación	0
86616	7	Sololá	702	San José Chacayá	5	Chacayá	3	Marzo	2023-03-28T00:00:00	2024-11-06T03:00:00	8	Radiación solar	0
86617	7	Sololá	702	San José Chacayá	5	Chacayá	3	Marzo	2023-03-28T00:00:00	2024-11-06T04:00:00	2	Temperatura media	10.2
86618	7	Sololá	702	San José Chacayá	5	Chacayá	3	Marzo	2023-03-28T00:00:00	2024-11-06T04:00:00	4	Temperatura máxima	10.4
86619	7	Sololá	702	San José Chacayá	5	Chacayá	3	Marzo	2023-03-28T00:00:00	2024-11-06T04:00:00	3	Temperatura mínima	10.2
86620	7	Sololá	702	San José Chacayá	5	Chacayá	3	Marzo	2023-03-28T00:00:00	2024-11-06T04:00:00	5	Humedad	85
86621	7	Sololá	702	San José Chacayá	5	Chacayá	3	Marzo	2023-03-28T00:00:00	2024-11-06T04:00:00	6	Velocidad del viento	3.2
86622	7	Sololá	702	San José Chacayá	5	Chacayá	3	Marzo	2023-03-28T00:00:00	2024-11-06T04:00:00	7	Dirección del viento	3.22
86623	7	Sololá	702	San José Chacayá	5	Chacayá	3	Marzo	2023-03-28T00:00:00	2024-11-06T04:00:00	1	Precipitación	0
86624	7	Sololá	702	San José Chacayá	5	Chacayá	3	Marzo	2023-03-28T00:00:00	2024-11-06T04:00:00	8	Radiación solar	0
86625	7	Sololá	702	San José Chacayá	5	Chacayá	3	Marzo	2023-03-28T00:00:00	2024-11-06T05:00:00	2	Temperatura media	10.3
86626	7	Sololá	702	San José Chacayá	5	Chacayá	3	Marzo	2023-03-28T00:00:00	2024-11-06T05:00:00	4	Temperatura máxima	10.3
86627	7	Sololá	702	San José Chacayá	5	Chacayá	3	Marzo	2023-03-28T00:00:00	2024-11-06T05:00:00	3	Temperatura mínima	10
86628	7	Sololá	702	San José Chacayá	5	Chacayá	3	Marzo	2023-03-28T00:00:00	2024-11-06T05:00:00	5	Humedad	85
86629	7	Sololá	702	San José Chacayá	5	Chacayá	3	Marzo	2023-03-28T00:00:00	2024-11-06T05:00:00	6	Velocidad del viento	3.2
86630	7	Sololá	702	San José Chacayá	5	Chacayá	3	Marzo	2023-03-28T00:00:00	2024-11-06T05:00:00	7	Dirección del viento	3.22
86631	7	Sololá	702	San José Chacayá	5	Chacayá	3	Marzo	2023-03-28T00:00:00	2024-11-06T05:00:00	1	Precipitación	0
86632	7	Sololá	702	San José Chacayá	5	Chacayá	3	Marzo	2023-03-28T00:00:00	2024-11-06T05:00:00	8	Radiación solar	0
86633	7	Sololá	702	San José Chacayá	5	Chacayá	3	Marzo	2023-03-28T00:00:00	2024-11-06T06:00:00	2	Temperatura media	9.9
86634	7	Sololá	702	San José Chacayá	5	Chacayá	3	Marzo	2023-03-28T00:00:00	2024-11-06T06:00:00	4	Temperatura máxima	10.3
86635	7	Sololá	702	San José Chacayá	5	Chacayá	3	Marzo	2023-03-28T00:00:00	2024-11-06T06:00:00	3	Temperatura mínima	9.8
86636	7	Sololá	702	San José Chacayá	5	Chacayá	3	Marzo	2023-03-28T00:00:00	2024-11-06T06:00:00	5	Humedad	84
86637	7	Sololá	702	San José Chacayá	5	Chacayá	3	Marzo	2023-03-28T00:00:00	2024-11-06T06:00:00	6	Velocidad del viento	3.2
86638	7	Sololá	702	San José Chacayá	5	Chacayá	3	Marzo	2023-03-28T00:00:00	2024-11-06T06:00:00	7	Dirección del viento	3.22
86639	7	Sololá	702	San José Chacayá	5	Chacayá	3	Marzo	2023-03-28T00:00:00	2024-11-06T06:00:00	1	Precipitación	0
86640	7	Sololá	702	San José Chacayá	5	Chacayá	3	Marzo	2023-03-28T00:00:00	2024-11-06T06:00:00	8	Radiación solar	0
86641	7	Sololá	702	San José Chacayá	5	Chacayá	3	Marzo	2023-03-28T00:00:00	2024-11-06T07:00:00	2	Temperatura media	9.8
86642	7	Sololá	702	San José Chacayá	5	Chacayá	3	Marzo	2023-03-28T00:00:00	2024-11-06T07:00:00	4	Temperatura máxima	10
86643	7	Sololá	702	San José Chacayá	5	Chacayá	3	Marzo	2023-03-28T00:00:00	2024-11-06T07:00:00	3	Temperatura mínima	9.8
86644	7	Sololá	702	San José Chacayá	5	Chacayá	3	Marzo	2023-03-28T00:00:00	2024-11-06T07:00:00	5	Humedad	84
86645	7	Sololá	702	San José Chacayá	5	Chacayá	3	Marzo	2023-03-28T00:00:00	2024-11-06T07:00:00	6	Velocidad del viento	3.2
86646	7	Sololá	702	San José Chacayá	5	Chacayá	3	Marzo	2023-03-28T00:00:00	2024-11-06T07:00:00	7	Dirección del viento	3.22
86647	7	Sololá	702	San José Chacayá	5	Chacayá	3	Marzo	2023-03-28T00:00:00	2024-11-06T07:00:00	1	Precipitación	0
86648	7	Sololá	702	San José Chacayá	5	Chacayá	3	Marzo	2023-03-28T00:00:00	2024-11-06T07:00:00	8	Radiación solar	35
86649	7	Sololá	702	San José Chacayá	5	Chacayá	3	Marzo	2023-03-28T00:00:00	2024-11-06T08:00:00	2	Temperatura media	11.3
86650	7	Sololá	702	San José Chacayá	5	Chacayá	3	Marzo	2023-03-28T00:00:00	2024-11-06T08:00:00	4	Temperatura máxima	11.3
86651	7	Sololá	702	San José Chacayá	5	Chacayá	3	Marzo	2023-03-28T00:00:00	2024-11-06T08:00:00	3	Temperatura mínima	9.8
86652	7	Sololá	702	San José Chacayá	5	Chacayá	3	Marzo	2023-03-28T00:00:00	2024-11-06T08:00:00	5	Humedad	84
86653	7	Sololá	702	San José Chacayá	5	Chacayá	3	Marzo	2023-03-28T00:00:00	2024-11-06T08:00:00	6	Velocidad del viento	3.2
86654	7	Sololá	702	San José Chacayá	5	Chacayá	3	Marzo	2023-03-28T00:00:00	2024-11-06T08:00:00	7	Dirección del viento	3.22
86655	7	Sololá	702	San José Chacayá	5	Chacayá	3	Marzo	2023-03-28T00:00:00	2024-11-06T08:00:00	1	Precipitación	0
86656	7	Sololá	702	San José Chacayá	5	Chacayá	3	Marzo	2023-03-28T00:00:00	2024-11-06T08:00:00	8	Radiación solar	153
86657	7	Sololá	702	San José Chacayá	5	Chacayá	3	Marzo	2023-03-28T00:00:00	2024-11-06T09:00:00	2	Temperatura media	15.1
86658	7	Sololá	702	San José Chacayá	5	Chacayá	3	Marzo	2023-03-28T00:00:00	2024-11-06T09:00:00	4	Temperatura máxima	15.1
86659	7	Sololá	702	San José Chacayá	5	Chacayá	3	Marzo	2023-03-28T00:00:00	2024-11-06T09:00:00	3	Temperatura mínima	11.3
86660	7	Sololá	702	San José Chacayá	5	Chacayá	3	Marzo	2023-03-28T00:00:00	2024-11-06T09:00:00	5	Humedad	81
86661	7	Sololá	702	San José Chacayá	5	Chacayá	3	Marzo	2023-03-28T00:00:00	2024-11-06T09:00:00	6	Velocidad del viento	1.6
86662	7	Sololá	702	San José Chacayá	5	Chacayá	3	Marzo	2023-03-28T00:00:00	2024-11-06T09:00:00	7	Dirección del viento	1.61
86663	7	Sololá	702	San José Chacayá	5	Chacayá	3	Marzo	2023-03-28T00:00:00	2024-11-06T09:00:00	1	Precipitación	0
86664	7	Sololá	702	San José Chacayá	5	Chacayá	3	Marzo	2023-03-28T00:00:00	2024-11-06T09:00:00	8	Radiación solar	504
86665	7	Sololá	702	San José Chacayá	5	Chacayá	3	Marzo	2023-03-28T00:00:00	2024-11-06T10:00:00	2	Temperatura media	18.8
86666	7	Sololá	702	San José Chacayá	5	Chacayá	3	Marzo	2023-03-28T00:00:00	2024-11-06T10:00:00	4	Temperatura máxima	18.8
86667	7	Sololá	702	San José Chacayá	5	Chacayá	3	Marzo	2023-03-28T00:00:00	2024-11-06T10:00:00	3	Temperatura mínima	15.1
86668	7	Sololá	702	San José Chacayá	5	Chacayá	3	Marzo	2023-03-28T00:00:00	2024-11-06T10:00:00	5	Humedad	66
86669	7	Sololá	702	San José Chacayá	5	Chacayá	3	Marzo	2023-03-28T00:00:00	2024-11-06T10:00:00	6	Velocidad del viento	1.6
86670	7	Sololá	702	San José Chacayá	5	Chacayá	3	Marzo	2023-03-28T00:00:00	2024-11-06T10:00:00	7	Dirección del viento	1.61
86671	7	Sololá	702	San José Chacayá	5	Chacayá	3	Marzo	2023-03-28T00:00:00	2024-11-06T10:00:00	1	Precipitación	0
86672	7	Sololá	702	San José Chacayá	5	Chacayá	3	Marzo	2023-03-28T00:00:00	2024-11-06T10:00:00	8	Radiación solar	785
86673	7	Sololá	702	San José Chacayá	5	Chacayá	3	Marzo	2023-03-28T00:00:00	2024-11-06T11:00:00	2	Temperatura media	20.7
86674	7	Sololá	702	San José Chacayá	5	Chacayá	3	Marzo	2023-03-28T00:00:00	2024-11-06T11:00:00	4	Temperatura máxima	20.7
86675	7	Sololá	702	San José Chacayá	5	Chacayá	3	Marzo	2023-03-28T00:00:00	2024-11-06T11:00:00	3	Temperatura mínima	18.8
86676	7	Sololá	702	San José Chacayá	5	Chacayá	3	Marzo	2023-03-28T00:00:00	2024-11-06T11:00:00	5	Humedad	66
86677	7	Sololá	702	San José Chacayá	5	Chacayá	3	Marzo	2023-03-28T00:00:00	2024-11-06T11:00:00	6	Velocidad del viento	6.4
86678	7	Sololá	702	San José Chacayá	5	Chacayá	3	Marzo	2023-03-28T00:00:00	2024-11-06T11:00:00	7	Dirección del viento	6.44
86679	7	Sololá	702	San José Chacayá	5	Chacayá	3	Marzo	2023-03-28T00:00:00	2024-11-06T11:00:00	1	Precipitación	0
86680	7	Sololá	702	San José Chacayá	5	Chacayá	3	Marzo	2023-03-28T00:00:00	2024-11-06T11:00:00	8	Radiación solar	894
86681	7	Sololá	702	San José Chacayá	5	Chacayá	3	Marzo	2023-03-28T00:00:00	2024-11-06T12:00:00	2	Temperatura media	21.6
86682	7	Sololá	702	San José Chacayá	5	Chacayá	3	Marzo	2023-03-28T00:00:00	2024-11-06T12:00:00	4	Temperatura máxima	21.6
86683	7	Sololá	702	San José Chacayá	5	Chacayá	3	Marzo	2023-03-28T00:00:00	2024-11-06T12:00:00	3	Temperatura mínima	20.6
86684	7	Sololá	702	San José Chacayá	5	Chacayá	3	Marzo	2023-03-28T00:00:00	2024-11-06T12:00:00	5	Humedad	61
86685	7	Sololá	702	San José Chacayá	5	Chacayá	3	Marzo	2023-03-28T00:00:00	2024-11-06T12:00:00	6	Velocidad del viento	6.4
86686	7	Sololá	702	San José Chacayá	5	Chacayá	3	Marzo	2023-03-28T00:00:00	2024-11-06T12:00:00	7	Dirección del viento	6.44
86687	7	Sololá	702	San José Chacayá	5	Chacayá	3	Marzo	2023-03-28T00:00:00	2024-11-06T12:00:00	1	Precipitación	0
86688	7	Sololá	702	San José Chacayá	5	Chacayá	3	Marzo	2023-03-28T00:00:00	2024-11-06T12:00:00	8	Radiación solar	1000
86689	7	Sololá	702	San José Chacayá	5	Chacayá	3	Marzo	2023-03-28T00:00:00	2024-11-06T13:00:00	2	Temperatura media	21.2
86690	7	Sololá	702	San José Chacayá	5	Chacayá	3	Marzo	2023-03-28T00:00:00	2024-11-06T13:00:00	4	Temperatura máxima	21.8
86691	7	Sololá	702	San José Chacayá	5	Chacayá	3	Marzo	2023-03-28T00:00:00	2024-11-06T13:00:00	3	Temperatura mínima	21.2
86692	7	Sololá	702	San José Chacayá	5	Chacayá	3	Marzo	2023-03-28T00:00:00	2024-11-06T13:00:00	5	Humedad	67
86693	7	Sololá	702	San José Chacayá	5	Chacayá	3	Marzo	2023-03-28T00:00:00	2024-11-06T13:00:00	6	Velocidad del viento	8
86694	7	Sololá	702	San José Chacayá	5	Chacayá	3	Marzo	2023-03-28T00:00:00	2024-11-06T13:00:00	7	Dirección del viento	8.05
86695	7	Sololá	702	San José Chacayá	5	Chacayá	3	Marzo	2023-03-28T00:00:00	2024-11-06T13:00:00	1	Precipitación	0
86696	7	Sololá	702	San José Chacayá	5	Chacayá	3	Marzo	2023-03-28T00:00:00	2024-11-06T13:00:00	8	Radiación solar	1041
86697	7	Sololá	702	San José Chacayá	5	Chacayá	3	Marzo	2023-03-28T00:00:00	2024-11-06T14:00:00	2	Temperatura media	20.8
86698	7	Sololá	702	San José Chacayá	5	Chacayá	3	Marzo	2023-03-28T00:00:00	2024-11-06T14:00:00	4	Temperatura máxima	21.2
86699	7	Sololá	702	San José Chacayá	5	Chacayá	3	Marzo	2023-03-28T00:00:00	2024-11-06T14:00:00	3	Temperatura mínima	19.9
86700	7	Sololá	702	San José Chacayá	5	Chacayá	3	Marzo	2023-03-28T00:00:00	2024-11-06T14:00:00	5	Humedad	68
86701	7	Sololá	702	San José Chacayá	5	Chacayá	3	Marzo	2023-03-28T00:00:00	2024-11-06T14:00:00	6	Velocidad del viento	8
86702	7	Sololá	702	San José Chacayá	5	Chacayá	3	Marzo	2023-03-28T00:00:00	2024-11-06T14:00:00	7	Dirección del viento	8.05
86703	7	Sololá	702	San José Chacayá	5	Chacayá	3	Marzo	2023-03-28T00:00:00	2024-11-06T14:00:00	1	Precipitación	0
86704	7	Sololá	702	San José Chacayá	5	Chacayá	3	Marzo	2023-03-28T00:00:00	2024-11-06T14:00:00	8	Radiación solar	658
86705	7	Sololá	702	San José Chacayá	5	Chacayá	3	Marzo	2023-03-28T00:00:00	2024-11-06T15:00:00	2	Temperatura media	19.2
86706	7	Sololá	702	San José Chacayá	5	Chacayá	3	Marzo	2023-03-28T00:00:00	2024-11-06T15:00:00	4	Temperatura máxima	20.8
86707	7	Sololá	702	San José Chacayá	5	Chacayá	3	Marzo	2023-03-28T00:00:00	2024-11-06T15:00:00	3	Temperatura mínima	19.2
86708	7	Sololá	702	San José Chacayá	5	Chacayá	3	Marzo	2023-03-28T00:00:00	2024-11-06T15:00:00	5	Humedad	77
86709	7	Sololá	702	San José Chacayá	5	Chacayá	3	Marzo	2023-03-28T00:00:00	2024-11-06T15:00:00	6	Velocidad del viento	6.4
86710	7	Sololá	702	San José Chacayá	5	Chacayá	3	Marzo	2023-03-28T00:00:00	2024-11-06T15:00:00	7	Dirección del viento	6.44
86711	7	Sololá	702	San José Chacayá	5	Chacayá	3	Marzo	2023-03-28T00:00:00	2024-11-06T15:00:00	1	Precipitación	0
86712	7	Sololá	702	San José Chacayá	5	Chacayá	3	Marzo	2023-03-28T00:00:00	2024-11-06T15:00:00	8	Radiación solar	462
86713	7	Sololá	702	San José Chacayá	5	Chacayá	3	Marzo	2023-03-28T00:00:00	2024-11-06T16:00:00	2	Temperatura media	19.4
86714	7	Sololá	702	San José Chacayá	5	Chacayá	3	Marzo	2023-03-28T00:00:00	2024-11-06T16:00:00	4	Temperatura máxima	19.7
86715	7	Sololá	702	San José Chacayá	5	Chacayá	3	Marzo	2023-03-28T00:00:00	2024-11-06T16:00:00	3	Temperatura mínima	18.4
86716	7	Sololá	702	San José Chacayá	5	Chacayá	3	Marzo	2023-03-28T00:00:00	2024-11-06T16:00:00	5	Humedad	74
86717	7	Sololá	702	San José Chacayá	5	Chacayá	3	Marzo	2023-03-28T00:00:00	2024-11-06T16:00:00	6	Velocidad del viento	6.4
86718	7	Sololá	702	San José Chacayá	5	Chacayá	3	Marzo	2023-03-28T00:00:00	2024-11-06T16:00:00	7	Dirección del viento	6.44
86719	7	Sololá	702	San José Chacayá	5	Chacayá	3	Marzo	2023-03-28T00:00:00	2024-11-06T16:00:00	1	Precipitación	0
86720	7	Sololá	702	San José Chacayá	5	Chacayá	3	Marzo	2023-03-28T00:00:00	2024-11-06T16:00:00	8	Radiación solar	629
86721	7	Sololá	702	San José Chacayá	5	Chacayá	3	Marzo	2023-03-28T00:00:00	2024-11-06T17:00:00	2	Temperatura media	19.2
86722	7	Sololá	702	San José Chacayá	5	Chacayá	3	Marzo	2023-03-28T00:00:00	2024-11-06T17:00:00	4	Temperatura máxima	20.2
86723	7	Sololá	702	San José Chacayá	5	Chacayá	3	Marzo	2023-03-28T00:00:00	2024-11-06T17:00:00	3	Temperatura mínima	19.2
86724	7	Sololá	702	San José Chacayá	5	Chacayá	3	Marzo	2023-03-28T00:00:00	2024-11-06T17:00:00	5	Humedad	77
86725	7	Sololá	702	San José Chacayá	5	Chacayá	3	Marzo	2023-03-28T00:00:00	2024-11-06T17:00:00	6	Velocidad del viento	6.4
86726	7	Sololá	702	San José Chacayá	5	Chacayá	3	Marzo	2023-03-28T00:00:00	2024-11-06T17:00:00	7	Dirección del viento	6.44
86727	7	Sololá	702	San José Chacayá	5	Chacayá	3	Marzo	2023-03-28T00:00:00	2024-11-06T17:00:00	1	Precipitación	0
86728	7	Sololá	702	San José Chacayá	5	Chacayá	3	Marzo	2023-03-28T00:00:00	2024-11-06T17:00:00	8	Radiación solar	191
86729	7	Sololá	702	San José Chacayá	5	Chacayá	3	Marzo	2023-03-28T00:00:00	2024-11-06T18:00:00	2	Temperatura media	17.8
86730	7	Sololá	702	San José Chacayá	5	Chacayá	3	Marzo	2023-03-28T00:00:00	2024-11-06T18:00:00	4	Temperatura máxima	19.2
86731	7	Sololá	702	San José Chacayá	5	Chacayá	3	Marzo	2023-03-28T00:00:00	2024-11-06T18:00:00	3	Temperatura mínima	17.8
86732	7	Sololá	702	San José Chacayá	5	Chacayá	3	Marzo	2023-03-28T00:00:00	2024-11-06T18:00:00	5	Humedad	82
86733	7	Sololá	702	San José Chacayá	5	Chacayá	3	Marzo	2023-03-28T00:00:00	2024-11-06T18:00:00	6	Velocidad del viento	4.8
86734	7	Sololá	702	San José Chacayá	5	Chacayá	3	Marzo	2023-03-28T00:00:00	2024-11-06T18:00:00	7	Dirección del viento	4.83
86735	7	Sololá	702	San José Chacayá	5	Chacayá	3	Marzo	2023-03-28T00:00:00	2024-11-06T18:00:00	1	Precipitación	0
86736	7	Sololá	702	San José Chacayá	5	Chacayá	3	Marzo	2023-03-28T00:00:00	2024-11-06T18:00:00	8	Radiación solar	61
86737	7	Sololá	702	San José Chacayá	5	Chacayá	3	Marzo	2023-03-28T00:00:00	2024-11-06T19:00:00	2	Temperatura media	16.8
86738	7	Sololá	702	San José Chacayá	5	Chacayá	3	Marzo	2023-03-28T00:00:00	2024-11-06T19:00:00	4	Temperatura máxima	17.8
86739	7	Sololá	702	San José Chacayá	5	Chacayá	3	Marzo	2023-03-28T00:00:00	2024-11-06T19:00:00	3	Temperatura mínima	16.8
86740	7	Sololá	702	San José Chacayá	5	Chacayá	3	Marzo	2023-03-28T00:00:00	2024-11-06T19:00:00	5	Humedad	84
86741	7	Sololá	702	San José Chacayá	5	Chacayá	3	Marzo	2023-03-28T00:00:00	2024-11-06T19:00:00	6	Velocidad del viento	1.6
86742	7	Sololá	702	San José Chacayá	5	Chacayá	3	Marzo	2023-03-28T00:00:00	2024-11-06T19:00:00	7	Dirección del viento	1.61
86743	7	Sololá	702	San José Chacayá	5	Chacayá	3	Marzo	2023-03-28T00:00:00	2024-11-06T19:00:00	1	Precipitación	0
86744	7	Sololá	702	San José Chacayá	5	Chacayá	3	Marzo	2023-03-28T00:00:00	2024-11-06T19:00:00	8	Radiación solar	0
86745	7	Sololá	702	San José Chacayá	5	Chacayá	3	Marzo	2023-03-28T00:00:00	2024-11-06T20:00:00	2	Temperatura media	15.3
86746	7	Sololá	702	San José Chacayá	5	Chacayá	3	Marzo	2023-03-28T00:00:00	2024-11-06T20:00:00	4	Temperatura máxima	16.8
86747	7	Sololá	702	San José Chacayá	5	Chacayá	3	Marzo	2023-03-28T00:00:00	2024-11-06T20:00:00	3	Temperatura mínima	15.3
86748	7	Sololá	702	San José Chacayá	5	Chacayá	3	Marzo	2023-03-28T00:00:00	2024-11-06T20:00:00	5	Humedad	82
86749	7	Sololá	702	San José Chacayá	5	Chacayá	3	Marzo	2023-03-28T00:00:00	2024-11-06T20:00:00	6	Velocidad del viento	0
86750	7	Sololá	702	San José Chacayá	5	Chacayá	3	Marzo	2023-03-28T00:00:00	2024-11-06T20:00:00	7	Dirección del viento	0
86751	7	Sololá	702	San José Chacayá	5	Chacayá	3	Marzo	2023-03-28T00:00:00	2024-11-06T20:00:00	1	Precipitación	0
86752	7	Sololá	702	San José Chacayá	5	Chacayá	3	Marzo	2023-03-28T00:00:00	2024-11-06T20:00:00	8	Radiación solar	0
86753	7	Sololá	702	San José Chacayá	5	Chacayá	3	Marzo	2023-03-28T00:00:00	2024-11-06T21:00:00	2	Temperatura media	14.8
86754	7	Sololá	702	San José Chacayá	5	Chacayá	3	Marzo	2023-03-28T00:00:00	2024-11-06T21:00:00	4	Temperatura máxima	15.3
86755	7	Sololá	702	San José Chacayá	5	Chacayá	3	Marzo	2023-03-28T00:00:00	2024-11-06T21:00:00	3	Temperatura mínima	14.8
86756	7	Sololá	702	San José Chacayá	5	Chacayá	3	Marzo	2023-03-28T00:00:00	2024-11-06T21:00:00	5	Humedad	83
86757	7	Sololá	702	San José Chacayá	5	Chacayá	3	Marzo	2023-03-28T00:00:00	2024-11-06T21:00:00	6	Velocidad del viento	0
86758	7	Sololá	702	San José Chacayá	5	Chacayá	3	Marzo	2023-03-28T00:00:00	2024-11-06T21:00:00	7	Dirección del viento	0
86759	7	Sololá	702	San José Chacayá	5	Chacayá	3	Marzo	2023-03-28T00:00:00	2024-11-06T21:00:00	1	Precipitación	0
86760	7	Sololá	702	San José Chacayá	5	Chacayá	3	Marzo	2023-03-28T00:00:00	2024-11-06T21:00:00	8	Radiación solar	0
86761	7	Sololá	702	San José Chacayá	5	Chacayá	3	Marzo	2023-03-28T00:00:00	2024-11-06T22:00:00	2	Temperatura media	14.8
86762	7	Sololá	702	San José Chacayá	5	Chacayá	3	Marzo	2023-03-28T00:00:00	2024-11-06T22:00:00	4	Temperatura máxima	15.1
86763	7	Sololá	702	San José Chacayá	5	Chacayá	3	Marzo	2023-03-28T00:00:00	2024-11-06T22:00:00	3	Temperatura mínima	14.5
86764	7	Sololá	702	San José Chacayá	5	Chacayá	3	Marzo	2023-03-28T00:00:00	2024-11-06T22:00:00	5	Humedad	82
86765	7	Sololá	702	San José Chacayá	5	Chacayá	3	Marzo	2023-03-28T00:00:00	2024-11-06T22:00:00	6	Velocidad del viento	1.6
86766	7	Sololá	702	San José Chacayá	5	Chacayá	3	Marzo	2023-03-28T00:00:00	2024-11-06T22:00:00	7	Dirección del viento	1.61
86767	7	Sololá	702	San José Chacayá	5	Chacayá	3	Marzo	2023-03-28T00:00:00	2024-11-06T22:00:00	1	Precipitación	0
86768	7	Sololá	702	San José Chacayá	5	Chacayá	3	Marzo	2023-03-28T00:00:00	2024-11-06T22:00:00	8	Radiación solar	0
86769	7	Sololá	702	San José Chacayá	5	Chacayá	3	Marzo	2023-03-28T00:00:00	2024-11-06T23:00:00	2	Temperatura media	14.2
86770	7	Sololá	702	San José Chacayá	5	Chacayá	3	Marzo	2023-03-28T00:00:00	2024-11-06T23:00:00	4	Temperatura máxima	14.9
86771	7	Sololá	702	San José Chacayá	5	Chacayá	3	Marzo	2023-03-28T00:00:00	2024-11-06T23:00:00	3	Temperatura mínima	14.2
86772	7	Sololá	702	San José Chacayá	5	Chacayá	3	Marzo	2023-03-28T00:00:00	2024-11-06T23:00:00	5	Humedad	81
86773	7	Sololá	702	San José Chacayá	5	Chacayá	3	Marzo	2023-03-28T00:00:00	2024-11-06T23:00:00	6	Velocidad del viento	1.6
86774	7	Sololá	702	San José Chacayá	5	Chacayá	3	Marzo	2023-03-28T00:00:00	2024-11-06T23:00:00	7	Dirección del viento	1.61
86775	7	Sololá	702	San José Chacayá	5	Chacayá	3	Marzo	2023-03-28T00:00:00	2024-11-06T23:00:00	1	Precipitación	0
86776	7	Sololá	702	San José Chacayá	5	Chacayá	3	Marzo	2023-03-28T00:00:00	2024-11-06T23:00:00	8	Radiación solar	0
86777	7	Sololá	702	San José Chacayá	5	Chacayá	3	Marzo	2023-03-29T00:00:00	2024-11-06T00:00:00	2	Temperatura media	12.1
86778	7	Sololá	702	San José Chacayá	5	Chacayá	3	Marzo	2023-03-29T00:00:00	2024-11-06T00:00:00	4	Temperatura máxima	14.2
86779	7	Sololá	702	San José Chacayá	5	Chacayá	3	Marzo	2023-03-29T00:00:00	2024-11-06T00:00:00	3	Temperatura mínima	12.1
86780	7	Sololá	702	San José Chacayá	5	Chacayá	3	Marzo	2023-03-29T00:00:00	2024-11-06T00:00:00	5	Humedad	85
86781	7	Sololá	702	San José Chacayá	5	Chacayá	3	Marzo	2023-03-29T00:00:00	2024-11-06T00:00:00	6	Velocidad del viento	1.6
86782	7	Sololá	702	San José Chacayá	5	Chacayá	3	Marzo	2023-03-29T00:00:00	2024-11-06T00:00:00	7	Dirección del viento	1.61
86783	7	Sololá	702	San José Chacayá	5	Chacayá	3	Marzo	2023-03-29T00:00:00	2024-11-06T00:00:00	1	Precipitación	0
86784	7	Sololá	702	San José Chacayá	5	Chacayá	3	Marzo	2023-03-29T00:00:00	2024-11-06T00:00:00	8	Radiación solar	0
86785	7	Sololá	702	San José Chacayá	5	Chacayá	3	Marzo	2023-03-29T00:00:00	2024-11-06T01:00:00	2	Temperatura media	11
86786	7	Sololá	702	San José Chacayá	5	Chacayá	3	Marzo	2023-03-29T00:00:00	2024-11-06T01:00:00	4	Temperatura máxima	12.2
86787	7	Sololá	702	San José Chacayá	5	Chacayá	3	Marzo	2023-03-29T00:00:00	2024-11-06T01:00:00	3	Temperatura mínima	11
86788	7	Sololá	702	San José Chacayá	5	Chacayá	3	Marzo	2023-03-29T00:00:00	2024-11-06T01:00:00	5	Humedad	85
86789	7	Sololá	702	San José Chacayá	5	Chacayá	3	Marzo	2023-03-29T00:00:00	2024-11-06T01:00:00	6	Velocidad del viento	3.2
86790	7	Sololá	702	San José Chacayá	5	Chacayá	3	Marzo	2023-03-29T00:00:00	2024-11-06T01:00:00	7	Dirección del viento	3.22
86791	7	Sololá	702	San José Chacayá	5	Chacayá	3	Marzo	2023-03-29T00:00:00	2024-11-06T01:00:00	1	Precipitación	0
86792	7	Sololá	702	San José Chacayá	5	Chacayá	3	Marzo	2023-03-29T00:00:00	2024-11-06T01:00:00	8	Radiación solar	0
86793	7	Sololá	702	San José Chacayá	5	Chacayá	3	Marzo	2023-03-29T00:00:00	2024-11-06T02:00:00	2	Temperatura media	10.3
86794	7	Sololá	702	San José Chacayá	5	Chacayá	3	Marzo	2023-03-29T00:00:00	2024-11-06T02:00:00	4	Temperatura máxima	11.1
86795	7	Sololá	702	San José Chacayá	5	Chacayá	3	Marzo	2023-03-29T00:00:00	2024-11-06T02:00:00	3	Temperatura mínima	10.3
86796	7	Sololá	702	San José Chacayá	5	Chacayá	3	Marzo	2023-03-29T00:00:00	2024-11-06T02:00:00	5	Humedad	85
86797	7	Sololá	702	San José Chacayá	5	Chacayá	3	Marzo	2023-03-29T00:00:00	2024-11-06T02:00:00	6	Velocidad del viento	3.2
86798	7	Sololá	702	San José Chacayá	5	Chacayá	3	Marzo	2023-03-29T00:00:00	2024-11-06T02:00:00	7	Dirección del viento	3.22
86799	7	Sololá	702	San José Chacayá	5	Chacayá	3	Marzo	2023-03-29T00:00:00	2024-11-06T02:00:00	1	Precipitación	0
86800	7	Sololá	702	San José Chacayá	5	Chacayá	3	Marzo	2023-03-29T00:00:00	2024-11-06T02:00:00	8	Radiación solar	0
86801	7	Sololá	702	San José Chacayá	5	Chacayá	3	Marzo	2023-03-29T00:00:00	2024-11-06T03:00:00	2	Temperatura media	9.5
86802	7	Sololá	702	San José Chacayá	5	Chacayá	3	Marzo	2023-03-29T00:00:00	2024-11-06T03:00:00	4	Temperatura máxima	10.3
86803	7	Sololá	702	San José Chacayá	5	Chacayá	3	Marzo	2023-03-29T00:00:00	2024-11-06T03:00:00	3	Temperatura mínima	9.5
86804	7	Sololá	702	San José Chacayá	5	Chacayá	3	Marzo	2023-03-29T00:00:00	2024-11-06T03:00:00	5	Humedad	85
86805	7	Sololá	702	San José Chacayá	5	Chacayá	3	Marzo	2023-03-29T00:00:00	2024-11-06T03:00:00	6	Velocidad del viento	3.2
86806	7	Sololá	702	San José Chacayá	5	Chacayá	3	Marzo	2023-03-29T00:00:00	2024-11-06T03:00:00	7	Dirección del viento	3.22
86807	7	Sololá	702	San José Chacayá	5	Chacayá	3	Marzo	2023-03-29T00:00:00	2024-11-06T03:00:00	1	Precipitación	0
86808	7	Sololá	702	San José Chacayá	5	Chacayá	3	Marzo	2023-03-29T00:00:00	2024-11-06T03:00:00	8	Radiación solar	0
86809	7	Sololá	702	San José Chacayá	5	Chacayá	3	Marzo	2023-03-29T00:00:00	2024-11-06T04:00:00	2	Temperatura media	8.9
86810	7	Sololá	702	San José Chacayá	5	Chacayá	3	Marzo	2023-03-29T00:00:00	2024-11-06T04:00:00	4	Temperatura máxima	9.5
86811	7	Sololá	702	San José Chacayá	5	Chacayá	3	Marzo	2023-03-29T00:00:00	2024-11-06T04:00:00	3	Temperatura mínima	8.9
86812	7	Sololá	702	San José Chacayá	5	Chacayá	3	Marzo	2023-03-29T00:00:00	2024-11-06T04:00:00	5	Humedad	86
86813	7	Sololá	702	San José Chacayá	5	Chacayá	3	Marzo	2023-03-29T00:00:00	2024-11-06T04:00:00	6	Velocidad del viento	3.2
86814	7	Sololá	702	San José Chacayá	5	Chacayá	3	Marzo	2023-03-29T00:00:00	2024-11-06T04:00:00	7	Dirección del viento	3.22
86815	7	Sololá	702	San José Chacayá	5	Chacayá	3	Marzo	2023-03-29T00:00:00	2024-11-06T04:00:00	1	Precipitación	0
86816	7	Sololá	702	San José Chacayá	5	Chacayá	3	Marzo	2023-03-29T00:00:00	2024-11-06T04:00:00	8	Radiación solar	0
86817	7	Sololá	702	San José Chacayá	5	Chacayá	3	Marzo	2023-03-29T00:00:00	2024-11-06T05:00:00	2	Temperatura media	8.6
86818	7	Sololá	702	San José Chacayá	5	Chacayá	3	Marzo	2023-03-29T00:00:00	2024-11-06T05:00:00	4	Temperatura máxima	8.9
86819	7	Sololá	702	San José Chacayá	5	Chacayá	3	Marzo	2023-03-29T00:00:00	2024-11-06T05:00:00	3	Temperatura mínima	8.6
86820	7	Sololá	702	San José Chacayá	5	Chacayá	3	Marzo	2023-03-29T00:00:00	2024-11-06T05:00:00	5	Humedad	85
86821	7	Sololá	702	San José Chacayá	5	Chacayá	3	Marzo	2023-03-29T00:00:00	2024-11-06T05:00:00	6	Velocidad del viento	3.2
86822	7	Sololá	702	San José Chacayá	5	Chacayá	3	Marzo	2023-03-29T00:00:00	2024-11-06T05:00:00	7	Dirección del viento	3.22
86823	7	Sololá	702	San José Chacayá	5	Chacayá	3	Marzo	2023-03-29T00:00:00	2024-11-06T05:00:00	1	Precipitación	0
86824	7	Sololá	702	San José Chacayá	5	Chacayá	3	Marzo	2023-03-29T00:00:00	2024-11-06T05:00:00	8	Radiación solar	0
86825	7	Sololá	702	San José Chacayá	5	Chacayá	3	Marzo	2023-03-29T00:00:00	2024-11-06T06:00:00	2	Temperatura media	8.3
86826	7	Sololá	702	San José Chacayá	5	Chacayá	3	Marzo	2023-03-29T00:00:00	2024-11-06T06:00:00	4	Temperatura máxima	8.6
86827	7	Sololá	702	San José Chacayá	5	Chacayá	3	Marzo	2023-03-29T00:00:00	2024-11-06T06:00:00	3	Temperatura mínima	8.2
86828	7	Sololá	702	San José Chacayá	5	Chacayá	3	Marzo	2023-03-29T00:00:00	2024-11-06T06:00:00	5	Humedad	86
86829	7	Sololá	702	San José Chacayá	5	Chacayá	3	Marzo	2023-03-29T00:00:00	2024-11-06T06:00:00	6	Velocidad del viento	3.2
86830	7	Sololá	702	San José Chacayá	5	Chacayá	3	Marzo	2023-03-29T00:00:00	2024-11-06T06:00:00	7	Dirección del viento	3.22
86831	7	Sololá	702	San José Chacayá	5	Chacayá	3	Marzo	2023-03-29T00:00:00	2024-11-06T06:00:00	1	Precipitación	0
86832	7	Sololá	702	San José Chacayá	5	Chacayá	3	Marzo	2023-03-29T00:00:00	2024-11-06T06:00:00	8	Radiación solar	0
86833	7	Sololá	702	San José Chacayá	5	Chacayá	3	Marzo	2023-03-29T00:00:00	2024-11-06T07:00:00	2	Temperatura media	8.3
86834	7	Sololá	702	San José Chacayá	5	Chacayá	3	Marzo	2023-03-29T00:00:00	2024-11-06T07:00:00	4	Temperatura máxima	8.5
86835	7	Sololá	702	San José Chacayá	5	Chacayá	3	Marzo	2023-03-29T00:00:00	2024-11-06T07:00:00	3	Temperatura mínima	8.2
86836	7	Sololá	702	San José Chacayá	5	Chacayá	3	Marzo	2023-03-29T00:00:00	2024-11-06T07:00:00	5	Humedad	86
86837	7	Sololá	702	San José Chacayá	5	Chacayá	3	Marzo	2023-03-29T00:00:00	2024-11-06T07:00:00	6	Velocidad del viento	4.8
86838	7	Sololá	702	San José Chacayá	5	Chacayá	3	Marzo	2023-03-29T00:00:00	2024-11-06T07:00:00	7	Dirección del viento	4.83
86839	7	Sololá	702	San José Chacayá	5	Chacayá	3	Marzo	2023-03-29T00:00:00	2024-11-06T07:00:00	1	Precipitación	0
86840	7	Sololá	702	San José Chacayá	5	Chacayá	3	Marzo	2023-03-29T00:00:00	2024-11-06T07:00:00	8	Radiación solar	22
86841	7	Sololá	702	San José Chacayá	5	Chacayá	3	Marzo	2023-03-29T00:00:00	2024-11-06T08:00:00	2	Temperatura media	11.6
86842	7	Sololá	702	San José Chacayá	5	Chacayá	3	Marzo	2023-03-29T00:00:00	2024-11-06T08:00:00	4	Temperatura máxima	11.6
86843	7	Sololá	702	San José Chacayá	5	Chacayá	3	Marzo	2023-03-29T00:00:00	2024-11-06T08:00:00	3	Temperatura mínima	8.2
86844	7	Sololá	702	San José Chacayá	5	Chacayá	3	Marzo	2023-03-29T00:00:00	2024-11-06T08:00:00	5	Humedad	81
86845	7	Sololá	702	San José Chacayá	5	Chacayá	3	Marzo	2023-03-29T00:00:00	2024-11-06T08:00:00	6	Velocidad del viento	3.2
86846	7	Sololá	702	San José Chacayá	5	Chacayá	3	Marzo	2023-03-29T00:00:00	2024-11-06T08:00:00	7	Dirección del viento	3.22
86847	7	Sololá	702	San José Chacayá	5	Chacayá	3	Marzo	2023-03-29T00:00:00	2024-11-06T08:00:00	1	Precipitación	0
86848	7	Sololá	702	San José Chacayá	5	Chacayá	3	Marzo	2023-03-29T00:00:00	2024-11-06T08:00:00	8	Radiación solar	114
86849	7	Sololá	702	San José Chacayá	5	Chacayá	3	Marzo	2023-03-29T00:00:00	2024-11-06T09:00:00	2	Temperatura media	15.5
86850	7	Sololá	702	San José Chacayá	5	Chacayá	3	Marzo	2023-03-29T00:00:00	2024-11-06T09:00:00	4	Temperatura máxima	15.5
86851	7	Sololá	702	San José Chacayá	5	Chacayá	3	Marzo	2023-03-29T00:00:00	2024-11-06T09:00:00	3	Temperatura mínima	11.7
86852	7	Sololá	702	San José Chacayá	5	Chacayá	3	Marzo	2023-03-29T00:00:00	2024-11-06T09:00:00	5	Humedad	71
86853	7	Sololá	702	San José Chacayá	5	Chacayá	3	Marzo	2023-03-29T00:00:00	2024-11-06T09:00:00	6	Velocidad del viento	4.8
86854	7	Sololá	702	San José Chacayá	5	Chacayá	3	Marzo	2023-03-29T00:00:00	2024-11-06T09:00:00	7	Dirección del viento	4.83
86855	7	Sololá	702	San José Chacayá	5	Chacayá	3	Marzo	2023-03-29T00:00:00	2024-11-06T09:00:00	1	Precipitación	0
86856	7	Sololá	702	San José Chacayá	5	Chacayá	3	Marzo	2023-03-29T00:00:00	2024-11-06T09:00:00	8	Radiación solar	554
86857	7	Sololá	702	San José Chacayá	5	Chacayá	3	Marzo	2023-03-29T00:00:00	2024-11-06T10:00:00	2	Temperatura media	17.1
86858	7	Sololá	702	San José Chacayá	5	Chacayá	3	Marzo	2023-03-29T00:00:00	2024-11-06T10:00:00	4	Temperatura máxima	17.2
86859	7	Sololá	702	San José Chacayá	5	Chacayá	3	Marzo	2023-03-29T00:00:00	2024-11-06T10:00:00	3	Temperatura mínima	15.6
86860	7	Sololá	702	San José Chacayá	5	Chacayá	3	Marzo	2023-03-29T00:00:00	2024-11-06T10:00:00	5	Humedad	71
86861	7	Sololá	702	San José Chacayá	5	Chacayá	3	Marzo	2023-03-29T00:00:00	2024-11-06T10:00:00	6	Velocidad del viento	6.4
86862	7	Sololá	702	San José Chacayá	5	Chacayá	3	Marzo	2023-03-29T00:00:00	2024-11-06T10:00:00	7	Dirección del viento	6.44
86863	7	Sololá	702	San José Chacayá	5	Chacayá	3	Marzo	2023-03-29T00:00:00	2024-11-06T10:00:00	1	Precipitación	0
86864	7	Sololá	702	San José Chacayá	5	Chacayá	3	Marzo	2023-03-29T00:00:00	2024-11-06T10:00:00	8	Radiación solar	789
86865	7	Sololá	702	San José Chacayá	5	Chacayá	3	Marzo	2023-03-29T00:00:00	2024-11-06T11:00:00	2	Temperatura media	19.9
86866	7	Sololá	702	San José Chacayá	5	Chacayá	3	Marzo	2023-03-29T00:00:00	2024-11-06T11:00:00	4	Temperatura máxima	19.9
86867	7	Sololá	702	San José Chacayá	5	Chacayá	3	Marzo	2023-03-29T00:00:00	2024-11-06T11:00:00	3	Temperatura mínima	17.1
86868	7	Sololá	702	San José Chacayá	5	Chacayá	3	Marzo	2023-03-29T00:00:00	2024-11-06T11:00:00	5	Humedad	58
86869	7	Sololá	702	San José Chacayá	5	Chacayá	3	Marzo	2023-03-29T00:00:00	2024-11-06T11:00:00	6	Velocidad del viento	8
86870	7	Sololá	702	San José Chacayá	5	Chacayá	3	Marzo	2023-03-29T00:00:00	2024-11-06T11:00:00	7	Dirección del viento	8.05
86871	7	Sololá	702	San José Chacayá	5	Chacayá	3	Marzo	2023-03-29T00:00:00	2024-11-06T11:00:00	1	Precipitación	0
86872	7	Sololá	702	San José Chacayá	5	Chacayá	3	Marzo	2023-03-29T00:00:00	2024-11-06T11:00:00	8	Radiación solar	949
86873	7	Sololá	702	San José Chacayá	5	Chacayá	3	Marzo	2023-03-29T00:00:00	2024-11-06T12:00:00	2	Temperatura media	20.2
86874	7	Sololá	702	San José Chacayá	5	Chacayá	3	Marzo	2023-03-29T00:00:00	2024-11-06T12:00:00	4	Temperatura máxima	20.6
86875	7	Sololá	702	San José Chacayá	5	Chacayá	3	Marzo	2023-03-29T00:00:00	2024-11-06T12:00:00	3	Temperatura mínima	19.9
86876	7	Sololá	702	San José Chacayá	5	Chacayá	3	Marzo	2023-03-29T00:00:00	2024-11-06T12:00:00	5	Humedad	50
86877	7	Sololá	702	San José Chacayá	5	Chacayá	3	Marzo	2023-03-29T00:00:00	2024-11-06T12:00:00	6	Velocidad del viento	8
86878	7	Sololá	702	San José Chacayá	5	Chacayá	3	Marzo	2023-03-29T00:00:00	2024-11-06T12:00:00	7	Dirección del viento	8.05
86879	7	Sololá	702	San José Chacayá	5	Chacayá	3	Marzo	2023-03-29T00:00:00	2024-11-06T12:00:00	1	Precipitación	0
86880	7	Sololá	702	San José Chacayá	5	Chacayá	3	Marzo	2023-03-29T00:00:00	2024-11-06T12:00:00	8	Radiación solar	1020
86881	7	Sololá	702	San José Chacayá	5	Chacayá	3	Marzo	2023-03-29T00:00:00	2024-11-06T13:00:00	2	Temperatura media	20.4
86882	7	Sololá	702	San José Chacayá	5	Chacayá	3	Marzo	2023-03-29T00:00:00	2024-11-06T13:00:00	4	Temperatura máxima	21.7
86883	7	Sololá	702	San José Chacayá	5	Chacayá	3	Marzo	2023-03-29T00:00:00	2024-11-06T13:00:00	3	Temperatura mínima	20.1
86884	7	Sololá	702	San José Chacayá	5	Chacayá	3	Marzo	2023-03-29T00:00:00	2024-11-06T13:00:00	5	Humedad	48
86885	7	Sololá	702	San José Chacayá	5	Chacayá	3	Marzo	2023-03-29T00:00:00	2024-11-06T13:00:00	6	Velocidad del viento	8
86886	7	Sololá	702	San José Chacayá	5	Chacayá	3	Marzo	2023-03-29T00:00:00	2024-11-06T13:00:00	7	Dirección del viento	8.05
86887	7	Sololá	702	San José Chacayá	5	Chacayá	3	Marzo	2023-03-29T00:00:00	2024-11-06T13:00:00	1	Precipitación	0
86888	7	Sololá	702	San José Chacayá	5	Chacayá	3	Marzo	2023-03-29T00:00:00	2024-11-06T13:00:00	8	Radiación solar	1048
86889	7	Sololá	702	San José Chacayá	5	Chacayá	3	Marzo	2023-03-29T00:00:00	2024-11-06T14:00:00	2	Temperatura media	22.3
86890	7	Sololá	702	San José Chacayá	5	Chacayá	3	Marzo	2023-03-29T00:00:00	2024-11-06T14:00:00	4	Temperatura máxima	22.6
86891	7	Sololá	702	San José Chacayá	5	Chacayá	3	Marzo	2023-03-29T00:00:00	2024-11-06T14:00:00	3	Temperatura mínima	20.4
86892	7	Sololá	702	San José Chacayá	5	Chacayá	3	Marzo	2023-03-29T00:00:00	2024-11-06T14:00:00	5	Humedad	43
86893	7	Sololá	702	San José Chacayá	5	Chacayá	3	Marzo	2023-03-29T00:00:00	2024-11-06T14:00:00	6	Velocidad del viento	9.7
86894	7	Sololá	702	San José Chacayá	5	Chacayá	3	Marzo	2023-03-29T00:00:00	2024-11-06T14:00:00	7	Dirección del viento	9.66
86895	7	Sololá	702	San José Chacayá	5	Chacayá	3	Marzo	2023-03-29T00:00:00	2024-11-06T14:00:00	1	Precipitación	0
86896	7	Sololá	702	San José Chacayá	5	Chacayá	3	Marzo	2023-03-29T00:00:00	2024-11-06T14:00:00	8	Radiación solar	984
86897	7	Sololá	702	San José Chacayá	5	Chacayá	3	Marzo	2023-03-29T00:00:00	2024-11-06T15:00:00	2	Temperatura media	22.9
86898	7	Sololá	702	San José Chacayá	5	Chacayá	3	Marzo	2023-03-29T00:00:00	2024-11-06T15:00:00	4	Temperatura máxima	22.9
86899	7	Sololá	702	San José Chacayá	5	Chacayá	3	Marzo	2023-03-29T00:00:00	2024-11-06T15:00:00	3	Temperatura mínima	21.7
86900	7	Sololá	702	San José Chacayá	5	Chacayá	3	Marzo	2023-03-29T00:00:00	2024-11-06T15:00:00	5	Humedad	42
86901	7	Sololá	702	San José Chacayá	5	Chacayá	3	Marzo	2023-03-29T00:00:00	2024-11-06T15:00:00	6	Velocidad del viento	8
86902	7	Sololá	702	San José Chacayá	5	Chacayá	3	Marzo	2023-03-29T00:00:00	2024-11-06T15:00:00	7	Dirección del viento	8.05
86903	7	Sololá	702	San José Chacayá	5	Chacayá	3	Marzo	2023-03-29T00:00:00	2024-11-06T15:00:00	1	Precipitación	0
86904	7	Sololá	702	San José Chacayá	5	Chacayá	3	Marzo	2023-03-29T00:00:00	2024-11-06T15:00:00	8	Radiación solar	817
86905	7	Sololá	702	San José Chacayá	5	Chacayá	3	Marzo	2023-03-29T00:00:00	2024-11-06T16:00:00	2	Temperatura media	21.6
86906	7	Sololá	702	San José Chacayá	5	Chacayá	3	Marzo	2023-03-29T00:00:00	2024-11-06T16:00:00	4	Temperatura máxima	22.9
86907	7	Sololá	702	San José Chacayá	5	Chacayá	3	Marzo	2023-03-29T00:00:00	2024-11-06T16:00:00	3	Temperatura mínima	21.5
86908	7	Sololá	702	San José Chacayá	5	Chacayá	3	Marzo	2023-03-29T00:00:00	2024-11-06T16:00:00	5	Humedad	44
86909	7	Sololá	702	San José Chacayá	5	Chacayá	3	Marzo	2023-03-29T00:00:00	2024-11-06T16:00:00	6	Velocidad del viento	8
86910	7	Sololá	702	San José Chacayá	5	Chacayá	3	Marzo	2023-03-29T00:00:00	2024-11-06T16:00:00	7	Dirección del viento	8.05
86911	7	Sololá	702	San José Chacayá	5	Chacayá	3	Marzo	2023-03-29T00:00:00	2024-11-06T16:00:00	1	Precipitación	0
86912	7	Sololá	702	San José Chacayá	5	Chacayá	3	Marzo	2023-03-29T00:00:00	2024-11-06T16:00:00	8	Radiación solar	527
86913	7	Sololá	702	San José Chacayá	5	Chacayá	3	Marzo	2023-03-29T00:00:00	2024-11-06T17:00:00	2	Temperatura media	20.9
86914	7	Sololá	702	San José Chacayá	5	Chacayá	3	Marzo	2023-03-29T00:00:00	2024-11-06T17:00:00	4	Temperatura máxima	22
86915	7	Sololá	702	San José Chacayá	5	Chacayá	3	Marzo	2023-03-29T00:00:00	2024-11-06T17:00:00	3	Temperatura mínima	20.7
86916	7	Sololá	702	San José Chacayá	5	Chacayá	3	Marzo	2023-03-29T00:00:00	2024-11-06T17:00:00	5	Humedad	44
86917	7	Sololá	702	San José Chacayá	5	Chacayá	3	Marzo	2023-03-29T00:00:00	2024-11-06T17:00:00	6	Velocidad del viento	6.4
86918	7	Sololá	702	San José Chacayá	5	Chacayá	3	Marzo	2023-03-29T00:00:00	2024-11-06T17:00:00	7	Dirección del viento	6.44
86919	7	Sololá	702	San José Chacayá	5	Chacayá	3	Marzo	2023-03-29T00:00:00	2024-11-06T17:00:00	1	Precipitación	0
86920	7	Sololá	702	San José Chacayá	5	Chacayá	3	Marzo	2023-03-29T00:00:00	2024-11-06T17:00:00	8	Radiación solar	101
86921	7	Sololá	702	San José Chacayá	5	Chacayá	3	Marzo	2023-03-29T00:00:00	2024-11-06T18:00:00	2	Temperatura media	19.3
86922	7	Sololá	702	San José Chacayá	5	Chacayá	3	Marzo	2023-03-29T00:00:00	2024-11-06T18:00:00	4	Temperatura máxima	21
86923	7	Sololá	702	San José Chacayá	5	Chacayá	3	Marzo	2023-03-29T00:00:00	2024-11-06T18:00:00	3	Temperatura mínima	19.3
86924	7	Sololá	702	San José Chacayá	5	Chacayá	3	Marzo	2023-03-29T00:00:00	2024-11-06T18:00:00	5	Humedad	50
86925	7	Sololá	702	San José Chacayá	5	Chacayá	3	Marzo	2023-03-29T00:00:00	2024-11-06T18:00:00	6	Velocidad del viento	6.4
86926	7	Sololá	702	San José Chacayá	5	Chacayá	3	Marzo	2023-03-29T00:00:00	2024-11-06T18:00:00	7	Dirección del viento	6.44
86927	7	Sololá	702	San José Chacayá	5	Chacayá	3	Marzo	2023-03-29T00:00:00	2024-11-06T18:00:00	1	Precipitación	0
86928	7	Sololá	702	San José Chacayá	5	Chacayá	3	Marzo	2023-03-29T00:00:00	2024-11-06T18:00:00	8	Radiación solar	40
86929	7	Sololá	702	San José Chacayá	5	Chacayá	3	Marzo	2023-03-29T00:00:00	2024-11-06T19:00:00	2	Temperatura media	17
86930	7	Sololá	702	San José Chacayá	5	Chacayá	3	Marzo	2023-03-29T00:00:00	2024-11-06T19:00:00	4	Temperatura máxima	19.3
86931	7	Sololá	702	San José Chacayá	5	Chacayá	3	Marzo	2023-03-29T00:00:00	2024-11-06T19:00:00	3	Temperatura mínima	17
86932	7	Sololá	702	San José Chacayá	5	Chacayá	3	Marzo	2023-03-29T00:00:00	2024-11-06T19:00:00	5	Humedad	58
86933	7	Sololá	702	San José Chacayá	5	Chacayá	3	Marzo	2023-03-29T00:00:00	2024-11-06T19:00:00	6	Velocidad del viento	4.8
86934	7	Sololá	702	San José Chacayá	5	Chacayá	3	Marzo	2023-03-29T00:00:00	2024-11-06T19:00:00	7	Dirección del viento	4.83
86935	7	Sololá	702	San José Chacayá	5	Chacayá	3	Marzo	2023-03-29T00:00:00	2024-11-06T19:00:00	1	Precipitación	0
86936	7	Sololá	702	San José Chacayá	5	Chacayá	3	Marzo	2023-03-29T00:00:00	2024-11-06T19:00:00	8	Radiación solar	0
86937	7	Sololá	702	San José Chacayá	5	Chacayá	3	Marzo	2023-03-29T00:00:00	2024-11-06T20:00:00	2	Temperatura media	15.2
86938	7	Sololá	702	San José Chacayá	5	Chacayá	3	Marzo	2023-03-29T00:00:00	2024-11-06T20:00:00	4	Temperatura máxima	16.9
86939	7	Sololá	702	San José Chacayá	5	Chacayá	3	Marzo	2023-03-29T00:00:00	2024-11-06T20:00:00	3	Temperatura mínima	15.2
86940	7	Sololá	702	San José Chacayá	5	Chacayá	3	Marzo	2023-03-29T00:00:00	2024-11-06T20:00:00	5	Humedad	66
86941	7	Sololá	702	San José Chacayá	5	Chacayá	3	Marzo	2023-03-29T00:00:00	2024-11-06T20:00:00	6	Velocidad del viento	3.2
86942	7	Sololá	702	San José Chacayá	5	Chacayá	3	Marzo	2023-03-29T00:00:00	2024-11-06T20:00:00	7	Dirección del viento	3.22
86943	7	Sololá	702	San José Chacayá	5	Chacayá	3	Marzo	2023-03-29T00:00:00	2024-11-06T20:00:00	1	Precipitación	0
86944	7	Sololá	702	San José Chacayá	5	Chacayá	3	Marzo	2023-03-29T00:00:00	2024-11-06T20:00:00	8	Radiación solar	0
86945	7	Sololá	702	San José Chacayá	5	Chacayá	3	Marzo	2023-03-29T00:00:00	2024-11-06T21:00:00	2	Temperatura media	14.2
86946	7	Sololá	702	San José Chacayá	5	Chacayá	3	Marzo	2023-03-29T00:00:00	2024-11-06T21:00:00	4	Temperatura máxima	15.2
86947	7	Sololá	702	San José Chacayá	5	Chacayá	3	Marzo	2023-03-29T00:00:00	2024-11-06T21:00:00	3	Temperatura mínima	14.2
86948	7	Sololá	702	San José Chacayá	5	Chacayá	3	Marzo	2023-03-29T00:00:00	2024-11-06T21:00:00	5	Humedad	69
86949	7	Sololá	702	San José Chacayá	5	Chacayá	3	Marzo	2023-03-29T00:00:00	2024-11-06T21:00:00	6	Velocidad del viento	3.2
86950	7	Sololá	702	San José Chacayá	5	Chacayá	3	Marzo	2023-03-29T00:00:00	2024-11-06T21:00:00	7	Dirección del viento	3.22
86951	7	Sololá	702	San José Chacayá	5	Chacayá	3	Marzo	2023-03-29T00:00:00	2024-11-06T21:00:00	1	Precipitación	0
86952	7	Sololá	702	San José Chacayá	5	Chacayá	3	Marzo	2023-03-29T00:00:00	2024-11-06T21:00:00	8	Radiación solar	0
86953	7	Sololá	702	San José Chacayá	5	Chacayá	3	Marzo	2023-03-29T00:00:00	2024-11-06T22:00:00	2	Temperatura media	13.1
86954	7	Sololá	702	San José Chacayá	5	Chacayá	3	Marzo	2023-03-29T00:00:00	2024-11-06T22:00:00	4	Temperatura máxima	14.2
86955	7	Sololá	702	San José Chacayá	5	Chacayá	3	Marzo	2023-03-29T00:00:00	2024-11-06T22:00:00	3	Temperatura mínima	13
86956	7	Sololá	702	San José Chacayá	5	Chacayá	3	Marzo	2023-03-29T00:00:00	2024-11-06T22:00:00	5	Humedad	65
86957	7	Sololá	702	San José Chacayá	5	Chacayá	3	Marzo	2023-03-29T00:00:00	2024-11-06T22:00:00	6	Velocidad del viento	1.6
86958	7	Sololá	702	San José Chacayá	5	Chacayá	3	Marzo	2023-03-29T00:00:00	2024-11-06T22:00:00	7	Dirección del viento	1.61
86959	7	Sololá	702	San José Chacayá	5	Chacayá	3	Marzo	2023-03-29T00:00:00	2024-11-06T22:00:00	1	Precipitación	0
86960	7	Sololá	702	San José Chacayá	5	Chacayá	3	Marzo	2023-03-29T00:00:00	2024-11-06T22:00:00	8	Radiación solar	0
86961	7	Sololá	702	San José Chacayá	5	Chacayá	3	Marzo	2023-03-29T00:00:00	2024-11-06T23:00:00	2	Temperatura media	13.7
86962	7	Sololá	702	San José Chacayá	5	Chacayá	3	Marzo	2023-03-29T00:00:00	2024-11-06T23:00:00	4	Temperatura máxima	13.7
86963	7	Sololá	702	San José Chacayá	5	Chacayá	3	Marzo	2023-03-29T00:00:00	2024-11-06T23:00:00	3	Temperatura mínima	12.9
86964	7	Sololá	702	San José Chacayá	5	Chacayá	3	Marzo	2023-03-29T00:00:00	2024-11-06T23:00:00	5	Humedad	56
86965	7	Sololá	702	San José Chacayá	5	Chacayá	3	Marzo	2023-03-29T00:00:00	2024-11-06T23:00:00	6	Velocidad del viento	3.2
86966	7	Sololá	702	San José Chacayá	5	Chacayá	3	Marzo	2023-03-29T00:00:00	2024-11-06T23:00:00	7	Dirección del viento	3.22
86967	7	Sololá	702	San José Chacayá	5	Chacayá	3	Marzo	2023-03-29T00:00:00	2024-11-06T23:00:00	1	Precipitación	0
86968	7	Sololá	702	San José Chacayá	5	Chacayá	3	Marzo	2023-03-29T00:00:00	2024-11-06T23:00:00	8	Radiación solar	0
86969	7	Sololá	702	San José Chacayá	5	Chacayá	3	Marzo	2023-03-30T00:00:00	2024-11-06T00:00:00	2	Temperatura media	13.4
86970	7	Sololá	702	San José Chacayá	5	Chacayá	3	Marzo	2023-03-30T00:00:00	2024-11-06T00:00:00	4	Temperatura máxima	13.9
86971	7	Sololá	702	San José Chacayá	5	Chacayá	3	Marzo	2023-03-30T00:00:00	2024-11-06T00:00:00	3	Temperatura mínima	13.4
86972	7	Sololá	702	San José Chacayá	5	Chacayá	3	Marzo	2023-03-30T00:00:00	2024-11-06T00:00:00	5	Humedad	63
86973	7	Sololá	702	San José Chacayá	5	Chacayá	3	Marzo	2023-03-30T00:00:00	2024-11-06T00:00:00	6	Velocidad del viento	6.4
86974	7	Sololá	702	San José Chacayá	5	Chacayá	3	Marzo	2023-03-30T00:00:00	2024-11-06T00:00:00	7	Dirección del viento	6.44
86975	7	Sololá	702	San José Chacayá	5	Chacayá	3	Marzo	2023-03-30T00:00:00	2024-11-06T00:00:00	1	Precipitación	0
86976	7	Sololá	702	San José Chacayá	5	Chacayá	3	Marzo	2023-03-30T00:00:00	2024-11-06T00:00:00	8	Radiación solar	0
86977	7	Sololá	702	San José Chacayá	5	Chacayá	3	Marzo	2023-03-30T00:00:00	2024-11-06T01:00:00	2	Temperatura media	12.8
86978	7	Sololá	702	San José Chacayá	5	Chacayá	3	Marzo	2023-03-30T00:00:00	2024-11-06T01:00:00	4	Temperatura máxima	13.5
86979	7	Sololá	702	San José Chacayá	5	Chacayá	3	Marzo	2023-03-30T00:00:00	2024-11-06T01:00:00	3	Temperatura mínima	12.8
86980	7	Sololá	702	San José Chacayá	5	Chacayá	3	Marzo	2023-03-30T00:00:00	2024-11-06T01:00:00	5	Humedad	67
86981	7	Sololá	702	San José Chacayá	5	Chacayá	3	Marzo	2023-03-30T00:00:00	2024-11-06T01:00:00	6	Velocidad del viento	4.8
86982	7	Sololá	702	San José Chacayá	5	Chacayá	3	Marzo	2023-03-30T00:00:00	2024-11-06T01:00:00	7	Dirección del viento	4.83
86983	7	Sololá	702	San José Chacayá	5	Chacayá	3	Marzo	2023-03-30T00:00:00	2024-11-06T01:00:00	1	Precipitación	0
86984	7	Sololá	702	San José Chacayá	5	Chacayá	3	Marzo	2023-03-30T00:00:00	2024-11-06T01:00:00	8	Radiación solar	0
86985	7	Sololá	702	San José Chacayá	5	Chacayá	3	Marzo	2023-03-30T00:00:00	2024-11-06T02:00:00	2	Temperatura media	11.9
86986	7	Sololá	702	San José Chacayá	5	Chacayá	3	Marzo	2023-03-30T00:00:00	2024-11-06T02:00:00	4	Temperatura máxima	12.7
86987	7	Sololá	702	San José Chacayá	5	Chacayá	3	Marzo	2023-03-30T00:00:00	2024-11-06T02:00:00	3	Temperatura mínima	11.9
86988	7	Sololá	702	San José Chacayá	5	Chacayá	3	Marzo	2023-03-30T00:00:00	2024-11-06T02:00:00	5	Humedad	70
86989	7	Sololá	702	San José Chacayá	5	Chacayá	3	Marzo	2023-03-30T00:00:00	2024-11-06T02:00:00	6	Velocidad del viento	3.2
86990	7	Sololá	702	San José Chacayá	5	Chacayá	3	Marzo	2023-03-30T00:00:00	2024-11-06T02:00:00	7	Dirección del viento	3.22
86991	7	Sololá	702	San José Chacayá	5	Chacayá	3	Marzo	2023-03-30T00:00:00	2024-11-06T02:00:00	1	Precipitación	0
86992	7	Sololá	702	San José Chacayá	5	Chacayá	3	Marzo	2023-03-30T00:00:00	2024-11-06T02:00:00	8	Radiación solar	0
86993	7	Sololá	702	San José Chacayá	5	Chacayá	3	Marzo	2023-03-30T00:00:00	2024-11-06T03:00:00	2	Temperatura media	7.6
86994	7	Sololá	702	San José Chacayá	5	Chacayá	3	Marzo	2023-03-30T00:00:00	2024-11-06T03:00:00	4	Temperatura máxima	11.9
86995	7	Sololá	702	San José Chacayá	5	Chacayá	3	Marzo	2023-03-30T00:00:00	2024-11-06T03:00:00	3	Temperatura mínima	7.6
86996	7	Sololá	702	San José Chacayá	5	Chacayá	3	Marzo	2023-03-30T00:00:00	2024-11-06T03:00:00	5	Humedad	81
86997	7	Sololá	702	San José Chacayá	5	Chacayá	3	Marzo	2023-03-30T00:00:00	2024-11-06T03:00:00	6	Velocidad del viento	3.2
86998	7	Sololá	702	San José Chacayá	5	Chacayá	3	Marzo	2023-03-30T00:00:00	2024-11-06T03:00:00	7	Dirección del viento	3.22
86999	7	Sololá	702	San José Chacayá	5	Chacayá	3	Marzo	2023-03-30T00:00:00	2024-11-06T03:00:00	1	Precipitación	0
87000	7	Sololá	702	San José Chacayá	5	Chacayá	3	Marzo	2023-03-30T00:00:00	2024-11-06T03:00:00	8	Radiación solar	0
87001	7	Sololá	702	San José Chacayá	5	Chacayá	3	Marzo	2023-03-30T00:00:00	2024-11-06T04:00:00	2	Temperatura media	7.3
87002	7	Sololá	702	San José Chacayá	5	Chacayá	3	Marzo	2023-03-30T00:00:00	2024-11-06T04:00:00	4	Temperatura máxima	7.6
87003	7	Sololá	702	San José Chacayá	5	Chacayá	3	Marzo	2023-03-30T00:00:00	2024-11-06T04:00:00	3	Temperatura mínima	7.3
87004	7	Sololá	702	San José Chacayá	5	Chacayá	3	Marzo	2023-03-30T00:00:00	2024-11-06T04:00:00	5	Humedad	80
87005	7	Sololá	702	San José Chacayá	5	Chacayá	3	Marzo	2023-03-30T00:00:00	2024-11-06T04:00:00	6	Velocidad del viento	4.8
87006	7	Sololá	702	San José Chacayá	5	Chacayá	3	Marzo	2023-03-30T00:00:00	2024-11-06T04:00:00	7	Dirección del viento	4.83
87007	7	Sololá	702	San José Chacayá	5	Chacayá	3	Marzo	2023-03-30T00:00:00	2024-11-06T04:00:00	1	Precipitación	0
87008	7	Sololá	702	San José Chacayá	5	Chacayá	3	Marzo	2023-03-30T00:00:00	2024-11-06T04:00:00	8	Radiación solar	0
87009	7	Sololá	702	San José Chacayá	5	Chacayá	3	Marzo	2023-03-30T00:00:00	2024-11-06T05:00:00	2	Temperatura media	5.9
87010	7	Sololá	702	San José Chacayá	5	Chacayá	3	Marzo	2023-03-30T00:00:00	2024-11-06T05:00:00	4	Temperatura máxima	7.8
87011	7	Sololá	702	San José Chacayá	5	Chacayá	3	Marzo	2023-03-30T00:00:00	2024-11-06T05:00:00	3	Temperatura mínima	5.9
87012	7	Sololá	702	San José Chacayá	5	Chacayá	3	Marzo	2023-03-30T00:00:00	2024-11-06T05:00:00	5	Humedad	83
87013	7	Sololá	702	San José Chacayá	5	Chacayá	3	Marzo	2023-03-30T00:00:00	2024-11-06T05:00:00	6	Velocidad del viento	4.8
87014	7	Sololá	702	San José Chacayá	5	Chacayá	3	Marzo	2023-03-30T00:00:00	2024-11-06T05:00:00	7	Dirección del viento	4.83
87015	7	Sololá	702	San José Chacayá	5	Chacayá	3	Marzo	2023-03-30T00:00:00	2024-11-06T05:00:00	1	Precipitación	0
87016	7	Sololá	702	San José Chacayá	5	Chacayá	3	Marzo	2023-03-30T00:00:00	2024-11-06T05:00:00	8	Radiación solar	0
87017	7	Sololá	702	San José Chacayá	5	Chacayá	3	Marzo	2023-03-30T00:00:00	2024-11-06T06:00:00	2	Temperatura media	5.1
87018	7	Sololá	702	San José Chacayá	5	Chacayá	3	Marzo	2023-03-30T00:00:00	2024-11-06T06:00:00	4	Temperatura máxima	5.9
87019	7	Sololá	702	San José Chacayá	5	Chacayá	3	Marzo	2023-03-30T00:00:00	2024-11-06T06:00:00	3	Temperatura mínima	5.1
87020	7	Sololá	702	San José Chacayá	5	Chacayá	3	Marzo	2023-03-30T00:00:00	2024-11-06T06:00:00	5	Humedad	84
87021	7	Sololá	702	San José Chacayá	5	Chacayá	3	Marzo	2023-03-30T00:00:00	2024-11-06T06:00:00	6	Velocidad del viento	4.8
87022	7	Sololá	702	San José Chacayá	5	Chacayá	3	Marzo	2023-03-30T00:00:00	2024-11-06T06:00:00	7	Dirección del viento	4.83
87023	7	Sololá	702	San José Chacayá	5	Chacayá	3	Marzo	2023-03-30T00:00:00	2024-11-06T06:00:00	1	Precipitación	0
87024	7	Sololá	702	San José Chacayá	5	Chacayá	3	Marzo	2023-03-30T00:00:00	2024-11-06T06:00:00	8	Radiación solar	0
87025	7	Sololá	702	San José Chacayá	5	Chacayá	3	Marzo	2023-03-30T00:00:00	2024-11-06T07:00:00	2	Temperatura media	4.9
87026	7	Sololá	702	San José Chacayá	5	Chacayá	3	Marzo	2023-03-30T00:00:00	2024-11-06T07:00:00	4	Temperatura máxima	5.1
87027	7	Sololá	702	San José Chacayá	5	Chacayá	3	Marzo	2023-03-30T00:00:00	2024-11-06T07:00:00	3	Temperatura mínima	4.8
87028	7	Sololá	702	San José Chacayá	5	Chacayá	3	Marzo	2023-03-30T00:00:00	2024-11-06T07:00:00	5	Humedad	85
87029	7	Sololá	702	San José Chacayá	5	Chacayá	3	Marzo	2023-03-30T00:00:00	2024-11-06T07:00:00	6	Velocidad del viento	3.2
87030	7	Sololá	702	San José Chacayá	5	Chacayá	3	Marzo	2023-03-30T00:00:00	2024-11-06T07:00:00	7	Dirección del viento	3.22
87031	7	Sololá	702	San José Chacayá	5	Chacayá	3	Marzo	2023-03-30T00:00:00	2024-11-06T07:00:00	1	Precipitación	0
87032	7	Sololá	702	San José Chacayá	5	Chacayá	3	Marzo	2023-03-30T00:00:00	2024-11-06T07:00:00	8	Radiación solar	19
87033	7	Sololá	702	San José Chacayá	5	Chacayá	3	Marzo	2023-03-30T00:00:00	2024-11-06T08:00:00	2	Temperatura media	7.7
87034	7	Sololá	702	San José Chacayá	5	Chacayá	3	Marzo	2023-03-30T00:00:00	2024-11-06T08:00:00	4	Temperatura máxima	7.7
87035	7	Sololá	702	San José Chacayá	5	Chacayá	3	Marzo	2023-03-30T00:00:00	2024-11-06T08:00:00	3	Temperatura mínima	4.9
87036	7	Sololá	702	San José Chacayá	5	Chacayá	3	Marzo	2023-03-30T00:00:00	2024-11-06T08:00:00	5	Humedad	78
87037	7	Sololá	702	San José Chacayá	5	Chacayá	3	Marzo	2023-03-30T00:00:00	2024-11-06T08:00:00	6	Velocidad del viento	4.8
87038	7	Sololá	702	San José Chacayá	5	Chacayá	3	Marzo	2023-03-30T00:00:00	2024-11-06T08:00:00	7	Dirección del viento	4.83
87039	7	Sololá	702	San José Chacayá	5	Chacayá	3	Marzo	2023-03-30T00:00:00	2024-11-06T08:00:00	1	Precipitación	0
87040	7	Sololá	702	San José Chacayá	5	Chacayá	3	Marzo	2023-03-30T00:00:00	2024-11-06T08:00:00	8	Radiación solar	93
87041	7	Sololá	702	San José Chacayá	5	Chacayá	3	Marzo	2023-03-30T00:00:00	2024-11-06T09:00:00	2	Temperatura media	14.8
87042	7	Sololá	702	San José Chacayá	5	Chacayá	3	Marzo	2023-03-30T00:00:00	2024-11-06T09:00:00	4	Temperatura máxima	14.8
87043	7	Sololá	702	San José Chacayá	5	Chacayá	3	Marzo	2023-03-30T00:00:00	2024-11-06T09:00:00	3	Temperatura mínima	7.7
87044	7	Sololá	702	San José Chacayá	5	Chacayá	3	Marzo	2023-03-30T00:00:00	2024-11-06T09:00:00	5	Humedad	54
87045	7	Sololá	702	San José Chacayá	5	Chacayá	3	Marzo	2023-03-30T00:00:00	2024-11-06T09:00:00	6	Velocidad del viento	3.2
87046	7	Sololá	702	San José Chacayá	5	Chacayá	3	Marzo	2023-03-30T00:00:00	2024-11-06T09:00:00	7	Dirección del viento	3.22
87047	7	Sololá	702	San José Chacayá	5	Chacayá	3	Marzo	2023-03-30T00:00:00	2024-11-06T09:00:00	1	Precipitación	0
87048	7	Sololá	702	San José Chacayá	5	Chacayá	3	Marzo	2023-03-30T00:00:00	2024-11-06T09:00:00	8	Radiación solar	566
87049	7	Sololá	702	San José Chacayá	5	Chacayá	3	Marzo	2023-03-30T00:00:00	2024-11-06T10:00:00	2	Temperatura media	17.6
87050	7	Sololá	702	San José Chacayá	5	Chacayá	3	Marzo	2023-03-30T00:00:00	2024-11-06T10:00:00	4	Temperatura máxima	17.6
87051	7	Sololá	702	San José Chacayá	5	Chacayá	3	Marzo	2023-03-30T00:00:00	2024-11-06T10:00:00	3	Temperatura mínima	14.8
87052	7	Sololá	702	San José Chacayá	5	Chacayá	3	Marzo	2023-03-30T00:00:00	2024-11-06T10:00:00	5	Humedad	52
87053	7	Sololá	702	San José Chacayá	5	Chacayá	3	Marzo	2023-03-30T00:00:00	2024-11-06T10:00:00	6	Velocidad del viento	6.4
87054	7	Sololá	702	San José Chacayá	5	Chacayá	3	Marzo	2023-03-30T00:00:00	2024-11-06T10:00:00	7	Dirección del viento	6.44
87055	7	Sololá	702	San José Chacayá	5	Chacayá	3	Marzo	2023-03-30T00:00:00	2024-11-06T10:00:00	1	Precipitación	0
87056	7	Sololá	702	San José Chacayá	5	Chacayá	3	Marzo	2023-03-30T00:00:00	2024-11-06T10:00:00	8	Radiación solar	787
87057	7	Sololá	702	San José Chacayá	5	Chacayá	3	Marzo	2023-03-30T00:00:00	2024-11-06T11:00:00	2	Temperatura media	19.2
87058	7	Sololá	702	San José Chacayá	5	Chacayá	3	Marzo	2023-03-30T00:00:00	2024-11-06T11:00:00	4	Temperatura máxima	19.2
87059	7	Sololá	702	San José Chacayá	5	Chacayá	3	Marzo	2023-03-30T00:00:00	2024-11-06T11:00:00	3	Temperatura mínima	17.6
87060	7	Sololá	702	San José Chacayá	5	Chacayá	3	Marzo	2023-03-30T00:00:00	2024-11-06T11:00:00	5	Humedad	54
87061	7	Sololá	702	San José Chacayá	5	Chacayá	3	Marzo	2023-03-30T00:00:00	2024-11-06T11:00:00	6	Velocidad del viento	6.4
87062	7	Sololá	702	San José Chacayá	5	Chacayá	3	Marzo	2023-03-30T00:00:00	2024-11-06T11:00:00	7	Dirección del viento	6.44
87063	7	Sololá	702	San José Chacayá	5	Chacayá	3	Marzo	2023-03-30T00:00:00	2024-11-06T11:00:00	1	Precipitación	0
87064	7	Sololá	702	San José Chacayá	5	Chacayá	3	Marzo	2023-03-30T00:00:00	2024-11-06T11:00:00	8	Radiación solar	922
87065	7	Sololá	702	San José Chacayá	5	Chacayá	3	Marzo	2023-03-30T00:00:00	2024-11-06T12:00:00	2	Temperatura media	20.3
87066	7	Sololá	702	San José Chacayá	5	Chacayá	3	Marzo	2023-03-30T00:00:00	2024-11-06T12:00:00	4	Temperatura máxima	20.7
87067	7	Sololá	702	San José Chacayá	5	Chacayá	3	Marzo	2023-03-30T00:00:00	2024-11-06T12:00:00	3	Temperatura mínima	19.2
87068	7	Sololá	702	San José Chacayá	5	Chacayá	3	Marzo	2023-03-30T00:00:00	2024-11-06T12:00:00	5	Humedad	47
87069	7	Sololá	702	San José Chacayá	5	Chacayá	3	Marzo	2023-03-30T00:00:00	2024-11-06T12:00:00	6	Velocidad del viento	8
87070	7	Sololá	702	San José Chacayá	5	Chacayá	3	Marzo	2023-03-30T00:00:00	2024-11-06T12:00:00	7	Dirección del viento	8.05
87071	7	Sololá	702	San José Chacayá	5	Chacayá	3	Marzo	2023-03-30T00:00:00	2024-11-06T12:00:00	1	Precipitación	0
87072	7	Sololá	702	San José Chacayá	5	Chacayá	3	Marzo	2023-03-30T00:00:00	2024-11-06T12:00:00	8	Radiación solar	1019
87073	7	Sololá	702	San José Chacayá	5	Chacayá	3	Marzo	2023-03-30T00:00:00	2024-11-06T13:00:00	2	Temperatura media	21.3
87074	7	Sololá	702	San José Chacayá	5	Chacayá	3	Marzo	2023-03-30T00:00:00	2024-11-06T13:00:00	4	Temperatura máxima	21.3
87075	7	Sololá	702	San José Chacayá	5	Chacayá	3	Marzo	2023-03-30T00:00:00	2024-11-06T13:00:00	3	Temperatura mínima	19.9
87076	7	Sololá	702	San José Chacayá	5	Chacayá	3	Marzo	2023-03-30T00:00:00	2024-11-06T13:00:00	5	Humedad	42
87077	7	Sololá	702	San José Chacayá	5	Chacayá	3	Marzo	2023-03-30T00:00:00	2024-11-06T13:00:00	6	Velocidad del viento	8
87078	7	Sololá	702	San José Chacayá	5	Chacayá	3	Marzo	2023-03-30T00:00:00	2024-11-06T13:00:00	7	Dirección del viento	8.05
87079	7	Sololá	702	San José Chacayá	5	Chacayá	3	Marzo	2023-03-30T00:00:00	2024-11-06T13:00:00	1	Precipitación	0
87080	7	Sololá	702	San José Chacayá	5	Chacayá	3	Marzo	2023-03-30T00:00:00	2024-11-06T13:00:00	8	Radiación solar	1026
87081	7	Sololá	702	San José Chacayá	5	Chacayá	3	Marzo	2023-03-30T00:00:00	2024-11-06T14:00:00	2	Temperatura media	21.7
87082	7	Sololá	702	San José Chacayá	5	Chacayá	3	Marzo	2023-03-30T00:00:00	2024-11-06T14:00:00	4	Temperatura máxima	21.9
87083	7	Sololá	702	San José Chacayá	5	Chacayá	3	Marzo	2023-03-30T00:00:00	2024-11-06T14:00:00	3	Temperatura mínima	21.3
87084	7	Sololá	702	San José Chacayá	5	Chacayá	3	Marzo	2023-03-30T00:00:00	2024-11-06T14:00:00	5	Humedad	44
87085	7	Sololá	702	San José Chacayá	5	Chacayá	3	Marzo	2023-03-30T00:00:00	2024-11-06T14:00:00	6	Velocidad del viento	6.4
87086	7	Sololá	702	San José Chacayá	5	Chacayá	3	Marzo	2023-03-30T00:00:00	2024-11-06T14:00:00	7	Dirección del viento	6.44
87087	7	Sololá	702	San José Chacayá	5	Chacayá	3	Marzo	2023-03-30T00:00:00	2024-11-06T14:00:00	1	Precipitación	0
87088	7	Sololá	702	San José Chacayá	5	Chacayá	3	Marzo	2023-03-30T00:00:00	2024-11-06T14:00:00	8	Radiación solar	963
87089	7	Sololá	702	San José Chacayá	5	Chacayá	3	Marzo	2023-03-30T00:00:00	2024-11-06T15:00:00	2	Temperatura media	22.7
87090	7	Sololá	702	San José Chacayá	5	Chacayá	3	Marzo	2023-03-30T00:00:00	2024-11-06T15:00:00	4	Temperatura máxima	23
87091	7	Sololá	702	San José Chacayá	5	Chacayá	3	Marzo	2023-03-30T00:00:00	2024-11-06T15:00:00	3	Temperatura mínima	21.7
87092	7	Sololá	702	San José Chacayá	5	Chacayá	3	Marzo	2023-03-30T00:00:00	2024-11-06T15:00:00	5	Humedad	37
87093	7	Sololá	702	San José Chacayá	5	Chacayá	3	Marzo	2023-03-30T00:00:00	2024-11-06T15:00:00	6	Velocidad del viento	6.4
87094	7	Sololá	702	San José Chacayá	5	Chacayá	3	Marzo	2023-03-30T00:00:00	2024-11-06T15:00:00	7	Dirección del viento	6.44
87095	7	Sololá	702	San José Chacayá	5	Chacayá	3	Marzo	2023-03-30T00:00:00	2024-11-06T15:00:00	1	Precipitación	0
87096	7	Sololá	702	San José Chacayá	5	Chacayá	3	Marzo	2023-03-30T00:00:00	2024-11-06T15:00:00	8	Radiación solar	824
87097	7	Sololá	702	San José Chacayá	5	Chacayá	3	Marzo	2023-03-30T00:00:00	2024-11-06T16:00:00	2	Temperatura media	21.8
87098	7	Sololá	702	San José Chacayá	5	Chacayá	3	Marzo	2023-03-30T00:00:00	2024-11-06T16:00:00	4	Temperatura máxima	22.8
87099	7	Sololá	702	San José Chacayá	5	Chacayá	3	Marzo	2023-03-30T00:00:00	2024-11-06T16:00:00	3	Temperatura mínima	21.8
87100	7	Sololá	702	San José Chacayá	5	Chacayá	3	Marzo	2023-03-30T00:00:00	2024-11-06T16:00:00	5	Humedad	50
87101	7	Sololá	702	San José Chacayá	5	Chacayá	3	Marzo	2023-03-30T00:00:00	2024-11-06T16:00:00	6	Velocidad del viento	8
87102	7	Sololá	702	San José Chacayá	5	Chacayá	3	Marzo	2023-03-30T00:00:00	2024-11-06T16:00:00	7	Dirección del viento	8.05
87103	7	Sololá	702	San José Chacayá	5	Chacayá	3	Marzo	2023-03-30T00:00:00	2024-11-06T16:00:00	1	Precipitación	0
87104	7	Sololá	702	San José Chacayá	5	Chacayá	3	Marzo	2023-03-30T00:00:00	2024-11-06T16:00:00	8	Radiación solar	576
87105	7	Sololá	702	San José Chacayá	5	Chacayá	3	Marzo	2023-03-30T00:00:00	2024-11-06T17:00:00	2	Temperatura media	20.2
87106	7	Sololá	702	San José Chacayá	5	Chacayá	3	Marzo	2023-03-30T00:00:00	2024-11-06T17:00:00	4	Temperatura máxima	21.8
87107	7	Sololá	702	San José Chacayá	5	Chacayá	3	Marzo	2023-03-30T00:00:00	2024-11-06T17:00:00	3	Temperatura mínima	20.2
87108	7	Sololá	702	San José Chacayá	5	Chacayá	3	Marzo	2023-03-30T00:00:00	2024-11-06T17:00:00	5	Humedad	54
87109	7	Sololá	702	San José Chacayá	5	Chacayá	3	Marzo	2023-03-30T00:00:00	2024-11-06T17:00:00	6	Velocidad del viento	6.4
87110	7	Sololá	702	San José Chacayá	5	Chacayá	3	Marzo	2023-03-30T00:00:00	2024-11-06T17:00:00	7	Dirección del viento	6.44
87111	7	Sololá	702	San José Chacayá	5	Chacayá	3	Marzo	2023-03-30T00:00:00	2024-11-06T17:00:00	1	Precipitación	0
87112	7	Sololá	702	San José Chacayá	5	Chacayá	3	Marzo	2023-03-30T00:00:00	2024-11-06T17:00:00	8	Radiación solar	111
87113	7	Sololá	702	San José Chacayá	5	Chacayá	3	Marzo	2023-03-30T00:00:00	2024-11-06T18:00:00	2	Temperatura media	18.8
87114	7	Sololá	702	San José Chacayá	5	Chacayá	3	Marzo	2023-03-30T00:00:00	2024-11-06T18:00:00	4	Temperatura máxima	20.2
87115	7	Sololá	702	San José Chacayá	5	Chacayá	3	Marzo	2023-03-30T00:00:00	2024-11-06T18:00:00	3	Temperatura mínima	18.8
87116	7	Sololá	702	San José Chacayá	5	Chacayá	3	Marzo	2023-03-30T00:00:00	2024-11-06T18:00:00	5	Humedad	58
87117	7	Sololá	702	San José Chacayá	5	Chacayá	3	Marzo	2023-03-30T00:00:00	2024-11-06T18:00:00	6	Velocidad del viento	6.4
87118	7	Sololá	702	San José Chacayá	5	Chacayá	3	Marzo	2023-03-30T00:00:00	2024-11-06T18:00:00	7	Dirección del viento	6.44
87119	7	Sololá	702	San José Chacayá	5	Chacayá	3	Marzo	2023-03-30T00:00:00	2024-11-06T18:00:00	1	Precipitación	0
87120	7	Sololá	702	San José Chacayá	5	Chacayá	3	Marzo	2023-03-30T00:00:00	2024-11-06T18:00:00	8	Radiación solar	35
87121	7	Sololá	702	San José Chacayá	5	Chacayá	3	Marzo	2023-03-30T00:00:00	2024-11-06T19:00:00	2	Temperatura media	16.9
87122	7	Sololá	702	San José Chacayá	5	Chacayá	3	Marzo	2023-03-30T00:00:00	2024-11-06T19:00:00	4	Temperatura máxima	18.8
87123	7	Sololá	702	San José Chacayá	5	Chacayá	3	Marzo	2023-03-30T00:00:00	2024-11-06T19:00:00	3	Temperatura mínima	16.9
87124	7	Sololá	702	San José Chacayá	5	Chacayá	3	Marzo	2023-03-30T00:00:00	2024-11-06T19:00:00	5	Humedad	71
87125	7	Sololá	702	San José Chacayá	5	Chacayá	3	Marzo	2023-03-30T00:00:00	2024-11-06T19:00:00	6	Velocidad del viento	1.6
87126	7	Sololá	702	San José Chacayá	5	Chacayá	3	Marzo	2023-03-30T00:00:00	2024-11-06T19:00:00	7	Dirección del viento	1.61
87127	7	Sololá	702	San José Chacayá	5	Chacayá	3	Marzo	2023-03-30T00:00:00	2024-11-06T19:00:00	1	Precipitación	0
87128	7	Sololá	702	San José Chacayá	5	Chacayá	3	Marzo	2023-03-30T00:00:00	2024-11-06T19:00:00	8	Radiación solar	0
87129	7	Sololá	702	San José Chacayá	5	Chacayá	3	Marzo	2023-03-30T00:00:00	2024-11-06T20:00:00	2	Temperatura media	13.8
87130	7	Sololá	702	San José Chacayá	5	Chacayá	3	Marzo	2023-03-30T00:00:00	2024-11-06T20:00:00	4	Temperatura máxima	16.9
87131	7	Sololá	702	San José Chacayá	5	Chacayá	3	Marzo	2023-03-30T00:00:00	2024-11-06T20:00:00	3	Temperatura mínima	13.8
87132	7	Sololá	702	San José Chacayá	5	Chacayá	3	Marzo	2023-03-30T00:00:00	2024-11-06T20:00:00	5	Humedad	77
87133	7	Sololá	702	San José Chacayá	5	Chacayá	3	Marzo	2023-03-30T00:00:00	2024-11-06T20:00:00	6	Velocidad del viento	0
87134	7	Sololá	702	San José Chacayá	5	Chacayá	3	Marzo	2023-03-30T00:00:00	2024-11-06T20:00:00	7	Dirección del viento	0
87135	7	Sololá	702	San José Chacayá	5	Chacayá	3	Marzo	2023-03-30T00:00:00	2024-11-06T20:00:00	1	Precipitación	0
87136	7	Sololá	702	San José Chacayá	5	Chacayá	3	Marzo	2023-03-30T00:00:00	2024-11-06T20:00:00	8	Radiación solar	0
87137	7	Sololá	702	San José Chacayá	5	Chacayá	3	Marzo	2023-03-30T00:00:00	2024-11-06T21:00:00	2	Temperatura media	13.1
87138	7	Sololá	702	San José Chacayá	5	Chacayá	3	Marzo	2023-03-30T00:00:00	2024-11-06T21:00:00	4	Temperatura máxima	13.8
87139	7	Sololá	702	San José Chacayá	5	Chacayá	3	Marzo	2023-03-30T00:00:00	2024-11-06T21:00:00	3	Temperatura mínima	12.7
87140	7	Sololá	702	San José Chacayá	5	Chacayá	3	Marzo	2023-03-30T00:00:00	2024-11-06T21:00:00	5	Humedad	83
87141	7	Sololá	702	San José Chacayá	5	Chacayá	3	Marzo	2023-03-30T00:00:00	2024-11-06T21:00:00	6	Velocidad del viento	0
87142	7	Sololá	702	San José Chacayá	5	Chacayá	3	Marzo	2023-03-30T00:00:00	2024-11-06T21:00:00	7	Dirección del viento	0
87143	7	Sololá	702	San José Chacayá	5	Chacayá	3	Marzo	2023-03-30T00:00:00	2024-11-06T21:00:00	1	Precipitación	0
87144	7	Sololá	702	San José Chacayá	5	Chacayá	3	Marzo	2023-03-30T00:00:00	2024-11-06T21:00:00	8	Radiación solar	0
87145	7	Sololá	702	San José Chacayá	5	Chacayá	3	Marzo	2023-03-30T00:00:00	2024-11-06T22:00:00	2	Temperatura media	13.8
87146	7	Sololá	702	San José Chacayá	5	Chacayá	3	Marzo	2023-03-30T00:00:00	2024-11-06T22:00:00	4	Temperatura máxima	14
87147	7	Sololá	702	San José Chacayá	5	Chacayá	3	Marzo	2023-03-30T00:00:00	2024-11-06T22:00:00	3	Temperatura mínima	13.2
87148	7	Sololá	702	San José Chacayá	5	Chacayá	3	Marzo	2023-03-30T00:00:00	2024-11-06T22:00:00	5	Humedad	81
87149	7	Sololá	702	San José Chacayá	5	Chacayá	3	Marzo	2023-03-30T00:00:00	2024-11-06T22:00:00	6	Velocidad del viento	1.6
87150	7	Sololá	702	San José Chacayá	5	Chacayá	3	Marzo	2023-03-30T00:00:00	2024-11-06T22:00:00	7	Dirección del viento	1.61
87151	7	Sololá	702	San José Chacayá	5	Chacayá	3	Marzo	2023-03-30T00:00:00	2024-11-06T22:00:00	1	Precipitación	0
87152	7	Sololá	702	San José Chacayá	5	Chacayá	3	Marzo	2023-03-30T00:00:00	2024-11-06T22:00:00	8	Radiación solar	0
87153	7	Sololá	702	San José Chacayá	5	Chacayá	3	Marzo	2023-03-30T00:00:00	2024-11-06T23:00:00	2	Temperatura media	12.4
87154	7	Sololá	702	San José Chacayá	5	Chacayá	3	Marzo	2023-03-30T00:00:00	2024-11-06T23:00:00	4	Temperatura máxima	13.9
87155	7	Sololá	702	San José Chacayá	5	Chacayá	3	Marzo	2023-03-30T00:00:00	2024-11-06T23:00:00	3	Temperatura mínima	12.4
87156	7	Sololá	702	San José Chacayá	5	Chacayá	3	Marzo	2023-03-30T00:00:00	2024-11-06T23:00:00	5	Humedad	81
87157	7	Sololá	702	San José Chacayá	5	Chacayá	3	Marzo	2023-03-30T00:00:00	2024-11-06T23:00:00	6	Velocidad del viento	1.6
87158	7	Sololá	702	San José Chacayá	5	Chacayá	3	Marzo	2023-03-30T00:00:00	2024-11-06T23:00:00	7	Dirección del viento	1.61
87159	7	Sololá	702	San José Chacayá	5	Chacayá	3	Marzo	2023-03-30T00:00:00	2024-11-06T23:00:00	1	Precipitación	0
87160	7	Sololá	702	San José Chacayá	5	Chacayá	3	Marzo	2023-03-30T00:00:00	2024-11-06T23:00:00	8	Radiación solar	0
87161	7	Sololá	702	San José Chacayá	5	Chacayá	3	Marzo	2023-03-31T00:00:00	2024-11-06T00:00:00	2	Temperatura media	9.8
87162	7	Sololá	702	San José Chacayá	5	Chacayá	3	Marzo	2023-03-31T00:00:00	2024-11-06T00:00:00	4	Temperatura máxima	12.3
87163	7	Sololá	702	San José Chacayá	5	Chacayá	3	Marzo	2023-03-31T00:00:00	2024-11-06T00:00:00	3	Temperatura mínima	9.8
87164	7	Sololá	702	San José Chacayá	5	Chacayá	3	Marzo	2023-03-31T00:00:00	2024-11-06T00:00:00	5	Humedad	85
87165	7	Sololá	702	San José Chacayá	5	Chacayá	3	Marzo	2023-03-31T00:00:00	2024-11-06T00:00:00	6	Velocidad del viento	1.6
87166	7	Sololá	702	San José Chacayá	5	Chacayá	3	Marzo	2023-03-31T00:00:00	2024-11-06T00:00:00	7	Dirección del viento	1.61
87167	7	Sololá	702	San José Chacayá	5	Chacayá	3	Marzo	2023-03-31T00:00:00	2024-11-06T00:00:00	1	Precipitación	0
87168	7	Sololá	702	San José Chacayá	5	Chacayá	3	Marzo	2023-03-31T00:00:00	2024-11-06T00:00:00	8	Radiación solar	0
87169	7	Sololá	702	San José Chacayá	5	Chacayá	3	Marzo	2023-03-31T00:00:00	2024-11-06T01:00:00	2	Temperatura media	8.8
87170	7	Sololá	702	San José Chacayá	5	Chacayá	3	Marzo	2023-03-31T00:00:00	2024-11-06T01:00:00	4	Temperatura máxima	9.8
87171	7	Sololá	702	San José Chacayá	5	Chacayá	3	Marzo	2023-03-31T00:00:00	2024-11-06T01:00:00	3	Temperatura mínima	8.8
87172	7	Sololá	702	San José Chacayá	5	Chacayá	3	Marzo	2023-03-31T00:00:00	2024-11-06T01:00:00	5	Humedad	85
87173	7	Sololá	702	San José Chacayá	5	Chacayá	3	Marzo	2023-03-31T00:00:00	2024-11-06T01:00:00	6	Velocidad del viento	3.2
87174	7	Sololá	702	San José Chacayá	5	Chacayá	3	Marzo	2023-03-31T00:00:00	2024-11-06T01:00:00	7	Dirección del viento	3.22
87175	7	Sololá	702	San José Chacayá	5	Chacayá	3	Marzo	2023-03-31T00:00:00	2024-11-06T01:00:00	1	Precipitación	0
87176	7	Sololá	702	San José Chacayá	5	Chacayá	3	Marzo	2023-03-31T00:00:00	2024-11-06T01:00:00	8	Radiación solar	0
87177	7	Sololá	702	San José Chacayá	5	Chacayá	3	Marzo	2023-03-31T00:00:00	2024-11-06T02:00:00	2	Temperatura media	9.2
87178	7	Sololá	702	San José Chacayá	5	Chacayá	3	Marzo	2023-03-31T00:00:00	2024-11-06T02:00:00	4	Temperatura máxima	9.5
87179	7	Sololá	702	San José Chacayá	5	Chacayá	3	Marzo	2023-03-31T00:00:00	2024-11-06T02:00:00	3	Temperatura mínima	8.7
87180	7	Sololá	702	San José Chacayá	5	Chacayá	3	Marzo	2023-03-31T00:00:00	2024-11-06T02:00:00	5	Humedad	84
87181	7	Sololá	702	San José Chacayá	5	Chacayá	3	Marzo	2023-03-31T00:00:00	2024-11-06T02:00:00	6	Velocidad del viento	3.2
87182	7	Sololá	702	San José Chacayá	5	Chacayá	3	Marzo	2023-03-31T00:00:00	2024-11-06T02:00:00	7	Dirección del viento	3.22
87183	7	Sololá	702	San José Chacayá	5	Chacayá	3	Marzo	2023-03-31T00:00:00	2024-11-06T02:00:00	1	Precipitación	0
87184	7	Sololá	702	San José Chacayá	5	Chacayá	3	Marzo	2023-03-31T00:00:00	2024-11-06T02:00:00	8	Radiación solar	0
87185	7	Sololá	702	San José Chacayá	5	Chacayá	3	Marzo	2023-03-31T00:00:00	2024-11-06T03:00:00	2	Temperatura media	8.3
87186	7	Sololá	702	San José Chacayá	5	Chacayá	3	Marzo	2023-03-31T00:00:00	2024-11-06T03:00:00	4	Temperatura máxima	9.1
87187	7	Sololá	702	San José Chacayá	5	Chacayá	3	Marzo	2023-03-31T00:00:00	2024-11-06T03:00:00	3	Temperatura mínima	8.3
87188	7	Sololá	702	San José Chacayá	5	Chacayá	3	Marzo	2023-03-31T00:00:00	2024-11-06T03:00:00	5	Humedad	84
87189	7	Sololá	702	San José Chacayá	5	Chacayá	3	Marzo	2023-03-31T00:00:00	2024-11-06T03:00:00	6	Velocidad del viento	3.2
87190	7	Sololá	702	San José Chacayá	5	Chacayá	3	Marzo	2023-03-31T00:00:00	2024-11-06T03:00:00	7	Dirección del viento	3.22
87191	7	Sololá	702	San José Chacayá	5	Chacayá	3	Marzo	2023-03-31T00:00:00	2024-11-06T03:00:00	1	Precipitación	0
87192	7	Sololá	702	San José Chacayá	5	Chacayá	3	Marzo	2023-03-31T00:00:00	2024-11-06T03:00:00	8	Radiación solar	0
87193	7	Sololá	702	San José Chacayá	5	Chacayá	3	Marzo	2023-03-31T00:00:00	2024-11-06T04:00:00	2	Temperatura media	7.1
87194	7	Sololá	702	San José Chacayá	5	Chacayá	3	Marzo	2023-03-31T00:00:00	2024-11-06T04:00:00	4	Temperatura máxima	8.3
87195	7	Sololá	702	San José Chacayá	5	Chacayá	3	Marzo	2023-03-31T00:00:00	2024-11-06T04:00:00	3	Temperatura mínima	7.1
87196	7	Sololá	702	San José Chacayá	5	Chacayá	3	Marzo	2023-03-31T00:00:00	2024-11-06T04:00:00	5	Humedad	85
87197	7	Sololá	702	San José Chacayá	5	Chacayá	3	Marzo	2023-03-31T00:00:00	2024-11-06T04:00:00	6	Velocidad del viento	3.2
87198	7	Sololá	702	San José Chacayá	5	Chacayá	3	Marzo	2023-03-31T00:00:00	2024-11-06T04:00:00	7	Dirección del viento	3.22
87199	7	Sololá	702	San José Chacayá	5	Chacayá	3	Marzo	2023-03-31T00:00:00	2024-11-06T04:00:00	1	Precipitación	0
87200	7	Sololá	702	San José Chacayá	5	Chacayá	3	Marzo	2023-03-31T00:00:00	2024-11-06T04:00:00	8	Radiación solar	0
87201	7	Sololá	702	San José Chacayá	5	Chacayá	3	Marzo	2023-03-31T00:00:00	2024-11-06T05:00:00	2	Temperatura media	7.8
87202	7	Sololá	702	San José Chacayá	5	Chacayá	3	Marzo	2023-03-31T00:00:00	2024-11-06T05:00:00	4	Temperatura máxima	7.8
87203	7	Sololá	702	San José Chacayá	5	Chacayá	3	Marzo	2023-03-31T00:00:00	2024-11-06T05:00:00	3	Temperatura mínima	7
87204	7	Sololá	702	San José Chacayá	5	Chacayá	3	Marzo	2023-03-31T00:00:00	2024-11-06T05:00:00	5	Humedad	84
87205	7	Sololá	702	San José Chacayá	5	Chacayá	3	Marzo	2023-03-31T00:00:00	2024-11-06T05:00:00	6	Velocidad del viento	1.6
87206	7	Sololá	702	San José Chacayá	5	Chacayá	3	Marzo	2023-03-31T00:00:00	2024-11-06T05:00:00	7	Dirección del viento	1.61
87207	7	Sololá	702	San José Chacayá	5	Chacayá	3	Marzo	2023-03-31T00:00:00	2024-11-06T05:00:00	1	Precipitación	0
87208	7	Sololá	702	San José Chacayá	5	Chacayá	3	Marzo	2023-03-31T00:00:00	2024-11-06T05:00:00	8	Radiación solar	0
87209	7	Sololá	702	San José Chacayá	5	Chacayá	3	Marzo	2023-03-31T00:00:00	2024-11-06T06:00:00	2	Temperatura media	8.7
87210	7	Sololá	702	San José Chacayá	5	Chacayá	3	Marzo	2023-03-31T00:00:00	2024-11-06T06:00:00	4	Temperatura máxima	8.7
87211	7	Sololá	702	San José Chacayá	5	Chacayá	3	Marzo	2023-03-31T00:00:00	2024-11-06T06:00:00	3	Temperatura mínima	7.7
87212	7	Sololá	702	San José Chacayá	5	Chacayá	3	Marzo	2023-03-31T00:00:00	2024-11-06T06:00:00	5	Humedad	85
87213	7	Sololá	702	San José Chacayá	5	Chacayá	3	Marzo	2023-03-31T00:00:00	2024-11-06T06:00:00	6	Velocidad del viento	3.2
87214	7	Sololá	702	San José Chacayá	5	Chacayá	3	Marzo	2023-03-31T00:00:00	2024-11-06T06:00:00	7	Dirección del viento	3.22
87215	7	Sololá	702	San José Chacayá	5	Chacayá	3	Marzo	2023-03-31T00:00:00	2024-11-06T06:00:00	1	Precipitación	0
87216	7	Sololá	702	San José Chacayá	5	Chacayá	3	Marzo	2023-03-31T00:00:00	2024-11-06T06:00:00	8	Radiación solar	0
87217	7	Sololá	702	San José Chacayá	5	Chacayá	3	Marzo	2023-03-31T00:00:00	2024-11-06T07:00:00	2	Temperatura media	9.3
87218	7	Sololá	702	San José Chacayá	5	Chacayá	3	Marzo	2023-03-31T00:00:00	2024-11-06T07:00:00	4	Temperatura máxima	9.3
87219	7	Sololá	702	San José Chacayá	5	Chacayá	3	Marzo	2023-03-31T00:00:00	2024-11-06T07:00:00	3	Temperatura mínima	8.7
87220	7	Sololá	702	San José Chacayá	5	Chacayá	3	Marzo	2023-03-31T00:00:00	2024-11-06T07:00:00	5	Humedad	85
87221	7	Sololá	702	San José Chacayá	5	Chacayá	3	Marzo	2023-03-31T00:00:00	2024-11-06T07:00:00	6	Velocidad del viento	3.2
87222	7	Sololá	702	San José Chacayá	5	Chacayá	3	Marzo	2023-03-31T00:00:00	2024-11-06T07:00:00	7	Dirección del viento	3.22
87223	7	Sololá	702	San José Chacayá	5	Chacayá	3	Marzo	2023-03-31T00:00:00	2024-11-06T07:00:00	1	Precipitación	0
87224	7	Sololá	702	San José Chacayá	5	Chacayá	3	Marzo	2023-03-31T00:00:00	2024-11-06T07:00:00	8	Radiación solar	20
87225	7	Sololá	702	San José Chacayá	5	Chacayá	3	Marzo	2023-03-31T00:00:00	2024-11-06T08:00:00	2	Temperatura media	10.4
87226	7	Sololá	702	San José Chacayá	5	Chacayá	3	Marzo	2023-03-31T00:00:00	2024-11-06T08:00:00	4	Temperatura máxima	10.4
87227	7	Sololá	702	San José Chacayá	5	Chacayá	3	Marzo	2023-03-31T00:00:00	2024-11-06T08:00:00	3	Temperatura mínima	8.9
87228	7	Sololá	702	San José Chacayá	5	Chacayá	3	Marzo	2023-03-31T00:00:00	2024-11-06T08:00:00	5	Humedad	85
87229	7	Sololá	702	San José Chacayá	5	Chacayá	3	Marzo	2023-03-31T00:00:00	2024-11-06T08:00:00	6	Velocidad del viento	3.2
87230	7	Sololá	702	San José Chacayá	5	Chacayá	3	Marzo	2023-03-31T00:00:00	2024-11-06T08:00:00	7	Dirección del viento	3.22
87231	7	Sololá	702	San José Chacayá	5	Chacayá	3	Marzo	2023-03-31T00:00:00	2024-11-06T08:00:00	1	Precipitación	0
87232	7	Sololá	702	San José Chacayá	5	Chacayá	3	Marzo	2023-03-31T00:00:00	2024-11-06T08:00:00	8	Radiación solar	118
87233	7	Sololá	702	San José Chacayá	5	Chacayá	3	Marzo	2023-03-31T00:00:00	2024-11-06T09:00:00	2	Temperatura media	14.6
87234	7	Sololá	702	San José Chacayá	5	Chacayá	3	Marzo	2023-03-31T00:00:00	2024-11-06T09:00:00	4	Temperatura máxima	14.7
87235	7	Sololá	702	San José Chacayá	5	Chacayá	3	Marzo	2023-03-31T00:00:00	2024-11-06T09:00:00	3	Temperatura mínima	10.4
87236	7	Sololá	702	San José Chacayá	5	Chacayá	3	Marzo	2023-03-31T00:00:00	2024-11-06T09:00:00	5	Humedad	72
87237	7	Sololá	702	San José Chacayá	5	Chacayá	3	Marzo	2023-03-31T00:00:00	2024-11-06T09:00:00	6	Velocidad del viento	4.8
87238	7	Sololá	702	San José Chacayá	5	Chacayá	3	Marzo	2023-03-31T00:00:00	2024-11-06T09:00:00	7	Dirección del viento	4.83
87239	7	Sololá	702	San José Chacayá	5	Chacayá	3	Marzo	2023-03-31T00:00:00	2024-11-06T09:00:00	1	Precipitación	0
87240	7	Sololá	702	San José Chacayá	5	Chacayá	3	Marzo	2023-03-31T00:00:00	2024-11-06T09:00:00	8	Radiación solar	543
87241	7	Sololá	702	San José Chacayá	5	Chacayá	3	Marzo	2023-03-31T00:00:00	2024-11-06T10:00:00	2	Temperatura media	18.1
87242	7	Sololá	702	San José Chacayá	5	Chacayá	3	Marzo	2023-03-31T00:00:00	2024-11-06T10:00:00	4	Temperatura máxima	18.1
87243	7	Sololá	702	San José Chacayá	5	Chacayá	3	Marzo	2023-03-31T00:00:00	2024-11-06T10:00:00	3	Temperatura mínima	14.7
87244	7	Sololá	702	San José Chacayá	5	Chacayá	3	Marzo	2023-03-31T00:00:00	2024-11-06T10:00:00	5	Humedad	59
87245	7	Sololá	702	San José Chacayá	5	Chacayá	3	Marzo	2023-03-31T00:00:00	2024-11-06T10:00:00	6	Velocidad del viento	4.8
87246	7	Sololá	702	San José Chacayá	5	Chacayá	3	Marzo	2023-03-31T00:00:00	2024-11-06T10:00:00	7	Dirección del viento	4.83
87247	7	Sololá	702	San José Chacayá	5	Chacayá	3	Marzo	2023-03-31T00:00:00	2024-11-06T10:00:00	1	Precipitación	0
87248	7	Sololá	702	San José Chacayá	5	Chacayá	3	Marzo	2023-03-31T00:00:00	2024-11-06T10:00:00	8	Radiación solar	784
87249	7	Sololá	702	San José Chacayá	5	Chacayá	3	Marzo	2023-03-31T00:00:00	2024-11-06T11:00:00	2	Temperatura media	19.6
87250	7	Sololá	702	San José Chacayá	5	Chacayá	3	Marzo	2023-03-31T00:00:00	2024-11-06T11:00:00	4	Temperatura máxima	19.6
87251	7	Sololá	702	San José Chacayá	5	Chacayá	3	Marzo	2023-03-31T00:00:00	2024-11-06T11:00:00	3	Temperatura mínima	18.1
87252	7	Sololá	702	San José Chacayá	5	Chacayá	3	Marzo	2023-03-31T00:00:00	2024-11-06T11:00:00	5	Humedad	52
87253	7	Sololá	702	San José Chacayá	5	Chacayá	3	Marzo	2023-03-31T00:00:00	2024-11-06T11:00:00	6	Velocidad del viento	6.4
87254	7	Sololá	702	San José Chacayá	5	Chacayá	3	Marzo	2023-03-31T00:00:00	2024-11-06T11:00:00	7	Dirección del viento	6.44
87255	7	Sololá	702	San José Chacayá	5	Chacayá	3	Marzo	2023-03-31T00:00:00	2024-11-06T11:00:00	1	Precipitación	0
87256	7	Sololá	702	San José Chacayá	5	Chacayá	3	Marzo	2023-03-31T00:00:00	2024-11-06T11:00:00	8	Radiación solar	925
87257	7	Sololá	702	San José Chacayá	5	Chacayá	3	Marzo	2023-03-31T00:00:00	2024-11-06T12:00:00	2	Temperatura media	21.2
87258	7	Sololá	702	San José Chacayá	5	Chacayá	3	Marzo	2023-03-31T00:00:00	2024-11-06T12:00:00	4	Temperatura máxima	21.3
87259	7	Sololá	702	San José Chacayá	5	Chacayá	3	Marzo	2023-03-31T00:00:00	2024-11-06T12:00:00	3	Temperatura mínima	19.6
87260	7	Sololá	702	San José Chacayá	5	Chacayá	3	Marzo	2023-03-31T00:00:00	2024-11-06T12:00:00	5	Humedad	49
87261	7	Sololá	702	San José Chacayá	5	Chacayá	3	Marzo	2023-03-31T00:00:00	2024-11-06T12:00:00	6	Velocidad del viento	6.4
87262	7	Sololá	702	San José Chacayá	5	Chacayá	3	Marzo	2023-03-31T00:00:00	2024-11-06T12:00:00	7	Dirección del viento	6.44
87263	7	Sololá	702	San José Chacayá	5	Chacayá	3	Marzo	2023-03-31T00:00:00	2024-11-06T12:00:00	1	Precipitación	0
87264	7	Sololá	702	San José Chacayá	5	Chacayá	3	Marzo	2023-03-31T00:00:00	2024-11-06T12:00:00	8	Radiación solar	1012
87265	7	Sololá	702	San José Chacayá	5	Chacayá	3	Marzo	2023-03-31T00:00:00	2024-11-06T13:00:00	2	Temperatura media	22.2
87266	7	Sololá	702	San José Chacayá	5	Chacayá	3	Marzo	2023-03-31T00:00:00	2024-11-06T13:00:00	4	Temperatura máxima	22.3
87267	7	Sololá	702	San José Chacayá	5	Chacayá	3	Marzo	2023-03-31T00:00:00	2024-11-06T13:00:00	3	Temperatura mínima	21.2
87268	7	Sololá	702	San José Chacayá	5	Chacayá	3	Marzo	2023-03-31T00:00:00	2024-11-06T13:00:00	5	Humedad	47
87269	7	Sololá	702	San José Chacayá	5	Chacayá	3	Marzo	2023-03-31T00:00:00	2024-11-06T13:00:00	6	Velocidad del viento	6.4
87270	7	Sololá	702	San José Chacayá	5	Chacayá	3	Marzo	2023-03-31T00:00:00	2024-11-06T13:00:00	7	Dirección del viento	6.44
87271	7	Sololá	702	San José Chacayá	5	Chacayá	3	Marzo	2023-03-31T00:00:00	2024-11-06T13:00:00	1	Precipitación	0
87272	7	Sololá	702	San José Chacayá	5	Chacayá	3	Marzo	2023-03-31T00:00:00	2024-11-06T13:00:00	8	Radiación solar	1011
87273	7	Sololá	702	San José Chacayá	5	Chacayá	3	Marzo	2023-03-31T00:00:00	2024-11-06T14:00:00	2	Temperatura media	22.2
87274	7	Sololá	702	San José Chacayá	5	Chacayá	3	Marzo	2023-03-31T00:00:00	2024-11-06T14:00:00	4	Temperatura máxima	22.6
87275	7	Sololá	702	San José Chacayá	5	Chacayá	3	Marzo	2023-03-31T00:00:00	2024-11-06T14:00:00	3	Temperatura mínima	21.7
87276	7	Sololá	702	San José Chacayá	5	Chacayá	3	Marzo	2023-03-31T00:00:00	2024-11-06T14:00:00	5	Humedad	57
87277	7	Sololá	702	San José Chacayá	5	Chacayá	3	Marzo	2023-03-31T00:00:00	2024-11-06T14:00:00	6	Velocidad del viento	8
87278	7	Sololá	702	San José Chacayá	5	Chacayá	3	Marzo	2023-03-31T00:00:00	2024-11-06T14:00:00	7	Dirección del viento	8.05
87279	7	Sololá	702	San José Chacayá	5	Chacayá	3	Marzo	2023-03-31T00:00:00	2024-11-06T14:00:00	1	Precipitación	0
87280	7	Sololá	702	San José Chacayá	5	Chacayá	3	Marzo	2023-03-31T00:00:00	2024-11-06T14:00:00	8	Radiación solar	937
87281	7	Sololá	702	San José Chacayá	5	Chacayá	3	Marzo	2023-03-31T00:00:00	2024-11-06T15:00:00	2	Temperatura media	22
87282	7	Sololá	702	San José Chacayá	5	Chacayá	3	Marzo	2023-03-31T00:00:00	2024-11-06T15:00:00	4	Temperatura máxima	22.5
87283	7	Sololá	702	San José Chacayá	5	Chacayá	3	Marzo	2023-03-31T00:00:00	2024-11-06T15:00:00	3	Temperatura mínima	21.8
87284	7	Sololá	702	San José Chacayá	5	Chacayá	3	Marzo	2023-03-31T00:00:00	2024-11-06T15:00:00	5	Humedad	62
87285	7	Sololá	702	San José Chacayá	5	Chacayá	3	Marzo	2023-03-31T00:00:00	2024-11-06T15:00:00	6	Velocidad del viento	8
87286	7	Sololá	702	San José Chacayá	5	Chacayá	3	Marzo	2023-03-31T00:00:00	2024-11-06T15:00:00	7	Dirección del viento	8.05
87287	7	Sololá	702	San José Chacayá	5	Chacayá	3	Marzo	2023-03-31T00:00:00	2024-11-06T15:00:00	1	Precipitación	0
87288	7	Sololá	702	San José Chacayá	5	Chacayá	3	Marzo	2023-03-31T00:00:00	2024-11-06T15:00:00	8	Radiación solar	670
87289	7	Sololá	702	San José Chacayá	5	Chacayá	3	Marzo	2023-03-31T00:00:00	2024-11-06T16:00:00	2	Temperatura media	18.7
87290	7	Sololá	702	San José Chacayá	5	Chacayá	3	Marzo	2023-03-31T00:00:00	2024-11-06T16:00:00	4	Temperatura máxima	22.2
87291	7	Sololá	702	San José Chacayá	5	Chacayá	3	Marzo	2023-03-31T00:00:00	2024-11-06T16:00:00	3	Temperatura mínima	18.7
87292	7	Sololá	702	San José Chacayá	5	Chacayá	3	Marzo	2023-03-31T00:00:00	2024-11-06T16:00:00	5	Humedad	75
87293	7	Sololá	702	San José Chacayá	5	Chacayá	3	Marzo	2023-03-31T00:00:00	2024-11-06T16:00:00	6	Velocidad del viento	8
87294	7	Sololá	702	San José Chacayá	5	Chacayá	3	Marzo	2023-03-31T00:00:00	2024-11-06T16:00:00	7	Dirección del viento	8.05
87295	7	Sololá	702	San José Chacayá	5	Chacayá	3	Marzo	2023-03-31T00:00:00	2024-11-06T16:00:00	1	Precipitación	0
87296	7	Sololá	702	San José Chacayá	5	Chacayá	3	Marzo	2023-03-31T00:00:00	2024-11-06T16:00:00	8	Radiación solar	274
87297	7	Sololá	702	San José Chacayá	5	Chacayá	3	Marzo	2023-03-31T00:00:00	2024-11-06T17:00:00	2	Temperatura media	17.8
87298	7	Sololá	702	San José Chacayá	5	Chacayá	3	Marzo	2023-03-31T00:00:00	2024-11-06T17:00:00	4	Temperatura máxima	19.3
87299	7	Sololá	702	San José Chacayá	5	Chacayá	3	Marzo	2023-03-31T00:00:00	2024-11-06T17:00:00	3	Temperatura mínima	17.8
87300	7	Sololá	702	San José Chacayá	5	Chacayá	3	Marzo	2023-03-31T00:00:00	2024-11-06T17:00:00	5	Humedad	79
87301	7	Sololá	702	San José Chacayá	5	Chacayá	3	Marzo	2023-03-31T00:00:00	2024-11-06T17:00:00	6	Velocidad del viento	6.4
87302	7	Sololá	702	San José Chacayá	5	Chacayá	3	Marzo	2023-03-31T00:00:00	2024-11-06T17:00:00	7	Dirección del viento	6.44
87303	7	Sololá	702	San José Chacayá	5	Chacayá	3	Marzo	2023-03-31T00:00:00	2024-11-06T17:00:00	1	Precipitación	0
87304	7	Sololá	702	San José Chacayá	5	Chacayá	3	Marzo	2023-03-31T00:00:00	2024-11-06T17:00:00	8	Radiación solar	161
87305	7	Sololá	702	San José Chacayá	5	Chacayá	3	Marzo	2023-03-31T00:00:00	2024-11-06T18:00:00	2	Temperatura media	17.8
87306	7	Sololá	702	San José Chacayá	5	Chacayá	3	Marzo	2023-03-31T00:00:00	2024-11-06T18:00:00	4	Temperatura máxima	18.5
87307	7	Sololá	702	San José Chacayá	5	Chacayá	3	Marzo	2023-03-31T00:00:00	2024-11-06T18:00:00	3	Temperatura mínima	17.7
87308	7	Sololá	702	San José Chacayá	5	Chacayá	3	Marzo	2023-03-31T00:00:00	2024-11-06T18:00:00	5	Humedad	80
87309	7	Sololá	702	San José Chacayá	5	Chacayá	3	Marzo	2023-03-31T00:00:00	2024-11-06T18:00:00	6	Velocidad del viento	3.2
87310	7	Sololá	702	San José Chacayá	5	Chacayá	3	Marzo	2023-03-31T00:00:00	2024-11-06T18:00:00	7	Dirección del viento	3.22
87311	7	Sololá	702	San José Chacayá	5	Chacayá	3	Marzo	2023-03-31T00:00:00	2024-11-06T18:00:00	1	Precipitación	0
87312	7	Sololá	702	San José Chacayá	5	Chacayá	3	Marzo	2023-03-31T00:00:00	2024-11-06T18:00:00	8	Radiación solar	43
87313	7	Sololá	702	San José Chacayá	5	Chacayá	3	Marzo	2023-03-31T00:00:00	2024-11-06T19:00:00	2	Temperatura media	16.2
87314	7	Sololá	702	San José Chacayá	5	Chacayá	3	Marzo	2023-03-31T00:00:00	2024-11-06T19:00:00	4	Temperatura máxima	17.8
87315	7	Sololá	702	San José Chacayá	5	Chacayá	3	Marzo	2023-03-31T00:00:00	2024-11-06T19:00:00	3	Temperatura mínima	16.2
87316	7	Sololá	702	San José Chacayá	5	Chacayá	3	Marzo	2023-03-31T00:00:00	2024-11-06T19:00:00	5	Humedad	84
87317	7	Sololá	702	San José Chacayá	5	Chacayá	3	Marzo	2023-03-31T00:00:00	2024-11-06T19:00:00	6	Velocidad del viento	1.6
87318	7	Sololá	702	San José Chacayá	5	Chacayá	3	Marzo	2023-03-31T00:00:00	2024-11-06T19:00:00	7	Dirección del viento	1.61
87319	7	Sololá	702	San José Chacayá	5	Chacayá	3	Marzo	2023-03-31T00:00:00	2024-11-06T19:00:00	1	Precipitación	0
87320	7	Sololá	702	San José Chacayá	5	Chacayá	3	Marzo	2023-03-31T00:00:00	2024-11-06T19:00:00	8	Radiación solar	0
87321	7	Sololá	702	San José Chacayá	5	Chacayá	3	Marzo	2023-03-31T00:00:00	2024-11-06T20:00:00	2	Temperatura media	14.5
87322	7	Sololá	702	San José Chacayá	5	Chacayá	3	Marzo	2023-03-31T00:00:00	2024-11-06T20:00:00	4	Temperatura máxima	16.2
87323	7	Sololá	702	San José Chacayá	5	Chacayá	3	Marzo	2023-03-31T00:00:00	2024-11-06T20:00:00	3	Temperatura mínima	14.5
87324	7	Sololá	702	San José Chacayá	5	Chacayá	3	Marzo	2023-03-31T00:00:00	2024-11-06T20:00:00	5	Humedad	83
87325	7	Sololá	702	San José Chacayá	5	Chacayá	3	Marzo	2023-03-31T00:00:00	2024-11-06T20:00:00	6	Velocidad del viento	0
87326	7	Sololá	702	San José Chacayá	5	Chacayá	3	Marzo	2023-03-31T00:00:00	2024-11-06T20:00:00	7	Dirección del viento	0
87327	7	Sololá	702	San José Chacayá	5	Chacayá	3	Marzo	2023-03-31T00:00:00	2024-11-06T20:00:00	1	Precipitación	0
87328	7	Sololá	702	San José Chacayá	5	Chacayá	3	Marzo	2023-03-31T00:00:00	2024-11-06T20:00:00	8	Radiación solar	0
87329	7	Sololá	702	San José Chacayá	5	Chacayá	3	Marzo	2023-03-31T00:00:00	2024-11-06T21:00:00	2	Temperatura media	13.1
87330	7	Sololá	702	San José Chacayá	5	Chacayá	3	Marzo	2023-03-31T00:00:00	2024-11-06T21:00:00	4	Temperatura máxima	14.5
87331	7	Sololá	702	San José Chacayá	5	Chacayá	3	Marzo	2023-03-31T00:00:00	2024-11-06T21:00:00	3	Temperatura mínima	13.1
87332	7	Sololá	702	San José Chacayá	5	Chacayá	3	Marzo	2023-03-31T00:00:00	2024-11-06T21:00:00	5	Humedad	84
87333	7	Sololá	702	San José Chacayá	5	Chacayá	3	Marzo	2023-03-31T00:00:00	2024-11-06T21:00:00	6	Velocidad del viento	1.6
87334	7	Sololá	702	San José Chacayá	5	Chacayá	3	Marzo	2023-03-31T00:00:00	2024-11-06T21:00:00	7	Dirección del viento	1.61
87335	7	Sololá	702	San José Chacayá	5	Chacayá	3	Marzo	2023-03-31T00:00:00	2024-11-06T21:00:00	1	Precipitación	0
87336	7	Sololá	702	San José Chacayá	5	Chacayá	3	Marzo	2023-03-31T00:00:00	2024-11-06T21:00:00	8	Radiación solar	0
87337	7	Sololá	702	San José Chacayá	5	Chacayá	3	Marzo	2023-03-31T00:00:00	2024-11-06T22:00:00	2	Temperatura media	11.9
87338	7	Sololá	702	San José Chacayá	5	Chacayá	3	Marzo	2023-03-31T00:00:00	2024-11-06T22:00:00	4	Temperatura máxima	13.1
87339	7	Sololá	702	San José Chacayá	5	Chacayá	3	Marzo	2023-03-31T00:00:00	2024-11-06T22:00:00	3	Temperatura mínima	11.9
87340	7	Sololá	702	San José Chacayá	5	Chacayá	3	Marzo	2023-03-31T00:00:00	2024-11-06T22:00:00	5	Humedad	84
87341	7	Sololá	702	San José Chacayá	5	Chacayá	3	Marzo	2023-03-31T00:00:00	2024-11-06T22:00:00	6	Velocidad del viento	3.2
87342	7	Sololá	702	San José Chacayá	5	Chacayá	3	Marzo	2023-03-31T00:00:00	2024-11-06T22:00:00	7	Dirección del viento	3.22
87343	7	Sololá	702	San José Chacayá	5	Chacayá	3	Marzo	2023-03-31T00:00:00	2024-11-06T22:00:00	1	Precipitación	0
87344	7	Sololá	702	San José Chacayá	5	Chacayá	3	Marzo	2023-03-31T00:00:00	2024-11-06T22:00:00	8	Radiación solar	0
87345	7	Sololá	702	San José Chacayá	5	Chacayá	3	Marzo	2023-03-31T00:00:00	2024-11-06T23:00:00	2	Temperatura media	10.7
87346	7	Sololá	702	San José Chacayá	5	Chacayá	3	Marzo	2023-03-31T00:00:00	2024-11-06T23:00:00	4	Temperatura máxima	11.9
87347	7	Sololá	702	San José Chacayá	5	Chacayá	3	Marzo	2023-03-31T00:00:00	2024-11-06T23:00:00	3	Temperatura mínima	10.7
87348	7	Sololá	702	San José Chacayá	5	Chacayá	3	Marzo	2023-03-31T00:00:00	2024-11-06T23:00:00	5	Humedad	84
87349	7	Sololá	702	San José Chacayá	5	Chacayá	3	Marzo	2023-03-31T00:00:00	2024-11-06T23:00:00	6	Velocidad del viento	3.2
87350	7	Sololá	702	San José Chacayá	5	Chacayá	3	Marzo	2023-03-31T00:00:00	2024-11-06T23:00:00	7	Dirección del viento	3.22
87351	7	Sololá	702	San José Chacayá	5	Chacayá	3	Marzo	2023-03-31T00:00:00	2024-11-06T23:00:00	1	Precipitación	0
87352	7	Sololá	702	San José Chacayá	5	Chacayá	3	Marzo	2023-03-31T00:00:00	2024-11-06T23:00:00	8	Radiación solar	0
87353	7	Sololá	702	San José Chacayá	5	Chacayá	4	Abril	2023-01-04T00:00:00	2024-11-06T00:00:00	2	Temperatura media	10.1
87354	7	Sololá	702	San José Chacayá	5	Chacayá	4	Abril	2023-01-04T00:00:00	2024-11-06T00:00:00	4	Temperatura máxima	10.7
87355	7	Sololá	702	San José Chacayá	5	Chacayá	4	Abril	2023-01-04T00:00:00	2024-11-06T00:00:00	3	Temperatura mínima	10.1
87356	7	Sololá	702	San José Chacayá	5	Chacayá	4	Abril	2023-01-04T00:00:00	2024-11-06T00:00:00	5	Humedad	84
87357	7	Sololá	702	San José Chacayá	5	Chacayá	4	Abril	2023-01-04T00:00:00	2024-11-06T00:00:00	6	Velocidad del viento	3.2
87358	7	Sololá	702	San José Chacayá	5	Chacayá	4	Abril	2023-01-04T00:00:00	2024-11-06T00:00:00	7	Dirección del viento	3.22
87359	7	Sololá	702	San José Chacayá	5	Chacayá	4	Abril	2023-01-04T00:00:00	2024-11-06T00:00:00	1	Precipitación	0
87360	7	Sololá	702	San José Chacayá	5	Chacayá	4	Abril	2023-01-04T00:00:00	2024-11-06T00:00:00	8	Radiación solar	0
87361	7	Sololá	702	San José Chacayá	5	Chacayá	4	Abril	2023-01-04T00:00:00	2024-11-06T01:00:00	2	Temperatura media	9.4
87362	7	Sololá	702	San José Chacayá	5	Chacayá	4	Abril	2023-01-04T00:00:00	2024-11-06T01:00:00	4	Temperatura máxima	10.2
87363	7	Sololá	702	San José Chacayá	5	Chacayá	4	Abril	2023-01-04T00:00:00	2024-11-06T01:00:00	3	Temperatura mínima	9.3
87364	7	Sololá	702	San José Chacayá	5	Chacayá	4	Abril	2023-01-04T00:00:00	2024-11-06T01:00:00	5	Humedad	85
87365	7	Sololá	702	San José Chacayá	5	Chacayá	4	Abril	2023-01-04T00:00:00	2024-11-06T01:00:00	6	Velocidad del viento	3.2
87366	7	Sololá	702	San José Chacayá	5	Chacayá	4	Abril	2023-01-04T00:00:00	2024-11-06T01:00:00	7	Dirección del viento	3.22
87367	7	Sololá	702	San José Chacayá	5	Chacayá	4	Abril	2023-01-04T00:00:00	2024-11-06T01:00:00	1	Precipitación	0
87368	7	Sololá	702	San José Chacayá	5	Chacayá	4	Abril	2023-01-04T00:00:00	2024-11-06T01:00:00	8	Radiación solar	0
87369	7	Sololá	702	San José Chacayá	5	Chacayá	4	Abril	2023-01-04T00:00:00	2024-11-06T02:00:00	2	Temperatura media	9
87370	7	Sololá	702	San José Chacayá	5	Chacayá	4	Abril	2023-01-04T00:00:00	2024-11-06T02:00:00	4	Temperatura máxima	9.4
87371	7	Sololá	702	San José Chacayá	5	Chacayá	4	Abril	2023-01-04T00:00:00	2024-11-06T02:00:00	3	Temperatura mínima	8.9
87372	7	Sololá	702	San José Chacayá	5	Chacayá	4	Abril	2023-01-04T00:00:00	2024-11-06T02:00:00	5	Humedad	85
87373	7	Sololá	702	San José Chacayá	5	Chacayá	4	Abril	2023-01-04T00:00:00	2024-11-06T02:00:00	6	Velocidad del viento	4.8
87374	7	Sololá	702	San José Chacayá	5	Chacayá	4	Abril	2023-01-04T00:00:00	2024-11-06T02:00:00	7	Dirección del viento	4.83
87375	7	Sololá	702	San José Chacayá	5	Chacayá	4	Abril	2023-01-04T00:00:00	2024-11-06T02:00:00	1	Precipitación	0
87376	7	Sololá	702	San José Chacayá	5	Chacayá	4	Abril	2023-01-04T00:00:00	2024-11-06T02:00:00	8	Radiación solar	0
87377	7	Sololá	702	San José Chacayá	5	Chacayá	4	Abril	2023-01-04T00:00:00	2024-11-06T03:00:00	2	Temperatura media	8.6
87378	7	Sololá	702	San José Chacayá	5	Chacayá	4	Abril	2023-01-04T00:00:00	2024-11-06T03:00:00	4	Temperatura máxima	9.1
87379	7	Sololá	702	San José Chacayá	5	Chacayá	4	Abril	2023-01-04T00:00:00	2024-11-06T03:00:00	3	Temperatura mínima	8.5
87380	7	Sololá	702	San José Chacayá	5	Chacayá	4	Abril	2023-01-04T00:00:00	2024-11-06T03:00:00	5	Humedad	85
87381	7	Sololá	702	San José Chacayá	5	Chacayá	4	Abril	2023-01-04T00:00:00	2024-11-06T03:00:00	6	Velocidad del viento	4.8
87382	7	Sololá	702	San José Chacayá	5	Chacayá	4	Abril	2023-01-04T00:00:00	2024-11-06T03:00:00	7	Dirección del viento	4.83
87383	7	Sololá	702	San José Chacayá	5	Chacayá	4	Abril	2023-01-04T00:00:00	2024-11-06T03:00:00	1	Precipitación	0
87384	7	Sololá	702	San José Chacayá	5	Chacayá	4	Abril	2023-01-04T00:00:00	2024-11-06T03:00:00	8	Radiación solar	0
87385	7	Sololá	702	San José Chacayá	5	Chacayá	4	Abril	2023-01-04T00:00:00	2024-11-06T04:00:00	2	Temperatura media	8.5
87386	7	Sololá	702	San José Chacayá	5	Chacayá	4	Abril	2023-01-04T00:00:00	2024-11-06T04:00:00	4	Temperatura máxima	8.6
87387	7	Sololá	702	San José Chacayá	5	Chacayá	4	Abril	2023-01-04T00:00:00	2024-11-06T04:00:00	3	Temperatura mínima	8.4
87388	7	Sololá	702	San José Chacayá	5	Chacayá	4	Abril	2023-01-04T00:00:00	2024-11-06T04:00:00	5	Humedad	86
87389	7	Sololá	702	San José Chacayá	5	Chacayá	4	Abril	2023-01-04T00:00:00	2024-11-06T04:00:00	6	Velocidad del viento	4.8
87390	7	Sololá	702	San José Chacayá	5	Chacayá	4	Abril	2023-01-04T00:00:00	2024-11-06T04:00:00	7	Dirección del viento	4.83
87391	7	Sololá	702	San José Chacayá	5	Chacayá	4	Abril	2023-01-04T00:00:00	2024-11-06T04:00:00	1	Precipitación	0
87392	7	Sololá	702	San José Chacayá	5	Chacayá	4	Abril	2023-01-04T00:00:00	2024-11-06T04:00:00	8	Radiación solar	0
87393	7	Sololá	702	San José Chacayá	5	Chacayá	4	Abril	2023-01-04T00:00:00	2024-11-06T05:00:00	2	Temperatura media	8
87394	7	Sololá	702	San José Chacayá	5	Chacayá	4	Abril	2023-01-04T00:00:00	2024-11-06T05:00:00	4	Temperatura máxima	8.5
87395	7	Sololá	702	San José Chacayá	5	Chacayá	4	Abril	2023-01-04T00:00:00	2024-11-06T05:00:00	3	Temperatura mínima	7.9
87396	7	Sololá	702	San José Chacayá	5	Chacayá	4	Abril	2023-01-04T00:00:00	2024-11-06T05:00:00	5	Humedad	86
87397	7	Sololá	702	San José Chacayá	5	Chacayá	4	Abril	2023-01-04T00:00:00	2024-11-06T05:00:00	6	Velocidad del viento	3.2
87398	7	Sololá	702	San José Chacayá	5	Chacayá	4	Abril	2023-01-04T00:00:00	2024-11-06T05:00:00	7	Dirección del viento	3.22
87399	7	Sololá	702	San José Chacayá	5	Chacayá	4	Abril	2023-01-04T00:00:00	2024-11-06T05:00:00	1	Precipitación	0
87400	7	Sololá	702	San José Chacayá	5	Chacayá	4	Abril	2023-01-04T00:00:00	2024-11-06T05:00:00	8	Radiación solar	0
87401	7	Sololá	702	San José Chacayá	5	Chacayá	4	Abril	2023-01-04T00:00:00	2024-11-06T06:00:00	2	Temperatura media	7.9
87402	7	Sololá	702	San José Chacayá	5	Chacayá	4	Abril	2023-01-04T00:00:00	2024-11-06T06:00:00	4	Temperatura máxima	8.1
87403	7	Sololá	702	San José Chacayá	5	Chacayá	4	Abril	2023-01-04T00:00:00	2024-11-06T06:00:00	3	Temperatura mínima	7.8
87404	7	Sololá	702	San José Chacayá	5	Chacayá	4	Abril	2023-01-04T00:00:00	2024-11-06T06:00:00	5	Humedad	86
87405	7	Sololá	702	San José Chacayá	5	Chacayá	4	Abril	2023-01-04T00:00:00	2024-11-06T06:00:00	6	Velocidad del viento	4.8
87406	7	Sololá	702	San José Chacayá	5	Chacayá	4	Abril	2023-01-04T00:00:00	2024-11-06T06:00:00	7	Dirección del viento	4.83
87407	7	Sololá	702	San José Chacayá	5	Chacayá	4	Abril	2023-01-04T00:00:00	2024-11-06T06:00:00	1	Precipitación	0
87408	7	Sololá	702	San José Chacayá	5	Chacayá	4	Abril	2023-01-04T00:00:00	2024-11-06T06:00:00	8	Radiación solar	0
87409	7	Sololá	702	San José Chacayá	5	Chacayá	4	Abril	2023-01-04T00:00:00	2024-11-06T07:00:00	2	Temperatura media	7.6
87410	7	Sololá	702	San José Chacayá	5	Chacayá	4	Abril	2023-01-04T00:00:00	2024-11-06T07:00:00	4	Temperatura máxima	7.9
87411	7	Sololá	702	San José Chacayá	5	Chacayá	4	Abril	2023-01-04T00:00:00	2024-11-06T07:00:00	3	Temperatura mínima	7.4
87412	7	Sololá	702	San José Chacayá	5	Chacayá	4	Abril	2023-01-04T00:00:00	2024-11-06T07:00:00	5	Humedad	86
87413	7	Sololá	702	San José Chacayá	5	Chacayá	4	Abril	2023-01-04T00:00:00	2024-11-06T07:00:00	6	Velocidad del viento	4.8
87414	7	Sololá	702	San José Chacayá	5	Chacayá	4	Abril	2023-01-04T00:00:00	2024-11-06T07:00:00	7	Dirección del viento	4.83
87415	7	Sololá	702	San José Chacayá	5	Chacayá	4	Abril	2023-01-04T00:00:00	2024-11-06T07:00:00	1	Precipitación	0
87416	7	Sololá	702	San José Chacayá	5	Chacayá	4	Abril	2023-01-04T00:00:00	2024-11-06T07:00:00	8	Radiación solar	21
87417	7	Sololá	702	San José Chacayá	5	Chacayá	4	Abril	2023-01-04T00:00:00	2024-11-06T08:00:00	2	Temperatura media	9.3
87418	7	Sololá	702	San José Chacayá	5	Chacayá	4	Abril	2023-01-04T00:00:00	2024-11-06T08:00:00	4	Temperatura máxima	9.3
87419	7	Sololá	702	San José Chacayá	5	Chacayá	4	Abril	2023-01-04T00:00:00	2024-11-06T08:00:00	3	Temperatura mínima	7.4
87420	7	Sololá	702	San José Chacayá	5	Chacayá	4	Abril	2023-01-04T00:00:00	2024-11-06T08:00:00	5	Humedad	85
87421	7	Sololá	702	San José Chacayá	5	Chacayá	4	Abril	2023-01-04T00:00:00	2024-11-06T08:00:00	6	Velocidad del viento	3.2
87422	7	Sololá	702	San José Chacayá	5	Chacayá	4	Abril	2023-01-04T00:00:00	2024-11-06T08:00:00	7	Dirección del viento	3.22
87423	7	Sololá	702	San José Chacayá	5	Chacayá	4	Abril	2023-01-04T00:00:00	2024-11-06T08:00:00	1	Precipitación	0
87424	7	Sololá	702	San José Chacayá	5	Chacayá	4	Abril	2023-01-04T00:00:00	2024-11-06T08:00:00	8	Radiación solar	133
87425	7	Sololá	702	San José Chacayá	5	Chacayá	4	Abril	2023-01-04T00:00:00	2024-11-06T09:00:00	2	Temperatura media	15
87426	7	Sololá	702	San José Chacayá	5	Chacayá	4	Abril	2023-01-04T00:00:00	2024-11-06T09:00:00	4	Temperatura máxima	15
87427	7	Sololá	702	San José Chacayá	5	Chacayá	4	Abril	2023-01-04T00:00:00	2024-11-06T09:00:00	3	Temperatura mínima	9.3
87428	7	Sololá	702	San José Chacayá	5	Chacayá	4	Abril	2023-01-04T00:00:00	2024-11-06T09:00:00	5	Humedad	71
87429	7	Sololá	702	San José Chacayá	5	Chacayá	4	Abril	2023-01-04T00:00:00	2024-11-06T09:00:00	6	Velocidad del viento	1.6
87430	7	Sololá	702	San José Chacayá	5	Chacayá	4	Abril	2023-01-04T00:00:00	2024-11-06T09:00:00	7	Dirección del viento	1.61
87431	7	Sololá	702	San José Chacayá	5	Chacayá	4	Abril	2023-01-04T00:00:00	2024-11-06T09:00:00	1	Precipitación	0
87432	7	Sololá	702	San José Chacayá	5	Chacayá	4	Abril	2023-01-04T00:00:00	2024-11-06T09:00:00	8	Radiación solar	539
87433	7	Sololá	702	San José Chacayá	5	Chacayá	4	Abril	2023-01-04T00:00:00	2024-11-06T10:00:00	2	Temperatura media	17.6
87434	7	Sololá	702	San José Chacayá	5	Chacayá	4	Abril	2023-01-04T00:00:00	2024-11-06T10:00:00	4	Temperatura máxima	17.6
87435	7	Sololá	702	San José Chacayá	5	Chacayá	4	Abril	2023-01-04T00:00:00	2024-11-06T10:00:00	3	Temperatura mínima	15
87436	7	Sololá	702	San José Chacayá	5	Chacayá	4	Abril	2023-01-04T00:00:00	2024-11-06T10:00:00	5	Humedad	71
87437	7	Sololá	702	San José Chacayá	5	Chacayá	4	Abril	2023-01-04T00:00:00	2024-11-06T10:00:00	6	Velocidad del viento	3.2
87438	7	Sololá	702	San José Chacayá	5	Chacayá	4	Abril	2023-01-04T00:00:00	2024-11-06T10:00:00	7	Dirección del viento	3.22
87439	7	Sololá	702	San José Chacayá	5	Chacayá	4	Abril	2023-01-04T00:00:00	2024-11-06T10:00:00	1	Precipitación	0
87440	7	Sololá	702	San José Chacayá	5	Chacayá	4	Abril	2023-01-04T00:00:00	2024-11-06T10:00:00	8	Radiación solar	786
87441	7	Sololá	702	San José Chacayá	5	Chacayá	4	Abril	2023-01-04T00:00:00	2024-11-06T11:00:00	2	Temperatura media	19.5
87442	7	Sololá	702	San José Chacayá	5	Chacayá	4	Abril	2023-01-04T00:00:00	2024-11-06T11:00:00	4	Temperatura máxima	19.6
87443	7	Sololá	702	San José Chacayá	5	Chacayá	4	Abril	2023-01-04T00:00:00	2024-11-06T11:00:00	3	Temperatura mínima	17.6
87444	7	Sololá	702	San José Chacayá	5	Chacayá	4	Abril	2023-01-04T00:00:00	2024-11-06T11:00:00	5	Humedad	60
87445	7	Sololá	702	San José Chacayá	5	Chacayá	4	Abril	2023-01-04T00:00:00	2024-11-06T11:00:00	6	Velocidad del viento	4.8
87446	7	Sololá	702	San José Chacayá	5	Chacayá	4	Abril	2023-01-04T00:00:00	2024-11-06T11:00:00	7	Dirección del viento	4.83
87447	7	Sololá	702	San José Chacayá	5	Chacayá	4	Abril	2023-01-04T00:00:00	2024-11-06T11:00:00	1	Precipitación	0
87448	7	Sololá	702	San José Chacayá	5	Chacayá	4	Abril	2023-01-04T00:00:00	2024-11-06T11:00:00	8	Radiación solar	936
87449	7	Sololá	702	San José Chacayá	5	Chacayá	4	Abril	2023-01-04T00:00:00	2024-11-06T12:00:00	2	Temperatura media	22.1
87450	7	Sololá	702	San José Chacayá	5	Chacayá	4	Abril	2023-01-04T00:00:00	2024-11-06T12:00:00	4	Temperatura máxima	22.1
87451	7	Sololá	702	San José Chacayá	5	Chacayá	4	Abril	2023-01-04T00:00:00	2024-11-06T12:00:00	3	Temperatura mínima	19.5
87452	7	Sololá	702	San José Chacayá	5	Chacayá	4	Abril	2023-01-04T00:00:00	2024-11-06T12:00:00	5	Humedad	42
87453	7	Sololá	702	San José Chacayá	5	Chacayá	4	Abril	2023-01-04T00:00:00	2024-11-06T12:00:00	6	Velocidad del viento	6.4
87454	7	Sololá	702	San José Chacayá	5	Chacayá	4	Abril	2023-01-04T00:00:00	2024-11-06T12:00:00	7	Dirección del viento	6.44
87455	7	Sololá	702	San José Chacayá	5	Chacayá	4	Abril	2023-01-04T00:00:00	2024-11-06T12:00:00	1	Precipitación	0
87456	7	Sololá	702	San José Chacayá	5	Chacayá	4	Abril	2023-01-04T00:00:00	2024-11-06T12:00:00	8	Radiación solar	1014
87457	7	Sololá	702	San José Chacayá	5	Chacayá	4	Abril	2023-01-04T00:00:00	2024-11-06T13:00:00	2	Temperatura media	21.7
87458	7	Sololá	702	San José Chacayá	5	Chacayá	4	Abril	2023-01-04T00:00:00	2024-11-06T13:00:00	4	Temperatura máxima	23.2
87459	7	Sololá	702	San José Chacayá	5	Chacayá	4	Abril	2023-01-04T00:00:00	2024-11-06T13:00:00	3	Temperatura mínima	21.7
87460	7	Sololá	702	San José Chacayá	5	Chacayá	4	Abril	2023-01-04T00:00:00	2024-11-06T13:00:00	5	Humedad	64
87461	7	Sololá	702	San José Chacayá	5	Chacayá	4	Abril	2023-01-04T00:00:00	2024-11-06T13:00:00	6	Velocidad del viento	6.4
87462	7	Sololá	702	San José Chacayá	5	Chacayá	4	Abril	2023-01-04T00:00:00	2024-11-06T13:00:00	7	Dirección del viento	6.44
87463	7	Sololá	702	San José Chacayá	5	Chacayá	4	Abril	2023-01-04T00:00:00	2024-11-06T13:00:00	1	Precipitación	0
87464	7	Sololá	702	San José Chacayá	5	Chacayá	4	Abril	2023-01-04T00:00:00	2024-11-06T13:00:00	8	Radiación solar	1010
87465	7	Sololá	702	San José Chacayá	5	Chacayá	4	Abril	2023-01-04T00:00:00	2024-11-06T14:00:00	2	Temperatura media	22.2
87466	7	Sololá	702	San José Chacayá	5	Chacayá	4	Abril	2023-01-04T00:00:00	2024-11-06T14:00:00	4	Temperatura máxima	22.5
87467	7	Sololá	702	San José Chacayá	5	Chacayá	4	Abril	2023-01-04T00:00:00	2024-11-06T14:00:00	3	Temperatura mínima	21.7
87468	7	Sololá	702	San José Chacayá	5	Chacayá	4	Abril	2023-01-04T00:00:00	2024-11-06T14:00:00	5	Humedad	67
87469	7	Sololá	702	San José Chacayá	5	Chacayá	4	Abril	2023-01-04T00:00:00	2024-11-06T14:00:00	6	Velocidad del viento	6.4
87470	7	Sololá	702	San José Chacayá	5	Chacayá	4	Abril	2023-01-04T00:00:00	2024-11-06T14:00:00	7	Dirección del viento	6.44
87471	7	Sololá	702	San José Chacayá	5	Chacayá	4	Abril	2023-01-04T00:00:00	2024-11-06T14:00:00	1	Precipitación	0
87472	7	Sololá	702	San José Chacayá	5	Chacayá	4	Abril	2023-01-04T00:00:00	2024-11-06T14:00:00	8	Radiación solar	851
87473	7	Sololá	702	San José Chacayá	5	Chacayá	4	Abril	2023-01-04T00:00:00	2024-11-06T15:00:00	2	Temperatura media	19.8
87474	7	Sololá	702	San José Chacayá	5	Chacayá	4	Abril	2023-01-04T00:00:00	2024-11-06T15:00:00	4	Temperatura máxima	22.6
87475	7	Sololá	702	San José Chacayá	5	Chacayá	4	Abril	2023-01-04T00:00:00	2024-11-06T15:00:00	3	Temperatura mínima	19.8
87476	7	Sololá	702	San José Chacayá	5	Chacayá	4	Abril	2023-01-04T00:00:00	2024-11-06T15:00:00	5	Humedad	75
87477	7	Sololá	702	San José Chacayá	5	Chacayá	4	Abril	2023-01-04T00:00:00	2024-11-06T15:00:00	6	Velocidad del viento	6.4
87478	7	Sololá	702	San José Chacayá	5	Chacayá	4	Abril	2023-01-04T00:00:00	2024-11-06T15:00:00	7	Dirección del viento	6.44
87479	7	Sololá	702	San José Chacayá	5	Chacayá	4	Abril	2023-01-04T00:00:00	2024-11-06T15:00:00	1	Precipitación	0
87480	7	Sololá	702	San José Chacayá	5	Chacayá	4	Abril	2023-01-04T00:00:00	2024-11-06T15:00:00	8	Radiación solar	655
87481	7	Sololá	702	San José Chacayá	5	Chacayá	4	Abril	2023-01-04T00:00:00	2024-11-06T16:00:00	2	Temperatura media	19.9
87482	7	Sololá	702	San José Chacayá	5	Chacayá	4	Abril	2023-01-04T00:00:00	2024-11-06T16:00:00	4	Temperatura máxima	20.1
87483	7	Sololá	702	San José Chacayá	5	Chacayá	4	Abril	2023-01-04T00:00:00	2024-11-06T16:00:00	3	Temperatura mínima	19.4
87484	7	Sololá	702	San José Chacayá	5	Chacayá	4	Abril	2023-01-04T00:00:00	2024-11-06T16:00:00	5	Humedad	74
87485	7	Sololá	702	San José Chacayá	5	Chacayá	4	Abril	2023-01-04T00:00:00	2024-11-06T16:00:00	6	Velocidad del viento	8
87486	7	Sololá	702	San José Chacayá	5	Chacayá	4	Abril	2023-01-04T00:00:00	2024-11-06T16:00:00	7	Dirección del viento	8.05
87487	7	Sololá	702	San José Chacayá	5	Chacayá	4	Abril	2023-01-04T00:00:00	2024-11-06T16:00:00	1	Precipitación	0
87488	7	Sololá	702	San José Chacayá	5	Chacayá	4	Abril	2023-01-04T00:00:00	2024-11-06T16:00:00	8	Radiación solar	345
87489	7	Sololá	702	San José Chacayá	5	Chacayá	4	Abril	2023-01-04T00:00:00	2024-11-06T17:00:00	2	Temperatura media	18.7
87490	7	Sololá	702	San José Chacayá	5	Chacayá	4	Abril	2023-01-04T00:00:00	2024-11-06T17:00:00	4	Temperatura máxima	20.1
87491	7	Sololá	702	San José Chacayá	5	Chacayá	4	Abril	2023-01-04T00:00:00	2024-11-06T17:00:00	3	Temperatura mínima	18.3
87492	7	Sololá	702	San José Chacayá	5	Chacayá	4	Abril	2023-01-04T00:00:00	2024-11-06T17:00:00	5	Humedad	79
87493	7	Sololá	702	San José Chacayá	5	Chacayá	4	Abril	2023-01-04T00:00:00	2024-11-06T17:00:00	6	Velocidad del viento	4.8
87494	7	Sololá	702	San José Chacayá	5	Chacayá	4	Abril	2023-01-04T00:00:00	2024-11-06T17:00:00	7	Dirección del viento	4.83
87495	7	Sololá	702	San José Chacayá	5	Chacayá	4	Abril	2023-01-04T00:00:00	2024-11-06T17:00:00	1	Precipitación	0
87496	7	Sololá	702	San José Chacayá	5	Chacayá	4	Abril	2023-01-04T00:00:00	2024-11-06T17:00:00	8	Radiación solar	110
87497	7	Sololá	702	San José Chacayá	5	Chacayá	4	Abril	2023-01-04T00:00:00	2024-11-06T18:00:00	2	Temperatura media	17.6
87498	7	Sololá	702	San José Chacayá	5	Chacayá	4	Abril	2023-01-04T00:00:00	2024-11-06T18:00:00	4	Temperatura máxima	18.8
87499	7	Sololá	702	San José Chacayá	5	Chacayá	4	Abril	2023-01-04T00:00:00	2024-11-06T18:00:00	3	Temperatura mínima	17.6
87500	7	Sololá	702	San José Chacayá	5	Chacayá	4	Abril	2023-01-04T00:00:00	2024-11-06T18:00:00	5	Humedad	83
87501	7	Sololá	702	San José Chacayá	5	Chacayá	4	Abril	2023-01-04T00:00:00	2024-11-06T18:00:00	6	Velocidad del viento	4.8
87502	7	Sololá	702	San José Chacayá	5	Chacayá	4	Abril	2023-01-04T00:00:00	2024-11-06T18:00:00	7	Dirección del viento	4.83
87503	7	Sololá	702	San José Chacayá	5	Chacayá	4	Abril	2023-01-04T00:00:00	2024-11-06T18:00:00	1	Precipitación	0
87504	7	Sololá	702	San José Chacayá	5	Chacayá	4	Abril	2023-01-04T00:00:00	2024-11-06T18:00:00	8	Radiación solar	60
87505	7	Sololá	702	San José Chacayá	5	Chacayá	4	Abril	2023-01-04T00:00:00	2024-11-06T19:00:00	2	Temperatura media	16.4
87506	7	Sololá	702	San José Chacayá	5	Chacayá	4	Abril	2023-01-04T00:00:00	2024-11-06T19:00:00	4	Temperatura máxima	17.6
87507	7	Sololá	702	San José Chacayá	5	Chacayá	4	Abril	2023-01-04T00:00:00	2024-11-06T19:00:00	3	Temperatura mínima	16.3
87508	7	Sololá	702	San José Chacayá	5	Chacayá	4	Abril	2023-01-04T00:00:00	2024-11-06T19:00:00	5	Humedad	84
87509	7	Sololá	702	San José Chacayá	5	Chacayá	4	Abril	2023-01-04T00:00:00	2024-11-06T19:00:00	6	Velocidad del viento	3.2
87510	7	Sololá	702	San José Chacayá	5	Chacayá	4	Abril	2023-01-04T00:00:00	2024-11-06T19:00:00	7	Dirección del viento	3.22
87511	7	Sololá	702	San José Chacayá	5	Chacayá	4	Abril	2023-01-04T00:00:00	2024-11-06T19:00:00	1	Precipitación	0
87512	7	Sololá	702	San José Chacayá	5	Chacayá	4	Abril	2023-01-04T00:00:00	2024-11-06T19:00:00	8	Radiación solar	0
87513	7	Sololá	702	San José Chacayá	5	Chacayá	4	Abril	2023-01-04T00:00:00	2024-11-06T20:00:00	2	Temperatura media	15.7
87514	7	Sololá	702	San José Chacayá	5	Chacayá	4	Abril	2023-01-04T00:00:00	2024-11-06T20:00:00	4	Temperatura máxima	16.4
87515	7	Sololá	702	San José Chacayá	5	Chacayá	4	Abril	2023-01-04T00:00:00	2024-11-06T20:00:00	3	Temperatura mínima	15.7
87516	7	Sololá	702	San José Chacayá	5	Chacayá	4	Abril	2023-01-04T00:00:00	2024-11-06T20:00:00	5	Humedad	81
87517	7	Sololá	702	San José Chacayá	5	Chacayá	4	Abril	2023-01-04T00:00:00	2024-11-06T20:00:00	6	Velocidad del viento	0
87518	7	Sololá	702	San José Chacayá	5	Chacayá	4	Abril	2023-01-04T00:00:00	2024-11-06T20:00:00	7	Dirección del viento	0
87519	7	Sololá	702	San José Chacayá	5	Chacayá	4	Abril	2023-01-04T00:00:00	2024-11-06T20:00:00	1	Precipitación	0
87520	7	Sololá	702	San José Chacayá	5	Chacayá	4	Abril	2023-01-04T00:00:00	2024-11-06T20:00:00	8	Radiación solar	0
87521	7	Sololá	702	San José Chacayá	5	Chacayá	4	Abril	2023-01-04T00:00:00	2024-11-06T21:00:00	2	Temperatura media	14.3
87522	7	Sololá	702	San José Chacayá	5	Chacayá	4	Abril	2023-01-04T00:00:00	2024-11-06T21:00:00	4	Temperatura máxima	15.7
87523	7	Sololá	702	San José Chacayá	5	Chacayá	4	Abril	2023-01-04T00:00:00	2024-11-06T21:00:00	3	Temperatura mínima	14.2
87524	7	Sololá	702	San José Chacayá	5	Chacayá	4	Abril	2023-01-04T00:00:00	2024-11-06T21:00:00	5	Humedad	83
87525	7	Sololá	702	San José Chacayá	5	Chacayá	4	Abril	2023-01-04T00:00:00	2024-11-06T21:00:00	6	Velocidad del viento	0
87526	7	Sololá	702	San José Chacayá	5	Chacayá	4	Abril	2023-01-04T00:00:00	2024-11-06T21:00:00	7	Dirección del viento	0
87527	7	Sololá	702	San José Chacayá	5	Chacayá	4	Abril	2023-01-04T00:00:00	2024-11-06T21:00:00	1	Precipitación	0
87528	7	Sololá	702	San José Chacayá	5	Chacayá	4	Abril	2023-01-04T00:00:00	2024-11-06T21:00:00	8	Radiación solar	0
87529	7	Sololá	702	San José Chacayá	5	Chacayá	4	Abril	2023-01-04T00:00:00	2024-11-06T22:00:00	2	Temperatura media	14.1
87530	7	Sololá	702	San José Chacayá	5	Chacayá	4	Abril	2023-01-04T00:00:00	2024-11-06T22:00:00	4	Temperatura máxima	14.5
87531	7	Sololá	702	San José Chacayá	5	Chacayá	4	Abril	2023-01-04T00:00:00	2024-11-06T22:00:00	3	Temperatura mínima	14.1
87532	7	Sololá	702	San José Chacayá	5	Chacayá	4	Abril	2023-01-04T00:00:00	2024-11-06T22:00:00	5	Humedad	81
87533	7	Sololá	702	San José Chacayá	5	Chacayá	4	Abril	2023-01-04T00:00:00	2024-11-06T22:00:00	6	Velocidad del viento	1.6
87534	7	Sololá	702	San José Chacayá	5	Chacayá	4	Abril	2023-01-04T00:00:00	2024-11-06T22:00:00	7	Dirección del viento	1.61
87535	7	Sololá	702	San José Chacayá	5	Chacayá	4	Abril	2023-01-04T00:00:00	2024-11-06T22:00:00	1	Precipitación	0
87536	7	Sololá	702	San José Chacayá	5	Chacayá	4	Abril	2023-01-04T00:00:00	2024-11-06T22:00:00	8	Radiación solar	0
87537	7	Sololá	702	San José Chacayá	5	Chacayá	4	Abril	2023-01-04T00:00:00	2024-11-06T23:00:00	2	Temperatura media	11.7
87538	7	Sololá	702	San José Chacayá	5	Chacayá	4	Abril	2023-01-04T00:00:00	2024-11-06T23:00:00	4	Temperatura máxima	14.1
87539	7	Sololá	702	San José Chacayá	5	Chacayá	4	Abril	2023-01-04T00:00:00	2024-11-06T23:00:00	3	Temperatura mínima	11.7
87540	7	Sololá	702	San José Chacayá	5	Chacayá	4	Abril	2023-01-04T00:00:00	2024-11-06T23:00:00	5	Humedad	85
87541	7	Sololá	702	San José Chacayá	5	Chacayá	4	Abril	2023-01-04T00:00:00	2024-11-06T23:00:00	6	Velocidad del viento	1.6
87542	7	Sololá	702	San José Chacayá	5	Chacayá	4	Abril	2023-01-04T00:00:00	2024-11-06T23:00:00	7	Dirección del viento	1.61
87543	7	Sololá	702	San José Chacayá	5	Chacayá	4	Abril	2023-01-04T00:00:00	2024-11-06T23:00:00	1	Precipitación	0
87544	7	Sololá	702	San José Chacayá	5	Chacayá	4	Abril	2023-01-04T00:00:00	2024-11-06T23:00:00	8	Radiación solar	0
87545	7	Sololá	702	San José Chacayá	5	Chacayá	4	Abril	2023-02-04T00:00:00	2024-11-06T00:00:00	2	Temperatura media	10.1
87546	7	Sololá	702	San José Chacayá	5	Chacayá	4	Abril	2023-02-04T00:00:00	2024-11-06T00:00:00	4	Temperatura máxima	11.9
87547	7	Sololá	702	San José Chacayá	5	Chacayá	4	Abril	2023-02-04T00:00:00	2024-11-06T00:00:00	3	Temperatura mínima	10.1
87548	7	Sololá	702	San José Chacayá	5	Chacayá	4	Abril	2023-02-04T00:00:00	2024-11-06T00:00:00	5	Humedad	85
87549	7	Sololá	702	San José Chacayá	5	Chacayá	4	Abril	2023-02-04T00:00:00	2024-11-06T00:00:00	6	Velocidad del viento	1.6
87550	7	Sololá	702	San José Chacayá	5	Chacayá	4	Abril	2023-02-04T00:00:00	2024-11-06T00:00:00	7	Dirección del viento	1.61
87551	7	Sololá	702	San José Chacayá	5	Chacayá	4	Abril	2023-02-04T00:00:00	2024-11-06T00:00:00	1	Precipitación	0
87552	7	Sololá	702	San José Chacayá	5	Chacayá	4	Abril	2023-02-04T00:00:00	2024-11-06T00:00:00	8	Radiación solar	0
87553	7	Sololá	702	San José Chacayá	5	Chacayá	4	Abril	2023-02-04T00:00:00	2024-11-06T01:00:00	2	Temperatura media	8.9
87554	7	Sololá	702	San José Chacayá	5	Chacayá	4	Abril	2023-02-04T00:00:00	2024-11-06T01:00:00	4	Temperatura máxima	10.1
87555	7	Sololá	702	San José Chacayá	5	Chacayá	4	Abril	2023-02-04T00:00:00	2024-11-06T01:00:00	3	Temperatura mínima	8.9
87556	7	Sololá	702	San José Chacayá	5	Chacayá	4	Abril	2023-02-04T00:00:00	2024-11-06T01:00:00	5	Humedad	90
87557	7	Sololá	702	San José Chacayá	5	Chacayá	4	Abril	2023-02-04T00:00:00	2024-11-06T01:00:00	6	Velocidad del viento	0
87558	7	Sololá	702	San José Chacayá	5	Chacayá	4	Abril	2023-02-04T00:00:00	2024-11-06T01:00:00	7	Dirección del viento	0
87559	7	Sololá	702	San José Chacayá	5	Chacayá	4	Abril	2023-02-04T00:00:00	2024-11-06T01:00:00	1	Precipitación	0
87560	7	Sololá	702	San José Chacayá	5	Chacayá	4	Abril	2023-02-04T00:00:00	2024-11-06T01:00:00	8	Radiación solar	0
87561	7	Sololá	702	San José Chacayá	5	Chacayá	4	Abril	2023-02-04T00:00:00	2024-11-06T02:00:00	2	Temperatura media	7.6
87562	7	Sololá	702	San José Chacayá	5	Chacayá	4	Abril	2023-02-04T00:00:00	2024-11-06T02:00:00	4	Temperatura máxima	8.9
87563	7	Sololá	702	San José Chacayá	5	Chacayá	4	Abril	2023-02-04T00:00:00	2024-11-06T02:00:00	3	Temperatura mínima	7.6
87564	7	Sololá	702	San José Chacayá	5	Chacayá	4	Abril	2023-02-04T00:00:00	2024-11-06T02:00:00	5	Humedad	87
87565	7	Sololá	702	San José Chacayá	5	Chacayá	4	Abril	2023-02-04T00:00:00	2024-11-06T02:00:00	6	Velocidad del viento	1.6
87566	7	Sololá	702	San José Chacayá	5	Chacayá	4	Abril	2023-02-04T00:00:00	2024-11-06T02:00:00	7	Dirección del viento	1.61
87567	7	Sololá	702	San José Chacayá	5	Chacayá	4	Abril	2023-02-04T00:00:00	2024-11-06T02:00:00	1	Precipitación	0
87568	7	Sololá	702	San José Chacayá	5	Chacayá	4	Abril	2023-02-04T00:00:00	2024-11-06T02:00:00	8	Radiación solar	0
87569	7	Sololá	702	San José Chacayá	5	Chacayá	4	Abril	2023-02-04T00:00:00	2024-11-06T03:00:00	2	Temperatura media	6.3
87570	7	Sololá	702	San José Chacayá	5	Chacayá	4	Abril	2023-02-04T00:00:00	2024-11-06T03:00:00	4	Temperatura máxima	7.6
87571	7	Sololá	702	San José Chacayá	5	Chacayá	4	Abril	2023-02-04T00:00:00	2024-11-06T03:00:00	3	Temperatura mínima	6.3
87572	7	Sololá	702	San José Chacayá	5	Chacayá	4	Abril	2023-02-04T00:00:00	2024-11-06T03:00:00	5	Humedad	80
87573	7	Sololá	702	San José Chacayá	5	Chacayá	4	Abril	2023-02-04T00:00:00	2024-11-06T03:00:00	6	Velocidad del viento	1.6
87574	7	Sololá	702	San José Chacayá	5	Chacayá	4	Abril	2023-02-04T00:00:00	2024-11-06T03:00:00	7	Dirección del viento	1.61
87575	7	Sololá	702	San José Chacayá	5	Chacayá	4	Abril	2023-02-04T00:00:00	2024-11-06T03:00:00	1	Precipitación	0
87576	7	Sololá	702	San José Chacayá	5	Chacayá	4	Abril	2023-02-04T00:00:00	2024-11-06T03:00:00	8	Radiación solar	0
87577	7	Sololá	702	San José Chacayá	5	Chacayá	4	Abril	2023-02-04T00:00:00	2024-11-06T04:00:00	2	Temperatura media	5.2
87578	7	Sololá	702	San José Chacayá	5	Chacayá	4	Abril	2023-02-04T00:00:00	2024-11-06T04:00:00	4	Temperatura máxima	6.3
87579	7	Sololá	702	San José Chacayá	5	Chacayá	4	Abril	2023-02-04T00:00:00	2024-11-06T04:00:00	3	Temperatura mínima	5.2
87580	7	Sololá	702	San José Chacayá	5	Chacayá	4	Abril	2023-02-04T00:00:00	2024-11-06T04:00:00	5	Humedad	77
87581	7	Sololá	702	San José Chacayá	5	Chacayá	4	Abril	2023-02-04T00:00:00	2024-11-06T04:00:00	6	Velocidad del viento	1.6
87582	7	Sololá	702	San José Chacayá	5	Chacayá	4	Abril	2023-02-04T00:00:00	2024-11-06T04:00:00	7	Dirección del viento	1.61
87583	7	Sololá	702	San José Chacayá	5	Chacayá	4	Abril	2023-02-04T00:00:00	2024-11-06T04:00:00	1	Precipitación	0
87584	7	Sololá	702	San José Chacayá	5	Chacayá	4	Abril	2023-02-04T00:00:00	2024-11-06T04:00:00	8	Radiación solar	0
87585	7	Sololá	702	San José Chacayá	5	Chacayá	4	Abril	2023-02-04T00:00:00	2024-11-06T05:00:00	2	Temperatura media	4.6
87586	7	Sololá	702	San José Chacayá	5	Chacayá	4	Abril	2023-02-04T00:00:00	2024-11-06T05:00:00	4	Temperatura máxima	5.2
87587	7	Sololá	702	San José Chacayá	5	Chacayá	4	Abril	2023-02-04T00:00:00	2024-11-06T05:00:00	3	Temperatura mínima	4.6
87588	7	Sololá	702	San José Chacayá	5	Chacayá	4	Abril	2023-02-04T00:00:00	2024-11-06T05:00:00	5	Humedad	77
87589	7	Sololá	702	San José Chacayá	5	Chacayá	4	Abril	2023-02-04T00:00:00	2024-11-06T05:00:00	6	Velocidad del viento	1.6
87590	7	Sololá	702	San José Chacayá	5	Chacayá	4	Abril	2023-02-04T00:00:00	2024-11-06T05:00:00	7	Dirección del viento	1.61
87591	7	Sololá	702	San José Chacayá	5	Chacayá	4	Abril	2023-02-04T00:00:00	2024-11-06T05:00:00	1	Precipitación	0
87592	7	Sololá	702	San José Chacayá	5	Chacayá	4	Abril	2023-02-04T00:00:00	2024-11-06T05:00:00	8	Radiación solar	0
87593	7	Sololá	702	San José Chacayá	5	Chacayá	4	Abril	2023-02-04T00:00:00	2024-11-06T06:00:00	2	Temperatura media	4.2
87594	7	Sololá	702	San José Chacayá	5	Chacayá	4	Abril	2023-02-04T00:00:00	2024-11-06T06:00:00	4	Temperatura máxima	4.6
87595	7	Sololá	702	San José Chacayá	5	Chacayá	4	Abril	2023-02-04T00:00:00	2024-11-06T06:00:00	3	Temperatura mínima	4.2
87596	7	Sololá	702	San José Chacayá	5	Chacayá	4	Abril	2023-02-04T00:00:00	2024-11-06T06:00:00	5	Humedad	78
87597	7	Sololá	702	San José Chacayá	5	Chacayá	4	Abril	2023-02-04T00:00:00	2024-11-06T06:00:00	6	Velocidad del viento	3.2
87598	7	Sololá	702	San José Chacayá	5	Chacayá	4	Abril	2023-02-04T00:00:00	2024-11-06T06:00:00	7	Dirección del viento	3.22
87599	7	Sololá	702	San José Chacayá	5	Chacayá	4	Abril	2023-02-04T00:00:00	2024-11-06T06:00:00	1	Precipitación	0
87600	7	Sololá	702	San José Chacayá	5	Chacayá	4	Abril	2023-02-04T00:00:00	2024-11-06T06:00:00	8	Radiación solar	0
87601	7	Sololá	702	San José Chacayá	5	Chacayá	4	Abril	2023-02-04T00:00:00	2024-11-06T07:00:00	2	Temperatura media	4.2
87602	7	Sololá	702	San José Chacayá	5	Chacayá	4	Abril	2023-02-04T00:00:00	2024-11-06T07:00:00	4	Temperatura máxima	4.3
87603	7	Sololá	702	San José Chacayá	5	Chacayá	4	Abril	2023-02-04T00:00:00	2024-11-06T07:00:00	3	Temperatura mínima	4.2
87604	7	Sololá	702	San José Chacayá	5	Chacayá	4	Abril	2023-02-04T00:00:00	2024-11-06T07:00:00	5	Humedad	77
87605	7	Sololá	702	San José Chacayá	5	Chacayá	4	Abril	2023-02-04T00:00:00	2024-11-06T07:00:00	6	Velocidad del viento	3.2
87606	7	Sololá	702	San José Chacayá	5	Chacayá	4	Abril	2023-02-04T00:00:00	2024-11-06T07:00:00	7	Dirección del viento	3.22
87607	7	Sololá	702	San José Chacayá	5	Chacayá	4	Abril	2023-02-04T00:00:00	2024-11-06T07:00:00	1	Precipitación	0
87608	7	Sololá	702	San José Chacayá	5	Chacayá	4	Abril	2023-02-04T00:00:00	2024-11-06T07:00:00	8	Radiación solar	0
87609	7	Sololá	702	San José Chacayá	5	Chacayá	4	Abril	2023-02-04T00:00:00	2024-11-06T08:00:00	2	Temperatura media	6.6
87610	7	Sololá	702	San José Chacayá	5	Chacayá	4	Abril	2023-02-04T00:00:00	2024-11-06T08:00:00	4	Temperatura máxima	6.6
87611	7	Sololá	702	San José Chacayá	5	Chacayá	4	Abril	2023-02-04T00:00:00	2024-11-06T08:00:00	3	Temperatura mínima	4.1
87612	7	Sololá	702	San José Chacayá	5	Chacayá	4	Abril	2023-02-04T00:00:00	2024-11-06T08:00:00	5	Humedad	73
87613	7	Sololá	702	San José Chacayá	5	Chacayá	4	Abril	2023-02-04T00:00:00	2024-11-06T08:00:00	6	Velocidad del viento	1.6
87614	7	Sololá	702	San José Chacayá	5	Chacayá	4	Abril	2023-02-04T00:00:00	2024-11-06T08:00:00	7	Dirección del viento	1.61
87615	7	Sololá	702	San José Chacayá	5	Chacayá	4	Abril	2023-02-04T00:00:00	2024-11-06T08:00:00	1	Precipitación	0
87616	7	Sololá	702	San José Chacayá	5	Chacayá	4	Abril	2023-02-04T00:00:00	2024-11-06T08:00:00	8	Radiación solar	27
87617	7	Sololá	702	San José Chacayá	5	Chacayá	4	Abril	2023-02-04T00:00:00	2024-11-06T09:00:00	2	Temperatura media	14.6
87618	7	Sololá	702	San José Chacayá	5	Chacayá	4	Abril	2023-02-04T00:00:00	2024-11-06T09:00:00	4	Temperatura máxima	14.6
87619	7	Sololá	702	San José Chacayá	5	Chacayá	4	Abril	2023-02-04T00:00:00	2024-11-06T09:00:00	3	Temperatura mínima	6.6
87620	7	Sololá	702	San José Chacayá	5	Chacayá	4	Abril	2023-02-04T00:00:00	2024-11-06T09:00:00	5	Humedad	60
87621	7	Sololá	702	San José Chacayá	5	Chacayá	4	Abril	2023-02-04T00:00:00	2024-11-06T09:00:00	6	Velocidad del viento	1.6
87622	7	Sololá	702	San José Chacayá	5	Chacayá	4	Abril	2023-02-04T00:00:00	2024-11-06T09:00:00	7	Dirección del viento	1.61
87623	7	Sololá	702	San José Chacayá	5	Chacayá	4	Abril	2023-02-04T00:00:00	2024-11-06T09:00:00	1	Precipitación	0
87624	7	Sololá	702	San José Chacayá	5	Chacayá	4	Abril	2023-02-04T00:00:00	2024-11-06T09:00:00	8	Radiación solar	144
87625	7	Sololá	702	San José Chacayá	5	Chacayá	4	Abril	2023-02-04T00:00:00	2024-11-06T10:00:00	2	Temperatura media	19.3
87626	7	Sololá	702	San José Chacayá	5	Chacayá	4	Abril	2023-02-04T00:00:00	2024-11-06T10:00:00	4	Temperatura máxima	19.3
87627	7	Sololá	702	San José Chacayá	5	Chacayá	4	Abril	2023-02-04T00:00:00	2024-11-06T10:00:00	3	Temperatura mínima	14.6
87628	7	Sololá	702	San José Chacayá	5	Chacayá	4	Abril	2023-02-04T00:00:00	2024-11-06T10:00:00	5	Humedad	48
87629	7	Sololá	702	San José Chacayá	5	Chacayá	4	Abril	2023-02-04T00:00:00	2024-11-06T10:00:00	6	Velocidad del viento	4.8
87630	7	Sololá	702	San José Chacayá	5	Chacayá	4	Abril	2023-02-04T00:00:00	2024-11-06T10:00:00	7	Dirección del viento	4.83
87631	7	Sololá	702	San José Chacayá	5	Chacayá	4	Abril	2023-02-04T00:00:00	2024-11-06T10:00:00	1	Precipitación	0
87632	7	Sololá	702	San José Chacayá	5	Chacayá	4	Abril	2023-02-04T00:00:00	2024-11-06T10:00:00	8	Radiación solar	467
87633	7	Sololá	702	San José Chacayá	5	Chacayá	4	Abril	2023-02-04T00:00:00	2024-11-06T11:00:00	2	Temperatura media	22.3
87634	7	Sololá	702	San José Chacayá	5	Chacayá	4	Abril	2023-02-04T00:00:00	2024-11-06T11:00:00	4	Temperatura máxima	22.3
87635	7	Sololá	702	San José Chacayá	5	Chacayá	4	Abril	2023-02-04T00:00:00	2024-11-06T11:00:00	3	Temperatura mínima	19.3
87636	7	Sololá	702	San José Chacayá	5	Chacayá	4	Abril	2023-02-04T00:00:00	2024-11-06T11:00:00	5	Humedad	40
87637	7	Sololá	702	San José Chacayá	5	Chacayá	4	Abril	2023-02-04T00:00:00	2024-11-06T11:00:00	6	Velocidad del viento	6.4
87638	7	Sololá	702	San José Chacayá	5	Chacayá	4	Abril	2023-02-04T00:00:00	2024-11-06T11:00:00	7	Dirección del viento	6.44
87639	7	Sololá	702	San José Chacayá	5	Chacayá	4	Abril	2023-02-04T00:00:00	2024-11-06T11:00:00	1	Precipitación	0
87640	7	Sololá	702	San José Chacayá	5	Chacayá	4	Abril	2023-02-04T00:00:00	2024-11-06T11:00:00	8	Radiación solar	354
87641	7	Sololá	702	San José Chacayá	5	Chacayá	4	Abril	2023-02-04T00:00:00	2024-11-06T12:00:00	2	Temperatura media	23.7
87642	7	Sololá	702	San José Chacayá	5	Chacayá	4	Abril	2023-02-04T00:00:00	2024-11-06T12:00:00	4	Temperatura máxima	23.9
87643	7	Sololá	702	San José Chacayá	5	Chacayá	4	Abril	2023-02-04T00:00:00	2024-11-06T12:00:00	3	Temperatura mínima	22.1
87644	7	Sololá	702	San José Chacayá	5	Chacayá	4	Abril	2023-02-04T00:00:00	2024-11-06T12:00:00	5	Humedad	24
87645	7	Sololá	702	San José Chacayá	5	Chacayá	4	Abril	2023-02-04T00:00:00	2024-11-06T12:00:00	6	Velocidad del viento	6.4
87646	7	Sololá	702	San José Chacayá	5	Chacayá	4	Abril	2023-02-04T00:00:00	2024-11-06T12:00:00	7	Dirección del viento	6.44
87647	7	Sololá	702	San José Chacayá	5	Chacayá	4	Abril	2023-02-04T00:00:00	2024-11-06T12:00:00	1	Precipitación	0
87648	7	Sololá	702	San José Chacayá	5	Chacayá	4	Abril	2023-02-04T00:00:00	2024-11-06T12:00:00	8	Radiación solar	813
87649	7	Sololá	702	San José Chacayá	5	Chacayá	4	Abril	2023-02-04T00:00:00	2024-11-06T13:00:00	2	Temperatura media	24.7
87650	7	Sololá	702	San José Chacayá	5	Chacayá	4	Abril	2023-02-04T00:00:00	2024-11-06T13:00:00	4	Temperatura máxima	24.7
87651	7	Sololá	702	San José Chacayá	5	Chacayá	4	Abril	2023-02-04T00:00:00	2024-11-06T13:00:00	3	Temperatura mínima	23.5
87652	7	Sololá	702	San José Chacayá	5	Chacayá	4	Abril	2023-02-04T00:00:00	2024-11-06T13:00:00	5	Humedad	28
87653	7	Sololá	702	San José Chacayá	5	Chacayá	4	Abril	2023-02-04T00:00:00	2024-11-06T13:00:00	6	Velocidad del viento	6.4
87654	7	Sololá	702	San José Chacayá	5	Chacayá	4	Abril	2023-02-04T00:00:00	2024-11-06T13:00:00	7	Dirección del viento	6.44
87655	7	Sololá	702	San José Chacayá	5	Chacayá	4	Abril	2023-02-04T00:00:00	2024-11-06T13:00:00	1	Precipitación	0
87656	7	Sololá	702	San José Chacayá	5	Chacayá	4	Abril	2023-02-04T00:00:00	2024-11-06T13:00:00	8	Radiación solar	501
87657	7	Sololá	702	San José Chacayá	5	Chacayá	4	Abril	2023-02-04T00:00:00	2024-11-06T14:00:00	2	Temperatura media	24.8
87658	7	Sololá	702	San José Chacayá	5	Chacayá	4	Abril	2023-02-04T00:00:00	2024-11-06T14:00:00	4	Temperatura máxima	25.1
87659	7	Sololá	702	San José Chacayá	5	Chacayá	4	Abril	2023-02-04T00:00:00	2024-11-06T14:00:00	3	Temperatura mínima	24.4
87660	7	Sololá	702	San José Chacayá	5	Chacayá	4	Abril	2023-02-04T00:00:00	2024-11-06T14:00:00	5	Humedad	34
87661	7	Sololá	702	San José Chacayá	5	Chacayá	4	Abril	2023-02-04T00:00:00	2024-11-06T14:00:00	6	Velocidad del viento	8
87662	7	Sololá	702	San José Chacayá	5	Chacayá	4	Abril	2023-02-04T00:00:00	2024-11-06T14:00:00	7	Dirección del viento	8.05
87663	7	Sololá	702	San José Chacayá	5	Chacayá	4	Abril	2023-02-04T00:00:00	2024-11-06T14:00:00	1	Precipitación	0
87664	7	Sololá	702	San José Chacayá	5	Chacayá	4	Abril	2023-02-04T00:00:00	2024-11-06T14:00:00	8	Radiación solar	942
87665	7	Sololá	702	San José Chacayá	5	Chacayá	4	Abril	2023-02-04T00:00:00	2024-11-06T15:00:00	2	Temperatura media	24.5
87666	7	Sololá	702	San José Chacayá	5	Chacayá	4	Abril	2023-02-04T00:00:00	2024-11-06T15:00:00	4	Temperatura máxima	24.9
87667	7	Sololá	702	San José Chacayá	5	Chacayá	4	Abril	2023-02-04T00:00:00	2024-11-06T15:00:00	3	Temperatura mínima	24.4
87668	7	Sololá	702	San José Chacayá	5	Chacayá	4	Abril	2023-02-04T00:00:00	2024-11-06T15:00:00	5	Humedad	39
87669	7	Sololá	702	San José Chacayá	5	Chacayá	4	Abril	2023-02-04T00:00:00	2024-11-06T15:00:00	6	Velocidad del viento	8
87670	7	Sololá	702	San José Chacayá	5	Chacayá	4	Abril	2023-02-04T00:00:00	2024-11-06T15:00:00	7	Dirección del viento	8.05
87671	7	Sololá	702	San José Chacayá	5	Chacayá	4	Abril	2023-02-04T00:00:00	2024-11-06T15:00:00	1	Precipitación	0
87672	7	Sololá	702	San José Chacayá	5	Chacayá	4	Abril	2023-02-04T00:00:00	2024-11-06T15:00:00	8	Radiación solar	762
87673	7	Sololá	702	San José Chacayá	5	Chacayá	4	Abril	2023-02-04T00:00:00	2024-11-06T16:00:00	2	Temperatura media	23.7
87674	7	Sololá	702	San José Chacayá	5	Chacayá	4	Abril	2023-02-04T00:00:00	2024-11-06T16:00:00	4	Temperatura máxima	24.7
87675	7	Sololá	702	San José Chacayá	5	Chacayá	4	Abril	2023-02-04T00:00:00	2024-11-06T16:00:00	3	Temperatura mínima	23.7
87676	7	Sololá	702	San José Chacayá	5	Chacayá	4	Abril	2023-02-04T00:00:00	2024-11-06T16:00:00	5	Humedad	37
87677	7	Sololá	702	San José Chacayá	5	Chacayá	4	Abril	2023-02-04T00:00:00	2024-11-06T16:00:00	6	Velocidad del viento	8
87678	7	Sololá	702	San José Chacayá	5	Chacayá	4	Abril	2023-02-04T00:00:00	2024-11-06T16:00:00	7	Dirección del viento	8.05
87679	7	Sololá	702	San José Chacayá	5	Chacayá	4	Abril	2023-02-04T00:00:00	2024-11-06T16:00:00	1	Precipitación	0
87680	7	Sololá	702	San José Chacayá	5	Chacayá	4	Abril	2023-02-04T00:00:00	2024-11-06T16:00:00	8	Radiación solar	337
87681	7	Sololá	702	San José Chacayá	5	Chacayá	4	Abril	2023-02-04T00:00:00	2024-11-06T17:00:00	2	Temperatura media	21.9
87682	7	Sololá	702	San José Chacayá	5	Chacayá	4	Abril	2023-02-04T00:00:00	2024-11-06T17:00:00	4	Temperatura máxima	24.3
87683	7	Sololá	702	San José Chacayá	5	Chacayá	4	Abril	2023-02-04T00:00:00	2024-11-06T17:00:00	3	Temperatura mínima	21.9
87684	7	Sololá	702	San José Chacayá	5	Chacayá	4	Abril	2023-02-04T00:00:00	2024-11-06T17:00:00	5	Humedad	58
87685	7	Sololá	702	San José Chacayá	5	Chacayá	4	Abril	2023-02-04T00:00:00	2024-11-06T17:00:00	6	Velocidad del viento	4.8
87686	7	Sololá	702	San José Chacayá	5	Chacayá	4	Abril	2023-02-04T00:00:00	2024-11-06T17:00:00	7	Dirección del viento	4.83
87687	7	Sololá	702	San José Chacayá	5	Chacayá	4	Abril	2023-02-04T00:00:00	2024-11-06T17:00:00	1	Precipitación	0
87688	7	Sololá	702	San José Chacayá	5	Chacayá	4	Abril	2023-02-04T00:00:00	2024-11-06T17:00:00	8	Radiación solar	85
87689	7	Sololá	702	San José Chacayá	5	Chacayá	4	Abril	2023-02-04T00:00:00	2024-11-06T18:00:00	2	Temperatura media	18.7
87690	7	Sololá	702	San José Chacayá	5	Chacayá	4	Abril	2023-02-04T00:00:00	2024-11-06T18:00:00	4	Temperatura máxima	21.9
87691	7	Sololá	702	San José Chacayá	5	Chacayá	4	Abril	2023-02-04T00:00:00	2024-11-06T18:00:00	3	Temperatura mínima	18.7
87692	7	Sololá	702	San José Chacayá	5	Chacayá	4	Abril	2023-02-04T00:00:00	2024-11-06T18:00:00	5	Humedad	72
87693	7	Sololá	702	San José Chacayá	5	Chacayá	4	Abril	2023-02-04T00:00:00	2024-11-06T18:00:00	6	Velocidad del viento	3.2
87694	7	Sololá	702	San José Chacayá	5	Chacayá	4	Abril	2023-02-04T00:00:00	2024-11-06T18:00:00	7	Dirección del viento	3.22
87695	7	Sololá	702	San José Chacayá	5	Chacayá	4	Abril	2023-02-04T00:00:00	2024-11-06T18:00:00	1	Precipitación	0
87696	7	Sololá	702	San José Chacayá	5	Chacayá	4	Abril	2023-02-04T00:00:00	2024-11-06T18:00:00	8	Radiación solar	76
87697	7	Sololá	702	San José Chacayá	5	Chacayá	4	Abril	2023-02-04T00:00:00	2024-11-06T19:00:00	2	Temperatura media	16.6
87698	7	Sololá	702	San José Chacayá	5	Chacayá	4	Abril	2023-02-04T00:00:00	2024-11-06T19:00:00	4	Temperatura máxima	18.7
87699	7	Sololá	702	San José Chacayá	5	Chacayá	4	Abril	2023-02-04T00:00:00	2024-11-06T19:00:00	3	Temperatura mínima	16.6
87700	7	Sololá	702	San José Chacayá	5	Chacayá	4	Abril	2023-02-04T00:00:00	2024-11-06T19:00:00	5	Humedad	84
87701	7	Sololá	702	San José Chacayá	5	Chacayá	4	Abril	2023-02-04T00:00:00	2024-11-06T19:00:00	6	Velocidad del viento	1.6
87702	7	Sololá	702	San José Chacayá	5	Chacayá	4	Abril	2023-02-04T00:00:00	2024-11-06T19:00:00	7	Dirección del viento	1.61
87703	7	Sololá	702	San José Chacayá	5	Chacayá	4	Abril	2023-02-04T00:00:00	2024-11-06T19:00:00	1	Precipitación	0
87704	7	Sololá	702	San José Chacayá	5	Chacayá	4	Abril	2023-02-04T00:00:00	2024-11-06T19:00:00	8	Radiación solar	0
87705	7	Sololá	702	San José Chacayá	5	Chacayá	4	Abril	2023-02-04T00:00:00	2024-11-06T20:00:00	2	Temperatura media	14.4
87706	7	Sololá	702	San José Chacayá	5	Chacayá	4	Abril	2023-02-04T00:00:00	2024-11-06T20:00:00	4	Temperatura máxima	16.6
87707	7	Sololá	702	San José Chacayá	5	Chacayá	4	Abril	2023-02-04T00:00:00	2024-11-06T20:00:00	3	Temperatura mínima	14.4
87708	7	Sololá	702	San José Chacayá	5	Chacayá	4	Abril	2023-02-04T00:00:00	2024-11-06T20:00:00	5	Humedad	89
87709	7	Sololá	702	San José Chacayá	5	Chacayá	4	Abril	2023-02-04T00:00:00	2024-11-06T20:00:00	6	Velocidad del viento	0
87710	7	Sololá	702	San José Chacayá	5	Chacayá	4	Abril	2023-02-04T00:00:00	2024-11-06T20:00:00	7	Dirección del viento	0
87711	7	Sololá	702	San José Chacayá	5	Chacayá	4	Abril	2023-02-04T00:00:00	2024-11-06T20:00:00	1	Precipitación	0
87712	7	Sololá	702	San José Chacayá	5	Chacayá	4	Abril	2023-02-04T00:00:00	2024-11-06T20:00:00	8	Radiación solar	0
87713	7	Sololá	702	San José Chacayá	5	Chacayá	4	Abril	2023-02-04T00:00:00	2024-11-06T21:00:00	2	Temperatura media	12.9
87714	7	Sololá	702	San José Chacayá	5	Chacayá	4	Abril	2023-02-04T00:00:00	2024-11-06T21:00:00	4	Temperatura máxima	14.4
87715	7	Sololá	702	San José Chacayá	5	Chacayá	4	Abril	2023-02-04T00:00:00	2024-11-06T21:00:00	3	Temperatura mínima	12.9
87716	7	Sololá	702	San José Chacayá	5	Chacayá	4	Abril	2023-02-04T00:00:00	2024-11-06T21:00:00	5	Humedad	87
87717	7	Sololá	702	San José Chacayá	5	Chacayá	4	Abril	2023-02-04T00:00:00	2024-11-06T21:00:00	6	Velocidad del viento	0
87718	7	Sololá	702	San José Chacayá	5	Chacayá	4	Abril	2023-02-04T00:00:00	2024-11-06T21:00:00	7	Dirección del viento	0
87719	7	Sololá	702	San José Chacayá	5	Chacayá	4	Abril	2023-02-04T00:00:00	2024-11-06T21:00:00	1	Precipitación	0
87720	7	Sololá	702	San José Chacayá	5	Chacayá	4	Abril	2023-02-04T00:00:00	2024-11-06T21:00:00	8	Radiación solar	0
87721	7	Sololá	702	San José Chacayá	5	Chacayá	4	Abril	2023-02-04T00:00:00	2024-11-06T22:00:00	2	Temperatura media	12.2
87722	7	Sololá	702	San José Chacayá	5	Chacayá	4	Abril	2023-02-04T00:00:00	2024-11-06T22:00:00	4	Temperatura máxima	13
87723	7	Sololá	702	San José Chacayá	5	Chacayá	4	Abril	2023-02-04T00:00:00	2024-11-06T22:00:00	3	Temperatura mínima	12.2
87724	7	Sololá	702	San José Chacayá	5	Chacayá	4	Abril	2023-02-04T00:00:00	2024-11-06T22:00:00	5	Humedad	87
87725	7	Sololá	702	San José Chacayá	5	Chacayá	4	Abril	2023-02-04T00:00:00	2024-11-06T22:00:00	6	Velocidad del viento	0
87726	7	Sololá	702	San José Chacayá	5	Chacayá	4	Abril	2023-02-04T00:00:00	2024-11-06T22:00:00	7	Dirección del viento	0
87727	7	Sololá	702	San José Chacayá	5	Chacayá	4	Abril	2023-02-04T00:00:00	2024-11-06T22:00:00	1	Precipitación	0
87728	7	Sololá	702	San José Chacayá	5	Chacayá	4	Abril	2023-02-04T00:00:00	2024-11-06T22:00:00	8	Radiación solar	0
87729	7	Sololá	702	San José Chacayá	5	Chacayá	4	Abril	2023-02-04T00:00:00	2024-11-06T23:00:00	2	Temperatura media	10.5
87730	7	Sololá	702	San José Chacayá	5	Chacayá	4	Abril	2023-02-04T00:00:00	2024-11-06T23:00:00	4	Temperatura máxima	12.2
87731	7	Sololá	702	San José Chacayá	5	Chacayá	4	Abril	2023-02-04T00:00:00	2024-11-06T23:00:00	3	Temperatura mínima	10.5
87732	7	Sololá	702	San José Chacayá	5	Chacayá	4	Abril	2023-02-04T00:00:00	2024-11-06T23:00:00	5	Humedad	91
87733	7	Sololá	702	San José Chacayá	5	Chacayá	4	Abril	2023-02-04T00:00:00	2024-11-06T23:00:00	6	Velocidad del viento	0
87734	7	Sololá	702	San José Chacayá	5	Chacayá	4	Abril	2023-02-04T00:00:00	2024-11-06T23:00:00	7	Dirección del viento	0
87735	7	Sololá	702	San José Chacayá	5	Chacayá	4	Abril	2023-02-04T00:00:00	2024-11-06T23:00:00	1	Precipitación	0
87736	7	Sololá	702	San José Chacayá	5	Chacayá	4	Abril	2023-02-04T00:00:00	2024-11-06T23:00:00	8	Radiación solar	0
87737	7	Sololá	702	San José Chacayá	5	Chacayá	4	Abril	2023-03-04T00:00:00	2024-11-06T00:00:00	2	Temperatura media	9.7
87738	7	Sololá	702	San José Chacayá	5	Chacayá	4	Abril	2023-03-04T00:00:00	2024-11-06T00:00:00	4	Temperatura máxima	10.5
87739	7	Sololá	702	San José Chacayá	5	Chacayá	4	Abril	2023-03-04T00:00:00	2024-11-06T00:00:00	3	Temperatura mínima	9.7
87740	7	Sololá	702	San José Chacayá	5	Chacayá	4	Abril	2023-03-04T00:00:00	2024-11-06T00:00:00	5	Humedad	89
87741	7	Sololá	702	San José Chacayá	5	Chacayá	4	Abril	2023-03-04T00:00:00	2024-11-06T00:00:00	6	Velocidad del viento	1.6
87742	7	Sololá	702	San José Chacayá	5	Chacayá	4	Abril	2023-03-04T00:00:00	2024-11-06T00:00:00	7	Dirección del viento	1.61
87743	7	Sololá	702	San José Chacayá	5	Chacayá	4	Abril	2023-03-04T00:00:00	2024-11-06T00:00:00	1	Precipitación	0
87744	7	Sololá	702	San José Chacayá	5	Chacayá	4	Abril	2023-03-04T00:00:00	2024-11-06T00:00:00	8	Radiación solar	0
87745	7	Sololá	702	San José Chacayá	5	Chacayá	4	Abril	2023-03-04T00:00:00	2024-11-06T01:00:00	2	Temperatura media	8.6
87746	7	Sololá	702	San José Chacayá	5	Chacayá	4	Abril	2023-03-04T00:00:00	2024-11-06T01:00:00	4	Temperatura máxima	9.7
87747	7	Sololá	702	San José Chacayá	5	Chacayá	4	Abril	2023-03-04T00:00:00	2024-11-06T01:00:00	3	Temperatura mínima	8.6
87748	7	Sololá	702	San José Chacayá	5	Chacayá	4	Abril	2023-03-04T00:00:00	2024-11-06T01:00:00	5	Humedad	84
87749	7	Sololá	702	San José Chacayá	5	Chacayá	4	Abril	2023-03-04T00:00:00	2024-11-06T01:00:00	6	Velocidad del viento	1.6
87750	7	Sololá	702	San José Chacayá	5	Chacayá	4	Abril	2023-03-04T00:00:00	2024-11-06T01:00:00	7	Dirección del viento	1.61
87751	7	Sololá	702	San José Chacayá	5	Chacayá	4	Abril	2023-03-04T00:00:00	2024-11-06T01:00:00	1	Precipitación	0
87752	7	Sololá	702	San José Chacayá	5	Chacayá	4	Abril	2023-03-04T00:00:00	2024-11-06T01:00:00	8	Radiación solar	0
87753	7	Sololá	702	San José Chacayá	5	Chacayá	4	Abril	2023-03-04T00:00:00	2024-11-06T02:00:00	2	Temperatura media	7.7
87754	7	Sololá	702	San José Chacayá	5	Chacayá	4	Abril	2023-03-04T00:00:00	2024-11-06T02:00:00	4	Temperatura máxima	8.6
87755	7	Sololá	702	San José Chacayá	5	Chacayá	4	Abril	2023-03-04T00:00:00	2024-11-06T02:00:00	3	Temperatura mínima	7.7
87756	7	Sololá	702	San José Chacayá	5	Chacayá	4	Abril	2023-03-04T00:00:00	2024-11-06T02:00:00	5	Humedad	82
87757	7	Sololá	702	San José Chacayá	5	Chacayá	4	Abril	2023-03-04T00:00:00	2024-11-06T02:00:00	6	Velocidad del viento	1.6
87758	7	Sololá	702	San José Chacayá	5	Chacayá	4	Abril	2023-03-04T00:00:00	2024-11-06T02:00:00	7	Dirección del viento	1.61
87759	7	Sololá	702	San José Chacayá	5	Chacayá	4	Abril	2023-03-04T00:00:00	2024-11-06T02:00:00	1	Precipitación	0
87760	7	Sololá	702	San José Chacayá	5	Chacayá	4	Abril	2023-03-04T00:00:00	2024-11-06T02:00:00	8	Radiación solar	0
87761	7	Sololá	702	San José Chacayá	5	Chacayá	4	Abril	2023-03-04T00:00:00	2024-11-06T03:00:00	2	Temperatura media	7.3
87762	7	Sololá	702	San José Chacayá	5	Chacayá	4	Abril	2023-03-04T00:00:00	2024-11-06T03:00:00	4	Temperatura máxima	7.7
87763	7	Sololá	702	San José Chacayá	5	Chacayá	4	Abril	2023-03-04T00:00:00	2024-11-06T03:00:00	3	Temperatura mínima	7.3
87764	7	Sololá	702	San José Chacayá	5	Chacayá	4	Abril	2023-03-04T00:00:00	2024-11-06T03:00:00	5	Humedad	80
87765	7	Sololá	702	San José Chacayá	5	Chacayá	4	Abril	2023-03-04T00:00:00	2024-11-06T03:00:00	6	Velocidad del viento	3.2
87766	7	Sololá	702	San José Chacayá	5	Chacayá	4	Abril	2023-03-04T00:00:00	2024-11-06T03:00:00	7	Dirección del viento	3.22
87767	7	Sololá	702	San José Chacayá	5	Chacayá	4	Abril	2023-03-04T00:00:00	2024-11-06T03:00:00	1	Precipitación	0
87768	7	Sololá	702	San José Chacayá	5	Chacayá	4	Abril	2023-03-04T00:00:00	2024-11-06T03:00:00	8	Radiación solar	0
87769	7	Sololá	702	San José Chacayá	5	Chacayá	4	Abril	2023-03-04T00:00:00	2024-11-06T04:00:00	2	Temperatura media	6.8
87770	7	Sololá	702	San José Chacayá	5	Chacayá	4	Abril	2023-03-04T00:00:00	2024-11-06T04:00:00	4	Temperatura máxima	7.3
87771	7	Sololá	702	San José Chacayá	5	Chacayá	4	Abril	2023-03-04T00:00:00	2024-11-06T04:00:00	3	Temperatura mínima	6.8
87772	7	Sololá	702	San José Chacayá	5	Chacayá	4	Abril	2023-03-04T00:00:00	2024-11-06T04:00:00	5	Humedad	82
87773	7	Sololá	702	San José Chacayá	5	Chacayá	4	Abril	2023-03-04T00:00:00	2024-11-06T04:00:00	6	Velocidad del viento	1.6
87774	7	Sololá	702	San José Chacayá	5	Chacayá	4	Abril	2023-03-04T00:00:00	2024-11-06T04:00:00	7	Dirección del viento	1.61
87775	7	Sololá	702	San José Chacayá	5	Chacayá	4	Abril	2023-03-04T00:00:00	2024-11-06T04:00:00	1	Precipitación	0
87776	7	Sololá	702	San José Chacayá	5	Chacayá	4	Abril	2023-03-04T00:00:00	2024-11-06T04:00:00	8	Radiación solar	0
87777	7	Sololá	702	San José Chacayá	5	Chacayá	4	Abril	2023-03-04T00:00:00	2024-11-06T05:00:00	2	Temperatura media	6.6
87778	7	Sololá	702	San José Chacayá	5	Chacayá	4	Abril	2023-03-04T00:00:00	2024-11-06T05:00:00	4	Temperatura máxima	6.8
87779	7	Sololá	702	San José Chacayá	5	Chacayá	4	Abril	2023-03-04T00:00:00	2024-11-06T05:00:00	3	Temperatura mínima	6.5
87780	7	Sololá	702	San José Chacayá	5	Chacayá	4	Abril	2023-03-04T00:00:00	2024-11-06T05:00:00	5	Humedad	84
87781	7	Sololá	702	San José Chacayá	5	Chacayá	4	Abril	2023-03-04T00:00:00	2024-11-06T05:00:00	6	Velocidad del viento	1.6
87782	7	Sololá	702	San José Chacayá	5	Chacayá	4	Abril	2023-03-04T00:00:00	2024-11-06T05:00:00	7	Dirección del viento	1.61
87783	7	Sololá	702	San José Chacayá	5	Chacayá	4	Abril	2023-03-04T00:00:00	2024-11-06T05:00:00	1	Precipitación	0
87784	7	Sololá	702	San José Chacayá	5	Chacayá	4	Abril	2023-03-04T00:00:00	2024-11-06T05:00:00	8	Radiación solar	0
87785	7	Sololá	702	San José Chacayá	5	Chacayá	4	Abril	2023-03-04T00:00:00	2024-11-06T06:00:00	2	Temperatura media	6.4
87786	7	Sololá	702	San José Chacayá	5	Chacayá	4	Abril	2023-03-04T00:00:00	2024-11-06T06:00:00	4	Temperatura máxima	6.6
87787	7	Sololá	702	San José Chacayá	5	Chacayá	4	Abril	2023-03-04T00:00:00	2024-11-06T06:00:00	3	Temperatura mínima	6.4
87788	7	Sololá	702	San José Chacayá	5	Chacayá	4	Abril	2023-03-04T00:00:00	2024-11-06T06:00:00	5	Humedad	88
87789	7	Sololá	702	San José Chacayá	5	Chacayá	4	Abril	2023-03-04T00:00:00	2024-11-06T06:00:00	6	Velocidad del viento	1.6
87790	7	Sololá	702	San José Chacayá	5	Chacayá	4	Abril	2023-03-04T00:00:00	2024-11-06T06:00:00	7	Dirección del viento	1.61
87791	7	Sololá	702	San José Chacayá	5	Chacayá	4	Abril	2023-03-04T00:00:00	2024-11-06T06:00:00	1	Precipitación	0
87792	7	Sololá	702	San José Chacayá	5	Chacayá	4	Abril	2023-03-04T00:00:00	2024-11-06T06:00:00	8	Radiación solar	0
87793	7	Sololá	702	San José Chacayá	5	Chacayá	4	Abril	2023-03-04T00:00:00	2024-11-06T07:00:00	2	Temperatura media	6.4
87794	7	Sololá	702	San José Chacayá	5	Chacayá	4	Abril	2023-03-04T00:00:00	2024-11-06T07:00:00	4	Temperatura máxima	6.6
87795	7	Sololá	702	San José Chacayá	5	Chacayá	4	Abril	2023-03-04T00:00:00	2024-11-06T07:00:00	3	Temperatura mínima	6.3
87796	7	Sololá	702	San José Chacayá	5	Chacayá	4	Abril	2023-03-04T00:00:00	2024-11-06T07:00:00	5	Humedad	91
87797	7	Sololá	702	San José Chacayá	5	Chacayá	4	Abril	2023-03-04T00:00:00	2024-11-06T07:00:00	6	Velocidad del viento	1.6
87798	7	Sololá	702	San José Chacayá	5	Chacayá	4	Abril	2023-03-04T00:00:00	2024-11-06T07:00:00	7	Dirección del viento	1.61
87799	7	Sololá	702	San José Chacayá	5	Chacayá	4	Abril	2023-03-04T00:00:00	2024-11-06T07:00:00	1	Precipitación	0
87800	7	Sololá	702	San José Chacayá	5	Chacayá	4	Abril	2023-03-04T00:00:00	2024-11-06T07:00:00	8	Radiación solar	0
87801	7	Sololá	702	San José Chacayá	5	Chacayá	4	Abril	2023-03-04T00:00:00	2024-11-06T08:00:00	2	Temperatura media	8.1
87802	7	Sololá	702	San José Chacayá	5	Chacayá	4	Abril	2023-03-04T00:00:00	2024-11-06T08:00:00	4	Temperatura máxima	8.1
87803	7	Sololá	702	San José Chacayá	5	Chacayá	4	Abril	2023-03-04T00:00:00	2024-11-06T08:00:00	3	Temperatura mínima	6.4
87804	7	Sololá	702	San José Chacayá	5	Chacayá	4	Abril	2023-03-04T00:00:00	2024-11-06T08:00:00	5	Humedad	91
87805	7	Sololá	702	San José Chacayá	5	Chacayá	4	Abril	2023-03-04T00:00:00	2024-11-06T08:00:00	6	Velocidad del viento	1.6
87806	7	Sololá	702	San José Chacayá	5	Chacayá	4	Abril	2023-03-04T00:00:00	2024-11-06T08:00:00	7	Dirección del viento	1.61
87807	7	Sololá	702	San José Chacayá	5	Chacayá	4	Abril	2023-03-04T00:00:00	2024-11-06T08:00:00	1	Precipitación	0
87808	7	Sololá	702	San José Chacayá	5	Chacayá	4	Abril	2023-03-04T00:00:00	2024-11-06T08:00:00	8	Radiación solar	20
87809	7	Sololá	702	San José Chacayá	5	Chacayá	4	Abril	2023-03-04T00:00:00	2024-11-06T09:00:00	2	Temperatura media	13.8
87810	7	Sololá	702	San José Chacayá	5	Chacayá	4	Abril	2023-03-04T00:00:00	2024-11-06T09:00:00	4	Temperatura máxima	13.8
87811	7	Sololá	702	San José Chacayá	5	Chacayá	4	Abril	2023-03-04T00:00:00	2024-11-06T09:00:00	3	Temperatura mínima	8.1
87812	7	Sololá	702	San José Chacayá	5	Chacayá	4	Abril	2023-03-04T00:00:00	2024-11-06T09:00:00	5	Humedad	76
87813	7	Sololá	702	San José Chacayá	5	Chacayá	4	Abril	2023-03-04T00:00:00	2024-11-06T09:00:00	6	Velocidad del viento	1.6
87814	7	Sololá	702	San José Chacayá	5	Chacayá	4	Abril	2023-03-04T00:00:00	2024-11-06T09:00:00	7	Dirección del viento	1.61
87815	7	Sololá	702	San José Chacayá	5	Chacayá	4	Abril	2023-03-04T00:00:00	2024-11-06T09:00:00	1	Precipitación	0
87816	7	Sololá	702	San José Chacayá	5	Chacayá	4	Abril	2023-03-04T00:00:00	2024-11-06T09:00:00	8	Radiación solar	51
87817	7	Sololá	702	San José Chacayá	5	Chacayá	4	Abril	2023-03-04T00:00:00	2024-11-06T10:00:00	2	Temperatura media	17.7
87818	7	Sololá	702	San José Chacayá	5	Chacayá	4	Abril	2023-03-04T00:00:00	2024-11-06T10:00:00	4	Temperatura máxima	17.7
87819	7	Sololá	702	San José Chacayá	5	Chacayá	4	Abril	2023-03-04T00:00:00	2024-11-06T10:00:00	3	Temperatura mínima	13.8
87820	7	Sololá	702	San José Chacayá	5	Chacayá	4	Abril	2023-03-04T00:00:00	2024-11-06T10:00:00	5	Humedad	68
87821	7	Sololá	702	San José Chacayá	5	Chacayá	4	Abril	2023-03-04T00:00:00	2024-11-06T10:00:00	6	Velocidad del viento	3.2
87822	7	Sololá	702	San José Chacayá	5	Chacayá	4	Abril	2023-03-04T00:00:00	2024-11-06T10:00:00	7	Dirección del viento	3.22
87823	7	Sololá	702	San José Chacayá	5	Chacayá	4	Abril	2023-03-04T00:00:00	2024-11-06T10:00:00	1	Precipitación	0
87824	7	Sololá	702	San José Chacayá	5	Chacayá	4	Abril	2023-03-04T00:00:00	2024-11-06T10:00:00	8	Radiación solar	478
87825	7	Sololá	702	San José Chacayá	5	Chacayá	4	Abril	2023-03-04T00:00:00	2024-11-06T11:00:00	2	Temperatura media	20.7
87826	7	Sololá	702	San José Chacayá	5	Chacayá	4	Abril	2023-03-04T00:00:00	2024-11-06T11:00:00	4	Temperatura máxima	20.8
87827	7	Sololá	702	San José Chacayá	5	Chacayá	4	Abril	2023-03-04T00:00:00	2024-11-06T11:00:00	3	Temperatura mínima	17.8
87828	7	Sololá	702	San José Chacayá	5	Chacayá	4	Abril	2023-03-04T00:00:00	2024-11-06T11:00:00	5	Humedad	60
87829	7	Sololá	702	San José Chacayá	5	Chacayá	4	Abril	2023-03-04T00:00:00	2024-11-06T11:00:00	6	Velocidad del viento	4.8
87830	7	Sololá	702	San José Chacayá	5	Chacayá	4	Abril	2023-03-04T00:00:00	2024-11-06T11:00:00	7	Dirección del viento	4.83
87831	7	Sololá	702	San José Chacayá	5	Chacayá	4	Abril	2023-03-04T00:00:00	2024-11-06T11:00:00	1	Precipitación	0
87832	7	Sololá	702	San José Chacayá	5	Chacayá	4	Abril	2023-03-04T00:00:00	2024-11-06T11:00:00	8	Radiación solar	751
87833	7	Sololá	702	San José Chacayá	5	Chacayá	4	Abril	2023-03-04T00:00:00	2024-11-06T12:00:00	2	Temperatura media	21.8
87834	7	Sololá	702	San José Chacayá	5	Chacayá	4	Abril	2023-03-04T00:00:00	2024-11-06T12:00:00	4	Temperatura máxima	21.9
87835	7	Sololá	702	San José Chacayá	5	Chacayá	4	Abril	2023-03-04T00:00:00	2024-11-06T12:00:00	3	Temperatura mínima	20.6
87836	7	Sololá	702	San José Chacayá	5	Chacayá	4	Abril	2023-03-04T00:00:00	2024-11-06T12:00:00	5	Humedad	58
87837	7	Sololá	702	San José Chacayá	5	Chacayá	4	Abril	2023-03-04T00:00:00	2024-11-06T12:00:00	6	Velocidad del viento	4.8
87838	7	Sololá	702	San José Chacayá	5	Chacayá	4	Abril	2023-03-04T00:00:00	2024-11-06T12:00:00	7	Dirección del viento	4.83
87839	7	Sololá	702	San José Chacayá	5	Chacayá	4	Abril	2023-03-04T00:00:00	2024-11-06T12:00:00	1	Precipitación	0
87840	7	Sololá	702	San José Chacayá	5	Chacayá	4	Abril	2023-03-04T00:00:00	2024-11-06T12:00:00	8	Radiación solar	896
87841	7	Sololá	702	San José Chacayá	5	Chacayá	4	Abril	2023-03-04T00:00:00	2024-11-06T13:00:00	2	Temperatura media	22.7
87842	7	Sololá	702	San José Chacayá	5	Chacayá	4	Abril	2023-03-04T00:00:00	2024-11-06T13:00:00	4	Temperatura máxima	22.7
87843	7	Sololá	702	San José Chacayá	5	Chacayá	4	Abril	2023-03-04T00:00:00	2024-11-06T13:00:00	3	Temperatura mínima	21.8
87844	7	Sololá	702	San José Chacayá	5	Chacayá	4	Abril	2023-03-04T00:00:00	2024-11-06T13:00:00	5	Humedad	59
87845	7	Sololá	702	San José Chacayá	5	Chacayá	4	Abril	2023-03-04T00:00:00	2024-11-06T13:00:00	6	Velocidad del viento	4.8
87846	7	Sololá	702	San José Chacayá	5	Chacayá	4	Abril	2023-03-04T00:00:00	2024-11-06T13:00:00	7	Dirección del viento	4.83
87847	7	Sololá	702	San José Chacayá	5	Chacayá	4	Abril	2023-03-04T00:00:00	2024-11-06T13:00:00	1	Precipitación	0
87848	7	Sololá	702	San José Chacayá	5	Chacayá	4	Abril	2023-03-04T00:00:00	2024-11-06T13:00:00	8	Radiación solar	492
87849	7	Sololá	702	San José Chacayá	5	Chacayá	4	Abril	2023-03-04T00:00:00	2024-11-06T14:00:00	2	Temperatura media	21.1
87850	7	Sololá	702	San José Chacayá	5	Chacayá	4	Abril	2023-03-04T00:00:00	2024-11-06T14:00:00	4	Temperatura máxima	22.8
87851	7	Sololá	702	San José Chacayá	5	Chacayá	4	Abril	2023-03-04T00:00:00	2024-11-06T14:00:00	3	Temperatura mínima	21.1
87852	7	Sololá	702	San José Chacayá	5	Chacayá	4	Abril	2023-03-04T00:00:00	2024-11-06T14:00:00	5	Humedad	67
87853	7	Sololá	702	San José Chacayá	5	Chacayá	4	Abril	2023-03-04T00:00:00	2024-11-06T14:00:00	6	Velocidad del viento	6.4
87854	7	Sololá	702	San José Chacayá	5	Chacayá	4	Abril	2023-03-04T00:00:00	2024-11-06T14:00:00	7	Dirección del viento	6.44
87855	7	Sololá	702	San José Chacayá	5	Chacayá	4	Abril	2023-03-04T00:00:00	2024-11-06T14:00:00	1	Precipitación	0
87856	7	Sololá	702	San José Chacayá	5	Chacayá	4	Abril	2023-03-04T00:00:00	2024-11-06T14:00:00	8	Radiación solar	1002
87857	7	Sololá	702	San José Chacayá	5	Chacayá	4	Abril	2023-03-04T00:00:00	2024-11-06T15:00:00	2	Temperatura media	19.3
87858	7	Sololá	702	San José Chacayá	5	Chacayá	4	Abril	2023-03-04T00:00:00	2024-11-06T15:00:00	4	Temperatura máxima	21.1
87859	7	Sololá	702	San José Chacayá	5	Chacayá	4	Abril	2023-03-04T00:00:00	2024-11-06T15:00:00	3	Temperatura mínima	19.3
87860	7	Sololá	702	San José Chacayá	5	Chacayá	4	Abril	2023-03-04T00:00:00	2024-11-06T15:00:00	5	Humedad	75
87861	7	Sololá	702	San José Chacayá	5	Chacayá	4	Abril	2023-03-04T00:00:00	2024-11-06T15:00:00	6	Velocidad del viento	6.4
87862	7	Sololá	702	San José Chacayá	5	Chacayá	4	Abril	2023-03-04T00:00:00	2024-11-06T15:00:00	7	Dirección del viento	6.44
87863	7	Sololá	702	San José Chacayá	5	Chacayá	4	Abril	2023-03-04T00:00:00	2024-11-06T15:00:00	1	Precipitación	0
87864	7	Sololá	702	San José Chacayá	5	Chacayá	4	Abril	2023-03-04T00:00:00	2024-11-06T15:00:00	8	Radiación solar	575
87865	7	Sololá	702	San José Chacayá	5	Chacayá	4	Abril	2023-03-04T00:00:00	2024-11-06T16:00:00	2	Temperatura media	18.6
87866	7	Sololá	702	San José Chacayá	5	Chacayá	4	Abril	2023-03-04T00:00:00	2024-11-06T16:00:00	4	Temperatura máxima	19.4
87867	7	Sololá	702	San José Chacayá	5	Chacayá	4	Abril	2023-03-04T00:00:00	2024-11-06T16:00:00	3	Temperatura mínima	18.3
87868	7	Sololá	702	San José Chacayá	5	Chacayá	4	Abril	2023-03-04T00:00:00	2024-11-06T16:00:00	5	Humedad	77
87869	7	Sololá	702	San José Chacayá	5	Chacayá	4	Abril	2023-03-04T00:00:00	2024-11-06T16:00:00	6	Velocidad del viento	4.8
87870	7	Sololá	702	San José Chacayá	5	Chacayá	4	Abril	2023-03-04T00:00:00	2024-11-06T16:00:00	7	Dirección del viento	4.83
87871	7	Sololá	702	San José Chacayá	5	Chacayá	4	Abril	2023-03-04T00:00:00	2024-11-06T16:00:00	1	Precipitación	0
87872	7	Sololá	702	San José Chacayá	5	Chacayá	4	Abril	2023-03-04T00:00:00	2024-11-06T16:00:00	8	Radiación solar	228
87873	7	Sololá	702	San José Chacayá	5	Chacayá	4	Abril	2023-03-04T00:00:00	2024-11-06T17:00:00	2	Temperatura media	17.7
87874	7	Sololá	702	San José Chacayá	5	Chacayá	4	Abril	2023-03-04T00:00:00	2024-11-06T17:00:00	4	Temperatura máxima	18.8
87875	7	Sololá	702	San José Chacayá	5	Chacayá	4	Abril	2023-03-04T00:00:00	2024-11-06T17:00:00	3	Temperatura mínima	17.7
87876	7	Sololá	702	San José Chacayá	5	Chacayá	4	Abril	2023-03-04T00:00:00	2024-11-06T17:00:00	5	Humedad	81
87877	7	Sololá	702	San José Chacayá	5	Chacayá	4	Abril	2023-03-04T00:00:00	2024-11-06T17:00:00	6	Velocidad del viento	4.8
87878	7	Sololá	702	San José Chacayá	5	Chacayá	4	Abril	2023-03-04T00:00:00	2024-11-06T17:00:00	7	Dirección del viento	4.83
87879	7	Sololá	702	San José Chacayá	5	Chacayá	4	Abril	2023-03-04T00:00:00	2024-11-06T17:00:00	1	Precipitación	0
87880	7	Sololá	702	San José Chacayá	5	Chacayá	4	Abril	2023-03-04T00:00:00	2024-11-06T17:00:00	8	Radiación solar	158
87881	7	Sololá	702	San José Chacayá	5	Chacayá	4	Abril	2023-03-04T00:00:00	2024-11-06T18:00:00	2	Temperatura media	17.7
87882	7	Sololá	702	San José Chacayá	5	Chacayá	4	Abril	2023-03-04T00:00:00	2024-11-06T18:00:00	4	Temperatura máxima	17.7
87883	7	Sololá	702	San José Chacayá	5	Chacayá	4	Abril	2023-03-04T00:00:00	2024-11-06T18:00:00	3	Temperatura mínima	17.4
87884	7	Sololá	702	San José Chacayá	5	Chacayá	4	Abril	2023-03-04T00:00:00	2024-11-06T18:00:00	5	Humedad	80
87885	7	Sololá	702	San José Chacayá	5	Chacayá	4	Abril	2023-03-04T00:00:00	2024-11-06T18:00:00	6	Velocidad del viento	1.6
87886	7	Sololá	702	San José Chacayá	5	Chacayá	4	Abril	2023-03-04T00:00:00	2024-11-06T18:00:00	7	Dirección del viento	1.61
87887	7	Sololá	702	San José Chacayá	5	Chacayá	4	Abril	2023-03-04T00:00:00	2024-11-06T18:00:00	1	Precipitación	0
87888	7	Sololá	702	San José Chacayá	5	Chacayá	4	Abril	2023-03-04T00:00:00	2024-11-06T18:00:00	8	Radiación solar	138
87889	7	Sololá	702	San José Chacayá	5	Chacayá	4	Abril	2023-03-04T00:00:00	2024-11-06T19:00:00	2	Temperatura media	16.2
87890	7	Sololá	702	San José Chacayá	5	Chacayá	4	Abril	2023-03-04T00:00:00	2024-11-06T19:00:00	4	Temperatura máxima	17.7
87891	7	Sololá	702	San José Chacayá	5	Chacayá	4	Abril	2023-03-04T00:00:00	2024-11-06T19:00:00	3	Temperatura mínima	16.2
87892	7	Sololá	702	San José Chacayá	5	Chacayá	4	Abril	2023-03-04T00:00:00	2024-11-06T19:00:00	5	Humedad	86
87893	7	Sololá	702	San José Chacayá	5	Chacayá	4	Abril	2023-03-04T00:00:00	2024-11-06T19:00:00	6	Velocidad del viento	1.6
87894	7	Sololá	702	San José Chacayá	5	Chacayá	4	Abril	2023-03-04T00:00:00	2024-11-06T19:00:00	7	Dirección del viento	1.61
87895	7	Sololá	702	San José Chacayá	5	Chacayá	4	Abril	2023-03-04T00:00:00	2024-11-06T19:00:00	1	Precipitación	0
87896	7	Sololá	702	San José Chacayá	5	Chacayá	4	Abril	2023-03-04T00:00:00	2024-11-06T19:00:00	8	Radiación solar	0
87897	7	Sololá	702	San José Chacayá	5	Chacayá	4	Abril	2023-03-04T00:00:00	2024-11-06T20:00:00	2	Temperatura media	15.2
87898	7	Sololá	702	San José Chacayá	5	Chacayá	4	Abril	2023-03-04T00:00:00	2024-11-06T20:00:00	4	Temperatura máxima	16.2
87899	7	Sololá	702	San José Chacayá	5	Chacayá	4	Abril	2023-03-04T00:00:00	2024-11-06T20:00:00	3	Temperatura mínima	15.2
87900	7	Sololá	702	San José Chacayá	5	Chacayá	4	Abril	2023-03-04T00:00:00	2024-11-06T20:00:00	5	Humedad	89
87901	7	Sololá	702	San José Chacayá	5	Chacayá	4	Abril	2023-03-04T00:00:00	2024-11-06T20:00:00	6	Velocidad del viento	1.6
87902	7	Sololá	702	San José Chacayá	5	Chacayá	4	Abril	2023-03-04T00:00:00	2024-11-06T20:00:00	7	Dirección del viento	1.61
87903	7	Sololá	702	San José Chacayá	5	Chacayá	4	Abril	2023-03-04T00:00:00	2024-11-06T20:00:00	1	Precipitación	0
87904	7	Sololá	702	San José Chacayá	5	Chacayá	4	Abril	2023-03-04T00:00:00	2024-11-06T20:00:00	8	Radiación solar	0
87905	7	Sololá	702	San José Chacayá	5	Chacayá	4	Abril	2023-03-04T00:00:00	2024-11-06T21:00:00	2	Temperatura media	13.6
87906	7	Sololá	702	San José Chacayá	5	Chacayá	4	Abril	2023-03-04T00:00:00	2024-11-06T21:00:00	4	Temperatura máxima	15.2
87907	7	Sololá	702	San José Chacayá	5	Chacayá	4	Abril	2023-03-04T00:00:00	2024-11-06T21:00:00	3	Temperatura mínima	13.6
87908	7	Sololá	702	San José Chacayá	5	Chacayá	4	Abril	2023-03-04T00:00:00	2024-11-06T21:00:00	5	Humedad	92
87909	7	Sololá	702	San José Chacayá	5	Chacayá	4	Abril	2023-03-04T00:00:00	2024-11-06T21:00:00	6	Velocidad del viento	0
87910	7	Sololá	702	San José Chacayá	5	Chacayá	4	Abril	2023-03-04T00:00:00	2024-11-06T21:00:00	7	Dirección del viento	0
87911	7	Sololá	702	San José Chacayá	5	Chacayá	4	Abril	2023-03-04T00:00:00	2024-11-06T21:00:00	1	Precipitación	0
87912	7	Sololá	702	San José Chacayá	5	Chacayá	4	Abril	2023-03-04T00:00:00	2024-11-06T21:00:00	8	Radiación solar	0
87913	7	Sololá	702	San José Chacayá	5	Chacayá	4	Abril	2023-03-04T00:00:00	2024-11-06T22:00:00	2	Temperatura media	11.8
87914	7	Sololá	702	San José Chacayá	5	Chacayá	4	Abril	2023-03-04T00:00:00	2024-11-06T22:00:00	4	Temperatura máxima	13.6
87915	7	Sololá	702	San José Chacayá	5	Chacayá	4	Abril	2023-03-04T00:00:00	2024-11-06T22:00:00	3	Temperatura mínima	11.8
87916	7	Sololá	702	San José Chacayá	5	Chacayá	4	Abril	2023-03-04T00:00:00	2024-11-06T22:00:00	5	Humedad	89
87917	7	Sololá	702	San José Chacayá	5	Chacayá	4	Abril	2023-03-04T00:00:00	2024-11-06T22:00:00	6	Velocidad del viento	0
87918	7	Sololá	702	San José Chacayá	5	Chacayá	4	Abril	2023-03-04T00:00:00	2024-11-06T22:00:00	7	Dirección del viento	0
87919	7	Sololá	702	San José Chacayá	5	Chacayá	4	Abril	2023-03-04T00:00:00	2024-11-06T22:00:00	1	Precipitación	0
87920	7	Sololá	702	San José Chacayá	5	Chacayá	4	Abril	2023-03-04T00:00:00	2024-11-06T22:00:00	8	Radiación solar	0
87921	7	Sololá	702	San José Chacayá	5	Chacayá	4	Abril	2023-03-04T00:00:00	2024-11-06T23:00:00	2	Temperatura media	10.3
87922	7	Sololá	702	San José Chacayá	5	Chacayá	4	Abril	2023-03-04T00:00:00	2024-11-06T23:00:00	4	Temperatura máxima	11.8
87923	7	Sololá	702	San José Chacayá	5	Chacayá	4	Abril	2023-03-04T00:00:00	2024-11-06T23:00:00	3	Temperatura mínima	10.3
87924	7	Sololá	702	San José Chacayá	5	Chacayá	4	Abril	2023-03-04T00:00:00	2024-11-06T23:00:00	5	Humedad	89
87925	7	Sololá	702	San José Chacayá	5	Chacayá	4	Abril	2023-03-04T00:00:00	2024-11-06T23:00:00	6	Velocidad del viento	1.6
87926	7	Sololá	702	San José Chacayá	5	Chacayá	4	Abril	2023-03-04T00:00:00	2024-11-06T23:00:00	7	Dirección del viento	1.61
87927	7	Sololá	702	San José Chacayá	5	Chacayá	4	Abril	2023-03-04T00:00:00	2024-11-06T23:00:00	1	Precipitación	0
87928	7	Sololá	702	San José Chacayá	5	Chacayá	4	Abril	2023-03-04T00:00:00	2024-11-06T23:00:00	8	Radiación solar	0
87929	7	Sololá	702	San José Chacayá	5	Chacayá	4	Abril	2023-04-04T00:00:00	2024-11-06T00:00:00	2	Temperatura media	9.4
87930	7	Sololá	702	San José Chacayá	5	Chacayá	4	Abril	2023-04-04T00:00:00	2024-11-06T00:00:00	4	Temperatura máxima	10.3
87931	7	Sololá	702	San José Chacayá	5	Chacayá	4	Abril	2023-04-04T00:00:00	2024-11-06T00:00:00	3	Temperatura mínima	9.4
87932	7	Sololá	702	San José Chacayá	5	Chacayá	4	Abril	2023-04-04T00:00:00	2024-11-06T00:00:00	5	Humedad	90
87933	7	Sololá	702	San José Chacayá	5	Chacayá	4	Abril	2023-04-04T00:00:00	2024-11-06T00:00:00	6	Velocidad del viento	0
87934	7	Sololá	702	San José Chacayá	5	Chacayá	4	Abril	2023-04-04T00:00:00	2024-11-06T00:00:00	7	Dirección del viento	0
87935	7	Sololá	702	San José Chacayá	5	Chacayá	4	Abril	2023-04-04T00:00:00	2024-11-06T00:00:00	1	Precipitación	0
87936	7	Sololá	702	San José Chacayá	5	Chacayá	4	Abril	2023-04-04T00:00:00	2024-11-06T00:00:00	8	Radiación solar	0
87937	7	Sololá	702	San José Chacayá	5	Chacayá	4	Abril	2023-04-04T00:00:00	2024-11-06T01:00:00	2	Temperatura media	9.1
87938	7	Sololá	702	San José Chacayá	5	Chacayá	4	Abril	2023-04-04T00:00:00	2024-11-06T01:00:00	4	Temperatura máxima	9.4
87939	7	Sololá	702	San José Chacayá	5	Chacayá	4	Abril	2023-04-04T00:00:00	2024-11-06T01:00:00	3	Temperatura mínima	9.1
87940	7	Sololá	702	San José Chacayá	5	Chacayá	4	Abril	2023-04-04T00:00:00	2024-11-06T01:00:00	5	Humedad	89
87941	7	Sololá	702	San José Chacayá	5	Chacayá	4	Abril	2023-04-04T00:00:00	2024-11-06T01:00:00	6	Velocidad del viento	1.6
87942	7	Sololá	702	San José Chacayá	5	Chacayá	4	Abril	2023-04-04T00:00:00	2024-11-06T01:00:00	7	Dirección del viento	1.61
87943	7	Sololá	702	San José Chacayá	5	Chacayá	4	Abril	2023-04-04T00:00:00	2024-11-06T01:00:00	1	Precipitación	0
87944	7	Sololá	702	San José Chacayá	5	Chacayá	4	Abril	2023-04-04T00:00:00	2024-11-06T01:00:00	8	Radiación solar	0
87945	7	Sololá	702	San José Chacayá	5	Chacayá	4	Abril	2023-04-04T00:00:00	2024-11-06T02:00:00	2	Temperatura media	8.4
87946	7	Sololá	702	San José Chacayá	5	Chacayá	4	Abril	2023-04-04T00:00:00	2024-11-06T02:00:00	4	Temperatura máxima	9.1
87947	7	Sololá	702	San José Chacayá	5	Chacayá	4	Abril	2023-04-04T00:00:00	2024-11-06T02:00:00	3	Temperatura mínima	8.4
87948	7	Sololá	702	San José Chacayá	5	Chacayá	4	Abril	2023-04-04T00:00:00	2024-11-06T02:00:00	5	Humedad	90
87949	7	Sololá	702	San José Chacayá	5	Chacayá	4	Abril	2023-04-04T00:00:00	2024-11-06T02:00:00	6	Velocidad del viento	1.6
87950	7	Sololá	702	San José Chacayá	5	Chacayá	4	Abril	2023-04-04T00:00:00	2024-11-06T02:00:00	7	Dirección del viento	1.61
87951	7	Sololá	702	San José Chacayá	5	Chacayá	4	Abril	2023-04-04T00:00:00	2024-11-06T02:00:00	1	Precipitación	0
87952	7	Sololá	702	San José Chacayá	5	Chacayá	4	Abril	2023-04-04T00:00:00	2024-11-06T02:00:00	8	Radiación solar	0
87953	7	Sololá	702	San José Chacayá	5	Chacayá	4	Abril	2023-04-04T00:00:00	2024-11-06T03:00:00	2	Temperatura media	8.2
87954	7	Sololá	702	San José Chacayá	5	Chacayá	4	Abril	2023-04-04T00:00:00	2024-11-06T03:00:00	4	Temperatura máxima	8.6
87955	7	Sololá	702	San José Chacayá	5	Chacayá	4	Abril	2023-04-04T00:00:00	2024-11-06T03:00:00	3	Temperatura mínima	8.1
87956	7	Sololá	702	San José Chacayá	5	Chacayá	4	Abril	2023-04-04T00:00:00	2024-11-06T03:00:00	5	Humedad	90
87957	7	Sololá	702	San José Chacayá	5	Chacayá	4	Abril	2023-04-04T00:00:00	2024-11-06T03:00:00	6	Velocidad del viento	1.6
87958	7	Sololá	702	San José Chacayá	5	Chacayá	4	Abril	2023-04-04T00:00:00	2024-11-06T03:00:00	7	Dirección del viento	1.61
87959	7	Sololá	702	San José Chacayá	5	Chacayá	4	Abril	2023-04-04T00:00:00	2024-11-06T03:00:00	1	Precipitación	0
87960	7	Sololá	702	San José Chacayá	5	Chacayá	4	Abril	2023-04-04T00:00:00	2024-11-06T03:00:00	8	Radiación solar	0
87961	7	Sololá	702	San José Chacayá	5	Chacayá	4	Abril	2023-04-04T00:00:00	2024-11-06T04:00:00	2	Temperatura media	7.7
87962	7	Sololá	702	San José Chacayá	5	Chacayá	4	Abril	2023-04-04T00:00:00	2024-11-06T04:00:00	4	Temperatura máxima	8.2
87963	7	Sololá	702	San José Chacayá	5	Chacayá	4	Abril	2023-04-04T00:00:00	2024-11-06T04:00:00	3	Temperatura mínima	7.7
87964	7	Sololá	702	San José Chacayá	5	Chacayá	4	Abril	2023-04-04T00:00:00	2024-11-06T04:00:00	5	Humedad	90
87965	7	Sololá	702	San José Chacayá	5	Chacayá	4	Abril	2023-04-04T00:00:00	2024-11-06T04:00:00	6	Velocidad del viento	1.6
87966	7	Sololá	702	San José Chacayá	5	Chacayá	4	Abril	2023-04-04T00:00:00	2024-11-06T04:00:00	7	Dirección del viento	1.61
87967	7	Sololá	702	San José Chacayá	5	Chacayá	4	Abril	2023-04-04T00:00:00	2024-11-06T04:00:00	1	Precipitación	0
87968	7	Sololá	702	San José Chacayá	5	Chacayá	4	Abril	2023-04-04T00:00:00	2024-11-06T04:00:00	8	Radiación solar	0
87969	7	Sololá	702	San José Chacayá	5	Chacayá	4	Abril	2023-04-04T00:00:00	2024-11-06T05:00:00	2	Temperatura media	7.1
87970	7	Sololá	702	San José Chacayá	5	Chacayá	4	Abril	2023-04-04T00:00:00	2024-11-06T05:00:00	4	Temperatura máxima	7.8
87971	7	Sololá	702	San José Chacayá	5	Chacayá	4	Abril	2023-04-04T00:00:00	2024-11-06T05:00:00	3	Temperatura mínima	7.1
87972	7	Sololá	702	San José Chacayá	5	Chacayá	4	Abril	2023-04-04T00:00:00	2024-11-06T05:00:00	5	Humedad	91
87973	7	Sololá	702	San José Chacayá	5	Chacayá	4	Abril	2023-04-04T00:00:00	2024-11-06T05:00:00	6	Velocidad del viento	1.6
87974	7	Sololá	702	San José Chacayá	5	Chacayá	4	Abril	2023-04-04T00:00:00	2024-11-06T05:00:00	7	Dirección del viento	1.61
87975	7	Sololá	702	San José Chacayá	5	Chacayá	4	Abril	2023-04-04T00:00:00	2024-11-06T05:00:00	1	Precipitación	0
87976	7	Sololá	702	San José Chacayá	5	Chacayá	4	Abril	2023-04-04T00:00:00	2024-11-06T05:00:00	8	Radiación solar	0
87977	7	Sololá	702	San José Chacayá	5	Chacayá	4	Abril	2023-04-04T00:00:00	2024-11-06T06:00:00	2	Temperatura media	6.8
87978	7	Sololá	702	San José Chacayá	5	Chacayá	4	Abril	2023-04-04T00:00:00	2024-11-06T06:00:00	4	Temperatura máxima	7.3
87979	7	Sololá	702	San José Chacayá	5	Chacayá	4	Abril	2023-04-04T00:00:00	2024-11-06T06:00:00	3	Temperatura mínima	6.8
87980	7	Sololá	702	San José Chacayá	5	Chacayá	4	Abril	2023-04-04T00:00:00	2024-11-06T06:00:00	5	Humedad	90
87981	7	Sololá	702	San José Chacayá	5	Chacayá	4	Abril	2023-04-04T00:00:00	2024-11-06T06:00:00	6	Velocidad del viento	1.6
87982	7	Sololá	702	San José Chacayá	5	Chacayá	4	Abril	2023-04-04T00:00:00	2024-11-06T06:00:00	7	Dirección del viento	1.61
87983	7	Sololá	702	San José Chacayá	5	Chacayá	4	Abril	2023-04-04T00:00:00	2024-11-06T06:00:00	1	Precipitación	0
87984	7	Sololá	702	San José Chacayá	5	Chacayá	4	Abril	2023-04-04T00:00:00	2024-11-06T06:00:00	8	Radiación solar	0
87985	7	Sololá	702	San José Chacayá	5	Chacayá	4	Abril	2023-04-04T00:00:00	2024-11-06T07:00:00	2	Temperatura media	6.4
87986	7	Sololá	702	San José Chacayá	5	Chacayá	4	Abril	2023-04-04T00:00:00	2024-11-06T07:00:00	4	Temperatura máxima	6.8
87987	7	Sololá	702	San José Chacayá	5	Chacayá	4	Abril	2023-04-04T00:00:00	2024-11-06T07:00:00	3	Temperatura mínima	6.4
87988	7	Sololá	702	San José Chacayá	5	Chacayá	4	Abril	2023-04-04T00:00:00	2024-11-06T07:00:00	5	Humedad	92
87989	7	Sololá	702	San José Chacayá	5	Chacayá	4	Abril	2023-04-04T00:00:00	2024-11-06T07:00:00	6	Velocidad del viento	1.6
87990	7	Sololá	702	San José Chacayá	5	Chacayá	4	Abril	2023-04-04T00:00:00	2024-11-06T07:00:00	7	Dirección del viento	1.61
87991	7	Sololá	702	San José Chacayá	5	Chacayá	4	Abril	2023-04-04T00:00:00	2024-11-06T07:00:00	1	Precipitación	0
87992	7	Sololá	702	San José Chacayá	5	Chacayá	4	Abril	2023-04-04T00:00:00	2024-11-06T07:00:00	8	Radiación solar	0
87993	7	Sololá	702	San José Chacayá	5	Chacayá	4	Abril	2023-04-04T00:00:00	2024-11-06T08:00:00	2	Temperatura media	8.1
87994	7	Sololá	702	San José Chacayá	5	Chacayá	4	Abril	2023-04-04T00:00:00	2024-11-06T08:00:00	4	Temperatura máxima	8.1
87995	7	Sololá	702	San José Chacayá	5	Chacayá	4	Abril	2023-04-04T00:00:00	2024-11-06T08:00:00	3	Temperatura mínima	6.4
87996	7	Sololá	702	San José Chacayá	5	Chacayá	4	Abril	2023-04-04T00:00:00	2024-11-06T08:00:00	5	Humedad	91
87997	7	Sololá	702	San José Chacayá	5	Chacayá	4	Abril	2023-04-04T00:00:00	2024-11-06T08:00:00	6	Velocidad del viento	1.6
87998	7	Sololá	702	San José Chacayá	5	Chacayá	4	Abril	2023-04-04T00:00:00	2024-11-06T08:00:00	7	Dirección del viento	1.61
87999	7	Sololá	702	San José Chacayá	5	Chacayá	4	Abril	2023-04-04T00:00:00	2024-11-06T08:00:00	1	Precipitación	0
88000	7	Sololá	702	San José Chacayá	5	Chacayá	4	Abril	2023-04-04T00:00:00	2024-11-06T08:00:00	8	Radiación solar	19
88001	7	Sololá	702	San José Chacayá	5	Chacayá	4	Abril	2023-04-04T00:00:00	2024-11-06T09:00:00	2	Temperatura media	13.6
88002	7	Sololá	702	San José Chacayá	5	Chacayá	4	Abril	2023-04-04T00:00:00	2024-11-06T09:00:00	4	Temperatura máxima	13.6
88003	7	Sololá	702	San José Chacayá	5	Chacayá	4	Abril	2023-04-04T00:00:00	2024-11-06T09:00:00	3	Temperatura mínima	8.1
88004	7	Sololá	702	San José Chacayá	5	Chacayá	4	Abril	2023-04-04T00:00:00	2024-11-06T09:00:00	5	Humedad	79
88005	7	Sololá	702	San José Chacayá	5	Chacayá	4	Abril	2023-04-04T00:00:00	2024-11-06T09:00:00	6	Velocidad del viento	1.6
88006	7	Sololá	702	San José Chacayá	5	Chacayá	4	Abril	2023-04-04T00:00:00	2024-11-06T09:00:00	7	Dirección del viento	1.61
88007	7	Sololá	702	San José Chacayá	5	Chacayá	4	Abril	2023-04-04T00:00:00	2024-11-06T09:00:00	1	Precipitación	0
88008	7	Sololá	702	San José Chacayá	5	Chacayá	4	Abril	2023-04-04T00:00:00	2024-11-06T09:00:00	8	Radiación solar	41
88009	7	Sololá	702	San José Chacayá	5	Chacayá	4	Abril	2023-04-04T00:00:00	2024-11-06T10:00:00	2	Temperatura media	16.6
88010	7	Sololá	702	San José Chacayá	5	Chacayá	4	Abril	2023-04-04T00:00:00	2024-11-06T10:00:00	4	Temperatura máxima	16.7
88011	7	Sololá	702	San José Chacayá	5	Chacayá	4	Abril	2023-04-04T00:00:00	2024-11-06T10:00:00	3	Temperatura mínima	13.6
88012	7	Sololá	702	San José Chacayá	5	Chacayá	4	Abril	2023-04-04T00:00:00	2024-11-06T10:00:00	5	Humedad	76
88013	7	Sololá	702	San José Chacayá	5	Chacayá	4	Abril	2023-04-04T00:00:00	2024-11-06T10:00:00	6	Velocidad del viento	4.8
88014	7	Sololá	702	San José Chacayá	5	Chacayá	4	Abril	2023-04-04T00:00:00	2024-11-06T10:00:00	7	Dirección del viento	4.83
88015	7	Sololá	702	San José Chacayá	5	Chacayá	4	Abril	2023-04-04T00:00:00	2024-11-06T10:00:00	1	Precipitación	0
88016	7	Sololá	702	San José Chacayá	5	Chacayá	4	Abril	2023-04-04T00:00:00	2024-11-06T10:00:00	8	Radiación solar	467
88017	7	Sololá	702	San José Chacayá	5	Chacayá	4	Abril	2023-04-04T00:00:00	2024-11-06T11:00:00	2	Temperatura media	19.4
88018	7	Sololá	702	San José Chacayá	5	Chacayá	4	Abril	2023-04-04T00:00:00	2024-11-06T11:00:00	4	Temperatura máxima	19.4
88019	7	Sololá	702	San José Chacayá	5	Chacayá	4	Abril	2023-04-04T00:00:00	2024-11-06T11:00:00	3	Temperatura mínima	16.2
88020	7	Sololá	702	San José Chacayá	5	Chacayá	4	Abril	2023-04-04T00:00:00	2024-11-06T11:00:00	5	Humedad	66
88021	7	Sololá	702	San José Chacayá	5	Chacayá	4	Abril	2023-04-04T00:00:00	2024-11-06T11:00:00	6	Velocidad del viento	4.8
88022	7	Sololá	702	San José Chacayá	5	Chacayá	4	Abril	2023-04-04T00:00:00	2024-11-06T11:00:00	7	Dirección del viento	4.83
88023	7	Sololá	702	San José Chacayá	5	Chacayá	4	Abril	2023-04-04T00:00:00	2024-11-06T11:00:00	1	Precipitación	0
88024	7	Sololá	702	San José Chacayá	5	Chacayá	4	Abril	2023-04-04T00:00:00	2024-11-06T11:00:00	8	Radiación solar	768
88025	7	Sololá	702	San José Chacayá	5	Chacayá	4	Abril	2023-04-04T00:00:00	2024-11-06T12:00:00	2	Temperatura media	20.4
88026	7	Sololá	702	San José Chacayá	5	Chacayá	4	Abril	2023-04-04T00:00:00	2024-11-06T12:00:00	4	Temperatura máxima	20.4
88027	7	Sololá	702	San José Chacayá	5	Chacayá	4	Abril	2023-04-04T00:00:00	2024-11-06T12:00:00	3	Temperatura mínima	19.3
88028	7	Sololá	702	San José Chacayá	5	Chacayá	4	Abril	2023-04-04T00:00:00	2024-11-06T12:00:00	5	Humedad	61
88029	7	Sololá	702	San José Chacayá	5	Chacayá	4	Abril	2023-04-04T00:00:00	2024-11-06T12:00:00	6	Velocidad del viento	4.8
88030	7	Sololá	702	San José Chacayá	5	Chacayá	4	Abril	2023-04-04T00:00:00	2024-11-06T12:00:00	7	Dirección del viento	4.83
88031	7	Sololá	702	San José Chacayá	5	Chacayá	4	Abril	2023-04-04T00:00:00	2024-11-06T12:00:00	1	Precipitación	0
88032	7	Sololá	702	San José Chacayá	5	Chacayá	4	Abril	2023-04-04T00:00:00	2024-11-06T12:00:00	8	Radiación solar	893
88033	7	Sololá	702	San José Chacayá	5	Chacayá	4	Abril	2023-04-04T00:00:00	2024-11-06T13:00:00	2	Temperatura media	21.5
88034	7	Sololá	702	San José Chacayá	5	Chacayá	4	Abril	2023-04-04T00:00:00	2024-11-06T13:00:00	4	Temperatura máxima	21.8
88035	7	Sololá	702	San José Chacayá	5	Chacayá	4	Abril	2023-04-04T00:00:00	2024-11-06T13:00:00	3	Temperatura mínima	20.4
88036	7	Sololá	702	San José Chacayá	5	Chacayá	4	Abril	2023-04-04T00:00:00	2024-11-06T13:00:00	5	Humedad	59
88037	7	Sololá	702	San José Chacayá	5	Chacayá	4	Abril	2023-04-04T00:00:00	2024-11-06T13:00:00	6	Velocidad del viento	6.4
88038	7	Sololá	702	San José Chacayá	5	Chacayá	4	Abril	2023-04-04T00:00:00	2024-11-06T13:00:00	7	Dirección del viento	6.44
88039	7	Sololá	702	San José Chacayá	5	Chacayá	4	Abril	2023-04-04T00:00:00	2024-11-06T13:00:00	1	Precipitación	0
88040	7	Sololá	702	San José Chacayá	5	Chacayá	4	Abril	2023-04-04T00:00:00	2024-11-06T13:00:00	8	Radiación solar	500
88041	7	Sololá	702	San José Chacayá	5	Chacayá	4	Abril	2023-04-04T00:00:00	2024-11-06T14:00:00	2	Temperatura media	21.2
88042	7	Sololá	702	San José Chacayá	5	Chacayá	4	Abril	2023-04-04T00:00:00	2024-11-06T14:00:00	4	Temperatura máxima	22.1
88043	7	Sololá	702	San José Chacayá	5	Chacayá	4	Abril	2023-04-04T00:00:00	2024-11-06T14:00:00	3	Temperatura mínima	21.2
88044	7	Sololá	702	San José Chacayá	5	Chacayá	4	Abril	2023-04-04T00:00:00	2024-11-06T14:00:00	5	Humedad	65
88045	7	Sololá	702	San José Chacayá	5	Chacayá	4	Abril	2023-04-04T00:00:00	2024-11-06T14:00:00	6	Velocidad del viento	4.8
88046	7	Sololá	702	San José Chacayá	5	Chacayá	4	Abril	2023-04-04T00:00:00	2024-11-06T14:00:00	7	Dirección del viento	4.83
88047	7	Sololá	702	San José Chacayá	5	Chacayá	4	Abril	2023-04-04T00:00:00	2024-11-06T14:00:00	1	Precipitación	0
88048	7	Sololá	702	San José Chacayá	5	Chacayá	4	Abril	2023-04-04T00:00:00	2024-11-06T14:00:00	8	Radiación solar	973
88049	7	Sololá	702	San José Chacayá	5	Chacayá	4	Abril	2023-04-04T00:00:00	2024-11-06T15:00:00	2	Temperatura media	20.9
88050	7	Sololá	702	San José Chacayá	5	Chacayá	4	Abril	2023-04-04T00:00:00	2024-11-06T15:00:00	4	Temperatura máxima	21.7
88051	7	Sololá	702	San José Chacayá	5	Chacayá	4	Abril	2023-04-04T00:00:00	2024-11-06T15:00:00	3	Temperatura mínima	20.8
88052	7	Sololá	702	San José Chacayá	5	Chacayá	4	Abril	2023-04-04T00:00:00	2024-11-06T15:00:00	5	Humedad	67
88053	7	Sololá	702	San José Chacayá	5	Chacayá	4	Abril	2023-04-04T00:00:00	2024-11-06T15:00:00	6	Velocidad del viento	6.4
88054	7	Sololá	702	San José Chacayá	5	Chacayá	4	Abril	2023-04-04T00:00:00	2024-11-06T15:00:00	7	Dirección del viento	6.44
88055	7	Sololá	702	San José Chacayá	5	Chacayá	4	Abril	2023-04-04T00:00:00	2024-11-06T15:00:00	1	Precipitación	0
88056	7	Sololá	702	San José Chacayá	5	Chacayá	4	Abril	2023-04-04T00:00:00	2024-11-06T15:00:00	8	Radiación solar	359
88057	7	Sololá	702	San José Chacayá	5	Chacayá	4	Abril	2023-04-04T00:00:00	2024-11-06T16:00:00	2	Temperatura media	18.5
88058	7	Sololá	702	San José Chacayá	5	Chacayá	4	Abril	2023-04-04T00:00:00	2024-11-06T16:00:00	4	Temperatura máxima	20.9
88059	7	Sololá	702	San José Chacayá	5	Chacayá	4	Abril	2023-04-04T00:00:00	2024-11-06T16:00:00	3	Temperatura mínima	18.4
88060	7	Sololá	702	San José Chacayá	5	Chacayá	4	Abril	2023-04-04T00:00:00	2024-11-06T16:00:00	5	Humedad	77
88061	7	Sololá	702	San José Chacayá	5	Chacayá	4	Abril	2023-04-04T00:00:00	2024-11-06T16:00:00	6	Velocidad del viento	6.4
88062	7	Sololá	702	San José Chacayá	5	Chacayá	4	Abril	2023-04-04T00:00:00	2024-11-06T16:00:00	7	Dirección del viento	6.44
88063	7	Sololá	702	San José Chacayá	5	Chacayá	4	Abril	2023-04-04T00:00:00	2024-11-06T16:00:00	1	Precipitación	0
88064	7	Sololá	702	San José Chacayá	5	Chacayá	4	Abril	2023-04-04T00:00:00	2024-11-06T16:00:00	8	Radiación solar	116
88065	7	Sololá	702	San José Chacayá	5	Chacayá	4	Abril	2023-04-04T00:00:00	2024-11-06T17:00:00	2	Temperatura media	17.4
88066	7	Sololá	702	San José Chacayá	5	Chacayá	4	Abril	2023-04-04T00:00:00	2024-11-06T17:00:00	4	Temperatura máxima	19.1
88067	7	Sololá	702	San José Chacayá	5	Chacayá	4	Abril	2023-04-04T00:00:00	2024-11-06T17:00:00	3	Temperatura mínima	17.3
88068	7	Sololá	702	San José Chacayá	5	Chacayá	4	Abril	2023-04-04T00:00:00	2024-11-06T17:00:00	5	Humedad	82
88069	7	Sololá	702	San José Chacayá	5	Chacayá	4	Abril	2023-04-04T00:00:00	2024-11-06T17:00:00	6	Velocidad del viento	3.2
88070	7	Sololá	702	San José Chacayá	5	Chacayá	4	Abril	2023-04-04T00:00:00	2024-11-06T17:00:00	7	Dirección del viento	3.22
88071	7	Sololá	702	San José Chacayá	5	Chacayá	4	Abril	2023-04-04T00:00:00	2024-11-06T17:00:00	1	Precipitación	0
88072	7	Sololá	702	San José Chacayá	5	Chacayá	4	Abril	2023-04-04T00:00:00	2024-11-06T17:00:00	8	Radiación solar	44
88073	7	Sololá	702	San José Chacayá	5	Chacayá	4	Abril	2023-04-04T00:00:00	2024-11-06T18:00:00	2	Temperatura media	16.9
88074	7	Sololá	702	San José Chacayá	5	Chacayá	4	Abril	2023-04-04T00:00:00	2024-11-06T18:00:00	4	Temperatura máxima	17.4
88075	7	Sololá	702	San José Chacayá	5	Chacayá	4	Abril	2023-04-04T00:00:00	2024-11-06T18:00:00	3	Temperatura mínima	16.9
88076	7	Sololá	702	San José Chacayá	5	Chacayá	4	Abril	2023-04-04T00:00:00	2024-11-06T18:00:00	5	Humedad	85
88077	7	Sololá	702	San José Chacayá	5	Chacayá	4	Abril	2023-04-04T00:00:00	2024-11-06T18:00:00	6	Velocidad del viento	3.2
88078	7	Sololá	702	San José Chacayá	5	Chacayá	4	Abril	2023-04-04T00:00:00	2024-11-06T18:00:00	7	Dirección del viento	3.22
88079	7	Sololá	702	San José Chacayá	5	Chacayá	4	Abril	2023-04-04T00:00:00	2024-11-06T18:00:00	1	Precipitación	0
88080	7	Sololá	702	San José Chacayá	5	Chacayá	4	Abril	2023-04-04T00:00:00	2024-11-06T18:00:00	8	Radiación solar	30
88081	7	Sololá	702	San José Chacayá	5	Chacayá	4	Abril	2023-04-04T00:00:00	2024-11-06T19:00:00	2	Temperatura media	16.1
88082	7	Sololá	702	San José Chacayá	5	Chacayá	4	Abril	2023-04-04T00:00:00	2024-11-06T19:00:00	4	Temperatura máxima	17.1
88083	7	Sololá	702	San José Chacayá	5	Chacayá	4	Abril	2023-04-04T00:00:00	2024-11-06T19:00:00	3	Temperatura mínima	16.1
88084	7	Sololá	702	San José Chacayá	5	Chacayá	4	Abril	2023-04-04T00:00:00	2024-11-06T19:00:00	5	Humedad	87
88085	7	Sololá	702	San José Chacayá	5	Chacayá	4	Abril	2023-04-04T00:00:00	2024-11-06T19:00:00	6	Velocidad del viento	3.2
88086	7	Sololá	702	San José Chacayá	5	Chacayá	4	Abril	2023-04-04T00:00:00	2024-11-06T19:00:00	7	Dirección del viento	3.22
88087	7	Sololá	702	San José Chacayá	5	Chacayá	4	Abril	2023-04-04T00:00:00	2024-11-06T19:00:00	1	Precipitación	0
88088	7	Sololá	702	San José Chacayá	5	Chacayá	4	Abril	2023-04-04T00:00:00	2024-11-06T19:00:00	8	Radiación solar	0
88089	7	Sololá	702	San José Chacayá	5	Chacayá	4	Abril	2023-04-04T00:00:00	2024-11-06T20:00:00	2	Temperatura media	15.5
88090	7	Sololá	702	San José Chacayá	5	Chacayá	4	Abril	2023-04-04T00:00:00	2024-11-06T20:00:00	4	Temperatura máxima	16.1
88091	7	Sololá	702	San José Chacayá	5	Chacayá	4	Abril	2023-04-04T00:00:00	2024-11-06T20:00:00	3	Temperatura mínima	15.5
88092	7	Sololá	702	San José Chacayá	5	Chacayá	4	Abril	2023-04-04T00:00:00	2024-11-06T20:00:00	5	Humedad	91
88093	7	Sololá	702	San José Chacayá	5	Chacayá	4	Abril	2023-04-04T00:00:00	2024-11-06T20:00:00	6	Velocidad del viento	1.6
88094	7	Sololá	702	San José Chacayá	5	Chacayá	4	Abril	2023-04-04T00:00:00	2024-11-06T20:00:00	7	Dirección del viento	1.61
88095	7	Sololá	702	San José Chacayá	5	Chacayá	4	Abril	2023-04-04T00:00:00	2024-11-06T20:00:00	1	Precipitación	0
88096	7	Sololá	702	San José Chacayá	5	Chacayá	4	Abril	2023-04-04T00:00:00	2024-11-06T20:00:00	8	Radiación solar	0
88097	7	Sololá	702	San José Chacayá	5	Chacayá	4	Abril	2023-04-04T00:00:00	2024-11-06T21:00:00	2	Temperatura media	15.2
88098	7	Sololá	702	San José Chacayá	5	Chacayá	4	Abril	2023-04-04T00:00:00	2024-11-06T21:00:00	4	Temperatura máxima	15.5
88099	7	Sololá	702	San José Chacayá	5	Chacayá	4	Abril	2023-04-04T00:00:00	2024-11-06T21:00:00	3	Temperatura mínima	15.2
88100	7	Sololá	702	San José Chacayá	5	Chacayá	4	Abril	2023-04-04T00:00:00	2024-11-06T21:00:00	5	Humedad	91
88101	7	Sololá	702	San José Chacayá	5	Chacayá	4	Abril	2023-04-04T00:00:00	2024-11-06T21:00:00	6	Velocidad del viento	0
88102	7	Sololá	702	San José Chacayá	5	Chacayá	4	Abril	2023-04-04T00:00:00	2024-11-06T21:00:00	7	Dirección del viento	0
88103	7	Sololá	702	San José Chacayá	5	Chacayá	4	Abril	2023-04-04T00:00:00	2024-11-06T21:00:00	1	Precipitación	0
88104	7	Sololá	702	San José Chacayá	5	Chacayá	4	Abril	2023-04-04T00:00:00	2024-11-06T21:00:00	8	Radiación solar	0
88105	7	Sololá	702	San José Chacayá	5	Chacayá	4	Abril	2023-04-04T00:00:00	2024-11-06T22:00:00	2	Temperatura media	13.3
88106	7	Sololá	702	San José Chacayá	5	Chacayá	4	Abril	2023-04-04T00:00:00	2024-11-06T22:00:00	4	Temperatura máxima	15.2
88107	7	Sololá	702	San José Chacayá	5	Chacayá	4	Abril	2023-04-04T00:00:00	2024-11-06T22:00:00	3	Temperatura mínima	13.3
88108	7	Sololá	702	San José Chacayá	5	Chacayá	4	Abril	2023-04-04T00:00:00	2024-11-06T22:00:00	5	Humedad	91
88109	7	Sololá	702	San José Chacayá	5	Chacayá	4	Abril	2023-04-04T00:00:00	2024-11-06T22:00:00	6	Velocidad del viento	0
88110	7	Sololá	702	San José Chacayá	5	Chacayá	4	Abril	2023-04-04T00:00:00	2024-11-06T22:00:00	7	Dirección del viento	0
88111	7	Sololá	702	San José Chacayá	5	Chacayá	4	Abril	2023-04-04T00:00:00	2024-11-06T22:00:00	1	Precipitación	0
88112	7	Sololá	702	San José Chacayá	5	Chacayá	4	Abril	2023-04-04T00:00:00	2024-11-06T22:00:00	8	Radiación solar	0
88113	7	Sololá	702	San José Chacayá	5	Chacayá	4	Abril	2023-04-04T00:00:00	2024-11-06T23:00:00	2	Temperatura media	12.2
88114	7	Sololá	702	San José Chacayá	5	Chacayá	4	Abril	2023-04-04T00:00:00	2024-11-06T23:00:00	4	Temperatura máxima	13.4
88115	7	Sololá	702	San José Chacayá	5	Chacayá	4	Abril	2023-04-04T00:00:00	2024-11-06T23:00:00	3	Temperatura mínima	12.2
88116	7	Sololá	702	San José Chacayá	5	Chacayá	4	Abril	2023-04-04T00:00:00	2024-11-06T23:00:00	5	Humedad	93
88117	7	Sololá	702	San José Chacayá	5	Chacayá	4	Abril	2023-04-04T00:00:00	2024-11-06T23:00:00	6	Velocidad del viento	1.6
88118	7	Sololá	702	San José Chacayá	5	Chacayá	4	Abril	2023-04-04T00:00:00	2024-11-06T23:00:00	7	Dirección del viento	1.61
88119	7	Sololá	702	San José Chacayá	5	Chacayá	4	Abril	2023-04-04T00:00:00	2024-11-06T23:00:00	1	Precipitación	0
88120	7	Sololá	702	San José Chacayá	5	Chacayá	4	Abril	2023-04-04T00:00:00	2024-11-06T23:00:00	8	Radiación solar	0
88121	7	Sololá	702	San José Chacayá	5	Chacayá	4	Abril	2023-05-04T00:00:00	2024-11-06T00:00:00	2	Temperatura media	11.5
88122	7	Sololá	702	San José Chacayá	5	Chacayá	4	Abril	2023-05-04T00:00:00	2024-11-06T00:00:00	4	Temperatura máxima	12.2
88123	7	Sololá	702	San José Chacayá	5	Chacayá	4	Abril	2023-05-04T00:00:00	2024-11-06T00:00:00	3	Temperatura mínima	11.5
88124	7	Sololá	702	San José Chacayá	5	Chacayá	4	Abril	2023-05-04T00:00:00	2024-11-06T00:00:00	5	Humedad	93
88125	7	Sololá	702	San José Chacayá	5	Chacayá	4	Abril	2023-05-04T00:00:00	2024-11-06T00:00:00	6	Velocidad del viento	1.6
88126	7	Sololá	702	San José Chacayá	5	Chacayá	4	Abril	2023-05-04T00:00:00	2024-11-06T00:00:00	7	Dirección del viento	1.61
88127	7	Sololá	702	San José Chacayá	5	Chacayá	4	Abril	2023-05-04T00:00:00	2024-11-06T00:00:00	1	Precipitación	0
88128	7	Sololá	702	San José Chacayá	5	Chacayá	4	Abril	2023-05-04T00:00:00	2024-11-06T00:00:00	8	Radiación solar	0
88129	7	Sololá	702	San José Chacayá	5	Chacayá	4	Abril	2023-05-04T00:00:00	2024-11-06T01:00:00	2	Temperatura media	10.8
88130	7	Sololá	702	San José Chacayá	5	Chacayá	4	Abril	2023-05-04T00:00:00	2024-11-06T01:00:00	4	Temperatura máxima	11.6
88131	7	Sololá	702	San José Chacayá	5	Chacayá	4	Abril	2023-05-04T00:00:00	2024-11-06T01:00:00	3	Temperatura mínima	10.8
88132	7	Sololá	702	San José Chacayá	5	Chacayá	4	Abril	2023-05-04T00:00:00	2024-11-06T01:00:00	5	Humedad	93
88133	7	Sololá	702	San José Chacayá	5	Chacayá	4	Abril	2023-05-04T00:00:00	2024-11-06T01:00:00	6	Velocidad del viento	0
88134	7	Sololá	702	San José Chacayá	5	Chacayá	4	Abril	2023-05-04T00:00:00	2024-11-06T01:00:00	7	Dirección del viento	0
88135	7	Sololá	702	San José Chacayá	5	Chacayá	4	Abril	2023-05-04T00:00:00	2024-11-06T01:00:00	1	Precipitación	0
88136	7	Sololá	702	San José Chacayá	5	Chacayá	4	Abril	2023-05-04T00:00:00	2024-11-06T01:00:00	8	Radiación solar	0
88137	7	Sololá	702	San José Chacayá	5	Chacayá	4	Abril	2023-05-04T00:00:00	2024-11-06T02:00:00	2	Temperatura media	10.4
88138	7	Sololá	702	San José Chacayá	5	Chacayá	4	Abril	2023-05-04T00:00:00	2024-11-06T02:00:00	4	Temperatura máxima	10.8
88139	7	Sololá	702	San José Chacayá	5	Chacayá	4	Abril	2023-05-04T00:00:00	2024-11-06T02:00:00	3	Temperatura mínima	10.3
88140	7	Sololá	702	San José Chacayá	5	Chacayá	4	Abril	2023-05-04T00:00:00	2024-11-06T02:00:00	5	Humedad	93
88141	7	Sololá	702	San José Chacayá	5	Chacayá	4	Abril	2023-05-04T00:00:00	2024-11-06T02:00:00	6	Velocidad del viento	1.6
88142	7	Sololá	702	San José Chacayá	5	Chacayá	4	Abril	2023-05-04T00:00:00	2024-11-06T02:00:00	7	Dirección del viento	1.61
88143	7	Sololá	702	San José Chacayá	5	Chacayá	4	Abril	2023-05-04T00:00:00	2024-11-06T02:00:00	1	Precipitación	0
88144	7	Sololá	702	San José Chacayá	5	Chacayá	4	Abril	2023-05-04T00:00:00	2024-11-06T02:00:00	8	Radiación solar	0
88145	7	Sololá	702	San José Chacayá	5	Chacayá	4	Abril	2023-05-04T00:00:00	2024-11-06T03:00:00	2	Temperatura media	9.8
88146	7	Sololá	702	San José Chacayá	5	Chacayá	4	Abril	2023-05-04T00:00:00	2024-11-06T03:00:00	4	Temperatura máxima	10.4
88147	7	Sololá	702	San José Chacayá	5	Chacayá	4	Abril	2023-05-04T00:00:00	2024-11-06T03:00:00	3	Temperatura mínima	9.8
88148	7	Sololá	702	San José Chacayá	5	Chacayá	4	Abril	2023-05-04T00:00:00	2024-11-06T03:00:00	5	Humedad	94
88149	7	Sololá	702	San José Chacayá	5	Chacayá	4	Abril	2023-05-04T00:00:00	2024-11-06T03:00:00	6	Velocidad del viento	0
88150	7	Sololá	702	San José Chacayá	5	Chacayá	4	Abril	2023-05-04T00:00:00	2024-11-06T03:00:00	7	Dirección del viento	0
88151	7	Sololá	702	San José Chacayá	5	Chacayá	4	Abril	2023-05-04T00:00:00	2024-11-06T03:00:00	1	Precipitación	0
88152	7	Sololá	702	San José Chacayá	5	Chacayá	4	Abril	2023-05-04T00:00:00	2024-11-06T03:00:00	8	Radiación solar	0
88153	7	Sololá	702	San José Chacayá	5	Chacayá	4	Abril	2023-05-04T00:00:00	2024-11-06T04:00:00	2	Temperatura media	9.3
88154	7	Sololá	702	San José Chacayá	5	Chacayá	4	Abril	2023-05-04T00:00:00	2024-11-06T04:00:00	4	Temperatura máxima	9.8
88155	7	Sololá	702	San José Chacayá	5	Chacayá	4	Abril	2023-05-04T00:00:00	2024-11-06T04:00:00	3	Temperatura mínima	9.3
88156	7	Sololá	702	San José Chacayá	5	Chacayá	4	Abril	2023-05-04T00:00:00	2024-11-06T04:00:00	5	Humedad	93
88157	7	Sololá	702	San José Chacayá	5	Chacayá	4	Abril	2023-05-04T00:00:00	2024-11-06T04:00:00	6	Velocidad del viento	1.6
88158	7	Sololá	702	San José Chacayá	5	Chacayá	4	Abril	2023-05-04T00:00:00	2024-11-06T04:00:00	7	Dirección del viento	1.61
88159	7	Sololá	702	San José Chacayá	5	Chacayá	4	Abril	2023-05-04T00:00:00	2024-11-06T04:00:00	1	Precipitación	0
88160	7	Sololá	702	San José Chacayá	5	Chacayá	4	Abril	2023-05-04T00:00:00	2024-11-06T04:00:00	8	Radiación solar	0
88161	7	Sololá	702	San José Chacayá	5	Chacayá	4	Abril	2023-05-04T00:00:00	2024-11-06T05:00:00	2	Temperatura media	8.9
88162	7	Sololá	702	San José Chacayá	5	Chacayá	4	Abril	2023-05-04T00:00:00	2024-11-06T05:00:00	4	Temperatura máxima	9.4
88163	7	Sololá	702	San José Chacayá	5	Chacayá	4	Abril	2023-05-04T00:00:00	2024-11-06T05:00:00	3	Temperatura mínima	8.8
88164	7	Sololá	702	San José Chacayá	5	Chacayá	4	Abril	2023-05-04T00:00:00	2024-11-06T05:00:00	5	Humedad	92
88165	7	Sololá	702	San José Chacayá	5	Chacayá	4	Abril	2023-05-04T00:00:00	2024-11-06T05:00:00	6	Velocidad del viento	1.6
88166	7	Sololá	702	San José Chacayá	5	Chacayá	4	Abril	2023-05-04T00:00:00	2024-11-06T05:00:00	7	Dirección del viento	1.61
88167	7	Sololá	702	San José Chacayá	5	Chacayá	4	Abril	2023-05-04T00:00:00	2024-11-06T05:00:00	1	Precipitación	0
88168	7	Sololá	702	San José Chacayá	5	Chacayá	4	Abril	2023-05-04T00:00:00	2024-11-06T05:00:00	8	Radiación solar	0
88169	7	Sololá	702	San José Chacayá	5	Chacayá	4	Abril	2023-05-04T00:00:00	2024-11-06T06:00:00	2	Temperatura media	8.1
88170	7	Sololá	702	San José Chacayá	5	Chacayá	4	Abril	2023-05-04T00:00:00	2024-11-06T06:00:00	4	Temperatura máxima	8.8
88171	7	Sololá	702	San José Chacayá	5	Chacayá	4	Abril	2023-05-04T00:00:00	2024-11-06T06:00:00	3	Temperatura mínima	8
88172	7	Sololá	702	San José Chacayá	5	Chacayá	4	Abril	2023-05-04T00:00:00	2024-11-06T06:00:00	5	Humedad	93
88173	7	Sololá	702	San José Chacayá	5	Chacayá	4	Abril	2023-05-04T00:00:00	2024-11-06T06:00:00	6	Velocidad del viento	1.6
88174	7	Sololá	702	San José Chacayá	5	Chacayá	4	Abril	2023-05-04T00:00:00	2024-11-06T06:00:00	7	Dirección del viento	1.61
88175	7	Sololá	702	San José Chacayá	5	Chacayá	4	Abril	2023-05-04T00:00:00	2024-11-06T06:00:00	1	Precipitación	0
88176	7	Sololá	702	San José Chacayá	5	Chacayá	4	Abril	2023-05-04T00:00:00	2024-11-06T06:00:00	8	Radiación solar	0
88177	7	Sololá	702	San José Chacayá	5	Chacayá	4	Abril	2023-05-04T00:00:00	2024-11-06T07:00:00	2	Temperatura media	7.6
88178	7	Sololá	702	San José Chacayá	5	Chacayá	4	Abril	2023-05-04T00:00:00	2024-11-06T07:00:00	4	Temperatura máxima	8.2
88179	7	Sololá	702	San José Chacayá	5	Chacayá	4	Abril	2023-05-04T00:00:00	2024-11-06T07:00:00	3	Temperatura mínima	7.6
88180	7	Sololá	702	San José Chacayá	5	Chacayá	4	Abril	2023-05-04T00:00:00	2024-11-06T07:00:00	5	Humedad	93
88181	7	Sololá	702	San José Chacayá	5	Chacayá	4	Abril	2023-05-04T00:00:00	2024-11-06T07:00:00	6	Velocidad del viento	1.6
88182	7	Sololá	702	San José Chacayá	5	Chacayá	4	Abril	2023-05-04T00:00:00	2024-11-06T07:00:00	7	Dirección del viento	1.61
88183	7	Sololá	702	San José Chacayá	5	Chacayá	4	Abril	2023-05-04T00:00:00	2024-11-06T07:00:00	1	Precipitación	0
88184	7	Sololá	702	San José Chacayá	5	Chacayá	4	Abril	2023-05-04T00:00:00	2024-11-06T07:00:00	8	Radiación solar	0
88185	7	Sololá	702	San José Chacayá	5	Chacayá	4	Abril	2023-05-04T00:00:00	2024-11-06T08:00:00	2	Temperatura media	9.2
88186	7	Sololá	702	San José Chacayá	5	Chacayá	4	Abril	2023-05-04T00:00:00	2024-11-06T08:00:00	4	Temperatura máxima	9.2
88187	7	Sololá	702	San José Chacayá	5	Chacayá	4	Abril	2023-05-04T00:00:00	2024-11-06T08:00:00	3	Temperatura mínima	7.6
88188	7	Sololá	702	San José Chacayá	5	Chacayá	4	Abril	2023-05-04T00:00:00	2024-11-06T08:00:00	5	Humedad	92
88189	7	Sololá	702	San José Chacayá	5	Chacayá	4	Abril	2023-05-04T00:00:00	2024-11-06T08:00:00	6	Velocidad del viento	1.6
88190	7	Sololá	702	San José Chacayá	5	Chacayá	4	Abril	2023-05-04T00:00:00	2024-11-06T08:00:00	7	Dirección del viento	1.61
88191	7	Sololá	702	San José Chacayá	5	Chacayá	4	Abril	2023-05-04T00:00:00	2024-11-06T08:00:00	1	Precipitación	0
88192	7	Sololá	702	San José Chacayá	5	Chacayá	4	Abril	2023-05-04T00:00:00	2024-11-06T08:00:00	8	Radiación solar	26
88193	7	Sololá	702	San José Chacayá	5	Chacayá	4	Abril	2023-05-04T00:00:00	2024-11-06T09:00:00	2	Temperatura media	14.2
88194	7	Sololá	702	San José Chacayá	5	Chacayá	4	Abril	2023-05-04T00:00:00	2024-11-06T09:00:00	4	Temperatura máxima	14.2
88195	7	Sololá	702	San José Chacayá	5	Chacayá	4	Abril	2023-05-04T00:00:00	2024-11-06T09:00:00	3	Temperatura mínima	9.2
88196	7	Sololá	702	San José Chacayá	5	Chacayá	4	Abril	2023-05-04T00:00:00	2024-11-06T09:00:00	5	Humedad	76
88197	7	Sololá	702	San José Chacayá	5	Chacayá	4	Abril	2023-05-04T00:00:00	2024-11-06T09:00:00	6	Velocidad del viento	1.6
88198	7	Sololá	702	San José Chacayá	5	Chacayá	4	Abril	2023-05-04T00:00:00	2024-11-06T09:00:00	7	Dirección del viento	1.61
88199	7	Sololá	702	San José Chacayá	5	Chacayá	4	Abril	2023-05-04T00:00:00	2024-11-06T09:00:00	1	Precipitación	0
88200	7	Sololá	702	San José Chacayá	5	Chacayá	4	Abril	2023-05-04T00:00:00	2024-11-06T09:00:00	8	Radiación solar	61
88201	7	Sololá	702	San José Chacayá	5	Chacayá	4	Abril	2023-05-04T00:00:00	2024-11-06T10:00:00	2	Temperatura media	18.7
88202	7	Sololá	702	San José Chacayá	5	Chacayá	4	Abril	2023-05-04T00:00:00	2024-11-06T10:00:00	4	Temperatura máxima	18.8
88203	7	Sololá	702	San José Chacayá	5	Chacayá	4	Abril	2023-05-04T00:00:00	2024-11-06T10:00:00	3	Temperatura mínima	14.2
88204	7	Sololá	702	San José Chacayá	5	Chacayá	4	Abril	2023-05-04T00:00:00	2024-11-06T10:00:00	5	Humedad	68
88205	7	Sololá	702	San José Chacayá	5	Chacayá	4	Abril	2023-05-04T00:00:00	2024-11-06T10:00:00	6	Velocidad del viento	3.2
88206	7	Sololá	702	San José Chacayá	5	Chacayá	4	Abril	2023-05-04T00:00:00	2024-11-06T10:00:00	7	Dirección del viento	3.22
88207	7	Sololá	702	San José Chacayá	5	Chacayá	4	Abril	2023-05-04T00:00:00	2024-11-06T10:00:00	1	Precipitación	0
88208	7	Sololá	702	San José Chacayá	5	Chacayá	4	Abril	2023-05-04T00:00:00	2024-11-06T10:00:00	8	Radiación solar	412
88209	7	Sololá	702	San José Chacayá	5	Chacayá	4	Abril	2023-05-04T00:00:00	2024-11-06T11:00:00	2	Temperatura media	21.3
88210	7	Sololá	702	San José Chacayá	5	Chacayá	4	Abril	2023-05-04T00:00:00	2024-11-06T11:00:00	4	Temperatura máxima	21.3
88211	7	Sololá	702	San José Chacayá	5	Chacayá	4	Abril	2023-05-04T00:00:00	2024-11-06T11:00:00	3	Temperatura mínima	18.8
88212	7	Sololá	702	San José Chacayá	5	Chacayá	4	Abril	2023-05-04T00:00:00	2024-11-06T11:00:00	5	Humedad	58
88213	7	Sololá	702	San José Chacayá	5	Chacayá	4	Abril	2023-05-04T00:00:00	2024-11-06T11:00:00	6	Velocidad del viento	4.8
88214	7	Sololá	702	San José Chacayá	5	Chacayá	4	Abril	2023-05-04T00:00:00	2024-11-06T11:00:00	7	Dirección del viento	4.83
88215	7	Sololá	702	San José Chacayá	5	Chacayá	4	Abril	2023-05-04T00:00:00	2024-11-06T11:00:00	1	Precipitación	0
88216	7	Sololá	702	San José Chacayá	5	Chacayá	4	Abril	2023-05-04T00:00:00	2024-11-06T11:00:00	8	Radiación solar	731
88217	7	Sololá	702	San José Chacayá	5	Chacayá	4	Abril	2023-05-04T00:00:00	2024-11-06T12:00:00	2	Temperatura media	21.6
88218	7	Sololá	702	San José Chacayá	5	Chacayá	4	Abril	2023-05-04T00:00:00	2024-11-06T12:00:00	4	Temperatura máxima	21.7
88219	7	Sololá	702	San José Chacayá	5	Chacayá	4	Abril	2023-05-04T00:00:00	2024-11-06T12:00:00	3	Temperatura mínima	21.2
88220	7	Sololá	702	San José Chacayá	5	Chacayá	4	Abril	2023-05-04T00:00:00	2024-11-06T12:00:00	5	Humedad	53
88221	7	Sololá	702	San José Chacayá	5	Chacayá	4	Abril	2023-05-04T00:00:00	2024-11-06T12:00:00	6	Velocidad del viento	6.4
88222	7	Sololá	702	San José Chacayá	5	Chacayá	4	Abril	2023-05-04T00:00:00	2024-11-06T12:00:00	7	Dirección del viento	6.44
88223	7	Sololá	702	San José Chacayá	5	Chacayá	4	Abril	2023-05-04T00:00:00	2024-11-06T12:00:00	1	Precipitación	0
88224	7	Sololá	702	San José Chacayá	5	Chacayá	4	Abril	2023-05-04T00:00:00	2024-11-06T12:00:00	8	Radiación solar	861
88225	7	Sololá	702	San José Chacayá	5	Chacayá	4	Abril	2023-05-04T00:00:00	2024-11-06T13:00:00	2	Temperatura media	21.9
88226	7	Sololá	702	San José Chacayá	5	Chacayá	4	Abril	2023-05-04T00:00:00	2024-11-06T13:00:00	4	Temperatura máxima	22.1
88227	7	Sololá	702	San José Chacayá	5	Chacayá	4	Abril	2023-05-04T00:00:00	2024-11-06T13:00:00	3	Temperatura mínima	21.2
88228	7	Sololá	702	San José Chacayá	5	Chacayá	4	Abril	2023-05-04T00:00:00	2024-11-06T13:00:00	5	Humedad	61
88229	7	Sololá	702	San José Chacayá	5	Chacayá	4	Abril	2023-05-04T00:00:00	2024-11-06T13:00:00	6	Velocidad del viento	8
88230	7	Sololá	702	San José Chacayá	5	Chacayá	4	Abril	2023-05-04T00:00:00	2024-11-06T13:00:00	7	Dirección del viento	8.05
88231	7	Sololá	702	San José Chacayá	5	Chacayá	4	Abril	2023-05-04T00:00:00	2024-11-06T13:00:00	1	Precipitación	0
88232	7	Sololá	702	San José Chacayá	5	Chacayá	4	Abril	2023-05-04T00:00:00	2024-11-06T13:00:00	8	Radiación solar	558
88233	7	Sololá	702	San José Chacayá	5	Chacayá	4	Abril	2023-05-04T00:00:00	2024-11-06T14:00:00	2	Temperatura media	21.5
88234	7	Sololá	702	San José Chacayá	5	Chacayá	4	Abril	2023-05-04T00:00:00	2024-11-06T14:00:00	4	Temperatura máxima	22.5
88235	7	Sololá	702	San José Chacayá	5	Chacayá	4	Abril	2023-05-04T00:00:00	2024-11-06T14:00:00	3	Temperatura mínima	21.5
88236	7	Sololá	702	San José Chacayá	5	Chacayá	4	Abril	2023-05-04T00:00:00	2024-11-06T14:00:00	5	Humedad	65
88237	7	Sololá	702	San José Chacayá	5	Chacayá	4	Abril	2023-05-04T00:00:00	2024-11-06T14:00:00	6	Velocidad del viento	8
88238	7	Sololá	702	San José Chacayá	5	Chacayá	4	Abril	2023-05-04T00:00:00	2024-11-06T14:00:00	7	Dirección del viento	8.05
88239	7	Sololá	702	San José Chacayá	5	Chacayá	4	Abril	2023-05-04T00:00:00	2024-11-06T14:00:00	1	Precipitación	0
88240	7	Sololá	702	San José Chacayá	5	Chacayá	4	Abril	2023-05-04T00:00:00	2024-11-06T14:00:00	8	Radiación solar	943
88241	7	Sololá	702	San José Chacayá	5	Chacayá	4	Abril	2023-05-04T00:00:00	2024-11-06T15:00:00	2	Temperatura media	20.9
88242	7	Sololá	702	San José Chacayá	5	Chacayá	4	Abril	2023-05-04T00:00:00	2024-11-06T15:00:00	4	Temperatura máxima	22.2
88243	7	Sololá	702	San José Chacayá	5	Chacayá	4	Abril	2023-05-04T00:00:00	2024-11-06T15:00:00	3	Temperatura mínima	20.9
88244	7	Sololá	702	San José Chacayá	5	Chacayá	4	Abril	2023-05-04T00:00:00	2024-11-06T15:00:00	5	Humedad	69
88245	7	Sololá	702	San José Chacayá	5	Chacayá	4	Abril	2023-05-04T00:00:00	2024-11-06T15:00:00	6	Velocidad del viento	6.4
88246	7	Sololá	702	San José Chacayá	5	Chacayá	4	Abril	2023-05-04T00:00:00	2024-11-06T15:00:00	7	Dirección del viento	6.44
88247	7	Sololá	702	San José Chacayá	5	Chacayá	4	Abril	2023-05-04T00:00:00	2024-11-06T15:00:00	1	Precipitación	0
88248	7	Sololá	702	San José Chacayá	5	Chacayá	4	Abril	2023-05-04T00:00:00	2024-11-06T15:00:00	8	Radiación solar	722
88249	7	Sololá	702	San José Chacayá	5	Chacayá	4	Abril	2023-05-04T00:00:00	2024-11-06T16:00:00	2	Temperatura media	21.4
88250	7	Sololá	702	San José Chacayá	5	Chacayá	4	Abril	2023-05-04T00:00:00	2024-11-06T16:00:00	4	Temperatura máxima	21.5
88251	7	Sololá	702	San José Chacayá	5	Chacayá	4	Abril	2023-05-04T00:00:00	2024-11-06T16:00:00	3	Temperatura mínima	20.6
88252	7	Sololá	702	San José Chacayá	5	Chacayá	4	Abril	2023-05-04T00:00:00	2024-11-06T16:00:00	5	Humedad	71
88253	7	Sololá	702	San José Chacayá	5	Chacayá	4	Abril	2023-05-04T00:00:00	2024-11-06T16:00:00	6	Velocidad del viento	8
88254	7	Sololá	702	San José Chacayá	5	Chacayá	4	Abril	2023-05-04T00:00:00	2024-11-06T16:00:00	7	Dirección del viento	8.05
88255	7	Sololá	702	San José Chacayá	5	Chacayá	4	Abril	2023-05-04T00:00:00	2024-11-06T16:00:00	1	Precipitación	0
88256	7	Sololá	702	San José Chacayá	5	Chacayá	4	Abril	2023-05-04T00:00:00	2024-11-06T16:00:00	8	Radiación solar	281
88257	7	Sololá	702	San José Chacayá	5	Chacayá	4	Abril	2023-05-04T00:00:00	2024-11-06T17:00:00	2	Temperatura media	19.7
88258	7	Sololá	702	San José Chacayá	5	Chacayá	4	Abril	2023-05-04T00:00:00	2024-11-06T17:00:00	4	Temperatura máxima	21.4
88259	7	Sololá	702	San José Chacayá	5	Chacayá	4	Abril	2023-05-04T00:00:00	2024-11-06T17:00:00	3	Temperatura mínima	19.5
88260	7	Sololá	702	San José Chacayá	5	Chacayá	4	Abril	2023-05-04T00:00:00	2024-11-06T17:00:00	5	Humedad	78
88261	7	Sololá	702	San José Chacayá	5	Chacayá	4	Abril	2023-05-04T00:00:00	2024-11-06T17:00:00	6	Velocidad del viento	6.4
88262	7	Sololá	702	San José Chacayá	5	Chacayá	4	Abril	2023-05-04T00:00:00	2024-11-06T17:00:00	7	Dirección del viento	6.44
88263	7	Sololá	702	San José Chacayá	5	Chacayá	4	Abril	2023-05-04T00:00:00	2024-11-06T17:00:00	1	Precipitación	0
88264	7	Sololá	702	San José Chacayá	5	Chacayá	4	Abril	2023-05-04T00:00:00	2024-11-06T17:00:00	8	Radiación solar	163
88265	7	Sololá	702	San José Chacayá	5	Chacayá	4	Abril	2023-05-04T00:00:00	2024-11-06T18:00:00	2	Temperatura media	17.8
88266	7	Sololá	702	San José Chacayá	5	Chacayá	4	Abril	2023-05-04T00:00:00	2024-11-06T18:00:00	4	Temperatura máxima	19.7
88267	7	Sololá	702	San José Chacayá	5	Chacayá	4	Abril	2023-05-04T00:00:00	2024-11-06T18:00:00	3	Temperatura mínima	17.8
88268	7	Sololá	702	San José Chacayá	5	Chacayá	4	Abril	2023-05-04T00:00:00	2024-11-06T18:00:00	5	Humedad	86
88269	7	Sololá	702	San José Chacayá	5	Chacayá	4	Abril	2023-05-04T00:00:00	2024-11-06T18:00:00	6	Velocidad del viento	3.2
88270	7	Sololá	702	San José Chacayá	5	Chacayá	4	Abril	2023-05-04T00:00:00	2024-11-06T18:00:00	7	Dirección del viento	3.22
88271	7	Sololá	702	San José Chacayá	5	Chacayá	4	Abril	2023-05-04T00:00:00	2024-11-06T18:00:00	1	Precipitación	0
88272	7	Sololá	702	San José Chacayá	5	Chacayá	4	Abril	2023-05-04T00:00:00	2024-11-06T18:00:00	8	Radiación solar	136
88273	7	Sololá	702	San José Chacayá	5	Chacayá	4	Abril	2023-05-04T00:00:00	2024-11-06T19:00:00	2	Temperatura media	17.2
88274	7	Sololá	702	San José Chacayá	5	Chacayá	4	Abril	2023-05-04T00:00:00	2024-11-06T19:00:00	4	Temperatura máxima	17.8
88275	7	Sololá	702	San José Chacayá	5	Chacayá	4	Abril	2023-05-04T00:00:00	2024-11-06T19:00:00	3	Temperatura mínima	17.2
88276	7	Sololá	702	San José Chacayá	5	Chacayá	4	Abril	2023-05-04T00:00:00	2024-11-06T19:00:00	5	Humedad	89
88277	7	Sololá	702	San José Chacayá	5	Chacayá	4	Abril	2023-05-04T00:00:00	2024-11-06T19:00:00	6	Velocidad del viento	1.6
88278	7	Sololá	702	San José Chacayá	5	Chacayá	4	Abril	2023-05-04T00:00:00	2024-11-06T19:00:00	7	Dirección del viento	1.61
88279	7	Sololá	702	San José Chacayá	5	Chacayá	4	Abril	2023-05-04T00:00:00	2024-11-06T19:00:00	1	Precipitación	0
88280	7	Sololá	702	San José Chacayá	5	Chacayá	4	Abril	2023-05-04T00:00:00	2024-11-06T19:00:00	8	Radiación solar	0
88281	7	Sololá	702	San José Chacayá	5	Chacayá	4	Abril	2023-05-04T00:00:00	2024-11-06T20:00:00	2	Temperatura media	16.4
88282	7	Sololá	702	San José Chacayá	5	Chacayá	4	Abril	2023-05-04T00:00:00	2024-11-06T20:00:00	4	Temperatura máxima	17.3
88283	7	Sololá	702	San José Chacayá	5	Chacayá	4	Abril	2023-05-04T00:00:00	2024-11-06T20:00:00	3	Temperatura mínima	16.4
88284	7	Sololá	702	San José Chacayá	5	Chacayá	4	Abril	2023-05-04T00:00:00	2024-11-06T20:00:00	5	Humedad	92
88285	7	Sololá	702	San José Chacayá	5	Chacayá	4	Abril	2023-05-04T00:00:00	2024-11-06T20:00:00	6	Velocidad del viento	0
88286	7	Sololá	702	San José Chacayá	5	Chacayá	4	Abril	2023-05-04T00:00:00	2024-11-06T20:00:00	7	Dirección del viento	0
88287	7	Sololá	702	San José Chacayá	5	Chacayá	4	Abril	2023-05-04T00:00:00	2024-11-06T20:00:00	1	Precipitación	0
88288	7	Sololá	702	San José Chacayá	5	Chacayá	4	Abril	2023-05-04T00:00:00	2024-11-06T20:00:00	8	Radiación solar	0
88289	7	Sololá	702	San José Chacayá	5	Chacayá	4	Abril	2023-05-04T00:00:00	2024-11-06T21:00:00	2	Temperatura media	15.8
88290	7	Sololá	702	San José Chacayá	5	Chacayá	4	Abril	2023-05-04T00:00:00	2024-11-06T21:00:00	4	Temperatura máxima	16.4
88291	7	Sololá	702	San José Chacayá	5	Chacayá	4	Abril	2023-05-04T00:00:00	2024-11-06T21:00:00	3	Temperatura mínima	15.8
88292	7	Sololá	702	San José Chacayá	5	Chacayá	4	Abril	2023-05-04T00:00:00	2024-11-06T21:00:00	5	Humedad	92
88293	7	Sololá	702	San José Chacayá	5	Chacayá	4	Abril	2023-05-04T00:00:00	2024-11-06T21:00:00	6	Velocidad del viento	0
88294	7	Sololá	702	San José Chacayá	5	Chacayá	4	Abril	2023-05-04T00:00:00	2024-11-06T21:00:00	7	Dirección del viento	0
88295	7	Sololá	702	San José Chacayá	5	Chacayá	4	Abril	2023-05-04T00:00:00	2024-11-06T21:00:00	1	Precipitación	0
88296	7	Sololá	702	San José Chacayá	5	Chacayá	4	Abril	2023-05-04T00:00:00	2024-11-06T21:00:00	8	Radiación solar	0
88297	7	Sololá	702	San José Chacayá	5	Chacayá	4	Abril	2023-05-04T00:00:00	2024-11-06T22:00:00	2	Temperatura media	14.6
88298	7	Sololá	702	San José Chacayá	5	Chacayá	4	Abril	2023-05-04T00:00:00	2024-11-06T22:00:00	4	Temperatura máxima	15.8
88299	7	Sololá	702	San José Chacayá	5	Chacayá	4	Abril	2023-05-04T00:00:00	2024-11-06T22:00:00	3	Temperatura mínima	14.6
88300	7	Sololá	702	San José Chacayá	5	Chacayá	4	Abril	2023-05-04T00:00:00	2024-11-06T22:00:00	5	Humedad	93
88301	7	Sololá	702	San José Chacayá	5	Chacayá	4	Abril	2023-05-04T00:00:00	2024-11-06T22:00:00	6	Velocidad del viento	0
88302	7	Sololá	702	San José Chacayá	5	Chacayá	4	Abril	2023-05-04T00:00:00	2024-11-06T22:00:00	7	Dirección del viento	0
88303	7	Sololá	702	San José Chacayá	5	Chacayá	4	Abril	2023-05-04T00:00:00	2024-11-06T22:00:00	1	Precipitación	0
88304	7	Sololá	702	San José Chacayá	5	Chacayá	4	Abril	2023-05-04T00:00:00	2024-11-06T22:00:00	8	Radiación solar	0
88305	7	Sololá	702	San José Chacayá	5	Chacayá	4	Abril	2023-05-04T00:00:00	2024-11-06T23:00:00	2	Temperatura media	14.2
88306	7	Sololá	702	San José Chacayá	5	Chacayá	4	Abril	2023-05-04T00:00:00	2024-11-06T23:00:00	4	Temperatura máxima	14.6
88307	7	Sololá	702	San José Chacayá	5	Chacayá	4	Abril	2023-05-04T00:00:00	2024-11-06T23:00:00	3	Temperatura mínima	14.2
88308	7	Sololá	702	San José Chacayá	5	Chacayá	4	Abril	2023-05-04T00:00:00	2024-11-06T23:00:00	5	Humedad	93
88309	7	Sololá	702	San José Chacayá	5	Chacayá	4	Abril	2023-05-04T00:00:00	2024-11-06T23:00:00	6	Velocidad del viento	0
88310	7	Sololá	702	San José Chacayá	5	Chacayá	4	Abril	2023-05-04T00:00:00	2024-11-06T23:00:00	7	Dirección del viento	0
88311	7	Sololá	702	San José Chacayá	5	Chacayá	4	Abril	2023-05-04T00:00:00	2024-11-06T23:00:00	1	Precipitación	0
88312	7	Sololá	702	San José Chacayá	5	Chacayá	4	Abril	2023-05-04T00:00:00	2024-11-06T23:00:00	8	Radiación solar	0
88313	7	Sololá	702	San José Chacayá	5	Chacayá	4	Abril	2023-06-04T00:00:00	2024-11-06T00:00:00	2	Temperatura media	12.9
88314	7	Sololá	702	San José Chacayá	5	Chacayá	4	Abril	2023-06-04T00:00:00	2024-11-06T00:00:00	4	Temperatura máxima	14.2
88315	7	Sololá	702	San José Chacayá	5	Chacayá	4	Abril	2023-06-04T00:00:00	2024-11-06T00:00:00	3	Temperatura mínima	12.9
88316	7	Sololá	702	San José Chacayá	5	Chacayá	4	Abril	2023-06-04T00:00:00	2024-11-06T00:00:00	5	Humedad	93
88317	7	Sololá	702	San José Chacayá	5	Chacayá	4	Abril	2023-06-04T00:00:00	2024-11-06T00:00:00	6	Velocidad del viento	0
88318	7	Sololá	702	San José Chacayá	5	Chacayá	4	Abril	2023-06-04T00:00:00	2024-11-06T00:00:00	7	Dirección del viento	0
88319	7	Sololá	702	San José Chacayá	5	Chacayá	4	Abril	2023-06-04T00:00:00	2024-11-06T00:00:00	1	Precipitación	0
88320	7	Sololá	702	San José Chacayá	5	Chacayá	4	Abril	2023-06-04T00:00:00	2024-11-06T00:00:00	8	Radiación solar	0
88321	7	Sololá	702	San José Chacayá	5	Chacayá	4	Abril	2023-06-04T00:00:00	2024-11-06T01:00:00	2	Temperatura media	11.9
88322	7	Sololá	702	San José Chacayá	5	Chacayá	4	Abril	2023-06-04T00:00:00	2024-11-06T01:00:00	4	Temperatura máxima	12.9
88323	7	Sololá	702	San José Chacayá	5	Chacayá	4	Abril	2023-06-04T00:00:00	2024-11-06T01:00:00	3	Temperatura mínima	11.9
88324	7	Sololá	702	San José Chacayá	5	Chacayá	4	Abril	2023-06-04T00:00:00	2024-11-06T01:00:00	5	Humedad	93
88325	7	Sololá	702	San José Chacayá	5	Chacayá	4	Abril	2023-06-04T00:00:00	2024-11-06T01:00:00	6	Velocidad del viento	0
88326	7	Sololá	702	San José Chacayá	5	Chacayá	4	Abril	2023-06-04T00:00:00	2024-11-06T01:00:00	7	Dirección del viento	0
88327	7	Sololá	702	San José Chacayá	5	Chacayá	4	Abril	2023-06-04T00:00:00	2024-11-06T01:00:00	1	Precipitación	0
88328	7	Sololá	702	San José Chacayá	5	Chacayá	4	Abril	2023-06-04T00:00:00	2024-11-06T01:00:00	8	Radiación solar	0
88329	7	Sololá	702	San José Chacayá	5	Chacayá	4	Abril	2023-06-04T00:00:00	2024-11-06T02:00:00	2	Temperatura media	12.3
88330	7	Sololá	702	San José Chacayá	5	Chacayá	4	Abril	2023-06-04T00:00:00	2024-11-06T02:00:00	4	Temperatura máxima	12.3
88331	7	Sololá	702	San José Chacayá	5	Chacayá	4	Abril	2023-06-04T00:00:00	2024-11-06T02:00:00	3	Temperatura mínima	11.8
88332	7	Sololá	702	San José Chacayá	5	Chacayá	4	Abril	2023-06-04T00:00:00	2024-11-06T02:00:00	5	Humedad	94
88333	7	Sololá	702	San José Chacayá	5	Chacayá	4	Abril	2023-06-04T00:00:00	2024-11-06T02:00:00	6	Velocidad del viento	0
88334	7	Sololá	702	San José Chacayá	5	Chacayá	4	Abril	2023-06-04T00:00:00	2024-11-06T02:00:00	7	Dirección del viento	0
88335	7	Sololá	702	San José Chacayá	5	Chacayá	4	Abril	2023-06-04T00:00:00	2024-11-06T02:00:00	1	Precipitación	0
88336	7	Sololá	702	San José Chacayá	5	Chacayá	4	Abril	2023-06-04T00:00:00	2024-11-06T02:00:00	8	Radiación solar	0
88337	7	Sololá	702	San José Chacayá	5	Chacayá	4	Abril	2023-06-04T00:00:00	2024-11-06T03:00:00	2	Temperatura media	12.6
88338	7	Sololá	702	San José Chacayá	5	Chacayá	4	Abril	2023-06-04T00:00:00	2024-11-06T03:00:00	4	Temperatura máxima	12.6
88339	7	Sololá	702	San José Chacayá	5	Chacayá	4	Abril	2023-06-04T00:00:00	2024-11-06T03:00:00	3	Temperatura mínima	12.3
88340	7	Sololá	702	San José Chacayá	5	Chacayá	4	Abril	2023-06-04T00:00:00	2024-11-06T03:00:00	5	Humedad	94
88341	7	Sololá	702	San José Chacayá	5	Chacayá	4	Abril	2023-06-04T00:00:00	2024-11-06T03:00:00	6	Velocidad del viento	0
88342	7	Sololá	702	San José Chacayá	5	Chacayá	4	Abril	2023-06-04T00:00:00	2024-11-06T03:00:00	7	Dirección del viento	0
88343	7	Sololá	702	San José Chacayá	5	Chacayá	4	Abril	2023-06-04T00:00:00	2024-11-06T03:00:00	1	Precipitación	0
88344	7	Sololá	702	San José Chacayá	5	Chacayá	4	Abril	2023-06-04T00:00:00	2024-11-06T03:00:00	8	Radiación solar	0
88345	7	Sololá	702	San José Chacayá	5	Chacayá	4	Abril	2023-06-04T00:00:00	2024-11-06T04:00:00	2	Temperatura media	11.4
88346	7	Sololá	702	San José Chacayá	5	Chacayá	4	Abril	2023-06-04T00:00:00	2024-11-06T04:00:00	4	Temperatura máxima	12.6
88347	7	Sololá	702	San José Chacayá	5	Chacayá	4	Abril	2023-06-04T00:00:00	2024-11-06T04:00:00	3	Temperatura mínima	11.4
88348	7	Sololá	702	San José Chacayá	5	Chacayá	4	Abril	2023-06-04T00:00:00	2024-11-06T04:00:00	5	Humedad	93
88349	7	Sololá	702	San José Chacayá	5	Chacayá	4	Abril	2023-06-04T00:00:00	2024-11-06T04:00:00	6	Velocidad del viento	0
88350	7	Sololá	702	San José Chacayá	5	Chacayá	4	Abril	2023-06-04T00:00:00	2024-11-06T04:00:00	7	Dirección del viento	0
88351	7	Sololá	702	San José Chacayá	5	Chacayá	4	Abril	2023-06-04T00:00:00	2024-11-06T04:00:00	1	Precipitación	0
88352	7	Sololá	702	San José Chacayá	5	Chacayá	4	Abril	2023-06-04T00:00:00	2024-11-06T04:00:00	8	Radiación solar	0
88353	7	Sololá	702	San José Chacayá	5	Chacayá	4	Abril	2023-06-04T00:00:00	2024-11-06T05:00:00	2	Temperatura media	11.6
88354	7	Sololá	702	San José Chacayá	5	Chacayá	4	Abril	2023-06-04T00:00:00	2024-11-06T05:00:00	4	Temperatura máxima	11.6
88355	7	Sololá	702	San José Chacayá	5	Chacayá	4	Abril	2023-06-04T00:00:00	2024-11-06T05:00:00	3	Temperatura mínima	11.2
88356	7	Sololá	702	San José Chacayá	5	Chacayá	4	Abril	2023-06-04T00:00:00	2024-11-06T05:00:00	5	Humedad	95
88357	7	Sololá	702	San José Chacayá	5	Chacayá	4	Abril	2023-06-04T00:00:00	2024-11-06T05:00:00	6	Velocidad del viento	0
88358	7	Sololá	702	San José Chacayá	5	Chacayá	4	Abril	2023-06-04T00:00:00	2024-11-06T05:00:00	7	Dirección del viento	0
88359	7	Sololá	702	San José Chacayá	5	Chacayá	4	Abril	2023-06-04T00:00:00	2024-11-06T05:00:00	1	Precipitación	0
88360	7	Sololá	702	San José Chacayá	5	Chacayá	4	Abril	2023-06-04T00:00:00	2024-11-06T05:00:00	8	Radiación solar	0
88361	7	Sololá	702	San José Chacayá	5	Chacayá	4	Abril	2023-06-04T00:00:00	2024-11-06T06:00:00	2	Temperatura media	11.2
88362	7	Sololá	702	San José Chacayá	5	Chacayá	4	Abril	2023-06-04T00:00:00	2024-11-06T06:00:00	4	Temperatura máxima	11.7
88363	7	Sololá	702	San José Chacayá	5	Chacayá	4	Abril	2023-06-04T00:00:00	2024-11-06T06:00:00	3	Temperatura mínima	11.2
88364	7	Sololá	702	San José Chacayá	5	Chacayá	4	Abril	2023-06-04T00:00:00	2024-11-06T06:00:00	5	Humedad	93
88365	7	Sololá	702	San José Chacayá	5	Chacayá	4	Abril	2023-06-04T00:00:00	2024-11-06T06:00:00	6	Velocidad del viento	0
88366	7	Sololá	702	San José Chacayá	5	Chacayá	4	Abril	2023-06-04T00:00:00	2024-11-06T06:00:00	7	Dirección del viento	0
88367	7	Sololá	702	San José Chacayá	5	Chacayá	4	Abril	2023-06-04T00:00:00	2024-11-06T06:00:00	1	Precipitación	0
88368	7	Sololá	702	San José Chacayá	5	Chacayá	4	Abril	2023-06-04T00:00:00	2024-11-06T06:00:00	8	Radiación solar	0
88369	7	Sololá	702	San José Chacayá	5	Chacayá	4	Abril	2023-06-04T00:00:00	2024-11-06T07:00:00	2	Temperatura media	10.8
88370	7	Sololá	702	San José Chacayá	5	Chacayá	4	Abril	2023-06-04T00:00:00	2024-11-06T07:00:00	4	Temperatura máxima	11.2
88371	7	Sololá	702	San José Chacayá	5	Chacayá	4	Abril	2023-06-04T00:00:00	2024-11-06T07:00:00	3	Temperatura mínima	10.8
88372	7	Sololá	702	San José Chacayá	5	Chacayá	4	Abril	2023-06-04T00:00:00	2024-11-06T07:00:00	5	Humedad	94
88373	7	Sololá	702	San José Chacayá	5	Chacayá	4	Abril	2023-06-04T00:00:00	2024-11-06T07:00:00	6	Velocidad del viento	0
88374	7	Sololá	702	San José Chacayá	5	Chacayá	4	Abril	2023-06-04T00:00:00	2024-11-06T07:00:00	7	Dirección del viento	0
88375	7	Sololá	702	San José Chacayá	5	Chacayá	4	Abril	2023-06-04T00:00:00	2024-11-06T07:00:00	1	Precipitación	0
88376	7	Sololá	702	San José Chacayá	5	Chacayá	4	Abril	2023-06-04T00:00:00	2024-11-06T07:00:00	8	Radiación solar	1
88377	7	Sololá	702	San José Chacayá	5	Chacayá	4	Abril	2023-06-04T00:00:00	2024-11-06T08:00:00	2	Temperatura media	11.7
88378	7	Sololá	702	San José Chacayá	5	Chacayá	4	Abril	2023-06-04T00:00:00	2024-11-06T08:00:00	4	Temperatura máxima	11.8
88379	7	Sololá	702	San José Chacayá	5	Chacayá	4	Abril	2023-06-04T00:00:00	2024-11-06T08:00:00	3	Temperatura mínima	10.8
88380	7	Sololá	702	San José Chacayá	5	Chacayá	4	Abril	2023-06-04T00:00:00	2024-11-06T08:00:00	5	Humedad	94
88381	7	Sololá	702	San José Chacayá	5	Chacayá	4	Abril	2023-06-04T00:00:00	2024-11-06T08:00:00	6	Velocidad del viento	0
88382	7	Sololá	702	San José Chacayá	5	Chacayá	4	Abril	2023-06-04T00:00:00	2024-11-06T08:00:00	7	Dirección del viento	0
88383	7	Sololá	702	San José Chacayá	5	Chacayá	4	Abril	2023-06-04T00:00:00	2024-11-06T08:00:00	1	Precipitación	0
88384	7	Sololá	702	San José Chacayá	5	Chacayá	4	Abril	2023-06-04T00:00:00	2024-11-06T08:00:00	8	Radiación solar	21
88385	7	Sololá	702	San José Chacayá	5	Chacayá	4	Abril	2023-06-04T00:00:00	2024-11-06T09:00:00	2	Temperatura media	15.2
88386	7	Sololá	702	San José Chacayá	5	Chacayá	4	Abril	2023-06-04T00:00:00	2024-11-06T09:00:00	4	Temperatura máxima	15.2
88387	7	Sololá	702	San José Chacayá	5	Chacayá	4	Abril	2023-06-04T00:00:00	2024-11-06T09:00:00	3	Temperatura mínima	11.8
88388	7	Sololá	702	San José Chacayá	5	Chacayá	4	Abril	2023-06-04T00:00:00	2024-11-06T09:00:00	5	Humedad	84
88389	7	Sololá	702	San José Chacayá	5	Chacayá	4	Abril	2023-06-04T00:00:00	2024-11-06T09:00:00	6	Velocidad del viento	1.6
88390	7	Sololá	702	San José Chacayá	5	Chacayá	4	Abril	2023-06-04T00:00:00	2024-11-06T09:00:00	7	Dirección del viento	1.61
88391	7	Sololá	702	San José Chacayá	5	Chacayá	4	Abril	2023-06-04T00:00:00	2024-11-06T09:00:00	1	Precipitación	0
88392	7	Sololá	702	San José Chacayá	5	Chacayá	4	Abril	2023-06-04T00:00:00	2024-11-06T09:00:00	8	Radiación solar	42
88393	7	Sololá	702	San José Chacayá	5	Chacayá	4	Abril	2023-06-04T00:00:00	2024-11-06T10:00:00	2	Temperatura media	18.9
88394	7	Sololá	702	San José Chacayá	5	Chacayá	4	Abril	2023-06-04T00:00:00	2024-11-06T10:00:00	4	Temperatura máxima	18.9
88395	7	Sololá	702	San José Chacayá	5	Chacayá	4	Abril	2023-06-04T00:00:00	2024-11-06T10:00:00	3	Temperatura mínima	15.2
88396	7	Sololá	702	San José Chacayá	5	Chacayá	4	Abril	2023-06-04T00:00:00	2024-11-06T10:00:00	5	Humedad	74
88397	7	Sololá	702	San José Chacayá	5	Chacayá	4	Abril	2023-06-04T00:00:00	2024-11-06T10:00:00	6	Velocidad del viento	4.8
88398	7	Sololá	702	San José Chacayá	5	Chacayá	4	Abril	2023-06-04T00:00:00	2024-11-06T10:00:00	7	Dirección del viento	4.83
88399	7	Sololá	702	San José Chacayá	5	Chacayá	4	Abril	2023-06-04T00:00:00	2024-11-06T10:00:00	1	Precipitación	0
88400	7	Sololá	702	San José Chacayá	5	Chacayá	4	Abril	2023-06-04T00:00:00	2024-11-06T10:00:00	8	Radiación solar	436
88401	7	Sololá	702	San José Chacayá	5	Chacayá	4	Abril	2023-06-04T00:00:00	2024-11-06T11:00:00	2	Temperatura media	20.9
88402	7	Sololá	702	San José Chacayá	5	Chacayá	4	Abril	2023-06-04T00:00:00	2024-11-06T11:00:00	4	Temperatura máxima	20.9
88403	7	Sololá	702	San José Chacayá	5	Chacayá	4	Abril	2023-06-04T00:00:00	2024-11-06T11:00:00	3	Temperatura mínima	18.8
88404	7	Sololá	702	San José Chacayá	5	Chacayá	4	Abril	2023-06-04T00:00:00	2024-11-06T11:00:00	5	Humedad	70
88405	7	Sololá	702	San José Chacayá	5	Chacayá	4	Abril	2023-06-04T00:00:00	2024-11-06T11:00:00	6	Velocidad del viento	4.8
88406	7	Sololá	702	San José Chacayá	5	Chacayá	4	Abril	2023-06-04T00:00:00	2024-11-06T11:00:00	7	Dirección del viento	4.83
88407	7	Sololá	702	San José Chacayá	5	Chacayá	4	Abril	2023-06-04T00:00:00	2024-11-06T11:00:00	1	Precipitación	0
88408	7	Sololá	702	San José Chacayá	5	Chacayá	4	Abril	2023-06-04T00:00:00	2024-11-06T11:00:00	8	Radiación solar	768
88409	7	Sololá	702	San José Chacayá	5	Chacayá	4	Abril	2023-06-04T00:00:00	2024-11-06T12:00:00	2	Temperatura media	20.5
88410	7	Sololá	702	San José Chacayá	5	Chacayá	4	Abril	2023-06-04T00:00:00	2024-11-06T12:00:00	4	Temperatura máxima	20.9
88411	7	Sololá	702	San José Chacayá	5	Chacayá	4	Abril	2023-06-04T00:00:00	2024-11-06T12:00:00	3	Temperatura mínima	19.9
88412	7	Sololá	702	San José Chacayá	5	Chacayá	4	Abril	2023-06-04T00:00:00	2024-11-06T12:00:00	5	Humedad	69
88413	7	Sololá	702	San José Chacayá	5	Chacayá	4	Abril	2023-06-04T00:00:00	2024-11-06T12:00:00	6	Velocidad del viento	8
88414	7	Sololá	702	San José Chacayá	5	Chacayá	4	Abril	2023-06-04T00:00:00	2024-11-06T12:00:00	7	Dirección del viento	8.05
88415	7	Sololá	702	San José Chacayá	5	Chacayá	4	Abril	2023-06-04T00:00:00	2024-11-06T12:00:00	1	Precipitación	0
88416	7	Sololá	702	San José Chacayá	5	Chacayá	4	Abril	2023-06-04T00:00:00	2024-11-06T12:00:00	8	Radiación solar	900
88417	7	Sololá	702	San José Chacayá	5	Chacayá	4	Abril	2023-06-04T00:00:00	2024-11-06T13:00:00	2	Temperatura media	20.3
88418	7	Sololá	702	San José Chacayá	5	Chacayá	4	Abril	2023-06-04T00:00:00	2024-11-06T13:00:00	4	Temperatura máxima	21.1
88419	7	Sololá	702	San José Chacayá	5	Chacayá	4	Abril	2023-06-04T00:00:00	2024-11-06T13:00:00	3	Temperatura mínima	20
88420	7	Sololá	702	San José Chacayá	5	Chacayá	4	Abril	2023-06-04T00:00:00	2024-11-06T13:00:00	5	Humedad	71
88421	7	Sololá	702	San José Chacayá	5	Chacayá	4	Abril	2023-06-04T00:00:00	2024-11-06T13:00:00	6	Velocidad del viento	8
88422	7	Sololá	702	San José Chacayá	5	Chacayá	4	Abril	2023-06-04T00:00:00	2024-11-06T13:00:00	7	Dirección del viento	8.05
88423	7	Sololá	702	San José Chacayá	5	Chacayá	4	Abril	2023-06-04T00:00:00	2024-11-06T13:00:00	1	Precipitación	0
88424	7	Sololá	702	San José Chacayá	5	Chacayá	4	Abril	2023-06-04T00:00:00	2024-11-06T13:00:00	8	Radiación solar	572
88425	7	Sololá	702	San José Chacayá	5	Chacayá	4	Abril	2023-06-04T00:00:00	2024-11-06T14:00:00	2	Temperatura media	19.9
88426	7	Sololá	702	San José Chacayá	5	Chacayá	4	Abril	2023-06-04T00:00:00	2024-11-06T14:00:00	4	Temperatura máxima	21.1
88427	7	Sololá	702	San José Chacayá	5	Chacayá	4	Abril	2023-06-04T00:00:00	2024-11-06T14:00:00	3	Temperatura mínima	19.8
88428	7	Sololá	702	San José Chacayá	5	Chacayá	4	Abril	2023-06-04T00:00:00	2024-11-06T14:00:00	5	Humedad	73
88429	7	Sololá	702	San José Chacayá	5	Chacayá	4	Abril	2023-06-04T00:00:00	2024-11-06T14:00:00	6	Velocidad del viento	6.4
88430	7	Sololá	702	San José Chacayá	5	Chacayá	4	Abril	2023-06-04T00:00:00	2024-11-06T14:00:00	7	Dirección del viento	6.44
88431	7	Sololá	702	San José Chacayá	5	Chacayá	4	Abril	2023-06-04T00:00:00	2024-11-06T14:00:00	1	Precipitación	0
88432	7	Sololá	702	San José Chacayá	5	Chacayá	4	Abril	2023-06-04T00:00:00	2024-11-06T14:00:00	8	Radiación solar	967
88433	7	Sololá	702	San José Chacayá	5	Chacayá	4	Abril	2023-06-04T00:00:00	2024-11-06T15:00:00	2	Temperatura media	20.3
88434	7	Sololá	702	San José Chacayá	5	Chacayá	4	Abril	2023-06-04T00:00:00	2024-11-06T15:00:00	4	Temperatura máxima	20.6
88435	7	Sololá	702	San José Chacayá	5	Chacayá	4	Abril	2023-06-04T00:00:00	2024-11-06T15:00:00	3	Temperatura mínima	19.6
88436	7	Sololá	702	San José Chacayá	5	Chacayá	4	Abril	2023-06-04T00:00:00	2024-11-06T15:00:00	5	Humedad	74
88437	7	Sololá	702	San José Chacayá	5	Chacayá	4	Abril	2023-06-04T00:00:00	2024-11-06T15:00:00	6	Velocidad del viento	4.8
88438	7	Sololá	702	San José Chacayá	5	Chacayá	4	Abril	2023-06-04T00:00:00	2024-11-06T15:00:00	7	Dirección del viento	4.83
88439	7	Sololá	702	San José Chacayá	5	Chacayá	4	Abril	2023-06-04T00:00:00	2024-11-06T15:00:00	1	Precipitación	0
88440	7	Sololá	702	San José Chacayá	5	Chacayá	4	Abril	2023-06-04T00:00:00	2024-11-06T15:00:00	8	Radiación solar	883
88441	7	Sololá	702	San José Chacayá	5	Chacayá	4	Abril	2023-06-04T00:00:00	2024-11-06T16:00:00	2	Temperatura media	19.7
88442	7	Sololá	702	San José Chacayá	5	Chacayá	4	Abril	2023-06-04T00:00:00	2024-11-06T16:00:00	4	Temperatura máxima	20.2
88443	7	Sololá	702	San José Chacayá	5	Chacayá	4	Abril	2023-06-04T00:00:00	2024-11-06T16:00:00	3	Temperatura mínima	19.2
88444	7	Sololá	702	San José Chacayá	5	Chacayá	4	Abril	2023-06-04T00:00:00	2024-11-06T16:00:00	5	Humedad	77
88445	7	Sololá	702	San José Chacayá	5	Chacayá	4	Abril	2023-06-04T00:00:00	2024-11-06T16:00:00	6	Velocidad del viento	4.8
88446	7	Sololá	702	San José Chacayá	5	Chacayá	4	Abril	2023-06-04T00:00:00	2024-11-06T16:00:00	7	Dirección del viento	4.83
88447	7	Sololá	702	San José Chacayá	5	Chacayá	4	Abril	2023-06-04T00:00:00	2024-11-06T16:00:00	1	Precipitación	0
88448	7	Sololá	702	San José Chacayá	5	Chacayá	4	Abril	2023-06-04T00:00:00	2024-11-06T16:00:00	8	Radiación solar	746
88449	7	Sololá	702	San José Chacayá	5	Chacayá	4	Abril	2023-06-04T00:00:00	2024-11-06T17:00:00	2	Temperatura media	18.1
88450	7	Sololá	702	San José Chacayá	5	Chacayá	4	Abril	2023-06-04T00:00:00	2024-11-06T17:00:00	4	Temperatura máxima	19.9
88451	7	Sololá	702	San José Chacayá	5	Chacayá	4	Abril	2023-06-04T00:00:00	2024-11-06T17:00:00	3	Temperatura mínima	18.1
88452	7	Sololá	702	San José Chacayá	5	Chacayá	4	Abril	2023-06-04T00:00:00	2024-11-06T17:00:00	5	Humedad	83
88453	7	Sololá	702	San José Chacayá	5	Chacayá	4	Abril	2023-06-04T00:00:00	2024-11-06T17:00:00	6	Velocidad del viento	6.4
88454	7	Sololá	702	San José Chacayá	5	Chacayá	4	Abril	2023-06-04T00:00:00	2024-11-06T17:00:00	7	Dirección del viento	6.44
88455	7	Sololá	702	San José Chacayá	5	Chacayá	4	Abril	2023-06-04T00:00:00	2024-11-06T17:00:00	1	Precipitación	0
88456	7	Sololá	702	San José Chacayá	5	Chacayá	4	Abril	2023-06-04T00:00:00	2024-11-06T17:00:00	8	Radiación solar	523
88457	7	Sololá	702	San José Chacayá	5	Chacayá	4	Abril	2023-06-04T00:00:00	2024-11-06T18:00:00	2	Temperatura media	18.2
88458	7	Sololá	702	San José Chacayá	5	Chacayá	4	Abril	2023-06-04T00:00:00	2024-11-06T18:00:00	4	Temperatura máxima	18.3
88459	7	Sololá	702	San José Chacayá	5	Chacayá	4	Abril	2023-06-04T00:00:00	2024-11-06T18:00:00	3	Temperatura mínima	17.7
88460	7	Sololá	702	San José Chacayá	5	Chacayá	4	Abril	2023-06-04T00:00:00	2024-11-06T18:00:00	5	Humedad	81
88461	7	Sololá	702	San José Chacayá	5	Chacayá	4	Abril	2023-06-04T00:00:00	2024-11-06T18:00:00	6	Velocidad del viento	3.2
88462	7	Sololá	702	San José Chacayá	5	Chacayá	4	Abril	2023-06-04T00:00:00	2024-11-06T18:00:00	7	Dirección del viento	3.22
88463	7	Sololá	702	San José Chacayá	5	Chacayá	4	Abril	2023-06-04T00:00:00	2024-11-06T18:00:00	1	Precipitación	0
88464	7	Sololá	702	San José Chacayá	5	Chacayá	4	Abril	2023-06-04T00:00:00	2024-11-06T18:00:00	8	Radiación solar	148
88465	7	Sololá	702	San José Chacayá	5	Chacayá	4	Abril	2023-06-04T00:00:00	2024-11-06T19:00:00	2	Temperatura media	16.6
88466	7	Sololá	702	San José Chacayá	5	Chacayá	4	Abril	2023-06-04T00:00:00	2024-11-06T19:00:00	4	Temperatura máxima	18.2
88467	7	Sololá	702	San José Chacayá	5	Chacayá	4	Abril	2023-06-04T00:00:00	2024-11-06T19:00:00	3	Temperatura mínima	16.5
88468	7	Sololá	702	San José Chacayá	5	Chacayá	4	Abril	2023-06-04T00:00:00	2024-11-06T19:00:00	5	Humedad	88
88469	7	Sololá	702	San José Chacayá	5	Chacayá	4	Abril	2023-06-04T00:00:00	2024-11-06T19:00:00	6	Velocidad del viento	3.2
88470	7	Sololá	702	San José Chacayá	5	Chacayá	4	Abril	2023-06-04T00:00:00	2024-11-06T19:00:00	7	Dirección del viento	3.22
88471	7	Sololá	702	San José Chacayá	5	Chacayá	4	Abril	2023-06-04T00:00:00	2024-11-06T19:00:00	1	Precipitación	0
88472	7	Sololá	702	San José Chacayá	5	Chacayá	4	Abril	2023-06-04T00:00:00	2024-11-06T19:00:00	8	Radiación solar	0
88473	7	Sololá	702	San José Chacayá	5	Chacayá	4	Abril	2023-06-04T00:00:00	2024-11-06T20:00:00	2	Temperatura media	15.8
88474	7	Sololá	702	San José Chacayá	5	Chacayá	4	Abril	2023-06-04T00:00:00	2024-11-06T20:00:00	4	Temperatura máxima	16.5
88475	7	Sololá	702	San José Chacayá	5	Chacayá	4	Abril	2023-06-04T00:00:00	2024-11-06T20:00:00	3	Temperatura mínima	15.7
88476	7	Sololá	702	San José Chacayá	5	Chacayá	4	Abril	2023-06-04T00:00:00	2024-11-06T20:00:00	5	Humedad	93
88477	7	Sololá	702	San José Chacayá	5	Chacayá	4	Abril	2023-06-04T00:00:00	2024-11-06T20:00:00	6	Velocidad del viento	1.6
88478	7	Sololá	702	San José Chacayá	5	Chacayá	4	Abril	2023-06-04T00:00:00	2024-11-06T20:00:00	7	Dirección del viento	1.61
88479	7	Sololá	702	San José Chacayá	5	Chacayá	4	Abril	2023-06-04T00:00:00	2024-11-06T20:00:00	1	Precipitación	0
88480	7	Sololá	702	San José Chacayá	5	Chacayá	4	Abril	2023-06-04T00:00:00	2024-11-06T20:00:00	8	Radiación solar	0
88481	7	Sololá	702	San José Chacayá	5	Chacayá	4	Abril	2023-06-04T00:00:00	2024-11-06T21:00:00	2	Temperatura media	15.3
88482	7	Sololá	702	San José Chacayá	5	Chacayá	4	Abril	2023-06-04T00:00:00	2024-11-06T21:00:00	4	Temperatura máxima	15.8
88483	7	Sololá	702	San José Chacayá	5	Chacayá	4	Abril	2023-06-04T00:00:00	2024-11-06T21:00:00	3	Temperatura mínima	15.3
88484	7	Sololá	702	San José Chacayá	5	Chacayá	4	Abril	2023-06-04T00:00:00	2024-11-06T21:00:00	5	Humedad	92
88485	7	Sololá	702	San José Chacayá	5	Chacayá	4	Abril	2023-06-04T00:00:00	2024-11-06T21:00:00	6	Velocidad del viento	1.6
88486	7	Sololá	702	San José Chacayá	5	Chacayá	4	Abril	2023-06-04T00:00:00	2024-11-06T21:00:00	7	Dirección del viento	1.61
88487	7	Sololá	702	San José Chacayá	5	Chacayá	4	Abril	2023-06-04T00:00:00	2024-11-06T21:00:00	1	Precipitación	0
88488	7	Sololá	702	San José Chacayá	5	Chacayá	4	Abril	2023-06-04T00:00:00	2024-11-06T21:00:00	8	Radiación solar	0
88489	7	Sololá	702	San José Chacayá	5	Chacayá	4	Abril	2023-06-04T00:00:00	2024-11-06T22:00:00	2	Temperatura media	15.1
88490	7	Sololá	702	San José Chacayá	5	Chacayá	4	Abril	2023-06-04T00:00:00	2024-11-06T22:00:00	4	Temperatura máxima	15.3
88491	7	Sololá	702	San José Chacayá	5	Chacayá	4	Abril	2023-06-04T00:00:00	2024-11-06T22:00:00	3	Temperatura mínima	14.5
88492	7	Sololá	702	San José Chacayá	5	Chacayá	4	Abril	2023-06-04T00:00:00	2024-11-06T22:00:00	5	Humedad	83
88493	7	Sololá	702	San José Chacayá	5	Chacayá	4	Abril	2023-06-04T00:00:00	2024-11-06T22:00:00	6	Velocidad del viento	3.2
88494	7	Sololá	702	San José Chacayá	5	Chacayá	4	Abril	2023-06-04T00:00:00	2024-11-06T22:00:00	7	Dirección del viento	3.22
88495	7	Sololá	702	San José Chacayá	5	Chacayá	4	Abril	2023-06-04T00:00:00	2024-11-06T22:00:00	1	Precipitación	0
88496	7	Sololá	702	San José Chacayá	5	Chacayá	4	Abril	2023-06-04T00:00:00	2024-11-06T22:00:00	8	Radiación solar	0
88497	7	Sololá	702	San José Chacayá	5	Chacayá	4	Abril	2023-06-04T00:00:00	2024-11-06T23:00:00	2	Temperatura media	14.4
88498	7	Sololá	702	San José Chacayá	5	Chacayá	4	Abril	2023-06-04T00:00:00	2024-11-06T23:00:00	4	Temperatura máxima	15.1
88499	7	Sololá	702	San José Chacayá	5	Chacayá	4	Abril	2023-06-04T00:00:00	2024-11-06T23:00:00	3	Temperatura mínima	14.4
88500	7	Sololá	702	San José Chacayá	5	Chacayá	4	Abril	2023-06-04T00:00:00	2024-11-06T23:00:00	5	Humedad	84
88501	7	Sololá	702	San José Chacayá	5	Chacayá	4	Abril	2023-06-04T00:00:00	2024-11-06T23:00:00	6	Velocidad del viento	1.6
88502	7	Sololá	702	San José Chacayá	5	Chacayá	4	Abril	2023-06-04T00:00:00	2024-11-06T23:00:00	7	Dirección del viento	1.61
88503	7	Sololá	702	San José Chacayá	5	Chacayá	4	Abril	2023-06-04T00:00:00	2024-11-06T23:00:00	1	Precipitación	0
88504	7	Sololá	702	San José Chacayá	5	Chacayá	4	Abril	2023-06-04T00:00:00	2024-11-06T23:00:00	8	Radiación solar	0
88505	7	Sololá	702	San José Chacayá	5	Chacayá	4	Abril	2023-07-04T00:00:00	2024-11-06T00:00:00	2	Temperatura media	11.9
88506	7	Sololá	702	San José Chacayá	5	Chacayá	4	Abril	2023-07-04T00:00:00	2024-11-06T00:00:00	4	Temperatura máxima	14.4
88507	7	Sololá	702	San José Chacayá	5	Chacayá	4	Abril	2023-07-04T00:00:00	2024-11-06T00:00:00	3	Temperatura mínima	11.9
88508	7	Sololá	702	San José Chacayá	5	Chacayá	4	Abril	2023-07-04T00:00:00	2024-11-06T00:00:00	5	Humedad	90
88509	7	Sololá	702	San José Chacayá	5	Chacayá	4	Abril	2023-07-04T00:00:00	2024-11-06T00:00:00	6	Velocidad del viento	0
88510	7	Sololá	702	San José Chacayá	5	Chacayá	4	Abril	2023-07-04T00:00:00	2024-11-06T00:00:00	7	Dirección del viento	0
88511	7	Sololá	702	San José Chacayá	5	Chacayá	4	Abril	2023-07-04T00:00:00	2024-11-06T00:00:00	1	Precipitación	0
88512	7	Sololá	702	San José Chacayá	5	Chacayá	4	Abril	2023-07-04T00:00:00	2024-11-06T00:00:00	8	Radiación solar	0
88513	7	Sololá	702	San José Chacayá	5	Chacayá	4	Abril	2023-07-04T00:00:00	2024-11-06T01:00:00	2	Temperatura media	11.1
88514	7	Sololá	702	San José Chacayá	5	Chacayá	4	Abril	2023-07-04T00:00:00	2024-11-06T01:00:00	4	Temperatura máxima	11.9
88515	7	Sololá	702	San José Chacayá	5	Chacayá	4	Abril	2023-07-04T00:00:00	2024-11-06T01:00:00	3	Temperatura mínima	11.1
88516	7	Sololá	702	San José Chacayá	5	Chacayá	4	Abril	2023-07-04T00:00:00	2024-11-06T01:00:00	5	Humedad	91
88517	7	Sololá	702	San José Chacayá	5	Chacayá	4	Abril	2023-07-04T00:00:00	2024-11-06T01:00:00	6	Velocidad del viento	0
88518	7	Sololá	702	San José Chacayá	5	Chacayá	4	Abril	2023-07-04T00:00:00	2024-11-06T01:00:00	7	Dirección del viento	0
88519	7	Sololá	702	San José Chacayá	5	Chacayá	4	Abril	2023-07-04T00:00:00	2024-11-06T01:00:00	1	Precipitación	0
88520	7	Sololá	702	San José Chacayá	5	Chacayá	4	Abril	2023-07-04T00:00:00	2024-11-06T01:00:00	8	Radiación solar	0
88521	7	Sololá	702	San José Chacayá	5	Chacayá	4	Abril	2023-07-04T00:00:00	2024-11-06T02:00:00	2	Temperatura media	11.4
88522	7	Sololá	702	San José Chacayá	5	Chacayá	4	Abril	2023-07-04T00:00:00	2024-11-06T02:00:00	4	Temperatura máxima	11.6
88523	7	Sololá	702	San José Chacayá	5	Chacayá	4	Abril	2023-07-04T00:00:00	2024-11-06T02:00:00	3	Temperatura mínima	11.1
88524	7	Sololá	702	San José Chacayá	5	Chacayá	4	Abril	2023-07-04T00:00:00	2024-11-06T02:00:00	5	Humedad	91
88525	7	Sololá	702	San José Chacayá	5	Chacayá	4	Abril	2023-07-04T00:00:00	2024-11-06T02:00:00	6	Velocidad del viento	0
88526	7	Sololá	702	San José Chacayá	5	Chacayá	4	Abril	2023-07-04T00:00:00	2024-11-06T02:00:00	7	Dirección del viento	0
88527	7	Sololá	702	San José Chacayá	5	Chacayá	4	Abril	2023-07-04T00:00:00	2024-11-06T02:00:00	1	Precipitación	0
88528	7	Sololá	702	San José Chacayá	5	Chacayá	4	Abril	2023-07-04T00:00:00	2024-11-06T02:00:00	8	Radiación solar	0
88529	7	Sololá	702	San José Chacayá	5	Chacayá	4	Abril	2023-07-04T00:00:00	2024-11-06T03:00:00	2	Temperatura media	10.7
88530	7	Sololá	702	San José Chacayá	5	Chacayá	4	Abril	2023-07-04T00:00:00	2024-11-06T03:00:00	4	Temperatura máxima	11.5
88531	7	Sololá	702	San José Chacayá	5	Chacayá	4	Abril	2023-07-04T00:00:00	2024-11-06T03:00:00	3	Temperatura mínima	10.6
88532	7	Sololá	702	San José Chacayá	5	Chacayá	4	Abril	2023-07-04T00:00:00	2024-11-06T03:00:00	5	Humedad	93
88533	7	Sololá	702	San José Chacayá	5	Chacayá	4	Abril	2023-07-04T00:00:00	2024-11-06T03:00:00	6	Velocidad del viento	0
88534	7	Sololá	702	San José Chacayá	5	Chacayá	4	Abril	2023-07-04T00:00:00	2024-11-06T03:00:00	7	Dirección del viento	0
88535	7	Sololá	702	San José Chacayá	5	Chacayá	4	Abril	2023-07-04T00:00:00	2024-11-06T03:00:00	1	Precipitación	0
88536	7	Sololá	702	San José Chacayá	5	Chacayá	4	Abril	2023-07-04T00:00:00	2024-11-06T03:00:00	8	Radiación solar	0
88537	7	Sololá	702	San José Chacayá	5	Chacayá	4	Abril	2023-07-04T00:00:00	2024-11-06T04:00:00	2	Temperatura media	10.1
88538	7	Sololá	702	San José Chacayá	5	Chacayá	4	Abril	2023-07-04T00:00:00	2024-11-06T04:00:00	4	Temperatura máxima	10.7
88539	7	Sololá	702	San José Chacayá	5	Chacayá	4	Abril	2023-07-04T00:00:00	2024-11-06T04:00:00	3	Temperatura mínima	10
88540	7	Sololá	702	San José Chacayá	5	Chacayá	4	Abril	2023-07-04T00:00:00	2024-11-06T04:00:00	5	Humedad	94
88541	7	Sololá	702	San José Chacayá	5	Chacayá	4	Abril	2023-07-04T00:00:00	2024-11-06T04:00:00	6	Velocidad del viento	0
88542	7	Sololá	702	San José Chacayá	5	Chacayá	4	Abril	2023-07-04T00:00:00	2024-11-06T04:00:00	7	Dirección del viento	0
88543	7	Sololá	702	San José Chacayá	5	Chacayá	4	Abril	2023-07-04T00:00:00	2024-11-06T04:00:00	1	Precipitación	0
88544	7	Sololá	702	San José Chacayá	5	Chacayá	4	Abril	2023-07-04T00:00:00	2024-11-06T04:00:00	8	Radiación solar	0
88545	7	Sololá	702	San José Chacayá	5	Chacayá	4	Abril	2023-07-04T00:00:00	2024-11-06T05:00:00	2	Temperatura media	9.3
88546	7	Sololá	702	San José Chacayá	5	Chacayá	4	Abril	2023-07-04T00:00:00	2024-11-06T05:00:00	4	Temperatura máxima	10.1
88547	7	Sololá	702	San José Chacayá	5	Chacayá	4	Abril	2023-07-04T00:00:00	2024-11-06T05:00:00	3	Temperatura mínima	9.3
88548	7	Sololá	702	San José Chacayá	5	Chacayá	4	Abril	2023-07-04T00:00:00	2024-11-06T05:00:00	5	Humedad	94
88549	7	Sololá	702	San José Chacayá	5	Chacayá	4	Abril	2023-07-04T00:00:00	2024-11-06T05:00:00	6	Velocidad del viento	1.6
88550	7	Sololá	702	San José Chacayá	5	Chacayá	4	Abril	2023-07-04T00:00:00	2024-11-06T05:00:00	7	Dirección del viento	1.61
88551	7	Sololá	702	San José Chacayá	5	Chacayá	4	Abril	2023-07-04T00:00:00	2024-11-06T05:00:00	1	Precipitación	0
88552	7	Sololá	702	San José Chacayá	5	Chacayá	4	Abril	2023-07-04T00:00:00	2024-11-06T05:00:00	8	Radiación solar	0
88553	7	Sololá	702	San José Chacayá	5	Chacayá	4	Abril	2023-07-04T00:00:00	2024-11-06T06:00:00	2	Temperatura media	8.6
88554	7	Sololá	702	San José Chacayá	5	Chacayá	4	Abril	2023-07-04T00:00:00	2024-11-06T06:00:00	4	Temperatura máxima	9.3
88555	7	Sololá	702	San José Chacayá	5	Chacayá	4	Abril	2023-07-04T00:00:00	2024-11-06T06:00:00	3	Temperatura mínima	8.6
88556	7	Sololá	702	San José Chacayá	5	Chacayá	4	Abril	2023-07-04T00:00:00	2024-11-06T06:00:00	5	Humedad	95
88557	7	Sololá	702	San José Chacayá	5	Chacayá	4	Abril	2023-07-04T00:00:00	2024-11-06T06:00:00	6	Velocidad del viento	0
88558	7	Sololá	702	San José Chacayá	5	Chacayá	4	Abril	2023-07-04T00:00:00	2024-11-06T06:00:00	7	Dirección del viento	0
88559	7	Sololá	702	San José Chacayá	5	Chacayá	4	Abril	2023-07-04T00:00:00	2024-11-06T06:00:00	1	Precipitación	0
88560	7	Sololá	702	San José Chacayá	5	Chacayá	4	Abril	2023-07-04T00:00:00	2024-11-06T06:00:00	8	Radiación solar	0
88561	7	Sololá	702	San José Chacayá	5	Chacayá	4	Abril	2023-07-04T00:00:00	2024-11-06T07:00:00	2	Temperatura media	8.4
88562	7	Sololá	702	San José Chacayá	5	Chacayá	4	Abril	2023-07-04T00:00:00	2024-11-06T07:00:00	4	Temperatura máxima	8.7
88563	7	Sololá	702	San José Chacayá	5	Chacayá	4	Abril	2023-07-04T00:00:00	2024-11-06T07:00:00	3	Temperatura mínima	8.3
88564	7	Sololá	702	San José Chacayá	5	Chacayá	4	Abril	2023-07-04T00:00:00	2024-11-06T07:00:00	5	Humedad	95
88565	7	Sololá	702	San José Chacayá	5	Chacayá	4	Abril	2023-07-04T00:00:00	2024-11-06T07:00:00	6	Velocidad del viento	0
88566	7	Sololá	702	San José Chacayá	5	Chacayá	4	Abril	2023-07-04T00:00:00	2024-11-06T07:00:00	7	Dirección del viento	0
88567	7	Sololá	702	San José Chacayá	5	Chacayá	4	Abril	2023-07-04T00:00:00	2024-11-06T07:00:00	1	Precipitación	0
88568	7	Sololá	702	San José Chacayá	5	Chacayá	4	Abril	2023-07-04T00:00:00	2024-11-06T07:00:00	8	Radiación solar	0
88569	7	Sololá	702	San José Chacayá	5	Chacayá	4	Abril	2023-07-04T00:00:00	2024-11-06T08:00:00	2	Temperatura media	10
88570	7	Sololá	702	San José Chacayá	5	Chacayá	4	Abril	2023-07-04T00:00:00	2024-11-06T08:00:00	4	Temperatura máxima	10
88571	7	Sololá	702	San José Chacayá	5	Chacayá	4	Abril	2023-07-04T00:00:00	2024-11-06T08:00:00	3	Temperatura mínima	8.4
88572	7	Sololá	702	San José Chacayá	5	Chacayá	4	Abril	2023-07-04T00:00:00	2024-11-06T08:00:00	5	Humedad	95
88573	7	Sololá	702	San José Chacayá	5	Chacayá	4	Abril	2023-07-04T00:00:00	2024-11-06T08:00:00	6	Velocidad del viento	1.6
88574	7	Sololá	702	San José Chacayá	5	Chacayá	4	Abril	2023-07-04T00:00:00	2024-11-06T08:00:00	7	Dirección del viento	1.61
88575	7	Sololá	702	San José Chacayá	5	Chacayá	4	Abril	2023-07-04T00:00:00	2024-11-06T08:00:00	1	Precipitación	0
88576	7	Sololá	702	San José Chacayá	5	Chacayá	4	Abril	2023-07-04T00:00:00	2024-11-06T08:00:00	8	Radiación solar	25
88577	7	Sololá	702	San José Chacayá	5	Chacayá	4	Abril	2023-07-04T00:00:00	2024-11-06T09:00:00	2	Temperatura media	14.7
88578	7	Sololá	702	San José Chacayá	5	Chacayá	4	Abril	2023-07-04T00:00:00	2024-11-06T09:00:00	4	Temperatura máxima	14.7
88579	7	Sololá	702	San José Chacayá	5	Chacayá	4	Abril	2023-07-04T00:00:00	2024-11-06T09:00:00	3	Temperatura mínima	10
88580	7	Sololá	702	San José Chacayá	5	Chacayá	4	Abril	2023-07-04T00:00:00	2024-11-06T09:00:00	5	Humedad	79
88581	7	Sololá	702	San José Chacayá	5	Chacayá	4	Abril	2023-07-04T00:00:00	2024-11-06T09:00:00	6	Velocidad del viento	1.6
88582	7	Sololá	702	San José Chacayá	5	Chacayá	4	Abril	2023-07-04T00:00:00	2024-11-06T09:00:00	7	Dirección del viento	1.61
88583	7	Sololá	702	San José Chacayá	5	Chacayá	4	Abril	2023-07-04T00:00:00	2024-11-06T09:00:00	1	Precipitación	0
88584	7	Sololá	702	San José Chacayá	5	Chacayá	4	Abril	2023-07-04T00:00:00	2024-11-06T09:00:00	8	Radiación solar	41
88585	7	Sololá	702	San José Chacayá	5	Chacayá	4	Abril	2023-07-04T00:00:00	2024-11-06T10:00:00	2	Temperatura media	18.4
88586	7	Sololá	702	San José Chacayá	5	Chacayá	4	Abril	2023-07-04T00:00:00	2024-11-06T10:00:00	4	Temperatura máxima	18.4
88587	7	Sololá	702	San José Chacayá	5	Chacayá	4	Abril	2023-07-04T00:00:00	2024-11-06T10:00:00	3	Temperatura mínima	14.7
88588	7	Sololá	702	San José Chacayá	5	Chacayá	4	Abril	2023-07-04T00:00:00	2024-11-06T10:00:00	5	Humedad	63
88589	7	Sololá	702	San José Chacayá	5	Chacayá	4	Abril	2023-07-04T00:00:00	2024-11-06T10:00:00	6	Velocidad del viento	3.2
88590	7	Sololá	702	San José Chacayá	5	Chacayá	4	Abril	2023-07-04T00:00:00	2024-11-06T10:00:00	7	Dirección del viento	3.22
88591	7	Sololá	702	San José Chacayá	5	Chacayá	4	Abril	2023-07-04T00:00:00	2024-11-06T10:00:00	1	Precipitación	0
88592	7	Sololá	702	San José Chacayá	5	Chacayá	4	Abril	2023-07-04T00:00:00	2024-11-06T10:00:00	8	Radiación solar	471
88593	7	Sololá	702	San José Chacayá	5	Chacayá	4	Abril	2023-07-04T00:00:00	2024-11-06T11:00:00	2	Temperatura media	20.9
88594	7	Sololá	702	San José Chacayá	5	Chacayá	4	Abril	2023-07-04T00:00:00	2024-11-06T11:00:00	4	Temperatura máxima	21.1
88595	7	Sololá	702	San José Chacayá	5	Chacayá	4	Abril	2023-07-04T00:00:00	2024-11-06T11:00:00	3	Temperatura mínima	18.4
88596	7	Sololá	702	San José Chacayá	5	Chacayá	4	Abril	2023-07-04T00:00:00	2024-11-06T11:00:00	5	Humedad	54
88597	7	Sololá	702	San José Chacayá	5	Chacayá	4	Abril	2023-07-04T00:00:00	2024-11-06T11:00:00	6	Velocidad del viento	3.2
88598	7	Sololá	702	San José Chacayá	5	Chacayá	4	Abril	2023-07-04T00:00:00	2024-11-06T11:00:00	7	Dirección del viento	3.22
88599	7	Sololá	702	San José Chacayá	5	Chacayá	4	Abril	2023-07-04T00:00:00	2024-11-06T11:00:00	1	Precipitación	0
88600	7	Sololá	702	San José Chacayá	5	Chacayá	4	Abril	2023-07-04T00:00:00	2024-11-06T11:00:00	8	Radiación solar	793
88601	7	Sololá	702	San José Chacayá	5	Chacayá	4	Abril	2023-07-04T00:00:00	2024-11-06T12:00:00	2	Temperatura media	23.1
88602	7	Sololá	702	San José Chacayá	5	Chacayá	4	Abril	2023-07-04T00:00:00	2024-11-06T12:00:00	4	Temperatura máxima	23.1
88603	7	Sololá	702	San José Chacayá	5	Chacayá	4	Abril	2023-07-04T00:00:00	2024-11-06T12:00:00	3	Temperatura mínima	20.9
88604	7	Sololá	702	San José Chacayá	5	Chacayá	4	Abril	2023-07-04T00:00:00	2024-11-06T12:00:00	5	Humedad	48
88605	7	Sololá	702	San José Chacayá	5	Chacayá	4	Abril	2023-07-04T00:00:00	2024-11-06T12:00:00	6	Velocidad del viento	4.8
88606	7	Sololá	702	San José Chacayá	5	Chacayá	4	Abril	2023-07-04T00:00:00	2024-11-06T12:00:00	7	Dirección del viento	4.83
88607	7	Sololá	702	San José Chacayá	5	Chacayá	4	Abril	2023-07-04T00:00:00	2024-11-06T12:00:00	1	Precipitación	0
88608	7	Sololá	702	San José Chacayá	5	Chacayá	4	Abril	2023-07-04T00:00:00	2024-11-06T12:00:00	8	Radiación solar	927
88609	7	Sololá	702	San José Chacayá	5	Chacayá	4	Abril	2023-07-04T00:00:00	2024-11-06T13:00:00	2	Temperatura media	22.8
88610	7	Sololá	702	San José Chacayá	5	Chacayá	4	Abril	2023-07-04T00:00:00	2024-11-06T13:00:00	4	Temperatura máxima	23.1
88611	7	Sololá	702	San José Chacayá	5	Chacayá	4	Abril	2023-07-04T00:00:00	2024-11-06T13:00:00	3	Temperatura mínima	22.6
88612	7	Sololá	702	San José Chacayá	5	Chacayá	4	Abril	2023-07-04T00:00:00	2024-11-06T13:00:00	5	Humedad	60
88613	7	Sololá	702	San José Chacayá	5	Chacayá	4	Abril	2023-07-04T00:00:00	2024-11-06T13:00:00	6	Velocidad del viento	6.4
88614	7	Sololá	702	San José Chacayá	5	Chacayá	4	Abril	2023-07-04T00:00:00	2024-11-06T13:00:00	7	Dirección del viento	6.44
88615	7	Sololá	702	San José Chacayá	5	Chacayá	4	Abril	2023-07-04T00:00:00	2024-11-06T13:00:00	1	Precipitación	0
88616	7	Sololá	702	San José Chacayá	5	Chacayá	4	Abril	2023-07-04T00:00:00	2024-11-06T13:00:00	8	Radiación solar	627
88617	7	Sololá	702	San José Chacayá	5	Chacayá	4	Abril	2023-07-04T00:00:00	2024-11-06T14:00:00	2	Temperatura media	20.9
88618	7	Sololá	702	San José Chacayá	5	Chacayá	4	Abril	2023-07-04T00:00:00	2024-11-06T14:00:00	4	Temperatura máxima	22.8
88619	7	Sololá	702	San José Chacayá	5	Chacayá	4	Abril	2023-07-04T00:00:00	2024-11-06T14:00:00	3	Temperatura mínima	20.9
88620	7	Sololá	702	San José Chacayá	5	Chacayá	4	Abril	2023-07-04T00:00:00	2024-11-06T14:00:00	5	Humedad	68
88621	7	Sololá	702	San José Chacayá	5	Chacayá	4	Abril	2023-07-04T00:00:00	2024-11-06T14:00:00	6	Velocidad del viento	6.4
88622	7	Sololá	702	San José Chacayá	5	Chacayá	4	Abril	2023-07-04T00:00:00	2024-11-06T14:00:00	7	Dirección del viento	6.44
88623	7	Sololá	702	San José Chacayá	5	Chacayá	4	Abril	2023-07-04T00:00:00	2024-11-06T14:00:00	1	Precipitación	0
88624	7	Sololá	702	San José Chacayá	5	Chacayá	4	Abril	2023-07-04T00:00:00	2024-11-06T14:00:00	8	Radiación solar	1000
88625	7	Sololá	702	San José Chacayá	5	Chacayá	4	Abril	2023-07-04T00:00:00	2024-11-06T15:00:00	2	Temperatura media	18.8
88626	7	Sololá	702	San José Chacayá	5	Chacayá	4	Abril	2023-07-04T00:00:00	2024-11-06T15:00:00	4	Temperatura máxima	20.9
88627	7	Sololá	702	San José Chacayá	5	Chacayá	4	Abril	2023-07-04T00:00:00	2024-11-06T15:00:00	3	Temperatura mínima	18.8
88628	7	Sololá	702	San José Chacayá	5	Chacayá	4	Abril	2023-07-04T00:00:00	2024-11-06T15:00:00	5	Humedad	76
88629	7	Sololá	702	San José Chacayá	5	Chacayá	4	Abril	2023-07-04T00:00:00	2024-11-06T15:00:00	6	Velocidad del viento	6.4
88630	7	Sololá	702	San José Chacayá	5	Chacayá	4	Abril	2023-07-04T00:00:00	2024-11-06T15:00:00	7	Dirección del viento	6.44
88631	7	Sololá	702	San José Chacayá	5	Chacayá	4	Abril	2023-07-04T00:00:00	2024-11-06T15:00:00	1	Precipitación	0
88632	7	Sololá	702	San José Chacayá	5	Chacayá	4	Abril	2023-07-04T00:00:00	2024-11-06T15:00:00	8	Radiación solar	927
88633	7	Sololá	702	San José Chacayá	5	Chacayá	4	Abril	2023-07-04T00:00:00	2024-11-06T16:00:00	2	Temperatura media	18.6
88634	7	Sololá	702	San José Chacayá	5	Chacayá	4	Abril	2023-07-04T00:00:00	2024-11-06T16:00:00	4	Temperatura máxima	19.8
88635	7	Sololá	702	San José Chacayá	5	Chacayá	4	Abril	2023-07-04T00:00:00	2024-11-06T16:00:00	3	Temperatura mínima	18.6
88636	7	Sololá	702	San José Chacayá	5	Chacayá	4	Abril	2023-07-04T00:00:00	2024-11-06T16:00:00	5	Humedad	79
88637	7	Sololá	702	San José Chacayá	5	Chacayá	4	Abril	2023-07-04T00:00:00	2024-11-06T16:00:00	6	Velocidad del viento	4.8
88638	7	Sololá	702	San José Chacayá	5	Chacayá	4	Abril	2023-07-04T00:00:00	2024-11-06T16:00:00	7	Dirección del viento	4.83
88639	7	Sololá	702	San José Chacayá	5	Chacayá	4	Abril	2023-07-04T00:00:00	2024-11-06T16:00:00	1	Precipitación	0
88640	7	Sololá	702	San José Chacayá	5	Chacayá	4	Abril	2023-07-04T00:00:00	2024-11-06T16:00:00	8	Radiación solar	788
88641	7	Sololá	702	San José Chacayá	5	Chacayá	4	Abril	2023-07-04T00:00:00	2024-11-06T17:00:00	2	Temperatura media	17.9
88642	7	Sololá	702	San José Chacayá	5	Chacayá	4	Abril	2023-07-04T00:00:00	2024-11-06T17:00:00	4	Temperatura máxima	18.7
88643	7	Sololá	702	San José Chacayá	5	Chacayá	4	Abril	2023-07-04T00:00:00	2024-11-06T17:00:00	3	Temperatura mínima	17.7
88644	7	Sololá	702	San José Chacayá	5	Chacayá	4	Abril	2023-07-04T00:00:00	2024-11-06T17:00:00	5	Humedad	79
88645	7	Sololá	702	San José Chacayá	5	Chacayá	4	Abril	2023-07-04T00:00:00	2024-11-06T17:00:00	6	Velocidad del viento	4.8
88646	7	Sololá	702	San José Chacayá	5	Chacayá	4	Abril	2023-07-04T00:00:00	2024-11-06T17:00:00	7	Dirección del viento	4.83
88647	7	Sololá	702	San José Chacayá	5	Chacayá	4	Abril	2023-07-04T00:00:00	2024-11-06T17:00:00	1	Precipitación	0
88648	7	Sololá	702	San José Chacayá	5	Chacayá	4	Abril	2023-07-04T00:00:00	2024-11-06T17:00:00	8	Radiación solar	580
88649	7	Sololá	702	San José Chacayá	5	Chacayá	4	Abril	2023-07-04T00:00:00	2024-11-06T18:00:00	2	Temperatura media	17.6
88650	7	Sololá	702	San José Chacayá	5	Chacayá	4	Abril	2023-07-04T00:00:00	2024-11-06T18:00:00	4	Temperatura máxima	17.9
88651	7	Sololá	702	San José Chacayá	5	Chacayá	4	Abril	2023-07-04T00:00:00	2024-11-06T18:00:00	3	Temperatura mínima	17.6
88652	7	Sololá	702	San José Chacayá	5	Chacayá	4	Abril	2023-07-04T00:00:00	2024-11-06T18:00:00	5	Humedad	84
88653	7	Sololá	702	San José Chacayá	5	Chacayá	4	Abril	2023-07-04T00:00:00	2024-11-06T18:00:00	6	Velocidad del viento	3.2
88654	7	Sololá	702	San José Chacayá	5	Chacayá	4	Abril	2023-07-04T00:00:00	2024-11-06T18:00:00	7	Dirección del viento	3.22
88655	7	Sololá	702	San José Chacayá	5	Chacayá	4	Abril	2023-07-04T00:00:00	2024-11-06T18:00:00	1	Precipitación	0
88656	7	Sololá	702	San José Chacayá	5	Chacayá	4	Abril	2023-07-04T00:00:00	2024-11-06T18:00:00	8	Radiación solar	158
88657	7	Sololá	702	San José Chacayá	5	Chacayá	4	Abril	2023-07-04T00:00:00	2024-11-06T19:00:00	2	Temperatura media	16.4
88658	7	Sololá	702	San José Chacayá	5	Chacayá	4	Abril	2023-07-04T00:00:00	2024-11-06T19:00:00	4	Temperatura máxima	17.6
88659	7	Sololá	702	San José Chacayá	5	Chacayá	4	Abril	2023-07-04T00:00:00	2024-11-06T19:00:00	3	Temperatura mínima	16.4
88660	7	Sololá	702	San José Chacayá	5	Chacayá	4	Abril	2023-07-04T00:00:00	2024-11-06T19:00:00	5	Humedad	88
88661	7	Sololá	702	San José Chacayá	5	Chacayá	4	Abril	2023-07-04T00:00:00	2024-11-06T19:00:00	6	Velocidad del viento	3.2
88662	7	Sololá	702	San José Chacayá	5	Chacayá	4	Abril	2023-07-04T00:00:00	2024-11-06T19:00:00	7	Dirección del viento	3.22
88663	7	Sololá	702	San José Chacayá	5	Chacayá	4	Abril	2023-07-04T00:00:00	2024-11-06T19:00:00	1	Precipitación	0
88664	7	Sololá	702	San José Chacayá	5	Chacayá	4	Abril	2023-07-04T00:00:00	2024-11-06T19:00:00	8	Radiación solar	0
88665	7	Sololá	702	San José Chacayá	5	Chacayá	4	Abril	2023-07-04T00:00:00	2024-11-06T20:00:00	2	Temperatura media	15.6
88666	7	Sololá	702	San José Chacayá	5	Chacayá	4	Abril	2023-07-04T00:00:00	2024-11-06T20:00:00	4	Temperatura máxima	16.4
88667	7	Sololá	702	San José Chacayá	5	Chacayá	4	Abril	2023-07-04T00:00:00	2024-11-06T20:00:00	3	Temperatura mínima	15.6
88668	7	Sololá	702	San José Chacayá	5	Chacayá	4	Abril	2023-07-04T00:00:00	2024-11-06T20:00:00	5	Humedad	89
88669	7	Sololá	702	San José Chacayá	5	Chacayá	4	Abril	2023-07-04T00:00:00	2024-11-06T20:00:00	6	Velocidad del viento	1.6
88670	7	Sololá	702	San José Chacayá	5	Chacayá	4	Abril	2023-07-04T00:00:00	2024-11-06T20:00:00	7	Dirección del viento	1.61
88671	7	Sololá	702	San José Chacayá	5	Chacayá	4	Abril	2023-07-04T00:00:00	2024-11-06T20:00:00	1	Precipitación	0
88672	7	Sololá	702	San José Chacayá	5	Chacayá	4	Abril	2023-07-04T00:00:00	2024-11-06T20:00:00	8	Radiación solar	0
88673	7	Sololá	702	San José Chacayá	5	Chacayá	4	Abril	2023-07-04T00:00:00	2024-11-06T21:00:00	2	Temperatura media	14.9
88674	7	Sololá	702	San José Chacayá	5	Chacayá	4	Abril	2023-07-04T00:00:00	2024-11-06T21:00:00	4	Temperatura máxima	15.6
88675	7	Sololá	702	San José Chacayá	5	Chacayá	4	Abril	2023-07-04T00:00:00	2024-11-06T21:00:00	3	Temperatura mínima	14.9
88676	7	Sololá	702	San José Chacayá	5	Chacayá	4	Abril	2023-07-04T00:00:00	2024-11-06T21:00:00	5	Humedad	77
88677	7	Sololá	702	San José Chacayá	5	Chacayá	4	Abril	2023-07-04T00:00:00	2024-11-06T21:00:00	6	Velocidad del viento	3.2
88678	7	Sololá	702	San José Chacayá	5	Chacayá	4	Abril	2023-07-04T00:00:00	2024-11-06T21:00:00	7	Dirección del viento	3.22
88679	7	Sololá	702	San José Chacayá	5	Chacayá	4	Abril	2023-07-04T00:00:00	2024-11-06T21:00:00	1	Precipitación	0
88680	7	Sololá	702	San José Chacayá	5	Chacayá	4	Abril	2023-07-04T00:00:00	2024-11-06T21:00:00	8	Radiación solar	0
88681	7	Sololá	702	San José Chacayá	5	Chacayá	4	Abril	2023-07-04T00:00:00	2024-11-06T22:00:00	2	Temperatura media	13.9
88682	7	Sololá	702	San José Chacayá	5	Chacayá	4	Abril	2023-07-04T00:00:00	2024-11-06T22:00:00	4	Temperatura máxima	14.9
88683	7	Sololá	702	San José Chacayá	5	Chacayá	4	Abril	2023-07-04T00:00:00	2024-11-06T22:00:00	3	Temperatura mínima	13.7
88684	7	Sololá	702	San José Chacayá	5	Chacayá	4	Abril	2023-07-04T00:00:00	2024-11-06T22:00:00	5	Humedad	83
88685	7	Sololá	702	San José Chacayá	5	Chacayá	4	Abril	2023-07-04T00:00:00	2024-11-06T22:00:00	6	Velocidad del viento	1.6
88686	7	Sololá	702	San José Chacayá	5	Chacayá	4	Abril	2023-07-04T00:00:00	2024-11-06T22:00:00	7	Dirección del viento	1.61
88687	7	Sololá	702	San José Chacayá	5	Chacayá	4	Abril	2023-07-04T00:00:00	2024-11-06T22:00:00	1	Precipitación	0
88688	7	Sololá	702	San José Chacayá	5	Chacayá	4	Abril	2023-07-04T00:00:00	2024-11-06T22:00:00	8	Radiación solar	0
88689	7	Sololá	702	San José Chacayá	5	Chacayá	4	Abril	2023-07-04T00:00:00	2024-11-06T23:00:00	2	Temperatura media	14
88690	7	Sololá	702	San José Chacayá	5	Chacayá	4	Abril	2023-07-04T00:00:00	2024-11-06T23:00:00	4	Temperatura máxima	14.1
88691	7	Sololá	702	San José Chacayá	5	Chacayá	4	Abril	2023-07-04T00:00:00	2024-11-06T23:00:00	3	Temperatura mínima	13.7
88692	7	Sololá	702	San José Chacayá	5	Chacayá	4	Abril	2023-07-04T00:00:00	2024-11-06T23:00:00	5	Humedad	82
88693	7	Sololá	702	San José Chacayá	5	Chacayá	4	Abril	2023-07-04T00:00:00	2024-11-06T23:00:00	6	Velocidad del viento	1.6
88694	7	Sololá	702	San José Chacayá	5	Chacayá	4	Abril	2023-07-04T00:00:00	2024-11-06T23:00:00	7	Dirección del viento	1.61
88695	7	Sololá	702	San José Chacayá	5	Chacayá	4	Abril	2023-07-04T00:00:00	2024-11-06T23:00:00	1	Precipitación	0
88696	7	Sololá	702	San José Chacayá	5	Chacayá	4	Abril	2023-07-04T00:00:00	2024-11-06T23:00:00	8	Radiación solar	0
88697	7	Sololá	702	San José Chacayá	5	Chacayá	4	Abril	2023-08-04T00:00:00	2024-11-06T00:00:00	2	Temperatura media	13.9
88698	7	Sololá	702	San José Chacayá	5	Chacayá	4	Abril	2023-08-04T00:00:00	2024-11-06T00:00:00	4	Temperatura máxima	14
88699	7	Sololá	702	San José Chacayá	5	Chacayá	4	Abril	2023-08-04T00:00:00	2024-11-06T00:00:00	3	Temperatura mínima	13.7
88700	7	Sololá	702	San José Chacayá	5	Chacayá	4	Abril	2023-08-04T00:00:00	2024-11-06T00:00:00	5	Humedad	83
88701	7	Sololá	702	San José Chacayá	5	Chacayá	4	Abril	2023-08-04T00:00:00	2024-11-06T00:00:00	6	Velocidad del viento	1.6
88702	7	Sololá	702	San José Chacayá	5	Chacayá	4	Abril	2023-08-04T00:00:00	2024-11-06T00:00:00	7	Dirección del viento	1.61
88703	7	Sololá	702	San José Chacayá	5	Chacayá	4	Abril	2023-08-04T00:00:00	2024-11-06T00:00:00	1	Precipitación	0
88704	7	Sololá	702	San José Chacayá	5	Chacayá	4	Abril	2023-08-04T00:00:00	2024-11-06T00:00:00	8	Radiación solar	0
88705	7	Sololá	702	San José Chacayá	5	Chacayá	4	Abril	2023-08-04T00:00:00	2024-11-06T01:00:00	2	Temperatura media	14.2
88706	7	Sololá	702	San José Chacayá	5	Chacayá	4	Abril	2023-08-04T00:00:00	2024-11-06T01:00:00	4	Temperatura máxima	14.2
88707	7	Sololá	702	San José Chacayá	5	Chacayá	4	Abril	2023-08-04T00:00:00	2024-11-06T01:00:00	3	Temperatura mínima	13.6
88708	7	Sololá	702	San José Chacayá	5	Chacayá	4	Abril	2023-08-04T00:00:00	2024-11-06T01:00:00	5	Humedad	84
88709	7	Sololá	702	San José Chacayá	5	Chacayá	4	Abril	2023-08-04T00:00:00	2024-11-06T01:00:00	6	Velocidad del viento	1.6
88710	7	Sololá	702	San José Chacayá	5	Chacayá	4	Abril	2023-08-04T00:00:00	2024-11-06T01:00:00	7	Dirección del viento	1.61
88711	7	Sololá	702	San José Chacayá	5	Chacayá	4	Abril	2023-08-04T00:00:00	2024-11-06T01:00:00	1	Precipitación	0
88712	7	Sololá	702	San José Chacayá	5	Chacayá	4	Abril	2023-08-04T00:00:00	2024-11-06T01:00:00	8	Radiación solar	0
88713	7	Sololá	702	San José Chacayá	5	Chacayá	4	Abril	2023-08-04T00:00:00	2024-11-06T02:00:00	2	Temperatura media	13.8
88714	7	Sololá	702	San José Chacayá	5	Chacayá	4	Abril	2023-08-04T00:00:00	2024-11-06T02:00:00	4	Temperatura máxima	14.3
88715	7	Sololá	702	San José Chacayá	5	Chacayá	4	Abril	2023-08-04T00:00:00	2024-11-06T02:00:00	3	Temperatura mínima	13.8
88716	7	Sololá	702	San José Chacayá	5	Chacayá	4	Abril	2023-08-04T00:00:00	2024-11-06T02:00:00	5	Humedad	84
88717	7	Sololá	702	San José Chacayá	5	Chacayá	4	Abril	2023-08-04T00:00:00	2024-11-06T02:00:00	6	Velocidad del viento	1.6
88718	7	Sololá	702	San José Chacayá	5	Chacayá	4	Abril	2023-08-04T00:00:00	2024-11-06T02:00:00	7	Dirección del viento	1.61
88719	7	Sololá	702	San José Chacayá	5	Chacayá	4	Abril	2023-08-04T00:00:00	2024-11-06T02:00:00	1	Precipitación	0
88720	7	Sololá	702	San José Chacayá	5	Chacayá	4	Abril	2023-08-04T00:00:00	2024-11-06T02:00:00	8	Radiación solar	0
88721	7	Sololá	702	San José Chacayá	5	Chacayá	4	Abril	2023-08-04T00:00:00	2024-11-06T03:00:00	2	Temperatura media	11.4
88722	7	Sololá	702	San José Chacayá	5	Chacayá	4	Abril	2023-08-04T00:00:00	2024-11-06T03:00:00	4	Temperatura máxima	13.8
88723	7	Sololá	702	San José Chacayá	5	Chacayá	4	Abril	2023-08-04T00:00:00	2024-11-06T03:00:00	3	Temperatura mínima	11.4
88724	7	Sololá	702	San José Chacayá	5	Chacayá	4	Abril	2023-08-04T00:00:00	2024-11-06T03:00:00	5	Humedad	89
88725	7	Sololá	702	San José Chacayá	5	Chacayá	4	Abril	2023-08-04T00:00:00	2024-11-06T03:00:00	6	Velocidad del viento	0
88726	7	Sololá	702	San José Chacayá	5	Chacayá	4	Abril	2023-08-04T00:00:00	2024-11-06T03:00:00	7	Dirección del viento	0
88727	7	Sololá	702	San José Chacayá	5	Chacayá	4	Abril	2023-08-04T00:00:00	2024-11-06T03:00:00	1	Precipitación	0
88728	7	Sololá	702	San José Chacayá	5	Chacayá	4	Abril	2023-08-04T00:00:00	2024-11-06T03:00:00	8	Radiación solar	0
88729	7	Sololá	702	San José Chacayá	5	Chacayá	4	Abril	2023-08-04T00:00:00	2024-11-06T04:00:00	2	Temperatura media	9.6
88730	7	Sololá	702	San José Chacayá	5	Chacayá	4	Abril	2023-08-04T00:00:00	2024-11-06T04:00:00	4	Temperatura máxima	11.4
88731	7	Sololá	702	San José Chacayá	5	Chacayá	4	Abril	2023-08-04T00:00:00	2024-11-06T04:00:00	3	Temperatura mínima	9.5
88732	7	Sololá	702	San José Chacayá	5	Chacayá	4	Abril	2023-08-04T00:00:00	2024-11-06T04:00:00	5	Humedad	92
88733	7	Sololá	702	San José Chacayá	5	Chacayá	4	Abril	2023-08-04T00:00:00	2024-11-06T04:00:00	6	Velocidad del viento	0
88734	7	Sololá	702	San José Chacayá	5	Chacayá	4	Abril	2023-08-04T00:00:00	2024-11-06T04:00:00	7	Dirección del viento	0
88735	7	Sololá	702	San José Chacayá	5	Chacayá	4	Abril	2023-08-04T00:00:00	2024-11-06T04:00:00	1	Precipitación	0
88736	7	Sololá	702	San José Chacayá	5	Chacayá	4	Abril	2023-08-04T00:00:00	2024-11-06T04:00:00	8	Radiación solar	0
88737	7	Sololá	702	San José Chacayá	5	Chacayá	4	Abril	2023-08-04T00:00:00	2024-11-06T05:00:00	2	Temperatura media	8.8
88738	7	Sololá	702	San José Chacayá	5	Chacayá	4	Abril	2023-08-04T00:00:00	2024-11-06T05:00:00	4	Temperatura máxima	9.6
88739	7	Sololá	702	San José Chacayá	5	Chacayá	4	Abril	2023-08-04T00:00:00	2024-11-06T05:00:00	3	Temperatura mínima	8.8
88740	7	Sololá	702	San José Chacayá	5	Chacayá	4	Abril	2023-08-04T00:00:00	2024-11-06T05:00:00	5	Humedad	92
88741	7	Sololá	702	San José Chacayá	5	Chacayá	4	Abril	2023-08-04T00:00:00	2024-11-06T05:00:00	6	Velocidad del viento	0
88742	7	Sololá	702	San José Chacayá	5	Chacayá	4	Abril	2023-08-04T00:00:00	2024-11-06T05:00:00	7	Dirección del viento	0
88743	7	Sololá	702	San José Chacayá	5	Chacayá	4	Abril	2023-08-04T00:00:00	2024-11-06T05:00:00	1	Precipitación	0
88744	7	Sololá	702	San José Chacayá	5	Chacayá	4	Abril	2023-08-04T00:00:00	2024-11-06T05:00:00	8	Radiación solar	0
88745	7	Sololá	702	San José Chacayá	5	Chacayá	4	Abril	2023-08-04T00:00:00	2024-11-06T06:00:00	2	Temperatura media	8.2
88746	7	Sololá	702	San José Chacayá	5	Chacayá	4	Abril	2023-08-04T00:00:00	2024-11-06T06:00:00	4	Temperatura máxima	8.8
88747	7	Sololá	702	San José Chacayá	5	Chacayá	4	Abril	2023-08-04T00:00:00	2024-11-06T06:00:00	3	Temperatura mínima	8.2
88748	7	Sololá	702	San José Chacayá	5	Chacayá	4	Abril	2023-08-04T00:00:00	2024-11-06T06:00:00	5	Humedad	93
88749	7	Sololá	702	San José Chacayá	5	Chacayá	4	Abril	2023-08-04T00:00:00	2024-11-06T06:00:00	6	Velocidad del viento	0
88750	7	Sololá	702	San José Chacayá	5	Chacayá	4	Abril	2023-08-04T00:00:00	2024-11-06T06:00:00	7	Dirección del viento	0
88751	7	Sololá	702	San José Chacayá	5	Chacayá	4	Abril	2023-08-04T00:00:00	2024-11-06T06:00:00	1	Precipitación	0
88752	7	Sololá	702	San José Chacayá	5	Chacayá	4	Abril	2023-08-04T00:00:00	2024-11-06T06:00:00	8	Radiación solar	0
88753	7	Sololá	702	San José Chacayá	5	Chacayá	4	Abril	2023-08-04T00:00:00	2024-11-06T07:00:00	2	Temperatura media	8.1
88754	7	Sololá	702	San José Chacayá	5	Chacayá	4	Abril	2023-08-04T00:00:00	2024-11-06T07:00:00	4	Temperatura máxima	8.2
88755	7	Sololá	702	San José Chacayá	5	Chacayá	4	Abril	2023-08-04T00:00:00	2024-11-06T07:00:00	3	Temperatura mínima	7.9
88756	7	Sololá	702	San José Chacayá	5	Chacayá	4	Abril	2023-08-04T00:00:00	2024-11-06T07:00:00	5	Humedad	92
88757	7	Sololá	702	San José Chacayá	5	Chacayá	4	Abril	2023-08-04T00:00:00	2024-11-06T07:00:00	6	Velocidad del viento	1.6
88758	7	Sololá	702	San José Chacayá	5	Chacayá	4	Abril	2023-08-04T00:00:00	2024-11-06T07:00:00	7	Dirección del viento	1.61
88759	7	Sololá	702	San José Chacayá	5	Chacayá	4	Abril	2023-08-04T00:00:00	2024-11-06T07:00:00	1	Precipitación	0
88760	7	Sololá	702	San José Chacayá	5	Chacayá	4	Abril	2023-08-04T00:00:00	2024-11-06T07:00:00	8	Radiación solar	1
88761	7	Sololá	702	San José Chacayá	5	Chacayá	4	Abril	2023-08-04T00:00:00	2024-11-06T08:00:00	2	Temperatura media	9.4
88762	7	Sololá	702	San José Chacayá	5	Chacayá	4	Abril	2023-08-04T00:00:00	2024-11-06T08:00:00	4	Temperatura máxima	9.4
88763	7	Sololá	702	San José Chacayá	5	Chacayá	4	Abril	2023-08-04T00:00:00	2024-11-06T08:00:00	3	Temperatura mínima	7.9
88764	7	Sololá	702	San José Chacayá	5	Chacayá	4	Abril	2023-08-04T00:00:00	2024-11-06T08:00:00	5	Humedad	93
88765	7	Sololá	702	San José Chacayá	5	Chacayá	4	Abril	2023-08-04T00:00:00	2024-11-06T08:00:00	6	Velocidad del viento	1.6
88766	7	Sololá	702	San José Chacayá	5	Chacayá	4	Abril	2023-08-04T00:00:00	2024-11-06T08:00:00	7	Dirección del viento	1.61
88767	7	Sololá	702	San José Chacayá	5	Chacayá	4	Abril	2023-08-04T00:00:00	2024-11-06T08:00:00	1	Precipitación	0
88768	7	Sololá	702	San José Chacayá	5	Chacayá	4	Abril	2023-08-04T00:00:00	2024-11-06T08:00:00	8	Radiación solar	19
88769	7	Sololá	702	San José Chacayá	5	Chacayá	4	Abril	2023-08-04T00:00:00	2024-11-06T09:00:00	2	Temperatura media	14
88770	7	Sololá	702	San José Chacayá	5	Chacayá	4	Abril	2023-08-04T00:00:00	2024-11-06T09:00:00	4	Temperatura máxima	14
88771	7	Sololá	702	San José Chacayá	5	Chacayá	4	Abril	2023-08-04T00:00:00	2024-11-06T09:00:00	3	Temperatura mínima	9.4
88772	7	Sololá	702	San José Chacayá	5	Chacayá	4	Abril	2023-08-04T00:00:00	2024-11-06T09:00:00	5	Humedad	80
88773	7	Sololá	702	San José Chacayá	5	Chacayá	4	Abril	2023-08-04T00:00:00	2024-11-06T09:00:00	6	Velocidad del viento	1.6
88774	7	Sololá	702	San José Chacayá	5	Chacayá	4	Abril	2023-08-04T00:00:00	2024-11-06T09:00:00	7	Dirección del viento	1.61
88775	7	Sololá	702	San José Chacayá	5	Chacayá	4	Abril	2023-08-04T00:00:00	2024-11-06T09:00:00	1	Precipitación	0
88776	7	Sololá	702	San José Chacayá	5	Chacayá	4	Abril	2023-08-04T00:00:00	2024-11-06T09:00:00	8	Radiación solar	32
88777	7	Sololá	702	San José Chacayá	5	Chacayá	4	Abril	2023-08-04T00:00:00	2024-11-06T10:00:00	2	Temperatura media	18.7
88778	7	Sololá	702	San José Chacayá	5	Chacayá	4	Abril	2023-08-04T00:00:00	2024-11-06T10:00:00	4	Temperatura máxima	18.7
88779	7	Sololá	702	San José Chacayá	5	Chacayá	4	Abril	2023-08-04T00:00:00	2024-11-06T10:00:00	3	Temperatura mínima	14
88780	7	Sololá	702	San José Chacayá	5	Chacayá	4	Abril	2023-08-04T00:00:00	2024-11-06T10:00:00	5	Humedad	67
88781	7	Sololá	702	San José Chacayá	5	Chacayá	4	Abril	2023-08-04T00:00:00	2024-11-06T10:00:00	6	Velocidad del viento	3.2
88782	7	Sololá	702	San José Chacayá	5	Chacayá	4	Abril	2023-08-04T00:00:00	2024-11-06T10:00:00	7	Dirección del viento	3.22
88783	7	Sololá	702	San José Chacayá	5	Chacayá	4	Abril	2023-08-04T00:00:00	2024-11-06T10:00:00	1	Precipitación	0
88784	7	Sololá	702	San José Chacayá	5	Chacayá	4	Abril	2023-08-04T00:00:00	2024-11-06T10:00:00	8	Radiación solar	491
88785	7	Sololá	702	San José Chacayá	5	Chacayá	4	Abril	2023-08-04T00:00:00	2024-11-06T11:00:00	2	Temperatura media	20.7
88786	7	Sololá	702	San José Chacayá	5	Chacayá	4	Abril	2023-08-04T00:00:00	2024-11-06T11:00:00	4	Temperatura máxima	20.7
88787	7	Sololá	702	San José Chacayá	5	Chacayá	4	Abril	2023-08-04T00:00:00	2024-11-06T11:00:00	3	Temperatura mínima	18.7
88788	7	Sololá	702	San José Chacayá	5	Chacayá	4	Abril	2023-08-04T00:00:00	2024-11-06T11:00:00	5	Humedad	58
88789	7	Sololá	702	San José Chacayá	5	Chacayá	4	Abril	2023-08-04T00:00:00	2024-11-06T11:00:00	6	Velocidad del viento	4.8
88790	7	Sololá	702	San José Chacayá	5	Chacayá	4	Abril	2023-08-04T00:00:00	2024-11-06T11:00:00	7	Dirección del viento	4.83
88791	7	Sololá	702	San José Chacayá	5	Chacayá	4	Abril	2023-08-04T00:00:00	2024-11-06T11:00:00	1	Precipitación	0
88792	7	Sololá	702	San José Chacayá	5	Chacayá	4	Abril	2023-08-04T00:00:00	2024-11-06T11:00:00	8	Radiación solar	776
88793	7	Sololá	702	San José Chacayá	5	Chacayá	4	Abril	2023-08-04T00:00:00	2024-11-06T12:00:00	2	Temperatura media	20.9
88794	7	Sololá	702	San José Chacayá	5	Chacayá	4	Abril	2023-08-04T00:00:00	2024-11-06T12:00:00	4	Temperatura máxima	21.3
88795	7	Sololá	702	San José Chacayá	5	Chacayá	4	Abril	2023-08-04T00:00:00	2024-11-06T12:00:00	3	Temperatura mínima	20.6
88796	7	Sololá	702	San José Chacayá	5	Chacayá	4	Abril	2023-08-04T00:00:00	2024-11-06T12:00:00	5	Humedad	59
88797	7	Sololá	702	San José Chacayá	5	Chacayá	4	Abril	2023-08-04T00:00:00	2024-11-06T12:00:00	6	Velocidad del viento	6.4
88798	7	Sololá	702	San José Chacayá	5	Chacayá	4	Abril	2023-08-04T00:00:00	2024-11-06T12:00:00	7	Dirección del viento	6.44
88799	7	Sololá	702	San José Chacayá	5	Chacayá	4	Abril	2023-08-04T00:00:00	2024-11-06T12:00:00	1	Precipitación	0
88800	7	Sololá	702	San José Chacayá	5	Chacayá	4	Abril	2023-08-04T00:00:00	2024-11-06T12:00:00	8	Radiación solar	900
88801	7	Sololá	702	San José Chacayá	5	Chacayá	4	Abril	2023-08-04T00:00:00	2024-11-06T13:00:00	2	Temperatura media	21.4
88802	7	Sololá	702	San José Chacayá	5	Chacayá	4	Abril	2023-08-04T00:00:00	2024-11-06T13:00:00	4	Temperatura máxima	21.6
88803	7	Sololá	702	San José Chacayá	5	Chacayá	4	Abril	2023-08-04T00:00:00	2024-11-06T13:00:00	3	Temperatura mínima	20.8
88804	7	Sololá	702	San José Chacayá	5	Chacayá	4	Abril	2023-08-04T00:00:00	2024-11-06T13:00:00	5	Humedad	62
88805	7	Sololá	702	San José Chacayá	5	Chacayá	4	Abril	2023-08-04T00:00:00	2024-11-06T13:00:00	6	Velocidad del viento	6.4
88806	7	Sololá	702	San José Chacayá	5	Chacayá	4	Abril	2023-08-04T00:00:00	2024-11-06T13:00:00	7	Dirección del viento	6.44
88807	7	Sololá	702	San José Chacayá	5	Chacayá	4	Abril	2023-08-04T00:00:00	2024-11-06T13:00:00	1	Precipitación	0
88808	7	Sololá	702	San José Chacayá	5	Chacayá	4	Abril	2023-08-04T00:00:00	2024-11-06T13:00:00	8	Radiación solar	647
88809	7	Sololá	702	San José Chacayá	5	Chacayá	4	Abril	2023-08-04T00:00:00	2024-11-06T14:00:00	2	Temperatura media	20.9
88810	7	Sololá	702	San José Chacayá	5	Chacayá	4	Abril	2023-08-04T00:00:00	2024-11-06T14:00:00	4	Temperatura máxima	22.2
88811	7	Sololá	702	San José Chacayá	5	Chacayá	4	Abril	2023-08-04T00:00:00	2024-11-06T14:00:00	3	Temperatura mínima	20.8
88812	7	Sololá	702	San José Chacayá	5	Chacayá	4	Abril	2023-08-04T00:00:00	2024-11-06T14:00:00	5	Humedad	67
88813	7	Sololá	702	San José Chacayá	5	Chacayá	4	Abril	2023-08-04T00:00:00	2024-11-06T14:00:00	6	Velocidad del viento	6.4
88814	7	Sololá	702	San José Chacayá	5	Chacayá	4	Abril	2023-08-04T00:00:00	2024-11-06T14:00:00	7	Dirección del viento	6.44
88815	7	Sololá	702	San José Chacayá	5	Chacayá	4	Abril	2023-08-04T00:00:00	2024-11-06T14:00:00	1	Precipitación	0
88816	7	Sololá	702	San José Chacayá	5	Chacayá	4	Abril	2023-08-04T00:00:00	2024-11-06T14:00:00	8	Radiación solar	937
88817	7	Sololá	702	San José Chacayá	5	Chacayá	4	Abril	2023-08-04T00:00:00	2024-11-06T15:00:00	2	Temperatura media	20.4
88818	7	Sololá	702	San José Chacayá	5	Chacayá	4	Abril	2023-08-04T00:00:00	2024-11-06T15:00:00	4	Temperatura máxima	20.9
88819	7	Sololá	702	San José Chacayá	5	Chacayá	4	Abril	2023-08-04T00:00:00	2024-11-06T15:00:00	3	Temperatura mínima	20.3
88820	7	Sololá	702	San José Chacayá	5	Chacayá	4	Abril	2023-08-04T00:00:00	2024-11-06T15:00:00	5	Humedad	71
88821	7	Sololá	702	San José Chacayá	5	Chacayá	4	Abril	2023-08-04T00:00:00	2024-11-06T15:00:00	6	Velocidad del viento	6.4
88822	7	Sololá	702	San José Chacayá	5	Chacayá	4	Abril	2023-08-04T00:00:00	2024-11-06T15:00:00	7	Dirección del viento	6.44
88823	7	Sololá	702	San José Chacayá	5	Chacayá	4	Abril	2023-08-04T00:00:00	2024-11-06T15:00:00	1	Precipitación	0
88824	7	Sololá	702	San José Chacayá	5	Chacayá	4	Abril	2023-08-04T00:00:00	2024-11-06T15:00:00	8	Radiación solar	831
88825	7	Sololá	702	San José Chacayá	5	Chacayá	4	Abril	2023-08-04T00:00:00	2024-11-06T16:00:00	2	Temperatura media	19.7
88826	7	Sololá	702	San José Chacayá	5	Chacayá	4	Abril	2023-08-04T00:00:00	2024-11-06T16:00:00	4	Temperatura máxima	20.6
88827	7	Sololá	702	San José Chacayá	5	Chacayá	4	Abril	2023-08-04T00:00:00	2024-11-06T16:00:00	3	Temperatura mínima	19.7
88828	7	Sololá	702	San José Chacayá	5	Chacayá	4	Abril	2023-08-04T00:00:00	2024-11-06T16:00:00	5	Humedad	73
88829	7	Sololá	702	San José Chacayá	5	Chacayá	4	Abril	2023-08-04T00:00:00	2024-11-06T16:00:00	6	Velocidad del viento	4.8
88830	7	Sololá	702	San José Chacayá	5	Chacayá	4	Abril	2023-08-04T00:00:00	2024-11-06T16:00:00	7	Dirección del viento	4.83
88831	7	Sololá	702	San José Chacayá	5	Chacayá	4	Abril	2023-08-04T00:00:00	2024-11-06T16:00:00	1	Precipitación	0
88832	7	Sololá	702	San José Chacayá	5	Chacayá	4	Abril	2023-08-04T00:00:00	2024-11-06T16:00:00	8	Radiación solar	689
88833	7	Sololá	702	San José Chacayá	5	Chacayá	4	Abril	2023-08-04T00:00:00	2024-11-06T17:00:00	2	Temperatura media	19.1
88834	7	Sololá	702	San José Chacayá	5	Chacayá	4	Abril	2023-08-04T00:00:00	2024-11-06T17:00:00	4	Temperatura máxima	19.8
88835	7	Sololá	702	San José Chacayá	5	Chacayá	4	Abril	2023-08-04T00:00:00	2024-11-06T17:00:00	3	Temperatura mínima	19.1
88836	7	Sololá	702	San José Chacayá	5	Chacayá	4	Abril	2023-08-04T00:00:00	2024-11-06T17:00:00	5	Humedad	75
88837	7	Sololá	702	San José Chacayá	5	Chacayá	4	Abril	2023-08-04T00:00:00	2024-11-06T17:00:00	6	Velocidad del viento	6.4
88838	7	Sololá	702	San José Chacayá	5	Chacayá	4	Abril	2023-08-04T00:00:00	2024-11-06T17:00:00	7	Dirección del viento	6.44
88839	7	Sololá	702	San José Chacayá	5	Chacayá	4	Abril	2023-08-04T00:00:00	2024-11-06T17:00:00	1	Precipitación	0
88840	7	Sololá	702	San José Chacayá	5	Chacayá	4	Abril	2023-08-04T00:00:00	2024-11-06T17:00:00	8	Radiación solar	482
88841	7	Sololá	702	San José Chacayá	5	Chacayá	4	Abril	2023-08-04T00:00:00	2024-11-06T18:00:00	2	Temperatura media	18.3
88842	7	Sololá	702	San José Chacayá	5	Chacayá	4	Abril	2023-08-04T00:00:00	2024-11-06T18:00:00	4	Temperatura máxima	19.4
88843	7	Sololá	702	San José Chacayá	5	Chacayá	4	Abril	2023-08-04T00:00:00	2024-11-06T18:00:00	3	Temperatura mínima	18.3
88844	7	Sololá	702	San José Chacayá	5	Chacayá	4	Abril	2023-08-04T00:00:00	2024-11-06T18:00:00	5	Humedad	78
88845	7	Sololá	702	San José Chacayá	5	Chacayá	4	Abril	2023-08-04T00:00:00	2024-11-06T18:00:00	6	Velocidad del viento	3.2
88846	7	Sololá	702	San José Chacayá	5	Chacayá	4	Abril	2023-08-04T00:00:00	2024-11-06T18:00:00	7	Dirección del viento	3.22
88847	7	Sololá	702	San José Chacayá	5	Chacayá	4	Abril	2023-08-04T00:00:00	2024-11-06T18:00:00	1	Precipitación	0
88848	7	Sololá	702	San José Chacayá	5	Chacayá	4	Abril	2023-08-04T00:00:00	2024-11-06T18:00:00	8	Radiación solar	177
88849	7	Sololá	702	San José Chacayá	5	Chacayá	4	Abril	2023-08-04T00:00:00	2024-11-06T19:00:00	2	Temperatura media	16.7
88850	7	Sololá	702	San José Chacayá	5	Chacayá	4	Abril	2023-08-04T00:00:00	2024-11-06T19:00:00	4	Temperatura máxima	18.4
88851	7	Sololá	702	San José Chacayá	5	Chacayá	4	Abril	2023-08-04T00:00:00	2024-11-06T19:00:00	3	Temperatura mínima	16.7
88852	7	Sololá	702	San José Chacayá	5	Chacayá	4	Abril	2023-08-04T00:00:00	2024-11-06T19:00:00	5	Humedad	67
88853	7	Sololá	702	San José Chacayá	5	Chacayá	4	Abril	2023-08-04T00:00:00	2024-11-06T19:00:00	6	Velocidad del viento	3.2
88854	7	Sololá	702	San José Chacayá	5	Chacayá	4	Abril	2023-08-04T00:00:00	2024-11-06T19:00:00	7	Dirección del viento	3.22
88855	7	Sololá	702	San José Chacayá	5	Chacayá	4	Abril	2023-08-04T00:00:00	2024-11-06T19:00:00	1	Precipitación	0
88856	7	Sololá	702	San José Chacayá	5	Chacayá	4	Abril	2023-08-04T00:00:00	2024-11-06T19:00:00	8	Radiación solar	0
88857	7	Sololá	702	San José Chacayá	5	Chacayá	4	Abril	2023-08-04T00:00:00	2024-11-06T20:00:00	2	Temperatura media	15.1
88858	7	Sololá	702	San José Chacayá	5	Chacayá	4	Abril	2023-08-04T00:00:00	2024-11-06T20:00:00	4	Temperatura máxima	16.7
88859	7	Sololá	702	San José Chacayá	5	Chacayá	4	Abril	2023-08-04T00:00:00	2024-11-06T20:00:00	3	Temperatura mínima	15
88860	7	Sololá	702	San José Chacayá	5	Chacayá	4	Abril	2023-08-04T00:00:00	2024-11-06T20:00:00	5	Humedad	68
88861	7	Sololá	702	San José Chacayá	5	Chacayá	4	Abril	2023-08-04T00:00:00	2024-11-06T20:00:00	6	Velocidad del viento	3.2
88862	7	Sololá	702	San José Chacayá	5	Chacayá	4	Abril	2023-08-04T00:00:00	2024-11-06T20:00:00	7	Dirección del viento	3.22
88863	7	Sololá	702	San José Chacayá	5	Chacayá	4	Abril	2023-08-04T00:00:00	2024-11-06T20:00:00	1	Precipitación	0
88864	7	Sololá	702	San José Chacayá	5	Chacayá	4	Abril	2023-08-04T00:00:00	2024-11-06T20:00:00	8	Radiación solar	0
88865	7	Sololá	702	San José Chacayá	5	Chacayá	4	Abril	2023-08-04T00:00:00	2024-11-06T21:00:00	2	Temperatura media	13.7
88866	7	Sololá	702	San José Chacayá	5	Chacayá	4	Abril	2023-08-04T00:00:00	2024-11-06T21:00:00	4	Temperatura máxima	15.1
88867	7	Sololá	702	San José Chacayá	5	Chacayá	4	Abril	2023-08-04T00:00:00	2024-11-06T21:00:00	3	Temperatura mínima	13.7
88868	7	Sololá	702	San José Chacayá	5	Chacayá	4	Abril	2023-08-04T00:00:00	2024-11-06T21:00:00	5	Humedad	72
88869	7	Sololá	702	San José Chacayá	5	Chacayá	4	Abril	2023-08-04T00:00:00	2024-11-06T21:00:00	6	Velocidad del viento	3.2
88870	7	Sololá	702	San José Chacayá	5	Chacayá	4	Abril	2023-08-04T00:00:00	2024-11-06T21:00:00	7	Dirección del viento	3.22
88871	7	Sololá	702	San José Chacayá	5	Chacayá	4	Abril	2023-08-04T00:00:00	2024-11-06T21:00:00	1	Precipitación	0
88872	7	Sololá	702	San José Chacayá	5	Chacayá	4	Abril	2023-08-04T00:00:00	2024-11-06T21:00:00	8	Radiación solar	0
88873	7	Sololá	702	San José Chacayá	5	Chacayá	4	Abril	2023-08-04T00:00:00	2024-11-06T22:00:00	2	Temperatura media	12.6
88874	7	Sololá	702	San José Chacayá	5	Chacayá	4	Abril	2023-08-04T00:00:00	2024-11-06T22:00:00	4	Temperatura máxima	13.7
88875	7	Sololá	702	San José Chacayá	5	Chacayá	4	Abril	2023-08-04T00:00:00	2024-11-06T22:00:00	3	Temperatura mínima	12.6
88876	7	Sololá	702	San José Chacayá	5	Chacayá	4	Abril	2023-08-04T00:00:00	2024-11-06T22:00:00	5	Humedad	76
88877	7	Sololá	702	San José Chacayá	5	Chacayá	4	Abril	2023-08-04T00:00:00	2024-11-06T22:00:00	6	Velocidad del viento	3.2
88878	7	Sololá	702	San José Chacayá	5	Chacayá	4	Abril	2023-08-04T00:00:00	2024-11-06T22:00:00	7	Dirección del viento	3.22
88879	7	Sololá	702	San José Chacayá	5	Chacayá	4	Abril	2023-08-04T00:00:00	2024-11-06T22:00:00	1	Precipitación	0
88880	7	Sololá	702	San José Chacayá	5	Chacayá	4	Abril	2023-08-04T00:00:00	2024-11-06T22:00:00	8	Radiación solar	0
88881	7	Sololá	702	San José Chacayá	5	Chacayá	4	Abril	2023-08-04T00:00:00	2024-11-06T23:00:00	2	Temperatura media	11.9
88882	7	Sololá	702	San José Chacayá	5	Chacayá	4	Abril	2023-08-04T00:00:00	2024-11-06T23:00:00	4	Temperatura máxima	12.6
88883	7	Sololá	702	San José Chacayá	5	Chacayá	4	Abril	2023-08-04T00:00:00	2024-11-06T23:00:00	3	Temperatura mínima	11.8
88884	7	Sololá	702	San José Chacayá	5	Chacayá	4	Abril	2023-08-04T00:00:00	2024-11-06T23:00:00	5	Humedad	79
88885	7	Sololá	702	San José Chacayá	5	Chacayá	4	Abril	2023-08-04T00:00:00	2024-11-06T23:00:00	6	Velocidad del viento	3.2
88886	7	Sololá	702	San José Chacayá	5	Chacayá	4	Abril	2023-08-04T00:00:00	2024-11-06T23:00:00	7	Dirección del viento	3.22
88887	7	Sololá	702	San José Chacayá	5	Chacayá	4	Abril	2023-08-04T00:00:00	2024-11-06T23:00:00	1	Precipitación	0
88888	7	Sololá	702	San José Chacayá	5	Chacayá	4	Abril	2023-08-04T00:00:00	2024-11-06T23:00:00	8	Radiación solar	0
88889	7	Sololá	702	San José Chacayá	5	Chacayá	4	Abril	2023-09-04T00:00:00	2024-11-06T00:00:00	2	Temperatura media	9.3
88890	7	Sololá	702	San José Chacayá	5	Chacayá	4	Abril	2023-09-04T00:00:00	2024-11-06T00:00:00	4	Temperatura máxima	11.9
88891	7	Sololá	702	San José Chacayá	5	Chacayá	4	Abril	2023-09-04T00:00:00	2024-11-06T00:00:00	3	Temperatura mínima	9.3
88892	7	Sololá	702	San José Chacayá	5	Chacayá	4	Abril	2023-09-04T00:00:00	2024-11-06T00:00:00	5	Humedad	86
88893	7	Sololá	702	San José Chacayá	5	Chacayá	4	Abril	2023-09-04T00:00:00	2024-11-06T00:00:00	6	Velocidad del viento	0
88894	7	Sololá	702	San José Chacayá	5	Chacayá	4	Abril	2023-09-04T00:00:00	2024-11-06T00:00:00	7	Dirección del viento	0
88895	7	Sololá	702	San José Chacayá	5	Chacayá	4	Abril	2023-09-04T00:00:00	2024-11-06T00:00:00	1	Precipitación	0
88896	7	Sololá	702	San José Chacayá	5	Chacayá	4	Abril	2023-09-04T00:00:00	2024-11-06T00:00:00	8	Radiación solar	0
88897	7	Sololá	702	San José Chacayá	5	Chacayá	4	Abril	2023-09-04T00:00:00	2024-11-06T01:00:00	2	Temperatura media	7.6
88898	7	Sololá	702	San José Chacayá	5	Chacayá	4	Abril	2023-09-04T00:00:00	2024-11-06T01:00:00	4	Temperatura máxima	9.2
88899	7	Sololá	702	San José Chacayá	5	Chacayá	4	Abril	2023-09-04T00:00:00	2024-11-06T01:00:00	3	Temperatura mínima	7.6
88900	7	Sololá	702	San José Chacayá	5	Chacayá	4	Abril	2023-09-04T00:00:00	2024-11-06T01:00:00	5	Humedad	88
88901	7	Sololá	702	San José Chacayá	5	Chacayá	4	Abril	2023-09-04T00:00:00	2024-11-06T01:00:00	6	Velocidad del viento	1.6
88902	7	Sololá	702	San José Chacayá	5	Chacayá	4	Abril	2023-09-04T00:00:00	2024-11-06T01:00:00	7	Dirección del viento	1.61
88903	7	Sololá	702	San José Chacayá	5	Chacayá	4	Abril	2023-09-04T00:00:00	2024-11-06T01:00:00	1	Precipitación	0
88904	7	Sololá	702	San José Chacayá	5	Chacayá	4	Abril	2023-09-04T00:00:00	2024-11-06T01:00:00	8	Radiación solar	0
88905	7	Sololá	702	San José Chacayá	5	Chacayá	4	Abril	2023-09-04T00:00:00	2024-11-06T02:00:00	2	Temperatura media	7.8
88906	7	Sololá	702	San José Chacayá	5	Chacayá	4	Abril	2023-09-04T00:00:00	2024-11-06T02:00:00	4	Temperatura máxima	7.8
88907	7	Sololá	702	San José Chacayá	5	Chacayá	4	Abril	2023-09-04T00:00:00	2024-11-06T02:00:00	3	Temperatura mínima	7.1
88908	7	Sololá	702	San José Chacayá	5	Chacayá	4	Abril	2023-09-04T00:00:00	2024-11-06T02:00:00	5	Humedad	75
88909	7	Sololá	702	San José Chacayá	5	Chacayá	4	Abril	2023-09-04T00:00:00	2024-11-06T02:00:00	6	Velocidad del viento	1.6
88910	7	Sololá	702	San José Chacayá	5	Chacayá	4	Abril	2023-09-04T00:00:00	2024-11-06T02:00:00	7	Dirección del viento	1.61
88911	7	Sololá	702	San José Chacayá	5	Chacayá	4	Abril	2023-09-04T00:00:00	2024-11-06T02:00:00	1	Precipitación	0
88912	7	Sololá	702	San José Chacayá	5	Chacayá	4	Abril	2023-09-04T00:00:00	2024-11-06T02:00:00	8	Radiación solar	0
88913	7	Sololá	702	San José Chacayá	5	Chacayá	4	Abril	2023-09-04T00:00:00	2024-11-06T03:00:00	2	Temperatura media	8.3
88914	7	Sololá	702	San José Chacayá	5	Chacayá	4	Abril	2023-09-04T00:00:00	2024-11-06T03:00:00	4	Temperatura máxima	9.2
88915	7	Sololá	702	San José Chacayá	5	Chacayá	4	Abril	2023-09-04T00:00:00	2024-11-06T03:00:00	3	Temperatura mínima	7.9
88916	7	Sololá	702	San José Chacayá	5	Chacayá	4	Abril	2023-09-04T00:00:00	2024-11-06T03:00:00	5	Humedad	79
88917	7	Sololá	702	San José Chacayá	5	Chacayá	4	Abril	2023-09-04T00:00:00	2024-11-06T03:00:00	6	Velocidad del viento	1.6
88918	7	Sololá	702	San José Chacayá	5	Chacayá	4	Abril	2023-09-04T00:00:00	2024-11-06T03:00:00	7	Dirección del viento	1.61
88919	7	Sololá	702	San José Chacayá	5	Chacayá	4	Abril	2023-09-04T00:00:00	2024-11-06T03:00:00	1	Precipitación	0
88920	7	Sololá	702	San José Chacayá	5	Chacayá	4	Abril	2023-09-04T00:00:00	2024-11-06T03:00:00	8	Radiación solar	0
88921	7	Sololá	702	San José Chacayá	5	Chacayá	4	Abril	2023-09-04T00:00:00	2024-11-06T04:00:00	2	Temperatura media	12.1
88922	7	Sololá	702	San José Chacayá	5	Chacayá	4	Abril	2023-09-04T00:00:00	2024-11-06T04:00:00	4	Temperatura máxima	12.1
88923	7	Sololá	702	San José Chacayá	5	Chacayá	4	Abril	2023-09-04T00:00:00	2024-11-06T04:00:00	3	Temperatura mínima	8
88924	7	Sololá	702	San José Chacayá	5	Chacayá	4	Abril	2023-09-04T00:00:00	2024-11-06T04:00:00	5	Humedad	68
88925	7	Sololá	702	San José Chacayá	5	Chacayá	4	Abril	2023-09-04T00:00:00	2024-11-06T04:00:00	6	Velocidad del viento	3.2
88926	7	Sololá	702	San José Chacayá	5	Chacayá	4	Abril	2023-09-04T00:00:00	2024-11-06T04:00:00	7	Dirección del viento	3.22
88927	7	Sololá	702	San José Chacayá	5	Chacayá	4	Abril	2023-09-04T00:00:00	2024-11-06T04:00:00	1	Precipitación	0
88928	7	Sololá	702	San José Chacayá	5	Chacayá	4	Abril	2023-09-04T00:00:00	2024-11-06T04:00:00	8	Radiación solar	0
88929	7	Sololá	702	San José Chacayá	5	Chacayá	4	Abril	2023-09-04T00:00:00	2024-11-06T05:00:00	2	Temperatura media	10.6
88930	7	Sololá	702	San José Chacayá	5	Chacayá	4	Abril	2023-09-04T00:00:00	2024-11-06T05:00:00	4	Temperatura máxima	12.1
88931	7	Sololá	702	San José Chacayá	5	Chacayá	4	Abril	2023-09-04T00:00:00	2024-11-06T05:00:00	3	Temperatura mínima	10.6
88932	7	Sololá	702	San José Chacayá	5	Chacayá	4	Abril	2023-09-04T00:00:00	2024-11-06T05:00:00	5	Humedad	72
88933	7	Sololá	702	San José Chacayá	5	Chacayá	4	Abril	2023-09-04T00:00:00	2024-11-06T05:00:00	6	Velocidad del viento	3.2
88934	7	Sololá	702	San José Chacayá	5	Chacayá	4	Abril	2023-09-04T00:00:00	2024-11-06T05:00:00	7	Dirección del viento	3.22
88935	7	Sololá	702	San José Chacayá	5	Chacayá	4	Abril	2023-09-04T00:00:00	2024-11-06T05:00:00	1	Precipitación	0
88936	7	Sololá	702	San José Chacayá	5	Chacayá	4	Abril	2023-09-04T00:00:00	2024-11-06T05:00:00	8	Radiación solar	0
88937	7	Sololá	702	San José Chacayá	5	Chacayá	4	Abril	2023-09-04T00:00:00	2024-11-06T06:00:00	2	Temperatura media	7.4
88938	7	Sololá	702	San José Chacayá	5	Chacayá	4	Abril	2023-09-04T00:00:00	2024-11-06T06:00:00	4	Temperatura máxima	10.6
88939	7	Sololá	702	San José Chacayá	5	Chacayá	4	Abril	2023-09-04T00:00:00	2024-11-06T06:00:00	3	Temperatura mínima	7.4
88940	7	Sololá	702	San José Chacayá	5	Chacayá	4	Abril	2023-09-04T00:00:00	2024-11-06T06:00:00	5	Humedad	81
88941	7	Sololá	702	San José Chacayá	5	Chacayá	4	Abril	2023-09-04T00:00:00	2024-11-06T06:00:00	6	Velocidad del viento	1.6
88942	7	Sololá	702	San José Chacayá	5	Chacayá	4	Abril	2023-09-04T00:00:00	2024-11-06T06:00:00	7	Dirección del viento	1.61
88943	7	Sololá	702	San José Chacayá	5	Chacayá	4	Abril	2023-09-04T00:00:00	2024-11-06T06:00:00	1	Precipitación	0
88944	7	Sololá	702	San José Chacayá	5	Chacayá	4	Abril	2023-09-04T00:00:00	2024-11-06T06:00:00	8	Radiación solar	0
88945	7	Sololá	702	San José Chacayá	5	Chacayá	4	Abril	2023-09-04T00:00:00	2024-11-06T07:00:00	2	Temperatura media	6.2
88946	7	Sololá	702	San José Chacayá	5	Chacayá	4	Abril	2023-09-04T00:00:00	2024-11-06T07:00:00	4	Temperatura máxima	7.4
88947	7	Sololá	702	San José Chacayá	5	Chacayá	4	Abril	2023-09-04T00:00:00	2024-11-06T07:00:00	3	Temperatura mínima	6.2
88948	7	Sololá	702	San José Chacayá	5	Chacayá	4	Abril	2023-09-04T00:00:00	2024-11-06T07:00:00	5	Humedad	85
88949	7	Sololá	702	San José Chacayá	5	Chacayá	4	Abril	2023-09-04T00:00:00	2024-11-06T07:00:00	6	Velocidad del viento	1.6
88950	7	Sololá	702	San José Chacayá	5	Chacayá	4	Abril	2023-09-04T00:00:00	2024-11-06T07:00:00	7	Dirección del viento	1.61
88951	7	Sololá	702	San José Chacayá	5	Chacayá	4	Abril	2023-09-04T00:00:00	2024-11-06T07:00:00	1	Precipitación	0
88952	7	Sololá	702	San José Chacayá	5	Chacayá	4	Abril	2023-09-04T00:00:00	2024-11-06T07:00:00	8	Radiación solar	1
88953	7	Sololá	702	San José Chacayá	5	Chacayá	4	Abril	2023-09-04T00:00:00	2024-11-06T08:00:00	2	Temperatura media	8.7
88954	7	Sololá	702	San José Chacayá	5	Chacayá	4	Abril	2023-09-04T00:00:00	2024-11-06T08:00:00	4	Temperatura máxima	8.7
88955	7	Sololá	702	San José Chacayá	5	Chacayá	4	Abril	2023-09-04T00:00:00	2024-11-06T08:00:00	3	Temperatura mínima	6.2
88956	7	Sololá	702	San José Chacayá	5	Chacayá	4	Abril	2023-09-04T00:00:00	2024-11-06T08:00:00	5	Humedad	82
88957	7	Sololá	702	San José Chacayá	5	Chacayá	4	Abril	2023-09-04T00:00:00	2024-11-06T08:00:00	6	Velocidad del viento	1.6
88958	7	Sololá	702	San José Chacayá	5	Chacayá	4	Abril	2023-09-04T00:00:00	2024-11-06T08:00:00	7	Dirección del viento	1.61
88959	7	Sololá	702	San José Chacayá	5	Chacayá	4	Abril	2023-09-04T00:00:00	2024-11-06T08:00:00	1	Precipitación	0
88960	7	Sololá	702	San José Chacayá	5	Chacayá	4	Abril	2023-09-04T00:00:00	2024-11-06T08:00:00	8	Radiación solar	33
88961	7	Sololá	702	San José Chacayá	5	Chacayá	4	Abril	2023-09-04T00:00:00	2024-11-06T09:00:00	2	Temperatura media	14.7
88962	7	Sololá	702	San José Chacayá	5	Chacayá	4	Abril	2023-09-04T00:00:00	2024-11-06T09:00:00	4	Temperatura máxima	14.7
88963	7	Sololá	702	San José Chacayá	5	Chacayá	4	Abril	2023-09-04T00:00:00	2024-11-06T09:00:00	3	Temperatura mínima	8.7
88964	7	Sololá	702	San José Chacayá	5	Chacayá	4	Abril	2023-09-04T00:00:00	2024-11-06T09:00:00	5	Humedad	62
88965	7	Sololá	702	San José Chacayá	5	Chacayá	4	Abril	2023-09-04T00:00:00	2024-11-06T09:00:00	6	Velocidad del viento	4.8
88966	7	Sololá	702	San José Chacayá	5	Chacayá	4	Abril	2023-09-04T00:00:00	2024-11-06T09:00:00	7	Dirección del viento	4.83
88967	7	Sololá	702	San José Chacayá	5	Chacayá	4	Abril	2023-09-04T00:00:00	2024-11-06T09:00:00	1	Precipitación	0
88968	7	Sololá	702	San José Chacayá	5	Chacayá	4	Abril	2023-09-04T00:00:00	2024-11-06T09:00:00	8	Radiación solar	67
88969	7	Sololá	702	San José Chacayá	5	Chacayá	4	Abril	2023-09-04T00:00:00	2024-11-06T10:00:00	2	Temperatura media	18.2
88970	7	Sololá	702	San José Chacayá	5	Chacayá	4	Abril	2023-09-04T00:00:00	2024-11-06T10:00:00	4	Temperatura máxima	18.2
88971	7	Sololá	702	San José Chacayá	5	Chacayá	4	Abril	2023-09-04T00:00:00	2024-11-06T10:00:00	3	Temperatura mínima	14.7
88972	7	Sololá	702	San José Chacayá	5	Chacayá	4	Abril	2023-09-04T00:00:00	2024-11-06T10:00:00	5	Humedad	51
88973	7	Sololá	702	San José Chacayá	5	Chacayá	4	Abril	2023-09-04T00:00:00	2024-11-06T10:00:00	6	Velocidad del viento	6.4
88974	7	Sololá	702	San José Chacayá	5	Chacayá	4	Abril	2023-09-04T00:00:00	2024-11-06T10:00:00	7	Dirección del viento	6.44
88975	7	Sololá	702	San José Chacayá	5	Chacayá	4	Abril	2023-09-04T00:00:00	2024-11-06T10:00:00	1	Precipitación	0
88976	7	Sololá	702	San José Chacayá	5	Chacayá	4	Abril	2023-09-04T00:00:00	2024-11-06T10:00:00	8	Radiación solar	443
88977	7	Sololá	702	San José Chacayá	5	Chacayá	4	Abril	2023-09-04T00:00:00	2024-11-06T11:00:00	2	Temperatura media	20.7
88978	7	Sololá	702	San José Chacayá	5	Chacayá	4	Abril	2023-09-04T00:00:00	2024-11-06T11:00:00	4	Temperatura máxima	20.7
88979	7	Sololá	702	San José Chacayá	5	Chacayá	4	Abril	2023-09-04T00:00:00	2024-11-06T11:00:00	3	Temperatura mínima	18.2
88980	7	Sololá	702	San José Chacayá	5	Chacayá	4	Abril	2023-09-04T00:00:00	2024-11-06T11:00:00	5	Humedad	47
88981	7	Sololá	702	San José Chacayá	5	Chacayá	4	Abril	2023-09-04T00:00:00	2024-11-06T11:00:00	6	Velocidad del viento	6.4
88982	7	Sololá	702	San José Chacayá	5	Chacayá	4	Abril	2023-09-04T00:00:00	2024-11-06T11:00:00	7	Dirección del viento	6.44
88983	7	Sololá	702	San José Chacayá	5	Chacayá	4	Abril	2023-09-04T00:00:00	2024-11-06T11:00:00	1	Precipitación	0
88984	7	Sololá	702	San José Chacayá	5	Chacayá	4	Abril	2023-09-04T00:00:00	2024-11-06T11:00:00	8	Radiación solar	766
88985	7	Sololá	702	San José Chacayá	5	Chacayá	4	Abril	2023-09-04T00:00:00	2024-11-06T12:00:00	2	Temperatura media	21.7
88986	7	Sololá	702	San José Chacayá	5	Chacayá	4	Abril	2023-09-04T00:00:00	2024-11-06T12:00:00	4	Temperatura máxima	22.3
88987	7	Sololá	702	San José Chacayá	5	Chacayá	4	Abril	2023-09-04T00:00:00	2024-11-06T12:00:00	3	Temperatura mínima	20.7
88988	7	Sololá	702	San José Chacayá	5	Chacayá	4	Abril	2023-09-04T00:00:00	2024-11-06T12:00:00	5	Humedad	43
88989	7	Sololá	702	San José Chacayá	5	Chacayá	4	Abril	2023-09-04T00:00:00	2024-11-06T12:00:00	6	Velocidad del viento	6.4
88990	7	Sololá	702	San José Chacayá	5	Chacayá	4	Abril	2023-09-04T00:00:00	2024-11-06T12:00:00	7	Dirección del viento	6.44
88991	7	Sololá	702	San José Chacayá	5	Chacayá	4	Abril	2023-09-04T00:00:00	2024-11-06T12:00:00	1	Precipitación	0
88992	7	Sololá	702	San José Chacayá	5	Chacayá	4	Abril	2023-09-04T00:00:00	2024-11-06T12:00:00	8	Radiación solar	881
88993	7	Sololá	702	San José Chacayá	5	Chacayá	4	Abril	2023-09-04T00:00:00	2024-11-06T13:00:00	2	Temperatura media	22.6
88994	7	Sololá	702	San José Chacayá	5	Chacayá	4	Abril	2023-09-04T00:00:00	2024-11-06T13:00:00	4	Temperatura máxima	23.2
88995	7	Sololá	702	San José Chacayá	5	Chacayá	4	Abril	2023-09-04T00:00:00	2024-11-06T13:00:00	3	Temperatura mínima	21.5
88996	7	Sololá	702	San José Chacayá	5	Chacayá	4	Abril	2023-09-04T00:00:00	2024-11-06T13:00:00	5	Humedad	41
88997	7	Sololá	702	San José Chacayá	5	Chacayá	4	Abril	2023-09-04T00:00:00	2024-11-06T13:00:00	6	Velocidad del viento	6.4
88998	7	Sololá	702	San José Chacayá	5	Chacayá	4	Abril	2023-09-04T00:00:00	2024-11-06T13:00:00	7	Dirección del viento	6.44
88999	7	Sololá	702	San José Chacayá	5	Chacayá	4	Abril	2023-09-04T00:00:00	2024-11-06T13:00:00	1	Precipitación	0
89000	7	Sololá	702	San José Chacayá	5	Chacayá	4	Abril	2023-09-04T00:00:00	2024-11-06T13:00:00	8	Radiación solar	699
89001	7	Sololá	702	San José Chacayá	5	Chacayá	4	Abril	2023-09-04T00:00:00	2024-11-06T14:00:00	2	Temperatura media	24.2
89002	7	Sololá	702	San José Chacayá	5	Chacayá	4	Abril	2023-09-04T00:00:00	2024-11-06T14:00:00	4	Temperatura máxima	24.2
89003	7	Sololá	702	San José Chacayá	5	Chacayá	4	Abril	2023-09-04T00:00:00	2024-11-06T14:00:00	3	Temperatura mínima	22.4
89004	7	Sololá	702	San José Chacayá	5	Chacayá	4	Abril	2023-09-04T00:00:00	2024-11-06T14:00:00	5	Humedad	36
89005	7	Sololá	702	San José Chacayá	5	Chacayá	4	Abril	2023-09-04T00:00:00	2024-11-06T14:00:00	6	Velocidad del viento	6.4
89006	7	Sololá	702	San José Chacayá	5	Chacayá	4	Abril	2023-09-04T00:00:00	2024-11-06T14:00:00	7	Dirección del viento	6.44
89007	7	Sololá	702	San José Chacayá	5	Chacayá	4	Abril	2023-09-04T00:00:00	2024-11-06T14:00:00	1	Precipitación	0
89008	7	Sololá	702	San José Chacayá	5	Chacayá	4	Abril	2023-09-04T00:00:00	2024-11-06T14:00:00	8	Radiación solar	940
89009	7	Sololá	702	San José Chacayá	5	Chacayá	4	Abril	2023-09-04T00:00:00	2024-11-06T15:00:00	2	Temperatura media	23.9
89010	7	Sololá	702	San José Chacayá	5	Chacayá	4	Abril	2023-09-04T00:00:00	2024-11-06T15:00:00	4	Temperatura máxima	24.2
89011	7	Sololá	702	San José Chacayá	5	Chacayá	4	Abril	2023-09-04T00:00:00	2024-11-06T15:00:00	3	Temperatura mínima	23.4
89012	7	Sololá	702	San José Chacayá	5	Chacayá	4	Abril	2023-09-04T00:00:00	2024-11-06T15:00:00	5	Humedad	38
89013	7	Sololá	702	San José Chacayá	5	Chacayá	4	Abril	2023-09-04T00:00:00	2024-11-06T15:00:00	6	Velocidad del viento	6.4
89014	7	Sololá	702	San José Chacayá	5	Chacayá	4	Abril	2023-09-04T00:00:00	2024-11-06T15:00:00	7	Dirección del viento	6.44
89015	7	Sololá	702	San José Chacayá	5	Chacayá	4	Abril	2023-09-04T00:00:00	2024-11-06T15:00:00	1	Precipitación	0
89016	7	Sololá	702	San José Chacayá	5	Chacayá	4	Abril	2023-09-04T00:00:00	2024-11-06T15:00:00	8	Radiación solar	872
89017	7	Sololá	702	San José Chacayá	5	Chacayá	4	Abril	2023-09-04T00:00:00	2024-11-06T16:00:00	2	Temperatura media	22.1
89018	7	Sololá	702	San José Chacayá	5	Chacayá	4	Abril	2023-09-04T00:00:00	2024-11-06T16:00:00	4	Temperatura máxima	24.2
89019	7	Sololá	702	San José Chacayá	5	Chacayá	4	Abril	2023-09-04T00:00:00	2024-11-06T16:00:00	3	Temperatura mínima	22.1
89020	7	Sololá	702	San José Chacayá	5	Chacayá	4	Abril	2023-09-04T00:00:00	2024-11-06T16:00:00	5	Humedad	49
89021	7	Sololá	702	San José Chacayá	5	Chacayá	4	Abril	2023-09-04T00:00:00	2024-11-06T16:00:00	6	Velocidad del viento	8
89022	7	Sololá	702	San José Chacayá	5	Chacayá	4	Abril	2023-09-04T00:00:00	2024-11-06T16:00:00	7	Dirección del viento	8.05
89023	7	Sololá	702	San José Chacayá	5	Chacayá	4	Abril	2023-09-04T00:00:00	2024-11-06T16:00:00	1	Precipitación	0
89024	7	Sololá	702	San José Chacayá	5	Chacayá	4	Abril	2023-09-04T00:00:00	2024-11-06T16:00:00	8	Radiación solar	704
89025	7	Sololá	702	San José Chacayá	5	Chacayá	4	Abril	2023-09-04T00:00:00	2024-11-06T17:00:00	2	Temperatura media	21.1
89026	7	Sololá	702	San José Chacayá	5	Chacayá	4	Abril	2023-09-04T00:00:00	2024-11-06T17:00:00	4	Temperatura máxima	22.4
89027	7	Sololá	702	San José Chacayá	5	Chacayá	4	Abril	2023-09-04T00:00:00	2024-11-06T17:00:00	3	Temperatura mínima	21.1
89028	7	Sololá	702	San José Chacayá	5	Chacayá	4	Abril	2023-09-04T00:00:00	2024-11-06T17:00:00	5	Humedad	66
89029	7	Sololá	702	San José Chacayá	5	Chacayá	4	Abril	2023-09-04T00:00:00	2024-11-06T17:00:00	6	Velocidad del viento	4.8
89030	7	Sololá	702	San José Chacayá	5	Chacayá	4	Abril	2023-09-04T00:00:00	2024-11-06T17:00:00	7	Dirección del viento	4.83
89031	7	Sololá	702	San José Chacayá	5	Chacayá	4	Abril	2023-09-04T00:00:00	2024-11-06T17:00:00	1	Precipitación	0
89032	7	Sololá	702	San José Chacayá	5	Chacayá	4	Abril	2023-09-04T00:00:00	2024-11-06T17:00:00	8	Radiación solar	515
89033	7	Sololá	702	San José Chacayá	5	Chacayá	4	Abril	2023-09-04T00:00:00	2024-11-06T18:00:00	2	Temperatura media	18.7
89034	7	Sololá	702	San José Chacayá	5	Chacayá	4	Abril	2023-09-04T00:00:00	2024-11-06T18:00:00	4	Temperatura máxima	21.1
89035	7	Sololá	702	San José Chacayá	5	Chacayá	4	Abril	2023-09-04T00:00:00	2024-11-06T18:00:00	3	Temperatura mínima	18.7
89036	7	Sololá	702	San José Chacayá	5	Chacayá	4	Abril	2023-09-04T00:00:00	2024-11-06T18:00:00	5	Humedad	72
89037	7	Sololá	702	San José Chacayá	5	Chacayá	4	Abril	2023-09-04T00:00:00	2024-11-06T18:00:00	6	Velocidad del viento	3.2
89038	7	Sololá	702	San José Chacayá	5	Chacayá	4	Abril	2023-09-04T00:00:00	2024-11-06T18:00:00	7	Dirección del viento	3.22
89039	7	Sololá	702	San José Chacayá	5	Chacayá	4	Abril	2023-09-04T00:00:00	2024-11-06T18:00:00	1	Precipitación	0
89040	7	Sololá	702	San José Chacayá	5	Chacayá	4	Abril	2023-09-04T00:00:00	2024-11-06T18:00:00	8	Radiación solar	146
89041	7	Sololá	702	San José Chacayá	5	Chacayá	4	Abril	2023-09-04T00:00:00	2024-11-06T19:00:00	2	Temperatura media	16.4
89042	7	Sololá	702	San José Chacayá	5	Chacayá	4	Abril	2023-09-04T00:00:00	2024-11-06T19:00:00	4	Temperatura máxima	18.7
89043	7	Sololá	702	San José Chacayá	5	Chacayá	4	Abril	2023-09-04T00:00:00	2024-11-06T19:00:00	3	Temperatura mínima	16.4
89044	7	Sololá	702	San José Chacayá	5	Chacayá	4	Abril	2023-09-04T00:00:00	2024-11-06T19:00:00	5	Humedad	80
89045	7	Sololá	702	San José Chacayá	5	Chacayá	4	Abril	2023-09-04T00:00:00	2024-11-06T19:00:00	6	Velocidad del viento	1.6
89046	7	Sololá	702	San José Chacayá	5	Chacayá	4	Abril	2023-09-04T00:00:00	2024-11-06T19:00:00	7	Dirección del viento	1.61
89047	7	Sololá	702	San José Chacayá	5	Chacayá	4	Abril	2023-09-04T00:00:00	2024-11-06T19:00:00	1	Precipitación	0
89048	7	Sololá	702	San José Chacayá	5	Chacayá	4	Abril	2023-09-04T00:00:00	2024-11-06T19:00:00	8	Radiación solar	0
89049	7	Sololá	702	San José Chacayá	5	Chacayá	4	Abril	2023-09-04T00:00:00	2024-11-06T20:00:00	2	Temperatura media	14.6
89050	7	Sololá	702	San José Chacayá	5	Chacayá	4	Abril	2023-09-04T00:00:00	2024-11-06T20:00:00	4	Temperatura máxima	16.4
89051	7	Sololá	702	San José Chacayá	5	Chacayá	4	Abril	2023-09-04T00:00:00	2024-11-06T20:00:00	3	Temperatura mínima	14.6
89052	7	Sololá	702	San José Chacayá	5	Chacayá	4	Abril	2023-09-04T00:00:00	2024-11-06T20:00:00	5	Humedad	65
89053	7	Sololá	702	San José Chacayá	5	Chacayá	4	Abril	2023-09-04T00:00:00	2024-11-06T20:00:00	6	Velocidad del viento	3.2
89054	7	Sololá	702	San José Chacayá	5	Chacayá	4	Abril	2023-09-04T00:00:00	2024-11-06T20:00:00	7	Dirección del viento	3.22
89055	7	Sololá	702	San José Chacayá	5	Chacayá	4	Abril	2023-09-04T00:00:00	2024-11-06T20:00:00	1	Precipitación	0
89056	7	Sololá	702	San José Chacayá	5	Chacayá	4	Abril	2023-09-04T00:00:00	2024-11-06T20:00:00	8	Radiación solar	0
89057	7	Sololá	702	San José Chacayá	5	Chacayá	4	Abril	2023-09-04T00:00:00	2024-11-06T21:00:00	2	Temperatura media	13.4
89058	7	Sololá	702	San José Chacayá	5	Chacayá	4	Abril	2023-09-04T00:00:00	2024-11-06T21:00:00	4	Temperatura máxima	14.7
89059	7	Sololá	702	San José Chacayá	5	Chacayá	4	Abril	2023-09-04T00:00:00	2024-11-06T21:00:00	3	Temperatura mínima	13.4
89060	7	Sololá	702	San José Chacayá	5	Chacayá	4	Abril	2023-09-04T00:00:00	2024-11-06T21:00:00	5	Humedad	63
89061	7	Sololá	702	San José Chacayá	5	Chacayá	4	Abril	2023-09-04T00:00:00	2024-11-06T21:00:00	6	Velocidad del viento	3.2
89062	7	Sololá	702	San José Chacayá	5	Chacayá	4	Abril	2023-09-04T00:00:00	2024-11-06T21:00:00	7	Dirección del viento	3.22
89063	7	Sololá	702	San José Chacayá	5	Chacayá	4	Abril	2023-09-04T00:00:00	2024-11-06T21:00:00	1	Precipitación	0
89064	7	Sololá	702	San José Chacayá	5	Chacayá	4	Abril	2023-09-04T00:00:00	2024-11-06T21:00:00	8	Radiación solar	0
89065	7	Sololá	702	San José Chacayá	5	Chacayá	4	Abril	2023-09-04T00:00:00	2024-11-06T22:00:00	2	Temperatura media	13.3
89066	7	Sololá	702	San José Chacayá	5	Chacayá	4	Abril	2023-09-04T00:00:00	2024-11-06T22:00:00	4	Temperatura máxima	13.4
89067	7	Sololá	702	San José Chacayá	5	Chacayá	4	Abril	2023-09-04T00:00:00	2024-11-06T22:00:00	3	Temperatura mínima	13.3
89068	7	Sololá	702	San José Chacayá	5	Chacayá	4	Abril	2023-09-04T00:00:00	2024-11-06T22:00:00	5	Humedad	64
89069	7	Sololá	702	San José Chacayá	5	Chacayá	4	Abril	2023-09-04T00:00:00	2024-11-06T22:00:00	6	Velocidad del viento	3.2
89070	7	Sololá	702	San José Chacayá	5	Chacayá	4	Abril	2023-09-04T00:00:00	2024-11-06T22:00:00	7	Dirección del viento	3.22
89071	7	Sololá	702	San José Chacayá	5	Chacayá	4	Abril	2023-09-04T00:00:00	2024-11-06T22:00:00	1	Precipitación	0
89072	7	Sololá	702	San José Chacayá	5	Chacayá	4	Abril	2023-09-04T00:00:00	2024-11-06T22:00:00	8	Radiación solar	0
89073	7	Sololá	702	San José Chacayá	5	Chacayá	4	Abril	2023-09-04T00:00:00	2024-11-06T23:00:00	2	Temperatura media	10.2
89074	7	Sololá	702	San José Chacayá	5	Chacayá	4	Abril	2023-09-04T00:00:00	2024-11-06T23:00:00	4	Temperatura máxima	13.3
89075	7	Sololá	702	San José Chacayá	5	Chacayá	4	Abril	2023-09-04T00:00:00	2024-11-06T23:00:00	3	Temperatura mínima	10.2
89076	7	Sololá	702	San José Chacayá	5	Chacayá	4	Abril	2023-09-04T00:00:00	2024-11-06T23:00:00	5	Humedad	73
89077	7	Sololá	702	San José Chacayá	5	Chacayá	4	Abril	2023-09-04T00:00:00	2024-11-06T23:00:00	6	Velocidad del viento	1.6
89078	7	Sololá	702	San José Chacayá	5	Chacayá	4	Abril	2023-09-04T00:00:00	2024-11-06T23:00:00	7	Dirección del viento	1.61
89079	7	Sololá	702	San José Chacayá	5	Chacayá	4	Abril	2023-09-04T00:00:00	2024-11-06T23:00:00	1	Precipitación	0
89080	7	Sololá	702	San José Chacayá	5	Chacayá	4	Abril	2023-09-04T00:00:00	2024-11-06T23:00:00	8	Radiación solar	0
89081	7	Sololá	702	San José Chacayá	5	Chacayá	4	Abril	2023-10-04T00:00:00	2024-11-06T00:00:00	2	Temperatura media	12
89082	7	Sololá	702	San José Chacayá	5	Chacayá	4	Abril	2023-10-04T00:00:00	2024-11-06T00:00:00	4	Temperatura máxima	12.5
89083	7	Sololá	702	San José Chacayá	5	Chacayá	4	Abril	2023-10-04T00:00:00	2024-11-06T00:00:00	3	Temperatura mínima	10.2
89084	7	Sololá	702	San José Chacayá	5	Chacayá	4	Abril	2023-10-04T00:00:00	2024-11-06T00:00:00	5	Humedad	61
89085	7	Sololá	702	San José Chacayá	5	Chacayá	4	Abril	2023-10-04T00:00:00	2024-11-06T00:00:00	6	Velocidad del viento	3.2
89086	7	Sololá	702	San José Chacayá	5	Chacayá	4	Abril	2023-10-04T00:00:00	2024-11-06T00:00:00	7	Dirección del viento	3.22
89087	7	Sololá	702	San José Chacayá	5	Chacayá	4	Abril	2023-10-04T00:00:00	2024-11-06T00:00:00	1	Precipitación	0
89088	7	Sololá	702	San José Chacayá	5	Chacayá	4	Abril	2023-10-04T00:00:00	2024-11-06T00:00:00	8	Radiación solar	0
89089	7	Sololá	702	San José Chacayá	5	Chacayá	4	Abril	2023-10-04T00:00:00	2024-11-06T01:00:00	2	Temperatura media	12
89090	7	Sololá	702	San José Chacayá	5	Chacayá	4	Abril	2023-10-04T00:00:00	2024-11-06T01:00:00	4	Temperatura máxima	12.2
89091	7	Sololá	702	San José Chacayá	5	Chacayá	4	Abril	2023-10-04T00:00:00	2024-11-06T01:00:00	3	Temperatura mínima	11.4
89092	7	Sololá	702	San José Chacayá	5	Chacayá	4	Abril	2023-10-04T00:00:00	2024-11-06T01:00:00	5	Humedad	62
89093	7	Sololá	702	San José Chacayá	5	Chacayá	4	Abril	2023-10-04T00:00:00	2024-11-06T01:00:00	6	Velocidad del viento	1.6
89094	7	Sololá	702	San José Chacayá	5	Chacayá	4	Abril	2023-10-04T00:00:00	2024-11-06T01:00:00	7	Dirección del viento	1.61
89095	7	Sololá	702	San José Chacayá	5	Chacayá	4	Abril	2023-10-04T00:00:00	2024-11-06T01:00:00	1	Precipitación	0
89096	7	Sololá	702	San José Chacayá	5	Chacayá	4	Abril	2023-10-04T00:00:00	2024-11-06T01:00:00	8	Radiación solar	0
89097	7	Sololá	702	San José Chacayá	5	Chacayá	4	Abril	2023-10-04T00:00:00	2024-11-06T02:00:00	2	Temperatura media	10.7
89098	7	Sololá	702	San José Chacayá	5	Chacayá	4	Abril	2023-10-04T00:00:00	2024-11-06T02:00:00	4	Temperatura máxima	12.1
89099	7	Sololá	702	San José Chacayá	5	Chacayá	4	Abril	2023-10-04T00:00:00	2024-11-06T02:00:00	3	Temperatura mínima	10.3
89100	7	Sololá	702	San José Chacayá	5	Chacayá	4	Abril	2023-10-04T00:00:00	2024-11-06T02:00:00	5	Humedad	64
89101	7	Sololá	702	San José Chacayá	5	Chacayá	4	Abril	2023-10-04T00:00:00	2024-11-06T02:00:00	6	Velocidad del viento	3.2
89102	7	Sololá	702	San José Chacayá	5	Chacayá	4	Abril	2023-10-04T00:00:00	2024-11-06T02:00:00	7	Dirección del viento	3.22
89103	7	Sololá	702	San José Chacayá	5	Chacayá	4	Abril	2023-10-04T00:00:00	2024-11-06T02:00:00	1	Precipitación	0
89104	7	Sololá	702	San José Chacayá	5	Chacayá	4	Abril	2023-10-04T00:00:00	2024-11-06T02:00:00	8	Radiación solar	0
89105	7	Sololá	702	San José Chacayá	5	Chacayá	4	Abril	2023-10-04T00:00:00	2024-11-06T03:00:00	2	Temperatura media	8.4
89106	7	Sololá	702	San José Chacayá	5	Chacayá	4	Abril	2023-10-04T00:00:00	2024-11-06T03:00:00	4	Temperatura máxima	10.7
89107	7	Sololá	702	San José Chacayá	5	Chacayá	4	Abril	2023-10-04T00:00:00	2024-11-06T03:00:00	3	Temperatura mínima	8.4
89108	7	Sololá	702	San José Chacayá	5	Chacayá	4	Abril	2023-10-04T00:00:00	2024-11-06T03:00:00	5	Humedad	73
89109	7	Sololá	702	San José Chacayá	5	Chacayá	4	Abril	2023-10-04T00:00:00	2024-11-06T03:00:00	6	Velocidad del viento	1.6
89110	7	Sololá	702	San José Chacayá	5	Chacayá	4	Abril	2023-10-04T00:00:00	2024-11-06T03:00:00	7	Dirección del viento	1.61
89111	7	Sololá	702	San José Chacayá	5	Chacayá	4	Abril	2023-10-04T00:00:00	2024-11-06T03:00:00	1	Precipitación	0
89112	7	Sololá	702	San José Chacayá	5	Chacayá	4	Abril	2023-10-04T00:00:00	2024-11-06T03:00:00	8	Radiación solar	0
89113	7	Sololá	702	San José Chacayá	5	Chacayá	4	Abril	2023-10-04T00:00:00	2024-11-06T04:00:00	2	Temperatura media	10.3
89114	7	Sololá	702	San José Chacayá	5	Chacayá	4	Abril	2023-10-04T00:00:00	2024-11-06T04:00:00	4	Temperatura máxima	10.5
89115	7	Sololá	702	San José Chacayá	5	Chacayá	4	Abril	2023-10-04T00:00:00	2024-11-06T04:00:00	3	Temperatura mínima	7.7
89116	7	Sololá	702	San José Chacayá	5	Chacayá	4	Abril	2023-10-04T00:00:00	2024-11-06T04:00:00	5	Humedad	66
89117	7	Sololá	702	San José Chacayá	5	Chacayá	4	Abril	2023-10-04T00:00:00	2024-11-06T04:00:00	6	Velocidad del viento	3.2
89118	7	Sololá	702	San José Chacayá	5	Chacayá	4	Abril	2023-10-04T00:00:00	2024-11-06T04:00:00	7	Dirección del viento	3.22
89119	7	Sololá	702	San José Chacayá	5	Chacayá	4	Abril	2023-10-04T00:00:00	2024-11-06T04:00:00	1	Precipitación	0
89120	7	Sololá	702	San José Chacayá	5	Chacayá	4	Abril	2023-10-04T00:00:00	2024-11-06T04:00:00	8	Radiación solar	0
89121	7	Sololá	702	San José Chacayá	5	Chacayá	4	Abril	2023-10-04T00:00:00	2024-11-06T05:00:00	2	Temperatura media	6.7
89122	7	Sololá	702	San José Chacayá	5	Chacayá	4	Abril	2023-10-04T00:00:00	2024-11-06T05:00:00	4	Temperatura máxima	10.3
89123	7	Sololá	702	San José Chacayá	5	Chacayá	4	Abril	2023-10-04T00:00:00	2024-11-06T05:00:00	3	Temperatura mínima	6.6
89124	7	Sololá	702	San José Chacayá	5	Chacayá	4	Abril	2023-10-04T00:00:00	2024-11-06T05:00:00	5	Humedad	78
89125	7	Sololá	702	San José Chacayá	5	Chacayá	4	Abril	2023-10-04T00:00:00	2024-11-06T05:00:00	6	Velocidad del viento	1.6
89126	7	Sololá	702	San José Chacayá	5	Chacayá	4	Abril	2023-10-04T00:00:00	2024-11-06T05:00:00	7	Dirección del viento	1.61
89127	7	Sololá	702	San José Chacayá	5	Chacayá	4	Abril	2023-10-04T00:00:00	2024-11-06T05:00:00	1	Precipitación	0
89128	7	Sololá	702	San José Chacayá	5	Chacayá	4	Abril	2023-10-04T00:00:00	2024-11-06T05:00:00	8	Radiación solar	0
89129	7	Sololá	702	San José Chacayá	5	Chacayá	4	Abril	2023-10-04T00:00:00	2024-11-06T06:00:00	2	Temperatura media	5.6
89130	7	Sololá	702	San José Chacayá	5	Chacayá	4	Abril	2023-10-04T00:00:00	2024-11-06T06:00:00	4	Temperatura máxima	6.8
89131	7	Sololá	702	San José Chacayá	5	Chacayá	4	Abril	2023-10-04T00:00:00	2024-11-06T06:00:00	3	Temperatura mínima	5.6
89132	7	Sololá	702	San José Chacayá	5	Chacayá	4	Abril	2023-10-04T00:00:00	2024-11-06T06:00:00	5	Humedad	82
89133	7	Sololá	702	San José Chacayá	5	Chacayá	4	Abril	2023-10-04T00:00:00	2024-11-06T06:00:00	6	Velocidad del viento	1.6
89134	7	Sololá	702	San José Chacayá	5	Chacayá	4	Abril	2023-10-04T00:00:00	2024-11-06T06:00:00	7	Dirección del viento	1.61
89135	7	Sololá	702	San José Chacayá	5	Chacayá	4	Abril	2023-10-04T00:00:00	2024-11-06T06:00:00	1	Precipitación	0
89136	7	Sololá	702	San José Chacayá	5	Chacayá	4	Abril	2023-10-04T00:00:00	2024-11-06T06:00:00	8	Radiación solar	0
89137	7	Sololá	702	San José Chacayá	5	Chacayá	4	Abril	2023-10-04T00:00:00	2024-11-06T07:00:00	2	Temperatura media	4.9
89138	7	Sololá	702	San José Chacayá	5	Chacayá	4	Abril	2023-10-04T00:00:00	2024-11-06T07:00:00	4	Temperatura máxima	5.6
89139	7	Sololá	702	San José Chacayá	5	Chacayá	4	Abril	2023-10-04T00:00:00	2024-11-06T07:00:00	3	Temperatura mínima	4.8
89140	7	Sololá	702	San José Chacayá	5	Chacayá	4	Abril	2023-10-04T00:00:00	2024-11-06T07:00:00	5	Humedad	85
89141	7	Sololá	702	San José Chacayá	5	Chacayá	4	Abril	2023-10-04T00:00:00	2024-11-06T07:00:00	6	Velocidad del viento	1.6
89142	7	Sololá	702	San José Chacayá	5	Chacayá	4	Abril	2023-10-04T00:00:00	2024-11-06T07:00:00	7	Dirección del viento	1.61
89143	7	Sololá	702	San José Chacayá	5	Chacayá	4	Abril	2023-10-04T00:00:00	2024-11-06T07:00:00	1	Precipitación	0
89144	7	Sololá	702	San José Chacayá	5	Chacayá	4	Abril	2023-10-04T00:00:00	2024-11-06T07:00:00	8	Radiación solar	1
89145	7	Sololá	702	San José Chacayá	5	Chacayá	4	Abril	2023-10-04T00:00:00	2024-11-06T08:00:00	2	Temperatura media	7.1
89146	7	Sololá	702	San José Chacayá	5	Chacayá	4	Abril	2023-10-04T00:00:00	2024-11-06T08:00:00	4	Temperatura máxima	7.1
89147	7	Sololá	702	San José Chacayá	5	Chacayá	4	Abril	2023-10-04T00:00:00	2024-11-06T08:00:00	3	Temperatura mínima	4.9
89148	7	Sololá	702	San José Chacayá	5	Chacayá	4	Abril	2023-10-04T00:00:00	2024-11-06T08:00:00	5	Humedad	83
89149	7	Sololá	702	San José Chacayá	5	Chacayá	4	Abril	2023-10-04T00:00:00	2024-11-06T08:00:00	6	Velocidad del viento	1.6
89150	7	Sololá	702	San José Chacayá	5	Chacayá	4	Abril	2023-10-04T00:00:00	2024-11-06T08:00:00	7	Dirección del viento	1.61
89151	7	Sololá	702	San José Chacayá	5	Chacayá	4	Abril	2023-10-04T00:00:00	2024-11-06T08:00:00	1	Precipitación	0
89152	7	Sololá	702	San José Chacayá	5	Chacayá	4	Abril	2023-10-04T00:00:00	2024-11-06T08:00:00	8	Radiación solar	36
89153	7	Sololá	702	San José Chacayá	5	Chacayá	4	Abril	2023-10-04T00:00:00	2024-11-06T09:00:00	2	Temperatura media	14.3
89154	7	Sololá	702	San José Chacayá	5	Chacayá	4	Abril	2023-10-04T00:00:00	2024-11-06T09:00:00	4	Temperatura máxima	14.3
89155	7	Sololá	702	San José Chacayá	5	Chacayá	4	Abril	2023-10-04T00:00:00	2024-11-06T09:00:00	3	Temperatura mínima	7.1
89156	7	Sololá	702	San José Chacayá	5	Chacayá	4	Abril	2023-10-04T00:00:00	2024-11-06T09:00:00	5	Humedad	56
89157	7	Sololá	702	San José Chacayá	5	Chacayá	4	Abril	2023-10-04T00:00:00	2024-11-06T09:00:00	6	Velocidad del viento	1.6
89158	7	Sololá	702	San José Chacayá	5	Chacayá	4	Abril	2023-10-04T00:00:00	2024-11-06T09:00:00	7	Dirección del viento	1.61
89159	7	Sololá	702	San José Chacayá	5	Chacayá	4	Abril	2023-10-04T00:00:00	2024-11-06T09:00:00	1	Precipitación	0
89160	7	Sololá	702	San José Chacayá	5	Chacayá	4	Abril	2023-10-04T00:00:00	2024-11-06T09:00:00	8	Radiación solar	63
89161	7	Sololá	702	San José Chacayá	5	Chacayá	4	Abril	2023-10-04T00:00:00	2024-11-06T10:00:00	2	Temperatura media	18.2
89162	7	Sololá	702	San José Chacayá	5	Chacayá	4	Abril	2023-10-04T00:00:00	2024-11-06T10:00:00	4	Temperatura máxima	18.2
89163	7	Sololá	702	San José Chacayá	5	Chacayá	4	Abril	2023-10-04T00:00:00	2024-11-06T10:00:00	3	Temperatura mínima	14.3
89164	7	Sololá	702	San José Chacayá	5	Chacayá	4	Abril	2023-10-04T00:00:00	2024-11-06T10:00:00	5	Humedad	51
89165	7	Sololá	702	San José Chacayá	5	Chacayá	4	Abril	2023-10-04T00:00:00	2024-11-06T10:00:00	6	Velocidad del viento	4.8
89166	7	Sololá	702	San José Chacayá	5	Chacayá	4	Abril	2023-10-04T00:00:00	2024-11-06T10:00:00	7	Dirección del viento	4.83
89167	7	Sololá	702	San José Chacayá	5	Chacayá	4	Abril	2023-10-04T00:00:00	2024-11-06T10:00:00	1	Precipitación	0
89168	7	Sololá	702	San José Chacayá	5	Chacayá	4	Abril	2023-10-04T00:00:00	2024-11-06T10:00:00	8	Radiación solar	443
89169	7	Sololá	702	San José Chacayá	5	Chacayá	4	Abril	2023-10-04T00:00:00	2024-11-06T11:00:00	2	Temperatura media	20.5
89170	7	Sololá	702	San José Chacayá	5	Chacayá	4	Abril	2023-10-04T00:00:00	2024-11-06T11:00:00	4	Temperatura máxima	20.6
89171	7	Sololá	702	San José Chacayá	5	Chacayá	4	Abril	2023-10-04T00:00:00	2024-11-06T11:00:00	3	Temperatura mínima	18.2
89172	7	Sololá	702	San José Chacayá	5	Chacayá	4	Abril	2023-10-04T00:00:00	2024-11-06T11:00:00	5	Humedad	47
89173	7	Sololá	702	San José Chacayá	5	Chacayá	4	Abril	2023-10-04T00:00:00	2024-11-06T11:00:00	6	Velocidad del viento	4.8
89174	7	Sololá	702	San José Chacayá	5	Chacayá	4	Abril	2023-10-04T00:00:00	2024-11-06T11:00:00	7	Dirección del viento	4.83
89175	7	Sololá	702	San José Chacayá	5	Chacayá	4	Abril	2023-10-04T00:00:00	2024-11-06T11:00:00	1	Precipitación	0
89176	7	Sololá	702	San José Chacayá	5	Chacayá	4	Abril	2023-10-04T00:00:00	2024-11-06T11:00:00	8	Radiación solar	689
89177	7	Sololá	702	San José Chacayá	5	Chacayá	4	Abril	2023-10-04T00:00:00	2024-11-06T12:00:00	2	Temperatura media	22.3
89178	7	Sololá	702	San José Chacayá	5	Chacayá	4	Abril	2023-10-04T00:00:00	2024-11-06T12:00:00	4	Temperatura máxima	22.3
89179	7	Sololá	702	San José Chacayá	5	Chacayá	4	Abril	2023-10-04T00:00:00	2024-11-06T12:00:00	3	Temperatura mínima	20.3
89180	7	Sololá	702	San José Chacayá	5	Chacayá	4	Abril	2023-10-04T00:00:00	2024-11-06T12:00:00	5	Humedad	40
89181	7	Sololá	702	San José Chacayá	5	Chacayá	4	Abril	2023-10-04T00:00:00	2024-11-06T12:00:00	6	Velocidad del viento	6.4
89182	7	Sololá	702	San José Chacayá	5	Chacayá	4	Abril	2023-10-04T00:00:00	2024-11-06T12:00:00	7	Dirección del viento	6.44
89183	7	Sololá	702	San José Chacayá	5	Chacayá	4	Abril	2023-10-04T00:00:00	2024-11-06T12:00:00	1	Precipitación	0
89184	7	Sololá	702	San José Chacayá	5	Chacayá	4	Abril	2023-10-04T00:00:00	2024-11-06T12:00:00	8	Radiación solar	916
89185	7	Sololá	702	San José Chacayá	5	Chacayá	4	Abril	2023-10-04T00:00:00	2024-11-06T13:00:00	2	Temperatura media	23.3
89186	7	Sololá	702	San José Chacayá	5	Chacayá	4	Abril	2023-10-04T00:00:00	2024-11-06T13:00:00	4	Temperatura máxima	23.4
89187	7	Sololá	702	San José Chacayá	5	Chacayá	4	Abril	2023-10-04T00:00:00	2024-11-06T13:00:00	3	Temperatura mínima	22.3
89188	7	Sololá	702	San José Chacayá	5	Chacayá	4	Abril	2023-10-04T00:00:00	2024-11-06T13:00:00	5	Humedad	39
89189	7	Sololá	702	San José Chacayá	5	Chacayá	4	Abril	2023-10-04T00:00:00	2024-11-06T13:00:00	6	Velocidad del viento	6.4
89190	7	Sololá	702	San José Chacayá	5	Chacayá	4	Abril	2023-10-04T00:00:00	2024-11-06T13:00:00	7	Dirección del viento	6.44
89191	7	Sololá	702	San José Chacayá	5	Chacayá	4	Abril	2023-10-04T00:00:00	2024-11-06T13:00:00	1	Precipitación	0
89192	7	Sololá	702	San José Chacayá	5	Chacayá	4	Abril	2023-10-04T00:00:00	2024-11-06T13:00:00	8	Radiación solar	791
89193	7	Sololá	702	San José Chacayá	5	Chacayá	4	Abril	2023-10-04T00:00:00	2024-11-06T14:00:00	2	Temperatura media	23.4
89194	7	Sololá	702	San José Chacayá	5	Chacayá	4	Abril	2023-10-04T00:00:00	2024-11-06T14:00:00	4	Temperatura máxima	23.8
89195	7	Sololá	702	San José Chacayá	5	Chacayá	4	Abril	2023-10-04T00:00:00	2024-11-06T14:00:00	3	Temperatura mínima	23.1
89196	7	Sololá	702	San José Chacayá	5	Chacayá	4	Abril	2023-10-04T00:00:00	2024-11-06T14:00:00	5	Humedad	39
89197	7	Sololá	702	San José Chacayá	5	Chacayá	4	Abril	2023-10-04T00:00:00	2024-11-06T14:00:00	6	Velocidad del viento	8
89198	7	Sololá	702	San José Chacayá	5	Chacayá	4	Abril	2023-10-04T00:00:00	2024-11-06T14:00:00	7	Dirección del viento	8.05
89199	7	Sololá	702	San José Chacayá	5	Chacayá	4	Abril	2023-10-04T00:00:00	2024-11-06T14:00:00	1	Precipitación	0
89200	7	Sololá	702	San José Chacayá	5	Chacayá	4	Abril	2023-10-04T00:00:00	2024-11-06T14:00:00	8	Radiación solar	738
89201	7	Sololá	702	San José Chacayá	5	Chacayá	4	Abril	2023-10-04T00:00:00	2024-11-06T15:00:00	2	Temperatura media	23.8
89202	7	Sololá	702	San José Chacayá	5	Chacayá	4	Abril	2023-10-04T00:00:00	2024-11-06T15:00:00	4	Temperatura máxima	23.9
89203	7	Sololá	702	San José Chacayá	5	Chacayá	4	Abril	2023-10-04T00:00:00	2024-11-06T15:00:00	3	Temperatura mínima	23.4
89204	7	Sololá	702	San José Chacayá	5	Chacayá	4	Abril	2023-10-04T00:00:00	2024-11-06T15:00:00	5	Humedad	38
89205	7	Sololá	702	San José Chacayá	5	Chacayá	4	Abril	2023-10-04T00:00:00	2024-11-06T15:00:00	6	Velocidad del viento	8
89206	7	Sololá	702	San José Chacayá	5	Chacayá	4	Abril	2023-10-04T00:00:00	2024-11-06T15:00:00	7	Dirección del viento	8.05
89207	7	Sololá	702	San José Chacayá	5	Chacayá	4	Abril	2023-10-04T00:00:00	2024-11-06T15:00:00	1	Precipitación	0
89208	7	Sololá	702	San José Chacayá	5	Chacayá	4	Abril	2023-10-04T00:00:00	2024-11-06T15:00:00	8	Radiación solar	743
89209	7	Sololá	702	San José Chacayá	5	Chacayá	4	Abril	2023-10-04T00:00:00	2024-11-06T16:00:00	2	Temperatura media	22.4
89210	7	Sololá	702	San José Chacayá	5	Chacayá	4	Abril	2023-10-04T00:00:00	2024-11-06T16:00:00	4	Temperatura máxima	24.1
89211	7	Sololá	702	San José Chacayá	5	Chacayá	4	Abril	2023-10-04T00:00:00	2024-11-06T16:00:00	3	Temperatura mínima	22.4
89212	7	Sololá	702	San José Chacayá	5	Chacayá	4	Abril	2023-10-04T00:00:00	2024-11-06T16:00:00	5	Humedad	52
89213	7	Sololá	702	San José Chacayá	5	Chacayá	4	Abril	2023-10-04T00:00:00	2024-11-06T16:00:00	6	Velocidad del viento	6.4
89214	7	Sololá	702	San José Chacayá	5	Chacayá	4	Abril	2023-10-04T00:00:00	2024-11-06T16:00:00	7	Dirección del viento	6.44
89215	7	Sololá	702	San José Chacayá	5	Chacayá	4	Abril	2023-10-04T00:00:00	2024-11-06T16:00:00	1	Precipitación	0
89216	7	Sololá	702	San José Chacayá	5	Chacayá	4	Abril	2023-10-04T00:00:00	2024-11-06T16:00:00	8	Radiación solar	583
89217	7	Sololá	702	San José Chacayá	5	Chacayá	4	Abril	2023-10-04T00:00:00	2024-11-06T17:00:00	2	Temperatura media	20.7
89218	7	Sololá	702	San José Chacayá	5	Chacayá	4	Abril	2023-10-04T00:00:00	2024-11-06T17:00:00	4	Temperatura máxima	22.4
89219	7	Sololá	702	San José Chacayá	5	Chacayá	4	Abril	2023-10-04T00:00:00	2024-11-06T17:00:00	3	Temperatura mínima	20.7
89220	7	Sololá	702	San José Chacayá	5	Chacayá	4	Abril	2023-10-04T00:00:00	2024-11-06T17:00:00	5	Humedad	58
89221	7	Sololá	702	San José Chacayá	5	Chacayá	4	Abril	2023-10-04T00:00:00	2024-11-06T17:00:00	6	Velocidad del viento	6.4
89222	7	Sololá	702	San José Chacayá	5	Chacayá	4	Abril	2023-10-04T00:00:00	2024-11-06T17:00:00	7	Dirección del viento	6.44
89223	7	Sololá	702	San José Chacayá	5	Chacayá	4	Abril	2023-10-04T00:00:00	2024-11-06T17:00:00	1	Precipitación	0
89224	7	Sololá	702	San José Chacayá	5	Chacayá	4	Abril	2023-10-04T00:00:00	2024-11-06T17:00:00	8	Radiación solar	300
89225	7	Sololá	702	San José Chacayá	5	Chacayá	4	Abril	2023-10-04T00:00:00	2024-11-06T18:00:00	2	Temperatura media	19.2
89226	7	Sololá	702	San José Chacayá	5	Chacayá	4	Abril	2023-10-04T00:00:00	2024-11-06T18:00:00	4	Temperatura máxima	20.7
89227	7	Sololá	702	San José Chacayá	5	Chacayá	4	Abril	2023-10-04T00:00:00	2024-11-06T18:00:00	3	Temperatura mínima	19.2
89228	7	Sololá	702	San José Chacayá	5	Chacayá	4	Abril	2023-10-04T00:00:00	2024-11-06T18:00:00	5	Humedad	49
89229	7	Sololá	702	San José Chacayá	5	Chacayá	4	Abril	2023-10-04T00:00:00	2024-11-06T18:00:00	6	Velocidad del viento	3.2
89230	7	Sololá	702	San José Chacayá	5	Chacayá	4	Abril	2023-10-04T00:00:00	2024-11-06T18:00:00	7	Dirección del viento	3.22
89231	7	Sololá	702	San José Chacayá	5	Chacayá	4	Abril	2023-10-04T00:00:00	2024-11-06T18:00:00	1	Precipitación	0
89232	7	Sololá	702	San José Chacayá	5	Chacayá	4	Abril	2023-10-04T00:00:00	2024-11-06T18:00:00	8	Radiación solar	95
89233	7	Sololá	702	San José Chacayá	5	Chacayá	4	Abril	2023-10-04T00:00:00	2024-11-06T19:00:00	2	Temperatura media	16.2
89234	7	Sololá	702	San José Chacayá	5	Chacayá	4	Abril	2023-10-04T00:00:00	2024-11-06T19:00:00	4	Temperatura máxima	19.2
89235	7	Sololá	702	San José Chacayá	5	Chacayá	4	Abril	2023-10-04T00:00:00	2024-11-06T19:00:00	3	Temperatura mínima	16.2
89236	7	Sololá	702	San José Chacayá	5	Chacayá	4	Abril	2023-10-04T00:00:00	2024-11-06T19:00:00	5	Humedad	57
89237	7	Sololá	702	San José Chacayá	5	Chacayá	4	Abril	2023-10-04T00:00:00	2024-11-06T19:00:00	6	Velocidad del viento	4.8
89238	7	Sololá	702	San José Chacayá	5	Chacayá	4	Abril	2023-10-04T00:00:00	2024-11-06T19:00:00	7	Dirección del viento	4.83
89239	7	Sololá	702	San José Chacayá	5	Chacayá	4	Abril	2023-10-04T00:00:00	2024-11-06T19:00:00	1	Precipitación	0
89240	7	Sololá	702	San José Chacayá	5	Chacayá	4	Abril	2023-10-04T00:00:00	2024-11-06T19:00:00	8	Radiación solar	0
89241	7	Sololá	702	San José Chacayá	5	Chacayá	4	Abril	2023-10-04T00:00:00	2024-11-06T20:00:00	2	Temperatura media	14.7
89242	7	Sololá	702	San José Chacayá	5	Chacayá	4	Abril	2023-10-04T00:00:00	2024-11-06T20:00:00	4	Temperatura máxima	16.1
89243	7	Sololá	702	San José Chacayá	5	Chacayá	4	Abril	2023-10-04T00:00:00	2024-11-06T20:00:00	3	Temperatura mínima	14.6
89244	7	Sololá	702	San José Chacayá	5	Chacayá	4	Abril	2023-10-04T00:00:00	2024-11-06T20:00:00	5	Humedad	65
89245	7	Sololá	702	San José Chacayá	5	Chacayá	4	Abril	2023-10-04T00:00:00	2024-11-06T20:00:00	6	Velocidad del viento	3.2
89246	7	Sololá	702	San José Chacayá	5	Chacayá	4	Abril	2023-10-04T00:00:00	2024-11-06T20:00:00	7	Dirección del viento	3.22
89247	7	Sololá	702	San José Chacayá	5	Chacayá	4	Abril	2023-10-04T00:00:00	2024-11-06T20:00:00	1	Precipitación	0
89248	7	Sololá	702	San José Chacayá	5	Chacayá	4	Abril	2023-10-04T00:00:00	2024-11-06T20:00:00	8	Radiación solar	0
89249	7	Sololá	702	San José Chacayá	5	Chacayá	4	Abril	2023-10-04T00:00:00	2024-11-06T21:00:00	2	Temperatura media	13.7
89250	7	Sololá	702	San José Chacayá	5	Chacayá	4	Abril	2023-10-04T00:00:00	2024-11-06T21:00:00	4	Temperatura máxima	14.6
89251	7	Sololá	702	San José Chacayá	5	Chacayá	4	Abril	2023-10-04T00:00:00	2024-11-06T21:00:00	3	Temperatura mínima	13.6
89252	7	Sololá	702	San José Chacayá	5	Chacayá	4	Abril	2023-10-04T00:00:00	2024-11-06T21:00:00	5	Humedad	68
89253	7	Sololá	702	San José Chacayá	5	Chacayá	4	Abril	2023-10-04T00:00:00	2024-11-06T21:00:00	6	Velocidad del viento	4.8
89254	7	Sololá	702	San José Chacayá	5	Chacayá	4	Abril	2023-10-04T00:00:00	2024-11-06T21:00:00	7	Dirección del viento	4.83
89255	7	Sololá	702	San José Chacayá	5	Chacayá	4	Abril	2023-10-04T00:00:00	2024-11-06T21:00:00	1	Precipitación	0
89256	7	Sololá	702	San José Chacayá	5	Chacayá	4	Abril	2023-10-04T00:00:00	2024-11-06T21:00:00	8	Radiación solar	0
89257	7	Sololá	702	San José Chacayá	5	Chacayá	4	Abril	2023-10-04T00:00:00	2024-11-06T22:00:00	2	Temperatura media	13
89258	7	Sololá	702	San José Chacayá	5	Chacayá	4	Abril	2023-10-04T00:00:00	2024-11-06T22:00:00	4	Temperatura máxima	13.7
89259	7	Sololá	702	San José Chacayá	5	Chacayá	4	Abril	2023-10-04T00:00:00	2024-11-06T22:00:00	3	Temperatura mínima	12.9
89260	7	Sololá	702	San José Chacayá	5	Chacayá	4	Abril	2023-10-04T00:00:00	2024-11-06T22:00:00	5	Humedad	66
89261	7	Sololá	702	San José Chacayá	5	Chacayá	4	Abril	2023-10-04T00:00:00	2024-11-06T22:00:00	6	Velocidad del viento	4.8
89262	7	Sololá	702	San José Chacayá	5	Chacayá	4	Abril	2023-10-04T00:00:00	2024-11-06T22:00:00	7	Dirección del viento	4.83
89263	7	Sololá	702	San José Chacayá	5	Chacayá	4	Abril	2023-10-04T00:00:00	2024-11-06T22:00:00	1	Precipitación	0
89264	7	Sololá	702	San José Chacayá	5	Chacayá	4	Abril	2023-10-04T00:00:00	2024-11-06T22:00:00	8	Radiación solar	0
89265	7	Sololá	702	San José Chacayá	5	Chacayá	4	Abril	2023-10-04T00:00:00	2024-11-06T23:00:00	2	Temperatura media	13.7
89266	7	Sololá	702	San José Chacayá	5	Chacayá	4	Abril	2023-10-04T00:00:00	2024-11-06T23:00:00	4	Temperatura máxima	13.7
89267	7	Sololá	702	San José Chacayá	5	Chacayá	4	Abril	2023-10-04T00:00:00	2024-11-06T23:00:00	3	Temperatura mínima	13
89268	7	Sololá	702	San José Chacayá	5	Chacayá	4	Abril	2023-10-04T00:00:00	2024-11-06T23:00:00	5	Humedad	59
89269	7	Sololá	702	San José Chacayá	5	Chacayá	4	Abril	2023-10-04T00:00:00	2024-11-06T23:00:00	6	Velocidad del viento	6.4
89270	7	Sololá	702	San José Chacayá	5	Chacayá	4	Abril	2023-10-04T00:00:00	2024-11-06T23:00:00	7	Dirección del viento	6.44
89271	7	Sololá	702	San José Chacayá	5	Chacayá	4	Abril	2023-10-04T00:00:00	2024-11-06T23:00:00	1	Precipitación	0
89272	7	Sololá	702	San José Chacayá	5	Chacayá	4	Abril	2023-10-04T00:00:00	2024-11-06T23:00:00	8	Radiación solar	0
89273	7	Sololá	702	San José Chacayá	5	Chacayá	4	Abril	2023-11-04T00:00:00	2024-11-06T00:00:00	2	Temperatura media	13.7
89274	7	Sololá	702	San José Chacayá	5	Chacayá	4	Abril	2023-11-04T00:00:00	2024-11-06T00:00:00	4	Temperatura máxima	13.8
89275	7	Sololá	702	San José Chacayá	5	Chacayá	4	Abril	2023-11-04T00:00:00	2024-11-06T00:00:00	3	Temperatura mínima	13.5
89276	7	Sololá	702	San José Chacayá	5	Chacayá	4	Abril	2023-11-04T00:00:00	2024-11-06T00:00:00	5	Humedad	62
89277	7	Sololá	702	San José Chacayá	5	Chacayá	4	Abril	2023-11-04T00:00:00	2024-11-06T00:00:00	6	Velocidad del viento	6.4
89278	7	Sololá	702	San José Chacayá	5	Chacayá	4	Abril	2023-11-04T00:00:00	2024-11-06T00:00:00	7	Dirección del viento	6.44
89279	7	Sololá	702	San José Chacayá	5	Chacayá	4	Abril	2023-11-04T00:00:00	2024-11-06T00:00:00	1	Precipitación	0
89280	7	Sololá	702	San José Chacayá	5	Chacayá	4	Abril	2023-11-04T00:00:00	2024-11-06T00:00:00	8	Radiación solar	0
89281	7	Sololá	702	San José Chacayá	5	Chacayá	4	Abril	2023-11-04T00:00:00	2024-11-06T01:00:00	2	Temperatura media	13.2
89282	7	Sololá	702	San José Chacayá	5	Chacayá	4	Abril	2023-11-04T00:00:00	2024-11-06T01:00:00	4	Temperatura máxima	13.6
89283	7	Sololá	702	San José Chacayá	5	Chacayá	4	Abril	2023-11-04T00:00:00	2024-11-06T01:00:00	3	Temperatura mínima	12.7
89284	7	Sololá	702	San José Chacayá	5	Chacayá	4	Abril	2023-11-04T00:00:00	2024-11-06T01:00:00	5	Humedad	62
89285	7	Sololá	702	San José Chacayá	5	Chacayá	4	Abril	2023-11-04T00:00:00	2024-11-06T01:00:00	6	Velocidad del viento	3.2
89286	7	Sololá	702	San José Chacayá	5	Chacayá	4	Abril	2023-11-04T00:00:00	2024-11-06T01:00:00	7	Dirección del viento	3.22
89287	7	Sololá	702	San José Chacayá	5	Chacayá	4	Abril	2023-11-04T00:00:00	2024-11-06T01:00:00	1	Precipitación	0
89288	7	Sololá	702	San José Chacayá	5	Chacayá	4	Abril	2023-11-04T00:00:00	2024-11-06T01:00:00	8	Radiación solar	0
89289	7	Sololá	702	San José Chacayá	5	Chacayá	4	Abril	2023-11-04T00:00:00	2024-11-06T02:00:00	2	Temperatura media	11.9
89290	7	Sololá	702	San José Chacayá	5	Chacayá	4	Abril	2023-11-04T00:00:00	2024-11-06T02:00:00	4	Temperatura máxima	13.4
89291	7	Sololá	702	San José Chacayá	5	Chacayá	4	Abril	2023-11-04T00:00:00	2024-11-06T02:00:00	3	Temperatura mínima	11.9
89292	7	Sololá	702	San José Chacayá	5	Chacayá	4	Abril	2023-11-04T00:00:00	2024-11-06T02:00:00	5	Humedad	65
89293	7	Sololá	702	San José Chacayá	5	Chacayá	4	Abril	2023-11-04T00:00:00	2024-11-06T02:00:00	6	Velocidad del viento	1.6
89294	7	Sololá	702	San José Chacayá	5	Chacayá	4	Abril	2023-11-04T00:00:00	2024-11-06T02:00:00	7	Dirección del viento	1.61
89295	7	Sololá	702	San José Chacayá	5	Chacayá	4	Abril	2023-11-04T00:00:00	2024-11-06T02:00:00	1	Precipitación	0
89296	7	Sololá	702	San José Chacayá	5	Chacayá	4	Abril	2023-11-04T00:00:00	2024-11-06T02:00:00	8	Radiación solar	0
89297	7	Sololá	702	San José Chacayá	5	Chacayá	4	Abril	2023-11-04T00:00:00	2024-11-06T03:00:00	2	Temperatura media	13.1
89298	7	Sololá	702	San José Chacayá	5	Chacayá	4	Abril	2023-11-04T00:00:00	2024-11-06T03:00:00	4	Temperatura máxima	13.2
89299	7	Sololá	702	San José Chacayá	5	Chacayá	4	Abril	2023-11-04T00:00:00	2024-11-06T03:00:00	3	Temperatura mínima	11.6
89300	7	Sololá	702	San José Chacayá	5	Chacayá	4	Abril	2023-11-04T00:00:00	2024-11-06T03:00:00	5	Humedad	62
89301	7	Sololá	702	San José Chacayá	5	Chacayá	4	Abril	2023-11-04T00:00:00	2024-11-06T03:00:00	6	Velocidad del viento	3.2
89302	7	Sololá	702	San José Chacayá	5	Chacayá	4	Abril	2023-11-04T00:00:00	2024-11-06T03:00:00	7	Dirección del viento	3.22
89303	7	Sololá	702	San José Chacayá	5	Chacayá	4	Abril	2023-11-04T00:00:00	2024-11-06T03:00:00	1	Precipitación	0
89304	7	Sololá	702	San José Chacayá	5	Chacayá	4	Abril	2023-11-04T00:00:00	2024-11-06T03:00:00	8	Radiación solar	0
89305	7	Sololá	702	San José Chacayá	5	Chacayá	4	Abril	2023-11-04T00:00:00	2024-11-06T04:00:00	2	Temperatura media	12.8
89306	7	Sololá	702	San José Chacayá	5	Chacayá	4	Abril	2023-11-04T00:00:00	2024-11-06T04:00:00	4	Temperatura máxima	13.1
89307	7	Sololá	702	San José Chacayá	5	Chacayá	4	Abril	2023-11-04T00:00:00	2024-11-06T04:00:00	3	Temperatura mínima	12.3
89308	7	Sololá	702	San José Chacayá	5	Chacayá	4	Abril	2023-11-04T00:00:00	2024-11-06T04:00:00	5	Humedad	64
89309	7	Sololá	702	San José Chacayá	5	Chacayá	4	Abril	2023-11-04T00:00:00	2024-11-06T04:00:00	6	Velocidad del viento	1.6
89310	7	Sololá	702	San José Chacayá	5	Chacayá	4	Abril	2023-11-04T00:00:00	2024-11-06T04:00:00	7	Dirección del viento	1.61
89311	7	Sololá	702	San José Chacayá	5	Chacayá	4	Abril	2023-11-04T00:00:00	2024-11-06T04:00:00	1	Precipitación	0
89312	7	Sololá	702	San José Chacayá	5	Chacayá	4	Abril	2023-11-04T00:00:00	2024-11-06T04:00:00	8	Radiación solar	0
89313	7	Sololá	702	San José Chacayá	5	Chacayá	4	Abril	2023-11-04T00:00:00	2024-11-06T05:00:00	2	Temperatura media	11.4
89314	7	Sololá	702	San José Chacayá	5	Chacayá	4	Abril	2023-11-04T00:00:00	2024-11-06T05:00:00	4	Temperatura máxima	12.8
89315	7	Sololá	702	San José Chacayá	5	Chacayá	4	Abril	2023-11-04T00:00:00	2024-11-06T05:00:00	3	Temperatura mínima	11.2
89316	7	Sololá	702	San José Chacayá	5	Chacayá	4	Abril	2023-11-04T00:00:00	2024-11-06T05:00:00	5	Humedad	68
89317	7	Sololá	702	San José Chacayá	5	Chacayá	4	Abril	2023-11-04T00:00:00	2024-11-06T05:00:00	6	Velocidad del viento	1.6
89318	7	Sololá	702	San José Chacayá	5	Chacayá	4	Abril	2023-11-04T00:00:00	2024-11-06T05:00:00	7	Dirección del viento	1.61
89319	7	Sololá	702	San José Chacayá	5	Chacayá	4	Abril	2023-11-04T00:00:00	2024-11-06T05:00:00	1	Precipitación	0
89320	7	Sololá	702	San José Chacayá	5	Chacayá	4	Abril	2023-11-04T00:00:00	2024-11-06T05:00:00	8	Radiación solar	0
89321	7	Sololá	702	San José Chacayá	5	Chacayá	4	Abril	2023-11-04T00:00:00	2024-11-06T06:00:00	2	Temperatura media	10.6
89322	7	Sololá	702	San José Chacayá	5	Chacayá	4	Abril	2023-11-04T00:00:00	2024-11-06T06:00:00	4	Temperatura máxima	11.9
89323	7	Sololá	702	San José Chacayá	5	Chacayá	4	Abril	2023-11-04T00:00:00	2024-11-06T06:00:00	3	Temperatura mínima	10.3
89324	7	Sololá	702	San José Chacayá	5	Chacayá	4	Abril	2023-11-04T00:00:00	2024-11-06T06:00:00	5	Humedad	76
89325	7	Sololá	702	San José Chacayá	5	Chacayá	4	Abril	2023-11-04T00:00:00	2024-11-06T06:00:00	6	Velocidad del viento	1.6
89326	7	Sololá	702	San José Chacayá	5	Chacayá	4	Abril	2023-11-04T00:00:00	2024-11-06T06:00:00	7	Dirección del viento	1.61
89327	7	Sololá	702	San José Chacayá	5	Chacayá	4	Abril	2023-11-04T00:00:00	2024-11-06T06:00:00	1	Precipitación	0
89328	7	Sololá	702	San José Chacayá	5	Chacayá	4	Abril	2023-11-04T00:00:00	2024-11-06T06:00:00	8	Radiación solar	1
89329	7	Sololá	702	San José Chacayá	5	Chacayá	4	Abril	2023-11-04T00:00:00	2024-11-06T07:00:00	2	Temperatura media	11.9
89330	7	Sololá	702	San José Chacayá	5	Chacayá	4	Abril	2023-11-04T00:00:00	2024-11-06T07:00:00	4	Temperatura máxima	12.2
89331	7	Sololá	702	San José Chacayá	5	Chacayá	4	Abril	2023-11-04T00:00:00	2024-11-06T07:00:00	3	Temperatura mínima	10.6
89332	7	Sololá	702	San José Chacayá	5	Chacayá	4	Abril	2023-11-04T00:00:00	2024-11-06T07:00:00	5	Humedad	73
89333	7	Sololá	702	San José Chacayá	5	Chacayá	4	Abril	2023-11-04T00:00:00	2024-11-06T07:00:00	6	Velocidad del viento	4.8
89334	7	Sololá	702	San José Chacayá	5	Chacayá	4	Abril	2023-11-04T00:00:00	2024-11-06T07:00:00	7	Dirección del viento	4.83
89335	7	Sololá	702	San José Chacayá	5	Chacayá	4	Abril	2023-11-04T00:00:00	2024-11-06T07:00:00	1	Precipitación	0
89336	7	Sololá	702	San José Chacayá	5	Chacayá	4	Abril	2023-11-04T00:00:00	2024-11-06T07:00:00	8	Radiación solar	23
89337	7	Sololá	702	San José Chacayá	5	Chacayá	4	Abril	2023-11-04T00:00:00	2024-11-06T08:00:00	2	Temperatura media	12.8
89338	7	Sololá	702	San José Chacayá	5	Chacayá	4	Abril	2023-11-04T00:00:00	2024-11-06T08:00:00	4	Temperatura máxima	12.8
89339	7	Sololá	702	San José Chacayá	5	Chacayá	4	Abril	2023-11-04T00:00:00	2024-11-06T08:00:00	3	Temperatura mínima	11.8
89340	7	Sololá	702	San José Chacayá	5	Chacayá	4	Abril	2023-11-04T00:00:00	2024-11-06T08:00:00	5	Humedad	71
89341	7	Sololá	702	San José Chacayá	5	Chacayá	4	Abril	2023-11-04T00:00:00	2024-11-06T08:00:00	6	Velocidad del viento	3.2
89342	7	Sololá	702	San José Chacayá	5	Chacayá	4	Abril	2023-11-04T00:00:00	2024-11-06T08:00:00	7	Dirección del viento	3.22
89343	7	Sololá	702	San José Chacayá	5	Chacayá	4	Abril	2023-11-04T00:00:00	2024-11-06T08:00:00	1	Precipitación	0
89344	7	Sololá	702	San José Chacayá	5	Chacayá	4	Abril	2023-11-04T00:00:00	2024-11-06T08:00:00	8	Radiación solar	48
89345	7	Sololá	702	San José Chacayá	5	Chacayá	4	Abril	2023-11-04T00:00:00	2024-11-06T09:00:00	2	Temperatura media	14.7
89346	7	Sololá	702	San José Chacayá	5	Chacayá	4	Abril	2023-11-04T00:00:00	2024-11-06T09:00:00	4	Temperatura máxima	14.7
89347	7	Sololá	702	San José Chacayá	5	Chacayá	4	Abril	2023-11-04T00:00:00	2024-11-06T09:00:00	3	Temperatura mínima	12.8
89348	7	Sololá	702	San José Chacayá	5	Chacayá	4	Abril	2023-11-04T00:00:00	2024-11-06T09:00:00	5	Humedad	63
89349	7	Sololá	702	San José Chacayá	5	Chacayá	4	Abril	2023-11-04T00:00:00	2024-11-06T09:00:00	6	Velocidad del viento	4.8
89350	7	Sololá	702	San José Chacayá	5	Chacayá	4	Abril	2023-11-04T00:00:00	2024-11-06T09:00:00	7	Dirección del viento	4.83
89351	7	Sololá	702	San José Chacayá	5	Chacayá	4	Abril	2023-11-04T00:00:00	2024-11-06T09:00:00	1	Precipitación	0
89352	7	Sololá	702	San José Chacayá	5	Chacayá	4	Abril	2023-11-04T00:00:00	2024-11-06T09:00:00	8	Radiación solar	422
89353	7	Sololá	702	San José Chacayá	5	Chacayá	4	Abril	2023-11-04T00:00:00	2024-11-06T10:00:00	2	Temperatura media	17.9
89354	7	Sololá	702	San José Chacayá	5	Chacayá	4	Abril	2023-11-04T00:00:00	2024-11-06T10:00:00	4	Temperatura máxima	17.9
89355	7	Sololá	702	San José Chacayá	5	Chacayá	4	Abril	2023-11-04T00:00:00	2024-11-06T10:00:00	3	Temperatura mínima	14.7
89356	7	Sololá	702	San José Chacayá	5	Chacayá	4	Abril	2023-11-04T00:00:00	2024-11-06T10:00:00	5	Humedad	57
89357	7	Sololá	702	San José Chacayá	5	Chacayá	4	Abril	2023-11-04T00:00:00	2024-11-06T10:00:00	6	Velocidad del viento	4.8
89358	7	Sololá	702	San José Chacayá	5	Chacayá	4	Abril	2023-11-04T00:00:00	2024-11-06T10:00:00	7	Dirección del viento	4.83
89359	7	Sololá	702	San José Chacayá	5	Chacayá	4	Abril	2023-11-04T00:00:00	2024-11-06T10:00:00	1	Precipitación	0
89360	7	Sololá	702	San José Chacayá	5	Chacayá	4	Abril	2023-11-04T00:00:00	2024-11-06T10:00:00	8	Radiación solar	779
89361	7	Sololá	702	San José Chacayá	5	Chacayá	4	Abril	2023-11-04T00:00:00	2024-11-06T11:00:00	2	Temperatura media	19.9
89362	7	Sololá	702	San José Chacayá	5	Chacayá	4	Abril	2023-11-04T00:00:00	2024-11-06T11:00:00	4	Temperatura máxima	19.9
89363	7	Sololá	702	San José Chacayá	5	Chacayá	4	Abril	2023-11-04T00:00:00	2024-11-06T11:00:00	3	Temperatura mínima	17.9
89364	7	Sololá	702	San José Chacayá	5	Chacayá	4	Abril	2023-11-04T00:00:00	2024-11-06T11:00:00	5	Humedad	51
89365	7	Sololá	702	San José Chacayá	5	Chacayá	4	Abril	2023-11-04T00:00:00	2024-11-06T11:00:00	6	Velocidad del viento	6.4
89366	7	Sololá	702	San José Chacayá	5	Chacayá	4	Abril	2023-11-04T00:00:00	2024-11-06T11:00:00	7	Dirección del viento	6.44
89367	7	Sololá	702	San José Chacayá	5	Chacayá	4	Abril	2023-11-04T00:00:00	2024-11-06T11:00:00	1	Precipitación	0
89368	7	Sololá	702	San José Chacayá	5	Chacayá	4	Abril	2023-11-04T00:00:00	2024-11-06T11:00:00	8	Radiación solar	933
89369	7	Sololá	702	San José Chacayá	5	Chacayá	4	Abril	2023-11-04T00:00:00	2024-11-06T12:00:00	2	Temperatura media	21.3
89370	7	Sololá	702	San José Chacayá	5	Chacayá	4	Abril	2023-11-04T00:00:00	2024-11-06T12:00:00	4	Temperatura máxima	21.3
89371	7	Sololá	702	San José Chacayá	5	Chacayá	4	Abril	2023-11-04T00:00:00	2024-11-06T12:00:00	3	Temperatura mínima	19.9
89372	7	Sololá	702	San José Chacayá	5	Chacayá	4	Abril	2023-11-04T00:00:00	2024-11-06T12:00:00	5	Humedad	45
89373	7	Sololá	702	San José Chacayá	5	Chacayá	4	Abril	2023-11-04T00:00:00	2024-11-06T12:00:00	6	Velocidad del viento	9.7
89374	7	Sololá	702	San José Chacayá	5	Chacayá	4	Abril	2023-11-04T00:00:00	2024-11-06T12:00:00	7	Dirección del viento	9.66
89375	7	Sololá	702	San José Chacayá	5	Chacayá	4	Abril	2023-11-04T00:00:00	2024-11-06T12:00:00	1	Precipitación	0
89376	7	Sololá	702	San José Chacayá	5	Chacayá	4	Abril	2023-11-04T00:00:00	2024-11-06T12:00:00	8	Radiación solar	1011
89377	7	Sololá	702	San José Chacayá	5	Chacayá	4	Abril	2023-11-04T00:00:00	2024-11-06T13:00:00	2	Temperatura media	22.3
89378	7	Sololá	702	San José Chacayá	5	Chacayá	4	Abril	2023-11-04T00:00:00	2024-11-06T13:00:00	4	Temperatura máxima	22.4
89379	7	Sololá	702	San José Chacayá	5	Chacayá	4	Abril	2023-11-04T00:00:00	2024-11-06T13:00:00	3	Temperatura mínima	21.3
89380	7	Sololá	702	San José Chacayá	5	Chacayá	4	Abril	2023-11-04T00:00:00	2024-11-06T13:00:00	5	Humedad	40
89381	7	Sololá	702	San José Chacayá	5	Chacayá	4	Abril	2023-11-04T00:00:00	2024-11-06T13:00:00	6	Velocidad del viento	8
89382	7	Sololá	702	San José Chacayá	5	Chacayá	4	Abril	2023-11-04T00:00:00	2024-11-06T13:00:00	7	Dirección del viento	8.05
89383	7	Sololá	702	San José Chacayá	5	Chacayá	4	Abril	2023-11-04T00:00:00	2024-11-06T13:00:00	1	Precipitación	0
89384	7	Sololá	702	San José Chacayá	5	Chacayá	4	Abril	2023-11-04T00:00:00	2024-11-06T13:00:00	8	Radiación solar	1026
89385	7	Sololá	702	San José Chacayá	5	Chacayá	4	Abril	2023-11-04T00:00:00	2024-11-06T14:00:00	2	Temperatura media	23.5
89386	7	Sololá	702	San José Chacayá	5	Chacayá	4	Abril	2023-11-04T00:00:00	2024-11-06T14:00:00	4	Temperatura máxima	23.5
89387	7	Sololá	702	San José Chacayá	5	Chacayá	4	Abril	2023-11-04T00:00:00	2024-11-06T14:00:00	3	Temperatura mínima	22.3
89388	7	Sololá	702	San José Chacayá	5	Chacayá	4	Abril	2023-11-04T00:00:00	2024-11-06T14:00:00	5	Humedad	39
89389	7	Sololá	702	San José Chacayá	5	Chacayá	4	Abril	2023-11-04T00:00:00	2024-11-06T14:00:00	6	Velocidad del viento	8
89390	7	Sololá	702	San José Chacayá	5	Chacayá	4	Abril	2023-11-04T00:00:00	2024-11-06T14:00:00	7	Dirección del viento	8.05
89391	7	Sololá	702	San José Chacayá	5	Chacayá	4	Abril	2023-11-04T00:00:00	2024-11-06T14:00:00	1	Precipitación	0
89392	7	Sololá	702	San José Chacayá	5	Chacayá	4	Abril	2023-11-04T00:00:00	2024-11-06T14:00:00	8	Radiación solar	915
89393	7	Sololá	702	San José Chacayá	5	Chacayá	4	Abril	2023-11-04T00:00:00	2024-11-06T15:00:00	2	Temperatura media	21.3
89394	7	Sololá	702	San José Chacayá	5	Chacayá	4	Abril	2023-11-04T00:00:00	2024-11-06T15:00:00	4	Temperatura máxima	23.7
89395	7	Sololá	702	San José Chacayá	5	Chacayá	4	Abril	2023-11-04T00:00:00	2024-11-06T15:00:00	3	Temperatura mínima	21.3
89396	7	Sololá	702	San José Chacayá	5	Chacayá	4	Abril	2023-11-04T00:00:00	2024-11-06T15:00:00	5	Humedad	58
89397	7	Sololá	702	San José Chacayá	5	Chacayá	4	Abril	2023-11-04T00:00:00	2024-11-06T15:00:00	6	Velocidad del viento	9.7
89398	7	Sololá	702	San José Chacayá	5	Chacayá	4	Abril	2023-11-04T00:00:00	2024-11-06T15:00:00	7	Dirección del viento	9.66
89399	7	Sololá	702	San José Chacayá	5	Chacayá	4	Abril	2023-11-04T00:00:00	2024-11-06T15:00:00	1	Precipitación	0
89400	7	Sololá	702	San José Chacayá	5	Chacayá	4	Abril	2023-11-04T00:00:00	2024-11-06T15:00:00	8	Radiación solar	697
89401	7	Sololá	702	San José Chacayá	5	Chacayá	4	Abril	2023-11-04T00:00:00	2024-11-06T16:00:00	2	Temperatura media	20.6
89402	7	Sololá	702	San José Chacayá	5	Chacayá	4	Abril	2023-11-04T00:00:00	2024-11-06T16:00:00	4	Temperatura máxima	21.5
89403	7	Sololá	702	San José Chacayá	5	Chacayá	4	Abril	2023-11-04T00:00:00	2024-11-06T16:00:00	3	Temperatura mínima	20.3
89404	7	Sololá	702	San José Chacayá	5	Chacayá	4	Abril	2023-11-04T00:00:00	2024-11-06T16:00:00	5	Humedad	61
89405	7	Sololá	702	San José Chacayá	5	Chacayá	4	Abril	2023-11-04T00:00:00	2024-11-06T16:00:00	6	Velocidad del viento	6.4
89406	7	Sololá	702	San José Chacayá	5	Chacayá	4	Abril	2023-11-04T00:00:00	2024-11-06T16:00:00	7	Dirección del viento	6.44
89407	7	Sololá	702	San José Chacayá	5	Chacayá	4	Abril	2023-11-04T00:00:00	2024-11-06T16:00:00	1	Precipitación	0
89408	7	Sololá	702	San José Chacayá	5	Chacayá	4	Abril	2023-11-04T00:00:00	2024-11-06T16:00:00	8	Radiación solar	482
89409	7	Sololá	702	San José Chacayá	5	Chacayá	4	Abril	2023-11-04T00:00:00	2024-11-06T17:00:00	2	Temperatura media	20.5
89410	7	Sololá	702	San José Chacayá	5	Chacayá	4	Abril	2023-11-04T00:00:00	2024-11-06T17:00:00	4	Temperatura máxima	20.9
89411	7	Sololá	702	San José Chacayá	5	Chacayá	4	Abril	2023-11-04T00:00:00	2024-11-06T17:00:00	3	Temperatura mínima	20.1
89412	7	Sololá	702	San José Chacayá	5	Chacayá	4	Abril	2023-11-04T00:00:00	2024-11-06T17:00:00	5	Humedad	64
89413	7	Sololá	702	San José Chacayá	5	Chacayá	4	Abril	2023-11-04T00:00:00	2024-11-06T17:00:00	6	Velocidad del viento	4.8
89414	7	Sololá	702	San José Chacayá	5	Chacayá	4	Abril	2023-11-04T00:00:00	2024-11-06T17:00:00	7	Dirección del viento	4.83
89415	7	Sololá	702	San José Chacayá	5	Chacayá	4	Abril	2023-11-04T00:00:00	2024-11-06T17:00:00	1	Precipitación	0
89416	7	Sololá	702	San José Chacayá	5	Chacayá	4	Abril	2023-11-04T00:00:00	2024-11-06T17:00:00	8	Radiación solar	153
89417	7	Sololá	702	San José Chacayá	5	Chacayá	4	Abril	2023-11-04T00:00:00	2024-11-06T18:00:00	2	Temperatura media	18.7
89418	7	Sololá	702	San José Chacayá	5	Chacayá	4	Abril	2023-11-04T00:00:00	2024-11-06T18:00:00	4	Temperatura máxima	20.5
89419	7	Sololá	702	San José Chacayá	5	Chacayá	4	Abril	2023-11-04T00:00:00	2024-11-06T18:00:00	3	Temperatura mínima	18.7
89420	7	Sololá	702	San José Chacayá	5	Chacayá	4	Abril	2023-11-04T00:00:00	2024-11-06T18:00:00	5	Humedad	73
89421	7	Sololá	702	San José Chacayá	5	Chacayá	4	Abril	2023-11-04T00:00:00	2024-11-06T18:00:00	6	Velocidad del viento	3.2
89422	7	Sololá	702	San José Chacayá	5	Chacayá	4	Abril	2023-11-04T00:00:00	2024-11-06T18:00:00	7	Dirección del viento	3.22
89423	7	Sololá	702	San José Chacayá	5	Chacayá	4	Abril	2023-11-04T00:00:00	2024-11-06T18:00:00	1	Precipitación	0
89424	7	Sololá	702	San José Chacayá	5	Chacayá	4	Abril	2023-11-04T00:00:00	2024-11-06T18:00:00	8	Radiación solar	45
89425	7	Sololá	702	San José Chacayá	5	Chacayá	4	Abril	2023-11-04T00:00:00	2024-11-06T19:00:00	2	Temperatura media	16.5
89426	7	Sololá	702	San José Chacayá	5	Chacayá	4	Abril	2023-11-04T00:00:00	2024-11-06T19:00:00	4	Temperatura máxima	18.7
89427	7	Sololá	702	San José Chacayá	5	Chacayá	4	Abril	2023-11-04T00:00:00	2024-11-06T19:00:00	3	Temperatura mínima	16.5
89428	7	Sololá	702	San José Chacayá	5	Chacayá	4	Abril	2023-11-04T00:00:00	2024-11-06T19:00:00	5	Humedad	81
89429	7	Sololá	702	San José Chacayá	5	Chacayá	4	Abril	2023-11-04T00:00:00	2024-11-06T19:00:00	6	Velocidad del viento	0
89430	7	Sololá	702	San José Chacayá	5	Chacayá	4	Abril	2023-11-04T00:00:00	2024-11-06T19:00:00	7	Dirección del viento	0
89431	7	Sololá	702	San José Chacayá	5	Chacayá	4	Abril	2023-11-04T00:00:00	2024-11-06T19:00:00	1	Precipitación	0
89432	7	Sololá	702	San José Chacayá	5	Chacayá	4	Abril	2023-11-04T00:00:00	2024-11-06T19:00:00	8	Radiación solar	0
89433	7	Sololá	702	San José Chacayá	5	Chacayá	4	Abril	2023-11-04T00:00:00	2024-11-06T20:00:00	2	Temperatura media	15.2
89434	7	Sololá	702	San José Chacayá	5	Chacayá	4	Abril	2023-11-04T00:00:00	2024-11-06T20:00:00	4	Temperatura máxima	16.5
89435	7	Sololá	702	San José Chacayá	5	Chacayá	4	Abril	2023-11-04T00:00:00	2024-11-06T20:00:00	3	Temperatura mínima	14.9
89436	7	Sololá	702	San José Chacayá	5	Chacayá	4	Abril	2023-11-04T00:00:00	2024-11-06T20:00:00	5	Humedad	83
89437	7	Sololá	702	San José Chacayá	5	Chacayá	4	Abril	2023-11-04T00:00:00	2024-11-06T20:00:00	6	Velocidad del viento	0
89438	7	Sololá	702	San José Chacayá	5	Chacayá	4	Abril	2023-11-04T00:00:00	2024-11-06T20:00:00	7	Dirección del viento	0
89439	7	Sololá	702	San José Chacayá	5	Chacayá	4	Abril	2023-11-04T00:00:00	2024-11-06T20:00:00	1	Precipitación	0
89440	7	Sololá	702	San José Chacayá	5	Chacayá	4	Abril	2023-11-04T00:00:00	2024-11-06T20:00:00	8	Radiación solar	0
89441	7	Sololá	702	San José Chacayá	5	Chacayá	4	Abril	2023-11-04T00:00:00	2024-11-06T21:00:00	2	Temperatura media	14.6
89442	7	Sololá	702	San José Chacayá	5	Chacayá	4	Abril	2023-11-04T00:00:00	2024-11-06T21:00:00	4	Temperatura máxima	15.2
89443	7	Sololá	702	San José Chacayá	5	Chacayá	4	Abril	2023-11-04T00:00:00	2024-11-06T21:00:00	3	Temperatura mínima	14.4
89444	7	Sololá	702	San José Chacayá	5	Chacayá	4	Abril	2023-11-04T00:00:00	2024-11-06T21:00:00	5	Humedad	74
89445	7	Sololá	702	San José Chacayá	5	Chacayá	4	Abril	2023-11-04T00:00:00	2024-11-06T21:00:00	6	Velocidad del viento	1.6
89446	7	Sololá	702	San José Chacayá	5	Chacayá	4	Abril	2023-11-04T00:00:00	2024-11-06T21:00:00	7	Dirección del viento	1.61
89447	7	Sololá	702	San José Chacayá	5	Chacayá	4	Abril	2023-11-04T00:00:00	2024-11-06T21:00:00	1	Precipitación	0
89448	7	Sololá	702	San José Chacayá	5	Chacayá	4	Abril	2023-11-04T00:00:00	2024-11-06T21:00:00	8	Radiación solar	0
89449	7	Sololá	702	San José Chacayá	5	Chacayá	4	Abril	2023-11-04T00:00:00	2024-11-06T22:00:00	2	Temperatura media	14.2
89450	7	Sololá	702	San José Chacayá	5	Chacayá	4	Abril	2023-11-04T00:00:00	2024-11-06T22:00:00	4	Temperatura máxima	14.7
89451	7	Sololá	702	San José Chacayá	5	Chacayá	4	Abril	2023-11-04T00:00:00	2024-11-06T22:00:00	3	Temperatura mínima	14.2
89452	7	Sololá	702	San José Chacayá	5	Chacayá	4	Abril	2023-11-04T00:00:00	2024-11-06T22:00:00	5	Humedad	75
89453	7	Sololá	702	San José Chacayá	5	Chacayá	4	Abril	2023-11-04T00:00:00	2024-11-06T22:00:00	6	Velocidad del viento	1.6
89454	7	Sololá	702	San José Chacayá	5	Chacayá	4	Abril	2023-11-04T00:00:00	2024-11-06T22:00:00	7	Dirección del viento	1.61
89455	7	Sololá	702	San José Chacayá	5	Chacayá	4	Abril	2023-11-04T00:00:00	2024-11-06T22:00:00	1	Precipitación	0
89456	7	Sololá	702	San José Chacayá	5	Chacayá	4	Abril	2023-11-04T00:00:00	2024-11-06T22:00:00	8	Radiación solar	0
89457	7	Sololá	702	San José Chacayá	5	Chacayá	4	Abril	2023-11-04T00:00:00	2024-11-06T23:00:00	2	Temperatura media	13.4
89458	7	Sololá	702	San José Chacayá	5	Chacayá	4	Abril	2023-11-04T00:00:00	2024-11-06T23:00:00	4	Temperatura máxima	14.2
89459	7	Sololá	702	San José Chacayá	5	Chacayá	4	Abril	2023-11-04T00:00:00	2024-11-06T23:00:00	3	Temperatura mínima	13.4
89460	7	Sololá	702	San José Chacayá	5	Chacayá	4	Abril	2023-11-04T00:00:00	2024-11-06T23:00:00	5	Humedad	73
89461	7	Sololá	702	San José Chacayá	5	Chacayá	4	Abril	2023-11-04T00:00:00	2024-11-06T23:00:00	6	Velocidad del viento	1.6
89462	7	Sololá	702	San José Chacayá	5	Chacayá	4	Abril	2023-11-04T00:00:00	2024-11-06T23:00:00	7	Dirección del viento	1.61
89463	7	Sololá	702	San José Chacayá	5	Chacayá	4	Abril	2023-11-04T00:00:00	2024-11-06T23:00:00	1	Precipitación	0
89464	7	Sololá	702	San José Chacayá	5	Chacayá	4	Abril	2023-11-04T00:00:00	2024-11-06T23:00:00	8	Radiación solar	0
89465	7	Sololá	702	San José Chacayá	5	Chacayá	4	Abril	2023-12-04T00:00:00	2024-11-06T00:00:00	2	Temperatura media	9.9
89466	7	Sololá	702	San José Chacayá	5	Chacayá	4	Abril	2023-12-04T00:00:00	2024-11-06T00:00:00	4	Temperatura máxima	13.4
89467	7	Sololá	702	San José Chacayá	5	Chacayá	4	Abril	2023-12-04T00:00:00	2024-11-06T00:00:00	3	Temperatura mínima	9.9
89468	7	Sololá	702	San José Chacayá	5	Chacayá	4	Abril	2023-12-04T00:00:00	2024-11-06T00:00:00	5	Humedad	81
89469	7	Sololá	702	San José Chacayá	5	Chacayá	4	Abril	2023-12-04T00:00:00	2024-11-06T00:00:00	6	Velocidad del viento	1.6
89470	7	Sololá	702	San José Chacayá	5	Chacayá	4	Abril	2023-12-04T00:00:00	2024-11-06T00:00:00	7	Dirección del viento	1.61
89471	7	Sololá	702	San José Chacayá	5	Chacayá	4	Abril	2023-12-04T00:00:00	2024-11-06T00:00:00	1	Precipitación	0
89472	7	Sololá	702	San José Chacayá	5	Chacayá	4	Abril	2023-12-04T00:00:00	2024-11-06T00:00:00	8	Radiación solar	0
89473	7	Sololá	702	San José Chacayá	5	Chacayá	4	Abril	2023-12-04T00:00:00	2024-11-06T01:00:00	2	Temperatura media	8.9
89474	7	Sololá	702	San José Chacayá	5	Chacayá	4	Abril	2023-12-04T00:00:00	2024-11-06T01:00:00	4	Temperatura máxima	9.9
89475	7	Sololá	702	San José Chacayá	5	Chacayá	4	Abril	2023-12-04T00:00:00	2024-11-06T01:00:00	3	Temperatura mínima	8.8
89476	7	Sololá	702	San José Chacayá	5	Chacayá	4	Abril	2023-12-04T00:00:00	2024-11-06T01:00:00	5	Humedad	82
89477	7	Sololá	702	San José Chacayá	5	Chacayá	4	Abril	2023-12-04T00:00:00	2024-11-06T01:00:00	6	Velocidad del viento	1.6
89478	7	Sololá	702	San José Chacayá	5	Chacayá	4	Abril	2023-12-04T00:00:00	2024-11-06T01:00:00	7	Dirección del viento	1.61
89479	7	Sololá	702	San José Chacayá	5	Chacayá	4	Abril	2023-12-04T00:00:00	2024-11-06T01:00:00	1	Precipitación	0
89480	7	Sololá	702	San José Chacayá	5	Chacayá	4	Abril	2023-12-04T00:00:00	2024-11-06T01:00:00	8	Radiación solar	0
89481	7	Sololá	702	San José Chacayá	5	Chacayá	4	Abril	2023-12-04T00:00:00	2024-11-06T02:00:00	2	Temperatura media	8.2
89482	7	Sololá	702	San José Chacayá	5	Chacayá	4	Abril	2023-12-04T00:00:00	2024-11-06T02:00:00	4	Temperatura máxima	8.8
89483	7	Sololá	702	San José Chacayá	5	Chacayá	4	Abril	2023-12-04T00:00:00	2024-11-06T02:00:00	3	Temperatura mínima	8.2
89484	7	Sololá	702	San José Chacayá	5	Chacayá	4	Abril	2023-12-04T00:00:00	2024-11-06T02:00:00	5	Humedad	83
89485	7	Sololá	702	San José Chacayá	5	Chacayá	4	Abril	2023-12-04T00:00:00	2024-11-06T02:00:00	6	Velocidad del viento	3.2
89486	7	Sololá	702	San José Chacayá	5	Chacayá	4	Abril	2023-12-04T00:00:00	2024-11-06T02:00:00	7	Dirección del viento	3.22
89487	7	Sololá	702	San José Chacayá	5	Chacayá	4	Abril	2023-12-04T00:00:00	2024-11-06T02:00:00	1	Precipitación	0
89488	7	Sololá	702	San José Chacayá	5	Chacayá	4	Abril	2023-12-04T00:00:00	2024-11-06T02:00:00	8	Radiación solar	0
89489	7	Sololá	702	San José Chacayá	5	Chacayá	4	Abril	2023-12-04T00:00:00	2024-11-06T03:00:00	2	Temperatura media	7.6
89490	7	Sololá	702	San José Chacayá	5	Chacayá	4	Abril	2023-12-04T00:00:00	2024-11-06T03:00:00	4	Temperatura máxima	8.2
89491	7	Sololá	702	San José Chacayá	5	Chacayá	4	Abril	2023-12-04T00:00:00	2024-11-06T03:00:00	3	Temperatura mínima	7.6
89492	7	Sololá	702	San José Chacayá	5	Chacayá	4	Abril	2023-12-04T00:00:00	2024-11-06T03:00:00	5	Humedad	83
89493	7	Sololá	702	San José Chacayá	5	Chacayá	4	Abril	2023-12-04T00:00:00	2024-11-06T03:00:00	6	Velocidad del viento	3.2
89494	7	Sololá	702	San José Chacayá	5	Chacayá	4	Abril	2023-12-04T00:00:00	2024-11-06T03:00:00	7	Dirección del viento	3.22
89495	7	Sololá	702	San José Chacayá	5	Chacayá	4	Abril	2023-12-04T00:00:00	2024-11-06T03:00:00	1	Precipitación	0
89496	7	Sololá	702	San José Chacayá	5	Chacayá	4	Abril	2023-12-04T00:00:00	2024-11-06T03:00:00	8	Radiación solar	0
89497	7	Sololá	702	San José Chacayá	5	Chacayá	4	Abril	2023-12-04T00:00:00	2024-11-06T04:00:00	2	Temperatura media	7.3
89498	7	Sololá	702	San José Chacayá	5	Chacayá	4	Abril	2023-12-04T00:00:00	2024-11-06T04:00:00	4	Temperatura máxima	7.6
89499	7	Sololá	702	San José Chacayá	5	Chacayá	4	Abril	2023-12-04T00:00:00	2024-11-06T04:00:00	3	Temperatura mínima	7.3
89500	7	Sololá	702	San José Chacayá	5	Chacayá	4	Abril	2023-12-04T00:00:00	2024-11-06T04:00:00	5	Humedad	83
89501	7	Sololá	702	San José Chacayá	5	Chacayá	4	Abril	2023-12-04T00:00:00	2024-11-06T04:00:00	6	Velocidad del viento	4.8
89502	7	Sololá	702	San José Chacayá	5	Chacayá	4	Abril	2023-12-04T00:00:00	2024-11-06T04:00:00	7	Dirección del viento	4.83
89503	7	Sololá	702	San José Chacayá	5	Chacayá	4	Abril	2023-12-04T00:00:00	2024-11-06T04:00:00	1	Precipitación	0
89504	7	Sololá	702	San José Chacayá	5	Chacayá	4	Abril	2023-12-04T00:00:00	2024-11-06T04:00:00	8	Radiación solar	0
89505	7	Sololá	702	San José Chacayá	5	Chacayá	4	Abril	2023-12-04T00:00:00	2024-11-06T05:00:00	2	Temperatura media	8
89506	7	Sololá	702	San José Chacayá	5	Chacayá	4	Abril	2023-12-04T00:00:00	2024-11-06T05:00:00	4	Temperatura máxima	8
89507	7	Sololá	702	San José Chacayá	5	Chacayá	4	Abril	2023-12-04T00:00:00	2024-11-06T05:00:00	3	Temperatura mínima	7.3
89508	7	Sololá	702	San José Chacayá	5	Chacayá	4	Abril	2023-12-04T00:00:00	2024-11-06T05:00:00	5	Humedad	78
89509	7	Sololá	702	San José Chacayá	5	Chacayá	4	Abril	2023-12-04T00:00:00	2024-11-06T05:00:00	6	Velocidad del viento	4.8
89510	7	Sololá	702	San José Chacayá	5	Chacayá	4	Abril	2023-12-04T00:00:00	2024-11-06T05:00:00	7	Dirección del viento	4.83
89511	7	Sololá	702	San José Chacayá	5	Chacayá	4	Abril	2023-12-04T00:00:00	2024-11-06T05:00:00	1	Precipitación	0
89512	7	Sololá	702	San José Chacayá	5	Chacayá	4	Abril	2023-12-04T00:00:00	2024-11-06T05:00:00	8	Radiación solar	0
89513	7	Sololá	702	San José Chacayá	5	Chacayá	4	Abril	2023-12-04T00:00:00	2024-11-06T06:00:00	2	Temperatura media	7.3
89514	7	Sololá	702	San José Chacayá	5	Chacayá	4	Abril	2023-12-04T00:00:00	2024-11-06T06:00:00	4	Temperatura máxima	8
89515	7	Sololá	702	San José Chacayá	5	Chacayá	4	Abril	2023-12-04T00:00:00	2024-11-06T06:00:00	3	Temperatura mínima	7.2
89516	7	Sololá	702	San José Chacayá	5	Chacayá	4	Abril	2023-12-04T00:00:00	2024-11-06T06:00:00	5	Humedad	79
89517	7	Sololá	702	San José Chacayá	5	Chacayá	4	Abril	2023-12-04T00:00:00	2024-11-06T06:00:00	6	Velocidad del viento	4.8
89518	7	Sololá	702	San José Chacayá	5	Chacayá	4	Abril	2023-12-04T00:00:00	2024-11-06T06:00:00	7	Dirección del viento	4.83
89519	7	Sololá	702	San José Chacayá	5	Chacayá	4	Abril	2023-12-04T00:00:00	2024-11-06T06:00:00	1	Precipitación	0
89520	7	Sololá	702	San José Chacayá	5	Chacayá	4	Abril	2023-12-04T00:00:00	2024-11-06T06:00:00	8	Radiación solar	1
89521	7	Sololá	702	San José Chacayá	5	Chacayá	4	Abril	2023-12-04T00:00:00	2024-11-06T07:00:00	2	Temperatura media	8.1
89522	7	Sololá	702	San José Chacayá	5	Chacayá	4	Abril	2023-12-04T00:00:00	2024-11-06T07:00:00	4	Temperatura máxima	8.2
89523	7	Sololá	702	San José Chacayá	5	Chacayá	4	Abril	2023-12-04T00:00:00	2024-11-06T07:00:00	3	Temperatura mínima	7.2
89524	7	Sololá	702	San José Chacayá	5	Chacayá	4	Abril	2023-12-04T00:00:00	2024-11-06T07:00:00	5	Humedad	75
89525	7	Sololá	702	San José Chacayá	5	Chacayá	4	Abril	2023-12-04T00:00:00	2024-11-06T07:00:00	6	Velocidad del viento	3.2
89526	7	Sololá	702	San José Chacayá	5	Chacayá	4	Abril	2023-12-04T00:00:00	2024-11-06T07:00:00	7	Dirección del viento	3.22
89527	7	Sololá	702	San José Chacayá	5	Chacayá	4	Abril	2023-12-04T00:00:00	2024-11-06T07:00:00	1	Precipitación	0
89528	7	Sololá	702	San José Chacayá	5	Chacayá	4	Abril	2023-12-04T00:00:00	2024-11-06T07:00:00	8	Radiación solar	33
89529	7	Sololá	702	San José Chacayá	5	Chacayá	4	Abril	2023-12-04T00:00:00	2024-11-06T08:00:00	2	Temperatura media	9.1
89530	7	Sololá	702	San José Chacayá	5	Chacayá	4	Abril	2023-12-04T00:00:00	2024-11-06T08:00:00	4	Temperatura máxima	9.1
89531	7	Sololá	702	San José Chacayá	5	Chacayá	4	Abril	2023-12-04T00:00:00	2024-11-06T08:00:00	3	Temperatura mínima	7.5
89532	7	Sololá	702	San José Chacayá	5	Chacayá	4	Abril	2023-12-04T00:00:00	2024-11-06T08:00:00	5	Humedad	75
89533	7	Sololá	702	San José Chacayá	5	Chacayá	4	Abril	2023-12-04T00:00:00	2024-11-06T08:00:00	6	Velocidad del viento	3.2
89534	7	Sololá	702	San José Chacayá	5	Chacayá	4	Abril	2023-12-04T00:00:00	2024-11-06T08:00:00	7	Dirección del viento	3.22
89535	7	Sololá	702	San José Chacayá	5	Chacayá	4	Abril	2023-12-04T00:00:00	2024-11-06T08:00:00	1	Precipitación	0
89536	7	Sololá	702	San José Chacayá	5	Chacayá	4	Abril	2023-12-04T00:00:00	2024-11-06T08:00:00	8	Radiación solar	95
89537	7	Sololá	702	San José Chacayá	5	Chacayá	4	Abril	2023-12-04T00:00:00	2024-11-06T09:00:00	2	Temperatura media	15.3
89538	7	Sololá	702	San José Chacayá	5	Chacayá	4	Abril	2023-12-04T00:00:00	2024-11-06T09:00:00	4	Temperatura máxima	15.3
89539	7	Sololá	702	San José Chacayá	5	Chacayá	4	Abril	2023-12-04T00:00:00	2024-11-06T09:00:00	3	Temperatura mínima	9.1
89540	7	Sololá	702	San José Chacayá	5	Chacayá	4	Abril	2023-12-04T00:00:00	2024-11-06T09:00:00	5	Humedad	56
89541	7	Sololá	702	San José Chacayá	5	Chacayá	4	Abril	2023-12-04T00:00:00	2024-11-06T09:00:00	6	Velocidad del viento	1.6
89542	7	Sololá	702	San José Chacayá	5	Chacayá	4	Abril	2023-12-04T00:00:00	2024-11-06T09:00:00	7	Dirección del viento	1.61
89543	7	Sololá	702	San José Chacayá	5	Chacayá	4	Abril	2023-12-04T00:00:00	2024-11-06T09:00:00	1	Precipitación	0
89544	7	Sololá	702	San José Chacayá	5	Chacayá	4	Abril	2023-12-04T00:00:00	2024-11-06T09:00:00	8	Radiación solar	284
89545	7	Sololá	702	San José Chacayá	5	Chacayá	4	Abril	2023-12-04T00:00:00	2024-11-06T10:00:00	2	Temperatura media	17.6
89546	7	Sololá	702	San José Chacayá	5	Chacayá	4	Abril	2023-12-04T00:00:00	2024-11-06T10:00:00	4	Temperatura máxima	17.6
89547	7	Sololá	702	San José Chacayá	5	Chacayá	4	Abril	2023-12-04T00:00:00	2024-11-06T10:00:00	3	Temperatura mínima	15.3
89548	7	Sololá	702	San José Chacayá	5	Chacayá	4	Abril	2023-12-04T00:00:00	2024-11-06T10:00:00	5	Humedad	55
89549	7	Sololá	702	San José Chacayá	5	Chacayá	4	Abril	2023-12-04T00:00:00	2024-11-06T10:00:00	6	Velocidad del viento	1.6
89550	7	Sololá	702	San José Chacayá	5	Chacayá	4	Abril	2023-12-04T00:00:00	2024-11-06T10:00:00	7	Dirección del viento	1.61
89551	7	Sololá	702	San José Chacayá	5	Chacayá	4	Abril	2023-12-04T00:00:00	2024-11-06T10:00:00	1	Precipitación	0
89552	7	Sololá	702	San José Chacayá	5	Chacayá	4	Abril	2023-12-04T00:00:00	2024-11-06T10:00:00	8	Radiación solar	477
89553	7	Sololá	702	San José Chacayá	5	Chacayá	4	Abril	2023-12-04T00:00:00	2024-11-06T11:00:00	2	Temperatura media	17.5
89554	7	Sololá	702	San José Chacayá	5	Chacayá	4	Abril	2023-12-04T00:00:00	2024-11-06T11:00:00	4	Temperatura máxima	18.7
89555	7	Sololá	702	San José Chacayá	5	Chacayá	4	Abril	2023-12-04T00:00:00	2024-11-06T11:00:00	3	Temperatura mínima	17.5
89556	7	Sololá	702	San José Chacayá	5	Chacayá	4	Abril	2023-12-04T00:00:00	2024-11-06T11:00:00	5	Humedad	53
89557	7	Sololá	702	San José Chacayá	5	Chacayá	4	Abril	2023-12-04T00:00:00	2024-11-06T11:00:00	6	Velocidad del viento	6.4
89558	7	Sololá	702	San José Chacayá	5	Chacayá	4	Abril	2023-12-04T00:00:00	2024-11-06T11:00:00	7	Dirección del viento	6.44
89559	7	Sololá	702	San José Chacayá	5	Chacayá	4	Abril	2023-12-04T00:00:00	2024-11-06T11:00:00	1	Precipitación	0
89560	7	Sololá	702	San José Chacayá	5	Chacayá	4	Abril	2023-12-04T00:00:00	2024-11-06T11:00:00	8	Radiación solar	355
89561	7	Sololá	702	San José Chacayá	5	Chacayá	4	Abril	2023-12-04T00:00:00	2024-11-06T12:00:00	2	Temperatura media	18.6
89562	7	Sololá	702	San José Chacayá	5	Chacayá	4	Abril	2023-12-04T00:00:00	2024-11-06T12:00:00	4	Temperatura máxima	18.6
89563	7	Sololá	702	San José Chacayá	5	Chacayá	4	Abril	2023-12-04T00:00:00	2024-11-06T12:00:00	3	Temperatura mínima	17.4
89564	7	Sololá	702	San José Chacayá	5	Chacayá	4	Abril	2023-12-04T00:00:00	2024-11-06T12:00:00	5	Humedad	54
89565	7	Sololá	702	San José Chacayá	5	Chacayá	4	Abril	2023-12-04T00:00:00	2024-11-06T12:00:00	6	Velocidad del viento	3.2
89566	7	Sololá	702	San José Chacayá	5	Chacayá	4	Abril	2023-12-04T00:00:00	2024-11-06T12:00:00	7	Dirección del viento	3.22
89567	7	Sololá	702	San José Chacayá	5	Chacayá	4	Abril	2023-12-04T00:00:00	2024-11-06T12:00:00	1	Precipitación	0
89568	7	Sololá	702	San José Chacayá	5	Chacayá	4	Abril	2023-12-04T00:00:00	2024-11-06T12:00:00	8	Radiación solar	546
89569	7	Sololá	702	San José Chacayá	5	Chacayá	4	Abril	2023-12-04T00:00:00	2024-11-06T13:00:00	2	Temperatura media	19.8
89570	7	Sololá	702	San José Chacayá	5	Chacayá	4	Abril	2023-12-04T00:00:00	2024-11-06T13:00:00	4	Temperatura máxima	19.8
89571	7	Sololá	702	San José Chacayá	5	Chacayá	4	Abril	2023-12-04T00:00:00	2024-11-06T13:00:00	3	Temperatura mínima	18.4
89572	7	Sololá	702	San José Chacayá	5	Chacayá	4	Abril	2023-12-04T00:00:00	2024-11-06T13:00:00	5	Humedad	55
89573	7	Sololá	702	San José Chacayá	5	Chacayá	4	Abril	2023-12-04T00:00:00	2024-11-06T13:00:00	6	Velocidad del viento	4.8
89574	7	Sololá	702	San José Chacayá	5	Chacayá	4	Abril	2023-12-04T00:00:00	2024-11-06T13:00:00	7	Dirección del viento	4.83
89575	7	Sololá	702	San José Chacayá	5	Chacayá	4	Abril	2023-12-04T00:00:00	2024-11-06T13:00:00	1	Precipitación	0
89576	7	Sololá	702	San José Chacayá	5	Chacayá	4	Abril	2023-12-04T00:00:00	2024-11-06T13:00:00	8	Radiación solar	499
89577	7	Sololá	702	San José Chacayá	5	Chacayá	4	Abril	2023-12-04T00:00:00	2024-11-06T14:00:00	2	Temperatura media	19.2
89578	7	Sololá	702	San José Chacayá	5	Chacayá	4	Abril	2023-12-04T00:00:00	2024-11-06T14:00:00	4	Temperatura máxima	19.8
89579	7	Sololá	702	San José Chacayá	5	Chacayá	4	Abril	2023-12-04T00:00:00	2024-11-06T14:00:00	3	Temperatura mínima	18.9
89580	7	Sololá	702	San José Chacayá	5	Chacayá	4	Abril	2023-12-04T00:00:00	2024-11-06T14:00:00	5	Humedad	65
89581	7	Sololá	702	San José Chacayá	5	Chacayá	4	Abril	2023-12-04T00:00:00	2024-11-06T14:00:00	6	Velocidad del viento	4.8
89582	7	Sololá	702	San José Chacayá	5	Chacayá	4	Abril	2023-12-04T00:00:00	2024-11-06T14:00:00	7	Dirección del viento	4.83
89583	7	Sololá	702	San José Chacayá	5	Chacayá	4	Abril	2023-12-04T00:00:00	2024-11-06T14:00:00	1	Precipitación	0
89584	7	Sololá	702	San José Chacayá	5	Chacayá	4	Abril	2023-12-04T00:00:00	2024-11-06T14:00:00	8	Radiación solar	402
89585	7	Sololá	702	San José Chacayá	5	Chacayá	4	Abril	2023-12-04T00:00:00	2024-11-06T15:00:00	2	Temperatura media	18.4
89586	7	Sololá	702	San José Chacayá	5	Chacayá	4	Abril	2023-12-04T00:00:00	2024-11-06T15:00:00	4	Temperatura máxima	19.5
89587	7	Sololá	702	San José Chacayá	5	Chacayá	4	Abril	2023-12-04T00:00:00	2024-11-06T15:00:00	3	Temperatura mínima	18.4
89588	7	Sololá	702	San José Chacayá	5	Chacayá	4	Abril	2023-12-04T00:00:00	2024-11-06T15:00:00	5	Humedad	70
89589	7	Sololá	702	San José Chacayá	5	Chacayá	4	Abril	2023-12-04T00:00:00	2024-11-06T15:00:00	6	Velocidad del viento	4.8
89590	7	Sololá	702	San José Chacayá	5	Chacayá	4	Abril	2023-12-04T00:00:00	2024-11-06T15:00:00	7	Dirección del viento	4.83
89591	7	Sololá	702	San José Chacayá	5	Chacayá	4	Abril	2023-12-04T00:00:00	2024-11-06T15:00:00	1	Precipitación	0
89592	7	Sololá	702	San José Chacayá	5	Chacayá	4	Abril	2023-12-04T00:00:00	2024-11-06T15:00:00	8	Radiación solar	408
89593	7	Sololá	702	San José Chacayá	5	Chacayá	4	Abril	2023-12-04T00:00:00	2024-11-06T16:00:00	2	Temperatura media	18.5
89594	7	Sololá	702	San José Chacayá	5	Chacayá	4	Abril	2023-12-04T00:00:00	2024-11-06T16:00:00	4	Temperatura máxima	18.9
89595	7	Sololá	702	San José Chacayá	5	Chacayá	4	Abril	2023-12-04T00:00:00	2024-11-06T16:00:00	3	Temperatura mínima	18.2
89596	7	Sololá	702	San José Chacayá	5	Chacayá	4	Abril	2023-12-04T00:00:00	2024-11-06T16:00:00	5	Humedad	73
89597	7	Sololá	702	San José Chacayá	5	Chacayá	4	Abril	2023-12-04T00:00:00	2024-11-06T16:00:00	6	Velocidad del viento	6.4
89598	7	Sololá	702	San José Chacayá	5	Chacayá	4	Abril	2023-12-04T00:00:00	2024-11-06T16:00:00	7	Dirección del viento	6.44
89599	7	Sololá	702	San José Chacayá	5	Chacayá	4	Abril	2023-12-04T00:00:00	2024-11-06T16:00:00	1	Precipitación	0
89600	7	Sololá	702	San José Chacayá	5	Chacayá	4	Abril	2023-12-04T00:00:00	2024-11-06T16:00:00	8	Radiación solar	123
89601	7	Sololá	702	San José Chacayá	5	Chacayá	4	Abril	2023-12-04T00:00:00	2024-11-06T17:00:00	2	Temperatura media	16.6
89602	7	Sololá	702	San José Chacayá	5	Chacayá	4	Abril	2023-12-04T00:00:00	2024-11-06T17:00:00	4	Temperatura máxima	18.5
89603	7	Sololá	702	San José Chacayá	5	Chacayá	4	Abril	2023-12-04T00:00:00	2024-11-06T17:00:00	3	Temperatura mínima	16.6
89604	7	Sololá	702	San José Chacayá	5	Chacayá	4	Abril	2023-12-04T00:00:00	2024-11-06T17:00:00	5	Humedad	80
89605	7	Sololá	702	San José Chacayá	5	Chacayá	4	Abril	2023-12-04T00:00:00	2024-11-06T17:00:00	6	Velocidad del viento	3.2
89606	7	Sololá	702	San José Chacayá	5	Chacayá	4	Abril	2023-12-04T00:00:00	2024-11-06T17:00:00	7	Dirección del viento	3.22
89607	7	Sololá	702	San José Chacayá	5	Chacayá	4	Abril	2023-12-04T00:00:00	2024-11-06T17:00:00	1	Precipitación	0
89608	7	Sololá	702	San José Chacayá	5	Chacayá	4	Abril	2023-12-04T00:00:00	2024-11-06T17:00:00	8	Radiación solar	170
89609	7	Sololá	702	San José Chacayá	5	Chacayá	4	Abril	2023-12-04T00:00:00	2024-11-06T18:00:00	2	Temperatura media	17.6
89610	7	Sololá	702	San José Chacayá	5	Chacayá	4	Abril	2023-12-04T00:00:00	2024-11-06T18:00:00	4	Temperatura máxima	17.7
89611	7	Sololá	702	San José Chacayá	5	Chacayá	4	Abril	2023-12-04T00:00:00	2024-11-06T18:00:00	3	Temperatura mínima	16.6
89612	7	Sololá	702	San José Chacayá	5	Chacayá	4	Abril	2023-12-04T00:00:00	2024-11-06T18:00:00	5	Humedad	75
89613	7	Sololá	702	San José Chacayá	5	Chacayá	4	Abril	2023-12-04T00:00:00	2024-11-06T18:00:00	6	Velocidad del viento	1.6
89614	7	Sololá	702	San José Chacayá	5	Chacayá	4	Abril	2023-12-04T00:00:00	2024-11-06T18:00:00	7	Dirección del viento	1.61
89615	7	Sololá	702	San José Chacayá	5	Chacayá	4	Abril	2023-12-04T00:00:00	2024-11-06T18:00:00	1	Precipitación	0
89616	7	Sololá	702	San José Chacayá	5	Chacayá	4	Abril	2023-12-04T00:00:00	2024-11-06T18:00:00	8	Radiación solar	51
89617	7	Sololá	702	San José Chacayá	5	Chacayá	4	Abril	2023-12-04T00:00:00	2024-11-06T19:00:00	2	Temperatura media	15.9
89618	7	Sololá	702	San José Chacayá	5	Chacayá	4	Abril	2023-12-04T00:00:00	2024-11-06T19:00:00	4	Temperatura máxima	17.6
89619	7	Sololá	702	San José Chacayá	5	Chacayá	4	Abril	2023-12-04T00:00:00	2024-11-06T19:00:00	3	Temperatura mínima	15.9
89620	7	Sololá	702	San José Chacayá	5	Chacayá	4	Abril	2023-12-04T00:00:00	2024-11-06T19:00:00	5	Humedad	83
89621	7	Sololá	702	San José Chacayá	5	Chacayá	4	Abril	2023-12-04T00:00:00	2024-11-06T19:00:00	6	Velocidad del viento	0
89622	7	Sololá	702	San José Chacayá	5	Chacayá	4	Abril	2023-12-04T00:00:00	2024-11-06T19:00:00	7	Dirección del viento	0
89623	7	Sololá	702	San José Chacayá	5	Chacayá	4	Abril	2023-12-04T00:00:00	2024-11-06T19:00:00	1	Precipitación	0
89624	7	Sololá	702	San José Chacayá	5	Chacayá	4	Abril	2023-12-04T00:00:00	2024-11-06T19:00:00	8	Radiación solar	0
89625	7	Sololá	702	San José Chacayá	5	Chacayá	4	Abril	2023-12-04T00:00:00	2024-11-06T20:00:00	2	Temperatura media	15
89626	7	Sololá	702	San José Chacayá	5	Chacayá	4	Abril	2023-12-04T00:00:00	2024-11-06T20:00:00	4	Temperatura máxima	15.9
89627	7	Sololá	702	San José Chacayá	5	Chacayá	4	Abril	2023-12-04T00:00:00	2024-11-06T20:00:00	3	Temperatura mínima	15
89628	7	Sololá	702	San José Chacayá	5	Chacayá	4	Abril	2023-12-04T00:00:00	2024-11-06T20:00:00	5	Humedad	84
89629	7	Sololá	702	San José Chacayá	5	Chacayá	4	Abril	2023-12-04T00:00:00	2024-11-06T20:00:00	6	Velocidad del viento	0
89630	7	Sololá	702	San José Chacayá	5	Chacayá	4	Abril	2023-12-04T00:00:00	2024-11-06T20:00:00	7	Dirección del viento	0
89631	7	Sololá	702	San José Chacayá	5	Chacayá	4	Abril	2023-12-04T00:00:00	2024-11-06T20:00:00	1	Precipitación	0
89632	7	Sololá	702	San José Chacayá	5	Chacayá	4	Abril	2023-12-04T00:00:00	2024-11-06T20:00:00	8	Radiación solar	0
89633	7	Sololá	702	San José Chacayá	5	Chacayá	4	Abril	2023-12-04T00:00:00	2024-11-06T21:00:00	2	Temperatura media	14.5
89634	7	Sololá	702	San José Chacayá	5	Chacayá	4	Abril	2023-12-04T00:00:00	2024-11-06T21:00:00	4	Temperatura máxima	15
89635	7	Sololá	702	San José Chacayá	5	Chacayá	4	Abril	2023-12-04T00:00:00	2024-11-06T21:00:00	3	Temperatura mínima	14.5
89636	7	Sololá	702	San José Chacayá	5	Chacayá	4	Abril	2023-12-04T00:00:00	2024-11-06T21:00:00	5	Humedad	84
89637	7	Sololá	702	San José Chacayá	5	Chacayá	4	Abril	2023-12-04T00:00:00	2024-11-06T21:00:00	6	Velocidad del viento	0
89638	7	Sololá	702	San José Chacayá	5	Chacayá	4	Abril	2023-12-04T00:00:00	2024-11-06T21:00:00	7	Dirección del viento	0
89639	7	Sololá	702	San José Chacayá	5	Chacayá	4	Abril	2023-12-04T00:00:00	2024-11-06T21:00:00	1	Precipitación	0
89640	7	Sololá	702	San José Chacayá	5	Chacayá	4	Abril	2023-12-04T00:00:00	2024-11-06T21:00:00	8	Radiación solar	0
89641	7	Sololá	702	San José Chacayá	5	Chacayá	4	Abril	2023-12-04T00:00:00	2024-11-06T22:00:00	2	Temperatura media	14.6
89642	7	Sololá	702	San José Chacayá	5	Chacayá	4	Abril	2023-12-04T00:00:00	2024-11-06T22:00:00	4	Temperatura máxima	14.8
89643	7	Sololá	702	San José Chacayá	5	Chacayá	4	Abril	2023-12-04T00:00:00	2024-11-06T22:00:00	3	Temperatura mínima	14.3
89644	7	Sololá	702	San José Chacayá	5	Chacayá	4	Abril	2023-12-04T00:00:00	2024-11-06T22:00:00	5	Humedad	82
89645	7	Sololá	702	San José Chacayá	5	Chacayá	4	Abril	2023-12-04T00:00:00	2024-11-06T22:00:00	6	Velocidad del viento	0
89646	7	Sololá	702	San José Chacayá	5	Chacayá	4	Abril	2023-12-04T00:00:00	2024-11-06T22:00:00	7	Dirección del viento	0
89647	7	Sololá	702	San José Chacayá	5	Chacayá	4	Abril	2023-12-04T00:00:00	2024-11-06T22:00:00	1	Precipitación	0
89648	7	Sololá	702	San José Chacayá	5	Chacayá	4	Abril	2023-12-04T00:00:00	2024-11-06T22:00:00	8	Radiación solar	0
89649	7	Sololá	702	San José Chacayá	5	Chacayá	4	Abril	2023-12-04T00:00:00	2024-11-06T23:00:00	2	Temperatura media	14.2
89650	7	Sololá	702	San José Chacayá	5	Chacayá	4	Abril	2023-12-04T00:00:00	2024-11-06T23:00:00	4	Temperatura máxima	14.7
89651	7	Sololá	702	San José Chacayá	5	Chacayá	4	Abril	2023-12-04T00:00:00	2024-11-06T23:00:00	3	Temperatura mínima	14.1
89652	7	Sololá	702	San José Chacayá	5	Chacayá	4	Abril	2023-12-04T00:00:00	2024-11-06T23:00:00	5	Humedad	83
89653	7	Sololá	702	San José Chacayá	5	Chacayá	4	Abril	2023-12-04T00:00:00	2024-11-06T23:00:00	6	Velocidad del viento	0
89654	7	Sololá	702	San José Chacayá	5	Chacayá	4	Abril	2023-12-04T00:00:00	2024-11-06T23:00:00	7	Dirección del viento	0
89655	7	Sololá	702	San José Chacayá	5	Chacayá	4	Abril	2023-12-04T00:00:00	2024-11-06T23:00:00	1	Precipitación	0
89656	7	Sololá	702	San José Chacayá	5	Chacayá	4	Abril	2023-12-04T00:00:00	2024-11-06T23:00:00	8	Radiación solar	0
89657	7	Sololá	702	San José Chacayá	5	Chacayá	4	Abril	2023-04-13T00:00:00	2024-11-06T00:00:00	2	Temperatura media	12.7
89658	7	Sololá	702	San José Chacayá	5	Chacayá	4	Abril	2023-04-13T00:00:00	2024-11-06T00:00:00	4	Temperatura máxima	14.3
89659	7	Sololá	702	San José Chacayá	5	Chacayá	4	Abril	2023-04-13T00:00:00	2024-11-06T00:00:00	3	Temperatura mínima	12.7
89660	7	Sololá	702	San José Chacayá	5	Chacayá	4	Abril	2023-04-13T00:00:00	2024-11-06T00:00:00	5	Humedad	84
89661	7	Sololá	702	San José Chacayá	5	Chacayá	4	Abril	2023-04-13T00:00:00	2024-11-06T00:00:00	6	Velocidad del viento	0
89662	7	Sololá	702	San José Chacayá	5	Chacayá	4	Abril	2023-04-13T00:00:00	2024-11-06T00:00:00	7	Dirección del viento	0
89663	7	Sololá	702	San José Chacayá	5	Chacayá	4	Abril	2023-04-13T00:00:00	2024-11-06T00:00:00	1	Precipitación	0
89664	7	Sololá	702	San José Chacayá	5	Chacayá	4	Abril	2023-04-13T00:00:00	2024-11-06T00:00:00	8	Radiación solar	0
89665	7	Sololá	702	San José Chacayá	5	Chacayá	4	Abril	2023-04-13T00:00:00	2024-11-06T01:00:00	2	Temperatura media	11.1
89666	7	Sololá	702	San José Chacayá	5	Chacayá	4	Abril	2023-04-13T00:00:00	2024-11-06T01:00:00	4	Temperatura máxima	12.7
89667	7	Sololá	702	San José Chacayá	5	Chacayá	4	Abril	2023-04-13T00:00:00	2024-11-06T01:00:00	3	Temperatura mínima	11.1
89668	7	Sololá	702	San José Chacayá	5	Chacayá	4	Abril	2023-04-13T00:00:00	2024-11-06T01:00:00	5	Humedad	83
89669	7	Sololá	702	San José Chacayá	5	Chacayá	4	Abril	2023-04-13T00:00:00	2024-11-06T01:00:00	6	Velocidad del viento	1.6
89670	7	Sololá	702	San José Chacayá	5	Chacayá	4	Abril	2023-04-13T00:00:00	2024-11-06T01:00:00	7	Dirección del viento	1.61
89671	7	Sololá	702	San José Chacayá	5	Chacayá	4	Abril	2023-04-13T00:00:00	2024-11-06T01:00:00	1	Precipitación	0
89672	7	Sololá	702	San José Chacayá	5	Chacayá	4	Abril	2023-04-13T00:00:00	2024-11-06T01:00:00	8	Radiación solar	0
89673	7	Sololá	702	San José Chacayá	5	Chacayá	4	Abril	2023-04-13T00:00:00	2024-11-06T02:00:00	2	Temperatura media	11.6
89674	7	Sololá	702	San José Chacayá	5	Chacayá	4	Abril	2023-04-13T00:00:00	2024-11-06T02:00:00	4	Temperatura máxima	11.6
89675	7	Sololá	702	San José Chacayá	5	Chacayá	4	Abril	2023-04-13T00:00:00	2024-11-06T02:00:00	3	Temperatura mínima	10.9
89676	7	Sololá	702	San José Chacayá	5	Chacayá	4	Abril	2023-04-13T00:00:00	2024-11-06T02:00:00	5	Humedad	84
89677	7	Sololá	702	San José Chacayá	5	Chacayá	4	Abril	2023-04-13T00:00:00	2024-11-06T02:00:00	6	Velocidad del viento	1.6
89678	7	Sololá	702	San José Chacayá	5	Chacayá	4	Abril	2023-04-13T00:00:00	2024-11-06T02:00:00	7	Dirección del viento	1.61
89679	7	Sololá	702	San José Chacayá	5	Chacayá	4	Abril	2023-04-13T00:00:00	2024-11-06T02:00:00	1	Precipitación	0
89680	7	Sololá	702	San José Chacayá	5	Chacayá	4	Abril	2023-04-13T00:00:00	2024-11-06T02:00:00	8	Radiación solar	0
89681	7	Sololá	702	San José Chacayá	5	Chacayá	4	Abril	2023-04-13T00:00:00	2024-11-06T03:00:00	2	Temperatura media	11.3
89682	7	Sololá	702	San José Chacayá	5	Chacayá	4	Abril	2023-04-13T00:00:00	2024-11-06T03:00:00	4	Temperatura máxima	11.8
89683	7	Sololá	702	San José Chacayá	5	Chacayá	4	Abril	2023-04-13T00:00:00	2024-11-06T03:00:00	3	Temperatura mínima	11.3
89684	7	Sololá	702	San José Chacayá	5	Chacayá	4	Abril	2023-04-13T00:00:00	2024-11-06T03:00:00	5	Humedad	84
89685	7	Sololá	702	San José Chacayá	5	Chacayá	4	Abril	2023-04-13T00:00:00	2024-11-06T03:00:00	6	Velocidad del viento	1.6
89686	7	Sololá	702	San José Chacayá	5	Chacayá	4	Abril	2023-04-13T00:00:00	2024-11-06T03:00:00	7	Dirección del viento	1.61
89687	7	Sololá	702	San José Chacayá	5	Chacayá	4	Abril	2023-04-13T00:00:00	2024-11-06T03:00:00	1	Precipitación	0
89688	7	Sololá	702	San José Chacayá	5	Chacayá	4	Abril	2023-04-13T00:00:00	2024-11-06T03:00:00	8	Radiación solar	0
89689	7	Sololá	702	San José Chacayá	5	Chacayá	4	Abril	2023-04-13T00:00:00	2024-11-06T04:00:00	2	Temperatura media	10.7
89690	7	Sololá	702	San José Chacayá	5	Chacayá	4	Abril	2023-04-13T00:00:00	2024-11-06T04:00:00	4	Temperatura máxima	11.3
89691	7	Sololá	702	San José Chacayá	5	Chacayá	4	Abril	2023-04-13T00:00:00	2024-11-06T04:00:00	3	Temperatura mínima	10.6
89692	7	Sololá	702	San José Chacayá	5	Chacayá	4	Abril	2023-04-13T00:00:00	2024-11-06T04:00:00	5	Humedad	85
89693	7	Sololá	702	San José Chacayá	5	Chacayá	4	Abril	2023-04-13T00:00:00	2024-11-06T04:00:00	6	Velocidad del viento	3.2
89694	7	Sololá	702	San José Chacayá	5	Chacayá	4	Abril	2023-04-13T00:00:00	2024-11-06T04:00:00	7	Dirección del viento	3.22
89695	7	Sololá	702	San José Chacayá	5	Chacayá	4	Abril	2023-04-13T00:00:00	2024-11-06T04:00:00	1	Precipitación	0
89696	7	Sololá	702	San José Chacayá	5	Chacayá	4	Abril	2023-04-13T00:00:00	2024-11-06T04:00:00	8	Radiación solar	0
89697	7	Sololá	702	San José Chacayá	5	Chacayá	4	Abril	2023-04-13T00:00:00	2024-11-06T05:00:00	2	Temperatura media	9.9
89698	7	Sololá	702	San José Chacayá	5	Chacayá	4	Abril	2023-04-13T00:00:00	2024-11-06T05:00:00	4	Temperatura máxima	10.7
89699	7	Sololá	702	San José Chacayá	5	Chacayá	4	Abril	2023-04-13T00:00:00	2024-11-06T05:00:00	3	Temperatura mínima	9.9
89700	7	Sololá	702	San José Chacayá	5	Chacayá	4	Abril	2023-04-13T00:00:00	2024-11-06T05:00:00	5	Humedad	85
89701	7	Sololá	702	San José Chacayá	5	Chacayá	4	Abril	2023-04-13T00:00:00	2024-11-06T05:00:00	6	Velocidad del viento	4.8
89702	7	Sololá	702	San José Chacayá	5	Chacayá	4	Abril	2023-04-13T00:00:00	2024-11-06T05:00:00	7	Dirección del viento	4.83
89703	7	Sololá	702	San José Chacayá	5	Chacayá	4	Abril	2023-04-13T00:00:00	2024-11-06T05:00:00	1	Precipitación	0
89704	7	Sololá	702	San José Chacayá	5	Chacayá	4	Abril	2023-04-13T00:00:00	2024-11-06T05:00:00	8	Radiación solar	0
89705	7	Sololá	702	San José Chacayá	5	Chacayá	4	Abril	2023-04-13T00:00:00	2024-11-06T06:00:00	2	Temperatura media	9.6
89706	7	Sololá	702	San José Chacayá	5	Chacayá	4	Abril	2023-04-13T00:00:00	2024-11-06T06:00:00	4	Temperatura máxima	10.1
89707	7	Sololá	702	San José Chacayá	5	Chacayá	4	Abril	2023-04-13T00:00:00	2024-11-06T06:00:00	3	Temperatura mínima	9.6
89708	7	Sololá	702	San José Chacayá	5	Chacayá	4	Abril	2023-04-13T00:00:00	2024-11-06T06:00:00	5	Humedad	85
89709	7	Sololá	702	San José Chacayá	5	Chacayá	4	Abril	2023-04-13T00:00:00	2024-11-06T06:00:00	6	Velocidad del viento	4.8
89710	7	Sololá	702	San José Chacayá	5	Chacayá	4	Abril	2023-04-13T00:00:00	2024-11-06T06:00:00	7	Dirección del viento	4.83
89711	7	Sololá	702	San José Chacayá	5	Chacayá	4	Abril	2023-04-13T00:00:00	2024-11-06T06:00:00	1	Precipitación	0
89712	7	Sololá	702	San José Chacayá	5	Chacayá	4	Abril	2023-04-13T00:00:00	2024-11-06T06:00:00	8	Radiación solar	1
89713	7	Sololá	702	San José Chacayá	5	Chacayá	4	Abril	2023-04-13T00:00:00	2024-11-06T07:00:00	2	Temperatura media	9.9
89714	7	Sololá	702	San José Chacayá	5	Chacayá	4	Abril	2023-04-13T00:00:00	2024-11-06T07:00:00	4	Temperatura máxima	10
89715	7	Sololá	702	San José Chacayá	5	Chacayá	4	Abril	2023-04-13T00:00:00	2024-11-06T07:00:00	3	Temperatura mínima	9.6
89716	7	Sololá	702	San José Chacayá	5	Chacayá	4	Abril	2023-04-13T00:00:00	2024-11-06T07:00:00	5	Humedad	85
89717	7	Sololá	702	San José Chacayá	5	Chacayá	4	Abril	2023-04-13T00:00:00	2024-11-06T07:00:00	6	Velocidad del viento	3.2
89718	7	Sololá	702	San José Chacayá	5	Chacayá	4	Abril	2023-04-13T00:00:00	2024-11-06T07:00:00	7	Dirección del viento	3.22
89719	7	Sololá	702	San José Chacayá	5	Chacayá	4	Abril	2023-04-13T00:00:00	2024-11-06T07:00:00	1	Precipitación	0
89720	7	Sololá	702	San José Chacayá	5	Chacayá	4	Abril	2023-04-13T00:00:00	2024-11-06T07:00:00	8	Radiación solar	33
89721	7	Sololá	702	San José Chacayá	5	Chacayá	4	Abril	2023-04-13T00:00:00	2024-11-06T08:00:00	2	Temperatura media	10.8
89722	7	Sololá	702	San José Chacayá	5	Chacayá	4	Abril	2023-04-13T00:00:00	2024-11-06T08:00:00	4	Temperatura máxima	10.8
89723	7	Sololá	702	San José Chacayá	5	Chacayá	4	Abril	2023-04-13T00:00:00	2024-11-06T08:00:00	3	Temperatura mínima	9.5
89724	7	Sololá	702	San José Chacayá	5	Chacayá	4	Abril	2023-04-13T00:00:00	2024-11-06T08:00:00	5	Humedad	84
89725	7	Sololá	702	San José Chacayá	5	Chacayá	4	Abril	2023-04-13T00:00:00	2024-11-06T08:00:00	6	Velocidad del viento	3.2
89726	7	Sololá	702	San José Chacayá	5	Chacayá	4	Abril	2023-04-13T00:00:00	2024-11-06T08:00:00	7	Dirección del viento	3.22
89727	7	Sololá	702	San José Chacayá	5	Chacayá	4	Abril	2023-04-13T00:00:00	2024-11-06T08:00:00	1	Precipitación	0
89728	7	Sololá	702	San José Chacayá	5	Chacayá	4	Abril	2023-04-13T00:00:00	2024-11-06T08:00:00	8	Radiación solar	129
89729	7	Sololá	702	San José Chacayá	5	Chacayá	4	Abril	2023-04-13T00:00:00	2024-11-06T09:00:00	2	Temperatura media	15.5
89730	7	Sololá	702	San José Chacayá	5	Chacayá	4	Abril	2023-04-13T00:00:00	2024-11-06T09:00:00	4	Temperatura máxima	15.5
89731	7	Sololá	702	San José Chacayá	5	Chacayá	4	Abril	2023-04-13T00:00:00	2024-11-06T09:00:00	3	Temperatura mínima	10.8
89732	7	Sololá	702	San José Chacayá	5	Chacayá	4	Abril	2023-04-13T00:00:00	2024-11-06T09:00:00	5	Humedad	77
89733	7	Sololá	702	San José Chacayá	5	Chacayá	4	Abril	2023-04-13T00:00:00	2024-11-06T09:00:00	6	Velocidad del viento	1.6
89734	7	Sololá	702	San José Chacayá	5	Chacayá	4	Abril	2023-04-13T00:00:00	2024-11-06T09:00:00	7	Dirección del viento	1.61
89735	7	Sololá	702	San José Chacayá	5	Chacayá	4	Abril	2023-04-13T00:00:00	2024-11-06T09:00:00	1	Precipitación	0
89736	7	Sololá	702	San José Chacayá	5	Chacayá	4	Abril	2023-04-13T00:00:00	2024-11-06T09:00:00	8	Radiación solar	473
89737	7	Sololá	702	San José Chacayá	5	Chacayá	4	Abril	2023-04-13T00:00:00	2024-11-06T10:00:00	2	Temperatura media	17.3
89738	7	Sololá	702	San José Chacayá	5	Chacayá	4	Abril	2023-04-13T00:00:00	2024-11-06T10:00:00	4	Temperatura máxima	17.6
89739	7	Sololá	702	San José Chacayá	5	Chacayá	4	Abril	2023-04-13T00:00:00	2024-11-06T10:00:00	3	Temperatura mínima	15.5
89740	7	Sololá	702	San José Chacayá	5	Chacayá	4	Abril	2023-04-13T00:00:00	2024-11-06T10:00:00	5	Humedad	68
89741	7	Sololá	702	San José Chacayá	5	Chacayá	4	Abril	2023-04-13T00:00:00	2024-11-06T10:00:00	6	Velocidad del viento	6.4
89742	7	Sololá	702	San José Chacayá	5	Chacayá	4	Abril	2023-04-13T00:00:00	2024-11-06T10:00:00	7	Dirección del viento	6.44
89743	7	Sololá	702	San José Chacayá	5	Chacayá	4	Abril	2023-04-13T00:00:00	2024-11-06T10:00:00	1	Precipitación	0
89744	7	Sololá	702	San José Chacayá	5	Chacayá	4	Abril	2023-04-13T00:00:00	2024-11-06T10:00:00	8	Radiación solar	552
89745	7	Sololá	702	San José Chacayá	5	Chacayá	4	Abril	2023-04-13T00:00:00	2024-11-06T11:00:00	2	Temperatura media	17.7
89746	7	Sololá	702	San José Chacayá	5	Chacayá	4	Abril	2023-04-13T00:00:00	2024-11-06T11:00:00	4	Temperatura máxima	18.2
89747	7	Sololá	702	San José Chacayá	5	Chacayá	4	Abril	2023-04-13T00:00:00	2024-11-06T11:00:00	3	Temperatura mínima	17
89748	7	Sololá	702	San José Chacayá	5	Chacayá	4	Abril	2023-04-13T00:00:00	2024-11-06T11:00:00	5	Humedad	71
89749	7	Sololá	702	San José Chacayá	5	Chacayá	4	Abril	2023-04-13T00:00:00	2024-11-06T11:00:00	6	Velocidad del viento	6.4
89750	7	Sololá	702	San José Chacayá	5	Chacayá	4	Abril	2023-04-13T00:00:00	2024-11-06T11:00:00	7	Dirección del viento	6.44
89751	7	Sololá	702	San José Chacayá	5	Chacayá	4	Abril	2023-04-13T00:00:00	2024-11-06T11:00:00	1	Precipitación	0
89752	7	Sololá	702	San José Chacayá	5	Chacayá	4	Abril	2023-04-13T00:00:00	2024-11-06T11:00:00	8	Radiación solar	948
89753	7	Sololá	702	San José Chacayá	5	Chacayá	4	Abril	2023-04-13T00:00:00	2024-11-06T12:00:00	2	Temperatura media	20.4
89754	7	Sololá	702	San José Chacayá	5	Chacayá	4	Abril	2023-04-13T00:00:00	2024-11-06T12:00:00	4	Temperatura máxima	20.4
89755	7	Sololá	702	San José Chacayá	5	Chacayá	4	Abril	2023-04-13T00:00:00	2024-11-06T12:00:00	3	Temperatura mínima	17.7
89756	7	Sololá	702	San José Chacayá	5	Chacayá	4	Abril	2023-04-13T00:00:00	2024-11-06T12:00:00	5	Humedad	59
89757	7	Sololá	702	San José Chacayá	5	Chacayá	4	Abril	2023-04-13T00:00:00	2024-11-06T12:00:00	6	Velocidad del viento	6.4
89758	7	Sololá	702	San José Chacayá	5	Chacayá	4	Abril	2023-04-13T00:00:00	2024-11-06T12:00:00	7	Dirección del viento	6.44
89759	7	Sololá	702	San José Chacayá	5	Chacayá	4	Abril	2023-04-13T00:00:00	2024-11-06T12:00:00	1	Precipitación	0
89760	7	Sololá	702	San José Chacayá	5	Chacayá	4	Abril	2023-04-13T00:00:00	2024-11-06T12:00:00	8	Radiación solar	981
89761	7	Sololá	702	San José Chacayá	5	Chacayá	4	Abril	2023-04-13T00:00:00	2024-11-06T13:00:00	2	Temperatura media	20.1
89762	7	Sololá	702	San José Chacayá	5	Chacayá	4	Abril	2023-04-13T00:00:00	2024-11-06T13:00:00	4	Temperatura máxima	20.8
89763	7	Sololá	702	San José Chacayá	5	Chacayá	4	Abril	2023-04-13T00:00:00	2024-11-06T13:00:00	3	Temperatura mínima	19.7
89764	7	Sololá	702	San José Chacayá	5	Chacayá	4	Abril	2023-04-13T00:00:00	2024-11-06T13:00:00	5	Humedad	67
89765	7	Sololá	702	San José Chacayá	5	Chacayá	4	Abril	2023-04-13T00:00:00	2024-11-06T13:00:00	6	Velocidad del viento	8
89766	7	Sololá	702	San José Chacayá	5	Chacayá	4	Abril	2023-04-13T00:00:00	2024-11-06T13:00:00	7	Dirección del viento	8.05
89767	7	Sololá	702	San José Chacayá	5	Chacayá	4	Abril	2023-04-13T00:00:00	2024-11-06T13:00:00	1	Precipitación	0
89768	7	Sololá	702	San José Chacayá	5	Chacayá	4	Abril	2023-04-13T00:00:00	2024-11-06T13:00:00	8	Radiación solar	1017
89769	7	Sololá	702	San José Chacayá	5	Chacayá	4	Abril	2023-04-13T00:00:00	2024-11-06T14:00:00	2	Temperatura media	19.7
89770	7	Sololá	702	San José Chacayá	5	Chacayá	4	Abril	2023-04-13T00:00:00	2024-11-06T14:00:00	4	Temperatura máxima	20.4
89771	7	Sololá	702	San José Chacayá	5	Chacayá	4	Abril	2023-04-13T00:00:00	2024-11-06T14:00:00	3	Temperatura mínima	19.7
89772	7	Sololá	702	San José Chacayá	5	Chacayá	4	Abril	2023-04-13T00:00:00	2024-11-06T14:00:00	5	Humedad	69
89773	7	Sololá	702	San José Chacayá	5	Chacayá	4	Abril	2023-04-13T00:00:00	2024-11-06T14:00:00	6	Velocidad del viento	8
89774	7	Sololá	702	San José Chacayá	5	Chacayá	4	Abril	2023-04-13T00:00:00	2024-11-06T14:00:00	7	Dirección del viento	8.05
89775	7	Sololá	702	San José Chacayá	5	Chacayá	4	Abril	2023-04-13T00:00:00	2024-11-06T14:00:00	1	Precipitación	0
89776	7	Sololá	702	San José Chacayá	5	Chacayá	4	Abril	2023-04-13T00:00:00	2024-11-06T14:00:00	8	Radiación solar	455
89777	7	Sololá	702	San José Chacayá	5	Chacayá	4	Abril	2023-04-13T00:00:00	2024-11-06T15:00:00	2	Temperatura media	18.9
89778	7	Sololá	702	San José Chacayá	5	Chacayá	4	Abril	2023-04-13T00:00:00	2024-11-06T15:00:00	4	Temperatura máxima	19.8
89779	7	Sololá	702	San José Chacayá	5	Chacayá	4	Abril	2023-04-13T00:00:00	2024-11-06T15:00:00	3	Temperatura mínima	18.7
89780	7	Sololá	702	San José Chacayá	5	Chacayá	4	Abril	2023-04-13T00:00:00	2024-11-06T15:00:00	5	Humedad	76
89781	7	Sololá	702	San José Chacayá	5	Chacayá	4	Abril	2023-04-13T00:00:00	2024-11-06T15:00:00	6	Velocidad del viento	8
89782	7	Sololá	702	San José Chacayá	5	Chacayá	4	Abril	2023-04-13T00:00:00	2024-11-06T15:00:00	7	Dirección del viento	8.05
89783	7	Sololá	702	San José Chacayá	5	Chacayá	4	Abril	2023-04-13T00:00:00	2024-11-06T15:00:00	1	Precipitación	0
89784	7	Sololá	702	San José Chacayá	5	Chacayá	4	Abril	2023-04-13T00:00:00	2024-11-06T15:00:00	8	Radiación solar	474
89785	7	Sololá	702	San José Chacayá	5	Chacayá	4	Abril	2023-04-13T00:00:00	2024-11-06T16:00:00	2	Temperatura media	18.1
89786	7	Sololá	702	San José Chacayá	5	Chacayá	4	Abril	2023-04-13T00:00:00	2024-11-06T16:00:00	4	Temperatura máxima	19.1
89787	7	Sololá	702	San José Chacayá	5	Chacayá	4	Abril	2023-04-13T00:00:00	2024-11-06T16:00:00	3	Temperatura mínima	18.1
89788	7	Sololá	702	San José Chacayá	5	Chacayá	4	Abril	2023-04-13T00:00:00	2024-11-06T16:00:00	5	Humedad	77
89789	7	Sololá	702	San José Chacayá	5	Chacayá	4	Abril	2023-04-13T00:00:00	2024-11-06T16:00:00	6	Velocidad del viento	8
89790	7	Sololá	702	San José Chacayá	5	Chacayá	4	Abril	2023-04-13T00:00:00	2024-11-06T16:00:00	7	Dirección del viento	8.05
89791	7	Sololá	702	San José Chacayá	5	Chacayá	4	Abril	2023-04-13T00:00:00	2024-11-06T16:00:00	1	Precipitación	0
89792	7	Sololá	702	San José Chacayá	5	Chacayá	4	Abril	2023-04-13T00:00:00	2024-11-06T16:00:00	8	Radiación solar	176
89793	7	Sololá	702	San José Chacayá	5	Chacayá	4	Abril	2023-04-13T00:00:00	2024-11-06T17:00:00	2	Temperatura media	17
89794	7	Sololá	702	San José Chacayá	5	Chacayá	4	Abril	2023-04-13T00:00:00	2024-11-06T17:00:00	4	Temperatura máxima	18.1
89795	7	Sololá	702	San José Chacayá	5	Chacayá	4	Abril	2023-04-13T00:00:00	2024-11-06T17:00:00	3	Temperatura mínima	16.9
89796	7	Sololá	702	San José Chacayá	5	Chacayá	4	Abril	2023-04-13T00:00:00	2024-11-06T17:00:00	5	Humedad	82
89797	7	Sololá	702	San José Chacayá	5	Chacayá	4	Abril	2023-04-13T00:00:00	2024-11-06T17:00:00	6	Velocidad del viento	4.8
89798	7	Sololá	702	San José Chacayá	5	Chacayá	4	Abril	2023-04-13T00:00:00	2024-11-06T17:00:00	7	Dirección del viento	4.83
89799	7	Sololá	702	San José Chacayá	5	Chacayá	4	Abril	2023-04-13T00:00:00	2024-11-06T17:00:00	1	Precipitación	0
89800	7	Sololá	702	San José Chacayá	5	Chacayá	4	Abril	2023-04-13T00:00:00	2024-11-06T17:00:00	8	Radiación solar	200
89801	7	Sololá	702	San José Chacayá	5	Chacayá	4	Abril	2023-04-13T00:00:00	2024-11-06T18:00:00	2	Temperatura media	17.4
89802	7	Sololá	702	San José Chacayá	5	Chacayá	4	Abril	2023-04-13T00:00:00	2024-11-06T18:00:00	4	Temperatura máxima	17.6
89803	7	Sololá	702	San José Chacayá	5	Chacayá	4	Abril	2023-04-13T00:00:00	2024-11-06T18:00:00	3	Temperatura mínima	16.9
89804	7	Sololá	702	San José Chacayá	5	Chacayá	4	Abril	2023-04-13T00:00:00	2024-11-06T18:00:00	5	Humedad	81
89805	7	Sololá	702	San José Chacayá	5	Chacayá	4	Abril	2023-04-13T00:00:00	2024-11-06T18:00:00	6	Velocidad del viento	1.6
89806	7	Sololá	702	San José Chacayá	5	Chacayá	4	Abril	2023-04-13T00:00:00	2024-11-06T18:00:00	7	Dirección del viento	1.61
89807	7	Sololá	702	San José Chacayá	5	Chacayá	4	Abril	2023-04-13T00:00:00	2024-11-06T18:00:00	1	Precipitación	0
89808	7	Sololá	702	San José Chacayá	5	Chacayá	4	Abril	2023-04-13T00:00:00	2024-11-06T18:00:00	8	Radiación solar	71
89809	7	Sololá	702	San José Chacayá	5	Chacayá	4	Abril	2023-04-13T00:00:00	2024-11-06T19:00:00	2	Temperatura media	16.2
89810	7	Sololá	702	San José Chacayá	5	Chacayá	4	Abril	2023-04-13T00:00:00	2024-11-06T19:00:00	4	Temperatura máxima	17.5
89811	7	Sololá	702	San José Chacayá	5	Chacayá	4	Abril	2023-04-13T00:00:00	2024-11-06T19:00:00	3	Temperatura mínima	16.2
89812	7	Sololá	702	San José Chacayá	5	Chacayá	4	Abril	2023-04-13T00:00:00	2024-11-06T19:00:00	5	Humedad	84
89813	7	Sololá	702	San José Chacayá	5	Chacayá	4	Abril	2023-04-13T00:00:00	2024-11-06T19:00:00	6	Velocidad del viento	1.6
89814	7	Sololá	702	San José Chacayá	5	Chacayá	4	Abril	2023-04-13T00:00:00	2024-11-06T19:00:00	7	Dirección del viento	1.61
89815	7	Sololá	702	San José Chacayá	5	Chacayá	4	Abril	2023-04-13T00:00:00	2024-11-06T19:00:00	1	Precipitación	0
89816	7	Sololá	702	San José Chacayá	5	Chacayá	4	Abril	2023-04-13T00:00:00	2024-11-06T19:00:00	8	Radiación solar	0
89817	7	Sololá	702	San José Chacayá	5	Chacayá	4	Abril	2023-04-13T00:00:00	2024-11-06T20:00:00	2	Temperatura media	15.5
89818	7	Sololá	702	San José Chacayá	5	Chacayá	4	Abril	2023-04-13T00:00:00	2024-11-06T20:00:00	4	Temperatura máxima	16.2
89819	7	Sololá	702	San José Chacayá	5	Chacayá	4	Abril	2023-04-13T00:00:00	2024-11-06T20:00:00	3	Temperatura mínima	15.5
89820	7	Sololá	702	San José Chacayá	5	Chacayá	4	Abril	2023-04-13T00:00:00	2024-11-06T20:00:00	5	Humedad	79
89821	7	Sololá	702	San José Chacayá	5	Chacayá	4	Abril	2023-04-13T00:00:00	2024-11-06T20:00:00	6	Velocidad del viento	0
89822	7	Sololá	702	San José Chacayá	5	Chacayá	4	Abril	2023-04-13T00:00:00	2024-11-06T20:00:00	7	Dirección del viento	0
89823	7	Sololá	702	San José Chacayá	5	Chacayá	4	Abril	2023-04-13T00:00:00	2024-11-06T20:00:00	1	Precipitación	0
89824	7	Sololá	702	San José Chacayá	5	Chacayá	4	Abril	2023-04-13T00:00:00	2024-11-06T20:00:00	8	Radiación solar	0
89825	7	Sololá	702	San José Chacayá	5	Chacayá	4	Abril	2023-04-13T00:00:00	2024-11-06T21:00:00	2	Temperatura media	15.1
89826	7	Sololá	702	San José Chacayá	5	Chacayá	4	Abril	2023-04-13T00:00:00	2024-11-06T21:00:00	4	Temperatura máxima	15.5
89827	7	Sololá	702	San José Chacayá	5	Chacayá	4	Abril	2023-04-13T00:00:00	2024-11-06T21:00:00	3	Temperatura mínima	15.1
89828	7	Sololá	702	San José Chacayá	5	Chacayá	4	Abril	2023-04-13T00:00:00	2024-11-06T21:00:00	5	Humedad	76
89829	7	Sololá	702	San José Chacayá	5	Chacayá	4	Abril	2023-04-13T00:00:00	2024-11-06T21:00:00	6	Velocidad del viento	0
89830	7	Sololá	702	San José Chacayá	5	Chacayá	4	Abril	2023-04-13T00:00:00	2024-11-06T21:00:00	7	Dirección del viento	0
89831	7	Sololá	702	San José Chacayá	5	Chacayá	4	Abril	2023-04-13T00:00:00	2024-11-06T21:00:00	1	Precipitación	0
89832	7	Sololá	702	San José Chacayá	5	Chacayá	4	Abril	2023-04-13T00:00:00	2024-11-06T21:00:00	8	Radiación solar	0
89833	7	Sololá	702	San José Chacayá	5	Chacayá	4	Abril	2023-04-13T00:00:00	2024-11-06T22:00:00	2	Temperatura media	13.9
89834	7	Sololá	702	San José Chacayá	5	Chacayá	4	Abril	2023-04-13T00:00:00	2024-11-06T22:00:00	4	Temperatura máxima	15.1
89835	7	Sololá	702	San José Chacayá	5	Chacayá	4	Abril	2023-04-13T00:00:00	2024-11-06T22:00:00	3	Temperatura mínima	13.9
89836	7	Sololá	702	San José Chacayá	5	Chacayá	4	Abril	2023-04-13T00:00:00	2024-11-06T22:00:00	5	Humedad	81
89837	7	Sololá	702	San José Chacayá	5	Chacayá	4	Abril	2023-04-13T00:00:00	2024-11-06T22:00:00	6	Velocidad del viento	0
89838	7	Sololá	702	San José Chacayá	5	Chacayá	4	Abril	2023-04-13T00:00:00	2024-11-06T22:00:00	7	Dirección del viento	0
89839	7	Sololá	702	San José Chacayá	5	Chacayá	4	Abril	2023-04-13T00:00:00	2024-11-06T22:00:00	1	Precipitación	0
89840	7	Sololá	702	San José Chacayá	5	Chacayá	4	Abril	2023-04-13T00:00:00	2024-11-06T22:00:00	8	Radiación solar	0
89841	7	Sololá	702	San José Chacayá	5	Chacayá	4	Abril	2023-04-13T00:00:00	2024-11-06T23:00:00	2	Temperatura media	12.9
89842	7	Sololá	702	San José Chacayá	5	Chacayá	4	Abril	2023-04-13T00:00:00	2024-11-06T23:00:00	4	Temperatura máxima	14
89843	7	Sololá	702	San José Chacayá	5	Chacayá	4	Abril	2023-04-13T00:00:00	2024-11-06T23:00:00	3	Temperatura mínima	12.9
89844	7	Sololá	702	San José Chacayá	5	Chacayá	4	Abril	2023-04-13T00:00:00	2024-11-06T23:00:00	5	Humedad	82
89845	7	Sololá	702	San José Chacayá	5	Chacayá	4	Abril	2023-04-13T00:00:00	2024-11-06T23:00:00	6	Velocidad del viento	1.6
89846	7	Sololá	702	San José Chacayá	5	Chacayá	4	Abril	2023-04-13T00:00:00	2024-11-06T23:00:00	7	Dirección del viento	1.61
89847	7	Sololá	702	San José Chacayá	5	Chacayá	4	Abril	2023-04-13T00:00:00	2024-11-06T23:00:00	1	Precipitación	0
89848	7	Sololá	702	San José Chacayá	5	Chacayá	4	Abril	2023-04-13T00:00:00	2024-11-06T23:00:00	8	Radiación solar	0
89849	7	Sololá	702	San José Chacayá	5	Chacayá	4	Abril	2023-04-14T00:00:00	2024-11-06T00:00:00	2	Temperatura media	11.8
89850	7	Sololá	702	San José Chacayá	5	Chacayá	4	Abril	2023-04-14T00:00:00	2024-11-06T00:00:00	4	Temperatura máxima	12.9
89851	7	Sololá	702	San José Chacayá	5	Chacayá	4	Abril	2023-04-14T00:00:00	2024-11-06T00:00:00	3	Temperatura mínima	11.8
89852	7	Sololá	702	San José Chacayá	5	Chacayá	4	Abril	2023-04-14T00:00:00	2024-11-06T00:00:00	5	Humedad	82
89853	7	Sololá	702	San José Chacayá	5	Chacayá	4	Abril	2023-04-14T00:00:00	2024-11-06T00:00:00	6	Velocidad del viento	3.2
89854	7	Sololá	702	San José Chacayá	5	Chacayá	4	Abril	2023-04-14T00:00:00	2024-11-06T00:00:00	7	Dirección del viento	3.22
89855	7	Sololá	702	San José Chacayá	5	Chacayá	4	Abril	2023-04-14T00:00:00	2024-11-06T00:00:00	1	Precipitación	0
89856	7	Sololá	702	San José Chacayá	5	Chacayá	4	Abril	2023-04-14T00:00:00	2024-11-06T00:00:00	8	Radiación solar	0
89857	7	Sololá	702	San José Chacayá	5	Chacayá	4	Abril	2023-04-14T00:00:00	2024-11-06T01:00:00	2	Temperatura media	11.3
89858	7	Sololá	702	San José Chacayá	5	Chacayá	4	Abril	2023-04-14T00:00:00	2024-11-06T01:00:00	4	Temperatura máxima	11.8
89859	7	Sololá	702	San José Chacayá	5	Chacayá	4	Abril	2023-04-14T00:00:00	2024-11-06T01:00:00	3	Temperatura mínima	11.3
89860	7	Sololá	702	San José Chacayá	5	Chacayá	4	Abril	2023-04-14T00:00:00	2024-11-06T01:00:00	5	Humedad	83
89861	7	Sololá	702	San José Chacayá	5	Chacayá	4	Abril	2023-04-14T00:00:00	2024-11-06T01:00:00	6	Velocidad del viento	1.6
89862	7	Sololá	702	San José Chacayá	5	Chacayá	4	Abril	2023-04-14T00:00:00	2024-11-06T01:00:00	7	Dirección del viento	1.61
89863	7	Sololá	702	San José Chacayá	5	Chacayá	4	Abril	2023-04-14T00:00:00	2024-11-06T01:00:00	1	Precipitación	0
89864	7	Sololá	702	San José Chacayá	5	Chacayá	4	Abril	2023-04-14T00:00:00	2024-11-06T01:00:00	8	Radiación solar	0
89865	7	Sololá	702	San José Chacayá	5	Chacayá	4	Abril	2023-04-14T00:00:00	2024-11-06T02:00:00	2	Temperatura media	10.3
89866	7	Sololá	702	San José Chacayá	5	Chacayá	4	Abril	2023-04-14T00:00:00	2024-11-06T02:00:00	4	Temperatura máxima	11.3
89867	7	Sololá	702	San José Chacayá	5	Chacayá	4	Abril	2023-04-14T00:00:00	2024-11-06T02:00:00	3	Temperatura mínima	10.3
89868	7	Sololá	702	San José Chacayá	5	Chacayá	4	Abril	2023-04-14T00:00:00	2024-11-06T02:00:00	5	Humedad	82
89869	7	Sololá	702	San José Chacayá	5	Chacayá	4	Abril	2023-04-14T00:00:00	2024-11-06T02:00:00	6	Velocidad del viento	1.6
89870	7	Sololá	702	San José Chacayá	5	Chacayá	4	Abril	2023-04-14T00:00:00	2024-11-06T02:00:00	7	Dirección del viento	1.61
89871	7	Sololá	702	San José Chacayá	5	Chacayá	4	Abril	2023-04-14T00:00:00	2024-11-06T02:00:00	1	Precipitación	0
89872	7	Sololá	702	San José Chacayá	5	Chacayá	4	Abril	2023-04-14T00:00:00	2024-11-06T02:00:00	8	Radiación solar	0
89873	7	Sololá	702	San José Chacayá	5	Chacayá	4	Abril	2023-04-14T00:00:00	2024-11-06T03:00:00	2	Temperatura media	9.6
89874	7	Sololá	702	San José Chacayá	5	Chacayá	4	Abril	2023-04-14T00:00:00	2024-11-06T03:00:00	4	Temperatura máxima	10.3
89875	7	Sololá	702	San José Chacayá	5	Chacayá	4	Abril	2023-04-14T00:00:00	2024-11-06T03:00:00	3	Temperatura mínima	9.6
89876	7	Sololá	702	San José Chacayá	5	Chacayá	4	Abril	2023-04-14T00:00:00	2024-11-06T03:00:00	5	Humedad	83
89877	7	Sololá	702	San José Chacayá	5	Chacayá	4	Abril	2023-04-14T00:00:00	2024-11-06T03:00:00	6	Velocidad del viento	3.2
89878	7	Sololá	702	San José Chacayá	5	Chacayá	4	Abril	2023-04-14T00:00:00	2024-11-06T03:00:00	7	Dirección del viento	3.22
89879	7	Sololá	702	San José Chacayá	5	Chacayá	4	Abril	2023-04-14T00:00:00	2024-11-06T03:00:00	1	Precipitación	0
89880	7	Sololá	702	San José Chacayá	5	Chacayá	4	Abril	2023-04-14T00:00:00	2024-11-06T03:00:00	8	Radiación solar	0
89881	7	Sololá	702	San José Chacayá	5	Chacayá	4	Abril	2023-04-14T00:00:00	2024-11-06T04:00:00	2	Temperatura media	9.3
89882	7	Sololá	702	San José Chacayá	5	Chacayá	4	Abril	2023-04-14T00:00:00	2024-11-06T04:00:00	4	Temperatura máxima	10
89883	7	Sololá	702	San José Chacayá	5	Chacayá	4	Abril	2023-04-14T00:00:00	2024-11-06T04:00:00	3	Temperatura mínima	9.3
89884	7	Sololá	702	San José Chacayá	5	Chacayá	4	Abril	2023-04-14T00:00:00	2024-11-06T04:00:00	5	Humedad	85
89885	7	Sololá	702	San José Chacayá	5	Chacayá	4	Abril	2023-04-14T00:00:00	2024-11-06T04:00:00	6	Velocidad del viento	3.2
89886	7	Sololá	702	San José Chacayá	5	Chacayá	4	Abril	2023-04-14T00:00:00	2024-11-06T04:00:00	7	Dirección del viento	3.22
89887	7	Sololá	702	San José Chacayá	5	Chacayá	4	Abril	2023-04-14T00:00:00	2024-11-06T04:00:00	1	Precipitación	0
89888	7	Sololá	702	San José Chacayá	5	Chacayá	4	Abril	2023-04-14T00:00:00	2024-11-06T04:00:00	8	Radiación solar	0
89889	7	Sololá	702	San José Chacayá	5	Chacayá	4	Abril	2023-04-14T00:00:00	2024-11-06T05:00:00	2	Temperatura media	9
89890	7	Sololá	702	San José Chacayá	5	Chacayá	4	Abril	2023-04-14T00:00:00	2024-11-06T05:00:00	4	Temperatura máxima	9.3
89891	7	Sololá	702	San José Chacayá	5	Chacayá	4	Abril	2023-04-14T00:00:00	2024-11-06T05:00:00	3	Temperatura mínima	8.6
89892	7	Sololá	702	San José Chacayá	5	Chacayá	4	Abril	2023-04-14T00:00:00	2024-11-06T05:00:00	5	Humedad	83
89893	7	Sololá	702	San José Chacayá	5	Chacayá	4	Abril	2023-04-14T00:00:00	2024-11-06T05:00:00	6	Velocidad del viento	3.2
89894	7	Sololá	702	San José Chacayá	5	Chacayá	4	Abril	2023-04-14T00:00:00	2024-11-06T05:00:00	7	Dirección del viento	3.22
89895	7	Sololá	702	San José Chacayá	5	Chacayá	4	Abril	2023-04-14T00:00:00	2024-11-06T05:00:00	1	Precipitación	0
89896	7	Sololá	702	San José Chacayá	5	Chacayá	4	Abril	2023-04-14T00:00:00	2024-11-06T05:00:00	8	Radiación solar	0
89897	7	Sololá	702	San José Chacayá	5	Chacayá	4	Abril	2023-04-14T00:00:00	2024-11-06T06:00:00	2	Temperatura media	9.3
89898	7	Sololá	702	San José Chacayá	5	Chacayá	4	Abril	2023-04-14T00:00:00	2024-11-06T06:00:00	4	Temperatura máxima	9.3
89899	7	Sololá	702	San José Chacayá	5	Chacayá	4	Abril	2023-04-14T00:00:00	2024-11-06T06:00:00	3	Temperatura mínima	8.8
89900	7	Sololá	702	San José Chacayá	5	Chacayá	4	Abril	2023-04-14T00:00:00	2024-11-06T06:00:00	5	Humedad	83
89901	7	Sololá	702	San José Chacayá	5	Chacayá	4	Abril	2023-04-14T00:00:00	2024-11-06T06:00:00	6	Velocidad del viento	4.8
89902	7	Sololá	702	San José Chacayá	5	Chacayá	4	Abril	2023-04-14T00:00:00	2024-11-06T06:00:00	7	Dirección del viento	4.83
89903	7	Sololá	702	San José Chacayá	5	Chacayá	4	Abril	2023-04-14T00:00:00	2024-11-06T06:00:00	1	Precipitación	0
89904	7	Sololá	702	San José Chacayá	5	Chacayá	4	Abril	2023-04-14T00:00:00	2024-11-06T06:00:00	8	Radiación solar	1
89905	7	Sololá	702	San José Chacayá	5	Chacayá	4	Abril	2023-04-14T00:00:00	2024-11-06T07:00:00	2	Temperatura media	8.2
89906	7	Sololá	702	San José Chacayá	5	Chacayá	4	Abril	2023-04-14T00:00:00	2024-11-06T07:00:00	4	Temperatura máxima	9.3
89907	7	Sololá	702	San José Chacayá	5	Chacayá	4	Abril	2023-04-14T00:00:00	2024-11-06T07:00:00	3	Temperatura mínima	8.2
89908	7	Sololá	702	San José Chacayá	5	Chacayá	4	Abril	2023-04-14T00:00:00	2024-11-06T07:00:00	5	Humedad	84
89909	7	Sololá	702	San José Chacayá	5	Chacayá	4	Abril	2023-04-14T00:00:00	2024-11-06T07:00:00	6	Velocidad del viento	3.2
89910	7	Sololá	702	San José Chacayá	5	Chacayá	4	Abril	2023-04-14T00:00:00	2024-11-06T07:00:00	7	Dirección del viento	3.22
89911	7	Sololá	702	San José Chacayá	5	Chacayá	4	Abril	2023-04-14T00:00:00	2024-11-06T07:00:00	1	Precipitación	0
89912	7	Sololá	702	San José Chacayá	5	Chacayá	4	Abril	2023-04-14T00:00:00	2024-11-06T07:00:00	8	Radiación solar	25
89913	7	Sololá	702	San José Chacayá	5	Chacayá	4	Abril	2023-04-14T00:00:00	2024-11-06T08:00:00	2	Temperatura media	9.8
89914	7	Sololá	702	San José Chacayá	5	Chacayá	4	Abril	2023-04-14T00:00:00	2024-11-06T08:00:00	4	Temperatura máxima	9.8
89915	7	Sololá	702	San José Chacayá	5	Chacayá	4	Abril	2023-04-14T00:00:00	2024-11-06T08:00:00	3	Temperatura mínima	8.1
89916	7	Sololá	702	San José Chacayá	5	Chacayá	4	Abril	2023-04-14T00:00:00	2024-11-06T08:00:00	5	Humedad	85
89917	7	Sololá	702	San José Chacayá	5	Chacayá	4	Abril	2023-04-14T00:00:00	2024-11-06T08:00:00	6	Velocidad del viento	3.2
89918	7	Sololá	702	San José Chacayá	5	Chacayá	4	Abril	2023-04-14T00:00:00	2024-11-06T08:00:00	7	Dirección del viento	3.22
89919	7	Sololá	702	San José Chacayá	5	Chacayá	4	Abril	2023-04-14T00:00:00	2024-11-06T08:00:00	1	Precipitación	0
89920	7	Sololá	702	San José Chacayá	5	Chacayá	4	Abril	2023-04-14T00:00:00	2024-11-06T08:00:00	8	Radiación solar	67
89921	7	Sololá	702	San José Chacayá	5	Chacayá	4	Abril	2023-04-14T00:00:00	2024-11-06T09:00:00	2	Temperatura media	15.1
89922	7	Sololá	702	San José Chacayá	5	Chacayá	4	Abril	2023-04-14T00:00:00	2024-11-06T09:00:00	4	Temperatura máxima	15.1
89923	7	Sololá	702	San José Chacayá	5	Chacayá	4	Abril	2023-04-14T00:00:00	2024-11-06T09:00:00	3	Temperatura mínima	9.8
89924	7	Sololá	702	San José Chacayá	5	Chacayá	4	Abril	2023-04-14T00:00:00	2024-11-06T09:00:00	5	Humedad	66
89925	7	Sololá	702	San José Chacayá	5	Chacayá	4	Abril	2023-04-14T00:00:00	2024-11-06T09:00:00	6	Velocidad del viento	1.6
89926	7	Sololá	702	San José Chacayá	5	Chacayá	4	Abril	2023-04-14T00:00:00	2024-11-06T09:00:00	7	Dirección del viento	1.61
89927	7	Sololá	702	San José Chacayá	5	Chacayá	4	Abril	2023-04-14T00:00:00	2024-11-06T09:00:00	1	Precipitación	0
89928	7	Sololá	702	San José Chacayá	5	Chacayá	4	Abril	2023-04-14T00:00:00	2024-11-06T09:00:00	8	Radiación solar	470
89929	7	Sololá	702	San José Chacayá	5	Chacayá	4	Abril	2023-04-14T00:00:00	2024-11-06T10:00:00	2	Temperatura media	19.2
89930	7	Sololá	702	San José Chacayá	5	Chacayá	4	Abril	2023-04-14T00:00:00	2024-11-06T10:00:00	4	Temperatura máxima	19.2
89931	7	Sololá	702	San José Chacayá	5	Chacayá	4	Abril	2023-04-14T00:00:00	2024-11-06T10:00:00	3	Temperatura mínima	15.1
89932	7	Sololá	702	San José Chacayá	5	Chacayá	4	Abril	2023-04-14T00:00:00	2024-11-06T10:00:00	5	Humedad	55
89933	7	Sololá	702	San José Chacayá	5	Chacayá	4	Abril	2023-04-14T00:00:00	2024-11-06T10:00:00	6	Velocidad del viento	3.2
89934	7	Sololá	702	San José Chacayá	5	Chacayá	4	Abril	2023-04-14T00:00:00	2024-11-06T10:00:00	7	Dirección del viento	3.22
89935	7	Sololá	702	San José Chacayá	5	Chacayá	4	Abril	2023-04-14T00:00:00	2024-11-06T10:00:00	1	Precipitación	0
89936	7	Sololá	702	San José Chacayá	5	Chacayá	4	Abril	2023-04-14T00:00:00	2024-11-06T10:00:00	8	Radiación solar	769
89937	7	Sololá	702	San José Chacayá	5	Chacayá	4	Abril	2023-04-14T00:00:00	2024-11-06T11:00:00	2	Temperatura media	20
89938	7	Sololá	702	San José Chacayá	5	Chacayá	4	Abril	2023-04-14T00:00:00	2024-11-06T11:00:00	4	Temperatura máxima	20.2
89939	7	Sololá	702	San José Chacayá	5	Chacayá	4	Abril	2023-04-14T00:00:00	2024-11-06T11:00:00	3	Temperatura mínima	19
89940	7	Sololá	702	San José Chacayá	5	Chacayá	4	Abril	2023-04-14T00:00:00	2024-11-06T11:00:00	5	Humedad	51
89941	7	Sololá	702	San José Chacayá	5	Chacayá	4	Abril	2023-04-14T00:00:00	2024-11-06T11:00:00	6	Velocidad del viento	6.4
89942	7	Sololá	702	San José Chacayá	5	Chacayá	4	Abril	2023-04-14T00:00:00	2024-11-06T11:00:00	7	Dirección del viento	6.44
89943	7	Sololá	702	San José Chacayá	5	Chacayá	4	Abril	2023-04-14T00:00:00	2024-11-06T11:00:00	1	Precipitación	0
89944	7	Sololá	702	San José Chacayá	5	Chacayá	4	Abril	2023-04-14T00:00:00	2024-11-06T11:00:00	8	Radiación solar	930
89945	7	Sololá	702	San José Chacayá	5	Chacayá	4	Abril	2023-04-14T00:00:00	2024-11-06T12:00:00	2	Temperatura media	21.7
89946	7	Sololá	702	San José Chacayá	5	Chacayá	4	Abril	2023-04-14T00:00:00	2024-11-06T12:00:00	4	Temperatura máxima	21.7
89947	7	Sololá	702	San José Chacayá	5	Chacayá	4	Abril	2023-04-14T00:00:00	2024-11-06T12:00:00	3	Temperatura mínima	19.9
89948	7	Sololá	702	San José Chacayá	5	Chacayá	4	Abril	2023-04-14T00:00:00	2024-11-06T12:00:00	5	Humedad	46
89949	7	Sololá	702	San José Chacayá	5	Chacayá	4	Abril	2023-04-14T00:00:00	2024-11-06T12:00:00	6	Velocidad del viento	6.4
89950	7	Sololá	702	San José Chacayá	5	Chacayá	4	Abril	2023-04-14T00:00:00	2024-11-06T12:00:00	7	Dirección del viento	6.44
89951	7	Sololá	702	San José Chacayá	5	Chacayá	4	Abril	2023-04-14T00:00:00	2024-11-06T12:00:00	1	Precipitación	0
89952	7	Sololá	702	San José Chacayá	5	Chacayá	4	Abril	2023-04-14T00:00:00	2024-11-06T12:00:00	8	Radiación solar	1000
89953	7	Sololá	702	San José Chacayá	5	Chacayá	4	Abril	2023-04-14T00:00:00	2024-11-06T13:00:00	2	Temperatura media	23.2
89954	7	Sololá	702	San José Chacayá	5	Chacayá	4	Abril	2023-04-14T00:00:00	2024-11-06T13:00:00	4	Temperatura máxima	23.2
89955	7	Sololá	702	San José Chacayá	5	Chacayá	4	Abril	2023-04-14T00:00:00	2024-11-06T13:00:00	3	Temperatura mínima	21.7
89956	7	Sololá	702	San José Chacayá	5	Chacayá	4	Abril	2023-04-14T00:00:00	2024-11-06T13:00:00	5	Humedad	45
89957	7	Sololá	702	San José Chacayá	5	Chacayá	4	Abril	2023-04-14T00:00:00	2024-11-06T13:00:00	6	Velocidad del viento	8
89958	7	Sololá	702	San José Chacayá	5	Chacayá	4	Abril	2023-04-14T00:00:00	2024-11-06T13:00:00	7	Dirección del viento	8.05
89959	7	Sololá	702	San José Chacayá	5	Chacayá	4	Abril	2023-04-14T00:00:00	2024-11-06T13:00:00	1	Precipitación	0
89960	7	Sololá	702	San José Chacayá	5	Chacayá	4	Abril	2023-04-14T00:00:00	2024-11-06T13:00:00	8	Radiación solar	992
89961	7	Sololá	702	San José Chacayá	5	Chacayá	4	Abril	2023-04-14T00:00:00	2024-11-06T14:00:00	2	Temperatura media	22.2
89962	7	Sololá	702	San José Chacayá	5	Chacayá	4	Abril	2023-04-14T00:00:00	2024-11-06T14:00:00	4	Temperatura máxima	23.4
89963	7	Sololá	702	San José Chacayá	5	Chacayá	4	Abril	2023-04-14T00:00:00	2024-11-06T14:00:00	3	Temperatura mínima	21.6
89964	7	Sololá	702	San José Chacayá	5	Chacayá	4	Abril	2023-04-14T00:00:00	2024-11-06T14:00:00	5	Humedad	64
89965	7	Sololá	702	San José Chacayá	5	Chacayá	4	Abril	2023-04-14T00:00:00	2024-11-06T14:00:00	6	Velocidad del viento	6.4
89966	7	Sololá	702	San José Chacayá	5	Chacayá	4	Abril	2023-04-14T00:00:00	2024-11-06T14:00:00	7	Dirección del viento	6.44
89967	7	Sololá	702	San José Chacayá	5	Chacayá	4	Abril	2023-04-14T00:00:00	2024-11-06T14:00:00	1	Precipitación	0
89968	7	Sololá	702	San José Chacayá	5	Chacayá	4	Abril	2023-04-14T00:00:00	2024-11-06T14:00:00	8	Radiación solar	945
89969	7	Sololá	702	San José Chacayá	5	Chacayá	4	Abril	2023-04-14T00:00:00	2024-11-06T15:00:00	2	Temperatura media	20.2
89970	7	Sololá	702	San José Chacayá	5	Chacayá	4	Abril	2023-04-14T00:00:00	2024-11-06T15:00:00	4	Temperatura máxima	22.2
89971	7	Sololá	702	San José Chacayá	5	Chacayá	4	Abril	2023-04-14T00:00:00	2024-11-06T15:00:00	3	Temperatura mínima	20.2
89972	7	Sololá	702	San José Chacayá	5	Chacayá	4	Abril	2023-04-14T00:00:00	2024-11-06T15:00:00	5	Humedad	73
89973	7	Sololá	702	San José Chacayá	5	Chacayá	4	Abril	2023-04-14T00:00:00	2024-11-06T15:00:00	6	Velocidad del viento	9.7
89974	7	Sololá	702	San José Chacayá	5	Chacayá	4	Abril	2023-04-14T00:00:00	2024-11-06T15:00:00	7	Dirección del viento	9.66
89975	7	Sololá	702	San José Chacayá	5	Chacayá	4	Abril	2023-04-14T00:00:00	2024-11-06T15:00:00	1	Precipitación	0
89976	7	Sololá	702	San José Chacayá	5	Chacayá	4	Abril	2023-04-14T00:00:00	2024-11-06T15:00:00	8	Radiación solar	404
89977	7	Sololá	702	San José Chacayá	5	Chacayá	4	Abril	2023-04-14T00:00:00	2024-11-06T16:00:00	2	Temperatura media	19.1
89978	7	Sololá	702	San José Chacayá	5	Chacayá	4	Abril	2023-04-14T00:00:00	2024-11-06T16:00:00	4	Temperatura máxima	20.3
89979	7	Sololá	702	San José Chacayá	5	Chacayá	4	Abril	2023-04-14T00:00:00	2024-11-06T16:00:00	3	Temperatura mínima	18.9
89980	7	Sololá	702	San José Chacayá	5	Chacayá	4	Abril	2023-04-14T00:00:00	2024-11-06T16:00:00	5	Humedad	76
89981	7	Sololá	702	San José Chacayá	5	Chacayá	4	Abril	2023-04-14T00:00:00	2024-11-06T16:00:00	6	Velocidad del viento	6.4
89982	7	Sololá	702	San José Chacayá	5	Chacayá	4	Abril	2023-04-14T00:00:00	2024-11-06T16:00:00	7	Dirección del viento	6.44
89983	7	Sololá	702	San José Chacayá	5	Chacayá	4	Abril	2023-04-14T00:00:00	2024-11-06T16:00:00	1	Precipitación	0
89984	7	Sololá	702	San José Chacayá	5	Chacayá	4	Abril	2023-04-14T00:00:00	2024-11-06T16:00:00	8	Radiación solar	243
89985	7	Sololá	702	San José Chacayá	5	Chacayá	4	Abril	2023-04-14T00:00:00	2024-11-06T17:00:00	2	Temperatura media	18.3
89986	7	Sololá	702	San José Chacayá	5	Chacayá	4	Abril	2023-04-14T00:00:00	2024-11-06T17:00:00	4	Temperatura máxima	19.1
89987	7	Sololá	702	San José Chacayá	5	Chacayá	4	Abril	2023-04-14T00:00:00	2024-11-06T17:00:00	3	Temperatura mínima	18.3
89988	7	Sololá	702	San José Chacayá	5	Chacayá	4	Abril	2023-04-14T00:00:00	2024-11-06T17:00:00	5	Humedad	79
89989	7	Sololá	702	San José Chacayá	5	Chacayá	4	Abril	2023-04-14T00:00:00	2024-11-06T17:00:00	6	Velocidad del viento	4.8
89990	7	Sololá	702	San José Chacayá	5	Chacayá	4	Abril	2023-04-14T00:00:00	2024-11-06T17:00:00	7	Dirección del viento	4.83
89991	7	Sololá	702	San José Chacayá	5	Chacayá	4	Abril	2023-04-14T00:00:00	2024-11-06T17:00:00	1	Precipitación	0
89992	7	Sololá	702	San José Chacayá	5	Chacayá	4	Abril	2023-04-14T00:00:00	2024-11-06T17:00:00	8	Radiación solar	123
89993	7	Sololá	702	San José Chacayá	5	Chacayá	4	Abril	2023-04-14T00:00:00	2024-11-06T18:00:00	2	Temperatura media	17.3
89994	7	Sololá	702	San José Chacayá	5	Chacayá	4	Abril	2023-04-14T00:00:00	2024-11-06T18:00:00	4	Temperatura máxima	18.3
89995	7	Sololá	702	San José Chacayá	5	Chacayá	4	Abril	2023-04-14T00:00:00	2024-11-06T18:00:00	3	Temperatura mínima	17.3
89996	7	Sololá	702	San José Chacayá	5	Chacayá	4	Abril	2023-04-14T00:00:00	2024-11-06T18:00:00	5	Humedad	82
89997	7	Sololá	702	San José Chacayá	5	Chacayá	4	Abril	2023-04-14T00:00:00	2024-11-06T18:00:00	6	Velocidad del viento	4.8
89998	7	Sololá	702	San José Chacayá	5	Chacayá	4	Abril	2023-04-14T00:00:00	2024-11-06T18:00:00	7	Dirección del viento	4.83
89999	7	Sololá	702	San José Chacayá	5	Chacayá	4	Abril	2023-04-14T00:00:00	2024-11-06T18:00:00	1	Precipitación	0
90000	7	Sololá	702	San José Chacayá	5	Chacayá	4	Abril	2023-04-14T00:00:00	2024-11-06T18:00:00	8	Radiación solar	47
90001	7	Sololá	702	San José Chacayá	5	Chacayá	4	Abril	2023-04-14T00:00:00	2024-11-06T19:00:00	2	Temperatura media	16.6
90002	7	Sololá	702	San José Chacayá	5	Chacayá	4	Abril	2023-04-14T00:00:00	2024-11-06T19:00:00	4	Temperatura máxima	17.3
90003	7	Sololá	702	San José Chacayá	5	Chacayá	4	Abril	2023-04-14T00:00:00	2024-11-06T19:00:00	3	Temperatura mínima	16.6
90004	7	Sololá	702	San José Chacayá	5	Chacayá	4	Abril	2023-04-14T00:00:00	2024-11-06T19:00:00	5	Humedad	83
90005	7	Sololá	702	San José Chacayá	5	Chacayá	4	Abril	2023-04-14T00:00:00	2024-11-06T19:00:00	6	Velocidad del viento	1.6
90006	7	Sololá	702	San José Chacayá	5	Chacayá	4	Abril	2023-04-14T00:00:00	2024-11-06T19:00:00	7	Dirección del viento	1.61
90007	7	Sololá	702	San José Chacayá	5	Chacayá	4	Abril	2023-04-14T00:00:00	2024-11-06T19:00:00	1	Precipitación	0
90008	7	Sololá	702	San José Chacayá	5	Chacayá	4	Abril	2023-04-14T00:00:00	2024-11-06T19:00:00	8	Radiación solar	0
90009	7	Sololá	702	San José Chacayá	5	Chacayá	4	Abril	2023-04-14T00:00:00	2024-11-06T20:00:00	2	Temperatura media	15.8
90010	7	Sololá	702	San José Chacayá	5	Chacayá	4	Abril	2023-04-14T00:00:00	2024-11-06T20:00:00	4	Temperatura máxima	16.6
90011	7	Sololá	702	San José Chacayá	5	Chacayá	4	Abril	2023-04-14T00:00:00	2024-11-06T20:00:00	3	Temperatura mínima	15.8
90012	7	Sololá	702	San José Chacayá	5	Chacayá	4	Abril	2023-04-14T00:00:00	2024-11-06T20:00:00	5	Humedad	82
90013	7	Sololá	702	San José Chacayá	5	Chacayá	4	Abril	2023-04-14T00:00:00	2024-11-06T20:00:00	6	Velocidad del viento	0
90014	7	Sololá	702	San José Chacayá	5	Chacayá	4	Abril	2023-04-14T00:00:00	2024-11-06T20:00:00	7	Dirección del viento	0
90015	7	Sololá	702	San José Chacayá	5	Chacayá	4	Abril	2023-04-14T00:00:00	2024-11-06T20:00:00	1	Precipitación	0
90016	7	Sololá	702	San José Chacayá	5	Chacayá	4	Abril	2023-04-14T00:00:00	2024-11-06T20:00:00	8	Radiación solar	0
90017	7	Sololá	702	San José Chacayá	5	Chacayá	4	Abril	2023-04-14T00:00:00	2024-11-06T21:00:00	2	Temperatura media	14.4
90018	7	Sololá	702	San José Chacayá	5	Chacayá	4	Abril	2023-04-14T00:00:00	2024-11-06T21:00:00	4	Temperatura máxima	15.8
90019	7	Sololá	702	San José Chacayá	5	Chacayá	4	Abril	2023-04-14T00:00:00	2024-11-06T21:00:00	3	Temperatura mínima	14.4
90020	7	Sololá	702	San José Chacayá	5	Chacayá	4	Abril	2023-04-14T00:00:00	2024-11-06T21:00:00	5	Humedad	83
90021	7	Sololá	702	San José Chacayá	5	Chacayá	4	Abril	2023-04-14T00:00:00	2024-11-06T21:00:00	6	Velocidad del viento	0
90022	7	Sololá	702	San José Chacayá	5	Chacayá	4	Abril	2023-04-14T00:00:00	2024-11-06T21:00:00	7	Dirección del viento	0
90023	7	Sololá	702	San José Chacayá	5	Chacayá	4	Abril	2023-04-14T00:00:00	2024-11-06T21:00:00	1	Precipitación	0
90024	7	Sololá	702	San José Chacayá	5	Chacayá	4	Abril	2023-04-14T00:00:00	2024-11-06T21:00:00	8	Radiación solar	0
90025	7	Sololá	702	San José Chacayá	5	Chacayá	4	Abril	2023-04-14T00:00:00	2024-11-06T22:00:00	2	Temperatura media	13.7
90026	7	Sololá	702	San José Chacayá	5	Chacayá	4	Abril	2023-04-14T00:00:00	2024-11-06T22:00:00	4	Temperatura máxima	14.4
90027	7	Sololá	702	San José Chacayá	5	Chacayá	4	Abril	2023-04-14T00:00:00	2024-11-06T22:00:00	3	Temperatura mínima	13.7
90028	7	Sololá	702	San José Chacayá	5	Chacayá	4	Abril	2023-04-14T00:00:00	2024-11-06T22:00:00	5	Humedad	84
90029	7	Sololá	702	San José Chacayá	5	Chacayá	4	Abril	2023-04-14T00:00:00	2024-11-06T22:00:00	6	Velocidad del viento	1.6
90030	7	Sololá	702	San José Chacayá	5	Chacayá	4	Abril	2023-04-14T00:00:00	2024-11-06T22:00:00	7	Dirección del viento	1.61
90031	7	Sololá	702	San José Chacayá	5	Chacayá	4	Abril	2023-04-14T00:00:00	2024-11-06T22:00:00	1	Precipitación	0
90032	7	Sololá	702	San José Chacayá	5	Chacayá	4	Abril	2023-04-14T00:00:00	2024-11-06T22:00:00	8	Radiación solar	0
90033	7	Sololá	702	San José Chacayá	5	Chacayá	4	Abril	2023-04-14T00:00:00	2024-11-06T23:00:00	2	Temperatura media	13.1
90034	7	Sololá	702	San José Chacayá	5	Chacayá	4	Abril	2023-04-14T00:00:00	2024-11-06T23:00:00	4	Temperatura máxima	13.7
90035	7	Sololá	702	San José Chacayá	5	Chacayá	4	Abril	2023-04-14T00:00:00	2024-11-06T23:00:00	3	Temperatura mínima	13.1
90036	7	Sololá	702	San José Chacayá	5	Chacayá	4	Abril	2023-04-14T00:00:00	2024-11-06T23:00:00	5	Humedad	83
90037	7	Sololá	702	San José Chacayá	5	Chacayá	4	Abril	2023-04-14T00:00:00	2024-11-06T23:00:00	6	Velocidad del viento	1.6
90038	7	Sololá	702	San José Chacayá	5	Chacayá	4	Abril	2023-04-14T00:00:00	2024-11-06T23:00:00	7	Dirección del viento	1.61
90039	7	Sololá	702	San José Chacayá	5	Chacayá	4	Abril	2023-04-14T00:00:00	2024-11-06T23:00:00	1	Precipitación	0
90040	7	Sololá	702	San José Chacayá	5	Chacayá	4	Abril	2023-04-14T00:00:00	2024-11-06T23:00:00	8	Radiación solar	0
90041	7	Sololá	702	San José Chacayá	5	Chacayá	4	Abril	2023-04-15T00:00:00	2024-11-06T00:00:00	2	Temperatura media	12.4
90042	7	Sololá	702	San José Chacayá	5	Chacayá	4	Abril	2023-04-15T00:00:00	2024-11-06T00:00:00	4	Temperatura máxima	13.1
90043	7	Sololá	702	San José Chacayá	5	Chacayá	4	Abril	2023-04-15T00:00:00	2024-11-06T00:00:00	3	Temperatura mínima	12.4
90044	7	Sololá	702	San José Chacayá	5	Chacayá	4	Abril	2023-04-15T00:00:00	2024-11-06T00:00:00	5	Humedad	82
90045	7	Sololá	702	San José Chacayá	5	Chacayá	4	Abril	2023-04-15T00:00:00	2024-11-06T00:00:00	6	Velocidad del viento	1.6
90046	7	Sololá	702	San José Chacayá	5	Chacayá	4	Abril	2023-04-15T00:00:00	2024-11-06T00:00:00	7	Dirección del viento	1.61
90047	7	Sololá	702	San José Chacayá	5	Chacayá	4	Abril	2023-04-15T00:00:00	2024-11-06T00:00:00	1	Precipitación	0
90048	7	Sololá	702	San José Chacayá	5	Chacayá	4	Abril	2023-04-15T00:00:00	2024-11-06T00:00:00	8	Radiación solar	0
90049	7	Sololá	702	San José Chacayá	5	Chacayá	4	Abril	2023-04-15T00:00:00	2024-11-06T01:00:00	2	Temperatura media	12.7
90050	7	Sololá	702	San José Chacayá	5	Chacayá	4	Abril	2023-04-15T00:00:00	2024-11-06T01:00:00	4	Temperatura máxima	12.7
90051	7	Sololá	702	San José Chacayá	5	Chacayá	4	Abril	2023-04-15T00:00:00	2024-11-06T01:00:00	3	Temperatura mínima	12.3
90052	7	Sololá	702	San José Chacayá	5	Chacayá	4	Abril	2023-04-15T00:00:00	2024-11-06T01:00:00	5	Humedad	82
90053	7	Sololá	702	San José Chacayá	5	Chacayá	4	Abril	2023-04-15T00:00:00	2024-11-06T01:00:00	6	Velocidad del viento	1.6
90054	7	Sololá	702	San José Chacayá	5	Chacayá	4	Abril	2023-04-15T00:00:00	2024-11-06T01:00:00	7	Dirección del viento	1.61
90055	7	Sololá	702	San José Chacayá	5	Chacayá	4	Abril	2023-04-15T00:00:00	2024-11-06T01:00:00	1	Precipitación	0
90056	7	Sololá	702	San José Chacayá	5	Chacayá	4	Abril	2023-04-15T00:00:00	2024-11-06T01:00:00	8	Radiación solar	0
90057	7	Sololá	702	San José Chacayá	5	Chacayá	4	Abril	2023-04-15T00:00:00	2024-11-06T02:00:00	2	Temperatura media	12.6
90058	7	Sololá	702	San José Chacayá	5	Chacayá	4	Abril	2023-04-15T00:00:00	2024-11-06T02:00:00	4	Temperatura máxima	12.8
90059	7	Sololá	702	San José Chacayá	5	Chacayá	4	Abril	2023-04-15T00:00:00	2024-11-06T02:00:00	3	Temperatura mínima	12.6
90060	7	Sololá	702	San José Chacayá	5	Chacayá	4	Abril	2023-04-15T00:00:00	2024-11-06T02:00:00	5	Humedad	83
90061	7	Sololá	702	San José Chacayá	5	Chacayá	4	Abril	2023-04-15T00:00:00	2024-11-06T02:00:00	6	Velocidad del viento	1.6
90062	7	Sololá	702	San José Chacayá	5	Chacayá	4	Abril	2023-04-15T00:00:00	2024-11-06T02:00:00	7	Dirección del viento	1.61
90063	7	Sololá	702	San José Chacayá	5	Chacayá	4	Abril	2023-04-15T00:00:00	2024-11-06T02:00:00	1	Precipitación	0
90064	7	Sololá	702	San José Chacayá	5	Chacayá	4	Abril	2023-04-15T00:00:00	2024-11-06T02:00:00	8	Radiación solar	0
90065	7	Sololá	702	San José Chacayá	5	Chacayá	4	Abril	2023-04-15T00:00:00	2024-11-06T03:00:00	2	Temperatura media	12.4
90066	7	Sololá	702	San José Chacayá	5	Chacayá	4	Abril	2023-04-15T00:00:00	2024-11-06T03:00:00	4	Temperatura máxima	12.6
90067	7	Sololá	702	San José Chacayá	5	Chacayá	4	Abril	2023-04-15T00:00:00	2024-11-06T03:00:00	3	Temperatura mínima	12.3
90068	7	Sololá	702	San José Chacayá	5	Chacayá	4	Abril	2023-04-15T00:00:00	2024-11-06T03:00:00	5	Humedad	83
90069	7	Sololá	702	San José Chacayá	5	Chacayá	4	Abril	2023-04-15T00:00:00	2024-11-06T03:00:00	6	Velocidad del viento	1.6
90070	7	Sololá	702	San José Chacayá	5	Chacayá	4	Abril	2023-04-15T00:00:00	2024-11-06T03:00:00	7	Dirección del viento	1.61
90071	7	Sololá	702	San José Chacayá	5	Chacayá	4	Abril	2023-04-15T00:00:00	2024-11-06T03:00:00	1	Precipitación	0
90072	7	Sololá	702	San José Chacayá	5	Chacayá	4	Abril	2023-04-15T00:00:00	2024-11-06T03:00:00	8	Radiación solar	0
90073	7	Sololá	702	San José Chacayá	5	Chacayá	4	Abril	2023-04-15T00:00:00	2024-11-06T04:00:00	2	Temperatura media	12.6
90074	7	Sololá	702	San José Chacayá	5	Chacayá	4	Abril	2023-04-15T00:00:00	2024-11-06T04:00:00	4	Temperatura máxima	12.7
90075	7	Sololá	702	San José Chacayá	5	Chacayá	4	Abril	2023-04-15T00:00:00	2024-11-06T04:00:00	3	Temperatura mínima	12.4
90076	7	Sololá	702	San José Chacayá	5	Chacayá	4	Abril	2023-04-15T00:00:00	2024-11-06T04:00:00	5	Humedad	84
90077	7	Sololá	702	San José Chacayá	5	Chacayá	4	Abril	2023-04-15T00:00:00	2024-11-06T04:00:00	6	Velocidad del viento	1.6
90078	7	Sololá	702	San José Chacayá	5	Chacayá	4	Abril	2023-04-15T00:00:00	2024-11-06T04:00:00	7	Dirección del viento	1.61
90079	7	Sololá	702	San José Chacayá	5	Chacayá	4	Abril	2023-04-15T00:00:00	2024-11-06T04:00:00	1	Precipitación	0
90080	7	Sololá	702	San José Chacayá	5	Chacayá	4	Abril	2023-04-15T00:00:00	2024-11-06T04:00:00	8	Radiación solar	0
90081	7	Sololá	702	San José Chacayá	5	Chacayá	4	Abril	2023-04-15T00:00:00	2024-11-06T05:00:00	2	Temperatura media	11.2
90082	7	Sololá	702	San José Chacayá	5	Chacayá	4	Abril	2023-04-15T00:00:00	2024-11-06T05:00:00	4	Temperatura máxima	12.5
90083	7	Sololá	702	San José Chacayá	5	Chacayá	4	Abril	2023-04-15T00:00:00	2024-11-06T05:00:00	3	Temperatura mínima	11.2
90084	7	Sololá	702	San José Chacayá	5	Chacayá	4	Abril	2023-04-15T00:00:00	2024-11-06T05:00:00	5	Humedad	82
90085	7	Sololá	702	San José Chacayá	5	Chacayá	4	Abril	2023-04-15T00:00:00	2024-11-06T05:00:00	6	Velocidad del viento	1.6
90086	7	Sololá	702	San José Chacayá	5	Chacayá	4	Abril	2023-04-15T00:00:00	2024-11-06T05:00:00	7	Dirección del viento	1.61
90087	7	Sololá	702	San José Chacayá	5	Chacayá	4	Abril	2023-04-15T00:00:00	2024-11-06T05:00:00	1	Precipitación	0
90088	7	Sololá	702	San José Chacayá	5	Chacayá	4	Abril	2023-04-15T00:00:00	2024-11-06T05:00:00	8	Radiación solar	0
90089	7	Sololá	702	San José Chacayá	5	Chacayá	4	Abril	2023-04-15T00:00:00	2024-11-06T06:00:00	2	Temperatura media	10.7
90090	7	Sololá	702	San José Chacayá	5	Chacayá	4	Abril	2023-04-15T00:00:00	2024-11-06T06:00:00	4	Temperatura máxima	11.4
90091	7	Sololá	702	San José Chacayá	5	Chacayá	4	Abril	2023-04-15T00:00:00	2024-11-06T06:00:00	3	Temperatura mínima	10.7
90092	7	Sololá	702	San José Chacayá	5	Chacayá	4	Abril	2023-04-15T00:00:00	2024-11-06T06:00:00	5	Humedad	83
90093	7	Sololá	702	San José Chacayá	5	Chacayá	4	Abril	2023-04-15T00:00:00	2024-11-06T06:00:00	6	Velocidad del viento	3.2
90094	7	Sololá	702	San José Chacayá	5	Chacayá	4	Abril	2023-04-15T00:00:00	2024-11-06T06:00:00	7	Dirección del viento	3.22
90095	7	Sololá	702	San José Chacayá	5	Chacayá	4	Abril	2023-04-15T00:00:00	2024-11-06T06:00:00	1	Precipitación	0
90096	7	Sololá	702	San José Chacayá	5	Chacayá	4	Abril	2023-04-15T00:00:00	2024-11-06T06:00:00	8	Radiación solar	1
90097	7	Sololá	702	San José Chacayá	5	Chacayá	4	Abril	2023-04-15T00:00:00	2024-11-06T07:00:00	2	Temperatura media	10.5
90098	7	Sololá	702	San José Chacayá	5	Chacayá	4	Abril	2023-04-15T00:00:00	2024-11-06T07:00:00	4	Temperatura máxima	10.7
90099	7	Sololá	702	San José Chacayá	5	Chacayá	4	Abril	2023-04-15T00:00:00	2024-11-06T07:00:00	3	Temperatura mínima	10.4
90100	7	Sololá	702	San José Chacayá	5	Chacayá	4	Abril	2023-04-15T00:00:00	2024-11-06T07:00:00	5	Humedad	83
90101	7	Sololá	702	San José Chacayá	5	Chacayá	4	Abril	2023-04-15T00:00:00	2024-11-06T07:00:00	6	Velocidad del viento	3.2
90102	7	Sololá	702	San José Chacayá	5	Chacayá	4	Abril	2023-04-15T00:00:00	2024-11-06T07:00:00	7	Dirección del viento	3.22
90103	7	Sololá	702	San José Chacayá	5	Chacayá	4	Abril	2023-04-15T00:00:00	2024-11-06T07:00:00	1	Precipitación	0
90104	7	Sololá	702	San José Chacayá	5	Chacayá	4	Abril	2023-04-15T00:00:00	2024-11-06T07:00:00	8	Radiación solar	39
90105	7	Sololá	702	San José Chacayá	5	Chacayá	4	Abril	2023-04-15T00:00:00	2024-11-06T08:00:00	2	Temperatura media	11.6
90106	7	Sololá	702	San José Chacayá	5	Chacayá	4	Abril	2023-04-15T00:00:00	2024-11-06T08:00:00	4	Temperatura máxima	11.6
90107	7	Sololá	702	San José Chacayá	5	Chacayá	4	Abril	2023-04-15T00:00:00	2024-11-06T08:00:00	3	Temperatura mínima	10.2
90108	7	Sololá	702	San José Chacayá	5	Chacayá	4	Abril	2023-04-15T00:00:00	2024-11-06T08:00:00	5	Humedad	83
90109	7	Sololá	702	San José Chacayá	5	Chacayá	4	Abril	2023-04-15T00:00:00	2024-11-06T08:00:00	6	Velocidad del viento	1.6
90110	7	Sololá	702	San José Chacayá	5	Chacayá	4	Abril	2023-04-15T00:00:00	2024-11-06T08:00:00	7	Dirección del viento	1.61
90111	7	Sololá	702	San José Chacayá	5	Chacayá	4	Abril	2023-04-15T00:00:00	2024-11-06T08:00:00	1	Precipitación	0
90112	7	Sololá	702	San José Chacayá	5	Chacayá	4	Abril	2023-04-15T00:00:00	2024-11-06T08:00:00	8	Radiación solar	162
90113	7	Sololá	702	San José Chacayá	5	Chacayá	4	Abril	2023-04-15T00:00:00	2024-11-06T09:00:00	2	Temperatura media	15.6
90114	7	Sololá	702	San José Chacayá	5	Chacayá	4	Abril	2023-04-15T00:00:00	2024-11-06T09:00:00	4	Temperatura máxima	15.7
90115	7	Sololá	702	San José Chacayá	5	Chacayá	4	Abril	2023-04-15T00:00:00	2024-11-06T09:00:00	3	Temperatura mínima	11.6
90116	7	Sololá	702	San José Chacayá	5	Chacayá	4	Abril	2023-04-15T00:00:00	2024-11-06T09:00:00	5	Humedad	79
90117	7	Sololá	702	San José Chacayá	5	Chacayá	4	Abril	2023-04-15T00:00:00	2024-11-06T09:00:00	6	Velocidad del viento	0
90118	7	Sololá	702	San José Chacayá	5	Chacayá	4	Abril	2023-04-15T00:00:00	2024-11-06T09:00:00	7	Dirección del viento	0
90119	7	Sololá	702	San José Chacayá	5	Chacayá	4	Abril	2023-04-15T00:00:00	2024-11-06T09:00:00	1	Precipitación	0
90120	7	Sololá	702	San José Chacayá	5	Chacayá	4	Abril	2023-04-15T00:00:00	2024-11-06T09:00:00	8	Radiación solar	474
90121	7	Sololá	702	San José Chacayá	5	Chacayá	4	Abril	2023-04-15T00:00:00	2024-11-06T10:00:00	2	Temperatura media	18.8
90122	7	Sololá	702	San José Chacayá	5	Chacayá	4	Abril	2023-04-15T00:00:00	2024-11-06T10:00:00	4	Temperatura máxima	18.9
90123	7	Sololá	702	San José Chacayá	5	Chacayá	4	Abril	2023-04-15T00:00:00	2024-11-06T10:00:00	3	Temperatura mínima	15.7
90124	7	Sololá	702	San José Chacayá	5	Chacayá	4	Abril	2023-04-15T00:00:00	2024-11-06T10:00:00	5	Humedad	75
90125	7	Sololá	702	San José Chacayá	5	Chacayá	4	Abril	2023-04-15T00:00:00	2024-11-06T10:00:00	6	Velocidad del viento	3.2
90126	7	Sololá	702	San José Chacayá	5	Chacayá	4	Abril	2023-04-15T00:00:00	2024-11-06T10:00:00	7	Dirección del viento	3.22
90127	7	Sololá	702	San José Chacayá	5	Chacayá	4	Abril	2023-04-15T00:00:00	2024-11-06T10:00:00	1	Precipitación	0
90128	7	Sololá	702	San José Chacayá	5	Chacayá	4	Abril	2023-04-15T00:00:00	2024-11-06T10:00:00	8	Radiación solar	717
90129	7	Sololá	702	San José Chacayá	5	Chacayá	4	Abril	2023-04-15T00:00:00	2024-11-06T11:00:00	2	Temperatura media	19.3
90130	7	Sololá	702	San José Chacayá	5	Chacayá	4	Abril	2023-04-15T00:00:00	2024-11-06T11:00:00	4	Temperatura máxima	19.3
90131	7	Sololá	702	San José Chacayá	5	Chacayá	4	Abril	2023-04-15T00:00:00	2024-11-06T11:00:00	3	Temperatura mínima	18.4
90132	7	Sololá	702	San José Chacayá	5	Chacayá	4	Abril	2023-04-15T00:00:00	2024-11-06T11:00:00	5	Humedad	71
90133	7	Sololá	702	San José Chacayá	5	Chacayá	4	Abril	2023-04-15T00:00:00	2024-11-06T11:00:00	6	Velocidad del viento	8
90134	7	Sololá	702	San José Chacayá	5	Chacayá	4	Abril	2023-04-15T00:00:00	2024-11-06T11:00:00	7	Dirección del viento	8.05
90135	7	Sololá	702	San José Chacayá	5	Chacayá	4	Abril	2023-04-15T00:00:00	2024-11-06T11:00:00	1	Precipitación	0
90136	7	Sololá	702	San José Chacayá	5	Chacayá	4	Abril	2023-04-15T00:00:00	2024-11-06T11:00:00	8	Radiación solar	918
90137	7	Sololá	702	San José Chacayá	5	Chacayá	4	Abril	2023-04-15T00:00:00	2024-11-06T12:00:00	2	Temperatura media	20.1
90138	7	Sololá	702	San José Chacayá	5	Chacayá	4	Abril	2023-04-15T00:00:00	2024-11-06T12:00:00	4	Temperatura máxima	20.8
90139	7	Sololá	702	San José Chacayá	5	Chacayá	4	Abril	2023-04-15T00:00:00	2024-11-06T12:00:00	3	Temperatura mínima	19.3
90140	7	Sololá	702	San José Chacayá	5	Chacayá	4	Abril	2023-04-15T00:00:00	2024-11-06T12:00:00	5	Humedad	69
90141	7	Sololá	702	San José Chacayá	5	Chacayá	4	Abril	2023-04-15T00:00:00	2024-11-06T12:00:00	6	Velocidad del viento	8
90142	7	Sololá	702	San José Chacayá	5	Chacayá	4	Abril	2023-04-15T00:00:00	2024-11-06T12:00:00	7	Dirección del viento	8.05
90143	7	Sololá	702	San José Chacayá	5	Chacayá	4	Abril	2023-04-15T00:00:00	2024-11-06T12:00:00	1	Precipitación	0
90144	7	Sololá	702	San José Chacayá	5	Chacayá	4	Abril	2023-04-15T00:00:00	2024-11-06T12:00:00	8	Radiación solar	984
90145	7	Sololá	702	San José Chacayá	5	Chacayá	4	Abril	2023-04-15T00:00:00	2024-11-06T13:00:00	2	Temperatura media	20.6
90146	7	Sololá	702	San José Chacayá	5	Chacayá	4	Abril	2023-04-15T00:00:00	2024-11-06T13:00:00	4	Temperatura máxima	21
90147	7	Sololá	702	San José Chacayá	5	Chacayá	4	Abril	2023-04-15T00:00:00	2024-11-06T13:00:00	3	Temperatura mínima	19.5
90148	7	Sololá	702	San José Chacayá	5	Chacayá	4	Abril	2023-04-15T00:00:00	2024-11-06T13:00:00	5	Humedad	70
90149	7	Sololá	702	San José Chacayá	5	Chacayá	4	Abril	2023-04-15T00:00:00	2024-11-06T13:00:00	6	Velocidad del viento	8
90150	7	Sololá	702	San José Chacayá	5	Chacayá	4	Abril	2023-04-15T00:00:00	2024-11-06T13:00:00	7	Dirección del viento	8.05
90151	7	Sololá	702	San José Chacayá	5	Chacayá	4	Abril	2023-04-15T00:00:00	2024-11-06T13:00:00	1	Precipitación	0
90152	7	Sololá	702	San José Chacayá	5	Chacayá	4	Abril	2023-04-15T00:00:00	2024-11-06T13:00:00	8	Radiación solar	543
90153	7	Sololá	702	San José Chacayá	5	Chacayá	4	Abril	2023-04-15T00:00:00	2024-11-06T14:00:00	2	Temperatura media	20
90154	7	Sololá	702	San José Chacayá	5	Chacayá	4	Abril	2023-04-15T00:00:00	2024-11-06T14:00:00	4	Temperatura máxima	20.6
90155	7	Sololá	702	San José Chacayá	5	Chacayá	4	Abril	2023-04-15T00:00:00	2024-11-06T14:00:00	3	Temperatura mínima	19.5
90156	7	Sololá	702	San José Chacayá	5	Chacayá	4	Abril	2023-04-15T00:00:00	2024-11-06T14:00:00	5	Humedad	73
90157	7	Sololá	702	San José Chacayá	5	Chacayá	4	Abril	2023-04-15T00:00:00	2024-11-06T14:00:00	6	Velocidad del viento	6.4
90158	7	Sololá	702	San José Chacayá	5	Chacayá	4	Abril	2023-04-15T00:00:00	2024-11-06T14:00:00	7	Dirección del viento	6.44
90159	7	Sololá	702	San José Chacayá	5	Chacayá	4	Abril	2023-04-15T00:00:00	2024-11-06T14:00:00	1	Precipitación	0
90160	7	Sololá	702	San José Chacayá	5	Chacayá	4	Abril	2023-04-15T00:00:00	2024-11-06T14:00:00	8	Radiación solar	822
90161	7	Sololá	702	San José Chacayá	5	Chacayá	4	Abril	2023-04-15T00:00:00	2024-11-06T15:00:00	2	Temperatura media	19.2
90162	7	Sololá	702	San José Chacayá	5	Chacayá	4	Abril	2023-04-15T00:00:00	2024-11-06T15:00:00	4	Temperatura máxima	20.8
90163	7	Sololá	702	San José Chacayá	5	Chacayá	4	Abril	2023-04-15T00:00:00	2024-11-06T15:00:00	3	Temperatura mínima	19.2
90164	7	Sololá	702	San José Chacayá	5	Chacayá	4	Abril	2023-04-15T00:00:00	2024-11-06T15:00:00	5	Humedad	77
90165	7	Sololá	702	San José Chacayá	5	Chacayá	4	Abril	2023-04-15T00:00:00	2024-11-06T15:00:00	6	Velocidad del viento	9.7
90166	7	Sololá	702	San José Chacayá	5	Chacayá	4	Abril	2023-04-15T00:00:00	2024-11-06T15:00:00	7	Dirección del viento	9.66
90167	7	Sololá	702	San José Chacayá	5	Chacayá	4	Abril	2023-04-15T00:00:00	2024-11-06T15:00:00	1	Precipitación	0
90168	7	Sololá	702	San José Chacayá	5	Chacayá	4	Abril	2023-04-15T00:00:00	2024-11-06T15:00:00	8	Radiación solar	291
90169	7	Sololá	702	San José Chacayá	5	Chacayá	4	Abril	2023-04-15T00:00:00	2024-11-06T16:00:00	2	Temperatura media	18.2
90170	7	Sololá	702	San José Chacayá	5	Chacayá	4	Abril	2023-04-15T00:00:00	2024-11-06T16:00:00	4	Temperatura máxima	20
90171	7	Sololá	702	San José Chacayá	5	Chacayá	4	Abril	2023-04-15T00:00:00	2024-11-06T16:00:00	3	Temperatura mínima	18.1
90172	7	Sololá	702	San José Chacayá	5	Chacayá	4	Abril	2023-04-15T00:00:00	2024-11-06T16:00:00	5	Humedad	83
90173	7	Sololá	702	San José Chacayá	5	Chacayá	4	Abril	2023-04-15T00:00:00	2024-11-06T16:00:00	6	Velocidad del viento	6.4
90174	7	Sololá	702	San José Chacayá	5	Chacayá	4	Abril	2023-04-15T00:00:00	2024-11-06T16:00:00	7	Dirección del viento	6.44
90175	7	Sololá	702	San José Chacayá	5	Chacayá	4	Abril	2023-04-15T00:00:00	2024-11-06T16:00:00	1	Precipitación	0
90176	7	Sololá	702	San José Chacayá	5	Chacayá	4	Abril	2023-04-15T00:00:00	2024-11-06T16:00:00	8	Radiación solar	167
90177	7	Sololá	702	San José Chacayá	5	Chacayá	4	Abril	2023-04-15T00:00:00	2024-11-06T17:00:00	2	Temperatura media	17.8
90178	7	Sololá	702	San José Chacayá	5	Chacayá	4	Abril	2023-04-15T00:00:00	2024-11-06T17:00:00	4	Temperatura máxima	18.4
90179	7	Sololá	702	San José Chacayá	5	Chacayá	4	Abril	2023-04-15T00:00:00	2024-11-06T17:00:00	3	Temperatura mínima	17.8
90180	7	Sololá	702	San José Chacayá	5	Chacayá	4	Abril	2023-04-15T00:00:00	2024-11-06T17:00:00	5	Humedad	83
90181	7	Sololá	702	San José Chacayá	5	Chacayá	4	Abril	2023-04-15T00:00:00	2024-11-06T17:00:00	6	Velocidad del viento	4.8
90182	7	Sololá	702	San José Chacayá	5	Chacayá	4	Abril	2023-04-15T00:00:00	2024-11-06T17:00:00	7	Dirección del viento	4.83
90183	7	Sololá	702	San José Chacayá	5	Chacayá	4	Abril	2023-04-15T00:00:00	2024-11-06T17:00:00	1	Precipitación	0
90184	7	Sololá	702	San José Chacayá	5	Chacayá	4	Abril	2023-04-15T00:00:00	2024-11-06T17:00:00	8	Radiación solar	60
90185	7	Sololá	702	San José Chacayá	5	Chacayá	4	Abril	2023-04-15T00:00:00	2024-11-06T18:00:00	2	Temperatura media	17
90186	7	Sololá	702	San José Chacayá	5	Chacayá	4	Abril	2023-04-15T00:00:00	2024-11-06T18:00:00	4	Temperatura máxima	17.8
90187	7	Sololá	702	San José Chacayá	5	Chacayá	4	Abril	2023-04-15T00:00:00	2024-11-06T18:00:00	3	Temperatura mínima	17
90188	7	Sololá	702	San José Chacayá	5	Chacayá	4	Abril	2023-04-15T00:00:00	2024-11-06T18:00:00	5	Humedad	82
90189	7	Sololá	702	San José Chacayá	5	Chacayá	4	Abril	2023-04-15T00:00:00	2024-11-06T18:00:00	6	Velocidad del viento	1.6
90190	7	Sololá	702	San José Chacayá	5	Chacayá	4	Abril	2023-04-15T00:00:00	2024-11-06T18:00:00	7	Dirección del viento	1.61
90191	7	Sololá	702	San José Chacayá	5	Chacayá	4	Abril	2023-04-15T00:00:00	2024-11-06T18:00:00	1	Precipitación	0
90192	7	Sololá	702	San José Chacayá	5	Chacayá	4	Abril	2023-04-15T00:00:00	2024-11-06T18:00:00	8	Radiación solar	15
90193	7	Sololá	702	San José Chacayá	5	Chacayá	4	Abril	2023-04-15T00:00:00	2024-11-06T19:00:00	2	Temperatura media	16.4
90194	7	Sololá	702	San José Chacayá	5	Chacayá	4	Abril	2023-04-15T00:00:00	2024-11-06T19:00:00	4	Temperatura máxima	17
90195	7	Sololá	702	San José Chacayá	5	Chacayá	4	Abril	2023-04-15T00:00:00	2024-11-06T19:00:00	3	Temperatura mínima	16.4
90196	7	Sololá	702	San José Chacayá	5	Chacayá	4	Abril	2023-04-15T00:00:00	2024-11-06T19:00:00	5	Humedad	79
90197	7	Sololá	702	San José Chacayá	5	Chacayá	4	Abril	2023-04-15T00:00:00	2024-11-06T19:00:00	6	Velocidad del viento	1.6
90198	7	Sololá	702	San José Chacayá	5	Chacayá	4	Abril	2023-04-15T00:00:00	2024-11-06T19:00:00	7	Dirección del viento	1.61
90199	7	Sololá	702	San José Chacayá	5	Chacayá	4	Abril	2023-04-15T00:00:00	2024-11-06T19:00:00	1	Precipitación	0
90200	7	Sololá	702	San José Chacayá	5	Chacayá	4	Abril	2023-04-15T00:00:00	2024-11-06T19:00:00	8	Radiación solar	0
90201	7	Sololá	702	San José Chacayá	5	Chacayá	4	Abril	2023-04-15T00:00:00	2024-11-06T20:00:00	2	Temperatura media	16.2
90202	7	Sololá	702	San José Chacayá	5	Chacayá	4	Abril	2023-04-15T00:00:00	2024-11-06T20:00:00	4	Temperatura máxima	16.4
90203	7	Sololá	702	San José Chacayá	5	Chacayá	4	Abril	2023-04-15T00:00:00	2024-11-06T20:00:00	3	Temperatura mínima	16.1
90204	7	Sololá	702	San José Chacayá	5	Chacayá	4	Abril	2023-04-15T00:00:00	2024-11-06T20:00:00	5	Humedad	75
90205	7	Sololá	702	San José Chacayá	5	Chacayá	4	Abril	2023-04-15T00:00:00	2024-11-06T20:00:00	6	Velocidad del viento	0
90206	7	Sololá	702	San José Chacayá	5	Chacayá	4	Abril	2023-04-15T00:00:00	2024-11-06T20:00:00	7	Dirección del viento	0
90207	7	Sololá	702	San José Chacayá	5	Chacayá	4	Abril	2023-04-15T00:00:00	2024-11-06T20:00:00	1	Precipitación	0
90208	7	Sololá	702	San José Chacayá	5	Chacayá	4	Abril	2023-04-15T00:00:00	2024-11-06T20:00:00	8	Radiación solar	0
90209	7	Sololá	702	San José Chacayá	5	Chacayá	4	Abril	2023-04-15T00:00:00	2024-11-06T21:00:00	2	Temperatura media	15.9
90210	7	Sololá	702	San José Chacayá	5	Chacayá	4	Abril	2023-04-15T00:00:00	2024-11-06T21:00:00	4	Temperatura máxima	16.2
90211	7	Sololá	702	San José Chacayá	5	Chacayá	4	Abril	2023-04-15T00:00:00	2024-11-06T21:00:00	3	Temperatura mínima	15.9
90212	7	Sololá	702	San José Chacayá	5	Chacayá	4	Abril	2023-04-15T00:00:00	2024-11-06T21:00:00	5	Humedad	74
90213	7	Sololá	702	San José Chacayá	5	Chacayá	4	Abril	2023-04-15T00:00:00	2024-11-06T21:00:00	6	Velocidad del viento	0
90214	7	Sololá	702	San José Chacayá	5	Chacayá	4	Abril	2023-04-15T00:00:00	2024-11-06T21:00:00	7	Dirección del viento	0
90215	7	Sololá	702	San José Chacayá	5	Chacayá	4	Abril	2023-04-15T00:00:00	2024-11-06T21:00:00	1	Precipitación	0
90216	7	Sololá	702	San José Chacayá	5	Chacayá	4	Abril	2023-04-15T00:00:00	2024-11-06T21:00:00	8	Radiación solar	0
90217	7	Sololá	702	San José Chacayá	5	Chacayá	4	Abril	2023-04-15T00:00:00	2024-11-06T22:00:00	2	Temperatura media	15.8
90218	7	Sololá	702	San José Chacayá	5	Chacayá	4	Abril	2023-04-15T00:00:00	2024-11-06T22:00:00	4	Temperatura máxima	16
90219	7	Sololá	702	San José Chacayá	5	Chacayá	4	Abril	2023-04-15T00:00:00	2024-11-06T22:00:00	3	Temperatura mínima	15.8
90220	7	Sololá	702	San José Chacayá	5	Chacayá	4	Abril	2023-04-15T00:00:00	2024-11-06T22:00:00	5	Humedad	70
90221	7	Sololá	702	San José Chacayá	5	Chacayá	4	Abril	2023-04-15T00:00:00	2024-11-06T22:00:00	6	Velocidad del viento	0
90222	7	Sololá	702	San José Chacayá	5	Chacayá	4	Abril	2023-04-15T00:00:00	2024-11-06T22:00:00	7	Dirección del viento	0
90223	7	Sololá	702	San José Chacayá	5	Chacayá	4	Abril	2023-04-15T00:00:00	2024-11-06T22:00:00	1	Precipitación	0
90224	7	Sololá	702	San José Chacayá	5	Chacayá	4	Abril	2023-04-15T00:00:00	2024-11-06T22:00:00	8	Radiación solar	0
90225	7	Sololá	702	San José Chacayá	5	Chacayá	4	Abril	2023-04-15T00:00:00	2024-11-06T23:00:00	2	Temperatura media	15.1
90226	7	Sololá	702	San José Chacayá	5	Chacayá	4	Abril	2023-04-15T00:00:00	2024-11-06T23:00:00	4	Temperatura máxima	15.8
90227	7	Sololá	702	San José Chacayá	5	Chacayá	4	Abril	2023-04-15T00:00:00	2024-11-06T23:00:00	3	Temperatura mínima	15.1
90228	7	Sololá	702	San José Chacayá	5	Chacayá	4	Abril	2023-04-15T00:00:00	2024-11-06T23:00:00	5	Humedad	72
90229	7	Sololá	702	San José Chacayá	5	Chacayá	4	Abril	2023-04-15T00:00:00	2024-11-06T23:00:00	6	Velocidad del viento	0
90230	7	Sololá	702	San José Chacayá	5	Chacayá	4	Abril	2023-04-15T00:00:00	2024-11-06T23:00:00	7	Dirección del viento	0
90231	7	Sololá	702	San José Chacayá	5	Chacayá	4	Abril	2023-04-15T00:00:00	2024-11-06T23:00:00	1	Precipitación	0
90232	7	Sololá	702	San José Chacayá	5	Chacayá	4	Abril	2023-04-15T00:00:00	2024-11-06T23:00:00	8	Radiación solar	0
90233	7	Sololá	702	San José Chacayá	5	Chacayá	4	Abril	2023-04-16T00:00:00	2024-11-06T00:00:00	2	Temperatura media	14.6
90234	7	Sololá	702	San José Chacayá	5	Chacayá	4	Abril	2023-04-16T00:00:00	2024-11-06T00:00:00	4	Temperatura máxima	15.1
90235	7	Sololá	702	San José Chacayá	5	Chacayá	4	Abril	2023-04-16T00:00:00	2024-11-06T00:00:00	3	Temperatura mínima	14.6
90236	7	Sololá	702	San José Chacayá	5	Chacayá	4	Abril	2023-04-16T00:00:00	2024-11-06T00:00:00	5	Humedad	79
90237	7	Sololá	702	San José Chacayá	5	Chacayá	4	Abril	2023-04-16T00:00:00	2024-11-06T00:00:00	6	Velocidad del viento	1.6
90238	7	Sololá	702	San José Chacayá	5	Chacayá	4	Abril	2023-04-16T00:00:00	2024-11-06T00:00:00	7	Dirección del viento	1.61
90239	7	Sololá	702	San José Chacayá	5	Chacayá	4	Abril	2023-04-16T00:00:00	2024-11-06T00:00:00	1	Precipitación	0
90240	7	Sololá	702	San José Chacayá	5	Chacayá	4	Abril	2023-04-16T00:00:00	2024-11-06T00:00:00	8	Radiación solar	0
90241	7	Sololá	702	San José Chacayá	5	Chacayá	4	Abril	2023-04-16T00:00:00	2024-11-06T01:00:00	2	Temperatura media	13.6
90242	7	Sololá	702	San José Chacayá	5	Chacayá	4	Abril	2023-04-16T00:00:00	2024-11-06T01:00:00	4	Temperatura máxima	14.6
90243	7	Sololá	702	San José Chacayá	5	Chacayá	4	Abril	2023-04-16T00:00:00	2024-11-06T01:00:00	3	Temperatura mínima	13.6
90244	7	Sololá	702	San José Chacayá	5	Chacayá	4	Abril	2023-04-16T00:00:00	2024-11-06T01:00:00	5	Humedad	84
90245	7	Sololá	702	San José Chacayá	5	Chacayá	4	Abril	2023-04-16T00:00:00	2024-11-06T01:00:00	6	Velocidad del viento	3.2
90246	7	Sololá	702	San José Chacayá	5	Chacayá	4	Abril	2023-04-16T00:00:00	2024-11-06T01:00:00	7	Dirección del viento	3.22
90247	7	Sololá	702	San José Chacayá	5	Chacayá	4	Abril	2023-04-16T00:00:00	2024-11-06T01:00:00	1	Precipitación	0
90248	7	Sololá	702	San José Chacayá	5	Chacayá	4	Abril	2023-04-16T00:00:00	2024-11-06T01:00:00	8	Radiación solar	0
90249	7	Sololá	702	San José Chacayá	5	Chacayá	4	Abril	2023-04-16T00:00:00	2024-11-06T02:00:00	2	Temperatura media	12.6
90250	7	Sololá	702	San José Chacayá	5	Chacayá	4	Abril	2023-04-16T00:00:00	2024-11-06T02:00:00	4	Temperatura máxima	13.6
90251	7	Sololá	702	San José Chacayá	5	Chacayá	4	Abril	2023-04-16T00:00:00	2024-11-06T02:00:00	3	Temperatura mínima	12.6
90252	7	Sololá	702	San José Chacayá	5	Chacayá	4	Abril	2023-04-16T00:00:00	2024-11-06T02:00:00	5	Humedad	84
90253	7	Sololá	702	San José Chacayá	5	Chacayá	4	Abril	2023-04-16T00:00:00	2024-11-06T02:00:00	6	Velocidad del viento	3.2
90254	7	Sololá	702	San José Chacayá	5	Chacayá	4	Abril	2023-04-16T00:00:00	2024-11-06T02:00:00	7	Dirección del viento	3.22
90255	7	Sololá	702	San José Chacayá	5	Chacayá	4	Abril	2023-04-16T00:00:00	2024-11-06T02:00:00	1	Precipitación	0
90256	7	Sololá	702	San José Chacayá	5	Chacayá	4	Abril	2023-04-16T00:00:00	2024-11-06T02:00:00	8	Radiación solar	0
90257	7	Sololá	702	San José Chacayá	5	Chacayá	4	Abril	2023-04-16T00:00:00	2024-11-06T03:00:00	2	Temperatura media	11.9
90258	7	Sololá	702	San José Chacayá	5	Chacayá	4	Abril	2023-04-16T00:00:00	2024-11-06T03:00:00	4	Temperatura máxima	12.6
90259	7	Sololá	702	San José Chacayá	5	Chacayá	4	Abril	2023-04-16T00:00:00	2024-11-06T03:00:00	3	Temperatura mínima	11.9
90260	7	Sololá	702	San José Chacayá	5	Chacayá	4	Abril	2023-04-16T00:00:00	2024-11-06T03:00:00	5	Humedad	83
90261	7	Sololá	702	San José Chacayá	5	Chacayá	4	Abril	2023-04-16T00:00:00	2024-11-06T03:00:00	6	Velocidad del viento	1.6
90262	7	Sololá	702	San José Chacayá	5	Chacayá	4	Abril	2023-04-16T00:00:00	2024-11-06T03:00:00	7	Dirección del viento	1.61
90263	7	Sololá	702	San José Chacayá	5	Chacayá	4	Abril	2023-04-16T00:00:00	2024-11-06T03:00:00	1	Precipitación	0
90264	7	Sololá	702	San José Chacayá	5	Chacayá	4	Abril	2023-04-16T00:00:00	2024-11-06T03:00:00	8	Radiación solar	0
90265	7	Sololá	702	San José Chacayá	5	Chacayá	4	Abril	2023-04-16T00:00:00	2024-11-06T04:00:00	2	Temperatura media	11.8
90266	7	Sololá	702	San José Chacayá	5	Chacayá	4	Abril	2023-04-16T00:00:00	2024-11-06T04:00:00	4	Temperatura máxima	11.9
90267	7	Sololá	702	San José Chacayá	5	Chacayá	4	Abril	2023-04-16T00:00:00	2024-11-06T04:00:00	3	Temperatura mínima	11.7
90268	7	Sololá	702	San José Chacayá	5	Chacayá	4	Abril	2023-04-16T00:00:00	2024-11-06T04:00:00	5	Humedad	84
90269	7	Sololá	702	San José Chacayá	5	Chacayá	4	Abril	2023-04-16T00:00:00	2024-11-06T04:00:00	6	Velocidad del viento	3.2
90270	7	Sololá	702	San José Chacayá	5	Chacayá	4	Abril	2023-04-16T00:00:00	2024-11-06T04:00:00	7	Dirección del viento	3.22
90271	7	Sololá	702	San José Chacayá	5	Chacayá	4	Abril	2023-04-16T00:00:00	2024-11-06T04:00:00	1	Precipitación	0
90272	7	Sololá	702	San José Chacayá	5	Chacayá	4	Abril	2023-04-16T00:00:00	2024-11-06T04:00:00	8	Radiación solar	0
90273	7	Sololá	702	San José Chacayá	5	Chacayá	4	Abril	2023-04-16T00:00:00	2024-11-06T05:00:00	2	Temperatura media	11.3
90274	7	Sololá	702	San José Chacayá	5	Chacayá	4	Abril	2023-04-16T00:00:00	2024-11-06T05:00:00	4	Temperatura máxima	11.7
90275	7	Sololá	702	San José Chacayá	5	Chacayá	4	Abril	2023-04-16T00:00:00	2024-11-06T05:00:00	3	Temperatura mínima	11.2
90276	7	Sololá	702	San José Chacayá	5	Chacayá	4	Abril	2023-04-16T00:00:00	2024-11-06T05:00:00	5	Humedad	83
90277	7	Sololá	702	San José Chacayá	5	Chacayá	4	Abril	2023-04-16T00:00:00	2024-11-06T05:00:00	6	Velocidad del viento	3.2
90278	7	Sololá	702	San José Chacayá	5	Chacayá	4	Abril	2023-04-16T00:00:00	2024-11-06T05:00:00	7	Dirección del viento	3.22
90279	7	Sololá	702	San José Chacayá	5	Chacayá	4	Abril	2023-04-16T00:00:00	2024-11-06T05:00:00	1	Precipitación	0
90280	7	Sololá	702	San José Chacayá	5	Chacayá	4	Abril	2023-04-16T00:00:00	2024-11-06T05:00:00	8	Radiación solar	0
90281	7	Sololá	702	San José Chacayá	5	Chacayá	4	Abril	2023-04-16T00:00:00	2024-11-06T06:00:00	2	Temperatura media	10.9
90282	7	Sololá	702	San José Chacayá	5	Chacayá	4	Abril	2023-04-16T00:00:00	2024-11-06T06:00:00	4	Temperatura máxima	11.3
90283	7	Sololá	702	San José Chacayá	5	Chacayá	4	Abril	2023-04-16T00:00:00	2024-11-06T06:00:00	3	Temperatura mínima	10.8
90284	7	Sololá	702	San José Chacayá	5	Chacayá	4	Abril	2023-04-16T00:00:00	2024-11-06T06:00:00	5	Humedad	84
90285	7	Sololá	702	San José Chacayá	5	Chacayá	4	Abril	2023-04-16T00:00:00	2024-11-06T06:00:00	6	Velocidad del viento	4.8
90286	7	Sololá	702	San José Chacayá	5	Chacayá	4	Abril	2023-04-16T00:00:00	2024-11-06T06:00:00	7	Dirección del viento	4.83
90287	7	Sololá	702	San José Chacayá	5	Chacayá	4	Abril	2023-04-16T00:00:00	2024-11-06T06:00:00	1	Precipitación	0
90288	7	Sololá	702	San José Chacayá	5	Chacayá	4	Abril	2023-04-16T00:00:00	2024-11-06T06:00:00	8	Radiación solar	2
90289	7	Sololá	702	San José Chacayá	5	Chacayá	4	Abril	2023-04-16T00:00:00	2024-11-06T07:00:00	2	Temperatura media	10.5
90290	7	Sololá	702	San José Chacayá	5	Chacayá	4	Abril	2023-04-16T00:00:00	2024-11-06T07:00:00	4	Temperatura máxima	10.9
90291	7	Sololá	702	San José Chacayá	5	Chacayá	4	Abril	2023-04-16T00:00:00	2024-11-06T07:00:00	3	Temperatura mínima	10.4
90292	7	Sololá	702	San José Chacayá	5	Chacayá	4	Abril	2023-04-16T00:00:00	2024-11-06T07:00:00	5	Humedad	84
90293	7	Sololá	702	San José Chacayá	5	Chacayá	4	Abril	2023-04-16T00:00:00	2024-11-06T07:00:00	6	Velocidad del viento	4.8
90294	7	Sololá	702	San José Chacayá	5	Chacayá	4	Abril	2023-04-16T00:00:00	2024-11-06T07:00:00	7	Dirección del viento	4.83
90295	7	Sololá	702	San José Chacayá	5	Chacayá	4	Abril	2023-04-16T00:00:00	2024-11-06T07:00:00	1	Precipitación	0
90296	7	Sololá	702	San José Chacayá	5	Chacayá	4	Abril	2023-04-16T00:00:00	2024-11-06T07:00:00	8	Radiación solar	38
90297	7	Sololá	702	San José Chacayá	5	Chacayá	4	Abril	2023-04-16T00:00:00	2024-11-06T08:00:00	2	Temperatura media	12.2
90298	7	Sololá	702	San José Chacayá	5	Chacayá	4	Abril	2023-04-16T00:00:00	2024-11-06T08:00:00	4	Temperatura máxima	12.2
90299	7	Sololá	702	San José Chacayá	5	Chacayá	4	Abril	2023-04-16T00:00:00	2024-11-06T08:00:00	3	Temperatura mínima	10.4
90300	7	Sololá	702	San José Chacayá	5	Chacayá	4	Abril	2023-04-16T00:00:00	2024-11-06T08:00:00	5	Humedad	84
90301	7	Sololá	702	San José Chacayá	5	Chacayá	4	Abril	2023-04-16T00:00:00	2024-11-06T08:00:00	6	Velocidad del viento	3.2
90302	7	Sololá	702	San José Chacayá	5	Chacayá	4	Abril	2023-04-16T00:00:00	2024-11-06T08:00:00	7	Dirección del viento	3.22
90303	7	Sololá	702	San José Chacayá	5	Chacayá	4	Abril	2023-04-16T00:00:00	2024-11-06T08:00:00	1	Precipitación	0
90304	7	Sololá	702	San José Chacayá	5	Chacayá	4	Abril	2023-04-16T00:00:00	2024-11-06T08:00:00	8	Radiación solar	90
90305	7	Sololá	702	San José Chacayá	5	Chacayá	4	Abril	2023-04-16T00:00:00	2024-11-06T09:00:00	2	Temperatura media	16.4
90306	7	Sololá	702	San José Chacayá	5	Chacayá	4	Abril	2023-04-16T00:00:00	2024-11-06T09:00:00	4	Temperatura máxima	16.4
90307	7	Sololá	702	San José Chacayá	5	Chacayá	4	Abril	2023-04-16T00:00:00	2024-11-06T09:00:00	3	Temperatura mínima	12.2
90308	7	Sololá	702	San José Chacayá	5	Chacayá	4	Abril	2023-04-16T00:00:00	2024-11-06T09:00:00	5	Humedad	77
90309	7	Sololá	702	San José Chacayá	5	Chacayá	4	Abril	2023-04-16T00:00:00	2024-11-06T09:00:00	6	Velocidad del viento	1.6
90310	7	Sololá	702	San José Chacayá	5	Chacayá	4	Abril	2023-04-16T00:00:00	2024-11-06T09:00:00	7	Dirección del viento	1.61
90311	7	Sololá	702	San José Chacayá	5	Chacayá	4	Abril	2023-04-16T00:00:00	2024-11-06T09:00:00	1	Precipitación	0
90312	7	Sololá	702	San José Chacayá	5	Chacayá	4	Abril	2023-04-16T00:00:00	2024-11-06T09:00:00	8	Radiación solar	433
90313	7	Sololá	702	San José Chacayá	5	Chacayá	4	Abril	2023-04-16T00:00:00	2024-11-06T10:00:00	2	Temperatura media	19.8
90314	7	Sololá	702	San José Chacayá	5	Chacayá	4	Abril	2023-04-16T00:00:00	2024-11-06T10:00:00	4	Temperatura máxima	19.8
90315	7	Sololá	702	San José Chacayá	5	Chacayá	4	Abril	2023-04-16T00:00:00	2024-11-06T10:00:00	3	Temperatura mínima	16.4
90316	7	Sololá	702	San José Chacayá	5	Chacayá	4	Abril	2023-04-16T00:00:00	2024-11-06T10:00:00	5	Humedad	69
90317	7	Sololá	702	San José Chacayá	5	Chacayá	4	Abril	2023-04-16T00:00:00	2024-11-06T10:00:00	6	Velocidad del viento	3.2
90318	7	Sololá	702	San José Chacayá	5	Chacayá	4	Abril	2023-04-16T00:00:00	2024-11-06T10:00:00	7	Dirección del viento	3.22
90319	7	Sololá	702	San José Chacayá	5	Chacayá	4	Abril	2023-04-16T00:00:00	2024-11-06T10:00:00	1	Precipitación	0
90320	7	Sololá	702	San José Chacayá	5	Chacayá	4	Abril	2023-04-16T00:00:00	2024-11-06T10:00:00	8	Radiación solar	722
90321	7	Sololá	702	San José Chacayá	5	Chacayá	4	Abril	2023-04-16T00:00:00	2024-11-06T11:00:00	2	Temperatura media	21.3
90322	7	Sololá	702	San José Chacayá	5	Chacayá	4	Abril	2023-04-16T00:00:00	2024-11-06T11:00:00	4	Temperatura máxima	21.4
90323	7	Sololá	702	San José Chacayá	5	Chacayá	4	Abril	2023-04-16T00:00:00	2024-11-06T11:00:00	3	Temperatura mínima	19.8
90324	7	Sololá	702	San José Chacayá	5	Chacayá	4	Abril	2023-04-16T00:00:00	2024-11-06T11:00:00	5	Humedad	65
90325	7	Sololá	702	San José Chacayá	5	Chacayá	4	Abril	2023-04-16T00:00:00	2024-11-06T11:00:00	6	Velocidad del viento	4.8
90326	7	Sololá	702	San José Chacayá	5	Chacayá	4	Abril	2023-04-16T00:00:00	2024-11-06T11:00:00	7	Dirección del viento	4.83
90327	7	Sololá	702	San José Chacayá	5	Chacayá	4	Abril	2023-04-16T00:00:00	2024-11-06T11:00:00	1	Precipitación	0
90328	7	Sololá	702	San José Chacayá	5	Chacayá	4	Abril	2023-04-16T00:00:00	2024-11-06T11:00:00	8	Radiación solar	881
90329	7	Sololá	702	San José Chacayá	5	Chacayá	4	Abril	2023-04-16T00:00:00	2024-11-06T12:00:00	2	Temperatura media	21.6
90330	7	Sololá	702	San José Chacayá	5	Chacayá	4	Abril	2023-04-16T00:00:00	2024-11-06T12:00:00	4	Temperatura máxima	21.6
90331	7	Sololá	702	San José Chacayá	5	Chacayá	4	Abril	2023-04-16T00:00:00	2024-11-06T12:00:00	3	Temperatura mínima	21.1
90332	7	Sololá	702	San José Chacayá	5	Chacayá	4	Abril	2023-04-16T00:00:00	2024-11-06T12:00:00	5	Humedad	69
90333	7	Sololá	702	San José Chacayá	5	Chacayá	4	Abril	2023-04-16T00:00:00	2024-11-06T12:00:00	6	Velocidad del viento	8
90334	7	Sololá	702	San José Chacayá	5	Chacayá	4	Abril	2023-04-16T00:00:00	2024-11-06T12:00:00	7	Dirección del viento	8.05
90335	7	Sololá	702	San José Chacayá	5	Chacayá	4	Abril	2023-04-16T00:00:00	2024-11-06T12:00:00	1	Precipitación	0
90336	7	Sololá	702	San José Chacayá	5	Chacayá	4	Abril	2023-04-16T00:00:00	2024-11-06T12:00:00	8	Radiación solar	975
90337	7	Sololá	702	San José Chacayá	5	Chacayá	4	Abril	2023-04-16T00:00:00	2024-11-06T13:00:00	2	Temperatura media	21.6
90338	7	Sololá	702	San José Chacayá	5	Chacayá	4	Abril	2023-04-16T00:00:00	2024-11-06T13:00:00	4	Temperatura máxima	22.7
90339	7	Sololá	702	San José Chacayá	5	Chacayá	4	Abril	2023-04-16T00:00:00	2024-11-06T13:00:00	3	Temperatura mínima	21.6
90340	7	Sololá	702	San José Chacayá	5	Chacayá	4	Abril	2023-04-16T00:00:00	2024-11-06T13:00:00	5	Humedad	69
90341	7	Sololá	702	San José Chacayá	5	Chacayá	4	Abril	2023-04-16T00:00:00	2024-11-06T13:00:00	6	Velocidad del viento	6.4
90342	7	Sololá	702	San José Chacayá	5	Chacayá	4	Abril	2023-04-16T00:00:00	2024-11-06T13:00:00	7	Dirección del viento	6.44
90343	7	Sololá	702	San José Chacayá	5	Chacayá	4	Abril	2023-04-16T00:00:00	2024-11-06T13:00:00	1	Precipitación	0
90344	7	Sololá	702	San José Chacayá	5	Chacayá	4	Abril	2023-04-16T00:00:00	2024-11-06T13:00:00	8	Radiación solar	827
90345	7	Sololá	702	San José Chacayá	5	Chacayá	4	Abril	2023-04-16T00:00:00	2024-11-06T14:00:00	2	Temperatura media	21.5
90346	7	Sololá	702	San José Chacayá	5	Chacayá	4	Abril	2023-04-16T00:00:00	2024-11-06T14:00:00	4	Temperatura máxima	22
90347	7	Sololá	702	San José Chacayá	5	Chacayá	4	Abril	2023-04-16T00:00:00	2024-11-06T14:00:00	3	Temperatura mínima	21.1
90348	7	Sololá	702	San José Chacayá	5	Chacayá	4	Abril	2023-04-16T00:00:00	2024-11-06T14:00:00	5	Humedad	71
90349	7	Sololá	702	San José Chacayá	5	Chacayá	4	Abril	2023-04-16T00:00:00	2024-11-06T14:00:00	6	Velocidad del viento	6.4
90350	7	Sololá	702	San José Chacayá	5	Chacayá	4	Abril	2023-04-16T00:00:00	2024-11-06T14:00:00	7	Dirección del viento	6.44
90351	7	Sololá	702	San José Chacayá	5	Chacayá	4	Abril	2023-04-16T00:00:00	2024-11-06T14:00:00	1	Precipitación	0
90352	7	Sololá	702	San José Chacayá	5	Chacayá	4	Abril	2023-04-16T00:00:00	2024-11-06T14:00:00	8	Radiación solar	532
90353	7	Sololá	702	San José Chacayá	5	Chacayá	4	Abril	2023-04-16T00:00:00	2024-11-06T15:00:00	2	Temperatura media	20.7
90354	7	Sololá	702	San José Chacayá	5	Chacayá	4	Abril	2023-04-16T00:00:00	2024-11-06T15:00:00	4	Temperatura máxima	21.6
90355	7	Sololá	702	San José Chacayá	5	Chacayá	4	Abril	2023-04-16T00:00:00	2024-11-06T15:00:00	3	Temperatura mínima	20.4
90356	7	Sololá	702	San José Chacayá	5	Chacayá	4	Abril	2023-04-16T00:00:00	2024-11-06T15:00:00	5	Humedad	73
90357	7	Sololá	702	San José Chacayá	5	Chacayá	4	Abril	2023-04-16T00:00:00	2024-11-06T15:00:00	6	Velocidad del viento	4.8
90358	7	Sololá	702	San José Chacayá	5	Chacayá	4	Abril	2023-04-16T00:00:00	2024-11-06T15:00:00	7	Dirección del viento	4.83
90359	7	Sololá	702	San José Chacayá	5	Chacayá	4	Abril	2023-04-16T00:00:00	2024-11-06T15:00:00	1	Precipitación	0
90360	7	Sololá	702	San José Chacayá	5	Chacayá	4	Abril	2023-04-16T00:00:00	2024-11-06T15:00:00	8	Radiación solar	360
90361	7	Sololá	702	San José Chacayá	5	Chacayá	4	Abril	2023-04-16T00:00:00	2024-11-06T16:00:00	2	Temperatura media	19.7
90362	7	Sololá	702	San José Chacayá	5	Chacayá	4	Abril	2023-04-16T00:00:00	2024-11-06T16:00:00	4	Temperatura máxima	20.7
90363	7	Sololá	702	San José Chacayá	5	Chacayá	4	Abril	2023-04-16T00:00:00	2024-11-06T16:00:00	3	Temperatura mínima	19.4
90364	7	Sololá	702	San José Chacayá	5	Chacayá	4	Abril	2023-04-16T00:00:00	2024-11-06T16:00:00	5	Humedad	78
90365	7	Sololá	702	San José Chacayá	5	Chacayá	4	Abril	2023-04-16T00:00:00	2024-11-06T16:00:00	6	Velocidad del viento	4.8
90366	7	Sololá	702	San José Chacayá	5	Chacayá	4	Abril	2023-04-16T00:00:00	2024-11-06T16:00:00	7	Dirección del viento	4.83
90367	7	Sololá	702	San José Chacayá	5	Chacayá	4	Abril	2023-04-16T00:00:00	2024-11-06T16:00:00	1	Precipitación	0
90368	7	Sololá	702	San José Chacayá	5	Chacayá	4	Abril	2023-04-16T00:00:00	2024-11-06T16:00:00	8	Radiación solar	121
90369	7	Sololá	702	San José Chacayá	5	Chacayá	4	Abril	2023-04-16T00:00:00	2024-11-06T17:00:00	2	Temperatura media	18.3
90370	7	Sololá	702	San José Chacayá	5	Chacayá	4	Abril	2023-04-16T00:00:00	2024-11-06T17:00:00	4	Temperatura máxima	19.7
90371	7	Sololá	702	San José Chacayá	5	Chacayá	4	Abril	2023-04-16T00:00:00	2024-11-06T17:00:00	3	Temperatura mínima	18.3
90372	7	Sololá	702	San José Chacayá	5	Chacayá	4	Abril	2023-04-16T00:00:00	2024-11-06T17:00:00	5	Humedad	82
90373	7	Sololá	702	San José Chacayá	5	Chacayá	4	Abril	2023-04-16T00:00:00	2024-11-06T17:00:00	6	Velocidad del viento	3.2
90374	7	Sololá	702	San José Chacayá	5	Chacayá	4	Abril	2023-04-16T00:00:00	2024-11-06T17:00:00	7	Dirección del viento	3.22
90375	7	Sololá	702	San José Chacayá	5	Chacayá	4	Abril	2023-04-16T00:00:00	2024-11-06T17:00:00	1	Precipitación	0
90376	7	Sololá	702	San José Chacayá	5	Chacayá	4	Abril	2023-04-16T00:00:00	2024-11-06T17:00:00	8	Radiación solar	28
90377	7	Sololá	702	San José Chacayá	5	Chacayá	4	Abril	2023-04-16T00:00:00	2024-11-06T18:00:00	2	Temperatura media	16.9
90378	7	Sololá	702	San José Chacayá	5	Chacayá	4	Abril	2023-04-16T00:00:00	2024-11-06T18:00:00	4	Temperatura máxima	18.3
90379	7	Sololá	702	San José Chacayá	5	Chacayá	4	Abril	2023-04-16T00:00:00	2024-11-06T18:00:00	3	Temperatura mínima	16.9
90380	7	Sololá	702	San José Chacayá	5	Chacayá	4	Abril	2023-04-16T00:00:00	2024-11-06T18:00:00	5	Humedad	83
90381	7	Sololá	702	San José Chacayá	5	Chacayá	4	Abril	2023-04-16T00:00:00	2024-11-06T18:00:00	6	Velocidad del viento	1.6
90382	7	Sololá	702	San José Chacayá	5	Chacayá	4	Abril	2023-04-16T00:00:00	2024-11-06T18:00:00	7	Dirección del viento	1.61
90383	7	Sololá	702	San José Chacayá	5	Chacayá	4	Abril	2023-04-16T00:00:00	2024-11-06T18:00:00	1	Precipitación	0
90384	7	Sololá	702	San José Chacayá	5	Chacayá	4	Abril	2023-04-16T00:00:00	2024-11-06T18:00:00	8	Radiación solar	21
90385	7	Sololá	702	San José Chacayá	5	Chacayá	4	Abril	2023-04-16T00:00:00	2024-11-06T19:00:00	2	Temperatura media	16.8
90386	7	Sololá	702	San José Chacayá	5	Chacayá	4	Abril	2023-04-16T00:00:00	2024-11-06T19:00:00	4	Temperatura máxima	16.9
90387	7	Sololá	702	San José Chacayá	5	Chacayá	4	Abril	2023-04-16T00:00:00	2024-11-06T19:00:00	3	Temperatura mínima	16.7
90388	7	Sololá	702	San José Chacayá	5	Chacayá	4	Abril	2023-04-16T00:00:00	2024-11-06T19:00:00	5	Humedad	83
90389	7	Sololá	702	San José Chacayá	5	Chacayá	4	Abril	2023-04-16T00:00:00	2024-11-06T19:00:00	6	Velocidad del viento	1.6
90390	7	Sololá	702	San José Chacayá	5	Chacayá	4	Abril	2023-04-16T00:00:00	2024-11-06T19:00:00	7	Dirección del viento	1.61
90391	7	Sololá	702	San José Chacayá	5	Chacayá	4	Abril	2023-04-16T00:00:00	2024-11-06T19:00:00	1	Precipitación	0
90392	7	Sololá	702	San José Chacayá	5	Chacayá	4	Abril	2023-04-16T00:00:00	2024-11-06T19:00:00	8	Radiación solar	0
90393	7	Sololá	702	San José Chacayá	5	Chacayá	4	Abril	2023-04-16T00:00:00	2024-11-06T20:00:00	2	Temperatura media	16.2
90394	7	Sololá	702	San José Chacayá	5	Chacayá	4	Abril	2023-04-16T00:00:00	2024-11-06T20:00:00	4	Temperatura máxima	16.8
90395	7	Sololá	702	San José Chacayá	5	Chacayá	4	Abril	2023-04-16T00:00:00	2024-11-06T20:00:00	3	Temperatura mínima	16.2
90396	7	Sololá	702	San José Chacayá	5	Chacayá	4	Abril	2023-04-16T00:00:00	2024-11-06T20:00:00	5	Humedad	83
90397	7	Sololá	702	San José Chacayá	5	Chacayá	4	Abril	2023-04-16T00:00:00	2024-11-06T20:00:00	6	Velocidad del viento	0
90398	7	Sololá	702	San José Chacayá	5	Chacayá	4	Abril	2023-04-16T00:00:00	2024-11-06T20:00:00	7	Dirección del viento	0
90399	7	Sololá	702	San José Chacayá	5	Chacayá	4	Abril	2023-04-16T00:00:00	2024-11-06T20:00:00	1	Precipitación	0
90400	7	Sololá	702	San José Chacayá	5	Chacayá	4	Abril	2023-04-16T00:00:00	2024-11-06T20:00:00	8	Radiación solar	0
90401	7	Sololá	702	San José Chacayá	5	Chacayá	4	Abril	2023-04-16T00:00:00	2024-11-06T21:00:00	2	Temperatura media	14.1
90402	7	Sololá	702	San José Chacayá	5	Chacayá	4	Abril	2023-04-16T00:00:00	2024-11-06T21:00:00	4	Temperatura máxima	16.2
90403	7	Sololá	702	San José Chacayá	5	Chacayá	4	Abril	2023-04-16T00:00:00	2024-11-06T21:00:00	3	Temperatura mínima	14.1
90404	7	Sololá	702	San José Chacayá	5	Chacayá	4	Abril	2023-04-16T00:00:00	2024-11-06T21:00:00	5	Humedad	80
90405	7	Sololá	702	San José Chacayá	5	Chacayá	4	Abril	2023-04-16T00:00:00	2024-11-06T21:00:00	6	Velocidad del viento	1.6
90406	7	Sololá	702	San José Chacayá	5	Chacayá	4	Abril	2023-04-16T00:00:00	2024-11-06T21:00:00	7	Dirección del viento	1.61
90407	7	Sololá	702	San José Chacayá	5	Chacayá	4	Abril	2023-04-16T00:00:00	2024-11-06T21:00:00	1	Precipitación	0
90408	7	Sololá	702	San José Chacayá	5	Chacayá	4	Abril	2023-04-16T00:00:00	2024-11-06T21:00:00	8	Radiación solar	0
90409	7	Sololá	702	San José Chacayá	5	Chacayá	4	Abril	2023-04-16T00:00:00	2024-11-06T22:00:00	2	Temperatura media	12.7
90410	7	Sololá	702	San José Chacayá	5	Chacayá	4	Abril	2023-04-16T00:00:00	2024-11-06T22:00:00	4	Temperatura máxima	14.1
90411	7	Sololá	702	San José Chacayá	5	Chacayá	4	Abril	2023-04-16T00:00:00	2024-11-06T22:00:00	3	Temperatura mínima	12.7
90412	7	Sololá	702	San José Chacayá	5	Chacayá	4	Abril	2023-04-16T00:00:00	2024-11-06T22:00:00	5	Humedad	80
90413	7	Sololá	702	San José Chacayá	5	Chacayá	4	Abril	2023-04-16T00:00:00	2024-11-06T22:00:00	6	Velocidad del viento	3.2
90414	7	Sololá	702	San José Chacayá	5	Chacayá	4	Abril	2023-04-16T00:00:00	2024-11-06T22:00:00	7	Dirección del viento	3.22
90415	7	Sololá	702	San José Chacayá	5	Chacayá	4	Abril	2023-04-16T00:00:00	2024-11-06T22:00:00	1	Precipitación	0
90416	7	Sololá	702	San José Chacayá	5	Chacayá	4	Abril	2023-04-16T00:00:00	2024-11-06T22:00:00	8	Radiación solar	0
90417	7	Sololá	702	San José Chacayá	5	Chacayá	4	Abril	2023-04-16T00:00:00	2024-11-06T23:00:00	2	Temperatura media	11.8
90418	7	Sololá	702	San José Chacayá	5	Chacayá	4	Abril	2023-04-16T00:00:00	2024-11-06T23:00:00	4	Temperatura máxima	12.8
90419	7	Sololá	702	San José Chacayá	5	Chacayá	4	Abril	2023-04-16T00:00:00	2024-11-06T23:00:00	3	Temperatura mínima	11.8
90420	7	Sololá	702	San José Chacayá	5	Chacayá	4	Abril	2023-04-16T00:00:00	2024-11-06T23:00:00	5	Humedad	82
90421	7	Sololá	702	San José Chacayá	5	Chacayá	4	Abril	2023-04-16T00:00:00	2024-11-06T23:00:00	6	Velocidad del viento	1.6
90422	7	Sololá	702	San José Chacayá	5	Chacayá	4	Abril	2023-04-16T00:00:00	2024-11-06T23:00:00	7	Dirección del viento	1.61
90423	7	Sololá	702	San José Chacayá	5	Chacayá	4	Abril	2023-04-16T00:00:00	2024-11-06T23:00:00	1	Precipitación	0
90424	7	Sololá	702	San José Chacayá	5	Chacayá	4	Abril	2023-04-16T00:00:00	2024-11-06T23:00:00	8	Radiación solar	0
90425	7	Sololá	702	San José Chacayá	5	Chacayá	4	Abril	2023-04-17T00:00:00	2024-11-06T00:00:00	2	Temperatura media	11.5
90426	7	Sololá	702	San José Chacayá	5	Chacayá	4	Abril	2023-04-17T00:00:00	2024-11-06T00:00:00	4	Temperatura máxima	11.8
90427	7	Sololá	702	San José Chacayá	5	Chacayá	4	Abril	2023-04-17T00:00:00	2024-11-06T00:00:00	3	Temperatura mínima	11.2
90428	7	Sololá	702	San José Chacayá	5	Chacayá	4	Abril	2023-04-17T00:00:00	2024-11-06T00:00:00	5	Humedad	82
90429	7	Sololá	702	San José Chacayá	5	Chacayá	4	Abril	2023-04-17T00:00:00	2024-11-06T00:00:00	6	Velocidad del viento	1.6
90430	7	Sololá	702	San José Chacayá	5	Chacayá	4	Abril	2023-04-17T00:00:00	2024-11-06T00:00:00	7	Dirección del viento	1.61
90431	7	Sololá	702	San José Chacayá	5	Chacayá	4	Abril	2023-04-17T00:00:00	2024-11-06T00:00:00	1	Precipitación	0
90432	7	Sololá	702	San José Chacayá	5	Chacayá	4	Abril	2023-04-17T00:00:00	2024-11-06T00:00:00	8	Radiación solar	0
90433	7	Sololá	702	San José Chacayá	5	Chacayá	4	Abril	2023-04-17T00:00:00	2024-11-06T01:00:00	2	Temperatura media	10.1
90434	7	Sololá	702	San José Chacayá	5	Chacayá	4	Abril	2023-04-17T00:00:00	2024-11-06T01:00:00	4	Temperatura máxima	11.5
90435	7	Sololá	702	San José Chacayá	5	Chacayá	4	Abril	2023-04-17T00:00:00	2024-11-06T01:00:00	3	Temperatura mínima	10.1
90436	7	Sololá	702	San José Chacayá	5	Chacayá	4	Abril	2023-04-17T00:00:00	2024-11-06T01:00:00	5	Humedad	84
90437	7	Sololá	702	San José Chacayá	5	Chacayá	4	Abril	2023-04-17T00:00:00	2024-11-06T01:00:00	6	Velocidad del viento	3.2
90438	7	Sololá	702	San José Chacayá	5	Chacayá	4	Abril	2023-04-17T00:00:00	2024-11-06T01:00:00	7	Dirección del viento	3.22
90439	7	Sololá	702	San José Chacayá	5	Chacayá	4	Abril	2023-04-17T00:00:00	2024-11-06T01:00:00	1	Precipitación	0
90440	7	Sololá	702	San José Chacayá	5	Chacayá	4	Abril	2023-04-17T00:00:00	2024-11-06T01:00:00	8	Radiación solar	0
90441	7	Sololá	702	San José Chacayá	5	Chacayá	4	Abril	2023-04-17T00:00:00	2024-11-06T02:00:00	2	Temperatura media	9.7
90442	7	Sololá	702	San José Chacayá	5	Chacayá	4	Abril	2023-04-17T00:00:00	2024-11-06T02:00:00	4	Temperatura máxima	10.1
90443	7	Sololá	702	San José Chacayá	5	Chacayá	4	Abril	2023-04-17T00:00:00	2024-11-06T02:00:00	3	Temperatura mínima	9.7
90444	7	Sololá	702	San José Chacayá	5	Chacayá	4	Abril	2023-04-17T00:00:00	2024-11-06T02:00:00	5	Humedad	85
90445	7	Sololá	702	San José Chacayá	5	Chacayá	4	Abril	2023-04-17T00:00:00	2024-11-06T02:00:00	6	Velocidad del viento	3.2
90446	7	Sololá	702	San José Chacayá	5	Chacayá	4	Abril	2023-04-17T00:00:00	2024-11-06T02:00:00	7	Dirección del viento	3.22
90447	7	Sololá	702	San José Chacayá	5	Chacayá	4	Abril	2023-04-17T00:00:00	2024-11-06T02:00:00	1	Precipitación	0
90448	7	Sololá	702	San José Chacayá	5	Chacayá	4	Abril	2023-04-17T00:00:00	2024-11-06T02:00:00	8	Radiación solar	0
90449	7	Sololá	702	San José Chacayá	5	Chacayá	4	Abril	2023-04-17T00:00:00	2024-11-06T03:00:00	2	Temperatura media	9.3
90450	7	Sololá	702	San José Chacayá	5	Chacayá	4	Abril	2023-04-17T00:00:00	2024-11-06T03:00:00	4	Temperatura máxima	9.7
90451	7	Sololá	702	San José Chacayá	5	Chacayá	4	Abril	2023-04-17T00:00:00	2024-11-06T03:00:00	3	Temperatura mínima	9.3
90452	7	Sololá	702	San José Chacayá	5	Chacayá	4	Abril	2023-04-17T00:00:00	2024-11-06T03:00:00	5	Humedad	85
90453	7	Sololá	702	San José Chacayá	5	Chacayá	4	Abril	2023-04-17T00:00:00	2024-11-06T03:00:00	6	Velocidad del viento	3.2
90454	7	Sololá	702	San José Chacayá	5	Chacayá	4	Abril	2023-04-17T00:00:00	2024-11-06T03:00:00	7	Dirección del viento	3.22
90455	7	Sololá	702	San José Chacayá	5	Chacayá	4	Abril	2023-04-17T00:00:00	2024-11-06T03:00:00	1	Precipitación	0
90456	7	Sololá	702	San José Chacayá	5	Chacayá	4	Abril	2023-04-17T00:00:00	2024-11-06T03:00:00	8	Radiación solar	0
90457	7	Sololá	702	San José Chacayá	5	Chacayá	4	Abril	2023-04-17T00:00:00	2024-11-06T04:00:00	2	Temperatura media	9
90458	7	Sololá	702	San José Chacayá	5	Chacayá	4	Abril	2023-04-17T00:00:00	2024-11-06T04:00:00	4	Temperatura máxima	9.4
90459	7	Sololá	702	San José Chacayá	5	Chacayá	4	Abril	2023-04-17T00:00:00	2024-11-06T04:00:00	3	Temperatura mínima	9
90460	7	Sololá	702	San José Chacayá	5	Chacayá	4	Abril	2023-04-17T00:00:00	2024-11-06T04:00:00	5	Humedad	85
90461	7	Sololá	702	San José Chacayá	5	Chacayá	4	Abril	2023-04-17T00:00:00	2024-11-06T04:00:00	6	Velocidad del viento	3.2
90462	7	Sololá	702	San José Chacayá	5	Chacayá	4	Abril	2023-04-17T00:00:00	2024-11-06T04:00:00	7	Dirección del viento	3.22
90463	7	Sololá	702	San José Chacayá	5	Chacayá	4	Abril	2023-04-17T00:00:00	2024-11-06T04:00:00	1	Precipitación	0
90464	7	Sololá	702	San José Chacayá	5	Chacayá	4	Abril	2023-04-17T00:00:00	2024-11-06T04:00:00	8	Radiación solar	0
90465	7	Sololá	702	San José Chacayá	5	Chacayá	4	Abril	2023-04-17T00:00:00	2024-11-06T05:00:00	2	Temperatura media	9.2
90466	7	Sololá	702	San José Chacayá	5	Chacayá	4	Abril	2023-04-17T00:00:00	2024-11-06T05:00:00	4	Temperatura máxima	9.2
90467	7	Sololá	702	San José Chacayá	5	Chacayá	4	Abril	2023-04-17T00:00:00	2024-11-06T05:00:00	3	Temperatura mínima	8.9
90468	7	Sololá	702	San José Chacayá	5	Chacayá	4	Abril	2023-04-17T00:00:00	2024-11-06T05:00:00	5	Humedad	85
90469	7	Sololá	702	San José Chacayá	5	Chacayá	4	Abril	2023-04-17T00:00:00	2024-11-06T05:00:00	6	Velocidad del viento	4.8
90470	7	Sololá	702	San José Chacayá	5	Chacayá	4	Abril	2023-04-17T00:00:00	2024-11-06T05:00:00	7	Dirección del viento	4.83
90471	7	Sololá	702	San José Chacayá	5	Chacayá	4	Abril	2023-04-17T00:00:00	2024-11-06T05:00:00	1	Precipitación	0
90472	7	Sololá	702	San José Chacayá	5	Chacayá	4	Abril	2023-04-17T00:00:00	2024-11-06T05:00:00	8	Radiación solar	0
90473	7	Sololá	702	San José Chacayá	5	Chacayá	4	Abril	2023-04-17T00:00:00	2024-11-06T06:00:00	2	Temperatura media	8.4
90474	7	Sololá	702	San José Chacayá	5	Chacayá	4	Abril	2023-04-17T00:00:00	2024-11-06T06:00:00	4	Temperatura máxima	9.2
90475	7	Sololá	702	San José Chacayá	5	Chacayá	4	Abril	2023-04-17T00:00:00	2024-11-06T06:00:00	3	Temperatura mínima	8.3
90476	7	Sololá	702	San José Chacayá	5	Chacayá	4	Abril	2023-04-17T00:00:00	2024-11-06T06:00:00	5	Humedad	85
90477	7	Sololá	702	San José Chacayá	5	Chacayá	4	Abril	2023-04-17T00:00:00	2024-11-06T06:00:00	6	Velocidad del viento	3.2
90478	7	Sololá	702	San José Chacayá	5	Chacayá	4	Abril	2023-04-17T00:00:00	2024-11-06T06:00:00	7	Dirección del viento	3.22
90479	7	Sololá	702	San José Chacayá	5	Chacayá	4	Abril	2023-04-17T00:00:00	2024-11-06T06:00:00	1	Precipitación	0
90480	7	Sololá	702	San José Chacayá	5	Chacayá	4	Abril	2023-04-17T00:00:00	2024-11-06T06:00:00	8	Radiación solar	1
90481	7	Sololá	702	San José Chacayá	5	Chacayá	4	Abril	2023-04-17T00:00:00	2024-11-06T07:00:00	2	Temperatura media	8.5
90482	7	Sololá	702	San José Chacayá	5	Chacayá	4	Abril	2023-04-17T00:00:00	2024-11-06T07:00:00	4	Temperatura máxima	8.6
90483	7	Sololá	702	San José Chacayá	5	Chacayá	4	Abril	2023-04-17T00:00:00	2024-11-06T07:00:00	3	Temperatura mínima	8.3
90484	7	Sololá	702	San José Chacayá	5	Chacayá	4	Abril	2023-04-17T00:00:00	2024-11-06T07:00:00	5	Humedad	85
90485	7	Sololá	702	San José Chacayá	5	Chacayá	4	Abril	2023-04-17T00:00:00	2024-11-06T07:00:00	6	Velocidad del viento	3.2
90486	7	Sololá	702	San José Chacayá	5	Chacayá	4	Abril	2023-04-17T00:00:00	2024-11-06T07:00:00	7	Dirección del viento	3.22
90487	7	Sololá	702	San José Chacayá	5	Chacayá	4	Abril	2023-04-17T00:00:00	2024-11-06T07:00:00	1	Precipitación	0
90488	7	Sololá	702	San José Chacayá	5	Chacayá	4	Abril	2023-04-17T00:00:00	2024-11-06T07:00:00	8	Radiación solar	36
90489	7	Sololá	702	San José Chacayá	5	Chacayá	4	Abril	2023-04-17T00:00:00	2024-11-06T08:00:00	2	Temperatura media	13.3
90490	7	Sololá	702	San José Chacayá	5	Chacayá	4	Abril	2023-04-17T00:00:00	2024-11-06T08:00:00	4	Temperatura máxima	13.3
90491	7	Sololá	702	San José Chacayá	5	Chacayá	4	Abril	2023-04-17T00:00:00	2024-11-06T08:00:00	3	Temperatura mínima	8.5
90492	7	Sololá	702	San José Chacayá	5	Chacayá	4	Abril	2023-04-17T00:00:00	2024-11-06T08:00:00	5	Humedad	81
90493	7	Sololá	702	San José Chacayá	5	Chacayá	4	Abril	2023-04-17T00:00:00	2024-11-06T08:00:00	6	Velocidad del viento	3.2
90494	7	Sololá	702	San José Chacayá	5	Chacayá	4	Abril	2023-04-17T00:00:00	2024-11-06T08:00:00	7	Dirección del viento	3.22
90495	7	Sololá	702	San José Chacayá	5	Chacayá	4	Abril	2023-04-17T00:00:00	2024-11-06T08:00:00	1	Precipitación	0
90496	7	Sololá	702	San José Chacayá	5	Chacayá	4	Abril	2023-04-17T00:00:00	2024-11-06T08:00:00	8	Radiación solar	99
90497	7	Sololá	702	San José Chacayá	5	Chacayá	4	Abril	2023-04-17T00:00:00	2024-11-06T09:00:00	2	Temperatura media	16.2
90498	7	Sololá	702	San José Chacayá	5	Chacayá	4	Abril	2023-04-17T00:00:00	2024-11-06T09:00:00	4	Temperatura máxima	16.2
90499	7	Sololá	702	San José Chacayá	5	Chacayá	4	Abril	2023-04-17T00:00:00	2024-11-06T09:00:00	3	Temperatura mínima	13.3
90500	7	Sololá	702	San José Chacayá	5	Chacayá	4	Abril	2023-04-17T00:00:00	2024-11-06T09:00:00	5	Humedad	70
90501	7	Sololá	702	San José Chacayá	5	Chacayá	4	Abril	2023-04-17T00:00:00	2024-11-06T09:00:00	6	Velocidad del viento	4.8
90502	7	Sololá	702	San José Chacayá	5	Chacayá	4	Abril	2023-04-17T00:00:00	2024-11-06T09:00:00	7	Dirección del viento	4.83
90503	7	Sololá	702	San José Chacayá	5	Chacayá	4	Abril	2023-04-17T00:00:00	2024-11-06T09:00:00	1	Precipitación	0
90504	7	Sololá	702	San José Chacayá	5	Chacayá	4	Abril	2023-04-17T00:00:00	2024-11-06T09:00:00	8	Radiación solar	404
90505	7	Sololá	702	San José Chacayá	5	Chacayá	4	Abril	2023-04-17T00:00:00	2024-11-06T10:00:00	2	Temperatura media	19.7
90506	7	Sololá	702	San José Chacayá	5	Chacayá	4	Abril	2023-04-17T00:00:00	2024-11-06T10:00:00	4	Temperatura máxima	19.7
90507	7	Sololá	702	San José Chacayá	5	Chacayá	4	Abril	2023-04-17T00:00:00	2024-11-06T10:00:00	3	Temperatura mínima	16.2
90508	7	Sololá	702	San José Chacayá	5	Chacayá	4	Abril	2023-04-17T00:00:00	2024-11-06T10:00:00	5	Humedad	54
90509	7	Sololá	702	San José Chacayá	5	Chacayá	4	Abril	2023-04-17T00:00:00	2024-11-06T10:00:00	6	Velocidad del viento	6.4
90510	7	Sololá	702	San José Chacayá	5	Chacayá	4	Abril	2023-04-17T00:00:00	2024-11-06T10:00:00	7	Dirección del viento	6.44
90511	7	Sololá	702	San José Chacayá	5	Chacayá	4	Abril	2023-04-17T00:00:00	2024-11-06T10:00:00	1	Precipitación	0
90512	7	Sololá	702	San José Chacayá	5	Chacayá	4	Abril	2023-04-17T00:00:00	2024-11-06T10:00:00	8	Radiación solar	810
90513	7	Sololá	702	San José Chacayá	5	Chacayá	4	Abril	2023-04-17T00:00:00	2024-11-06T11:00:00	2	Temperatura media	22
90514	7	Sololá	702	San José Chacayá	5	Chacayá	4	Abril	2023-04-17T00:00:00	2024-11-06T11:00:00	4	Temperatura máxima	22
90515	7	Sololá	702	San José Chacayá	5	Chacayá	4	Abril	2023-04-17T00:00:00	2024-11-06T11:00:00	3	Temperatura mínima	19.7
90516	7	Sololá	702	San José Chacayá	5	Chacayá	4	Abril	2023-04-17T00:00:00	2024-11-06T11:00:00	5	Humedad	48
90517	7	Sololá	702	San José Chacayá	5	Chacayá	4	Abril	2023-04-17T00:00:00	2024-11-06T11:00:00	6	Velocidad del viento	6.4
90518	7	Sololá	702	San José Chacayá	5	Chacayá	4	Abril	2023-04-17T00:00:00	2024-11-06T11:00:00	7	Dirección del viento	6.44
90519	7	Sololá	702	San José Chacayá	5	Chacayá	4	Abril	2023-04-17T00:00:00	2024-11-06T11:00:00	1	Precipitación	0
90520	7	Sololá	702	San José Chacayá	5	Chacayá	4	Abril	2023-04-17T00:00:00	2024-11-06T11:00:00	8	Radiación solar	965
90521	7	Sololá	702	San José Chacayá	5	Chacayá	4	Abril	2023-04-17T00:00:00	2024-11-06T12:00:00	2	Temperatura media	22.3
90522	7	Sololá	702	San José Chacayá	5	Chacayá	4	Abril	2023-04-17T00:00:00	2024-11-06T12:00:00	4	Temperatura máxima	22.7
90523	7	Sololá	702	San José Chacayá	5	Chacayá	4	Abril	2023-04-17T00:00:00	2024-11-06T12:00:00	3	Temperatura mínima	21.8
90524	7	Sololá	702	San José Chacayá	5	Chacayá	4	Abril	2023-04-17T00:00:00	2024-11-06T12:00:00	5	Humedad	45
90525	7	Sololá	702	San José Chacayá	5	Chacayá	4	Abril	2023-04-17T00:00:00	2024-11-06T12:00:00	6	Velocidad del viento	8
90526	7	Sololá	702	San José Chacayá	5	Chacayá	4	Abril	2023-04-17T00:00:00	2024-11-06T12:00:00	7	Dirección del viento	8.05
90527	7	Sololá	702	San José Chacayá	5	Chacayá	4	Abril	2023-04-17T00:00:00	2024-11-06T12:00:00	1	Precipitación	0
90528	7	Sololá	702	San José Chacayá	5	Chacayá	4	Abril	2023-04-17T00:00:00	2024-11-06T12:00:00	8	Radiación solar	1029
90529	7	Sololá	702	San José Chacayá	5	Chacayá	4	Abril	2023-04-17T00:00:00	2024-11-06T13:00:00	2	Temperatura media	23.3
90530	7	Sololá	702	San José Chacayá	5	Chacayá	4	Abril	2023-04-17T00:00:00	2024-11-06T13:00:00	4	Temperatura máxima	23.8
90531	7	Sololá	702	San José Chacayá	5	Chacayá	4	Abril	2023-04-17T00:00:00	2024-11-06T13:00:00	3	Temperatura mínima	22.3
90532	7	Sololá	702	San José Chacayá	5	Chacayá	4	Abril	2023-04-17T00:00:00	2024-11-06T13:00:00	5	Humedad	43
90533	7	Sololá	702	San José Chacayá	5	Chacayá	4	Abril	2023-04-17T00:00:00	2024-11-06T13:00:00	6	Velocidad del viento	8
90534	7	Sololá	702	San José Chacayá	5	Chacayá	4	Abril	2023-04-17T00:00:00	2024-11-06T13:00:00	7	Dirección del viento	8.05
90535	7	Sololá	702	San José Chacayá	5	Chacayá	4	Abril	2023-04-17T00:00:00	2024-11-06T13:00:00	1	Precipitación	0
90536	7	Sololá	702	San José Chacayá	5	Chacayá	4	Abril	2023-04-17T00:00:00	2024-11-06T13:00:00	8	Radiación solar	595
90537	7	Sololá	702	San José Chacayá	5	Chacayá	4	Abril	2023-04-17T00:00:00	2024-11-06T14:00:00	2	Temperatura media	21
90538	7	Sololá	702	San José Chacayá	5	Chacayá	4	Abril	2023-04-17T00:00:00	2024-11-06T14:00:00	4	Temperatura máxima	23.3
90539	7	Sololá	702	San José Chacayá	5	Chacayá	4	Abril	2023-04-17T00:00:00	2024-11-06T14:00:00	3	Temperatura mínima	21
90540	7	Sololá	702	San José Chacayá	5	Chacayá	4	Abril	2023-04-17T00:00:00	2024-11-06T14:00:00	5	Humedad	63
90541	7	Sololá	702	San José Chacayá	5	Chacayá	4	Abril	2023-04-17T00:00:00	2024-11-06T14:00:00	6	Velocidad del viento	9.7
90542	7	Sololá	702	San José Chacayá	5	Chacayá	4	Abril	2023-04-17T00:00:00	2024-11-06T14:00:00	7	Dirección del viento	9.66
90543	7	Sololá	702	San José Chacayá	5	Chacayá	4	Abril	2023-04-17T00:00:00	2024-11-06T14:00:00	1	Precipitación	0
90544	7	Sololá	702	San José Chacayá	5	Chacayá	4	Abril	2023-04-17T00:00:00	2024-11-06T14:00:00	8	Radiación solar	94
90545	7	Sololá	702	San José Chacayá	5	Chacayá	4	Abril	2023-04-17T00:00:00	2024-11-06T15:00:00	2	Temperatura media	17.3
90546	7	Sololá	702	San José Chacayá	5	Chacayá	4	Abril	2023-04-17T00:00:00	2024-11-06T15:00:00	4	Temperatura máxima	21
90547	7	Sololá	702	San José Chacayá	5	Chacayá	4	Abril	2023-04-17T00:00:00	2024-11-06T15:00:00	3	Temperatura mínima	17.3
90548	7	Sololá	702	San José Chacayá	5	Chacayá	4	Abril	2023-04-17T00:00:00	2024-11-06T15:00:00	5	Humedad	82
90549	7	Sololá	702	San José Chacayá	5	Chacayá	4	Abril	2023-04-17T00:00:00	2024-11-06T15:00:00	6	Velocidad del viento	3.2
90550	7	Sololá	702	San José Chacayá	5	Chacayá	4	Abril	2023-04-17T00:00:00	2024-11-06T15:00:00	7	Dirección del viento	3.22
90551	7	Sololá	702	San José Chacayá	5	Chacayá	4	Abril	2023-04-17T00:00:00	2024-11-06T15:00:00	1	Precipitación	0
90552	7	Sololá	702	San José Chacayá	5	Chacayá	4	Abril	2023-04-17T00:00:00	2024-11-06T15:00:00	8	Radiación solar	52
90553	7	Sololá	702	San José Chacayá	5	Chacayá	4	Abril	2023-04-17T00:00:00	2024-11-06T16:00:00	2	Temperatura media	16.7
90554	7	Sololá	702	San José Chacayá	5	Chacayá	4	Abril	2023-04-17T00:00:00	2024-11-06T16:00:00	4	Temperatura máxima	17.3
90555	7	Sololá	702	San José Chacayá	5	Chacayá	4	Abril	2023-04-17T00:00:00	2024-11-06T16:00:00	3	Temperatura mínima	16.7
90556	7	Sololá	702	San José Chacayá	5	Chacayá	4	Abril	2023-04-17T00:00:00	2024-11-06T16:00:00	5	Humedad	83
90557	7	Sololá	702	San José Chacayá	5	Chacayá	4	Abril	2023-04-17T00:00:00	2024-11-06T16:00:00	6	Velocidad del viento	1.6
90558	7	Sololá	702	San José Chacayá	5	Chacayá	4	Abril	2023-04-17T00:00:00	2024-11-06T16:00:00	7	Dirección del viento	1.61
90559	7	Sololá	702	San José Chacayá	5	Chacayá	4	Abril	2023-04-17T00:00:00	2024-11-06T16:00:00	1	Precipitación	0
90560	7	Sololá	702	San José Chacayá	5	Chacayá	4	Abril	2023-04-17T00:00:00	2024-11-06T16:00:00	8	Radiación solar	59
90561	7	Sololá	702	San José Chacayá	5	Chacayá	4	Abril	2023-04-17T00:00:00	2024-11-06T17:00:00	2	Temperatura media	15.6
90562	7	Sololá	702	San José Chacayá	5	Chacayá	4	Abril	2023-04-17T00:00:00	2024-11-06T17:00:00	4	Temperatura máxima	16.7
90563	7	Sololá	702	San José Chacayá	5	Chacayá	4	Abril	2023-04-17T00:00:00	2024-11-06T17:00:00	3	Temperatura mínima	15.6
90564	7	Sololá	702	San José Chacayá	5	Chacayá	4	Abril	2023-04-17T00:00:00	2024-11-06T17:00:00	5	Humedad	83
90565	7	Sololá	702	San José Chacayá	5	Chacayá	4	Abril	2023-04-17T00:00:00	2024-11-06T17:00:00	6	Velocidad del viento	1.6
90566	7	Sololá	702	San José Chacayá	5	Chacayá	4	Abril	2023-04-17T00:00:00	2024-11-06T17:00:00	7	Dirección del viento	1.61
90567	7	Sololá	702	San José Chacayá	5	Chacayá	4	Abril	2023-04-17T00:00:00	2024-11-06T17:00:00	1	Precipitación	0.2
90568	7	Sololá	702	San José Chacayá	5	Chacayá	4	Abril	2023-04-17T00:00:00	2024-11-06T17:00:00	8	Radiación solar	70
90569	7	Sololá	702	San José Chacayá	5	Chacayá	4	Abril	2023-04-17T00:00:00	2024-11-06T18:00:00	2	Temperatura media	15.7
90570	7	Sololá	702	San José Chacayá	5	Chacayá	4	Abril	2023-04-17T00:00:00	2024-11-06T18:00:00	4	Temperatura máxima	15.7
90571	7	Sololá	702	San José Chacayá	5	Chacayá	4	Abril	2023-04-17T00:00:00	2024-11-06T18:00:00	3	Temperatura mínima	15.2
90572	7	Sololá	702	San José Chacayá	5	Chacayá	4	Abril	2023-04-17T00:00:00	2024-11-06T18:00:00	5	Humedad	82
90573	7	Sololá	702	San José Chacayá	5	Chacayá	4	Abril	2023-04-17T00:00:00	2024-11-06T18:00:00	6	Velocidad del viento	1.6
90574	7	Sololá	702	San José Chacayá	5	Chacayá	4	Abril	2023-04-17T00:00:00	2024-11-06T18:00:00	7	Dirección del viento	1.61
90575	7	Sololá	702	San José Chacayá	5	Chacayá	4	Abril	2023-04-17T00:00:00	2024-11-06T18:00:00	1	Precipitación	0.2
90576	7	Sololá	702	San José Chacayá	5	Chacayá	4	Abril	2023-04-17T00:00:00	2024-11-06T18:00:00	8	Radiación solar	45
90577	7	Sololá	702	San José Chacayá	5	Chacayá	4	Abril	2023-04-17T00:00:00	2024-11-06T19:00:00	2	Temperatura media	15.5
90578	7	Sololá	702	San José Chacayá	5	Chacayá	4	Abril	2023-04-17T00:00:00	2024-11-06T19:00:00	4	Temperatura máxima	15.8
90579	7	Sololá	702	San José Chacayá	5	Chacayá	4	Abril	2023-04-17T00:00:00	2024-11-06T19:00:00	3	Temperatura mínima	15.5
90580	7	Sololá	702	San José Chacayá	5	Chacayá	4	Abril	2023-04-17T00:00:00	2024-11-06T19:00:00	5	Humedad	81
90581	7	Sololá	702	San José Chacayá	5	Chacayá	4	Abril	2023-04-17T00:00:00	2024-11-06T19:00:00	6	Velocidad del viento	0
90582	7	Sololá	702	San José Chacayá	5	Chacayá	4	Abril	2023-04-17T00:00:00	2024-11-06T19:00:00	7	Dirección del viento	0
90583	7	Sololá	702	San José Chacayá	5	Chacayá	4	Abril	2023-04-17T00:00:00	2024-11-06T19:00:00	1	Precipitación	0
90584	7	Sololá	702	San José Chacayá	5	Chacayá	4	Abril	2023-04-17T00:00:00	2024-11-06T19:00:00	8	Radiación solar	0
90585	7	Sololá	702	San José Chacayá	5	Chacayá	4	Abril	2023-04-17T00:00:00	2024-11-06T20:00:00	2	Temperatura media	13.9
90586	7	Sololá	702	San José Chacayá	5	Chacayá	4	Abril	2023-04-17T00:00:00	2024-11-06T20:00:00	4	Temperatura máxima	15.5
90587	7	Sololá	702	San José Chacayá	5	Chacayá	4	Abril	2023-04-17T00:00:00	2024-11-06T20:00:00	3	Temperatura mínima	13.9
90588	7	Sololá	702	San José Chacayá	5	Chacayá	4	Abril	2023-04-17T00:00:00	2024-11-06T20:00:00	5	Humedad	84
90589	7	Sololá	702	San José Chacayá	5	Chacayá	4	Abril	2023-04-17T00:00:00	2024-11-06T20:00:00	6	Velocidad del viento	0
90590	7	Sololá	702	San José Chacayá	5	Chacayá	4	Abril	2023-04-17T00:00:00	2024-11-06T20:00:00	7	Dirección del viento	0
90591	7	Sololá	702	San José Chacayá	5	Chacayá	4	Abril	2023-04-17T00:00:00	2024-11-06T20:00:00	1	Precipitación	0
90592	7	Sololá	702	San José Chacayá	5	Chacayá	4	Abril	2023-04-17T00:00:00	2024-11-06T20:00:00	8	Radiación solar	0
90593	7	Sololá	702	San José Chacayá	5	Chacayá	4	Abril	2023-04-17T00:00:00	2024-11-06T21:00:00	2	Temperatura media	13.8
90594	7	Sololá	702	San José Chacayá	5	Chacayá	4	Abril	2023-04-17T00:00:00	2024-11-06T21:00:00	4	Temperatura máxima	14.2
90595	7	Sololá	702	San José Chacayá	5	Chacayá	4	Abril	2023-04-17T00:00:00	2024-11-06T21:00:00	3	Temperatura mínima	13.7
90596	7	Sololá	702	San José Chacayá	5	Chacayá	4	Abril	2023-04-17T00:00:00	2024-11-06T21:00:00	5	Humedad	82
90597	7	Sololá	702	San José Chacayá	5	Chacayá	4	Abril	2023-04-17T00:00:00	2024-11-06T21:00:00	6	Velocidad del viento	1.6
90598	7	Sololá	702	San José Chacayá	5	Chacayá	4	Abril	2023-04-17T00:00:00	2024-11-06T21:00:00	7	Dirección del viento	1.61
90599	7	Sololá	702	San José Chacayá	5	Chacayá	4	Abril	2023-04-17T00:00:00	2024-11-06T21:00:00	1	Precipitación	0
90600	7	Sololá	702	San José Chacayá	5	Chacayá	4	Abril	2023-04-17T00:00:00	2024-11-06T21:00:00	8	Radiación solar	0
90601	7	Sololá	702	San José Chacayá	5	Chacayá	4	Abril	2023-04-17T00:00:00	2024-11-06T22:00:00	2	Temperatura media	12.9
90602	7	Sololá	702	San José Chacayá	5	Chacayá	4	Abril	2023-04-17T00:00:00	2024-11-06T22:00:00	4	Temperatura máxima	14.2
90603	7	Sololá	702	San José Chacayá	5	Chacayá	4	Abril	2023-04-17T00:00:00	2024-11-06T22:00:00	3	Temperatura mínima	12.9
90604	7	Sololá	702	San José Chacayá	5	Chacayá	4	Abril	2023-04-17T00:00:00	2024-11-06T22:00:00	5	Humedad	82
90605	7	Sololá	702	San José Chacayá	5	Chacayá	4	Abril	2023-04-17T00:00:00	2024-11-06T22:00:00	6	Velocidad del viento	1.6
90606	7	Sololá	702	San José Chacayá	5	Chacayá	4	Abril	2023-04-17T00:00:00	2024-11-06T22:00:00	7	Dirección del viento	1.61
90607	7	Sololá	702	San José Chacayá	5	Chacayá	4	Abril	2023-04-17T00:00:00	2024-11-06T22:00:00	1	Precipitación	0
90608	7	Sololá	702	San José Chacayá	5	Chacayá	4	Abril	2023-04-17T00:00:00	2024-11-06T22:00:00	8	Radiación solar	0
90609	7	Sololá	702	San José Chacayá	5	Chacayá	4	Abril	2023-04-17T00:00:00	2024-11-06T23:00:00	2	Temperatura media	13.5
90610	7	Sololá	702	San José Chacayá	5	Chacayá	4	Abril	2023-04-17T00:00:00	2024-11-06T23:00:00	4	Temperatura máxima	13.6
90611	7	Sololá	702	San José Chacayá	5	Chacayá	4	Abril	2023-04-17T00:00:00	2024-11-06T23:00:00	3	Temperatura mínima	12.7
90612	7	Sololá	702	San José Chacayá	5	Chacayá	4	Abril	2023-04-17T00:00:00	2024-11-06T23:00:00	5	Humedad	81
90613	7	Sololá	702	San José Chacayá	5	Chacayá	4	Abril	2023-04-17T00:00:00	2024-11-06T23:00:00	6	Velocidad del viento	3.2
90614	7	Sololá	702	San José Chacayá	5	Chacayá	4	Abril	2023-04-17T00:00:00	2024-11-06T23:00:00	7	Dirección del viento	3.22
90615	7	Sololá	702	San José Chacayá	5	Chacayá	4	Abril	2023-04-17T00:00:00	2024-11-06T23:00:00	1	Precipitación	0
90616	7	Sololá	702	San José Chacayá	5	Chacayá	4	Abril	2023-04-17T00:00:00	2024-11-06T23:00:00	8	Radiación solar	0
90617	7	Sololá	702	San José Chacayá	5	Chacayá	4	Abril	2023-04-18T00:00:00	2024-11-06T00:00:00	2	Temperatura media	12.4
90618	7	Sololá	702	San José Chacayá	5	Chacayá	4	Abril	2023-04-18T00:00:00	2024-11-06T00:00:00	4	Temperatura máxima	14.1
90619	7	Sololá	702	San José Chacayá	5	Chacayá	4	Abril	2023-04-18T00:00:00	2024-11-06T00:00:00	3	Temperatura mínima	12.4
90620	7	Sololá	702	San José Chacayá	5	Chacayá	4	Abril	2023-04-18T00:00:00	2024-11-06T00:00:00	5	Humedad	83
90621	7	Sololá	702	San José Chacayá	5	Chacayá	4	Abril	2023-04-18T00:00:00	2024-11-06T00:00:00	6	Velocidad del viento	4.8
90622	7	Sololá	702	San José Chacayá	5	Chacayá	4	Abril	2023-04-18T00:00:00	2024-11-06T00:00:00	7	Dirección del viento	4.83
90623	7	Sololá	702	San José Chacayá	5	Chacayá	4	Abril	2023-04-18T00:00:00	2024-11-06T00:00:00	1	Precipitación	0
90624	7	Sololá	702	San José Chacayá	5	Chacayá	4	Abril	2023-04-18T00:00:00	2024-11-06T00:00:00	8	Radiación solar	0
90625	7	Sololá	702	San José Chacayá	5	Chacayá	4	Abril	2023-04-18T00:00:00	2024-11-06T01:00:00	2	Temperatura media	12.3
90626	7	Sololá	702	San José Chacayá	5	Chacayá	4	Abril	2023-04-18T00:00:00	2024-11-06T01:00:00	4	Temperatura máxima	12.8
90627	7	Sololá	702	San José Chacayá	5	Chacayá	4	Abril	2023-04-18T00:00:00	2024-11-06T01:00:00	3	Temperatura mínima	12.2
90628	7	Sololá	702	San José Chacayá	5	Chacayá	4	Abril	2023-04-18T00:00:00	2024-11-06T01:00:00	5	Humedad	84
90629	7	Sololá	702	San José Chacayá	5	Chacayá	4	Abril	2023-04-18T00:00:00	2024-11-06T01:00:00	6	Velocidad del viento	0
90630	7	Sololá	702	San José Chacayá	5	Chacayá	4	Abril	2023-04-18T00:00:00	2024-11-06T01:00:00	7	Dirección del viento	0
90631	7	Sololá	702	San José Chacayá	5	Chacayá	4	Abril	2023-04-18T00:00:00	2024-11-06T01:00:00	1	Precipitación	0
90632	7	Sololá	702	San José Chacayá	5	Chacayá	4	Abril	2023-04-18T00:00:00	2024-11-06T01:00:00	8	Radiación solar	0
90633	7	Sololá	702	San José Chacayá	5	Chacayá	4	Abril	2023-04-18T00:00:00	2024-11-06T02:00:00	2	Temperatura media	13.6
90634	7	Sololá	702	San José Chacayá	5	Chacayá	4	Abril	2023-04-18T00:00:00	2024-11-06T02:00:00	4	Temperatura máxima	13.6
90635	7	Sololá	702	San José Chacayá	5	Chacayá	4	Abril	2023-04-18T00:00:00	2024-11-06T02:00:00	3	Temperatura mínima	12.3
90636	7	Sololá	702	San José Chacayá	5	Chacayá	4	Abril	2023-04-18T00:00:00	2024-11-06T02:00:00	5	Humedad	83
90637	7	Sololá	702	San José Chacayá	5	Chacayá	4	Abril	2023-04-18T00:00:00	2024-11-06T02:00:00	6	Velocidad del viento	1.6
90638	7	Sololá	702	San José Chacayá	5	Chacayá	4	Abril	2023-04-18T00:00:00	2024-11-06T02:00:00	7	Dirección del viento	1.61
90639	7	Sololá	702	San José Chacayá	5	Chacayá	4	Abril	2023-04-18T00:00:00	2024-11-06T02:00:00	1	Precipitación	0
90640	7	Sololá	702	San José Chacayá	5	Chacayá	4	Abril	2023-04-18T00:00:00	2024-11-06T02:00:00	8	Radiación solar	0
90641	7	Sololá	702	San José Chacayá	5	Chacayá	4	Abril	2023-04-18T00:00:00	2024-11-06T03:00:00	2	Temperatura media	13.4
90642	7	Sololá	702	San José Chacayá	5	Chacayá	4	Abril	2023-04-18T00:00:00	2024-11-06T03:00:00	4	Temperatura máxima	13.6
90643	7	Sololá	702	San José Chacayá	5	Chacayá	4	Abril	2023-04-18T00:00:00	2024-11-06T03:00:00	3	Temperatura mínima	13.4
90644	7	Sololá	702	San José Chacayá	5	Chacayá	4	Abril	2023-04-18T00:00:00	2024-11-06T03:00:00	5	Humedad	82
90645	7	Sololá	702	San José Chacayá	5	Chacayá	4	Abril	2023-04-18T00:00:00	2024-11-06T03:00:00	6	Velocidad del viento	3.2
90646	7	Sololá	702	San José Chacayá	5	Chacayá	4	Abril	2023-04-18T00:00:00	2024-11-06T03:00:00	7	Dirección del viento	3.22
90647	7	Sololá	702	San José Chacayá	5	Chacayá	4	Abril	2023-04-18T00:00:00	2024-11-06T03:00:00	1	Precipitación	0
90648	7	Sololá	702	San José Chacayá	5	Chacayá	4	Abril	2023-04-18T00:00:00	2024-11-06T03:00:00	8	Radiación solar	0
90649	7	Sololá	702	San José Chacayá	5	Chacayá	4	Abril	2023-04-18T00:00:00	2024-11-06T04:00:00	2	Temperatura media	11.7
90650	7	Sololá	702	San José Chacayá	5	Chacayá	4	Abril	2023-04-18T00:00:00	2024-11-06T04:00:00	4	Temperatura máxima	13.5
90651	7	Sololá	702	San José Chacayá	5	Chacayá	4	Abril	2023-04-18T00:00:00	2024-11-06T04:00:00	3	Temperatura mínima	11.7
90652	7	Sololá	702	San José Chacayá	5	Chacayá	4	Abril	2023-04-18T00:00:00	2024-11-06T04:00:00	5	Humedad	84
90653	7	Sololá	702	San José Chacayá	5	Chacayá	4	Abril	2023-04-18T00:00:00	2024-11-06T04:00:00	6	Velocidad del viento	1.6
90654	7	Sololá	702	San José Chacayá	5	Chacayá	4	Abril	2023-04-18T00:00:00	2024-11-06T04:00:00	7	Dirección del viento	1.61
90655	7	Sololá	702	San José Chacayá	5	Chacayá	4	Abril	2023-04-18T00:00:00	2024-11-06T04:00:00	1	Precipitación	0
90656	7	Sololá	702	San José Chacayá	5	Chacayá	4	Abril	2023-04-18T00:00:00	2024-11-06T04:00:00	8	Radiación solar	0
90657	7	Sololá	702	San José Chacayá	5	Chacayá	4	Abril	2023-04-18T00:00:00	2024-11-06T05:00:00	2	Temperatura media	10.3
90658	7	Sololá	702	San José Chacayá	5	Chacayá	4	Abril	2023-04-18T00:00:00	2024-11-06T05:00:00	4	Temperatura máxima	11.7
90659	7	Sololá	702	San José Chacayá	5	Chacayá	4	Abril	2023-04-18T00:00:00	2024-11-06T05:00:00	3	Temperatura mínima	10.3
90660	7	Sololá	702	San José Chacayá	5	Chacayá	4	Abril	2023-04-18T00:00:00	2024-11-06T05:00:00	5	Humedad	83
90661	7	Sololá	702	San José Chacayá	5	Chacayá	4	Abril	2023-04-18T00:00:00	2024-11-06T05:00:00	6	Velocidad del viento	1.6
90662	7	Sololá	702	San José Chacayá	5	Chacayá	4	Abril	2023-04-18T00:00:00	2024-11-06T05:00:00	7	Dirección del viento	1.61
90663	7	Sololá	702	San José Chacayá	5	Chacayá	4	Abril	2023-04-18T00:00:00	2024-11-06T05:00:00	1	Precipitación	0
90664	7	Sololá	702	San José Chacayá	5	Chacayá	4	Abril	2023-04-18T00:00:00	2024-11-06T05:00:00	8	Radiación solar	0
90665	7	Sololá	702	San José Chacayá	5	Chacayá	4	Abril	2023-04-18T00:00:00	2024-11-06T06:00:00	2	Temperatura media	9.8
90666	7	Sololá	702	San José Chacayá	5	Chacayá	4	Abril	2023-04-18T00:00:00	2024-11-06T06:00:00	4	Temperatura máxima	10.3
90667	7	Sololá	702	San José Chacayá	5	Chacayá	4	Abril	2023-04-18T00:00:00	2024-11-06T06:00:00	3	Temperatura mínima	9.8
90668	7	Sololá	702	San José Chacayá	5	Chacayá	4	Abril	2023-04-18T00:00:00	2024-11-06T06:00:00	5	Humedad	83
90669	7	Sololá	702	San José Chacayá	5	Chacayá	4	Abril	2023-04-18T00:00:00	2024-11-06T06:00:00	6	Velocidad del viento	3.2
90670	7	Sololá	702	San José Chacayá	5	Chacayá	4	Abril	2023-04-18T00:00:00	2024-11-06T06:00:00	7	Dirección del viento	3.22
90671	7	Sololá	702	San José Chacayá	5	Chacayá	4	Abril	2023-04-18T00:00:00	2024-11-06T06:00:00	1	Precipitación	0
90672	7	Sololá	702	San José Chacayá	5	Chacayá	4	Abril	2023-04-18T00:00:00	2024-11-06T06:00:00	8	Radiación solar	2
90673	7	Sololá	702	San José Chacayá	5	Chacayá	4	Abril	2023-04-18T00:00:00	2024-11-06T07:00:00	2	Temperatura media	9.3
90674	7	Sololá	702	San José Chacayá	5	Chacayá	4	Abril	2023-04-18T00:00:00	2024-11-06T07:00:00	4	Temperatura máxima	9.9
90675	7	Sololá	702	San José Chacayá	5	Chacayá	4	Abril	2023-04-18T00:00:00	2024-11-06T07:00:00	3	Temperatura mínima	9.3
90676	7	Sololá	702	San José Chacayá	5	Chacayá	4	Abril	2023-04-18T00:00:00	2024-11-06T07:00:00	5	Humedad	83
90677	7	Sololá	702	San José Chacayá	5	Chacayá	4	Abril	2023-04-18T00:00:00	2024-11-06T07:00:00	6	Velocidad del viento	1.6
90678	7	Sololá	702	San José Chacayá	5	Chacayá	4	Abril	2023-04-18T00:00:00	2024-11-06T07:00:00	7	Dirección del viento	1.61
90679	7	Sololá	702	San José Chacayá	5	Chacayá	4	Abril	2023-04-18T00:00:00	2024-11-06T07:00:00	1	Precipitación	0
90680	7	Sololá	702	San José Chacayá	5	Chacayá	4	Abril	2023-04-18T00:00:00	2024-11-06T07:00:00	8	Radiación solar	20
90681	7	Sololá	702	San José Chacayá	5	Chacayá	4	Abril	2023-04-18T00:00:00	2024-11-06T08:00:00	2	Temperatura media	11.6
90682	7	Sololá	702	San José Chacayá	5	Chacayá	4	Abril	2023-04-18T00:00:00	2024-11-06T08:00:00	4	Temperatura máxima	11.6
90683	7	Sololá	702	San José Chacayá	5	Chacayá	4	Abril	2023-04-18T00:00:00	2024-11-06T08:00:00	3	Temperatura mínima	9.3
90684	7	Sololá	702	San José Chacayá	5	Chacayá	4	Abril	2023-04-18T00:00:00	2024-11-06T08:00:00	5	Humedad	84
90685	7	Sololá	702	San José Chacayá	5	Chacayá	4	Abril	2023-04-18T00:00:00	2024-11-06T08:00:00	6	Velocidad del viento	3.2
90686	7	Sololá	702	San José Chacayá	5	Chacayá	4	Abril	2023-04-18T00:00:00	2024-11-06T08:00:00	7	Dirección del viento	3.22
90687	7	Sololá	702	San José Chacayá	5	Chacayá	4	Abril	2023-04-18T00:00:00	2024-11-06T08:00:00	1	Precipitación	0
90688	7	Sololá	702	San José Chacayá	5	Chacayá	4	Abril	2023-04-18T00:00:00	2024-11-06T08:00:00	8	Radiación solar	48
90689	7	Sololá	702	San José Chacayá	5	Chacayá	4	Abril	2023-04-18T00:00:00	2024-11-06T09:00:00	2	Temperatura media	15.8
90690	7	Sololá	702	San José Chacayá	5	Chacayá	4	Abril	2023-04-18T00:00:00	2024-11-06T09:00:00	4	Temperatura máxima	15.8
90691	7	Sololá	702	San José Chacayá	5	Chacayá	4	Abril	2023-04-18T00:00:00	2024-11-06T09:00:00	3	Temperatura mínima	11.6
90692	7	Sololá	702	San José Chacayá	5	Chacayá	4	Abril	2023-04-18T00:00:00	2024-11-06T09:00:00	5	Humedad	73
90693	7	Sololá	702	San José Chacayá	5	Chacayá	4	Abril	2023-04-18T00:00:00	2024-11-06T09:00:00	6	Velocidad del viento	1.6
90694	7	Sololá	702	San José Chacayá	5	Chacayá	4	Abril	2023-04-18T00:00:00	2024-11-06T09:00:00	7	Dirección del viento	1.61
90695	7	Sololá	702	San José Chacayá	5	Chacayá	4	Abril	2023-04-18T00:00:00	2024-11-06T09:00:00	1	Precipitación	0
90696	7	Sololá	702	San José Chacayá	5	Chacayá	4	Abril	2023-04-18T00:00:00	2024-11-06T09:00:00	8	Radiación solar	420
90697	7	Sololá	702	San José Chacayá	5	Chacayá	4	Abril	2023-04-18T00:00:00	2024-11-06T10:00:00	2	Temperatura media	18.9
90698	7	Sololá	702	San José Chacayá	5	Chacayá	4	Abril	2023-04-18T00:00:00	2024-11-06T10:00:00	4	Temperatura máxima	18.9
90699	7	Sololá	702	San José Chacayá	5	Chacayá	4	Abril	2023-04-18T00:00:00	2024-11-06T10:00:00	3	Temperatura mínima	15.8
90700	7	Sololá	702	San José Chacayá	5	Chacayá	4	Abril	2023-04-18T00:00:00	2024-11-06T10:00:00	5	Humedad	62
90701	7	Sololá	702	San José Chacayá	5	Chacayá	4	Abril	2023-04-18T00:00:00	2024-11-06T10:00:00	6	Velocidad del viento	3.2
90702	7	Sololá	702	San José Chacayá	5	Chacayá	4	Abril	2023-04-18T00:00:00	2024-11-06T10:00:00	7	Dirección del viento	3.22
90703	7	Sololá	702	San José Chacayá	5	Chacayá	4	Abril	2023-04-18T00:00:00	2024-11-06T10:00:00	1	Precipitación	0
90704	7	Sololá	702	San José Chacayá	5	Chacayá	4	Abril	2023-04-18T00:00:00	2024-11-06T10:00:00	8	Radiación solar	776
90705	7	Sololá	702	San José Chacayá	5	Chacayá	4	Abril	2023-04-18T00:00:00	2024-11-06T11:00:00	2	Temperatura media	19.6
90706	7	Sololá	702	San José Chacayá	5	Chacayá	4	Abril	2023-04-18T00:00:00	2024-11-06T11:00:00	4	Temperatura máxima	20.1
90707	7	Sololá	702	San José Chacayá	5	Chacayá	4	Abril	2023-04-18T00:00:00	2024-11-06T11:00:00	3	Temperatura mínima	18.9
90708	7	Sololá	702	San José Chacayá	5	Chacayá	4	Abril	2023-04-18T00:00:00	2024-11-06T11:00:00	5	Humedad	58
90709	7	Sololá	702	San José Chacayá	5	Chacayá	4	Abril	2023-04-18T00:00:00	2024-11-06T11:00:00	6	Velocidad del viento	4.8
90710	7	Sololá	702	San José Chacayá	5	Chacayá	4	Abril	2023-04-18T00:00:00	2024-11-06T11:00:00	7	Dirección del viento	4.83
90711	7	Sololá	702	San José Chacayá	5	Chacayá	4	Abril	2023-04-18T00:00:00	2024-11-06T11:00:00	1	Precipitación	0
90712	7	Sololá	702	San José Chacayá	5	Chacayá	4	Abril	2023-04-18T00:00:00	2024-11-06T11:00:00	8	Radiación solar	927
90713	7	Sololá	702	San José Chacayá	5	Chacayá	4	Abril	2023-04-18T00:00:00	2024-11-06T12:00:00	2	Temperatura media	20.3
90714	7	Sololá	702	San José Chacayá	5	Chacayá	4	Abril	2023-04-18T00:00:00	2024-11-06T12:00:00	4	Temperatura máxima	20.8
90715	7	Sololá	702	San José Chacayá	5	Chacayá	4	Abril	2023-04-18T00:00:00	2024-11-06T12:00:00	3	Temperatura mínima	19.6
90716	7	Sololá	702	San José Chacayá	5	Chacayá	4	Abril	2023-04-18T00:00:00	2024-11-06T12:00:00	5	Humedad	58
90717	7	Sololá	702	San José Chacayá	5	Chacayá	4	Abril	2023-04-18T00:00:00	2024-11-06T12:00:00	6	Velocidad del viento	6.4
90718	7	Sololá	702	San José Chacayá	5	Chacayá	4	Abril	2023-04-18T00:00:00	2024-11-06T12:00:00	7	Dirección del viento	6.44
90719	7	Sololá	702	San José Chacayá	5	Chacayá	4	Abril	2023-04-18T00:00:00	2024-11-06T12:00:00	1	Precipitación	0
90720	7	Sololá	702	San José Chacayá	5	Chacayá	4	Abril	2023-04-18T00:00:00	2024-11-06T12:00:00	8	Radiación solar	1034
90721	7	Sololá	702	San José Chacayá	5	Chacayá	4	Abril	2023-04-18T00:00:00	2024-11-06T13:00:00	2	Temperatura media	20.1
90722	7	Sololá	702	San José Chacayá	5	Chacayá	4	Abril	2023-04-18T00:00:00	2024-11-06T13:00:00	4	Temperatura máxima	20.3
90723	7	Sololá	702	San José Chacayá	5	Chacayá	4	Abril	2023-04-18T00:00:00	2024-11-06T13:00:00	3	Temperatura mínima	19.8
90724	7	Sololá	702	San José Chacayá	5	Chacayá	4	Abril	2023-04-18T00:00:00	2024-11-06T13:00:00	5	Humedad	68
90725	7	Sololá	702	San José Chacayá	5	Chacayá	4	Abril	2023-04-18T00:00:00	2024-11-06T13:00:00	6	Velocidad del viento	8
90726	7	Sololá	702	San José Chacayá	5	Chacayá	4	Abril	2023-04-18T00:00:00	2024-11-06T13:00:00	7	Dirección del viento	8.05
90727	7	Sololá	702	San José Chacayá	5	Chacayá	4	Abril	2023-04-18T00:00:00	2024-11-06T13:00:00	1	Precipitación	0
90728	7	Sololá	702	San José Chacayá	5	Chacayá	4	Abril	2023-04-18T00:00:00	2024-11-06T13:00:00	8	Radiación solar	863
90729	7	Sololá	702	San José Chacayá	5	Chacayá	4	Abril	2023-04-18T00:00:00	2024-11-06T14:00:00	2	Temperatura media	19.9
90730	7	Sololá	702	San José Chacayá	5	Chacayá	4	Abril	2023-04-18T00:00:00	2024-11-06T14:00:00	4	Temperatura máxima	20.3
90731	7	Sololá	702	San José Chacayá	5	Chacayá	4	Abril	2023-04-18T00:00:00	2024-11-06T14:00:00	3	Temperatura mínima	18.9
90732	7	Sololá	702	San José Chacayá	5	Chacayá	4	Abril	2023-04-18T00:00:00	2024-11-06T14:00:00	5	Humedad	69
90733	7	Sololá	702	San José Chacayá	5	Chacayá	4	Abril	2023-04-18T00:00:00	2024-11-06T14:00:00	6	Velocidad del viento	8
90734	7	Sololá	702	San José Chacayá	5	Chacayá	4	Abril	2023-04-18T00:00:00	2024-11-06T14:00:00	7	Dirección del viento	8.05
90735	7	Sololá	702	San José Chacayá	5	Chacayá	4	Abril	2023-04-18T00:00:00	2024-11-06T14:00:00	1	Precipitación	0
90736	7	Sololá	702	San José Chacayá	5	Chacayá	4	Abril	2023-04-18T00:00:00	2024-11-06T14:00:00	8	Radiación solar	505
90737	7	Sololá	702	San José Chacayá	5	Chacayá	4	Abril	2023-04-18T00:00:00	2024-11-06T15:00:00	2	Temperatura media	18.9
90738	7	Sololá	702	San José Chacayá	5	Chacayá	4	Abril	2023-04-18T00:00:00	2024-11-06T15:00:00	4	Temperatura máxima	19.9
90739	7	Sololá	702	San José Chacayá	5	Chacayá	4	Abril	2023-04-18T00:00:00	2024-11-06T15:00:00	3	Temperatura mínima	18.5
90740	7	Sololá	702	San José Chacayá	5	Chacayá	4	Abril	2023-04-18T00:00:00	2024-11-06T15:00:00	5	Humedad	73
90741	7	Sololá	702	San José Chacayá	5	Chacayá	4	Abril	2023-04-18T00:00:00	2024-11-06T15:00:00	6	Velocidad del viento	8
90742	7	Sololá	702	San José Chacayá	5	Chacayá	4	Abril	2023-04-18T00:00:00	2024-11-06T15:00:00	7	Dirección del viento	8.05
90743	7	Sololá	702	San José Chacayá	5	Chacayá	4	Abril	2023-04-18T00:00:00	2024-11-06T15:00:00	1	Precipitación	0
90744	7	Sololá	702	San José Chacayá	5	Chacayá	4	Abril	2023-04-18T00:00:00	2024-11-06T15:00:00	8	Radiación solar	270
90745	7	Sololá	702	San José Chacayá	5	Chacayá	4	Abril	2023-04-18T00:00:00	2024-11-06T16:00:00	2	Temperatura media	17.9
90746	7	Sololá	702	San José Chacayá	5	Chacayá	4	Abril	2023-04-18T00:00:00	2024-11-06T16:00:00	4	Temperatura máxima	18.9
90747	7	Sololá	702	San José Chacayá	5	Chacayá	4	Abril	2023-04-18T00:00:00	2024-11-06T16:00:00	3	Temperatura mínima	17.8
90748	7	Sololá	702	San José Chacayá	5	Chacayá	4	Abril	2023-04-18T00:00:00	2024-11-06T16:00:00	5	Humedad	78
90749	7	Sololá	702	San José Chacayá	5	Chacayá	4	Abril	2023-04-18T00:00:00	2024-11-06T16:00:00	6	Velocidad del viento	4.8
90750	7	Sololá	702	San José Chacayá	5	Chacayá	4	Abril	2023-04-18T00:00:00	2024-11-06T16:00:00	7	Dirección del viento	4.83
90751	7	Sololá	702	San José Chacayá	5	Chacayá	4	Abril	2023-04-18T00:00:00	2024-11-06T16:00:00	1	Precipitación	0
90752	7	Sololá	702	San José Chacayá	5	Chacayá	4	Abril	2023-04-18T00:00:00	2024-11-06T16:00:00	8	Radiación solar	308
90753	7	Sololá	702	San José Chacayá	5	Chacayá	4	Abril	2023-04-18T00:00:00	2024-11-06T17:00:00	2	Temperatura media	17.4
90754	7	Sololá	702	San José Chacayá	5	Chacayá	4	Abril	2023-04-18T00:00:00	2024-11-06T17:00:00	4	Temperatura máxima	18.7
90755	7	Sololá	702	San José Chacayá	5	Chacayá	4	Abril	2023-04-18T00:00:00	2024-11-06T17:00:00	3	Temperatura mínima	17.3
90756	7	Sololá	702	San José Chacayá	5	Chacayá	4	Abril	2023-04-18T00:00:00	2024-11-06T17:00:00	5	Humedad	80
90757	7	Sololá	702	San José Chacayá	5	Chacayá	4	Abril	2023-04-18T00:00:00	2024-11-06T17:00:00	6	Velocidad del viento	4.8
90758	7	Sololá	702	San José Chacayá	5	Chacayá	4	Abril	2023-04-18T00:00:00	2024-11-06T17:00:00	7	Dirección del viento	4.83
90759	7	Sololá	702	San José Chacayá	5	Chacayá	4	Abril	2023-04-18T00:00:00	2024-11-06T17:00:00	1	Precipitación	0
90760	7	Sololá	702	San José Chacayá	5	Chacayá	4	Abril	2023-04-18T00:00:00	2024-11-06T17:00:00	8	Radiación solar	63
90761	7	Sololá	702	San José Chacayá	5	Chacayá	4	Abril	2023-04-18T00:00:00	2024-11-06T18:00:00	2	Temperatura media	16.2
90762	7	Sololá	702	San José Chacayá	5	Chacayá	4	Abril	2023-04-18T00:00:00	2024-11-06T18:00:00	4	Temperatura máxima	17.6
90763	7	Sololá	702	San José Chacayá	5	Chacayá	4	Abril	2023-04-18T00:00:00	2024-11-06T18:00:00	3	Temperatura mínima	16.2
90764	7	Sololá	702	San José Chacayá	5	Chacayá	4	Abril	2023-04-18T00:00:00	2024-11-06T18:00:00	5	Humedad	83
90765	7	Sololá	702	San José Chacayá	5	Chacayá	4	Abril	2023-04-18T00:00:00	2024-11-06T18:00:00	6	Velocidad del viento	3.2
90766	7	Sololá	702	San José Chacayá	5	Chacayá	4	Abril	2023-04-18T00:00:00	2024-11-06T18:00:00	7	Dirección del viento	3.22
90767	7	Sololá	702	San José Chacayá	5	Chacayá	4	Abril	2023-04-18T00:00:00	2024-11-06T18:00:00	1	Precipitación	0
90768	7	Sololá	702	San José Chacayá	5	Chacayá	4	Abril	2023-04-18T00:00:00	2024-11-06T18:00:00	8	Radiación solar	28
90769	7	Sololá	702	San José Chacayá	5	Chacayá	4	Abril	2023-04-18T00:00:00	2024-11-06T19:00:00	2	Temperatura media	15.7
90770	7	Sololá	702	San José Chacayá	5	Chacayá	4	Abril	2023-04-18T00:00:00	2024-11-06T19:00:00	4	Temperatura máxima	16.2
90771	7	Sololá	702	San José Chacayá	5	Chacayá	4	Abril	2023-04-18T00:00:00	2024-11-06T19:00:00	3	Temperatura mínima	15.7
90772	7	Sololá	702	San José Chacayá	5	Chacayá	4	Abril	2023-04-18T00:00:00	2024-11-06T19:00:00	5	Humedad	82
90773	7	Sololá	702	San José Chacayá	5	Chacayá	4	Abril	2023-04-18T00:00:00	2024-11-06T19:00:00	6	Velocidad del viento	0
90774	7	Sololá	702	San José Chacayá	5	Chacayá	4	Abril	2023-04-18T00:00:00	2024-11-06T19:00:00	7	Dirección del viento	0
90775	7	Sololá	702	San José Chacayá	5	Chacayá	4	Abril	2023-04-18T00:00:00	2024-11-06T19:00:00	1	Precipitación	0
90776	7	Sololá	702	San José Chacayá	5	Chacayá	4	Abril	2023-04-18T00:00:00	2024-11-06T19:00:00	8	Radiación solar	0
90777	7	Sololá	702	San José Chacayá	5	Chacayá	4	Abril	2023-04-18T00:00:00	2024-11-06T20:00:00	2	Temperatura media	15.1
90778	7	Sololá	702	San José Chacayá	5	Chacayá	4	Abril	2023-04-18T00:00:00	2024-11-06T20:00:00	4	Temperatura máxima	15.7
90779	7	Sololá	702	San José Chacayá	5	Chacayá	4	Abril	2023-04-18T00:00:00	2024-11-06T20:00:00	3	Temperatura mínima	15.1
90780	7	Sololá	702	San José Chacayá	5	Chacayá	4	Abril	2023-04-18T00:00:00	2024-11-06T20:00:00	5	Humedad	80
90781	7	Sololá	702	San José Chacayá	5	Chacayá	4	Abril	2023-04-18T00:00:00	2024-11-06T20:00:00	6	Velocidad del viento	0
90782	7	Sololá	702	San José Chacayá	5	Chacayá	4	Abril	2023-04-18T00:00:00	2024-11-06T20:00:00	7	Dirección del viento	0
90783	7	Sololá	702	San José Chacayá	5	Chacayá	4	Abril	2023-04-18T00:00:00	2024-11-06T20:00:00	1	Precipitación	0
90784	7	Sololá	702	San José Chacayá	5	Chacayá	4	Abril	2023-04-18T00:00:00	2024-11-06T20:00:00	8	Radiación solar	0
90785	7	Sololá	702	San José Chacayá	5	Chacayá	4	Abril	2023-04-18T00:00:00	2024-11-06T21:00:00	2	Temperatura media	15.5
90786	7	Sololá	702	San José Chacayá	5	Chacayá	4	Abril	2023-04-18T00:00:00	2024-11-06T21:00:00	4	Temperatura máxima	15.5
90787	7	Sololá	702	San José Chacayá	5	Chacayá	4	Abril	2023-04-18T00:00:00	2024-11-06T21:00:00	3	Temperatura mínima	14.9
90788	7	Sololá	702	San José Chacayá	5	Chacayá	4	Abril	2023-04-18T00:00:00	2024-11-06T21:00:00	5	Humedad	83
90789	7	Sololá	702	San José Chacayá	5	Chacayá	4	Abril	2023-04-18T00:00:00	2024-11-06T21:00:00	6	Velocidad del viento	1.6
90790	7	Sololá	702	San José Chacayá	5	Chacayá	4	Abril	2023-04-18T00:00:00	2024-11-06T21:00:00	7	Dirección del viento	1.61
90791	7	Sololá	702	San José Chacayá	5	Chacayá	4	Abril	2023-04-18T00:00:00	2024-11-06T21:00:00	1	Precipitación	0
90792	7	Sololá	702	San José Chacayá	5	Chacayá	4	Abril	2023-04-18T00:00:00	2024-11-06T21:00:00	8	Radiación solar	0
90793	7	Sololá	702	San José Chacayá	5	Chacayá	4	Abril	2023-04-18T00:00:00	2024-11-06T22:00:00	2	Temperatura media	14.2
90794	7	Sololá	702	San José Chacayá	5	Chacayá	4	Abril	2023-04-18T00:00:00	2024-11-06T22:00:00	4	Temperatura máxima	15.6
90795	7	Sololá	702	San José Chacayá	5	Chacayá	4	Abril	2023-04-18T00:00:00	2024-11-06T22:00:00	3	Temperatura mínima	14.2
90796	7	Sololá	702	San José Chacayá	5	Chacayá	4	Abril	2023-04-18T00:00:00	2024-11-06T22:00:00	5	Humedad	83
90797	7	Sololá	702	San José Chacayá	5	Chacayá	4	Abril	2023-04-18T00:00:00	2024-11-06T22:00:00	6	Velocidad del viento	0
90798	7	Sololá	702	San José Chacayá	5	Chacayá	4	Abril	2023-04-18T00:00:00	2024-11-06T22:00:00	7	Dirección del viento	0
90799	7	Sololá	702	San José Chacayá	5	Chacayá	4	Abril	2023-04-18T00:00:00	2024-11-06T22:00:00	1	Precipitación	0
90800	7	Sololá	702	San José Chacayá	5	Chacayá	4	Abril	2023-04-18T00:00:00	2024-11-06T22:00:00	8	Radiación solar	0
90801	7	Sololá	702	San José Chacayá	5	Chacayá	4	Abril	2023-04-18T00:00:00	2024-11-06T23:00:00	2	Temperatura media	12.7
90802	7	Sololá	702	San José Chacayá	5	Chacayá	4	Abril	2023-04-18T00:00:00	2024-11-06T23:00:00	4	Temperatura máxima	14.2
90803	7	Sololá	702	San José Chacayá	5	Chacayá	4	Abril	2023-04-18T00:00:00	2024-11-06T23:00:00	3	Temperatura mínima	12.7
90804	7	Sololá	702	San José Chacayá	5	Chacayá	4	Abril	2023-04-18T00:00:00	2024-11-06T23:00:00	5	Humedad	82
90805	7	Sololá	702	San José Chacayá	5	Chacayá	4	Abril	2023-04-18T00:00:00	2024-11-06T23:00:00	6	Velocidad del viento	0
90806	7	Sololá	702	San José Chacayá	5	Chacayá	4	Abril	2023-04-18T00:00:00	2024-11-06T23:00:00	7	Dirección del viento	0
90807	7	Sololá	702	San José Chacayá	5	Chacayá	4	Abril	2023-04-18T00:00:00	2024-11-06T23:00:00	1	Precipitación	0
90808	7	Sololá	702	San José Chacayá	5	Chacayá	4	Abril	2023-04-18T00:00:00	2024-11-06T23:00:00	8	Radiación solar	0
90809	7	Sololá	702	San José Chacayá	5	Chacayá	4	Abril	2023-04-19T00:00:00	2024-11-06T00:00:00	2	Temperatura media	12.6
90810	7	Sololá	702	San José Chacayá	5	Chacayá	4	Abril	2023-04-19T00:00:00	2024-11-06T00:00:00	4	Temperatura máxima	12.7
90811	7	Sololá	702	San José Chacayá	5	Chacayá	4	Abril	2023-04-19T00:00:00	2024-11-06T00:00:00	3	Temperatura mínima	11.9
90812	7	Sololá	702	San José Chacayá	5	Chacayá	4	Abril	2023-04-19T00:00:00	2024-11-06T00:00:00	5	Humedad	84
90813	7	Sololá	702	San José Chacayá	5	Chacayá	4	Abril	2023-04-19T00:00:00	2024-11-06T00:00:00	6	Velocidad del viento	0
90814	7	Sololá	702	San José Chacayá	5	Chacayá	4	Abril	2023-04-19T00:00:00	2024-11-06T00:00:00	7	Dirección del viento	0
90815	7	Sololá	702	San José Chacayá	5	Chacayá	4	Abril	2023-04-19T00:00:00	2024-11-06T00:00:00	1	Precipitación	0
90816	7	Sololá	702	San José Chacayá	5	Chacayá	4	Abril	2023-04-19T00:00:00	2024-11-06T00:00:00	8	Radiación solar	0
90817	7	Sololá	702	San José Chacayá	5	Chacayá	4	Abril	2023-04-19T00:00:00	2024-11-06T01:00:00	2	Temperatura media	13.5
90818	7	Sololá	702	San José Chacayá	5	Chacayá	4	Abril	2023-04-19T00:00:00	2024-11-06T01:00:00	4	Temperatura máxima	13.5
90819	7	Sololá	702	San José Chacayá	5	Chacayá	4	Abril	2023-04-19T00:00:00	2024-11-06T01:00:00	3	Temperatura mínima	12.6
90820	7	Sololá	702	San José Chacayá	5	Chacayá	4	Abril	2023-04-19T00:00:00	2024-11-06T01:00:00	5	Humedad	82
90821	7	Sololá	702	San José Chacayá	5	Chacayá	4	Abril	2023-04-19T00:00:00	2024-11-06T01:00:00	6	Velocidad del viento	1.6
90822	7	Sololá	702	San José Chacayá	5	Chacayá	4	Abril	2023-04-19T00:00:00	2024-11-06T01:00:00	7	Dirección del viento	1.61
90823	7	Sololá	702	San José Chacayá	5	Chacayá	4	Abril	2023-04-19T00:00:00	2024-11-06T01:00:00	1	Precipitación	0
90824	7	Sololá	702	San José Chacayá	5	Chacayá	4	Abril	2023-04-19T00:00:00	2024-11-06T01:00:00	8	Radiación solar	0
90825	7	Sololá	702	San José Chacayá	5	Chacayá	4	Abril	2023-04-19T00:00:00	2024-11-06T02:00:00	2	Temperatura media	10.7
90826	7	Sololá	702	San José Chacayá	5	Chacayá	4	Abril	2023-04-19T00:00:00	2024-11-06T02:00:00	4	Temperatura máxima	13.5
90827	7	Sololá	702	San José Chacayá	5	Chacayá	4	Abril	2023-04-19T00:00:00	2024-11-06T02:00:00	3	Temperatura mínima	10.7
90828	7	Sololá	702	San José Chacayá	5	Chacayá	4	Abril	2023-04-19T00:00:00	2024-11-06T02:00:00	5	Humedad	85
90829	7	Sololá	702	San José Chacayá	5	Chacayá	4	Abril	2023-04-19T00:00:00	2024-11-06T02:00:00	6	Velocidad del viento	1.6
90830	7	Sololá	702	San José Chacayá	5	Chacayá	4	Abril	2023-04-19T00:00:00	2024-11-06T02:00:00	7	Dirección del viento	1.61
90831	7	Sololá	702	San José Chacayá	5	Chacayá	4	Abril	2023-04-19T00:00:00	2024-11-06T02:00:00	1	Precipitación	0
90832	7	Sololá	702	San José Chacayá	5	Chacayá	4	Abril	2023-04-19T00:00:00	2024-11-06T02:00:00	8	Radiación solar	0
90833	7	Sololá	702	San José Chacayá	5	Chacayá	4	Abril	2023-04-19T00:00:00	2024-11-06T03:00:00	2	Temperatura media	9.7
90834	7	Sololá	702	San José Chacayá	5	Chacayá	4	Abril	2023-04-19T00:00:00	2024-11-06T03:00:00	4	Temperatura máxima	10.7
90835	7	Sololá	702	San José Chacayá	5	Chacayá	4	Abril	2023-04-19T00:00:00	2024-11-06T03:00:00	3	Temperatura mínima	9.6
90836	7	Sololá	702	San José Chacayá	5	Chacayá	4	Abril	2023-04-19T00:00:00	2024-11-06T03:00:00	5	Humedad	84
90837	7	Sololá	702	San José Chacayá	5	Chacayá	4	Abril	2023-04-19T00:00:00	2024-11-06T03:00:00	6	Velocidad del viento	3.2
90838	7	Sololá	702	San José Chacayá	5	Chacayá	4	Abril	2023-04-19T00:00:00	2024-11-06T03:00:00	7	Dirección del viento	3.22
90839	7	Sololá	702	San José Chacayá	5	Chacayá	4	Abril	2023-04-19T00:00:00	2024-11-06T03:00:00	1	Precipitación	0
90840	7	Sololá	702	San José Chacayá	5	Chacayá	4	Abril	2023-04-19T00:00:00	2024-11-06T03:00:00	8	Radiación solar	0
90841	7	Sololá	702	San José Chacayá	5	Chacayá	4	Abril	2023-04-19T00:00:00	2024-11-06T04:00:00	2	Temperatura media	9.6
90842	7	Sololá	702	San José Chacayá	5	Chacayá	4	Abril	2023-04-19T00:00:00	2024-11-06T04:00:00	4	Temperatura máxima	10
90843	7	Sololá	702	San José Chacayá	5	Chacayá	4	Abril	2023-04-19T00:00:00	2024-11-06T04:00:00	3	Temperatura mínima	9.6
90844	7	Sololá	702	San José Chacayá	5	Chacayá	4	Abril	2023-04-19T00:00:00	2024-11-06T04:00:00	5	Humedad	84
90845	7	Sololá	702	San José Chacayá	5	Chacayá	4	Abril	2023-04-19T00:00:00	2024-11-06T04:00:00	6	Velocidad del viento	3.2
90846	7	Sololá	702	San José Chacayá	5	Chacayá	4	Abril	2023-04-19T00:00:00	2024-11-06T04:00:00	7	Dirección del viento	3.22
90847	7	Sololá	702	San José Chacayá	5	Chacayá	4	Abril	2023-04-19T00:00:00	2024-11-06T04:00:00	1	Precipitación	0
90848	7	Sololá	702	San José Chacayá	5	Chacayá	4	Abril	2023-04-19T00:00:00	2024-11-06T04:00:00	8	Radiación solar	0
90849	7	Sololá	702	San José Chacayá	5	Chacayá	4	Abril	2023-04-19T00:00:00	2024-11-06T05:00:00	2	Temperatura media	8.8
90850	7	Sololá	702	San José Chacayá	5	Chacayá	4	Abril	2023-04-19T00:00:00	2024-11-06T05:00:00	4	Temperatura máxima	9.7
90851	7	Sololá	702	San José Chacayá	5	Chacayá	4	Abril	2023-04-19T00:00:00	2024-11-06T05:00:00	3	Temperatura mínima	8.8
90852	7	Sololá	702	San José Chacayá	5	Chacayá	4	Abril	2023-04-19T00:00:00	2024-11-06T05:00:00	5	Humedad	85
90853	7	Sololá	702	San José Chacayá	5	Chacayá	4	Abril	2023-04-19T00:00:00	2024-11-06T05:00:00	6	Velocidad del viento	1.6
90854	7	Sololá	702	San José Chacayá	5	Chacayá	4	Abril	2023-04-19T00:00:00	2024-11-06T05:00:00	7	Dirección del viento	1.61
90855	7	Sololá	702	San José Chacayá	5	Chacayá	4	Abril	2023-04-19T00:00:00	2024-11-06T05:00:00	1	Precipitación	0
90856	7	Sololá	702	San José Chacayá	5	Chacayá	4	Abril	2023-04-19T00:00:00	2024-11-06T05:00:00	8	Radiación solar	0
90857	7	Sololá	702	San José Chacayá	5	Chacayá	4	Abril	2023-04-19T00:00:00	2024-11-06T06:00:00	2	Temperatura media	8.1
90858	7	Sololá	702	San José Chacayá	5	Chacayá	4	Abril	2023-04-19T00:00:00	2024-11-06T06:00:00	4	Temperatura máxima	8.8
90859	7	Sololá	702	San José Chacayá	5	Chacayá	4	Abril	2023-04-19T00:00:00	2024-11-06T06:00:00	3	Temperatura mínima	8.1
90860	7	Sololá	702	San José Chacayá	5	Chacayá	4	Abril	2023-04-19T00:00:00	2024-11-06T06:00:00	5	Humedad	84
90861	7	Sololá	702	San José Chacayá	5	Chacayá	4	Abril	2023-04-19T00:00:00	2024-11-06T06:00:00	6	Velocidad del viento	4.8
90862	7	Sololá	702	San José Chacayá	5	Chacayá	4	Abril	2023-04-19T00:00:00	2024-11-06T06:00:00	7	Dirección del viento	4.83
90863	7	Sololá	702	San José Chacayá	5	Chacayá	4	Abril	2023-04-19T00:00:00	2024-11-06T06:00:00	1	Precipitación	0
90864	7	Sololá	702	San José Chacayá	5	Chacayá	4	Abril	2023-04-19T00:00:00	2024-11-06T06:00:00	8	Radiación solar	0
90865	7	Sololá	702	San José Chacayá	5	Chacayá	4	Abril	2023-04-19T00:00:00	2024-11-06T07:00:00	2	Temperatura media	7.4
90866	7	Sololá	702	San José Chacayá	5	Chacayá	4	Abril	2023-04-19T00:00:00	2024-11-06T07:00:00	4	Temperatura máxima	8.1
90867	7	Sololá	702	San José Chacayá	5	Chacayá	4	Abril	2023-04-19T00:00:00	2024-11-06T07:00:00	3	Temperatura mínima	7.4
90868	7	Sololá	702	San José Chacayá	5	Chacayá	4	Abril	2023-04-19T00:00:00	2024-11-06T07:00:00	5	Humedad	83
90869	7	Sololá	702	San José Chacayá	5	Chacayá	4	Abril	2023-04-19T00:00:00	2024-11-06T07:00:00	6	Velocidad del viento	4.8
90870	7	Sololá	702	San José Chacayá	5	Chacayá	4	Abril	2023-04-19T00:00:00	2024-11-06T07:00:00	7	Dirección del viento	4.83
90871	7	Sololá	702	San José Chacayá	5	Chacayá	4	Abril	2023-04-19T00:00:00	2024-11-06T07:00:00	1	Precipitación	0
90872	7	Sololá	702	San José Chacayá	5	Chacayá	4	Abril	2023-04-19T00:00:00	2024-11-06T07:00:00	8	Radiación solar	2
90873	7	Sololá	702	San José Chacayá	5	Chacayá	4	Abril	2023-04-19T00:00:00	2024-11-06T08:00:00	2	Temperatura media	9.6
90874	7	Sololá	702	San José Chacayá	5	Chacayá	4	Abril	2023-04-19T00:00:00	2024-11-06T08:00:00	4	Temperatura máxima	9.6
90875	7	Sololá	702	San José Chacayá	5	Chacayá	4	Abril	2023-04-19T00:00:00	2024-11-06T08:00:00	3	Temperatura mínima	7.3
90876	7	Sololá	702	San José Chacayá	5	Chacayá	4	Abril	2023-04-19T00:00:00	2024-11-06T08:00:00	5	Humedad	80
90877	7	Sololá	702	San José Chacayá	5	Chacayá	4	Abril	2023-04-19T00:00:00	2024-11-06T08:00:00	6	Velocidad del viento	4.8
90878	7	Sololá	702	San José Chacayá	5	Chacayá	4	Abril	2023-04-19T00:00:00	2024-11-06T08:00:00	7	Dirección del viento	4.83
90879	7	Sololá	702	San José Chacayá	5	Chacayá	4	Abril	2023-04-19T00:00:00	2024-11-06T08:00:00	1	Precipitación	0
90880	7	Sololá	702	San José Chacayá	5	Chacayá	4	Abril	2023-04-19T00:00:00	2024-11-06T08:00:00	8	Radiación solar	21
90881	7	Sololá	702	San José Chacayá	5	Chacayá	4	Abril	2023-04-19T00:00:00	2024-11-06T09:00:00	2	Temperatura media	15.3
90882	7	Sololá	702	San José Chacayá	5	Chacayá	4	Abril	2023-04-19T00:00:00	2024-11-06T09:00:00	4	Temperatura máxima	15.3
90883	7	Sololá	702	San José Chacayá	5	Chacayá	4	Abril	2023-04-19T00:00:00	2024-11-06T09:00:00	3	Temperatura mínima	9.7
90884	7	Sololá	702	San José Chacayá	5	Chacayá	4	Abril	2023-04-19T00:00:00	2024-11-06T09:00:00	5	Humedad	52
90885	7	Sololá	702	San José Chacayá	5	Chacayá	4	Abril	2023-04-19T00:00:00	2024-11-06T09:00:00	6	Velocidad del viento	1.6
90886	7	Sololá	702	San José Chacayá	5	Chacayá	4	Abril	2023-04-19T00:00:00	2024-11-06T09:00:00	7	Dirección del viento	1.61
90887	7	Sololá	702	San José Chacayá	5	Chacayá	4	Abril	2023-04-19T00:00:00	2024-11-06T09:00:00	1	Precipitación	0
90888	7	Sololá	702	San José Chacayá	5	Chacayá	4	Abril	2023-04-19T00:00:00	2024-11-06T09:00:00	8	Radiación solar	53
90889	7	Sololá	702	San José Chacayá	5	Chacayá	4	Abril	2023-04-19T00:00:00	2024-11-06T10:00:00	2	Temperatura media	19.9
90890	7	Sololá	702	San José Chacayá	5	Chacayá	4	Abril	2023-04-19T00:00:00	2024-11-06T10:00:00	4	Temperatura máxima	19.9
90891	7	Sololá	702	San José Chacayá	5	Chacayá	4	Abril	2023-04-19T00:00:00	2024-11-06T10:00:00	3	Temperatura mínima	15.4
90892	7	Sololá	702	San José Chacayá	5	Chacayá	4	Abril	2023-04-19T00:00:00	2024-11-06T10:00:00	5	Humedad	51
90893	7	Sololá	702	San José Chacayá	5	Chacayá	4	Abril	2023-04-19T00:00:00	2024-11-06T10:00:00	6	Velocidad del viento	3.2
90894	7	Sololá	702	San José Chacayá	5	Chacayá	4	Abril	2023-04-19T00:00:00	2024-11-06T10:00:00	7	Dirección del viento	3.22
90895	7	Sololá	702	San José Chacayá	5	Chacayá	4	Abril	2023-04-19T00:00:00	2024-11-06T10:00:00	1	Precipitación	0
90896	7	Sololá	702	San José Chacayá	5	Chacayá	4	Abril	2023-04-19T00:00:00	2024-11-06T10:00:00	8	Radiación solar	407
90897	7	Sololá	702	San José Chacayá	5	Chacayá	4	Abril	2023-04-19T00:00:00	2024-11-06T11:00:00	2	Temperatura media	21.3
90898	7	Sololá	702	San José Chacayá	5	Chacayá	4	Abril	2023-04-19T00:00:00	2024-11-06T11:00:00	4	Temperatura máxima	21.5
90899	7	Sololá	702	San José Chacayá	5	Chacayá	4	Abril	2023-04-19T00:00:00	2024-11-06T11:00:00	3	Temperatura mínima	19.9
90900	7	Sololá	702	San José Chacayá	5	Chacayá	4	Abril	2023-04-19T00:00:00	2024-11-06T11:00:00	5	Humedad	47
90901	7	Sololá	702	San José Chacayá	5	Chacayá	4	Abril	2023-04-19T00:00:00	2024-11-06T11:00:00	6	Velocidad del viento	4.8
90902	7	Sololá	702	San José Chacayá	5	Chacayá	4	Abril	2023-04-19T00:00:00	2024-11-06T11:00:00	7	Dirección del viento	4.83
90903	7	Sololá	702	San José Chacayá	5	Chacayá	4	Abril	2023-04-19T00:00:00	2024-11-06T11:00:00	1	Precipitación	0
90904	7	Sololá	702	San José Chacayá	5	Chacayá	4	Abril	2023-04-19T00:00:00	2024-11-06T11:00:00	8	Radiación solar	786
90905	7	Sololá	702	San José Chacayá	5	Chacayá	4	Abril	2023-04-19T00:00:00	2024-11-06T12:00:00	2	Temperatura media	22.6
90906	7	Sololá	702	San José Chacayá	5	Chacayá	4	Abril	2023-04-19T00:00:00	2024-11-06T12:00:00	4	Temperatura máxima	22.7
90907	7	Sololá	702	San José Chacayá	5	Chacayá	4	Abril	2023-04-19T00:00:00	2024-11-06T12:00:00	3	Temperatura mínima	21.3
90908	7	Sololá	702	San José Chacayá	5	Chacayá	4	Abril	2023-04-19T00:00:00	2024-11-06T12:00:00	5	Humedad	47
90909	7	Sololá	702	San José Chacayá	5	Chacayá	4	Abril	2023-04-19T00:00:00	2024-11-06T12:00:00	6	Velocidad del viento	6.4
90910	7	Sololá	702	San José Chacayá	5	Chacayá	4	Abril	2023-04-19T00:00:00	2024-11-06T12:00:00	7	Dirección del viento	6.44
90911	7	Sololá	702	San José Chacayá	5	Chacayá	4	Abril	2023-04-19T00:00:00	2024-11-06T12:00:00	1	Precipitación	0
90912	7	Sololá	702	San José Chacayá	5	Chacayá	4	Abril	2023-04-19T00:00:00	2024-11-06T12:00:00	8	Radiación solar	946
90913	7	Sololá	702	San José Chacayá	5	Chacayá	4	Abril	2023-04-19T00:00:00	2024-11-06T13:00:00	2	Temperatura media	21.9
90914	7	Sololá	702	San José Chacayá	5	Chacayá	4	Abril	2023-04-19T00:00:00	2024-11-06T13:00:00	4	Temperatura máxima	22.6
90915	7	Sololá	702	San José Chacayá	5	Chacayá	4	Abril	2023-04-19T00:00:00	2024-11-06T13:00:00	3	Temperatura mínima	21.7
90916	7	Sololá	702	San José Chacayá	5	Chacayá	4	Abril	2023-04-19T00:00:00	2024-11-06T13:00:00	5	Humedad	62
90917	7	Sololá	702	San José Chacayá	5	Chacayá	4	Abril	2023-04-19T00:00:00	2024-11-06T13:00:00	6	Velocidad del viento	8
90918	7	Sololá	702	San José Chacayá	5	Chacayá	4	Abril	2023-04-19T00:00:00	2024-11-06T13:00:00	7	Dirección del viento	8.05
90919	7	Sololá	702	San José Chacayá	5	Chacayá	4	Abril	2023-04-19T00:00:00	2024-11-06T13:00:00	1	Precipitación	0
90920	7	Sololá	702	San José Chacayá	5	Chacayá	4	Abril	2023-04-19T00:00:00	2024-11-06T13:00:00	8	Radiación solar	1009
90921	7	Sololá	702	San José Chacayá	5	Chacayá	4	Abril	2023-04-19T00:00:00	2024-11-06T14:00:00	2	Temperatura media	21.5
90922	7	Sololá	702	San José Chacayá	5	Chacayá	4	Abril	2023-04-19T00:00:00	2024-11-06T14:00:00	4	Temperatura máxima	22.2
90923	7	Sololá	702	San José Chacayá	5	Chacayá	4	Abril	2023-04-19T00:00:00	2024-11-06T14:00:00	3	Temperatura mínima	21.3
90924	7	Sololá	702	San José Chacayá	5	Chacayá	4	Abril	2023-04-19T00:00:00	2024-11-06T14:00:00	5	Humedad	66
90925	7	Sololá	702	San José Chacayá	5	Chacayá	4	Abril	2023-04-19T00:00:00	2024-11-06T14:00:00	6	Velocidad del viento	8
90926	7	Sololá	702	San José Chacayá	5	Chacayá	4	Abril	2023-04-19T00:00:00	2024-11-06T14:00:00	7	Dirección del viento	8.05
90927	7	Sololá	702	San José Chacayá	5	Chacayá	4	Abril	2023-04-19T00:00:00	2024-11-06T14:00:00	1	Precipitación	0
90928	7	Sololá	702	San José Chacayá	5	Chacayá	4	Abril	2023-04-19T00:00:00	2024-11-06T14:00:00	8	Radiación solar	1004
90929	7	Sololá	702	San José Chacayá	5	Chacayá	4	Abril	2023-04-19T00:00:00	2024-11-06T15:00:00	2	Temperatura media	20.6
90930	7	Sololá	702	San José Chacayá	5	Chacayá	4	Abril	2023-04-19T00:00:00	2024-11-06T15:00:00	4	Temperatura máxima	21.6
90931	7	Sololá	702	San José Chacayá	5	Chacayá	4	Abril	2023-04-19T00:00:00	2024-11-06T15:00:00	3	Temperatura mínima	20.2
90932	7	Sololá	702	San José Chacayá	5	Chacayá	4	Abril	2023-04-19T00:00:00	2024-11-06T15:00:00	5	Humedad	74
90933	7	Sololá	702	San José Chacayá	5	Chacayá	4	Abril	2023-04-19T00:00:00	2024-11-06T15:00:00	6	Velocidad del viento	6.4
90934	7	Sololá	702	San José Chacayá	5	Chacayá	4	Abril	2023-04-19T00:00:00	2024-11-06T15:00:00	7	Dirección del viento	6.44
90935	7	Sololá	702	San José Chacayá	5	Chacayá	4	Abril	2023-04-19T00:00:00	2024-11-06T15:00:00	1	Precipitación	0
90936	7	Sololá	702	San José Chacayá	5	Chacayá	4	Abril	2023-04-19T00:00:00	2024-11-06T15:00:00	8	Radiación solar	859
90937	7	Sololá	702	San José Chacayá	5	Chacayá	4	Abril	2023-04-19T00:00:00	2024-11-06T16:00:00	2	Temperatura media	19.4
90938	7	Sololá	702	San José Chacayá	5	Chacayá	4	Abril	2023-04-19T00:00:00	2024-11-06T16:00:00	4	Temperatura máxima	20.8
90939	7	Sololá	702	San José Chacayá	5	Chacayá	4	Abril	2023-04-19T00:00:00	2024-11-06T16:00:00	3	Temperatura mínima	18.8
90940	7	Sololá	702	San José Chacayá	5	Chacayá	4	Abril	2023-04-19T00:00:00	2024-11-06T16:00:00	5	Humedad	75
90941	7	Sololá	702	San José Chacayá	5	Chacayá	4	Abril	2023-04-19T00:00:00	2024-11-06T16:00:00	6	Velocidad del viento	6.4
90942	7	Sololá	702	San José Chacayá	5	Chacayá	4	Abril	2023-04-19T00:00:00	2024-11-06T16:00:00	7	Dirección del viento	6.44
90943	7	Sololá	702	San José Chacayá	5	Chacayá	4	Abril	2023-04-19T00:00:00	2024-11-06T16:00:00	1	Precipitación	0
90944	7	Sololá	702	San José Chacayá	5	Chacayá	4	Abril	2023-04-19T00:00:00	2024-11-06T16:00:00	8	Radiación solar	511
90945	7	Sololá	702	San José Chacayá	5	Chacayá	4	Abril	2023-04-19T00:00:00	2024-11-06T17:00:00	2	Temperatura media	19.1
90946	7	Sololá	702	San José Chacayá	5	Chacayá	4	Abril	2023-04-19T00:00:00	2024-11-06T17:00:00	4	Temperatura máxima	20
90947	7	Sololá	702	San José Chacayá	5	Chacayá	4	Abril	2023-04-19T00:00:00	2024-11-06T17:00:00	3	Temperatura mínima	19
90948	7	Sololá	702	San José Chacayá	5	Chacayá	4	Abril	2023-04-19T00:00:00	2024-11-06T17:00:00	5	Humedad	77
90949	7	Sololá	702	San José Chacayá	5	Chacayá	4	Abril	2023-04-19T00:00:00	2024-11-06T17:00:00	6	Velocidad del viento	6.4
90950	7	Sololá	702	San José Chacayá	5	Chacayá	4	Abril	2023-04-19T00:00:00	2024-11-06T17:00:00	7	Dirección del viento	6.44
90951	7	Sololá	702	San José Chacayá	5	Chacayá	4	Abril	2023-04-19T00:00:00	2024-11-06T17:00:00	1	Precipitación	0
90952	7	Sololá	702	San José Chacayá	5	Chacayá	4	Abril	2023-04-19T00:00:00	2024-11-06T17:00:00	8	Radiación solar	591
90953	7	Sololá	702	San José Chacayá	5	Chacayá	4	Abril	2023-04-19T00:00:00	2024-11-06T18:00:00	2	Temperatura media	17.8
90954	7	Sololá	702	San José Chacayá	5	Chacayá	4	Abril	2023-04-19T00:00:00	2024-11-06T18:00:00	4	Temperatura máxima	19.2
90955	7	Sololá	702	San José Chacayá	5	Chacayá	4	Abril	2023-04-19T00:00:00	2024-11-06T18:00:00	3	Temperatura mínima	17.7
90956	7	Sololá	702	San José Chacayá	5	Chacayá	4	Abril	2023-04-19T00:00:00	2024-11-06T18:00:00	5	Humedad	82
90957	7	Sololá	702	San José Chacayá	5	Chacayá	4	Abril	2023-04-19T00:00:00	2024-11-06T18:00:00	6	Velocidad del viento	4.8
90958	7	Sololá	702	San José Chacayá	5	Chacayá	4	Abril	2023-04-19T00:00:00	2024-11-06T18:00:00	7	Dirección del viento	4.83
90959	7	Sololá	702	San José Chacayá	5	Chacayá	4	Abril	2023-04-19T00:00:00	2024-11-06T18:00:00	1	Precipitación	0
90960	7	Sololá	702	San José Chacayá	5	Chacayá	4	Abril	2023-04-19T00:00:00	2024-11-06T18:00:00	8	Radiación solar	161
90961	7	Sololá	702	San José Chacayá	5	Chacayá	4	Abril	2023-04-19T00:00:00	2024-11-06T19:00:00	2	Temperatura media	17
90962	7	Sololá	702	San José Chacayá	5	Chacayá	4	Abril	2023-04-19T00:00:00	2024-11-06T19:00:00	4	Temperatura máxima	17.8
90963	7	Sololá	702	San José Chacayá	5	Chacayá	4	Abril	2023-04-19T00:00:00	2024-11-06T19:00:00	3	Temperatura mínima	17
90964	7	Sololá	702	San José Chacayá	5	Chacayá	4	Abril	2023-04-19T00:00:00	2024-11-06T19:00:00	5	Humedad	83
90965	7	Sololá	702	San José Chacayá	5	Chacayá	4	Abril	2023-04-19T00:00:00	2024-11-06T19:00:00	6	Velocidad del viento	0
90966	7	Sololá	702	San José Chacayá	5	Chacayá	4	Abril	2023-04-19T00:00:00	2024-11-06T19:00:00	7	Dirección del viento	0
90967	7	Sololá	702	San José Chacayá	5	Chacayá	4	Abril	2023-04-19T00:00:00	2024-11-06T19:00:00	1	Precipitación	0
90968	7	Sololá	702	San José Chacayá	5	Chacayá	4	Abril	2023-04-19T00:00:00	2024-11-06T19:00:00	8	Radiación solar	0
90969	7	Sololá	702	San José Chacayá	5	Chacayá	4	Abril	2023-04-19T00:00:00	2024-11-06T20:00:00	2	Temperatura media	16.3
90970	7	Sololá	702	San José Chacayá	5	Chacayá	4	Abril	2023-04-19T00:00:00	2024-11-06T20:00:00	4	Temperatura máxima	17.1
90971	7	Sololá	702	San José Chacayá	5	Chacayá	4	Abril	2023-04-19T00:00:00	2024-11-06T20:00:00	3	Temperatura mínima	16.3
90972	7	Sololá	702	San José Chacayá	5	Chacayá	4	Abril	2023-04-19T00:00:00	2024-11-06T20:00:00	5	Humedad	81
90973	7	Sololá	702	San José Chacayá	5	Chacayá	4	Abril	2023-04-19T00:00:00	2024-11-06T20:00:00	6	Velocidad del viento	1.6
90974	7	Sololá	702	San José Chacayá	5	Chacayá	4	Abril	2023-04-19T00:00:00	2024-11-06T20:00:00	7	Dirección del viento	1.61
90975	7	Sololá	702	San José Chacayá	5	Chacayá	4	Abril	2023-04-19T00:00:00	2024-11-06T20:00:00	1	Precipitación	0
90976	7	Sololá	702	San José Chacayá	5	Chacayá	4	Abril	2023-04-19T00:00:00	2024-11-06T20:00:00	8	Radiación solar	0
90977	7	Sololá	702	San José Chacayá	5	Chacayá	4	Abril	2023-04-19T00:00:00	2024-11-06T21:00:00	2	Temperatura media	15.7
90978	7	Sololá	702	San José Chacayá	5	Chacayá	4	Abril	2023-04-19T00:00:00	2024-11-06T21:00:00	4	Temperatura máxima	16.3
90979	7	Sololá	702	San José Chacayá	5	Chacayá	4	Abril	2023-04-19T00:00:00	2024-11-06T21:00:00	3	Temperatura mínima	15.7
90980	7	Sololá	702	San José Chacayá	5	Chacayá	4	Abril	2023-04-19T00:00:00	2024-11-06T21:00:00	5	Humedad	79
90981	7	Sololá	702	San José Chacayá	5	Chacayá	4	Abril	2023-04-19T00:00:00	2024-11-06T21:00:00	6	Velocidad del viento	0
90982	7	Sololá	702	San José Chacayá	5	Chacayá	4	Abril	2023-04-19T00:00:00	2024-11-06T21:00:00	7	Dirección del viento	0
90983	7	Sololá	702	San José Chacayá	5	Chacayá	4	Abril	2023-04-19T00:00:00	2024-11-06T21:00:00	1	Precipitación	0
90984	7	Sololá	702	San José Chacayá	5	Chacayá	4	Abril	2023-04-19T00:00:00	2024-11-06T21:00:00	8	Radiación solar	0
90985	7	Sololá	702	San José Chacayá	5	Chacayá	4	Abril	2023-04-19T00:00:00	2024-11-06T22:00:00	2	Temperatura media	15.3
90986	7	Sololá	702	San José Chacayá	5	Chacayá	4	Abril	2023-04-19T00:00:00	2024-11-06T22:00:00	4	Temperatura máxima	15.7
90987	7	Sololá	702	San José Chacayá	5	Chacayá	4	Abril	2023-04-19T00:00:00	2024-11-06T22:00:00	3	Temperatura mínima	15.3
90988	7	Sololá	702	San José Chacayá	5	Chacayá	4	Abril	2023-04-19T00:00:00	2024-11-06T22:00:00	5	Humedad	78
90989	7	Sololá	702	San José Chacayá	5	Chacayá	4	Abril	2023-04-19T00:00:00	2024-11-06T22:00:00	6	Velocidad del viento	0
90990	7	Sololá	702	San José Chacayá	5	Chacayá	4	Abril	2023-04-19T00:00:00	2024-11-06T22:00:00	7	Dirección del viento	0
90991	7	Sololá	702	San José Chacayá	5	Chacayá	4	Abril	2023-04-19T00:00:00	2024-11-06T22:00:00	1	Precipitación	0
90992	7	Sololá	702	San José Chacayá	5	Chacayá	4	Abril	2023-04-19T00:00:00	2024-11-06T22:00:00	8	Radiación solar	0
90993	7	Sololá	702	San José Chacayá	5	Chacayá	4	Abril	2023-04-19T00:00:00	2024-11-06T23:00:00	2	Temperatura media	14.1
90994	7	Sololá	702	San José Chacayá	5	Chacayá	4	Abril	2023-04-19T00:00:00	2024-11-06T23:00:00	4	Temperatura máxima	15.3
90995	7	Sololá	702	San José Chacayá	5	Chacayá	4	Abril	2023-04-19T00:00:00	2024-11-06T23:00:00	3	Temperatura mínima	14.1
90996	7	Sololá	702	San José Chacayá	5	Chacayá	4	Abril	2023-04-19T00:00:00	2024-11-06T23:00:00	5	Humedad	83
90997	7	Sololá	702	San José Chacayá	5	Chacayá	4	Abril	2023-04-19T00:00:00	2024-11-06T23:00:00	6	Velocidad del viento	0
90998	7	Sololá	702	San José Chacayá	5	Chacayá	4	Abril	2023-04-19T00:00:00	2024-11-06T23:00:00	7	Dirección del viento	0
90999	7	Sololá	702	San José Chacayá	5	Chacayá	4	Abril	2023-04-19T00:00:00	2024-11-06T23:00:00	1	Precipitación	0
91000	7	Sololá	702	San José Chacayá	5	Chacayá	4	Abril	2023-04-19T00:00:00	2024-11-06T23:00:00	8	Radiación solar	0
91001	7	Sololá	702	San José Chacayá	5	Chacayá	4	Abril	2023-04-20T00:00:00	2024-11-06T00:00:00	2	Temperatura media	12.5
91002	7	Sololá	702	San José Chacayá	5	Chacayá	4	Abril	2023-04-20T00:00:00	2024-11-06T00:00:00	4	Temperatura máxima	14.1
91003	7	Sololá	702	San José Chacayá	5	Chacayá	4	Abril	2023-04-20T00:00:00	2024-11-06T00:00:00	3	Temperatura mínima	12.5
91004	7	Sololá	702	San José Chacayá	5	Chacayá	4	Abril	2023-04-20T00:00:00	2024-11-06T00:00:00	5	Humedad	83
91005	7	Sololá	702	San José Chacayá	5	Chacayá	4	Abril	2023-04-20T00:00:00	2024-11-06T00:00:00	6	Velocidad del viento	1.6
91006	7	Sololá	702	San José Chacayá	5	Chacayá	4	Abril	2023-04-20T00:00:00	2024-11-06T00:00:00	7	Dirección del viento	1.61
91007	7	Sololá	702	San José Chacayá	5	Chacayá	4	Abril	2023-04-20T00:00:00	2024-11-06T00:00:00	1	Precipitación	0
91008	7	Sololá	702	San José Chacayá	5	Chacayá	4	Abril	2023-04-20T00:00:00	2024-11-06T00:00:00	8	Radiación solar	0
91009	7	Sololá	702	San José Chacayá	5	Chacayá	4	Abril	2023-04-20T00:00:00	2024-11-06T01:00:00	2	Temperatura media	11.6
91010	7	Sololá	702	San José Chacayá	5	Chacayá	4	Abril	2023-04-20T00:00:00	2024-11-06T01:00:00	4	Temperatura máxima	12.5
91011	7	Sololá	702	San José Chacayá	5	Chacayá	4	Abril	2023-04-20T00:00:00	2024-11-06T01:00:00	3	Temperatura mínima	11.5
91012	7	Sololá	702	San José Chacayá	5	Chacayá	4	Abril	2023-04-20T00:00:00	2024-11-06T01:00:00	5	Humedad	83
91013	7	Sololá	702	San José Chacayá	5	Chacayá	4	Abril	2023-04-20T00:00:00	2024-11-06T01:00:00	6	Velocidad del viento	1.6
91014	7	Sololá	702	San José Chacayá	5	Chacayá	4	Abril	2023-04-20T00:00:00	2024-11-06T01:00:00	7	Dirección del viento	1.61
91015	7	Sololá	702	San José Chacayá	5	Chacayá	4	Abril	2023-04-20T00:00:00	2024-11-06T01:00:00	1	Precipitación	0
91016	7	Sololá	702	San José Chacayá	5	Chacayá	4	Abril	2023-04-20T00:00:00	2024-11-06T01:00:00	8	Radiación solar	0
91017	7	Sololá	702	San José Chacayá	5	Chacayá	4	Abril	2023-04-20T00:00:00	2024-11-06T02:00:00	2	Temperatura media	10.7
91018	7	Sololá	702	San José Chacayá	5	Chacayá	4	Abril	2023-04-20T00:00:00	2024-11-06T02:00:00	4	Temperatura máxima	11.6
91019	7	Sololá	702	San José Chacayá	5	Chacayá	4	Abril	2023-04-20T00:00:00	2024-11-06T02:00:00	3	Temperatura mínima	10.7
91020	7	Sololá	702	San José Chacayá	5	Chacayá	4	Abril	2023-04-20T00:00:00	2024-11-06T02:00:00	5	Humedad	83
91021	7	Sololá	702	San José Chacayá	5	Chacayá	4	Abril	2023-04-20T00:00:00	2024-11-06T02:00:00	6	Velocidad del viento	1.6
91022	7	Sololá	702	San José Chacayá	5	Chacayá	4	Abril	2023-04-20T00:00:00	2024-11-06T02:00:00	7	Dirección del viento	1.61
91023	7	Sololá	702	San José Chacayá	5	Chacayá	4	Abril	2023-04-20T00:00:00	2024-11-06T02:00:00	1	Precipitación	0
91024	7	Sololá	702	San José Chacayá	5	Chacayá	4	Abril	2023-04-20T00:00:00	2024-11-06T02:00:00	8	Radiación solar	0
91025	7	Sololá	702	San José Chacayá	5	Chacayá	4	Abril	2023-04-20T00:00:00	2024-11-06T03:00:00	2	Temperatura media	9.7
91026	7	Sololá	702	San José Chacayá	5	Chacayá	4	Abril	2023-04-20T00:00:00	2024-11-06T03:00:00	4	Temperatura máxima	10.7
91027	7	Sololá	702	San José Chacayá	5	Chacayá	4	Abril	2023-04-20T00:00:00	2024-11-06T03:00:00	3	Temperatura mínima	9.7
91028	7	Sololá	702	San José Chacayá	5	Chacayá	4	Abril	2023-04-20T00:00:00	2024-11-06T03:00:00	5	Humedad	83
91029	7	Sololá	702	San José Chacayá	5	Chacayá	4	Abril	2023-04-20T00:00:00	2024-11-06T03:00:00	6	Velocidad del viento	1.6
91030	7	Sololá	702	San José Chacayá	5	Chacayá	4	Abril	2023-04-20T00:00:00	2024-11-06T03:00:00	7	Dirección del viento	1.61
91031	7	Sololá	702	San José Chacayá	5	Chacayá	4	Abril	2023-04-20T00:00:00	2024-11-06T03:00:00	1	Precipitación	0
91032	7	Sololá	702	San José Chacayá	5	Chacayá	4	Abril	2023-04-20T00:00:00	2024-11-06T03:00:00	8	Radiación solar	0
91033	7	Sololá	702	San José Chacayá	5	Chacayá	4	Abril	2023-04-20T00:00:00	2024-11-06T04:00:00	2	Temperatura media	9.3
91034	7	Sololá	702	San José Chacayá	5	Chacayá	4	Abril	2023-04-20T00:00:00	2024-11-06T04:00:00	4	Temperatura máxima	9.7
91035	7	Sololá	702	San José Chacayá	5	Chacayá	4	Abril	2023-04-20T00:00:00	2024-11-06T04:00:00	3	Temperatura mínima	9.3
91036	7	Sololá	702	San José Chacayá	5	Chacayá	4	Abril	2023-04-20T00:00:00	2024-11-06T04:00:00	5	Humedad	84
91037	7	Sololá	702	San José Chacayá	5	Chacayá	4	Abril	2023-04-20T00:00:00	2024-11-06T04:00:00	6	Velocidad del viento	1.6
91038	7	Sololá	702	San José Chacayá	5	Chacayá	4	Abril	2023-04-20T00:00:00	2024-11-06T04:00:00	7	Dirección del viento	1.61
91039	7	Sololá	702	San José Chacayá	5	Chacayá	4	Abril	2023-04-20T00:00:00	2024-11-06T04:00:00	1	Precipitación	0
91040	7	Sololá	702	San José Chacayá	5	Chacayá	4	Abril	2023-04-20T00:00:00	2024-11-06T04:00:00	8	Radiación solar	0
91041	7	Sololá	702	San José Chacayá	5	Chacayá	4	Abril	2023-04-20T00:00:00	2024-11-06T05:00:00	2	Temperatura media	8.6
91042	7	Sololá	702	San José Chacayá	5	Chacayá	4	Abril	2023-04-20T00:00:00	2024-11-06T05:00:00	4	Temperatura máxima	9.3
91043	7	Sololá	702	San José Chacayá	5	Chacayá	4	Abril	2023-04-20T00:00:00	2024-11-06T05:00:00	3	Temperatura mínima	8.6
91044	7	Sololá	702	San José Chacayá	5	Chacayá	4	Abril	2023-04-20T00:00:00	2024-11-06T05:00:00	5	Humedad	83
91045	7	Sololá	702	San José Chacayá	5	Chacayá	4	Abril	2023-04-20T00:00:00	2024-11-06T05:00:00	6	Velocidad del viento	1.6
91046	7	Sololá	702	San José Chacayá	5	Chacayá	4	Abril	2023-04-20T00:00:00	2024-11-06T05:00:00	7	Dirección del viento	1.61
91047	7	Sololá	702	San José Chacayá	5	Chacayá	4	Abril	2023-04-20T00:00:00	2024-11-06T05:00:00	1	Precipitación	0
91048	7	Sololá	702	San José Chacayá	5	Chacayá	4	Abril	2023-04-20T00:00:00	2024-11-06T05:00:00	8	Radiación solar	0
91049	7	Sololá	702	San José Chacayá	5	Chacayá	4	Abril	2023-04-20T00:00:00	2024-11-06T06:00:00	2	Temperatura media	8.4
91050	7	Sololá	702	San José Chacayá	5	Chacayá	4	Abril	2023-04-20T00:00:00	2024-11-06T06:00:00	4	Temperatura máxima	8.9
91051	7	Sololá	702	San José Chacayá	5	Chacayá	4	Abril	2023-04-20T00:00:00	2024-11-06T06:00:00	3	Temperatura mínima	8.4
91052	7	Sololá	702	San José Chacayá	5	Chacayá	4	Abril	2023-04-20T00:00:00	2024-11-06T06:00:00	5	Humedad	85
91053	7	Sololá	702	San José Chacayá	5	Chacayá	4	Abril	2023-04-20T00:00:00	2024-11-06T06:00:00	6	Velocidad del viento	1.6
91054	7	Sololá	702	San José Chacayá	5	Chacayá	4	Abril	2023-04-20T00:00:00	2024-11-06T06:00:00	7	Dirección del viento	1.61
91055	7	Sololá	702	San José Chacayá	5	Chacayá	4	Abril	2023-04-20T00:00:00	2024-11-06T06:00:00	1	Precipitación	0
91056	7	Sololá	702	San José Chacayá	5	Chacayá	4	Abril	2023-04-20T00:00:00	2024-11-06T06:00:00	8	Radiación solar	0
91057	7	Sololá	702	San José Chacayá	5	Chacayá	4	Abril	2023-04-20T00:00:00	2024-11-06T07:00:00	2	Temperatura media	8.3
91058	7	Sololá	702	San José Chacayá	5	Chacayá	4	Abril	2023-04-20T00:00:00	2024-11-06T07:00:00	4	Temperatura máxima	8.6
91059	7	Sololá	702	San José Chacayá	5	Chacayá	4	Abril	2023-04-20T00:00:00	2024-11-06T07:00:00	3	Temperatura mínima	8.1
91060	7	Sololá	702	San José Chacayá	5	Chacayá	4	Abril	2023-04-20T00:00:00	2024-11-06T07:00:00	5	Humedad	85
91061	7	Sololá	702	San José Chacayá	5	Chacayá	4	Abril	2023-04-20T00:00:00	2024-11-06T07:00:00	6	Velocidad del viento	3.2
91062	7	Sololá	702	San José Chacayá	5	Chacayá	4	Abril	2023-04-20T00:00:00	2024-11-06T07:00:00	7	Dirección del viento	3.22
91063	7	Sololá	702	San José Chacayá	5	Chacayá	4	Abril	2023-04-20T00:00:00	2024-11-06T07:00:00	1	Precipitación	0
91064	7	Sololá	702	San José Chacayá	5	Chacayá	4	Abril	2023-04-20T00:00:00	2024-11-06T07:00:00	8	Radiación solar	1
91065	7	Sololá	702	San José Chacayá	5	Chacayá	4	Abril	2023-04-20T00:00:00	2024-11-06T08:00:00	2	Temperatura media	9.4
91066	7	Sololá	702	San José Chacayá	5	Chacayá	4	Abril	2023-04-20T00:00:00	2024-11-06T08:00:00	4	Temperatura máxima	9.4
91067	7	Sololá	702	San José Chacayá	5	Chacayá	4	Abril	2023-04-20T00:00:00	2024-11-06T08:00:00	3	Temperatura mínima	8.3
91068	7	Sololá	702	San José Chacayá	5	Chacayá	4	Abril	2023-04-20T00:00:00	2024-11-06T08:00:00	5	Humedad	82
91069	7	Sololá	702	San José Chacayá	5	Chacayá	4	Abril	2023-04-20T00:00:00	2024-11-06T08:00:00	6	Velocidad del viento	3.2
91070	7	Sololá	702	San José Chacayá	5	Chacayá	4	Abril	2023-04-20T00:00:00	2024-11-06T08:00:00	7	Dirección del viento	3.22
91071	7	Sololá	702	San José Chacayá	5	Chacayá	4	Abril	2023-04-20T00:00:00	2024-11-06T08:00:00	1	Precipitación	0
91072	7	Sololá	702	San José Chacayá	5	Chacayá	4	Abril	2023-04-20T00:00:00	2024-11-06T08:00:00	8	Radiación solar	58
91073	7	Sololá	702	San José Chacayá	5	Chacayá	4	Abril	2023-04-20T00:00:00	2024-11-06T09:00:00	2	Temperatura media	13.7
91074	7	Sololá	702	San José Chacayá	5	Chacayá	4	Abril	2023-04-20T00:00:00	2024-11-06T09:00:00	4	Temperatura máxima	13.7
91075	7	Sololá	702	San José Chacayá	5	Chacayá	4	Abril	2023-04-20T00:00:00	2024-11-06T09:00:00	3	Temperatura mínima	9.4
91076	7	Sololá	702	San José Chacayá	5	Chacayá	4	Abril	2023-04-20T00:00:00	2024-11-06T09:00:00	5	Humedad	74
91077	7	Sololá	702	San José Chacayá	5	Chacayá	4	Abril	2023-04-20T00:00:00	2024-11-06T09:00:00	6	Velocidad del viento	1.6
91078	7	Sololá	702	San José Chacayá	5	Chacayá	4	Abril	2023-04-20T00:00:00	2024-11-06T09:00:00	7	Dirección del viento	1.61
91079	7	Sololá	702	San José Chacayá	5	Chacayá	4	Abril	2023-04-20T00:00:00	2024-11-06T09:00:00	1	Precipitación	0
91080	7	Sololá	702	San José Chacayá	5	Chacayá	4	Abril	2023-04-20T00:00:00	2024-11-06T09:00:00	8	Radiación solar	186
91081	7	Sololá	702	San José Chacayá	5	Chacayá	4	Abril	2023-04-20T00:00:00	2024-11-06T10:00:00	2	Temperatura media	17.2
91082	7	Sololá	702	San José Chacayá	5	Chacayá	4	Abril	2023-04-20T00:00:00	2024-11-06T10:00:00	4	Temperatura máxima	17.2
91083	7	Sololá	702	San José Chacayá	5	Chacayá	4	Abril	2023-04-20T00:00:00	2024-11-06T10:00:00	3	Temperatura mínima	13.7
91084	7	Sololá	702	San José Chacayá	5	Chacayá	4	Abril	2023-04-20T00:00:00	2024-11-06T10:00:00	5	Humedad	55
91085	7	Sololá	702	San José Chacayá	5	Chacayá	4	Abril	2023-04-20T00:00:00	2024-11-06T10:00:00	6	Velocidad del viento	1.6
91086	7	Sololá	702	San José Chacayá	5	Chacayá	4	Abril	2023-04-20T00:00:00	2024-11-06T10:00:00	7	Dirección del viento	1.61
91087	7	Sololá	702	San José Chacayá	5	Chacayá	4	Abril	2023-04-20T00:00:00	2024-11-06T10:00:00	1	Precipitación	0
91088	7	Sololá	702	San José Chacayá	5	Chacayá	4	Abril	2023-04-20T00:00:00	2024-11-06T10:00:00	8	Radiación solar	374
91089	7	Sololá	702	San José Chacayá	5	Chacayá	4	Abril	2023-04-20T00:00:00	2024-11-06T11:00:00	2	Temperatura media	18.3
91090	7	Sololá	702	San José Chacayá	5	Chacayá	4	Abril	2023-04-20T00:00:00	2024-11-06T11:00:00	4	Temperatura máxima	18.4
91091	7	Sololá	702	San José Chacayá	5	Chacayá	4	Abril	2023-04-20T00:00:00	2024-11-06T11:00:00	3	Temperatura mínima	17.2
91092	7	Sololá	702	San José Chacayá	5	Chacayá	4	Abril	2023-04-20T00:00:00	2024-11-06T11:00:00	5	Humedad	60
91093	7	Sololá	702	San José Chacayá	5	Chacayá	4	Abril	2023-04-20T00:00:00	2024-11-06T11:00:00	6	Velocidad del viento	4.8
91094	7	Sololá	702	San José Chacayá	5	Chacayá	4	Abril	2023-04-20T00:00:00	2024-11-06T11:00:00	7	Dirección del viento	4.83
91095	7	Sololá	702	San José Chacayá	5	Chacayá	4	Abril	2023-04-20T00:00:00	2024-11-06T11:00:00	1	Precipitación	0
91096	7	Sololá	702	San José Chacayá	5	Chacayá	4	Abril	2023-04-20T00:00:00	2024-11-06T11:00:00	8	Radiación solar	592
91097	7	Sololá	702	San José Chacayá	5	Chacayá	4	Abril	2023-04-20T00:00:00	2024-11-06T12:00:00	2	Temperatura media	19.2
91098	7	Sololá	702	San José Chacayá	5	Chacayá	4	Abril	2023-04-20T00:00:00	2024-11-06T12:00:00	4	Temperatura máxima	19.2
91099	7	Sololá	702	San José Chacayá	5	Chacayá	4	Abril	2023-04-20T00:00:00	2024-11-06T12:00:00	3	Temperatura mínima	18.3
91100	7	Sololá	702	San José Chacayá	5	Chacayá	4	Abril	2023-04-20T00:00:00	2024-11-06T12:00:00	5	Humedad	63
91101	7	Sololá	702	San José Chacayá	5	Chacayá	4	Abril	2023-04-20T00:00:00	2024-11-06T12:00:00	6	Velocidad del viento	4.8
91102	7	Sololá	702	San José Chacayá	5	Chacayá	4	Abril	2023-04-20T00:00:00	2024-11-06T12:00:00	7	Dirección del viento	4.83
91103	7	Sololá	702	San José Chacayá	5	Chacayá	4	Abril	2023-04-20T00:00:00	2024-11-06T12:00:00	1	Precipitación	0
91104	7	Sololá	702	San José Chacayá	5	Chacayá	4	Abril	2023-04-20T00:00:00	2024-11-06T12:00:00	8	Radiación solar	624
91105	7	Sololá	702	San José Chacayá	5	Chacayá	4	Abril	2023-04-20T00:00:00	2024-11-06T13:00:00	2	Temperatura media	18.9
91106	7	Sololá	702	San José Chacayá	5	Chacayá	4	Abril	2023-04-20T00:00:00	2024-11-06T13:00:00	4	Temperatura máxima	19.6
91107	7	Sololá	702	San José Chacayá	5	Chacayá	4	Abril	2023-04-20T00:00:00	2024-11-06T13:00:00	3	Temperatura mínima	18.8
91108	7	Sololá	702	San José Chacayá	5	Chacayá	4	Abril	2023-04-20T00:00:00	2024-11-06T13:00:00	5	Humedad	70
91109	7	Sololá	702	San José Chacayá	5	Chacayá	4	Abril	2023-04-20T00:00:00	2024-11-06T13:00:00	6	Velocidad del viento	4.8
91110	7	Sololá	702	San José Chacayá	5	Chacayá	4	Abril	2023-04-20T00:00:00	2024-11-06T13:00:00	7	Dirección del viento	4.83
91111	7	Sololá	702	San José Chacayá	5	Chacayá	4	Abril	2023-04-20T00:00:00	2024-11-06T13:00:00	1	Precipitación	0
91112	7	Sololá	702	San José Chacayá	5	Chacayá	4	Abril	2023-04-20T00:00:00	2024-11-06T13:00:00	8	Radiación solar	580
91113	7	Sololá	702	San José Chacayá	5	Chacayá	4	Abril	2023-04-20T00:00:00	2024-11-06T14:00:00	2	Temperatura media	20.5
91114	7	Sololá	702	San José Chacayá	5	Chacayá	4	Abril	2023-04-20T00:00:00	2024-11-06T14:00:00	4	Temperatura máxima	20.5
91115	7	Sololá	702	San José Chacayá	5	Chacayá	4	Abril	2023-04-20T00:00:00	2024-11-06T14:00:00	3	Temperatura mínima	18.9
91116	7	Sololá	702	San José Chacayá	5	Chacayá	4	Abril	2023-04-20T00:00:00	2024-11-06T14:00:00	5	Humedad	67
91117	7	Sololá	702	San José Chacayá	5	Chacayá	4	Abril	2023-04-20T00:00:00	2024-11-06T14:00:00	6	Velocidad del viento	6.4
91118	7	Sololá	702	San José Chacayá	5	Chacayá	4	Abril	2023-04-20T00:00:00	2024-11-06T14:00:00	7	Dirección del viento	6.44
91119	7	Sololá	702	San José Chacayá	5	Chacayá	4	Abril	2023-04-20T00:00:00	2024-11-06T14:00:00	1	Precipitación	0
91120	7	Sololá	702	San José Chacayá	5	Chacayá	4	Abril	2023-04-20T00:00:00	2024-11-06T14:00:00	8	Radiación solar	750
91121	7	Sololá	702	San José Chacayá	5	Chacayá	4	Abril	2023-04-20T00:00:00	2024-11-06T15:00:00	2	Temperatura media	21.2
91122	7	Sololá	702	San José Chacayá	5	Chacayá	4	Abril	2023-04-20T00:00:00	2024-11-06T15:00:00	4	Temperatura máxima	21.4
91123	7	Sololá	702	San José Chacayá	5	Chacayá	4	Abril	2023-04-20T00:00:00	2024-11-06T15:00:00	3	Temperatura mínima	20.3
91124	7	Sololá	702	San José Chacayá	5	Chacayá	4	Abril	2023-04-20T00:00:00	2024-11-06T15:00:00	5	Humedad	68
91125	7	Sololá	702	San José Chacayá	5	Chacayá	4	Abril	2023-04-20T00:00:00	2024-11-06T15:00:00	6	Velocidad del viento	6.4
91126	7	Sololá	702	San José Chacayá	5	Chacayá	4	Abril	2023-04-20T00:00:00	2024-11-06T15:00:00	7	Dirección del viento	6.44
91127	7	Sololá	702	San José Chacayá	5	Chacayá	4	Abril	2023-04-20T00:00:00	2024-11-06T15:00:00	1	Precipitación	0
91128	7	Sololá	702	San José Chacayá	5	Chacayá	4	Abril	2023-04-20T00:00:00	2024-11-06T15:00:00	8	Radiación solar	794
91129	7	Sololá	702	San José Chacayá	5	Chacayá	4	Abril	2023-04-20T00:00:00	2024-11-06T16:00:00	2	Temperatura media	20.2
91130	7	Sololá	702	San José Chacayá	5	Chacayá	4	Abril	2023-04-20T00:00:00	2024-11-06T16:00:00	4	Temperatura máxima	21.3
91131	7	Sololá	702	San José Chacayá	5	Chacayá	4	Abril	2023-04-20T00:00:00	2024-11-06T16:00:00	3	Temperatura mínima	20.2
91132	7	Sololá	702	San José Chacayá	5	Chacayá	4	Abril	2023-04-20T00:00:00	2024-11-06T16:00:00	5	Humedad	72
91133	7	Sololá	702	San José Chacayá	5	Chacayá	4	Abril	2023-04-20T00:00:00	2024-11-06T16:00:00	6	Velocidad del viento	4.8
91134	7	Sololá	702	San José Chacayá	5	Chacayá	4	Abril	2023-04-20T00:00:00	2024-11-06T16:00:00	7	Dirección del viento	4.83
91135	7	Sololá	702	San José Chacayá	5	Chacayá	4	Abril	2023-04-20T00:00:00	2024-11-06T16:00:00	1	Precipitación	0
91136	7	Sololá	702	San José Chacayá	5	Chacayá	4	Abril	2023-04-20T00:00:00	2024-11-06T16:00:00	8	Radiación solar	639
91137	7	Sololá	702	San José Chacayá	5	Chacayá	4	Abril	2023-04-20T00:00:00	2024-11-06T17:00:00	2	Temperatura media	18.6
91138	7	Sololá	702	San José Chacayá	5	Chacayá	4	Abril	2023-04-20T00:00:00	2024-11-06T17:00:00	4	Temperatura máxima	20.2
91139	7	Sololá	702	San José Chacayá	5	Chacayá	4	Abril	2023-04-20T00:00:00	2024-11-06T17:00:00	3	Temperatura mínima	18.4
91140	7	Sololá	702	San José Chacayá	5	Chacayá	4	Abril	2023-04-20T00:00:00	2024-11-06T17:00:00	5	Humedad	77
91141	7	Sololá	702	San José Chacayá	5	Chacayá	4	Abril	2023-04-20T00:00:00	2024-11-06T17:00:00	6	Velocidad del viento	6.4
91142	7	Sololá	702	San José Chacayá	5	Chacayá	4	Abril	2023-04-20T00:00:00	2024-11-06T17:00:00	7	Dirección del viento	6.44
91143	7	Sololá	702	San José Chacayá	5	Chacayá	4	Abril	2023-04-20T00:00:00	2024-11-06T17:00:00	1	Precipitación	0
91144	7	Sololá	702	San José Chacayá	5	Chacayá	4	Abril	2023-04-20T00:00:00	2024-11-06T17:00:00	8	Radiación solar	362
91145	7	Sololá	702	San José Chacayá	5	Chacayá	4	Abril	2023-04-20T00:00:00	2024-11-06T18:00:00	2	Temperatura media	17.4
91146	7	Sololá	702	San José Chacayá	5	Chacayá	4	Abril	2023-04-20T00:00:00	2024-11-06T18:00:00	4	Temperatura máxima	18.7
91147	7	Sololá	702	San José Chacayá	5	Chacayá	4	Abril	2023-04-20T00:00:00	2024-11-06T18:00:00	3	Temperatura mínima	17.3
91148	7	Sololá	702	San José Chacayá	5	Chacayá	4	Abril	2023-04-20T00:00:00	2024-11-06T18:00:00	5	Humedad	82
91149	7	Sololá	702	San José Chacayá	5	Chacayá	4	Abril	2023-04-20T00:00:00	2024-11-06T18:00:00	6	Velocidad del viento	3.2
91150	7	Sololá	702	San José Chacayá	5	Chacayá	4	Abril	2023-04-20T00:00:00	2024-11-06T18:00:00	7	Dirección del viento	3.22
91151	7	Sololá	702	San José Chacayá	5	Chacayá	4	Abril	2023-04-20T00:00:00	2024-11-06T18:00:00	1	Precipitación	0
91152	7	Sololá	702	San José Chacayá	5	Chacayá	4	Abril	2023-04-20T00:00:00	2024-11-06T18:00:00	8	Radiación solar	146
91153	7	Sololá	702	San José Chacayá	5	Chacayá	4	Abril	2023-04-20T00:00:00	2024-11-06T19:00:00	2	Temperatura media	16.7
91154	7	Sololá	702	San José Chacayá	5	Chacayá	4	Abril	2023-04-20T00:00:00	2024-11-06T19:00:00	4	Temperatura máxima	17.4
91155	7	Sololá	702	San José Chacayá	5	Chacayá	4	Abril	2023-04-20T00:00:00	2024-11-06T19:00:00	3	Temperatura mínima	16.7
91156	7	Sololá	702	San José Chacayá	5	Chacayá	4	Abril	2023-04-20T00:00:00	2024-11-06T19:00:00	5	Humedad	83
91157	7	Sololá	702	San José Chacayá	5	Chacayá	4	Abril	2023-04-20T00:00:00	2024-11-06T19:00:00	6	Velocidad del viento	0
91158	7	Sololá	702	San José Chacayá	5	Chacayá	4	Abril	2023-04-20T00:00:00	2024-11-06T19:00:00	7	Dirección del viento	0
91159	7	Sololá	702	San José Chacayá	5	Chacayá	4	Abril	2023-04-20T00:00:00	2024-11-06T19:00:00	1	Precipitación	0
91160	7	Sololá	702	San José Chacayá	5	Chacayá	4	Abril	2023-04-20T00:00:00	2024-11-06T19:00:00	8	Radiación solar	0
91161	7	Sololá	702	San José Chacayá	5	Chacayá	4	Abril	2023-04-20T00:00:00	2024-11-06T20:00:00	2	Temperatura media	15.7
91162	7	Sololá	702	San José Chacayá	5	Chacayá	4	Abril	2023-04-20T00:00:00	2024-11-06T20:00:00	4	Temperatura máxima	16.7
91163	7	Sololá	702	San José Chacayá	5	Chacayá	4	Abril	2023-04-20T00:00:00	2024-11-06T20:00:00	3	Temperatura mínima	15.7
91164	7	Sololá	702	San José Chacayá	5	Chacayá	4	Abril	2023-04-20T00:00:00	2024-11-06T20:00:00	5	Humedad	79
91165	7	Sololá	702	San José Chacayá	5	Chacayá	4	Abril	2023-04-20T00:00:00	2024-11-06T20:00:00	6	Velocidad del viento	0
91166	7	Sololá	702	San José Chacayá	5	Chacayá	4	Abril	2023-04-20T00:00:00	2024-11-06T20:00:00	7	Dirección del viento	0
91167	7	Sololá	702	San José Chacayá	5	Chacayá	4	Abril	2023-04-20T00:00:00	2024-11-06T20:00:00	1	Precipitación	0
91168	7	Sololá	702	San José Chacayá	5	Chacayá	4	Abril	2023-04-20T00:00:00	2024-11-06T20:00:00	8	Radiación solar	0
91169	7	Sololá	702	San José Chacayá	5	Chacayá	4	Abril	2023-04-20T00:00:00	2024-11-06T21:00:00	2	Temperatura media	15
91170	7	Sololá	702	San José Chacayá	5	Chacayá	4	Abril	2023-04-20T00:00:00	2024-11-06T21:00:00	4	Temperatura máxima	15.8
91171	7	Sololá	702	San José Chacayá	5	Chacayá	4	Abril	2023-04-20T00:00:00	2024-11-06T21:00:00	3	Temperatura mínima	15
91172	7	Sololá	702	San José Chacayá	5	Chacayá	4	Abril	2023-04-20T00:00:00	2024-11-06T21:00:00	5	Humedad	82
91173	7	Sololá	702	San José Chacayá	5	Chacayá	4	Abril	2023-04-20T00:00:00	2024-11-06T21:00:00	6	Velocidad del viento	0
91174	7	Sololá	702	San José Chacayá	5	Chacayá	4	Abril	2023-04-20T00:00:00	2024-11-06T21:00:00	7	Dirección del viento	0
91175	7	Sololá	702	San José Chacayá	5	Chacayá	4	Abril	2023-04-20T00:00:00	2024-11-06T21:00:00	1	Precipitación	0
91176	7	Sololá	702	San José Chacayá	5	Chacayá	4	Abril	2023-04-20T00:00:00	2024-11-06T21:00:00	8	Radiación solar	0
91177	7	Sololá	702	San José Chacayá	5	Chacayá	4	Abril	2023-04-20T00:00:00	2024-11-06T22:00:00	2	Temperatura media	13.6
91178	7	Sololá	702	San José Chacayá	5	Chacayá	4	Abril	2023-04-20T00:00:00	2024-11-06T22:00:00	4	Temperatura máxima	15
91179	7	Sololá	702	San José Chacayá	5	Chacayá	4	Abril	2023-04-20T00:00:00	2024-11-06T22:00:00	3	Temperatura mínima	13.6
91180	7	Sololá	702	San José Chacayá	5	Chacayá	4	Abril	2023-04-20T00:00:00	2024-11-06T22:00:00	5	Humedad	83
91181	7	Sololá	702	San José Chacayá	5	Chacayá	4	Abril	2023-04-20T00:00:00	2024-11-06T22:00:00	6	Velocidad del viento	3.2
91182	7	Sololá	702	San José Chacayá	5	Chacayá	4	Abril	2023-04-20T00:00:00	2024-11-06T22:00:00	7	Dirección del viento	3.22
91183	7	Sololá	702	San José Chacayá	5	Chacayá	4	Abril	2023-04-20T00:00:00	2024-11-06T22:00:00	1	Precipitación	0
91184	7	Sololá	702	San José Chacayá	5	Chacayá	4	Abril	2023-04-20T00:00:00	2024-11-06T22:00:00	8	Radiación solar	0
91185	7	Sololá	702	San José Chacayá	5	Chacayá	4	Abril	2023-04-20T00:00:00	2024-11-06T23:00:00	2	Temperatura media	12.6
91186	7	Sololá	702	San José Chacayá	5	Chacayá	4	Abril	2023-04-20T00:00:00	2024-11-06T23:00:00	4	Temperatura máxima	13.6
91187	7	Sololá	702	San José Chacayá	5	Chacayá	4	Abril	2023-04-20T00:00:00	2024-11-06T23:00:00	3	Temperatura mínima	12.6
91188	7	Sololá	702	San José Chacayá	5	Chacayá	4	Abril	2023-04-20T00:00:00	2024-11-06T23:00:00	5	Humedad	83
91189	7	Sololá	702	San José Chacayá	5	Chacayá	4	Abril	2023-04-20T00:00:00	2024-11-06T23:00:00	6	Velocidad del viento	3.2
91190	7	Sololá	702	San José Chacayá	5	Chacayá	4	Abril	2023-04-20T00:00:00	2024-11-06T23:00:00	7	Dirección del viento	3.22
91191	7	Sololá	702	San José Chacayá	5	Chacayá	4	Abril	2023-04-20T00:00:00	2024-11-06T23:00:00	1	Precipitación	0
91192	7	Sololá	702	San José Chacayá	5	Chacayá	4	Abril	2023-04-20T00:00:00	2024-11-06T23:00:00	8	Radiación solar	0
91193	7	Sololá	702	San José Chacayá	5	Chacayá	4	Abril	2023-04-21T00:00:00	2024-11-06T00:00:00	2	Temperatura media	12.1
91194	7	Sololá	702	San José Chacayá	5	Chacayá	4	Abril	2023-04-21T00:00:00	2024-11-06T00:00:00	4	Temperatura máxima	12.7
91195	7	Sololá	702	San José Chacayá	5	Chacayá	4	Abril	2023-04-21T00:00:00	2024-11-06T00:00:00	3	Temperatura mínima	12
91196	7	Sololá	702	San José Chacayá	5	Chacayá	4	Abril	2023-04-21T00:00:00	2024-11-06T00:00:00	5	Humedad	83
91197	7	Sololá	702	San José Chacayá	5	Chacayá	4	Abril	2023-04-21T00:00:00	2024-11-06T00:00:00	6	Velocidad del viento	3.2
91198	7	Sololá	702	San José Chacayá	5	Chacayá	4	Abril	2023-04-21T00:00:00	2024-11-06T00:00:00	7	Dirección del viento	3.22
91199	7	Sololá	702	San José Chacayá	5	Chacayá	4	Abril	2023-04-21T00:00:00	2024-11-06T00:00:00	1	Precipitación	0
91200	7	Sololá	702	San José Chacayá	5	Chacayá	4	Abril	2023-04-21T00:00:00	2024-11-06T00:00:00	8	Radiación solar	0
91201	7	Sololá	702	San José Chacayá	5	Chacayá	4	Abril	2023-04-21T00:00:00	2024-11-06T01:00:00	2	Temperatura media	11.7
91202	7	Sololá	702	San José Chacayá	5	Chacayá	4	Abril	2023-04-21T00:00:00	2024-11-06T01:00:00	4	Temperatura máxima	12.2
91203	7	Sololá	702	San José Chacayá	5	Chacayá	4	Abril	2023-04-21T00:00:00	2024-11-06T01:00:00	3	Temperatura mínima	11.6
91204	7	Sololá	702	San José Chacayá	5	Chacayá	4	Abril	2023-04-21T00:00:00	2024-11-06T01:00:00	5	Humedad	83
91205	7	Sololá	702	San José Chacayá	5	Chacayá	4	Abril	2023-04-21T00:00:00	2024-11-06T01:00:00	6	Velocidad del viento	3.2
91206	7	Sololá	702	San José Chacayá	5	Chacayá	4	Abril	2023-04-21T00:00:00	2024-11-06T01:00:00	7	Dirección del viento	3.22
91207	7	Sololá	702	San José Chacayá	5	Chacayá	4	Abril	2023-04-21T00:00:00	2024-11-06T01:00:00	1	Precipitación	0
91208	7	Sololá	702	San José Chacayá	5	Chacayá	4	Abril	2023-04-21T00:00:00	2024-11-06T01:00:00	8	Radiación solar	0
91209	7	Sololá	702	San José Chacayá	5	Chacayá	4	Abril	2023-04-21T00:00:00	2024-11-06T02:00:00	2	Temperatura media	10.8
91210	7	Sololá	702	San José Chacayá	5	Chacayá	4	Abril	2023-04-21T00:00:00	2024-11-06T02:00:00	4	Temperatura máxima	11.7
91211	7	Sololá	702	San José Chacayá	5	Chacayá	4	Abril	2023-04-21T00:00:00	2024-11-06T02:00:00	3	Temperatura mínima	10.8
91212	7	Sololá	702	San José Chacayá	5	Chacayá	4	Abril	2023-04-21T00:00:00	2024-11-06T02:00:00	5	Humedad	83
91213	7	Sololá	702	San José Chacayá	5	Chacayá	4	Abril	2023-04-21T00:00:00	2024-11-06T02:00:00	6	Velocidad del viento	3.2
91214	7	Sololá	702	San José Chacayá	5	Chacayá	4	Abril	2023-04-21T00:00:00	2024-11-06T02:00:00	7	Dirección del viento	3.22
91215	7	Sololá	702	San José Chacayá	5	Chacayá	4	Abril	2023-04-21T00:00:00	2024-11-06T02:00:00	1	Precipitación	0
91216	7	Sololá	702	San José Chacayá	5	Chacayá	4	Abril	2023-04-21T00:00:00	2024-11-06T02:00:00	8	Radiación solar	0
91217	7	Sololá	702	San José Chacayá	5	Chacayá	4	Abril	2023-04-21T00:00:00	2024-11-06T03:00:00	2	Temperatura media	10.9
91218	7	Sololá	702	San José Chacayá	5	Chacayá	4	Abril	2023-04-21T00:00:00	2024-11-06T03:00:00	4	Temperatura máxima	11
91219	7	Sololá	702	San José Chacayá	5	Chacayá	4	Abril	2023-04-21T00:00:00	2024-11-06T03:00:00	3	Temperatura mínima	10.6
91220	7	Sololá	702	San José Chacayá	5	Chacayá	4	Abril	2023-04-21T00:00:00	2024-11-06T03:00:00	5	Humedad	82
91221	7	Sololá	702	San José Chacayá	5	Chacayá	4	Abril	2023-04-21T00:00:00	2024-11-06T03:00:00	6	Velocidad del viento	3.2
91222	7	Sololá	702	San José Chacayá	5	Chacayá	4	Abril	2023-04-21T00:00:00	2024-11-06T03:00:00	7	Dirección del viento	3.22
91223	7	Sololá	702	San José Chacayá	5	Chacayá	4	Abril	2023-04-21T00:00:00	2024-11-06T03:00:00	1	Precipitación	0
91224	7	Sololá	702	San José Chacayá	5	Chacayá	4	Abril	2023-04-21T00:00:00	2024-11-06T03:00:00	8	Radiación solar	0
91225	7	Sololá	702	San José Chacayá	5	Chacayá	4	Abril	2023-04-21T00:00:00	2024-11-06T04:00:00	2	Temperatura media	10.7
91226	7	Sololá	702	San José Chacayá	5	Chacayá	4	Abril	2023-04-21T00:00:00	2024-11-06T04:00:00	4	Temperatura máxima	10.9
91227	7	Sololá	702	San José Chacayá	5	Chacayá	4	Abril	2023-04-21T00:00:00	2024-11-06T04:00:00	3	Temperatura mínima	10.6
91228	7	Sololá	702	San José Chacayá	5	Chacayá	4	Abril	2023-04-21T00:00:00	2024-11-06T04:00:00	5	Humedad	85
91229	7	Sololá	702	San José Chacayá	5	Chacayá	4	Abril	2023-04-21T00:00:00	2024-11-06T04:00:00	6	Velocidad del viento	3.2
91230	7	Sololá	702	San José Chacayá	5	Chacayá	4	Abril	2023-04-21T00:00:00	2024-11-06T04:00:00	7	Dirección del viento	3.22
91231	7	Sololá	702	San José Chacayá	5	Chacayá	4	Abril	2023-04-21T00:00:00	2024-11-06T04:00:00	1	Precipitación	0
91232	7	Sololá	702	San José Chacayá	5	Chacayá	4	Abril	2023-04-21T00:00:00	2024-11-06T04:00:00	8	Radiación solar	0
91233	7	Sololá	702	San José Chacayá	5	Chacayá	4	Abril	2023-04-21T00:00:00	2024-11-06T05:00:00	2	Temperatura media	9.2
91234	7	Sololá	702	San José Chacayá	5	Chacayá	4	Abril	2023-04-21T00:00:00	2024-11-06T05:00:00	4	Temperatura máxima	10.7
91235	7	Sololá	702	San José Chacayá	5	Chacayá	4	Abril	2023-04-21T00:00:00	2024-11-06T05:00:00	3	Temperatura mínima	9.2
91236	7	Sololá	702	San José Chacayá	5	Chacayá	4	Abril	2023-04-21T00:00:00	2024-11-06T05:00:00	5	Humedad	85
91237	7	Sololá	702	San José Chacayá	5	Chacayá	4	Abril	2023-04-21T00:00:00	2024-11-06T05:00:00	6	Velocidad del viento	3.2
91238	7	Sololá	702	San José Chacayá	5	Chacayá	4	Abril	2023-04-21T00:00:00	2024-11-06T05:00:00	7	Dirección del viento	3.22
91239	7	Sololá	702	San José Chacayá	5	Chacayá	4	Abril	2023-04-21T00:00:00	2024-11-06T05:00:00	1	Precipitación	0
91240	7	Sololá	702	San José Chacayá	5	Chacayá	4	Abril	2023-04-21T00:00:00	2024-11-06T05:00:00	8	Radiación solar	0
91241	7	Sololá	702	San José Chacayá	5	Chacayá	4	Abril	2023-04-21T00:00:00	2024-11-06T06:00:00	2	Temperatura media	8.7
91242	7	Sololá	702	San José Chacayá	5	Chacayá	4	Abril	2023-04-21T00:00:00	2024-11-06T06:00:00	4	Temperatura máxima	9.2
91243	7	Sololá	702	San José Chacayá	5	Chacayá	4	Abril	2023-04-21T00:00:00	2024-11-06T06:00:00	3	Temperatura mínima	8.7
91244	7	Sololá	702	San José Chacayá	5	Chacayá	4	Abril	2023-04-21T00:00:00	2024-11-06T06:00:00	5	Humedad	84
91245	7	Sololá	702	San José Chacayá	5	Chacayá	4	Abril	2023-04-21T00:00:00	2024-11-06T06:00:00	6	Velocidad del viento	3.2
91246	7	Sololá	702	San José Chacayá	5	Chacayá	4	Abril	2023-04-21T00:00:00	2024-11-06T06:00:00	7	Dirección del viento	3.22
91247	7	Sololá	702	San José Chacayá	5	Chacayá	4	Abril	2023-04-21T00:00:00	2024-11-06T06:00:00	1	Precipitación	0
91248	7	Sololá	702	San José Chacayá	5	Chacayá	4	Abril	2023-04-21T00:00:00	2024-11-06T06:00:00	8	Radiación solar	0
91249	7	Sololá	702	San José Chacayá	5	Chacayá	4	Abril	2023-04-21T00:00:00	2024-11-06T07:00:00	2	Temperatura media	8.9
91250	7	Sololá	702	San José Chacayá	5	Chacayá	4	Abril	2023-04-21T00:00:00	2024-11-06T07:00:00	4	Temperatura máxima	9.1
91251	7	Sololá	702	San José Chacayá	5	Chacayá	4	Abril	2023-04-21T00:00:00	2024-11-06T07:00:00	3	Temperatura mínima	8.7
91252	7	Sololá	702	San José Chacayá	5	Chacayá	4	Abril	2023-04-21T00:00:00	2024-11-06T07:00:00	5	Humedad	85
91253	7	Sololá	702	San José Chacayá	5	Chacayá	4	Abril	2023-04-21T00:00:00	2024-11-06T07:00:00	6	Velocidad del viento	3.2
91254	7	Sololá	702	San José Chacayá	5	Chacayá	4	Abril	2023-04-21T00:00:00	2024-11-06T07:00:00	7	Dirección del viento	3.22
91255	7	Sololá	702	San José Chacayá	5	Chacayá	4	Abril	2023-04-21T00:00:00	2024-11-06T07:00:00	1	Precipitación	0
91256	7	Sololá	702	San José Chacayá	5	Chacayá	4	Abril	2023-04-21T00:00:00	2024-11-06T07:00:00	8	Radiación solar	2
91257	7	Sololá	702	San José Chacayá	5	Chacayá	4	Abril	2023-04-21T00:00:00	2024-11-06T08:00:00	2	Temperatura media	11
91258	7	Sololá	702	San José Chacayá	5	Chacayá	4	Abril	2023-04-21T00:00:00	2024-11-06T08:00:00	4	Temperatura máxima	11
91259	7	Sololá	702	San José Chacayá	5	Chacayá	4	Abril	2023-04-21T00:00:00	2024-11-06T08:00:00	3	Temperatura mínima	8.9
91260	7	Sololá	702	San José Chacayá	5	Chacayá	4	Abril	2023-04-21T00:00:00	2024-11-06T08:00:00	5	Humedad	84
91261	7	Sololá	702	San José Chacayá	5	Chacayá	4	Abril	2023-04-21T00:00:00	2024-11-06T08:00:00	6	Velocidad del viento	4.8
91262	7	Sololá	702	San José Chacayá	5	Chacayá	4	Abril	2023-04-21T00:00:00	2024-11-06T08:00:00	7	Dirección del viento	4.83
91263	7	Sololá	702	San José Chacayá	5	Chacayá	4	Abril	2023-04-21T00:00:00	2024-11-06T08:00:00	1	Precipitación	0
91264	7	Sololá	702	San José Chacayá	5	Chacayá	4	Abril	2023-04-21T00:00:00	2024-11-06T08:00:00	8	Radiación solar	35
91265	7	Sololá	702	San José Chacayá	5	Chacayá	4	Abril	2023-04-21T00:00:00	2024-11-06T09:00:00	2	Temperatura media	15.9
91266	7	Sololá	702	San José Chacayá	5	Chacayá	4	Abril	2023-04-21T00:00:00	2024-11-06T09:00:00	4	Temperatura máxima	15.9
91267	7	Sololá	702	San José Chacayá	5	Chacayá	4	Abril	2023-04-21T00:00:00	2024-11-06T09:00:00	3	Temperatura mínima	11
91268	7	Sololá	702	San José Chacayá	5	Chacayá	4	Abril	2023-04-21T00:00:00	2024-11-06T09:00:00	5	Humedad	73
91269	7	Sololá	702	San José Chacayá	5	Chacayá	4	Abril	2023-04-21T00:00:00	2024-11-06T09:00:00	6	Velocidad del viento	0
91270	7	Sololá	702	San José Chacayá	5	Chacayá	4	Abril	2023-04-21T00:00:00	2024-11-06T09:00:00	7	Dirección del viento	0
91271	7	Sololá	702	San José Chacayá	5	Chacayá	4	Abril	2023-04-21T00:00:00	2024-11-06T09:00:00	1	Precipitación	0
91272	7	Sololá	702	San José Chacayá	5	Chacayá	4	Abril	2023-04-21T00:00:00	2024-11-06T09:00:00	8	Radiación solar	93
91273	7	Sololá	702	San José Chacayá	5	Chacayá	4	Abril	2023-04-21T00:00:00	2024-11-06T10:00:00	2	Temperatura media	19.1
91274	7	Sololá	702	San José Chacayá	5	Chacayá	4	Abril	2023-04-21T00:00:00	2024-11-06T10:00:00	4	Temperatura máxima	19.1
91275	7	Sololá	702	San José Chacayá	5	Chacayá	4	Abril	2023-04-21T00:00:00	2024-11-06T10:00:00	3	Temperatura mínima	15.9
91276	7	Sololá	702	San José Chacayá	5	Chacayá	4	Abril	2023-04-21T00:00:00	2024-11-06T10:00:00	5	Humedad	69
91277	7	Sololá	702	San José Chacayá	5	Chacayá	4	Abril	2023-04-21T00:00:00	2024-11-06T10:00:00	6	Velocidad del viento	3.2
91278	7	Sololá	702	San José Chacayá	5	Chacayá	4	Abril	2023-04-21T00:00:00	2024-11-06T10:00:00	7	Dirección del viento	3.22
91279	7	Sololá	702	San José Chacayá	5	Chacayá	4	Abril	2023-04-21T00:00:00	2024-11-06T10:00:00	1	Precipitación	0
91280	7	Sololá	702	San José Chacayá	5	Chacayá	4	Abril	2023-04-21T00:00:00	2024-11-06T10:00:00	8	Radiación solar	411
91281	7	Sololá	702	San José Chacayá	5	Chacayá	4	Abril	2023-04-21T00:00:00	2024-11-06T11:00:00	2	Temperatura media	21
91282	7	Sololá	702	San José Chacayá	5	Chacayá	4	Abril	2023-04-21T00:00:00	2024-11-06T11:00:00	4	Temperatura máxima	21
91283	7	Sololá	702	San José Chacayá	5	Chacayá	4	Abril	2023-04-21T00:00:00	2024-11-06T11:00:00	3	Temperatura mínima	19.1
91284	7	Sololá	702	San José Chacayá	5	Chacayá	4	Abril	2023-04-21T00:00:00	2024-11-06T11:00:00	5	Humedad	66
91285	7	Sololá	702	San José Chacayá	5	Chacayá	4	Abril	2023-04-21T00:00:00	2024-11-06T11:00:00	6	Velocidad del viento	4.8
91286	7	Sololá	702	San José Chacayá	5	Chacayá	4	Abril	2023-04-21T00:00:00	2024-11-06T11:00:00	7	Dirección del viento	4.83
91287	7	Sololá	702	San José Chacayá	5	Chacayá	4	Abril	2023-04-21T00:00:00	2024-11-06T11:00:00	1	Precipitación	0
91288	7	Sololá	702	San José Chacayá	5	Chacayá	4	Abril	2023-04-21T00:00:00	2024-11-06T11:00:00	8	Radiación solar	748
91289	7	Sololá	702	San José Chacayá	5	Chacayá	4	Abril	2023-04-21T00:00:00	2024-11-06T12:00:00	2	Temperatura media	21.2
91290	7	Sololá	702	San José Chacayá	5	Chacayá	4	Abril	2023-04-21T00:00:00	2024-11-06T12:00:00	4	Temperatura máxima	21.8
91291	7	Sololá	702	San José Chacayá	5	Chacayá	4	Abril	2023-04-21T00:00:00	2024-11-06T12:00:00	3	Temperatura mínima	20.9
91292	7	Sololá	702	San José Chacayá	5	Chacayá	4	Abril	2023-04-21T00:00:00	2024-11-06T12:00:00	5	Humedad	69
91293	7	Sololá	702	San José Chacayá	5	Chacayá	4	Abril	2023-04-21T00:00:00	2024-11-06T12:00:00	6	Velocidad del viento	4.8
91294	7	Sololá	702	San José Chacayá	5	Chacayá	4	Abril	2023-04-21T00:00:00	2024-11-06T12:00:00	7	Dirección del viento	4.83
91295	7	Sololá	702	San José Chacayá	5	Chacayá	4	Abril	2023-04-21T00:00:00	2024-11-06T12:00:00	1	Precipitación	0
91296	7	Sololá	702	San José Chacayá	5	Chacayá	4	Abril	2023-04-21T00:00:00	2024-11-06T12:00:00	8	Radiación solar	888
91297	7	Sololá	702	San José Chacayá	5	Chacayá	4	Abril	2023-04-21T00:00:00	2024-11-06T13:00:00	2	Temperatura media	19.8
91298	7	Sololá	702	San José Chacayá	5	Chacayá	4	Abril	2023-04-21T00:00:00	2024-11-06T13:00:00	4	Temperatura máxima	21.3
91299	7	Sololá	702	San José Chacayá	5	Chacayá	4	Abril	2023-04-21T00:00:00	2024-11-06T13:00:00	3	Temperatura mínima	19.8
91300	7	Sololá	702	San José Chacayá	5	Chacayá	4	Abril	2023-04-21T00:00:00	2024-11-06T13:00:00	5	Humedad	75
91301	7	Sololá	702	San José Chacayá	5	Chacayá	4	Abril	2023-04-21T00:00:00	2024-11-06T13:00:00	6	Velocidad del viento	8
91302	7	Sololá	702	San José Chacayá	5	Chacayá	4	Abril	2023-04-21T00:00:00	2024-11-06T13:00:00	7	Dirección del viento	8.05
91303	7	Sololá	702	San José Chacayá	5	Chacayá	4	Abril	2023-04-21T00:00:00	2024-11-06T13:00:00	1	Precipitación	0
91304	7	Sololá	702	San José Chacayá	5	Chacayá	4	Abril	2023-04-21T00:00:00	2024-11-06T13:00:00	8	Radiación solar	1003
91305	7	Sololá	702	San José Chacayá	5	Chacayá	4	Abril	2023-04-21T00:00:00	2024-11-06T14:00:00	2	Temperatura media	18.8
91306	7	Sololá	702	San José Chacayá	5	Chacayá	4	Abril	2023-04-21T00:00:00	2024-11-06T14:00:00	4	Temperatura máxima	19.7
91307	7	Sololá	702	San José Chacayá	5	Chacayá	4	Abril	2023-04-21T00:00:00	2024-11-06T14:00:00	3	Temperatura mínima	18.8
91308	7	Sololá	702	San José Chacayá	5	Chacayá	4	Abril	2023-04-21T00:00:00	2024-11-06T14:00:00	5	Humedad	77
91309	7	Sololá	702	San José Chacayá	5	Chacayá	4	Abril	2023-04-21T00:00:00	2024-11-06T14:00:00	6	Velocidad del viento	8
91310	7	Sololá	702	San José Chacayá	5	Chacayá	4	Abril	2023-04-21T00:00:00	2024-11-06T14:00:00	7	Dirección del viento	8.05
91311	7	Sololá	702	San José Chacayá	5	Chacayá	4	Abril	2023-04-21T00:00:00	2024-11-06T14:00:00	1	Precipitación	0
91312	7	Sololá	702	San José Chacayá	5	Chacayá	4	Abril	2023-04-21T00:00:00	2024-11-06T14:00:00	8	Radiación solar	452
91313	7	Sololá	702	San José Chacayá	5	Chacayá	4	Abril	2023-04-21T00:00:00	2024-11-06T15:00:00	2	Temperatura media	19.1
91314	7	Sololá	702	San José Chacayá	5	Chacayá	4	Abril	2023-04-21T00:00:00	2024-11-06T15:00:00	4	Temperatura máxima	19.6
91315	7	Sololá	702	San José Chacayá	5	Chacayá	4	Abril	2023-04-21T00:00:00	2024-11-06T15:00:00	3	Temperatura mínima	18.7
91316	7	Sololá	702	San José Chacayá	5	Chacayá	4	Abril	2023-04-21T00:00:00	2024-11-06T15:00:00	5	Humedad	77
91317	7	Sololá	702	San José Chacayá	5	Chacayá	4	Abril	2023-04-21T00:00:00	2024-11-06T15:00:00	6	Velocidad del viento	6.4
91318	7	Sololá	702	San José Chacayá	5	Chacayá	4	Abril	2023-04-21T00:00:00	2024-11-06T15:00:00	7	Dirección del viento	6.44
91319	7	Sololá	702	San José Chacayá	5	Chacayá	4	Abril	2023-04-21T00:00:00	2024-11-06T15:00:00	1	Precipitación	0
91320	7	Sololá	702	San José Chacayá	5	Chacayá	4	Abril	2023-04-21T00:00:00	2024-11-06T15:00:00	8	Radiación solar	424
91321	7	Sololá	702	San José Chacayá	5	Chacayá	4	Abril	2023-04-21T00:00:00	2024-11-06T16:00:00	2	Temperatura media	18.2
91322	7	Sololá	702	San José Chacayá	5	Chacayá	4	Abril	2023-04-21T00:00:00	2024-11-06T16:00:00	4	Temperatura máxima	19.1
91323	7	Sololá	702	San José Chacayá	5	Chacayá	4	Abril	2023-04-21T00:00:00	2024-11-06T16:00:00	3	Temperatura mínima	17.8
91324	7	Sololá	702	San José Chacayá	5	Chacayá	4	Abril	2023-04-21T00:00:00	2024-11-06T16:00:00	5	Humedad	80
91325	7	Sololá	702	San José Chacayá	5	Chacayá	4	Abril	2023-04-21T00:00:00	2024-11-06T16:00:00	6	Velocidad del viento	6.4
91326	7	Sololá	702	San José Chacayá	5	Chacayá	4	Abril	2023-04-21T00:00:00	2024-11-06T16:00:00	7	Dirección del viento	6.44
91327	7	Sololá	702	San José Chacayá	5	Chacayá	4	Abril	2023-04-21T00:00:00	2024-11-06T16:00:00	1	Precipitación	0
91328	7	Sololá	702	San José Chacayá	5	Chacayá	4	Abril	2023-04-21T00:00:00	2024-11-06T16:00:00	8	Radiación solar	305
91329	7	Sololá	702	San José Chacayá	5	Chacayá	4	Abril	2023-04-21T00:00:00	2024-11-06T17:00:00	2	Temperatura media	17.9
91330	7	Sololá	702	San José Chacayá	5	Chacayá	4	Abril	2023-04-21T00:00:00	2024-11-06T17:00:00	4	Temperatura máxima	19
91331	7	Sololá	702	San José Chacayá	5	Chacayá	4	Abril	2023-04-21T00:00:00	2024-11-06T17:00:00	3	Temperatura mínima	17.9
91332	7	Sololá	702	San José Chacayá	5	Chacayá	4	Abril	2023-04-21T00:00:00	2024-11-06T17:00:00	5	Humedad	80
91333	7	Sololá	702	San José Chacayá	5	Chacayá	4	Abril	2023-04-21T00:00:00	2024-11-06T17:00:00	6	Velocidad del viento	3.2
91334	7	Sololá	702	San José Chacayá	5	Chacayá	4	Abril	2023-04-21T00:00:00	2024-11-06T17:00:00	7	Dirección del viento	3.22
91335	7	Sololá	702	San José Chacayá	5	Chacayá	4	Abril	2023-04-21T00:00:00	2024-11-06T17:00:00	1	Precipitación	0
91336	7	Sololá	702	San José Chacayá	5	Chacayá	4	Abril	2023-04-21T00:00:00	2024-11-06T17:00:00	8	Radiación solar	294
91337	7	Sololá	702	San José Chacayá	5	Chacayá	4	Abril	2023-04-21T00:00:00	2024-11-06T18:00:00	2	Temperatura media	17.4
91338	7	Sololá	702	San José Chacayá	5	Chacayá	4	Abril	2023-04-21T00:00:00	2024-11-06T18:00:00	4	Temperatura máxima	17.9
91339	7	Sololá	702	San José Chacayá	5	Chacayá	4	Abril	2023-04-21T00:00:00	2024-11-06T18:00:00	3	Temperatura mínima	17.3
91340	7	Sololá	702	San José Chacayá	5	Chacayá	4	Abril	2023-04-21T00:00:00	2024-11-06T18:00:00	5	Humedad	82
91341	7	Sololá	702	San José Chacayá	5	Chacayá	4	Abril	2023-04-21T00:00:00	2024-11-06T18:00:00	6	Velocidad del viento	1.6
91342	7	Sololá	702	San José Chacayá	5	Chacayá	4	Abril	2023-04-21T00:00:00	2024-11-06T18:00:00	7	Dirección del viento	1.61
91343	7	Sololá	702	San José Chacayá	5	Chacayá	4	Abril	2023-04-21T00:00:00	2024-11-06T18:00:00	1	Precipitación	0
91344	7	Sololá	702	San José Chacayá	5	Chacayá	4	Abril	2023-04-21T00:00:00	2024-11-06T18:00:00	8	Radiación solar	76
91345	7	Sololá	702	San José Chacayá	5	Chacayá	4	Abril	2023-04-21T00:00:00	2024-11-06T19:00:00	2	Temperatura media	16.6
91346	7	Sololá	702	San José Chacayá	5	Chacayá	4	Abril	2023-04-21T00:00:00	2024-11-06T19:00:00	4	Temperatura máxima	17.4
91347	7	Sololá	702	San José Chacayá	5	Chacayá	4	Abril	2023-04-21T00:00:00	2024-11-06T19:00:00	3	Temperatura mínima	16.6
91348	7	Sololá	702	San José Chacayá	5	Chacayá	4	Abril	2023-04-21T00:00:00	2024-11-06T19:00:00	5	Humedad	82
91349	7	Sololá	702	San José Chacayá	5	Chacayá	4	Abril	2023-04-21T00:00:00	2024-11-06T19:00:00	6	Velocidad del viento	1.6
91350	7	Sololá	702	San José Chacayá	5	Chacayá	4	Abril	2023-04-21T00:00:00	2024-11-06T19:00:00	7	Dirección del viento	1.61
91351	7	Sololá	702	San José Chacayá	5	Chacayá	4	Abril	2023-04-21T00:00:00	2024-11-06T19:00:00	1	Precipitación	0
91352	7	Sololá	702	San José Chacayá	5	Chacayá	4	Abril	2023-04-21T00:00:00	2024-11-06T19:00:00	8	Radiación solar	0
91353	7	Sololá	702	San José Chacayá	5	Chacayá	4	Abril	2023-04-21T00:00:00	2024-11-06T20:00:00	2	Temperatura media	16.2
91354	7	Sololá	702	San José Chacayá	5	Chacayá	4	Abril	2023-04-21T00:00:00	2024-11-06T20:00:00	4	Temperatura máxima	16.6
91355	7	Sololá	702	San José Chacayá	5	Chacayá	4	Abril	2023-04-21T00:00:00	2024-11-06T20:00:00	3	Temperatura mínima	16.2
91356	7	Sololá	702	San José Chacayá	5	Chacayá	4	Abril	2023-04-21T00:00:00	2024-11-06T20:00:00	5	Humedad	78
91357	7	Sololá	702	San José Chacayá	5	Chacayá	4	Abril	2023-04-21T00:00:00	2024-11-06T20:00:00	6	Velocidad del viento	0
91358	7	Sololá	702	San José Chacayá	5	Chacayá	4	Abril	2023-04-21T00:00:00	2024-11-06T20:00:00	7	Dirección del viento	0
91359	7	Sololá	702	San José Chacayá	5	Chacayá	4	Abril	2023-04-21T00:00:00	2024-11-06T20:00:00	1	Precipitación	0
91360	7	Sololá	702	San José Chacayá	5	Chacayá	4	Abril	2023-04-21T00:00:00	2024-11-06T20:00:00	8	Radiación solar	0
91361	7	Sololá	702	San José Chacayá	5	Chacayá	4	Abril	2023-04-21T00:00:00	2024-11-06T21:00:00	2	Temperatura media	15.5
91362	7	Sololá	702	San José Chacayá	5	Chacayá	4	Abril	2023-04-21T00:00:00	2024-11-06T21:00:00	4	Temperatura máxima	16.2
91363	7	Sololá	702	San José Chacayá	5	Chacayá	4	Abril	2023-04-21T00:00:00	2024-11-06T21:00:00	3	Temperatura mínima	15.5
91364	7	Sololá	702	San José Chacayá	5	Chacayá	4	Abril	2023-04-21T00:00:00	2024-11-06T21:00:00	5	Humedad	78
91365	7	Sololá	702	San José Chacayá	5	Chacayá	4	Abril	2023-04-21T00:00:00	2024-11-06T21:00:00	6	Velocidad del viento	0
91366	7	Sololá	702	San José Chacayá	5	Chacayá	4	Abril	2023-04-21T00:00:00	2024-11-06T21:00:00	7	Dirección del viento	0
91367	7	Sololá	702	San José Chacayá	5	Chacayá	4	Abril	2023-04-21T00:00:00	2024-11-06T21:00:00	1	Precipitación	0
91368	7	Sololá	702	San José Chacayá	5	Chacayá	4	Abril	2023-04-21T00:00:00	2024-11-06T21:00:00	8	Radiación solar	0
91369	7	Sololá	702	San José Chacayá	5	Chacayá	4	Abril	2023-04-21T00:00:00	2024-11-06T22:00:00	2	Temperatura media	14.6
91370	7	Sololá	702	San José Chacayá	5	Chacayá	4	Abril	2023-04-21T00:00:00	2024-11-06T22:00:00	4	Temperatura máxima	15.5
91371	7	Sololá	702	San José Chacayá	5	Chacayá	4	Abril	2023-04-21T00:00:00	2024-11-06T22:00:00	3	Temperatura mínima	14.6
91372	7	Sololá	702	San José Chacayá	5	Chacayá	4	Abril	2023-04-21T00:00:00	2024-11-06T22:00:00	5	Humedad	82
91373	7	Sololá	702	San José Chacayá	5	Chacayá	4	Abril	2023-04-21T00:00:00	2024-11-06T22:00:00	6	Velocidad del viento	1.6
91374	7	Sololá	702	San José Chacayá	5	Chacayá	4	Abril	2023-04-21T00:00:00	2024-11-06T22:00:00	7	Dirección del viento	1.61
91375	7	Sololá	702	San José Chacayá	5	Chacayá	4	Abril	2023-04-21T00:00:00	2024-11-06T22:00:00	1	Precipitación	0
91376	7	Sololá	702	San José Chacayá	5	Chacayá	4	Abril	2023-04-21T00:00:00	2024-11-06T22:00:00	8	Radiación solar	0
91377	7	Sololá	702	San José Chacayá	5	Chacayá	4	Abril	2023-04-21T00:00:00	2024-11-06T23:00:00	2	Temperatura media	13.1
91378	7	Sololá	702	San José Chacayá	5	Chacayá	4	Abril	2023-04-21T00:00:00	2024-11-06T23:00:00	4	Temperatura máxima	14.6
91379	7	Sololá	702	San José Chacayá	5	Chacayá	4	Abril	2023-04-21T00:00:00	2024-11-06T23:00:00	3	Temperatura mínima	13.1
91380	7	Sololá	702	San José Chacayá	5	Chacayá	4	Abril	2023-04-21T00:00:00	2024-11-06T23:00:00	5	Humedad	83
91381	7	Sololá	702	San José Chacayá	5	Chacayá	4	Abril	2023-04-21T00:00:00	2024-11-06T23:00:00	6	Velocidad del viento	3.2
91382	7	Sololá	702	San José Chacayá	5	Chacayá	4	Abril	2023-04-21T00:00:00	2024-11-06T23:00:00	7	Dirección del viento	3.22
91383	7	Sololá	702	San José Chacayá	5	Chacayá	4	Abril	2023-04-21T00:00:00	2024-11-06T23:00:00	1	Precipitación	0
91384	7	Sololá	702	San José Chacayá	5	Chacayá	4	Abril	2023-04-21T00:00:00	2024-11-06T23:00:00	8	Radiación solar	0
91385	7	Sololá	702	San José Chacayá	5	Chacayá	4	Abril	2023-04-22T00:00:00	2024-11-06T00:00:00	2	Temperatura media	12
91386	7	Sololá	702	San José Chacayá	5	Chacayá	4	Abril	2023-04-22T00:00:00	2024-11-06T00:00:00	4	Temperatura máxima	13.1
91387	7	Sololá	702	San José Chacayá	5	Chacayá	4	Abril	2023-04-22T00:00:00	2024-11-06T00:00:00	3	Temperatura mínima	12
91388	7	Sololá	702	San José Chacayá	5	Chacayá	4	Abril	2023-04-22T00:00:00	2024-11-06T00:00:00	5	Humedad	83
91389	7	Sololá	702	San José Chacayá	5	Chacayá	4	Abril	2023-04-22T00:00:00	2024-11-06T00:00:00	6	Velocidad del viento	3.2
91390	7	Sololá	702	San José Chacayá	5	Chacayá	4	Abril	2023-04-22T00:00:00	2024-11-06T00:00:00	7	Dirección del viento	3.22
91391	7	Sololá	702	San José Chacayá	5	Chacayá	4	Abril	2023-04-22T00:00:00	2024-11-06T00:00:00	1	Precipitación	0
91392	7	Sololá	702	San José Chacayá	5	Chacayá	4	Abril	2023-04-22T00:00:00	2024-11-06T00:00:00	8	Radiación solar	0
91393	7	Sololá	702	San José Chacayá	5	Chacayá	4	Abril	2023-04-22T00:00:00	2024-11-06T01:00:00	2	Temperatura media	10.7
91394	7	Sololá	702	San José Chacayá	5	Chacayá	4	Abril	2023-04-22T00:00:00	2024-11-06T01:00:00	4	Temperatura máxima	12
91395	7	Sololá	702	San José Chacayá	5	Chacayá	4	Abril	2023-04-22T00:00:00	2024-11-06T01:00:00	3	Temperatura mínima	10.7
91396	7	Sololá	702	San José Chacayá	5	Chacayá	4	Abril	2023-04-22T00:00:00	2024-11-06T01:00:00	5	Humedad	84
91397	7	Sololá	702	San José Chacayá	5	Chacayá	4	Abril	2023-04-22T00:00:00	2024-11-06T01:00:00	6	Velocidad del viento	3.2
91398	7	Sololá	702	San José Chacayá	5	Chacayá	4	Abril	2023-04-22T00:00:00	2024-11-06T01:00:00	7	Dirección del viento	3.22
91399	7	Sololá	702	San José Chacayá	5	Chacayá	4	Abril	2023-04-22T00:00:00	2024-11-06T01:00:00	1	Precipitación	0
91400	7	Sololá	702	San José Chacayá	5	Chacayá	4	Abril	2023-04-22T00:00:00	2024-11-06T01:00:00	8	Radiación solar	0
91401	7	Sololá	702	San José Chacayá	5	Chacayá	4	Abril	2023-04-22T00:00:00	2024-11-06T02:00:00	2	Temperatura media	9.8
91402	7	Sololá	702	San José Chacayá	5	Chacayá	4	Abril	2023-04-22T00:00:00	2024-11-06T02:00:00	4	Temperatura máxima	10.7
91403	7	Sololá	702	San José Chacayá	5	Chacayá	4	Abril	2023-04-22T00:00:00	2024-11-06T02:00:00	3	Temperatura mínima	9.8
91404	7	Sololá	702	San José Chacayá	5	Chacayá	4	Abril	2023-04-22T00:00:00	2024-11-06T02:00:00	5	Humedad	85
91405	7	Sololá	702	San José Chacayá	5	Chacayá	4	Abril	2023-04-22T00:00:00	2024-11-06T02:00:00	6	Velocidad del viento	3.2
91406	7	Sololá	702	San José Chacayá	5	Chacayá	4	Abril	2023-04-22T00:00:00	2024-11-06T02:00:00	7	Dirección del viento	3.22
91407	7	Sololá	702	San José Chacayá	5	Chacayá	4	Abril	2023-04-22T00:00:00	2024-11-06T02:00:00	1	Precipitación	0
91408	7	Sololá	702	San José Chacayá	5	Chacayá	4	Abril	2023-04-22T00:00:00	2024-11-06T02:00:00	8	Radiación solar	0
91409	7	Sololá	702	San José Chacayá	5	Chacayá	4	Abril	2023-04-22T00:00:00	2024-11-06T03:00:00	2	Temperatura media	9.8
91410	7	Sololá	702	San José Chacayá	5	Chacayá	4	Abril	2023-04-22T00:00:00	2024-11-06T03:00:00	4	Temperatura máxima	9.9
91411	7	Sololá	702	San José Chacayá	5	Chacayá	4	Abril	2023-04-22T00:00:00	2024-11-06T03:00:00	3	Temperatura mínima	9.6
91412	7	Sololá	702	San José Chacayá	5	Chacayá	4	Abril	2023-04-22T00:00:00	2024-11-06T03:00:00	5	Humedad	85
91413	7	Sololá	702	San José Chacayá	5	Chacayá	4	Abril	2023-04-22T00:00:00	2024-11-06T03:00:00	6	Velocidad del viento	4.8
91414	7	Sololá	702	San José Chacayá	5	Chacayá	4	Abril	2023-04-22T00:00:00	2024-11-06T03:00:00	7	Dirección del viento	4.83
91415	7	Sololá	702	San José Chacayá	5	Chacayá	4	Abril	2023-04-22T00:00:00	2024-11-06T03:00:00	1	Precipitación	0
91416	7	Sololá	702	San José Chacayá	5	Chacayá	4	Abril	2023-04-22T00:00:00	2024-11-06T03:00:00	8	Radiación solar	0
91417	7	Sololá	702	San José Chacayá	5	Chacayá	4	Abril	2023-04-22T00:00:00	2024-11-06T04:00:00	2	Temperatura media	10.1
91418	7	Sololá	702	San José Chacayá	5	Chacayá	4	Abril	2023-04-22T00:00:00	2024-11-06T04:00:00	4	Temperatura máxima	10.4
91419	7	Sololá	702	San José Chacayá	5	Chacayá	4	Abril	2023-04-22T00:00:00	2024-11-06T04:00:00	3	Temperatura mínima	9.9
91420	7	Sololá	702	San José Chacayá	5	Chacayá	4	Abril	2023-04-22T00:00:00	2024-11-06T04:00:00	5	Humedad	84
91421	7	Sololá	702	San José Chacayá	5	Chacayá	4	Abril	2023-04-22T00:00:00	2024-11-06T04:00:00	6	Velocidad del viento	4.8
91422	7	Sololá	702	San José Chacayá	5	Chacayá	4	Abril	2023-04-22T00:00:00	2024-11-06T04:00:00	7	Dirección del viento	4.83
91423	7	Sololá	702	San José Chacayá	5	Chacayá	4	Abril	2023-04-22T00:00:00	2024-11-06T04:00:00	1	Precipitación	0
91424	7	Sololá	702	San José Chacayá	5	Chacayá	4	Abril	2023-04-22T00:00:00	2024-11-06T04:00:00	8	Radiación solar	0
91425	7	Sololá	702	San José Chacayá	5	Chacayá	4	Abril	2023-04-22T00:00:00	2024-11-06T05:00:00	2	Temperatura media	9.9
91426	7	Sololá	702	San José Chacayá	5	Chacayá	4	Abril	2023-04-22T00:00:00	2024-11-06T05:00:00	4	Temperatura máxima	10.1
91427	7	Sololá	702	San José Chacayá	5	Chacayá	4	Abril	2023-04-22T00:00:00	2024-11-06T05:00:00	3	Temperatura mínima	9.5
91428	7	Sololá	702	San José Chacayá	5	Chacayá	4	Abril	2023-04-22T00:00:00	2024-11-06T05:00:00	5	Humedad	85
91429	7	Sololá	702	San José Chacayá	5	Chacayá	4	Abril	2023-04-22T00:00:00	2024-11-06T05:00:00	6	Velocidad del viento	4.8
91430	7	Sololá	702	San José Chacayá	5	Chacayá	4	Abril	2023-04-22T00:00:00	2024-11-06T05:00:00	7	Dirección del viento	4.83
91431	7	Sololá	702	San José Chacayá	5	Chacayá	4	Abril	2023-04-22T00:00:00	2024-11-06T05:00:00	1	Precipitación	0
91432	7	Sololá	702	San José Chacayá	5	Chacayá	4	Abril	2023-04-22T00:00:00	2024-11-06T05:00:00	8	Radiación solar	0
91433	7	Sololá	702	San José Chacayá	5	Chacayá	4	Abril	2023-04-22T00:00:00	2024-11-06T06:00:00	2	Temperatura media	9.3
91434	7	Sololá	702	San José Chacayá	5	Chacayá	4	Abril	2023-04-22T00:00:00	2024-11-06T06:00:00	4	Temperatura máxima	9.9
91435	7	Sololá	702	San José Chacayá	5	Chacayá	4	Abril	2023-04-22T00:00:00	2024-11-06T06:00:00	3	Temperatura mínima	9.3
91436	7	Sololá	702	San José Chacayá	5	Chacayá	4	Abril	2023-04-22T00:00:00	2024-11-06T06:00:00	5	Humedad	85
91437	7	Sololá	702	San José Chacayá	5	Chacayá	4	Abril	2023-04-22T00:00:00	2024-11-06T06:00:00	6	Velocidad del viento	4.8
91438	7	Sololá	702	San José Chacayá	5	Chacayá	4	Abril	2023-04-22T00:00:00	2024-11-06T06:00:00	7	Dirección del viento	4.83
91439	7	Sololá	702	San José Chacayá	5	Chacayá	4	Abril	2023-04-22T00:00:00	2024-11-06T06:00:00	1	Precipitación	0
91440	7	Sololá	702	San José Chacayá	5	Chacayá	4	Abril	2023-04-22T00:00:00	2024-11-06T06:00:00	8	Radiación solar	0
91441	7	Sololá	702	San José Chacayá	5	Chacayá	4	Abril	2023-04-22T00:00:00	2024-11-06T07:00:00	2	Temperatura media	9.2
91442	7	Sololá	702	San José Chacayá	5	Chacayá	4	Abril	2023-04-22T00:00:00	2024-11-06T07:00:00	4	Temperatura máxima	9.6
91443	7	Sololá	702	San José Chacayá	5	Chacayá	4	Abril	2023-04-22T00:00:00	2024-11-06T07:00:00	3	Temperatura mínima	9.1
91444	7	Sololá	702	San José Chacayá	5	Chacayá	4	Abril	2023-04-22T00:00:00	2024-11-06T07:00:00	5	Humedad	84
91445	7	Sololá	702	San José Chacayá	5	Chacayá	4	Abril	2023-04-22T00:00:00	2024-11-06T07:00:00	6	Velocidad del viento	4.8
91446	7	Sololá	702	San José Chacayá	5	Chacayá	4	Abril	2023-04-22T00:00:00	2024-11-06T07:00:00	7	Dirección del viento	4.83
91447	7	Sololá	702	San José Chacayá	5	Chacayá	4	Abril	2023-04-22T00:00:00	2024-11-06T07:00:00	1	Precipitación	0
91448	7	Sololá	702	San José Chacayá	5	Chacayá	4	Abril	2023-04-22T00:00:00	2024-11-06T07:00:00	8	Radiación solar	3
91449	7	Sololá	702	San José Chacayá	5	Chacayá	4	Abril	2023-04-22T00:00:00	2024-11-06T08:00:00	2	Temperatura media	11.1
91450	7	Sololá	702	San José Chacayá	5	Chacayá	4	Abril	2023-04-22T00:00:00	2024-11-06T08:00:00	4	Temperatura máxima	11.1
91451	7	Sololá	702	San José Chacayá	5	Chacayá	4	Abril	2023-04-22T00:00:00	2024-11-06T08:00:00	3	Temperatura mínima	9.2
91452	7	Sololá	702	San José Chacayá	5	Chacayá	4	Abril	2023-04-22T00:00:00	2024-11-06T08:00:00	5	Humedad	82
91453	7	Sololá	702	San José Chacayá	5	Chacayá	4	Abril	2023-04-22T00:00:00	2024-11-06T08:00:00	6	Velocidad del viento	3.2
91454	7	Sololá	702	San José Chacayá	5	Chacayá	4	Abril	2023-04-22T00:00:00	2024-11-06T08:00:00	7	Dirección del viento	3.22
91455	7	Sololá	702	San José Chacayá	5	Chacayá	4	Abril	2023-04-22T00:00:00	2024-11-06T08:00:00	1	Precipitación	0
91456	7	Sololá	702	San José Chacayá	5	Chacayá	4	Abril	2023-04-22T00:00:00	2024-11-06T08:00:00	8	Radiación solar	27
91457	7	Sololá	702	San José Chacayá	5	Chacayá	4	Abril	2023-04-22T00:00:00	2024-11-06T09:00:00	2	Temperatura media	16.6
91458	7	Sololá	702	San José Chacayá	5	Chacayá	4	Abril	2023-04-22T00:00:00	2024-11-06T09:00:00	4	Temperatura máxima	16.6
91459	7	Sololá	702	San José Chacayá	5	Chacayá	4	Abril	2023-04-22T00:00:00	2024-11-06T09:00:00	3	Temperatura mínima	11.1
91460	7	Sololá	702	San José Chacayá	5	Chacayá	4	Abril	2023-04-22T00:00:00	2024-11-06T09:00:00	5	Humedad	68
91461	7	Sololá	702	San José Chacayá	5	Chacayá	4	Abril	2023-04-22T00:00:00	2024-11-06T09:00:00	6	Velocidad del viento	1.6
91462	7	Sololá	702	San José Chacayá	5	Chacayá	4	Abril	2023-04-22T00:00:00	2024-11-06T09:00:00	7	Dirección del viento	1.61
91463	7	Sololá	702	San José Chacayá	5	Chacayá	4	Abril	2023-04-22T00:00:00	2024-11-06T09:00:00	1	Precipitación	0
91464	7	Sololá	702	San José Chacayá	5	Chacayá	4	Abril	2023-04-22T00:00:00	2024-11-06T09:00:00	8	Radiación solar	56
91465	7	Sololá	702	San José Chacayá	5	Chacayá	4	Abril	2023-04-22T00:00:00	2024-11-06T10:00:00	2	Temperatura media	21.4
91466	7	Sololá	702	San José Chacayá	5	Chacayá	4	Abril	2023-04-22T00:00:00	2024-11-06T10:00:00	4	Temperatura máxima	21.4
91467	7	Sololá	702	San José Chacayá	5	Chacayá	4	Abril	2023-04-22T00:00:00	2024-11-06T10:00:00	3	Temperatura mínima	16.6
91468	7	Sololá	702	San José Chacayá	5	Chacayá	4	Abril	2023-04-22T00:00:00	2024-11-06T10:00:00	5	Humedad	45
91469	7	Sololá	702	San José Chacayá	5	Chacayá	4	Abril	2023-04-22T00:00:00	2024-11-06T10:00:00	6	Velocidad del viento	3.2
91470	7	Sololá	702	San José Chacayá	5	Chacayá	4	Abril	2023-04-22T00:00:00	2024-11-06T10:00:00	7	Dirección del viento	3.22
91471	7	Sololá	702	San José Chacayá	5	Chacayá	4	Abril	2023-04-22T00:00:00	2024-11-06T10:00:00	1	Precipitación	0
91472	7	Sololá	702	San José Chacayá	5	Chacayá	4	Abril	2023-04-22T00:00:00	2024-11-06T10:00:00	8	Radiación solar	495
91473	7	Sololá	702	San José Chacayá	5	Chacayá	4	Abril	2023-04-22T00:00:00	2024-11-06T11:00:00	2	Temperatura media	22.9
91474	7	Sololá	702	San José Chacayá	5	Chacayá	4	Abril	2023-04-22T00:00:00	2024-11-06T11:00:00	4	Temperatura máxima	22.9
91475	7	Sololá	702	San José Chacayá	5	Chacayá	4	Abril	2023-04-22T00:00:00	2024-11-06T11:00:00	3	Temperatura mínima	21.4
91476	7	Sololá	702	San José Chacayá	5	Chacayá	4	Abril	2023-04-22T00:00:00	2024-11-06T11:00:00	5	Humedad	38
91477	7	Sololá	702	San José Chacayá	5	Chacayá	4	Abril	2023-04-22T00:00:00	2024-11-06T11:00:00	6	Velocidad del viento	8
91478	7	Sololá	702	San José Chacayá	5	Chacayá	4	Abril	2023-04-22T00:00:00	2024-11-06T11:00:00	7	Dirección del viento	8.05
91479	7	Sololá	702	San José Chacayá	5	Chacayá	4	Abril	2023-04-22T00:00:00	2024-11-06T11:00:00	1	Precipitación	0
91480	7	Sololá	702	San José Chacayá	5	Chacayá	4	Abril	2023-04-22T00:00:00	2024-11-06T11:00:00	8	Radiación solar	780
91481	7	Sololá	702	San José Chacayá	5	Chacayá	4	Abril	2023-04-22T00:00:00	2024-11-06T12:00:00	2	Temperatura media	23.6
91482	7	Sololá	702	San José Chacayá	5	Chacayá	4	Abril	2023-04-22T00:00:00	2024-11-06T12:00:00	4	Temperatura máxima	23.6
91483	7	Sololá	702	San José Chacayá	5	Chacayá	4	Abril	2023-04-22T00:00:00	2024-11-06T12:00:00	3	Temperatura mínima	22.9
91484	7	Sololá	702	San José Chacayá	5	Chacayá	4	Abril	2023-04-22T00:00:00	2024-11-06T12:00:00	5	Humedad	42
91485	7	Sololá	702	San José Chacayá	5	Chacayá	4	Abril	2023-04-22T00:00:00	2024-11-06T12:00:00	6	Velocidad del viento	9.7
91486	7	Sololá	702	San José Chacayá	5	Chacayá	4	Abril	2023-04-22T00:00:00	2024-11-06T12:00:00	7	Dirección del viento	9.66
91487	7	Sololá	702	San José Chacayá	5	Chacayá	4	Abril	2023-04-22T00:00:00	2024-11-06T12:00:00	1	Precipitación	0
91488	7	Sololá	702	San José Chacayá	5	Chacayá	4	Abril	2023-04-22T00:00:00	2024-11-06T12:00:00	8	Radiación solar	922
91489	7	Sololá	702	San José Chacayá	5	Chacayá	4	Abril	2023-04-22T00:00:00	2024-11-06T13:00:00	2	Temperatura media	23.7
91490	7	Sololá	702	San José Chacayá	5	Chacayá	4	Abril	2023-04-22T00:00:00	2024-11-06T13:00:00	4	Temperatura máxima	24.3
91491	7	Sololá	702	San José Chacayá	5	Chacayá	4	Abril	2023-04-22T00:00:00	2024-11-06T13:00:00	3	Temperatura mínima	23.6
91492	7	Sololá	702	San José Chacayá	5	Chacayá	4	Abril	2023-04-22T00:00:00	2024-11-06T13:00:00	5	Humedad	54
91493	7	Sololá	702	San José Chacayá	5	Chacayá	4	Abril	2023-04-22T00:00:00	2024-11-06T13:00:00	6	Velocidad del viento	8
91494	7	Sololá	702	San José Chacayá	5	Chacayá	4	Abril	2023-04-22T00:00:00	2024-11-06T13:00:00	7	Dirección del viento	8.05
91495	7	Sololá	702	San José Chacayá	5	Chacayá	4	Abril	2023-04-22T00:00:00	2024-11-06T13:00:00	1	Precipitación	0
91496	7	Sololá	702	San José Chacayá	5	Chacayá	4	Abril	2023-04-22T00:00:00	2024-11-06T13:00:00	8	Radiación solar	973
91497	7	Sololá	702	San José Chacayá	5	Chacayá	4	Abril	2023-04-22T00:00:00	2024-11-06T14:00:00	2	Temperatura media	22.6
91498	7	Sololá	702	San José Chacayá	5	Chacayá	4	Abril	2023-04-22T00:00:00	2024-11-06T14:00:00	4	Temperatura máxima	23.7
91499	7	Sololá	702	San José Chacayá	5	Chacayá	4	Abril	2023-04-22T00:00:00	2024-11-06T14:00:00	3	Temperatura mínima	22.6
91500	7	Sololá	702	San José Chacayá	5	Chacayá	4	Abril	2023-04-22T00:00:00	2024-11-06T14:00:00	5	Humedad	65
91501	7	Sololá	702	San José Chacayá	5	Chacayá	4	Abril	2023-04-22T00:00:00	2024-11-06T14:00:00	6	Velocidad del viento	8
91502	7	Sololá	702	San José Chacayá	5	Chacayá	4	Abril	2023-04-22T00:00:00	2024-11-06T14:00:00	7	Dirección del viento	8.05
91503	7	Sololá	702	San José Chacayá	5	Chacayá	4	Abril	2023-04-22T00:00:00	2024-11-06T14:00:00	1	Precipitación	0
91504	7	Sololá	702	San José Chacayá	5	Chacayá	4	Abril	2023-04-22T00:00:00	2024-11-06T14:00:00	8	Radiación solar	973
91505	7	Sololá	702	San José Chacayá	5	Chacayá	4	Abril	2023-04-22T00:00:00	2024-11-06T15:00:00	2	Temperatura media	21
91506	7	Sololá	702	San José Chacayá	5	Chacayá	4	Abril	2023-04-22T00:00:00	2024-11-06T15:00:00	4	Temperatura máxima	22.6
91507	7	Sololá	702	San José Chacayá	5	Chacayá	4	Abril	2023-04-22T00:00:00	2024-11-06T15:00:00	3	Temperatura mínima	20.9
91508	7	Sololá	702	San José Chacayá	5	Chacayá	4	Abril	2023-04-22T00:00:00	2024-11-06T15:00:00	5	Humedad	73
91509	7	Sololá	702	San José Chacayá	5	Chacayá	4	Abril	2023-04-22T00:00:00	2024-11-06T15:00:00	6	Velocidad del viento	8
91510	7	Sololá	702	San José Chacayá	5	Chacayá	4	Abril	2023-04-22T00:00:00	2024-11-06T15:00:00	7	Dirección del viento	8.05
91511	7	Sololá	702	San José Chacayá	5	Chacayá	4	Abril	2023-04-22T00:00:00	2024-11-06T15:00:00	1	Precipitación	0
91512	7	Sololá	702	San José Chacayá	5	Chacayá	4	Abril	2023-04-22T00:00:00	2024-11-06T15:00:00	8	Radiación solar	874
91513	7	Sololá	702	San José Chacayá	5	Chacayá	4	Abril	2023-04-22T00:00:00	2024-11-06T16:00:00	2	Temperatura media	20.2
91514	7	Sololá	702	San José Chacayá	5	Chacayá	4	Abril	2023-04-22T00:00:00	2024-11-06T16:00:00	4	Temperatura máxima	21.4
91515	7	Sololá	702	San José Chacayá	5	Chacayá	4	Abril	2023-04-22T00:00:00	2024-11-06T16:00:00	3	Temperatura mínima	20.1
91516	7	Sololá	702	San José Chacayá	5	Chacayá	4	Abril	2023-04-22T00:00:00	2024-11-06T16:00:00	5	Humedad	76
91517	7	Sololá	702	San José Chacayá	5	Chacayá	4	Abril	2023-04-22T00:00:00	2024-11-06T16:00:00	6	Velocidad del viento	4.8
91518	7	Sololá	702	San José Chacayá	5	Chacayá	4	Abril	2023-04-22T00:00:00	2024-11-06T16:00:00	7	Dirección del viento	4.83
91519	7	Sololá	702	San José Chacayá	5	Chacayá	4	Abril	2023-04-22T00:00:00	2024-11-06T16:00:00	1	Precipitación	0
91520	7	Sololá	702	San José Chacayá	5	Chacayá	4	Abril	2023-04-22T00:00:00	2024-11-06T16:00:00	8	Radiación solar	411
91521	7	Sololá	702	San José Chacayá	5	Chacayá	4	Abril	2023-04-22T00:00:00	2024-11-06T17:00:00	2	Temperatura media	19.2
91522	7	Sololá	702	San José Chacayá	5	Chacayá	4	Abril	2023-04-22T00:00:00	2024-11-06T17:00:00	4	Temperatura máxima	20.6
91523	7	Sololá	702	San José Chacayá	5	Chacayá	4	Abril	2023-04-22T00:00:00	2024-11-06T17:00:00	3	Temperatura mínima	19.1
91524	7	Sololá	702	San José Chacayá	5	Chacayá	4	Abril	2023-04-22T00:00:00	2024-11-06T17:00:00	5	Humedad	80
91525	7	Sololá	702	San José Chacayá	5	Chacayá	4	Abril	2023-04-22T00:00:00	2024-11-06T17:00:00	6	Velocidad del viento	4.8
91526	7	Sololá	702	San José Chacayá	5	Chacayá	4	Abril	2023-04-22T00:00:00	2024-11-06T17:00:00	7	Dirección del viento	4.83
91527	7	Sololá	702	San José Chacayá	5	Chacayá	4	Abril	2023-04-22T00:00:00	2024-11-06T17:00:00	1	Precipitación	0
91528	7	Sololá	702	San José Chacayá	5	Chacayá	4	Abril	2023-04-22T00:00:00	2024-11-06T17:00:00	8	Radiación solar	251
91529	7	Sololá	702	San José Chacayá	5	Chacayá	4	Abril	2023-04-22T00:00:00	2024-11-06T18:00:00	2	Temperatura media	18.5
91530	7	Sololá	702	San José Chacayá	5	Chacayá	4	Abril	2023-04-22T00:00:00	2024-11-06T18:00:00	4	Temperatura máxima	19.2
91531	7	Sololá	702	San José Chacayá	5	Chacayá	4	Abril	2023-04-22T00:00:00	2024-11-06T18:00:00	3	Temperatura mínima	18.5
91532	7	Sololá	702	San José Chacayá	5	Chacayá	4	Abril	2023-04-22T00:00:00	2024-11-06T18:00:00	5	Humedad	83
91533	7	Sololá	702	San José Chacayá	5	Chacayá	4	Abril	2023-04-22T00:00:00	2024-11-06T18:00:00	6	Velocidad del viento	1.6
91534	7	Sololá	702	San José Chacayá	5	Chacayá	4	Abril	2023-04-22T00:00:00	2024-11-06T18:00:00	7	Dirección del viento	1.61
91535	7	Sololá	702	San José Chacayá	5	Chacayá	4	Abril	2023-04-22T00:00:00	2024-11-06T18:00:00	1	Precipitación	0
91536	7	Sololá	702	San José Chacayá	5	Chacayá	4	Abril	2023-04-22T00:00:00	2024-11-06T18:00:00	8	Radiación solar	103
91537	7	Sololá	702	San José Chacayá	5	Chacayá	4	Abril	2023-04-22T00:00:00	2024-11-06T19:00:00	2	Temperatura media	17.7
91538	7	Sololá	702	San José Chacayá	5	Chacayá	4	Abril	2023-04-22T00:00:00	2024-11-06T19:00:00	4	Temperatura máxima	18.5
91539	7	Sololá	702	San José Chacayá	5	Chacayá	4	Abril	2023-04-22T00:00:00	2024-11-06T19:00:00	3	Temperatura mínima	17.6
91540	7	Sololá	702	San José Chacayá	5	Chacayá	4	Abril	2023-04-22T00:00:00	2024-11-06T19:00:00	5	Humedad	82
91541	7	Sololá	702	San José Chacayá	5	Chacayá	4	Abril	2023-04-22T00:00:00	2024-11-06T19:00:00	6	Velocidad del viento	0
91542	7	Sololá	702	San José Chacayá	5	Chacayá	4	Abril	2023-04-22T00:00:00	2024-11-06T19:00:00	7	Dirección del viento	0
91543	7	Sololá	702	San José Chacayá	5	Chacayá	4	Abril	2023-04-22T00:00:00	2024-11-06T19:00:00	1	Precipitación	0
91544	7	Sololá	702	San José Chacayá	5	Chacayá	4	Abril	2023-04-22T00:00:00	2024-11-06T19:00:00	8	Radiación solar	0
91545	7	Sololá	702	San José Chacayá	5	Chacayá	4	Abril	2023-04-22T00:00:00	2024-11-06T20:00:00	2	Temperatura media	16.9
91546	7	Sololá	702	San José Chacayá	5	Chacayá	4	Abril	2023-04-22T00:00:00	2024-11-06T20:00:00	4	Temperatura máxima	17.7
91547	7	Sololá	702	San José Chacayá	5	Chacayá	4	Abril	2023-04-22T00:00:00	2024-11-06T20:00:00	3	Temperatura mínima	16.9
91548	7	Sololá	702	San José Chacayá	5	Chacayá	4	Abril	2023-04-22T00:00:00	2024-11-06T20:00:00	5	Humedad	82
91549	7	Sololá	702	San José Chacayá	5	Chacayá	4	Abril	2023-04-22T00:00:00	2024-11-06T20:00:00	6	Velocidad del viento	0
91550	7	Sololá	702	San José Chacayá	5	Chacayá	4	Abril	2023-04-22T00:00:00	2024-11-06T20:00:00	7	Dirección del viento	0
91551	7	Sololá	702	San José Chacayá	5	Chacayá	4	Abril	2023-04-22T00:00:00	2024-11-06T20:00:00	1	Precipitación	0
91552	7	Sololá	702	San José Chacayá	5	Chacayá	4	Abril	2023-04-22T00:00:00	2024-11-06T20:00:00	8	Radiación solar	0
91553	7	Sololá	702	San José Chacayá	5	Chacayá	4	Abril	2023-04-22T00:00:00	2024-11-06T21:00:00	2	Temperatura media	15.4
91554	7	Sololá	702	San José Chacayá	5	Chacayá	4	Abril	2023-04-22T00:00:00	2024-11-06T21:00:00	4	Temperatura máxima	16.9
91555	7	Sololá	702	San José Chacayá	5	Chacayá	4	Abril	2023-04-22T00:00:00	2024-11-06T21:00:00	3	Temperatura mínima	15.4
91556	7	Sololá	702	San José Chacayá	5	Chacayá	4	Abril	2023-04-22T00:00:00	2024-11-06T21:00:00	5	Humedad	82
91557	7	Sololá	702	San José Chacayá	5	Chacayá	4	Abril	2023-04-22T00:00:00	2024-11-06T21:00:00	6	Velocidad del viento	1.6
91558	7	Sololá	702	San José Chacayá	5	Chacayá	4	Abril	2023-04-22T00:00:00	2024-11-06T21:00:00	7	Dirección del viento	1.61
91559	7	Sololá	702	San José Chacayá	5	Chacayá	4	Abril	2023-04-22T00:00:00	2024-11-06T21:00:00	1	Precipitación	0
91560	7	Sololá	702	San José Chacayá	5	Chacayá	4	Abril	2023-04-22T00:00:00	2024-11-06T21:00:00	8	Radiación solar	0
91561	7	Sololá	702	San José Chacayá	5	Chacayá	4	Abril	2023-04-22T00:00:00	2024-11-06T22:00:00	2	Temperatura media	14.1
91562	7	Sololá	702	San José Chacayá	5	Chacayá	4	Abril	2023-04-22T00:00:00	2024-11-06T22:00:00	4	Temperatura máxima	15.4
91563	7	Sololá	702	San José Chacayá	5	Chacayá	4	Abril	2023-04-22T00:00:00	2024-11-06T22:00:00	3	Temperatura mínima	14.1
91564	7	Sololá	702	San José Chacayá	5	Chacayá	4	Abril	2023-04-22T00:00:00	2024-11-06T22:00:00	5	Humedad	83
91565	7	Sololá	702	San José Chacayá	5	Chacayá	4	Abril	2023-04-22T00:00:00	2024-11-06T22:00:00	6	Velocidad del viento	1.6
91566	7	Sololá	702	San José Chacayá	5	Chacayá	4	Abril	2023-04-22T00:00:00	2024-11-06T22:00:00	7	Dirección del viento	1.61
91567	7	Sololá	702	San José Chacayá	5	Chacayá	4	Abril	2023-04-22T00:00:00	2024-11-06T22:00:00	1	Precipitación	0
91568	7	Sololá	702	San José Chacayá	5	Chacayá	4	Abril	2023-04-22T00:00:00	2024-11-06T22:00:00	8	Radiación solar	0
91569	7	Sololá	702	San José Chacayá	5	Chacayá	4	Abril	2023-04-22T00:00:00	2024-11-06T23:00:00	2	Temperatura media	13.9
91570	7	Sololá	702	San José Chacayá	5	Chacayá	4	Abril	2023-04-22T00:00:00	2024-11-06T23:00:00	4	Temperatura máxima	14.1
91571	7	Sololá	702	San José Chacayá	5	Chacayá	4	Abril	2023-04-22T00:00:00	2024-11-06T23:00:00	3	Temperatura mínima	13.9
91572	7	Sololá	702	San José Chacayá	5	Chacayá	4	Abril	2023-04-22T00:00:00	2024-11-06T23:00:00	5	Humedad	83
91573	7	Sololá	702	San José Chacayá	5	Chacayá	4	Abril	2023-04-22T00:00:00	2024-11-06T23:00:00	6	Velocidad del viento	1.6
91574	7	Sololá	702	San José Chacayá	5	Chacayá	4	Abril	2023-04-22T00:00:00	2024-11-06T23:00:00	7	Dirección del viento	1.61
91575	7	Sololá	702	San José Chacayá	5	Chacayá	4	Abril	2023-04-22T00:00:00	2024-11-06T23:00:00	1	Precipitación	0
91576	7	Sololá	702	San José Chacayá	5	Chacayá	4	Abril	2023-04-22T00:00:00	2024-11-06T23:00:00	8	Radiación solar	0
91577	7	Sololá	702	San José Chacayá	5	Chacayá	4	Abril	2023-04-23T00:00:00	2024-11-06T00:00:00	2	Temperatura media	13.3
91578	7	Sololá	702	San José Chacayá	5	Chacayá	4	Abril	2023-04-23T00:00:00	2024-11-06T00:00:00	4	Temperatura máxima	13.9
91579	7	Sololá	702	San José Chacayá	5	Chacayá	4	Abril	2023-04-23T00:00:00	2024-11-06T00:00:00	3	Temperatura mínima	13.3
91580	7	Sololá	702	San José Chacayá	5	Chacayá	4	Abril	2023-04-23T00:00:00	2024-11-06T00:00:00	5	Humedad	83
91581	7	Sololá	702	San José Chacayá	5	Chacayá	4	Abril	2023-04-23T00:00:00	2024-11-06T00:00:00	6	Velocidad del viento	1.6
91582	7	Sololá	702	San José Chacayá	5	Chacayá	4	Abril	2023-04-23T00:00:00	2024-11-06T00:00:00	7	Dirección del viento	1.61
91583	7	Sololá	702	San José Chacayá	5	Chacayá	4	Abril	2023-04-23T00:00:00	2024-11-06T00:00:00	1	Precipitación	0
91584	7	Sololá	702	San José Chacayá	5	Chacayá	4	Abril	2023-04-23T00:00:00	2024-11-06T00:00:00	8	Radiación solar	0
91585	7	Sololá	702	San José Chacayá	5	Chacayá	4	Abril	2023-04-23T00:00:00	2024-11-06T01:00:00	2	Temperatura media	12.7
91586	7	Sololá	702	San José Chacayá	5	Chacayá	4	Abril	2023-04-23T00:00:00	2024-11-06T01:00:00	4	Temperatura máxima	13.3
91587	7	Sololá	702	San José Chacayá	5	Chacayá	4	Abril	2023-04-23T00:00:00	2024-11-06T01:00:00	3	Temperatura mínima	12.6
91588	7	Sololá	702	San José Chacayá	5	Chacayá	4	Abril	2023-04-23T00:00:00	2024-11-06T01:00:00	5	Humedad	82
91589	7	Sololá	702	San José Chacayá	5	Chacayá	4	Abril	2023-04-23T00:00:00	2024-11-06T01:00:00	6	Velocidad del viento	3.2
91590	7	Sololá	702	San José Chacayá	5	Chacayá	4	Abril	2023-04-23T00:00:00	2024-11-06T01:00:00	7	Dirección del viento	3.22
91591	7	Sololá	702	San José Chacayá	5	Chacayá	4	Abril	2023-04-23T00:00:00	2024-11-06T01:00:00	1	Precipitación	0
91592	7	Sololá	702	San José Chacayá	5	Chacayá	4	Abril	2023-04-23T00:00:00	2024-11-06T01:00:00	8	Radiación solar	0
91593	7	Sololá	702	San José Chacayá	5	Chacayá	4	Abril	2023-04-23T00:00:00	2024-11-06T02:00:00	2	Temperatura media	12.7
91594	7	Sololá	702	San José Chacayá	5	Chacayá	4	Abril	2023-04-23T00:00:00	2024-11-06T02:00:00	4	Temperatura máxima	12.8
91595	7	Sololá	702	San José Chacayá	5	Chacayá	4	Abril	2023-04-23T00:00:00	2024-11-06T02:00:00	3	Temperatura mínima	12.6
91596	7	Sololá	702	San José Chacayá	5	Chacayá	4	Abril	2023-04-23T00:00:00	2024-11-06T02:00:00	5	Humedad	83
91597	7	Sololá	702	San José Chacayá	5	Chacayá	4	Abril	2023-04-23T00:00:00	2024-11-06T02:00:00	6	Velocidad del viento	3.2
91598	7	Sololá	702	San José Chacayá	5	Chacayá	4	Abril	2023-04-23T00:00:00	2024-11-06T02:00:00	7	Dirección del viento	3.22
91599	7	Sololá	702	San José Chacayá	5	Chacayá	4	Abril	2023-04-23T00:00:00	2024-11-06T02:00:00	1	Precipitación	0
91600	7	Sololá	702	San José Chacayá	5	Chacayá	4	Abril	2023-04-23T00:00:00	2024-11-06T02:00:00	8	Radiación solar	0
91601	7	Sololá	702	San José Chacayá	5	Chacayá	4	Abril	2023-04-23T00:00:00	2024-11-06T03:00:00	2	Temperatura media	11.9
91602	7	Sololá	702	San José Chacayá	5	Chacayá	4	Abril	2023-04-23T00:00:00	2024-11-06T03:00:00	4	Temperatura máxima	12.7
91603	7	Sololá	702	San José Chacayá	5	Chacayá	4	Abril	2023-04-23T00:00:00	2024-11-06T03:00:00	3	Temperatura mínima	11.9
91604	7	Sololá	702	San José Chacayá	5	Chacayá	4	Abril	2023-04-23T00:00:00	2024-11-06T03:00:00	5	Humedad	83
91605	7	Sololá	702	San José Chacayá	5	Chacayá	4	Abril	2023-04-23T00:00:00	2024-11-06T03:00:00	6	Velocidad del viento	3.2
91606	7	Sololá	702	San José Chacayá	5	Chacayá	4	Abril	2023-04-23T00:00:00	2024-11-06T03:00:00	7	Dirección del viento	3.22
91607	7	Sololá	702	San José Chacayá	5	Chacayá	4	Abril	2023-04-23T00:00:00	2024-11-06T03:00:00	1	Precipitación	0
91608	7	Sololá	702	San José Chacayá	5	Chacayá	4	Abril	2023-04-23T00:00:00	2024-11-06T03:00:00	8	Radiación solar	0
91609	7	Sololá	702	San José Chacayá	5	Chacayá	4	Abril	2023-04-23T00:00:00	2024-11-06T04:00:00	2	Temperatura media	11.1
91610	7	Sololá	702	San José Chacayá	5	Chacayá	4	Abril	2023-04-23T00:00:00	2024-11-06T04:00:00	4	Temperatura máxima	12
91611	7	Sololá	702	San José Chacayá	5	Chacayá	4	Abril	2023-04-23T00:00:00	2024-11-06T04:00:00	3	Temperatura mínima	11.1
91612	7	Sololá	702	San José Chacayá	5	Chacayá	4	Abril	2023-04-23T00:00:00	2024-11-06T04:00:00	5	Humedad	82
91613	7	Sololá	702	San José Chacayá	5	Chacayá	4	Abril	2023-04-23T00:00:00	2024-11-06T04:00:00	6	Velocidad del viento	3.2
91614	7	Sololá	702	San José Chacayá	5	Chacayá	4	Abril	2023-04-23T00:00:00	2024-11-06T04:00:00	7	Dirección del viento	3.22
91615	7	Sololá	702	San José Chacayá	5	Chacayá	4	Abril	2023-04-23T00:00:00	2024-11-06T04:00:00	1	Precipitación	0
91616	7	Sololá	702	San José Chacayá	5	Chacayá	4	Abril	2023-04-23T00:00:00	2024-11-06T04:00:00	8	Radiación solar	0
91617	7	Sololá	702	San José Chacayá	5	Chacayá	4	Abril	2023-04-23T00:00:00	2024-11-06T05:00:00	2	Temperatura media	10.9
91618	7	Sololá	702	San José Chacayá	5	Chacayá	4	Abril	2023-04-23T00:00:00	2024-11-06T05:00:00	4	Temperatura máxima	11.2
91619	7	Sololá	702	San José Chacayá	5	Chacayá	4	Abril	2023-04-23T00:00:00	2024-11-06T05:00:00	3	Temperatura mínima	10.8
91620	7	Sololá	702	San José Chacayá	5	Chacayá	4	Abril	2023-04-23T00:00:00	2024-11-06T05:00:00	5	Humedad	83
91621	7	Sololá	702	San José Chacayá	5	Chacayá	4	Abril	2023-04-23T00:00:00	2024-11-06T05:00:00	6	Velocidad del viento	3.2
91622	7	Sololá	702	San José Chacayá	5	Chacayá	4	Abril	2023-04-23T00:00:00	2024-11-06T05:00:00	7	Dirección del viento	3.22
91623	7	Sololá	702	San José Chacayá	5	Chacayá	4	Abril	2023-04-23T00:00:00	2024-11-06T05:00:00	1	Precipitación	0
91624	7	Sololá	702	San José Chacayá	5	Chacayá	4	Abril	2023-04-23T00:00:00	2024-11-06T05:00:00	8	Radiación solar	0
91625	7	Sololá	702	San José Chacayá	5	Chacayá	4	Abril	2023-04-23T00:00:00	2024-11-06T06:00:00	2	Temperatura media	10
91626	7	Sololá	702	San José Chacayá	5	Chacayá	4	Abril	2023-04-23T00:00:00	2024-11-06T06:00:00	4	Temperatura máxima	10.8
91627	7	Sololá	702	San José Chacayá	5	Chacayá	4	Abril	2023-04-23T00:00:00	2024-11-06T06:00:00	3	Temperatura mínima	10
91628	7	Sololá	702	San José Chacayá	5	Chacayá	4	Abril	2023-04-23T00:00:00	2024-11-06T06:00:00	5	Humedad	85
91629	7	Sololá	702	San José Chacayá	5	Chacayá	4	Abril	2023-04-23T00:00:00	2024-11-06T06:00:00	6	Velocidad del viento	4.8
91630	7	Sololá	702	San José Chacayá	5	Chacayá	4	Abril	2023-04-23T00:00:00	2024-11-06T06:00:00	7	Dirección del viento	4.83
91631	7	Sololá	702	San José Chacayá	5	Chacayá	4	Abril	2023-04-23T00:00:00	2024-11-06T06:00:00	1	Precipitación	0
91632	7	Sololá	702	San José Chacayá	5	Chacayá	4	Abril	2023-04-23T00:00:00	2024-11-06T06:00:00	8	Radiación solar	0
91633	7	Sololá	702	San José Chacayá	5	Chacayá	4	Abril	2023-04-23T00:00:00	2024-11-06T07:00:00	2	Temperatura media	9.6
91634	7	Sololá	702	San José Chacayá	5	Chacayá	4	Abril	2023-04-23T00:00:00	2024-11-06T07:00:00	4	Temperatura máxima	10
91635	7	Sololá	702	San José Chacayá	5	Chacayá	4	Abril	2023-04-23T00:00:00	2024-11-06T07:00:00	3	Temperatura mínima	9.5
91636	7	Sololá	702	San José Chacayá	5	Chacayá	4	Abril	2023-04-23T00:00:00	2024-11-06T07:00:00	5	Humedad	85
91637	7	Sololá	702	San José Chacayá	5	Chacayá	4	Abril	2023-04-23T00:00:00	2024-11-06T07:00:00	6	Velocidad del viento	3.2
91638	7	Sololá	702	San José Chacayá	5	Chacayá	4	Abril	2023-04-23T00:00:00	2024-11-06T07:00:00	7	Dirección del viento	3.22
91639	7	Sololá	702	San José Chacayá	5	Chacayá	4	Abril	2023-04-23T00:00:00	2024-11-06T07:00:00	1	Precipitación	0
91640	7	Sololá	702	San José Chacayá	5	Chacayá	4	Abril	2023-04-23T00:00:00	2024-11-06T07:00:00	8	Radiación solar	2
91641	7	Sololá	702	San José Chacayá	5	Chacayá	4	Abril	2023-04-23T00:00:00	2024-11-06T08:00:00	2	Temperatura media	11.4
91642	7	Sololá	702	San José Chacayá	5	Chacayá	4	Abril	2023-04-23T00:00:00	2024-11-06T08:00:00	4	Temperatura máxima	11.4
91643	7	Sololá	702	San José Chacayá	5	Chacayá	4	Abril	2023-04-23T00:00:00	2024-11-06T08:00:00	3	Temperatura mínima	9.6
91644	7	Sololá	702	San José Chacayá	5	Chacayá	4	Abril	2023-04-23T00:00:00	2024-11-06T08:00:00	5	Humedad	84
91645	7	Sololá	702	San José Chacayá	5	Chacayá	4	Abril	2023-04-23T00:00:00	2024-11-06T08:00:00	6	Velocidad del viento	3.2
91646	7	Sololá	702	San José Chacayá	5	Chacayá	4	Abril	2023-04-23T00:00:00	2024-11-06T08:00:00	7	Dirección del viento	3.22
91647	7	Sololá	702	San José Chacayá	5	Chacayá	4	Abril	2023-04-23T00:00:00	2024-11-06T08:00:00	1	Precipitación	0
91648	7	Sololá	702	San José Chacayá	5	Chacayá	4	Abril	2023-04-23T00:00:00	2024-11-06T08:00:00	8	Radiación solar	51
91649	7	Sololá	702	San José Chacayá	5	Chacayá	4	Abril	2023-04-23T00:00:00	2024-11-06T09:00:00	2	Temperatura media	16.2
91650	7	Sololá	702	San José Chacayá	5	Chacayá	4	Abril	2023-04-23T00:00:00	2024-11-06T09:00:00	4	Temperatura máxima	16.2
91651	7	Sololá	702	San José Chacayá	5	Chacayá	4	Abril	2023-04-23T00:00:00	2024-11-06T09:00:00	3	Temperatura mínima	11.4
91652	7	Sololá	702	San José Chacayá	5	Chacayá	4	Abril	2023-04-23T00:00:00	2024-11-06T09:00:00	5	Humedad	75
91653	7	Sololá	702	San José Chacayá	5	Chacayá	4	Abril	2023-04-23T00:00:00	2024-11-06T09:00:00	6	Velocidad del viento	1.6
91654	7	Sololá	702	San José Chacayá	5	Chacayá	4	Abril	2023-04-23T00:00:00	2024-11-06T09:00:00	7	Dirección del viento	1.61
91655	7	Sololá	702	San José Chacayá	5	Chacayá	4	Abril	2023-04-23T00:00:00	2024-11-06T09:00:00	1	Precipitación	0
91656	7	Sololá	702	San José Chacayá	5	Chacayá	4	Abril	2023-04-23T00:00:00	2024-11-06T09:00:00	8	Radiación solar	90
91657	7	Sololá	702	San José Chacayá	5	Chacayá	4	Abril	2023-04-23T00:00:00	2024-11-06T10:00:00	2	Temperatura media	19
91658	7	Sololá	702	San José Chacayá	5	Chacayá	4	Abril	2023-04-23T00:00:00	2024-11-06T10:00:00	4	Temperatura máxima	19
91659	7	Sololá	702	San José Chacayá	5	Chacayá	4	Abril	2023-04-23T00:00:00	2024-11-06T10:00:00	3	Temperatura mínima	16.2
91660	7	Sololá	702	San José Chacayá	5	Chacayá	4	Abril	2023-04-23T00:00:00	2024-11-06T10:00:00	5	Humedad	72
91661	7	Sololá	702	San José Chacayá	5	Chacayá	4	Abril	2023-04-23T00:00:00	2024-11-06T10:00:00	6	Velocidad del viento	3.2
91662	7	Sololá	702	San José Chacayá	5	Chacayá	4	Abril	2023-04-23T00:00:00	2024-11-06T10:00:00	7	Dirección del viento	3.22
91663	7	Sololá	702	San José Chacayá	5	Chacayá	4	Abril	2023-04-23T00:00:00	2024-11-06T10:00:00	1	Precipitación	0
91664	7	Sololá	702	San José Chacayá	5	Chacayá	4	Abril	2023-04-23T00:00:00	2024-11-06T10:00:00	8	Radiación solar	451
91665	7	Sololá	702	San José Chacayá	5	Chacayá	4	Abril	2023-04-23T00:00:00	2024-11-06T11:00:00	2	Temperatura media	20.9
91666	7	Sololá	702	San José Chacayá	5	Chacayá	4	Abril	2023-04-23T00:00:00	2024-11-06T11:00:00	4	Temperatura máxima	20.9
91667	7	Sololá	702	San José Chacayá	5	Chacayá	4	Abril	2023-04-23T00:00:00	2024-11-06T11:00:00	3	Temperatura mínima	19
91668	7	Sololá	702	San José Chacayá	5	Chacayá	4	Abril	2023-04-23T00:00:00	2024-11-06T11:00:00	5	Humedad	61
91669	7	Sololá	702	San José Chacayá	5	Chacayá	4	Abril	2023-04-23T00:00:00	2024-11-06T11:00:00	6	Velocidad del viento	4.8
91670	7	Sololá	702	San José Chacayá	5	Chacayá	4	Abril	2023-04-23T00:00:00	2024-11-06T11:00:00	7	Dirección del viento	4.83
91671	7	Sololá	702	San José Chacayá	5	Chacayá	4	Abril	2023-04-23T00:00:00	2024-11-06T11:00:00	1	Precipitación	0
91672	7	Sololá	702	San José Chacayá	5	Chacayá	4	Abril	2023-04-23T00:00:00	2024-11-06T11:00:00	8	Radiación solar	750
91673	7	Sololá	702	San José Chacayá	5	Chacayá	4	Abril	2023-04-23T00:00:00	2024-11-06T12:00:00	2	Temperatura media	21.9
91674	7	Sololá	702	San José Chacayá	5	Chacayá	4	Abril	2023-04-23T00:00:00	2024-11-06T12:00:00	4	Temperatura máxima	21.9
91675	7	Sololá	702	San José Chacayá	5	Chacayá	4	Abril	2023-04-23T00:00:00	2024-11-06T12:00:00	3	Temperatura mínima	20.9
91676	7	Sololá	702	San José Chacayá	5	Chacayá	4	Abril	2023-04-23T00:00:00	2024-11-06T12:00:00	5	Humedad	53
91677	7	Sololá	702	San José Chacayá	5	Chacayá	4	Abril	2023-04-23T00:00:00	2024-11-06T12:00:00	6	Velocidad del viento	4.8
91678	7	Sololá	702	San José Chacayá	5	Chacayá	4	Abril	2023-04-23T00:00:00	2024-11-06T12:00:00	7	Dirección del viento	4.83
91679	7	Sololá	702	San José Chacayá	5	Chacayá	4	Abril	2023-04-23T00:00:00	2024-11-06T12:00:00	1	Precipitación	0
91680	7	Sololá	702	San José Chacayá	5	Chacayá	4	Abril	2023-04-23T00:00:00	2024-11-06T12:00:00	8	Radiación solar	871
91681	7	Sololá	702	San José Chacayá	5	Chacayá	4	Abril	2023-04-23T00:00:00	2024-11-06T13:00:00	2	Temperatura media	21.7
91682	7	Sololá	702	San José Chacayá	5	Chacayá	4	Abril	2023-04-23T00:00:00	2024-11-06T13:00:00	4	Temperatura máxima	22.4
91683	7	Sololá	702	San José Chacayá	5	Chacayá	4	Abril	2023-04-23T00:00:00	2024-11-06T13:00:00	3	Temperatura mínima	21.4
91684	7	Sololá	702	San José Chacayá	5	Chacayá	4	Abril	2023-04-23T00:00:00	2024-11-06T13:00:00	5	Humedad	65
91685	7	Sololá	702	San José Chacayá	5	Chacayá	4	Abril	2023-04-23T00:00:00	2024-11-06T13:00:00	6	Velocidad del viento	6.4
91686	7	Sololá	702	San José Chacayá	5	Chacayá	4	Abril	2023-04-23T00:00:00	2024-11-06T13:00:00	7	Dirección del viento	6.44
91687	7	Sololá	702	San José Chacayá	5	Chacayá	4	Abril	2023-04-23T00:00:00	2024-11-06T13:00:00	1	Precipitación	0
91688	7	Sololá	702	San José Chacayá	5	Chacayá	4	Abril	2023-04-23T00:00:00	2024-11-06T13:00:00	8	Radiación solar	958
91689	7	Sololá	702	San José Chacayá	5	Chacayá	4	Abril	2023-04-23T00:00:00	2024-11-06T14:00:00	2	Temperatura media	21
91690	7	Sololá	702	San José Chacayá	5	Chacayá	4	Abril	2023-04-23T00:00:00	2024-11-06T14:00:00	4	Temperatura máxima	22.1
91691	7	Sololá	702	San José Chacayá	5	Chacayá	4	Abril	2023-04-23T00:00:00	2024-11-06T14:00:00	3	Temperatura mínima	21
91692	7	Sololá	702	San José Chacayá	5	Chacayá	4	Abril	2023-04-23T00:00:00	2024-11-06T14:00:00	5	Humedad	72
91693	7	Sololá	702	San José Chacayá	5	Chacayá	4	Abril	2023-04-23T00:00:00	2024-11-06T14:00:00	6	Velocidad del viento	6.4
91694	7	Sololá	702	San José Chacayá	5	Chacayá	4	Abril	2023-04-23T00:00:00	2024-11-06T14:00:00	7	Dirección del viento	6.44
91695	7	Sololá	702	San José Chacayá	5	Chacayá	4	Abril	2023-04-23T00:00:00	2024-11-06T14:00:00	1	Precipitación	0
91696	7	Sololá	702	San José Chacayá	5	Chacayá	4	Abril	2023-04-23T00:00:00	2024-11-06T14:00:00	8	Radiación solar	924
91697	7	Sololá	702	San José Chacayá	5	Chacayá	4	Abril	2023-04-23T00:00:00	2024-11-06T15:00:00	2	Temperatura media	18.9
91698	7	Sololá	702	San José Chacayá	5	Chacayá	4	Abril	2023-04-23T00:00:00	2024-11-06T15:00:00	4	Temperatura máxima	21
91699	7	Sololá	702	San José Chacayá	5	Chacayá	4	Abril	2023-04-23T00:00:00	2024-11-06T15:00:00	3	Temperatura mínima	18.6
91700	7	Sololá	702	San José Chacayá	5	Chacayá	4	Abril	2023-04-23T00:00:00	2024-11-06T15:00:00	5	Humedad	79
91701	7	Sololá	702	San José Chacayá	5	Chacayá	4	Abril	2023-04-23T00:00:00	2024-11-06T15:00:00	6	Velocidad del viento	8
91702	7	Sololá	702	San José Chacayá	5	Chacayá	4	Abril	2023-04-23T00:00:00	2024-11-06T15:00:00	7	Dirección del viento	8.05
91703	7	Sololá	702	San José Chacayá	5	Chacayá	4	Abril	2023-04-23T00:00:00	2024-11-06T15:00:00	1	Precipitación	0
91704	7	Sololá	702	San José Chacayá	5	Chacayá	4	Abril	2023-04-23T00:00:00	2024-11-06T15:00:00	8	Radiación solar	372
91705	7	Sololá	702	San José Chacayá	5	Chacayá	4	Abril	2023-04-23T00:00:00	2024-11-06T16:00:00	2	Temperatura media	17.9
91706	7	Sololá	702	San José Chacayá	5	Chacayá	4	Abril	2023-04-23T00:00:00	2024-11-06T16:00:00	4	Temperatura máxima	19
91707	7	Sololá	702	San José Chacayá	5	Chacayá	4	Abril	2023-04-23T00:00:00	2024-11-06T16:00:00	3	Temperatura mínima	17.9
91708	7	Sololá	702	San José Chacayá	5	Chacayá	4	Abril	2023-04-23T00:00:00	2024-11-06T16:00:00	5	Humedad	83
91709	7	Sololá	702	San José Chacayá	5	Chacayá	4	Abril	2023-04-23T00:00:00	2024-11-06T16:00:00	6	Velocidad del viento	3.2
91710	7	Sololá	702	San José Chacayá	5	Chacayá	4	Abril	2023-04-23T00:00:00	2024-11-06T16:00:00	7	Dirección del viento	3.22
91711	7	Sololá	702	San José Chacayá	5	Chacayá	4	Abril	2023-04-23T00:00:00	2024-11-06T16:00:00	1	Precipitación	0
91712	7	Sololá	702	San José Chacayá	5	Chacayá	4	Abril	2023-04-23T00:00:00	2024-11-06T16:00:00	8	Radiación solar	152
91713	7	Sololá	702	San José Chacayá	5	Chacayá	4	Abril	2023-04-23T00:00:00	2024-11-06T17:00:00	2	Temperatura media	18
91714	7	Sololá	702	San José Chacayá	5	Chacayá	4	Abril	2023-04-23T00:00:00	2024-11-06T17:00:00	4	Temperatura máxima	18.1
91715	7	Sololá	702	San José Chacayá	5	Chacayá	4	Abril	2023-04-23T00:00:00	2024-11-06T17:00:00	3	Temperatura mínima	17.2
91716	7	Sololá	702	San José Chacayá	5	Chacayá	4	Abril	2023-04-23T00:00:00	2024-11-06T17:00:00	5	Humedad	82
91717	7	Sololá	702	San José Chacayá	5	Chacayá	4	Abril	2023-04-23T00:00:00	2024-11-06T17:00:00	6	Velocidad del viento	3.2
91718	7	Sololá	702	San José Chacayá	5	Chacayá	4	Abril	2023-04-23T00:00:00	2024-11-06T17:00:00	7	Dirección del viento	3.22
91719	7	Sololá	702	San José Chacayá	5	Chacayá	4	Abril	2023-04-23T00:00:00	2024-11-06T17:00:00	1	Precipitación	0
91720	7	Sololá	702	San José Chacayá	5	Chacayá	4	Abril	2023-04-23T00:00:00	2024-11-06T17:00:00	8	Radiación solar	192
91721	7	Sololá	702	San José Chacayá	5	Chacayá	4	Abril	2023-04-23T00:00:00	2024-11-06T18:00:00	2	Temperatura media	16.8
91722	7	Sololá	702	San José Chacayá	5	Chacayá	4	Abril	2023-04-23T00:00:00	2024-11-06T18:00:00	4	Temperatura máxima	18.1
91723	7	Sololá	702	San José Chacayá	5	Chacayá	4	Abril	2023-04-23T00:00:00	2024-11-06T18:00:00	3	Temperatura mínima	16.7
91724	7	Sololá	702	San José Chacayá	5	Chacayá	4	Abril	2023-04-23T00:00:00	2024-11-06T18:00:00	5	Humedad	83
91725	7	Sololá	702	San José Chacayá	5	Chacayá	4	Abril	2023-04-23T00:00:00	2024-11-06T18:00:00	6	Velocidad del viento	3.2
91726	7	Sololá	702	San José Chacayá	5	Chacayá	4	Abril	2023-04-23T00:00:00	2024-11-06T18:00:00	7	Dirección del viento	3.22
91727	7	Sololá	702	San José Chacayá	5	Chacayá	4	Abril	2023-04-23T00:00:00	2024-11-06T18:00:00	1	Precipitación	0
91728	7	Sololá	702	San José Chacayá	5	Chacayá	4	Abril	2023-04-23T00:00:00	2024-11-06T18:00:00	8	Radiación solar	67
91729	7	Sololá	702	San José Chacayá	5	Chacayá	4	Abril	2023-04-23T00:00:00	2024-11-06T19:00:00	2	Temperatura media	16.2
91730	7	Sololá	702	San José Chacayá	5	Chacayá	4	Abril	2023-04-23T00:00:00	2024-11-06T19:00:00	4	Temperatura máxima	16.8
91731	7	Sololá	702	San José Chacayá	5	Chacayá	4	Abril	2023-04-23T00:00:00	2024-11-06T19:00:00	3	Temperatura mínima	16.2
91732	7	Sololá	702	San José Chacayá	5	Chacayá	4	Abril	2023-04-23T00:00:00	2024-11-06T19:00:00	5	Humedad	81
91733	7	Sololá	702	San José Chacayá	5	Chacayá	4	Abril	2023-04-23T00:00:00	2024-11-06T19:00:00	6	Velocidad del viento	1.6
91734	7	Sololá	702	San José Chacayá	5	Chacayá	4	Abril	2023-04-23T00:00:00	2024-11-06T19:00:00	7	Dirección del viento	1.61
91735	7	Sololá	702	San José Chacayá	5	Chacayá	4	Abril	2023-04-23T00:00:00	2024-11-06T19:00:00	1	Precipitación	0
91736	7	Sololá	702	San José Chacayá	5	Chacayá	4	Abril	2023-04-23T00:00:00	2024-11-06T19:00:00	8	Radiación solar	0
91737	7	Sololá	702	San José Chacayá	5	Chacayá	4	Abril	2023-04-23T00:00:00	2024-11-06T20:00:00	2	Temperatura media	15.8
91738	7	Sololá	702	San José Chacayá	5	Chacayá	4	Abril	2023-04-23T00:00:00	2024-11-06T20:00:00	4	Temperatura máxima	16.2
91739	7	Sololá	702	San José Chacayá	5	Chacayá	4	Abril	2023-04-23T00:00:00	2024-11-06T20:00:00	3	Temperatura mínima	15.8
91740	7	Sololá	702	San José Chacayá	5	Chacayá	4	Abril	2023-04-23T00:00:00	2024-11-06T20:00:00	5	Humedad	73
91741	7	Sololá	702	San José Chacayá	5	Chacayá	4	Abril	2023-04-23T00:00:00	2024-11-06T20:00:00	6	Velocidad del viento	1.6
91742	7	Sololá	702	San José Chacayá	5	Chacayá	4	Abril	2023-04-23T00:00:00	2024-11-06T20:00:00	7	Dirección del viento	1.61
91743	7	Sololá	702	San José Chacayá	5	Chacayá	4	Abril	2023-04-23T00:00:00	2024-11-06T20:00:00	1	Precipitación	0
91744	7	Sololá	702	San José Chacayá	5	Chacayá	4	Abril	2023-04-23T00:00:00	2024-11-06T20:00:00	8	Radiación solar	0
91745	7	Sololá	702	San José Chacayá	5	Chacayá	4	Abril	2023-04-23T00:00:00	2024-11-06T21:00:00	2	Temperatura media	15.6
91746	7	Sololá	702	San José Chacayá	5	Chacayá	4	Abril	2023-04-23T00:00:00	2024-11-06T21:00:00	4	Temperatura máxima	15.8
91747	7	Sololá	702	San José Chacayá	5	Chacayá	4	Abril	2023-04-23T00:00:00	2024-11-06T21:00:00	3	Temperatura mínima	15.6
91748	7	Sololá	702	San José Chacayá	5	Chacayá	4	Abril	2023-04-23T00:00:00	2024-11-06T21:00:00	5	Humedad	77
91749	7	Sololá	702	San José Chacayá	5	Chacayá	4	Abril	2023-04-23T00:00:00	2024-11-06T21:00:00	6	Velocidad del viento	1.6
91750	7	Sololá	702	San José Chacayá	5	Chacayá	4	Abril	2023-04-23T00:00:00	2024-11-06T21:00:00	7	Dirección del viento	1.61
91751	7	Sololá	702	San José Chacayá	5	Chacayá	4	Abril	2023-04-23T00:00:00	2024-11-06T21:00:00	1	Precipitación	0
91752	7	Sololá	702	San José Chacayá	5	Chacayá	4	Abril	2023-04-23T00:00:00	2024-11-06T21:00:00	8	Radiación solar	0
91753	7	Sololá	702	San José Chacayá	5	Chacayá	4	Abril	2023-04-23T00:00:00	2024-11-06T22:00:00	2	Temperatura media	15.2
91754	7	Sololá	702	San José Chacayá	5	Chacayá	4	Abril	2023-04-23T00:00:00	2024-11-06T22:00:00	4	Temperatura máxima	15.6
91755	7	Sololá	702	San José Chacayá	5	Chacayá	4	Abril	2023-04-23T00:00:00	2024-11-06T22:00:00	3	Temperatura mínima	15.2
91756	7	Sololá	702	San José Chacayá	5	Chacayá	4	Abril	2023-04-23T00:00:00	2024-11-06T22:00:00	5	Humedad	77
91757	7	Sololá	702	San José Chacayá	5	Chacayá	4	Abril	2023-04-23T00:00:00	2024-11-06T22:00:00	6	Velocidad del viento	0
91758	7	Sololá	702	San José Chacayá	5	Chacayá	4	Abril	2023-04-23T00:00:00	2024-11-06T22:00:00	7	Dirección del viento	0
91759	7	Sololá	702	San José Chacayá	5	Chacayá	4	Abril	2023-04-23T00:00:00	2024-11-06T22:00:00	1	Precipitación	0
91760	7	Sololá	702	San José Chacayá	5	Chacayá	4	Abril	2023-04-23T00:00:00	2024-11-06T22:00:00	8	Radiación solar	0
91761	7	Sololá	702	San José Chacayá	5	Chacayá	4	Abril	2023-04-23T00:00:00	2024-11-06T23:00:00	2	Temperatura media	14.9
91762	7	Sololá	702	San José Chacayá	5	Chacayá	4	Abril	2023-04-23T00:00:00	2024-11-06T23:00:00	4	Temperatura máxima	15.2
91763	7	Sololá	702	San José Chacayá	5	Chacayá	4	Abril	2023-04-23T00:00:00	2024-11-06T23:00:00	3	Temperatura mínima	14.8
91764	7	Sololá	702	San José Chacayá	5	Chacayá	4	Abril	2023-04-23T00:00:00	2024-11-06T23:00:00	5	Humedad	79
91765	7	Sololá	702	San José Chacayá	5	Chacayá	4	Abril	2023-04-23T00:00:00	2024-11-06T23:00:00	6	Velocidad del viento	0
91766	7	Sololá	702	San José Chacayá	5	Chacayá	4	Abril	2023-04-23T00:00:00	2024-11-06T23:00:00	7	Dirección del viento	0
91767	7	Sololá	702	San José Chacayá	5	Chacayá	4	Abril	2023-04-23T00:00:00	2024-11-06T23:00:00	1	Precipitación	0
91768	7	Sololá	702	San José Chacayá	5	Chacayá	4	Abril	2023-04-23T00:00:00	2024-11-06T23:00:00	8	Radiación solar	0
91769	7	Sololá	702	San José Chacayá	5	Chacayá	4	Abril	2023-04-24T00:00:00	2024-11-06T00:00:00	2	Temperatura media	14.7
91770	7	Sololá	702	San José Chacayá	5	Chacayá	4	Abril	2023-04-24T00:00:00	2024-11-06T00:00:00	4	Temperatura máxima	14.9
91771	7	Sololá	702	San José Chacayá	5	Chacayá	4	Abril	2023-04-24T00:00:00	2024-11-06T00:00:00	3	Temperatura mínima	14.7
91772	7	Sololá	702	San José Chacayá	5	Chacayá	4	Abril	2023-04-24T00:00:00	2024-11-06T00:00:00	5	Humedad	81
91773	7	Sololá	702	San José Chacayá	5	Chacayá	4	Abril	2023-04-24T00:00:00	2024-11-06T00:00:00	6	Velocidad del viento	0
91774	7	Sololá	702	San José Chacayá	5	Chacayá	4	Abril	2023-04-24T00:00:00	2024-11-06T00:00:00	7	Dirección del viento	0
91775	7	Sololá	702	San José Chacayá	5	Chacayá	4	Abril	2023-04-24T00:00:00	2024-11-06T00:00:00	1	Precipitación	0
91776	7	Sololá	702	San José Chacayá	5	Chacayá	4	Abril	2023-04-24T00:00:00	2024-11-06T00:00:00	8	Radiación solar	0
91777	7	Sololá	702	San José Chacayá	5	Chacayá	4	Abril	2023-04-24T00:00:00	2024-11-06T01:00:00	2	Temperatura media	13.7
91778	7	Sololá	702	San José Chacayá	5	Chacayá	4	Abril	2023-04-24T00:00:00	2024-11-06T01:00:00	4	Temperatura máxima	14.7
91779	7	Sololá	702	San José Chacayá	5	Chacayá	4	Abril	2023-04-24T00:00:00	2024-11-06T01:00:00	3	Temperatura mínima	13.7
91780	7	Sololá	702	San José Chacayá	5	Chacayá	4	Abril	2023-04-24T00:00:00	2024-11-06T01:00:00	5	Humedad	81
91781	7	Sololá	702	San José Chacayá	5	Chacayá	4	Abril	2023-04-24T00:00:00	2024-11-06T01:00:00	6	Velocidad del viento	1.6
91782	7	Sololá	702	San José Chacayá	5	Chacayá	4	Abril	2023-04-24T00:00:00	2024-11-06T01:00:00	7	Dirección del viento	1.61
91783	7	Sololá	702	San José Chacayá	5	Chacayá	4	Abril	2023-04-24T00:00:00	2024-11-06T01:00:00	1	Precipitación	0
91784	7	Sololá	702	San José Chacayá	5	Chacayá	4	Abril	2023-04-24T00:00:00	2024-11-06T01:00:00	8	Radiación solar	0
91785	7	Sololá	702	San José Chacayá	5	Chacayá	4	Abril	2023-04-24T00:00:00	2024-11-06T02:00:00	2	Temperatura media	13.7
91786	7	Sololá	702	San José Chacayá	5	Chacayá	4	Abril	2023-04-24T00:00:00	2024-11-06T02:00:00	4	Temperatura máxima	13.7
91787	7	Sololá	702	San José Chacayá	5	Chacayá	4	Abril	2023-04-24T00:00:00	2024-11-06T02:00:00	3	Temperatura mínima	13.5
91788	7	Sololá	702	San José Chacayá	5	Chacayá	4	Abril	2023-04-24T00:00:00	2024-11-06T02:00:00	5	Humedad	82
91789	7	Sololá	702	San José Chacayá	5	Chacayá	4	Abril	2023-04-24T00:00:00	2024-11-06T02:00:00	6	Velocidad del viento	1.6
91790	7	Sololá	702	San José Chacayá	5	Chacayá	4	Abril	2023-04-24T00:00:00	2024-11-06T02:00:00	7	Dirección del viento	1.61
91791	7	Sololá	702	San José Chacayá	5	Chacayá	4	Abril	2023-04-24T00:00:00	2024-11-06T02:00:00	1	Precipitación	0
91792	7	Sololá	702	San José Chacayá	5	Chacayá	4	Abril	2023-04-24T00:00:00	2024-11-06T02:00:00	8	Radiación solar	0
91793	7	Sololá	702	San José Chacayá	5	Chacayá	4	Abril	2023-04-24T00:00:00	2024-11-06T03:00:00	2	Temperatura media	12.8
91794	7	Sololá	702	San José Chacayá	5	Chacayá	4	Abril	2023-04-24T00:00:00	2024-11-06T03:00:00	4	Temperatura máxima	13.7
91795	7	Sololá	702	San José Chacayá	5	Chacayá	4	Abril	2023-04-24T00:00:00	2024-11-06T03:00:00	3	Temperatura mínima	12.8
91796	7	Sololá	702	San José Chacayá	5	Chacayá	4	Abril	2023-04-24T00:00:00	2024-11-06T03:00:00	5	Humedad	82
91797	7	Sololá	702	San José Chacayá	5	Chacayá	4	Abril	2023-04-24T00:00:00	2024-11-06T03:00:00	6	Velocidad del viento	3.2
91798	7	Sololá	702	San José Chacayá	5	Chacayá	4	Abril	2023-04-24T00:00:00	2024-11-06T03:00:00	7	Dirección del viento	3.22
91799	7	Sololá	702	San José Chacayá	5	Chacayá	4	Abril	2023-04-24T00:00:00	2024-11-06T03:00:00	1	Precipitación	0
91800	7	Sololá	702	San José Chacayá	5	Chacayá	4	Abril	2023-04-24T00:00:00	2024-11-06T03:00:00	8	Radiación solar	0
91801	7	Sololá	702	San José Chacayá	5	Chacayá	4	Abril	2023-04-24T00:00:00	2024-11-06T04:00:00	2	Temperatura media	11.9
91802	7	Sololá	702	San José Chacayá	5	Chacayá	4	Abril	2023-04-24T00:00:00	2024-11-06T04:00:00	4	Temperatura máxima	12.8
91803	7	Sololá	702	San José Chacayá	5	Chacayá	4	Abril	2023-04-24T00:00:00	2024-11-06T04:00:00	3	Temperatura mínima	11.9
91804	7	Sololá	702	San José Chacayá	5	Chacayá	4	Abril	2023-04-24T00:00:00	2024-11-06T04:00:00	5	Humedad	80
91805	7	Sololá	702	San José Chacayá	5	Chacayá	4	Abril	2023-04-24T00:00:00	2024-11-06T04:00:00	6	Velocidad del viento	1.6
91806	7	Sololá	702	San José Chacayá	5	Chacayá	4	Abril	2023-04-24T00:00:00	2024-11-06T04:00:00	7	Dirección del viento	1.61
91807	7	Sololá	702	San José Chacayá	5	Chacayá	4	Abril	2023-04-24T00:00:00	2024-11-06T04:00:00	1	Precipitación	0
91808	7	Sololá	702	San José Chacayá	5	Chacayá	4	Abril	2023-04-24T00:00:00	2024-11-06T04:00:00	8	Radiación solar	0
91809	7	Sololá	702	San José Chacayá	5	Chacayá	4	Abril	2023-04-24T00:00:00	2024-11-06T05:00:00	2	Temperatura media	11.1
91810	7	Sololá	702	San José Chacayá	5	Chacayá	4	Abril	2023-04-24T00:00:00	2024-11-06T05:00:00	4	Temperatura máxima	12
91811	7	Sololá	702	San José Chacayá	5	Chacayá	4	Abril	2023-04-24T00:00:00	2024-11-06T05:00:00	3	Temperatura mínima	11.1
91812	7	Sololá	702	San José Chacayá	5	Chacayá	4	Abril	2023-04-24T00:00:00	2024-11-06T05:00:00	5	Humedad	78
91813	7	Sololá	702	San José Chacayá	5	Chacayá	4	Abril	2023-04-24T00:00:00	2024-11-06T05:00:00	6	Velocidad del viento	0
91814	7	Sololá	702	San José Chacayá	5	Chacayá	4	Abril	2023-04-24T00:00:00	2024-11-06T05:00:00	7	Dirección del viento	0
91815	7	Sololá	702	San José Chacayá	5	Chacayá	4	Abril	2023-04-24T00:00:00	2024-11-06T05:00:00	1	Precipitación	0
91816	7	Sololá	702	San José Chacayá	5	Chacayá	4	Abril	2023-04-24T00:00:00	2024-11-06T05:00:00	8	Radiación solar	0
91817	7	Sololá	702	San José Chacayá	5	Chacayá	4	Abril	2023-04-24T00:00:00	2024-11-06T06:00:00	2	Temperatura media	11.1
91818	7	Sololá	702	San José Chacayá	5	Chacayá	4	Abril	2023-04-24T00:00:00	2024-11-06T06:00:00	4	Temperatura máxima	11.1
91819	7	Sololá	702	San José Chacayá	5	Chacayá	4	Abril	2023-04-24T00:00:00	2024-11-06T06:00:00	3	Temperatura mínima	10.7
91820	7	Sololá	702	San José Chacayá	5	Chacayá	4	Abril	2023-04-24T00:00:00	2024-11-06T06:00:00	5	Humedad	73
91821	7	Sololá	702	San José Chacayá	5	Chacayá	4	Abril	2023-04-24T00:00:00	2024-11-06T06:00:00	6	Velocidad del viento	1.6
91822	7	Sololá	702	San José Chacayá	5	Chacayá	4	Abril	2023-04-24T00:00:00	2024-11-06T06:00:00	7	Dirección del viento	1.61
91823	7	Sololá	702	San José Chacayá	5	Chacayá	4	Abril	2023-04-24T00:00:00	2024-11-06T06:00:00	1	Precipitación	0
91824	7	Sololá	702	San José Chacayá	5	Chacayá	4	Abril	2023-04-24T00:00:00	2024-11-06T06:00:00	8	Radiación solar	0
91825	7	Sololá	702	San José Chacayá	5	Chacayá	4	Abril	2023-04-24T00:00:00	2024-11-06T07:00:00	2	Temperatura media	11.9
91826	7	Sololá	702	San José Chacayá	5	Chacayá	4	Abril	2023-04-24T00:00:00	2024-11-06T07:00:00	4	Temperatura máxima	12.1
91827	7	Sololá	702	San José Chacayá	5	Chacayá	4	Abril	2023-04-24T00:00:00	2024-11-06T07:00:00	3	Temperatura mínima	11.1
91828	7	Sololá	702	San José Chacayá	5	Chacayá	4	Abril	2023-04-24T00:00:00	2024-11-06T07:00:00	5	Humedad	69
91829	7	Sololá	702	San José Chacayá	5	Chacayá	4	Abril	2023-04-24T00:00:00	2024-11-06T07:00:00	6	Velocidad del viento	1.6
91830	7	Sololá	702	San José Chacayá	5	Chacayá	4	Abril	2023-04-24T00:00:00	2024-11-06T07:00:00	7	Dirección del viento	1.61
91831	7	Sololá	702	San José Chacayá	5	Chacayá	4	Abril	2023-04-24T00:00:00	2024-11-06T07:00:00	1	Precipitación	0
91832	7	Sololá	702	San José Chacayá	5	Chacayá	4	Abril	2023-04-24T00:00:00	2024-11-06T07:00:00	8	Radiación solar	2
91833	7	Sololá	702	San José Chacayá	5	Chacayá	4	Abril	2023-04-24T00:00:00	2024-11-06T08:00:00	2	Temperatura media	12.3
91834	7	Sololá	702	San José Chacayá	5	Chacayá	4	Abril	2023-04-24T00:00:00	2024-11-06T08:00:00	4	Temperatura máxima	12.3
91835	7	Sololá	702	San José Chacayá	5	Chacayá	4	Abril	2023-04-24T00:00:00	2024-11-06T08:00:00	3	Temperatura mínima	11.6
91836	7	Sololá	702	San José Chacayá	5	Chacayá	4	Abril	2023-04-24T00:00:00	2024-11-06T08:00:00	5	Humedad	75
91837	7	Sololá	702	San José Chacayá	5	Chacayá	4	Abril	2023-04-24T00:00:00	2024-11-06T08:00:00	6	Velocidad del viento	0
91838	7	Sololá	702	San José Chacayá	5	Chacayá	4	Abril	2023-04-24T00:00:00	2024-11-06T08:00:00	7	Dirección del viento	0
91839	7	Sololá	702	San José Chacayá	5	Chacayá	4	Abril	2023-04-24T00:00:00	2024-11-06T08:00:00	1	Precipitación	0
91840	7	Sololá	702	San José Chacayá	5	Chacayá	4	Abril	2023-04-24T00:00:00	2024-11-06T08:00:00	8	Radiación solar	43
91841	7	Sololá	702	San José Chacayá	5	Chacayá	4	Abril	2023-04-24T00:00:00	2024-11-06T09:00:00	2	Temperatura media	15.9
91842	7	Sololá	702	San José Chacayá	5	Chacayá	4	Abril	2023-04-24T00:00:00	2024-11-06T09:00:00	4	Temperatura máxima	15.9
91843	7	Sololá	702	San José Chacayá	5	Chacayá	4	Abril	2023-04-24T00:00:00	2024-11-06T09:00:00	3	Temperatura mínima	12.3
91844	7	Sololá	702	San José Chacayá	5	Chacayá	4	Abril	2023-04-24T00:00:00	2024-11-06T09:00:00	5	Humedad	81
91845	7	Sololá	702	San José Chacayá	5	Chacayá	4	Abril	2023-04-24T00:00:00	2024-11-06T09:00:00	6	Velocidad del viento	1.6
91846	7	Sololá	702	San José Chacayá	5	Chacayá	4	Abril	2023-04-24T00:00:00	2024-11-06T09:00:00	7	Dirección del viento	1.61
91847	7	Sololá	702	San José Chacayá	5	Chacayá	4	Abril	2023-04-24T00:00:00	2024-11-06T09:00:00	1	Precipitación	0
91848	7	Sololá	702	San José Chacayá	5	Chacayá	4	Abril	2023-04-24T00:00:00	2024-11-06T09:00:00	8	Radiación solar	111
91849	7	Sololá	702	San José Chacayá	5	Chacayá	4	Abril	2023-04-24T00:00:00	2024-11-06T10:00:00	2	Temperatura media	17.3
91850	7	Sololá	702	San José Chacayá	5	Chacayá	4	Abril	2023-04-24T00:00:00	2024-11-06T10:00:00	4	Temperatura máxima	17.3
91851	7	Sololá	702	San José Chacayá	5	Chacayá	4	Abril	2023-04-24T00:00:00	2024-11-06T10:00:00	3	Temperatura mínima	15.9
91852	7	Sololá	702	San José Chacayá	5	Chacayá	4	Abril	2023-04-24T00:00:00	2024-11-06T10:00:00	5	Humedad	81
91853	7	Sololá	702	San José Chacayá	5	Chacayá	4	Abril	2023-04-24T00:00:00	2024-11-06T10:00:00	6	Velocidad del viento	3.2
91854	7	Sololá	702	San José Chacayá	5	Chacayá	4	Abril	2023-04-24T00:00:00	2024-11-06T10:00:00	7	Dirección del viento	3.22
91855	7	Sololá	702	San José Chacayá	5	Chacayá	4	Abril	2023-04-24T00:00:00	2024-11-06T10:00:00	1	Precipitación	0
91856	7	Sololá	702	San José Chacayá	5	Chacayá	4	Abril	2023-04-24T00:00:00	2024-11-06T10:00:00	8	Radiación solar	256
91857	7	Sololá	702	San José Chacayá	5	Chacayá	4	Abril	2023-04-24T00:00:00	2024-11-06T11:00:00	2	Temperatura media	16.9
91858	7	Sololá	702	San José Chacayá	5	Chacayá	4	Abril	2023-04-24T00:00:00	2024-11-06T11:00:00	4	Temperatura máxima	17.4
91859	7	Sololá	702	San José Chacayá	5	Chacayá	4	Abril	2023-04-24T00:00:00	2024-11-06T11:00:00	3	Temperatura mínima	16.8
91860	7	Sololá	702	San José Chacayá	5	Chacayá	4	Abril	2023-04-24T00:00:00	2024-11-06T11:00:00	5	Humedad	82
91861	7	Sololá	702	San José Chacayá	5	Chacayá	4	Abril	2023-04-24T00:00:00	2024-11-06T11:00:00	6	Velocidad del viento	4.8
91862	7	Sololá	702	San José Chacayá	5	Chacayá	4	Abril	2023-04-24T00:00:00	2024-11-06T11:00:00	7	Dirección del viento	4.83
91863	7	Sololá	702	San José Chacayá	5	Chacayá	4	Abril	2023-04-24T00:00:00	2024-11-06T11:00:00	1	Precipitación	0
91864	7	Sololá	702	San José Chacayá	5	Chacayá	4	Abril	2023-04-24T00:00:00	2024-11-06T11:00:00	8	Radiación solar	343
91865	7	Sololá	702	San José Chacayá	5	Chacayá	4	Abril	2023-04-24T00:00:00	2024-11-06T12:00:00	2	Temperatura media	18.7
91866	7	Sololá	702	San José Chacayá	5	Chacayá	4	Abril	2023-04-24T00:00:00	2024-11-06T12:00:00	4	Temperatura máxima	18.7
91867	7	Sololá	702	San José Chacayá	5	Chacayá	4	Abril	2023-04-24T00:00:00	2024-11-06T12:00:00	3	Temperatura mínima	16.9
91868	7	Sololá	702	San José Chacayá	5	Chacayá	4	Abril	2023-04-24T00:00:00	2024-11-06T12:00:00	5	Humedad	77
91869	7	Sololá	702	San José Chacayá	5	Chacayá	4	Abril	2023-04-24T00:00:00	2024-11-06T12:00:00	6	Velocidad del viento	3.2
91870	7	Sololá	702	San José Chacayá	5	Chacayá	4	Abril	2023-04-24T00:00:00	2024-11-06T12:00:00	7	Dirección del viento	3.22
91871	7	Sololá	702	San José Chacayá	5	Chacayá	4	Abril	2023-04-24T00:00:00	2024-11-06T12:00:00	1	Precipitación	0
91872	7	Sololá	702	San José Chacayá	5	Chacayá	4	Abril	2023-04-24T00:00:00	2024-11-06T12:00:00	8	Radiación solar	351
91873	7	Sololá	702	San José Chacayá	5	Chacayá	4	Abril	2023-04-24T00:00:00	2024-11-06T13:00:00	2	Temperatura media	18.7
91874	7	Sololá	702	San José Chacayá	5	Chacayá	4	Abril	2023-04-24T00:00:00	2024-11-06T13:00:00	4	Temperatura máxima	19.5
91875	7	Sololá	702	San José Chacayá	5	Chacayá	4	Abril	2023-04-24T00:00:00	2024-11-06T13:00:00	3	Temperatura mínima	18.5
91876	7	Sololá	702	San José Chacayá	5	Chacayá	4	Abril	2023-04-24T00:00:00	2024-11-06T13:00:00	5	Humedad	77
91877	7	Sololá	702	San José Chacayá	5	Chacayá	4	Abril	2023-04-24T00:00:00	2024-11-06T13:00:00	6	Velocidad del viento	6.4
91878	7	Sololá	702	San José Chacayá	5	Chacayá	4	Abril	2023-04-24T00:00:00	2024-11-06T13:00:00	7	Dirección del viento	6.44
91879	7	Sololá	702	San José Chacayá	5	Chacayá	4	Abril	2023-04-24T00:00:00	2024-11-06T13:00:00	1	Precipitación	0
91880	7	Sololá	702	San José Chacayá	5	Chacayá	4	Abril	2023-04-24T00:00:00	2024-11-06T13:00:00	8	Radiación solar	416
91881	7	Sololá	702	San José Chacayá	5	Chacayá	4	Abril	2023-04-24T00:00:00	2024-11-06T14:00:00	2	Temperatura media	19.1
91882	7	Sololá	702	San José Chacayá	5	Chacayá	4	Abril	2023-04-24T00:00:00	2024-11-06T14:00:00	4	Temperatura máxima	19.4
91883	7	Sololá	702	San José Chacayá	5	Chacayá	4	Abril	2023-04-24T00:00:00	2024-11-06T14:00:00	3	Temperatura mínima	18.1
91884	7	Sololá	702	San José Chacayá	5	Chacayá	4	Abril	2023-04-24T00:00:00	2024-11-06T14:00:00	5	Humedad	77
91885	7	Sololá	702	San José Chacayá	5	Chacayá	4	Abril	2023-04-24T00:00:00	2024-11-06T14:00:00	6	Velocidad del viento	6.4
91886	7	Sololá	702	San José Chacayá	5	Chacayá	4	Abril	2023-04-24T00:00:00	2024-11-06T14:00:00	7	Dirección del viento	6.44
91887	7	Sololá	702	San José Chacayá	5	Chacayá	4	Abril	2023-04-24T00:00:00	2024-11-06T14:00:00	1	Precipitación	0
91888	7	Sololá	702	San José Chacayá	5	Chacayá	4	Abril	2023-04-24T00:00:00	2024-11-06T14:00:00	8	Radiación solar	453
91889	7	Sololá	702	San José Chacayá	5	Chacayá	4	Abril	2023-04-24T00:00:00	2024-11-06T15:00:00	2	Temperatura media	18.2
91890	7	Sololá	702	San José Chacayá	5	Chacayá	4	Abril	2023-04-24T00:00:00	2024-11-06T15:00:00	4	Temperatura máxima	19.2
91891	7	Sololá	702	San José Chacayá	5	Chacayá	4	Abril	2023-04-24T00:00:00	2024-11-06T15:00:00	3	Temperatura mínima	18.2
91892	7	Sololá	702	San José Chacayá	5	Chacayá	4	Abril	2023-04-24T00:00:00	2024-11-06T15:00:00	5	Humedad	81
91893	7	Sololá	702	San José Chacayá	5	Chacayá	4	Abril	2023-04-24T00:00:00	2024-11-06T15:00:00	6	Velocidad del viento	4.8
91894	7	Sololá	702	San José Chacayá	5	Chacayá	4	Abril	2023-04-24T00:00:00	2024-11-06T15:00:00	7	Dirección del viento	4.83
91895	7	Sololá	702	San José Chacayá	5	Chacayá	4	Abril	2023-04-24T00:00:00	2024-11-06T15:00:00	1	Precipitación	0
91896	7	Sololá	702	San José Chacayá	5	Chacayá	4	Abril	2023-04-24T00:00:00	2024-11-06T15:00:00	8	Radiación solar	286
91897	7	Sololá	702	San José Chacayá	5	Chacayá	4	Abril	2023-04-24T00:00:00	2024-11-06T16:00:00	2	Temperatura media	16.6
91898	7	Sololá	702	San José Chacayá	5	Chacayá	4	Abril	2023-04-24T00:00:00	2024-11-06T16:00:00	4	Temperatura máxima	18.3
91899	7	Sololá	702	San José Chacayá	5	Chacayá	4	Abril	2023-04-24T00:00:00	2024-11-06T16:00:00	3	Temperatura mínima	16.6
91900	7	Sololá	702	San José Chacayá	5	Chacayá	4	Abril	2023-04-24T00:00:00	2024-11-06T16:00:00	5	Humedad	83
91901	7	Sololá	702	San José Chacayá	5	Chacayá	4	Abril	2023-04-24T00:00:00	2024-11-06T16:00:00	6	Velocidad del viento	4.8
91902	7	Sololá	702	San José Chacayá	5	Chacayá	4	Abril	2023-04-24T00:00:00	2024-11-06T16:00:00	7	Dirección del viento	4.83
91903	7	Sololá	702	San José Chacayá	5	Chacayá	4	Abril	2023-04-24T00:00:00	2024-11-06T16:00:00	1	Precipitación	0
91904	7	Sololá	702	San José Chacayá	5	Chacayá	4	Abril	2023-04-24T00:00:00	2024-11-06T16:00:00	8	Radiación solar	127
91905	7	Sololá	702	San José Chacayá	5	Chacayá	4	Abril	2023-04-24T00:00:00	2024-11-06T17:00:00	2	Temperatura media	15.1
91906	7	Sololá	702	San José Chacayá	5	Chacayá	4	Abril	2023-04-24T00:00:00	2024-11-06T17:00:00	4	Temperatura máxima	16.6
91907	7	Sololá	702	San José Chacayá	5	Chacayá	4	Abril	2023-04-24T00:00:00	2024-11-06T17:00:00	3	Temperatura mínima	15.1
91908	7	Sololá	702	San José Chacayá	5	Chacayá	4	Abril	2023-04-24T00:00:00	2024-11-06T17:00:00	5	Humedad	77
91909	7	Sololá	702	San José Chacayá	5	Chacayá	4	Abril	2023-04-24T00:00:00	2024-11-06T17:00:00	6	Velocidad del viento	3.2
91910	7	Sololá	702	San José Chacayá	5	Chacayá	4	Abril	2023-04-24T00:00:00	2024-11-06T17:00:00	7	Dirección del viento	3.22
91911	7	Sololá	702	San José Chacayá	5	Chacayá	4	Abril	2023-04-24T00:00:00	2024-11-06T17:00:00	1	Precipitación	1.2
91912	7	Sololá	702	San José Chacayá	5	Chacayá	4	Abril	2023-04-24T00:00:00	2024-11-06T17:00:00	8	Radiación solar	17
91913	7	Sololá	702	San José Chacayá	5	Chacayá	4	Abril	2023-04-24T00:00:00	2024-11-06T18:00:00	2	Temperatura media	13.4
91914	7	Sololá	702	San José Chacayá	5	Chacayá	4	Abril	2023-04-24T00:00:00	2024-11-06T18:00:00	4	Temperatura máxima	15.1
91915	7	Sololá	702	San José Chacayá	5	Chacayá	4	Abril	2023-04-24T00:00:00	2024-11-06T18:00:00	3	Temperatura mínima	13.4
91916	7	Sololá	702	San José Chacayá	5	Chacayá	4	Abril	2023-04-24T00:00:00	2024-11-06T18:00:00	5	Humedad	77
91917	7	Sololá	702	San José Chacayá	5	Chacayá	4	Abril	2023-04-24T00:00:00	2024-11-06T18:00:00	6	Velocidad del viento	1.6
91918	7	Sololá	702	San José Chacayá	5	Chacayá	4	Abril	2023-04-24T00:00:00	2024-11-06T18:00:00	7	Dirección del viento	1.61
91919	7	Sololá	702	San José Chacayá	5	Chacayá	4	Abril	2023-04-24T00:00:00	2024-11-06T18:00:00	1	Precipitación	6.4
91920	7	Sololá	702	San José Chacayá	5	Chacayá	4	Abril	2023-04-24T00:00:00	2024-11-06T18:00:00	8	Radiación solar	24
91921	7	Sololá	702	San José Chacayá	5	Chacayá	4	Abril	2023-04-24T00:00:00	2024-11-06T19:00:00	2	Temperatura media	13.3
91922	7	Sololá	702	San José Chacayá	5	Chacayá	4	Abril	2023-04-24T00:00:00	2024-11-06T19:00:00	4	Temperatura máxima	13.4
91923	7	Sololá	702	San José Chacayá	5	Chacayá	4	Abril	2023-04-24T00:00:00	2024-11-06T19:00:00	3	Temperatura mínima	13.1
91924	7	Sololá	702	San José Chacayá	5	Chacayá	4	Abril	2023-04-24T00:00:00	2024-11-06T19:00:00	5	Humedad	73
91925	7	Sololá	702	San José Chacayá	5	Chacayá	4	Abril	2023-04-24T00:00:00	2024-11-06T19:00:00	6	Velocidad del viento	1.6
91926	7	Sololá	702	San José Chacayá	5	Chacayá	4	Abril	2023-04-24T00:00:00	2024-11-06T19:00:00	7	Dirección del viento	1.61
91927	7	Sololá	702	San José Chacayá	5	Chacayá	4	Abril	2023-04-24T00:00:00	2024-11-06T19:00:00	1	Precipitación	0.8
91928	7	Sololá	702	San José Chacayá	5	Chacayá	4	Abril	2023-04-24T00:00:00	2024-11-06T19:00:00	8	Radiación solar	0
91929	7	Sololá	702	San José Chacayá	5	Chacayá	4	Abril	2023-04-24T00:00:00	2024-11-06T20:00:00	2	Temperatura media	13.3
91930	7	Sololá	702	San José Chacayá	5	Chacayá	4	Abril	2023-04-24T00:00:00	2024-11-06T20:00:00	4	Temperatura máxima	13.3
91931	7	Sololá	702	San José Chacayá	5	Chacayá	4	Abril	2023-04-24T00:00:00	2024-11-06T20:00:00	3	Temperatura mínima	13.2
91932	7	Sololá	702	San José Chacayá	5	Chacayá	4	Abril	2023-04-24T00:00:00	2024-11-06T20:00:00	5	Humedad	70
91933	7	Sololá	702	San José Chacayá	5	Chacayá	4	Abril	2023-04-24T00:00:00	2024-11-06T20:00:00	6	Velocidad del viento	0
91934	7	Sololá	702	San José Chacayá	5	Chacayá	4	Abril	2023-04-24T00:00:00	2024-11-06T20:00:00	7	Dirección del viento	0
91935	7	Sololá	702	San José Chacayá	5	Chacayá	4	Abril	2023-04-24T00:00:00	2024-11-06T20:00:00	1	Precipitación	0
91936	7	Sololá	702	San José Chacayá	5	Chacayá	4	Abril	2023-04-24T00:00:00	2024-11-06T20:00:00	8	Radiación solar	0
91937	7	Sololá	702	San José Chacayá	5	Chacayá	4	Abril	2023-04-24T00:00:00	2024-11-06T21:00:00	2	Temperatura media	13.3
91938	7	Sololá	702	San José Chacayá	5	Chacayá	4	Abril	2023-04-24T00:00:00	2024-11-06T21:00:00	4	Temperatura máxima	13.3
91939	7	Sololá	702	San José Chacayá	5	Chacayá	4	Abril	2023-04-24T00:00:00	2024-11-06T21:00:00	3	Temperatura mínima	13.2
91940	7	Sololá	702	San José Chacayá	5	Chacayá	4	Abril	2023-04-24T00:00:00	2024-11-06T21:00:00	5	Humedad	70
91941	7	Sololá	702	San José Chacayá	5	Chacayá	4	Abril	2023-04-24T00:00:00	2024-11-06T21:00:00	6	Velocidad del viento	1.6
91942	7	Sololá	702	San José Chacayá	5	Chacayá	4	Abril	2023-04-24T00:00:00	2024-11-06T21:00:00	7	Dirección del viento	1.61
91943	7	Sololá	702	San José Chacayá	5	Chacayá	4	Abril	2023-04-24T00:00:00	2024-11-06T21:00:00	1	Precipitación	0
91944	7	Sololá	702	San José Chacayá	5	Chacayá	4	Abril	2023-04-24T00:00:00	2024-11-06T21:00:00	8	Radiación solar	0
91945	7	Sololá	702	San José Chacayá	5	Chacayá	4	Abril	2023-04-24T00:00:00	2024-11-06T22:00:00	2	Temperatura media	13.4
91946	7	Sololá	702	San José Chacayá	5	Chacayá	4	Abril	2023-04-24T00:00:00	2024-11-06T22:00:00	4	Temperatura máxima	13.4
91947	7	Sololá	702	San José Chacayá	5	Chacayá	4	Abril	2023-04-24T00:00:00	2024-11-06T22:00:00	3	Temperatura mínima	13.3
91948	7	Sololá	702	San José Chacayá	5	Chacayá	4	Abril	2023-04-24T00:00:00	2024-11-06T22:00:00	5	Humedad	72
91949	7	Sololá	702	San José Chacayá	5	Chacayá	4	Abril	2023-04-24T00:00:00	2024-11-06T22:00:00	6	Velocidad del viento	1.6
91950	7	Sololá	702	San José Chacayá	5	Chacayá	4	Abril	2023-04-24T00:00:00	2024-11-06T22:00:00	7	Dirección del viento	1.61
91951	7	Sololá	702	San José Chacayá	5	Chacayá	4	Abril	2023-04-24T00:00:00	2024-11-06T22:00:00	1	Precipitación	0
91952	7	Sololá	702	San José Chacayá	5	Chacayá	4	Abril	2023-04-24T00:00:00	2024-11-06T22:00:00	8	Radiación solar	0
91953	7	Sololá	702	San José Chacayá	5	Chacayá	4	Abril	2023-04-24T00:00:00	2024-11-06T23:00:00	2	Temperatura media	13.3
91954	7	Sololá	702	San José Chacayá	5	Chacayá	4	Abril	2023-04-24T00:00:00	2024-11-06T23:00:00	4	Temperatura máxima	13.4
91955	7	Sololá	702	San José Chacayá	5	Chacayá	4	Abril	2023-04-24T00:00:00	2024-11-06T23:00:00	3	Temperatura mínima	13.2
91956	7	Sololá	702	San José Chacayá	5	Chacayá	4	Abril	2023-04-24T00:00:00	2024-11-06T23:00:00	5	Humedad	66
91957	7	Sololá	702	San José Chacayá	5	Chacayá	4	Abril	2023-04-24T00:00:00	2024-11-06T23:00:00	6	Velocidad del viento	0
91958	7	Sololá	702	San José Chacayá	5	Chacayá	4	Abril	2023-04-24T00:00:00	2024-11-06T23:00:00	7	Dirección del viento	0
91959	7	Sololá	702	San José Chacayá	5	Chacayá	4	Abril	2023-04-24T00:00:00	2024-11-06T23:00:00	1	Precipitación	0
91960	7	Sololá	702	San José Chacayá	5	Chacayá	4	Abril	2023-04-24T00:00:00	2024-11-06T23:00:00	8	Radiación solar	0
91961	7	Sololá	702	San José Chacayá	5	Chacayá	4	Abril	2023-04-25T00:00:00	2024-11-06T00:00:00	2	Temperatura media	13.1
91962	7	Sololá	702	San José Chacayá	5	Chacayá	4	Abril	2023-04-25T00:00:00	2024-11-06T00:00:00	4	Temperatura máxima	13.3
91963	7	Sololá	702	San José Chacayá	5	Chacayá	4	Abril	2023-04-25T00:00:00	2024-11-06T00:00:00	3	Temperatura mínima	13.1
91964	7	Sololá	702	San José Chacayá	5	Chacayá	4	Abril	2023-04-25T00:00:00	2024-11-06T00:00:00	5	Humedad	66
91965	7	Sololá	702	San José Chacayá	5	Chacayá	4	Abril	2023-04-25T00:00:00	2024-11-06T00:00:00	6	Velocidad del viento	1.6
91966	7	Sololá	702	San José Chacayá	5	Chacayá	4	Abril	2023-04-25T00:00:00	2024-11-06T00:00:00	7	Dirección del viento	1.61
91967	7	Sololá	702	San José Chacayá	5	Chacayá	4	Abril	2023-04-25T00:00:00	2024-11-06T00:00:00	1	Precipitación	0
91968	7	Sololá	702	San José Chacayá	5	Chacayá	4	Abril	2023-04-25T00:00:00	2024-11-06T00:00:00	8	Radiación solar	0
91969	7	Sololá	702	San José Chacayá	5	Chacayá	4	Abril	2023-04-25T00:00:00	2024-11-06T01:00:00	2	Temperatura media	12.7
91970	7	Sololá	702	San José Chacayá	5	Chacayá	4	Abril	2023-04-25T00:00:00	2024-11-06T01:00:00	4	Temperatura máxima	13.2
91971	7	Sololá	702	San José Chacayá	5	Chacayá	4	Abril	2023-04-25T00:00:00	2024-11-06T01:00:00	3	Temperatura mínima	12.7
91972	7	Sololá	702	San José Chacayá	5	Chacayá	4	Abril	2023-04-25T00:00:00	2024-11-06T01:00:00	5	Humedad	73
91973	7	Sololá	702	San José Chacayá	5	Chacayá	4	Abril	2023-04-25T00:00:00	2024-11-06T01:00:00	6	Velocidad del viento	1.6
91974	7	Sololá	702	San José Chacayá	5	Chacayá	4	Abril	2023-04-25T00:00:00	2024-11-06T01:00:00	7	Dirección del viento	1.61
91975	7	Sololá	702	San José Chacayá	5	Chacayá	4	Abril	2023-04-25T00:00:00	2024-11-06T01:00:00	1	Precipitación	0.2
91976	7	Sololá	702	San José Chacayá	5	Chacayá	4	Abril	2023-04-25T00:00:00	2024-11-06T01:00:00	8	Radiación solar	0
91977	7	Sololá	702	San José Chacayá	5	Chacayá	4	Abril	2023-04-25T00:00:00	2024-11-06T02:00:00	2	Temperatura media	11.7
91978	7	Sololá	702	San José Chacayá	5	Chacayá	4	Abril	2023-04-25T00:00:00	2024-11-06T02:00:00	4	Temperatura máxima	12.7
91979	7	Sololá	702	San José Chacayá	5	Chacayá	4	Abril	2023-04-25T00:00:00	2024-11-06T02:00:00	3	Temperatura mínima	11.7
91980	7	Sololá	702	San José Chacayá	5	Chacayá	4	Abril	2023-04-25T00:00:00	2024-11-06T02:00:00	5	Humedad	77
91981	7	Sololá	702	San José Chacayá	5	Chacayá	4	Abril	2023-04-25T00:00:00	2024-11-06T02:00:00	6	Velocidad del viento	1.6
91982	7	Sololá	702	San José Chacayá	5	Chacayá	4	Abril	2023-04-25T00:00:00	2024-11-06T02:00:00	7	Dirección del viento	1.61
91983	7	Sololá	702	San José Chacayá	5	Chacayá	4	Abril	2023-04-25T00:00:00	2024-11-06T02:00:00	1	Precipitación	0
91984	7	Sololá	702	San José Chacayá	5	Chacayá	4	Abril	2023-04-25T00:00:00	2024-11-06T02:00:00	8	Radiación solar	0
91985	7	Sololá	702	San José Chacayá	5	Chacayá	4	Abril	2023-04-25T00:00:00	2024-11-06T03:00:00	2	Temperatura media	11.3
91986	7	Sololá	702	San José Chacayá	5	Chacayá	4	Abril	2023-04-25T00:00:00	2024-11-06T03:00:00	4	Temperatura máxima	11.7
91987	7	Sololá	702	San José Chacayá	5	Chacayá	4	Abril	2023-04-25T00:00:00	2024-11-06T03:00:00	3	Temperatura mínima	11.3
91988	7	Sololá	702	San José Chacayá	5	Chacayá	4	Abril	2023-04-25T00:00:00	2024-11-06T03:00:00	5	Humedad	79
91989	7	Sololá	702	San José Chacayá	5	Chacayá	4	Abril	2023-04-25T00:00:00	2024-11-06T03:00:00	6	Velocidad del viento	3.2
91990	7	Sololá	702	San José Chacayá	5	Chacayá	4	Abril	2023-04-25T00:00:00	2024-11-06T03:00:00	7	Dirección del viento	3.22
91991	7	Sololá	702	San José Chacayá	5	Chacayá	4	Abril	2023-04-25T00:00:00	2024-11-06T03:00:00	1	Precipitación	0
91992	7	Sololá	702	San José Chacayá	5	Chacayá	4	Abril	2023-04-25T00:00:00	2024-11-06T03:00:00	8	Radiación solar	0
91993	7	Sololá	702	San José Chacayá	5	Chacayá	4	Abril	2023-04-25T00:00:00	2024-11-06T04:00:00	2	Temperatura media	10.8
91994	7	Sololá	702	San José Chacayá	5	Chacayá	4	Abril	2023-04-25T00:00:00	2024-11-06T04:00:00	4	Temperatura máxima	11.3
91995	7	Sololá	702	San José Chacayá	5	Chacayá	4	Abril	2023-04-25T00:00:00	2024-11-06T04:00:00	3	Temperatura mínima	10.8
91996	7	Sololá	702	San José Chacayá	5	Chacayá	4	Abril	2023-04-25T00:00:00	2024-11-06T04:00:00	5	Humedad	79
91997	7	Sololá	702	San José Chacayá	5	Chacayá	4	Abril	2023-04-25T00:00:00	2024-11-06T04:00:00	6	Velocidad del viento	3.2
91998	7	Sololá	702	San José Chacayá	5	Chacayá	4	Abril	2023-04-25T00:00:00	2024-11-06T04:00:00	7	Dirección del viento	3.22
91999	7	Sololá	702	San José Chacayá	5	Chacayá	4	Abril	2023-04-25T00:00:00	2024-11-06T04:00:00	1	Precipitación	0
92000	7	Sololá	702	San José Chacayá	5	Chacayá	4	Abril	2023-04-25T00:00:00	2024-11-06T04:00:00	8	Radiación solar	0
92001	7	Sololá	702	San José Chacayá	5	Chacayá	4	Abril	2023-04-25T00:00:00	2024-11-06T05:00:00	2	Temperatura media	10.5
92002	7	Sololá	702	San José Chacayá	5	Chacayá	4	Abril	2023-04-25T00:00:00	2024-11-06T05:00:00	4	Temperatura máxima	10.8
92003	7	Sololá	702	San José Chacayá	5	Chacayá	4	Abril	2023-04-25T00:00:00	2024-11-06T05:00:00	3	Temperatura mínima	10.4
92004	7	Sololá	702	San José Chacayá	5	Chacayá	4	Abril	2023-04-25T00:00:00	2024-11-06T05:00:00	5	Humedad	76
92005	7	Sololá	702	San José Chacayá	5	Chacayá	4	Abril	2023-04-25T00:00:00	2024-11-06T05:00:00	6	Velocidad del viento	3.2
92006	7	Sololá	702	San José Chacayá	5	Chacayá	4	Abril	2023-04-25T00:00:00	2024-11-06T05:00:00	7	Dirección del viento	3.22
92007	7	Sololá	702	San José Chacayá	5	Chacayá	4	Abril	2023-04-25T00:00:00	2024-11-06T05:00:00	1	Precipitación	0
92008	7	Sololá	702	San José Chacayá	5	Chacayá	4	Abril	2023-04-25T00:00:00	2024-11-06T05:00:00	8	Radiación solar	0
92009	7	Sololá	702	San José Chacayá	5	Chacayá	4	Abril	2023-04-25T00:00:00	2024-11-06T06:00:00	2	Temperatura media	10.4
92010	7	Sololá	702	San José Chacayá	5	Chacayá	4	Abril	2023-04-25T00:00:00	2024-11-06T06:00:00	4	Temperatura máxima	10.7
92011	7	Sololá	702	San José Chacayá	5	Chacayá	4	Abril	2023-04-25T00:00:00	2024-11-06T06:00:00	3	Temperatura mínima	10.4
92012	7	Sololá	702	San José Chacayá	5	Chacayá	4	Abril	2023-04-25T00:00:00	2024-11-06T06:00:00	5	Humedad	76
92013	7	Sololá	702	San José Chacayá	5	Chacayá	4	Abril	2023-04-25T00:00:00	2024-11-06T06:00:00	6	Velocidad del viento	3.2
92014	7	Sololá	702	San José Chacayá	5	Chacayá	4	Abril	2023-04-25T00:00:00	2024-11-06T06:00:00	7	Dirección del viento	3.22
92015	7	Sololá	702	San José Chacayá	5	Chacayá	4	Abril	2023-04-25T00:00:00	2024-11-06T06:00:00	1	Precipitación	0
92016	7	Sololá	702	San José Chacayá	5	Chacayá	4	Abril	2023-04-25T00:00:00	2024-11-06T06:00:00	8	Radiación solar	0
92017	7	Sololá	702	San José Chacayá	5	Chacayá	4	Abril	2023-04-25T00:00:00	2024-11-06T07:00:00	2	Temperatura media	10.6
92018	7	Sololá	702	San José Chacayá	5	Chacayá	4	Abril	2023-04-25T00:00:00	2024-11-06T07:00:00	4	Temperatura máxima	10.6
92019	7	Sololá	702	San José Chacayá	5	Chacayá	4	Abril	2023-04-25T00:00:00	2024-11-06T07:00:00	3	Temperatura mínima	10.3
92020	7	Sololá	702	San José Chacayá	5	Chacayá	4	Abril	2023-04-25T00:00:00	2024-11-06T07:00:00	5	Humedad	78
92021	7	Sololá	702	San José Chacayá	5	Chacayá	4	Abril	2023-04-25T00:00:00	2024-11-06T07:00:00	6	Velocidad del viento	4.8
92022	7	Sololá	702	San José Chacayá	5	Chacayá	4	Abril	2023-04-25T00:00:00	2024-11-06T07:00:00	7	Dirección del viento	4.83
92023	7	Sololá	702	San José Chacayá	5	Chacayá	4	Abril	2023-04-25T00:00:00	2024-11-06T07:00:00	1	Precipitación	0
92024	7	Sololá	702	San José Chacayá	5	Chacayá	4	Abril	2023-04-25T00:00:00	2024-11-06T07:00:00	8	Radiación solar	3
92025	7	Sololá	702	San José Chacayá	5	Chacayá	4	Abril	2023-04-25T00:00:00	2024-11-06T08:00:00	2	Temperatura media	11.9
92026	7	Sololá	702	San José Chacayá	5	Chacayá	4	Abril	2023-04-25T00:00:00	2024-11-06T08:00:00	4	Temperatura máxima	11.9
92027	7	Sololá	702	San José Chacayá	5	Chacayá	4	Abril	2023-04-25T00:00:00	2024-11-06T08:00:00	3	Temperatura mínima	10.4
92028	7	Sololá	702	San José Chacayá	5	Chacayá	4	Abril	2023-04-25T00:00:00	2024-11-06T08:00:00	5	Humedad	73
92029	7	Sololá	702	San José Chacayá	5	Chacayá	4	Abril	2023-04-25T00:00:00	2024-11-06T08:00:00	6	Velocidad del viento	3.2
92030	7	Sololá	702	San José Chacayá	5	Chacayá	4	Abril	2023-04-25T00:00:00	2024-11-06T08:00:00	7	Dirección del viento	3.22
92031	7	Sololá	702	San José Chacayá	5	Chacayá	4	Abril	2023-04-25T00:00:00	2024-11-06T08:00:00	1	Precipitación	0
92032	7	Sololá	702	San José Chacayá	5	Chacayá	4	Abril	2023-04-25T00:00:00	2024-11-06T08:00:00	8	Radiación solar	42
92033	7	Sololá	702	San José Chacayá	5	Chacayá	4	Abril	2023-04-25T00:00:00	2024-11-06T09:00:00	2	Temperatura media	15.3
92034	7	Sololá	702	San José Chacayá	5	Chacayá	4	Abril	2023-04-25T00:00:00	2024-11-06T09:00:00	4	Temperatura máxima	15.3
92035	7	Sololá	702	San José Chacayá	5	Chacayá	4	Abril	2023-04-25T00:00:00	2024-11-06T09:00:00	3	Temperatura mínima	11.9
92036	7	Sololá	702	San José Chacayá	5	Chacayá	4	Abril	2023-04-25T00:00:00	2024-11-06T09:00:00	5	Humedad	82
92037	7	Sololá	702	San José Chacayá	5	Chacayá	4	Abril	2023-04-25T00:00:00	2024-11-06T09:00:00	6	Velocidad del viento	0
92038	7	Sololá	702	San José Chacayá	5	Chacayá	4	Abril	2023-04-25T00:00:00	2024-11-06T09:00:00	7	Dirección del viento	0
92039	7	Sololá	702	San José Chacayá	5	Chacayá	4	Abril	2023-04-25T00:00:00	2024-11-06T09:00:00	1	Precipitación	0
92040	7	Sololá	702	San José Chacayá	5	Chacayá	4	Abril	2023-04-25T00:00:00	2024-11-06T09:00:00	8	Radiación solar	92
92041	7	Sololá	702	San José Chacayá	5	Chacayá	4	Abril	2023-04-25T00:00:00	2024-11-06T10:00:00	2	Temperatura media	19.7
92042	7	Sololá	702	San José Chacayá	5	Chacayá	4	Abril	2023-04-25T00:00:00	2024-11-06T10:00:00	4	Temperatura máxima	19.7
92043	7	Sololá	702	San José Chacayá	5	Chacayá	4	Abril	2023-04-25T00:00:00	2024-11-06T10:00:00	3	Temperatura mínima	15.3
92044	7	Sololá	702	San José Chacayá	5	Chacayá	4	Abril	2023-04-25T00:00:00	2024-11-06T10:00:00	5	Humedad	65
92045	7	Sololá	702	San José Chacayá	5	Chacayá	4	Abril	2023-04-25T00:00:00	2024-11-06T10:00:00	6	Velocidad del viento	1.6
92046	7	Sololá	702	San José Chacayá	5	Chacayá	4	Abril	2023-04-25T00:00:00	2024-11-06T10:00:00	7	Dirección del viento	1.61
92047	7	Sololá	702	San José Chacayá	5	Chacayá	4	Abril	2023-04-25T00:00:00	2024-11-06T10:00:00	1	Precipitación	0
92048	7	Sololá	702	San José Chacayá	5	Chacayá	4	Abril	2023-04-25T00:00:00	2024-11-06T10:00:00	8	Radiación solar	443
92049	7	Sololá	702	San José Chacayá	5	Chacayá	4	Abril	2023-04-25T00:00:00	2024-11-06T11:00:00	2	Temperatura media	21.4
92050	7	Sololá	702	San José Chacayá	5	Chacayá	4	Abril	2023-04-25T00:00:00	2024-11-06T11:00:00	4	Temperatura máxima	21.5
92051	7	Sololá	702	San José Chacayá	5	Chacayá	4	Abril	2023-04-25T00:00:00	2024-11-06T11:00:00	3	Temperatura mínima	19.7
92052	7	Sololá	702	San José Chacayá	5	Chacayá	4	Abril	2023-04-25T00:00:00	2024-11-06T11:00:00	5	Humedad	68
92053	7	Sololá	702	San José Chacayá	5	Chacayá	4	Abril	2023-04-25T00:00:00	2024-11-06T11:00:00	6	Velocidad del viento	4.8
92054	7	Sololá	702	San José Chacayá	5	Chacayá	4	Abril	2023-04-25T00:00:00	2024-11-06T11:00:00	7	Dirección del viento	4.83
92055	7	Sololá	702	San José Chacayá	5	Chacayá	4	Abril	2023-04-25T00:00:00	2024-11-06T11:00:00	1	Precipitación	0
92056	7	Sololá	702	San José Chacayá	5	Chacayá	4	Abril	2023-04-25T00:00:00	2024-11-06T11:00:00	8	Radiación solar	752
92057	7	Sololá	702	San José Chacayá	5	Chacayá	4	Abril	2023-04-25T00:00:00	2024-11-06T12:00:00	2	Temperatura media	21.6
92058	7	Sololá	702	San José Chacayá	5	Chacayá	4	Abril	2023-04-25T00:00:00	2024-11-06T12:00:00	4	Temperatura máxima	21.7
92059	7	Sololá	702	San José Chacayá	5	Chacayá	4	Abril	2023-04-25T00:00:00	2024-11-06T12:00:00	3	Temperatura mínima	21.3
92060	7	Sololá	702	San José Chacayá	5	Chacayá	4	Abril	2023-04-25T00:00:00	2024-11-06T12:00:00	5	Humedad	59
92061	7	Sololá	702	San José Chacayá	5	Chacayá	4	Abril	2023-04-25T00:00:00	2024-11-06T12:00:00	6	Velocidad del viento	6.4
92062	7	Sololá	702	San José Chacayá	5	Chacayá	4	Abril	2023-04-25T00:00:00	2024-11-06T12:00:00	7	Dirección del viento	6.44
92063	7	Sololá	702	San José Chacayá	5	Chacayá	4	Abril	2023-04-25T00:00:00	2024-11-06T12:00:00	1	Precipitación	0.2
92064	7	Sololá	702	San José Chacayá	5	Chacayá	4	Abril	2023-04-25T00:00:00	2024-11-06T12:00:00	8	Radiación solar	901
92065	7	Sololá	702	San José Chacayá	5	Chacayá	4	Abril	2023-04-25T00:00:00	2024-11-06T13:00:00	2	Temperatura media	20.7
92066	7	Sololá	702	San José Chacayá	5	Chacayá	4	Abril	2023-04-25T00:00:00	2024-11-06T13:00:00	4	Temperatura máxima	22.1
92067	7	Sololá	702	San José Chacayá	5	Chacayá	4	Abril	2023-04-25T00:00:00	2024-11-06T13:00:00	3	Temperatura mínima	20.7
92068	7	Sololá	702	San José Chacayá	5	Chacayá	4	Abril	2023-04-25T00:00:00	2024-11-06T13:00:00	5	Humedad	68
92069	7	Sololá	702	San José Chacayá	5	Chacayá	4	Abril	2023-04-25T00:00:00	2024-11-06T13:00:00	6	Velocidad del viento	4.8
92070	7	Sololá	702	San José Chacayá	5	Chacayá	4	Abril	2023-04-25T00:00:00	2024-11-06T13:00:00	7	Dirección del viento	4.83
92071	7	Sololá	702	San José Chacayá	5	Chacayá	4	Abril	2023-04-25T00:00:00	2024-11-06T13:00:00	1	Precipitación	0
92072	7	Sololá	702	San José Chacayá	5	Chacayá	4	Abril	2023-04-25T00:00:00	2024-11-06T13:00:00	8	Radiación solar	658
92073	7	Sololá	702	San José Chacayá	5	Chacayá	4	Abril	2023-04-25T00:00:00	2024-11-06T14:00:00	2	Temperatura media	19.8
92074	7	Sololá	702	San José Chacayá	5	Chacayá	4	Abril	2023-04-25T00:00:00	2024-11-06T14:00:00	4	Temperatura máxima	21.3
92075	7	Sololá	702	San José Chacayá	5	Chacayá	4	Abril	2023-04-25T00:00:00	2024-11-06T14:00:00	3	Temperatura mínima	19.8
92076	7	Sololá	702	San José Chacayá	5	Chacayá	4	Abril	2023-04-25T00:00:00	2024-11-06T14:00:00	5	Humedad	78
92077	7	Sololá	702	San José Chacayá	5	Chacayá	4	Abril	2023-04-25T00:00:00	2024-11-06T14:00:00	6	Velocidad del viento	6.4
92078	7	Sololá	702	San José Chacayá	5	Chacayá	4	Abril	2023-04-25T00:00:00	2024-11-06T14:00:00	7	Dirección del viento	6.44
92079	7	Sololá	702	San José Chacayá	5	Chacayá	4	Abril	2023-04-25T00:00:00	2024-11-06T14:00:00	1	Precipitación	0
92080	7	Sololá	702	San José Chacayá	5	Chacayá	4	Abril	2023-04-25T00:00:00	2024-11-06T14:00:00	8	Radiación solar	553
92081	7	Sololá	702	San José Chacayá	5	Chacayá	4	Abril	2023-04-25T00:00:00	2024-11-06T15:00:00	2	Temperatura media	19.1
92082	7	Sololá	702	San José Chacayá	5	Chacayá	4	Abril	2023-04-25T00:00:00	2024-11-06T15:00:00	4	Temperatura máxima	20.3
92083	7	Sololá	702	San José Chacayá	5	Chacayá	4	Abril	2023-04-25T00:00:00	2024-11-06T15:00:00	3	Temperatura mínima	18.6
92084	7	Sololá	702	San José Chacayá	5	Chacayá	4	Abril	2023-04-25T00:00:00	2024-11-06T15:00:00	5	Humedad	81
92085	7	Sololá	702	San José Chacayá	5	Chacayá	4	Abril	2023-04-25T00:00:00	2024-11-06T15:00:00	6	Velocidad del viento	6.4
92086	7	Sololá	702	San José Chacayá	5	Chacayá	4	Abril	2023-04-25T00:00:00	2024-11-06T15:00:00	7	Dirección del viento	6.44
92087	7	Sololá	702	San José Chacayá	5	Chacayá	4	Abril	2023-04-25T00:00:00	2024-11-06T15:00:00	1	Precipitación	0
92088	7	Sololá	702	San José Chacayá	5	Chacayá	4	Abril	2023-04-25T00:00:00	2024-11-06T15:00:00	8	Radiación solar	364
92089	7	Sololá	702	San José Chacayá	5	Chacayá	4	Abril	2023-04-25T00:00:00	2024-11-06T16:00:00	2	Temperatura media	18.6
92090	7	Sololá	702	San José Chacayá	5	Chacayá	4	Abril	2023-04-25T00:00:00	2024-11-06T16:00:00	4	Temperatura máxima	19.6
92091	7	Sololá	702	San José Chacayá	5	Chacayá	4	Abril	2023-04-25T00:00:00	2024-11-06T16:00:00	3	Temperatura mínima	18.6
92092	7	Sololá	702	San José Chacayá	5	Chacayá	4	Abril	2023-04-25T00:00:00	2024-11-06T16:00:00	5	Humedad	80
92093	7	Sololá	702	San José Chacayá	5	Chacayá	4	Abril	2023-04-25T00:00:00	2024-11-06T16:00:00	6	Velocidad del viento	4.8
92094	7	Sololá	702	San José Chacayá	5	Chacayá	4	Abril	2023-04-25T00:00:00	2024-11-06T16:00:00	7	Dirección del viento	4.83
92095	7	Sololá	702	San José Chacayá	5	Chacayá	4	Abril	2023-04-25T00:00:00	2024-11-06T16:00:00	1	Precipitación	0
92096	7	Sololá	702	San José Chacayá	5	Chacayá	4	Abril	2023-04-25T00:00:00	2024-11-06T16:00:00	8	Radiación solar	280
92097	7	Sololá	702	San José Chacayá	5	Chacayá	4	Abril	2023-04-25T00:00:00	2024-11-06T17:00:00	2	Temperatura media	18.1
92098	7	Sololá	702	San José Chacayá	5	Chacayá	4	Abril	2023-04-25T00:00:00	2024-11-06T17:00:00	4	Temperatura máxima	18.6
92099	7	Sololá	702	San José Chacayá	5	Chacayá	4	Abril	2023-04-25T00:00:00	2024-11-06T17:00:00	3	Temperatura mínima	18.1
92100	7	Sololá	702	San José Chacayá	5	Chacayá	4	Abril	2023-04-25T00:00:00	2024-11-06T17:00:00	5	Humedad	83
92101	7	Sololá	702	San José Chacayá	5	Chacayá	4	Abril	2023-04-25T00:00:00	2024-11-06T17:00:00	6	Velocidad del viento	1.6
92102	7	Sololá	702	San José Chacayá	5	Chacayá	4	Abril	2023-04-25T00:00:00	2024-11-06T17:00:00	7	Dirección del viento	1.61
92103	7	Sololá	702	San José Chacayá	5	Chacayá	4	Abril	2023-04-25T00:00:00	2024-11-06T17:00:00	1	Precipitación	0
92104	7	Sololá	702	San José Chacayá	5	Chacayá	4	Abril	2023-04-25T00:00:00	2024-11-06T17:00:00	8	Radiación solar	100
92105	7	Sololá	702	San José Chacayá	5	Chacayá	4	Abril	2023-04-25T00:00:00	2024-11-06T18:00:00	2	Temperatura media	17.3
92106	7	Sololá	702	San José Chacayá	5	Chacayá	4	Abril	2023-04-25T00:00:00	2024-11-06T18:00:00	4	Temperatura máxima	18.1
92107	7	Sololá	702	San José Chacayá	5	Chacayá	4	Abril	2023-04-25T00:00:00	2024-11-06T18:00:00	3	Temperatura mínima	17.2
92108	7	Sololá	702	San José Chacayá	5	Chacayá	4	Abril	2023-04-25T00:00:00	2024-11-06T18:00:00	5	Humedad	82
92109	7	Sololá	702	San José Chacayá	5	Chacayá	4	Abril	2023-04-25T00:00:00	2024-11-06T18:00:00	6	Velocidad del viento	1.6
92110	7	Sololá	702	San José Chacayá	5	Chacayá	4	Abril	2023-04-25T00:00:00	2024-11-06T18:00:00	7	Dirección del viento	1.61
92111	7	Sololá	702	San José Chacayá	5	Chacayá	4	Abril	2023-04-25T00:00:00	2024-11-06T18:00:00	1	Precipitación	0
92112	7	Sololá	702	San José Chacayá	5	Chacayá	4	Abril	2023-04-25T00:00:00	2024-11-06T18:00:00	8	Radiación solar	89
92113	7	Sololá	702	San José Chacayá	5	Chacayá	4	Abril	2023-04-25T00:00:00	2024-11-06T19:00:00	2	Temperatura media	16.7
92114	7	Sololá	702	San José Chacayá	5	Chacayá	4	Abril	2023-04-25T00:00:00	2024-11-06T19:00:00	4	Temperatura máxima	17.3
92115	7	Sololá	702	San José Chacayá	5	Chacayá	4	Abril	2023-04-25T00:00:00	2024-11-06T19:00:00	3	Temperatura mínima	16.7
92116	7	Sololá	702	San José Chacayá	5	Chacayá	4	Abril	2023-04-25T00:00:00	2024-11-06T19:00:00	5	Humedad	77
92117	7	Sololá	702	San José Chacayá	5	Chacayá	4	Abril	2023-04-25T00:00:00	2024-11-06T19:00:00	6	Velocidad del viento	1.6
92118	7	Sololá	702	San José Chacayá	5	Chacayá	4	Abril	2023-04-25T00:00:00	2024-11-06T19:00:00	7	Dirección del viento	1.61
92119	7	Sololá	702	San José Chacayá	5	Chacayá	4	Abril	2023-04-25T00:00:00	2024-11-06T19:00:00	1	Precipitación	0
92120	7	Sololá	702	San José Chacayá	5	Chacayá	4	Abril	2023-04-25T00:00:00	2024-11-06T19:00:00	8	Radiación solar	0
92121	7	Sololá	702	San José Chacayá	5	Chacayá	4	Abril	2023-04-25T00:00:00	2024-11-06T20:00:00	2	Temperatura media	16.4
92122	7	Sololá	702	San José Chacayá	5	Chacayá	4	Abril	2023-04-25T00:00:00	2024-11-06T20:00:00	4	Temperatura máxima	16.7
92123	7	Sololá	702	San José Chacayá	5	Chacayá	4	Abril	2023-04-25T00:00:00	2024-11-06T20:00:00	3	Temperatura mínima	16.4
92124	7	Sololá	702	San José Chacayá	5	Chacayá	4	Abril	2023-04-25T00:00:00	2024-11-06T20:00:00	5	Humedad	75
92125	7	Sololá	702	San José Chacayá	5	Chacayá	4	Abril	2023-04-25T00:00:00	2024-11-06T20:00:00	6	Velocidad del viento	0
92126	7	Sololá	702	San José Chacayá	5	Chacayá	4	Abril	2023-04-25T00:00:00	2024-11-06T20:00:00	7	Dirección del viento	0
92127	7	Sololá	702	San José Chacayá	5	Chacayá	4	Abril	2023-04-25T00:00:00	2024-11-06T20:00:00	1	Precipitación	0
92128	7	Sololá	702	San José Chacayá	5	Chacayá	4	Abril	2023-04-25T00:00:00	2024-11-06T20:00:00	8	Radiación solar	0
92129	7	Sololá	702	San José Chacayá	5	Chacayá	4	Abril	2023-04-25T00:00:00	2024-11-06T21:00:00	2	Temperatura media	15.9
92130	7	Sololá	702	San José Chacayá	5	Chacayá	4	Abril	2023-04-25T00:00:00	2024-11-06T21:00:00	4	Temperatura máxima	16.4
92131	7	Sololá	702	San José Chacayá	5	Chacayá	4	Abril	2023-04-25T00:00:00	2024-11-06T21:00:00	3	Temperatura mínima	15.9
92132	7	Sololá	702	San José Chacayá	5	Chacayá	4	Abril	2023-04-25T00:00:00	2024-11-06T21:00:00	5	Humedad	71
92133	7	Sololá	702	San José Chacayá	5	Chacayá	4	Abril	2023-04-25T00:00:00	2024-11-06T21:00:00	6	Velocidad del viento	0
92134	7	Sololá	702	San José Chacayá	5	Chacayá	4	Abril	2023-04-25T00:00:00	2024-11-06T21:00:00	7	Dirección del viento	0
92135	7	Sololá	702	San José Chacayá	5	Chacayá	4	Abril	2023-04-25T00:00:00	2024-11-06T21:00:00	1	Precipitación	0
92136	7	Sololá	702	San José Chacayá	5	Chacayá	4	Abril	2023-04-25T00:00:00	2024-11-06T21:00:00	8	Radiación solar	0
92137	7	Sololá	702	San José Chacayá	5	Chacayá	4	Abril	2023-04-25T00:00:00	2024-11-06T22:00:00	2	Temperatura media	14.5
92138	7	Sololá	702	San José Chacayá	5	Chacayá	4	Abril	2023-04-25T00:00:00	2024-11-06T22:00:00	4	Temperatura máxima	15.9
92139	7	Sololá	702	San José Chacayá	5	Chacayá	4	Abril	2023-04-25T00:00:00	2024-11-06T22:00:00	3	Temperatura mínima	14.5
92140	7	Sololá	702	San José Chacayá	5	Chacayá	4	Abril	2023-04-25T00:00:00	2024-11-06T22:00:00	5	Humedad	77
92141	7	Sololá	702	San José Chacayá	5	Chacayá	4	Abril	2023-04-25T00:00:00	2024-11-06T22:00:00	6	Velocidad del viento	1.6
92142	7	Sololá	702	San José Chacayá	5	Chacayá	4	Abril	2023-04-25T00:00:00	2024-11-06T22:00:00	7	Dirección del viento	1.61
92143	7	Sololá	702	San José Chacayá	5	Chacayá	4	Abril	2023-04-25T00:00:00	2024-11-06T22:00:00	1	Precipitación	0
92144	7	Sololá	702	San José Chacayá	5	Chacayá	4	Abril	2023-04-25T00:00:00	2024-11-06T22:00:00	8	Radiación solar	0
92145	7	Sololá	702	San José Chacayá	5	Chacayá	4	Abril	2023-04-25T00:00:00	2024-11-06T23:00:00	2	Temperatura media	13.5
92146	7	Sololá	702	San José Chacayá	5	Chacayá	4	Abril	2023-04-25T00:00:00	2024-11-06T23:00:00	4	Temperatura máxima	14.5
92147	7	Sololá	702	San José Chacayá	5	Chacayá	4	Abril	2023-04-25T00:00:00	2024-11-06T23:00:00	3	Temperatura mínima	13.5
92148	7	Sololá	702	San José Chacayá	5	Chacayá	4	Abril	2023-04-25T00:00:00	2024-11-06T23:00:00	5	Humedad	81
92149	7	Sololá	702	San José Chacayá	5	Chacayá	4	Abril	2023-04-25T00:00:00	2024-11-06T23:00:00	6	Velocidad del viento	3.2
92150	7	Sololá	702	San José Chacayá	5	Chacayá	4	Abril	2023-04-25T00:00:00	2024-11-06T23:00:00	7	Dirección del viento	3.22
92151	7	Sololá	702	San José Chacayá	5	Chacayá	4	Abril	2023-04-25T00:00:00	2024-11-06T23:00:00	1	Precipitación	0
92152	7	Sololá	702	San José Chacayá	5	Chacayá	4	Abril	2023-04-25T00:00:00	2024-11-06T23:00:00	8	Radiación solar	0
92153	7	Sololá	702	San José Chacayá	5	Chacayá	4	Abril	2023-04-26T00:00:00	2024-11-06T00:00:00	2	Temperatura media	13.6
92154	7	Sololá	702	San José Chacayá	5	Chacayá	4	Abril	2023-04-26T00:00:00	2024-11-06T00:00:00	4	Temperatura máxima	13.6
92155	7	Sololá	702	San José Chacayá	5	Chacayá	4	Abril	2023-04-26T00:00:00	2024-11-06T00:00:00	3	Temperatura mínima	13.4
92156	7	Sololá	702	San José Chacayá	5	Chacayá	4	Abril	2023-04-26T00:00:00	2024-11-06T00:00:00	5	Humedad	79
92157	7	Sololá	702	San José Chacayá	5	Chacayá	4	Abril	2023-04-26T00:00:00	2024-11-06T00:00:00	6	Velocidad del viento	1.6
92158	7	Sololá	702	San José Chacayá	5	Chacayá	4	Abril	2023-04-26T00:00:00	2024-11-06T00:00:00	7	Dirección del viento	1.61
92159	7	Sololá	702	San José Chacayá	5	Chacayá	4	Abril	2023-04-26T00:00:00	2024-11-06T00:00:00	1	Precipitación	0
92160	7	Sololá	702	San José Chacayá	5	Chacayá	4	Abril	2023-04-26T00:00:00	2024-11-06T00:00:00	8	Radiación solar	0
92161	7	Sololá	702	San José Chacayá	5	Chacayá	4	Abril	2023-04-26T00:00:00	2024-11-06T01:00:00	2	Temperatura media	13.8
92162	7	Sololá	702	San José Chacayá	5	Chacayá	4	Abril	2023-04-26T00:00:00	2024-11-06T01:00:00	4	Temperatura máxima	13.8
92163	7	Sololá	702	San José Chacayá	5	Chacayá	4	Abril	2023-04-26T00:00:00	2024-11-06T01:00:00	3	Temperatura mínima	13.6
92164	7	Sololá	702	San José Chacayá	5	Chacayá	4	Abril	2023-04-26T00:00:00	2024-11-06T01:00:00	5	Humedad	73
92165	7	Sololá	702	San José Chacayá	5	Chacayá	4	Abril	2023-04-26T00:00:00	2024-11-06T01:00:00	6	Velocidad del viento	0
92166	7	Sololá	702	San José Chacayá	5	Chacayá	4	Abril	2023-04-26T00:00:00	2024-11-06T01:00:00	7	Dirección del viento	0
92167	7	Sololá	702	San José Chacayá	5	Chacayá	4	Abril	2023-04-26T00:00:00	2024-11-06T01:00:00	1	Precipitación	0
92168	7	Sololá	702	San José Chacayá	5	Chacayá	4	Abril	2023-04-26T00:00:00	2024-11-06T01:00:00	8	Radiación solar	0
92169	7	Sololá	702	San José Chacayá	5	Chacayá	4	Abril	2023-04-26T00:00:00	2024-11-06T02:00:00	2	Temperatura media	14.1
92170	7	Sololá	702	San José Chacayá	5	Chacayá	4	Abril	2023-04-26T00:00:00	2024-11-06T02:00:00	4	Temperatura máxima	14.1
92171	7	Sololá	702	San José Chacayá	5	Chacayá	4	Abril	2023-04-26T00:00:00	2024-11-06T02:00:00	3	Temperatura mínima	13.8
92172	7	Sololá	702	San José Chacayá	5	Chacayá	4	Abril	2023-04-26T00:00:00	2024-11-06T02:00:00	5	Humedad	76
92173	7	Sololá	702	San José Chacayá	5	Chacayá	4	Abril	2023-04-26T00:00:00	2024-11-06T02:00:00	6	Velocidad del viento	1.6
92174	7	Sololá	702	San José Chacayá	5	Chacayá	4	Abril	2023-04-26T00:00:00	2024-11-06T02:00:00	7	Dirección del viento	1.61
92175	7	Sololá	702	San José Chacayá	5	Chacayá	4	Abril	2023-04-26T00:00:00	2024-11-06T02:00:00	1	Precipitación	0
92176	7	Sololá	702	San José Chacayá	5	Chacayá	4	Abril	2023-04-26T00:00:00	2024-11-06T02:00:00	8	Radiación solar	0
92177	7	Sololá	702	San José Chacayá	5	Chacayá	4	Abril	2023-04-26T00:00:00	2024-11-06T03:00:00	2	Temperatura media	13.9
92178	7	Sololá	702	San José Chacayá	5	Chacayá	4	Abril	2023-04-26T00:00:00	2024-11-06T03:00:00	4	Temperatura máxima	14.1
92179	7	Sololá	702	San José Chacayá	5	Chacayá	4	Abril	2023-04-26T00:00:00	2024-11-06T03:00:00	3	Temperatura mínima	13.9
92180	7	Sololá	702	San José Chacayá	5	Chacayá	4	Abril	2023-04-26T00:00:00	2024-11-06T03:00:00	5	Humedad	74
92181	7	Sololá	702	San José Chacayá	5	Chacayá	4	Abril	2023-04-26T00:00:00	2024-11-06T03:00:00	6	Velocidad del viento	0
92182	7	Sololá	702	San José Chacayá	5	Chacayá	4	Abril	2023-04-26T00:00:00	2024-11-06T03:00:00	7	Dirección del viento	0
92183	7	Sololá	702	San José Chacayá	5	Chacayá	4	Abril	2023-04-26T00:00:00	2024-11-06T03:00:00	1	Precipitación	0
92184	7	Sololá	702	San José Chacayá	5	Chacayá	4	Abril	2023-04-26T00:00:00	2024-11-06T03:00:00	8	Radiación solar	0
92185	7	Sololá	702	San José Chacayá	5	Chacayá	4	Abril	2023-04-26T00:00:00	2024-11-06T04:00:00	2	Temperatura media	13.9
92186	7	Sololá	702	San José Chacayá	5	Chacayá	4	Abril	2023-04-26T00:00:00	2024-11-06T04:00:00	4	Temperatura máxima	13.9
92187	7	Sololá	702	San José Chacayá	5	Chacayá	4	Abril	2023-04-26T00:00:00	2024-11-06T04:00:00	3	Temperatura mínima	13.8
92188	7	Sololá	702	San José Chacayá	5	Chacayá	4	Abril	2023-04-26T00:00:00	2024-11-06T04:00:00	5	Humedad	70
92189	7	Sololá	702	San José Chacayá	5	Chacayá	4	Abril	2023-04-26T00:00:00	2024-11-06T04:00:00	6	Velocidad del viento	0
92190	7	Sololá	702	San José Chacayá	5	Chacayá	4	Abril	2023-04-26T00:00:00	2024-11-06T04:00:00	7	Dirección del viento	0
92191	7	Sololá	702	San José Chacayá	5	Chacayá	4	Abril	2023-04-26T00:00:00	2024-11-06T04:00:00	1	Precipitación	0
92192	7	Sololá	702	San José Chacayá	5	Chacayá	4	Abril	2023-04-26T00:00:00	2024-11-06T04:00:00	8	Radiación solar	0
92193	7	Sololá	702	San José Chacayá	5	Chacayá	4	Abril	2023-04-26T00:00:00	2024-11-06T05:00:00	2	Temperatura media	13.9
92194	7	Sololá	702	San José Chacayá	5	Chacayá	4	Abril	2023-04-26T00:00:00	2024-11-06T05:00:00	4	Temperatura máxima	14.1
92195	7	Sololá	702	San José Chacayá	5	Chacayá	4	Abril	2023-04-26T00:00:00	2024-11-06T05:00:00	3	Temperatura mínima	13.9
92196	7	Sololá	702	San José Chacayá	5	Chacayá	4	Abril	2023-04-26T00:00:00	2024-11-06T05:00:00	5	Humedad	73
92197	7	Sololá	702	San José Chacayá	5	Chacayá	4	Abril	2023-04-26T00:00:00	2024-11-06T05:00:00	6	Velocidad del viento	1.6
92198	7	Sololá	702	San José Chacayá	5	Chacayá	4	Abril	2023-04-26T00:00:00	2024-11-06T05:00:00	7	Dirección del viento	1.61
92199	7	Sololá	702	San José Chacayá	5	Chacayá	4	Abril	2023-04-26T00:00:00	2024-11-06T05:00:00	1	Precipitación	0
92200	7	Sololá	702	San José Chacayá	5	Chacayá	4	Abril	2023-04-26T00:00:00	2024-11-06T05:00:00	8	Radiación solar	0
92201	7	Sololá	702	San José Chacayá	5	Chacayá	4	Abril	2023-04-26T00:00:00	2024-11-06T06:00:00	2	Temperatura media	13.8
92202	7	Sololá	702	San José Chacayá	5	Chacayá	4	Abril	2023-04-26T00:00:00	2024-11-06T06:00:00	4	Temperatura máxima	14
92203	7	Sololá	702	San José Chacayá	5	Chacayá	4	Abril	2023-04-26T00:00:00	2024-11-06T06:00:00	3	Temperatura mínima	13.8
92204	7	Sololá	702	San José Chacayá	5	Chacayá	4	Abril	2023-04-26T00:00:00	2024-11-06T06:00:00	5	Humedad	74
92205	7	Sololá	702	San José Chacayá	5	Chacayá	4	Abril	2023-04-26T00:00:00	2024-11-06T06:00:00	6	Velocidad del viento	0
92206	7	Sololá	702	San José Chacayá	5	Chacayá	4	Abril	2023-04-26T00:00:00	2024-11-06T06:00:00	7	Dirección del viento	0
92207	7	Sololá	702	San José Chacayá	5	Chacayá	4	Abril	2023-04-26T00:00:00	2024-11-06T06:00:00	1	Precipitación	0
92208	7	Sololá	702	San José Chacayá	5	Chacayá	4	Abril	2023-04-26T00:00:00	2024-11-06T06:00:00	8	Radiación solar	0
92209	7	Sololá	702	San José Chacayá	5	Chacayá	4	Abril	2023-04-26T00:00:00	2024-11-06T07:00:00	2	Temperatura media	13
92210	7	Sololá	702	San José Chacayá	5	Chacayá	4	Abril	2023-04-26T00:00:00	2024-11-06T07:00:00	4	Temperatura máxima	13.8
92211	7	Sololá	702	San José Chacayá	5	Chacayá	4	Abril	2023-04-26T00:00:00	2024-11-06T07:00:00	3	Temperatura mínima	13
92212	7	Sololá	702	San José Chacayá	5	Chacayá	4	Abril	2023-04-26T00:00:00	2024-11-06T07:00:00	5	Humedad	76
92213	7	Sololá	702	San José Chacayá	5	Chacayá	4	Abril	2023-04-26T00:00:00	2024-11-06T07:00:00	6	Velocidad del viento	1.6
92214	7	Sololá	702	San José Chacayá	5	Chacayá	4	Abril	2023-04-26T00:00:00	2024-11-06T07:00:00	7	Dirección del viento	1.61
92215	7	Sololá	702	San José Chacayá	5	Chacayá	4	Abril	2023-04-26T00:00:00	2024-11-06T07:00:00	1	Precipitación	0
92216	7	Sololá	702	San José Chacayá	5	Chacayá	4	Abril	2023-04-26T00:00:00	2024-11-06T07:00:00	8	Radiación solar	3
92217	7	Sololá	702	San José Chacayá	5	Chacayá	4	Abril	2023-04-26T00:00:00	2024-11-06T08:00:00	2	Temperatura media	13.8
92218	7	Sololá	702	San José Chacayá	5	Chacayá	4	Abril	2023-04-26T00:00:00	2024-11-06T08:00:00	4	Temperatura máxima	13.8
92219	7	Sololá	702	San José Chacayá	5	Chacayá	4	Abril	2023-04-26T00:00:00	2024-11-06T08:00:00	3	Temperatura mínima	12.9
92220	7	Sololá	702	San José Chacayá	5	Chacayá	4	Abril	2023-04-26T00:00:00	2024-11-06T08:00:00	5	Humedad	80
92221	7	Sololá	702	San José Chacayá	5	Chacayá	4	Abril	2023-04-26T00:00:00	2024-11-06T08:00:00	6	Velocidad del viento	1.6
92222	7	Sololá	702	San José Chacayá	5	Chacayá	4	Abril	2023-04-26T00:00:00	2024-11-06T08:00:00	7	Dirección del viento	1.61
92223	7	Sololá	702	San José Chacayá	5	Chacayá	4	Abril	2023-04-26T00:00:00	2024-11-06T08:00:00	1	Precipitación	0
92224	7	Sololá	702	San José Chacayá	5	Chacayá	4	Abril	2023-04-26T00:00:00	2024-11-06T08:00:00	8	Radiación solar	52
92225	7	Sololá	702	San José Chacayá	5	Chacayá	4	Abril	2023-04-26T00:00:00	2024-11-06T09:00:00	2	Temperatura media	17
92226	7	Sololá	702	San José Chacayá	5	Chacayá	4	Abril	2023-04-26T00:00:00	2024-11-06T09:00:00	4	Temperatura máxima	17
92227	7	Sololá	702	San José Chacayá	5	Chacayá	4	Abril	2023-04-26T00:00:00	2024-11-06T09:00:00	3	Temperatura mínima	13.8
92228	7	Sololá	702	San José Chacayá	5	Chacayá	4	Abril	2023-04-26T00:00:00	2024-11-06T09:00:00	5	Humedad	81
92229	7	Sololá	702	San José Chacayá	5	Chacayá	4	Abril	2023-04-26T00:00:00	2024-11-06T09:00:00	6	Velocidad del viento	0
92230	7	Sololá	702	San José Chacayá	5	Chacayá	4	Abril	2023-04-26T00:00:00	2024-11-06T09:00:00	7	Dirección del viento	0
92231	7	Sololá	702	San José Chacayá	5	Chacayá	4	Abril	2023-04-26T00:00:00	2024-11-06T09:00:00	1	Precipitación	0
92232	7	Sololá	702	San José Chacayá	5	Chacayá	4	Abril	2023-04-26T00:00:00	2024-11-06T09:00:00	8	Radiación solar	157
92233	7	Sololá	702	San José Chacayá	5	Chacayá	4	Abril	2023-04-26T00:00:00	2024-11-06T10:00:00	2	Temperatura media	19.3
92234	7	Sololá	702	San José Chacayá	5	Chacayá	4	Abril	2023-04-26T00:00:00	2024-11-06T10:00:00	4	Temperatura máxima	19.3
92235	7	Sololá	702	San José Chacayá	5	Chacayá	4	Abril	2023-04-26T00:00:00	2024-11-06T10:00:00	3	Temperatura mínima	17
92236	7	Sololá	702	San José Chacayá	5	Chacayá	4	Abril	2023-04-26T00:00:00	2024-11-06T10:00:00	5	Humedad	78
92237	7	Sololá	702	San José Chacayá	5	Chacayá	4	Abril	2023-04-26T00:00:00	2024-11-06T10:00:00	6	Velocidad del viento	3.2
92238	7	Sololá	702	San José Chacayá	5	Chacayá	4	Abril	2023-04-26T00:00:00	2024-11-06T10:00:00	7	Dirección del viento	3.22
92239	7	Sololá	702	San José Chacayá	5	Chacayá	4	Abril	2023-04-26T00:00:00	2024-11-06T10:00:00	1	Precipitación	0
92240	7	Sololá	702	San José Chacayá	5	Chacayá	4	Abril	2023-04-26T00:00:00	2024-11-06T10:00:00	8	Radiación solar	514
92241	7	Sololá	702	San José Chacayá	5	Chacayá	4	Abril	2023-04-26T00:00:00	2024-11-06T11:00:00	2	Temperatura media	19.1
92242	7	Sololá	702	San José Chacayá	5	Chacayá	4	Abril	2023-04-26T00:00:00	2024-11-06T11:00:00	4	Temperatura máxima	20
92243	7	Sololá	702	San José Chacayá	5	Chacayá	4	Abril	2023-04-26T00:00:00	2024-11-06T11:00:00	3	Temperatura mínima	19.1
92244	7	Sololá	702	San José Chacayá	5	Chacayá	4	Abril	2023-04-26T00:00:00	2024-11-06T11:00:00	5	Humedad	75
92245	7	Sololá	702	San José Chacayá	5	Chacayá	4	Abril	2023-04-26T00:00:00	2024-11-06T11:00:00	6	Velocidad del viento	4.8
92246	7	Sololá	702	San José Chacayá	5	Chacayá	4	Abril	2023-04-26T00:00:00	2024-11-06T11:00:00	7	Dirección del viento	4.83
92247	7	Sololá	702	San José Chacayá	5	Chacayá	4	Abril	2023-04-26T00:00:00	2024-11-06T11:00:00	1	Precipitación	0
92248	7	Sololá	702	San José Chacayá	5	Chacayá	4	Abril	2023-04-26T00:00:00	2024-11-06T11:00:00	8	Radiación solar	438
92249	7	Sololá	702	San José Chacayá	5	Chacayá	4	Abril	2023-04-26T00:00:00	2024-11-06T12:00:00	2	Temperatura media	20.5
92250	7	Sololá	702	San José Chacayá	5	Chacayá	4	Abril	2023-04-26T00:00:00	2024-11-06T12:00:00	4	Temperatura máxima	20.6
92251	7	Sololá	702	San José Chacayá	5	Chacayá	4	Abril	2023-04-26T00:00:00	2024-11-06T12:00:00	3	Temperatura mínima	18.8
92252	7	Sololá	702	San José Chacayá	5	Chacayá	4	Abril	2023-04-26T00:00:00	2024-11-06T12:00:00	5	Humedad	71
92253	7	Sololá	702	San José Chacayá	5	Chacayá	4	Abril	2023-04-26T00:00:00	2024-11-06T12:00:00	6	Velocidad del viento	8
92254	7	Sololá	702	San José Chacayá	5	Chacayá	4	Abril	2023-04-26T00:00:00	2024-11-06T12:00:00	7	Dirección del viento	8.05
92255	7	Sololá	702	San José Chacayá	5	Chacayá	4	Abril	2023-04-26T00:00:00	2024-11-06T12:00:00	1	Precipitación	0
92256	7	Sololá	702	San José Chacayá	5	Chacayá	4	Abril	2023-04-26T00:00:00	2024-11-06T12:00:00	8	Radiación solar	776
92257	7	Sololá	702	San José Chacayá	5	Chacayá	4	Abril	2023-04-26T00:00:00	2024-11-06T13:00:00	2	Temperatura media	19.6
92258	7	Sololá	702	San José Chacayá	5	Chacayá	4	Abril	2023-04-26T00:00:00	2024-11-06T13:00:00	4	Temperatura máxima	21.4
92259	7	Sololá	702	San José Chacayá	5	Chacayá	4	Abril	2023-04-26T00:00:00	2024-11-06T13:00:00	3	Temperatura mínima	19.3
92260	7	Sololá	702	San José Chacayá	5	Chacayá	4	Abril	2023-04-26T00:00:00	2024-11-06T13:00:00	5	Humedad	75
92261	7	Sololá	702	San José Chacayá	5	Chacayá	4	Abril	2023-04-26T00:00:00	2024-11-06T13:00:00	6	Velocidad del viento	8
92262	7	Sololá	702	San José Chacayá	5	Chacayá	4	Abril	2023-04-26T00:00:00	2024-11-06T13:00:00	7	Dirección del viento	8.05
92263	7	Sololá	702	San José Chacayá	5	Chacayá	4	Abril	2023-04-26T00:00:00	2024-11-06T13:00:00	1	Precipitación	0
92264	7	Sololá	702	San José Chacayá	5	Chacayá	4	Abril	2023-04-26T00:00:00	2024-11-06T13:00:00	8	Radiación solar	677
92265	7	Sololá	702	San José Chacayá	5	Chacayá	4	Abril	2023-04-26T00:00:00	2024-11-06T14:00:00	2	Temperatura media	19.8
92266	7	Sololá	702	San José Chacayá	5	Chacayá	4	Abril	2023-04-26T00:00:00	2024-11-06T14:00:00	4	Temperatura máxima	21.3
92267	7	Sololá	702	San José Chacayá	5	Chacayá	4	Abril	2023-04-26T00:00:00	2024-11-06T14:00:00	3	Temperatura mínima	19.6
92268	7	Sololá	702	San José Chacayá	5	Chacayá	4	Abril	2023-04-26T00:00:00	2024-11-06T14:00:00	5	Humedad	76
92269	7	Sololá	702	San José Chacayá	5	Chacayá	4	Abril	2023-04-26T00:00:00	2024-11-06T14:00:00	6	Velocidad del viento	8
92270	7	Sololá	702	San José Chacayá	5	Chacayá	4	Abril	2023-04-26T00:00:00	2024-11-06T14:00:00	7	Dirección del viento	8.05
92271	7	Sololá	702	San José Chacayá	5	Chacayá	4	Abril	2023-04-26T00:00:00	2024-11-06T14:00:00	1	Precipitación	0
92272	7	Sololá	702	San José Chacayá	5	Chacayá	4	Abril	2023-04-26T00:00:00	2024-11-06T14:00:00	8	Radiación solar	889
92273	7	Sololá	702	San José Chacayá	5	Chacayá	4	Abril	2023-04-26T00:00:00	2024-11-06T15:00:00	2	Temperatura media	17.4
92274	7	Sololá	702	San José Chacayá	5	Chacayá	4	Abril	2023-04-26T00:00:00	2024-11-06T15:00:00	4	Temperatura máxima	20.2
92275	7	Sololá	702	San José Chacayá	5	Chacayá	4	Abril	2023-04-26T00:00:00	2024-11-06T15:00:00	3	Temperatura mínima	17.4
92276	7	Sololá	702	San José Chacayá	5	Chacayá	4	Abril	2023-04-26T00:00:00	2024-11-06T15:00:00	5	Humedad	83
92277	7	Sololá	702	San José Chacayá	5	Chacayá	4	Abril	2023-04-26T00:00:00	2024-11-06T15:00:00	6	Velocidad del viento	8
92278	7	Sololá	702	San José Chacayá	5	Chacayá	4	Abril	2023-04-26T00:00:00	2024-11-06T15:00:00	7	Dirección del viento	8.05
92279	7	Sololá	702	San José Chacayá	5	Chacayá	4	Abril	2023-04-26T00:00:00	2024-11-06T15:00:00	1	Precipitación	0
92280	7	Sololá	702	San José Chacayá	5	Chacayá	4	Abril	2023-04-26T00:00:00	2024-11-06T15:00:00	8	Radiación solar	317
92281	7	Sololá	702	San José Chacayá	5	Chacayá	4	Abril	2023-04-26T00:00:00	2024-11-06T16:00:00	2	Temperatura media	17.3
92282	7	Sololá	702	San José Chacayá	5	Chacayá	4	Abril	2023-04-26T00:00:00	2024-11-06T16:00:00	4	Temperatura máxima	17.4
92283	7	Sololá	702	San José Chacayá	5	Chacayá	4	Abril	2023-04-26T00:00:00	2024-11-06T16:00:00	3	Temperatura mínima	17
92284	7	Sololá	702	San José Chacayá	5	Chacayá	4	Abril	2023-04-26T00:00:00	2024-11-06T16:00:00	5	Humedad	82
92285	7	Sololá	702	San José Chacayá	5	Chacayá	4	Abril	2023-04-26T00:00:00	2024-11-06T16:00:00	6	Velocidad del viento	3.2
92286	7	Sololá	702	San José Chacayá	5	Chacayá	4	Abril	2023-04-26T00:00:00	2024-11-06T16:00:00	7	Dirección del viento	3.22
92287	7	Sololá	702	San José Chacayá	5	Chacayá	4	Abril	2023-04-26T00:00:00	2024-11-06T16:00:00	1	Precipitación	0
92288	7	Sololá	702	San José Chacayá	5	Chacayá	4	Abril	2023-04-26T00:00:00	2024-11-06T16:00:00	8	Radiación solar	104
92289	7	Sololá	702	San José Chacayá	5	Chacayá	4	Abril	2023-04-26T00:00:00	2024-11-06T17:00:00	2	Temperatura media	17.8
92290	7	Sololá	702	San José Chacayá	5	Chacayá	4	Abril	2023-04-26T00:00:00	2024-11-06T17:00:00	4	Temperatura máxima	18.1
92291	7	Sololá	702	San José Chacayá	5	Chacayá	4	Abril	2023-04-26T00:00:00	2024-11-06T17:00:00	3	Temperatura mínima	17.3
92292	7	Sololá	702	San José Chacayá	5	Chacayá	4	Abril	2023-04-26T00:00:00	2024-11-06T17:00:00	5	Humedad	83
92293	7	Sololá	702	San José Chacayá	5	Chacayá	4	Abril	2023-04-26T00:00:00	2024-11-06T17:00:00	6	Velocidad del viento	3.2
92294	7	Sololá	702	San José Chacayá	5	Chacayá	4	Abril	2023-04-26T00:00:00	2024-11-06T17:00:00	7	Dirección del viento	3.22
92295	7	Sololá	702	San José Chacayá	5	Chacayá	4	Abril	2023-04-26T00:00:00	2024-11-06T17:00:00	1	Precipitación	0
92296	7	Sololá	702	San José Chacayá	5	Chacayá	4	Abril	2023-04-26T00:00:00	2024-11-06T17:00:00	8	Radiación solar	244
92297	7	Sololá	702	San José Chacayá	5	Chacayá	4	Abril	2023-04-26T00:00:00	2024-11-06T18:00:00	2	Temperatura media	17.4
92298	7	Sololá	702	San José Chacayá	5	Chacayá	4	Abril	2023-04-26T00:00:00	2024-11-06T18:00:00	4	Temperatura máxima	18.1
92299	7	Sololá	702	San José Chacayá	5	Chacayá	4	Abril	2023-04-26T00:00:00	2024-11-06T18:00:00	3	Temperatura mínima	17.4
92300	7	Sololá	702	San José Chacayá	5	Chacayá	4	Abril	2023-04-26T00:00:00	2024-11-06T18:00:00	5	Humedad	83
92301	7	Sololá	702	San José Chacayá	5	Chacayá	4	Abril	2023-04-26T00:00:00	2024-11-06T18:00:00	6	Velocidad del viento	1.6
92302	7	Sololá	702	San José Chacayá	5	Chacayá	4	Abril	2023-04-26T00:00:00	2024-11-06T18:00:00	7	Dirección del viento	1.61
92303	7	Sololá	702	San José Chacayá	5	Chacayá	4	Abril	2023-04-26T00:00:00	2024-11-06T18:00:00	1	Precipitación	0
92304	7	Sololá	702	San José Chacayá	5	Chacayá	4	Abril	2023-04-26T00:00:00	2024-11-06T18:00:00	8	Radiación solar	84
92305	7	Sololá	702	San José Chacayá	5	Chacayá	4	Abril	2023-04-26T00:00:00	2024-11-06T19:00:00	2	Temperatura media	16.4
92306	7	Sololá	702	San José Chacayá	5	Chacayá	4	Abril	2023-04-26T00:00:00	2024-11-06T19:00:00	4	Temperatura máxima	17.4
92307	7	Sololá	702	San José Chacayá	5	Chacayá	4	Abril	2023-04-26T00:00:00	2024-11-06T19:00:00	3	Temperatura mínima	16.4
92308	7	Sololá	702	San José Chacayá	5	Chacayá	4	Abril	2023-04-26T00:00:00	2024-11-06T19:00:00	5	Humedad	81
92309	7	Sololá	702	San José Chacayá	5	Chacayá	4	Abril	2023-04-26T00:00:00	2024-11-06T19:00:00	6	Velocidad del viento	1.6
92310	7	Sololá	702	San José Chacayá	5	Chacayá	4	Abril	2023-04-26T00:00:00	2024-11-06T19:00:00	7	Dirección del viento	1.61
92311	7	Sololá	702	San José Chacayá	5	Chacayá	4	Abril	2023-04-26T00:00:00	2024-11-06T19:00:00	1	Precipitación	0
92312	7	Sololá	702	San José Chacayá	5	Chacayá	4	Abril	2023-04-26T00:00:00	2024-11-06T19:00:00	8	Radiación solar	0
92313	7	Sololá	702	San José Chacayá	5	Chacayá	4	Abril	2023-04-26T00:00:00	2024-11-06T20:00:00	2	Temperatura media	15.5
92314	7	Sololá	702	San José Chacayá	5	Chacayá	4	Abril	2023-04-26T00:00:00	2024-11-06T20:00:00	4	Temperatura máxima	16.4
92315	7	Sololá	702	San José Chacayá	5	Chacayá	4	Abril	2023-04-26T00:00:00	2024-11-06T20:00:00	3	Temperatura mínima	15.5
92316	7	Sololá	702	San José Chacayá	5	Chacayá	4	Abril	2023-04-26T00:00:00	2024-11-06T20:00:00	5	Humedad	79
92317	7	Sololá	702	San José Chacayá	5	Chacayá	4	Abril	2023-04-26T00:00:00	2024-11-06T20:00:00	6	Velocidad del viento	0
92318	7	Sololá	702	San José Chacayá	5	Chacayá	4	Abril	2023-04-26T00:00:00	2024-11-06T20:00:00	7	Dirección del viento	0
92319	7	Sololá	702	San José Chacayá	5	Chacayá	4	Abril	2023-04-26T00:00:00	2024-11-06T20:00:00	1	Precipitación	0
92320	7	Sololá	702	San José Chacayá	5	Chacayá	4	Abril	2023-04-26T00:00:00	2024-11-06T20:00:00	8	Radiación solar	0
92321	7	Sololá	702	San José Chacayá	5	Chacayá	4	Abril	2023-04-26T00:00:00	2024-11-06T21:00:00	2	Temperatura media	14.7
92322	7	Sololá	702	San José Chacayá	5	Chacayá	4	Abril	2023-04-26T00:00:00	2024-11-06T21:00:00	4	Temperatura máxima	15.5
92323	7	Sololá	702	San José Chacayá	5	Chacayá	4	Abril	2023-04-26T00:00:00	2024-11-06T21:00:00	3	Temperatura mínima	14.7
92324	7	Sololá	702	San José Chacayá	5	Chacayá	4	Abril	2023-04-26T00:00:00	2024-11-06T21:00:00	5	Humedad	76
92325	7	Sololá	702	San José Chacayá	5	Chacayá	4	Abril	2023-04-26T00:00:00	2024-11-06T21:00:00	6	Velocidad del viento	0
92326	7	Sololá	702	San José Chacayá	5	Chacayá	4	Abril	2023-04-26T00:00:00	2024-11-06T21:00:00	7	Dirección del viento	0
92327	7	Sololá	702	San José Chacayá	5	Chacayá	4	Abril	2023-04-26T00:00:00	2024-11-06T21:00:00	1	Precipitación	0
92328	7	Sololá	702	San José Chacayá	5	Chacayá	4	Abril	2023-04-26T00:00:00	2024-11-06T21:00:00	8	Radiación solar	0
92329	7	Sololá	702	San José Chacayá	5	Chacayá	4	Abril	2023-04-26T00:00:00	2024-11-06T22:00:00	2	Temperatura media	13.9
92330	7	Sololá	702	San José Chacayá	5	Chacayá	4	Abril	2023-04-26T00:00:00	2024-11-06T22:00:00	4	Temperatura máxima	14.7
92331	7	Sololá	702	San José Chacayá	5	Chacayá	4	Abril	2023-04-26T00:00:00	2024-11-06T22:00:00	3	Temperatura mínima	13.9
92332	7	Sololá	702	San José Chacayá	5	Chacayá	4	Abril	2023-04-26T00:00:00	2024-11-06T22:00:00	5	Humedad	81
92333	7	Sololá	702	San José Chacayá	5	Chacayá	4	Abril	2023-04-26T00:00:00	2024-11-06T22:00:00	6	Velocidad del viento	3.2
92334	7	Sololá	702	San José Chacayá	5	Chacayá	4	Abril	2023-04-26T00:00:00	2024-11-06T22:00:00	7	Dirección del viento	3.22
92335	7	Sololá	702	San José Chacayá	5	Chacayá	4	Abril	2023-04-26T00:00:00	2024-11-06T22:00:00	1	Precipitación	0
92336	7	Sololá	702	San José Chacayá	5	Chacayá	4	Abril	2023-04-26T00:00:00	2024-11-06T22:00:00	8	Radiación solar	0
92337	7	Sololá	702	San José Chacayá	5	Chacayá	4	Abril	2023-04-26T00:00:00	2024-11-06T23:00:00	2	Temperatura media	13
92338	7	Sololá	702	San José Chacayá	5	Chacayá	4	Abril	2023-04-26T00:00:00	2024-11-06T23:00:00	4	Temperatura máxima	13.9
92339	7	Sololá	702	San José Chacayá	5	Chacayá	4	Abril	2023-04-26T00:00:00	2024-11-06T23:00:00	3	Temperatura mínima	13
92340	7	Sololá	702	San José Chacayá	5	Chacayá	4	Abril	2023-04-26T00:00:00	2024-11-06T23:00:00	5	Humedad	83
92341	7	Sololá	702	San José Chacayá	5	Chacayá	4	Abril	2023-04-26T00:00:00	2024-11-06T23:00:00	6	Velocidad del viento	4.8
92342	7	Sololá	702	San José Chacayá	5	Chacayá	4	Abril	2023-04-26T00:00:00	2024-11-06T23:00:00	7	Dirección del viento	4.83
92343	7	Sololá	702	San José Chacayá	5	Chacayá	4	Abril	2023-04-26T00:00:00	2024-11-06T23:00:00	1	Precipitación	0
92344	7	Sololá	702	San José Chacayá	5	Chacayá	4	Abril	2023-04-26T00:00:00	2024-11-06T23:00:00	8	Radiación solar	0
92345	7	Sololá	702	San José Chacayá	5	Chacayá	4	Abril	2023-04-27T00:00:00	2024-11-06T00:00:00	2	Temperatura media	12.4
92346	7	Sololá	702	San José Chacayá	5	Chacayá	4	Abril	2023-04-27T00:00:00	2024-11-06T00:00:00	4	Temperatura máxima	13.1
92347	7	Sololá	702	San José Chacayá	5	Chacayá	4	Abril	2023-04-27T00:00:00	2024-11-06T00:00:00	3	Temperatura mínima	12.4
92348	7	Sololá	702	San José Chacayá	5	Chacayá	4	Abril	2023-04-27T00:00:00	2024-11-06T00:00:00	5	Humedad	83
92349	7	Sololá	702	San José Chacayá	5	Chacayá	4	Abril	2023-04-27T00:00:00	2024-11-06T00:00:00	6	Velocidad del viento	4.8
92350	7	Sololá	702	San José Chacayá	5	Chacayá	4	Abril	2023-04-27T00:00:00	2024-11-06T00:00:00	7	Dirección del viento	4.83
92351	7	Sololá	702	San José Chacayá	5	Chacayá	4	Abril	2023-04-27T00:00:00	2024-11-06T00:00:00	1	Precipitación	0
92352	7	Sololá	702	San José Chacayá	5	Chacayá	4	Abril	2023-04-27T00:00:00	2024-11-06T00:00:00	8	Radiación solar	0
92353	7	Sololá	702	San José Chacayá	5	Chacayá	4	Abril	2023-04-27T00:00:00	2024-11-06T01:00:00	2	Temperatura media	12.3
92354	7	Sololá	702	San José Chacayá	5	Chacayá	4	Abril	2023-04-27T00:00:00	2024-11-06T01:00:00	4	Temperatura máxima	12.4
92355	7	Sololá	702	San José Chacayá	5	Chacayá	4	Abril	2023-04-27T00:00:00	2024-11-06T01:00:00	3	Temperatura mínima	12.1
92356	7	Sololá	702	San José Chacayá	5	Chacayá	4	Abril	2023-04-27T00:00:00	2024-11-06T01:00:00	5	Humedad	84
92357	7	Sololá	702	San José Chacayá	5	Chacayá	4	Abril	2023-04-27T00:00:00	2024-11-06T01:00:00	6	Velocidad del viento	3.2
92358	7	Sololá	702	San José Chacayá	5	Chacayá	4	Abril	2023-04-27T00:00:00	2024-11-06T01:00:00	7	Dirección del viento	3.22
92359	7	Sololá	702	San José Chacayá	5	Chacayá	4	Abril	2023-04-27T00:00:00	2024-11-06T01:00:00	1	Precipitación	0
92360	7	Sololá	702	San José Chacayá	5	Chacayá	4	Abril	2023-04-27T00:00:00	2024-11-06T01:00:00	8	Radiación solar	0
92361	7	Sololá	702	San José Chacayá	5	Chacayá	4	Abril	2023-04-27T00:00:00	2024-11-06T02:00:00	2	Temperatura media	11.4
92362	7	Sololá	702	San José Chacayá	5	Chacayá	4	Abril	2023-04-27T00:00:00	2024-11-06T02:00:00	4	Temperatura máxima	12.3
92363	7	Sololá	702	San José Chacayá	5	Chacayá	4	Abril	2023-04-27T00:00:00	2024-11-06T02:00:00	3	Temperatura mínima	11.4
92364	7	Sololá	702	San José Chacayá	5	Chacayá	4	Abril	2023-04-27T00:00:00	2024-11-06T02:00:00	5	Humedad	82
92365	7	Sololá	702	San José Chacayá	5	Chacayá	4	Abril	2023-04-27T00:00:00	2024-11-06T02:00:00	6	Velocidad del viento	1.6
92366	7	Sololá	702	San José Chacayá	5	Chacayá	4	Abril	2023-04-27T00:00:00	2024-11-06T02:00:00	7	Dirección del viento	1.61
92367	7	Sololá	702	San José Chacayá	5	Chacayá	4	Abril	2023-04-27T00:00:00	2024-11-06T02:00:00	1	Precipitación	0
92368	7	Sololá	702	San José Chacayá	5	Chacayá	4	Abril	2023-04-27T00:00:00	2024-11-06T02:00:00	8	Radiación solar	0
92369	7	Sololá	702	San José Chacayá	5	Chacayá	4	Abril	2023-04-27T00:00:00	2024-11-06T03:00:00	2	Temperatura media	11.1
92370	7	Sololá	702	San José Chacayá	5	Chacayá	4	Abril	2023-04-27T00:00:00	2024-11-06T03:00:00	4	Temperatura máxima	11.4
92371	7	Sololá	702	San José Chacayá	5	Chacayá	4	Abril	2023-04-27T00:00:00	2024-11-06T03:00:00	3	Temperatura mínima	11
92372	7	Sololá	702	San José Chacayá	5	Chacayá	4	Abril	2023-04-27T00:00:00	2024-11-06T03:00:00	5	Humedad	79
92373	7	Sololá	702	San José Chacayá	5	Chacayá	4	Abril	2023-04-27T00:00:00	2024-11-06T03:00:00	6	Velocidad del viento	1.6
92374	7	Sololá	702	San José Chacayá	5	Chacayá	4	Abril	2023-04-27T00:00:00	2024-11-06T03:00:00	7	Dirección del viento	1.61
92375	7	Sololá	702	San José Chacayá	5	Chacayá	4	Abril	2023-04-27T00:00:00	2024-11-06T03:00:00	1	Precipitación	0
92376	7	Sololá	702	San José Chacayá	5	Chacayá	4	Abril	2023-04-27T00:00:00	2024-11-06T03:00:00	8	Radiación solar	0
92377	7	Sololá	702	San José Chacayá	5	Chacayá	4	Abril	2023-04-27T00:00:00	2024-11-06T04:00:00	2	Temperatura media	11
92378	7	Sololá	702	San José Chacayá	5	Chacayá	4	Abril	2023-04-27T00:00:00	2024-11-06T04:00:00	4	Temperatura máxima	11.3
92379	7	Sololá	702	San José Chacayá	5	Chacayá	4	Abril	2023-04-27T00:00:00	2024-11-06T04:00:00	3	Temperatura mínima	10.9
92380	7	Sololá	702	San José Chacayá	5	Chacayá	4	Abril	2023-04-27T00:00:00	2024-11-06T04:00:00	5	Humedad	79
92381	7	Sololá	702	San José Chacayá	5	Chacayá	4	Abril	2023-04-27T00:00:00	2024-11-06T04:00:00	6	Velocidad del viento	1.6
92382	7	Sololá	702	San José Chacayá	5	Chacayá	4	Abril	2023-04-27T00:00:00	2024-11-06T04:00:00	7	Dirección del viento	1.61
92383	7	Sololá	702	San José Chacayá	5	Chacayá	4	Abril	2023-04-27T00:00:00	2024-11-06T04:00:00	1	Precipitación	0
92384	7	Sololá	702	San José Chacayá	5	Chacayá	4	Abril	2023-04-27T00:00:00	2024-11-06T04:00:00	8	Radiación solar	0
92385	7	Sololá	702	San José Chacayá	5	Chacayá	4	Abril	2023-04-27T00:00:00	2024-11-06T05:00:00	2	Temperatura media	10.9
92386	7	Sololá	702	San José Chacayá	5	Chacayá	4	Abril	2023-04-27T00:00:00	2024-11-06T05:00:00	4	Temperatura máxima	11
92387	7	Sololá	702	San José Chacayá	5	Chacayá	4	Abril	2023-04-27T00:00:00	2024-11-06T05:00:00	3	Temperatura mínima	10.8
92388	7	Sololá	702	San José Chacayá	5	Chacayá	4	Abril	2023-04-27T00:00:00	2024-11-06T05:00:00	5	Humedad	79
92389	7	Sololá	702	San José Chacayá	5	Chacayá	4	Abril	2023-04-27T00:00:00	2024-11-06T05:00:00	6	Velocidad del viento	3.2
92390	7	Sololá	702	San José Chacayá	5	Chacayá	4	Abril	2023-04-27T00:00:00	2024-11-06T05:00:00	7	Dirección del viento	3.22
92391	7	Sololá	702	San José Chacayá	5	Chacayá	4	Abril	2023-04-27T00:00:00	2024-11-06T05:00:00	1	Precipitación	0
92392	7	Sololá	702	San José Chacayá	5	Chacayá	4	Abril	2023-04-27T00:00:00	2024-11-06T05:00:00	8	Radiación solar	0
92393	7	Sololá	702	San José Chacayá	5	Chacayá	4	Abril	2023-04-27T00:00:00	2024-11-06T06:00:00	2	Temperatura media	10.6
92394	7	Sololá	702	San José Chacayá	5	Chacayá	4	Abril	2023-04-27T00:00:00	2024-11-06T06:00:00	4	Temperatura máxima	11.1
92395	7	Sololá	702	San José Chacayá	5	Chacayá	4	Abril	2023-04-27T00:00:00	2024-11-06T06:00:00	3	Temperatura mínima	10.6
92396	7	Sololá	702	San José Chacayá	5	Chacayá	4	Abril	2023-04-27T00:00:00	2024-11-06T06:00:00	5	Humedad	82
92397	7	Sololá	702	San José Chacayá	5	Chacayá	4	Abril	2023-04-27T00:00:00	2024-11-06T06:00:00	6	Velocidad del viento	3.2
92398	7	Sololá	702	San José Chacayá	5	Chacayá	4	Abril	2023-04-27T00:00:00	2024-11-06T06:00:00	7	Dirección del viento	3.22
92399	7	Sololá	702	San José Chacayá	5	Chacayá	4	Abril	2023-04-27T00:00:00	2024-11-06T06:00:00	1	Precipitación	0
92400	7	Sololá	702	San José Chacayá	5	Chacayá	4	Abril	2023-04-27T00:00:00	2024-11-06T06:00:00	8	Radiación solar	0
92401	7	Sololá	702	San José Chacayá	5	Chacayá	4	Abril	2023-04-27T00:00:00	2024-11-06T07:00:00	2	Temperatura media	10.7
92402	7	Sololá	702	San José Chacayá	5	Chacayá	4	Abril	2023-04-27T00:00:00	2024-11-06T07:00:00	4	Temperatura máxima	10.7
92403	7	Sololá	702	San José Chacayá	5	Chacayá	4	Abril	2023-04-27T00:00:00	2024-11-06T07:00:00	3	Temperatura mínima	10.4
92404	7	Sololá	702	San José Chacayá	5	Chacayá	4	Abril	2023-04-27T00:00:00	2024-11-06T07:00:00	5	Humedad	79
92405	7	Sololá	702	San José Chacayá	5	Chacayá	4	Abril	2023-04-27T00:00:00	2024-11-06T07:00:00	6	Velocidad del viento	3.2
92406	7	Sololá	702	San José Chacayá	5	Chacayá	4	Abril	2023-04-27T00:00:00	2024-11-06T07:00:00	7	Dirección del viento	3.22
92407	7	Sololá	702	San José Chacayá	5	Chacayá	4	Abril	2023-04-27T00:00:00	2024-11-06T07:00:00	1	Precipitación	0
92408	7	Sololá	702	San José Chacayá	5	Chacayá	4	Abril	2023-04-27T00:00:00	2024-11-06T07:00:00	8	Radiación solar	2
92409	7	Sololá	702	San José Chacayá	5	Chacayá	4	Abril	2023-04-27T00:00:00	2024-11-06T08:00:00	2	Temperatura media	12.4
92410	7	Sololá	702	San José Chacayá	5	Chacayá	4	Abril	2023-04-27T00:00:00	2024-11-06T08:00:00	4	Temperatura máxima	12.4
92411	7	Sololá	702	San José Chacayá	5	Chacayá	4	Abril	2023-04-27T00:00:00	2024-11-06T08:00:00	3	Temperatura mínima	10.7
92412	7	Sololá	702	San José Chacayá	5	Chacayá	4	Abril	2023-04-27T00:00:00	2024-11-06T08:00:00	5	Humedad	77
92413	7	Sololá	702	San José Chacayá	5	Chacayá	4	Abril	2023-04-27T00:00:00	2024-11-06T08:00:00	6	Velocidad del viento	1.6
92414	7	Sololá	702	San José Chacayá	5	Chacayá	4	Abril	2023-04-27T00:00:00	2024-11-06T08:00:00	7	Dirección del viento	1.61
92415	7	Sololá	702	San José Chacayá	5	Chacayá	4	Abril	2023-04-27T00:00:00	2024-11-06T08:00:00	1	Precipitación	0
92416	7	Sololá	702	San José Chacayá	5	Chacayá	4	Abril	2023-04-27T00:00:00	2024-11-06T08:00:00	8	Radiación solar	43
92417	7	Sololá	702	San José Chacayá	5	Chacayá	4	Abril	2023-04-27T00:00:00	2024-11-06T09:00:00	2	Temperatura media	15.8
92418	7	Sololá	702	San José Chacayá	5	Chacayá	4	Abril	2023-04-27T00:00:00	2024-11-06T09:00:00	4	Temperatura máxima	15.8
92419	7	Sololá	702	San José Chacayá	5	Chacayá	4	Abril	2023-04-27T00:00:00	2024-11-06T09:00:00	3	Temperatura mínima	12.5
92420	7	Sololá	702	San José Chacayá	5	Chacayá	4	Abril	2023-04-27T00:00:00	2024-11-06T09:00:00	5	Humedad	83
92421	7	Sololá	702	San José Chacayá	5	Chacayá	4	Abril	2023-04-27T00:00:00	2024-11-06T09:00:00	6	Velocidad del viento	1.6
92422	7	Sololá	702	San José Chacayá	5	Chacayá	4	Abril	2023-04-27T00:00:00	2024-11-06T09:00:00	7	Dirección del viento	1.61
92423	7	Sololá	702	San José Chacayá	5	Chacayá	4	Abril	2023-04-27T00:00:00	2024-11-06T09:00:00	1	Precipitación	0
92424	7	Sololá	702	San José Chacayá	5	Chacayá	4	Abril	2023-04-27T00:00:00	2024-11-06T09:00:00	8	Radiación solar	84
92425	7	Sololá	702	San José Chacayá	5	Chacayá	4	Abril	2023-04-27T00:00:00	2024-11-06T10:00:00	2	Temperatura media	19.4
92426	7	Sololá	702	San José Chacayá	5	Chacayá	4	Abril	2023-04-27T00:00:00	2024-11-06T10:00:00	4	Temperatura máxima	19.6
92427	7	Sololá	702	San José Chacayá	5	Chacayá	4	Abril	2023-04-27T00:00:00	2024-11-06T10:00:00	3	Temperatura mínima	15.8
92428	7	Sololá	702	San José Chacayá	5	Chacayá	4	Abril	2023-04-27T00:00:00	2024-11-06T10:00:00	5	Humedad	75
92429	7	Sololá	702	San José Chacayá	5	Chacayá	4	Abril	2023-04-27T00:00:00	2024-11-06T10:00:00	6	Velocidad del viento	3.2
92430	7	Sololá	702	San José Chacayá	5	Chacayá	4	Abril	2023-04-27T00:00:00	2024-11-06T10:00:00	7	Dirección del viento	3.22
92431	7	Sololá	702	San José Chacayá	5	Chacayá	4	Abril	2023-04-27T00:00:00	2024-11-06T10:00:00	1	Precipitación	0
92432	7	Sololá	702	San José Chacayá	5	Chacayá	4	Abril	2023-04-27T00:00:00	2024-11-06T10:00:00	8	Radiación solar	467
92433	7	Sololá	702	San José Chacayá	5	Chacayá	4	Abril	2023-04-27T00:00:00	2024-11-06T11:00:00	2	Temperatura media	20.7
92434	7	Sololá	702	San José Chacayá	5	Chacayá	4	Abril	2023-04-27T00:00:00	2024-11-06T11:00:00	4	Temperatura máxima	20.7
92435	7	Sololá	702	San José Chacayá	5	Chacayá	4	Abril	2023-04-27T00:00:00	2024-11-06T11:00:00	3	Temperatura mínima	19.3
92436	7	Sololá	702	San José Chacayá	5	Chacayá	4	Abril	2023-04-27T00:00:00	2024-11-06T11:00:00	5	Humedad	70
92437	7	Sololá	702	San José Chacayá	5	Chacayá	4	Abril	2023-04-27T00:00:00	2024-11-06T11:00:00	6	Velocidad del viento	3.2
92438	7	Sololá	702	San José Chacayá	5	Chacayá	4	Abril	2023-04-27T00:00:00	2024-11-06T11:00:00	7	Dirección del viento	3.22
92439	7	Sololá	702	San José Chacayá	5	Chacayá	4	Abril	2023-04-27T00:00:00	2024-11-06T11:00:00	1	Precipitación	0
92440	7	Sololá	702	San José Chacayá	5	Chacayá	4	Abril	2023-04-27T00:00:00	2024-11-06T11:00:00	8	Radiación solar	758
92441	7	Sololá	702	San José Chacayá	5	Chacayá	4	Abril	2023-04-27T00:00:00	2024-11-06T12:00:00	2	Temperatura media	21.1
92442	7	Sololá	702	San José Chacayá	5	Chacayá	4	Abril	2023-04-27T00:00:00	2024-11-06T12:00:00	4	Temperatura máxima	21.2
92443	7	Sololá	702	San José Chacayá	5	Chacayá	4	Abril	2023-04-27T00:00:00	2024-11-06T12:00:00	3	Temperatura mínima	20.2
92444	7	Sololá	702	San José Chacayá	5	Chacayá	4	Abril	2023-04-27T00:00:00	2024-11-06T12:00:00	5	Humedad	67
92445	7	Sololá	702	San José Chacayá	5	Chacayá	4	Abril	2023-04-27T00:00:00	2024-11-06T12:00:00	6	Velocidad del viento	6.4
92446	7	Sololá	702	San José Chacayá	5	Chacayá	4	Abril	2023-04-27T00:00:00	2024-11-06T12:00:00	7	Dirección del viento	6.44
92447	7	Sololá	702	San José Chacayá	5	Chacayá	4	Abril	2023-04-27T00:00:00	2024-11-06T12:00:00	1	Precipitación	0
92448	7	Sololá	702	San José Chacayá	5	Chacayá	4	Abril	2023-04-27T00:00:00	2024-11-06T12:00:00	8	Radiación solar	914
92449	7	Sololá	702	San José Chacayá	5	Chacayá	4	Abril	2023-04-27T00:00:00	2024-11-06T13:00:00	2	Temperatura media	20.6
92450	7	Sololá	702	San José Chacayá	5	Chacayá	4	Abril	2023-04-27T00:00:00	2024-11-06T13:00:00	4	Temperatura máxima	21.2
92451	7	Sololá	702	San José Chacayá	5	Chacayá	4	Abril	2023-04-27T00:00:00	2024-11-06T13:00:00	3	Temperatura mínima	20.6
92452	7	Sololá	702	San José Chacayá	5	Chacayá	4	Abril	2023-04-27T00:00:00	2024-11-06T13:00:00	5	Humedad	73
92453	7	Sololá	702	San José Chacayá	5	Chacayá	4	Abril	2023-04-27T00:00:00	2024-11-06T13:00:00	6	Velocidad del viento	8
92454	7	Sololá	702	San José Chacayá	5	Chacayá	4	Abril	2023-04-27T00:00:00	2024-11-06T13:00:00	7	Dirección del viento	8.05
92455	7	Sololá	702	San José Chacayá	5	Chacayá	4	Abril	2023-04-27T00:00:00	2024-11-06T13:00:00	1	Precipitación	0
92456	7	Sololá	702	San José Chacayá	5	Chacayá	4	Abril	2023-04-27T00:00:00	2024-11-06T13:00:00	8	Radiación solar	1000
92457	7	Sololá	702	San José Chacayá	5	Chacayá	4	Abril	2023-04-27T00:00:00	2024-11-06T14:00:00	2	Temperatura media	20.1
92458	7	Sololá	702	San José Chacayá	5	Chacayá	4	Abril	2023-04-27T00:00:00	2024-11-06T14:00:00	4	Temperatura máxima	21.2
92459	7	Sololá	702	San José Chacayá	5	Chacayá	4	Abril	2023-04-27T00:00:00	2024-11-06T14:00:00	3	Temperatura mínima	19.5
92460	7	Sololá	702	San José Chacayá	5	Chacayá	4	Abril	2023-04-27T00:00:00	2024-11-06T14:00:00	5	Humedad	75
92461	7	Sololá	702	San José Chacayá	5	Chacayá	4	Abril	2023-04-27T00:00:00	2024-11-06T14:00:00	6	Velocidad del viento	9.7
92462	7	Sololá	702	San José Chacayá	5	Chacayá	4	Abril	2023-04-27T00:00:00	2024-11-06T14:00:00	7	Dirección del viento	9.66
92463	7	Sololá	702	San José Chacayá	5	Chacayá	4	Abril	2023-04-27T00:00:00	2024-11-06T14:00:00	1	Precipitación	0
92464	7	Sololá	702	San José Chacayá	5	Chacayá	4	Abril	2023-04-27T00:00:00	2024-11-06T14:00:00	8	Radiación solar	1015
92465	7	Sololá	702	San José Chacayá	5	Chacayá	4	Abril	2023-04-27T00:00:00	2024-11-06T15:00:00	2	Temperatura media	20.3
92466	7	Sololá	702	San José Chacayá	5	Chacayá	4	Abril	2023-04-27T00:00:00	2024-11-06T15:00:00	4	Temperatura máxima	20.9
92467	7	Sololá	702	San José Chacayá	5	Chacayá	4	Abril	2023-04-27T00:00:00	2024-11-06T15:00:00	3	Temperatura mínima	19.5
92468	7	Sololá	702	San José Chacayá	5	Chacayá	4	Abril	2023-04-27T00:00:00	2024-11-06T15:00:00	5	Humedad	76
92469	7	Sololá	702	San José Chacayá	5	Chacayá	4	Abril	2023-04-27T00:00:00	2024-11-06T15:00:00	6	Velocidad del viento	8
92470	7	Sololá	702	San José Chacayá	5	Chacayá	4	Abril	2023-04-27T00:00:00	2024-11-06T15:00:00	7	Dirección del viento	8.05
92471	7	Sololá	702	San José Chacayá	5	Chacayá	4	Abril	2023-04-27T00:00:00	2024-11-06T15:00:00	1	Precipitación	0
92472	7	Sololá	702	San José Chacayá	5	Chacayá	4	Abril	2023-04-27T00:00:00	2024-11-06T15:00:00	8	Radiación solar	793
92473	7	Sololá	702	San José Chacayá	5	Chacayá	4	Abril	2023-04-27T00:00:00	2024-11-06T16:00:00	2	Temperatura media	18.9
92474	7	Sololá	702	San José Chacayá	5	Chacayá	4	Abril	2023-04-27T00:00:00	2024-11-06T16:00:00	4	Temperatura máxima	20.7
92475	7	Sololá	702	San José Chacayá	5	Chacayá	4	Abril	2023-04-27T00:00:00	2024-11-06T16:00:00	3	Temperatura mínima	18.8
92476	7	Sololá	702	San José Chacayá	5	Chacayá	4	Abril	2023-04-27T00:00:00	2024-11-06T16:00:00	5	Humedad	81
92477	7	Sololá	702	San José Chacayá	5	Chacayá	4	Abril	2023-04-27T00:00:00	2024-11-06T16:00:00	6	Velocidad del viento	9.7
92478	7	Sololá	702	San José Chacayá	5	Chacayá	4	Abril	2023-04-27T00:00:00	2024-11-06T16:00:00	7	Dirección del viento	9.66
92479	7	Sololá	702	San José Chacayá	5	Chacayá	4	Abril	2023-04-27T00:00:00	2024-11-06T16:00:00	1	Precipitación	0
92480	7	Sololá	702	San José Chacayá	5	Chacayá	4	Abril	2023-04-27T00:00:00	2024-11-06T16:00:00	8	Radiación solar	535
92481	7	Sololá	702	San José Chacayá	5	Chacayá	4	Abril	2023-04-27T00:00:00	2024-11-06T17:00:00	2	Temperatura media	18.6
92482	7	Sololá	702	San José Chacayá	5	Chacayá	4	Abril	2023-04-27T00:00:00	2024-11-06T17:00:00	4	Temperatura máxima	19.3
92483	7	Sololá	702	San José Chacayá	5	Chacayá	4	Abril	2023-04-27T00:00:00	2024-11-06T17:00:00	3	Temperatura mínima	18.3
92484	7	Sololá	702	San José Chacayá	5	Chacayá	4	Abril	2023-04-27T00:00:00	2024-11-06T17:00:00	5	Humedad	82
92485	7	Sololá	702	San José Chacayá	5	Chacayá	4	Abril	2023-04-27T00:00:00	2024-11-06T17:00:00	6	Velocidad del viento	4.8
92486	7	Sololá	702	San José Chacayá	5	Chacayá	4	Abril	2023-04-27T00:00:00	2024-11-06T17:00:00	7	Dirección del viento	4.83
92487	7	Sololá	702	San José Chacayá	5	Chacayá	4	Abril	2023-04-27T00:00:00	2024-11-06T17:00:00	1	Precipitación	0
92488	7	Sololá	702	San José Chacayá	5	Chacayá	4	Abril	2023-04-27T00:00:00	2024-11-06T17:00:00	8	Radiación solar	209
92489	7	Sololá	702	San José Chacayá	5	Chacayá	4	Abril	2023-04-27T00:00:00	2024-11-06T18:00:00	2	Temperatura media	17.2
92490	7	Sololá	702	San José Chacayá	5	Chacayá	4	Abril	2023-04-27T00:00:00	2024-11-06T18:00:00	4	Temperatura máxima	18.7
92491	7	Sololá	702	San José Chacayá	5	Chacayá	4	Abril	2023-04-27T00:00:00	2024-11-06T18:00:00	3	Temperatura mínima	17.2
92492	7	Sololá	702	San José Chacayá	5	Chacayá	4	Abril	2023-04-27T00:00:00	2024-11-06T18:00:00	5	Humedad	83
92493	7	Sololá	702	San José Chacayá	5	Chacayá	4	Abril	2023-04-27T00:00:00	2024-11-06T18:00:00	6	Velocidad del viento	3.2
92494	7	Sololá	702	San José Chacayá	5	Chacayá	4	Abril	2023-04-27T00:00:00	2024-11-06T18:00:00	7	Dirección del viento	3.22
92495	7	Sololá	702	San José Chacayá	5	Chacayá	4	Abril	2023-04-27T00:00:00	2024-11-06T18:00:00	1	Precipitación	0
92496	7	Sololá	702	San José Chacayá	5	Chacayá	4	Abril	2023-04-27T00:00:00	2024-11-06T18:00:00	8	Radiación solar	62
92497	7	Sololá	702	San José Chacayá	5	Chacayá	4	Abril	2023-04-27T00:00:00	2024-11-06T19:00:00	2	Temperatura media	16.5
92498	7	Sololá	702	San José Chacayá	5	Chacayá	4	Abril	2023-04-27T00:00:00	2024-11-06T19:00:00	4	Temperatura máxima	17.3
92499	7	Sololá	702	San José Chacayá	5	Chacayá	4	Abril	2023-04-27T00:00:00	2024-11-06T19:00:00	3	Temperatura mínima	16.5
92500	7	Sololá	702	San José Chacayá	5	Chacayá	4	Abril	2023-04-27T00:00:00	2024-11-06T19:00:00	5	Humedad	81
92501	7	Sololá	702	San José Chacayá	5	Chacayá	4	Abril	2023-04-27T00:00:00	2024-11-06T19:00:00	6	Velocidad del viento	1.6
92502	7	Sololá	702	San José Chacayá	5	Chacayá	4	Abril	2023-04-27T00:00:00	2024-11-06T19:00:00	7	Dirección del viento	1.61
92503	7	Sololá	702	San José Chacayá	5	Chacayá	4	Abril	2023-04-27T00:00:00	2024-11-06T19:00:00	1	Precipitación	0
92504	7	Sololá	702	San José Chacayá	5	Chacayá	4	Abril	2023-04-27T00:00:00	2024-11-06T19:00:00	8	Radiación solar	0
92505	7	Sololá	702	San José Chacayá	5	Chacayá	4	Abril	2023-04-27T00:00:00	2024-11-06T20:00:00	2	Temperatura media	16.3
92506	7	Sololá	702	San José Chacayá	5	Chacayá	4	Abril	2023-04-27T00:00:00	2024-11-06T20:00:00	4	Temperatura máxima	16.5
92507	7	Sololá	702	San José Chacayá	5	Chacayá	4	Abril	2023-04-27T00:00:00	2024-11-06T20:00:00	3	Temperatura mínima	16.2
92508	7	Sololá	702	San José Chacayá	5	Chacayá	4	Abril	2023-04-27T00:00:00	2024-11-06T20:00:00	5	Humedad	77
92509	7	Sololá	702	San José Chacayá	5	Chacayá	4	Abril	2023-04-27T00:00:00	2024-11-06T20:00:00	6	Velocidad del viento	1.6
92510	7	Sololá	702	San José Chacayá	5	Chacayá	4	Abril	2023-04-27T00:00:00	2024-11-06T20:00:00	7	Dirección del viento	1.61
92511	7	Sololá	702	San José Chacayá	5	Chacayá	4	Abril	2023-04-27T00:00:00	2024-11-06T20:00:00	1	Precipitación	0
92512	7	Sololá	702	San José Chacayá	5	Chacayá	4	Abril	2023-04-27T00:00:00	2024-11-06T20:00:00	8	Radiación solar	0
92513	7	Sololá	702	San José Chacayá	5	Chacayá	4	Abril	2023-04-27T00:00:00	2024-11-06T21:00:00	2	Temperatura media	16
92514	7	Sololá	702	San José Chacayá	5	Chacayá	4	Abril	2023-04-27T00:00:00	2024-11-06T21:00:00	4	Temperatura máxima	16.3
92515	7	Sololá	702	San José Chacayá	5	Chacayá	4	Abril	2023-04-27T00:00:00	2024-11-06T21:00:00	3	Temperatura mínima	16
92516	7	Sololá	702	San José Chacayá	5	Chacayá	4	Abril	2023-04-27T00:00:00	2024-11-06T21:00:00	5	Humedad	74
92517	7	Sololá	702	San José Chacayá	5	Chacayá	4	Abril	2023-04-27T00:00:00	2024-11-06T21:00:00	6	Velocidad del viento	1.6
92518	7	Sololá	702	San José Chacayá	5	Chacayá	4	Abril	2023-04-27T00:00:00	2024-11-06T21:00:00	7	Dirección del viento	1.61
92519	7	Sololá	702	San José Chacayá	5	Chacayá	4	Abril	2023-04-27T00:00:00	2024-11-06T21:00:00	1	Precipitación	0
92520	7	Sololá	702	San José Chacayá	5	Chacayá	4	Abril	2023-04-27T00:00:00	2024-11-06T21:00:00	8	Radiación solar	0
92521	7	Sololá	702	San José Chacayá	5	Chacayá	4	Abril	2023-04-27T00:00:00	2024-11-06T22:00:00	2	Temperatura media	15.9
92522	7	Sololá	702	San José Chacayá	5	Chacayá	4	Abril	2023-04-27T00:00:00	2024-11-06T22:00:00	4	Temperatura máxima	16.1
92523	7	Sololá	702	San José Chacayá	5	Chacayá	4	Abril	2023-04-27T00:00:00	2024-11-06T22:00:00	3	Temperatura mínima	15.9
92524	7	Sololá	702	San José Chacayá	5	Chacayá	4	Abril	2023-04-27T00:00:00	2024-11-06T22:00:00	5	Humedad	71
92525	7	Sololá	702	San José Chacayá	5	Chacayá	4	Abril	2023-04-27T00:00:00	2024-11-06T22:00:00	6	Velocidad del viento	0
92526	7	Sololá	702	San José Chacayá	5	Chacayá	4	Abril	2023-04-27T00:00:00	2024-11-06T22:00:00	7	Dirección del viento	0
92527	7	Sololá	702	San José Chacayá	5	Chacayá	4	Abril	2023-04-27T00:00:00	2024-11-06T22:00:00	1	Precipitación	0
92528	7	Sololá	702	San José Chacayá	5	Chacayá	4	Abril	2023-04-27T00:00:00	2024-11-06T22:00:00	8	Radiación solar	0
92529	7	Sololá	702	San José Chacayá	5	Chacayá	4	Abril	2023-04-27T00:00:00	2024-11-06T23:00:00	2	Temperatura media	15.5
92530	7	Sololá	702	San José Chacayá	5	Chacayá	4	Abril	2023-04-27T00:00:00	2024-11-06T23:00:00	4	Temperatura máxima	15.9
92531	7	Sololá	702	San José Chacayá	5	Chacayá	4	Abril	2023-04-27T00:00:00	2024-11-06T23:00:00	3	Temperatura mínima	15.4
92532	7	Sololá	702	San José Chacayá	5	Chacayá	4	Abril	2023-04-27T00:00:00	2024-11-06T23:00:00	5	Humedad	69
92533	7	Sololá	702	San José Chacayá	5	Chacayá	4	Abril	2023-04-27T00:00:00	2024-11-06T23:00:00	6	Velocidad del viento	1.6
92534	7	Sololá	702	San José Chacayá	5	Chacayá	4	Abril	2023-04-27T00:00:00	2024-11-06T23:00:00	7	Dirección del viento	1.61
92535	7	Sololá	702	San José Chacayá	5	Chacayá	4	Abril	2023-04-27T00:00:00	2024-11-06T23:00:00	1	Precipitación	0
92536	7	Sololá	702	San José Chacayá	5	Chacayá	4	Abril	2023-04-27T00:00:00	2024-11-06T23:00:00	8	Radiación solar	0
92537	7	Sololá	702	San José Chacayá	5	Chacayá	4	Abril	2023-04-28T00:00:00	2024-11-06T00:00:00	2	Temperatura media	14.6
92538	7	Sololá	702	San José Chacayá	5	Chacayá	4	Abril	2023-04-28T00:00:00	2024-11-06T00:00:00	4	Temperatura máxima	15.5
92539	7	Sololá	702	San José Chacayá	5	Chacayá	4	Abril	2023-04-28T00:00:00	2024-11-06T00:00:00	3	Temperatura mínima	14.6
92540	7	Sololá	702	San José Chacayá	5	Chacayá	4	Abril	2023-04-28T00:00:00	2024-11-06T00:00:00	5	Humedad	74
92541	7	Sololá	702	San José Chacayá	5	Chacayá	4	Abril	2023-04-28T00:00:00	2024-11-06T00:00:00	6	Velocidad del viento	0
92542	7	Sololá	702	San José Chacayá	5	Chacayá	4	Abril	2023-04-28T00:00:00	2024-11-06T00:00:00	7	Dirección del viento	0
92543	7	Sololá	702	San José Chacayá	5	Chacayá	4	Abril	2023-04-28T00:00:00	2024-11-06T00:00:00	1	Precipitación	0
92544	7	Sololá	702	San José Chacayá	5	Chacayá	4	Abril	2023-04-28T00:00:00	2024-11-06T00:00:00	8	Radiación solar	0
92545	7	Sololá	702	San José Chacayá	5	Chacayá	4	Abril	2023-04-28T00:00:00	2024-11-06T01:00:00	2	Temperatura media	13.7
92546	7	Sololá	702	San José Chacayá	5	Chacayá	4	Abril	2023-04-28T00:00:00	2024-11-06T01:00:00	4	Temperatura máxima	14.6
92547	7	Sololá	702	San José Chacayá	5	Chacayá	4	Abril	2023-04-28T00:00:00	2024-11-06T01:00:00	3	Temperatura mínima	13.7
92548	7	Sololá	702	San José Chacayá	5	Chacayá	4	Abril	2023-04-28T00:00:00	2024-11-06T01:00:00	5	Humedad	75
92549	7	Sololá	702	San José Chacayá	5	Chacayá	4	Abril	2023-04-28T00:00:00	2024-11-06T01:00:00	6	Velocidad del viento	0
92550	7	Sololá	702	San José Chacayá	5	Chacayá	4	Abril	2023-04-28T00:00:00	2024-11-06T01:00:00	7	Dirección del viento	0
92551	7	Sololá	702	San José Chacayá	5	Chacayá	4	Abril	2023-04-28T00:00:00	2024-11-06T01:00:00	1	Precipitación	0
92552	7	Sololá	702	San José Chacayá	5	Chacayá	4	Abril	2023-04-28T00:00:00	2024-11-06T01:00:00	8	Radiación solar	0
92553	7	Sololá	702	San José Chacayá	5	Chacayá	4	Abril	2023-04-28T00:00:00	2024-11-06T02:00:00	2	Temperatura media	13.9
92554	7	Sololá	702	San José Chacayá	5	Chacayá	4	Abril	2023-04-28T00:00:00	2024-11-06T02:00:00	4	Temperatura máxima	14.1
92555	7	Sololá	702	San José Chacayá	5	Chacayá	4	Abril	2023-04-28T00:00:00	2024-11-06T02:00:00	3	Temperatura mínima	13.7
92556	7	Sololá	702	San José Chacayá	5	Chacayá	4	Abril	2023-04-28T00:00:00	2024-11-06T02:00:00	5	Humedad	79
92557	7	Sololá	702	San José Chacayá	5	Chacayá	4	Abril	2023-04-28T00:00:00	2024-11-06T02:00:00	6	Velocidad del viento	1.6
92558	7	Sololá	702	San José Chacayá	5	Chacayá	4	Abril	2023-04-28T00:00:00	2024-11-06T02:00:00	7	Dirección del viento	1.61
92559	7	Sololá	702	San José Chacayá	5	Chacayá	4	Abril	2023-04-28T00:00:00	2024-11-06T02:00:00	1	Precipitación	0
92560	7	Sololá	702	San José Chacayá	5	Chacayá	4	Abril	2023-04-28T00:00:00	2024-11-06T02:00:00	8	Radiación solar	0
92561	7	Sololá	702	San José Chacayá	5	Chacayá	4	Abril	2023-04-28T00:00:00	2024-11-06T03:00:00	2	Temperatura media	13.1
92562	7	Sololá	702	San José Chacayá	5	Chacayá	4	Abril	2023-04-28T00:00:00	2024-11-06T03:00:00	4	Temperatura máxima	13.9
92563	7	Sololá	702	San José Chacayá	5	Chacayá	4	Abril	2023-04-28T00:00:00	2024-11-06T03:00:00	3	Temperatura mínima	13.1
92564	7	Sololá	702	San José Chacayá	5	Chacayá	4	Abril	2023-04-28T00:00:00	2024-11-06T03:00:00	5	Humedad	83
92565	7	Sololá	702	San José Chacayá	5	Chacayá	4	Abril	2023-04-28T00:00:00	2024-11-06T03:00:00	6	Velocidad del viento	1.6
92566	7	Sololá	702	San José Chacayá	5	Chacayá	4	Abril	2023-04-28T00:00:00	2024-11-06T03:00:00	7	Dirección del viento	1.61
92567	7	Sololá	702	San José Chacayá	5	Chacayá	4	Abril	2023-04-28T00:00:00	2024-11-06T03:00:00	1	Precipitación	0
92568	7	Sololá	702	San José Chacayá	5	Chacayá	4	Abril	2023-04-28T00:00:00	2024-11-06T03:00:00	8	Radiación solar	0
92569	7	Sololá	702	San José Chacayá	5	Chacayá	4	Abril	2023-04-28T00:00:00	2024-11-06T04:00:00	2	Temperatura media	12.2
92570	7	Sololá	702	San José Chacayá	5	Chacayá	4	Abril	2023-04-28T00:00:00	2024-11-06T04:00:00	4	Temperatura máxima	13.1
92571	7	Sololá	702	San José Chacayá	5	Chacayá	4	Abril	2023-04-28T00:00:00	2024-11-06T04:00:00	3	Temperatura mínima	12.2
92572	7	Sololá	702	San José Chacayá	5	Chacayá	4	Abril	2023-04-28T00:00:00	2024-11-06T04:00:00	5	Humedad	82
92573	7	Sololá	702	San José Chacayá	5	Chacayá	4	Abril	2023-04-28T00:00:00	2024-11-06T04:00:00	6	Velocidad del viento	1.6
92574	7	Sololá	702	San José Chacayá	5	Chacayá	4	Abril	2023-04-28T00:00:00	2024-11-06T04:00:00	7	Dirección del viento	1.61
92575	7	Sololá	702	San José Chacayá	5	Chacayá	4	Abril	2023-04-28T00:00:00	2024-11-06T04:00:00	1	Precipitación	0
92576	7	Sololá	702	San José Chacayá	5	Chacayá	4	Abril	2023-04-28T00:00:00	2024-11-06T04:00:00	8	Radiación solar	0
92577	7	Sololá	702	San José Chacayá	5	Chacayá	4	Abril	2023-04-28T00:00:00	2024-11-06T05:00:00	2	Temperatura media	11.8
92578	7	Sololá	702	San José Chacayá	5	Chacayá	4	Abril	2023-04-28T00:00:00	2024-11-06T05:00:00	4	Temperatura máxima	12.2
92579	7	Sololá	702	San José Chacayá	5	Chacayá	4	Abril	2023-04-28T00:00:00	2024-11-06T05:00:00	3	Temperatura mínima	11.6
92580	7	Sololá	702	San José Chacayá	5	Chacayá	4	Abril	2023-04-28T00:00:00	2024-11-06T05:00:00	5	Humedad	79
92581	7	Sololá	702	San José Chacayá	5	Chacayá	4	Abril	2023-04-28T00:00:00	2024-11-06T05:00:00	6	Velocidad del viento	1.6
92582	7	Sololá	702	San José Chacayá	5	Chacayá	4	Abril	2023-04-28T00:00:00	2024-11-06T05:00:00	7	Dirección del viento	1.61
92583	7	Sololá	702	San José Chacayá	5	Chacayá	4	Abril	2023-04-28T00:00:00	2024-11-06T05:00:00	1	Precipitación	0
92584	7	Sololá	702	San José Chacayá	5	Chacayá	4	Abril	2023-04-28T00:00:00	2024-11-06T05:00:00	8	Radiación solar	0
92585	7	Sololá	702	San José Chacayá	5	Chacayá	4	Abril	2023-04-28T00:00:00	2024-11-06T06:00:00	2	Temperatura media	11.2
92586	7	Sololá	702	San José Chacayá	5	Chacayá	4	Abril	2023-04-28T00:00:00	2024-11-06T06:00:00	4	Temperatura máxima	11.8
92587	7	Sololá	702	San José Chacayá	5	Chacayá	4	Abril	2023-04-28T00:00:00	2024-11-06T06:00:00	3	Temperatura mínima	11.2
92588	7	Sololá	702	San José Chacayá	5	Chacayá	4	Abril	2023-04-28T00:00:00	2024-11-06T06:00:00	5	Humedad	80
92589	7	Sololá	702	San José Chacayá	5	Chacayá	4	Abril	2023-04-28T00:00:00	2024-11-06T06:00:00	6	Velocidad del viento	1.6
92590	7	Sololá	702	San José Chacayá	5	Chacayá	4	Abril	2023-04-28T00:00:00	2024-11-06T06:00:00	7	Dirección del viento	1.61
92591	7	Sololá	702	San José Chacayá	5	Chacayá	4	Abril	2023-04-28T00:00:00	2024-11-06T06:00:00	1	Precipitación	0
92592	7	Sololá	702	San José Chacayá	5	Chacayá	4	Abril	2023-04-28T00:00:00	2024-11-06T06:00:00	8	Radiación solar	0
92593	7	Sololá	702	San José Chacayá	5	Chacayá	4	Abril	2023-04-28T00:00:00	2024-11-06T07:00:00	2	Temperatura media	10.9
92594	7	Sololá	702	San José Chacayá	5	Chacayá	4	Abril	2023-04-28T00:00:00	2024-11-06T07:00:00	4	Temperatura máxima	11.2
92595	7	Sololá	702	San José Chacayá	5	Chacayá	4	Abril	2023-04-28T00:00:00	2024-11-06T07:00:00	3	Temperatura mínima	10.9
92596	7	Sololá	702	San José Chacayá	5	Chacayá	4	Abril	2023-04-28T00:00:00	2024-11-06T07:00:00	5	Humedad	78
92597	7	Sololá	702	San José Chacayá	5	Chacayá	4	Abril	2023-04-28T00:00:00	2024-11-06T07:00:00	6	Velocidad del viento	1.6
92598	7	Sololá	702	San José Chacayá	5	Chacayá	4	Abril	2023-04-28T00:00:00	2024-11-06T07:00:00	7	Dirección del viento	1.61
92599	7	Sololá	702	San José Chacayá	5	Chacayá	4	Abril	2023-04-28T00:00:00	2024-11-06T07:00:00	1	Precipitación	0
92600	7	Sololá	702	San José Chacayá	5	Chacayá	4	Abril	2023-04-28T00:00:00	2024-11-06T07:00:00	8	Radiación solar	3
92601	7	Sololá	702	San José Chacayá	5	Chacayá	4	Abril	2023-04-28T00:00:00	2024-11-06T08:00:00	2	Temperatura media	13
92602	7	Sololá	702	San José Chacayá	5	Chacayá	4	Abril	2023-04-28T00:00:00	2024-11-06T08:00:00	4	Temperatura máxima	13
92603	7	Sololá	702	San José Chacayá	5	Chacayá	4	Abril	2023-04-28T00:00:00	2024-11-06T08:00:00	3	Temperatura mínima	10.9
92604	7	Sololá	702	San José Chacayá	5	Chacayá	4	Abril	2023-04-28T00:00:00	2024-11-06T08:00:00	5	Humedad	81
92605	7	Sololá	702	San José Chacayá	5	Chacayá	4	Abril	2023-04-28T00:00:00	2024-11-06T08:00:00	6	Velocidad del viento	3.2
92606	7	Sololá	702	San José Chacayá	5	Chacayá	4	Abril	2023-04-28T00:00:00	2024-11-06T08:00:00	7	Dirección del viento	3.22
92607	7	Sololá	702	San José Chacayá	5	Chacayá	4	Abril	2023-04-28T00:00:00	2024-11-06T08:00:00	1	Precipitación	0
92608	7	Sololá	702	San José Chacayá	5	Chacayá	4	Abril	2023-04-28T00:00:00	2024-11-06T08:00:00	8	Radiación solar	50
92609	7	Sololá	702	San José Chacayá	5	Chacayá	4	Abril	2023-04-28T00:00:00	2024-11-06T09:00:00	2	Temperatura media	16.9
92610	7	Sololá	702	San José Chacayá	5	Chacayá	4	Abril	2023-04-28T00:00:00	2024-11-06T09:00:00	4	Temperatura máxima	16.9
92611	7	Sololá	702	San José Chacayá	5	Chacayá	4	Abril	2023-04-28T00:00:00	2024-11-06T09:00:00	3	Temperatura mínima	13.1
92612	7	Sololá	702	San José Chacayá	5	Chacayá	4	Abril	2023-04-28T00:00:00	2024-11-06T09:00:00	5	Humedad	81
92613	7	Sololá	702	San José Chacayá	5	Chacayá	4	Abril	2023-04-28T00:00:00	2024-11-06T09:00:00	6	Velocidad del viento	1.6
92614	7	Sololá	702	San José Chacayá	5	Chacayá	4	Abril	2023-04-28T00:00:00	2024-11-06T09:00:00	7	Dirección del viento	1.61
92615	7	Sololá	702	San José Chacayá	5	Chacayá	4	Abril	2023-04-28T00:00:00	2024-11-06T09:00:00	1	Precipitación	0
92616	7	Sololá	702	San José Chacayá	5	Chacayá	4	Abril	2023-04-28T00:00:00	2024-11-06T09:00:00	8	Radiación solar	98
92617	7	Sololá	702	San José Chacayá	5	Chacayá	4	Abril	2023-04-28T00:00:00	2024-11-06T10:00:00	2	Temperatura media	19.3
92618	7	Sololá	702	San José Chacayá	5	Chacayá	4	Abril	2023-04-28T00:00:00	2024-11-06T10:00:00	4	Temperatura máxima	19.4
92619	7	Sololá	702	San José Chacayá	5	Chacayá	4	Abril	2023-04-28T00:00:00	2024-11-06T10:00:00	3	Temperatura mínima	16.8
92620	7	Sololá	702	San José Chacayá	5	Chacayá	4	Abril	2023-04-28T00:00:00	2024-11-06T10:00:00	5	Humedad	79
92621	7	Sololá	702	San José Chacayá	5	Chacayá	4	Abril	2023-04-28T00:00:00	2024-11-06T10:00:00	6	Velocidad del viento	3.2
92622	7	Sololá	702	San José Chacayá	5	Chacayá	4	Abril	2023-04-28T00:00:00	2024-11-06T10:00:00	7	Dirección del viento	3.22
92623	7	Sololá	702	San José Chacayá	5	Chacayá	4	Abril	2023-04-28T00:00:00	2024-11-06T10:00:00	1	Precipitación	0
92624	7	Sololá	702	San José Chacayá	5	Chacayá	4	Abril	2023-04-28T00:00:00	2024-11-06T10:00:00	8	Radiación solar	481
92625	7	Sololá	702	San José Chacayá	5	Chacayá	4	Abril	2023-04-28T00:00:00	2024-11-06T11:00:00	2	Temperatura media	21.3
92626	7	Sololá	702	San José Chacayá	5	Chacayá	4	Abril	2023-04-28T00:00:00	2024-11-06T11:00:00	4	Temperatura máxima	21.5
92627	7	Sololá	702	San José Chacayá	5	Chacayá	4	Abril	2023-04-28T00:00:00	2024-11-06T11:00:00	3	Temperatura mínima	19.3
92628	7	Sololá	702	San José Chacayá	5	Chacayá	4	Abril	2023-04-28T00:00:00	2024-11-06T11:00:00	5	Humedad	71
92629	7	Sololá	702	San José Chacayá	5	Chacayá	4	Abril	2023-04-28T00:00:00	2024-11-06T11:00:00	6	Velocidad del viento	4.8
92630	7	Sololá	702	San José Chacayá	5	Chacayá	4	Abril	2023-04-28T00:00:00	2024-11-06T11:00:00	7	Dirección del viento	4.83
92631	7	Sololá	702	San José Chacayá	5	Chacayá	4	Abril	2023-04-28T00:00:00	2024-11-06T11:00:00	1	Precipitación	0
92632	7	Sololá	702	San José Chacayá	5	Chacayá	4	Abril	2023-04-28T00:00:00	2024-11-06T11:00:00	8	Radiación solar	748
92633	7	Sololá	702	San José Chacayá	5	Chacayá	4	Abril	2023-04-28T00:00:00	2024-11-06T12:00:00	2	Temperatura media	22.9
92634	7	Sololá	702	San José Chacayá	5	Chacayá	4	Abril	2023-04-28T00:00:00	2024-11-06T12:00:00	4	Temperatura máxima	23.1
92635	7	Sololá	702	San José Chacayá	5	Chacayá	4	Abril	2023-04-28T00:00:00	2024-11-06T12:00:00	3	Temperatura mínima	21.3
92636	7	Sololá	702	San José Chacayá	5	Chacayá	4	Abril	2023-04-28T00:00:00	2024-11-06T12:00:00	5	Humedad	66
92637	7	Sololá	702	San José Chacayá	5	Chacayá	4	Abril	2023-04-28T00:00:00	2024-11-06T12:00:00	6	Velocidad del viento	4.8
92638	7	Sololá	702	San José Chacayá	5	Chacayá	4	Abril	2023-04-28T00:00:00	2024-11-06T12:00:00	7	Dirección del viento	4.83
92639	7	Sololá	702	San José Chacayá	5	Chacayá	4	Abril	2023-04-28T00:00:00	2024-11-06T12:00:00	1	Precipitación	0
92640	7	Sololá	702	San José Chacayá	5	Chacayá	4	Abril	2023-04-28T00:00:00	2024-11-06T12:00:00	8	Radiación solar	884
92641	7	Sololá	702	San José Chacayá	5	Chacayá	4	Abril	2023-04-28T00:00:00	2024-11-06T13:00:00	2	Temperatura media	21.5
92642	7	Sololá	702	San José Chacayá	5	Chacayá	4	Abril	2023-04-28T00:00:00	2024-11-06T13:00:00	4	Temperatura máxima	22.8
92643	7	Sololá	702	San José Chacayá	5	Chacayá	4	Abril	2023-04-28T00:00:00	2024-11-06T13:00:00	3	Temperatura mínima	21.5
92644	7	Sololá	702	San José Chacayá	5	Chacayá	4	Abril	2023-04-28T00:00:00	2024-11-06T13:00:00	5	Humedad	72
92645	7	Sololá	702	San José Chacayá	5	Chacayá	4	Abril	2023-04-28T00:00:00	2024-11-06T13:00:00	6	Velocidad del viento	6.4
92646	7	Sololá	702	San José Chacayá	5	Chacayá	4	Abril	2023-04-28T00:00:00	2024-11-06T13:00:00	7	Dirección del viento	6.44
92647	7	Sololá	702	San José Chacayá	5	Chacayá	4	Abril	2023-04-28T00:00:00	2024-11-06T13:00:00	1	Precipitación	0
92648	7	Sololá	702	San José Chacayá	5	Chacayá	4	Abril	2023-04-28T00:00:00	2024-11-06T13:00:00	8	Radiación solar	970
92649	7	Sololá	702	San José Chacayá	5	Chacayá	4	Abril	2023-04-28T00:00:00	2024-11-06T14:00:00	2	Temperatura media	19.7
92650	7	Sololá	702	San José Chacayá	5	Chacayá	4	Abril	2023-04-28T00:00:00	2024-11-06T14:00:00	4	Temperatura máxima	21.5
92651	7	Sololá	702	San José Chacayá	5	Chacayá	4	Abril	2023-04-28T00:00:00	2024-11-06T14:00:00	3	Temperatura mínima	19.7
92652	7	Sololá	702	San José Chacayá	5	Chacayá	4	Abril	2023-04-28T00:00:00	2024-11-06T14:00:00	5	Humedad	80
92653	7	Sololá	702	San José Chacayá	5	Chacayá	4	Abril	2023-04-28T00:00:00	2024-11-06T14:00:00	6	Velocidad del viento	8
92654	7	Sololá	702	San José Chacayá	5	Chacayá	4	Abril	2023-04-28T00:00:00	2024-11-06T14:00:00	7	Dirección del viento	8.05
92655	7	Sololá	702	San José Chacayá	5	Chacayá	4	Abril	2023-04-28T00:00:00	2024-11-06T14:00:00	1	Precipitación	0
92656	7	Sololá	702	San José Chacayá	5	Chacayá	4	Abril	2023-04-28T00:00:00	2024-11-06T14:00:00	8	Radiación solar	586
92657	7	Sololá	702	San José Chacayá	5	Chacayá	4	Abril	2023-04-28T00:00:00	2024-11-06T15:00:00	2	Temperatura media	20
92658	7	Sololá	702	San José Chacayá	5	Chacayá	4	Abril	2023-04-28T00:00:00	2024-11-06T15:00:00	4	Temperatura máxima	20
92659	7	Sololá	702	San José Chacayá	5	Chacayá	4	Abril	2023-04-28T00:00:00	2024-11-06T15:00:00	3	Temperatura mínima	18.6
92660	7	Sololá	702	San José Chacayá	5	Chacayá	4	Abril	2023-04-28T00:00:00	2024-11-06T15:00:00	5	Humedad	79
92661	7	Sololá	702	San José Chacayá	5	Chacayá	4	Abril	2023-04-28T00:00:00	2024-11-06T15:00:00	6	Velocidad del viento	4.8
92662	7	Sololá	702	San José Chacayá	5	Chacayá	4	Abril	2023-04-28T00:00:00	2024-11-06T15:00:00	7	Dirección del viento	4.83
92663	7	Sololá	702	San José Chacayá	5	Chacayá	4	Abril	2023-04-28T00:00:00	2024-11-06T15:00:00	1	Precipitación	0
92664	7	Sololá	702	San José Chacayá	5	Chacayá	4	Abril	2023-04-28T00:00:00	2024-11-06T15:00:00	8	Radiación solar	313
92665	7	Sololá	702	San José Chacayá	5	Chacayá	4	Abril	2023-04-28T00:00:00	2024-11-06T16:00:00	2	Temperatura media	18.4
92666	7	Sololá	702	San José Chacayá	5	Chacayá	4	Abril	2023-04-28T00:00:00	2024-11-06T16:00:00	4	Temperatura máxima	20.1
92667	7	Sololá	702	San José Chacayá	5	Chacayá	4	Abril	2023-04-28T00:00:00	2024-11-06T16:00:00	3	Temperatura mínima	18.4
92668	7	Sololá	702	San José Chacayá	5	Chacayá	4	Abril	2023-04-28T00:00:00	2024-11-06T16:00:00	5	Humedad	81
92669	7	Sololá	702	San José Chacayá	5	Chacayá	4	Abril	2023-04-28T00:00:00	2024-11-06T16:00:00	6	Velocidad del viento	6.4
92670	7	Sololá	702	San José Chacayá	5	Chacayá	4	Abril	2023-04-28T00:00:00	2024-11-06T16:00:00	7	Dirección del viento	6.44
92671	7	Sololá	702	San José Chacayá	5	Chacayá	4	Abril	2023-04-28T00:00:00	2024-11-06T16:00:00	1	Precipitación	0
92672	7	Sololá	702	San José Chacayá	5	Chacayá	4	Abril	2023-04-28T00:00:00	2024-11-06T16:00:00	8	Radiación solar	305
92673	7	Sololá	702	San José Chacayá	5	Chacayá	4	Abril	2023-04-28T00:00:00	2024-11-06T17:00:00	2	Temperatura media	18.5
92674	7	Sololá	702	San José Chacayá	5	Chacayá	4	Abril	2023-04-28T00:00:00	2024-11-06T17:00:00	4	Temperatura máxima	19.1
92675	7	Sololá	702	San José Chacayá	5	Chacayá	4	Abril	2023-04-28T00:00:00	2024-11-06T17:00:00	3	Temperatura mínima	18.3
92676	7	Sololá	702	San José Chacayá	5	Chacayá	4	Abril	2023-04-28T00:00:00	2024-11-06T17:00:00	5	Humedad	83
92677	7	Sololá	702	San José Chacayá	5	Chacayá	4	Abril	2023-04-28T00:00:00	2024-11-06T17:00:00	6	Velocidad del viento	3.2
92678	7	Sololá	702	San José Chacayá	5	Chacayá	4	Abril	2023-04-28T00:00:00	2024-11-06T17:00:00	7	Dirección del viento	3.22
92679	7	Sololá	702	San José Chacayá	5	Chacayá	4	Abril	2023-04-28T00:00:00	2024-11-06T17:00:00	1	Precipitación	0
92680	7	Sololá	702	San José Chacayá	5	Chacayá	4	Abril	2023-04-28T00:00:00	2024-11-06T17:00:00	8	Radiación solar	236
92681	7	Sololá	702	San José Chacayá	5	Chacayá	4	Abril	2023-04-28T00:00:00	2024-11-06T18:00:00	2	Temperatura media	17
92682	7	Sololá	702	San José Chacayá	5	Chacayá	4	Abril	2023-04-28T00:00:00	2024-11-06T18:00:00	4	Temperatura máxima	18.5
92683	7	Sololá	702	San José Chacayá	5	Chacayá	4	Abril	2023-04-28T00:00:00	2024-11-06T18:00:00	3	Temperatura mínima	17
92684	7	Sololá	702	San José Chacayá	5	Chacayá	4	Abril	2023-04-28T00:00:00	2024-11-06T18:00:00	5	Humedad	82
92685	7	Sololá	702	San José Chacayá	5	Chacayá	4	Abril	2023-04-28T00:00:00	2024-11-06T18:00:00	6	Velocidad del viento	3.2
92686	7	Sololá	702	San José Chacayá	5	Chacayá	4	Abril	2023-04-28T00:00:00	2024-11-06T18:00:00	7	Dirección del viento	3.22
92687	7	Sololá	702	San José Chacayá	5	Chacayá	4	Abril	2023-04-28T00:00:00	2024-11-06T18:00:00	1	Precipitación	0
92688	7	Sololá	702	San José Chacayá	5	Chacayá	4	Abril	2023-04-28T00:00:00	2024-11-06T18:00:00	8	Radiación solar	65
92689	7	Sololá	702	San José Chacayá	5	Chacayá	4	Abril	2023-04-28T00:00:00	2024-11-06T19:00:00	2	Temperatura media	16.4
92690	7	Sololá	702	San José Chacayá	5	Chacayá	4	Abril	2023-04-28T00:00:00	2024-11-06T19:00:00	4	Temperatura máxima	17
92691	7	Sololá	702	San José Chacayá	5	Chacayá	4	Abril	2023-04-28T00:00:00	2024-11-06T19:00:00	3	Temperatura mínima	16.4
92692	7	Sololá	702	San José Chacayá	5	Chacayá	4	Abril	2023-04-28T00:00:00	2024-11-06T19:00:00	5	Humedad	80
92693	7	Sololá	702	San José Chacayá	5	Chacayá	4	Abril	2023-04-28T00:00:00	2024-11-06T19:00:00	6	Velocidad del viento	1.6
92694	7	Sololá	702	San José Chacayá	5	Chacayá	4	Abril	2023-04-28T00:00:00	2024-11-06T19:00:00	7	Dirección del viento	1.61
92695	7	Sololá	702	San José Chacayá	5	Chacayá	4	Abril	2023-04-28T00:00:00	2024-11-06T19:00:00	1	Precipitación	0
92696	7	Sololá	702	San José Chacayá	5	Chacayá	4	Abril	2023-04-28T00:00:00	2024-11-06T19:00:00	8	Radiación solar	0
92697	7	Sololá	702	San José Chacayá	5	Chacayá	4	Abril	2023-04-28T00:00:00	2024-11-06T20:00:00	2	Temperatura media	16.4
92698	7	Sololá	702	San José Chacayá	5	Chacayá	4	Abril	2023-04-28T00:00:00	2024-11-06T20:00:00	4	Temperatura máxima	16.5
92699	7	Sololá	702	San José Chacayá	5	Chacayá	4	Abril	2023-04-28T00:00:00	2024-11-06T20:00:00	3	Temperatura mínima	16.4
92700	7	Sololá	702	San José Chacayá	5	Chacayá	4	Abril	2023-04-28T00:00:00	2024-11-06T20:00:00	5	Humedad	82
92701	7	Sololá	702	San José Chacayá	5	Chacayá	4	Abril	2023-04-28T00:00:00	2024-11-06T20:00:00	6	Velocidad del viento	1.6
92702	7	Sololá	702	San José Chacayá	5	Chacayá	4	Abril	2023-04-28T00:00:00	2024-11-06T20:00:00	7	Dirección del viento	1.61
92703	7	Sololá	702	San José Chacayá	5	Chacayá	4	Abril	2023-04-28T00:00:00	2024-11-06T20:00:00	1	Precipitación	0
92704	7	Sololá	702	San José Chacayá	5	Chacayá	4	Abril	2023-04-28T00:00:00	2024-11-06T20:00:00	8	Radiación solar	0
92705	7	Sololá	702	San José Chacayá	5	Chacayá	4	Abril	2023-04-28T00:00:00	2024-11-06T21:00:00	2	Temperatura media	16.1
92706	7	Sololá	702	San José Chacayá	5	Chacayá	4	Abril	2023-04-28T00:00:00	2024-11-06T21:00:00	4	Temperatura máxima	16.4
92707	7	Sololá	702	San José Chacayá	5	Chacayá	4	Abril	2023-04-28T00:00:00	2024-11-06T21:00:00	3	Temperatura mínima	16
92708	7	Sololá	702	San José Chacayá	5	Chacayá	4	Abril	2023-04-28T00:00:00	2024-11-06T21:00:00	5	Humedad	75
92709	7	Sololá	702	San José Chacayá	5	Chacayá	4	Abril	2023-04-28T00:00:00	2024-11-06T21:00:00	6	Velocidad del viento	1.6
92710	7	Sololá	702	San José Chacayá	5	Chacayá	4	Abril	2023-04-28T00:00:00	2024-11-06T21:00:00	7	Dirección del viento	1.61
92711	7	Sololá	702	San José Chacayá	5	Chacayá	4	Abril	2023-04-28T00:00:00	2024-11-06T21:00:00	1	Precipitación	0
92712	7	Sololá	702	San José Chacayá	5	Chacayá	4	Abril	2023-04-28T00:00:00	2024-11-06T21:00:00	8	Radiación solar	0
92713	7	Sololá	702	San José Chacayá	5	Chacayá	4	Abril	2023-04-28T00:00:00	2024-11-06T22:00:00	2	Temperatura media	15.6
92714	7	Sololá	702	San José Chacayá	5	Chacayá	4	Abril	2023-04-28T00:00:00	2024-11-06T22:00:00	4	Temperatura máxima	16.1
92715	7	Sololá	702	San José Chacayá	5	Chacayá	4	Abril	2023-04-28T00:00:00	2024-11-06T22:00:00	3	Temperatura mínima	15.6
92716	7	Sololá	702	San José Chacayá	5	Chacayá	4	Abril	2023-04-28T00:00:00	2024-11-06T22:00:00	5	Humedad	65
92717	7	Sololá	702	San José Chacayá	5	Chacayá	4	Abril	2023-04-28T00:00:00	2024-11-06T22:00:00	6	Velocidad del viento	0
92718	7	Sololá	702	San José Chacayá	5	Chacayá	4	Abril	2023-04-28T00:00:00	2024-11-06T22:00:00	7	Dirección del viento	0
92719	7	Sololá	702	San José Chacayá	5	Chacayá	4	Abril	2023-04-28T00:00:00	2024-11-06T22:00:00	1	Precipitación	1.4
92720	7	Sololá	702	San José Chacayá	5	Chacayá	4	Abril	2023-04-28T00:00:00	2024-11-06T22:00:00	8	Radiación solar	0
92721	7	Sololá	702	San José Chacayá	5	Chacayá	4	Abril	2023-04-28T00:00:00	2024-11-06T23:00:00	2	Temperatura media	15.2
92722	7	Sololá	702	San José Chacayá	5	Chacayá	4	Abril	2023-04-28T00:00:00	2024-11-06T23:00:00	4	Temperatura máxima	15.7
92723	7	Sololá	702	San José Chacayá	5	Chacayá	4	Abril	2023-04-28T00:00:00	2024-11-06T23:00:00	3	Temperatura mínima	15.2
92724	7	Sololá	702	San José Chacayá	5	Chacayá	4	Abril	2023-04-28T00:00:00	2024-11-06T23:00:00	5	Humedad	60
92725	7	Sololá	702	San José Chacayá	5	Chacayá	4	Abril	2023-04-28T00:00:00	2024-11-06T23:00:00	6	Velocidad del viento	1.6
92726	7	Sololá	702	San José Chacayá	5	Chacayá	4	Abril	2023-04-28T00:00:00	2024-11-06T23:00:00	7	Dirección del viento	1.61
92727	7	Sololá	702	San José Chacayá	5	Chacayá	4	Abril	2023-04-28T00:00:00	2024-11-06T23:00:00	1	Precipitación	5.4
92728	7	Sololá	702	San José Chacayá	5	Chacayá	4	Abril	2023-04-28T00:00:00	2024-11-06T23:00:00	8	Radiación solar	0
92729	7	Sololá	702	San José Chacayá	5	Chacayá	4	Abril	2023-04-29T00:00:00	2024-11-06T00:00:00	2	Temperatura media	14.9
92730	7	Sololá	702	San José Chacayá	5	Chacayá	4	Abril	2023-04-29T00:00:00	2024-11-06T00:00:00	4	Temperatura máxima	15.2
92731	7	Sololá	702	San José Chacayá	5	Chacayá	4	Abril	2023-04-29T00:00:00	2024-11-06T00:00:00	3	Temperatura mínima	14.9
92732	7	Sololá	702	San José Chacayá	5	Chacayá	4	Abril	2023-04-29T00:00:00	2024-11-06T00:00:00	5	Humedad	57
92733	7	Sololá	702	San José Chacayá	5	Chacayá	4	Abril	2023-04-29T00:00:00	2024-11-06T00:00:00	6	Velocidad del viento	1.6
92734	7	Sololá	702	San José Chacayá	5	Chacayá	4	Abril	2023-04-29T00:00:00	2024-11-06T00:00:00	7	Dirección del viento	1.61
92735	7	Sololá	702	San José Chacayá	5	Chacayá	4	Abril	2023-04-29T00:00:00	2024-11-06T00:00:00	1	Precipitación	12.8
92736	7	Sololá	702	San José Chacayá	5	Chacayá	4	Abril	2023-04-29T00:00:00	2024-11-06T00:00:00	8	Radiación solar	0
92737	7	Sololá	702	San José Chacayá	5	Chacayá	4	Abril	2023-04-29T00:00:00	2024-11-06T01:00:00	2	Temperatura media	13.7
92738	7	Sololá	702	San José Chacayá	5	Chacayá	4	Abril	2023-04-29T00:00:00	2024-11-06T01:00:00	4	Temperatura máxima	15
92739	7	Sololá	702	San José Chacayá	5	Chacayá	4	Abril	2023-04-29T00:00:00	2024-11-06T01:00:00	3	Temperatura mínima	13.6
92740	7	Sololá	702	San José Chacayá	5	Chacayá	4	Abril	2023-04-29T00:00:00	2024-11-06T01:00:00	5	Humedad	70
92741	7	Sololá	702	San José Chacayá	5	Chacayá	4	Abril	2023-04-29T00:00:00	2024-11-06T01:00:00	6	Velocidad del viento	1.6
92742	7	Sololá	702	San José Chacayá	5	Chacayá	4	Abril	2023-04-29T00:00:00	2024-11-06T01:00:00	7	Dirección del viento	1.61
92743	7	Sololá	702	San José Chacayá	5	Chacayá	4	Abril	2023-04-29T00:00:00	2024-11-06T01:00:00	1	Precipitación	2.4
92744	7	Sololá	702	San José Chacayá	5	Chacayá	4	Abril	2023-04-29T00:00:00	2024-11-06T01:00:00	8	Radiación solar	0
92745	7	Sololá	702	San José Chacayá	5	Chacayá	4	Abril	2023-04-29T00:00:00	2024-11-06T02:00:00	2	Temperatura media	13.8
92746	7	Sololá	702	San José Chacayá	5	Chacayá	4	Abril	2023-04-29T00:00:00	2024-11-06T02:00:00	4	Temperatura máxima	14
92747	7	Sololá	702	San José Chacayá	5	Chacayá	4	Abril	2023-04-29T00:00:00	2024-11-06T02:00:00	3	Temperatura mínima	13.8
92748	7	Sololá	702	San José Chacayá	5	Chacayá	4	Abril	2023-04-29T00:00:00	2024-11-06T02:00:00	5	Humedad	63
92749	7	Sololá	702	San José Chacayá	5	Chacayá	4	Abril	2023-04-29T00:00:00	2024-11-06T02:00:00	6	Velocidad del viento	0
92750	7	Sololá	702	San José Chacayá	5	Chacayá	4	Abril	2023-04-29T00:00:00	2024-11-06T02:00:00	7	Dirección del viento	0
92751	7	Sololá	702	San José Chacayá	5	Chacayá	4	Abril	2023-04-29T00:00:00	2024-11-06T02:00:00	1	Precipitación	0.4
92752	7	Sololá	702	San José Chacayá	5	Chacayá	4	Abril	2023-04-29T00:00:00	2024-11-06T02:00:00	8	Radiación solar	0
92753	7	Sololá	702	San José Chacayá	5	Chacayá	4	Abril	2023-04-29T00:00:00	2024-11-06T03:00:00	2	Temperatura media	13.3
92754	7	Sololá	702	San José Chacayá	5	Chacayá	4	Abril	2023-04-29T00:00:00	2024-11-06T03:00:00	4	Temperatura máxima	13.8
92755	7	Sololá	702	San José Chacayá	5	Chacayá	4	Abril	2023-04-29T00:00:00	2024-11-06T03:00:00	3	Temperatura mínima	13.2
92756	7	Sololá	702	San José Chacayá	5	Chacayá	4	Abril	2023-04-29T00:00:00	2024-11-06T03:00:00	5	Humedad	66
92757	7	Sololá	702	San José Chacayá	5	Chacayá	4	Abril	2023-04-29T00:00:00	2024-11-06T03:00:00	6	Velocidad del viento	0
92758	7	Sololá	702	San José Chacayá	5	Chacayá	4	Abril	2023-04-29T00:00:00	2024-11-06T03:00:00	7	Dirección del viento	0
92759	7	Sololá	702	San José Chacayá	5	Chacayá	4	Abril	2023-04-29T00:00:00	2024-11-06T03:00:00	1	Precipitación	0.2
92760	7	Sololá	702	San José Chacayá	5	Chacayá	4	Abril	2023-04-29T00:00:00	2024-11-06T03:00:00	8	Radiación solar	0
92761	7	Sololá	702	San José Chacayá	5	Chacayá	4	Abril	2023-04-29T00:00:00	2024-11-06T04:00:00	2	Temperatura media	12.4
92762	7	Sololá	702	San José Chacayá	5	Chacayá	4	Abril	2023-04-29T00:00:00	2024-11-06T04:00:00	4	Temperatura máxima	13.3
92763	7	Sololá	702	San José Chacayá	5	Chacayá	4	Abril	2023-04-29T00:00:00	2024-11-06T04:00:00	3	Temperatura mínima	12.4
92764	7	Sololá	702	San José Chacayá	5	Chacayá	4	Abril	2023-04-29T00:00:00	2024-11-06T04:00:00	5	Humedad	73
92765	7	Sololá	702	San José Chacayá	5	Chacayá	4	Abril	2023-04-29T00:00:00	2024-11-06T04:00:00	6	Velocidad del viento	1.6
92766	7	Sololá	702	San José Chacayá	5	Chacayá	4	Abril	2023-04-29T00:00:00	2024-11-06T04:00:00	7	Dirección del viento	1.61
92767	7	Sololá	702	San José Chacayá	5	Chacayá	4	Abril	2023-04-29T00:00:00	2024-11-06T04:00:00	1	Precipitación	0
92768	7	Sololá	702	San José Chacayá	5	Chacayá	4	Abril	2023-04-29T00:00:00	2024-11-06T04:00:00	8	Radiación solar	0
92769	7	Sololá	702	San José Chacayá	5	Chacayá	4	Abril	2023-04-29T00:00:00	2024-11-06T05:00:00	2	Temperatura media	11.8
92770	7	Sololá	702	San José Chacayá	5	Chacayá	4	Abril	2023-04-29T00:00:00	2024-11-06T05:00:00	4	Temperatura máxima	12.5
92771	7	Sololá	702	San José Chacayá	5	Chacayá	4	Abril	2023-04-29T00:00:00	2024-11-06T05:00:00	3	Temperatura mínima	11.8
92772	7	Sololá	702	San José Chacayá	5	Chacayá	4	Abril	2023-04-29T00:00:00	2024-11-06T05:00:00	5	Humedad	69
92773	7	Sololá	702	San José Chacayá	5	Chacayá	4	Abril	2023-04-29T00:00:00	2024-11-06T05:00:00	6	Velocidad del viento	1.6
92774	7	Sololá	702	San José Chacayá	5	Chacayá	4	Abril	2023-04-29T00:00:00	2024-11-06T05:00:00	7	Dirección del viento	1.61
92775	7	Sololá	702	San José Chacayá	5	Chacayá	4	Abril	2023-04-29T00:00:00	2024-11-06T05:00:00	1	Precipitación	0
92776	7	Sololá	702	San José Chacayá	5	Chacayá	4	Abril	2023-04-29T00:00:00	2024-11-06T05:00:00	8	Radiación solar	0
92777	7	Sololá	702	San José Chacayá	5	Chacayá	4	Abril	2023-04-29T00:00:00	2024-11-06T06:00:00	2	Temperatura media	11.4
92778	7	Sololá	702	San José Chacayá	5	Chacayá	4	Abril	2023-04-29T00:00:00	2024-11-06T06:00:00	4	Temperatura máxima	11.9
92779	7	Sololá	702	San José Chacayá	5	Chacayá	4	Abril	2023-04-29T00:00:00	2024-11-06T06:00:00	3	Temperatura mínima	11.3
92780	7	Sololá	702	San José Chacayá	5	Chacayá	4	Abril	2023-04-29T00:00:00	2024-11-06T06:00:00	5	Humedad	70
92781	7	Sololá	702	San José Chacayá	5	Chacayá	4	Abril	2023-04-29T00:00:00	2024-11-06T06:00:00	6	Velocidad del viento	1.6
92782	7	Sololá	702	San José Chacayá	5	Chacayá	4	Abril	2023-04-29T00:00:00	2024-11-06T06:00:00	7	Dirección del viento	1.61
92783	7	Sololá	702	San José Chacayá	5	Chacayá	4	Abril	2023-04-29T00:00:00	2024-11-06T06:00:00	1	Precipitación	0
92784	7	Sololá	702	San José Chacayá	5	Chacayá	4	Abril	2023-04-29T00:00:00	2024-11-06T06:00:00	8	Radiación solar	0
92785	7	Sololá	702	San José Chacayá	5	Chacayá	4	Abril	2023-04-29T00:00:00	2024-11-06T07:00:00	2	Temperatura media	11.4
92786	7	Sololá	702	San José Chacayá	5	Chacayá	4	Abril	2023-04-29T00:00:00	2024-11-06T07:00:00	4	Temperatura máxima	11.5
92787	7	Sololá	702	San José Chacayá	5	Chacayá	4	Abril	2023-04-29T00:00:00	2024-11-06T07:00:00	3	Temperatura mínima	11.3
92788	7	Sololá	702	San José Chacayá	5	Chacayá	4	Abril	2023-04-29T00:00:00	2024-11-06T07:00:00	5	Humedad	62
92789	7	Sololá	702	San José Chacayá	5	Chacayá	4	Abril	2023-04-29T00:00:00	2024-11-06T07:00:00	6	Velocidad del viento	1.6
92790	7	Sololá	702	San José Chacayá	5	Chacayá	4	Abril	2023-04-29T00:00:00	2024-11-06T07:00:00	7	Dirección del viento	1.61
92791	7	Sololá	702	San José Chacayá	5	Chacayá	4	Abril	2023-04-29T00:00:00	2024-11-06T07:00:00	1	Precipitación	0
92792	7	Sololá	702	San José Chacayá	5	Chacayá	4	Abril	2023-04-29T00:00:00	2024-11-06T07:00:00	8	Radiación solar	3
92793	7	Sololá	702	San José Chacayá	5	Chacayá	4	Abril	2023-04-29T00:00:00	2024-11-06T08:00:00	2	Temperatura media	12.2
92794	7	Sololá	702	San José Chacayá	5	Chacayá	4	Abril	2023-04-29T00:00:00	2024-11-06T08:00:00	4	Temperatura máxima	12.2
92795	7	Sololá	702	San José Chacayá	5	Chacayá	4	Abril	2023-04-29T00:00:00	2024-11-06T08:00:00	3	Temperatura mínima	11.4
92796	7	Sololá	702	San José Chacayá	5	Chacayá	4	Abril	2023-04-29T00:00:00	2024-11-06T08:00:00	5	Humedad	58
92797	7	Sololá	702	San José Chacayá	5	Chacayá	4	Abril	2023-04-29T00:00:00	2024-11-06T08:00:00	6	Velocidad del viento	1.6
92798	7	Sololá	702	San José Chacayá	5	Chacayá	4	Abril	2023-04-29T00:00:00	2024-11-06T08:00:00	7	Dirección del viento	1.61
92799	7	Sololá	702	San José Chacayá	5	Chacayá	4	Abril	2023-04-29T00:00:00	2024-11-06T08:00:00	1	Precipitación	0
92800	7	Sololá	702	San José Chacayá	5	Chacayá	4	Abril	2023-04-29T00:00:00	2024-11-06T08:00:00	8	Radiación solar	58
92801	7	Sololá	702	San José Chacayá	5	Chacayá	4	Abril	2023-04-29T00:00:00	2024-11-06T09:00:00	2	Temperatura media	15.2
92802	7	Sololá	702	San José Chacayá	5	Chacayá	4	Abril	2023-04-29T00:00:00	2024-11-06T09:00:00	4	Temperatura máxima	15.2
92803	7	Sololá	702	San José Chacayá	5	Chacayá	4	Abril	2023-04-29T00:00:00	2024-11-06T09:00:00	3	Temperatura mínima	12.2
92804	7	Sololá	702	San José Chacayá	5	Chacayá	4	Abril	2023-04-29T00:00:00	2024-11-06T09:00:00	5	Humedad	74
92805	7	Sololá	702	San José Chacayá	5	Chacayá	4	Abril	2023-04-29T00:00:00	2024-11-06T09:00:00	6	Velocidad del viento	1.6
92806	7	Sololá	702	San José Chacayá	5	Chacayá	4	Abril	2023-04-29T00:00:00	2024-11-06T09:00:00	7	Dirección del viento	1.61
92807	7	Sololá	702	San José Chacayá	5	Chacayá	4	Abril	2023-04-29T00:00:00	2024-11-06T09:00:00	1	Precipitación	0
92808	7	Sololá	702	San José Chacayá	5	Chacayá	4	Abril	2023-04-29T00:00:00	2024-11-06T09:00:00	8	Radiación solar	102
92809	7	Sololá	702	San José Chacayá	5	Chacayá	4	Abril	2023-04-29T00:00:00	2024-11-06T10:00:00	2	Temperatura media	19
92810	7	Sololá	702	San José Chacayá	5	Chacayá	4	Abril	2023-04-29T00:00:00	2024-11-06T10:00:00	4	Temperatura máxima	19
92811	7	Sololá	702	San José Chacayá	5	Chacayá	4	Abril	2023-04-29T00:00:00	2024-11-06T10:00:00	3	Temperatura mínima	15.2
92812	7	Sololá	702	San José Chacayá	5	Chacayá	4	Abril	2023-04-29T00:00:00	2024-11-06T10:00:00	5	Humedad	79
92813	7	Sololá	702	San José Chacayá	5	Chacayá	4	Abril	2023-04-29T00:00:00	2024-11-06T10:00:00	6	Velocidad del viento	1.6
92814	7	Sololá	702	San José Chacayá	5	Chacayá	4	Abril	2023-04-29T00:00:00	2024-11-06T10:00:00	7	Dirección del viento	1.61
92815	7	Sololá	702	San José Chacayá	5	Chacayá	4	Abril	2023-04-29T00:00:00	2024-11-06T10:00:00	1	Precipitación	0
92816	7	Sololá	702	San José Chacayá	5	Chacayá	4	Abril	2023-04-29T00:00:00	2024-11-06T10:00:00	8	Radiación solar	479
92817	7	Sololá	702	San José Chacayá	5	Chacayá	4	Abril	2023-04-29T00:00:00	2024-11-06T11:00:00	2	Temperatura media	19.4
92818	7	Sololá	702	San José Chacayá	5	Chacayá	4	Abril	2023-04-29T00:00:00	2024-11-06T11:00:00	4	Temperatura máxima	19.5
92819	7	Sololá	702	San José Chacayá	5	Chacayá	4	Abril	2023-04-29T00:00:00	2024-11-06T11:00:00	3	Temperatura mínima	18.8
92820	7	Sololá	702	San José Chacayá	5	Chacayá	4	Abril	2023-04-29T00:00:00	2024-11-06T11:00:00	5	Humedad	77
92821	7	Sololá	702	San José Chacayá	5	Chacayá	4	Abril	2023-04-29T00:00:00	2024-11-06T11:00:00	6	Velocidad del viento	4.8
92822	7	Sololá	702	San José Chacayá	5	Chacayá	4	Abril	2023-04-29T00:00:00	2024-11-06T11:00:00	7	Dirección del viento	4.83
92823	7	Sololá	702	San José Chacayá	5	Chacayá	4	Abril	2023-04-29T00:00:00	2024-11-06T11:00:00	1	Precipitación	0
92824	7	Sololá	702	San José Chacayá	5	Chacayá	4	Abril	2023-04-29T00:00:00	2024-11-06T11:00:00	8	Radiación solar	665
92825	7	Sololá	702	San José Chacayá	5	Chacayá	4	Abril	2023-04-29T00:00:00	2024-11-06T12:00:00	2	Temperatura media	20.2
92826	7	Sololá	702	San José Chacayá	5	Chacayá	4	Abril	2023-04-29T00:00:00	2024-11-06T12:00:00	4	Temperatura máxima	20.4
92827	7	Sololá	702	San José Chacayá	5	Chacayá	4	Abril	2023-04-29T00:00:00	2024-11-06T12:00:00	3	Temperatura mínima	19.4
92828	7	Sololá	702	San José Chacayá	5	Chacayá	4	Abril	2023-04-29T00:00:00	2024-11-06T12:00:00	5	Humedad	76
92829	7	Sololá	702	San José Chacayá	5	Chacayá	4	Abril	2023-04-29T00:00:00	2024-11-06T12:00:00	6	Velocidad del viento	4.8
92830	7	Sololá	702	San José Chacayá	5	Chacayá	4	Abril	2023-04-29T00:00:00	2024-11-06T12:00:00	7	Dirección del viento	4.83
92831	7	Sololá	702	San José Chacayá	5	Chacayá	4	Abril	2023-04-29T00:00:00	2024-11-06T12:00:00	1	Precipitación	0
92832	7	Sololá	702	San José Chacayá	5	Chacayá	4	Abril	2023-04-29T00:00:00	2024-11-06T12:00:00	8	Radiación solar	886
92833	7	Sololá	702	San José Chacayá	5	Chacayá	4	Abril	2023-04-29T00:00:00	2024-11-06T13:00:00	2	Temperatura media	20.3
92834	7	Sololá	702	San José Chacayá	5	Chacayá	4	Abril	2023-04-29T00:00:00	2024-11-06T13:00:00	4	Temperatura máxima	20.6
92835	7	Sololá	702	San José Chacayá	5	Chacayá	4	Abril	2023-04-29T00:00:00	2024-11-06T13:00:00	3	Temperatura mínima	19.9
92836	7	Sololá	702	San José Chacayá	5	Chacayá	4	Abril	2023-04-29T00:00:00	2024-11-06T13:00:00	5	Humedad	77
92837	7	Sololá	702	San José Chacayá	5	Chacayá	4	Abril	2023-04-29T00:00:00	2024-11-06T13:00:00	6	Velocidad del viento	4.8
92838	7	Sololá	702	San José Chacayá	5	Chacayá	4	Abril	2023-04-29T00:00:00	2024-11-06T13:00:00	7	Dirección del viento	4.83
92839	7	Sololá	702	San José Chacayá	5	Chacayá	4	Abril	2023-04-29T00:00:00	2024-11-06T13:00:00	1	Precipitación	0
92840	7	Sololá	702	San José Chacayá	5	Chacayá	4	Abril	2023-04-29T00:00:00	2024-11-06T13:00:00	8	Radiación solar	608
92841	7	Sololá	702	San José Chacayá	5	Chacayá	4	Abril	2023-04-29T00:00:00	2024-11-06T14:00:00	2	Temperatura media	20.3
92842	7	Sololá	702	San José Chacayá	5	Chacayá	4	Abril	2023-04-29T00:00:00	2024-11-06T14:00:00	4	Temperatura máxima	20.7
92843	7	Sololá	702	San José Chacayá	5	Chacayá	4	Abril	2023-04-29T00:00:00	2024-11-06T14:00:00	3	Temperatura mínima	19.7
92844	7	Sololá	702	San José Chacayá	5	Chacayá	4	Abril	2023-04-29T00:00:00	2024-11-06T14:00:00	5	Humedad	78
92845	7	Sololá	702	San José Chacayá	5	Chacayá	4	Abril	2023-04-29T00:00:00	2024-11-06T14:00:00	6	Velocidad del viento	3.2
92846	7	Sololá	702	San José Chacayá	5	Chacayá	4	Abril	2023-04-29T00:00:00	2024-11-06T14:00:00	7	Dirección del viento	3.22
92847	7	Sololá	702	San José Chacayá	5	Chacayá	4	Abril	2023-04-29T00:00:00	2024-11-06T14:00:00	1	Precipitación	0
92848	7	Sololá	702	San José Chacayá	5	Chacayá	4	Abril	2023-04-29T00:00:00	2024-11-06T14:00:00	8	Radiación solar	489
92849	7	Sololá	702	San José Chacayá	5	Chacayá	4	Abril	2023-04-29T00:00:00	2024-11-06T15:00:00	2	Temperatura media	19.2
92850	7	Sololá	702	San José Chacayá	5	Chacayá	4	Abril	2023-04-29T00:00:00	2024-11-06T15:00:00	4	Temperatura máxima	20.6
92851	7	Sololá	702	San José Chacayá	5	Chacayá	4	Abril	2023-04-29T00:00:00	2024-11-06T15:00:00	3	Temperatura mínima	19.2
92852	7	Sololá	702	San José Chacayá	5	Chacayá	4	Abril	2023-04-29T00:00:00	2024-11-06T15:00:00	5	Humedad	80
92853	7	Sololá	702	San José Chacayá	5	Chacayá	4	Abril	2023-04-29T00:00:00	2024-11-06T15:00:00	6	Velocidad del viento	4.8
92854	7	Sololá	702	San José Chacayá	5	Chacayá	4	Abril	2023-04-29T00:00:00	2024-11-06T15:00:00	7	Dirección del viento	4.83
92855	7	Sololá	702	San José Chacayá	5	Chacayá	4	Abril	2023-04-29T00:00:00	2024-11-06T15:00:00	1	Precipitación	0
92856	7	Sololá	702	San José Chacayá	5	Chacayá	4	Abril	2023-04-29T00:00:00	2024-11-06T15:00:00	8	Radiación solar	440
92857	7	Sololá	702	San José Chacayá	5	Chacayá	4	Abril	2023-04-29T00:00:00	2024-11-06T16:00:00	2	Temperatura media	17.2
92858	7	Sololá	702	San José Chacayá	5	Chacayá	4	Abril	2023-04-29T00:00:00	2024-11-06T16:00:00	4	Temperatura máxima	19.2
92859	7	Sololá	702	San José Chacayá	5	Chacayá	4	Abril	2023-04-29T00:00:00	2024-11-06T16:00:00	3	Temperatura mínima	17.2
92860	7	Sololá	702	San José Chacayá	5	Chacayá	4	Abril	2023-04-29T00:00:00	2024-11-06T16:00:00	5	Humedad	83
92861	7	Sololá	702	San José Chacayá	5	Chacayá	4	Abril	2023-04-29T00:00:00	2024-11-06T16:00:00	6	Velocidad del viento	4.8
92862	7	Sololá	702	San José Chacayá	5	Chacayá	4	Abril	2023-04-29T00:00:00	2024-11-06T16:00:00	7	Dirección del viento	4.83
92863	7	Sololá	702	San José Chacayá	5	Chacayá	4	Abril	2023-04-29T00:00:00	2024-11-06T16:00:00	1	Precipitación	0
92864	7	Sololá	702	San José Chacayá	5	Chacayá	4	Abril	2023-04-29T00:00:00	2024-11-06T16:00:00	8	Radiación solar	182
92865	7	Sololá	702	San José Chacayá	5	Chacayá	4	Abril	2023-04-29T00:00:00	2024-11-06T17:00:00	2	Temperatura media	17.1
92866	7	Sololá	702	San José Chacayá	5	Chacayá	4	Abril	2023-04-29T00:00:00	2024-11-06T17:00:00	4	Temperatura máxima	17.2
92867	7	Sololá	702	San José Chacayá	5	Chacayá	4	Abril	2023-04-29T00:00:00	2024-11-06T17:00:00	3	Temperatura mínima	16.7
92868	7	Sololá	702	San José Chacayá	5	Chacayá	4	Abril	2023-04-29T00:00:00	2024-11-06T17:00:00	5	Humedad	83
92869	7	Sololá	702	San José Chacayá	5	Chacayá	4	Abril	2023-04-29T00:00:00	2024-11-06T17:00:00	6	Velocidad del viento	3.2
92870	7	Sololá	702	San José Chacayá	5	Chacayá	4	Abril	2023-04-29T00:00:00	2024-11-06T17:00:00	7	Dirección del viento	3.22
92871	7	Sololá	702	San José Chacayá	5	Chacayá	4	Abril	2023-04-29T00:00:00	2024-11-06T17:00:00	1	Precipitación	0
92872	7	Sololá	702	San José Chacayá	5	Chacayá	4	Abril	2023-04-29T00:00:00	2024-11-06T17:00:00	8	Radiación solar	96
92873	7	Sololá	702	San José Chacayá	5	Chacayá	4	Abril	2023-04-29T00:00:00	2024-11-06T18:00:00	2	Temperatura media	16.7
92874	7	Sololá	702	San José Chacayá	5	Chacayá	4	Abril	2023-04-29T00:00:00	2024-11-06T18:00:00	4	Temperatura máxima	17.2
92875	7	Sololá	702	San José Chacayá	5	Chacayá	4	Abril	2023-04-29T00:00:00	2024-11-06T18:00:00	3	Temperatura mínima	16.6
92876	7	Sololá	702	San José Chacayá	5	Chacayá	4	Abril	2023-04-29T00:00:00	2024-11-06T18:00:00	5	Humedad	79
92877	7	Sololá	702	San José Chacayá	5	Chacayá	4	Abril	2023-04-29T00:00:00	2024-11-06T18:00:00	6	Velocidad del viento	1.6
92878	7	Sololá	702	San José Chacayá	5	Chacayá	4	Abril	2023-04-29T00:00:00	2024-11-06T18:00:00	7	Dirección del viento	1.61
92879	7	Sololá	702	San José Chacayá	5	Chacayá	4	Abril	2023-04-29T00:00:00	2024-11-06T18:00:00	1	Precipitación	0
92880	7	Sololá	702	San José Chacayá	5	Chacayá	4	Abril	2023-04-29T00:00:00	2024-11-06T18:00:00	8	Radiación solar	50
92881	7	Sololá	702	San José Chacayá	5	Chacayá	4	Abril	2023-04-29T00:00:00	2024-11-06T19:00:00	2	Temperatura media	16.1
92882	7	Sololá	702	San José Chacayá	5	Chacayá	4	Abril	2023-04-29T00:00:00	2024-11-06T19:00:00	4	Temperatura máxima	16.7
92883	7	Sololá	702	San José Chacayá	5	Chacayá	4	Abril	2023-04-29T00:00:00	2024-11-06T19:00:00	3	Temperatura mínima	16
92884	7	Sololá	702	San José Chacayá	5	Chacayá	4	Abril	2023-04-29T00:00:00	2024-11-06T19:00:00	5	Humedad	78
92885	7	Sololá	702	San José Chacayá	5	Chacayá	4	Abril	2023-04-29T00:00:00	2024-11-06T19:00:00	6	Velocidad del viento	0
92886	7	Sololá	702	San José Chacayá	5	Chacayá	4	Abril	2023-04-29T00:00:00	2024-11-06T19:00:00	7	Dirección del viento	0
92887	7	Sololá	702	San José Chacayá	5	Chacayá	4	Abril	2023-04-29T00:00:00	2024-11-06T19:00:00	1	Precipitación	0
92888	7	Sololá	702	San José Chacayá	5	Chacayá	4	Abril	2023-04-29T00:00:00	2024-11-06T19:00:00	8	Radiación solar	0
92889	7	Sololá	702	San José Chacayá	5	Chacayá	4	Abril	2023-04-29T00:00:00	2024-11-06T20:00:00	2	Temperatura media	15.7
92890	7	Sololá	702	San José Chacayá	5	Chacayá	4	Abril	2023-04-29T00:00:00	2024-11-06T20:00:00	4	Temperatura máxima	16
92891	7	Sololá	702	San José Chacayá	5	Chacayá	4	Abril	2023-04-29T00:00:00	2024-11-06T20:00:00	3	Temperatura mínima	15.6
92892	7	Sololá	702	San José Chacayá	5	Chacayá	4	Abril	2023-04-29T00:00:00	2024-11-06T20:00:00	5	Humedad	70
92893	7	Sololá	702	San José Chacayá	5	Chacayá	4	Abril	2023-04-29T00:00:00	2024-11-06T20:00:00	6	Velocidad del viento	0
92894	7	Sololá	702	San José Chacayá	5	Chacayá	4	Abril	2023-04-29T00:00:00	2024-11-06T20:00:00	7	Dirección del viento	0
92895	7	Sololá	702	San José Chacayá	5	Chacayá	4	Abril	2023-04-29T00:00:00	2024-11-06T20:00:00	1	Precipitación	0
92896	7	Sololá	702	San José Chacayá	5	Chacayá	4	Abril	2023-04-29T00:00:00	2024-11-06T20:00:00	8	Radiación solar	0
92897	7	Sololá	702	San José Chacayá	5	Chacayá	4	Abril	2023-04-29T00:00:00	2024-11-06T21:00:00	2	Temperatura media	14.7
92898	7	Sololá	702	San José Chacayá	5	Chacayá	4	Abril	2023-04-29T00:00:00	2024-11-06T21:00:00	4	Temperatura máxima	15.7
92899	7	Sololá	702	San José Chacayá	5	Chacayá	4	Abril	2023-04-29T00:00:00	2024-11-06T21:00:00	3	Temperatura mínima	14.7
92900	7	Sololá	702	San José Chacayá	5	Chacayá	4	Abril	2023-04-29T00:00:00	2024-11-06T21:00:00	5	Humedad	80
92901	7	Sololá	702	San José Chacayá	5	Chacayá	4	Abril	2023-04-29T00:00:00	2024-11-06T21:00:00	6	Velocidad del viento	0
92902	7	Sololá	702	San José Chacayá	5	Chacayá	4	Abril	2023-04-29T00:00:00	2024-11-06T21:00:00	7	Dirección del viento	0
92903	7	Sololá	702	San José Chacayá	5	Chacayá	4	Abril	2023-04-29T00:00:00	2024-11-06T21:00:00	1	Precipitación	0
92904	7	Sololá	702	San José Chacayá	5	Chacayá	4	Abril	2023-04-29T00:00:00	2024-11-06T21:00:00	8	Radiación solar	0
92905	7	Sololá	702	San José Chacayá	5	Chacayá	4	Abril	2023-04-29T00:00:00	2024-11-06T22:00:00	2	Temperatura media	13.8
92906	7	Sololá	702	San José Chacayá	5	Chacayá	4	Abril	2023-04-29T00:00:00	2024-11-06T22:00:00	4	Temperatura máxima	14.7
92907	7	Sololá	702	San José Chacayá	5	Chacayá	4	Abril	2023-04-29T00:00:00	2024-11-06T22:00:00	3	Temperatura mínima	13.8
92908	7	Sololá	702	San José Chacayá	5	Chacayá	4	Abril	2023-04-29T00:00:00	2024-11-06T22:00:00	5	Humedad	78
92909	7	Sololá	702	San José Chacayá	5	Chacayá	4	Abril	2023-04-29T00:00:00	2024-11-06T22:00:00	6	Velocidad del viento	1.6
92910	7	Sololá	702	San José Chacayá	5	Chacayá	4	Abril	2023-04-29T00:00:00	2024-11-06T22:00:00	7	Dirección del viento	1.61
92911	7	Sololá	702	San José Chacayá	5	Chacayá	4	Abril	2023-04-29T00:00:00	2024-11-06T22:00:00	1	Precipitación	0
92912	7	Sololá	702	San José Chacayá	5	Chacayá	4	Abril	2023-04-29T00:00:00	2024-11-06T22:00:00	8	Radiación solar	0
92913	7	Sololá	702	San José Chacayá	5	Chacayá	4	Abril	2023-04-29T00:00:00	2024-11-06T23:00:00	2	Temperatura media	12.9
92914	7	Sololá	702	San José Chacayá	5	Chacayá	4	Abril	2023-04-29T00:00:00	2024-11-06T23:00:00	4	Temperatura máxima	13.8
92915	7	Sololá	702	San José Chacayá	5	Chacayá	4	Abril	2023-04-29T00:00:00	2024-11-06T23:00:00	3	Temperatura mínima	12.9
92916	7	Sololá	702	San José Chacayá	5	Chacayá	4	Abril	2023-04-29T00:00:00	2024-11-06T23:00:00	5	Humedad	84
92917	7	Sololá	702	San José Chacayá	5	Chacayá	4	Abril	2023-04-29T00:00:00	2024-11-06T23:00:00	6	Velocidad del viento	4.8
92918	7	Sololá	702	San José Chacayá	5	Chacayá	4	Abril	2023-04-29T00:00:00	2024-11-06T23:00:00	7	Dirección del viento	4.83
92919	7	Sololá	702	San José Chacayá	5	Chacayá	4	Abril	2023-04-29T00:00:00	2024-11-06T23:00:00	1	Precipitación	0
92920	7	Sololá	702	San José Chacayá	5	Chacayá	4	Abril	2023-04-29T00:00:00	2024-11-06T23:00:00	8	Radiación solar	0
92921	7	Sololá	702	San José Chacayá	5	Chacayá	4	Abril	2023-04-30T00:00:00	2024-11-06T00:00:00	2	Temperatura media	12.2
92922	7	Sololá	702	San José Chacayá	5	Chacayá	4	Abril	2023-04-30T00:00:00	2024-11-06T00:00:00	4	Temperatura máxima	12.9
92923	7	Sololá	702	San José Chacayá	5	Chacayá	4	Abril	2023-04-30T00:00:00	2024-11-06T00:00:00	3	Temperatura mínima	12.2
92924	7	Sololá	702	San José Chacayá	5	Chacayá	4	Abril	2023-04-30T00:00:00	2024-11-06T00:00:00	5	Humedad	82
92925	7	Sololá	702	San José Chacayá	5	Chacayá	4	Abril	2023-04-30T00:00:00	2024-11-06T00:00:00	6	Velocidad del viento	1.6
92926	7	Sololá	702	San José Chacayá	5	Chacayá	4	Abril	2023-04-30T00:00:00	2024-11-06T00:00:00	7	Dirección del viento	1.61
92927	7	Sololá	702	San José Chacayá	5	Chacayá	4	Abril	2023-04-30T00:00:00	2024-11-06T00:00:00	1	Precipitación	0
92928	7	Sololá	702	San José Chacayá	5	Chacayá	4	Abril	2023-04-30T00:00:00	2024-11-06T00:00:00	8	Radiación solar	0
92929	7	Sololá	702	San José Chacayá	5	Chacayá	4	Abril	2023-04-30T00:00:00	2024-11-06T01:00:00	2	Temperatura media	11.9
92930	7	Sololá	702	San José Chacayá	5	Chacayá	4	Abril	2023-04-30T00:00:00	2024-11-06T01:00:00	4	Temperatura máxima	12.2
92931	7	Sololá	702	San José Chacayá	5	Chacayá	4	Abril	2023-04-30T00:00:00	2024-11-06T01:00:00	3	Temperatura mínima	11.9
92932	7	Sololá	702	San José Chacayá	5	Chacayá	4	Abril	2023-04-30T00:00:00	2024-11-06T01:00:00	5	Humedad	81
92933	7	Sololá	702	San José Chacayá	5	Chacayá	4	Abril	2023-04-30T00:00:00	2024-11-06T01:00:00	6	Velocidad del viento	1.6
92934	7	Sololá	702	San José Chacayá	5	Chacayá	4	Abril	2023-04-30T00:00:00	2024-11-06T01:00:00	7	Dirección del viento	1.61
92935	7	Sololá	702	San José Chacayá	5	Chacayá	4	Abril	2023-04-30T00:00:00	2024-11-06T01:00:00	1	Precipitación	0
92936	7	Sololá	702	San José Chacayá	5	Chacayá	4	Abril	2023-04-30T00:00:00	2024-11-06T01:00:00	8	Radiación solar	0
92937	7	Sololá	702	San José Chacayá	5	Chacayá	4	Abril	2023-04-30T00:00:00	2024-11-06T02:00:00	2	Temperatura media	12.2
92938	7	Sololá	702	San José Chacayá	5	Chacayá	4	Abril	2023-04-30T00:00:00	2024-11-06T02:00:00	4	Temperatura máxima	12.2
92939	7	Sololá	702	San José Chacayá	5	Chacayá	4	Abril	2023-04-30T00:00:00	2024-11-06T02:00:00	3	Temperatura mínima	11.7
92940	7	Sololá	702	San José Chacayá	5	Chacayá	4	Abril	2023-04-30T00:00:00	2024-11-06T02:00:00	5	Humedad	72
92941	7	Sololá	702	San José Chacayá	5	Chacayá	4	Abril	2023-04-30T00:00:00	2024-11-06T02:00:00	6	Velocidad del viento	1.6
92942	7	Sololá	702	San José Chacayá	5	Chacayá	4	Abril	2023-04-30T00:00:00	2024-11-06T02:00:00	7	Dirección del viento	1.61
92943	7	Sololá	702	San José Chacayá	5	Chacayá	4	Abril	2023-04-30T00:00:00	2024-11-06T02:00:00	1	Precipitación	0
92944	7	Sololá	702	San José Chacayá	5	Chacayá	4	Abril	2023-04-30T00:00:00	2024-11-06T02:00:00	8	Radiación solar	0
92945	7	Sololá	702	San José Chacayá	5	Chacayá	4	Abril	2023-04-30T00:00:00	2024-11-06T03:00:00	2	Temperatura media	11.4
92946	7	Sololá	702	San José Chacayá	5	Chacayá	4	Abril	2023-04-30T00:00:00	2024-11-06T03:00:00	4	Temperatura máxima	12.2
92947	7	Sololá	702	San José Chacayá	5	Chacayá	4	Abril	2023-04-30T00:00:00	2024-11-06T03:00:00	3	Temperatura mínima	11.4
92948	7	Sololá	702	San José Chacayá	5	Chacayá	4	Abril	2023-04-30T00:00:00	2024-11-06T03:00:00	5	Humedad	75
92949	7	Sololá	702	San José Chacayá	5	Chacayá	4	Abril	2023-04-30T00:00:00	2024-11-06T03:00:00	6	Velocidad del viento	0
92950	7	Sololá	702	San José Chacayá	5	Chacayá	4	Abril	2023-04-30T00:00:00	2024-11-06T03:00:00	7	Dirección del viento	0
92951	7	Sololá	702	San José Chacayá	5	Chacayá	4	Abril	2023-04-30T00:00:00	2024-11-06T03:00:00	1	Precipitación	0
92952	7	Sololá	702	San José Chacayá	5	Chacayá	4	Abril	2023-04-30T00:00:00	2024-11-06T03:00:00	8	Radiación solar	0
92953	7	Sololá	702	San José Chacayá	5	Chacayá	4	Abril	2023-04-30T00:00:00	2024-11-06T04:00:00	2	Temperatura media	11.3
92954	7	Sololá	702	San José Chacayá	5	Chacayá	4	Abril	2023-04-30T00:00:00	2024-11-06T04:00:00	4	Temperatura máxima	11.4
92955	7	Sololá	702	San José Chacayá	5	Chacayá	4	Abril	2023-04-30T00:00:00	2024-11-06T04:00:00	3	Temperatura mínima	11.3
92956	7	Sololá	702	San José Chacayá	5	Chacayá	4	Abril	2023-04-30T00:00:00	2024-11-06T04:00:00	5	Humedad	74
92957	7	Sololá	702	San José Chacayá	5	Chacayá	4	Abril	2023-04-30T00:00:00	2024-11-06T04:00:00	6	Velocidad del viento	1.6
92958	7	Sololá	702	San José Chacayá	5	Chacayá	4	Abril	2023-04-30T00:00:00	2024-11-06T04:00:00	7	Dirección del viento	1.61
92959	7	Sololá	702	San José Chacayá	5	Chacayá	4	Abril	2023-04-30T00:00:00	2024-11-06T04:00:00	1	Precipitación	0
92960	7	Sololá	702	San José Chacayá	5	Chacayá	4	Abril	2023-04-30T00:00:00	2024-11-06T04:00:00	8	Radiación solar	0
92961	7	Sololá	702	San José Chacayá	5	Chacayá	4	Abril	2023-04-30T00:00:00	2024-11-06T05:00:00	2	Temperatura media	11.1
92962	7	Sololá	702	San José Chacayá	5	Chacayá	4	Abril	2023-04-30T00:00:00	2024-11-06T05:00:00	4	Temperatura máxima	11.4
92963	7	Sololá	702	San José Chacayá	5	Chacayá	4	Abril	2023-04-30T00:00:00	2024-11-06T05:00:00	3	Temperatura mínima	11.1
92964	7	Sololá	702	San José Chacayá	5	Chacayá	4	Abril	2023-04-30T00:00:00	2024-11-06T05:00:00	5	Humedad	78
92965	7	Sololá	702	San José Chacayá	5	Chacayá	4	Abril	2023-04-30T00:00:00	2024-11-06T05:00:00	6	Velocidad del viento	1.6
92966	7	Sololá	702	San José Chacayá	5	Chacayá	4	Abril	2023-04-30T00:00:00	2024-11-06T05:00:00	7	Dirección del viento	1.61
92967	7	Sololá	702	San José Chacayá	5	Chacayá	4	Abril	2023-04-30T00:00:00	2024-11-06T05:00:00	1	Precipitación	0
92968	7	Sololá	702	San José Chacayá	5	Chacayá	4	Abril	2023-04-30T00:00:00	2024-11-06T05:00:00	8	Radiación solar	0
92969	7	Sololá	702	San José Chacayá	5	Chacayá	4	Abril	2023-04-30T00:00:00	2024-11-06T06:00:00	2	Temperatura media	13.9
92970	7	Sololá	702	San José Chacayá	5	Chacayá	4	Abril	2023-04-30T00:00:00	2024-11-06T06:00:00	4	Temperatura máxima	14.2
92971	7	Sololá	702	San José Chacayá	5	Chacayá	4	Abril	2023-04-30T00:00:00	2024-11-06T06:00:00	3	Temperatura mínima	11.1
92972	7	Sololá	702	San José Chacayá	5	Chacayá	4	Abril	2023-04-30T00:00:00	2024-11-06T06:00:00	5	Humedad	84
92973	7	Sololá	702	San José Chacayá	5	Chacayá	4	Abril	2023-04-30T00:00:00	2024-11-06T06:00:00	6	Velocidad del viento	4.8
92974	7	Sololá	702	San José Chacayá	5	Chacayá	4	Abril	2023-04-30T00:00:00	2024-11-06T06:00:00	7	Dirección del viento	4.83
92975	7	Sololá	702	San José Chacayá	5	Chacayá	4	Abril	2023-04-30T00:00:00	2024-11-06T06:00:00	1	Precipitación	0
92976	7	Sololá	702	San José Chacayá	5	Chacayá	4	Abril	2023-04-30T00:00:00	2024-11-06T06:00:00	8	Radiación solar	0
92977	7	Sololá	702	San José Chacayá	5	Chacayá	4	Abril	2023-04-30T00:00:00	2024-11-06T07:00:00	2	Temperatura media	14.9
92978	7	Sololá	702	San José Chacayá	5	Chacayá	4	Abril	2023-04-30T00:00:00	2024-11-06T07:00:00	4	Temperatura máxima	14.9
92979	7	Sololá	702	San José Chacayá	5	Chacayá	4	Abril	2023-04-30T00:00:00	2024-11-06T07:00:00	3	Temperatura mínima	13.8
92980	7	Sololá	702	San José Chacayá	5	Chacayá	4	Abril	2023-04-30T00:00:00	2024-11-06T07:00:00	5	Humedad	80
92981	7	Sololá	702	San José Chacayá	5	Chacayá	4	Abril	2023-04-30T00:00:00	2024-11-06T07:00:00	6	Velocidad del viento	3.2
92982	7	Sololá	702	San José Chacayá	5	Chacayá	4	Abril	2023-04-30T00:00:00	2024-11-06T07:00:00	7	Dirección del viento	3.22
92983	7	Sololá	702	San José Chacayá	5	Chacayá	4	Abril	2023-04-30T00:00:00	2024-11-06T07:00:00	1	Precipitación	0
92984	7	Sololá	702	San José Chacayá	5	Chacayá	4	Abril	2023-04-30T00:00:00	2024-11-06T07:00:00	8	Radiación solar	3
92985	7	Sololá	702	San José Chacayá	5	Chacayá	4	Abril	2023-04-30T00:00:00	2024-11-06T08:00:00	2	Temperatura media	15.9
92986	7	Sololá	702	San José Chacayá	5	Chacayá	4	Abril	2023-04-30T00:00:00	2024-11-06T08:00:00	4	Temperatura máxima	15.9
92987	7	Sololá	702	San José Chacayá	5	Chacayá	4	Abril	2023-04-30T00:00:00	2024-11-06T08:00:00	3	Temperatura mínima	14.3
92988	7	Sololá	702	San José Chacayá	5	Chacayá	4	Abril	2023-04-30T00:00:00	2024-11-06T08:00:00	5	Humedad	77
92989	7	Sololá	702	San José Chacayá	5	Chacayá	4	Abril	2023-04-30T00:00:00	2024-11-06T08:00:00	6	Velocidad del viento	1.6
92990	7	Sololá	702	San José Chacayá	5	Chacayá	4	Abril	2023-04-30T00:00:00	2024-11-06T08:00:00	7	Dirección del viento	1.61
92991	7	Sololá	702	San José Chacayá	5	Chacayá	4	Abril	2023-04-30T00:00:00	2024-11-06T08:00:00	1	Precipitación	0
92992	7	Sololá	702	San José Chacayá	5	Chacayá	4	Abril	2023-04-30T00:00:00	2024-11-06T08:00:00	8	Radiación solar	46
92993	7	Sololá	702	San José Chacayá	5	Chacayá	4	Abril	2023-04-30T00:00:00	2024-11-06T09:00:00	2	Temperatura media	18.3
92994	7	Sololá	702	San José Chacayá	5	Chacayá	4	Abril	2023-04-30T00:00:00	2024-11-06T09:00:00	4	Temperatura máxima	18.3
92995	7	Sololá	702	San José Chacayá	5	Chacayá	4	Abril	2023-04-30T00:00:00	2024-11-06T09:00:00	3	Temperatura mínima	15.9
92996	7	Sololá	702	San José Chacayá	5	Chacayá	4	Abril	2023-04-30T00:00:00	2024-11-06T09:00:00	5	Humedad	67
92997	7	Sololá	702	San José Chacayá	5	Chacayá	4	Abril	2023-04-30T00:00:00	2024-11-06T09:00:00	6	Velocidad del viento	3.2
92998	7	Sololá	702	San José Chacayá	5	Chacayá	4	Abril	2023-04-30T00:00:00	2024-11-06T09:00:00	7	Dirección del viento	3.22
92999	7	Sololá	702	San José Chacayá	5	Chacayá	4	Abril	2023-04-30T00:00:00	2024-11-06T09:00:00	1	Precipitación	0
93000	7	Sololá	702	San José Chacayá	5	Chacayá	4	Abril	2023-04-30T00:00:00	2024-11-06T09:00:00	8	Radiación solar	77
93001	7	Sololá	702	San José Chacayá	5	Chacayá	4	Abril	2023-04-30T00:00:00	2024-11-06T10:00:00	2	Temperatura media	21.4
93002	7	Sololá	702	San José Chacayá	5	Chacayá	4	Abril	2023-04-30T00:00:00	2024-11-06T10:00:00	4	Temperatura máxima	21.4
93003	7	Sololá	702	San José Chacayá	5	Chacayá	4	Abril	2023-04-30T00:00:00	2024-11-06T10:00:00	3	Temperatura mínima	18.3
93004	7	Sololá	702	San José Chacayá	5	Chacayá	4	Abril	2023-04-30T00:00:00	2024-11-06T10:00:00	5	Humedad	56
93005	7	Sololá	702	San José Chacayá	5	Chacayá	4	Abril	2023-04-30T00:00:00	2024-11-06T10:00:00	6	Velocidad del viento	4.8
93006	7	Sololá	702	San José Chacayá	5	Chacayá	4	Abril	2023-04-30T00:00:00	2024-11-06T10:00:00	7	Dirección del viento	4.83
93007	7	Sololá	702	San José Chacayá	5	Chacayá	4	Abril	2023-04-30T00:00:00	2024-11-06T10:00:00	1	Precipitación	0
93008	7	Sololá	702	San José Chacayá	5	Chacayá	4	Abril	2023-04-30T00:00:00	2024-11-06T10:00:00	8	Radiación solar	466
93009	7	Sololá	702	San José Chacayá	5	Chacayá	4	Abril	2023-04-30T00:00:00	2024-11-06T11:00:00	2	Temperatura media	22.7
93010	7	Sololá	702	San José Chacayá	5	Chacayá	4	Abril	2023-04-30T00:00:00	2024-11-06T11:00:00	4	Temperatura máxima	22.7
93011	7	Sololá	702	San José Chacayá	5	Chacayá	4	Abril	2023-04-30T00:00:00	2024-11-06T11:00:00	3	Temperatura mínima	21.4
93012	7	Sololá	702	San José Chacayá	5	Chacayá	4	Abril	2023-04-30T00:00:00	2024-11-06T11:00:00	5	Humedad	59
93013	7	Sololá	702	San José Chacayá	5	Chacayá	4	Abril	2023-04-30T00:00:00	2024-11-06T11:00:00	6	Velocidad del viento	6.4
93014	7	Sololá	702	San José Chacayá	5	Chacayá	4	Abril	2023-04-30T00:00:00	2024-11-06T11:00:00	7	Dirección del viento	6.44
93015	7	Sololá	702	San José Chacayá	5	Chacayá	4	Abril	2023-04-30T00:00:00	2024-11-06T11:00:00	1	Precipitación	0
93016	7	Sololá	702	San José Chacayá	5	Chacayá	4	Abril	2023-04-30T00:00:00	2024-11-06T11:00:00	8	Radiación solar	778
93017	7	Sololá	702	San José Chacayá	5	Chacayá	4	Abril	2023-04-30T00:00:00	2024-11-06T12:00:00	2	Temperatura media	22.2
93018	7	Sololá	702	San José Chacayá	5	Chacayá	4	Abril	2023-04-30T00:00:00	2024-11-06T12:00:00	4	Temperatura máxima	22.8
93019	7	Sololá	702	San José Chacayá	5	Chacayá	4	Abril	2023-04-30T00:00:00	2024-11-06T12:00:00	3	Temperatura mínima	21.9
93020	7	Sololá	702	San José Chacayá	5	Chacayá	4	Abril	2023-04-30T00:00:00	2024-11-06T12:00:00	5	Humedad	60
93021	7	Sololá	702	San José Chacayá	5	Chacayá	4	Abril	2023-04-30T00:00:00	2024-11-06T12:00:00	6	Velocidad del viento	8
93022	7	Sololá	702	San José Chacayá	5	Chacayá	4	Abril	2023-04-30T00:00:00	2024-11-06T12:00:00	7	Dirección del viento	8.05
93023	7	Sololá	702	San José Chacayá	5	Chacayá	4	Abril	2023-04-30T00:00:00	2024-11-06T12:00:00	1	Precipitación	0
93024	7	Sololá	702	San José Chacayá	5	Chacayá	4	Abril	2023-04-30T00:00:00	2024-11-06T12:00:00	8	Radiación solar	814
93025	7	Sololá	702	San José Chacayá	5	Chacayá	4	Abril	2023-04-30T00:00:00	2024-11-06T13:00:00	2	Temperatura media	23.7
93026	7	Sololá	702	San José Chacayá	5	Chacayá	4	Abril	2023-04-30T00:00:00	2024-11-06T13:00:00	4	Temperatura máxima	23.7
93027	7	Sololá	702	San José Chacayá	5	Chacayá	4	Abril	2023-04-30T00:00:00	2024-11-06T13:00:00	3	Temperatura mínima	22.2
93028	7	Sololá	702	San José Chacayá	5	Chacayá	4	Abril	2023-04-30T00:00:00	2024-11-06T13:00:00	5	Humedad	57
93029	7	Sololá	702	San José Chacayá	5	Chacayá	4	Abril	2023-04-30T00:00:00	2024-11-06T13:00:00	6	Velocidad del viento	9.7
93030	7	Sololá	702	San José Chacayá	5	Chacayá	4	Abril	2023-04-30T00:00:00	2024-11-06T13:00:00	7	Dirección del viento	9.66
93031	7	Sololá	702	San José Chacayá	5	Chacayá	4	Abril	2023-04-30T00:00:00	2024-11-06T13:00:00	1	Precipitación	0
93032	7	Sololá	702	San José Chacayá	5	Chacayá	4	Abril	2023-04-30T00:00:00	2024-11-06T13:00:00	8	Radiación solar	982
93033	7	Sololá	702	San José Chacayá	5	Chacayá	4	Abril	2023-04-30T00:00:00	2024-11-06T14:00:00	2	Temperatura media	23.1
93034	7	Sololá	702	San José Chacayá	5	Chacayá	4	Abril	2023-04-30T00:00:00	2024-11-06T14:00:00	4	Temperatura máxima	23.8
93035	7	Sololá	702	San José Chacayá	5	Chacayá	4	Abril	2023-04-30T00:00:00	2024-11-06T14:00:00	3	Temperatura mínima	23.1
93036	7	Sololá	702	San José Chacayá	5	Chacayá	4	Abril	2023-04-30T00:00:00	2024-11-06T14:00:00	5	Humedad	72
93037	7	Sololá	702	San José Chacayá	5	Chacayá	4	Abril	2023-04-30T00:00:00	2024-11-06T14:00:00	6	Velocidad del viento	6.4
93038	7	Sololá	702	San José Chacayá	5	Chacayá	4	Abril	2023-04-30T00:00:00	2024-11-06T14:00:00	7	Dirección del viento	6.44
93039	7	Sololá	702	San José Chacayá	5	Chacayá	4	Abril	2023-04-30T00:00:00	2024-11-06T14:00:00	1	Precipitación	0
93040	7	Sololá	702	San José Chacayá	5	Chacayá	4	Abril	2023-04-30T00:00:00	2024-11-06T14:00:00	8	Radiación solar	1004
93041	7	Sololá	702	San José Chacayá	5	Chacayá	4	Abril	2023-04-30T00:00:00	2024-11-06T15:00:00	2	Temperatura media	22.2
93042	7	Sololá	702	San José Chacayá	5	Chacayá	4	Abril	2023-04-30T00:00:00	2024-11-06T15:00:00	4	Temperatura máxima	23.1
93043	7	Sololá	702	San José Chacayá	5	Chacayá	4	Abril	2023-04-30T00:00:00	2024-11-06T15:00:00	3	Temperatura mínima	21.8
93044	7	Sololá	702	San José Chacayá	5	Chacayá	4	Abril	2023-04-30T00:00:00	2024-11-06T15:00:00	5	Humedad	73
93045	7	Sololá	702	San José Chacayá	5	Chacayá	4	Abril	2023-04-30T00:00:00	2024-11-06T15:00:00	6	Velocidad del viento	8
93046	7	Sololá	702	San José Chacayá	5	Chacayá	4	Abril	2023-04-30T00:00:00	2024-11-06T15:00:00	7	Dirección del viento	8.05
93047	7	Sololá	702	San José Chacayá	5	Chacayá	4	Abril	2023-04-30T00:00:00	2024-11-06T15:00:00	1	Precipitación	0
93048	7	Sololá	702	San José Chacayá	5	Chacayá	4	Abril	2023-04-30T00:00:00	2024-11-06T15:00:00	8	Radiación solar	979
93049	7	Sololá	702	San José Chacayá	5	Chacayá	4	Abril	2023-04-30T00:00:00	2024-11-06T16:00:00	2	Temperatura media	19.8
93050	7	Sololá	702	San José Chacayá	5	Chacayá	4	Abril	2023-04-30T00:00:00	2024-11-06T16:00:00	4	Temperatura máxima	22.2
93051	7	Sololá	702	San José Chacayá	5	Chacayá	4	Abril	2023-04-30T00:00:00	2024-11-06T16:00:00	3	Temperatura mínima	19.8
93052	7	Sololá	702	San José Chacayá	5	Chacayá	4	Abril	2023-04-30T00:00:00	2024-11-06T16:00:00	5	Humedad	78
93053	7	Sololá	702	San José Chacayá	5	Chacayá	4	Abril	2023-04-30T00:00:00	2024-11-06T16:00:00	6	Velocidad del viento	6.4
93054	7	Sololá	702	San José Chacayá	5	Chacayá	4	Abril	2023-04-30T00:00:00	2024-11-06T16:00:00	7	Dirección del viento	6.44
93055	7	Sololá	702	San José Chacayá	5	Chacayá	4	Abril	2023-04-30T00:00:00	2024-11-06T16:00:00	1	Precipitación	0
93056	7	Sololá	702	San José Chacayá	5	Chacayá	4	Abril	2023-04-30T00:00:00	2024-11-06T16:00:00	8	Radiación solar	429
93057	7	Sololá	702	San José Chacayá	5	Chacayá	4	Abril	2023-04-30T00:00:00	2024-11-06T17:00:00	2	Temperatura media	19.3
93058	7	Sololá	702	San José Chacayá	5	Chacayá	4	Abril	2023-04-30T00:00:00	2024-11-06T17:00:00	4	Temperatura máxima	19.9
93059	7	Sololá	702	San José Chacayá	5	Chacayá	4	Abril	2023-04-30T00:00:00	2024-11-06T17:00:00	3	Temperatura mínima	19.3
93060	7	Sololá	702	San José Chacayá	5	Chacayá	4	Abril	2023-04-30T00:00:00	2024-11-06T17:00:00	5	Humedad	80
93061	7	Sololá	702	San José Chacayá	5	Chacayá	4	Abril	2023-04-30T00:00:00	2024-11-06T17:00:00	6	Velocidad del viento	4.8
93062	7	Sololá	702	San José Chacayá	5	Chacayá	4	Abril	2023-04-30T00:00:00	2024-11-06T17:00:00	7	Dirección del viento	4.83
93063	7	Sololá	702	San José Chacayá	5	Chacayá	4	Abril	2023-04-30T00:00:00	2024-11-06T17:00:00	1	Precipitación	0
93064	7	Sololá	702	San José Chacayá	5	Chacayá	4	Abril	2023-04-30T00:00:00	2024-11-06T17:00:00	8	Radiación solar	249
93065	7	Sololá	702	San José Chacayá	5	Chacayá	4	Abril	2023-04-30T00:00:00	2024-11-06T18:00:00	2	Temperatura media	18.3
93066	7	Sololá	702	San José Chacayá	5	Chacayá	4	Abril	2023-04-30T00:00:00	2024-11-06T18:00:00	4	Temperatura máxima	19.3
93067	7	Sololá	702	San José Chacayá	5	Chacayá	4	Abril	2023-04-30T00:00:00	2024-11-06T18:00:00	3	Temperatura mínima	18.3
93068	7	Sololá	702	San José Chacayá	5	Chacayá	4	Abril	2023-04-30T00:00:00	2024-11-06T18:00:00	5	Humedad	82
93069	7	Sololá	702	San José Chacayá	5	Chacayá	4	Abril	2023-04-30T00:00:00	2024-11-06T18:00:00	6	Velocidad del viento	1.6
93070	7	Sololá	702	San José Chacayá	5	Chacayá	4	Abril	2023-04-30T00:00:00	2024-11-06T18:00:00	7	Dirección del viento	1.61
93071	7	Sololá	702	San José Chacayá	5	Chacayá	4	Abril	2023-04-30T00:00:00	2024-11-06T18:00:00	1	Precipitación	0
93072	7	Sololá	702	San José Chacayá	5	Chacayá	4	Abril	2023-04-30T00:00:00	2024-11-06T18:00:00	8	Radiación solar	119
93073	7	Sololá	702	San José Chacayá	5	Chacayá	4	Abril	2023-04-30T00:00:00	2024-11-06T19:00:00	2	Temperatura media	17.2
93074	7	Sololá	702	San José Chacayá	5	Chacayá	4	Abril	2023-04-30T00:00:00	2024-11-06T19:00:00	4	Temperatura máxima	18.3
93075	7	Sololá	702	San José Chacayá	5	Chacayá	4	Abril	2023-04-30T00:00:00	2024-11-06T19:00:00	3	Temperatura mínima	17.2
93076	7	Sololá	702	San José Chacayá	5	Chacayá	4	Abril	2023-04-30T00:00:00	2024-11-06T19:00:00	5	Humedad	82
93077	7	Sololá	702	San José Chacayá	5	Chacayá	4	Abril	2023-04-30T00:00:00	2024-11-06T19:00:00	6	Velocidad del viento	0
93078	7	Sololá	702	San José Chacayá	5	Chacayá	4	Abril	2023-04-30T00:00:00	2024-11-06T19:00:00	7	Dirección del viento	0
93079	7	Sololá	702	San José Chacayá	5	Chacayá	4	Abril	2023-04-30T00:00:00	2024-11-06T19:00:00	1	Precipitación	0
93080	7	Sololá	702	San José Chacayá	5	Chacayá	4	Abril	2023-04-30T00:00:00	2024-11-06T19:00:00	8	Radiación solar	0
93081	7	Sololá	702	San José Chacayá	5	Chacayá	4	Abril	2023-04-30T00:00:00	2024-11-06T20:00:00	2	Temperatura media	16.2
93082	7	Sololá	702	San José Chacayá	5	Chacayá	4	Abril	2023-04-30T00:00:00	2024-11-06T20:00:00	4	Temperatura máxima	17.2
93083	7	Sololá	702	San José Chacayá	5	Chacayá	4	Abril	2023-04-30T00:00:00	2024-11-06T20:00:00	3	Temperatura mínima	16.2
93084	7	Sololá	702	San José Chacayá	5	Chacayá	4	Abril	2023-04-30T00:00:00	2024-11-06T20:00:00	5	Humedad	82
93085	7	Sololá	702	San José Chacayá	5	Chacayá	4	Abril	2023-04-30T00:00:00	2024-11-06T20:00:00	6	Velocidad del viento	1.6
93086	7	Sololá	702	San José Chacayá	5	Chacayá	4	Abril	2023-04-30T00:00:00	2024-11-06T20:00:00	7	Dirección del viento	1.61
93087	7	Sololá	702	San José Chacayá	5	Chacayá	4	Abril	2023-04-30T00:00:00	2024-11-06T20:00:00	1	Precipitación	0
93088	7	Sololá	702	San José Chacayá	5	Chacayá	4	Abril	2023-04-30T00:00:00	2024-11-06T20:00:00	8	Radiación solar	0
93089	7	Sololá	702	San José Chacayá	5	Chacayá	4	Abril	2023-04-30T00:00:00	2024-11-06T21:00:00	2	Temperatura media	15.9
93090	7	Sololá	702	San José Chacayá	5	Chacayá	4	Abril	2023-04-30T00:00:00	2024-11-06T21:00:00	4	Temperatura máxima	16.3
93091	7	Sololá	702	San José Chacayá	5	Chacayá	4	Abril	2023-04-30T00:00:00	2024-11-06T21:00:00	3	Temperatura mínima	15.9
93092	7	Sololá	702	San José Chacayá	5	Chacayá	4	Abril	2023-04-30T00:00:00	2024-11-06T21:00:00	5	Humedad	81
93093	7	Sololá	702	San José Chacayá	5	Chacayá	4	Abril	2023-04-30T00:00:00	2024-11-06T21:00:00	6	Velocidad del viento	1.6
93094	7	Sololá	702	San José Chacayá	5	Chacayá	4	Abril	2023-04-30T00:00:00	2024-11-06T21:00:00	7	Dirección del viento	1.61
93095	7	Sololá	702	San José Chacayá	5	Chacayá	4	Abril	2023-04-30T00:00:00	2024-11-06T21:00:00	1	Precipitación	0
93096	7	Sololá	702	San José Chacayá	5	Chacayá	4	Abril	2023-04-30T00:00:00	2024-11-06T21:00:00	8	Radiación solar	0
93097	7	Sololá	702	San José Chacayá	5	Chacayá	4	Abril	2023-04-30T00:00:00	2024-11-06T22:00:00	2	Temperatura media	15.5
93098	7	Sololá	702	San José Chacayá	5	Chacayá	4	Abril	2023-04-30T00:00:00	2024-11-06T22:00:00	4	Temperatura máxima	16
93099	7	Sololá	702	San José Chacayá	5	Chacayá	4	Abril	2023-04-30T00:00:00	2024-11-06T22:00:00	3	Temperatura mínima	15.5
93100	7	Sololá	702	San José Chacayá	5	Chacayá	4	Abril	2023-04-30T00:00:00	2024-11-06T22:00:00	5	Humedad	81
93101	7	Sololá	702	San José Chacayá	5	Chacayá	4	Abril	2023-04-30T00:00:00	2024-11-06T22:00:00	6	Velocidad del viento	1.6
93102	7	Sololá	702	San José Chacayá	5	Chacayá	4	Abril	2023-04-30T00:00:00	2024-11-06T22:00:00	7	Dirección del viento	1.61
93103	7	Sololá	702	San José Chacayá	5	Chacayá	4	Abril	2023-04-30T00:00:00	2024-11-06T22:00:00	1	Precipitación	0
93104	7	Sololá	702	San José Chacayá	5	Chacayá	4	Abril	2023-04-30T00:00:00	2024-11-06T22:00:00	8	Radiación solar	0
93105	7	Sololá	702	San José Chacayá	5	Chacayá	4	Abril	2023-04-30T00:00:00	2024-11-06T23:00:00	2	Temperatura media	13.8
93106	7	Sololá	702	San José Chacayá	5	Chacayá	4	Abril	2023-04-30T00:00:00	2024-11-06T23:00:00	4	Temperatura máxima	15.5
93107	7	Sololá	702	San José Chacayá	5	Chacayá	4	Abril	2023-04-30T00:00:00	2024-11-06T23:00:00	3	Temperatura mínima	13.8
93108	7	Sololá	702	San José Chacayá	5	Chacayá	4	Abril	2023-04-30T00:00:00	2024-11-06T23:00:00	5	Humedad	84
93109	7	Sololá	702	San José Chacayá	5	Chacayá	4	Abril	2023-04-30T00:00:00	2024-11-06T23:00:00	6	Velocidad del viento	1.6
93110	7	Sololá	702	San José Chacayá	5	Chacayá	4	Abril	2023-04-30T00:00:00	2024-11-06T23:00:00	7	Dirección del viento	1.61
93111	7	Sololá	702	San José Chacayá	5	Chacayá	4	Abril	2023-04-30T00:00:00	2024-11-06T23:00:00	1	Precipitación	0
93112	7	Sololá	702	San José Chacayá	5	Chacayá	4	Abril	2023-04-30T00:00:00	2024-11-06T23:00:00	8	Radiación solar	0
93113	7	Sololá	702	San José Chacayá	5	Chacayá	5	Mayo	2023-01-05T00:00:00	2024-11-06T00:00:00	2	Temperatura media	12.3
93114	7	Sololá	702	San José Chacayá	5	Chacayá	5	Mayo	2023-01-05T00:00:00	2024-11-06T00:00:00	4	Temperatura máxima	13.8
93115	7	Sololá	702	San José Chacayá	5	Chacayá	5	Mayo	2023-01-05T00:00:00	2024-11-06T00:00:00	3	Temperatura mínima	12.3
93116	7	Sololá	702	San José Chacayá	5	Chacayá	5	Mayo	2023-01-05T00:00:00	2024-11-06T00:00:00	5	Humedad	83
93117	7	Sololá	702	San José Chacayá	5	Chacayá	5	Mayo	2023-01-05T00:00:00	2024-11-06T00:00:00	6	Velocidad del viento	1.6
93118	7	Sololá	702	San José Chacayá	5	Chacayá	5	Mayo	2023-01-05T00:00:00	2024-11-06T00:00:00	7	Dirección del viento	1.61
93119	7	Sololá	702	San José Chacayá	5	Chacayá	5	Mayo	2023-01-05T00:00:00	2024-11-06T00:00:00	1	Precipitación	0
93120	7	Sololá	702	San José Chacayá	5	Chacayá	5	Mayo	2023-01-05T00:00:00	2024-11-06T00:00:00	8	Radiación solar	0
93121	7	Sololá	702	San José Chacayá	5	Chacayá	5	Mayo	2023-01-05T00:00:00	2024-11-06T01:00:00	2	Temperatura media	11.8
93122	7	Sololá	702	San José Chacayá	5	Chacayá	5	Mayo	2023-01-05T00:00:00	2024-11-06T01:00:00	4	Temperatura máxima	12.3
93123	7	Sololá	702	San José Chacayá	5	Chacayá	5	Mayo	2023-01-05T00:00:00	2024-11-06T01:00:00	3	Temperatura mínima	11.8
93124	7	Sololá	702	San José Chacayá	5	Chacayá	5	Mayo	2023-01-05T00:00:00	2024-11-06T01:00:00	5	Humedad	82
93125	7	Sololá	702	San José Chacayá	5	Chacayá	5	Mayo	2023-01-05T00:00:00	2024-11-06T01:00:00	6	Velocidad del viento	1.6
93126	7	Sololá	702	San José Chacayá	5	Chacayá	5	Mayo	2023-01-05T00:00:00	2024-11-06T01:00:00	7	Dirección del viento	1.61
93127	7	Sololá	702	San José Chacayá	5	Chacayá	5	Mayo	2023-01-05T00:00:00	2024-11-06T01:00:00	1	Precipitación	0
93128	7	Sololá	702	San José Chacayá	5	Chacayá	5	Mayo	2023-01-05T00:00:00	2024-11-06T01:00:00	8	Radiación solar	0
93129	7	Sololá	702	San José Chacayá	5	Chacayá	5	Mayo	2023-01-05T00:00:00	2024-11-06T02:00:00	2	Temperatura media	11.3
93130	7	Sololá	702	San José Chacayá	5	Chacayá	5	Mayo	2023-01-05T00:00:00	2024-11-06T02:00:00	4	Temperatura máxima	11.8
93131	7	Sololá	702	San José Chacayá	5	Chacayá	5	Mayo	2023-01-05T00:00:00	2024-11-06T02:00:00	3	Temperatura mínima	11.3
93132	7	Sololá	702	San José Chacayá	5	Chacayá	5	Mayo	2023-01-05T00:00:00	2024-11-06T02:00:00	5	Humedad	81
93133	7	Sololá	702	San José Chacayá	5	Chacayá	5	Mayo	2023-01-05T00:00:00	2024-11-06T02:00:00	6	Velocidad del viento	1.6
93134	7	Sololá	702	San José Chacayá	5	Chacayá	5	Mayo	2023-01-05T00:00:00	2024-11-06T02:00:00	7	Dirección del viento	1.61
93135	7	Sololá	702	San José Chacayá	5	Chacayá	5	Mayo	2023-01-05T00:00:00	2024-11-06T02:00:00	1	Precipitación	0
93136	7	Sololá	702	San José Chacayá	5	Chacayá	5	Mayo	2023-01-05T00:00:00	2024-11-06T02:00:00	8	Radiación solar	0
93137	7	Sololá	702	San José Chacayá	5	Chacayá	5	Mayo	2023-01-05T00:00:00	2024-11-06T03:00:00	2	Temperatura media	11.2
93138	7	Sololá	702	San José Chacayá	5	Chacayá	5	Mayo	2023-01-05T00:00:00	2024-11-06T03:00:00	4	Temperatura máxima	11.3
93139	7	Sololá	702	San José Chacayá	5	Chacayá	5	Mayo	2023-01-05T00:00:00	2024-11-06T03:00:00	3	Temperatura mínima	11.1
93140	7	Sololá	702	San José Chacayá	5	Chacayá	5	Mayo	2023-01-05T00:00:00	2024-11-06T03:00:00	5	Humedad	81
93141	7	Sololá	702	San José Chacayá	5	Chacayá	5	Mayo	2023-01-05T00:00:00	2024-11-06T03:00:00	6	Velocidad del viento	3.2
93142	7	Sololá	702	San José Chacayá	5	Chacayá	5	Mayo	2023-01-05T00:00:00	2024-11-06T03:00:00	7	Dirección del viento	3.22
93143	7	Sololá	702	San José Chacayá	5	Chacayá	5	Mayo	2023-01-05T00:00:00	2024-11-06T03:00:00	1	Precipitación	0
93144	7	Sololá	702	San José Chacayá	5	Chacayá	5	Mayo	2023-01-05T00:00:00	2024-11-06T03:00:00	8	Radiación solar	0
93145	7	Sololá	702	San José Chacayá	5	Chacayá	5	Mayo	2023-01-05T00:00:00	2024-11-06T04:00:00	2	Temperatura media	10.6
93146	7	Sololá	702	San José Chacayá	5	Chacayá	5	Mayo	2023-01-05T00:00:00	2024-11-06T04:00:00	4	Temperatura máxima	11.2
93147	7	Sololá	702	San José Chacayá	5	Chacayá	5	Mayo	2023-01-05T00:00:00	2024-11-06T04:00:00	3	Temperatura mínima	10.6
93148	7	Sololá	702	San José Chacayá	5	Chacayá	5	Mayo	2023-01-05T00:00:00	2024-11-06T04:00:00	5	Humedad	83
93149	7	Sololá	702	San José Chacayá	5	Chacayá	5	Mayo	2023-01-05T00:00:00	2024-11-06T04:00:00	6	Velocidad del viento	3.2
93150	7	Sololá	702	San José Chacayá	5	Chacayá	5	Mayo	2023-01-05T00:00:00	2024-11-06T04:00:00	7	Dirección del viento	3.22
93151	7	Sololá	702	San José Chacayá	5	Chacayá	5	Mayo	2023-01-05T00:00:00	2024-11-06T04:00:00	1	Precipitación	0
93152	7	Sololá	702	San José Chacayá	5	Chacayá	5	Mayo	2023-01-05T00:00:00	2024-11-06T04:00:00	8	Radiación solar	0
93153	7	Sololá	702	San José Chacayá	5	Chacayá	5	Mayo	2023-01-05T00:00:00	2024-11-06T05:00:00	2	Temperatura media	10.6
93154	7	Sololá	702	San José Chacayá	5	Chacayá	5	Mayo	2023-01-05T00:00:00	2024-11-06T05:00:00	4	Temperatura máxima	10.7
93155	7	Sololá	702	San José Chacayá	5	Chacayá	5	Mayo	2023-01-05T00:00:00	2024-11-06T05:00:00	3	Temperatura mínima	10.4
93156	7	Sololá	702	San José Chacayá	5	Chacayá	5	Mayo	2023-01-05T00:00:00	2024-11-06T05:00:00	5	Humedad	83
93157	7	Sololá	702	San José Chacayá	5	Chacayá	5	Mayo	2023-01-05T00:00:00	2024-11-06T05:00:00	6	Velocidad del viento	4.8
93158	7	Sololá	702	San José Chacayá	5	Chacayá	5	Mayo	2023-01-05T00:00:00	2024-11-06T05:00:00	7	Dirección del viento	4.83
93159	7	Sololá	702	San José Chacayá	5	Chacayá	5	Mayo	2023-01-05T00:00:00	2024-11-06T05:00:00	1	Precipitación	0
93160	7	Sololá	702	San José Chacayá	5	Chacayá	5	Mayo	2023-01-05T00:00:00	2024-11-06T05:00:00	8	Radiación solar	0
93161	7	Sololá	702	San José Chacayá	5	Chacayá	5	Mayo	2023-01-05T00:00:00	2024-11-06T06:00:00	2	Temperatura media	10.3
93162	7	Sololá	702	San José Chacayá	5	Chacayá	5	Mayo	2023-01-05T00:00:00	2024-11-06T06:00:00	4	Temperatura máxima	10.6
93163	7	Sololá	702	San José Chacayá	5	Chacayá	5	Mayo	2023-01-05T00:00:00	2024-11-06T06:00:00	3	Temperatura mínima	10.3
93164	7	Sololá	702	San José Chacayá	5	Chacayá	5	Mayo	2023-01-05T00:00:00	2024-11-06T06:00:00	5	Humedad	83
93165	7	Sololá	702	San José Chacayá	5	Chacayá	5	Mayo	2023-01-05T00:00:00	2024-11-06T06:00:00	6	Velocidad del viento	4.8
93166	7	Sololá	702	San José Chacayá	5	Chacayá	5	Mayo	2023-01-05T00:00:00	2024-11-06T06:00:00	7	Dirección del viento	4.83
93167	7	Sololá	702	San José Chacayá	5	Chacayá	5	Mayo	2023-01-05T00:00:00	2024-11-06T06:00:00	1	Precipitación	0
93168	7	Sololá	702	San José Chacayá	5	Chacayá	5	Mayo	2023-01-05T00:00:00	2024-11-06T06:00:00	8	Radiación solar	0
93169	7	Sololá	702	San José Chacayá	5	Chacayá	5	Mayo	2023-01-05T00:00:00	2024-11-06T07:00:00	2	Temperatura media	10.4
93170	7	Sololá	702	San José Chacayá	5	Chacayá	5	Mayo	2023-01-05T00:00:00	2024-11-06T07:00:00	4	Temperatura máxima	10.4
93171	7	Sololá	702	San José Chacayá	5	Chacayá	5	Mayo	2023-01-05T00:00:00	2024-11-06T07:00:00	3	Temperatura mínima	10.3
93172	7	Sololá	702	San José Chacayá	5	Chacayá	5	Mayo	2023-01-05T00:00:00	2024-11-06T07:00:00	5	Humedad	83
93173	7	Sololá	702	San José Chacayá	5	Chacayá	5	Mayo	2023-01-05T00:00:00	2024-11-06T07:00:00	6	Velocidad del viento	4.8
93174	7	Sololá	702	San José Chacayá	5	Chacayá	5	Mayo	2023-01-05T00:00:00	2024-11-06T07:00:00	7	Dirección del viento	4.83
93175	7	Sololá	702	San José Chacayá	5	Chacayá	5	Mayo	2023-01-05T00:00:00	2024-11-06T07:00:00	1	Precipitación	0
93176	7	Sololá	702	San José Chacayá	5	Chacayá	5	Mayo	2023-01-05T00:00:00	2024-11-06T07:00:00	8	Radiación solar	3
93177	7	Sololá	702	San José Chacayá	5	Chacayá	5	Mayo	2023-01-05T00:00:00	2024-11-06T08:00:00	2	Temperatura media	12.8
93178	7	Sololá	702	San José Chacayá	5	Chacayá	5	Mayo	2023-01-05T00:00:00	2024-11-06T08:00:00	4	Temperatura máxima	12.8
93179	7	Sololá	702	San José Chacayá	5	Chacayá	5	Mayo	2023-01-05T00:00:00	2024-11-06T08:00:00	3	Temperatura mínima	10.4
93180	7	Sololá	702	San José Chacayá	5	Chacayá	5	Mayo	2023-01-05T00:00:00	2024-11-06T08:00:00	5	Humedad	83
93181	7	Sololá	702	San José Chacayá	5	Chacayá	5	Mayo	2023-01-05T00:00:00	2024-11-06T08:00:00	6	Velocidad del viento	3.2
93182	7	Sololá	702	San José Chacayá	5	Chacayá	5	Mayo	2023-01-05T00:00:00	2024-11-06T08:00:00	7	Dirección del viento	3.22
93183	7	Sololá	702	San José Chacayá	5	Chacayá	5	Mayo	2023-01-05T00:00:00	2024-11-06T08:00:00	1	Precipitación	0
93184	7	Sololá	702	San José Chacayá	5	Chacayá	5	Mayo	2023-01-05T00:00:00	2024-11-06T08:00:00	8	Radiación solar	42
93185	7	Sololá	702	San José Chacayá	5	Chacayá	5	Mayo	2023-01-05T00:00:00	2024-11-06T09:00:00	2	Temperatura media	16.9
93186	7	Sololá	702	San José Chacayá	5	Chacayá	5	Mayo	2023-01-05T00:00:00	2024-11-06T09:00:00	4	Temperatura máxima	16.9
93187	7	Sololá	702	San José Chacayá	5	Chacayá	5	Mayo	2023-01-05T00:00:00	2024-11-06T09:00:00	3	Temperatura mínima	12.8
93188	7	Sololá	702	San José Chacayá	5	Chacayá	5	Mayo	2023-01-05T00:00:00	2024-11-06T09:00:00	5	Humedad	73
93189	7	Sololá	702	San José Chacayá	5	Chacayá	5	Mayo	2023-01-05T00:00:00	2024-11-06T09:00:00	6	Velocidad del viento	1.6
93190	7	Sololá	702	San José Chacayá	5	Chacayá	5	Mayo	2023-01-05T00:00:00	2024-11-06T09:00:00	7	Dirección del viento	1.61
93191	7	Sololá	702	San José Chacayá	5	Chacayá	5	Mayo	2023-01-05T00:00:00	2024-11-06T09:00:00	1	Precipitación	0
93192	7	Sololá	702	San José Chacayá	5	Chacayá	5	Mayo	2023-01-05T00:00:00	2024-11-06T09:00:00	8	Radiación solar	80
93193	7	Sololá	702	San José Chacayá	5	Chacayá	5	Mayo	2023-01-05T00:00:00	2024-11-06T10:00:00	2	Temperatura media	19.5
93194	7	Sololá	702	San José Chacayá	5	Chacayá	5	Mayo	2023-01-05T00:00:00	2024-11-06T10:00:00	4	Temperatura máxima	19.6
93195	7	Sololá	702	San José Chacayá	5	Chacayá	5	Mayo	2023-01-05T00:00:00	2024-11-06T10:00:00	3	Temperatura mínima	16.9
93196	7	Sololá	702	San José Chacayá	5	Chacayá	5	Mayo	2023-01-05T00:00:00	2024-11-06T10:00:00	5	Humedad	69
93197	7	Sololá	702	San José Chacayá	5	Chacayá	5	Mayo	2023-01-05T00:00:00	2024-11-06T10:00:00	6	Velocidad del viento	4.8
93198	7	Sololá	702	San José Chacayá	5	Chacayá	5	Mayo	2023-01-05T00:00:00	2024-11-06T10:00:00	7	Dirección del viento	4.83
93199	7	Sololá	702	San José Chacayá	5	Chacayá	5	Mayo	2023-01-05T00:00:00	2024-11-06T10:00:00	1	Precipitación	0
93200	7	Sololá	702	San José Chacayá	5	Chacayá	5	Mayo	2023-01-05T00:00:00	2024-11-06T10:00:00	8	Radiación solar	427
93201	7	Sololá	702	San José Chacayá	5	Chacayá	5	Mayo	2023-01-05T00:00:00	2024-11-06T11:00:00	2	Temperatura media	21.1
93202	7	Sololá	702	San José Chacayá	5	Chacayá	5	Mayo	2023-01-05T00:00:00	2024-11-06T11:00:00	4	Temperatura máxima	21.1
93203	7	Sololá	702	San José Chacayá	5	Chacayá	5	Mayo	2023-01-05T00:00:00	2024-11-06T11:00:00	3	Temperatura mínima	19.5
93204	7	Sololá	702	San José Chacayá	5	Chacayá	5	Mayo	2023-01-05T00:00:00	2024-11-06T11:00:00	5	Humedad	62
93205	7	Sololá	702	San José Chacayá	5	Chacayá	5	Mayo	2023-01-05T00:00:00	2024-11-06T11:00:00	6	Velocidad del viento	4.8
93206	7	Sololá	702	San José Chacayá	5	Chacayá	5	Mayo	2023-01-05T00:00:00	2024-11-06T11:00:00	7	Dirección del viento	4.83
93207	7	Sololá	702	San José Chacayá	5	Chacayá	5	Mayo	2023-01-05T00:00:00	2024-11-06T11:00:00	1	Precipitación	0
93208	7	Sololá	702	San José Chacayá	5	Chacayá	5	Mayo	2023-01-05T00:00:00	2024-11-06T11:00:00	8	Radiación solar	797
93209	7	Sololá	702	San José Chacayá	5	Chacayá	5	Mayo	2023-01-05T00:00:00	2024-11-06T12:00:00	2	Temperatura media	22.5
93210	7	Sololá	702	San José Chacayá	5	Chacayá	5	Mayo	2023-01-05T00:00:00	2024-11-06T12:00:00	4	Temperatura máxima	22.6
93211	7	Sololá	702	San José Chacayá	5	Chacayá	5	Mayo	2023-01-05T00:00:00	2024-11-06T12:00:00	3	Temperatura mínima	21.1
93212	7	Sololá	702	San José Chacayá	5	Chacayá	5	Mayo	2023-01-05T00:00:00	2024-11-06T12:00:00	5	Humedad	60
93213	7	Sololá	702	San José Chacayá	5	Chacayá	5	Mayo	2023-01-05T00:00:00	2024-11-06T12:00:00	6	Velocidad del viento	4.8
93214	7	Sololá	702	San José Chacayá	5	Chacayá	5	Mayo	2023-01-05T00:00:00	2024-11-06T12:00:00	7	Dirección del viento	4.83
93215	7	Sololá	702	San José Chacayá	5	Chacayá	5	Mayo	2023-01-05T00:00:00	2024-11-06T12:00:00	1	Precipitación	0
93216	7	Sololá	702	San José Chacayá	5	Chacayá	5	Mayo	2023-01-05T00:00:00	2024-11-06T12:00:00	8	Radiación solar	917
93217	7	Sololá	702	San José Chacayá	5	Chacayá	5	Mayo	2023-01-05T00:00:00	2024-11-06T13:00:00	2	Temperatura media	22.9
93218	7	Sololá	702	San José Chacayá	5	Chacayá	5	Mayo	2023-01-05T00:00:00	2024-11-06T13:00:00	4	Temperatura máxima	23.1
93219	7	Sololá	702	San José Chacayá	5	Chacayá	5	Mayo	2023-01-05T00:00:00	2024-11-06T13:00:00	3	Temperatura mínima	22.4
93220	7	Sololá	702	San José Chacayá	5	Chacayá	5	Mayo	2023-01-05T00:00:00	2024-11-06T13:00:00	5	Humedad	59
93221	7	Sololá	702	San José Chacayá	5	Chacayá	5	Mayo	2023-01-05T00:00:00	2024-11-06T13:00:00	6	Velocidad del viento	6.4
93222	7	Sololá	702	San José Chacayá	5	Chacayá	5	Mayo	2023-01-05T00:00:00	2024-11-06T13:00:00	7	Dirección del viento	6.44
93223	7	Sololá	702	San José Chacayá	5	Chacayá	5	Mayo	2023-01-05T00:00:00	2024-11-06T13:00:00	1	Precipitación	0
93224	7	Sololá	702	San José Chacayá	5	Chacayá	5	Mayo	2023-01-05T00:00:00	2024-11-06T13:00:00	8	Radiación solar	973
93225	7	Sololá	702	San José Chacayá	5	Chacayá	5	Mayo	2023-01-05T00:00:00	2024-11-06T14:00:00	2	Temperatura media	21.6
93226	7	Sololá	702	San José Chacayá	5	Chacayá	5	Mayo	2023-01-05T00:00:00	2024-11-06T14:00:00	4	Temperatura máxima	23.3
93227	7	Sololá	702	San José Chacayá	5	Chacayá	5	Mayo	2023-01-05T00:00:00	2024-11-06T14:00:00	3	Temperatura mínima	21.6
93228	7	Sololá	702	San José Chacayá	5	Chacayá	5	Mayo	2023-01-05T00:00:00	2024-11-06T14:00:00	5	Humedad	70
93229	7	Sololá	702	San José Chacayá	5	Chacayá	5	Mayo	2023-01-05T00:00:00	2024-11-06T14:00:00	6	Velocidad del viento	6.4
93230	7	Sololá	702	San José Chacayá	5	Chacayá	5	Mayo	2023-01-05T00:00:00	2024-11-06T14:00:00	7	Dirección del viento	6.44
93231	7	Sololá	702	San José Chacayá	5	Chacayá	5	Mayo	2023-01-05T00:00:00	2024-11-06T14:00:00	1	Precipitación	0
93232	7	Sololá	702	San José Chacayá	5	Chacayá	5	Mayo	2023-01-05T00:00:00	2024-11-06T14:00:00	8	Radiación solar	1005
93233	7	Sololá	702	San José Chacayá	5	Chacayá	5	Mayo	2023-01-05T00:00:00	2024-11-06T15:00:00	2	Temperatura media	20.2
93234	7	Sololá	702	San José Chacayá	5	Chacayá	5	Mayo	2023-01-05T00:00:00	2024-11-06T15:00:00	4	Temperatura máxima	21.8
93235	7	Sololá	702	San José Chacayá	5	Chacayá	5	Mayo	2023-01-05T00:00:00	2024-11-06T15:00:00	3	Temperatura mínima	20.2
93236	7	Sololá	702	San José Chacayá	5	Chacayá	5	Mayo	2023-01-05T00:00:00	2024-11-06T15:00:00	5	Humedad	75
93237	7	Sololá	702	San José Chacayá	5	Chacayá	5	Mayo	2023-01-05T00:00:00	2024-11-06T15:00:00	6	Velocidad del viento	8
93238	7	Sololá	702	San José Chacayá	5	Chacayá	5	Mayo	2023-01-05T00:00:00	2024-11-06T15:00:00	7	Dirección del viento	8.05
93239	7	Sololá	702	San José Chacayá	5	Chacayá	5	Mayo	2023-01-05T00:00:00	2024-11-06T15:00:00	1	Precipitación	0
93240	7	Sololá	702	San José Chacayá	5	Chacayá	5	Mayo	2023-01-05T00:00:00	2024-11-06T15:00:00	8	Radiación solar	756
93241	7	Sololá	702	San José Chacayá	5	Chacayá	5	Mayo	2023-01-05T00:00:00	2024-11-06T16:00:00	2	Temperatura media	19
93242	7	Sololá	702	San José Chacayá	5	Chacayá	5	Mayo	2023-01-05T00:00:00	2024-11-06T16:00:00	4	Temperatura máxima	20.4
93243	7	Sololá	702	San José Chacayá	5	Chacayá	5	Mayo	2023-01-05T00:00:00	2024-11-06T16:00:00	3	Temperatura mínima	19
93244	7	Sololá	702	San José Chacayá	5	Chacayá	5	Mayo	2023-01-05T00:00:00	2024-11-06T16:00:00	5	Humedad	82
93245	7	Sololá	702	San José Chacayá	5	Chacayá	5	Mayo	2023-01-05T00:00:00	2024-11-06T16:00:00	6	Velocidad del viento	6.4
93246	7	Sololá	702	San José Chacayá	5	Chacayá	5	Mayo	2023-01-05T00:00:00	2024-11-06T16:00:00	7	Dirección del viento	6.44
93247	7	Sololá	702	San José Chacayá	5	Chacayá	5	Mayo	2023-01-05T00:00:00	2024-11-06T16:00:00	1	Precipitación	0
93248	7	Sololá	702	San José Chacayá	5	Chacayá	5	Mayo	2023-01-05T00:00:00	2024-11-06T16:00:00	8	Radiación solar	327
93249	7	Sololá	702	San José Chacayá	5	Chacayá	5	Mayo	2023-01-05T00:00:00	2024-11-06T17:00:00	2	Temperatura media	18.6
93250	7	Sololá	702	San José Chacayá	5	Chacayá	5	Mayo	2023-01-05T00:00:00	2024-11-06T17:00:00	4	Temperatura máxima	19.1
93251	7	Sololá	702	San José Chacayá	5	Chacayá	5	Mayo	2023-01-05T00:00:00	2024-11-06T17:00:00	3	Temperatura mínima	18.4
93252	7	Sololá	702	San José Chacayá	5	Chacayá	5	Mayo	2023-01-05T00:00:00	2024-11-06T17:00:00	5	Humedad	82
93253	7	Sololá	702	San José Chacayá	5	Chacayá	5	Mayo	2023-01-05T00:00:00	2024-11-06T17:00:00	6	Velocidad del viento	4.8
93254	7	Sololá	702	San José Chacayá	5	Chacayá	5	Mayo	2023-01-05T00:00:00	2024-11-06T17:00:00	7	Dirección del viento	4.83
93255	7	Sololá	702	San José Chacayá	5	Chacayá	5	Mayo	2023-01-05T00:00:00	2024-11-06T17:00:00	1	Precipitación	0
93256	7	Sololá	702	San José Chacayá	5	Chacayá	5	Mayo	2023-01-05T00:00:00	2024-11-06T17:00:00	8	Radiación solar	267
93257	7	Sololá	702	San José Chacayá	5	Chacayá	5	Mayo	2023-01-05T00:00:00	2024-11-06T18:00:00	2	Temperatura media	17.9
93258	7	Sololá	702	San José Chacayá	5	Chacayá	5	Mayo	2023-01-05T00:00:00	2024-11-06T18:00:00	4	Temperatura máxima	18.9
93259	7	Sololá	702	San José Chacayá	5	Chacayá	5	Mayo	2023-01-05T00:00:00	2024-11-06T18:00:00	3	Temperatura mínima	17.9
93260	7	Sololá	702	San José Chacayá	5	Chacayá	5	Mayo	2023-01-05T00:00:00	2024-11-06T18:00:00	5	Humedad	83
93261	7	Sololá	702	San José Chacayá	5	Chacayá	5	Mayo	2023-01-05T00:00:00	2024-11-06T18:00:00	6	Velocidad del viento	4.8
93262	7	Sololá	702	San José Chacayá	5	Chacayá	5	Mayo	2023-01-05T00:00:00	2024-11-06T18:00:00	7	Dirección del viento	4.83
93263	7	Sololá	702	San José Chacayá	5	Chacayá	5	Mayo	2023-01-05T00:00:00	2024-11-06T18:00:00	1	Precipitación	0
93264	7	Sololá	702	San José Chacayá	5	Chacayá	5	Mayo	2023-01-05T00:00:00	2024-11-06T18:00:00	8	Radiación solar	220
93265	7	Sololá	702	San José Chacayá	5	Chacayá	5	Mayo	2023-01-05T00:00:00	2024-11-06T19:00:00	2	Temperatura media	17.5
93266	7	Sololá	702	San José Chacayá	5	Chacayá	5	Mayo	2023-01-05T00:00:00	2024-11-06T19:00:00	4	Temperatura máxima	17.8
93267	7	Sololá	702	San José Chacayá	5	Chacayá	5	Mayo	2023-01-05T00:00:00	2024-11-06T19:00:00	3	Temperatura mínima	17.5
93268	7	Sololá	702	San José Chacayá	5	Chacayá	5	Mayo	2023-01-05T00:00:00	2024-11-06T19:00:00	5	Humedad	82
93269	7	Sololá	702	San José Chacayá	5	Chacayá	5	Mayo	2023-01-05T00:00:00	2024-11-06T19:00:00	6	Velocidad del viento	1.6
93270	7	Sololá	702	San José Chacayá	5	Chacayá	5	Mayo	2023-01-05T00:00:00	2024-11-06T19:00:00	7	Dirección del viento	1.61
93271	7	Sololá	702	San José Chacayá	5	Chacayá	5	Mayo	2023-01-05T00:00:00	2024-11-06T19:00:00	1	Precipitación	0
93272	7	Sololá	702	San José Chacayá	5	Chacayá	5	Mayo	2023-01-05T00:00:00	2024-11-06T19:00:00	8	Radiación solar	0
93273	7	Sololá	702	San José Chacayá	5	Chacayá	5	Mayo	2023-01-05T00:00:00	2024-11-06T20:00:00	2	Temperatura media	16.7
93274	7	Sololá	702	San José Chacayá	5	Chacayá	5	Mayo	2023-01-05T00:00:00	2024-11-06T20:00:00	4	Temperatura máxima	17.5
93275	7	Sololá	702	San José Chacayá	5	Chacayá	5	Mayo	2023-01-05T00:00:00	2024-11-06T20:00:00	3	Temperatura mínima	16.5
93276	7	Sololá	702	San José Chacayá	5	Chacayá	5	Mayo	2023-01-05T00:00:00	2024-11-06T20:00:00	5	Humedad	76
93277	7	Sololá	702	San José Chacayá	5	Chacayá	5	Mayo	2023-01-05T00:00:00	2024-11-06T20:00:00	6	Velocidad del viento	1.6
93278	7	Sololá	702	San José Chacayá	5	Chacayá	5	Mayo	2023-01-05T00:00:00	2024-11-06T20:00:00	7	Dirección del viento	1.61
93279	7	Sololá	702	San José Chacayá	5	Chacayá	5	Mayo	2023-01-05T00:00:00	2024-11-06T20:00:00	1	Precipitación	0
93280	7	Sololá	702	San José Chacayá	5	Chacayá	5	Mayo	2023-01-05T00:00:00	2024-11-06T20:00:00	8	Radiación solar	0
93281	7	Sololá	702	San José Chacayá	5	Chacayá	5	Mayo	2023-01-05T00:00:00	2024-11-06T21:00:00	2	Temperatura media	16.5
93282	7	Sololá	702	San José Chacayá	5	Chacayá	5	Mayo	2023-01-05T00:00:00	2024-11-06T21:00:00	4	Temperatura máxima	16.8
93283	7	Sololá	702	San José Chacayá	5	Chacayá	5	Mayo	2023-01-05T00:00:00	2024-11-06T21:00:00	3	Temperatura mínima	16.4
93284	7	Sololá	702	San José Chacayá	5	Chacayá	5	Mayo	2023-01-05T00:00:00	2024-11-06T21:00:00	5	Humedad	74
93285	7	Sololá	702	San José Chacayá	5	Chacayá	5	Mayo	2023-01-05T00:00:00	2024-11-06T21:00:00	6	Velocidad del viento	1.6
93286	7	Sololá	702	San José Chacayá	5	Chacayá	5	Mayo	2023-01-05T00:00:00	2024-11-06T21:00:00	7	Dirección del viento	1.61
93287	7	Sololá	702	San José Chacayá	5	Chacayá	5	Mayo	2023-01-05T00:00:00	2024-11-06T21:00:00	1	Precipitación	0
93288	7	Sololá	702	San José Chacayá	5	Chacayá	5	Mayo	2023-01-05T00:00:00	2024-11-06T21:00:00	8	Radiación solar	0
93289	7	Sololá	702	San José Chacayá	5	Chacayá	5	Mayo	2023-01-05T00:00:00	2024-11-06T22:00:00	2	Temperatura media	14.2
93290	7	Sololá	702	San José Chacayá	5	Chacayá	5	Mayo	2023-01-05T00:00:00	2024-11-06T22:00:00	4	Temperatura máxima	16.6
93291	7	Sololá	702	San José Chacayá	5	Chacayá	5	Mayo	2023-01-05T00:00:00	2024-11-06T22:00:00	3	Temperatura mínima	14.2
93292	7	Sololá	702	San José Chacayá	5	Chacayá	5	Mayo	2023-01-05T00:00:00	2024-11-06T22:00:00	5	Humedad	80
93293	7	Sololá	702	San José Chacayá	5	Chacayá	5	Mayo	2023-01-05T00:00:00	2024-11-06T22:00:00	6	Velocidad del viento	1.6
93294	7	Sololá	702	San José Chacayá	5	Chacayá	5	Mayo	2023-01-05T00:00:00	2024-11-06T22:00:00	7	Dirección del viento	1.61
93295	7	Sololá	702	San José Chacayá	5	Chacayá	5	Mayo	2023-01-05T00:00:00	2024-11-06T22:00:00	1	Precipitación	17.8
93296	7	Sololá	702	San José Chacayá	5	Chacayá	5	Mayo	2023-01-05T00:00:00	2024-11-06T22:00:00	8	Radiación solar	0
93297	7	Sololá	702	San José Chacayá	5	Chacayá	5	Mayo	2023-01-05T00:00:00	2024-11-06T23:00:00	2	Temperatura media	12.9
93298	7	Sololá	702	San José Chacayá	5	Chacayá	5	Mayo	2023-01-05T00:00:00	2024-11-06T23:00:00	4	Temperatura máxima	14.3
93299	7	Sololá	702	San José Chacayá	5	Chacayá	5	Mayo	2023-01-05T00:00:00	2024-11-06T23:00:00	3	Temperatura mínima	12.9
93300	7	Sololá	702	San José Chacayá	5	Chacayá	5	Mayo	2023-01-05T00:00:00	2024-11-06T23:00:00	5	Humedad	79
93301	7	Sololá	702	San José Chacayá	5	Chacayá	5	Mayo	2023-01-05T00:00:00	2024-11-06T23:00:00	6	Velocidad del viento	1.6
93302	7	Sololá	702	San José Chacayá	5	Chacayá	5	Mayo	2023-01-05T00:00:00	2024-11-06T23:00:00	7	Dirección del viento	1.61
93303	7	Sololá	702	San José Chacayá	5	Chacayá	5	Mayo	2023-01-05T00:00:00	2024-11-06T23:00:00	1	Precipitación	0.6
93304	7	Sololá	702	San José Chacayá	5	Chacayá	5	Mayo	2023-01-05T00:00:00	2024-11-06T23:00:00	8	Radiación solar	0
93305	7	Sololá	702	San José Chacayá	5	Chacayá	5	Mayo	2023-02-05T00:00:00	2024-11-06T00:00:00	2	Temperatura media	12.4
93306	7	Sololá	702	San José Chacayá	5	Chacayá	5	Mayo	2023-02-05T00:00:00	2024-11-06T00:00:00	4	Temperatura máxima	12.9
93307	7	Sololá	702	San José Chacayá	5	Chacayá	5	Mayo	2023-02-05T00:00:00	2024-11-06T00:00:00	3	Temperatura mínima	12.4
93308	7	Sololá	702	San José Chacayá	5	Chacayá	5	Mayo	2023-02-05T00:00:00	2024-11-06T00:00:00	5	Humedad	76
93309	7	Sololá	702	San José Chacayá	5	Chacayá	5	Mayo	2023-02-05T00:00:00	2024-11-06T00:00:00	6	Velocidad del viento	1.6
93310	7	Sololá	702	San José Chacayá	5	Chacayá	5	Mayo	2023-02-05T00:00:00	2024-11-06T00:00:00	7	Dirección del viento	1.61
93311	7	Sololá	702	San José Chacayá	5	Chacayá	5	Mayo	2023-02-05T00:00:00	2024-11-06T00:00:00	1	Precipitación	0
93312	7	Sololá	702	San José Chacayá	5	Chacayá	5	Mayo	2023-02-05T00:00:00	2024-11-06T00:00:00	8	Radiación solar	0
93313	7	Sololá	702	San José Chacayá	5	Chacayá	5	Mayo	2023-02-05T00:00:00	2024-11-06T01:00:00	2	Temperatura media	11.9
93314	7	Sololá	702	San José Chacayá	5	Chacayá	5	Mayo	2023-02-05T00:00:00	2024-11-06T01:00:00	4	Temperatura máxima	12.4
93315	7	Sololá	702	San José Chacayá	5	Chacayá	5	Mayo	2023-02-05T00:00:00	2024-11-06T01:00:00	3	Temperatura mínima	11.8
93316	7	Sololá	702	San José Chacayá	5	Chacayá	5	Mayo	2023-02-05T00:00:00	2024-11-06T01:00:00	5	Humedad	78
93317	7	Sololá	702	San José Chacayá	5	Chacayá	5	Mayo	2023-02-05T00:00:00	2024-11-06T01:00:00	6	Velocidad del viento	4.8
93318	7	Sololá	702	San José Chacayá	5	Chacayá	5	Mayo	2023-02-05T00:00:00	2024-11-06T01:00:00	7	Dirección del viento	4.83
93319	7	Sololá	702	San José Chacayá	5	Chacayá	5	Mayo	2023-02-05T00:00:00	2024-11-06T01:00:00	1	Precipitación	0
93320	7	Sololá	702	San José Chacayá	5	Chacayá	5	Mayo	2023-02-05T00:00:00	2024-11-06T01:00:00	8	Radiación solar	0
93321	7	Sololá	702	San José Chacayá	5	Chacayá	5	Mayo	2023-02-05T00:00:00	2024-11-06T02:00:00	2	Temperatura media	11.9
93322	7	Sololá	702	San José Chacayá	5	Chacayá	5	Mayo	2023-02-05T00:00:00	2024-11-06T02:00:00	4	Temperatura máxima	12.1
93323	7	Sololá	702	San José Chacayá	5	Chacayá	5	Mayo	2023-02-05T00:00:00	2024-11-06T02:00:00	3	Temperatura mínima	11.8
93324	7	Sololá	702	San José Chacayá	5	Chacayá	5	Mayo	2023-02-05T00:00:00	2024-11-06T02:00:00	5	Humedad	77
93325	7	Sololá	702	San José Chacayá	5	Chacayá	5	Mayo	2023-02-05T00:00:00	2024-11-06T02:00:00	6	Velocidad del viento	4.8
93326	7	Sololá	702	San José Chacayá	5	Chacayá	5	Mayo	2023-02-05T00:00:00	2024-11-06T02:00:00	7	Dirección del viento	4.83
93327	7	Sololá	702	San José Chacayá	5	Chacayá	5	Mayo	2023-02-05T00:00:00	2024-11-06T02:00:00	1	Precipitación	0
93328	7	Sololá	702	San José Chacayá	5	Chacayá	5	Mayo	2023-02-05T00:00:00	2024-11-06T02:00:00	8	Radiación solar	0
93329	7	Sololá	702	San José Chacayá	5	Chacayá	5	Mayo	2023-02-05T00:00:00	2024-11-06T03:00:00	2	Temperatura media	12.4
93330	7	Sololá	702	San José Chacayá	5	Chacayá	5	Mayo	2023-02-05T00:00:00	2024-11-06T03:00:00	4	Temperatura máxima	12.5
93331	7	Sololá	702	San José Chacayá	5	Chacayá	5	Mayo	2023-02-05T00:00:00	2024-11-06T03:00:00	3	Temperatura mínima	11.9
93332	7	Sololá	702	San José Chacayá	5	Chacayá	5	Mayo	2023-02-05T00:00:00	2024-11-06T03:00:00	5	Humedad	76
93333	7	Sololá	702	San José Chacayá	5	Chacayá	5	Mayo	2023-02-05T00:00:00	2024-11-06T03:00:00	6	Velocidad del viento	3.2
93334	7	Sololá	702	San José Chacayá	5	Chacayá	5	Mayo	2023-02-05T00:00:00	2024-11-06T03:00:00	7	Dirección del viento	3.22
93335	7	Sololá	702	San José Chacayá	5	Chacayá	5	Mayo	2023-02-05T00:00:00	2024-11-06T03:00:00	1	Precipitación	0
93336	7	Sololá	702	San José Chacayá	5	Chacayá	5	Mayo	2023-02-05T00:00:00	2024-11-06T03:00:00	8	Radiación solar	0
93337	7	Sololá	702	San José Chacayá	5	Chacayá	5	Mayo	2023-02-05T00:00:00	2024-11-06T04:00:00	2	Temperatura media	12.1
93338	7	Sololá	702	San José Chacayá	5	Chacayá	5	Mayo	2023-02-05T00:00:00	2024-11-06T04:00:00	4	Temperatura máxima	12.4
93339	7	Sololá	702	San José Chacayá	5	Chacayá	5	Mayo	2023-02-05T00:00:00	2024-11-06T04:00:00	3	Temperatura mínima	12.1
93340	7	Sololá	702	San José Chacayá	5	Chacayá	5	Mayo	2023-02-05T00:00:00	2024-11-06T04:00:00	5	Humedad	75
93341	7	Sololá	702	San José Chacayá	5	Chacayá	5	Mayo	2023-02-05T00:00:00	2024-11-06T04:00:00	6	Velocidad del viento	3.2
93342	7	Sololá	702	San José Chacayá	5	Chacayá	5	Mayo	2023-02-05T00:00:00	2024-11-06T04:00:00	7	Dirección del viento	3.22
93343	7	Sololá	702	San José Chacayá	5	Chacayá	5	Mayo	2023-02-05T00:00:00	2024-11-06T04:00:00	1	Precipitación	0
93344	7	Sololá	702	San José Chacayá	5	Chacayá	5	Mayo	2023-02-05T00:00:00	2024-11-06T04:00:00	8	Radiación solar	0
93345	7	Sololá	702	San José Chacayá	5	Chacayá	5	Mayo	2023-02-05T00:00:00	2024-11-06T05:00:00	2	Temperatura media	11.9
93346	7	Sololá	702	San José Chacayá	5	Chacayá	5	Mayo	2023-02-05T00:00:00	2024-11-06T05:00:00	4	Temperatura máxima	12.2
93347	7	Sololá	702	San José Chacayá	5	Chacayá	5	Mayo	2023-02-05T00:00:00	2024-11-06T05:00:00	3	Temperatura mínima	11.9
93348	7	Sololá	702	San José Chacayá	5	Chacayá	5	Mayo	2023-02-05T00:00:00	2024-11-06T05:00:00	5	Humedad	70
93349	7	Sololá	702	San José Chacayá	5	Chacayá	5	Mayo	2023-02-05T00:00:00	2024-11-06T05:00:00	6	Velocidad del viento	1.6
93350	7	Sololá	702	San José Chacayá	5	Chacayá	5	Mayo	2023-02-05T00:00:00	2024-11-06T05:00:00	7	Dirección del viento	1.61
93351	7	Sololá	702	San José Chacayá	5	Chacayá	5	Mayo	2023-02-05T00:00:00	2024-11-06T05:00:00	1	Precipitación	0
93352	7	Sololá	702	San José Chacayá	5	Chacayá	5	Mayo	2023-02-05T00:00:00	2024-11-06T05:00:00	8	Radiación solar	0
93353	7	Sololá	702	San José Chacayá	5	Chacayá	5	Mayo	2023-02-05T00:00:00	2024-11-06T06:00:00	2	Temperatura media	11.6
93354	7	Sololá	702	San José Chacayá	5	Chacayá	5	Mayo	2023-02-05T00:00:00	2024-11-06T06:00:00	4	Temperatura máxima	12
93355	7	Sololá	702	San José Chacayá	5	Chacayá	5	Mayo	2023-02-05T00:00:00	2024-11-06T06:00:00	3	Temperatura mínima	11.6
93356	7	Sololá	702	San José Chacayá	5	Chacayá	5	Mayo	2023-02-05T00:00:00	2024-11-06T06:00:00	5	Humedad	74
93357	7	Sololá	702	San José Chacayá	5	Chacayá	5	Mayo	2023-02-05T00:00:00	2024-11-06T06:00:00	6	Velocidad del viento	3.2
93358	7	Sololá	702	San José Chacayá	5	Chacayá	5	Mayo	2023-02-05T00:00:00	2024-11-06T06:00:00	7	Dirección del viento	3.22
93359	7	Sololá	702	San José Chacayá	5	Chacayá	5	Mayo	2023-02-05T00:00:00	2024-11-06T06:00:00	1	Precipitación	0
93360	7	Sololá	702	San José Chacayá	5	Chacayá	5	Mayo	2023-02-05T00:00:00	2024-11-06T06:00:00	8	Radiación solar	0
93361	7	Sololá	702	San José Chacayá	5	Chacayá	5	Mayo	2023-02-05T00:00:00	2024-11-06T07:00:00	2	Temperatura media	11.5
93362	7	Sololá	702	San José Chacayá	5	Chacayá	5	Mayo	2023-02-05T00:00:00	2024-11-06T07:00:00	4	Temperatura máxima	11.6
93363	7	Sololá	702	San José Chacayá	5	Chacayá	5	Mayo	2023-02-05T00:00:00	2024-11-06T07:00:00	3	Temperatura mínima	11.3
93364	7	Sololá	702	San José Chacayá	5	Chacayá	5	Mayo	2023-02-05T00:00:00	2024-11-06T07:00:00	5	Humedad	75
93365	7	Sololá	702	San José Chacayá	5	Chacayá	5	Mayo	2023-02-05T00:00:00	2024-11-06T07:00:00	6	Velocidad del viento	4.8
93366	7	Sololá	702	San José Chacayá	5	Chacayá	5	Mayo	2023-02-05T00:00:00	2024-11-06T07:00:00	7	Dirección del viento	4.83
93367	7	Sololá	702	San José Chacayá	5	Chacayá	5	Mayo	2023-02-05T00:00:00	2024-11-06T07:00:00	1	Precipitación	0
93368	7	Sololá	702	San José Chacayá	5	Chacayá	5	Mayo	2023-02-05T00:00:00	2024-11-06T07:00:00	8	Radiación solar	4
93369	7	Sololá	702	San José Chacayá	5	Chacayá	5	Mayo	2023-02-05T00:00:00	2024-11-06T08:00:00	2	Temperatura media	12.8
93370	7	Sololá	702	San José Chacayá	5	Chacayá	5	Mayo	2023-02-05T00:00:00	2024-11-06T08:00:00	4	Temperatura máxima	12.8
93371	7	Sololá	702	San José Chacayá	5	Chacayá	5	Mayo	2023-02-05T00:00:00	2024-11-06T08:00:00	3	Temperatura mínima	11.4
93372	7	Sololá	702	San José Chacayá	5	Chacayá	5	Mayo	2023-02-05T00:00:00	2024-11-06T08:00:00	5	Humedad	73
93373	7	Sololá	702	San José Chacayá	5	Chacayá	5	Mayo	2023-02-05T00:00:00	2024-11-06T08:00:00	6	Velocidad del viento	1.6
93374	7	Sololá	702	San José Chacayá	5	Chacayá	5	Mayo	2023-02-05T00:00:00	2024-11-06T08:00:00	7	Dirección del viento	1.61
93375	7	Sololá	702	San José Chacayá	5	Chacayá	5	Mayo	2023-02-05T00:00:00	2024-11-06T08:00:00	1	Precipitación	0
93376	7	Sololá	702	San José Chacayá	5	Chacayá	5	Mayo	2023-02-05T00:00:00	2024-11-06T08:00:00	8	Radiación solar	61
93377	7	Sololá	702	San José Chacayá	5	Chacayá	5	Mayo	2023-02-05T00:00:00	2024-11-06T09:00:00	2	Temperatura media	15.9
93378	7	Sololá	702	San José Chacayá	5	Chacayá	5	Mayo	2023-02-05T00:00:00	2024-11-06T09:00:00	4	Temperatura máxima	15.9
93379	7	Sololá	702	San José Chacayá	5	Chacayá	5	Mayo	2023-02-05T00:00:00	2024-11-06T09:00:00	3	Temperatura mínima	12.8
93380	7	Sololá	702	San José Chacayá	5	Chacayá	5	Mayo	2023-02-05T00:00:00	2024-11-06T09:00:00	5	Humedad	83
93381	7	Sololá	702	San José Chacayá	5	Chacayá	5	Mayo	2023-02-05T00:00:00	2024-11-06T09:00:00	6	Velocidad del viento	0
93382	7	Sololá	702	San José Chacayá	5	Chacayá	5	Mayo	2023-02-05T00:00:00	2024-11-06T09:00:00	7	Dirección del viento	0
93383	7	Sololá	702	San José Chacayá	5	Chacayá	5	Mayo	2023-02-05T00:00:00	2024-11-06T09:00:00	1	Precipitación	0
93384	7	Sololá	702	San José Chacayá	5	Chacayá	5	Mayo	2023-02-05T00:00:00	2024-11-06T09:00:00	8	Radiación solar	146
93385	7	Sololá	702	San José Chacayá	5	Chacayá	5	Mayo	2023-02-05T00:00:00	2024-11-06T10:00:00	2	Temperatura media	18.8
93386	7	Sololá	702	San José Chacayá	5	Chacayá	5	Mayo	2023-02-05T00:00:00	2024-11-06T10:00:00	4	Temperatura máxima	18.8
93387	7	Sololá	702	San José Chacayá	5	Chacayá	5	Mayo	2023-02-05T00:00:00	2024-11-06T10:00:00	3	Temperatura mínima	15.9
93388	7	Sololá	702	San José Chacayá	5	Chacayá	5	Mayo	2023-02-05T00:00:00	2024-11-06T10:00:00	5	Humedad	76
93389	7	Sololá	702	San José Chacayá	5	Chacayá	5	Mayo	2023-02-05T00:00:00	2024-11-06T10:00:00	6	Velocidad del viento	1.6
93390	7	Sololá	702	San José Chacayá	5	Chacayá	5	Mayo	2023-02-05T00:00:00	2024-11-06T10:00:00	7	Dirección del viento	1.61
93391	7	Sololá	702	San José Chacayá	5	Chacayá	5	Mayo	2023-02-05T00:00:00	2024-11-06T10:00:00	1	Precipitación	0
93392	7	Sololá	702	San José Chacayá	5	Chacayá	5	Mayo	2023-02-05T00:00:00	2024-11-06T10:00:00	8	Radiación solar	443
93393	7	Sololá	702	San José Chacayá	5	Chacayá	5	Mayo	2023-02-05T00:00:00	2024-11-06T11:00:00	2	Temperatura media	20.9
93394	7	Sololá	702	San José Chacayá	5	Chacayá	5	Mayo	2023-02-05T00:00:00	2024-11-06T11:00:00	4	Temperatura máxima	20.9
93395	7	Sololá	702	San José Chacayá	5	Chacayá	5	Mayo	2023-02-05T00:00:00	2024-11-06T11:00:00	3	Temperatura mínima	18.8
93396	7	Sololá	702	San José Chacayá	5	Chacayá	5	Mayo	2023-02-05T00:00:00	2024-11-06T11:00:00	5	Humedad	70
93397	7	Sololá	702	San José Chacayá	5	Chacayá	5	Mayo	2023-02-05T00:00:00	2024-11-06T11:00:00	6	Velocidad del viento	4.8
93398	7	Sololá	702	San José Chacayá	5	Chacayá	5	Mayo	2023-02-05T00:00:00	2024-11-06T11:00:00	7	Dirección del viento	4.83
93399	7	Sololá	702	San José Chacayá	5	Chacayá	5	Mayo	2023-02-05T00:00:00	2024-11-06T11:00:00	1	Precipitación	0.2
93400	7	Sololá	702	San José Chacayá	5	Chacayá	5	Mayo	2023-02-05T00:00:00	2024-11-06T11:00:00	8	Radiación solar	769
93401	7	Sololá	702	San José Chacayá	5	Chacayá	5	Mayo	2023-02-05T00:00:00	2024-11-06T12:00:00	2	Temperatura media	21.8
93402	7	Sololá	702	San José Chacayá	5	Chacayá	5	Mayo	2023-02-05T00:00:00	2024-11-06T12:00:00	4	Temperatura máxima	21.8
93403	7	Sololá	702	San José Chacayá	5	Chacayá	5	Mayo	2023-02-05T00:00:00	2024-11-06T12:00:00	3	Temperatura mínima	20.8
93404	7	Sololá	702	San José Chacayá	5	Chacayá	5	Mayo	2023-02-05T00:00:00	2024-11-06T12:00:00	5	Humedad	69
93405	7	Sololá	702	San José Chacayá	5	Chacayá	5	Mayo	2023-02-05T00:00:00	2024-11-06T12:00:00	6	Velocidad del viento	4.8
93406	7	Sololá	702	San José Chacayá	5	Chacayá	5	Mayo	2023-02-05T00:00:00	2024-11-06T12:00:00	7	Dirección del viento	4.83
93407	7	Sololá	702	San José Chacayá	5	Chacayá	5	Mayo	2023-02-05T00:00:00	2024-11-06T12:00:00	1	Precipitación	0
93408	7	Sololá	702	San José Chacayá	5	Chacayá	5	Mayo	2023-02-05T00:00:00	2024-11-06T12:00:00	8	Radiación solar	890
93409	7	Sololá	702	San José Chacayá	5	Chacayá	5	Mayo	2023-02-05T00:00:00	2024-11-06T13:00:00	2	Temperatura media	18.7
93410	7	Sololá	702	San José Chacayá	5	Chacayá	5	Mayo	2023-02-05T00:00:00	2024-11-06T13:00:00	4	Temperatura máxima	21.9
93411	7	Sololá	702	San José Chacayá	5	Chacayá	5	Mayo	2023-02-05T00:00:00	2024-11-06T13:00:00	3	Temperatura mínima	18.7
93412	7	Sololá	702	San José Chacayá	5	Chacayá	5	Mayo	2023-02-05T00:00:00	2024-11-06T13:00:00	5	Humedad	81
93413	7	Sololá	702	San José Chacayá	5	Chacayá	5	Mayo	2023-02-05T00:00:00	2024-11-06T13:00:00	6	Velocidad del viento	8
93414	7	Sololá	702	San José Chacayá	5	Chacayá	5	Mayo	2023-02-05T00:00:00	2024-11-06T13:00:00	7	Dirección del viento	8.05
93415	7	Sololá	702	San José Chacayá	5	Chacayá	5	Mayo	2023-02-05T00:00:00	2024-11-06T13:00:00	1	Precipitación	0
93416	7	Sololá	702	San José Chacayá	5	Chacayá	5	Mayo	2023-02-05T00:00:00	2024-11-06T13:00:00	8	Radiación solar	546
93417	7	Sololá	702	San José Chacayá	5	Chacayá	5	Mayo	2023-02-05T00:00:00	2024-11-06T14:00:00	2	Temperatura media	21.2
93418	7	Sololá	702	San José Chacayá	5	Chacayá	5	Mayo	2023-02-05T00:00:00	2024-11-06T14:00:00	4	Temperatura máxima	21.3
93419	7	Sololá	702	San José Chacayá	5	Chacayá	5	Mayo	2023-02-05T00:00:00	2024-11-06T14:00:00	3	Temperatura mínima	18.4
93420	7	Sololá	702	San José Chacayá	5	Chacayá	5	Mayo	2023-02-05T00:00:00	2024-11-06T14:00:00	5	Humedad	76
93421	7	Sololá	702	San José Chacayá	5	Chacayá	5	Mayo	2023-02-05T00:00:00	2024-11-06T14:00:00	6	Velocidad del viento	6.4
93422	7	Sololá	702	San José Chacayá	5	Chacayá	5	Mayo	2023-02-05T00:00:00	2024-11-06T14:00:00	7	Dirección del viento	6.44
93423	7	Sololá	702	San José Chacayá	5	Chacayá	5	Mayo	2023-02-05T00:00:00	2024-11-06T14:00:00	1	Precipitación	0
93424	7	Sololá	702	San José Chacayá	5	Chacayá	5	Mayo	2023-02-05T00:00:00	2024-11-06T14:00:00	8	Radiación solar	821
93425	7	Sololá	702	San José Chacayá	5	Chacayá	5	Mayo	2023-02-05T00:00:00	2024-11-06T15:00:00	2	Temperatura media	19.7
93426	7	Sololá	702	San José Chacayá	5	Chacayá	5	Mayo	2023-02-05T00:00:00	2024-11-06T15:00:00	4	Temperatura máxima	21.2
93427	7	Sololá	702	San José Chacayá	5	Chacayá	5	Mayo	2023-02-05T00:00:00	2024-11-06T15:00:00	3	Temperatura mínima	19.7
93428	7	Sololá	702	San José Chacayá	5	Chacayá	5	Mayo	2023-02-05T00:00:00	2024-11-06T15:00:00	5	Humedad	79
93429	7	Sololá	702	San José Chacayá	5	Chacayá	5	Mayo	2023-02-05T00:00:00	2024-11-06T15:00:00	6	Velocidad del viento	8
93430	7	Sololá	702	San José Chacayá	5	Chacayá	5	Mayo	2023-02-05T00:00:00	2024-11-06T15:00:00	7	Dirección del viento	8.05
93431	7	Sololá	702	San José Chacayá	5	Chacayá	5	Mayo	2023-02-05T00:00:00	2024-11-06T15:00:00	1	Precipitación	0
93432	7	Sololá	702	San José Chacayá	5	Chacayá	5	Mayo	2023-02-05T00:00:00	2024-11-06T15:00:00	8	Radiación solar	779
93433	7	Sololá	702	San José Chacayá	5	Chacayá	5	Mayo	2023-02-05T00:00:00	2024-11-06T16:00:00	2	Temperatura media	17.9
93434	7	Sololá	702	San José Chacayá	5	Chacayá	5	Mayo	2023-02-05T00:00:00	2024-11-06T16:00:00	4	Temperatura máxima	19.9
93435	7	Sololá	702	San José Chacayá	5	Chacayá	5	Mayo	2023-02-05T00:00:00	2024-11-06T16:00:00	3	Temperatura mínima	17.9
93436	7	Sololá	702	San José Chacayá	5	Chacayá	5	Mayo	2023-02-05T00:00:00	2024-11-06T16:00:00	5	Humedad	83
93437	7	Sololá	702	San José Chacayá	5	Chacayá	5	Mayo	2023-02-05T00:00:00	2024-11-06T16:00:00	6	Velocidad del viento	4.8
93438	7	Sololá	702	San José Chacayá	5	Chacayá	5	Mayo	2023-02-05T00:00:00	2024-11-06T16:00:00	7	Dirección del viento	4.83
93439	7	Sololá	702	San José Chacayá	5	Chacayá	5	Mayo	2023-02-05T00:00:00	2024-11-06T16:00:00	1	Precipitación	0
93440	7	Sololá	702	San José Chacayá	5	Chacayá	5	Mayo	2023-02-05T00:00:00	2024-11-06T16:00:00	8	Radiación solar	242
93441	7	Sololá	702	San José Chacayá	5	Chacayá	5	Mayo	2023-02-05T00:00:00	2024-11-06T17:00:00	2	Temperatura media	16.7
93442	7	Sololá	702	San José Chacayá	5	Chacayá	5	Mayo	2023-02-05T00:00:00	2024-11-06T17:00:00	4	Temperatura máxima	17.9
93443	7	Sololá	702	San José Chacayá	5	Chacayá	5	Mayo	2023-02-05T00:00:00	2024-11-06T17:00:00	3	Temperatura mínima	16.7
93444	7	Sololá	702	San José Chacayá	5	Chacayá	5	Mayo	2023-02-05T00:00:00	2024-11-06T17:00:00	5	Humedad	76
93445	7	Sololá	702	San José Chacayá	5	Chacayá	5	Mayo	2023-02-05T00:00:00	2024-11-06T17:00:00	6	Velocidad del viento	3.2
93446	7	Sololá	702	San José Chacayá	5	Chacayá	5	Mayo	2023-02-05T00:00:00	2024-11-06T17:00:00	7	Dirección del viento	3.22
93447	7	Sololá	702	San José Chacayá	5	Chacayá	5	Mayo	2023-02-05T00:00:00	2024-11-06T17:00:00	1	Precipitación	2.4
93448	7	Sololá	702	San José Chacayá	5	Chacayá	5	Mayo	2023-02-05T00:00:00	2024-11-06T17:00:00	8	Radiación solar	21
93449	7	Sololá	702	San José Chacayá	5	Chacayá	5	Mayo	2023-02-05T00:00:00	2024-11-06T18:00:00	2	Temperatura media	14.5
93450	7	Sololá	702	San José Chacayá	5	Chacayá	5	Mayo	2023-02-05T00:00:00	2024-11-06T18:00:00	4	Temperatura máxima	16.7
93451	7	Sololá	702	San José Chacayá	5	Chacayá	5	Mayo	2023-02-05T00:00:00	2024-11-06T18:00:00	3	Temperatura mínima	14.5
93452	7	Sololá	702	San José Chacayá	5	Chacayá	5	Mayo	2023-02-05T00:00:00	2024-11-06T18:00:00	5	Humedad	77
93453	7	Sololá	702	San José Chacayá	5	Chacayá	5	Mayo	2023-02-05T00:00:00	2024-11-06T18:00:00	6	Velocidad del viento	8
93454	7	Sololá	702	San José Chacayá	5	Chacayá	5	Mayo	2023-02-05T00:00:00	2024-11-06T18:00:00	7	Dirección del viento	8.05
93455	7	Sololá	702	San José Chacayá	5	Chacayá	5	Mayo	2023-02-05T00:00:00	2024-11-06T18:00:00	1	Precipitación	17.6
93456	7	Sololá	702	San José Chacayá	5	Chacayá	5	Mayo	2023-02-05T00:00:00	2024-11-06T18:00:00	8	Radiación solar	0
93457	7	Sololá	702	San José Chacayá	5	Chacayá	5	Mayo	2023-02-05T00:00:00	2024-11-06T19:00:00	2	Temperatura media	14.5
93458	7	Sololá	702	San José Chacayá	5	Chacayá	5	Mayo	2023-02-05T00:00:00	2024-11-06T19:00:00	4	Temperatura máxima	14.6
93459	7	Sololá	702	San José Chacayá	5	Chacayá	5	Mayo	2023-02-05T00:00:00	2024-11-06T19:00:00	3	Temperatura mínima	14.4
93460	7	Sololá	702	San José Chacayá	5	Chacayá	5	Mayo	2023-02-05T00:00:00	2024-11-06T19:00:00	5	Humedad	65
93461	7	Sololá	702	San José Chacayá	5	Chacayá	5	Mayo	2023-02-05T00:00:00	2024-11-06T19:00:00	6	Velocidad del viento	1.6
93462	7	Sololá	702	San José Chacayá	5	Chacayá	5	Mayo	2023-02-05T00:00:00	2024-11-06T19:00:00	7	Dirección del viento	1.61
93463	7	Sololá	702	San José Chacayá	5	Chacayá	5	Mayo	2023-02-05T00:00:00	2024-11-06T19:00:00	1	Precipitación	2.8
93464	7	Sololá	702	San José Chacayá	5	Chacayá	5	Mayo	2023-02-05T00:00:00	2024-11-06T19:00:00	8	Radiación solar	0
93465	7	Sololá	702	San José Chacayá	5	Chacayá	5	Mayo	2023-02-05T00:00:00	2024-11-06T20:00:00	2	Temperatura media	13.8
93466	7	Sololá	702	San José Chacayá	5	Chacayá	5	Mayo	2023-02-05T00:00:00	2024-11-06T20:00:00	4	Temperatura máxima	14.5
93467	7	Sololá	702	San José Chacayá	5	Chacayá	5	Mayo	2023-02-05T00:00:00	2024-11-06T20:00:00	3	Temperatura mínima	13.8
93468	7	Sololá	702	San José Chacayá	5	Chacayá	5	Mayo	2023-02-05T00:00:00	2024-11-06T20:00:00	5	Humedad	77
93469	7	Sololá	702	San José Chacayá	5	Chacayá	5	Mayo	2023-02-05T00:00:00	2024-11-06T20:00:00	6	Velocidad del viento	3.2
93470	7	Sololá	702	San José Chacayá	5	Chacayá	5	Mayo	2023-02-05T00:00:00	2024-11-06T20:00:00	7	Dirección del viento	3.22
93471	7	Sololá	702	San José Chacayá	5	Chacayá	5	Mayo	2023-02-05T00:00:00	2024-11-06T20:00:00	1	Precipitación	2
93472	7	Sololá	702	San José Chacayá	5	Chacayá	5	Mayo	2023-02-05T00:00:00	2024-11-06T20:00:00	8	Radiación solar	0
93473	7	Sololá	702	San José Chacayá	5	Chacayá	5	Mayo	2023-02-05T00:00:00	2024-11-06T21:00:00	2	Temperatura media	13.1
93474	7	Sololá	702	San José Chacayá	5	Chacayá	5	Mayo	2023-02-05T00:00:00	2024-11-06T21:00:00	4	Temperatura máxima	13.8
93475	7	Sololá	702	San José Chacayá	5	Chacayá	5	Mayo	2023-02-05T00:00:00	2024-11-06T21:00:00	3	Temperatura mínima	13.1
93476	7	Sololá	702	San José Chacayá	5	Chacayá	5	Mayo	2023-02-05T00:00:00	2024-11-06T21:00:00	5	Humedad	78
93477	7	Sololá	702	San José Chacayá	5	Chacayá	5	Mayo	2023-02-05T00:00:00	2024-11-06T21:00:00	6	Velocidad del viento	1.6
93478	7	Sololá	702	San José Chacayá	5	Chacayá	5	Mayo	2023-02-05T00:00:00	2024-11-06T21:00:00	7	Dirección del viento	1.61
93479	7	Sololá	702	San José Chacayá	5	Chacayá	5	Mayo	2023-02-05T00:00:00	2024-11-06T21:00:00	1	Precipitación	0
93480	7	Sololá	702	San José Chacayá	5	Chacayá	5	Mayo	2023-02-05T00:00:00	2024-11-06T21:00:00	8	Radiación solar	0
93481	7	Sololá	702	San José Chacayá	5	Chacayá	5	Mayo	2023-02-05T00:00:00	2024-11-06T22:00:00	2	Temperatura media	12.6
93482	7	Sololá	702	San José Chacayá	5	Chacayá	5	Mayo	2023-02-05T00:00:00	2024-11-06T22:00:00	4	Temperatura máxima	13.1
93483	7	Sololá	702	San José Chacayá	5	Chacayá	5	Mayo	2023-02-05T00:00:00	2024-11-06T22:00:00	3	Temperatura mínima	12.6
93484	7	Sololá	702	San José Chacayá	5	Chacayá	5	Mayo	2023-02-05T00:00:00	2024-11-06T22:00:00	5	Humedad	82
93485	7	Sololá	702	San José Chacayá	5	Chacayá	5	Mayo	2023-02-05T00:00:00	2024-11-06T22:00:00	6	Velocidad del viento	3.2
93486	7	Sololá	702	San José Chacayá	5	Chacayá	5	Mayo	2023-02-05T00:00:00	2024-11-06T22:00:00	7	Dirección del viento	3.22
93487	7	Sololá	702	San José Chacayá	5	Chacayá	5	Mayo	2023-02-05T00:00:00	2024-11-06T22:00:00	1	Precipitación	0
93488	7	Sololá	702	San José Chacayá	5	Chacayá	5	Mayo	2023-02-05T00:00:00	2024-11-06T22:00:00	8	Radiación solar	0
93489	7	Sololá	702	San José Chacayá	5	Chacayá	5	Mayo	2023-02-05T00:00:00	2024-11-06T23:00:00	2	Temperatura media	12
93490	7	Sololá	702	San José Chacayá	5	Chacayá	5	Mayo	2023-02-05T00:00:00	2024-11-06T23:00:00	4	Temperatura máxima	12.6
93491	7	Sololá	702	San José Chacayá	5	Chacayá	5	Mayo	2023-02-05T00:00:00	2024-11-06T23:00:00	3	Temperatura mínima	12
93492	7	Sololá	702	San José Chacayá	5	Chacayá	5	Mayo	2023-02-05T00:00:00	2024-11-06T23:00:00	5	Humedad	83
93493	7	Sololá	702	San José Chacayá	5	Chacayá	5	Mayo	2023-02-05T00:00:00	2024-11-06T23:00:00	6	Velocidad del viento	4.8
93494	7	Sololá	702	San José Chacayá	5	Chacayá	5	Mayo	2023-02-05T00:00:00	2024-11-06T23:00:00	7	Dirección del viento	4.83
93495	7	Sololá	702	San José Chacayá	5	Chacayá	5	Mayo	2023-02-05T00:00:00	2024-11-06T23:00:00	1	Precipitación	0
93496	7	Sololá	702	San José Chacayá	5	Chacayá	5	Mayo	2023-02-05T00:00:00	2024-11-06T23:00:00	8	Radiación solar	0
93497	7	Sololá	702	San José Chacayá	5	Chacayá	5	Mayo	2023-03-05T00:00:00	2024-11-06T00:00:00	2	Temperatura media	11.7
93498	7	Sololá	702	San José Chacayá	5	Chacayá	5	Mayo	2023-03-05T00:00:00	2024-11-06T00:00:00	4	Temperatura máxima	12
93499	7	Sololá	702	San José Chacayá	5	Chacayá	5	Mayo	2023-03-05T00:00:00	2024-11-06T00:00:00	3	Temperatura mínima	11.7
93500	7	Sololá	702	San José Chacayá	5	Chacayá	5	Mayo	2023-03-05T00:00:00	2024-11-06T00:00:00	5	Humedad	82
93501	7	Sololá	702	San José Chacayá	5	Chacayá	5	Mayo	2023-03-05T00:00:00	2024-11-06T00:00:00	6	Velocidad del viento	3.2
93502	7	Sololá	702	San José Chacayá	5	Chacayá	5	Mayo	2023-03-05T00:00:00	2024-11-06T00:00:00	7	Dirección del viento	3.22
93503	7	Sololá	702	San José Chacayá	5	Chacayá	5	Mayo	2023-03-05T00:00:00	2024-11-06T00:00:00	1	Precipitación	0
93504	7	Sololá	702	San José Chacayá	5	Chacayá	5	Mayo	2023-03-05T00:00:00	2024-11-06T00:00:00	8	Radiación solar	0
93505	7	Sololá	702	San José Chacayá	5	Chacayá	5	Mayo	2023-03-05T00:00:00	2024-11-06T01:00:00	2	Temperatura media	12.1
93506	7	Sololá	702	San José Chacayá	5	Chacayá	5	Mayo	2023-03-05T00:00:00	2024-11-06T01:00:00	4	Temperatura máxima	12.1
93507	7	Sololá	702	San José Chacayá	5	Chacayá	5	Mayo	2023-03-05T00:00:00	2024-11-06T01:00:00	3	Temperatura mínima	11.1
93508	7	Sololá	702	San José Chacayá	5	Chacayá	5	Mayo	2023-03-05T00:00:00	2024-11-06T01:00:00	5	Humedad	83
93509	7	Sololá	702	San José Chacayá	5	Chacayá	5	Mayo	2023-03-05T00:00:00	2024-11-06T01:00:00	6	Velocidad del viento	3.2
93510	7	Sololá	702	San José Chacayá	5	Chacayá	5	Mayo	2023-03-05T00:00:00	2024-11-06T01:00:00	7	Dirección del viento	3.22
93511	7	Sololá	702	San José Chacayá	5	Chacayá	5	Mayo	2023-03-05T00:00:00	2024-11-06T01:00:00	1	Precipitación	0
93512	7	Sololá	702	San José Chacayá	5	Chacayá	5	Mayo	2023-03-05T00:00:00	2024-11-06T01:00:00	8	Radiación solar	0
93513	7	Sololá	702	San José Chacayá	5	Chacayá	5	Mayo	2023-03-05T00:00:00	2024-11-06T02:00:00	2	Temperatura media	11.5
93514	7	Sololá	702	San José Chacayá	5	Chacayá	5	Mayo	2023-03-05T00:00:00	2024-11-06T02:00:00	4	Temperatura máxima	12.1
93515	7	Sololá	702	San José Chacayá	5	Chacayá	5	Mayo	2023-03-05T00:00:00	2024-11-06T02:00:00	3	Temperatura mínima	11.3
93516	7	Sololá	702	San José Chacayá	5	Chacayá	5	Mayo	2023-03-05T00:00:00	2024-11-06T02:00:00	5	Humedad	84
93517	7	Sololá	702	San José Chacayá	5	Chacayá	5	Mayo	2023-03-05T00:00:00	2024-11-06T02:00:00	6	Velocidad del viento	3.2
93518	7	Sololá	702	San José Chacayá	5	Chacayá	5	Mayo	2023-03-05T00:00:00	2024-11-06T02:00:00	7	Dirección del viento	3.22
93519	7	Sololá	702	San José Chacayá	5	Chacayá	5	Mayo	2023-03-05T00:00:00	2024-11-06T02:00:00	1	Precipitación	0
93520	7	Sololá	702	San José Chacayá	5	Chacayá	5	Mayo	2023-03-05T00:00:00	2024-11-06T02:00:00	8	Radiación solar	0
93521	7	Sololá	702	San José Chacayá	5	Chacayá	5	Mayo	2023-03-05T00:00:00	2024-11-06T03:00:00	2	Temperatura media	11.8
93522	7	Sololá	702	San José Chacayá	5	Chacayá	5	Mayo	2023-03-05T00:00:00	2024-11-06T03:00:00	4	Temperatura máxima	12
93523	7	Sololá	702	San José Chacayá	5	Chacayá	5	Mayo	2023-03-05T00:00:00	2024-11-06T03:00:00	3	Temperatura mínima	11.5
93524	7	Sololá	702	San José Chacayá	5	Chacayá	5	Mayo	2023-03-05T00:00:00	2024-11-06T03:00:00	5	Humedad	84
93525	7	Sololá	702	San José Chacayá	5	Chacayá	5	Mayo	2023-03-05T00:00:00	2024-11-06T03:00:00	6	Velocidad del viento	4.8
93526	7	Sololá	702	San José Chacayá	5	Chacayá	5	Mayo	2023-03-05T00:00:00	2024-11-06T03:00:00	7	Dirección del viento	4.83
93527	7	Sololá	702	San José Chacayá	5	Chacayá	5	Mayo	2023-03-05T00:00:00	2024-11-06T03:00:00	1	Precipitación	0
93528	7	Sololá	702	San José Chacayá	5	Chacayá	5	Mayo	2023-03-05T00:00:00	2024-11-06T03:00:00	8	Radiación solar	0
93529	7	Sololá	702	San José Chacayá	5	Chacayá	5	Mayo	2023-03-05T00:00:00	2024-11-06T04:00:00	2	Temperatura media	11.2
93530	7	Sololá	702	San José Chacayá	5	Chacayá	5	Mayo	2023-03-05T00:00:00	2024-11-06T04:00:00	4	Temperatura máxima	11.8
93531	7	Sololá	702	San José Chacayá	5	Chacayá	5	Mayo	2023-03-05T00:00:00	2024-11-06T04:00:00	3	Temperatura mínima	11.2
93532	7	Sololá	702	San José Chacayá	5	Chacayá	5	Mayo	2023-03-05T00:00:00	2024-11-06T04:00:00	5	Humedad	84
93533	7	Sololá	702	San José Chacayá	5	Chacayá	5	Mayo	2023-03-05T00:00:00	2024-11-06T04:00:00	6	Velocidad del viento	3.2
93534	7	Sololá	702	San José Chacayá	5	Chacayá	5	Mayo	2023-03-05T00:00:00	2024-11-06T04:00:00	7	Dirección del viento	3.22
93535	7	Sololá	702	San José Chacayá	5	Chacayá	5	Mayo	2023-03-05T00:00:00	2024-11-06T04:00:00	1	Precipitación	0
93536	7	Sololá	702	San José Chacayá	5	Chacayá	5	Mayo	2023-03-05T00:00:00	2024-11-06T04:00:00	8	Radiación solar	0
93537	7	Sololá	702	San José Chacayá	5	Chacayá	5	Mayo	2023-03-05T00:00:00	2024-11-06T05:00:00	2	Temperatura media	10.2
93538	7	Sololá	702	San José Chacayá	5	Chacayá	5	Mayo	2023-03-05T00:00:00	2024-11-06T05:00:00	4	Temperatura máxima	11.2
93539	7	Sololá	702	San José Chacayá	5	Chacayá	5	Mayo	2023-03-05T00:00:00	2024-11-06T05:00:00	3	Temperatura mínima	10.2
93540	7	Sololá	702	San José Chacayá	5	Chacayá	5	Mayo	2023-03-05T00:00:00	2024-11-06T05:00:00	5	Humedad	84
93541	7	Sololá	702	San José Chacayá	5	Chacayá	5	Mayo	2023-03-05T00:00:00	2024-11-06T05:00:00	6	Velocidad del viento	4.8
93542	7	Sololá	702	San José Chacayá	5	Chacayá	5	Mayo	2023-03-05T00:00:00	2024-11-06T05:00:00	7	Dirección del viento	4.83
93543	7	Sololá	702	San José Chacayá	5	Chacayá	5	Mayo	2023-03-05T00:00:00	2024-11-06T05:00:00	1	Precipitación	0
93544	7	Sololá	702	San José Chacayá	5	Chacayá	5	Mayo	2023-03-05T00:00:00	2024-11-06T05:00:00	8	Radiación solar	0
93545	7	Sololá	702	San José Chacayá	5	Chacayá	5	Mayo	2023-03-05T00:00:00	2024-11-06T06:00:00	2	Temperatura media	9.8
93546	7	Sololá	702	San José Chacayá	5	Chacayá	5	Mayo	2023-03-05T00:00:00	2024-11-06T06:00:00	4	Temperatura máxima	10.2
93547	7	Sololá	702	San José Chacayá	5	Chacayá	5	Mayo	2023-03-05T00:00:00	2024-11-06T06:00:00	3	Temperatura mínima	9.8
93548	7	Sololá	702	San José Chacayá	5	Chacayá	5	Mayo	2023-03-05T00:00:00	2024-11-06T06:00:00	5	Humedad	85
93549	7	Sololá	702	San José Chacayá	5	Chacayá	5	Mayo	2023-03-05T00:00:00	2024-11-06T06:00:00	6	Velocidad del viento	4.8
93550	7	Sololá	702	San José Chacayá	5	Chacayá	5	Mayo	2023-03-05T00:00:00	2024-11-06T06:00:00	7	Dirección del viento	4.83
93551	7	Sololá	702	San José Chacayá	5	Chacayá	5	Mayo	2023-03-05T00:00:00	2024-11-06T06:00:00	1	Precipitación	0
93552	7	Sololá	702	San José Chacayá	5	Chacayá	5	Mayo	2023-03-05T00:00:00	2024-11-06T06:00:00	8	Radiación solar	0
93553	7	Sololá	702	San José Chacayá	5	Chacayá	5	Mayo	2023-03-05T00:00:00	2024-11-06T07:00:00	2	Temperatura media	10.3
93554	7	Sololá	702	San José Chacayá	5	Chacayá	5	Mayo	2023-03-05T00:00:00	2024-11-06T07:00:00	4	Temperatura máxima	10.3
93555	7	Sololá	702	San José Chacayá	5	Chacayá	5	Mayo	2023-03-05T00:00:00	2024-11-06T07:00:00	3	Temperatura mínima	9.7
93556	7	Sololá	702	San José Chacayá	5	Chacayá	5	Mayo	2023-03-05T00:00:00	2024-11-06T07:00:00	5	Humedad	84
93557	7	Sololá	702	San José Chacayá	5	Chacayá	5	Mayo	2023-03-05T00:00:00	2024-11-06T07:00:00	6	Velocidad del viento	3.2
93558	7	Sololá	702	San José Chacayá	5	Chacayá	5	Mayo	2023-03-05T00:00:00	2024-11-06T07:00:00	7	Dirección del viento	3.22
93559	7	Sololá	702	San José Chacayá	5	Chacayá	5	Mayo	2023-03-05T00:00:00	2024-11-06T07:00:00	1	Precipitación	0
93560	7	Sololá	702	San José Chacayá	5	Chacayá	5	Mayo	2023-03-05T00:00:00	2024-11-06T07:00:00	8	Radiación solar	3
93561	7	Sololá	702	San José Chacayá	5	Chacayá	5	Mayo	2023-03-05T00:00:00	2024-11-06T08:00:00	2	Temperatura media	11.2
93562	7	Sololá	702	San José Chacayá	5	Chacayá	5	Mayo	2023-03-05T00:00:00	2024-11-06T08:00:00	4	Temperatura máxima	11.2
93563	7	Sololá	702	San José Chacayá	5	Chacayá	5	Mayo	2023-03-05T00:00:00	2024-11-06T08:00:00	3	Temperatura mínima	10.2
93564	7	Sololá	702	San José Chacayá	5	Chacayá	5	Mayo	2023-03-05T00:00:00	2024-11-06T08:00:00	5	Humedad	85
93565	7	Sololá	702	San José Chacayá	5	Chacayá	5	Mayo	2023-03-05T00:00:00	2024-11-06T08:00:00	6	Velocidad del viento	3.2
93566	7	Sololá	702	San José Chacayá	5	Chacayá	5	Mayo	2023-03-05T00:00:00	2024-11-06T08:00:00	7	Dirección del viento	3.22
93567	7	Sololá	702	San José Chacayá	5	Chacayá	5	Mayo	2023-03-05T00:00:00	2024-11-06T08:00:00	1	Precipitación	0
93568	7	Sololá	702	San José Chacayá	5	Chacayá	5	Mayo	2023-03-05T00:00:00	2024-11-06T08:00:00	8	Radiación solar	41
93569	7	Sololá	702	San José Chacayá	5	Chacayá	5	Mayo	2023-03-05T00:00:00	2024-11-06T09:00:00	2	Temperatura media	16.1
93570	7	Sololá	702	San José Chacayá	5	Chacayá	5	Mayo	2023-03-05T00:00:00	2024-11-06T09:00:00	4	Temperatura máxima	16.1
93571	7	Sololá	702	San José Chacayá	5	Chacayá	5	Mayo	2023-03-05T00:00:00	2024-11-06T09:00:00	3	Temperatura mínima	11.2
93572	7	Sololá	702	San José Chacayá	5	Chacayá	5	Mayo	2023-03-05T00:00:00	2024-11-06T09:00:00	5	Humedad	71
93573	7	Sololá	702	San José Chacayá	5	Chacayá	5	Mayo	2023-03-05T00:00:00	2024-11-06T09:00:00	6	Velocidad del viento	1.6
93574	7	Sololá	702	San José Chacayá	5	Chacayá	5	Mayo	2023-03-05T00:00:00	2024-11-06T09:00:00	7	Dirección del viento	1.61
93575	7	Sololá	702	San José Chacayá	5	Chacayá	5	Mayo	2023-03-05T00:00:00	2024-11-06T09:00:00	1	Precipitación	0
93576	7	Sololá	702	San José Chacayá	5	Chacayá	5	Mayo	2023-03-05T00:00:00	2024-11-06T09:00:00	8	Radiación solar	70
93577	7	Sololá	702	San José Chacayá	5	Chacayá	5	Mayo	2023-03-05T00:00:00	2024-11-06T10:00:00	2	Temperatura media	19.9
93578	7	Sololá	702	San José Chacayá	5	Chacayá	5	Mayo	2023-03-05T00:00:00	2024-11-06T10:00:00	4	Temperatura máxima	19.9
93579	7	Sololá	702	San José Chacayá	5	Chacayá	5	Mayo	2023-03-05T00:00:00	2024-11-06T10:00:00	3	Temperatura mínima	16.1
93580	7	Sololá	702	San José Chacayá	5	Chacayá	5	Mayo	2023-03-05T00:00:00	2024-11-06T10:00:00	5	Humedad	66
93581	7	Sololá	702	San José Chacayá	5	Chacayá	5	Mayo	2023-03-05T00:00:00	2024-11-06T10:00:00	6	Velocidad del viento	1.6
93582	7	Sololá	702	San José Chacayá	5	Chacayá	5	Mayo	2023-03-05T00:00:00	2024-11-06T10:00:00	7	Dirección del viento	1.61
93583	7	Sololá	702	San José Chacayá	5	Chacayá	5	Mayo	2023-03-05T00:00:00	2024-11-06T10:00:00	1	Precipitación	0
93584	7	Sololá	702	San José Chacayá	5	Chacayá	5	Mayo	2023-03-05T00:00:00	2024-11-06T10:00:00	8	Radiación solar	506
93585	7	Sololá	702	San José Chacayá	5	Chacayá	5	Mayo	2023-03-05T00:00:00	2024-11-06T11:00:00	2	Temperatura media	21.7
93586	7	Sololá	702	San José Chacayá	5	Chacayá	5	Mayo	2023-03-05T00:00:00	2024-11-06T11:00:00	4	Temperatura máxima	22
93587	7	Sololá	702	San José Chacayá	5	Chacayá	5	Mayo	2023-03-05T00:00:00	2024-11-06T11:00:00	3	Temperatura mínima	19.8
93588	7	Sololá	702	San José Chacayá	5	Chacayá	5	Mayo	2023-03-05T00:00:00	2024-11-06T11:00:00	5	Humedad	62
93589	7	Sololá	702	San José Chacayá	5	Chacayá	5	Mayo	2023-03-05T00:00:00	2024-11-06T11:00:00	6	Velocidad del viento	3.2
93590	7	Sololá	702	San José Chacayá	5	Chacayá	5	Mayo	2023-03-05T00:00:00	2024-11-06T11:00:00	7	Dirección del viento	3.22
93591	7	Sololá	702	San José Chacayá	5	Chacayá	5	Mayo	2023-03-05T00:00:00	2024-11-06T11:00:00	1	Precipitación	0
93592	7	Sololá	702	San José Chacayá	5	Chacayá	5	Mayo	2023-03-05T00:00:00	2024-11-06T11:00:00	8	Radiación solar	782
93593	7	Sololá	702	San José Chacayá	5	Chacayá	5	Mayo	2023-03-05T00:00:00	2024-11-06T12:00:00	2	Temperatura media	22.6
93594	7	Sololá	702	San José Chacayá	5	Chacayá	5	Mayo	2023-03-05T00:00:00	2024-11-06T12:00:00	4	Temperatura máxima	22.7
93595	7	Sololá	702	San José Chacayá	5	Chacayá	5	Mayo	2023-03-05T00:00:00	2024-11-06T12:00:00	3	Temperatura mínima	21.7
93596	7	Sololá	702	San José Chacayá	5	Chacayá	5	Mayo	2023-03-05T00:00:00	2024-11-06T12:00:00	5	Humedad	58
93597	7	Sololá	702	San José Chacayá	5	Chacayá	5	Mayo	2023-03-05T00:00:00	2024-11-06T12:00:00	6	Velocidad del viento	4.8
93598	7	Sololá	702	San José Chacayá	5	Chacayá	5	Mayo	2023-03-05T00:00:00	2024-11-06T12:00:00	7	Dirección del viento	4.83
93599	7	Sololá	702	San José Chacayá	5	Chacayá	5	Mayo	2023-03-05T00:00:00	2024-11-06T12:00:00	1	Precipitación	0
93600	7	Sololá	702	San José Chacayá	5	Chacayá	5	Mayo	2023-03-05T00:00:00	2024-11-06T12:00:00	8	Radiación solar	870
93601	7	Sololá	702	San José Chacayá	5	Chacayá	5	Mayo	2023-03-05T00:00:00	2024-11-06T13:00:00	2	Temperatura media	22.3
93602	7	Sololá	702	San José Chacayá	5	Chacayá	5	Mayo	2023-03-05T00:00:00	2024-11-06T13:00:00	4	Temperatura máxima	22.8
93603	7	Sololá	702	San José Chacayá	5	Chacayá	5	Mayo	2023-03-05T00:00:00	2024-11-06T13:00:00	3	Temperatura mínima	22.3
93604	7	Sololá	702	San José Chacayá	5	Chacayá	5	Mayo	2023-03-05T00:00:00	2024-11-06T13:00:00	5	Humedad	64
93605	7	Sololá	702	San José Chacayá	5	Chacayá	5	Mayo	2023-03-05T00:00:00	2024-11-06T13:00:00	6	Velocidad del viento	6.4
93606	7	Sololá	702	San José Chacayá	5	Chacayá	5	Mayo	2023-03-05T00:00:00	2024-11-06T13:00:00	7	Dirección del viento	6.44
93607	7	Sololá	702	San José Chacayá	5	Chacayá	5	Mayo	2023-03-05T00:00:00	2024-11-06T13:00:00	1	Precipitación	0
93608	7	Sololá	702	San José Chacayá	5	Chacayá	5	Mayo	2023-03-05T00:00:00	2024-11-06T13:00:00	8	Radiación solar	972
93609	7	Sololá	702	San José Chacayá	5	Chacayá	5	Mayo	2023-03-05T00:00:00	2024-11-06T14:00:00	2	Temperatura media	21.9
93610	7	Sololá	702	San José Chacayá	5	Chacayá	5	Mayo	2023-03-05T00:00:00	2024-11-06T14:00:00	4	Temperatura máxima	22.8
93611	7	Sololá	702	San José Chacayá	5	Chacayá	5	Mayo	2023-03-05T00:00:00	2024-11-06T14:00:00	3	Temperatura mínima	21.9
93612	7	Sololá	702	San José Chacayá	5	Chacayá	5	Mayo	2023-03-05T00:00:00	2024-11-06T14:00:00	5	Humedad	75
93613	7	Sololá	702	San José Chacayá	5	Chacayá	5	Mayo	2023-03-05T00:00:00	2024-11-06T14:00:00	6	Velocidad del viento	6.4
93614	7	Sololá	702	San José Chacayá	5	Chacayá	5	Mayo	2023-03-05T00:00:00	2024-11-06T14:00:00	7	Dirección del viento	6.44
93615	7	Sololá	702	San José Chacayá	5	Chacayá	5	Mayo	2023-03-05T00:00:00	2024-11-06T14:00:00	1	Precipitación	0
93616	7	Sololá	702	San José Chacayá	5	Chacayá	5	Mayo	2023-03-05T00:00:00	2024-11-06T14:00:00	8	Radiación solar	969
93617	7	Sololá	702	San José Chacayá	5	Chacayá	5	Mayo	2023-03-05T00:00:00	2024-11-06T15:00:00	2	Temperatura media	22.7
93618	7	Sololá	702	San José Chacayá	5	Chacayá	5	Mayo	2023-03-05T00:00:00	2024-11-06T15:00:00	4	Temperatura máxima	22.7
93619	7	Sololá	702	San José Chacayá	5	Chacayá	5	Mayo	2023-03-05T00:00:00	2024-11-06T15:00:00	3	Temperatura mínima	21.9
93620	7	Sololá	702	San José Chacayá	5	Chacayá	5	Mayo	2023-03-05T00:00:00	2024-11-06T15:00:00	5	Humedad	74
93621	7	Sololá	702	San José Chacayá	5	Chacayá	5	Mayo	2023-03-05T00:00:00	2024-11-06T15:00:00	6	Velocidad del viento	4.8
93622	7	Sololá	702	San José Chacayá	5	Chacayá	5	Mayo	2023-03-05T00:00:00	2024-11-06T15:00:00	7	Dirección del viento	4.83
93623	7	Sololá	702	San José Chacayá	5	Chacayá	5	Mayo	2023-03-05T00:00:00	2024-11-06T15:00:00	1	Precipitación	0
93624	7	Sololá	702	San José Chacayá	5	Chacayá	5	Mayo	2023-03-05T00:00:00	2024-11-06T15:00:00	8	Radiación solar	885
93625	7	Sololá	702	San José Chacayá	5	Chacayá	5	Mayo	2023-03-05T00:00:00	2024-11-06T16:00:00	2	Temperatura media	20.4
93626	7	Sololá	702	San José Chacayá	5	Chacayá	5	Mayo	2023-03-05T00:00:00	2024-11-06T16:00:00	4	Temperatura máxima	22.9
93627	7	Sololá	702	San José Chacayá	5	Chacayá	5	Mayo	2023-03-05T00:00:00	2024-11-06T16:00:00	3	Temperatura mínima	20.4
93628	7	Sololá	702	San José Chacayá	5	Chacayá	5	Mayo	2023-03-05T00:00:00	2024-11-06T16:00:00	5	Humedad	80
93629	7	Sololá	702	San José Chacayá	5	Chacayá	5	Mayo	2023-03-05T00:00:00	2024-11-06T16:00:00	6	Velocidad del viento	4.8
93630	7	Sololá	702	San José Chacayá	5	Chacayá	5	Mayo	2023-03-05T00:00:00	2024-11-06T16:00:00	7	Dirección del viento	4.83
93631	7	Sololá	702	San José Chacayá	5	Chacayá	5	Mayo	2023-03-05T00:00:00	2024-11-06T16:00:00	1	Precipitación	0
93632	7	Sololá	702	San José Chacayá	5	Chacayá	5	Mayo	2023-03-05T00:00:00	2024-11-06T16:00:00	8	Radiación solar	538
93633	7	Sololá	702	San José Chacayá	5	Chacayá	5	Mayo	2023-03-05T00:00:00	2024-11-06T17:00:00	2	Temperatura media	19.7
93634	7	Sololá	702	San José Chacayá	5	Chacayá	5	Mayo	2023-03-05T00:00:00	2024-11-06T17:00:00	4	Temperatura máxima	21.1
93635	7	Sololá	702	San José Chacayá	5	Chacayá	5	Mayo	2023-03-05T00:00:00	2024-11-06T17:00:00	3	Temperatura mínima	19.7
93636	7	Sololá	702	San José Chacayá	5	Chacayá	5	Mayo	2023-03-05T00:00:00	2024-11-06T17:00:00	5	Humedad	82
93637	7	Sololá	702	San José Chacayá	5	Chacayá	5	Mayo	2023-03-05T00:00:00	2024-11-06T17:00:00	6	Velocidad del viento	3.2
93638	7	Sololá	702	San José Chacayá	5	Chacayá	5	Mayo	2023-03-05T00:00:00	2024-11-06T17:00:00	7	Dirección del viento	3.22
93639	7	Sololá	702	San José Chacayá	5	Chacayá	5	Mayo	2023-03-05T00:00:00	2024-11-06T17:00:00	1	Precipitación	0
93640	7	Sololá	702	San José Chacayá	5	Chacayá	5	Mayo	2023-03-05T00:00:00	2024-11-06T17:00:00	8	Radiación solar	270
93641	7	Sololá	702	San José Chacayá	5	Chacayá	5	Mayo	2023-03-05T00:00:00	2024-11-06T18:00:00	2	Temperatura media	20.2
93642	7	Sololá	702	San José Chacayá	5	Chacayá	5	Mayo	2023-03-05T00:00:00	2024-11-06T18:00:00	4	Temperatura máxima	20.3
93643	7	Sololá	702	San José Chacayá	5	Chacayá	5	Mayo	2023-03-05T00:00:00	2024-11-06T18:00:00	3	Temperatura mínima	19.3
93644	7	Sololá	702	San José Chacayá	5	Chacayá	5	Mayo	2023-03-05T00:00:00	2024-11-06T18:00:00	5	Humedad	80
93645	7	Sololá	702	San José Chacayá	5	Chacayá	5	Mayo	2023-03-05T00:00:00	2024-11-06T18:00:00	6	Velocidad del viento	0
93646	7	Sololá	702	San José Chacayá	5	Chacayá	5	Mayo	2023-03-05T00:00:00	2024-11-06T18:00:00	7	Dirección del viento	0
93647	7	Sololá	702	San José Chacayá	5	Chacayá	5	Mayo	2023-03-05T00:00:00	2024-11-06T18:00:00	1	Precipitación	0
93648	7	Sololá	702	San José Chacayá	5	Chacayá	5	Mayo	2023-03-05T00:00:00	2024-11-06T18:00:00	8	Radiación solar	134
93649	7	Sololá	702	San José Chacayá	5	Chacayá	5	Mayo	2023-03-05T00:00:00	2024-11-06T19:00:00	2	Temperatura media	19.4
93650	7	Sololá	702	San José Chacayá	5	Chacayá	5	Mayo	2023-03-05T00:00:00	2024-11-06T19:00:00	4	Temperatura máxima	20.2
93651	7	Sololá	702	San José Chacayá	5	Chacayá	5	Mayo	2023-03-05T00:00:00	2024-11-06T19:00:00	3	Temperatura mínima	19.4
93652	7	Sololá	702	San José Chacayá	5	Chacayá	5	Mayo	2023-03-05T00:00:00	2024-11-06T19:00:00	5	Humedad	73
93653	7	Sololá	702	San José Chacayá	5	Chacayá	5	Mayo	2023-03-05T00:00:00	2024-11-06T19:00:00	6	Velocidad del viento	1.6
93654	7	Sololá	702	San José Chacayá	5	Chacayá	5	Mayo	2023-03-05T00:00:00	2024-11-06T19:00:00	7	Dirección del viento	1.61
93655	7	Sololá	702	San José Chacayá	5	Chacayá	5	Mayo	2023-03-05T00:00:00	2024-11-06T19:00:00	1	Precipitación	0
93656	7	Sololá	702	San José Chacayá	5	Chacayá	5	Mayo	2023-03-05T00:00:00	2024-11-06T19:00:00	8	Radiación solar	0
93657	7	Sololá	702	San José Chacayá	5	Chacayá	5	Mayo	2023-03-05T00:00:00	2024-11-06T20:00:00	2	Temperatura media	16.3
93658	7	Sololá	702	San José Chacayá	5	Chacayá	5	Mayo	2023-03-05T00:00:00	2024-11-06T20:00:00	4	Temperatura máxima	19.4
93659	7	Sololá	702	San José Chacayá	5	Chacayá	5	Mayo	2023-03-05T00:00:00	2024-11-06T20:00:00	3	Temperatura mínima	16.2
93660	7	Sololá	702	San José Chacayá	5	Chacayá	5	Mayo	2023-03-05T00:00:00	2024-11-06T20:00:00	5	Humedad	79
93661	7	Sololá	702	San José Chacayá	5	Chacayá	5	Mayo	2023-03-05T00:00:00	2024-11-06T20:00:00	6	Velocidad del viento	0
93662	7	Sololá	702	San José Chacayá	5	Chacayá	5	Mayo	2023-03-05T00:00:00	2024-11-06T20:00:00	7	Dirección del viento	0
93663	7	Sololá	702	San José Chacayá	5	Chacayá	5	Mayo	2023-03-05T00:00:00	2024-11-06T20:00:00	1	Precipitación	0
93664	7	Sololá	702	San José Chacayá	5	Chacayá	5	Mayo	2023-03-05T00:00:00	2024-11-06T20:00:00	8	Radiación solar	0
93665	7	Sololá	702	San José Chacayá	5	Chacayá	5	Mayo	2023-03-05T00:00:00	2024-11-06T21:00:00	2	Temperatura media	15.3
93666	7	Sololá	702	San José Chacayá	5	Chacayá	5	Mayo	2023-03-05T00:00:00	2024-11-06T21:00:00	4	Temperatura máxima	16.8
93667	7	Sololá	702	San José Chacayá	5	Chacayá	5	Mayo	2023-03-05T00:00:00	2024-11-06T21:00:00	3	Temperatura mínima	15.2
93668	7	Sololá	702	San José Chacayá	5	Chacayá	5	Mayo	2023-03-05T00:00:00	2024-11-06T21:00:00	5	Humedad	83
93669	7	Sololá	702	San José Chacayá	5	Chacayá	5	Mayo	2023-03-05T00:00:00	2024-11-06T21:00:00	6	Velocidad del viento	0
93670	7	Sololá	702	San José Chacayá	5	Chacayá	5	Mayo	2023-03-05T00:00:00	2024-11-06T21:00:00	7	Dirección del viento	0
93671	7	Sololá	702	San José Chacayá	5	Chacayá	5	Mayo	2023-03-05T00:00:00	2024-11-06T21:00:00	1	Precipitación	0
93672	7	Sololá	702	San José Chacayá	5	Chacayá	5	Mayo	2023-03-05T00:00:00	2024-11-06T21:00:00	8	Radiación solar	0
93673	7	Sololá	702	San José Chacayá	5	Chacayá	5	Mayo	2023-03-05T00:00:00	2024-11-06T22:00:00	2	Temperatura media	15.3
93674	7	Sololá	702	San José Chacayá	5	Chacayá	5	Mayo	2023-03-05T00:00:00	2024-11-06T22:00:00	4	Temperatura máxima	15.8
93675	7	Sololá	702	San José Chacayá	5	Chacayá	5	Mayo	2023-03-05T00:00:00	2024-11-06T22:00:00	3	Temperatura mínima	14.8
93676	7	Sololá	702	San José Chacayá	5	Chacayá	5	Mayo	2023-03-05T00:00:00	2024-11-06T22:00:00	5	Humedad	83
93677	7	Sololá	702	San José Chacayá	5	Chacayá	5	Mayo	2023-03-05T00:00:00	2024-11-06T22:00:00	6	Velocidad del viento	0
93678	7	Sololá	702	San José Chacayá	5	Chacayá	5	Mayo	2023-03-05T00:00:00	2024-11-06T22:00:00	7	Dirección del viento	0
93679	7	Sololá	702	San José Chacayá	5	Chacayá	5	Mayo	2023-03-05T00:00:00	2024-11-06T22:00:00	1	Precipitación	0
93680	7	Sololá	702	San José Chacayá	5	Chacayá	5	Mayo	2023-03-05T00:00:00	2024-11-06T22:00:00	8	Radiación solar	0
93681	7	Sololá	702	San José Chacayá	5	Chacayá	5	Mayo	2023-03-05T00:00:00	2024-11-06T23:00:00	2	Temperatura media	14.1
93682	7	Sololá	702	San José Chacayá	5	Chacayá	5	Mayo	2023-03-05T00:00:00	2024-11-06T23:00:00	4	Temperatura máxima	15.4
93683	7	Sololá	702	San José Chacayá	5	Chacayá	5	Mayo	2023-03-05T00:00:00	2024-11-06T23:00:00	3	Temperatura mínima	14.1
93684	7	Sololá	702	San José Chacayá	5	Chacayá	5	Mayo	2023-03-05T00:00:00	2024-11-06T23:00:00	5	Humedad	83
93685	7	Sololá	702	San José Chacayá	5	Chacayá	5	Mayo	2023-03-05T00:00:00	2024-11-06T23:00:00	6	Velocidad del viento	1.6
93686	7	Sololá	702	San José Chacayá	5	Chacayá	5	Mayo	2023-03-05T00:00:00	2024-11-06T23:00:00	7	Dirección del viento	1.61
93687	7	Sololá	702	San José Chacayá	5	Chacayá	5	Mayo	2023-03-05T00:00:00	2024-11-06T23:00:00	1	Precipitación	0
93688	7	Sololá	702	San José Chacayá	5	Chacayá	5	Mayo	2023-03-05T00:00:00	2024-11-06T23:00:00	8	Radiación solar	0
93689	7	Sololá	702	San José Chacayá	5	Chacayá	5	Mayo	2023-04-05T00:00:00	2024-11-06T00:00:00	2	Temperatura media	13
93690	7	Sololá	702	San José Chacayá	5	Chacayá	5	Mayo	2023-04-05T00:00:00	2024-11-06T00:00:00	4	Temperatura máxima	14.1
93691	7	Sololá	702	San José Chacayá	5	Chacayá	5	Mayo	2023-04-05T00:00:00	2024-11-06T00:00:00	3	Temperatura mínima	13
93692	7	Sololá	702	San José Chacayá	5	Chacayá	5	Mayo	2023-04-05T00:00:00	2024-11-06T00:00:00	5	Humedad	83
93693	7	Sololá	702	San José Chacayá	5	Chacayá	5	Mayo	2023-04-05T00:00:00	2024-11-06T00:00:00	6	Velocidad del viento	1.6
93694	7	Sololá	702	San José Chacayá	5	Chacayá	5	Mayo	2023-04-05T00:00:00	2024-11-06T00:00:00	7	Dirección del viento	1.61
93695	7	Sololá	702	San José Chacayá	5	Chacayá	5	Mayo	2023-04-05T00:00:00	2024-11-06T00:00:00	1	Precipitación	0
93696	7	Sololá	702	San José Chacayá	5	Chacayá	5	Mayo	2023-04-05T00:00:00	2024-11-06T00:00:00	8	Radiación solar	0
93697	7	Sololá	702	San José Chacayá	5	Chacayá	5	Mayo	2023-04-05T00:00:00	2024-11-06T01:00:00	2	Temperatura media	12.7
93698	7	Sololá	702	San José Chacayá	5	Chacayá	5	Mayo	2023-04-05T00:00:00	2024-11-06T01:00:00	4	Temperatura máxima	13
93699	7	Sololá	702	San José Chacayá	5	Chacayá	5	Mayo	2023-04-05T00:00:00	2024-11-06T01:00:00	3	Temperatura mínima	12.5
93700	7	Sololá	702	San José Chacayá	5	Chacayá	5	Mayo	2023-04-05T00:00:00	2024-11-06T01:00:00	5	Humedad	80
93701	7	Sololá	702	San José Chacayá	5	Chacayá	5	Mayo	2023-04-05T00:00:00	2024-11-06T01:00:00	6	Velocidad del viento	1.6
93702	7	Sololá	702	San José Chacayá	5	Chacayá	5	Mayo	2023-04-05T00:00:00	2024-11-06T01:00:00	7	Dirección del viento	1.61
93703	7	Sololá	702	San José Chacayá	5	Chacayá	5	Mayo	2023-04-05T00:00:00	2024-11-06T01:00:00	1	Precipitación	0
93704	7	Sololá	702	San José Chacayá	5	Chacayá	5	Mayo	2023-04-05T00:00:00	2024-11-06T01:00:00	8	Radiación solar	0
93705	7	Sololá	702	San José Chacayá	5	Chacayá	5	Mayo	2023-04-05T00:00:00	2024-11-06T02:00:00	2	Temperatura media	13.2
93706	7	Sololá	702	San José Chacayá	5	Chacayá	5	Mayo	2023-04-05T00:00:00	2024-11-06T02:00:00	4	Temperatura máxima	13.2
93707	7	Sololá	702	San José Chacayá	5	Chacayá	5	Mayo	2023-04-05T00:00:00	2024-11-06T02:00:00	3	Temperatura mínima	12.6
93708	7	Sololá	702	San José Chacayá	5	Chacayá	5	Mayo	2023-04-05T00:00:00	2024-11-06T02:00:00	5	Humedad	83
93709	7	Sololá	702	San José Chacayá	5	Chacayá	5	Mayo	2023-04-05T00:00:00	2024-11-06T02:00:00	6	Velocidad del viento	1.6
93710	7	Sololá	702	San José Chacayá	5	Chacayá	5	Mayo	2023-04-05T00:00:00	2024-11-06T02:00:00	7	Dirección del viento	1.61
93711	7	Sololá	702	San José Chacayá	5	Chacayá	5	Mayo	2023-04-05T00:00:00	2024-11-06T02:00:00	1	Precipitación	0
93712	7	Sololá	702	San José Chacayá	5	Chacayá	5	Mayo	2023-04-05T00:00:00	2024-11-06T02:00:00	8	Radiación solar	0
93713	7	Sololá	702	San José Chacayá	5	Chacayá	5	Mayo	2023-04-05T00:00:00	2024-11-06T03:00:00	2	Temperatura media	12.8
93714	7	Sololá	702	San José Chacayá	5	Chacayá	5	Mayo	2023-04-05T00:00:00	2024-11-06T03:00:00	4	Temperatura máxima	13.3
93715	7	Sololá	702	San José Chacayá	5	Chacayá	5	Mayo	2023-04-05T00:00:00	2024-11-06T03:00:00	3	Temperatura mínima	12.8
93716	7	Sololá	702	San José Chacayá	5	Chacayá	5	Mayo	2023-04-05T00:00:00	2024-11-06T03:00:00	5	Humedad	84
93717	7	Sololá	702	San José Chacayá	5	Chacayá	5	Mayo	2023-04-05T00:00:00	2024-11-06T03:00:00	6	Velocidad del viento	1.6
93718	7	Sololá	702	San José Chacayá	5	Chacayá	5	Mayo	2023-04-05T00:00:00	2024-11-06T03:00:00	7	Dirección del viento	1.61
93719	7	Sololá	702	San José Chacayá	5	Chacayá	5	Mayo	2023-04-05T00:00:00	2024-11-06T03:00:00	1	Precipitación	0
93720	7	Sololá	702	San José Chacayá	5	Chacayá	5	Mayo	2023-04-05T00:00:00	2024-11-06T03:00:00	8	Radiación solar	0
93721	7	Sololá	702	San José Chacayá	5	Chacayá	5	Mayo	2023-04-05T00:00:00	2024-11-06T04:00:00	2	Temperatura media	12.3
93722	7	Sololá	702	San José Chacayá	5	Chacayá	5	Mayo	2023-04-05T00:00:00	2024-11-06T04:00:00	4	Temperatura máxima	12.8
93723	7	Sololá	702	San José Chacayá	5	Chacayá	5	Mayo	2023-04-05T00:00:00	2024-11-06T04:00:00	3	Temperatura mínima	12.2
93724	7	Sololá	702	San José Chacayá	5	Chacayá	5	Mayo	2023-04-05T00:00:00	2024-11-06T04:00:00	5	Humedad	84
93725	7	Sololá	702	San José Chacayá	5	Chacayá	5	Mayo	2023-04-05T00:00:00	2024-11-06T04:00:00	6	Velocidad del viento	1.6
93726	7	Sololá	702	San José Chacayá	5	Chacayá	5	Mayo	2023-04-05T00:00:00	2024-11-06T04:00:00	7	Dirección del viento	1.61
93727	7	Sololá	702	San José Chacayá	5	Chacayá	5	Mayo	2023-04-05T00:00:00	2024-11-06T04:00:00	1	Precipitación	0
93728	7	Sololá	702	San José Chacayá	5	Chacayá	5	Mayo	2023-04-05T00:00:00	2024-11-06T04:00:00	8	Radiación solar	0
93729	7	Sololá	702	San José Chacayá	5	Chacayá	5	Mayo	2023-04-05T00:00:00	2024-11-06T05:00:00	2	Temperatura media	12.7
93730	7	Sololá	702	San José Chacayá	5	Chacayá	5	Mayo	2023-04-05T00:00:00	2024-11-06T05:00:00	4	Temperatura máxima	12.7
93731	7	Sololá	702	San José Chacayá	5	Chacayá	5	Mayo	2023-04-05T00:00:00	2024-11-06T05:00:00	3	Temperatura mínima	12.1
93732	7	Sololá	702	San José Chacayá	5	Chacayá	5	Mayo	2023-04-05T00:00:00	2024-11-06T05:00:00	5	Humedad	81
93733	7	Sololá	702	San José Chacayá	5	Chacayá	5	Mayo	2023-04-05T00:00:00	2024-11-06T05:00:00	6	Velocidad del viento	3.2
93734	7	Sololá	702	San José Chacayá	5	Chacayá	5	Mayo	2023-04-05T00:00:00	2024-11-06T05:00:00	7	Dirección del viento	3.22
93735	7	Sololá	702	San José Chacayá	5	Chacayá	5	Mayo	2023-04-05T00:00:00	2024-11-06T05:00:00	1	Precipitación	0
93736	7	Sololá	702	San José Chacayá	5	Chacayá	5	Mayo	2023-04-05T00:00:00	2024-11-06T05:00:00	8	Radiación solar	0
93737	7	Sololá	702	San José Chacayá	5	Chacayá	5	Mayo	2023-04-05T00:00:00	2024-11-06T06:00:00	2	Temperatura media	11.5
93738	7	Sololá	702	San José Chacayá	5	Chacayá	5	Mayo	2023-04-05T00:00:00	2024-11-06T06:00:00	4	Temperatura máxima	12.7
93739	7	Sololá	702	San José Chacayá	5	Chacayá	5	Mayo	2023-04-05T00:00:00	2024-11-06T06:00:00	3	Temperatura mínima	11.3
93740	7	Sololá	702	San José Chacayá	5	Chacayá	5	Mayo	2023-04-05T00:00:00	2024-11-06T06:00:00	5	Humedad	84
93741	7	Sololá	702	San José Chacayá	5	Chacayá	5	Mayo	2023-04-05T00:00:00	2024-11-06T06:00:00	6	Velocidad del viento	4.8
93742	7	Sololá	702	San José Chacayá	5	Chacayá	5	Mayo	2023-04-05T00:00:00	2024-11-06T06:00:00	7	Dirección del viento	4.83
93743	7	Sololá	702	San José Chacayá	5	Chacayá	5	Mayo	2023-04-05T00:00:00	2024-11-06T06:00:00	1	Precipitación	0
93744	7	Sololá	702	San José Chacayá	5	Chacayá	5	Mayo	2023-04-05T00:00:00	2024-11-06T06:00:00	8	Radiación solar	0
93745	7	Sololá	702	San José Chacayá	5	Chacayá	5	Mayo	2023-04-05T00:00:00	2024-11-06T07:00:00	2	Temperatura media	11.5
93746	7	Sololá	702	San José Chacayá	5	Chacayá	5	Mayo	2023-04-05T00:00:00	2024-11-06T07:00:00	4	Temperatura máxima	11.6
93747	7	Sololá	702	San José Chacayá	5	Chacayá	5	Mayo	2023-04-05T00:00:00	2024-11-06T07:00:00	3	Temperatura mínima	11
93748	7	Sololá	702	San José Chacayá	5	Chacayá	5	Mayo	2023-04-05T00:00:00	2024-11-06T07:00:00	5	Humedad	84
93749	7	Sololá	702	San José Chacayá	5	Chacayá	5	Mayo	2023-04-05T00:00:00	2024-11-06T07:00:00	6	Velocidad del viento	3.2
93750	7	Sololá	702	San José Chacayá	5	Chacayá	5	Mayo	2023-04-05T00:00:00	2024-11-06T07:00:00	7	Dirección del viento	3.22
93751	7	Sololá	702	San José Chacayá	5	Chacayá	5	Mayo	2023-04-05T00:00:00	2024-11-06T07:00:00	1	Precipitación	0
93752	7	Sololá	702	San José Chacayá	5	Chacayá	5	Mayo	2023-04-05T00:00:00	2024-11-06T07:00:00	8	Radiación solar	7
93753	7	Sololá	702	San José Chacayá	5	Chacayá	5	Mayo	2023-04-05T00:00:00	2024-11-06T08:00:00	2	Temperatura media	12.9
93754	7	Sololá	702	San José Chacayá	5	Chacayá	5	Mayo	2023-04-05T00:00:00	2024-11-06T08:00:00	4	Temperatura máxima	12.9
93755	7	Sololá	702	San José Chacayá	5	Chacayá	5	Mayo	2023-04-05T00:00:00	2024-11-06T08:00:00	3	Temperatura mínima	11.5
93756	7	Sololá	702	San José Chacayá	5	Chacayá	5	Mayo	2023-04-05T00:00:00	2024-11-06T08:00:00	5	Humedad	84
93757	7	Sololá	702	San José Chacayá	5	Chacayá	5	Mayo	2023-04-05T00:00:00	2024-11-06T08:00:00	6	Velocidad del viento	3.2
93758	7	Sololá	702	San José Chacayá	5	Chacayá	5	Mayo	2023-04-05T00:00:00	2024-11-06T08:00:00	7	Dirección del viento	3.22
93759	7	Sololá	702	San José Chacayá	5	Chacayá	5	Mayo	2023-04-05T00:00:00	2024-11-06T08:00:00	1	Precipitación	0
93760	7	Sololá	702	San José Chacayá	5	Chacayá	5	Mayo	2023-04-05T00:00:00	2024-11-06T08:00:00	8	Radiación solar	44
93761	7	Sololá	702	San José Chacayá	5	Chacayá	5	Mayo	2023-04-05T00:00:00	2024-11-06T09:00:00	2	Temperatura media	17.6
93762	7	Sololá	702	San José Chacayá	5	Chacayá	5	Mayo	2023-04-05T00:00:00	2024-11-06T09:00:00	4	Temperatura máxima	17.6
93763	7	Sololá	702	San José Chacayá	5	Chacayá	5	Mayo	2023-04-05T00:00:00	2024-11-06T09:00:00	3	Temperatura mínima	12.9
93764	7	Sololá	702	San José Chacayá	5	Chacayá	5	Mayo	2023-04-05T00:00:00	2024-11-06T09:00:00	5	Humedad	71
93765	7	Sololá	702	San José Chacayá	5	Chacayá	5	Mayo	2023-04-05T00:00:00	2024-11-06T09:00:00	6	Velocidad del viento	0
93766	7	Sololá	702	San José Chacayá	5	Chacayá	5	Mayo	2023-04-05T00:00:00	2024-11-06T09:00:00	7	Dirección del viento	0
93767	7	Sololá	702	San José Chacayá	5	Chacayá	5	Mayo	2023-04-05T00:00:00	2024-11-06T09:00:00	1	Precipitación	0
93768	7	Sololá	702	San José Chacayá	5	Chacayá	5	Mayo	2023-04-05T00:00:00	2024-11-06T09:00:00	8	Radiación solar	80
93769	7	Sololá	702	San José Chacayá	5	Chacayá	5	Mayo	2023-04-05T00:00:00	2024-11-06T10:00:00	2	Temperatura media	21.1
93770	7	Sololá	702	San José Chacayá	5	Chacayá	5	Mayo	2023-04-05T00:00:00	2024-11-06T10:00:00	4	Temperatura máxima	21.1
93771	7	Sololá	702	San José Chacayá	5	Chacayá	5	Mayo	2023-04-05T00:00:00	2024-11-06T10:00:00	3	Temperatura mínima	17.6
93772	7	Sololá	702	San José Chacayá	5	Chacayá	5	Mayo	2023-04-05T00:00:00	2024-11-06T10:00:00	5	Humedad	62
93773	7	Sololá	702	San José Chacayá	5	Chacayá	5	Mayo	2023-04-05T00:00:00	2024-11-06T10:00:00	6	Velocidad del viento	3.2
93774	7	Sololá	702	San José Chacayá	5	Chacayá	5	Mayo	2023-04-05T00:00:00	2024-11-06T10:00:00	7	Dirección del viento	3.22
93775	7	Sololá	702	San José Chacayá	5	Chacayá	5	Mayo	2023-04-05T00:00:00	2024-11-06T10:00:00	1	Precipitación	0
93776	7	Sololá	702	San José Chacayá	5	Chacayá	5	Mayo	2023-04-05T00:00:00	2024-11-06T10:00:00	8	Radiación solar	503
93777	7	Sololá	702	San José Chacayá	5	Chacayá	5	Mayo	2023-04-05T00:00:00	2024-11-06T11:00:00	2	Temperatura media	22.8
93778	7	Sololá	702	San José Chacayá	5	Chacayá	5	Mayo	2023-04-05T00:00:00	2024-11-06T11:00:00	4	Temperatura máxima	22.9
93779	7	Sololá	702	San José Chacayá	5	Chacayá	5	Mayo	2023-04-05T00:00:00	2024-11-06T11:00:00	3	Temperatura mínima	20.9
93780	7	Sololá	702	San José Chacayá	5	Chacayá	5	Mayo	2023-04-05T00:00:00	2024-11-06T11:00:00	5	Humedad	56
93781	7	Sololá	702	San José Chacayá	5	Chacayá	5	Mayo	2023-04-05T00:00:00	2024-11-06T11:00:00	6	Velocidad del viento	6.4
93782	7	Sololá	702	San José Chacayá	5	Chacayá	5	Mayo	2023-04-05T00:00:00	2024-11-06T11:00:00	7	Dirección del viento	6.44
93783	7	Sololá	702	San José Chacayá	5	Chacayá	5	Mayo	2023-04-05T00:00:00	2024-11-06T11:00:00	1	Precipitación	0
93784	7	Sololá	702	San José Chacayá	5	Chacayá	5	Mayo	2023-04-05T00:00:00	2024-11-06T11:00:00	8	Radiación solar	787
93785	7	Sololá	702	San José Chacayá	5	Chacayá	5	Mayo	2023-04-05T00:00:00	2024-11-06T12:00:00	2	Temperatura media	22.6
93786	7	Sololá	702	San José Chacayá	5	Chacayá	5	Mayo	2023-04-05T00:00:00	2024-11-06T12:00:00	4	Temperatura máxima	23.2
93787	7	Sololá	702	San José Chacayá	5	Chacayá	5	Mayo	2023-04-05T00:00:00	2024-11-06T12:00:00	3	Temperatura mínima	22.4
93788	7	Sololá	702	San José Chacayá	5	Chacayá	5	Mayo	2023-04-05T00:00:00	2024-11-06T12:00:00	5	Humedad	58
93789	7	Sololá	702	San José Chacayá	5	Chacayá	5	Mayo	2023-04-05T00:00:00	2024-11-06T12:00:00	6	Velocidad del viento	6.4
93790	7	Sololá	702	San José Chacayá	5	Chacayá	5	Mayo	2023-04-05T00:00:00	2024-11-06T12:00:00	7	Dirección del viento	6.44
93791	7	Sololá	702	San José Chacayá	5	Chacayá	5	Mayo	2023-04-05T00:00:00	2024-11-06T12:00:00	1	Precipitación	0
93792	7	Sololá	702	San José Chacayá	5	Chacayá	5	Mayo	2023-04-05T00:00:00	2024-11-06T12:00:00	8	Radiación solar	941
93793	7	Sololá	702	San José Chacayá	5	Chacayá	5	Mayo	2023-04-05T00:00:00	2024-11-06T13:00:00	2	Temperatura media	24.4
93794	7	Sololá	702	San José Chacayá	5	Chacayá	5	Mayo	2023-04-05T00:00:00	2024-11-06T13:00:00	4	Temperatura máxima	24.4
93795	7	Sololá	702	San José Chacayá	5	Chacayá	5	Mayo	2023-04-05T00:00:00	2024-11-06T13:00:00	3	Temperatura mínima	22.4
93796	7	Sololá	702	San José Chacayá	5	Chacayá	5	Mayo	2023-04-05T00:00:00	2024-11-06T13:00:00	5	Humedad	50
93797	7	Sololá	702	San José Chacayá	5	Chacayá	5	Mayo	2023-04-05T00:00:00	2024-11-06T13:00:00	6	Velocidad del viento	8
93798	7	Sololá	702	San José Chacayá	5	Chacayá	5	Mayo	2023-04-05T00:00:00	2024-11-06T13:00:00	7	Dirección del viento	8.05
93799	7	Sololá	702	San José Chacayá	5	Chacayá	5	Mayo	2023-04-05T00:00:00	2024-11-06T13:00:00	1	Precipitación	0
93800	7	Sololá	702	San José Chacayá	5	Chacayá	5	Mayo	2023-04-05T00:00:00	2024-11-06T13:00:00	8	Radiación solar	1071
93801	7	Sololá	702	San José Chacayá	5	Chacayá	5	Mayo	2023-04-05T00:00:00	2024-11-06T14:00:00	2	Temperatura media	23.7
93802	7	Sololá	702	San José Chacayá	5	Chacayá	5	Mayo	2023-04-05T00:00:00	2024-11-06T14:00:00	4	Temperatura máxima	24.4
93803	7	Sololá	702	San José Chacayá	5	Chacayá	5	Mayo	2023-04-05T00:00:00	2024-11-06T14:00:00	3	Temperatura mínima	23.2
93804	7	Sololá	702	San José Chacayá	5	Chacayá	5	Mayo	2023-04-05T00:00:00	2024-11-06T14:00:00	5	Humedad	54
93805	7	Sololá	702	San José Chacayá	5	Chacayá	5	Mayo	2023-04-05T00:00:00	2024-11-06T14:00:00	6	Velocidad del viento	8
93806	7	Sololá	702	San José Chacayá	5	Chacayá	5	Mayo	2023-04-05T00:00:00	2024-11-06T14:00:00	7	Dirección del viento	8.05
93807	7	Sololá	702	San José Chacayá	5	Chacayá	5	Mayo	2023-04-05T00:00:00	2024-11-06T14:00:00	1	Precipitación	0
93808	7	Sololá	702	San José Chacayá	5	Chacayá	5	Mayo	2023-04-05T00:00:00	2024-11-06T14:00:00	8	Radiación solar	709
93809	7	Sololá	702	San José Chacayá	5	Chacayá	5	Mayo	2023-04-05T00:00:00	2024-11-06T15:00:00	2	Temperatura media	23.1
93810	7	Sololá	702	San José Chacayá	5	Chacayá	5	Mayo	2023-04-05T00:00:00	2024-11-06T15:00:00	4	Temperatura máxima	23.7
93811	7	Sololá	702	San José Chacayá	5	Chacayá	5	Mayo	2023-04-05T00:00:00	2024-11-06T15:00:00	3	Temperatura mínima	22.8
93812	7	Sololá	702	San José Chacayá	5	Chacayá	5	Mayo	2023-04-05T00:00:00	2024-11-06T15:00:00	5	Humedad	55
93813	7	Sololá	702	San José Chacayá	5	Chacayá	5	Mayo	2023-04-05T00:00:00	2024-11-06T15:00:00	6	Velocidad del viento	4.8
93814	7	Sololá	702	San José Chacayá	5	Chacayá	5	Mayo	2023-04-05T00:00:00	2024-11-06T15:00:00	7	Dirección del viento	4.83
93815	7	Sololá	702	San José Chacayá	5	Chacayá	5	Mayo	2023-04-05T00:00:00	2024-11-06T15:00:00	1	Precipitación	0
93816	7	Sololá	702	San José Chacayá	5	Chacayá	5	Mayo	2023-04-05T00:00:00	2024-11-06T15:00:00	8	Radiación solar	542
93817	7	Sololá	702	San José Chacayá	5	Chacayá	5	Mayo	2023-04-05T00:00:00	2024-11-06T16:00:00	2	Temperatura media	23
93818	7	Sololá	702	San José Chacayá	5	Chacayá	5	Mayo	2023-04-05T00:00:00	2024-11-06T16:00:00	4	Temperatura máxima	23.8
93819	7	Sololá	702	San José Chacayá	5	Chacayá	5	Mayo	2023-04-05T00:00:00	2024-11-06T16:00:00	3	Temperatura mínima	22.8
93820	7	Sololá	702	San José Chacayá	5	Chacayá	5	Mayo	2023-04-05T00:00:00	2024-11-06T16:00:00	5	Humedad	57
93821	7	Sololá	702	San José Chacayá	5	Chacayá	5	Mayo	2023-04-05T00:00:00	2024-11-06T16:00:00	6	Velocidad del viento	6.4
93822	7	Sololá	702	San José Chacayá	5	Chacayá	5	Mayo	2023-04-05T00:00:00	2024-11-06T16:00:00	7	Dirección del viento	6.44
93823	7	Sololá	702	San José Chacayá	5	Chacayá	5	Mayo	2023-04-05T00:00:00	2024-11-06T16:00:00	1	Precipitación	0
93824	7	Sololá	702	San José Chacayá	5	Chacayá	5	Mayo	2023-04-05T00:00:00	2024-11-06T16:00:00	8	Radiación solar	509
93825	7	Sololá	702	San José Chacayá	5	Chacayá	5	Mayo	2023-04-05T00:00:00	2024-11-06T17:00:00	2	Temperatura media	21.3
93826	7	Sololá	702	San José Chacayá	5	Chacayá	5	Mayo	2023-04-05T00:00:00	2024-11-06T17:00:00	4	Temperatura máxima	23.8
93827	7	Sololá	702	San José Chacayá	5	Chacayá	5	Mayo	2023-04-05T00:00:00	2024-11-06T17:00:00	3	Temperatura mínima	20.9
93828	7	Sololá	702	San José Chacayá	5	Chacayá	5	Mayo	2023-04-05T00:00:00	2024-11-06T17:00:00	5	Humedad	76
93829	7	Sololá	702	San José Chacayá	5	Chacayá	5	Mayo	2023-04-05T00:00:00	2024-11-06T17:00:00	6	Velocidad del viento	4.8
93830	7	Sololá	702	San José Chacayá	5	Chacayá	5	Mayo	2023-04-05T00:00:00	2024-11-06T17:00:00	7	Dirección del viento	4.83
93831	7	Sololá	702	San José Chacayá	5	Chacayá	5	Mayo	2023-04-05T00:00:00	2024-11-06T17:00:00	1	Precipitación	0
93832	7	Sololá	702	San José Chacayá	5	Chacayá	5	Mayo	2023-04-05T00:00:00	2024-11-06T17:00:00	8	Radiación solar	488
93833	7	Sololá	702	San José Chacayá	5	Chacayá	5	Mayo	2023-04-05T00:00:00	2024-11-06T18:00:00	2	Temperatura media	18.8
93834	7	Sololá	702	San José Chacayá	5	Chacayá	5	Mayo	2023-04-05T00:00:00	2024-11-06T18:00:00	4	Temperatura máxima	21.3
93835	7	Sololá	702	San José Chacayá	5	Chacayá	5	Mayo	2023-04-05T00:00:00	2024-11-06T18:00:00	3	Temperatura mínima	18.8
93836	7	Sololá	702	San José Chacayá	5	Chacayá	5	Mayo	2023-04-05T00:00:00	2024-11-06T18:00:00	5	Humedad	82
93837	7	Sololá	702	San José Chacayá	5	Chacayá	5	Mayo	2023-04-05T00:00:00	2024-11-06T18:00:00	6	Velocidad del viento	1.6
93838	7	Sololá	702	San José Chacayá	5	Chacayá	5	Mayo	2023-04-05T00:00:00	2024-11-06T18:00:00	7	Dirección del viento	1.61
93839	7	Sololá	702	San José Chacayá	5	Chacayá	5	Mayo	2023-04-05T00:00:00	2024-11-06T18:00:00	1	Precipitación	0
93840	7	Sololá	702	San José Chacayá	5	Chacayá	5	Mayo	2023-04-05T00:00:00	2024-11-06T18:00:00	8	Radiación solar	118
93841	7	Sololá	702	San José Chacayá	5	Chacayá	5	Mayo	2023-04-05T00:00:00	2024-11-06T19:00:00	2	Temperatura media	17.8
93842	7	Sololá	702	San José Chacayá	5	Chacayá	5	Mayo	2023-04-05T00:00:00	2024-11-06T19:00:00	4	Temperatura máxima	18.8
93843	7	Sololá	702	San José Chacayá	5	Chacayá	5	Mayo	2023-04-05T00:00:00	2024-11-06T19:00:00	3	Temperatura mínima	17.8
93844	7	Sololá	702	San José Chacayá	5	Chacayá	5	Mayo	2023-04-05T00:00:00	2024-11-06T19:00:00	5	Humedad	82
93845	7	Sololá	702	San José Chacayá	5	Chacayá	5	Mayo	2023-04-05T00:00:00	2024-11-06T19:00:00	6	Velocidad del viento	1.6
93846	7	Sololá	702	San José Chacayá	5	Chacayá	5	Mayo	2023-04-05T00:00:00	2024-11-06T19:00:00	7	Dirección del viento	1.61
93847	7	Sololá	702	San José Chacayá	5	Chacayá	5	Mayo	2023-04-05T00:00:00	2024-11-06T19:00:00	1	Precipitación	0
93848	7	Sololá	702	San José Chacayá	5	Chacayá	5	Mayo	2023-04-05T00:00:00	2024-11-06T19:00:00	8	Radiación solar	0
93849	7	Sololá	702	San José Chacayá	5	Chacayá	5	Mayo	2023-04-05T00:00:00	2024-11-06T20:00:00	2	Temperatura media	16.5
93850	7	Sololá	702	San José Chacayá	5	Chacayá	5	Mayo	2023-04-05T00:00:00	2024-11-06T20:00:00	4	Temperatura máxima	17.8
93851	7	Sololá	702	San José Chacayá	5	Chacayá	5	Mayo	2023-04-05T00:00:00	2024-11-06T20:00:00	3	Temperatura mínima	16.5
93852	7	Sololá	702	San José Chacayá	5	Chacayá	5	Mayo	2023-04-05T00:00:00	2024-11-06T20:00:00	5	Humedad	80
93853	7	Sololá	702	San José Chacayá	5	Chacayá	5	Mayo	2023-04-05T00:00:00	2024-11-06T20:00:00	6	Velocidad del viento	0
93854	7	Sololá	702	San José Chacayá	5	Chacayá	5	Mayo	2023-04-05T00:00:00	2024-11-06T20:00:00	7	Dirección del viento	0
93855	7	Sololá	702	San José Chacayá	5	Chacayá	5	Mayo	2023-04-05T00:00:00	2024-11-06T20:00:00	1	Precipitación	0
93856	7	Sololá	702	San José Chacayá	5	Chacayá	5	Mayo	2023-04-05T00:00:00	2024-11-06T20:00:00	8	Radiación solar	0
93857	7	Sololá	702	San José Chacayá	5	Chacayá	5	Mayo	2023-04-05T00:00:00	2024-11-06T21:00:00	2	Temperatura media	15.2
93858	7	Sololá	702	San José Chacayá	5	Chacayá	5	Mayo	2023-04-05T00:00:00	2024-11-06T21:00:00	4	Temperatura máxima	16.5
93859	7	Sololá	702	San José Chacayá	5	Chacayá	5	Mayo	2023-04-05T00:00:00	2024-11-06T21:00:00	3	Temperatura mínima	15.2
93860	7	Sololá	702	San José Chacayá	5	Chacayá	5	Mayo	2023-04-05T00:00:00	2024-11-06T21:00:00	5	Humedad	80
93861	7	Sololá	702	San José Chacayá	5	Chacayá	5	Mayo	2023-04-05T00:00:00	2024-11-06T21:00:00	6	Velocidad del viento	0
93862	7	Sololá	702	San José Chacayá	5	Chacayá	5	Mayo	2023-04-05T00:00:00	2024-11-06T21:00:00	7	Dirección del viento	0
93863	7	Sololá	702	San José Chacayá	5	Chacayá	5	Mayo	2023-04-05T00:00:00	2024-11-06T21:00:00	1	Precipitación	0
93864	7	Sololá	702	San José Chacayá	5	Chacayá	5	Mayo	2023-04-05T00:00:00	2024-11-06T21:00:00	8	Radiación solar	0
93865	7	Sololá	702	San José Chacayá	5	Chacayá	5	Mayo	2023-04-05T00:00:00	2024-11-06T22:00:00	2	Temperatura media	14.8
93866	7	Sololá	702	San José Chacayá	5	Chacayá	5	Mayo	2023-04-05T00:00:00	2024-11-06T22:00:00	4	Temperatura máxima	15.2
93867	7	Sololá	702	San José Chacayá	5	Chacayá	5	Mayo	2023-04-05T00:00:00	2024-11-06T22:00:00	3	Temperatura mínima	14.8
93868	7	Sololá	702	San José Chacayá	5	Chacayá	5	Mayo	2023-04-05T00:00:00	2024-11-06T22:00:00	5	Humedad	81
93869	7	Sololá	702	San José Chacayá	5	Chacayá	5	Mayo	2023-04-05T00:00:00	2024-11-06T22:00:00	6	Velocidad del viento	0
93870	7	Sololá	702	San José Chacayá	5	Chacayá	5	Mayo	2023-04-05T00:00:00	2024-11-06T22:00:00	7	Dirección del viento	0
93871	7	Sololá	702	San José Chacayá	5	Chacayá	5	Mayo	2023-04-05T00:00:00	2024-11-06T22:00:00	1	Precipitación	0
93872	7	Sololá	702	San José Chacayá	5	Chacayá	5	Mayo	2023-04-05T00:00:00	2024-11-06T22:00:00	8	Radiación solar	0
93873	7	Sololá	702	San José Chacayá	5	Chacayá	5	Mayo	2023-04-05T00:00:00	2024-11-06T23:00:00	2	Temperatura media	14.3
93874	7	Sololá	702	San José Chacayá	5	Chacayá	5	Mayo	2023-04-05T00:00:00	2024-11-06T23:00:00	4	Temperatura máxima	14.8
93875	7	Sololá	702	San José Chacayá	5	Chacayá	5	Mayo	2023-04-05T00:00:00	2024-11-06T23:00:00	3	Temperatura mínima	14.2
93876	7	Sololá	702	San José Chacayá	5	Chacayá	5	Mayo	2023-04-05T00:00:00	2024-11-06T23:00:00	5	Humedad	81
93877	7	Sololá	702	San José Chacayá	5	Chacayá	5	Mayo	2023-04-05T00:00:00	2024-11-06T23:00:00	6	Velocidad del viento	0
93878	7	Sololá	702	San José Chacayá	5	Chacayá	5	Mayo	2023-04-05T00:00:00	2024-11-06T23:00:00	7	Dirección del viento	0
93879	7	Sololá	702	San José Chacayá	5	Chacayá	5	Mayo	2023-04-05T00:00:00	2024-11-06T23:00:00	1	Precipitación	0
93880	7	Sololá	702	San José Chacayá	5	Chacayá	5	Mayo	2023-04-05T00:00:00	2024-11-06T23:00:00	8	Radiación solar	0
93881	7	Sololá	702	San José Chacayá	5	Chacayá	5	Mayo	2023-05-05T00:00:00	2024-11-06T00:00:00	2	Temperatura media	13.6
93882	7	Sololá	702	San José Chacayá	5	Chacayá	5	Mayo	2023-05-05T00:00:00	2024-11-06T00:00:00	4	Temperatura máxima	14.3
93883	7	Sololá	702	San José Chacayá	5	Chacayá	5	Mayo	2023-05-05T00:00:00	2024-11-06T00:00:00	3	Temperatura mínima	13.6
93884	7	Sololá	702	San José Chacayá	5	Chacayá	5	Mayo	2023-05-05T00:00:00	2024-11-06T00:00:00	5	Humedad	83
93885	7	Sololá	702	San José Chacayá	5	Chacayá	5	Mayo	2023-05-05T00:00:00	2024-11-06T00:00:00	6	Velocidad del viento	1.6
93886	7	Sololá	702	San José Chacayá	5	Chacayá	5	Mayo	2023-05-05T00:00:00	2024-11-06T00:00:00	7	Dirección del viento	1.61
93887	7	Sololá	702	San José Chacayá	5	Chacayá	5	Mayo	2023-05-05T00:00:00	2024-11-06T00:00:00	1	Precipitación	0
93888	7	Sololá	702	San José Chacayá	5	Chacayá	5	Mayo	2023-05-05T00:00:00	2024-11-06T00:00:00	8	Radiación solar	0
93889	7	Sololá	702	San José Chacayá	5	Chacayá	5	Mayo	2023-05-05T00:00:00	2024-11-06T01:00:00	2	Temperatura media	13.1
93890	7	Sololá	702	San José Chacayá	5	Chacayá	5	Mayo	2023-05-05T00:00:00	2024-11-06T01:00:00	4	Temperatura máxima	13.7
93891	7	Sololá	702	San José Chacayá	5	Chacayá	5	Mayo	2023-05-05T00:00:00	2024-11-06T01:00:00	3	Temperatura mínima	13.1
93892	7	Sololá	702	San José Chacayá	5	Chacayá	5	Mayo	2023-05-05T00:00:00	2024-11-06T01:00:00	5	Humedad	84
93893	7	Sololá	702	San José Chacayá	5	Chacayá	5	Mayo	2023-05-05T00:00:00	2024-11-06T01:00:00	6	Velocidad del viento	3.2
93894	7	Sololá	702	San José Chacayá	5	Chacayá	5	Mayo	2023-05-05T00:00:00	2024-11-06T01:00:00	7	Dirección del viento	3.22
93895	7	Sololá	702	San José Chacayá	5	Chacayá	5	Mayo	2023-05-05T00:00:00	2024-11-06T01:00:00	1	Precipitación	0
93896	7	Sololá	702	San José Chacayá	5	Chacayá	5	Mayo	2023-05-05T00:00:00	2024-11-06T01:00:00	8	Radiación solar	0
93897	7	Sololá	702	San José Chacayá	5	Chacayá	5	Mayo	2023-05-05T00:00:00	2024-11-06T02:00:00	2	Temperatura media	12
93898	7	Sololá	702	San José Chacayá	5	Chacayá	5	Mayo	2023-05-05T00:00:00	2024-11-06T02:00:00	4	Temperatura máxima	13.1
93899	7	Sololá	702	San José Chacayá	5	Chacayá	5	Mayo	2023-05-05T00:00:00	2024-11-06T02:00:00	3	Temperatura mínima	12
93900	7	Sololá	702	San José Chacayá	5	Chacayá	5	Mayo	2023-05-05T00:00:00	2024-11-06T02:00:00	5	Humedad	82
93901	7	Sololá	702	San José Chacayá	5	Chacayá	5	Mayo	2023-05-05T00:00:00	2024-11-06T02:00:00	6	Velocidad del viento	1.6
93902	7	Sololá	702	San José Chacayá	5	Chacayá	5	Mayo	2023-05-05T00:00:00	2024-11-06T02:00:00	7	Dirección del viento	1.61
93903	7	Sololá	702	San José Chacayá	5	Chacayá	5	Mayo	2023-05-05T00:00:00	2024-11-06T02:00:00	1	Precipitación	0
93904	7	Sololá	702	San José Chacayá	5	Chacayá	5	Mayo	2023-05-05T00:00:00	2024-11-06T02:00:00	8	Radiación solar	0
93905	7	Sololá	702	San José Chacayá	5	Chacayá	5	Mayo	2023-05-05T00:00:00	2024-11-06T03:00:00	2	Temperatura media	11.4
93906	7	Sololá	702	San José Chacayá	5	Chacayá	5	Mayo	2023-05-05T00:00:00	2024-11-06T03:00:00	4	Temperatura máxima	12
93907	7	Sololá	702	San José Chacayá	5	Chacayá	5	Mayo	2023-05-05T00:00:00	2024-11-06T03:00:00	3	Temperatura mínima	11.4
93908	7	Sololá	702	San José Chacayá	5	Chacayá	5	Mayo	2023-05-05T00:00:00	2024-11-06T03:00:00	5	Humedad	84
93909	7	Sololá	702	San José Chacayá	5	Chacayá	5	Mayo	2023-05-05T00:00:00	2024-11-06T03:00:00	6	Velocidad del viento	3.2
93910	7	Sololá	702	San José Chacayá	5	Chacayá	5	Mayo	2023-05-05T00:00:00	2024-11-06T03:00:00	7	Dirección del viento	3.22
93911	7	Sololá	702	San José Chacayá	5	Chacayá	5	Mayo	2023-05-05T00:00:00	2024-11-06T03:00:00	1	Precipitación	0
93912	7	Sololá	702	San José Chacayá	5	Chacayá	5	Mayo	2023-05-05T00:00:00	2024-11-06T03:00:00	8	Radiación solar	0
93913	7	Sololá	702	San José Chacayá	5	Chacayá	5	Mayo	2023-05-05T00:00:00	2024-11-06T04:00:00	2	Temperatura media	10.8
93914	7	Sololá	702	San José Chacayá	5	Chacayá	5	Mayo	2023-05-05T00:00:00	2024-11-06T04:00:00	4	Temperatura máxima	11.4
93915	7	Sololá	702	San José Chacayá	5	Chacayá	5	Mayo	2023-05-05T00:00:00	2024-11-06T04:00:00	3	Temperatura mínima	10.8
93916	7	Sololá	702	San José Chacayá	5	Chacayá	5	Mayo	2023-05-05T00:00:00	2024-11-06T04:00:00	5	Humedad	84
93917	7	Sololá	702	San José Chacayá	5	Chacayá	5	Mayo	2023-05-05T00:00:00	2024-11-06T04:00:00	6	Velocidad del viento	3.2
93918	7	Sololá	702	San José Chacayá	5	Chacayá	5	Mayo	2023-05-05T00:00:00	2024-11-06T04:00:00	7	Dirección del viento	3.22
93919	7	Sololá	702	San José Chacayá	5	Chacayá	5	Mayo	2023-05-05T00:00:00	2024-11-06T04:00:00	1	Precipitación	0
93920	7	Sololá	702	San José Chacayá	5	Chacayá	5	Mayo	2023-05-05T00:00:00	2024-11-06T04:00:00	8	Radiación solar	0
93921	7	Sololá	702	San José Chacayá	5	Chacayá	5	Mayo	2023-05-05T00:00:00	2024-11-06T05:00:00	2	Temperatura media	10.2
93922	7	Sololá	702	San José Chacayá	5	Chacayá	5	Mayo	2023-05-05T00:00:00	2024-11-06T05:00:00	4	Temperatura máxima	10.8
93923	7	Sololá	702	San José Chacayá	5	Chacayá	5	Mayo	2023-05-05T00:00:00	2024-11-06T05:00:00	3	Temperatura mínima	10.2
93924	7	Sololá	702	San José Chacayá	5	Chacayá	5	Mayo	2023-05-05T00:00:00	2024-11-06T05:00:00	5	Humedad	84
93925	7	Sololá	702	San José Chacayá	5	Chacayá	5	Mayo	2023-05-05T00:00:00	2024-11-06T05:00:00	6	Velocidad del viento	1.6
93926	7	Sololá	702	San José Chacayá	5	Chacayá	5	Mayo	2023-05-05T00:00:00	2024-11-06T05:00:00	7	Dirección del viento	1.61
93927	7	Sololá	702	San José Chacayá	5	Chacayá	5	Mayo	2023-05-05T00:00:00	2024-11-06T05:00:00	1	Precipitación	0
93928	7	Sololá	702	San José Chacayá	5	Chacayá	5	Mayo	2023-05-05T00:00:00	2024-11-06T05:00:00	8	Radiación solar	0
93929	7	Sololá	702	San José Chacayá	5	Chacayá	5	Mayo	2023-05-05T00:00:00	2024-11-06T06:00:00	2	Temperatura media	9.9
93930	7	Sololá	702	San José Chacayá	5	Chacayá	5	Mayo	2023-05-05T00:00:00	2024-11-06T06:00:00	4	Temperatura máxima	10.4
93931	7	Sololá	702	San José Chacayá	5	Chacayá	5	Mayo	2023-05-05T00:00:00	2024-11-06T06:00:00	3	Temperatura mínima	9.9
93932	7	Sololá	702	San José Chacayá	5	Chacayá	5	Mayo	2023-05-05T00:00:00	2024-11-06T06:00:00	5	Humedad	84
93933	7	Sololá	702	San José Chacayá	5	Chacayá	5	Mayo	2023-05-05T00:00:00	2024-11-06T06:00:00	6	Velocidad del viento	1.6
93934	7	Sololá	702	San José Chacayá	5	Chacayá	5	Mayo	2023-05-05T00:00:00	2024-11-06T06:00:00	7	Dirección del viento	1.61
93935	7	Sololá	702	San José Chacayá	5	Chacayá	5	Mayo	2023-05-05T00:00:00	2024-11-06T06:00:00	1	Precipitación	0
93936	7	Sololá	702	San José Chacayá	5	Chacayá	5	Mayo	2023-05-05T00:00:00	2024-11-06T06:00:00	8	Radiación solar	0
93937	7	Sololá	702	San José Chacayá	5	Chacayá	5	Mayo	2023-05-05T00:00:00	2024-11-06T07:00:00	2	Temperatura media	10.1
93938	7	Sololá	702	San José Chacayá	5	Chacayá	5	Mayo	2023-05-05T00:00:00	2024-11-06T07:00:00	4	Temperatura máxima	10.1
93939	7	Sololá	702	San José Chacayá	5	Chacayá	5	Mayo	2023-05-05T00:00:00	2024-11-06T07:00:00	3	Temperatura mínima	9.8
93940	7	Sololá	702	San José Chacayá	5	Chacayá	5	Mayo	2023-05-05T00:00:00	2024-11-06T07:00:00	5	Humedad	84
93941	7	Sololá	702	San José Chacayá	5	Chacayá	5	Mayo	2023-05-05T00:00:00	2024-11-06T07:00:00	6	Velocidad del viento	3.2
93942	7	Sololá	702	San José Chacayá	5	Chacayá	5	Mayo	2023-05-05T00:00:00	2024-11-06T07:00:00	7	Dirección del viento	3.22
93943	7	Sololá	702	San José Chacayá	5	Chacayá	5	Mayo	2023-05-05T00:00:00	2024-11-06T07:00:00	1	Precipitación	0
93944	7	Sololá	702	San José Chacayá	5	Chacayá	5	Mayo	2023-05-05T00:00:00	2024-11-06T07:00:00	8	Radiación solar	5
93945	7	Sololá	702	San José Chacayá	5	Chacayá	5	Mayo	2023-05-05T00:00:00	2024-11-06T08:00:00	2	Temperatura media	12.9
93946	7	Sololá	702	San José Chacayá	5	Chacayá	5	Mayo	2023-05-05T00:00:00	2024-11-06T08:00:00	4	Temperatura máxima	12.9
93947	7	Sololá	702	San José Chacayá	5	Chacayá	5	Mayo	2023-05-05T00:00:00	2024-11-06T08:00:00	3	Temperatura mínima	10.1
93948	7	Sololá	702	San José Chacayá	5	Chacayá	5	Mayo	2023-05-05T00:00:00	2024-11-06T08:00:00	5	Humedad	83
93949	7	Sololá	702	San José Chacayá	5	Chacayá	5	Mayo	2023-05-05T00:00:00	2024-11-06T08:00:00	6	Velocidad del viento	3.2
93950	7	Sololá	702	San José Chacayá	5	Chacayá	5	Mayo	2023-05-05T00:00:00	2024-11-06T08:00:00	7	Dirección del viento	3.22
93951	7	Sololá	702	San José Chacayá	5	Chacayá	5	Mayo	2023-05-05T00:00:00	2024-11-06T08:00:00	1	Precipitación	0
93952	7	Sololá	702	San José Chacayá	5	Chacayá	5	Mayo	2023-05-05T00:00:00	2024-11-06T08:00:00	8	Radiación solar	47
93953	7	Sololá	702	San José Chacayá	5	Chacayá	5	Mayo	2023-05-05T00:00:00	2024-11-06T09:00:00	2	Temperatura media	19.2
93954	7	Sololá	702	San José Chacayá	5	Chacayá	5	Mayo	2023-05-05T00:00:00	2024-11-06T09:00:00	4	Temperatura máxima	19.2
93955	7	Sololá	702	San José Chacayá	5	Chacayá	5	Mayo	2023-05-05T00:00:00	2024-11-06T09:00:00	3	Temperatura mínima	12.9
93956	7	Sololá	702	San José Chacayá	5	Chacayá	5	Mayo	2023-05-05T00:00:00	2024-11-06T09:00:00	5	Humedad	54
93957	7	Sololá	702	San José Chacayá	5	Chacayá	5	Mayo	2023-05-05T00:00:00	2024-11-06T09:00:00	6	Velocidad del viento	1.6
93958	7	Sololá	702	San José Chacayá	5	Chacayá	5	Mayo	2023-05-05T00:00:00	2024-11-06T09:00:00	7	Dirección del viento	1.61
93959	7	Sololá	702	San José Chacayá	5	Chacayá	5	Mayo	2023-05-05T00:00:00	2024-11-06T09:00:00	1	Precipitación	0
93960	7	Sololá	702	San José Chacayá	5	Chacayá	5	Mayo	2023-05-05T00:00:00	2024-11-06T09:00:00	8	Radiación solar	76
93961	7	Sololá	702	San José Chacayá	5	Chacayá	5	Mayo	2023-05-05T00:00:00	2024-11-06T10:00:00	2	Temperatura media	21.8
93962	7	Sololá	702	San José Chacayá	5	Chacayá	5	Mayo	2023-05-05T00:00:00	2024-11-06T10:00:00	4	Temperatura máxima	21.8
93963	7	Sololá	702	San José Chacayá	5	Chacayá	5	Mayo	2023-05-05T00:00:00	2024-11-06T10:00:00	3	Temperatura mínima	19.2
93964	7	Sololá	702	San José Chacayá	5	Chacayá	5	Mayo	2023-05-05T00:00:00	2024-11-06T10:00:00	5	Humedad	47
93965	7	Sololá	702	San José Chacayá	5	Chacayá	5	Mayo	2023-05-05T00:00:00	2024-11-06T10:00:00	6	Velocidad del viento	6.4
93966	7	Sololá	702	San José Chacayá	5	Chacayá	5	Mayo	2023-05-05T00:00:00	2024-11-06T10:00:00	7	Dirección del viento	6.44
93967	7	Sololá	702	San José Chacayá	5	Chacayá	5	Mayo	2023-05-05T00:00:00	2024-11-06T10:00:00	1	Precipitación	0
93968	7	Sololá	702	San José Chacayá	5	Chacayá	5	Mayo	2023-05-05T00:00:00	2024-11-06T10:00:00	8	Radiación solar	539
93969	7	Sololá	702	San José Chacayá	5	Chacayá	5	Mayo	2023-05-05T00:00:00	2024-11-06T11:00:00	2	Temperatura media	23.3
93970	7	Sololá	702	San José Chacayá	5	Chacayá	5	Mayo	2023-05-05T00:00:00	2024-11-06T11:00:00	4	Temperatura máxima	23.4
93971	7	Sololá	702	San José Chacayá	5	Chacayá	5	Mayo	2023-05-05T00:00:00	2024-11-06T11:00:00	3	Temperatura mínima	21.8
93972	7	Sololá	702	San José Chacayá	5	Chacayá	5	Mayo	2023-05-05T00:00:00	2024-11-06T11:00:00	5	Humedad	39
93973	7	Sololá	702	San José Chacayá	5	Chacayá	5	Mayo	2023-05-05T00:00:00	2024-11-06T11:00:00	6	Velocidad del viento	6.4
93974	7	Sololá	702	San José Chacayá	5	Chacayá	5	Mayo	2023-05-05T00:00:00	2024-11-06T11:00:00	7	Dirección del viento	6.44
93975	7	Sololá	702	San José Chacayá	5	Chacayá	5	Mayo	2023-05-05T00:00:00	2024-11-06T11:00:00	1	Precipitación	0
93976	7	Sololá	702	San José Chacayá	5	Chacayá	5	Mayo	2023-05-05T00:00:00	2024-11-06T11:00:00	8	Radiación solar	799
93977	7	Sololá	702	San José Chacayá	5	Chacayá	5	Mayo	2023-05-05T00:00:00	2024-11-06T12:00:00	2	Temperatura media	23.8
93978	7	Sololá	702	San José Chacayá	5	Chacayá	5	Mayo	2023-05-05T00:00:00	2024-11-06T12:00:00	4	Temperatura máxima	23.9
93979	7	Sololá	702	San José Chacayá	5	Chacayá	5	Mayo	2023-05-05T00:00:00	2024-11-06T12:00:00	3	Temperatura mínima	23.1
93980	7	Sololá	702	San José Chacayá	5	Chacayá	5	Mayo	2023-05-05T00:00:00	2024-11-06T12:00:00	5	Humedad	37
93981	7	Sololá	702	San José Chacayá	5	Chacayá	5	Mayo	2023-05-05T00:00:00	2024-11-06T12:00:00	6	Velocidad del viento	6.4
93982	7	Sololá	702	San José Chacayá	5	Chacayá	5	Mayo	2023-05-05T00:00:00	2024-11-06T12:00:00	7	Dirección del viento	6.44
93983	7	Sololá	702	San José Chacayá	5	Chacayá	5	Mayo	2023-05-05T00:00:00	2024-11-06T12:00:00	1	Precipitación	0
93984	7	Sololá	702	San José Chacayá	5	Chacayá	5	Mayo	2023-05-05T00:00:00	2024-11-06T12:00:00	8	Radiación solar	934
93985	7	Sololá	702	San José Chacayá	5	Chacayá	5	Mayo	2023-05-05T00:00:00	2024-11-06T13:00:00	2	Temperatura media	25.6
93986	7	Sololá	702	San José Chacayá	5	Chacayá	5	Mayo	2023-05-05T00:00:00	2024-11-06T13:00:00	4	Temperatura máxima	25.6
93987	7	Sololá	702	San José Chacayá	5	Chacayá	5	Mayo	2023-05-05T00:00:00	2024-11-06T13:00:00	3	Temperatura mínima	23.8
93988	7	Sololá	702	San José Chacayá	5	Chacayá	5	Mayo	2023-05-05T00:00:00	2024-11-06T13:00:00	5	Humedad	33
93989	7	Sololá	702	San José Chacayá	5	Chacayá	5	Mayo	2023-05-05T00:00:00	2024-11-06T13:00:00	6	Velocidad del viento	6.4
93990	7	Sololá	702	San José Chacayá	5	Chacayá	5	Mayo	2023-05-05T00:00:00	2024-11-06T13:00:00	7	Dirección del viento	6.44
93991	7	Sololá	702	San José Chacayá	5	Chacayá	5	Mayo	2023-05-05T00:00:00	2024-11-06T13:00:00	1	Precipitación	0
93992	7	Sololá	702	San José Chacayá	5	Chacayá	5	Mayo	2023-05-05T00:00:00	2024-11-06T13:00:00	8	Radiación solar	989
93993	7	Sololá	702	San José Chacayá	5	Chacayá	5	Mayo	2023-05-05T00:00:00	2024-11-06T14:00:00	2	Temperatura media	25.6
93994	7	Sololá	702	San José Chacayá	5	Chacayá	5	Mayo	2023-05-05T00:00:00	2024-11-06T14:00:00	4	Temperatura máxima	25.8
93995	7	Sololá	702	San José Chacayá	5	Chacayá	5	Mayo	2023-05-05T00:00:00	2024-11-06T14:00:00	3	Temperatura mínima	25.2
93996	7	Sololá	702	San José Chacayá	5	Chacayá	5	Mayo	2023-05-05T00:00:00	2024-11-06T14:00:00	5	Humedad	29
93997	7	Sololá	702	San José Chacayá	5	Chacayá	5	Mayo	2023-05-05T00:00:00	2024-11-06T14:00:00	6	Velocidad del viento	6.4
93998	7	Sololá	702	San José Chacayá	5	Chacayá	5	Mayo	2023-05-05T00:00:00	2024-11-06T14:00:00	7	Dirección del viento	6.44
93999	7	Sololá	702	San José Chacayá	5	Chacayá	5	Mayo	2023-05-05T00:00:00	2024-11-06T14:00:00	1	Precipitación	0
94000	7	Sololá	702	San José Chacayá	5	Chacayá	5	Mayo	2023-05-05T00:00:00	2024-11-06T14:00:00	8	Radiación solar	1000
94001	7	Sololá	702	San José Chacayá	5	Chacayá	5	Mayo	2023-05-05T00:00:00	2024-11-06T15:00:00	2	Temperatura media	26
94002	7	Sololá	702	San José Chacayá	5	Chacayá	5	Mayo	2023-05-05T00:00:00	2024-11-06T15:00:00	4	Temperatura máxima	26
94003	7	Sololá	702	San José Chacayá	5	Chacayá	5	Mayo	2023-05-05T00:00:00	2024-11-06T15:00:00	3	Temperatura mínima	25.1
94004	7	Sololá	702	San José Chacayá	5	Chacayá	5	Mayo	2023-05-05T00:00:00	2024-11-06T15:00:00	5	Humedad	27
94005	7	Sololá	702	San José Chacayá	5	Chacayá	5	Mayo	2023-05-05T00:00:00	2024-11-06T15:00:00	6	Velocidad del viento	9.7
94006	7	Sololá	702	San José Chacayá	5	Chacayá	5	Mayo	2023-05-05T00:00:00	2024-11-06T15:00:00	7	Dirección del viento	9.66
94007	7	Sololá	702	San José Chacayá	5	Chacayá	5	Mayo	2023-05-05T00:00:00	2024-11-06T15:00:00	1	Precipitación	0
94008	7	Sololá	702	San José Chacayá	5	Chacayá	5	Mayo	2023-05-05T00:00:00	2024-11-06T15:00:00	8	Radiación solar	949
94009	7	Sololá	702	San José Chacayá	5	Chacayá	5	Mayo	2023-05-05T00:00:00	2024-11-06T16:00:00	2	Temperatura media	24.3
94010	7	Sololá	702	San José Chacayá	5	Chacayá	5	Mayo	2023-05-05T00:00:00	2024-11-06T16:00:00	4	Temperatura máxima	26
94011	7	Sololá	702	San José Chacayá	5	Chacayá	5	Mayo	2023-05-05T00:00:00	2024-11-06T16:00:00	3	Temperatura mínima	23.3
94012	7	Sololá	702	San José Chacayá	5	Chacayá	5	Mayo	2023-05-05T00:00:00	2024-11-06T16:00:00	5	Humedad	46
94013	7	Sololá	702	San José Chacayá	5	Chacayá	5	Mayo	2023-05-05T00:00:00	2024-11-06T16:00:00	6	Velocidad del viento	9.7
94014	7	Sololá	702	San José Chacayá	5	Chacayá	5	Mayo	2023-05-05T00:00:00	2024-11-06T16:00:00	7	Dirección del viento	9.66
94015	7	Sololá	702	San José Chacayá	5	Chacayá	5	Mayo	2023-05-05T00:00:00	2024-11-06T16:00:00	1	Precipitación	0
94016	7	Sololá	702	San José Chacayá	5	Chacayá	5	Mayo	2023-05-05T00:00:00	2024-11-06T16:00:00	8	Radiación solar	801
94017	7	Sololá	702	San José Chacayá	5	Chacayá	5	Mayo	2023-05-05T00:00:00	2024-11-06T17:00:00	2	Temperatura media	22.7
94018	7	Sololá	702	San José Chacayá	5	Chacayá	5	Mayo	2023-05-05T00:00:00	2024-11-06T17:00:00	4	Temperatura máxima	24.3
94019	7	Sololá	702	San José Chacayá	5	Chacayá	5	Mayo	2023-05-05T00:00:00	2024-11-06T17:00:00	3	Temperatura mínima	22.7
94020	7	Sololá	702	San José Chacayá	5	Chacayá	5	Mayo	2023-05-05T00:00:00	2024-11-06T17:00:00	5	Humedad	60
94021	7	Sololá	702	San José Chacayá	5	Chacayá	5	Mayo	2023-05-05T00:00:00	2024-11-06T17:00:00	6	Velocidad del viento	8
94022	7	Sololá	702	San José Chacayá	5	Chacayá	5	Mayo	2023-05-05T00:00:00	2024-11-06T17:00:00	7	Dirección del viento	8.05
94023	7	Sololá	702	San José Chacayá	5	Chacayá	5	Mayo	2023-05-05T00:00:00	2024-11-06T17:00:00	1	Precipitación	0
94024	7	Sololá	702	San José Chacayá	5	Chacayá	5	Mayo	2023-05-05T00:00:00	2024-11-06T17:00:00	8	Radiación solar	597
94025	7	Sololá	702	San José Chacayá	5	Chacayá	5	Mayo	2023-05-05T00:00:00	2024-11-06T18:00:00	2	Temperatura media	20.5
94026	7	Sololá	702	San José Chacayá	5	Chacayá	5	Mayo	2023-05-05T00:00:00	2024-11-06T18:00:00	4	Temperatura máxima	22.7
94027	7	Sololá	702	San José Chacayá	5	Chacayá	5	Mayo	2023-05-05T00:00:00	2024-11-06T18:00:00	3	Temperatura mínima	20.5
94028	7	Sololá	702	San José Chacayá	5	Chacayá	5	Mayo	2023-05-05T00:00:00	2024-11-06T18:00:00	5	Humedad	74
94029	7	Sololá	702	San José Chacayá	5	Chacayá	5	Mayo	2023-05-05T00:00:00	2024-11-06T18:00:00	6	Velocidad del viento	3.2
94030	7	Sololá	702	San José Chacayá	5	Chacayá	5	Mayo	2023-05-05T00:00:00	2024-11-06T18:00:00	7	Dirección del viento	3.22
94031	7	Sololá	702	San José Chacayá	5	Chacayá	5	Mayo	2023-05-05T00:00:00	2024-11-06T18:00:00	1	Precipitación	0
94032	7	Sololá	702	San José Chacayá	5	Chacayá	5	Mayo	2023-05-05T00:00:00	2024-11-06T18:00:00	8	Radiación solar	128
94033	7	Sololá	702	San José Chacayá	5	Chacayá	5	Mayo	2023-05-05T00:00:00	2024-11-06T19:00:00	2	Temperatura media	18.7
94034	7	Sololá	702	San José Chacayá	5	Chacayá	5	Mayo	2023-05-05T00:00:00	2024-11-06T19:00:00	4	Temperatura máxima	20.5
94035	7	Sololá	702	San José Chacayá	5	Chacayá	5	Mayo	2023-05-05T00:00:00	2024-11-06T19:00:00	3	Temperatura mínima	18.7
94036	7	Sololá	702	San José Chacayá	5	Chacayá	5	Mayo	2023-05-05T00:00:00	2024-11-06T19:00:00	5	Humedad	81
94037	7	Sololá	702	San José Chacayá	5	Chacayá	5	Mayo	2023-05-05T00:00:00	2024-11-06T19:00:00	6	Velocidad del viento	0
94038	7	Sololá	702	San José Chacayá	5	Chacayá	5	Mayo	2023-05-05T00:00:00	2024-11-06T19:00:00	7	Dirección del viento	0
94039	7	Sololá	702	San José Chacayá	5	Chacayá	5	Mayo	2023-05-05T00:00:00	2024-11-06T19:00:00	1	Precipitación	0
94040	7	Sololá	702	San José Chacayá	5	Chacayá	5	Mayo	2023-05-05T00:00:00	2024-11-06T19:00:00	8	Radiación solar	0
94041	7	Sololá	702	San José Chacayá	5	Chacayá	5	Mayo	2023-05-05T00:00:00	2024-11-06T20:00:00	2	Temperatura media	17.4
94042	7	Sololá	702	San José Chacayá	5	Chacayá	5	Mayo	2023-05-05T00:00:00	2024-11-06T20:00:00	4	Temperatura máxima	18.7
94043	7	Sololá	702	San José Chacayá	5	Chacayá	5	Mayo	2023-05-05T00:00:00	2024-11-06T20:00:00	3	Temperatura mínima	17.4
94044	7	Sololá	702	San José Chacayá	5	Chacayá	5	Mayo	2023-05-05T00:00:00	2024-11-06T20:00:00	5	Humedad	81
94045	7	Sololá	702	San José Chacayá	5	Chacayá	5	Mayo	2023-05-05T00:00:00	2024-11-06T20:00:00	6	Velocidad del viento	0
94046	7	Sololá	702	San José Chacayá	5	Chacayá	5	Mayo	2023-05-05T00:00:00	2024-11-06T20:00:00	7	Dirección del viento	0
94047	7	Sololá	702	San José Chacayá	5	Chacayá	5	Mayo	2023-05-05T00:00:00	2024-11-06T20:00:00	1	Precipitación	0
94048	7	Sololá	702	San José Chacayá	5	Chacayá	5	Mayo	2023-05-05T00:00:00	2024-11-06T20:00:00	8	Radiación solar	0
94049	7	Sololá	702	San José Chacayá	5	Chacayá	5	Mayo	2023-05-05T00:00:00	2024-11-06T21:00:00	2	Temperatura media	16.9
94050	7	Sololá	702	San José Chacayá	5	Chacayá	5	Mayo	2023-05-05T00:00:00	2024-11-06T21:00:00	4	Temperatura máxima	17.4
94051	7	Sololá	702	San José Chacayá	5	Chacayá	5	Mayo	2023-05-05T00:00:00	2024-11-06T21:00:00	3	Temperatura mínima	16.4
94052	7	Sololá	702	San José Chacayá	5	Chacayá	5	Mayo	2023-05-05T00:00:00	2024-11-06T21:00:00	5	Humedad	80
94053	7	Sololá	702	San José Chacayá	5	Chacayá	5	Mayo	2023-05-05T00:00:00	2024-11-06T21:00:00	6	Velocidad del viento	0
94054	7	Sololá	702	San José Chacayá	5	Chacayá	5	Mayo	2023-05-05T00:00:00	2024-11-06T21:00:00	7	Dirección del viento	0
94055	7	Sololá	702	San José Chacayá	5	Chacayá	5	Mayo	2023-05-05T00:00:00	2024-11-06T21:00:00	1	Precipitación	0
94056	7	Sololá	702	San José Chacayá	5	Chacayá	5	Mayo	2023-05-05T00:00:00	2024-11-06T21:00:00	8	Radiación solar	0
94057	7	Sololá	702	San José Chacayá	5	Chacayá	5	Mayo	2023-05-05T00:00:00	2024-11-06T22:00:00	2	Temperatura media	16.8
94058	7	Sololá	702	San José Chacayá	5	Chacayá	5	Mayo	2023-05-05T00:00:00	2024-11-06T22:00:00	4	Temperatura máxima	17.2
94059	7	Sololá	702	San José Chacayá	5	Chacayá	5	Mayo	2023-05-05T00:00:00	2024-11-06T22:00:00	3	Temperatura mínima	16.8
94060	7	Sololá	702	San José Chacayá	5	Chacayá	5	Mayo	2023-05-05T00:00:00	2024-11-06T22:00:00	5	Humedad	79
94061	7	Sololá	702	San José Chacayá	5	Chacayá	5	Mayo	2023-05-05T00:00:00	2024-11-06T22:00:00	6	Velocidad del viento	1.6
94062	7	Sololá	702	San José Chacayá	5	Chacayá	5	Mayo	2023-05-05T00:00:00	2024-11-06T22:00:00	7	Dirección del viento	1.61
94063	7	Sololá	702	San José Chacayá	5	Chacayá	5	Mayo	2023-05-05T00:00:00	2024-11-06T22:00:00	1	Precipitación	0
94064	7	Sololá	702	San José Chacayá	5	Chacayá	5	Mayo	2023-05-05T00:00:00	2024-11-06T22:00:00	8	Radiación solar	0
94065	7	Sololá	702	San José Chacayá	5	Chacayá	5	Mayo	2023-05-05T00:00:00	2024-11-06T23:00:00	2	Temperatura media	14.8
94066	7	Sololá	702	San José Chacayá	5	Chacayá	5	Mayo	2023-05-05T00:00:00	2024-11-06T23:00:00	4	Temperatura máxima	16.8
94067	7	Sololá	702	San José Chacayá	5	Chacayá	5	Mayo	2023-05-05T00:00:00	2024-11-06T23:00:00	3	Temperatura mínima	14.7
94068	7	Sololá	702	San José Chacayá	5	Chacayá	5	Mayo	2023-05-05T00:00:00	2024-11-06T23:00:00	5	Humedad	82
94069	7	Sololá	702	San José Chacayá	5	Chacayá	5	Mayo	2023-05-05T00:00:00	2024-11-06T23:00:00	6	Velocidad del viento	1.6
94070	7	Sololá	702	San José Chacayá	5	Chacayá	5	Mayo	2023-05-05T00:00:00	2024-11-06T23:00:00	7	Dirección del viento	1.61
94071	7	Sololá	702	San José Chacayá	5	Chacayá	5	Mayo	2023-05-05T00:00:00	2024-11-06T23:00:00	1	Precipitación	0
94072	7	Sololá	702	San José Chacayá	5	Chacayá	5	Mayo	2023-05-05T00:00:00	2024-11-06T23:00:00	8	Radiación solar	0
94073	7	Sololá	702	San José Chacayá	5	Chacayá	5	Mayo	2023-06-05T00:00:00	2024-11-06T00:00:00	2	Temperatura media	14.7
94074	7	Sololá	702	San José Chacayá	5	Chacayá	5	Mayo	2023-06-05T00:00:00	2024-11-06T00:00:00	4	Temperatura máxima	15.6
94075	7	Sololá	702	San José Chacayá	5	Chacayá	5	Mayo	2023-06-05T00:00:00	2024-11-06T00:00:00	3	Temperatura mínima	14.4
94076	7	Sololá	702	San José Chacayá	5	Chacayá	5	Mayo	2023-06-05T00:00:00	2024-11-06T00:00:00	5	Humedad	80
94077	7	Sololá	702	San José Chacayá	5	Chacayá	5	Mayo	2023-06-05T00:00:00	2024-11-06T00:00:00	6	Velocidad del viento	3.2
94078	7	Sololá	702	San José Chacayá	5	Chacayá	5	Mayo	2023-06-05T00:00:00	2024-11-06T00:00:00	7	Dirección del viento	3.22
94079	7	Sololá	702	San José Chacayá	5	Chacayá	5	Mayo	2023-06-05T00:00:00	2024-11-06T00:00:00	1	Precipitación	0
94080	7	Sololá	702	San José Chacayá	5	Chacayá	5	Mayo	2023-06-05T00:00:00	2024-11-06T00:00:00	8	Radiación solar	0
94081	7	Sololá	702	San José Chacayá	5	Chacayá	5	Mayo	2023-06-05T00:00:00	2024-11-06T01:00:00	2	Temperatura media	11.9
94082	7	Sololá	702	San José Chacayá	5	Chacayá	5	Mayo	2023-06-05T00:00:00	2024-11-06T01:00:00	4	Temperatura máxima	14.7
94083	7	Sololá	702	San José Chacayá	5	Chacayá	5	Mayo	2023-06-05T00:00:00	2024-11-06T01:00:00	3	Temperatura mínima	11.9
94084	7	Sololá	702	San José Chacayá	5	Chacayá	5	Mayo	2023-06-05T00:00:00	2024-11-06T01:00:00	5	Humedad	84
94085	7	Sololá	702	San José Chacayá	5	Chacayá	5	Mayo	2023-06-05T00:00:00	2024-11-06T01:00:00	6	Velocidad del viento	3.2
94086	7	Sololá	702	San José Chacayá	5	Chacayá	5	Mayo	2023-06-05T00:00:00	2024-11-06T01:00:00	7	Dirección del viento	3.22
94087	7	Sololá	702	San José Chacayá	5	Chacayá	5	Mayo	2023-06-05T00:00:00	2024-11-06T01:00:00	1	Precipitación	0
94088	7	Sololá	702	San José Chacayá	5	Chacayá	5	Mayo	2023-06-05T00:00:00	2024-11-06T01:00:00	8	Radiación solar	0
94089	7	Sololá	702	San José Chacayá	5	Chacayá	5	Mayo	2023-06-05T00:00:00	2024-11-06T02:00:00	2	Temperatura media	11.2
94090	7	Sololá	702	San José Chacayá	5	Chacayá	5	Mayo	2023-06-05T00:00:00	2024-11-06T02:00:00	4	Temperatura máxima	11.9
94091	7	Sololá	702	San José Chacayá	5	Chacayá	5	Mayo	2023-06-05T00:00:00	2024-11-06T02:00:00	3	Temperatura mínima	11.2
94092	7	Sololá	702	San José Chacayá	5	Chacayá	5	Mayo	2023-06-05T00:00:00	2024-11-06T02:00:00	5	Humedad	84
94093	7	Sololá	702	San José Chacayá	5	Chacayá	5	Mayo	2023-06-05T00:00:00	2024-11-06T02:00:00	6	Velocidad del viento	1.6
94094	7	Sololá	702	San José Chacayá	5	Chacayá	5	Mayo	2023-06-05T00:00:00	2024-11-06T02:00:00	7	Dirección del viento	1.61
94095	7	Sololá	702	San José Chacayá	5	Chacayá	5	Mayo	2023-06-05T00:00:00	2024-11-06T02:00:00	1	Precipitación	0
94096	7	Sololá	702	San José Chacayá	5	Chacayá	5	Mayo	2023-06-05T00:00:00	2024-11-06T02:00:00	8	Radiación solar	0
94097	7	Sololá	702	San José Chacayá	5	Chacayá	5	Mayo	2023-06-05T00:00:00	2024-11-06T03:00:00	2	Temperatura media	10
94098	7	Sololá	702	San José Chacayá	5	Chacayá	5	Mayo	2023-06-05T00:00:00	2024-11-06T03:00:00	4	Temperatura máxima	11.2
94099	7	Sololá	702	San José Chacayá	5	Chacayá	5	Mayo	2023-06-05T00:00:00	2024-11-06T03:00:00	3	Temperatura mínima	10
94100	7	Sololá	702	San José Chacayá	5	Chacayá	5	Mayo	2023-06-05T00:00:00	2024-11-06T03:00:00	5	Humedad	84
94101	7	Sololá	702	San José Chacayá	5	Chacayá	5	Mayo	2023-06-05T00:00:00	2024-11-06T03:00:00	6	Velocidad del viento	3.2
94102	7	Sololá	702	San José Chacayá	5	Chacayá	5	Mayo	2023-06-05T00:00:00	2024-11-06T03:00:00	7	Dirección del viento	3.22
94103	7	Sololá	702	San José Chacayá	5	Chacayá	5	Mayo	2023-06-05T00:00:00	2024-11-06T03:00:00	1	Precipitación	0
94104	7	Sololá	702	San José Chacayá	5	Chacayá	5	Mayo	2023-06-05T00:00:00	2024-11-06T03:00:00	8	Radiación solar	0
94105	7	Sololá	702	San José Chacayá	5	Chacayá	5	Mayo	2023-06-05T00:00:00	2024-11-06T04:00:00	2	Temperatura media	9
94106	7	Sololá	702	San José Chacayá	5	Chacayá	5	Mayo	2023-06-05T00:00:00	2024-11-06T04:00:00	4	Temperatura máxima	9.9
94107	7	Sololá	702	San José Chacayá	5	Chacayá	5	Mayo	2023-06-05T00:00:00	2024-11-06T04:00:00	3	Temperatura mínima	9
94108	7	Sololá	702	San José Chacayá	5	Chacayá	5	Mayo	2023-06-05T00:00:00	2024-11-06T04:00:00	5	Humedad	82
94109	7	Sololá	702	San José Chacayá	5	Chacayá	5	Mayo	2023-06-05T00:00:00	2024-11-06T04:00:00	6	Velocidad del viento	4.8
94110	7	Sololá	702	San José Chacayá	5	Chacayá	5	Mayo	2023-06-05T00:00:00	2024-11-06T04:00:00	7	Dirección del viento	4.83
94111	7	Sololá	702	San José Chacayá	5	Chacayá	5	Mayo	2023-06-05T00:00:00	2024-11-06T04:00:00	1	Precipitación	0
94112	7	Sololá	702	San José Chacayá	5	Chacayá	5	Mayo	2023-06-05T00:00:00	2024-11-06T04:00:00	8	Radiación solar	0
94113	7	Sololá	702	San José Chacayá	5	Chacayá	5	Mayo	2023-06-05T00:00:00	2024-11-06T05:00:00	2	Temperatura media	8.2
94114	7	Sololá	702	San José Chacayá	5	Chacayá	5	Mayo	2023-06-05T00:00:00	2024-11-06T05:00:00	4	Temperatura máxima	9
94115	7	Sololá	702	San José Chacayá	5	Chacayá	5	Mayo	2023-06-05T00:00:00	2024-11-06T05:00:00	3	Temperatura mínima	8.2
94116	7	Sololá	702	San José Chacayá	5	Chacayá	5	Mayo	2023-06-05T00:00:00	2024-11-06T05:00:00	5	Humedad	80
94117	7	Sololá	702	San José Chacayá	5	Chacayá	5	Mayo	2023-06-05T00:00:00	2024-11-06T05:00:00	6	Velocidad del viento	6.4
94118	7	Sololá	702	San José Chacayá	5	Chacayá	5	Mayo	2023-06-05T00:00:00	2024-11-06T05:00:00	7	Dirección del viento	6.44
94119	7	Sololá	702	San José Chacayá	5	Chacayá	5	Mayo	2023-06-05T00:00:00	2024-11-06T05:00:00	1	Precipitación	0
94120	7	Sololá	702	San José Chacayá	5	Chacayá	5	Mayo	2023-06-05T00:00:00	2024-11-06T05:00:00	8	Radiación solar	0
94121	7	Sololá	702	San José Chacayá	5	Chacayá	5	Mayo	2023-06-05T00:00:00	2024-11-06T06:00:00	2	Temperatura media	7.6
94122	7	Sololá	702	San José Chacayá	5	Chacayá	5	Mayo	2023-06-05T00:00:00	2024-11-06T06:00:00	4	Temperatura máxima	8.5
94123	7	Sololá	702	San José Chacayá	5	Chacayá	5	Mayo	2023-06-05T00:00:00	2024-11-06T06:00:00	3	Temperatura mínima	7.6
94124	7	Sololá	702	San José Chacayá	5	Chacayá	5	Mayo	2023-06-05T00:00:00	2024-11-06T06:00:00	5	Humedad	79
94125	7	Sololá	702	San José Chacayá	5	Chacayá	5	Mayo	2023-06-05T00:00:00	2024-11-06T06:00:00	6	Velocidad del viento	4.8
94126	7	Sololá	702	San José Chacayá	5	Chacayá	5	Mayo	2023-06-05T00:00:00	2024-11-06T06:00:00	7	Dirección del viento	4.83
94127	7	Sololá	702	San José Chacayá	5	Chacayá	5	Mayo	2023-06-05T00:00:00	2024-11-06T06:00:00	1	Precipitación	0
94128	7	Sololá	702	San José Chacayá	5	Chacayá	5	Mayo	2023-06-05T00:00:00	2024-11-06T06:00:00	8	Radiación solar	0
94129	7	Sololá	702	San José Chacayá	5	Chacayá	5	Mayo	2023-06-05T00:00:00	2024-11-06T07:00:00	2	Temperatura media	7.2
94130	7	Sololá	702	San José Chacayá	5	Chacayá	5	Mayo	2023-06-05T00:00:00	2024-11-06T07:00:00	4	Temperatura máxima	7.7
94131	7	Sololá	702	San José Chacayá	5	Chacayá	5	Mayo	2023-06-05T00:00:00	2024-11-06T07:00:00	3	Temperatura mínima	7.1
94132	7	Sololá	702	San José Chacayá	5	Chacayá	5	Mayo	2023-06-05T00:00:00	2024-11-06T07:00:00	5	Humedad	81
94133	7	Sololá	702	San José Chacayá	5	Chacayá	5	Mayo	2023-06-05T00:00:00	2024-11-06T07:00:00	6	Velocidad del viento	4.8
94134	7	Sololá	702	San José Chacayá	5	Chacayá	5	Mayo	2023-06-05T00:00:00	2024-11-06T07:00:00	7	Dirección del viento	4.83
94135	7	Sololá	702	San José Chacayá	5	Chacayá	5	Mayo	2023-06-05T00:00:00	2024-11-06T07:00:00	1	Precipitación	0
94136	7	Sololá	702	San José Chacayá	5	Chacayá	5	Mayo	2023-06-05T00:00:00	2024-11-06T07:00:00	8	Radiación solar	4
94137	7	Sololá	702	San José Chacayá	5	Chacayá	5	Mayo	2023-06-05T00:00:00	2024-11-06T08:00:00	2	Temperatura media	10.5
94138	7	Sololá	702	San José Chacayá	5	Chacayá	5	Mayo	2023-06-05T00:00:00	2024-11-06T08:00:00	4	Temperatura máxima	10.5
94139	7	Sololá	702	San José Chacayá	5	Chacayá	5	Mayo	2023-06-05T00:00:00	2024-11-06T08:00:00	3	Temperatura mínima	7.2
94140	7	Sololá	702	San José Chacayá	5	Chacayá	5	Mayo	2023-06-05T00:00:00	2024-11-06T08:00:00	5	Humedad	76
94141	7	Sololá	702	San José Chacayá	5	Chacayá	5	Mayo	2023-06-05T00:00:00	2024-11-06T08:00:00	6	Velocidad del viento	3.2
94142	7	Sololá	702	San José Chacayá	5	Chacayá	5	Mayo	2023-06-05T00:00:00	2024-11-06T08:00:00	7	Dirección del viento	3.22
94143	7	Sololá	702	San José Chacayá	5	Chacayá	5	Mayo	2023-06-05T00:00:00	2024-11-06T08:00:00	1	Precipitación	0
94144	7	Sololá	702	San José Chacayá	5	Chacayá	5	Mayo	2023-06-05T00:00:00	2024-11-06T08:00:00	8	Radiación solar	34
94145	7	Sololá	702	San José Chacayá	5	Chacayá	5	Mayo	2023-06-05T00:00:00	2024-11-06T09:00:00	2	Temperatura media	17.3
94146	7	Sololá	702	San José Chacayá	5	Chacayá	5	Mayo	2023-06-05T00:00:00	2024-11-06T09:00:00	4	Temperatura máxima	17.3
94147	7	Sololá	702	San José Chacayá	5	Chacayá	5	Mayo	2023-06-05T00:00:00	2024-11-06T09:00:00	3	Temperatura mínima	10.5
94148	7	Sololá	702	San José Chacayá	5	Chacayá	5	Mayo	2023-06-05T00:00:00	2024-11-06T09:00:00	5	Humedad	62
94149	7	Sololá	702	San José Chacayá	5	Chacayá	5	Mayo	2023-06-05T00:00:00	2024-11-06T09:00:00	6	Velocidad del viento	3.2
94150	7	Sololá	702	San José Chacayá	5	Chacayá	5	Mayo	2023-06-05T00:00:00	2024-11-06T09:00:00	7	Dirección del viento	3.22
94151	7	Sololá	702	San José Chacayá	5	Chacayá	5	Mayo	2023-06-05T00:00:00	2024-11-06T09:00:00	1	Precipitación	0
94152	7	Sololá	702	San José Chacayá	5	Chacayá	5	Mayo	2023-06-05T00:00:00	2024-11-06T09:00:00	8	Radiación solar	73
94153	7	Sololá	702	San José Chacayá	5	Chacayá	5	Mayo	2023-06-05T00:00:00	2024-11-06T10:00:00	2	Temperatura media	20.5
94154	7	Sololá	702	San José Chacayá	5	Chacayá	5	Mayo	2023-06-05T00:00:00	2024-11-06T10:00:00	4	Temperatura máxima	20.5
94155	7	Sololá	702	San José Chacayá	5	Chacayá	5	Mayo	2023-06-05T00:00:00	2024-11-06T10:00:00	3	Temperatura mínima	17.3
94156	7	Sololá	702	San José Chacayá	5	Chacayá	5	Mayo	2023-06-05T00:00:00	2024-11-06T10:00:00	5	Humedad	54
94157	7	Sololá	702	San José Chacayá	5	Chacayá	5	Mayo	2023-06-05T00:00:00	2024-11-06T10:00:00	6	Velocidad del viento	4.8
94158	7	Sololá	702	San José Chacayá	5	Chacayá	5	Mayo	2023-06-05T00:00:00	2024-11-06T10:00:00	7	Dirección del viento	4.83
94159	7	Sololá	702	San José Chacayá	5	Chacayá	5	Mayo	2023-06-05T00:00:00	2024-11-06T10:00:00	1	Precipitación	0
94160	7	Sololá	702	San José Chacayá	5	Chacayá	5	Mayo	2023-06-05T00:00:00	2024-11-06T10:00:00	8	Radiación solar	539
94161	7	Sololá	702	San José Chacayá	5	Chacayá	5	Mayo	2023-06-05T00:00:00	2024-11-06T11:00:00	2	Temperatura media	21.1
94162	7	Sololá	702	San José Chacayá	5	Chacayá	5	Mayo	2023-06-05T00:00:00	2024-11-06T11:00:00	4	Temperatura máxima	21.4
94163	7	Sololá	702	San José Chacayá	5	Chacayá	5	Mayo	2023-06-05T00:00:00	2024-11-06T11:00:00	3	Temperatura mínima	20.5
94164	7	Sololá	702	San José Chacayá	5	Chacayá	5	Mayo	2023-06-05T00:00:00	2024-11-06T11:00:00	5	Humedad	57
94165	7	Sololá	702	San José Chacayá	5	Chacayá	5	Mayo	2023-06-05T00:00:00	2024-11-06T11:00:00	6	Velocidad del viento	6.4
94166	7	Sololá	702	San José Chacayá	5	Chacayá	5	Mayo	2023-06-05T00:00:00	2024-11-06T11:00:00	7	Dirección del viento	6.44
94167	7	Sololá	702	San José Chacayá	5	Chacayá	5	Mayo	2023-06-05T00:00:00	2024-11-06T11:00:00	1	Precipitación	0
94168	7	Sololá	702	San José Chacayá	5	Chacayá	5	Mayo	2023-06-05T00:00:00	2024-11-06T11:00:00	8	Radiación solar	795
94169	7	Sololá	702	San José Chacayá	5	Chacayá	5	Mayo	2023-06-05T00:00:00	2024-11-06T12:00:00	2	Temperatura media	23.3
94170	7	Sololá	702	San José Chacayá	5	Chacayá	5	Mayo	2023-06-05T00:00:00	2024-11-06T12:00:00	4	Temperatura máxima	23.3
94171	7	Sololá	702	San José Chacayá	5	Chacayá	5	Mayo	2023-06-05T00:00:00	2024-11-06T12:00:00	3	Temperatura mínima	21.1
94172	7	Sololá	702	San José Chacayá	5	Chacayá	5	Mayo	2023-06-05T00:00:00	2024-11-06T12:00:00	5	Humedad	47
94173	7	Sololá	702	San José Chacayá	5	Chacayá	5	Mayo	2023-06-05T00:00:00	2024-11-06T12:00:00	6	Velocidad del viento	6.4
94174	7	Sololá	702	San José Chacayá	5	Chacayá	5	Mayo	2023-06-05T00:00:00	2024-11-06T12:00:00	7	Dirección del viento	6.44
94175	7	Sololá	702	San José Chacayá	5	Chacayá	5	Mayo	2023-06-05T00:00:00	2024-11-06T12:00:00	1	Precipitación	0
94176	7	Sololá	702	San José Chacayá	5	Chacayá	5	Mayo	2023-06-05T00:00:00	2024-11-06T12:00:00	8	Radiación solar	926
94177	7	Sololá	702	San José Chacayá	5	Chacayá	5	Mayo	2023-06-05T00:00:00	2024-11-06T13:00:00	2	Temperatura media	24.2
94178	7	Sololá	702	San José Chacayá	5	Chacayá	5	Mayo	2023-06-05T00:00:00	2024-11-06T13:00:00	4	Temperatura máxima	24.3
94179	7	Sololá	702	San José Chacayá	5	Chacayá	5	Mayo	2023-06-05T00:00:00	2024-11-06T13:00:00	3	Temperatura mínima	22.9
94180	7	Sololá	702	San José Chacayá	5	Chacayá	5	Mayo	2023-06-05T00:00:00	2024-11-06T13:00:00	5	Humedad	40
94181	7	Sololá	702	San José Chacayá	5	Chacayá	5	Mayo	2023-06-05T00:00:00	2024-11-06T13:00:00	6	Velocidad del viento	6.4
94182	7	Sololá	702	San José Chacayá	5	Chacayá	5	Mayo	2023-06-05T00:00:00	2024-11-06T13:00:00	7	Dirección del viento	6.44
94183	7	Sololá	702	San José Chacayá	5	Chacayá	5	Mayo	2023-06-05T00:00:00	2024-11-06T13:00:00	1	Precipitación	0
94184	7	Sololá	702	San José Chacayá	5	Chacayá	5	Mayo	2023-06-05T00:00:00	2024-11-06T13:00:00	8	Radiación solar	983
94185	7	Sololá	702	San José Chacayá	5	Chacayá	5	Mayo	2023-06-05T00:00:00	2024-11-06T14:00:00	2	Temperatura media	24.1
94186	7	Sololá	702	San José Chacayá	5	Chacayá	5	Mayo	2023-06-05T00:00:00	2024-11-06T14:00:00	4	Temperatura máxima	25.1
94187	7	Sololá	702	San José Chacayá	5	Chacayá	5	Mayo	2023-06-05T00:00:00	2024-11-06T14:00:00	3	Temperatura mínima	24.1
94188	7	Sololá	702	San José Chacayá	5	Chacayá	5	Mayo	2023-06-05T00:00:00	2024-11-06T14:00:00	5	Humedad	43
94189	7	Sololá	702	San José Chacayá	5	Chacayá	5	Mayo	2023-06-05T00:00:00	2024-11-06T14:00:00	6	Velocidad del viento	8
94190	7	Sololá	702	San José Chacayá	5	Chacayá	5	Mayo	2023-06-05T00:00:00	2024-11-06T14:00:00	7	Dirección del viento	8.05
94191	7	Sololá	702	San José Chacayá	5	Chacayá	5	Mayo	2023-06-05T00:00:00	2024-11-06T14:00:00	1	Precipitación	0
94192	7	Sololá	702	San José Chacayá	5	Chacayá	5	Mayo	2023-06-05T00:00:00	2024-11-06T14:00:00	8	Radiación solar	941
94193	7	Sololá	702	San José Chacayá	5	Chacayá	5	Mayo	2023-06-05T00:00:00	2024-11-06T15:00:00	2	Temperatura media	24.2
94194	7	Sololá	702	San José Chacayá	5	Chacayá	5	Mayo	2023-06-05T00:00:00	2024-11-06T15:00:00	4	Temperatura máxima	24.3
94195	7	Sololá	702	San José Chacayá	5	Chacayá	5	Mayo	2023-06-05T00:00:00	2024-11-06T15:00:00	3	Temperatura mínima	23.7
94196	7	Sololá	702	San José Chacayá	5	Chacayá	5	Mayo	2023-06-05T00:00:00	2024-11-06T15:00:00	5	Humedad	48
94197	7	Sololá	702	San José Chacayá	5	Chacayá	5	Mayo	2023-06-05T00:00:00	2024-11-06T15:00:00	6	Velocidad del viento	8
94198	7	Sololá	702	San José Chacayá	5	Chacayá	5	Mayo	2023-06-05T00:00:00	2024-11-06T15:00:00	7	Dirección del viento	8.05
94199	7	Sololá	702	San José Chacayá	5	Chacayá	5	Mayo	2023-06-05T00:00:00	2024-11-06T15:00:00	1	Precipitación	0
94200	7	Sololá	702	San José Chacayá	5	Chacayá	5	Mayo	2023-06-05T00:00:00	2024-11-06T15:00:00	8	Radiación solar	880
94201	7	Sololá	702	San José Chacayá	5	Chacayá	5	Mayo	2023-06-05T00:00:00	2024-11-06T16:00:00	2	Temperatura media	23.7
94202	7	Sololá	702	San José Chacayá	5	Chacayá	5	Mayo	2023-06-05T00:00:00	2024-11-06T16:00:00	4	Temperatura máxima	24.8
94203	7	Sololá	702	San José Chacayá	5	Chacayá	5	Mayo	2023-06-05T00:00:00	2024-11-06T16:00:00	3	Temperatura mínima	23.6
94204	7	Sololá	702	San José Chacayá	5	Chacayá	5	Mayo	2023-06-05T00:00:00	2024-11-06T16:00:00	5	Humedad	50
94205	7	Sololá	702	San José Chacayá	5	Chacayá	5	Mayo	2023-06-05T00:00:00	2024-11-06T16:00:00	6	Velocidad del viento	6.4
94206	7	Sololá	702	San José Chacayá	5	Chacayá	5	Mayo	2023-06-05T00:00:00	2024-11-06T16:00:00	7	Dirección del viento	6.44
94207	7	Sololá	702	San José Chacayá	5	Chacayá	5	Mayo	2023-06-05T00:00:00	2024-11-06T16:00:00	1	Precipitación	0
94208	7	Sololá	702	San José Chacayá	5	Chacayá	5	Mayo	2023-06-05T00:00:00	2024-11-06T16:00:00	8	Radiación solar	751
94209	7	Sololá	702	San José Chacayá	5	Chacayá	5	Mayo	2023-06-05T00:00:00	2024-11-06T17:00:00	2	Temperatura media	23.3
94210	7	Sololá	702	San José Chacayá	5	Chacayá	5	Mayo	2023-06-05T00:00:00	2024-11-06T17:00:00	4	Temperatura máxima	24
94211	7	Sololá	702	San José Chacayá	5	Chacayá	5	Mayo	2023-06-05T00:00:00	2024-11-06T17:00:00	3	Temperatura mínima	23
94212	7	Sololá	702	San José Chacayá	5	Chacayá	5	Mayo	2023-06-05T00:00:00	2024-11-06T17:00:00	5	Humedad	45
94213	7	Sololá	702	San José Chacayá	5	Chacayá	5	Mayo	2023-06-05T00:00:00	2024-11-06T17:00:00	6	Velocidad del viento	6.4
94214	7	Sololá	702	San José Chacayá	5	Chacayá	5	Mayo	2023-06-05T00:00:00	2024-11-06T17:00:00	7	Dirección del viento	6.44
94215	7	Sololá	702	San José Chacayá	5	Chacayá	5	Mayo	2023-06-05T00:00:00	2024-11-06T17:00:00	1	Precipitación	0
94216	7	Sololá	702	San José Chacayá	5	Chacayá	5	Mayo	2023-06-05T00:00:00	2024-11-06T17:00:00	8	Radiación solar	558
94217	7	Sololá	702	San José Chacayá	5	Chacayá	5	Mayo	2023-06-05T00:00:00	2024-11-06T18:00:00	2	Temperatura media	22.1
94218	7	Sololá	702	San José Chacayá	5	Chacayá	5	Mayo	2023-06-05T00:00:00	2024-11-06T18:00:00	4	Temperatura máxima	23.3
94219	7	Sololá	702	San José Chacayá	5	Chacayá	5	Mayo	2023-06-05T00:00:00	2024-11-06T18:00:00	3	Temperatura mínima	22.1
94220	7	Sololá	702	San José Chacayá	5	Chacayá	5	Mayo	2023-06-05T00:00:00	2024-11-06T18:00:00	5	Humedad	48
94221	7	Sololá	702	San José Chacayá	5	Chacayá	5	Mayo	2023-06-05T00:00:00	2024-11-06T18:00:00	6	Velocidad del viento	3.2
94222	7	Sololá	702	San José Chacayá	5	Chacayá	5	Mayo	2023-06-05T00:00:00	2024-11-06T18:00:00	7	Dirección del viento	3.22
94223	7	Sololá	702	San José Chacayá	5	Chacayá	5	Mayo	2023-06-05T00:00:00	2024-11-06T18:00:00	1	Precipitación	0
94224	7	Sololá	702	San José Chacayá	5	Chacayá	5	Mayo	2023-06-05T00:00:00	2024-11-06T18:00:00	8	Radiación solar	136
94225	7	Sololá	702	San José Chacayá	5	Chacayá	5	Mayo	2023-06-05T00:00:00	2024-11-06T19:00:00	2	Temperatura media	20.2
94226	7	Sololá	702	San José Chacayá	5	Chacayá	5	Mayo	2023-06-05T00:00:00	2024-11-06T19:00:00	4	Temperatura máxima	22.1
94227	7	Sololá	702	San José Chacayá	5	Chacayá	5	Mayo	2023-06-05T00:00:00	2024-11-06T19:00:00	3	Temperatura mínima	20.2
94228	7	Sololá	702	San José Chacayá	5	Chacayá	5	Mayo	2023-06-05T00:00:00	2024-11-06T19:00:00	5	Humedad	52
94229	7	Sololá	702	San José Chacayá	5	Chacayá	5	Mayo	2023-06-05T00:00:00	2024-11-06T19:00:00	6	Velocidad del viento	3.2
94230	7	Sololá	702	San José Chacayá	5	Chacayá	5	Mayo	2023-06-05T00:00:00	2024-11-06T19:00:00	7	Dirección del viento	3.22
94231	7	Sololá	702	San José Chacayá	5	Chacayá	5	Mayo	2023-06-05T00:00:00	2024-11-06T19:00:00	1	Precipitación	0
94232	7	Sololá	702	San José Chacayá	5	Chacayá	5	Mayo	2023-06-05T00:00:00	2024-11-06T19:00:00	8	Radiación solar	0
94233	7	Sololá	702	San José Chacayá	5	Chacayá	5	Mayo	2023-06-05T00:00:00	2024-11-06T20:00:00	2	Temperatura media	18.2
94234	7	Sololá	702	San José Chacayá	5	Chacayá	5	Mayo	2023-06-05T00:00:00	2024-11-06T20:00:00	4	Temperatura máxima	20.2
94235	7	Sololá	702	San José Chacayá	5	Chacayá	5	Mayo	2023-06-05T00:00:00	2024-11-06T20:00:00	3	Temperatura mínima	18.2
94236	7	Sololá	702	San José Chacayá	5	Chacayá	5	Mayo	2023-06-05T00:00:00	2024-11-06T20:00:00	5	Humedad	57
94237	7	Sololá	702	San José Chacayá	5	Chacayá	5	Mayo	2023-06-05T00:00:00	2024-11-06T20:00:00	6	Velocidad del viento	1.6
94238	7	Sololá	702	San José Chacayá	5	Chacayá	5	Mayo	2023-06-05T00:00:00	2024-11-06T20:00:00	7	Dirección del viento	1.61
94239	7	Sololá	702	San José Chacayá	5	Chacayá	5	Mayo	2023-06-05T00:00:00	2024-11-06T20:00:00	1	Precipitación	0
94240	7	Sololá	702	San José Chacayá	5	Chacayá	5	Mayo	2023-06-05T00:00:00	2024-11-06T20:00:00	8	Radiación solar	0
94241	7	Sololá	702	San José Chacayá	5	Chacayá	5	Mayo	2023-06-05T00:00:00	2024-11-06T21:00:00	2	Temperatura media	16.6
94242	7	Sololá	702	San José Chacayá	5	Chacayá	5	Mayo	2023-06-05T00:00:00	2024-11-06T21:00:00	4	Temperatura máxima	18.2
94243	7	Sololá	702	San José Chacayá	5	Chacayá	5	Mayo	2023-06-05T00:00:00	2024-11-06T21:00:00	3	Temperatura mínima	16.6
94244	7	Sololá	702	San José Chacayá	5	Chacayá	5	Mayo	2023-06-05T00:00:00	2024-11-06T21:00:00	5	Humedad	65
94245	7	Sololá	702	San José Chacayá	5	Chacayá	5	Mayo	2023-06-05T00:00:00	2024-11-06T21:00:00	6	Velocidad del viento	1.6
94246	7	Sololá	702	San José Chacayá	5	Chacayá	5	Mayo	2023-06-05T00:00:00	2024-11-06T21:00:00	7	Dirección del viento	1.61
94247	7	Sololá	702	San José Chacayá	5	Chacayá	5	Mayo	2023-06-05T00:00:00	2024-11-06T21:00:00	1	Precipitación	0
94248	7	Sololá	702	San José Chacayá	5	Chacayá	5	Mayo	2023-06-05T00:00:00	2024-11-06T21:00:00	8	Radiación solar	0
94249	7	Sololá	702	San José Chacayá	5	Chacayá	5	Mayo	2023-06-05T00:00:00	2024-11-06T22:00:00	2	Temperatura media	13.3
94250	7	Sololá	702	San José Chacayá	5	Chacayá	5	Mayo	2023-06-05T00:00:00	2024-11-06T22:00:00	4	Temperatura máxima	16.5
94251	7	Sololá	702	San José Chacayá	5	Chacayá	5	Mayo	2023-06-05T00:00:00	2024-11-06T22:00:00	3	Temperatura mínima	13.3
94252	7	Sololá	702	San José Chacayá	5	Chacayá	5	Mayo	2023-06-05T00:00:00	2024-11-06T22:00:00	5	Humedad	79
94253	7	Sololá	702	San José Chacayá	5	Chacayá	5	Mayo	2023-06-05T00:00:00	2024-11-06T22:00:00	6	Velocidad del viento	1.6
94254	7	Sololá	702	San José Chacayá	5	Chacayá	5	Mayo	2023-06-05T00:00:00	2024-11-06T22:00:00	7	Dirección del viento	1.61
94255	7	Sololá	702	San José Chacayá	5	Chacayá	5	Mayo	2023-06-05T00:00:00	2024-11-06T22:00:00	1	Precipitación	0
94256	7	Sololá	702	San José Chacayá	5	Chacayá	5	Mayo	2023-06-05T00:00:00	2024-11-06T22:00:00	8	Radiación solar	0
94257	7	Sololá	702	San José Chacayá	5	Chacayá	5	Mayo	2023-06-05T00:00:00	2024-11-06T23:00:00	2	Temperatura media	12.5
94258	7	Sololá	702	San José Chacayá	5	Chacayá	5	Mayo	2023-06-05T00:00:00	2024-11-06T23:00:00	4	Temperatura máxima	13.3
94259	7	Sololá	702	San José Chacayá	5	Chacayá	5	Mayo	2023-06-05T00:00:00	2024-11-06T23:00:00	3	Temperatura mínima	12.4
94260	7	Sololá	702	San José Chacayá	5	Chacayá	5	Mayo	2023-06-05T00:00:00	2024-11-06T23:00:00	5	Humedad	78
94261	7	Sololá	702	San José Chacayá	5	Chacayá	5	Mayo	2023-06-05T00:00:00	2024-11-06T23:00:00	6	Velocidad del viento	3.2
94262	7	Sololá	702	San José Chacayá	5	Chacayá	5	Mayo	2023-06-05T00:00:00	2024-11-06T23:00:00	7	Dirección del viento	3.22
94263	7	Sololá	702	San José Chacayá	5	Chacayá	5	Mayo	2023-06-05T00:00:00	2024-11-06T23:00:00	1	Precipitación	0
94264	7	Sololá	702	San José Chacayá	5	Chacayá	5	Mayo	2023-06-05T00:00:00	2024-11-06T23:00:00	8	Radiación solar	0
94265	7	Sololá	702	San José Chacayá	5	Chacayá	5	Mayo	2023-07-05T00:00:00	2024-11-06T00:00:00	2	Temperatura media	11.9
94266	7	Sololá	702	San José Chacayá	5	Chacayá	5	Mayo	2023-07-05T00:00:00	2024-11-06T00:00:00	4	Temperatura máxima	12.8
94267	7	Sololá	702	San José Chacayá	5	Chacayá	5	Mayo	2023-07-05T00:00:00	2024-11-06T00:00:00	3	Temperatura mínima	11.9
94268	7	Sololá	702	San José Chacayá	5	Chacayá	5	Mayo	2023-07-05T00:00:00	2024-11-06T00:00:00	5	Humedad	76
94269	7	Sololá	702	San José Chacayá	5	Chacayá	5	Mayo	2023-07-05T00:00:00	2024-11-06T00:00:00	6	Velocidad del viento	3.2
94270	7	Sololá	702	San José Chacayá	5	Chacayá	5	Mayo	2023-07-05T00:00:00	2024-11-06T00:00:00	7	Dirección del viento	3.22
94271	7	Sololá	702	San José Chacayá	5	Chacayá	5	Mayo	2023-07-05T00:00:00	2024-11-06T00:00:00	1	Precipitación	0
94272	7	Sololá	702	San José Chacayá	5	Chacayá	5	Mayo	2023-07-05T00:00:00	2024-11-06T00:00:00	8	Radiación solar	0
94273	7	Sololá	702	San José Chacayá	5	Chacayá	5	Mayo	2023-07-05T00:00:00	2024-11-06T01:00:00	2	Temperatura media	10.7
94274	7	Sololá	702	San José Chacayá	5	Chacayá	5	Mayo	2023-07-05T00:00:00	2024-11-06T01:00:00	4	Temperatura máxima	11.9
94275	7	Sololá	702	San José Chacayá	5	Chacayá	5	Mayo	2023-07-05T00:00:00	2024-11-06T01:00:00	3	Temperatura mínima	10.7
94276	7	Sololá	702	San José Chacayá	5	Chacayá	5	Mayo	2023-07-05T00:00:00	2024-11-06T01:00:00	5	Humedad	77
94277	7	Sololá	702	San José Chacayá	5	Chacayá	5	Mayo	2023-07-05T00:00:00	2024-11-06T01:00:00	6	Velocidad del viento	3.2
94278	7	Sololá	702	San José Chacayá	5	Chacayá	5	Mayo	2023-07-05T00:00:00	2024-11-06T01:00:00	7	Dirección del viento	3.22
94279	7	Sololá	702	San José Chacayá	5	Chacayá	5	Mayo	2023-07-05T00:00:00	2024-11-06T01:00:00	1	Precipitación	0
94280	7	Sololá	702	San José Chacayá	5	Chacayá	5	Mayo	2023-07-05T00:00:00	2024-11-06T01:00:00	8	Radiación solar	0
94281	7	Sololá	702	San José Chacayá	5	Chacayá	5	Mayo	2023-07-05T00:00:00	2024-11-06T02:00:00	2	Temperatura media	9.8
94282	7	Sololá	702	San José Chacayá	5	Chacayá	5	Mayo	2023-07-05T00:00:00	2024-11-06T02:00:00	4	Temperatura máxima	10.7
94283	7	Sololá	702	San José Chacayá	5	Chacayá	5	Mayo	2023-07-05T00:00:00	2024-11-06T02:00:00	3	Temperatura mínima	9.8
94284	7	Sololá	702	San José Chacayá	5	Chacayá	5	Mayo	2023-07-05T00:00:00	2024-11-06T02:00:00	5	Humedad	76
94285	7	Sololá	702	San José Chacayá	5	Chacayá	5	Mayo	2023-07-05T00:00:00	2024-11-06T02:00:00	6	Velocidad del viento	4.8
94286	7	Sololá	702	San José Chacayá	5	Chacayá	5	Mayo	2023-07-05T00:00:00	2024-11-06T02:00:00	7	Dirección del viento	4.83
94287	7	Sololá	702	San José Chacayá	5	Chacayá	5	Mayo	2023-07-05T00:00:00	2024-11-06T02:00:00	1	Precipitación	0
94288	7	Sololá	702	San José Chacayá	5	Chacayá	5	Mayo	2023-07-05T00:00:00	2024-11-06T02:00:00	8	Radiación solar	0
94289	7	Sololá	702	San José Chacayá	5	Chacayá	5	Mayo	2023-07-05T00:00:00	2024-11-06T03:00:00	2	Temperatura media	9.3
94290	7	Sololá	702	San José Chacayá	5	Chacayá	5	Mayo	2023-07-05T00:00:00	2024-11-06T03:00:00	4	Temperatura máxima	9.8
94291	7	Sololá	702	San José Chacayá	5	Chacayá	5	Mayo	2023-07-05T00:00:00	2024-11-06T03:00:00	3	Temperatura mínima	9.3
94292	7	Sololá	702	San José Chacayá	5	Chacayá	5	Mayo	2023-07-05T00:00:00	2024-11-06T03:00:00	5	Humedad	72
94293	7	Sololá	702	San José Chacayá	5	Chacayá	5	Mayo	2023-07-05T00:00:00	2024-11-06T03:00:00	6	Velocidad del viento	4.8
94294	7	Sololá	702	San José Chacayá	5	Chacayá	5	Mayo	2023-07-05T00:00:00	2024-11-06T03:00:00	7	Dirección del viento	4.83
94295	7	Sololá	702	San José Chacayá	5	Chacayá	5	Mayo	2023-07-05T00:00:00	2024-11-06T03:00:00	1	Precipitación	0
94296	7	Sololá	702	San José Chacayá	5	Chacayá	5	Mayo	2023-07-05T00:00:00	2024-11-06T03:00:00	8	Radiación solar	0
94297	7	Sololá	702	San José Chacayá	5	Chacayá	5	Mayo	2023-07-05T00:00:00	2024-11-06T04:00:00	2	Temperatura media	9.1
94298	7	Sololá	702	San José Chacayá	5	Chacayá	5	Mayo	2023-07-05T00:00:00	2024-11-06T04:00:00	4	Temperatura máxima	9.3
94299	7	Sololá	702	San José Chacayá	5	Chacayá	5	Mayo	2023-07-05T00:00:00	2024-11-06T04:00:00	3	Temperatura mínima	9.1
94300	7	Sololá	702	San José Chacayá	5	Chacayá	5	Mayo	2023-07-05T00:00:00	2024-11-06T04:00:00	5	Humedad	68
94301	7	Sololá	702	San José Chacayá	5	Chacayá	5	Mayo	2023-07-05T00:00:00	2024-11-06T04:00:00	6	Velocidad del viento	4.8
94302	7	Sololá	702	San José Chacayá	5	Chacayá	5	Mayo	2023-07-05T00:00:00	2024-11-06T04:00:00	7	Dirección del viento	4.83
94303	7	Sololá	702	San José Chacayá	5	Chacayá	5	Mayo	2023-07-05T00:00:00	2024-11-06T04:00:00	1	Precipitación	0
94304	7	Sololá	702	San José Chacayá	5	Chacayá	5	Mayo	2023-07-05T00:00:00	2024-11-06T04:00:00	8	Radiación solar	0
94305	7	Sololá	702	San José Chacayá	5	Chacayá	5	Mayo	2023-07-05T00:00:00	2024-11-06T05:00:00	2	Temperatura media	8
94306	7	Sololá	702	San José Chacayá	5	Chacayá	5	Mayo	2023-07-05T00:00:00	2024-11-06T05:00:00	4	Temperatura máxima	9.1
94307	7	Sololá	702	San José Chacayá	5	Chacayá	5	Mayo	2023-07-05T00:00:00	2024-11-06T05:00:00	3	Temperatura mínima	8
94308	7	Sololá	702	San José Chacayá	5	Chacayá	5	Mayo	2023-07-05T00:00:00	2024-11-06T05:00:00	5	Humedad	71
94309	7	Sololá	702	San José Chacayá	5	Chacayá	5	Mayo	2023-07-05T00:00:00	2024-11-06T05:00:00	6	Velocidad del viento	4.8
94310	7	Sololá	702	San José Chacayá	5	Chacayá	5	Mayo	2023-07-05T00:00:00	2024-11-06T05:00:00	7	Dirección del viento	4.83
94311	7	Sololá	702	San José Chacayá	5	Chacayá	5	Mayo	2023-07-05T00:00:00	2024-11-06T05:00:00	1	Precipitación	0
94312	7	Sololá	702	San José Chacayá	5	Chacayá	5	Mayo	2023-07-05T00:00:00	2024-11-06T05:00:00	8	Radiación solar	0
94313	7	Sololá	702	San José Chacayá	5	Chacayá	5	Mayo	2023-07-05T00:00:00	2024-11-06T06:00:00	2	Temperatura media	7.7
94314	7	Sololá	702	San José Chacayá	5	Chacayá	5	Mayo	2023-07-05T00:00:00	2024-11-06T06:00:00	4	Temperatura máxima	8.1
94315	7	Sololá	702	San José Chacayá	5	Chacayá	5	Mayo	2023-07-05T00:00:00	2024-11-06T06:00:00	3	Temperatura mínima	7.6
94316	7	Sololá	702	San José Chacayá	5	Chacayá	5	Mayo	2023-07-05T00:00:00	2024-11-06T06:00:00	5	Humedad	73
94317	7	Sololá	702	San José Chacayá	5	Chacayá	5	Mayo	2023-07-05T00:00:00	2024-11-06T06:00:00	6	Velocidad del viento	4.8
94318	7	Sololá	702	San José Chacayá	5	Chacayá	5	Mayo	2023-07-05T00:00:00	2024-11-06T06:00:00	7	Dirección del viento	4.83
94319	7	Sololá	702	San José Chacayá	5	Chacayá	5	Mayo	2023-07-05T00:00:00	2024-11-06T06:00:00	1	Precipitación	0
94320	7	Sololá	702	San José Chacayá	5	Chacayá	5	Mayo	2023-07-05T00:00:00	2024-11-06T06:00:00	8	Radiación solar	0
94321	7	Sololá	702	San José Chacayá	5	Chacayá	5	Mayo	2023-07-05T00:00:00	2024-11-06T07:00:00	2	Temperatura media	8.5
94322	7	Sololá	702	San José Chacayá	5	Chacayá	5	Mayo	2023-07-05T00:00:00	2024-11-06T07:00:00	4	Temperatura máxima	8.5
94323	7	Sololá	702	San José Chacayá	5	Chacayá	5	Mayo	2023-07-05T00:00:00	2024-11-06T07:00:00	3	Temperatura mínima	7.7
94324	7	Sololá	702	San José Chacayá	5	Chacayá	5	Mayo	2023-07-05T00:00:00	2024-11-06T07:00:00	5	Humedad	68
94325	7	Sololá	702	San José Chacayá	5	Chacayá	5	Mayo	2023-07-05T00:00:00	2024-11-06T07:00:00	6	Velocidad del viento	6.4
94326	7	Sololá	702	San José Chacayá	5	Chacayá	5	Mayo	2023-07-05T00:00:00	2024-11-06T07:00:00	7	Dirección del viento	6.44
94327	7	Sololá	702	San José Chacayá	5	Chacayá	5	Mayo	2023-07-05T00:00:00	2024-11-06T07:00:00	1	Precipitación	0
94328	7	Sololá	702	San José Chacayá	5	Chacayá	5	Mayo	2023-07-05T00:00:00	2024-11-06T07:00:00	8	Radiación solar	5
94329	7	Sololá	702	San José Chacayá	5	Chacayá	5	Mayo	2023-07-05T00:00:00	2024-11-06T08:00:00	2	Temperatura media	10.8
94330	7	Sololá	702	San José Chacayá	5	Chacayá	5	Mayo	2023-07-05T00:00:00	2024-11-06T08:00:00	4	Temperatura máxima	10.8
94331	7	Sololá	702	San José Chacayá	5	Chacayá	5	Mayo	2023-07-05T00:00:00	2024-11-06T08:00:00	3	Temperatura mínima	8.5
94332	7	Sololá	702	San José Chacayá	5	Chacayá	5	Mayo	2023-07-05T00:00:00	2024-11-06T08:00:00	5	Humedad	66
94333	7	Sololá	702	San José Chacayá	5	Chacayá	5	Mayo	2023-07-05T00:00:00	2024-11-06T08:00:00	6	Velocidad del viento	4.8
94334	7	Sololá	702	San José Chacayá	5	Chacayá	5	Mayo	2023-07-05T00:00:00	2024-11-06T08:00:00	7	Dirección del viento	4.83
94335	7	Sololá	702	San José Chacayá	5	Chacayá	5	Mayo	2023-07-05T00:00:00	2024-11-06T08:00:00	1	Precipitación	0
94336	7	Sololá	702	San José Chacayá	5	Chacayá	5	Mayo	2023-07-05T00:00:00	2024-11-06T08:00:00	8	Radiación solar	52
94337	7	Sololá	702	San José Chacayá	5	Chacayá	5	Mayo	2023-07-05T00:00:00	2024-11-06T09:00:00	2	Temperatura media	16.9
94338	7	Sololá	702	San José Chacayá	5	Chacayá	5	Mayo	2023-07-05T00:00:00	2024-11-06T09:00:00	4	Temperatura máxima	16.9
94339	7	Sololá	702	San José Chacayá	5	Chacayá	5	Mayo	2023-07-05T00:00:00	2024-11-06T09:00:00	3	Temperatura mínima	10.8
94340	7	Sololá	702	San José Chacayá	5	Chacayá	5	Mayo	2023-07-05T00:00:00	2024-11-06T09:00:00	5	Humedad	49
94341	7	Sololá	702	San José Chacayá	5	Chacayá	5	Mayo	2023-07-05T00:00:00	2024-11-06T09:00:00	6	Velocidad del viento	1.6
94342	7	Sololá	702	San José Chacayá	5	Chacayá	5	Mayo	2023-07-05T00:00:00	2024-11-06T09:00:00	7	Dirección del viento	1.61
94343	7	Sololá	702	San José Chacayá	5	Chacayá	5	Mayo	2023-07-05T00:00:00	2024-11-06T09:00:00	1	Precipitación	0
94344	7	Sololá	702	San José Chacayá	5	Chacayá	5	Mayo	2023-07-05T00:00:00	2024-11-06T09:00:00	8	Radiación solar	126
94345	7	Sololá	702	San José Chacayá	5	Chacayá	5	Mayo	2023-07-05T00:00:00	2024-11-06T10:00:00	2	Temperatura media	21.7
94346	7	Sololá	702	San José Chacayá	5	Chacayá	5	Mayo	2023-07-05T00:00:00	2024-11-06T10:00:00	4	Temperatura máxima	21.7
94347	7	Sololá	702	San José Chacayá	5	Chacayá	5	Mayo	2023-07-05T00:00:00	2024-11-06T10:00:00	3	Temperatura mínima	16.9
94348	7	Sololá	702	San José Chacayá	5	Chacayá	5	Mayo	2023-07-05T00:00:00	2024-11-06T10:00:00	5	Humedad	34
94349	7	Sololá	702	San José Chacayá	5	Chacayá	5	Mayo	2023-07-05T00:00:00	2024-11-06T10:00:00	6	Velocidad del viento	3.2
94350	7	Sololá	702	San José Chacayá	5	Chacayá	5	Mayo	2023-07-05T00:00:00	2024-11-06T10:00:00	7	Dirección del viento	3.22
94351	7	Sololá	702	San José Chacayá	5	Chacayá	5	Mayo	2023-07-05T00:00:00	2024-11-06T10:00:00	1	Precipitación	0
94352	7	Sololá	702	San José Chacayá	5	Chacayá	5	Mayo	2023-07-05T00:00:00	2024-11-06T10:00:00	8	Radiación solar	568
94353	7	Sololá	702	San José Chacayá	5	Chacayá	5	Mayo	2023-07-05T00:00:00	2024-11-06T11:00:00	2	Temperatura media	23.3
94354	7	Sololá	702	San José Chacayá	5	Chacayá	5	Mayo	2023-07-05T00:00:00	2024-11-06T11:00:00	4	Temperatura máxima	23.3
94355	7	Sololá	702	San José Chacayá	5	Chacayá	5	Mayo	2023-07-05T00:00:00	2024-11-06T11:00:00	3	Temperatura mínima	21.7
94356	7	Sololá	702	San José Chacayá	5	Chacayá	5	Mayo	2023-07-05T00:00:00	2024-11-06T11:00:00	5	Humedad	36
94357	7	Sololá	702	San José Chacayá	5	Chacayá	5	Mayo	2023-07-05T00:00:00	2024-11-06T11:00:00	6	Velocidad del viento	4.8
94358	7	Sololá	702	San José Chacayá	5	Chacayá	5	Mayo	2023-07-05T00:00:00	2024-11-06T11:00:00	7	Dirección del viento	4.83
94359	7	Sololá	702	San José Chacayá	5	Chacayá	5	Mayo	2023-07-05T00:00:00	2024-11-06T11:00:00	1	Precipitación	0
94360	7	Sololá	702	San José Chacayá	5	Chacayá	5	Mayo	2023-07-05T00:00:00	2024-11-06T11:00:00	8	Radiación solar	801
94361	7	Sololá	702	San José Chacayá	5	Chacayá	5	Mayo	2023-07-05T00:00:00	2024-11-06T12:00:00	2	Temperatura media	24.7
94362	7	Sololá	702	San José Chacayá	5	Chacayá	5	Mayo	2023-07-05T00:00:00	2024-11-06T12:00:00	4	Temperatura máxima	24.7
94363	7	Sololá	702	San José Chacayá	5	Chacayá	5	Mayo	2023-07-05T00:00:00	2024-11-06T12:00:00	3	Temperatura mínima	23.3
94364	7	Sololá	702	San José Chacayá	5	Chacayá	5	Mayo	2023-07-05T00:00:00	2024-11-06T12:00:00	5	Humedad	32
94365	7	Sololá	702	San José Chacayá	5	Chacayá	5	Mayo	2023-07-05T00:00:00	2024-11-06T12:00:00	6	Velocidad del viento	4.8
94366	7	Sololá	702	San José Chacayá	5	Chacayá	5	Mayo	2023-07-05T00:00:00	2024-11-06T12:00:00	7	Dirección del viento	4.83
94367	7	Sololá	702	San José Chacayá	5	Chacayá	5	Mayo	2023-07-05T00:00:00	2024-11-06T12:00:00	1	Precipitación	0
94368	7	Sololá	702	San José Chacayá	5	Chacayá	5	Mayo	2023-07-05T00:00:00	2024-11-06T12:00:00	8	Radiación solar	932
94369	7	Sololá	702	San José Chacayá	5	Chacayá	5	Mayo	2023-07-05T00:00:00	2024-11-06T13:00:00	2	Temperatura media	25.1
94370	7	Sololá	702	San José Chacayá	5	Chacayá	5	Mayo	2023-07-05T00:00:00	2024-11-06T13:00:00	4	Temperatura máxima	25.1
94371	7	Sololá	702	San José Chacayá	5	Chacayá	5	Mayo	2023-07-05T00:00:00	2024-11-06T13:00:00	3	Temperatura mínima	24.5
94372	7	Sololá	702	San José Chacayá	5	Chacayá	5	Mayo	2023-07-05T00:00:00	2024-11-06T13:00:00	5	Humedad	30
94373	7	Sololá	702	San José Chacayá	5	Chacayá	5	Mayo	2023-07-05T00:00:00	2024-11-06T13:00:00	6	Velocidad del viento	6.4
94374	7	Sololá	702	San José Chacayá	5	Chacayá	5	Mayo	2023-07-05T00:00:00	2024-11-06T13:00:00	7	Dirección del viento	6.44
94375	7	Sololá	702	San José Chacayá	5	Chacayá	5	Mayo	2023-07-05T00:00:00	2024-11-06T13:00:00	1	Precipitación	0
94376	7	Sololá	702	San José Chacayá	5	Chacayá	5	Mayo	2023-07-05T00:00:00	2024-11-06T13:00:00	8	Radiación solar	1000
94377	7	Sololá	702	San José Chacayá	5	Chacayá	5	Mayo	2023-07-05T00:00:00	2024-11-06T14:00:00	2	Temperatura media	25.3
94378	7	Sololá	702	San José Chacayá	5	Chacayá	5	Mayo	2023-07-05T00:00:00	2024-11-06T14:00:00	4	Temperatura máxima	25.6
94379	7	Sololá	702	San José Chacayá	5	Chacayá	5	Mayo	2023-07-05T00:00:00	2024-11-06T14:00:00	3	Temperatura mínima	24.4
94380	7	Sololá	702	San José Chacayá	5	Chacayá	5	Mayo	2023-07-05T00:00:00	2024-11-06T14:00:00	5	Humedad	31
94381	7	Sololá	702	San José Chacayá	5	Chacayá	5	Mayo	2023-07-05T00:00:00	2024-11-06T14:00:00	6	Velocidad del viento	6.4
94382	7	Sololá	702	San José Chacayá	5	Chacayá	5	Mayo	2023-07-05T00:00:00	2024-11-06T14:00:00	7	Dirección del viento	6.44
94383	7	Sololá	702	San José Chacayá	5	Chacayá	5	Mayo	2023-07-05T00:00:00	2024-11-06T14:00:00	1	Precipitación	0
94384	7	Sololá	702	San José Chacayá	5	Chacayá	5	Mayo	2023-07-05T00:00:00	2024-11-06T14:00:00	8	Radiación solar	1001
94385	7	Sololá	702	San José Chacayá	5	Chacayá	5	Mayo	2023-07-05T00:00:00	2024-11-06T15:00:00	2	Temperatura media	25.9
94386	7	Sololá	702	San José Chacayá	5	Chacayá	5	Mayo	2023-07-05T00:00:00	2024-11-06T15:00:00	4	Temperatura máxima	26.1
94387	7	Sololá	702	San José Chacayá	5	Chacayá	5	Mayo	2023-07-05T00:00:00	2024-11-06T15:00:00	3	Temperatura mínima	25.1
94388	7	Sololá	702	San José Chacayá	5	Chacayá	5	Mayo	2023-07-05T00:00:00	2024-11-06T15:00:00	5	Humedad	28
94389	7	Sololá	702	San José Chacayá	5	Chacayá	5	Mayo	2023-07-05T00:00:00	2024-11-06T15:00:00	6	Velocidad del viento	6.4
94390	7	Sololá	702	San José Chacayá	5	Chacayá	5	Mayo	2023-07-05T00:00:00	2024-11-06T15:00:00	7	Dirección del viento	6.44
94391	7	Sololá	702	San José Chacayá	5	Chacayá	5	Mayo	2023-07-05T00:00:00	2024-11-06T15:00:00	1	Precipitación	0
94392	7	Sololá	702	San José Chacayá	5	Chacayá	5	Mayo	2023-07-05T00:00:00	2024-11-06T15:00:00	8	Radiación solar	951
94393	7	Sololá	702	San José Chacayá	5	Chacayá	5	Mayo	2023-07-05T00:00:00	2024-11-06T16:00:00	2	Temperatura media	25
94394	7	Sololá	702	San José Chacayá	5	Chacayá	5	Mayo	2023-07-05T00:00:00	2024-11-06T16:00:00	4	Temperatura máxima	26.7
94395	7	Sololá	702	San José Chacayá	5	Chacayá	5	Mayo	2023-07-05T00:00:00	2024-11-06T16:00:00	3	Temperatura mínima	25
94396	7	Sololá	702	San José Chacayá	5	Chacayá	5	Mayo	2023-07-05T00:00:00	2024-11-06T16:00:00	5	Humedad	45
94397	7	Sololá	702	San José Chacayá	5	Chacayá	5	Mayo	2023-07-05T00:00:00	2024-11-06T16:00:00	6	Velocidad del viento	6.4
94398	7	Sololá	702	San José Chacayá	5	Chacayá	5	Mayo	2023-07-05T00:00:00	2024-11-06T16:00:00	7	Dirección del viento	6.44
94399	7	Sololá	702	San José Chacayá	5	Chacayá	5	Mayo	2023-07-05T00:00:00	2024-11-06T16:00:00	1	Precipitación	0
94400	7	Sololá	702	San José Chacayá	5	Chacayá	5	Mayo	2023-07-05T00:00:00	2024-11-06T16:00:00	8	Radiación solar	805
94401	7	Sololá	702	San José Chacayá	5	Chacayá	5	Mayo	2023-07-05T00:00:00	2024-11-06T17:00:00	2	Temperatura media	24.1
94402	7	Sololá	702	San José Chacayá	5	Chacayá	5	Mayo	2023-07-05T00:00:00	2024-11-06T17:00:00	4	Temperatura máxima	25
94403	7	Sololá	702	San José Chacayá	5	Chacayá	5	Mayo	2023-07-05T00:00:00	2024-11-06T17:00:00	3	Temperatura mínima	24.1
94404	7	Sololá	702	San José Chacayá	5	Chacayá	5	Mayo	2023-07-05T00:00:00	2024-11-06T17:00:00	5	Humedad	45
94405	7	Sololá	702	San José Chacayá	5	Chacayá	5	Mayo	2023-07-05T00:00:00	2024-11-06T17:00:00	6	Velocidad del viento	8
94406	7	Sololá	702	San José Chacayá	5	Chacayá	5	Mayo	2023-07-05T00:00:00	2024-11-06T17:00:00	7	Dirección del viento	8.05
94407	7	Sololá	702	San José Chacayá	5	Chacayá	5	Mayo	2023-07-05T00:00:00	2024-11-06T17:00:00	1	Precipitación	0
94408	7	Sololá	702	San José Chacayá	5	Chacayá	5	Mayo	2023-07-05T00:00:00	2024-11-06T17:00:00	8	Radiación solar	601
94409	7	Sololá	702	San José Chacayá	5	Chacayá	5	Mayo	2023-07-05T00:00:00	2024-11-06T18:00:00	2	Temperatura media	21.9
94410	7	Sololá	702	San José Chacayá	5	Chacayá	5	Mayo	2023-07-05T00:00:00	2024-11-06T18:00:00	4	Temperatura máxima	24.1
94411	7	Sololá	702	San José Chacayá	5	Chacayá	5	Mayo	2023-07-05T00:00:00	2024-11-06T18:00:00	3	Temperatura mínima	21.9
94412	7	Sololá	702	San José Chacayá	5	Chacayá	5	Mayo	2023-07-05T00:00:00	2024-11-06T18:00:00	5	Humedad	63
94413	7	Sololá	702	San José Chacayá	5	Chacayá	5	Mayo	2023-07-05T00:00:00	2024-11-06T18:00:00	6	Velocidad del viento	3.2
94414	7	Sololá	702	San José Chacayá	5	Chacayá	5	Mayo	2023-07-05T00:00:00	2024-11-06T18:00:00	7	Dirección del viento	3.22
94415	7	Sololá	702	San José Chacayá	5	Chacayá	5	Mayo	2023-07-05T00:00:00	2024-11-06T18:00:00	1	Precipitación	0
94416	7	Sololá	702	San José Chacayá	5	Chacayá	5	Mayo	2023-07-05T00:00:00	2024-11-06T18:00:00	8	Radiación solar	129
94417	7	Sololá	702	San José Chacayá	5	Chacayá	5	Mayo	2023-07-05T00:00:00	2024-11-06T19:00:00	2	Temperatura media	20.5
94418	7	Sololá	702	San José Chacayá	5	Chacayá	5	Mayo	2023-07-05T00:00:00	2024-11-06T19:00:00	4	Temperatura máxima	21.9
94419	7	Sololá	702	San José Chacayá	5	Chacayá	5	Mayo	2023-07-05T00:00:00	2024-11-06T19:00:00	3	Temperatura mínima	20.5
94420	7	Sololá	702	San José Chacayá	5	Chacayá	5	Mayo	2023-07-05T00:00:00	2024-11-06T19:00:00	5	Humedad	57
94421	7	Sololá	702	San José Chacayá	5	Chacayá	5	Mayo	2023-07-05T00:00:00	2024-11-06T19:00:00	6	Velocidad del viento	1.6
94422	7	Sololá	702	San José Chacayá	5	Chacayá	5	Mayo	2023-07-05T00:00:00	2024-11-06T19:00:00	7	Dirección del viento	1.61
94423	7	Sololá	702	San José Chacayá	5	Chacayá	5	Mayo	2023-07-05T00:00:00	2024-11-06T19:00:00	1	Precipitación	0
94424	7	Sololá	702	San José Chacayá	5	Chacayá	5	Mayo	2023-07-05T00:00:00	2024-11-06T19:00:00	8	Radiación solar	0
94425	7	Sololá	702	San José Chacayá	5	Chacayá	5	Mayo	2023-07-05T00:00:00	2024-11-06T20:00:00	2	Temperatura media	17.3
94426	7	Sololá	702	San José Chacayá	5	Chacayá	5	Mayo	2023-07-05T00:00:00	2024-11-06T20:00:00	4	Temperatura máxima	20.4
94427	7	Sololá	702	San José Chacayá	5	Chacayá	5	Mayo	2023-07-05T00:00:00	2024-11-06T20:00:00	3	Temperatura mínima	17.3
94428	7	Sololá	702	San José Chacayá	5	Chacayá	5	Mayo	2023-07-05T00:00:00	2024-11-06T20:00:00	5	Humedad	68
94429	7	Sololá	702	San José Chacayá	5	Chacayá	5	Mayo	2023-07-05T00:00:00	2024-11-06T20:00:00	6	Velocidad del viento	0
94430	7	Sololá	702	San José Chacayá	5	Chacayá	5	Mayo	2023-07-05T00:00:00	2024-11-06T20:00:00	7	Dirección del viento	0
94431	7	Sololá	702	San José Chacayá	5	Chacayá	5	Mayo	2023-07-05T00:00:00	2024-11-06T20:00:00	1	Precipitación	0
94432	7	Sololá	702	San José Chacayá	5	Chacayá	5	Mayo	2023-07-05T00:00:00	2024-11-06T20:00:00	8	Radiación solar	0
94433	7	Sololá	702	San José Chacayá	5	Chacayá	5	Mayo	2023-07-05T00:00:00	2024-11-06T21:00:00	2	Temperatura media	15
94434	7	Sololá	702	San José Chacayá	5	Chacayá	5	Mayo	2023-07-05T00:00:00	2024-11-06T21:00:00	4	Temperatura máxima	17.3
94435	7	Sololá	702	San José Chacayá	5	Chacayá	5	Mayo	2023-07-05T00:00:00	2024-11-06T21:00:00	3	Temperatura mínima	15
94436	7	Sololá	702	San José Chacayá	5	Chacayá	5	Mayo	2023-07-05T00:00:00	2024-11-06T21:00:00	5	Humedad	77
94437	7	Sololá	702	San José Chacayá	5	Chacayá	5	Mayo	2023-07-05T00:00:00	2024-11-06T21:00:00	6	Velocidad del viento	0
94438	7	Sololá	702	San José Chacayá	5	Chacayá	5	Mayo	2023-07-05T00:00:00	2024-11-06T21:00:00	7	Dirección del viento	0
94439	7	Sololá	702	San José Chacayá	5	Chacayá	5	Mayo	2023-07-05T00:00:00	2024-11-06T21:00:00	1	Precipitación	0
94440	7	Sololá	702	San José Chacayá	5	Chacayá	5	Mayo	2023-07-05T00:00:00	2024-11-06T21:00:00	8	Radiación solar	0
94441	7	Sololá	702	San José Chacayá	5	Chacayá	5	Mayo	2023-07-05T00:00:00	2024-11-06T22:00:00	2	Temperatura media	16.5
94442	7	Sololá	702	San José Chacayá	5	Chacayá	5	Mayo	2023-07-05T00:00:00	2024-11-06T22:00:00	4	Temperatura máxima	16.5
94443	7	Sololá	702	San José Chacayá	5	Chacayá	5	Mayo	2023-07-05T00:00:00	2024-11-06T22:00:00	3	Temperatura mínima	14.8
94444	7	Sololá	702	San José Chacayá	5	Chacayá	5	Mayo	2023-07-05T00:00:00	2024-11-06T22:00:00	5	Humedad	78
94445	7	Sololá	702	San José Chacayá	5	Chacayá	5	Mayo	2023-07-05T00:00:00	2024-11-06T22:00:00	6	Velocidad del viento	1.6
94446	7	Sololá	702	San José Chacayá	5	Chacayá	5	Mayo	2023-07-05T00:00:00	2024-11-06T22:00:00	7	Dirección del viento	1.61
94447	7	Sololá	702	San José Chacayá	5	Chacayá	5	Mayo	2023-07-05T00:00:00	2024-11-06T22:00:00	1	Precipitación	0
94448	7	Sololá	702	San José Chacayá	5	Chacayá	5	Mayo	2023-07-05T00:00:00	2024-11-06T22:00:00	8	Radiación solar	0
94449	7	Sololá	702	San José Chacayá	5	Chacayá	5	Mayo	2023-07-05T00:00:00	2024-11-06T23:00:00	2	Temperatura media	13.1
94450	7	Sololá	702	San José Chacayá	5	Chacayá	5	Mayo	2023-07-05T00:00:00	2024-11-06T23:00:00	4	Temperatura máxima	16.5
94451	7	Sololá	702	San José Chacayá	5	Chacayá	5	Mayo	2023-07-05T00:00:00	2024-11-06T23:00:00	3	Temperatura mínima	13.1
94452	7	Sololá	702	San José Chacayá	5	Chacayá	5	Mayo	2023-07-05T00:00:00	2024-11-06T23:00:00	5	Humedad	83
94453	7	Sololá	702	San José Chacayá	5	Chacayá	5	Mayo	2023-07-05T00:00:00	2024-11-06T23:00:00	6	Velocidad del viento	1.6
94454	7	Sololá	702	San José Chacayá	5	Chacayá	5	Mayo	2023-07-05T00:00:00	2024-11-06T23:00:00	7	Dirección del viento	1.61
94455	7	Sololá	702	San José Chacayá	5	Chacayá	5	Mayo	2023-07-05T00:00:00	2024-11-06T23:00:00	1	Precipitación	0
94456	7	Sololá	702	San José Chacayá	5	Chacayá	5	Mayo	2023-07-05T00:00:00	2024-11-06T23:00:00	8	Radiación solar	0
94457	7	Sololá	702	San José Chacayá	5	Chacayá	5	Mayo	2023-08-05T00:00:00	2024-11-06T00:00:00	2	Temperatura media	12.9
94458	7	Sololá	702	San José Chacayá	5	Chacayá	5	Mayo	2023-08-05T00:00:00	2024-11-06T00:00:00	4	Temperatura máxima	13.8
94459	7	Sololá	702	San José Chacayá	5	Chacayá	5	Mayo	2023-08-05T00:00:00	2024-11-06T00:00:00	3	Temperatura mínima	12.7
94460	7	Sololá	702	San José Chacayá	5	Chacayá	5	Mayo	2023-08-05T00:00:00	2024-11-06T00:00:00	5	Humedad	71
94461	7	Sololá	702	San José Chacayá	5	Chacayá	5	Mayo	2023-08-05T00:00:00	2024-11-06T00:00:00	6	Velocidad del viento	3.2
94462	7	Sololá	702	San José Chacayá	5	Chacayá	5	Mayo	2023-08-05T00:00:00	2024-11-06T00:00:00	7	Dirección del viento	3.22
94463	7	Sololá	702	San José Chacayá	5	Chacayá	5	Mayo	2023-08-05T00:00:00	2024-11-06T00:00:00	1	Precipitación	0
94464	7	Sololá	702	San José Chacayá	5	Chacayá	5	Mayo	2023-08-05T00:00:00	2024-11-06T00:00:00	8	Radiación solar	0
94465	7	Sololá	702	San José Chacayá	5	Chacayá	5	Mayo	2023-08-05T00:00:00	2024-11-06T01:00:00	2	Temperatura media	10.4
94466	7	Sololá	702	San José Chacayá	5	Chacayá	5	Mayo	2023-08-05T00:00:00	2024-11-06T01:00:00	4	Temperatura máxima	12.9
94467	7	Sololá	702	San José Chacayá	5	Chacayá	5	Mayo	2023-08-05T00:00:00	2024-11-06T01:00:00	3	Temperatura mínima	10.4
94468	7	Sololá	702	San José Chacayá	5	Chacayá	5	Mayo	2023-08-05T00:00:00	2024-11-06T01:00:00	5	Humedad	77
94469	7	Sololá	702	San José Chacayá	5	Chacayá	5	Mayo	2023-08-05T00:00:00	2024-11-06T01:00:00	6	Velocidad del viento	3.2
94470	7	Sololá	702	San José Chacayá	5	Chacayá	5	Mayo	2023-08-05T00:00:00	2024-11-06T01:00:00	7	Dirección del viento	3.22
94471	7	Sololá	702	San José Chacayá	5	Chacayá	5	Mayo	2023-08-05T00:00:00	2024-11-06T01:00:00	1	Precipitación	0
94472	7	Sololá	702	San José Chacayá	5	Chacayá	5	Mayo	2023-08-05T00:00:00	2024-11-06T01:00:00	8	Radiación solar	0
94473	7	Sololá	702	San José Chacayá	5	Chacayá	5	Mayo	2023-08-05T00:00:00	2024-11-06T02:00:00	2	Temperatura media	9.3
94474	7	Sololá	702	San José Chacayá	5	Chacayá	5	Mayo	2023-08-05T00:00:00	2024-11-06T02:00:00	4	Temperatura máxima	10.4
94475	7	Sololá	702	San José Chacayá	5	Chacayá	5	Mayo	2023-08-05T00:00:00	2024-11-06T02:00:00	3	Temperatura mínima	9.3
94476	7	Sololá	702	San José Chacayá	5	Chacayá	5	Mayo	2023-08-05T00:00:00	2024-11-06T02:00:00	5	Humedad	80
94477	7	Sololá	702	San José Chacayá	5	Chacayá	5	Mayo	2023-08-05T00:00:00	2024-11-06T02:00:00	6	Velocidad del viento	4.8
94478	7	Sololá	702	San José Chacayá	5	Chacayá	5	Mayo	2023-08-05T00:00:00	2024-11-06T02:00:00	7	Dirección del viento	4.83
94479	7	Sololá	702	San José Chacayá	5	Chacayá	5	Mayo	2023-08-05T00:00:00	2024-11-06T02:00:00	1	Precipitación	0
94480	7	Sololá	702	San José Chacayá	5	Chacayá	5	Mayo	2023-08-05T00:00:00	2024-11-06T02:00:00	8	Radiación solar	0
94481	7	Sololá	702	San José Chacayá	5	Chacayá	5	Mayo	2023-08-05T00:00:00	2024-11-06T03:00:00	2	Temperatura media	9.1
94482	7	Sololá	702	San José Chacayá	5	Chacayá	5	Mayo	2023-08-05T00:00:00	2024-11-06T03:00:00	4	Temperatura máxima	9.4
94483	7	Sololá	702	San José Chacayá	5	Chacayá	5	Mayo	2023-08-05T00:00:00	2024-11-06T03:00:00	3	Temperatura mínima	9.1
94484	7	Sololá	702	San José Chacayá	5	Chacayá	5	Mayo	2023-08-05T00:00:00	2024-11-06T03:00:00	5	Humedad	80
94485	7	Sololá	702	San José Chacayá	5	Chacayá	5	Mayo	2023-08-05T00:00:00	2024-11-06T03:00:00	6	Velocidad del viento	4.8
94486	7	Sololá	702	San José Chacayá	5	Chacayá	5	Mayo	2023-08-05T00:00:00	2024-11-06T03:00:00	7	Dirección del viento	4.83
94487	7	Sololá	702	San José Chacayá	5	Chacayá	5	Mayo	2023-08-05T00:00:00	2024-11-06T03:00:00	1	Precipitación	0
94488	7	Sololá	702	San José Chacayá	5	Chacayá	5	Mayo	2023-08-05T00:00:00	2024-11-06T03:00:00	8	Radiación solar	0
94489	7	Sololá	702	San José Chacayá	5	Chacayá	5	Mayo	2023-08-05T00:00:00	2024-11-06T04:00:00	2	Temperatura media	9.3
94490	7	Sololá	702	San José Chacayá	5	Chacayá	5	Mayo	2023-08-05T00:00:00	2024-11-06T04:00:00	4	Temperatura máxima	9.3
94491	7	Sololá	702	San José Chacayá	5	Chacayá	5	Mayo	2023-08-05T00:00:00	2024-11-06T04:00:00	3	Temperatura mínima	8.7
94492	7	Sololá	702	San José Chacayá	5	Chacayá	5	Mayo	2023-08-05T00:00:00	2024-11-06T04:00:00	5	Humedad	76
94493	7	Sololá	702	San José Chacayá	5	Chacayá	5	Mayo	2023-08-05T00:00:00	2024-11-06T04:00:00	6	Velocidad del viento	4.8
94494	7	Sololá	702	San José Chacayá	5	Chacayá	5	Mayo	2023-08-05T00:00:00	2024-11-06T04:00:00	7	Dirección del viento	4.83
94495	7	Sololá	702	San José Chacayá	5	Chacayá	5	Mayo	2023-08-05T00:00:00	2024-11-06T04:00:00	1	Precipitación	0
94496	7	Sololá	702	San José Chacayá	5	Chacayá	5	Mayo	2023-08-05T00:00:00	2024-11-06T04:00:00	8	Radiación solar	0
94497	7	Sololá	702	San José Chacayá	5	Chacayá	5	Mayo	2023-08-05T00:00:00	2024-11-06T05:00:00	2	Temperatura media	8.2
94498	7	Sololá	702	San José Chacayá	5	Chacayá	5	Mayo	2023-08-05T00:00:00	2024-11-06T05:00:00	4	Temperatura máxima	9.3
94499	7	Sololá	702	San José Chacayá	5	Chacayá	5	Mayo	2023-08-05T00:00:00	2024-11-06T05:00:00	3	Temperatura mínima	8.1
94500	7	Sololá	702	San José Chacayá	5	Chacayá	5	Mayo	2023-08-05T00:00:00	2024-11-06T05:00:00	5	Humedad	79
94501	7	Sololá	702	San José Chacayá	5	Chacayá	5	Mayo	2023-08-05T00:00:00	2024-11-06T05:00:00	6	Velocidad del viento	3.2
94502	7	Sololá	702	San José Chacayá	5	Chacayá	5	Mayo	2023-08-05T00:00:00	2024-11-06T05:00:00	7	Dirección del viento	3.22
94503	7	Sololá	702	San José Chacayá	5	Chacayá	5	Mayo	2023-08-05T00:00:00	2024-11-06T05:00:00	1	Precipitación	0
94504	7	Sololá	702	San José Chacayá	5	Chacayá	5	Mayo	2023-08-05T00:00:00	2024-11-06T05:00:00	8	Radiación solar	0
94505	7	Sololá	702	San José Chacayá	5	Chacayá	5	Mayo	2023-08-05T00:00:00	2024-11-06T06:00:00	2	Temperatura media	8.1
94506	7	Sololá	702	San José Chacayá	5	Chacayá	5	Mayo	2023-08-05T00:00:00	2024-11-06T06:00:00	4	Temperatura máxima	8.4
94507	7	Sololá	702	San José Chacayá	5	Chacayá	5	Mayo	2023-08-05T00:00:00	2024-11-06T06:00:00	3	Temperatura mínima	8.1
94508	7	Sololá	702	San José Chacayá	5	Chacayá	5	Mayo	2023-08-05T00:00:00	2024-11-06T06:00:00	5	Humedad	78
94509	7	Sololá	702	San José Chacayá	5	Chacayá	5	Mayo	2023-08-05T00:00:00	2024-11-06T06:00:00	6	Velocidad del viento	4.8
94510	7	Sololá	702	San José Chacayá	5	Chacayá	5	Mayo	2023-08-05T00:00:00	2024-11-06T06:00:00	7	Dirección del viento	4.83
94511	7	Sololá	702	San José Chacayá	5	Chacayá	5	Mayo	2023-08-05T00:00:00	2024-11-06T06:00:00	1	Precipitación	0
94512	7	Sololá	702	San José Chacayá	5	Chacayá	5	Mayo	2023-08-05T00:00:00	2024-11-06T06:00:00	8	Radiación solar	0
94513	7	Sololá	702	San José Chacayá	5	Chacayá	5	Mayo	2023-08-05T00:00:00	2024-11-06T07:00:00	2	Temperatura media	8.7
94514	7	Sololá	702	San José Chacayá	5	Chacayá	5	Mayo	2023-08-05T00:00:00	2024-11-06T07:00:00	4	Temperatura máxima	8.7
94515	7	Sololá	702	San José Chacayá	5	Chacayá	5	Mayo	2023-08-05T00:00:00	2024-11-06T07:00:00	3	Temperatura mínima	8
94516	7	Sololá	702	San José Chacayá	5	Chacayá	5	Mayo	2023-08-05T00:00:00	2024-11-06T07:00:00	5	Humedad	77
94517	7	Sololá	702	San José Chacayá	5	Chacayá	5	Mayo	2023-08-05T00:00:00	2024-11-06T07:00:00	6	Velocidad del viento	6.4
94518	7	Sololá	702	San José Chacayá	5	Chacayá	5	Mayo	2023-08-05T00:00:00	2024-11-06T07:00:00	7	Dirección del viento	6.44
94519	7	Sololá	702	San José Chacayá	5	Chacayá	5	Mayo	2023-08-05T00:00:00	2024-11-06T07:00:00	1	Precipitación	0
94520	7	Sololá	702	San José Chacayá	5	Chacayá	5	Mayo	2023-08-05T00:00:00	2024-11-06T07:00:00	8	Radiación solar	7
94521	7	Sololá	702	San José Chacayá	5	Chacayá	5	Mayo	2023-08-05T00:00:00	2024-11-06T08:00:00	2	Temperatura media	10.6
94522	7	Sololá	702	San José Chacayá	5	Chacayá	5	Mayo	2023-08-05T00:00:00	2024-11-06T08:00:00	4	Temperatura máxima	10.6
94523	7	Sololá	702	San José Chacayá	5	Chacayá	5	Mayo	2023-08-05T00:00:00	2024-11-06T08:00:00	3	Temperatura mínima	8.7
94524	7	Sololá	702	San José Chacayá	5	Chacayá	5	Mayo	2023-08-05T00:00:00	2024-11-06T08:00:00	5	Humedad	78
94525	7	Sololá	702	San José Chacayá	5	Chacayá	5	Mayo	2023-08-05T00:00:00	2024-11-06T08:00:00	6	Velocidad del viento	4.8
94526	7	Sololá	702	San José Chacayá	5	Chacayá	5	Mayo	2023-08-05T00:00:00	2024-11-06T08:00:00	7	Dirección del viento	4.83
94527	7	Sololá	702	San José Chacayá	5	Chacayá	5	Mayo	2023-08-05T00:00:00	2024-11-06T08:00:00	1	Precipitación	0
94528	7	Sololá	702	San José Chacayá	5	Chacayá	5	Mayo	2023-08-05T00:00:00	2024-11-06T08:00:00	8	Radiación solar	46
94529	7	Sololá	702	San José Chacayá	5	Chacayá	5	Mayo	2023-08-05T00:00:00	2024-11-06T09:00:00	2	Temperatura media	18.1
94530	7	Sololá	702	San José Chacayá	5	Chacayá	5	Mayo	2023-08-05T00:00:00	2024-11-06T09:00:00	4	Temperatura máxima	18.1
94531	7	Sololá	702	San José Chacayá	5	Chacayá	5	Mayo	2023-08-05T00:00:00	2024-11-06T09:00:00	3	Temperatura mínima	10.6
94532	7	Sololá	702	San José Chacayá	5	Chacayá	5	Mayo	2023-08-05T00:00:00	2024-11-06T09:00:00	5	Humedad	45
94533	7	Sololá	702	San José Chacayá	5	Chacayá	5	Mayo	2023-08-05T00:00:00	2024-11-06T09:00:00	6	Velocidad del viento	1.6
94534	7	Sololá	702	San José Chacayá	5	Chacayá	5	Mayo	2023-08-05T00:00:00	2024-11-06T09:00:00	7	Dirección del viento	1.61
94535	7	Sololá	702	San José Chacayá	5	Chacayá	5	Mayo	2023-08-05T00:00:00	2024-11-06T09:00:00	1	Precipitación	0
94536	7	Sololá	702	San José Chacayá	5	Chacayá	5	Mayo	2023-08-05T00:00:00	2024-11-06T09:00:00	8	Radiación solar	109
94537	7	Sololá	702	San José Chacayá	5	Chacayá	5	Mayo	2023-08-05T00:00:00	2024-11-06T10:00:00	2	Temperatura media	22.3
94538	7	Sololá	702	San José Chacayá	5	Chacayá	5	Mayo	2023-08-05T00:00:00	2024-11-06T10:00:00	4	Temperatura máxima	22.3
94539	7	Sololá	702	San José Chacayá	5	Chacayá	5	Mayo	2023-08-05T00:00:00	2024-11-06T10:00:00	3	Temperatura mínima	18.2
94540	7	Sololá	702	San José Chacayá	5	Chacayá	5	Mayo	2023-08-05T00:00:00	2024-11-06T10:00:00	5	Humedad	36
94541	7	Sololá	702	San José Chacayá	5	Chacayá	5	Mayo	2023-08-05T00:00:00	2024-11-06T10:00:00	6	Velocidad del viento	3.2
94542	7	Sololá	702	San José Chacayá	5	Chacayá	5	Mayo	2023-08-05T00:00:00	2024-11-06T10:00:00	7	Dirección del viento	3.22
94543	7	Sololá	702	San José Chacayá	5	Chacayá	5	Mayo	2023-08-05T00:00:00	2024-11-06T10:00:00	1	Precipitación	0
94544	7	Sololá	702	San José Chacayá	5	Chacayá	5	Mayo	2023-08-05T00:00:00	2024-11-06T10:00:00	8	Radiación solar	549
94545	7	Sololá	702	San José Chacayá	5	Chacayá	5	Mayo	2023-08-05T00:00:00	2024-11-06T11:00:00	2	Temperatura media	23.2
94546	7	Sololá	702	San José Chacayá	5	Chacayá	5	Mayo	2023-08-05T00:00:00	2024-11-06T11:00:00	4	Temperatura máxima	23.2
94547	7	Sololá	702	San José Chacayá	5	Chacayá	5	Mayo	2023-08-05T00:00:00	2024-11-06T11:00:00	3	Temperatura mínima	22.3
94548	7	Sololá	702	San José Chacayá	5	Chacayá	5	Mayo	2023-08-05T00:00:00	2024-11-06T11:00:00	5	Humedad	37
94549	7	Sololá	702	San José Chacayá	5	Chacayá	5	Mayo	2023-08-05T00:00:00	2024-11-06T11:00:00	6	Velocidad del viento	4.8
94550	7	Sololá	702	San José Chacayá	5	Chacayá	5	Mayo	2023-08-05T00:00:00	2024-11-06T11:00:00	7	Dirección del viento	4.83
94551	7	Sololá	702	San José Chacayá	5	Chacayá	5	Mayo	2023-08-05T00:00:00	2024-11-06T11:00:00	1	Precipitación	0
94552	7	Sololá	702	San José Chacayá	5	Chacayá	5	Mayo	2023-08-05T00:00:00	2024-11-06T11:00:00	8	Radiación solar	795
94553	7	Sololá	702	San José Chacayá	5	Chacayá	5	Mayo	2023-08-05T00:00:00	2024-11-06T12:00:00	2	Temperatura media	23.8
94554	7	Sololá	702	San José Chacayá	5	Chacayá	5	Mayo	2023-08-05T00:00:00	2024-11-06T12:00:00	4	Temperatura máxima	24
94555	7	Sololá	702	San José Chacayá	5	Chacayá	5	Mayo	2023-08-05T00:00:00	2024-11-06T12:00:00	3	Temperatura mínima	23.1
94556	7	Sololá	702	San José Chacayá	5	Chacayá	5	Mayo	2023-08-05T00:00:00	2024-11-06T12:00:00	5	Humedad	39
94557	7	Sololá	702	San José Chacayá	5	Chacayá	5	Mayo	2023-08-05T00:00:00	2024-11-06T12:00:00	6	Velocidad del viento	4.8
94558	7	Sololá	702	San José Chacayá	5	Chacayá	5	Mayo	2023-08-05T00:00:00	2024-11-06T12:00:00	7	Dirección del viento	4.83
94559	7	Sololá	702	San José Chacayá	5	Chacayá	5	Mayo	2023-08-05T00:00:00	2024-11-06T12:00:00	1	Precipitación	0
94560	7	Sololá	702	San José Chacayá	5	Chacayá	5	Mayo	2023-08-05T00:00:00	2024-11-06T12:00:00	8	Radiación solar	914
94561	7	Sololá	702	San José Chacayá	5	Chacayá	5	Mayo	2023-08-05T00:00:00	2024-11-06T13:00:00	2	Temperatura media	24.5
94562	7	Sololá	702	San José Chacayá	5	Chacayá	5	Mayo	2023-08-05T00:00:00	2024-11-06T13:00:00	4	Temperatura máxima	24.7
94563	7	Sololá	702	San José Chacayá	5	Chacayá	5	Mayo	2023-08-05T00:00:00	2024-11-06T13:00:00	3	Temperatura mínima	23.8
94564	7	Sololá	702	San José Chacayá	5	Chacayá	5	Mayo	2023-08-05T00:00:00	2024-11-06T13:00:00	5	Humedad	41
94565	7	Sololá	702	San José Chacayá	5	Chacayá	5	Mayo	2023-08-05T00:00:00	2024-11-06T13:00:00	6	Velocidad del viento	6.4
94566	7	Sololá	702	San José Chacayá	5	Chacayá	5	Mayo	2023-08-05T00:00:00	2024-11-06T13:00:00	7	Dirección del viento	6.44
94567	7	Sololá	702	San José Chacayá	5	Chacayá	5	Mayo	2023-08-05T00:00:00	2024-11-06T13:00:00	1	Precipitación	0
94568	7	Sololá	702	San José Chacayá	5	Chacayá	5	Mayo	2023-08-05T00:00:00	2024-11-06T13:00:00	8	Radiación solar	971
94569	7	Sololá	702	San José Chacayá	5	Chacayá	5	Mayo	2023-08-05T00:00:00	2024-11-06T14:00:00	2	Temperatura media	24
94570	7	Sololá	702	San José Chacayá	5	Chacayá	5	Mayo	2023-08-05T00:00:00	2024-11-06T14:00:00	4	Temperatura máxima	24.7
94571	7	Sololá	702	San José Chacayá	5	Chacayá	5	Mayo	2023-08-05T00:00:00	2024-11-06T14:00:00	3	Temperatura mínima	24
94572	7	Sololá	702	San José Chacayá	5	Chacayá	5	Mayo	2023-08-05T00:00:00	2024-11-06T14:00:00	5	Humedad	50
94573	7	Sololá	702	San José Chacayá	5	Chacayá	5	Mayo	2023-08-05T00:00:00	2024-11-06T14:00:00	6	Velocidad del viento	6.4
94574	7	Sololá	702	San José Chacayá	5	Chacayá	5	Mayo	2023-08-05T00:00:00	2024-11-06T14:00:00	7	Dirección del viento	6.44
94575	7	Sololá	702	San José Chacayá	5	Chacayá	5	Mayo	2023-08-05T00:00:00	2024-11-06T14:00:00	1	Precipitación	0
94576	7	Sololá	702	San José Chacayá	5	Chacayá	5	Mayo	2023-08-05T00:00:00	2024-11-06T14:00:00	8	Radiación solar	964
94577	7	Sololá	702	San José Chacayá	5	Chacayá	5	Mayo	2023-08-05T00:00:00	2024-11-06T15:00:00	2	Temperatura media	24.3
94578	7	Sololá	702	San José Chacayá	5	Chacayá	5	Mayo	2023-08-05T00:00:00	2024-11-06T15:00:00	4	Temperatura máxima	24.8
94579	7	Sololá	702	San José Chacayá	5	Chacayá	5	Mayo	2023-08-05T00:00:00	2024-11-06T15:00:00	3	Temperatura mínima	23.8
94580	7	Sololá	702	San José Chacayá	5	Chacayá	5	Mayo	2023-08-05T00:00:00	2024-11-06T15:00:00	5	Humedad	51
94581	7	Sololá	702	San José Chacayá	5	Chacayá	5	Mayo	2023-08-05T00:00:00	2024-11-06T15:00:00	6	Velocidad del viento	6.4
94582	7	Sololá	702	San José Chacayá	5	Chacayá	5	Mayo	2023-08-05T00:00:00	2024-11-06T15:00:00	7	Dirección del viento	6.44
94583	7	Sololá	702	San José Chacayá	5	Chacayá	5	Mayo	2023-08-05T00:00:00	2024-11-06T15:00:00	1	Precipitación	0
94584	7	Sololá	702	San José Chacayá	5	Chacayá	5	Mayo	2023-08-05T00:00:00	2024-11-06T15:00:00	8	Radiación solar	918
94585	7	Sololá	702	San José Chacayá	5	Chacayá	5	Mayo	2023-08-05T00:00:00	2024-11-06T16:00:00	2	Temperatura media	23.3
94586	7	Sololá	702	San José Chacayá	5	Chacayá	5	Mayo	2023-08-05T00:00:00	2024-11-06T16:00:00	4	Temperatura máxima	24.3
94587	7	Sololá	702	San José Chacayá	5	Chacayá	5	Mayo	2023-08-05T00:00:00	2024-11-06T16:00:00	3	Temperatura mínima	23.3
94588	7	Sololá	702	San José Chacayá	5	Chacayá	5	Mayo	2023-08-05T00:00:00	2024-11-06T16:00:00	5	Humedad	65
94589	7	Sololá	702	San José Chacayá	5	Chacayá	5	Mayo	2023-08-05T00:00:00	2024-11-06T16:00:00	6	Velocidad del viento	6.4
94590	7	Sololá	702	San José Chacayá	5	Chacayá	5	Mayo	2023-08-05T00:00:00	2024-11-06T16:00:00	7	Dirección del viento	6.44
94591	7	Sololá	702	San José Chacayá	5	Chacayá	5	Mayo	2023-08-05T00:00:00	2024-11-06T16:00:00	1	Precipitación	0
94592	7	Sololá	702	San José Chacayá	5	Chacayá	5	Mayo	2023-08-05T00:00:00	2024-11-06T16:00:00	8	Radiación solar	798
94593	7	Sololá	702	San José Chacayá	5	Chacayá	5	Mayo	2023-08-05T00:00:00	2024-11-06T17:00:00	2	Temperatura media	21
94594	7	Sololá	702	San José Chacayá	5	Chacayá	5	Mayo	2023-08-05T00:00:00	2024-11-06T17:00:00	4	Temperatura máxima	23.3
94595	7	Sololá	702	San José Chacayá	5	Chacayá	5	Mayo	2023-08-05T00:00:00	2024-11-06T17:00:00	3	Temperatura mínima	21
94596	7	Sololá	702	San José Chacayá	5	Chacayá	5	Mayo	2023-08-05T00:00:00	2024-11-06T17:00:00	5	Humedad	76
94597	7	Sololá	702	San José Chacayá	5	Chacayá	5	Mayo	2023-08-05T00:00:00	2024-11-06T17:00:00	6	Velocidad del viento	4.8
94598	7	Sololá	702	San José Chacayá	5	Chacayá	5	Mayo	2023-08-05T00:00:00	2024-11-06T17:00:00	7	Dirección del viento	4.83
94599	7	Sololá	702	San José Chacayá	5	Chacayá	5	Mayo	2023-08-05T00:00:00	2024-11-06T17:00:00	1	Precipitación	0
94600	7	Sololá	702	San José Chacayá	5	Chacayá	5	Mayo	2023-08-05T00:00:00	2024-11-06T17:00:00	8	Radiación solar	523
94601	7	Sololá	702	San José Chacayá	5	Chacayá	5	Mayo	2023-08-05T00:00:00	2024-11-06T18:00:00	2	Temperatura media	18.8
94602	7	Sololá	702	San José Chacayá	5	Chacayá	5	Mayo	2023-08-05T00:00:00	2024-11-06T18:00:00	4	Temperatura máxima	21.1
94603	7	Sololá	702	San José Chacayá	5	Chacayá	5	Mayo	2023-08-05T00:00:00	2024-11-06T18:00:00	3	Temperatura mínima	18.8
94604	7	Sololá	702	San José Chacayá	5	Chacayá	5	Mayo	2023-08-05T00:00:00	2024-11-06T18:00:00	5	Humedad	81
94605	7	Sololá	702	San José Chacayá	5	Chacayá	5	Mayo	2023-08-05T00:00:00	2024-11-06T18:00:00	6	Velocidad del viento	4.8
94606	7	Sololá	702	San José Chacayá	5	Chacayá	5	Mayo	2023-08-05T00:00:00	2024-11-06T18:00:00	7	Dirección del viento	4.83
94607	7	Sololá	702	San José Chacayá	5	Chacayá	5	Mayo	2023-08-05T00:00:00	2024-11-06T18:00:00	1	Precipitación	0
94608	7	Sololá	702	San José Chacayá	5	Chacayá	5	Mayo	2023-08-05T00:00:00	2024-11-06T18:00:00	8	Radiación solar	140
94609	7	Sololá	702	San José Chacayá	5	Chacayá	5	Mayo	2023-08-05T00:00:00	2024-11-06T19:00:00	2	Temperatura media	17.6
94610	7	Sololá	702	San José Chacayá	5	Chacayá	5	Mayo	2023-08-05T00:00:00	2024-11-06T19:00:00	4	Temperatura máxima	18.8
94611	7	Sololá	702	San José Chacayá	5	Chacayá	5	Mayo	2023-08-05T00:00:00	2024-11-06T19:00:00	3	Temperatura mínima	17.6
94612	7	Sololá	702	San José Chacayá	5	Chacayá	5	Mayo	2023-08-05T00:00:00	2024-11-06T19:00:00	5	Humedad	81
94613	7	Sololá	702	San José Chacayá	5	Chacayá	5	Mayo	2023-08-05T00:00:00	2024-11-06T19:00:00	6	Velocidad del viento	1.6
94614	7	Sololá	702	San José Chacayá	5	Chacayá	5	Mayo	2023-08-05T00:00:00	2024-11-06T19:00:00	7	Dirección del viento	1.61
94615	7	Sololá	702	San José Chacayá	5	Chacayá	5	Mayo	2023-08-05T00:00:00	2024-11-06T19:00:00	1	Precipitación	0
94616	7	Sololá	702	San José Chacayá	5	Chacayá	5	Mayo	2023-08-05T00:00:00	2024-11-06T19:00:00	8	Radiación solar	0
94617	7	Sololá	702	San José Chacayá	5	Chacayá	5	Mayo	2023-08-05T00:00:00	2024-11-06T20:00:00	2	Temperatura media	17.2
94618	7	Sololá	702	San José Chacayá	5	Chacayá	5	Mayo	2023-08-05T00:00:00	2024-11-06T20:00:00	4	Temperatura máxima	17.6
94619	7	Sololá	702	San José Chacayá	5	Chacayá	5	Mayo	2023-08-05T00:00:00	2024-11-06T20:00:00	3	Temperatura mínima	17.1
94620	7	Sololá	702	San José Chacayá	5	Chacayá	5	Mayo	2023-08-05T00:00:00	2024-11-06T20:00:00	5	Humedad	81
94621	7	Sololá	702	San José Chacayá	5	Chacayá	5	Mayo	2023-08-05T00:00:00	2024-11-06T20:00:00	6	Velocidad del viento	0
94622	7	Sololá	702	San José Chacayá	5	Chacayá	5	Mayo	2023-08-05T00:00:00	2024-11-06T20:00:00	7	Dirección del viento	0
94623	7	Sololá	702	San José Chacayá	5	Chacayá	5	Mayo	2023-08-05T00:00:00	2024-11-06T20:00:00	1	Precipitación	0
94624	7	Sololá	702	San José Chacayá	5	Chacayá	5	Mayo	2023-08-05T00:00:00	2024-11-06T20:00:00	8	Radiación solar	0
94625	7	Sololá	702	San José Chacayá	5	Chacayá	5	Mayo	2023-08-05T00:00:00	2024-11-06T21:00:00	2	Temperatura media	16.5
94626	7	Sololá	702	San José Chacayá	5	Chacayá	5	Mayo	2023-08-05T00:00:00	2024-11-06T21:00:00	4	Temperatura máxima	17.2
94627	7	Sololá	702	San José Chacayá	5	Chacayá	5	Mayo	2023-08-05T00:00:00	2024-11-06T21:00:00	3	Temperatura mínima	16.5
94628	7	Sololá	702	San José Chacayá	5	Chacayá	5	Mayo	2023-08-05T00:00:00	2024-11-06T21:00:00	5	Humedad	82
94629	7	Sololá	702	San José Chacayá	5	Chacayá	5	Mayo	2023-08-05T00:00:00	2024-11-06T21:00:00	6	Velocidad del viento	0
94630	7	Sololá	702	San José Chacayá	5	Chacayá	5	Mayo	2023-08-05T00:00:00	2024-11-06T21:00:00	7	Dirección del viento	0
94631	7	Sololá	702	San José Chacayá	5	Chacayá	5	Mayo	2023-08-05T00:00:00	2024-11-06T21:00:00	1	Precipitación	0
94632	7	Sololá	702	San José Chacayá	5	Chacayá	5	Mayo	2023-08-05T00:00:00	2024-11-06T21:00:00	8	Radiación solar	0
94633	7	Sololá	702	San José Chacayá	5	Chacayá	5	Mayo	2023-08-05T00:00:00	2024-11-06T22:00:00	2	Temperatura media	15.8
94634	7	Sololá	702	San José Chacayá	5	Chacayá	5	Mayo	2023-08-05T00:00:00	2024-11-06T22:00:00	4	Temperatura máxima	16.5
94635	7	Sololá	702	San José Chacayá	5	Chacayá	5	Mayo	2023-08-05T00:00:00	2024-11-06T22:00:00	3	Temperatura mínima	15.8
94636	7	Sololá	702	San José Chacayá	5	Chacayá	5	Mayo	2023-08-05T00:00:00	2024-11-06T22:00:00	5	Humedad	83
94637	7	Sololá	702	San José Chacayá	5	Chacayá	5	Mayo	2023-08-05T00:00:00	2024-11-06T22:00:00	6	Velocidad del viento	0
94638	7	Sololá	702	San José Chacayá	5	Chacayá	5	Mayo	2023-08-05T00:00:00	2024-11-06T22:00:00	7	Dirección del viento	0
94639	7	Sololá	702	San José Chacayá	5	Chacayá	5	Mayo	2023-08-05T00:00:00	2024-11-06T22:00:00	1	Precipitación	0
94640	7	Sololá	702	San José Chacayá	5	Chacayá	5	Mayo	2023-08-05T00:00:00	2024-11-06T22:00:00	8	Radiación solar	0
94641	7	Sololá	702	San José Chacayá	5	Chacayá	5	Mayo	2023-08-05T00:00:00	2024-11-06T23:00:00	2	Temperatura media	15.9
94642	7	Sololá	702	San José Chacayá	5	Chacayá	5	Mayo	2023-08-05T00:00:00	2024-11-06T23:00:00	4	Temperatura máxima	16.1
94643	7	Sololá	702	San José Chacayá	5	Chacayá	5	Mayo	2023-08-05T00:00:00	2024-11-06T23:00:00	3	Temperatura mínima	15.7
94644	7	Sololá	702	San José Chacayá	5	Chacayá	5	Mayo	2023-08-05T00:00:00	2024-11-06T23:00:00	5	Humedad	82
94645	7	Sololá	702	San José Chacayá	5	Chacayá	5	Mayo	2023-08-05T00:00:00	2024-11-06T23:00:00	6	Velocidad del viento	0
94646	7	Sololá	702	San José Chacayá	5	Chacayá	5	Mayo	2023-08-05T00:00:00	2024-11-06T23:00:00	7	Dirección del viento	0
94647	7	Sololá	702	San José Chacayá	5	Chacayá	5	Mayo	2023-08-05T00:00:00	2024-11-06T23:00:00	1	Precipitación	0
94648	7	Sololá	702	San José Chacayá	5	Chacayá	5	Mayo	2023-08-05T00:00:00	2024-11-06T23:00:00	8	Radiación solar	0
94649	7	Sololá	702	San José Chacayá	5	Chacayá	5	Mayo	2023-09-05T00:00:00	2024-11-06T00:00:00	2	Temperatura media	13.8
94650	7	Sololá	702	San José Chacayá	5	Chacayá	5	Mayo	2023-09-05T00:00:00	2024-11-06T00:00:00	4	Temperatura máxima	15.9
94651	7	Sololá	702	San José Chacayá	5	Chacayá	5	Mayo	2023-09-05T00:00:00	2024-11-06T00:00:00	3	Temperatura mínima	13.8
94652	7	Sololá	702	San José Chacayá	5	Chacayá	5	Mayo	2023-09-05T00:00:00	2024-11-06T00:00:00	5	Humedad	83
94653	7	Sololá	702	San José Chacayá	5	Chacayá	5	Mayo	2023-09-05T00:00:00	2024-11-06T00:00:00	6	Velocidad del viento	1.6
94654	7	Sololá	702	San José Chacayá	5	Chacayá	5	Mayo	2023-09-05T00:00:00	2024-11-06T00:00:00	7	Dirección del viento	1.61
94655	7	Sololá	702	San José Chacayá	5	Chacayá	5	Mayo	2023-09-05T00:00:00	2024-11-06T00:00:00	1	Precipitación	0
94656	7	Sololá	702	San José Chacayá	5	Chacayá	5	Mayo	2023-09-05T00:00:00	2024-11-06T00:00:00	8	Radiación solar	0
94657	7	Sololá	702	San José Chacayá	5	Chacayá	5	Mayo	2023-09-05T00:00:00	2024-11-06T01:00:00	2	Temperatura media	12.1
94658	7	Sololá	702	San José Chacayá	5	Chacayá	5	Mayo	2023-09-05T00:00:00	2024-11-06T01:00:00	4	Temperatura máxima	13.8
94659	7	Sololá	702	San José Chacayá	5	Chacayá	5	Mayo	2023-09-05T00:00:00	2024-11-06T01:00:00	3	Temperatura mínima	12.1
94660	7	Sololá	702	San José Chacayá	5	Chacayá	5	Mayo	2023-09-05T00:00:00	2024-11-06T01:00:00	5	Humedad	84
94661	7	Sololá	702	San José Chacayá	5	Chacayá	5	Mayo	2023-09-05T00:00:00	2024-11-06T01:00:00	6	Velocidad del viento	1.6
94662	7	Sololá	702	San José Chacayá	5	Chacayá	5	Mayo	2023-09-05T00:00:00	2024-11-06T01:00:00	7	Dirección del viento	1.61
94663	7	Sololá	702	San José Chacayá	5	Chacayá	5	Mayo	2023-09-05T00:00:00	2024-11-06T01:00:00	1	Precipitación	0
94664	7	Sololá	702	San José Chacayá	5	Chacayá	5	Mayo	2023-09-05T00:00:00	2024-11-06T01:00:00	8	Radiación solar	0
94665	7	Sololá	702	San José Chacayá	5	Chacayá	5	Mayo	2023-09-05T00:00:00	2024-11-06T02:00:00	2	Temperatura media	11.2
94666	7	Sololá	702	San José Chacayá	5	Chacayá	5	Mayo	2023-09-05T00:00:00	2024-11-06T02:00:00	4	Temperatura máxima	12.1
94667	7	Sololá	702	San José Chacayá	5	Chacayá	5	Mayo	2023-09-05T00:00:00	2024-11-06T02:00:00	3	Temperatura mínima	11.2
94668	7	Sololá	702	San José Chacayá	5	Chacayá	5	Mayo	2023-09-05T00:00:00	2024-11-06T02:00:00	5	Humedad	81
94669	7	Sololá	702	San José Chacayá	5	Chacayá	5	Mayo	2023-09-05T00:00:00	2024-11-06T02:00:00	6	Velocidad del viento	3.2
94670	7	Sololá	702	San José Chacayá	5	Chacayá	5	Mayo	2023-09-05T00:00:00	2024-11-06T02:00:00	7	Dirección del viento	3.22
94671	7	Sololá	702	San José Chacayá	5	Chacayá	5	Mayo	2023-09-05T00:00:00	2024-11-06T02:00:00	1	Precipitación	0
94672	7	Sololá	702	San José Chacayá	5	Chacayá	5	Mayo	2023-09-05T00:00:00	2024-11-06T02:00:00	8	Radiación solar	0
94673	7	Sololá	702	San José Chacayá	5	Chacayá	5	Mayo	2023-09-05T00:00:00	2024-11-06T03:00:00	2	Temperatura media	10.1
94674	7	Sololá	702	San José Chacayá	5	Chacayá	5	Mayo	2023-09-05T00:00:00	2024-11-06T03:00:00	4	Temperatura máxima	11.2
94675	7	Sololá	702	San José Chacayá	5	Chacayá	5	Mayo	2023-09-05T00:00:00	2024-11-06T03:00:00	3	Temperatura mínima	10.1
94676	7	Sololá	702	San José Chacayá	5	Chacayá	5	Mayo	2023-09-05T00:00:00	2024-11-06T03:00:00	5	Humedad	80
94677	7	Sololá	702	San José Chacayá	5	Chacayá	5	Mayo	2023-09-05T00:00:00	2024-11-06T03:00:00	6	Velocidad del viento	4.8
94678	7	Sololá	702	San José Chacayá	5	Chacayá	5	Mayo	2023-09-05T00:00:00	2024-11-06T03:00:00	7	Dirección del viento	4.83
94679	7	Sololá	702	San José Chacayá	5	Chacayá	5	Mayo	2023-09-05T00:00:00	2024-11-06T03:00:00	1	Precipitación	0
94680	7	Sololá	702	San José Chacayá	5	Chacayá	5	Mayo	2023-09-05T00:00:00	2024-11-06T03:00:00	8	Radiación solar	0
94681	7	Sololá	702	San José Chacayá	5	Chacayá	5	Mayo	2023-09-05T00:00:00	2024-11-06T04:00:00	2	Temperatura media	9.4
94682	7	Sololá	702	San José Chacayá	5	Chacayá	5	Mayo	2023-09-05T00:00:00	2024-11-06T04:00:00	4	Temperatura máxima	10.1
94683	7	Sololá	702	San José Chacayá	5	Chacayá	5	Mayo	2023-09-05T00:00:00	2024-11-06T04:00:00	3	Temperatura mínima	9.3
94684	7	Sololá	702	San José Chacayá	5	Chacayá	5	Mayo	2023-09-05T00:00:00	2024-11-06T04:00:00	5	Humedad	79
94685	7	Sololá	702	San José Chacayá	5	Chacayá	5	Mayo	2023-09-05T00:00:00	2024-11-06T04:00:00	6	Velocidad del viento	4.8
94686	7	Sololá	702	San José Chacayá	5	Chacayá	5	Mayo	2023-09-05T00:00:00	2024-11-06T04:00:00	7	Dirección del viento	4.83
94687	7	Sololá	702	San José Chacayá	5	Chacayá	5	Mayo	2023-09-05T00:00:00	2024-11-06T04:00:00	1	Precipitación	0
94688	7	Sololá	702	San José Chacayá	5	Chacayá	5	Mayo	2023-09-05T00:00:00	2024-11-06T04:00:00	8	Radiación solar	0
94689	7	Sololá	702	San José Chacayá	5	Chacayá	5	Mayo	2023-09-05T00:00:00	2024-11-06T05:00:00	2	Temperatura media	8.6
94690	7	Sololá	702	San José Chacayá	5	Chacayá	5	Mayo	2023-09-05T00:00:00	2024-11-06T05:00:00	4	Temperatura máxima	9.4
94691	7	Sololá	702	San José Chacayá	5	Chacayá	5	Mayo	2023-09-05T00:00:00	2024-11-06T05:00:00	3	Temperatura mínima	8.6
94692	7	Sololá	702	San José Chacayá	5	Chacayá	5	Mayo	2023-09-05T00:00:00	2024-11-06T05:00:00	5	Humedad	80
94693	7	Sololá	702	San José Chacayá	5	Chacayá	5	Mayo	2023-09-05T00:00:00	2024-11-06T05:00:00	6	Velocidad del viento	4.8
94694	7	Sololá	702	San José Chacayá	5	Chacayá	5	Mayo	2023-09-05T00:00:00	2024-11-06T05:00:00	7	Dirección del viento	4.83
94695	7	Sololá	702	San José Chacayá	5	Chacayá	5	Mayo	2023-09-05T00:00:00	2024-11-06T05:00:00	1	Precipitación	0
94696	7	Sololá	702	San José Chacayá	5	Chacayá	5	Mayo	2023-09-05T00:00:00	2024-11-06T05:00:00	8	Radiación solar	0
94697	7	Sololá	702	San José Chacayá	5	Chacayá	5	Mayo	2023-09-05T00:00:00	2024-11-06T06:00:00	2	Temperatura media	9.1
94698	7	Sololá	702	San José Chacayá	5	Chacayá	5	Mayo	2023-09-05T00:00:00	2024-11-06T06:00:00	4	Temperatura máxima	9.3
94699	7	Sololá	702	San José Chacayá	5	Chacayá	5	Mayo	2023-09-05T00:00:00	2024-11-06T06:00:00	3	Temperatura mínima	8.6
94700	7	Sololá	702	San José Chacayá	5	Chacayá	5	Mayo	2023-09-05T00:00:00	2024-11-06T06:00:00	5	Humedad	80
94701	7	Sololá	702	San José Chacayá	5	Chacayá	5	Mayo	2023-09-05T00:00:00	2024-11-06T06:00:00	6	Velocidad del viento	4.8
94702	7	Sololá	702	San José Chacayá	5	Chacayá	5	Mayo	2023-09-05T00:00:00	2024-11-06T06:00:00	7	Dirección del viento	4.83
94703	7	Sololá	702	San José Chacayá	5	Chacayá	5	Mayo	2023-09-05T00:00:00	2024-11-06T06:00:00	1	Precipitación	0
94704	7	Sololá	702	San José Chacayá	5	Chacayá	5	Mayo	2023-09-05T00:00:00	2024-11-06T06:00:00	8	Radiación solar	0
94705	7	Sololá	702	San José Chacayá	5	Chacayá	5	Mayo	2023-09-05T00:00:00	2024-11-06T07:00:00	2	Temperatura media	9
94706	7	Sololá	702	San José Chacayá	5	Chacayá	5	Mayo	2023-09-05T00:00:00	2024-11-06T07:00:00	4	Temperatura máxima	9.1
94707	7	Sololá	702	San José Chacayá	5	Chacayá	5	Mayo	2023-09-05T00:00:00	2024-11-06T07:00:00	3	Temperatura mínima	8.8
94708	7	Sololá	702	San José Chacayá	5	Chacayá	5	Mayo	2023-09-05T00:00:00	2024-11-06T07:00:00	5	Humedad	82
94709	7	Sololá	702	San José Chacayá	5	Chacayá	5	Mayo	2023-09-05T00:00:00	2024-11-06T07:00:00	6	Velocidad del viento	3.2
94710	7	Sololá	702	San José Chacayá	5	Chacayá	5	Mayo	2023-09-05T00:00:00	2024-11-06T07:00:00	7	Dirección del viento	3.22
94711	7	Sololá	702	San José Chacayá	5	Chacayá	5	Mayo	2023-09-05T00:00:00	2024-11-06T07:00:00	1	Precipitación	0
94712	7	Sololá	702	San José Chacayá	5	Chacayá	5	Mayo	2023-09-05T00:00:00	2024-11-06T07:00:00	8	Radiación solar	7
94713	7	Sololá	702	San José Chacayá	5	Chacayá	5	Mayo	2023-09-05T00:00:00	2024-11-06T08:00:00	2	Temperatura media	12.2
94714	7	Sololá	702	San José Chacayá	5	Chacayá	5	Mayo	2023-09-05T00:00:00	2024-11-06T08:00:00	4	Temperatura máxima	12.2
94715	7	Sololá	702	San José Chacayá	5	Chacayá	5	Mayo	2023-09-05T00:00:00	2024-11-06T08:00:00	3	Temperatura mínima	9
94716	7	Sololá	702	San José Chacayá	5	Chacayá	5	Mayo	2023-09-05T00:00:00	2024-11-06T08:00:00	5	Humedad	81
94717	7	Sololá	702	San José Chacayá	5	Chacayá	5	Mayo	2023-09-05T00:00:00	2024-11-06T08:00:00	6	Velocidad del viento	3.2
94718	7	Sololá	702	San José Chacayá	5	Chacayá	5	Mayo	2023-09-05T00:00:00	2024-11-06T08:00:00	7	Dirección del viento	3.22
94719	7	Sololá	702	San José Chacayá	5	Chacayá	5	Mayo	2023-09-05T00:00:00	2024-11-06T08:00:00	1	Precipitación	0
94720	7	Sololá	702	San José Chacayá	5	Chacayá	5	Mayo	2023-09-05T00:00:00	2024-11-06T08:00:00	8	Radiación solar	81
94721	7	Sololá	702	San José Chacayá	5	Chacayá	5	Mayo	2023-09-05T00:00:00	2024-11-06T09:00:00	2	Temperatura media	17
94722	7	Sololá	702	San José Chacayá	5	Chacayá	5	Mayo	2023-09-05T00:00:00	2024-11-06T09:00:00	4	Temperatura máxima	17
94723	7	Sololá	702	San José Chacayá	5	Chacayá	5	Mayo	2023-09-05T00:00:00	2024-11-06T09:00:00	3	Temperatura mínima	12.1
94724	7	Sololá	702	San José Chacayá	5	Chacayá	5	Mayo	2023-09-05T00:00:00	2024-11-06T09:00:00	5	Humedad	69
94725	7	Sololá	702	San José Chacayá	5	Chacayá	5	Mayo	2023-09-05T00:00:00	2024-11-06T09:00:00	6	Velocidad del viento	1.6
94726	7	Sololá	702	San José Chacayá	5	Chacayá	5	Mayo	2023-09-05T00:00:00	2024-11-06T09:00:00	7	Dirección del viento	1.61
94727	7	Sololá	702	San José Chacayá	5	Chacayá	5	Mayo	2023-09-05T00:00:00	2024-11-06T09:00:00	1	Precipitación	0
94728	7	Sololá	702	San José Chacayá	5	Chacayá	5	Mayo	2023-09-05T00:00:00	2024-11-06T09:00:00	8	Radiación solar	154
94729	7	Sololá	702	San José Chacayá	5	Chacayá	5	Mayo	2023-09-05T00:00:00	2024-11-06T10:00:00	2	Temperatura media	20.2
94730	7	Sololá	702	San José Chacayá	5	Chacayá	5	Mayo	2023-09-05T00:00:00	2024-11-06T10:00:00	4	Temperatura máxima	20.3
94731	7	Sololá	702	San José Chacayá	5	Chacayá	5	Mayo	2023-09-05T00:00:00	2024-11-06T10:00:00	3	Temperatura mínima	17
94732	7	Sololá	702	San José Chacayá	5	Chacayá	5	Mayo	2023-09-05T00:00:00	2024-11-06T10:00:00	5	Humedad	61
94733	7	Sololá	702	San José Chacayá	5	Chacayá	5	Mayo	2023-09-05T00:00:00	2024-11-06T10:00:00	6	Velocidad del viento	1.6
94734	7	Sololá	702	San José Chacayá	5	Chacayá	5	Mayo	2023-09-05T00:00:00	2024-11-06T10:00:00	7	Dirección del viento	1.61
94735	7	Sololá	702	San José Chacayá	5	Chacayá	5	Mayo	2023-09-05T00:00:00	2024-11-06T10:00:00	1	Precipitación	0
94736	7	Sololá	702	San José Chacayá	5	Chacayá	5	Mayo	2023-09-05T00:00:00	2024-11-06T10:00:00	8	Radiación solar	562
94737	7	Sololá	702	San José Chacayá	5	Chacayá	5	Mayo	2023-09-05T00:00:00	2024-11-06T11:00:00	2	Temperatura media	21.6
94738	7	Sololá	702	San José Chacayá	5	Chacayá	5	Mayo	2023-09-05T00:00:00	2024-11-06T11:00:00	4	Temperatura máxima	21.7
94739	7	Sololá	702	San José Chacayá	5	Chacayá	5	Mayo	2023-09-05T00:00:00	2024-11-06T11:00:00	3	Temperatura mínima	20.2
94740	7	Sololá	702	San José Chacayá	5	Chacayá	5	Mayo	2023-09-05T00:00:00	2024-11-06T11:00:00	5	Humedad	57
94741	7	Sololá	702	San José Chacayá	5	Chacayá	5	Mayo	2023-09-05T00:00:00	2024-11-06T11:00:00	6	Velocidad del viento	4.8
94742	7	Sololá	702	San José Chacayá	5	Chacayá	5	Mayo	2023-09-05T00:00:00	2024-11-06T11:00:00	7	Dirección del viento	4.83
94743	7	Sololá	702	San José Chacayá	5	Chacayá	5	Mayo	2023-09-05T00:00:00	2024-11-06T11:00:00	1	Precipitación	0
94744	7	Sololá	702	San José Chacayá	5	Chacayá	5	Mayo	2023-09-05T00:00:00	2024-11-06T11:00:00	8	Radiación solar	787
94745	7	Sololá	702	San José Chacayá	5	Chacayá	5	Mayo	2023-09-05T00:00:00	2024-11-06T12:00:00	2	Temperatura media	22.4
94746	7	Sololá	702	San José Chacayá	5	Chacayá	5	Mayo	2023-09-05T00:00:00	2024-11-06T12:00:00	4	Temperatura máxima	22.7
94747	7	Sololá	702	San José Chacayá	5	Chacayá	5	Mayo	2023-09-05T00:00:00	2024-11-06T12:00:00	3	Temperatura mínima	21.5
94748	7	Sololá	702	San José Chacayá	5	Chacayá	5	Mayo	2023-09-05T00:00:00	2024-11-06T12:00:00	5	Humedad	56
94749	7	Sololá	702	San José Chacayá	5	Chacayá	5	Mayo	2023-09-05T00:00:00	2024-11-06T12:00:00	6	Velocidad del viento	4.8
94750	7	Sololá	702	San José Chacayá	5	Chacayá	5	Mayo	2023-09-05T00:00:00	2024-11-06T12:00:00	7	Dirección del viento	4.83
94751	7	Sololá	702	San José Chacayá	5	Chacayá	5	Mayo	2023-09-05T00:00:00	2024-11-06T12:00:00	1	Precipitación	0
94752	7	Sololá	702	San José Chacayá	5	Chacayá	5	Mayo	2023-09-05T00:00:00	2024-11-06T12:00:00	8	Radiación solar	914
94753	7	Sololá	702	San José Chacayá	5	Chacayá	5	Mayo	2023-09-05T00:00:00	2024-11-06T13:00:00	2	Temperatura media	22.6
94754	7	Sololá	702	San José Chacayá	5	Chacayá	5	Mayo	2023-09-05T00:00:00	2024-11-06T13:00:00	4	Temperatura máxima	23.5
94755	7	Sololá	702	San José Chacayá	5	Chacayá	5	Mayo	2023-09-05T00:00:00	2024-11-06T13:00:00	3	Temperatura mínima	22.3
94756	7	Sololá	702	San José Chacayá	5	Chacayá	5	Mayo	2023-09-05T00:00:00	2024-11-06T13:00:00	5	Humedad	61
94757	7	Sololá	702	San José Chacayá	5	Chacayá	5	Mayo	2023-09-05T00:00:00	2024-11-06T13:00:00	6	Velocidad del viento	4.8
94758	7	Sololá	702	San José Chacayá	5	Chacayá	5	Mayo	2023-09-05T00:00:00	2024-11-06T13:00:00	7	Dirección del viento	4.83
94759	7	Sololá	702	San José Chacayá	5	Chacayá	5	Mayo	2023-09-05T00:00:00	2024-11-06T13:00:00	1	Precipitación	0
94760	7	Sololá	702	San José Chacayá	5	Chacayá	5	Mayo	2023-09-05T00:00:00	2024-11-06T13:00:00	8	Radiación solar	972
94761	7	Sololá	702	San José Chacayá	5	Chacayá	5	Mayo	2023-09-05T00:00:00	2024-11-06T14:00:00	2	Temperatura media	22.1
94762	7	Sololá	702	San José Chacayá	5	Chacayá	5	Mayo	2023-09-05T00:00:00	2024-11-06T14:00:00	4	Temperatura máxima	22.8
94763	7	Sololá	702	San José Chacayá	5	Chacayá	5	Mayo	2023-09-05T00:00:00	2024-11-06T14:00:00	3	Temperatura mínima	21.6
94764	7	Sololá	702	San José Chacayá	5	Chacayá	5	Mayo	2023-09-05T00:00:00	2024-11-06T14:00:00	5	Humedad	67
94765	7	Sololá	702	San José Chacayá	5	Chacayá	5	Mayo	2023-09-05T00:00:00	2024-11-06T14:00:00	6	Velocidad del viento	6.4
94766	7	Sololá	702	San José Chacayá	5	Chacayá	5	Mayo	2023-09-05T00:00:00	2024-11-06T14:00:00	7	Dirección del viento	6.44
94767	7	Sololá	702	San José Chacayá	5	Chacayá	5	Mayo	2023-09-05T00:00:00	2024-11-06T14:00:00	1	Precipitación	0
94768	7	Sololá	702	San José Chacayá	5	Chacayá	5	Mayo	2023-09-05T00:00:00	2024-11-06T14:00:00	8	Radiación solar	994
94769	7	Sololá	702	San José Chacayá	5	Chacayá	5	Mayo	2023-09-05T00:00:00	2024-11-06T15:00:00	2	Temperatura media	19.9
94770	7	Sololá	702	San José Chacayá	5	Chacayá	5	Mayo	2023-09-05T00:00:00	2024-11-06T15:00:00	4	Temperatura máxima	22.1
94771	7	Sololá	702	San José Chacayá	5	Chacayá	5	Mayo	2023-09-05T00:00:00	2024-11-06T15:00:00	3	Temperatura mínima	19.8
94772	7	Sololá	702	San José Chacayá	5	Chacayá	5	Mayo	2023-09-05T00:00:00	2024-11-06T15:00:00	5	Humedad	77
94773	7	Sololá	702	San José Chacayá	5	Chacayá	5	Mayo	2023-09-05T00:00:00	2024-11-06T15:00:00	6	Velocidad del viento	8
94774	7	Sololá	702	San José Chacayá	5	Chacayá	5	Mayo	2023-09-05T00:00:00	2024-11-06T15:00:00	7	Dirección del viento	8.05
94775	7	Sololá	702	San José Chacayá	5	Chacayá	5	Mayo	2023-09-05T00:00:00	2024-11-06T15:00:00	1	Precipitación	0
94776	7	Sololá	702	San José Chacayá	5	Chacayá	5	Mayo	2023-09-05T00:00:00	2024-11-06T15:00:00	8	Radiación solar	345
94777	7	Sololá	702	San José Chacayá	5	Chacayá	5	Mayo	2023-09-05T00:00:00	2024-11-06T16:00:00	2	Temperatura media	19.7
94778	7	Sololá	702	San José Chacayá	5	Chacayá	5	Mayo	2023-09-05T00:00:00	2024-11-06T16:00:00	4	Temperatura máxima	21.1
94779	7	Sololá	702	San José Chacayá	5	Chacayá	5	Mayo	2023-09-05T00:00:00	2024-11-06T16:00:00	3	Temperatura mínima	19.4
94780	7	Sololá	702	San José Chacayá	5	Chacayá	5	Mayo	2023-09-05T00:00:00	2024-11-06T16:00:00	5	Humedad	78
94781	7	Sololá	702	San José Chacayá	5	Chacayá	5	Mayo	2023-09-05T00:00:00	2024-11-06T16:00:00	6	Velocidad del viento	6.4
94782	7	Sololá	702	San José Chacayá	5	Chacayá	5	Mayo	2023-09-05T00:00:00	2024-11-06T16:00:00	7	Dirección del viento	6.44
94783	7	Sololá	702	San José Chacayá	5	Chacayá	5	Mayo	2023-09-05T00:00:00	2024-11-06T16:00:00	1	Precipitación	0
94784	7	Sololá	702	San José Chacayá	5	Chacayá	5	Mayo	2023-09-05T00:00:00	2024-11-06T16:00:00	8	Radiación solar	412
94785	7	Sololá	702	San José Chacayá	5	Chacayá	5	Mayo	2023-09-05T00:00:00	2024-11-06T17:00:00	2	Temperatura media	19.2
94786	7	Sololá	702	San José Chacayá	5	Chacayá	5	Mayo	2023-09-05T00:00:00	2024-11-06T17:00:00	4	Temperatura máxima	20.4
94787	7	Sololá	702	San José Chacayá	5	Chacayá	5	Mayo	2023-09-05T00:00:00	2024-11-06T17:00:00	3	Temperatura mínima	19.2
94788	7	Sololá	702	San José Chacayá	5	Chacayá	5	Mayo	2023-09-05T00:00:00	2024-11-06T17:00:00	5	Humedad	81
94789	7	Sololá	702	San José Chacayá	5	Chacayá	5	Mayo	2023-09-05T00:00:00	2024-11-06T17:00:00	6	Velocidad del viento	6.4
94790	7	Sololá	702	San José Chacayá	5	Chacayá	5	Mayo	2023-09-05T00:00:00	2024-11-06T17:00:00	7	Dirección del viento	6.44
94791	7	Sololá	702	San José Chacayá	5	Chacayá	5	Mayo	2023-09-05T00:00:00	2024-11-06T17:00:00	1	Precipitación	0
94792	7	Sololá	702	San José Chacayá	5	Chacayá	5	Mayo	2023-09-05T00:00:00	2024-11-06T17:00:00	8	Radiación solar	213
94793	7	Sololá	702	San José Chacayá	5	Chacayá	5	Mayo	2023-09-05T00:00:00	2024-11-06T18:00:00	2	Temperatura media	18.2
94794	7	Sololá	702	San José Chacayá	5	Chacayá	5	Mayo	2023-09-05T00:00:00	2024-11-06T18:00:00	4	Temperatura máxima	19.2
94795	7	Sololá	702	San José Chacayá	5	Chacayá	5	Mayo	2023-09-05T00:00:00	2024-11-06T18:00:00	3	Temperatura mínima	18.2
94796	7	Sololá	702	San José Chacayá	5	Chacayá	5	Mayo	2023-09-05T00:00:00	2024-11-06T18:00:00	5	Humedad	82
94797	7	Sololá	702	San José Chacayá	5	Chacayá	5	Mayo	2023-09-05T00:00:00	2024-11-06T18:00:00	6	Velocidad del viento	3.2
94798	7	Sololá	702	San José Chacayá	5	Chacayá	5	Mayo	2023-09-05T00:00:00	2024-11-06T18:00:00	7	Dirección del viento	3.22
94799	7	Sololá	702	San José Chacayá	5	Chacayá	5	Mayo	2023-09-05T00:00:00	2024-11-06T18:00:00	1	Precipitación	0
94800	7	Sololá	702	San José Chacayá	5	Chacayá	5	Mayo	2023-09-05T00:00:00	2024-11-06T18:00:00	8	Radiación solar	95
94801	7	Sololá	702	San José Chacayá	5	Chacayá	5	Mayo	2023-09-05T00:00:00	2024-11-06T19:00:00	2	Temperatura media	17.3
94802	7	Sololá	702	San José Chacayá	5	Chacayá	5	Mayo	2023-09-05T00:00:00	2024-11-06T19:00:00	4	Temperatura máxima	18.2
94803	7	Sololá	702	San José Chacayá	5	Chacayá	5	Mayo	2023-09-05T00:00:00	2024-11-06T19:00:00	3	Temperatura mínima	17.3
94804	7	Sololá	702	San José Chacayá	5	Chacayá	5	Mayo	2023-09-05T00:00:00	2024-11-06T19:00:00	5	Humedad	80
94805	7	Sololá	702	San José Chacayá	5	Chacayá	5	Mayo	2023-09-05T00:00:00	2024-11-06T19:00:00	6	Velocidad del viento	1.6
94806	7	Sololá	702	San José Chacayá	5	Chacayá	5	Mayo	2023-09-05T00:00:00	2024-11-06T19:00:00	7	Dirección del viento	1.61
94807	7	Sololá	702	San José Chacayá	5	Chacayá	5	Mayo	2023-09-05T00:00:00	2024-11-06T19:00:00	1	Precipitación	0
94808	7	Sololá	702	San José Chacayá	5	Chacayá	5	Mayo	2023-09-05T00:00:00	2024-11-06T19:00:00	8	Radiación solar	0
94809	7	Sololá	702	San José Chacayá	5	Chacayá	5	Mayo	2023-09-05T00:00:00	2024-11-06T20:00:00	2	Temperatura media	17.1
94810	7	Sololá	702	San José Chacayá	5	Chacayá	5	Mayo	2023-09-05T00:00:00	2024-11-06T20:00:00	4	Temperatura máxima	17.3
94811	7	Sololá	702	San José Chacayá	5	Chacayá	5	Mayo	2023-09-05T00:00:00	2024-11-06T20:00:00	3	Temperatura mínima	16.9
94812	7	Sololá	702	San José Chacayá	5	Chacayá	5	Mayo	2023-09-05T00:00:00	2024-11-06T20:00:00	5	Humedad	78
94813	7	Sololá	702	San José Chacayá	5	Chacayá	5	Mayo	2023-09-05T00:00:00	2024-11-06T20:00:00	6	Velocidad del viento	0
94814	7	Sololá	702	San José Chacayá	5	Chacayá	5	Mayo	2023-09-05T00:00:00	2024-11-06T20:00:00	7	Dirección del viento	0
94815	7	Sololá	702	San José Chacayá	5	Chacayá	5	Mayo	2023-09-05T00:00:00	2024-11-06T20:00:00	1	Precipitación	0
94816	7	Sololá	702	San José Chacayá	5	Chacayá	5	Mayo	2023-09-05T00:00:00	2024-11-06T20:00:00	8	Radiación solar	0
94817	7	Sololá	702	San José Chacayá	5	Chacayá	5	Mayo	2023-09-05T00:00:00	2024-11-06T21:00:00	2	Temperatura media	16.5
94818	7	Sololá	702	San José Chacayá	5	Chacayá	5	Mayo	2023-09-05T00:00:00	2024-11-06T21:00:00	4	Temperatura máxima	17.1
94819	7	Sololá	702	San José Chacayá	5	Chacayá	5	Mayo	2023-09-05T00:00:00	2024-11-06T21:00:00	3	Temperatura mínima	16.5
94820	7	Sololá	702	San José Chacayá	5	Chacayá	5	Mayo	2023-09-05T00:00:00	2024-11-06T21:00:00	5	Humedad	74
94821	7	Sololá	702	San José Chacayá	5	Chacayá	5	Mayo	2023-09-05T00:00:00	2024-11-06T21:00:00	6	Velocidad del viento	0
94822	7	Sololá	702	San José Chacayá	5	Chacayá	5	Mayo	2023-09-05T00:00:00	2024-11-06T21:00:00	7	Dirección del viento	0
94823	7	Sololá	702	San José Chacayá	5	Chacayá	5	Mayo	2023-09-05T00:00:00	2024-11-06T21:00:00	1	Precipitación	0
94824	7	Sololá	702	San José Chacayá	5	Chacayá	5	Mayo	2023-09-05T00:00:00	2024-11-06T21:00:00	8	Radiación solar	0
94825	7	Sololá	702	San José Chacayá	5	Chacayá	5	Mayo	2023-09-05T00:00:00	2024-11-06T22:00:00	2	Temperatura media	16.3
94826	7	Sololá	702	San José Chacayá	5	Chacayá	5	Mayo	2023-09-05T00:00:00	2024-11-06T22:00:00	4	Temperatura máxima	16.6
94827	7	Sololá	702	San José Chacayá	5	Chacayá	5	Mayo	2023-09-05T00:00:00	2024-11-06T22:00:00	3	Temperatura mínima	16.2
94828	7	Sololá	702	San José Chacayá	5	Chacayá	5	Mayo	2023-09-05T00:00:00	2024-11-06T22:00:00	5	Humedad	78
94829	7	Sololá	702	San José Chacayá	5	Chacayá	5	Mayo	2023-09-05T00:00:00	2024-11-06T22:00:00	6	Velocidad del viento	0
94830	7	Sololá	702	San José Chacayá	5	Chacayá	5	Mayo	2023-09-05T00:00:00	2024-11-06T22:00:00	7	Dirección del viento	0
94831	7	Sololá	702	San José Chacayá	5	Chacayá	5	Mayo	2023-09-05T00:00:00	2024-11-06T22:00:00	1	Precipitación	0
94832	7	Sololá	702	San José Chacayá	5	Chacayá	5	Mayo	2023-09-05T00:00:00	2024-11-06T22:00:00	8	Radiación solar	0
94833	7	Sololá	702	San José Chacayá	5	Chacayá	5	Mayo	2023-09-05T00:00:00	2024-11-06T23:00:00	2	Temperatura media	16.2
94834	7	Sololá	702	San José Chacayá	5	Chacayá	5	Mayo	2023-09-05T00:00:00	2024-11-06T23:00:00	4	Temperatura máxima	16.3
94835	7	Sololá	702	San José Chacayá	5	Chacayá	5	Mayo	2023-09-05T00:00:00	2024-11-06T23:00:00	3	Temperatura mínima	16.2
94836	7	Sololá	702	San José Chacayá	5	Chacayá	5	Mayo	2023-09-05T00:00:00	2024-11-06T23:00:00	5	Humedad	74
94837	7	Sololá	702	San José Chacayá	5	Chacayá	5	Mayo	2023-09-05T00:00:00	2024-11-06T23:00:00	6	Velocidad del viento	0
94838	7	Sololá	702	San José Chacayá	5	Chacayá	5	Mayo	2023-09-05T00:00:00	2024-11-06T23:00:00	7	Dirección del viento	0
94839	7	Sololá	702	San José Chacayá	5	Chacayá	5	Mayo	2023-09-05T00:00:00	2024-11-06T23:00:00	1	Precipitación	0
94840	7	Sololá	702	San José Chacayá	5	Chacayá	5	Mayo	2023-09-05T00:00:00	2024-11-06T23:00:00	8	Radiación solar	0
94841	7	Sololá	702	San José Chacayá	5	Chacayá	5	Mayo	2023-10-05T00:00:00	2024-11-06T00:00:00	2	Temperatura media	15.6
94842	7	Sololá	702	San José Chacayá	5	Chacayá	5	Mayo	2023-10-05T00:00:00	2024-11-06T00:00:00	4	Temperatura máxima	16.2
94843	7	Sololá	702	San José Chacayá	5	Chacayá	5	Mayo	2023-10-05T00:00:00	2024-11-06T00:00:00	3	Temperatura mínima	15.6
94844	7	Sololá	702	San José Chacayá	5	Chacayá	5	Mayo	2023-10-05T00:00:00	2024-11-06T00:00:00	5	Humedad	75
94845	7	Sololá	702	San José Chacayá	5	Chacayá	5	Mayo	2023-10-05T00:00:00	2024-11-06T00:00:00	6	Velocidad del viento	0
94846	7	Sololá	702	San José Chacayá	5	Chacayá	5	Mayo	2023-10-05T00:00:00	2024-11-06T00:00:00	7	Dirección del viento	0
94847	7	Sololá	702	San José Chacayá	5	Chacayá	5	Mayo	2023-10-05T00:00:00	2024-11-06T00:00:00	1	Precipitación	0
94848	7	Sololá	702	San José Chacayá	5	Chacayá	5	Mayo	2023-10-05T00:00:00	2024-11-06T00:00:00	8	Radiación solar	0
94849	7	Sololá	702	San José Chacayá	5	Chacayá	5	Mayo	2023-10-05T00:00:00	2024-11-06T01:00:00	2	Temperatura media	15.8
94850	7	Sololá	702	San José Chacayá	5	Chacayá	5	Mayo	2023-10-05T00:00:00	2024-11-06T01:00:00	4	Temperatura máxima	15.8
94851	7	Sololá	702	San José Chacayá	5	Chacayá	5	Mayo	2023-10-05T00:00:00	2024-11-06T01:00:00	3	Temperatura mínima	15.6
94852	7	Sololá	702	San José Chacayá	5	Chacayá	5	Mayo	2023-10-05T00:00:00	2024-11-06T01:00:00	5	Humedad	79
94853	7	Sololá	702	San José Chacayá	5	Chacayá	5	Mayo	2023-10-05T00:00:00	2024-11-06T01:00:00	6	Velocidad del viento	0
94854	7	Sololá	702	San José Chacayá	5	Chacayá	5	Mayo	2023-10-05T00:00:00	2024-11-06T01:00:00	7	Dirección del viento	0
94855	7	Sololá	702	San José Chacayá	5	Chacayá	5	Mayo	2023-10-05T00:00:00	2024-11-06T01:00:00	1	Precipitación	0
94856	7	Sololá	702	San José Chacayá	5	Chacayá	5	Mayo	2023-10-05T00:00:00	2024-11-06T01:00:00	8	Radiación solar	0
94857	7	Sololá	702	San José Chacayá	5	Chacayá	5	Mayo	2023-10-05T00:00:00	2024-11-06T02:00:00	2	Temperatura media	15.6
94858	7	Sololá	702	San José Chacayá	5	Chacayá	5	Mayo	2023-10-05T00:00:00	2024-11-06T02:00:00	4	Temperatura máxima	15.8
94859	7	Sololá	702	San José Chacayá	5	Chacayá	5	Mayo	2023-10-05T00:00:00	2024-11-06T02:00:00	3	Temperatura mínima	15.5
94860	7	Sololá	702	San José Chacayá	5	Chacayá	5	Mayo	2023-10-05T00:00:00	2024-11-06T02:00:00	5	Humedad	76
94861	7	Sololá	702	San José Chacayá	5	Chacayá	5	Mayo	2023-10-05T00:00:00	2024-11-06T02:00:00	6	Velocidad del viento	0
94862	7	Sololá	702	San José Chacayá	5	Chacayá	5	Mayo	2023-10-05T00:00:00	2024-11-06T02:00:00	7	Dirección del viento	0
94863	7	Sololá	702	San José Chacayá	5	Chacayá	5	Mayo	2023-10-05T00:00:00	2024-11-06T02:00:00	1	Precipitación	0
94864	7	Sololá	702	San José Chacayá	5	Chacayá	5	Mayo	2023-10-05T00:00:00	2024-11-06T02:00:00	8	Radiación solar	0
94865	7	Sololá	702	San José Chacayá	5	Chacayá	5	Mayo	2023-10-05T00:00:00	2024-11-06T03:00:00	2	Temperatura media	15.2
94866	7	Sololá	702	San José Chacayá	5	Chacayá	5	Mayo	2023-10-05T00:00:00	2024-11-06T03:00:00	4	Temperatura máxima	15.6
94867	7	Sololá	702	San José Chacayá	5	Chacayá	5	Mayo	2023-10-05T00:00:00	2024-11-06T03:00:00	3	Temperatura mínima	15.2
94868	7	Sololá	702	San José Chacayá	5	Chacayá	5	Mayo	2023-10-05T00:00:00	2024-11-06T03:00:00	5	Humedad	76
94869	7	Sololá	702	San José Chacayá	5	Chacayá	5	Mayo	2023-10-05T00:00:00	2024-11-06T03:00:00	6	Velocidad del viento	0
94870	7	Sololá	702	San José Chacayá	5	Chacayá	5	Mayo	2023-10-05T00:00:00	2024-11-06T03:00:00	7	Dirección del viento	0
94871	7	Sololá	702	San José Chacayá	5	Chacayá	5	Mayo	2023-10-05T00:00:00	2024-11-06T03:00:00	1	Precipitación	0
94872	7	Sololá	702	San José Chacayá	5	Chacayá	5	Mayo	2023-10-05T00:00:00	2024-11-06T03:00:00	8	Radiación solar	0
94873	7	Sololá	702	San José Chacayá	5	Chacayá	5	Mayo	2023-10-05T00:00:00	2024-11-06T04:00:00	2	Temperatura media	14.3
94874	7	Sololá	702	San José Chacayá	5	Chacayá	5	Mayo	2023-10-05T00:00:00	2024-11-06T04:00:00	4	Temperatura máxima	15.2
94875	7	Sololá	702	San José Chacayá	5	Chacayá	5	Mayo	2023-10-05T00:00:00	2024-11-06T04:00:00	3	Temperatura mínima	14.3
94876	7	Sololá	702	San José Chacayá	5	Chacayá	5	Mayo	2023-10-05T00:00:00	2024-11-06T04:00:00	5	Humedad	71
94877	7	Sololá	702	San José Chacayá	5	Chacayá	5	Mayo	2023-10-05T00:00:00	2024-11-06T04:00:00	6	Velocidad del viento	0
94878	7	Sololá	702	San José Chacayá	5	Chacayá	5	Mayo	2023-10-05T00:00:00	2024-11-06T04:00:00	7	Dirección del viento	0
94879	7	Sololá	702	San José Chacayá	5	Chacayá	5	Mayo	2023-10-05T00:00:00	2024-11-06T04:00:00	1	Precipitación	0
94880	7	Sololá	702	San José Chacayá	5	Chacayá	5	Mayo	2023-10-05T00:00:00	2024-11-06T04:00:00	8	Radiación solar	0
94881	7	Sololá	702	San José Chacayá	5	Chacayá	5	Mayo	2023-10-05T00:00:00	2024-11-06T05:00:00	2	Temperatura media	13.4
94882	7	Sololá	702	San José Chacayá	5	Chacayá	5	Mayo	2023-10-05T00:00:00	2024-11-06T05:00:00	4	Temperatura máxima	14.3
94883	7	Sololá	702	San José Chacayá	5	Chacayá	5	Mayo	2023-10-05T00:00:00	2024-11-06T05:00:00	3	Temperatura mínima	13.4
94884	7	Sololá	702	San José Chacayá	5	Chacayá	5	Mayo	2023-10-05T00:00:00	2024-11-06T05:00:00	5	Humedad	74
94885	7	Sololá	702	San José Chacayá	5	Chacayá	5	Mayo	2023-10-05T00:00:00	2024-11-06T05:00:00	6	Velocidad del viento	1.6
94886	7	Sololá	702	San José Chacayá	5	Chacayá	5	Mayo	2023-10-05T00:00:00	2024-11-06T05:00:00	7	Dirección del viento	1.61
94887	7	Sololá	702	San José Chacayá	5	Chacayá	5	Mayo	2023-10-05T00:00:00	2024-11-06T05:00:00	1	Precipitación	0
94888	7	Sololá	702	San José Chacayá	5	Chacayá	5	Mayo	2023-10-05T00:00:00	2024-11-06T05:00:00	8	Radiación solar	0
94889	7	Sololá	702	San José Chacayá	5	Chacayá	5	Mayo	2023-10-05T00:00:00	2024-11-06T06:00:00	2	Temperatura media	12.6
94890	7	Sololá	702	San José Chacayá	5	Chacayá	5	Mayo	2023-10-05T00:00:00	2024-11-06T06:00:00	4	Temperatura máxima	13.4
94891	7	Sololá	702	San José Chacayá	5	Chacayá	5	Mayo	2023-10-05T00:00:00	2024-11-06T06:00:00	3	Temperatura mínima	12.6
94892	7	Sololá	702	San José Chacayá	5	Chacayá	5	Mayo	2023-10-05T00:00:00	2024-11-06T06:00:00	5	Humedad	75
94893	7	Sololá	702	San José Chacayá	5	Chacayá	5	Mayo	2023-10-05T00:00:00	2024-11-06T06:00:00	6	Velocidad del viento	1.6
94894	7	Sololá	702	San José Chacayá	5	Chacayá	5	Mayo	2023-10-05T00:00:00	2024-11-06T06:00:00	7	Dirección del viento	1.61
94895	7	Sololá	702	San José Chacayá	5	Chacayá	5	Mayo	2023-10-05T00:00:00	2024-11-06T06:00:00	1	Precipitación	0
94896	7	Sololá	702	San José Chacayá	5	Chacayá	5	Mayo	2023-10-05T00:00:00	2024-11-06T06:00:00	8	Radiación solar	0
94897	7	Sololá	702	San José Chacayá	5	Chacayá	5	Mayo	2023-10-05T00:00:00	2024-11-06T07:00:00	2	Temperatura media	12.6
94898	7	Sololá	702	San José Chacayá	5	Chacayá	5	Mayo	2023-10-05T00:00:00	2024-11-06T07:00:00	4	Temperatura máxima	12.7
94899	7	Sololá	702	San José Chacayá	5	Chacayá	5	Mayo	2023-10-05T00:00:00	2024-11-06T07:00:00	3	Temperatura mínima	12.4
94900	7	Sololá	702	San José Chacayá	5	Chacayá	5	Mayo	2023-10-05T00:00:00	2024-11-06T07:00:00	5	Humedad	72
94901	7	Sololá	702	San José Chacayá	5	Chacayá	5	Mayo	2023-10-05T00:00:00	2024-11-06T07:00:00	6	Velocidad del viento	1.6
94902	7	Sololá	702	San José Chacayá	5	Chacayá	5	Mayo	2023-10-05T00:00:00	2024-11-06T07:00:00	7	Dirección del viento	1.61
94903	7	Sololá	702	San José Chacayá	5	Chacayá	5	Mayo	2023-10-05T00:00:00	2024-11-06T07:00:00	1	Precipitación	0
94904	7	Sololá	702	San José Chacayá	5	Chacayá	5	Mayo	2023-10-05T00:00:00	2024-11-06T07:00:00	8	Radiación solar	5
94905	7	Sololá	702	San José Chacayá	5	Chacayá	5	Mayo	2023-10-05T00:00:00	2024-11-06T08:00:00	2	Temperatura media	14.2
94906	7	Sololá	702	San José Chacayá	5	Chacayá	5	Mayo	2023-10-05T00:00:00	2024-11-06T08:00:00	4	Temperatura máxima	14.2
94907	7	Sololá	702	San José Chacayá	5	Chacayá	5	Mayo	2023-10-05T00:00:00	2024-11-06T08:00:00	3	Temperatura mínima	12.6
94908	7	Sololá	702	San José Chacayá	5	Chacayá	5	Mayo	2023-10-05T00:00:00	2024-11-06T08:00:00	5	Humedad	78
94909	7	Sololá	702	San José Chacayá	5	Chacayá	5	Mayo	2023-10-05T00:00:00	2024-11-06T08:00:00	6	Velocidad del viento	1.6
94910	7	Sololá	702	San José Chacayá	5	Chacayá	5	Mayo	2023-10-05T00:00:00	2024-11-06T08:00:00	7	Dirección del viento	1.61
94911	7	Sololá	702	San José Chacayá	5	Chacayá	5	Mayo	2023-10-05T00:00:00	2024-11-06T08:00:00	1	Precipitación	0
94912	7	Sololá	702	San José Chacayá	5	Chacayá	5	Mayo	2023-10-05T00:00:00	2024-11-06T08:00:00	8	Radiación solar	51
94913	7	Sololá	702	San José Chacayá	5	Chacayá	5	Mayo	2023-10-05T00:00:00	2024-11-06T09:00:00	2	Temperatura media	17.1
94914	7	Sololá	702	San José Chacayá	5	Chacayá	5	Mayo	2023-10-05T00:00:00	2024-11-06T09:00:00	4	Temperatura máxima	17.1
94915	7	Sololá	702	San José Chacayá	5	Chacayá	5	Mayo	2023-10-05T00:00:00	2024-11-06T09:00:00	3	Temperatura mínima	14.2
94916	7	Sololá	702	San José Chacayá	5	Chacayá	5	Mayo	2023-10-05T00:00:00	2024-11-06T09:00:00	5	Humedad	81
94917	7	Sololá	702	San José Chacayá	5	Chacayá	5	Mayo	2023-10-05T00:00:00	2024-11-06T09:00:00	6	Velocidad del viento	1.6
94918	7	Sololá	702	San José Chacayá	5	Chacayá	5	Mayo	2023-10-05T00:00:00	2024-11-06T09:00:00	7	Dirección del viento	1.61
94919	7	Sololá	702	San José Chacayá	5	Chacayá	5	Mayo	2023-10-05T00:00:00	2024-11-06T09:00:00	1	Precipitación	0
94920	7	Sololá	702	San José Chacayá	5	Chacayá	5	Mayo	2023-10-05T00:00:00	2024-11-06T09:00:00	8	Radiación solar	180
94921	7	Sololá	702	San José Chacayá	5	Chacayá	5	Mayo	2023-10-05T00:00:00	2024-11-06T10:00:00	2	Temperatura media	18.3
94922	7	Sololá	702	San José Chacayá	5	Chacayá	5	Mayo	2023-10-05T00:00:00	2024-11-06T10:00:00	4	Temperatura máxima	18.6
94923	7	Sololá	702	San José Chacayá	5	Chacayá	5	Mayo	2023-10-05T00:00:00	2024-11-06T10:00:00	3	Temperatura mínima	17.1
94924	7	Sololá	702	San José Chacayá	5	Chacayá	5	Mayo	2023-10-05T00:00:00	2024-11-06T10:00:00	5	Humedad	78
94925	7	Sololá	702	San José Chacayá	5	Chacayá	5	Mayo	2023-10-05T00:00:00	2024-11-06T10:00:00	6	Velocidad del viento	1.6
94926	7	Sololá	702	San José Chacayá	5	Chacayá	5	Mayo	2023-10-05T00:00:00	2024-11-06T10:00:00	7	Dirección del viento	1.61
94927	7	Sololá	702	San José Chacayá	5	Chacayá	5	Mayo	2023-10-05T00:00:00	2024-11-06T10:00:00	1	Precipitación	0
94928	7	Sololá	702	San José Chacayá	5	Chacayá	5	Mayo	2023-10-05T00:00:00	2024-11-06T10:00:00	8	Radiación solar	275
94929	7	Sololá	702	San José Chacayá	5	Chacayá	5	Mayo	2023-10-05T00:00:00	2024-11-06T11:00:00	2	Temperatura media	19.9
94930	7	Sololá	702	San José Chacayá	5	Chacayá	5	Mayo	2023-10-05T00:00:00	2024-11-06T11:00:00	4	Temperatura máxima	19.9
94931	7	Sololá	702	San José Chacayá	5	Chacayá	5	Mayo	2023-10-05T00:00:00	2024-11-06T11:00:00	3	Temperatura mínima	18.4
94932	7	Sololá	702	San José Chacayá	5	Chacayá	5	Mayo	2023-10-05T00:00:00	2024-11-06T11:00:00	5	Humedad	74
94933	7	Sololá	702	San José Chacayá	5	Chacayá	5	Mayo	2023-10-05T00:00:00	2024-11-06T11:00:00	6	Velocidad del viento	6.4
94934	7	Sololá	702	San José Chacayá	5	Chacayá	5	Mayo	2023-10-05T00:00:00	2024-11-06T11:00:00	7	Dirección del viento	6.44
94935	7	Sololá	702	San José Chacayá	5	Chacayá	5	Mayo	2023-10-05T00:00:00	2024-11-06T11:00:00	1	Precipitación	0
94936	7	Sololá	702	San José Chacayá	5	Chacayá	5	Mayo	2023-10-05T00:00:00	2024-11-06T11:00:00	8	Radiación solar	676
94937	7	Sololá	702	San José Chacayá	5	Chacayá	5	Mayo	2023-10-05T00:00:00	2024-11-06T12:00:00	2	Temperatura media	20.1
94938	7	Sololá	702	San José Chacayá	5	Chacayá	5	Mayo	2023-10-05T00:00:00	2024-11-06T12:00:00	4	Temperatura máxima	20.7
94939	7	Sololá	702	San José Chacayá	5	Chacayá	5	Mayo	2023-10-05T00:00:00	2024-11-06T12:00:00	3	Temperatura mínima	19.7
94940	7	Sololá	702	San José Chacayá	5	Chacayá	5	Mayo	2023-10-05T00:00:00	2024-11-06T12:00:00	5	Humedad	74
94941	7	Sololá	702	San José Chacayá	5	Chacayá	5	Mayo	2023-10-05T00:00:00	2024-11-06T12:00:00	6	Velocidad del viento	8
94942	7	Sololá	702	San José Chacayá	5	Chacayá	5	Mayo	2023-10-05T00:00:00	2024-11-06T12:00:00	7	Dirección del viento	8.05
94943	7	Sololá	702	San José Chacayá	5	Chacayá	5	Mayo	2023-10-05T00:00:00	2024-11-06T12:00:00	1	Precipitación	0
94944	7	Sololá	702	San José Chacayá	5	Chacayá	5	Mayo	2023-10-05T00:00:00	2024-11-06T12:00:00	8	Radiación solar	735
94945	7	Sololá	702	San José Chacayá	5	Chacayá	5	Mayo	2023-10-05T00:00:00	2024-11-06T13:00:00	2	Temperatura media	19.5
94946	7	Sololá	702	San José Chacayá	5	Chacayá	5	Mayo	2023-10-05T00:00:00	2024-11-06T13:00:00	4	Temperatura máxima	20.7
94947	7	Sololá	702	San José Chacayá	5	Chacayá	5	Mayo	2023-10-05T00:00:00	2024-11-06T13:00:00	3	Temperatura mínima	19.5
94948	7	Sololá	702	San José Chacayá	5	Chacayá	5	Mayo	2023-10-05T00:00:00	2024-11-06T13:00:00	5	Humedad	78
94949	7	Sololá	702	San José Chacayá	5	Chacayá	5	Mayo	2023-10-05T00:00:00	2024-11-06T13:00:00	6	Velocidad del viento	6.4
94950	7	Sololá	702	San José Chacayá	5	Chacayá	5	Mayo	2023-10-05T00:00:00	2024-11-06T13:00:00	7	Dirección del viento	6.44
94951	7	Sololá	702	San José Chacayá	5	Chacayá	5	Mayo	2023-10-05T00:00:00	2024-11-06T13:00:00	1	Precipitación	0
94952	7	Sololá	702	San José Chacayá	5	Chacayá	5	Mayo	2023-10-05T00:00:00	2024-11-06T13:00:00	8	Radiación solar	595
94953	7	Sololá	702	San José Chacayá	5	Chacayá	5	Mayo	2023-10-05T00:00:00	2024-11-06T14:00:00	2	Temperatura media	19.9
94954	7	Sololá	702	San José Chacayá	5	Chacayá	5	Mayo	2023-10-05T00:00:00	2024-11-06T14:00:00	4	Temperatura máxima	20
94955	7	Sololá	702	San José Chacayá	5	Chacayá	5	Mayo	2023-10-05T00:00:00	2024-11-06T14:00:00	3	Temperatura mínima	18.3
94956	7	Sololá	702	San José Chacayá	5	Chacayá	5	Mayo	2023-10-05T00:00:00	2024-11-06T14:00:00	5	Humedad	76
94957	7	Sololá	702	San José Chacayá	5	Chacayá	5	Mayo	2023-10-05T00:00:00	2024-11-06T14:00:00	6	Velocidad del viento	4.8
94958	7	Sololá	702	San José Chacayá	5	Chacayá	5	Mayo	2023-10-05T00:00:00	2024-11-06T14:00:00	7	Dirección del viento	4.83
94959	7	Sololá	702	San José Chacayá	5	Chacayá	5	Mayo	2023-10-05T00:00:00	2024-11-06T14:00:00	1	Precipitación	0
94960	7	Sololá	702	San José Chacayá	5	Chacayá	5	Mayo	2023-10-05T00:00:00	2024-11-06T14:00:00	8	Radiación solar	285
94961	7	Sololá	702	San José Chacayá	5	Chacayá	5	Mayo	2023-10-05T00:00:00	2024-11-06T15:00:00	2	Temperatura media	18.8
94962	7	Sololá	702	San José Chacayá	5	Chacayá	5	Mayo	2023-10-05T00:00:00	2024-11-06T15:00:00	4	Temperatura máxima	19.9
94963	7	Sololá	702	San José Chacayá	5	Chacayá	5	Mayo	2023-10-05T00:00:00	2024-11-06T15:00:00	3	Temperatura mínima	18.8
94964	7	Sololá	702	San José Chacayá	5	Chacayá	5	Mayo	2023-10-05T00:00:00	2024-11-06T15:00:00	5	Humedad	79
94965	7	Sololá	702	San José Chacayá	5	Chacayá	5	Mayo	2023-10-05T00:00:00	2024-11-06T15:00:00	6	Velocidad del viento	4.8
94966	7	Sololá	702	San José Chacayá	5	Chacayá	5	Mayo	2023-10-05T00:00:00	2024-11-06T15:00:00	7	Dirección del viento	4.83
94967	7	Sololá	702	San José Chacayá	5	Chacayá	5	Mayo	2023-10-05T00:00:00	2024-11-06T15:00:00	1	Precipitación	0
94968	7	Sololá	702	San José Chacayá	5	Chacayá	5	Mayo	2023-10-05T00:00:00	2024-11-06T15:00:00	8	Radiación solar	310
94969	7	Sololá	702	San José Chacayá	5	Chacayá	5	Mayo	2023-10-05T00:00:00	2024-11-06T16:00:00	2	Temperatura media	18.1
94970	7	Sololá	702	San José Chacayá	5	Chacayá	5	Mayo	2023-10-05T00:00:00	2024-11-06T16:00:00	4	Temperatura máxima	19.2
94971	7	Sololá	702	San José Chacayá	5	Chacayá	5	Mayo	2023-10-05T00:00:00	2024-11-06T16:00:00	3	Temperatura mínima	18.1
94972	7	Sololá	702	San José Chacayá	5	Chacayá	5	Mayo	2023-10-05T00:00:00	2024-11-06T16:00:00	5	Humedad	81
94973	7	Sololá	702	San José Chacayá	5	Chacayá	5	Mayo	2023-10-05T00:00:00	2024-11-06T16:00:00	6	Velocidad del viento	1.6
94974	7	Sololá	702	San José Chacayá	5	Chacayá	5	Mayo	2023-10-05T00:00:00	2024-11-06T16:00:00	7	Dirección del viento	1.61
94975	7	Sololá	702	San José Chacayá	5	Chacayá	5	Mayo	2023-10-05T00:00:00	2024-11-06T16:00:00	1	Precipitación	0
94976	7	Sololá	702	San José Chacayá	5	Chacayá	5	Mayo	2023-10-05T00:00:00	2024-11-06T16:00:00	8	Radiación solar	169
94977	7	Sololá	702	San José Chacayá	5	Chacayá	5	Mayo	2023-10-05T00:00:00	2024-11-06T17:00:00	2	Temperatura media	17.3
94978	7	Sololá	702	San José Chacayá	5	Chacayá	5	Mayo	2023-10-05T00:00:00	2024-11-06T17:00:00	4	Temperatura máxima	18.1
94979	7	Sololá	702	San José Chacayá	5	Chacayá	5	Mayo	2023-10-05T00:00:00	2024-11-06T17:00:00	3	Temperatura mínima	17.3
94980	7	Sololá	702	San José Chacayá	5	Chacayá	5	Mayo	2023-10-05T00:00:00	2024-11-06T17:00:00	5	Humedad	80
94981	7	Sololá	702	San José Chacayá	5	Chacayá	5	Mayo	2023-10-05T00:00:00	2024-11-06T17:00:00	6	Velocidad del viento	1.6
94982	7	Sololá	702	San José Chacayá	5	Chacayá	5	Mayo	2023-10-05T00:00:00	2024-11-06T17:00:00	7	Dirección del viento	1.61
94983	7	Sololá	702	San José Chacayá	5	Chacayá	5	Mayo	2023-10-05T00:00:00	2024-11-06T17:00:00	1	Precipitación	0
94984	7	Sololá	702	San José Chacayá	5	Chacayá	5	Mayo	2023-10-05T00:00:00	2024-11-06T17:00:00	8	Radiación solar	29
94985	7	Sololá	702	San José Chacayá	5	Chacayá	5	Mayo	2023-10-05T00:00:00	2024-11-06T18:00:00	2	Temperatura media	17.1
94986	7	Sololá	702	San José Chacayá	5	Chacayá	5	Mayo	2023-10-05T00:00:00	2024-11-06T18:00:00	4	Temperatura máxima	17.3
94987	7	Sololá	702	San José Chacayá	5	Chacayá	5	Mayo	2023-10-05T00:00:00	2024-11-06T18:00:00	3	Temperatura mínima	16.9
94988	7	Sololá	702	San José Chacayá	5	Chacayá	5	Mayo	2023-10-05T00:00:00	2024-11-06T18:00:00	5	Humedad	75
94989	7	Sololá	702	San José Chacayá	5	Chacayá	5	Mayo	2023-10-05T00:00:00	2024-11-06T18:00:00	6	Velocidad del viento	1.6
94990	7	Sololá	702	San José Chacayá	5	Chacayá	5	Mayo	2023-10-05T00:00:00	2024-11-06T18:00:00	7	Dirección del viento	1.61
94991	7	Sololá	702	San José Chacayá	5	Chacayá	5	Mayo	2023-10-05T00:00:00	2024-11-06T18:00:00	1	Precipitación	0
94992	7	Sololá	702	San José Chacayá	5	Chacayá	5	Mayo	2023-10-05T00:00:00	2024-11-06T18:00:00	8	Radiación solar	33
94993	7	Sololá	702	San José Chacayá	5	Chacayá	5	Mayo	2023-10-05T00:00:00	2024-11-06T19:00:00	2	Temperatura media	16.3
94994	7	Sololá	702	San José Chacayá	5	Chacayá	5	Mayo	2023-10-05T00:00:00	2024-11-06T19:00:00	4	Temperatura máxima	17.1
94995	7	Sololá	702	San José Chacayá	5	Chacayá	5	Mayo	2023-10-05T00:00:00	2024-11-06T19:00:00	3	Temperatura mínima	16.3
94996	7	Sololá	702	San José Chacayá	5	Chacayá	5	Mayo	2023-10-05T00:00:00	2024-11-06T19:00:00	5	Humedad	69
94997	7	Sololá	702	San José Chacayá	5	Chacayá	5	Mayo	2023-10-05T00:00:00	2024-11-06T19:00:00	6	Velocidad del viento	1.6
94998	7	Sololá	702	San José Chacayá	5	Chacayá	5	Mayo	2023-10-05T00:00:00	2024-11-06T19:00:00	7	Dirección del viento	1.61
94999	7	Sololá	702	San José Chacayá	5	Chacayá	5	Mayo	2023-10-05T00:00:00	2024-11-06T19:00:00	1	Precipitación	0.8
95000	7	Sololá	702	San José Chacayá	5	Chacayá	5	Mayo	2023-10-05T00:00:00	2024-11-06T19:00:00	8	Radiación solar	0
95001	7	Sololá	702	San José Chacayá	5	Chacayá	5	Mayo	2023-10-05T00:00:00	2024-11-06T20:00:00	2	Temperatura media	15.4
95002	7	Sololá	702	San José Chacayá	5	Chacayá	5	Mayo	2023-10-05T00:00:00	2024-11-06T20:00:00	4	Temperatura máxima	16.3
95003	7	Sololá	702	San José Chacayá	5	Chacayá	5	Mayo	2023-10-05T00:00:00	2024-11-06T20:00:00	3	Temperatura mínima	15.4
95004	7	Sololá	702	San José Chacayá	5	Chacayá	5	Mayo	2023-10-05T00:00:00	2024-11-06T20:00:00	5	Humedad	69
95005	7	Sololá	702	San José Chacayá	5	Chacayá	5	Mayo	2023-10-05T00:00:00	2024-11-06T20:00:00	6	Velocidad del viento	0
95006	7	Sololá	702	San José Chacayá	5	Chacayá	5	Mayo	2023-10-05T00:00:00	2024-11-06T20:00:00	7	Dirección del viento	0
95007	7	Sololá	702	San José Chacayá	5	Chacayá	5	Mayo	2023-10-05T00:00:00	2024-11-06T20:00:00	1	Precipitación	3.6
95008	7	Sololá	702	San José Chacayá	5	Chacayá	5	Mayo	2023-10-05T00:00:00	2024-11-06T20:00:00	8	Radiación solar	0
95009	7	Sololá	702	San José Chacayá	5	Chacayá	5	Mayo	2023-10-05T00:00:00	2024-11-06T21:00:00	2	Temperatura media	13
95010	7	Sololá	702	San José Chacayá	5	Chacayá	5	Mayo	2023-10-05T00:00:00	2024-11-06T21:00:00	4	Temperatura máxima	15.3
95011	7	Sololá	702	San José Chacayá	5	Chacayá	5	Mayo	2023-10-05T00:00:00	2024-11-06T21:00:00	3	Temperatura mínima	13
95012	7	Sololá	702	San José Chacayá	5	Chacayá	5	Mayo	2023-10-05T00:00:00	2024-11-06T21:00:00	5	Humedad	75
95013	7	Sololá	702	San José Chacayá	5	Chacayá	5	Mayo	2023-10-05T00:00:00	2024-11-06T21:00:00	6	Velocidad del viento	3.2
95014	7	Sololá	702	San José Chacayá	5	Chacayá	5	Mayo	2023-10-05T00:00:00	2024-11-06T21:00:00	7	Dirección del viento	3.22
95015	7	Sololá	702	San José Chacayá	5	Chacayá	5	Mayo	2023-10-05T00:00:00	2024-11-06T21:00:00	1	Precipitación	9
95016	7	Sololá	702	San José Chacayá	5	Chacayá	5	Mayo	2023-10-05T00:00:00	2024-11-06T21:00:00	8	Radiación solar	0
95017	7	Sololá	702	San José Chacayá	5	Chacayá	5	Mayo	2023-10-05T00:00:00	2024-11-06T22:00:00	2	Temperatura media	12.1
95018	7	Sololá	702	San José Chacayá	5	Chacayá	5	Mayo	2023-10-05T00:00:00	2024-11-06T22:00:00	4	Temperatura máxima	13
95019	7	Sololá	702	San José Chacayá	5	Chacayá	5	Mayo	2023-10-05T00:00:00	2024-11-06T22:00:00	3	Temperatura mínima	12
95020	7	Sololá	702	San José Chacayá	5	Chacayá	5	Mayo	2023-10-05T00:00:00	2024-11-06T22:00:00	5	Humedad	73
95021	7	Sololá	702	San José Chacayá	5	Chacayá	5	Mayo	2023-10-05T00:00:00	2024-11-06T22:00:00	6	Velocidad del viento	1.6
95022	7	Sololá	702	San José Chacayá	5	Chacayá	5	Mayo	2023-10-05T00:00:00	2024-11-06T22:00:00	7	Dirección del viento	1.61
95023	7	Sololá	702	San José Chacayá	5	Chacayá	5	Mayo	2023-10-05T00:00:00	2024-11-06T22:00:00	1	Precipitación	1.8
95024	7	Sololá	702	San José Chacayá	5	Chacayá	5	Mayo	2023-10-05T00:00:00	2024-11-06T22:00:00	8	Radiación solar	0
95025	7	Sololá	702	San José Chacayá	5	Chacayá	5	Mayo	2023-10-05T00:00:00	2024-11-06T23:00:00	2	Temperatura media	11.8
95026	7	Sololá	702	San José Chacayá	5	Chacayá	5	Mayo	2023-10-05T00:00:00	2024-11-06T23:00:00	4	Temperatura máxima	12.1
95027	7	Sololá	702	San José Chacayá	5	Chacayá	5	Mayo	2023-10-05T00:00:00	2024-11-06T23:00:00	3	Temperatura mínima	11.8
95028	7	Sololá	702	San José Chacayá	5	Chacayá	5	Mayo	2023-10-05T00:00:00	2024-11-06T23:00:00	5	Humedad	80
95029	7	Sololá	702	San José Chacayá	5	Chacayá	5	Mayo	2023-10-05T00:00:00	2024-11-06T23:00:00	6	Velocidad del viento	3.2
95030	7	Sololá	702	San José Chacayá	5	Chacayá	5	Mayo	2023-10-05T00:00:00	2024-11-06T23:00:00	7	Dirección del viento	3.22
95031	7	Sololá	702	San José Chacayá	5	Chacayá	5	Mayo	2023-10-05T00:00:00	2024-11-06T23:00:00	1	Precipitación	0.2
95032	7	Sololá	702	San José Chacayá	5	Chacayá	5	Mayo	2023-10-05T00:00:00	2024-11-06T23:00:00	8	Radiación solar	0
95033	7	Sololá	702	San José Chacayá	5	Chacayá	5	Mayo	2023-11-05T00:00:00	2024-11-06T00:00:00	2	Temperatura media	11.6
95034	7	Sololá	702	San José Chacayá	5	Chacayá	5	Mayo	2023-11-05T00:00:00	2024-11-06T00:00:00	4	Temperatura máxima	11.8
95035	7	Sololá	702	San José Chacayá	5	Chacayá	5	Mayo	2023-11-05T00:00:00	2024-11-06T00:00:00	3	Temperatura mínima	11.5
95036	7	Sololá	702	San José Chacayá	5	Chacayá	5	Mayo	2023-11-05T00:00:00	2024-11-06T00:00:00	5	Humedad	83
95037	7	Sololá	702	San José Chacayá	5	Chacayá	5	Mayo	2023-11-05T00:00:00	2024-11-06T00:00:00	6	Velocidad del viento	4.8
95038	7	Sololá	702	San José Chacayá	5	Chacayá	5	Mayo	2023-11-05T00:00:00	2024-11-06T00:00:00	7	Dirección del viento	4.83
95039	7	Sololá	702	San José Chacayá	5	Chacayá	5	Mayo	2023-11-05T00:00:00	2024-11-06T00:00:00	1	Precipitación	0
95040	7	Sololá	702	San José Chacayá	5	Chacayá	5	Mayo	2023-11-05T00:00:00	2024-11-06T00:00:00	8	Radiación solar	0
95041	7	Sololá	702	San José Chacayá	5	Chacayá	5	Mayo	2023-11-05T00:00:00	2024-11-06T01:00:00	2	Temperatura media	11.6
95042	7	Sololá	702	San José Chacayá	5	Chacayá	5	Mayo	2023-11-05T00:00:00	2024-11-06T01:00:00	4	Temperatura máxima	11.6
95043	7	Sololá	702	San José Chacayá	5	Chacayá	5	Mayo	2023-11-05T00:00:00	2024-11-06T01:00:00	3	Temperatura mínima	11.3
95044	7	Sololá	702	San José Chacayá	5	Chacayá	5	Mayo	2023-11-05T00:00:00	2024-11-06T01:00:00	5	Humedad	70
95045	7	Sololá	702	San José Chacayá	5	Chacayá	5	Mayo	2023-11-05T00:00:00	2024-11-06T01:00:00	6	Velocidad del viento	1.6
95046	7	Sololá	702	San José Chacayá	5	Chacayá	5	Mayo	2023-11-05T00:00:00	2024-11-06T01:00:00	7	Dirección del viento	1.61
95047	7	Sololá	702	San José Chacayá	5	Chacayá	5	Mayo	2023-11-05T00:00:00	2024-11-06T01:00:00	1	Precipitación	0
95048	7	Sololá	702	San José Chacayá	5	Chacayá	5	Mayo	2023-11-05T00:00:00	2024-11-06T01:00:00	8	Radiación solar	0
95049	7	Sololá	702	San José Chacayá	5	Chacayá	5	Mayo	2023-11-05T00:00:00	2024-11-06T02:00:00	2	Temperatura media	11.4
95050	7	Sololá	702	San José Chacayá	5	Chacayá	5	Mayo	2023-11-05T00:00:00	2024-11-06T02:00:00	4	Temperatura máxima	11.8
95051	7	Sololá	702	San José Chacayá	5	Chacayá	5	Mayo	2023-11-05T00:00:00	2024-11-06T02:00:00	3	Temperatura mínima	11.4
95052	7	Sololá	702	San José Chacayá	5	Chacayá	5	Mayo	2023-11-05T00:00:00	2024-11-06T02:00:00	5	Humedad	71
95053	7	Sololá	702	San José Chacayá	5	Chacayá	5	Mayo	2023-11-05T00:00:00	2024-11-06T02:00:00	6	Velocidad del viento	3.2
95054	7	Sololá	702	San José Chacayá	5	Chacayá	5	Mayo	2023-11-05T00:00:00	2024-11-06T02:00:00	7	Dirección del viento	3.22
95055	7	Sololá	702	San José Chacayá	5	Chacayá	5	Mayo	2023-11-05T00:00:00	2024-11-06T02:00:00	1	Precipitación	0
95056	7	Sololá	702	San José Chacayá	5	Chacayá	5	Mayo	2023-11-05T00:00:00	2024-11-06T02:00:00	8	Radiación solar	0
95057	7	Sololá	702	San José Chacayá	5	Chacayá	5	Mayo	2023-11-05T00:00:00	2024-11-06T03:00:00	2	Temperatura media	11.3
95058	7	Sololá	702	San José Chacayá	5	Chacayá	5	Mayo	2023-11-05T00:00:00	2024-11-06T03:00:00	4	Temperatura máxima	11.5
95059	7	Sololá	702	San José Chacayá	5	Chacayá	5	Mayo	2023-11-05T00:00:00	2024-11-06T03:00:00	3	Temperatura mínima	11.1
95060	7	Sololá	702	San José Chacayá	5	Chacayá	5	Mayo	2023-11-05T00:00:00	2024-11-06T03:00:00	5	Humedad	77
95061	7	Sololá	702	San José Chacayá	5	Chacayá	5	Mayo	2023-11-05T00:00:00	2024-11-06T03:00:00	6	Velocidad del viento	1.6
95062	7	Sololá	702	San José Chacayá	5	Chacayá	5	Mayo	2023-11-05T00:00:00	2024-11-06T03:00:00	7	Dirección del viento	1.61
95063	7	Sololá	702	San José Chacayá	5	Chacayá	5	Mayo	2023-11-05T00:00:00	2024-11-06T03:00:00	1	Precipitación	0
95064	7	Sololá	702	San José Chacayá	5	Chacayá	5	Mayo	2023-11-05T00:00:00	2024-11-06T03:00:00	8	Radiación solar	0
95065	7	Sololá	702	San José Chacayá	5	Chacayá	5	Mayo	2023-11-05T00:00:00	2024-11-06T04:00:00	2	Temperatura media	10.7
95066	7	Sololá	702	San José Chacayá	5	Chacayá	5	Mayo	2023-11-05T00:00:00	2024-11-06T04:00:00	4	Temperatura máxima	11.3
95067	7	Sololá	702	San José Chacayá	5	Chacayá	5	Mayo	2023-11-05T00:00:00	2024-11-06T04:00:00	3	Temperatura mínima	10.7
95068	7	Sololá	702	San José Chacayá	5	Chacayá	5	Mayo	2023-11-05T00:00:00	2024-11-06T04:00:00	5	Humedad	80
95069	7	Sololá	702	San José Chacayá	5	Chacayá	5	Mayo	2023-11-05T00:00:00	2024-11-06T04:00:00	6	Velocidad del viento	1.6
95070	7	Sololá	702	San José Chacayá	5	Chacayá	5	Mayo	2023-11-05T00:00:00	2024-11-06T04:00:00	7	Dirección del viento	1.61
95071	7	Sololá	702	San José Chacayá	5	Chacayá	5	Mayo	2023-11-05T00:00:00	2024-11-06T04:00:00	1	Precipitación	0
95072	7	Sololá	702	San José Chacayá	5	Chacayá	5	Mayo	2023-11-05T00:00:00	2024-11-06T04:00:00	8	Radiación solar	0
95073	7	Sololá	702	San José Chacayá	5	Chacayá	5	Mayo	2023-11-05T00:00:00	2024-11-06T05:00:00	2	Temperatura media	10.1
95074	7	Sololá	702	San José Chacayá	5	Chacayá	5	Mayo	2023-11-05T00:00:00	2024-11-06T05:00:00	4	Temperatura máxima	10.7
95075	7	Sololá	702	San José Chacayá	5	Chacayá	5	Mayo	2023-11-05T00:00:00	2024-11-06T05:00:00	3	Temperatura mínima	10
95076	7	Sololá	702	San José Chacayá	5	Chacayá	5	Mayo	2023-11-05T00:00:00	2024-11-06T05:00:00	5	Humedad	79
95077	7	Sololá	702	San José Chacayá	5	Chacayá	5	Mayo	2023-11-05T00:00:00	2024-11-06T05:00:00	6	Velocidad del viento	3.2
95078	7	Sololá	702	San José Chacayá	5	Chacayá	5	Mayo	2023-11-05T00:00:00	2024-11-06T05:00:00	7	Dirección del viento	3.22
95079	7	Sololá	702	San José Chacayá	5	Chacayá	5	Mayo	2023-11-05T00:00:00	2024-11-06T05:00:00	1	Precipitación	0
95080	7	Sololá	702	San José Chacayá	5	Chacayá	5	Mayo	2023-11-05T00:00:00	2024-11-06T05:00:00	8	Radiación solar	0
95081	7	Sololá	702	San José Chacayá	5	Chacayá	5	Mayo	2023-11-05T00:00:00	2024-11-06T06:00:00	2	Temperatura media	9.9
95082	7	Sololá	702	San José Chacayá	5	Chacayá	5	Mayo	2023-11-05T00:00:00	2024-11-06T06:00:00	4	Temperatura máxima	10.2
95083	7	Sololá	702	San José Chacayá	5	Chacayá	5	Mayo	2023-11-05T00:00:00	2024-11-06T06:00:00	3	Temperatura mínima	9.9
95084	7	Sololá	702	San José Chacayá	5	Chacayá	5	Mayo	2023-11-05T00:00:00	2024-11-06T06:00:00	5	Humedad	82
95085	7	Sololá	702	San José Chacayá	5	Chacayá	5	Mayo	2023-11-05T00:00:00	2024-11-06T06:00:00	6	Velocidad del viento	3.2
95086	7	Sololá	702	San José Chacayá	5	Chacayá	5	Mayo	2023-11-05T00:00:00	2024-11-06T06:00:00	7	Dirección del viento	3.22
95087	7	Sololá	702	San José Chacayá	5	Chacayá	5	Mayo	2023-11-05T00:00:00	2024-11-06T06:00:00	1	Precipitación	0
95088	7	Sololá	702	San José Chacayá	5	Chacayá	5	Mayo	2023-11-05T00:00:00	2024-11-06T06:00:00	8	Radiación solar	0
95089	7	Sololá	702	San José Chacayá	5	Chacayá	5	Mayo	2023-11-05T00:00:00	2024-11-06T07:00:00	2	Temperatura media	9.6
95090	7	Sololá	702	San José Chacayá	5	Chacayá	5	Mayo	2023-11-05T00:00:00	2024-11-06T07:00:00	4	Temperatura máxima	9.9
95091	7	Sololá	702	San José Chacayá	5	Chacayá	5	Mayo	2023-11-05T00:00:00	2024-11-06T07:00:00	3	Temperatura mínima	9.5
95092	7	Sololá	702	San José Chacayá	5	Chacayá	5	Mayo	2023-11-05T00:00:00	2024-11-06T07:00:00	5	Humedad	79
95093	7	Sololá	702	San José Chacayá	5	Chacayá	5	Mayo	2023-11-05T00:00:00	2024-11-06T07:00:00	6	Velocidad del viento	3.2
95094	7	Sololá	702	San José Chacayá	5	Chacayá	5	Mayo	2023-11-05T00:00:00	2024-11-06T07:00:00	7	Dirección del viento	3.22
95095	7	Sololá	702	San José Chacayá	5	Chacayá	5	Mayo	2023-11-05T00:00:00	2024-11-06T07:00:00	1	Precipitación	0
95096	7	Sololá	702	San José Chacayá	5	Chacayá	5	Mayo	2023-11-05T00:00:00	2024-11-06T07:00:00	8	Radiación solar	5
95097	7	Sololá	702	San José Chacayá	5	Chacayá	5	Mayo	2023-11-05T00:00:00	2024-11-06T08:00:00	2	Temperatura media	12
95098	7	Sololá	702	San José Chacayá	5	Chacayá	5	Mayo	2023-11-05T00:00:00	2024-11-06T08:00:00	4	Temperatura máxima	12
95099	7	Sololá	702	San José Chacayá	5	Chacayá	5	Mayo	2023-11-05T00:00:00	2024-11-06T08:00:00	3	Temperatura mínima	9.6
95100	7	Sololá	702	San José Chacayá	5	Chacayá	5	Mayo	2023-11-05T00:00:00	2024-11-06T08:00:00	5	Humedad	76
95101	7	Sololá	702	San José Chacayá	5	Chacayá	5	Mayo	2023-11-05T00:00:00	2024-11-06T08:00:00	6	Velocidad del viento	3.2
95102	7	Sololá	702	San José Chacayá	5	Chacayá	5	Mayo	2023-11-05T00:00:00	2024-11-06T08:00:00	7	Dirección del viento	3.22
95103	7	Sololá	702	San José Chacayá	5	Chacayá	5	Mayo	2023-11-05T00:00:00	2024-11-06T08:00:00	1	Precipitación	0
95104	7	Sololá	702	San José Chacayá	5	Chacayá	5	Mayo	2023-11-05T00:00:00	2024-11-06T08:00:00	8	Radiación solar	34
95105	7	Sololá	702	San José Chacayá	5	Chacayá	5	Mayo	2023-11-05T00:00:00	2024-11-06T09:00:00	2	Temperatura media	15.8
95106	7	Sololá	702	San José Chacayá	5	Chacayá	5	Mayo	2023-11-05T00:00:00	2024-11-06T09:00:00	4	Temperatura máxima	15.8
95107	7	Sololá	702	San José Chacayá	5	Chacayá	5	Mayo	2023-11-05T00:00:00	2024-11-06T09:00:00	3	Temperatura mínima	12
95108	7	Sololá	702	San José Chacayá	5	Chacayá	5	Mayo	2023-11-05T00:00:00	2024-11-06T09:00:00	5	Humedad	75
95109	7	Sololá	702	San José Chacayá	5	Chacayá	5	Mayo	2023-11-05T00:00:00	2024-11-06T09:00:00	6	Velocidad del viento	1.6
95110	7	Sololá	702	San José Chacayá	5	Chacayá	5	Mayo	2023-11-05T00:00:00	2024-11-06T09:00:00	7	Dirección del viento	1.61
95111	7	Sololá	702	San José Chacayá	5	Chacayá	5	Mayo	2023-11-05T00:00:00	2024-11-06T09:00:00	1	Precipitación	0
95112	7	Sololá	702	San José Chacayá	5	Chacayá	5	Mayo	2023-11-05T00:00:00	2024-11-06T09:00:00	8	Radiación solar	100
95113	7	Sololá	702	San José Chacayá	5	Chacayá	5	Mayo	2023-11-05T00:00:00	2024-11-06T10:00:00	2	Temperatura media	19.1
95114	7	Sololá	702	San José Chacayá	5	Chacayá	5	Mayo	2023-11-05T00:00:00	2024-11-06T10:00:00	4	Temperatura máxima	19.1
95115	7	Sololá	702	San José Chacayá	5	Chacayá	5	Mayo	2023-11-05T00:00:00	2024-11-06T10:00:00	3	Temperatura mínima	15.8
95116	7	Sololá	702	San José Chacayá	5	Chacayá	5	Mayo	2023-11-05T00:00:00	2024-11-06T10:00:00	5	Humedad	65
95117	7	Sololá	702	San José Chacayá	5	Chacayá	5	Mayo	2023-11-05T00:00:00	2024-11-06T10:00:00	6	Velocidad del viento	3.2
95118	7	Sololá	702	San José Chacayá	5	Chacayá	5	Mayo	2023-11-05T00:00:00	2024-11-06T10:00:00	7	Dirección del viento	3.22
95119	7	Sololá	702	San José Chacayá	5	Chacayá	5	Mayo	2023-11-05T00:00:00	2024-11-06T10:00:00	1	Precipitación	0
95120	7	Sololá	702	San José Chacayá	5	Chacayá	5	Mayo	2023-11-05T00:00:00	2024-11-06T10:00:00	8	Radiación solar	576
95121	7	Sololá	702	San José Chacayá	5	Chacayá	5	Mayo	2023-11-05T00:00:00	2024-11-06T11:00:00	2	Temperatura media	19.1
95122	7	Sololá	702	San José Chacayá	5	Chacayá	5	Mayo	2023-11-05T00:00:00	2024-11-06T11:00:00	4	Temperatura máxima	19.3
95123	7	Sololá	702	San José Chacayá	5	Chacayá	5	Mayo	2023-11-05T00:00:00	2024-11-06T11:00:00	3	Temperatura mínima	18.8
95124	7	Sololá	702	San José Chacayá	5	Chacayá	5	Mayo	2023-11-05T00:00:00	2024-11-06T11:00:00	5	Humedad	70
95125	7	Sololá	702	San José Chacayá	5	Chacayá	5	Mayo	2023-11-05T00:00:00	2024-11-06T11:00:00	6	Velocidad del viento	6.4
95126	7	Sololá	702	San José Chacayá	5	Chacayá	5	Mayo	2023-11-05T00:00:00	2024-11-06T11:00:00	7	Dirección del viento	6.44
95127	7	Sololá	702	San José Chacayá	5	Chacayá	5	Mayo	2023-11-05T00:00:00	2024-11-06T11:00:00	1	Precipitación	0
95128	7	Sololá	702	San José Chacayá	5	Chacayá	5	Mayo	2023-11-05T00:00:00	2024-11-06T11:00:00	8	Radiación solar	759
95129	7	Sololá	702	San José Chacayá	5	Chacayá	5	Mayo	2023-11-05T00:00:00	2024-11-06T12:00:00	2	Temperatura media	20.1
95130	7	Sololá	702	San José Chacayá	5	Chacayá	5	Mayo	2023-11-05T00:00:00	2024-11-06T12:00:00	4	Temperatura máxima	20.4
95131	7	Sololá	702	San José Chacayá	5	Chacayá	5	Mayo	2023-11-05T00:00:00	2024-11-06T12:00:00	3	Temperatura mínima	19.1
95132	7	Sololá	702	San José Chacayá	5	Chacayá	5	Mayo	2023-11-05T00:00:00	2024-11-06T12:00:00	5	Humedad	70
95133	7	Sololá	702	San José Chacayá	5	Chacayá	5	Mayo	2023-11-05T00:00:00	2024-11-06T12:00:00	6	Velocidad del viento	8
95134	7	Sololá	702	San José Chacayá	5	Chacayá	5	Mayo	2023-11-05T00:00:00	2024-11-06T12:00:00	7	Dirección del viento	8.05
95135	7	Sololá	702	San José Chacayá	5	Chacayá	5	Mayo	2023-11-05T00:00:00	2024-11-06T12:00:00	1	Precipitación	0
95136	7	Sololá	702	San José Chacayá	5	Chacayá	5	Mayo	2023-11-05T00:00:00	2024-11-06T12:00:00	8	Radiación solar	931
95137	7	Sololá	702	San José Chacayá	5	Chacayá	5	Mayo	2023-11-05T00:00:00	2024-11-06T13:00:00	2	Temperatura media	19.8
95138	7	Sololá	702	San José Chacayá	5	Chacayá	5	Mayo	2023-11-05T00:00:00	2024-11-06T13:00:00	4	Temperatura máxima	20.1
95139	7	Sololá	702	San José Chacayá	5	Chacayá	5	Mayo	2023-11-05T00:00:00	2024-11-06T13:00:00	3	Temperatura mínima	19.6
95140	7	Sololá	702	San José Chacayá	5	Chacayá	5	Mayo	2023-11-05T00:00:00	2024-11-06T13:00:00	5	Humedad	71
95141	7	Sololá	702	San José Chacayá	5	Chacayá	5	Mayo	2023-11-05T00:00:00	2024-11-06T13:00:00	6	Velocidad del viento	8
95142	7	Sololá	702	San José Chacayá	5	Chacayá	5	Mayo	2023-11-05T00:00:00	2024-11-06T13:00:00	7	Dirección del viento	8.05
95143	7	Sololá	702	San José Chacayá	5	Chacayá	5	Mayo	2023-11-05T00:00:00	2024-11-06T13:00:00	1	Precipitación	0
95144	7	Sololá	702	San José Chacayá	5	Chacayá	5	Mayo	2023-11-05T00:00:00	2024-11-06T13:00:00	8	Radiación solar	927
95145	7	Sololá	702	San José Chacayá	5	Chacayá	5	Mayo	2023-11-05T00:00:00	2024-11-06T14:00:00	2	Temperatura media	18.9
95146	7	Sololá	702	San José Chacayá	5	Chacayá	5	Mayo	2023-11-05T00:00:00	2024-11-06T14:00:00	4	Temperatura máxima	19.8
95147	7	Sololá	702	San José Chacayá	5	Chacayá	5	Mayo	2023-11-05T00:00:00	2024-11-06T14:00:00	3	Temperatura mínima	18.6
95148	7	Sololá	702	San José Chacayá	5	Chacayá	5	Mayo	2023-11-05T00:00:00	2024-11-06T14:00:00	5	Humedad	75
95149	7	Sololá	702	San José Chacayá	5	Chacayá	5	Mayo	2023-11-05T00:00:00	2024-11-06T14:00:00	6	Velocidad del viento	4.8
95150	7	Sololá	702	San José Chacayá	5	Chacayá	5	Mayo	2023-11-05T00:00:00	2024-11-06T14:00:00	7	Dirección del viento	4.83
95151	7	Sololá	702	San José Chacayá	5	Chacayá	5	Mayo	2023-11-05T00:00:00	2024-11-06T14:00:00	1	Precipitación	0
95152	7	Sololá	702	San José Chacayá	5	Chacayá	5	Mayo	2023-11-05T00:00:00	2024-11-06T14:00:00	8	Radiación solar	351
95153	7	Sololá	702	San José Chacayá	5	Chacayá	5	Mayo	2023-11-05T00:00:00	2024-11-06T15:00:00	2	Temperatura media	18.4
95154	7	Sololá	702	San José Chacayá	5	Chacayá	5	Mayo	2023-11-05T00:00:00	2024-11-06T15:00:00	4	Temperatura máxima	19.7
95155	7	Sololá	702	San José Chacayá	5	Chacayá	5	Mayo	2023-11-05T00:00:00	2024-11-06T15:00:00	3	Temperatura mínima	18.4
95156	7	Sololá	702	San José Chacayá	5	Chacayá	5	Mayo	2023-11-05T00:00:00	2024-11-06T15:00:00	5	Humedad	76
95157	7	Sololá	702	San José Chacayá	5	Chacayá	5	Mayo	2023-11-05T00:00:00	2024-11-06T15:00:00	6	Velocidad del viento	4.8
95158	7	Sololá	702	San José Chacayá	5	Chacayá	5	Mayo	2023-11-05T00:00:00	2024-11-06T15:00:00	7	Dirección del viento	4.83
95159	7	Sololá	702	San José Chacayá	5	Chacayá	5	Mayo	2023-11-05T00:00:00	2024-11-06T15:00:00	1	Precipitación	0
95160	7	Sololá	702	San José Chacayá	5	Chacayá	5	Mayo	2023-11-05T00:00:00	2024-11-06T15:00:00	8	Radiación solar	310
95161	7	Sololá	702	San José Chacayá	5	Chacayá	5	Mayo	2023-11-05T00:00:00	2024-11-06T16:00:00	2	Temperatura media	18.2
95162	7	Sololá	702	San José Chacayá	5	Chacayá	5	Mayo	2023-11-05T00:00:00	2024-11-06T16:00:00	4	Temperatura máxima	18.4
95163	7	Sololá	702	San José Chacayá	5	Chacayá	5	Mayo	2023-11-05T00:00:00	2024-11-06T16:00:00	3	Temperatura mínima	17.7
95164	7	Sololá	702	San José Chacayá	5	Chacayá	5	Mayo	2023-11-05T00:00:00	2024-11-06T16:00:00	5	Humedad	81
95165	7	Sololá	702	San José Chacayá	5	Chacayá	5	Mayo	2023-11-05T00:00:00	2024-11-06T16:00:00	6	Velocidad del viento	4.8
95166	7	Sololá	702	San José Chacayá	5	Chacayá	5	Mayo	2023-11-05T00:00:00	2024-11-06T16:00:00	7	Dirección del viento	4.83
95167	7	Sololá	702	San José Chacayá	5	Chacayá	5	Mayo	2023-11-05T00:00:00	2024-11-06T16:00:00	1	Precipitación	0
95168	7	Sololá	702	San José Chacayá	5	Chacayá	5	Mayo	2023-11-05T00:00:00	2024-11-06T16:00:00	8	Radiación solar	189
95169	7	Sololá	702	San José Chacayá	5	Chacayá	5	Mayo	2023-11-05T00:00:00	2024-11-06T17:00:00	2	Temperatura media	16.6
95170	7	Sololá	702	San José Chacayá	5	Chacayá	5	Mayo	2023-11-05T00:00:00	2024-11-06T17:00:00	4	Temperatura máxima	18.2
95171	7	Sololá	702	San José Chacayá	5	Chacayá	5	Mayo	2023-11-05T00:00:00	2024-11-06T17:00:00	3	Temperatura mínima	16.6
95172	7	Sololá	702	San José Chacayá	5	Chacayá	5	Mayo	2023-11-05T00:00:00	2024-11-06T17:00:00	5	Humedad	77
95173	7	Sololá	702	San José Chacayá	5	Chacayá	5	Mayo	2023-11-05T00:00:00	2024-11-06T17:00:00	6	Velocidad del viento	3.2
95174	7	Sololá	702	San José Chacayá	5	Chacayá	5	Mayo	2023-11-05T00:00:00	2024-11-06T17:00:00	7	Dirección del viento	3.22
95175	7	Sololá	702	San José Chacayá	5	Chacayá	5	Mayo	2023-11-05T00:00:00	2024-11-06T17:00:00	1	Precipitación	2
95176	7	Sololá	702	San José Chacayá	5	Chacayá	5	Mayo	2023-11-05T00:00:00	2024-11-06T17:00:00	8	Radiación solar	69
95177	7	Sololá	702	San José Chacayá	5	Chacayá	5	Mayo	2023-11-05T00:00:00	2024-11-06T18:00:00	2	Temperatura media	16.4
95178	7	Sololá	702	San José Chacayá	5	Chacayá	5	Mayo	2023-11-05T00:00:00	2024-11-06T18:00:00	4	Temperatura máxima	16.7
95179	7	Sololá	702	San José Chacayá	5	Chacayá	5	Mayo	2023-11-05T00:00:00	2024-11-06T18:00:00	3	Temperatura mínima	16.3
95180	7	Sololá	702	San José Chacayá	5	Chacayá	5	Mayo	2023-11-05T00:00:00	2024-11-06T18:00:00	5	Humedad	73
95181	7	Sololá	702	San José Chacayá	5	Chacayá	5	Mayo	2023-11-05T00:00:00	2024-11-06T18:00:00	6	Velocidad del viento	0
95182	7	Sololá	702	San José Chacayá	5	Chacayá	5	Mayo	2023-11-05T00:00:00	2024-11-06T18:00:00	7	Dirección del viento	0
95183	7	Sololá	702	San José Chacayá	5	Chacayá	5	Mayo	2023-11-05T00:00:00	2024-11-06T18:00:00	1	Precipitación	0
95184	7	Sololá	702	San José Chacayá	5	Chacayá	5	Mayo	2023-11-05T00:00:00	2024-11-06T18:00:00	8	Radiación solar	54
95185	7	Sololá	702	San José Chacayá	5	Chacayá	5	Mayo	2023-11-05T00:00:00	2024-11-06T19:00:00	2	Temperatura media	16.2
95186	7	Sololá	702	San José Chacayá	5	Chacayá	5	Mayo	2023-11-05T00:00:00	2024-11-06T19:00:00	4	Temperatura máxima	16.4
95187	7	Sololá	702	San José Chacayá	5	Chacayá	5	Mayo	2023-11-05T00:00:00	2024-11-06T19:00:00	3	Temperatura mínima	16.2
95188	7	Sololá	702	San José Chacayá	5	Chacayá	5	Mayo	2023-11-05T00:00:00	2024-11-06T19:00:00	5	Humedad	72
95189	7	Sololá	702	San José Chacayá	5	Chacayá	5	Mayo	2023-11-05T00:00:00	2024-11-06T19:00:00	6	Velocidad del viento	0
95190	7	Sololá	702	San José Chacayá	5	Chacayá	5	Mayo	2023-11-05T00:00:00	2024-11-06T19:00:00	7	Dirección del viento	0
95191	7	Sololá	702	San José Chacayá	5	Chacayá	5	Mayo	2023-11-05T00:00:00	2024-11-06T19:00:00	1	Precipitación	0
95192	7	Sololá	702	San José Chacayá	5	Chacayá	5	Mayo	2023-11-05T00:00:00	2024-11-06T19:00:00	8	Radiación solar	0
95193	7	Sololá	702	San José Chacayá	5	Chacayá	5	Mayo	2023-11-05T00:00:00	2024-11-06T20:00:00	2	Temperatura media	15.4
95194	7	Sololá	702	San José Chacayá	5	Chacayá	5	Mayo	2023-11-05T00:00:00	2024-11-06T20:00:00	4	Temperatura máxima	16.2
95195	7	Sololá	702	San José Chacayá	5	Chacayá	5	Mayo	2023-11-05T00:00:00	2024-11-06T20:00:00	3	Temperatura mínima	15.4
95196	7	Sololá	702	San José Chacayá	5	Chacayá	5	Mayo	2023-11-05T00:00:00	2024-11-06T20:00:00	5	Humedad	66
95197	7	Sololá	702	San José Chacayá	5	Chacayá	5	Mayo	2023-11-05T00:00:00	2024-11-06T20:00:00	6	Velocidad del viento	0
95198	7	Sololá	702	San José Chacayá	5	Chacayá	5	Mayo	2023-11-05T00:00:00	2024-11-06T20:00:00	7	Dirección del viento	0
95199	7	Sololá	702	San José Chacayá	5	Chacayá	5	Mayo	2023-11-05T00:00:00	2024-11-06T20:00:00	1	Precipitación	0
95200	7	Sololá	702	San José Chacayá	5	Chacayá	5	Mayo	2023-11-05T00:00:00	2024-11-06T20:00:00	8	Radiación solar	0
95201	7	Sololá	702	San José Chacayá	5	Chacayá	5	Mayo	2023-11-05T00:00:00	2024-11-06T21:00:00	2	Temperatura media	14.8
95202	7	Sololá	702	San José Chacayá	5	Chacayá	5	Mayo	2023-11-05T00:00:00	2024-11-06T21:00:00	4	Temperatura máxima	15.4
95203	7	Sololá	702	San José Chacayá	5	Chacayá	5	Mayo	2023-11-05T00:00:00	2024-11-06T21:00:00	3	Temperatura mínima	14.8
95204	7	Sololá	702	San José Chacayá	5	Chacayá	5	Mayo	2023-11-05T00:00:00	2024-11-06T21:00:00	5	Humedad	68
95205	7	Sololá	702	San José Chacayá	5	Chacayá	5	Mayo	2023-11-05T00:00:00	2024-11-06T21:00:00	6	Velocidad del viento	0
95206	7	Sololá	702	San José Chacayá	5	Chacayá	5	Mayo	2023-11-05T00:00:00	2024-11-06T21:00:00	7	Dirección del viento	0
95207	7	Sololá	702	San José Chacayá	5	Chacayá	5	Mayo	2023-11-05T00:00:00	2024-11-06T21:00:00	1	Precipitación	0
95208	7	Sololá	702	San José Chacayá	5	Chacayá	5	Mayo	2023-11-05T00:00:00	2024-11-06T21:00:00	8	Radiación solar	0
95209	7	Sololá	702	San José Chacayá	5	Chacayá	5	Mayo	2023-11-05T00:00:00	2024-11-06T22:00:00	2	Temperatura media	14.4
95210	7	Sololá	702	San José Chacayá	5	Chacayá	5	Mayo	2023-11-05T00:00:00	2024-11-06T22:00:00	4	Temperatura máxima	14.9
95211	7	Sololá	702	San José Chacayá	5	Chacayá	5	Mayo	2023-11-05T00:00:00	2024-11-06T22:00:00	3	Temperatura mínima	14.4
95212	7	Sololá	702	San José Chacayá	5	Chacayá	5	Mayo	2023-11-05T00:00:00	2024-11-06T22:00:00	5	Humedad	71
95213	7	Sololá	702	San José Chacayá	5	Chacayá	5	Mayo	2023-11-05T00:00:00	2024-11-06T22:00:00	6	Velocidad del viento	0
95214	7	Sololá	702	San José Chacayá	5	Chacayá	5	Mayo	2023-11-05T00:00:00	2024-11-06T22:00:00	7	Dirección del viento	0
95215	7	Sololá	702	San José Chacayá	5	Chacayá	5	Mayo	2023-11-05T00:00:00	2024-11-06T22:00:00	1	Precipitación	0
95216	7	Sololá	702	San José Chacayá	5	Chacayá	5	Mayo	2023-11-05T00:00:00	2024-11-06T22:00:00	8	Radiación solar	0
95217	7	Sololá	702	San José Chacayá	5	Chacayá	5	Mayo	2023-11-05T00:00:00	2024-11-06T23:00:00	2	Temperatura media	14.2
95218	7	Sololá	702	San José Chacayá	5	Chacayá	5	Mayo	2023-11-05T00:00:00	2024-11-06T23:00:00	4	Temperatura máxima	14.4
95219	7	Sololá	702	San José Chacayá	5	Chacayá	5	Mayo	2023-11-05T00:00:00	2024-11-06T23:00:00	3	Temperatura mínima	14.2
95220	7	Sololá	702	San José Chacayá	5	Chacayá	5	Mayo	2023-11-05T00:00:00	2024-11-06T23:00:00	5	Humedad	69
95221	7	Sololá	702	San José Chacayá	5	Chacayá	5	Mayo	2023-11-05T00:00:00	2024-11-06T23:00:00	6	Velocidad del viento	1.6
95222	7	Sololá	702	San José Chacayá	5	Chacayá	5	Mayo	2023-11-05T00:00:00	2024-11-06T23:00:00	7	Dirección del viento	1.61
95223	7	Sololá	702	San José Chacayá	5	Chacayá	5	Mayo	2023-11-05T00:00:00	2024-11-06T23:00:00	1	Precipitación	0
95224	7	Sololá	702	San José Chacayá	5	Chacayá	5	Mayo	2023-11-05T00:00:00	2024-11-06T23:00:00	8	Radiación solar	0
95225	7	Sololá	702	San José Chacayá	5	Chacayá	5	Mayo	2023-12-05T00:00:00	2024-11-06T00:00:00	2	Temperatura media	14.1
95226	7	Sololá	702	San José Chacayá	5	Chacayá	5	Mayo	2023-12-05T00:00:00	2024-11-06T00:00:00	4	Temperatura máxima	14.2
95227	7	Sololá	702	San José Chacayá	5	Chacayá	5	Mayo	2023-12-05T00:00:00	2024-11-06T00:00:00	3	Temperatura mínima	14.1
95228	7	Sololá	702	San José Chacayá	5	Chacayá	5	Mayo	2023-12-05T00:00:00	2024-11-06T00:00:00	5	Humedad	64
95229	7	Sololá	702	San José Chacayá	5	Chacayá	5	Mayo	2023-12-05T00:00:00	2024-11-06T00:00:00	6	Velocidad del viento	0
95230	7	Sololá	702	San José Chacayá	5	Chacayá	5	Mayo	2023-12-05T00:00:00	2024-11-06T00:00:00	7	Dirección del viento	0
95231	7	Sololá	702	San José Chacayá	5	Chacayá	5	Mayo	2023-12-05T00:00:00	2024-11-06T00:00:00	1	Precipitación	0.2
95232	7	Sololá	702	San José Chacayá	5	Chacayá	5	Mayo	2023-12-05T00:00:00	2024-11-06T00:00:00	8	Radiación solar	0
95233	7	Sololá	702	San José Chacayá	5	Chacayá	5	Mayo	2023-12-05T00:00:00	2024-11-06T01:00:00	2	Temperatura media	14
95234	7	Sololá	702	San José Chacayá	5	Chacayá	5	Mayo	2023-12-05T00:00:00	2024-11-06T01:00:00	4	Temperatura máxima	14.1
95235	7	Sololá	702	San José Chacayá	5	Chacayá	5	Mayo	2023-12-05T00:00:00	2024-11-06T01:00:00	3	Temperatura mínima	13.8
95236	7	Sololá	702	San José Chacayá	5	Chacayá	5	Mayo	2023-12-05T00:00:00	2024-11-06T01:00:00	5	Humedad	63
95237	7	Sololá	702	San José Chacayá	5	Chacayá	5	Mayo	2023-12-05T00:00:00	2024-11-06T01:00:00	6	Velocidad del viento	0
95238	7	Sololá	702	San José Chacayá	5	Chacayá	5	Mayo	2023-12-05T00:00:00	2024-11-06T01:00:00	7	Dirección del viento	0
95239	7	Sololá	702	San José Chacayá	5	Chacayá	5	Mayo	2023-12-05T00:00:00	2024-11-06T01:00:00	1	Precipitación	0
95240	7	Sololá	702	San José Chacayá	5	Chacayá	5	Mayo	2023-12-05T00:00:00	2024-11-06T01:00:00	8	Radiación solar	0
95241	7	Sololá	702	San José Chacayá	5	Chacayá	5	Mayo	2023-12-05T00:00:00	2024-11-06T02:00:00	2	Temperatura media	12.9
95242	7	Sololá	702	San José Chacayá	5	Chacayá	5	Mayo	2023-12-05T00:00:00	2024-11-06T02:00:00	4	Temperatura máxima	14
95243	7	Sololá	702	San José Chacayá	5	Chacayá	5	Mayo	2023-12-05T00:00:00	2024-11-06T02:00:00	3	Temperatura mínima	12.9
95244	7	Sololá	702	San José Chacayá	5	Chacayá	5	Mayo	2023-12-05T00:00:00	2024-11-06T02:00:00	5	Humedad	67
95245	7	Sololá	702	San José Chacayá	5	Chacayá	5	Mayo	2023-12-05T00:00:00	2024-11-06T02:00:00	6	Velocidad del viento	0
95246	7	Sololá	702	San José Chacayá	5	Chacayá	5	Mayo	2023-12-05T00:00:00	2024-11-06T02:00:00	7	Dirección del viento	0
95247	7	Sololá	702	San José Chacayá	5	Chacayá	5	Mayo	2023-12-05T00:00:00	2024-11-06T02:00:00	1	Precipitación	0
95248	7	Sololá	702	San José Chacayá	5	Chacayá	5	Mayo	2023-12-05T00:00:00	2024-11-06T02:00:00	8	Radiación solar	0
95249	7	Sololá	702	San José Chacayá	5	Chacayá	5	Mayo	2023-12-05T00:00:00	2024-11-06T03:00:00	2	Temperatura media	12.8
95250	7	Sololá	702	San José Chacayá	5	Chacayá	5	Mayo	2023-12-05T00:00:00	2024-11-06T03:00:00	4	Temperatura máxima	12.9
95251	7	Sololá	702	San José Chacayá	5	Chacayá	5	Mayo	2023-12-05T00:00:00	2024-11-06T03:00:00	3	Temperatura mínima	12.7
95252	7	Sololá	702	San José Chacayá	5	Chacayá	5	Mayo	2023-12-05T00:00:00	2024-11-06T03:00:00	5	Humedad	64
95253	7	Sololá	702	San José Chacayá	5	Chacayá	5	Mayo	2023-12-05T00:00:00	2024-11-06T03:00:00	6	Velocidad del viento	0
95254	7	Sololá	702	San José Chacayá	5	Chacayá	5	Mayo	2023-12-05T00:00:00	2024-11-06T03:00:00	7	Dirección del viento	0
95255	7	Sololá	702	San José Chacayá	5	Chacayá	5	Mayo	2023-12-05T00:00:00	2024-11-06T03:00:00	1	Precipitación	0
95256	7	Sololá	702	San José Chacayá	5	Chacayá	5	Mayo	2023-12-05T00:00:00	2024-11-06T03:00:00	8	Radiación solar	0
95257	7	Sololá	702	San José Chacayá	5	Chacayá	5	Mayo	2023-12-05T00:00:00	2024-11-06T04:00:00	2	Temperatura media	12.7
95258	7	Sololá	702	San José Chacayá	5	Chacayá	5	Mayo	2023-12-05T00:00:00	2024-11-06T04:00:00	4	Temperatura máxima	12.8
95259	7	Sololá	702	San José Chacayá	5	Chacayá	5	Mayo	2023-12-05T00:00:00	2024-11-06T04:00:00	3	Temperatura mínima	12.5
95260	7	Sololá	702	San José Chacayá	5	Chacayá	5	Mayo	2023-12-05T00:00:00	2024-11-06T04:00:00	5	Humedad	66
95261	7	Sololá	702	San José Chacayá	5	Chacayá	5	Mayo	2023-12-05T00:00:00	2024-11-06T04:00:00	6	Velocidad del viento	1.6
95262	7	Sololá	702	San José Chacayá	5	Chacayá	5	Mayo	2023-12-05T00:00:00	2024-11-06T04:00:00	7	Dirección del viento	1.61
95263	7	Sololá	702	San José Chacayá	5	Chacayá	5	Mayo	2023-12-05T00:00:00	2024-11-06T04:00:00	1	Precipitación	0
95264	7	Sololá	702	San José Chacayá	5	Chacayá	5	Mayo	2023-12-05T00:00:00	2024-11-06T04:00:00	8	Radiación solar	0
95265	7	Sololá	702	San José Chacayá	5	Chacayá	5	Mayo	2023-12-05T00:00:00	2024-11-06T05:00:00	2	Temperatura media	12.3
95266	7	Sololá	702	San José Chacayá	5	Chacayá	5	Mayo	2023-12-05T00:00:00	2024-11-06T05:00:00	4	Temperatura máxima	12.8
95267	7	Sololá	702	San José Chacayá	5	Chacayá	5	Mayo	2023-12-05T00:00:00	2024-11-06T05:00:00	3	Temperatura mínima	12.3
95268	7	Sololá	702	San José Chacayá	5	Chacayá	5	Mayo	2023-12-05T00:00:00	2024-11-06T05:00:00	5	Humedad	72
95269	7	Sololá	702	San José Chacayá	5	Chacayá	5	Mayo	2023-12-05T00:00:00	2024-11-06T05:00:00	6	Velocidad del viento	1.6
95270	7	Sololá	702	San José Chacayá	5	Chacayá	5	Mayo	2023-12-05T00:00:00	2024-11-06T05:00:00	7	Dirección del viento	1.61
95271	7	Sololá	702	San José Chacayá	5	Chacayá	5	Mayo	2023-12-05T00:00:00	2024-11-06T05:00:00	1	Precipitación	0
95272	7	Sololá	702	San José Chacayá	5	Chacayá	5	Mayo	2023-12-05T00:00:00	2024-11-06T05:00:00	8	Radiación solar	0
95273	7	Sololá	702	San José Chacayá	5	Chacayá	5	Mayo	2023-12-05T00:00:00	2024-11-06T06:00:00	2	Temperatura media	11.9
95274	7	Sololá	702	San José Chacayá	5	Chacayá	5	Mayo	2023-12-05T00:00:00	2024-11-06T06:00:00	4	Temperatura máxima	12.3
95275	7	Sololá	702	San José Chacayá	5	Chacayá	5	Mayo	2023-12-05T00:00:00	2024-11-06T06:00:00	3	Temperatura mínima	11.8
95276	7	Sololá	702	San José Chacayá	5	Chacayá	5	Mayo	2023-12-05T00:00:00	2024-11-06T06:00:00	5	Humedad	74
95277	7	Sololá	702	San José Chacayá	5	Chacayá	5	Mayo	2023-12-05T00:00:00	2024-11-06T06:00:00	6	Velocidad del viento	1.6
95278	7	Sololá	702	San José Chacayá	5	Chacayá	5	Mayo	2023-12-05T00:00:00	2024-11-06T06:00:00	7	Dirección del viento	1.61
95279	7	Sololá	702	San José Chacayá	5	Chacayá	5	Mayo	2023-12-05T00:00:00	2024-11-06T06:00:00	1	Precipitación	0
95280	7	Sololá	702	San José Chacayá	5	Chacayá	5	Mayo	2023-12-05T00:00:00	2024-11-06T06:00:00	8	Radiación solar	0
95281	7	Sololá	702	San José Chacayá	5	Chacayá	5	Mayo	2023-12-05T00:00:00	2024-11-06T07:00:00	2	Temperatura media	11.3
95282	7	Sololá	702	San José Chacayá	5	Chacayá	5	Mayo	2023-12-05T00:00:00	2024-11-06T07:00:00	4	Temperatura máxima	11.9
95283	7	Sololá	702	San José Chacayá	5	Chacayá	5	Mayo	2023-12-05T00:00:00	2024-11-06T07:00:00	3	Temperatura mínima	11.3
95284	7	Sololá	702	San José Chacayá	5	Chacayá	5	Mayo	2023-12-05T00:00:00	2024-11-06T07:00:00	5	Humedad	73
95285	7	Sololá	702	San José Chacayá	5	Chacayá	5	Mayo	2023-12-05T00:00:00	2024-11-06T07:00:00	6	Velocidad del viento	1.6
95286	7	Sololá	702	San José Chacayá	5	Chacayá	5	Mayo	2023-12-05T00:00:00	2024-11-06T07:00:00	7	Dirección del viento	1.61
95287	7	Sololá	702	San José Chacayá	5	Chacayá	5	Mayo	2023-12-05T00:00:00	2024-11-06T07:00:00	1	Precipitación	0
95288	7	Sololá	702	San José Chacayá	5	Chacayá	5	Mayo	2023-12-05T00:00:00	2024-11-06T07:00:00	8	Radiación solar	7
95289	7	Sololá	702	San José Chacayá	5	Chacayá	5	Mayo	2023-12-05T00:00:00	2024-11-06T08:00:00	2	Temperatura media	13.6
95290	7	Sololá	702	San José Chacayá	5	Chacayá	5	Mayo	2023-12-05T00:00:00	2024-11-06T08:00:00	4	Temperatura máxima	13.6
95291	7	Sololá	702	San José Chacayá	5	Chacayá	5	Mayo	2023-12-05T00:00:00	2024-11-06T08:00:00	3	Temperatura mínima	11.3
95292	7	Sololá	702	San José Chacayá	5	Chacayá	5	Mayo	2023-12-05T00:00:00	2024-11-06T08:00:00	5	Humedad	70
95293	7	Sololá	702	San José Chacayá	5	Chacayá	5	Mayo	2023-12-05T00:00:00	2024-11-06T08:00:00	6	Velocidad del viento	1.6
95294	7	Sololá	702	San José Chacayá	5	Chacayá	5	Mayo	2023-12-05T00:00:00	2024-11-06T08:00:00	7	Dirección del viento	1.61
95295	7	Sololá	702	San José Chacayá	5	Chacayá	5	Mayo	2023-12-05T00:00:00	2024-11-06T08:00:00	1	Precipitación	0
95296	7	Sololá	702	San José Chacayá	5	Chacayá	5	Mayo	2023-12-05T00:00:00	2024-11-06T08:00:00	8	Radiación solar	85
95297	7	Sololá	702	San José Chacayá	5	Chacayá	5	Mayo	2023-12-05T00:00:00	2024-11-06T09:00:00	2	Temperatura media	16.4
95298	7	Sololá	702	San José Chacayá	5	Chacayá	5	Mayo	2023-12-05T00:00:00	2024-11-06T09:00:00	4	Temperatura máxima	16.4
95299	7	Sololá	702	San José Chacayá	5	Chacayá	5	Mayo	2023-12-05T00:00:00	2024-11-06T09:00:00	3	Temperatura mínima	13.6
95300	7	Sololá	702	San José Chacayá	5	Chacayá	5	Mayo	2023-12-05T00:00:00	2024-11-06T09:00:00	5	Humedad	82
95301	7	Sololá	702	San José Chacayá	5	Chacayá	5	Mayo	2023-12-05T00:00:00	2024-11-06T09:00:00	6	Velocidad del viento	0
95302	7	Sololá	702	San José Chacayá	5	Chacayá	5	Mayo	2023-12-05T00:00:00	2024-11-06T09:00:00	7	Dirección del viento	0
95303	7	Sololá	702	San José Chacayá	5	Chacayá	5	Mayo	2023-12-05T00:00:00	2024-11-06T09:00:00	1	Precipitación	0
95304	7	Sololá	702	San José Chacayá	5	Chacayá	5	Mayo	2023-12-05T00:00:00	2024-11-06T09:00:00	8	Radiación solar	186
95305	7	Sololá	702	San José Chacayá	5	Chacayá	5	Mayo	2023-12-05T00:00:00	2024-11-06T10:00:00	2	Temperatura media	17.6
95306	7	Sololá	702	San José Chacayá	5	Chacayá	5	Mayo	2023-12-05T00:00:00	2024-11-06T10:00:00	4	Temperatura máxima	17.6
95307	7	Sololá	702	San José Chacayá	5	Chacayá	5	Mayo	2023-12-05T00:00:00	2024-11-06T10:00:00	3	Temperatura mínima	16.4
95308	7	Sololá	702	San José Chacayá	5	Chacayá	5	Mayo	2023-12-05T00:00:00	2024-11-06T10:00:00	5	Humedad	81
95309	7	Sololá	702	San José Chacayá	5	Chacayá	5	Mayo	2023-12-05T00:00:00	2024-11-06T10:00:00	6	Velocidad del viento	1.6
95310	7	Sololá	702	San José Chacayá	5	Chacayá	5	Mayo	2023-12-05T00:00:00	2024-11-06T10:00:00	7	Dirección del viento	1.61
95311	7	Sololá	702	San José Chacayá	5	Chacayá	5	Mayo	2023-12-05T00:00:00	2024-11-06T10:00:00	1	Precipitación	0
95312	7	Sololá	702	San José Chacayá	5	Chacayá	5	Mayo	2023-12-05T00:00:00	2024-11-06T10:00:00	8	Radiación solar	342
95313	7	Sololá	702	San José Chacayá	5	Chacayá	5	Mayo	2023-12-05T00:00:00	2024-11-06T11:00:00	2	Temperatura media	20.3
95314	7	Sololá	702	San José Chacayá	5	Chacayá	5	Mayo	2023-12-05T00:00:00	2024-11-06T11:00:00	4	Temperatura máxima	20.3
95315	7	Sololá	702	San José Chacayá	5	Chacayá	5	Mayo	2023-12-05T00:00:00	2024-11-06T11:00:00	3	Temperatura mínima	17.6
95316	7	Sololá	702	San José Chacayá	5	Chacayá	5	Mayo	2023-12-05T00:00:00	2024-11-06T11:00:00	5	Humedad	67
95317	7	Sololá	702	San José Chacayá	5	Chacayá	5	Mayo	2023-12-05T00:00:00	2024-11-06T11:00:00	6	Velocidad del viento	4.8
95318	7	Sololá	702	San José Chacayá	5	Chacayá	5	Mayo	2023-12-05T00:00:00	2024-11-06T11:00:00	7	Dirección del viento	4.83
95319	7	Sololá	702	San José Chacayá	5	Chacayá	5	Mayo	2023-12-05T00:00:00	2024-11-06T11:00:00	1	Precipitación	0
95320	7	Sololá	702	San José Chacayá	5	Chacayá	5	Mayo	2023-12-05T00:00:00	2024-11-06T11:00:00	8	Radiación solar	799
95321	7	Sololá	702	San José Chacayá	5	Chacayá	5	Mayo	2023-12-05T00:00:00	2024-11-06T12:00:00	2	Temperatura media	21.5
95322	7	Sololá	702	San José Chacayá	5	Chacayá	5	Mayo	2023-12-05T00:00:00	2024-11-06T12:00:00	4	Temperatura máxima	21.6
95323	7	Sololá	702	San José Chacayá	5	Chacayá	5	Mayo	2023-12-05T00:00:00	2024-11-06T12:00:00	3	Temperatura mínima	20.3
95324	7	Sololá	702	San José Chacayá	5	Chacayá	5	Mayo	2023-12-05T00:00:00	2024-11-06T12:00:00	5	Humedad	65
95325	7	Sololá	702	San José Chacayá	5	Chacayá	5	Mayo	2023-12-05T00:00:00	2024-11-06T12:00:00	6	Velocidad del viento	6.4
95326	7	Sololá	702	San José Chacayá	5	Chacayá	5	Mayo	2023-12-05T00:00:00	2024-11-06T12:00:00	7	Dirección del viento	6.44
95327	7	Sololá	702	San José Chacayá	5	Chacayá	5	Mayo	2023-12-05T00:00:00	2024-11-06T12:00:00	1	Precipitación	0
95328	7	Sololá	702	San José Chacayá	5	Chacayá	5	Mayo	2023-12-05T00:00:00	2024-11-06T12:00:00	8	Radiación solar	926
95329	7	Sololá	702	San José Chacayá	5	Chacayá	5	Mayo	2023-12-05T00:00:00	2024-11-06T13:00:00	2	Temperatura media	21.5
95330	7	Sololá	702	San José Chacayá	5	Chacayá	5	Mayo	2023-12-05T00:00:00	2024-11-06T13:00:00	4	Temperatura máxima	22.2
95331	7	Sololá	702	San José Chacayá	5	Chacayá	5	Mayo	2023-12-05T00:00:00	2024-11-06T13:00:00	3	Temperatura mínima	21.3
95332	7	Sololá	702	San José Chacayá	5	Chacayá	5	Mayo	2023-12-05T00:00:00	2024-11-06T13:00:00	5	Humedad	66
95333	7	Sololá	702	San José Chacayá	5	Chacayá	5	Mayo	2023-12-05T00:00:00	2024-11-06T13:00:00	6	Velocidad del viento	6.4
95334	7	Sololá	702	San José Chacayá	5	Chacayá	5	Mayo	2023-12-05T00:00:00	2024-11-06T13:00:00	7	Dirección del viento	6.44
95335	7	Sololá	702	San José Chacayá	5	Chacayá	5	Mayo	2023-12-05T00:00:00	2024-11-06T13:00:00	1	Precipitación	0
95336	7	Sololá	702	San José Chacayá	5	Chacayá	5	Mayo	2023-12-05T00:00:00	2024-11-06T13:00:00	8	Radiación solar	1009
95337	7	Sololá	702	San José Chacayá	5	Chacayá	5	Mayo	2023-12-05T00:00:00	2024-11-06T14:00:00	2	Temperatura media	19.8
95338	7	Sololá	702	San José Chacayá	5	Chacayá	5	Mayo	2023-12-05T00:00:00	2024-11-06T14:00:00	4	Temperatura máxima	21.4
95339	7	Sololá	702	San José Chacayá	5	Chacayá	5	Mayo	2023-12-05T00:00:00	2024-11-06T14:00:00	3	Temperatura mínima	19.6
95340	7	Sololá	702	San José Chacayá	5	Chacayá	5	Mayo	2023-12-05T00:00:00	2024-11-06T14:00:00	5	Humedad	75
95341	7	Sololá	702	San José Chacayá	5	Chacayá	5	Mayo	2023-12-05T00:00:00	2024-11-06T14:00:00	6	Velocidad del viento	6.4
95342	7	Sololá	702	San José Chacayá	5	Chacayá	5	Mayo	2023-12-05T00:00:00	2024-11-06T14:00:00	7	Dirección del viento	6.44
95343	7	Sololá	702	San José Chacayá	5	Chacayá	5	Mayo	2023-12-05T00:00:00	2024-11-06T14:00:00	1	Precipitación	0
95344	7	Sololá	702	San José Chacayá	5	Chacayá	5	Mayo	2023-12-05T00:00:00	2024-11-06T14:00:00	8	Radiación solar	681
95345	7	Sololá	702	San José Chacayá	5	Chacayá	5	Mayo	2023-12-05T00:00:00	2024-11-06T15:00:00	2	Temperatura media	19.9
95346	7	Sololá	702	San José Chacayá	5	Chacayá	5	Mayo	2023-12-05T00:00:00	2024-11-06T15:00:00	4	Temperatura máxima	20.9
95347	7	Sololá	702	San José Chacayá	5	Chacayá	5	Mayo	2023-12-05T00:00:00	2024-11-06T15:00:00	3	Temperatura mínima	19.3
95348	7	Sololá	702	San José Chacayá	5	Chacayá	5	Mayo	2023-12-05T00:00:00	2024-11-06T15:00:00	5	Humedad	77
95349	7	Sololá	702	San José Chacayá	5	Chacayá	5	Mayo	2023-12-05T00:00:00	2024-11-06T15:00:00	6	Velocidad del viento	4.8
95350	7	Sololá	702	San José Chacayá	5	Chacayá	5	Mayo	2023-12-05T00:00:00	2024-11-06T15:00:00	7	Dirección del viento	4.83
95351	7	Sololá	702	San José Chacayá	5	Chacayá	5	Mayo	2023-12-05T00:00:00	2024-11-06T15:00:00	1	Precipitación	0
95352	7	Sololá	702	San José Chacayá	5	Chacayá	5	Mayo	2023-12-05T00:00:00	2024-11-06T15:00:00	8	Radiación solar	412
95353	7	Sololá	702	San José Chacayá	5	Chacayá	5	Mayo	2023-12-05T00:00:00	2024-11-06T16:00:00	2	Temperatura media	18.7
95354	7	Sololá	702	San José Chacayá	5	Chacayá	5	Mayo	2023-12-05T00:00:00	2024-11-06T16:00:00	4	Temperatura máxima	20.3
95355	7	Sololá	702	San José Chacayá	5	Chacayá	5	Mayo	2023-12-05T00:00:00	2024-11-06T16:00:00	3	Temperatura mínima	18.7
95356	7	Sololá	702	San José Chacayá	5	Chacayá	5	Mayo	2023-12-05T00:00:00	2024-11-06T16:00:00	5	Humedad	79
95357	7	Sololá	702	San José Chacayá	5	Chacayá	5	Mayo	2023-12-05T00:00:00	2024-11-06T16:00:00	6	Velocidad del viento	4.8
95358	7	Sololá	702	San José Chacayá	5	Chacayá	5	Mayo	2023-12-05T00:00:00	2024-11-06T16:00:00	7	Dirección del viento	4.83
95359	7	Sololá	702	San José Chacayá	5	Chacayá	5	Mayo	2023-12-05T00:00:00	2024-11-06T16:00:00	1	Precipitación	0
95360	7	Sololá	702	San José Chacayá	5	Chacayá	5	Mayo	2023-12-05T00:00:00	2024-11-06T16:00:00	8	Radiación solar	250
95361	7	Sololá	702	San José Chacayá	5	Chacayá	5	Mayo	2023-12-05T00:00:00	2024-11-06T17:00:00	2	Temperatura media	17.6
95362	7	Sololá	702	San José Chacayá	5	Chacayá	5	Mayo	2023-12-05T00:00:00	2024-11-06T17:00:00	4	Temperatura máxima	18.7
95363	7	Sololá	702	San José Chacayá	5	Chacayá	5	Mayo	2023-12-05T00:00:00	2024-11-06T17:00:00	3	Temperatura mínima	17.6
95364	7	Sololá	702	San José Chacayá	5	Chacayá	5	Mayo	2023-12-05T00:00:00	2024-11-06T17:00:00	5	Humedad	80
95365	7	Sololá	702	San José Chacayá	5	Chacayá	5	Mayo	2023-12-05T00:00:00	2024-11-06T17:00:00	6	Velocidad del viento	1.6
95366	7	Sololá	702	San José Chacayá	5	Chacayá	5	Mayo	2023-12-05T00:00:00	2024-11-06T17:00:00	7	Dirección del viento	1.61
95367	7	Sololá	702	San José Chacayá	5	Chacayá	5	Mayo	2023-12-05T00:00:00	2024-11-06T17:00:00	1	Precipitación	0
95368	7	Sololá	702	San José Chacayá	5	Chacayá	5	Mayo	2023-12-05T00:00:00	2024-11-06T17:00:00	8	Radiación solar	67
95369	7	Sololá	702	San José Chacayá	5	Chacayá	5	Mayo	2023-12-05T00:00:00	2024-11-06T18:00:00	2	Temperatura media	16.6
95370	7	Sololá	702	San José Chacayá	5	Chacayá	5	Mayo	2023-12-05T00:00:00	2024-11-06T18:00:00	4	Temperatura máxima	17.6
95371	7	Sololá	702	San José Chacayá	5	Chacayá	5	Mayo	2023-12-05T00:00:00	2024-11-06T18:00:00	3	Temperatura mínima	16.6
95372	7	Sololá	702	San José Chacayá	5	Chacayá	5	Mayo	2023-12-05T00:00:00	2024-11-06T18:00:00	5	Humedad	74
95373	7	Sololá	702	San José Chacayá	5	Chacayá	5	Mayo	2023-12-05T00:00:00	2024-11-06T18:00:00	6	Velocidad del viento	3.2
95374	7	Sololá	702	San José Chacayá	5	Chacayá	5	Mayo	2023-12-05T00:00:00	2024-11-06T18:00:00	7	Dirección del viento	3.22
95375	7	Sololá	702	San José Chacayá	5	Chacayá	5	Mayo	2023-12-05T00:00:00	2024-11-06T18:00:00	1	Precipitación	0
95376	7	Sololá	702	San José Chacayá	5	Chacayá	5	Mayo	2023-12-05T00:00:00	2024-11-06T18:00:00	8	Radiación solar	33
95377	7	Sololá	702	San José Chacayá	5	Chacayá	5	Mayo	2023-12-05T00:00:00	2024-11-06T19:00:00	2	Temperatura media	16.2
95378	7	Sololá	702	San José Chacayá	5	Chacayá	5	Mayo	2023-12-05T00:00:00	2024-11-06T19:00:00	4	Temperatura máxima	16.6
95379	7	Sololá	702	San José Chacayá	5	Chacayá	5	Mayo	2023-12-05T00:00:00	2024-11-06T19:00:00	3	Temperatura mínima	16.2
95380	7	Sololá	702	San José Chacayá	5	Chacayá	5	Mayo	2023-12-05T00:00:00	2024-11-06T19:00:00	5	Humedad	70
95381	7	Sololá	702	San José Chacayá	5	Chacayá	5	Mayo	2023-12-05T00:00:00	2024-11-06T19:00:00	6	Velocidad del viento	1.6
95382	7	Sololá	702	San José Chacayá	5	Chacayá	5	Mayo	2023-12-05T00:00:00	2024-11-06T19:00:00	7	Dirección del viento	1.61
95383	7	Sololá	702	San José Chacayá	5	Chacayá	5	Mayo	2023-12-05T00:00:00	2024-11-06T19:00:00	1	Precipitación	0
95384	7	Sololá	702	San José Chacayá	5	Chacayá	5	Mayo	2023-12-05T00:00:00	2024-11-06T19:00:00	8	Radiación solar	0
95385	7	Sololá	702	San José Chacayá	5	Chacayá	5	Mayo	2023-12-05T00:00:00	2024-11-06T20:00:00	2	Temperatura media	16.1
95386	7	Sololá	702	San José Chacayá	5	Chacayá	5	Mayo	2023-12-05T00:00:00	2024-11-06T20:00:00	4	Temperatura máxima	16.3
95387	7	Sololá	702	San José Chacayá	5	Chacayá	5	Mayo	2023-12-05T00:00:00	2024-11-06T20:00:00	3	Temperatura mínima	16.1
95388	7	Sololá	702	San José Chacayá	5	Chacayá	5	Mayo	2023-12-05T00:00:00	2024-11-06T20:00:00	5	Humedad	64
95389	7	Sololá	702	San José Chacayá	5	Chacayá	5	Mayo	2023-12-05T00:00:00	2024-11-06T20:00:00	6	Velocidad del viento	0
95390	7	Sololá	702	San José Chacayá	5	Chacayá	5	Mayo	2023-12-05T00:00:00	2024-11-06T20:00:00	7	Dirección del viento	0
95391	7	Sololá	702	San José Chacayá	5	Chacayá	5	Mayo	2023-12-05T00:00:00	2024-11-06T20:00:00	1	Precipitación	0.2
95392	7	Sololá	702	San José Chacayá	5	Chacayá	5	Mayo	2023-12-05T00:00:00	2024-11-06T20:00:00	8	Radiación solar	0
95393	7	Sololá	702	San José Chacayá	5	Chacayá	5	Mayo	2023-12-05T00:00:00	2024-11-06T21:00:00	2	Temperatura media	15.9
95394	7	Sololá	702	San José Chacayá	5	Chacayá	5	Mayo	2023-12-05T00:00:00	2024-11-06T21:00:00	4	Temperatura máxima	16.2
95395	7	Sololá	702	San José Chacayá	5	Chacayá	5	Mayo	2023-12-05T00:00:00	2024-11-06T21:00:00	3	Temperatura mínima	15.9
95396	7	Sololá	702	San José Chacayá	5	Chacayá	5	Mayo	2023-12-05T00:00:00	2024-11-06T21:00:00	5	Humedad	63
95397	7	Sololá	702	San José Chacayá	5	Chacayá	5	Mayo	2023-12-05T00:00:00	2024-11-06T21:00:00	6	Velocidad del viento	0
95398	7	Sololá	702	San José Chacayá	5	Chacayá	5	Mayo	2023-12-05T00:00:00	2024-11-06T21:00:00	7	Dirección del viento	0
95399	7	Sololá	702	San José Chacayá	5	Chacayá	5	Mayo	2023-12-05T00:00:00	2024-11-06T21:00:00	1	Precipitación	0
95400	7	Sololá	702	San José Chacayá	5	Chacayá	5	Mayo	2023-12-05T00:00:00	2024-11-06T21:00:00	8	Radiación solar	0
95401	7	Sololá	702	San José Chacayá	5	Chacayá	5	Mayo	2023-12-05T00:00:00	2024-11-06T22:00:00	2	Temperatura media	15.4
95402	7	Sololá	702	San José Chacayá	5	Chacayá	5	Mayo	2023-12-05T00:00:00	2024-11-06T22:00:00	4	Temperatura máxima	16
95403	7	Sololá	702	San José Chacayá	5	Chacayá	5	Mayo	2023-12-05T00:00:00	2024-11-06T22:00:00	3	Temperatura mínima	15.4
95404	7	Sololá	702	San José Chacayá	5	Chacayá	5	Mayo	2023-12-05T00:00:00	2024-11-06T22:00:00	5	Humedad	66
95405	7	Sololá	702	San José Chacayá	5	Chacayá	5	Mayo	2023-12-05T00:00:00	2024-11-06T22:00:00	6	Velocidad del viento	0
95406	7	Sololá	702	San José Chacayá	5	Chacayá	5	Mayo	2023-12-05T00:00:00	2024-11-06T22:00:00	7	Dirección del viento	0
95407	7	Sololá	702	San José Chacayá	5	Chacayá	5	Mayo	2023-12-05T00:00:00	2024-11-06T22:00:00	1	Precipitación	0
95408	7	Sololá	702	San José Chacayá	5	Chacayá	5	Mayo	2023-12-05T00:00:00	2024-11-06T22:00:00	8	Radiación solar	0
95409	7	Sololá	702	San José Chacayá	5	Chacayá	5	Mayo	2023-12-05T00:00:00	2024-11-06T23:00:00	2	Temperatura media	14.1
95410	7	Sololá	702	San José Chacayá	5	Chacayá	5	Mayo	2023-12-05T00:00:00	2024-11-06T23:00:00	4	Temperatura máxima	15.4
95411	7	Sololá	702	San José Chacayá	5	Chacayá	5	Mayo	2023-12-05T00:00:00	2024-11-06T23:00:00	3	Temperatura mínima	14.1
95412	7	Sololá	702	San José Chacayá	5	Chacayá	5	Mayo	2023-12-05T00:00:00	2024-11-06T23:00:00	5	Humedad	68
95413	7	Sololá	702	San José Chacayá	5	Chacayá	5	Mayo	2023-12-05T00:00:00	2024-11-06T23:00:00	6	Velocidad del viento	1.6
95414	7	Sololá	702	San José Chacayá	5	Chacayá	5	Mayo	2023-12-05T00:00:00	2024-11-06T23:00:00	7	Dirección del viento	1.61
95415	7	Sololá	702	San José Chacayá	5	Chacayá	5	Mayo	2023-12-05T00:00:00	2024-11-06T23:00:00	1	Precipitación	0
95416	7	Sololá	702	San José Chacayá	5	Chacayá	5	Mayo	2023-12-05T00:00:00	2024-11-06T23:00:00	8	Radiación solar	0
95417	7	Sololá	702	San José Chacayá	5	Chacayá	5	Mayo	2023-05-13T00:00:00	2024-11-06T00:00:00	2	Temperatura media	13.5
95418	7	Sololá	702	San José Chacayá	5	Chacayá	5	Mayo	2023-05-13T00:00:00	2024-11-06T00:00:00	4	Temperatura máxima	14.1
95419	7	Sololá	702	San José Chacayá	5	Chacayá	5	Mayo	2023-05-13T00:00:00	2024-11-06T00:00:00	3	Temperatura mínima	13.4
95420	7	Sololá	702	San José Chacayá	5	Chacayá	5	Mayo	2023-05-13T00:00:00	2024-11-06T00:00:00	5	Humedad	68
95421	7	Sololá	702	San José Chacayá	5	Chacayá	5	Mayo	2023-05-13T00:00:00	2024-11-06T00:00:00	6	Velocidad del viento	1.6
95422	7	Sololá	702	San José Chacayá	5	Chacayá	5	Mayo	2023-05-13T00:00:00	2024-11-06T00:00:00	7	Dirección del viento	1.61
95423	7	Sololá	702	San José Chacayá	5	Chacayá	5	Mayo	2023-05-13T00:00:00	2024-11-06T00:00:00	1	Precipitación	0
95424	7	Sololá	702	San José Chacayá	5	Chacayá	5	Mayo	2023-05-13T00:00:00	2024-11-06T00:00:00	8	Radiación solar	0
95425	7	Sololá	702	San José Chacayá	5	Chacayá	5	Mayo	2023-05-13T00:00:00	2024-11-06T01:00:00	2	Temperatura media	13.3
95426	7	Sololá	702	San José Chacayá	5	Chacayá	5	Mayo	2023-05-13T00:00:00	2024-11-06T01:00:00	4	Temperatura máxima	13.6
95427	7	Sololá	702	San José Chacayá	5	Chacayá	5	Mayo	2023-05-13T00:00:00	2024-11-06T01:00:00	3	Temperatura mínima	13.3
95428	7	Sololá	702	San José Chacayá	5	Chacayá	5	Mayo	2023-05-13T00:00:00	2024-11-06T01:00:00	5	Humedad	66
95429	7	Sololá	702	San José Chacayá	5	Chacayá	5	Mayo	2023-05-13T00:00:00	2024-11-06T01:00:00	6	Velocidad del viento	0
95430	7	Sololá	702	San José Chacayá	5	Chacayá	5	Mayo	2023-05-13T00:00:00	2024-11-06T01:00:00	7	Dirección del viento	0
95431	7	Sololá	702	San José Chacayá	5	Chacayá	5	Mayo	2023-05-13T00:00:00	2024-11-06T01:00:00	1	Precipitación	0
95432	7	Sololá	702	San José Chacayá	5	Chacayá	5	Mayo	2023-05-13T00:00:00	2024-11-06T01:00:00	8	Radiación solar	0
95433	7	Sololá	702	San José Chacayá	5	Chacayá	5	Mayo	2023-05-13T00:00:00	2024-11-06T02:00:00	2	Temperatura media	13.6
95434	7	Sololá	702	San José Chacayá	5	Chacayá	5	Mayo	2023-05-13T00:00:00	2024-11-06T02:00:00	4	Temperatura máxima	13.7
95435	7	Sololá	702	San José Chacayá	5	Chacayá	5	Mayo	2023-05-13T00:00:00	2024-11-06T02:00:00	3	Temperatura mínima	13.3
95436	7	Sololá	702	San José Chacayá	5	Chacayá	5	Mayo	2023-05-13T00:00:00	2024-11-06T02:00:00	5	Humedad	64
95437	7	Sololá	702	San José Chacayá	5	Chacayá	5	Mayo	2023-05-13T00:00:00	2024-11-06T02:00:00	6	Velocidad del viento	0
95438	7	Sololá	702	San José Chacayá	5	Chacayá	5	Mayo	2023-05-13T00:00:00	2024-11-06T02:00:00	7	Dirección del viento	0
95439	7	Sololá	702	San José Chacayá	5	Chacayá	5	Mayo	2023-05-13T00:00:00	2024-11-06T02:00:00	1	Precipitación	0
95440	7	Sololá	702	San José Chacayá	5	Chacayá	5	Mayo	2023-05-13T00:00:00	2024-11-06T02:00:00	8	Radiación solar	0
95441	7	Sololá	702	San José Chacayá	5	Chacayá	5	Mayo	2023-05-13T00:00:00	2024-11-06T03:00:00	2	Temperatura media	13.7
95442	7	Sololá	702	San José Chacayá	5	Chacayá	5	Mayo	2023-05-13T00:00:00	2024-11-06T03:00:00	4	Temperatura máxima	13.7
95443	7	Sololá	702	San José Chacayá	5	Chacayá	5	Mayo	2023-05-13T00:00:00	2024-11-06T03:00:00	3	Temperatura mínima	13.6
95444	7	Sololá	702	San José Chacayá	5	Chacayá	5	Mayo	2023-05-13T00:00:00	2024-11-06T03:00:00	5	Humedad	70
95445	7	Sololá	702	San José Chacayá	5	Chacayá	5	Mayo	2023-05-13T00:00:00	2024-11-06T03:00:00	6	Velocidad del viento	0
95446	7	Sololá	702	San José Chacayá	5	Chacayá	5	Mayo	2023-05-13T00:00:00	2024-11-06T03:00:00	7	Dirección del viento	0
95447	7	Sololá	702	San José Chacayá	5	Chacayá	5	Mayo	2023-05-13T00:00:00	2024-11-06T03:00:00	1	Precipitación	0
95448	7	Sololá	702	San José Chacayá	5	Chacayá	5	Mayo	2023-05-13T00:00:00	2024-11-06T03:00:00	8	Radiación solar	0
95449	7	Sololá	702	San José Chacayá	5	Chacayá	5	Mayo	2023-05-13T00:00:00	2024-11-06T04:00:00	2	Temperatura media	12.9
95450	7	Sololá	702	San José Chacayá	5	Chacayá	5	Mayo	2023-05-13T00:00:00	2024-11-06T04:00:00	4	Temperatura máxima	13.7
95451	7	Sololá	702	San José Chacayá	5	Chacayá	5	Mayo	2023-05-13T00:00:00	2024-11-06T04:00:00	3	Temperatura mínima	12.9
95452	7	Sololá	702	San José Chacayá	5	Chacayá	5	Mayo	2023-05-13T00:00:00	2024-11-06T04:00:00	5	Humedad	76
95453	7	Sololá	702	San José Chacayá	5	Chacayá	5	Mayo	2023-05-13T00:00:00	2024-11-06T04:00:00	6	Velocidad del viento	1.6
95454	7	Sololá	702	San José Chacayá	5	Chacayá	5	Mayo	2023-05-13T00:00:00	2024-11-06T04:00:00	7	Dirección del viento	1.61
95455	7	Sololá	702	San José Chacayá	5	Chacayá	5	Mayo	2023-05-13T00:00:00	2024-11-06T04:00:00	1	Precipitación	0
95456	7	Sololá	702	San José Chacayá	5	Chacayá	5	Mayo	2023-05-13T00:00:00	2024-11-06T04:00:00	8	Radiación solar	0
95457	7	Sololá	702	San José Chacayá	5	Chacayá	5	Mayo	2023-05-13T00:00:00	2024-11-06T05:00:00	2	Temperatura media	12.2
95458	7	Sololá	702	San José Chacayá	5	Chacayá	5	Mayo	2023-05-13T00:00:00	2024-11-06T05:00:00	4	Temperatura máxima	12.9
95459	7	Sololá	702	San José Chacayá	5	Chacayá	5	Mayo	2023-05-13T00:00:00	2024-11-06T05:00:00	3	Temperatura mínima	12.2
95460	7	Sololá	702	San José Chacayá	5	Chacayá	5	Mayo	2023-05-13T00:00:00	2024-11-06T05:00:00	5	Humedad	70
95461	7	Sololá	702	San José Chacayá	5	Chacayá	5	Mayo	2023-05-13T00:00:00	2024-11-06T05:00:00	6	Velocidad del viento	1.6
95462	7	Sololá	702	San José Chacayá	5	Chacayá	5	Mayo	2023-05-13T00:00:00	2024-11-06T05:00:00	7	Dirección del viento	1.61
95463	7	Sololá	702	San José Chacayá	5	Chacayá	5	Mayo	2023-05-13T00:00:00	2024-11-06T05:00:00	1	Precipitación	0
95464	7	Sololá	702	San José Chacayá	5	Chacayá	5	Mayo	2023-05-13T00:00:00	2024-11-06T05:00:00	8	Radiación solar	0
95465	7	Sololá	702	San José Chacayá	5	Chacayá	5	Mayo	2023-05-13T00:00:00	2024-11-06T06:00:00	2	Temperatura media	11.6
95466	7	Sololá	702	San José Chacayá	5	Chacayá	5	Mayo	2023-05-13T00:00:00	2024-11-06T06:00:00	4	Temperatura máxima	12.3
95467	7	Sololá	702	San José Chacayá	5	Chacayá	5	Mayo	2023-05-13T00:00:00	2024-11-06T06:00:00	3	Temperatura mínima	11.6
95468	7	Sololá	702	San José Chacayá	5	Chacayá	5	Mayo	2023-05-13T00:00:00	2024-11-06T06:00:00	5	Humedad	70
95469	7	Sololá	702	San José Chacayá	5	Chacayá	5	Mayo	2023-05-13T00:00:00	2024-11-06T06:00:00	6	Velocidad del viento	1.6
95470	7	Sololá	702	San José Chacayá	5	Chacayá	5	Mayo	2023-05-13T00:00:00	2024-11-06T06:00:00	7	Dirección del viento	1.61
95471	7	Sololá	702	San José Chacayá	5	Chacayá	5	Mayo	2023-05-13T00:00:00	2024-11-06T06:00:00	1	Precipitación	0
95472	7	Sololá	702	San José Chacayá	5	Chacayá	5	Mayo	2023-05-13T00:00:00	2024-11-06T06:00:00	8	Radiación solar	0
95473	7	Sololá	702	San José Chacayá	5	Chacayá	5	Mayo	2023-05-13T00:00:00	2024-11-06T07:00:00	2	Temperatura media	11.1
95474	7	Sololá	702	San José Chacayá	5	Chacayá	5	Mayo	2023-05-13T00:00:00	2024-11-06T07:00:00	4	Temperatura máxima	11.6
95475	7	Sololá	702	San José Chacayá	5	Chacayá	5	Mayo	2023-05-13T00:00:00	2024-11-06T07:00:00	3	Temperatura mínima	11
95476	7	Sololá	702	San José Chacayá	5	Chacayá	5	Mayo	2023-05-13T00:00:00	2024-11-06T07:00:00	5	Humedad	68
95477	7	Sololá	702	San José Chacayá	5	Chacayá	5	Mayo	2023-05-13T00:00:00	2024-11-06T07:00:00	6	Velocidad del viento	1.6
95478	7	Sololá	702	San José Chacayá	5	Chacayá	5	Mayo	2023-05-13T00:00:00	2024-11-06T07:00:00	7	Dirección del viento	1.61
95479	7	Sololá	702	San José Chacayá	5	Chacayá	5	Mayo	2023-05-13T00:00:00	2024-11-06T07:00:00	1	Precipitación	0
95480	7	Sololá	702	San José Chacayá	5	Chacayá	5	Mayo	2023-05-13T00:00:00	2024-11-06T07:00:00	8	Radiación solar	5
95481	7	Sololá	702	San José Chacayá	5	Chacayá	5	Mayo	2023-05-13T00:00:00	2024-11-06T08:00:00	2	Temperatura media	13.2
95482	7	Sololá	702	San José Chacayá	5	Chacayá	5	Mayo	2023-05-13T00:00:00	2024-11-06T08:00:00	4	Temperatura máxima	13.2
95483	7	Sololá	702	San José Chacayá	5	Chacayá	5	Mayo	2023-05-13T00:00:00	2024-11-06T08:00:00	3	Temperatura mínima	11
95484	7	Sololá	702	San José Chacayá	5	Chacayá	5	Mayo	2023-05-13T00:00:00	2024-11-06T08:00:00	5	Humedad	58
95485	7	Sololá	702	San José Chacayá	5	Chacayá	5	Mayo	2023-05-13T00:00:00	2024-11-06T08:00:00	6	Velocidad del viento	0
95486	7	Sololá	702	San José Chacayá	5	Chacayá	5	Mayo	2023-05-13T00:00:00	2024-11-06T08:00:00	7	Dirección del viento	0
95487	7	Sololá	702	San José Chacayá	5	Chacayá	5	Mayo	2023-05-13T00:00:00	2024-11-06T08:00:00	1	Precipitación	0
95488	7	Sololá	702	San José Chacayá	5	Chacayá	5	Mayo	2023-05-13T00:00:00	2024-11-06T08:00:00	8	Radiación solar	50
95489	7	Sololá	702	San José Chacayá	5	Chacayá	5	Mayo	2023-05-13T00:00:00	2024-11-06T09:00:00	2	Temperatura media	16.6
95490	7	Sololá	702	San José Chacayá	5	Chacayá	5	Mayo	2023-05-13T00:00:00	2024-11-06T09:00:00	4	Temperatura máxima	16.6
95491	7	Sololá	702	San José Chacayá	5	Chacayá	5	Mayo	2023-05-13T00:00:00	2024-11-06T09:00:00	3	Temperatura mínima	13.2
95492	7	Sololá	702	San José Chacayá	5	Chacayá	5	Mayo	2023-05-13T00:00:00	2024-11-06T09:00:00	5	Humedad	80
95493	7	Sololá	702	San José Chacayá	5	Chacayá	5	Mayo	2023-05-13T00:00:00	2024-11-06T09:00:00	6	Velocidad del viento	0
95494	7	Sololá	702	San José Chacayá	5	Chacayá	5	Mayo	2023-05-13T00:00:00	2024-11-06T09:00:00	7	Dirección del viento	0
95495	7	Sololá	702	San José Chacayá	5	Chacayá	5	Mayo	2023-05-13T00:00:00	2024-11-06T09:00:00	1	Precipitación	0
95496	7	Sololá	702	San José Chacayá	5	Chacayá	5	Mayo	2023-05-13T00:00:00	2024-11-06T09:00:00	8	Radiación solar	94
95497	7	Sololá	702	San José Chacayá	5	Chacayá	5	Mayo	2023-05-13T00:00:00	2024-11-06T10:00:00	2	Temperatura media	19.9
95498	7	Sololá	702	San José Chacayá	5	Chacayá	5	Mayo	2023-05-13T00:00:00	2024-11-06T10:00:00	4	Temperatura máxima	19.9
95499	7	Sololá	702	San José Chacayá	5	Chacayá	5	Mayo	2023-05-13T00:00:00	2024-11-06T10:00:00	3	Temperatura mínima	16.6
95500	7	Sololá	702	San José Chacayá	5	Chacayá	5	Mayo	2023-05-13T00:00:00	2024-11-06T10:00:00	5	Humedad	76
95501	7	Sololá	702	San José Chacayá	5	Chacayá	5	Mayo	2023-05-13T00:00:00	2024-11-06T10:00:00	6	Velocidad del viento	3.2
95502	7	Sololá	702	San José Chacayá	5	Chacayá	5	Mayo	2023-05-13T00:00:00	2024-11-06T10:00:00	7	Dirección del viento	3.22
95503	7	Sololá	702	San José Chacayá	5	Chacayá	5	Mayo	2023-05-13T00:00:00	2024-11-06T10:00:00	1	Precipitación	0
95504	7	Sololá	702	San José Chacayá	5	Chacayá	5	Mayo	2023-05-13T00:00:00	2024-11-06T10:00:00	8	Radiación solar	521
95505	7	Sololá	702	San José Chacayá	5	Chacayá	5	Mayo	2023-05-13T00:00:00	2024-11-06T11:00:00	2	Temperatura media	20.2
95506	7	Sololá	702	San José Chacayá	5	Chacayá	5	Mayo	2023-05-13T00:00:00	2024-11-06T11:00:00	4	Temperatura máxima	20.4
95507	7	Sololá	702	San José Chacayá	5	Chacayá	5	Mayo	2023-05-13T00:00:00	2024-11-06T11:00:00	3	Temperatura mínima	19.6
95508	7	Sololá	702	San José Chacayá	5	Chacayá	5	Mayo	2023-05-13T00:00:00	2024-11-06T11:00:00	5	Humedad	71
95509	7	Sololá	702	San José Chacayá	5	Chacayá	5	Mayo	2023-05-13T00:00:00	2024-11-06T11:00:00	6	Velocidad del viento	6.4
95510	7	Sololá	702	San José Chacayá	5	Chacayá	5	Mayo	2023-05-13T00:00:00	2024-11-06T11:00:00	7	Dirección del viento	6.44
95511	7	Sololá	702	San José Chacayá	5	Chacayá	5	Mayo	2023-05-13T00:00:00	2024-11-06T11:00:00	1	Precipitación	0
95512	7	Sololá	702	San José Chacayá	5	Chacayá	5	Mayo	2023-05-13T00:00:00	2024-11-06T11:00:00	8	Radiación solar	810
95513	7	Sololá	702	San José Chacayá	5	Chacayá	5	Mayo	2023-05-13T00:00:00	2024-11-06T12:00:00	2	Temperatura media	19.7
95514	7	Sololá	702	San José Chacayá	5	Chacayá	5	Mayo	2023-05-13T00:00:00	2024-11-06T12:00:00	4	Temperatura máxima	20.3
95515	7	Sololá	702	San José Chacayá	5	Chacayá	5	Mayo	2023-05-13T00:00:00	2024-11-06T12:00:00	3	Temperatura mínima	19.3
95516	7	Sololá	702	San José Chacayá	5	Chacayá	5	Mayo	2023-05-13T00:00:00	2024-11-06T12:00:00	5	Humedad	76
95517	7	Sololá	702	San José Chacayá	5	Chacayá	5	Mayo	2023-05-13T00:00:00	2024-11-06T12:00:00	6	Velocidad del viento	9.7
95518	7	Sololá	702	San José Chacayá	5	Chacayá	5	Mayo	2023-05-13T00:00:00	2024-11-06T12:00:00	7	Dirección del viento	9.66
95519	7	Sololá	702	San José Chacayá	5	Chacayá	5	Mayo	2023-05-13T00:00:00	2024-11-06T12:00:00	1	Precipitación	0.2
95520	7	Sololá	702	San José Chacayá	5	Chacayá	5	Mayo	2023-05-13T00:00:00	2024-11-06T12:00:00	8	Radiación solar	889
95521	7	Sololá	702	San José Chacayá	5	Chacayá	5	Mayo	2023-05-13T00:00:00	2024-11-06T13:00:00	2	Temperatura media	18.9
95522	7	Sololá	702	San José Chacayá	5	Chacayá	5	Mayo	2023-05-13T00:00:00	2024-11-06T13:00:00	4	Temperatura máxima	20.4
95523	7	Sololá	702	San José Chacayá	5	Chacayá	5	Mayo	2023-05-13T00:00:00	2024-11-06T13:00:00	3	Temperatura mínima	18.7
95524	7	Sololá	702	San José Chacayá	5	Chacayá	5	Mayo	2023-05-13T00:00:00	2024-11-06T13:00:00	5	Humedad	77
95525	7	Sololá	702	San José Chacayá	5	Chacayá	5	Mayo	2023-05-13T00:00:00	2024-11-06T13:00:00	6	Velocidad del viento	6.4
95526	7	Sololá	702	San José Chacayá	5	Chacayá	5	Mayo	2023-05-13T00:00:00	2024-11-06T13:00:00	7	Dirección del viento	6.44
95527	7	Sololá	702	San José Chacayá	5	Chacayá	5	Mayo	2023-05-13T00:00:00	2024-11-06T13:00:00	1	Precipitación	0
95528	7	Sololá	702	San José Chacayá	5	Chacayá	5	Mayo	2023-05-13T00:00:00	2024-11-06T13:00:00	8	Radiación solar	443
95529	7	Sololá	702	San José Chacayá	5	Chacayá	5	Mayo	2023-05-13T00:00:00	2024-11-06T14:00:00	2	Temperatura media	18.1
95530	7	Sololá	702	San José Chacayá	5	Chacayá	5	Mayo	2023-05-13T00:00:00	2024-11-06T14:00:00	4	Temperatura máxima	19.5
95531	7	Sololá	702	San José Chacayá	5	Chacayá	5	Mayo	2023-05-13T00:00:00	2024-11-06T14:00:00	3	Temperatura mínima	18.1
95532	7	Sololá	702	San José Chacayá	5	Chacayá	5	Mayo	2023-05-13T00:00:00	2024-11-06T14:00:00	5	Humedad	81
95533	7	Sololá	702	San José Chacayá	5	Chacayá	5	Mayo	2023-05-13T00:00:00	2024-11-06T14:00:00	6	Velocidad del viento	8
95534	7	Sololá	702	San José Chacayá	5	Chacayá	5	Mayo	2023-05-13T00:00:00	2024-11-06T14:00:00	7	Dirección del viento	8.05
95535	7	Sololá	702	San José Chacayá	5	Chacayá	5	Mayo	2023-05-13T00:00:00	2024-11-06T14:00:00	1	Precipitación	0
95536	7	Sololá	702	San José Chacayá	5	Chacayá	5	Mayo	2023-05-13T00:00:00	2024-11-06T14:00:00	8	Radiación solar	409
95537	7	Sololá	702	San José Chacayá	5	Chacayá	5	Mayo	2023-05-13T00:00:00	2024-11-06T15:00:00	2	Temperatura media	17.4
95538	7	Sololá	702	San José Chacayá	5	Chacayá	5	Mayo	2023-05-13T00:00:00	2024-11-06T15:00:00	4	Temperatura máxima	18.1
95539	7	Sololá	702	San José Chacayá	5	Chacayá	5	Mayo	2023-05-13T00:00:00	2024-11-06T15:00:00	3	Temperatura mínima	17.3
95540	7	Sololá	702	San José Chacayá	5	Chacayá	5	Mayo	2023-05-13T00:00:00	2024-11-06T15:00:00	5	Humedad	82
95541	7	Sololá	702	San José Chacayá	5	Chacayá	5	Mayo	2023-05-13T00:00:00	2024-11-06T15:00:00	6	Velocidad del viento	4.8
95542	7	Sololá	702	San José Chacayá	5	Chacayá	5	Mayo	2023-05-13T00:00:00	2024-11-06T15:00:00	7	Dirección del viento	4.83
95543	7	Sololá	702	San José Chacayá	5	Chacayá	5	Mayo	2023-05-13T00:00:00	2024-11-06T15:00:00	1	Precipitación	0
95544	7	Sololá	702	San José Chacayá	5	Chacayá	5	Mayo	2023-05-13T00:00:00	2024-11-06T15:00:00	8	Radiación solar	196
95545	7	Sololá	702	San José Chacayá	5	Chacayá	5	Mayo	2023-05-13T00:00:00	2024-11-06T16:00:00	2	Temperatura media	17.3
95546	7	Sololá	702	San José Chacayá	5	Chacayá	5	Mayo	2023-05-13T00:00:00	2024-11-06T16:00:00	4	Temperatura máxima	17.7
95547	7	Sololá	702	San José Chacayá	5	Chacayá	5	Mayo	2023-05-13T00:00:00	2024-11-06T16:00:00	3	Temperatura mínima	17.3
95548	7	Sololá	702	San José Chacayá	5	Chacayá	5	Mayo	2023-05-13T00:00:00	2024-11-06T16:00:00	5	Humedad	82
95549	7	Sololá	702	San José Chacayá	5	Chacayá	5	Mayo	2023-05-13T00:00:00	2024-11-06T16:00:00	6	Velocidad del viento	3.2
95550	7	Sololá	702	San José Chacayá	5	Chacayá	5	Mayo	2023-05-13T00:00:00	2024-11-06T16:00:00	7	Dirección del viento	3.22
95551	7	Sololá	702	San José Chacayá	5	Chacayá	5	Mayo	2023-05-13T00:00:00	2024-11-06T16:00:00	1	Precipitación	0
95552	7	Sololá	702	San José Chacayá	5	Chacayá	5	Mayo	2023-05-13T00:00:00	2024-11-06T16:00:00	8	Radiación solar	162
95553	7	Sololá	702	San José Chacayá	5	Chacayá	5	Mayo	2023-05-13T00:00:00	2024-11-06T17:00:00	2	Temperatura media	15.2
95554	7	Sololá	702	San José Chacayá	5	Chacayá	5	Mayo	2023-05-13T00:00:00	2024-11-06T17:00:00	4	Temperatura máxima	17.3
95555	7	Sololá	702	San José Chacayá	5	Chacayá	5	Mayo	2023-05-13T00:00:00	2024-11-06T17:00:00	3	Temperatura mínima	15.2
95556	7	Sololá	702	San José Chacayá	5	Chacayá	5	Mayo	2023-05-13T00:00:00	2024-11-06T17:00:00	5	Humedad	81
95557	7	Sololá	702	San José Chacayá	5	Chacayá	5	Mayo	2023-05-13T00:00:00	2024-11-06T17:00:00	6	Velocidad del viento	6.4
95558	7	Sololá	702	San José Chacayá	5	Chacayá	5	Mayo	2023-05-13T00:00:00	2024-11-06T17:00:00	7	Dirección del viento	6.44
95559	7	Sololá	702	San José Chacayá	5	Chacayá	5	Mayo	2023-05-13T00:00:00	2024-11-06T17:00:00	1	Precipitación	5.4
95560	7	Sololá	702	San José Chacayá	5	Chacayá	5	Mayo	2023-05-13T00:00:00	2024-11-06T17:00:00	8	Radiación solar	38
95561	7	Sololá	702	San José Chacayá	5	Chacayá	5	Mayo	2023-05-13T00:00:00	2024-11-06T18:00:00	2	Temperatura media	14.3
95562	7	Sololá	702	San José Chacayá	5	Chacayá	5	Mayo	2023-05-13T00:00:00	2024-11-06T18:00:00	4	Temperatura máxima	15.1
95563	7	Sololá	702	San José Chacayá	5	Chacayá	5	Mayo	2023-05-13T00:00:00	2024-11-06T18:00:00	3	Temperatura mínima	14.1
95564	7	Sololá	702	San José Chacayá	5	Chacayá	5	Mayo	2023-05-13T00:00:00	2024-11-06T18:00:00	5	Humedad	66
95565	7	Sololá	702	San José Chacayá	5	Chacayá	5	Mayo	2023-05-13T00:00:00	2024-11-06T18:00:00	6	Velocidad del viento	1.6
95566	7	Sololá	702	San José Chacayá	5	Chacayá	5	Mayo	2023-05-13T00:00:00	2024-11-06T18:00:00	7	Dirección del viento	1.61
95567	7	Sololá	702	San José Chacayá	5	Chacayá	5	Mayo	2023-05-13T00:00:00	2024-11-06T18:00:00	1	Precipitación	8.6
95568	7	Sololá	702	San José Chacayá	5	Chacayá	5	Mayo	2023-05-13T00:00:00	2024-11-06T18:00:00	8	Radiación solar	66
95569	7	Sololá	702	San José Chacayá	5	Chacayá	5	Mayo	2023-05-13T00:00:00	2024-11-06T19:00:00	2	Temperatura media	14.3
95570	7	Sololá	702	San José Chacayá	5	Chacayá	5	Mayo	2023-05-13T00:00:00	2024-11-06T19:00:00	4	Temperatura máxima	14.4
95571	7	Sololá	702	San José Chacayá	5	Chacayá	5	Mayo	2023-05-13T00:00:00	2024-11-06T19:00:00	3	Temperatura mínima	14.3
95572	7	Sololá	702	San José Chacayá	5	Chacayá	5	Mayo	2023-05-13T00:00:00	2024-11-06T19:00:00	5	Humedad	63
95573	7	Sololá	702	San José Chacayá	5	Chacayá	5	Mayo	2023-05-13T00:00:00	2024-11-06T19:00:00	6	Velocidad del viento	1.6
95574	7	Sololá	702	San José Chacayá	5	Chacayá	5	Mayo	2023-05-13T00:00:00	2024-11-06T19:00:00	7	Dirección del viento	1.61
95575	7	Sololá	702	San José Chacayá	5	Chacayá	5	Mayo	2023-05-13T00:00:00	2024-11-06T19:00:00	1	Precipitación	0
95576	7	Sololá	702	San José Chacayá	5	Chacayá	5	Mayo	2023-05-13T00:00:00	2024-11-06T19:00:00	8	Radiación solar	0
95577	7	Sololá	702	San José Chacayá	5	Chacayá	5	Mayo	2023-05-13T00:00:00	2024-11-06T20:00:00	2	Temperatura media	14.3
95578	7	Sololá	702	San José Chacayá	5	Chacayá	5	Mayo	2023-05-13T00:00:00	2024-11-06T20:00:00	4	Temperatura máxima	14.4
95579	7	Sololá	702	San José Chacayá	5	Chacayá	5	Mayo	2023-05-13T00:00:00	2024-11-06T20:00:00	3	Temperatura mínima	14.3
95580	7	Sololá	702	San José Chacayá	5	Chacayá	5	Mayo	2023-05-13T00:00:00	2024-11-06T20:00:00	5	Humedad	62
95581	7	Sololá	702	San José Chacayá	5	Chacayá	5	Mayo	2023-05-13T00:00:00	2024-11-06T20:00:00	6	Velocidad del viento	1.6
95582	7	Sololá	702	San José Chacayá	5	Chacayá	5	Mayo	2023-05-13T00:00:00	2024-11-06T20:00:00	7	Dirección del viento	1.61
95583	7	Sololá	702	San José Chacayá	5	Chacayá	5	Mayo	2023-05-13T00:00:00	2024-11-06T20:00:00	1	Precipitación	1
95584	7	Sololá	702	San José Chacayá	5	Chacayá	5	Mayo	2023-05-13T00:00:00	2024-11-06T20:00:00	8	Radiación solar	0
95585	7	Sololá	702	San José Chacayá	5	Chacayá	5	Mayo	2023-05-13T00:00:00	2024-11-06T21:00:00	2	Temperatura media	13.3
95586	7	Sololá	702	San José Chacayá	5	Chacayá	5	Mayo	2023-05-13T00:00:00	2024-11-06T21:00:00	4	Temperatura máxima	14.3
95587	7	Sololá	702	San José Chacayá	5	Chacayá	5	Mayo	2023-05-13T00:00:00	2024-11-06T21:00:00	3	Temperatura mínima	13.3
95588	7	Sololá	702	San José Chacayá	5	Chacayá	5	Mayo	2023-05-13T00:00:00	2024-11-06T21:00:00	5	Humedad	78
95589	7	Sololá	702	San José Chacayá	5	Chacayá	5	Mayo	2023-05-13T00:00:00	2024-11-06T21:00:00	6	Velocidad del viento	1.6
95590	7	Sololá	702	San José Chacayá	5	Chacayá	5	Mayo	2023-05-13T00:00:00	2024-11-06T21:00:00	7	Dirección del viento	1.61
95591	7	Sololá	702	San José Chacayá	5	Chacayá	5	Mayo	2023-05-13T00:00:00	2024-11-06T21:00:00	1	Precipitación	0
95592	7	Sololá	702	San José Chacayá	5	Chacayá	5	Mayo	2023-05-13T00:00:00	2024-11-06T21:00:00	8	Radiación solar	0
95593	7	Sololá	702	San José Chacayá	5	Chacayá	5	Mayo	2023-05-13T00:00:00	2024-11-06T22:00:00	2	Temperatura media	12.6
95594	7	Sololá	702	San José Chacayá	5	Chacayá	5	Mayo	2023-05-13T00:00:00	2024-11-06T22:00:00	4	Temperatura máxima	13.3
95595	7	Sololá	702	San José Chacayá	5	Chacayá	5	Mayo	2023-05-13T00:00:00	2024-11-06T22:00:00	3	Temperatura mínima	12.6
95596	7	Sololá	702	San José Chacayá	5	Chacayá	5	Mayo	2023-05-13T00:00:00	2024-11-06T22:00:00	5	Humedad	73
95597	7	Sololá	702	San José Chacayá	5	Chacayá	5	Mayo	2023-05-13T00:00:00	2024-11-06T22:00:00	6	Velocidad del viento	1.6
95598	7	Sololá	702	San José Chacayá	5	Chacayá	5	Mayo	2023-05-13T00:00:00	2024-11-06T22:00:00	7	Dirección del viento	1.61
95599	7	Sololá	702	San José Chacayá	5	Chacayá	5	Mayo	2023-05-13T00:00:00	2024-11-06T22:00:00	1	Precipitación	0
95600	7	Sololá	702	San José Chacayá	5	Chacayá	5	Mayo	2023-05-13T00:00:00	2024-11-06T22:00:00	8	Radiación solar	0
95601	7	Sololá	702	San José Chacayá	5	Chacayá	5	Mayo	2023-05-13T00:00:00	2024-11-06T23:00:00	2	Temperatura media	12.7
95602	7	Sololá	702	San José Chacayá	5	Chacayá	5	Mayo	2023-05-13T00:00:00	2024-11-06T23:00:00	4	Temperatura máxima	12.7
95603	7	Sololá	702	San José Chacayá	5	Chacayá	5	Mayo	2023-05-13T00:00:00	2024-11-06T23:00:00	3	Temperatura mínima	12.6
95604	7	Sololá	702	San José Chacayá	5	Chacayá	5	Mayo	2023-05-13T00:00:00	2024-11-06T23:00:00	5	Humedad	59
95605	7	Sololá	702	San José Chacayá	5	Chacayá	5	Mayo	2023-05-13T00:00:00	2024-11-06T23:00:00	6	Velocidad del viento	1.6
95606	7	Sololá	702	San José Chacayá	5	Chacayá	5	Mayo	2023-05-13T00:00:00	2024-11-06T23:00:00	7	Dirección del viento	1.61
95607	7	Sololá	702	San José Chacayá	5	Chacayá	5	Mayo	2023-05-13T00:00:00	2024-11-06T23:00:00	1	Precipitación	0
95608	7	Sololá	702	San José Chacayá	5	Chacayá	5	Mayo	2023-05-13T00:00:00	2024-11-06T23:00:00	8	Radiación solar	0
95609	7	Sololá	702	San José Chacayá	5	Chacayá	5	Mayo	2023-05-14T00:00:00	2024-11-06T00:00:00	2	Temperatura media	12.2
95610	7	Sololá	702	San José Chacayá	5	Chacayá	5	Mayo	2023-05-14T00:00:00	2024-11-06T00:00:00	4	Temperatura máxima	12.7
95611	7	Sololá	702	San José Chacayá	5	Chacayá	5	Mayo	2023-05-14T00:00:00	2024-11-06T00:00:00	3	Temperatura mínima	12.2
95612	7	Sololá	702	San José Chacayá	5	Chacayá	5	Mayo	2023-05-14T00:00:00	2024-11-06T00:00:00	5	Humedad	64
95613	7	Sololá	702	San José Chacayá	5	Chacayá	5	Mayo	2023-05-14T00:00:00	2024-11-06T00:00:00	6	Velocidad del viento	1.6
95614	7	Sololá	702	San José Chacayá	5	Chacayá	5	Mayo	2023-05-14T00:00:00	2024-11-06T00:00:00	7	Dirección del viento	1.61
95615	7	Sololá	702	San José Chacayá	5	Chacayá	5	Mayo	2023-05-14T00:00:00	2024-11-06T00:00:00	1	Precipitación	0
95616	7	Sololá	702	San José Chacayá	5	Chacayá	5	Mayo	2023-05-14T00:00:00	2024-11-06T00:00:00	8	Radiación solar	0
95617	7	Sololá	702	San José Chacayá	5	Chacayá	5	Mayo	2023-05-14T00:00:00	2024-11-06T01:00:00	2	Temperatura media	12.1
95618	7	Sololá	702	San José Chacayá	5	Chacayá	5	Mayo	2023-05-14T00:00:00	2024-11-06T01:00:00	4	Temperatura máxima	12.4
95619	7	Sololá	702	San José Chacayá	5	Chacayá	5	Mayo	2023-05-14T00:00:00	2024-11-06T01:00:00	3	Temperatura mínima	12.1
95620	7	Sololá	702	San José Chacayá	5	Chacayá	5	Mayo	2023-05-14T00:00:00	2024-11-06T01:00:00	5	Humedad	70
95621	7	Sololá	702	San José Chacayá	5	Chacayá	5	Mayo	2023-05-14T00:00:00	2024-11-06T01:00:00	6	Velocidad del viento	1.6
95622	7	Sololá	702	San José Chacayá	5	Chacayá	5	Mayo	2023-05-14T00:00:00	2024-11-06T01:00:00	7	Dirección del viento	1.61
95623	7	Sololá	702	San José Chacayá	5	Chacayá	5	Mayo	2023-05-14T00:00:00	2024-11-06T01:00:00	1	Precipitación	0
95624	7	Sololá	702	San José Chacayá	5	Chacayá	5	Mayo	2023-05-14T00:00:00	2024-11-06T01:00:00	8	Radiación solar	0
95625	7	Sololá	702	San José Chacayá	5	Chacayá	5	Mayo	2023-05-14T00:00:00	2024-11-06T02:00:00	2	Temperatura media	12.4
95626	7	Sololá	702	San José Chacayá	5	Chacayá	5	Mayo	2023-05-14T00:00:00	2024-11-06T02:00:00	4	Temperatura máxima	12.4
95627	7	Sololá	702	San José Chacayá	5	Chacayá	5	Mayo	2023-05-14T00:00:00	2024-11-06T02:00:00	3	Temperatura mínima	12
95628	7	Sololá	702	San José Chacayá	5	Chacayá	5	Mayo	2023-05-14T00:00:00	2024-11-06T02:00:00	5	Humedad	72
95629	7	Sololá	702	San José Chacayá	5	Chacayá	5	Mayo	2023-05-14T00:00:00	2024-11-06T02:00:00	6	Velocidad del viento	1.6
95630	7	Sololá	702	San José Chacayá	5	Chacayá	5	Mayo	2023-05-14T00:00:00	2024-11-06T02:00:00	7	Dirección del viento	1.61
95631	7	Sololá	702	San José Chacayá	5	Chacayá	5	Mayo	2023-05-14T00:00:00	2024-11-06T02:00:00	1	Precipitación	0
95632	7	Sololá	702	San José Chacayá	5	Chacayá	5	Mayo	2023-05-14T00:00:00	2024-11-06T02:00:00	8	Radiación solar	0
95633	7	Sololá	702	San José Chacayá	5	Chacayá	5	Mayo	2023-05-14T00:00:00	2024-11-06T03:00:00	2	Temperatura media	12.5
95634	7	Sololá	702	San José Chacayá	5	Chacayá	5	Mayo	2023-05-14T00:00:00	2024-11-06T03:00:00	4	Temperatura máxima	12.8
95635	7	Sololá	702	San José Chacayá	5	Chacayá	5	Mayo	2023-05-14T00:00:00	2024-11-06T03:00:00	3	Temperatura mínima	12.4
95636	7	Sololá	702	San José Chacayá	5	Chacayá	5	Mayo	2023-05-14T00:00:00	2024-11-06T03:00:00	5	Humedad	67
95637	7	Sololá	702	San José Chacayá	5	Chacayá	5	Mayo	2023-05-14T00:00:00	2024-11-06T03:00:00	6	Velocidad del viento	1.6
95638	7	Sololá	702	San José Chacayá	5	Chacayá	5	Mayo	2023-05-14T00:00:00	2024-11-06T03:00:00	7	Dirección del viento	1.61
95639	7	Sololá	702	San José Chacayá	5	Chacayá	5	Mayo	2023-05-14T00:00:00	2024-11-06T03:00:00	1	Precipitación	0.2
95640	7	Sololá	702	San José Chacayá	5	Chacayá	5	Mayo	2023-05-14T00:00:00	2024-11-06T03:00:00	8	Radiación solar	0
95641	7	Sololá	702	San José Chacayá	5	Chacayá	5	Mayo	2023-05-14T00:00:00	2024-11-06T04:00:00	2	Temperatura media	12.1
95642	7	Sololá	702	San José Chacayá	5	Chacayá	5	Mayo	2023-05-14T00:00:00	2024-11-06T04:00:00	4	Temperatura máxima	12.5
95643	7	Sololá	702	San José Chacayá	5	Chacayá	5	Mayo	2023-05-14T00:00:00	2024-11-06T04:00:00	3	Temperatura mínima	11.8
95644	7	Sololá	702	San José Chacayá	5	Chacayá	5	Mayo	2023-05-14T00:00:00	2024-11-06T04:00:00	5	Humedad	63
95645	7	Sololá	702	San José Chacayá	5	Chacayá	5	Mayo	2023-05-14T00:00:00	2024-11-06T04:00:00	6	Velocidad del viento	0
95646	7	Sololá	702	San José Chacayá	5	Chacayá	5	Mayo	2023-05-14T00:00:00	2024-11-06T04:00:00	7	Dirección del viento	0
95647	7	Sololá	702	San José Chacayá	5	Chacayá	5	Mayo	2023-05-14T00:00:00	2024-11-06T04:00:00	1	Precipitación	0
95648	7	Sololá	702	San José Chacayá	5	Chacayá	5	Mayo	2023-05-14T00:00:00	2024-11-06T04:00:00	8	Radiación solar	0
95649	7	Sololá	702	San José Chacayá	5	Chacayá	5	Mayo	2023-05-14T00:00:00	2024-11-06T05:00:00	2	Temperatura media	12.3
95650	7	Sololá	702	San José Chacayá	5	Chacayá	5	Mayo	2023-05-14T00:00:00	2024-11-06T05:00:00	4	Temperatura máxima	12.5
95651	7	Sololá	702	San José Chacayá	5	Chacayá	5	Mayo	2023-05-14T00:00:00	2024-11-06T05:00:00	3	Temperatura mínima	12.1
95652	7	Sololá	702	San José Chacayá	5	Chacayá	5	Mayo	2023-05-14T00:00:00	2024-11-06T05:00:00	5	Humedad	62
95653	7	Sololá	702	San José Chacayá	5	Chacayá	5	Mayo	2023-05-14T00:00:00	2024-11-06T05:00:00	6	Velocidad del viento	1.6
95654	7	Sololá	702	San José Chacayá	5	Chacayá	5	Mayo	2023-05-14T00:00:00	2024-11-06T05:00:00	7	Dirección del viento	1.61
95655	7	Sololá	702	San José Chacayá	5	Chacayá	5	Mayo	2023-05-14T00:00:00	2024-11-06T05:00:00	1	Precipitación	1
95656	7	Sololá	702	San José Chacayá	5	Chacayá	5	Mayo	2023-05-14T00:00:00	2024-11-06T05:00:00	8	Radiación solar	0
95657	7	Sololá	702	San José Chacayá	5	Chacayá	5	Mayo	2023-05-14T00:00:00	2024-11-06T06:00:00	2	Temperatura media	12.2
95658	7	Sololá	702	San José Chacayá	5	Chacayá	5	Mayo	2023-05-14T00:00:00	2024-11-06T06:00:00	4	Temperatura máxima	12.4
95659	7	Sololá	702	San José Chacayá	5	Chacayá	5	Mayo	2023-05-14T00:00:00	2024-11-06T06:00:00	3	Temperatura mínima	12.1
95660	7	Sololá	702	San José Chacayá	5	Chacayá	5	Mayo	2023-05-14T00:00:00	2024-11-06T06:00:00	5	Humedad	83
95661	7	Sololá	702	San José Chacayá	5	Chacayá	5	Mayo	2023-05-14T00:00:00	2024-11-06T06:00:00	6	Velocidad del viento	3.2
95662	7	Sololá	702	San José Chacayá	5	Chacayá	5	Mayo	2023-05-14T00:00:00	2024-11-06T06:00:00	7	Dirección del viento	3.22
95663	7	Sololá	702	San José Chacayá	5	Chacayá	5	Mayo	2023-05-14T00:00:00	2024-11-06T06:00:00	1	Precipitación	0
95664	7	Sololá	702	San José Chacayá	5	Chacayá	5	Mayo	2023-05-14T00:00:00	2024-11-06T06:00:00	8	Radiación solar	0
95665	7	Sololá	702	San José Chacayá	5	Chacayá	5	Mayo	2023-05-14T00:00:00	2024-11-06T07:00:00	2	Temperatura media	12.2
95666	7	Sololá	702	San José Chacayá	5	Chacayá	5	Mayo	2023-05-14T00:00:00	2024-11-06T07:00:00	4	Temperatura máxima	12.4
95667	7	Sololá	702	San José Chacayá	5	Chacayá	5	Mayo	2023-05-14T00:00:00	2024-11-06T07:00:00	3	Temperatura mínima	12.1
95668	7	Sololá	702	San José Chacayá	5	Chacayá	5	Mayo	2023-05-14T00:00:00	2024-11-06T07:00:00	5	Humedad	81
95669	7	Sololá	702	San José Chacayá	5	Chacayá	5	Mayo	2023-05-14T00:00:00	2024-11-06T07:00:00	6	Velocidad del viento	3.2
95670	7	Sololá	702	San José Chacayá	5	Chacayá	5	Mayo	2023-05-14T00:00:00	2024-11-06T07:00:00	7	Dirección del viento	3.22
95671	7	Sololá	702	San José Chacayá	5	Chacayá	5	Mayo	2023-05-14T00:00:00	2024-11-06T07:00:00	1	Precipitación	0.4
95672	7	Sololá	702	San José Chacayá	5	Chacayá	5	Mayo	2023-05-14T00:00:00	2024-11-06T07:00:00	8	Radiación solar	1
95673	7	Sololá	702	San José Chacayá	5	Chacayá	5	Mayo	2023-05-14T00:00:00	2024-11-06T08:00:00	2	Temperatura media	12.2
95674	7	Sololá	702	San José Chacayá	5	Chacayá	5	Mayo	2023-05-14T00:00:00	2024-11-06T08:00:00	4	Temperatura máxima	12.2
95675	7	Sololá	702	San José Chacayá	5	Chacayá	5	Mayo	2023-05-14T00:00:00	2024-11-06T08:00:00	3	Temperatura mínima	12.1
95676	7	Sololá	702	San José Chacayá	5	Chacayá	5	Mayo	2023-05-14T00:00:00	2024-11-06T08:00:00	5	Humedad	74
95677	7	Sololá	702	San José Chacayá	5	Chacayá	5	Mayo	2023-05-14T00:00:00	2024-11-06T08:00:00	6	Velocidad del viento	1.6
95678	7	Sololá	702	San José Chacayá	5	Chacayá	5	Mayo	2023-05-14T00:00:00	2024-11-06T08:00:00	7	Dirección del viento	1.61
95679	7	Sololá	702	San José Chacayá	5	Chacayá	5	Mayo	2023-05-14T00:00:00	2024-11-06T08:00:00	1	Precipitación	0
95680	7	Sololá	702	San José Chacayá	5	Chacayá	5	Mayo	2023-05-14T00:00:00	2024-11-06T08:00:00	8	Radiación solar	23
95681	7	Sololá	702	San José Chacayá	5	Chacayá	5	Mayo	2023-05-14T00:00:00	2024-11-06T09:00:00	2	Temperatura media	14.1
95682	7	Sololá	702	San José Chacayá	5	Chacayá	5	Mayo	2023-05-14T00:00:00	2024-11-06T09:00:00	4	Temperatura máxima	14.1
95683	7	Sololá	702	San José Chacayá	5	Chacayá	5	Mayo	2023-05-14T00:00:00	2024-11-06T09:00:00	3	Temperatura mínima	12.2
95684	7	Sololá	702	San José Chacayá	5	Chacayá	5	Mayo	2023-05-14T00:00:00	2024-11-06T09:00:00	5	Humedad	83
95685	7	Sololá	702	San José Chacayá	5	Chacayá	5	Mayo	2023-05-14T00:00:00	2024-11-06T09:00:00	6	Velocidad del viento	1.6
95686	7	Sololá	702	San José Chacayá	5	Chacayá	5	Mayo	2023-05-14T00:00:00	2024-11-06T09:00:00	7	Dirección del viento	1.61
95687	7	Sololá	702	San José Chacayá	5	Chacayá	5	Mayo	2023-05-14T00:00:00	2024-11-06T09:00:00	1	Precipitación	0
95688	7	Sololá	702	San José Chacayá	5	Chacayá	5	Mayo	2023-05-14T00:00:00	2024-11-06T09:00:00	8	Radiación solar	143
95689	7	Sololá	702	San José Chacayá	5	Chacayá	5	Mayo	2023-05-14T00:00:00	2024-11-06T10:00:00	2	Temperatura media	18.7
95690	7	Sololá	702	San José Chacayá	5	Chacayá	5	Mayo	2023-05-14T00:00:00	2024-11-06T10:00:00	4	Temperatura máxima	18.7
95691	7	Sololá	702	San José Chacayá	5	Chacayá	5	Mayo	2023-05-14T00:00:00	2024-11-06T10:00:00	3	Temperatura mínima	14.1
95692	7	Sololá	702	San José Chacayá	5	Chacayá	5	Mayo	2023-05-14T00:00:00	2024-11-06T10:00:00	5	Humedad	74
95693	7	Sololá	702	San José Chacayá	5	Chacayá	5	Mayo	2023-05-14T00:00:00	2024-11-06T10:00:00	6	Velocidad del viento	1.6
95694	7	Sololá	702	San José Chacayá	5	Chacayá	5	Mayo	2023-05-14T00:00:00	2024-11-06T10:00:00	7	Dirección del viento	1.61
95695	7	Sololá	702	San José Chacayá	5	Chacayá	5	Mayo	2023-05-14T00:00:00	2024-11-06T10:00:00	1	Precipitación	0
95696	7	Sololá	702	San José Chacayá	5	Chacayá	5	Mayo	2023-05-14T00:00:00	2024-11-06T10:00:00	8	Radiación solar	412
95697	7	Sololá	702	San José Chacayá	5	Chacayá	5	Mayo	2023-05-14T00:00:00	2024-11-06T11:00:00	2	Temperatura media	18.3
95698	7	Sololá	702	San José Chacayá	5	Chacayá	5	Mayo	2023-05-14T00:00:00	2024-11-06T11:00:00	4	Temperatura máxima	21.1
95699	7	Sololá	702	San José Chacayá	5	Chacayá	5	Mayo	2023-05-14T00:00:00	2024-11-06T11:00:00	3	Temperatura mínima	18.3
95700	7	Sololá	702	San José Chacayá	5	Chacayá	5	Mayo	2023-05-14T00:00:00	2024-11-06T11:00:00	5	Humedad	74
95701	7	Sololá	702	San José Chacayá	5	Chacayá	5	Mayo	2023-05-14T00:00:00	2024-11-06T11:00:00	6	Velocidad del viento	1.6
95702	7	Sololá	702	San José Chacayá	5	Chacayá	5	Mayo	2023-05-14T00:00:00	2024-11-06T11:00:00	7	Dirección del viento	1.61
95703	7	Sololá	702	San José Chacayá	5	Chacayá	5	Mayo	2023-05-14T00:00:00	2024-11-06T11:00:00	1	Precipitación	0
95704	7	Sololá	702	San José Chacayá	5	Chacayá	5	Mayo	2023-05-14T00:00:00	2024-11-06T11:00:00	8	Radiación solar	455
95705	7	Sololá	702	San José Chacayá	5	Chacayá	5	Mayo	2023-05-14T00:00:00	2024-11-06T12:00:00	2	Temperatura media	19.4
95706	7	Sololá	702	San José Chacayá	5	Chacayá	5	Mayo	2023-05-14T00:00:00	2024-11-06T12:00:00	4	Temperatura máxima	19.6
95707	7	Sololá	702	San José Chacayá	5	Chacayá	5	Mayo	2023-05-14T00:00:00	2024-11-06T12:00:00	3	Temperatura mínima	18
95708	7	Sololá	702	San José Chacayá	5	Chacayá	5	Mayo	2023-05-14T00:00:00	2024-11-06T12:00:00	5	Humedad	60
95709	7	Sololá	702	San José Chacayá	5	Chacayá	5	Mayo	2023-05-14T00:00:00	2024-11-06T12:00:00	6	Velocidad del viento	3.2
95710	7	Sololá	702	San José Chacayá	5	Chacayá	5	Mayo	2023-05-14T00:00:00	2024-11-06T12:00:00	7	Dirección del viento	3.22
95711	7	Sololá	702	San José Chacayá	5	Chacayá	5	Mayo	2023-05-14T00:00:00	2024-11-06T12:00:00	1	Precipitación	0
95712	7	Sololá	702	San José Chacayá	5	Chacayá	5	Mayo	2023-05-14T00:00:00	2024-11-06T12:00:00	8	Radiación solar	552
95713	7	Sololá	702	San José Chacayá	5	Chacayá	5	Mayo	2023-05-14T00:00:00	2024-11-06T13:00:00	2	Temperatura media	19.9
95714	7	Sololá	702	San José Chacayá	5	Chacayá	5	Mayo	2023-05-14T00:00:00	2024-11-06T13:00:00	4	Temperatura máxima	19.9
95715	7	Sololá	702	San José Chacayá	5	Chacayá	5	Mayo	2023-05-14T00:00:00	2024-11-06T13:00:00	3	Temperatura mínima	19.4
95716	7	Sololá	702	San José Chacayá	5	Chacayá	5	Mayo	2023-05-14T00:00:00	2024-11-06T13:00:00	5	Humedad	60
95717	7	Sololá	702	San José Chacayá	5	Chacayá	5	Mayo	2023-05-14T00:00:00	2024-11-06T13:00:00	6	Velocidad del viento	4.8
95718	7	Sololá	702	San José Chacayá	5	Chacayá	5	Mayo	2023-05-14T00:00:00	2024-11-06T13:00:00	7	Dirección del viento	4.83
95719	7	Sololá	702	San José Chacayá	5	Chacayá	5	Mayo	2023-05-14T00:00:00	2024-11-06T13:00:00	1	Precipitación	0
95720	7	Sololá	702	San José Chacayá	5	Chacayá	5	Mayo	2023-05-14T00:00:00	2024-11-06T13:00:00	8	Radiación solar	792
95721	7	Sololá	702	San José Chacayá	5	Chacayá	5	Mayo	2023-05-14T00:00:00	2024-11-06T14:00:00	2	Temperatura media	21.2
95722	7	Sololá	702	San José Chacayá	5	Chacayá	5	Mayo	2023-05-14T00:00:00	2024-11-06T14:00:00	4	Temperatura máxima	21.2
95723	7	Sololá	702	San José Chacayá	5	Chacayá	5	Mayo	2023-05-14T00:00:00	2024-11-06T14:00:00	3	Temperatura mínima	19.8
95724	7	Sololá	702	San José Chacayá	5	Chacayá	5	Mayo	2023-05-14T00:00:00	2024-11-06T14:00:00	5	Humedad	62
95725	7	Sololá	702	San José Chacayá	5	Chacayá	5	Mayo	2023-05-14T00:00:00	2024-11-06T14:00:00	6	Velocidad del viento	3.2
95726	7	Sololá	702	San José Chacayá	5	Chacayá	5	Mayo	2023-05-14T00:00:00	2024-11-06T14:00:00	7	Dirección del viento	3.22
95727	7	Sololá	702	San José Chacayá	5	Chacayá	5	Mayo	2023-05-14T00:00:00	2024-11-06T14:00:00	1	Precipitación	0
95728	7	Sololá	702	San José Chacayá	5	Chacayá	5	Mayo	2023-05-14T00:00:00	2024-11-06T14:00:00	8	Radiación solar	769
95729	7	Sololá	702	San José Chacayá	5	Chacayá	5	Mayo	2023-05-14T00:00:00	2024-11-06T15:00:00	2	Temperatura media	20.3
95730	7	Sololá	702	San José Chacayá	5	Chacayá	5	Mayo	2023-05-14T00:00:00	2024-11-06T15:00:00	4	Temperatura máxima	21.6
95731	7	Sololá	702	San José Chacayá	5	Chacayá	5	Mayo	2023-05-14T00:00:00	2024-11-06T15:00:00	3	Temperatura mínima	20.1
95732	7	Sololá	702	San José Chacayá	5	Chacayá	5	Mayo	2023-05-14T00:00:00	2024-11-06T15:00:00	5	Humedad	62
95733	7	Sololá	702	San José Chacayá	5	Chacayá	5	Mayo	2023-05-14T00:00:00	2024-11-06T15:00:00	6	Velocidad del viento	6.4
95734	7	Sololá	702	San José Chacayá	5	Chacayá	5	Mayo	2023-05-14T00:00:00	2024-11-06T15:00:00	7	Dirección del viento	6.44
95735	7	Sololá	702	San José Chacayá	5	Chacayá	5	Mayo	2023-05-14T00:00:00	2024-11-06T15:00:00	1	Precipitación	0
95736	7	Sololá	702	San José Chacayá	5	Chacayá	5	Mayo	2023-05-14T00:00:00	2024-11-06T15:00:00	8	Radiación solar	652
95737	7	Sololá	702	San José Chacayá	5	Chacayá	5	Mayo	2023-05-14T00:00:00	2024-11-06T16:00:00	2	Temperatura media	21.3
95738	7	Sololá	702	San José Chacayá	5	Chacayá	5	Mayo	2023-05-14T00:00:00	2024-11-06T16:00:00	4	Temperatura máxima	21.6
95739	7	Sololá	702	San José Chacayá	5	Chacayá	5	Mayo	2023-05-14T00:00:00	2024-11-06T16:00:00	3	Temperatura mínima	20.3
95740	7	Sololá	702	San José Chacayá	5	Chacayá	5	Mayo	2023-05-14T00:00:00	2024-11-06T16:00:00	5	Humedad	62
95741	7	Sololá	702	San José Chacayá	5	Chacayá	5	Mayo	2023-05-14T00:00:00	2024-11-06T16:00:00	6	Velocidad del viento	4.8
95742	7	Sololá	702	San José Chacayá	5	Chacayá	5	Mayo	2023-05-14T00:00:00	2024-11-06T16:00:00	7	Dirección del viento	4.83
95743	7	Sololá	702	San José Chacayá	5	Chacayá	5	Mayo	2023-05-14T00:00:00	2024-11-06T16:00:00	1	Precipitación	0
95744	7	Sololá	702	San José Chacayá	5	Chacayá	5	Mayo	2023-05-14T00:00:00	2024-11-06T16:00:00	8	Radiación solar	687
95745	7	Sololá	702	San José Chacayá	5	Chacayá	5	Mayo	2023-05-14T00:00:00	2024-11-06T17:00:00	2	Temperatura media	20.7
95746	7	Sololá	702	San José Chacayá	5	Chacayá	5	Mayo	2023-05-14T00:00:00	2024-11-06T17:00:00	4	Temperatura máxima	21.3
95747	7	Sololá	702	San José Chacayá	5	Chacayá	5	Mayo	2023-05-14T00:00:00	2024-11-06T17:00:00	3	Temperatura mínima	20.2
95748	7	Sololá	702	San José Chacayá	5	Chacayá	5	Mayo	2023-05-14T00:00:00	2024-11-06T17:00:00	5	Humedad	68
95749	7	Sololá	702	San José Chacayá	5	Chacayá	5	Mayo	2023-05-14T00:00:00	2024-11-06T17:00:00	6	Velocidad del viento	3.2
95750	7	Sololá	702	San José Chacayá	5	Chacayá	5	Mayo	2023-05-14T00:00:00	2024-11-06T17:00:00	7	Dirección del viento	3.22
95751	7	Sololá	702	San José Chacayá	5	Chacayá	5	Mayo	2023-05-14T00:00:00	2024-11-06T17:00:00	1	Precipitación	0
95752	7	Sololá	702	San José Chacayá	5	Chacayá	5	Mayo	2023-05-14T00:00:00	2024-11-06T17:00:00	8	Radiación solar	450
95753	7	Sololá	702	San José Chacayá	5	Chacayá	5	Mayo	2023-05-14T00:00:00	2024-11-06T18:00:00	2	Temperatura media	19.7
95754	7	Sololá	702	San José Chacayá	5	Chacayá	5	Mayo	2023-05-14T00:00:00	2024-11-06T18:00:00	4	Temperatura máxima	20.7
95755	7	Sololá	702	San José Chacayá	5	Chacayá	5	Mayo	2023-05-14T00:00:00	2024-11-06T18:00:00	3	Temperatura mínima	19.7
95756	7	Sololá	702	San José Chacayá	5	Chacayá	5	Mayo	2023-05-14T00:00:00	2024-11-06T18:00:00	5	Humedad	74
95757	7	Sololá	702	San José Chacayá	5	Chacayá	5	Mayo	2023-05-14T00:00:00	2024-11-06T18:00:00	6	Velocidad del viento	1.6
95758	7	Sololá	702	San José Chacayá	5	Chacayá	5	Mayo	2023-05-14T00:00:00	2024-11-06T18:00:00	7	Dirección del viento	1.61
95759	7	Sololá	702	San José Chacayá	5	Chacayá	5	Mayo	2023-05-14T00:00:00	2024-11-06T18:00:00	1	Precipitación	0
95760	7	Sololá	702	San José Chacayá	5	Chacayá	5	Mayo	2023-05-14T00:00:00	2024-11-06T18:00:00	8	Radiación solar	188
95761	7	Sololá	702	San José Chacayá	5	Chacayá	5	Mayo	2023-05-14T00:00:00	2024-11-06T19:00:00	2	Temperatura media	17.5
95762	7	Sololá	702	San José Chacayá	5	Chacayá	5	Mayo	2023-05-14T00:00:00	2024-11-06T19:00:00	4	Temperatura máxima	19.7
95763	7	Sololá	702	San José Chacayá	5	Chacayá	5	Mayo	2023-05-14T00:00:00	2024-11-06T19:00:00	3	Temperatura mínima	17.5
95764	7	Sololá	702	San José Chacayá	5	Chacayá	5	Mayo	2023-05-14T00:00:00	2024-11-06T19:00:00	5	Humedad	82
95765	7	Sololá	702	San José Chacayá	5	Chacayá	5	Mayo	2023-05-14T00:00:00	2024-11-06T19:00:00	6	Velocidad del viento	1.6
95766	7	Sololá	702	San José Chacayá	5	Chacayá	5	Mayo	2023-05-14T00:00:00	2024-11-06T19:00:00	7	Dirección del viento	1.61
95767	7	Sololá	702	San José Chacayá	5	Chacayá	5	Mayo	2023-05-14T00:00:00	2024-11-06T19:00:00	1	Precipitación	0
95768	7	Sololá	702	San José Chacayá	5	Chacayá	5	Mayo	2023-05-14T00:00:00	2024-11-06T19:00:00	8	Radiación solar	0
95769	7	Sololá	702	San José Chacayá	5	Chacayá	5	Mayo	2023-05-14T00:00:00	2024-11-06T20:00:00	2	Temperatura media	16.8
95770	7	Sololá	702	San José Chacayá	5	Chacayá	5	Mayo	2023-05-14T00:00:00	2024-11-06T20:00:00	4	Temperatura máxima	17.6
95771	7	Sololá	702	San José Chacayá	5	Chacayá	5	Mayo	2023-05-14T00:00:00	2024-11-06T20:00:00	3	Temperatura mínima	16.8
95772	7	Sololá	702	San José Chacayá	5	Chacayá	5	Mayo	2023-05-14T00:00:00	2024-11-06T20:00:00	5	Humedad	74
95773	7	Sololá	702	San José Chacayá	5	Chacayá	5	Mayo	2023-05-14T00:00:00	2024-11-06T20:00:00	6	Velocidad del viento	0
95774	7	Sololá	702	San José Chacayá	5	Chacayá	5	Mayo	2023-05-14T00:00:00	2024-11-06T20:00:00	7	Dirección del viento	0
95775	7	Sololá	702	San José Chacayá	5	Chacayá	5	Mayo	2023-05-14T00:00:00	2024-11-06T20:00:00	1	Precipitación	0.2
95776	7	Sololá	702	San José Chacayá	5	Chacayá	5	Mayo	2023-05-14T00:00:00	2024-11-06T20:00:00	8	Radiación solar	0
95777	7	Sololá	702	San José Chacayá	5	Chacayá	5	Mayo	2023-05-14T00:00:00	2024-11-06T21:00:00	2	Temperatura media	15.8
95778	7	Sololá	702	San José Chacayá	5	Chacayá	5	Mayo	2023-05-14T00:00:00	2024-11-06T21:00:00	4	Temperatura máxima	16.8
95779	7	Sololá	702	San José Chacayá	5	Chacayá	5	Mayo	2023-05-14T00:00:00	2024-11-06T21:00:00	3	Temperatura mínima	15.8
95780	7	Sololá	702	San José Chacayá	5	Chacayá	5	Mayo	2023-05-14T00:00:00	2024-11-06T21:00:00	5	Humedad	78
95781	7	Sololá	702	San José Chacayá	5	Chacayá	5	Mayo	2023-05-14T00:00:00	2024-11-06T21:00:00	6	Velocidad del viento	1.6
95782	7	Sololá	702	San José Chacayá	5	Chacayá	5	Mayo	2023-05-14T00:00:00	2024-11-06T21:00:00	7	Dirección del viento	1.61
95783	7	Sololá	702	San José Chacayá	5	Chacayá	5	Mayo	2023-05-14T00:00:00	2024-11-06T21:00:00	1	Precipitación	0.2
95784	7	Sololá	702	San José Chacayá	5	Chacayá	5	Mayo	2023-05-14T00:00:00	2024-11-06T21:00:00	8	Radiación solar	0
95785	7	Sololá	702	San José Chacayá	5	Chacayá	5	Mayo	2023-05-14T00:00:00	2024-11-06T22:00:00	2	Temperatura media	14.8
95786	7	Sololá	702	San José Chacayá	5	Chacayá	5	Mayo	2023-05-14T00:00:00	2024-11-06T22:00:00	4	Temperatura máxima	15.8
95787	7	Sololá	702	San José Chacayá	5	Chacayá	5	Mayo	2023-05-14T00:00:00	2024-11-06T22:00:00	3	Temperatura mínima	14.8
95788	7	Sololá	702	San José Chacayá	5	Chacayá	5	Mayo	2023-05-14T00:00:00	2024-11-06T22:00:00	5	Humedad	78
95789	7	Sololá	702	San José Chacayá	5	Chacayá	5	Mayo	2023-05-14T00:00:00	2024-11-06T22:00:00	6	Velocidad del viento	1.6
95790	7	Sololá	702	San José Chacayá	5	Chacayá	5	Mayo	2023-05-14T00:00:00	2024-11-06T22:00:00	7	Dirección del viento	1.61
95791	7	Sololá	702	San José Chacayá	5	Chacayá	5	Mayo	2023-05-14T00:00:00	2024-11-06T22:00:00	1	Precipitación	0
95792	7	Sololá	702	San José Chacayá	5	Chacayá	5	Mayo	2023-05-14T00:00:00	2024-11-06T22:00:00	8	Radiación solar	0
95793	7	Sololá	702	San José Chacayá	5	Chacayá	5	Mayo	2023-05-14T00:00:00	2024-11-06T23:00:00	2	Temperatura media	13.6
95794	7	Sololá	702	San José Chacayá	5	Chacayá	5	Mayo	2023-05-14T00:00:00	2024-11-06T23:00:00	4	Temperatura máxima	14.8
95795	7	Sololá	702	San José Chacayá	5	Chacayá	5	Mayo	2023-05-14T00:00:00	2024-11-06T23:00:00	3	Temperatura mínima	13.6
95796	7	Sololá	702	San José Chacayá	5	Chacayá	5	Mayo	2023-05-14T00:00:00	2024-11-06T23:00:00	5	Humedad	78
95797	7	Sololá	702	San José Chacayá	5	Chacayá	5	Mayo	2023-05-14T00:00:00	2024-11-06T23:00:00	6	Velocidad del viento	1.6
95798	7	Sololá	702	San José Chacayá	5	Chacayá	5	Mayo	2023-05-14T00:00:00	2024-11-06T23:00:00	7	Dirección del viento	1.61
95799	7	Sololá	702	San José Chacayá	5	Chacayá	5	Mayo	2023-05-14T00:00:00	2024-11-06T23:00:00	1	Precipitación	0
95800	7	Sololá	702	San José Chacayá	5	Chacayá	5	Mayo	2023-05-14T00:00:00	2024-11-06T23:00:00	8	Radiación solar	0
95801	7	Sololá	702	San José Chacayá	5	Chacayá	5	Mayo	2023-05-15T00:00:00	2024-11-06T00:00:00	2	Temperatura media	12.7
95802	7	Sololá	702	San José Chacayá	5	Chacayá	5	Mayo	2023-05-15T00:00:00	2024-11-06T00:00:00	4	Temperatura máxima	13.6
95803	7	Sololá	702	San José Chacayá	5	Chacayá	5	Mayo	2023-05-15T00:00:00	2024-11-06T00:00:00	3	Temperatura mínima	12.7
95804	7	Sololá	702	San José Chacayá	5	Chacayá	5	Mayo	2023-05-15T00:00:00	2024-11-06T00:00:00	5	Humedad	71
95805	7	Sololá	702	San José Chacayá	5	Chacayá	5	Mayo	2023-05-15T00:00:00	2024-11-06T00:00:00	6	Velocidad del viento	1.6
95806	7	Sololá	702	San José Chacayá	5	Chacayá	5	Mayo	2023-05-15T00:00:00	2024-11-06T00:00:00	7	Dirección del viento	1.61
95807	7	Sololá	702	San José Chacayá	5	Chacayá	5	Mayo	2023-05-15T00:00:00	2024-11-06T00:00:00	1	Precipitación	0
95808	7	Sololá	702	San José Chacayá	5	Chacayá	5	Mayo	2023-05-15T00:00:00	2024-11-06T00:00:00	8	Radiación solar	0
95809	7	Sololá	702	San José Chacayá	5	Chacayá	5	Mayo	2023-05-15T00:00:00	2024-11-06T01:00:00	2	Temperatura media	12.2
95810	7	Sololá	702	San José Chacayá	5	Chacayá	5	Mayo	2023-05-15T00:00:00	2024-11-06T01:00:00	4	Temperatura máxima	12.7
95811	7	Sololá	702	San José Chacayá	5	Chacayá	5	Mayo	2023-05-15T00:00:00	2024-11-06T01:00:00	3	Temperatura mínima	12.2
95812	7	Sololá	702	San José Chacayá	5	Chacayá	5	Mayo	2023-05-15T00:00:00	2024-11-06T01:00:00	5	Humedad	73
95813	7	Sololá	702	San José Chacayá	5	Chacayá	5	Mayo	2023-05-15T00:00:00	2024-11-06T01:00:00	6	Velocidad del viento	1.6
95814	7	Sololá	702	San José Chacayá	5	Chacayá	5	Mayo	2023-05-15T00:00:00	2024-11-06T01:00:00	7	Dirección del viento	1.61
95815	7	Sololá	702	San José Chacayá	5	Chacayá	5	Mayo	2023-05-15T00:00:00	2024-11-06T01:00:00	1	Precipitación	0
95816	7	Sololá	702	San José Chacayá	5	Chacayá	5	Mayo	2023-05-15T00:00:00	2024-11-06T01:00:00	8	Radiación solar	0
95817	7	Sololá	702	San José Chacayá	5	Chacayá	5	Mayo	2023-05-15T00:00:00	2024-11-06T02:00:00	2	Temperatura media	12.2
95818	7	Sololá	702	San José Chacayá	5	Chacayá	5	Mayo	2023-05-15T00:00:00	2024-11-06T02:00:00	4	Temperatura máxima	12.2
95819	7	Sololá	702	San José Chacayá	5	Chacayá	5	Mayo	2023-05-15T00:00:00	2024-11-06T02:00:00	3	Temperatura mínima	12
95820	7	Sololá	702	San José Chacayá	5	Chacayá	5	Mayo	2023-05-15T00:00:00	2024-11-06T02:00:00	5	Humedad	75
95821	7	Sololá	702	San José Chacayá	5	Chacayá	5	Mayo	2023-05-15T00:00:00	2024-11-06T02:00:00	6	Velocidad del viento	4.8
95822	7	Sololá	702	San José Chacayá	5	Chacayá	5	Mayo	2023-05-15T00:00:00	2024-11-06T02:00:00	7	Dirección del viento	4.83
95823	7	Sololá	702	San José Chacayá	5	Chacayá	5	Mayo	2023-05-15T00:00:00	2024-11-06T02:00:00	1	Precipitación	0.2
95824	7	Sololá	702	San José Chacayá	5	Chacayá	5	Mayo	2023-05-15T00:00:00	2024-11-06T02:00:00	8	Radiación solar	0
95825	7	Sololá	702	San José Chacayá	5	Chacayá	5	Mayo	2023-05-15T00:00:00	2024-11-06T03:00:00	2	Temperatura media	11.9
95826	7	Sololá	702	San José Chacayá	5	Chacayá	5	Mayo	2023-05-15T00:00:00	2024-11-06T03:00:00	4	Temperatura máxima	12.3
95827	7	Sololá	702	San José Chacayá	5	Chacayá	5	Mayo	2023-05-15T00:00:00	2024-11-06T03:00:00	3	Temperatura mínima	11.9
95828	7	Sololá	702	San José Chacayá	5	Chacayá	5	Mayo	2023-05-15T00:00:00	2024-11-06T03:00:00	5	Humedad	76
95829	7	Sololá	702	San José Chacayá	5	Chacayá	5	Mayo	2023-05-15T00:00:00	2024-11-06T03:00:00	6	Velocidad del viento	3.2
95830	7	Sololá	702	San José Chacayá	5	Chacayá	5	Mayo	2023-05-15T00:00:00	2024-11-06T03:00:00	7	Dirección del viento	3.22
95831	7	Sololá	702	San José Chacayá	5	Chacayá	5	Mayo	2023-05-15T00:00:00	2024-11-06T03:00:00	1	Precipitación	0
95832	7	Sololá	702	San José Chacayá	5	Chacayá	5	Mayo	2023-05-15T00:00:00	2024-11-06T03:00:00	8	Radiación solar	0
95833	7	Sololá	702	San José Chacayá	5	Chacayá	5	Mayo	2023-05-15T00:00:00	2024-11-06T04:00:00	2	Temperatura media	11.5
95834	7	Sololá	702	San José Chacayá	5	Chacayá	5	Mayo	2023-05-15T00:00:00	2024-11-06T04:00:00	4	Temperatura máxima	11.9
95835	7	Sololá	702	San José Chacayá	5	Chacayá	5	Mayo	2023-05-15T00:00:00	2024-11-06T04:00:00	3	Temperatura mínima	11.3
95836	7	Sololá	702	San José Chacayá	5	Chacayá	5	Mayo	2023-05-15T00:00:00	2024-11-06T04:00:00	5	Humedad	73
95837	7	Sololá	702	San José Chacayá	5	Chacayá	5	Mayo	2023-05-15T00:00:00	2024-11-06T04:00:00	6	Velocidad del viento	1.6
95838	7	Sololá	702	San José Chacayá	5	Chacayá	5	Mayo	2023-05-15T00:00:00	2024-11-06T04:00:00	7	Dirección del viento	1.61
95839	7	Sololá	702	San José Chacayá	5	Chacayá	5	Mayo	2023-05-15T00:00:00	2024-11-06T04:00:00	1	Precipitación	0
95840	7	Sololá	702	San José Chacayá	5	Chacayá	5	Mayo	2023-05-15T00:00:00	2024-11-06T04:00:00	8	Radiación solar	0
95841	7	Sololá	702	San José Chacayá	5	Chacayá	5	Mayo	2023-05-15T00:00:00	2024-11-06T05:00:00	2	Temperatura media	11.3
95842	7	Sololá	702	San José Chacayá	5	Chacayá	5	Mayo	2023-05-15T00:00:00	2024-11-06T05:00:00	4	Temperatura máxima	11.5
95843	7	Sololá	702	San José Chacayá	5	Chacayá	5	Mayo	2023-05-15T00:00:00	2024-11-06T05:00:00	3	Temperatura mínima	11.2
95844	7	Sololá	702	San José Chacayá	5	Chacayá	5	Mayo	2023-05-15T00:00:00	2024-11-06T05:00:00	5	Humedad	71
95845	7	Sololá	702	San José Chacayá	5	Chacayá	5	Mayo	2023-05-15T00:00:00	2024-11-06T05:00:00	6	Velocidad del viento	1.6
95846	7	Sololá	702	San José Chacayá	5	Chacayá	5	Mayo	2023-05-15T00:00:00	2024-11-06T05:00:00	7	Dirección del viento	1.61
95847	7	Sololá	702	San José Chacayá	5	Chacayá	5	Mayo	2023-05-15T00:00:00	2024-11-06T05:00:00	1	Precipitación	0
95848	7	Sololá	702	San José Chacayá	5	Chacayá	5	Mayo	2023-05-15T00:00:00	2024-11-06T05:00:00	8	Radiación solar	0
95849	7	Sololá	702	San José Chacayá	5	Chacayá	5	Mayo	2023-05-15T00:00:00	2024-11-06T06:00:00	2	Temperatura media	11.5
95850	7	Sololá	702	San José Chacayá	5	Chacayá	5	Mayo	2023-05-15T00:00:00	2024-11-06T06:00:00	4	Temperatura máxima	11.5
95851	7	Sololá	702	San José Chacayá	5	Chacayá	5	Mayo	2023-05-15T00:00:00	2024-11-06T06:00:00	3	Temperatura mínima	11.2
95852	7	Sololá	702	San José Chacayá	5	Chacayá	5	Mayo	2023-05-15T00:00:00	2024-11-06T06:00:00	5	Humedad	71
95853	7	Sololá	702	San José Chacayá	5	Chacayá	5	Mayo	2023-05-15T00:00:00	2024-11-06T06:00:00	6	Velocidad del viento	1.6
95854	7	Sololá	702	San José Chacayá	5	Chacayá	5	Mayo	2023-05-15T00:00:00	2024-11-06T06:00:00	7	Dirección del viento	1.61
95855	7	Sololá	702	San José Chacayá	5	Chacayá	5	Mayo	2023-05-15T00:00:00	2024-11-06T06:00:00	1	Precipitación	0
95856	7	Sololá	702	San José Chacayá	5	Chacayá	5	Mayo	2023-05-15T00:00:00	2024-11-06T06:00:00	8	Radiación solar	0
95857	7	Sololá	702	San José Chacayá	5	Chacayá	5	Mayo	2023-05-15T00:00:00	2024-11-06T07:00:00	2	Temperatura media	11.8
95858	7	Sololá	702	San José Chacayá	5	Chacayá	5	Mayo	2023-05-15T00:00:00	2024-11-06T07:00:00	4	Temperatura máxima	11.9
95859	7	Sololá	702	San José Chacayá	5	Chacayá	5	Mayo	2023-05-15T00:00:00	2024-11-06T07:00:00	3	Temperatura mínima	11.4
95860	7	Sololá	702	San José Chacayá	5	Chacayá	5	Mayo	2023-05-15T00:00:00	2024-11-06T07:00:00	5	Humedad	75
95861	7	Sololá	702	San José Chacayá	5	Chacayá	5	Mayo	2023-05-15T00:00:00	2024-11-06T07:00:00	6	Velocidad del viento	1.6
95862	7	Sololá	702	San José Chacayá	5	Chacayá	5	Mayo	2023-05-15T00:00:00	2024-11-06T07:00:00	7	Dirección del viento	1.61
95863	7	Sololá	702	San José Chacayá	5	Chacayá	5	Mayo	2023-05-15T00:00:00	2024-11-06T07:00:00	1	Precipitación	0
95864	7	Sololá	702	San José Chacayá	5	Chacayá	5	Mayo	2023-05-15T00:00:00	2024-11-06T07:00:00	8	Radiación solar	3
95865	7	Sololá	702	San José Chacayá	5	Chacayá	5	Mayo	2023-05-15T00:00:00	2024-11-06T08:00:00	2	Temperatura media	13.4
95866	7	Sololá	702	San José Chacayá	5	Chacayá	5	Mayo	2023-05-15T00:00:00	2024-11-06T08:00:00	4	Temperatura máxima	13.4
95867	7	Sololá	702	San José Chacayá	5	Chacayá	5	Mayo	2023-05-15T00:00:00	2024-11-06T08:00:00	3	Temperatura mínima	11.8
95868	7	Sololá	702	San José Chacayá	5	Chacayá	5	Mayo	2023-05-15T00:00:00	2024-11-06T08:00:00	5	Humedad	80
95869	7	Sololá	702	San José Chacayá	5	Chacayá	5	Mayo	2023-05-15T00:00:00	2024-11-06T08:00:00	6	Velocidad del viento	1.6
95870	7	Sololá	702	San José Chacayá	5	Chacayá	5	Mayo	2023-05-15T00:00:00	2024-11-06T08:00:00	7	Dirección del viento	1.61
95871	7	Sololá	702	San José Chacayá	5	Chacayá	5	Mayo	2023-05-15T00:00:00	2024-11-06T08:00:00	1	Precipitación	0
95872	7	Sololá	702	San José Chacayá	5	Chacayá	5	Mayo	2023-05-15T00:00:00	2024-11-06T08:00:00	8	Radiación solar	65
95873	7	Sololá	702	San José Chacayá	5	Chacayá	5	Mayo	2023-05-15T00:00:00	2024-11-06T09:00:00	2	Temperatura media	17.3
95874	7	Sololá	702	San José Chacayá	5	Chacayá	5	Mayo	2023-05-15T00:00:00	2024-11-06T09:00:00	4	Temperatura máxima	17.3
95875	7	Sololá	702	San José Chacayá	5	Chacayá	5	Mayo	2023-05-15T00:00:00	2024-11-06T09:00:00	3	Temperatura mínima	13.4
95876	7	Sololá	702	San José Chacayá	5	Chacayá	5	Mayo	2023-05-15T00:00:00	2024-11-06T09:00:00	5	Humedad	78
95877	7	Sololá	702	San José Chacayá	5	Chacayá	5	Mayo	2023-05-15T00:00:00	2024-11-06T09:00:00	6	Velocidad del viento	0
95878	7	Sololá	702	San José Chacayá	5	Chacayá	5	Mayo	2023-05-15T00:00:00	2024-11-06T09:00:00	7	Dirección del viento	0
95879	7	Sololá	702	San José Chacayá	5	Chacayá	5	Mayo	2023-05-15T00:00:00	2024-11-06T09:00:00	1	Precipitación	0
95880	7	Sololá	702	San José Chacayá	5	Chacayá	5	Mayo	2023-05-15T00:00:00	2024-11-06T09:00:00	8	Radiación solar	204
95881	7	Sololá	702	San José Chacayá	5	Chacayá	5	Mayo	2023-05-15T00:00:00	2024-11-06T10:00:00	2	Temperatura media	17.3
95882	7	Sololá	702	San José Chacayá	5	Chacayá	5	Mayo	2023-05-15T00:00:00	2024-11-06T10:00:00	4	Temperatura máxima	17.8
95883	7	Sololá	702	San José Chacayá	5	Chacayá	5	Mayo	2023-05-15T00:00:00	2024-11-06T10:00:00	3	Temperatura mínima	17
95884	7	Sololá	702	San José Chacayá	5	Chacayá	5	Mayo	2023-05-15T00:00:00	2024-11-06T10:00:00	5	Humedad	79
95885	7	Sololá	702	San José Chacayá	5	Chacayá	5	Mayo	2023-05-15T00:00:00	2024-11-06T10:00:00	6	Velocidad del viento	1.6
95886	7	Sololá	702	San José Chacayá	5	Chacayá	5	Mayo	2023-05-15T00:00:00	2024-11-06T10:00:00	7	Dirección del viento	1.61
95887	7	Sololá	702	San José Chacayá	5	Chacayá	5	Mayo	2023-05-15T00:00:00	2024-11-06T10:00:00	1	Precipitación	0
95888	7	Sololá	702	San José Chacayá	5	Chacayá	5	Mayo	2023-05-15T00:00:00	2024-11-06T10:00:00	8	Radiación solar	206
95889	7	Sololá	702	San José Chacayá	5	Chacayá	5	Mayo	2023-05-15T00:00:00	2024-11-06T11:00:00	2	Temperatura media	18.7
95890	7	Sololá	702	San José Chacayá	5	Chacayá	5	Mayo	2023-05-15T00:00:00	2024-11-06T11:00:00	4	Temperatura máxima	18.7
95891	7	Sololá	702	San José Chacayá	5	Chacayá	5	Mayo	2023-05-15T00:00:00	2024-11-06T11:00:00	3	Temperatura mínima	17.3
95892	7	Sololá	702	San José Chacayá	5	Chacayá	5	Mayo	2023-05-15T00:00:00	2024-11-06T11:00:00	5	Humedad	73
95893	7	Sololá	702	San José Chacayá	5	Chacayá	5	Mayo	2023-05-15T00:00:00	2024-11-06T11:00:00	6	Velocidad del viento	8
95894	7	Sololá	702	San José Chacayá	5	Chacayá	5	Mayo	2023-05-15T00:00:00	2024-11-06T11:00:00	7	Dirección del viento	8.05
95895	7	Sololá	702	San José Chacayá	5	Chacayá	5	Mayo	2023-05-15T00:00:00	2024-11-06T11:00:00	1	Precipitación	0
95896	7	Sololá	702	San José Chacayá	5	Chacayá	5	Mayo	2023-05-15T00:00:00	2024-11-06T11:00:00	8	Radiación solar	549
95897	7	Sololá	702	San José Chacayá	5	Chacayá	5	Mayo	2023-05-15T00:00:00	2024-11-06T12:00:00	2	Temperatura media	18.5
95898	7	Sololá	702	San José Chacayá	5	Chacayá	5	Mayo	2023-05-15T00:00:00	2024-11-06T12:00:00	4	Temperatura máxima	18.9
95899	7	Sololá	702	San José Chacayá	5	Chacayá	5	Mayo	2023-05-15T00:00:00	2024-11-06T12:00:00	3	Temperatura mínima	17.9
95900	7	Sololá	702	San José Chacayá	5	Chacayá	5	Mayo	2023-05-15T00:00:00	2024-11-06T12:00:00	5	Humedad	74
95901	7	Sololá	702	San José Chacayá	5	Chacayá	5	Mayo	2023-05-15T00:00:00	2024-11-06T12:00:00	6	Velocidad del viento	6.4
95902	7	Sololá	702	San José Chacayá	5	Chacayá	5	Mayo	2023-05-15T00:00:00	2024-11-06T12:00:00	7	Dirección del viento	6.44
95903	7	Sololá	702	San José Chacayá	5	Chacayá	5	Mayo	2023-05-15T00:00:00	2024-11-06T12:00:00	1	Precipitación	0
95904	7	Sololá	702	San José Chacayá	5	Chacayá	5	Mayo	2023-05-15T00:00:00	2024-11-06T12:00:00	8	Radiación solar	437
95905	7	Sololá	702	San José Chacayá	5	Chacayá	5	Mayo	2023-05-15T00:00:00	2024-11-06T13:00:00	2	Temperatura media	18.9
95906	7	Sololá	702	San José Chacayá	5	Chacayá	5	Mayo	2023-05-15T00:00:00	2024-11-06T13:00:00	4	Temperatura máxima	19.1
95907	7	Sololá	702	San José Chacayá	5	Chacayá	5	Mayo	2023-05-15T00:00:00	2024-11-06T13:00:00	3	Temperatura mínima	18.3
95908	7	Sololá	702	San José Chacayá	5	Chacayá	5	Mayo	2023-05-15T00:00:00	2024-11-06T13:00:00	5	Humedad	75
95909	7	Sololá	702	San José Chacayá	5	Chacayá	5	Mayo	2023-05-15T00:00:00	2024-11-06T13:00:00	6	Velocidad del viento	6.4
95910	7	Sololá	702	San José Chacayá	5	Chacayá	5	Mayo	2023-05-15T00:00:00	2024-11-06T13:00:00	7	Dirección del viento	6.44
95911	7	Sololá	702	San José Chacayá	5	Chacayá	5	Mayo	2023-05-15T00:00:00	2024-11-06T13:00:00	1	Precipitación	0
95912	7	Sololá	702	San José Chacayá	5	Chacayá	5	Mayo	2023-05-15T00:00:00	2024-11-06T13:00:00	8	Radiación solar	387
95913	7	Sololá	702	San José Chacayá	5	Chacayá	5	Mayo	2023-05-15T00:00:00	2024-11-06T14:00:00	2	Temperatura media	18.9
95914	7	Sololá	702	San José Chacayá	5	Chacayá	5	Mayo	2023-05-15T00:00:00	2024-11-06T14:00:00	4	Temperatura máxima	19.4
95915	7	Sololá	702	San José Chacayá	5	Chacayá	5	Mayo	2023-05-15T00:00:00	2024-11-06T14:00:00	3	Temperatura mínima	18.6
95916	7	Sololá	702	San José Chacayá	5	Chacayá	5	Mayo	2023-05-15T00:00:00	2024-11-06T14:00:00	5	Humedad	74
95917	7	Sololá	702	San José Chacayá	5	Chacayá	5	Mayo	2023-05-15T00:00:00	2024-11-06T14:00:00	6	Velocidad del viento	4.8
95918	7	Sololá	702	San José Chacayá	5	Chacayá	5	Mayo	2023-05-15T00:00:00	2024-11-06T14:00:00	7	Dirección del viento	4.83
95919	7	Sololá	702	San José Chacayá	5	Chacayá	5	Mayo	2023-05-15T00:00:00	2024-11-06T14:00:00	1	Precipitación	0
95920	7	Sololá	702	San José Chacayá	5	Chacayá	5	Mayo	2023-05-15T00:00:00	2024-11-06T14:00:00	8	Radiación solar	373
95921	7	Sololá	702	San José Chacayá	5	Chacayá	5	Mayo	2023-05-15T00:00:00	2024-11-06T15:00:00	2	Temperatura media	18.7
95922	7	Sololá	702	San José Chacayá	5	Chacayá	5	Mayo	2023-05-15T00:00:00	2024-11-06T15:00:00	4	Temperatura máxima	19.7
95923	7	Sololá	702	San José Chacayá	5	Chacayá	5	Mayo	2023-05-15T00:00:00	2024-11-06T15:00:00	3	Temperatura mínima	18.7
95924	7	Sololá	702	San José Chacayá	5	Chacayá	5	Mayo	2023-05-15T00:00:00	2024-11-06T15:00:00	5	Humedad	76
95925	7	Sololá	702	San José Chacayá	5	Chacayá	5	Mayo	2023-05-15T00:00:00	2024-11-06T15:00:00	6	Velocidad del viento	4.8
95926	7	Sololá	702	San José Chacayá	5	Chacayá	5	Mayo	2023-05-15T00:00:00	2024-11-06T15:00:00	7	Dirección del viento	4.83
95927	7	Sololá	702	San José Chacayá	5	Chacayá	5	Mayo	2023-05-15T00:00:00	2024-11-06T15:00:00	1	Precipitación	0
95928	7	Sololá	702	San José Chacayá	5	Chacayá	5	Mayo	2023-05-15T00:00:00	2024-11-06T15:00:00	8	Radiación solar	379
95929	7	Sololá	702	San José Chacayá	5	Chacayá	5	Mayo	2023-05-15T00:00:00	2024-11-06T16:00:00	2	Temperatura media	18.4
95930	7	Sololá	702	San José Chacayá	5	Chacayá	5	Mayo	2023-05-15T00:00:00	2024-11-06T16:00:00	4	Temperatura máxima	19.4
95931	7	Sololá	702	San José Chacayá	5	Chacayá	5	Mayo	2023-05-15T00:00:00	2024-11-06T16:00:00	3	Temperatura mínima	18.3
95932	7	Sololá	702	San José Chacayá	5	Chacayá	5	Mayo	2023-05-15T00:00:00	2024-11-06T16:00:00	5	Humedad	80
95933	7	Sololá	702	San José Chacayá	5	Chacayá	5	Mayo	2023-05-15T00:00:00	2024-11-06T16:00:00	6	Velocidad del viento	4.8
95934	7	Sololá	702	San José Chacayá	5	Chacayá	5	Mayo	2023-05-15T00:00:00	2024-11-06T16:00:00	7	Dirección del viento	4.83
95935	7	Sololá	702	San José Chacayá	5	Chacayá	5	Mayo	2023-05-15T00:00:00	2024-11-06T16:00:00	1	Precipitación	0
95936	7	Sololá	702	San José Chacayá	5	Chacayá	5	Mayo	2023-05-15T00:00:00	2024-11-06T16:00:00	8	Radiación solar	314
95937	7	Sololá	702	San José Chacayá	5	Chacayá	5	Mayo	2023-05-15T00:00:00	2024-11-06T17:00:00	2	Temperatura media	17.5
95938	7	Sololá	702	San José Chacayá	5	Chacayá	5	Mayo	2023-05-15T00:00:00	2024-11-06T17:00:00	4	Temperatura máxima	18.4
95939	7	Sololá	702	San José Chacayá	5	Chacayá	5	Mayo	2023-05-15T00:00:00	2024-11-06T17:00:00	3	Temperatura mínima	17.5
95940	7	Sololá	702	San José Chacayá	5	Chacayá	5	Mayo	2023-05-15T00:00:00	2024-11-06T17:00:00	5	Humedad	82
95941	7	Sololá	702	San José Chacayá	5	Chacayá	5	Mayo	2023-05-15T00:00:00	2024-11-06T17:00:00	6	Velocidad del viento	3.2
95942	7	Sololá	702	San José Chacayá	5	Chacayá	5	Mayo	2023-05-15T00:00:00	2024-11-06T17:00:00	7	Dirección del viento	3.22
95943	7	Sololá	702	San José Chacayá	5	Chacayá	5	Mayo	2023-05-15T00:00:00	2024-11-06T17:00:00	1	Precipitación	0
95944	7	Sololá	702	San José Chacayá	5	Chacayá	5	Mayo	2023-05-15T00:00:00	2024-11-06T17:00:00	8	Radiación solar	173
95945	7	Sololá	702	San José Chacayá	5	Chacayá	5	Mayo	2023-05-15T00:00:00	2024-11-06T18:00:00	2	Temperatura media	16.8
95946	7	Sololá	702	San José Chacayá	5	Chacayá	5	Mayo	2023-05-15T00:00:00	2024-11-06T18:00:00	4	Temperatura máxima	17.5
95947	7	Sololá	702	San José Chacayá	5	Chacayá	5	Mayo	2023-05-15T00:00:00	2024-11-06T18:00:00	3	Temperatura mínima	16.8
95948	7	Sololá	702	San José Chacayá	5	Chacayá	5	Mayo	2023-05-15T00:00:00	2024-11-06T18:00:00	5	Humedad	82
95949	7	Sololá	702	San José Chacayá	5	Chacayá	5	Mayo	2023-05-15T00:00:00	2024-11-06T18:00:00	6	Velocidad del viento	0
95950	7	Sololá	702	San José Chacayá	5	Chacayá	5	Mayo	2023-05-15T00:00:00	2024-11-06T18:00:00	7	Dirección del viento	0
95951	7	Sololá	702	San José Chacayá	5	Chacayá	5	Mayo	2023-05-15T00:00:00	2024-11-06T18:00:00	1	Precipitación	0
95952	7	Sololá	702	San José Chacayá	5	Chacayá	5	Mayo	2023-05-15T00:00:00	2024-11-06T18:00:00	8	Radiación solar	36
95953	7	Sololá	702	San José Chacayá	5	Chacayá	5	Mayo	2023-05-15T00:00:00	2024-11-06T19:00:00	2	Temperatura media	14.1
95954	7	Sololá	702	San José Chacayá	5	Chacayá	5	Mayo	2023-05-15T00:00:00	2024-11-06T19:00:00	4	Temperatura máxima	16.9
95955	7	Sololá	702	San José Chacayá	5	Chacayá	5	Mayo	2023-05-15T00:00:00	2024-11-06T19:00:00	3	Temperatura mínima	14.1
95956	7	Sololá	702	San José Chacayá	5	Chacayá	5	Mayo	2023-05-15T00:00:00	2024-11-06T19:00:00	5	Humedad	83
95957	7	Sololá	702	San José Chacayá	5	Chacayá	5	Mayo	2023-05-15T00:00:00	2024-11-06T19:00:00	6	Velocidad del viento	3.2
95958	7	Sololá	702	San José Chacayá	5	Chacayá	5	Mayo	2023-05-15T00:00:00	2024-11-06T19:00:00	7	Dirección del viento	3.22
95959	7	Sololá	702	San José Chacayá	5	Chacayá	5	Mayo	2023-05-15T00:00:00	2024-11-06T19:00:00	1	Precipitación	0.4
95960	7	Sololá	702	San José Chacayá	5	Chacayá	5	Mayo	2023-05-15T00:00:00	2024-11-06T19:00:00	8	Radiación solar	0
95961	7	Sololá	702	San José Chacayá	5	Chacayá	5	Mayo	2023-05-15T00:00:00	2024-11-06T20:00:00	2	Temperatura media	13.7
95962	7	Sololá	702	San José Chacayá	5	Chacayá	5	Mayo	2023-05-15T00:00:00	2024-11-06T20:00:00	4	Temperatura máxima	14.3
95963	7	Sololá	702	San José Chacayá	5	Chacayá	5	Mayo	2023-05-15T00:00:00	2024-11-06T20:00:00	3	Temperatura mínima	13.6
95964	7	Sololá	702	San José Chacayá	5	Chacayá	5	Mayo	2023-05-15T00:00:00	2024-11-06T20:00:00	5	Humedad	71
95965	7	Sololá	702	San José Chacayá	5	Chacayá	5	Mayo	2023-05-15T00:00:00	2024-11-06T20:00:00	6	Velocidad del viento	1.6
95966	7	Sololá	702	San José Chacayá	5	Chacayá	5	Mayo	2023-05-15T00:00:00	2024-11-06T20:00:00	7	Dirección del viento	1.61
95967	7	Sololá	702	San José Chacayá	5	Chacayá	5	Mayo	2023-05-15T00:00:00	2024-11-06T20:00:00	1	Precipitación	0.6
95968	7	Sololá	702	San José Chacayá	5	Chacayá	5	Mayo	2023-05-15T00:00:00	2024-11-06T20:00:00	8	Radiación solar	0
95969	7	Sololá	702	San José Chacayá	5	Chacayá	5	Mayo	2023-05-15T00:00:00	2024-11-06T21:00:00	2	Temperatura media	13.6
95970	7	Sololá	702	San José Chacayá	5	Chacayá	5	Mayo	2023-05-15T00:00:00	2024-11-06T21:00:00	4	Temperatura máxima	13.8
95971	7	Sololá	702	San José Chacayá	5	Chacayá	5	Mayo	2023-05-15T00:00:00	2024-11-06T21:00:00	3	Temperatura mínima	13.5
95972	7	Sololá	702	San José Chacayá	5	Chacayá	5	Mayo	2023-05-15T00:00:00	2024-11-06T21:00:00	5	Humedad	74
95973	7	Sololá	702	San José Chacayá	5	Chacayá	5	Mayo	2023-05-15T00:00:00	2024-11-06T21:00:00	6	Velocidad del viento	1.6
95974	7	Sololá	702	San José Chacayá	5	Chacayá	5	Mayo	2023-05-15T00:00:00	2024-11-06T21:00:00	7	Dirección del viento	1.61
95975	7	Sololá	702	San José Chacayá	5	Chacayá	5	Mayo	2023-05-15T00:00:00	2024-11-06T21:00:00	1	Precipitación	0
95976	7	Sololá	702	San José Chacayá	5	Chacayá	5	Mayo	2023-05-15T00:00:00	2024-11-06T21:00:00	8	Radiación solar	0
95977	7	Sololá	702	San José Chacayá	5	Chacayá	5	Mayo	2023-05-15T00:00:00	2024-11-06T22:00:00	2	Temperatura media	13.1
95978	7	Sololá	702	San José Chacayá	5	Chacayá	5	Mayo	2023-05-15T00:00:00	2024-11-06T22:00:00	4	Temperatura máxima	13.6
95979	7	Sololá	702	San José Chacayá	5	Chacayá	5	Mayo	2023-05-15T00:00:00	2024-11-06T22:00:00	3	Temperatura mínima	13.1
95980	7	Sololá	702	San José Chacayá	5	Chacayá	5	Mayo	2023-05-15T00:00:00	2024-11-06T22:00:00	5	Humedad	77
95981	7	Sololá	702	San José Chacayá	5	Chacayá	5	Mayo	2023-05-15T00:00:00	2024-11-06T22:00:00	6	Velocidad del viento	1.6
95982	7	Sololá	702	San José Chacayá	5	Chacayá	5	Mayo	2023-05-15T00:00:00	2024-11-06T22:00:00	7	Dirección del viento	1.61
95983	7	Sololá	702	San José Chacayá	5	Chacayá	5	Mayo	2023-05-15T00:00:00	2024-11-06T22:00:00	1	Precipitación	0
95984	7	Sololá	702	San José Chacayá	5	Chacayá	5	Mayo	2023-05-15T00:00:00	2024-11-06T22:00:00	8	Radiación solar	0
95985	7	Sololá	702	San José Chacayá	5	Chacayá	5	Mayo	2023-05-15T00:00:00	2024-11-06T23:00:00	2	Temperatura media	11.6
95986	7	Sololá	702	San José Chacayá	5	Chacayá	5	Mayo	2023-05-15T00:00:00	2024-11-06T23:00:00	4	Temperatura máxima	13.1
95987	7	Sololá	702	San José Chacayá	5	Chacayá	5	Mayo	2023-05-15T00:00:00	2024-11-06T23:00:00	3	Temperatura mínima	11.6
95988	7	Sololá	702	San José Chacayá	5	Chacayá	5	Mayo	2023-05-15T00:00:00	2024-11-06T23:00:00	5	Humedad	79
95989	7	Sololá	702	San José Chacayá	5	Chacayá	5	Mayo	2023-05-15T00:00:00	2024-11-06T23:00:00	6	Velocidad del viento	1.6
95990	7	Sololá	702	San José Chacayá	5	Chacayá	5	Mayo	2023-05-15T00:00:00	2024-11-06T23:00:00	7	Dirección del viento	1.61
95991	7	Sololá	702	San José Chacayá	5	Chacayá	5	Mayo	2023-05-15T00:00:00	2024-11-06T23:00:00	1	Precipitación	0
95992	7	Sololá	702	San José Chacayá	5	Chacayá	5	Mayo	2023-05-15T00:00:00	2024-11-06T23:00:00	8	Radiación solar	0
95993	7	Sololá	702	San José Chacayá	5	Chacayá	5	Mayo	2023-05-16T00:00:00	2024-11-06T00:00:00	2	Temperatura media	10.9
95994	7	Sololá	702	San José Chacayá	5	Chacayá	5	Mayo	2023-05-16T00:00:00	2024-11-06T00:00:00	4	Temperatura máxima	11.6
95995	7	Sololá	702	San José Chacayá	5	Chacayá	5	Mayo	2023-05-16T00:00:00	2024-11-06T00:00:00	3	Temperatura mínima	10.9
95996	7	Sololá	702	San José Chacayá	5	Chacayá	5	Mayo	2023-05-16T00:00:00	2024-11-06T00:00:00	5	Humedad	83
95997	7	Sololá	702	San José Chacayá	5	Chacayá	5	Mayo	2023-05-16T00:00:00	2024-11-06T00:00:00	6	Velocidad del viento	3.2
95998	7	Sololá	702	San José Chacayá	5	Chacayá	5	Mayo	2023-05-16T00:00:00	2024-11-06T00:00:00	7	Dirección del viento	3.22
95999	7	Sololá	702	San José Chacayá	5	Chacayá	5	Mayo	2023-05-16T00:00:00	2024-11-06T00:00:00	1	Precipitación	0
96000	7	Sololá	702	San José Chacayá	5	Chacayá	5	Mayo	2023-05-16T00:00:00	2024-11-06T00:00:00	8	Radiación solar	0
96001	7	Sololá	702	San José Chacayá	5	Chacayá	5	Mayo	2023-05-16T00:00:00	2024-11-06T01:00:00	2	Temperatura media	10.3
96002	7	Sololá	702	San José Chacayá	5	Chacayá	5	Mayo	2023-05-16T00:00:00	2024-11-06T01:00:00	4	Temperatura máxima	10.9
96003	7	Sololá	702	San José Chacayá	5	Chacayá	5	Mayo	2023-05-16T00:00:00	2024-11-06T01:00:00	3	Temperatura mínima	10.3
96004	7	Sololá	702	San José Chacayá	5	Chacayá	5	Mayo	2023-05-16T00:00:00	2024-11-06T01:00:00	5	Humedad	83
96005	7	Sololá	702	San José Chacayá	5	Chacayá	5	Mayo	2023-05-16T00:00:00	2024-11-06T01:00:00	6	Velocidad del viento	3.2
96006	7	Sololá	702	San José Chacayá	5	Chacayá	5	Mayo	2023-05-16T00:00:00	2024-11-06T01:00:00	7	Dirección del viento	3.22
96007	7	Sololá	702	San José Chacayá	5	Chacayá	5	Mayo	2023-05-16T00:00:00	2024-11-06T01:00:00	1	Precipitación	0
96008	7	Sololá	702	San José Chacayá	5	Chacayá	5	Mayo	2023-05-16T00:00:00	2024-11-06T01:00:00	8	Radiación solar	0
96009	7	Sololá	702	San José Chacayá	5	Chacayá	5	Mayo	2023-05-16T00:00:00	2024-11-06T02:00:00	2	Temperatura media	9.9
96010	7	Sololá	702	San José Chacayá	5	Chacayá	5	Mayo	2023-05-16T00:00:00	2024-11-06T02:00:00	4	Temperatura máxima	10.6
96011	7	Sololá	702	San José Chacayá	5	Chacayá	5	Mayo	2023-05-16T00:00:00	2024-11-06T02:00:00	3	Temperatura mínima	9.9
96012	7	Sololá	702	San José Chacayá	5	Chacayá	5	Mayo	2023-05-16T00:00:00	2024-11-06T02:00:00	5	Humedad	83
96013	7	Sololá	702	San José Chacayá	5	Chacayá	5	Mayo	2023-05-16T00:00:00	2024-11-06T02:00:00	6	Velocidad del viento	3.2
96014	7	Sololá	702	San José Chacayá	5	Chacayá	5	Mayo	2023-05-16T00:00:00	2024-11-06T02:00:00	7	Dirección del viento	3.22
96015	7	Sololá	702	San José Chacayá	5	Chacayá	5	Mayo	2023-05-16T00:00:00	2024-11-06T02:00:00	1	Precipitación	0
96016	7	Sololá	702	San José Chacayá	5	Chacayá	5	Mayo	2023-05-16T00:00:00	2024-11-06T02:00:00	8	Radiación solar	0
96017	7	Sololá	702	San José Chacayá	5	Chacayá	5	Mayo	2023-05-16T00:00:00	2024-11-06T03:00:00	2	Temperatura media	9.5
96018	7	Sololá	702	San José Chacayá	5	Chacayá	5	Mayo	2023-05-16T00:00:00	2024-11-06T03:00:00	4	Temperatura máxima	9.9
96019	7	Sololá	702	San José Chacayá	5	Chacayá	5	Mayo	2023-05-16T00:00:00	2024-11-06T03:00:00	3	Temperatura mínima	9.4
96020	7	Sololá	702	San José Chacayá	5	Chacayá	5	Mayo	2023-05-16T00:00:00	2024-11-06T03:00:00	5	Humedad	82
96021	7	Sololá	702	San José Chacayá	5	Chacayá	5	Mayo	2023-05-16T00:00:00	2024-11-06T03:00:00	6	Velocidad del viento	3.2
96022	7	Sololá	702	San José Chacayá	5	Chacayá	5	Mayo	2023-05-16T00:00:00	2024-11-06T03:00:00	7	Dirección del viento	3.22
96023	7	Sololá	702	San José Chacayá	5	Chacayá	5	Mayo	2023-05-16T00:00:00	2024-11-06T03:00:00	1	Precipitación	0
96024	7	Sololá	702	San José Chacayá	5	Chacayá	5	Mayo	2023-05-16T00:00:00	2024-11-06T03:00:00	8	Radiación solar	0
96025	7	Sololá	702	San José Chacayá	5	Chacayá	5	Mayo	2023-05-16T00:00:00	2024-11-06T04:00:00	2	Temperatura media	9.2
96026	7	Sololá	702	San José Chacayá	5	Chacayá	5	Mayo	2023-05-16T00:00:00	2024-11-06T04:00:00	4	Temperatura máxima	9.5
96027	7	Sololá	702	San José Chacayá	5	Chacayá	5	Mayo	2023-05-16T00:00:00	2024-11-06T04:00:00	3	Temperatura mínima	9.2
96028	7	Sololá	702	San José Chacayá	5	Chacayá	5	Mayo	2023-05-16T00:00:00	2024-11-06T04:00:00	5	Humedad	82
96029	7	Sololá	702	San José Chacayá	5	Chacayá	5	Mayo	2023-05-16T00:00:00	2024-11-06T04:00:00	6	Velocidad del viento	3.2
96030	7	Sololá	702	San José Chacayá	5	Chacayá	5	Mayo	2023-05-16T00:00:00	2024-11-06T04:00:00	7	Dirección del viento	3.22
96031	7	Sololá	702	San José Chacayá	5	Chacayá	5	Mayo	2023-05-16T00:00:00	2024-11-06T04:00:00	1	Precipitación	0
96032	7	Sololá	702	San José Chacayá	5	Chacayá	5	Mayo	2023-05-16T00:00:00	2024-11-06T04:00:00	8	Radiación solar	0
96033	7	Sololá	702	San José Chacayá	5	Chacayá	5	Mayo	2023-05-16T00:00:00	2024-11-06T05:00:00	2	Temperatura media	9.2
96034	7	Sololá	702	San José Chacayá	5	Chacayá	5	Mayo	2023-05-16T00:00:00	2024-11-06T05:00:00	4	Temperatura máxima	9.3
96035	7	Sololá	702	San José Chacayá	5	Chacayá	5	Mayo	2023-05-16T00:00:00	2024-11-06T05:00:00	3	Temperatura mínima	9.1
96036	7	Sololá	702	San José Chacayá	5	Chacayá	5	Mayo	2023-05-16T00:00:00	2024-11-06T05:00:00	5	Humedad	82
96037	7	Sololá	702	San José Chacayá	5	Chacayá	5	Mayo	2023-05-16T00:00:00	2024-11-06T05:00:00	6	Velocidad del viento	3.2
96038	7	Sololá	702	San José Chacayá	5	Chacayá	5	Mayo	2023-05-16T00:00:00	2024-11-06T05:00:00	7	Dirección del viento	3.22
96039	7	Sololá	702	San José Chacayá	5	Chacayá	5	Mayo	2023-05-16T00:00:00	2024-11-06T05:00:00	1	Precipitación	0
96040	7	Sololá	702	San José Chacayá	5	Chacayá	5	Mayo	2023-05-16T00:00:00	2024-11-06T05:00:00	8	Radiación solar	0
96041	7	Sololá	702	San José Chacayá	5	Chacayá	5	Mayo	2023-05-16T00:00:00	2024-11-06T06:00:00	2	Temperatura media	9.1
96042	7	Sololá	702	San José Chacayá	5	Chacayá	5	Mayo	2023-05-16T00:00:00	2024-11-06T06:00:00	4	Temperatura máxima	9.3
96043	7	Sololá	702	San José Chacayá	5	Chacayá	5	Mayo	2023-05-16T00:00:00	2024-11-06T06:00:00	3	Temperatura mínima	9.1
96044	7	Sololá	702	San José Chacayá	5	Chacayá	5	Mayo	2023-05-16T00:00:00	2024-11-06T06:00:00	5	Humedad	83
96045	7	Sololá	702	San José Chacayá	5	Chacayá	5	Mayo	2023-05-16T00:00:00	2024-11-06T06:00:00	6	Velocidad del viento	4.8
96046	7	Sololá	702	San José Chacayá	5	Chacayá	5	Mayo	2023-05-16T00:00:00	2024-11-06T06:00:00	7	Dirección del viento	4.83
96047	7	Sololá	702	San José Chacayá	5	Chacayá	5	Mayo	2023-05-16T00:00:00	2024-11-06T06:00:00	1	Precipitación	0
96048	7	Sololá	702	San José Chacayá	5	Chacayá	5	Mayo	2023-05-16T00:00:00	2024-11-06T06:00:00	8	Radiación solar	0
96049	7	Sololá	702	San José Chacayá	5	Chacayá	5	Mayo	2023-05-16T00:00:00	2024-11-06T07:00:00	2	Temperatura media	9.2
96050	7	Sololá	702	San José Chacayá	5	Chacayá	5	Mayo	2023-05-16T00:00:00	2024-11-06T07:00:00	4	Temperatura máxima	9.2
96051	7	Sololá	702	San José Chacayá	5	Chacayá	5	Mayo	2023-05-16T00:00:00	2024-11-06T07:00:00	3	Temperatura mínima	9
96052	7	Sololá	702	San José Chacayá	5	Chacayá	5	Mayo	2023-05-16T00:00:00	2024-11-06T07:00:00	5	Humedad	82
96053	7	Sololá	702	San José Chacayá	5	Chacayá	5	Mayo	2023-05-16T00:00:00	2024-11-06T07:00:00	6	Velocidad del viento	3.2
96054	7	Sololá	702	San José Chacayá	5	Chacayá	5	Mayo	2023-05-16T00:00:00	2024-11-06T07:00:00	7	Dirección del viento	3.22
96055	7	Sololá	702	San José Chacayá	5	Chacayá	5	Mayo	2023-05-16T00:00:00	2024-11-06T07:00:00	1	Precipitación	0.2
96056	7	Sololá	702	San José Chacayá	5	Chacayá	5	Mayo	2023-05-16T00:00:00	2024-11-06T07:00:00	8	Radiación solar	5
96057	7	Sololá	702	San José Chacayá	5	Chacayá	5	Mayo	2023-05-16T00:00:00	2024-11-06T08:00:00	2	Temperatura media	11.6
96058	7	Sololá	702	San José Chacayá	5	Chacayá	5	Mayo	2023-05-16T00:00:00	2024-11-06T08:00:00	4	Temperatura máxima	11.6
96059	7	Sololá	702	San José Chacayá	5	Chacayá	5	Mayo	2023-05-16T00:00:00	2024-11-06T08:00:00	3	Temperatura mínima	9.2
96060	7	Sololá	702	San José Chacayá	5	Chacayá	5	Mayo	2023-05-16T00:00:00	2024-11-06T08:00:00	5	Humedad	83
96061	7	Sololá	702	San José Chacayá	5	Chacayá	5	Mayo	2023-05-16T00:00:00	2024-11-06T08:00:00	6	Velocidad del viento	3.2
96062	7	Sololá	702	San José Chacayá	5	Chacayá	5	Mayo	2023-05-16T00:00:00	2024-11-06T08:00:00	7	Dirección del viento	3.22
96063	7	Sololá	702	San José Chacayá	5	Chacayá	5	Mayo	2023-05-16T00:00:00	2024-11-06T08:00:00	1	Precipitación	0
96064	7	Sololá	702	San José Chacayá	5	Chacayá	5	Mayo	2023-05-16T00:00:00	2024-11-06T08:00:00	8	Radiación solar	35
96065	7	Sololá	702	San José Chacayá	5	Chacayá	5	Mayo	2023-05-16T00:00:00	2024-11-06T09:00:00	2	Temperatura media	16.1
96066	7	Sololá	702	San José Chacayá	5	Chacayá	5	Mayo	2023-05-16T00:00:00	2024-11-06T09:00:00	4	Temperatura máxima	16.1
96067	7	Sololá	702	San José Chacayá	5	Chacayá	5	Mayo	2023-05-16T00:00:00	2024-11-06T09:00:00	3	Temperatura mínima	11.6
96068	7	Sololá	702	San José Chacayá	5	Chacayá	5	Mayo	2023-05-16T00:00:00	2024-11-06T09:00:00	5	Humedad	73
96069	7	Sololá	702	San José Chacayá	5	Chacayá	5	Mayo	2023-05-16T00:00:00	2024-11-06T09:00:00	6	Velocidad del viento	1.6
96070	7	Sololá	702	San José Chacayá	5	Chacayá	5	Mayo	2023-05-16T00:00:00	2024-11-06T09:00:00	7	Dirección del viento	1.61
96071	7	Sololá	702	San José Chacayá	5	Chacayá	5	Mayo	2023-05-16T00:00:00	2024-11-06T09:00:00	1	Precipitación	0
96072	7	Sololá	702	San José Chacayá	5	Chacayá	5	Mayo	2023-05-16T00:00:00	2024-11-06T09:00:00	8	Radiación solar	78
96073	7	Sololá	702	San José Chacayá	5	Chacayá	5	Mayo	2023-05-16T00:00:00	2024-11-06T10:00:00	2	Temperatura media	19.3
96074	7	Sololá	702	San José Chacayá	5	Chacayá	5	Mayo	2023-05-16T00:00:00	2024-11-06T10:00:00	4	Temperatura máxima	19.3
96075	7	Sololá	702	San José Chacayá	5	Chacayá	5	Mayo	2023-05-16T00:00:00	2024-11-06T10:00:00	3	Temperatura mínima	16.1
96076	7	Sololá	702	San José Chacayá	5	Chacayá	5	Mayo	2023-05-16T00:00:00	2024-11-06T10:00:00	5	Humedad	68
96077	7	Sololá	702	San José Chacayá	5	Chacayá	5	Mayo	2023-05-16T00:00:00	2024-11-06T10:00:00	6	Velocidad del viento	3.2
96078	7	Sololá	702	San José Chacayá	5	Chacayá	5	Mayo	2023-05-16T00:00:00	2024-11-06T10:00:00	7	Dirección del viento	3.22
96079	7	Sololá	702	San José Chacayá	5	Chacayá	5	Mayo	2023-05-16T00:00:00	2024-11-06T10:00:00	1	Precipitación	0
96080	7	Sololá	702	San José Chacayá	5	Chacayá	5	Mayo	2023-05-16T00:00:00	2024-11-06T10:00:00	8	Radiación solar	587
96081	7	Sololá	702	San José Chacayá	5	Chacayá	5	Mayo	2023-05-16T00:00:00	2024-11-06T11:00:00	2	Temperatura media	19.3
96082	7	Sololá	702	San José Chacayá	5	Chacayá	5	Mayo	2023-05-16T00:00:00	2024-11-06T11:00:00	4	Temperatura máxima	19.9
96083	7	Sololá	702	San José Chacayá	5	Chacayá	5	Mayo	2023-05-16T00:00:00	2024-11-06T11:00:00	3	Temperatura mínima	17.8
96084	7	Sololá	702	San José Chacayá	5	Chacayá	5	Mayo	2023-05-16T00:00:00	2024-11-06T11:00:00	5	Humedad	67
96085	7	Sololá	702	San José Chacayá	5	Chacayá	5	Mayo	2023-05-16T00:00:00	2024-11-06T11:00:00	6	Velocidad del viento	6.4
96086	7	Sololá	702	San José Chacayá	5	Chacayá	5	Mayo	2023-05-16T00:00:00	2024-11-06T11:00:00	7	Dirección del viento	6.44
96087	7	Sololá	702	San José Chacayá	5	Chacayá	5	Mayo	2023-05-16T00:00:00	2024-11-06T11:00:00	1	Precipitación	0
96088	7	Sololá	702	San José Chacayá	5	Chacayá	5	Mayo	2023-05-16T00:00:00	2024-11-06T11:00:00	8	Radiación solar	576
96089	7	Sololá	702	San José Chacayá	5	Chacayá	5	Mayo	2023-05-16T00:00:00	2024-11-06T12:00:00	2	Temperatura media	21.8
96090	7	Sololá	702	San José Chacayá	5	Chacayá	5	Mayo	2023-05-16T00:00:00	2024-11-06T12:00:00	4	Temperatura máxima	21.8
96091	7	Sololá	702	San José Chacayá	5	Chacayá	5	Mayo	2023-05-16T00:00:00	2024-11-06T12:00:00	3	Temperatura mínima	19.2
96092	7	Sololá	702	San José Chacayá	5	Chacayá	5	Mayo	2023-05-16T00:00:00	2024-11-06T12:00:00	5	Humedad	60
96093	7	Sololá	702	San José Chacayá	5	Chacayá	5	Mayo	2023-05-16T00:00:00	2024-11-06T12:00:00	6	Velocidad del viento	6.4
96094	7	Sololá	702	San José Chacayá	5	Chacayá	5	Mayo	2023-05-16T00:00:00	2024-11-06T12:00:00	7	Dirección del viento	6.44
96095	7	Sololá	702	San José Chacayá	5	Chacayá	5	Mayo	2023-05-16T00:00:00	2024-11-06T12:00:00	1	Precipitación	0
96096	7	Sololá	702	San José Chacayá	5	Chacayá	5	Mayo	2023-05-16T00:00:00	2024-11-06T12:00:00	8	Radiación solar	967
96097	7	Sololá	702	San José Chacayá	5	Chacayá	5	Mayo	2023-05-16T00:00:00	2024-11-06T13:00:00	2	Temperatura media	21.8
96098	7	Sololá	702	San José Chacayá	5	Chacayá	5	Mayo	2023-05-16T00:00:00	2024-11-06T13:00:00	4	Temperatura máxima	21.8
96099	7	Sololá	702	San José Chacayá	5	Chacayá	5	Mayo	2023-05-16T00:00:00	2024-11-06T13:00:00	3	Temperatura mínima	21
96100	7	Sololá	702	San José Chacayá	5	Chacayá	5	Mayo	2023-05-16T00:00:00	2024-11-06T13:00:00	5	Humedad	58
96101	7	Sololá	702	San José Chacayá	5	Chacayá	5	Mayo	2023-05-16T00:00:00	2024-11-06T13:00:00	6	Velocidad del viento	4.8
96102	7	Sololá	702	San José Chacayá	5	Chacayá	5	Mayo	2023-05-16T00:00:00	2024-11-06T13:00:00	7	Dirección del viento	4.83
96103	7	Sololá	702	San José Chacayá	5	Chacayá	5	Mayo	2023-05-16T00:00:00	2024-11-06T13:00:00	1	Precipitación	0
96104	7	Sololá	702	San José Chacayá	5	Chacayá	5	Mayo	2023-05-16T00:00:00	2024-11-06T13:00:00	8	Radiación solar	949
96105	7	Sololá	702	San José Chacayá	5	Chacayá	5	Mayo	2023-05-16T00:00:00	2024-11-06T14:00:00	2	Temperatura media	20.4
96106	7	Sololá	702	San José Chacayá	5	Chacayá	5	Mayo	2023-05-16T00:00:00	2024-11-06T14:00:00	4	Temperatura máxima	22.5
96107	7	Sololá	702	San José Chacayá	5	Chacayá	5	Mayo	2023-05-16T00:00:00	2024-11-06T14:00:00	3	Temperatura mínima	20.4
96108	7	Sololá	702	San José Chacayá	5	Chacayá	5	Mayo	2023-05-16T00:00:00	2024-11-06T14:00:00	5	Humedad	71
96109	7	Sololá	702	San José Chacayá	5	Chacayá	5	Mayo	2023-05-16T00:00:00	2024-11-06T14:00:00	6	Velocidad del viento	6.4
96110	7	Sololá	702	San José Chacayá	5	Chacayá	5	Mayo	2023-05-16T00:00:00	2024-11-06T14:00:00	7	Dirección del viento	6.44
96111	7	Sololá	702	San José Chacayá	5	Chacayá	5	Mayo	2023-05-16T00:00:00	2024-11-06T14:00:00	1	Precipitación	0
96112	7	Sololá	702	San José Chacayá	5	Chacayá	5	Mayo	2023-05-16T00:00:00	2024-11-06T14:00:00	8	Radiación solar	955
96113	7	Sololá	702	San José Chacayá	5	Chacayá	5	Mayo	2023-05-16T00:00:00	2024-11-06T15:00:00	2	Temperatura media	19.5
96114	7	Sololá	702	San José Chacayá	5	Chacayá	5	Mayo	2023-05-16T00:00:00	2024-11-06T15:00:00	4	Temperatura máxima	20.7
96115	7	Sololá	702	San José Chacayá	5	Chacayá	5	Mayo	2023-05-16T00:00:00	2024-11-06T15:00:00	3	Temperatura mínima	19.4
96116	7	Sololá	702	San José Chacayá	5	Chacayá	5	Mayo	2023-05-16T00:00:00	2024-11-06T15:00:00	5	Humedad	75
96117	7	Sololá	702	San José Chacayá	5	Chacayá	5	Mayo	2023-05-16T00:00:00	2024-11-06T15:00:00	6	Velocidad del viento	6.4
96118	7	Sololá	702	San José Chacayá	5	Chacayá	5	Mayo	2023-05-16T00:00:00	2024-11-06T15:00:00	7	Dirección del viento	6.44
96119	7	Sololá	702	San José Chacayá	5	Chacayá	5	Mayo	2023-05-16T00:00:00	2024-11-06T15:00:00	1	Precipitación	0
96120	7	Sololá	702	San José Chacayá	5	Chacayá	5	Mayo	2023-05-16T00:00:00	2024-11-06T15:00:00	8	Radiación solar	528
96121	7	Sololá	702	San José Chacayá	5	Chacayá	5	Mayo	2023-05-16T00:00:00	2024-11-06T16:00:00	2	Temperatura media	19.3
96122	7	Sololá	702	San José Chacayá	5	Chacayá	5	Mayo	2023-05-16T00:00:00	2024-11-06T16:00:00	4	Temperatura máxima	19.9
96123	7	Sololá	702	San José Chacayá	5	Chacayá	5	Mayo	2023-05-16T00:00:00	2024-11-06T16:00:00	3	Temperatura mínima	19.1
96124	7	Sololá	702	San José Chacayá	5	Chacayá	5	Mayo	2023-05-16T00:00:00	2024-11-06T16:00:00	5	Humedad	77
96125	7	Sololá	702	San José Chacayá	5	Chacayá	5	Mayo	2023-05-16T00:00:00	2024-11-06T16:00:00	6	Velocidad del viento	4.8
96126	7	Sololá	702	San José Chacayá	5	Chacayá	5	Mayo	2023-05-16T00:00:00	2024-11-06T16:00:00	7	Dirección del viento	4.83
96127	7	Sololá	702	San José Chacayá	5	Chacayá	5	Mayo	2023-05-16T00:00:00	2024-11-06T16:00:00	1	Precipitación	0
96128	7	Sololá	702	San José Chacayá	5	Chacayá	5	Mayo	2023-05-16T00:00:00	2024-11-06T16:00:00	8	Radiación solar	334
96129	7	Sololá	702	San José Chacayá	5	Chacayá	5	Mayo	2023-05-16T00:00:00	2024-11-06T17:00:00	2	Temperatura media	17.6
96130	7	Sololá	702	San José Chacayá	5	Chacayá	5	Mayo	2023-05-16T00:00:00	2024-11-06T17:00:00	4	Temperatura máxima	19.4
96131	7	Sololá	702	San José Chacayá	5	Chacayá	5	Mayo	2023-05-16T00:00:00	2024-11-06T17:00:00	3	Temperatura mínima	17.6
96132	7	Sololá	702	San José Chacayá	5	Chacayá	5	Mayo	2023-05-16T00:00:00	2024-11-06T17:00:00	5	Humedad	81
96133	7	Sololá	702	San José Chacayá	5	Chacayá	5	Mayo	2023-05-16T00:00:00	2024-11-06T17:00:00	6	Velocidad del viento	4.8
96134	7	Sololá	702	San José Chacayá	5	Chacayá	5	Mayo	2023-05-16T00:00:00	2024-11-06T17:00:00	7	Dirección del viento	4.83
96135	7	Sololá	702	San José Chacayá	5	Chacayá	5	Mayo	2023-05-16T00:00:00	2024-11-06T17:00:00	1	Precipitación	0
96136	7	Sololá	702	San José Chacayá	5	Chacayá	5	Mayo	2023-05-16T00:00:00	2024-11-06T17:00:00	8	Radiación solar	177
96137	7	Sololá	702	San José Chacayá	5	Chacayá	5	Mayo	2023-05-16T00:00:00	2024-11-06T18:00:00	2	Temperatura media	17.1
96138	7	Sololá	702	San José Chacayá	5	Chacayá	5	Mayo	2023-05-16T00:00:00	2024-11-06T18:00:00	4	Temperatura máxima	17.7
96139	7	Sololá	702	San José Chacayá	5	Chacayá	5	Mayo	2023-05-16T00:00:00	2024-11-06T18:00:00	3	Temperatura mínima	17.1
96140	7	Sololá	702	San José Chacayá	5	Chacayá	5	Mayo	2023-05-16T00:00:00	2024-11-06T18:00:00	5	Humedad	82
96141	7	Sololá	702	San José Chacayá	5	Chacayá	5	Mayo	2023-05-16T00:00:00	2024-11-06T18:00:00	6	Velocidad del viento	3.2
96142	7	Sololá	702	San José Chacayá	5	Chacayá	5	Mayo	2023-05-16T00:00:00	2024-11-06T18:00:00	7	Dirección del viento	3.22
96143	7	Sololá	702	San José Chacayá	5	Chacayá	5	Mayo	2023-05-16T00:00:00	2024-11-06T18:00:00	1	Precipitación	0
96144	7	Sololá	702	San José Chacayá	5	Chacayá	5	Mayo	2023-05-16T00:00:00	2024-11-06T18:00:00	8	Radiación solar	173
96145	7	Sololá	702	San José Chacayá	5	Chacayá	5	Mayo	2023-05-16T00:00:00	2024-11-06T19:00:00	2	Temperatura media	16
96146	7	Sololá	702	San José Chacayá	5	Chacayá	5	Mayo	2023-05-16T00:00:00	2024-11-06T19:00:00	4	Temperatura máxima	17.1
96147	7	Sololá	702	San José Chacayá	5	Chacayá	5	Mayo	2023-05-16T00:00:00	2024-11-06T19:00:00	3	Temperatura mínima	16
96148	7	Sololá	702	San José Chacayá	5	Chacayá	5	Mayo	2023-05-16T00:00:00	2024-11-06T19:00:00	5	Humedad	80
96149	7	Sololá	702	San José Chacayá	5	Chacayá	5	Mayo	2023-05-16T00:00:00	2024-11-06T19:00:00	6	Velocidad del viento	1.6
96150	7	Sololá	702	San José Chacayá	5	Chacayá	5	Mayo	2023-05-16T00:00:00	2024-11-06T19:00:00	7	Dirección del viento	1.61
96151	7	Sololá	702	San José Chacayá	5	Chacayá	5	Mayo	2023-05-16T00:00:00	2024-11-06T19:00:00	1	Precipitación	0
96152	7	Sololá	702	San José Chacayá	5	Chacayá	5	Mayo	2023-05-16T00:00:00	2024-11-06T19:00:00	8	Radiación solar	0
96153	7	Sololá	702	San José Chacayá	5	Chacayá	5	Mayo	2023-05-16T00:00:00	2024-11-06T20:00:00	2	Temperatura media	15.1
96154	7	Sololá	702	San José Chacayá	5	Chacayá	5	Mayo	2023-05-16T00:00:00	2024-11-06T20:00:00	4	Temperatura máxima	16.1
96155	7	Sololá	702	San José Chacayá	5	Chacayá	5	Mayo	2023-05-16T00:00:00	2024-11-06T20:00:00	3	Temperatura mínima	15.1
96156	7	Sololá	702	San José Chacayá	5	Chacayá	5	Mayo	2023-05-16T00:00:00	2024-11-06T20:00:00	5	Humedad	81
96157	7	Sololá	702	San José Chacayá	5	Chacayá	5	Mayo	2023-05-16T00:00:00	2024-11-06T20:00:00	6	Velocidad del viento	1.6
96158	7	Sololá	702	San José Chacayá	5	Chacayá	5	Mayo	2023-05-16T00:00:00	2024-11-06T20:00:00	7	Dirección del viento	1.61
96159	7	Sololá	702	San José Chacayá	5	Chacayá	5	Mayo	2023-05-16T00:00:00	2024-11-06T20:00:00	1	Precipitación	0
96160	7	Sololá	702	San José Chacayá	5	Chacayá	5	Mayo	2023-05-16T00:00:00	2024-11-06T20:00:00	8	Radiación solar	0
96161	7	Sololá	702	San José Chacayá	5	Chacayá	5	Mayo	2023-05-16T00:00:00	2024-11-06T21:00:00	2	Temperatura media	14.6
96162	7	Sololá	702	San José Chacayá	5	Chacayá	5	Mayo	2023-05-16T00:00:00	2024-11-06T21:00:00	4	Temperatura máxima	15.1
96163	7	Sololá	702	San José Chacayá	5	Chacayá	5	Mayo	2023-05-16T00:00:00	2024-11-06T21:00:00	3	Temperatura mínima	14.6
96164	7	Sololá	702	San José Chacayá	5	Chacayá	5	Mayo	2023-05-16T00:00:00	2024-11-06T21:00:00	5	Humedad	75
96165	7	Sololá	702	San José Chacayá	5	Chacayá	5	Mayo	2023-05-16T00:00:00	2024-11-06T21:00:00	6	Velocidad del viento	0
96166	7	Sololá	702	San José Chacayá	5	Chacayá	5	Mayo	2023-05-16T00:00:00	2024-11-06T21:00:00	7	Dirección del viento	0
96167	7	Sololá	702	San José Chacayá	5	Chacayá	5	Mayo	2023-05-16T00:00:00	2024-11-06T21:00:00	1	Precipitación	0
96168	7	Sololá	702	San José Chacayá	5	Chacayá	5	Mayo	2023-05-16T00:00:00	2024-11-06T21:00:00	8	Radiación solar	0
96169	7	Sololá	702	San José Chacayá	5	Chacayá	5	Mayo	2023-05-16T00:00:00	2024-11-06T22:00:00	2	Temperatura media	13.6
96170	7	Sololá	702	San José Chacayá	5	Chacayá	5	Mayo	2023-05-16T00:00:00	2024-11-06T22:00:00	4	Temperatura máxima	14.6
96171	7	Sololá	702	San José Chacayá	5	Chacayá	5	Mayo	2023-05-16T00:00:00	2024-11-06T22:00:00	3	Temperatura mínima	13.6
96172	7	Sololá	702	San José Chacayá	5	Chacayá	5	Mayo	2023-05-16T00:00:00	2024-11-06T22:00:00	5	Humedad	75
96173	7	Sololá	702	San José Chacayá	5	Chacayá	5	Mayo	2023-05-16T00:00:00	2024-11-06T22:00:00	6	Velocidad del viento	0
96174	7	Sololá	702	San José Chacayá	5	Chacayá	5	Mayo	2023-05-16T00:00:00	2024-11-06T22:00:00	7	Dirección del viento	0
96175	7	Sololá	702	San José Chacayá	5	Chacayá	5	Mayo	2023-05-16T00:00:00	2024-11-06T22:00:00	1	Precipitación	0
96176	7	Sololá	702	San José Chacayá	5	Chacayá	5	Mayo	2023-05-16T00:00:00	2024-11-06T22:00:00	8	Radiación solar	0
96177	7	Sololá	702	San José Chacayá	5	Chacayá	5	Mayo	2023-05-16T00:00:00	2024-11-06T23:00:00	2	Temperatura media	13.3
96178	7	Sololá	702	San José Chacayá	5	Chacayá	5	Mayo	2023-05-16T00:00:00	2024-11-06T23:00:00	4	Temperatura máxima	13.6
96179	7	Sololá	702	San José Chacayá	5	Chacayá	5	Mayo	2023-05-16T00:00:00	2024-11-06T23:00:00	3	Temperatura mínima	13.1
96180	7	Sololá	702	San José Chacayá	5	Chacayá	5	Mayo	2023-05-16T00:00:00	2024-11-06T23:00:00	5	Humedad	72
96181	7	Sololá	702	San José Chacayá	5	Chacayá	5	Mayo	2023-05-16T00:00:00	2024-11-06T23:00:00	6	Velocidad del viento	1.6
96182	7	Sololá	702	San José Chacayá	5	Chacayá	5	Mayo	2023-05-16T00:00:00	2024-11-06T23:00:00	7	Dirección del viento	1.61
96183	7	Sololá	702	San José Chacayá	5	Chacayá	5	Mayo	2023-05-16T00:00:00	2024-11-06T23:00:00	1	Precipitación	0
96184	7	Sololá	702	San José Chacayá	5	Chacayá	5	Mayo	2023-05-16T00:00:00	2024-11-06T23:00:00	8	Radiación solar	0
96185	7	Sololá	702	San José Chacayá	5	Chacayá	5	Mayo	2023-05-17T00:00:00	2024-11-06T00:00:00	2	Temperatura media	13.7
96186	7	Sololá	702	San José Chacayá	5	Chacayá	5	Mayo	2023-05-17T00:00:00	2024-11-06T00:00:00	4	Temperatura máxima	13.7
96187	7	Sololá	702	San José Chacayá	5	Chacayá	5	Mayo	2023-05-17T00:00:00	2024-11-06T00:00:00	3	Temperatura mínima	13.3
96188	7	Sololá	702	San José Chacayá	5	Chacayá	5	Mayo	2023-05-17T00:00:00	2024-11-06T00:00:00	5	Humedad	71
96189	7	Sololá	702	San José Chacayá	5	Chacayá	5	Mayo	2023-05-17T00:00:00	2024-11-06T00:00:00	6	Velocidad del viento	0
96190	7	Sololá	702	San José Chacayá	5	Chacayá	5	Mayo	2023-05-17T00:00:00	2024-11-06T00:00:00	7	Dirección del viento	0
96191	7	Sololá	702	San José Chacayá	5	Chacayá	5	Mayo	2023-05-17T00:00:00	2024-11-06T00:00:00	1	Precipitación	0
96192	7	Sololá	702	San José Chacayá	5	Chacayá	5	Mayo	2023-05-17T00:00:00	2024-11-06T00:00:00	8	Radiación solar	0
96193	7	Sololá	702	San José Chacayá	5	Chacayá	5	Mayo	2023-05-17T00:00:00	2024-11-06T01:00:00	2	Temperatura media	12.9
96194	7	Sololá	702	San José Chacayá	5	Chacayá	5	Mayo	2023-05-17T00:00:00	2024-11-06T01:00:00	4	Temperatura máxima	13.7
96195	7	Sololá	702	San José Chacayá	5	Chacayá	5	Mayo	2023-05-17T00:00:00	2024-11-06T01:00:00	3	Temperatura mínima	12.9
96196	7	Sololá	702	San José Chacayá	5	Chacayá	5	Mayo	2023-05-17T00:00:00	2024-11-06T01:00:00	5	Humedad	78
96197	7	Sololá	702	San José Chacayá	5	Chacayá	5	Mayo	2023-05-17T00:00:00	2024-11-06T01:00:00	6	Velocidad del viento	1.6
96198	7	Sololá	702	San José Chacayá	5	Chacayá	5	Mayo	2023-05-17T00:00:00	2024-11-06T01:00:00	7	Dirección del viento	1.61
96199	7	Sololá	702	San José Chacayá	5	Chacayá	5	Mayo	2023-05-17T00:00:00	2024-11-06T01:00:00	1	Precipitación	0
96200	7	Sololá	702	San José Chacayá	5	Chacayá	5	Mayo	2023-05-17T00:00:00	2024-11-06T01:00:00	8	Radiación solar	0
96201	7	Sololá	702	San José Chacayá	5	Chacayá	5	Mayo	2023-05-17T00:00:00	2024-11-06T02:00:00	2	Temperatura media	12
96202	7	Sololá	702	San José Chacayá	5	Chacayá	5	Mayo	2023-05-17T00:00:00	2024-11-06T02:00:00	4	Temperatura máxima	12.9
96203	7	Sololá	702	San José Chacayá	5	Chacayá	5	Mayo	2023-05-17T00:00:00	2024-11-06T02:00:00	3	Temperatura mínima	11.9
96204	7	Sololá	702	San José Chacayá	5	Chacayá	5	Mayo	2023-05-17T00:00:00	2024-11-06T02:00:00	5	Humedad	74
96205	7	Sololá	702	San José Chacayá	5	Chacayá	5	Mayo	2023-05-17T00:00:00	2024-11-06T02:00:00	6	Velocidad del viento	1.6
96206	7	Sololá	702	San José Chacayá	5	Chacayá	5	Mayo	2023-05-17T00:00:00	2024-11-06T02:00:00	7	Dirección del viento	1.61
96207	7	Sololá	702	San José Chacayá	5	Chacayá	5	Mayo	2023-05-17T00:00:00	2024-11-06T02:00:00	1	Precipitación	0
96208	7	Sololá	702	San José Chacayá	5	Chacayá	5	Mayo	2023-05-17T00:00:00	2024-11-06T02:00:00	8	Radiación solar	0
96209	7	Sololá	702	San José Chacayá	5	Chacayá	5	Mayo	2023-05-17T00:00:00	2024-11-06T03:00:00	2	Temperatura media	11.6
96210	7	Sololá	702	San José Chacayá	5	Chacayá	5	Mayo	2023-05-17T00:00:00	2024-11-06T03:00:00	4	Temperatura máxima	12
96211	7	Sololá	702	San José Chacayá	5	Chacayá	5	Mayo	2023-05-17T00:00:00	2024-11-06T03:00:00	3	Temperatura mínima	11.6
96212	7	Sololá	702	San José Chacayá	5	Chacayá	5	Mayo	2023-05-17T00:00:00	2024-11-06T03:00:00	5	Humedad	78
96213	7	Sololá	702	San José Chacayá	5	Chacayá	5	Mayo	2023-05-17T00:00:00	2024-11-06T03:00:00	6	Velocidad del viento	3.2
96214	7	Sololá	702	San José Chacayá	5	Chacayá	5	Mayo	2023-05-17T00:00:00	2024-11-06T03:00:00	7	Dirección del viento	3.22
96215	7	Sololá	702	San José Chacayá	5	Chacayá	5	Mayo	2023-05-17T00:00:00	2024-11-06T03:00:00	1	Precipitación	0
96216	7	Sololá	702	San José Chacayá	5	Chacayá	5	Mayo	2023-05-17T00:00:00	2024-11-06T03:00:00	8	Radiación solar	0
96217	7	Sololá	702	San José Chacayá	5	Chacayá	5	Mayo	2023-05-17T00:00:00	2024-11-06T04:00:00	2	Temperatura media	11.2
96218	7	Sololá	702	San José Chacayá	5	Chacayá	5	Mayo	2023-05-17T00:00:00	2024-11-06T04:00:00	4	Temperatura máxima	11.6
96219	7	Sololá	702	San José Chacayá	5	Chacayá	5	Mayo	2023-05-17T00:00:00	2024-11-06T04:00:00	3	Temperatura mínima	11.1
96220	7	Sololá	702	San José Chacayá	5	Chacayá	5	Mayo	2023-05-17T00:00:00	2024-11-06T04:00:00	5	Humedad	80
96221	7	Sololá	702	San José Chacayá	5	Chacayá	5	Mayo	2023-05-17T00:00:00	2024-11-06T04:00:00	6	Velocidad del viento	4.8
96222	7	Sololá	702	San José Chacayá	5	Chacayá	5	Mayo	2023-05-17T00:00:00	2024-11-06T04:00:00	7	Dirección del viento	4.83
96223	7	Sololá	702	San José Chacayá	5	Chacayá	5	Mayo	2023-05-17T00:00:00	2024-11-06T04:00:00	1	Precipitación	0
96224	7	Sololá	702	San José Chacayá	5	Chacayá	5	Mayo	2023-05-17T00:00:00	2024-11-06T04:00:00	8	Radiación solar	0
96225	7	Sololá	702	San José Chacayá	5	Chacayá	5	Mayo	2023-05-17T00:00:00	2024-11-06T05:00:00	2	Temperatura media	10.7
96226	7	Sololá	702	San José Chacayá	5	Chacayá	5	Mayo	2023-05-17T00:00:00	2024-11-06T05:00:00	4	Temperatura máxima	11.2
96227	7	Sololá	702	San José Chacayá	5	Chacayá	5	Mayo	2023-05-17T00:00:00	2024-11-06T05:00:00	3	Temperatura mínima	10.6
96228	7	Sololá	702	San José Chacayá	5	Chacayá	5	Mayo	2023-05-17T00:00:00	2024-11-06T05:00:00	5	Humedad	80
96229	7	Sololá	702	San José Chacayá	5	Chacayá	5	Mayo	2023-05-17T00:00:00	2024-11-06T05:00:00	6	Velocidad del viento	4.8
96230	7	Sololá	702	San José Chacayá	5	Chacayá	5	Mayo	2023-05-17T00:00:00	2024-11-06T05:00:00	7	Dirección del viento	4.83
96231	7	Sololá	702	San José Chacayá	5	Chacayá	5	Mayo	2023-05-17T00:00:00	2024-11-06T05:00:00	1	Precipitación	0
96232	7	Sololá	702	San José Chacayá	5	Chacayá	5	Mayo	2023-05-17T00:00:00	2024-11-06T05:00:00	8	Radiación solar	0
96233	7	Sololá	702	San José Chacayá	5	Chacayá	5	Mayo	2023-05-17T00:00:00	2024-11-06T06:00:00	2	Temperatura media	10.4
96234	7	Sololá	702	San José Chacayá	5	Chacayá	5	Mayo	2023-05-17T00:00:00	2024-11-06T06:00:00	4	Temperatura máxima	10.9
96235	7	Sololá	702	San José Chacayá	5	Chacayá	5	Mayo	2023-05-17T00:00:00	2024-11-06T06:00:00	3	Temperatura mínima	10.4
96236	7	Sololá	702	San José Chacayá	5	Chacayá	5	Mayo	2023-05-17T00:00:00	2024-11-06T06:00:00	5	Humedad	82
96237	7	Sololá	702	San José Chacayá	5	Chacayá	5	Mayo	2023-05-17T00:00:00	2024-11-06T06:00:00	6	Velocidad del viento	3.2
96238	7	Sololá	702	San José Chacayá	5	Chacayá	5	Mayo	2023-05-17T00:00:00	2024-11-06T06:00:00	7	Dirección del viento	3.22
96239	7	Sololá	702	San José Chacayá	5	Chacayá	5	Mayo	2023-05-17T00:00:00	2024-11-06T06:00:00	1	Precipitación	0
96240	7	Sololá	702	San José Chacayá	5	Chacayá	5	Mayo	2023-05-17T00:00:00	2024-11-06T06:00:00	8	Radiación solar	0
96241	7	Sololá	702	San José Chacayá	5	Chacayá	5	Mayo	2023-05-17T00:00:00	2024-11-06T07:00:00	2	Temperatura media	10.3
96242	7	Sololá	702	San José Chacayá	5	Chacayá	5	Mayo	2023-05-17T00:00:00	2024-11-06T07:00:00	4	Temperatura máxima	10.6
96243	7	Sololá	702	San José Chacayá	5	Chacayá	5	Mayo	2023-05-17T00:00:00	2024-11-06T07:00:00	3	Temperatura mínima	10.2
96244	7	Sololá	702	San José Chacayá	5	Chacayá	5	Mayo	2023-05-17T00:00:00	2024-11-06T07:00:00	5	Humedad	80
96245	7	Sololá	702	San José Chacayá	5	Chacayá	5	Mayo	2023-05-17T00:00:00	2024-11-06T07:00:00	6	Velocidad del viento	3.2
96246	7	Sololá	702	San José Chacayá	5	Chacayá	5	Mayo	2023-05-17T00:00:00	2024-11-06T07:00:00	7	Dirección del viento	3.22
96247	7	Sololá	702	San José Chacayá	5	Chacayá	5	Mayo	2023-05-17T00:00:00	2024-11-06T07:00:00	1	Precipitación	0
96248	7	Sololá	702	San José Chacayá	5	Chacayá	5	Mayo	2023-05-17T00:00:00	2024-11-06T07:00:00	8	Radiación solar	5
96249	7	Sololá	702	San José Chacayá	5	Chacayá	5	Mayo	2023-05-17T00:00:00	2024-11-06T08:00:00	2	Temperatura media	12.6
96250	7	Sololá	702	San José Chacayá	5	Chacayá	5	Mayo	2023-05-17T00:00:00	2024-11-06T08:00:00	4	Temperatura máxima	12.6
96251	7	Sololá	702	San José Chacayá	5	Chacayá	5	Mayo	2023-05-17T00:00:00	2024-11-06T08:00:00	3	Temperatura mínima	10.3
96252	7	Sololá	702	San José Chacayá	5	Chacayá	5	Mayo	2023-05-17T00:00:00	2024-11-06T08:00:00	5	Humedad	80
96253	7	Sololá	702	San José Chacayá	5	Chacayá	5	Mayo	2023-05-17T00:00:00	2024-11-06T08:00:00	6	Velocidad del viento	3.2
96254	7	Sololá	702	San José Chacayá	5	Chacayá	5	Mayo	2023-05-17T00:00:00	2024-11-06T08:00:00	7	Dirección del viento	3.22
96255	7	Sololá	702	San José Chacayá	5	Chacayá	5	Mayo	2023-05-17T00:00:00	2024-11-06T08:00:00	1	Precipitación	0
96256	7	Sololá	702	San José Chacayá	5	Chacayá	5	Mayo	2023-05-17T00:00:00	2024-11-06T08:00:00	8	Radiación solar	33
96257	7	Sololá	702	San José Chacayá	5	Chacayá	5	Mayo	2023-05-17T00:00:00	2024-11-06T09:00:00	2	Temperatura media	16.7
96258	7	Sololá	702	San José Chacayá	5	Chacayá	5	Mayo	2023-05-17T00:00:00	2024-11-06T09:00:00	4	Temperatura máxima	16.7
96259	7	Sololá	702	San José Chacayá	5	Chacayá	5	Mayo	2023-05-17T00:00:00	2024-11-06T09:00:00	3	Temperatura mínima	12.6
96260	7	Sololá	702	San José Chacayá	5	Chacayá	5	Mayo	2023-05-17T00:00:00	2024-11-06T09:00:00	5	Humedad	75
96261	7	Sololá	702	San José Chacayá	5	Chacayá	5	Mayo	2023-05-17T00:00:00	2024-11-06T09:00:00	6	Velocidad del viento	1.6
96262	7	Sololá	702	San José Chacayá	5	Chacayá	5	Mayo	2023-05-17T00:00:00	2024-11-06T09:00:00	7	Dirección del viento	1.61
96263	7	Sololá	702	San José Chacayá	5	Chacayá	5	Mayo	2023-05-17T00:00:00	2024-11-06T09:00:00	1	Precipitación	0
96264	7	Sololá	702	San José Chacayá	5	Chacayá	5	Mayo	2023-05-17T00:00:00	2024-11-06T09:00:00	8	Radiación solar	72
96265	7	Sololá	702	San José Chacayá	5	Chacayá	5	Mayo	2023-05-17T00:00:00	2024-11-06T10:00:00	2	Temperatura media	19.8
96266	7	Sololá	702	San José Chacayá	5	Chacayá	5	Mayo	2023-05-17T00:00:00	2024-11-06T10:00:00	4	Temperatura máxima	19.8
96267	7	Sololá	702	San José Chacayá	5	Chacayá	5	Mayo	2023-05-17T00:00:00	2024-11-06T10:00:00	3	Temperatura mínima	16.7
96268	7	Sololá	702	San José Chacayá	5	Chacayá	5	Mayo	2023-05-17T00:00:00	2024-11-06T10:00:00	5	Humedad	67
96269	7	Sololá	702	San José Chacayá	5	Chacayá	5	Mayo	2023-05-17T00:00:00	2024-11-06T10:00:00	6	Velocidad del viento	3.2
96270	7	Sololá	702	San José Chacayá	5	Chacayá	5	Mayo	2023-05-17T00:00:00	2024-11-06T10:00:00	7	Dirección del viento	3.22
96271	7	Sololá	702	San José Chacayá	5	Chacayá	5	Mayo	2023-05-17T00:00:00	2024-11-06T10:00:00	1	Precipitación	0
96272	7	Sololá	702	San José Chacayá	5	Chacayá	5	Mayo	2023-05-17T00:00:00	2024-11-06T10:00:00	8	Radiación solar	603
96273	7	Sololá	702	San José Chacayá	5	Chacayá	5	Mayo	2023-05-17T00:00:00	2024-11-06T11:00:00	2	Temperatura media	21.1
96274	7	Sololá	702	San José Chacayá	5	Chacayá	5	Mayo	2023-05-17T00:00:00	2024-11-06T11:00:00	4	Temperatura máxima	21.1
96275	7	Sololá	702	San José Chacayá	5	Chacayá	5	Mayo	2023-05-17T00:00:00	2024-11-06T11:00:00	3	Temperatura mínima	19.8
96276	7	Sololá	702	San José Chacayá	5	Chacayá	5	Mayo	2023-05-17T00:00:00	2024-11-06T11:00:00	5	Humedad	61
96277	7	Sololá	702	San José Chacayá	5	Chacayá	5	Mayo	2023-05-17T00:00:00	2024-11-06T11:00:00	6	Velocidad del viento	6.4
96278	7	Sololá	702	San José Chacayá	5	Chacayá	5	Mayo	2023-05-17T00:00:00	2024-11-06T11:00:00	7	Dirección del viento	6.44
96279	7	Sololá	702	San José Chacayá	5	Chacayá	5	Mayo	2023-05-17T00:00:00	2024-11-06T11:00:00	1	Precipitación	0
96280	7	Sololá	702	San José Chacayá	5	Chacayá	5	Mayo	2023-05-17T00:00:00	2024-11-06T11:00:00	8	Radiación solar	795
96281	7	Sololá	702	San José Chacayá	5	Chacayá	5	Mayo	2023-05-17T00:00:00	2024-11-06T12:00:00	2	Temperatura media	22.4
96282	7	Sololá	702	San José Chacayá	5	Chacayá	5	Mayo	2023-05-17T00:00:00	2024-11-06T12:00:00	4	Temperatura máxima	22.4
96283	7	Sololá	702	San José Chacayá	5	Chacayá	5	Mayo	2023-05-17T00:00:00	2024-11-06T12:00:00	3	Temperatura mínima	20.8
96284	7	Sololá	702	San José Chacayá	5	Chacayá	5	Mayo	2023-05-17T00:00:00	2024-11-06T12:00:00	5	Humedad	57
96285	7	Sololá	702	San José Chacayá	5	Chacayá	5	Mayo	2023-05-17T00:00:00	2024-11-06T12:00:00	6	Velocidad del viento	6.4
96286	7	Sololá	702	San José Chacayá	5	Chacayá	5	Mayo	2023-05-17T00:00:00	2024-11-06T12:00:00	7	Dirección del viento	6.44
96287	7	Sololá	702	San José Chacayá	5	Chacayá	5	Mayo	2023-05-17T00:00:00	2024-11-06T12:00:00	1	Precipitación	0
96288	7	Sololá	702	San José Chacayá	5	Chacayá	5	Mayo	2023-05-17T00:00:00	2024-11-06T12:00:00	8	Radiación solar	921
96289	7	Sololá	702	San José Chacayá	5	Chacayá	5	Mayo	2023-05-17T00:00:00	2024-11-06T13:00:00	2	Temperatura media	22
96290	7	Sololá	702	San José Chacayá	5	Chacayá	5	Mayo	2023-05-17T00:00:00	2024-11-06T13:00:00	4	Temperatura máxima	22.4
96291	7	Sololá	702	San José Chacayá	5	Chacayá	5	Mayo	2023-05-17T00:00:00	2024-11-06T13:00:00	3	Temperatura mínima	21.8
96292	7	Sololá	702	San José Chacayá	5	Chacayá	5	Mayo	2023-05-17T00:00:00	2024-11-06T13:00:00	5	Humedad	62
96293	7	Sololá	702	San José Chacayá	5	Chacayá	5	Mayo	2023-05-17T00:00:00	2024-11-06T13:00:00	6	Velocidad del viento	6.4
96294	7	Sololá	702	San José Chacayá	5	Chacayá	5	Mayo	2023-05-17T00:00:00	2024-11-06T13:00:00	7	Dirección del viento	6.44
96295	7	Sololá	702	San José Chacayá	5	Chacayá	5	Mayo	2023-05-17T00:00:00	2024-11-06T13:00:00	1	Precipitación	0
96296	7	Sololá	702	San José Chacayá	5	Chacayá	5	Mayo	2023-05-17T00:00:00	2024-11-06T13:00:00	8	Radiación solar	988
96297	7	Sololá	702	San José Chacayá	5	Chacayá	5	Mayo	2023-05-17T00:00:00	2024-11-06T14:00:00	2	Temperatura media	22.7
96298	7	Sololá	702	San José Chacayá	5	Chacayá	5	Mayo	2023-05-17T00:00:00	2024-11-06T14:00:00	4	Temperatura máxima	22.7
96299	7	Sololá	702	San José Chacayá	5	Chacayá	5	Mayo	2023-05-17T00:00:00	2024-11-06T14:00:00	3	Temperatura mínima	22
96300	7	Sololá	702	San José Chacayá	5	Chacayá	5	Mayo	2023-05-17T00:00:00	2024-11-06T14:00:00	5	Humedad	64
96301	7	Sololá	702	San José Chacayá	5	Chacayá	5	Mayo	2023-05-17T00:00:00	2024-11-06T14:00:00	6	Velocidad del viento	6.4
96302	7	Sololá	702	San José Chacayá	5	Chacayá	5	Mayo	2023-05-17T00:00:00	2024-11-06T14:00:00	7	Dirección del viento	6.44
96303	7	Sololá	702	San José Chacayá	5	Chacayá	5	Mayo	2023-05-17T00:00:00	2024-11-06T14:00:00	1	Precipitación	0
96304	7	Sololá	702	San José Chacayá	5	Chacayá	5	Mayo	2023-05-17T00:00:00	2024-11-06T14:00:00	8	Radiación solar	987
96305	7	Sololá	702	San José Chacayá	5	Chacayá	5	Mayo	2023-05-17T00:00:00	2024-11-06T15:00:00	2	Temperatura media	20.8
96306	7	Sololá	702	San José Chacayá	5	Chacayá	5	Mayo	2023-05-17T00:00:00	2024-11-06T15:00:00	4	Temperatura máxima	22.7
96307	7	Sololá	702	San José Chacayá	5	Chacayá	5	Mayo	2023-05-17T00:00:00	2024-11-06T15:00:00	3	Temperatura mínima	20.8
96308	7	Sololá	702	San José Chacayá	5	Chacayá	5	Mayo	2023-05-17T00:00:00	2024-11-06T15:00:00	5	Humedad	73
96309	7	Sololá	702	San José Chacayá	5	Chacayá	5	Mayo	2023-05-17T00:00:00	2024-11-06T15:00:00	6	Velocidad del viento	8
96310	7	Sololá	702	San José Chacayá	5	Chacayá	5	Mayo	2023-05-17T00:00:00	2024-11-06T15:00:00	7	Dirección del viento	8.05
96311	7	Sololá	702	San José Chacayá	5	Chacayá	5	Mayo	2023-05-17T00:00:00	2024-11-06T15:00:00	1	Precipitación	0
96312	7	Sololá	702	San José Chacayá	5	Chacayá	5	Mayo	2023-05-17T00:00:00	2024-11-06T15:00:00	8	Radiación solar	957
96313	7	Sololá	702	San José Chacayá	5	Chacayá	5	Mayo	2023-05-17T00:00:00	2024-11-06T16:00:00	2	Temperatura media	18.5
96314	7	Sololá	702	San José Chacayá	5	Chacayá	5	Mayo	2023-05-17T00:00:00	2024-11-06T16:00:00	4	Temperatura máxima	20.8
96315	7	Sololá	702	San José Chacayá	5	Chacayá	5	Mayo	2023-05-17T00:00:00	2024-11-06T16:00:00	3	Temperatura mínima	18.5
96316	7	Sololá	702	San José Chacayá	5	Chacayá	5	Mayo	2023-05-17T00:00:00	2024-11-06T16:00:00	5	Humedad	82
96317	7	Sololá	702	San José Chacayá	5	Chacayá	5	Mayo	2023-05-17T00:00:00	2024-11-06T16:00:00	6	Velocidad del viento	6.4
96318	7	Sololá	702	San José Chacayá	5	Chacayá	5	Mayo	2023-05-17T00:00:00	2024-11-06T16:00:00	7	Dirección del viento	6.44
96319	7	Sololá	702	San José Chacayá	5	Chacayá	5	Mayo	2023-05-17T00:00:00	2024-11-06T16:00:00	1	Precipitación	0
96320	7	Sololá	702	San José Chacayá	5	Chacayá	5	Mayo	2023-05-17T00:00:00	2024-11-06T16:00:00	8	Radiación solar	167
96321	7	Sololá	702	San José Chacayá	5	Chacayá	5	Mayo	2023-05-17T00:00:00	2024-11-06T17:00:00	2	Temperatura media	18.3
96322	7	Sololá	702	San José Chacayá	5	Chacayá	5	Mayo	2023-05-17T00:00:00	2024-11-06T17:00:00	4	Temperatura máxima	18.5
96323	7	Sololá	702	San José Chacayá	5	Chacayá	5	Mayo	2023-05-17T00:00:00	2024-11-06T17:00:00	3	Temperatura mínima	18.2
96324	7	Sololá	702	San José Chacayá	5	Chacayá	5	Mayo	2023-05-17T00:00:00	2024-11-06T17:00:00	5	Humedad	82
96325	7	Sololá	702	San José Chacayá	5	Chacayá	5	Mayo	2023-05-17T00:00:00	2024-11-06T17:00:00	6	Velocidad del viento	4.8
96326	7	Sololá	702	San José Chacayá	5	Chacayá	5	Mayo	2023-05-17T00:00:00	2024-11-06T17:00:00	7	Dirección del viento	4.83
96327	7	Sololá	702	San José Chacayá	5	Chacayá	5	Mayo	2023-05-17T00:00:00	2024-11-06T17:00:00	1	Precipitación	0
96328	7	Sololá	702	San José Chacayá	5	Chacayá	5	Mayo	2023-05-17T00:00:00	2024-11-06T17:00:00	8	Radiación solar	145
96329	7	Sololá	702	San José Chacayá	5	Chacayá	5	Mayo	2023-05-17T00:00:00	2024-11-06T18:00:00	2	Temperatura media	16.9
96330	7	Sololá	702	San José Chacayá	5	Chacayá	5	Mayo	2023-05-17T00:00:00	2024-11-06T18:00:00	4	Temperatura máxima	18.3
96331	7	Sololá	702	San José Chacayá	5	Chacayá	5	Mayo	2023-05-17T00:00:00	2024-11-06T18:00:00	3	Temperatura mínima	16.9
96332	7	Sololá	702	San José Chacayá	5	Chacayá	5	Mayo	2023-05-17T00:00:00	2024-11-06T18:00:00	5	Humedad	78
96333	7	Sololá	702	San José Chacayá	5	Chacayá	5	Mayo	2023-05-17T00:00:00	2024-11-06T18:00:00	6	Velocidad del viento	3.2
96334	7	Sololá	702	San José Chacayá	5	Chacayá	5	Mayo	2023-05-17T00:00:00	2024-11-06T18:00:00	7	Dirección del viento	3.22
96335	7	Sololá	702	San José Chacayá	5	Chacayá	5	Mayo	2023-05-17T00:00:00	2024-11-06T18:00:00	1	Precipitación	0
96336	7	Sololá	702	San José Chacayá	5	Chacayá	5	Mayo	2023-05-17T00:00:00	2024-11-06T18:00:00	8	Radiación solar	33
96337	7	Sololá	702	San José Chacayá	5	Chacayá	5	Mayo	2023-05-17T00:00:00	2024-11-06T19:00:00	2	Temperatura media	16.5
96338	7	Sololá	702	San José Chacayá	5	Chacayá	5	Mayo	2023-05-17T00:00:00	2024-11-06T19:00:00	4	Temperatura máxima	16.9
96339	7	Sololá	702	San José Chacayá	5	Chacayá	5	Mayo	2023-05-17T00:00:00	2024-11-06T19:00:00	3	Temperatura mínima	16.5
96340	7	Sololá	702	San José Chacayá	5	Chacayá	5	Mayo	2023-05-17T00:00:00	2024-11-06T19:00:00	5	Humedad	79
96341	7	Sololá	702	San José Chacayá	5	Chacayá	5	Mayo	2023-05-17T00:00:00	2024-11-06T19:00:00	6	Velocidad del viento	3.2
96342	7	Sololá	702	San José Chacayá	5	Chacayá	5	Mayo	2023-05-17T00:00:00	2024-11-06T19:00:00	7	Dirección del viento	3.22
96343	7	Sololá	702	San José Chacayá	5	Chacayá	5	Mayo	2023-05-17T00:00:00	2024-11-06T19:00:00	1	Precipitación	0
96344	7	Sololá	702	San José Chacayá	5	Chacayá	5	Mayo	2023-05-17T00:00:00	2024-11-06T19:00:00	8	Radiación solar	0
96345	7	Sololá	702	San José Chacayá	5	Chacayá	5	Mayo	2023-05-17T00:00:00	2024-11-06T20:00:00	2	Temperatura media	15.8
96346	7	Sololá	702	San José Chacayá	5	Chacayá	5	Mayo	2023-05-17T00:00:00	2024-11-06T20:00:00	4	Temperatura máxima	16.5
96347	7	Sololá	702	San José Chacayá	5	Chacayá	5	Mayo	2023-05-17T00:00:00	2024-11-06T20:00:00	3	Temperatura mínima	15.8
96348	7	Sololá	702	San José Chacayá	5	Chacayá	5	Mayo	2023-05-17T00:00:00	2024-11-06T20:00:00	5	Humedad	73
96349	7	Sololá	702	San José Chacayá	5	Chacayá	5	Mayo	2023-05-17T00:00:00	2024-11-06T20:00:00	6	Velocidad del viento	0
96350	7	Sololá	702	San José Chacayá	5	Chacayá	5	Mayo	2023-05-17T00:00:00	2024-11-06T20:00:00	7	Dirección del viento	0
96351	7	Sololá	702	San José Chacayá	5	Chacayá	5	Mayo	2023-05-17T00:00:00	2024-11-06T20:00:00	1	Precipitación	0.2
96352	7	Sololá	702	San José Chacayá	5	Chacayá	5	Mayo	2023-05-17T00:00:00	2024-11-06T20:00:00	8	Radiación solar	0
96353	7	Sololá	702	San José Chacayá	5	Chacayá	5	Mayo	2023-05-17T00:00:00	2024-11-06T21:00:00	2	Temperatura media	15.4
96354	7	Sololá	702	San José Chacayá	5	Chacayá	5	Mayo	2023-05-17T00:00:00	2024-11-06T21:00:00	4	Temperatura máxima	15.9
96355	7	Sololá	702	San José Chacayá	5	Chacayá	5	Mayo	2023-05-17T00:00:00	2024-11-06T21:00:00	3	Temperatura mínima	15.4
96356	7	Sololá	702	San José Chacayá	5	Chacayá	5	Mayo	2023-05-17T00:00:00	2024-11-06T21:00:00	5	Humedad	73
96357	7	Sololá	702	San José Chacayá	5	Chacayá	5	Mayo	2023-05-17T00:00:00	2024-11-06T21:00:00	6	Velocidad del viento	1.6
96358	7	Sololá	702	San José Chacayá	5	Chacayá	5	Mayo	2023-05-17T00:00:00	2024-11-06T21:00:00	7	Dirección del viento	1.61
96359	7	Sololá	702	San José Chacayá	5	Chacayá	5	Mayo	2023-05-17T00:00:00	2024-11-06T21:00:00	1	Precipitación	0
96360	7	Sololá	702	San José Chacayá	5	Chacayá	5	Mayo	2023-05-17T00:00:00	2024-11-06T21:00:00	8	Radiación solar	0
96361	7	Sololá	702	San José Chacayá	5	Chacayá	5	Mayo	2023-05-17T00:00:00	2024-11-06T22:00:00	2	Temperatura media	14.4
96362	7	Sololá	702	San José Chacayá	5	Chacayá	5	Mayo	2023-05-17T00:00:00	2024-11-06T22:00:00	4	Temperatura máxima	15.4
96363	7	Sololá	702	San José Chacayá	5	Chacayá	5	Mayo	2023-05-17T00:00:00	2024-11-06T22:00:00	3	Temperatura mínima	14.4
96364	7	Sololá	702	San José Chacayá	5	Chacayá	5	Mayo	2023-05-17T00:00:00	2024-11-06T22:00:00	5	Humedad	70
96365	7	Sololá	702	San José Chacayá	5	Chacayá	5	Mayo	2023-05-17T00:00:00	2024-11-06T22:00:00	6	Velocidad del viento	0
96366	7	Sololá	702	San José Chacayá	5	Chacayá	5	Mayo	2023-05-17T00:00:00	2024-11-06T22:00:00	7	Dirección del viento	0
96367	7	Sololá	702	San José Chacayá	5	Chacayá	5	Mayo	2023-05-17T00:00:00	2024-11-06T22:00:00	1	Precipitación	0
96368	7	Sololá	702	San José Chacayá	5	Chacayá	5	Mayo	2023-05-17T00:00:00	2024-11-06T22:00:00	8	Radiación solar	0
96369	7	Sololá	702	San José Chacayá	5	Chacayá	5	Mayo	2023-05-17T00:00:00	2024-11-06T23:00:00	2	Temperatura media	13.8
96370	7	Sololá	702	San José Chacayá	5	Chacayá	5	Mayo	2023-05-17T00:00:00	2024-11-06T23:00:00	4	Temperatura máxima	14.4
96371	7	Sololá	702	San José Chacayá	5	Chacayá	5	Mayo	2023-05-17T00:00:00	2024-11-06T23:00:00	3	Temperatura mínima	13.8
96372	7	Sololá	702	San José Chacayá	5	Chacayá	5	Mayo	2023-05-17T00:00:00	2024-11-06T23:00:00	5	Humedad	73
96373	7	Sololá	702	San José Chacayá	5	Chacayá	5	Mayo	2023-05-17T00:00:00	2024-11-06T23:00:00	6	Velocidad del viento	1.6
96374	7	Sololá	702	San José Chacayá	5	Chacayá	5	Mayo	2023-05-17T00:00:00	2024-11-06T23:00:00	7	Dirección del viento	1.61
96375	7	Sololá	702	San José Chacayá	5	Chacayá	5	Mayo	2023-05-17T00:00:00	2024-11-06T23:00:00	1	Precipitación	0
96376	7	Sololá	702	San José Chacayá	5	Chacayá	5	Mayo	2023-05-17T00:00:00	2024-11-06T23:00:00	8	Radiación solar	0
96377	7	Sololá	702	San José Chacayá	5	Chacayá	5	Mayo	2023-05-18T00:00:00	2024-11-06T00:00:00	2	Temperatura media	14.1
96378	7	Sololá	702	San José Chacayá	5	Chacayá	5	Mayo	2023-05-18T00:00:00	2024-11-06T00:00:00	4	Temperatura máxima	14.2
96379	7	Sololá	702	San José Chacayá	5	Chacayá	5	Mayo	2023-05-18T00:00:00	2024-11-06T00:00:00	3	Temperatura mínima	13.8
96380	7	Sololá	702	San José Chacayá	5	Chacayá	5	Mayo	2023-05-18T00:00:00	2024-11-06T00:00:00	5	Humedad	72
96381	7	Sololá	702	San José Chacayá	5	Chacayá	5	Mayo	2023-05-18T00:00:00	2024-11-06T00:00:00	6	Velocidad del viento	1.6
96382	7	Sololá	702	San José Chacayá	5	Chacayá	5	Mayo	2023-05-18T00:00:00	2024-11-06T00:00:00	7	Dirección del viento	1.61
96383	7	Sololá	702	San José Chacayá	5	Chacayá	5	Mayo	2023-05-18T00:00:00	2024-11-06T00:00:00	1	Precipitación	0
96384	7	Sololá	702	San José Chacayá	5	Chacayá	5	Mayo	2023-05-18T00:00:00	2024-11-06T00:00:00	8	Radiación solar	0
96385	7	Sololá	702	San José Chacayá	5	Chacayá	5	Mayo	2023-05-18T00:00:00	2024-11-06T01:00:00	2	Temperatura media	13.4
96386	7	Sololá	702	San José Chacayá	5	Chacayá	5	Mayo	2023-05-18T00:00:00	2024-11-06T01:00:00	4	Temperatura máxima	14.1
96387	7	Sololá	702	San José Chacayá	5	Chacayá	5	Mayo	2023-05-18T00:00:00	2024-11-06T01:00:00	3	Temperatura mínima	13.4
96388	7	Sololá	702	San José Chacayá	5	Chacayá	5	Mayo	2023-05-18T00:00:00	2024-11-06T01:00:00	5	Humedad	71
96389	7	Sololá	702	San José Chacayá	5	Chacayá	5	Mayo	2023-05-18T00:00:00	2024-11-06T01:00:00	6	Velocidad del viento	1.6
96390	7	Sololá	702	San José Chacayá	5	Chacayá	5	Mayo	2023-05-18T00:00:00	2024-11-06T01:00:00	7	Dirección del viento	1.61
96391	7	Sololá	702	San José Chacayá	5	Chacayá	5	Mayo	2023-05-18T00:00:00	2024-11-06T01:00:00	1	Precipitación	0
96392	7	Sololá	702	San José Chacayá	5	Chacayá	5	Mayo	2023-05-18T00:00:00	2024-11-06T01:00:00	8	Radiación solar	0
96393	7	Sololá	702	San José Chacayá	5	Chacayá	5	Mayo	2023-05-18T00:00:00	2024-11-06T02:00:00	2	Temperatura media	12.8
96394	7	Sololá	702	San José Chacayá	5	Chacayá	5	Mayo	2023-05-18T00:00:00	2024-11-06T02:00:00	4	Temperatura máxima	13.4
96395	7	Sololá	702	San José Chacayá	5	Chacayá	5	Mayo	2023-05-18T00:00:00	2024-11-06T02:00:00	3	Temperatura mínima	12.8
96396	7	Sololá	702	San José Chacayá	5	Chacayá	5	Mayo	2023-05-18T00:00:00	2024-11-06T02:00:00	5	Humedad	74
96397	7	Sololá	702	San José Chacayá	5	Chacayá	5	Mayo	2023-05-18T00:00:00	2024-11-06T02:00:00	6	Velocidad del viento	1.6
96398	7	Sololá	702	San José Chacayá	5	Chacayá	5	Mayo	2023-05-18T00:00:00	2024-11-06T02:00:00	7	Dirección del viento	1.61
96399	7	Sololá	702	San José Chacayá	5	Chacayá	5	Mayo	2023-05-18T00:00:00	2024-11-06T02:00:00	1	Precipitación	0
96400	7	Sololá	702	San José Chacayá	5	Chacayá	5	Mayo	2023-05-18T00:00:00	2024-11-06T02:00:00	8	Radiación solar	0
96401	7	Sololá	702	San José Chacayá	5	Chacayá	5	Mayo	2023-05-18T00:00:00	2024-11-06T03:00:00	2	Temperatura media	12.3
96402	7	Sololá	702	San José Chacayá	5	Chacayá	5	Mayo	2023-05-18T00:00:00	2024-11-06T03:00:00	4	Temperatura máxima	12.8
96403	7	Sololá	702	San José Chacayá	5	Chacayá	5	Mayo	2023-05-18T00:00:00	2024-11-06T03:00:00	3	Temperatura mínima	12.1
96404	7	Sololá	702	San José Chacayá	5	Chacayá	5	Mayo	2023-05-18T00:00:00	2024-11-06T03:00:00	5	Humedad	72
96405	7	Sololá	702	San José Chacayá	5	Chacayá	5	Mayo	2023-05-18T00:00:00	2024-11-06T03:00:00	6	Velocidad del viento	1.6
96406	7	Sololá	702	San José Chacayá	5	Chacayá	5	Mayo	2023-05-18T00:00:00	2024-11-06T03:00:00	7	Dirección del viento	1.61
96407	7	Sololá	702	San José Chacayá	5	Chacayá	5	Mayo	2023-05-18T00:00:00	2024-11-06T03:00:00	1	Precipitación	0
96408	7	Sololá	702	San José Chacayá	5	Chacayá	5	Mayo	2023-05-18T00:00:00	2024-11-06T03:00:00	8	Radiación solar	0
96409	7	Sololá	702	San José Chacayá	5	Chacayá	5	Mayo	2023-05-18T00:00:00	2024-11-06T04:00:00	2	Temperatura media	11.9
96410	7	Sololá	702	San José Chacayá	5	Chacayá	5	Mayo	2023-05-18T00:00:00	2024-11-06T04:00:00	4	Temperatura máxima	12.3
96411	7	Sololá	702	San José Chacayá	5	Chacayá	5	Mayo	2023-05-18T00:00:00	2024-11-06T04:00:00	3	Temperatura mínima	11.8
96412	7	Sololá	702	San José Chacayá	5	Chacayá	5	Mayo	2023-05-18T00:00:00	2024-11-06T04:00:00	5	Humedad	75
96413	7	Sololá	702	San José Chacayá	5	Chacayá	5	Mayo	2023-05-18T00:00:00	2024-11-06T04:00:00	6	Velocidad del viento	3.2
96414	7	Sololá	702	San José Chacayá	5	Chacayá	5	Mayo	2023-05-18T00:00:00	2024-11-06T04:00:00	7	Dirección del viento	3.22
96415	7	Sololá	702	San José Chacayá	5	Chacayá	5	Mayo	2023-05-18T00:00:00	2024-11-06T04:00:00	1	Precipitación	0
96416	7	Sololá	702	San José Chacayá	5	Chacayá	5	Mayo	2023-05-18T00:00:00	2024-11-06T04:00:00	8	Radiación solar	0
96417	7	Sololá	702	San José Chacayá	5	Chacayá	5	Mayo	2023-05-18T00:00:00	2024-11-06T05:00:00	2	Temperatura media	11.4
96418	7	Sololá	702	San José Chacayá	5	Chacayá	5	Mayo	2023-05-18T00:00:00	2024-11-06T05:00:00	4	Temperatura máxima	11.9
96419	7	Sololá	702	San José Chacayá	5	Chacayá	5	Mayo	2023-05-18T00:00:00	2024-11-06T05:00:00	3	Temperatura mínima	11.4
96420	7	Sololá	702	San José Chacayá	5	Chacayá	5	Mayo	2023-05-18T00:00:00	2024-11-06T05:00:00	5	Humedad	77
96421	7	Sololá	702	San José Chacayá	5	Chacayá	5	Mayo	2023-05-18T00:00:00	2024-11-06T05:00:00	6	Velocidad del viento	3.2
96422	7	Sololá	702	San José Chacayá	5	Chacayá	5	Mayo	2023-05-18T00:00:00	2024-11-06T05:00:00	7	Dirección del viento	3.22
96423	7	Sololá	702	San José Chacayá	5	Chacayá	5	Mayo	2023-05-18T00:00:00	2024-11-06T05:00:00	1	Precipitación	0
96424	7	Sololá	702	San José Chacayá	5	Chacayá	5	Mayo	2023-05-18T00:00:00	2024-11-06T05:00:00	8	Radiación solar	0
96425	7	Sololá	702	San José Chacayá	5	Chacayá	5	Mayo	2023-05-18T00:00:00	2024-11-06T06:00:00	2	Temperatura media	11.1
96426	7	Sololá	702	San José Chacayá	5	Chacayá	5	Mayo	2023-05-18T00:00:00	2024-11-06T06:00:00	4	Temperatura máxima	11.4
96427	7	Sololá	702	San José Chacayá	5	Chacayá	5	Mayo	2023-05-18T00:00:00	2024-11-06T06:00:00	3	Temperatura mínima	11
96428	7	Sololá	702	San José Chacayá	5	Chacayá	5	Mayo	2023-05-18T00:00:00	2024-11-06T06:00:00	5	Humedad	74
96429	7	Sololá	702	San José Chacayá	5	Chacayá	5	Mayo	2023-05-18T00:00:00	2024-11-06T06:00:00	6	Velocidad del viento	3.2
96430	7	Sololá	702	San José Chacayá	5	Chacayá	5	Mayo	2023-05-18T00:00:00	2024-11-06T06:00:00	7	Dirección del viento	3.22
96431	7	Sololá	702	San José Chacayá	5	Chacayá	5	Mayo	2023-05-18T00:00:00	2024-11-06T06:00:00	1	Precipitación	0
96432	7	Sololá	702	San José Chacayá	5	Chacayá	5	Mayo	2023-05-18T00:00:00	2024-11-06T06:00:00	8	Radiación solar	0
96433	7	Sololá	702	San José Chacayá	5	Chacayá	5	Mayo	2023-05-18T00:00:00	2024-11-06T07:00:00	2	Temperatura media	10.8
96434	7	Sololá	702	San José Chacayá	5	Chacayá	5	Mayo	2023-05-18T00:00:00	2024-11-06T07:00:00	4	Temperatura máxima	11.1
96435	7	Sololá	702	San José Chacayá	5	Chacayá	5	Mayo	2023-05-18T00:00:00	2024-11-06T07:00:00	3	Temperatura mínima	10.6
96436	7	Sololá	702	San José Chacayá	5	Chacayá	5	Mayo	2023-05-18T00:00:00	2024-11-06T07:00:00	5	Humedad	76
96437	7	Sololá	702	San José Chacayá	5	Chacayá	5	Mayo	2023-05-18T00:00:00	2024-11-06T07:00:00	6	Velocidad del viento	3.2
96438	7	Sololá	702	San José Chacayá	5	Chacayá	5	Mayo	2023-05-18T00:00:00	2024-11-06T07:00:00	7	Dirección del viento	3.22
96439	7	Sololá	702	San José Chacayá	5	Chacayá	5	Mayo	2023-05-18T00:00:00	2024-11-06T07:00:00	1	Precipitación	0
96440	7	Sololá	702	San José Chacayá	5	Chacayá	5	Mayo	2023-05-18T00:00:00	2024-11-06T07:00:00	8	Radiación solar	7
96441	7	Sololá	702	San José Chacayá	5	Chacayá	5	Mayo	2023-05-18T00:00:00	2024-11-06T08:00:00	2	Temperatura media	13.2
96442	7	Sololá	702	San José Chacayá	5	Chacayá	5	Mayo	2023-05-18T00:00:00	2024-11-06T08:00:00	4	Temperatura máxima	13.2
96443	7	Sololá	702	San José Chacayá	5	Chacayá	5	Mayo	2023-05-18T00:00:00	2024-11-06T08:00:00	3	Temperatura mínima	10.7
96444	7	Sololá	702	San José Chacayá	5	Chacayá	5	Mayo	2023-05-18T00:00:00	2024-11-06T08:00:00	5	Humedad	80
96445	7	Sololá	702	San José Chacayá	5	Chacayá	5	Mayo	2023-05-18T00:00:00	2024-11-06T08:00:00	6	Velocidad del viento	3.2
96446	7	Sololá	702	San José Chacayá	5	Chacayá	5	Mayo	2023-05-18T00:00:00	2024-11-06T08:00:00	7	Dirección del viento	3.22
96447	7	Sololá	702	San José Chacayá	5	Chacayá	5	Mayo	2023-05-18T00:00:00	2024-11-06T08:00:00	1	Precipitación	0.2
96448	7	Sololá	702	San José Chacayá	5	Chacayá	5	Mayo	2023-05-18T00:00:00	2024-11-06T08:00:00	8	Radiación solar	63
96449	7	Sololá	702	San José Chacayá	5	Chacayá	5	Mayo	2023-05-18T00:00:00	2024-11-06T09:00:00	2	Temperatura media	16.7
96450	7	Sololá	702	San José Chacayá	5	Chacayá	5	Mayo	2023-05-18T00:00:00	2024-11-06T09:00:00	4	Temperatura máxima	16.7
96451	7	Sololá	702	San José Chacayá	5	Chacayá	5	Mayo	2023-05-18T00:00:00	2024-11-06T09:00:00	3	Temperatura mínima	13.2
96452	7	Sololá	702	San José Chacayá	5	Chacayá	5	Mayo	2023-05-18T00:00:00	2024-11-06T09:00:00	5	Humedad	81
96453	7	Sololá	702	San José Chacayá	5	Chacayá	5	Mayo	2023-05-18T00:00:00	2024-11-06T09:00:00	6	Velocidad del viento	1.6
96454	7	Sololá	702	San José Chacayá	5	Chacayá	5	Mayo	2023-05-18T00:00:00	2024-11-06T09:00:00	7	Dirección del viento	1.61
96455	7	Sololá	702	San José Chacayá	5	Chacayá	5	Mayo	2023-05-18T00:00:00	2024-11-06T09:00:00	1	Precipitación	0
96456	7	Sololá	702	San José Chacayá	5	Chacayá	5	Mayo	2023-05-18T00:00:00	2024-11-06T09:00:00	8	Radiación solar	152
96457	7	Sololá	702	San José Chacayá	5	Chacayá	5	Mayo	2023-05-18T00:00:00	2024-11-06T10:00:00	2	Temperatura media	19.8
96458	7	Sololá	702	San José Chacayá	5	Chacayá	5	Mayo	2023-05-18T00:00:00	2024-11-06T10:00:00	4	Temperatura máxima	19.9
96459	7	Sololá	702	San José Chacayá	5	Chacayá	5	Mayo	2023-05-18T00:00:00	2024-11-06T10:00:00	3	Temperatura mínima	16.7
96460	7	Sololá	702	San José Chacayá	5	Chacayá	5	Mayo	2023-05-18T00:00:00	2024-11-06T10:00:00	5	Humedad	70
96461	7	Sololá	702	San José Chacayá	5	Chacayá	5	Mayo	2023-05-18T00:00:00	2024-11-06T10:00:00	6	Velocidad del viento	1.6
96462	7	Sololá	702	San José Chacayá	5	Chacayá	5	Mayo	2023-05-18T00:00:00	2024-11-06T10:00:00	7	Dirección del viento	1.61
96463	7	Sololá	702	San José Chacayá	5	Chacayá	5	Mayo	2023-05-18T00:00:00	2024-11-06T10:00:00	1	Precipitación	0
96464	7	Sololá	702	San José Chacayá	5	Chacayá	5	Mayo	2023-05-18T00:00:00	2024-11-06T10:00:00	8	Radiación solar	457
96465	7	Sololá	702	San José Chacayá	5	Chacayá	5	Mayo	2023-05-18T00:00:00	2024-11-06T11:00:00	2	Temperatura media	21.5
96466	7	Sololá	702	San José Chacayá	5	Chacayá	5	Mayo	2023-05-18T00:00:00	2024-11-06T11:00:00	4	Temperatura máxima	21.5
96467	7	Sololá	702	San José Chacayá	5	Chacayá	5	Mayo	2023-05-18T00:00:00	2024-11-06T11:00:00	3	Temperatura mínima	19.8
96468	7	Sololá	702	San José Chacayá	5	Chacayá	5	Mayo	2023-05-18T00:00:00	2024-11-06T11:00:00	5	Humedad	67
96469	7	Sololá	702	San José Chacayá	5	Chacayá	5	Mayo	2023-05-18T00:00:00	2024-11-06T11:00:00	6	Velocidad del viento	4.8
96470	7	Sololá	702	San José Chacayá	5	Chacayá	5	Mayo	2023-05-18T00:00:00	2024-11-06T11:00:00	7	Dirección del viento	4.83
96471	7	Sololá	702	San José Chacayá	5	Chacayá	5	Mayo	2023-05-18T00:00:00	2024-11-06T11:00:00	1	Precipitación	0
96472	7	Sololá	702	San José Chacayá	5	Chacayá	5	Mayo	2023-05-18T00:00:00	2024-11-06T11:00:00	8	Radiación solar	767
96473	7	Sololá	702	San José Chacayá	5	Chacayá	5	Mayo	2023-05-18T00:00:00	2024-11-06T12:00:00	2	Temperatura media	22.2
96474	7	Sololá	702	San José Chacayá	5	Chacayá	5	Mayo	2023-05-18T00:00:00	2024-11-06T12:00:00	4	Temperatura máxima	22.6
96475	7	Sololá	702	San José Chacayá	5	Chacayá	5	Mayo	2023-05-18T00:00:00	2024-11-06T12:00:00	3	Temperatura mínima	21.5
96476	7	Sololá	702	San José Chacayá	5	Chacayá	5	Mayo	2023-05-18T00:00:00	2024-11-06T12:00:00	5	Humedad	64
96477	7	Sololá	702	San José Chacayá	5	Chacayá	5	Mayo	2023-05-18T00:00:00	2024-11-06T12:00:00	6	Velocidad del viento	6.4
96478	7	Sololá	702	San José Chacayá	5	Chacayá	5	Mayo	2023-05-18T00:00:00	2024-11-06T12:00:00	7	Dirección del viento	6.44
96479	7	Sololá	702	San José Chacayá	5	Chacayá	5	Mayo	2023-05-18T00:00:00	2024-11-06T12:00:00	1	Precipitación	0
96480	7	Sololá	702	San José Chacayá	5	Chacayá	5	Mayo	2023-05-18T00:00:00	2024-11-06T12:00:00	8	Radiación solar	895
96481	7	Sololá	702	San José Chacayá	5	Chacayá	5	Mayo	2023-05-18T00:00:00	2024-11-06T13:00:00	2	Temperatura media	22.1
96482	7	Sololá	702	San José Chacayá	5	Chacayá	5	Mayo	2023-05-18T00:00:00	2024-11-06T13:00:00	4	Temperatura máxima	22.5
96483	7	Sololá	702	San José Chacayá	5	Chacayá	5	Mayo	2023-05-18T00:00:00	2024-11-06T13:00:00	3	Temperatura mínima	21.6
96484	7	Sololá	702	San José Chacayá	5	Chacayá	5	Mayo	2023-05-18T00:00:00	2024-11-06T13:00:00	5	Humedad	65
96485	7	Sololá	702	San José Chacayá	5	Chacayá	5	Mayo	2023-05-18T00:00:00	2024-11-06T13:00:00	6	Velocidad del viento	8
96486	7	Sololá	702	San José Chacayá	5	Chacayá	5	Mayo	2023-05-18T00:00:00	2024-11-06T13:00:00	7	Dirección del viento	8.05
96487	7	Sololá	702	San José Chacayá	5	Chacayá	5	Mayo	2023-05-18T00:00:00	2024-11-06T13:00:00	1	Precipitación	0
96488	7	Sololá	702	San José Chacayá	5	Chacayá	5	Mayo	2023-05-18T00:00:00	2024-11-06T13:00:00	8	Radiación solar	974
96489	7	Sololá	702	San José Chacayá	5	Chacayá	5	Mayo	2023-05-18T00:00:00	2024-11-06T14:00:00	2	Temperatura media	21.9
96490	7	Sololá	702	San José Chacayá	5	Chacayá	5	Mayo	2023-05-18T00:00:00	2024-11-06T14:00:00	4	Temperatura máxima	22.9
96491	7	Sololá	702	San José Chacayá	5	Chacayá	5	Mayo	2023-05-18T00:00:00	2024-11-06T14:00:00	3	Temperatura mínima	21.4
96492	7	Sololá	702	San José Chacayá	5	Chacayá	5	Mayo	2023-05-18T00:00:00	2024-11-06T14:00:00	5	Humedad	70
96493	7	Sololá	702	San José Chacayá	5	Chacayá	5	Mayo	2023-05-18T00:00:00	2024-11-06T14:00:00	6	Velocidad del viento	6.4
96494	7	Sololá	702	San José Chacayá	5	Chacayá	5	Mayo	2023-05-18T00:00:00	2024-11-06T14:00:00	7	Dirección del viento	6.44
96495	7	Sololá	702	San José Chacayá	5	Chacayá	5	Mayo	2023-05-18T00:00:00	2024-11-06T14:00:00	1	Precipitación	0
96496	7	Sololá	702	San José Chacayá	5	Chacayá	5	Mayo	2023-05-18T00:00:00	2024-11-06T14:00:00	8	Radiación solar	972
96497	7	Sololá	702	San José Chacayá	5	Chacayá	5	Mayo	2023-05-18T00:00:00	2024-11-06T15:00:00	2	Temperatura media	21.8
96498	7	Sololá	702	San José Chacayá	5	Chacayá	5	Mayo	2023-05-18T00:00:00	2024-11-06T15:00:00	4	Temperatura máxima	22.3
96499	7	Sololá	702	San José Chacayá	5	Chacayá	5	Mayo	2023-05-18T00:00:00	2024-11-06T15:00:00	3	Temperatura mínima	21.4
96500	7	Sololá	702	San José Chacayá	5	Chacayá	5	Mayo	2023-05-18T00:00:00	2024-11-06T15:00:00	5	Humedad	74
96501	7	Sololá	702	San José Chacayá	5	Chacayá	5	Mayo	2023-05-18T00:00:00	2024-11-06T15:00:00	6	Velocidad del viento	6.4
96502	7	Sololá	702	San José Chacayá	5	Chacayá	5	Mayo	2023-05-18T00:00:00	2024-11-06T15:00:00	7	Dirección del viento	6.44
96503	7	Sololá	702	San José Chacayá	5	Chacayá	5	Mayo	2023-05-18T00:00:00	2024-11-06T15:00:00	1	Precipitación	0
96504	7	Sololá	702	San José Chacayá	5	Chacayá	5	Mayo	2023-05-18T00:00:00	2024-11-06T15:00:00	8	Radiación solar	656
96505	7	Sololá	702	San José Chacayá	5	Chacayá	5	Mayo	2023-05-18T00:00:00	2024-11-06T16:00:00	2	Temperatura media	21.3
96506	7	Sololá	702	San José Chacayá	5	Chacayá	5	Mayo	2023-05-18T00:00:00	2024-11-06T16:00:00	4	Temperatura máxima	22
96507	7	Sololá	702	San José Chacayá	5	Chacayá	5	Mayo	2023-05-18T00:00:00	2024-11-06T16:00:00	3	Temperatura mínima	21.3
96508	7	Sololá	702	San José Chacayá	5	Chacayá	5	Mayo	2023-05-18T00:00:00	2024-11-06T16:00:00	5	Humedad	74
96509	7	Sololá	702	San José Chacayá	5	Chacayá	5	Mayo	2023-05-18T00:00:00	2024-11-06T16:00:00	6	Velocidad del viento	6.4
96510	7	Sololá	702	San José Chacayá	5	Chacayá	5	Mayo	2023-05-18T00:00:00	2024-11-06T16:00:00	7	Dirección del viento	6.44
96511	7	Sololá	702	San José Chacayá	5	Chacayá	5	Mayo	2023-05-18T00:00:00	2024-11-06T16:00:00	1	Precipitación	0
96512	7	Sololá	702	San José Chacayá	5	Chacayá	5	Mayo	2023-05-18T00:00:00	2024-11-06T16:00:00	8	Radiación solar	634
96513	7	Sololá	702	San José Chacayá	5	Chacayá	5	Mayo	2023-05-18T00:00:00	2024-11-06T17:00:00	2	Temperatura media	20.7
96514	7	Sololá	702	San José Chacayá	5	Chacayá	5	Mayo	2023-05-18T00:00:00	2024-11-06T17:00:00	4	Temperatura máxima	21.6
96515	7	Sololá	702	San José Chacayá	5	Chacayá	5	Mayo	2023-05-18T00:00:00	2024-11-06T17:00:00	3	Temperatura mínima	20.6
96516	7	Sololá	702	San José Chacayá	5	Chacayá	5	Mayo	2023-05-18T00:00:00	2024-11-06T17:00:00	5	Humedad	78
96517	7	Sololá	702	San José Chacayá	5	Chacayá	5	Mayo	2023-05-18T00:00:00	2024-11-06T17:00:00	6	Velocidad del viento	4.8
96518	7	Sololá	702	San José Chacayá	5	Chacayá	5	Mayo	2023-05-18T00:00:00	2024-11-06T17:00:00	7	Dirección del viento	4.83
96519	7	Sololá	702	San José Chacayá	5	Chacayá	5	Mayo	2023-05-18T00:00:00	2024-11-06T17:00:00	1	Precipitación	0
96520	7	Sololá	702	San José Chacayá	5	Chacayá	5	Mayo	2023-05-18T00:00:00	2024-11-06T17:00:00	8	Radiación solar	465
96521	7	Sololá	702	San José Chacayá	5	Chacayá	5	Mayo	2023-05-18T00:00:00	2024-11-06T18:00:00	2	Temperatura media	19
96522	7	Sololá	702	San José Chacayá	5	Chacayá	5	Mayo	2023-05-18T00:00:00	2024-11-06T18:00:00	4	Temperatura máxima	20.8
96523	7	Sololá	702	San José Chacayá	5	Chacayá	5	Mayo	2023-05-18T00:00:00	2024-11-06T18:00:00	3	Temperatura mínima	19
96524	7	Sololá	702	San José Chacayá	5	Chacayá	5	Mayo	2023-05-18T00:00:00	2024-11-06T18:00:00	5	Humedad	82
96525	7	Sololá	702	San José Chacayá	5	Chacayá	5	Mayo	2023-05-18T00:00:00	2024-11-06T18:00:00	6	Velocidad del viento	3.2
96526	7	Sololá	702	San José Chacayá	5	Chacayá	5	Mayo	2023-05-18T00:00:00	2024-11-06T18:00:00	7	Dirección del viento	3.22
96527	7	Sololá	702	San José Chacayá	5	Chacayá	5	Mayo	2023-05-18T00:00:00	2024-11-06T18:00:00	1	Precipitación	0
96528	7	Sololá	702	San José Chacayá	5	Chacayá	5	Mayo	2023-05-18T00:00:00	2024-11-06T18:00:00	8	Radiación solar	162
96529	7	Sololá	702	San José Chacayá	5	Chacayá	5	Mayo	2023-05-18T00:00:00	2024-11-06T19:00:00	2	Temperatura media	18.1
96530	7	Sololá	702	San José Chacayá	5	Chacayá	5	Mayo	2023-05-18T00:00:00	2024-11-06T19:00:00	4	Temperatura máxima	19
96531	7	Sololá	702	San José Chacayá	5	Chacayá	5	Mayo	2023-05-18T00:00:00	2024-11-06T19:00:00	3	Temperatura mínima	18.1
96532	7	Sololá	702	San José Chacayá	5	Chacayá	5	Mayo	2023-05-18T00:00:00	2024-11-06T19:00:00	5	Humedad	80
96533	7	Sololá	702	San José Chacayá	5	Chacayá	5	Mayo	2023-05-18T00:00:00	2024-11-06T19:00:00	6	Velocidad del viento	1.6
96534	7	Sololá	702	San José Chacayá	5	Chacayá	5	Mayo	2023-05-18T00:00:00	2024-11-06T19:00:00	7	Dirección del viento	1.61
96535	7	Sololá	702	San José Chacayá	5	Chacayá	5	Mayo	2023-05-18T00:00:00	2024-11-06T19:00:00	1	Precipitación	0
96536	7	Sololá	702	San José Chacayá	5	Chacayá	5	Mayo	2023-05-18T00:00:00	2024-11-06T19:00:00	8	Radiación solar	0
96537	7	Sololá	702	San José Chacayá	5	Chacayá	5	Mayo	2023-05-18T00:00:00	2024-11-06T20:00:00	2	Temperatura media	16.9
96538	7	Sololá	702	San José Chacayá	5	Chacayá	5	Mayo	2023-05-18T00:00:00	2024-11-06T20:00:00	4	Temperatura máxima	18.1
96539	7	Sololá	702	San José Chacayá	5	Chacayá	5	Mayo	2023-05-18T00:00:00	2024-11-06T20:00:00	3	Temperatura mínima	16.9
96540	7	Sololá	702	San José Chacayá	5	Chacayá	5	Mayo	2023-05-18T00:00:00	2024-11-06T20:00:00	5	Humedad	79
96541	7	Sololá	702	San José Chacayá	5	Chacayá	5	Mayo	2023-05-18T00:00:00	2024-11-06T20:00:00	6	Velocidad del viento	1.6
96542	7	Sololá	702	San José Chacayá	5	Chacayá	5	Mayo	2023-05-18T00:00:00	2024-11-06T20:00:00	7	Dirección del viento	1.61
96543	7	Sololá	702	San José Chacayá	5	Chacayá	5	Mayo	2023-05-18T00:00:00	2024-11-06T20:00:00	1	Precipitación	0
96544	7	Sololá	702	San José Chacayá	5	Chacayá	5	Mayo	2023-05-18T00:00:00	2024-11-06T20:00:00	8	Radiación solar	0
96545	7	Sololá	702	San José Chacayá	5	Chacayá	5	Mayo	2023-05-18T00:00:00	2024-11-06T21:00:00	2	Temperatura media	16.8
96546	7	Sololá	702	San José Chacayá	5	Chacayá	5	Mayo	2023-05-18T00:00:00	2024-11-06T21:00:00	4	Temperatura máxima	17.1
96547	7	Sololá	702	San José Chacayá	5	Chacayá	5	Mayo	2023-05-18T00:00:00	2024-11-06T21:00:00	3	Temperatura mínima	16.7
96548	7	Sololá	702	San José Chacayá	5	Chacayá	5	Mayo	2023-05-18T00:00:00	2024-11-06T21:00:00	5	Humedad	76
96549	7	Sololá	702	San José Chacayá	5	Chacayá	5	Mayo	2023-05-18T00:00:00	2024-11-06T21:00:00	6	Velocidad del viento	3.2
96550	7	Sololá	702	San José Chacayá	5	Chacayá	5	Mayo	2023-05-18T00:00:00	2024-11-06T21:00:00	7	Dirección del viento	3.22
96551	7	Sololá	702	San José Chacayá	5	Chacayá	5	Mayo	2023-05-18T00:00:00	2024-11-06T21:00:00	1	Precipitación	0
96552	7	Sololá	702	San José Chacayá	5	Chacayá	5	Mayo	2023-05-18T00:00:00	2024-11-06T21:00:00	8	Radiación solar	0
96553	7	Sololá	702	San José Chacayá	5	Chacayá	5	Mayo	2023-05-18T00:00:00	2024-11-06T22:00:00	2	Temperatura media	15.8
96554	7	Sololá	702	San José Chacayá	5	Chacayá	5	Mayo	2023-05-18T00:00:00	2024-11-06T22:00:00	4	Temperatura máxima	16.8
96555	7	Sololá	702	San José Chacayá	5	Chacayá	5	Mayo	2023-05-18T00:00:00	2024-11-06T22:00:00	3	Temperatura mínima	15.6
96556	7	Sololá	702	San José Chacayá	5	Chacayá	5	Mayo	2023-05-18T00:00:00	2024-11-06T22:00:00	5	Humedad	82
96557	7	Sololá	702	San José Chacayá	5	Chacayá	5	Mayo	2023-05-18T00:00:00	2024-11-06T22:00:00	6	Velocidad del viento	0
96558	7	Sololá	702	San José Chacayá	5	Chacayá	5	Mayo	2023-05-18T00:00:00	2024-11-06T22:00:00	7	Dirección del viento	0
96559	7	Sololá	702	San José Chacayá	5	Chacayá	5	Mayo	2023-05-18T00:00:00	2024-11-06T22:00:00	1	Precipitación	0
96560	7	Sololá	702	San José Chacayá	5	Chacayá	5	Mayo	2023-05-18T00:00:00	2024-11-06T22:00:00	8	Radiación solar	0
96561	7	Sololá	702	San José Chacayá	5	Chacayá	5	Mayo	2023-05-18T00:00:00	2024-11-06T23:00:00	2	Temperatura media	16.3
96562	7	Sololá	702	San José Chacayá	5	Chacayá	5	Mayo	2023-05-18T00:00:00	2024-11-06T23:00:00	4	Temperatura máxima	16.3
96563	7	Sololá	702	San José Chacayá	5	Chacayá	5	Mayo	2023-05-18T00:00:00	2024-11-06T23:00:00	3	Temperatura mínima	15.2
96564	7	Sololá	702	San José Chacayá	5	Chacayá	5	Mayo	2023-05-18T00:00:00	2024-11-06T23:00:00	5	Humedad	80
96565	7	Sololá	702	San José Chacayá	5	Chacayá	5	Mayo	2023-05-18T00:00:00	2024-11-06T23:00:00	6	Velocidad del viento	1.6
96566	7	Sololá	702	San José Chacayá	5	Chacayá	5	Mayo	2023-05-18T00:00:00	2024-11-06T23:00:00	7	Dirección del viento	1.61
96567	7	Sololá	702	San José Chacayá	5	Chacayá	5	Mayo	2023-05-18T00:00:00	2024-11-06T23:00:00	1	Precipitación	0
96568	7	Sololá	702	San José Chacayá	5	Chacayá	5	Mayo	2023-05-18T00:00:00	2024-11-06T23:00:00	8	Radiación solar	0
96569	7	Sololá	702	San José Chacayá	5	Chacayá	5	Mayo	2023-05-19T00:00:00	2024-11-06T00:00:00	2	Temperatura media	14.4
96570	7	Sololá	702	San José Chacayá	5	Chacayá	5	Mayo	2023-05-19T00:00:00	2024-11-06T00:00:00	4	Temperatura máxima	16.3
96571	7	Sololá	702	San José Chacayá	5	Chacayá	5	Mayo	2023-05-19T00:00:00	2024-11-06T00:00:00	3	Temperatura mínima	14.4
96572	7	Sololá	702	San José Chacayá	5	Chacayá	5	Mayo	2023-05-19T00:00:00	2024-11-06T00:00:00	5	Humedad	83
96573	7	Sololá	702	San José Chacayá	5	Chacayá	5	Mayo	2023-05-19T00:00:00	2024-11-06T00:00:00	6	Velocidad del viento	0
96574	7	Sololá	702	San José Chacayá	5	Chacayá	5	Mayo	2023-05-19T00:00:00	2024-11-06T00:00:00	7	Dirección del viento	0
96575	7	Sololá	702	San José Chacayá	5	Chacayá	5	Mayo	2023-05-19T00:00:00	2024-11-06T00:00:00	1	Precipitación	0
96576	7	Sololá	702	San José Chacayá	5	Chacayá	5	Mayo	2023-05-19T00:00:00	2024-11-06T00:00:00	8	Radiación solar	0
96577	7	Sololá	702	San José Chacayá	5	Chacayá	5	Mayo	2023-05-19T00:00:00	2024-11-06T01:00:00	2	Temperatura media	14.7
96578	7	Sololá	702	San José Chacayá	5	Chacayá	5	Mayo	2023-05-19T00:00:00	2024-11-06T01:00:00	4	Temperatura máxima	14.8
96579	7	Sololá	702	San José Chacayá	5	Chacayá	5	Mayo	2023-05-19T00:00:00	2024-11-06T01:00:00	3	Temperatura mínima	14.3
96580	7	Sololá	702	San José Chacayá	5	Chacayá	5	Mayo	2023-05-19T00:00:00	2024-11-06T01:00:00	5	Humedad	83
96581	7	Sololá	702	San José Chacayá	5	Chacayá	5	Mayo	2023-05-19T00:00:00	2024-11-06T01:00:00	6	Velocidad del viento	0
96582	7	Sololá	702	San José Chacayá	5	Chacayá	5	Mayo	2023-05-19T00:00:00	2024-11-06T01:00:00	7	Dirección del viento	0
96583	7	Sololá	702	San José Chacayá	5	Chacayá	5	Mayo	2023-05-19T00:00:00	2024-11-06T01:00:00	1	Precipitación	0
96584	7	Sololá	702	San José Chacayá	5	Chacayá	5	Mayo	2023-05-19T00:00:00	2024-11-06T01:00:00	8	Radiación solar	0
96585	7	Sololá	702	San José Chacayá	5	Chacayá	5	Mayo	2023-05-19T00:00:00	2024-11-06T02:00:00	2	Temperatura media	13.8
96586	7	Sololá	702	San José Chacayá	5	Chacayá	5	Mayo	2023-05-19T00:00:00	2024-11-06T02:00:00	4	Temperatura máxima	15
96587	7	Sololá	702	San José Chacayá	5	Chacayá	5	Mayo	2023-05-19T00:00:00	2024-11-06T02:00:00	3	Temperatura mínima	13.8
96588	7	Sololá	702	San José Chacayá	5	Chacayá	5	Mayo	2023-05-19T00:00:00	2024-11-06T02:00:00	5	Humedad	83
96589	7	Sololá	702	San José Chacayá	5	Chacayá	5	Mayo	2023-05-19T00:00:00	2024-11-06T02:00:00	6	Velocidad del viento	1.6
96590	7	Sololá	702	San José Chacayá	5	Chacayá	5	Mayo	2023-05-19T00:00:00	2024-11-06T02:00:00	7	Dirección del viento	1.61
96591	7	Sololá	702	San José Chacayá	5	Chacayá	5	Mayo	2023-05-19T00:00:00	2024-11-06T02:00:00	1	Precipitación	0
96592	7	Sololá	702	San José Chacayá	5	Chacayá	5	Mayo	2023-05-19T00:00:00	2024-11-06T02:00:00	8	Radiación solar	0
96593	7	Sololá	702	San José Chacayá	5	Chacayá	5	Mayo	2023-05-19T00:00:00	2024-11-06T03:00:00	2	Temperatura media	12.9
96594	7	Sololá	702	San José Chacayá	5	Chacayá	5	Mayo	2023-05-19T00:00:00	2024-11-06T03:00:00	4	Temperatura máxima	13.8
96595	7	Sololá	702	San José Chacayá	5	Chacayá	5	Mayo	2023-05-19T00:00:00	2024-11-06T03:00:00	3	Temperatura mínima	12.9
96596	7	Sololá	702	San José Chacayá	5	Chacayá	5	Mayo	2023-05-19T00:00:00	2024-11-06T03:00:00	5	Humedad	80
96597	7	Sololá	702	San José Chacayá	5	Chacayá	5	Mayo	2023-05-19T00:00:00	2024-11-06T03:00:00	6	Velocidad del viento	1.6
96598	7	Sololá	702	San José Chacayá	5	Chacayá	5	Mayo	2023-05-19T00:00:00	2024-11-06T03:00:00	7	Dirección del viento	1.61
96599	7	Sololá	702	San José Chacayá	5	Chacayá	5	Mayo	2023-05-19T00:00:00	2024-11-06T03:00:00	1	Precipitación	0
96600	7	Sololá	702	San José Chacayá	5	Chacayá	5	Mayo	2023-05-19T00:00:00	2024-11-06T03:00:00	8	Radiación solar	0
96601	7	Sololá	702	San José Chacayá	5	Chacayá	5	Mayo	2023-05-19T00:00:00	2024-11-06T04:00:00	2	Temperatura media	13
96602	7	Sololá	702	San José Chacayá	5	Chacayá	5	Mayo	2023-05-19T00:00:00	2024-11-06T04:00:00	4	Temperatura máxima	13
96603	7	Sololá	702	San José Chacayá	5	Chacayá	5	Mayo	2023-05-19T00:00:00	2024-11-06T04:00:00	3	Temperatura mínima	12.8
96604	7	Sololá	702	San José Chacayá	5	Chacayá	5	Mayo	2023-05-19T00:00:00	2024-11-06T04:00:00	5	Humedad	80
96605	7	Sololá	702	San José Chacayá	5	Chacayá	5	Mayo	2023-05-19T00:00:00	2024-11-06T04:00:00	6	Velocidad del viento	3.2
96606	7	Sololá	702	San José Chacayá	5	Chacayá	5	Mayo	2023-05-19T00:00:00	2024-11-06T04:00:00	7	Dirección del viento	3.22
96607	7	Sololá	702	San José Chacayá	5	Chacayá	5	Mayo	2023-05-19T00:00:00	2024-11-06T04:00:00	1	Precipitación	0
96608	7	Sololá	702	San José Chacayá	5	Chacayá	5	Mayo	2023-05-19T00:00:00	2024-11-06T04:00:00	8	Radiación solar	0
96609	7	Sololá	702	San José Chacayá	5	Chacayá	5	Mayo	2023-05-19T00:00:00	2024-11-06T05:00:00	2	Temperatura media	12.3
96610	7	Sololá	702	San José Chacayá	5	Chacayá	5	Mayo	2023-05-19T00:00:00	2024-11-06T05:00:00	4	Temperatura máxima	13
96611	7	Sololá	702	San José Chacayá	5	Chacayá	5	Mayo	2023-05-19T00:00:00	2024-11-06T05:00:00	3	Temperatura mínima	12.3
96612	7	Sololá	702	San José Chacayá	5	Chacayá	5	Mayo	2023-05-19T00:00:00	2024-11-06T05:00:00	5	Humedad	80
96613	7	Sololá	702	San José Chacayá	5	Chacayá	5	Mayo	2023-05-19T00:00:00	2024-11-06T05:00:00	6	Velocidad del viento	3.2
96614	7	Sololá	702	San José Chacayá	5	Chacayá	5	Mayo	2023-05-19T00:00:00	2024-11-06T05:00:00	7	Dirección del viento	3.22
96615	7	Sololá	702	San José Chacayá	5	Chacayá	5	Mayo	2023-05-19T00:00:00	2024-11-06T05:00:00	1	Precipitación	0
96616	7	Sololá	702	San José Chacayá	5	Chacayá	5	Mayo	2023-05-19T00:00:00	2024-11-06T05:00:00	8	Radiación solar	0
96617	7	Sololá	702	San José Chacayá	5	Chacayá	5	Mayo	2023-05-19T00:00:00	2024-11-06T06:00:00	2	Temperatura media	11.6
96618	7	Sololá	702	San José Chacayá	5	Chacayá	5	Mayo	2023-05-19T00:00:00	2024-11-06T06:00:00	4	Temperatura máxima	12.3
96619	7	Sololá	702	San José Chacayá	5	Chacayá	5	Mayo	2023-05-19T00:00:00	2024-11-06T06:00:00	3	Temperatura mínima	11.6
96620	7	Sololá	702	San José Chacayá	5	Chacayá	5	Mayo	2023-05-19T00:00:00	2024-11-06T06:00:00	5	Humedad	79
96621	7	Sololá	702	San José Chacayá	5	Chacayá	5	Mayo	2023-05-19T00:00:00	2024-11-06T06:00:00	6	Velocidad del viento	1.6
96622	7	Sololá	702	San José Chacayá	5	Chacayá	5	Mayo	2023-05-19T00:00:00	2024-11-06T06:00:00	7	Dirección del viento	1.61
96623	7	Sololá	702	San José Chacayá	5	Chacayá	5	Mayo	2023-05-19T00:00:00	2024-11-06T06:00:00	1	Precipitación	0
96624	7	Sololá	702	San José Chacayá	5	Chacayá	5	Mayo	2023-05-19T00:00:00	2024-11-06T06:00:00	8	Radiación solar	0
96625	7	Sololá	702	San José Chacayá	5	Chacayá	5	Mayo	2023-05-19T00:00:00	2024-11-06T07:00:00	2	Temperatura media	11.7
96626	7	Sololá	702	San José Chacayá	5	Chacayá	5	Mayo	2023-05-19T00:00:00	2024-11-06T07:00:00	4	Temperatura máxima	11.7
96627	7	Sololá	702	San José Chacayá	5	Chacayá	5	Mayo	2023-05-19T00:00:00	2024-11-06T07:00:00	3	Temperatura mínima	11.4
96628	7	Sololá	702	San José Chacayá	5	Chacayá	5	Mayo	2023-05-19T00:00:00	2024-11-06T07:00:00	5	Humedad	77
96629	7	Sololá	702	San José Chacayá	5	Chacayá	5	Mayo	2023-05-19T00:00:00	2024-11-06T07:00:00	6	Velocidad del viento	1.6
96630	7	Sololá	702	San José Chacayá	5	Chacayá	5	Mayo	2023-05-19T00:00:00	2024-11-06T07:00:00	7	Dirección del viento	1.61
96631	7	Sololá	702	San José Chacayá	5	Chacayá	5	Mayo	2023-05-19T00:00:00	2024-11-06T07:00:00	1	Precipitación	0
96632	7	Sololá	702	San José Chacayá	5	Chacayá	5	Mayo	2023-05-19T00:00:00	2024-11-06T07:00:00	8	Radiación solar	5
96633	7	Sololá	702	San José Chacayá	5	Chacayá	5	Mayo	2023-05-19T00:00:00	2024-11-06T08:00:00	2	Temperatura media	15.3
96634	7	Sololá	702	San José Chacayá	5	Chacayá	5	Mayo	2023-05-19T00:00:00	2024-11-06T08:00:00	4	Temperatura máxima	15.3
96635	7	Sololá	702	San José Chacayá	5	Chacayá	5	Mayo	2023-05-19T00:00:00	2024-11-06T08:00:00	3	Temperatura mínima	11.7
96636	7	Sololá	702	San José Chacayá	5	Chacayá	5	Mayo	2023-05-19T00:00:00	2024-11-06T08:00:00	5	Humedad	82
96637	7	Sololá	702	San José Chacayá	5	Chacayá	5	Mayo	2023-05-19T00:00:00	2024-11-06T08:00:00	6	Velocidad del viento	1.6
96638	7	Sololá	702	San José Chacayá	5	Chacayá	5	Mayo	2023-05-19T00:00:00	2024-11-06T08:00:00	7	Dirección del viento	1.61
96639	7	Sololá	702	San José Chacayá	5	Chacayá	5	Mayo	2023-05-19T00:00:00	2024-11-06T08:00:00	1	Precipitación	0
96640	7	Sololá	702	San José Chacayá	5	Chacayá	5	Mayo	2023-05-19T00:00:00	2024-11-06T08:00:00	8	Radiación solar	37
96641	7	Sololá	702	San José Chacayá	5	Chacayá	5	Mayo	2023-05-19T00:00:00	2024-11-06T09:00:00	2	Temperatura media	19
96642	7	Sololá	702	San José Chacayá	5	Chacayá	5	Mayo	2023-05-19T00:00:00	2024-11-06T09:00:00	4	Temperatura máxima	19
96643	7	Sololá	702	San José Chacayá	5	Chacayá	5	Mayo	2023-05-19T00:00:00	2024-11-06T09:00:00	3	Temperatura mínima	15.3
96644	7	Sololá	702	San José Chacayá	5	Chacayá	5	Mayo	2023-05-19T00:00:00	2024-11-06T09:00:00	5	Humedad	58
96645	7	Sololá	702	San José Chacayá	5	Chacayá	5	Mayo	2023-05-19T00:00:00	2024-11-06T09:00:00	6	Velocidad del viento	3.2
96646	7	Sololá	702	San José Chacayá	5	Chacayá	5	Mayo	2023-05-19T00:00:00	2024-11-06T09:00:00	7	Dirección del viento	3.22
96647	7	Sololá	702	San José Chacayá	5	Chacayá	5	Mayo	2023-05-19T00:00:00	2024-11-06T09:00:00	1	Precipitación	0
96648	7	Sololá	702	San José Chacayá	5	Chacayá	5	Mayo	2023-05-19T00:00:00	2024-11-06T09:00:00	8	Radiación solar	70
96649	7	Sololá	702	San José Chacayá	5	Chacayá	5	Mayo	2023-05-19T00:00:00	2024-11-06T10:00:00	2	Temperatura media	21.4
96650	7	Sololá	702	San José Chacayá	5	Chacayá	5	Mayo	2023-05-19T00:00:00	2024-11-06T10:00:00	4	Temperatura máxima	21.4
96651	7	Sololá	702	San José Chacayá	5	Chacayá	5	Mayo	2023-05-19T00:00:00	2024-11-06T10:00:00	3	Temperatura mínima	19
96652	7	Sololá	702	San José Chacayá	5	Chacayá	5	Mayo	2023-05-19T00:00:00	2024-11-06T10:00:00	5	Humedad	55
96653	7	Sololá	702	San José Chacayá	5	Chacayá	5	Mayo	2023-05-19T00:00:00	2024-11-06T10:00:00	6	Velocidad del viento	6.4
96654	7	Sololá	702	San José Chacayá	5	Chacayá	5	Mayo	2023-05-19T00:00:00	2024-11-06T10:00:00	7	Dirección del viento	6.44
96655	7	Sololá	702	San José Chacayá	5	Chacayá	5	Mayo	2023-05-19T00:00:00	2024-11-06T10:00:00	1	Precipitación	0
96656	7	Sololá	702	San José Chacayá	5	Chacayá	5	Mayo	2023-05-19T00:00:00	2024-11-06T10:00:00	8	Radiación solar	574
96657	7	Sololá	702	San José Chacayá	5	Chacayá	5	Mayo	2023-05-19T00:00:00	2024-11-06T11:00:00	2	Temperatura media	22.5
96658	7	Sololá	702	San José Chacayá	5	Chacayá	5	Mayo	2023-05-19T00:00:00	2024-11-06T11:00:00	4	Temperatura máxima	22.5
96659	7	Sololá	702	San José Chacayá	5	Chacayá	5	Mayo	2023-05-19T00:00:00	2024-11-06T11:00:00	3	Temperatura mínima	21.2
96660	7	Sololá	702	San José Chacayá	5	Chacayá	5	Mayo	2023-05-19T00:00:00	2024-11-06T11:00:00	5	Humedad	48
96661	7	Sololá	702	San José Chacayá	5	Chacayá	5	Mayo	2023-05-19T00:00:00	2024-11-06T11:00:00	6	Velocidad del viento	9.7
96662	7	Sololá	702	San José Chacayá	5	Chacayá	5	Mayo	2023-05-19T00:00:00	2024-11-06T11:00:00	7	Dirección del viento	9.66
96663	7	Sololá	702	San José Chacayá	5	Chacayá	5	Mayo	2023-05-19T00:00:00	2024-11-06T11:00:00	1	Precipitación	0
96664	7	Sololá	702	San José Chacayá	5	Chacayá	5	Mayo	2023-05-19T00:00:00	2024-11-06T11:00:00	8	Radiación solar	791
96665	7	Sololá	702	San José Chacayá	5	Chacayá	5	Mayo	2023-05-19T00:00:00	2024-11-06T12:00:00	2	Temperatura media	23
96666	7	Sololá	702	San José Chacayá	5	Chacayá	5	Mayo	2023-05-19T00:00:00	2024-11-06T12:00:00	4	Temperatura máxima	23.1
96667	7	Sololá	702	San José Chacayá	5	Chacayá	5	Mayo	2023-05-19T00:00:00	2024-11-06T12:00:00	3	Temperatura mínima	22.4
96668	7	Sololá	702	San José Chacayá	5	Chacayá	5	Mayo	2023-05-19T00:00:00	2024-11-06T12:00:00	5	Humedad	43
96669	7	Sololá	702	San José Chacayá	5	Chacayá	5	Mayo	2023-05-19T00:00:00	2024-11-06T12:00:00	6	Velocidad del viento	9.7
96670	7	Sololá	702	San José Chacayá	5	Chacayá	5	Mayo	2023-05-19T00:00:00	2024-11-06T12:00:00	7	Dirección del viento	9.66
96671	7	Sololá	702	San José Chacayá	5	Chacayá	5	Mayo	2023-05-19T00:00:00	2024-11-06T12:00:00	1	Precipitación	0
96672	7	Sololá	702	San José Chacayá	5	Chacayá	5	Mayo	2023-05-19T00:00:00	2024-11-06T12:00:00	8	Radiación solar	894
96673	7	Sololá	702	San José Chacayá	5	Chacayá	5	Mayo	2023-05-19T00:00:00	2024-11-06T13:00:00	2	Temperatura media	23.2
96674	7	Sololá	702	San José Chacayá	5	Chacayá	5	Mayo	2023-05-19T00:00:00	2024-11-06T13:00:00	4	Temperatura máxima	24.1
96675	7	Sololá	702	San José Chacayá	5	Chacayá	5	Mayo	2023-05-19T00:00:00	2024-11-06T13:00:00	3	Temperatura mínima	23
96676	7	Sololá	702	San José Chacayá	5	Chacayá	5	Mayo	2023-05-19T00:00:00	2024-11-06T13:00:00	5	Humedad	46
96677	7	Sololá	702	San José Chacayá	5	Chacayá	5	Mayo	2023-05-19T00:00:00	2024-11-06T13:00:00	6	Velocidad del viento	8
96678	7	Sololá	702	San José Chacayá	5	Chacayá	5	Mayo	2023-05-19T00:00:00	2024-11-06T13:00:00	7	Dirección del viento	8.05
96679	7	Sololá	702	San José Chacayá	5	Chacayá	5	Mayo	2023-05-19T00:00:00	2024-11-06T13:00:00	1	Precipitación	0
96680	7	Sololá	702	San José Chacayá	5	Chacayá	5	Mayo	2023-05-19T00:00:00	2024-11-06T13:00:00	8	Radiación solar	994
96681	7	Sololá	702	San José Chacayá	5	Chacayá	5	Mayo	2023-05-19T00:00:00	2024-11-06T14:00:00	2	Temperatura media	23.9
96682	7	Sololá	702	San José Chacayá	5	Chacayá	5	Mayo	2023-05-19T00:00:00	2024-11-06T14:00:00	4	Temperatura máxima	24.6
96683	7	Sololá	702	San José Chacayá	5	Chacayá	5	Mayo	2023-05-19T00:00:00	2024-11-06T14:00:00	3	Temperatura mínima	23.2
96684	7	Sololá	702	San José Chacayá	5	Chacayá	5	Mayo	2023-05-19T00:00:00	2024-11-06T14:00:00	5	Humedad	48
96685	7	Sololá	702	San José Chacayá	5	Chacayá	5	Mayo	2023-05-19T00:00:00	2024-11-06T14:00:00	6	Velocidad del viento	6.4
96686	7	Sololá	702	San José Chacayá	5	Chacayá	5	Mayo	2023-05-19T00:00:00	2024-11-06T14:00:00	7	Dirección del viento	6.44
96687	7	Sololá	702	San José Chacayá	5	Chacayá	5	Mayo	2023-05-19T00:00:00	2024-11-06T14:00:00	1	Precipitación	0
96688	7	Sololá	702	San José Chacayá	5	Chacayá	5	Mayo	2023-05-19T00:00:00	2024-11-06T14:00:00	8	Radiación solar	952
96689	7	Sololá	702	San José Chacayá	5	Chacayá	5	Mayo	2023-05-19T00:00:00	2024-11-06T15:00:00	2	Temperatura media	24
96690	7	Sololá	702	San José Chacayá	5	Chacayá	5	Mayo	2023-05-19T00:00:00	2024-11-06T15:00:00	4	Temperatura máxima	24.3
96691	7	Sololá	702	San José Chacayá	5	Chacayá	5	Mayo	2023-05-19T00:00:00	2024-11-06T15:00:00	3	Temperatura mínima	23.1
96692	7	Sololá	702	San José Chacayá	5	Chacayá	5	Mayo	2023-05-19T00:00:00	2024-11-06T15:00:00	5	Humedad	49
96693	7	Sololá	702	San José Chacayá	5	Chacayá	5	Mayo	2023-05-19T00:00:00	2024-11-06T15:00:00	6	Velocidad del viento	6.4
96694	7	Sololá	702	San José Chacayá	5	Chacayá	5	Mayo	2023-05-19T00:00:00	2024-11-06T15:00:00	7	Dirección del viento	6.44
96695	7	Sololá	702	San José Chacayá	5	Chacayá	5	Mayo	2023-05-19T00:00:00	2024-11-06T15:00:00	1	Precipitación	0
96696	7	Sololá	702	San José Chacayá	5	Chacayá	5	Mayo	2023-05-19T00:00:00	2024-11-06T15:00:00	8	Radiación solar	692
96697	7	Sololá	702	San José Chacayá	5	Chacayá	5	Mayo	2023-05-19T00:00:00	2024-11-06T16:00:00	2	Temperatura media	23.5
96698	7	Sololá	702	San José Chacayá	5	Chacayá	5	Mayo	2023-05-19T00:00:00	2024-11-06T16:00:00	4	Temperatura máxima	24
96699	7	Sololá	702	San José Chacayá	5	Chacayá	5	Mayo	2023-05-19T00:00:00	2024-11-06T16:00:00	3	Temperatura mínima	22.9
96700	7	Sololá	702	San José Chacayá	5	Chacayá	5	Mayo	2023-05-19T00:00:00	2024-11-06T16:00:00	5	Humedad	50
96701	7	Sololá	702	San José Chacayá	5	Chacayá	5	Mayo	2023-05-19T00:00:00	2024-11-06T16:00:00	6	Velocidad del viento	4.8
96702	7	Sololá	702	San José Chacayá	5	Chacayá	5	Mayo	2023-05-19T00:00:00	2024-11-06T16:00:00	7	Dirección del viento	4.83
96703	7	Sololá	702	San José Chacayá	5	Chacayá	5	Mayo	2023-05-19T00:00:00	2024-11-06T16:00:00	1	Precipitación	0
96704	7	Sololá	702	San José Chacayá	5	Chacayá	5	Mayo	2023-05-19T00:00:00	2024-11-06T16:00:00	8	Radiación solar	505
96705	7	Sololá	702	San José Chacayá	5	Chacayá	5	Mayo	2023-05-19T00:00:00	2024-11-06T17:00:00	2	Temperatura media	23.2
96706	7	Sololá	702	San José Chacayá	5	Chacayá	5	Mayo	2023-05-19T00:00:00	2024-11-06T17:00:00	4	Temperatura máxima	24.2
96707	7	Sololá	702	San José Chacayá	5	Chacayá	5	Mayo	2023-05-19T00:00:00	2024-11-06T17:00:00	3	Temperatura mínima	22.9
96708	7	Sololá	702	San José Chacayá	5	Chacayá	5	Mayo	2023-05-19T00:00:00	2024-11-06T17:00:00	5	Humedad	54
96709	7	Sololá	702	San José Chacayá	5	Chacayá	5	Mayo	2023-05-19T00:00:00	2024-11-06T17:00:00	6	Velocidad del viento	4.8
96710	7	Sololá	702	San José Chacayá	5	Chacayá	5	Mayo	2023-05-19T00:00:00	2024-11-06T17:00:00	7	Dirección del viento	4.83
96711	7	Sololá	702	San José Chacayá	5	Chacayá	5	Mayo	2023-05-19T00:00:00	2024-11-06T17:00:00	1	Precipitación	0
96712	7	Sololá	702	San José Chacayá	5	Chacayá	5	Mayo	2023-05-19T00:00:00	2024-11-06T17:00:00	8	Radiación solar	515
96713	7	Sololá	702	San José Chacayá	5	Chacayá	5	Mayo	2023-05-19T00:00:00	2024-11-06T18:00:00	2	Temperatura media	20.6
96714	7	Sololá	702	San José Chacayá	5	Chacayá	5	Mayo	2023-05-19T00:00:00	2024-11-06T18:00:00	4	Temperatura máxima	23.3
96715	7	Sololá	702	San José Chacayá	5	Chacayá	5	Mayo	2023-05-19T00:00:00	2024-11-06T18:00:00	3	Temperatura mínima	20.6
96716	7	Sololá	702	San José Chacayá	5	Chacayá	5	Mayo	2023-05-19T00:00:00	2024-11-06T18:00:00	5	Humedad	66
96717	7	Sololá	702	San José Chacayá	5	Chacayá	5	Mayo	2023-05-19T00:00:00	2024-11-06T18:00:00	6	Velocidad del viento	3.2
96718	7	Sololá	702	San José Chacayá	5	Chacayá	5	Mayo	2023-05-19T00:00:00	2024-11-06T18:00:00	7	Dirección del viento	3.22
96719	7	Sololá	702	San José Chacayá	5	Chacayá	5	Mayo	2023-05-19T00:00:00	2024-11-06T18:00:00	1	Precipitación	0
96720	7	Sololá	702	San José Chacayá	5	Chacayá	5	Mayo	2023-05-19T00:00:00	2024-11-06T18:00:00	8	Radiación solar	97
96721	7	Sololá	702	San José Chacayá	5	Chacayá	5	Mayo	2023-05-19T00:00:00	2024-11-06T19:00:00	2	Temperatura media	19.7
96722	7	Sololá	702	San José Chacayá	5	Chacayá	5	Mayo	2023-05-19T00:00:00	2024-11-06T19:00:00	4	Temperatura máxima	20.6
96723	7	Sololá	702	San José Chacayá	5	Chacayá	5	Mayo	2023-05-19T00:00:00	2024-11-06T19:00:00	3	Temperatura mínima	19.7
96724	7	Sololá	702	San José Chacayá	5	Chacayá	5	Mayo	2023-05-19T00:00:00	2024-11-06T19:00:00	5	Humedad	71
96725	7	Sololá	702	San José Chacayá	5	Chacayá	5	Mayo	2023-05-19T00:00:00	2024-11-06T19:00:00	6	Velocidad del viento	1.6
96726	7	Sololá	702	San José Chacayá	5	Chacayá	5	Mayo	2023-05-19T00:00:00	2024-11-06T19:00:00	7	Dirección del viento	1.61
96727	7	Sololá	702	San José Chacayá	5	Chacayá	5	Mayo	2023-05-19T00:00:00	2024-11-06T19:00:00	1	Precipitación	0
96728	7	Sololá	702	San José Chacayá	5	Chacayá	5	Mayo	2023-05-19T00:00:00	2024-11-06T19:00:00	8	Radiación solar	0
96729	7	Sololá	702	San José Chacayá	5	Chacayá	5	Mayo	2023-05-19T00:00:00	2024-11-06T20:00:00	2	Temperatura media	18.1
96730	7	Sololá	702	San José Chacayá	5	Chacayá	5	Mayo	2023-05-19T00:00:00	2024-11-06T20:00:00	4	Temperatura máxima	19.7
96731	7	Sololá	702	San José Chacayá	5	Chacayá	5	Mayo	2023-05-19T00:00:00	2024-11-06T20:00:00	3	Temperatura mínima	18.1
96732	7	Sololá	702	San José Chacayá	5	Chacayá	5	Mayo	2023-05-19T00:00:00	2024-11-06T20:00:00	5	Humedad	74
96733	7	Sololá	702	San José Chacayá	5	Chacayá	5	Mayo	2023-05-19T00:00:00	2024-11-06T20:00:00	6	Velocidad del viento	3.2
96734	7	Sololá	702	San José Chacayá	5	Chacayá	5	Mayo	2023-05-19T00:00:00	2024-11-06T20:00:00	7	Dirección del viento	3.22
96735	7	Sololá	702	San José Chacayá	5	Chacayá	5	Mayo	2023-05-19T00:00:00	2024-11-06T20:00:00	1	Precipitación	0
96736	7	Sololá	702	San José Chacayá	5	Chacayá	5	Mayo	2023-05-19T00:00:00	2024-11-06T20:00:00	8	Radiación solar	0
96737	7	Sololá	702	San José Chacayá	5	Chacayá	5	Mayo	2023-05-19T00:00:00	2024-11-06T21:00:00	2	Temperatura media	17.3
96738	7	Sololá	702	San José Chacayá	5	Chacayá	5	Mayo	2023-05-19T00:00:00	2024-11-06T21:00:00	4	Temperatura máxima	18.1
96739	7	Sololá	702	San José Chacayá	5	Chacayá	5	Mayo	2023-05-19T00:00:00	2024-11-06T21:00:00	3	Temperatura mínima	17.3
96740	7	Sololá	702	San José Chacayá	5	Chacayá	5	Mayo	2023-05-19T00:00:00	2024-11-06T21:00:00	5	Humedad	78
96741	7	Sololá	702	San José Chacayá	5	Chacayá	5	Mayo	2023-05-19T00:00:00	2024-11-06T21:00:00	6	Velocidad del viento	4.8
96742	7	Sololá	702	San José Chacayá	5	Chacayá	5	Mayo	2023-05-19T00:00:00	2024-11-06T21:00:00	7	Dirección del viento	4.83
96743	7	Sololá	702	San José Chacayá	5	Chacayá	5	Mayo	2023-05-19T00:00:00	2024-11-06T21:00:00	1	Precipitación	0
96744	7	Sololá	702	San José Chacayá	5	Chacayá	5	Mayo	2023-05-19T00:00:00	2024-11-06T21:00:00	8	Radiación solar	0
96745	7	Sololá	702	San José Chacayá	5	Chacayá	5	Mayo	2023-05-19T00:00:00	2024-11-06T22:00:00	2	Temperatura media	16.8
96746	7	Sololá	702	San José Chacayá	5	Chacayá	5	Mayo	2023-05-19T00:00:00	2024-11-06T22:00:00	4	Temperatura máxima	17.2
96747	7	Sololá	702	San José Chacayá	5	Chacayá	5	Mayo	2023-05-19T00:00:00	2024-11-06T22:00:00	3	Temperatura mínima	16.7
96748	7	Sololá	702	San José Chacayá	5	Chacayá	5	Mayo	2023-05-19T00:00:00	2024-11-06T22:00:00	5	Humedad	77
96749	7	Sololá	702	San José Chacayá	5	Chacayá	5	Mayo	2023-05-19T00:00:00	2024-11-06T22:00:00	6	Velocidad del viento	4.8
96750	7	Sololá	702	San José Chacayá	5	Chacayá	5	Mayo	2023-05-19T00:00:00	2024-11-06T22:00:00	7	Dirección del viento	4.83
96751	7	Sololá	702	San José Chacayá	5	Chacayá	5	Mayo	2023-05-19T00:00:00	2024-11-06T22:00:00	1	Precipitación	0
96752	7	Sololá	702	San José Chacayá	5	Chacayá	5	Mayo	2023-05-19T00:00:00	2024-11-06T22:00:00	8	Radiación solar	0
96753	7	Sololá	702	San José Chacayá	5	Chacayá	5	Mayo	2023-05-19T00:00:00	2024-11-06T23:00:00	2	Temperatura media	16.2
96754	7	Sololá	702	San José Chacayá	5	Chacayá	5	Mayo	2023-05-19T00:00:00	2024-11-06T23:00:00	4	Temperatura máxima	16.8
96755	7	Sololá	702	San José Chacayá	5	Chacayá	5	Mayo	2023-05-19T00:00:00	2024-11-06T23:00:00	3	Temperatura mínima	16.2
96756	7	Sololá	702	San José Chacayá	5	Chacayá	5	Mayo	2023-05-19T00:00:00	2024-11-06T23:00:00	5	Humedad	79
96757	7	Sololá	702	San José Chacayá	5	Chacayá	5	Mayo	2023-05-19T00:00:00	2024-11-06T23:00:00	6	Velocidad del viento	3.2
96758	7	Sololá	702	San José Chacayá	5	Chacayá	5	Mayo	2023-05-19T00:00:00	2024-11-06T23:00:00	7	Dirección del viento	3.22
96759	7	Sololá	702	San José Chacayá	5	Chacayá	5	Mayo	2023-05-19T00:00:00	2024-11-06T23:00:00	1	Precipitación	0
96760	7	Sololá	702	San José Chacayá	5	Chacayá	5	Mayo	2023-05-19T00:00:00	2024-11-06T23:00:00	8	Radiación solar	0
96761	7	Sololá	702	San José Chacayá	5	Chacayá	5	Mayo	2023-05-20T00:00:00	2024-11-06T00:00:00	2	Temperatura media	14.9
96762	7	Sololá	702	San José Chacayá	5	Chacayá	5	Mayo	2023-05-20T00:00:00	2024-11-06T00:00:00	4	Temperatura máxima	16.2
96763	7	Sololá	702	San José Chacayá	5	Chacayá	5	Mayo	2023-05-20T00:00:00	2024-11-06T00:00:00	3	Temperatura mínima	14.9
96764	7	Sololá	702	San José Chacayá	5	Chacayá	5	Mayo	2023-05-20T00:00:00	2024-11-06T00:00:00	5	Humedad	81
96765	7	Sololá	702	San José Chacayá	5	Chacayá	5	Mayo	2023-05-20T00:00:00	2024-11-06T00:00:00	6	Velocidad del viento	1.6
96766	7	Sololá	702	San José Chacayá	5	Chacayá	5	Mayo	2023-05-20T00:00:00	2024-11-06T00:00:00	7	Dirección del viento	1.61
96767	7	Sololá	702	San José Chacayá	5	Chacayá	5	Mayo	2023-05-20T00:00:00	2024-11-06T00:00:00	1	Precipitación	0
96768	7	Sololá	702	San José Chacayá	5	Chacayá	5	Mayo	2023-05-20T00:00:00	2024-11-06T00:00:00	8	Radiación solar	0
96769	7	Sololá	702	San José Chacayá	5	Chacayá	5	Mayo	2023-05-20T00:00:00	2024-11-06T01:00:00	2	Temperatura media	12.9
96770	7	Sololá	702	San José Chacayá	5	Chacayá	5	Mayo	2023-05-20T00:00:00	2024-11-06T01:00:00	4	Temperatura máxima	14.9
96771	7	Sololá	702	San José Chacayá	5	Chacayá	5	Mayo	2023-05-20T00:00:00	2024-11-06T01:00:00	3	Temperatura mínima	12.9
96772	7	Sololá	702	San José Chacayá	5	Chacayá	5	Mayo	2023-05-20T00:00:00	2024-11-06T01:00:00	5	Humedad	83
96773	7	Sololá	702	San José Chacayá	5	Chacayá	5	Mayo	2023-05-20T00:00:00	2024-11-06T01:00:00	6	Velocidad del viento	1.6
96774	7	Sololá	702	San José Chacayá	5	Chacayá	5	Mayo	2023-05-20T00:00:00	2024-11-06T01:00:00	7	Dirección del viento	1.61
96775	7	Sololá	702	San José Chacayá	5	Chacayá	5	Mayo	2023-05-20T00:00:00	2024-11-06T01:00:00	1	Precipitación	0
96776	7	Sololá	702	San José Chacayá	5	Chacayá	5	Mayo	2023-05-20T00:00:00	2024-11-06T01:00:00	8	Radiación solar	0
96777	7	Sololá	702	San José Chacayá	5	Chacayá	5	Mayo	2023-05-20T00:00:00	2024-11-06T02:00:00	2	Temperatura media	12.1
96778	7	Sololá	702	San José Chacayá	5	Chacayá	5	Mayo	2023-05-20T00:00:00	2024-11-06T02:00:00	4	Temperatura máxima	12.9
96779	7	Sololá	702	San José Chacayá	5	Chacayá	5	Mayo	2023-05-20T00:00:00	2024-11-06T02:00:00	3	Temperatura mínima	12
96780	7	Sololá	702	San José Chacayá	5	Chacayá	5	Mayo	2023-05-20T00:00:00	2024-11-06T02:00:00	5	Humedad	83
96781	7	Sololá	702	San José Chacayá	5	Chacayá	5	Mayo	2023-05-20T00:00:00	2024-11-06T02:00:00	6	Velocidad del viento	1.6
96782	7	Sololá	702	San José Chacayá	5	Chacayá	5	Mayo	2023-05-20T00:00:00	2024-11-06T02:00:00	7	Dirección del viento	1.61
96783	7	Sololá	702	San José Chacayá	5	Chacayá	5	Mayo	2023-05-20T00:00:00	2024-11-06T02:00:00	1	Precipitación	0
96784	7	Sololá	702	San José Chacayá	5	Chacayá	5	Mayo	2023-05-20T00:00:00	2024-11-06T02:00:00	8	Radiación solar	0
96785	7	Sololá	702	San José Chacayá	5	Chacayá	5	Mayo	2023-05-20T00:00:00	2024-11-06T03:00:00	2	Temperatura media	11.3
96786	7	Sololá	702	San José Chacayá	5	Chacayá	5	Mayo	2023-05-20T00:00:00	2024-11-06T03:00:00	4	Temperatura máxima	12.1
96787	7	Sololá	702	San José Chacayá	5	Chacayá	5	Mayo	2023-05-20T00:00:00	2024-11-06T03:00:00	3	Temperatura mínima	11.3
96788	7	Sololá	702	San José Chacayá	5	Chacayá	5	Mayo	2023-05-20T00:00:00	2024-11-06T03:00:00	5	Humedad	84
96789	7	Sololá	702	San José Chacayá	5	Chacayá	5	Mayo	2023-05-20T00:00:00	2024-11-06T03:00:00	6	Velocidad del viento	3.2
96790	7	Sololá	702	San José Chacayá	5	Chacayá	5	Mayo	2023-05-20T00:00:00	2024-11-06T03:00:00	7	Dirección del viento	3.22
96791	7	Sololá	702	San José Chacayá	5	Chacayá	5	Mayo	2023-05-20T00:00:00	2024-11-06T03:00:00	1	Precipitación	0
96792	7	Sololá	702	San José Chacayá	5	Chacayá	5	Mayo	2023-05-20T00:00:00	2024-11-06T03:00:00	8	Radiación solar	0
96793	7	Sololá	702	San José Chacayá	5	Chacayá	5	Mayo	2023-05-20T00:00:00	2024-11-06T04:00:00	2	Temperatura media	11.1
96794	7	Sololá	702	San José Chacayá	5	Chacayá	5	Mayo	2023-05-20T00:00:00	2024-11-06T04:00:00	4	Temperatura máxima	11.3
96795	7	Sololá	702	San José Chacayá	5	Chacayá	5	Mayo	2023-05-20T00:00:00	2024-11-06T04:00:00	3	Temperatura mínima	11.1
96796	7	Sololá	702	San José Chacayá	5	Chacayá	5	Mayo	2023-05-20T00:00:00	2024-11-06T04:00:00	5	Humedad	83
96797	7	Sololá	702	San José Chacayá	5	Chacayá	5	Mayo	2023-05-20T00:00:00	2024-11-06T04:00:00	6	Velocidad del viento	3.2
96798	7	Sololá	702	San José Chacayá	5	Chacayá	5	Mayo	2023-05-20T00:00:00	2024-11-06T04:00:00	7	Dirección del viento	3.22
96799	7	Sololá	702	San José Chacayá	5	Chacayá	5	Mayo	2023-05-20T00:00:00	2024-11-06T04:00:00	1	Precipitación	0
96800	7	Sololá	702	San José Chacayá	5	Chacayá	5	Mayo	2023-05-20T00:00:00	2024-11-06T04:00:00	8	Radiación solar	0
96801	7	Sololá	702	San José Chacayá	5	Chacayá	5	Mayo	2023-05-20T00:00:00	2024-11-06T05:00:00	2	Temperatura media	11.6
96802	7	Sololá	702	San José Chacayá	5	Chacayá	5	Mayo	2023-05-20T00:00:00	2024-11-06T05:00:00	4	Temperatura máxima	11.6
96803	7	Sololá	702	San José Chacayá	5	Chacayá	5	Mayo	2023-05-20T00:00:00	2024-11-06T05:00:00	3	Temperatura mínima	10.9
96804	7	Sololá	702	San José Chacayá	5	Chacayá	5	Mayo	2023-05-20T00:00:00	2024-11-06T05:00:00	5	Humedad	79
96805	7	Sololá	702	San José Chacayá	5	Chacayá	5	Mayo	2023-05-20T00:00:00	2024-11-06T05:00:00	6	Velocidad del viento	1.6
96806	7	Sololá	702	San José Chacayá	5	Chacayá	5	Mayo	2023-05-20T00:00:00	2024-11-06T05:00:00	7	Dirección del viento	1.61
96807	7	Sololá	702	San José Chacayá	5	Chacayá	5	Mayo	2023-05-20T00:00:00	2024-11-06T05:00:00	1	Precipitación	0
96808	7	Sololá	702	San José Chacayá	5	Chacayá	5	Mayo	2023-05-20T00:00:00	2024-11-06T05:00:00	8	Radiación solar	0
96809	7	Sololá	702	San José Chacayá	5	Chacayá	5	Mayo	2023-05-20T00:00:00	2024-11-06T06:00:00	2	Temperatura media	11.6
96810	7	Sololá	702	San José Chacayá	5	Chacayá	5	Mayo	2023-05-20T00:00:00	2024-11-06T06:00:00	4	Temperatura máxima	11.7
96811	7	Sololá	702	San José Chacayá	5	Chacayá	5	Mayo	2023-05-20T00:00:00	2024-11-06T06:00:00	3	Temperatura mínima	11.2
96812	7	Sololá	702	San José Chacayá	5	Chacayá	5	Mayo	2023-05-20T00:00:00	2024-11-06T06:00:00	5	Humedad	76
96813	7	Sololá	702	San José Chacayá	5	Chacayá	5	Mayo	2023-05-20T00:00:00	2024-11-06T06:00:00	6	Velocidad del viento	1.6
96814	7	Sololá	702	San José Chacayá	5	Chacayá	5	Mayo	2023-05-20T00:00:00	2024-11-06T06:00:00	7	Dirección del viento	1.61
96815	7	Sololá	702	San José Chacayá	5	Chacayá	5	Mayo	2023-05-20T00:00:00	2024-11-06T06:00:00	1	Precipitación	0
96816	7	Sololá	702	San José Chacayá	5	Chacayá	5	Mayo	2023-05-20T00:00:00	2024-11-06T06:00:00	8	Radiación solar	0
96817	7	Sololá	702	San José Chacayá	5	Chacayá	5	Mayo	2023-05-20T00:00:00	2024-11-06T07:00:00	2	Temperatura media	10.7
96818	7	Sololá	702	San José Chacayá	5	Chacayá	5	Mayo	2023-05-20T00:00:00	2024-11-06T07:00:00	4	Temperatura máxima	11.9
96819	7	Sololá	702	San José Chacayá	5	Chacayá	5	Mayo	2023-05-20T00:00:00	2024-11-06T07:00:00	3	Temperatura mínima	10.6
96820	7	Sololá	702	San José Chacayá	5	Chacayá	5	Mayo	2023-05-20T00:00:00	2024-11-06T07:00:00	5	Humedad	80
96821	7	Sololá	702	San José Chacayá	5	Chacayá	5	Mayo	2023-05-20T00:00:00	2024-11-06T07:00:00	6	Velocidad del viento	3.2
96822	7	Sololá	702	San José Chacayá	5	Chacayá	5	Mayo	2023-05-20T00:00:00	2024-11-06T07:00:00	7	Dirección del viento	3.22
96823	7	Sololá	702	San José Chacayá	5	Chacayá	5	Mayo	2023-05-20T00:00:00	2024-11-06T07:00:00	1	Precipitación	0
96824	7	Sololá	702	San José Chacayá	5	Chacayá	5	Mayo	2023-05-20T00:00:00	2024-11-06T07:00:00	8	Radiación solar	9
96825	7	Sololá	702	San José Chacayá	5	Chacayá	5	Mayo	2023-05-20T00:00:00	2024-11-06T08:00:00	2	Temperatura media	13.4
96826	7	Sololá	702	San José Chacayá	5	Chacayá	5	Mayo	2023-05-20T00:00:00	2024-11-06T08:00:00	4	Temperatura máxima	13.4
96827	7	Sololá	702	San José Chacayá	5	Chacayá	5	Mayo	2023-05-20T00:00:00	2024-11-06T08:00:00	3	Temperatura mínima	10.7
96828	7	Sololá	702	San José Chacayá	5	Chacayá	5	Mayo	2023-05-20T00:00:00	2024-11-06T08:00:00	5	Humedad	75
96829	7	Sololá	702	San José Chacayá	5	Chacayá	5	Mayo	2023-05-20T00:00:00	2024-11-06T08:00:00	6	Velocidad del viento	3.2
96830	7	Sololá	702	San José Chacayá	5	Chacayá	5	Mayo	2023-05-20T00:00:00	2024-11-06T08:00:00	7	Dirección del viento	3.22
96831	7	Sololá	702	San José Chacayá	5	Chacayá	5	Mayo	2023-05-20T00:00:00	2024-11-06T08:00:00	1	Precipitación	0
96832	7	Sololá	702	San José Chacayá	5	Chacayá	5	Mayo	2023-05-20T00:00:00	2024-11-06T08:00:00	8	Radiación solar	75
96833	7	Sololá	702	San José Chacayá	5	Chacayá	5	Mayo	2023-05-20T00:00:00	2024-11-06T09:00:00	2	Temperatura media	18.4
96834	7	Sololá	702	San José Chacayá	5	Chacayá	5	Mayo	2023-05-20T00:00:00	2024-11-06T09:00:00	4	Temperatura máxima	18.4
96835	7	Sololá	702	San José Chacayá	5	Chacayá	5	Mayo	2023-05-20T00:00:00	2024-11-06T09:00:00	3	Temperatura mínima	13.4
96836	7	Sololá	702	San José Chacayá	5	Chacayá	5	Mayo	2023-05-20T00:00:00	2024-11-06T09:00:00	5	Humedad	52
96837	7	Sololá	702	San José Chacayá	5	Chacayá	5	Mayo	2023-05-20T00:00:00	2024-11-06T09:00:00	6	Velocidad del viento	3.2
96838	7	Sololá	702	San José Chacayá	5	Chacayá	5	Mayo	2023-05-20T00:00:00	2024-11-06T09:00:00	7	Dirección del viento	3.22
96839	7	Sololá	702	San José Chacayá	5	Chacayá	5	Mayo	2023-05-20T00:00:00	2024-11-06T09:00:00	1	Precipitación	0
96840	7	Sololá	702	San José Chacayá	5	Chacayá	5	Mayo	2023-05-20T00:00:00	2024-11-06T09:00:00	8	Radiación solar	89
96841	7	Sololá	702	San José Chacayá	5	Chacayá	5	Mayo	2023-05-20T00:00:00	2024-11-06T10:00:00	2	Temperatura media	20.7
96842	7	Sololá	702	San José Chacayá	5	Chacayá	5	Mayo	2023-05-20T00:00:00	2024-11-06T10:00:00	4	Temperatura máxima	20.7
96843	7	Sololá	702	San José Chacayá	5	Chacayá	5	Mayo	2023-05-20T00:00:00	2024-11-06T10:00:00	3	Temperatura mínima	18.4
96844	7	Sololá	702	San José Chacayá	5	Chacayá	5	Mayo	2023-05-20T00:00:00	2024-11-06T10:00:00	5	Humedad	53
96845	7	Sololá	702	San José Chacayá	5	Chacayá	5	Mayo	2023-05-20T00:00:00	2024-11-06T10:00:00	6	Velocidad del viento	6.4
96846	7	Sololá	702	San José Chacayá	5	Chacayá	5	Mayo	2023-05-20T00:00:00	2024-11-06T10:00:00	7	Dirección del viento	6.44
96847	7	Sololá	702	San José Chacayá	5	Chacayá	5	Mayo	2023-05-20T00:00:00	2024-11-06T10:00:00	1	Precipitación	0
96848	7	Sololá	702	San José Chacayá	5	Chacayá	5	Mayo	2023-05-20T00:00:00	2024-11-06T10:00:00	8	Radiación solar	511
96849	7	Sololá	702	San José Chacayá	5	Chacayá	5	Mayo	2023-05-20T00:00:00	2024-11-06T11:00:00	2	Temperatura media	21.4
96850	7	Sololá	702	San José Chacayá	5	Chacayá	5	Mayo	2023-05-20T00:00:00	2024-11-06T11:00:00	4	Temperatura máxima	21.4
96851	7	Sololá	702	San José Chacayá	5	Chacayá	5	Mayo	2023-05-20T00:00:00	2024-11-06T11:00:00	3	Temperatura mínima	20.7
96852	7	Sololá	702	San José Chacayá	5	Chacayá	5	Mayo	2023-05-20T00:00:00	2024-11-06T11:00:00	5	Humedad	57
96853	7	Sololá	702	San José Chacayá	5	Chacayá	5	Mayo	2023-05-20T00:00:00	2024-11-06T11:00:00	6	Velocidad del viento	6.4
96854	7	Sololá	702	San José Chacayá	5	Chacayá	5	Mayo	2023-05-20T00:00:00	2024-11-06T11:00:00	7	Dirección del viento	6.44
96855	7	Sololá	702	San José Chacayá	5	Chacayá	5	Mayo	2023-05-20T00:00:00	2024-11-06T11:00:00	1	Precipitación	0
96856	7	Sololá	702	San José Chacayá	5	Chacayá	5	Mayo	2023-05-20T00:00:00	2024-11-06T11:00:00	8	Radiación solar	737
96857	7	Sololá	702	San José Chacayá	5	Chacayá	5	Mayo	2023-05-20T00:00:00	2024-11-06T12:00:00	2	Temperatura media	21.9
96858	7	Sololá	702	San José Chacayá	5	Chacayá	5	Mayo	2023-05-20T00:00:00	2024-11-06T12:00:00	4	Temperatura máxima	22.3
96859	7	Sololá	702	San José Chacayá	5	Chacayá	5	Mayo	2023-05-20T00:00:00	2024-11-06T12:00:00	3	Temperatura mínima	21.2
96860	7	Sololá	702	San José Chacayá	5	Chacayá	5	Mayo	2023-05-20T00:00:00	2024-11-06T12:00:00	5	Humedad	53
96861	7	Sololá	702	San José Chacayá	5	Chacayá	5	Mayo	2023-05-20T00:00:00	2024-11-06T12:00:00	6	Velocidad del viento	6.4
96862	7	Sololá	702	San José Chacayá	5	Chacayá	5	Mayo	2023-05-20T00:00:00	2024-11-06T12:00:00	7	Dirección del viento	6.44
96863	7	Sololá	702	San José Chacayá	5	Chacayá	5	Mayo	2023-05-20T00:00:00	2024-11-06T12:00:00	1	Precipitación	0
96864	7	Sololá	702	San José Chacayá	5	Chacayá	5	Mayo	2023-05-20T00:00:00	2024-11-06T12:00:00	8	Radiación solar	866
96865	7	Sololá	702	San José Chacayá	5	Chacayá	5	Mayo	2023-05-20T00:00:00	2024-11-06T13:00:00	2	Temperatura media	23.6
96866	7	Sololá	702	San José Chacayá	5	Chacayá	5	Mayo	2023-05-20T00:00:00	2024-11-06T13:00:00	4	Temperatura máxima	23.7
96867	7	Sololá	702	San José Chacayá	5	Chacayá	5	Mayo	2023-05-20T00:00:00	2024-11-06T13:00:00	3	Temperatura mínima	21.9
96868	7	Sololá	702	San José Chacayá	5	Chacayá	5	Mayo	2023-05-20T00:00:00	2024-11-06T13:00:00	5	Humedad	45
96869	7	Sololá	702	San José Chacayá	5	Chacayá	5	Mayo	2023-05-20T00:00:00	2024-11-06T13:00:00	6	Velocidad del viento	6.4
96870	7	Sololá	702	San José Chacayá	5	Chacayá	5	Mayo	2023-05-20T00:00:00	2024-11-06T13:00:00	7	Dirección del viento	6.44
96871	7	Sololá	702	San José Chacayá	5	Chacayá	5	Mayo	2023-05-20T00:00:00	2024-11-06T13:00:00	1	Precipitación	0
96872	7	Sololá	702	San José Chacayá	5	Chacayá	5	Mayo	2023-05-20T00:00:00	2024-11-06T13:00:00	8	Radiación solar	945
96873	7	Sololá	702	San José Chacayá	5	Chacayá	5	Mayo	2023-05-20T00:00:00	2024-11-06T14:00:00	2	Temperatura media	24.9
96874	7	Sololá	702	San José Chacayá	5	Chacayá	5	Mayo	2023-05-20T00:00:00	2024-11-06T14:00:00	4	Temperatura máxima	24.9
96875	7	Sololá	702	San José Chacayá	5	Chacayá	5	Mayo	2023-05-20T00:00:00	2024-11-06T14:00:00	3	Temperatura mínima	23.4
96876	7	Sololá	702	San José Chacayá	5	Chacayá	5	Mayo	2023-05-20T00:00:00	2024-11-06T14:00:00	5	Humedad	44
96877	7	Sololá	702	San José Chacayá	5	Chacayá	5	Mayo	2023-05-20T00:00:00	2024-11-06T14:00:00	6	Velocidad del viento	6.4
96878	7	Sololá	702	San José Chacayá	5	Chacayá	5	Mayo	2023-05-20T00:00:00	2024-11-06T14:00:00	7	Dirección del viento	6.44
96879	7	Sololá	702	San José Chacayá	5	Chacayá	5	Mayo	2023-05-20T00:00:00	2024-11-06T14:00:00	1	Precipitación	0
96880	7	Sololá	702	San José Chacayá	5	Chacayá	5	Mayo	2023-05-20T00:00:00	2024-11-06T14:00:00	8	Radiación solar	983
96881	7	Sololá	702	San José Chacayá	5	Chacayá	5	Mayo	2023-05-20T00:00:00	2024-11-06T15:00:00	2	Temperatura media	24.5
96882	7	Sololá	702	San José Chacayá	5	Chacayá	5	Mayo	2023-05-20T00:00:00	2024-11-06T15:00:00	4	Temperatura máxima	24.9
96883	7	Sololá	702	San José Chacayá	5	Chacayá	5	Mayo	2023-05-20T00:00:00	2024-11-06T15:00:00	3	Temperatura mínima	24.4
96884	7	Sololá	702	San José Chacayá	5	Chacayá	5	Mayo	2023-05-20T00:00:00	2024-11-06T15:00:00	5	Humedad	42
96885	7	Sololá	702	San José Chacayá	5	Chacayá	5	Mayo	2023-05-20T00:00:00	2024-11-06T15:00:00	6	Velocidad del viento	8
96886	7	Sololá	702	San José Chacayá	5	Chacayá	5	Mayo	2023-05-20T00:00:00	2024-11-06T15:00:00	7	Dirección del viento	8.05
96887	7	Sololá	702	San José Chacayá	5	Chacayá	5	Mayo	2023-05-20T00:00:00	2024-11-06T15:00:00	1	Precipitación	0
96888	7	Sololá	702	San José Chacayá	5	Chacayá	5	Mayo	2023-05-20T00:00:00	2024-11-06T15:00:00	8	Radiación solar	915
96889	7	Sololá	702	San José Chacayá	5	Chacayá	5	Mayo	2023-05-20T00:00:00	2024-11-06T16:00:00	2	Temperatura media	24.1
96890	7	Sololá	702	San José Chacayá	5	Chacayá	5	Mayo	2023-05-20T00:00:00	2024-11-06T16:00:00	4	Temperatura máxima	24.8
96891	7	Sololá	702	San José Chacayá	5	Chacayá	5	Mayo	2023-05-20T00:00:00	2024-11-06T16:00:00	3	Temperatura mínima	23.9
96892	7	Sololá	702	San José Chacayá	5	Chacayá	5	Mayo	2023-05-20T00:00:00	2024-11-06T16:00:00	5	Humedad	43
96893	7	Sololá	702	San José Chacayá	5	Chacayá	5	Mayo	2023-05-20T00:00:00	2024-11-06T16:00:00	6	Velocidad del viento	6.4
96894	7	Sololá	702	San José Chacayá	5	Chacayá	5	Mayo	2023-05-20T00:00:00	2024-11-06T16:00:00	7	Dirección del viento	6.44
96895	7	Sololá	702	San José Chacayá	5	Chacayá	5	Mayo	2023-05-20T00:00:00	2024-11-06T16:00:00	1	Precipitación	0
96896	7	Sololá	702	San José Chacayá	5	Chacayá	5	Mayo	2023-05-20T00:00:00	2024-11-06T16:00:00	8	Radiación solar	772
96897	7	Sololá	702	San José Chacayá	5	Chacayá	5	Mayo	2023-05-20T00:00:00	2024-11-06T17:00:00	2	Temperatura media	22.6
96898	7	Sololá	702	San José Chacayá	5	Chacayá	5	Mayo	2023-05-20T00:00:00	2024-11-06T17:00:00	4	Temperatura máxima	24.2
96899	7	Sololá	702	San José Chacayá	5	Chacayá	5	Mayo	2023-05-20T00:00:00	2024-11-06T17:00:00	3	Temperatura mínima	22.6
96900	7	Sololá	702	San José Chacayá	5	Chacayá	5	Mayo	2023-05-20T00:00:00	2024-11-06T17:00:00	5	Humedad	47
96901	7	Sololá	702	San José Chacayá	5	Chacayá	5	Mayo	2023-05-20T00:00:00	2024-11-06T17:00:00	6	Velocidad del viento	6.4
96902	7	Sololá	702	San José Chacayá	5	Chacayá	5	Mayo	2023-05-20T00:00:00	2024-11-06T17:00:00	7	Dirección del viento	6.44
96903	7	Sololá	702	San José Chacayá	5	Chacayá	5	Mayo	2023-05-20T00:00:00	2024-11-06T17:00:00	1	Precipitación	0
96904	7	Sololá	702	San José Chacayá	5	Chacayá	5	Mayo	2023-05-20T00:00:00	2024-11-06T17:00:00	8	Radiación solar	581
96905	7	Sololá	702	San José Chacayá	5	Chacayá	5	Mayo	2023-05-20T00:00:00	2024-11-06T18:00:00	2	Temperatura media	21.4
96906	7	Sololá	702	San José Chacayá	5	Chacayá	5	Mayo	2023-05-20T00:00:00	2024-11-06T18:00:00	4	Temperatura máxima	22.6
96907	7	Sololá	702	San José Chacayá	5	Chacayá	5	Mayo	2023-05-20T00:00:00	2024-11-06T18:00:00	3	Temperatura mínima	21.4
96908	7	Sololá	702	San José Chacayá	5	Chacayá	5	Mayo	2023-05-20T00:00:00	2024-11-06T18:00:00	5	Humedad	52
96909	7	Sololá	702	San José Chacayá	5	Chacayá	5	Mayo	2023-05-20T00:00:00	2024-11-06T18:00:00	6	Velocidad del viento	4.8
96910	7	Sololá	702	San José Chacayá	5	Chacayá	5	Mayo	2023-05-20T00:00:00	2024-11-06T18:00:00	7	Dirección del viento	4.83
96911	7	Sololá	702	San José Chacayá	5	Chacayá	5	Mayo	2023-05-20T00:00:00	2024-11-06T18:00:00	1	Precipitación	0
96912	7	Sololá	702	San José Chacayá	5	Chacayá	5	Mayo	2023-05-20T00:00:00	2024-11-06T18:00:00	8	Radiación solar	248
96913	7	Sololá	702	San José Chacayá	5	Chacayá	5	Mayo	2023-05-20T00:00:00	2024-11-06T19:00:00	2	Temperatura media	19.1
96914	7	Sololá	702	San José Chacayá	5	Chacayá	5	Mayo	2023-05-20T00:00:00	2024-11-06T19:00:00	4	Temperatura máxima	21.4
96915	7	Sololá	702	San José Chacayá	5	Chacayá	5	Mayo	2023-05-20T00:00:00	2024-11-06T19:00:00	3	Temperatura mínima	19.1
96916	7	Sololá	702	San José Chacayá	5	Chacayá	5	Mayo	2023-05-20T00:00:00	2024-11-06T19:00:00	5	Humedad	61
96917	7	Sololá	702	San José Chacayá	5	Chacayá	5	Mayo	2023-05-20T00:00:00	2024-11-06T19:00:00	6	Velocidad del viento	3.2
96918	7	Sololá	702	San José Chacayá	5	Chacayá	5	Mayo	2023-05-20T00:00:00	2024-11-06T19:00:00	7	Dirección del viento	3.22
96919	7	Sololá	702	San José Chacayá	5	Chacayá	5	Mayo	2023-05-20T00:00:00	2024-11-06T19:00:00	1	Precipitación	0
96920	7	Sololá	702	San José Chacayá	5	Chacayá	5	Mayo	2023-05-20T00:00:00	2024-11-06T19:00:00	8	Radiación solar	0
96921	7	Sololá	702	San José Chacayá	5	Chacayá	5	Mayo	2023-05-20T00:00:00	2024-11-06T20:00:00	2	Temperatura media	17.4
96922	7	Sololá	702	San José Chacayá	5	Chacayá	5	Mayo	2023-05-20T00:00:00	2024-11-06T20:00:00	4	Temperatura máxima	19.1
96923	7	Sololá	702	San José Chacayá	5	Chacayá	5	Mayo	2023-05-20T00:00:00	2024-11-06T20:00:00	3	Temperatura mínima	17.4
96924	7	Sololá	702	San José Chacayá	5	Chacayá	5	Mayo	2023-05-20T00:00:00	2024-11-06T20:00:00	5	Humedad	72
96925	7	Sololá	702	San José Chacayá	5	Chacayá	5	Mayo	2023-05-20T00:00:00	2024-11-06T20:00:00	6	Velocidad del viento	3.2
96926	7	Sololá	702	San José Chacayá	5	Chacayá	5	Mayo	2023-05-20T00:00:00	2024-11-06T20:00:00	7	Dirección del viento	3.22
96927	7	Sololá	702	San José Chacayá	5	Chacayá	5	Mayo	2023-05-20T00:00:00	2024-11-06T20:00:00	1	Precipitación	0
96928	7	Sololá	702	San José Chacayá	5	Chacayá	5	Mayo	2023-05-20T00:00:00	2024-11-06T20:00:00	8	Radiación solar	0
96929	7	Sololá	702	San José Chacayá	5	Chacayá	5	Mayo	2023-05-20T00:00:00	2024-11-06T21:00:00	2	Temperatura media	16.3
96930	7	Sololá	702	San José Chacayá	5	Chacayá	5	Mayo	2023-05-20T00:00:00	2024-11-06T21:00:00	4	Temperatura máxima	17.4
96931	7	Sololá	702	San José Chacayá	5	Chacayá	5	Mayo	2023-05-20T00:00:00	2024-11-06T21:00:00	3	Temperatura mínima	16.3
96932	7	Sololá	702	San José Chacayá	5	Chacayá	5	Mayo	2023-05-20T00:00:00	2024-11-06T21:00:00	5	Humedad	76
96933	7	Sololá	702	San José Chacayá	5	Chacayá	5	Mayo	2023-05-20T00:00:00	2024-11-06T21:00:00	6	Velocidad del viento	3.2
96934	7	Sololá	702	San José Chacayá	5	Chacayá	5	Mayo	2023-05-20T00:00:00	2024-11-06T21:00:00	7	Dirección del viento	3.22
96935	7	Sololá	702	San José Chacayá	5	Chacayá	5	Mayo	2023-05-20T00:00:00	2024-11-06T21:00:00	1	Precipitación	0
96936	7	Sololá	702	San José Chacayá	5	Chacayá	5	Mayo	2023-05-20T00:00:00	2024-11-06T21:00:00	8	Radiación solar	0
96937	7	Sololá	702	San José Chacayá	5	Chacayá	5	Mayo	2023-05-20T00:00:00	2024-11-06T22:00:00	2	Temperatura media	16.2
96938	7	Sololá	702	San José Chacayá	5	Chacayá	5	Mayo	2023-05-20T00:00:00	2024-11-06T22:00:00	4	Temperatura máxima	16.3
96939	7	Sololá	702	San José Chacayá	5	Chacayá	5	Mayo	2023-05-20T00:00:00	2024-11-06T22:00:00	3	Temperatura mínima	16.2
96940	7	Sololá	702	San José Chacayá	5	Chacayá	5	Mayo	2023-05-20T00:00:00	2024-11-06T22:00:00	5	Humedad	75
96941	7	Sololá	702	San José Chacayá	5	Chacayá	5	Mayo	2023-05-20T00:00:00	2024-11-06T22:00:00	6	Velocidad del viento	4.8
96942	7	Sololá	702	San José Chacayá	5	Chacayá	5	Mayo	2023-05-20T00:00:00	2024-11-06T22:00:00	7	Dirección del viento	4.83
96943	7	Sololá	702	San José Chacayá	5	Chacayá	5	Mayo	2023-05-20T00:00:00	2024-11-06T22:00:00	1	Precipitación	0
96944	7	Sololá	702	San José Chacayá	5	Chacayá	5	Mayo	2023-05-20T00:00:00	2024-11-06T22:00:00	8	Radiación solar	0
96945	7	Sololá	702	San José Chacayá	5	Chacayá	5	Mayo	2023-05-20T00:00:00	2024-11-06T23:00:00	2	Temperatura media	15.9
96946	7	Sololá	702	San José Chacayá	5	Chacayá	5	Mayo	2023-05-20T00:00:00	2024-11-06T23:00:00	4	Temperatura máxima	16.2
96947	7	Sololá	702	San José Chacayá	5	Chacayá	5	Mayo	2023-05-20T00:00:00	2024-11-06T23:00:00	3	Temperatura mínima	15.9
96948	7	Sololá	702	San José Chacayá	5	Chacayá	5	Mayo	2023-05-20T00:00:00	2024-11-06T23:00:00	5	Humedad	69
96949	7	Sololá	702	San José Chacayá	5	Chacayá	5	Mayo	2023-05-20T00:00:00	2024-11-06T23:00:00	6	Velocidad del viento	3.2
96950	7	Sololá	702	San José Chacayá	5	Chacayá	5	Mayo	2023-05-20T00:00:00	2024-11-06T23:00:00	7	Dirección del viento	3.22
96951	7	Sololá	702	San José Chacayá	5	Chacayá	5	Mayo	2023-05-20T00:00:00	2024-11-06T23:00:00	1	Precipitación	0
96952	7	Sololá	702	San José Chacayá	5	Chacayá	5	Mayo	2023-05-20T00:00:00	2024-11-06T23:00:00	8	Radiación solar	0
96953	7	Sololá	702	San José Chacayá	5	Chacayá	5	Mayo	2023-05-21T00:00:00	2024-11-06T00:00:00	2	Temperatura media	13.1
96954	7	Sololá	702	San José Chacayá	5	Chacayá	5	Mayo	2023-05-21T00:00:00	2024-11-06T00:00:00	4	Temperatura máxima	15.9
96955	7	Sololá	702	San José Chacayá	5	Chacayá	5	Mayo	2023-05-21T00:00:00	2024-11-06T00:00:00	3	Temperatura mínima	13.1
96956	7	Sololá	702	San José Chacayá	5	Chacayá	5	Mayo	2023-05-21T00:00:00	2024-11-06T00:00:00	5	Humedad	81
96957	7	Sololá	702	San José Chacayá	5	Chacayá	5	Mayo	2023-05-21T00:00:00	2024-11-06T00:00:00	6	Velocidad del viento	0
96958	7	Sololá	702	San José Chacayá	5	Chacayá	5	Mayo	2023-05-21T00:00:00	2024-11-06T00:00:00	7	Dirección del viento	0
96959	7	Sololá	702	San José Chacayá	5	Chacayá	5	Mayo	2023-05-21T00:00:00	2024-11-06T00:00:00	1	Precipitación	0
96960	7	Sololá	702	San José Chacayá	5	Chacayá	5	Mayo	2023-05-21T00:00:00	2024-11-06T00:00:00	8	Radiación solar	0
96961	7	Sololá	702	San José Chacayá	5	Chacayá	5	Mayo	2023-05-21T00:00:00	2024-11-06T01:00:00	2	Temperatura media	11.7
96962	7	Sololá	702	San José Chacayá	5	Chacayá	5	Mayo	2023-05-21T00:00:00	2024-11-06T01:00:00	4	Temperatura máxima	13.1
96963	7	Sololá	702	San José Chacayá	5	Chacayá	5	Mayo	2023-05-21T00:00:00	2024-11-06T01:00:00	3	Temperatura mínima	11.7
96964	7	Sololá	702	San José Chacayá	5	Chacayá	5	Mayo	2023-05-21T00:00:00	2024-11-06T01:00:00	5	Humedad	83
96965	7	Sololá	702	San José Chacayá	5	Chacayá	5	Mayo	2023-05-21T00:00:00	2024-11-06T01:00:00	6	Velocidad del viento	3.2
96966	7	Sololá	702	San José Chacayá	5	Chacayá	5	Mayo	2023-05-21T00:00:00	2024-11-06T01:00:00	7	Dirección del viento	3.22
96967	7	Sololá	702	San José Chacayá	5	Chacayá	5	Mayo	2023-05-21T00:00:00	2024-11-06T01:00:00	1	Precipitación	0
96968	7	Sololá	702	San José Chacayá	5	Chacayá	5	Mayo	2023-05-21T00:00:00	2024-11-06T01:00:00	8	Radiación solar	0
96969	7	Sololá	702	San José Chacayá	5	Chacayá	5	Mayo	2023-05-21T00:00:00	2024-11-06T02:00:00	2	Temperatura media	11.6
96970	7	Sololá	702	San José Chacayá	5	Chacayá	5	Mayo	2023-05-21T00:00:00	2024-11-06T02:00:00	4	Temperatura máxima	11.7
96971	7	Sololá	702	San José Chacayá	5	Chacayá	5	Mayo	2023-05-21T00:00:00	2024-11-06T02:00:00	3	Temperatura mínima	11.4
96972	7	Sololá	702	San José Chacayá	5	Chacayá	5	Mayo	2023-05-21T00:00:00	2024-11-06T02:00:00	5	Humedad	83
96973	7	Sololá	702	San José Chacayá	5	Chacayá	5	Mayo	2023-05-21T00:00:00	2024-11-06T02:00:00	6	Velocidad del viento	3.2
96974	7	Sololá	702	San José Chacayá	5	Chacayá	5	Mayo	2023-05-21T00:00:00	2024-11-06T02:00:00	7	Dirección del viento	3.22
96975	7	Sololá	702	San José Chacayá	5	Chacayá	5	Mayo	2023-05-21T00:00:00	2024-11-06T02:00:00	1	Precipitación	0
96976	7	Sololá	702	San José Chacayá	5	Chacayá	5	Mayo	2023-05-21T00:00:00	2024-11-06T02:00:00	8	Radiación solar	0
96977	7	Sololá	702	San José Chacayá	5	Chacayá	5	Mayo	2023-05-21T00:00:00	2024-11-06T03:00:00	2	Temperatura media	11.4
96978	7	Sololá	702	San José Chacayá	5	Chacayá	5	Mayo	2023-05-21T00:00:00	2024-11-06T03:00:00	4	Temperatura máxima	11.8
96979	7	Sololá	702	San José Chacayá	5	Chacayá	5	Mayo	2023-05-21T00:00:00	2024-11-06T03:00:00	3	Temperatura mínima	11.4
96980	7	Sololá	702	San José Chacayá	5	Chacayá	5	Mayo	2023-05-21T00:00:00	2024-11-06T03:00:00	5	Humedad	83
96981	7	Sololá	702	San José Chacayá	5	Chacayá	5	Mayo	2023-05-21T00:00:00	2024-11-06T03:00:00	6	Velocidad del viento	3.2
96982	7	Sololá	702	San José Chacayá	5	Chacayá	5	Mayo	2023-05-21T00:00:00	2024-11-06T03:00:00	7	Dirección del viento	3.22
96983	7	Sololá	702	San José Chacayá	5	Chacayá	5	Mayo	2023-05-21T00:00:00	2024-11-06T03:00:00	1	Precipitación	0
96984	7	Sololá	702	San José Chacayá	5	Chacayá	5	Mayo	2023-05-21T00:00:00	2024-11-06T03:00:00	8	Radiación solar	0
96985	7	Sololá	702	San José Chacayá	5	Chacayá	5	Mayo	2023-05-21T00:00:00	2024-11-06T04:00:00	2	Temperatura media	10.7
96986	7	Sololá	702	San José Chacayá	5	Chacayá	5	Mayo	2023-05-21T00:00:00	2024-11-06T04:00:00	4	Temperatura máxima	11.4
96987	7	Sololá	702	San José Chacayá	5	Chacayá	5	Mayo	2023-05-21T00:00:00	2024-11-06T04:00:00	3	Temperatura mínima	10.7
96988	7	Sololá	702	San José Chacayá	5	Chacayá	5	Mayo	2023-05-21T00:00:00	2024-11-06T04:00:00	5	Humedad	84
96989	7	Sololá	702	San José Chacayá	5	Chacayá	5	Mayo	2023-05-21T00:00:00	2024-11-06T04:00:00	6	Velocidad del viento	3.2
96990	7	Sololá	702	San José Chacayá	5	Chacayá	5	Mayo	2023-05-21T00:00:00	2024-11-06T04:00:00	7	Dirección del viento	3.22
96991	7	Sololá	702	San José Chacayá	5	Chacayá	5	Mayo	2023-05-21T00:00:00	2024-11-06T04:00:00	1	Precipitación	0
96992	7	Sololá	702	San José Chacayá	5	Chacayá	5	Mayo	2023-05-21T00:00:00	2024-11-06T04:00:00	8	Radiación solar	0
96993	7	Sololá	702	San José Chacayá	5	Chacayá	5	Mayo	2023-05-21T00:00:00	2024-11-06T05:00:00	2	Temperatura media	11.2
96994	7	Sololá	702	San José Chacayá	5	Chacayá	5	Mayo	2023-05-21T00:00:00	2024-11-06T05:00:00	4	Temperatura máxima	11.5
96995	7	Sololá	702	San José Chacayá	5	Chacayá	5	Mayo	2023-05-21T00:00:00	2024-11-06T05:00:00	3	Temperatura mínima	10.7
96996	7	Sololá	702	San José Chacayá	5	Chacayá	5	Mayo	2023-05-21T00:00:00	2024-11-06T05:00:00	5	Humedad	83
96997	7	Sololá	702	San José Chacayá	5	Chacayá	5	Mayo	2023-05-21T00:00:00	2024-11-06T05:00:00	6	Velocidad del viento	1.6
96998	7	Sololá	702	San José Chacayá	5	Chacayá	5	Mayo	2023-05-21T00:00:00	2024-11-06T05:00:00	7	Dirección del viento	1.61
96999	7	Sololá	702	San José Chacayá	5	Chacayá	5	Mayo	2023-05-21T00:00:00	2024-11-06T05:00:00	1	Precipitación	0
97000	7	Sololá	702	San José Chacayá	5	Chacayá	5	Mayo	2023-05-21T00:00:00	2024-11-06T05:00:00	8	Radiación solar	0
97001	7	Sololá	702	San José Chacayá	5	Chacayá	5	Mayo	2023-05-21T00:00:00	2024-11-06T06:00:00	2	Temperatura media	11.4
97002	7	Sololá	702	San José Chacayá	5	Chacayá	5	Mayo	2023-05-21T00:00:00	2024-11-06T06:00:00	4	Temperatura máxima	11.4
97003	7	Sololá	702	San José Chacayá	5	Chacayá	5	Mayo	2023-05-21T00:00:00	2024-11-06T06:00:00	3	Temperatura mínima	11.1
97004	7	Sololá	702	San José Chacayá	5	Chacayá	5	Mayo	2023-05-21T00:00:00	2024-11-06T06:00:00	5	Humedad	84
97005	7	Sololá	702	San José Chacayá	5	Chacayá	5	Mayo	2023-05-21T00:00:00	2024-11-06T06:00:00	6	Velocidad del viento	3.2
97006	7	Sololá	702	San José Chacayá	5	Chacayá	5	Mayo	2023-05-21T00:00:00	2024-11-06T06:00:00	7	Dirección del viento	3.22
97007	7	Sololá	702	San José Chacayá	5	Chacayá	5	Mayo	2023-05-21T00:00:00	2024-11-06T06:00:00	1	Precipitación	0
97008	7	Sololá	702	San José Chacayá	5	Chacayá	5	Mayo	2023-05-21T00:00:00	2024-11-06T06:00:00	8	Radiación solar	0
97009	7	Sololá	702	San José Chacayá	5	Chacayá	5	Mayo	2023-05-21T00:00:00	2024-11-06T07:00:00	2	Temperatura media	12.4
97010	7	Sololá	702	San José Chacayá	5	Chacayá	5	Mayo	2023-05-21T00:00:00	2024-11-06T07:00:00	4	Temperatura máxima	12.4
97011	7	Sololá	702	San José Chacayá	5	Chacayá	5	Mayo	2023-05-21T00:00:00	2024-11-06T07:00:00	3	Temperatura mínima	11.4
97012	7	Sololá	702	San José Chacayá	5	Chacayá	5	Mayo	2023-05-21T00:00:00	2024-11-06T07:00:00	5	Humedad	83
97013	7	Sololá	702	San José Chacayá	5	Chacayá	5	Mayo	2023-05-21T00:00:00	2024-11-06T07:00:00	6	Velocidad del viento	1.6
97014	7	Sololá	702	San José Chacayá	5	Chacayá	5	Mayo	2023-05-21T00:00:00	2024-11-06T07:00:00	7	Dirección del viento	1.61
97015	7	Sololá	702	San José Chacayá	5	Chacayá	5	Mayo	2023-05-21T00:00:00	2024-11-06T07:00:00	1	Precipitación	0
97016	7	Sololá	702	San José Chacayá	5	Chacayá	5	Mayo	2023-05-21T00:00:00	2024-11-06T07:00:00	8	Radiación solar	1
97017	7	Sololá	702	San José Chacayá	5	Chacayá	5	Mayo	2023-05-21T00:00:00	2024-11-06T08:00:00	2	Temperatura media	14.1
97018	7	Sololá	702	San José Chacayá	5	Chacayá	5	Mayo	2023-05-21T00:00:00	2024-11-06T08:00:00	4	Temperatura máxima	14.1
97019	7	Sololá	702	San José Chacayá	5	Chacayá	5	Mayo	2023-05-21T00:00:00	2024-11-06T08:00:00	3	Temperatura mínima	12.4
97020	7	Sololá	702	San José Chacayá	5	Chacayá	5	Mayo	2023-05-21T00:00:00	2024-11-06T08:00:00	5	Humedad	83
97021	7	Sololá	702	San José Chacayá	5	Chacayá	5	Mayo	2023-05-21T00:00:00	2024-11-06T08:00:00	6	Velocidad del viento	0
97022	7	Sololá	702	San José Chacayá	5	Chacayá	5	Mayo	2023-05-21T00:00:00	2024-11-06T08:00:00	7	Dirección del viento	0
97023	7	Sololá	702	San José Chacayá	5	Chacayá	5	Mayo	2023-05-21T00:00:00	2024-11-06T08:00:00	1	Precipitación	0
97024	7	Sololá	702	San José Chacayá	5	Chacayá	5	Mayo	2023-05-21T00:00:00	2024-11-06T08:00:00	8	Radiación solar	47
97025	7	Sololá	702	San José Chacayá	5	Chacayá	5	Mayo	2023-05-21T00:00:00	2024-11-06T09:00:00	2	Temperatura media	16.2
97026	7	Sololá	702	San José Chacayá	5	Chacayá	5	Mayo	2023-05-21T00:00:00	2024-11-06T09:00:00	4	Temperatura máxima	16.3
97027	7	Sololá	702	San José Chacayá	5	Chacayá	5	Mayo	2023-05-21T00:00:00	2024-11-06T09:00:00	3	Temperatura mínima	14.1
97028	7	Sololá	702	San José Chacayá	5	Chacayá	5	Mayo	2023-05-21T00:00:00	2024-11-06T09:00:00	5	Humedad	77
97029	7	Sololá	702	San José Chacayá	5	Chacayá	5	Mayo	2023-05-21T00:00:00	2024-11-06T09:00:00	6	Velocidad del viento	3.2
97030	7	Sololá	702	San José Chacayá	5	Chacayá	5	Mayo	2023-05-21T00:00:00	2024-11-06T09:00:00	7	Dirección del viento	3.22
97031	7	Sololá	702	San José Chacayá	5	Chacayá	5	Mayo	2023-05-21T00:00:00	2024-11-06T09:00:00	1	Precipitación	0
97032	7	Sololá	702	San José Chacayá	5	Chacayá	5	Mayo	2023-05-21T00:00:00	2024-11-06T09:00:00	8	Radiación solar	111
97033	7	Sololá	702	San José Chacayá	5	Chacayá	5	Mayo	2023-05-21T00:00:00	2024-11-06T10:00:00	2	Temperatura media	17.8
97034	7	Sololá	702	San José Chacayá	5	Chacayá	5	Mayo	2023-05-21T00:00:00	2024-11-06T10:00:00	4	Temperatura máxima	17.8
97035	7	Sololá	702	San José Chacayá	5	Chacayá	5	Mayo	2023-05-21T00:00:00	2024-11-06T10:00:00	3	Temperatura mínima	16.2
97036	7	Sololá	702	San José Chacayá	5	Chacayá	5	Mayo	2023-05-21T00:00:00	2024-11-06T10:00:00	5	Humedad	72
97037	7	Sololá	702	San José Chacayá	5	Chacayá	5	Mayo	2023-05-21T00:00:00	2024-11-06T10:00:00	6	Velocidad del viento	3.2
97038	7	Sololá	702	San José Chacayá	5	Chacayá	5	Mayo	2023-05-21T00:00:00	2024-11-06T10:00:00	7	Dirección del viento	3.22
97039	7	Sololá	702	San José Chacayá	5	Chacayá	5	Mayo	2023-05-21T00:00:00	2024-11-06T10:00:00	1	Precipitación	0
97040	7	Sololá	702	San José Chacayá	5	Chacayá	5	Mayo	2023-05-21T00:00:00	2024-11-06T10:00:00	8	Radiación solar	187
97041	7	Sololá	702	San José Chacayá	5	Chacayá	5	Mayo	2023-05-21T00:00:00	2024-11-06T11:00:00	2	Temperatura media	19.1
97042	7	Sololá	702	San José Chacayá	5	Chacayá	5	Mayo	2023-05-21T00:00:00	2024-11-06T11:00:00	4	Temperatura máxima	19.1
97043	7	Sololá	702	San José Chacayá	5	Chacayá	5	Mayo	2023-05-21T00:00:00	2024-11-06T11:00:00	3	Temperatura mínima	17.8
97044	7	Sololá	702	San José Chacayá	5	Chacayá	5	Mayo	2023-05-21T00:00:00	2024-11-06T11:00:00	5	Humedad	65
97045	7	Sololá	702	San José Chacayá	5	Chacayá	5	Mayo	2023-05-21T00:00:00	2024-11-06T11:00:00	6	Velocidad del viento	1.6
97046	7	Sololá	702	San José Chacayá	5	Chacayá	5	Mayo	2023-05-21T00:00:00	2024-11-06T11:00:00	7	Dirección del viento	1.61
97047	7	Sololá	702	San José Chacayá	5	Chacayá	5	Mayo	2023-05-21T00:00:00	2024-11-06T11:00:00	1	Precipitación	0
97048	7	Sololá	702	San José Chacayá	5	Chacayá	5	Mayo	2023-05-21T00:00:00	2024-11-06T11:00:00	8	Radiación solar	258
97049	7	Sololá	702	San José Chacayá	5	Chacayá	5	Mayo	2023-05-21T00:00:00	2024-11-06T12:00:00	2	Temperatura media	20.3
97050	7	Sololá	702	San José Chacayá	5	Chacayá	5	Mayo	2023-05-21T00:00:00	2024-11-06T12:00:00	4	Temperatura máxima	20.3
97051	7	Sololá	702	San José Chacayá	5	Chacayá	5	Mayo	2023-05-21T00:00:00	2024-11-06T12:00:00	3	Temperatura mínima	19.1
97052	7	Sololá	702	San José Chacayá	5	Chacayá	5	Mayo	2023-05-21T00:00:00	2024-11-06T12:00:00	5	Humedad	64
97053	7	Sololá	702	San José Chacayá	5	Chacayá	5	Mayo	2023-05-21T00:00:00	2024-11-06T12:00:00	6	Velocidad del viento	3.2
97054	7	Sololá	702	San José Chacayá	5	Chacayá	5	Mayo	2023-05-21T00:00:00	2024-11-06T12:00:00	7	Dirección del viento	3.22
97055	7	Sololá	702	San José Chacayá	5	Chacayá	5	Mayo	2023-05-21T00:00:00	2024-11-06T12:00:00	1	Precipitación	0
97056	7	Sololá	702	San José Chacayá	5	Chacayá	5	Mayo	2023-05-21T00:00:00	2024-11-06T12:00:00	8	Radiación solar	363
97057	7	Sololá	702	San José Chacayá	5	Chacayá	5	Mayo	2023-05-21T00:00:00	2024-11-06T13:00:00	2	Temperatura media	20.1
97058	7	Sololá	702	San José Chacayá	5	Chacayá	5	Mayo	2023-05-21T00:00:00	2024-11-06T13:00:00	4	Temperatura máxima	21.3
97059	7	Sololá	702	San José Chacayá	5	Chacayá	5	Mayo	2023-05-21T00:00:00	2024-11-06T13:00:00	3	Temperatura mínima	20
97060	7	Sololá	702	San José Chacayá	5	Chacayá	5	Mayo	2023-05-21T00:00:00	2024-11-06T13:00:00	5	Humedad	68
97061	7	Sololá	702	San José Chacayá	5	Chacayá	5	Mayo	2023-05-21T00:00:00	2024-11-06T13:00:00	6	Velocidad del viento	6.4
97062	7	Sololá	702	San José Chacayá	5	Chacayá	5	Mayo	2023-05-21T00:00:00	2024-11-06T13:00:00	7	Dirección del viento	6.44
97063	7	Sololá	702	San José Chacayá	5	Chacayá	5	Mayo	2023-05-21T00:00:00	2024-11-06T13:00:00	1	Precipitación	0
97064	7	Sololá	702	San José Chacayá	5	Chacayá	5	Mayo	2023-05-21T00:00:00	2024-11-06T13:00:00	8	Radiación solar	503
97065	7	Sololá	702	San José Chacayá	5	Chacayá	5	Mayo	2023-05-21T00:00:00	2024-11-06T14:00:00	2	Temperatura media	19.3
97066	7	Sololá	702	San José Chacayá	5	Chacayá	5	Mayo	2023-05-21T00:00:00	2024-11-06T14:00:00	4	Temperatura máxima	20.1
97067	7	Sololá	702	San José Chacayá	5	Chacayá	5	Mayo	2023-05-21T00:00:00	2024-11-06T14:00:00	3	Temperatura mínima	19.1
97068	7	Sololá	702	San José Chacayá	5	Chacayá	5	Mayo	2023-05-21T00:00:00	2024-11-06T14:00:00	5	Humedad	72
97069	7	Sololá	702	San José Chacayá	5	Chacayá	5	Mayo	2023-05-21T00:00:00	2024-11-06T14:00:00	6	Velocidad del viento	3.2
97070	7	Sololá	702	San José Chacayá	5	Chacayá	5	Mayo	2023-05-21T00:00:00	2024-11-06T14:00:00	7	Dirección del viento	3.22
97071	7	Sololá	702	San José Chacayá	5	Chacayá	5	Mayo	2023-05-21T00:00:00	2024-11-06T14:00:00	1	Precipitación	0
97072	7	Sololá	702	San José Chacayá	5	Chacayá	5	Mayo	2023-05-21T00:00:00	2024-11-06T14:00:00	8	Radiación solar	259
97073	7	Sololá	702	San José Chacayá	5	Chacayá	5	Mayo	2023-05-21T00:00:00	2024-11-06T15:00:00	2	Temperatura media	18.5
97074	7	Sololá	702	San José Chacayá	5	Chacayá	5	Mayo	2023-05-21T00:00:00	2024-11-06T15:00:00	4	Temperatura máxima	19.3
97075	7	Sololá	702	San José Chacayá	5	Chacayá	5	Mayo	2023-05-21T00:00:00	2024-11-06T15:00:00	3	Temperatura mínima	18.4
97076	7	Sololá	702	San José Chacayá	5	Chacayá	5	Mayo	2023-05-21T00:00:00	2024-11-06T15:00:00	5	Humedad	76
97077	7	Sololá	702	San José Chacayá	5	Chacayá	5	Mayo	2023-05-21T00:00:00	2024-11-06T15:00:00	6	Velocidad del viento	1.6
97078	7	Sololá	702	San José Chacayá	5	Chacayá	5	Mayo	2023-05-21T00:00:00	2024-11-06T15:00:00	7	Dirección del viento	1.61
97079	7	Sololá	702	San José Chacayá	5	Chacayá	5	Mayo	2023-05-21T00:00:00	2024-11-06T15:00:00	1	Precipitación	0
97080	7	Sololá	702	San José Chacayá	5	Chacayá	5	Mayo	2023-05-21T00:00:00	2024-11-06T15:00:00	8	Radiación solar	156
97081	7	Sololá	702	San José Chacayá	5	Chacayá	5	Mayo	2023-05-21T00:00:00	2024-11-06T16:00:00	2	Temperatura media	21.1
97082	7	Sololá	702	San José Chacayá	5	Chacayá	5	Mayo	2023-05-21T00:00:00	2024-11-06T16:00:00	4	Temperatura máxima	21.1
97083	7	Sololá	702	San José Chacayá	5	Chacayá	5	Mayo	2023-05-21T00:00:00	2024-11-06T16:00:00	3	Temperatura mínima	18.4
97084	7	Sololá	702	San José Chacayá	5	Chacayá	5	Mayo	2023-05-21T00:00:00	2024-11-06T16:00:00	5	Humedad	69
97085	7	Sololá	702	San José Chacayá	5	Chacayá	5	Mayo	2023-05-21T00:00:00	2024-11-06T16:00:00	6	Velocidad del viento	1.6
97086	7	Sololá	702	San José Chacayá	5	Chacayá	5	Mayo	2023-05-21T00:00:00	2024-11-06T16:00:00	7	Dirección del viento	1.61
97087	7	Sololá	702	San José Chacayá	5	Chacayá	5	Mayo	2023-05-21T00:00:00	2024-11-06T16:00:00	1	Precipitación	0
97088	7	Sololá	702	San José Chacayá	5	Chacayá	5	Mayo	2023-05-21T00:00:00	2024-11-06T16:00:00	8	Radiación solar	403
97089	7	Sololá	702	San José Chacayá	5	Chacayá	5	Mayo	2023-05-21T00:00:00	2024-11-06T17:00:00	2	Temperatura media	19.5
97090	7	Sololá	702	San José Chacayá	5	Chacayá	5	Mayo	2023-05-21T00:00:00	2024-11-06T17:00:00	4	Temperatura máxima	21.2
97091	7	Sololá	702	San José Chacayá	5	Chacayá	5	Mayo	2023-05-21T00:00:00	2024-11-06T17:00:00	3	Temperatura mínima	19.3
97092	7	Sololá	702	San José Chacayá	5	Chacayá	5	Mayo	2023-05-21T00:00:00	2024-11-06T17:00:00	5	Humedad	76
97093	7	Sololá	702	San José Chacayá	5	Chacayá	5	Mayo	2023-05-21T00:00:00	2024-11-06T17:00:00	6	Velocidad del viento	3.2
97094	7	Sololá	702	San José Chacayá	5	Chacayá	5	Mayo	2023-05-21T00:00:00	2024-11-06T17:00:00	7	Dirección del viento	3.22
97095	7	Sololá	702	San José Chacayá	5	Chacayá	5	Mayo	2023-05-21T00:00:00	2024-11-06T17:00:00	1	Precipitación	0
97096	7	Sololá	702	San José Chacayá	5	Chacayá	5	Mayo	2023-05-21T00:00:00	2024-11-06T17:00:00	8	Radiación solar	258
97097	7	Sololá	702	San José Chacayá	5	Chacayá	5	Mayo	2023-05-21T00:00:00	2024-11-06T18:00:00	2	Temperatura media	18.4
97098	7	Sololá	702	San José Chacayá	5	Chacayá	5	Mayo	2023-05-21T00:00:00	2024-11-06T18:00:00	4	Temperatura máxima	19.5
97099	7	Sololá	702	San José Chacayá	5	Chacayá	5	Mayo	2023-05-21T00:00:00	2024-11-06T18:00:00	3	Temperatura mínima	18.4
97100	7	Sololá	702	San José Chacayá	5	Chacayá	5	Mayo	2023-05-21T00:00:00	2024-11-06T18:00:00	5	Humedad	78
97101	7	Sololá	702	San José Chacayá	5	Chacayá	5	Mayo	2023-05-21T00:00:00	2024-11-06T18:00:00	6	Velocidad del viento	1.6
97102	7	Sololá	702	San José Chacayá	5	Chacayá	5	Mayo	2023-05-21T00:00:00	2024-11-06T18:00:00	7	Dirección del viento	1.61
97103	7	Sololá	702	San José Chacayá	5	Chacayá	5	Mayo	2023-05-21T00:00:00	2024-11-06T18:00:00	1	Precipitación	0
97104	7	Sololá	702	San José Chacayá	5	Chacayá	5	Mayo	2023-05-21T00:00:00	2024-11-06T18:00:00	8	Radiación solar	133
97105	7	Sololá	702	San José Chacayá	5	Chacayá	5	Mayo	2023-05-21T00:00:00	2024-11-06T19:00:00	2	Temperatura media	17.1
97106	7	Sololá	702	San José Chacayá	5	Chacayá	5	Mayo	2023-05-21T00:00:00	2024-11-06T19:00:00	4	Temperatura máxima	18.4
97107	7	Sololá	702	San José Chacayá	5	Chacayá	5	Mayo	2023-05-21T00:00:00	2024-11-06T19:00:00	3	Temperatura mínima	17.1
97108	7	Sololá	702	San José Chacayá	5	Chacayá	5	Mayo	2023-05-21T00:00:00	2024-11-06T19:00:00	5	Humedad	82
97109	7	Sololá	702	San José Chacayá	5	Chacayá	5	Mayo	2023-05-21T00:00:00	2024-11-06T19:00:00	6	Velocidad del viento	0
97110	7	Sololá	702	San José Chacayá	5	Chacayá	5	Mayo	2023-05-21T00:00:00	2024-11-06T19:00:00	7	Dirección del viento	0
97111	7	Sololá	702	San José Chacayá	5	Chacayá	5	Mayo	2023-05-21T00:00:00	2024-11-06T19:00:00	1	Precipitación	0
97112	7	Sololá	702	San José Chacayá	5	Chacayá	5	Mayo	2023-05-21T00:00:00	2024-11-06T19:00:00	8	Radiación solar	0
97113	7	Sololá	702	San José Chacayá	5	Chacayá	5	Mayo	2023-05-21T00:00:00	2024-11-06T20:00:00	2	Temperatura media	16.2
97114	7	Sololá	702	San José Chacayá	5	Chacayá	5	Mayo	2023-05-21T00:00:00	2024-11-06T20:00:00	4	Temperatura máxima	17.1
97115	7	Sololá	702	San José Chacayá	5	Chacayá	5	Mayo	2023-05-21T00:00:00	2024-11-06T20:00:00	3	Temperatura mínima	16.2
97116	7	Sololá	702	San José Chacayá	5	Chacayá	5	Mayo	2023-05-21T00:00:00	2024-11-06T20:00:00	5	Humedad	76
97117	7	Sololá	702	San José Chacayá	5	Chacayá	5	Mayo	2023-05-21T00:00:00	2024-11-06T20:00:00	6	Velocidad del viento	0
97118	7	Sololá	702	San José Chacayá	5	Chacayá	5	Mayo	2023-05-21T00:00:00	2024-11-06T20:00:00	7	Dirección del viento	0
97119	7	Sololá	702	San José Chacayá	5	Chacayá	5	Mayo	2023-05-21T00:00:00	2024-11-06T20:00:00	1	Precipitación	0
97120	7	Sololá	702	San José Chacayá	5	Chacayá	5	Mayo	2023-05-21T00:00:00	2024-11-06T20:00:00	8	Radiación solar	0
97121	7	Sololá	702	San José Chacayá	5	Chacayá	5	Mayo	2023-05-21T00:00:00	2024-11-06T21:00:00	2	Temperatura media	15.7
97122	7	Sololá	702	San José Chacayá	5	Chacayá	5	Mayo	2023-05-21T00:00:00	2024-11-06T21:00:00	4	Temperatura máxima	16.2
97123	7	Sololá	702	San José Chacayá	5	Chacayá	5	Mayo	2023-05-21T00:00:00	2024-11-06T21:00:00	3	Temperatura mínima	15.7
97124	7	Sololá	702	San José Chacayá	5	Chacayá	5	Mayo	2023-05-21T00:00:00	2024-11-06T21:00:00	5	Humedad	81
97125	7	Sololá	702	San José Chacayá	5	Chacayá	5	Mayo	2023-05-21T00:00:00	2024-11-06T21:00:00	6	Velocidad del viento	0
97126	7	Sololá	702	San José Chacayá	5	Chacayá	5	Mayo	2023-05-21T00:00:00	2024-11-06T21:00:00	7	Dirección del viento	0
97127	7	Sololá	702	San José Chacayá	5	Chacayá	5	Mayo	2023-05-21T00:00:00	2024-11-06T21:00:00	1	Precipitación	0
97128	7	Sololá	702	San José Chacayá	5	Chacayá	5	Mayo	2023-05-21T00:00:00	2024-11-06T21:00:00	8	Radiación solar	0
97129	7	Sololá	702	San José Chacayá	5	Chacayá	5	Mayo	2023-05-21T00:00:00	2024-11-06T22:00:00	2	Temperatura media	15.9
97130	7	Sololá	702	San José Chacayá	5	Chacayá	5	Mayo	2023-05-21T00:00:00	2024-11-06T22:00:00	4	Temperatura máxima	15.9
97131	7	Sololá	702	San José Chacayá	5	Chacayá	5	Mayo	2023-05-21T00:00:00	2024-11-06T22:00:00	3	Temperatura mínima	15.6
97132	7	Sololá	702	San José Chacayá	5	Chacayá	5	Mayo	2023-05-21T00:00:00	2024-11-06T22:00:00	5	Humedad	82
97133	7	Sololá	702	San José Chacayá	5	Chacayá	5	Mayo	2023-05-21T00:00:00	2024-11-06T22:00:00	6	Velocidad del viento	3.2
97134	7	Sololá	702	San José Chacayá	5	Chacayá	5	Mayo	2023-05-21T00:00:00	2024-11-06T22:00:00	7	Dirección del viento	3.22
97135	7	Sololá	702	San José Chacayá	5	Chacayá	5	Mayo	2023-05-21T00:00:00	2024-11-06T22:00:00	1	Precipitación	0
97136	7	Sololá	702	San José Chacayá	5	Chacayá	5	Mayo	2023-05-21T00:00:00	2024-11-06T22:00:00	8	Radiación solar	0
97137	7	Sololá	702	San José Chacayá	5	Chacayá	5	Mayo	2023-05-21T00:00:00	2024-11-06T23:00:00	2	Temperatura media	15.8
97138	7	Sololá	702	San José Chacayá	5	Chacayá	5	Mayo	2023-05-21T00:00:00	2024-11-06T23:00:00	4	Temperatura máxima	16.1
97139	7	Sololá	702	San José Chacayá	5	Chacayá	5	Mayo	2023-05-21T00:00:00	2024-11-06T23:00:00	3	Temperatura mínima	15.8
97140	7	Sololá	702	San José Chacayá	5	Chacayá	5	Mayo	2023-05-21T00:00:00	2024-11-06T23:00:00	5	Humedad	82
97141	7	Sololá	702	San José Chacayá	5	Chacayá	5	Mayo	2023-05-21T00:00:00	2024-11-06T23:00:00	6	Velocidad del viento	1.6
97142	7	Sololá	702	San José Chacayá	5	Chacayá	5	Mayo	2023-05-21T00:00:00	2024-11-06T23:00:00	7	Dirección del viento	1.61
97143	7	Sololá	702	San José Chacayá	5	Chacayá	5	Mayo	2023-05-21T00:00:00	2024-11-06T23:00:00	1	Precipitación	0
97144	7	Sololá	702	San José Chacayá	5	Chacayá	5	Mayo	2023-05-21T00:00:00	2024-11-06T23:00:00	8	Radiación solar	0
97145	7	Sololá	702	San José Chacayá	5	Chacayá	5	Mayo	2023-05-22T00:00:00	2024-11-06T00:00:00	2	Temperatura media	14.5
97146	7	Sololá	702	San José Chacayá	5	Chacayá	5	Mayo	2023-05-22T00:00:00	2024-11-06T00:00:00	4	Temperatura máxima	15.8
97147	7	Sololá	702	San José Chacayá	5	Chacayá	5	Mayo	2023-05-22T00:00:00	2024-11-06T00:00:00	3	Temperatura mínima	14.5
97148	7	Sololá	702	San José Chacayá	5	Chacayá	5	Mayo	2023-05-22T00:00:00	2024-11-06T00:00:00	5	Humedad	83
97149	7	Sololá	702	San José Chacayá	5	Chacayá	5	Mayo	2023-05-22T00:00:00	2024-11-06T00:00:00	6	Velocidad del viento	0
97150	7	Sololá	702	San José Chacayá	5	Chacayá	5	Mayo	2023-05-22T00:00:00	2024-11-06T00:00:00	7	Dirección del viento	0
97151	7	Sololá	702	San José Chacayá	5	Chacayá	5	Mayo	2023-05-22T00:00:00	2024-11-06T00:00:00	1	Precipitación	0
97152	7	Sololá	702	San José Chacayá	5	Chacayá	5	Mayo	2023-05-22T00:00:00	2024-11-06T00:00:00	8	Radiación solar	0
97153	7	Sololá	702	San José Chacayá	5	Chacayá	5	Mayo	2023-05-22T00:00:00	2024-11-06T01:00:00	2	Temperatura media	13.4
97154	7	Sololá	702	San José Chacayá	5	Chacayá	5	Mayo	2023-05-22T00:00:00	2024-11-06T01:00:00	4	Temperatura máxima	14.5
97155	7	Sololá	702	San José Chacayá	5	Chacayá	5	Mayo	2023-05-22T00:00:00	2024-11-06T01:00:00	3	Temperatura mínima	13.4
97156	7	Sololá	702	San José Chacayá	5	Chacayá	5	Mayo	2023-05-22T00:00:00	2024-11-06T01:00:00	5	Humedad	82
97157	7	Sololá	702	San José Chacayá	5	Chacayá	5	Mayo	2023-05-22T00:00:00	2024-11-06T01:00:00	6	Velocidad del viento	0
97158	7	Sololá	702	San José Chacayá	5	Chacayá	5	Mayo	2023-05-22T00:00:00	2024-11-06T01:00:00	7	Dirección del viento	0
97159	7	Sololá	702	San José Chacayá	5	Chacayá	5	Mayo	2023-05-22T00:00:00	2024-11-06T01:00:00	1	Precipitación	0
97160	7	Sololá	702	San José Chacayá	5	Chacayá	5	Mayo	2023-05-22T00:00:00	2024-11-06T01:00:00	8	Radiación solar	0
97161	7	Sololá	702	San José Chacayá	5	Chacayá	5	Mayo	2023-05-22T00:00:00	2024-11-06T02:00:00	2	Temperatura media	12.6
97162	7	Sololá	702	San José Chacayá	5	Chacayá	5	Mayo	2023-05-22T00:00:00	2024-11-06T02:00:00	4	Temperatura máxima	13.4
97163	7	Sololá	702	San José Chacayá	5	Chacayá	5	Mayo	2023-05-22T00:00:00	2024-11-06T02:00:00	3	Temperatura mínima	12.6
97164	7	Sololá	702	San José Chacayá	5	Chacayá	5	Mayo	2023-05-22T00:00:00	2024-11-06T02:00:00	5	Humedad	81
97165	7	Sololá	702	San José Chacayá	5	Chacayá	5	Mayo	2023-05-22T00:00:00	2024-11-06T02:00:00	6	Velocidad del viento	1.6
97166	7	Sololá	702	San José Chacayá	5	Chacayá	5	Mayo	2023-05-22T00:00:00	2024-11-06T02:00:00	7	Dirección del viento	1.61
97167	7	Sololá	702	San José Chacayá	5	Chacayá	5	Mayo	2023-05-22T00:00:00	2024-11-06T02:00:00	1	Precipitación	0
97168	7	Sololá	702	San José Chacayá	5	Chacayá	5	Mayo	2023-05-22T00:00:00	2024-11-06T02:00:00	8	Radiación solar	0
97169	7	Sololá	702	San José Chacayá	5	Chacayá	5	Mayo	2023-05-22T00:00:00	2024-11-06T03:00:00	2	Temperatura media	12.9
97170	7	Sololá	702	San José Chacayá	5	Chacayá	5	Mayo	2023-05-22T00:00:00	2024-11-06T03:00:00	4	Temperatura máxima	12.9
97171	7	Sololá	702	San José Chacayá	5	Chacayá	5	Mayo	2023-05-22T00:00:00	2024-11-06T03:00:00	3	Temperatura mínima	12.5
97172	7	Sololá	702	San José Chacayá	5	Chacayá	5	Mayo	2023-05-22T00:00:00	2024-11-06T03:00:00	5	Humedad	82
97173	7	Sololá	702	San José Chacayá	5	Chacayá	5	Mayo	2023-05-22T00:00:00	2024-11-06T03:00:00	6	Velocidad del viento	1.6
97174	7	Sololá	702	San José Chacayá	5	Chacayá	5	Mayo	2023-05-22T00:00:00	2024-11-06T03:00:00	7	Dirección del viento	1.61
97175	7	Sololá	702	San José Chacayá	5	Chacayá	5	Mayo	2023-05-22T00:00:00	2024-11-06T03:00:00	1	Precipitación	0
97176	7	Sololá	702	San José Chacayá	5	Chacayá	5	Mayo	2023-05-22T00:00:00	2024-11-06T03:00:00	8	Radiación solar	0
97177	7	Sololá	702	San José Chacayá	5	Chacayá	5	Mayo	2023-05-22T00:00:00	2024-11-06T04:00:00	2	Temperatura media	12.8
97178	7	Sololá	702	San José Chacayá	5	Chacayá	5	Mayo	2023-05-22T00:00:00	2024-11-06T04:00:00	4	Temperatura máxima	12.9
97179	7	Sololá	702	San José Chacayá	5	Chacayá	5	Mayo	2023-05-22T00:00:00	2024-11-06T04:00:00	3	Temperatura mínima	12.7
97180	7	Sololá	702	San José Chacayá	5	Chacayá	5	Mayo	2023-05-22T00:00:00	2024-11-06T04:00:00	5	Humedad	82
97181	7	Sololá	702	San José Chacayá	5	Chacayá	5	Mayo	2023-05-22T00:00:00	2024-11-06T04:00:00	6	Velocidad del viento	1.6
97182	7	Sololá	702	San José Chacayá	5	Chacayá	5	Mayo	2023-05-22T00:00:00	2024-11-06T04:00:00	7	Dirección del viento	1.61
97183	7	Sololá	702	San José Chacayá	5	Chacayá	5	Mayo	2023-05-22T00:00:00	2024-11-06T04:00:00	1	Precipitación	0
97184	7	Sololá	702	San José Chacayá	5	Chacayá	5	Mayo	2023-05-22T00:00:00	2024-11-06T04:00:00	8	Radiación solar	0
97185	7	Sololá	702	San José Chacayá	5	Chacayá	5	Mayo	2023-05-22T00:00:00	2024-11-06T05:00:00	2	Temperatura media	13.2
97186	7	Sololá	702	San José Chacayá	5	Chacayá	5	Mayo	2023-05-22T00:00:00	2024-11-06T05:00:00	4	Temperatura máxima	13.2
97187	7	Sololá	702	San José Chacayá	5	Chacayá	5	Mayo	2023-05-22T00:00:00	2024-11-06T05:00:00	3	Temperatura mínima	12.8
97188	7	Sololá	702	San José Chacayá	5	Chacayá	5	Mayo	2023-05-22T00:00:00	2024-11-06T05:00:00	5	Humedad	83
97189	7	Sololá	702	San José Chacayá	5	Chacayá	5	Mayo	2023-05-22T00:00:00	2024-11-06T05:00:00	6	Velocidad del viento	1.6
97190	7	Sololá	702	San José Chacayá	5	Chacayá	5	Mayo	2023-05-22T00:00:00	2024-11-06T05:00:00	7	Dirección del viento	1.61
97191	7	Sololá	702	San José Chacayá	5	Chacayá	5	Mayo	2023-05-22T00:00:00	2024-11-06T05:00:00	1	Precipitación	0
97192	7	Sololá	702	San José Chacayá	5	Chacayá	5	Mayo	2023-05-22T00:00:00	2024-11-06T05:00:00	8	Radiación solar	0
97193	7	Sololá	702	San José Chacayá	5	Chacayá	5	Mayo	2023-05-22T00:00:00	2024-11-06T06:00:00	2	Temperatura media	13.3
97194	7	Sololá	702	San José Chacayá	5	Chacayá	5	Mayo	2023-05-22T00:00:00	2024-11-06T06:00:00	4	Temperatura máxima	13.3
97195	7	Sololá	702	San José Chacayá	5	Chacayá	5	Mayo	2023-05-22T00:00:00	2024-11-06T06:00:00	3	Temperatura mínima	13.2
97196	7	Sololá	702	San José Chacayá	5	Chacayá	5	Mayo	2023-05-22T00:00:00	2024-11-06T06:00:00	5	Humedad	81
97197	7	Sololá	702	San José Chacayá	5	Chacayá	5	Mayo	2023-05-22T00:00:00	2024-11-06T06:00:00	6	Velocidad del viento	0
97198	7	Sololá	702	San José Chacayá	5	Chacayá	5	Mayo	2023-05-22T00:00:00	2024-11-06T06:00:00	7	Dirección del viento	0
97199	7	Sololá	702	San José Chacayá	5	Chacayá	5	Mayo	2023-05-22T00:00:00	2024-11-06T06:00:00	1	Precipitación	0
97200	7	Sololá	702	San José Chacayá	5	Chacayá	5	Mayo	2023-05-22T00:00:00	2024-11-06T06:00:00	8	Radiación solar	0
97201	7	Sololá	702	San José Chacayá	5	Chacayá	5	Mayo	2023-05-22T00:00:00	2024-11-06T07:00:00	2	Temperatura media	13.4
97202	7	Sololá	702	San José Chacayá	5	Chacayá	5	Mayo	2023-05-22T00:00:00	2024-11-06T07:00:00	4	Temperatura máxima	13.4
97203	7	Sololá	702	San José Chacayá	5	Chacayá	5	Mayo	2023-05-22T00:00:00	2024-11-06T07:00:00	3	Temperatura mínima	13.2
97204	7	Sololá	702	San José Chacayá	5	Chacayá	5	Mayo	2023-05-22T00:00:00	2024-11-06T07:00:00	5	Humedad	75
97205	7	Sololá	702	San José Chacayá	5	Chacayá	5	Mayo	2023-05-22T00:00:00	2024-11-06T07:00:00	6	Velocidad del viento	0
97206	7	Sololá	702	San José Chacayá	5	Chacayá	5	Mayo	2023-05-22T00:00:00	2024-11-06T07:00:00	7	Dirección del viento	0
97207	7	Sololá	702	San José Chacayá	5	Chacayá	5	Mayo	2023-05-22T00:00:00	2024-11-06T07:00:00	1	Precipitación	0
97208	7	Sololá	702	San José Chacayá	5	Chacayá	5	Mayo	2023-05-22T00:00:00	2024-11-06T07:00:00	8	Radiación solar	4
97209	7	Sololá	702	San José Chacayá	5	Chacayá	5	Mayo	2023-05-22T00:00:00	2024-11-06T08:00:00	2	Temperatura media	14.6
97210	7	Sololá	702	San José Chacayá	5	Chacayá	5	Mayo	2023-05-22T00:00:00	2024-11-06T08:00:00	4	Temperatura máxima	14.6
97211	7	Sololá	702	San José Chacayá	5	Chacayá	5	Mayo	2023-05-22T00:00:00	2024-11-06T08:00:00	3	Temperatura mínima	13.4
97212	7	Sololá	702	San José Chacayá	5	Chacayá	5	Mayo	2023-05-22T00:00:00	2024-11-06T08:00:00	5	Humedad	77
97213	7	Sololá	702	San José Chacayá	5	Chacayá	5	Mayo	2023-05-22T00:00:00	2024-11-06T08:00:00	6	Velocidad del viento	0
97214	7	Sololá	702	San José Chacayá	5	Chacayá	5	Mayo	2023-05-22T00:00:00	2024-11-06T08:00:00	7	Dirección del viento	0
97215	7	Sololá	702	San José Chacayá	5	Chacayá	5	Mayo	2023-05-22T00:00:00	2024-11-06T08:00:00	1	Precipitación	0
97216	7	Sololá	702	San José Chacayá	5	Chacayá	5	Mayo	2023-05-22T00:00:00	2024-11-06T08:00:00	8	Radiación solar	61
97217	7	Sololá	702	San José Chacayá	5	Chacayá	5	Mayo	2023-05-22T00:00:00	2024-11-06T09:00:00	2	Temperatura media	16.8
97218	7	Sololá	702	San José Chacayá	5	Chacayá	5	Mayo	2023-05-22T00:00:00	2024-11-06T09:00:00	4	Temperatura máxima	16.8
97219	7	Sololá	702	San José Chacayá	5	Chacayá	5	Mayo	2023-05-22T00:00:00	2024-11-06T09:00:00	3	Temperatura mínima	14.6
97220	7	Sololá	702	San José Chacayá	5	Chacayá	5	Mayo	2023-05-22T00:00:00	2024-11-06T09:00:00	5	Humedad	80
97221	7	Sololá	702	San José Chacayá	5	Chacayá	5	Mayo	2023-05-22T00:00:00	2024-11-06T09:00:00	6	Velocidad del viento	0
97222	7	Sololá	702	San José Chacayá	5	Chacayá	5	Mayo	2023-05-22T00:00:00	2024-11-06T09:00:00	7	Dirección del viento	0
97223	7	Sololá	702	San José Chacayá	5	Chacayá	5	Mayo	2023-05-22T00:00:00	2024-11-06T09:00:00	1	Precipitación	0
97224	7	Sololá	702	San José Chacayá	5	Chacayá	5	Mayo	2023-05-22T00:00:00	2024-11-06T09:00:00	8	Radiación solar	154
97225	7	Sololá	702	San José Chacayá	5	Chacayá	5	Mayo	2023-05-22T00:00:00	2024-11-06T10:00:00	2	Temperatura media	19.2
97226	7	Sololá	702	San José Chacayá	5	Chacayá	5	Mayo	2023-05-22T00:00:00	2024-11-06T10:00:00	4	Temperatura máxima	19.2
97227	7	Sololá	702	San José Chacayá	5	Chacayá	5	Mayo	2023-05-22T00:00:00	2024-11-06T10:00:00	3	Temperatura mínima	16.8
97228	7	Sololá	702	San José Chacayá	5	Chacayá	5	Mayo	2023-05-22T00:00:00	2024-11-06T10:00:00	5	Humedad	73
97229	7	Sololá	702	San José Chacayá	5	Chacayá	5	Mayo	2023-05-22T00:00:00	2024-11-06T10:00:00	6	Velocidad del viento	1.6
97230	7	Sololá	702	San José Chacayá	5	Chacayá	5	Mayo	2023-05-22T00:00:00	2024-11-06T10:00:00	7	Dirección del viento	1.61
97231	7	Sololá	702	San José Chacayá	5	Chacayá	5	Mayo	2023-05-22T00:00:00	2024-11-06T10:00:00	1	Precipitación	0
97232	7	Sololá	702	San José Chacayá	5	Chacayá	5	Mayo	2023-05-22T00:00:00	2024-11-06T10:00:00	8	Radiación solar	327
97233	7	Sololá	702	San José Chacayá	5	Chacayá	5	Mayo	2023-05-22T00:00:00	2024-11-06T11:00:00	2	Temperatura media	21.1
97234	7	Sololá	702	San José Chacayá	5	Chacayá	5	Mayo	2023-05-22T00:00:00	2024-11-06T11:00:00	4	Temperatura máxima	21.1
97235	7	Sololá	702	San José Chacayá	5	Chacayá	5	Mayo	2023-05-22T00:00:00	2024-11-06T11:00:00	3	Temperatura mínima	19.2
97236	7	Sololá	702	San José Chacayá	5	Chacayá	5	Mayo	2023-05-22T00:00:00	2024-11-06T11:00:00	5	Humedad	69
97237	7	Sololá	702	San José Chacayá	5	Chacayá	5	Mayo	2023-05-22T00:00:00	2024-11-06T11:00:00	6	Velocidad del viento	4.8
97238	7	Sololá	702	San José Chacayá	5	Chacayá	5	Mayo	2023-05-22T00:00:00	2024-11-06T11:00:00	7	Dirección del viento	4.83
97239	7	Sololá	702	San José Chacayá	5	Chacayá	5	Mayo	2023-05-22T00:00:00	2024-11-06T11:00:00	1	Precipitación	0
97240	7	Sololá	702	San José Chacayá	5	Chacayá	5	Mayo	2023-05-22T00:00:00	2024-11-06T11:00:00	8	Radiación solar	659
97241	7	Sololá	702	San José Chacayá	5	Chacayá	5	Mayo	2023-05-22T00:00:00	2024-11-06T12:00:00	2	Temperatura media	21.1
97242	7	Sololá	702	San José Chacayá	5	Chacayá	5	Mayo	2023-05-22T00:00:00	2024-11-06T12:00:00	4	Temperatura máxima	22
97243	7	Sololá	702	San José Chacayá	5	Chacayá	5	Mayo	2023-05-22T00:00:00	2024-11-06T12:00:00	3	Temperatura mínima	21
97244	7	Sololá	702	San José Chacayá	5	Chacayá	5	Mayo	2023-05-22T00:00:00	2024-11-06T12:00:00	5	Humedad	70
97245	7	Sololá	702	San José Chacayá	5	Chacayá	5	Mayo	2023-05-22T00:00:00	2024-11-06T12:00:00	6	Velocidad del viento	6.4
97246	7	Sololá	702	San José Chacayá	5	Chacayá	5	Mayo	2023-05-22T00:00:00	2024-11-06T12:00:00	7	Dirección del viento	6.44
97247	7	Sololá	702	San José Chacayá	5	Chacayá	5	Mayo	2023-05-22T00:00:00	2024-11-06T12:00:00	1	Precipitación	0
97248	7	Sololá	702	San José Chacayá	5	Chacayá	5	Mayo	2023-05-22T00:00:00	2024-11-06T12:00:00	8	Radiación solar	735
97249	7	Sololá	702	San José Chacayá	5	Chacayá	5	Mayo	2023-05-22T00:00:00	2024-11-06T13:00:00	2	Temperatura media	20.5
97250	7	Sololá	702	San José Chacayá	5	Chacayá	5	Mayo	2023-05-22T00:00:00	2024-11-06T13:00:00	4	Temperatura máxima	21.1
97251	7	Sololá	702	San José Chacayá	5	Chacayá	5	Mayo	2023-05-22T00:00:00	2024-11-06T13:00:00	3	Temperatura mínima	20.1
97252	7	Sololá	702	San José Chacayá	5	Chacayá	5	Mayo	2023-05-22T00:00:00	2024-11-06T13:00:00	5	Humedad	75
97253	7	Sololá	702	San José Chacayá	5	Chacayá	5	Mayo	2023-05-22T00:00:00	2024-11-06T13:00:00	6	Velocidad del viento	8
97254	7	Sololá	702	San José Chacayá	5	Chacayá	5	Mayo	2023-05-22T00:00:00	2024-11-06T13:00:00	7	Dirección del viento	8.05
97255	7	Sololá	702	San José Chacayá	5	Chacayá	5	Mayo	2023-05-22T00:00:00	2024-11-06T13:00:00	1	Precipitación	0
97256	7	Sololá	702	San José Chacayá	5	Chacayá	5	Mayo	2023-05-22T00:00:00	2024-11-06T13:00:00	8	Radiación solar	440
97257	7	Sololá	702	San José Chacayá	5	Chacayá	5	Mayo	2023-05-22T00:00:00	2024-11-06T14:00:00	2	Temperatura media	20.1
97258	7	Sololá	702	San José Chacayá	5	Chacayá	5	Mayo	2023-05-22T00:00:00	2024-11-06T14:00:00	4	Temperatura máxima	20.5
97259	7	Sololá	702	San José Chacayá	5	Chacayá	5	Mayo	2023-05-22T00:00:00	2024-11-06T14:00:00	3	Temperatura mínima	19.4
97260	7	Sololá	702	San José Chacayá	5	Chacayá	5	Mayo	2023-05-22T00:00:00	2024-11-06T14:00:00	5	Humedad	76
97261	7	Sololá	702	San José Chacayá	5	Chacayá	5	Mayo	2023-05-22T00:00:00	2024-11-06T14:00:00	6	Velocidad del viento	6.4
97262	7	Sololá	702	San José Chacayá	5	Chacayá	5	Mayo	2023-05-22T00:00:00	2024-11-06T14:00:00	7	Dirección del viento	6.44
97263	7	Sololá	702	San José Chacayá	5	Chacayá	5	Mayo	2023-05-22T00:00:00	2024-11-06T14:00:00	1	Precipitación	0
97264	7	Sololá	702	San José Chacayá	5	Chacayá	5	Mayo	2023-05-22T00:00:00	2024-11-06T14:00:00	8	Radiación solar	604
97265	7	Sololá	702	San José Chacayá	5	Chacayá	5	Mayo	2023-05-22T00:00:00	2024-11-06T15:00:00	2	Temperatura media	20.6
97266	7	Sololá	702	San José Chacayá	5	Chacayá	5	Mayo	2023-05-22T00:00:00	2024-11-06T15:00:00	4	Temperatura máxima	21.1
97267	7	Sololá	702	San José Chacayá	5	Chacayá	5	Mayo	2023-05-22T00:00:00	2024-11-06T15:00:00	3	Temperatura mínima	20.1
97268	7	Sololá	702	San José Chacayá	5	Chacayá	5	Mayo	2023-05-22T00:00:00	2024-11-06T15:00:00	5	Humedad	77
97269	7	Sololá	702	San José Chacayá	5	Chacayá	5	Mayo	2023-05-22T00:00:00	2024-11-06T15:00:00	6	Velocidad del viento	6.4
97270	7	Sololá	702	San José Chacayá	5	Chacayá	5	Mayo	2023-05-22T00:00:00	2024-11-06T15:00:00	7	Dirección del viento	6.44
97271	7	Sololá	702	San José Chacayá	5	Chacayá	5	Mayo	2023-05-22T00:00:00	2024-11-06T15:00:00	1	Precipitación	0
97272	7	Sololá	702	San José Chacayá	5	Chacayá	5	Mayo	2023-05-22T00:00:00	2024-11-06T15:00:00	8	Radiación solar	582
97273	7	Sololá	702	San José Chacayá	5	Chacayá	5	Mayo	2023-05-22T00:00:00	2024-11-06T16:00:00	2	Temperatura media	19.2
97274	7	Sololá	702	San José Chacayá	5	Chacayá	5	Mayo	2023-05-22T00:00:00	2024-11-06T16:00:00	4	Temperatura máxima	20.6
97275	7	Sololá	702	San José Chacayá	5	Chacayá	5	Mayo	2023-05-22T00:00:00	2024-11-06T16:00:00	3	Temperatura mínima	19.1
97276	7	Sololá	702	San José Chacayá	5	Chacayá	5	Mayo	2023-05-22T00:00:00	2024-11-06T16:00:00	5	Humedad	80
97277	7	Sololá	702	San José Chacayá	5	Chacayá	5	Mayo	2023-05-22T00:00:00	2024-11-06T16:00:00	6	Velocidad del viento	6.4
97278	7	Sololá	702	San José Chacayá	5	Chacayá	5	Mayo	2023-05-22T00:00:00	2024-11-06T16:00:00	7	Dirección del viento	6.44
97279	7	Sololá	702	San José Chacayá	5	Chacayá	5	Mayo	2023-05-22T00:00:00	2024-11-06T16:00:00	1	Precipitación	0
97280	7	Sololá	702	San José Chacayá	5	Chacayá	5	Mayo	2023-05-22T00:00:00	2024-11-06T16:00:00	8	Radiación solar	302
97281	7	Sololá	702	San José Chacayá	5	Chacayá	5	Mayo	2023-05-22T00:00:00	2024-11-06T17:00:00	2	Temperatura media	19.2
97282	7	Sololá	702	San José Chacayá	5	Chacayá	5	Mayo	2023-05-22T00:00:00	2024-11-06T17:00:00	4	Temperatura máxima	19.5
97283	7	Sololá	702	San José Chacayá	5	Chacayá	5	Mayo	2023-05-22T00:00:00	2024-11-06T17:00:00	3	Temperatura mínima	18.9
97284	7	Sololá	702	San José Chacayá	5	Chacayá	5	Mayo	2023-05-22T00:00:00	2024-11-06T17:00:00	5	Humedad	78
97285	7	Sololá	702	San José Chacayá	5	Chacayá	5	Mayo	2023-05-22T00:00:00	2024-11-06T17:00:00	6	Velocidad del viento	3.2
97286	7	Sololá	702	San José Chacayá	5	Chacayá	5	Mayo	2023-05-22T00:00:00	2024-11-06T17:00:00	7	Dirección del viento	3.22
97287	7	Sololá	702	San José Chacayá	5	Chacayá	5	Mayo	2023-05-22T00:00:00	2024-11-06T17:00:00	1	Precipitación	0
97288	7	Sololá	702	San José Chacayá	5	Chacayá	5	Mayo	2023-05-22T00:00:00	2024-11-06T17:00:00	8	Radiación solar	241
97289	7	Sololá	702	San José Chacayá	5	Chacayá	5	Mayo	2023-05-22T00:00:00	2024-11-06T18:00:00	2	Temperatura media	18.1
97290	7	Sololá	702	San José Chacayá	5	Chacayá	5	Mayo	2023-05-22T00:00:00	2024-11-06T18:00:00	4	Temperatura máxima	19.6
97291	7	Sololá	702	San José Chacayá	5	Chacayá	5	Mayo	2023-05-22T00:00:00	2024-11-06T18:00:00	3	Temperatura mínima	18.1
97292	7	Sololá	702	San José Chacayá	5	Chacayá	5	Mayo	2023-05-22T00:00:00	2024-11-06T18:00:00	5	Humedad	82
97293	7	Sololá	702	San José Chacayá	5	Chacayá	5	Mayo	2023-05-22T00:00:00	2024-11-06T18:00:00	6	Velocidad del viento	1.6
97294	7	Sololá	702	San José Chacayá	5	Chacayá	5	Mayo	2023-05-22T00:00:00	2024-11-06T18:00:00	7	Dirección del viento	1.61
97295	7	Sololá	702	San José Chacayá	5	Chacayá	5	Mayo	2023-05-22T00:00:00	2024-11-06T18:00:00	1	Precipitación	0
97296	7	Sololá	702	San José Chacayá	5	Chacayá	5	Mayo	2023-05-22T00:00:00	2024-11-06T18:00:00	8	Radiación solar	97
97297	7	Sololá	702	San José Chacayá	5	Chacayá	5	Mayo	2023-05-22T00:00:00	2024-11-06T19:00:00	2	Temperatura media	17.6
97298	7	Sololá	702	San José Chacayá	5	Chacayá	5	Mayo	2023-05-22T00:00:00	2024-11-06T19:00:00	4	Temperatura máxima	18.2
97299	7	Sololá	702	San José Chacayá	5	Chacayá	5	Mayo	2023-05-22T00:00:00	2024-11-06T19:00:00	3	Temperatura mínima	17.6
97300	7	Sololá	702	San José Chacayá	5	Chacayá	5	Mayo	2023-05-22T00:00:00	2024-11-06T19:00:00	5	Humedad	80
97301	7	Sololá	702	San José Chacayá	5	Chacayá	5	Mayo	2023-05-22T00:00:00	2024-11-06T19:00:00	6	Velocidad del viento	0
97302	7	Sololá	702	San José Chacayá	5	Chacayá	5	Mayo	2023-05-22T00:00:00	2024-11-06T19:00:00	7	Dirección del viento	0
97303	7	Sololá	702	San José Chacayá	5	Chacayá	5	Mayo	2023-05-22T00:00:00	2024-11-06T19:00:00	1	Precipitación	0
97304	7	Sololá	702	San José Chacayá	5	Chacayá	5	Mayo	2023-05-22T00:00:00	2024-11-06T19:00:00	8	Radiación solar	0
97305	7	Sololá	702	San José Chacayá	5	Chacayá	5	Mayo	2023-05-22T00:00:00	2024-11-06T20:00:00	2	Temperatura media	16.8
97306	7	Sololá	702	San José Chacayá	5	Chacayá	5	Mayo	2023-05-22T00:00:00	2024-11-06T20:00:00	4	Temperatura máxima	17.6
97307	7	Sololá	702	San José Chacayá	5	Chacayá	5	Mayo	2023-05-22T00:00:00	2024-11-06T20:00:00	3	Temperatura mínima	16.8
97308	7	Sololá	702	San José Chacayá	5	Chacayá	5	Mayo	2023-05-22T00:00:00	2024-11-06T20:00:00	5	Humedad	81
97309	7	Sololá	702	San José Chacayá	5	Chacayá	5	Mayo	2023-05-22T00:00:00	2024-11-06T20:00:00	6	Velocidad del viento	0
97310	7	Sololá	702	San José Chacayá	5	Chacayá	5	Mayo	2023-05-22T00:00:00	2024-11-06T20:00:00	7	Dirección del viento	0
97311	7	Sololá	702	San José Chacayá	5	Chacayá	5	Mayo	2023-05-22T00:00:00	2024-11-06T20:00:00	1	Precipitación	0
97312	7	Sololá	702	San José Chacayá	5	Chacayá	5	Mayo	2023-05-22T00:00:00	2024-11-06T20:00:00	8	Radiación solar	0
97313	7	Sololá	702	San José Chacayá	5	Chacayá	5	Mayo	2023-05-22T00:00:00	2024-11-06T21:00:00	2	Temperatura media	16.7
97314	7	Sololá	702	San José Chacayá	5	Chacayá	5	Mayo	2023-05-22T00:00:00	2024-11-06T21:00:00	4	Temperatura máxima	17
97315	7	Sololá	702	San José Chacayá	5	Chacayá	5	Mayo	2023-05-22T00:00:00	2024-11-06T21:00:00	3	Temperatura mínima	16.7
97316	7	Sololá	702	San José Chacayá	5	Chacayá	5	Mayo	2023-05-22T00:00:00	2024-11-06T21:00:00	5	Humedad	82
97317	7	Sololá	702	San José Chacayá	5	Chacayá	5	Mayo	2023-05-22T00:00:00	2024-11-06T21:00:00	6	Velocidad del viento	0
97318	7	Sololá	702	San José Chacayá	5	Chacayá	5	Mayo	2023-05-22T00:00:00	2024-11-06T21:00:00	7	Dirección del viento	0
97319	7	Sololá	702	San José Chacayá	5	Chacayá	5	Mayo	2023-05-22T00:00:00	2024-11-06T21:00:00	1	Precipitación	0
97320	7	Sololá	702	San José Chacayá	5	Chacayá	5	Mayo	2023-05-22T00:00:00	2024-11-06T21:00:00	8	Radiación solar	0
97321	7	Sololá	702	San José Chacayá	5	Chacayá	5	Mayo	2023-05-22T00:00:00	2024-11-06T22:00:00	2	Temperatura media	16.1
97322	7	Sololá	702	San José Chacayá	5	Chacayá	5	Mayo	2023-05-22T00:00:00	2024-11-06T22:00:00	4	Temperatura máxima	16.7
97323	7	Sololá	702	San José Chacayá	5	Chacayá	5	Mayo	2023-05-22T00:00:00	2024-11-06T22:00:00	3	Temperatura mínima	16.1
97324	7	Sololá	702	San José Chacayá	5	Chacayá	5	Mayo	2023-05-22T00:00:00	2024-11-06T22:00:00	5	Humedad	82
97325	7	Sololá	702	San José Chacayá	5	Chacayá	5	Mayo	2023-05-22T00:00:00	2024-11-06T22:00:00	6	Velocidad del viento	1.6
97326	7	Sololá	702	San José Chacayá	5	Chacayá	5	Mayo	2023-05-22T00:00:00	2024-11-06T22:00:00	7	Dirección del viento	1.61
97327	7	Sololá	702	San José Chacayá	5	Chacayá	5	Mayo	2023-05-22T00:00:00	2024-11-06T22:00:00	1	Precipitación	0
97328	7	Sololá	702	San José Chacayá	5	Chacayá	5	Mayo	2023-05-22T00:00:00	2024-11-06T22:00:00	8	Radiación solar	0
97329	7	Sololá	702	San José Chacayá	5	Chacayá	5	Mayo	2023-05-22T00:00:00	2024-11-06T23:00:00	2	Temperatura media	16.2
97330	7	Sololá	702	San José Chacayá	5	Chacayá	5	Mayo	2023-05-22T00:00:00	2024-11-06T23:00:00	4	Temperatura máxima	16.2
97331	7	Sololá	702	San José Chacayá	5	Chacayá	5	Mayo	2023-05-22T00:00:00	2024-11-06T23:00:00	3	Temperatura mínima	15.9
97332	7	Sololá	702	San José Chacayá	5	Chacayá	5	Mayo	2023-05-22T00:00:00	2024-11-06T23:00:00	5	Humedad	81
97333	7	Sololá	702	San José Chacayá	5	Chacayá	5	Mayo	2023-05-22T00:00:00	2024-11-06T23:00:00	6	Velocidad del viento	1.6
97334	7	Sololá	702	San José Chacayá	5	Chacayá	5	Mayo	2023-05-22T00:00:00	2024-11-06T23:00:00	7	Dirección del viento	1.61
97335	7	Sololá	702	San José Chacayá	5	Chacayá	5	Mayo	2023-05-22T00:00:00	2024-11-06T23:00:00	1	Precipitación	0
97336	7	Sololá	702	San José Chacayá	5	Chacayá	5	Mayo	2023-05-22T00:00:00	2024-11-06T23:00:00	8	Radiación solar	0
97337	7	Sololá	702	San José Chacayá	5	Chacayá	5	Mayo	2023-05-23T00:00:00	2024-11-06T00:00:00	2	Temperatura media	15.1
97338	7	Sololá	702	San José Chacayá	5	Chacayá	5	Mayo	2023-05-23T00:00:00	2024-11-06T00:00:00	4	Temperatura máxima	16.2
97339	7	Sololá	702	San José Chacayá	5	Chacayá	5	Mayo	2023-05-23T00:00:00	2024-11-06T00:00:00	3	Temperatura mínima	15.1
97340	7	Sololá	702	San José Chacayá	5	Chacayá	5	Mayo	2023-05-23T00:00:00	2024-11-06T00:00:00	5	Humedad	82
97341	7	Sololá	702	San José Chacayá	5	Chacayá	5	Mayo	2023-05-23T00:00:00	2024-11-06T00:00:00	6	Velocidad del viento	1.6
97342	7	Sololá	702	San José Chacayá	5	Chacayá	5	Mayo	2023-05-23T00:00:00	2024-11-06T00:00:00	7	Dirección del viento	1.61
97343	7	Sololá	702	San José Chacayá	5	Chacayá	5	Mayo	2023-05-23T00:00:00	2024-11-06T00:00:00	1	Precipitación	0
97344	7	Sololá	702	San José Chacayá	5	Chacayá	5	Mayo	2023-05-23T00:00:00	2024-11-06T00:00:00	8	Radiación solar	0
97345	7	Sololá	702	San José Chacayá	5	Chacayá	5	Mayo	2023-05-23T00:00:00	2024-11-06T01:00:00	2	Temperatura media	15.4
97346	7	Sololá	702	San José Chacayá	5	Chacayá	5	Mayo	2023-05-23T00:00:00	2024-11-06T01:00:00	4	Temperatura máxima	15.4
97347	7	Sololá	702	San José Chacayá	5	Chacayá	5	Mayo	2023-05-23T00:00:00	2024-11-06T01:00:00	3	Temperatura mínima	14.3
97348	7	Sololá	702	San José Chacayá	5	Chacayá	5	Mayo	2023-05-23T00:00:00	2024-11-06T01:00:00	5	Humedad	82
97349	7	Sololá	702	San José Chacayá	5	Chacayá	5	Mayo	2023-05-23T00:00:00	2024-11-06T01:00:00	6	Velocidad del viento	1.6
97350	7	Sololá	702	San José Chacayá	5	Chacayá	5	Mayo	2023-05-23T00:00:00	2024-11-06T01:00:00	7	Dirección del viento	1.61
97351	7	Sololá	702	San José Chacayá	5	Chacayá	5	Mayo	2023-05-23T00:00:00	2024-11-06T01:00:00	1	Precipitación	0
97352	7	Sololá	702	San José Chacayá	5	Chacayá	5	Mayo	2023-05-23T00:00:00	2024-11-06T01:00:00	8	Radiación solar	0
97353	7	Sololá	702	San José Chacayá	5	Chacayá	5	Mayo	2023-05-23T00:00:00	2024-11-06T02:00:00	2	Temperatura media	14.8
97354	7	Sololá	702	San José Chacayá	5	Chacayá	5	Mayo	2023-05-23T00:00:00	2024-11-06T02:00:00	4	Temperatura máxima	15.4
97355	7	Sololá	702	San José Chacayá	5	Chacayá	5	Mayo	2023-05-23T00:00:00	2024-11-06T02:00:00	3	Temperatura mínima	14.8
97356	7	Sololá	702	San José Chacayá	5	Chacayá	5	Mayo	2023-05-23T00:00:00	2024-11-06T02:00:00	5	Humedad	83
97357	7	Sololá	702	San José Chacayá	5	Chacayá	5	Mayo	2023-05-23T00:00:00	2024-11-06T02:00:00	6	Velocidad del viento	1.6
97358	7	Sololá	702	San José Chacayá	5	Chacayá	5	Mayo	2023-05-23T00:00:00	2024-11-06T02:00:00	7	Dirección del viento	1.61
97359	7	Sololá	702	San José Chacayá	5	Chacayá	5	Mayo	2023-05-23T00:00:00	2024-11-06T02:00:00	1	Precipitación	0
97360	7	Sololá	702	San José Chacayá	5	Chacayá	5	Mayo	2023-05-23T00:00:00	2024-11-06T02:00:00	8	Radiación solar	0
97361	7	Sololá	702	San José Chacayá	5	Chacayá	5	Mayo	2023-05-23T00:00:00	2024-11-06T03:00:00	2	Temperatura media	12.6
97362	7	Sololá	702	San José Chacayá	5	Chacayá	5	Mayo	2023-05-23T00:00:00	2024-11-06T03:00:00	4	Temperatura máxima	14.8
97363	7	Sololá	702	San José Chacayá	5	Chacayá	5	Mayo	2023-05-23T00:00:00	2024-11-06T03:00:00	3	Temperatura mínima	12.6
97364	7	Sololá	702	San José Chacayá	5	Chacayá	5	Mayo	2023-05-23T00:00:00	2024-11-06T03:00:00	5	Humedad	80
97365	7	Sololá	702	San José Chacayá	5	Chacayá	5	Mayo	2023-05-23T00:00:00	2024-11-06T03:00:00	6	Velocidad del viento	1.6
97366	7	Sololá	702	San José Chacayá	5	Chacayá	5	Mayo	2023-05-23T00:00:00	2024-11-06T03:00:00	7	Dirección del viento	1.61
97367	7	Sololá	702	San José Chacayá	5	Chacayá	5	Mayo	2023-05-23T00:00:00	2024-11-06T03:00:00	1	Precipitación	0
97368	7	Sololá	702	San José Chacayá	5	Chacayá	5	Mayo	2023-05-23T00:00:00	2024-11-06T03:00:00	8	Radiación solar	0
97369	7	Sololá	702	San José Chacayá	5	Chacayá	5	Mayo	2023-05-23T00:00:00	2024-11-06T04:00:00	2	Temperatura media	12
97370	7	Sololá	702	San José Chacayá	5	Chacayá	5	Mayo	2023-05-23T00:00:00	2024-11-06T04:00:00	4	Temperatura máxima	12.6
97371	7	Sololá	702	San José Chacayá	5	Chacayá	5	Mayo	2023-05-23T00:00:00	2024-11-06T04:00:00	3	Temperatura mínima	12
97372	7	Sololá	702	San José Chacayá	5	Chacayá	5	Mayo	2023-05-23T00:00:00	2024-11-06T04:00:00	5	Humedad	77
97373	7	Sololá	702	San José Chacayá	5	Chacayá	5	Mayo	2023-05-23T00:00:00	2024-11-06T04:00:00	6	Velocidad del viento	1.6
97374	7	Sololá	702	San José Chacayá	5	Chacayá	5	Mayo	2023-05-23T00:00:00	2024-11-06T04:00:00	7	Dirección del viento	1.61
97375	7	Sololá	702	San José Chacayá	5	Chacayá	5	Mayo	2023-05-23T00:00:00	2024-11-06T04:00:00	1	Precipitación	0
97376	7	Sololá	702	San José Chacayá	5	Chacayá	5	Mayo	2023-05-23T00:00:00	2024-11-06T04:00:00	8	Radiación solar	0
97377	7	Sololá	702	San José Chacayá	5	Chacayá	5	Mayo	2023-05-23T00:00:00	2024-11-06T05:00:00	2	Temperatura media	11.8
97378	7	Sololá	702	San José Chacayá	5	Chacayá	5	Mayo	2023-05-23T00:00:00	2024-11-06T05:00:00	4	Temperatura máxima	12.1
97379	7	Sololá	702	San José Chacayá	5	Chacayá	5	Mayo	2023-05-23T00:00:00	2024-11-06T05:00:00	3	Temperatura mínima	11.8
97380	7	Sololá	702	San José Chacayá	5	Chacayá	5	Mayo	2023-05-23T00:00:00	2024-11-06T05:00:00	5	Humedad	76
97381	7	Sololá	702	San José Chacayá	5	Chacayá	5	Mayo	2023-05-23T00:00:00	2024-11-06T05:00:00	6	Velocidad del viento	1.6
97382	7	Sololá	702	San José Chacayá	5	Chacayá	5	Mayo	2023-05-23T00:00:00	2024-11-06T05:00:00	7	Dirección del viento	1.61
97383	7	Sololá	702	San José Chacayá	5	Chacayá	5	Mayo	2023-05-23T00:00:00	2024-11-06T05:00:00	1	Precipitación	0
97384	7	Sololá	702	San José Chacayá	5	Chacayá	5	Mayo	2023-05-23T00:00:00	2024-11-06T05:00:00	8	Radiación solar	0
97385	7	Sololá	702	San José Chacayá	5	Chacayá	5	Mayo	2023-05-23T00:00:00	2024-11-06T06:00:00	2	Temperatura media	11.4
97386	7	Sololá	702	San José Chacayá	5	Chacayá	5	Mayo	2023-05-23T00:00:00	2024-11-06T06:00:00	4	Temperatura máxima	11.8
97387	7	Sololá	702	San José Chacayá	5	Chacayá	5	Mayo	2023-05-23T00:00:00	2024-11-06T06:00:00	3	Temperatura mínima	11.4
97388	7	Sololá	702	San José Chacayá	5	Chacayá	5	Mayo	2023-05-23T00:00:00	2024-11-06T06:00:00	5	Humedad	74
97389	7	Sololá	702	San José Chacayá	5	Chacayá	5	Mayo	2023-05-23T00:00:00	2024-11-06T06:00:00	6	Velocidad del viento	1.6
97390	7	Sololá	702	San José Chacayá	5	Chacayá	5	Mayo	2023-05-23T00:00:00	2024-11-06T06:00:00	7	Dirección del viento	1.61
97391	7	Sololá	702	San José Chacayá	5	Chacayá	5	Mayo	2023-05-23T00:00:00	2024-11-06T06:00:00	1	Precipitación	0
97392	7	Sololá	702	San José Chacayá	5	Chacayá	5	Mayo	2023-05-23T00:00:00	2024-11-06T06:00:00	8	Radiación solar	0
97393	7	Sololá	702	San José Chacayá	5	Chacayá	5	Mayo	2023-05-23T00:00:00	2024-11-06T07:00:00	2	Temperatura media	12.3
97394	7	Sololá	702	San José Chacayá	5	Chacayá	5	Mayo	2023-05-23T00:00:00	2024-11-06T07:00:00	4	Temperatura máxima	12.3
97395	7	Sololá	702	San José Chacayá	5	Chacayá	5	Mayo	2023-05-23T00:00:00	2024-11-06T07:00:00	3	Temperatura mínima	11.4
97396	7	Sololá	702	San José Chacayá	5	Chacayá	5	Mayo	2023-05-23T00:00:00	2024-11-06T07:00:00	5	Humedad	80
97397	7	Sololá	702	San José Chacayá	5	Chacayá	5	Mayo	2023-05-23T00:00:00	2024-11-06T07:00:00	6	Velocidad del viento	1.6
97398	7	Sololá	702	San José Chacayá	5	Chacayá	5	Mayo	2023-05-23T00:00:00	2024-11-06T07:00:00	7	Dirección del viento	1.61
97399	7	Sololá	702	San José Chacayá	5	Chacayá	5	Mayo	2023-05-23T00:00:00	2024-11-06T07:00:00	1	Precipitación	0
97400	7	Sololá	702	San José Chacayá	5	Chacayá	5	Mayo	2023-05-23T00:00:00	2024-11-06T07:00:00	8	Radiación solar	9
97401	7	Sololá	702	San José Chacayá	5	Chacayá	5	Mayo	2023-05-23T00:00:00	2024-11-06T08:00:00	2	Temperatura media	14.1
97402	7	Sololá	702	San José Chacayá	5	Chacayá	5	Mayo	2023-05-23T00:00:00	2024-11-06T08:00:00	4	Temperatura máxima	14.1
97403	7	Sololá	702	San José Chacayá	5	Chacayá	5	Mayo	2023-05-23T00:00:00	2024-11-06T08:00:00	3	Temperatura mínima	12.3
97404	7	Sololá	702	San José Chacayá	5	Chacayá	5	Mayo	2023-05-23T00:00:00	2024-11-06T08:00:00	5	Humedad	82
97405	7	Sololá	702	San José Chacayá	5	Chacayá	5	Mayo	2023-05-23T00:00:00	2024-11-06T08:00:00	6	Velocidad del viento	1.6
97406	7	Sololá	702	San José Chacayá	5	Chacayá	5	Mayo	2023-05-23T00:00:00	2024-11-06T08:00:00	7	Dirección del viento	1.61
97407	7	Sololá	702	San José Chacayá	5	Chacayá	5	Mayo	2023-05-23T00:00:00	2024-11-06T08:00:00	1	Precipitación	0
97408	7	Sololá	702	San José Chacayá	5	Chacayá	5	Mayo	2023-05-23T00:00:00	2024-11-06T08:00:00	8	Radiación solar	80
97409	7	Sololá	702	San José Chacayá	5	Chacayá	5	Mayo	2023-05-23T00:00:00	2024-11-06T09:00:00	2	Temperatura media	17.6
97410	7	Sololá	702	San José Chacayá	5	Chacayá	5	Mayo	2023-05-23T00:00:00	2024-11-06T09:00:00	4	Temperatura máxima	17.6
97411	7	Sololá	702	San José Chacayá	5	Chacayá	5	Mayo	2023-05-23T00:00:00	2024-11-06T09:00:00	3	Temperatura mínima	14.1
97412	7	Sololá	702	San José Chacayá	5	Chacayá	5	Mayo	2023-05-23T00:00:00	2024-11-06T09:00:00	5	Humedad	73
97413	7	Sololá	702	San José Chacayá	5	Chacayá	5	Mayo	2023-05-23T00:00:00	2024-11-06T09:00:00	6	Velocidad del viento	0
97414	7	Sololá	702	San José Chacayá	5	Chacayá	5	Mayo	2023-05-23T00:00:00	2024-11-06T09:00:00	7	Dirección del viento	0
97415	7	Sololá	702	San José Chacayá	5	Chacayá	5	Mayo	2023-05-23T00:00:00	2024-11-06T09:00:00	1	Precipitación	0
97416	7	Sololá	702	San José Chacayá	5	Chacayá	5	Mayo	2023-05-23T00:00:00	2024-11-06T09:00:00	8	Radiación solar	150
97417	7	Sololá	702	San José Chacayá	5	Chacayá	5	Mayo	2023-05-23T00:00:00	2024-11-06T10:00:00	2	Temperatura media	20.9
97418	7	Sololá	702	San José Chacayá	5	Chacayá	5	Mayo	2023-05-23T00:00:00	2024-11-06T10:00:00	4	Temperatura máxima	20.9
97419	7	Sololá	702	San José Chacayá	5	Chacayá	5	Mayo	2023-05-23T00:00:00	2024-11-06T10:00:00	3	Temperatura mínima	17.6
97420	7	Sololá	702	San José Chacayá	5	Chacayá	5	Mayo	2023-05-23T00:00:00	2024-11-06T10:00:00	5	Humedad	61
97421	7	Sololá	702	San José Chacayá	5	Chacayá	5	Mayo	2023-05-23T00:00:00	2024-11-06T10:00:00	6	Velocidad del viento	1.6
97422	7	Sololá	702	San José Chacayá	5	Chacayá	5	Mayo	2023-05-23T00:00:00	2024-11-06T10:00:00	7	Dirección del viento	1.61
97423	7	Sololá	702	San José Chacayá	5	Chacayá	5	Mayo	2023-05-23T00:00:00	2024-11-06T10:00:00	1	Precipitación	0
97424	7	Sololá	702	San José Chacayá	5	Chacayá	5	Mayo	2023-05-23T00:00:00	2024-11-06T10:00:00	8	Radiación solar	426
97425	7	Sololá	702	San José Chacayá	5	Chacayá	5	Mayo	2023-05-23T00:00:00	2024-11-06T11:00:00	2	Temperatura media	21.4
97426	7	Sololá	702	San José Chacayá	5	Chacayá	5	Mayo	2023-05-23T00:00:00	2024-11-06T11:00:00	4	Temperatura máxima	21.8
97427	7	Sololá	702	San José Chacayá	5	Chacayá	5	Mayo	2023-05-23T00:00:00	2024-11-06T11:00:00	3	Temperatura mínima	20.8
97428	7	Sololá	702	San José Chacayá	5	Chacayá	5	Mayo	2023-05-23T00:00:00	2024-11-06T11:00:00	5	Humedad	60
97429	7	Sololá	702	San José Chacayá	5	Chacayá	5	Mayo	2023-05-23T00:00:00	2024-11-06T11:00:00	6	Velocidad del viento	4.8
97430	7	Sololá	702	San José Chacayá	5	Chacayá	5	Mayo	2023-05-23T00:00:00	2024-11-06T11:00:00	7	Dirección del viento	4.83
97431	7	Sololá	702	San José Chacayá	5	Chacayá	5	Mayo	2023-05-23T00:00:00	2024-11-06T11:00:00	1	Precipitación	0
97432	7	Sololá	702	San José Chacayá	5	Chacayá	5	Mayo	2023-05-23T00:00:00	2024-11-06T11:00:00	8	Radiación solar	764
97433	7	Sololá	702	San José Chacayá	5	Chacayá	5	Mayo	2023-05-23T00:00:00	2024-11-06T12:00:00	2	Temperatura media	22.3
97434	7	Sololá	702	San José Chacayá	5	Chacayá	5	Mayo	2023-05-23T00:00:00	2024-11-06T12:00:00	4	Temperatura máxima	23
97435	7	Sololá	702	San José Chacayá	5	Chacayá	5	Mayo	2023-05-23T00:00:00	2024-11-06T12:00:00	3	Temperatura mínima	21.4
97436	7	Sololá	702	San José Chacayá	5	Chacayá	5	Mayo	2023-05-23T00:00:00	2024-11-06T12:00:00	5	Humedad	56
97437	7	Sololá	702	San José Chacayá	5	Chacayá	5	Mayo	2023-05-23T00:00:00	2024-11-06T12:00:00	6	Velocidad del viento	4.8
97438	7	Sololá	702	San José Chacayá	5	Chacayá	5	Mayo	2023-05-23T00:00:00	2024-11-06T12:00:00	7	Dirección del viento	4.83
97439	7	Sololá	702	San José Chacayá	5	Chacayá	5	Mayo	2023-05-23T00:00:00	2024-11-06T12:00:00	1	Precipitación	0
97440	7	Sololá	702	San José Chacayá	5	Chacayá	5	Mayo	2023-05-23T00:00:00	2024-11-06T12:00:00	8	Radiación solar	979
97441	7	Sololá	702	San José Chacayá	5	Chacayá	5	Mayo	2023-05-23T00:00:00	2024-11-06T13:00:00	2	Temperatura media	21
97442	7	Sololá	702	San José Chacayá	5	Chacayá	5	Mayo	2023-05-23T00:00:00	2024-11-06T13:00:00	4	Temperatura máxima	22.5
97443	7	Sololá	702	San José Chacayá	5	Chacayá	5	Mayo	2023-05-23T00:00:00	2024-11-06T13:00:00	3	Temperatura mínima	21
97444	7	Sololá	702	San José Chacayá	5	Chacayá	5	Mayo	2023-05-23T00:00:00	2024-11-06T13:00:00	5	Humedad	69
97445	7	Sololá	702	San José Chacayá	5	Chacayá	5	Mayo	2023-05-23T00:00:00	2024-11-06T13:00:00	6	Velocidad del viento	8
97446	7	Sololá	702	San José Chacayá	5	Chacayá	5	Mayo	2023-05-23T00:00:00	2024-11-06T13:00:00	7	Dirección del viento	8.05
97447	7	Sololá	702	San José Chacayá	5	Chacayá	5	Mayo	2023-05-23T00:00:00	2024-11-06T13:00:00	1	Precipitación	0
97448	7	Sololá	702	San José Chacayá	5	Chacayá	5	Mayo	2023-05-23T00:00:00	2024-11-06T13:00:00	8	Radiación solar	1046
97449	7	Sololá	702	San José Chacayá	5	Chacayá	5	Mayo	2023-05-23T00:00:00	2024-11-06T14:00:00	2	Temperatura media	20.6
97450	7	Sololá	702	San José Chacayá	5	Chacayá	5	Mayo	2023-05-23T00:00:00	2024-11-06T14:00:00	4	Temperatura máxima	21.2
97451	7	Sololá	702	San José Chacayá	5	Chacayá	5	Mayo	2023-05-23T00:00:00	2024-11-06T14:00:00	3	Temperatura mínima	20
97452	7	Sololá	702	San José Chacayá	5	Chacayá	5	Mayo	2023-05-23T00:00:00	2024-11-06T14:00:00	5	Humedad	72
97453	7	Sololá	702	San José Chacayá	5	Chacayá	5	Mayo	2023-05-23T00:00:00	2024-11-06T14:00:00	6	Velocidad del viento	6.4
97454	7	Sololá	702	San José Chacayá	5	Chacayá	5	Mayo	2023-05-23T00:00:00	2024-11-06T14:00:00	7	Dirección del viento	6.44
97455	7	Sololá	702	San José Chacayá	5	Chacayá	5	Mayo	2023-05-23T00:00:00	2024-11-06T14:00:00	1	Precipitación	0
97456	7	Sololá	702	San José Chacayá	5	Chacayá	5	Mayo	2023-05-23T00:00:00	2024-11-06T14:00:00	8	Radiación solar	624
97457	7	Sololá	702	San José Chacayá	5	Chacayá	5	Mayo	2023-05-23T00:00:00	2024-11-06T15:00:00	2	Temperatura media	19.7
97458	7	Sololá	702	San José Chacayá	5	Chacayá	5	Mayo	2023-05-23T00:00:00	2024-11-06T15:00:00	4	Temperatura máxima	20.6
97459	7	Sololá	702	San José Chacayá	5	Chacayá	5	Mayo	2023-05-23T00:00:00	2024-11-06T15:00:00	3	Temperatura mínima	19.7
97460	7	Sololá	702	San José Chacayá	5	Chacayá	5	Mayo	2023-05-23T00:00:00	2024-11-06T15:00:00	5	Humedad	79
97461	7	Sololá	702	San José Chacayá	5	Chacayá	5	Mayo	2023-05-23T00:00:00	2024-11-06T15:00:00	6	Velocidad del viento	8
97462	7	Sololá	702	San José Chacayá	5	Chacayá	5	Mayo	2023-05-23T00:00:00	2024-11-06T15:00:00	7	Dirección del viento	8.05
97463	7	Sololá	702	San José Chacayá	5	Chacayá	5	Mayo	2023-05-23T00:00:00	2024-11-06T15:00:00	1	Precipitación	0
97464	7	Sololá	702	San José Chacayá	5	Chacayá	5	Mayo	2023-05-23T00:00:00	2024-11-06T15:00:00	8	Radiación solar	415
97465	7	Sololá	702	San José Chacayá	5	Chacayá	5	Mayo	2023-05-23T00:00:00	2024-11-06T16:00:00	2	Temperatura media	19.2
97466	7	Sololá	702	San José Chacayá	5	Chacayá	5	Mayo	2023-05-23T00:00:00	2024-11-06T16:00:00	4	Temperatura máxima	20.9
97467	7	Sololá	702	San José Chacayá	5	Chacayá	5	Mayo	2023-05-23T00:00:00	2024-11-06T16:00:00	3	Temperatura mínima	19.2
97468	7	Sololá	702	San José Chacayá	5	Chacayá	5	Mayo	2023-05-23T00:00:00	2024-11-06T16:00:00	5	Humedad	79
97469	7	Sololá	702	San José Chacayá	5	Chacayá	5	Mayo	2023-05-23T00:00:00	2024-11-06T16:00:00	6	Velocidad del viento	4.8
97470	7	Sololá	702	San José Chacayá	5	Chacayá	5	Mayo	2023-05-23T00:00:00	2024-11-06T16:00:00	7	Dirección del viento	4.83
97471	7	Sololá	702	San José Chacayá	5	Chacayá	5	Mayo	2023-05-23T00:00:00	2024-11-06T16:00:00	1	Precipitación	0
97472	7	Sololá	702	San José Chacayá	5	Chacayá	5	Mayo	2023-05-23T00:00:00	2024-11-06T16:00:00	8	Radiación solar	348
97473	7	Sololá	702	San José Chacayá	5	Chacayá	5	Mayo	2023-05-23T00:00:00	2024-11-06T17:00:00	2	Temperatura media	19.3
97474	7	Sololá	702	San José Chacayá	5	Chacayá	5	Mayo	2023-05-23T00:00:00	2024-11-06T17:00:00	4	Temperatura máxima	19.6
97475	7	Sololá	702	San José Chacayá	5	Chacayá	5	Mayo	2023-05-23T00:00:00	2024-11-06T17:00:00	3	Temperatura mínima	19.1
97476	7	Sololá	702	San José Chacayá	5	Chacayá	5	Mayo	2023-05-23T00:00:00	2024-11-06T17:00:00	5	Humedad	80
97477	7	Sololá	702	San José Chacayá	5	Chacayá	5	Mayo	2023-05-23T00:00:00	2024-11-06T17:00:00	6	Velocidad del viento	4.8
97478	7	Sololá	702	San José Chacayá	5	Chacayá	5	Mayo	2023-05-23T00:00:00	2024-11-06T17:00:00	7	Dirección del viento	4.83
97479	7	Sololá	702	San José Chacayá	5	Chacayá	5	Mayo	2023-05-23T00:00:00	2024-11-06T17:00:00	1	Precipitación	0
97480	7	Sololá	702	San José Chacayá	5	Chacayá	5	Mayo	2023-05-23T00:00:00	2024-11-06T17:00:00	8	Radiación solar	282
97481	7	Sololá	702	San José Chacayá	5	Chacayá	5	Mayo	2023-05-23T00:00:00	2024-11-06T18:00:00	2	Temperatura media	18.3
97482	7	Sololá	702	San José Chacayá	5	Chacayá	5	Mayo	2023-05-23T00:00:00	2024-11-06T18:00:00	4	Temperatura máxima	19.5
97483	7	Sololá	702	San José Chacayá	5	Chacayá	5	Mayo	2023-05-23T00:00:00	2024-11-06T18:00:00	3	Temperatura mínima	18.3
97484	7	Sololá	702	San José Chacayá	5	Chacayá	5	Mayo	2023-05-23T00:00:00	2024-11-06T18:00:00	5	Humedad	82
97485	7	Sololá	702	San José Chacayá	5	Chacayá	5	Mayo	2023-05-23T00:00:00	2024-11-06T18:00:00	6	Velocidad del viento	3.2
97486	7	Sololá	702	San José Chacayá	5	Chacayá	5	Mayo	2023-05-23T00:00:00	2024-11-06T18:00:00	7	Dirección del viento	3.22
97487	7	Sololá	702	San José Chacayá	5	Chacayá	5	Mayo	2023-05-23T00:00:00	2024-11-06T18:00:00	1	Precipitación	0
97488	7	Sololá	702	San José Chacayá	5	Chacayá	5	Mayo	2023-05-23T00:00:00	2024-11-06T18:00:00	8	Radiación solar	168
97489	7	Sololá	702	San José Chacayá	5	Chacayá	5	Mayo	2023-05-23T00:00:00	2024-11-06T19:00:00	2	Temperatura media	17.3
97490	7	Sololá	702	San José Chacayá	5	Chacayá	5	Mayo	2023-05-23T00:00:00	2024-11-06T19:00:00	4	Temperatura máxima	18.3
97491	7	Sololá	702	San José Chacayá	5	Chacayá	5	Mayo	2023-05-23T00:00:00	2024-11-06T19:00:00	3	Temperatura mínima	17.3
97492	7	Sololá	702	San José Chacayá	5	Chacayá	5	Mayo	2023-05-23T00:00:00	2024-11-06T19:00:00	5	Humedad	80
97493	7	Sololá	702	San José Chacayá	5	Chacayá	5	Mayo	2023-05-23T00:00:00	2024-11-06T19:00:00	6	Velocidad del viento	1.6
97494	7	Sololá	702	San José Chacayá	5	Chacayá	5	Mayo	2023-05-23T00:00:00	2024-11-06T19:00:00	7	Dirección del viento	1.61
97495	7	Sololá	702	San José Chacayá	5	Chacayá	5	Mayo	2023-05-23T00:00:00	2024-11-06T19:00:00	1	Precipitación	0
97496	7	Sololá	702	San José Chacayá	5	Chacayá	5	Mayo	2023-05-23T00:00:00	2024-11-06T19:00:00	8	Radiación solar	0
97497	7	Sololá	702	San José Chacayá	5	Chacayá	5	Mayo	2023-05-23T00:00:00	2024-11-06T20:00:00	2	Temperatura media	16.9
97498	7	Sololá	702	San José Chacayá	5	Chacayá	5	Mayo	2023-05-23T00:00:00	2024-11-06T20:00:00	4	Temperatura máxima	17.4
97499	7	Sololá	702	San José Chacayá	5	Chacayá	5	Mayo	2023-05-23T00:00:00	2024-11-06T20:00:00	3	Temperatura mínima	16.9
97500	7	Sololá	702	San José Chacayá	5	Chacayá	5	Mayo	2023-05-23T00:00:00	2024-11-06T20:00:00	5	Humedad	73
97501	7	Sololá	702	San José Chacayá	5	Chacayá	5	Mayo	2023-05-23T00:00:00	2024-11-06T20:00:00	6	Velocidad del viento	0
97502	7	Sololá	702	San José Chacayá	5	Chacayá	5	Mayo	2023-05-23T00:00:00	2024-11-06T20:00:00	7	Dirección del viento	0
97503	7	Sololá	702	San José Chacayá	5	Chacayá	5	Mayo	2023-05-23T00:00:00	2024-11-06T20:00:00	1	Precipitación	0
97504	7	Sololá	702	San José Chacayá	5	Chacayá	5	Mayo	2023-05-23T00:00:00	2024-11-06T20:00:00	8	Radiación solar	0
97505	7	Sololá	702	San José Chacayá	5	Chacayá	5	Mayo	2023-05-23T00:00:00	2024-11-06T21:00:00	2	Temperatura media	16.7
97506	7	Sololá	702	San José Chacayá	5	Chacayá	5	Mayo	2023-05-23T00:00:00	2024-11-06T21:00:00	4	Temperatura máxima	16.9
97507	7	Sololá	702	San José Chacayá	5	Chacayá	5	Mayo	2023-05-23T00:00:00	2024-11-06T21:00:00	3	Temperatura mínima	16.5
97508	7	Sololá	702	San José Chacayá	5	Chacayá	5	Mayo	2023-05-23T00:00:00	2024-11-06T21:00:00	5	Humedad	80
97509	7	Sololá	702	San José Chacayá	5	Chacayá	5	Mayo	2023-05-23T00:00:00	2024-11-06T21:00:00	6	Velocidad del viento	1.6
97510	7	Sololá	702	San José Chacayá	5	Chacayá	5	Mayo	2023-05-23T00:00:00	2024-11-06T21:00:00	7	Dirección del viento	1.61
97511	7	Sololá	702	San José Chacayá	5	Chacayá	5	Mayo	2023-05-23T00:00:00	2024-11-06T21:00:00	1	Precipitación	0
97512	7	Sololá	702	San José Chacayá	5	Chacayá	5	Mayo	2023-05-23T00:00:00	2024-11-06T21:00:00	8	Radiación solar	0
97513	7	Sololá	702	San José Chacayá	5	Chacayá	5	Mayo	2023-05-23T00:00:00	2024-11-06T22:00:00	2	Temperatura media	16.6
97514	7	Sololá	702	San José Chacayá	5	Chacayá	5	Mayo	2023-05-23T00:00:00	2024-11-06T22:00:00	4	Temperatura máxima	16.9
97515	7	Sololá	702	San José Chacayá	5	Chacayá	5	Mayo	2023-05-23T00:00:00	2024-11-06T22:00:00	3	Temperatura mínima	16.6
97516	7	Sololá	702	San José Chacayá	5	Chacayá	5	Mayo	2023-05-23T00:00:00	2024-11-06T22:00:00	5	Humedad	78
97517	7	Sololá	702	San José Chacayá	5	Chacayá	5	Mayo	2023-05-23T00:00:00	2024-11-06T22:00:00	6	Velocidad del viento	4.8
97518	7	Sololá	702	San José Chacayá	5	Chacayá	5	Mayo	2023-05-23T00:00:00	2024-11-06T22:00:00	7	Dirección del viento	4.83
97519	7	Sololá	702	San José Chacayá	5	Chacayá	5	Mayo	2023-05-23T00:00:00	2024-11-06T22:00:00	1	Precipitación	0
97520	7	Sololá	702	San José Chacayá	5	Chacayá	5	Mayo	2023-05-23T00:00:00	2024-11-06T22:00:00	8	Radiación solar	0
97521	7	Sololá	702	San José Chacayá	5	Chacayá	5	Mayo	2023-05-23T00:00:00	2024-11-06T23:00:00	2	Temperatura media	14.8
97522	7	Sololá	702	San José Chacayá	5	Chacayá	5	Mayo	2023-05-23T00:00:00	2024-11-06T23:00:00	4	Temperatura máxima	16.7
97523	7	Sololá	702	San José Chacayá	5	Chacayá	5	Mayo	2023-05-23T00:00:00	2024-11-06T23:00:00	3	Temperatura mínima	14.8
97524	7	Sololá	702	San José Chacayá	5	Chacayá	5	Mayo	2023-05-23T00:00:00	2024-11-06T23:00:00	5	Humedad	82
97525	7	Sololá	702	San José Chacayá	5	Chacayá	5	Mayo	2023-05-23T00:00:00	2024-11-06T23:00:00	6	Velocidad del viento	0
97526	7	Sololá	702	San José Chacayá	5	Chacayá	5	Mayo	2023-05-23T00:00:00	2024-11-06T23:00:00	7	Dirección del viento	0
97527	7	Sololá	702	San José Chacayá	5	Chacayá	5	Mayo	2023-05-23T00:00:00	2024-11-06T23:00:00	1	Precipitación	0
97528	7	Sololá	702	San José Chacayá	5	Chacayá	5	Mayo	2023-05-23T00:00:00	2024-11-06T23:00:00	8	Radiación solar	0
97529	7	Sololá	702	San José Chacayá	5	Chacayá	5	Mayo	2023-05-24T00:00:00	2024-11-06T00:00:00	2	Temperatura media	13.3
97530	7	Sololá	702	San José Chacayá	5	Chacayá	5	Mayo	2023-05-24T00:00:00	2024-11-06T00:00:00	4	Temperatura máxima	14.8
97531	7	Sololá	702	San José Chacayá	5	Chacayá	5	Mayo	2023-05-24T00:00:00	2024-11-06T00:00:00	3	Temperatura mínima	13.3
97532	7	Sololá	702	San José Chacayá	5	Chacayá	5	Mayo	2023-05-24T00:00:00	2024-11-06T00:00:00	5	Humedad	83
97533	7	Sololá	702	San José Chacayá	5	Chacayá	5	Mayo	2023-05-24T00:00:00	2024-11-06T00:00:00	6	Velocidad del viento	3.2
97534	7	Sololá	702	San José Chacayá	5	Chacayá	5	Mayo	2023-05-24T00:00:00	2024-11-06T00:00:00	7	Dirección del viento	3.22
97535	7	Sololá	702	San José Chacayá	5	Chacayá	5	Mayo	2023-05-24T00:00:00	2024-11-06T00:00:00	1	Precipitación	0
97536	7	Sololá	702	San José Chacayá	5	Chacayá	5	Mayo	2023-05-24T00:00:00	2024-11-06T00:00:00	8	Radiación solar	0
97537	7	Sololá	702	San José Chacayá	5	Chacayá	5	Mayo	2023-05-24T00:00:00	2024-11-06T01:00:00	2	Temperatura media	12.2
97538	7	Sololá	702	San José Chacayá	5	Chacayá	5	Mayo	2023-05-24T00:00:00	2024-11-06T01:00:00	4	Temperatura máxima	13.3
97539	7	Sololá	702	San José Chacayá	5	Chacayá	5	Mayo	2023-05-24T00:00:00	2024-11-06T01:00:00	3	Temperatura mínima	12.2
97540	7	Sololá	702	San José Chacayá	5	Chacayá	5	Mayo	2023-05-24T00:00:00	2024-11-06T01:00:00	5	Humedad	82
97541	7	Sololá	702	San José Chacayá	5	Chacayá	5	Mayo	2023-05-24T00:00:00	2024-11-06T01:00:00	6	Velocidad del viento	1.6
97542	7	Sololá	702	San José Chacayá	5	Chacayá	5	Mayo	2023-05-24T00:00:00	2024-11-06T01:00:00	7	Dirección del viento	1.61
97543	7	Sololá	702	San José Chacayá	5	Chacayá	5	Mayo	2023-05-24T00:00:00	2024-11-06T01:00:00	1	Precipitación	0
97544	7	Sololá	702	San José Chacayá	5	Chacayá	5	Mayo	2023-05-24T00:00:00	2024-11-06T01:00:00	8	Radiación solar	0
97545	7	Sololá	702	San José Chacayá	5	Chacayá	5	Mayo	2023-05-24T00:00:00	2024-11-06T02:00:00	2	Temperatura media	11.4
97546	7	Sololá	702	San José Chacayá	5	Chacayá	5	Mayo	2023-05-24T00:00:00	2024-11-06T02:00:00	4	Temperatura máxima	12.2
97547	7	Sololá	702	San José Chacayá	5	Chacayá	5	Mayo	2023-05-24T00:00:00	2024-11-06T02:00:00	3	Temperatura mínima	11.4
97548	7	Sololá	702	San José Chacayá	5	Chacayá	5	Mayo	2023-05-24T00:00:00	2024-11-06T02:00:00	5	Humedad	80
97549	7	Sololá	702	San José Chacayá	5	Chacayá	5	Mayo	2023-05-24T00:00:00	2024-11-06T02:00:00	6	Velocidad del viento	1.6
97550	7	Sololá	702	San José Chacayá	5	Chacayá	5	Mayo	2023-05-24T00:00:00	2024-11-06T02:00:00	7	Dirección del viento	1.61
97551	7	Sololá	702	San José Chacayá	5	Chacayá	5	Mayo	2023-05-24T00:00:00	2024-11-06T02:00:00	1	Precipitación	0
97552	7	Sololá	702	San José Chacayá	5	Chacayá	5	Mayo	2023-05-24T00:00:00	2024-11-06T02:00:00	8	Radiación solar	0
97553	7	Sololá	702	San José Chacayá	5	Chacayá	5	Mayo	2023-05-24T00:00:00	2024-11-06T03:00:00	2	Temperatura media	11.4
97554	7	Sololá	702	San José Chacayá	5	Chacayá	5	Mayo	2023-05-24T00:00:00	2024-11-06T03:00:00	4	Temperatura máxima	11.6
97555	7	Sololá	702	San José Chacayá	5	Chacayá	5	Mayo	2023-05-24T00:00:00	2024-11-06T03:00:00	3	Temperatura mínima	11.3
97556	7	Sololá	702	San José Chacayá	5	Chacayá	5	Mayo	2023-05-24T00:00:00	2024-11-06T03:00:00	5	Humedad	80
97557	7	Sololá	702	San José Chacayá	5	Chacayá	5	Mayo	2023-05-24T00:00:00	2024-11-06T03:00:00	6	Velocidad del viento	3.2
97558	7	Sololá	702	San José Chacayá	5	Chacayá	5	Mayo	2023-05-24T00:00:00	2024-11-06T03:00:00	7	Dirección del viento	3.22
97559	7	Sololá	702	San José Chacayá	5	Chacayá	5	Mayo	2023-05-24T00:00:00	2024-11-06T03:00:00	1	Precipitación	0
97560	7	Sololá	702	San José Chacayá	5	Chacayá	5	Mayo	2023-05-24T00:00:00	2024-11-06T03:00:00	8	Radiación solar	0
97561	7	Sololá	702	San José Chacayá	5	Chacayá	5	Mayo	2023-05-24T00:00:00	2024-11-06T04:00:00	2	Temperatura media	10.9
97562	7	Sololá	702	San José Chacayá	5	Chacayá	5	Mayo	2023-05-24T00:00:00	2024-11-06T04:00:00	4	Temperatura máxima	11.5
97563	7	Sololá	702	San José Chacayá	5	Chacayá	5	Mayo	2023-05-24T00:00:00	2024-11-06T04:00:00	3	Temperatura mínima	10.9
97564	7	Sololá	702	San José Chacayá	5	Chacayá	5	Mayo	2023-05-24T00:00:00	2024-11-06T04:00:00	5	Humedad	81
97565	7	Sololá	702	San José Chacayá	5	Chacayá	5	Mayo	2023-05-24T00:00:00	2024-11-06T04:00:00	6	Velocidad del viento	3.2
97566	7	Sololá	702	San José Chacayá	5	Chacayá	5	Mayo	2023-05-24T00:00:00	2024-11-06T04:00:00	7	Dirección del viento	3.22
97567	7	Sololá	702	San José Chacayá	5	Chacayá	5	Mayo	2023-05-24T00:00:00	2024-11-06T04:00:00	1	Precipitación	0
97568	7	Sololá	702	San José Chacayá	5	Chacayá	5	Mayo	2023-05-24T00:00:00	2024-11-06T04:00:00	8	Radiación solar	0
97569	7	Sololá	702	San José Chacayá	5	Chacayá	5	Mayo	2023-05-24T00:00:00	2024-11-06T05:00:00	2	Temperatura media	10.6
97570	7	Sololá	702	San José Chacayá	5	Chacayá	5	Mayo	2023-05-24T00:00:00	2024-11-06T05:00:00	4	Temperatura máxima	10.9
97571	7	Sololá	702	San José Chacayá	5	Chacayá	5	Mayo	2023-05-24T00:00:00	2024-11-06T05:00:00	3	Temperatura mínima	10.6
97572	7	Sololá	702	San José Chacayá	5	Chacayá	5	Mayo	2023-05-24T00:00:00	2024-11-06T05:00:00	5	Humedad	80
97573	7	Sololá	702	San José Chacayá	5	Chacayá	5	Mayo	2023-05-24T00:00:00	2024-11-06T05:00:00	6	Velocidad del viento	3.2
97574	7	Sololá	702	San José Chacayá	5	Chacayá	5	Mayo	2023-05-24T00:00:00	2024-11-06T05:00:00	7	Dirección del viento	3.22
97575	7	Sololá	702	San José Chacayá	5	Chacayá	5	Mayo	2023-05-24T00:00:00	2024-11-06T05:00:00	1	Precipitación	0
97576	7	Sololá	702	San José Chacayá	5	Chacayá	5	Mayo	2023-05-24T00:00:00	2024-11-06T05:00:00	8	Radiación solar	0
97577	7	Sololá	702	San José Chacayá	5	Chacayá	5	Mayo	2023-05-24T00:00:00	2024-11-06T06:00:00	2	Temperatura media	10.1
97578	7	Sololá	702	San José Chacayá	5	Chacayá	5	Mayo	2023-05-24T00:00:00	2024-11-06T06:00:00	4	Temperatura máxima	10.8
97579	7	Sololá	702	San José Chacayá	5	Chacayá	5	Mayo	2023-05-24T00:00:00	2024-11-06T06:00:00	3	Temperatura mínima	10.1
97580	7	Sololá	702	San José Chacayá	5	Chacayá	5	Mayo	2023-05-24T00:00:00	2024-11-06T06:00:00	5	Humedad	81
97581	7	Sololá	702	San José Chacayá	5	Chacayá	5	Mayo	2023-05-24T00:00:00	2024-11-06T06:00:00	6	Velocidad del viento	3.2
97582	7	Sololá	702	San José Chacayá	5	Chacayá	5	Mayo	2023-05-24T00:00:00	2024-11-06T06:00:00	7	Dirección del viento	3.22
97583	7	Sololá	702	San José Chacayá	5	Chacayá	5	Mayo	2023-05-24T00:00:00	2024-11-06T06:00:00	1	Precipitación	0
97584	7	Sololá	702	San José Chacayá	5	Chacayá	5	Mayo	2023-05-24T00:00:00	2024-11-06T06:00:00	8	Radiación solar	0
97585	7	Sololá	702	San José Chacayá	5	Chacayá	5	Mayo	2023-05-24T00:00:00	2024-11-06T07:00:00	2	Temperatura media	10.4
97586	7	Sololá	702	San José Chacayá	5	Chacayá	5	Mayo	2023-05-24T00:00:00	2024-11-06T07:00:00	4	Temperatura máxima	10.4
97587	7	Sololá	702	San José Chacayá	5	Chacayá	5	Mayo	2023-05-24T00:00:00	2024-11-06T07:00:00	3	Temperatura mínima	10
97588	7	Sololá	702	San José Chacayá	5	Chacayá	5	Mayo	2023-05-24T00:00:00	2024-11-06T07:00:00	5	Humedad	80
97589	7	Sololá	702	San José Chacayá	5	Chacayá	5	Mayo	2023-05-24T00:00:00	2024-11-06T07:00:00	6	Velocidad del viento	3.2
97590	7	Sololá	702	San José Chacayá	5	Chacayá	5	Mayo	2023-05-24T00:00:00	2024-11-06T07:00:00	7	Dirección del viento	3.22
97591	7	Sololá	702	San José Chacayá	5	Chacayá	5	Mayo	2023-05-24T00:00:00	2024-11-06T07:00:00	1	Precipitación	0
97592	7	Sololá	702	San José Chacayá	5	Chacayá	5	Mayo	2023-05-24T00:00:00	2024-11-06T07:00:00	8	Radiación solar	7
97593	7	Sololá	702	San José Chacayá	5	Chacayá	5	Mayo	2023-05-24T00:00:00	2024-11-06T08:00:00	2	Temperatura media	12.4
97594	7	Sololá	702	San José Chacayá	5	Chacayá	5	Mayo	2023-05-24T00:00:00	2024-11-06T08:00:00	4	Temperatura máxima	12.4
97595	7	Sololá	702	San José Chacayá	5	Chacayá	5	Mayo	2023-05-24T00:00:00	2024-11-06T08:00:00	3	Temperatura mínima	10.3
97596	7	Sololá	702	San José Chacayá	5	Chacayá	5	Mayo	2023-05-24T00:00:00	2024-11-06T08:00:00	5	Humedad	83
97597	7	Sololá	702	San José Chacayá	5	Chacayá	5	Mayo	2023-05-24T00:00:00	2024-11-06T08:00:00	6	Velocidad del viento	1.6
97598	7	Sololá	702	San José Chacayá	5	Chacayá	5	Mayo	2023-05-24T00:00:00	2024-11-06T08:00:00	7	Dirección del viento	1.61
97599	7	Sololá	702	San José Chacayá	5	Chacayá	5	Mayo	2023-05-24T00:00:00	2024-11-06T08:00:00	1	Precipitación	0
97600	7	Sololá	702	San José Chacayá	5	Chacayá	5	Mayo	2023-05-24T00:00:00	2024-11-06T08:00:00	8	Radiación solar	47
97601	7	Sololá	702	San José Chacayá	5	Chacayá	5	Mayo	2023-05-24T00:00:00	2024-11-06T09:00:00	2	Temperatura media	16.6
97602	7	Sololá	702	San José Chacayá	5	Chacayá	5	Mayo	2023-05-24T00:00:00	2024-11-06T09:00:00	4	Temperatura máxima	16.6
97603	7	Sololá	702	San José Chacayá	5	Chacayá	5	Mayo	2023-05-24T00:00:00	2024-11-06T09:00:00	3	Temperatura mínima	12.5
97604	7	Sololá	702	San José Chacayá	5	Chacayá	5	Mayo	2023-05-24T00:00:00	2024-11-06T09:00:00	5	Humedad	75
97605	7	Sololá	702	San José Chacayá	5	Chacayá	5	Mayo	2023-05-24T00:00:00	2024-11-06T09:00:00	6	Velocidad del viento	0
97606	7	Sololá	702	San José Chacayá	5	Chacayá	5	Mayo	2023-05-24T00:00:00	2024-11-06T09:00:00	7	Dirección del viento	0
97607	7	Sololá	702	San José Chacayá	5	Chacayá	5	Mayo	2023-05-24T00:00:00	2024-11-06T09:00:00	1	Precipitación	0
97608	7	Sololá	702	San José Chacayá	5	Chacayá	5	Mayo	2023-05-24T00:00:00	2024-11-06T09:00:00	8	Radiación solar	113
97609	7	Sololá	702	San José Chacayá	5	Chacayá	5	Mayo	2023-05-24T00:00:00	2024-11-06T10:00:00	2	Temperatura media	19.9
97610	7	Sololá	702	San José Chacayá	5	Chacayá	5	Mayo	2023-05-24T00:00:00	2024-11-06T10:00:00	4	Temperatura máxima	19.9
97611	7	Sololá	702	San José Chacayá	5	Chacayá	5	Mayo	2023-05-24T00:00:00	2024-11-06T10:00:00	3	Temperatura mínima	16.7
97612	7	Sololá	702	San José Chacayá	5	Chacayá	5	Mayo	2023-05-24T00:00:00	2024-11-06T10:00:00	5	Humedad	71
97613	7	Sololá	702	San José Chacayá	5	Chacayá	5	Mayo	2023-05-24T00:00:00	2024-11-06T10:00:00	6	Velocidad del viento	3.2
97614	7	Sololá	702	San José Chacayá	5	Chacayá	5	Mayo	2023-05-24T00:00:00	2024-11-06T10:00:00	7	Dirección del viento	3.22
97615	7	Sololá	702	San José Chacayá	5	Chacayá	5	Mayo	2023-05-24T00:00:00	2024-11-06T10:00:00	1	Precipitación	0
97616	7	Sololá	702	San José Chacayá	5	Chacayá	5	Mayo	2023-05-24T00:00:00	2024-11-06T10:00:00	8	Radiación solar	431
97617	7	Sololá	702	San José Chacayá	5	Chacayá	5	Mayo	2023-05-24T00:00:00	2024-11-06T11:00:00	2	Temperatura media	21.3
97618	7	Sololá	702	San José Chacayá	5	Chacayá	5	Mayo	2023-05-24T00:00:00	2024-11-06T11:00:00	4	Temperatura máxima	21.3
97619	7	Sololá	702	San José Chacayá	5	Chacayá	5	Mayo	2023-05-24T00:00:00	2024-11-06T11:00:00	3	Temperatura mínima	19.9
97620	7	Sololá	702	San José Chacayá	5	Chacayá	5	Mayo	2023-05-24T00:00:00	2024-11-06T11:00:00	5	Humedad	57
97621	7	Sololá	702	San José Chacayá	5	Chacayá	5	Mayo	2023-05-24T00:00:00	2024-11-06T11:00:00	6	Velocidad del viento	4.8
97622	7	Sololá	702	San José Chacayá	5	Chacayá	5	Mayo	2023-05-24T00:00:00	2024-11-06T11:00:00	7	Dirección del viento	4.83
97623	7	Sololá	702	San José Chacayá	5	Chacayá	5	Mayo	2023-05-24T00:00:00	2024-11-06T11:00:00	1	Precipitación	0
97624	7	Sololá	702	San José Chacayá	5	Chacayá	5	Mayo	2023-05-24T00:00:00	2024-11-06T11:00:00	8	Radiación solar	749
97625	7	Sololá	702	San José Chacayá	5	Chacayá	5	Mayo	2023-05-24T00:00:00	2024-11-06T12:00:00	2	Temperatura media	22.2
97626	7	Sololá	702	San José Chacayá	5	Chacayá	5	Mayo	2023-05-24T00:00:00	2024-11-06T12:00:00	4	Temperatura máxima	22.3
97627	7	Sololá	702	San José Chacayá	5	Chacayá	5	Mayo	2023-05-24T00:00:00	2024-11-06T12:00:00	3	Temperatura mínima	21.3
97628	7	Sololá	702	San José Chacayá	5	Chacayá	5	Mayo	2023-05-24T00:00:00	2024-11-06T12:00:00	5	Humedad	54
97629	7	Sololá	702	San José Chacayá	5	Chacayá	5	Mayo	2023-05-24T00:00:00	2024-11-06T12:00:00	6	Velocidad del viento	4.8
97630	7	Sololá	702	San José Chacayá	5	Chacayá	5	Mayo	2023-05-24T00:00:00	2024-11-06T12:00:00	7	Dirección del viento	4.83
97631	7	Sololá	702	San José Chacayá	5	Chacayá	5	Mayo	2023-05-24T00:00:00	2024-11-06T12:00:00	1	Precipitación	0
97632	7	Sololá	702	San José Chacayá	5	Chacayá	5	Mayo	2023-05-24T00:00:00	2024-11-06T12:00:00	8	Radiación solar	895
97633	7	Sololá	702	San José Chacayá	5	Chacayá	5	Mayo	2023-05-24T00:00:00	2024-11-06T13:00:00	2	Temperatura media	21.8
97634	7	Sololá	702	San José Chacayá	5	Chacayá	5	Mayo	2023-05-24T00:00:00	2024-11-06T13:00:00	4	Temperatura máxima	22.5
97635	7	Sololá	702	San José Chacayá	5	Chacayá	5	Mayo	2023-05-24T00:00:00	2024-11-06T13:00:00	3	Temperatura mínima	21.8
97636	7	Sololá	702	San José Chacayá	5	Chacayá	5	Mayo	2023-05-24T00:00:00	2024-11-06T13:00:00	5	Humedad	61
97637	7	Sololá	702	San José Chacayá	5	Chacayá	5	Mayo	2023-05-24T00:00:00	2024-11-06T13:00:00	6	Velocidad del viento	6.4
97638	7	Sololá	702	San José Chacayá	5	Chacayá	5	Mayo	2023-05-24T00:00:00	2024-11-06T13:00:00	7	Dirección del viento	6.44
97639	7	Sololá	702	San José Chacayá	5	Chacayá	5	Mayo	2023-05-24T00:00:00	2024-11-06T13:00:00	1	Precipitación	0
97640	7	Sololá	702	San José Chacayá	5	Chacayá	5	Mayo	2023-05-24T00:00:00	2024-11-06T13:00:00	8	Radiación solar	952
97641	7	Sololá	702	San José Chacayá	5	Chacayá	5	Mayo	2023-05-24T00:00:00	2024-11-06T14:00:00	2	Temperatura media	22.4
97642	7	Sololá	702	San José Chacayá	5	Chacayá	5	Mayo	2023-05-24T00:00:00	2024-11-06T14:00:00	4	Temperatura máxima	22.7
97643	7	Sololá	702	San José Chacayá	5	Chacayá	5	Mayo	2023-05-24T00:00:00	2024-11-06T14:00:00	3	Temperatura mínima	21.3
97644	7	Sololá	702	San José Chacayá	5	Chacayá	5	Mayo	2023-05-24T00:00:00	2024-11-06T14:00:00	5	Humedad	63
97645	7	Sololá	702	San José Chacayá	5	Chacayá	5	Mayo	2023-05-24T00:00:00	2024-11-06T14:00:00	6	Velocidad del viento	6.4
97646	7	Sololá	702	San José Chacayá	5	Chacayá	5	Mayo	2023-05-24T00:00:00	2024-11-06T14:00:00	7	Dirección del viento	6.44
97647	7	Sololá	702	San José Chacayá	5	Chacayá	5	Mayo	2023-05-24T00:00:00	2024-11-06T14:00:00	1	Precipitación	0
97648	7	Sololá	702	San José Chacayá	5	Chacayá	5	Mayo	2023-05-24T00:00:00	2024-11-06T14:00:00	8	Radiación solar	1024
97649	7	Sololá	702	San José Chacayá	5	Chacayá	5	Mayo	2023-05-24T00:00:00	2024-11-06T15:00:00	2	Temperatura media	21.8
97650	7	Sololá	702	San José Chacayá	5	Chacayá	5	Mayo	2023-05-24T00:00:00	2024-11-06T15:00:00	4	Temperatura máxima	22.4
97651	7	Sololá	702	San José Chacayá	5	Chacayá	5	Mayo	2023-05-24T00:00:00	2024-11-06T15:00:00	3	Temperatura mínima	21.3
97652	7	Sololá	702	San José Chacayá	5	Chacayá	5	Mayo	2023-05-24T00:00:00	2024-11-06T15:00:00	5	Humedad	69
97653	7	Sololá	702	San José Chacayá	5	Chacayá	5	Mayo	2023-05-24T00:00:00	2024-11-06T15:00:00	6	Velocidad del viento	6.4
97654	7	Sololá	702	San José Chacayá	5	Chacayá	5	Mayo	2023-05-24T00:00:00	2024-11-06T15:00:00	7	Dirección del viento	6.44
97655	7	Sololá	702	San José Chacayá	5	Chacayá	5	Mayo	2023-05-24T00:00:00	2024-11-06T15:00:00	1	Precipitación	0
97656	7	Sololá	702	San José Chacayá	5	Chacayá	5	Mayo	2023-05-24T00:00:00	2024-11-06T15:00:00	8	Radiación solar	804
97657	7	Sololá	702	San José Chacayá	5	Chacayá	5	Mayo	2023-05-24T00:00:00	2024-11-06T16:00:00	2	Temperatura media	20.1
97658	7	Sololá	702	San José Chacayá	5	Chacayá	5	Mayo	2023-05-24T00:00:00	2024-11-06T16:00:00	4	Temperatura máxima	21.8
97659	7	Sololá	702	San José Chacayá	5	Chacayá	5	Mayo	2023-05-24T00:00:00	2024-11-06T16:00:00	3	Temperatura mínima	20
97660	7	Sololá	702	San José Chacayá	5	Chacayá	5	Mayo	2023-05-24T00:00:00	2024-11-06T16:00:00	5	Humedad	77
97661	7	Sololá	702	San José Chacayá	5	Chacayá	5	Mayo	2023-05-24T00:00:00	2024-11-06T16:00:00	6	Velocidad del viento	4.8
97662	7	Sololá	702	San José Chacayá	5	Chacayá	5	Mayo	2023-05-24T00:00:00	2024-11-06T16:00:00	7	Dirección del viento	4.83
97663	7	Sololá	702	San José Chacayá	5	Chacayá	5	Mayo	2023-05-24T00:00:00	2024-11-06T16:00:00	1	Precipitación	0
97664	7	Sololá	702	San José Chacayá	5	Chacayá	5	Mayo	2023-05-24T00:00:00	2024-11-06T16:00:00	8	Radiación solar	301
97665	7	Sololá	702	San José Chacayá	5	Chacayá	5	Mayo	2023-05-24T00:00:00	2024-11-06T17:00:00	2	Temperatura media	20.3
97666	7	Sololá	702	San José Chacayá	5	Chacayá	5	Mayo	2023-05-24T00:00:00	2024-11-06T17:00:00	4	Temperatura máxima	20.7
97667	7	Sololá	702	San José Chacayá	5	Chacayá	5	Mayo	2023-05-24T00:00:00	2024-11-06T17:00:00	3	Temperatura mínima	20.1
97668	7	Sololá	702	San José Chacayá	5	Chacayá	5	Mayo	2023-05-24T00:00:00	2024-11-06T17:00:00	5	Humedad	73
97669	7	Sololá	702	San José Chacayá	5	Chacayá	5	Mayo	2023-05-24T00:00:00	2024-11-06T17:00:00	6	Velocidad del viento	1.6
97670	7	Sololá	702	San José Chacayá	5	Chacayá	5	Mayo	2023-05-24T00:00:00	2024-11-06T17:00:00	7	Dirección del viento	1.61
97671	7	Sololá	702	San José Chacayá	5	Chacayá	5	Mayo	2023-05-24T00:00:00	2024-11-06T17:00:00	1	Precipitación	0
97672	7	Sololá	702	San José Chacayá	5	Chacayá	5	Mayo	2023-05-24T00:00:00	2024-11-06T17:00:00	8	Radiación solar	253
97673	7	Sololá	702	San José Chacayá	5	Chacayá	5	Mayo	2023-05-24T00:00:00	2024-11-06T18:00:00	2	Temperatura media	19.1
97674	7	Sololá	702	San José Chacayá	5	Chacayá	5	Mayo	2023-05-24T00:00:00	2024-11-06T18:00:00	4	Temperatura máxima	20.3
97675	7	Sololá	702	San José Chacayá	5	Chacayá	5	Mayo	2023-05-24T00:00:00	2024-11-06T18:00:00	3	Temperatura mínima	19.1
97676	7	Sololá	702	San José Chacayá	5	Chacayá	5	Mayo	2023-05-24T00:00:00	2024-11-06T18:00:00	5	Humedad	81
97677	7	Sololá	702	San José Chacayá	5	Chacayá	5	Mayo	2023-05-24T00:00:00	2024-11-06T18:00:00	6	Velocidad del viento	3.2
97678	7	Sololá	702	San José Chacayá	5	Chacayá	5	Mayo	2023-05-24T00:00:00	2024-11-06T18:00:00	7	Dirección del viento	3.22
97679	7	Sololá	702	San José Chacayá	5	Chacayá	5	Mayo	2023-05-24T00:00:00	2024-11-06T18:00:00	1	Precipitación	0
97680	7	Sololá	702	San José Chacayá	5	Chacayá	5	Mayo	2023-05-24T00:00:00	2024-11-06T18:00:00	8	Radiación solar	141
97681	7	Sololá	702	San José Chacayá	5	Chacayá	5	Mayo	2023-05-24T00:00:00	2024-11-06T19:00:00	2	Temperatura media	18.3
97682	7	Sololá	702	San José Chacayá	5	Chacayá	5	Mayo	2023-05-24T00:00:00	2024-11-06T19:00:00	4	Temperatura máxima	19.1
97683	7	Sololá	702	San José Chacayá	5	Chacayá	5	Mayo	2023-05-24T00:00:00	2024-11-06T19:00:00	3	Temperatura mínima	18.3
97684	7	Sololá	702	San José Chacayá	5	Chacayá	5	Mayo	2023-05-24T00:00:00	2024-11-06T19:00:00	5	Humedad	82
97685	7	Sololá	702	San José Chacayá	5	Chacayá	5	Mayo	2023-05-24T00:00:00	2024-11-06T19:00:00	6	Velocidad del viento	1.6
97686	7	Sololá	702	San José Chacayá	5	Chacayá	5	Mayo	2023-05-24T00:00:00	2024-11-06T19:00:00	7	Dirección del viento	1.61
97687	7	Sololá	702	San José Chacayá	5	Chacayá	5	Mayo	2023-05-24T00:00:00	2024-11-06T19:00:00	1	Precipitación	0
97688	7	Sololá	702	San José Chacayá	5	Chacayá	5	Mayo	2023-05-24T00:00:00	2024-11-06T19:00:00	8	Radiación solar	0
97689	7	Sololá	702	San José Chacayá	5	Chacayá	5	Mayo	2023-05-24T00:00:00	2024-11-06T20:00:00	2	Temperatura media	17.8
97690	7	Sololá	702	San José Chacayá	5	Chacayá	5	Mayo	2023-05-24T00:00:00	2024-11-06T20:00:00	4	Temperatura máxima	18.3
97691	7	Sololá	702	San José Chacayá	5	Chacayá	5	Mayo	2023-05-24T00:00:00	2024-11-06T20:00:00	3	Temperatura mínima	17.6
97692	7	Sololá	702	San José Chacayá	5	Chacayá	5	Mayo	2023-05-24T00:00:00	2024-11-06T20:00:00	5	Humedad	80
97693	7	Sololá	702	San José Chacayá	5	Chacayá	5	Mayo	2023-05-24T00:00:00	2024-11-06T20:00:00	6	Velocidad del viento	0
97694	7	Sololá	702	San José Chacayá	5	Chacayá	5	Mayo	2023-05-24T00:00:00	2024-11-06T20:00:00	7	Dirección del viento	0
97695	7	Sololá	702	San José Chacayá	5	Chacayá	5	Mayo	2023-05-24T00:00:00	2024-11-06T20:00:00	1	Precipitación	0
97696	7	Sololá	702	San José Chacayá	5	Chacayá	5	Mayo	2023-05-24T00:00:00	2024-11-06T20:00:00	8	Radiación solar	0
97697	7	Sololá	702	San José Chacayá	5	Chacayá	5	Mayo	2023-05-24T00:00:00	2024-11-06T21:00:00	2	Temperatura media	17
97698	7	Sololá	702	San José Chacayá	5	Chacayá	5	Mayo	2023-05-24T00:00:00	2024-11-06T21:00:00	4	Temperatura máxima	17.8
97699	7	Sololá	702	San José Chacayá	5	Chacayá	5	Mayo	2023-05-24T00:00:00	2024-11-06T21:00:00	3	Temperatura mínima	16.9
97700	7	Sololá	702	San José Chacayá	5	Chacayá	5	Mayo	2023-05-24T00:00:00	2024-11-06T21:00:00	5	Humedad	76
97701	7	Sololá	702	San José Chacayá	5	Chacayá	5	Mayo	2023-05-24T00:00:00	2024-11-06T21:00:00	6	Velocidad del viento	0
97702	7	Sololá	702	San José Chacayá	5	Chacayá	5	Mayo	2023-05-24T00:00:00	2024-11-06T21:00:00	7	Dirección del viento	0
97703	7	Sololá	702	San José Chacayá	5	Chacayá	5	Mayo	2023-05-24T00:00:00	2024-11-06T21:00:00	1	Precipitación	0
97704	7	Sololá	702	San José Chacayá	5	Chacayá	5	Mayo	2023-05-24T00:00:00	2024-11-06T21:00:00	8	Radiación solar	0
97705	7	Sololá	702	San José Chacayá	5	Chacayá	5	Mayo	2023-05-24T00:00:00	2024-11-06T22:00:00	2	Temperatura media	16
97706	7	Sololá	702	San José Chacayá	5	Chacayá	5	Mayo	2023-05-24T00:00:00	2024-11-06T22:00:00	4	Temperatura máxima	16.9
97707	7	Sololá	702	San José Chacayá	5	Chacayá	5	Mayo	2023-05-24T00:00:00	2024-11-06T22:00:00	3	Temperatura mínima	16
97708	7	Sololá	702	San José Chacayá	5	Chacayá	5	Mayo	2023-05-24T00:00:00	2024-11-06T22:00:00	5	Humedad	77
97709	7	Sololá	702	San José Chacayá	5	Chacayá	5	Mayo	2023-05-24T00:00:00	2024-11-06T22:00:00	6	Velocidad del viento	0
97710	7	Sololá	702	San José Chacayá	5	Chacayá	5	Mayo	2023-05-24T00:00:00	2024-11-06T22:00:00	7	Dirección del viento	0
97711	7	Sololá	702	San José Chacayá	5	Chacayá	5	Mayo	2023-05-24T00:00:00	2024-11-06T22:00:00	1	Precipitación	0
97712	7	Sololá	702	San José Chacayá	5	Chacayá	5	Mayo	2023-05-24T00:00:00	2024-11-06T22:00:00	8	Radiación solar	0
97713	7	Sololá	702	San José Chacayá	5	Chacayá	5	Mayo	2023-05-24T00:00:00	2024-11-06T23:00:00	2	Temperatura media	15.6
97714	7	Sololá	702	San José Chacayá	5	Chacayá	5	Mayo	2023-05-24T00:00:00	2024-11-06T23:00:00	4	Temperatura máxima	16
97715	7	Sololá	702	San José Chacayá	5	Chacayá	5	Mayo	2023-05-24T00:00:00	2024-11-06T23:00:00	3	Temperatura mínima	15.6
97716	7	Sololá	702	San José Chacayá	5	Chacayá	5	Mayo	2023-05-24T00:00:00	2024-11-06T23:00:00	5	Humedad	76
97717	7	Sololá	702	San José Chacayá	5	Chacayá	5	Mayo	2023-05-24T00:00:00	2024-11-06T23:00:00	6	Velocidad del viento	0
97718	7	Sololá	702	San José Chacayá	5	Chacayá	5	Mayo	2023-05-24T00:00:00	2024-11-06T23:00:00	7	Dirección del viento	0
97719	7	Sololá	702	San José Chacayá	5	Chacayá	5	Mayo	2023-05-24T00:00:00	2024-11-06T23:00:00	1	Precipitación	0
97720	7	Sololá	702	San José Chacayá	5	Chacayá	5	Mayo	2023-05-24T00:00:00	2024-11-06T23:00:00	8	Radiación solar	0
97721	7	Sololá	702	San José Chacayá	5	Chacayá	5	Mayo	2023-05-25T00:00:00	2024-11-06T00:00:00	2	Temperatura media	15.1
97722	7	Sololá	702	San José Chacayá	5	Chacayá	5	Mayo	2023-05-25T00:00:00	2024-11-06T00:00:00	4	Temperatura máxima	15.6
97723	7	Sololá	702	San José Chacayá	5	Chacayá	5	Mayo	2023-05-25T00:00:00	2024-11-06T00:00:00	3	Temperatura mínima	15.1
97724	7	Sololá	702	San José Chacayá	5	Chacayá	5	Mayo	2023-05-25T00:00:00	2024-11-06T00:00:00	5	Humedad	76
97725	7	Sololá	702	San José Chacayá	5	Chacayá	5	Mayo	2023-05-25T00:00:00	2024-11-06T00:00:00	6	Velocidad del viento	0
97726	7	Sololá	702	San José Chacayá	5	Chacayá	5	Mayo	2023-05-25T00:00:00	2024-11-06T00:00:00	7	Dirección del viento	0
97727	7	Sololá	702	San José Chacayá	5	Chacayá	5	Mayo	2023-05-25T00:00:00	2024-11-06T00:00:00	1	Precipitación	0
97728	7	Sololá	702	San José Chacayá	5	Chacayá	5	Mayo	2023-05-25T00:00:00	2024-11-06T00:00:00	8	Radiación solar	0
97729	7	Sololá	702	San José Chacayá	5	Chacayá	5	Mayo	2023-05-25T00:00:00	2024-11-06T01:00:00	2	Temperatura media	14.1
97730	7	Sololá	702	San José Chacayá	5	Chacayá	5	Mayo	2023-05-25T00:00:00	2024-11-06T01:00:00	4	Temperatura máxima	15.1
97731	7	Sololá	702	San José Chacayá	5	Chacayá	5	Mayo	2023-05-25T00:00:00	2024-11-06T01:00:00	3	Temperatura mínima	14.1
97732	7	Sololá	702	San José Chacayá	5	Chacayá	5	Mayo	2023-05-25T00:00:00	2024-11-06T01:00:00	5	Humedad	76
97733	7	Sololá	702	San José Chacayá	5	Chacayá	5	Mayo	2023-05-25T00:00:00	2024-11-06T01:00:00	6	Velocidad del viento	1.6
97734	7	Sololá	702	San José Chacayá	5	Chacayá	5	Mayo	2023-05-25T00:00:00	2024-11-06T01:00:00	7	Dirección del viento	1.61
97735	7	Sololá	702	San José Chacayá	5	Chacayá	5	Mayo	2023-05-25T00:00:00	2024-11-06T01:00:00	1	Precipitación	0
97736	7	Sololá	702	San José Chacayá	5	Chacayá	5	Mayo	2023-05-25T00:00:00	2024-11-06T01:00:00	8	Radiación solar	0
97737	7	Sololá	702	San José Chacayá	5	Chacayá	5	Mayo	2023-05-25T00:00:00	2024-11-06T02:00:00	2	Temperatura media	13.5
97738	7	Sololá	702	San José Chacayá	5	Chacayá	5	Mayo	2023-05-25T00:00:00	2024-11-06T02:00:00	4	Temperatura máxima	14.1
97739	7	Sololá	702	San José Chacayá	5	Chacayá	5	Mayo	2023-05-25T00:00:00	2024-11-06T02:00:00	3	Temperatura mínima	13.5
97740	7	Sololá	702	San José Chacayá	5	Chacayá	5	Mayo	2023-05-25T00:00:00	2024-11-06T02:00:00	5	Humedad	75
97741	7	Sololá	702	San José Chacayá	5	Chacayá	5	Mayo	2023-05-25T00:00:00	2024-11-06T02:00:00	6	Velocidad del viento	1.6
97742	7	Sololá	702	San José Chacayá	5	Chacayá	5	Mayo	2023-05-25T00:00:00	2024-11-06T02:00:00	7	Dirección del viento	1.61
97743	7	Sololá	702	San José Chacayá	5	Chacayá	5	Mayo	2023-05-25T00:00:00	2024-11-06T02:00:00	1	Precipitación	0
97744	7	Sololá	702	San José Chacayá	5	Chacayá	5	Mayo	2023-05-25T00:00:00	2024-11-06T02:00:00	8	Radiación solar	0
97745	7	Sololá	702	San José Chacayá	5	Chacayá	5	Mayo	2023-05-25T00:00:00	2024-11-06T03:00:00	2	Temperatura media	12.9
97746	7	Sololá	702	San José Chacayá	5	Chacayá	5	Mayo	2023-05-25T00:00:00	2024-11-06T03:00:00	4	Temperatura máxima	13.5
97747	7	Sololá	702	San José Chacayá	5	Chacayá	5	Mayo	2023-05-25T00:00:00	2024-11-06T03:00:00	3	Temperatura mínima	12.9
97748	7	Sololá	702	San José Chacayá	5	Chacayá	5	Mayo	2023-05-25T00:00:00	2024-11-06T03:00:00	5	Humedad	74
97749	7	Sololá	702	San José Chacayá	5	Chacayá	5	Mayo	2023-05-25T00:00:00	2024-11-06T03:00:00	6	Velocidad del viento	1.6
97750	7	Sololá	702	San José Chacayá	5	Chacayá	5	Mayo	2023-05-25T00:00:00	2024-11-06T03:00:00	7	Dirección del viento	1.61
97751	7	Sololá	702	San José Chacayá	5	Chacayá	5	Mayo	2023-05-25T00:00:00	2024-11-06T03:00:00	1	Precipitación	0
97752	7	Sololá	702	San José Chacayá	5	Chacayá	5	Mayo	2023-05-25T00:00:00	2024-11-06T03:00:00	8	Radiación solar	0
97753	7	Sololá	702	San José Chacayá	5	Chacayá	5	Mayo	2023-05-25T00:00:00	2024-11-06T04:00:00	2	Temperatura media	12.3
97754	7	Sololá	702	San José Chacayá	5	Chacayá	5	Mayo	2023-05-25T00:00:00	2024-11-06T04:00:00	4	Temperatura máxima	12.9
97755	7	Sololá	702	San José Chacayá	5	Chacayá	5	Mayo	2023-05-25T00:00:00	2024-11-06T04:00:00	3	Temperatura mínima	12.3
97756	7	Sololá	702	San José Chacayá	5	Chacayá	5	Mayo	2023-05-25T00:00:00	2024-11-06T04:00:00	5	Humedad	77
97757	7	Sololá	702	San José Chacayá	5	Chacayá	5	Mayo	2023-05-25T00:00:00	2024-11-06T04:00:00	6	Velocidad del viento	3.2
97758	7	Sololá	702	San José Chacayá	5	Chacayá	5	Mayo	2023-05-25T00:00:00	2024-11-06T04:00:00	7	Dirección del viento	3.22
97759	7	Sololá	702	San José Chacayá	5	Chacayá	5	Mayo	2023-05-25T00:00:00	2024-11-06T04:00:00	1	Precipitación	0
97760	7	Sololá	702	San José Chacayá	5	Chacayá	5	Mayo	2023-05-25T00:00:00	2024-11-06T04:00:00	8	Radiación solar	0
97761	7	Sololá	702	San José Chacayá	5	Chacayá	5	Mayo	2023-05-25T00:00:00	2024-11-06T05:00:00	2	Temperatura media	11.7
97762	7	Sololá	702	San José Chacayá	5	Chacayá	5	Mayo	2023-05-25T00:00:00	2024-11-06T05:00:00	4	Temperatura máxima	12.3
97763	7	Sololá	702	San José Chacayá	5	Chacayá	5	Mayo	2023-05-25T00:00:00	2024-11-06T05:00:00	3	Temperatura mínima	11.7
97764	7	Sololá	702	San José Chacayá	5	Chacayá	5	Mayo	2023-05-25T00:00:00	2024-11-06T05:00:00	5	Humedad	79
97765	7	Sololá	702	San José Chacayá	5	Chacayá	5	Mayo	2023-05-25T00:00:00	2024-11-06T05:00:00	6	Velocidad del viento	3.2
97766	7	Sololá	702	San José Chacayá	5	Chacayá	5	Mayo	2023-05-25T00:00:00	2024-11-06T05:00:00	7	Dirección del viento	3.22
97767	7	Sololá	702	San José Chacayá	5	Chacayá	5	Mayo	2023-05-25T00:00:00	2024-11-06T05:00:00	1	Precipitación	0
97768	7	Sololá	702	San José Chacayá	5	Chacayá	5	Mayo	2023-05-25T00:00:00	2024-11-06T05:00:00	8	Radiación solar	0
97769	7	Sololá	702	San José Chacayá	5	Chacayá	5	Mayo	2023-05-25T00:00:00	2024-11-06T06:00:00	2	Temperatura media	11.4
97770	7	Sololá	702	San José Chacayá	5	Chacayá	5	Mayo	2023-05-25T00:00:00	2024-11-06T06:00:00	4	Temperatura máxima	11.7
97771	7	Sololá	702	San José Chacayá	5	Chacayá	5	Mayo	2023-05-25T00:00:00	2024-11-06T06:00:00	3	Temperatura mínima	11.3
97772	7	Sololá	702	San José Chacayá	5	Chacayá	5	Mayo	2023-05-25T00:00:00	2024-11-06T06:00:00	5	Humedad	80
97773	7	Sololá	702	San José Chacayá	5	Chacayá	5	Mayo	2023-05-25T00:00:00	2024-11-06T06:00:00	6	Velocidad del viento	3.2
97774	7	Sololá	702	San José Chacayá	5	Chacayá	5	Mayo	2023-05-25T00:00:00	2024-11-06T06:00:00	7	Dirección del viento	3.22
97775	7	Sololá	702	San José Chacayá	5	Chacayá	5	Mayo	2023-05-25T00:00:00	2024-11-06T06:00:00	1	Precipitación	0
97776	7	Sololá	702	San José Chacayá	5	Chacayá	5	Mayo	2023-05-25T00:00:00	2024-11-06T06:00:00	8	Radiación solar	0
97777	7	Sololá	702	San José Chacayá	5	Chacayá	5	Mayo	2023-05-25T00:00:00	2024-11-06T07:00:00	2	Temperatura media	11.4
97778	7	Sololá	702	San José Chacayá	5	Chacayá	5	Mayo	2023-05-25T00:00:00	2024-11-06T07:00:00	4	Temperatura máxima	11.4
97779	7	Sololá	702	San José Chacayá	5	Chacayá	5	Mayo	2023-05-25T00:00:00	2024-11-06T07:00:00	3	Temperatura mínima	11.1
97780	7	Sololá	702	San José Chacayá	5	Chacayá	5	Mayo	2023-05-25T00:00:00	2024-11-06T07:00:00	5	Humedad	81
97781	7	Sololá	702	San José Chacayá	5	Chacayá	5	Mayo	2023-05-25T00:00:00	2024-11-06T07:00:00	6	Velocidad del viento	3.2
97782	7	Sololá	702	San José Chacayá	5	Chacayá	5	Mayo	2023-05-25T00:00:00	2024-11-06T07:00:00	7	Dirección del viento	3.22
97783	7	Sololá	702	San José Chacayá	5	Chacayá	5	Mayo	2023-05-25T00:00:00	2024-11-06T07:00:00	1	Precipitación	0
97784	7	Sololá	702	San José Chacayá	5	Chacayá	5	Mayo	2023-05-25T00:00:00	2024-11-06T07:00:00	8	Radiación solar	12
97785	7	Sololá	702	San José Chacayá	5	Chacayá	5	Mayo	2023-05-25T00:00:00	2024-11-06T08:00:00	2	Temperatura media	13.4
97786	7	Sololá	702	San José Chacayá	5	Chacayá	5	Mayo	2023-05-25T00:00:00	2024-11-06T08:00:00	4	Temperatura máxima	13.4
97787	7	Sololá	702	San José Chacayá	5	Chacayá	5	Mayo	2023-05-25T00:00:00	2024-11-06T08:00:00	3	Temperatura mínima	11.3
97788	7	Sololá	702	San José Chacayá	5	Chacayá	5	Mayo	2023-05-25T00:00:00	2024-11-06T08:00:00	5	Humedad	83
97789	7	Sololá	702	San José Chacayá	5	Chacayá	5	Mayo	2023-05-25T00:00:00	2024-11-06T08:00:00	6	Velocidad del viento	3.2
97790	7	Sololá	702	San José Chacayá	5	Chacayá	5	Mayo	2023-05-25T00:00:00	2024-11-06T08:00:00	7	Dirección del viento	3.22
97791	7	Sololá	702	San José Chacayá	5	Chacayá	5	Mayo	2023-05-25T00:00:00	2024-11-06T08:00:00	1	Precipitación	0
97792	7	Sololá	702	San José Chacayá	5	Chacayá	5	Mayo	2023-05-25T00:00:00	2024-11-06T08:00:00	8	Radiación solar	77
97793	7	Sololá	702	San José Chacayá	5	Chacayá	5	Mayo	2023-05-25T00:00:00	2024-11-06T09:00:00	2	Temperatura media	17.3
97794	7	Sololá	702	San José Chacayá	5	Chacayá	5	Mayo	2023-05-25T00:00:00	2024-11-06T09:00:00	4	Temperatura máxima	17.3
97795	7	Sololá	702	San José Chacayá	5	Chacayá	5	Mayo	2023-05-25T00:00:00	2024-11-06T09:00:00	3	Temperatura mínima	13.4
97796	7	Sololá	702	San José Chacayá	5	Chacayá	5	Mayo	2023-05-25T00:00:00	2024-11-06T09:00:00	5	Humedad	66
97797	7	Sololá	702	San José Chacayá	5	Chacayá	5	Mayo	2023-05-25T00:00:00	2024-11-06T09:00:00	6	Velocidad del viento	1.6
97798	7	Sololá	702	San José Chacayá	5	Chacayá	5	Mayo	2023-05-25T00:00:00	2024-11-06T09:00:00	7	Dirección del viento	1.61
97799	7	Sololá	702	San José Chacayá	5	Chacayá	5	Mayo	2023-05-25T00:00:00	2024-11-06T09:00:00	1	Precipitación	0
97800	7	Sololá	702	San José Chacayá	5	Chacayá	5	Mayo	2023-05-25T00:00:00	2024-11-06T09:00:00	8	Radiación solar	122
97801	7	Sololá	702	San José Chacayá	5	Chacayá	5	Mayo	2023-05-25T00:00:00	2024-11-06T10:00:00	2	Temperatura media	20
97802	7	Sololá	702	San José Chacayá	5	Chacayá	5	Mayo	2023-05-25T00:00:00	2024-11-06T10:00:00	4	Temperatura máxima	20
97803	7	Sololá	702	San José Chacayá	5	Chacayá	5	Mayo	2023-05-25T00:00:00	2024-11-06T10:00:00	3	Temperatura mínima	17.3
97804	7	Sololá	702	San José Chacayá	5	Chacayá	5	Mayo	2023-05-25T00:00:00	2024-11-06T10:00:00	5	Humedad	62
97805	7	Sololá	702	San José Chacayá	5	Chacayá	5	Mayo	2023-05-25T00:00:00	2024-11-06T10:00:00	6	Velocidad del viento	4.8
97806	7	Sololá	702	San José Chacayá	5	Chacayá	5	Mayo	2023-05-25T00:00:00	2024-11-06T10:00:00	7	Dirección del viento	4.83
97807	7	Sololá	702	San José Chacayá	5	Chacayá	5	Mayo	2023-05-25T00:00:00	2024-11-06T10:00:00	1	Precipitación	0
97808	7	Sololá	702	San José Chacayá	5	Chacayá	5	Mayo	2023-05-25T00:00:00	2024-11-06T10:00:00	8	Radiación solar	449
97809	7	Sololá	702	San José Chacayá	5	Chacayá	5	Mayo	2023-05-25T00:00:00	2024-11-06T11:00:00	2	Temperatura media	21.8
97810	7	Sololá	702	San José Chacayá	5	Chacayá	5	Mayo	2023-05-25T00:00:00	2024-11-06T11:00:00	4	Temperatura máxima	21.8
97811	7	Sololá	702	San José Chacayá	5	Chacayá	5	Mayo	2023-05-25T00:00:00	2024-11-06T11:00:00	3	Temperatura mínima	20
97812	7	Sololá	702	San José Chacayá	5	Chacayá	5	Mayo	2023-05-25T00:00:00	2024-11-06T11:00:00	5	Humedad	57
97813	7	Sololá	702	San José Chacayá	5	Chacayá	5	Mayo	2023-05-25T00:00:00	2024-11-06T11:00:00	6	Velocidad del viento	4.8
97814	7	Sololá	702	San José Chacayá	5	Chacayá	5	Mayo	2023-05-25T00:00:00	2024-11-06T11:00:00	7	Dirección del viento	4.83
97815	7	Sololá	702	San José Chacayá	5	Chacayá	5	Mayo	2023-05-25T00:00:00	2024-11-06T11:00:00	1	Precipitación	0
97816	7	Sololá	702	San José Chacayá	5	Chacayá	5	Mayo	2023-05-25T00:00:00	2024-11-06T11:00:00	8	Radiación solar	765
97817	7	Sololá	702	San José Chacayá	5	Chacayá	5	Mayo	2023-05-25T00:00:00	2024-11-06T12:00:00	2	Temperatura media	22.4
97818	7	Sololá	702	San José Chacayá	5	Chacayá	5	Mayo	2023-05-25T00:00:00	2024-11-06T12:00:00	4	Temperatura máxima	22.4
97819	7	Sololá	702	San José Chacayá	5	Chacayá	5	Mayo	2023-05-25T00:00:00	2024-11-06T12:00:00	3	Temperatura mínima	21.8
97820	7	Sololá	702	San José Chacayá	5	Chacayá	5	Mayo	2023-05-25T00:00:00	2024-11-06T12:00:00	5	Humedad	54
97821	7	Sololá	702	San José Chacayá	5	Chacayá	5	Mayo	2023-05-25T00:00:00	2024-11-06T12:00:00	6	Velocidad del viento	4.8
97822	7	Sololá	702	San José Chacayá	5	Chacayá	5	Mayo	2023-05-25T00:00:00	2024-11-06T12:00:00	7	Dirección del viento	4.83
97823	7	Sololá	702	San José Chacayá	5	Chacayá	5	Mayo	2023-05-25T00:00:00	2024-11-06T12:00:00	1	Precipitación	0
97824	7	Sololá	702	San José Chacayá	5	Chacayá	5	Mayo	2023-05-25T00:00:00	2024-11-06T12:00:00	8	Radiación solar	873
97825	7	Sololá	702	San José Chacayá	5	Chacayá	5	Mayo	2023-05-25T00:00:00	2024-11-06T13:00:00	2	Temperatura media	22.9
97826	7	Sololá	702	San José Chacayá	5	Chacayá	5	Mayo	2023-05-25T00:00:00	2024-11-06T13:00:00	4	Temperatura máxima	22.9
97827	7	Sololá	702	San José Chacayá	5	Chacayá	5	Mayo	2023-05-25T00:00:00	2024-11-06T13:00:00	3	Temperatura mínima	22.1
97828	7	Sololá	702	San José Chacayá	5	Chacayá	5	Mayo	2023-05-25T00:00:00	2024-11-06T13:00:00	5	Humedad	58
97829	7	Sololá	702	San José Chacayá	5	Chacayá	5	Mayo	2023-05-25T00:00:00	2024-11-06T13:00:00	6	Velocidad del viento	4.8
97830	7	Sololá	702	San José Chacayá	5	Chacayá	5	Mayo	2023-05-25T00:00:00	2024-11-06T13:00:00	7	Dirección del viento	4.83
97831	7	Sololá	702	San José Chacayá	5	Chacayá	5	Mayo	2023-05-25T00:00:00	2024-11-06T13:00:00	1	Precipitación	0
97832	7	Sololá	702	San José Chacayá	5	Chacayá	5	Mayo	2023-05-25T00:00:00	2024-11-06T13:00:00	8	Radiación solar	893
97833	7	Sololá	702	San José Chacayá	5	Chacayá	5	Mayo	2023-05-25T00:00:00	2024-11-06T14:00:00	2	Temperatura media	20.1
97834	7	Sololá	702	San José Chacayá	5	Chacayá	5	Mayo	2023-05-25T00:00:00	2024-11-06T14:00:00	4	Temperatura máxima	21.3
97835	7	Sololá	702	San José Chacayá	5	Chacayá	5	Mayo	2023-05-25T00:00:00	2024-11-06T14:00:00	3	Temperatura mínima	19.9
97836	7	Sololá	702	San José Chacayá	5	Chacayá	5	Mayo	2023-05-25T00:00:00	2024-11-06T14:00:00	5	Humedad	76
97837	7	Sololá	702	San José Chacayá	5	Chacayá	5	Mayo	2023-05-25T00:00:00	2024-11-06T14:00:00	6	Velocidad del viento	3.2
97838	7	Sololá	702	San José Chacayá	5	Chacayá	5	Mayo	2023-05-25T00:00:00	2024-11-06T14:00:00	7	Dirección del viento	3.22
97839	7	Sololá	702	San José Chacayá	5	Chacayá	5	Mayo	2023-05-25T00:00:00	2024-11-06T14:00:00	1	Precipitación	0
97840	7	Sololá	702	San José Chacayá	5	Chacayá	5	Mayo	2023-05-25T00:00:00	2024-11-06T14:00:00	8	Radiación solar	271
97841	7	Sololá	702	San José Chacayá	5	Chacayá	5	Mayo	2023-05-25T00:00:00	2024-11-06T15:00:00	2	Temperatura media	18.9
97842	7	Sololá	702	San José Chacayá	5	Chacayá	5	Mayo	2023-05-25T00:00:00	2024-11-06T15:00:00	4	Temperatura máxima	21.1
97843	7	Sololá	702	San José Chacayá	5	Chacayá	5	Mayo	2023-05-25T00:00:00	2024-11-06T15:00:00	3	Temperatura mínima	18.9
97844	7	Sololá	702	San José Chacayá	5	Chacayá	5	Mayo	2023-05-25T00:00:00	2024-11-06T15:00:00	5	Humedad	80
97845	7	Sololá	702	San José Chacayá	5	Chacayá	5	Mayo	2023-05-25T00:00:00	2024-11-06T15:00:00	6	Velocidad del viento	3.2
97846	7	Sololá	702	San José Chacayá	5	Chacayá	5	Mayo	2023-05-25T00:00:00	2024-11-06T15:00:00	7	Dirección del viento	3.22
97847	7	Sololá	702	San José Chacayá	5	Chacayá	5	Mayo	2023-05-25T00:00:00	2024-11-06T15:00:00	1	Precipitación	0
97848	7	Sololá	702	San José Chacayá	5	Chacayá	5	Mayo	2023-05-25T00:00:00	2024-11-06T15:00:00	8	Radiación solar	212
97849	7	Sololá	702	San José Chacayá	5	Chacayá	5	Mayo	2023-05-25T00:00:00	2024-11-06T16:00:00	2	Temperatura media	18.6
97850	7	Sololá	702	San José Chacayá	5	Chacayá	5	Mayo	2023-05-25T00:00:00	2024-11-06T16:00:00	4	Temperatura máxima	19.2
97851	7	Sololá	702	San José Chacayá	5	Chacayá	5	Mayo	2023-05-25T00:00:00	2024-11-06T16:00:00	3	Temperatura mínima	18.3
97852	7	Sololá	702	San José Chacayá	5	Chacayá	5	Mayo	2023-05-25T00:00:00	2024-11-06T16:00:00	5	Humedad	82
97853	7	Sololá	702	San José Chacayá	5	Chacayá	5	Mayo	2023-05-25T00:00:00	2024-11-06T16:00:00	6	Velocidad del viento	3.2
97854	7	Sololá	702	San José Chacayá	5	Chacayá	5	Mayo	2023-05-25T00:00:00	2024-11-06T16:00:00	7	Dirección del viento	3.22
97855	7	Sololá	702	San José Chacayá	5	Chacayá	5	Mayo	2023-05-25T00:00:00	2024-11-06T16:00:00	1	Precipitación	0
97856	7	Sololá	702	San José Chacayá	5	Chacayá	5	Mayo	2023-05-25T00:00:00	2024-11-06T16:00:00	8	Radiación solar	116
97857	7	Sololá	702	San José Chacayá	5	Chacayá	5	Mayo	2023-05-25T00:00:00	2024-11-06T17:00:00	2	Temperatura media	17.5
97858	7	Sololá	702	San José Chacayá	5	Chacayá	5	Mayo	2023-05-25T00:00:00	2024-11-06T17:00:00	4	Temperatura máxima	18.7
97859	7	Sololá	702	San José Chacayá	5	Chacayá	5	Mayo	2023-05-25T00:00:00	2024-11-06T17:00:00	3	Temperatura mínima	17.5
97860	7	Sololá	702	San José Chacayá	5	Chacayá	5	Mayo	2023-05-25T00:00:00	2024-11-06T17:00:00	5	Humedad	82
97861	7	Sololá	702	San José Chacayá	5	Chacayá	5	Mayo	2023-05-25T00:00:00	2024-11-06T17:00:00	6	Velocidad del viento	3.2
97862	7	Sololá	702	San José Chacayá	5	Chacayá	5	Mayo	2023-05-25T00:00:00	2024-11-06T17:00:00	7	Dirección del viento	3.22
97863	7	Sololá	702	San José Chacayá	5	Chacayá	5	Mayo	2023-05-25T00:00:00	2024-11-06T17:00:00	1	Precipitación	0
97864	7	Sololá	702	San José Chacayá	5	Chacayá	5	Mayo	2023-05-25T00:00:00	2024-11-06T17:00:00	8	Radiación solar	42
97865	7	Sololá	702	San José Chacayá	5	Chacayá	5	Mayo	2023-05-25T00:00:00	2024-11-06T18:00:00	2	Temperatura media	15.4
97866	7	Sololá	702	San José Chacayá	5	Chacayá	5	Mayo	2023-05-25T00:00:00	2024-11-06T18:00:00	4	Temperatura máxima	17.5
97867	7	Sololá	702	San José Chacayá	5	Chacayá	5	Mayo	2023-05-25T00:00:00	2024-11-06T18:00:00	3	Temperatura mínima	15.3
97868	7	Sololá	702	San José Chacayá	5	Chacayá	5	Mayo	2023-05-25T00:00:00	2024-11-06T18:00:00	5	Humedad	71
97869	7	Sololá	702	San José Chacayá	5	Chacayá	5	Mayo	2023-05-25T00:00:00	2024-11-06T18:00:00	6	Velocidad del viento	1.6
97870	7	Sololá	702	San José Chacayá	5	Chacayá	5	Mayo	2023-05-25T00:00:00	2024-11-06T18:00:00	7	Dirección del viento	1.61
97871	7	Sololá	702	San José Chacayá	5	Chacayá	5	Mayo	2023-05-25T00:00:00	2024-11-06T18:00:00	1	Precipitación	10.8
97872	7	Sololá	702	San José Chacayá	5	Chacayá	5	Mayo	2023-05-25T00:00:00	2024-11-06T18:00:00	8	Radiación solar	1
97873	7	Sololá	702	San José Chacayá	5	Chacayá	5	Mayo	2023-05-25T00:00:00	2024-11-06T19:00:00	2	Temperatura media	15.6
97874	7	Sololá	702	San José Chacayá	5	Chacayá	5	Mayo	2023-05-25T00:00:00	2024-11-06T19:00:00	4	Temperatura máxima	15.6
97875	7	Sololá	702	San José Chacayá	5	Chacayá	5	Mayo	2023-05-25T00:00:00	2024-11-06T19:00:00	3	Temperatura mínima	15.3
97876	7	Sololá	702	San José Chacayá	5	Chacayá	5	Mayo	2023-05-25T00:00:00	2024-11-06T19:00:00	5	Humedad	59
97877	7	Sololá	702	San José Chacayá	5	Chacayá	5	Mayo	2023-05-25T00:00:00	2024-11-06T19:00:00	6	Velocidad del viento	0
97878	7	Sololá	702	San José Chacayá	5	Chacayá	5	Mayo	2023-05-25T00:00:00	2024-11-06T19:00:00	7	Dirección del viento	0
97879	7	Sololá	702	San José Chacayá	5	Chacayá	5	Mayo	2023-05-25T00:00:00	2024-11-06T19:00:00	1	Precipitación	0
97880	7	Sololá	702	San José Chacayá	5	Chacayá	5	Mayo	2023-05-25T00:00:00	2024-11-06T19:00:00	8	Radiación solar	0
97881	7	Sololá	702	San José Chacayá	5	Chacayá	5	Mayo	2023-05-25T00:00:00	2024-11-06T20:00:00	2	Temperatura media	15.4
97882	7	Sololá	702	San José Chacayá	5	Chacayá	5	Mayo	2023-05-25T00:00:00	2024-11-06T20:00:00	4	Temperatura máxima	15.6
97883	7	Sololá	702	San José Chacayá	5	Chacayá	5	Mayo	2023-05-25T00:00:00	2024-11-06T20:00:00	3	Temperatura mínima	15.3
97884	7	Sololá	702	San José Chacayá	5	Chacayá	5	Mayo	2023-05-25T00:00:00	2024-11-06T20:00:00	5	Humedad	54
97885	7	Sololá	702	San José Chacayá	5	Chacayá	5	Mayo	2023-05-25T00:00:00	2024-11-06T20:00:00	6	Velocidad del viento	0
97886	7	Sololá	702	San José Chacayá	5	Chacayá	5	Mayo	2023-05-25T00:00:00	2024-11-06T20:00:00	7	Dirección del viento	0
97887	7	Sololá	702	San José Chacayá	5	Chacayá	5	Mayo	2023-05-25T00:00:00	2024-11-06T20:00:00	1	Precipitación	0
97888	7	Sololá	702	San José Chacayá	5	Chacayá	5	Mayo	2023-05-25T00:00:00	2024-11-06T20:00:00	8	Radiación solar	0
97889	7	Sololá	702	San José Chacayá	5	Chacayá	5	Mayo	2023-05-25T00:00:00	2024-11-06T21:00:00	2	Temperatura media	15.2
97890	7	Sololá	702	San José Chacayá	5	Chacayá	5	Mayo	2023-05-25T00:00:00	2024-11-06T21:00:00	4	Temperatura máxima	15.4
97891	7	Sololá	702	San José Chacayá	5	Chacayá	5	Mayo	2023-05-25T00:00:00	2024-11-06T21:00:00	3	Temperatura mínima	15.2
97892	7	Sololá	702	San José Chacayá	5	Chacayá	5	Mayo	2023-05-25T00:00:00	2024-11-06T21:00:00	5	Humedad	49
97893	7	Sololá	702	San José Chacayá	5	Chacayá	5	Mayo	2023-05-25T00:00:00	2024-11-06T21:00:00	6	Velocidad del viento	0
97894	7	Sololá	702	San José Chacayá	5	Chacayá	5	Mayo	2023-05-25T00:00:00	2024-11-06T21:00:00	7	Dirección del viento	0
97895	7	Sololá	702	San José Chacayá	5	Chacayá	5	Mayo	2023-05-25T00:00:00	2024-11-06T21:00:00	1	Precipitación	0
97896	7	Sololá	702	San José Chacayá	5	Chacayá	5	Mayo	2023-05-25T00:00:00	2024-11-06T21:00:00	8	Radiación solar	0
97897	7	Sololá	702	San José Chacayá	5	Chacayá	5	Mayo	2023-05-25T00:00:00	2024-11-06T22:00:00	2	Temperatura media	15.1
97898	7	Sololá	702	San José Chacayá	5	Chacayá	5	Mayo	2023-05-25T00:00:00	2024-11-06T22:00:00	4	Temperatura máxima	15.2
97899	7	Sololá	702	San José Chacayá	5	Chacayá	5	Mayo	2023-05-25T00:00:00	2024-11-06T22:00:00	3	Temperatura mínima	15.1
97900	7	Sololá	702	San José Chacayá	5	Chacayá	5	Mayo	2023-05-25T00:00:00	2024-11-06T22:00:00	5	Humedad	46
97901	7	Sololá	702	San José Chacayá	5	Chacayá	5	Mayo	2023-05-25T00:00:00	2024-11-06T22:00:00	6	Velocidad del viento	0
97902	7	Sololá	702	San José Chacayá	5	Chacayá	5	Mayo	2023-05-25T00:00:00	2024-11-06T22:00:00	7	Dirección del viento	0
97903	7	Sololá	702	San José Chacayá	5	Chacayá	5	Mayo	2023-05-25T00:00:00	2024-11-06T22:00:00	1	Precipitación	0
97904	7	Sololá	702	San José Chacayá	5	Chacayá	5	Mayo	2023-05-25T00:00:00	2024-11-06T22:00:00	8	Radiación solar	0
97905	7	Sololá	702	San José Chacayá	5	Chacayá	5	Mayo	2023-05-25T00:00:00	2024-11-06T23:00:00	2	Temperatura media	13.9
97906	7	Sololá	702	San José Chacayá	5	Chacayá	5	Mayo	2023-05-25T00:00:00	2024-11-06T23:00:00	4	Temperatura máxima	15.1
97907	7	Sololá	702	San José Chacayá	5	Chacayá	5	Mayo	2023-05-25T00:00:00	2024-11-06T23:00:00	3	Temperatura mínima	13.9
97908	7	Sololá	702	San José Chacayá	5	Chacayá	5	Mayo	2023-05-25T00:00:00	2024-11-06T23:00:00	5	Humedad	51
97909	7	Sololá	702	San José Chacayá	5	Chacayá	5	Mayo	2023-05-25T00:00:00	2024-11-06T23:00:00	6	Velocidad del viento	0
97910	7	Sololá	702	San José Chacayá	5	Chacayá	5	Mayo	2023-05-25T00:00:00	2024-11-06T23:00:00	7	Dirección del viento	0
97911	7	Sololá	702	San José Chacayá	5	Chacayá	5	Mayo	2023-05-25T00:00:00	2024-11-06T23:00:00	1	Precipitación	0
97912	7	Sololá	702	San José Chacayá	5	Chacayá	5	Mayo	2023-05-25T00:00:00	2024-11-06T23:00:00	8	Radiación solar	0
97913	7	Sololá	702	San José Chacayá	5	Chacayá	5	Mayo	2023-05-26T00:00:00	2024-11-06T00:00:00	2	Temperatura media	13.6
97914	7	Sololá	702	San José Chacayá	5	Chacayá	5	Mayo	2023-05-26T00:00:00	2024-11-06T00:00:00	4	Temperatura máxima	13.9
97915	7	Sololá	702	San José Chacayá	5	Chacayá	5	Mayo	2023-05-26T00:00:00	2024-11-06T00:00:00	3	Temperatura mínima	13.6
97916	7	Sololá	702	San José Chacayá	5	Chacayá	5	Mayo	2023-05-26T00:00:00	2024-11-06T00:00:00	5	Humedad	49
97917	7	Sololá	702	San José Chacayá	5	Chacayá	5	Mayo	2023-05-26T00:00:00	2024-11-06T00:00:00	6	Velocidad del viento	1.6
97918	7	Sololá	702	San José Chacayá	5	Chacayá	5	Mayo	2023-05-26T00:00:00	2024-11-06T00:00:00	7	Dirección del viento	1.61
97919	7	Sololá	702	San José Chacayá	5	Chacayá	5	Mayo	2023-05-26T00:00:00	2024-11-06T00:00:00	1	Precipitación	0
97920	7	Sololá	702	San José Chacayá	5	Chacayá	5	Mayo	2023-05-26T00:00:00	2024-11-06T00:00:00	8	Radiación solar	0
97921	7	Sololá	702	San José Chacayá	5	Chacayá	5	Mayo	2023-05-26T00:00:00	2024-11-06T01:00:00	2	Temperatura media	13
97922	7	Sololá	702	San José Chacayá	5	Chacayá	5	Mayo	2023-05-26T00:00:00	2024-11-06T01:00:00	4	Temperatura máxima	13.6
97923	7	Sololá	702	San José Chacayá	5	Chacayá	5	Mayo	2023-05-26T00:00:00	2024-11-06T01:00:00	3	Temperatura mínima	13
97924	7	Sololá	702	San José Chacayá	5	Chacayá	5	Mayo	2023-05-26T00:00:00	2024-11-06T01:00:00	5	Humedad	59
97925	7	Sololá	702	San José Chacayá	5	Chacayá	5	Mayo	2023-05-26T00:00:00	2024-11-06T01:00:00	6	Velocidad del viento	1.6
97926	7	Sololá	702	San José Chacayá	5	Chacayá	5	Mayo	2023-05-26T00:00:00	2024-11-06T01:00:00	7	Dirección del viento	1.61
97927	7	Sololá	702	San José Chacayá	5	Chacayá	5	Mayo	2023-05-26T00:00:00	2024-11-06T01:00:00	1	Precipitación	0
97928	7	Sololá	702	San José Chacayá	5	Chacayá	5	Mayo	2023-05-26T00:00:00	2024-11-06T01:00:00	8	Radiación solar	0
97929	7	Sololá	702	San José Chacayá	5	Chacayá	5	Mayo	2023-05-26T00:00:00	2024-11-06T02:00:00	2	Temperatura media	12.4
97930	7	Sololá	702	San José Chacayá	5	Chacayá	5	Mayo	2023-05-26T00:00:00	2024-11-06T02:00:00	4	Temperatura máxima	13
97931	7	Sololá	702	San José Chacayá	5	Chacayá	5	Mayo	2023-05-26T00:00:00	2024-11-06T02:00:00	3	Temperatura mínima	12.4
97932	7	Sololá	702	San José Chacayá	5	Chacayá	5	Mayo	2023-05-26T00:00:00	2024-11-06T02:00:00	5	Humedad	63
97933	7	Sololá	702	San José Chacayá	5	Chacayá	5	Mayo	2023-05-26T00:00:00	2024-11-06T02:00:00	6	Velocidad del viento	1.6
97934	7	Sololá	702	San José Chacayá	5	Chacayá	5	Mayo	2023-05-26T00:00:00	2024-11-06T02:00:00	7	Dirección del viento	1.61
97935	7	Sololá	702	San José Chacayá	5	Chacayá	5	Mayo	2023-05-26T00:00:00	2024-11-06T02:00:00	1	Precipitación	0
97936	7	Sololá	702	San José Chacayá	5	Chacayá	5	Mayo	2023-05-26T00:00:00	2024-11-06T02:00:00	8	Radiación solar	0
97937	7	Sololá	702	San José Chacayá	5	Chacayá	5	Mayo	2023-05-26T00:00:00	2024-11-06T03:00:00	2	Temperatura media	11.9
97938	7	Sololá	702	San José Chacayá	5	Chacayá	5	Mayo	2023-05-26T00:00:00	2024-11-06T03:00:00	4	Temperatura máxima	12.4
97939	7	Sololá	702	San José Chacayá	5	Chacayá	5	Mayo	2023-05-26T00:00:00	2024-11-06T03:00:00	3	Temperatura mínima	11.8
97940	7	Sololá	702	San José Chacayá	5	Chacayá	5	Mayo	2023-05-26T00:00:00	2024-11-06T03:00:00	5	Humedad	60
97941	7	Sololá	702	San José Chacayá	5	Chacayá	5	Mayo	2023-05-26T00:00:00	2024-11-06T03:00:00	6	Velocidad del viento	1.6
97942	7	Sololá	702	San José Chacayá	5	Chacayá	5	Mayo	2023-05-26T00:00:00	2024-11-06T03:00:00	7	Dirección del viento	1.61
97943	7	Sololá	702	San José Chacayá	5	Chacayá	5	Mayo	2023-05-26T00:00:00	2024-11-06T03:00:00	1	Precipitación	0
97944	7	Sololá	702	San José Chacayá	5	Chacayá	5	Mayo	2023-05-26T00:00:00	2024-11-06T03:00:00	8	Radiación solar	0
97945	7	Sololá	702	San José Chacayá	5	Chacayá	5	Mayo	2023-05-26T00:00:00	2024-11-06T04:00:00	2	Temperatura media	11.3
97946	7	Sololá	702	San José Chacayá	5	Chacayá	5	Mayo	2023-05-26T00:00:00	2024-11-06T04:00:00	4	Temperatura máxima	11.9
97947	7	Sololá	702	San José Chacayá	5	Chacayá	5	Mayo	2023-05-26T00:00:00	2024-11-06T04:00:00	3	Temperatura mínima	11.3
97948	7	Sololá	702	San José Chacayá	5	Chacayá	5	Mayo	2023-05-26T00:00:00	2024-11-06T04:00:00	5	Humedad	66
97949	7	Sololá	702	San José Chacayá	5	Chacayá	5	Mayo	2023-05-26T00:00:00	2024-11-06T04:00:00	6	Velocidad del viento	3.2
97950	7	Sololá	702	San José Chacayá	5	Chacayá	5	Mayo	2023-05-26T00:00:00	2024-11-06T04:00:00	7	Dirección del viento	3.22
97951	7	Sololá	702	San José Chacayá	5	Chacayá	5	Mayo	2023-05-26T00:00:00	2024-11-06T04:00:00	1	Precipitación	0
97952	7	Sololá	702	San José Chacayá	5	Chacayá	5	Mayo	2023-05-26T00:00:00	2024-11-06T04:00:00	8	Radiación solar	0
97953	7	Sololá	702	San José Chacayá	5	Chacayá	5	Mayo	2023-05-26T00:00:00	2024-11-06T05:00:00	2	Temperatura media	11
97954	7	Sololá	702	San José Chacayá	5	Chacayá	5	Mayo	2023-05-26T00:00:00	2024-11-06T05:00:00	4	Temperatura máxima	11.3
97955	7	Sololá	702	San José Chacayá	5	Chacayá	5	Mayo	2023-05-26T00:00:00	2024-11-06T05:00:00	3	Temperatura mínima	11
97956	7	Sololá	702	San José Chacayá	5	Chacayá	5	Mayo	2023-05-26T00:00:00	2024-11-06T05:00:00	5	Humedad	71
97957	7	Sololá	702	San José Chacayá	5	Chacayá	5	Mayo	2023-05-26T00:00:00	2024-11-06T05:00:00	6	Velocidad del viento	3.2
97958	7	Sololá	702	San José Chacayá	5	Chacayá	5	Mayo	2023-05-26T00:00:00	2024-11-06T05:00:00	7	Dirección del viento	3.22
97959	7	Sololá	702	San José Chacayá	5	Chacayá	5	Mayo	2023-05-26T00:00:00	2024-11-06T05:00:00	1	Precipitación	0
97960	7	Sololá	702	San José Chacayá	5	Chacayá	5	Mayo	2023-05-26T00:00:00	2024-11-06T05:00:00	8	Radiación solar	0
97961	7	Sololá	702	San José Chacayá	5	Chacayá	5	Mayo	2023-05-26T00:00:00	2024-11-06T06:00:00	2	Temperatura media	10.8
97962	7	Sololá	702	San José Chacayá	5	Chacayá	5	Mayo	2023-05-26T00:00:00	2024-11-06T06:00:00	4	Temperatura máxima	11
97963	7	Sololá	702	San José Chacayá	5	Chacayá	5	Mayo	2023-05-26T00:00:00	2024-11-06T06:00:00	3	Temperatura mínima	10.6
97964	7	Sololá	702	San José Chacayá	5	Chacayá	5	Mayo	2023-05-26T00:00:00	2024-11-06T06:00:00	5	Humedad	62
97965	7	Sololá	702	San José Chacayá	5	Chacayá	5	Mayo	2023-05-26T00:00:00	2024-11-06T06:00:00	6	Velocidad del viento	1.6
97966	7	Sololá	702	San José Chacayá	5	Chacayá	5	Mayo	2023-05-26T00:00:00	2024-11-06T06:00:00	7	Dirección del viento	1.61
97967	7	Sololá	702	San José Chacayá	5	Chacayá	5	Mayo	2023-05-26T00:00:00	2024-11-06T06:00:00	1	Precipitación	0
97968	7	Sololá	702	San José Chacayá	5	Chacayá	5	Mayo	2023-05-26T00:00:00	2024-11-06T06:00:00	8	Radiación solar	6
97969	7	Sololá	702	San José Chacayá	5	Chacayá	5	Mayo	2023-05-26T00:00:00	2024-11-06T07:00:00	2	Temperatura media	12.6
97970	7	Sololá	702	San José Chacayá	5	Chacayá	5	Mayo	2023-05-26T00:00:00	2024-11-06T07:00:00	4	Temperatura máxima	12.6
97971	7	Sololá	702	San José Chacayá	5	Chacayá	5	Mayo	2023-05-26T00:00:00	2024-11-06T07:00:00	3	Temperatura mínima	10.8
97972	7	Sololá	702	San José Chacayá	5	Chacayá	5	Mayo	2023-05-26T00:00:00	2024-11-06T07:00:00	5	Humedad	50
97973	7	Sololá	702	San José Chacayá	5	Chacayá	5	Mayo	2023-05-26T00:00:00	2024-11-06T07:00:00	6	Velocidad del viento	1.6
97974	7	Sololá	702	San José Chacayá	5	Chacayá	5	Mayo	2023-05-26T00:00:00	2024-11-06T07:00:00	7	Dirección del viento	1.61
97975	7	Sololá	702	San José Chacayá	5	Chacayá	5	Mayo	2023-05-26T00:00:00	2024-11-06T07:00:00	1	Precipitación	0.2
97976	7	Sololá	702	San José Chacayá	5	Chacayá	5	Mayo	2023-05-26T00:00:00	2024-11-06T07:00:00	8	Radiación solar	86
97977	7	Sololá	702	San José Chacayá	5	Chacayá	5	Mayo	2023-05-26T00:00:00	2024-11-06T08:00:00	2	Temperatura media	14.7
97978	7	Sololá	702	San José Chacayá	5	Chacayá	5	Mayo	2023-05-26T00:00:00	2024-11-06T08:00:00	4	Temperatura máxima	14.7
97979	7	Sololá	702	San José Chacayá	5	Chacayá	5	Mayo	2023-05-26T00:00:00	2024-11-06T08:00:00	3	Temperatura mínima	12.7
97980	7	Sololá	702	San José Chacayá	5	Chacayá	5	Mayo	2023-05-26T00:00:00	2024-11-06T08:00:00	5	Humedad	71
97981	7	Sololá	702	San José Chacayá	5	Chacayá	5	Mayo	2023-05-26T00:00:00	2024-11-06T08:00:00	6	Velocidad del viento	0
97982	7	Sololá	702	San José Chacayá	5	Chacayá	5	Mayo	2023-05-26T00:00:00	2024-11-06T08:00:00	7	Dirección del viento	0
97983	7	Sololá	702	San José Chacayá	5	Chacayá	5	Mayo	2023-05-26T00:00:00	2024-11-06T08:00:00	1	Precipitación	0
97984	7	Sololá	702	San José Chacayá	5	Chacayá	5	Mayo	2023-05-26T00:00:00	2024-11-06T08:00:00	8	Radiación solar	175
97985	7	Sololá	702	San José Chacayá	5	Chacayá	5	Mayo	2023-05-26T00:00:00	2024-11-06T09:00:00	2	Temperatura media	17.3
97986	7	Sololá	702	San José Chacayá	5	Chacayá	5	Mayo	2023-05-26T00:00:00	2024-11-06T09:00:00	4	Temperatura máxima	17.3
97987	7	Sololá	702	San José Chacayá	5	Chacayá	5	Mayo	2023-05-26T00:00:00	2024-11-06T09:00:00	3	Temperatura mínima	14.8
97988	7	Sololá	702	San José Chacayá	5	Chacayá	5	Mayo	2023-05-26T00:00:00	2024-11-06T09:00:00	5	Humedad	76
97989	7	Sololá	702	San José Chacayá	5	Chacayá	5	Mayo	2023-05-26T00:00:00	2024-11-06T09:00:00	6	Velocidad del viento	1.6
97990	7	Sololá	702	San José Chacayá	5	Chacayá	5	Mayo	2023-05-26T00:00:00	2024-11-06T09:00:00	7	Dirección del viento	1.61
97991	7	Sololá	702	San José Chacayá	5	Chacayá	5	Mayo	2023-05-26T00:00:00	2024-11-06T09:00:00	1	Precipitación	0
97992	7	Sololá	702	San José Chacayá	5	Chacayá	5	Mayo	2023-05-26T00:00:00	2024-11-06T09:00:00	8	Radiación solar	343
97993	7	Sololá	702	San José Chacayá	5	Chacayá	5	Mayo	2023-05-26T00:00:00	2024-11-06T10:00:00	2	Temperatura media	18.1
97994	7	Sololá	702	San José Chacayá	5	Chacayá	5	Mayo	2023-05-26T00:00:00	2024-11-06T10:00:00	4	Temperatura máxima	18.4
97995	7	Sololá	702	San José Chacayá	5	Chacayá	5	Mayo	2023-05-26T00:00:00	2024-11-06T10:00:00	3	Temperatura mínima	17.3
97996	7	Sololá	702	San José Chacayá	5	Chacayá	5	Mayo	2023-05-26T00:00:00	2024-11-06T10:00:00	5	Humedad	77
97997	7	Sololá	702	San José Chacayá	5	Chacayá	5	Mayo	2023-05-26T00:00:00	2024-11-06T10:00:00	6	Velocidad del viento	3.2
97998	7	Sololá	702	San José Chacayá	5	Chacayá	5	Mayo	2023-05-26T00:00:00	2024-11-06T10:00:00	7	Dirección del viento	3.22
97999	7	Sololá	702	San José Chacayá	5	Chacayá	5	Mayo	2023-05-26T00:00:00	2024-11-06T10:00:00	1	Precipitación	0
98000	7	Sololá	702	San José Chacayá	5	Chacayá	5	Mayo	2023-05-26T00:00:00	2024-11-06T10:00:00	8	Radiación solar	408
98001	7	Sololá	702	San José Chacayá	5	Chacayá	5	Mayo	2023-05-26T00:00:00	2024-11-06T11:00:00	2	Temperatura media	20.3
98002	7	Sololá	702	San José Chacayá	5	Chacayá	5	Mayo	2023-05-26T00:00:00	2024-11-06T11:00:00	4	Temperatura máxima	20.3
98003	7	Sololá	702	San José Chacayá	5	Chacayá	5	Mayo	2023-05-26T00:00:00	2024-11-06T11:00:00	3	Temperatura mínima	18.1
98004	7	Sololá	702	San José Chacayá	5	Chacayá	5	Mayo	2023-05-26T00:00:00	2024-11-06T11:00:00	5	Humedad	70
98005	7	Sololá	702	San José Chacayá	5	Chacayá	5	Mayo	2023-05-26T00:00:00	2024-11-06T11:00:00	6	Velocidad del viento	4.8
98006	7	Sololá	702	San José Chacayá	5	Chacayá	5	Mayo	2023-05-26T00:00:00	2024-11-06T11:00:00	7	Dirección del viento	4.83
98007	7	Sololá	702	San José Chacayá	5	Chacayá	5	Mayo	2023-05-26T00:00:00	2024-11-06T11:00:00	1	Precipitación	0
98008	7	Sololá	702	San José Chacayá	5	Chacayá	5	Mayo	2023-05-26T00:00:00	2024-11-06T11:00:00	8	Radiación solar	726
98009	7	Sololá	702	San José Chacayá	5	Chacayá	5	Mayo	2023-05-26T00:00:00	2024-11-06T12:00:00	2	Temperatura media	20.2
98010	7	Sololá	702	San José Chacayá	5	Chacayá	5	Mayo	2023-05-26T00:00:00	2024-11-06T12:00:00	4	Temperatura máxima	20.4
98011	7	Sololá	702	San José Chacayá	5	Chacayá	5	Mayo	2023-05-26T00:00:00	2024-11-06T12:00:00	3	Temperatura mínima	19.9
98012	7	Sololá	702	San José Chacayá	5	Chacayá	5	Mayo	2023-05-26T00:00:00	2024-11-06T12:00:00	5	Humedad	71
98013	7	Sololá	702	San José Chacayá	5	Chacayá	5	Mayo	2023-05-26T00:00:00	2024-11-06T12:00:00	6	Velocidad del viento	6.4
98014	7	Sololá	702	San José Chacayá	5	Chacayá	5	Mayo	2023-05-26T00:00:00	2024-11-06T12:00:00	7	Dirección del viento	6.44
98015	7	Sololá	702	San José Chacayá	5	Chacayá	5	Mayo	2023-05-26T00:00:00	2024-11-06T12:00:00	1	Precipitación	0
98016	7	Sololá	702	San José Chacayá	5	Chacayá	5	Mayo	2023-05-26T00:00:00	2024-11-06T12:00:00	8	Radiación solar	690
98017	7	Sololá	702	San José Chacayá	5	Chacayá	5	Mayo	2023-05-26T00:00:00	2024-11-06T13:00:00	2	Temperatura media	20.9
98018	7	Sololá	702	San José Chacayá	5	Chacayá	5	Mayo	2023-05-26T00:00:00	2024-11-06T13:00:00	4	Temperatura máxima	20.9
98019	7	Sololá	702	San José Chacayá	5	Chacayá	5	Mayo	2023-05-26T00:00:00	2024-11-06T13:00:00	3	Temperatura mínima	20.1
98020	7	Sololá	702	San José Chacayá	5	Chacayá	5	Mayo	2023-05-26T00:00:00	2024-11-06T13:00:00	5	Humedad	70
98021	7	Sololá	702	San José Chacayá	5	Chacayá	5	Mayo	2023-05-26T00:00:00	2024-11-06T13:00:00	6	Velocidad del viento	6.4
98022	7	Sololá	702	San José Chacayá	5	Chacayá	5	Mayo	2023-05-26T00:00:00	2024-11-06T13:00:00	7	Dirección del viento	6.44
98023	7	Sololá	702	San José Chacayá	5	Chacayá	5	Mayo	2023-05-26T00:00:00	2024-11-06T13:00:00	1	Precipitación	0
98024	7	Sololá	702	San José Chacayá	5	Chacayá	5	Mayo	2023-05-26T00:00:00	2024-11-06T13:00:00	8	Radiación solar	879
98025	7	Sololá	702	San José Chacayá	5	Chacayá	5	Mayo	2023-05-26T00:00:00	2024-11-06T14:00:00	2	Temperatura media	20.6
98026	7	Sololá	702	San José Chacayá	5	Chacayá	5	Mayo	2023-05-26T00:00:00	2024-11-06T14:00:00	4	Temperatura máxima	21.3
98027	7	Sololá	702	San José Chacayá	5	Chacayá	5	Mayo	2023-05-26T00:00:00	2024-11-06T14:00:00	3	Temperatura mínima	20.4
98028	7	Sololá	702	San José Chacayá	5	Chacayá	5	Mayo	2023-05-26T00:00:00	2024-11-06T14:00:00	5	Humedad	70
98029	7	Sololá	702	San José Chacayá	5	Chacayá	5	Mayo	2023-05-26T00:00:00	2024-11-06T14:00:00	6	Velocidad del viento	6.4
98030	7	Sololá	702	San José Chacayá	5	Chacayá	5	Mayo	2023-05-26T00:00:00	2024-11-06T14:00:00	7	Dirección del viento	6.44
98031	7	Sololá	702	San José Chacayá	5	Chacayá	5	Mayo	2023-05-26T00:00:00	2024-11-06T14:00:00	1	Precipitación	0
98032	7	Sololá	702	San José Chacayá	5	Chacayá	5	Mayo	2023-05-26T00:00:00	2024-11-06T14:00:00	8	Radiación solar	832
98033	7	Sololá	702	San José Chacayá	5	Chacayá	5	Mayo	2023-05-26T00:00:00	2024-11-06T15:00:00	2	Temperatura media	21.1
98034	7	Sololá	702	San José Chacayá	5	Chacayá	5	Mayo	2023-05-26T00:00:00	2024-11-06T15:00:00	4	Temperatura máxima	21.1
98035	7	Sololá	702	San José Chacayá	5	Chacayá	5	Mayo	2023-05-26T00:00:00	2024-11-06T15:00:00	3	Temperatura mínima	20.2
98036	7	Sololá	702	San José Chacayá	5	Chacayá	5	Mayo	2023-05-26T00:00:00	2024-11-06T15:00:00	5	Humedad	69
98037	7	Sololá	702	San José Chacayá	5	Chacayá	5	Mayo	2023-05-26T00:00:00	2024-11-06T15:00:00	6	Velocidad del viento	4.8
98038	7	Sololá	702	San José Chacayá	5	Chacayá	5	Mayo	2023-05-26T00:00:00	2024-11-06T15:00:00	7	Dirección del viento	4.83
98039	7	Sololá	702	San José Chacayá	5	Chacayá	5	Mayo	2023-05-26T00:00:00	2024-11-06T15:00:00	1	Precipitación	0
98040	7	Sololá	702	San José Chacayá	5	Chacayá	5	Mayo	2023-05-26T00:00:00	2024-11-06T15:00:00	8	Radiación solar	445
98041	7	Sololá	702	San José Chacayá	5	Chacayá	5	Mayo	2023-05-26T00:00:00	2024-11-06T16:00:00	2	Temperatura media	19.9
98042	7	Sololá	702	San José Chacayá	5	Chacayá	5	Mayo	2023-05-26T00:00:00	2024-11-06T16:00:00	4	Temperatura máxima	21.2
98043	7	Sololá	702	San José Chacayá	5	Chacayá	5	Mayo	2023-05-26T00:00:00	2024-11-06T16:00:00	3	Temperatura mínima	19.9
98044	7	Sololá	702	San José Chacayá	5	Chacayá	5	Mayo	2023-05-26T00:00:00	2024-11-06T16:00:00	5	Humedad	74
98045	7	Sololá	702	San José Chacayá	5	Chacayá	5	Mayo	2023-05-26T00:00:00	2024-11-06T16:00:00	6	Velocidad del viento	4.8
98046	7	Sololá	702	San José Chacayá	5	Chacayá	5	Mayo	2023-05-26T00:00:00	2024-11-06T16:00:00	7	Dirección del viento	4.83
98047	7	Sololá	702	San José Chacayá	5	Chacayá	5	Mayo	2023-05-26T00:00:00	2024-11-06T16:00:00	1	Precipitación	0
98048	7	Sololá	702	San José Chacayá	5	Chacayá	5	Mayo	2023-05-26T00:00:00	2024-11-06T16:00:00	8	Radiación solar	388
98049	7	Sololá	702	San José Chacayá	5	Chacayá	5	Mayo	2023-05-26T00:00:00	2024-11-06T17:00:00	2	Temperatura media	17.9
98050	7	Sololá	702	San José Chacayá	5	Chacayá	5	Mayo	2023-05-26T00:00:00	2024-11-06T17:00:00	4	Temperatura máxima	19.8
98051	7	Sololá	702	San José Chacayá	5	Chacayá	5	Mayo	2023-05-26T00:00:00	2024-11-06T17:00:00	3	Temperatura mínima	17.9
98052	7	Sololá	702	San José Chacayá	5	Chacayá	5	Mayo	2023-05-26T00:00:00	2024-11-06T17:00:00	5	Humedad	81
98053	7	Sololá	702	San José Chacayá	5	Chacayá	5	Mayo	2023-05-26T00:00:00	2024-11-06T17:00:00	6	Velocidad del viento	3.2
98054	7	Sololá	702	San José Chacayá	5	Chacayá	5	Mayo	2023-05-26T00:00:00	2024-11-06T17:00:00	7	Dirección del viento	3.22
98055	7	Sololá	702	San José Chacayá	5	Chacayá	5	Mayo	2023-05-26T00:00:00	2024-11-06T17:00:00	1	Precipitación	0
98056	7	Sololá	702	San José Chacayá	5	Chacayá	5	Mayo	2023-05-26T00:00:00	2024-11-06T17:00:00	8	Radiación solar	87
98057	7	Sololá	702	San José Chacayá	5	Chacayá	5	Mayo	2023-05-26T00:00:00	2024-11-06T18:00:00	2	Temperatura media	17.1
98058	7	Sololá	702	San José Chacayá	5	Chacayá	5	Mayo	2023-05-26T00:00:00	2024-11-06T18:00:00	4	Temperatura máxima	17.9
98059	7	Sololá	702	San José Chacayá	5	Chacayá	5	Mayo	2023-05-26T00:00:00	2024-11-06T18:00:00	3	Temperatura mínima	17.1
98060	7	Sololá	702	San José Chacayá	5	Chacayá	5	Mayo	2023-05-26T00:00:00	2024-11-06T18:00:00	5	Humedad	78
98061	7	Sololá	702	San José Chacayá	5	Chacayá	5	Mayo	2023-05-26T00:00:00	2024-11-06T18:00:00	6	Velocidad del viento	1.6
98062	7	Sololá	702	San José Chacayá	5	Chacayá	5	Mayo	2023-05-26T00:00:00	2024-11-06T18:00:00	7	Dirección del viento	1.61
98063	7	Sololá	702	San José Chacayá	5	Chacayá	5	Mayo	2023-05-26T00:00:00	2024-11-06T18:00:00	1	Precipitación	0
98064	7	Sololá	702	San José Chacayá	5	Chacayá	5	Mayo	2023-05-26T00:00:00	2024-11-06T18:00:00	8	Radiación solar	21
98065	7	Sololá	702	San José Chacayá	5	Chacayá	5	Mayo	2023-05-26T00:00:00	2024-11-06T19:00:00	2	Temperatura media	16.6
98066	7	Sololá	702	San José Chacayá	5	Chacayá	5	Mayo	2023-05-26T00:00:00	2024-11-06T19:00:00	4	Temperatura máxima	17.1
98067	7	Sololá	702	San José Chacayá	5	Chacayá	5	Mayo	2023-05-26T00:00:00	2024-11-06T19:00:00	3	Temperatura mínima	16.6
98068	7	Sololá	702	San José Chacayá	5	Chacayá	5	Mayo	2023-05-26T00:00:00	2024-11-06T19:00:00	5	Humedad	71
98069	7	Sololá	702	San José Chacayá	5	Chacayá	5	Mayo	2023-05-26T00:00:00	2024-11-06T19:00:00	6	Velocidad del viento	0
98070	7	Sololá	702	San José Chacayá	5	Chacayá	5	Mayo	2023-05-26T00:00:00	2024-11-06T19:00:00	7	Dirección del viento	0
98071	7	Sololá	702	San José Chacayá	5	Chacayá	5	Mayo	2023-05-26T00:00:00	2024-11-06T19:00:00	1	Precipitación	0
98072	7	Sololá	702	San José Chacayá	5	Chacayá	5	Mayo	2023-05-26T00:00:00	2024-11-06T19:00:00	8	Radiación solar	0
98073	7	Sololá	702	San José Chacayá	5	Chacayá	5	Mayo	2023-05-26T00:00:00	2024-11-06T20:00:00	2	Temperatura media	15.6
98074	7	Sololá	702	San José Chacayá	5	Chacayá	5	Mayo	2023-05-26T00:00:00	2024-11-06T20:00:00	4	Temperatura máxima	16.6
98075	7	Sololá	702	San José Chacayá	5	Chacayá	5	Mayo	2023-05-26T00:00:00	2024-11-06T20:00:00	3	Temperatura mínima	15.6
98076	7	Sololá	702	San José Chacayá	5	Chacayá	5	Mayo	2023-05-26T00:00:00	2024-11-06T20:00:00	5	Humedad	71
98077	7	Sololá	702	San José Chacayá	5	Chacayá	5	Mayo	2023-05-26T00:00:00	2024-11-06T20:00:00	6	Velocidad del viento	0
98078	7	Sololá	702	San José Chacayá	5	Chacayá	5	Mayo	2023-05-26T00:00:00	2024-11-06T20:00:00	7	Dirección del viento	0
98079	7	Sololá	702	San José Chacayá	5	Chacayá	5	Mayo	2023-05-26T00:00:00	2024-11-06T20:00:00	1	Precipitación	0
98080	7	Sololá	702	San José Chacayá	5	Chacayá	5	Mayo	2023-05-26T00:00:00	2024-11-06T20:00:00	8	Radiación solar	0
98081	7	Sololá	702	San José Chacayá	5	Chacayá	5	Mayo	2023-05-26T00:00:00	2024-11-06T21:00:00	2	Temperatura media	14.6
98082	7	Sololá	702	San José Chacayá	5	Chacayá	5	Mayo	2023-05-26T00:00:00	2024-11-06T21:00:00	4	Temperatura máxima	15.6
98083	7	Sololá	702	San José Chacayá	5	Chacayá	5	Mayo	2023-05-26T00:00:00	2024-11-06T21:00:00	3	Temperatura mínima	14.6
98084	7	Sololá	702	San José Chacayá	5	Chacayá	5	Mayo	2023-05-26T00:00:00	2024-11-06T21:00:00	5	Humedad	78
98085	7	Sololá	702	San José Chacayá	5	Chacayá	5	Mayo	2023-05-26T00:00:00	2024-11-06T21:00:00	6	Velocidad del viento	1.6
98086	7	Sololá	702	San José Chacayá	5	Chacayá	5	Mayo	2023-05-26T00:00:00	2024-11-06T21:00:00	7	Dirección del viento	1.61
98087	7	Sololá	702	San José Chacayá	5	Chacayá	5	Mayo	2023-05-26T00:00:00	2024-11-06T21:00:00	1	Precipitación	0
98088	7	Sololá	702	San José Chacayá	5	Chacayá	5	Mayo	2023-05-26T00:00:00	2024-11-06T21:00:00	8	Radiación solar	0
98089	7	Sololá	702	San José Chacayá	5	Chacayá	5	Mayo	2023-05-26T00:00:00	2024-11-06T22:00:00	2	Temperatura media	13.6
98090	7	Sololá	702	San José Chacayá	5	Chacayá	5	Mayo	2023-05-26T00:00:00	2024-11-06T22:00:00	4	Temperatura máxima	14.6
98091	7	Sololá	702	San José Chacayá	5	Chacayá	5	Mayo	2023-05-26T00:00:00	2024-11-06T22:00:00	3	Temperatura mínima	13.6
98092	7	Sololá	702	San José Chacayá	5	Chacayá	5	Mayo	2023-05-26T00:00:00	2024-11-06T22:00:00	5	Humedad	79
98093	7	Sololá	702	San José Chacayá	5	Chacayá	5	Mayo	2023-05-26T00:00:00	2024-11-06T22:00:00	6	Velocidad del viento	1.6
98094	7	Sololá	702	San José Chacayá	5	Chacayá	5	Mayo	2023-05-26T00:00:00	2024-11-06T22:00:00	7	Dirección del viento	1.61
98095	7	Sololá	702	San José Chacayá	5	Chacayá	5	Mayo	2023-05-26T00:00:00	2024-11-06T22:00:00	1	Precipitación	0
98096	7	Sololá	702	San José Chacayá	5	Chacayá	5	Mayo	2023-05-26T00:00:00	2024-11-06T22:00:00	8	Radiación solar	0
98097	7	Sololá	702	San José Chacayá	5	Chacayá	5	Mayo	2023-05-26T00:00:00	2024-11-06T23:00:00	2	Temperatura media	12.6
98098	7	Sololá	702	San José Chacayá	5	Chacayá	5	Mayo	2023-05-26T00:00:00	2024-11-06T23:00:00	4	Temperatura máxima	13.6
98099	7	Sololá	702	San José Chacayá	5	Chacayá	5	Mayo	2023-05-26T00:00:00	2024-11-06T23:00:00	3	Temperatura mínima	12.5
98100	7	Sololá	702	San José Chacayá	5	Chacayá	5	Mayo	2023-05-26T00:00:00	2024-11-06T23:00:00	5	Humedad	76
98101	7	Sololá	702	San José Chacayá	5	Chacayá	5	Mayo	2023-05-26T00:00:00	2024-11-06T23:00:00	6	Velocidad del viento	1.6
98102	7	Sololá	702	San José Chacayá	5	Chacayá	5	Mayo	2023-05-26T00:00:00	2024-11-06T23:00:00	7	Dirección del viento	1.61
98103	7	Sololá	702	San José Chacayá	5	Chacayá	5	Mayo	2023-05-26T00:00:00	2024-11-06T23:00:00	1	Precipitación	0
98104	7	Sololá	702	San José Chacayá	5	Chacayá	5	Mayo	2023-05-26T00:00:00	2024-11-06T23:00:00	8	Radiación solar	0
98105	7	Sololá	702	San José Chacayá	5	Chacayá	5	Mayo	2023-05-27T00:00:00	2024-11-06T00:00:00	2	Temperatura media	11.7
98106	7	Sololá	702	San José Chacayá	5	Chacayá	5	Mayo	2023-05-27T00:00:00	2024-11-06T00:00:00	4	Temperatura máxima	12.6
98107	7	Sololá	702	San José Chacayá	5	Chacayá	5	Mayo	2023-05-27T00:00:00	2024-11-06T00:00:00	3	Temperatura mínima	11.7
98108	7	Sololá	702	San José Chacayá	5	Chacayá	5	Mayo	2023-05-27T00:00:00	2024-11-06T00:00:00	5	Humedad	74
98109	7	Sololá	702	San José Chacayá	5	Chacayá	5	Mayo	2023-05-27T00:00:00	2024-11-06T00:00:00	6	Velocidad del viento	1.6
98110	7	Sololá	702	San José Chacayá	5	Chacayá	5	Mayo	2023-05-27T00:00:00	2024-11-06T00:00:00	7	Dirección del viento	1.61
98111	7	Sololá	702	San José Chacayá	5	Chacayá	5	Mayo	2023-05-27T00:00:00	2024-11-06T00:00:00	1	Precipitación	0
98112	7	Sololá	702	San José Chacayá	5	Chacayá	5	Mayo	2023-05-27T00:00:00	2024-11-06T00:00:00	8	Radiación solar	0
98113	7	Sololá	702	San José Chacayá	5	Chacayá	5	Mayo	2023-05-27T00:00:00	2024-11-06T01:00:00	2	Temperatura media	11.4
98114	7	Sololá	702	San José Chacayá	5	Chacayá	5	Mayo	2023-05-27T00:00:00	2024-11-06T01:00:00	4	Temperatura máxima	11.7
98115	7	Sololá	702	San José Chacayá	5	Chacayá	5	Mayo	2023-05-27T00:00:00	2024-11-06T01:00:00	3	Temperatura mínima	11.4
98116	7	Sololá	702	San José Chacayá	5	Chacayá	5	Mayo	2023-05-27T00:00:00	2024-11-06T01:00:00	5	Humedad	74
98117	7	Sololá	702	San José Chacayá	5	Chacayá	5	Mayo	2023-05-27T00:00:00	2024-11-06T01:00:00	6	Velocidad del viento	1.6
98118	7	Sololá	702	San José Chacayá	5	Chacayá	5	Mayo	2023-05-27T00:00:00	2024-11-06T01:00:00	7	Dirección del viento	1.61
98119	7	Sololá	702	San José Chacayá	5	Chacayá	5	Mayo	2023-05-27T00:00:00	2024-11-06T01:00:00	1	Precipitación	0
98120	7	Sololá	702	San José Chacayá	5	Chacayá	5	Mayo	2023-05-27T00:00:00	2024-11-06T01:00:00	8	Radiación solar	0
98121	7	Sololá	702	San José Chacayá	5	Chacayá	5	Mayo	2023-05-27T00:00:00	2024-11-06T02:00:00	2	Temperatura media	10.7
98122	7	Sololá	702	San José Chacayá	5	Chacayá	5	Mayo	2023-05-27T00:00:00	2024-11-06T02:00:00	4	Temperatura máxima	11.4
98123	7	Sololá	702	San José Chacayá	5	Chacayá	5	Mayo	2023-05-27T00:00:00	2024-11-06T02:00:00	3	Temperatura mínima	10.7
98124	7	Sololá	702	San José Chacayá	5	Chacayá	5	Mayo	2023-05-27T00:00:00	2024-11-06T02:00:00	5	Humedad	82
98125	7	Sololá	702	San José Chacayá	5	Chacayá	5	Mayo	2023-05-27T00:00:00	2024-11-06T02:00:00	6	Velocidad del viento	3.2
98126	7	Sololá	702	San José Chacayá	5	Chacayá	5	Mayo	2023-05-27T00:00:00	2024-11-06T02:00:00	7	Dirección del viento	3.22
98127	7	Sololá	702	San José Chacayá	5	Chacayá	5	Mayo	2023-05-27T00:00:00	2024-11-06T02:00:00	1	Precipitación	0
98128	7	Sololá	702	San José Chacayá	5	Chacayá	5	Mayo	2023-05-27T00:00:00	2024-11-06T02:00:00	8	Radiación solar	0
98129	7	Sololá	702	San José Chacayá	5	Chacayá	5	Mayo	2023-05-27T00:00:00	2024-11-06T03:00:00	2	Temperatura media	10.1
98130	7	Sololá	702	San José Chacayá	5	Chacayá	5	Mayo	2023-05-27T00:00:00	2024-11-06T03:00:00	4	Temperatura máxima	10.7
98131	7	Sololá	702	San José Chacayá	5	Chacayá	5	Mayo	2023-05-27T00:00:00	2024-11-06T03:00:00	3	Temperatura mínima	10.1
98132	7	Sololá	702	San José Chacayá	5	Chacayá	5	Mayo	2023-05-27T00:00:00	2024-11-06T03:00:00	5	Humedad	82
98133	7	Sololá	702	San José Chacayá	5	Chacayá	5	Mayo	2023-05-27T00:00:00	2024-11-06T03:00:00	6	Velocidad del viento	3.2
98134	7	Sololá	702	San José Chacayá	5	Chacayá	5	Mayo	2023-05-27T00:00:00	2024-11-06T03:00:00	7	Dirección del viento	3.22
98135	7	Sololá	702	San José Chacayá	5	Chacayá	5	Mayo	2023-05-27T00:00:00	2024-11-06T03:00:00	1	Precipitación	0
98136	7	Sololá	702	San José Chacayá	5	Chacayá	5	Mayo	2023-05-27T00:00:00	2024-11-06T03:00:00	8	Radiación solar	0
98137	7	Sololá	702	San José Chacayá	5	Chacayá	5	Mayo	2023-05-27T00:00:00	2024-11-06T04:00:00	2	Temperatura media	10
98138	7	Sololá	702	San José Chacayá	5	Chacayá	5	Mayo	2023-05-27T00:00:00	2024-11-06T04:00:00	4	Temperatura máxima	10.2
98139	7	Sololá	702	San José Chacayá	5	Chacayá	5	Mayo	2023-05-27T00:00:00	2024-11-06T04:00:00	3	Temperatura mínima	9.9
98140	7	Sololá	702	San José Chacayá	5	Chacayá	5	Mayo	2023-05-27T00:00:00	2024-11-06T04:00:00	5	Humedad	83
98141	7	Sololá	702	San José Chacayá	5	Chacayá	5	Mayo	2023-05-27T00:00:00	2024-11-06T04:00:00	6	Velocidad del viento	4.8
98142	7	Sololá	702	San José Chacayá	5	Chacayá	5	Mayo	2023-05-27T00:00:00	2024-11-06T04:00:00	7	Dirección del viento	4.83
98143	7	Sololá	702	San José Chacayá	5	Chacayá	5	Mayo	2023-05-27T00:00:00	2024-11-06T04:00:00	1	Precipitación	0
98144	7	Sololá	702	San José Chacayá	5	Chacayá	5	Mayo	2023-05-27T00:00:00	2024-11-06T04:00:00	8	Radiación solar	0
98145	7	Sololá	702	San José Chacayá	5	Chacayá	5	Mayo	2023-05-27T00:00:00	2024-11-06T05:00:00	2	Temperatura media	10.3
98146	7	Sololá	702	San José Chacayá	5	Chacayá	5	Mayo	2023-05-27T00:00:00	2024-11-06T05:00:00	4	Temperatura máxima	10.3
98147	7	Sololá	702	San José Chacayá	5	Chacayá	5	Mayo	2023-05-27T00:00:00	2024-11-06T05:00:00	3	Temperatura mínima	10
98148	7	Sololá	702	San José Chacayá	5	Chacayá	5	Mayo	2023-05-27T00:00:00	2024-11-06T05:00:00	5	Humedad	80
98149	7	Sololá	702	San José Chacayá	5	Chacayá	5	Mayo	2023-05-27T00:00:00	2024-11-06T05:00:00	6	Velocidad del viento	1.6
98150	7	Sololá	702	San José Chacayá	5	Chacayá	5	Mayo	2023-05-27T00:00:00	2024-11-06T05:00:00	7	Dirección del viento	1.61
98151	7	Sololá	702	San José Chacayá	5	Chacayá	5	Mayo	2023-05-27T00:00:00	2024-11-06T05:00:00	1	Precipitación	0
98152	7	Sololá	702	San José Chacayá	5	Chacayá	5	Mayo	2023-05-27T00:00:00	2024-11-06T05:00:00	8	Radiación solar	0
98153	7	Sololá	702	San José Chacayá	5	Chacayá	5	Mayo	2023-05-27T00:00:00	2024-11-06T06:00:00	2	Temperatura media	10.5
98154	7	Sololá	702	San José Chacayá	5	Chacayá	5	Mayo	2023-05-27T00:00:00	2024-11-06T06:00:00	4	Temperatura máxima	10.6
98155	7	Sololá	702	San José Chacayá	5	Chacayá	5	Mayo	2023-05-27T00:00:00	2024-11-06T06:00:00	3	Temperatura mínima	10.3
98156	7	Sololá	702	San José Chacayá	5	Chacayá	5	Mayo	2023-05-27T00:00:00	2024-11-06T06:00:00	5	Humedad	79
98157	7	Sololá	702	San José Chacayá	5	Chacayá	5	Mayo	2023-05-27T00:00:00	2024-11-06T06:00:00	6	Velocidad del viento	3.2
98158	7	Sololá	702	San José Chacayá	5	Chacayá	5	Mayo	2023-05-27T00:00:00	2024-11-06T06:00:00	7	Dirección del viento	3.22
98159	7	Sololá	702	San José Chacayá	5	Chacayá	5	Mayo	2023-05-27T00:00:00	2024-11-06T06:00:00	1	Precipitación	0
98160	7	Sololá	702	San José Chacayá	5	Chacayá	5	Mayo	2023-05-27T00:00:00	2024-11-06T06:00:00	8	Radiación solar	6
98161	7	Sololá	702	San José Chacayá	5	Chacayá	5	Mayo	2023-05-27T00:00:00	2024-11-06T07:00:00	2	Temperatura media	12.2
98162	7	Sololá	702	San José Chacayá	5	Chacayá	5	Mayo	2023-05-27T00:00:00	2024-11-06T07:00:00	4	Temperatura máxima	12.2
98163	7	Sololá	702	San José Chacayá	5	Chacayá	5	Mayo	2023-05-27T00:00:00	2024-11-06T07:00:00	3	Temperatura mínima	10.5
98164	7	Sololá	702	San José Chacayá	5	Chacayá	5	Mayo	2023-05-27T00:00:00	2024-11-06T07:00:00	5	Humedad	82
98165	7	Sololá	702	San José Chacayá	5	Chacayá	5	Mayo	2023-05-27T00:00:00	2024-11-06T07:00:00	6	Velocidad del viento	3.2
98166	7	Sololá	702	San José Chacayá	5	Chacayá	5	Mayo	2023-05-27T00:00:00	2024-11-06T07:00:00	7	Dirección del viento	3.22
98167	7	Sololá	702	San José Chacayá	5	Chacayá	5	Mayo	2023-05-27T00:00:00	2024-11-06T07:00:00	1	Precipitación	0
98168	7	Sololá	702	San José Chacayá	5	Chacayá	5	Mayo	2023-05-27T00:00:00	2024-11-06T07:00:00	8	Radiación solar	82
98169	7	Sololá	702	San José Chacayá	5	Chacayá	5	Mayo	2023-05-27T00:00:00	2024-11-06T08:00:00	2	Temperatura media	15.4
98170	7	Sololá	702	San José Chacayá	5	Chacayá	5	Mayo	2023-05-27T00:00:00	2024-11-06T08:00:00	4	Temperatura máxima	15.4
98171	7	Sololá	702	San José Chacayá	5	Chacayá	5	Mayo	2023-05-27T00:00:00	2024-11-06T08:00:00	3	Temperatura mínima	12.2
98172	7	Sololá	702	San José Chacayá	5	Chacayá	5	Mayo	2023-05-27T00:00:00	2024-11-06T08:00:00	5	Humedad	80
98173	7	Sololá	702	San José Chacayá	5	Chacayá	5	Mayo	2023-05-27T00:00:00	2024-11-06T08:00:00	6	Velocidad del viento	1.6
98174	7	Sololá	702	San José Chacayá	5	Chacayá	5	Mayo	2023-05-27T00:00:00	2024-11-06T08:00:00	7	Dirección del viento	1.61
98175	7	Sololá	702	San José Chacayá	5	Chacayá	5	Mayo	2023-05-27T00:00:00	2024-11-06T08:00:00	1	Precipitación	0
98176	7	Sololá	702	San José Chacayá	5	Chacayá	5	Mayo	2023-05-27T00:00:00	2024-11-06T08:00:00	8	Radiación solar	194
98177	7	Sololá	702	San José Chacayá	5	Chacayá	5	Mayo	2023-05-27T00:00:00	2024-11-06T09:00:00	2	Temperatura media	16.9
98178	7	Sololá	702	San José Chacayá	5	Chacayá	5	Mayo	2023-05-27T00:00:00	2024-11-06T09:00:00	4	Temperatura máxima	16.9
98179	7	Sololá	702	San José Chacayá	5	Chacayá	5	Mayo	2023-05-27T00:00:00	2024-11-06T09:00:00	3	Temperatura mínima	15.4
98180	7	Sololá	702	San José Chacayá	5	Chacayá	5	Mayo	2023-05-27T00:00:00	2024-11-06T09:00:00	5	Humedad	76
98181	7	Sololá	702	San José Chacayá	5	Chacayá	5	Mayo	2023-05-27T00:00:00	2024-11-06T09:00:00	6	Velocidad del viento	0
98182	7	Sololá	702	San José Chacayá	5	Chacayá	5	Mayo	2023-05-27T00:00:00	2024-11-06T09:00:00	7	Dirección del viento	0
98183	7	Sololá	702	San José Chacayá	5	Chacayá	5	Mayo	2023-05-27T00:00:00	2024-11-06T09:00:00	1	Precipitación	0
98184	7	Sololá	702	San José Chacayá	5	Chacayá	5	Mayo	2023-05-27T00:00:00	2024-11-06T09:00:00	8	Radiación solar	192
98185	7	Sololá	702	San José Chacayá	5	Chacayá	5	Mayo	2023-05-27T00:00:00	2024-11-06T10:00:00	2	Temperatura media	18.1
98186	7	Sololá	702	San José Chacayá	5	Chacayá	5	Mayo	2023-05-27T00:00:00	2024-11-06T10:00:00	4	Temperatura máxima	18.2
98187	7	Sololá	702	San José Chacayá	5	Chacayá	5	Mayo	2023-05-27T00:00:00	2024-11-06T10:00:00	3	Temperatura mínima	16.9
98188	7	Sololá	702	San José Chacayá	5	Chacayá	5	Mayo	2023-05-27T00:00:00	2024-11-06T10:00:00	5	Humedad	60
98189	7	Sololá	702	San José Chacayá	5	Chacayá	5	Mayo	2023-05-27T00:00:00	2024-11-06T10:00:00	6	Velocidad del viento	1.6
98190	7	Sololá	702	San José Chacayá	5	Chacayá	5	Mayo	2023-05-27T00:00:00	2024-11-06T10:00:00	7	Dirección del viento	1.61
98191	7	Sololá	702	San José Chacayá	5	Chacayá	5	Mayo	2023-05-27T00:00:00	2024-11-06T10:00:00	1	Precipitación	0
98192	7	Sololá	702	San José Chacayá	5	Chacayá	5	Mayo	2023-05-27T00:00:00	2024-11-06T10:00:00	8	Radiación solar	297
98193	7	Sololá	702	San José Chacayá	5	Chacayá	5	Mayo	2023-05-27T00:00:00	2024-11-06T11:00:00	2	Temperatura media	20.3
98194	7	Sololá	702	San José Chacayá	5	Chacayá	5	Mayo	2023-05-27T00:00:00	2024-11-06T11:00:00	4	Temperatura máxima	20.4
98195	7	Sololá	702	San José Chacayá	5	Chacayá	5	Mayo	2023-05-27T00:00:00	2024-11-06T11:00:00	3	Temperatura mínima	18.1
98196	7	Sololá	702	San José Chacayá	5	Chacayá	5	Mayo	2023-05-27T00:00:00	2024-11-06T11:00:00	5	Humedad	48
98197	7	Sololá	702	San José Chacayá	5	Chacayá	5	Mayo	2023-05-27T00:00:00	2024-11-06T11:00:00	6	Velocidad del viento	1.6
98198	7	Sololá	702	San José Chacayá	5	Chacayá	5	Mayo	2023-05-27T00:00:00	2024-11-06T11:00:00	7	Dirección del viento	1.61
98199	7	Sololá	702	San José Chacayá	5	Chacayá	5	Mayo	2023-05-27T00:00:00	2024-11-06T11:00:00	1	Precipitación	0
98200	7	Sololá	702	San José Chacayá	5	Chacayá	5	Mayo	2023-05-27T00:00:00	2024-11-06T11:00:00	8	Radiación solar	541
98201	7	Sololá	702	San José Chacayá	5	Chacayá	5	Mayo	2023-05-27T00:00:00	2024-11-06T12:00:00	2	Temperatura media	21.1
98202	7	Sololá	702	San José Chacayá	5	Chacayá	5	Mayo	2023-05-27T00:00:00	2024-11-06T12:00:00	4	Temperatura máxima	21.4
98203	7	Sololá	702	San José Chacayá	5	Chacayá	5	Mayo	2023-05-27T00:00:00	2024-11-06T12:00:00	3	Temperatura mínima	20.3
98204	7	Sololá	702	San José Chacayá	5	Chacayá	5	Mayo	2023-05-27T00:00:00	2024-11-06T12:00:00	5	Humedad	59
98205	7	Sololá	702	San José Chacayá	5	Chacayá	5	Mayo	2023-05-27T00:00:00	2024-11-06T12:00:00	6	Velocidad del viento	4.8
98206	7	Sololá	702	San José Chacayá	5	Chacayá	5	Mayo	2023-05-27T00:00:00	2024-11-06T12:00:00	7	Dirección del viento	4.83
98207	7	Sololá	702	San José Chacayá	5	Chacayá	5	Mayo	2023-05-27T00:00:00	2024-11-06T12:00:00	1	Precipitación	0
98208	7	Sololá	702	San José Chacayá	5	Chacayá	5	Mayo	2023-05-27T00:00:00	2024-11-06T12:00:00	8	Radiación solar	925
98209	7	Sololá	702	San José Chacayá	5	Chacayá	5	Mayo	2023-05-27T00:00:00	2024-11-06T13:00:00	2	Temperatura media	20.2
98210	7	Sololá	702	San José Chacayá	5	Chacayá	5	Mayo	2023-05-27T00:00:00	2024-11-06T13:00:00	4	Temperatura máxima	21.2
98211	7	Sololá	702	San José Chacayá	5	Chacayá	5	Mayo	2023-05-27T00:00:00	2024-11-06T13:00:00	3	Temperatura mínima	19.9
98212	7	Sololá	702	San José Chacayá	5	Chacayá	5	Mayo	2023-05-27T00:00:00	2024-11-06T13:00:00	5	Humedad	58
98213	7	Sololá	702	San José Chacayá	5	Chacayá	5	Mayo	2023-05-27T00:00:00	2024-11-06T13:00:00	6	Velocidad del viento	8
98214	7	Sololá	702	San José Chacayá	5	Chacayá	5	Mayo	2023-05-27T00:00:00	2024-11-06T13:00:00	7	Dirección del viento	8.05
98215	7	Sololá	702	San José Chacayá	5	Chacayá	5	Mayo	2023-05-27T00:00:00	2024-11-06T13:00:00	1	Precipitación	0
98216	7	Sololá	702	San José Chacayá	5	Chacayá	5	Mayo	2023-05-27T00:00:00	2024-11-06T13:00:00	8	Radiación solar	747
98217	7	Sololá	702	San José Chacayá	5	Chacayá	5	Mayo	2023-05-27T00:00:00	2024-11-06T14:00:00	2	Temperatura media	19.5
98218	7	Sololá	702	San José Chacayá	5	Chacayá	5	Mayo	2023-05-27T00:00:00	2024-11-06T14:00:00	4	Temperatura máxima	20.8
98219	7	Sololá	702	San José Chacayá	5	Chacayá	5	Mayo	2023-05-27T00:00:00	2024-11-06T14:00:00	3	Temperatura mínima	19.4
98220	7	Sololá	702	San José Chacayá	5	Chacayá	5	Mayo	2023-05-27T00:00:00	2024-11-06T14:00:00	5	Humedad	71
98221	7	Sololá	702	San José Chacayá	5	Chacayá	5	Mayo	2023-05-27T00:00:00	2024-11-06T14:00:00	6	Velocidad del viento	4.8
98222	7	Sololá	702	San José Chacayá	5	Chacayá	5	Mayo	2023-05-27T00:00:00	2024-11-06T14:00:00	7	Dirección del viento	4.83
98223	7	Sololá	702	San José Chacayá	5	Chacayá	5	Mayo	2023-05-27T00:00:00	2024-11-06T14:00:00	1	Precipitación	0
98224	7	Sololá	702	San José Chacayá	5	Chacayá	5	Mayo	2023-05-27T00:00:00	2024-11-06T14:00:00	8	Radiación solar	448
98225	7	Sololá	702	San José Chacayá	5	Chacayá	5	Mayo	2023-05-27T00:00:00	2024-11-06T15:00:00	2	Temperatura media	19.4
98226	7	Sololá	702	San José Chacayá	5	Chacayá	5	Mayo	2023-05-27T00:00:00	2024-11-06T15:00:00	4	Temperatura máxima	20.3
98227	7	Sololá	702	San José Chacayá	5	Chacayá	5	Mayo	2023-05-27T00:00:00	2024-11-06T15:00:00	3	Temperatura mínima	19.4
98228	7	Sololá	702	San José Chacayá	5	Chacayá	5	Mayo	2023-05-27T00:00:00	2024-11-06T15:00:00	5	Humedad	73
98229	7	Sololá	702	San José Chacayá	5	Chacayá	5	Mayo	2023-05-27T00:00:00	2024-11-06T15:00:00	6	Velocidad del viento	4.8
98230	7	Sololá	702	San José Chacayá	5	Chacayá	5	Mayo	2023-05-27T00:00:00	2024-11-06T15:00:00	7	Dirección del viento	4.83
98231	7	Sololá	702	San José Chacayá	5	Chacayá	5	Mayo	2023-05-27T00:00:00	2024-11-06T15:00:00	1	Precipitación	0
98232	7	Sololá	702	San José Chacayá	5	Chacayá	5	Mayo	2023-05-27T00:00:00	2024-11-06T15:00:00	8	Radiación solar	422
98233	7	Sololá	702	San José Chacayá	5	Chacayá	5	Mayo	2023-05-27T00:00:00	2024-11-06T16:00:00	2	Temperatura media	19.4
98234	7	Sololá	702	San José Chacayá	5	Chacayá	5	Mayo	2023-05-27T00:00:00	2024-11-06T16:00:00	4	Temperatura máxima	19.5
98235	7	Sololá	702	San José Chacayá	5	Chacayá	5	Mayo	2023-05-27T00:00:00	2024-11-06T16:00:00	3	Temperatura mínima	19.1
98236	7	Sololá	702	San José Chacayá	5	Chacayá	5	Mayo	2023-05-27T00:00:00	2024-11-06T16:00:00	5	Humedad	71
98237	7	Sololá	702	San José Chacayá	5	Chacayá	5	Mayo	2023-05-27T00:00:00	2024-11-06T16:00:00	6	Velocidad del viento	3.2
98238	7	Sololá	702	San José Chacayá	5	Chacayá	5	Mayo	2023-05-27T00:00:00	2024-11-06T16:00:00	7	Dirección del viento	3.22
98239	7	Sololá	702	San José Chacayá	5	Chacayá	5	Mayo	2023-05-27T00:00:00	2024-11-06T16:00:00	1	Precipitación	0
98240	7	Sololá	702	San José Chacayá	5	Chacayá	5	Mayo	2023-05-27T00:00:00	2024-11-06T16:00:00	8	Radiación solar	339
98241	7	Sololá	702	San José Chacayá	5	Chacayá	5	Mayo	2023-05-27T00:00:00	2024-11-06T17:00:00	2	Temperatura media	18.1
98242	7	Sololá	702	San José Chacayá	5	Chacayá	5	Mayo	2023-05-27T00:00:00	2024-11-06T17:00:00	4	Temperatura máxima	19.6
98243	7	Sololá	702	San José Chacayá	5	Chacayá	5	Mayo	2023-05-27T00:00:00	2024-11-06T17:00:00	3	Temperatura mínima	18.1
98244	7	Sololá	702	San José Chacayá	5	Chacayá	5	Mayo	2023-05-27T00:00:00	2024-11-06T17:00:00	5	Humedad	81
98245	7	Sololá	702	San José Chacayá	5	Chacayá	5	Mayo	2023-05-27T00:00:00	2024-11-06T17:00:00	6	Velocidad del viento	4.8
98246	7	Sololá	702	San José Chacayá	5	Chacayá	5	Mayo	2023-05-27T00:00:00	2024-11-06T17:00:00	7	Dirección del viento	4.83
98247	7	Sololá	702	San José Chacayá	5	Chacayá	5	Mayo	2023-05-27T00:00:00	2024-11-06T17:00:00	1	Precipitación	0
98248	7	Sololá	702	San José Chacayá	5	Chacayá	5	Mayo	2023-05-27T00:00:00	2024-11-06T17:00:00	8	Radiación solar	281
98249	7	Sololá	702	San José Chacayá	5	Chacayá	5	Mayo	2023-05-27T00:00:00	2024-11-06T18:00:00	2	Temperatura media	17.3
98250	7	Sololá	702	San José Chacayá	5	Chacayá	5	Mayo	2023-05-27T00:00:00	2024-11-06T18:00:00	4	Temperatura máxima	18.1
98251	7	Sololá	702	San José Chacayá	5	Chacayá	5	Mayo	2023-05-27T00:00:00	2024-11-06T18:00:00	3	Temperatura mínima	17.3
98252	7	Sololá	702	San José Chacayá	5	Chacayá	5	Mayo	2023-05-27T00:00:00	2024-11-06T18:00:00	5	Humedad	81
98253	7	Sololá	702	San José Chacayá	5	Chacayá	5	Mayo	2023-05-27T00:00:00	2024-11-06T18:00:00	6	Velocidad del viento	3.2
98254	7	Sololá	702	San José Chacayá	5	Chacayá	5	Mayo	2023-05-27T00:00:00	2024-11-06T18:00:00	7	Dirección del viento	3.22
98255	7	Sololá	702	San José Chacayá	5	Chacayá	5	Mayo	2023-05-27T00:00:00	2024-11-06T18:00:00	1	Precipitación	0
98256	7	Sololá	702	San José Chacayá	5	Chacayá	5	Mayo	2023-05-27T00:00:00	2024-11-06T18:00:00	8	Radiación solar	75
98257	7	Sololá	702	San José Chacayá	5	Chacayá	5	Mayo	2023-05-27T00:00:00	2024-11-06T19:00:00	2	Temperatura media	16.8
98258	7	Sololá	702	San José Chacayá	5	Chacayá	5	Mayo	2023-05-27T00:00:00	2024-11-06T19:00:00	4	Temperatura máxima	17.3
98259	7	Sololá	702	San José Chacayá	5	Chacayá	5	Mayo	2023-05-27T00:00:00	2024-11-06T19:00:00	3	Temperatura mínima	16.6
98260	7	Sololá	702	San José Chacayá	5	Chacayá	5	Mayo	2023-05-27T00:00:00	2024-11-06T19:00:00	5	Humedad	72
98261	7	Sololá	702	San José Chacayá	5	Chacayá	5	Mayo	2023-05-27T00:00:00	2024-11-06T19:00:00	6	Velocidad del viento	1.6
98262	7	Sololá	702	San José Chacayá	5	Chacayá	5	Mayo	2023-05-27T00:00:00	2024-11-06T19:00:00	7	Dirección del viento	1.61
98263	7	Sololá	702	San José Chacayá	5	Chacayá	5	Mayo	2023-05-27T00:00:00	2024-11-06T19:00:00	1	Precipitación	0.6
98264	7	Sololá	702	San José Chacayá	5	Chacayá	5	Mayo	2023-05-27T00:00:00	2024-11-06T19:00:00	8	Radiación solar	0
98265	7	Sololá	702	San José Chacayá	5	Chacayá	5	Mayo	2023-05-27T00:00:00	2024-11-06T20:00:00	2	Temperatura media	15.8
98266	7	Sololá	702	San José Chacayá	5	Chacayá	5	Mayo	2023-05-27T00:00:00	2024-11-06T20:00:00	4	Temperatura máxima	16.8
98267	7	Sololá	702	San José Chacayá	5	Chacayá	5	Mayo	2023-05-27T00:00:00	2024-11-06T20:00:00	3	Temperatura mínima	15.7
98268	7	Sololá	702	San José Chacayá	5	Chacayá	5	Mayo	2023-05-27T00:00:00	2024-11-06T20:00:00	5	Humedad	67
98269	7	Sololá	702	San José Chacayá	5	Chacayá	5	Mayo	2023-05-27T00:00:00	2024-11-06T20:00:00	6	Velocidad del viento	1.6
98270	7	Sololá	702	San José Chacayá	5	Chacayá	5	Mayo	2023-05-27T00:00:00	2024-11-06T20:00:00	7	Dirección del viento	1.61
98271	7	Sololá	702	San José Chacayá	5	Chacayá	5	Mayo	2023-05-27T00:00:00	2024-11-06T20:00:00	1	Precipitación	7.2
98272	7	Sololá	702	San José Chacayá	5	Chacayá	5	Mayo	2023-05-27T00:00:00	2024-11-06T20:00:00	8	Radiación solar	0
98273	7	Sololá	702	San José Chacayá	5	Chacayá	5	Mayo	2023-05-27T00:00:00	2024-11-06T21:00:00	2	Temperatura media	15.4
98274	7	Sololá	702	San José Chacayá	5	Chacayá	5	Mayo	2023-05-27T00:00:00	2024-11-06T21:00:00	4	Temperatura máxima	15.8
98275	7	Sololá	702	San José Chacayá	5	Chacayá	5	Mayo	2023-05-27T00:00:00	2024-11-06T21:00:00	3	Temperatura mínima	15.4
98276	7	Sololá	702	San José Chacayá	5	Chacayá	5	Mayo	2023-05-27T00:00:00	2024-11-06T21:00:00	5	Humedad	58
98277	7	Sololá	702	San José Chacayá	5	Chacayá	5	Mayo	2023-05-27T00:00:00	2024-11-06T21:00:00	6	Velocidad del viento	0
98278	7	Sololá	702	San José Chacayá	5	Chacayá	5	Mayo	2023-05-27T00:00:00	2024-11-06T21:00:00	7	Dirección del viento	0
98279	7	Sololá	702	San José Chacayá	5	Chacayá	5	Mayo	2023-05-27T00:00:00	2024-11-06T21:00:00	1	Precipitación	6.4
98280	7	Sololá	702	San José Chacayá	5	Chacayá	5	Mayo	2023-05-27T00:00:00	2024-11-06T21:00:00	8	Radiación solar	0
98281	7	Sololá	702	San José Chacayá	5	Chacayá	5	Mayo	2023-05-27T00:00:00	2024-11-06T22:00:00	2	Temperatura media	15.1
98282	7	Sololá	702	San José Chacayá	5	Chacayá	5	Mayo	2023-05-27T00:00:00	2024-11-06T22:00:00	4	Temperatura máxima	15.4
98283	7	Sololá	702	San José Chacayá	5	Chacayá	5	Mayo	2023-05-27T00:00:00	2024-11-06T22:00:00	3	Temperatura mínima	15.1
98284	7	Sololá	702	San José Chacayá	5	Chacayá	5	Mayo	2023-05-27T00:00:00	2024-11-06T22:00:00	5	Humedad	68
98285	7	Sololá	702	San José Chacayá	5	Chacayá	5	Mayo	2023-05-27T00:00:00	2024-11-06T22:00:00	6	Velocidad del viento	1.6
98286	7	Sololá	702	San José Chacayá	5	Chacayá	5	Mayo	2023-05-27T00:00:00	2024-11-06T22:00:00	7	Dirección del viento	1.61
98287	7	Sololá	702	San José Chacayá	5	Chacayá	5	Mayo	2023-05-27T00:00:00	2024-11-06T22:00:00	1	Precipitación	6.2
98288	7	Sololá	702	San José Chacayá	5	Chacayá	5	Mayo	2023-05-27T00:00:00	2024-11-06T22:00:00	8	Radiación solar	0
98289	7	Sololá	702	San José Chacayá	5	Chacayá	5	Mayo	2023-05-27T00:00:00	2024-11-06T23:00:00	2	Temperatura media	14.4
98290	7	Sololá	702	San José Chacayá	5	Chacayá	5	Mayo	2023-05-27T00:00:00	2024-11-06T23:00:00	4	Temperatura máxima	15.1
98291	7	Sololá	702	San José Chacayá	5	Chacayá	5	Mayo	2023-05-27T00:00:00	2024-11-06T23:00:00	3	Temperatura mínima	14.4
98292	7	Sololá	702	San José Chacayá	5	Chacayá	5	Mayo	2023-05-27T00:00:00	2024-11-06T23:00:00	5	Humedad	65
98293	7	Sololá	702	San José Chacayá	5	Chacayá	5	Mayo	2023-05-27T00:00:00	2024-11-06T23:00:00	6	Velocidad del viento	1.6
98294	7	Sololá	702	San José Chacayá	5	Chacayá	5	Mayo	2023-05-27T00:00:00	2024-11-06T23:00:00	7	Dirección del viento	1.61
98295	7	Sololá	702	San José Chacayá	5	Chacayá	5	Mayo	2023-05-27T00:00:00	2024-11-06T23:00:00	1	Precipitación	5.4
98296	7	Sololá	702	San José Chacayá	5	Chacayá	5	Mayo	2023-05-27T00:00:00	2024-11-06T23:00:00	8	Radiación solar	0
98297	7	Sololá	702	San José Chacayá	5	Chacayá	5	Mayo	2023-05-28T00:00:00	2024-11-06T00:00:00	2	Temperatura media	13.6
98298	7	Sololá	702	San José Chacayá	5	Chacayá	5	Mayo	2023-05-28T00:00:00	2024-11-06T00:00:00	4	Temperatura máxima	14.4
98299	7	Sololá	702	San José Chacayá	5	Chacayá	5	Mayo	2023-05-28T00:00:00	2024-11-06T00:00:00	3	Temperatura mínima	13.6
98300	7	Sololá	702	San José Chacayá	5	Chacayá	5	Mayo	2023-05-28T00:00:00	2024-11-06T00:00:00	5	Humedad	67
98301	7	Sololá	702	San José Chacayá	5	Chacayá	5	Mayo	2023-05-28T00:00:00	2024-11-06T00:00:00	6	Velocidad del viento	0
98302	7	Sololá	702	San José Chacayá	5	Chacayá	5	Mayo	2023-05-28T00:00:00	2024-11-06T00:00:00	7	Dirección del viento	0
98303	7	Sololá	702	San José Chacayá	5	Chacayá	5	Mayo	2023-05-28T00:00:00	2024-11-06T00:00:00	1	Precipitación	4.2
98304	7	Sololá	702	San José Chacayá	5	Chacayá	5	Mayo	2023-05-28T00:00:00	2024-11-06T00:00:00	8	Radiación solar	0
98305	7	Sololá	702	San José Chacayá	5	Chacayá	5	Mayo	2023-05-28T00:00:00	2024-11-06T01:00:00	2	Temperatura media	13.8
98306	7	Sololá	702	San José Chacayá	5	Chacayá	5	Mayo	2023-05-28T00:00:00	2024-11-06T01:00:00	4	Temperatura máxima	13.8
98307	7	Sololá	702	San José Chacayá	5	Chacayá	5	Mayo	2023-05-28T00:00:00	2024-11-06T01:00:00	3	Temperatura mínima	13.6
98308	7	Sololá	702	San José Chacayá	5	Chacayá	5	Mayo	2023-05-28T00:00:00	2024-11-06T01:00:00	5	Humedad	57
98309	7	Sololá	702	San José Chacayá	5	Chacayá	5	Mayo	2023-05-28T00:00:00	2024-11-06T01:00:00	6	Velocidad del viento	1.6
98310	7	Sololá	702	San José Chacayá	5	Chacayá	5	Mayo	2023-05-28T00:00:00	2024-11-06T01:00:00	7	Dirección del viento	1.61
98311	7	Sololá	702	San José Chacayá	5	Chacayá	5	Mayo	2023-05-28T00:00:00	2024-11-06T01:00:00	1	Precipitación	0.2
98312	7	Sololá	702	San José Chacayá	5	Chacayá	5	Mayo	2023-05-28T00:00:00	2024-11-06T01:00:00	8	Radiación solar	0
98313	7	Sololá	702	San José Chacayá	5	Chacayá	5	Mayo	2023-05-28T00:00:00	2024-11-06T02:00:00	2	Temperatura media	13.7
98314	7	Sololá	702	San José Chacayá	5	Chacayá	5	Mayo	2023-05-28T00:00:00	2024-11-06T02:00:00	4	Temperatura máxima	13.8
98315	7	Sololá	702	San José Chacayá	5	Chacayá	5	Mayo	2023-05-28T00:00:00	2024-11-06T02:00:00	3	Temperatura mínima	13.7
98316	7	Sololá	702	San José Chacayá	5	Chacayá	5	Mayo	2023-05-28T00:00:00	2024-11-06T02:00:00	5	Humedad	52
98317	7	Sololá	702	San José Chacayá	5	Chacayá	5	Mayo	2023-05-28T00:00:00	2024-11-06T02:00:00	6	Velocidad del viento	0
98318	7	Sololá	702	San José Chacayá	5	Chacayá	5	Mayo	2023-05-28T00:00:00	2024-11-06T02:00:00	7	Dirección del viento	0
98319	7	Sololá	702	San José Chacayá	5	Chacayá	5	Mayo	2023-05-28T00:00:00	2024-11-06T02:00:00	1	Precipitación	1
98320	7	Sololá	702	San José Chacayá	5	Chacayá	5	Mayo	2023-05-28T00:00:00	2024-11-06T02:00:00	8	Radiación solar	0
98321	7	Sololá	702	San José Chacayá	5	Chacayá	5	Mayo	2023-05-28T00:00:00	2024-11-06T03:00:00	2	Temperatura media	13.7
98322	7	Sololá	702	San José Chacayá	5	Chacayá	5	Mayo	2023-05-28T00:00:00	2024-11-06T03:00:00	4	Temperatura máxima	13.8
98323	7	Sololá	702	San José Chacayá	5	Chacayá	5	Mayo	2023-05-28T00:00:00	2024-11-06T03:00:00	3	Temperatura mínima	13.7
98324	7	Sololá	702	San José Chacayá	5	Chacayá	5	Mayo	2023-05-28T00:00:00	2024-11-06T03:00:00	5	Humedad	47
98325	7	Sololá	702	San José Chacayá	5	Chacayá	5	Mayo	2023-05-28T00:00:00	2024-11-06T03:00:00	6	Velocidad del viento	0
98326	7	Sololá	702	San José Chacayá	5	Chacayá	5	Mayo	2023-05-28T00:00:00	2024-11-06T03:00:00	7	Dirección del viento	0
98327	7	Sololá	702	San José Chacayá	5	Chacayá	5	Mayo	2023-05-28T00:00:00	2024-11-06T03:00:00	1	Precipitación	1.2
98328	7	Sololá	702	San José Chacayá	5	Chacayá	5	Mayo	2023-05-28T00:00:00	2024-11-06T03:00:00	8	Radiación solar	0
98329	7	Sololá	702	San José Chacayá	5	Chacayá	5	Mayo	2023-05-28T00:00:00	2024-11-06T04:00:00	2	Temperatura media	13.6
98330	7	Sololá	702	San José Chacayá	5	Chacayá	5	Mayo	2023-05-28T00:00:00	2024-11-06T04:00:00	4	Temperatura máxima	13.7
98331	7	Sololá	702	San José Chacayá	5	Chacayá	5	Mayo	2023-05-28T00:00:00	2024-11-06T04:00:00	3	Temperatura mínima	13.6
98332	7	Sololá	702	San José Chacayá	5	Chacayá	5	Mayo	2023-05-28T00:00:00	2024-11-06T04:00:00	5	Humedad	47
98333	7	Sololá	702	San José Chacayá	5	Chacayá	5	Mayo	2023-05-28T00:00:00	2024-11-06T04:00:00	6	Velocidad del viento	0
98334	7	Sololá	702	San José Chacayá	5	Chacayá	5	Mayo	2023-05-28T00:00:00	2024-11-06T04:00:00	7	Dirección del viento	0
98335	7	Sololá	702	San José Chacayá	5	Chacayá	5	Mayo	2023-05-28T00:00:00	2024-11-06T04:00:00	1	Precipitación	0.8
98336	7	Sololá	702	San José Chacayá	5	Chacayá	5	Mayo	2023-05-28T00:00:00	2024-11-06T04:00:00	8	Radiación solar	0
98337	7	Sololá	702	San José Chacayá	5	Chacayá	5	Mayo	2023-05-28T00:00:00	2024-11-06T05:00:00	2	Temperatura media	13.6
98338	7	Sololá	702	San José Chacayá	5	Chacayá	5	Mayo	2023-05-28T00:00:00	2024-11-06T05:00:00	4	Temperatura máxima	13.6
98339	7	Sololá	702	San José Chacayá	5	Chacayá	5	Mayo	2023-05-28T00:00:00	2024-11-06T05:00:00	3	Temperatura mínima	13.5
98340	7	Sololá	702	San José Chacayá	5	Chacayá	5	Mayo	2023-05-28T00:00:00	2024-11-06T05:00:00	5	Humedad	47
98341	7	Sololá	702	San José Chacayá	5	Chacayá	5	Mayo	2023-05-28T00:00:00	2024-11-06T05:00:00	6	Velocidad del viento	0
98342	7	Sololá	702	San José Chacayá	5	Chacayá	5	Mayo	2023-05-28T00:00:00	2024-11-06T05:00:00	7	Dirección del viento	0
98343	7	Sololá	702	San José Chacayá	5	Chacayá	5	Mayo	2023-05-28T00:00:00	2024-11-06T05:00:00	1	Precipitación	0
98344	7	Sololá	702	San José Chacayá	5	Chacayá	5	Mayo	2023-05-28T00:00:00	2024-11-06T05:00:00	8	Radiación solar	0
98345	7	Sololá	702	San José Chacayá	5	Chacayá	5	Mayo	2023-05-28T00:00:00	2024-11-06T06:00:00	2	Temperatura media	13.5
98346	7	Sololá	702	San José Chacayá	5	Chacayá	5	Mayo	2023-05-28T00:00:00	2024-11-06T06:00:00	4	Temperatura máxima	13.6
98347	7	Sololá	702	San José Chacayá	5	Chacayá	5	Mayo	2023-05-28T00:00:00	2024-11-06T06:00:00	3	Temperatura mínima	13.4
98348	7	Sololá	702	San José Chacayá	5	Chacayá	5	Mayo	2023-05-28T00:00:00	2024-11-06T06:00:00	5	Humedad	46
98349	7	Sololá	702	San José Chacayá	5	Chacayá	5	Mayo	2023-05-28T00:00:00	2024-11-06T06:00:00	6	Velocidad del viento	0
98350	7	Sololá	702	San José Chacayá	5	Chacayá	5	Mayo	2023-05-28T00:00:00	2024-11-06T06:00:00	7	Dirección del viento	0
98351	7	Sololá	702	San José Chacayá	5	Chacayá	5	Mayo	2023-05-28T00:00:00	2024-11-06T06:00:00	1	Precipitación	0.2
98352	7	Sololá	702	San José Chacayá	5	Chacayá	5	Mayo	2023-05-28T00:00:00	2024-11-06T06:00:00	8	Radiación solar	0
98353	7	Sololá	702	San José Chacayá	5	Chacayá	5	Mayo	2023-05-28T00:00:00	2024-11-06T07:00:00	2	Temperatura media	13.8
98354	7	Sololá	702	San José Chacayá	5	Chacayá	5	Mayo	2023-05-28T00:00:00	2024-11-06T07:00:00	4	Temperatura máxima	13.8
98355	7	Sololá	702	San José Chacayá	5	Chacayá	5	Mayo	2023-05-28T00:00:00	2024-11-06T07:00:00	3	Temperatura mínima	13.5
98356	7	Sololá	702	San José Chacayá	5	Chacayá	5	Mayo	2023-05-28T00:00:00	2024-11-06T07:00:00	5	Humedad	42
98357	7	Sololá	702	San José Chacayá	5	Chacayá	5	Mayo	2023-05-28T00:00:00	2024-11-06T07:00:00	6	Velocidad del viento	0
98358	7	Sololá	702	San José Chacayá	5	Chacayá	5	Mayo	2023-05-28T00:00:00	2024-11-06T07:00:00	7	Dirección del viento	0
98359	7	Sololá	702	San José Chacayá	5	Chacayá	5	Mayo	2023-05-28T00:00:00	2024-11-06T07:00:00	1	Precipitación	0
98360	7	Sololá	702	San José Chacayá	5	Chacayá	5	Mayo	2023-05-28T00:00:00	2024-11-06T07:00:00	8	Radiación solar	31
98361	7	Sololá	702	San José Chacayá	5	Chacayá	5	Mayo	2023-05-28T00:00:00	2024-11-06T08:00:00	2	Temperatura media	15.8
98362	7	Sololá	702	San José Chacayá	5	Chacayá	5	Mayo	2023-05-28T00:00:00	2024-11-06T08:00:00	4	Temperatura máxima	15.8
98363	7	Sololá	702	San José Chacayá	5	Chacayá	5	Mayo	2023-05-28T00:00:00	2024-11-06T08:00:00	3	Temperatura mínima	13.8
98364	7	Sololá	702	San José Chacayá	5	Chacayá	5	Mayo	2023-05-28T00:00:00	2024-11-06T08:00:00	5	Humedad	76
98365	7	Sololá	702	San José Chacayá	5	Chacayá	5	Mayo	2023-05-28T00:00:00	2024-11-06T08:00:00	6	Velocidad del viento	1.6
98366	7	Sololá	702	San José Chacayá	5	Chacayá	5	Mayo	2023-05-28T00:00:00	2024-11-06T08:00:00	7	Dirección del viento	1.61
98367	7	Sololá	702	San José Chacayá	5	Chacayá	5	Mayo	2023-05-28T00:00:00	2024-11-06T08:00:00	1	Precipitación	0
98368	7	Sololá	702	San José Chacayá	5	Chacayá	5	Mayo	2023-05-28T00:00:00	2024-11-06T08:00:00	8	Radiación solar	174
98369	7	Sololá	702	San José Chacayá	5	Chacayá	5	Mayo	2023-05-28T00:00:00	2024-11-06T09:00:00	2	Temperatura media	16.6
98370	7	Sololá	702	San José Chacayá	5	Chacayá	5	Mayo	2023-05-28T00:00:00	2024-11-06T09:00:00	4	Temperatura máxima	16.9
98371	7	Sololá	702	San José Chacayá	5	Chacayá	5	Mayo	2023-05-28T00:00:00	2024-11-06T09:00:00	3	Temperatura mínima	15.8
98372	7	Sololá	702	San José Chacayá	5	Chacayá	5	Mayo	2023-05-28T00:00:00	2024-11-06T09:00:00	5	Humedad	82
98373	7	Sololá	702	San José Chacayá	5	Chacayá	5	Mayo	2023-05-28T00:00:00	2024-11-06T09:00:00	6	Velocidad del viento	3.2
98374	7	Sololá	702	San José Chacayá	5	Chacayá	5	Mayo	2023-05-28T00:00:00	2024-11-06T09:00:00	7	Dirección del viento	3.22
98375	7	Sololá	702	San José Chacayá	5	Chacayá	5	Mayo	2023-05-28T00:00:00	2024-11-06T09:00:00	1	Precipitación	0
98376	7	Sololá	702	San José Chacayá	5	Chacayá	5	Mayo	2023-05-28T00:00:00	2024-11-06T09:00:00	8	Radiación solar	277
98377	7	Sololá	702	San José Chacayá	5	Chacayá	5	Mayo	2023-05-28T00:00:00	2024-11-06T10:00:00	2	Temperatura media	17.3
98378	7	Sololá	702	San José Chacayá	5	Chacayá	5	Mayo	2023-05-28T00:00:00	2024-11-06T10:00:00	4	Temperatura máxima	17.4
98379	7	Sololá	702	San José Chacayá	5	Chacayá	5	Mayo	2023-05-28T00:00:00	2024-11-06T10:00:00	3	Temperatura mínima	16.6
98380	7	Sololá	702	San José Chacayá	5	Chacayá	5	Mayo	2023-05-28T00:00:00	2024-11-06T10:00:00	5	Humedad	82
98381	7	Sololá	702	San José Chacayá	5	Chacayá	5	Mayo	2023-05-28T00:00:00	2024-11-06T10:00:00	6	Velocidad del viento	1.6
98382	7	Sololá	702	San José Chacayá	5	Chacayá	5	Mayo	2023-05-28T00:00:00	2024-11-06T10:00:00	7	Dirección del viento	1.61
98383	7	Sololá	702	San José Chacayá	5	Chacayá	5	Mayo	2023-05-28T00:00:00	2024-11-06T10:00:00	1	Precipitación	0
98384	7	Sololá	702	San José Chacayá	5	Chacayá	5	Mayo	2023-05-28T00:00:00	2024-11-06T10:00:00	8	Radiación solar	321
98385	7	Sololá	702	San José Chacayá	5	Chacayá	5	Mayo	2023-05-28T00:00:00	2024-11-06T11:00:00	2	Temperatura media	18.7
98386	7	Sololá	702	San José Chacayá	5	Chacayá	5	Mayo	2023-05-28T00:00:00	2024-11-06T11:00:00	4	Temperatura máxima	18.9
98387	7	Sololá	702	San José Chacayá	5	Chacayá	5	Mayo	2023-05-28T00:00:00	2024-11-06T11:00:00	3	Temperatura mínima	17.3
98388	7	Sololá	702	San José Chacayá	5	Chacayá	5	Mayo	2023-05-28T00:00:00	2024-11-06T11:00:00	5	Humedad	78
98389	7	Sololá	702	San José Chacayá	5	Chacayá	5	Mayo	2023-05-28T00:00:00	2024-11-06T11:00:00	6	Velocidad del viento	4.8
98390	7	Sololá	702	San José Chacayá	5	Chacayá	5	Mayo	2023-05-28T00:00:00	2024-11-06T11:00:00	7	Dirección del viento	4.83
98391	7	Sololá	702	San José Chacayá	5	Chacayá	5	Mayo	2023-05-28T00:00:00	2024-11-06T11:00:00	1	Precipitación	0
98392	7	Sololá	702	San José Chacayá	5	Chacayá	5	Mayo	2023-05-28T00:00:00	2024-11-06T11:00:00	8	Radiación solar	440
98393	7	Sololá	702	San José Chacayá	5	Chacayá	5	Mayo	2023-05-28T00:00:00	2024-11-06T12:00:00	2	Temperatura media	18.2
98394	7	Sololá	702	San José Chacayá	5	Chacayá	5	Mayo	2023-05-28T00:00:00	2024-11-06T12:00:00	4	Temperatura máxima	19.1
98395	7	Sololá	702	San José Chacayá	5	Chacayá	5	Mayo	2023-05-28T00:00:00	2024-11-06T12:00:00	3	Temperatura mínima	18.2
98396	7	Sololá	702	San José Chacayá	5	Chacayá	5	Mayo	2023-05-28T00:00:00	2024-11-06T12:00:00	5	Humedad	79
98397	7	Sololá	702	San José Chacayá	5	Chacayá	5	Mayo	2023-05-28T00:00:00	2024-11-06T12:00:00	6	Velocidad del viento	6.4
98398	7	Sololá	702	San José Chacayá	5	Chacayá	5	Mayo	2023-05-28T00:00:00	2024-11-06T12:00:00	7	Dirección del viento	6.44
98399	7	Sololá	702	San José Chacayá	5	Chacayá	5	Mayo	2023-05-28T00:00:00	2024-11-06T12:00:00	1	Precipitación	0
98400	7	Sololá	702	San José Chacayá	5	Chacayá	5	Mayo	2023-05-28T00:00:00	2024-11-06T12:00:00	8	Radiación solar	376
98401	7	Sololá	702	San José Chacayá	5	Chacayá	5	Mayo	2023-05-28T00:00:00	2024-11-06T13:00:00	2	Temperatura media	18.6
98402	7	Sololá	702	San José Chacayá	5	Chacayá	5	Mayo	2023-05-28T00:00:00	2024-11-06T13:00:00	4	Temperatura máxima	19.4
98403	7	Sololá	702	San José Chacayá	5	Chacayá	5	Mayo	2023-05-28T00:00:00	2024-11-06T13:00:00	3	Temperatura mínima	18.2
98404	7	Sololá	702	San José Chacayá	5	Chacayá	5	Mayo	2023-05-28T00:00:00	2024-11-06T13:00:00	5	Humedad	80
98405	7	Sololá	702	San José Chacayá	5	Chacayá	5	Mayo	2023-05-28T00:00:00	2024-11-06T13:00:00	6	Velocidad del viento	3.2
98406	7	Sololá	702	San José Chacayá	5	Chacayá	5	Mayo	2023-05-28T00:00:00	2024-11-06T13:00:00	7	Dirección del viento	3.22
98407	7	Sololá	702	San José Chacayá	5	Chacayá	5	Mayo	2023-05-28T00:00:00	2024-11-06T13:00:00	1	Precipitación	0
98408	7	Sololá	702	San José Chacayá	5	Chacayá	5	Mayo	2023-05-28T00:00:00	2024-11-06T13:00:00	8	Radiación solar	387
98409	7	Sololá	702	San José Chacayá	5	Chacayá	5	Mayo	2023-05-28T00:00:00	2024-11-06T14:00:00	2	Temperatura media	17.6
98410	7	Sololá	702	San José Chacayá	5	Chacayá	5	Mayo	2023-05-28T00:00:00	2024-11-06T14:00:00	4	Temperatura máxima	18.8
98411	7	Sololá	702	San José Chacayá	5	Chacayá	5	Mayo	2023-05-28T00:00:00	2024-11-06T14:00:00	3	Temperatura mínima	17.4
98412	7	Sololá	702	San José Chacayá	5	Chacayá	5	Mayo	2023-05-28T00:00:00	2024-11-06T14:00:00	5	Humedad	82
98413	7	Sololá	702	San José Chacayá	5	Chacayá	5	Mayo	2023-05-28T00:00:00	2024-11-06T14:00:00	6	Velocidad del viento	6.4
98414	7	Sololá	702	San José Chacayá	5	Chacayá	5	Mayo	2023-05-28T00:00:00	2024-11-06T14:00:00	7	Dirección del viento	6.44
98415	7	Sololá	702	San José Chacayá	5	Chacayá	5	Mayo	2023-05-28T00:00:00	2024-11-06T14:00:00	1	Precipitación	0
98416	7	Sololá	702	San José Chacayá	5	Chacayá	5	Mayo	2023-05-28T00:00:00	2024-11-06T14:00:00	8	Radiación solar	317
98417	7	Sololá	702	San José Chacayá	5	Chacayá	5	Mayo	2023-05-28T00:00:00	2024-11-06T15:00:00	2	Temperatura media	16.8
98418	7	Sololá	702	San José Chacayá	5	Chacayá	5	Mayo	2023-05-28T00:00:00	2024-11-06T15:00:00	4	Temperatura máxima	18.3
98419	7	Sololá	702	San José Chacayá	5	Chacayá	5	Mayo	2023-05-28T00:00:00	2024-11-06T15:00:00	3	Temperatura mínima	16.8
98420	7	Sololá	702	San José Chacayá	5	Chacayá	5	Mayo	2023-05-28T00:00:00	2024-11-06T15:00:00	5	Humedad	81
98421	7	Sololá	702	San José Chacayá	5	Chacayá	5	Mayo	2023-05-28T00:00:00	2024-11-06T15:00:00	6	Velocidad del viento	6.4
98422	7	Sololá	702	San José Chacayá	5	Chacayá	5	Mayo	2023-05-28T00:00:00	2024-11-06T15:00:00	7	Dirección del viento	6.44
98423	7	Sololá	702	San José Chacayá	5	Chacayá	5	Mayo	2023-05-28T00:00:00	2024-11-06T15:00:00	1	Precipitación	0
98424	7	Sololá	702	San José Chacayá	5	Chacayá	5	Mayo	2023-05-28T00:00:00	2024-11-06T15:00:00	8	Radiación solar	242
98425	7	Sololá	702	San José Chacayá	5	Chacayá	5	Mayo	2023-05-28T00:00:00	2024-11-06T16:00:00	2	Temperatura media	17.1
98426	7	Sololá	702	San José Chacayá	5	Chacayá	5	Mayo	2023-05-28T00:00:00	2024-11-06T16:00:00	4	Temperatura máxima	17.1
98427	7	Sololá	702	San José Chacayá	5	Chacayá	5	Mayo	2023-05-28T00:00:00	2024-11-06T16:00:00	3	Temperatura mínima	16.4
98428	7	Sololá	702	San José Chacayá	5	Chacayá	5	Mayo	2023-05-28T00:00:00	2024-11-06T16:00:00	5	Humedad	80
98429	7	Sololá	702	San José Chacayá	5	Chacayá	5	Mayo	2023-05-28T00:00:00	2024-11-06T16:00:00	6	Velocidad del viento	3.2
98430	7	Sololá	702	San José Chacayá	5	Chacayá	5	Mayo	2023-05-28T00:00:00	2024-11-06T16:00:00	7	Dirección del viento	3.22
98431	7	Sololá	702	San José Chacayá	5	Chacayá	5	Mayo	2023-05-28T00:00:00	2024-11-06T16:00:00	1	Precipitación	0
98432	7	Sololá	702	San José Chacayá	5	Chacayá	5	Mayo	2023-05-28T00:00:00	2024-11-06T16:00:00	8	Radiación solar	107
98433	7	Sololá	702	San José Chacayá	5	Chacayá	5	Mayo	2023-05-28T00:00:00	2024-11-06T17:00:00	2	Temperatura media	16.1
98434	7	Sololá	702	San José Chacayá	5	Chacayá	5	Mayo	2023-05-28T00:00:00	2024-11-06T17:00:00	4	Temperatura máxima	17.1
98435	7	Sololá	702	San José Chacayá	5	Chacayá	5	Mayo	2023-05-28T00:00:00	2024-11-06T17:00:00	3	Temperatura mínima	16.1
98436	7	Sololá	702	San José Chacayá	5	Chacayá	5	Mayo	2023-05-28T00:00:00	2024-11-06T17:00:00	5	Humedad	72
98437	7	Sololá	702	San José Chacayá	5	Chacayá	5	Mayo	2023-05-28T00:00:00	2024-11-06T17:00:00	6	Velocidad del viento	3.2
98438	7	Sololá	702	San José Chacayá	5	Chacayá	5	Mayo	2023-05-28T00:00:00	2024-11-06T17:00:00	7	Dirección del viento	3.22
98439	7	Sololá	702	San José Chacayá	5	Chacayá	5	Mayo	2023-05-28T00:00:00	2024-11-06T17:00:00	1	Precipitación	0
98440	7	Sololá	702	San José Chacayá	5	Chacayá	5	Mayo	2023-05-28T00:00:00	2024-11-06T17:00:00	8	Radiación solar	40
98441	7	Sololá	702	San José Chacayá	5	Chacayá	5	Mayo	2023-05-28T00:00:00	2024-11-06T18:00:00	2	Temperatura media	15.6
98442	7	Sololá	702	San José Chacayá	5	Chacayá	5	Mayo	2023-05-28T00:00:00	2024-11-06T18:00:00	4	Temperatura máxima	16.2
98443	7	Sololá	702	San José Chacayá	5	Chacayá	5	Mayo	2023-05-28T00:00:00	2024-11-06T18:00:00	3	Temperatura mínima	15.5
98444	7	Sololá	702	San José Chacayá	5	Chacayá	5	Mayo	2023-05-28T00:00:00	2024-11-06T18:00:00	5	Humedad	57
98445	7	Sololá	702	San José Chacayá	5	Chacayá	5	Mayo	2023-05-28T00:00:00	2024-11-06T18:00:00	6	Velocidad del viento	3.2
98446	7	Sololá	702	San José Chacayá	5	Chacayá	5	Mayo	2023-05-28T00:00:00	2024-11-06T18:00:00	7	Dirección del viento	3.22
98447	7	Sololá	702	San José Chacayá	5	Chacayá	5	Mayo	2023-05-28T00:00:00	2024-11-06T18:00:00	1	Precipitación	15.2
98448	7	Sololá	702	San José Chacayá	5	Chacayá	5	Mayo	2023-05-28T00:00:00	2024-11-06T18:00:00	8	Radiación solar	9
98449	7	Sololá	702	San José Chacayá	5	Chacayá	5	Mayo	2023-05-28T00:00:00	2024-11-06T19:00:00	2	Temperatura media	15.4
98450	7	Sololá	702	San José Chacayá	5	Chacayá	5	Mayo	2023-05-28T00:00:00	2024-11-06T19:00:00	4	Temperatura máxima	15.7
98451	7	Sololá	702	San José Chacayá	5	Chacayá	5	Mayo	2023-05-28T00:00:00	2024-11-06T19:00:00	3	Temperatura mínima	15.3
98452	7	Sololá	702	San José Chacayá	5	Chacayá	5	Mayo	2023-05-28T00:00:00	2024-11-06T19:00:00	5	Humedad	47
98453	7	Sololá	702	San José Chacayá	5	Chacayá	5	Mayo	2023-05-28T00:00:00	2024-11-06T19:00:00	6	Velocidad del viento	0
98454	7	Sololá	702	San José Chacayá	5	Chacayá	5	Mayo	2023-05-28T00:00:00	2024-11-06T19:00:00	7	Dirección del viento	0
98455	7	Sololá	702	San José Chacayá	5	Chacayá	5	Mayo	2023-05-28T00:00:00	2024-11-06T19:00:00	1	Precipitación	1.6
98456	7	Sololá	702	San José Chacayá	5	Chacayá	5	Mayo	2023-05-28T00:00:00	2024-11-06T19:00:00	8	Radiación solar	0
98457	7	Sololá	702	San José Chacayá	5	Chacayá	5	Mayo	2023-05-28T00:00:00	2024-11-06T20:00:00	2	Temperatura media	15.2
98458	7	Sololá	702	San José Chacayá	5	Chacayá	5	Mayo	2023-05-28T00:00:00	2024-11-06T20:00:00	4	Temperatura máxima	15.4
98459	7	Sololá	702	San José Chacayá	5	Chacayá	5	Mayo	2023-05-28T00:00:00	2024-11-06T20:00:00	3	Temperatura mínima	15.1
98460	7	Sololá	702	San José Chacayá	5	Chacayá	5	Mayo	2023-05-28T00:00:00	2024-11-06T20:00:00	5	Humedad	42
98461	7	Sololá	702	San José Chacayá	5	Chacayá	5	Mayo	2023-05-28T00:00:00	2024-11-06T20:00:00	6	Velocidad del viento	0
98462	7	Sololá	702	San José Chacayá	5	Chacayá	5	Mayo	2023-05-28T00:00:00	2024-11-06T20:00:00	7	Dirección del viento	0
98463	7	Sololá	702	San José Chacayá	5	Chacayá	5	Mayo	2023-05-28T00:00:00	2024-11-06T20:00:00	1	Precipitación	2.6
98464	7	Sololá	702	San José Chacayá	5	Chacayá	5	Mayo	2023-05-28T00:00:00	2024-11-06T20:00:00	8	Radiación solar	0
98465	7	Sololá	702	San José Chacayá	5	Chacayá	5	Mayo	2023-05-28T00:00:00	2024-11-06T21:00:00	2	Temperatura media	14.9
98466	7	Sololá	702	San José Chacayá	5	Chacayá	5	Mayo	2023-05-28T00:00:00	2024-11-06T21:00:00	4	Temperatura máxima	15.1
98467	7	Sololá	702	San José Chacayá	5	Chacayá	5	Mayo	2023-05-28T00:00:00	2024-11-06T21:00:00	3	Temperatura mínima	14.9
98468	7	Sololá	702	San José Chacayá	5	Chacayá	5	Mayo	2023-05-28T00:00:00	2024-11-06T21:00:00	5	Humedad	40
98469	7	Sololá	702	San José Chacayá	5	Chacayá	5	Mayo	2023-05-28T00:00:00	2024-11-06T21:00:00	6	Velocidad del viento	0
98470	7	Sololá	702	San José Chacayá	5	Chacayá	5	Mayo	2023-05-28T00:00:00	2024-11-06T21:00:00	7	Dirección del viento	0
98471	7	Sololá	702	San José Chacayá	5	Chacayá	5	Mayo	2023-05-28T00:00:00	2024-11-06T21:00:00	1	Precipitación	0
98472	7	Sololá	702	San José Chacayá	5	Chacayá	5	Mayo	2023-05-28T00:00:00	2024-11-06T21:00:00	8	Radiación solar	0
98473	7	Sololá	702	San José Chacayá	5	Chacayá	5	Mayo	2023-05-28T00:00:00	2024-11-06T22:00:00	2	Temperatura media	14.9
98474	7	Sololá	702	San José Chacayá	5	Chacayá	5	Mayo	2023-05-28T00:00:00	2024-11-06T22:00:00	4	Temperatura máxima	15
98475	7	Sololá	702	San José Chacayá	5	Chacayá	5	Mayo	2023-05-28T00:00:00	2024-11-06T22:00:00	3	Temperatura mínima	14.8
98476	7	Sololá	702	San José Chacayá	5	Chacayá	5	Mayo	2023-05-28T00:00:00	2024-11-06T22:00:00	5	Humedad	37
98477	7	Sololá	702	San José Chacayá	5	Chacayá	5	Mayo	2023-05-28T00:00:00	2024-11-06T22:00:00	6	Velocidad del viento	0
98478	7	Sololá	702	San José Chacayá	5	Chacayá	5	Mayo	2023-05-28T00:00:00	2024-11-06T22:00:00	7	Dirección del viento	0
98479	7	Sololá	702	San José Chacayá	5	Chacayá	5	Mayo	2023-05-28T00:00:00	2024-11-06T22:00:00	1	Precipitación	0
98480	7	Sololá	702	San José Chacayá	5	Chacayá	5	Mayo	2023-05-28T00:00:00	2024-11-06T22:00:00	8	Radiación solar	0
98481	7	Sololá	702	San José Chacayá	5	Chacayá	5	Mayo	2023-05-28T00:00:00	2024-11-06T23:00:00	2	Temperatura media	14.9
98482	7	Sololá	702	San José Chacayá	5	Chacayá	5	Mayo	2023-05-28T00:00:00	2024-11-06T23:00:00	4	Temperatura máxima	14.9
98483	7	Sololá	702	San José Chacayá	5	Chacayá	5	Mayo	2023-05-28T00:00:00	2024-11-06T23:00:00	3	Temperatura mínima	14.8
98484	7	Sololá	702	San José Chacayá	5	Chacayá	5	Mayo	2023-05-28T00:00:00	2024-11-06T23:00:00	5	Humedad	36
98485	7	Sololá	702	San José Chacayá	5	Chacayá	5	Mayo	2023-05-28T00:00:00	2024-11-06T23:00:00	6	Velocidad del viento	0
98486	7	Sololá	702	San José Chacayá	5	Chacayá	5	Mayo	2023-05-28T00:00:00	2024-11-06T23:00:00	7	Dirección del viento	0
98487	7	Sololá	702	San José Chacayá	5	Chacayá	5	Mayo	2023-05-28T00:00:00	2024-11-06T23:00:00	1	Precipitación	0
98488	7	Sololá	702	San José Chacayá	5	Chacayá	5	Mayo	2023-05-28T00:00:00	2024-11-06T23:00:00	8	Radiación solar	0
98489	7	Sololá	702	San José Chacayá	5	Chacayá	5	Mayo	2023-05-29T00:00:00	2024-11-06T00:00:00	2	Temperatura media	14.2
98490	7	Sololá	702	San José Chacayá	5	Chacayá	5	Mayo	2023-05-29T00:00:00	2024-11-06T00:00:00	4	Temperatura máxima	15
98491	7	Sololá	702	San José Chacayá	5	Chacayá	5	Mayo	2023-05-29T00:00:00	2024-11-06T00:00:00	3	Temperatura mínima	14.2
98492	7	Sololá	702	San José Chacayá	5	Chacayá	5	Mayo	2023-05-29T00:00:00	2024-11-06T00:00:00	5	Humedad	40
98493	7	Sololá	702	San José Chacayá	5	Chacayá	5	Mayo	2023-05-29T00:00:00	2024-11-06T00:00:00	6	Velocidad del viento	0
98494	7	Sololá	702	San José Chacayá	5	Chacayá	5	Mayo	2023-05-29T00:00:00	2024-11-06T00:00:00	7	Dirección del viento	0
98495	7	Sololá	702	San José Chacayá	5	Chacayá	5	Mayo	2023-05-29T00:00:00	2024-11-06T00:00:00	1	Precipitación	4.8
98496	7	Sololá	702	San José Chacayá	5	Chacayá	5	Mayo	2023-05-29T00:00:00	2024-11-06T00:00:00	8	Radiación solar	0
98497	7	Sololá	702	San José Chacayá	5	Chacayá	5	Mayo	2023-05-29T00:00:00	2024-11-06T01:00:00	2	Temperatura media	14.2
98498	7	Sololá	702	San José Chacayá	5	Chacayá	5	Mayo	2023-05-29T00:00:00	2024-11-06T01:00:00	4	Temperatura máxima	14.3
98499	7	Sololá	702	San José Chacayá	5	Chacayá	5	Mayo	2023-05-29T00:00:00	2024-11-06T01:00:00	3	Temperatura mínima	14.2
98500	7	Sololá	702	San José Chacayá	5	Chacayá	5	Mayo	2023-05-29T00:00:00	2024-11-06T01:00:00	5	Humedad	37
98501	7	Sololá	702	San José Chacayá	5	Chacayá	5	Mayo	2023-05-29T00:00:00	2024-11-06T01:00:00	6	Velocidad del viento	0
98502	7	Sololá	702	San José Chacayá	5	Chacayá	5	Mayo	2023-05-29T00:00:00	2024-11-06T01:00:00	7	Dirección del viento	0
98503	7	Sololá	702	San José Chacayá	5	Chacayá	5	Mayo	2023-05-29T00:00:00	2024-11-06T01:00:00	1	Precipitación	1.8
98504	7	Sololá	702	San José Chacayá	5	Chacayá	5	Mayo	2023-05-29T00:00:00	2024-11-06T01:00:00	8	Radiación solar	0
98505	7	Sololá	702	San José Chacayá	5	Chacayá	5	Mayo	2023-05-29T00:00:00	2024-11-06T02:00:00	2	Temperatura media	14.2
98506	7	Sololá	702	San José Chacayá	5	Chacayá	5	Mayo	2023-05-29T00:00:00	2024-11-06T02:00:00	4	Temperatura máxima	14.3
98507	7	Sololá	702	San José Chacayá	5	Chacayá	5	Mayo	2023-05-29T00:00:00	2024-11-06T02:00:00	3	Temperatura mínima	14.2
98508	7	Sololá	702	San José Chacayá	5	Chacayá	5	Mayo	2023-05-29T00:00:00	2024-11-06T02:00:00	5	Humedad	35
98509	7	Sololá	702	San José Chacayá	5	Chacayá	5	Mayo	2023-05-29T00:00:00	2024-11-06T02:00:00	6	Velocidad del viento	0
98510	7	Sololá	702	San José Chacayá	5	Chacayá	5	Mayo	2023-05-29T00:00:00	2024-11-06T02:00:00	7	Dirección del viento	0
98511	7	Sololá	702	San José Chacayá	5	Chacayá	5	Mayo	2023-05-29T00:00:00	2024-11-06T02:00:00	1	Precipitación	3.8
98512	7	Sololá	702	San José Chacayá	5	Chacayá	5	Mayo	2023-05-29T00:00:00	2024-11-06T02:00:00	8	Radiación solar	0
98513	7	Sololá	702	San José Chacayá	5	Chacayá	5	Mayo	2023-05-29T00:00:00	2024-11-06T03:00:00	2	Temperatura media	13.9
98514	7	Sololá	702	San José Chacayá	5	Chacayá	5	Mayo	2023-05-29T00:00:00	2024-11-06T03:00:00	4	Temperatura máxima	14.2
98515	7	Sololá	702	San José Chacayá	5	Chacayá	5	Mayo	2023-05-29T00:00:00	2024-11-06T03:00:00	3	Temperatura mínima	13.8
98516	7	Sololá	702	San José Chacayá	5	Chacayá	5	Mayo	2023-05-29T00:00:00	2024-11-06T03:00:00	5	Humedad	35
98517	7	Sololá	702	San José Chacayá	5	Chacayá	5	Mayo	2023-05-29T00:00:00	2024-11-06T03:00:00	6	Velocidad del viento	0
98518	7	Sololá	702	San José Chacayá	5	Chacayá	5	Mayo	2023-05-29T00:00:00	2024-11-06T03:00:00	7	Dirección del viento	0
98519	7	Sololá	702	San José Chacayá	5	Chacayá	5	Mayo	2023-05-29T00:00:00	2024-11-06T03:00:00	1	Precipitación	2.4
98520	7	Sololá	702	San José Chacayá	5	Chacayá	5	Mayo	2023-05-29T00:00:00	2024-11-06T03:00:00	8	Radiación solar	0
98521	7	Sololá	702	San José Chacayá	5	Chacayá	5	Mayo	2023-05-29T00:00:00	2024-11-06T04:00:00	2	Temperatura media	13.6
98522	7	Sololá	702	San José Chacayá	5	Chacayá	5	Mayo	2023-05-29T00:00:00	2024-11-06T04:00:00	4	Temperatura máxima	13.9
98523	7	Sololá	702	San José Chacayá	5	Chacayá	5	Mayo	2023-05-29T00:00:00	2024-11-06T04:00:00	3	Temperatura mínima	13.6
98524	7	Sololá	702	San José Chacayá	5	Chacayá	5	Mayo	2023-05-29T00:00:00	2024-11-06T04:00:00	5	Humedad	35
98525	7	Sololá	702	San José Chacayá	5	Chacayá	5	Mayo	2023-05-29T00:00:00	2024-11-06T04:00:00	6	Velocidad del viento	0
98526	7	Sololá	702	San José Chacayá	5	Chacayá	5	Mayo	2023-05-29T00:00:00	2024-11-06T04:00:00	7	Dirección del viento	0
98527	7	Sololá	702	San José Chacayá	5	Chacayá	5	Mayo	2023-05-29T00:00:00	2024-11-06T04:00:00	1	Precipitación	2
98528	7	Sololá	702	San José Chacayá	5	Chacayá	5	Mayo	2023-05-29T00:00:00	2024-11-06T04:00:00	8	Radiación solar	0
98529	7	Sololá	702	San José Chacayá	5	Chacayá	5	Mayo	2023-05-29T00:00:00	2024-11-06T05:00:00	2	Temperatura media	13.4
98530	7	Sololá	702	San José Chacayá	5	Chacayá	5	Mayo	2023-05-29T00:00:00	2024-11-06T05:00:00	4	Temperatura máxima	13.6
98531	7	Sololá	702	San José Chacayá	5	Chacayá	5	Mayo	2023-05-29T00:00:00	2024-11-06T05:00:00	3	Temperatura mínima	13.3
98532	7	Sololá	702	San José Chacayá	5	Chacayá	5	Mayo	2023-05-29T00:00:00	2024-11-06T05:00:00	5	Humedad	34
98533	7	Sololá	702	San José Chacayá	5	Chacayá	5	Mayo	2023-05-29T00:00:00	2024-11-06T05:00:00	6	Velocidad del viento	0
98534	7	Sololá	702	San José Chacayá	5	Chacayá	5	Mayo	2023-05-29T00:00:00	2024-11-06T05:00:00	7	Dirección del viento	0
98535	7	Sololá	702	San José Chacayá	5	Chacayá	5	Mayo	2023-05-29T00:00:00	2024-11-06T05:00:00	1	Precipitación	0
98536	7	Sololá	702	San José Chacayá	5	Chacayá	5	Mayo	2023-05-29T00:00:00	2024-11-06T05:00:00	8	Radiación solar	0
98537	7	Sololá	702	San José Chacayá	5	Chacayá	5	Mayo	2023-05-29T00:00:00	2024-11-06T06:00:00	2	Temperatura media	13.4
98538	7	Sololá	702	San José Chacayá	5	Chacayá	5	Mayo	2023-05-29T00:00:00	2024-11-06T06:00:00	4	Temperatura máxima	13.4
98539	7	Sololá	702	San José Chacayá	5	Chacayá	5	Mayo	2023-05-29T00:00:00	2024-11-06T06:00:00	3	Temperatura mínima	13.3
98540	7	Sololá	702	San José Chacayá	5	Chacayá	5	Mayo	2023-05-29T00:00:00	2024-11-06T06:00:00	5	Humedad	31
98541	7	Sololá	702	San José Chacayá	5	Chacayá	5	Mayo	2023-05-29T00:00:00	2024-11-06T06:00:00	6	Velocidad del viento	0
98542	7	Sololá	702	San José Chacayá	5	Chacayá	5	Mayo	2023-05-29T00:00:00	2024-11-06T06:00:00	7	Dirección del viento	0
98543	7	Sololá	702	San José Chacayá	5	Chacayá	5	Mayo	2023-05-29T00:00:00	2024-11-06T06:00:00	1	Precipitación	0
98544	7	Sololá	702	San José Chacayá	5	Chacayá	5	Mayo	2023-05-29T00:00:00	2024-11-06T06:00:00	8	Radiación solar	3
98545	7	Sololá	702	San José Chacayá	5	Chacayá	5	Mayo	2023-05-29T00:00:00	2024-11-06T07:00:00	2	Temperatura media	13.9
98546	7	Sololá	702	San José Chacayá	5	Chacayá	5	Mayo	2023-05-29T00:00:00	2024-11-06T07:00:00	4	Temperatura máxima	13.9
98547	7	Sololá	702	San José Chacayá	5	Chacayá	5	Mayo	2023-05-29T00:00:00	2024-11-06T07:00:00	3	Temperatura mínima	13.3
98548	7	Sololá	702	San José Chacayá	5	Chacayá	5	Mayo	2023-05-29T00:00:00	2024-11-06T07:00:00	5	Humedad	28
98549	7	Sololá	702	San José Chacayá	5	Chacayá	5	Mayo	2023-05-29T00:00:00	2024-11-06T07:00:00	6	Velocidad del viento	0
98550	7	Sololá	702	San José Chacayá	5	Chacayá	5	Mayo	2023-05-29T00:00:00	2024-11-06T07:00:00	7	Dirección del viento	0
98551	7	Sololá	702	San José Chacayá	5	Chacayá	5	Mayo	2023-05-29T00:00:00	2024-11-06T07:00:00	1	Precipitación	0
98552	7	Sololá	702	San José Chacayá	5	Chacayá	5	Mayo	2023-05-29T00:00:00	2024-11-06T07:00:00	8	Radiación solar	46
98553	7	Sololá	702	San José Chacayá	5	Chacayá	5	Mayo	2023-05-29T00:00:00	2024-11-06T08:00:00	2	Temperatura media	14.6
98554	7	Sololá	702	San José Chacayá	5	Chacayá	5	Mayo	2023-05-29T00:00:00	2024-11-06T08:00:00	4	Temperatura máxima	14.6
98555	7	Sololá	702	San José Chacayá	5	Chacayá	5	Mayo	2023-05-29T00:00:00	2024-11-06T08:00:00	3	Temperatura mínima	13.9
98556	7	Sololá	702	San José Chacayá	5	Chacayá	5	Mayo	2023-05-29T00:00:00	2024-11-06T08:00:00	5	Humedad	27
98557	7	Sololá	702	San José Chacayá	5	Chacayá	5	Mayo	2023-05-29T00:00:00	2024-11-06T08:00:00	6	Velocidad del viento	0
98558	7	Sololá	702	San José Chacayá	5	Chacayá	5	Mayo	2023-05-29T00:00:00	2024-11-06T08:00:00	7	Dirección del viento	0
98559	7	Sololá	702	San José Chacayá	5	Chacayá	5	Mayo	2023-05-29T00:00:00	2024-11-06T08:00:00	1	Precipitación	0
98560	7	Sololá	702	San José Chacayá	5	Chacayá	5	Mayo	2023-05-29T00:00:00	2024-11-06T08:00:00	8	Radiación solar	64
98561	7	Sololá	702	San José Chacayá	5	Chacayá	5	Mayo	2023-05-29T00:00:00	2024-11-06T09:00:00	2	Temperatura media	14.6
98562	7	Sololá	702	San José Chacayá	5	Chacayá	5	Mayo	2023-05-29T00:00:00	2024-11-06T09:00:00	4	Temperatura máxima	14.7
98563	7	Sololá	702	San José Chacayá	5	Chacayá	5	Mayo	2023-05-29T00:00:00	2024-11-06T09:00:00	3	Temperatura mínima	14.3
98564	7	Sololá	702	San José Chacayá	5	Chacayá	5	Mayo	2023-05-29T00:00:00	2024-11-06T09:00:00	5	Humedad	53
98565	7	Sololá	702	San José Chacayá	5	Chacayá	5	Mayo	2023-05-29T00:00:00	2024-11-06T09:00:00	6	Velocidad del viento	0
98566	7	Sololá	702	San José Chacayá	5	Chacayá	5	Mayo	2023-05-29T00:00:00	2024-11-06T09:00:00	7	Dirección del viento	0
98567	7	Sololá	702	San José Chacayá	5	Chacayá	5	Mayo	2023-05-29T00:00:00	2024-11-06T09:00:00	1	Precipitación	0.2
98568	7	Sololá	702	San José Chacayá	5	Chacayá	5	Mayo	2023-05-29T00:00:00	2024-11-06T09:00:00	8	Radiación solar	79
98569	7	Sololá	702	San José Chacayá	5	Chacayá	5	Mayo	2023-05-29T00:00:00	2024-11-06T10:00:00	2	Temperatura media	15.8
98570	7	Sololá	702	San José Chacayá	5	Chacayá	5	Mayo	2023-05-29T00:00:00	2024-11-06T10:00:00	4	Temperatura máxima	15.8
98571	7	Sololá	702	San José Chacayá	5	Chacayá	5	Mayo	2023-05-29T00:00:00	2024-11-06T10:00:00	3	Temperatura mínima	14.6
98572	7	Sololá	702	San José Chacayá	5	Chacayá	5	Mayo	2023-05-29T00:00:00	2024-11-06T10:00:00	5	Humedad	60
98573	7	Sololá	702	San José Chacayá	5	Chacayá	5	Mayo	2023-05-29T00:00:00	2024-11-06T10:00:00	6	Velocidad del viento	0
98574	7	Sololá	702	San José Chacayá	5	Chacayá	5	Mayo	2023-05-29T00:00:00	2024-11-06T10:00:00	7	Dirección del viento	0
98575	7	Sololá	702	San José Chacayá	5	Chacayá	5	Mayo	2023-05-29T00:00:00	2024-11-06T10:00:00	1	Precipitación	0
98576	7	Sololá	702	San José Chacayá	5	Chacayá	5	Mayo	2023-05-29T00:00:00	2024-11-06T10:00:00	8	Radiación solar	181
98577	7	Sololá	702	San José Chacayá	5	Chacayá	5	Mayo	2023-05-29T00:00:00	2024-11-06T11:00:00	2	Temperatura media	19.3
98578	7	Sololá	702	San José Chacayá	5	Chacayá	5	Mayo	2023-05-29T00:00:00	2024-11-06T11:00:00	4	Temperatura máxima	19.3
98579	7	Sololá	702	San José Chacayá	5	Chacayá	5	Mayo	2023-05-29T00:00:00	2024-11-06T11:00:00	3	Temperatura mínima	15.8
98580	7	Sololá	702	San José Chacayá	5	Chacayá	5	Mayo	2023-05-29T00:00:00	2024-11-06T11:00:00	5	Humedad	72
98581	7	Sololá	702	San José Chacayá	5	Chacayá	5	Mayo	2023-05-29T00:00:00	2024-11-06T11:00:00	6	Velocidad del viento	1.6
98582	7	Sololá	702	San José Chacayá	5	Chacayá	5	Mayo	2023-05-29T00:00:00	2024-11-06T11:00:00	7	Dirección del viento	1.61
98583	7	Sololá	702	San José Chacayá	5	Chacayá	5	Mayo	2023-05-29T00:00:00	2024-11-06T11:00:00	1	Precipitación	0
98584	7	Sololá	702	San José Chacayá	5	Chacayá	5	Mayo	2023-05-29T00:00:00	2024-11-06T11:00:00	8	Radiación solar	504
98585	7	Sololá	702	San José Chacayá	5	Chacayá	5	Mayo	2023-05-29T00:00:00	2024-11-06T12:00:00	2	Temperatura media	21.6
98586	7	Sololá	702	San José Chacayá	5	Chacayá	5	Mayo	2023-05-29T00:00:00	2024-11-06T12:00:00	4	Temperatura máxima	21.6
98587	7	Sololá	702	San José Chacayá	5	Chacayá	5	Mayo	2023-05-29T00:00:00	2024-11-06T12:00:00	3	Temperatura mínima	19.3
98588	7	Sololá	702	San José Chacayá	5	Chacayá	5	Mayo	2023-05-29T00:00:00	2024-11-06T12:00:00	5	Humedad	74
98589	7	Sololá	702	San José Chacayá	5	Chacayá	5	Mayo	2023-05-29T00:00:00	2024-11-06T12:00:00	6	Velocidad del viento	1.6
98590	7	Sololá	702	San José Chacayá	5	Chacayá	5	Mayo	2023-05-29T00:00:00	2024-11-06T12:00:00	7	Dirección del viento	1.61
98591	7	Sololá	702	San José Chacayá	5	Chacayá	5	Mayo	2023-05-29T00:00:00	2024-11-06T12:00:00	1	Precipitación	0
98592	7	Sololá	702	San José Chacayá	5	Chacayá	5	Mayo	2023-05-29T00:00:00	2024-11-06T12:00:00	8	Radiación solar	703
98593	7	Sololá	702	San José Chacayá	5	Chacayá	5	Mayo	2023-05-29T00:00:00	2024-11-06T13:00:00	2	Temperatura media	20.9
98594	7	Sololá	702	San José Chacayá	5	Chacayá	5	Mayo	2023-05-29T00:00:00	2024-11-06T13:00:00	4	Temperatura máxima	21.7
98595	7	Sololá	702	San José Chacayá	5	Chacayá	5	Mayo	2023-05-29T00:00:00	2024-11-06T13:00:00	3	Temperatura mínima	20.9
98596	7	Sololá	702	San José Chacayá	5	Chacayá	5	Mayo	2023-05-29T00:00:00	2024-11-06T13:00:00	5	Humedad	69
98597	7	Sololá	702	San José Chacayá	5	Chacayá	5	Mayo	2023-05-29T00:00:00	2024-11-06T13:00:00	6	Velocidad del viento	4.8
98598	7	Sololá	702	San José Chacayá	5	Chacayá	5	Mayo	2023-05-29T00:00:00	2024-11-06T13:00:00	7	Dirección del viento	4.83
98599	7	Sololá	702	San José Chacayá	5	Chacayá	5	Mayo	2023-05-29T00:00:00	2024-11-06T13:00:00	1	Precipitación	0
98600	7	Sololá	702	San José Chacayá	5	Chacayá	5	Mayo	2023-05-29T00:00:00	2024-11-06T13:00:00	8	Radiación solar	707
98601	7	Sololá	702	San José Chacayá	5	Chacayá	5	Mayo	2023-05-29T00:00:00	2024-11-06T14:00:00	2	Temperatura media	21.3
98602	7	Sololá	702	San José Chacayá	5	Chacayá	5	Mayo	2023-05-29T00:00:00	2024-11-06T14:00:00	4	Temperatura máxima	21.8
98603	7	Sololá	702	San José Chacayá	5	Chacayá	5	Mayo	2023-05-29T00:00:00	2024-11-06T14:00:00	3	Temperatura mínima	20.9
98604	7	Sololá	702	San José Chacayá	5	Chacayá	5	Mayo	2023-05-29T00:00:00	2024-11-06T14:00:00	5	Humedad	68
98605	7	Sololá	702	San José Chacayá	5	Chacayá	5	Mayo	2023-05-29T00:00:00	2024-11-06T14:00:00	6	Velocidad del viento	3.2
98606	7	Sololá	702	San José Chacayá	5	Chacayá	5	Mayo	2023-05-29T00:00:00	2024-11-06T14:00:00	7	Dirección del viento	3.22
98607	7	Sololá	702	San José Chacayá	5	Chacayá	5	Mayo	2023-05-29T00:00:00	2024-11-06T14:00:00	1	Precipitación	0
98608	7	Sololá	702	San José Chacayá	5	Chacayá	5	Mayo	2023-05-29T00:00:00	2024-11-06T14:00:00	8	Radiación solar	698
98609	7	Sololá	702	San José Chacayá	5	Chacayá	5	Mayo	2023-05-29T00:00:00	2024-11-06T15:00:00	2	Temperatura media	20
98610	7	Sololá	702	San José Chacayá	5	Chacayá	5	Mayo	2023-05-29T00:00:00	2024-11-06T15:00:00	4	Temperatura máxima	21.3
98611	7	Sololá	702	San José Chacayá	5	Chacayá	5	Mayo	2023-05-29T00:00:00	2024-11-06T15:00:00	3	Temperatura mínima	20
98612	7	Sololá	702	San José Chacayá	5	Chacayá	5	Mayo	2023-05-29T00:00:00	2024-11-06T15:00:00	5	Humedad	74
98613	7	Sololá	702	San José Chacayá	5	Chacayá	5	Mayo	2023-05-29T00:00:00	2024-11-06T15:00:00	6	Velocidad del viento	4.8
98614	7	Sololá	702	San José Chacayá	5	Chacayá	5	Mayo	2023-05-29T00:00:00	2024-11-06T15:00:00	7	Dirección del viento	4.83
98615	7	Sololá	702	San José Chacayá	5	Chacayá	5	Mayo	2023-05-29T00:00:00	2024-11-06T15:00:00	1	Precipitación	0
98616	7	Sololá	702	San José Chacayá	5	Chacayá	5	Mayo	2023-05-29T00:00:00	2024-11-06T15:00:00	8	Radiación solar	427
98617	7	Sololá	702	San José Chacayá	5	Chacayá	5	Mayo	2023-05-29T00:00:00	2024-11-06T16:00:00	2	Temperatura media	18.2
98618	7	Sololá	702	San José Chacayá	5	Chacayá	5	Mayo	2023-05-29T00:00:00	2024-11-06T16:00:00	4	Temperatura máxima	20
98619	7	Sololá	702	San José Chacayá	5	Chacayá	5	Mayo	2023-05-29T00:00:00	2024-11-06T16:00:00	3	Temperatura mínima	18.2
98620	7	Sololá	702	San José Chacayá	5	Chacayá	5	Mayo	2023-05-29T00:00:00	2024-11-06T16:00:00	5	Humedad	78
98621	7	Sololá	702	San José Chacayá	5	Chacayá	5	Mayo	2023-05-29T00:00:00	2024-11-06T16:00:00	6	Velocidad del viento	1.6
98622	7	Sololá	702	San José Chacayá	5	Chacayá	5	Mayo	2023-05-29T00:00:00	2024-11-06T16:00:00	7	Dirección del viento	1.61
98623	7	Sololá	702	San José Chacayá	5	Chacayá	5	Mayo	2023-05-29T00:00:00	2024-11-06T16:00:00	1	Precipitación	0.6
98624	7	Sololá	702	San José Chacayá	5	Chacayá	5	Mayo	2023-05-29T00:00:00	2024-11-06T16:00:00	8	Radiación solar	106
98625	7	Sololá	702	San José Chacayá	5	Chacayá	5	Mayo	2023-05-29T00:00:00	2024-11-06T17:00:00	2	Temperatura media	14.6
98626	7	Sololá	702	San José Chacayá	5	Chacayá	5	Mayo	2023-05-29T00:00:00	2024-11-06T17:00:00	4	Temperatura máxima	18.2
98627	7	Sololá	702	San José Chacayá	5	Chacayá	5	Mayo	2023-05-29T00:00:00	2024-11-06T17:00:00	3	Temperatura mínima	14.6
98628	7	Sololá	702	San José Chacayá	5	Chacayá	5	Mayo	2023-05-29T00:00:00	2024-11-06T17:00:00	5	Humedad	80
98629	7	Sololá	702	San José Chacayá	5	Chacayá	5	Mayo	2023-05-29T00:00:00	2024-11-06T17:00:00	6	Velocidad del viento	1.6
98630	7	Sololá	702	San José Chacayá	5	Chacayá	5	Mayo	2023-05-29T00:00:00	2024-11-06T17:00:00	7	Dirección del viento	1.61
98631	7	Sololá	702	San José Chacayá	5	Chacayá	5	Mayo	2023-05-29T00:00:00	2024-11-06T17:00:00	1	Precipitación	11
98632	7	Sololá	702	San José Chacayá	5	Chacayá	5	Mayo	2023-05-29T00:00:00	2024-11-06T17:00:00	8	Radiación solar	40
98633	7	Sololá	702	San José Chacayá	5	Chacayá	5	Mayo	2023-05-29T00:00:00	2024-11-06T18:00:00	2	Temperatura media	14.3
98634	7	Sololá	702	San José Chacayá	5	Chacayá	5	Mayo	2023-05-29T00:00:00	2024-11-06T18:00:00	4	Temperatura máxima	14.6
98635	7	Sololá	702	San José Chacayá	5	Chacayá	5	Mayo	2023-05-29T00:00:00	2024-11-06T18:00:00	3	Temperatura mínima	14.3
98636	7	Sololá	702	San José Chacayá	5	Chacayá	5	Mayo	2023-05-29T00:00:00	2024-11-06T18:00:00	5	Humedad	73
98637	7	Sololá	702	San José Chacayá	5	Chacayá	5	Mayo	2023-05-29T00:00:00	2024-11-06T18:00:00	6	Velocidad del viento	1.6
98638	7	Sololá	702	San José Chacayá	5	Chacayá	5	Mayo	2023-05-29T00:00:00	2024-11-06T18:00:00	7	Dirección del viento	1.61
98639	7	Sololá	702	San José Chacayá	5	Chacayá	5	Mayo	2023-05-29T00:00:00	2024-11-06T18:00:00	1	Precipitación	0.2
98640	7	Sololá	702	San José Chacayá	5	Chacayá	5	Mayo	2023-05-29T00:00:00	2024-11-06T18:00:00	8	Radiación solar	65
98641	7	Sololá	702	San José Chacayá	5	Chacayá	5	Mayo	2023-05-29T00:00:00	2024-11-06T19:00:00	2	Temperatura media	13.8
98642	7	Sololá	702	San José Chacayá	5	Chacayá	5	Mayo	2023-05-29T00:00:00	2024-11-06T19:00:00	4	Temperatura máxima	14.4
98643	7	Sololá	702	San José Chacayá	5	Chacayá	5	Mayo	2023-05-29T00:00:00	2024-11-06T19:00:00	3	Temperatura mínima	13.8
98644	7	Sololá	702	San José Chacayá	5	Chacayá	5	Mayo	2023-05-29T00:00:00	2024-11-06T19:00:00	5	Humedad	72
98645	7	Sololá	702	San José Chacayá	5	Chacayá	5	Mayo	2023-05-29T00:00:00	2024-11-06T19:00:00	6	Velocidad del viento	1.6
98646	7	Sololá	702	San José Chacayá	5	Chacayá	5	Mayo	2023-05-29T00:00:00	2024-11-06T19:00:00	7	Dirección del viento	1.61
98647	7	Sololá	702	San José Chacayá	5	Chacayá	5	Mayo	2023-05-29T00:00:00	2024-11-06T19:00:00	1	Precipitación	0
98648	7	Sololá	702	San José Chacayá	5	Chacayá	5	Mayo	2023-05-29T00:00:00	2024-11-06T19:00:00	8	Radiación solar	0
98649	7	Sololá	702	San José Chacayá	5	Chacayá	5	Mayo	2023-05-29T00:00:00	2024-11-06T20:00:00	2	Temperatura media	13.3
98650	7	Sololá	702	San José Chacayá	5	Chacayá	5	Mayo	2023-05-29T00:00:00	2024-11-06T20:00:00	4	Temperatura máxima	13.8
98651	7	Sololá	702	San José Chacayá	5	Chacayá	5	Mayo	2023-05-29T00:00:00	2024-11-06T20:00:00	3	Temperatura mínima	13.3
98652	7	Sololá	702	San José Chacayá	5	Chacayá	5	Mayo	2023-05-29T00:00:00	2024-11-06T20:00:00	5	Humedad	66
98653	7	Sololá	702	San José Chacayá	5	Chacayá	5	Mayo	2023-05-29T00:00:00	2024-11-06T20:00:00	6	Velocidad del viento	1.6
98654	7	Sololá	702	San José Chacayá	5	Chacayá	5	Mayo	2023-05-29T00:00:00	2024-11-06T20:00:00	7	Dirección del viento	1.61
98655	7	Sololá	702	San José Chacayá	5	Chacayá	5	Mayo	2023-05-29T00:00:00	2024-11-06T20:00:00	1	Precipitación	0
98656	7	Sololá	702	San José Chacayá	5	Chacayá	5	Mayo	2023-05-29T00:00:00	2024-11-06T20:00:00	8	Radiación solar	0
98657	7	Sololá	702	San José Chacayá	5	Chacayá	5	Mayo	2023-05-29T00:00:00	2024-11-06T21:00:00	2	Temperatura media	12.6
98658	7	Sololá	702	San José Chacayá	5	Chacayá	5	Mayo	2023-05-29T00:00:00	2024-11-06T21:00:00	4	Temperatura máxima	13.3
98659	7	Sololá	702	San José Chacayá	5	Chacayá	5	Mayo	2023-05-29T00:00:00	2024-11-06T21:00:00	3	Temperatura mínima	12.6
98660	7	Sololá	702	San José Chacayá	5	Chacayá	5	Mayo	2023-05-29T00:00:00	2024-11-06T21:00:00	5	Humedad	61
98661	7	Sololá	702	San José Chacayá	5	Chacayá	5	Mayo	2023-05-29T00:00:00	2024-11-06T21:00:00	6	Velocidad del viento	1.6
98662	7	Sololá	702	San José Chacayá	5	Chacayá	5	Mayo	2023-05-29T00:00:00	2024-11-06T21:00:00	7	Dirección del viento	1.61
98663	7	Sololá	702	San José Chacayá	5	Chacayá	5	Mayo	2023-05-29T00:00:00	2024-11-06T21:00:00	1	Precipitación	0
98664	7	Sololá	702	San José Chacayá	5	Chacayá	5	Mayo	2023-05-29T00:00:00	2024-11-06T21:00:00	8	Radiación solar	0
98665	7	Sololá	702	San José Chacayá	5	Chacayá	5	Mayo	2023-05-29T00:00:00	2024-11-06T22:00:00	2	Temperatura media	12.4
98666	7	Sololá	702	San José Chacayá	5	Chacayá	5	Mayo	2023-05-29T00:00:00	2024-11-06T22:00:00	4	Temperatura máxima	12.6
98667	7	Sololá	702	San José Chacayá	5	Chacayá	5	Mayo	2023-05-29T00:00:00	2024-11-06T22:00:00	3	Temperatura mínima	12.3
98668	7	Sololá	702	San José Chacayá	5	Chacayá	5	Mayo	2023-05-29T00:00:00	2024-11-06T22:00:00	5	Humedad	63
98669	7	Sololá	702	San José Chacayá	5	Chacayá	5	Mayo	2023-05-29T00:00:00	2024-11-06T22:00:00	6	Velocidad del viento	1.6
98670	7	Sololá	702	San José Chacayá	5	Chacayá	5	Mayo	2023-05-29T00:00:00	2024-11-06T22:00:00	7	Dirección del viento	1.61
98671	7	Sololá	702	San José Chacayá	5	Chacayá	5	Mayo	2023-05-29T00:00:00	2024-11-06T22:00:00	1	Precipitación	0
98672	7	Sololá	702	San José Chacayá	5	Chacayá	5	Mayo	2023-05-29T00:00:00	2024-11-06T22:00:00	8	Radiación solar	0
98673	7	Sololá	702	San José Chacayá	5	Chacayá	5	Mayo	2023-05-29T00:00:00	2024-11-06T23:00:00	2	Temperatura media	12
98674	7	Sololá	702	San José Chacayá	5	Chacayá	5	Mayo	2023-05-29T00:00:00	2024-11-06T23:00:00	4	Temperatura máxima	12.4
98675	7	Sololá	702	San José Chacayá	5	Chacayá	5	Mayo	2023-05-29T00:00:00	2024-11-06T23:00:00	3	Temperatura mínima	12
98676	7	Sololá	702	San José Chacayá	5	Chacayá	5	Mayo	2023-05-29T00:00:00	2024-11-06T23:00:00	5	Humedad	70
98677	7	Sololá	702	San José Chacayá	5	Chacayá	5	Mayo	2023-05-29T00:00:00	2024-11-06T23:00:00	6	Velocidad del viento	3.2
98678	7	Sololá	702	San José Chacayá	5	Chacayá	5	Mayo	2023-05-29T00:00:00	2024-11-06T23:00:00	7	Dirección del viento	3.22
98679	7	Sololá	702	San José Chacayá	5	Chacayá	5	Mayo	2023-05-29T00:00:00	2024-11-06T23:00:00	1	Precipitación	0
98680	7	Sololá	702	San José Chacayá	5	Chacayá	5	Mayo	2023-05-29T00:00:00	2024-11-06T23:00:00	8	Radiación solar	0
98681	7	Sololá	702	San José Chacayá	5	Chacayá	5	Mayo	2023-05-30T00:00:00	2024-11-06T00:00:00	2	Temperatura media	12.1
98682	7	Sololá	702	San José Chacayá	5	Chacayá	5	Mayo	2023-05-30T00:00:00	2024-11-06T00:00:00	4	Temperatura máxima	12.1
98683	7	Sololá	702	San José Chacayá	5	Chacayá	5	Mayo	2023-05-30T00:00:00	2024-11-06T00:00:00	3	Temperatura mínima	11.8
98684	7	Sololá	702	San José Chacayá	5	Chacayá	5	Mayo	2023-05-30T00:00:00	2024-11-06T00:00:00	5	Humedad	66
98685	7	Sololá	702	San José Chacayá	5	Chacayá	5	Mayo	2023-05-30T00:00:00	2024-11-06T00:00:00	6	Velocidad del viento	3.2
98686	7	Sololá	702	San José Chacayá	5	Chacayá	5	Mayo	2023-05-30T00:00:00	2024-11-06T00:00:00	7	Dirección del viento	3.22
98687	7	Sololá	702	San José Chacayá	5	Chacayá	5	Mayo	2023-05-30T00:00:00	2024-11-06T00:00:00	1	Precipitación	0.2
98688	7	Sololá	702	San José Chacayá	5	Chacayá	5	Mayo	2023-05-30T00:00:00	2024-11-06T00:00:00	8	Radiación solar	0
98689	7	Sololá	702	San José Chacayá	5	Chacayá	5	Mayo	2023-05-30T00:00:00	2024-11-06T01:00:00	2	Temperatura media	12.5
98690	7	Sololá	702	San José Chacayá	5	Chacayá	5	Mayo	2023-05-30T00:00:00	2024-11-06T01:00:00	4	Temperatura máxima	12.5
98691	7	Sololá	702	San José Chacayá	5	Chacayá	5	Mayo	2023-05-30T00:00:00	2024-11-06T01:00:00	3	Temperatura mínima	12.1
98692	7	Sololá	702	San José Chacayá	5	Chacayá	5	Mayo	2023-05-30T00:00:00	2024-11-06T01:00:00	5	Humedad	68
98693	7	Sololá	702	San José Chacayá	5	Chacayá	5	Mayo	2023-05-30T00:00:00	2024-11-06T01:00:00	6	Velocidad del viento	3.2
98694	7	Sololá	702	San José Chacayá	5	Chacayá	5	Mayo	2023-05-30T00:00:00	2024-11-06T01:00:00	7	Dirección del viento	3.22
98695	7	Sololá	702	San José Chacayá	5	Chacayá	5	Mayo	2023-05-30T00:00:00	2024-11-06T01:00:00	1	Precipitación	0
98696	7	Sololá	702	San José Chacayá	5	Chacayá	5	Mayo	2023-05-30T00:00:00	2024-11-06T01:00:00	8	Radiación solar	0
98697	7	Sololá	702	San José Chacayá	5	Chacayá	5	Mayo	2023-05-30T00:00:00	2024-11-06T02:00:00	2	Temperatura media	12.6
98698	7	Sololá	702	San José Chacayá	5	Chacayá	5	Mayo	2023-05-30T00:00:00	2024-11-06T02:00:00	4	Temperatura máxima	12.7
98699	7	Sololá	702	San José Chacayá	5	Chacayá	5	Mayo	2023-05-30T00:00:00	2024-11-06T02:00:00	3	Temperatura mínima	12.4
98700	7	Sololá	702	San José Chacayá	5	Chacayá	5	Mayo	2023-05-30T00:00:00	2024-11-06T02:00:00	5	Humedad	63
98701	7	Sololá	702	San José Chacayá	5	Chacayá	5	Mayo	2023-05-30T00:00:00	2024-11-06T02:00:00	6	Velocidad del viento	1.6
98702	7	Sololá	702	San José Chacayá	5	Chacayá	5	Mayo	2023-05-30T00:00:00	2024-11-06T02:00:00	7	Dirección del viento	1.61
98703	7	Sololá	702	San José Chacayá	5	Chacayá	5	Mayo	2023-05-30T00:00:00	2024-11-06T02:00:00	1	Precipitación	0
98704	7	Sololá	702	San José Chacayá	5	Chacayá	5	Mayo	2023-05-30T00:00:00	2024-11-06T02:00:00	8	Radiación solar	0
98705	7	Sololá	702	San José Chacayá	5	Chacayá	5	Mayo	2023-05-30T00:00:00	2024-11-06T03:00:00	2	Temperatura media	12.9
98706	7	Sololá	702	San José Chacayá	5	Chacayá	5	Mayo	2023-05-30T00:00:00	2024-11-06T03:00:00	4	Temperatura máxima	13
98707	7	Sololá	702	San José Chacayá	5	Chacayá	5	Mayo	2023-05-30T00:00:00	2024-11-06T03:00:00	3	Temperatura mínima	12.6
98708	7	Sololá	702	San José Chacayá	5	Chacayá	5	Mayo	2023-05-30T00:00:00	2024-11-06T03:00:00	5	Humedad	72
98709	7	Sololá	702	San José Chacayá	5	Chacayá	5	Mayo	2023-05-30T00:00:00	2024-11-06T03:00:00	6	Velocidad del viento	1.6
98710	7	Sololá	702	San José Chacayá	5	Chacayá	5	Mayo	2023-05-30T00:00:00	2024-11-06T03:00:00	7	Dirección del viento	1.61
98711	7	Sololá	702	San José Chacayá	5	Chacayá	5	Mayo	2023-05-30T00:00:00	2024-11-06T03:00:00	1	Precipitación	0
98712	7	Sololá	702	San José Chacayá	5	Chacayá	5	Mayo	2023-05-30T00:00:00	2024-11-06T03:00:00	8	Radiación solar	0
98713	7	Sololá	702	San José Chacayá	5	Chacayá	5	Mayo	2023-05-30T00:00:00	2024-11-06T04:00:00	2	Temperatura media	12.2
98714	7	Sololá	702	San José Chacayá	5	Chacayá	5	Mayo	2023-05-30T00:00:00	2024-11-06T04:00:00	4	Temperatura máxima	12.9
98715	7	Sololá	702	San José Chacayá	5	Chacayá	5	Mayo	2023-05-30T00:00:00	2024-11-06T04:00:00	3	Temperatura mínima	12.2
98716	7	Sololá	702	San José Chacayá	5	Chacayá	5	Mayo	2023-05-30T00:00:00	2024-11-06T04:00:00	5	Humedad	62
98717	7	Sololá	702	San José Chacayá	5	Chacayá	5	Mayo	2023-05-30T00:00:00	2024-11-06T04:00:00	6	Velocidad del viento	1.6
98718	7	Sololá	702	San José Chacayá	5	Chacayá	5	Mayo	2023-05-30T00:00:00	2024-11-06T04:00:00	7	Dirección del viento	1.61
98719	7	Sololá	702	San José Chacayá	5	Chacayá	5	Mayo	2023-05-30T00:00:00	2024-11-06T04:00:00	1	Precipitación	0
98720	7	Sololá	702	San José Chacayá	5	Chacayá	5	Mayo	2023-05-30T00:00:00	2024-11-06T04:00:00	8	Radiación solar	0
98721	7	Sololá	702	San José Chacayá	5	Chacayá	5	Mayo	2023-05-30T00:00:00	2024-11-06T05:00:00	2	Temperatura media	12.2
98722	7	Sololá	702	San José Chacayá	5	Chacayá	5	Mayo	2023-05-30T00:00:00	2024-11-06T05:00:00	4	Temperatura máxima	12.2
98723	7	Sololá	702	San José Chacayá	5	Chacayá	5	Mayo	2023-05-30T00:00:00	2024-11-06T05:00:00	3	Temperatura mínima	12.2
98724	7	Sololá	702	San José Chacayá	5	Chacayá	5	Mayo	2023-05-30T00:00:00	2024-11-06T05:00:00	5	Humedad	58
98725	7	Sololá	702	San José Chacayá	5	Chacayá	5	Mayo	2023-05-30T00:00:00	2024-11-06T05:00:00	6	Velocidad del viento	1.6
98726	7	Sololá	702	San José Chacayá	5	Chacayá	5	Mayo	2023-05-30T00:00:00	2024-11-06T05:00:00	7	Dirección del viento	1.61
98727	7	Sololá	702	San José Chacayá	5	Chacayá	5	Mayo	2023-05-30T00:00:00	2024-11-06T05:00:00	1	Precipitación	0
98728	7	Sololá	702	San José Chacayá	5	Chacayá	5	Mayo	2023-05-30T00:00:00	2024-11-06T05:00:00	8	Radiación solar	0
98729	7	Sololá	702	San José Chacayá	5	Chacayá	5	Mayo	2023-05-30T00:00:00	2024-11-06T06:00:00	2	Temperatura media	11.9
98730	7	Sololá	702	San José Chacayá	5	Chacayá	5	Mayo	2023-05-30T00:00:00	2024-11-06T06:00:00	4	Temperatura máxima	12.2
98731	7	Sololá	702	San José Chacayá	5	Chacayá	5	Mayo	2023-05-30T00:00:00	2024-11-06T06:00:00	3	Temperatura mínima	11.8
98732	7	Sololá	702	San José Chacayá	5	Chacayá	5	Mayo	2023-05-30T00:00:00	2024-11-06T06:00:00	5	Humedad	64
98733	7	Sololá	702	San José Chacayá	5	Chacayá	5	Mayo	2023-05-30T00:00:00	2024-11-06T06:00:00	6	Velocidad del viento	3.2
98734	7	Sololá	702	San José Chacayá	5	Chacayá	5	Mayo	2023-05-30T00:00:00	2024-11-06T06:00:00	7	Dirección del viento	3.22
98735	7	Sololá	702	San José Chacayá	5	Chacayá	5	Mayo	2023-05-30T00:00:00	2024-11-06T06:00:00	1	Precipitación	0
98736	7	Sololá	702	San José Chacayá	5	Chacayá	5	Mayo	2023-05-30T00:00:00	2024-11-06T06:00:00	8	Radiación solar	7
98737	7	Sololá	702	San José Chacayá	5	Chacayá	5	Mayo	2023-05-30T00:00:00	2024-11-06T07:00:00	2	Temperatura media	14
98738	7	Sololá	702	San José Chacayá	5	Chacayá	5	Mayo	2023-05-30T00:00:00	2024-11-06T07:00:00	4	Temperatura máxima	14
98739	7	Sololá	702	San José Chacayá	5	Chacayá	5	Mayo	2023-05-30T00:00:00	2024-11-06T07:00:00	3	Temperatura mínima	11.8
98740	7	Sololá	702	San José Chacayá	5	Chacayá	5	Mayo	2023-05-30T00:00:00	2024-11-06T07:00:00	5	Humedad	67
98741	7	Sololá	702	San José Chacayá	5	Chacayá	5	Mayo	2023-05-30T00:00:00	2024-11-06T07:00:00	6	Velocidad del viento	1.6
98742	7	Sololá	702	San José Chacayá	5	Chacayá	5	Mayo	2023-05-30T00:00:00	2024-11-06T07:00:00	7	Dirección del viento	1.61
98743	7	Sololá	702	San José Chacayá	5	Chacayá	5	Mayo	2023-05-30T00:00:00	2024-11-06T07:00:00	1	Precipitación	0
98744	7	Sololá	702	San José Chacayá	5	Chacayá	5	Mayo	2023-05-30T00:00:00	2024-11-06T07:00:00	8	Radiación solar	82
98745	7	Sololá	702	San José Chacayá	5	Chacayá	5	Mayo	2023-05-30T00:00:00	2024-11-06T08:00:00	2	Temperatura media	15.7
98746	7	Sololá	702	San José Chacayá	5	Chacayá	5	Mayo	2023-05-30T00:00:00	2024-11-06T08:00:00	4	Temperatura máxima	15.7
98747	7	Sololá	702	San José Chacayá	5	Chacayá	5	Mayo	2023-05-30T00:00:00	2024-11-06T08:00:00	3	Temperatura mínima	14
98748	7	Sololá	702	San José Chacayá	5	Chacayá	5	Mayo	2023-05-30T00:00:00	2024-11-06T08:00:00	5	Humedad	82
98749	7	Sololá	702	San José Chacayá	5	Chacayá	5	Mayo	2023-05-30T00:00:00	2024-11-06T08:00:00	6	Velocidad del viento	0
98750	7	Sololá	702	San José Chacayá	5	Chacayá	5	Mayo	2023-05-30T00:00:00	2024-11-06T08:00:00	7	Dirección del viento	0
98751	7	Sololá	702	San José Chacayá	5	Chacayá	5	Mayo	2023-05-30T00:00:00	2024-11-06T08:00:00	1	Precipitación	0
98752	7	Sololá	702	San José Chacayá	5	Chacayá	5	Mayo	2023-05-30T00:00:00	2024-11-06T08:00:00	8	Radiación solar	133
98753	7	Sololá	702	San José Chacayá	5	Chacayá	5	Mayo	2023-05-30T00:00:00	2024-11-06T09:00:00	2	Temperatura media	18.8
98754	7	Sololá	702	San José Chacayá	5	Chacayá	5	Mayo	2023-05-30T00:00:00	2024-11-06T09:00:00	4	Temperatura máxima	18.8
98755	7	Sololá	702	San José Chacayá	5	Chacayá	5	Mayo	2023-05-30T00:00:00	2024-11-06T09:00:00	3	Temperatura mínima	15.8
98756	7	Sololá	702	San José Chacayá	5	Chacayá	5	Mayo	2023-05-30T00:00:00	2024-11-06T09:00:00	5	Humedad	73
98757	7	Sololá	702	San José Chacayá	5	Chacayá	5	Mayo	2023-05-30T00:00:00	2024-11-06T09:00:00	6	Velocidad del viento	3.2
98758	7	Sololá	702	San José Chacayá	5	Chacayá	5	Mayo	2023-05-30T00:00:00	2024-11-06T09:00:00	7	Dirección del viento	3.22
98759	7	Sololá	702	San José Chacayá	5	Chacayá	5	Mayo	2023-05-30T00:00:00	2024-11-06T09:00:00	1	Precipitación	0
98760	7	Sololá	702	San José Chacayá	5	Chacayá	5	Mayo	2023-05-30T00:00:00	2024-11-06T09:00:00	8	Radiación solar	459
98761	7	Sololá	702	San José Chacayá	5	Chacayá	5	Mayo	2023-05-30T00:00:00	2024-11-06T10:00:00	2	Temperatura media	20.3
98762	7	Sololá	702	San José Chacayá	5	Chacayá	5	Mayo	2023-05-30T00:00:00	2024-11-06T10:00:00	4	Temperatura máxima	20.3
98763	7	Sololá	702	San José Chacayá	5	Chacayá	5	Mayo	2023-05-30T00:00:00	2024-11-06T10:00:00	3	Temperatura mínima	18.8
98764	7	Sololá	702	San José Chacayá	5	Chacayá	5	Mayo	2023-05-30T00:00:00	2024-11-06T10:00:00	5	Humedad	71
98765	7	Sololá	702	San José Chacayá	5	Chacayá	5	Mayo	2023-05-30T00:00:00	2024-11-06T10:00:00	6	Velocidad del viento	4.8
98766	7	Sololá	702	San José Chacayá	5	Chacayá	5	Mayo	2023-05-30T00:00:00	2024-11-06T10:00:00	7	Dirección del viento	4.83
98767	7	Sololá	702	San José Chacayá	5	Chacayá	5	Mayo	2023-05-30T00:00:00	2024-11-06T10:00:00	1	Precipitación	0
98768	7	Sololá	702	San José Chacayá	5	Chacayá	5	Mayo	2023-05-30T00:00:00	2024-11-06T10:00:00	8	Radiación solar	785
98769	7	Sololá	702	San José Chacayá	5	Chacayá	5	Mayo	2023-05-30T00:00:00	2024-11-06T11:00:00	2	Temperatura media	20.9
98770	7	Sololá	702	San José Chacayá	5	Chacayá	5	Mayo	2023-05-30T00:00:00	2024-11-06T11:00:00	4	Temperatura máxima	21.2
98771	7	Sololá	702	San José Chacayá	5	Chacayá	5	Mayo	2023-05-30T00:00:00	2024-11-06T11:00:00	3	Temperatura mínima	20.2
98772	7	Sololá	702	San José Chacayá	5	Chacayá	5	Mayo	2023-05-30T00:00:00	2024-11-06T11:00:00	5	Humedad	70
98773	7	Sololá	702	San José Chacayá	5	Chacayá	5	Mayo	2023-05-30T00:00:00	2024-11-06T11:00:00	6	Velocidad del viento	6.4
98774	7	Sololá	702	San José Chacayá	5	Chacayá	5	Mayo	2023-05-30T00:00:00	2024-11-06T11:00:00	7	Dirección del viento	6.44
98775	7	Sololá	702	San José Chacayá	5	Chacayá	5	Mayo	2023-05-30T00:00:00	2024-11-06T11:00:00	1	Precipitación	0
98776	7	Sololá	702	San José Chacayá	5	Chacayá	5	Mayo	2023-05-30T00:00:00	2024-11-06T11:00:00	8	Radiación solar	936
98777	7	Sololá	702	San José Chacayá	5	Chacayá	5	Mayo	2023-05-30T00:00:00	2024-11-06T12:00:00	2	Temperatura media	19.2
98778	7	Sololá	702	San José Chacayá	5	Chacayá	5	Mayo	2023-05-30T00:00:00	2024-11-06T12:00:00	4	Temperatura máxima	21.1
98779	7	Sololá	702	San José Chacayá	5	Chacayá	5	Mayo	2023-05-30T00:00:00	2024-11-06T12:00:00	3	Temperatura mínima	19.2
98780	7	Sololá	702	San José Chacayá	5	Chacayá	5	Mayo	2023-05-30T00:00:00	2024-11-06T12:00:00	5	Humedad	77
98781	7	Sololá	702	San José Chacayá	5	Chacayá	5	Mayo	2023-05-30T00:00:00	2024-11-06T12:00:00	6	Velocidad del viento	6.4
98782	7	Sololá	702	San José Chacayá	5	Chacayá	5	Mayo	2023-05-30T00:00:00	2024-11-06T12:00:00	7	Dirección del viento	6.44
98783	7	Sololá	702	San José Chacayá	5	Chacayá	5	Mayo	2023-05-30T00:00:00	2024-11-06T12:00:00	1	Precipitación	0
98784	7	Sololá	702	San José Chacayá	5	Chacayá	5	Mayo	2023-05-30T00:00:00	2024-11-06T12:00:00	8	Radiación solar	609
98785	7	Sololá	702	San José Chacayá	5	Chacayá	5	Mayo	2023-05-30T00:00:00	2024-11-06T13:00:00	2	Temperatura media	18.2
98786	7	Sololá	702	San José Chacayá	5	Chacayá	5	Mayo	2023-05-30T00:00:00	2024-11-06T13:00:00	4	Temperatura máxima	19.7
98787	7	Sololá	702	San José Chacayá	5	Chacayá	5	Mayo	2023-05-30T00:00:00	2024-11-06T13:00:00	3	Temperatura mínima	18.2
98788	7	Sololá	702	San José Chacayá	5	Chacayá	5	Mayo	2023-05-30T00:00:00	2024-11-06T13:00:00	5	Humedad	81
98789	7	Sololá	702	San José Chacayá	5	Chacayá	5	Mayo	2023-05-30T00:00:00	2024-11-06T13:00:00	6	Velocidad del viento	4.8
98790	7	Sololá	702	San José Chacayá	5	Chacayá	5	Mayo	2023-05-30T00:00:00	2024-11-06T13:00:00	7	Dirección del viento	4.83
98791	7	Sololá	702	San José Chacayá	5	Chacayá	5	Mayo	2023-05-30T00:00:00	2024-11-06T13:00:00	1	Precipitación	0
98792	7	Sololá	702	San José Chacayá	5	Chacayá	5	Mayo	2023-05-30T00:00:00	2024-11-06T13:00:00	8	Radiación solar	266
98793	7	Sololá	702	San José Chacayá	5	Chacayá	5	Mayo	2023-05-30T00:00:00	2024-11-06T14:00:00	2	Temperatura media	16.4
98794	7	Sololá	702	San José Chacayá	5	Chacayá	5	Mayo	2023-05-30T00:00:00	2024-11-06T14:00:00	4	Temperatura máxima	18.2
98795	7	Sololá	702	San José Chacayá	5	Chacayá	5	Mayo	2023-05-30T00:00:00	2024-11-06T14:00:00	3	Temperatura mínima	16.4
98796	7	Sololá	702	San José Chacayá	5	Chacayá	5	Mayo	2023-05-30T00:00:00	2024-11-06T14:00:00	5	Humedad	76
98797	7	Sololá	702	San José Chacayá	5	Chacayá	5	Mayo	2023-05-30T00:00:00	2024-11-06T14:00:00	6	Velocidad del viento	0
98798	7	Sololá	702	San José Chacayá	5	Chacayá	5	Mayo	2023-05-30T00:00:00	2024-11-06T14:00:00	7	Dirección del viento	0
98799	7	Sololá	702	San José Chacayá	5	Chacayá	5	Mayo	2023-05-30T00:00:00	2024-11-06T14:00:00	1	Precipitación	1.6
98800	7	Sololá	702	San José Chacayá	5	Chacayá	5	Mayo	2023-05-30T00:00:00	2024-11-06T14:00:00	8	Radiación solar	79
98801	7	Sololá	702	San José Chacayá	5	Chacayá	5	Mayo	2023-05-30T00:00:00	2024-11-06T15:00:00	2	Temperatura media	15.2
98802	7	Sololá	702	San José Chacayá	5	Chacayá	5	Mayo	2023-05-30T00:00:00	2024-11-06T15:00:00	4	Temperatura máxima	16.7
98803	7	Sololá	702	San José Chacayá	5	Chacayá	5	Mayo	2023-05-30T00:00:00	2024-11-06T15:00:00	3	Temperatura mínima	15
98804	7	Sololá	702	San José Chacayá	5	Chacayá	5	Mayo	2023-05-30T00:00:00	2024-11-06T15:00:00	5	Humedad	57
98805	7	Sololá	702	San José Chacayá	5	Chacayá	5	Mayo	2023-05-30T00:00:00	2024-11-06T15:00:00	6	Velocidad del viento	4.8
98806	7	Sololá	702	San José Chacayá	5	Chacayá	5	Mayo	2023-05-30T00:00:00	2024-11-06T15:00:00	7	Dirección del viento	4.83
98807	7	Sololá	702	San José Chacayá	5	Chacayá	5	Mayo	2023-05-30T00:00:00	2024-11-06T15:00:00	1	Precipitación	0.2
98808	7	Sololá	702	San José Chacayá	5	Chacayá	5	Mayo	2023-05-30T00:00:00	2024-11-06T15:00:00	8	Radiación solar	66
98809	7	Sololá	702	San José Chacayá	5	Chacayá	5	Mayo	2023-05-30T00:00:00	2024-11-06T16:00:00	2	Temperatura media	15.5
98810	7	Sololá	702	San José Chacayá	5	Chacayá	5	Mayo	2023-05-30T00:00:00	2024-11-06T16:00:00	4	Temperatura máxima	16.1
98811	7	Sololá	702	San José Chacayá	5	Chacayá	5	Mayo	2023-05-30T00:00:00	2024-11-06T16:00:00	3	Temperatura mínima	15.2
98812	7	Sololá	702	San José Chacayá	5	Chacayá	5	Mayo	2023-05-30T00:00:00	2024-11-06T16:00:00	5	Humedad	71
98813	7	Sololá	702	San José Chacayá	5	Chacayá	5	Mayo	2023-05-30T00:00:00	2024-11-06T16:00:00	6	Velocidad del viento	1.6
98814	7	Sololá	702	San José Chacayá	5	Chacayá	5	Mayo	2023-05-30T00:00:00	2024-11-06T16:00:00	7	Dirección del viento	1.61
98815	7	Sololá	702	San José Chacayá	5	Chacayá	5	Mayo	2023-05-30T00:00:00	2024-11-06T16:00:00	1	Precipitación	0
98816	7	Sololá	702	San José Chacayá	5	Chacayá	5	Mayo	2023-05-30T00:00:00	2024-11-06T16:00:00	8	Radiación solar	100
98817	7	Sololá	702	San José Chacayá	5	Chacayá	5	Mayo	2023-05-30T00:00:00	2024-11-06T17:00:00	2	Temperatura media	15.2
98818	7	Sololá	702	San José Chacayá	5	Chacayá	5	Mayo	2023-05-30T00:00:00	2024-11-06T17:00:00	4	Temperatura máxima	15.5
98819	7	Sololá	702	San José Chacayá	5	Chacayá	5	Mayo	2023-05-30T00:00:00	2024-11-06T17:00:00	3	Temperatura mínima	15.2
98820	7	Sololá	702	San José Chacayá	5	Chacayá	5	Mayo	2023-05-30T00:00:00	2024-11-06T17:00:00	5	Humedad	67
98821	7	Sololá	702	San José Chacayá	5	Chacayá	5	Mayo	2023-05-30T00:00:00	2024-11-06T17:00:00	6	Velocidad del viento	1.6
98822	7	Sololá	702	San José Chacayá	5	Chacayá	5	Mayo	2023-05-30T00:00:00	2024-11-06T17:00:00	7	Dirección del viento	1.61
98823	7	Sololá	702	San José Chacayá	5	Chacayá	5	Mayo	2023-05-30T00:00:00	2024-11-06T17:00:00	1	Precipitación	0
98824	7	Sololá	702	San José Chacayá	5	Chacayá	5	Mayo	2023-05-30T00:00:00	2024-11-06T17:00:00	8	Radiación solar	22
98825	7	Sololá	702	San José Chacayá	5	Chacayá	5	Mayo	2023-05-30T00:00:00	2024-11-06T18:00:00	2	Temperatura media	13.9
98826	7	Sololá	702	San José Chacayá	5	Chacayá	5	Mayo	2023-05-30T00:00:00	2024-11-06T18:00:00	4	Temperatura máxima	15.3
98827	7	Sololá	702	San José Chacayá	5	Chacayá	5	Mayo	2023-05-30T00:00:00	2024-11-06T18:00:00	3	Temperatura mínima	13.9
98828	7	Sololá	702	San José Chacayá	5	Chacayá	5	Mayo	2023-05-30T00:00:00	2024-11-06T18:00:00	5	Humedad	75
98829	7	Sololá	702	San José Chacayá	5	Chacayá	5	Mayo	2023-05-30T00:00:00	2024-11-06T18:00:00	6	Velocidad del viento	1.6
98830	7	Sololá	702	San José Chacayá	5	Chacayá	5	Mayo	2023-05-30T00:00:00	2024-11-06T18:00:00	7	Dirección del viento	1.61
98831	7	Sololá	702	San José Chacayá	5	Chacayá	5	Mayo	2023-05-30T00:00:00	2024-11-06T18:00:00	1	Precipitación	2
98832	7	Sololá	702	San José Chacayá	5	Chacayá	5	Mayo	2023-05-30T00:00:00	2024-11-06T18:00:00	8	Radiación solar	9
98833	7	Sololá	702	San José Chacayá	5	Chacayá	5	Mayo	2023-05-30T00:00:00	2024-11-06T19:00:00	2	Temperatura media	13.3
98834	7	Sololá	702	San José Chacayá	5	Chacayá	5	Mayo	2023-05-30T00:00:00	2024-11-06T19:00:00	4	Temperatura máxima	13.9
98835	7	Sololá	702	San José Chacayá	5	Chacayá	5	Mayo	2023-05-30T00:00:00	2024-11-06T19:00:00	3	Temperatura mínima	13.3
98836	7	Sololá	702	San José Chacayá	5	Chacayá	5	Mayo	2023-05-30T00:00:00	2024-11-06T19:00:00	5	Humedad	71
98837	7	Sololá	702	San José Chacayá	5	Chacayá	5	Mayo	2023-05-30T00:00:00	2024-11-06T19:00:00	6	Velocidad del viento	1.6
98838	7	Sololá	702	San José Chacayá	5	Chacayá	5	Mayo	2023-05-30T00:00:00	2024-11-06T19:00:00	7	Dirección del viento	1.61
98839	7	Sololá	702	San José Chacayá	5	Chacayá	5	Mayo	2023-05-30T00:00:00	2024-11-06T19:00:00	1	Precipitación	0.2
98840	7	Sololá	702	San José Chacayá	5	Chacayá	5	Mayo	2023-05-30T00:00:00	2024-11-06T19:00:00	8	Radiación solar	0
98841	7	Sololá	702	San José Chacayá	5	Chacayá	5	Mayo	2023-05-30T00:00:00	2024-11-06T20:00:00	2	Temperatura media	12.9
98842	7	Sololá	702	San José Chacayá	5	Chacayá	5	Mayo	2023-05-30T00:00:00	2024-11-06T20:00:00	4	Temperatura máxima	13.3
98843	7	Sololá	702	San José Chacayá	5	Chacayá	5	Mayo	2023-05-30T00:00:00	2024-11-06T20:00:00	3	Temperatura mínima	12.9
98844	7	Sololá	702	San José Chacayá	5	Chacayá	5	Mayo	2023-05-30T00:00:00	2024-11-06T20:00:00	5	Humedad	70
98845	7	Sololá	702	San José Chacayá	5	Chacayá	5	Mayo	2023-05-30T00:00:00	2024-11-06T20:00:00	6	Velocidad del viento	1.6
98846	7	Sololá	702	San José Chacayá	5	Chacayá	5	Mayo	2023-05-30T00:00:00	2024-11-06T20:00:00	7	Dirección del viento	1.61
98847	7	Sololá	702	San José Chacayá	5	Chacayá	5	Mayo	2023-05-30T00:00:00	2024-11-06T20:00:00	1	Precipitación	0
98848	7	Sololá	702	San José Chacayá	5	Chacayá	5	Mayo	2023-05-30T00:00:00	2024-11-06T20:00:00	8	Radiación solar	0
98849	7	Sololá	702	San José Chacayá	5	Chacayá	5	Mayo	2023-05-30T00:00:00	2024-11-06T21:00:00	2	Temperatura media	12.8
98850	7	Sololá	702	San José Chacayá	5	Chacayá	5	Mayo	2023-05-30T00:00:00	2024-11-06T21:00:00	4	Temperatura máxima	12.9
98851	7	Sololá	702	San José Chacayá	5	Chacayá	5	Mayo	2023-05-30T00:00:00	2024-11-06T21:00:00	3	Temperatura mínima	12.6
98852	7	Sololá	702	San José Chacayá	5	Chacayá	5	Mayo	2023-05-30T00:00:00	2024-11-06T21:00:00	5	Humedad	80
98853	7	Sololá	702	San José Chacayá	5	Chacayá	5	Mayo	2023-05-30T00:00:00	2024-11-06T21:00:00	6	Velocidad del viento	4.8
98854	7	Sololá	702	San José Chacayá	5	Chacayá	5	Mayo	2023-05-30T00:00:00	2024-11-06T21:00:00	7	Dirección del viento	4.83
98855	7	Sololá	702	San José Chacayá	5	Chacayá	5	Mayo	2023-05-30T00:00:00	2024-11-06T21:00:00	1	Precipitación	0
98856	7	Sololá	702	San José Chacayá	5	Chacayá	5	Mayo	2023-05-30T00:00:00	2024-11-06T21:00:00	8	Radiación solar	0
98857	7	Sololá	702	San José Chacayá	5	Chacayá	5	Mayo	2023-05-30T00:00:00	2024-11-06T22:00:00	2	Temperatura media	12.6
98858	7	Sololá	702	San José Chacayá	5	Chacayá	5	Mayo	2023-05-30T00:00:00	2024-11-06T22:00:00	4	Temperatura máxima	12.8
98859	7	Sololá	702	San José Chacayá	5	Chacayá	5	Mayo	2023-05-30T00:00:00	2024-11-06T22:00:00	3	Temperatura mínima	12.4
98860	7	Sololá	702	San José Chacayá	5	Chacayá	5	Mayo	2023-05-30T00:00:00	2024-11-06T22:00:00	5	Humedad	74
98861	7	Sololá	702	San José Chacayá	5	Chacayá	5	Mayo	2023-05-30T00:00:00	2024-11-06T22:00:00	6	Velocidad del viento	3.2
98862	7	Sololá	702	San José Chacayá	5	Chacayá	5	Mayo	2023-05-30T00:00:00	2024-11-06T22:00:00	7	Dirección del viento	3.22
98863	7	Sololá	702	San José Chacayá	5	Chacayá	5	Mayo	2023-05-30T00:00:00	2024-11-06T22:00:00	1	Precipitación	0
98864	7	Sololá	702	San José Chacayá	5	Chacayá	5	Mayo	2023-05-30T00:00:00	2024-11-06T22:00:00	8	Radiación solar	0
98865	7	Sololá	702	San José Chacayá	5	Chacayá	5	Mayo	2023-05-30T00:00:00	2024-11-06T23:00:00	2	Temperatura media	12.7
98866	7	Sololá	702	San José Chacayá	5	Chacayá	5	Mayo	2023-05-30T00:00:00	2024-11-06T23:00:00	4	Temperatura máxima	12.7
98867	7	Sololá	702	San José Chacayá	5	Chacayá	5	Mayo	2023-05-30T00:00:00	2024-11-06T23:00:00	3	Temperatura mínima	12.6
98868	7	Sololá	702	San José Chacayá	5	Chacayá	5	Mayo	2023-05-30T00:00:00	2024-11-06T23:00:00	5	Humedad	74
98869	7	Sololá	702	San José Chacayá	5	Chacayá	5	Mayo	2023-05-30T00:00:00	2024-11-06T23:00:00	6	Velocidad del viento	1.6
98870	7	Sololá	702	San José Chacayá	5	Chacayá	5	Mayo	2023-05-30T00:00:00	2024-11-06T23:00:00	7	Dirección del viento	1.61
98871	7	Sololá	702	San José Chacayá	5	Chacayá	5	Mayo	2023-05-30T00:00:00	2024-11-06T23:00:00	1	Precipitación	0
98872	7	Sololá	702	San José Chacayá	5	Chacayá	5	Mayo	2023-05-30T00:00:00	2024-11-06T23:00:00	8	Radiación solar	0
98873	7	Sololá	702	San José Chacayá	5	Chacayá	5	Mayo	2023-05-31T00:00:00	2024-11-06T00:00:00	2	Temperatura media	12.8
98874	7	Sololá	702	San José Chacayá	5	Chacayá	5	Mayo	2023-05-31T00:00:00	2024-11-06T00:00:00	4	Temperatura máxima	12.8
98875	7	Sololá	702	San José Chacayá	5	Chacayá	5	Mayo	2023-05-31T00:00:00	2024-11-06T00:00:00	3	Temperatura mínima	12.7
98876	7	Sololá	702	San José Chacayá	5	Chacayá	5	Mayo	2023-05-31T00:00:00	2024-11-06T00:00:00	5	Humedad	79
98877	7	Sololá	702	San José Chacayá	5	Chacayá	5	Mayo	2023-05-31T00:00:00	2024-11-06T00:00:00	6	Velocidad del viento	1.6
98878	7	Sololá	702	San José Chacayá	5	Chacayá	5	Mayo	2023-05-31T00:00:00	2024-11-06T00:00:00	7	Dirección del viento	1.61
98879	7	Sololá	702	San José Chacayá	5	Chacayá	5	Mayo	2023-05-31T00:00:00	2024-11-06T00:00:00	1	Precipitación	0
98880	7	Sololá	702	San José Chacayá	5	Chacayá	5	Mayo	2023-05-31T00:00:00	2024-11-06T00:00:00	8	Radiación solar	0
98881	7	Sololá	702	San José Chacayá	5	Chacayá	5	Mayo	2023-05-31T00:00:00	2024-11-06T01:00:00	2	Temperatura media	12.6
98882	7	Sololá	702	San José Chacayá	5	Chacayá	5	Mayo	2023-05-31T00:00:00	2024-11-06T01:00:00	4	Temperatura máxima	12.8
98883	7	Sololá	702	San José Chacayá	5	Chacayá	5	Mayo	2023-05-31T00:00:00	2024-11-06T01:00:00	3	Temperatura mínima	12.6
98884	7	Sololá	702	San José Chacayá	5	Chacayá	5	Mayo	2023-05-31T00:00:00	2024-11-06T01:00:00	5	Humedad	78
98885	7	Sololá	702	San José Chacayá	5	Chacayá	5	Mayo	2023-05-31T00:00:00	2024-11-06T01:00:00	6	Velocidad del viento	3.2
98886	7	Sololá	702	San José Chacayá	5	Chacayá	5	Mayo	2023-05-31T00:00:00	2024-11-06T01:00:00	7	Dirección del viento	3.22
98887	7	Sololá	702	San José Chacayá	5	Chacayá	5	Mayo	2023-05-31T00:00:00	2024-11-06T01:00:00	1	Precipitación	0
98888	7	Sololá	702	San José Chacayá	5	Chacayá	5	Mayo	2023-05-31T00:00:00	2024-11-06T01:00:00	8	Radiación solar	0
98889	7	Sololá	702	San José Chacayá	5	Chacayá	5	Mayo	2023-05-31T00:00:00	2024-11-06T02:00:00	2	Temperatura media	12.4
98890	7	Sololá	702	San José Chacayá	5	Chacayá	5	Mayo	2023-05-31T00:00:00	2024-11-06T02:00:00	4	Temperatura máxima	12.7
98891	7	Sololá	702	San José Chacayá	5	Chacayá	5	Mayo	2023-05-31T00:00:00	2024-11-06T02:00:00	3	Temperatura mínima	12.4
98892	7	Sololá	702	San José Chacayá	5	Chacayá	5	Mayo	2023-05-31T00:00:00	2024-11-06T02:00:00	5	Humedad	70
98893	7	Sololá	702	San José Chacayá	5	Chacayá	5	Mayo	2023-05-31T00:00:00	2024-11-06T02:00:00	6	Velocidad del viento	1.6
98894	7	Sololá	702	San José Chacayá	5	Chacayá	5	Mayo	2023-05-31T00:00:00	2024-11-06T02:00:00	7	Dirección del viento	1.61
98895	7	Sololá	702	San José Chacayá	5	Chacayá	5	Mayo	2023-05-31T00:00:00	2024-11-06T02:00:00	1	Precipitación	0
98896	7	Sololá	702	San José Chacayá	5	Chacayá	5	Mayo	2023-05-31T00:00:00	2024-11-06T02:00:00	8	Radiación solar	0
98897	7	Sololá	702	San José Chacayá	5	Chacayá	5	Mayo	2023-05-31T00:00:00	2024-11-06T03:00:00	2	Temperatura media	12.6
98898	7	Sololá	702	San José Chacayá	5	Chacayá	5	Mayo	2023-05-31T00:00:00	2024-11-06T03:00:00	4	Temperatura máxima	12.6
98899	7	Sololá	702	San José Chacayá	5	Chacayá	5	Mayo	2023-05-31T00:00:00	2024-11-06T03:00:00	3	Temperatura mínima	12.4
98900	7	Sololá	702	San José Chacayá	5	Chacayá	5	Mayo	2023-05-31T00:00:00	2024-11-06T03:00:00	5	Humedad	76
98901	7	Sololá	702	San José Chacayá	5	Chacayá	5	Mayo	2023-05-31T00:00:00	2024-11-06T03:00:00	6	Velocidad del viento	3.2
98902	7	Sololá	702	San José Chacayá	5	Chacayá	5	Mayo	2023-05-31T00:00:00	2024-11-06T03:00:00	7	Dirección del viento	3.22
98903	7	Sololá	702	San José Chacayá	5	Chacayá	5	Mayo	2023-05-31T00:00:00	2024-11-06T03:00:00	1	Precipitación	0
98904	7	Sololá	702	San José Chacayá	5	Chacayá	5	Mayo	2023-05-31T00:00:00	2024-11-06T03:00:00	8	Radiación solar	0
98905	7	Sololá	702	San José Chacayá	5	Chacayá	5	Mayo	2023-05-31T00:00:00	2024-11-06T04:00:00	2	Temperatura media	11.9
98906	7	Sololá	702	San José Chacayá	5	Chacayá	5	Mayo	2023-05-31T00:00:00	2024-11-06T04:00:00	4	Temperatura máxima	12.6
98907	7	Sololá	702	San José Chacayá	5	Chacayá	5	Mayo	2023-05-31T00:00:00	2024-11-06T04:00:00	3	Temperatura mínima	11.9
98908	7	Sololá	702	San José Chacayá	5	Chacayá	5	Mayo	2023-05-31T00:00:00	2024-11-06T04:00:00	5	Humedad	74
98909	7	Sololá	702	San José Chacayá	5	Chacayá	5	Mayo	2023-05-31T00:00:00	2024-11-06T04:00:00	6	Velocidad del viento	1.6
98910	7	Sololá	702	San José Chacayá	5	Chacayá	5	Mayo	2023-05-31T00:00:00	2024-11-06T04:00:00	7	Dirección del viento	1.61
98911	7	Sololá	702	San José Chacayá	5	Chacayá	5	Mayo	2023-05-31T00:00:00	2024-11-06T04:00:00	1	Precipitación	0
98912	7	Sololá	702	San José Chacayá	5	Chacayá	5	Mayo	2023-05-31T00:00:00	2024-11-06T04:00:00	8	Radiación solar	0
98913	7	Sololá	702	San José Chacayá	5	Chacayá	5	Mayo	2023-05-31T00:00:00	2024-11-06T05:00:00	2	Temperatura media	11.3
98914	7	Sololá	702	San José Chacayá	5	Chacayá	5	Mayo	2023-05-31T00:00:00	2024-11-06T05:00:00	4	Temperatura máxima	11.8
98915	7	Sololá	702	San José Chacayá	5	Chacayá	5	Mayo	2023-05-31T00:00:00	2024-11-06T05:00:00	3	Temperatura mínima	11.3
98916	7	Sololá	702	San José Chacayá	5	Chacayá	5	Mayo	2023-05-31T00:00:00	2024-11-06T05:00:00	5	Humedad	75
98917	7	Sololá	702	San José Chacayá	5	Chacayá	5	Mayo	2023-05-31T00:00:00	2024-11-06T05:00:00	6	Velocidad del viento	3.2
98918	7	Sololá	702	San José Chacayá	5	Chacayá	5	Mayo	2023-05-31T00:00:00	2024-11-06T05:00:00	7	Dirección del viento	3.22
98919	7	Sololá	702	San José Chacayá	5	Chacayá	5	Mayo	2023-05-31T00:00:00	2024-11-06T05:00:00	1	Precipitación	0
98920	7	Sololá	702	San José Chacayá	5	Chacayá	5	Mayo	2023-05-31T00:00:00	2024-11-06T05:00:00	8	Radiación solar	0
98921	7	Sololá	702	San José Chacayá	5	Chacayá	5	Mayo	2023-05-31T00:00:00	2024-11-06T06:00:00	2	Temperatura media	11.1
98922	7	Sololá	702	San José Chacayá	5	Chacayá	5	Mayo	2023-05-31T00:00:00	2024-11-06T06:00:00	4	Temperatura máxima	11.3
98923	7	Sololá	702	San José Chacayá	5	Chacayá	5	Mayo	2023-05-31T00:00:00	2024-11-06T06:00:00	3	Temperatura mínima	10.8
98924	7	Sololá	702	San José Chacayá	5	Chacayá	5	Mayo	2023-05-31T00:00:00	2024-11-06T06:00:00	5	Humedad	74
98925	7	Sololá	702	San José Chacayá	5	Chacayá	5	Mayo	2023-05-31T00:00:00	2024-11-06T06:00:00	6	Velocidad del viento	3.2
98926	7	Sololá	702	San José Chacayá	5	Chacayá	5	Mayo	2023-05-31T00:00:00	2024-11-06T06:00:00	7	Dirección del viento	3.22
98927	7	Sololá	702	San José Chacayá	5	Chacayá	5	Mayo	2023-05-31T00:00:00	2024-11-06T06:00:00	1	Precipitación	0
98928	7	Sololá	702	San José Chacayá	5	Chacayá	5	Mayo	2023-05-31T00:00:00	2024-11-06T06:00:00	8	Radiación solar	8
98929	7	Sololá	702	San José Chacayá	5	Chacayá	5	Mayo	2023-05-31T00:00:00	2024-11-06T07:00:00	2	Temperatura media	12.8
98930	7	Sololá	702	San José Chacayá	5	Chacayá	5	Mayo	2023-05-31T00:00:00	2024-11-06T07:00:00	4	Temperatura máxima	12.8
98931	7	Sololá	702	San José Chacayá	5	Chacayá	5	Mayo	2023-05-31T00:00:00	2024-11-06T07:00:00	3	Temperatura mínima	11.1
98932	7	Sololá	702	San José Chacayá	5	Chacayá	5	Mayo	2023-05-31T00:00:00	2024-11-06T07:00:00	5	Humedad	74
98933	7	Sololá	702	San José Chacayá	5	Chacayá	5	Mayo	2023-05-31T00:00:00	2024-11-06T07:00:00	6	Velocidad del viento	3.2
98934	7	Sololá	702	San José Chacayá	5	Chacayá	5	Mayo	2023-05-31T00:00:00	2024-11-06T07:00:00	7	Dirección del viento	3.22
98935	7	Sololá	702	San José Chacayá	5	Chacayá	5	Mayo	2023-05-31T00:00:00	2024-11-06T07:00:00	1	Precipitación	0
98936	7	Sololá	702	San José Chacayá	5	Chacayá	5	Mayo	2023-05-31T00:00:00	2024-11-06T07:00:00	8	Radiación solar	56
98937	7	Sololá	702	San José Chacayá	5	Chacayá	5	Mayo	2023-05-31T00:00:00	2024-11-06T08:00:00	2	Temperatura media	15.5
98938	7	Sololá	702	San José Chacayá	5	Chacayá	5	Mayo	2023-05-31T00:00:00	2024-11-06T08:00:00	4	Temperatura máxima	15.5
98939	7	Sololá	702	San José Chacayá	5	Chacayá	5	Mayo	2023-05-31T00:00:00	2024-11-06T08:00:00	3	Temperatura mínima	12.8
98940	7	Sololá	702	San José Chacayá	5	Chacayá	5	Mayo	2023-05-31T00:00:00	2024-11-06T08:00:00	5	Humedad	81
98941	7	Sololá	702	San José Chacayá	5	Chacayá	5	Mayo	2023-05-31T00:00:00	2024-11-06T08:00:00	6	Velocidad del viento	0
98942	7	Sololá	702	San José Chacayá	5	Chacayá	5	Mayo	2023-05-31T00:00:00	2024-11-06T08:00:00	7	Dirección del viento	0
98943	7	Sololá	702	San José Chacayá	5	Chacayá	5	Mayo	2023-05-31T00:00:00	2024-11-06T08:00:00	1	Precipitación	0
98944	7	Sololá	702	San José Chacayá	5	Chacayá	5	Mayo	2023-05-31T00:00:00	2024-11-06T08:00:00	8	Radiación solar	127
98945	7	Sololá	702	San José Chacayá	5	Chacayá	5	Mayo	2023-05-31T00:00:00	2024-11-06T09:00:00	2	Temperatura media	18.4
98946	7	Sololá	702	San José Chacayá	5	Chacayá	5	Mayo	2023-05-31T00:00:00	2024-11-06T09:00:00	4	Temperatura máxima	18.4
98947	7	Sololá	702	San José Chacayá	5	Chacayá	5	Mayo	2023-05-31T00:00:00	2024-11-06T09:00:00	3	Temperatura mínima	15.5
98948	7	Sololá	702	San José Chacayá	5	Chacayá	5	Mayo	2023-05-31T00:00:00	2024-11-06T09:00:00	5	Humedad	78
98949	7	Sololá	702	San José Chacayá	5	Chacayá	5	Mayo	2023-05-31T00:00:00	2024-11-06T09:00:00	6	Velocidad del viento	1.6
98950	7	Sololá	702	San José Chacayá	5	Chacayá	5	Mayo	2023-05-31T00:00:00	2024-11-06T09:00:00	7	Dirección del viento	1.61
98951	7	Sololá	702	San José Chacayá	5	Chacayá	5	Mayo	2023-05-31T00:00:00	2024-11-06T09:00:00	1	Precipitación	0
98952	7	Sololá	702	San José Chacayá	5	Chacayá	5	Mayo	2023-05-31T00:00:00	2024-11-06T09:00:00	8	Radiación solar	483
98953	7	Sololá	702	San José Chacayá	5	Chacayá	5	Mayo	2023-05-31T00:00:00	2024-11-06T10:00:00	2	Temperatura media	19.7
98954	7	Sololá	702	San José Chacayá	5	Chacayá	5	Mayo	2023-05-31T00:00:00	2024-11-06T10:00:00	4	Temperatura máxima	19.7
98955	7	Sololá	702	San José Chacayá	5	Chacayá	5	Mayo	2023-05-31T00:00:00	2024-11-06T10:00:00	3	Temperatura mínima	18.3
98956	7	Sololá	702	San José Chacayá	5	Chacayá	5	Mayo	2023-05-31T00:00:00	2024-11-06T10:00:00	5	Humedad	76
98957	7	Sololá	702	San José Chacayá	5	Chacayá	5	Mayo	2023-05-31T00:00:00	2024-11-06T10:00:00	6	Velocidad del viento	6.4
98958	7	Sololá	702	San José Chacayá	5	Chacayá	5	Mayo	2023-05-31T00:00:00	2024-11-06T10:00:00	7	Dirección del viento	6.44
98959	7	Sololá	702	San José Chacayá	5	Chacayá	5	Mayo	2023-05-31T00:00:00	2024-11-06T10:00:00	1	Precipitación	0
98960	7	Sololá	702	San José Chacayá	5	Chacayá	5	Mayo	2023-05-31T00:00:00	2024-11-06T10:00:00	8	Radiación solar	773
98961	7	Sololá	702	San José Chacayá	5	Chacayá	5	Mayo	2023-05-31T00:00:00	2024-11-06T11:00:00	2	Temperatura media	18.7
98962	7	Sololá	702	San José Chacayá	5	Chacayá	5	Mayo	2023-05-31T00:00:00	2024-11-06T11:00:00	4	Temperatura máxima	20
98963	7	Sololá	702	San José Chacayá	5	Chacayá	5	Mayo	2023-05-31T00:00:00	2024-11-06T11:00:00	3	Temperatura mínima	18.7
98964	7	Sololá	702	San José Chacayá	5	Chacayá	5	Mayo	2023-05-31T00:00:00	2024-11-06T11:00:00	5	Humedad	76
98965	7	Sololá	702	San José Chacayá	5	Chacayá	5	Mayo	2023-05-31T00:00:00	2024-11-06T11:00:00	6	Velocidad del viento	6.4
98966	7	Sololá	702	San José Chacayá	5	Chacayá	5	Mayo	2023-05-31T00:00:00	2024-11-06T11:00:00	7	Dirección del viento	6.44
98967	7	Sololá	702	San José Chacayá	5	Chacayá	5	Mayo	2023-05-31T00:00:00	2024-11-06T11:00:00	1	Precipitación	0
98968	7	Sololá	702	San José Chacayá	5	Chacayá	5	Mayo	2023-05-31T00:00:00	2024-11-06T11:00:00	8	Radiación solar	614
98969	7	Sololá	702	San José Chacayá	5	Chacayá	5	Mayo	2023-05-31T00:00:00	2024-11-06T12:00:00	2	Temperatura media	19.2
98970	7	Sololá	702	San José Chacayá	5	Chacayá	5	Mayo	2023-05-31T00:00:00	2024-11-06T12:00:00	4	Temperatura máxima	19.3
98971	7	Sololá	702	San José Chacayá	5	Chacayá	5	Mayo	2023-05-31T00:00:00	2024-11-06T12:00:00	3	Temperatura mínima	18.6
98972	7	Sololá	702	San José Chacayá	5	Chacayá	5	Mayo	2023-05-31T00:00:00	2024-11-06T12:00:00	5	Humedad	75
98973	7	Sololá	702	San José Chacayá	5	Chacayá	5	Mayo	2023-05-31T00:00:00	2024-11-06T12:00:00	6	Velocidad del viento	6.4
98974	7	Sololá	702	San José Chacayá	5	Chacayá	5	Mayo	2023-05-31T00:00:00	2024-11-06T12:00:00	7	Dirección del viento	6.44
98975	7	Sololá	702	San José Chacayá	5	Chacayá	5	Mayo	2023-05-31T00:00:00	2024-11-06T12:00:00	1	Precipitación	0
98976	7	Sololá	702	San José Chacayá	5	Chacayá	5	Mayo	2023-05-31T00:00:00	2024-11-06T12:00:00	8	Radiación solar	635
98977	7	Sololá	702	San José Chacayá	5	Chacayá	5	Mayo	2023-05-31T00:00:00	2024-11-06T13:00:00	2	Temperatura media	18.6
98978	7	Sololá	702	San José Chacayá	5	Chacayá	5	Mayo	2023-05-31T00:00:00	2024-11-06T13:00:00	4	Temperatura máxima	19.6
98979	7	Sololá	702	San José Chacayá	5	Chacayá	5	Mayo	2023-05-31T00:00:00	2024-11-06T13:00:00	3	Temperatura mínima	18.6
98980	7	Sololá	702	San José Chacayá	5	Chacayá	5	Mayo	2023-05-31T00:00:00	2024-11-06T13:00:00	5	Humedad	79
98981	7	Sololá	702	San José Chacayá	5	Chacayá	5	Mayo	2023-05-31T00:00:00	2024-11-06T13:00:00	6	Velocidad del viento	6.4
98982	7	Sololá	702	San José Chacayá	5	Chacayá	5	Mayo	2023-05-31T00:00:00	2024-11-06T13:00:00	7	Dirección del viento	6.44
98983	7	Sololá	702	San José Chacayá	5	Chacayá	5	Mayo	2023-05-31T00:00:00	2024-11-06T13:00:00	1	Precipitación	0
98984	7	Sololá	702	San José Chacayá	5	Chacayá	5	Mayo	2023-05-31T00:00:00	2024-11-06T13:00:00	8	Radiación solar	489
98985	7	Sololá	702	San José Chacayá	5	Chacayá	5	Mayo	2023-05-31T00:00:00	2024-11-06T14:00:00	2	Temperatura media	19.2
98986	7	Sololá	702	San José Chacayá	5	Chacayá	5	Mayo	2023-05-31T00:00:00	2024-11-06T14:00:00	4	Temperatura máxima	20.1
98987	7	Sololá	702	San José Chacayá	5	Chacayá	5	Mayo	2023-05-31T00:00:00	2024-11-06T14:00:00	3	Temperatura mínima	18.6
98988	7	Sololá	702	San José Chacayá	5	Chacayá	5	Mayo	2023-05-31T00:00:00	2024-11-06T14:00:00	5	Humedad	79
98989	7	Sololá	702	San José Chacayá	5	Chacayá	5	Mayo	2023-05-31T00:00:00	2024-11-06T14:00:00	6	Velocidad del viento	8
98990	7	Sololá	702	San José Chacayá	5	Chacayá	5	Mayo	2023-05-31T00:00:00	2024-11-06T14:00:00	7	Dirección del viento	8.05
98991	7	Sololá	702	San José Chacayá	5	Chacayá	5	Mayo	2023-05-31T00:00:00	2024-11-06T14:00:00	1	Precipitación	0
98992	7	Sololá	702	San José Chacayá	5	Chacayá	5	Mayo	2023-05-31T00:00:00	2024-11-06T14:00:00	8	Radiación solar	553
98993	7	Sololá	702	San José Chacayá	5	Chacayá	5	Mayo	2023-05-31T00:00:00	2024-11-06T15:00:00	2	Temperatura media	18
98994	7	Sololá	702	San José Chacayá	5	Chacayá	5	Mayo	2023-05-31T00:00:00	2024-11-06T15:00:00	4	Temperatura máxima	19.2
98995	7	Sololá	702	San José Chacayá	5	Chacayá	5	Mayo	2023-05-31T00:00:00	2024-11-06T15:00:00	3	Temperatura mínima	17.9
98996	7	Sololá	702	San José Chacayá	5	Chacayá	5	Mayo	2023-05-31T00:00:00	2024-11-06T15:00:00	5	Humedad	81
98997	7	Sololá	702	San José Chacayá	5	Chacayá	5	Mayo	2023-05-31T00:00:00	2024-11-06T15:00:00	6	Velocidad del viento	4.8
98998	7	Sololá	702	San José Chacayá	5	Chacayá	5	Mayo	2023-05-31T00:00:00	2024-11-06T15:00:00	7	Dirección del viento	4.83
98999	7	Sololá	702	San José Chacayá	5	Chacayá	5	Mayo	2023-05-31T00:00:00	2024-11-06T15:00:00	1	Precipitación	0
99000	7	Sololá	702	San José Chacayá	5	Chacayá	5	Mayo	2023-05-31T00:00:00	2024-11-06T15:00:00	8	Radiación solar	210
99001	7	Sololá	702	San José Chacayá	5	Chacayá	5	Mayo	2023-05-31T00:00:00	2024-11-06T16:00:00	2	Temperatura media	17.3
99002	7	Sololá	702	San José Chacayá	5	Chacayá	5	Mayo	2023-05-31T00:00:00	2024-11-06T16:00:00	4	Temperatura máxima	18
99003	7	Sololá	702	San José Chacayá	5	Chacayá	5	Mayo	2023-05-31T00:00:00	2024-11-06T16:00:00	3	Temperatura mínima	17.3
99004	7	Sololá	702	San José Chacayá	5	Chacayá	5	Mayo	2023-05-31T00:00:00	2024-11-06T16:00:00	5	Humedad	79
99005	7	Sololá	702	San José Chacayá	5	Chacayá	5	Mayo	2023-05-31T00:00:00	2024-11-06T16:00:00	6	Velocidad del viento	1.6
99006	7	Sololá	702	San José Chacayá	5	Chacayá	5	Mayo	2023-05-31T00:00:00	2024-11-06T16:00:00	7	Dirección del viento	1.61
99007	7	Sololá	702	San José Chacayá	5	Chacayá	5	Mayo	2023-05-31T00:00:00	2024-11-06T16:00:00	1	Precipitación	0
99008	7	Sololá	702	San José Chacayá	5	Chacayá	5	Mayo	2023-05-31T00:00:00	2024-11-06T16:00:00	8	Radiación solar	116
99009	7	Sololá	702	San José Chacayá	5	Chacayá	5	Mayo	2023-05-31T00:00:00	2024-11-06T17:00:00	2	Temperatura media	16.6
99010	7	Sololá	702	San José Chacayá	5	Chacayá	5	Mayo	2023-05-31T00:00:00	2024-11-06T17:00:00	4	Temperatura máxima	17.3
99011	7	Sololá	702	San José Chacayá	5	Chacayá	5	Mayo	2023-05-31T00:00:00	2024-11-06T17:00:00	3	Temperatura mínima	16.6
99012	7	Sololá	702	San José Chacayá	5	Chacayá	5	Mayo	2023-05-31T00:00:00	2024-11-06T17:00:00	5	Humedad	75
99013	7	Sololá	702	San José Chacayá	5	Chacayá	5	Mayo	2023-05-31T00:00:00	2024-11-06T17:00:00	6	Velocidad del viento	0
99014	7	Sololá	702	San José Chacayá	5	Chacayá	5	Mayo	2023-05-31T00:00:00	2024-11-06T17:00:00	7	Dirección del viento	0
99015	7	Sololá	702	San José Chacayá	5	Chacayá	5	Mayo	2023-05-31T00:00:00	2024-11-06T17:00:00	1	Precipitación	0
99016	7	Sololá	702	San José Chacayá	5	Chacayá	5	Mayo	2023-05-31T00:00:00	2024-11-06T17:00:00	8	Radiación solar	26
99017	7	Sololá	702	San José Chacayá	5	Chacayá	5	Mayo	2023-05-31T00:00:00	2024-11-06T18:00:00	2	Temperatura media	16.4
99018	7	Sololá	702	San José Chacayá	5	Chacayá	5	Mayo	2023-05-31T00:00:00	2024-11-06T18:00:00	4	Temperatura máxima	16.6
99019	7	Sololá	702	San José Chacayá	5	Chacayá	5	Mayo	2023-05-31T00:00:00	2024-11-06T18:00:00	3	Temperatura mínima	16.3
99020	7	Sololá	702	San José Chacayá	5	Chacayá	5	Mayo	2023-05-31T00:00:00	2024-11-06T18:00:00	5	Humedad	60
99021	7	Sololá	702	San José Chacayá	5	Chacayá	5	Mayo	2023-05-31T00:00:00	2024-11-06T18:00:00	6	Velocidad del viento	0
99022	7	Sololá	702	San José Chacayá	5	Chacayá	5	Mayo	2023-05-31T00:00:00	2024-11-06T18:00:00	7	Dirección del viento	0
99023	7	Sololá	702	San José Chacayá	5	Chacayá	5	Mayo	2023-05-31T00:00:00	2024-11-06T18:00:00	1	Precipitación	1.4
99024	7	Sololá	702	San José Chacayá	5	Chacayá	5	Mayo	2023-05-31T00:00:00	2024-11-06T18:00:00	8	Radiación solar	15
99025	7	Sololá	702	San José Chacayá	5	Chacayá	5	Mayo	2023-05-31T00:00:00	2024-11-06T19:00:00	2	Temperatura media	16
99026	7	Sololá	702	San José Chacayá	5	Chacayá	5	Mayo	2023-05-31T00:00:00	2024-11-06T19:00:00	4	Temperatura máxima	16.4
99027	7	Sololá	702	San José Chacayá	5	Chacayá	5	Mayo	2023-05-31T00:00:00	2024-11-06T19:00:00	3	Temperatura mínima	15.9
99028	7	Sololá	702	San José Chacayá	5	Chacayá	5	Mayo	2023-05-31T00:00:00	2024-11-06T19:00:00	5	Humedad	49
99029	7	Sololá	702	San José Chacayá	5	Chacayá	5	Mayo	2023-05-31T00:00:00	2024-11-06T19:00:00	6	Velocidad del viento	0
99030	7	Sololá	702	San José Chacayá	5	Chacayá	5	Mayo	2023-05-31T00:00:00	2024-11-06T19:00:00	7	Dirección del viento	0
99031	7	Sololá	702	San José Chacayá	5	Chacayá	5	Mayo	2023-05-31T00:00:00	2024-11-06T19:00:00	1	Precipitación	0.2
99032	7	Sololá	702	San José Chacayá	5	Chacayá	5	Mayo	2023-05-31T00:00:00	2024-11-06T19:00:00	8	Radiación solar	0
99033	7	Sololá	702	San José Chacayá	5	Chacayá	5	Mayo	2023-05-31T00:00:00	2024-11-06T20:00:00	2	Temperatura media	14.9
99034	7	Sololá	702	San José Chacayá	5	Chacayá	5	Mayo	2023-05-31T00:00:00	2024-11-06T20:00:00	4	Temperatura máxima	16
99035	7	Sololá	702	San José Chacayá	5	Chacayá	5	Mayo	2023-05-31T00:00:00	2024-11-06T20:00:00	3	Temperatura mínima	14.9
99036	7	Sololá	702	San José Chacayá	5	Chacayá	5	Mayo	2023-05-31T00:00:00	2024-11-06T20:00:00	5	Humedad	52
99037	7	Sololá	702	San José Chacayá	5	Chacayá	5	Mayo	2023-05-31T00:00:00	2024-11-06T20:00:00	6	Velocidad del viento	0
99038	7	Sololá	702	San José Chacayá	5	Chacayá	5	Mayo	2023-05-31T00:00:00	2024-11-06T20:00:00	7	Dirección del viento	0
99039	7	Sololá	702	San José Chacayá	5	Chacayá	5	Mayo	2023-05-31T00:00:00	2024-11-06T20:00:00	1	Precipitación	0
99040	7	Sololá	702	San José Chacayá	5	Chacayá	5	Mayo	2023-05-31T00:00:00	2024-11-06T20:00:00	8	Radiación solar	0
99041	7	Sololá	702	San José Chacayá	5	Chacayá	5	Mayo	2023-05-31T00:00:00	2024-11-06T21:00:00	2	Temperatura media	14.5
99042	7	Sololá	702	San José Chacayá	5	Chacayá	5	Mayo	2023-05-31T00:00:00	2024-11-06T21:00:00	4	Temperatura máxima	14.9
99043	7	Sololá	702	San José Chacayá	5	Chacayá	5	Mayo	2023-05-31T00:00:00	2024-11-06T21:00:00	3	Temperatura mínima	14.4
99044	7	Sololá	702	San José Chacayá	5	Chacayá	5	Mayo	2023-05-31T00:00:00	2024-11-06T21:00:00	5	Humedad	60
99045	7	Sololá	702	San José Chacayá	5	Chacayá	5	Mayo	2023-05-31T00:00:00	2024-11-06T21:00:00	6	Velocidad del viento	3.2
99046	7	Sololá	702	San José Chacayá	5	Chacayá	5	Mayo	2023-05-31T00:00:00	2024-11-06T21:00:00	7	Dirección del viento	3.22
99047	7	Sololá	702	San José Chacayá	5	Chacayá	5	Mayo	2023-05-31T00:00:00	2024-11-06T21:00:00	1	Precipitación	0
99048	7	Sololá	702	San José Chacayá	5	Chacayá	5	Mayo	2023-05-31T00:00:00	2024-11-06T21:00:00	8	Radiación solar	0
99049	7	Sololá	702	San José Chacayá	5	Chacayá	5	Mayo	2023-05-31T00:00:00	2024-11-06T22:00:00	2	Temperatura media	14.7
99050	7	Sololá	702	San José Chacayá	5	Chacayá	5	Mayo	2023-05-31T00:00:00	2024-11-06T22:00:00	4	Temperatura máxima	14.7
99051	7	Sololá	702	San José Chacayá	5	Chacayá	5	Mayo	2023-05-31T00:00:00	2024-11-06T22:00:00	3	Temperatura mínima	14.4
99052	7	Sololá	702	San José Chacayá	5	Chacayá	5	Mayo	2023-05-31T00:00:00	2024-11-06T22:00:00	5	Humedad	61
99053	7	Sololá	702	San José Chacayá	5	Chacayá	5	Mayo	2023-05-31T00:00:00	2024-11-06T22:00:00	6	Velocidad del viento	1.6
99054	7	Sololá	702	San José Chacayá	5	Chacayá	5	Mayo	2023-05-31T00:00:00	2024-11-06T22:00:00	7	Dirección del viento	1.61
99055	7	Sololá	702	San José Chacayá	5	Chacayá	5	Mayo	2023-05-31T00:00:00	2024-11-06T22:00:00	1	Precipitación	0
99056	7	Sololá	702	San José Chacayá	5	Chacayá	5	Mayo	2023-05-31T00:00:00	2024-11-06T22:00:00	8	Radiación solar	0
99057	7	Sololá	702	San José Chacayá	5	Chacayá	5	Mayo	2023-05-31T00:00:00	2024-11-06T23:00:00	2	Temperatura media	14.7
99058	7	Sololá	702	San José Chacayá	5	Chacayá	5	Mayo	2023-05-31T00:00:00	2024-11-06T23:00:00	4	Temperatura máxima	14.7
99059	7	Sololá	702	San José Chacayá	5	Chacayá	5	Mayo	2023-05-31T00:00:00	2024-11-06T23:00:00	3	Temperatura mínima	14.6
99060	7	Sololá	702	San José Chacayá	5	Chacayá	5	Mayo	2023-05-31T00:00:00	2024-11-06T23:00:00	5	Humedad	56
99061	7	Sololá	702	San José Chacayá	5	Chacayá	5	Mayo	2023-05-31T00:00:00	2024-11-06T23:00:00	6	Velocidad del viento	1.6
99062	7	Sololá	702	San José Chacayá	5	Chacayá	5	Mayo	2023-05-31T00:00:00	2024-11-06T23:00:00	7	Dirección del viento	1.61
99063	7	Sololá	702	San José Chacayá	5	Chacayá	5	Mayo	2023-05-31T00:00:00	2024-11-06T23:00:00	1	Precipitación	0
99064	7	Sololá	702	San José Chacayá	5	Chacayá	5	Mayo	2023-05-31T00:00:00	2024-11-06T23:00:00	8	Radiación solar	0
99065	7	Sololá	702	San José Chacayá	5	Chacayá	6	Junio	2023-01-06T00:00:00	2024-11-06T00:00:00	2	Temperatura media	14.5
99066	7	Sololá	702	San José Chacayá	5	Chacayá	6	Junio	2023-01-06T00:00:00	2024-11-06T00:00:00	4	Temperatura máxima	14.7
99067	7	Sololá	702	San José Chacayá	5	Chacayá	6	Junio	2023-01-06T00:00:00	2024-11-06T00:00:00	3	Temperatura mínima	14.5
99068	7	Sololá	702	San José Chacayá	5	Chacayá	6	Junio	2023-01-06T00:00:00	2024-11-06T00:00:00	5	Humedad	51
99069	7	Sololá	702	San José Chacayá	5	Chacayá	6	Junio	2023-01-06T00:00:00	2024-11-06T00:00:00	6	Velocidad del viento	0
99070	7	Sololá	702	San José Chacayá	5	Chacayá	6	Junio	2023-01-06T00:00:00	2024-11-06T00:00:00	7	Dirección del viento	0
99071	7	Sololá	702	San José Chacayá	5	Chacayá	6	Junio	2023-01-06T00:00:00	2024-11-06T00:00:00	1	Precipitación	0
99072	7	Sololá	702	San José Chacayá	5	Chacayá	6	Junio	2023-01-06T00:00:00	2024-11-06T00:00:00	8	Radiación solar	0
99073	7	Sololá	702	San José Chacayá	5	Chacayá	6	Junio	2023-01-06T00:00:00	2024-11-06T01:00:00	2	Temperatura media	14.1
99074	7	Sololá	702	San José Chacayá	5	Chacayá	6	Junio	2023-01-06T00:00:00	2024-11-06T01:00:00	4	Temperatura máxima	14.5
99075	7	Sololá	702	San José Chacayá	5	Chacayá	6	Junio	2023-01-06T00:00:00	2024-11-06T01:00:00	3	Temperatura mínima	14.1
99076	7	Sololá	702	San José Chacayá	5	Chacayá	6	Junio	2023-01-06T00:00:00	2024-11-06T01:00:00	5	Humedad	46
99077	7	Sololá	702	San José Chacayá	5	Chacayá	6	Junio	2023-01-06T00:00:00	2024-11-06T01:00:00	6	Velocidad del viento	0
99078	7	Sololá	702	San José Chacayá	5	Chacayá	6	Junio	2023-01-06T00:00:00	2024-11-06T01:00:00	7	Dirección del viento	0
99079	7	Sololá	702	San José Chacayá	5	Chacayá	6	Junio	2023-01-06T00:00:00	2024-11-06T01:00:00	1	Precipitación	0
99080	7	Sololá	702	San José Chacayá	5	Chacayá	6	Junio	2023-01-06T00:00:00	2024-11-06T01:00:00	8	Radiación solar	0
99081	7	Sololá	702	San José Chacayá	5	Chacayá	6	Junio	2023-01-06T00:00:00	2024-11-06T02:00:00	2	Temperatura media	13.2
99082	7	Sololá	702	San José Chacayá	5	Chacayá	6	Junio	2023-01-06T00:00:00	2024-11-06T02:00:00	4	Temperatura máxima	14.1
99083	7	Sololá	702	San José Chacayá	5	Chacayá	6	Junio	2023-01-06T00:00:00	2024-11-06T02:00:00	3	Temperatura mínima	13.2
99084	7	Sololá	702	San José Chacayá	5	Chacayá	6	Junio	2023-01-06T00:00:00	2024-11-06T02:00:00	5	Humedad	50
99085	7	Sololá	702	San José Chacayá	5	Chacayá	6	Junio	2023-01-06T00:00:00	2024-11-06T02:00:00	6	Velocidad del viento	1.6
99086	7	Sololá	702	San José Chacayá	5	Chacayá	6	Junio	2023-01-06T00:00:00	2024-11-06T02:00:00	7	Dirección del viento	1.61
99087	7	Sololá	702	San José Chacayá	5	Chacayá	6	Junio	2023-01-06T00:00:00	2024-11-06T02:00:00	1	Precipitación	0
99088	7	Sololá	702	San José Chacayá	5	Chacayá	6	Junio	2023-01-06T00:00:00	2024-11-06T02:00:00	8	Radiación solar	0
99089	7	Sololá	702	San José Chacayá	5	Chacayá	6	Junio	2023-01-06T00:00:00	2024-11-06T03:00:00	2	Temperatura media	12.7
99090	7	Sololá	702	San José Chacayá	5	Chacayá	6	Junio	2023-01-06T00:00:00	2024-11-06T03:00:00	4	Temperatura máxima	13.2
99091	7	Sololá	702	San José Chacayá	5	Chacayá	6	Junio	2023-01-06T00:00:00	2024-11-06T03:00:00	3	Temperatura mínima	12.7
99092	7	Sololá	702	San José Chacayá	5	Chacayá	6	Junio	2023-01-06T00:00:00	2024-11-06T03:00:00	5	Humedad	50
99093	7	Sololá	702	San José Chacayá	5	Chacayá	6	Junio	2023-01-06T00:00:00	2024-11-06T03:00:00	6	Velocidad del viento	3.2
99094	7	Sololá	702	San José Chacayá	5	Chacayá	6	Junio	2023-01-06T00:00:00	2024-11-06T03:00:00	7	Dirección del viento	3.22
99095	7	Sololá	702	San José Chacayá	5	Chacayá	6	Junio	2023-01-06T00:00:00	2024-11-06T03:00:00	1	Precipitación	0
99096	7	Sololá	702	San José Chacayá	5	Chacayá	6	Junio	2023-01-06T00:00:00	2024-11-06T03:00:00	8	Radiación solar	0
99097	7	Sololá	702	San José Chacayá	5	Chacayá	6	Junio	2023-01-06T00:00:00	2024-11-06T04:00:00	2	Temperatura media	12.2
99098	7	Sololá	702	San José Chacayá	5	Chacayá	6	Junio	2023-01-06T00:00:00	2024-11-06T04:00:00	4	Temperatura máxima	12.7
99099	7	Sololá	702	San José Chacayá	5	Chacayá	6	Junio	2023-01-06T00:00:00	2024-11-06T04:00:00	3	Temperatura mínima	12.2
99100	7	Sololá	702	San José Chacayá	5	Chacayá	6	Junio	2023-01-06T00:00:00	2024-11-06T04:00:00	5	Humedad	45
99101	7	Sololá	702	San José Chacayá	5	Chacayá	6	Junio	2023-01-06T00:00:00	2024-11-06T04:00:00	6	Velocidad del viento	1.6
99102	7	Sololá	702	San José Chacayá	5	Chacayá	6	Junio	2023-01-06T00:00:00	2024-11-06T04:00:00	7	Dirección del viento	1.61
99103	7	Sololá	702	San José Chacayá	5	Chacayá	6	Junio	2023-01-06T00:00:00	2024-11-06T04:00:00	1	Precipitación	0
99104	7	Sololá	702	San José Chacayá	5	Chacayá	6	Junio	2023-01-06T00:00:00	2024-11-06T04:00:00	8	Radiación solar	0
99105	7	Sololá	702	San José Chacayá	5	Chacayá	6	Junio	2023-01-06T00:00:00	2024-11-06T05:00:00	2	Temperatura media	12.2
99106	7	Sololá	702	San José Chacayá	5	Chacayá	6	Junio	2023-01-06T00:00:00	2024-11-06T05:00:00	4	Temperatura máxima	12.4
99107	7	Sololá	702	San José Chacayá	5	Chacayá	6	Junio	2023-01-06T00:00:00	2024-11-06T05:00:00	3	Temperatura mínima	12.2
99108	7	Sololá	702	San José Chacayá	5	Chacayá	6	Junio	2023-01-06T00:00:00	2024-11-06T05:00:00	5	Humedad	51
99109	7	Sololá	702	San José Chacayá	5	Chacayá	6	Junio	2023-01-06T00:00:00	2024-11-06T05:00:00	6	Velocidad del viento	3.2
99110	7	Sololá	702	San José Chacayá	5	Chacayá	6	Junio	2023-01-06T00:00:00	2024-11-06T05:00:00	7	Dirección del viento	3.22
99111	7	Sololá	702	San José Chacayá	5	Chacayá	6	Junio	2023-01-06T00:00:00	2024-11-06T05:00:00	1	Precipitación	0
99112	7	Sololá	702	San José Chacayá	5	Chacayá	6	Junio	2023-01-06T00:00:00	2024-11-06T05:00:00	8	Radiación solar	0
99113	7	Sololá	702	San José Chacayá	5	Chacayá	6	Junio	2023-01-06T00:00:00	2024-11-06T06:00:00	2	Temperatura media	11.9
99114	7	Sololá	702	San José Chacayá	5	Chacayá	6	Junio	2023-01-06T00:00:00	2024-11-06T06:00:00	4	Temperatura máxima	12.2
99115	7	Sololá	702	San José Chacayá	5	Chacayá	6	Junio	2023-01-06T00:00:00	2024-11-06T06:00:00	3	Temperatura mínima	11.7
99116	7	Sololá	702	San José Chacayá	5	Chacayá	6	Junio	2023-01-06T00:00:00	2024-11-06T06:00:00	5	Humedad	46
99117	7	Sololá	702	San José Chacayá	5	Chacayá	6	Junio	2023-01-06T00:00:00	2024-11-06T06:00:00	6	Velocidad del viento	1.6
99118	7	Sololá	702	San José Chacayá	5	Chacayá	6	Junio	2023-01-06T00:00:00	2024-11-06T06:00:00	7	Dirección del viento	1.61
99119	7	Sololá	702	San José Chacayá	5	Chacayá	6	Junio	2023-01-06T00:00:00	2024-11-06T06:00:00	1	Precipitación	0.2
99120	7	Sololá	702	San José Chacayá	5	Chacayá	6	Junio	2023-01-06T00:00:00	2024-11-06T06:00:00	8	Radiación solar	10
99121	7	Sololá	702	San José Chacayá	5	Chacayá	6	Junio	2023-01-06T00:00:00	2024-11-06T07:00:00	2	Temperatura media	13.5
99122	7	Sololá	702	San José Chacayá	5	Chacayá	6	Junio	2023-01-06T00:00:00	2024-11-06T07:00:00	4	Temperatura máxima	13.5
99123	7	Sololá	702	San José Chacayá	5	Chacayá	6	Junio	2023-01-06T00:00:00	2024-11-06T07:00:00	3	Temperatura mínima	11.9
99124	7	Sololá	702	San José Chacayá	5	Chacayá	6	Junio	2023-01-06T00:00:00	2024-11-06T07:00:00	5	Humedad	35
99125	7	Sololá	702	San José Chacayá	5	Chacayá	6	Junio	2023-01-06T00:00:00	2024-11-06T07:00:00	6	Velocidad del viento	1.6
99126	7	Sololá	702	San José Chacayá	5	Chacayá	6	Junio	2023-01-06T00:00:00	2024-11-06T07:00:00	7	Dirección del viento	1.61
99127	7	Sololá	702	San José Chacayá	5	Chacayá	6	Junio	2023-01-06T00:00:00	2024-11-06T07:00:00	1	Precipitación	0
99128	7	Sololá	702	San José Chacayá	5	Chacayá	6	Junio	2023-01-06T00:00:00	2024-11-06T07:00:00	8	Radiación solar	65
99129	7	Sololá	702	San José Chacayá	5	Chacayá	6	Junio	2023-01-06T00:00:00	2024-11-06T08:00:00	2	Temperatura media	16
99130	7	Sololá	702	San José Chacayá	5	Chacayá	6	Junio	2023-01-06T00:00:00	2024-11-06T08:00:00	4	Temperatura máxima	16
99131	7	Sololá	702	San José Chacayá	5	Chacayá	6	Junio	2023-01-06T00:00:00	2024-11-06T08:00:00	3	Temperatura mínima	13.4
99132	7	Sololá	702	San José Chacayá	5	Chacayá	6	Junio	2023-01-06T00:00:00	2024-11-06T08:00:00	5	Humedad	81
99133	7	Sololá	702	San José Chacayá	5	Chacayá	6	Junio	2023-01-06T00:00:00	2024-11-06T08:00:00	6	Velocidad del viento	1.6
99134	7	Sololá	702	San José Chacayá	5	Chacayá	6	Junio	2023-01-06T00:00:00	2024-11-06T08:00:00	7	Dirección del viento	1.61
99135	7	Sololá	702	San José Chacayá	5	Chacayá	6	Junio	2023-01-06T00:00:00	2024-11-06T08:00:00	1	Precipitación	0
99136	7	Sololá	702	San José Chacayá	5	Chacayá	6	Junio	2023-01-06T00:00:00	2024-11-06T08:00:00	8	Radiación solar	144
99137	7	Sololá	702	San José Chacayá	5	Chacayá	6	Junio	2023-01-06T00:00:00	2024-11-06T09:00:00	2	Temperatura media	18.9
99138	7	Sololá	702	San José Chacayá	5	Chacayá	6	Junio	2023-01-06T00:00:00	2024-11-06T09:00:00	4	Temperatura máxima	18.9
99139	7	Sololá	702	San José Chacayá	5	Chacayá	6	Junio	2023-01-06T00:00:00	2024-11-06T09:00:00	3	Temperatura mínima	16
99140	7	Sololá	702	San José Chacayá	5	Chacayá	6	Junio	2023-01-06T00:00:00	2024-11-06T09:00:00	5	Humedad	79
99141	7	Sololá	702	San José Chacayá	5	Chacayá	6	Junio	2023-01-06T00:00:00	2024-11-06T09:00:00	6	Velocidad del viento	1.6
99142	7	Sololá	702	San José Chacayá	5	Chacayá	6	Junio	2023-01-06T00:00:00	2024-11-06T09:00:00	7	Dirección del viento	1.61
99143	7	Sololá	702	San José Chacayá	5	Chacayá	6	Junio	2023-01-06T00:00:00	2024-11-06T09:00:00	1	Precipitación	0
99144	7	Sololá	702	San José Chacayá	5	Chacayá	6	Junio	2023-01-06T00:00:00	2024-11-06T09:00:00	8	Radiación solar	498
99145	7	Sololá	702	San José Chacayá	5	Chacayá	6	Junio	2023-01-06T00:00:00	2024-11-06T10:00:00	2	Temperatura media	20.1
99146	7	Sololá	702	San José Chacayá	5	Chacayá	6	Junio	2023-01-06T00:00:00	2024-11-06T10:00:00	4	Temperatura máxima	20.1
99147	7	Sololá	702	San José Chacayá	5	Chacayá	6	Junio	2023-01-06T00:00:00	2024-11-06T10:00:00	3	Temperatura mínima	18.5
99148	7	Sololá	702	San José Chacayá	5	Chacayá	6	Junio	2023-01-06T00:00:00	2024-11-06T10:00:00	5	Humedad	75
99149	7	Sololá	702	San José Chacayá	5	Chacayá	6	Junio	2023-01-06T00:00:00	2024-11-06T10:00:00	6	Velocidad del viento	4.8
99150	7	Sololá	702	San José Chacayá	5	Chacayá	6	Junio	2023-01-06T00:00:00	2024-11-06T10:00:00	7	Dirección del viento	4.83
99151	7	Sololá	702	San José Chacayá	5	Chacayá	6	Junio	2023-01-06T00:00:00	2024-11-06T10:00:00	1	Precipitación	0
99152	7	Sololá	702	San José Chacayá	5	Chacayá	6	Junio	2023-01-06T00:00:00	2024-11-06T10:00:00	8	Radiación solar	590
99153	7	Sololá	702	San José Chacayá	5	Chacayá	6	Junio	2023-01-06T00:00:00	2024-11-06T11:00:00	2	Temperatura media	21.7
99154	7	Sololá	702	San José Chacayá	5	Chacayá	6	Junio	2023-01-06T00:00:00	2024-11-06T11:00:00	4	Temperatura máxima	21.8
99155	7	Sololá	702	San José Chacayá	5	Chacayá	6	Junio	2023-01-06T00:00:00	2024-11-06T11:00:00	3	Temperatura mínima	20.1
99156	7	Sololá	702	San José Chacayá	5	Chacayá	6	Junio	2023-01-06T00:00:00	2024-11-06T11:00:00	5	Humedad	70
99157	7	Sololá	702	San José Chacayá	5	Chacayá	6	Junio	2023-01-06T00:00:00	2024-11-06T11:00:00	6	Velocidad del viento	6.4
99158	7	Sololá	702	San José Chacayá	5	Chacayá	6	Junio	2023-01-06T00:00:00	2024-11-06T11:00:00	7	Dirección del viento	6.44
99159	7	Sololá	702	San José Chacayá	5	Chacayá	6	Junio	2023-01-06T00:00:00	2024-11-06T11:00:00	1	Precipitación	0
99160	7	Sololá	702	San José Chacayá	5	Chacayá	6	Junio	2023-01-06T00:00:00	2024-11-06T11:00:00	8	Radiación solar	985
99161	7	Sololá	702	San José Chacayá	5	Chacayá	6	Junio	2023-01-06T00:00:00	2024-11-06T12:00:00	2	Temperatura media	20.8
99162	7	Sololá	702	San José Chacayá	5	Chacayá	6	Junio	2023-01-06T00:00:00	2024-11-06T12:00:00	4	Temperatura máxima	21.7
99163	7	Sololá	702	San José Chacayá	5	Chacayá	6	Junio	2023-01-06T00:00:00	2024-11-06T12:00:00	3	Temperatura mínima	20.8
99164	7	Sololá	702	San José Chacayá	5	Chacayá	6	Junio	2023-01-06T00:00:00	2024-11-06T12:00:00	5	Humedad	74
99165	7	Sololá	702	San José Chacayá	5	Chacayá	6	Junio	2023-01-06T00:00:00	2024-11-06T12:00:00	6	Velocidad del viento	6.4
99166	7	Sololá	702	San José Chacayá	5	Chacayá	6	Junio	2023-01-06T00:00:00	2024-11-06T12:00:00	7	Dirección del viento	6.44
99167	7	Sololá	702	San José Chacayá	5	Chacayá	6	Junio	2023-01-06T00:00:00	2024-11-06T12:00:00	1	Precipitación	0
99168	7	Sololá	702	San José Chacayá	5	Chacayá	6	Junio	2023-01-06T00:00:00	2024-11-06T12:00:00	8	Radiación solar	882
99169	7	Sololá	702	San José Chacayá	5	Chacayá	6	Junio	2023-01-06T00:00:00	2024-11-06T13:00:00	2	Temperatura media	19.7
99170	7	Sololá	702	San José Chacayá	5	Chacayá	6	Junio	2023-01-06T00:00:00	2024-11-06T13:00:00	4	Temperatura máxima	20.8
99171	7	Sololá	702	San José Chacayá	5	Chacayá	6	Junio	2023-01-06T00:00:00	2024-11-06T13:00:00	3	Temperatura mínima	19.5
99172	7	Sololá	702	San José Chacayá	5	Chacayá	6	Junio	2023-01-06T00:00:00	2024-11-06T13:00:00	5	Humedad	79
99173	7	Sololá	702	San José Chacayá	5	Chacayá	6	Junio	2023-01-06T00:00:00	2024-11-06T13:00:00	6	Velocidad del viento	4.8
99174	7	Sololá	702	San José Chacayá	5	Chacayá	6	Junio	2023-01-06T00:00:00	2024-11-06T13:00:00	7	Dirección del viento	4.83
99175	7	Sololá	702	San José Chacayá	5	Chacayá	6	Junio	2023-01-06T00:00:00	2024-11-06T13:00:00	1	Precipitación	0
99176	7	Sololá	702	San José Chacayá	5	Chacayá	6	Junio	2023-01-06T00:00:00	2024-11-06T13:00:00	8	Radiación solar	416
99177	7	Sololá	702	San José Chacayá	5	Chacayá	6	Junio	2023-01-06T00:00:00	2024-11-06T14:00:00	2	Temperatura media	18.9
99178	7	Sololá	702	San José Chacayá	5	Chacayá	6	Junio	2023-01-06T00:00:00	2024-11-06T14:00:00	4	Temperatura máxima	20
99179	7	Sololá	702	San José Chacayá	5	Chacayá	6	Junio	2023-01-06T00:00:00	2024-11-06T14:00:00	3	Temperatura mínima	18.9
99180	7	Sololá	702	San José Chacayá	5	Chacayá	6	Junio	2023-01-06T00:00:00	2024-11-06T14:00:00	5	Humedad	80
99181	7	Sololá	702	San José Chacayá	5	Chacayá	6	Junio	2023-01-06T00:00:00	2024-11-06T14:00:00	6	Velocidad del viento	6.4
99182	7	Sololá	702	San José Chacayá	5	Chacayá	6	Junio	2023-01-06T00:00:00	2024-11-06T14:00:00	7	Dirección del viento	6.44
99183	7	Sololá	702	San José Chacayá	5	Chacayá	6	Junio	2023-01-06T00:00:00	2024-11-06T14:00:00	1	Precipitación	0
99184	7	Sololá	702	San José Chacayá	5	Chacayá	6	Junio	2023-01-06T00:00:00	2024-11-06T14:00:00	8	Radiación solar	358
99185	7	Sololá	702	San José Chacayá	5	Chacayá	6	Junio	2023-01-06T00:00:00	2024-11-06T15:00:00	2	Temperatura media	20
99186	7	Sololá	702	San José Chacayá	5	Chacayá	6	Junio	2023-01-06T00:00:00	2024-11-06T15:00:00	4	Temperatura máxima	20.6
99187	7	Sololá	702	San José Chacayá	5	Chacayá	6	Junio	2023-01-06T00:00:00	2024-11-06T15:00:00	3	Temperatura mínima	18.8
99188	7	Sololá	702	San José Chacayá	5	Chacayá	6	Junio	2023-01-06T00:00:00	2024-11-06T15:00:00	5	Humedad	77
99189	7	Sololá	702	San José Chacayá	5	Chacayá	6	Junio	2023-01-06T00:00:00	2024-11-06T15:00:00	6	Velocidad del viento	4.8
99190	7	Sololá	702	San José Chacayá	5	Chacayá	6	Junio	2023-01-06T00:00:00	2024-11-06T15:00:00	7	Dirección del viento	4.83
99191	7	Sololá	702	San José Chacayá	5	Chacayá	6	Junio	2023-01-06T00:00:00	2024-11-06T15:00:00	1	Precipitación	0
99192	7	Sololá	702	San José Chacayá	5	Chacayá	6	Junio	2023-01-06T00:00:00	2024-11-06T15:00:00	8	Radiación solar	388
99193	7	Sololá	702	San José Chacayá	5	Chacayá	6	Junio	2023-01-06T00:00:00	2024-11-06T16:00:00	2	Temperatura media	19.2
99194	7	Sololá	702	San José Chacayá	5	Chacayá	6	Junio	2023-01-06T00:00:00	2024-11-06T16:00:00	4	Temperatura máxima	20.1
99195	7	Sololá	702	San José Chacayá	5	Chacayá	6	Junio	2023-01-06T00:00:00	2024-11-06T16:00:00	3	Temperatura mínima	19.1
99196	7	Sololá	702	San José Chacayá	5	Chacayá	6	Junio	2023-01-06T00:00:00	2024-11-06T16:00:00	5	Humedad	80
99197	7	Sololá	702	San José Chacayá	5	Chacayá	6	Junio	2023-01-06T00:00:00	2024-11-06T16:00:00	6	Velocidad del viento	3.2
99198	7	Sololá	702	San José Chacayá	5	Chacayá	6	Junio	2023-01-06T00:00:00	2024-11-06T16:00:00	7	Dirección del viento	3.22
99199	7	Sololá	702	San José Chacayá	5	Chacayá	6	Junio	2023-01-06T00:00:00	2024-11-06T16:00:00	1	Precipitación	0
99200	7	Sololá	702	San José Chacayá	5	Chacayá	6	Junio	2023-01-06T00:00:00	2024-11-06T16:00:00	8	Radiación solar	197
99201	7	Sololá	702	San José Chacayá	5	Chacayá	6	Junio	2023-01-06T00:00:00	2024-11-06T17:00:00	2	Temperatura media	18.1
99202	7	Sololá	702	San José Chacayá	5	Chacayá	6	Junio	2023-01-06T00:00:00	2024-11-06T17:00:00	4	Temperatura máxima	19.1
99203	7	Sololá	702	San José Chacayá	5	Chacayá	6	Junio	2023-01-06T00:00:00	2024-11-06T17:00:00	3	Temperatura mínima	18.1
99204	7	Sololá	702	San José Chacayá	5	Chacayá	6	Junio	2023-01-06T00:00:00	2024-11-06T17:00:00	5	Humedad	79
99205	7	Sololá	702	San José Chacayá	5	Chacayá	6	Junio	2023-01-06T00:00:00	2024-11-06T17:00:00	6	Velocidad del viento	0
99206	7	Sololá	702	San José Chacayá	5	Chacayá	6	Junio	2023-01-06T00:00:00	2024-11-06T17:00:00	7	Dirección del viento	0
99207	7	Sololá	702	San José Chacayá	5	Chacayá	6	Junio	2023-01-06T00:00:00	2024-11-06T17:00:00	1	Precipitación	0
99208	7	Sololá	702	San José Chacayá	5	Chacayá	6	Junio	2023-01-06T00:00:00	2024-11-06T17:00:00	8	Radiación solar	106
99209	7	Sololá	702	San José Chacayá	5	Chacayá	6	Junio	2023-01-06T00:00:00	2024-11-06T18:00:00	2	Temperatura media	17.4
99210	7	Sololá	702	San José Chacayá	5	Chacayá	6	Junio	2023-01-06T00:00:00	2024-11-06T18:00:00	4	Temperatura máxima	18.1
99211	7	Sololá	702	San José Chacayá	5	Chacayá	6	Junio	2023-01-06T00:00:00	2024-11-06T18:00:00	3	Temperatura mínima	17.4
99212	7	Sololá	702	San José Chacayá	5	Chacayá	6	Junio	2023-01-06T00:00:00	2024-11-06T18:00:00	5	Humedad	71
99213	7	Sololá	702	San José Chacayá	5	Chacayá	6	Junio	2023-01-06T00:00:00	2024-11-06T18:00:00	6	Velocidad del viento	0
99214	7	Sololá	702	San José Chacayá	5	Chacayá	6	Junio	2023-01-06T00:00:00	2024-11-06T18:00:00	7	Dirección del viento	0
99215	7	Sololá	702	San José Chacayá	5	Chacayá	6	Junio	2023-01-06T00:00:00	2024-11-06T18:00:00	1	Precipitación	0
99216	7	Sololá	702	San José Chacayá	5	Chacayá	6	Junio	2023-01-06T00:00:00	2024-11-06T18:00:00	8	Radiación solar	22
99217	7	Sololá	702	San José Chacayá	5	Chacayá	6	Junio	2023-01-06T00:00:00	2024-11-06T19:00:00	2	Temperatura media	16.8
99218	7	Sololá	702	San José Chacayá	5	Chacayá	6	Junio	2023-01-06T00:00:00	2024-11-06T19:00:00	4	Temperatura máxima	17.5
99219	7	Sololá	702	San José Chacayá	5	Chacayá	6	Junio	2023-01-06T00:00:00	2024-11-06T19:00:00	3	Temperatura mínima	16.8
99220	7	Sololá	702	San José Chacayá	5	Chacayá	6	Junio	2023-01-06T00:00:00	2024-11-06T19:00:00	5	Humedad	63
99221	7	Sololá	702	San José Chacayá	5	Chacayá	6	Junio	2023-01-06T00:00:00	2024-11-06T19:00:00	6	Velocidad del viento	0
99222	7	Sololá	702	San José Chacayá	5	Chacayá	6	Junio	2023-01-06T00:00:00	2024-11-06T19:00:00	7	Dirección del viento	0
99223	7	Sololá	702	San José Chacayá	5	Chacayá	6	Junio	2023-01-06T00:00:00	2024-11-06T19:00:00	1	Precipitación	0
99224	7	Sololá	702	San José Chacayá	5	Chacayá	6	Junio	2023-01-06T00:00:00	2024-11-06T19:00:00	8	Radiación solar	0
99225	7	Sololá	702	San José Chacayá	5	Chacayá	6	Junio	2023-01-06T00:00:00	2024-11-06T20:00:00	2	Temperatura media	16.3
99226	7	Sololá	702	San José Chacayá	5	Chacayá	6	Junio	2023-01-06T00:00:00	2024-11-06T20:00:00	4	Temperatura máxima	16.8
99227	7	Sololá	702	San José Chacayá	5	Chacayá	6	Junio	2023-01-06T00:00:00	2024-11-06T20:00:00	3	Temperatura mínima	16.3
99228	7	Sololá	702	San José Chacayá	5	Chacayá	6	Junio	2023-01-06T00:00:00	2024-11-06T20:00:00	5	Humedad	54
99229	7	Sololá	702	San José Chacayá	5	Chacayá	6	Junio	2023-01-06T00:00:00	2024-11-06T20:00:00	6	Velocidad del viento	0
99230	7	Sololá	702	San José Chacayá	5	Chacayá	6	Junio	2023-01-06T00:00:00	2024-11-06T20:00:00	7	Dirección del viento	0
99231	7	Sololá	702	San José Chacayá	5	Chacayá	6	Junio	2023-01-06T00:00:00	2024-11-06T20:00:00	1	Precipitación	0
99232	7	Sololá	702	San José Chacayá	5	Chacayá	6	Junio	2023-01-06T00:00:00	2024-11-06T20:00:00	8	Radiación solar	0
99233	7	Sololá	702	San José Chacayá	5	Chacayá	6	Junio	2023-01-06T00:00:00	2024-11-06T21:00:00	2	Temperatura media	15.5
99234	7	Sololá	702	San José Chacayá	5	Chacayá	6	Junio	2023-01-06T00:00:00	2024-11-06T21:00:00	4	Temperatura máxima	16.3
99235	7	Sololá	702	San José Chacayá	5	Chacayá	6	Junio	2023-01-06T00:00:00	2024-11-06T21:00:00	3	Temperatura mínima	15.5
99236	7	Sololá	702	San José Chacayá	5	Chacayá	6	Junio	2023-01-06T00:00:00	2024-11-06T21:00:00	5	Humedad	55
99237	7	Sololá	702	San José Chacayá	5	Chacayá	6	Junio	2023-01-06T00:00:00	2024-11-06T21:00:00	6	Velocidad del viento	0
99238	7	Sololá	702	San José Chacayá	5	Chacayá	6	Junio	2023-01-06T00:00:00	2024-11-06T21:00:00	7	Dirección del viento	0
99239	7	Sololá	702	San José Chacayá	5	Chacayá	6	Junio	2023-01-06T00:00:00	2024-11-06T21:00:00	1	Precipitación	0
99240	7	Sololá	702	San José Chacayá	5	Chacayá	6	Junio	2023-01-06T00:00:00	2024-11-06T21:00:00	8	Radiación solar	0
99241	7	Sololá	702	San José Chacayá	5	Chacayá	6	Junio	2023-01-06T00:00:00	2024-11-06T22:00:00	2	Temperatura media	14.9
99242	7	Sololá	702	San José Chacayá	5	Chacayá	6	Junio	2023-01-06T00:00:00	2024-11-06T22:00:00	4	Temperatura máxima	15.5
99243	7	Sololá	702	San José Chacayá	5	Chacayá	6	Junio	2023-01-06T00:00:00	2024-11-06T22:00:00	3	Temperatura mínima	14.9
99244	7	Sololá	702	San José Chacayá	5	Chacayá	6	Junio	2023-01-06T00:00:00	2024-11-06T22:00:00	5	Humedad	48
99245	7	Sololá	702	San José Chacayá	5	Chacayá	6	Junio	2023-01-06T00:00:00	2024-11-06T22:00:00	6	Velocidad del viento	1.6
99246	7	Sololá	702	San José Chacayá	5	Chacayá	6	Junio	2023-01-06T00:00:00	2024-11-06T22:00:00	7	Dirección del viento	1.61
99247	7	Sololá	702	San José Chacayá	5	Chacayá	6	Junio	2023-01-06T00:00:00	2024-11-06T22:00:00	1	Precipitación	0
99248	7	Sololá	702	San José Chacayá	5	Chacayá	6	Junio	2023-01-06T00:00:00	2024-11-06T22:00:00	8	Radiación solar	0
99249	7	Sololá	702	San José Chacayá	5	Chacayá	6	Junio	2023-01-06T00:00:00	2024-11-06T23:00:00	2	Temperatura media	14.4
99250	7	Sololá	702	San José Chacayá	5	Chacayá	6	Junio	2023-01-06T00:00:00	2024-11-06T23:00:00	4	Temperatura máxima	15.1
99251	7	Sololá	702	San José Chacayá	5	Chacayá	6	Junio	2023-01-06T00:00:00	2024-11-06T23:00:00	3	Temperatura mínima	14.3
99252	7	Sololá	702	San José Chacayá	5	Chacayá	6	Junio	2023-01-06T00:00:00	2024-11-06T23:00:00	5	Humedad	49
99253	7	Sololá	702	San José Chacayá	5	Chacayá	6	Junio	2023-01-06T00:00:00	2024-11-06T23:00:00	6	Velocidad del viento	1.6
99254	7	Sololá	702	San José Chacayá	5	Chacayá	6	Junio	2023-01-06T00:00:00	2024-11-06T23:00:00	7	Dirección del viento	1.61
99255	7	Sololá	702	San José Chacayá	5	Chacayá	6	Junio	2023-01-06T00:00:00	2024-11-06T23:00:00	1	Precipitación	0
99256	7	Sololá	702	San José Chacayá	5	Chacayá	6	Junio	2023-01-06T00:00:00	2024-11-06T23:00:00	8	Radiación solar	0
99257	7	Sololá	702	San José Chacayá	5	Chacayá	6	Junio	2023-02-06T00:00:00	2024-11-06T00:00:00	2	Temperatura media	14.3
99258	7	Sololá	702	San José Chacayá	5	Chacayá	6	Junio	2023-02-06T00:00:00	2024-11-06T00:00:00	4	Temperatura máxima	14.4
99259	7	Sololá	702	San José Chacayá	5	Chacayá	6	Junio	2023-02-06T00:00:00	2024-11-06T00:00:00	3	Temperatura mínima	14.2
99260	7	Sololá	702	San José Chacayá	5	Chacayá	6	Junio	2023-02-06T00:00:00	2024-11-06T00:00:00	5	Humedad	46
99261	7	Sololá	702	San José Chacayá	5	Chacayá	6	Junio	2023-02-06T00:00:00	2024-11-06T00:00:00	6	Velocidad del viento	1.6
99262	7	Sololá	702	San José Chacayá	5	Chacayá	6	Junio	2023-02-06T00:00:00	2024-11-06T00:00:00	7	Dirección del viento	1.61
99263	7	Sololá	702	San José Chacayá	5	Chacayá	6	Junio	2023-02-06T00:00:00	2024-11-06T00:00:00	1	Precipitación	0
99264	7	Sololá	702	San José Chacayá	5	Chacayá	6	Junio	2023-02-06T00:00:00	2024-11-06T00:00:00	8	Radiación solar	0
99265	7	Sololá	702	San José Chacayá	5	Chacayá	6	Junio	2023-02-06T00:00:00	2024-11-06T01:00:00	2	Temperatura media	13.4
99266	7	Sololá	702	San José Chacayá	5	Chacayá	6	Junio	2023-02-06T00:00:00	2024-11-06T01:00:00	4	Temperatura máxima	14.3
99267	7	Sololá	702	San José Chacayá	5	Chacayá	6	Junio	2023-02-06T00:00:00	2024-11-06T01:00:00	3	Temperatura mínima	13.4
99268	7	Sololá	702	San José Chacayá	5	Chacayá	6	Junio	2023-02-06T00:00:00	2024-11-06T01:00:00	5	Humedad	61
99269	7	Sololá	702	San José Chacayá	5	Chacayá	6	Junio	2023-02-06T00:00:00	2024-11-06T01:00:00	6	Velocidad del viento	1.6
99270	7	Sololá	702	San José Chacayá	5	Chacayá	6	Junio	2023-02-06T00:00:00	2024-11-06T01:00:00	7	Dirección del viento	1.61
99271	7	Sololá	702	San José Chacayá	5	Chacayá	6	Junio	2023-02-06T00:00:00	2024-11-06T01:00:00	1	Precipitación	0
99272	7	Sololá	702	San José Chacayá	5	Chacayá	6	Junio	2023-02-06T00:00:00	2024-11-06T01:00:00	8	Radiación solar	0
99273	7	Sololá	702	San José Chacayá	5	Chacayá	6	Junio	2023-02-06T00:00:00	2024-11-06T02:00:00	2	Temperatura media	12.9
99274	7	Sololá	702	San José Chacayá	5	Chacayá	6	Junio	2023-02-06T00:00:00	2024-11-06T02:00:00	4	Temperatura máxima	13.4
99275	7	Sololá	702	San José Chacayá	5	Chacayá	6	Junio	2023-02-06T00:00:00	2024-11-06T02:00:00	3	Temperatura mínima	12.9
99276	7	Sololá	702	San José Chacayá	5	Chacayá	6	Junio	2023-02-06T00:00:00	2024-11-06T02:00:00	5	Humedad	64
99277	7	Sololá	702	San José Chacayá	5	Chacayá	6	Junio	2023-02-06T00:00:00	2024-11-06T02:00:00	6	Velocidad del viento	3.2
99278	7	Sololá	702	San José Chacayá	5	Chacayá	6	Junio	2023-02-06T00:00:00	2024-11-06T02:00:00	7	Dirección del viento	3.22
99279	7	Sololá	702	San José Chacayá	5	Chacayá	6	Junio	2023-02-06T00:00:00	2024-11-06T02:00:00	1	Precipitación	0
99280	7	Sololá	702	San José Chacayá	5	Chacayá	6	Junio	2023-02-06T00:00:00	2024-11-06T02:00:00	8	Radiación solar	0
99281	7	Sololá	702	San José Chacayá	5	Chacayá	6	Junio	2023-02-06T00:00:00	2024-11-06T03:00:00	2	Temperatura media	12.7
99282	7	Sololá	702	San José Chacayá	5	Chacayá	6	Junio	2023-02-06T00:00:00	2024-11-06T03:00:00	4	Temperatura máxima	12.9
99283	7	Sololá	702	San José Chacayá	5	Chacayá	6	Junio	2023-02-06T00:00:00	2024-11-06T03:00:00	3	Temperatura mínima	12.7
99284	7	Sololá	702	San José Chacayá	5	Chacayá	6	Junio	2023-02-06T00:00:00	2024-11-06T03:00:00	5	Humedad	72
99285	7	Sololá	702	San José Chacayá	5	Chacayá	6	Junio	2023-02-06T00:00:00	2024-11-06T03:00:00	6	Velocidad del viento	3.2
99286	7	Sololá	702	San José Chacayá	5	Chacayá	6	Junio	2023-02-06T00:00:00	2024-11-06T03:00:00	7	Dirección del viento	3.22
99287	7	Sololá	702	San José Chacayá	5	Chacayá	6	Junio	2023-02-06T00:00:00	2024-11-06T03:00:00	1	Precipitación	0
99288	7	Sololá	702	San José Chacayá	5	Chacayá	6	Junio	2023-02-06T00:00:00	2024-11-06T03:00:00	8	Radiación solar	0
99289	7	Sololá	702	San José Chacayá	5	Chacayá	6	Junio	2023-02-06T00:00:00	2024-11-06T04:00:00	2	Temperatura media	11.9
99290	7	Sololá	702	San José Chacayá	5	Chacayá	6	Junio	2023-02-06T00:00:00	2024-11-06T04:00:00	4	Temperatura máxima	12.7
99291	7	Sololá	702	San José Chacayá	5	Chacayá	6	Junio	2023-02-06T00:00:00	2024-11-06T04:00:00	3	Temperatura mínima	11.8
99292	7	Sololá	702	San José Chacayá	5	Chacayá	6	Junio	2023-02-06T00:00:00	2024-11-06T04:00:00	5	Humedad	75
99293	7	Sololá	702	San José Chacayá	5	Chacayá	6	Junio	2023-02-06T00:00:00	2024-11-06T04:00:00	6	Velocidad del viento	4.8
99294	7	Sololá	702	San José Chacayá	5	Chacayá	6	Junio	2023-02-06T00:00:00	2024-11-06T04:00:00	7	Dirección del viento	4.83
99295	7	Sololá	702	San José Chacayá	5	Chacayá	6	Junio	2023-02-06T00:00:00	2024-11-06T04:00:00	1	Precipitación	0
99296	7	Sololá	702	San José Chacayá	5	Chacayá	6	Junio	2023-02-06T00:00:00	2024-11-06T04:00:00	8	Radiación solar	0
99297	7	Sololá	702	San José Chacayá	5	Chacayá	6	Junio	2023-02-06T00:00:00	2024-11-06T05:00:00	2	Temperatura media	11.3
99298	7	Sololá	702	San José Chacayá	5	Chacayá	6	Junio	2023-02-06T00:00:00	2024-11-06T05:00:00	4	Temperatura máxima	11.9
99299	7	Sololá	702	San José Chacayá	5	Chacayá	6	Junio	2023-02-06T00:00:00	2024-11-06T05:00:00	3	Temperatura mínima	11.3
99300	7	Sololá	702	San José Chacayá	5	Chacayá	6	Junio	2023-02-06T00:00:00	2024-11-06T05:00:00	5	Humedad	76
99301	7	Sololá	702	San José Chacayá	5	Chacayá	6	Junio	2023-02-06T00:00:00	2024-11-06T05:00:00	6	Velocidad del viento	3.2
99302	7	Sololá	702	San José Chacayá	5	Chacayá	6	Junio	2023-02-06T00:00:00	2024-11-06T05:00:00	7	Dirección del viento	3.22
99303	7	Sololá	702	San José Chacayá	5	Chacayá	6	Junio	2023-02-06T00:00:00	2024-11-06T05:00:00	1	Precipitación	0
99304	7	Sololá	702	San José Chacayá	5	Chacayá	6	Junio	2023-02-06T00:00:00	2024-11-06T05:00:00	8	Radiación solar	0
99305	7	Sololá	702	San José Chacayá	5	Chacayá	6	Junio	2023-02-06T00:00:00	2024-11-06T06:00:00	2	Temperatura media	11.4
99306	7	Sololá	702	San José Chacayá	5	Chacayá	6	Junio	2023-02-06T00:00:00	2024-11-06T06:00:00	4	Temperatura máxima	11.6
99307	7	Sololá	702	San José Chacayá	5	Chacayá	6	Junio	2023-02-06T00:00:00	2024-11-06T06:00:00	3	Temperatura mínima	11.1
99308	7	Sololá	702	San José Chacayá	5	Chacayá	6	Junio	2023-02-06T00:00:00	2024-11-06T06:00:00	5	Humedad	73
99309	7	Sololá	702	San José Chacayá	5	Chacayá	6	Junio	2023-02-06T00:00:00	2024-11-06T06:00:00	6	Velocidad del viento	4.8
99310	7	Sololá	702	San José Chacayá	5	Chacayá	6	Junio	2023-02-06T00:00:00	2024-11-06T06:00:00	7	Dirección del viento	4.83
99311	7	Sololá	702	San José Chacayá	5	Chacayá	6	Junio	2023-02-06T00:00:00	2024-11-06T06:00:00	1	Precipitación	0
99312	7	Sololá	702	San José Chacayá	5	Chacayá	6	Junio	2023-02-06T00:00:00	2024-11-06T06:00:00	8	Radiación solar	5
99313	7	Sololá	702	San José Chacayá	5	Chacayá	6	Junio	2023-02-06T00:00:00	2024-11-06T07:00:00	2	Temperatura media	13.3
99314	7	Sololá	702	San José Chacayá	5	Chacayá	6	Junio	2023-02-06T00:00:00	2024-11-06T07:00:00	4	Temperatura máxima	13.3
99315	7	Sololá	702	San José Chacayá	5	Chacayá	6	Junio	2023-02-06T00:00:00	2024-11-06T07:00:00	3	Temperatura mínima	11.3
99316	7	Sololá	702	San José Chacayá	5	Chacayá	6	Junio	2023-02-06T00:00:00	2024-11-06T07:00:00	5	Humedad	76
99317	7	Sololá	702	San José Chacayá	5	Chacayá	6	Junio	2023-02-06T00:00:00	2024-11-06T07:00:00	6	Velocidad del viento	3.2
99318	7	Sololá	702	San José Chacayá	5	Chacayá	6	Junio	2023-02-06T00:00:00	2024-11-06T07:00:00	7	Dirección del viento	3.22
99319	7	Sololá	702	San José Chacayá	5	Chacayá	6	Junio	2023-02-06T00:00:00	2024-11-06T07:00:00	1	Precipitación	0
99320	7	Sololá	702	San José Chacayá	5	Chacayá	6	Junio	2023-02-06T00:00:00	2024-11-06T07:00:00	8	Radiación solar	40
99321	7	Sololá	702	San José Chacayá	5	Chacayá	6	Junio	2023-02-06T00:00:00	2024-11-06T08:00:00	2	Temperatura media	17.2
99322	7	Sololá	702	San José Chacayá	5	Chacayá	6	Junio	2023-02-06T00:00:00	2024-11-06T08:00:00	4	Temperatura máxima	17.2
99323	7	Sololá	702	San José Chacayá	5	Chacayá	6	Junio	2023-02-06T00:00:00	2024-11-06T08:00:00	3	Temperatura mínima	13.3
99324	7	Sololá	702	San José Chacayá	5	Chacayá	6	Junio	2023-02-06T00:00:00	2024-11-06T08:00:00	5	Humedad	75
99325	7	Sololá	702	San José Chacayá	5	Chacayá	6	Junio	2023-02-06T00:00:00	2024-11-06T08:00:00	6	Velocidad del viento	0
99326	7	Sololá	702	San José Chacayá	5	Chacayá	6	Junio	2023-02-06T00:00:00	2024-11-06T08:00:00	7	Dirección del viento	0
99327	7	Sololá	702	San José Chacayá	5	Chacayá	6	Junio	2023-02-06T00:00:00	2024-11-06T08:00:00	1	Precipitación	0
99328	7	Sololá	702	San José Chacayá	5	Chacayá	6	Junio	2023-02-06T00:00:00	2024-11-06T08:00:00	8	Radiación solar	109
99329	7	Sololá	702	San José Chacayá	5	Chacayá	6	Junio	2023-02-06T00:00:00	2024-11-06T09:00:00	2	Temperatura media	19.4
99330	7	Sololá	702	San José Chacayá	5	Chacayá	6	Junio	2023-02-06T00:00:00	2024-11-06T09:00:00	4	Temperatura máxima	19.6
99331	7	Sololá	702	San José Chacayá	5	Chacayá	6	Junio	2023-02-06T00:00:00	2024-11-06T09:00:00	3	Temperatura mínima	17.2
99332	7	Sololá	702	San José Chacayá	5	Chacayá	6	Junio	2023-02-06T00:00:00	2024-11-06T09:00:00	5	Humedad	77
99333	7	Sololá	702	San José Chacayá	5	Chacayá	6	Junio	2023-02-06T00:00:00	2024-11-06T09:00:00	6	Velocidad del viento	3.2
99334	7	Sololá	702	San José Chacayá	5	Chacayá	6	Junio	2023-02-06T00:00:00	2024-11-06T09:00:00	7	Dirección del viento	3.22
99335	7	Sololá	702	San José Chacayá	5	Chacayá	6	Junio	2023-02-06T00:00:00	2024-11-06T09:00:00	1	Precipitación	0
99336	7	Sololá	702	San José Chacayá	5	Chacayá	6	Junio	2023-02-06T00:00:00	2024-11-06T09:00:00	8	Radiación solar	532
99337	7	Sololá	702	San José Chacayá	5	Chacayá	6	Junio	2023-02-06T00:00:00	2024-11-06T10:00:00	2	Temperatura media	21.4
99338	7	Sololá	702	San José Chacayá	5	Chacayá	6	Junio	2023-02-06T00:00:00	2024-11-06T10:00:00	4	Temperatura máxima	21.4
99339	7	Sololá	702	San José Chacayá	5	Chacayá	6	Junio	2023-02-06T00:00:00	2024-11-06T10:00:00	3	Temperatura mínima	19.4
99340	7	Sololá	702	San José Chacayá	5	Chacayá	6	Junio	2023-02-06T00:00:00	2024-11-06T10:00:00	5	Humedad	72
99341	7	Sololá	702	San José Chacayá	5	Chacayá	6	Junio	2023-02-06T00:00:00	2024-11-06T10:00:00	6	Velocidad del viento	6.4
99342	7	Sololá	702	San José Chacayá	5	Chacayá	6	Junio	2023-02-06T00:00:00	2024-11-06T10:00:00	7	Dirección del viento	6.44
99343	7	Sololá	702	San José Chacayá	5	Chacayá	6	Junio	2023-02-06T00:00:00	2024-11-06T10:00:00	1	Precipitación	0
99344	7	Sololá	702	San José Chacayá	5	Chacayá	6	Junio	2023-02-06T00:00:00	2024-11-06T10:00:00	8	Radiación solar	809
99345	7	Sololá	702	San José Chacayá	5	Chacayá	6	Junio	2023-02-06T00:00:00	2024-11-06T11:00:00	2	Temperatura media	20.7
99346	7	Sololá	702	San José Chacayá	5	Chacayá	6	Junio	2023-02-06T00:00:00	2024-11-06T11:00:00	4	Temperatura máxima	21.7
99347	7	Sololá	702	San José Chacayá	5	Chacayá	6	Junio	2023-02-06T00:00:00	2024-11-06T11:00:00	3	Temperatura mínima	20.4
99348	7	Sololá	702	San José Chacayá	5	Chacayá	6	Junio	2023-02-06T00:00:00	2024-11-06T11:00:00	5	Humedad	74
99349	7	Sololá	702	San José Chacayá	5	Chacayá	6	Junio	2023-02-06T00:00:00	2024-11-06T11:00:00	6	Velocidad del viento	4.8
99350	7	Sololá	702	San José Chacayá	5	Chacayá	6	Junio	2023-02-06T00:00:00	2024-11-06T11:00:00	7	Dirección del viento	4.83
99351	7	Sololá	702	San José Chacayá	5	Chacayá	6	Junio	2023-02-06T00:00:00	2024-11-06T11:00:00	1	Precipitación	0
99352	7	Sololá	702	San José Chacayá	5	Chacayá	6	Junio	2023-02-06T00:00:00	2024-11-06T11:00:00	8	Radiación solar	713
99353	7	Sololá	702	San José Chacayá	5	Chacayá	6	Junio	2023-02-06T00:00:00	2024-11-06T12:00:00	2	Temperatura media	20.2
99354	7	Sololá	702	San José Chacayá	5	Chacayá	6	Junio	2023-02-06T00:00:00	2024-11-06T12:00:00	4	Temperatura máxima	20.8
99355	7	Sololá	702	San José Chacayá	5	Chacayá	6	Junio	2023-02-06T00:00:00	2024-11-06T12:00:00	3	Temperatura mínima	20.1
99356	7	Sololá	702	San José Chacayá	5	Chacayá	6	Junio	2023-02-06T00:00:00	2024-11-06T12:00:00	5	Humedad	77
99357	7	Sololá	702	San José Chacayá	5	Chacayá	6	Junio	2023-02-06T00:00:00	2024-11-06T12:00:00	6	Velocidad del viento	6.4
99358	7	Sololá	702	San José Chacayá	5	Chacayá	6	Junio	2023-02-06T00:00:00	2024-11-06T12:00:00	7	Dirección del viento	6.44
99359	7	Sololá	702	San José Chacayá	5	Chacayá	6	Junio	2023-02-06T00:00:00	2024-11-06T12:00:00	1	Precipitación	0
99360	7	Sololá	702	San José Chacayá	5	Chacayá	6	Junio	2023-02-06T00:00:00	2024-11-06T12:00:00	8	Radiación solar	509
99361	7	Sololá	702	San José Chacayá	5	Chacayá	6	Junio	2023-02-06T00:00:00	2024-11-06T13:00:00	2	Temperatura media	20.1
99362	7	Sololá	702	San José Chacayá	5	Chacayá	6	Junio	2023-02-06T00:00:00	2024-11-06T13:00:00	4	Temperatura máxima	21
99363	7	Sololá	702	San José Chacayá	5	Chacayá	6	Junio	2023-02-06T00:00:00	2024-11-06T13:00:00	3	Temperatura mínima	20
99364	7	Sololá	702	San José Chacayá	5	Chacayá	6	Junio	2023-02-06T00:00:00	2024-11-06T13:00:00	5	Humedad	78
99365	7	Sololá	702	San José Chacayá	5	Chacayá	6	Junio	2023-02-06T00:00:00	2024-11-06T13:00:00	6	Velocidad del viento	6.4
99366	7	Sololá	702	San José Chacayá	5	Chacayá	6	Junio	2023-02-06T00:00:00	2024-11-06T13:00:00	7	Dirección del viento	6.44
99367	7	Sololá	702	San José Chacayá	5	Chacayá	6	Junio	2023-02-06T00:00:00	2024-11-06T13:00:00	1	Precipitación	0
99368	7	Sololá	702	San José Chacayá	5	Chacayá	6	Junio	2023-02-06T00:00:00	2024-11-06T13:00:00	8	Radiación solar	434
99369	7	Sololá	702	San José Chacayá	5	Chacayá	6	Junio	2023-02-06T00:00:00	2024-11-06T14:00:00	2	Temperatura media	19.6
99370	7	Sololá	702	San José Chacayá	5	Chacayá	6	Junio	2023-02-06T00:00:00	2024-11-06T14:00:00	4	Temperatura máxima	20.4
99371	7	Sololá	702	San José Chacayá	5	Chacayá	6	Junio	2023-02-06T00:00:00	2024-11-06T14:00:00	3	Temperatura mínima	19.5
99372	7	Sololá	702	San José Chacayá	5	Chacayá	6	Junio	2023-02-06T00:00:00	2024-11-06T14:00:00	5	Humedad	79
99373	7	Sololá	702	San José Chacayá	5	Chacayá	6	Junio	2023-02-06T00:00:00	2024-11-06T14:00:00	6	Velocidad del viento	6.4
99374	7	Sololá	702	San José Chacayá	5	Chacayá	6	Junio	2023-02-06T00:00:00	2024-11-06T14:00:00	7	Dirección del viento	6.44
99375	7	Sololá	702	San José Chacayá	5	Chacayá	6	Junio	2023-02-06T00:00:00	2024-11-06T14:00:00	1	Precipitación	0
99376	7	Sololá	702	San José Chacayá	5	Chacayá	6	Junio	2023-02-06T00:00:00	2024-11-06T14:00:00	8	Radiación solar	332
99377	7	Sololá	702	San José Chacayá	5	Chacayá	6	Junio	2023-02-06T00:00:00	2024-11-06T15:00:00	2	Temperatura media	19
99378	7	Sololá	702	San José Chacayá	5	Chacayá	6	Junio	2023-02-06T00:00:00	2024-11-06T15:00:00	4	Temperatura máxima	19.9
99379	7	Sololá	702	San José Chacayá	5	Chacayá	6	Junio	2023-02-06T00:00:00	2024-11-06T15:00:00	3	Temperatura mínima	19
99380	7	Sololá	702	San José Chacayá	5	Chacayá	6	Junio	2023-02-06T00:00:00	2024-11-06T15:00:00	5	Humedad	81
99381	7	Sololá	702	San José Chacayá	5	Chacayá	6	Junio	2023-02-06T00:00:00	2024-11-06T15:00:00	6	Velocidad del viento	3.2
99382	7	Sololá	702	San José Chacayá	5	Chacayá	6	Junio	2023-02-06T00:00:00	2024-11-06T15:00:00	7	Dirección del viento	3.22
99383	7	Sololá	702	San José Chacayá	5	Chacayá	6	Junio	2023-02-06T00:00:00	2024-11-06T15:00:00	1	Precipitación	0
99384	7	Sololá	702	San José Chacayá	5	Chacayá	6	Junio	2023-02-06T00:00:00	2024-11-06T15:00:00	8	Radiación solar	219
99385	7	Sololá	702	San José Chacayá	5	Chacayá	6	Junio	2023-02-06T00:00:00	2024-11-06T16:00:00	2	Temperatura media	18.5
99386	7	Sololá	702	San José Chacayá	5	Chacayá	6	Junio	2023-02-06T00:00:00	2024-11-06T16:00:00	4	Temperatura máxima	20.5
99387	7	Sololá	702	San José Chacayá	5	Chacayá	6	Junio	2023-02-06T00:00:00	2024-11-06T16:00:00	3	Temperatura mínima	18.5
99388	7	Sololá	702	San José Chacayá	5	Chacayá	6	Junio	2023-02-06T00:00:00	2024-11-06T16:00:00	5	Humedad	80
99389	7	Sololá	702	San José Chacayá	5	Chacayá	6	Junio	2023-02-06T00:00:00	2024-11-06T16:00:00	6	Velocidad del viento	3.2
99390	7	Sololá	702	San José Chacayá	5	Chacayá	6	Junio	2023-02-06T00:00:00	2024-11-06T16:00:00	7	Dirección del viento	3.22
99391	7	Sololá	702	San José Chacayá	5	Chacayá	6	Junio	2023-02-06T00:00:00	2024-11-06T16:00:00	1	Precipitación	0
99392	7	Sololá	702	San José Chacayá	5	Chacayá	6	Junio	2023-02-06T00:00:00	2024-11-06T16:00:00	8	Radiación solar	212
99393	7	Sololá	702	San José Chacayá	5	Chacayá	6	Junio	2023-02-06T00:00:00	2024-11-06T17:00:00	2	Temperatura media	17.8
99394	7	Sololá	702	San José Chacayá	5	Chacayá	6	Junio	2023-02-06T00:00:00	2024-11-06T17:00:00	4	Temperatura máxima	18.4
99395	7	Sololá	702	San José Chacayá	5	Chacayá	6	Junio	2023-02-06T00:00:00	2024-11-06T17:00:00	3	Temperatura mínima	17.8
99396	7	Sololá	702	San José Chacayá	5	Chacayá	6	Junio	2023-02-06T00:00:00	2024-11-06T17:00:00	5	Humedad	77
99397	7	Sololá	702	San José Chacayá	5	Chacayá	6	Junio	2023-02-06T00:00:00	2024-11-06T17:00:00	6	Velocidad del viento	0
99398	7	Sololá	702	San José Chacayá	5	Chacayá	6	Junio	2023-02-06T00:00:00	2024-11-06T17:00:00	7	Dirección del viento	0
99399	7	Sololá	702	San José Chacayá	5	Chacayá	6	Junio	2023-02-06T00:00:00	2024-11-06T17:00:00	1	Precipitación	0
99400	7	Sololá	702	San José Chacayá	5	Chacayá	6	Junio	2023-02-06T00:00:00	2024-11-06T17:00:00	8	Radiación solar	56
99401	7	Sololá	702	San José Chacayá	5	Chacayá	6	Junio	2023-02-06T00:00:00	2024-11-06T18:00:00	2	Temperatura media	17.4
99402	7	Sololá	702	San José Chacayá	5	Chacayá	6	Junio	2023-02-06T00:00:00	2024-11-06T18:00:00	4	Temperatura máxima	17.8
99403	7	Sololá	702	San José Chacayá	5	Chacayá	6	Junio	2023-02-06T00:00:00	2024-11-06T18:00:00	3	Temperatura mínima	17.4
99404	7	Sololá	702	San José Chacayá	5	Chacayá	6	Junio	2023-02-06T00:00:00	2024-11-06T18:00:00	5	Humedad	71
99405	7	Sololá	702	San José Chacayá	5	Chacayá	6	Junio	2023-02-06T00:00:00	2024-11-06T18:00:00	6	Velocidad del viento	0
99406	7	Sololá	702	San José Chacayá	5	Chacayá	6	Junio	2023-02-06T00:00:00	2024-11-06T18:00:00	7	Dirección del viento	0
99407	7	Sololá	702	San José Chacayá	5	Chacayá	6	Junio	2023-02-06T00:00:00	2024-11-06T18:00:00	1	Precipitación	0
99408	7	Sololá	702	San José Chacayá	5	Chacayá	6	Junio	2023-02-06T00:00:00	2024-11-06T18:00:00	8	Radiación solar	23
99409	7	Sololá	702	San José Chacayá	5	Chacayá	6	Junio	2023-02-06T00:00:00	2024-11-06T19:00:00	2	Temperatura media	16.3
99410	7	Sololá	702	San José Chacayá	5	Chacayá	6	Junio	2023-02-06T00:00:00	2024-11-06T19:00:00	4	Temperatura máxima	17.4
99411	7	Sololá	702	San José Chacayá	5	Chacayá	6	Junio	2023-02-06T00:00:00	2024-11-06T19:00:00	3	Temperatura mínima	16.3
99412	7	Sololá	702	San José Chacayá	5	Chacayá	6	Junio	2023-02-06T00:00:00	2024-11-06T19:00:00	5	Humedad	63
99413	7	Sololá	702	San José Chacayá	5	Chacayá	6	Junio	2023-02-06T00:00:00	2024-11-06T19:00:00	6	Velocidad del viento	0
99414	7	Sololá	702	San José Chacayá	5	Chacayá	6	Junio	2023-02-06T00:00:00	2024-11-06T19:00:00	7	Dirección del viento	0
99415	7	Sololá	702	San José Chacayá	5	Chacayá	6	Junio	2023-02-06T00:00:00	2024-11-06T19:00:00	1	Precipitación	0
99416	7	Sololá	702	San José Chacayá	5	Chacayá	6	Junio	2023-02-06T00:00:00	2024-11-06T19:00:00	8	Radiación solar	0
99417	7	Sololá	702	San José Chacayá	5	Chacayá	6	Junio	2023-02-06T00:00:00	2024-11-06T20:00:00	2	Temperatura media	16
99418	7	Sololá	702	San José Chacayá	5	Chacayá	6	Junio	2023-02-06T00:00:00	2024-11-06T20:00:00	4	Temperatura máxima	16.3
99419	7	Sololá	702	San José Chacayá	5	Chacayá	6	Junio	2023-02-06T00:00:00	2024-11-06T20:00:00	3	Temperatura mínima	16
99420	7	Sololá	702	San José Chacayá	5	Chacayá	6	Junio	2023-02-06T00:00:00	2024-11-06T20:00:00	5	Humedad	65
99421	7	Sololá	702	San José Chacayá	5	Chacayá	6	Junio	2023-02-06T00:00:00	2024-11-06T20:00:00	6	Velocidad del viento	1.6
99422	7	Sololá	702	San José Chacayá	5	Chacayá	6	Junio	2023-02-06T00:00:00	2024-11-06T20:00:00	7	Dirección del viento	1.61
99423	7	Sololá	702	San José Chacayá	5	Chacayá	6	Junio	2023-02-06T00:00:00	2024-11-06T20:00:00	1	Precipitación	0
99424	7	Sololá	702	San José Chacayá	5	Chacayá	6	Junio	2023-02-06T00:00:00	2024-11-06T20:00:00	8	Radiación solar	0
99425	7	Sololá	702	San José Chacayá	5	Chacayá	6	Junio	2023-02-06T00:00:00	2024-11-06T21:00:00	2	Temperatura media	15.2
99426	7	Sololá	702	San José Chacayá	5	Chacayá	6	Junio	2023-02-06T00:00:00	2024-11-06T21:00:00	4	Temperatura máxima	16
99427	7	Sololá	702	San José Chacayá	5	Chacayá	6	Junio	2023-02-06T00:00:00	2024-11-06T21:00:00	3	Temperatura mínima	15.2
99428	7	Sololá	702	San José Chacayá	5	Chacayá	6	Junio	2023-02-06T00:00:00	2024-11-06T21:00:00	5	Humedad	63
99429	7	Sololá	702	San José Chacayá	5	Chacayá	6	Junio	2023-02-06T00:00:00	2024-11-06T21:00:00	6	Velocidad del viento	0
99430	7	Sololá	702	San José Chacayá	5	Chacayá	6	Junio	2023-02-06T00:00:00	2024-11-06T21:00:00	7	Dirección del viento	0
99431	7	Sololá	702	San José Chacayá	5	Chacayá	6	Junio	2023-02-06T00:00:00	2024-11-06T21:00:00	1	Precipitación	0
99432	7	Sololá	702	San José Chacayá	5	Chacayá	6	Junio	2023-02-06T00:00:00	2024-11-06T21:00:00	8	Radiación solar	0
99433	7	Sololá	702	San José Chacayá	5	Chacayá	6	Junio	2023-02-06T00:00:00	2024-11-06T22:00:00	2	Temperatura media	14.6
99434	7	Sololá	702	San José Chacayá	5	Chacayá	6	Junio	2023-02-06T00:00:00	2024-11-06T22:00:00	4	Temperatura máxima	15.2
99435	7	Sololá	702	San José Chacayá	5	Chacayá	6	Junio	2023-02-06T00:00:00	2024-11-06T22:00:00	3	Temperatura mínima	14.6
99436	7	Sololá	702	San José Chacayá	5	Chacayá	6	Junio	2023-02-06T00:00:00	2024-11-06T22:00:00	5	Humedad	64
99437	7	Sololá	702	San José Chacayá	5	Chacayá	6	Junio	2023-02-06T00:00:00	2024-11-06T22:00:00	6	Velocidad del viento	1.6
99438	7	Sololá	702	San José Chacayá	5	Chacayá	6	Junio	2023-02-06T00:00:00	2024-11-06T22:00:00	7	Dirección del viento	1.61
99439	7	Sololá	702	San José Chacayá	5	Chacayá	6	Junio	2023-02-06T00:00:00	2024-11-06T22:00:00	1	Precipitación	0
99440	7	Sololá	702	San José Chacayá	5	Chacayá	6	Junio	2023-02-06T00:00:00	2024-11-06T22:00:00	8	Radiación solar	0
99441	7	Sololá	702	San José Chacayá	5	Chacayá	6	Junio	2023-02-06T00:00:00	2024-11-06T23:00:00	2	Temperatura media	14.7
99442	7	Sololá	702	San José Chacayá	5	Chacayá	6	Junio	2023-02-06T00:00:00	2024-11-06T23:00:00	4	Temperatura máxima	14.8
99443	7	Sololá	702	San José Chacayá	5	Chacayá	6	Junio	2023-02-06T00:00:00	2024-11-06T23:00:00	3	Temperatura mínima	14.5
99444	7	Sololá	702	San José Chacayá	5	Chacayá	6	Junio	2023-02-06T00:00:00	2024-11-06T23:00:00	5	Humedad	60
99445	7	Sololá	702	San José Chacayá	5	Chacayá	6	Junio	2023-02-06T00:00:00	2024-11-06T23:00:00	6	Velocidad del viento	1.6
99446	7	Sololá	702	San José Chacayá	5	Chacayá	6	Junio	2023-02-06T00:00:00	2024-11-06T23:00:00	7	Dirección del viento	1.61
99447	7	Sololá	702	San José Chacayá	5	Chacayá	6	Junio	2023-02-06T00:00:00	2024-11-06T23:00:00	1	Precipitación	0
99448	7	Sololá	702	San José Chacayá	5	Chacayá	6	Junio	2023-02-06T00:00:00	2024-11-06T23:00:00	8	Radiación solar	0
99449	7	Sololá	702	San José Chacayá	5	Chacayá	6	Junio	2023-03-06T00:00:00	2024-11-06T00:00:00	2	Temperatura media	14.5
99450	7	Sololá	702	San José Chacayá	5	Chacayá	6	Junio	2023-03-06T00:00:00	2024-11-06T00:00:00	4	Temperatura máxima	14.7
99451	7	Sololá	702	San José Chacayá	5	Chacayá	6	Junio	2023-03-06T00:00:00	2024-11-06T00:00:00	3	Temperatura mínima	14.4
99452	7	Sololá	702	San José Chacayá	5	Chacayá	6	Junio	2023-03-06T00:00:00	2024-11-06T00:00:00	5	Humedad	61
99453	7	Sololá	702	San José Chacayá	5	Chacayá	6	Junio	2023-03-06T00:00:00	2024-11-06T00:00:00	6	Velocidad del viento	1.6
99454	7	Sololá	702	San José Chacayá	5	Chacayá	6	Junio	2023-03-06T00:00:00	2024-11-06T00:00:00	7	Dirección del viento	1.61
99455	7	Sololá	702	San José Chacayá	5	Chacayá	6	Junio	2023-03-06T00:00:00	2024-11-06T00:00:00	1	Precipitación	0
99456	7	Sololá	702	San José Chacayá	5	Chacayá	6	Junio	2023-03-06T00:00:00	2024-11-06T00:00:00	8	Radiación solar	0
99457	7	Sololá	702	San José Chacayá	5	Chacayá	6	Junio	2023-03-06T00:00:00	2024-11-06T01:00:00	2	Temperatura media	13.9
99458	7	Sololá	702	San José Chacayá	5	Chacayá	6	Junio	2023-03-06T00:00:00	2024-11-06T01:00:00	4	Temperatura máxima	14.5
99459	7	Sololá	702	San José Chacayá	5	Chacayá	6	Junio	2023-03-06T00:00:00	2024-11-06T01:00:00	3	Temperatura mínima	13.9
99460	7	Sololá	702	San José Chacayá	5	Chacayá	6	Junio	2023-03-06T00:00:00	2024-11-06T01:00:00	5	Humedad	58
99461	7	Sololá	702	San José Chacayá	5	Chacayá	6	Junio	2023-03-06T00:00:00	2024-11-06T01:00:00	6	Velocidad del viento	3.2
99462	7	Sololá	702	San José Chacayá	5	Chacayá	6	Junio	2023-03-06T00:00:00	2024-11-06T01:00:00	7	Dirección del viento	3.22
99463	7	Sololá	702	San José Chacayá	5	Chacayá	6	Junio	2023-03-06T00:00:00	2024-11-06T01:00:00	1	Precipitación	0
99464	7	Sololá	702	San José Chacayá	5	Chacayá	6	Junio	2023-03-06T00:00:00	2024-11-06T01:00:00	8	Radiación solar	0
99465	7	Sololá	702	San José Chacayá	5	Chacayá	6	Junio	2023-03-06T00:00:00	2024-11-06T02:00:00	2	Temperatura media	13.4
99466	7	Sololá	702	San José Chacayá	5	Chacayá	6	Junio	2023-03-06T00:00:00	2024-11-06T02:00:00	4	Temperatura máxima	14
99467	7	Sololá	702	San José Chacayá	5	Chacayá	6	Junio	2023-03-06T00:00:00	2024-11-06T02:00:00	3	Temperatura mínima	13.4
99468	7	Sololá	702	San José Chacayá	5	Chacayá	6	Junio	2023-03-06T00:00:00	2024-11-06T02:00:00	5	Humedad	60
99469	7	Sololá	702	San José Chacayá	5	Chacayá	6	Junio	2023-03-06T00:00:00	2024-11-06T02:00:00	6	Velocidad del viento	1.6
99470	7	Sololá	702	San José Chacayá	5	Chacayá	6	Junio	2023-03-06T00:00:00	2024-11-06T02:00:00	7	Dirección del viento	1.61
99471	7	Sololá	702	San José Chacayá	5	Chacayá	6	Junio	2023-03-06T00:00:00	2024-11-06T02:00:00	1	Precipitación	0
99472	7	Sololá	702	San José Chacayá	5	Chacayá	6	Junio	2023-03-06T00:00:00	2024-11-06T02:00:00	8	Radiación solar	0
99473	7	Sololá	702	San José Chacayá	5	Chacayá	6	Junio	2023-03-06T00:00:00	2024-11-06T03:00:00	2	Temperatura media	12.8
99474	7	Sololá	702	San José Chacayá	5	Chacayá	6	Junio	2023-03-06T00:00:00	2024-11-06T03:00:00	4	Temperatura máxima	13.4
99475	7	Sololá	702	San José Chacayá	5	Chacayá	6	Junio	2023-03-06T00:00:00	2024-11-06T03:00:00	3	Temperatura mínima	12.8
99476	7	Sololá	702	San José Chacayá	5	Chacayá	6	Junio	2023-03-06T00:00:00	2024-11-06T03:00:00	5	Humedad	61
99477	7	Sololá	702	San José Chacayá	5	Chacayá	6	Junio	2023-03-06T00:00:00	2024-11-06T03:00:00	6	Velocidad del viento	1.6
99478	7	Sololá	702	San José Chacayá	5	Chacayá	6	Junio	2023-03-06T00:00:00	2024-11-06T03:00:00	7	Dirección del viento	1.61
99479	7	Sololá	702	San José Chacayá	5	Chacayá	6	Junio	2023-03-06T00:00:00	2024-11-06T03:00:00	1	Precipitación	0
99480	7	Sololá	702	San José Chacayá	5	Chacayá	6	Junio	2023-03-06T00:00:00	2024-11-06T03:00:00	8	Radiación solar	0
99481	7	Sololá	702	San José Chacayá	5	Chacayá	6	Junio	2023-03-06T00:00:00	2024-11-06T04:00:00	2	Temperatura media	13.1
99482	7	Sololá	702	San José Chacayá	5	Chacayá	6	Junio	2023-03-06T00:00:00	2024-11-06T04:00:00	4	Temperatura máxima	13.1
99483	7	Sololá	702	San José Chacayá	5	Chacayá	6	Junio	2023-03-06T00:00:00	2024-11-06T04:00:00	3	Temperatura mínima	12.7
99484	7	Sololá	702	San José Chacayá	5	Chacayá	6	Junio	2023-03-06T00:00:00	2024-11-06T04:00:00	5	Humedad	53
99485	7	Sololá	702	San José Chacayá	5	Chacayá	6	Junio	2023-03-06T00:00:00	2024-11-06T04:00:00	6	Velocidad del viento	3.2
99486	7	Sololá	702	San José Chacayá	5	Chacayá	6	Junio	2023-03-06T00:00:00	2024-11-06T04:00:00	7	Dirección del viento	3.22
99487	7	Sololá	702	San José Chacayá	5	Chacayá	6	Junio	2023-03-06T00:00:00	2024-11-06T04:00:00	1	Precipitación	0
99488	7	Sololá	702	San José Chacayá	5	Chacayá	6	Junio	2023-03-06T00:00:00	2024-11-06T04:00:00	8	Radiación solar	0
99489	7	Sololá	702	San José Chacayá	5	Chacayá	6	Junio	2023-03-06T00:00:00	2024-11-06T05:00:00	2	Temperatura media	12.9
99490	7	Sololá	702	San José Chacayá	5	Chacayá	6	Junio	2023-03-06T00:00:00	2024-11-06T05:00:00	4	Temperatura máxima	13.4
99491	7	Sololá	702	San José Chacayá	5	Chacayá	6	Junio	2023-03-06T00:00:00	2024-11-06T05:00:00	3	Temperatura mínima	12.9
99492	7	Sololá	702	San José Chacayá	5	Chacayá	6	Junio	2023-03-06T00:00:00	2024-11-06T05:00:00	5	Humedad	66
99493	7	Sololá	702	San José Chacayá	5	Chacayá	6	Junio	2023-03-06T00:00:00	2024-11-06T05:00:00	6	Velocidad del viento	3.2
99494	7	Sololá	702	San José Chacayá	5	Chacayá	6	Junio	2023-03-06T00:00:00	2024-11-06T05:00:00	7	Dirección del viento	3.22
99495	7	Sololá	702	San José Chacayá	5	Chacayá	6	Junio	2023-03-06T00:00:00	2024-11-06T05:00:00	1	Precipitación	0
99496	7	Sololá	702	San José Chacayá	5	Chacayá	6	Junio	2023-03-06T00:00:00	2024-11-06T05:00:00	8	Radiación solar	0
99497	7	Sololá	702	San José Chacayá	5	Chacayá	6	Junio	2023-03-06T00:00:00	2024-11-06T06:00:00	2	Temperatura media	12.7
99498	7	Sololá	702	San José Chacayá	5	Chacayá	6	Junio	2023-03-06T00:00:00	2024-11-06T06:00:00	4	Temperatura máxima	12.9
99499	7	Sololá	702	San José Chacayá	5	Chacayá	6	Junio	2023-03-06T00:00:00	2024-11-06T06:00:00	3	Temperatura mínima	12.6
99500	7	Sololá	702	San José Chacayá	5	Chacayá	6	Junio	2023-03-06T00:00:00	2024-11-06T06:00:00	5	Humedad	63
99501	7	Sololá	702	San José Chacayá	5	Chacayá	6	Junio	2023-03-06T00:00:00	2024-11-06T06:00:00	6	Velocidad del viento	3.2
99502	7	Sololá	702	San José Chacayá	5	Chacayá	6	Junio	2023-03-06T00:00:00	2024-11-06T06:00:00	7	Dirección del viento	3.22
99503	7	Sololá	702	San José Chacayá	5	Chacayá	6	Junio	2023-03-06T00:00:00	2024-11-06T06:00:00	1	Precipitación	0
99504	7	Sololá	702	San José Chacayá	5	Chacayá	6	Junio	2023-03-06T00:00:00	2024-11-06T06:00:00	8	Radiación solar	9
99505	7	Sololá	702	San José Chacayá	5	Chacayá	6	Junio	2023-03-06T00:00:00	2024-11-06T07:00:00	2	Temperatura media	14.8
99506	7	Sololá	702	San José Chacayá	5	Chacayá	6	Junio	2023-03-06T00:00:00	2024-11-06T07:00:00	4	Temperatura máxima	14.8
99507	7	Sololá	702	San José Chacayá	5	Chacayá	6	Junio	2023-03-06T00:00:00	2024-11-06T07:00:00	3	Temperatura mínima	12.7
99508	7	Sololá	702	San José Chacayá	5	Chacayá	6	Junio	2023-03-06T00:00:00	2024-11-06T07:00:00	5	Humedad	59
99509	7	Sololá	702	San José Chacayá	5	Chacayá	6	Junio	2023-03-06T00:00:00	2024-11-06T07:00:00	6	Velocidad del viento	1.6
99510	7	Sololá	702	San José Chacayá	5	Chacayá	6	Junio	2023-03-06T00:00:00	2024-11-06T07:00:00	7	Dirección del viento	1.61
99511	7	Sololá	702	San José Chacayá	5	Chacayá	6	Junio	2023-03-06T00:00:00	2024-11-06T07:00:00	1	Precipitación	0
99512	7	Sololá	702	San José Chacayá	5	Chacayá	6	Junio	2023-03-06T00:00:00	2024-11-06T07:00:00	8	Radiación solar	75
99513	7	Sololá	702	San José Chacayá	5	Chacayá	6	Junio	2023-03-06T00:00:00	2024-11-06T08:00:00	2	Temperatura media	18.2
99514	7	Sololá	702	San José Chacayá	5	Chacayá	6	Junio	2023-03-06T00:00:00	2024-11-06T08:00:00	4	Temperatura máxima	18.2
99515	7	Sololá	702	San José Chacayá	5	Chacayá	6	Junio	2023-03-06T00:00:00	2024-11-06T08:00:00	3	Temperatura mínima	14.8
99516	7	Sololá	702	San José Chacayá	5	Chacayá	6	Junio	2023-03-06T00:00:00	2024-11-06T08:00:00	5	Humedad	80
99517	7	Sololá	702	San José Chacayá	5	Chacayá	6	Junio	2023-03-06T00:00:00	2024-11-06T08:00:00	6	Velocidad del viento	0
99518	7	Sololá	702	San José Chacayá	5	Chacayá	6	Junio	2023-03-06T00:00:00	2024-11-06T08:00:00	7	Dirección del viento	0
99519	7	Sololá	702	San José Chacayá	5	Chacayá	6	Junio	2023-03-06T00:00:00	2024-11-06T08:00:00	1	Precipitación	0
99520	7	Sololá	702	San José Chacayá	5	Chacayá	6	Junio	2023-03-06T00:00:00	2024-11-06T08:00:00	8	Radiación solar	202
99521	7	Sololá	702	San José Chacayá	5	Chacayá	6	Junio	2023-03-06T00:00:00	2024-11-06T09:00:00	2	Temperatura media	19.7
99522	7	Sololá	702	San José Chacayá	5	Chacayá	6	Junio	2023-03-06T00:00:00	2024-11-06T09:00:00	4	Temperatura máxima	19.8
99523	7	Sololá	702	San José Chacayá	5	Chacayá	6	Junio	2023-03-06T00:00:00	2024-11-06T09:00:00	3	Temperatura mínima	18.2
99524	7	Sololá	702	San José Chacayá	5	Chacayá	6	Junio	2023-03-06T00:00:00	2024-11-06T09:00:00	5	Humedad	78
99525	7	Sololá	702	San José Chacayá	5	Chacayá	6	Junio	2023-03-06T00:00:00	2024-11-06T09:00:00	6	Velocidad del viento	3.2
99526	7	Sololá	702	San José Chacayá	5	Chacayá	6	Junio	2023-03-06T00:00:00	2024-11-06T09:00:00	7	Dirección del viento	3.22
99527	7	Sololá	702	San José Chacayá	5	Chacayá	6	Junio	2023-03-06T00:00:00	2024-11-06T09:00:00	1	Precipitación	0
99528	7	Sololá	702	San José Chacayá	5	Chacayá	6	Junio	2023-03-06T00:00:00	2024-11-06T09:00:00	8	Radiación solar	394
99529	7	Sololá	702	San José Chacayá	5	Chacayá	6	Junio	2023-03-06T00:00:00	2024-11-06T10:00:00	2	Temperatura media	21.5
99530	7	Sololá	702	San José Chacayá	5	Chacayá	6	Junio	2023-03-06T00:00:00	2024-11-06T10:00:00	4	Temperatura máxima	21.5
99531	7	Sololá	702	San José Chacayá	5	Chacayá	6	Junio	2023-03-06T00:00:00	2024-11-06T10:00:00	3	Temperatura mínima	19.6
99532	7	Sololá	702	San José Chacayá	5	Chacayá	6	Junio	2023-03-06T00:00:00	2024-11-06T10:00:00	5	Humedad	75
99533	7	Sololá	702	San José Chacayá	5	Chacayá	6	Junio	2023-03-06T00:00:00	2024-11-06T10:00:00	6	Velocidad del viento	4.8
99534	7	Sololá	702	San José Chacayá	5	Chacayá	6	Junio	2023-03-06T00:00:00	2024-11-06T10:00:00	7	Dirección del viento	4.83
99535	7	Sololá	702	San José Chacayá	5	Chacayá	6	Junio	2023-03-06T00:00:00	2024-11-06T10:00:00	1	Precipitación	0
99536	7	Sololá	702	San José Chacayá	5	Chacayá	6	Junio	2023-03-06T00:00:00	2024-11-06T10:00:00	8	Radiación solar	642
99537	7	Sololá	702	San José Chacayá	5	Chacayá	6	Junio	2023-03-06T00:00:00	2024-11-06T11:00:00	2	Temperatura media	22.6
99538	7	Sololá	702	San José Chacayá	5	Chacayá	6	Junio	2023-03-06T00:00:00	2024-11-06T11:00:00	4	Temperatura máxima	22.6
99539	7	Sololá	702	San José Chacayá	5	Chacayá	6	Junio	2023-03-06T00:00:00	2024-11-06T11:00:00	3	Temperatura mínima	21.4
99540	7	Sololá	702	San José Chacayá	5	Chacayá	6	Junio	2023-03-06T00:00:00	2024-11-06T11:00:00	5	Humedad	71
99541	7	Sololá	702	San José Chacayá	5	Chacayá	6	Junio	2023-03-06T00:00:00	2024-11-06T11:00:00	6	Velocidad del viento	6.4
99542	7	Sololá	702	San José Chacayá	5	Chacayá	6	Junio	2023-03-06T00:00:00	2024-11-06T11:00:00	7	Dirección del viento	6.44
99543	7	Sololá	702	San José Chacayá	5	Chacayá	6	Junio	2023-03-06T00:00:00	2024-11-06T11:00:00	1	Precipitación	0
99544	7	Sololá	702	San José Chacayá	5	Chacayá	6	Junio	2023-03-06T00:00:00	2024-11-06T11:00:00	8	Radiación solar	886
99545	7	Sololá	702	San José Chacayá	5	Chacayá	6	Junio	2023-03-06T00:00:00	2024-11-06T12:00:00	2	Temperatura media	20.9
99546	7	Sololá	702	San José Chacayá	5	Chacayá	6	Junio	2023-03-06T00:00:00	2024-11-06T12:00:00	4	Temperatura máxima	22.8
99547	7	Sololá	702	San José Chacayá	5	Chacayá	6	Junio	2023-03-06T00:00:00	2024-11-06T12:00:00	3	Temperatura mínima	20.6
99548	7	Sololá	702	San José Chacayá	5	Chacayá	6	Junio	2023-03-06T00:00:00	2024-11-06T12:00:00	5	Humedad	77
99549	7	Sololá	702	San José Chacayá	5	Chacayá	6	Junio	2023-03-06T00:00:00	2024-11-06T12:00:00	6	Velocidad del viento	6.4
99550	7	Sololá	702	San José Chacayá	5	Chacayá	6	Junio	2023-03-06T00:00:00	2024-11-06T12:00:00	7	Dirección del viento	6.44
99551	7	Sololá	702	San José Chacayá	5	Chacayá	6	Junio	2023-03-06T00:00:00	2024-11-06T12:00:00	1	Precipitación	0
99552	7	Sololá	702	San José Chacayá	5	Chacayá	6	Junio	2023-03-06T00:00:00	2024-11-06T12:00:00	8	Radiación solar	625
99553	7	Sololá	702	San José Chacayá	5	Chacayá	6	Junio	2023-03-06T00:00:00	2024-11-06T13:00:00	2	Temperatura media	19.8
99554	7	Sololá	702	San José Chacayá	5	Chacayá	6	Junio	2023-03-06T00:00:00	2024-11-06T13:00:00	4	Temperatura máxima	20.9
99555	7	Sololá	702	San José Chacayá	5	Chacayá	6	Junio	2023-03-06T00:00:00	2024-11-06T13:00:00	3	Temperatura mínima	19.2
99556	7	Sololá	702	San José Chacayá	5	Chacayá	6	Junio	2023-03-06T00:00:00	2024-11-06T13:00:00	5	Humedad	81
99557	7	Sololá	702	San José Chacayá	5	Chacayá	6	Junio	2023-03-06T00:00:00	2024-11-06T13:00:00	6	Velocidad del viento	6.4
99558	7	Sololá	702	San José Chacayá	5	Chacayá	6	Junio	2023-03-06T00:00:00	2024-11-06T13:00:00	7	Dirección del viento	6.44
99559	7	Sololá	702	San José Chacayá	5	Chacayá	6	Junio	2023-03-06T00:00:00	2024-11-06T13:00:00	1	Precipitación	0
99560	7	Sololá	702	San José Chacayá	5	Chacayá	6	Junio	2023-03-06T00:00:00	2024-11-06T13:00:00	8	Radiación solar	243
99561	7	Sololá	702	San José Chacayá	5	Chacayá	6	Junio	2023-03-06T00:00:00	2024-11-06T14:00:00	2	Temperatura media	18.6
99562	7	Sololá	702	San José Chacayá	5	Chacayá	6	Junio	2023-03-06T00:00:00	2024-11-06T14:00:00	4	Temperatura máxima	20.2
99563	7	Sololá	702	San José Chacayá	5	Chacayá	6	Junio	2023-03-06T00:00:00	2024-11-06T14:00:00	3	Temperatura mínima	18.6
99564	7	Sololá	702	San José Chacayá	5	Chacayá	6	Junio	2023-03-06T00:00:00	2024-11-06T14:00:00	5	Humedad	81
99565	7	Sololá	702	San José Chacayá	5	Chacayá	6	Junio	2023-03-06T00:00:00	2024-11-06T14:00:00	6	Velocidad del viento	6.4
99566	7	Sololá	702	San José Chacayá	5	Chacayá	6	Junio	2023-03-06T00:00:00	2024-11-06T14:00:00	7	Dirección del viento	6.44
99567	7	Sololá	702	San José Chacayá	5	Chacayá	6	Junio	2023-03-06T00:00:00	2024-11-06T14:00:00	1	Precipitación	0
99568	7	Sololá	702	San José Chacayá	5	Chacayá	6	Junio	2023-03-06T00:00:00	2024-11-06T14:00:00	8	Radiación solar	960
99569	7	Sololá	702	San José Chacayá	5	Chacayá	6	Junio	2023-03-06T00:00:00	2024-11-06T15:00:00	2	Temperatura media	16.1
99570	7	Sololá	702	San José Chacayá	5	Chacayá	6	Junio	2023-03-06T00:00:00	2024-11-06T15:00:00	4	Temperatura máxima	18.6
99571	7	Sololá	702	San José Chacayá	5	Chacayá	6	Junio	2023-03-06T00:00:00	2024-11-06T15:00:00	3	Temperatura mínima	16.1
99572	7	Sololá	702	San José Chacayá	5	Chacayá	6	Junio	2023-03-06T00:00:00	2024-11-06T15:00:00	5	Humedad	93
99573	7	Sololá	702	San José Chacayá	5	Chacayá	6	Junio	2023-03-06T00:00:00	2024-11-06T15:00:00	6	Velocidad del viento	3.2
99574	7	Sololá	702	San José Chacayá	5	Chacayá	6	Junio	2023-03-06T00:00:00	2024-11-06T15:00:00	7	Dirección del viento	3.22
99575	7	Sololá	702	San José Chacayá	5	Chacayá	6	Junio	2023-03-06T00:00:00	2024-11-06T15:00:00	1	Precipitación	0.2
99576	7	Sololá	702	San José Chacayá	5	Chacayá	6	Junio	2023-03-06T00:00:00	2024-11-06T15:00:00	8	Radiación solar	787
99577	7	Sololá	702	San José Chacayá	5	Chacayá	6	Junio	2023-03-06T00:00:00	2024-11-06T16:00:00	2	Temperatura media	17
99578	7	Sololá	702	San José Chacayá	5	Chacayá	6	Junio	2023-03-06T00:00:00	2024-11-06T16:00:00	4	Temperatura máxima	17
99579	7	Sololá	702	San José Chacayá	5	Chacayá	6	Junio	2023-03-06T00:00:00	2024-11-06T16:00:00	3	Temperatura mínima	15.8
99580	7	Sololá	702	San José Chacayá	5	Chacayá	6	Junio	2023-03-06T00:00:00	2024-11-06T16:00:00	5	Humedad	90
99581	7	Sololá	702	San José Chacayá	5	Chacayá	6	Junio	2023-03-06T00:00:00	2024-11-06T16:00:00	6	Velocidad del viento	1.6
99582	7	Sololá	702	San José Chacayá	5	Chacayá	6	Junio	2023-03-06T00:00:00	2024-11-06T16:00:00	7	Dirección del viento	1.61
99583	7	Sololá	702	San José Chacayá	5	Chacayá	6	Junio	2023-03-06T00:00:00	2024-11-06T16:00:00	1	Precipitación	0
99584	7	Sololá	702	San José Chacayá	5	Chacayá	6	Junio	2023-03-06T00:00:00	2024-11-06T16:00:00	8	Radiación solar	312
99585	7	Sololá	702	San José Chacayá	5	Chacayá	6	Junio	2023-03-06T00:00:00	2024-11-06T17:00:00	2	Temperatura media	17.2
99586	7	Sololá	702	San José Chacayá	5	Chacayá	6	Junio	2023-03-06T00:00:00	2024-11-06T17:00:00	4	Temperatura máxima	18.2
99587	7	Sololá	702	San José Chacayá	5	Chacayá	6	Junio	2023-03-06T00:00:00	2024-11-06T17:00:00	3	Temperatura mínima	17.1
99588	7	Sololá	702	San José Chacayá	5	Chacayá	6	Junio	2023-03-06T00:00:00	2024-11-06T17:00:00	5	Humedad	89
99589	7	Sololá	702	San José Chacayá	5	Chacayá	6	Junio	2023-03-06T00:00:00	2024-11-06T17:00:00	6	Velocidad del viento	1.6
99590	7	Sololá	702	San José Chacayá	5	Chacayá	6	Junio	2023-03-06T00:00:00	2024-11-06T17:00:00	7	Dirección del viento	1.61
99591	7	Sololá	702	San José Chacayá	5	Chacayá	6	Junio	2023-03-06T00:00:00	2024-11-06T17:00:00	1	Precipitación	0
99592	7	Sololá	702	San José Chacayá	5	Chacayá	6	Junio	2023-03-06T00:00:00	2024-11-06T17:00:00	8	Radiación solar	258
99593	7	Sololá	702	San José Chacayá	5	Chacayá	6	Junio	2023-03-06T00:00:00	2024-11-06T18:00:00	2	Temperatura media	18.1
99594	7	Sololá	702	San José Chacayá	5	Chacayá	6	Junio	2023-03-06T00:00:00	2024-11-06T18:00:00	4	Temperatura máxima	18.1
99595	7	Sololá	702	San José Chacayá	5	Chacayá	6	Junio	2023-03-06T00:00:00	2024-11-06T18:00:00	3	Temperatura mínima	18.1
99596	7	Sololá	702	San José Chacayá	5	Chacayá	6	Junio	2023-03-06T00:00:00	2024-11-06T18:00:00	5	Humedad	90
99597	7	Sololá	702	San José Chacayá	5	Chacayá	6	Junio	2023-03-06T00:00:00	2024-11-06T18:00:00	6	Velocidad del viento	0
99598	7	Sololá	702	San José Chacayá	5	Chacayá	6	Junio	2023-03-06T00:00:00	2024-11-06T18:00:00	7	Dirección del viento	0
99599	7	Sololá	702	San José Chacayá	5	Chacayá	6	Junio	2023-03-06T00:00:00	2024-11-06T18:00:00	1	Precipitación	0
99600	7	Sololá	702	San José Chacayá	5	Chacayá	6	Junio	2023-03-06T00:00:00	2024-11-06T18:00:00	8	Radiación solar	47
99601	7	Sololá	702	San José Chacayá	5	Chacayá	6	Junio	2023-03-06T00:00:00	2024-11-06T19:00:00	2	Temperatura media	17.4
99602	7	Sololá	702	San José Chacayá	5	Chacayá	6	Junio	2023-03-06T00:00:00	2024-11-06T19:00:00	4	Temperatura máxima	18.1
99603	7	Sololá	702	San José Chacayá	5	Chacayá	6	Junio	2023-03-06T00:00:00	2024-11-06T19:00:00	3	Temperatura mínima	17.4
99604	7	Sololá	702	San José Chacayá	5	Chacayá	6	Junio	2023-03-06T00:00:00	2024-11-06T19:00:00	5	Humedad	93
99605	7	Sololá	702	San José Chacayá	5	Chacayá	6	Junio	2023-03-06T00:00:00	2024-11-06T19:00:00	6	Velocidad del viento	1.6
99606	7	Sololá	702	San José Chacayá	5	Chacayá	6	Junio	2023-03-06T00:00:00	2024-11-06T19:00:00	7	Dirección del viento	1.61
99607	7	Sololá	702	San José Chacayá	5	Chacayá	6	Junio	2023-03-06T00:00:00	2024-11-06T19:00:00	1	Precipitación	0
99608	7	Sololá	702	San José Chacayá	5	Chacayá	6	Junio	2023-03-06T00:00:00	2024-11-06T19:00:00	8	Radiación solar	0
99609	7	Sololá	702	San José Chacayá	5	Chacayá	6	Junio	2023-03-06T00:00:00	2024-11-06T20:00:00	2	Temperatura media	17.2
99610	7	Sololá	702	San José Chacayá	5	Chacayá	6	Junio	2023-03-06T00:00:00	2024-11-06T20:00:00	4	Temperatura máxima	17.4
99611	7	Sololá	702	San José Chacayá	5	Chacayá	6	Junio	2023-03-06T00:00:00	2024-11-06T20:00:00	3	Temperatura mínima	17.1
99612	7	Sololá	702	San José Chacayá	5	Chacayá	6	Junio	2023-03-06T00:00:00	2024-11-06T20:00:00	5	Humedad	94
99613	7	Sololá	702	San José Chacayá	5	Chacayá	6	Junio	2023-03-06T00:00:00	2024-11-06T20:00:00	6	Velocidad del viento	1.6
99614	7	Sololá	702	San José Chacayá	5	Chacayá	6	Junio	2023-03-06T00:00:00	2024-11-06T20:00:00	7	Dirección del viento	1.61
99615	7	Sololá	702	San José Chacayá	5	Chacayá	6	Junio	2023-03-06T00:00:00	2024-11-06T20:00:00	1	Precipitación	0
99616	7	Sololá	702	San José Chacayá	5	Chacayá	6	Junio	2023-03-06T00:00:00	2024-11-06T20:00:00	8	Radiación solar	0
99617	7	Sololá	702	San José Chacayá	5	Chacayá	6	Junio	2023-03-06T00:00:00	2024-11-06T21:00:00	2	Temperatura media	16.8
99618	7	Sololá	702	San José Chacayá	5	Chacayá	6	Junio	2023-03-06T00:00:00	2024-11-06T21:00:00	4	Temperatura máxima	17.2
99619	7	Sololá	702	San José Chacayá	5	Chacayá	6	Junio	2023-03-06T00:00:00	2024-11-06T21:00:00	3	Temperatura mínima	16.7
99620	7	Sololá	702	San José Chacayá	5	Chacayá	6	Junio	2023-03-06T00:00:00	2024-11-06T21:00:00	5	Humedad	94
99621	7	Sololá	702	San José Chacayá	5	Chacayá	6	Junio	2023-03-06T00:00:00	2024-11-06T21:00:00	6	Velocidad del viento	1.6
99622	7	Sololá	702	San José Chacayá	5	Chacayá	6	Junio	2023-03-06T00:00:00	2024-11-06T21:00:00	7	Dirección del viento	1.61
99623	7	Sololá	702	San José Chacayá	5	Chacayá	6	Junio	2023-03-06T00:00:00	2024-11-06T21:00:00	1	Precipitación	0
99624	7	Sololá	702	San José Chacayá	5	Chacayá	6	Junio	2023-03-06T00:00:00	2024-11-06T21:00:00	8	Radiación solar	0
99625	7	Sololá	702	San José Chacayá	5	Chacayá	6	Junio	2023-03-06T00:00:00	2024-11-06T22:00:00	2	Temperatura media	16.4
99626	7	Sololá	702	San José Chacayá	5	Chacayá	6	Junio	2023-03-06T00:00:00	2024-11-06T22:00:00	4	Temperatura máxima	16.8
99627	7	Sololá	702	San José Chacayá	5	Chacayá	6	Junio	2023-03-06T00:00:00	2024-11-06T22:00:00	3	Temperatura mínima	16.3
99628	7	Sololá	702	San José Chacayá	5	Chacayá	6	Junio	2023-03-06T00:00:00	2024-11-06T22:00:00	5	Humedad	95
99629	7	Sololá	702	San José Chacayá	5	Chacayá	6	Junio	2023-03-06T00:00:00	2024-11-06T22:00:00	6	Velocidad del viento	1.6
99630	7	Sololá	702	San José Chacayá	5	Chacayá	6	Junio	2023-03-06T00:00:00	2024-11-06T22:00:00	7	Dirección del viento	1.61
99631	7	Sololá	702	San José Chacayá	5	Chacayá	6	Junio	2023-03-06T00:00:00	2024-11-06T22:00:00	1	Precipitación	0
99632	7	Sololá	702	San José Chacayá	5	Chacayá	6	Junio	2023-03-06T00:00:00	2024-11-06T22:00:00	8	Radiación solar	0
99633	7	Sololá	702	San José Chacayá	5	Chacayá	6	Junio	2023-03-06T00:00:00	2024-11-06T23:00:00	2	Temperatura media	16.2
99634	7	Sololá	702	San José Chacayá	5	Chacayá	6	Junio	2023-03-06T00:00:00	2024-11-06T23:00:00	4	Temperatura máxima	16.4
99635	7	Sololá	702	San José Chacayá	5	Chacayá	6	Junio	2023-03-06T00:00:00	2024-11-06T23:00:00	3	Temperatura mínima	16.2
99636	7	Sololá	702	San José Chacayá	5	Chacayá	6	Junio	2023-03-06T00:00:00	2024-11-06T23:00:00	5	Humedad	96
99637	7	Sololá	702	San José Chacayá	5	Chacayá	6	Junio	2023-03-06T00:00:00	2024-11-06T23:00:00	6	Velocidad del viento	0
99638	7	Sololá	702	San José Chacayá	5	Chacayá	6	Junio	2023-03-06T00:00:00	2024-11-06T23:00:00	7	Dirección del viento	0
99639	7	Sololá	702	San José Chacayá	5	Chacayá	6	Junio	2023-03-06T00:00:00	2024-11-06T23:00:00	1	Precipitación	0
99640	7	Sololá	702	San José Chacayá	5	Chacayá	6	Junio	2023-03-06T00:00:00	2024-11-06T23:00:00	8	Radiación solar	0
99641	7	Sololá	702	San José Chacayá	5	Chacayá	6	Junio	2023-04-06T00:00:00	2024-11-06T00:00:00	2	Temperatura media	16.1
99642	7	Sololá	702	San José Chacayá	5	Chacayá	6	Junio	2023-04-06T00:00:00	2024-11-06T00:00:00	4	Temperatura máxima	16.3
99643	7	Sololá	702	San José Chacayá	5	Chacayá	6	Junio	2023-04-06T00:00:00	2024-11-06T00:00:00	3	Temperatura mínima	16.1
99644	7	Sololá	702	San José Chacayá	5	Chacayá	6	Junio	2023-04-06T00:00:00	2024-11-06T00:00:00	5	Humedad	95
99645	7	Sololá	702	San José Chacayá	5	Chacayá	6	Junio	2023-04-06T00:00:00	2024-11-06T00:00:00	6	Velocidad del viento	0
99646	7	Sololá	702	San José Chacayá	5	Chacayá	6	Junio	2023-04-06T00:00:00	2024-11-06T00:00:00	7	Dirección del viento	0
99647	7	Sololá	702	San José Chacayá	5	Chacayá	6	Junio	2023-04-06T00:00:00	2024-11-06T00:00:00	1	Precipitación	0
99648	7	Sololá	702	San José Chacayá	5	Chacayá	6	Junio	2023-04-06T00:00:00	2024-11-06T00:00:00	8	Radiación solar	0
99649	7	Sololá	702	San José Chacayá	5	Chacayá	6	Junio	2023-04-06T00:00:00	2024-11-06T01:00:00	2	Temperatura media	16
99650	7	Sololá	702	San José Chacayá	5	Chacayá	6	Junio	2023-04-06T00:00:00	2024-11-06T01:00:00	4	Temperatura máxima	16.1
99651	7	Sololá	702	San José Chacayá	5	Chacayá	6	Junio	2023-04-06T00:00:00	2024-11-06T01:00:00	3	Temperatura mínima	16
99652	7	Sololá	702	San José Chacayá	5	Chacayá	6	Junio	2023-04-06T00:00:00	2024-11-06T01:00:00	5	Humedad	96
99653	7	Sololá	702	San José Chacayá	5	Chacayá	6	Junio	2023-04-06T00:00:00	2024-11-06T01:00:00	6	Velocidad del viento	0
99654	7	Sololá	702	San José Chacayá	5	Chacayá	6	Junio	2023-04-06T00:00:00	2024-11-06T01:00:00	7	Dirección del viento	0
99655	7	Sololá	702	San José Chacayá	5	Chacayá	6	Junio	2023-04-06T00:00:00	2024-11-06T01:00:00	1	Precipitación	0
99656	7	Sololá	702	San José Chacayá	5	Chacayá	6	Junio	2023-04-06T00:00:00	2024-11-06T01:00:00	8	Radiación solar	0
99657	7	Sololá	702	San José Chacayá	5	Chacayá	6	Junio	2023-04-06T00:00:00	2024-11-06T02:00:00	2	Temperatura media	15.6
99658	7	Sololá	702	San José Chacayá	5	Chacayá	6	Junio	2023-04-06T00:00:00	2024-11-06T02:00:00	4	Temperatura máxima	16.1
99659	7	Sololá	702	San José Chacayá	5	Chacayá	6	Junio	2023-04-06T00:00:00	2024-11-06T02:00:00	3	Temperatura mínima	15.6
99660	7	Sololá	702	San José Chacayá	5	Chacayá	6	Junio	2023-04-06T00:00:00	2024-11-06T02:00:00	5	Humedad	94
99661	7	Sololá	702	San José Chacayá	5	Chacayá	6	Junio	2023-04-06T00:00:00	2024-11-06T02:00:00	6	Velocidad del viento	0
99662	7	Sololá	702	San José Chacayá	5	Chacayá	6	Junio	2023-04-06T00:00:00	2024-11-06T02:00:00	7	Dirección del viento	0
99663	7	Sololá	702	San José Chacayá	5	Chacayá	6	Junio	2023-04-06T00:00:00	2024-11-06T02:00:00	1	Precipitación	0
99664	7	Sololá	702	San José Chacayá	5	Chacayá	6	Junio	2023-04-06T00:00:00	2024-11-06T02:00:00	8	Radiación solar	0
99665	7	Sololá	702	San José Chacayá	5	Chacayá	6	Junio	2023-04-06T00:00:00	2024-11-06T03:00:00	2	Temperatura media	15.1
99666	7	Sololá	702	San José Chacayá	5	Chacayá	6	Junio	2023-04-06T00:00:00	2024-11-06T03:00:00	4	Temperatura máxima	15.6
99667	7	Sololá	702	San José Chacayá	5	Chacayá	6	Junio	2023-04-06T00:00:00	2024-11-06T03:00:00	3	Temperatura mínima	15.1
99668	7	Sololá	702	San José Chacayá	5	Chacayá	6	Junio	2023-04-06T00:00:00	2024-11-06T03:00:00	5	Humedad	94
99669	7	Sololá	702	San José Chacayá	5	Chacayá	6	Junio	2023-04-06T00:00:00	2024-11-06T03:00:00	6	Velocidad del viento	0
99670	7	Sololá	702	San José Chacayá	5	Chacayá	6	Junio	2023-04-06T00:00:00	2024-11-06T03:00:00	7	Dirección del viento	0
99671	7	Sololá	702	San José Chacayá	5	Chacayá	6	Junio	2023-04-06T00:00:00	2024-11-06T03:00:00	1	Precipitación	0
99672	7	Sololá	702	San José Chacayá	5	Chacayá	6	Junio	2023-04-06T00:00:00	2024-11-06T03:00:00	8	Radiación solar	0
99673	7	Sololá	702	San José Chacayá	5	Chacayá	6	Junio	2023-04-06T00:00:00	2024-11-06T04:00:00	2	Temperatura media	14.7
99674	7	Sololá	702	San José Chacayá	5	Chacayá	6	Junio	2023-04-06T00:00:00	2024-11-06T04:00:00	4	Temperatura máxima	15.1
99675	7	Sololá	702	San José Chacayá	5	Chacayá	6	Junio	2023-04-06T00:00:00	2024-11-06T04:00:00	3	Temperatura mínima	14.7
99676	7	Sololá	702	San José Chacayá	5	Chacayá	6	Junio	2023-04-06T00:00:00	2024-11-06T04:00:00	5	Humedad	95
99677	7	Sololá	702	San José Chacayá	5	Chacayá	6	Junio	2023-04-06T00:00:00	2024-11-06T04:00:00	6	Velocidad del viento	0
99678	7	Sololá	702	San José Chacayá	5	Chacayá	6	Junio	2023-04-06T00:00:00	2024-11-06T04:00:00	7	Dirección del viento	0
99679	7	Sololá	702	San José Chacayá	5	Chacayá	6	Junio	2023-04-06T00:00:00	2024-11-06T04:00:00	1	Precipitación	0
99680	7	Sololá	702	San José Chacayá	5	Chacayá	6	Junio	2023-04-06T00:00:00	2024-11-06T04:00:00	8	Radiación solar	0
99681	7	Sololá	702	San José Chacayá	5	Chacayá	6	Junio	2023-04-06T00:00:00	2024-11-06T05:00:00	2	Temperatura media	13.8
99682	7	Sololá	702	San José Chacayá	5	Chacayá	6	Junio	2023-04-06T00:00:00	2024-11-06T05:00:00	4	Temperatura máxima	14.7
99683	7	Sololá	702	San José Chacayá	5	Chacayá	6	Junio	2023-04-06T00:00:00	2024-11-06T05:00:00	3	Temperatura mínima	13.8
99684	7	Sololá	702	San José Chacayá	5	Chacayá	6	Junio	2023-04-06T00:00:00	2024-11-06T05:00:00	5	Humedad	94
99685	7	Sololá	702	San José Chacayá	5	Chacayá	6	Junio	2023-04-06T00:00:00	2024-11-06T05:00:00	6	Velocidad del viento	0
99686	7	Sololá	702	San José Chacayá	5	Chacayá	6	Junio	2023-04-06T00:00:00	2024-11-06T05:00:00	7	Dirección del viento	0
99687	7	Sololá	702	San José Chacayá	5	Chacayá	6	Junio	2023-04-06T00:00:00	2024-11-06T05:00:00	1	Precipitación	0
99688	7	Sololá	702	San José Chacayá	5	Chacayá	6	Junio	2023-04-06T00:00:00	2024-11-06T05:00:00	8	Radiación solar	0
99689	7	Sololá	702	San José Chacayá	5	Chacayá	6	Junio	2023-04-06T00:00:00	2024-11-06T06:00:00	2	Temperatura media	13.2
99690	7	Sololá	702	San José Chacayá	5	Chacayá	6	Junio	2023-04-06T00:00:00	2024-11-06T06:00:00	4	Temperatura máxima	13.8
99691	7	Sololá	702	San José Chacayá	5	Chacayá	6	Junio	2023-04-06T00:00:00	2024-11-06T06:00:00	3	Temperatura mínima	13.2
99692	7	Sololá	702	San José Chacayá	5	Chacayá	6	Junio	2023-04-06T00:00:00	2024-11-06T06:00:00	5	Humedad	95
99693	7	Sololá	702	San José Chacayá	5	Chacayá	6	Junio	2023-04-06T00:00:00	2024-11-06T06:00:00	6	Velocidad del viento	0
99694	7	Sololá	702	San José Chacayá	5	Chacayá	6	Junio	2023-04-06T00:00:00	2024-11-06T06:00:00	7	Dirección del viento	0
99695	7	Sololá	702	San José Chacayá	5	Chacayá	6	Junio	2023-04-06T00:00:00	2024-11-06T06:00:00	1	Precipitación	0
99696	7	Sololá	702	San José Chacayá	5	Chacayá	6	Junio	2023-04-06T00:00:00	2024-11-06T06:00:00	8	Radiación solar	7
99697	7	Sololá	702	San José Chacayá	5	Chacayá	6	Junio	2023-04-06T00:00:00	2024-11-06T07:00:00	2	Temperatura media	14.3
99698	7	Sololá	702	San José Chacayá	5	Chacayá	6	Junio	2023-04-06T00:00:00	2024-11-06T07:00:00	4	Temperatura máxima	14.3
99699	7	Sololá	702	San José Chacayá	5	Chacayá	6	Junio	2023-04-06T00:00:00	2024-11-06T07:00:00	3	Temperatura mínima	13.2
99700	7	Sololá	702	San José Chacayá	5	Chacayá	6	Junio	2023-04-06T00:00:00	2024-11-06T07:00:00	5	Humedad	94
99701	7	Sololá	702	San José Chacayá	5	Chacayá	6	Junio	2023-04-06T00:00:00	2024-11-06T07:00:00	6	Velocidad del viento	0
99702	7	Sololá	702	San José Chacayá	5	Chacayá	6	Junio	2023-04-06T00:00:00	2024-11-06T07:00:00	7	Dirección del viento	0
99703	7	Sololá	702	San José Chacayá	5	Chacayá	6	Junio	2023-04-06T00:00:00	2024-11-06T07:00:00	1	Precipitación	0
99704	7	Sololá	702	San José Chacayá	5	Chacayá	6	Junio	2023-04-06T00:00:00	2024-11-06T07:00:00	8	Radiación solar	34
99705	7	Sololá	702	San José Chacayá	5	Chacayá	6	Junio	2023-04-06T00:00:00	2024-11-06T08:00:00	2	Temperatura media	17.9
99706	7	Sololá	702	San José Chacayá	5	Chacayá	6	Junio	2023-04-06T00:00:00	2024-11-06T08:00:00	4	Temperatura máxima	17.9
99707	7	Sololá	702	San José Chacayá	5	Chacayá	6	Junio	2023-04-06T00:00:00	2024-11-06T08:00:00	3	Temperatura mínima	14.3
99708	7	Sololá	702	San José Chacayá	5	Chacayá	6	Junio	2023-04-06T00:00:00	2024-11-06T08:00:00	5	Humedad	80
99709	7	Sololá	702	San José Chacayá	5	Chacayá	6	Junio	2023-04-06T00:00:00	2024-11-06T08:00:00	6	Velocidad del viento	0
99710	7	Sololá	702	San José Chacayá	5	Chacayá	6	Junio	2023-04-06T00:00:00	2024-11-06T08:00:00	7	Dirección del viento	0
99711	7	Sololá	702	San José Chacayá	5	Chacayá	6	Junio	2023-04-06T00:00:00	2024-11-06T08:00:00	1	Precipitación	0
99712	7	Sololá	702	San José Chacayá	5	Chacayá	6	Junio	2023-04-06T00:00:00	2024-11-06T08:00:00	8	Radiación solar	92
99713	7	Sololá	702	San José Chacayá	5	Chacayá	6	Junio	2023-04-06T00:00:00	2024-11-06T09:00:00	2	Temperatura media	20.9
99714	7	Sololá	702	San José Chacayá	5	Chacayá	6	Junio	2023-04-06T00:00:00	2024-11-06T09:00:00	4	Temperatura máxima	21.1
99715	7	Sololá	702	San José Chacayá	5	Chacayá	6	Junio	2023-04-06T00:00:00	2024-11-06T09:00:00	3	Temperatura mínima	17.9
99716	7	Sololá	702	San José Chacayá	5	Chacayá	6	Junio	2023-04-06T00:00:00	2024-11-06T09:00:00	5	Humedad	73
99717	7	Sololá	702	San José Chacayá	5	Chacayá	6	Junio	2023-04-06T00:00:00	2024-11-06T09:00:00	6	Velocidad del viento	1.6
99718	7	Sololá	702	San José Chacayá	5	Chacayá	6	Junio	2023-04-06T00:00:00	2024-11-06T09:00:00	7	Dirección del viento	1.61
99719	7	Sololá	702	San José Chacayá	5	Chacayá	6	Junio	2023-04-06T00:00:00	2024-11-06T09:00:00	1	Precipitación	0
99720	7	Sololá	702	San José Chacayá	5	Chacayá	6	Junio	2023-04-06T00:00:00	2024-11-06T09:00:00	8	Radiación solar	573
99721	7	Sololá	702	San José Chacayá	5	Chacayá	6	Junio	2023-04-06T00:00:00	2024-11-06T10:00:00	2	Temperatura media	23.5
99722	7	Sololá	702	San José Chacayá	5	Chacayá	6	Junio	2023-04-06T00:00:00	2024-11-06T10:00:00	4	Temperatura máxima	23.5
99723	7	Sololá	702	San José Chacayá	5	Chacayá	6	Junio	2023-04-06T00:00:00	2024-11-06T10:00:00	3	Temperatura mínima	20.9
99724	7	Sololá	702	San José Chacayá	5	Chacayá	6	Junio	2023-04-06T00:00:00	2024-11-06T10:00:00	5	Humedad	65
99725	7	Sololá	702	San José Chacayá	5	Chacayá	6	Junio	2023-04-06T00:00:00	2024-11-06T10:00:00	6	Velocidad del viento	3.2
99726	7	Sololá	702	San José Chacayá	5	Chacayá	6	Junio	2023-04-06T00:00:00	2024-11-06T10:00:00	7	Dirección del viento	3.22
99727	7	Sololá	702	San José Chacayá	5	Chacayá	6	Junio	2023-04-06T00:00:00	2024-11-06T10:00:00	1	Precipitación	0
99728	7	Sololá	702	San José Chacayá	5	Chacayá	6	Junio	2023-04-06T00:00:00	2024-11-06T10:00:00	8	Radiación solar	791
99729	7	Sololá	702	San José Chacayá	5	Chacayá	6	Junio	2023-04-06T00:00:00	2024-11-06T11:00:00	2	Temperatura media	23.3
99730	7	Sololá	702	San José Chacayá	5	Chacayá	6	Junio	2023-04-06T00:00:00	2024-11-06T11:00:00	4	Temperatura máxima	24.7
99731	7	Sololá	702	San José Chacayá	5	Chacayá	6	Junio	2023-04-06T00:00:00	2024-11-06T11:00:00	3	Temperatura mínima	23.3
99732	7	Sololá	702	San José Chacayá	5	Chacayá	6	Junio	2023-04-06T00:00:00	2024-11-06T11:00:00	5	Humedad	61
99733	7	Sololá	702	San José Chacayá	5	Chacayá	6	Junio	2023-04-06T00:00:00	2024-11-06T11:00:00	6	Velocidad del viento	4.8
99734	7	Sololá	702	San José Chacayá	5	Chacayá	6	Junio	2023-04-06T00:00:00	2024-11-06T11:00:00	7	Dirección del viento	4.83
99735	7	Sololá	702	San José Chacayá	5	Chacayá	6	Junio	2023-04-06T00:00:00	2024-11-06T11:00:00	1	Precipitación	0
99736	7	Sololá	702	San José Chacayá	5	Chacayá	6	Junio	2023-04-06T00:00:00	2024-11-06T11:00:00	8	Radiación solar	914
99737	7	Sololá	702	San José Chacayá	5	Chacayá	6	Junio	2023-04-06T00:00:00	2024-11-06T12:00:00	2	Temperatura media	23.4
99738	7	Sololá	702	San José Chacayá	5	Chacayá	6	Junio	2023-04-06T00:00:00	2024-11-06T12:00:00	4	Temperatura máxima	23.9
99739	7	Sololá	702	San José Chacayá	5	Chacayá	6	Junio	2023-04-06T00:00:00	2024-11-06T12:00:00	3	Temperatura mínima	23.3
99740	7	Sololá	702	San José Chacayá	5	Chacayá	6	Junio	2023-04-06T00:00:00	2024-11-06T12:00:00	5	Humedad	68
99741	7	Sololá	702	San José Chacayá	5	Chacayá	6	Junio	2023-04-06T00:00:00	2024-11-06T12:00:00	6	Velocidad del viento	4.8
99742	7	Sololá	702	San José Chacayá	5	Chacayá	6	Junio	2023-04-06T00:00:00	2024-11-06T12:00:00	7	Dirección del viento	4.83
99743	7	Sololá	702	San José Chacayá	5	Chacayá	6	Junio	2023-04-06T00:00:00	2024-11-06T12:00:00	1	Precipitación	0
99744	7	Sololá	702	San José Chacayá	5	Chacayá	6	Junio	2023-04-06T00:00:00	2024-11-06T12:00:00	8	Radiación solar	1002
99745	7	Sololá	702	San José Chacayá	5	Chacayá	6	Junio	2023-04-06T00:00:00	2024-11-06T13:00:00	2	Temperatura media	20.9
99746	7	Sololá	702	San José Chacayá	5	Chacayá	6	Junio	2023-04-06T00:00:00	2024-11-06T13:00:00	4	Temperatura máxima	23.4
99747	7	Sololá	702	San José Chacayá	5	Chacayá	6	Junio	2023-04-06T00:00:00	2024-11-06T13:00:00	3	Temperatura mínima	20.9
99748	7	Sololá	702	San José Chacayá	5	Chacayá	6	Junio	2023-04-06T00:00:00	2024-11-06T13:00:00	5	Humedad	78
99749	7	Sololá	702	San José Chacayá	5	Chacayá	6	Junio	2023-04-06T00:00:00	2024-11-06T13:00:00	6	Velocidad del viento	8
99750	7	Sololá	702	San José Chacayá	5	Chacayá	6	Junio	2023-04-06T00:00:00	2024-11-06T13:00:00	7	Dirección del viento	8.05
99751	7	Sololá	702	San José Chacayá	5	Chacayá	6	Junio	2023-04-06T00:00:00	2024-11-06T13:00:00	1	Precipitación	0
99752	7	Sololá	702	San José Chacayá	5	Chacayá	6	Junio	2023-04-06T00:00:00	2024-11-06T13:00:00	8	Radiación solar	1013
99753	7	Sololá	702	San José Chacayá	5	Chacayá	6	Junio	2023-04-06T00:00:00	2024-11-06T14:00:00	2	Temperatura media	20.2
99754	7	Sololá	702	San José Chacayá	5	Chacayá	6	Junio	2023-04-06T00:00:00	2024-11-06T14:00:00	4	Temperatura máxima	21.1
99755	7	Sololá	702	San José Chacayá	5	Chacayá	6	Junio	2023-04-06T00:00:00	2024-11-06T14:00:00	3	Temperatura mínima	20.2
99756	7	Sololá	702	San José Chacayá	5	Chacayá	6	Junio	2023-04-06T00:00:00	2024-11-06T14:00:00	5	Humedad	79
99757	7	Sololá	702	San José Chacayá	5	Chacayá	6	Junio	2023-04-06T00:00:00	2024-11-06T14:00:00	6	Velocidad del viento	6.4
99758	7	Sololá	702	San José Chacayá	5	Chacayá	6	Junio	2023-04-06T00:00:00	2024-11-06T14:00:00	7	Dirección del viento	6.44
99759	7	Sololá	702	San José Chacayá	5	Chacayá	6	Junio	2023-04-06T00:00:00	2024-11-06T14:00:00	1	Precipitación	0
99760	7	Sololá	702	San José Chacayá	5	Chacayá	6	Junio	2023-04-06T00:00:00	2024-11-06T14:00:00	8	Radiación solar	769
99761	7	Sololá	702	San José Chacayá	5	Chacayá	6	Junio	2023-04-06T00:00:00	2024-11-06T15:00:00	2	Temperatura media	18.3
99762	7	Sololá	702	San José Chacayá	5	Chacayá	6	Junio	2023-04-06T00:00:00	2024-11-06T15:00:00	4	Temperatura máxima	20.2
99763	7	Sololá	702	San José Chacayá	5	Chacayá	6	Junio	2023-04-06T00:00:00	2024-11-06T15:00:00	3	Temperatura mínima	18.3
99764	7	Sololá	702	San José Chacayá	5	Chacayá	6	Junio	2023-04-06T00:00:00	2024-11-06T15:00:00	5	Humedad	85
99765	7	Sololá	702	San José Chacayá	5	Chacayá	6	Junio	2023-04-06T00:00:00	2024-11-06T15:00:00	6	Velocidad del viento	4.8
99766	7	Sololá	702	San José Chacayá	5	Chacayá	6	Junio	2023-04-06T00:00:00	2024-11-06T15:00:00	7	Dirección del viento	4.83
99767	7	Sololá	702	San José Chacayá	5	Chacayá	6	Junio	2023-04-06T00:00:00	2024-11-06T15:00:00	1	Precipitación	0
99768	7	Sololá	702	San José Chacayá	5	Chacayá	6	Junio	2023-04-06T00:00:00	2024-11-06T15:00:00	8	Radiación solar	353
99769	7	Sololá	702	San José Chacayá	5	Chacayá	6	Junio	2023-04-06T00:00:00	2024-11-06T16:00:00	2	Temperatura media	17.5
99770	7	Sololá	702	San José Chacayá	5	Chacayá	6	Junio	2023-04-06T00:00:00	2024-11-06T16:00:00	4	Temperatura máxima	18.3
99771	7	Sololá	702	San José Chacayá	5	Chacayá	6	Junio	2023-04-06T00:00:00	2024-11-06T16:00:00	3	Temperatura mínima	17.5
99772	7	Sololá	702	San José Chacayá	5	Chacayá	6	Junio	2023-04-06T00:00:00	2024-11-06T16:00:00	5	Humedad	91
99773	7	Sololá	702	San José Chacayá	5	Chacayá	6	Junio	2023-04-06T00:00:00	2024-11-06T16:00:00	6	Velocidad del viento	1.6
99774	7	Sololá	702	San José Chacayá	5	Chacayá	6	Junio	2023-04-06T00:00:00	2024-11-06T16:00:00	7	Dirección del viento	1.61
99775	7	Sololá	702	San José Chacayá	5	Chacayá	6	Junio	2023-04-06T00:00:00	2024-11-06T16:00:00	1	Precipitación	0
99776	7	Sololá	702	San José Chacayá	5	Chacayá	6	Junio	2023-04-06T00:00:00	2024-11-06T16:00:00	8	Radiación solar	200
99777	7	Sololá	702	San José Chacayá	5	Chacayá	6	Junio	2023-04-06T00:00:00	2024-11-06T17:00:00	2	Temperatura media	16.6
99778	7	Sololá	702	San José Chacayá	5	Chacayá	6	Junio	2023-04-06T00:00:00	2024-11-06T17:00:00	4	Temperatura máxima	17.6
99779	7	Sololá	702	San José Chacayá	5	Chacayá	6	Junio	2023-04-06T00:00:00	2024-11-06T17:00:00	3	Temperatura mínima	16.6
99780	7	Sololá	702	San José Chacayá	5	Chacayá	6	Junio	2023-04-06T00:00:00	2024-11-06T17:00:00	5	Humedad	93
99781	7	Sololá	702	San José Chacayá	5	Chacayá	6	Junio	2023-04-06T00:00:00	2024-11-06T17:00:00	6	Velocidad del viento	1.6
99782	7	Sololá	702	San José Chacayá	5	Chacayá	6	Junio	2023-04-06T00:00:00	2024-11-06T17:00:00	7	Dirección del viento	1.61
99783	7	Sololá	702	San José Chacayá	5	Chacayá	6	Junio	2023-04-06T00:00:00	2024-11-06T17:00:00	1	Precipitación	0
99784	7	Sololá	702	San José Chacayá	5	Chacayá	6	Junio	2023-04-06T00:00:00	2024-11-06T17:00:00	8	Radiación solar	35
99785	7	Sololá	702	San José Chacayá	5	Chacayá	6	Junio	2023-04-06T00:00:00	2024-11-06T18:00:00	2	Temperatura media	16.4
99786	7	Sololá	702	San José Chacayá	5	Chacayá	6	Junio	2023-04-06T00:00:00	2024-11-06T18:00:00	4	Temperatura máxima	16.7
99787	7	Sololá	702	San José Chacayá	5	Chacayá	6	Junio	2023-04-06T00:00:00	2024-11-06T18:00:00	3	Temperatura mínima	16.4
99788	7	Sololá	702	San José Chacayá	5	Chacayá	6	Junio	2023-04-06T00:00:00	2024-11-06T18:00:00	5	Humedad	94
99789	7	Sololá	702	San José Chacayá	5	Chacayá	6	Junio	2023-04-06T00:00:00	2024-11-06T18:00:00	6	Velocidad del viento	1.6
99790	7	Sololá	702	San José Chacayá	5	Chacayá	6	Junio	2023-04-06T00:00:00	2024-11-06T18:00:00	7	Dirección del viento	1.61
99791	7	Sololá	702	San José Chacayá	5	Chacayá	6	Junio	2023-04-06T00:00:00	2024-11-06T18:00:00	1	Precipitación	0
99792	7	Sololá	702	San José Chacayá	5	Chacayá	6	Junio	2023-04-06T00:00:00	2024-11-06T18:00:00	8	Radiación solar	20
99793	7	Sololá	702	San José Chacayá	5	Chacayá	6	Junio	2023-04-06T00:00:00	2024-11-06T19:00:00	2	Temperatura media	16.4
99794	7	Sololá	702	San José Chacayá	5	Chacayá	6	Junio	2023-04-06T00:00:00	2024-11-06T19:00:00	4	Temperatura máxima	17.2
99795	7	Sololá	702	San José Chacayá	5	Chacayá	6	Junio	2023-04-06T00:00:00	2024-11-06T19:00:00	3	Temperatura mínima	16.4
99796	7	Sololá	702	San José Chacayá	5	Chacayá	6	Junio	2023-04-06T00:00:00	2024-11-06T19:00:00	5	Humedad	76
99797	7	Sololá	702	San José Chacayá	5	Chacayá	6	Junio	2023-04-06T00:00:00	2024-11-06T19:00:00	6	Velocidad del viento	6.4
99798	7	Sololá	702	San José Chacayá	5	Chacayá	6	Junio	2023-04-06T00:00:00	2024-11-06T19:00:00	7	Dirección del viento	6.44
99799	7	Sololá	702	San José Chacayá	5	Chacayá	6	Junio	2023-04-06T00:00:00	2024-11-06T19:00:00	1	Precipitación	0.2
99800	7	Sololá	702	San José Chacayá	5	Chacayá	6	Junio	2023-04-06T00:00:00	2024-11-06T19:00:00	8	Radiación solar	0
99801	7	Sololá	702	San José Chacayá	5	Chacayá	6	Junio	2023-04-06T00:00:00	2024-11-06T20:00:00	2	Temperatura media	15.1
99802	7	Sololá	702	San José Chacayá	5	Chacayá	6	Junio	2023-04-06T00:00:00	2024-11-06T20:00:00	4	Temperatura máxima	16.6
99803	7	Sololá	702	San José Chacayá	5	Chacayá	6	Junio	2023-04-06T00:00:00	2024-11-06T20:00:00	3	Temperatura mínima	15
99804	7	Sololá	702	San José Chacayá	5	Chacayá	6	Junio	2023-04-06T00:00:00	2024-11-06T20:00:00	5	Humedad	87
99805	7	Sololá	702	San José Chacayá	5	Chacayá	6	Junio	2023-04-06T00:00:00	2024-11-06T20:00:00	6	Velocidad del viento	1.6
99806	7	Sololá	702	San José Chacayá	5	Chacayá	6	Junio	2023-04-06T00:00:00	2024-11-06T20:00:00	7	Dirección del viento	1.61
99807	7	Sololá	702	San José Chacayá	5	Chacayá	6	Junio	2023-04-06T00:00:00	2024-11-06T20:00:00	1	Precipitación	0
99808	7	Sololá	702	San José Chacayá	5	Chacayá	6	Junio	2023-04-06T00:00:00	2024-11-06T20:00:00	8	Radiación solar	0
99809	7	Sololá	702	San José Chacayá	5	Chacayá	6	Junio	2023-04-06T00:00:00	2024-11-06T21:00:00	2	Temperatura media	14.2
99810	7	Sololá	702	San José Chacayá	5	Chacayá	6	Junio	2023-04-06T00:00:00	2024-11-06T21:00:00	4	Temperatura máxima	15.1
99811	7	Sololá	702	San José Chacayá	5	Chacayá	6	Junio	2023-04-06T00:00:00	2024-11-06T21:00:00	3	Temperatura mínima	14.2
99812	7	Sololá	702	San José Chacayá	5	Chacayá	6	Junio	2023-04-06T00:00:00	2024-11-06T21:00:00	5	Humedad	89
99813	7	Sololá	702	San José Chacayá	5	Chacayá	6	Junio	2023-04-06T00:00:00	2024-11-06T21:00:00	6	Velocidad del viento	0
99814	7	Sololá	702	San José Chacayá	5	Chacayá	6	Junio	2023-04-06T00:00:00	2024-11-06T21:00:00	7	Dirección del viento	0
99815	7	Sololá	702	San José Chacayá	5	Chacayá	6	Junio	2023-04-06T00:00:00	2024-11-06T21:00:00	1	Precipitación	0
99816	7	Sololá	702	San José Chacayá	5	Chacayá	6	Junio	2023-04-06T00:00:00	2024-11-06T21:00:00	8	Radiación solar	0
99817	7	Sololá	702	San José Chacayá	5	Chacayá	6	Junio	2023-04-06T00:00:00	2024-11-06T22:00:00	2	Temperatura media	13.9
99818	7	Sololá	702	San José Chacayá	5	Chacayá	6	Junio	2023-04-06T00:00:00	2024-11-06T22:00:00	4	Temperatura máxima	14.2
99819	7	Sololá	702	San José Chacayá	5	Chacayá	6	Junio	2023-04-06T00:00:00	2024-11-06T22:00:00	3	Temperatura mínima	13.9
99820	7	Sololá	702	San José Chacayá	5	Chacayá	6	Junio	2023-04-06T00:00:00	2024-11-06T22:00:00	5	Humedad	92
99821	7	Sololá	702	San José Chacayá	5	Chacayá	6	Junio	2023-04-06T00:00:00	2024-11-06T22:00:00	6	Velocidad del viento	0
99822	7	Sololá	702	San José Chacayá	5	Chacayá	6	Junio	2023-04-06T00:00:00	2024-11-06T22:00:00	7	Dirección del viento	0
99823	7	Sololá	702	San José Chacayá	5	Chacayá	6	Junio	2023-04-06T00:00:00	2024-11-06T22:00:00	1	Precipitación	0
99824	7	Sololá	702	San José Chacayá	5	Chacayá	6	Junio	2023-04-06T00:00:00	2024-11-06T22:00:00	8	Radiación solar	0
99825	7	Sololá	702	San José Chacayá	5	Chacayá	6	Junio	2023-04-06T00:00:00	2024-11-06T23:00:00	2	Temperatura media	13.8
99826	7	Sololá	702	San José Chacayá	5	Chacayá	6	Junio	2023-04-06T00:00:00	2024-11-06T23:00:00	4	Temperatura máxima	13.9
99827	7	Sololá	702	San José Chacayá	5	Chacayá	6	Junio	2023-04-06T00:00:00	2024-11-06T23:00:00	3	Temperatura mínima	13.7
99828	7	Sololá	702	San José Chacayá	5	Chacayá	6	Junio	2023-04-06T00:00:00	2024-11-06T23:00:00	5	Humedad	90
99829	7	Sololá	702	San José Chacayá	5	Chacayá	6	Junio	2023-04-06T00:00:00	2024-11-06T23:00:00	6	Velocidad del viento	0
99830	7	Sololá	702	San José Chacayá	5	Chacayá	6	Junio	2023-04-06T00:00:00	2024-11-06T23:00:00	7	Dirección del viento	0
99831	7	Sololá	702	San José Chacayá	5	Chacayá	6	Junio	2023-04-06T00:00:00	2024-11-06T23:00:00	1	Precipitación	0
99832	7	Sololá	702	San José Chacayá	5	Chacayá	6	Junio	2023-04-06T00:00:00	2024-11-06T23:00:00	8	Radiación solar	0
99833	7	Sololá	702	San José Chacayá	5	Chacayá	6	Junio	2023-05-06T00:00:00	2024-11-06T00:00:00	2	Temperatura media	13
99834	7	Sololá	702	San José Chacayá	5	Chacayá	6	Junio	2023-05-06T00:00:00	2024-11-06T00:00:00	4	Temperatura máxima	13.8
99835	7	Sololá	702	San José Chacayá	5	Chacayá	6	Junio	2023-05-06T00:00:00	2024-11-06T00:00:00	3	Temperatura mínima	13
99836	7	Sololá	702	San José Chacayá	5	Chacayá	6	Junio	2023-05-06T00:00:00	2024-11-06T00:00:00	5	Humedad	90
99837	7	Sololá	702	San José Chacayá	5	Chacayá	6	Junio	2023-05-06T00:00:00	2024-11-06T00:00:00	6	Velocidad del viento	0
99838	7	Sololá	702	San José Chacayá	5	Chacayá	6	Junio	2023-05-06T00:00:00	2024-11-06T00:00:00	7	Dirección del viento	0
99839	7	Sololá	702	San José Chacayá	5	Chacayá	6	Junio	2023-05-06T00:00:00	2024-11-06T00:00:00	1	Precipitación	0
99840	7	Sololá	702	San José Chacayá	5	Chacayá	6	Junio	2023-05-06T00:00:00	2024-11-06T00:00:00	8	Radiación solar	0
99841	7	Sololá	702	San José Chacayá	5	Chacayá	6	Junio	2023-05-06T00:00:00	2024-11-06T01:00:00	2	Temperatura media	11.5
99842	7	Sololá	702	San José Chacayá	5	Chacayá	6	Junio	2023-05-06T00:00:00	2024-11-06T01:00:00	4	Temperatura máxima	13
99843	7	Sololá	702	San José Chacayá	5	Chacayá	6	Junio	2023-05-06T00:00:00	2024-11-06T01:00:00	3	Temperatura mínima	11.5
99844	7	Sololá	702	San José Chacayá	5	Chacayá	6	Junio	2023-05-06T00:00:00	2024-11-06T01:00:00	5	Humedad	90
99845	7	Sololá	702	San José Chacayá	5	Chacayá	6	Junio	2023-05-06T00:00:00	2024-11-06T01:00:00	6	Velocidad del viento	0
99846	7	Sololá	702	San José Chacayá	5	Chacayá	6	Junio	2023-05-06T00:00:00	2024-11-06T01:00:00	7	Dirección del viento	0
99847	7	Sololá	702	San José Chacayá	5	Chacayá	6	Junio	2023-05-06T00:00:00	2024-11-06T01:00:00	1	Precipitación	0
99848	7	Sololá	702	San José Chacayá	5	Chacayá	6	Junio	2023-05-06T00:00:00	2024-11-06T01:00:00	8	Radiación solar	0
99849	7	Sololá	702	San José Chacayá	5	Chacayá	6	Junio	2023-05-06T00:00:00	2024-11-06T02:00:00	2	Temperatura media	10.6
99850	7	Sololá	702	San José Chacayá	5	Chacayá	6	Junio	2023-05-06T00:00:00	2024-11-06T02:00:00	4	Temperatura máxima	11.5
99851	7	Sololá	702	San José Chacayá	5	Chacayá	6	Junio	2023-05-06T00:00:00	2024-11-06T02:00:00	3	Temperatura mínima	10.6
99852	7	Sololá	702	San José Chacayá	5	Chacayá	6	Junio	2023-05-06T00:00:00	2024-11-06T02:00:00	5	Humedad	91
99853	7	Sololá	702	San José Chacayá	5	Chacayá	6	Junio	2023-05-06T00:00:00	2024-11-06T02:00:00	6	Velocidad del viento	0
99854	7	Sololá	702	San José Chacayá	5	Chacayá	6	Junio	2023-05-06T00:00:00	2024-11-06T02:00:00	7	Dirección del viento	0
99855	7	Sololá	702	San José Chacayá	5	Chacayá	6	Junio	2023-05-06T00:00:00	2024-11-06T02:00:00	1	Precipitación	0
99856	7	Sololá	702	San José Chacayá	5	Chacayá	6	Junio	2023-05-06T00:00:00	2024-11-06T02:00:00	8	Radiación solar	0
99857	7	Sololá	702	San José Chacayá	5	Chacayá	6	Junio	2023-05-06T00:00:00	2024-11-06T03:00:00	2	Temperatura media	10.3
99858	7	Sololá	702	San José Chacayá	5	Chacayá	6	Junio	2023-05-06T00:00:00	2024-11-06T03:00:00	4	Temperatura máxima	10.6
99859	7	Sololá	702	San José Chacayá	5	Chacayá	6	Junio	2023-05-06T00:00:00	2024-11-06T03:00:00	3	Temperatura mínima	10.3
99860	7	Sololá	702	San José Chacayá	5	Chacayá	6	Junio	2023-05-06T00:00:00	2024-11-06T03:00:00	5	Humedad	89
99861	7	Sololá	702	San José Chacayá	5	Chacayá	6	Junio	2023-05-06T00:00:00	2024-11-06T03:00:00	6	Velocidad del viento	1.6
99862	7	Sololá	702	San José Chacayá	5	Chacayá	6	Junio	2023-05-06T00:00:00	2024-11-06T03:00:00	7	Dirección del viento	1.61
99863	7	Sololá	702	San José Chacayá	5	Chacayá	6	Junio	2023-05-06T00:00:00	2024-11-06T03:00:00	1	Precipitación	0
99864	7	Sololá	702	San José Chacayá	5	Chacayá	6	Junio	2023-05-06T00:00:00	2024-11-06T03:00:00	8	Radiación solar	0
99865	7	Sololá	702	San José Chacayá	5	Chacayá	6	Junio	2023-05-06T00:00:00	2024-11-06T04:00:00	2	Temperatura media	9.8
99866	7	Sololá	702	San José Chacayá	5	Chacayá	6	Junio	2023-05-06T00:00:00	2024-11-06T04:00:00	4	Temperatura máxima	10.3
99867	7	Sololá	702	San José Chacayá	5	Chacayá	6	Junio	2023-05-06T00:00:00	2024-11-06T04:00:00	3	Temperatura mínima	9.8
99868	7	Sololá	702	San José Chacayá	5	Chacayá	6	Junio	2023-05-06T00:00:00	2024-11-06T04:00:00	5	Humedad	91
99869	7	Sololá	702	San José Chacayá	5	Chacayá	6	Junio	2023-05-06T00:00:00	2024-11-06T04:00:00	6	Velocidad del viento	1.6
99870	7	Sololá	702	San José Chacayá	5	Chacayá	6	Junio	2023-05-06T00:00:00	2024-11-06T04:00:00	7	Dirección del viento	1.61
99871	7	Sololá	702	San José Chacayá	5	Chacayá	6	Junio	2023-05-06T00:00:00	2024-11-06T04:00:00	1	Precipitación	0
99872	7	Sololá	702	San José Chacayá	5	Chacayá	6	Junio	2023-05-06T00:00:00	2024-11-06T04:00:00	8	Radiación solar	0
99873	7	Sololá	702	San José Chacayá	5	Chacayá	6	Junio	2023-05-06T00:00:00	2024-11-06T05:00:00	2	Temperatura media	9.8
99874	7	Sololá	702	San José Chacayá	5	Chacayá	6	Junio	2023-05-06T00:00:00	2024-11-06T05:00:00	4	Temperatura máxima	9.9
99875	7	Sololá	702	San José Chacayá	5	Chacayá	6	Junio	2023-05-06T00:00:00	2024-11-06T05:00:00	3	Temperatura mínima	9.8
99876	7	Sololá	702	San José Chacayá	5	Chacayá	6	Junio	2023-05-06T00:00:00	2024-11-06T05:00:00	5	Humedad	92
99877	7	Sololá	702	San José Chacayá	5	Chacayá	6	Junio	2023-05-06T00:00:00	2024-11-06T05:00:00	6	Velocidad del viento	1.6
99878	7	Sololá	702	San José Chacayá	5	Chacayá	6	Junio	2023-05-06T00:00:00	2024-11-06T05:00:00	7	Dirección del viento	1.61
99879	7	Sololá	702	San José Chacayá	5	Chacayá	6	Junio	2023-05-06T00:00:00	2024-11-06T05:00:00	1	Precipitación	0
99880	7	Sololá	702	San José Chacayá	5	Chacayá	6	Junio	2023-05-06T00:00:00	2024-11-06T05:00:00	8	Radiación solar	0
99881	7	Sololá	702	San José Chacayá	5	Chacayá	6	Junio	2023-05-06T00:00:00	2024-11-06T06:00:00	2	Temperatura media	9.9
99882	7	Sololá	702	San José Chacayá	5	Chacayá	6	Junio	2023-05-06T00:00:00	2024-11-06T06:00:00	4	Temperatura máxima	10
99883	7	Sololá	702	San José Chacayá	5	Chacayá	6	Junio	2023-05-06T00:00:00	2024-11-06T06:00:00	3	Temperatura mínima	9.8
99884	7	Sololá	702	San José Chacayá	5	Chacayá	6	Junio	2023-05-06T00:00:00	2024-11-06T06:00:00	5	Humedad	91
99885	7	Sololá	702	San José Chacayá	5	Chacayá	6	Junio	2023-05-06T00:00:00	2024-11-06T06:00:00	6	Velocidad del viento	0
99886	7	Sololá	702	San José Chacayá	5	Chacayá	6	Junio	2023-05-06T00:00:00	2024-11-06T06:00:00	7	Dirección del viento	0
99887	7	Sololá	702	San José Chacayá	5	Chacayá	6	Junio	2023-05-06T00:00:00	2024-11-06T06:00:00	1	Precipitación	0
99888	7	Sololá	702	San José Chacayá	5	Chacayá	6	Junio	2023-05-06T00:00:00	2024-11-06T06:00:00	8	Radiación solar	6
99889	7	Sololá	702	San José Chacayá	5	Chacayá	6	Junio	2023-05-06T00:00:00	2024-11-06T07:00:00	2	Temperatura media	13.4
99890	7	Sololá	702	San José Chacayá	5	Chacayá	6	Junio	2023-05-06T00:00:00	2024-11-06T07:00:00	4	Temperatura máxima	13.4
99891	7	Sololá	702	San José Chacayá	5	Chacayá	6	Junio	2023-05-06T00:00:00	2024-11-06T07:00:00	3	Temperatura mínima	9.9
99892	7	Sololá	702	San José Chacayá	5	Chacayá	6	Junio	2023-05-06T00:00:00	2024-11-06T07:00:00	5	Humedad	85
99893	7	Sololá	702	San José Chacayá	5	Chacayá	6	Junio	2023-05-06T00:00:00	2024-11-06T07:00:00	6	Velocidad del viento	0
99894	7	Sololá	702	San José Chacayá	5	Chacayá	6	Junio	2023-05-06T00:00:00	2024-11-06T07:00:00	7	Dirección del viento	0
99895	7	Sololá	702	San José Chacayá	5	Chacayá	6	Junio	2023-05-06T00:00:00	2024-11-06T07:00:00	1	Precipitación	0
99896	7	Sololá	702	San José Chacayá	5	Chacayá	6	Junio	2023-05-06T00:00:00	2024-11-06T07:00:00	8	Radiación solar	67
99897	7	Sololá	702	San José Chacayá	5	Chacayá	6	Junio	2023-05-06T00:00:00	2024-11-06T08:00:00	2	Temperatura media	18.8
99898	7	Sololá	702	San José Chacayá	5	Chacayá	6	Junio	2023-05-06T00:00:00	2024-11-06T08:00:00	4	Temperatura máxima	18.8
99899	7	Sololá	702	San José Chacayá	5	Chacayá	6	Junio	2023-05-06T00:00:00	2024-11-06T08:00:00	3	Temperatura mínima	13.4
99900	7	Sololá	702	San José Chacayá	5	Chacayá	6	Junio	2023-05-06T00:00:00	2024-11-06T08:00:00	5	Humedad	65
99901	7	Sololá	702	San José Chacayá	5	Chacayá	6	Junio	2023-05-06T00:00:00	2024-11-06T08:00:00	6	Velocidad del viento	1.6
99902	7	Sololá	702	San José Chacayá	5	Chacayá	6	Junio	2023-05-06T00:00:00	2024-11-06T08:00:00	7	Dirección del viento	1.61
99903	7	Sololá	702	San José Chacayá	5	Chacayá	6	Junio	2023-05-06T00:00:00	2024-11-06T08:00:00	1	Precipitación	0
99904	7	Sololá	702	San José Chacayá	5	Chacayá	6	Junio	2023-05-06T00:00:00	2024-11-06T08:00:00	8	Radiación solar	127
99905	7	Sololá	702	San José Chacayá	5	Chacayá	6	Junio	2023-05-06T00:00:00	2024-11-06T09:00:00	2	Temperatura media	19.9
99906	7	Sololá	702	San José Chacayá	5	Chacayá	6	Junio	2023-05-06T00:00:00	2024-11-06T09:00:00	4	Temperatura máxima	19.9
99907	7	Sololá	702	San José Chacayá	5	Chacayá	6	Junio	2023-05-06T00:00:00	2024-11-06T09:00:00	3	Temperatura mínima	18.8
99908	7	Sololá	702	San José Chacayá	5	Chacayá	6	Junio	2023-05-06T00:00:00	2024-11-06T09:00:00	5	Humedad	67
99909	7	Sololá	702	San José Chacayá	5	Chacayá	6	Junio	2023-05-06T00:00:00	2024-11-06T09:00:00	6	Velocidad del viento	3.2
99910	7	Sololá	702	San José Chacayá	5	Chacayá	6	Junio	2023-05-06T00:00:00	2024-11-06T09:00:00	7	Dirección del viento	3.22
99911	7	Sololá	702	San José Chacayá	5	Chacayá	6	Junio	2023-05-06T00:00:00	2024-11-06T09:00:00	1	Precipitación	0
99912	7	Sololá	702	San José Chacayá	5	Chacayá	6	Junio	2023-05-06T00:00:00	2024-11-06T09:00:00	8	Radiación solar	558
99913	7	Sololá	702	San José Chacayá	5	Chacayá	6	Junio	2023-05-06T00:00:00	2024-11-06T10:00:00	2	Temperatura media	20.4
99914	7	Sololá	702	San José Chacayá	5	Chacayá	6	Junio	2023-05-06T00:00:00	2024-11-06T10:00:00	4	Temperatura máxima	20.4
99915	7	Sololá	702	San José Chacayá	5	Chacayá	6	Junio	2023-05-06T00:00:00	2024-11-06T10:00:00	3	Temperatura mínima	19.1
99916	7	Sololá	702	San José Chacayá	5	Chacayá	6	Junio	2023-05-06T00:00:00	2024-11-06T10:00:00	5	Humedad	69
99917	7	Sololá	702	San José Chacayá	5	Chacayá	6	Junio	2023-05-06T00:00:00	2024-11-06T10:00:00	6	Velocidad del viento	4.8
99918	7	Sololá	702	San José Chacayá	5	Chacayá	6	Junio	2023-05-06T00:00:00	2024-11-06T10:00:00	7	Dirección del viento	4.83
99919	7	Sololá	702	San José Chacayá	5	Chacayá	6	Junio	2023-05-06T00:00:00	2024-11-06T10:00:00	1	Precipitación	0
99920	7	Sololá	702	San José Chacayá	5	Chacayá	6	Junio	2023-05-06T00:00:00	2024-11-06T10:00:00	8	Radiación solar	798
99921	7	Sololá	702	San José Chacayá	5	Chacayá	6	Junio	2023-05-06T00:00:00	2024-11-06T11:00:00	2	Temperatura media	19.4
99922	7	Sololá	702	San José Chacayá	5	Chacayá	6	Junio	2023-05-06T00:00:00	2024-11-06T11:00:00	4	Temperatura máxima	20.6
99923	7	Sololá	702	San José Chacayá	5	Chacayá	6	Junio	2023-05-06T00:00:00	2024-11-06T11:00:00	3	Temperatura mínima	19.2
99924	7	Sololá	702	San José Chacayá	5	Chacayá	6	Junio	2023-05-06T00:00:00	2024-11-06T11:00:00	5	Humedad	70
99925	7	Sololá	702	San José Chacayá	5	Chacayá	6	Junio	2023-05-06T00:00:00	2024-11-06T11:00:00	6	Velocidad del viento	6.4
99926	7	Sololá	702	San José Chacayá	5	Chacayá	6	Junio	2023-05-06T00:00:00	2024-11-06T11:00:00	7	Dirección del viento	6.44
99927	7	Sololá	702	San José Chacayá	5	Chacayá	6	Junio	2023-05-06T00:00:00	2024-11-06T11:00:00	1	Precipitación	0
99928	7	Sololá	702	San José Chacayá	5	Chacayá	6	Junio	2023-05-06T00:00:00	2024-11-06T11:00:00	8	Radiación solar	970
99929	7	Sololá	702	San José Chacayá	5	Chacayá	6	Junio	2023-05-06T00:00:00	2024-11-06T12:00:00	2	Temperatura media	21.2
99930	7	Sololá	702	San José Chacayá	5	Chacayá	6	Junio	2023-05-06T00:00:00	2024-11-06T12:00:00	4	Temperatura máxima	21.2
99931	7	Sololá	702	San José Chacayá	5	Chacayá	6	Junio	2023-05-06T00:00:00	2024-11-06T12:00:00	3	Temperatura mínima	19.3
99932	7	Sololá	702	San José Chacayá	5	Chacayá	6	Junio	2023-05-06T00:00:00	2024-11-06T12:00:00	5	Humedad	66
99933	7	Sololá	702	San José Chacayá	5	Chacayá	6	Junio	2023-05-06T00:00:00	2024-11-06T12:00:00	6	Velocidad del viento	4.8
99934	7	Sololá	702	San José Chacayá	5	Chacayá	6	Junio	2023-05-06T00:00:00	2024-11-06T12:00:00	7	Dirección del viento	4.83
99935	7	Sololá	702	San José Chacayá	5	Chacayá	6	Junio	2023-05-06T00:00:00	2024-11-06T12:00:00	1	Precipitación	0
99936	7	Sololá	702	San José Chacayá	5	Chacayá	6	Junio	2023-05-06T00:00:00	2024-11-06T12:00:00	8	Radiación solar	920
99937	7	Sololá	702	San José Chacayá	5	Chacayá	6	Junio	2023-05-06T00:00:00	2024-11-06T13:00:00	2	Temperatura media	22.7
99938	7	Sololá	702	San José Chacayá	5	Chacayá	6	Junio	2023-05-06T00:00:00	2024-11-06T13:00:00	4	Temperatura máxima	22.7
99939	7	Sololá	702	San José Chacayá	5	Chacayá	6	Junio	2023-05-06T00:00:00	2024-11-06T13:00:00	3	Temperatura mínima	21.2
99940	7	Sololá	702	San José Chacayá	5	Chacayá	6	Junio	2023-05-06T00:00:00	2024-11-06T13:00:00	5	Humedad	65
99941	7	Sololá	702	San José Chacayá	5	Chacayá	6	Junio	2023-05-06T00:00:00	2024-11-06T13:00:00	6	Velocidad del viento	4.8
99942	7	Sololá	702	San José Chacayá	5	Chacayá	6	Junio	2023-05-06T00:00:00	2024-11-06T13:00:00	7	Dirección del viento	4.83
99943	7	Sololá	702	San José Chacayá	5	Chacayá	6	Junio	2023-05-06T00:00:00	2024-11-06T13:00:00	1	Precipitación	0
99944	7	Sololá	702	San José Chacayá	5	Chacayá	6	Junio	2023-05-06T00:00:00	2024-11-06T13:00:00	8	Radiación solar	732
99945	7	Sololá	702	San José Chacayá	5	Chacayá	6	Junio	2023-05-06T00:00:00	2024-11-06T14:00:00	2	Temperatura media	20.7
99946	7	Sololá	702	San José Chacayá	5	Chacayá	6	Junio	2023-05-06T00:00:00	2024-11-06T14:00:00	4	Temperatura máxima	22.7
99947	7	Sololá	702	San José Chacayá	5	Chacayá	6	Junio	2023-05-06T00:00:00	2024-11-06T14:00:00	3	Temperatura mínima	20.7
99948	7	Sololá	702	San José Chacayá	5	Chacayá	6	Junio	2023-05-06T00:00:00	2024-11-06T14:00:00	5	Humedad	63
99949	7	Sololá	702	San José Chacayá	5	Chacayá	6	Junio	2023-05-06T00:00:00	2024-11-06T14:00:00	6	Velocidad del viento	8
99950	7	Sololá	702	San José Chacayá	5	Chacayá	6	Junio	2023-05-06T00:00:00	2024-11-06T14:00:00	7	Dirección del viento	8.05
99951	7	Sololá	702	San José Chacayá	5	Chacayá	6	Junio	2023-05-06T00:00:00	2024-11-06T14:00:00	1	Precipitación	0
99952	7	Sololá	702	San José Chacayá	5	Chacayá	6	Junio	2023-05-06T00:00:00	2024-11-06T14:00:00	8	Radiación solar	578
99953	7	Sololá	702	San José Chacayá	5	Chacayá	6	Junio	2023-05-06T00:00:00	2024-11-06T15:00:00	2	Temperatura media	20.9
99954	7	Sololá	702	San José Chacayá	5	Chacayá	6	Junio	2023-05-06T00:00:00	2024-11-06T15:00:00	4	Temperatura máxima	21.4
99955	7	Sololá	702	San José Chacayá	5	Chacayá	6	Junio	2023-05-06T00:00:00	2024-11-06T15:00:00	3	Temperatura mínima	20.5
99956	7	Sololá	702	San José Chacayá	5	Chacayá	6	Junio	2023-05-06T00:00:00	2024-11-06T15:00:00	5	Humedad	69
99957	7	Sololá	702	San José Chacayá	5	Chacayá	6	Junio	2023-05-06T00:00:00	2024-11-06T15:00:00	6	Velocidad del viento	4.8
99958	7	Sololá	702	San José Chacayá	5	Chacayá	6	Junio	2023-05-06T00:00:00	2024-11-06T15:00:00	7	Dirección del viento	4.83
99959	7	Sololá	702	San José Chacayá	5	Chacayá	6	Junio	2023-05-06T00:00:00	2024-11-06T15:00:00	1	Precipitación	0
99960	7	Sololá	702	San José Chacayá	5	Chacayá	6	Junio	2023-05-06T00:00:00	2024-11-06T15:00:00	8	Radiación solar	112
99961	7	Sololá	702	San José Chacayá	5	Chacayá	6	Junio	2023-05-06T00:00:00	2024-11-06T16:00:00	2	Temperatura media	19.2
99962	7	Sololá	702	San José Chacayá	5	Chacayá	6	Junio	2023-05-06T00:00:00	2024-11-06T16:00:00	4	Temperatura máxima	20.9
99963	7	Sololá	702	San José Chacayá	5	Chacayá	6	Junio	2023-05-06T00:00:00	2024-11-06T16:00:00	3	Temperatura mínima	19
99964	7	Sololá	702	San José Chacayá	5	Chacayá	6	Junio	2023-05-06T00:00:00	2024-11-06T16:00:00	5	Humedad	80
99965	7	Sololá	702	San José Chacayá	5	Chacayá	6	Junio	2023-05-06T00:00:00	2024-11-06T16:00:00	6	Velocidad del viento	3.2
99966	7	Sololá	702	San José Chacayá	5	Chacayá	6	Junio	2023-05-06T00:00:00	2024-11-06T16:00:00	7	Dirección del viento	3.22
99967	7	Sololá	702	San José Chacayá	5	Chacayá	6	Junio	2023-05-06T00:00:00	2024-11-06T16:00:00	1	Precipitación	0
99968	7	Sololá	702	San José Chacayá	5	Chacayá	6	Junio	2023-05-06T00:00:00	2024-11-06T16:00:00	8	Radiación solar	170
99969	7	Sololá	702	San José Chacayá	5	Chacayá	6	Junio	2023-05-06T00:00:00	2024-11-06T17:00:00	2	Temperatura media	17.8
99970	7	Sololá	702	San José Chacayá	5	Chacayá	6	Junio	2023-05-06T00:00:00	2024-11-06T17:00:00	4	Temperatura máxima	19.3
99971	7	Sololá	702	San José Chacayá	5	Chacayá	6	Junio	2023-05-06T00:00:00	2024-11-06T17:00:00	3	Temperatura mínima	17.8
99972	7	Sololá	702	San José Chacayá	5	Chacayá	6	Junio	2023-05-06T00:00:00	2024-11-06T17:00:00	5	Humedad	85
99973	7	Sololá	702	San José Chacayá	5	Chacayá	6	Junio	2023-05-06T00:00:00	2024-11-06T17:00:00	6	Velocidad del viento	1.6
99974	7	Sololá	702	San José Chacayá	5	Chacayá	6	Junio	2023-05-06T00:00:00	2024-11-06T17:00:00	7	Dirección del viento	1.61
99975	7	Sololá	702	San José Chacayá	5	Chacayá	6	Junio	2023-05-06T00:00:00	2024-11-06T17:00:00	1	Precipitación	0
99976	7	Sololá	702	San José Chacayá	5	Chacayá	6	Junio	2023-05-06T00:00:00	2024-11-06T17:00:00	8	Radiación solar	271
99977	7	Sololá	702	San José Chacayá	5	Chacayá	6	Junio	2023-05-06T00:00:00	2024-11-06T18:00:00	2	Temperatura media	17.4
99978	7	Sololá	702	San José Chacayá	5	Chacayá	6	Junio	2023-05-06T00:00:00	2024-11-06T18:00:00	4	Temperatura máxima	17.8
99979	7	Sololá	702	San José Chacayá	5	Chacayá	6	Junio	2023-05-06T00:00:00	2024-11-06T18:00:00	3	Temperatura mínima	17.4
99980	7	Sololá	702	San José Chacayá	5	Chacayá	6	Junio	2023-05-06T00:00:00	2024-11-06T18:00:00	5	Humedad	86
99981	7	Sololá	702	San José Chacayá	5	Chacayá	6	Junio	2023-05-06T00:00:00	2024-11-06T18:00:00	6	Velocidad del viento	1.6
99982	7	Sololá	702	San José Chacayá	5	Chacayá	6	Junio	2023-05-06T00:00:00	2024-11-06T18:00:00	7	Dirección del viento	1.61
99983	7	Sololá	702	San José Chacayá	5	Chacayá	6	Junio	2023-05-06T00:00:00	2024-11-06T18:00:00	1	Precipitación	0
99984	7	Sololá	702	San José Chacayá	5	Chacayá	6	Junio	2023-05-06T00:00:00	2024-11-06T18:00:00	8	Radiación solar	114
99985	7	Sololá	702	San José Chacayá	5	Chacayá	6	Junio	2023-05-06T00:00:00	2024-11-06T19:00:00	2	Temperatura media	16.2
99986	7	Sololá	702	San José Chacayá	5	Chacayá	6	Junio	2023-05-06T00:00:00	2024-11-06T19:00:00	4	Temperatura máxima	17.4
99987	7	Sololá	702	San José Chacayá	5	Chacayá	6	Junio	2023-05-06T00:00:00	2024-11-06T19:00:00	3	Temperatura mínima	16.2
99988	7	Sololá	702	San José Chacayá	5	Chacayá	6	Junio	2023-05-06T00:00:00	2024-11-06T19:00:00	5	Humedad	92
99989	7	Sololá	702	San José Chacayá	5	Chacayá	6	Junio	2023-05-06T00:00:00	2024-11-06T19:00:00	6	Velocidad del viento	0
99990	7	Sololá	702	San José Chacayá	5	Chacayá	6	Junio	2023-05-06T00:00:00	2024-11-06T19:00:00	7	Dirección del viento	0
99991	7	Sololá	702	San José Chacayá	5	Chacayá	6	Junio	2023-05-06T00:00:00	2024-11-06T19:00:00	1	Precipitación	0
99992	7	Sololá	702	San José Chacayá	5	Chacayá	6	Junio	2023-05-06T00:00:00	2024-11-06T19:00:00	8	Radiación solar	0
99993	7	Sololá	702	San José Chacayá	5	Chacayá	6	Junio	2023-05-06T00:00:00	2024-11-06T20:00:00	2	Temperatura media	16
99994	7	Sololá	702	San José Chacayá	5	Chacayá	6	Junio	2023-05-06T00:00:00	2024-11-06T20:00:00	4	Temperatura máxima	16.2
99995	7	Sololá	702	San José Chacayá	5	Chacayá	6	Junio	2023-05-06T00:00:00	2024-11-06T20:00:00	3	Temperatura mínima	16
99996	7	Sololá	702	San José Chacayá	5	Chacayá	6	Junio	2023-05-06T00:00:00	2024-11-06T20:00:00	5	Humedad	92
99997	7	Sololá	702	San José Chacayá	5	Chacayá	6	Junio	2023-05-06T00:00:00	2024-11-06T20:00:00	6	Velocidad del viento	0
99998	7	Sololá	702	San José Chacayá	5	Chacayá	6	Junio	2023-05-06T00:00:00	2024-11-06T20:00:00	7	Dirección del viento	0
99999	7	Sololá	702	San José Chacayá	5	Chacayá	6	Junio	2023-05-06T00:00:00	2024-11-06T20:00:00	1	Precipitación	0
100000	7	Sololá	702	San José Chacayá	5	Chacayá	6	Junio	2023-05-06T00:00:00	2024-11-06T20:00:00	8	Radiación solar	0
100001	7	Sololá	702	San José Chacayá	5	Chacayá	6	Junio	2023-05-06T00:00:00	2024-11-06T21:00:00	2	Temperatura media	15.9
100002	7	Sololá	702	San José Chacayá	5	Chacayá	6	Junio	2023-05-06T00:00:00	2024-11-06T21:00:00	4	Temperatura máxima	16.1
100003	7	Sololá	702	San José Chacayá	5	Chacayá	6	Junio	2023-05-06T00:00:00	2024-11-06T21:00:00	3	Temperatura mínima	15.9
100004	7	Sololá	702	San José Chacayá	5	Chacayá	6	Junio	2023-05-06T00:00:00	2024-11-06T21:00:00	5	Humedad	93
100005	7	Sololá	702	San José Chacayá	5	Chacayá	6	Junio	2023-05-06T00:00:00	2024-11-06T21:00:00	6	Velocidad del viento	0
100006	7	Sololá	702	San José Chacayá	5	Chacayá	6	Junio	2023-05-06T00:00:00	2024-11-06T21:00:00	7	Dirección del viento	0
100007	7	Sololá	702	San José Chacayá	5	Chacayá	6	Junio	2023-05-06T00:00:00	2024-11-06T21:00:00	1	Precipitación	0
100008	7	Sololá	702	San José Chacayá	5	Chacayá	6	Junio	2023-05-06T00:00:00	2024-11-06T21:00:00	8	Radiación solar	0
100009	7	Sololá	702	San José Chacayá	5	Chacayá	6	Junio	2023-05-06T00:00:00	2024-11-06T22:00:00	2	Temperatura media	15.7
100010	7	Sololá	702	San José Chacayá	5	Chacayá	6	Junio	2023-05-06T00:00:00	2024-11-06T22:00:00	4	Temperatura máxima	16
100011	7	Sololá	702	San José Chacayá	5	Chacayá	6	Junio	2023-05-06T00:00:00	2024-11-06T22:00:00	3	Temperatura mínima	15.7
100012	7	Sololá	702	San José Chacayá	5	Chacayá	6	Junio	2023-05-06T00:00:00	2024-11-06T22:00:00	5	Humedad	94
100013	7	Sololá	702	San José Chacayá	5	Chacayá	6	Junio	2023-05-06T00:00:00	2024-11-06T22:00:00	6	Velocidad del viento	0
100014	7	Sololá	702	San José Chacayá	5	Chacayá	6	Junio	2023-05-06T00:00:00	2024-11-06T22:00:00	7	Dirección del viento	0
100015	7	Sololá	702	San José Chacayá	5	Chacayá	6	Junio	2023-05-06T00:00:00	2024-11-06T22:00:00	1	Precipitación	0
100016	7	Sololá	702	San José Chacayá	5	Chacayá	6	Junio	2023-05-06T00:00:00	2024-11-06T22:00:00	8	Radiación solar	0
100017	7	Sololá	702	San José Chacayá	5	Chacayá	6	Junio	2023-05-06T00:00:00	2024-11-06T23:00:00	2	Temperatura media	15.6
100018	7	Sololá	702	San José Chacayá	5	Chacayá	6	Junio	2023-05-06T00:00:00	2024-11-06T23:00:00	4	Temperatura máxima	15.8
100019	7	Sololá	702	San José Chacayá	5	Chacayá	6	Junio	2023-05-06T00:00:00	2024-11-06T23:00:00	3	Temperatura mínima	15.6
100020	7	Sololá	702	San José Chacayá	5	Chacayá	6	Junio	2023-05-06T00:00:00	2024-11-06T23:00:00	5	Humedad	93
100021	7	Sololá	702	San José Chacayá	5	Chacayá	6	Junio	2023-05-06T00:00:00	2024-11-06T23:00:00	6	Velocidad del viento	0
100022	7	Sololá	702	San José Chacayá	5	Chacayá	6	Junio	2023-05-06T00:00:00	2024-11-06T23:00:00	7	Dirección del viento	0
100023	7	Sololá	702	San José Chacayá	5	Chacayá	6	Junio	2023-05-06T00:00:00	2024-11-06T23:00:00	1	Precipitación	0
100024	7	Sololá	702	San José Chacayá	5	Chacayá	6	Junio	2023-05-06T00:00:00	2024-11-06T23:00:00	8	Radiación solar	0
100025	7	Sololá	702	San José Chacayá	5	Chacayá	6	Junio	2023-06-06T00:00:00	2024-11-06T00:00:00	2	Temperatura media	14.8
100026	7	Sololá	702	San José Chacayá	5	Chacayá	6	Junio	2023-06-06T00:00:00	2024-11-06T00:00:00	4	Temperatura máxima	15.6
100027	7	Sololá	702	San José Chacayá	5	Chacayá	6	Junio	2023-06-06T00:00:00	2024-11-06T00:00:00	3	Temperatura mínima	14.7
100028	7	Sololá	702	San José Chacayá	5	Chacayá	6	Junio	2023-06-06T00:00:00	2024-11-06T00:00:00	5	Humedad	93
100029	7	Sololá	702	San José Chacayá	5	Chacayá	6	Junio	2023-06-06T00:00:00	2024-11-06T00:00:00	6	Velocidad del viento	0
100030	7	Sololá	702	San José Chacayá	5	Chacayá	6	Junio	2023-06-06T00:00:00	2024-11-06T00:00:00	7	Dirección del viento	0
100031	7	Sololá	702	San José Chacayá	5	Chacayá	6	Junio	2023-06-06T00:00:00	2024-11-06T00:00:00	1	Precipitación	0
100032	7	Sololá	702	San José Chacayá	5	Chacayá	6	Junio	2023-06-06T00:00:00	2024-11-06T00:00:00	8	Radiación solar	0
100033	7	Sololá	702	San José Chacayá	5	Chacayá	6	Junio	2023-06-06T00:00:00	2024-11-06T01:00:00	2	Temperatura media	13.4
100034	7	Sololá	702	San José Chacayá	5	Chacayá	6	Junio	2023-06-06T00:00:00	2024-11-06T01:00:00	4	Temperatura máxima	14.8
100035	7	Sololá	702	San José Chacayá	5	Chacayá	6	Junio	2023-06-06T00:00:00	2024-11-06T01:00:00	3	Temperatura mínima	13.4
100036	7	Sololá	702	San José Chacayá	5	Chacayá	6	Junio	2023-06-06T00:00:00	2024-11-06T01:00:00	5	Humedad	91
100037	7	Sololá	702	San José Chacayá	5	Chacayá	6	Junio	2023-06-06T00:00:00	2024-11-06T01:00:00	6	Velocidad del viento	1.6
100038	7	Sololá	702	San José Chacayá	5	Chacayá	6	Junio	2023-06-06T00:00:00	2024-11-06T01:00:00	7	Dirección del viento	1.61
100039	7	Sololá	702	San José Chacayá	5	Chacayá	6	Junio	2023-06-06T00:00:00	2024-11-06T01:00:00	1	Precipitación	0
100040	7	Sololá	702	San José Chacayá	5	Chacayá	6	Junio	2023-06-06T00:00:00	2024-11-06T01:00:00	8	Radiación solar	0
100041	7	Sololá	702	San José Chacayá	5	Chacayá	6	Junio	2023-06-06T00:00:00	2024-11-06T02:00:00	2	Temperatura media	12.6
100042	7	Sololá	702	San José Chacayá	5	Chacayá	6	Junio	2023-06-06T00:00:00	2024-11-06T02:00:00	4	Temperatura máxima	13.4
100043	7	Sololá	702	San José Chacayá	5	Chacayá	6	Junio	2023-06-06T00:00:00	2024-11-06T02:00:00	3	Temperatura mínima	12.6
100044	7	Sololá	702	San José Chacayá	5	Chacayá	6	Junio	2023-06-06T00:00:00	2024-11-06T02:00:00	5	Humedad	92
100045	7	Sololá	702	San José Chacayá	5	Chacayá	6	Junio	2023-06-06T00:00:00	2024-11-06T02:00:00	6	Velocidad del viento	1.6
100046	7	Sololá	702	San José Chacayá	5	Chacayá	6	Junio	2023-06-06T00:00:00	2024-11-06T02:00:00	7	Dirección del viento	1.61
100047	7	Sololá	702	San José Chacayá	5	Chacayá	6	Junio	2023-06-06T00:00:00	2024-11-06T02:00:00	1	Precipitación	0
100048	7	Sololá	702	San José Chacayá	5	Chacayá	6	Junio	2023-06-06T00:00:00	2024-11-06T02:00:00	8	Radiación solar	0
100049	7	Sololá	702	San José Chacayá	5	Chacayá	6	Junio	2023-06-06T00:00:00	2024-11-06T03:00:00	2	Temperatura media	12.2
100050	7	Sololá	702	San José Chacayá	5	Chacayá	6	Junio	2023-06-06T00:00:00	2024-11-06T03:00:00	4	Temperatura máxima	12.6
100051	7	Sololá	702	San José Chacayá	5	Chacayá	6	Junio	2023-06-06T00:00:00	2024-11-06T03:00:00	3	Temperatura mínima	12.2
100052	7	Sololá	702	San José Chacayá	5	Chacayá	6	Junio	2023-06-06T00:00:00	2024-11-06T03:00:00	5	Humedad	92
100053	7	Sololá	702	San José Chacayá	5	Chacayá	6	Junio	2023-06-06T00:00:00	2024-11-06T03:00:00	6	Velocidad del viento	0
100054	7	Sololá	702	San José Chacayá	5	Chacayá	6	Junio	2023-06-06T00:00:00	2024-11-06T03:00:00	7	Dirección del viento	0
100055	7	Sololá	702	San José Chacayá	5	Chacayá	6	Junio	2023-06-06T00:00:00	2024-11-06T03:00:00	1	Precipitación	0
100056	7	Sololá	702	San José Chacayá	5	Chacayá	6	Junio	2023-06-06T00:00:00	2024-11-06T03:00:00	8	Radiación solar	0
100057	7	Sololá	702	San José Chacayá	5	Chacayá	6	Junio	2023-06-06T00:00:00	2024-11-06T04:00:00	2	Temperatura media	11.9
100058	7	Sololá	702	San José Chacayá	5	Chacayá	6	Junio	2023-06-06T00:00:00	2024-11-06T04:00:00	4	Temperatura máxima	12.2
100059	7	Sololá	702	San José Chacayá	5	Chacayá	6	Junio	2023-06-06T00:00:00	2024-11-06T04:00:00	3	Temperatura mínima	11.9
100060	7	Sololá	702	San José Chacayá	5	Chacayá	6	Junio	2023-06-06T00:00:00	2024-11-06T04:00:00	5	Humedad	92
100061	7	Sololá	702	San José Chacayá	5	Chacayá	6	Junio	2023-06-06T00:00:00	2024-11-06T04:00:00	6	Velocidad del viento	0
100062	7	Sololá	702	San José Chacayá	5	Chacayá	6	Junio	2023-06-06T00:00:00	2024-11-06T04:00:00	7	Dirección del viento	0
100063	7	Sololá	702	San José Chacayá	5	Chacayá	6	Junio	2023-06-06T00:00:00	2024-11-06T04:00:00	1	Precipitación	0
100064	7	Sololá	702	San José Chacayá	5	Chacayá	6	Junio	2023-06-06T00:00:00	2024-11-06T04:00:00	8	Radiación solar	0
100065	7	Sololá	702	San José Chacayá	5	Chacayá	6	Junio	2023-06-06T00:00:00	2024-11-06T05:00:00	2	Temperatura media	11.4
100066	7	Sololá	702	San José Chacayá	5	Chacayá	6	Junio	2023-06-06T00:00:00	2024-11-06T05:00:00	4	Temperatura máxima	11.9
100067	7	Sololá	702	San José Chacayá	5	Chacayá	6	Junio	2023-06-06T00:00:00	2024-11-06T05:00:00	3	Temperatura mínima	11.4
100068	7	Sololá	702	San José Chacayá	5	Chacayá	6	Junio	2023-06-06T00:00:00	2024-11-06T05:00:00	5	Humedad	92
100069	7	Sololá	702	San José Chacayá	5	Chacayá	6	Junio	2023-06-06T00:00:00	2024-11-06T05:00:00	6	Velocidad del viento	1.6
100070	7	Sololá	702	San José Chacayá	5	Chacayá	6	Junio	2023-06-06T00:00:00	2024-11-06T05:00:00	7	Dirección del viento	1.61
100071	7	Sololá	702	San José Chacayá	5	Chacayá	6	Junio	2023-06-06T00:00:00	2024-11-06T05:00:00	1	Precipitación	0
100072	7	Sololá	702	San José Chacayá	5	Chacayá	6	Junio	2023-06-06T00:00:00	2024-11-06T05:00:00	8	Radiación solar	0
100073	7	Sololá	702	San José Chacayá	5	Chacayá	6	Junio	2023-06-06T00:00:00	2024-11-06T06:00:00	2	Temperatura media	11
100074	7	Sololá	702	San José Chacayá	5	Chacayá	6	Junio	2023-06-06T00:00:00	2024-11-06T06:00:00	4	Temperatura máxima	11.4
100075	7	Sololá	702	San José Chacayá	5	Chacayá	6	Junio	2023-06-06T00:00:00	2024-11-06T06:00:00	3	Temperatura mínima	10.9
100076	7	Sololá	702	San José Chacayá	5	Chacayá	6	Junio	2023-06-06T00:00:00	2024-11-06T06:00:00	5	Humedad	93
100077	7	Sololá	702	San José Chacayá	5	Chacayá	6	Junio	2023-06-06T00:00:00	2024-11-06T06:00:00	6	Velocidad del viento	1.6
100078	7	Sololá	702	San José Chacayá	5	Chacayá	6	Junio	2023-06-06T00:00:00	2024-11-06T06:00:00	7	Dirección del viento	1.61
100079	7	Sololá	702	San José Chacayá	5	Chacayá	6	Junio	2023-06-06T00:00:00	2024-11-06T06:00:00	1	Precipitación	0
100080	7	Sololá	702	San José Chacayá	5	Chacayá	6	Junio	2023-06-06T00:00:00	2024-11-06T06:00:00	8	Radiación solar	4
100081	7	Sololá	702	San José Chacayá	5	Chacayá	6	Junio	2023-06-06T00:00:00	2024-11-06T07:00:00	2	Temperatura media	13.2
100082	7	Sololá	702	San José Chacayá	5	Chacayá	6	Junio	2023-06-06T00:00:00	2024-11-06T07:00:00	4	Temperatura máxima	13.2
100083	7	Sololá	702	San José Chacayá	5	Chacayá	6	Junio	2023-06-06T00:00:00	2024-11-06T07:00:00	3	Temperatura mínima	11.1
100084	7	Sololá	702	San José Chacayá	5	Chacayá	6	Junio	2023-06-06T00:00:00	2024-11-06T07:00:00	5	Humedad	90
100085	7	Sololá	702	San José Chacayá	5	Chacayá	6	Junio	2023-06-06T00:00:00	2024-11-06T07:00:00	6	Velocidad del viento	0
100086	7	Sololá	702	San José Chacayá	5	Chacayá	6	Junio	2023-06-06T00:00:00	2024-11-06T07:00:00	7	Dirección del viento	0
100087	7	Sololá	702	San José Chacayá	5	Chacayá	6	Junio	2023-06-06T00:00:00	2024-11-06T07:00:00	1	Precipitación	0
100088	7	Sololá	702	San José Chacayá	5	Chacayá	6	Junio	2023-06-06T00:00:00	2024-11-06T07:00:00	8	Radiación solar	63
100089	7	Sololá	702	San José Chacayá	5	Chacayá	6	Junio	2023-06-06T00:00:00	2024-11-06T08:00:00	2	Temperatura media	17.4
100090	7	Sololá	702	San José Chacayá	5	Chacayá	6	Junio	2023-06-06T00:00:00	2024-11-06T08:00:00	4	Temperatura máxima	17.4
100091	7	Sololá	702	San José Chacayá	5	Chacayá	6	Junio	2023-06-06T00:00:00	2024-11-06T08:00:00	3	Temperatura mínima	13.2
100092	7	Sololá	702	San José Chacayá	5	Chacayá	6	Junio	2023-06-06T00:00:00	2024-11-06T08:00:00	5	Humedad	79
100093	7	Sololá	702	San José Chacayá	5	Chacayá	6	Junio	2023-06-06T00:00:00	2024-11-06T08:00:00	6	Velocidad del viento	0
100094	7	Sololá	702	San José Chacayá	5	Chacayá	6	Junio	2023-06-06T00:00:00	2024-11-06T08:00:00	7	Dirección del viento	0
100095	7	Sololá	702	San José Chacayá	5	Chacayá	6	Junio	2023-06-06T00:00:00	2024-11-06T08:00:00	1	Precipitación	0.2
100096	7	Sololá	702	San José Chacayá	5	Chacayá	6	Junio	2023-06-06T00:00:00	2024-11-06T08:00:00	8	Radiación solar	151
100097	7	Sololá	702	San José Chacayá	5	Chacayá	6	Junio	2023-06-06T00:00:00	2024-11-06T09:00:00	2	Temperatura media	20.2
100098	7	Sololá	702	San José Chacayá	5	Chacayá	6	Junio	2023-06-06T00:00:00	2024-11-06T09:00:00	4	Temperatura máxima	20.2
100099	7	Sololá	702	San José Chacayá	5	Chacayá	6	Junio	2023-06-06T00:00:00	2024-11-06T09:00:00	3	Temperatura mínima	17.4
100100	7	Sololá	702	San José Chacayá	5	Chacayá	6	Junio	2023-06-06T00:00:00	2024-11-06T09:00:00	5	Humedad	62
100101	7	Sololá	702	San José Chacayá	5	Chacayá	6	Junio	2023-06-06T00:00:00	2024-11-06T09:00:00	6	Velocidad del viento	1.6
100102	7	Sololá	702	San José Chacayá	5	Chacayá	6	Junio	2023-06-06T00:00:00	2024-11-06T09:00:00	7	Dirección del viento	1.61
100103	7	Sololá	702	San José Chacayá	5	Chacayá	6	Junio	2023-06-06T00:00:00	2024-11-06T09:00:00	1	Precipitación	0
100104	7	Sololá	702	San José Chacayá	5	Chacayá	6	Junio	2023-06-06T00:00:00	2024-11-06T09:00:00	8	Radiación solar	330
100105	7	Sololá	702	San José Chacayá	5	Chacayá	6	Junio	2023-06-06T00:00:00	2024-11-06T10:00:00	2	Temperatura media	20.4
100106	7	Sololá	702	San José Chacayá	5	Chacayá	6	Junio	2023-06-06T00:00:00	2024-11-06T10:00:00	4	Temperatura máxima	20.6
100107	7	Sololá	702	San José Chacayá	5	Chacayá	6	Junio	2023-06-06T00:00:00	2024-11-06T10:00:00	3	Temperatura mínima	20.1
100108	7	Sololá	702	San José Chacayá	5	Chacayá	6	Junio	2023-06-06T00:00:00	2024-11-06T10:00:00	5	Humedad	61
100109	7	Sololá	702	San José Chacayá	5	Chacayá	6	Junio	2023-06-06T00:00:00	2024-11-06T10:00:00	6	Velocidad del viento	4.8
100110	7	Sololá	702	San José Chacayá	5	Chacayá	6	Junio	2023-06-06T00:00:00	2024-11-06T10:00:00	7	Dirección del viento	4.83
100111	7	Sololá	702	San José Chacayá	5	Chacayá	6	Junio	2023-06-06T00:00:00	2024-11-06T10:00:00	1	Precipitación	0
100112	7	Sololá	702	San José Chacayá	5	Chacayá	6	Junio	2023-06-06T00:00:00	2024-11-06T10:00:00	8	Radiación solar	479
100113	7	Sololá	702	San José Chacayá	5	Chacayá	6	Junio	2023-06-06T00:00:00	2024-11-06T11:00:00	2	Temperatura media	21.4
100114	7	Sololá	702	San José Chacayá	5	Chacayá	6	Junio	2023-06-06T00:00:00	2024-11-06T11:00:00	4	Temperatura máxima	21.4
100115	7	Sololá	702	San José Chacayá	5	Chacayá	6	Junio	2023-06-06T00:00:00	2024-11-06T11:00:00	3	Temperatura mínima	20.3
100116	7	Sololá	702	San José Chacayá	5	Chacayá	6	Junio	2023-06-06T00:00:00	2024-11-06T11:00:00	5	Humedad	62
100117	7	Sololá	702	San José Chacayá	5	Chacayá	6	Junio	2023-06-06T00:00:00	2024-11-06T11:00:00	6	Velocidad del viento	4.8
100118	7	Sololá	702	San José Chacayá	5	Chacayá	6	Junio	2023-06-06T00:00:00	2024-11-06T11:00:00	7	Dirección del viento	4.83
100119	7	Sololá	702	San José Chacayá	5	Chacayá	6	Junio	2023-06-06T00:00:00	2024-11-06T11:00:00	1	Precipitación	0
100120	7	Sololá	702	San José Chacayá	5	Chacayá	6	Junio	2023-06-06T00:00:00	2024-11-06T11:00:00	8	Radiación solar	958
100121	7	Sololá	702	San José Chacayá	5	Chacayá	6	Junio	2023-06-06T00:00:00	2024-11-06T12:00:00	2	Temperatura media	19.7
100122	7	Sololá	702	San José Chacayá	5	Chacayá	6	Junio	2023-06-06T00:00:00	2024-11-06T12:00:00	4	Temperatura máxima	21.5
100123	7	Sololá	702	San José Chacayá	5	Chacayá	6	Junio	2023-06-06T00:00:00	2024-11-06T12:00:00	3	Temperatura mínima	19.7
100124	7	Sololá	702	San José Chacayá	5	Chacayá	6	Junio	2023-06-06T00:00:00	2024-11-06T12:00:00	5	Humedad	70
100125	7	Sololá	702	San José Chacayá	5	Chacayá	6	Junio	2023-06-06T00:00:00	2024-11-06T12:00:00	6	Velocidad del viento	3.2
100126	7	Sololá	702	San José Chacayá	5	Chacayá	6	Junio	2023-06-06T00:00:00	2024-11-06T12:00:00	7	Dirección del viento	3.22
100127	7	Sololá	702	San José Chacayá	5	Chacayá	6	Junio	2023-06-06T00:00:00	2024-11-06T12:00:00	1	Precipitación	0
100128	7	Sololá	702	San José Chacayá	5	Chacayá	6	Junio	2023-06-06T00:00:00	2024-11-06T12:00:00	8	Radiación solar	707
100129	7	Sololá	702	San José Chacayá	5	Chacayá	6	Junio	2023-06-06T00:00:00	2024-11-06T13:00:00	2	Temperatura media	18.7
100130	7	Sololá	702	San José Chacayá	5	Chacayá	6	Junio	2023-06-06T00:00:00	2024-11-06T13:00:00	4	Temperatura máxima	19.7
100131	7	Sololá	702	San José Chacayá	5	Chacayá	6	Junio	2023-06-06T00:00:00	2024-11-06T13:00:00	3	Temperatura mínima	18.6
100132	7	Sololá	702	San José Chacayá	5	Chacayá	6	Junio	2023-06-06T00:00:00	2024-11-06T13:00:00	5	Humedad	80
100133	7	Sololá	702	San José Chacayá	5	Chacayá	6	Junio	2023-06-06T00:00:00	2024-11-06T13:00:00	6	Velocidad del viento	1.6
100134	7	Sololá	702	San José Chacayá	5	Chacayá	6	Junio	2023-06-06T00:00:00	2024-11-06T13:00:00	7	Dirección del viento	1.61
100135	7	Sololá	702	San José Chacayá	5	Chacayá	6	Junio	2023-06-06T00:00:00	2024-11-06T13:00:00	1	Precipitación	0.4
100136	7	Sololá	702	San José Chacayá	5	Chacayá	6	Junio	2023-06-06T00:00:00	2024-11-06T13:00:00	8	Radiación solar	435
100137	7	Sololá	702	San José Chacayá	5	Chacayá	6	Junio	2023-06-06T00:00:00	2024-11-06T14:00:00	2	Temperatura media	18.2
100138	7	Sololá	702	San José Chacayá	5	Chacayá	6	Junio	2023-06-06T00:00:00	2024-11-06T14:00:00	4	Temperatura máxima	18.7
100139	7	Sololá	702	San José Chacayá	5	Chacayá	6	Junio	2023-06-06T00:00:00	2024-11-06T14:00:00	3	Temperatura mínima	18.1
100140	7	Sololá	702	San José Chacayá	5	Chacayá	6	Junio	2023-06-06T00:00:00	2024-11-06T14:00:00	5	Humedad	75
100141	7	Sololá	702	San José Chacayá	5	Chacayá	6	Junio	2023-06-06T00:00:00	2024-11-06T14:00:00	6	Velocidad del viento	1.6
100142	7	Sololá	702	San José Chacayá	5	Chacayá	6	Junio	2023-06-06T00:00:00	2024-11-06T14:00:00	7	Dirección del viento	1.61
100143	7	Sololá	702	San José Chacayá	5	Chacayá	6	Junio	2023-06-06T00:00:00	2024-11-06T14:00:00	1	Precipitación	0
100144	7	Sololá	702	San José Chacayá	5	Chacayá	6	Junio	2023-06-06T00:00:00	2024-11-06T14:00:00	8	Radiación solar	702
100145	7	Sololá	702	San José Chacayá	5	Chacayá	6	Junio	2023-06-06T00:00:00	2024-11-06T15:00:00	2	Temperatura media	18.5
100146	7	Sololá	702	San José Chacayá	5	Chacayá	6	Junio	2023-06-06T00:00:00	2024-11-06T15:00:00	4	Temperatura máxima	18.6
100147	7	Sololá	702	San José Chacayá	5	Chacayá	6	Junio	2023-06-06T00:00:00	2024-11-06T15:00:00	3	Temperatura mínima	18.2
100148	7	Sololá	702	San José Chacayá	5	Chacayá	6	Junio	2023-06-06T00:00:00	2024-11-06T15:00:00	5	Humedad	77
100149	7	Sololá	702	San José Chacayá	5	Chacayá	6	Junio	2023-06-06T00:00:00	2024-11-06T15:00:00	6	Velocidad del viento	0
100150	7	Sololá	702	San José Chacayá	5	Chacayá	6	Junio	2023-06-06T00:00:00	2024-11-06T15:00:00	7	Dirección del viento	0
100151	7	Sololá	702	San José Chacayá	5	Chacayá	6	Junio	2023-06-06T00:00:00	2024-11-06T15:00:00	1	Precipitación	0
100152	7	Sololá	702	San José Chacayá	5	Chacayá	6	Junio	2023-06-06T00:00:00	2024-11-06T15:00:00	8	Radiación solar	217
100153	7	Sololá	702	San José Chacayá	5	Chacayá	6	Junio	2023-06-06T00:00:00	2024-11-06T16:00:00	2	Temperatura media	17.6
100154	7	Sololá	702	San José Chacayá	5	Chacayá	6	Junio	2023-06-06T00:00:00	2024-11-06T16:00:00	4	Temperatura máxima	18.5
100155	7	Sololá	702	San José Chacayá	5	Chacayá	6	Junio	2023-06-06T00:00:00	2024-11-06T16:00:00	3	Temperatura mínima	17.6
100156	7	Sololá	702	San José Chacayá	5	Chacayá	6	Junio	2023-06-06T00:00:00	2024-11-06T16:00:00	5	Humedad	78
100157	7	Sololá	702	San José Chacayá	5	Chacayá	6	Junio	2023-06-06T00:00:00	2024-11-06T16:00:00	6	Velocidad del viento	1.6
100158	7	Sololá	702	San José Chacayá	5	Chacayá	6	Junio	2023-06-06T00:00:00	2024-11-06T16:00:00	7	Dirección del viento	1.61
100159	7	Sololá	702	San José Chacayá	5	Chacayá	6	Junio	2023-06-06T00:00:00	2024-11-06T16:00:00	1	Precipitación	0
100160	7	Sololá	702	San José Chacayá	5	Chacayá	6	Junio	2023-06-06T00:00:00	2024-11-06T16:00:00	8	Radiación solar	150
100161	7	Sololá	702	San José Chacayá	5	Chacayá	6	Junio	2023-06-06T00:00:00	2024-11-06T17:00:00	2	Temperatura media	17.8
100162	7	Sololá	702	San José Chacayá	5	Chacayá	6	Junio	2023-06-06T00:00:00	2024-11-06T17:00:00	4	Temperatura máxima	18.2
100163	7	Sololá	702	San José Chacayá	5	Chacayá	6	Junio	2023-06-06T00:00:00	2024-11-06T17:00:00	3	Temperatura mínima	17.6
100164	7	Sololá	702	San José Chacayá	5	Chacayá	6	Junio	2023-06-06T00:00:00	2024-11-06T17:00:00	5	Humedad	85
100165	7	Sololá	702	San José Chacayá	5	Chacayá	6	Junio	2023-06-06T00:00:00	2024-11-06T17:00:00	6	Velocidad del viento	1.6
100166	7	Sololá	702	San José Chacayá	5	Chacayá	6	Junio	2023-06-06T00:00:00	2024-11-06T17:00:00	7	Dirección del viento	1.61
100167	7	Sololá	702	San José Chacayá	5	Chacayá	6	Junio	2023-06-06T00:00:00	2024-11-06T17:00:00	1	Precipitación	0
100168	7	Sololá	702	San José Chacayá	5	Chacayá	6	Junio	2023-06-06T00:00:00	2024-11-06T17:00:00	8	Radiación solar	275
100169	7	Sololá	702	San José Chacayá	5	Chacayá	6	Junio	2023-06-06T00:00:00	2024-11-06T18:00:00	2	Temperatura media	16.8
100170	7	Sololá	702	San José Chacayá	5	Chacayá	6	Junio	2023-06-06T00:00:00	2024-11-06T18:00:00	4	Temperatura máxima	17.8
100171	7	Sololá	702	San José Chacayá	5	Chacayá	6	Junio	2023-06-06T00:00:00	2024-11-06T18:00:00	3	Temperatura mínima	16.7
100172	7	Sololá	702	San José Chacayá	5	Chacayá	6	Junio	2023-06-06T00:00:00	2024-11-06T18:00:00	5	Humedad	87
100173	7	Sololá	702	San José Chacayá	5	Chacayá	6	Junio	2023-06-06T00:00:00	2024-11-06T18:00:00	6	Velocidad del viento	1.6
100174	7	Sololá	702	San José Chacayá	5	Chacayá	6	Junio	2023-06-06T00:00:00	2024-11-06T18:00:00	7	Dirección del viento	1.61
100175	7	Sololá	702	San José Chacayá	5	Chacayá	6	Junio	2023-06-06T00:00:00	2024-11-06T18:00:00	1	Precipitación	0
100176	7	Sololá	702	San José Chacayá	5	Chacayá	6	Junio	2023-06-06T00:00:00	2024-11-06T18:00:00	8	Radiación solar	92
100177	7	Sololá	702	San José Chacayá	5	Chacayá	6	Junio	2023-06-06T00:00:00	2024-11-06T19:00:00	2	Temperatura media	15.7
100178	7	Sololá	702	San José Chacayá	5	Chacayá	6	Junio	2023-06-06T00:00:00	2024-11-06T19:00:00	4	Temperatura máxima	16.8
100179	7	Sololá	702	San José Chacayá	5	Chacayá	6	Junio	2023-06-06T00:00:00	2024-11-06T19:00:00	3	Temperatura mínima	15.7
100180	7	Sololá	702	San José Chacayá	5	Chacayá	6	Junio	2023-06-06T00:00:00	2024-11-06T19:00:00	5	Humedad	80
100181	7	Sololá	702	San José Chacayá	5	Chacayá	6	Junio	2023-06-06T00:00:00	2024-11-06T19:00:00	6	Velocidad del viento	1.6
100182	7	Sololá	702	San José Chacayá	5	Chacayá	6	Junio	2023-06-06T00:00:00	2024-11-06T19:00:00	7	Dirección del viento	1.61
100183	7	Sololá	702	San José Chacayá	5	Chacayá	6	Junio	2023-06-06T00:00:00	2024-11-06T19:00:00	1	Precipitación	0
100184	7	Sololá	702	San José Chacayá	5	Chacayá	6	Junio	2023-06-06T00:00:00	2024-11-06T19:00:00	8	Radiación solar	0
100185	7	Sololá	702	San José Chacayá	5	Chacayá	6	Junio	2023-06-06T00:00:00	2024-11-06T20:00:00	2	Temperatura media	15
100186	7	Sololá	702	San José Chacayá	5	Chacayá	6	Junio	2023-06-06T00:00:00	2024-11-06T20:00:00	4	Temperatura máxima	15.8
100187	7	Sololá	702	San José Chacayá	5	Chacayá	6	Junio	2023-06-06T00:00:00	2024-11-06T20:00:00	3	Temperatura mínima	15
100188	7	Sololá	702	San José Chacayá	5	Chacayá	6	Junio	2023-06-06T00:00:00	2024-11-06T20:00:00	5	Humedad	81
100189	7	Sololá	702	San José Chacayá	5	Chacayá	6	Junio	2023-06-06T00:00:00	2024-11-06T20:00:00	6	Velocidad del viento	0
100190	7	Sololá	702	San José Chacayá	5	Chacayá	6	Junio	2023-06-06T00:00:00	2024-11-06T20:00:00	7	Dirección del viento	0
100191	7	Sololá	702	San José Chacayá	5	Chacayá	6	Junio	2023-06-06T00:00:00	2024-11-06T20:00:00	1	Precipitación	0
100192	7	Sololá	702	San José Chacayá	5	Chacayá	6	Junio	2023-06-06T00:00:00	2024-11-06T20:00:00	8	Radiación solar	0
100193	7	Sololá	702	San José Chacayá	5	Chacayá	6	Junio	2023-06-06T00:00:00	2024-11-06T21:00:00	2	Temperatura media	14.2
100194	7	Sololá	702	San José Chacayá	5	Chacayá	6	Junio	2023-06-06T00:00:00	2024-11-06T21:00:00	4	Temperatura máxima	15
100195	7	Sololá	702	San José Chacayá	5	Chacayá	6	Junio	2023-06-06T00:00:00	2024-11-06T21:00:00	3	Temperatura mínima	14.1
100196	7	Sololá	702	San José Chacayá	5	Chacayá	6	Junio	2023-06-06T00:00:00	2024-11-06T21:00:00	5	Humedad	86
100197	7	Sololá	702	San José Chacayá	5	Chacayá	6	Junio	2023-06-06T00:00:00	2024-11-06T21:00:00	6	Velocidad del viento	0
100198	7	Sololá	702	San José Chacayá	5	Chacayá	6	Junio	2023-06-06T00:00:00	2024-11-06T21:00:00	7	Dirección del viento	0
100199	7	Sololá	702	San José Chacayá	5	Chacayá	6	Junio	2023-06-06T00:00:00	2024-11-06T21:00:00	1	Precipitación	0
100200	7	Sololá	702	San José Chacayá	5	Chacayá	6	Junio	2023-06-06T00:00:00	2024-11-06T21:00:00	8	Radiación solar	0
100201	7	Sololá	702	San José Chacayá	5	Chacayá	6	Junio	2023-06-06T00:00:00	2024-11-06T22:00:00	2	Temperatura media	13.5
100202	7	Sololá	702	San José Chacayá	5	Chacayá	6	Junio	2023-06-06T00:00:00	2024-11-06T22:00:00	4	Temperatura máxima	14.2
100203	7	Sololá	702	San José Chacayá	5	Chacayá	6	Junio	2023-06-06T00:00:00	2024-11-06T22:00:00	3	Temperatura mínima	13.4
100204	7	Sololá	702	San José Chacayá	5	Chacayá	6	Junio	2023-06-06T00:00:00	2024-11-06T22:00:00	5	Humedad	89
100205	7	Sololá	702	San José Chacayá	5	Chacayá	6	Junio	2023-06-06T00:00:00	2024-11-06T22:00:00	6	Velocidad del viento	0
100206	7	Sololá	702	San José Chacayá	5	Chacayá	6	Junio	2023-06-06T00:00:00	2024-11-06T22:00:00	7	Dirección del viento	0
100207	7	Sololá	702	San José Chacayá	5	Chacayá	6	Junio	2023-06-06T00:00:00	2024-11-06T22:00:00	1	Precipitación	0
100208	7	Sololá	702	San José Chacayá	5	Chacayá	6	Junio	2023-06-06T00:00:00	2024-11-06T22:00:00	8	Radiación solar	0
100209	7	Sololá	702	San José Chacayá	5	Chacayá	6	Junio	2023-06-06T00:00:00	2024-11-06T23:00:00	2	Temperatura media	12.9
100210	7	Sololá	702	San José Chacayá	5	Chacayá	6	Junio	2023-06-06T00:00:00	2024-11-06T23:00:00	4	Temperatura máxima	13.5
100211	7	Sololá	702	San José Chacayá	5	Chacayá	6	Junio	2023-06-06T00:00:00	2024-11-06T23:00:00	3	Temperatura mínima	12.9
100212	7	Sololá	702	San José Chacayá	5	Chacayá	6	Junio	2023-06-06T00:00:00	2024-11-06T23:00:00	5	Humedad	90
100213	7	Sololá	702	San José Chacayá	5	Chacayá	6	Junio	2023-06-06T00:00:00	2024-11-06T23:00:00	6	Velocidad del viento	0
100214	7	Sololá	702	San José Chacayá	5	Chacayá	6	Junio	2023-06-06T00:00:00	2024-11-06T23:00:00	7	Dirección del viento	0
100215	7	Sololá	702	San José Chacayá	5	Chacayá	6	Junio	2023-06-06T00:00:00	2024-11-06T23:00:00	1	Precipitación	0
100216	7	Sololá	702	San José Chacayá	5	Chacayá	6	Junio	2023-06-06T00:00:00	2024-11-06T23:00:00	8	Radiación solar	0
100217	7	Sololá	702	San José Chacayá	5	Chacayá	6	Junio	2023-07-06T00:00:00	2024-11-06T00:00:00	2	Temperatura media	13
100218	7	Sololá	702	San José Chacayá	5	Chacayá	6	Junio	2023-07-06T00:00:00	2024-11-06T00:00:00	4	Temperatura máxima	13
100219	7	Sololá	702	San José Chacayá	5	Chacayá	6	Junio	2023-07-06T00:00:00	2024-11-06T00:00:00	3	Temperatura mínima	12.7
100220	7	Sololá	702	San José Chacayá	5	Chacayá	6	Junio	2023-07-06T00:00:00	2024-11-06T00:00:00	5	Humedad	91
100221	7	Sololá	702	San José Chacayá	5	Chacayá	6	Junio	2023-07-06T00:00:00	2024-11-06T00:00:00	6	Velocidad del viento	0
100222	7	Sololá	702	San José Chacayá	5	Chacayá	6	Junio	2023-07-06T00:00:00	2024-11-06T00:00:00	7	Dirección del viento	0
100223	7	Sololá	702	San José Chacayá	5	Chacayá	6	Junio	2023-07-06T00:00:00	2024-11-06T00:00:00	1	Precipitación	0
100224	7	Sololá	702	San José Chacayá	5	Chacayá	6	Junio	2023-07-06T00:00:00	2024-11-06T00:00:00	8	Radiación solar	0
100225	7	Sololá	702	San José Chacayá	5	Chacayá	6	Junio	2023-07-06T00:00:00	2024-11-06T01:00:00	2	Temperatura media	13
100226	7	Sololá	702	San José Chacayá	5	Chacayá	6	Junio	2023-07-06T00:00:00	2024-11-06T01:00:00	4	Temperatura máxima	13.1
100227	7	Sololá	702	San José Chacayá	5	Chacayá	6	Junio	2023-07-06T00:00:00	2024-11-06T01:00:00	3	Temperatura mínima	12.9
100228	7	Sololá	702	San José Chacayá	5	Chacayá	6	Junio	2023-07-06T00:00:00	2024-11-06T01:00:00	5	Humedad	91
100229	7	Sololá	702	San José Chacayá	5	Chacayá	6	Junio	2023-07-06T00:00:00	2024-11-06T01:00:00	6	Velocidad del viento	0
100230	7	Sololá	702	San José Chacayá	5	Chacayá	6	Junio	2023-07-06T00:00:00	2024-11-06T01:00:00	7	Dirección del viento	0
100231	7	Sololá	702	San José Chacayá	5	Chacayá	6	Junio	2023-07-06T00:00:00	2024-11-06T01:00:00	1	Precipitación	0
100232	7	Sololá	702	San José Chacayá	5	Chacayá	6	Junio	2023-07-06T00:00:00	2024-11-06T01:00:00	8	Radiación solar	0
100233	7	Sololá	702	San José Chacayá	5	Chacayá	6	Junio	2023-07-06T00:00:00	2024-11-06T02:00:00	2	Temperatura media	12.3
100234	7	Sololá	702	San José Chacayá	5	Chacayá	6	Junio	2023-07-06T00:00:00	2024-11-06T02:00:00	4	Temperatura máxima	13
100235	7	Sololá	702	San José Chacayá	5	Chacayá	6	Junio	2023-07-06T00:00:00	2024-11-06T02:00:00	3	Temperatura mínima	12.3
100236	7	Sololá	702	San José Chacayá	5	Chacayá	6	Junio	2023-07-06T00:00:00	2024-11-06T02:00:00	5	Humedad	91
100237	7	Sololá	702	San José Chacayá	5	Chacayá	6	Junio	2023-07-06T00:00:00	2024-11-06T02:00:00	6	Velocidad del viento	0
100238	7	Sololá	702	San José Chacayá	5	Chacayá	6	Junio	2023-07-06T00:00:00	2024-11-06T02:00:00	7	Dirección del viento	0
100239	7	Sololá	702	San José Chacayá	5	Chacayá	6	Junio	2023-07-06T00:00:00	2024-11-06T02:00:00	1	Precipitación	0
100240	7	Sololá	702	San José Chacayá	5	Chacayá	6	Junio	2023-07-06T00:00:00	2024-11-06T02:00:00	8	Radiación solar	0
100241	7	Sololá	702	San José Chacayá	5	Chacayá	6	Junio	2023-07-06T00:00:00	2024-11-06T03:00:00	2	Temperatura media	11.5
100242	7	Sololá	702	San José Chacayá	5	Chacayá	6	Junio	2023-07-06T00:00:00	2024-11-06T03:00:00	4	Temperatura máxima	12.4
100243	7	Sololá	702	San José Chacayá	5	Chacayá	6	Junio	2023-07-06T00:00:00	2024-11-06T03:00:00	3	Temperatura mínima	11.5
100244	7	Sololá	702	San José Chacayá	5	Chacayá	6	Junio	2023-07-06T00:00:00	2024-11-06T03:00:00	5	Humedad	93
100245	7	Sololá	702	San José Chacayá	5	Chacayá	6	Junio	2023-07-06T00:00:00	2024-11-06T03:00:00	6	Velocidad del viento	0
100246	7	Sololá	702	San José Chacayá	5	Chacayá	6	Junio	2023-07-06T00:00:00	2024-11-06T03:00:00	7	Dirección del viento	0
100247	7	Sololá	702	San José Chacayá	5	Chacayá	6	Junio	2023-07-06T00:00:00	2024-11-06T03:00:00	1	Precipitación	0
100248	7	Sololá	702	San José Chacayá	5	Chacayá	6	Junio	2023-07-06T00:00:00	2024-11-06T03:00:00	8	Radiación solar	0
100249	7	Sololá	702	San José Chacayá	5	Chacayá	6	Junio	2023-07-06T00:00:00	2024-11-06T04:00:00	2	Temperatura media	11.2
100250	7	Sololá	702	San José Chacayá	5	Chacayá	6	Junio	2023-07-06T00:00:00	2024-11-06T04:00:00	4	Temperatura máxima	11.5
100251	7	Sololá	702	San José Chacayá	5	Chacayá	6	Junio	2023-07-06T00:00:00	2024-11-06T04:00:00	3	Temperatura mínima	11.2
100252	7	Sololá	702	San José Chacayá	5	Chacayá	6	Junio	2023-07-06T00:00:00	2024-11-06T04:00:00	5	Humedad	93
100253	7	Sololá	702	San José Chacayá	5	Chacayá	6	Junio	2023-07-06T00:00:00	2024-11-06T04:00:00	6	Velocidad del viento	0
100254	7	Sololá	702	San José Chacayá	5	Chacayá	6	Junio	2023-07-06T00:00:00	2024-11-06T04:00:00	7	Dirección del viento	0
100255	7	Sololá	702	San José Chacayá	5	Chacayá	6	Junio	2023-07-06T00:00:00	2024-11-06T04:00:00	1	Precipitación	0
100256	7	Sololá	702	San José Chacayá	5	Chacayá	6	Junio	2023-07-06T00:00:00	2024-11-06T04:00:00	8	Radiación solar	0
100257	7	Sololá	702	San José Chacayá	5	Chacayá	6	Junio	2023-07-06T00:00:00	2024-11-06T05:00:00	2	Temperatura media	10.8
100258	7	Sololá	702	San José Chacayá	5	Chacayá	6	Junio	2023-07-06T00:00:00	2024-11-06T05:00:00	4	Temperatura máxima	11.2
100259	7	Sololá	702	San José Chacayá	5	Chacayá	6	Junio	2023-07-06T00:00:00	2024-11-06T05:00:00	3	Temperatura mínima	10.8
100260	7	Sololá	702	San José Chacayá	5	Chacayá	6	Junio	2023-07-06T00:00:00	2024-11-06T05:00:00	5	Humedad	93
100261	7	Sololá	702	San José Chacayá	5	Chacayá	6	Junio	2023-07-06T00:00:00	2024-11-06T05:00:00	6	Velocidad del viento	0
100262	7	Sololá	702	San José Chacayá	5	Chacayá	6	Junio	2023-07-06T00:00:00	2024-11-06T05:00:00	7	Dirección del viento	0
100263	7	Sololá	702	San José Chacayá	5	Chacayá	6	Junio	2023-07-06T00:00:00	2024-11-06T05:00:00	1	Precipitación	0
100264	7	Sololá	702	San José Chacayá	5	Chacayá	6	Junio	2023-07-06T00:00:00	2024-11-06T05:00:00	8	Radiación solar	0
100265	7	Sololá	702	San José Chacayá	5	Chacayá	6	Junio	2023-07-06T00:00:00	2024-11-06T06:00:00	2	Temperatura media	11.2
100266	7	Sololá	702	San José Chacayá	5	Chacayá	6	Junio	2023-07-06T00:00:00	2024-11-06T06:00:00	4	Temperatura máxima	11.2
100267	7	Sololá	702	San José Chacayá	5	Chacayá	6	Junio	2023-07-06T00:00:00	2024-11-06T06:00:00	3	Temperatura mínima	10.8
100268	7	Sololá	702	San José Chacayá	5	Chacayá	6	Junio	2023-07-06T00:00:00	2024-11-06T06:00:00	5	Humedad	94
100269	7	Sololá	702	San José Chacayá	5	Chacayá	6	Junio	2023-07-06T00:00:00	2024-11-06T06:00:00	6	Velocidad del viento	0
100270	7	Sololá	702	San José Chacayá	5	Chacayá	6	Junio	2023-07-06T00:00:00	2024-11-06T06:00:00	7	Dirección del viento	0
100271	7	Sololá	702	San José Chacayá	5	Chacayá	6	Junio	2023-07-06T00:00:00	2024-11-06T06:00:00	1	Precipitación	0
100272	7	Sololá	702	San José Chacayá	5	Chacayá	6	Junio	2023-07-06T00:00:00	2024-11-06T06:00:00	8	Radiación solar	10
100273	7	Sololá	702	San José Chacayá	5	Chacayá	6	Junio	2023-07-06T00:00:00	2024-11-06T07:00:00	2	Temperatura media	13.3
100274	7	Sololá	702	San José Chacayá	5	Chacayá	6	Junio	2023-07-06T00:00:00	2024-11-06T07:00:00	4	Temperatura máxima	13.3
100275	7	Sololá	702	San José Chacayá	5	Chacayá	6	Junio	2023-07-06T00:00:00	2024-11-06T07:00:00	3	Temperatura mínima	11.1
100276	7	Sololá	702	San José Chacayá	5	Chacayá	6	Junio	2023-07-06T00:00:00	2024-11-06T07:00:00	5	Humedad	93
100277	7	Sololá	702	San José Chacayá	5	Chacayá	6	Junio	2023-07-06T00:00:00	2024-11-06T07:00:00	6	Velocidad del viento	0
100278	7	Sololá	702	San José Chacayá	5	Chacayá	6	Junio	2023-07-06T00:00:00	2024-11-06T07:00:00	7	Dirección del viento	0
100279	7	Sololá	702	San José Chacayá	5	Chacayá	6	Junio	2023-07-06T00:00:00	2024-11-06T07:00:00	1	Precipitación	0
100280	7	Sololá	702	San José Chacayá	5	Chacayá	6	Junio	2023-07-06T00:00:00	2024-11-06T07:00:00	8	Radiación solar	75
100281	7	Sololá	702	San José Chacayá	5	Chacayá	6	Junio	2023-07-06T00:00:00	2024-11-06T08:00:00	2	Temperatura media	17
100282	7	Sololá	702	San José Chacayá	5	Chacayá	6	Junio	2023-07-06T00:00:00	2024-11-06T08:00:00	4	Temperatura máxima	17
100283	7	Sololá	702	San José Chacayá	5	Chacayá	6	Junio	2023-07-06T00:00:00	2024-11-06T08:00:00	3	Temperatura mínima	13.3
100284	7	Sololá	702	San José Chacayá	5	Chacayá	6	Junio	2023-07-06T00:00:00	2024-11-06T08:00:00	5	Humedad	77
100285	7	Sololá	702	San José Chacayá	5	Chacayá	6	Junio	2023-07-06T00:00:00	2024-11-06T08:00:00	6	Velocidad del viento	1.6
100286	7	Sololá	702	San José Chacayá	5	Chacayá	6	Junio	2023-07-06T00:00:00	2024-11-06T08:00:00	7	Dirección del viento	1.61
100287	7	Sololá	702	San José Chacayá	5	Chacayá	6	Junio	2023-07-06T00:00:00	2024-11-06T08:00:00	1	Precipitación	0
100288	7	Sololá	702	San José Chacayá	5	Chacayá	6	Junio	2023-07-06T00:00:00	2024-11-06T08:00:00	8	Radiación solar	188
100289	7	Sololá	702	San José Chacayá	5	Chacayá	6	Junio	2023-07-06T00:00:00	2024-11-06T09:00:00	2	Temperatura media	17.9
100290	7	Sololá	702	San José Chacayá	5	Chacayá	6	Junio	2023-07-06T00:00:00	2024-11-06T09:00:00	4	Temperatura máxima	18.2
100291	7	Sololá	702	San José Chacayá	5	Chacayá	6	Junio	2023-07-06T00:00:00	2024-11-06T09:00:00	3	Temperatura mínima	17
100292	7	Sololá	702	San José Chacayá	5	Chacayá	6	Junio	2023-07-06T00:00:00	2024-11-06T09:00:00	5	Humedad	80
100293	7	Sololá	702	San José Chacayá	5	Chacayá	6	Junio	2023-07-06T00:00:00	2024-11-06T09:00:00	6	Velocidad del viento	3.2
100294	7	Sololá	702	San José Chacayá	5	Chacayá	6	Junio	2023-07-06T00:00:00	2024-11-06T09:00:00	7	Dirección del viento	3.22
100295	7	Sololá	702	San José Chacayá	5	Chacayá	6	Junio	2023-07-06T00:00:00	2024-11-06T09:00:00	1	Precipitación	0
100296	7	Sololá	702	San José Chacayá	5	Chacayá	6	Junio	2023-07-06T00:00:00	2024-11-06T09:00:00	8	Radiación solar	366
100297	7	Sololá	702	San José Chacayá	5	Chacayá	6	Junio	2023-07-06T00:00:00	2024-11-06T10:00:00	2	Temperatura media	21.4
100298	7	Sololá	702	San José Chacayá	5	Chacayá	6	Junio	2023-07-06T00:00:00	2024-11-06T10:00:00	4	Temperatura máxima	21.4
100299	7	Sololá	702	San José Chacayá	5	Chacayá	6	Junio	2023-07-06T00:00:00	2024-11-06T10:00:00	3	Temperatura mínima	17.9
100300	7	Sololá	702	San José Chacayá	5	Chacayá	6	Junio	2023-07-06T00:00:00	2024-11-06T10:00:00	5	Humedad	67
100301	7	Sololá	702	San José Chacayá	5	Chacayá	6	Junio	2023-07-06T00:00:00	2024-11-06T10:00:00	6	Velocidad del viento	3.2
100302	7	Sololá	702	San José Chacayá	5	Chacayá	6	Junio	2023-07-06T00:00:00	2024-11-06T10:00:00	7	Dirección del viento	3.22
100303	7	Sololá	702	San José Chacayá	5	Chacayá	6	Junio	2023-07-06T00:00:00	2024-11-06T10:00:00	1	Precipitación	0
100304	7	Sololá	702	San José Chacayá	5	Chacayá	6	Junio	2023-07-06T00:00:00	2024-11-06T10:00:00	8	Radiación solar	719
100305	7	Sololá	702	San José Chacayá	5	Chacayá	6	Junio	2023-07-06T00:00:00	2024-11-06T11:00:00	2	Temperatura media	22.8
100306	7	Sololá	702	San José Chacayá	5	Chacayá	6	Junio	2023-07-06T00:00:00	2024-11-06T11:00:00	4	Temperatura máxima	22.9
100307	7	Sololá	702	San José Chacayá	5	Chacayá	6	Junio	2023-07-06T00:00:00	2024-11-06T11:00:00	3	Temperatura mínima	21.4
100308	7	Sololá	702	San José Chacayá	5	Chacayá	6	Junio	2023-07-06T00:00:00	2024-11-06T11:00:00	5	Humedad	63
100309	7	Sololá	702	San José Chacayá	5	Chacayá	6	Junio	2023-07-06T00:00:00	2024-11-06T11:00:00	6	Velocidad del viento	4.8
100310	7	Sololá	702	San José Chacayá	5	Chacayá	6	Junio	2023-07-06T00:00:00	2024-11-06T11:00:00	7	Dirección del viento	4.83
100311	7	Sololá	702	San José Chacayá	5	Chacayá	6	Junio	2023-07-06T00:00:00	2024-11-06T11:00:00	1	Precipitación	0
100312	7	Sololá	702	San José Chacayá	5	Chacayá	6	Junio	2023-07-06T00:00:00	2024-11-06T11:00:00	8	Radiación solar	740
100313	7	Sololá	702	San José Chacayá	5	Chacayá	6	Junio	2023-07-06T00:00:00	2024-11-06T12:00:00	2	Temperatura media	22.7
100314	7	Sololá	702	San José Chacayá	5	Chacayá	6	Junio	2023-07-06T00:00:00	2024-11-06T12:00:00	4	Temperatura máxima	23.5
100315	7	Sololá	702	San José Chacayá	5	Chacayá	6	Junio	2023-07-06T00:00:00	2024-11-06T12:00:00	3	Temperatura mínima	22.7
100316	7	Sololá	702	San José Chacayá	5	Chacayá	6	Junio	2023-07-06T00:00:00	2024-11-06T12:00:00	5	Humedad	67
100317	7	Sololá	702	San José Chacayá	5	Chacayá	6	Junio	2023-07-06T00:00:00	2024-11-06T12:00:00	6	Velocidad del viento	6.4
100318	7	Sololá	702	San José Chacayá	5	Chacayá	6	Junio	2023-07-06T00:00:00	2024-11-06T12:00:00	7	Dirección del viento	6.44
100319	7	Sololá	702	San José Chacayá	5	Chacayá	6	Junio	2023-07-06T00:00:00	2024-11-06T12:00:00	1	Precipitación	0
100320	7	Sololá	702	San José Chacayá	5	Chacayá	6	Junio	2023-07-06T00:00:00	2024-11-06T12:00:00	8	Radiación solar	991
100321	7	Sololá	702	San José Chacayá	5	Chacayá	6	Junio	2023-07-06T00:00:00	2024-11-06T13:00:00	2	Temperatura media	19.6
100322	7	Sololá	702	San José Chacayá	5	Chacayá	6	Junio	2023-07-06T00:00:00	2024-11-06T13:00:00	4	Temperatura máxima	22.9
100323	7	Sololá	702	San José Chacayá	5	Chacayá	6	Junio	2023-07-06T00:00:00	2024-11-06T13:00:00	3	Temperatura mínima	19.6
100324	7	Sololá	702	San José Chacayá	5	Chacayá	6	Junio	2023-07-06T00:00:00	2024-11-06T13:00:00	5	Humedad	79
100325	7	Sololá	702	San José Chacayá	5	Chacayá	6	Junio	2023-07-06T00:00:00	2024-11-06T13:00:00	6	Velocidad del viento	6.4
100326	7	Sololá	702	San José Chacayá	5	Chacayá	6	Junio	2023-07-06T00:00:00	2024-11-06T13:00:00	7	Dirección del viento	6.44
100327	7	Sololá	702	San José Chacayá	5	Chacayá	6	Junio	2023-07-06T00:00:00	2024-11-06T13:00:00	1	Precipitación	0
100328	7	Sololá	702	San José Chacayá	5	Chacayá	6	Junio	2023-07-06T00:00:00	2024-11-06T13:00:00	8	Radiación solar	527
100329	7	Sololá	702	San José Chacayá	5	Chacayá	6	Junio	2023-07-06T00:00:00	2024-11-06T14:00:00	2	Temperatura media	17.4
100330	7	Sololá	702	San José Chacayá	5	Chacayá	6	Junio	2023-07-06T00:00:00	2024-11-06T14:00:00	4	Temperatura máxima	19.6
100331	7	Sololá	702	San José Chacayá	5	Chacayá	6	Junio	2023-07-06T00:00:00	2024-11-06T14:00:00	3	Temperatura mínima	17.4
100332	7	Sololá	702	San José Chacayá	5	Chacayá	6	Junio	2023-07-06T00:00:00	2024-11-06T14:00:00	5	Humedad	86
100333	7	Sololá	702	San José Chacayá	5	Chacayá	6	Junio	2023-07-06T00:00:00	2024-11-06T14:00:00	6	Velocidad del viento	1.6
100334	7	Sololá	702	San José Chacayá	5	Chacayá	6	Junio	2023-07-06T00:00:00	2024-11-06T14:00:00	7	Dirección del viento	1.61
100335	7	Sololá	702	San José Chacayá	5	Chacayá	6	Junio	2023-07-06T00:00:00	2024-11-06T14:00:00	1	Precipitación	0
100336	7	Sololá	702	San José Chacayá	5	Chacayá	6	Junio	2023-07-06T00:00:00	2024-11-06T14:00:00	8	Radiación solar	899
100337	7	Sololá	702	San José Chacayá	5	Chacayá	6	Junio	2023-07-06T00:00:00	2024-11-06T15:00:00	2	Temperatura media	17.7
100338	7	Sololá	702	San José Chacayá	5	Chacayá	6	Junio	2023-07-06T00:00:00	2024-11-06T15:00:00	4	Temperatura máxima	17.8
100339	7	Sololá	702	San José Chacayá	5	Chacayá	6	Junio	2023-07-06T00:00:00	2024-11-06T15:00:00	3	Temperatura mínima	17.4
100340	7	Sololá	702	San José Chacayá	5	Chacayá	6	Junio	2023-07-06T00:00:00	2024-11-06T15:00:00	5	Humedad	87
100341	7	Sololá	702	San José Chacayá	5	Chacayá	6	Junio	2023-07-06T00:00:00	2024-11-06T15:00:00	6	Velocidad del viento	1.6
100342	7	Sololá	702	San José Chacayá	5	Chacayá	6	Junio	2023-07-06T00:00:00	2024-11-06T15:00:00	7	Dirección del viento	1.61
100343	7	Sololá	702	San José Chacayá	5	Chacayá	6	Junio	2023-07-06T00:00:00	2024-11-06T15:00:00	1	Precipitación	0.8
100344	7	Sololá	702	San José Chacayá	5	Chacayá	6	Junio	2023-07-06T00:00:00	2024-11-06T15:00:00	8	Radiación solar	311
100345	7	Sololá	702	San José Chacayá	5	Chacayá	6	Junio	2023-07-06T00:00:00	2024-11-06T16:00:00	2	Temperatura media	17.9
100346	7	Sololá	702	San José Chacayá	5	Chacayá	6	Junio	2023-07-06T00:00:00	2024-11-06T16:00:00	4	Temperatura máxima	18.1
100347	7	Sololá	702	San José Chacayá	5	Chacayá	6	Junio	2023-07-06T00:00:00	2024-11-06T16:00:00	3	Temperatura mínima	17.6
100348	7	Sololá	702	San José Chacayá	5	Chacayá	6	Junio	2023-07-06T00:00:00	2024-11-06T16:00:00	5	Humedad	89
100349	7	Sololá	702	San José Chacayá	5	Chacayá	6	Junio	2023-07-06T00:00:00	2024-11-06T16:00:00	6	Velocidad del viento	1.6
100350	7	Sololá	702	San José Chacayá	5	Chacayá	6	Junio	2023-07-06T00:00:00	2024-11-06T16:00:00	7	Dirección del viento	1.61
100351	7	Sololá	702	San José Chacayá	5	Chacayá	6	Junio	2023-07-06T00:00:00	2024-11-06T16:00:00	1	Precipitación	0
100352	7	Sololá	702	San José Chacayá	5	Chacayá	6	Junio	2023-07-06T00:00:00	2024-11-06T16:00:00	8	Radiación solar	56
100353	7	Sololá	702	San José Chacayá	5	Chacayá	6	Junio	2023-07-06T00:00:00	2024-11-06T17:00:00	2	Temperatura media	17.8
100354	7	Sololá	702	San José Chacayá	5	Chacayá	6	Junio	2023-07-06T00:00:00	2024-11-06T17:00:00	4	Temperatura máxima	17.9
100355	7	Sololá	702	San José Chacayá	5	Chacayá	6	Junio	2023-07-06T00:00:00	2024-11-06T17:00:00	3	Temperatura mínima	17.6
100356	7	Sololá	702	San José Chacayá	5	Chacayá	6	Junio	2023-07-06T00:00:00	2024-11-06T17:00:00	5	Humedad	89
100357	7	Sololá	702	San José Chacayá	5	Chacayá	6	Junio	2023-07-06T00:00:00	2024-11-06T17:00:00	6	Velocidad del viento	1.6
100358	7	Sololá	702	San José Chacayá	5	Chacayá	6	Junio	2023-07-06T00:00:00	2024-11-06T17:00:00	7	Dirección del viento	1.61
100359	7	Sololá	702	San José Chacayá	5	Chacayá	6	Junio	2023-07-06T00:00:00	2024-11-06T17:00:00	1	Precipitación	0
100360	7	Sololá	702	San José Chacayá	5	Chacayá	6	Junio	2023-07-06T00:00:00	2024-11-06T17:00:00	8	Radiación solar	43
100361	7	Sololá	702	San José Chacayá	5	Chacayá	6	Junio	2023-07-06T00:00:00	2024-11-06T18:00:00	2	Temperatura media	16.6
100362	7	Sololá	702	San José Chacayá	5	Chacayá	6	Junio	2023-07-06T00:00:00	2024-11-06T18:00:00	4	Temperatura máxima	17.8
100363	7	Sololá	702	San José Chacayá	5	Chacayá	6	Junio	2023-07-06T00:00:00	2024-11-06T18:00:00	3	Temperatura mínima	16.6
100364	7	Sololá	702	San José Chacayá	5	Chacayá	6	Junio	2023-07-06T00:00:00	2024-11-06T18:00:00	5	Humedad	92
100365	7	Sololá	702	San José Chacayá	5	Chacayá	6	Junio	2023-07-06T00:00:00	2024-11-06T18:00:00	6	Velocidad del viento	0
100366	7	Sololá	702	San José Chacayá	5	Chacayá	6	Junio	2023-07-06T00:00:00	2024-11-06T18:00:00	7	Dirección del viento	0
100367	7	Sololá	702	San José Chacayá	5	Chacayá	6	Junio	2023-07-06T00:00:00	2024-11-06T18:00:00	1	Precipitación	0
100368	7	Sololá	702	San José Chacayá	5	Chacayá	6	Junio	2023-07-06T00:00:00	2024-11-06T18:00:00	8	Radiación solar	53
100369	7	Sololá	702	San José Chacayá	5	Chacayá	6	Junio	2023-07-06T00:00:00	2024-11-06T19:00:00	2	Temperatura media	16.2
100370	7	Sololá	702	San José Chacayá	5	Chacayá	6	Junio	2023-07-06T00:00:00	2024-11-06T19:00:00	4	Temperatura máxima	16.6
100371	7	Sololá	702	San José Chacayá	5	Chacayá	6	Junio	2023-07-06T00:00:00	2024-11-06T19:00:00	3	Temperatura mínima	16.2
100372	7	Sololá	702	San José Chacayá	5	Chacayá	6	Junio	2023-07-06T00:00:00	2024-11-06T19:00:00	5	Humedad	94
100373	7	Sololá	702	San José Chacayá	5	Chacayá	6	Junio	2023-07-06T00:00:00	2024-11-06T19:00:00	6	Velocidad del viento	0
100374	7	Sololá	702	San José Chacayá	5	Chacayá	6	Junio	2023-07-06T00:00:00	2024-11-06T19:00:00	7	Dirección del viento	0
100375	7	Sololá	702	San José Chacayá	5	Chacayá	6	Junio	2023-07-06T00:00:00	2024-11-06T19:00:00	1	Precipitación	0
100376	7	Sololá	702	San José Chacayá	5	Chacayá	6	Junio	2023-07-06T00:00:00	2024-11-06T19:00:00	8	Radiación solar	0
100377	7	Sololá	702	San José Chacayá	5	Chacayá	6	Junio	2023-07-06T00:00:00	2024-11-06T20:00:00	2	Temperatura media	15.9
100378	7	Sololá	702	San José Chacayá	5	Chacayá	6	Junio	2023-07-06T00:00:00	2024-11-06T20:00:00	4	Temperatura máxima	16.2
100379	7	Sololá	702	San José Chacayá	5	Chacayá	6	Junio	2023-07-06T00:00:00	2024-11-06T20:00:00	3	Temperatura mínima	15.8
100380	7	Sololá	702	San José Chacayá	5	Chacayá	6	Junio	2023-07-06T00:00:00	2024-11-06T20:00:00	5	Humedad	94
100381	7	Sololá	702	San José Chacayá	5	Chacayá	6	Junio	2023-07-06T00:00:00	2024-11-06T20:00:00	6	Velocidad del viento	0
100382	7	Sololá	702	San José Chacayá	5	Chacayá	6	Junio	2023-07-06T00:00:00	2024-11-06T20:00:00	7	Dirección del viento	0
100383	7	Sololá	702	San José Chacayá	5	Chacayá	6	Junio	2023-07-06T00:00:00	2024-11-06T20:00:00	1	Precipitación	0
100384	7	Sololá	702	San José Chacayá	5	Chacayá	6	Junio	2023-07-06T00:00:00	2024-11-06T20:00:00	8	Radiación solar	0
100385	7	Sololá	702	San José Chacayá	5	Chacayá	6	Junio	2023-07-06T00:00:00	2024-11-06T21:00:00	2	Temperatura media	15.6
100386	7	Sololá	702	San José Chacayá	5	Chacayá	6	Junio	2023-07-06T00:00:00	2024-11-06T21:00:00	4	Temperatura máxima	15.9
100387	7	Sololá	702	San José Chacayá	5	Chacayá	6	Junio	2023-07-06T00:00:00	2024-11-06T21:00:00	3	Temperatura mínima	15.6
100388	7	Sololá	702	San José Chacayá	5	Chacayá	6	Junio	2023-07-06T00:00:00	2024-11-06T21:00:00	5	Humedad	94
100389	7	Sololá	702	San José Chacayá	5	Chacayá	6	Junio	2023-07-06T00:00:00	2024-11-06T21:00:00	6	Velocidad del viento	0
100390	7	Sololá	702	San José Chacayá	5	Chacayá	6	Junio	2023-07-06T00:00:00	2024-11-06T21:00:00	7	Dirección del viento	0
100391	7	Sololá	702	San José Chacayá	5	Chacayá	6	Junio	2023-07-06T00:00:00	2024-11-06T21:00:00	1	Precipitación	0
100392	7	Sololá	702	San José Chacayá	5	Chacayá	6	Junio	2023-07-06T00:00:00	2024-11-06T21:00:00	8	Radiación solar	0
100393	7	Sololá	702	San José Chacayá	5	Chacayá	6	Junio	2023-07-06T00:00:00	2024-11-06T22:00:00	2	Temperatura media	15.6
100394	7	Sololá	702	San José Chacayá	5	Chacayá	6	Junio	2023-07-06T00:00:00	2024-11-06T22:00:00	4	Temperatura máxima	15.7
100395	7	Sololá	702	San José Chacayá	5	Chacayá	6	Junio	2023-07-06T00:00:00	2024-11-06T22:00:00	3	Temperatura mínima	15.4
100396	7	Sololá	702	San José Chacayá	5	Chacayá	6	Junio	2023-07-06T00:00:00	2024-11-06T22:00:00	5	Humedad	95
100397	7	Sololá	702	San José Chacayá	5	Chacayá	6	Junio	2023-07-06T00:00:00	2024-11-06T22:00:00	6	Velocidad del viento	0
100398	7	Sololá	702	San José Chacayá	5	Chacayá	6	Junio	2023-07-06T00:00:00	2024-11-06T22:00:00	7	Dirección del viento	0
100399	7	Sololá	702	San José Chacayá	5	Chacayá	6	Junio	2023-07-06T00:00:00	2024-11-06T22:00:00	1	Precipitación	0
100400	7	Sololá	702	San José Chacayá	5	Chacayá	6	Junio	2023-07-06T00:00:00	2024-11-06T22:00:00	8	Radiación solar	0
100401	7	Sololá	702	San José Chacayá	5	Chacayá	6	Junio	2023-07-06T00:00:00	2024-11-06T23:00:00	2	Temperatura media	15.4
100402	7	Sololá	702	San José Chacayá	5	Chacayá	6	Junio	2023-07-06T00:00:00	2024-11-06T23:00:00	4	Temperatura máxima	15.6
100403	7	Sololá	702	San José Chacayá	5	Chacayá	6	Junio	2023-07-06T00:00:00	2024-11-06T23:00:00	3	Temperatura mínima	15.4
100404	7	Sololá	702	San José Chacayá	5	Chacayá	6	Junio	2023-07-06T00:00:00	2024-11-06T23:00:00	5	Humedad	95
100405	7	Sololá	702	San José Chacayá	5	Chacayá	6	Junio	2023-07-06T00:00:00	2024-11-06T23:00:00	6	Velocidad del viento	0
100406	7	Sololá	702	San José Chacayá	5	Chacayá	6	Junio	2023-07-06T00:00:00	2024-11-06T23:00:00	7	Dirección del viento	0
100407	7	Sololá	702	San José Chacayá	5	Chacayá	6	Junio	2023-07-06T00:00:00	2024-11-06T23:00:00	1	Precipitación	0
100408	7	Sololá	702	San José Chacayá	5	Chacayá	6	Junio	2023-07-06T00:00:00	2024-11-06T23:00:00	8	Radiación solar	0
100409	7	Sololá	702	San José Chacayá	5	Chacayá	6	Junio	2023-08-06T00:00:00	2024-11-06T00:00:00	2	Temperatura media	15.2
100410	7	Sololá	702	San José Chacayá	5	Chacayá	6	Junio	2023-08-06T00:00:00	2024-11-06T00:00:00	4	Temperatura máxima	15.5
100411	7	Sololá	702	San José Chacayá	5	Chacayá	6	Junio	2023-08-06T00:00:00	2024-11-06T00:00:00	3	Temperatura mínima	15.2
100412	7	Sololá	702	San José Chacayá	5	Chacayá	6	Junio	2023-08-06T00:00:00	2024-11-06T00:00:00	5	Humedad	95
100413	7	Sololá	702	San José Chacayá	5	Chacayá	6	Junio	2023-08-06T00:00:00	2024-11-06T00:00:00	6	Velocidad del viento	0
100414	7	Sololá	702	San José Chacayá	5	Chacayá	6	Junio	2023-08-06T00:00:00	2024-11-06T00:00:00	7	Dirección del viento	0
100415	7	Sololá	702	San José Chacayá	5	Chacayá	6	Junio	2023-08-06T00:00:00	2024-11-06T00:00:00	1	Precipitación	0
100416	7	Sololá	702	San José Chacayá	5	Chacayá	6	Junio	2023-08-06T00:00:00	2024-11-06T00:00:00	8	Radiación solar	0
100417	7	Sololá	702	San José Chacayá	5	Chacayá	6	Junio	2023-08-06T00:00:00	2024-11-06T01:00:00	2	Temperatura media	15.1
100418	7	Sololá	702	San José Chacayá	5	Chacayá	6	Junio	2023-08-06T00:00:00	2024-11-06T01:00:00	4	Temperatura máxima	15.3
100419	7	Sololá	702	San José Chacayá	5	Chacayá	6	Junio	2023-08-06T00:00:00	2024-11-06T01:00:00	3	Temperatura mínima	15.1
100420	7	Sololá	702	San José Chacayá	5	Chacayá	6	Junio	2023-08-06T00:00:00	2024-11-06T01:00:00	5	Humedad	95
100421	7	Sololá	702	San José Chacayá	5	Chacayá	6	Junio	2023-08-06T00:00:00	2024-11-06T01:00:00	6	Velocidad del viento	0
100422	7	Sololá	702	San José Chacayá	5	Chacayá	6	Junio	2023-08-06T00:00:00	2024-11-06T01:00:00	7	Dirección del viento	0
100423	7	Sololá	702	San José Chacayá	5	Chacayá	6	Junio	2023-08-06T00:00:00	2024-11-06T01:00:00	1	Precipitación	0.2
100424	7	Sololá	702	San José Chacayá	5	Chacayá	6	Junio	2023-08-06T00:00:00	2024-11-06T01:00:00	8	Radiación solar	0
100425	7	Sololá	702	San José Chacayá	5	Chacayá	6	Junio	2023-08-06T00:00:00	2024-11-06T02:00:00	2	Temperatura media	14.6
100426	7	Sololá	702	San José Chacayá	5	Chacayá	6	Junio	2023-08-06T00:00:00	2024-11-06T02:00:00	4	Temperatura máxima	15.1
100427	7	Sololá	702	San José Chacayá	5	Chacayá	6	Junio	2023-08-06T00:00:00	2024-11-06T02:00:00	3	Temperatura mínima	14.5
100428	7	Sololá	702	San José Chacayá	5	Chacayá	6	Junio	2023-08-06T00:00:00	2024-11-06T02:00:00	5	Humedad	94
100429	7	Sololá	702	San José Chacayá	5	Chacayá	6	Junio	2023-08-06T00:00:00	2024-11-06T02:00:00	6	Velocidad del viento	0
100430	7	Sololá	702	San José Chacayá	5	Chacayá	6	Junio	2023-08-06T00:00:00	2024-11-06T02:00:00	7	Dirección del viento	0
100431	7	Sololá	702	San José Chacayá	5	Chacayá	6	Junio	2023-08-06T00:00:00	2024-11-06T02:00:00	1	Precipitación	0
100432	7	Sololá	702	San José Chacayá	5	Chacayá	6	Junio	2023-08-06T00:00:00	2024-11-06T02:00:00	8	Radiación solar	0
100433	7	Sololá	702	San José Chacayá	5	Chacayá	6	Junio	2023-08-06T00:00:00	2024-11-06T03:00:00	2	Temperatura media	13.1
100434	7	Sololá	702	San José Chacayá	5	Chacayá	6	Junio	2023-08-06T00:00:00	2024-11-06T03:00:00	4	Temperatura máxima	14.5
100435	7	Sololá	702	San José Chacayá	5	Chacayá	6	Junio	2023-08-06T00:00:00	2024-11-06T03:00:00	3	Temperatura mínima	13.1
100436	7	Sololá	702	San José Chacayá	5	Chacayá	6	Junio	2023-08-06T00:00:00	2024-11-06T03:00:00	5	Humedad	94
100437	7	Sololá	702	San José Chacayá	5	Chacayá	6	Junio	2023-08-06T00:00:00	2024-11-06T03:00:00	6	Velocidad del viento	0
100438	7	Sololá	702	San José Chacayá	5	Chacayá	6	Junio	2023-08-06T00:00:00	2024-11-06T03:00:00	7	Dirección del viento	0
100439	7	Sololá	702	San José Chacayá	5	Chacayá	6	Junio	2023-08-06T00:00:00	2024-11-06T03:00:00	1	Precipitación	0
100440	7	Sololá	702	San José Chacayá	5	Chacayá	6	Junio	2023-08-06T00:00:00	2024-11-06T03:00:00	8	Radiación solar	0
100441	7	Sololá	702	San José Chacayá	5	Chacayá	6	Junio	2023-08-06T00:00:00	2024-11-06T04:00:00	2	Temperatura media	12.2
100442	7	Sololá	702	San José Chacayá	5	Chacayá	6	Junio	2023-08-06T00:00:00	2024-11-06T04:00:00	4	Temperatura máxima	13.2
100443	7	Sololá	702	San José Chacayá	5	Chacayá	6	Junio	2023-08-06T00:00:00	2024-11-06T04:00:00	3	Temperatura mínima	12.1
100444	7	Sololá	702	San José Chacayá	5	Chacayá	6	Junio	2023-08-06T00:00:00	2024-11-06T04:00:00	5	Humedad	94
100445	7	Sololá	702	San José Chacayá	5	Chacayá	6	Junio	2023-08-06T00:00:00	2024-11-06T04:00:00	6	Velocidad del viento	0
100446	7	Sololá	702	San José Chacayá	5	Chacayá	6	Junio	2023-08-06T00:00:00	2024-11-06T04:00:00	7	Dirección del viento	0
100447	7	Sololá	702	San José Chacayá	5	Chacayá	6	Junio	2023-08-06T00:00:00	2024-11-06T04:00:00	1	Precipitación	0
100448	7	Sololá	702	San José Chacayá	5	Chacayá	6	Junio	2023-08-06T00:00:00	2024-11-06T04:00:00	8	Radiación solar	0
100449	7	Sololá	702	San José Chacayá	5	Chacayá	6	Junio	2023-08-06T00:00:00	2024-11-06T05:00:00	2	Temperatura media	11.5
100450	7	Sololá	702	San José Chacayá	5	Chacayá	6	Junio	2023-08-06T00:00:00	2024-11-06T05:00:00	4	Temperatura máxima	12.1
100451	7	Sololá	702	San José Chacayá	5	Chacayá	6	Junio	2023-08-06T00:00:00	2024-11-06T05:00:00	3	Temperatura mínima	11.5
100452	7	Sololá	702	San José Chacayá	5	Chacayá	6	Junio	2023-08-06T00:00:00	2024-11-06T05:00:00	5	Humedad	95
100453	7	Sololá	702	San José Chacayá	5	Chacayá	6	Junio	2023-08-06T00:00:00	2024-11-06T05:00:00	6	Velocidad del viento	0
100454	7	Sololá	702	San José Chacayá	5	Chacayá	6	Junio	2023-08-06T00:00:00	2024-11-06T05:00:00	7	Dirección del viento	0
100455	7	Sololá	702	San José Chacayá	5	Chacayá	6	Junio	2023-08-06T00:00:00	2024-11-06T05:00:00	1	Precipitación	0
100456	7	Sololá	702	San José Chacayá	5	Chacayá	6	Junio	2023-08-06T00:00:00	2024-11-06T05:00:00	8	Radiación solar	0
100457	7	Sololá	702	San José Chacayá	5	Chacayá	6	Junio	2023-08-06T00:00:00	2024-11-06T06:00:00	2	Temperatura media	11.1
100458	7	Sololá	702	San José Chacayá	5	Chacayá	6	Junio	2023-08-06T00:00:00	2024-11-06T06:00:00	4	Temperatura máxima	11.6
100459	7	Sololá	702	San José Chacayá	5	Chacayá	6	Junio	2023-08-06T00:00:00	2024-11-06T06:00:00	3	Temperatura mínima	11.1
100460	7	Sololá	702	San José Chacayá	5	Chacayá	6	Junio	2023-08-06T00:00:00	2024-11-06T06:00:00	5	Humedad	95
100461	7	Sololá	702	San José Chacayá	5	Chacayá	6	Junio	2023-08-06T00:00:00	2024-11-06T06:00:00	6	Velocidad del viento	0
100462	7	Sololá	702	San José Chacayá	5	Chacayá	6	Junio	2023-08-06T00:00:00	2024-11-06T06:00:00	7	Dirección del viento	0
100463	7	Sololá	702	San José Chacayá	5	Chacayá	6	Junio	2023-08-06T00:00:00	2024-11-06T06:00:00	1	Precipitación	0
100464	7	Sololá	702	San José Chacayá	5	Chacayá	6	Junio	2023-08-06T00:00:00	2024-11-06T06:00:00	8	Radiación solar	4
100465	7	Sololá	702	San José Chacayá	5	Chacayá	6	Junio	2023-08-06T00:00:00	2024-11-06T07:00:00	2	Temperatura media	13.3
100466	7	Sololá	702	San José Chacayá	5	Chacayá	6	Junio	2023-08-06T00:00:00	2024-11-06T07:00:00	4	Temperatura máxima	13.3
100467	7	Sololá	702	San José Chacayá	5	Chacayá	6	Junio	2023-08-06T00:00:00	2024-11-06T07:00:00	3	Temperatura mínima	11
100468	7	Sololá	702	San José Chacayá	5	Chacayá	6	Junio	2023-08-06T00:00:00	2024-11-06T07:00:00	5	Humedad	96
100469	7	Sololá	702	San José Chacayá	5	Chacayá	6	Junio	2023-08-06T00:00:00	2024-11-06T07:00:00	6	Velocidad del viento	0
100470	7	Sololá	702	San José Chacayá	5	Chacayá	6	Junio	2023-08-06T00:00:00	2024-11-06T07:00:00	7	Dirección del viento	0
100471	7	Sololá	702	San José Chacayá	5	Chacayá	6	Junio	2023-08-06T00:00:00	2024-11-06T07:00:00	1	Precipitación	0
100472	7	Sololá	702	San José Chacayá	5	Chacayá	6	Junio	2023-08-06T00:00:00	2024-11-06T07:00:00	8	Radiación solar	31
100473	7	Sololá	702	San José Chacayá	5	Chacayá	6	Junio	2023-08-06T00:00:00	2024-11-06T08:00:00	2	Temperatura media	16.9
100474	7	Sololá	702	San José Chacayá	5	Chacayá	6	Junio	2023-08-06T00:00:00	2024-11-06T08:00:00	4	Temperatura máxima	16.9
100475	7	Sololá	702	San José Chacayá	5	Chacayá	6	Junio	2023-08-06T00:00:00	2024-11-06T08:00:00	3	Temperatura mínima	13.4
100476	7	Sololá	702	San José Chacayá	5	Chacayá	6	Junio	2023-08-06T00:00:00	2024-11-06T08:00:00	5	Humedad	77
100477	7	Sololá	702	San José Chacayá	5	Chacayá	6	Junio	2023-08-06T00:00:00	2024-11-06T08:00:00	6	Velocidad del viento	1.6
100478	7	Sololá	702	San José Chacayá	5	Chacayá	6	Junio	2023-08-06T00:00:00	2024-11-06T08:00:00	7	Dirección del viento	1.61
100479	7	Sololá	702	San José Chacayá	5	Chacayá	6	Junio	2023-08-06T00:00:00	2024-11-06T08:00:00	1	Precipitación	0
100480	7	Sololá	702	San José Chacayá	5	Chacayá	6	Junio	2023-08-06T00:00:00	2024-11-06T08:00:00	8	Radiación solar	132
100481	7	Sololá	702	San José Chacayá	5	Chacayá	6	Junio	2023-08-06T00:00:00	2024-11-06T09:00:00	2	Temperatura media	20
100482	7	Sololá	702	San José Chacayá	5	Chacayá	6	Junio	2023-08-06T00:00:00	2024-11-06T09:00:00	4	Temperatura máxima	20
100483	7	Sololá	702	San José Chacayá	5	Chacayá	6	Junio	2023-08-06T00:00:00	2024-11-06T09:00:00	3	Temperatura mínima	17
100484	7	Sololá	702	San José Chacayá	5	Chacayá	6	Junio	2023-08-06T00:00:00	2024-11-06T09:00:00	5	Humedad	75
100485	7	Sololá	702	San José Chacayá	5	Chacayá	6	Junio	2023-08-06T00:00:00	2024-11-06T09:00:00	6	Velocidad del viento	1.6
100486	7	Sololá	702	San José Chacayá	5	Chacayá	6	Junio	2023-08-06T00:00:00	2024-11-06T09:00:00	7	Dirección del viento	1.61
100487	7	Sololá	702	San José Chacayá	5	Chacayá	6	Junio	2023-08-06T00:00:00	2024-11-06T09:00:00	1	Precipitación	0
100488	7	Sololá	702	San José Chacayá	5	Chacayá	6	Junio	2023-08-06T00:00:00	2024-11-06T09:00:00	8	Radiación solar	562
100489	7	Sololá	702	San José Chacayá	5	Chacayá	6	Junio	2023-08-06T00:00:00	2024-11-06T10:00:00	2	Temperatura media	22.5
100490	7	Sololá	702	San José Chacayá	5	Chacayá	6	Junio	2023-08-06T00:00:00	2024-11-06T10:00:00	4	Temperatura máxima	22.5
100491	7	Sololá	702	San José Chacayá	5	Chacayá	6	Junio	2023-08-06T00:00:00	2024-11-06T10:00:00	3	Temperatura mínima	20
100492	7	Sololá	702	San José Chacayá	5	Chacayá	6	Junio	2023-08-06T00:00:00	2024-11-06T10:00:00	5	Humedad	59
100493	7	Sololá	702	San José Chacayá	5	Chacayá	6	Junio	2023-08-06T00:00:00	2024-11-06T10:00:00	6	Velocidad del viento	3.2
100494	7	Sololá	702	San José Chacayá	5	Chacayá	6	Junio	2023-08-06T00:00:00	2024-11-06T10:00:00	7	Dirección del viento	3.22
100495	7	Sololá	702	San José Chacayá	5	Chacayá	6	Junio	2023-08-06T00:00:00	2024-11-06T10:00:00	1	Precipitación	0
100496	7	Sololá	702	San José Chacayá	5	Chacayá	6	Junio	2023-08-06T00:00:00	2024-11-06T10:00:00	8	Radiación solar	767
100497	7	Sololá	702	San José Chacayá	5	Chacayá	6	Junio	2023-08-06T00:00:00	2024-11-06T11:00:00	2	Temperatura media	23.4
100498	7	Sololá	702	San José Chacayá	5	Chacayá	6	Junio	2023-08-06T00:00:00	2024-11-06T11:00:00	4	Temperatura máxima	23.4
100499	7	Sololá	702	San José Chacayá	5	Chacayá	6	Junio	2023-08-06T00:00:00	2024-11-06T11:00:00	3	Temperatura mínima	22.5
100500	7	Sololá	702	San José Chacayá	5	Chacayá	6	Junio	2023-08-06T00:00:00	2024-11-06T11:00:00	5	Humedad	64
100501	7	Sololá	702	San José Chacayá	5	Chacayá	6	Junio	2023-08-06T00:00:00	2024-11-06T11:00:00	6	Velocidad del viento	3.2
100502	7	Sololá	702	San José Chacayá	5	Chacayá	6	Junio	2023-08-06T00:00:00	2024-11-06T11:00:00	7	Dirección del viento	3.22
100503	7	Sololá	702	San José Chacayá	5	Chacayá	6	Junio	2023-08-06T00:00:00	2024-11-06T11:00:00	1	Precipitación	0
100504	7	Sololá	702	San José Chacayá	5	Chacayá	6	Junio	2023-08-06T00:00:00	2024-11-06T11:00:00	8	Radiación solar	909
100505	7	Sololá	702	San José Chacayá	5	Chacayá	6	Junio	2023-08-06T00:00:00	2024-11-06T12:00:00	2	Temperatura media	23.2
100506	7	Sololá	702	San José Chacayá	5	Chacayá	6	Junio	2023-08-06T00:00:00	2024-11-06T12:00:00	4	Temperatura máxima	23.4
100507	7	Sololá	702	San José Chacayá	5	Chacayá	6	Junio	2023-08-06T00:00:00	2024-11-06T12:00:00	3	Temperatura mínima	22.8
100508	7	Sololá	702	San José Chacayá	5	Chacayá	6	Junio	2023-08-06T00:00:00	2024-11-06T12:00:00	5	Humedad	70
100509	7	Sololá	702	San José Chacayá	5	Chacayá	6	Junio	2023-08-06T00:00:00	2024-11-06T12:00:00	6	Velocidad del viento	4.8
100510	7	Sololá	702	San José Chacayá	5	Chacayá	6	Junio	2023-08-06T00:00:00	2024-11-06T12:00:00	7	Dirección del viento	4.83
100511	7	Sololá	702	San José Chacayá	5	Chacayá	6	Junio	2023-08-06T00:00:00	2024-11-06T12:00:00	1	Precipitación	0
100512	7	Sololá	702	San José Chacayá	5	Chacayá	6	Junio	2023-08-06T00:00:00	2024-11-06T12:00:00	8	Radiación solar	1044
100513	7	Sololá	702	San José Chacayá	5	Chacayá	6	Junio	2023-08-06T00:00:00	2024-11-06T13:00:00	2	Temperatura media	22.2
100514	7	Sololá	702	San José Chacayá	5	Chacayá	6	Junio	2023-08-06T00:00:00	2024-11-06T13:00:00	4	Temperatura máxima	23.5
100515	7	Sololá	702	San José Chacayá	5	Chacayá	6	Junio	2023-08-06T00:00:00	2024-11-06T13:00:00	3	Temperatura mínima	22.1
100516	7	Sololá	702	San José Chacayá	5	Chacayá	6	Junio	2023-08-06T00:00:00	2024-11-06T13:00:00	5	Humedad	71
100517	7	Sololá	702	San José Chacayá	5	Chacayá	6	Junio	2023-08-06T00:00:00	2024-11-06T13:00:00	6	Velocidad del viento	4.8
100518	7	Sololá	702	San José Chacayá	5	Chacayá	6	Junio	2023-08-06T00:00:00	2024-11-06T13:00:00	7	Dirección del viento	4.83
100519	7	Sololá	702	San José Chacayá	5	Chacayá	6	Junio	2023-08-06T00:00:00	2024-11-06T13:00:00	1	Precipitación	0
100520	7	Sololá	702	San José Chacayá	5	Chacayá	6	Junio	2023-08-06T00:00:00	2024-11-06T13:00:00	8	Radiación solar	1040
100521	7	Sololá	702	San José Chacayá	5	Chacayá	6	Junio	2023-08-06T00:00:00	2024-11-06T14:00:00	2	Temperatura media	20
100522	7	Sololá	702	San José Chacayá	5	Chacayá	6	Junio	2023-08-06T00:00:00	2024-11-06T14:00:00	4	Temperatura máxima	22.2
100523	7	Sololá	702	San José Chacayá	5	Chacayá	6	Junio	2023-08-06T00:00:00	2024-11-06T14:00:00	3	Temperatura mínima	20
100524	7	Sololá	702	San José Chacayá	5	Chacayá	6	Junio	2023-08-06T00:00:00	2024-11-06T14:00:00	5	Humedad	77
100525	7	Sololá	702	San José Chacayá	5	Chacayá	6	Junio	2023-08-06T00:00:00	2024-11-06T14:00:00	6	Velocidad del viento	4.8
100526	7	Sololá	702	San José Chacayá	5	Chacayá	6	Junio	2023-08-06T00:00:00	2024-11-06T14:00:00	7	Dirección del viento	4.83
100527	7	Sololá	702	San José Chacayá	5	Chacayá	6	Junio	2023-08-06T00:00:00	2024-11-06T14:00:00	1	Precipitación	0
100528	7	Sololá	702	San José Chacayá	5	Chacayá	6	Junio	2023-08-06T00:00:00	2024-11-06T14:00:00	8	Radiación solar	737
100529	7	Sololá	702	San José Chacayá	5	Chacayá	6	Junio	2023-08-06T00:00:00	2024-11-06T15:00:00	2	Temperatura media	20.4
100530	7	Sololá	702	San José Chacayá	5	Chacayá	6	Junio	2023-08-06T00:00:00	2024-11-06T15:00:00	4	Temperatura máxima	21.3
100531	7	Sololá	702	San José Chacayá	5	Chacayá	6	Junio	2023-08-06T00:00:00	2024-11-06T15:00:00	3	Temperatura mínima	19.8
100532	7	Sololá	702	San José Chacayá	5	Chacayá	6	Junio	2023-08-06T00:00:00	2024-11-06T15:00:00	5	Humedad	77
100533	7	Sololá	702	San José Chacayá	5	Chacayá	6	Junio	2023-08-06T00:00:00	2024-11-06T15:00:00	6	Velocidad del viento	4.8
100534	7	Sololá	702	San José Chacayá	5	Chacayá	6	Junio	2023-08-06T00:00:00	2024-11-06T15:00:00	7	Dirección del viento	4.83
100535	7	Sololá	702	San José Chacayá	5	Chacayá	6	Junio	2023-08-06T00:00:00	2024-11-06T15:00:00	1	Precipitación	0
100536	7	Sololá	702	San José Chacayá	5	Chacayá	6	Junio	2023-08-06T00:00:00	2024-11-06T15:00:00	8	Radiación solar	715
100537	7	Sololá	702	San José Chacayá	5	Chacayá	6	Junio	2023-08-06T00:00:00	2024-11-06T16:00:00	2	Temperatura media	19.6
100538	7	Sololá	702	San José Chacayá	5	Chacayá	6	Junio	2023-08-06T00:00:00	2024-11-06T16:00:00	4	Temperatura máxima	20.7
100539	7	Sololá	702	San José Chacayá	5	Chacayá	6	Junio	2023-08-06T00:00:00	2024-11-06T16:00:00	3	Temperatura mínima	19.6
100540	7	Sololá	702	San José Chacayá	5	Chacayá	6	Junio	2023-08-06T00:00:00	2024-11-06T16:00:00	5	Humedad	82
100541	7	Sololá	702	San José Chacayá	5	Chacayá	6	Junio	2023-08-06T00:00:00	2024-11-06T16:00:00	6	Velocidad del viento	3.2
100542	7	Sololá	702	San José Chacayá	5	Chacayá	6	Junio	2023-08-06T00:00:00	2024-11-06T16:00:00	7	Dirección del viento	3.22
100543	7	Sololá	702	San José Chacayá	5	Chacayá	6	Junio	2023-08-06T00:00:00	2024-11-06T16:00:00	1	Precipitación	0
100544	7	Sololá	702	San José Chacayá	5	Chacayá	6	Junio	2023-08-06T00:00:00	2024-11-06T16:00:00	8	Radiación solar	458
100545	7	Sololá	702	San José Chacayá	5	Chacayá	6	Junio	2023-08-06T00:00:00	2024-11-06T17:00:00	2	Temperatura media	19.2
100546	7	Sololá	702	San José Chacayá	5	Chacayá	6	Junio	2023-08-06T00:00:00	2024-11-06T17:00:00	4	Temperatura máxima	19.9
100547	7	Sololá	702	San José Chacayá	5	Chacayá	6	Junio	2023-08-06T00:00:00	2024-11-06T17:00:00	3	Temperatura mínima	19.2
100548	7	Sololá	702	San José Chacayá	5	Chacayá	6	Junio	2023-08-06T00:00:00	2024-11-06T17:00:00	5	Humedad	84
100549	7	Sololá	702	San José Chacayá	5	Chacayá	6	Junio	2023-08-06T00:00:00	2024-11-06T17:00:00	6	Velocidad del viento	3.2
100550	7	Sololá	702	San José Chacayá	5	Chacayá	6	Junio	2023-08-06T00:00:00	2024-11-06T17:00:00	7	Dirección del viento	3.22
100551	7	Sololá	702	San José Chacayá	5	Chacayá	6	Junio	2023-08-06T00:00:00	2024-11-06T17:00:00	1	Precipitación	0
100552	7	Sololá	702	San José Chacayá	5	Chacayá	6	Junio	2023-08-06T00:00:00	2024-11-06T17:00:00	8	Radiación solar	127
100553	7	Sololá	702	San José Chacayá	5	Chacayá	6	Junio	2023-08-06T00:00:00	2024-11-06T18:00:00	2	Temperatura media	17.7
100554	7	Sololá	702	San José Chacayá	5	Chacayá	6	Junio	2023-08-06T00:00:00	2024-11-06T18:00:00	4	Temperatura máxima	19.1
100555	7	Sololá	702	San José Chacayá	5	Chacayá	6	Junio	2023-08-06T00:00:00	2024-11-06T18:00:00	3	Temperatura mínima	17.7
100556	7	Sololá	702	San José Chacayá	5	Chacayá	6	Junio	2023-08-06T00:00:00	2024-11-06T18:00:00	5	Humedad	88
100557	7	Sololá	702	San José Chacayá	5	Chacayá	6	Junio	2023-08-06T00:00:00	2024-11-06T18:00:00	6	Velocidad del viento	3.2
100558	7	Sololá	702	San José Chacayá	5	Chacayá	6	Junio	2023-08-06T00:00:00	2024-11-06T18:00:00	7	Dirección del viento	3.22
100559	7	Sololá	702	San José Chacayá	5	Chacayá	6	Junio	2023-08-06T00:00:00	2024-11-06T18:00:00	1	Precipitación	0
100560	7	Sololá	702	San José Chacayá	5	Chacayá	6	Junio	2023-08-06T00:00:00	2024-11-06T18:00:00	8	Radiación solar	48
100561	7	Sololá	702	San José Chacayá	5	Chacayá	6	Junio	2023-08-06T00:00:00	2024-11-06T19:00:00	2	Temperatura media	16.8
100562	7	Sololá	702	San José Chacayá	5	Chacayá	6	Junio	2023-08-06T00:00:00	2024-11-06T19:00:00	4	Temperatura máxima	17.7
100563	7	Sololá	702	San José Chacayá	5	Chacayá	6	Junio	2023-08-06T00:00:00	2024-11-06T19:00:00	3	Temperatura mínima	16.8
100564	7	Sololá	702	San José Chacayá	5	Chacayá	6	Junio	2023-08-06T00:00:00	2024-11-06T19:00:00	5	Humedad	92
100565	7	Sololá	702	San José Chacayá	5	Chacayá	6	Junio	2023-08-06T00:00:00	2024-11-06T19:00:00	6	Velocidad del viento	1.6
100566	7	Sololá	702	San José Chacayá	5	Chacayá	6	Junio	2023-08-06T00:00:00	2024-11-06T19:00:00	7	Dirección del viento	1.61
100567	7	Sololá	702	San José Chacayá	5	Chacayá	6	Junio	2023-08-06T00:00:00	2024-11-06T19:00:00	1	Precipitación	0
100568	7	Sololá	702	San José Chacayá	5	Chacayá	6	Junio	2023-08-06T00:00:00	2024-11-06T19:00:00	8	Radiación solar	0
100569	7	Sololá	702	San José Chacayá	5	Chacayá	6	Junio	2023-08-06T00:00:00	2024-11-06T20:00:00	2	Temperatura media	16.7
100570	7	Sololá	702	San José Chacayá	5	Chacayá	6	Junio	2023-08-06T00:00:00	2024-11-06T20:00:00	4	Temperatura máxima	16.9
100571	7	Sololá	702	San José Chacayá	5	Chacayá	6	Junio	2023-08-06T00:00:00	2024-11-06T20:00:00	3	Temperatura mínima	16.7
100572	7	Sololá	702	San José Chacayá	5	Chacayá	6	Junio	2023-08-06T00:00:00	2024-11-06T20:00:00	5	Humedad	93
100573	7	Sololá	702	San José Chacayá	5	Chacayá	6	Junio	2023-08-06T00:00:00	2024-11-06T20:00:00	6	Velocidad del viento	1.6
100574	7	Sololá	702	San José Chacayá	5	Chacayá	6	Junio	2023-08-06T00:00:00	2024-11-06T20:00:00	7	Dirección del viento	1.61
100575	7	Sololá	702	San José Chacayá	5	Chacayá	6	Junio	2023-08-06T00:00:00	2024-11-06T20:00:00	1	Precipitación	0
100576	7	Sololá	702	San José Chacayá	5	Chacayá	6	Junio	2023-08-06T00:00:00	2024-11-06T20:00:00	8	Radiación solar	0
100577	7	Sololá	702	San José Chacayá	5	Chacayá	6	Junio	2023-08-06T00:00:00	2024-11-06T21:00:00	2	Temperatura media	16
100578	7	Sololá	702	San José Chacayá	5	Chacayá	6	Junio	2023-08-06T00:00:00	2024-11-06T21:00:00	4	Temperatura máxima	16.7
100579	7	Sololá	702	San José Chacayá	5	Chacayá	6	Junio	2023-08-06T00:00:00	2024-11-06T21:00:00	3	Temperatura mínima	16
100580	7	Sololá	702	San José Chacayá	5	Chacayá	6	Junio	2023-08-06T00:00:00	2024-11-06T21:00:00	5	Humedad	93
100581	7	Sololá	702	San José Chacayá	5	Chacayá	6	Junio	2023-08-06T00:00:00	2024-11-06T21:00:00	6	Velocidad del viento	0
100582	7	Sololá	702	San José Chacayá	5	Chacayá	6	Junio	2023-08-06T00:00:00	2024-11-06T21:00:00	7	Dirección del viento	0
100583	7	Sololá	702	San José Chacayá	5	Chacayá	6	Junio	2023-08-06T00:00:00	2024-11-06T21:00:00	1	Precipitación	0
100584	7	Sololá	702	San José Chacayá	5	Chacayá	6	Junio	2023-08-06T00:00:00	2024-11-06T21:00:00	8	Radiación solar	0
100585	7	Sololá	702	San José Chacayá	5	Chacayá	6	Junio	2023-08-06T00:00:00	2024-11-06T22:00:00	2	Temperatura media	15.7
100586	7	Sololá	702	San José Chacayá	5	Chacayá	6	Junio	2023-08-06T00:00:00	2024-11-06T22:00:00	4	Temperatura máxima	16
100587	7	Sololá	702	San José Chacayá	5	Chacayá	6	Junio	2023-08-06T00:00:00	2024-11-06T22:00:00	3	Temperatura mínima	15.7
100588	7	Sololá	702	San José Chacayá	5	Chacayá	6	Junio	2023-08-06T00:00:00	2024-11-06T22:00:00	5	Humedad	94
100589	7	Sololá	702	San José Chacayá	5	Chacayá	6	Junio	2023-08-06T00:00:00	2024-11-06T22:00:00	6	Velocidad del viento	0
100590	7	Sololá	702	San José Chacayá	5	Chacayá	6	Junio	2023-08-06T00:00:00	2024-11-06T22:00:00	7	Dirección del viento	0
100591	7	Sololá	702	San José Chacayá	5	Chacayá	6	Junio	2023-08-06T00:00:00	2024-11-06T22:00:00	1	Precipitación	0
100592	7	Sololá	702	San José Chacayá	5	Chacayá	6	Junio	2023-08-06T00:00:00	2024-11-06T22:00:00	8	Radiación solar	0
100593	7	Sololá	702	San José Chacayá	5	Chacayá	6	Junio	2023-08-06T00:00:00	2024-11-06T23:00:00	2	Temperatura media	15.1
100594	7	Sololá	702	San José Chacayá	5	Chacayá	6	Junio	2023-08-06T00:00:00	2024-11-06T23:00:00	4	Temperatura máxima	15.7
100595	7	Sololá	702	San José Chacayá	5	Chacayá	6	Junio	2023-08-06T00:00:00	2024-11-06T23:00:00	3	Temperatura mínima	15.1
100596	7	Sololá	702	San José Chacayá	5	Chacayá	6	Junio	2023-08-06T00:00:00	2024-11-06T23:00:00	5	Humedad	93
100597	7	Sololá	702	San José Chacayá	5	Chacayá	6	Junio	2023-08-06T00:00:00	2024-11-06T23:00:00	6	Velocidad del viento	0
100598	7	Sololá	702	San José Chacayá	5	Chacayá	6	Junio	2023-08-06T00:00:00	2024-11-06T23:00:00	7	Dirección del viento	0
100599	7	Sololá	702	San José Chacayá	5	Chacayá	6	Junio	2023-08-06T00:00:00	2024-11-06T23:00:00	1	Precipitación	0
100600	7	Sololá	702	San José Chacayá	5	Chacayá	6	Junio	2023-08-06T00:00:00	2024-11-06T23:00:00	8	Radiación solar	0
100601	7	Sololá	702	San José Chacayá	5	Chacayá	6	Junio	2023-09-06T00:00:00	2024-11-06T00:00:00	2	Temperatura media	14.3
100602	7	Sololá	702	San José Chacayá	5	Chacayá	6	Junio	2023-09-06T00:00:00	2024-11-06T00:00:00	4	Temperatura máxima	15.1
100603	7	Sololá	702	San José Chacayá	5	Chacayá	6	Junio	2023-09-06T00:00:00	2024-11-06T00:00:00	3	Temperatura mínima	14.3
100604	7	Sololá	702	San José Chacayá	5	Chacayá	6	Junio	2023-09-06T00:00:00	2024-11-06T00:00:00	5	Humedad	93
100605	7	Sololá	702	San José Chacayá	5	Chacayá	6	Junio	2023-09-06T00:00:00	2024-11-06T00:00:00	6	Velocidad del viento	0
100606	7	Sololá	702	San José Chacayá	5	Chacayá	6	Junio	2023-09-06T00:00:00	2024-11-06T00:00:00	7	Dirección del viento	0
100607	7	Sololá	702	San José Chacayá	5	Chacayá	6	Junio	2023-09-06T00:00:00	2024-11-06T00:00:00	1	Precipitación	0
100608	7	Sololá	702	San José Chacayá	5	Chacayá	6	Junio	2023-09-06T00:00:00	2024-11-06T00:00:00	8	Radiación solar	0
100609	7	Sololá	702	San José Chacayá	5	Chacayá	6	Junio	2023-09-06T00:00:00	2024-11-06T01:00:00	2	Temperatura media	13.8
100610	7	Sololá	702	San José Chacayá	5	Chacayá	6	Junio	2023-09-06T00:00:00	2024-11-06T01:00:00	4	Temperatura máxima	14.3
100611	7	Sololá	702	San José Chacayá	5	Chacayá	6	Junio	2023-09-06T00:00:00	2024-11-06T01:00:00	3	Temperatura mínima	13.8
100612	7	Sololá	702	San José Chacayá	5	Chacayá	6	Junio	2023-09-06T00:00:00	2024-11-06T01:00:00	5	Humedad	92
100613	7	Sololá	702	San José Chacayá	5	Chacayá	6	Junio	2023-09-06T00:00:00	2024-11-06T01:00:00	6	Velocidad del viento	0
100614	7	Sololá	702	San José Chacayá	5	Chacayá	6	Junio	2023-09-06T00:00:00	2024-11-06T01:00:00	7	Dirección del viento	0
100615	7	Sololá	702	San José Chacayá	5	Chacayá	6	Junio	2023-09-06T00:00:00	2024-11-06T01:00:00	1	Precipitación	0
100616	7	Sololá	702	San José Chacayá	5	Chacayá	6	Junio	2023-09-06T00:00:00	2024-11-06T01:00:00	8	Radiación solar	0
100617	7	Sololá	702	San José Chacayá	5	Chacayá	6	Junio	2023-09-06T00:00:00	2024-11-06T02:00:00	2	Temperatura media	13.4
100618	7	Sololá	702	San José Chacayá	5	Chacayá	6	Junio	2023-09-06T00:00:00	2024-11-06T02:00:00	4	Temperatura máxima	13.8
100619	7	Sololá	702	San José Chacayá	5	Chacayá	6	Junio	2023-09-06T00:00:00	2024-11-06T02:00:00	3	Temperatura mínima	13.4
100620	7	Sololá	702	San José Chacayá	5	Chacayá	6	Junio	2023-09-06T00:00:00	2024-11-06T02:00:00	5	Humedad	92
100621	7	Sololá	702	San José Chacayá	5	Chacayá	6	Junio	2023-09-06T00:00:00	2024-11-06T02:00:00	6	Velocidad del viento	0
100622	7	Sololá	702	San José Chacayá	5	Chacayá	6	Junio	2023-09-06T00:00:00	2024-11-06T02:00:00	7	Dirección del viento	0
100623	7	Sololá	702	San José Chacayá	5	Chacayá	6	Junio	2023-09-06T00:00:00	2024-11-06T02:00:00	1	Precipitación	0
100624	7	Sololá	702	San José Chacayá	5	Chacayá	6	Junio	2023-09-06T00:00:00	2024-11-06T02:00:00	8	Radiación solar	0
100625	7	Sololá	702	San José Chacayá	5	Chacayá	6	Junio	2023-09-06T00:00:00	2024-11-06T03:00:00	2	Temperatura media	12.6
100626	7	Sololá	702	San José Chacayá	5	Chacayá	6	Junio	2023-09-06T00:00:00	2024-11-06T03:00:00	4	Temperatura máxima	13.5
100627	7	Sololá	702	San José Chacayá	5	Chacayá	6	Junio	2023-09-06T00:00:00	2024-11-06T03:00:00	3	Temperatura mínima	12.6
100628	7	Sololá	702	San José Chacayá	5	Chacayá	6	Junio	2023-09-06T00:00:00	2024-11-06T03:00:00	5	Humedad	92
100629	7	Sololá	702	San José Chacayá	5	Chacayá	6	Junio	2023-09-06T00:00:00	2024-11-06T03:00:00	6	Velocidad del viento	0
100630	7	Sololá	702	San José Chacayá	5	Chacayá	6	Junio	2023-09-06T00:00:00	2024-11-06T03:00:00	7	Dirección del viento	0
100631	7	Sololá	702	San José Chacayá	5	Chacayá	6	Junio	2023-09-06T00:00:00	2024-11-06T03:00:00	1	Precipitación	0
100632	7	Sololá	702	San José Chacayá	5	Chacayá	6	Junio	2023-09-06T00:00:00	2024-11-06T03:00:00	8	Radiación solar	0
100633	7	Sololá	702	San José Chacayá	5	Chacayá	6	Junio	2023-09-06T00:00:00	2024-11-06T04:00:00	2	Temperatura media	11.8
100634	7	Sololá	702	San José Chacayá	5	Chacayá	6	Junio	2023-09-06T00:00:00	2024-11-06T04:00:00	4	Temperatura máxima	12.6
100635	7	Sololá	702	San José Chacayá	5	Chacayá	6	Junio	2023-09-06T00:00:00	2024-11-06T04:00:00	3	Temperatura mínima	11.8
100636	7	Sololá	702	San José Chacayá	5	Chacayá	6	Junio	2023-09-06T00:00:00	2024-11-06T04:00:00	5	Humedad	91
100637	7	Sololá	702	San José Chacayá	5	Chacayá	6	Junio	2023-09-06T00:00:00	2024-11-06T04:00:00	6	Velocidad del viento	0
100638	7	Sololá	702	San José Chacayá	5	Chacayá	6	Junio	2023-09-06T00:00:00	2024-11-06T04:00:00	7	Dirección del viento	0
100639	7	Sololá	702	San José Chacayá	5	Chacayá	6	Junio	2023-09-06T00:00:00	2024-11-06T04:00:00	1	Precipitación	0
100640	7	Sololá	702	San José Chacayá	5	Chacayá	6	Junio	2023-09-06T00:00:00	2024-11-06T04:00:00	8	Radiación solar	0
100641	7	Sololá	702	San José Chacayá	5	Chacayá	6	Junio	2023-09-06T00:00:00	2024-11-06T05:00:00	2	Temperatura media	11.4
100642	7	Sololá	702	San José Chacayá	5	Chacayá	6	Junio	2023-09-06T00:00:00	2024-11-06T05:00:00	4	Temperatura máxima	11.8
100643	7	Sololá	702	San José Chacayá	5	Chacayá	6	Junio	2023-09-06T00:00:00	2024-11-06T05:00:00	3	Temperatura mínima	11.4
100644	7	Sololá	702	San José Chacayá	5	Chacayá	6	Junio	2023-09-06T00:00:00	2024-11-06T05:00:00	5	Humedad	91
100645	7	Sololá	702	San José Chacayá	5	Chacayá	6	Junio	2023-09-06T00:00:00	2024-11-06T05:00:00	6	Velocidad del viento	1.6
100646	7	Sololá	702	San José Chacayá	5	Chacayá	6	Junio	2023-09-06T00:00:00	2024-11-06T05:00:00	7	Dirección del viento	1.61
100647	7	Sololá	702	San José Chacayá	5	Chacayá	6	Junio	2023-09-06T00:00:00	2024-11-06T05:00:00	1	Precipitación	0
100648	7	Sololá	702	San José Chacayá	5	Chacayá	6	Junio	2023-09-06T00:00:00	2024-11-06T05:00:00	8	Radiación solar	0
100649	7	Sololá	702	San José Chacayá	5	Chacayá	6	Junio	2023-09-06T00:00:00	2024-11-06T06:00:00	2	Temperatura media	11.1
100650	7	Sololá	702	San José Chacayá	5	Chacayá	6	Junio	2023-09-06T00:00:00	2024-11-06T06:00:00	4	Temperatura máxima	11.4
100651	7	Sololá	702	San José Chacayá	5	Chacayá	6	Junio	2023-09-06T00:00:00	2024-11-06T06:00:00	3	Temperatura mínima	10.9
100652	7	Sololá	702	San José Chacayá	5	Chacayá	6	Junio	2023-09-06T00:00:00	2024-11-06T06:00:00	5	Humedad	91
100653	7	Sololá	702	San José Chacayá	5	Chacayá	6	Junio	2023-09-06T00:00:00	2024-11-06T06:00:00	6	Velocidad del viento	0
100654	7	Sololá	702	San José Chacayá	5	Chacayá	6	Junio	2023-09-06T00:00:00	2024-11-06T06:00:00	7	Dirección del viento	0
100655	7	Sololá	702	San José Chacayá	5	Chacayá	6	Junio	2023-09-06T00:00:00	2024-11-06T06:00:00	1	Precipitación	0
100656	7	Sololá	702	San José Chacayá	5	Chacayá	6	Junio	2023-09-06T00:00:00	2024-11-06T06:00:00	8	Radiación solar	9
100657	7	Sololá	702	San José Chacayá	5	Chacayá	6	Junio	2023-09-06T00:00:00	2024-11-06T07:00:00	2	Temperatura media	13.5
100658	7	Sololá	702	San José Chacayá	5	Chacayá	6	Junio	2023-09-06T00:00:00	2024-11-06T07:00:00	4	Temperatura máxima	13.5
100659	7	Sololá	702	San José Chacayá	5	Chacayá	6	Junio	2023-09-06T00:00:00	2024-11-06T07:00:00	3	Temperatura mínima	11.1
100660	7	Sololá	702	San José Chacayá	5	Chacayá	6	Junio	2023-09-06T00:00:00	2024-11-06T07:00:00	5	Humedad	89
100661	7	Sololá	702	San José Chacayá	5	Chacayá	6	Junio	2023-09-06T00:00:00	2024-11-06T07:00:00	6	Velocidad del viento	0
100662	7	Sololá	702	San José Chacayá	5	Chacayá	6	Junio	2023-09-06T00:00:00	2024-11-06T07:00:00	7	Dirección del viento	0
100663	7	Sololá	702	San José Chacayá	5	Chacayá	6	Junio	2023-09-06T00:00:00	2024-11-06T07:00:00	1	Precipitación	0
100664	7	Sololá	702	San José Chacayá	5	Chacayá	6	Junio	2023-09-06T00:00:00	2024-11-06T07:00:00	8	Radiación solar	57
100665	7	Sololá	702	San José Chacayá	5	Chacayá	6	Junio	2023-09-06T00:00:00	2024-11-06T08:00:00	2	Temperatura media	18.7
100666	7	Sololá	702	San José Chacayá	5	Chacayá	6	Junio	2023-09-06T00:00:00	2024-11-06T08:00:00	4	Temperatura máxima	18.7
100667	7	Sololá	702	San José Chacayá	5	Chacayá	6	Junio	2023-09-06T00:00:00	2024-11-06T08:00:00	3	Temperatura mínima	13.5
100668	7	Sololá	702	San José Chacayá	5	Chacayá	6	Junio	2023-09-06T00:00:00	2024-11-06T08:00:00	5	Humedad	66
100669	7	Sololá	702	San José Chacayá	5	Chacayá	6	Junio	2023-09-06T00:00:00	2024-11-06T08:00:00	6	Velocidad del viento	0
100670	7	Sololá	702	San José Chacayá	5	Chacayá	6	Junio	2023-09-06T00:00:00	2024-11-06T08:00:00	7	Dirección del viento	0
100671	7	Sololá	702	San José Chacayá	5	Chacayá	6	Junio	2023-09-06T00:00:00	2024-11-06T08:00:00	1	Precipitación	0
100672	7	Sololá	702	San José Chacayá	5	Chacayá	6	Junio	2023-09-06T00:00:00	2024-11-06T08:00:00	8	Radiación solar	175
100673	7	Sololá	702	San José Chacayá	5	Chacayá	6	Junio	2023-09-06T00:00:00	2024-11-06T09:00:00	2	Temperatura media	21.3
100674	7	Sololá	702	San José Chacayá	5	Chacayá	6	Junio	2023-09-06T00:00:00	2024-11-06T09:00:00	4	Temperatura máxima	21.5
100675	7	Sololá	702	San José Chacayá	5	Chacayá	6	Junio	2023-09-06T00:00:00	2024-11-06T09:00:00	3	Temperatura mínima	18.7
100676	7	Sololá	702	San José Chacayá	5	Chacayá	6	Junio	2023-09-06T00:00:00	2024-11-06T09:00:00	5	Humedad	71
100677	7	Sololá	702	San José Chacayá	5	Chacayá	6	Junio	2023-09-06T00:00:00	2024-11-06T09:00:00	6	Velocidad del viento	1.6
100678	7	Sololá	702	San José Chacayá	5	Chacayá	6	Junio	2023-09-06T00:00:00	2024-11-06T09:00:00	7	Dirección del viento	1.61
100679	7	Sololá	702	San José Chacayá	5	Chacayá	6	Junio	2023-09-06T00:00:00	2024-11-06T09:00:00	1	Precipitación	0
100680	7	Sololá	702	San José Chacayá	5	Chacayá	6	Junio	2023-09-06T00:00:00	2024-11-06T09:00:00	8	Radiación solar	582
100681	7	Sololá	702	San José Chacayá	5	Chacayá	6	Junio	2023-09-06T00:00:00	2024-11-06T10:00:00	2	Temperatura media	22.8
100682	7	Sololá	702	San José Chacayá	5	Chacayá	6	Junio	2023-09-06T00:00:00	2024-11-06T10:00:00	4	Temperatura máxima	22.8
100683	7	Sololá	702	San José Chacayá	5	Chacayá	6	Junio	2023-09-06T00:00:00	2024-11-06T10:00:00	3	Temperatura mínima	21.2
100684	7	Sololá	702	San José Chacayá	5	Chacayá	6	Junio	2023-09-06T00:00:00	2024-11-06T10:00:00	5	Humedad	67
100685	7	Sololá	702	San José Chacayá	5	Chacayá	6	Junio	2023-09-06T00:00:00	2024-11-06T10:00:00	6	Velocidad del viento	3.2
100686	7	Sololá	702	San José Chacayá	5	Chacayá	6	Junio	2023-09-06T00:00:00	2024-11-06T10:00:00	7	Dirección del viento	3.22
100687	7	Sololá	702	San José Chacayá	5	Chacayá	6	Junio	2023-09-06T00:00:00	2024-11-06T10:00:00	1	Precipitación	0
100688	7	Sololá	702	San José Chacayá	5	Chacayá	6	Junio	2023-09-06T00:00:00	2024-11-06T10:00:00	8	Radiación solar	745
100689	7	Sololá	702	San José Chacayá	5	Chacayá	6	Junio	2023-09-06T00:00:00	2024-11-06T11:00:00	2	Temperatura media	23.3
100690	7	Sololá	702	San José Chacayá	5	Chacayá	6	Junio	2023-09-06T00:00:00	2024-11-06T11:00:00	4	Temperatura máxima	23.6
100691	7	Sololá	702	San José Chacayá	5	Chacayá	6	Junio	2023-09-06T00:00:00	2024-11-06T11:00:00	3	Temperatura mínima	22.8
100692	7	Sololá	702	San José Chacayá	5	Chacayá	6	Junio	2023-09-06T00:00:00	2024-11-06T11:00:00	5	Humedad	68
100693	7	Sololá	702	San José Chacayá	5	Chacayá	6	Junio	2023-09-06T00:00:00	2024-11-06T11:00:00	6	Velocidad del viento	4.8
100694	7	Sololá	702	San José Chacayá	5	Chacayá	6	Junio	2023-09-06T00:00:00	2024-11-06T11:00:00	7	Dirección del viento	4.83
100695	7	Sololá	702	San José Chacayá	5	Chacayá	6	Junio	2023-09-06T00:00:00	2024-11-06T11:00:00	1	Precipitación	0
100696	7	Sololá	702	San José Chacayá	5	Chacayá	6	Junio	2023-09-06T00:00:00	2024-11-06T11:00:00	8	Radiación solar	821
100697	7	Sololá	702	San José Chacayá	5	Chacayá	6	Junio	2023-09-06T00:00:00	2024-11-06T12:00:00	2	Temperatura media	23.9
100698	7	Sololá	702	San José Chacayá	5	Chacayá	6	Junio	2023-09-06T00:00:00	2024-11-06T12:00:00	4	Temperatura máxima	24
100699	7	Sololá	702	San José Chacayá	5	Chacayá	6	Junio	2023-09-06T00:00:00	2024-11-06T12:00:00	3	Temperatura mínima	23.2
100700	7	Sololá	702	San José Chacayá	5	Chacayá	6	Junio	2023-09-06T00:00:00	2024-11-06T12:00:00	5	Humedad	70
100701	7	Sololá	702	San José Chacayá	5	Chacayá	6	Junio	2023-09-06T00:00:00	2024-11-06T12:00:00	6	Velocidad del viento	3.2
100702	7	Sololá	702	San José Chacayá	5	Chacayá	6	Junio	2023-09-06T00:00:00	2024-11-06T12:00:00	7	Dirección del viento	3.22
100703	7	Sololá	702	San José Chacayá	5	Chacayá	6	Junio	2023-09-06T00:00:00	2024-11-06T12:00:00	1	Precipitación	0
100704	7	Sololá	702	San José Chacayá	5	Chacayá	6	Junio	2023-09-06T00:00:00	2024-11-06T12:00:00	8	Radiación solar	468
100705	7	Sololá	702	San José Chacayá	5	Chacayá	6	Junio	2023-09-06T00:00:00	2024-11-06T13:00:00	2	Temperatura media	22.9
100706	7	Sololá	702	San José Chacayá	5	Chacayá	6	Junio	2023-09-06T00:00:00	2024-11-06T13:00:00	4	Temperatura máxima	23.9
100707	7	Sololá	702	San José Chacayá	5	Chacayá	6	Junio	2023-09-06T00:00:00	2024-11-06T13:00:00	3	Temperatura mínima	22.6
100708	7	Sololá	702	San José Chacayá	5	Chacayá	6	Junio	2023-09-06T00:00:00	2024-11-06T13:00:00	5	Humedad	72
100709	7	Sololá	702	San José Chacayá	5	Chacayá	6	Junio	2023-09-06T00:00:00	2024-11-06T13:00:00	6	Velocidad del viento	4.8
100710	7	Sololá	702	San José Chacayá	5	Chacayá	6	Junio	2023-09-06T00:00:00	2024-11-06T13:00:00	7	Dirección del viento	4.83
100711	7	Sololá	702	San José Chacayá	5	Chacayá	6	Junio	2023-09-06T00:00:00	2024-11-06T13:00:00	1	Precipitación	0
100712	7	Sololá	702	San José Chacayá	5	Chacayá	6	Junio	2023-09-06T00:00:00	2024-11-06T13:00:00	8	Radiación solar	353
100713	7	Sololá	702	San José Chacayá	5	Chacayá	6	Junio	2023-09-06T00:00:00	2024-11-06T14:00:00	2	Temperatura media	21.9
100714	7	Sololá	702	San José Chacayá	5	Chacayá	6	Junio	2023-09-06T00:00:00	2024-11-06T14:00:00	4	Temperatura máxima	22.9
100715	7	Sololá	702	San José Chacayá	5	Chacayá	6	Junio	2023-09-06T00:00:00	2024-11-06T14:00:00	3	Temperatura mínima	21.4
100716	7	Sololá	702	San José Chacayá	5	Chacayá	6	Junio	2023-09-06T00:00:00	2024-11-06T14:00:00	5	Humedad	77
100717	7	Sololá	702	San José Chacayá	5	Chacayá	6	Junio	2023-09-06T00:00:00	2024-11-06T14:00:00	6	Velocidad del viento	4.8
100718	7	Sololá	702	San José Chacayá	5	Chacayá	6	Junio	2023-09-06T00:00:00	2024-11-06T14:00:00	7	Dirección del viento	4.83
100719	7	Sololá	702	San José Chacayá	5	Chacayá	6	Junio	2023-09-06T00:00:00	2024-11-06T14:00:00	1	Precipitación	0
100720	7	Sololá	702	San José Chacayá	5	Chacayá	6	Junio	2023-09-06T00:00:00	2024-11-06T14:00:00	8	Radiación solar	217
100721	7	Sololá	702	San José Chacayá	5	Chacayá	6	Junio	2023-09-06T00:00:00	2024-11-06T15:00:00	2	Temperatura media	21
100722	7	Sololá	702	San José Chacayá	5	Chacayá	6	Junio	2023-09-06T00:00:00	2024-11-06T15:00:00	4	Temperatura máxima	21.9
100723	7	Sololá	702	San José Chacayá	5	Chacayá	6	Junio	2023-09-06T00:00:00	2024-11-06T15:00:00	3	Temperatura mínima	20.9
100724	7	Sololá	702	San José Chacayá	5	Chacayá	6	Junio	2023-09-06T00:00:00	2024-11-06T15:00:00	5	Humedad	79
100725	7	Sololá	702	San José Chacayá	5	Chacayá	6	Junio	2023-09-06T00:00:00	2024-11-06T15:00:00	6	Velocidad del viento	4.8
100726	7	Sololá	702	San José Chacayá	5	Chacayá	6	Junio	2023-09-06T00:00:00	2024-11-06T15:00:00	7	Dirección del viento	4.83
100727	7	Sololá	702	San José Chacayá	5	Chacayá	6	Junio	2023-09-06T00:00:00	2024-11-06T15:00:00	1	Precipitación	0
100728	7	Sololá	702	San José Chacayá	5	Chacayá	6	Junio	2023-09-06T00:00:00	2024-11-06T15:00:00	8	Radiación solar	99
100729	7	Sololá	702	San José Chacayá	5	Chacayá	6	Junio	2023-09-06T00:00:00	2024-11-06T16:00:00	2	Temperatura media	21.2
100730	7	Sololá	702	San José Chacayá	5	Chacayá	6	Junio	2023-09-06T00:00:00	2024-11-06T16:00:00	4	Temperatura máxima	21.2
100731	7	Sololá	702	San José Chacayá	5	Chacayá	6	Junio	2023-09-06T00:00:00	2024-11-06T16:00:00	3	Temperatura mínima	20.2
100732	7	Sololá	702	San José Chacayá	5	Chacayá	6	Junio	2023-09-06T00:00:00	2024-11-06T16:00:00	5	Humedad	79
100733	7	Sololá	702	San José Chacayá	5	Chacayá	6	Junio	2023-09-06T00:00:00	2024-11-06T16:00:00	6	Velocidad del viento	4.8
100734	7	Sololá	702	San José Chacayá	5	Chacayá	6	Junio	2023-09-06T00:00:00	2024-11-06T16:00:00	7	Dirección del viento	4.83
100735	7	Sololá	702	San José Chacayá	5	Chacayá	6	Junio	2023-09-06T00:00:00	2024-11-06T16:00:00	1	Precipitación	0
100736	7	Sololá	702	San José Chacayá	5	Chacayá	6	Junio	2023-09-06T00:00:00	2024-11-06T16:00:00	8	Radiación solar	336
100737	7	Sololá	702	San José Chacayá	5	Chacayá	6	Junio	2023-09-06T00:00:00	2024-11-06T17:00:00	2	Temperatura media	19.6
100738	7	Sololá	702	San José Chacayá	5	Chacayá	6	Junio	2023-09-06T00:00:00	2024-11-06T17:00:00	4	Temperatura máxima	21.2
100739	7	Sololá	702	San José Chacayá	5	Chacayá	6	Junio	2023-09-06T00:00:00	2024-11-06T17:00:00	3	Temperatura mínima	19.6
100740	7	Sololá	702	San José Chacayá	5	Chacayá	6	Junio	2023-09-06T00:00:00	2024-11-06T17:00:00	5	Humedad	84
100741	7	Sololá	702	San José Chacayá	5	Chacayá	6	Junio	2023-09-06T00:00:00	2024-11-06T17:00:00	6	Velocidad del viento	3.2
100742	7	Sololá	702	San José Chacayá	5	Chacayá	6	Junio	2023-09-06T00:00:00	2024-11-06T17:00:00	7	Dirección del viento	3.22
100743	7	Sololá	702	San José Chacayá	5	Chacayá	6	Junio	2023-09-06T00:00:00	2024-11-06T17:00:00	1	Precipitación	0
100744	7	Sololá	702	San José Chacayá	5	Chacayá	6	Junio	2023-09-06T00:00:00	2024-11-06T17:00:00	8	Radiación solar	241
100745	7	Sololá	702	San José Chacayá	5	Chacayá	6	Junio	2023-09-06T00:00:00	2024-11-06T18:00:00	2	Temperatura media	18.4
100746	7	Sololá	702	San José Chacayá	5	Chacayá	6	Junio	2023-09-06T00:00:00	2024-11-06T18:00:00	4	Temperatura máxima	19.6
100747	7	Sololá	702	San José Chacayá	5	Chacayá	6	Junio	2023-09-06T00:00:00	2024-11-06T18:00:00	3	Temperatura mínima	18.3
100748	7	Sololá	702	San José Chacayá	5	Chacayá	6	Junio	2023-09-06T00:00:00	2024-11-06T18:00:00	5	Humedad	87
100749	7	Sololá	702	San José Chacayá	5	Chacayá	6	Junio	2023-09-06T00:00:00	2024-11-06T18:00:00	6	Velocidad del viento	1.6
100750	7	Sololá	702	San José Chacayá	5	Chacayá	6	Junio	2023-09-06T00:00:00	2024-11-06T18:00:00	7	Dirección del viento	1.61
100751	7	Sololá	702	San José Chacayá	5	Chacayá	6	Junio	2023-09-06T00:00:00	2024-11-06T18:00:00	1	Precipitación	0
100752	7	Sololá	702	San José Chacayá	5	Chacayá	6	Junio	2023-09-06T00:00:00	2024-11-06T18:00:00	8	Radiación solar	56
100753	7	Sololá	702	San José Chacayá	5	Chacayá	6	Junio	2023-09-06T00:00:00	2024-11-06T19:00:00	2	Temperatura media	17.6
100754	7	Sololá	702	San José Chacayá	5	Chacayá	6	Junio	2023-09-06T00:00:00	2024-11-06T19:00:00	4	Temperatura máxima	18.3
100755	7	Sololá	702	San José Chacayá	5	Chacayá	6	Junio	2023-09-06T00:00:00	2024-11-06T19:00:00	3	Temperatura mínima	17.5
100756	7	Sololá	702	San José Chacayá	5	Chacayá	6	Junio	2023-09-06T00:00:00	2024-11-06T19:00:00	5	Humedad	91
100757	7	Sololá	702	San José Chacayá	5	Chacayá	6	Junio	2023-09-06T00:00:00	2024-11-06T19:00:00	6	Velocidad del viento	0
100758	7	Sololá	702	San José Chacayá	5	Chacayá	6	Junio	2023-09-06T00:00:00	2024-11-06T19:00:00	7	Dirección del viento	0
100759	7	Sololá	702	San José Chacayá	5	Chacayá	6	Junio	2023-09-06T00:00:00	2024-11-06T19:00:00	1	Precipitación	0
100760	7	Sololá	702	San José Chacayá	5	Chacayá	6	Junio	2023-09-06T00:00:00	2024-11-06T19:00:00	8	Radiación solar	0
100761	7	Sololá	702	San José Chacayá	5	Chacayá	6	Junio	2023-09-06T00:00:00	2024-11-06T20:00:00	2	Temperatura media	17.1
100762	7	Sololá	702	San José Chacayá	5	Chacayá	6	Junio	2023-09-06T00:00:00	2024-11-06T20:00:00	4	Temperatura máxima	17.6
100763	7	Sololá	702	San José Chacayá	5	Chacayá	6	Junio	2023-09-06T00:00:00	2024-11-06T20:00:00	3	Temperatura mínima	17.1
100764	7	Sololá	702	San José Chacayá	5	Chacayá	6	Junio	2023-09-06T00:00:00	2024-11-06T20:00:00	5	Humedad	92
100765	7	Sololá	702	San José Chacayá	5	Chacayá	6	Junio	2023-09-06T00:00:00	2024-11-06T20:00:00	6	Velocidad del viento	0
100766	7	Sololá	702	San José Chacayá	5	Chacayá	6	Junio	2023-09-06T00:00:00	2024-11-06T20:00:00	7	Dirección del viento	0
100767	7	Sololá	702	San José Chacayá	5	Chacayá	6	Junio	2023-09-06T00:00:00	2024-11-06T20:00:00	1	Precipitación	0
100768	7	Sololá	702	San José Chacayá	5	Chacayá	6	Junio	2023-09-06T00:00:00	2024-11-06T20:00:00	8	Radiación solar	0
100769	7	Sololá	702	San José Chacayá	5	Chacayá	6	Junio	2023-09-06T00:00:00	2024-11-06T21:00:00	2	Temperatura media	16.2
100770	7	Sololá	702	San José Chacayá	5	Chacayá	6	Junio	2023-09-06T00:00:00	2024-11-06T21:00:00	4	Temperatura máxima	17.1
100771	7	Sololá	702	San José Chacayá	5	Chacayá	6	Junio	2023-09-06T00:00:00	2024-11-06T21:00:00	3	Temperatura mínima	16.2
100772	7	Sololá	702	San José Chacayá	5	Chacayá	6	Junio	2023-09-06T00:00:00	2024-11-06T21:00:00	5	Humedad	92
100773	7	Sololá	702	San José Chacayá	5	Chacayá	6	Junio	2023-09-06T00:00:00	2024-11-06T21:00:00	6	Velocidad del viento	0
100774	7	Sololá	702	San José Chacayá	5	Chacayá	6	Junio	2023-09-06T00:00:00	2024-11-06T21:00:00	7	Dirección del viento	0
100775	7	Sololá	702	San José Chacayá	5	Chacayá	6	Junio	2023-09-06T00:00:00	2024-11-06T21:00:00	1	Precipitación	0
100776	7	Sololá	702	San José Chacayá	5	Chacayá	6	Junio	2023-09-06T00:00:00	2024-11-06T21:00:00	8	Radiación solar	0
100777	7	Sololá	702	San José Chacayá	5	Chacayá	6	Junio	2023-09-06T00:00:00	2024-11-06T22:00:00	2	Temperatura media	16.3
100778	7	Sololá	702	San José Chacayá	5	Chacayá	6	Junio	2023-09-06T00:00:00	2024-11-06T22:00:00	4	Temperatura máxima	16.4
100779	7	Sololá	702	San José Chacayá	5	Chacayá	6	Junio	2023-09-06T00:00:00	2024-11-06T22:00:00	3	Temperatura mínima	16.1
100780	7	Sololá	702	San José Chacayá	5	Chacayá	6	Junio	2023-09-06T00:00:00	2024-11-06T22:00:00	5	Humedad	94
100781	7	Sololá	702	San José Chacayá	5	Chacayá	6	Junio	2023-09-06T00:00:00	2024-11-06T22:00:00	6	Velocidad del viento	0
100782	7	Sololá	702	San José Chacayá	5	Chacayá	6	Junio	2023-09-06T00:00:00	2024-11-06T22:00:00	7	Dirección del viento	0
100783	7	Sololá	702	San José Chacayá	5	Chacayá	6	Junio	2023-09-06T00:00:00	2024-11-06T22:00:00	1	Precipitación	0
100784	7	Sololá	702	San José Chacayá	5	Chacayá	6	Junio	2023-09-06T00:00:00	2024-11-06T22:00:00	8	Radiación solar	0
100785	7	Sololá	702	San José Chacayá	5	Chacayá	6	Junio	2023-09-06T00:00:00	2024-11-06T23:00:00	2	Temperatura media	16
100786	7	Sololá	702	San José Chacayá	5	Chacayá	6	Junio	2023-09-06T00:00:00	2024-11-06T23:00:00	4	Temperatura máxima	16.5
100787	7	Sololá	702	San José Chacayá	5	Chacayá	6	Junio	2023-09-06T00:00:00	2024-11-06T23:00:00	3	Temperatura mínima	16
100788	7	Sololá	702	San José Chacayá	5	Chacayá	6	Junio	2023-09-06T00:00:00	2024-11-06T23:00:00	5	Humedad	94
100789	7	Sololá	702	San José Chacayá	5	Chacayá	6	Junio	2023-09-06T00:00:00	2024-11-06T23:00:00	6	Velocidad del viento	0
100790	7	Sololá	702	San José Chacayá	5	Chacayá	6	Junio	2023-09-06T00:00:00	2024-11-06T23:00:00	7	Dirección del viento	0
100791	7	Sololá	702	San José Chacayá	5	Chacayá	6	Junio	2023-09-06T00:00:00	2024-11-06T23:00:00	1	Precipitación	0
100792	7	Sololá	702	San José Chacayá	5	Chacayá	6	Junio	2023-09-06T00:00:00	2024-11-06T23:00:00	8	Radiación solar	0
100793	7	Sololá	702	San José Chacayá	5	Chacayá	6	Junio	2023-10-06T00:00:00	2024-11-06T00:00:00	2	Temperatura media	15.1
100794	7	Sololá	702	San José Chacayá	5	Chacayá	6	Junio	2023-10-06T00:00:00	2024-11-06T00:00:00	4	Temperatura máxima	16
100795	7	Sololá	702	San José Chacayá	5	Chacayá	6	Junio	2023-10-06T00:00:00	2024-11-06T00:00:00	3	Temperatura mínima	15.1
100796	7	Sololá	702	San José Chacayá	5	Chacayá	6	Junio	2023-10-06T00:00:00	2024-11-06T00:00:00	5	Humedad	93
100797	7	Sololá	702	San José Chacayá	5	Chacayá	6	Junio	2023-10-06T00:00:00	2024-11-06T00:00:00	6	Velocidad del viento	0
100798	7	Sololá	702	San José Chacayá	5	Chacayá	6	Junio	2023-10-06T00:00:00	2024-11-06T00:00:00	7	Dirección del viento	0
100799	7	Sololá	702	San José Chacayá	5	Chacayá	6	Junio	2023-10-06T00:00:00	2024-11-06T00:00:00	1	Precipitación	0
100800	7	Sololá	702	San José Chacayá	5	Chacayá	6	Junio	2023-10-06T00:00:00	2024-11-06T00:00:00	8	Radiación solar	0
100801	7	Sololá	702	San José Chacayá	5	Chacayá	6	Junio	2023-10-06T00:00:00	2024-11-06T01:00:00	2	Temperatura media	14.1
100802	7	Sololá	702	San José Chacayá	5	Chacayá	6	Junio	2023-10-06T00:00:00	2024-11-06T01:00:00	4	Temperatura máxima	15.1
100803	7	Sololá	702	San José Chacayá	5	Chacayá	6	Junio	2023-10-06T00:00:00	2024-11-06T01:00:00	3	Temperatura mínima	14.1
100804	7	Sololá	702	San José Chacayá	5	Chacayá	6	Junio	2023-10-06T00:00:00	2024-11-06T01:00:00	5	Humedad	94
100805	7	Sololá	702	San José Chacayá	5	Chacayá	6	Junio	2023-10-06T00:00:00	2024-11-06T01:00:00	6	Velocidad del viento	0
100806	7	Sololá	702	San José Chacayá	5	Chacayá	6	Junio	2023-10-06T00:00:00	2024-11-06T01:00:00	7	Dirección del viento	0
100807	7	Sololá	702	San José Chacayá	5	Chacayá	6	Junio	2023-10-06T00:00:00	2024-11-06T01:00:00	1	Precipitación	0
100808	7	Sololá	702	San José Chacayá	5	Chacayá	6	Junio	2023-10-06T00:00:00	2024-11-06T01:00:00	8	Radiación solar	0
100809	7	Sololá	702	San José Chacayá	5	Chacayá	6	Junio	2023-10-06T00:00:00	2024-11-06T02:00:00	2	Temperatura media	13.4
100810	7	Sololá	702	San José Chacayá	5	Chacayá	6	Junio	2023-10-06T00:00:00	2024-11-06T02:00:00	4	Temperatura máxima	14.1
100811	7	Sololá	702	San José Chacayá	5	Chacayá	6	Junio	2023-10-06T00:00:00	2024-11-06T02:00:00	3	Temperatura mínima	13.4
100812	7	Sololá	702	San José Chacayá	5	Chacayá	6	Junio	2023-10-06T00:00:00	2024-11-06T02:00:00	5	Humedad	94
100813	7	Sololá	702	San José Chacayá	5	Chacayá	6	Junio	2023-10-06T00:00:00	2024-11-06T02:00:00	6	Velocidad del viento	0
100814	7	Sololá	702	San José Chacayá	5	Chacayá	6	Junio	2023-10-06T00:00:00	2024-11-06T02:00:00	7	Dirección del viento	0
100815	7	Sololá	702	San José Chacayá	5	Chacayá	6	Junio	2023-10-06T00:00:00	2024-11-06T02:00:00	1	Precipitación	0
100816	7	Sololá	702	San José Chacayá	5	Chacayá	6	Junio	2023-10-06T00:00:00	2024-11-06T02:00:00	8	Radiación solar	0
100817	7	Sololá	702	San José Chacayá	5	Chacayá	6	Junio	2023-10-06T00:00:00	2024-11-06T03:00:00	2	Temperatura media	12.8
100818	7	Sololá	702	San José Chacayá	5	Chacayá	6	Junio	2023-10-06T00:00:00	2024-11-06T03:00:00	4	Temperatura máxima	13.4
100819	7	Sololá	702	San José Chacayá	5	Chacayá	6	Junio	2023-10-06T00:00:00	2024-11-06T03:00:00	3	Temperatura mínima	12.8
100820	7	Sololá	702	San José Chacayá	5	Chacayá	6	Junio	2023-10-06T00:00:00	2024-11-06T03:00:00	5	Humedad	94
100821	7	Sololá	702	San José Chacayá	5	Chacayá	6	Junio	2023-10-06T00:00:00	2024-11-06T03:00:00	6	Velocidad del viento	0
100822	7	Sololá	702	San José Chacayá	5	Chacayá	6	Junio	2023-10-06T00:00:00	2024-11-06T03:00:00	7	Dirección del viento	0
100823	7	Sololá	702	San José Chacayá	5	Chacayá	6	Junio	2023-10-06T00:00:00	2024-11-06T03:00:00	1	Precipitación	0
100824	7	Sololá	702	San José Chacayá	5	Chacayá	6	Junio	2023-10-06T00:00:00	2024-11-06T03:00:00	8	Radiación solar	0
100825	7	Sololá	702	San José Chacayá	5	Chacayá	6	Junio	2023-10-06T00:00:00	2024-11-06T04:00:00	2	Temperatura media	12.3
100826	7	Sololá	702	San José Chacayá	5	Chacayá	6	Junio	2023-10-06T00:00:00	2024-11-06T04:00:00	4	Temperatura máxima	12.8
100827	7	Sololá	702	San José Chacayá	5	Chacayá	6	Junio	2023-10-06T00:00:00	2024-11-06T04:00:00	3	Temperatura mínima	12.3
100828	7	Sololá	702	San José Chacayá	5	Chacayá	6	Junio	2023-10-06T00:00:00	2024-11-06T04:00:00	5	Humedad	94
100829	7	Sololá	702	San José Chacayá	5	Chacayá	6	Junio	2023-10-06T00:00:00	2024-11-06T04:00:00	6	Velocidad del viento	0
100830	7	Sololá	702	San José Chacayá	5	Chacayá	6	Junio	2023-10-06T00:00:00	2024-11-06T04:00:00	7	Dirección del viento	0
100831	7	Sololá	702	San José Chacayá	5	Chacayá	6	Junio	2023-10-06T00:00:00	2024-11-06T04:00:00	1	Precipitación	0
100832	7	Sololá	702	San José Chacayá	5	Chacayá	6	Junio	2023-10-06T00:00:00	2024-11-06T04:00:00	8	Radiación solar	0
100833	7	Sololá	702	San José Chacayá	5	Chacayá	6	Junio	2023-10-06T00:00:00	2024-11-06T05:00:00	2	Temperatura media	11.8
100834	7	Sololá	702	San José Chacayá	5	Chacayá	6	Junio	2023-10-06T00:00:00	2024-11-06T05:00:00	4	Temperatura máxima	12.3
100835	7	Sololá	702	San José Chacayá	5	Chacayá	6	Junio	2023-10-06T00:00:00	2024-11-06T05:00:00	3	Temperatura mínima	11.8
100836	7	Sololá	702	San José Chacayá	5	Chacayá	6	Junio	2023-10-06T00:00:00	2024-11-06T05:00:00	5	Humedad	95
100837	7	Sololá	702	San José Chacayá	5	Chacayá	6	Junio	2023-10-06T00:00:00	2024-11-06T05:00:00	6	Velocidad del viento	1.6
100838	7	Sololá	702	San José Chacayá	5	Chacayá	6	Junio	2023-10-06T00:00:00	2024-11-06T05:00:00	7	Dirección del viento	1.61
100839	7	Sololá	702	San José Chacayá	5	Chacayá	6	Junio	2023-10-06T00:00:00	2024-11-06T05:00:00	1	Precipitación	0
100840	7	Sololá	702	San José Chacayá	5	Chacayá	6	Junio	2023-10-06T00:00:00	2024-11-06T05:00:00	8	Radiación solar	0
100841	7	Sololá	702	San José Chacayá	5	Chacayá	6	Junio	2023-10-06T00:00:00	2024-11-06T06:00:00	2	Temperatura media	11.6
100842	7	Sololá	702	San José Chacayá	5	Chacayá	6	Junio	2023-10-06T00:00:00	2024-11-06T06:00:00	4	Temperatura máxima	11.9
100843	7	Sololá	702	San José Chacayá	5	Chacayá	6	Junio	2023-10-06T00:00:00	2024-11-06T06:00:00	3	Temperatura mínima	11.5
100844	7	Sololá	702	San José Chacayá	5	Chacayá	6	Junio	2023-10-06T00:00:00	2024-11-06T06:00:00	5	Humedad	94
100845	7	Sololá	702	San José Chacayá	5	Chacayá	6	Junio	2023-10-06T00:00:00	2024-11-06T06:00:00	6	Velocidad del viento	0
100846	7	Sololá	702	San José Chacayá	5	Chacayá	6	Junio	2023-10-06T00:00:00	2024-11-06T06:00:00	7	Dirección del viento	0
100847	7	Sololá	702	San José Chacayá	5	Chacayá	6	Junio	2023-10-06T00:00:00	2024-11-06T06:00:00	1	Precipitación	0
100848	7	Sololá	702	San José Chacayá	5	Chacayá	6	Junio	2023-10-06T00:00:00	2024-11-06T06:00:00	8	Radiación solar	12
100849	7	Sololá	702	San José Chacayá	5	Chacayá	6	Junio	2023-10-06T00:00:00	2024-11-06T07:00:00	2	Temperatura media	13.4
100850	7	Sololá	702	San José Chacayá	5	Chacayá	6	Junio	2023-10-06T00:00:00	2024-11-06T07:00:00	4	Temperatura máxima	13.4
100851	7	Sololá	702	San José Chacayá	5	Chacayá	6	Junio	2023-10-06T00:00:00	2024-11-06T07:00:00	3	Temperatura mínima	11.5
100852	7	Sololá	702	San José Chacayá	5	Chacayá	6	Junio	2023-10-06T00:00:00	2024-11-06T07:00:00	5	Humedad	92
100853	7	Sololá	702	San José Chacayá	5	Chacayá	6	Junio	2023-10-06T00:00:00	2024-11-06T07:00:00	6	Velocidad del viento	0
100854	7	Sololá	702	San José Chacayá	5	Chacayá	6	Junio	2023-10-06T00:00:00	2024-11-06T07:00:00	7	Dirección del viento	0
100855	7	Sololá	702	San José Chacayá	5	Chacayá	6	Junio	2023-10-06T00:00:00	2024-11-06T07:00:00	1	Precipitación	0
100856	7	Sololá	702	San José Chacayá	5	Chacayá	6	Junio	2023-10-06T00:00:00	2024-11-06T07:00:00	8	Radiación solar	67
100857	7	Sololá	702	San José Chacayá	5	Chacayá	6	Junio	2023-10-06T00:00:00	2024-11-06T08:00:00	2	Temperatura media	17.5
100858	7	Sololá	702	San José Chacayá	5	Chacayá	6	Junio	2023-10-06T00:00:00	2024-11-06T08:00:00	4	Temperatura máxima	17.5
100859	7	Sololá	702	San José Chacayá	5	Chacayá	6	Junio	2023-10-06T00:00:00	2024-11-06T08:00:00	3	Temperatura mínima	13.4
100860	7	Sololá	702	San José Chacayá	5	Chacayá	6	Junio	2023-10-06T00:00:00	2024-11-06T08:00:00	5	Humedad	83
100861	7	Sololá	702	San José Chacayá	5	Chacayá	6	Junio	2023-10-06T00:00:00	2024-11-06T08:00:00	6	Velocidad del viento	0
100862	7	Sololá	702	San José Chacayá	5	Chacayá	6	Junio	2023-10-06T00:00:00	2024-11-06T08:00:00	7	Dirección del viento	0
100863	7	Sololá	702	San José Chacayá	5	Chacayá	6	Junio	2023-10-06T00:00:00	2024-11-06T08:00:00	1	Precipitación	0
100864	7	Sololá	702	San José Chacayá	5	Chacayá	6	Junio	2023-10-06T00:00:00	2024-11-06T08:00:00	8	Radiación solar	175
100865	7	Sololá	702	San José Chacayá	5	Chacayá	6	Junio	2023-10-06T00:00:00	2024-11-06T09:00:00	2	Temperatura media	21.8
100866	7	Sololá	702	San José Chacayá	5	Chacayá	6	Junio	2023-10-06T00:00:00	2024-11-06T09:00:00	4	Temperatura máxima	21.8
100867	7	Sololá	702	San José Chacayá	5	Chacayá	6	Junio	2023-10-06T00:00:00	2024-11-06T09:00:00	3	Temperatura mínima	17.6
100868	7	Sololá	702	San José Chacayá	5	Chacayá	6	Junio	2023-10-06T00:00:00	2024-11-06T09:00:00	5	Humedad	55
100869	7	Sololá	702	San José Chacayá	5	Chacayá	6	Junio	2023-10-06T00:00:00	2024-11-06T09:00:00	6	Velocidad del viento	1.6
100870	7	Sololá	702	San José Chacayá	5	Chacayá	6	Junio	2023-10-06T00:00:00	2024-11-06T09:00:00	7	Dirección del viento	1.61
100871	7	Sololá	702	San José Chacayá	5	Chacayá	6	Junio	2023-10-06T00:00:00	2024-11-06T09:00:00	1	Precipitación	0
100872	7	Sololá	702	San José Chacayá	5	Chacayá	6	Junio	2023-10-06T00:00:00	2024-11-06T09:00:00	8	Radiación solar	492
100873	7	Sololá	702	San José Chacayá	5	Chacayá	6	Junio	2023-10-06T00:00:00	2024-11-06T10:00:00	2	Temperatura media	22.6
100874	7	Sololá	702	San José Chacayá	5	Chacayá	6	Junio	2023-10-06T00:00:00	2024-11-06T10:00:00	4	Temperatura máxima	22.6
100875	7	Sololá	702	San José Chacayá	5	Chacayá	6	Junio	2023-10-06T00:00:00	2024-11-06T10:00:00	3	Temperatura mínima	21.5
100876	7	Sololá	702	San José Chacayá	5	Chacayá	6	Junio	2023-10-06T00:00:00	2024-11-06T10:00:00	5	Humedad	55
100877	7	Sololá	702	San José Chacayá	5	Chacayá	6	Junio	2023-10-06T00:00:00	2024-11-06T10:00:00	6	Velocidad del viento	3.2
100878	7	Sololá	702	San José Chacayá	5	Chacayá	6	Junio	2023-10-06T00:00:00	2024-11-06T10:00:00	7	Dirección del viento	3.22
100879	7	Sololá	702	San José Chacayá	5	Chacayá	6	Junio	2023-10-06T00:00:00	2024-11-06T10:00:00	1	Precipitación	0
100880	7	Sololá	702	San José Chacayá	5	Chacayá	6	Junio	2023-10-06T00:00:00	2024-11-06T10:00:00	8	Radiación solar	437
100881	7	Sololá	702	San José Chacayá	5	Chacayá	6	Junio	2023-10-06T00:00:00	2024-11-06T11:00:00	2	Temperatura media	21.7
100882	7	Sololá	702	San José Chacayá	5	Chacayá	6	Junio	2023-10-06T00:00:00	2024-11-06T11:00:00	4	Temperatura máxima	23.1
100883	7	Sololá	702	San José Chacayá	5	Chacayá	6	Junio	2023-10-06T00:00:00	2024-11-06T11:00:00	3	Temperatura mínima	21.7
100884	7	Sololá	702	San José Chacayá	5	Chacayá	6	Junio	2023-10-06T00:00:00	2024-11-06T11:00:00	5	Humedad	70
100885	7	Sololá	702	San José Chacayá	5	Chacayá	6	Junio	2023-10-06T00:00:00	2024-11-06T11:00:00	6	Velocidad del viento	4.8
100886	7	Sololá	702	San José Chacayá	5	Chacayá	6	Junio	2023-10-06T00:00:00	2024-11-06T11:00:00	7	Dirección del viento	4.83
100887	7	Sololá	702	San José Chacayá	5	Chacayá	6	Junio	2023-10-06T00:00:00	2024-11-06T11:00:00	1	Precipitación	0
100888	7	Sololá	702	San José Chacayá	5	Chacayá	6	Junio	2023-10-06T00:00:00	2024-11-06T11:00:00	8	Radiación solar	1052
100889	7	Sololá	702	San José Chacayá	5	Chacayá	6	Junio	2023-10-06T00:00:00	2024-11-06T12:00:00	2	Temperatura media	21.5
100890	7	Sololá	702	San José Chacayá	5	Chacayá	6	Junio	2023-10-06T00:00:00	2024-11-06T12:00:00	4	Temperatura máxima	22
100891	7	Sololá	702	San José Chacayá	5	Chacayá	6	Junio	2023-10-06T00:00:00	2024-11-06T12:00:00	3	Temperatura mínima	20.2
100892	7	Sololá	702	San José Chacayá	5	Chacayá	6	Junio	2023-10-06T00:00:00	2024-11-06T12:00:00	5	Humedad	73
100893	7	Sololá	702	San José Chacayá	5	Chacayá	6	Junio	2023-10-06T00:00:00	2024-11-06T12:00:00	6	Velocidad del viento	6.4
100894	7	Sololá	702	San José Chacayá	5	Chacayá	6	Junio	2023-10-06T00:00:00	2024-11-06T12:00:00	7	Dirección del viento	6.44
100895	7	Sololá	702	San José Chacayá	5	Chacayá	6	Junio	2023-10-06T00:00:00	2024-11-06T12:00:00	1	Precipitación	0
100896	7	Sololá	702	San José Chacayá	5	Chacayá	6	Junio	2023-10-06T00:00:00	2024-11-06T12:00:00	8	Radiación solar	773
100897	7	Sololá	702	San José Chacayá	5	Chacayá	6	Junio	2023-10-06T00:00:00	2024-11-06T13:00:00	2	Temperatura media	20.5
100898	7	Sololá	702	San José Chacayá	5	Chacayá	6	Junio	2023-10-06T00:00:00	2024-11-06T13:00:00	4	Temperatura máxima	21.5
100899	7	Sololá	702	San José Chacayá	5	Chacayá	6	Junio	2023-10-06T00:00:00	2024-11-06T13:00:00	3	Temperatura mínima	19.5
100900	7	Sololá	702	San José Chacayá	5	Chacayá	6	Junio	2023-10-06T00:00:00	2024-11-06T13:00:00	5	Humedad	73
100901	7	Sololá	702	San José Chacayá	5	Chacayá	6	Junio	2023-10-06T00:00:00	2024-11-06T13:00:00	6	Velocidad del viento	4.8
100902	7	Sololá	702	San José Chacayá	5	Chacayá	6	Junio	2023-10-06T00:00:00	2024-11-06T13:00:00	7	Dirección del viento	4.83
100903	7	Sololá	702	San José Chacayá	5	Chacayá	6	Junio	2023-10-06T00:00:00	2024-11-06T13:00:00	1	Precipitación	0
100904	7	Sololá	702	San José Chacayá	5	Chacayá	6	Junio	2023-10-06T00:00:00	2024-11-06T13:00:00	8	Radiación solar	222
100905	7	Sololá	702	San José Chacayá	5	Chacayá	6	Junio	2023-10-06T00:00:00	2024-11-06T14:00:00	2	Temperatura media	21.2
100906	7	Sololá	702	San José Chacayá	5	Chacayá	6	Junio	2023-10-06T00:00:00	2024-11-06T14:00:00	4	Temperatura máxima	21.8
100907	7	Sololá	702	San José Chacayá	5	Chacayá	6	Junio	2023-10-06T00:00:00	2024-11-06T14:00:00	3	Temperatura mínima	20.6
100908	7	Sololá	702	San José Chacayá	5	Chacayá	6	Junio	2023-10-06T00:00:00	2024-11-06T14:00:00	5	Humedad	74
100909	7	Sololá	702	San José Chacayá	5	Chacayá	6	Junio	2023-10-06T00:00:00	2024-11-06T14:00:00	6	Velocidad del viento	4.8
100910	7	Sololá	702	San José Chacayá	5	Chacayá	6	Junio	2023-10-06T00:00:00	2024-11-06T14:00:00	7	Dirección del viento	4.83
100911	7	Sololá	702	San José Chacayá	5	Chacayá	6	Junio	2023-10-06T00:00:00	2024-11-06T14:00:00	1	Precipitación	0
100912	7	Sololá	702	San José Chacayá	5	Chacayá	6	Junio	2023-10-06T00:00:00	2024-11-06T14:00:00	8	Radiación solar	221
100913	7	Sololá	702	San José Chacayá	5	Chacayá	6	Junio	2023-10-06T00:00:00	2024-11-06T15:00:00	2	Temperatura media	19
100914	7	Sololá	702	San José Chacayá	5	Chacayá	6	Junio	2023-10-06T00:00:00	2024-11-06T15:00:00	4	Temperatura máxima	21.6
100915	7	Sololá	702	San José Chacayá	5	Chacayá	6	Junio	2023-10-06T00:00:00	2024-11-06T15:00:00	3	Temperatura mínima	19
100916	7	Sololá	702	San José Chacayá	5	Chacayá	6	Junio	2023-10-06T00:00:00	2024-11-06T15:00:00	5	Humedad	83
100917	7	Sololá	702	San José Chacayá	5	Chacayá	6	Junio	2023-10-06T00:00:00	2024-11-06T15:00:00	6	Velocidad del viento	4.8
100918	7	Sololá	702	San José Chacayá	5	Chacayá	6	Junio	2023-10-06T00:00:00	2024-11-06T15:00:00	7	Dirección del viento	4.83
100919	7	Sololá	702	San José Chacayá	5	Chacayá	6	Junio	2023-10-06T00:00:00	2024-11-06T15:00:00	1	Precipitación	0
100920	7	Sololá	702	San José Chacayá	5	Chacayá	6	Junio	2023-10-06T00:00:00	2024-11-06T15:00:00	8	Radiación solar	282
100921	7	Sololá	702	San José Chacayá	5	Chacayá	6	Junio	2023-10-06T00:00:00	2024-11-06T16:00:00	2	Temperatura media	17.3
100922	7	Sololá	702	San José Chacayá	5	Chacayá	6	Junio	2023-10-06T00:00:00	2024-11-06T16:00:00	4	Temperatura máxima	19
100923	7	Sololá	702	San José Chacayá	5	Chacayá	6	Junio	2023-10-06T00:00:00	2024-11-06T16:00:00	3	Temperatura mínima	17.3
100924	7	Sololá	702	San José Chacayá	5	Chacayá	6	Junio	2023-10-06T00:00:00	2024-11-06T16:00:00	5	Humedad	88
100925	7	Sololá	702	San José Chacayá	5	Chacayá	6	Junio	2023-10-06T00:00:00	2024-11-06T16:00:00	6	Velocidad del viento	1.6
100926	7	Sololá	702	San José Chacayá	5	Chacayá	6	Junio	2023-10-06T00:00:00	2024-11-06T16:00:00	7	Dirección del viento	1.61
100927	7	Sololá	702	San José Chacayá	5	Chacayá	6	Junio	2023-10-06T00:00:00	2024-11-06T16:00:00	1	Precipitación	0
100928	7	Sololá	702	San José Chacayá	5	Chacayá	6	Junio	2023-10-06T00:00:00	2024-11-06T16:00:00	8	Radiación solar	332
100929	7	Sololá	702	San José Chacayá	5	Chacayá	6	Junio	2023-10-06T00:00:00	2024-11-06T17:00:00	2	Temperatura media	16.6
100930	7	Sololá	702	San José Chacayá	5	Chacayá	6	Junio	2023-10-06T00:00:00	2024-11-06T17:00:00	4	Temperatura máxima	17.3
100931	7	Sololá	702	San José Chacayá	5	Chacayá	6	Junio	2023-10-06T00:00:00	2024-11-06T17:00:00	3	Temperatura mínima	16.4
100932	7	Sololá	702	San José Chacayá	5	Chacayá	6	Junio	2023-10-06T00:00:00	2024-11-06T17:00:00	5	Humedad	90
100933	7	Sololá	702	San José Chacayá	5	Chacayá	6	Junio	2023-10-06T00:00:00	2024-11-06T17:00:00	6	Velocidad del viento	3.2
100934	7	Sololá	702	San José Chacayá	5	Chacayá	6	Junio	2023-10-06T00:00:00	2024-11-06T17:00:00	7	Dirección del viento	3.22
100935	7	Sololá	702	San José Chacayá	5	Chacayá	6	Junio	2023-10-06T00:00:00	2024-11-06T17:00:00	1	Precipitación	0
100936	7	Sololá	702	San José Chacayá	5	Chacayá	6	Junio	2023-10-06T00:00:00	2024-11-06T17:00:00	8	Radiación solar	355
100937	7	Sololá	702	San José Chacayá	5	Chacayá	6	Junio	2023-10-06T00:00:00	2024-11-06T18:00:00	2	Temperatura media	16.9
100938	7	Sololá	702	San José Chacayá	5	Chacayá	6	Junio	2023-10-06T00:00:00	2024-11-06T18:00:00	4	Temperatura máxima	16.9
100939	7	Sololá	702	San José Chacayá	5	Chacayá	6	Junio	2023-10-06T00:00:00	2024-11-06T18:00:00	3	Temperatura mínima	16.5
100940	7	Sololá	702	San José Chacayá	5	Chacayá	6	Junio	2023-10-06T00:00:00	2024-11-06T18:00:00	5	Humedad	87
100941	7	Sololá	702	San José Chacayá	5	Chacayá	6	Junio	2023-10-06T00:00:00	2024-11-06T18:00:00	6	Velocidad del viento	1.6
100942	7	Sololá	702	San José Chacayá	5	Chacayá	6	Junio	2023-10-06T00:00:00	2024-11-06T18:00:00	7	Dirección del viento	1.61
100943	7	Sololá	702	San José Chacayá	5	Chacayá	6	Junio	2023-10-06T00:00:00	2024-11-06T18:00:00	1	Precipitación	0
100944	7	Sololá	702	San José Chacayá	5	Chacayá	6	Junio	2023-10-06T00:00:00	2024-11-06T18:00:00	8	Radiación solar	61
100945	7	Sololá	702	San José Chacayá	5	Chacayá	6	Junio	2023-10-06T00:00:00	2024-11-06T19:00:00	2	Temperatura media	15.8
100946	7	Sololá	702	San José Chacayá	5	Chacayá	6	Junio	2023-10-06T00:00:00	2024-11-06T19:00:00	4	Temperatura máxima	16.9
100947	7	Sololá	702	San José Chacayá	5	Chacayá	6	Junio	2023-10-06T00:00:00	2024-11-06T19:00:00	3	Temperatura mínima	15.8
100948	7	Sololá	702	San José Chacayá	5	Chacayá	6	Junio	2023-10-06T00:00:00	2024-11-06T19:00:00	5	Humedad	90
100949	7	Sololá	702	San José Chacayá	5	Chacayá	6	Junio	2023-10-06T00:00:00	2024-11-06T19:00:00	6	Velocidad del viento	0
100950	7	Sololá	702	San José Chacayá	5	Chacayá	6	Junio	2023-10-06T00:00:00	2024-11-06T19:00:00	7	Dirección del viento	0
100951	7	Sololá	702	San José Chacayá	5	Chacayá	6	Junio	2023-10-06T00:00:00	2024-11-06T19:00:00	1	Precipitación	0
100952	7	Sololá	702	San José Chacayá	5	Chacayá	6	Junio	2023-10-06T00:00:00	2024-11-06T19:00:00	8	Radiación solar	0
100953	7	Sololá	702	San José Chacayá	5	Chacayá	6	Junio	2023-10-06T00:00:00	2024-11-06T20:00:00	2	Temperatura media	14.9
100954	7	Sololá	702	San José Chacayá	5	Chacayá	6	Junio	2023-10-06T00:00:00	2024-11-06T20:00:00	4	Temperatura máxima	15.8
100955	7	Sololá	702	San José Chacayá	5	Chacayá	6	Junio	2023-10-06T00:00:00	2024-11-06T20:00:00	3	Temperatura mínima	14.9
100956	7	Sololá	702	San José Chacayá	5	Chacayá	6	Junio	2023-10-06T00:00:00	2024-11-06T20:00:00	5	Humedad	91
100957	7	Sololá	702	San José Chacayá	5	Chacayá	6	Junio	2023-10-06T00:00:00	2024-11-06T20:00:00	6	Velocidad del viento	0
100958	7	Sololá	702	San José Chacayá	5	Chacayá	6	Junio	2023-10-06T00:00:00	2024-11-06T20:00:00	7	Dirección del viento	0
100959	7	Sololá	702	San José Chacayá	5	Chacayá	6	Junio	2023-10-06T00:00:00	2024-11-06T20:00:00	1	Precipitación	0
100960	7	Sololá	702	San José Chacayá	5	Chacayá	6	Junio	2023-10-06T00:00:00	2024-11-06T20:00:00	8	Radiación solar	0
100961	7	Sololá	702	San José Chacayá	5	Chacayá	6	Junio	2023-10-06T00:00:00	2024-11-06T21:00:00	2	Temperatura media	14.2
100962	7	Sololá	702	San José Chacayá	5	Chacayá	6	Junio	2023-10-06T00:00:00	2024-11-06T21:00:00	4	Temperatura máxima	14.9
100963	7	Sololá	702	San José Chacayá	5	Chacayá	6	Junio	2023-10-06T00:00:00	2024-11-06T21:00:00	3	Temperatura mínima	14.2
100964	7	Sololá	702	San José Chacayá	5	Chacayá	6	Junio	2023-10-06T00:00:00	2024-11-06T21:00:00	5	Humedad	92
100965	7	Sololá	702	San José Chacayá	5	Chacayá	6	Junio	2023-10-06T00:00:00	2024-11-06T21:00:00	6	Velocidad del viento	0
100966	7	Sololá	702	San José Chacayá	5	Chacayá	6	Junio	2023-10-06T00:00:00	2024-11-06T21:00:00	7	Dirección del viento	0
100967	7	Sololá	702	San José Chacayá	5	Chacayá	6	Junio	2023-10-06T00:00:00	2024-11-06T21:00:00	1	Precipitación	0
100968	7	Sololá	702	San José Chacayá	5	Chacayá	6	Junio	2023-10-06T00:00:00	2024-11-06T21:00:00	8	Radiación solar	0
100969	7	Sololá	702	San José Chacayá	5	Chacayá	6	Junio	2023-10-06T00:00:00	2024-11-06T22:00:00	2	Temperatura media	13.5
100970	7	Sololá	702	San José Chacayá	5	Chacayá	6	Junio	2023-10-06T00:00:00	2024-11-06T22:00:00	4	Temperatura máxima	14.2
100971	7	Sololá	702	San José Chacayá	5	Chacayá	6	Junio	2023-10-06T00:00:00	2024-11-06T22:00:00	3	Temperatura mínima	13.5
100972	7	Sololá	702	San José Chacayá	5	Chacayá	6	Junio	2023-10-06T00:00:00	2024-11-06T22:00:00	5	Humedad	93
100973	7	Sololá	702	San José Chacayá	5	Chacayá	6	Junio	2023-10-06T00:00:00	2024-11-06T22:00:00	6	Velocidad del viento	0
100974	7	Sololá	702	San José Chacayá	5	Chacayá	6	Junio	2023-10-06T00:00:00	2024-11-06T22:00:00	7	Dirección del viento	0
100975	7	Sololá	702	San José Chacayá	5	Chacayá	6	Junio	2023-10-06T00:00:00	2024-11-06T22:00:00	1	Precipitación	0
100976	7	Sololá	702	San José Chacayá	5	Chacayá	6	Junio	2023-10-06T00:00:00	2024-11-06T22:00:00	8	Radiación solar	0
100977	7	Sololá	702	San José Chacayá	5	Chacayá	6	Junio	2023-10-06T00:00:00	2024-11-06T23:00:00	2	Temperatura media	13.1
100978	7	Sololá	702	San José Chacayá	5	Chacayá	6	Junio	2023-10-06T00:00:00	2024-11-06T23:00:00	4	Temperatura máxima	13.6
100979	7	Sololá	702	San José Chacayá	5	Chacayá	6	Junio	2023-10-06T00:00:00	2024-11-06T23:00:00	3	Temperatura mínima	13.1
100980	7	Sololá	702	San José Chacayá	5	Chacayá	6	Junio	2023-10-06T00:00:00	2024-11-06T23:00:00	5	Humedad	93
100981	7	Sololá	702	San José Chacayá	5	Chacayá	6	Junio	2023-10-06T00:00:00	2024-11-06T23:00:00	6	Velocidad del viento	0
100982	7	Sololá	702	San José Chacayá	5	Chacayá	6	Junio	2023-10-06T00:00:00	2024-11-06T23:00:00	7	Dirección del viento	0
100983	7	Sololá	702	San José Chacayá	5	Chacayá	6	Junio	2023-10-06T00:00:00	2024-11-06T23:00:00	1	Precipitación	0
100984	7	Sololá	702	San José Chacayá	5	Chacayá	6	Junio	2023-10-06T00:00:00	2024-11-06T23:00:00	8	Radiación solar	0
100985	7	Sololá	702	San José Chacayá	5	Chacayá	6	Junio	2023-11-06T00:00:00	2024-11-06T00:00:00	2	Temperatura media	13
100986	7	Sololá	702	San José Chacayá	5	Chacayá	6	Junio	2023-11-06T00:00:00	2024-11-06T00:00:00	4	Temperatura máxima	13.1
100987	7	Sololá	702	San José Chacayá	5	Chacayá	6	Junio	2023-11-06T00:00:00	2024-11-06T00:00:00	3	Temperatura mínima	12.9
100988	7	Sololá	702	San José Chacayá	5	Chacayá	6	Junio	2023-11-06T00:00:00	2024-11-06T00:00:00	5	Humedad	93
100989	7	Sololá	702	San José Chacayá	5	Chacayá	6	Junio	2023-11-06T00:00:00	2024-11-06T00:00:00	6	Velocidad del viento	0
100990	7	Sololá	702	San José Chacayá	5	Chacayá	6	Junio	2023-11-06T00:00:00	2024-11-06T00:00:00	7	Dirección del viento	0
100991	7	Sololá	702	San José Chacayá	5	Chacayá	6	Junio	2023-11-06T00:00:00	2024-11-06T00:00:00	1	Precipitación	0
100992	7	Sololá	702	San José Chacayá	5	Chacayá	6	Junio	2023-11-06T00:00:00	2024-11-06T00:00:00	8	Radiación solar	0
100993	7	Sololá	702	San José Chacayá	5	Chacayá	6	Junio	2023-11-06T00:00:00	2024-11-06T01:00:00	2	Temperatura media	12.6
100994	7	Sololá	702	San José Chacayá	5	Chacayá	6	Junio	2023-11-06T00:00:00	2024-11-06T01:00:00	4	Temperatura máxima	13
100995	7	Sololá	702	San José Chacayá	5	Chacayá	6	Junio	2023-11-06T00:00:00	2024-11-06T01:00:00	3	Temperatura mínima	12.6
100996	7	Sololá	702	San José Chacayá	5	Chacayá	6	Junio	2023-11-06T00:00:00	2024-11-06T01:00:00	5	Humedad	93
100997	7	Sololá	702	San José Chacayá	5	Chacayá	6	Junio	2023-11-06T00:00:00	2024-11-06T01:00:00	6	Velocidad del viento	1.6
100998	7	Sololá	702	San José Chacayá	5	Chacayá	6	Junio	2023-11-06T00:00:00	2024-11-06T01:00:00	7	Dirección del viento	1.61
100999	7	Sololá	702	San José Chacayá	5	Chacayá	6	Junio	2023-11-06T00:00:00	2024-11-06T01:00:00	1	Precipitación	0
101000	7	Sololá	702	San José Chacayá	5	Chacayá	6	Junio	2023-11-06T00:00:00	2024-11-06T01:00:00	8	Radiación solar	0
101001	7	Sololá	702	San José Chacayá	5	Chacayá	6	Junio	2023-11-06T00:00:00	2024-11-06T02:00:00	2	Temperatura media	11.9
101002	7	Sololá	702	San José Chacayá	5	Chacayá	6	Junio	2023-11-06T00:00:00	2024-11-06T02:00:00	4	Temperatura máxima	12.7
101003	7	Sololá	702	San José Chacayá	5	Chacayá	6	Junio	2023-11-06T00:00:00	2024-11-06T02:00:00	3	Temperatura mínima	11.9
101004	7	Sololá	702	San José Chacayá	5	Chacayá	6	Junio	2023-11-06T00:00:00	2024-11-06T02:00:00	5	Humedad	93
101005	7	Sololá	702	San José Chacayá	5	Chacayá	6	Junio	2023-11-06T00:00:00	2024-11-06T02:00:00	6	Velocidad del viento	0
101006	7	Sololá	702	San José Chacayá	5	Chacayá	6	Junio	2023-11-06T00:00:00	2024-11-06T02:00:00	7	Dirección del viento	0
101007	7	Sololá	702	San José Chacayá	5	Chacayá	6	Junio	2023-11-06T00:00:00	2024-11-06T02:00:00	1	Precipitación	0
101008	7	Sololá	702	San José Chacayá	5	Chacayá	6	Junio	2023-11-06T00:00:00	2024-11-06T02:00:00	8	Radiación solar	0
101009	7	Sololá	702	San José Chacayá	5	Chacayá	6	Junio	2023-11-06T00:00:00	2024-11-06T03:00:00	2	Temperatura media	11.3
101010	7	Sololá	702	San José Chacayá	5	Chacayá	6	Junio	2023-11-06T00:00:00	2024-11-06T03:00:00	4	Temperatura máxima	11.9
101011	7	Sololá	702	San José Chacayá	5	Chacayá	6	Junio	2023-11-06T00:00:00	2024-11-06T03:00:00	3	Temperatura mínima	11.2
101012	7	Sololá	702	San José Chacayá	5	Chacayá	6	Junio	2023-11-06T00:00:00	2024-11-06T03:00:00	5	Humedad	92
101013	7	Sololá	702	San José Chacayá	5	Chacayá	6	Junio	2023-11-06T00:00:00	2024-11-06T03:00:00	6	Velocidad del viento	0
101014	7	Sololá	702	San José Chacayá	5	Chacayá	6	Junio	2023-11-06T00:00:00	2024-11-06T03:00:00	7	Dirección del viento	0
101015	7	Sololá	702	San José Chacayá	5	Chacayá	6	Junio	2023-11-06T00:00:00	2024-11-06T03:00:00	1	Precipitación	0
101016	7	Sololá	702	San José Chacayá	5	Chacayá	6	Junio	2023-11-06T00:00:00	2024-11-06T03:00:00	8	Radiación solar	0
101017	7	Sololá	702	San José Chacayá	5	Chacayá	6	Junio	2023-11-06T00:00:00	2024-11-06T04:00:00	2	Temperatura media	10.8
101018	7	Sololá	702	San José Chacayá	5	Chacayá	6	Junio	2023-11-06T00:00:00	2024-11-06T04:00:00	4	Temperatura máxima	11.3
101019	7	Sololá	702	San José Chacayá	5	Chacayá	6	Junio	2023-11-06T00:00:00	2024-11-06T04:00:00	3	Temperatura mínima	10.8
101020	7	Sololá	702	San José Chacayá	5	Chacayá	6	Junio	2023-11-06T00:00:00	2024-11-06T04:00:00	5	Humedad	90
101021	7	Sololá	702	San José Chacayá	5	Chacayá	6	Junio	2023-11-06T00:00:00	2024-11-06T04:00:00	6	Velocidad del viento	0
101022	7	Sololá	702	San José Chacayá	5	Chacayá	6	Junio	2023-11-06T00:00:00	2024-11-06T04:00:00	7	Dirección del viento	0
101023	7	Sololá	702	San José Chacayá	5	Chacayá	6	Junio	2023-11-06T00:00:00	2024-11-06T04:00:00	1	Precipitación	0
101024	7	Sololá	702	San José Chacayá	5	Chacayá	6	Junio	2023-11-06T00:00:00	2024-11-06T04:00:00	8	Radiación solar	0
101025	7	Sololá	702	San José Chacayá	5	Chacayá	6	Junio	2023-11-06T00:00:00	2024-11-06T05:00:00	2	Temperatura media	10.1
101026	7	Sololá	702	San José Chacayá	5	Chacayá	6	Junio	2023-11-06T00:00:00	2024-11-06T05:00:00	4	Temperatura máxima	10.8
101027	7	Sololá	702	San José Chacayá	5	Chacayá	6	Junio	2023-11-06T00:00:00	2024-11-06T05:00:00	3	Temperatura mínima	10.1
101028	7	Sololá	702	San José Chacayá	5	Chacayá	6	Junio	2023-11-06T00:00:00	2024-11-06T05:00:00	5	Humedad	90
101029	7	Sololá	702	San José Chacayá	5	Chacayá	6	Junio	2023-11-06T00:00:00	2024-11-06T05:00:00	6	Velocidad del viento	1.6
101030	7	Sololá	702	San José Chacayá	5	Chacayá	6	Junio	2023-11-06T00:00:00	2024-11-06T05:00:00	7	Dirección del viento	1.61
101031	7	Sololá	702	San José Chacayá	5	Chacayá	6	Junio	2023-11-06T00:00:00	2024-11-06T05:00:00	1	Precipitación	0
101032	7	Sololá	702	San José Chacayá	5	Chacayá	6	Junio	2023-11-06T00:00:00	2024-11-06T05:00:00	8	Radiación solar	0
101033	7	Sololá	702	San José Chacayá	5	Chacayá	6	Junio	2023-11-06T00:00:00	2024-11-06T06:00:00	2	Temperatura media	9.9
101034	7	Sololá	702	San José Chacayá	5	Chacayá	6	Junio	2023-11-06T00:00:00	2024-11-06T06:00:00	4	Temperatura máxima	10.1
101035	7	Sololá	702	San José Chacayá	5	Chacayá	6	Junio	2023-11-06T00:00:00	2024-11-06T06:00:00	3	Temperatura mínima	9.9
101036	7	Sololá	702	San José Chacayá	5	Chacayá	6	Junio	2023-11-06T00:00:00	2024-11-06T06:00:00	5	Humedad	89
101037	7	Sololá	702	San José Chacayá	5	Chacayá	6	Junio	2023-11-06T00:00:00	2024-11-06T06:00:00	6	Velocidad del viento	1.6
101038	7	Sololá	702	San José Chacayá	5	Chacayá	6	Junio	2023-11-06T00:00:00	2024-11-06T06:00:00	7	Dirección del viento	1.61
101039	7	Sololá	702	San José Chacayá	5	Chacayá	6	Junio	2023-11-06T00:00:00	2024-11-06T06:00:00	1	Precipitación	0
101040	7	Sololá	702	San José Chacayá	5	Chacayá	6	Junio	2023-11-06T00:00:00	2024-11-06T06:00:00	8	Radiación solar	7
101041	7	Sololá	702	San José Chacayá	5	Chacayá	6	Junio	2023-11-06T00:00:00	2024-11-06T07:00:00	2	Temperatura media	13.2
101042	7	Sololá	702	San José Chacayá	5	Chacayá	6	Junio	2023-11-06T00:00:00	2024-11-06T07:00:00	4	Temperatura máxima	13.2
101043	7	Sololá	702	San José Chacayá	5	Chacayá	6	Junio	2023-11-06T00:00:00	2024-11-06T07:00:00	3	Temperatura mínima	9.9
101044	7	Sololá	702	San José Chacayá	5	Chacayá	6	Junio	2023-11-06T00:00:00	2024-11-06T07:00:00	5	Humedad	82
101045	7	Sololá	702	San José Chacayá	5	Chacayá	6	Junio	2023-11-06T00:00:00	2024-11-06T07:00:00	6	Velocidad del viento	1.6
101046	7	Sololá	702	San José Chacayá	5	Chacayá	6	Junio	2023-11-06T00:00:00	2024-11-06T07:00:00	7	Dirección del viento	1.61
101047	7	Sololá	702	San José Chacayá	5	Chacayá	6	Junio	2023-11-06T00:00:00	2024-11-06T07:00:00	1	Precipitación	0
101048	7	Sololá	702	San José Chacayá	5	Chacayá	6	Junio	2023-11-06T00:00:00	2024-11-06T07:00:00	8	Radiación solar	71
101049	7	Sololá	702	San José Chacayá	5	Chacayá	6	Junio	2023-11-06T00:00:00	2024-11-06T08:00:00	2	Temperatura media	19.2
101050	7	Sololá	702	San José Chacayá	5	Chacayá	6	Junio	2023-11-06T00:00:00	2024-11-06T08:00:00	4	Temperatura máxima	19.2
101051	7	Sololá	702	San José Chacayá	5	Chacayá	6	Junio	2023-11-06T00:00:00	2024-11-06T08:00:00	3	Temperatura mínima	13.2
101052	7	Sololá	702	San José Chacayá	5	Chacayá	6	Junio	2023-11-06T00:00:00	2024-11-06T08:00:00	5	Humedad	62
101053	7	Sololá	702	San José Chacayá	5	Chacayá	6	Junio	2023-11-06T00:00:00	2024-11-06T08:00:00	6	Velocidad del viento	0
101054	7	Sololá	702	San José Chacayá	5	Chacayá	6	Junio	2023-11-06T00:00:00	2024-11-06T08:00:00	7	Dirección del viento	0
101055	7	Sololá	702	San José Chacayá	5	Chacayá	6	Junio	2023-11-06T00:00:00	2024-11-06T08:00:00	1	Precipitación	0
101056	7	Sololá	702	San José Chacayá	5	Chacayá	6	Junio	2023-11-06T00:00:00	2024-11-06T08:00:00	8	Radiación solar	158
101057	7	Sololá	702	San José Chacayá	5	Chacayá	6	Junio	2023-11-06T00:00:00	2024-11-06T09:00:00	2	Temperatura media	20.6
101058	7	Sololá	702	San José Chacayá	5	Chacayá	6	Junio	2023-11-06T00:00:00	2024-11-06T09:00:00	4	Temperatura máxima	21
101059	7	Sololá	702	San José Chacayá	5	Chacayá	6	Junio	2023-11-06T00:00:00	2024-11-06T09:00:00	3	Temperatura mínima	19.2
101060	7	Sololá	702	San José Chacayá	5	Chacayá	6	Junio	2023-11-06T00:00:00	2024-11-06T09:00:00	5	Humedad	66
101061	7	Sololá	702	San José Chacayá	5	Chacayá	6	Junio	2023-11-06T00:00:00	2024-11-06T09:00:00	6	Velocidad del viento	1.6
101062	7	Sololá	702	San José Chacayá	5	Chacayá	6	Junio	2023-11-06T00:00:00	2024-11-06T09:00:00	7	Dirección del viento	1.61
101063	7	Sololá	702	San José Chacayá	5	Chacayá	6	Junio	2023-11-06T00:00:00	2024-11-06T09:00:00	1	Precipitación	0
101064	7	Sololá	702	San José Chacayá	5	Chacayá	6	Junio	2023-11-06T00:00:00	2024-11-06T09:00:00	8	Radiación solar	476
101065	7	Sololá	702	San José Chacayá	5	Chacayá	6	Junio	2023-11-06T00:00:00	2024-11-06T10:00:00	2	Temperatura media	21.6
101066	7	Sololá	702	San José Chacayá	5	Chacayá	6	Junio	2023-11-06T00:00:00	2024-11-06T10:00:00	4	Temperatura máxima	22.3
101067	7	Sololá	702	San José Chacayá	5	Chacayá	6	Junio	2023-11-06T00:00:00	2024-11-06T10:00:00	3	Temperatura mínima	20.6
101068	7	Sololá	702	San José Chacayá	5	Chacayá	6	Junio	2023-11-06T00:00:00	2024-11-06T10:00:00	5	Humedad	67
101069	7	Sololá	702	San José Chacayá	5	Chacayá	6	Junio	2023-11-06T00:00:00	2024-11-06T10:00:00	6	Velocidad del viento	3.2
101070	7	Sololá	702	San José Chacayá	5	Chacayá	6	Junio	2023-11-06T00:00:00	2024-11-06T10:00:00	7	Dirección del viento	3.22
101071	7	Sololá	702	San José Chacayá	5	Chacayá	6	Junio	2023-11-06T00:00:00	2024-11-06T10:00:00	1	Precipitación	0
101072	7	Sololá	702	San José Chacayá	5	Chacayá	6	Junio	2023-11-06T00:00:00	2024-11-06T10:00:00	8	Radiación solar	753
101073	7	Sololá	702	San José Chacayá	5	Chacayá	6	Junio	2023-11-06T00:00:00	2024-11-06T11:00:00	2	Temperatura media	23.3
101074	7	Sololá	702	San José Chacayá	5	Chacayá	6	Junio	2023-11-06T00:00:00	2024-11-06T11:00:00	4	Temperatura máxima	24.1
101075	7	Sololá	702	San José Chacayá	5	Chacayá	6	Junio	2023-11-06T00:00:00	2024-11-06T11:00:00	3	Temperatura mínima	21.6
101076	7	Sololá	702	San José Chacayá	5	Chacayá	6	Junio	2023-11-06T00:00:00	2024-11-06T11:00:00	5	Humedad	62
101077	7	Sololá	702	San José Chacayá	5	Chacayá	6	Junio	2023-11-06T00:00:00	2024-11-06T11:00:00	6	Velocidad del viento	4.8
101078	7	Sololá	702	San José Chacayá	5	Chacayá	6	Junio	2023-11-06T00:00:00	2024-11-06T11:00:00	7	Dirección del viento	4.83
101079	7	Sololá	702	San José Chacayá	5	Chacayá	6	Junio	2023-11-06T00:00:00	2024-11-06T11:00:00	1	Precipitación	0
101080	7	Sololá	702	San José Chacayá	5	Chacayá	6	Junio	2023-11-06T00:00:00	2024-11-06T11:00:00	8	Radiación solar	378
101081	7	Sololá	702	San José Chacayá	5	Chacayá	6	Junio	2023-11-06T00:00:00	2024-11-06T12:00:00	2	Temperatura media	22.6
101082	7	Sololá	702	San José Chacayá	5	Chacayá	6	Junio	2023-11-06T00:00:00	2024-11-06T12:00:00	4	Temperatura máxima	23.8
101083	7	Sololá	702	San José Chacayá	5	Chacayá	6	Junio	2023-11-06T00:00:00	2024-11-06T12:00:00	3	Temperatura mínima	22.6
101084	7	Sololá	702	San José Chacayá	5	Chacayá	6	Junio	2023-11-06T00:00:00	2024-11-06T12:00:00	5	Humedad	65
101085	7	Sololá	702	San José Chacayá	5	Chacayá	6	Junio	2023-11-06T00:00:00	2024-11-06T12:00:00	6	Velocidad del viento	4.8
101086	7	Sololá	702	San José Chacayá	5	Chacayá	6	Junio	2023-11-06T00:00:00	2024-11-06T12:00:00	7	Dirección del viento	4.83
101087	7	Sololá	702	San José Chacayá	5	Chacayá	6	Junio	2023-11-06T00:00:00	2024-11-06T12:00:00	1	Precipitación	0
101088	7	Sololá	702	San José Chacayá	5	Chacayá	6	Junio	2023-11-06T00:00:00	2024-11-06T12:00:00	8	Radiación solar	462
101089	7	Sololá	702	San José Chacayá	5	Chacayá	6	Junio	2023-11-06T00:00:00	2024-11-06T13:00:00	2	Temperatura media	22.9
101090	7	Sololá	702	San José Chacayá	5	Chacayá	6	Junio	2023-11-06T00:00:00	2024-11-06T13:00:00	4	Temperatura máxima	22.9
101091	7	Sololá	702	San José Chacayá	5	Chacayá	6	Junio	2023-11-06T00:00:00	2024-11-06T13:00:00	3	Temperatura mínima	22.2
101092	7	Sololá	702	San José Chacayá	5	Chacayá	6	Junio	2023-11-06T00:00:00	2024-11-06T13:00:00	5	Humedad	69
101093	7	Sololá	702	San José Chacayá	5	Chacayá	6	Junio	2023-11-06T00:00:00	2024-11-06T13:00:00	6	Velocidad del viento	4.8
101094	7	Sololá	702	San José Chacayá	5	Chacayá	6	Junio	2023-11-06T00:00:00	2024-11-06T13:00:00	7	Dirección del viento	4.83
101095	7	Sololá	702	San José Chacayá	5	Chacayá	6	Junio	2023-11-06T00:00:00	2024-11-06T13:00:00	1	Precipitación	0
101096	7	Sololá	702	San José Chacayá	5	Chacayá	6	Junio	2023-11-06T00:00:00	2024-11-06T13:00:00	8	Radiación solar	355
101097	7	Sololá	702	San José Chacayá	5	Chacayá	6	Junio	2023-11-06T00:00:00	2024-11-06T14:00:00	2	Temperatura media	23.2
101098	7	Sololá	702	San José Chacayá	5	Chacayá	6	Junio	2023-11-06T00:00:00	2024-11-06T14:00:00	4	Temperatura máxima	23.2
101099	7	Sololá	702	San José Chacayá	5	Chacayá	6	Junio	2023-11-06T00:00:00	2024-11-06T14:00:00	3	Temperatura mínima	22.3
101100	7	Sololá	702	San José Chacayá	5	Chacayá	6	Junio	2023-11-06T00:00:00	2024-11-06T14:00:00	5	Humedad	67
101101	7	Sololá	702	San José Chacayá	5	Chacayá	6	Junio	2023-11-06T00:00:00	2024-11-06T14:00:00	6	Velocidad del viento	4.8
101102	7	Sololá	702	San José Chacayá	5	Chacayá	6	Junio	2023-11-06T00:00:00	2024-11-06T14:00:00	7	Dirección del viento	4.83
101103	7	Sololá	702	San José Chacayá	5	Chacayá	6	Junio	2023-11-06T00:00:00	2024-11-06T14:00:00	1	Precipitación	0
101104	7	Sololá	702	San José Chacayá	5	Chacayá	6	Junio	2023-11-06T00:00:00	2024-11-06T14:00:00	8	Radiación solar	258
101105	7	Sololá	702	San José Chacayá	5	Chacayá	6	Junio	2023-11-06T00:00:00	2024-11-06T15:00:00	2	Temperatura media	22.9
101106	7	Sololá	702	San José Chacayá	5	Chacayá	6	Junio	2023-11-06T00:00:00	2024-11-06T15:00:00	4	Temperatura máxima	23.7
101107	7	Sololá	702	San José Chacayá	5	Chacayá	6	Junio	2023-11-06T00:00:00	2024-11-06T15:00:00	3	Temperatura mínima	22.3
101108	7	Sololá	702	San José Chacayá	5	Chacayá	6	Junio	2023-11-06T00:00:00	2024-11-06T15:00:00	5	Humedad	72
101109	7	Sololá	702	San José Chacayá	5	Chacayá	6	Junio	2023-11-06T00:00:00	2024-11-06T15:00:00	6	Velocidad del viento	4.8
101110	7	Sololá	702	San José Chacayá	5	Chacayá	6	Junio	2023-11-06T00:00:00	2024-11-06T15:00:00	7	Dirección del viento	4.83
101111	7	Sololá	702	San José Chacayá	5	Chacayá	6	Junio	2023-11-06T00:00:00	2024-11-06T15:00:00	1	Precipitación	0
101112	7	Sololá	702	San José Chacayá	5	Chacayá	6	Junio	2023-11-06T00:00:00	2024-11-06T15:00:00	8	Radiación solar	321
101113	7	Sololá	702	San José Chacayá	5	Chacayá	6	Junio	2023-11-06T00:00:00	2024-11-06T16:00:00	2	Temperatura media	21.4
101114	7	Sololá	702	San José Chacayá	5	Chacayá	6	Junio	2023-11-06T00:00:00	2024-11-06T16:00:00	4	Temperatura máxima	22.9
101115	7	Sololá	702	San José Chacayá	5	Chacayá	6	Junio	2023-11-06T00:00:00	2024-11-06T16:00:00	3	Temperatura mínima	21.4
101116	7	Sololá	702	San José Chacayá	5	Chacayá	6	Junio	2023-11-06T00:00:00	2024-11-06T16:00:00	5	Humedad	76
101117	7	Sololá	702	San José Chacayá	5	Chacayá	6	Junio	2023-11-06T00:00:00	2024-11-06T16:00:00	6	Velocidad del viento	4.8
101118	7	Sololá	702	San José Chacayá	5	Chacayá	6	Junio	2023-11-06T00:00:00	2024-11-06T16:00:00	7	Dirección del viento	4.83
101119	7	Sololá	702	San José Chacayá	5	Chacayá	6	Junio	2023-11-06T00:00:00	2024-11-06T16:00:00	1	Precipitación	0
101120	7	Sololá	702	San José Chacayá	5	Chacayá	6	Junio	2023-11-06T00:00:00	2024-11-06T16:00:00	8	Radiación solar	104
101121	7	Sololá	702	San José Chacayá	5	Chacayá	6	Junio	2023-11-06T00:00:00	2024-11-06T17:00:00	2	Temperatura media	20.7
101122	7	Sololá	702	San José Chacayá	5	Chacayá	6	Junio	2023-11-06T00:00:00	2024-11-06T17:00:00	4	Temperatura máxima	21.4
101123	7	Sololá	702	San José Chacayá	5	Chacayá	6	Junio	2023-11-06T00:00:00	2024-11-06T17:00:00	3	Temperatura mínima	20.4
101124	7	Sololá	702	San José Chacayá	5	Chacayá	6	Junio	2023-11-06T00:00:00	2024-11-06T17:00:00	5	Humedad	82
101125	7	Sololá	702	San José Chacayá	5	Chacayá	6	Junio	2023-11-06T00:00:00	2024-11-06T17:00:00	6	Velocidad del viento	3.2
101126	7	Sololá	702	San José Chacayá	5	Chacayá	6	Junio	2023-11-06T00:00:00	2024-11-06T17:00:00	7	Dirección del viento	3.22
101127	7	Sololá	702	San José Chacayá	5	Chacayá	6	Junio	2023-11-06T00:00:00	2024-11-06T17:00:00	1	Precipitación	0
101128	7	Sololá	702	San José Chacayá	5	Chacayá	6	Junio	2023-11-06T00:00:00	2024-11-06T17:00:00	8	Radiación solar	7
101129	7	Sololá	702	San José Chacayá	5	Chacayá	6	Junio	2023-11-06T00:00:00	2024-11-06T18:00:00	2	Temperatura media	19.2
101130	7	Sololá	702	San José Chacayá	5	Chacayá	6	Junio	2023-11-06T00:00:00	2024-11-06T18:00:00	4	Temperatura máxima	21.2
101131	7	Sololá	702	San José Chacayá	5	Chacayá	6	Junio	2023-11-06T00:00:00	2024-11-06T18:00:00	3	Temperatura mínima	19.2
101132	7	Sololá	702	San José Chacayá	5	Chacayá	6	Junio	2023-11-06T00:00:00	2024-11-06T18:00:00	5	Humedad	86
101133	7	Sololá	702	San José Chacayá	5	Chacayá	6	Junio	2023-11-06T00:00:00	2024-11-06T18:00:00	6	Velocidad del viento	1.6
101134	7	Sololá	702	San José Chacayá	5	Chacayá	6	Junio	2023-11-06T00:00:00	2024-11-06T18:00:00	7	Dirección del viento	1.61
101135	7	Sololá	702	San José Chacayá	5	Chacayá	6	Junio	2023-11-06T00:00:00	2024-11-06T18:00:00	1	Precipitación	0
101136	7	Sololá	702	San José Chacayá	5	Chacayá	6	Junio	2023-11-06T00:00:00	2024-11-06T18:00:00	8	Radiación solar	7
101137	7	Sololá	702	San José Chacayá	5	Chacayá	6	Junio	2023-11-06T00:00:00	2024-11-06T19:00:00	2	Temperatura media	17.9
101138	7	Sololá	702	San José Chacayá	5	Chacayá	6	Junio	2023-11-06T00:00:00	2024-11-06T19:00:00	4	Temperatura máxima	19.2
101139	7	Sololá	702	San José Chacayá	5	Chacayá	6	Junio	2023-11-06T00:00:00	2024-11-06T19:00:00	3	Temperatura mínima	17.9
101140	7	Sololá	702	San José Chacayá	5	Chacayá	6	Junio	2023-11-06T00:00:00	2024-11-06T19:00:00	5	Humedad	90
101141	7	Sololá	702	San José Chacayá	5	Chacayá	6	Junio	2023-11-06T00:00:00	2024-11-06T19:00:00	6	Velocidad del viento	1.6
101142	7	Sololá	702	San José Chacayá	5	Chacayá	6	Junio	2023-11-06T00:00:00	2024-11-06T19:00:00	7	Dirección del viento	1.61
101143	7	Sololá	702	San José Chacayá	5	Chacayá	6	Junio	2023-11-06T00:00:00	2024-11-06T19:00:00	1	Precipitación	0
101144	7	Sololá	702	San José Chacayá	5	Chacayá	6	Junio	2023-11-06T00:00:00	2024-11-06T19:00:00	8	Radiación solar	0
101145	7	Sololá	702	San José Chacayá	5	Chacayá	6	Junio	2023-11-06T00:00:00	2024-11-06T20:00:00	2	Temperatura media	16.6
101146	7	Sololá	702	San José Chacayá	5	Chacayá	6	Junio	2023-11-06T00:00:00	2024-11-06T20:00:00	4	Temperatura máxima	17.9
101147	7	Sololá	702	San José Chacayá	5	Chacayá	6	Junio	2023-11-06T00:00:00	2024-11-06T20:00:00	3	Temperatura mínima	16.6
101148	7	Sololá	702	San José Chacayá	5	Chacayá	6	Junio	2023-11-06T00:00:00	2024-11-06T20:00:00	5	Humedad	91
101149	7	Sololá	702	San José Chacayá	5	Chacayá	6	Junio	2023-11-06T00:00:00	2024-11-06T20:00:00	6	Velocidad del viento	0
101150	7	Sololá	702	San José Chacayá	5	Chacayá	6	Junio	2023-11-06T00:00:00	2024-11-06T20:00:00	7	Dirección del viento	0
101151	7	Sololá	702	San José Chacayá	5	Chacayá	6	Junio	2023-11-06T00:00:00	2024-11-06T20:00:00	1	Precipitación	0
101152	7	Sololá	702	San José Chacayá	5	Chacayá	6	Junio	2023-11-06T00:00:00	2024-11-06T20:00:00	8	Radiación solar	0
101153	7	Sololá	702	San José Chacayá	5	Chacayá	6	Junio	2023-11-06T00:00:00	2024-11-06T21:00:00	2	Temperatura media	16.2
101154	7	Sololá	702	San José Chacayá	5	Chacayá	6	Junio	2023-11-06T00:00:00	2024-11-06T21:00:00	4	Temperatura máxima	16.6
101155	7	Sololá	702	San José Chacayá	5	Chacayá	6	Junio	2023-11-06T00:00:00	2024-11-06T21:00:00	3	Temperatura mínima	16.2
101156	7	Sololá	702	San José Chacayá	5	Chacayá	6	Junio	2023-11-06T00:00:00	2024-11-06T21:00:00	5	Humedad	91
101157	7	Sololá	702	San José Chacayá	5	Chacayá	6	Junio	2023-11-06T00:00:00	2024-11-06T21:00:00	6	Velocidad del viento	0
101158	7	Sololá	702	San José Chacayá	5	Chacayá	6	Junio	2023-11-06T00:00:00	2024-11-06T21:00:00	7	Dirección del viento	0
101159	7	Sololá	702	San José Chacayá	5	Chacayá	6	Junio	2023-11-06T00:00:00	2024-11-06T21:00:00	1	Precipitación	0
101160	7	Sololá	702	San José Chacayá	5	Chacayá	6	Junio	2023-11-06T00:00:00	2024-11-06T21:00:00	8	Radiación solar	0
101161	7	Sololá	702	San José Chacayá	5	Chacayá	6	Junio	2023-11-06T00:00:00	2024-11-06T22:00:00	2	Temperatura media	14.8
101162	7	Sololá	702	San José Chacayá	5	Chacayá	6	Junio	2023-11-06T00:00:00	2024-11-06T22:00:00	4	Temperatura máxima	16.2
101163	7	Sololá	702	San José Chacayá	5	Chacayá	6	Junio	2023-11-06T00:00:00	2024-11-06T22:00:00	3	Temperatura mínima	14.8
101164	7	Sololá	702	San José Chacayá	5	Chacayá	6	Junio	2023-11-06T00:00:00	2024-11-06T22:00:00	5	Humedad	92
101165	7	Sololá	702	San José Chacayá	5	Chacayá	6	Junio	2023-11-06T00:00:00	2024-11-06T22:00:00	6	Velocidad del viento	0
101166	7	Sololá	702	San José Chacayá	5	Chacayá	6	Junio	2023-11-06T00:00:00	2024-11-06T22:00:00	7	Dirección del viento	0
101167	7	Sololá	702	San José Chacayá	5	Chacayá	6	Junio	2023-11-06T00:00:00	2024-11-06T22:00:00	1	Precipitación	0
101168	7	Sololá	702	San José Chacayá	5	Chacayá	6	Junio	2023-11-06T00:00:00	2024-11-06T22:00:00	8	Radiación solar	0
101169	7	Sololá	702	San José Chacayá	5	Chacayá	6	Junio	2023-11-06T00:00:00	2024-11-06T23:00:00	2	Temperatura media	14.5
101170	7	Sololá	702	San José Chacayá	5	Chacayá	6	Junio	2023-11-06T00:00:00	2024-11-06T23:00:00	4	Temperatura máxima	14.8
101171	7	Sololá	702	San José Chacayá	5	Chacayá	6	Junio	2023-11-06T00:00:00	2024-11-06T23:00:00	3	Temperatura mínima	14.4
101172	7	Sololá	702	San José Chacayá	5	Chacayá	6	Junio	2023-11-06T00:00:00	2024-11-06T23:00:00	5	Humedad	91
101173	7	Sololá	702	San José Chacayá	5	Chacayá	6	Junio	2023-11-06T00:00:00	2024-11-06T23:00:00	6	Velocidad del viento	1.6
101174	7	Sololá	702	San José Chacayá	5	Chacayá	6	Junio	2023-11-06T00:00:00	2024-11-06T23:00:00	7	Dirección del viento	1.61
101175	7	Sololá	702	San José Chacayá	5	Chacayá	6	Junio	2023-11-06T00:00:00	2024-11-06T23:00:00	1	Precipitación	0
101176	7	Sololá	702	San José Chacayá	5	Chacayá	6	Junio	2023-11-06T00:00:00	2024-11-06T23:00:00	8	Radiación solar	0
101177	7	Sololá	702	San José Chacayá	5	Chacayá	6	Junio	2023-12-06T00:00:00	2024-11-06T00:00:00	2	Temperatura media	13.6
101178	7	Sololá	702	San José Chacayá	5	Chacayá	6	Junio	2023-12-06T00:00:00	2024-11-06T00:00:00	4	Temperatura máxima	14.5
101179	7	Sololá	702	San José Chacayá	5	Chacayá	6	Junio	2023-12-06T00:00:00	2024-11-06T00:00:00	3	Temperatura mínima	13.5
101180	7	Sololá	702	San José Chacayá	5	Chacayá	6	Junio	2023-12-06T00:00:00	2024-11-06T00:00:00	5	Humedad	92
101181	7	Sololá	702	San José Chacayá	5	Chacayá	6	Junio	2023-12-06T00:00:00	2024-11-06T00:00:00	6	Velocidad del viento	0
101182	7	Sololá	702	San José Chacayá	5	Chacayá	6	Junio	2023-12-06T00:00:00	2024-11-06T00:00:00	7	Dirección del viento	0
101183	7	Sololá	702	San José Chacayá	5	Chacayá	6	Junio	2023-12-06T00:00:00	2024-11-06T00:00:00	1	Precipitación	0
101184	7	Sololá	702	San José Chacayá	5	Chacayá	6	Junio	2023-12-06T00:00:00	2024-11-06T00:00:00	8	Radiación solar	0
101185	7	Sololá	702	San José Chacayá	5	Chacayá	6	Junio	2023-12-06T00:00:00	2024-11-06T01:00:00	2	Temperatura media	12.6
101186	7	Sololá	702	San José Chacayá	5	Chacayá	6	Junio	2023-12-06T00:00:00	2024-11-06T01:00:00	4	Temperatura máxima	13.6
101187	7	Sololá	702	San José Chacayá	5	Chacayá	6	Junio	2023-12-06T00:00:00	2024-11-06T01:00:00	3	Temperatura mínima	12.6
101188	7	Sololá	702	San José Chacayá	5	Chacayá	6	Junio	2023-12-06T00:00:00	2024-11-06T01:00:00	5	Humedad	92
101189	7	Sololá	702	San José Chacayá	5	Chacayá	6	Junio	2023-12-06T00:00:00	2024-11-06T01:00:00	6	Velocidad del viento	0
101190	7	Sololá	702	San José Chacayá	5	Chacayá	6	Junio	2023-12-06T00:00:00	2024-11-06T01:00:00	7	Dirección del viento	0
101191	7	Sololá	702	San José Chacayá	5	Chacayá	6	Junio	2023-12-06T00:00:00	2024-11-06T01:00:00	1	Precipitación	0
101192	7	Sololá	702	San José Chacayá	5	Chacayá	6	Junio	2023-12-06T00:00:00	2024-11-06T01:00:00	8	Radiación solar	0
101193	7	Sololá	702	San José Chacayá	5	Chacayá	6	Junio	2023-12-06T00:00:00	2024-11-06T02:00:00	2	Temperatura media	12.2
101194	7	Sololá	702	San José Chacayá	5	Chacayá	6	Junio	2023-12-06T00:00:00	2024-11-06T02:00:00	4	Temperatura máxima	12.6
101195	7	Sololá	702	San José Chacayá	5	Chacayá	6	Junio	2023-12-06T00:00:00	2024-11-06T02:00:00	3	Temperatura mínima	12.2
101196	7	Sololá	702	San José Chacayá	5	Chacayá	6	Junio	2023-12-06T00:00:00	2024-11-06T02:00:00	5	Humedad	93
101197	7	Sololá	702	San José Chacayá	5	Chacayá	6	Junio	2023-12-06T00:00:00	2024-11-06T02:00:00	6	Velocidad del viento	0
101198	7	Sololá	702	San José Chacayá	5	Chacayá	6	Junio	2023-12-06T00:00:00	2024-11-06T02:00:00	7	Dirección del viento	0
101199	7	Sololá	702	San José Chacayá	5	Chacayá	6	Junio	2023-12-06T00:00:00	2024-11-06T02:00:00	1	Precipitación	0
101200	7	Sololá	702	San José Chacayá	5	Chacayá	6	Junio	2023-12-06T00:00:00	2024-11-06T02:00:00	8	Radiación solar	0
101201	7	Sololá	702	San José Chacayá	5	Chacayá	6	Junio	2023-12-06T00:00:00	2024-11-06T03:00:00	2	Temperatura media	11.9
101202	7	Sololá	702	San José Chacayá	5	Chacayá	6	Junio	2023-12-06T00:00:00	2024-11-06T03:00:00	4	Temperatura máxima	12.2
101203	7	Sololá	702	San José Chacayá	5	Chacayá	6	Junio	2023-12-06T00:00:00	2024-11-06T03:00:00	3	Temperatura mínima	11.8
101204	7	Sololá	702	San José Chacayá	5	Chacayá	6	Junio	2023-12-06T00:00:00	2024-11-06T03:00:00	5	Humedad	93
101205	7	Sololá	702	San José Chacayá	5	Chacayá	6	Junio	2023-12-06T00:00:00	2024-11-06T03:00:00	6	Velocidad del viento	0
101206	7	Sololá	702	San José Chacayá	5	Chacayá	6	Junio	2023-12-06T00:00:00	2024-11-06T03:00:00	7	Dirección del viento	0
101207	7	Sololá	702	San José Chacayá	5	Chacayá	6	Junio	2023-12-06T00:00:00	2024-11-06T03:00:00	1	Precipitación	0
101208	7	Sololá	702	San José Chacayá	5	Chacayá	6	Junio	2023-12-06T00:00:00	2024-11-06T03:00:00	8	Radiación solar	0
101209	7	Sololá	702	San José Chacayá	5	Chacayá	6	Junio	2023-12-06T00:00:00	2024-11-06T04:00:00	2	Temperatura media	11.4
101210	7	Sololá	702	San José Chacayá	5	Chacayá	6	Junio	2023-12-06T00:00:00	2024-11-06T04:00:00	4	Temperatura máxima	11.9
101211	7	Sololá	702	San José Chacayá	5	Chacayá	6	Junio	2023-12-06T00:00:00	2024-11-06T04:00:00	3	Temperatura mínima	11.3
101212	7	Sololá	702	San José Chacayá	5	Chacayá	6	Junio	2023-12-06T00:00:00	2024-11-06T04:00:00	5	Humedad	92
101213	7	Sololá	702	San José Chacayá	5	Chacayá	6	Junio	2023-12-06T00:00:00	2024-11-06T04:00:00	6	Velocidad del viento	0
101214	7	Sololá	702	San José Chacayá	5	Chacayá	6	Junio	2023-12-06T00:00:00	2024-11-06T04:00:00	7	Dirección del viento	0
101215	7	Sololá	702	San José Chacayá	5	Chacayá	6	Junio	2023-12-06T00:00:00	2024-11-06T04:00:00	1	Precipitación	0
101216	7	Sololá	702	San José Chacayá	5	Chacayá	6	Junio	2023-12-06T00:00:00	2024-11-06T04:00:00	8	Radiación solar	0
101217	7	Sololá	702	San José Chacayá	5	Chacayá	6	Junio	2023-12-06T00:00:00	2024-11-06T05:00:00	2	Temperatura media	10.9
101218	7	Sololá	702	San José Chacayá	5	Chacayá	6	Junio	2023-12-06T00:00:00	2024-11-06T05:00:00	4	Temperatura máxima	11.4
101219	7	Sololá	702	San José Chacayá	5	Chacayá	6	Junio	2023-12-06T00:00:00	2024-11-06T05:00:00	3	Temperatura mínima	10.9
101220	7	Sololá	702	San José Chacayá	5	Chacayá	6	Junio	2023-12-06T00:00:00	2024-11-06T05:00:00	5	Humedad	92
101221	7	Sololá	702	San José Chacayá	5	Chacayá	6	Junio	2023-12-06T00:00:00	2024-11-06T05:00:00	6	Velocidad del viento	1.6
101222	7	Sololá	702	San José Chacayá	5	Chacayá	6	Junio	2023-12-06T00:00:00	2024-11-06T05:00:00	7	Dirección del viento	1.61
101223	7	Sololá	702	San José Chacayá	5	Chacayá	6	Junio	2023-12-06T00:00:00	2024-11-06T05:00:00	1	Precipitación	0
101224	7	Sololá	702	San José Chacayá	5	Chacayá	6	Junio	2023-12-06T00:00:00	2024-11-06T05:00:00	8	Radiación solar	0
101225	7	Sololá	702	San José Chacayá	5	Chacayá	6	Junio	2023-12-06T00:00:00	2024-11-06T06:00:00	2	Temperatura media	10.8
101226	7	Sololá	702	San José Chacayá	5	Chacayá	6	Junio	2023-12-06T00:00:00	2024-11-06T06:00:00	4	Temperatura máxima	10.9
101227	7	Sololá	702	San José Chacayá	5	Chacayá	6	Junio	2023-12-06T00:00:00	2024-11-06T06:00:00	3	Temperatura mínima	10.6
101228	7	Sololá	702	San José Chacayá	5	Chacayá	6	Junio	2023-12-06T00:00:00	2024-11-06T06:00:00	5	Humedad	92
101229	7	Sololá	702	San José Chacayá	5	Chacayá	6	Junio	2023-12-06T00:00:00	2024-11-06T06:00:00	6	Velocidad del viento	0
101230	7	Sololá	702	San José Chacayá	5	Chacayá	6	Junio	2023-12-06T00:00:00	2024-11-06T06:00:00	7	Dirección del viento	0
101231	7	Sololá	702	San José Chacayá	5	Chacayá	6	Junio	2023-12-06T00:00:00	2024-11-06T06:00:00	1	Precipitación	0
101232	7	Sololá	702	San José Chacayá	5	Chacayá	6	Junio	2023-12-06T00:00:00	2024-11-06T06:00:00	8	Radiación solar	2
101233	7	Sololá	702	San José Chacayá	5	Chacayá	6	Junio	2023-12-06T00:00:00	2024-11-06T07:00:00	2	Temperatura media	13.9
101234	7	Sololá	702	San José Chacayá	5	Chacayá	6	Junio	2023-12-06T00:00:00	2024-11-06T07:00:00	4	Temperatura máxima	13.9
101235	7	Sololá	702	San José Chacayá	5	Chacayá	6	Junio	2023-12-06T00:00:00	2024-11-06T07:00:00	3	Temperatura mínima	10.8
101236	7	Sololá	702	San José Chacayá	5	Chacayá	6	Junio	2023-12-06T00:00:00	2024-11-06T07:00:00	5	Humedad	89
101237	7	Sololá	702	San José Chacayá	5	Chacayá	6	Junio	2023-12-06T00:00:00	2024-11-06T07:00:00	6	Velocidad del viento	0
101238	7	Sololá	702	San José Chacayá	5	Chacayá	6	Junio	2023-12-06T00:00:00	2024-11-06T07:00:00	7	Dirección del viento	0
101239	7	Sololá	702	San José Chacayá	5	Chacayá	6	Junio	2023-12-06T00:00:00	2024-11-06T07:00:00	1	Precipitación	0
101240	7	Sololá	702	San José Chacayá	5	Chacayá	6	Junio	2023-12-06T00:00:00	2024-11-06T07:00:00	8	Radiación solar	25
101241	7	Sololá	702	San José Chacayá	5	Chacayá	6	Junio	2023-12-06T00:00:00	2024-11-06T08:00:00	2	Temperatura media	20.2
101242	7	Sololá	702	San José Chacayá	5	Chacayá	6	Junio	2023-12-06T00:00:00	2024-11-06T08:00:00	4	Temperatura máxima	20.2
101243	7	Sololá	702	San José Chacayá	5	Chacayá	6	Junio	2023-12-06T00:00:00	2024-11-06T08:00:00	3	Temperatura mínima	13.9
101244	7	Sololá	702	San José Chacayá	5	Chacayá	6	Junio	2023-12-06T00:00:00	2024-11-06T08:00:00	5	Humedad	65
101245	7	Sololá	702	San José Chacayá	5	Chacayá	6	Junio	2023-12-06T00:00:00	2024-11-06T08:00:00	6	Velocidad del viento	3.2
101246	7	Sololá	702	San José Chacayá	5	Chacayá	6	Junio	2023-12-06T00:00:00	2024-11-06T08:00:00	7	Dirección del viento	3.22
101247	7	Sololá	702	San José Chacayá	5	Chacayá	6	Junio	2023-12-06T00:00:00	2024-11-06T08:00:00	1	Precipitación	0
101248	7	Sololá	702	San José Chacayá	5	Chacayá	6	Junio	2023-12-06T00:00:00	2024-11-06T08:00:00	8	Radiación solar	89
101249	7	Sololá	702	San José Chacayá	5	Chacayá	6	Junio	2023-12-06T00:00:00	2024-11-06T09:00:00	2	Temperatura media	22.1
101250	7	Sololá	702	San José Chacayá	5	Chacayá	6	Junio	2023-12-06T00:00:00	2024-11-06T09:00:00	4	Temperatura máxima	22.1
101251	7	Sololá	702	San José Chacayá	5	Chacayá	6	Junio	2023-12-06T00:00:00	2024-11-06T09:00:00	3	Temperatura mínima	20.2
101252	7	Sololá	702	San José Chacayá	5	Chacayá	6	Junio	2023-12-06T00:00:00	2024-11-06T09:00:00	5	Humedad	58
101253	7	Sololá	702	San José Chacayá	5	Chacayá	6	Junio	2023-12-06T00:00:00	2024-11-06T09:00:00	6	Velocidad del viento	4.8
101254	7	Sololá	702	San José Chacayá	5	Chacayá	6	Junio	2023-12-06T00:00:00	2024-11-06T09:00:00	7	Dirección del viento	4.83
101255	7	Sololá	702	San José Chacayá	5	Chacayá	6	Junio	2023-12-06T00:00:00	2024-11-06T09:00:00	1	Precipitación	0
101256	7	Sololá	702	San José Chacayá	5	Chacayá	6	Junio	2023-12-06T00:00:00	2024-11-06T09:00:00	8	Radiación solar	168
101257	7	Sololá	702	San José Chacayá	5	Chacayá	6	Junio	2023-12-06T00:00:00	2024-11-06T10:00:00	2	Temperatura media	23.4
101258	7	Sololá	702	San José Chacayá	5	Chacayá	6	Junio	2023-12-06T00:00:00	2024-11-06T10:00:00	4	Temperatura máxima	23.6
101259	7	Sololá	702	San José Chacayá	5	Chacayá	6	Junio	2023-12-06T00:00:00	2024-11-06T10:00:00	3	Temperatura mínima	22.1
101260	7	Sololá	702	San José Chacayá	5	Chacayá	6	Junio	2023-12-06T00:00:00	2024-11-06T10:00:00	5	Humedad	51
101261	7	Sololá	702	San José Chacayá	5	Chacayá	6	Junio	2023-12-06T00:00:00	2024-11-06T10:00:00	6	Velocidad del viento	4.8
101262	7	Sololá	702	San José Chacayá	5	Chacayá	6	Junio	2023-12-06T00:00:00	2024-11-06T10:00:00	7	Dirección del viento	4.83
101263	7	Sololá	702	San José Chacayá	5	Chacayá	6	Junio	2023-12-06T00:00:00	2024-11-06T10:00:00	1	Precipitación	0
101264	7	Sololá	702	San José Chacayá	5	Chacayá	6	Junio	2023-12-06T00:00:00	2024-11-06T10:00:00	8	Radiación solar	461
101265	7	Sololá	702	San José Chacayá	5	Chacayá	6	Junio	2023-12-06T00:00:00	2024-11-06T11:00:00	2	Temperatura media	24.7
101266	7	Sololá	702	San José Chacayá	5	Chacayá	6	Junio	2023-12-06T00:00:00	2024-11-06T11:00:00	4	Temperatura máxima	24.8
101267	7	Sololá	702	San José Chacayá	5	Chacayá	6	Junio	2023-12-06T00:00:00	2024-11-06T11:00:00	3	Temperatura mínima	23.4
101268	7	Sololá	702	San José Chacayá	5	Chacayá	6	Junio	2023-12-06T00:00:00	2024-11-06T11:00:00	5	Humedad	48
101269	7	Sololá	702	San José Chacayá	5	Chacayá	6	Junio	2023-12-06T00:00:00	2024-11-06T11:00:00	6	Velocidad del viento	4.8
101270	7	Sololá	702	San José Chacayá	5	Chacayá	6	Junio	2023-12-06T00:00:00	2024-11-06T11:00:00	7	Dirección del viento	4.83
101271	7	Sololá	702	San José Chacayá	5	Chacayá	6	Junio	2023-12-06T00:00:00	2024-11-06T11:00:00	1	Precipitación	0
101272	7	Sololá	702	San José Chacayá	5	Chacayá	6	Junio	2023-12-06T00:00:00	2024-11-06T11:00:00	8	Radiación solar	473
101273	7	Sololá	702	San José Chacayá	5	Chacayá	6	Junio	2023-12-06T00:00:00	2024-11-06T12:00:00	2	Temperatura media	25.7
101274	7	Sololá	702	San José Chacayá	5	Chacayá	6	Junio	2023-12-06T00:00:00	2024-11-06T12:00:00	4	Temperatura máxima	25.8
101275	7	Sololá	702	San José Chacayá	5	Chacayá	6	Junio	2023-12-06T00:00:00	2024-11-06T12:00:00	3	Temperatura mínima	24.7
101276	7	Sololá	702	San José Chacayá	5	Chacayá	6	Junio	2023-12-06T00:00:00	2024-11-06T12:00:00	5	Humedad	46
101277	7	Sololá	702	San José Chacayá	5	Chacayá	6	Junio	2023-12-06T00:00:00	2024-11-06T12:00:00	6	Velocidad del viento	6.4
101278	7	Sololá	702	San José Chacayá	5	Chacayá	6	Junio	2023-12-06T00:00:00	2024-11-06T12:00:00	7	Dirección del viento	6.44
101279	7	Sololá	702	San José Chacayá	5	Chacayá	6	Junio	2023-12-06T00:00:00	2024-11-06T12:00:00	1	Precipitación	0
101280	7	Sololá	702	San José Chacayá	5	Chacayá	6	Junio	2023-12-06T00:00:00	2024-11-06T12:00:00	8	Radiación solar	747
101281	7	Sololá	702	San José Chacayá	5	Chacayá	6	Junio	2023-12-06T00:00:00	2024-11-06T13:00:00	2	Temperatura media	25.6
101282	7	Sololá	702	San José Chacayá	5	Chacayá	6	Junio	2023-12-06T00:00:00	2024-11-06T13:00:00	4	Temperatura máxima	25.7
101283	7	Sololá	702	San José Chacayá	5	Chacayá	6	Junio	2023-12-06T00:00:00	2024-11-06T13:00:00	3	Temperatura mínima	24
101284	7	Sololá	702	San José Chacayá	5	Chacayá	6	Junio	2023-12-06T00:00:00	2024-11-06T13:00:00	5	Humedad	60
101285	7	Sololá	702	San José Chacayá	5	Chacayá	6	Junio	2023-12-06T00:00:00	2024-11-06T13:00:00	6	Velocidad del viento	6.4
101286	7	Sololá	702	San José Chacayá	5	Chacayá	6	Junio	2023-12-06T00:00:00	2024-11-06T13:00:00	7	Dirección del viento	6.44
101287	7	Sololá	702	San José Chacayá	5	Chacayá	6	Junio	2023-12-06T00:00:00	2024-11-06T13:00:00	1	Precipitación	0
101288	7	Sololá	702	San José Chacayá	5	Chacayá	6	Junio	2023-12-06T00:00:00	2024-11-06T13:00:00	8	Radiación solar	892
101289	7	Sololá	702	San José Chacayá	5	Chacayá	6	Junio	2023-12-06T00:00:00	2024-11-06T14:00:00	2	Temperatura media	24.8
101290	7	Sololá	702	San José Chacayá	5	Chacayá	6	Junio	2023-12-06T00:00:00	2024-11-06T14:00:00	4	Temperatura máxima	25.9
101291	7	Sololá	702	San José Chacayá	5	Chacayá	6	Junio	2023-12-06T00:00:00	2024-11-06T14:00:00	3	Temperatura mínima	24.7
101292	7	Sololá	702	San José Chacayá	5	Chacayá	6	Junio	2023-12-06T00:00:00	2024-11-06T14:00:00	5	Humedad	69
101293	7	Sololá	702	San José Chacayá	5	Chacayá	6	Junio	2023-12-06T00:00:00	2024-11-06T14:00:00	6	Velocidad del viento	4.8
101294	7	Sololá	702	San José Chacayá	5	Chacayá	6	Junio	2023-12-06T00:00:00	2024-11-06T14:00:00	7	Dirección del viento	4.83
101295	7	Sololá	702	San José Chacayá	5	Chacayá	6	Junio	2023-12-06T00:00:00	2024-11-06T14:00:00	1	Precipitación	0
101296	7	Sololá	702	San José Chacayá	5	Chacayá	6	Junio	2023-12-06T00:00:00	2024-11-06T14:00:00	8	Radiación solar	789
101297	7	Sololá	702	San José Chacayá	5	Chacayá	6	Junio	2023-12-06T00:00:00	2024-11-06T15:00:00	2	Temperatura media	23.3
101298	7	Sololá	702	San José Chacayá	5	Chacayá	6	Junio	2023-12-06T00:00:00	2024-11-06T15:00:00	4	Temperatura máxima	25.1
101299	7	Sololá	702	San José Chacayá	5	Chacayá	6	Junio	2023-12-06T00:00:00	2024-11-06T15:00:00	3	Temperatura mínima	23.3
101300	7	Sololá	702	San José Chacayá	5	Chacayá	6	Junio	2023-12-06T00:00:00	2024-11-06T15:00:00	5	Humedad	71
101301	7	Sololá	702	San José Chacayá	5	Chacayá	6	Junio	2023-12-06T00:00:00	2024-11-06T15:00:00	6	Velocidad del viento	4.8
101302	7	Sololá	702	San José Chacayá	5	Chacayá	6	Junio	2023-12-06T00:00:00	2024-11-06T15:00:00	7	Dirección del viento	4.83
101303	7	Sololá	702	San José Chacayá	5	Chacayá	6	Junio	2023-12-06T00:00:00	2024-11-06T15:00:00	1	Precipitación	0
101304	7	Sololá	702	San José Chacayá	5	Chacayá	6	Junio	2023-12-06T00:00:00	2024-11-06T15:00:00	8	Radiación solar	257
101305	7	Sololá	702	San José Chacayá	5	Chacayá	6	Junio	2023-12-06T00:00:00	2024-11-06T16:00:00	2	Temperatura media	22.2
101306	7	Sololá	702	San José Chacayá	5	Chacayá	6	Junio	2023-12-06T00:00:00	2024-11-06T16:00:00	4	Temperatura máxima	23.3
101307	7	Sololá	702	San José Chacayá	5	Chacayá	6	Junio	2023-12-06T00:00:00	2024-11-06T16:00:00	3	Temperatura mínima	22.1
101308	7	Sololá	702	San José Chacayá	5	Chacayá	6	Junio	2023-12-06T00:00:00	2024-11-06T16:00:00	5	Humedad	75
101309	7	Sololá	702	San José Chacayá	5	Chacayá	6	Junio	2023-12-06T00:00:00	2024-11-06T16:00:00	6	Velocidad del viento	4.8
101310	7	Sololá	702	San José Chacayá	5	Chacayá	6	Junio	2023-12-06T00:00:00	2024-11-06T16:00:00	7	Dirección del viento	4.83
101311	7	Sololá	702	San José Chacayá	5	Chacayá	6	Junio	2023-12-06T00:00:00	2024-11-06T16:00:00	1	Precipitación	0
101312	7	Sololá	702	San José Chacayá	5	Chacayá	6	Junio	2023-12-06T00:00:00	2024-11-06T16:00:00	8	Radiación solar	20
101313	7	Sololá	702	San José Chacayá	5	Chacayá	6	Junio	2023-12-06T00:00:00	2024-11-06T17:00:00	2	Temperatura media	19.9
101314	7	Sololá	702	San José Chacayá	5	Chacayá	6	Junio	2023-12-06T00:00:00	2024-11-06T17:00:00	4	Temperatura máxima	22.3
101315	7	Sololá	702	San José Chacayá	5	Chacayá	6	Junio	2023-12-06T00:00:00	2024-11-06T17:00:00	3	Temperatura mínima	19.9
101316	7	Sololá	702	San José Chacayá	5	Chacayá	6	Junio	2023-12-06T00:00:00	2024-11-06T17:00:00	5	Humedad	83
101317	7	Sololá	702	San José Chacayá	5	Chacayá	6	Junio	2023-12-06T00:00:00	2024-11-06T17:00:00	6	Velocidad del viento	3.2
101318	7	Sololá	702	San José Chacayá	5	Chacayá	6	Junio	2023-12-06T00:00:00	2024-11-06T17:00:00	7	Dirección del viento	3.22
101319	7	Sololá	702	San José Chacayá	5	Chacayá	6	Junio	2023-12-06T00:00:00	2024-11-06T17:00:00	1	Precipitación	0
101320	7	Sololá	702	San José Chacayá	5	Chacayá	6	Junio	2023-12-06T00:00:00	2024-11-06T17:00:00	8	Radiación solar	7
101321	7	Sololá	702	San José Chacayá	5	Chacayá	6	Junio	2023-12-06T00:00:00	2024-11-06T18:00:00	2	Temperatura media	18.7
101322	7	Sololá	702	San José Chacayá	5	Chacayá	6	Junio	2023-12-06T00:00:00	2024-11-06T18:00:00	4	Temperatura máxima	19.9
101323	7	Sololá	702	San José Chacayá	5	Chacayá	6	Junio	2023-12-06T00:00:00	2024-11-06T18:00:00	3	Temperatura mínima	18.7
101324	7	Sololá	702	San José Chacayá	5	Chacayá	6	Junio	2023-12-06T00:00:00	2024-11-06T18:00:00	5	Humedad	87
101325	7	Sololá	702	San José Chacayá	5	Chacayá	6	Junio	2023-12-06T00:00:00	2024-11-06T18:00:00	6	Velocidad del viento	3.2
101326	7	Sololá	702	San José Chacayá	5	Chacayá	6	Junio	2023-12-06T00:00:00	2024-11-06T18:00:00	7	Dirección del viento	3.22
101327	7	Sololá	702	San José Chacayá	5	Chacayá	6	Junio	2023-12-06T00:00:00	2024-11-06T18:00:00	1	Precipitación	0
101328	7	Sololá	702	San José Chacayá	5	Chacayá	6	Junio	2023-12-06T00:00:00	2024-11-06T18:00:00	8	Radiación solar	14
101329	7	Sololá	702	San José Chacayá	5	Chacayá	6	Junio	2023-12-06T00:00:00	2024-11-06T19:00:00	2	Temperatura media	18.2
101330	7	Sololá	702	San José Chacayá	5	Chacayá	6	Junio	2023-12-06T00:00:00	2024-11-06T19:00:00	4	Temperatura máxima	18.8
101331	7	Sololá	702	San José Chacayá	5	Chacayá	6	Junio	2023-12-06T00:00:00	2024-11-06T19:00:00	3	Temperatura mínima	18.1
101332	7	Sololá	702	San José Chacayá	5	Chacayá	6	Junio	2023-12-06T00:00:00	2024-11-06T19:00:00	5	Humedad	88
101333	7	Sololá	702	San José Chacayá	5	Chacayá	6	Junio	2023-12-06T00:00:00	2024-11-06T19:00:00	6	Velocidad del viento	1.6
101334	7	Sololá	702	San José Chacayá	5	Chacayá	6	Junio	2023-12-06T00:00:00	2024-11-06T19:00:00	7	Dirección del viento	1.61
101335	7	Sololá	702	San José Chacayá	5	Chacayá	6	Junio	2023-12-06T00:00:00	2024-11-06T19:00:00	1	Precipitación	0
101336	7	Sololá	702	San José Chacayá	5	Chacayá	6	Junio	2023-12-06T00:00:00	2024-11-06T19:00:00	8	Radiación solar	0
101337	7	Sololá	702	San José Chacayá	5	Chacayá	6	Junio	2023-12-06T00:00:00	2024-11-06T20:00:00	2	Temperatura media	17.5
101338	7	Sololá	702	San José Chacayá	5	Chacayá	6	Junio	2023-12-06T00:00:00	2024-11-06T20:00:00	4	Temperatura máxima	18.2
101339	7	Sololá	702	San José Chacayá	5	Chacayá	6	Junio	2023-12-06T00:00:00	2024-11-06T20:00:00	3	Temperatura mínima	17.5
101340	7	Sololá	702	San José Chacayá	5	Chacayá	6	Junio	2023-12-06T00:00:00	2024-11-06T20:00:00	5	Humedad	90
101341	7	Sololá	702	San José Chacayá	5	Chacayá	6	Junio	2023-12-06T00:00:00	2024-11-06T20:00:00	6	Velocidad del viento	0
101342	7	Sololá	702	San José Chacayá	5	Chacayá	6	Junio	2023-12-06T00:00:00	2024-11-06T20:00:00	7	Dirección del viento	0
101343	7	Sololá	702	San José Chacayá	5	Chacayá	6	Junio	2023-12-06T00:00:00	2024-11-06T20:00:00	1	Precipitación	0
101344	7	Sololá	702	San José Chacayá	5	Chacayá	6	Junio	2023-12-06T00:00:00	2024-11-06T20:00:00	8	Radiación solar	0
101345	7	Sololá	702	San José Chacayá	5	Chacayá	6	Junio	2023-12-06T00:00:00	2024-11-06T21:00:00	2	Temperatura media	16.4
101346	7	Sololá	702	San José Chacayá	5	Chacayá	6	Junio	2023-12-06T00:00:00	2024-11-06T21:00:00	4	Temperatura máxima	17.6
101347	7	Sololá	702	San José Chacayá	5	Chacayá	6	Junio	2023-12-06T00:00:00	2024-11-06T21:00:00	3	Temperatura mínima	16.4
101348	7	Sololá	702	San José Chacayá	5	Chacayá	6	Junio	2023-12-06T00:00:00	2024-11-06T21:00:00	5	Humedad	87
101349	7	Sololá	702	San José Chacayá	5	Chacayá	6	Junio	2023-12-06T00:00:00	2024-11-06T21:00:00	6	Velocidad del viento	0
101350	7	Sololá	702	San José Chacayá	5	Chacayá	6	Junio	2023-12-06T00:00:00	2024-11-06T21:00:00	7	Dirección del viento	0
101351	7	Sololá	702	San José Chacayá	5	Chacayá	6	Junio	2023-12-06T00:00:00	2024-11-06T21:00:00	1	Precipitación	0
101352	7	Sololá	702	San José Chacayá	5	Chacayá	6	Junio	2023-12-06T00:00:00	2024-11-06T21:00:00	8	Radiación solar	0
101353	7	Sololá	702	San José Chacayá	5	Chacayá	6	Junio	2023-12-06T00:00:00	2024-11-06T22:00:00	2	Temperatura media	15.4
101354	7	Sololá	702	San José Chacayá	5	Chacayá	6	Junio	2023-12-06T00:00:00	2024-11-06T22:00:00	4	Temperatura máxima	16.4
101355	7	Sololá	702	San José Chacayá	5	Chacayá	6	Junio	2023-12-06T00:00:00	2024-11-06T22:00:00	3	Temperatura mínima	15.4
101356	7	Sololá	702	San José Chacayá	5	Chacayá	6	Junio	2023-12-06T00:00:00	2024-11-06T22:00:00	5	Humedad	90
101357	7	Sololá	702	San José Chacayá	5	Chacayá	6	Junio	2023-12-06T00:00:00	2024-11-06T22:00:00	6	Velocidad del viento	0
101358	7	Sololá	702	San José Chacayá	5	Chacayá	6	Junio	2023-12-06T00:00:00	2024-11-06T22:00:00	7	Dirección del viento	0
101359	7	Sololá	702	San José Chacayá	5	Chacayá	6	Junio	2023-12-06T00:00:00	2024-11-06T22:00:00	1	Precipitación	0
101360	7	Sololá	702	San José Chacayá	5	Chacayá	6	Junio	2023-12-06T00:00:00	2024-11-06T22:00:00	8	Radiación solar	0
101361	7	Sololá	702	San José Chacayá	5	Chacayá	6	Junio	2023-12-06T00:00:00	2024-11-06T23:00:00	2	Temperatura media	15.5
101362	7	Sololá	702	San José Chacayá	5	Chacayá	6	Junio	2023-12-06T00:00:00	2024-11-06T23:00:00	4	Temperatura máxima	15.8
101363	7	Sololá	702	San José Chacayá	5	Chacayá	6	Junio	2023-12-06T00:00:00	2024-11-06T23:00:00	3	Temperatura mínima	15.4
101364	7	Sololá	702	San José Chacayá	5	Chacayá	6	Junio	2023-12-06T00:00:00	2024-11-06T23:00:00	5	Humedad	87
101365	7	Sololá	702	San José Chacayá	5	Chacayá	6	Junio	2023-12-06T00:00:00	2024-11-06T23:00:00	6	Velocidad del viento	0
101366	7	Sololá	702	San José Chacayá	5	Chacayá	6	Junio	2023-12-06T00:00:00	2024-11-06T23:00:00	7	Dirección del viento	0
101367	7	Sololá	702	San José Chacayá	5	Chacayá	6	Junio	2023-12-06T00:00:00	2024-11-06T23:00:00	1	Precipitación	0
101368	7	Sololá	702	San José Chacayá	5	Chacayá	6	Junio	2023-12-06T00:00:00	2024-11-06T23:00:00	8	Radiación solar	0
101369	7	Sololá	702	San José Chacayá	5	Chacayá	6	Junio	2023-06-13T00:00:00	2024-11-06T00:00:00	2	Temperatura media	14.3
101370	7	Sololá	702	San José Chacayá	5	Chacayá	6	Junio	2023-06-13T00:00:00	2024-11-06T00:00:00	4	Temperatura máxima	15.5
101371	7	Sololá	702	San José Chacayá	5	Chacayá	6	Junio	2023-06-13T00:00:00	2024-11-06T00:00:00	3	Temperatura mínima	14.3
101372	7	Sololá	702	San José Chacayá	5	Chacayá	6	Junio	2023-06-13T00:00:00	2024-11-06T00:00:00	5	Humedad	90
101373	7	Sololá	702	San José Chacayá	5	Chacayá	6	Junio	2023-06-13T00:00:00	2024-11-06T00:00:00	6	Velocidad del viento	0
101374	7	Sololá	702	San José Chacayá	5	Chacayá	6	Junio	2023-06-13T00:00:00	2024-11-06T00:00:00	7	Dirección del viento	0
101375	7	Sololá	702	San José Chacayá	5	Chacayá	6	Junio	2023-06-13T00:00:00	2024-11-06T00:00:00	1	Precipitación	0
101376	7	Sololá	702	San José Chacayá	5	Chacayá	6	Junio	2023-06-13T00:00:00	2024-11-06T00:00:00	8	Radiación solar	0
101377	7	Sololá	702	San José Chacayá	5	Chacayá	6	Junio	2023-06-13T00:00:00	2024-11-06T01:00:00	2	Temperatura media	13.4
101378	7	Sololá	702	San José Chacayá	5	Chacayá	6	Junio	2023-06-13T00:00:00	2024-11-06T01:00:00	4	Temperatura máxima	14.3
101379	7	Sololá	702	San José Chacayá	5	Chacayá	6	Junio	2023-06-13T00:00:00	2024-11-06T01:00:00	3	Temperatura mínima	13.4
101380	7	Sololá	702	San José Chacayá	5	Chacayá	6	Junio	2023-06-13T00:00:00	2024-11-06T01:00:00	5	Humedad	92
101381	7	Sololá	702	San José Chacayá	5	Chacayá	6	Junio	2023-06-13T00:00:00	2024-11-06T01:00:00	6	Velocidad del viento	0
101382	7	Sololá	702	San José Chacayá	5	Chacayá	6	Junio	2023-06-13T00:00:00	2024-11-06T01:00:00	7	Dirección del viento	0
101383	7	Sololá	702	San José Chacayá	5	Chacayá	6	Junio	2023-06-13T00:00:00	2024-11-06T01:00:00	1	Precipitación	0
101384	7	Sololá	702	San José Chacayá	5	Chacayá	6	Junio	2023-06-13T00:00:00	2024-11-06T01:00:00	8	Radiación solar	0
101385	7	Sololá	702	San José Chacayá	5	Chacayá	6	Junio	2023-06-13T00:00:00	2024-11-06T02:00:00	2	Temperatura media	12.6
101386	7	Sololá	702	San José Chacayá	5	Chacayá	6	Junio	2023-06-13T00:00:00	2024-11-06T02:00:00	4	Temperatura máxima	13.4
101387	7	Sololá	702	San José Chacayá	5	Chacayá	6	Junio	2023-06-13T00:00:00	2024-11-06T02:00:00	3	Temperatura mínima	12.6
101388	7	Sololá	702	San José Chacayá	5	Chacayá	6	Junio	2023-06-13T00:00:00	2024-11-06T02:00:00	5	Humedad	92
101389	7	Sololá	702	San José Chacayá	5	Chacayá	6	Junio	2023-06-13T00:00:00	2024-11-06T02:00:00	6	Velocidad del viento	0
101390	7	Sololá	702	San José Chacayá	5	Chacayá	6	Junio	2023-06-13T00:00:00	2024-11-06T02:00:00	7	Dirección del viento	0
101391	7	Sololá	702	San José Chacayá	5	Chacayá	6	Junio	2023-06-13T00:00:00	2024-11-06T02:00:00	1	Precipitación	0
101392	7	Sololá	702	San José Chacayá	5	Chacayá	6	Junio	2023-06-13T00:00:00	2024-11-06T02:00:00	8	Radiación solar	0
101393	7	Sololá	702	San José Chacayá	5	Chacayá	6	Junio	2023-06-13T00:00:00	2024-11-06T03:00:00	2	Temperatura media	12.1
101394	7	Sololá	702	San José Chacayá	5	Chacayá	6	Junio	2023-06-13T00:00:00	2024-11-06T03:00:00	4	Temperatura máxima	12.6
101395	7	Sololá	702	San José Chacayá	5	Chacayá	6	Junio	2023-06-13T00:00:00	2024-11-06T03:00:00	3	Temperatura mínima	12.1
101396	7	Sololá	702	San José Chacayá	5	Chacayá	6	Junio	2023-06-13T00:00:00	2024-11-06T03:00:00	5	Humedad	90
101397	7	Sololá	702	San José Chacayá	5	Chacayá	6	Junio	2023-06-13T00:00:00	2024-11-06T03:00:00	6	Velocidad del viento	1.6
101398	7	Sololá	702	San José Chacayá	5	Chacayá	6	Junio	2023-06-13T00:00:00	2024-11-06T03:00:00	7	Dirección del viento	1.61
101399	7	Sololá	702	San José Chacayá	5	Chacayá	6	Junio	2023-06-13T00:00:00	2024-11-06T03:00:00	1	Precipitación	0
101400	7	Sololá	702	San José Chacayá	5	Chacayá	6	Junio	2023-06-13T00:00:00	2024-11-06T03:00:00	8	Radiación solar	0
101401	7	Sololá	702	San José Chacayá	5	Chacayá	6	Junio	2023-06-13T00:00:00	2024-11-06T04:00:00	2	Temperatura media	11.1
101402	7	Sololá	702	San José Chacayá	5	Chacayá	6	Junio	2023-06-13T00:00:00	2024-11-06T04:00:00	4	Temperatura máxima	12.1
101403	7	Sololá	702	San José Chacayá	5	Chacayá	6	Junio	2023-06-13T00:00:00	2024-11-06T04:00:00	3	Temperatura mínima	11.1
101404	7	Sololá	702	San José Chacayá	5	Chacayá	6	Junio	2023-06-13T00:00:00	2024-11-06T04:00:00	5	Humedad	87
101405	7	Sololá	702	San José Chacayá	5	Chacayá	6	Junio	2023-06-13T00:00:00	2024-11-06T04:00:00	6	Velocidad del viento	1.6
101406	7	Sololá	702	San José Chacayá	5	Chacayá	6	Junio	2023-06-13T00:00:00	2024-11-06T04:00:00	7	Dirección del viento	1.61
101407	7	Sololá	702	San José Chacayá	5	Chacayá	6	Junio	2023-06-13T00:00:00	2024-11-06T04:00:00	1	Precipitación	0
101408	7	Sololá	702	San José Chacayá	5	Chacayá	6	Junio	2023-06-13T00:00:00	2024-11-06T04:00:00	8	Radiación solar	0
101409	7	Sololá	702	San José Chacayá	5	Chacayá	6	Junio	2023-06-13T00:00:00	2024-11-06T05:00:00	2	Temperatura media	11.2
101410	7	Sololá	702	San José Chacayá	5	Chacayá	6	Junio	2023-06-13T00:00:00	2024-11-06T05:00:00	4	Temperatura máxima	11.2
101411	7	Sololá	702	San José Chacayá	5	Chacayá	6	Junio	2023-06-13T00:00:00	2024-11-06T05:00:00	3	Temperatura mínima	10.6
101412	7	Sololá	702	San José Chacayá	5	Chacayá	6	Junio	2023-06-13T00:00:00	2024-11-06T05:00:00	5	Humedad	82
101413	7	Sololá	702	San José Chacayá	5	Chacayá	6	Junio	2023-06-13T00:00:00	2024-11-06T05:00:00	6	Velocidad del viento	1.6
101414	7	Sololá	702	San José Chacayá	5	Chacayá	6	Junio	2023-06-13T00:00:00	2024-11-06T05:00:00	7	Dirección del viento	1.61
101415	7	Sololá	702	San José Chacayá	5	Chacayá	6	Junio	2023-06-13T00:00:00	2024-11-06T05:00:00	1	Precipitación	0
101416	7	Sololá	702	San José Chacayá	5	Chacayá	6	Junio	2023-06-13T00:00:00	2024-11-06T05:00:00	8	Radiación solar	0
101417	7	Sololá	702	San José Chacayá	5	Chacayá	6	Junio	2023-06-13T00:00:00	2024-11-06T06:00:00	2	Temperatura media	11.2
101418	7	Sololá	702	San José Chacayá	5	Chacayá	6	Junio	2023-06-13T00:00:00	2024-11-06T06:00:00	4	Temperatura máxima	11.3
101419	7	Sololá	702	San José Chacayá	5	Chacayá	6	Junio	2023-06-13T00:00:00	2024-11-06T06:00:00	3	Temperatura mínima	11.1
101420	7	Sololá	702	San José Chacayá	5	Chacayá	6	Junio	2023-06-13T00:00:00	2024-11-06T06:00:00	5	Humedad	82
101421	7	Sololá	702	San José Chacayá	5	Chacayá	6	Junio	2023-06-13T00:00:00	2024-11-06T06:00:00	6	Velocidad del viento	1.6
101422	7	Sololá	702	San José Chacayá	5	Chacayá	6	Junio	2023-06-13T00:00:00	2024-11-06T06:00:00	7	Dirección del viento	1.61
101423	7	Sololá	702	San José Chacayá	5	Chacayá	6	Junio	2023-06-13T00:00:00	2024-11-06T06:00:00	1	Precipitación	0
101424	7	Sololá	702	San José Chacayá	5	Chacayá	6	Junio	2023-06-13T00:00:00	2024-11-06T06:00:00	8	Radiación solar	5
101425	7	Sololá	702	San José Chacayá	5	Chacayá	6	Junio	2023-06-13T00:00:00	2024-11-06T07:00:00	2	Temperatura media	12.8
101426	7	Sololá	702	San José Chacayá	5	Chacayá	6	Junio	2023-06-13T00:00:00	2024-11-06T07:00:00	4	Temperatura máxima	12.8
101427	7	Sololá	702	San José Chacayá	5	Chacayá	6	Junio	2023-06-13T00:00:00	2024-11-06T07:00:00	3	Temperatura mínima	11.1
101428	7	Sololá	702	San José Chacayá	5	Chacayá	6	Junio	2023-06-13T00:00:00	2024-11-06T07:00:00	5	Humedad	85
101429	7	Sololá	702	San José Chacayá	5	Chacayá	6	Junio	2023-06-13T00:00:00	2024-11-06T07:00:00	6	Velocidad del viento	0
101430	7	Sololá	702	San José Chacayá	5	Chacayá	6	Junio	2023-06-13T00:00:00	2024-11-06T07:00:00	7	Dirección del viento	0
101431	7	Sololá	702	San José Chacayá	5	Chacayá	6	Junio	2023-06-13T00:00:00	2024-11-06T07:00:00	1	Precipitación	0
101432	7	Sololá	702	San José Chacayá	5	Chacayá	6	Junio	2023-06-13T00:00:00	2024-11-06T07:00:00	8	Radiación solar	34
101433	7	Sololá	702	San José Chacayá	5	Chacayá	6	Junio	2023-06-13T00:00:00	2024-11-06T08:00:00	2	Temperatura media	19.2
101434	7	Sololá	702	San José Chacayá	5	Chacayá	6	Junio	2023-06-13T00:00:00	2024-11-06T08:00:00	4	Temperatura máxima	19.2
101435	7	Sololá	702	San José Chacayá	5	Chacayá	6	Junio	2023-06-13T00:00:00	2024-11-06T08:00:00	3	Temperatura mínima	12.8
101436	7	Sololá	702	San José Chacayá	5	Chacayá	6	Junio	2023-06-13T00:00:00	2024-11-06T08:00:00	5	Humedad	63
101437	7	Sololá	702	San José Chacayá	5	Chacayá	6	Junio	2023-06-13T00:00:00	2024-11-06T08:00:00	6	Velocidad del viento	3.2
101438	7	Sololá	702	San José Chacayá	5	Chacayá	6	Junio	2023-06-13T00:00:00	2024-11-06T08:00:00	7	Dirección del viento	3.22
101439	7	Sololá	702	San José Chacayá	5	Chacayá	6	Junio	2023-06-13T00:00:00	2024-11-06T08:00:00	1	Precipitación	0
101440	7	Sololá	702	San José Chacayá	5	Chacayá	6	Junio	2023-06-13T00:00:00	2024-11-06T08:00:00	8	Radiación solar	141
101441	7	Sololá	702	San José Chacayá	5	Chacayá	6	Junio	2023-06-13T00:00:00	2024-11-06T09:00:00	2	Temperatura media	21.7
101442	7	Sololá	702	San José Chacayá	5	Chacayá	6	Junio	2023-06-13T00:00:00	2024-11-06T09:00:00	4	Temperatura máxima	21.7
101443	7	Sololá	702	San José Chacayá	5	Chacayá	6	Junio	2023-06-13T00:00:00	2024-11-06T09:00:00	3	Temperatura mínima	19.2
101444	7	Sololá	702	San José Chacayá	5	Chacayá	6	Junio	2023-06-13T00:00:00	2024-11-06T09:00:00	5	Humedad	55
101445	7	Sololá	702	San José Chacayá	5	Chacayá	6	Junio	2023-06-13T00:00:00	2024-11-06T09:00:00	6	Velocidad del viento	3.2
101446	7	Sololá	702	San José Chacayá	5	Chacayá	6	Junio	2023-06-13T00:00:00	2024-11-06T09:00:00	7	Dirección del viento	3.22
101447	7	Sololá	702	San José Chacayá	5	Chacayá	6	Junio	2023-06-13T00:00:00	2024-11-06T09:00:00	1	Precipitación	0
101448	7	Sololá	702	San José Chacayá	5	Chacayá	6	Junio	2023-06-13T00:00:00	2024-11-06T09:00:00	8	Radiación solar	577
101449	7	Sololá	702	San José Chacayá	5	Chacayá	6	Junio	2023-06-13T00:00:00	2024-11-06T10:00:00	2	Temperatura media	23.8
101450	7	Sololá	702	San José Chacayá	5	Chacayá	6	Junio	2023-06-13T00:00:00	2024-11-06T10:00:00	4	Temperatura máxima	23.8
101451	7	Sololá	702	San José Chacayá	5	Chacayá	6	Junio	2023-06-13T00:00:00	2024-11-06T10:00:00	3	Temperatura mínima	21.7
101452	7	Sololá	702	San José Chacayá	5	Chacayá	6	Junio	2023-06-13T00:00:00	2024-11-06T10:00:00	5	Humedad	52
101453	7	Sololá	702	San José Chacayá	5	Chacayá	6	Junio	2023-06-13T00:00:00	2024-11-06T10:00:00	6	Velocidad del viento	4.8
101454	7	Sololá	702	San José Chacayá	5	Chacayá	6	Junio	2023-06-13T00:00:00	2024-11-06T10:00:00	7	Dirección del viento	4.83
101455	7	Sololá	702	San José Chacayá	5	Chacayá	6	Junio	2023-06-13T00:00:00	2024-11-06T10:00:00	1	Precipitación	0
101456	7	Sololá	702	San José Chacayá	5	Chacayá	6	Junio	2023-06-13T00:00:00	2024-11-06T10:00:00	8	Radiación solar	773
101457	7	Sololá	702	San José Chacayá	5	Chacayá	6	Junio	2023-06-13T00:00:00	2024-11-06T11:00:00	2	Temperatura media	24.6
101458	7	Sololá	702	San José Chacayá	5	Chacayá	6	Junio	2023-06-13T00:00:00	2024-11-06T11:00:00	4	Temperatura máxima	24.6
101459	7	Sololá	702	San José Chacayá	5	Chacayá	6	Junio	2023-06-13T00:00:00	2024-11-06T11:00:00	3	Temperatura mínima	23.7
101460	7	Sololá	702	San José Chacayá	5	Chacayá	6	Junio	2023-06-13T00:00:00	2024-11-06T11:00:00	5	Humedad	49
101461	7	Sololá	702	San José Chacayá	5	Chacayá	6	Junio	2023-06-13T00:00:00	2024-11-06T11:00:00	6	Velocidad del viento	4.8
101462	7	Sololá	702	San José Chacayá	5	Chacayá	6	Junio	2023-06-13T00:00:00	2024-11-06T11:00:00	7	Dirección del viento	4.83
101463	7	Sololá	702	San José Chacayá	5	Chacayá	6	Junio	2023-06-13T00:00:00	2024-11-06T11:00:00	1	Precipitación	0
101464	7	Sololá	702	San José Chacayá	5	Chacayá	6	Junio	2023-06-13T00:00:00	2024-11-06T11:00:00	8	Radiación solar	944
101465	7	Sololá	702	San José Chacayá	5	Chacayá	6	Junio	2023-06-13T00:00:00	2024-11-06T12:00:00	2	Temperatura media	25.9
101466	7	Sololá	702	San José Chacayá	5	Chacayá	6	Junio	2023-06-13T00:00:00	2024-11-06T12:00:00	4	Temperatura máxima	26.1
101467	7	Sololá	702	San José Chacayá	5	Chacayá	6	Junio	2023-06-13T00:00:00	2024-11-06T12:00:00	3	Temperatura mínima	24.6
101468	7	Sololá	702	San José Chacayá	5	Chacayá	6	Junio	2023-06-13T00:00:00	2024-11-06T12:00:00	5	Humedad	44
101469	7	Sololá	702	San José Chacayá	5	Chacayá	6	Junio	2023-06-13T00:00:00	2024-11-06T12:00:00	6	Velocidad del viento	4.8
101470	7	Sololá	702	San José Chacayá	5	Chacayá	6	Junio	2023-06-13T00:00:00	2024-11-06T12:00:00	7	Dirección del viento	4.83
101471	7	Sololá	702	San José Chacayá	5	Chacayá	6	Junio	2023-06-13T00:00:00	2024-11-06T12:00:00	1	Precipitación	0
101472	7	Sololá	702	San José Chacayá	5	Chacayá	6	Junio	2023-06-13T00:00:00	2024-11-06T12:00:00	8	Radiación solar	978
101473	7	Sololá	702	San José Chacayá	5	Chacayá	6	Junio	2023-06-13T00:00:00	2024-11-06T13:00:00	2	Temperatura media	25.3
101474	7	Sololá	702	San José Chacayá	5	Chacayá	6	Junio	2023-06-13T00:00:00	2024-11-06T13:00:00	4	Temperatura máxima	26
101475	7	Sololá	702	San José Chacayá	5	Chacayá	6	Junio	2023-06-13T00:00:00	2024-11-06T13:00:00	3	Temperatura mínima	25.1
101476	7	Sololá	702	San José Chacayá	5	Chacayá	6	Junio	2023-06-13T00:00:00	2024-11-06T13:00:00	5	Humedad	53
101477	7	Sololá	702	San José Chacayá	5	Chacayá	6	Junio	2023-06-13T00:00:00	2024-11-06T13:00:00	6	Velocidad del viento	4.8
101478	7	Sololá	702	San José Chacayá	5	Chacayá	6	Junio	2023-06-13T00:00:00	2024-11-06T13:00:00	7	Dirección del viento	4.83
101479	7	Sololá	702	San José Chacayá	5	Chacayá	6	Junio	2023-06-13T00:00:00	2024-11-06T13:00:00	1	Precipitación	0
101480	7	Sololá	702	San José Chacayá	5	Chacayá	6	Junio	2023-06-13T00:00:00	2024-11-06T13:00:00	8	Radiación solar	506
101481	7	Sololá	702	San José Chacayá	5	Chacayá	6	Junio	2023-06-13T00:00:00	2024-11-06T14:00:00	2	Temperatura media	24.7
101482	7	Sololá	702	San José Chacayá	5	Chacayá	6	Junio	2023-06-13T00:00:00	2024-11-06T14:00:00	4	Temperatura máxima	26.1
101483	7	Sololá	702	San José Chacayá	5	Chacayá	6	Junio	2023-06-13T00:00:00	2024-11-06T14:00:00	3	Temperatura mínima	24.6
101484	7	Sololá	702	San José Chacayá	5	Chacayá	6	Junio	2023-06-13T00:00:00	2024-11-06T14:00:00	5	Humedad	67
101485	7	Sololá	702	San José Chacayá	5	Chacayá	6	Junio	2023-06-13T00:00:00	2024-11-06T14:00:00	6	Velocidad del viento	4.8
101486	7	Sololá	702	San José Chacayá	5	Chacayá	6	Junio	2023-06-13T00:00:00	2024-11-06T14:00:00	7	Dirección del viento	4.83
101487	7	Sololá	702	San José Chacayá	5	Chacayá	6	Junio	2023-06-13T00:00:00	2024-11-06T14:00:00	1	Precipitación	0
101488	7	Sololá	702	San José Chacayá	5	Chacayá	6	Junio	2023-06-13T00:00:00	2024-11-06T14:00:00	8	Radiación solar	188
101489	7	Sololá	702	San José Chacayá	5	Chacayá	6	Junio	2023-06-13T00:00:00	2024-11-06T15:00:00	2	Temperatura media	21.7
101490	7	Sololá	702	San José Chacayá	5	Chacayá	6	Junio	2023-06-13T00:00:00	2024-11-06T15:00:00	4	Temperatura máxima	24.7
101491	7	Sololá	702	San José Chacayá	5	Chacayá	6	Junio	2023-06-13T00:00:00	2024-11-06T15:00:00	3	Temperatura mínima	21.7
101492	7	Sololá	702	San José Chacayá	5	Chacayá	6	Junio	2023-06-13T00:00:00	2024-11-06T15:00:00	5	Humedad	76
101493	7	Sololá	702	San José Chacayá	5	Chacayá	6	Junio	2023-06-13T00:00:00	2024-11-06T15:00:00	6	Velocidad del viento	4.8
101494	7	Sololá	702	San José Chacayá	5	Chacayá	6	Junio	2023-06-13T00:00:00	2024-11-06T15:00:00	7	Dirección del viento	4.83
101495	7	Sololá	702	San José Chacayá	5	Chacayá	6	Junio	2023-06-13T00:00:00	2024-11-06T15:00:00	1	Precipitación	0
101496	7	Sololá	702	San José Chacayá	5	Chacayá	6	Junio	2023-06-13T00:00:00	2024-11-06T15:00:00	8	Radiación solar	83
101497	7	Sololá	702	San José Chacayá	5	Chacayá	6	Junio	2023-06-13T00:00:00	2024-11-06T16:00:00	2	Temperatura media	20.8
101498	7	Sololá	702	San José Chacayá	5	Chacayá	6	Junio	2023-06-13T00:00:00	2024-11-06T16:00:00	4	Temperatura máxima	21.7
101499	7	Sololá	702	San José Chacayá	5	Chacayá	6	Junio	2023-06-13T00:00:00	2024-11-06T16:00:00	3	Temperatura mínima	20.8
101500	7	Sololá	702	San José Chacayá	5	Chacayá	6	Junio	2023-06-13T00:00:00	2024-11-06T16:00:00	5	Humedad	76
101501	7	Sololá	702	San José Chacayá	5	Chacayá	6	Junio	2023-06-13T00:00:00	2024-11-06T16:00:00	6	Velocidad del viento	3.2
101502	7	Sololá	702	San José Chacayá	5	Chacayá	6	Junio	2023-06-13T00:00:00	2024-11-06T16:00:00	7	Dirección del viento	3.22
101503	7	Sololá	702	San José Chacayá	5	Chacayá	6	Junio	2023-06-13T00:00:00	2024-11-06T16:00:00	1	Precipitación	0
101504	7	Sololá	702	San José Chacayá	5	Chacayá	6	Junio	2023-06-13T00:00:00	2024-11-06T16:00:00	8	Radiación solar	35
101505	7	Sololá	702	San José Chacayá	5	Chacayá	6	Junio	2023-06-13T00:00:00	2024-11-06T17:00:00	2	Temperatura media	20.8
101506	7	Sololá	702	San José Chacayá	5	Chacayá	6	Junio	2023-06-13T00:00:00	2024-11-06T17:00:00	4	Temperatura máxima	21
101507	7	Sololá	702	San José Chacayá	5	Chacayá	6	Junio	2023-06-13T00:00:00	2024-11-06T17:00:00	3	Temperatura mínima	20.6
101508	7	Sololá	702	San José Chacayá	5	Chacayá	6	Junio	2023-06-13T00:00:00	2024-11-06T17:00:00	5	Humedad	81
101509	7	Sololá	702	San José Chacayá	5	Chacayá	6	Junio	2023-06-13T00:00:00	2024-11-06T17:00:00	6	Velocidad del viento	3.2
101510	7	Sololá	702	San José Chacayá	5	Chacayá	6	Junio	2023-06-13T00:00:00	2024-11-06T17:00:00	7	Dirección del viento	3.22
101511	7	Sololá	702	San José Chacayá	5	Chacayá	6	Junio	2023-06-13T00:00:00	2024-11-06T17:00:00	1	Precipitación	0
101512	7	Sololá	702	San José Chacayá	5	Chacayá	6	Junio	2023-06-13T00:00:00	2024-11-06T17:00:00	8	Radiación solar	88
101513	7	Sololá	702	San José Chacayá	5	Chacayá	6	Junio	2023-06-13T00:00:00	2024-11-06T18:00:00	2	Temperatura media	19.1
101514	7	Sololá	702	San José Chacayá	5	Chacayá	6	Junio	2023-06-13T00:00:00	2024-11-06T18:00:00	4	Temperatura máxima	20.7
101515	7	Sololá	702	San José Chacayá	5	Chacayá	6	Junio	2023-06-13T00:00:00	2024-11-06T18:00:00	3	Temperatura mínima	19.1
101516	7	Sololá	702	San José Chacayá	5	Chacayá	6	Junio	2023-06-13T00:00:00	2024-11-06T18:00:00	5	Humedad	85
101517	7	Sololá	702	San José Chacayá	5	Chacayá	6	Junio	2023-06-13T00:00:00	2024-11-06T18:00:00	6	Velocidad del viento	1.6
101518	7	Sololá	702	San José Chacayá	5	Chacayá	6	Junio	2023-06-13T00:00:00	2024-11-06T18:00:00	7	Dirección del viento	1.61
101519	7	Sololá	702	San José Chacayá	5	Chacayá	6	Junio	2023-06-13T00:00:00	2024-11-06T18:00:00	1	Precipitación	0
101520	7	Sololá	702	San José Chacayá	5	Chacayá	6	Junio	2023-06-13T00:00:00	2024-11-06T18:00:00	8	Radiación solar	38
101521	7	Sololá	702	San José Chacayá	5	Chacayá	6	Junio	2023-06-13T00:00:00	2024-11-06T19:00:00	2	Temperatura media	17.5
101522	7	Sololá	702	San José Chacayá	5	Chacayá	6	Junio	2023-06-13T00:00:00	2024-11-06T19:00:00	4	Temperatura máxima	19.1
101523	7	Sololá	702	San José Chacayá	5	Chacayá	6	Junio	2023-06-13T00:00:00	2024-11-06T19:00:00	3	Temperatura mínima	17.4
101524	7	Sololá	702	San José Chacayá	5	Chacayá	6	Junio	2023-06-13T00:00:00	2024-11-06T19:00:00	5	Humedad	89
101525	7	Sololá	702	San José Chacayá	5	Chacayá	6	Junio	2023-06-13T00:00:00	2024-11-06T19:00:00	6	Velocidad del viento	1.6
101526	7	Sololá	702	San José Chacayá	5	Chacayá	6	Junio	2023-06-13T00:00:00	2024-11-06T19:00:00	7	Dirección del viento	1.61
101527	7	Sololá	702	San José Chacayá	5	Chacayá	6	Junio	2023-06-13T00:00:00	2024-11-06T19:00:00	1	Precipitación	0
101528	7	Sololá	702	San José Chacayá	5	Chacayá	6	Junio	2023-06-13T00:00:00	2024-11-06T19:00:00	8	Radiación solar	0
101529	7	Sololá	702	San José Chacayá	5	Chacayá	6	Junio	2023-06-13T00:00:00	2024-11-06T20:00:00	2	Temperatura media	17.2
101530	7	Sololá	702	San José Chacayá	5	Chacayá	6	Junio	2023-06-13T00:00:00	2024-11-06T20:00:00	4	Temperatura máxima	17.5
101531	7	Sololá	702	San José Chacayá	5	Chacayá	6	Junio	2023-06-13T00:00:00	2024-11-06T20:00:00	3	Temperatura mínima	16.9
101532	7	Sololá	702	San José Chacayá	5	Chacayá	6	Junio	2023-06-13T00:00:00	2024-11-06T20:00:00	5	Humedad	92
101533	7	Sololá	702	San José Chacayá	5	Chacayá	6	Junio	2023-06-13T00:00:00	2024-11-06T20:00:00	6	Velocidad del viento	0
101534	7	Sololá	702	San José Chacayá	5	Chacayá	6	Junio	2023-06-13T00:00:00	2024-11-06T20:00:00	7	Dirección del viento	0
101535	7	Sololá	702	San José Chacayá	5	Chacayá	6	Junio	2023-06-13T00:00:00	2024-11-06T20:00:00	1	Precipitación	0
101536	7	Sololá	702	San José Chacayá	5	Chacayá	6	Junio	2023-06-13T00:00:00	2024-11-06T20:00:00	8	Radiación solar	0
101537	7	Sololá	702	San José Chacayá	5	Chacayá	6	Junio	2023-06-13T00:00:00	2024-11-06T21:00:00	2	Temperatura media	16.4
101538	7	Sololá	702	San José Chacayá	5	Chacayá	6	Junio	2023-06-13T00:00:00	2024-11-06T21:00:00	4	Temperatura máxima	17.2
101539	7	Sololá	702	San José Chacayá	5	Chacayá	6	Junio	2023-06-13T00:00:00	2024-11-06T21:00:00	3	Temperatura mínima	16.4
101540	7	Sololá	702	San José Chacayá	5	Chacayá	6	Junio	2023-06-13T00:00:00	2024-11-06T21:00:00	5	Humedad	90
101541	7	Sololá	702	San José Chacayá	5	Chacayá	6	Junio	2023-06-13T00:00:00	2024-11-06T21:00:00	6	Velocidad del viento	0
101542	7	Sololá	702	San José Chacayá	5	Chacayá	6	Junio	2023-06-13T00:00:00	2024-11-06T21:00:00	7	Dirección del viento	0
101543	7	Sololá	702	San José Chacayá	5	Chacayá	6	Junio	2023-06-13T00:00:00	2024-11-06T21:00:00	1	Precipitación	0
101544	7	Sololá	702	San José Chacayá	5	Chacayá	6	Junio	2023-06-13T00:00:00	2024-11-06T21:00:00	8	Radiación solar	0
101545	7	Sololá	702	San José Chacayá	5	Chacayá	6	Junio	2023-06-13T00:00:00	2024-11-06T22:00:00	2	Temperatura media	15.5
101546	7	Sololá	702	San José Chacayá	5	Chacayá	6	Junio	2023-06-13T00:00:00	2024-11-06T22:00:00	4	Temperatura máxima	16.4
101547	7	Sololá	702	San José Chacayá	5	Chacayá	6	Junio	2023-06-13T00:00:00	2024-11-06T22:00:00	3	Temperatura mínima	15.5
101548	7	Sololá	702	San José Chacayá	5	Chacayá	6	Junio	2023-06-13T00:00:00	2024-11-06T22:00:00	5	Humedad	90
101549	7	Sololá	702	San José Chacayá	5	Chacayá	6	Junio	2023-06-13T00:00:00	2024-11-06T22:00:00	6	Velocidad del viento	0
101550	7	Sololá	702	San José Chacayá	5	Chacayá	6	Junio	2023-06-13T00:00:00	2024-11-06T22:00:00	7	Dirección del viento	0
101551	7	Sololá	702	San José Chacayá	5	Chacayá	6	Junio	2023-06-13T00:00:00	2024-11-06T22:00:00	1	Precipitación	0
101552	7	Sololá	702	San José Chacayá	5	Chacayá	6	Junio	2023-06-13T00:00:00	2024-11-06T22:00:00	8	Radiación solar	0
101553	7	Sololá	702	San José Chacayá	5	Chacayá	6	Junio	2023-06-13T00:00:00	2024-11-06T23:00:00	2	Temperatura media	15.3
101554	7	Sololá	702	San José Chacayá	5	Chacayá	6	Junio	2023-06-13T00:00:00	2024-11-06T23:00:00	4	Temperatura máxima	15.5
101555	7	Sololá	702	San José Chacayá	5	Chacayá	6	Junio	2023-06-13T00:00:00	2024-11-06T23:00:00	3	Temperatura mínima	15.1
101556	7	Sololá	702	San José Chacayá	5	Chacayá	6	Junio	2023-06-13T00:00:00	2024-11-06T23:00:00	5	Humedad	89
101557	7	Sololá	702	San José Chacayá	5	Chacayá	6	Junio	2023-06-13T00:00:00	2024-11-06T23:00:00	6	Velocidad del viento	0
101558	7	Sololá	702	San José Chacayá	5	Chacayá	6	Junio	2023-06-13T00:00:00	2024-11-06T23:00:00	7	Dirección del viento	0
101559	7	Sololá	702	San José Chacayá	5	Chacayá	6	Junio	2023-06-13T00:00:00	2024-11-06T23:00:00	1	Precipitación	0
101560	7	Sololá	702	San José Chacayá	5	Chacayá	6	Junio	2023-06-13T00:00:00	2024-11-06T23:00:00	8	Radiación solar	0
101561	7	Sololá	702	San José Chacayá	5	Chacayá	6	Junio	2023-06-14T00:00:00	2024-11-06T00:00:00	2	Temperatura media	15.9
101562	7	Sololá	702	San José Chacayá	5	Chacayá	6	Junio	2023-06-14T00:00:00	2024-11-06T00:00:00	4	Temperatura máxima	16
101563	7	Sololá	702	San José Chacayá	5	Chacayá	6	Junio	2023-06-14T00:00:00	2024-11-06T00:00:00	3	Temperatura mínima	15.2
101564	7	Sololá	702	San José Chacayá	5	Chacayá	6	Junio	2023-06-14T00:00:00	2024-11-06T00:00:00	5	Humedad	85
101565	7	Sololá	702	San José Chacayá	5	Chacayá	6	Junio	2023-06-14T00:00:00	2024-11-06T00:00:00	6	Velocidad del viento	1.6
101566	7	Sololá	702	San José Chacayá	5	Chacayá	6	Junio	2023-06-14T00:00:00	2024-11-06T00:00:00	7	Dirección del viento	1.61
101567	7	Sololá	702	San José Chacayá	5	Chacayá	6	Junio	2023-06-14T00:00:00	2024-11-06T00:00:00	1	Precipitación	0
101568	7	Sololá	702	San José Chacayá	5	Chacayá	6	Junio	2023-06-14T00:00:00	2024-11-06T00:00:00	8	Radiación solar	0
101569	7	Sololá	702	San José Chacayá	5	Chacayá	6	Junio	2023-06-14T00:00:00	2024-11-06T01:00:00	2	Temperatura media	15
101570	7	Sololá	702	San José Chacayá	5	Chacayá	6	Junio	2023-06-14T00:00:00	2024-11-06T01:00:00	4	Temperatura máxima	16.4
101571	7	Sololá	702	San José Chacayá	5	Chacayá	6	Junio	2023-06-14T00:00:00	2024-11-06T01:00:00	3	Temperatura mínima	15
101572	7	Sololá	702	San José Chacayá	5	Chacayá	6	Junio	2023-06-14T00:00:00	2024-11-06T01:00:00	5	Humedad	86
101573	7	Sololá	702	San José Chacayá	5	Chacayá	6	Junio	2023-06-14T00:00:00	2024-11-06T01:00:00	6	Velocidad del viento	1.6
101574	7	Sololá	702	San José Chacayá	5	Chacayá	6	Junio	2023-06-14T00:00:00	2024-11-06T01:00:00	7	Dirección del viento	1.61
101575	7	Sololá	702	San José Chacayá	5	Chacayá	6	Junio	2023-06-14T00:00:00	2024-11-06T01:00:00	1	Precipitación	0
101576	7	Sololá	702	San José Chacayá	5	Chacayá	6	Junio	2023-06-14T00:00:00	2024-11-06T01:00:00	8	Radiación solar	0
101577	7	Sololá	702	San José Chacayá	5	Chacayá	6	Junio	2023-06-14T00:00:00	2024-11-06T02:00:00	2	Temperatura media	13.6
101578	7	Sololá	702	San José Chacayá	5	Chacayá	6	Junio	2023-06-14T00:00:00	2024-11-06T02:00:00	4	Temperatura máxima	15.1
101579	7	Sololá	702	San José Chacayá	5	Chacayá	6	Junio	2023-06-14T00:00:00	2024-11-06T02:00:00	3	Temperatura mínima	13.6
101580	7	Sololá	702	San José Chacayá	5	Chacayá	6	Junio	2023-06-14T00:00:00	2024-11-06T02:00:00	5	Humedad	89
101581	7	Sololá	702	San José Chacayá	5	Chacayá	6	Junio	2023-06-14T00:00:00	2024-11-06T02:00:00	6	Velocidad del viento	0
101582	7	Sololá	702	San José Chacayá	5	Chacayá	6	Junio	2023-06-14T00:00:00	2024-11-06T02:00:00	7	Dirección del viento	0
101583	7	Sololá	702	San José Chacayá	5	Chacayá	6	Junio	2023-06-14T00:00:00	2024-11-06T02:00:00	1	Precipitación	0
101584	7	Sololá	702	San José Chacayá	5	Chacayá	6	Junio	2023-06-14T00:00:00	2024-11-06T02:00:00	8	Radiación solar	0
101585	7	Sololá	702	San José Chacayá	5	Chacayá	6	Junio	2023-06-14T00:00:00	2024-11-06T03:00:00	2	Temperatura media	12.6
101586	7	Sololá	702	San José Chacayá	5	Chacayá	6	Junio	2023-06-14T00:00:00	2024-11-06T03:00:00	4	Temperatura máxima	13.6
101587	7	Sololá	702	San José Chacayá	5	Chacayá	6	Junio	2023-06-14T00:00:00	2024-11-06T03:00:00	3	Temperatura mínima	12.6
101588	7	Sololá	702	San José Chacayá	5	Chacayá	6	Junio	2023-06-14T00:00:00	2024-11-06T03:00:00	5	Humedad	91
101589	7	Sololá	702	San José Chacayá	5	Chacayá	6	Junio	2023-06-14T00:00:00	2024-11-06T03:00:00	6	Velocidad del viento	0
101590	7	Sololá	702	San José Chacayá	5	Chacayá	6	Junio	2023-06-14T00:00:00	2024-11-06T03:00:00	7	Dirección del viento	0
101591	7	Sololá	702	San José Chacayá	5	Chacayá	6	Junio	2023-06-14T00:00:00	2024-11-06T03:00:00	1	Precipitación	0
101592	7	Sololá	702	San José Chacayá	5	Chacayá	6	Junio	2023-06-14T00:00:00	2024-11-06T03:00:00	8	Radiación solar	0
101593	7	Sololá	702	San José Chacayá	5	Chacayá	6	Junio	2023-06-14T00:00:00	2024-11-06T04:00:00	2	Temperatura media	11.9
101594	7	Sololá	702	San José Chacayá	5	Chacayá	6	Junio	2023-06-14T00:00:00	2024-11-06T04:00:00	4	Temperatura máxima	12.6
101595	7	Sololá	702	San José Chacayá	5	Chacayá	6	Junio	2023-06-14T00:00:00	2024-11-06T04:00:00	3	Temperatura mínima	11.9
101596	7	Sololá	702	San José Chacayá	5	Chacayá	6	Junio	2023-06-14T00:00:00	2024-11-06T04:00:00	5	Humedad	91
101597	7	Sololá	702	San José Chacayá	5	Chacayá	6	Junio	2023-06-14T00:00:00	2024-11-06T04:00:00	6	Velocidad del viento	0
101598	7	Sololá	702	San José Chacayá	5	Chacayá	6	Junio	2023-06-14T00:00:00	2024-11-06T04:00:00	7	Dirección del viento	0
101599	7	Sololá	702	San José Chacayá	5	Chacayá	6	Junio	2023-06-14T00:00:00	2024-11-06T04:00:00	1	Precipitación	0
101600	7	Sololá	702	San José Chacayá	5	Chacayá	6	Junio	2023-06-14T00:00:00	2024-11-06T04:00:00	8	Radiación solar	0
101601	7	Sololá	702	San José Chacayá	5	Chacayá	6	Junio	2023-06-14T00:00:00	2024-11-06T05:00:00	2	Temperatura media	11.2
101602	7	Sololá	702	San José Chacayá	5	Chacayá	6	Junio	2023-06-14T00:00:00	2024-11-06T05:00:00	4	Temperatura máxima	11.9
101603	7	Sololá	702	San José Chacayá	5	Chacayá	6	Junio	2023-06-14T00:00:00	2024-11-06T05:00:00	3	Temperatura mínima	11.2
101604	7	Sololá	702	San José Chacayá	5	Chacayá	6	Junio	2023-06-14T00:00:00	2024-11-06T05:00:00	5	Humedad	92
101605	7	Sololá	702	San José Chacayá	5	Chacayá	6	Junio	2023-06-14T00:00:00	2024-11-06T05:00:00	6	Velocidad del viento	0
101606	7	Sololá	702	San José Chacayá	5	Chacayá	6	Junio	2023-06-14T00:00:00	2024-11-06T05:00:00	7	Dirección del viento	0
101607	7	Sololá	702	San José Chacayá	5	Chacayá	6	Junio	2023-06-14T00:00:00	2024-11-06T05:00:00	1	Precipitación	0
101608	7	Sololá	702	San José Chacayá	5	Chacayá	6	Junio	2023-06-14T00:00:00	2024-11-06T05:00:00	8	Radiación solar	0
101609	7	Sololá	702	San José Chacayá	5	Chacayá	6	Junio	2023-06-14T00:00:00	2024-11-06T06:00:00	2	Temperatura media	11.1
101610	7	Sololá	702	San José Chacayá	5	Chacayá	6	Junio	2023-06-14T00:00:00	2024-11-06T06:00:00	4	Temperatura máxima	11.2
101611	7	Sololá	702	San José Chacayá	5	Chacayá	6	Junio	2023-06-14T00:00:00	2024-11-06T06:00:00	3	Temperatura mínima	11
101612	7	Sololá	702	San José Chacayá	5	Chacayá	6	Junio	2023-06-14T00:00:00	2024-11-06T06:00:00	5	Humedad	92
101613	7	Sololá	702	San José Chacayá	5	Chacayá	6	Junio	2023-06-14T00:00:00	2024-11-06T06:00:00	6	Velocidad del viento	0
101614	7	Sololá	702	San José Chacayá	5	Chacayá	6	Junio	2023-06-14T00:00:00	2024-11-06T06:00:00	7	Dirección del viento	0
101615	7	Sololá	702	San José Chacayá	5	Chacayá	6	Junio	2023-06-14T00:00:00	2024-11-06T06:00:00	1	Precipitación	0
101616	7	Sololá	702	San José Chacayá	5	Chacayá	6	Junio	2023-06-14T00:00:00	2024-11-06T06:00:00	8	Radiación solar	6
101617	7	Sololá	702	San José Chacayá	5	Chacayá	6	Junio	2023-06-14T00:00:00	2024-11-06T07:00:00	2	Temperatura media	13.7
101618	7	Sololá	702	San José Chacayá	5	Chacayá	6	Junio	2023-06-14T00:00:00	2024-11-06T07:00:00	4	Temperatura máxima	13.7
101619	7	Sololá	702	San José Chacayá	5	Chacayá	6	Junio	2023-06-14T00:00:00	2024-11-06T07:00:00	3	Temperatura mínima	11.1
101620	7	Sololá	702	San José Chacayá	5	Chacayá	6	Junio	2023-06-14T00:00:00	2024-11-06T07:00:00	5	Humedad	87
101621	7	Sololá	702	San José Chacayá	5	Chacayá	6	Junio	2023-06-14T00:00:00	2024-11-06T07:00:00	6	Velocidad del viento	0
101622	7	Sololá	702	San José Chacayá	5	Chacayá	6	Junio	2023-06-14T00:00:00	2024-11-06T07:00:00	7	Dirección del viento	0
101623	7	Sololá	702	San José Chacayá	5	Chacayá	6	Junio	2023-06-14T00:00:00	2024-11-06T07:00:00	1	Precipitación	0
101624	7	Sololá	702	San José Chacayá	5	Chacayá	6	Junio	2023-06-14T00:00:00	2024-11-06T07:00:00	8	Radiación solar	77
101625	7	Sololá	702	San José Chacayá	5	Chacayá	6	Junio	2023-06-14T00:00:00	2024-11-06T08:00:00	2	Temperatura media	19.4
101626	7	Sololá	702	San José Chacayá	5	Chacayá	6	Junio	2023-06-14T00:00:00	2024-11-06T08:00:00	4	Temperatura máxima	19.4
101627	7	Sololá	702	San José Chacayá	5	Chacayá	6	Junio	2023-06-14T00:00:00	2024-11-06T08:00:00	3	Temperatura mínima	13.7
101628	7	Sololá	702	San José Chacayá	5	Chacayá	6	Junio	2023-06-14T00:00:00	2024-11-06T08:00:00	5	Humedad	67
101629	7	Sololá	702	San José Chacayá	5	Chacayá	6	Junio	2023-06-14T00:00:00	2024-11-06T08:00:00	6	Velocidad del viento	1.6
101630	7	Sololá	702	San José Chacayá	5	Chacayá	6	Junio	2023-06-14T00:00:00	2024-11-06T08:00:00	7	Dirección del viento	1.61
101631	7	Sololá	702	San José Chacayá	5	Chacayá	6	Junio	2023-06-14T00:00:00	2024-11-06T08:00:00	1	Precipitación	0
101632	7	Sololá	702	San José Chacayá	5	Chacayá	6	Junio	2023-06-14T00:00:00	2024-11-06T08:00:00	8	Radiación solar	189
101633	7	Sololá	702	San José Chacayá	5	Chacayá	6	Junio	2023-06-14T00:00:00	2024-11-06T09:00:00	2	Temperatura media	22
101634	7	Sololá	702	San José Chacayá	5	Chacayá	6	Junio	2023-06-14T00:00:00	2024-11-06T09:00:00	4	Temperatura máxima	22
101635	7	Sololá	702	San José Chacayá	5	Chacayá	6	Junio	2023-06-14T00:00:00	2024-11-06T09:00:00	3	Temperatura mínima	19.4
101636	7	Sololá	702	San José Chacayá	5	Chacayá	6	Junio	2023-06-14T00:00:00	2024-11-06T09:00:00	5	Humedad	56
101637	7	Sololá	702	San José Chacayá	5	Chacayá	6	Junio	2023-06-14T00:00:00	2024-11-06T09:00:00	6	Velocidad del viento	4.8
101638	7	Sololá	702	San José Chacayá	5	Chacayá	6	Junio	2023-06-14T00:00:00	2024-11-06T09:00:00	7	Dirección del viento	4.83
101639	7	Sololá	702	San José Chacayá	5	Chacayá	6	Junio	2023-06-14T00:00:00	2024-11-06T09:00:00	1	Precipitación	0
101640	7	Sololá	702	San José Chacayá	5	Chacayá	6	Junio	2023-06-14T00:00:00	2024-11-06T09:00:00	8	Radiación solar	566
101641	7	Sololá	702	San José Chacayá	5	Chacayá	6	Junio	2023-06-14T00:00:00	2024-11-06T10:00:00	2	Temperatura media	23.7
101642	7	Sololá	702	San José Chacayá	5	Chacayá	6	Junio	2023-06-14T00:00:00	2024-11-06T10:00:00	4	Temperatura máxima	23.7
101643	7	Sololá	702	San José Chacayá	5	Chacayá	6	Junio	2023-06-14T00:00:00	2024-11-06T10:00:00	3	Temperatura mínima	22
101644	7	Sololá	702	San José Chacayá	5	Chacayá	6	Junio	2023-06-14T00:00:00	2024-11-06T10:00:00	5	Humedad	58
101645	7	Sololá	702	San José Chacayá	5	Chacayá	6	Junio	2023-06-14T00:00:00	2024-11-06T10:00:00	6	Velocidad del viento	4.8
101646	7	Sololá	702	San José Chacayá	5	Chacayá	6	Junio	2023-06-14T00:00:00	2024-11-06T10:00:00	7	Dirección del viento	4.83
101647	7	Sololá	702	San José Chacayá	5	Chacayá	6	Junio	2023-06-14T00:00:00	2024-11-06T10:00:00	1	Precipitación	0
101648	7	Sololá	702	San José Chacayá	5	Chacayá	6	Junio	2023-06-14T00:00:00	2024-11-06T10:00:00	8	Radiación solar	470
101649	7	Sololá	702	San José Chacayá	5	Chacayá	6	Junio	2023-06-14T00:00:00	2024-11-06T11:00:00	2	Temperatura media	22.5
101650	7	Sololá	702	San José Chacayá	5	Chacayá	6	Junio	2023-06-14T00:00:00	2024-11-06T11:00:00	4	Temperatura máxima	24
101651	7	Sololá	702	San José Chacayá	5	Chacayá	6	Junio	2023-06-14T00:00:00	2024-11-06T11:00:00	3	Temperatura mínima	22.5
101652	7	Sololá	702	San José Chacayá	5	Chacayá	6	Junio	2023-06-14T00:00:00	2024-11-06T11:00:00	5	Humedad	70
101653	7	Sololá	702	San José Chacayá	5	Chacayá	6	Junio	2023-06-14T00:00:00	2024-11-06T11:00:00	6	Velocidad del viento	6.4
101654	7	Sololá	702	San José Chacayá	5	Chacayá	6	Junio	2023-06-14T00:00:00	2024-11-06T11:00:00	7	Dirección del viento	6.44
101655	7	Sololá	702	San José Chacayá	5	Chacayá	6	Junio	2023-06-14T00:00:00	2024-11-06T11:00:00	1	Precipitación	0
101656	7	Sololá	702	San José Chacayá	5	Chacayá	6	Junio	2023-06-14T00:00:00	2024-11-06T11:00:00	8	Radiación solar	525
101657	7	Sololá	702	San José Chacayá	5	Chacayá	6	Junio	2023-06-14T00:00:00	2024-11-06T12:00:00	2	Temperatura media	23.7
101658	7	Sololá	702	San José Chacayá	5	Chacayá	6	Junio	2023-06-14T00:00:00	2024-11-06T12:00:00	4	Temperatura máxima	23.7
101659	7	Sololá	702	San José Chacayá	5	Chacayá	6	Junio	2023-06-14T00:00:00	2024-11-06T12:00:00	3	Temperatura mínima	21.6
101660	7	Sololá	702	San José Chacayá	5	Chacayá	6	Junio	2023-06-14T00:00:00	2024-11-06T12:00:00	5	Humedad	67
101661	7	Sololá	702	San José Chacayá	5	Chacayá	6	Junio	2023-06-14T00:00:00	2024-11-06T12:00:00	6	Velocidad del viento	6.4
101662	7	Sololá	702	San José Chacayá	5	Chacayá	6	Junio	2023-06-14T00:00:00	2024-11-06T12:00:00	7	Dirección del viento	6.44
101663	7	Sololá	702	San José Chacayá	5	Chacayá	6	Junio	2023-06-14T00:00:00	2024-11-06T12:00:00	1	Precipitación	0
101664	7	Sololá	702	San José Chacayá	5	Chacayá	6	Junio	2023-06-14T00:00:00	2024-11-06T12:00:00	8	Radiación solar	418
101665	7	Sololá	702	San José Chacayá	5	Chacayá	6	Junio	2023-06-14T00:00:00	2024-11-06T13:00:00	2	Temperatura media	23.8
101666	7	Sololá	702	San José Chacayá	5	Chacayá	6	Junio	2023-06-14T00:00:00	2024-11-06T13:00:00	4	Temperatura máxima	23.8
101667	7	Sololá	702	San José Chacayá	5	Chacayá	6	Junio	2023-06-14T00:00:00	2024-11-06T13:00:00	3	Temperatura mínima	22.6
101668	7	Sololá	702	San José Chacayá	5	Chacayá	6	Junio	2023-06-14T00:00:00	2024-11-06T13:00:00	5	Humedad	67
101669	7	Sololá	702	San José Chacayá	5	Chacayá	6	Junio	2023-06-14T00:00:00	2024-11-06T13:00:00	6	Velocidad del viento	4.8
101670	7	Sololá	702	San José Chacayá	5	Chacayá	6	Junio	2023-06-14T00:00:00	2024-11-06T13:00:00	7	Dirección del viento	4.83
101671	7	Sololá	702	San José Chacayá	5	Chacayá	6	Junio	2023-06-14T00:00:00	2024-11-06T13:00:00	1	Precipitación	0
101672	7	Sololá	702	San José Chacayá	5	Chacayá	6	Junio	2023-06-14T00:00:00	2024-11-06T13:00:00	8	Radiación solar	235
101673	7	Sololá	702	San José Chacayá	5	Chacayá	6	Junio	2023-06-14T00:00:00	2024-11-06T14:00:00	2	Temperatura media	23.8
101674	7	Sololá	702	San José Chacayá	5	Chacayá	6	Junio	2023-06-14T00:00:00	2024-11-06T14:00:00	4	Temperatura máxima	24.6
101675	7	Sololá	702	San José Chacayá	5	Chacayá	6	Junio	2023-06-14T00:00:00	2024-11-06T14:00:00	3	Temperatura mínima	23.8
101676	7	Sololá	702	San José Chacayá	5	Chacayá	6	Junio	2023-06-14T00:00:00	2024-11-06T14:00:00	5	Humedad	67
101677	7	Sololá	702	San José Chacayá	5	Chacayá	6	Junio	2023-06-14T00:00:00	2024-11-06T14:00:00	6	Velocidad del viento	4.8
101678	7	Sololá	702	San José Chacayá	5	Chacayá	6	Junio	2023-06-14T00:00:00	2024-11-06T14:00:00	7	Dirección del viento	4.83
101679	7	Sololá	702	San José Chacayá	5	Chacayá	6	Junio	2023-06-14T00:00:00	2024-11-06T14:00:00	1	Precipitación	0
101680	7	Sololá	702	San José Chacayá	5	Chacayá	6	Junio	2023-06-14T00:00:00	2024-11-06T14:00:00	8	Radiación solar	287
101681	7	Sololá	702	San José Chacayá	5	Chacayá	6	Junio	2023-06-14T00:00:00	2024-11-06T15:00:00	2	Temperatura media	22.2
101682	7	Sololá	702	San José Chacayá	5	Chacayá	6	Junio	2023-06-14T00:00:00	2024-11-06T15:00:00	4	Temperatura máxima	23.9
101683	7	Sololá	702	San José Chacayá	5	Chacayá	6	Junio	2023-06-14T00:00:00	2024-11-06T15:00:00	3	Temperatura mínima	21.8
101684	7	Sololá	702	San José Chacayá	5	Chacayá	6	Junio	2023-06-14T00:00:00	2024-11-06T15:00:00	5	Humedad	72
101685	7	Sololá	702	San José Chacayá	5	Chacayá	6	Junio	2023-06-14T00:00:00	2024-11-06T15:00:00	6	Velocidad del viento	6.4
101686	7	Sololá	702	San José Chacayá	5	Chacayá	6	Junio	2023-06-14T00:00:00	2024-11-06T15:00:00	7	Dirección del viento	6.44
101687	7	Sololá	702	San José Chacayá	5	Chacayá	6	Junio	2023-06-14T00:00:00	2024-11-06T15:00:00	1	Precipitación	0
101688	7	Sololá	702	San José Chacayá	5	Chacayá	6	Junio	2023-06-14T00:00:00	2024-11-06T15:00:00	8	Radiación solar	156
101689	7	Sololá	702	San José Chacayá	5	Chacayá	6	Junio	2023-06-14T00:00:00	2024-11-06T16:00:00	2	Temperatura media	20
101690	7	Sololá	702	San José Chacayá	5	Chacayá	6	Junio	2023-06-14T00:00:00	2024-11-06T16:00:00	4	Temperatura máxima	22.8
101691	7	Sololá	702	San José Chacayá	5	Chacayá	6	Junio	2023-06-14T00:00:00	2024-11-06T16:00:00	3	Temperatura mínima	20
101692	7	Sololá	702	San José Chacayá	5	Chacayá	6	Junio	2023-06-14T00:00:00	2024-11-06T16:00:00	5	Humedad	80
101693	7	Sololá	702	San José Chacayá	5	Chacayá	6	Junio	2023-06-14T00:00:00	2024-11-06T16:00:00	6	Velocidad del viento	6.4
101694	7	Sololá	702	San José Chacayá	5	Chacayá	6	Junio	2023-06-14T00:00:00	2024-11-06T16:00:00	7	Dirección del viento	6.44
101695	7	Sololá	702	San José Chacayá	5	Chacayá	6	Junio	2023-06-14T00:00:00	2024-11-06T16:00:00	1	Precipitación	0
101696	7	Sololá	702	San José Chacayá	5	Chacayá	6	Junio	2023-06-14T00:00:00	2024-11-06T16:00:00	8	Radiación solar	76
101697	7	Sololá	702	San José Chacayá	5	Chacayá	6	Junio	2023-06-14T00:00:00	2024-11-06T17:00:00	2	Temperatura media	18.6
101698	7	Sololá	702	San José Chacayá	5	Chacayá	6	Junio	2023-06-14T00:00:00	2024-11-06T17:00:00	4	Temperatura máxima	20.3
101699	7	Sololá	702	San José Chacayá	5	Chacayá	6	Junio	2023-06-14T00:00:00	2024-11-06T17:00:00	3	Temperatura mínima	18.6
101700	7	Sololá	702	San José Chacayá	5	Chacayá	6	Junio	2023-06-14T00:00:00	2024-11-06T17:00:00	5	Humedad	86
101701	7	Sololá	702	San José Chacayá	5	Chacayá	6	Junio	2023-06-14T00:00:00	2024-11-06T17:00:00	6	Velocidad del viento	3.2
101702	7	Sololá	702	San José Chacayá	5	Chacayá	6	Junio	2023-06-14T00:00:00	2024-11-06T17:00:00	7	Dirección del viento	3.22
101703	7	Sololá	702	San José Chacayá	5	Chacayá	6	Junio	2023-06-14T00:00:00	2024-11-06T17:00:00	1	Precipitación	0
101704	7	Sololá	702	San José Chacayá	5	Chacayá	6	Junio	2023-06-14T00:00:00	2024-11-06T17:00:00	8	Radiación solar	35
101705	7	Sololá	702	San José Chacayá	5	Chacayá	6	Junio	2023-06-14T00:00:00	2024-11-06T18:00:00	2	Temperatura media	18.3
101706	7	Sololá	702	San José Chacayá	5	Chacayá	6	Junio	2023-06-14T00:00:00	2024-11-06T18:00:00	4	Temperatura máxima	18.8
101707	7	Sololá	702	San José Chacayá	5	Chacayá	6	Junio	2023-06-14T00:00:00	2024-11-06T18:00:00	3	Temperatura mínima	18.3
101708	7	Sololá	702	San José Chacayá	5	Chacayá	6	Junio	2023-06-14T00:00:00	2024-11-06T18:00:00	5	Humedad	83
101709	7	Sololá	702	San José Chacayá	5	Chacayá	6	Junio	2023-06-14T00:00:00	2024-11-06T18:00:00	6	Velocidad del viento	1.6
101710	7	Sololá	702	San José Chacayá	5	Chacayá	6	Junio	2023-06-14T00:00:00	2024-11-06T18:00:00	7	Dirección del viento	1.61
101711	7	Sololá	702	San José Chacayá	5	Chacayá	6	Junio	2023-06-14T00:00:00	2024-11-06T18:00:00	1	Precipitación	0
101712	7	Sololá	702	San José Chacayá	5	Chacayá	6	Junio	2023-06-14T00:00:00	2024-11-06T18:00:00	8	Radiación solar	15
101713	7	Sololá	702	San José Chacayá	5	Chacayá	6	Junio	2023-06-14T00:00:00	2024-11-06T19:00:00	2	Temperatura media	16.7
101714	7	Sololá	702	San José Chacayá	5	Chacayá	6	Junio	2023-06-14T00:00:00	2024-11-06T19:00:00	4	Temperatura máxima	18.3
101715	7	Sololá	702	San José Chacayá	5	Chacayá	6	Junio	2023-06-14T00:00:00	2024-11-06T19:00:00	3	Temperatura mínima	16.7
101716	7	Sololá	702	San José Chacayá	5	Chacayá	6	Junio	2023-06-14T00:00:00	2024-11-06T19:00:00	5	Humedad	91
101717	7	Sololá	702	San José Chacayá	5	Chacayá	6	Junio	2023-06-14T00:00:00	2024-11-06T19:00:00	6	Velocidad del viento	0
101718	7	Sololá	702	San José Chacayá	5	Chacayá	6	Junio	2023-06-14T00:00:00	2024-11-06T19:00:00	7	Dirección del viento	0
101719	7	Sololá	702	San José Chacayá	5	Chacayá	6	Junio	2023-06-14T00:00:00	2024-11-06T19:00:00	1	Precipitación	0
101720	7	Sololá	702	San José Chacayá	5	Chacayá	6	Junio	2023-06-14T00:00:00	2024-11-06T19:00:00	8	Radiación solar	0
101721	7	Sololá	702	San José Chacayá	5	Chacayá	6	Junio	2023-06-14T00:00:00	2024-11-06T20:00:00	2	Temperatura media	15.3
101722	7	Sololá	702	San José Chacayá	5	Chacayá	6	Junio	2023-06-14T00:00:00	2024-11-06T20:00:00	4	Temperatura máxima	16.7
101723	7	Sololá	702	San José Chacayá	5	Chacayá	6	Junio	2023-06-14T00:00:00	2024-11-06T20:00:00	3	Temperatura mínima	15.3
101724	7	Sololá	702	San José Chacayá	5	Chacayá	6	Junio	2023-06-14T00:00:00	2024-11-06T20:00:00	5	Humedad	89
101725	7	Sololá	702	San José Chacayá	5	Chacayá	6	Junio	2023-06-14T00:00:00	2024-11-06T20:00:00	6	Velocidad del viento	0
101726	7	Sololá	702	San José Chacayá	5	Chacayá	6	Junio	2023-06-14T00:00:00	2024-11-06T20:00:00	7	Dirección del viento	0
101727	7	Sololá	702	San José Chacayá	5	Chacayá	6	Junio	2023-06-14T00:00:00	2024-11-06T20:00:00	1	Precipitación	0
101728	7	Sololá	702	San José Chacayá	5	Chacayá	6	Junio	2023-06-14T00:00:00	2024-11-06T20:00:00	8	Radiación solar	0
101729	7	Sololá	702	San José Chacayá	5	Chacayá	6	Junio	2023-06-14T00:00:00	2024-11-06T21:00:00	2	Temperatura media	13.9
101730	7	Sololá	702	San José Chacayá	5	Chacayá	6	Junio	2023-06-14T00:00:00	2024-11-06T21:00:00	4	Temperatura máxima	15.3
101731	7	Sololá	702	San José Chacayá	5	Chacayá	6	Junio	2023-06-14T00:00:00	2024-11-06T21:00:00	3	Temperatura mínima	13.9
101732	7	Sololá	702	San José Chacayá	5	Chacayá	6	Junio	2023-06-14T00:00:00	2024-11-06T21:00:00	5	Humedad	89
101733	7	Sololá	702	San José Chacayá	5	Chacayá	6	Junio	2023-06-14T00:00:00	2024-11-06T21:00:00	6	Velocidad del viento	0
101734	7	Sololá	702	San José Chacayá	5	Chacayá	6	Junio	2023-06-14T00:00:00	2024-11-06T21:00:00	7	Dirección del viento	0
101735	7	Sololá	702	San José Chacayá	5	Chacayá	6	Junio	2023-06-14T00:00:00	2024-11-06T21:00:00	1	Precipitación	0
101736	7	Sololá	702	San José Chacayá	5	Chacayá	6	Junio	2023-06-14T00:00:00	2024-11-06T21:00:00	8	Radiación solar	0
101737	7	Sololá	702	San José Chacayá	5	Chacayá	6	Junio	2023-06-14T00:00:00	2024-11-06T22:00:00	2	Temperatura media	13
101738	7	Sololá	702	San José Chacayá	5	Chacayá	6	Junio	2023-06-14T00:00:00	2024-11-06T22:00:00	4	Temperatura máxima	13.9
101739	7	Sololá	702	San José Chacayá	5	Chacayá	6	Junio	2023-06-14T00:00:00	2024-11-06T22:00:00	3	Temperatura mínima	12.9
101740	7	Sololá	702	San José Chacayá	5	Chacayá	6	Junio	2023-06-14T00:00:00	2024-11-06T22:00:00	5	Humedad	91
101741	7	Sololá	702	San José Chacayá	5	Chacayá	6	Junio	2023-06-14T00:00:00	2024-11-06T22:00:00	6	Velocidad del viento	0
101742	7	Sololá	702	San José Chacayá	5	Chacayá	6	Junio	2023-06-14T00:00:00	2024-11-06T22:00:00	7	Dirección del viento	0
101743	7	Sololá	702	San José Chacayá	5	Chacayá	6	Junio	2023-06-14T00:00:00	2024-11-06T22:00:00	1	Precipitación	0
101744	7	Sololá	702	San José Chacayá	5	Chacayá	6	Junio	2023-06-14T00:00:00	2024-11-06T22:00:00	8	Radiación solar	0
101745	7	Sololá	702	San José Chacayá	5	Chacayá	6	Junio	2023-06-14T00:00:00	2024-11-06T23:00:00	2	Temperatura media	12.7
101746	7	Sololá	702	San José Chacayá	5	Chacayá	6	Junio	2023-06-14T00:00:00	2024-11-06T23:00:00	4	Temperatura máxima	13
101747	7	Sololá	702	San José Chacayá	5	Chacayá	6	Junio	2023-06-14T00:00:00	2024-11-06T23:00:00	3	Temperatura mínima	12.7
101748	7	Sololá	702	San José Chacayá	5	Chacayá	6	Junio	2023-06-14T00:00:00	2024-11-06T23:00:00	5	Humedad	91
101749	7	Sololá	702	San José Chacayá	5	Chacayá	6	Junio	2023-06-14T00:00:00	2024-11-06T23:00:00	6	Velocidad del viento	0
101750	7	Sololá	702	San José Chacayá	5	Chacayá	6	Junio	2023-06-14T00:00:00	2024-11-06T23:00:00	7	Dirección del viento	0
101751	7	Sololá	702	San José Chacayá	5	Chacayá	6	Junio	2023-06-14T00:00:00	2024-11-06T23:00:00	1	Precipitación	0
101752	7	Sololá	702	San José Chacayá	5	Chacayá	6	Junio	2023-06-14T00:00:00	2024-11-06T23:00:00	8	Radiación solar	0
101753	7	Sololá	702	San José Chacayá	5	Chacayá	6	Junio	2023-06-15T00:00:00	2024-11-06T00:00:00	2	Temperatura media	12.7
101754	7	Sololá	702	San José Chacayá	5	Chacayá	6	Junio	2023-06-15T00:00:00	2024-11-06T00:00:00	4	Temperatura máxima	12.8
101755	7	Sololá	702	San José Chacayá	5	Chacayá	6	Junio	2023-06-15T00:00:00	2024-11-06T00:00:00	3	Temperatura mínima	12.7
101756	7	Sololá	702	San José Chacayá	5	Chacayá	6	Junio	2023-06-15T00:00:00	2024-11-06T00:00:00	5	Humedad	92
101757	7	Sololá	702	San José Chacayá	5	Chacayá	6	Junio	2023-06-15T00:00:00	2024-11-06T00:00:00	6	Velocidad del viento	0
101758	7	Sololá	702	San José Chacayá	5	Chacayá	6	Junio	2023-06-15T00:00:00	2024-11-06T00:00:00	7	Dirección del viento	0
101759	7	Sololá	702	San José Chacayá	5	Chacayá	6	Junio	2023-06-15T00:00:00	2024-11-06T00:00:00	1	Precipitación	0
101760	7	Sololá	702	San José Chacayá	5	Chacayá	6	Junio	2023-06-15T00:00:00	2024-11-06T00:00:00	8	Radiación solar	0
101761	7	Sololá	702	San José Chacayá	5	Chacayá	6	Junio	2023-06-15T00:00:00	2024-11-06T01:00:00	2	Temperatura media	12.4
101762	7	Sololá	702	San José Chacayá	5	Chacayá	6	Junio	2023-06-15T00:00:00	2024-11-06T01:00:00	4	Temperatura máxima	12.8
101763	7	Sololá	702	San José Chacayá	5	Chacayá	6	Junio	2023-06-15T00:00:00	2024-11-06T01:00:00	3	Temperatura mínima	12.4
101764	7	Sololá	702	San José Chacayá	5	Chacayá	6	Junio	2023-06-15T00:00:00	2024-11-06T01:00:00	5	Humedad	92
101765	7	Sololá	702	San José Chacayá	5	Chacayá	6	Junio	2023-06-15T00:00:00	2024-11-06T01:00:00	6	Velocidad del viento	0
101766	7	Sololá	702	San José Chacayá	5	Chacayá	6	Junio	2023-06-15T00:00:00	2024-11-06T01:00:00	7	Dirección del viento	0
101767	7	Sololá	702	San José Chacayá	5	Chacayá	6	Junio	2023-06-15T00:00:00	2024-11-06T01:00:00	1	Precipitación	0
101768	7	Sololá	702	San José Chacayá	5	Chacayá	6	Junio	2023-06-15T00:00:00	2024-11-06T01:00:00	8	Radiación solar	0
101769	7	Sololá	702	San José Chacayá	5	Chacayá	6	Junio	2023-06-15T00:00:00	2024-11-06T02:00:00	2	Temperatura media	12.1
101770	7	Sololá	702	San José Chacayá	5	Chacayá	6	Junio	2023-06-15T00:00:00	2024-11-06T02:00:00	4	Temperatura máxima	12.4
101771	7	Sololá	702	San José Chacayá	5	Chacayá	6	Junio	2023-06-15T00:00:00	2024-11-06T02:00:00	3	Temperatura mínima	12.1
101772	7	Sololá	702	San José Chacayá	5	Chacayá	6	Junio	2023-06-15T00:00:00	2024-11-06T02:00:00	5	Humedad	93
101773	7	Sololá	702	San José Chacayá	5	Chacayá	6	Junio	2023-06-15T00:00:00	2024-11-06T02:00:00	6	Velocidad del viento	0
101774	7	Sololá	702	San José Chacayá	5	Chacayá	6	Junio	2023-06-15T00:00:00	2024-11-06T02:00:00	7	Dirección del viento	0
101775	7	Sololá	702	San José Chacayá	5	Chacayá	6	Junio	2023-06-15T00:00:00	2024-11-06T02:00:00	1	Precipitación	0
101776	7	Sololá	702	San José Chacayá	5	Chacayá	6	Junio	2023-06-15T00:00:00	2024-11-06T02:00:00	8	Radiación solar	0
101777	7	Sololá	702	San José Chacayá	5	Chacayá	6	Junio	2023-06-15T00:00:00	2024-11-06T03:00:00	2	Temperatura media	12
101778	7	Sololá	702	San José Chacayá	5	Chacayá	6	Junio	2023-06-15T00:00:00	2024-11-06T03:00:00	4	Temperatura máxima	12.2
101779	7	Sololá	702	San José Chacayá	5	Chacayá	6	Junio	2023-06-15T00:00:00	2024-11-06T03:00:00	3	Temperatura mínima	12
101780	7	Sololá	702	San José Chacayá	5	Chacayá	6	Junio	2023-06-15T00:00:00	2024-11-06T03:00:00	5	Humedad	92
101781	7	Sololá	702	San José Chacayá	5	Chacayá	6	Junio	2023-06-15T00:00:00	2024-11-06T03:00:00	6	Velocidad del viento	0
101782	7	Sololá	702	San José Chacayá	5	Chacayá	6	Junio	2023-06-15T00:00:00	2024-11-06T03:00:00	7	Dirección del viento	0
101783	7	Sololá	702	San José Chacayá	5	Chacayá	6	Junio	2023-06-15T00:00:00	2024-11-06T03:00:00	1	Precipitación	0
101784	7	Sololá	702	San José Chacayá	5	Chacayá	6	Junio	2023-06-15T00:00:00	2024-11-06T03:00:00	8	Radiación solar	0
101785	7	Sololá	702	San José Chacayá	5	Chacayá	6	Junio	2023-06-15T00:00:00	2024-11-06T04:00:00	2	Temperatura media	12.3
101786	7	Sololá	702	San José Chacayá	5	Chacayá	6	Junio	2023-06-15T00:00:00	2024-11-06T04:00:00	4	Temperatura máxima	12.3
101787	7	Sololá	702	San José Chacayá	5	Chacayá	6	Junio	2023-06-15T00:00:00	2024-11-06T04:00:00	3	Temperatura mínima	11.9
101788	7	Sololá	702	San José Chacayá	5	Chacayá	6	Junio	2023-06-15T00:00:00	2024-11-06T04:00:00	5	Humedad	93
101789	7	Sololá	702	San José Chacayá	5	Chacayá	6	Junio	2023-06-15T00:00:00	2024-11-06T04:00:00	6	Velocidad del viento	1.6
101790	7	Sololá	702	San José Chacayá	5	Chacayá	6	Junio	2023-06-15T00:00:00	2024-11-06T04:00:00	7	Dirección del viento	1.61
101791	7	Sololá	702	San José Chacayá	5	Chacayá	6	Junio	2023-06-15T00:00:00	2024-11-06T04:00:00	1	Precipitación	0
101792	7	Sololá	702	San José Chacayá	5	Chacayá	6	Junio	2023-06-15T00:00:00	2024-11-06T04:00:00	8	Radiación solar	0
101793	7	Sololá	702	San José Chacayá	5	Chacayá	6	Junio	2023-06-15T00:00:00	2024-11-06T05:00:00	2	Temperatura media	11.3
101794	7	Sololá	702	San José Chacayá	5	Chacayá	6	Junio	2023-06-15T00:00:00	2024-11-06T05:00:00	4	Temperatura máxima	12.3
101795	7	Sololá	702	San José Chacayá	5	Chacayá	6	Junio	2023-06-15T00:00:00	2024-11-06T05:00:00	3	Temperatura mínima	11.3
101796	7	Sololá	702	San José Chacayá	5	Chacayá	6	Junio	2023-06-15T00:00:00	2024-11-06T05:00:00	5	Humedad	92
101797	7	Sololá	702	San José Chacayá	5	Chacayá	6	Junio	2023-06-15T00:00:00	2024-11-06T05:00:00	6	Velocidad del viento	0
101798	7	Sololá	702	San José Chacayá	5	Chacayá	6	Junio	2023-06-15T00:00:00	2024-11-06T05:00:00	7	Dirección del viento	0
101799	7	Sololá	702	San José Chacayá	5	Chacayá	6	Junio	2023-06-15T00:00:00	2024-11-06T05:00:00	1	Precipitación	0
101800	7	Sololá	702	San José Chacayá	5	Chacayá	6	Junio	2023-06-15T00:00:00	2024-11-06T05:00:00	8	Radiación solar	0
101801	7	Sololá	702	San José Chacayá	5	Chacayá	6	Junio	2023-06-15T00:00:00	2024-11-06T06:00:00	2	Temperatura media	10.9
101802	7	Sololá	702	San José Chacayá	5	Chacayá	6	Junio	2023-06-15T00:00:00	2024-11-06T06:00:00	4	Temperatura máxima	11.4
101803	7	Sololá	702	San José Chacayá	5	Chacayá	6	Junio	2023-06-15T00:00:00	2024-11-06T06:00:00	3	Temperatura mínima	10.9
101804	7	Sololá	702	San José Chacayá	5	Chacayá	6	Junio	2023-06-15T00:00:00	2024-11-06T06:00:00	5	Humedad	94
101805	7	Sololá	702	San José Chacayá	5	Chacayá	6	Junio	2023-06-15T00:00:00	2024-11-06T06:00:00	6	Velocidad del viento	0
101806	7	Sololá	702	San José Chacayá	5	Chacayá	6	Junio	2023-06-15T00:00:00	2024-11-06T06:00:00	7	Dirección del viento	0
101807	7	Sololá	702	San José Chacayá	5	Chacayá	6	Junio	2023-06-15T00:00:00	2024-11-06T06:00:00	1	Precipitación	0
101808	7	Sololá	702	San José Chacayá	5	Chacayá	6	Junio	2023-06-15T00:00:00	2024-11-06T06:00:00	8	Radiación solar	6
101809	7	Sololá	702	San José Chacayá	5	Chacayá	6	Junio	2023-06-15T00:00:00	2024-11-06T07:00:00	2	Temperatura media	13.8
101810	7	Sololá	702	San José Chacayá	5	Chacayá	6	Junio	2023-06-15T00:00:00	2024-11-06T07:00:00	4	Temperatura máxima	13.8
101811	7	Sololá	702	San José Chacayá	5	Chacayá	6	Junio	2023-06-15T00:00:00	2024-11-06T07:00:00	3	Temperatura mínima	10.9
101812	7	Sololá	702	San José Chacayá	5	Chacayá	6	Junio	2023-06-15T00:00:00	2024-11-06T07:00:00	5	Humedad	90
101813	7	Sololá	702	San José Chacayá	5	Chacayá	6	Junio	2023-06-15T00:00:00	2024-11-06T07:00:00	6	Velocidad del viento	0
101814	7	Sololá	702	San José Chacayá	5	Chacayá	6	Junio	2023-06-15T00:00:00	2024-11-06T07:00:00	7	Dirección del viento	0
101815	7	Sololá	702	San José Chacayá	5	Chacayá	6	Junio	2023-06-15T00:00:00	2024-11-06T07:00:00	1	Precipitación	0
101816	7	Sololá	702	San José Chacayá	5	Chacayá	6	Junio	2023-06-15T00:00:00	2024-11-06T07:00:00	8	Radiación solar	65
101817	7	Sololá	702	San José Chacayá	5	Chacayá	6	Junio	2023-06-15T00:00:00	2024-11-06T08:00:00	2	Temperatura media	18.9
101818	7	Sololá	702	San José Chacayá	5	Chacayá	6	Junio	2023-06-15T00:00:00	2024-11-06T08:00:00	4	Temperatura máxima	18.9
101819	7	Sololá	702	San José Chacayá	5	Chacayá	6	Junio	2023-06-15T00:00:00	2024-11-06T08:00:00	3	Temperatura mínima	13.8
101820	7	Sololá	702	San José Chacayá	5	Chacayá	6	Junio	2023-06-15T00:00:00	2024-11-06T08:00:00	5	Humedad	73
101821	7	Sololá	702	San José Chacayá	5	Chacayá	6	Junio	2023-06-15T00:00:00	2024-11-06T08:00:00	6	Velocidad del viento	0
101822	7	Sololá	702	San José Chacayá	5	Chacayá	6	Junio	2023-06-15T00:00:00	2024-11-06T08:00:00	7	Dirección del viento	0
101823	7	Sololá	702	San José Chacayá	5	Chacayá	6	Junio	2023-06-15T00:00:00	2024-11-06T08:00:00	1	Precipitación	0
101824	7	Sololá	702	San José Chacayá	5	Chacayá	6	Junio	2023-06-15T00:00:00	2024-11-06T08:00:00	8	Radiación solar	176
101825	7	Sololá	702	San José Chacayá	5	Chacayá	6	Junio	2023-06-15T00:00:00	2024-11-06T09:00:00	2	Temperatura media	20.9
101826	7	Sololá	702	San José Chacayá	5	Chacayá	6	Junio	2023-06-15T00:00:00	2024-11-06T09:00:00	4	Temperatura máxima	20.9
101827	7	Sololá	702	San José Chacayá	5	Chacayá	6	Junio	2023-06-15T00:00:00	2024-11-06T09:00:00	3	Temperatura mínima	18.9
101828	7	Sololá	702	San José Chacayá	5	Chacayá	6	Junio	2023-06-15T00:00:00	2024-11-06T09:00:00	5	Humedad	72
101829	7	Sololá	702	San José Chacayá	5	Chacayá	6	Junio	2023-06-15T00:00:00	2024-11-06T09:00:00	6	Velocidad del viento	3.2
101830	7	Sololá	702	San José Chacayá	5	Chacayá	6	Junio	2023-06-15T00:00:00	2024-11-06T09:00:00	7	Dirección del viento	3.22
101831	7	Sololá	702	San José Chacayá	5	Chacayá	6	Junio	2023-06-15T00:00:00	2024-11-06T09:00:00	1	Precipitación	0
101832	7	Sololá	702	San José Chacayá	5	Chacayá	6	Junio	2023-06-15T00:00:00	2024-11-06T09:00:00	8	Radiación solar	415
101833	7	Sololá	702	San José Chacayá	5	Chacayá	6	Junio	2023-06-15T00:00:00	2024-11-06T10:00:00	2	Temperatura media	21.9
101834	7	Sololá	702	San José Chacayá	5	Chacayá	6	Junio	2023-06-15T00:00:00	2024-11-06T10:00:00	4	Temperatura máxima	21.9
101835	7	Sololá	702	San José Chacayá	5	Chacayá	6	Junio	2023-06-15T00:00:00	2024-11-06T10:00:00	3	Temperatura mínima	20.8
101836	7	Sololá	702	San José Chacayá	5	Chacayá	6	Junio	2023-06-15T00:00:00	2024-11-06T10:00:00	5	Humedad	66
101837	7	Sololá	702	San José Chacayá	5	Chacayá	6	Junio	2023-06-15T00:00:00	2024-11-06T10:00:00	6	Velocidad del viento	3.2
101838	7	Sololá	702	San José Chacayá	5	Chacayá	6	Junio	2023-06-15T00:00:00	2024-11-06T10:00:00	7	Dirección del viento	3.22
101839	7	Sololá	702	San José Chacayá	5	Chacayá	6	Junio	2023-06-15T00:00:00	2024-11-06T10:00:00	1	Precipitación	0
101840	7	Sololá	702	San José Chacayá	5	Chacayá	6	Junio	2023-06-15T00:00:00	2024-11-06T10:00:00	8	Radiación solar	509
101841	7	Sololá	702	San José Chacayá	5	Chacayá	6	Junio	2023-06-15T00:00:00	2024-11-06T11:00:00	2	Temperatura media	21.4
101842	7	Sololá	702	San José Chacayá	5	Chacayá	6	Junio	2023-06-15T00:00:00	2024-11-06T11:00:00	4	Temperatura máxima	23.4
101843	7	Sololá	702	San José Chacayá	5	Chacayá	6	Junio	2023-06-15T00:00:00	2024-11-06T11:00:00	3	Temperatura mínima	21.4
101844	7	Sololá	702	San José Chacayá	5	Chacayá	6	Junio	2023-06-15T00:00:00	2024-11-06T11:00:00	5	Humedad	72
101845	7	Sololá	702	San José Chacayá	5	Chacayá	6	Junio	2023-06-15T00:00:00	2024-11-06T11:00:00	6	Velocidad del viento	4.8
101846	7	Sololá	702	San José Chacayá	5	Chacayá	6	Junio	2023-06-15T00:00:00	2024-11-06T11:00:00	7	Dirección del viento	4.83
101847	7	Sololá	702	San José Chacayá	5	Chacayá	6	Junio	2023-06-15T00:00:00	2024-11-06T11:00:00	1	Precipitación	0
101848	7	Sololá	702	San José Chacayá	5	Chacayá	6	Junio	2023-06-15T00:00:00	2024-11-06T11:00:00	8	Radiación solar	125
101849	7	Sololá	702	San José Chacayá	5	Chacayá	6	Junio	2023-06-15T00:00:00	2024-11-06T12:00:00	2	Temperatura media	22.7
101850	7	Sololá	702	San José Chacayá	5	Chacayá	6	Junio	2023-06-15T00:00:00	2024-11-06T12:00:00	4	Temperatura máxima	22.7
101851	7	Sololá	702	San José Chacayá	5	Chacayá	6	Junio	2023-06-15T00:00:00	2024-11-06T12:00:00	3	Temperatura mínima	20.1
101852	7	Sololá	702	San José Chacayá	5	Chacayá	6	Junio	2023-06-15T00:00:00	2024-11-06T12:00:00	5	Humedad	73
101853	7	Sololá	702	San José Chacayá	5	Chacayá	6	Junio	2023-06-15T00:00:00	2024-11-06T12:00:00	6	Velocidad del viento	3.2
101854	7	Sololá	702	San José Chacayá	5	Chacayá	6	Junio	2023-06-15T00:00:00	2024-11-06T12:00:00	7	Dirección del viento	3.22
101855	7	Sololá	702	San José Chacayá	5	Chacayá	6	Junio	2023-06-15T00:00:00	2024-11-06T12:00:00	1	Precipitación	0
101856	7	Sololá	702	San José Chacayá	5	Chacayá	6	Junio	2023-06-15T00:00:00	2024-11-06T12:00:00	8	Radiación solar	134
101857	7	Sololá	702	San José Chacayá	5	Chacayá	6	Junio	2023-06-15T00:00:00	2024-11-06T13:00:00	2	Temperatura media	21.6
101858	7	Sololá	702	San José Chacayá	5	Chacayá	6	Junio	2023-06-15T00:00:00	2024-11-06T13:00:00	4	Temperatura máxima	22.7
101859	7	Sololá	702	San José Chacayá	5	Chacayá	6	Junio	2023-06-15T00:00:00	2024-11-06T13:00:00	3	Temperatura mínima	21.2
101860	7	Sololá	702	San José Chacayá	5	Chacayá	6	Junio	2023-06-15T00:00:00	2024-11-06T13:00:00	5	Humedad	77
101861	7	Sololá	702	San José Chacayá	5	Chacayá	6	Junio	2023-06-15T00:00:00	2024-11-06T13:00:00	6	Velocidad del viento	3.2
101862	7	Sololá	702	San José Chacayá	5	Chacayá	6	Junio	2023-06-15T00:00:00	2024-11-06T13:00:00	7	Dirección del viento	3.22
101863	7	Sololá	702	San José Chacayá	5	Chacayá	6	Junio	2023-06-15T00:00:00	2024-11-06T13:00:00	1	Precipitación	0
101864	7	Sololá	702	San José Chacayá	5	Chacayá	6	Junio	2023-06-15T00:00:00	2024-11-06T13:00:00	8	Radiación solar	174
101865	7	Sololá	702	San José Chacayá	5	Chacayá	6	Junio	2023-06-15T00:00:00	2024-11-06T14:00:00	2	Temperatura media	20.8
101866	7	Sololá	702	San José Chacayá	5	Chacayá	6	Junio	2023-06-15T00:00:00	2024-11-06T14:00:00	4	Temperatura máxima	22.4
101867	7	Sololá	702	San José Chacayá	5	Chacayá	6	Junio	2023-06-15T00:00:00	2024-11-06T14:00:00	3	Temperatura mínima	20.7
101868	7	Sololá	702	San José Chacayá	5	Chacayá	6	Junio	2023-06-15T00:00:00	2024-11-06T14:00:00	5	Humedad	76
101869	7	Sololá	702	San José Chacayá	5	Chacayá	6	Junio	2023-06-15T00:00:00	2024-11-06T14:00:00	6	Velocidad del viento	4.8
101870	7	Sololá	702	San José Chacayá	5	Chacayá	6	Junio	2023-06-15T00:00:00	2024-11-06T14:00:00	7	Dirección del viento	4.83
101871	7	Sololá	702	San José Chacayá	5	Chacayá	6	Junio	2023-06-15T00:00:00	2024-11-06T14:00:00	1	Precipitación	0
101872	7	Sololá	702	San José Chacayá	5	Chacayá	6	Junio	2023-06-15T00:00:00	2024-11-06T14:00:00	8	Radiación solar	320
101873	7	Sololá	702	San José Chacayá	5	Chacayá	6	Junio	2023-06-15T00:00:00	2024-11-06T15:00:00	2	Temperatura media	20.8
101874	7	Sololá	702	San José Chacayá	5	Chacayá	6	Junio	2023-06-15T00:00:00	2024-11-06T15:00:00	4	Temperatura máxima	21.6
101875	7	Sololá	702	San José Chacayá	5	Chacayá	6	Junio	2023-06-15T00:00:00	2024-11-06T15:00:00	3	Temperatura mínima	20.6
101876	7	Sololá	702	San José Chacayá	5	Chacayá	6	Junio	2023-06-15T00:00:00	2024-11-06T15:00:00	5	Humedad	77
101877	7	Sololá	702	San José Chacayá	5	Chacayá	6	Junio	2023-06-15T00:00:00	2024-11-06T15:00:00	6	Velocidad del viento	4.8
101878	7	Sololá	702	San José Chacayá	5	Chacayá	6	Junio	2023-06-15T00:00:00	2024-11-06T15:00:00	7	Dirección del viento	4.83
101879	7	Sololá	702	San José Chacayá	5	Chacayá	6	Junio	2023-06-15T00:00:00	2024-11-06T15:00:00	1	Precipitación	0
101880	7	Sololá	702	San José Chacayá	5	Chacayá	6	Junio	2023-06-15T00:00:00	2024-11-06T15:00:00	8	Radiación solar	172
101881	7	Sololá	702	San José Chacayá	5	Chacayá	6	Junio	2023-06-15T00:00:00	2024-11-06T16:00:00	2	Temperatura media	22.7
101882	7	Sololá	702	San José Chacayá	5	Chacayá	6	Junio	2023-06-15T00:00:00	2024-11-06T16:00:00	4	Temperatura máxima	22.9
101883	7	Sololá	702	San José Chacayá	5	Chacayá	6	Junio	2023-06-15T00:00:00	2024-11-06T16:00:00	3	Temperatura mínima	20.7
101884	7	Sololá	702	San José Chacayá	5	Chacayá	6	Junio	2023-06-15T00:00:00	2024-11-06T16:00:00	5	Humedad	74
101885	7	Sololá	702	San José Chacayá	5	Chacayá	6	Junio	2023-06-15T00:00:00	2024-11-06T16:00:00	6	Velocidad del viento	3.2
101886	7	Sololá	702	San José Chacayá	5	Chacayá	6	Junio	2023-06-15T00:00:00	2024-11-06T16:00:00	7	Dirección del viento	3.22
101887	7	Sololá	702	San José Chacayá	5	Chacayá	6	Junio	2023-06-15T00:00:00	2024-11-06T16:00:00	1	Precipitación	0
101888	7	Sololá	702	San José Chacayá	5	Chacayá	6	Junio	2023-06-15T00:00:00	2024-11-06T16:00:00	8	Radiación solar	74
101889	7	Sololá	702	San José Chacayá	5	Chacayá	6	Junio	2023-06-15T00:00:00	2024-11-06T17:00:00	2	Temperatura media	19.4
101890	7	Sololá	702	San José Chacayá	5	Chacayá	6	Junio	2023-06-15T00:00:00	2024-11-06T17:00:00	4	Temperatura máxima	22.7
101891	7	Sololá	702	San José Chacayá	5	Chacayá	6	Junio	2023-06-15T00:00:00	2024-11-06T17:00:00	3	Temperatura mínima	18.6
101892	7	Sololá	702	San José Chacayá	5	Chacayá	6	Junio	2023-06-15T00:00:00	2024-11-06T17:00:00	5	Humedad	85
101893	7	Sololá	702	San José Chacayá	5	Chacayá	6	Junio	2023-06-15T00:00:00	2024-11-06T17:00:00	6	Velocidad del viento	4.8
101894	7	Sololá	702	San José Chacayá	5	Chacayá	6	Junio	2023-06-15T00:00:00	2024-11-06T17:00:00	7	Dirección del viento	4.83
101895	7	Sololá	702	San José Chacayá	5	Chacayá	6	Junio	2023-06-15T00:00:00	2024-11-06T17:00:00	1	Precipitación	0
101896	7	Sololá	702	San José Chacayá	5	Chacayá	6	Junio	2023-06-15T00:00:00	2024-11-06T17:00:00	8	Radiación solar	45
101897	7	Sololá	702	San José Chacayá	5	Chacayá	6	Junio	2023-06-15T00:00:00	2024-11-06T18:00:00	2	Temperatura media	18.1
101898	7	Sololá	702	San José Chacayá	5	Chacayá	6	Junio	2023-06-15T00:00:00	2024-11-06T18:00:00	4	Temperatura máxima	19.4
101899	7	Sololá	702	San José Chacayá	5	Chacayá	6	Junio	2023-06-15T00:00:00	2024-11-06T18:00:00	3	Temperatura mínima	17.9
101900	7	Sololá	702	San José Chacayá	5	Chacayá	6	Junio	2023-06-15T00:00:00	2024-11-06T18:00:00	5	Humedad	89
101901	7	Sololá	702	San José Chacayá	5	Chacayá	6	Junio	2023-06-15T00:00:00	2024-11-06T18:00:00	6	Velocidad del viento	3.2
101902	7	Sololá	702	San José Chacayá	5	Chacayá	6	Junio	2023-06-15T00:00:00	2024-11-06T18:00:00	7	Dirección del viento	3.22
101903	7	Sololá	702	San José Chacayá	5	Chacayá	6	Junio	2023-06-15T00:00:00	2024-11-06T18:00:00	1	Precipitación	0
101904	7	Sololá	702	San José Chacayá	5	Chacayá	6	Junio	2023-06-15T00:00:00	2024-11-06T18:00:00	8	Radiación solar	19
101905	7	Sololá	702	San José Chacayá	5	Chacayá	6	Junio	2023-06-15T00:00:00	2024-11-06T19:00:00	2	Temperatura media	17.3
101906	7	Sololá	702	San José Chacayá	5	Chacayá	6	Junio	2023-06-15T00:00:00	2024-11-06T19:00:00	4	Temperatura máxima	18.2
101907	7	Sololá	702	San José Chacayá	5	Chacayá	6	Junio	2023-06-15T00:00:00	2024-11-06T19:00:00	3	Temperatura mínima	17.3
101908	7	Sololá	702	San José Chacayá	5	Chacayá	6	Junio	2023-06-15T00:00:00	2024-11-06T19:00:00	5	Humedad	92
101909	7	Sololá	702	San José Chacayá	5	Chacayá	6	Junio	2023-06-15T00:00:00	2024-11-06T19:00:00	6	Velocidad del viento	1.6
101910	7	Sololá	702	San José Chacayá	5	Chacayá	6	Junio	2023-06-15T00:00:00	2024-11-06T19:00:00	7	Dirección del viento	1.61
101911	7	Sololá	702	San José Chacayá	5	Chacayá	6	Junio	2023-06-15T00:00:00	2024-11-06T19:00:00	1	Precipitación	0
101912	7	Sololá	702	San José Chacayá	5	Chacayá	6	Junio	2023-06-15T00:00:00	2024-11-06T19:00:00	8	Radiación solar	0
101913	7	Sololá	702	San José Chacayá	5	Chacayá	6	Junio	2023-06-15T00:00:00	2024-11-06T20:00:00	2	Temperatura media	16.7
101914	7	Sololá	702	San José Chacayá	5	Chacayá	6	Junio	2023-06-15T00:00:00	2024-11-06T20:00:00	4	Temperatura máxima	17.4
101915	7	Sololá	702	San José Chacayá	5	Chacayá	6	Junio	2023-06-15T00:00:00	2024-11-06T20:00:00	3	Temperatura mínima	16.7
101916	7	Sololá	702	San José Chacayá	5	Chacayá	6	Junio	2023-06-15T00:00:00	2024-11-06T20:00:00	5	Humedad	93
101917	7	Sololá	702	San José Chacayá	5	Chacayá	6	Junio	2023-06-15T00:00:00	2024-11-06T20:00:00	6	Velocidad del viento	3.2
101918	7	Sololá	702	San José Chacayá	5	Chacayá	6	Junio	2023-06-15T00:00:00	2024-11-06T20:00:00	7	Dirección del viento	3.22
101919	7	Sololá	702	San José Chacayá	5	Chacayá	6	Junio	2023-06-15T00:00:00	2024-11-06T20:00:00	1	Precipitación	7.6
101920	7	Sololá	702	San José Chacayá	5	Chacayá	6	Junio	2023-06-15T00:00:00	2024-11-06T20:00:00	8	Radiación solar	0
101921	7	Sololá	702	San José Chacayá	5	Chacayá	6	Junio	2023-06-15T00:00:00	2024-11-06T21:00:00	2	Temperatura media	16
101922	7	Sololá	702	San José Chacayá	5	Chacayá	6	Junio	2023-06-15T00:00:00	2024-11-06T21:00:00	4	Temperatura máxima	16.7
101923	7	Sololá	702	San José Chacayá	5	Chacayá	6	Junio	2023-06-15T00:00:00	2024-11-06T21:00:00	3	Temperatura mínima	16
101924	7	Sololá	702	San José Chacayá	5	Chacayá	6	Junio	2023-06-15T00:00:00	2024-11-06T21:00:00	5	Humedad	93
101925	7	Sololá	702	San José Chacayá	5	Chacayá	6	Junio	2023-06-15T00:00:00	2024-11-06T21:00:00	6	Velocidad del viento	6.4
101926	7	Sololá	702	San José Chacayá	5	Chacayá	6	Junio	2023-06-15T00:00:00	2024-11-06T21:00:00	7	Dirección del viento	6.44
101927	7	Sololá	702	San José Chacayá	5	Chacayá	6	Junio	2023-06-15T00:00:00	2024-11-06T21:00:00	1	Precipitación	4.8
101928	7	Sololá	702	San José Chacayá	5	Chacayá	6	Junio	2023-06-15T00:00:00	2024-11-06T21:00:00	8	Radiación solar	0
101929	7	Sololá	702	San José Chacayá	5	Chacayá	6	Junio	2023-06-15T00:00:00	2024-11-06T22:00:00	2	Temperatura media	15.7
101930	7	Sololá	702	San José Chacayá	5	Chacayá	6	Junio	2023-06-15T00:00:00	2024-11-06T22:00:00	4	Temperatura máxima	16.1
101931	7	Sololá	702	San José Chacayá	5	Chacayá	6	Junio	2023-06-15T00:00:00	2024-11-06T22:00:00	3	Temperatura mínima	15.7
101932	7	Sololá	702	San José Chacayá	5	Chacayá	6	Junio	2023-06-15T00:00:00	2024-11-06T22:00:00	5	Humedad	94
101933	7	Sololá	702	San José Chacayá	5	Chacayá	6	Junio	2023-06-15T00:00:00	2024-11-06T22:00:00	6	Velocidad del viento	0
101934	7	Sololá	702	San José Chacayá	5	Chacayá	6	Junio	2023-06-15T00:00:00	2024-11-06T22:00:00	7	Dirección del viento	0
101935	7	Sololá	702	San José Chacayá	5	Chacayá	6	Junio	2023-06-15T00:00:00	2024-11-06T22:00:00	1	Precipitación	2
101936	7	Sololá	702	San José Chacayá	5	Chacayá	6	Junio	2023-06-15T00:00:00	2024-11-06T22:00:00	8	Radiación solar	0
101937	7	Sololá	702	San José Chacayá	5	Chacayá	6	Junio	2023-06-15T00:00:00	2024-11-06T23:00:00	2	Temperatura media	15.1
101938	7	Sololá	702	San José Chacayá	5	Chacayá	6	Junio	2023-06-15T00:00:00	2024-11-06T23:00:00	4	Temperatura máxima	15.7
101939	7	Sololá	702	San José Chacayá	5	Chacayá	6	Junio	2023-06-15T00:00:00	2024-11-06T23:00:00	3	Temperatura mínima	15.1
101940	7	Sololá	702	San José Chacayá	5	Chacayá	6	Junio	2023-06-15T00:00:00	2024-11-06T23:00:00	5	Humedad	94
101941	7	Sololá	702	San José Chacayá	5	Chacayá	6	Junio	2023-06-15T00:00:00	2024-11-06T23:00:00	6	Velocidad del viento	0
101942	7	Sololá	702	San José Chacayá	5	Chacayá	6	Junio	2023-06-15T00:00:00	2024-11-06T23:00:00	7	Dirección del viento	0
101943	7	Sololá	702	San José Chacayá	5	Chacayá	6	Junio	2023-06-15T00:00:00	2024-11-06T23:00:00	1	Precipitación	0.8
101944	7	Sololá	702	San José Chacayá	5	Chacayá	6	Junio	2023-06-15T00:00:00	2024-11-06T23:00:00	8	Radiación solar	0
101945	7	Sololá	702	San José Chacayá	5	Chacayá	6	Junio	2023-06-16T00:00:00	2024-11-06T00:00:00	2	Temperatura media	14.2
101946	7	Sololá	702	San José Chacayá	5	Chacayá	6	Junio	2023-06-16T00:00:00	2024-11-06T00:00:00	4	Temperatura máxima	15.1
101947	7	Sololá	702	San José Chacayá	5	Chacayá	6	Junio	2023-06-16T00:00:00	2024-11-06T00:00:00	3	Temperatura mínima	14.2
101948	7	Sololá	702	San José Chacayá	5	Chacayá	6	Junio	2023-06-16T00:00:00	2024-11-06T00:00:00	5	Humedad	94
101949	7	Sololá	702	San José Chacayá	5	Chacayá	6	Junio	2023-06-16T00:00:00	2024-11-06T00:00:00	6	Velocidad del viento	0
101950	7	Sololá	702	San José Chacayá	5	Chacayá	6	Junio	2023-06-16T00:00:00	2024-11-06T00:00:00	7	Dirección del viento	0
101951	7	Sololá	702	San José Chacayá	5	Chacayá	6	Junio	2023-06-16T00:00:00	2024-11-06T00:00:00	1	Precipitación	0
101952	7	Sololá	702	San José Chacayá	5	Chacayá	6	Junio	2023-06-16T00:00:00	2024-11-06T00:00:00	8	Radiación solar	0
101953	7	Sololá	702	San José Chacayá	5	Chacayá	6	Junio	2023-06-16T00:00:00	2024-11-06T01:00:00	2	Temperatura media	13.8
101954	7	Sololá	702	San José Chacayá	5	Chacayá	6	Junio	2023-06-16T00:00:00	2024-11-06T01:00:00	4	Temperatura máxima	14.2
101955	7	Sololá	702	San José Chacayá	5	Chacayá	6	Junio	2023-06-16T00:00:00	2024-11-06T01:00:00	3	Temperatura mínima	13.7
101956	7	Sololá	702	San José Chacayá	5	Chacayá	6	Junio	2023-06-16T00:00:00	2024-11-06T01:00:00	5	Humedad	96
101957	7	Sololá	702	San José Chacayá	5	Chacayá	6	Junio	2023-06-16T00:00:00	2024-11-06T01:00:00	6	Velocidad del viento	0
101958	7	Sololá	702	San José Chacayá	5	Chacayá	6	Junio	2023-06-16T00:00:00	2024-11-06T01:00:00	7	Dirección del viento	0
101959	7	Sololá	702	San José Chacayá	5	Chacayá	6	Junio	2023-06-16T00:00:00	2024-11-06T01:00:00	1	Precipitación	0
101960	7	Sololá	702	San José Chacayá	5	Chacayá	6	Junio	2023-06-16T00:00:00	2024-11-06T01:00:00	8	Radiación solar	0
101961	7	Sololá	702	San José Chacayá	5	Chacayá	6	Junio	2023-06-16T00:00:00	2024-11-06T02:00:00	2	Temperatura media	14.5
101962	7	Sololá	702	San José Chacayá	5	Chacayá	6	Junio	2023-06-16T00:00:00	2024-11-06T02:00:00	4	Temperatura máxima	14.5
101963	7	Sololá	702	San José Chacayá	5	Chacayá	6	Junio	2023-06-16T00:00:00	2024-11-06T02:00:00	3	Temperatura mínima	13.8
101964	7	Sololá	702	San José Chacayá	5	Chacayá	6	Junio	2023-06-16T00:00:00	2024-11-06T02:00:00	5	Humedad	96
101965	7	Sololá	702	San José Chacayá	5	Chacayá	6	Junio	2023-06-16T00:00:00	2024-11-06T02:00:00	6	Velocidad del viento	0
101966	7	Sololá	702	San José Chacayá	5	Chacayá	6	Junio	2023-06-16T00:00:00	2024-11-06T02:00:00	7	Dirección del viento	0
101967	7	Sololá	702	San José Chacayá	5	Chacayá	6	Junio	2023-06-16T00:00:00	2024-11-06T02:00:00	1	Precipitación	0
101968	7	Sololá	702	San José Chacayá	5	Chacayá	6	Junio	2023-06-16T00:00:00	2024-11-06T02:00:00	8	Radiación solar	0
101969	7	Sololá	702	San José Chacayá	5	Chacayá	6	Junio	2023-06-16T00:00:00	2024-11-06T03:00:00	2	Temperatura media	14
101970	7	Sololá	702	San José Chacayá	5	Chacayá	6	Junio	2023-06-16T00:00:00	2024-11-06T03:00:00	4	Temperatura máxima	14.7
101971	7	Sololá	702	San José Chacayá	5	Chacayá	6	Junio	2023-06-16T00:00:00	2024-11-06T03:00:00	3	Temperatura mínima	13.9
101972	7	Sololá	702	San José Chacayá	5	Chacayá	6	Junio	2023-06-16T00:00:00	2024-11-06T03:00:00	5	Humedad	95
101973	7	Sololá	702	San José Chacayá	5	Chacayá	6	Junio	2023-06-16T00:00:00	2024-11-06T03:00:00	6	Velocidad del viento	0
101974	7	Sololá	702	San José Chacayá	5	Chacayá	6	Junio	2023-06-16T00:00:00	2024-11-06T03:00:00	7	Dirección del viento	0
101975	7	Sololá	702	San José Chacayá	5	Chacayá	6	Junio	2023-06-16T00:00:00	2024-11-06T03:00:00	1	Precipitación	0
101976	7	Sololá	702	San José Chacayá	5	Chacayá	6	Junio	2023-06-16T00:00:00	2024-11-06T03:00:00	8	Radiación solar	0
101977	7	Sololá	702	San José Chacayá	5	Chacayá	6	Junio	2023-06-16T00:00:00	2024-11-06T04:00:00	2	Temperatura media	13.1
101978	7	Sololá	702	San José Chacayá	5	Chacayá	6	Junio	2023-06-16T00:00:00	2024-11-06T04:00:00	4	Temperatura máxima	14
101979	7	Sololá	702	San José Chacayá	5	Chacayá	6	Junio	2023-06-16T00:00:00	2024-11-06T04:00:00	3	Temperatura mínima	13.1
101980	7	Sololá	702	San José Chacayá	5	Chacayá	6	Junio	2023-06-16T00:00:00	2024-11-06T04:00:00	5	Humedad	95
101981	7	Sololá	702	San José Chacayá	5	Chacayá	6	Junio	2023-06-16T00:00:00	2024-11-06T04:00:00	6	Velocidad del viento	0
101982	7	Sololá	702	San José Chacayá	5	Chacayá	6	Junio	2023-06-16T00:00:00	2024-11-06T04:00:00	7	Dirección del viento	0
101983	7	Sololá	702	San José Chacayá	5	Chacayá	6	Junio	2023-06-16T00:00:00	2024-11-06T04:00:00	1	Precipitación	0
101984	7	Sololá	702	San José Chacayá	5	Chacayá	6	Junio	2023-06-16T00:00:00	2024-11-06T04:00:00	8	Radiación solar	0
101985	7	Sololá	702	San José Chacayá	5	Chacayá	6	Junio	2023-06-16T00:00:00	2024-11-06T05:00:00	2	Temperatura media	13.1
101986	7	Sololá	702	San José Chacayá	5	Chacayá	6	Junio	2023-06-16T00:00:00	2024-11-06T05:00:00	4	Temperatura máxima	13.1
101987	7	Sololá	702	San José Chacayá	5	Chacayá	6	Junio	2023-06-16T00:00:00	2024-11-06T05:00:00	3	Temperatura mínima	12.6
101988	7	Sololá	702	San José Chacayá	5	Chacayá	6	Junio	2023-06-16T00:00:00	2024-11-06T05:00:00	5	Humedad	97
101989	7	Sololá	702	San José Chacayá	5	Chacayá	6	Junio	2023-06-16T00:00:00	2024-11-06T05:00:00	6	Velocidad del viento	0
101990	7	Sololá	702	San José Chacayá	5	Chacayá	6	Junio	2023-06-16T00:00:00	2024-11-06T05:00:00	7	Dirección del viento	0
101991	7	Sololá	702	San José Chacayá	5	Chacayá	6	Junio	2023-06-16T00:00:00	2024-11-06T05:00:00	1	Precipitación	0
101992	7	Sololá	702	San José Chacayá	5	Chacayá	6	Junio	2023-06-16T00:00:00	2024-11-06T05:00:00	8	Radiación solar	0
101993	7	Sololá	702	San José Chacayá	5	Chacayá	6	Junio	2023-06-16T00:00:00	2024-11-06T06:00:00	2	Temperatura media	13.6
101994	7	Sololá	702	San José Chacayá	5	Chacayá	6	Junio	2023-06-16T00:00:00	2024-11-06T06:00:00	4	Temperatura máxima	13.6
101995	7	Sololá	702	San José Chacayá	5	Chacayá	6	Junio	2023-06-16T00:00:00	2024-11-06T06:00:00	3	Temperatura mínima	13.1
101996	7	Sololá	702	San José Chacayá	5	Chacayá	6	Junio	2023-06-16T00:00:00	2024-11-06T06:00:00	5	Humedad	97
101997	7	Sololá	702	San José Chacayá	5	Chacayá	6	Junio	2023-06-16T00:00:00	2024-11-06T06:00:00	6	Velocidad del viento	0
101998	7	Sololá	702	San José Chacayá	5	Chacayá	6	Junio	2023-06-16T00:00:00	2024-11-06T06:00:00	7	Dirección del viento	0
101999	7	Sololá	702	San José Chacayá	5	Chacayá	6	Junio	2023-06-16T00:00:00	2024-11-06T06:00:00	1	Precipitación	0
102000	7	Sololá	702	San José Chacayá	5	Chacayá	6	Junio	2023-06-16T00:00:00	2024-11-06T06:00:00	8	Radiación solar	9
102001	7	Sololá	702	San José Chacayá	5	Chacayá	6	Junio	2023-06-16T00:00:00	2024-11-06T07:00:00	2	Temperatura media	14.6
102002	7	Sololá	702	San José Chacayá	5	Chacayá	6	Junio	2023-06-16T00:00:00	2024-11-06T07:00:00	4	Temperatura máxima	14.6
102003	7	Sololá	702	San José Chacayá	5	Chacayá	6	Junio	2023-06-16T00:00:00	2024-11-06T07:00:00	3	Temperatura mínima	13.6
102004	7	Sololá	702	San José Chacayá	5	Chacayá	6	Junio	2023-06-16T00:00:00	2024-11-06T07:00:00	5	Humedad	96
102005	7	Sololá	702	San José Chacayá	5	Chacayá	6	Junio	2023-06-16T00:00:00	2024-11-06T07:00:00	6	Velocidad del viento	0
102006	7	Sololá	702	San José Chacayá	5	Chacayá	6	Junio	2023-06-16T00:00:00	2024-11-06T07:00:00	7	Dirección del viento	0
102007	7	Sololá	702	San José Chacayá	5	Chacayá	6	Junio	2023-06-16T00:00:00	2024-11-06T07:00:00	1	Precipitación	0
102008	7	Sololá	702	San José Chacayá	5	Chacayá	6	Junio	2023-06-16T00:00:00	2024-11-06T07:00:00	8	Radiación solar	74
102009	7	Sololá	702	San José Chacayá	5	Chacayá	6	Junio	2023-06-16T00:00:00	2024-11-06T08:00:00	2	Temperatura media	18.1
102010	7	Sololá	702	San José Chacayá	5	Chacayá	6	Junio	2023-06-16T00:00:00	2024-11-06T08:00:00	4	Temperatura máxima	18.1
102011	7	Sololá	702	San José Chacayá	5	Chacayá	6	Junio	2023-06-16T00:00:00	2024-11-06T08:00:00	3	Temperatura mínima	14.7
102012	7	Sololá	702	San José Chacayá	5	Chacayá	6	Junio	2023-06-16T00:00:00	2024-11-06T08:00:00	5	Humedad	86
102013	7	Sololá	702	San José Chacayá	5	Chacayá	6	Junio	2023-06-16T00:00:00	2024-11-06T08:00:00	6	Velocidad del viento	1.6
102014	7	Sololá	702	San José Chacayá	5	Chacayá	6	Junio	2023-06-16T00:00:00	2024-11-06T08:00:00	7	Dirección del viento	1.61
102015	7	Sololá	702	San José Chacayá	5	Chacayá	6	Junio	2023-06-16T00:00:00	2024-11-06T08:00:00	1	Precipitación	0
102016	7	Sololá	702	San José Chacayá	5	Chacayá	6	Junio	2023-06-16T00:00:00	2024-11-06T08:00:00	8	Radiación solar	217
102017	7	Sololá	702	San José Chacayá	5	Chacayá	6	Junio	2023-06-16T00:00:00	2024-11-06T09:00:00	2	Temperatura media	21.7
102018	7	Sololá	702	San José Chacayá	5	Chacayá	6	Junio	2023-06-16T00:00:00	2024-11-06T09:00:00	4	Temperatura máxima	21.7
102019	7	Sololá	702	San José Chacayá	5	Chacayá	6	Junio	2023-06-16T00:00:00	2024-11-06T09:00:00	3	Temperatura mínima	18.1
102020	7	Sololá	702	San José Chacayá	5	Chacayá	6	Junio	2023-06-16T00:00:00	2024-11-06T09:00:00	5	Humedad	65
102021	7	Sololá	702	San José Chacayá	5	Chacayá	6	Junio	2023-06-16T00:00:00	2024-11-06T09:00:00	6	Velocidad del viento	3.2
102022	7	Sololá	702	San José Chacayá	5	Chacayá	6	Junio	2023-06-16T00:00:00	2024-11-06T09:00:00	7	Dirección del viento	3.22
102023	7	Sololá	702	San José Chacayá	5	Chacayá	6	Junio	2023-06-16T00:00:00	2024-11-06T09:00:00	1	Precipitación	0
102024	7	Sololá	702	San José Chacayá	5	Chacayá	6	Junio	2023-06-16T00:00:00	2024-11-06T09:00:00	8	Radiación solar	559
102025	7	Sololá	702	San José Chacayá	5	Chacayá	6	Junio	2023-06-16T00:00:00	2024-11-06T10:00:00	2	Temperatura media	23.1
102026	7	Sololá	702	San José Chacayá	5	Chacayá	6	Junio	2023-06-16T00:00:00	2024-11-06T10:00:00	4	Temperatura máxima	23.1
102027	7	Sololá	702	San José Chacayá	5	Chacayá	6	Junio	2023-06-16T00:00:00	2024-11-06T10:00:00	3	Temperatura mínima	21.7
102028	7	Sololá	702	San José Chacayá	5	Chacayá	6	Junio	2023-06-16T00:00:00	2024-11-06T10:00:00	5	Humedad	60
102029	7	Sololá	702	San José Chacayá	5	Chacayá	6	Junio	2023-06-16T00:00:00	2024-11-06T10:00:00	6	Velocidad del viento	3.2
102030	7	Sololá	702	San José Chacayá	5	Chacayá	6	Junio	2023-06-16T00:00:00	2024-11-06T10:00:00	7	Dirección del viento	3.22
102031	7	Sololá	702	San José Chacayá	5	Chacayá	6	Junio	2023-06-16T00:00:00	2024-11-06T10:00:00	1	Precipitación	0
102032	7	Sololá	702	San José Chacayá	5	Chacayá	6	Junio	2023-06-16T00:00:00	2024-11-06T10:00:00	8	Radiación solar	428
102033	7	Sololá	702	San José Chacayá	5	Chacayá	6	Junio	2023-06-16T00:00:00	2024-11-06T11:00:00	2	Temperatura media	23.6
102034	7	Sololá	702	San José Chacayá	5	Chacayá	6	Junio	2023-06-16T00:00:00	2024-11-06T11:00:00	4	Temperatura máxima	23.9
102035	7	Sololá	702	San José Chacayá	5	Chacayá	6	Junio	2023-06-16T00:00:00	2024-11-06T11:00:00	3	Temperatura mínima	23.1
102036	7	Sololá	702	San José Chacayá	5	Chacayá	6	Junio	2023-06-16T00:00:00	2024-11-06T11:00:00	5	Humedad	63
102037	7	Sololá	702	San José Chacayá	5	Chacayá	6	Junio	2023-06-16T00:00:00	2024-11-06T11:00:00	6	Velocidad del viento	6.4
102038	7	Sololá	702	San José Chacayá	5	Chacayá	6	Junio	2023-06-16T00:00:00	2024-11-06T11:00:00	7	Dirección del viento	6.44
102039	7	Sololá	702	San José Chacayá	5	Chacayá	6	Junio	2023-06-16T00:00:00	2024-11-06T11:00:00	1	Precipitación	0
102040	7	Sololá	702	San José Chacayá	5	Chacayá	6	Junio	2023-06-16T00:00:00	2024-11-06T11:00:00	8	Radiación solar	148
102041	7	Sololá	702	San José Chacayá	5	Chacayá	6	Junio	2023-06-16T00:00:00	2024-11-06T12:00:00	2	Temperatura media	23.5
102042	7	Sololá	702	San José Chacayá	5	Chacayá	6	Junio	2023-06-16T00:00:00	2024-11-06T12:00:00	4	Temperatura máxima	23.9
102043	7	Sololá	702	San José Chacayá	5	Chacayá	6	Junio	2023-06-16T00:00:00	2024-11-06T12:00:00	3	Temperatura mínima	23.1
102044	7	Sololá	702	San José Chacayá	5	Chacayá	6	Junio	2023-06-16T00:00:00	2024-11-06T12:00:00	5	Humedad	67
102045	7	Sololá	702	San José Chacayá	5	Chacayá	6	Junio	2023-06-16T00:00:00	2024-11-06T12:00:00	6	Velocidad del viento	6.4
102046	7	Sololá	702	San José Chacayá	5	Chacayá	6	Junio	2023-06-16T00:00:00	2024-11-06T12:00:00	7	Dirección del viento	6.44
102047	7	Sololá	702	San José Chacayá	5	Chacayá	6	Junio	2023-06-16T00:00:00	2024-11-06T12:00:00	1	Precipitación	0
102048	7	Sololá	702	San José Chacayá	5	Chacayá	6	Junio	2023-06-16T00:00:00	2024-11-06T12:00:00	8	Radiación solar	93
102049	7	Sololá	702	San José Chacayá	5	Chacayá	6	Junio	2023-06-16T00:00:00	2024-11-06T13:00:00	2	Temperatura media	23.6
102050	7	Sololá	702	San José Chacayá	5	Chacayá	6	Junio	2023-06-16T00:00:00	2024-11-06T13:00:00	4	Temperatura máxima	24.2
102051	7	Sololá	702	San José Chacayá	5	Chacayá	6	Junio	2023-06-16T00:00:00	2024-11-06T13:00:00	3	Temperatura mínima	23.3
102052	7	Sololá	702	San José Chacayá	5	Chacayá	6	Junio	2023-06-16T00:00:00	2024-11-06T13:00:00	5	Humedad	69
102053	7	Sololá	702	San José Chacayá	5	Chacayá	6	Junio	2023-06-16T00:00:00	2024-11-06T13:00:00	6	Velocidad del viento	6.4
102054	7	Sololá	702	San José Chacayá	5	Chacayá	6	Junio	2023-06-16T00:00:00	2024-11-06T13:00:00	7	Dirección del viento	6.44
102055	7	Sololá	702	San José Chacayá	5	Chacayá	6	Junio	2023-06-16T00:00:00	2024-11-06T13:00:00	1	Precipitación	0
102056	7	Sololá	702	San José Chacayá	5	Chacayá	6	Junio	2023-06-16T00:00:00	2024-11-06T13:00:00	8	Radiación solar	318
102057	7	Sololá	702	San José Chacayá	5	Chacayá	6	Junio	2023-06-16T00:00:00	2024-11-06T14:00:00	2	Temperatura media	23
102058	7	Sololá	702	San José Chacayá	5	Chacayá	6	Junio	2023-06-16T00:00:00	2024-11-06T14:00:00	4	Temperatura máxima	23.8
102059	7	Sololá	702	San José Chacayá	5	Chacayá	6	Junio	2023-06-16T00:00:00	2024-11-06T14:00:00	3	Temperatura mínima	22.8
102060	7	Sololá	702	San José Chacayá	5	Chacayá	6	Junio	2023-06-16T00:00:00	2024-11-06T14:00:00	5	Humedad	69
102061	7	Sololá	702	San José Chacayá	5	Chacayá	6	Junio	2023-06-16T00:00:00	2024-11-06T14:00:00	6	Velocidad del viento	4.8
102062	7	Sololá	702	San José Chacayá	5	Chacayá	6	Junio	2023-06-16T00:00:00	2024-11-06T14:00:00	7	Dirección del viento	4.83
102063	7	Sololá	702	San José Chacayá	5	Chacayá	6	Junio	2023-06-16T00:00:00	2024-11-06T14:00:00	1	Precipitación	0
102064	7	Sololá	702	San José Chacayá	5	Chacayá	6	Junio	2023-06-16T00:00:00	2024-11-06T14:00:00	8	Radiación solar	143
102065	7	Sololá	702	San José Chacayá	5	Chacayá	6	Junio	2023-06-16T00:00:00	2024-11-06T15:00:00	2	Temperatura media	22.7
102066	7	Sololá	702	San José Chacayá	5	Chacayá	6	Junio	2023-06-16T00:00:00	2024-11-06T15:00:00	4	Temperatura máxima	23.3
102067	7	Sololá	702	San José Chacayá	5	Chacayá	6	Junio	2023-06-16T00:00:00	2024-11-06T15:00:00	3	Temperatura mínima	22.6
102068	7	Sololá	702	San José Chacayá	5	Chacayá	6	Junio	2023-06-16T00:00:00	2024-11-06T15:00:00	5	Humedad	73
102069	7	Sololá	702	San José Chacayá	5	Chacayá	6	Junio	2023-06-16T00:00:00	2024-11-06T15:00:00	6	Velocidad del viento	6.4
102070	7	Sololá	702	San José Chacayá	5	Chacayá	6	Junio	2023-06-16T00:00:00	2024-11-06T15:00:00	7	Dirección del viento	6.44
102071	7	Sololá	702	San José Chacayá	5	Chacayá	6	Junio	2023-06-16T00:00:00	2024-11-06T15:00:00	1	Precipitación	0
102072	7	Sololá	702	San José Chacayá	5	Chacayá	6	Junio	2023-06-16T00:00:00	2024-11-06T15:00:00	8	Radiación solar	142
102073	7	Sololá	702	San José Chacayá	5	Chacayá	6	Junio	2023-06-16T00:00:00	2024-11-06T16:00:00	2	Temperatura media	20.5
102074	7	Sololá	702	San José Chacayá	5	Chacayá	6	Junio	2023-06-16T00:00:00	2024-11-06T16:00:00	4	Temperatura máxima	22.7
102075	7	Sololá	702	San José Chacayá	5	Chacayá	6	Junio	2023-06-16T00:00:00	2024-11-06T16:00:00	3	Temperatura mínima	19.7
102076	7	Sololá	702	San José Chacayá	5	Chacayá	6	Junio	2023-06-16T00:00:00	2024-11-06T16:00:00	5	Humedad	80
102077	7	Sololá	702	San José Chacayá	5	Chacayá	6	Junio	2023-06-16T00:00:00	2024-11-06T16:00:00	6	Velocidad del viento	4.8
102078	7	Sololá	702	San José Chacayá	5	Chacayá	6	Junio	2023-06-16T00:00:00	2024-11-06T16:00:00	7	Dirección del viento	4.83
102079	7	Sololá	702	San José Chacayá	5	Chacayá	6	Junio	2023-06-16T00:00:00	2024-11-06T16:00:00	1	Precipitación	0
102080	7	Sololá	702	San José Chacayá	5	Chacayá	6	Junio	2023-06-16T00:00:00	2024-11-06T16:00:00	8	Radiación solar	103
102081	7	Sololá	702	San José Chacayá	5	Chacayá	6	Junio	2023-06-16T00:00:00	2024-11-06T17:00:00	2	Temperatura media	19.3
102082	7	Sololá	702	San José Chacayá	5	Chacayá	6	Junio	2023-06-16T00:00:00	2024-11-06T17:00:00	4	Temperatura máxima	20.7
102083	7	Sololá	702	San José Chacayá	5	Chacayá	6	Junio	2023-06-16T00:00:00	2024-11-06T17:00:00	3	Temperatura mínima	18.4
102084	7	Sololá	702	San José Chacayá	5	Chacayá	6	Junio	2023-06-16T00:00:00	2024-11-06T17:00:00	5	Humedad	78
102085	7	Sololá	702	San José Chacayá	5	Chacayá	6	Junio	2023-06-16T00:00:00	2024-11-06T17:00:00	6	Velocidad del viento	3.2
102086	7	Sololá	702	San José Chacayá	5	Chacayá	6	Junio	2023-06-16T00:00:00	2024-11-06T17:00:00	7	Dirección del viento	3.22
102087	7	Sololá	702	San José Chacayá	5	Chacayá	6	Junio	2023-06-16T00:00:00	2024-11-06T17:00:00	1	Precipitación	0.2
102088	7	Sololá	702	San José Chacayá	5	Chacayá	6	Junio	2023-06-16T00:00:00	2024-11-06T17:00:00	8	Radiación solar	55
102089	7	Sololá	702	San José Chacayá	5	Chacayá	6	Junio	2023-06-16T00:00:00	2024-11-06T18:00:00	2	Temperatura media	17.3
102090	7	Sololá	702	San José Chacayá	5	Chacayá	6	Junio	2023-06-16T00:00:00	2024-11-06T18:00:00	4	Temperatura máxima	19.3
102091	7	Sololá	702	San José Chacayá	5	Chacayá	6	Junio	2023-06-16T00:00:00	2024-11-06T18:00:00	3	Temperatura mínima	17.2
102092	7	Sololá	702	San José Chacayá	5	Chacayá	6	Junio	2023-06-16T00:00:00	2024-11-06T18:00:00	5	Humedad	85
102093	7	Sololá	702	San José Chacayá	5	Chacayá	6	Junio	2023-06-16T00:00:00	2024-11-06T18:00:00	6	Velocidad del viento	1.6
102094	7	Sololá	702	San José Chacayá	5	Chacayá	6	Junio	2023-06-16T00:00:00	2024-11-06T18:00:00	7	Dirección del viento	1.61
102095	7	Sololá	702	San José Chacayá	5	Chacayá	6	Junio	2023-06-16T00:00:00	2024-11-06T18:00:00	1	Precipitación	0
102096	7	Sololá	702	San José Chacayá	5	Chacayá	6	Junio	2023-06-16T00:00:00	2024-11-06T18:00:00	8	Radiación solar	7
102097	7	Sololá	702	San José Chacayá	5	Chacayá	6	Junio	2023-06-16T00:00:00	2024-11-06T19:00:00	2	Temperatura media	16.3
102098	7	Sololá	702	San José Chacayá	5	Chacayá	6	Junio	2023-06-16T00:00:00	2024-11-06T19:00:00	4	Temperatura máxima	17.2
102099	7	Sololá	702	San José Chacayá	5	Chacayá	6	Junio	2023-06-16T00:00:00	2024-11-06T19:00:00	3	Temperatura mínima	16.2
102100	7	Sololá	702	San José Chacayá	5	Chacayá	6	Junio	2023-06-16T00:00:00	2024-11-06T19:00:00	5	Humedad	90
102101	7	Sololá	702	San José Chacayá	5	Chacayá	6	Junio	2023-06-16T00:00:00	2024-11-06T19:00:00	6	Velocidad del viento	0
102102	7	Sololá	702	San José Chacayá	5	Chacayá	6	Junio	2023-06-16T00:00:00	2024-11-06T19:00:00	7	Dirección del viento	0
102103	7	Sololá	702	San José Chacayá	5	Chacayá	6	Junio	2023-06-16T00:00:00	2024-11-06T19:00:00	1	Precipitación	0
102104	7	Sololá	702	San José Chacayá	5	Chacayá	6	Junio	2023-06-16T00:00:00	2024-11-06T19:00:00	8	Radiación solar	0
102105	7	Sololá	702	San José Chacayá	5	Chacayá	6	Junio	2023-06-16T00:00:00	2024-11-06T20:00:00	2	Temperatura media	15.2
102106	7	Sololá	702	San José Chacayá	5	Chacayá	6	Junio	2023-06-16T00:00:00	2024-11-06T20:00:00	4	Temperatura máxima	16.3
102107	7	Sololá	702	San José Chacayá	5	Chacayá	6	Junio	2023-06-16T00:00:00	2024-11-06T20:00:00	3	Temperatura mínima	15.2
102108	7	Sololá	702	San José Chacayá	5	Chacayá	6	Junio	2023-06-16T00:00:00	2024-11-06T20:00:00	5	Humedad	92
102109	7	Sololá	702	San José Chacayá	5	Chacayá	6	Junio	2023-06-16T00:00:00	2024-11-06T20:00:00	6	Velocidad del viento	0
102110	7	Sololá	702	San José Chacayá	5	Chacayá	6	Junio	2023-06-16T00:00:00	2024-11-06T20:00:00	7	Dirección del viento	0
102111	7	Sololá	702	San José Chacayá	5	Chacayá	6	Junio	2023-06-16T00:00:00	2024-11-06T20:00:00	1	Precipitación	0
102112	7	Sololá	702	San José Chacayá	5	Chacayá	6	Junio	2023-06-16T00:00:00	2024-11-06T20:00:00	8	Radiación solar	0
102113	7	Sololá	702	San José Chacayá	5	Chacayá	6	Junio	2023-06-16T00:00:00	2024-11-06T21:00:00	2	Temperatura media	14.6
102114	7	Sololá	702	San José Chacayá	5	Chacayá	6	Junio	2023-06-16T00:00:00	2024-11-06T21:00:00	4	Temperatura máxima	15.2
102115	7	Sololá	702	San José Chacayá	5	Chacayá	6	Junio	2023-06-16T00:00:00	2024-11-06T21:00:00	3	Temperatura mínima	14.6
102116	7	Sololá	702	San José Chacayá	5	Chacayá	6	Junio	2023-06-16T00:00:00	2024-11-06T21:00:00	5	Humedad	89
102117	7	Sololá	702	San José Chacayá	5	Chacayá	6	Junio	2023-06-16T00:00:00	2024-11-06T21:00:00	6	Velocidad del viento	1.6
102118	7	Sololá	702	San José Chacayá	5	Chacayá	6	Junio	2023-06-16T00:00:00	2024-11-06T21:00:00	7	Dirección del viento	1.61
102119	7	Sololá	702	San José Chacayá	5	Chacayá	6	Junio	2023-06-16T00:00:00	2024-11-06T21:00:00	1	Precipitación	1.4
102120	7	Sololá	702	San José Chacayá	5	Chacayá	6	Junio	2023-06-16T00:00:00	2024-11-06T21:00:00	8	Radiación solar	0
102121	7	Sololá	702	San José Chacayá	5	Chacayá	6	Junio	2023-06-16T00:00:00	2024-11-06T22:00:00	2	Temperatura media	15.2
102122	7	Sololá	702	San José Chacayá	5	Chacayá	6	Junio	2023-06-16T00:00:00	2024-11-06T22:00:00	4	Temperatura máxima	15.2
102123	7	Sololá	702	San José Chacayá	5	Chacayá	6	Junio	2023-06-16T00:00:00	2024-11-06T22:00:00	3	Temperatura mínima	14.6
102124	7	Sololá	702	San José Chacayá	5	Chacayá	6	Junio	2023-06-16T00:00:00	2024-11-06T22:00:00	5	Humedad	92
102125	7	Sololá	702	San José Chacayá	5	Chacayá	6	Junio	2023-06-16T00:00:00	2024-11-06T22:00:00	6	Velocidad del viento	1.6
102126	7	Sololá	702	San José Chacayá	5	Chacayá	6	Junio	2023-06-16T00:00:00	2024-11-06T22:00:00	7	Dirección del viento	1.61
102127	7	Sololá	702	San José Chacayá	5	Chacayá	6	Junio	2023-06-16T00:00:00	2024-11-06T22:00:00	1	Precipitación	0.6
102128	7	Sololá	702	San José Chacayá	5	Chacayá	6	Junio	2023-06-16T00:00:00	2024-11-06T22:00:00	8	Radiación solar	0
102129	7	Sololá	702	San José Chacayá	5	Chacayá	6	Junio	2023-06-16T00:00:00	2024-11-06T23:00:00	2	Temperatura media	14.1
102130	7	Sololá	702	San José Chacayá	5	Chacayá	6	Junio	2023-06-16T00:00:00	2024-11-06T23:00:00	4	Temperatura máxima	15.3
102131	7	Sololá	702	San José Chacayá	5	Chacayá	6	Junio	2023-06-16T00:00:00	2024-11-06T23:00:00	3	Temperatura mínima	14.1
102132	7	Sololá	702	San José Chacayá	5	Chacayá	6	Junio	2023-06-16T00:00:00	2024-11-06T23:00:00	5	Humedad	89
102133	7	Sololá	702	San José Chacayá	5	Chacayá	6	Junio	2023-06-16T00:00:00	2024-11-06T23:00:00	6	Velocidad del viento	3.2
102134	7	Sololá	702	San José Chacayá	5	Chacayá	6	Junio	2023-06-16T00:00:00	2024-11-06T23:00:00	7	Dirección del viento	3.22
102135	7	Sololá	702	San José Chacayá	5	Chacayá	6	Junio	2023-06-16T00:00:00	2024-11-06T23:00:00	1	Precipitación	0.4
102136	7	Sololá	702	San José Chacayá	5	Chacayá	6	Junio	2023-06-16T00:00:00	2024-11-06T23:00:00	8	Radiación solar	0
102137	7	Sololá	702	San José Chacayá	5	Chacayá	6	Junio	2023-06-17T00:00:00	2024-11-06T00:00:00	2	Temperatura media	12.8
102138	7	Sololá	702	San José Chacayá	5	Chacayá	6	Junio	2023-06-17T00:00:00	2024-11-06T00:00:00	4	Temperatura máxima	14.2
102139	7	Sololá	702	San José Chacayá	5	Chacayá	6	Junio	2023-06-17T00:00:00	2024-11-06T00:00:00	3	Temperatura mínima	12.8
102140	7	Sololá	702	San José Chacayá	5	Chacayá	6	Junio	2023-06-17T00:00:00	2024-11-06T00:00:00	5	Humedad	94
102141	7	Sololá	702	San José Chacayá	5	Chacayá	6	Junio	2023-06-17T00:00:00	2024-11-06T00:00:00	6	Velocidad del viento	0
102142	7	Sololá	702	San José Chacayá	5	Chacayá	6	Junio	2023-06-17T00:00:00	2024-11-06T00:00:00	7	Dirección del viento	0
102143	7	Sololá	702	San José Chacayá	5	Chacayá	6	Junio	2023-06-17T00:00:00	2024-11-06T00:00:00	1	Precipitación	0.2
102144	7	Sololá	702	San José Chacayá	5	Chacayá	6	Junio	2023-06-17T00:00:00	2024-11-06T00:00:00	8	Radiación solar	0
102145	7	Sololá	702	San José Chacayá	5	Chacayá	6	Junio	2023-06-17T00:00:00	2024-11-06T01:00:00	2	Temperatura media	12.6
102146	7	Sololá	702	San José Chacayá	5	Chacayá	6	Junio	2023-06-17T00:00:00	2024-11-06T01:00:00	4	Temperatura máxima	12.8
102147	7	Sololá	702	San José Chacayá	5	Chacayá	6	Junio	2023-06-17T00:00:00	2024-11-06T01:00:00	3	Temperatura mínima	12.6
102148	7	Sololá	702	San José Chacayá	5	Chacayá	6	Junio	2023-06-17T00:00:00	2024-11-06T01:00:00	5	Humedad	94
102149	7	Sololá	702	San José Chacayá	5	Chacayá	6	Junio	2023-06-17T00:00:00	2024-11-06T01:00:00	6	Velocidad del viento	0
102150	7	Sololá	702	San José Chacayá	5	Chacayá	6	Junio	2023-06-17T00:00:00	2024-11-06T01:00:00	7	Dirección del viento	0
102151	7	Sololá	702	San José Chacayá	5	Chacayá	6	Junio	2023-06-17T00:00:00	2024-11-06T01:00:00	1	Precipitación	0
102152	7	Sololá	702	San José Chacayá	5	Chacayá	6	Junio	2023-06-17T00:00:00	2024-11-06T01:00:00	8	Radiación solar	0
102153	7	Sololá	702	San José Chacayá	5	Chacayá	6	Junio	2023-06-17T00:00:00	2024-11-06T02:00:00	2	Temperatura media	11.9
102154	7	Sololá	702	San José Chacayá	5	Chacayá	6	Junio	2023-06-17T00:00:00	2024-11-06T02:00:00	4	Temperatura máxima	12.6
102155	7	Sololá	702	San José Chacayá	5	Chacayá	6	Junio	2023-06-17T00:00:00	2024-11-06T02:00:00	3	Temperatura mínima	11.9
102156	7	Sololá	702	San José Chacayá	5	Chacayá	6	Junio	2023-06-17T00:00:00	2024-11-06T02:00:00	5	Humedad	94
102157	7	Sololá	702	San José Chacayá	5	Chacayá	6	Junio	2023-06-17T00:00:00	2024-11-06T02:00:00	6	Velocidad del viento	0
102158	7	Sololá	702	San José Chacayá	5	Chacayá	6	Junio	2023-06-17T00:00:00	2024-11-06T02:00:00	7	Dirección del viento	0
102159	7	Sololá	702	San José Chacayá	5	Chacayá	6	Junio	2023-06-17T00:00:00	2024-11-06T02:00:00	1	Precipitación	0
102160	7	Sololá	702	San José Chacayá	5	Chacayá	6	Junio	2023-06-17T00:00:00	2024-11-06T02:00:00	8	Radiación solar	0
102161	7	Sololá	702	San José Chacayá	5	Chacayá	6	Junio	2023-06-17T00:00:00	2024-11-06T03:00:00	2	Temperatura media	11.5
102162	7	Sololá	702	San José Chacayá	5	Chacayá	6	Junio	2023-06-17T00:00:00	2024-11-06T03:00:00	4	Temperatura máxima	12
102163	7	Sololá	702	San José Chacayá	5	Chacayá	6	Junio	2023-06-17T00:00:00	2024-11-06T03:00:00	3	Temperatura mínima	11.5
102164	7	Sololá	702	San José Chacayá	5	Chacayá	6	Junio	2023-06-17T00:00:00	2024-11-06T03:00:00	5	Humedad	94
102165	7	Sololá	702	San José Chacayá	5	Chacayá	6	Junio	2023-06-17T00:00:00	2024-11-06T03:00:00	6	Velocidad del viento	0
102166	7	Sololá	702	San José Chacayá	5	Chacayá	6	Junio	2023-06-17T00:00:00	2024-11-06T03:00:00	7	Dirección del viento	0
102167	7	Sololá	702	San José Chacayá	5	Chacayá	6	Junio	2023-06-17T00:00:00	2024-11-06T03:00:00	1	Precipitación	0
102168	7	Sololá	702	San José Chacayá	5	Chacayá	6	Junio	2023-06-17T00:00:00	2024-11-06T03:00:00	8	Radiación solar	0
102169	7	Sololá	702	San José Chacayá	5	Chacayá	6	Junio	2023-06-17T00:00:00	2024-11-06T04:00:00	2	Temperatura media	11.5
102170	7	Sololá	702	San José Chacayá	5	Chacayá	6	Junio	2023-06-17T00:00:00	2024-11-06T04:00:00	4	Temperatura máxima	11.6
102171	7	Sololá	702	San José Chacayá	5	Chacayá	6	Junio	2023-06-17T00:00:00	2024-11-06T04:00:00	3	Temperatura mínima	11.4
102172	7	Sololá	702	San José Chacayá	5	Chacayá	6	Junio	2023-06-17T00:00:00	2024-11-06T04:00:00	5	Humedad	94
102173	7	Sololá	702	San José Chacayá	5	Chacayá	6	Junio	2023-06-17T00:00:00	2024-11-06T04:00:00	6	Velocidad del viento	1.6
102174	7	Sololá	702	San José Chacayá	5	Chacayá	6	Junio	2023-06-17T00:00:00	2024-11-06T04:00:00	7	Dirección del viento	1.61
102175	7	Sololá	702	San José Chacayá	5	Chacayá	6	Junio	2023-06-17T00:00:00	2024-11-06T04:00:00	1	Precipitación	0
102176	7	Sololá	702	San José Chacayá	5	Chacayá	6	Junio	2023-06-17T00:00:00	2024-11-06T04:00:00	8	Radiación solar	0
102177	7	Sololá	702	San José Chacayá	5	Chacayá	6	Junio	2023-06-17T00:00:00	2024-11-06T05:00:00	2	Temperatura media	10.9
102178	7	Sololá	702	San José Chacayá	5	Chacayá	6	Junio	2023-06-17T00:00:00	2024-11-06T05:00:00	4	Temperatura máxima	11.5
102179	7	Sololá	702	San José Chacayá	5	Chacayá	6	Junio	2023-06-17T00:00:00	2024-11-06T05:00:00	3	Temperatura mínima	10.9
102180	7	Sololá	702	San José Chacayá	5	Chacayá	6	Junio	2023-06-17T00:00:00	2024-11-06T05:00:00	5	Humedad	94
102181	7	Sololá	702	San José Chacayá	5	Chacayá	6	Junio	2023-06-17T00:00:00	2024-11-06T05:00:00	6	Velocidad del viento	1.6
102182	7	Sololá	702	San José Chacayá	5	Chacayá	6	Junio	2023-06-17T00:00:00	2024-11-06T05:00:00	7	Dirección del viento	1.61
102183	7	Sololá	702	San José Chacayá	5	Chacayá	6	Junio	2023-06-17T00:00:00	2024-11-06T05:00:00	1	Precipitación	0
102184	7	Sololá	702	San José Chacayá	5	Chacayá	6	Junio	2023-06-17T00:00:00	2024-11-06T05:00:00	8	Radiación solar	0
102185	7	Sololá	702	San José Chacayá	5	Chacayá	6	Junio	2023-06-17T00:00:00	2024-11-06T06:00:00	2	Temperatura media	10.8
102186	7	Sololá	702	San José Chacayá	5	Chacayá	6	Junio	2023-06-17T00:00:00	2024-11-06T06:00:00	4	Temperatura máxima	11
102187	7	Sololá	702	San José Chacayá	5	Chacayá	6	Junio	2023-06-17T00:00:00	2024-11-06T06:00:00	3	Temperatura mínima	10.6
102188	7	Sololá	702	San José Chacayá	5	Chacayá	6	Junio	2023-06-17T00:00:00	2024-11-06T06:00:00	5	Humedad	93
102189	7	Sololá	702	San José Chacayá	5	Chacayá	6	Junio	2023-06-17T00:00:00	2024-11-06T06:00:00	6	Velocidad del viento	1.6
102190	7	Sololá	702	San José Chacayá	5	Chacayá	6	Junio	2023-06-17T00:00:00	2024-11-06T06:00:00	7	Dirección del viento	1.61
102191	7	Sololá	702	San José Chacayá	5	Chacayá	6	Junio	2023-06-17T00:00:00	2024-11-06T06:00:00	1	Precipitación	0
102192	7	Sololá	702	San José Chacayá	5	Chacayá	6	Junio	2023-06-17T00:00:00	2024-11-06T06:00:00	8	Radiación solar	3
102193	7	Sololá	702	San José Chacayá	5	Chacayá	6	Junio	2023-06-17T00:00:00	2024-11-06T07:00:00	2	Temperatura media	13.7
102194	7	Sololá	702	San José Chacayá	5	Chacayá	6	Junio	2023-06-17T00:00:00	2024-11-06T07:00:00	4	Temperatura máxima	13.7
102195	7	Sololá	702	San José Chacayá	5	Chacayá	6	Junio	2023-06-17T00:00:00	2024-11-06T07:00:00	3	Temperatura mínima	10.8
102196	7	Sololá	702	San José Chacayá	5	Chacayá	6	Junio	2023-06-17T00:00:00	2024-11-06T07:00:00	5	Humedad	93
102197	7	Sololá	702	San José Chacayá	5	Chacayá	6	Junio	2023-06-17T00:00:00	2024-11-06T07:00:00	6	Velocidad del viento	1.6
102198	7	Sololá	702	San José Chacayá	5	Chacayá	6	Junio	2023-06-17T00:00:00	2024-11-06T07:00:00	7	Dirección del viento	1.61
102199	7	Sololá	702	San José Chacayá	5	Chacayá	6	Junio	2023-06-17T00:00:00	2024-11-06T07:00:00	1	Precipitación	0
102200	7	Sololá	702	San José Chacayá	5	Chacayá	6	Junio	2023-06-17T00:00:00	2024-11-06T07:00:00	8	Radiación solar	37
102201	7	Sololá	702	San José Chacayá	5	Chacayá	6	Junio	2023-06-17T00:00:00	2024-11-06T08:00:00	2	Temperatura media	19.6
102202	7	Sololá	702	San José Chacayá	5	Chacayá	6	Junio	2023-06-17T00:00:00	2024-11-06T08:00:00	4	Temperatura máxima	19.6
102203	7	Sololá	702	San José Chacayá	5	Chacayá	6	Junio	2023-06-17T00:00:00	2024-11-06T08:00:00	3	Temperatura mínima	13.7
102204	7	Sololá	702	San José Chacayá	5	Chacayá	6	Junio	2023-06-17T00:00:00	2024-11-06T08:00:00	5	Humedad	65
102205	7	Sololá	702	San José Chacayá	5	Chacayá	6	Junio	2023-06-17T00:00:00	2024-11-06T08:00:00	6	Velocidad del viento	1.6
102206	7	Sololá	702	San José Chacayá	5	Chacayá	6	Junio	2023-06-17T00:00:00	2024-11-06T08:00:00	7	Dirección del viento	1.61
102207	7	Sololá	702	San José Chacayá	5	Chacayá	6	Junio	2023-06-17T00:00:00	2024-11-06T08:00:00	1	Precipitación	0
102208	7	Sololá	702	San José Chacayá	5	Chacayá	6	Junio	2023-06-17T00:00:00	2024-11-06T08:00:00	8	Radiación solar	169
102209	7	Sololá	702	San José Chacayá	5	Chacayá	6	Junio	2023-06-17T00:00:00	2024-11-06T09:00:00	2	Temperatura media	21.9
102210	7	Sololá	702	San José Chacayá	5	Chacayá	6	Junio	2023-06-17T00:00:00	2024-11-06T09:00:00	4	Temperatura máxima	21.9
102211	7	Sololá	702	San José Chacayá	5	Chacayá	6	Junio	2023-06-17T00:00:00	2024-11-06T09:00:00	3	Temperatura mínima	19.6
102212	7	Sololá	702	San José Chacayá	5	Chacayá	6	Junio	2023-06-17T00:00:00	2024-11-06T09:00:00	5	Humedad	57
102213	7	Sololá	702	San José Chacayá	5	Chacayá	6	Junio	2023-06-17T00:00:00	2024-11-06T09:00:00	6	Velocidad del viento	3.2
102214	7	Sololá	702	San José Chacayá	5	Chacayá	6	Junio	2023-06-17T00:00:00	2024-11-06T09:00:00	7	Dirección del viento	3.22
102215	7	Sololá	702	San José Chacayá	5	Chacayá	6	Junio	2023-06-17T00:00:00	2024-11-06T09:00:00	1	Precipitación	0
102216	7	Sololá	702	San José Chacayá	5	Chacayá	6	Junio	2023-06-17T00:00:00	2024-11-06T09:00:00	8	Radiación solar	400
102217	7	Sololá	702	San José Chacayá	5	Chacayá	6	Junio	2023-06-17T00:00:00	2024-11-06T10:00:00	2	Temperatura media	23.6
102218	7	Sololá	702	San José Chacayá	5	Chacayá	6	Junio	2023-06-17T00:00:00	2024-11-06T10:00:00	4	Temperatura máxima	23.6
102219	7	Sololá	702	San José Chacayá	5	Chacayá	6	Junio	2023-06-17T00:00:00	2024-11-06T10:00:00	3	Temperatura mínima	21.9
102220	7	Sololá	702	San José Chacayá	5	Chacayá	6	Junio	2023-06-17T00:00:00	2024-11-06T10:00:00	5	Humedad	53
102221	7	Sololá	702	San José Chacayá	5	Chacayá	6	Junio	2023-06-17T00:00:00	2024-11-06T10:00:00	6	Velocidad del viento	4.8
102222	7	Sololá	702	San José Chacayá	5	Chacayá	6	Junio	2023-06-17T00:00:00	2024-11-06T10:00:00	7	Dirección del viento	4.83
102223	7	Sololá	702	San José Chacayá	5	Chacayá	6	Junio	2023-06-17T00:00:00	2024-11-06T10:00:00	1	Precipitación	0
102224	7	Sololá	702	San José Chacayá	5	Chacayá	6	Junio	2023-06-17T00:00:00	2024-11-06T10:00:00	8	Radiación solar	670
102225	7	Sololá	702	San José Chacayá	5	Chacayá	6	Junio	2023-06-17T00:00:00	2024-11-06T11:00:00	2	Temperatura media	24.1
102226	7	Sololá	702	San José Chacayá	5	Chacayá	6	Junio	2023-06-17T00:00:00	2024-11-06T11:00:00	4	Temperatura máxima	24.2
102227	7	Sololá	702	San José Chacayá	5	Chacayá	6	Junio	2023-06-17T00:00:00	2024-11-06T11:00:00	3	Temperatura mínima	23.4
102228	7	Sololá	702	San José Chacayá	5	Chacayá	6	Junio	2023-06-17T00:00:00	2024-11-06T11:00:00	5	Humedad	52
102229	7	Sololá	702	San José Chacayá	5	Chacayá	6	Junio	2023-06-17T00:00:00	2024-11-06T11:00:00	6	Velocidad del viento	4.8
102230	7	Sololá	702	San José Chacayá	5	Chacayá	6	Junio	2023-06-17T00:00:00	2024-11-06T11:00:00	7	Dirección del viento	4.83
102231	7	Sololá	702	San José Chacayá	5	Chacayá	6	Junio	2023-06-17T00:00:00	2024-11-06T11:00:00	1	Precipitación	0
102232	7	Sololá	702	San José Chacayá	5	Chacayá	6	Junio	2023-06-17T00:00:00	2024-11-06T11:00:00	8	Radiación solar	372
102233	7	Sololá	702	San José Chacayá	5	Chacayá	6	Junio	2023-06-17T00:00:00	2024-11-06T12:00:00	2	Temperatura media	24.2
102234	7	Sololá	702	San José Chacayá	5	Chacayá	6	Junio	2023-06-17T00:00:00	2024-11-06T12:00:00	4	Temperatura máxima	24.8
102235	7	Sololá	702	San José Chacayá	5	Chacayá	6	Junio	2023-06-17T00:00:00	2024-11-06T12:00:00	3	Temperatura mínima	23.8
102236	7	Sololá	702	San José Chacayá	5	Chacayá	6	Junio	2023-06-17T00:00:00	2024-11-06T12:00:00	5	Humedad	49
102237	7	Sololá	702	San José Chacayá	5	Chacayá	6	Junio	2023-06-17T00:00:00	2024-11-06T12:00:00	6	Velocidad del viento	6.4
102238	7	Sololá	702	San José Chacayá	5	Chacayá	6	Junio	2023-06-17T00:00:00	2024-11-06T12:00:00	7	Dirección del viento	6.44
102239	7	Sololá	702	San José Chacayá	5	Chacayá	6	Junio	2023-06-17T00:00:00	2024-11-06T12:00:00	1	Precipitación	0
102240	7	Sololá	702	San José Chacayá	5	Chacayá	6	Junio	2023-06-17T00:00:00	2024-11-06T12:00:00	8	Radiación solar	533
102241	7	Sololá	702	San José Chacayá	5	Chacayá	6	Junio	2023-06-17T00:00:00	2024-11-06T13:00:00	2	Temperatura media	25.6
102242	7	Sololá	702	San José Chacayá	5	Chacayá	6	Junio	2023-06-17T00:00:00	2024-11-06T13:00:00	4	Temperatura máxima	25.7
102243	7	Sololá	702	San José Chacayá	5	Chacayá	6	Junio	2023-06-17T00:00:00	2024-11-06T13:00:00	3	Temperatura mínima	23.9
102244	7	Sololá	702	San José Chacayá	5	Chacayá	6	Junio	2023-06-17T00:00:00	2024-11-06T13:00:00	5	Humedad	44
102245	7	Sololá	702	San José Chacayá	5	Chacayá	6	Junio	2023-06-17T00:00:00	2024-11-06T13:00:00	6	Velocidad del viento	4.8
102246	7	Sololá	702	San José Chacayá	5	Chacayá	6	Junio	2023-06-17T00:00:00	2024-11-06T13:00:00	7	Dirección del viento	4.83
102247	7	Sololá	702	San José Chacayá	5	Chacayá	6	Junio	2023-06-17T00:00:00	2024-11-06T13:00:00	1	Precipitación	0
102248	7	Sololá	702	San José Chacayá	5	Chacayá	6	Junio	2023-06-17T00:00:00	2024-11-06T13:00:00	8	Radiación solar	467
102249	7	Sololá	702	San José Chacayá	5	Chacayá	6	Junio	2023-06-17T00:00:00	2024-11-06T14:00:00	2	Temperatura media	25.7
102250	7	Sololá	702	San José Chacayá	5	Chacayá	6	Junio	2023-06-17T00:00:00	2024-11-06T14:00:00	4	Temperatura máxima	25.9
102251	7	Sololá	702	San José Chacayá	5	Chacayá	6	Junio	2023-06-17T00:00:00	2024-11-06T14:00:00	3	Temperatura mínima	25.4
102252	7	Sololá	702	San José Chacayá	5	Chacayá	6	Junio	2023-06-17T00:00:00	2024-11-06T14:00:00	5	Humedad	45
102253	7	Sololá	702	San José Chacayá	5	Chacayá	6	Junio	2023-06-17T00:00:00	2024-11-06T14:00:00	6	Velocidad del viento	4.8
102254	7	Sololá	702	San José Chacayá	5	Chacayá	6	Junio	2023-06-17T00:00:00	2024-11-06T14:00:00	7	Dirección del viento	4.83
102255	7	Sololá	702	San José Chacayá	5	Chacayá	6	Junio	2023-06-17T00:00:00	2024-11-06T14:00:00	1	Precipitación	0
102256	7	Sololá	702	San José Chacayá	5	Chacayá	6	Junio	2023-06-17T00:00:00	2024-11-06T14:00:00	8	Radiación solar	159
102257	7	Sololá	702	San José Chacayá	5	Chacayá	6	Junio	2023-06-17T00:00:00	2024-11-06T15:00:00	2	Temperatura media	25.7
102258	7	Sololá	702	San José Chacayá	5	Chacayá	6	Junio	2023-06-17T00:00:00	2024-11-06T15:00:00	4	Temperatura máxima	26
102259	7	Sololá	702	San José Chacayá	5	Chacayá	6	Junio	2023-06-17T00:00:00	2024-11-06T15:00:00	3	Temperatura mínima	25.6
102260	7	Sololá	702	San José Chacayá	5	Chacayá	6	Junio	2023-06-17T00:00:00	2024-11-06T15:00:00	5	Humedad	44
102261	7	Sololá	702	San José Chacayá	5	Chacayá	6	Junio	2023-06-17T00:00:00	2024-11-06T15:00:00	6	Velocidad del viento	6.4
102262	7	Sololá	702	San José Chacayá	5	Chacayá	6	Junio	2023-06-17T00:00:00	2024-11-06T15:00:00	7	Dirección del viento	6.44
102263	7	Sololá	702	San José Chacayá	5	Chacayá	6	Junio	2023-06-17T00:00:00	2024-11-06T15:00:00	1	Precipitación	0
102264	7	Sololá	702	San José Chacayá	5	Chacayá	6	Junio	2023-06-17T00:00:00	2024-11-06T15:00:00	8	Radiación solar	413
102265	7	Sololá	702	San José Chacayá	5	Chacayá	6	Junio	2023-06-17T00:00:00	2024-11-06T16:00:00	2	Temperatura media	23.7
102266	7	Sololá	702	San José Chacayá	5	Chacayá	6	Junio	2023-06-17T00:00:00	2024-11-06T16:00:00	4	Temperatura máxima	25.8
102267	7	Sololá	702	San José Chacayá	5	Chacayá	6	Junio	2023-06-17T00:00:00	2024-11-06T16:00:00	3	Temperatura mínima	23.7
102268	7	Sololá	702	San José Chacayá	5	Chacayá	6	Junio	2023-06-17T00:00:00	2024-11-06T16:00:00	5	Humedad	68
102269	7	Sololá	702	San José Chacayá	5	Chacayá	6	Junio	2023-06-17T00:00:00	2024-11-06T16:00:00	6	Velocidad del viento	4.8
102270	7	Sololá	702	San José Chacayá	5	Chacayá	6	Junio	2023-06-17T00:00:00	2024-11-06T16:00:00	7	Dirección del viento	4.83
102271	7	Sololá	702	San José Chacayá	5	Chacayá	6	Junio	2023-06-17T00:00:00	2024-11-06T16:00:00	1	Precipitación	0
102272	7	Sololá	702	San José Chacayá	5	Chacayá	6	Junio	2023-06-17T00:00:00	2024-11-06T16:00:00	8	Radiación solar	158
102273	7	Sololá	702	San José Chacayá	5	Chacayá	6	Junio	2023-06-17T00:00:00	2024-11-06T17:00:00	2	Temperatura media	21.1
102274	7	Sololá	702	San José Chacayá	5	Chacayá	6	Junio	2023-06-17T00:00:00	2024-11-06T17:00:00	4	Temperatura máxima	23.7
102275	7	Sololá	702	San José Chacayá	5	Chacayá	6	Junio	2023-06-17T00:00:00	2024-11-06T17:00:00	3	Temperatura mínima	21.1
102276	7	Sololá	702	San José Chacayá	5	Chacayá	6	Junio	2023-06-17T00:00:00	2024-11-06T17:00:00	5	Humedad	77
102277	7	Sololá	702	San José Chacayá	5	Chacayá	6	Junio	2023-06-17T00:00:00	2024-11-06T17:00:00	6	Velocidad del viento	3.2
102278	7	Sololá	702	San José Chacayá	5	Chacayá	6	Junio	2023-06-17T00:00:00	2024-11-06T17:00:00	7	Dirección del viento	3.22
102279	7	Sololá	702	San José Chacayá	5	Chacayá	6	Junio	2023-06-17T00:00:00	2024-11-06T17:00:00	1	Precipitación	0
102280	7	Sololá	702	San José Chacayá	5	Chacayá	6	Junio	2023-06-17T00:00:00	2024-11-06T17:00:00	8	Radiación solar	71
102281	7	Sololá	702	San José Chacayá	5	Chacayá	6	Junio	2023-06-17T00:00:00	2024-11-06T18:00:00	2	Temperatura media	17.5
102282	7	Sololá	702	San José Chacayá	5	Chacayá	6	Junio	2023-06-17T00:00:00	2024-11-06T18:00:00	4	Temperatura máxima	21.1
102283	7	Sololá	702	San José Chacayá	5	Chacayá	6	Junio	2023-06-17T00:00:00	2024-11-06T18:00:00	3	Temperatura mínima	17.5
102284	7	Sololá	702	San José Chacayá	5	Chacayá	6	Junio	2023-06-17T00:00:00	2024-11-06T18:00:00	5	Humedad	90
102285	7	Sololá	702	San José Chacayá	5	Chacayá	6	Junio	2023-06-17T00:00:00	2024-11-06T18:00:00	6	Velocidad del viento	1.6
102286	7	Sololá	702	San José Chacayá	5	Chacayá	6	Junio	2023-06-17T00:00:00	2024-11-06T18:00:00	7	Dirección del viento	1.61
102287	7	Sololá	702	San José Chacayá	5	Chacayá	6	Junio	2023-06-17T00:00:00	2024-11-06T18:00:00	1	Precipitación	2.4
102288	7	Sololá	702	San José Chacayá	5	Chacayá	6	Junio	2023-06-17T00:00:00	2024-11-06T18:00:00	8	Radiación solar	48
102289	7	Sololá	702	San José Chacayá	5	Chacayá	6	Junio	2023-06-17T00:00:00	2024-11-06T19:00:00	2	Temperatura media	16.2
102290	7	Sololá	702	San José Chacayá	5	Chacayá	6	Junio	2023-06-17T00:00:00	2024-11-06T19:00:00	4	Temperatura máxima	17.5
102291	7	Sololá	702	San José Chacayá	5	Chacayá	6	Junio	2023-06-17T00:00:00	2024-11-06T19:00:00	3	Temperatura mínima	16.2
102292	7	Sololá	702	San José Chacayá	5	Chacayá	6	Junio	2023-06-17T00:00:00	2024-11-06T19:00:00	5	Humedad	83
102293	7	Sololá	702	San José Chacayá	5	Chacayá	6	Junio	2023-06-17T00:00:00	2024-11-06T19:00:00	6	Velocidad del viento	3.2
102294	7	Sololá	702	San José Chacayá	5	Chacayá	6	Junio	2023-06-17T00:00:00	2024-11-06T19:00:00	7	Dirección del viento	3.22
102295	7	Sololá	702	San José Chacayá	5	Chacayá	6	Junio	2023-06-17T00:00:00	2024-11-06T19:00:00	1	Precipitación	0
102296	7	Sololá	702	San José Chacayá	5	Chacayá	6	Junio	2023-06-17T00:00:00	2024-11-06T19:00:00	8	Radiación solar	0
102297	7	Sololá	702	San José Chacayá	5	Chacayá	6	Junio	2023-06-17T00:00:00	2024-11-06T20:00:00	2	Temperatura media	15.1
102298	7	Sololá	702	San José Chacayá	5	Chacayá	6	Junio	2023-06-17T00:00:00	2024-11-06T20:00:00	4	Temperatura máxima	16.2
102299	7	Sololá	702	San José Chacayá	5	Chacayá	6	Junio	2023-06-17T00:00:00	2024-11-06T20:00:00	3	Temperatura mínima	15.1
102300	7	Sololá	702	San José Chacayá	5	Chacayá	6	Junio	2023-06-17T00:00:00	2024-11-06T20:00:00	5	Humedad	90
102301	7	Sololá	702	San José Chacayá	5	Chacayá	6	Junio	2023-06-17T00:00:00	2024-11-06T20:00:00	6	Velocidad del viento	3.2
102302	7	Sololá	702	San José Chacayá	5	Chacayá	6	Junio	2023-06-17T00:00:00	2024-11-06T20:00:00	7	Dirección del viento	3.22
102303	7	Sololá	702	San José Chacayá	5	Chacayá	6	Junio	2023-06-17T00:00:00	2024-11-06T20:00:00	1	Precipitación	0.2
102304	7	Sololá	702	San José Chacayá	5	Chacayá	6	Junio	2023-06-17T00:00:00	2024-11-06T20:00:00	8	Radiación solar	0
102305	7	Sololá	702	San José Chacayá	5	Chacayá	6	Junio	2023-06-17T00:00:00	2024-11-06T21:00:00	2	Temperatura media	15.9
102306	7	Sololá	702	San José Chacayá	5	Chacayá	6	Junio	2023-06-17T00:00:00	2024-11-06T21:00:00	4	Temperatura máxima	15.9
102307	7	Sololá	702	San José Chacayá	5	Chacayá	6	Junio	2023-06-17T00:00:00	2024-11-06T21:00:00	3	Temperatura mínima	14.6
102308	7	Sololá	702	San José Chacayá	5	Chacayá	6	Junio	2023-06-17T00:00:00	2024-11-06T21:00:00	5	Humedad	84
102309	7	Sololá	702	San José Chacayá	5	Chacayá	6	Junio	2023-06-17T00:00:00	2024-11-06T21:00:00	6	Velocidad del viento	3.2
102310	7	Sololá	702	San José Chacayá	5	Chacayá	6	Junio	2023-06-17T00:00:00	2024-11-06T21:00:00	7	Dirección del viento	3.22
102311	7	Sololá	702	San José Chacayá	5	Chacayá	6	Junio	2023-06-17T00:00:00	2024-11-06T21:00:00	1	Precipitación	0
102312	7	Sololá	702	San José Chacayá	5	Chacayá	6	Junio	2023-06-17T00:00:00	2024-11-06T21:00:00	8	Radiación solar	0
102313	7	Sololá	702	San José Chacayá	5	Chacayá	6	Junio	2023-06-17T00:00:00	2024-11-06T22:00:00	2	Temperatura media	15.7
102314	7	Sololá	702	San José Chacayá	5	Chacayá	6	Junio	2023-06-17T00:00:00	2024-11-06T22:00:00	4	Temperatura máxima	15.9
102315	7	Sololá	702	San José Chacayá	5	Chacayá	6	Junio	2023-06-17T00:00:00	2024-11-06T22:00:00	3	Temperatura mínima	15.6
102316	7	Sololá	702	San José Chacayá	5	Chacayá	6	Junio	2023-06-17T00:00:00	2024-11-06T22:00:00	5	Humedad	84
102317	7	Sololá	702	San José Chacayá	5	Chacayá	6	Junio	2023-06-17T00:00:00	2024-11-06T22:00:00	6	Velocidad del viento	4.8
102318	7	Sololá	702	San José Chacayá	5	Chacayá	6	Junio	2023-06-17T00:00:00	2024-11-06T22:00:00	7	Dirección del viento	4.83
102319	7	Sololá	702	San José Chacayá	5	Chacayá	6	Junio	2023-06-17T00:00:00	2024-11-06T22:00:00	1	Precipitación	0
102320	7	Sololá	702	San José Chacayá	5	Chacayá	6	Junio	2023-06-17T00:00:00	2024-11-06T22:00:00	8	Radiación solar	0
102321	7	Sololá	702	San José Chacayá	5	Chacayá	6	Junio	2023-06-17T00:00:00	2024-11-06T23:00:00	2	Temperatura media	15.6
102322	7	Sololá	702	San José Chacayá	5	Chacayá	6	Junio	2023-06-17T00:00:00	2024-11-06T23:00:00	4	Temperatura máxima	15.9
102323	7	Sololá	702	San José Chacayá	5	Chacayá	6	Junio	2023-06-17T00:00:00	2024-11-06T23:00:00	3	Temperatura mínima	15.6
102324	7	Sololá	702	San José Chacayá	5	Chacayá	6	Junio	2023-06-17T00:00:00	2024-11-06T23:00:00	5	Humedad	82
102325	7	Sololá	702	San José Chacayá	5	Chacayá	6	Junio	2023-06-17T00:00:00	2024-11-06T23:00:00	6	Velocidad del viento	3.2
102326	7	Sololá	702	San José Chacayá	5	Chacayá	6	Junio	2023-06-17T00:00:00	2024-11-06T23:00:00	7	Dirección del viento	3.22
102327	7	Sololá	702	San José Chacayá	5	Chacayá	6	Junio	2023-06-17T00:00:00	2024-11-06T23:00:00	1	Precipitación	0
102328	7	Sololá	702	San José Chacayá	5	Chacayá	6	Junio	2023-06-17T00:00:00	2024-11-06T23:00:00	8	Radiación solar	0
102329	7	Sololá	702	San José Chacayá	5	Chacayá	6	Junio	2023-06-18T00:00:00	2024-11-06T00:00:00	2	Temperatura media	13.2
102330	7	Sololá	702	San José Chacayá	5	Chacayá	6	Junio	2023-06-18T00:00:00	2024-11-06T00:00:00	4	Temperatura máxima	15.6
102331	7	Sololá	702	San José Chacayá	5	Chacayá	6	Junio	2023-06-18T00:00:00	2024-11-06T00:00:00	3	Temperatura mínima	13.1
102332	7	Sololá	702	San José Chacayá	5	Chacayá	6	Junio	2023-06-18T00:00:00	2024-11-06T00:00:00	5	Humedad	89
102333	7	Sololá	702	San José Chacayá	5	Chacayá	6	Junio	2023-06-18T00:00:00	2024-11-06T00:00:00	6	Velocidad del viento	1.6
102334	7	Sololá	702	San José Chacayá	5	Chacayá	6	Junio	2023-06-18T00:00:00	2024-11-06T00:00:00	7	Dirección del viento	1.61
102335	7	Sololá	702	San José Chacayá	5	Chacayá	6	Junio	2023-06-18T00:00:00	2024-11-06T00:00:00	1	Precipitación	0
102336	7	Sololá	702	San José Chacayá	5	Chacayá	6	Junio	2023-06-18T00:00:00	2024-11-06T00:00:00	8	Radiación solar	0
102337	7	Sololá	702	San José Chacayá	5	Chacayá	6	Junio	2023-06-18T00:00:00	2024-11-06T01:00:00	2	Temperatura media	14.5
102338	7	Sololá	702	San José Chacayá	5	Chacayá	6	Junio	2023-06-18T00:00:00	2024-11-06T01:00:00	4	Temperatura máxima	14.7
102339	7	Sololá	702	San José Chacayá	5	Chacayá	6	Junio	2023-06-18T00:00:00	2024-11-06T01:00:00	3	Temperatura mínima	13.2
102340	7	Sololá	702	San José Chacayá	5	Chacayá	6	Junio	2023-06-18T00:00:00	2024-11-06T01:00:00	5	Humedad	82
102341	7	Sololá	702	San José Chacayá	5	Chacayá	6	Junio	2023-06-18T00:00:00	2024-11-06T01:00:00	6	Velocidad del viento	3.2
102342	7	Sololá	702	San José Chacayá	5	Chacayá	6	Junio	2023-06-18T00:00:00	2024-11-06T01:00:00	7	Dirección del viento	3.22
102343	7	Sololá	702	San José Chacayá	5	Chacayá	6	Junio	2023-06-18T00:00:00	2024-11-06T01:00:00	1	Precipitación	0
102344	7	Sololá	702	San José Chacayá	5	Chacayá	6	Junio	2023-06-18T00:00:00	2024-11-06T01:00:00	8	Radiación solar	0
102345	7	Sololá	702	San José Chacayá	5	Chacayá	6	Junio	2023-06-18T00:00:00	2024-11-06T02:00:00	2	Temperatura media	13
102346	7	Sololá	702	San José Chacayá	5	Chacayá	6	Junio	2023-06-18T00:00:00	2024-11-06T02:00:00	4	Temperatura máxima	14.5
102347	7	Sololá	702	San José Chacayá	5	Chacayá	6	Junio	2023-06-18T00:00:00	2024-11-06T02:00:00	3	Temperatura mínima	13
102348	7	Sololá	702	San José Chacayá	5	Chacayá	6	Junio	2023-06-18T00:00:00	2024-11-06T02:00:00	5	Humedad	84
102349	7	Sololá	702	San José Chacayá	5	Chacayá	6	Junio	2023-06-18T00:00:00	2024-11-06T02:00:00	6	Velocidad del viento	1.6
102350	7	Sololá	702	San José Chacayá	5	Chacayá	6	Junio	2023-06-18T00:00:00	2024-11-06T02:00:00	7	Dirección del viento	1.61
102351	7	Sololá	702	San José Chacayá	5	Chacayá	6	Junio	2023-06-18T00:00:00	2024-11-06T02:00:00	1	Precipitación	0
102352	7	Sololá	702	San José Chacayá	5	Chacayá	6	Junio	2023-06-18T00:00:00	2024-11-06T02:00:00	8	Radiación solar	0
102353	7	Sololá	702	San José Chacayá	5	Chacayá	6	Junio	2023-06-18T00:00:00	2024-11-06T03:00:00	2	Temperatura media	12.6
102354	7	Sololá	702	San José Chacayá	5	Chacayá	6	Junio	2023-06-18T00:00:00	2024-11-06T03:00:00	4	Temperatura máxima	13.7
102355	7	Sololá	702	San José Chacayá	5	Chacayá	6	Junio	2023-06-18T00:00:00	2024-11-06T03:00:00	3	Temperatura mínima	12.6
102356	7	Sololá	702	San José Chacayá	5	Chacayá	6	Junio	2023-06-18T00:00:00	2024-11-06T03:00:00	5	Humedad	83
102357	7	Sololá	702	San José Chacayá	5	Chacayá	6	Junio	2023-06-18T00:00:00	2024-11-06T03:00:00	6	Velocidad del viento	3.2
102358	7	Sololá	702	San José Chacayá	5	Chacayá	6	Junio	2023-06-18T00:00:00	2024-11-06T03:00:00	7	Dirección del viento	3.22
102359	7	Sololá	702	San José Chacayá	5	Chacayá	6	Junio	2023-06-18T00:00:00	2024-11-06T03:00:00	1	Precipitación	0
102360	7	Sololá	702	San José Chacayá	5	Chacayá	6	Junio	2023-06-18T00:00:00	2024-11-06T03:00:00	8	Radiación solar	0
102361	7	Sololá	702	San José Chacayá	5	Chacayá	6	Junio	2023-06-18T00:00:00	2024-11-06T04:00:00	2	Temperatura media	11.1
102362	7	Sololá	702	San José Chacayá	5	Chacayá	6	Junio	2023-06-18T00:00:00	2024-11-06T04:00:00	4	Temperatura máxima	12.6
102363	7	Sololá	702	San José Chacayá	5	Chacayá	6	Junio	2023-06-18T00:00:00	2024-11-06T04:00:00	3	Temperatura mínima	10.9
102364	7	Sololá	702	San José Chacayá	5	Chacayá	6	Junio	2023-06-18T00:00:00	2024-11-06T04:00:00	5	Humedad	81
102365	7	Sololá	702	San José Chacayá	5	Chacayá	6	Junio	2023-06-18T00:00:00	2024-11-06T04:00:00	6	Velocidad del viento	1.6
102366	7	Sololá	702	San José Chacayá	5	Chacayá	6	Junio	2023-06-18T00:00:00	2024-11-06T04:00:00	7	Dirección del viento	1.61
102367	7	Sololá	702	San José Chacayá	5	Chacayá	6	Junio	2023-06-18T00:00:00	2024-11-06T04:00:00	1	Precipitación	0
102368	7	Sololá	702	San José Chacayá	5	Chacayá	6	Junio	2023-06-18T00:00:00	2024-11-06T04:00:00	8	Radiación solar	0
102369	7	Sololá	702	San José Chacayá	5	Chacayá	6	Junio	2023-06-18T00:00:00	2024-11-06T05:00:00	2	Temperatura media	11.8
102370	7	Sololá	702	San José Chacayá	5	Chacayá	6	Junio	2023-06-18T00:00:00	2024-11-06T05:00:00	4	Temperatura máxima	12.8
102371	7	Sololá	702	San José Chacayá	5	Chacayá	6	Junio	2023-06-18T00:00:00	2024-11-06T05:00:00	3	Temperatura mínima	11.1
102372	7	Sololá	702	San José Chacayá	5	Chacayá	6	Junio	2023-06-18T00:00:00	2024-11-06T05:00:00	5	Humedad	80
102373	7	Sololá	702	San José Chacayá	5	Chacayá	6	Junio	2023-06-18T00:00:00	2024-11-06T05:00:00	6	Velocidad del viento	3.2
102374	7	Sololá	702	San José Chacayá	5	Chacayá	6	Junio	2023-06-18T00:00:00	2024-11-06T05:00:00	7	Dirección del viento	3.22
102375	7	Sololá	702	San José Chacayá	5	Chacayá	6	Junio	2023-06-18T00:00:00	2024-11-06T05:00:00	1	Precipitación	0
102376	7	Sololá	702	San José Chacayá	5	Chacayá	6	Junio	2023-06-18T00:00:00	2024-11-06T05:00:00	8	Radiación solar	0
102377	7	Sololá	702	San José Chacayá	5	Chacayá	6	Junio	2023-06-18T00:00:00	2024-11-06T06:00:00	2	Temperatura media	10.4
102378	7	Sololá	702	San José Chacayá	5	Chacayá	6	Junio	2023-06-18T00:00:00	2024-11-06T06:00:00	4	Temperatura máxima	11.8
102379	7	Sololá	702	San José Chacayá	5	Chacayá	6	Junio	2023-06-18T00:00:00	2024-11-06T06:00:00	3	Temperatura mínima	10.2
102380	7	Sololá	702	San José Chacayá	5	Chacayá	6	Junio	2023-06-18T00:00:00	2024-11-06T06:00:00	5	Humedad	86
102381	7	Sololá	702	San José Chacayá	5	Chacayá	6	Junio	2023-06-18T00:00:00	2024-11-06T06:00:00	6	Velocidad del viento	1.6
102382	7	Sololá	702	San José Chacayá	5	Chacayá	6	Junio	2023-06-18T00:00:00	2024-11-06T06:00:00	7	Dirección del viento	1.61
102383	7	Sololá	702	San José Chacayá	5	Chacayá	6	Junio	2023-06-18T00:00:00	2024-11-06T06:00:00	1	Precipitación	0
102384	7	Sololá	702	San José Chacayá	5	Chacayá	6	Junio	2023-06-18T00:00:00	2024-11-06T06:00:00	8	Radiación solar	4
102385	7	Sololá	702	San José Chacayá	5	Chacayá	6	Junio	2023-06-18T00:00:00	2024-11-06T07:00:00	2	Temperatura media	14.4
102386	7	Sololá	702	San José Chacayá	5	Chacayá	6	Junio	2023-06-18T00:00:00	2024-11-06T07:00:00	4	Temperatura máxima	14.4
102387	7	Sololá	702	San José Chacayá	5	Chacayá	6	Junio	2023-06-18T00:00:00	2024-11-06T07:00:00	3	Temperatura mínima	10.4
102388	7	Sololá	702	San José Chacayá	5	Chacayá	6	Junio	2023-06-18T00:00:00	2024-11-06T07:00:00	5	Humedad	80
102389	7	Sololá	702	San José Chacayá	5	Chacayá	6	Junio	2023-06-18T00:00:00	2024-11-06T07:00:00	6	Velocidad del viento	1.6
102390	7	Sololá	702	San José Chacayá	5	Chacayá	6	Junio	2023-06-18T00:00:00	2024-11-06T07:00:00	7	Dirección del viento	1.61
102391	7	Sololá	702	San José Chacayá	5	Chacayá	6	Junio	2023-06-18T00:00:00	2024-11-06T07:00:00	1	Precipitación	0
102392	7	Sololá	702	San José Chacayá	5	Chacayá	6	Junio	2023-06-18T00:00:00	2024-11-06T07:00:00	8	Radiación solar	56
102393	7	Sololá	702	San José Chacayá	5	Chacayá	6	Junio	2023-06-18T00:00:00	2024-11-06T08:00:00	2	Temperatura media	19.7
102394	7	Sololá	702	San José Chacayá	5	Chacayá	6	Junio	2023-06-18T00:00:00	2024-11-06T08:00:00	4	Temperatura máxima	19.7
102395	7	Sololá	702	San José Chacayá	5	Chacayá	6	Junio	2023-06-18T00:00:00	2024-11-06T08:00:00	3	Temperatura mínima	14.4
102396	7	Sololá	702	San José Chacayá	5	Chacayá	6	Junio	2023-06-18T00:00:00	2024-11-06T08:00:00	5	Humedad	62
102397	7	Sololá	702	San José Chacayá	5	Chacayá	6	Junio	2023-06-18T00:00:00	2024-11-06T08:00:00	6	Velocidad del viento	1.6
102398	7	Sololá	702	San José Chacayá	5	Chacayá	6	Junio	2023-06-18T00:00:00	2024-11-06T08:00:00	7	Dirección del viento	1.61
102399	7	Sololá	702	San José Chacayá	5	Chacayá	6	Junio	2023-06-18T00:00:00	2024-11-06T08:00:00	1	Precipitación	0
102400	7	Sololá	702	San José Chacayá	5	Chacayá	6	Junio	2023-06-18T00:00:00	2024-11-06T08:00:00	8	Radiación solar	131
102401	7	Sololá	702	San José Chacayá	5	Chacayá	6	Junio	2023-06-18T00:00:00	2024-11-06T09:00:00	2	Temperatura media	21.4
102402	7	Sololá	702	San José Chacayá	5	Chacayá	6	Junio	2023-06-18T00:00:00	2024-11-06T09:00:00	4	Temperatura máxima	21.4
102403	7	Sololá	702	San José Chacayá	5	Chacayá	6	Junio	2023-06-18T00:00:00	2024-11-06T09:00:00	3	Temperatura mínima	19.7
102404	7	Sololá	702	San José Chacayá	5	Chacayá	6	Junio	2023-06-18T00:00:00	2024-11-06T09:00:00	5	Humedad	54
102405	7	Sololá	702	San José Chacayá	5	Chacayá	6	Junio	2023-06-18T00:00:00	2024-11-06T09:00:00	6	Velocidad del viento	3.2
102406	7	Sololá	702	San José Chacayá	5	Chacayá	6	Junio	2023-06-18T00:00:00	2024-11-06T09:00:00	7	Dirección del viento	3.22
102407	7	Sololá	702	San José Chacayá	5	Chacayá	6	Junio	2023-06-18T00:00:00	2024-11-06T09:00:00	1	Precipitación	0
102408	7	Sololá	702	San José Chacayá	5	Chacayá	6	Junio	2023-06-18T00:00:00	2024-11-06T09:00:00	8	Radiación solar	204
102409	7	Sololá	702	San José Chacayá	5	Chacayá	6	Junio	2023-06-18T00:00:00	2024-11-06T10:00:00	2	Temperatura media	22.2
102410	7	Sololá	702	San José Chacayá	5	Chacayá	6	Junio	2023-06-18T00:00:00	2024-11-06T10:00:00	4	Temperatura máxima	22.6
102411	7	Sololá	702	San José Chacayá	5	Chacayá	6	Junio	2023-06-18T00:00:00	2024-11-06T10:00:00	3	Temperatura mínima	21.3
102412	7	Sololá	702	San José Chacayá	5	Chacayá	6	Junio	2023-06-18T00:00:00	2024-11-06T10:00:00	5	Humedad	51
102413	7	Sololá	702	San José Chacayá	5	Chacayá	6	Junio	2023-06-18T00:00:00	2024-11-06T10:00:00	6	Velocidad del viento	4.8
102414	7	Sololá	702	San José Chacayá	5	Chacayá	6	Junio	2023-06-18T00:00:00	2024-11-06T10:00:00	7	Dirección del viento	4.83
102415	7	Sololá	702	San José Chacayá	5	Chacayá	6	Junio	2023-06-18T00:00:00	2024-11-06T10:00:00	1	Precipitación	0
102416	7	Sololá	702	San José Chacayá	5	Chacayá	6	Junio	2023-06-18T00:00:00	2024-11-06T10:00:00	8	Radiación solar	244
102417	7	Sololá	702	San José Chacayá	5	Chacayá	6	Junio	2023-06-18T00:00:00	2024-11-06T11:00:00	2	Temperatura media	23.8
102418	7	Sololá	702	San José Chacayá	5	Chacayá	6	Junio	2023-06-18T00:00:00	2024-11-06T11:00:00	4	Temperatura máxima	24.3
102419	7	Sololá	702	San José Chacayá	5	Chacayá	6	Junio	2023-06-18T00:00:00	2024-11-06T11:00:00	3	Temperatura mínima	22.1
102420	7	Sololá	702	San José Chacayá	5	Chacayá	6	Junio	2023-06-18T00:00:00	2024-11-06T11:00:00	5	Humedad	41
102421	7	Sololá	702	San José Chacayá	5	Chacayá	6	Junio	2023-06-18T00:00:00	2024-11-06T11:00:00	6	Velocidad del viento	4.8
102422	7	Sololá	702	San José Chacayá	5	Chacayá	6	Junio	2023-06-18T00:00:00	2024-11-06T11:00:00	7	Dirección del viento	4.83
102423	7	Sololá	702	San José Chacayá	5	Chacayá	6	Junio	2023-06-18T00:00:00	2024-11-06T11:00:00	1	Precipitación	0
102424	7	Sololá	702	San José Chacayá	5	Chacayá	6	Junio	2023-06-18T00:00:00	2024-11-06T11:00:00	8	Radiación solar	329
102425	7	Sololá	702	San José Chacayá	5	Chacayá	6	Junio	2023-06-18T00:00:00	2024-11-06T12:00:00	2	Temperatura media	24.7
102426	7	Sololá	702	San José Chacayá	5	Chacayá	6	Junio	2023-06-18T00:00:00	2024-11-06T12:00:00	4	Temperatura máxima	24.7
102427	7	Sololá	702	San José Chacayá	5	Chacayá	6	Junio	2023-06-18T00:00:00	2024-11-06T12:00:00	3	Temperatura mínima	23.6
102428	7	Sololá	702	San José Chacayá	5	Chacayá	6	Junio	2023-06-18T00:00:00	2024-11-06T12:00:00	5	Humedad	43
102429	7	Sololá	702	San José Chacayá	5	Chacayá	6	Junio	2023-06-18T00:00:00	2024-11-06T12:00:00	6	Velocidad del viento	4.8
102430	7	Sololá	702	San José Chacayá	5	Chacayá	6	Junio	2023-06-18T00:00:00	2024-11-06T12:00:00	7	Dirección del viento	4.83
102431	7	Sololá	702	San José Chacayá	5	Chacayá	6	Junio	2023-06-18T00:00:00	2024-11-06T12:00:00	1	Precipitación	0
102432	7	Sololá	702	San José Chacayá	5	Chacayá	6	Junio	2023-06-18T00:00:00	2024-11-06T12:00:00	8	Radiación solar	271
102433	7	Sololá	702	San José Chacayá	5	Chacayá	6	Junio	2023-06-18T00:00:00	2024-11-06T13:00:00	2	Temperatura media	24.8
102434	7	Sololá	702	San José Chacayá	5	Chacayá	6	Junio	2023-06-18T00:00:00	2024-11-06T13:00:00	4	Temperatura máxima	25.6
102435	7	Sololá	702	San José Chacayá	5	Chacayá	6	Junio	2023-06-18T00:00:00	2024-11-06T13:00:00	3	Temperatura mínima	24.2
102436	7	Sololá	702	San José Chacayá	5	Chacayá	6	Junio	2023-06-18T00:00:00	2024-11-06T13:00:00	5	Humedad	48
102437	7	Sololá	702	San José Chacayá	5	Chacayá	6	Junio	2023-06-18T00:00:00	2024-11-06T13:00:00	6	Velocidad del viento	6.4
102438	7	Sololá	702	San José Chacayá	5	Chacayá	6	Junio	2023-06-18T00:00:00	2024-11-06T13:00:00	7	Dirección del viento	6.44
102439	7	Sololá	702	San José Chacayá	5	Chacayá	6	Junio	2023-06-18T00:00:00	2024-11-06T13:00:00	1	Precipitación	0
102440	7	Sololá	702	San José Chacayá	5	Chacayá	6	Junio	2023-06-18T00:00:00	2024-11-06T13:00:00	8	Radiación solar	235
102441	7	Sololá	702	San José Chacayá	5	Chacayá	6	Junio	2023-06-18T00:00:00	2024-11-06T14:00:00	2	Temperatura media	24.3
102442	7	Sololá	702	San José Chacayá	5	Chacayá	6	Junio	2023-06-18T00:00:00	2024-11-06T14:00:00	4	Temperatura máxima	25.3
102443	7	Sololá	702	San José Chacayá	5	Chacayá	6	Junio	2023-06-18T00:00:00	2024-11-06T14:00:00	3	Temperatura mínima	24.1
102444	7	Sololá	702	San José Chacayá	5	Chacayá	6	Junio	2023-06-18T00:00:00	2024-11-06T14:00:00	5	Humedad	55
102445	7	Sololá	702	San José Chacayá	5	Chacayá	6	Junio	2023-06-18T00:00:00	2024-11-06T14:00:00	6	Velocidad del viento	6.4
102446	7	Sololá	702	San José Chacayá	5	Chacayá	6	Junio	2023-06-18T00:00:00	2024-11-06T14:00:00	7	Dirección del viento	6.44
102447	7	Sololá	702	San José Chacayá	5	Chacayá	6	Junio	2023-06-18T00:00:00	2024-11-06T14:00:00	1	Precipitación	0
102448	7	Sololá	702	San José Chacayá	5	Chacayá	6	Junio	2023-06-18T00:00:00	2024-11-06T14:00:00	8	Radiación solar	274
102449	7	Sololá	702	San José Chacayá	5	Chacayá	6	Junio	2023-06-18T00:00:00	2024-11-06T15:00:00	2	Temperatura media	23.5
102450	7	Sololá	702	San José Chacayá	5	Chacayá	6	Junio	2023-06-18T00:00:00	2024-11-06T15:00:00	4	Temperatura máxima	25.3
102451	7	Sololá	702	San José Chacayá	5	Chacayá	6	Junio	2023-06-18T00:00:00	2024-11-06T15:00:00	3	Temperatura mínima	23.4
102452	7	Sololá	702	San José Chacayá	5	Chacayá	6	Junio	2023-06-18T00:00:00	2024-11-06T15:00:00	5	Humedad	52
102453	7	Sololá	702	San José Chacayá	5	Chacayá	6	Junio	2023-06-18T00:00:00	2024-11-06T15:00:00	6	Velocidad del viento	4.8
102454	7	Sololá	702	San José Chacayá	5	Chacayá	6	Junio	2023-06-18T00:00:00	2024-11-06T15:00:00	7	Dirección del viento	4.83
102455	7	Sololá	702	San José Chacayá	5	Chacayá	6	Junio	2023-06-18T00:00:00	2024-11-06T15:00:00	1	Precipitación	0
102456	7	Sololá	702	San José Chacayá	5	Chacayá	6	Junio	2023-06-18T00:00:00	2024-11-06T15:00:00	8	Radiación solar	213
102457	7	Sololá	702	San José Chacayá	5	Chacayá	6	Junio	2023-06-18T00:00:00	2024-11-06T16:00:00	2	Temperatura media	22.3
102458	7	Sololá	702	San José Chacayá	5	Chacayá	6	Junio	2023-06-18T00:00:00	2024-11-06T16:00:00	4	Temperatura máxima	24.1
102459	7	Sololá	702	San José Chacayá	5	Chacayá	6	Junio	2023-06-18T00:00:00	2024-11-06T16:00:00	3	Temperatura mínima	22.3
102460	7	Sololá	702	San José Chacayá	5	Chacayá	6	Junio	2023-06-18T00:00:00	2024-11-06T16:00:00	5	Humedad	69
102461	7	Sololá	702	San José Chacayá	5	Chacayá	6	Junio	2023-06-18T00:00:00	2024-11-06T16:00:00	6	Velocidad del viento	4.8
102462	7	Sololá	702	San José Chacayá	5	Chacayá	6	Junio	2023-06-18T00:00:00	2024-11-06T16:00:00	7	Dirección del viento	4.83
102463	7	Sololá	702	San José Chacayá	5	Chacayá	6	Junio	2023-06-18T00:00:00	2024-11-06T16:00:00	1	Precipitación	0
102464	7	Sololá	702	San José Chacayá	5	Chacayá	6	Junio	2023-06-18T00:00:00	2024-11-06T16:00:00	8	Radiación solar	167
102465	7	Sololá	702	San José Chacayá	5	Chacayá	6	Junio	2023-06-18T00:00:00	2024-11-06T17:00:00	2	Temperatura media	21.3
102466	7	Sololá	702	San José Chacayá	5	Chacayá	6	Junio	2023-06-18T00:00:00	2024-11-06T17:00:00	4	Temperatura máxima	22.3
102467	7	Sololá	702	San José Chacayá	5	Chacayá	6	Junio	2023-06-18T00:00:00	2024-11-06T17:00:00	3	Temperatura mínima	21.2
102468	7	Sololá	702	San José Chacayá	5	Chacayá	6	Junio	2023-06-18T00:00:00	2024-11-06T17:00:00	5	Humedad	76
102469	7	Sololá	702	San José Chacayá	5	Chacayá	6	Junio	2023-06-18T00:00:00	2024-11-06T17:00:00	6	Velocidad del viento	3.2
102470	7	Sololá	702	San José Chacayá	5	Chacayá	6	Junio	2023-06-18T00:00:00	2024-11-06T17:00:00	7	Dirección del viento	3.22
102471	7	Sololá	702	San José Chacayá	5	Chacayá	6	Junio	2023-06-18T00:00:00	2024-11-06T17:00:00	1	Precipitación	0
102472	7	Sololá	702	San José Chacayá	5	Chacayá	6	Junio	2023-06-18T00:00:00	2024-11-06T17:00:00	8	Radiación solar	81
102473	7	Sololá	702	San José Chacayá	5	Chacayá	6	Junio	2023-06-18T00:00:00	2024-11-06T18:00:00	2	Temperatura media	19.7
102474	7	Sololá	702	San José Chacayá	5	Chacayá	6	Junio	2023-06-18T00:00:00	2024-11-06T18:00:00	4	Temperatura máxima	21.7
102475	7	Sololá	702	San José Chacayá	5	Chacayá	6	Junio	2023-06-18T00:00:00	2024-11-06T18:00:00	3	Temperatura mínima	19.7
102476	7	Sololá	702	San José Chacayá	5	Chacayá	6	Junio	2023-06-18T00:00:00	2024-11-06T18:00:00	5	Humedad	82
102477	7	Sololá	702	San José Chacayá	5	Chacayá	6	Junio	2023-06-18T00:00:00	2024-11-06T18:00:00	6	Velocidad del viento	3.2
102478	7	Sololá	702	San José Chacayá	5	Chacayá	6	Junio	2023-06-18T00:00:00	2024-11-06T18:00:00	7	Dirección del viento	3.22
102479	7	Sololá	702	San José Chacayá	5	Chacayá	6	Junio	2023-06-18T00:00:00	2024-11-06T18:00:00	1	Precipitación	0
102480	7	Sololá	702	San José Chacayá	5	Chacayá	6	Junio	2023-06-18T00:00:00	2024-11-06T18:00:00	8	Radiación solar	35
102481	7	Sololá	702	San José Chacayá	5	Chacayá	6	Junio	2023-06-18T00:00:00	2024-11-06T19:00:00	2	Temperatura media	17.1
102482	7	Sololá	702	San José Chacayá	5	Chacayá	6	Junio	2023-06-18T00:00:00	2024-11-06T19:00:00	4	Temperatura máxima	19.7
102483	7	Sololá	702	San José Chacayá	5	Chacayá	6	Junio	2023-06-18T00:00:00	2024-11-06T19:00:00	3	Temperatura mínima	17.1
102484	7	Sololá	702	San José Chacayá	5	Chacayá	6	Junio	2023-06-18T00:00:00	2024-11-06T19:00:00	5	Humedad	87
102485	7	Sololá	702	San José Chacayá	5	Chacayá	6	Junio	2023-06-18T00:00:00	2024-11-06T19:00:00	6	Velocidad del viento	1.6
102486	7	Sololá	702	San José Chacayá	5	Chacayá	6	Junio	2023-06-18T00:00:00	2024-11-06T19:00:00	7	Dirección del viento	1.61
102487	7	Sololá	702	San José Chacayá	5	Chacayá	6	Junio	2023-06-18T00:00:00	2024-11-06T19:00:00	1	Precipitación	0
102488	7	Sololá	702	San José Chacayá	5	Chacayá	6	Junio	2023-06-18T00:00:00	2024-11-06T19:00:00	8	Radiación solar	0
102489	7	Sololá	702	San José Chacayá	5	Chacayá	6	Junio	2023-06-18T00:00:00	2024-11-06T20:00:00	2	Temperatura media	16.4
102490	7	Sololá	702	San José Chacayá	5	Chacayá	6	Junio	2023-06-18T00:00:00	2024-11-06T20:00:00	4	Temperatura máxima	17.2
102491	7	Sololá	702	San José Chacayá	5	Chacayá	6	Junio	2023-06-18T00:00:00	2024-11-06T20:00:00	3	Temperatura mínima	16.4
102492	7	Sololá	702	San José Chacayá	5	Chacayá	6	Junio	2023-06-18T00:00:00	2024-11-06T20:00:00	5	Humedad	90
102493	7	Sololá	702	San José Chacayá	5	Chacayá	6	Junio	2023-06-18T00:00:00	2024-11-06T20:00:00	6	Velocidad del viento	0
102494	7	Sololá	702	San José Chacayá	5	Chacayá	6	Junio	2023-06-18T00:00:00	2024-11-06T20:00:00	7	Dirección del viento	0
102495	7	Sololá	702	San José Chacayá	5	Chacayá	6	Junio	2023-06-18T00:00:00	2024-11-06T20:00:00	1	Precipitación	0
102496	7	Sololá	702	San José Chacayá	5	Chacayá	6	Junio	2023-06-18T00:00:00	2024-11-06T20:00:00	8	Radiación solar	0
102497	7	Sololá	702	San José Chacayá	5	Chacayá	6	Junio	2023-06-18T00:00:00	2024-11-06T21:00:00	2	Temperatura media	16.5
102498	7	Sololá	702	San José Chacayá	5	Chacayá	6	Junio	2023-06-18T00:00:00	2024-11-06T21:00:00	4	Temperatura máxima	16.6
102499	7	Sololá	702	San José Chacayá	5	Chacayá	6	Junio	2023-06-18T00:00:00	2024-11-06T21:00:00	3	Temperatura mínima	16.3
102500	7	Sololá	702	San José Chacayá	5	Chacayá	6	Junio	2023-06-18T00:00:00	2024-11-06T21:00:00	5	Humedad	78
102501	7	Sololá	702	San José Chacayá	5	Chacayá	6	Junio	2023-06-18T00:00:00	2024-11-06T21:00:00	6	Velocidad del viento	3.2
102502	7	Sololá	702	San José Chacayá	5	Chacayá	6	Junio	2023-06-18T00:00:00	2024-11-06T21:00:00	7	Dirección del viento	3.22
102503	7	Sololá	702	San José Chacayá	5	Chacayá	6	Junio	2023-06-18T00:00:00	2024-11-06T21:00:00	1	Precipitación	0
102504	7	Sololá	702	San José Chacayá	5	Chacayá	6	Junio	2023-06-18T00:00:00	2024-11-06T21:00:00	8	Radiación solar	0
102505	7	Sololá	702	San José Chacayá	5	Chacayá	6	Junio	2023-06-18T00:00:00	2024-11-06T22:00:00	2	Temperatura media	16.1
102506	7	Sololá	702	San José Chacayá	5	Chacayá	6	Junio	2023-06-18T00:00:00	2024-11-06T22:00:00	4	Temperatura máxima	16.5
102507	7	Sololá	702	San José Chacayá	5	Chacayá	6	Junio	2023-06-18T00:00:00	2024-11-06T22:00:00	3	Temperatura mínima	15.9
102508	7	Sololá	702	San José Chacayá	5	Chacayá	6	Junio	2023-06-18T00:00:00	2024-11-06T22:00:00	5	Humedad	75
102509	7	Sololá	702	San José Chacayá	5	Chacayá	6	Junio	2023-06-18T00:00:00	2024-11-06T22:00:00	6	Velocidad del viento	3.2
102510	7	Sololá	702	San José Chacayá	5	Chacayá	6	Junio	2023-06-18T00:00:00	2024-11-06T22:00:00	7	Dirección del viento	3.22
102511	7	Sololá	702	San José Chacayá	5	Chacayá	6	Junio	2023-06-18T00:00:00	2024-11-06T22:00:00	1	Precipitación	0
102512	7	Sololá	702	San José Chacayá	5	Chacayá	6	Junio	2023-06-18T00:00:00	2024-11-06T22:00:00	8	Radiación solar	0
102513	7	Sololá	702	San José Chacayá	5	Chacayá	6	Junio	2023-06-18T00:00:00	2024-11-06T23:00:00	2	Temperatura media	16.4
102514	7	Sololá	702	San José Chacayá	5	Chacayá	6	Junio	2023-06-18T00:00:00	2024-11-06T23:00:00	4	Temperatura máxima	16.5
102515	7	Sololá	702	San José Chacayá	5	Chacayá	6	Junio	2023-06-18T00:00:00	2024-11-06T23:00:00	3	Temperatura mínima	16.1
102516	7	Sololá	702	San José Chacayá	5	Chacayá	6	Junio	2023-06-18T00:00:00	2024-11-06T23:00:00	5	Humedad	75
102517	7	Sololá	702	San José Chacayá	5	Chacayá	6	Junio	2023-06-18T00:00:00	2024-11-06T23:00:00	6	Velocidad del viento	3.2
102518	7	Sololá	702	San José Chacayá	5	Chacayá	6	Junio	2023-06-18T00:00:00	2024-11-06T23:00:00	7	Dirección del viento	3.22
102519	7	Sololá	702	San José Chacayá	5	Chacayá	6	Junio	2023-06-18T00:00:00	2024-11-06T23:00:00	1	Precipitación	0
102520	7	Sololá	702	San José Chacayá	5	Chacayá	6	Junio	2023-06-18T00:00:00	2024-11-06T23:00:00	8	Radiación solar	0
102521	7	Sololá	702	San José Chacayá	5	Chacayá	6	Junio	2023-06-19T00:00:00	2024-11-06T00:00:00	2	Temperatura media	16.2
102522	7	Sololá	702	San José Chacayá	5	Chacayá	6	Junio	2023-06-19T00:00:00	2024-11-06T00:00:00	4	Temperatura máxima	16.3
102523	7	Sololá	702	San José Chacayá	5	Chacayá	6	Junio	2023-06-19T00:00:00	2024-11-06T00:00:00	3	Temperatura mínima	16.2
102524	7	Sololá	702	San José Chacayá	5	Chacayá	6	Junio	2023-06-19T00:00:00	2024-11-06T00:00:00	5	Humedad	75
102525	7	Sololá	702	San José Chacayá	5	Chacayá	6	Junio	2023-06-19T00:00:00	2024-11-06T00:00:00	6	Velocidad del viento	3.2
102526	7	Sololá	702	San José Chacayá	5	Chacayá	6	Junio	2023-06-19T00:00:00	2024-11-06T00:00:00	7	Dirección del viento	3.22
102527	7	Sololá	702	San José Chacayá	5	Chacayá	6	Junio	2023-06-19T00:00:00	2024-11-06T00:00:00	1	Precipitación	0
102528	7	Sololá	702	San José Chacayá	5	Chacayá	6	Junio	2023-06-19T00:00:00	2024-11-06T00:00:00	8	Radiación solar	0
102529	7	Sololá	702	San José Chacayá	5	Chacayá	6	Junio	2023-06-19T00:00:00	2024-11-06T01:00:00	2	Temperatura media	16
102530	7	Sololá	702	San José Chacayá	5	Chacayá	6	Junio	2023-06-19T00:00:00	2024-11-06T01:00:00	4	Temperatura máxima	16.3
102531	7	Sololá	702	San José Chacayá	5	Chacayá	6	Junio	2023-06-19T00:00:00	2024-11-06T01:00:00	3	Temperatura mínima	16
102532	7	Sololá	702	San José Chacayá	5	Chacayá	6	Junio	2023-06-19T00:00:00	2024-11-06T01:00:00	5	Humedad	74
102533	7	Sololá	702	San José Chacayá	5	Chacayá	6	Junio	2023-06-19T00:00:00	2024-11-06T01:00:00	6	Velocidad del viento	3.2
102534	7	Sololá	702	San José Chacayá	5	Chacayá	6	Junio	2023-06-19T00:00:00	2024-11-06T01:00:00	7	Dirección del viento	3.22
102535	7	Sololá	702	San José Chacayá	5	Chacayá	6	Junio	2023-06-19T00:00:00	2024-11-06T01:00:00	1	Precipitación	0
102536	7	Sololá	702	San José Chacayá	5	Chacayá	6	Junio	2023-06-19T00:00:00	2024-11-06T01:00:00	8	Radiación solar	0
102537	7	Sololá	702	San José Chacayá	5	Chacayá	6	Junio	2023-06-19T00:00:00	2024-11-06T02:00:00	2	Temperatura media	16.2
102538	7	Sololá	702	San José Chacayá	5	Chacayá	6	Junio	2023-06-19T00:00:00	2024-11-06T02:00:00	4	Temperatura máxima	16.2
102539	7	Sololá	702	San José Chacayá	5	Chacayá	6	Junio	2023-06-19T00:00:00	2024-11-06T02:00:00	3	Temperatura mínima	15.9
102540	7	Sololá	702	San José Chacayá	5	Chacayá	6	Junio	2023-06-19T00:00:00	2024-11-06T02:00:00	5	Humedad	69
102541	7	Sololá	702	San José Chacayá	5	Chacayá	6	Junio	2023-06-19T00:00:00	2024-11-06T02:00:00	6	Velocidad del viento	3.2
102542	7	Sololá	702	San José Chacayá	5	Chacayá	6	Junio	2023-06-19T00:00:00	2024-11-06T02:00:00	7	Dirección del viento	3.22
102543	7	Sololá	702	San José Chacayá	5	Chacayá	6	Junio	2023-06-19T00:00:00	2024-11-06T02:00:00	1	Precipitación	0
102544	7	Sololá	702	San José Chacayá	5	Chacayá	6	Junio	2023-06-19T00:00:00	2024-11-06T02:00:00	8	Radiación solar	0
102545	7	Sololá	702	San José Chacayá	5	Chacayá	6	Junio	2023-06-19T00:00:00	2024-11-06T03:00:00	2	Temperatura media	16
102546	7	Sololá	702	San José Chacayá	5	Chacayá	6	Junio	2023-06-19T00:00:00	2024-11-06T03:00:00	4	Temperatura máxima	16.3
102547	7	Sololá	702	San José Chacayá	5	Chacayá	6	Junio	2023-06-19T00:00:00	2024-11-06T03:00:00	3	Temperatura mínima	15.8
102548	7	Sololá	702	San José Chacayá	5	Chacayá	6	Junio	2023-06-19T00:00:00	2024-11-06T03:00:00	5	Humedad	71
102549	7	Sololá	702	San José Chacayá	5	Chacayá	6	Junio	2023-06-19T00:00:00	2024-11-06T03:00:00	6	Velocidad del viento	3.2
102550	7	Sololá	702	San José Chacayá	5	Chacayá	6	Junio	2023-06-19T00:00:00	2024-11-06T03:00:00	7	Dirección del viento	3.22
102551	7	Sololá	702	San José Chacayá	5	Chacayá	6	Junio	2023-06-19T00:00:00	2024-11-06T03:00:00	1	Precipitación	0
102552	7	Sololá	702	San José Chacayá	5	Chacayá	6	Junio	2023-06-19T00:00:00	2024-11-06T03:00:00	8	Radiación solar	0
102553	7	Sololá	702	San José Chacayá	5	Chacayá	6	Junio	2023-06-19T00:00:00	2024-11-06T04:00:00	2	Temperatura media	15.3
102554	7	Sololá	702	San José Chacayá	5	Chacayá	6	Junio	2023-06-19T00:00:00	2024-11-06T04:00:00	4	Temperatura máxima	16
102555	7	Sololá	702	San José Chacayá	5	Chacayá	6	Junio	2023-06-19T00:00:00	2024-11-06T04:00:00	3	Temperatura mínima	15.3
102556	7	Sololá	702	San José Chacayá	5	Chacayá	6	Junio	2023-06-19T00:00:00	2024-11-06T04:00:00	5	Humedad	76
102557	7	Sololá	702	San José Chacayá	5	Chacayá	6	Junio	2023-06-19T00:00:00	2024-11-06T04:00:00	6	Velocidad del viento	3.2
102558	7	Sololá	702	San José Chacayá	5	Chacayá	6	Junio	2023-06-19T00:00:00	2024-11-06T04:00:00	7	Dirección del viento	3.22
102559	7	Sololá	702	San José Chacayá	5	Chacayá	6	Junio	2023-06-19T00:00:00	2024-11-06T04:00:00	1	Precipitación	0
102560	7	Sololá	702	San José Chacayá	5	Chacayá	6	Junio	2023-06-19T00:00:00	2024-11-06T04:00:00	8	Radiación solar	0
102561	7	Sololá	702	San José Chacayá	5	Chacayá	6	Junio	2023-06-19T00:00:00	2024-11-06T05:00:00	2	Temperatura media	13.5
102562	7	Sololá	702	San José Chacayá	5	Chacayá	6	Junio	2023-06-19T00:00:00	2024-11-06T05:00:00	4	Temperatura máxima	15.3
102563	7	Sololá	702	San José Chacayá	5	Chacayá	6	Junio	2023-06-19T00:00:00	2024-11-06T05:00:00	3	Temperatura mínima	13.5
102564	7	Sololá	702	San José Chacayá	5	Chacayá	6	Junio	2023-06-19T00:00:00	2024-11-06T05:00:00	5	Humedad	84
102565	7	Sololá	702	San José Chacayá	5	Chacayá	6	Junio	2023-06-19T00:00:00	2024-11-06T05:00:00	6	Velocidad del viento	1.6
102566	7	Sololá	702	San José Chacayá	5	Chacayá	6	Junio	2023-06-19T00:00:00	2024-11-06T05:00:00	7	Dirección del viento	1.61
102567	7	Sololá	702	San José Chacayá	5	Chacayá	6	Junio	2023-06-19T00:00:00	2024-11-06T05:00:00	1	Precipitación	0
102568	7	Sololá	702	San José Chacayá	5	Chacayá	6	Junio	2023-06-19T00:00:00	2024-11-06T05:00:00	8	Radiación solar	0
102569	7	Sololá	702	San José Chacayá	5	Chacayá	6	Junio	2023-06-19T00:00:00	2024-11-06T06:00:00	2	Temperatura media	12.8
102570	7	Sololá	702	San José Chacayá	5	Chacayá	6	Junio	2023-06-19T00:00:00	2024-11-06T06:00:00	4	Temperatura máxima	13.6
102571	7	Sololá	702	San José Chacayá	5	Chacayá	6	Junio	2023-06-19T00:00:00	2024-11-06T06:00:00	3	Temperatura mínima	12.8
102572	7	Sololá	702	San José Chacayá	5	Chacayá	6	Junio	2023-06-19T00:00:00	2024-11-06T06:00:00	5	Humedad	88
102573	7	Sololá	702	San José Chacayá	5	Chacayá	6	Junio	2023-06-19T00:00:00	2024-11-06T06:00:00	6	Velocidad del viento	0
102574	7	Sololá	702	San José Chacayá	5	Chacayá	6	Junio	2023-06-19T00:00:00	2024-11-06T06:00:00	7	Dirección del viento	0
102575	7	Sololá	702	San José Chacayá	5	Chacayá	6	Junio	2023-06-19T00:00:00	2024-11-06T06:00:00	1	Precipitación	0
102576	7	Sololá	702	San José Chacayá	5	Chacayá	6	Junio	2023-06-19T00:00:00	2024-11-06T06:00:00	8	Radiación solar	6
102577	7	Sololá	702	San José Chacayá	5	Chacayá	6	Junio	2023-06-19T00:00:00	2024-11-06T07:00:00	2	Temperatura media	16.2
102578	7	Sololá	702	San José Chacayá	5	Chacayá	6	Junio	2023-06-19T00:00:00	2024-11-06T07:00:00	4	Temperatura máxima	16.2
102579	7	Sololá	702	San José Chacayá	5	Chacayá	6	Junio	2023-06-19T00:00:00	2024-11-06T07:00:00	3	Temperatura mínima	12.8
102580	7	Sololá	702	San José Chacayá	5	Chacayá	6	Junio	2023-06-19T00:00:00	2024-11-06T07:00:00	5	Humedad	79
102581	7	Sololá	702	San José Chacayá	5	Chacayá	6	Junio	2023-06-19T00:00:00	2024-11-06T07:00:00	6	Velocidad del viento	0
102582	7	Sololá	702	San José Chacayá	5	Chacayá	6	Junio	2023-06-19T00:00:00	2024-11-06T07:00:00	7	Dirección del viento	0
102583	7	Sololá	702	San José Chacayá	5	Chacayá	6	Junio	2023-06-19T00:00:00	2024-11-06T07:00:00	1	Precipitación	0
102584	7	Sololá	702	San José Chacayá	5	Chacayá	6	Junio	2023-06-19T00:00:00	2024-11-06T07:00:00	8	Radiación solar	93
102585	7	Sololá	702	San José Chacayá	5	Chacayá	6	Junio	2023-06-19T00:00:00	2024-11-06T08:00:00	2	Temperatura media	19.2
102586	7	Sololá	702	San José Chacayá	5	Chacayá	6	Junio	2023-06-19T00:00:00	2024-11-06T08:00:00	4	Temperatura máxima	19.3
102587	7	Sololá	702	San José Chacayá	5	Chacayá	6	Junio	2023-06-19T00:00:00	2024-11-06T08:00:00	3	Temperatura mínima	16.2
102588	7	Sololá	702	San José Chacayá	5	Chacayá	6	Junio	2023-06-19T00:00:00	2024-11-06T08:00:00	5	Humedad	68
102589	7	Sololá	702	San José Chacayá	5	Chacayá	6	Junio	2023-06-19T00:00:00	2024-11-06T08:00:00	6	Velocidad del viento	3.2
102590	7	Sololá	702	San José Chacayá	5	Chacayá	6	Junio	2023-06-19T00:00:00	2024-11-06T08:00:00	7	Dirección del viento	3.22
102591	7	Sololá	702	San José Chacayá	5	Chacayá	6	Junio	2023-06-19T00:00:00	2024-11-06T08:00:00	1	Precipitación	0
102592	7	Sololá	702	San José Chacayá	5	Chacayá	6	Junio	2023-06-19T00:00:00	2024-11-06T08:00:00	8	Radiación solar	145
102593	7	Sololá	702	San José Chacayá	5	Chacayá	6	Junio	2023-06-19T00:00:00	2024-11-06T09:00:00	2	Temperatura media	19.8
102594	7	Sololá	702	San José Chacayá	5	Chacayá	6	Junio	2023-06-19T00:00:00	2024-11-06T09:00:00	4	Temperatura máxima	20.1
102595	7	Sololá	702	San José Chacayá	5	Chacayá	6	Junio	2023-06-19T00:00:00	2024-11-06T09:00:00	3	Temperatura mínima	18.9
102596	7	Sololá	702	San José Chacayá	5	Chacayá	6	Junio	2023-06-19T00:00:00	2024-11-06T09:00:00	5	Humedad	67
102597	7	Sololá	702	San José Chacayá	5	Chacayá	6	Junio	2023-06-19T00:00:00	2024-11-06T09:00:00	6	Velocidad del viento	3.2
102598	7	Sololá	702	San José Chacayá	5	Chacayá	6	Junio	2023-06-19T00:00:00	2024-11-06T09:00:00	7	Dirección del viento	3.22
102599	7	Sololá	702	San José Chacayá	5	Chacayá	6	Junio	2023-06-19T00:00:00	2024-11-06T09:00:00	1	Precipitación	0
102600	7	Sololá	702	San José Chacayá	5	Chacayá	6	Junio	2023-06-19T00:00:00	2024-11-06T09:00:00	8	Radiación solar	101
102601	7	Sololá	702	San José Chacayá	5	Chacayá	6	Junio	2023-06-19T00:00:00	2024-11-06T10:00:00	2	Temperatura media	22.7
102602	7	Sololá	702	San José Chacayá	5	Chacayá	6	Junio	2023-06-19T00:00:00	2024-11-06T10:00:00	4	Temperatura máxima	22.7
102603	7	Sololá	702	San José Chacayá	5	Chacayá	6	Junio	2023-06-19T00:00:00	2024-11-06T10:00:00	3	Temperatura mínima	19.8
102604	7	Sololá	702	San José Chacayá	5	Chacayá	6	Junio	2023-06-19T00:00:00	2024-11-06T10:00:00	5	Humedad	56
102605	7	Sololá	702	San José Chacayá	5	Chacayá	6	Junio	2023-06-19T00:00:00	2024-11-06T10:00:00	6	Velocidad del viento	4.8
102606	7	Sololá	702	San José Chacayá	5	Chacayá	6	Junio	2023-06-19T00:00:00	2024-11-06T10:00:00	7	Dirección del viento	4.83
102607	7	Sololá	702	San José Chacayá	5	Chacayá	6	Junio	2023-06-19T00:00:00	2024-11-06T10:00:00	1	Precipitación	0
102608	7	Sololá	702	San José Chacayá	5	Chacayá	6	Junio	2023-06-19T00:00:00	2024-11-06T10:00:00	8	Radiación solar	439
102609	7	Sololá	702	San José Chacayá	5	Chacayá	6	Junio	2023-06-19T00:00:00	2024-11-06T11:00:00	2	Temperatura media	22.8
102610	7	Sololá	702	San José Chacayá	5	Chacayá	6	Junio	2023-06-19T00:00:00	2024-11-06T11:00:00	4	Temperatura máxima	23.8
102611	7	Sololá	702	San José Chacayá	5	Chacayá	6	Junio	2023-06-19T00:00:00	2024-11-06T11:00:00	3	Temperatura mínima	22.7
102612	7	Sololá	702	San José Chacayá	5	Chacayá	6	Junio	2023-06-19T00:00:00	2024-11-06T11:00:00	5	Humedad	62
102613	7	Sololá	702	San José Chacayá	5	Chacayá	6	Junio	2023-06-19T00:00:00	2024-11-06T11:00:00	6	Velocidad del viento	6.4
102614	7	Sololá	702	San José Chacayá	5	Chacayá	6	Junio	2023-06-19T00:00:00	2024-11-06T11:00:00	7	Dirección del viento	6.44
102615	7	Sololá	702	San José Chacayá	5	Chacayá	6	Junio	2023-06-19T00:00:00	2024-11-06T11:00:00	1	Precipitación	0
102616	7	Sololá	702	San José Chacayá	5	Chacayá	6	Junio	2023-06-19T00:00:00	2024-11-06T11:00:00	8	Radiación solar	451
102617	7	Sololá	702	San José Chacayá	5	Chacayá	6	Junio	2023-06-19T00:00:00	2024-11-06T12:00:00	2	Temperatura media	22.3
102618	7	Sololá	702	San José Chacayá	5	Chacayá	6	Junio	2023-06-19T00:00:00	2024-11-06T12:00:00	4	Temperatura máxima	23.4
102619	7	Sololá	702	San José Chacayá	5	Chacayá	6	Junio	2023-06-19T00:00:00	2024-11-06T12:00:00	3	Temperatura mínima	21.7
102620	7	Sololá	702	San José Chacayá	5	Chacayá	6	Junio	2023-06-19T00:00:00	2024-11-06T12:00:00	5	Humedad	70
102621	7	Sololá	702	San José Chacayá	5	Chacayá	6	Junio	2023-06-19T00:00:00	2024-11-06T12:00:00	6	Velocidad del viento	4.8
102622	7	Sololá	702	San José Chacayá	5	Chacayá	6	Junio	2023-06-19T00:00:00	2024-11-06T12:00:00	7	Dirección del viento	4.83
102623	7	Sololá	702	San José Chacayá	5	Chacayá	6	Junio	2023-06-19T00:00:00	2024-11-06T12:00:00	1	Precipitación	0
102624	7	Sololá	702	San José Chacayá	5	Chacayá	6	Junio	2023-06-19T00:00:00	2024-11-06T12:00:00	8	Radiación solar	524
102625	7	Sololá	702	San José Chacayá	5	Chacayá	6	Junio	2023-06-19T00:00:00	2024-11-06T13:00:00	2	Temperatura media	19
102626	7	Sololá	702	San José Chacayá	5	Chacayá	6	Junio	2023-06-19T00:00:00	2024-11-06T13:00:00	4	Temperatura máxima	22.2
102627	7	Sololá	702	San José Chacayá	5	Chacayá	6	Junio	2023-06-19T00:00:00	2024-11-06T13:00:00	3	Temperatura mínima	18.8
102628	7	Sololá	702	San José Chacayá	5	Chacayá	6	Junio	2023-06-19T00:00:00	2024-11-06T13:00:00	5	Humedad	83
102629	7	Sololá	702	San José Chacayá	5	Chacayá	6	Junio	2023-06-19T00:00:00	2024-11-06T13:00:00	6	Velocidad del viento	1.6
102630	7	Sololá	702	San José Chacayá	5	Chacayá	6	Junio	2023-06-19T00:00:00	2024-11-06T13:00:00	7	Dirección del viento	1.61
102631	7	Sololá	702	San José Chacayá	5	Chacayá	6	Junio	2023-06-19T00:00:00	2024-11-06T13:00:00	1	Precipitación	0
102632	7	Sololá	702	San José Chacayá	5	Chacayá	6	Junio	2023-06-19T00:00:00	2024-11-06T13:00:00	8	Radiación solar	507
102633	7	Sololá	702	San José Chacayá	5	Chacayá	6	Junio	2023-06-19T00:00:00	2024-11-06T14:00:00	2	Temperatura media	20.7
102634	7	Sololá	702	San José Chacayá	5	Chacayá	6	Junio	2023-06-19T00:00:00	2024-11-06T14:00:00	4	Temperatura máxima	21.4
102635	7	Sololá	702	San José Chacayá	5	Chacayá	6	Junio	2023-06-19T00:00:00	2024-11-06T14:00:00	3	Temperatura mínima	18.9
102636	7	Sololá	702	San José Chacayá	5	Chacayá	6	Junio	2023-06-19T00:00:00	2024-11-06T14:00:00	5	Humedad	76
102637	7	Sololá	702	San José Chacayá	5	Chacayá	6	Junio	2023-06-19T00:00:00	2024-11-06T14:00:00	6	Velocidad del viento	1.6
102638	7	Sololá	702	San José Chacayá	5	Chacayá	6	Junio	2023-06-19T00:00:00	2024-11-06T14:00:00	7	Dirección del viento	1.61
102639	7	Sololá	702	San José Chacayá	5	Chacayá	6	Junio	2023-06-19T00:00:00	2024-11-06T14:00:00	1	Precipitación	0
102640	7	Sololá	702	San José Chacayá	5	Chacayá	6	Junio	2023-06-19T00:00:00	2024-11-06T14:00:00	8	Radiación solar	533
102641	7	Sololá	702	San José Chacayá	5	Chacayá	6	Junio	2023-06-19T00:00:00	2024-11-06T15:00:00	2	Temperatura media	22.2
102642	7	Sololá	702	San José Chacayá	5	Chacayá	6	Junio	2023-06-19T00:00:00	2024-11-06T15:00:00	4	Temperatura máxima	22.7
102643	7	Sololá	702	San José Chacayá	5	Chacayá	6	Junio	2023-06-19T00:00:00	2024-11-06T15:00:00	3	Temperatura mínima	20.7
102644	7	Sololá	702	San José Chacayá	5	Chacayá	6	Junio	2023-06-19T00:00:00	2024-11-06T15:00:00	5	Humedad	70
102645	7	Sololá	702	San José Chacayá	5	Chacayá	6	Junio	2023-06-19T00:00:00	2024-11-06T15:00:00	6	Velocidad del viento	3.2
102646	7	Sololá	702	San José Chacayá	5	Chacayá	6	Junio	2023-06-19T00:00:00	2024-11-06T15:00:00	7	Dirección del viento	3.22
102647	7	Sololá	702	San José Chacayá	5	Chacayá	6	Junio	2023-06-19T00:00:00	2024-11-06T15:00:00	1	Precipitación	0
102648	7	Sololá	702	San José Chacayá	5	Chacayá	6	Junio	2023-06-19T00:00:00	2024-11-06T15:00:00	8	Radiación solar	455
102649	7	Sololá	702	San José Chacayá	5	Chacayá	6	Junio	2023-06-19T00:00:00	2024-11-06T16:00:00	2	Temperatura media	20.4
102650	7	Sololá	702	San José Chacayá	5	Chacayá	6	Junio	2023-06-19T00:00:00	2024-11-06T16:00:00	4	Temperatura máxima	23.3
102651	7	Sololá	702	San José Chacayá	5	Chacayá	6	Junio	2023-06-19T00:00:00	2024-11-06T16:00:00	3	Temperatura mínima	20.4
102652	7	Sololá	702	San José Chacayá	5	Chacayá	6	Junio	2023-06-19T00:00:00	2024-11-06T16:00:00	5	Humedad	76
102653	7	Sololá	702	San José Chacayá	5	Chacayá	6	Junio	2023-06-19T00:00:00	2024-11-06T16:00:00	6	Velocidad del viento	4.8
102654	7	Sololá	702	San José Chacayá	5	Chacayá	6	Junio	2023-06-19T00:00:00	2024-11-06T16:00:00	7	Dirección del viento	4.83
102655	7	Sololá	702	San José Chacayá	5	Chacayá	6	Junio	2023-06-19T00:00:00	2024-11-06T16:00:00	1	Precipitación	0
102656	7	Sololá	702	San José Chacayá	5	Chacayá	6	Junio	2023-06-19T00:00:00	2024-11-06T16:00:00	8	Radiación solar	212
102657	7	Sololá	702	San José Chacayá	5	Chacayá	6	Junio	2023-06-19T00:00:00	2024-11-06T17:00:00	2	Temperatura media	18.6
102658	7	Sololá	702	San José Chacayá	5	Chacayá	6	Junio	2023-06-19T00:00:00	2024-11-06T17:00:00	4	Temperatura máxima	20.9
102659	7	Sololá	702	San José Chacayá	5	Chacayá	6	Junio	2023-06-19T00:00:00	2024-11-06T17:00:00	3	Temperatura mínima	18.6
102660	7	Sololá	702	San José Chacayá	5	Chacayá	6	Junio	2023-06-19T00:00:00	2024-11-06T17:00:00	5	Humedad	84
102661	7	Sololá	702	San José Chacayá	5	Chacayá	6	Junio	2023-06-19T00:00:00	2024-11-06T17:00:00	6	Velocidad del viento	3.2
102662	7	Sololá	702	San José Chacayá	5	Chacayá	6	Junio	2023-06-19T00:00:00	2024-11-06T17:00:00	7	Dirección del viento	3.22
102663	7	Sololá	702	San José Chacayá	5	Chacayá	6	Junio	2023-06-19T00:00:00	2024-11-06T17:00:00	1	Precipitación	0
102664	7	Sololá	702	San José Chacayá	5	Chacayá	6	Junio	2023-06-19T00:00:00	2024-11-06T17:00:00	8	Radiación solar	97
102665	7	Sololá	702	San José Chacayá	5	Chacayá	6	Junio	2023-06-19T00:00:00	2024-11-06T18:00:00	2	Temperatura media	17.9
102666	7	Sololá	702	San José Chacayá	5	Chacayá	6	Junio	2023-06-19T00:00:00	2024-11-06T18:00:00	4	Temperatura máxima	18.6
102667	7	Sololá	702	San José Chacayá	5	Chacayá	6	Junio	2023-06-19T00:00:00	2024-11-06T18:00:00	3	Temperatura mínima	17.9
102668	7	Sololá	702	San José Chacayá	5	Chacayá	6	Junio	2023-06-19T00:00:00	2024-11-06T18:00:00	5	Humedad	88
102669	7	Sololá	702	San José Chacayá	5	Chacayá	6	Junio	2023-06-19T00:00:00	2024-11-06T18:00:00	6	Velocidad del viento	3.2
102670	7	Sololá	702	San José Chacayá	5	Chacayá	6	Junio	2023-06-19T00:00:00	2024-11-06T18:00:00	7	Dirección del viento	3.22
102671	7	Sololá	702	San José Chacayá	5	Chacayá	6	Junio	2023-06-19T00:00:00	2024-11-06T18:00:00	1	Precipitación	0
102672	7	Sololá	702	San José Chacayá	5	Chacayá	6	Junio	2023-06-19T00:00:00	2024-11-06T18:00:00	8	Radiación solar	27
102673	7	Sololá	702	San José Chacayá	5	Chacayá	6	Junio	2023-06-19T00:00:00	2024-11-06T19:00:00	2	Temperatura media	17.2
102674	7	Sololá	702	San José Chacayá	5	Chacayá	6	Junio	2023-06-19T00:00:00	2024-11-06T19:00:00	4	Temperatura máxima	17.9
102675	7	Sololá	702	San José Chacayá	5	Chacayá	6	Junio	2023-06-19T00:00:00	2024-11-06T19:00:00	3	Temperatura mínima	17.2
102676	7	Sololá	702	San José Chacayá	5	Chacayá	6	Junio	2023-06-19T00:00:00	2024-11-06T19:00:00	5	Humedad	90
102677	7	Sololá	702	San José Chacayá	5	Chacayá	6	Junio	2023-06-19T00:00:00	2024-11-06T19:00:00	6	Velocidad del viento	0
102678	7	Sololá	702	San José Chacayá	5	Chacayá	6	Junio	2023-06-19T00:00:00	2024-11-06T19:00:00	7	Dirección del viento	0
102679	7	Sololá	702	San José Chacayá	5	Chacayá	6	Junio	2023-06-19T00:00:00	2024-11-06T19:00:00	1	Precipitación	0
102680	7	Sololá	702	San José Chacayá	5	Chacayá	6	Junio	2023-06-19T00:00:00	2024-11-06T19:00:00	8	Radiación solar	0
102681	7	Sololá	702	San José Chacayá	5	Chacayá	6	Junio	2023-06-19T00:00:00	2024-11-06T20:00:00	2	Temperatura media	16.7
102682	7	Sololá	702	San José Chacayá	5	Chacayá	6	Junio	2023-06-19T00:00:00	2024-11-06T20:00:00	4	Temperatura máxima	17.2
102683	7	Sololá	702	San José Chacayá	5	Chacayá	6	Junio	2023-06-19T00:00:00	2024-11-06T20:00:00	3	Temperatura mínima	16.7
102684	7	Sololá	702	San José Chacayá	5	Chacayá	6	Junio	2023-06-19T00:00:00	2024-11-06T20:00:00	5	Humedad	92
102685	7	Sololá	702	San José Chacayá	5	Chacayá	6	Junio	2023-06-19T00:00:00	2024-11-06T20:00:00	6	Velocidad del viento	0
102686	7	Sololá	702	San José Chacayá	5	Chacayá	6	Junio	2023-06-19T00:00:00	2024-11-06T20:00:00	7	Dirección del viento	0
102687	7	Sololá	702	San José Chacayá	5	Chacayá	6	Junio	2023-06-19T00:00:00	2024-11-06T20:00:00	1	Precipitación	0
102688	7	Sololá	702	San José Chacayá	5	Chacayá	6	Junio	2023-06-19T00:00:00	2024-11-06T20:00:00	8	Radiación solar	0
102689	7	Sololá	702	San José Chacayá	5	Chacayá	6	Junio	2023-06-19T00:00:00	2024-11-06T21:00:00	2	Temperatura media	15.8
102690	7	Sololá	702	San José Chacayá	5	Chacayá	6	Junio	2023-06-19T00:00:00	2024-11-06T21:00:00	4	Temperatura máxima	16.7
102691	7	Sololá	702	San José Chacayá	5	Chacayá	6	Junio	2023-06-19T00:00:00	2024-11-06T21:00:00	3	Temperatura mínima	15.8
102692	7	Sololá	702	San José Chacayá	5	Chacayá	6	Junio	2023-06-19T00:00:00	2024-11-06T21:00:00	5	Humedad	91
102693	7	Sololá	702	San José Chacayá	5	Chacayá	6	Junio	2023-06-19T00:00:00	2024-11-06T21:00:00	6	Velocidad del viento	0
102694	7	Sololá	702	San José Chacayá	5	Chacayá	6	Junio	2023-06-19T00:00:00	2024-11-06T21:00:00	7	Dirección del viento	0
102695	7	Sololá	702	San José Chacayá	5	Chacayá	6	Junio	2023-06-19T00:00:00	2024-11-06T21:00:00	1	Precipitación	0
102696	7	Sololá	702	San José Chacayá	5	Chacayá	6	Junio	2023-06-19T00:00:00	2024-11-06T21:00:00	8	Radiación solar	0
102697	7	Sololá	702	San José Chacayá	5	Chacayá	6	Junio	2023-06-19T00:00:00	2024-11-06T22:00:00	2	Temperatura media	15.4
102698	7	Sololá	702	San José Chacayá	5	Chacayá	6	Junio	2023-06-19T00:00:00	2024-11-06T22:00:00	4	Temperatura máxima	15.8
102699	7	Sololá	702	San José Chacayá	5	Chacayá	6	Junio	2023-06-19T00:00:00	2024-11-06T22:00:00	3	Temperatura mínima	15.3
102700	7	Sololá	702	San José Chacayá	5	Chacayá	6	Junio	2023-06-19T00:00:00	2024-11-06T22:00:00	5	Humedad	93
102701	7	Sololá	702	San José Chacayá	5	Chacayá	6	Junio	2023-06-19T00:00:00	2024-11-06T22:00:00	6	Velocidad del viento	0
102702	7	Sololá	702	San José Chacayá	5	Chacayá	6	Junio	2023-06-19T00:00:00	2024-11-06T22:00:00	7	Dirección del viento	0
102703	7	Sololá	702	San José Chacayá	5	Chacayá	6	Junio	2023-06-19T00:00:00	2024-11-06T22:00:00	1	Precipitación	0
102704	7	Sololá	702	San José Chacayá	5	Chacayá	6	Junio	2023-06-19T00:00:00	2024-11-06T22:00:00	8	Radiación solar	0
102705	7	Sololá	702	San José Chacayá	5	Chacayá	6	Junio	2023-06-19T00:00:00	2024-11-06T23:00:00	2	Temperatura media	15.9
102706	7	Sololá	702	San José Chacayá	5	Chacayá	6	Junio	2023-06-19T00:00:00	2024-11-06T23:00:00	4	Temperatura máxima	15.9
102707	7	Sololá	702	San José Chacayá	5	Chacayá	6	Junio	2023-06-19T00:00:00	2024-11-06T23:00:00	3	Temperatura mínima	15.4
102708	7	Sololá	702	San José Chacayá	5	Chacayá	6	Junio	2023-06-19T00:00:00	2024-11-06T23:00:00	5	Humedad	93
102709	7	Sololá	702	San José Chacayá	5	Chacayá	6	Junio	2023-06-19T00:00:00	2024-11-06T23:00:00	6	Velocidad del viento	1.6
102710	7	Sololá	702	San José Chacayá	5	Chacayá	6	Junio	2023-06-19T00:00:00	2024-11-06T23:00:00	7	Dirección del viento	1.61
102711	7	Sololá	702	San José Chacayá	5	Chacayá	6	Junio	2023-06-19T00:00:00	2024-11-06T23:00:00	1	Precipitación	0
102712	7	Sololá	702	San José Chacayá	5	Chacayá	6	Junio	2023-06-19T00:00:00	2024-11-06T23:00:00	8	Radiación solar	0
102713	7	Sololá	702	San José Chacayá	5	Chacayá	6	Junio	2023-06-20T00:00:00	2024-11-06T00:00:00	2	Temperatura media	15.8
102714	7	Sololá	702	San José Chacayá	5	Chacayá	6	Junio	2023-06-20T00:00:00	2024-11-06T00:00:00	4	Temperatura máxima	16
102715	7	Sololá	702	San José Chacayá	5	Chacayá	6	Junio	2023-06-20T00:00:00	2024-11-06T00:00:00	3	Temperatura mínima	15.8
102716	7	Sololá	702	San José Chacayá	5	Chacayá	6	Junio	2023-06-20T00:00:00	2024-11-06T00:00:00	5	Humedad	94
102717	7	Sololá	702	San José Chacayá	5	Chacayá	6	Junio	2023-06-20T00:00:00	2024-11-06T00:00:00	6	Velocidad del viento	0
102718	7	Sololá	702	San José Chacayá	5	Chacayá	6	Junio	2023-06-20T00:00:00	2024-11-06T00:00:00	7	Dirección del viento	0
102719	7	Sololá	702	San José Chacayá	5	Chacayá	6	Junio	2023-06-20T00:00:00	2024-11-06T00:00:00	1	Precipitación	0.2
102720	7	Sololá	702	San José Chacayá	5	Chacayá	6	Junio	2023-06-20T00:00:00	2024-11-06T00:00:00	8	Radiación solar	0
102721	7	Sololá	702	San José Chacayá	5	Chacayá	6	Junio	2023-06-20T00:00:00	2024-11-06T01:00:00	2	Temperatura media	15.7
102722	7	Sololá	702	San José Chacayá	5	Chacayá	6	Junio	2023-06-20T00:00:00	2024-11-06T01:00:00	4	Temperatura máxima	15.8
102723	7	Sololá	702	San José Chacayá	5	Chacayá	6	Junio	2023-06-20T00:00:00	2024-11-06T01:00:00	3	Temperatura mínima	15.7
102724	7	Sololá	702	San José Chacayá	5	Chacayá	6	Junio	2023-06-20T00:00:00	2024-11-06T01:00:00	5	Humedad	94
102725	7	Sololá	702	San José Chacayá	5	Chacayá	6	Junio	2023-06-20T00:00:00	2024-11-06T01:00:00	6	Velocidad del viento	0
102726	7	Sololá	702	San José Chacayá	5	Chacayá	6	Junio	2023-06-20T00:00:00	2024-11-06T01:00:00	7	Dirección del viento	0
102727	7	Sololá	702	San José Chacayá	5	Chacayá	6	Junio	2023-06-20T00:00:00	2024-11-06T01:00:00	1	Precipitación	0
102728	7	Sololá	702	San José Chacayá	5	Chacayá	6	Junio	2023-06-20T00:00:00	2024-11-06T01:00:00	8	Radiación solar	0
102729	7	Sololá	702	San José Chacayá	5	Chacayá	6	Junio	2023-06-20T00:00:00	2024-11-06T02:00:00	2	Temperatura media	15.6
102730	7	Sololá	702	San José Chacayá	5	Chacayá	6	Junio	2023-06-20T00:00:00	2024-11-06T02:00:00	4	Temperatura máxima	15.7
102731	7	Sololá	702	San José Chacayá	5	Chacayá	6	Junio	2023-06-20T00:00:00	2024-11-06T02:00:00	3	Temperatura mínima	15.6
102732	7	Sololá	702	San José Chacayá	5	Chacayá	6	Junio	2023-06-20T00:00:00	2024-11-06T02:00:00	5	Humedad	94
102733	7	Sololá	702	San José Chacayá	5	Chacayá	6	Junio	2023-06-20T00:00:00	2024-11-06T02:00:00	6	Velocidad del viento	0
102734	7	Sololá	702	San José Chacayá	5	Chacayá	6	Junio	2023-06-20T00:00:00	2024-11-06T02:00:00	7	Dirección del viento	0
102735	7	Sololá	702	San José Chacayá	5	Chacayá	6	Junio	2023-06-20T00:00:00	2024-11-06T02:00:00	1	Precipitación	0
102736	7	Sololá	702	San José Chacayá	5	Chacayá	6	Junio	2023-06-20T00:00:00	2024-11-06T02:00:00	8	Radiación solar	0
102737	7	Sololá	702	San José Chacayá	5	Chacayá	6	Junio	2023-06-20T00:00:00	2024-11-06T03:00:00	2	Temperatura media	15.3
102738	7	Sololá	702	San José Chacayá	5	Chacayá	6	Junio	2023-06-20T00:00:00	2024-11-06T03:00:00	4	Temperatura máxima	15.6
102739	7	Sololá	702	San José Chacayá	5	Chacayá	6	Junio	2023-06-20T00:00:00	2024-11-06T03:00:00	3	Temperatura mínima	15.3
102740	7	Sololá	702	San José Chacayá	5	Chacayá	6	Junio	2023-06-20T00:00:00	2024-11-06T03:00:00	5	Humedad	95
102741	7	Sololá	702	San José Chacayá	5	Chacayá	6	Junio	2023-06-20T00:00:00	2024-11-06T03:00:00	6	Velocidad del viento	0
102742	7	Sololá	702	San José Chacayá	5	Chacayá	6	Junio	2023-06-20T00:00:00	2024-11-06T03:00:00	7	Dirección del viento	0
102743	7	Sololá	702	San José Chacayá	5	Chacayá	6	Junio	2023-06-20T00:00:00	2024-11-06T03:00:00	1	Precipitación	0
102744	7	Sololá	702	San José Chacayá	5	Chacayá	6	Junio	2023-06-20T00:00:00	2024-11-06T03:00:00	8	Radiación solar	0
102745	7	Sololá	702	San José Chacayá	5	Chacayá	6	Junio	2023-06-20T00:00:00	2024-11-06T04:00:00	2	Temperatura media	15
102746	7	Sololá	702	San José Chacayá	5	Chacayá	6	Junio	2023-06-20T00:00:00	2024-11-06T04:00:00	4	Temperatura máxima	15.3
102747	7	Sololá	702	San José Chacayá	5	Chacayá	6	Junio	2023-06-20T00:00:00	2024-11-06T04:00:00	3	Temperatura mínima	15
102748	7	Sololá	702	San José Chacayá	5	Chacayá	6	Junio	2023-06-20T00:00:00	2024-11-06T04:00:00	5	Humedad	95
102749	7	Sololá	702	San José Chacayá	5	Chacayá	6	Junio	2023-06-20T00:00:00	2024-11-06T04:00:00	6	Velocidad del viento	0
102750	7	Sololá	702	San José Chacayá	5	Chacayá	6	Junio	2023-06-20T00:00:00	2024-11-06T04:00:00	7	Dirección del viento	0
102751	7	Sololá	702	San José Chacayá	5	Chacayá	6	Junio	2023-06-20T00:00:00	2024-11-06T04:00:00	1	Precipitación	0
102752	7	Sololá	702	San José Chacayá	5	Chacayá	6	Junio	2023-06-20T00:00:00	2024-11-06T04:00:00	8	Radiación solar	0
102753	7	Sololá	702	San José Chacayá	5	Chacayá	6	Junio	2023-06-20T00:00:00	2024-11-06T05:00:00	2	Temperatura media	15.2
102754	7	Sololá	702	San José Chacayá	5	Chacayá	6	Junio	2023-06-20T00:00:00	2024-11-06T05:00:00	4	Temperatura máxima	15.2
102755	7	Sololá	702	San José Chacayá	5	Chacayá	6	Junio	2023-06-20T00:00:00	2024-11-06T05:00:00	3	Temperatura mínima	15
102756	7	Sololá	702	San José Chacayá	5	Chacayá	6	Junio	2023-06-20T00:00:00	2024-11-06T05:00:00	5	Humedad	95
102757	7	Sololá	702	San José Chacayá	5	Chacayá	6	Junio	2023-06-20T00:00:00	2024-11-06T05:00:00	6	Velocidad del viento	0
102758	7	Sololá	702	San José Chacayá	5	Chacayá	6	Junio	2023-06-20T00:00:00	2024-11-06T05:00:00	7	Dirección del viento	0
102759	7	Sololá	702	San José Chacayá	5	Chacayá	6	Junio	2023-06-20T00:00:00	2024-11-06T05:00:00	1	Precipitación	0
102760	7	Sololá	702	San José Chacayá	5	Chacayá	6	Junio	2023-06-20T00:00:00	2024-11-06T05:00:00	8	Radiación solar	0
102761	7	Sololá	702	San José Chacayá	5	Chacayá	6	Junio	2023-06-20T00:00:00	2024-11-06T06:00:00	2	Temperatura media	15
102762	7	Sololá	702	San José Chacayá	5	Chacayá	6	Junio	2023-06-20T00:00:00	2024-11-06T06:00:00	4	Temperatura máxima	15.2
102763	7	Sololá	702	San José Chacayá	5	Chacayá	6	Junio	2023-06-20T00:00:00	2024-11-06T06:00:00	3	Temperatura mínima	15
102764	7	Sololá	702	San José Chacayá	5	Chacayá	6	Junio	2023-06-20T00:00:00	2024-11-06T06:00:00	5	Humedad	95
102765	7	Sololá	702	San José Chacayá	5	Chacayá	6	Junio	2023-06-20T00:00:00	2024-11-06T06:00:00	6	Velocidad del viento	0
102766	7	Sololá	702	San José Chacayá	5	Chacayá	6	Junio	2023-06-20T00:00:00	2024-11-06T06:00:00	7	Dirección del viento	0
102767	7	Sololá	702	San José Chacayá	5	Chacayá	6	Junio	2023-06-20T00:00:00	2024-11-06T06:00:00	1	Precipitación	0
102768	7	Sololá	702	San José Chacayá	5	Chacayá	6	Junio	2023-06-20T00:00:00	2024-11-06T06:00:00	8	Radiación solar	5
102769	7	Sololá	702	San José Chacayá	5	Chacayá	6	Junio	2023-06-20T00:00:00	2024-11-06T07:00:00	2	Temperatura media	15.4
102770	7	Sololá	702	San José Chacayá	5	Chacayá	6	Junio	2023-06-20T00:00:00	2024-11-06T07:00:00	4	Temperatura máxima	15.4
102771	7	Sololá	702	San José Chacayá	5	Chacayá	6	Junio	2023-06-20T00:00:00	2024-11-06T07:00:00	3	Temperatura mínima	15
102772	7	Sololá	702	San José Chacayá	5	Chacayá	6	Junio	2023-06-20T00:00:00	2024-11-06T07:00:00	5	Humedad	94
102773	7	Sololá	702	San José Chacayá	5	Chacayá	6	Junio	2023-06-20T00:00:00	2024-11-06T07:00:00	6	Velocidad del viento	0
102774	7	Sololá	702	San José Chacayá	5	Chacayá	6	Junio	2023-06-20T00:00:00	2024-11-06T07:00:00	7	Dirección del viento	0
102775	7	Sololá	702	San José Chacayá	5	Chacayá	6	Junio	2023-06-20T00:00:00	2024-11-06T07:00:00	1	Precipitación	0
102776	7	Sololá	702	San José Chacayá	5	Chacayá	6	Junio	2023-06-20T00:00:00	2024-11-06T07:00:00	8	Radiación solar	82
102777	7	Sololá	702	San José Chacayá	5	Chacayá	6	Junio	2023-06-20T00:00:00	2024-11-06T08:00:00	2	Temperatura media	17.8
102778	7	Sololá	702	San José Chacayá	5	Chacayá	6	Junio	2023-06-20T00:00:00	2024-11-06T08:00:00	4	Temperatura máxima	17.8
102779	7	Sololá	702	San José Chacayá	5	Chacayá	6	Junio	2023-06-20T00:00:00	2024-11-06T08:00:00	3	Temperatura mínima	15.4
102780	7	Sololá	702	San José Chacayá	5	Chacayá	6	Junio	2023-06-20T00:00:00	2024-11-06T08:00:00	5	Humedad	86
102781	7	Sololá	702	San José Chacayá	5	Chacayá	6	Junio	2023-06-20T00:00:00	2024-11-06T08:00:00	6	Velocidad del viento	0
102782	7	Sololá	702	San José Chacayá	5	Chacayá	6	Junio	2023-06-20T00:00:00	2024-11-06T08:00:00	7	Dirección del viento	0
102783	7	Sololá	702	San José Chacayá	5	Chacayá	6	Junio	2023-06-20T00:00:00	2024-11-06T08:00:00	1	Precipitación	0.2
102784	7	Sololá	702	San José Chacayá	5	Chacayá	6	Junio	2023-06-20T00:00:00	2024-11-06T08:00:00	8	Radiación solar	193
102785	7	Sololá	702	San José Chacayá	5	Chacayá	6	Junio	2023-06-20T00:00:00	2024-11-06T09:00:00	2	Temperatura media	21.4
102786	7	Sololá	702	San José Chacayá	5	Chacayá	6	Junio	2023-06-20T00:00:00	2024-11-06T09:00:00	4	Temperatura máxima	21.4
102787	7	Sololá	702	San José Chacayá	5	Chacayá	6	Junio	2023-06-20T00:00:00	2024-11-06T09:00:00	3	Temperatura mínima	17.8
102788	7	Sololá	702	San José Chacayá	5	Chacayá	6	Junio	2023-06-20T00:00:00	2024-11-06T09:00:00	5	Humedad	75
102789	7	Sololá	702	San José Chacayá	5	Chacayá	6	Junio	2023-06-20T00:00:00	2024-11-06T09:00:00	6	Velocidad del viento	1.6
102790	7	Sololá	702	San José Chacayá	5	Chacayá	6	Junio	2023-06-20T00:00:00	2024-11-06T09:00:00	7	Dirección del viento	1.61
102791	7	Sololá	702	San José Chacayá	5	Chacayá	6	Junio	2023-06-20T00:00:00	2024-11-06T09:00:00	1	Precipitación	0
102792	7	Sololá	702	San José Chacayá	5	Chacayá	6	Junio	2023-06-20T00:00:00	2024-11-06T09:00:00	8	Radiación solar	323
102793	7	Sololá	702	San José Chacayá	5	Chacayá	6	Junio	2023-06-20T00:00:00	2024-11-06T10:00:00	2	Temperatura media	19.9
102794	7	Sololá	702	San José Chacayá	5	Chacayá	6	Junio	2023-06-20T00:00:00	2024-11-06T10:00:00	4	Temperatura máxima	22.3
102795	7	Sololá	702	San José Chacayá	5	Chacayá	6	Junio	2023-06-20T00:00:00	2024-11-06T10:00:00	3	Temperatura mínima	19.9
102796	7	Sololá	702	San José Chacayá	5	Chacayá	6	Junio	2023-06-20T00:00:00	2024-11-06T10:00:00	5	Humedad	75
102797	7	Sololá	702	San José Chacayá	5	Chacayá	6	Junio	2023-06-20T00:00:00	2024-11-06T10:00:00	6	Velocidad del viento	4.8
102798	7	Sololá	702	San José Chacayá	5	Chacayá	6	Junio	2023-06-20T00:00:00	2024-11-06T10:00:00	7	Dirección del viento	4.83
102799	7	Sololá	702	San José Chacayá	5	Chacayá	6	Junio	2023-06-20T00:00:00	2024-11-06T10:00:00	1	Precipitación	0
102800	7	Sololá	702	San José Chacayá	5	Chacayá	6	Junio	2023-06-20T00:00:00	2024-11-06T10:00:00	8	Radiación solar	510
102801	7	Sololá	702	San José Chacayá	5	Chacayá	6	Junio	2023-06-20T00:00:00	2024-11-06T11:00:00	2	Temperatura media	20.2
102802	7	Sololá	702	San José Chacayá	5	Chacayá	6	Junio	2023-06-20T00:00:00	2024-11-06T11:00:00	4	Temperatura máxima	20.2
102803	7	Sololá	702	San José Chacayá	5	Chacayá	6	Junio	2023-06-20T00:00:00	2024-11-06T11:00:00	3	Temperatura mínima	19.3
102804	7	Sololá	702	San José Chacayá	5	Chacayá	6	Junio	2023-06-20T00:00:00	2024-11-06T11:00:00	5	Humedad	80
102805	7	Sololá	702	San José Chacayá	5	Chacayá	6	Junio	2023-06-20T00:00:00	2024-11-06T11:00:00	6	Velocidad del viento	1.6
102806	7	Sololá	702	San José Chacayá	5	Chacayá	6	Junio	2023-06-20T00:00:00	2024-11-06T11:00:00	7	Dirección del viento	1.61
102807	7	Sololá	702	San José Chacayá	5	Chacayá	6	Junio	2023-06-20T00:00:00	2024-11-06T11:00:00	1	Precipitación	0
102808	7	Sololá	702	San José Chacayá	5	Chacayá	6	Junio	2023-06-20T00:00:00	2024-11-06T11:00:00	8	Radiación solar	491
102809	7	Sololá	702	San José Chacayá	5	Chacayá	6	Junio	2023-06-20T00:00:00	2024-11-06T12:00:00	2	Temperatura media	21.4
102810	7	Sololá	702	San José Chacayá	5	Chacayá	6	Junio	2023-06-20T00:00:00	2024-11-06T12:00:00	4	Temperatura máxima	21.6
102811	7	Sololá	702	San José Chacayá	5	Chacayá	6	Junio	2023-06-20T00:00:00	2024-11-06T12:00:00	3	Temperatura mínima	19.8
102812	7	Sololá	702	San José Chacayá	5	Chacayá	6	Junio	2023-06-20T00:00:00	2024-11-06T12:00:00	5	Humedad	76
102813	7	Sololá	702	San José Chacayá	5	Chacayá	6	Junio	2023-06-20T00:00:00	2024-11-06T12:00:00	6	Velocidad del viento	4.8
102814	7	Sololá	702	San José Chacayá	5	Chacayá	6	Junio	2023-06-20T00:00:00	2024-11-06T12:00:00	7	Dirección del viento	4.83
102815	7	Sololá	702	San José Chacayá	5	Chacayá	6	Junio	2023-06-20T00:00:00	2024-11-06T12:00:00	1	Precipitación	0
102816	7	Sololá	702	San José Chacayá	5	Chacayá	6	Junio	2023-06-20T00:00:00	2024-11-06T12:00:00	8	Radiación solar	729
102817	7	Sololá	702	San José Chacayá	5	Chacayá	6	Junio	2023-06-20T00:00:00	2024-11-06T13:00:00	2	Temperatura media	19.2
102818	7	Sololá	702	San José Chacayá	5	Chacayá	6	Junio	2023-06-20T00:00:00	2024-11-06T13:00:00	4	Temperatura máxima	21.4
102819	7	Sololá	702	San José Chacayá	5	Chacayá	6	Junio	2023-06-20T00:00:00	2024-11-06T13:00:00	3	Temperatura mínima	18.8
102820	7	Sololá	702	San José Chacayá	5	Chacayá	6	Junio	2023-06-20T00:00:00	2024-11-06T13:00:00	5	Humedad	87
102821	7	Sololá	702	San José Chacayá	5	Chacayá	6	Junio	2023-06-20T00:00:00	2024-11-06T13:00:00	6	Velocidad del viento	4.8
102822	7	Sololá	702	San José Chacayá	5	Chacayá	6	Junio	2023-06-20T00:00:00	2024-11-06T13:00:00	7	Dirección del viento	4.83
102823	7	Sololá	702	San José Chacayá	5	Chacayá	6	Junio	2023-06-20T00:00:00	2024-11-06T13:00:00	1	Precipitación	0
102824	7	Sololá	702	San José Chacayá	5	Chacayá	6	Junio	2023-06-20T00:00:00	2024-11-06T13:00:00	8	Radiación solar	709
102825	7	Sololá	702	San José Chacayá	5	Chacayá	6	Junio	2023-06-20T00:00:00	2024-11-06T14:00:00	2	Temperatura media	20.6
102826	7	Sololá	702	San José Chacayá	5	Chacayá	6	Junio	2023-06-20T00:00:00	2024-11-06T14:00:00	4	Temperatura máxima	21.2
102827	7	Sololá	702	San José Chacayá	5	Chacayá	6	Junio	2023-06-20T00:00:00	2024-11-06T14:00:00	3	Temperatura mínima	18.7
102828	7	Sololá	702	San José Chacayá	5	Chacayá	6	Junio	2023-06-20T00:00:00	2024-11-06T14:00:00	5	Humedad	80
102829	7	Sololá	702	San José Chacayá	5	Chacayá	6	Junio	2023-06-20T00:00:00	2024-11-06T14:00:00	6	Velocidad del viento	4.8
102830	7	Sololá	702	San José Chacayá	5	Chacayá	6	Junio	2023-06-20T00:00:00	2024-11-06T14:00:00	7	Dirección del viento	4.83
102831	7	Sololá	702	San José Chacayá	5	Chacayá	6	Junio	2023-06-20T00:00:00	2024-11-06T14:00:00	1	Precipitación	0
102832	7	Sololá	702	San José Chacayá	5	Chacayá	6	Junio	2023-06-20T00:00:00	2024-11-06T14:00:00	8	Radiación solar	711
102833	7	Sololá	702	San José Chacayá	5	Chacayá	6	Junio	2023-06-20T00:00:00	2024-11-06T15:00:00	2	Temperatura media	20.1
102834	7	Sololá	702	San José Chacayá	5	Chacayá	6	Junio	2023-06-20T00:00:00	2024-11-06T15:00:00	4	Temperatura máxima	20.9
102835	7	Sololá	702	San José Chacayá	5	Chacayá	6	Junio	2023-06-20T00:00:00	2024-11-06T15:00:00	3	Temperatura mínima	19.9
102836	7	Sololá	702	San José Chacayá	5	Chacayá	6	Junio	2023-06-20T00:00:00	2024-11-06T15:00:00	5	Humedad	80
102837	7	Sololá	702	San José Chacayá	5	Chacayá	6	Junio	2023-06-20T00:00:00	2024-11-06T15:00:00	6	Velocidad del viento	3.2
102838	7	Sololá	702	San José Chacayá	5	Chacayá	6	Junio	2023-06-20T00:00:00	2024-11-06T15:00:00	7	Dirección del viento	3.22
102839	7	Sololá	702	San José Chacayá	5	Chacayá	6	Junio	2023-06-20T00:00:00	2024-11-06T15:00:00	1	Precipitación	0
102840	7	Sololá	702	San José Chacayá	5	Chacayá	6	Junio	2023-06-20T00:00:00	2024-11-06T15:00:00	8	Radiación solar	258
102841	7	Sololá	702	San José Chacayá	5	Chacayá	6	Junio	2023-06-20T00:00:00	2024-11-06T16:00:00	2	Temperatura media	18.5
102842	7	Sololá	702	San José Chacayá	5	Chacayá	6	Junio	2023-06-20T00:00:00	2024-11-06T16:00:00	4	Temperatura máxima	20.1
102843	7	Sololá	702	San José Chacayá	5	Chacayá	6	Junio	2023-06-20T00:00:00	2024-11-06T16:00:00	3	Temperatura mínima	18.5
102844	7	Sololá	702	San José Chacayá	5	Chacayá	6	Junio	2023-06-20T00:00:00	2024-11-06T16:00:00	5	Humedad	86
102845	7	Sololá	702	San José Chacayá	5	Chacayá	6	Junio	2023-06-20T00:00:00	2024-11-06T16:00:00	6	Velocidad del viento	3.2
102846	7	Sololá	702	San José Chacayá	5	Chacayá	6	Junio	2023-06-20T00:00:00	2024-11-06T16:00:00	7	Dirección del viento	3.22
102847	7	Sololá	702	San José Chacayá	5	Chacayá	6	Junio	2023-06-20T00:00:00	2024-11-06T16:00:00	1	Precipitación	0
102848	7	Sololá	702	San José Chacayá	5	Chacayá	6	Junio	2023-06-20T00:00:00	2024-11-06T16:00:00	8	Radiación solar	173
102849	7	Sololá	702	San José Chacayá	5	Chacayá	6	Junio	2023-06-20T00:00:00	2024-11-06T17:00:00	2	Temperatura media	17.6
102850	7	Sololá	702	San José Chacayá	5	Chacayá	6	Junio	2023-06-20T00:00:00	2024-11-06T17:00:00	4	Temperatura máxima	18.6
102851	7	Sololá	702	San José Chacayá	5	Chacayá	6	Junio	2023-06-20T00:00:00	2024-11-06T17:00:00	3	Temperatura mínima	17.6
102852	7	Sololá	702	San José Chacayá	5	Chacayá	6	Junio	2023-06-20T00:00:00	2024-11-06T17:00:00	5	Humedad	90
102853	7	Sololá	702	San José Chacayá	5	Chacayá	6	Junio	2023-06-20T00:00:00	2024-11-06T17:00:00	6	Velocidad del viento	1.6
102854	7	Sololá	702	San José Chacayá	5	Chacayá	6	Junio	2023-06-20T00:00:00	2024-11-06T17:00:00	7	Dirección del viento	1.61
102855	7	Sololá	702	San José Chacayá	5	Chacayá	6	Junio	2023-06-20T00:00:00	2024-11-06T17:00:00	1	Precipitación	0
102856	7	Sololá	702	San José Chacayá	5	Chacayá	6	Junio	2023-06-20T00:00:00	2024-11-06T17:00:00	8	Radiación solar	156
102857	7	Sololá	702	San José Chacayá	5	Chacayá	6	Junio	2023-06-20T00:00:00	2024-11-06T18:00:00	2	Temperatura media	14.7
102858	7	Sololá	702	San José Chacayá	5	Chacayá	6	Junio	2023-06-20T00:00:00	2024-11-06T18:00:00	4	Temperatura máxima	17.6
102859	7	Sololá	702	San José Chacayá	5	Chacayá	6	Junio	2023-06-20T00:00:00	2024-11-06T18:00:00	3	Temperatura mínima	14.7
102860	7	Sololá	702	San José Chacayá	5	Chacayá	6	Junio	2023-06-20T00:00:00	2024-11-06T18:00:00	5	Humedad	93
102861	7	Sololá	702	San José Chacayá	5	Chacayá	6	Junio	2023-06-20T00:00:00	2024-11-06T18:00:00	6	Velocidad del viento	9.7
102862	7	Sololá	702	San José Chacayá	5	Chacayá	6	Junio	2023-06-20T00:00:00	2024-11-06T18:00:00	7	Dirección del viento	9.66
102863	7	Sololá	702	San José Chacayá	5	Chacayá	6	Junio	2023-06-20T00:00:00	2024-11-06T18:00:00	1	Precipitación	0.2
102864	7	Sololá	702	San José Chacayá	5	Chacayá	6	Junio	2023-06-20T00:00:00	2024-11-06T18:00:00	8	Radiación solar	21
102865	7	Sololá	702	San José Chacayá	5	Chacayá	6	Junio	2023-06-20T00:00:00	2024-11-06T19:00:00	2	Temperatura media	14.6
102866	7	Sololá	702	San José Chacayá	5	Chacayá	6	Junio	2023-06-20T00:00:00	2024-11-06T19:00:00	4	Temperatura máxima	14.9
102867	7	Sololá	702	San José Chacayá	5	Chacayá	6	Junio	2023-06-20T00:00:00	2024-11-06T19:00:00	3	Temperatura mínima	14.5
102868	7	Sololá	702	San José Chacayá	5	Chacayá	6	Junio	2023-06-20T00:00:00	2024-11-06T19:00:00	5	Humedad	94
102869	7	Sololá	702	San José Chacayá	5	Chacayá	6	Junio	2023-06-20T00:00:00	2024-11-06T19:00:00	6	Velocidad del viento	3.2
102870	7	Sololá	702	San José Chacayá	5	Chacayá	6	Junio	2023-06-20T00:00:00	2024-11-06T19:00:00	7	Dirección del viento	3.22
102871	7	Sololá	702	San José Chacayá	5	Chacayá	6	Junio	2023-06-20T00:00:00	2024-11-06T19:00:00	1	Precipitación	4.6
102872	7	Sololá	702	San José Chacayá	5	Chacayá	6	Junio	2023-06-20T00:00:00	2024-11-06T19:00:00	8	Radiación solar	0
102873	7	Sololá	702	San José Chacayá	5	Chacayá	6	Junio	2023-06-20T00:00:00	2024-11-06T20:00:00	2	Temperatura media	14.4
102874	7	Sololá	702	San José Chacayá	5	Chacayá	6	Junio	2023-06-20T00:00:00	2024-11-06T20:00:00	4	Temperatura máxima	14.7
102875	7	Sololá	702	San José Chacayá	5	Chacayá	6	Junio	2023-06-20T00:00:00	2024-11-06T20:00:00	3	Temperatura mínima	14.4
102876	7	Sololá	702	San José Chacayá	5	Chacayá	6	Junio	2023-06-20T00:00:00	2024-11-06T20:00:00	5	Humedad	94
102877	7	Sololá	702	San José Chacayá	5	Chacayá	6	Junio	2023-06-20T00:00:00	2024-11-06T20:00:00	6	Velocidad del viento	0
102878	7	Sololá	702	San José Chacayá	5	Chacayá	6	Junio	2023-06-20T00:00:00	2024-11-06T20:00:00	7	Dirección del viento	0
102879	7	Sololá	702	San José Chacayá	5	Chacayá	6	Junio	2023-06-20T00:00:00	2024-11-06T20:00:00	1	Precipitación	2.2
102880	7	Sololá	702	San José Chacayá	5	Chacayá	6	Junio	2023-06-20T00:00:00	2024-11-06T20:00:00	8	Radiación solar	0
102881	7	Sololá	702	San José Chacayá	5	Chacayá	6	Junio	2023-06-20T00:00:00	2024-11-06T21:00:00	2	Temperatura media	14.5
102882	7	Sololá	702	San José Chacayá	5	Chacayá	6	Junio	2023-06-20T00:00:00	2024-11-06T21:00:00	4	Temperatura máxima	14.5
102883	7	Sololá	702	San José Chacayá	5	Chacayá	6	Junio	2023-06-20T00:00:00	2024-11-06T21:00:00	3	Temperatura mínima	14.3
102884	7	Sololá	702	San José Chacayá	5	Chacayá	6	Junio	2023-06-20T00:00:00	2024-11-06T21:00:00	5	Humedad	95
102885	7	Sololá	702	San José Chacayá	5	Chacayá	6	Junio	2023-06-20T00:00:00	2024-11-06T21:00:00	6	Velocidad del viento	0
102886	7	Sololá	702	San José Chacayá	5	Chacayá	6	Junio	2023-06-20T00:00:00	2024-11-06T21:00:00	7	Dirección del viento	0
102887	7	Sololá	702	San José Chacayá	5	Chacayá	6	Junio	2023-06-20T00:00:00	2024-11-06T21:00:00	1	Precipitación	2.2
102888	7	Sololá	702	San José Chacayá	5	Chacayá	6	Junio	2023-06-20T00:00:00	2024-11-06T21:00:00	8	Radiación solar	0
102889	7	Sololá	702	San José Chacayá	5	Chacayá	6	Junio	2023-06-20T00:00:00	2024-11-06T22:00:00	2	Temperatura media	14.1
102890	7	Sololá	702	San José Chacayá	5	Chacayá	6	Junio	2023-06-20T00:00:00	2024-11-06T22:00:00	4	Temperatura máxima	14.5
102891	7	Sololá	702	San José Chacayá	5	Chacayá	6	Junio	2023-06-20T00:00:00	2024-11-06T22:00:00	3	Temperatura mínima	14.1
102892	7	Sololá	702	San José Chacayá	5	Chacayá	6	Junio	2023-06-20T00:00:00	2024-11-06T22:00:00	5	Humedad	94
102893	7	Sololá	702	San José Chacayá	5	Chacayá	6	Junio	2023-06-20T00:00:00	2024-11-06T22:00:00	6	Velocidad del viento	0
102894	7	Sololá	702	San José Chacayá	5	Chacayá	6	Junio	2023-06-20T00:00:00	2024-11-06T22:00:00	7	Dirección del viento	0
102895	7	Sololá	702	San José Chacayá	5	Chacayá	6	Junio	2023-06-20T00:00:00	2024-11-06T22:00:00	1	Precipitación	1.6
102896	7	Sololá	702	San José Chacayá	5	Chacayá	6	Junio	2023-06-20T00:00:00	2024-11-06T22:00:00	8	Radiación solar	0
102897	7	Sololá	702	San José Chacayá	5	Chacayá	6	Junio	2023-06-20T00:00:00	2024-11-06T23:00:00	2	Temperatura media	14.3
102898	7	Sololá	702	San José Chacayá	5	Chacayá	6	Junio	2023-06-20T00:00:00	2024-11-06T23:00:00	4	Temperatura máxima	14.3
102899	7	Sololá	702	San José Chacayá	5	Chacayá	6	Junio	2023-06-20T00:00:00	2024-11-06T23:00:00	3	Temperatura mínima	14.1
102900	7	Sololá	702	San José Chacayá	5	Chacayá	6	Junio	2023-06-20T00:00:00	2024-11-06T23:00:00	5	Humedad	95
102901	7	Sololá	702	San José Chacayá	5	Chacayá	6	Junio	2023-06-20T00:00:00	2024-11-06T23:00:00	6	Velocidad del viento	0
102902	7	Sololá	702	San José Chacayá	5	Chacayá	6	Junio	2023-06-20T00:00:00	2024-11-06T23:00:00	7	Dirección del viento	0
102903	7	Sololá	702	San José Chacayá	5	Chacayá	6	Junio	2023-06-20T00:00:00	2024-11-06T23:00:00	1	Precipitación	3.2
102904	7	Sololá	702	San José Chacayá	5	Chacayá	6	Junio	2023-06-20T00:00:00	2024-11-06T23:00:00	8	Radiación solar	0
102905	7	Sololá	702	San José Chacayá	5	Chacayá	6	Junio	2023-06-21T00:00:00	2024-11-06T00:00:00	2	Temperatura media	14.1
102906	7	Sololá	702	San José Chacayá	5	Chacayá	6	Junio	2023-06-21T00:00:00	2024-11-06T00:00:00	4	Temperatura máxima	14.3
102907	7	Sololá	702	San José Chacayá	5	Chacayá	6	Junio	2023-06-21T00:00:00	2024-11-06T00:00:00	3	Temperatura mínima	14.1
102908	7	Sololá	702	San José Chacayá	5	Chacayá	6	Junio	2023-06-21T00:00:00	2024-11-06T00:00:00	5	Humedad	95
102909	7	Sololá	702	San José Chacayá	5	Chacayá	6	Junio	2023-06-21T00:00:00	2024-11-06T00:00:00	6	Velocidad del viento	0
102910	7	Sololá	702	San José Chacayá	5	Chacayá	6	Junio	2023-06-21T00:00:00	2024-11-06T00:00:00	7	Dirección del viento	0
102911	7	Sololá	702	San José Chacayá	5	Chacayá	6	Junio	2023-06-21T00:00:00	2024-11-06T00:00:00	1	Precipitación	0.2
102912	7	Sololá	702	San José Chacayá	5	Chacayá	6	Junio	2023-06-21T00:00:00	2024-11-06T00:00:00	8	Radiación solar	0
102913	7	Sololá	702	San José Chacayá	5	Chacayá	6	Junio	2023-06-21T00:00:00	2024-11-06T01:00:00	2	Temperatura media	14.1
102914	7	Sololá	702	San José Chacayá	5	Chacayá	6	Junio	2023-06-21T00:00:00	2024-11-06T01:00:00	4	Temperatura máxima	14.2
102915	7	Sololá	702	San José Chacayá	5	Chacayá	6	Junio	2023-06-21T00:00:00	2024-11-06T01:00:00	3	Temperatura mínima	14.1
102916	7	Sololá	702	San José Chacayá	5	Chacayá	6	Junio	2023-06-21T00:00:00	2024-11-06T01:00:00	5	Humedad	95
102917	7	Sololá	702	San José Chacayá	5	Chacayá	6	Junio	2023-06-21T00:00:00	2024-11-06T01:00:00	6	Velocidad del viento	0
102918	7	Sololá	702	San José Chacayá	5	Chacayá	6	Junio	2023-06-21T00:00:00	2024-11-06T01:00:00	7	Dirección del viento	0
102919	7	Sololá	702	San José Chacayá	5	Chacayá	6	Junio	2023-06-21T00:00:00	2024-11-06T01:00:00	1	Precipitación	0.8
102920	7	Sololá	702	San José Chacayá	5	Chacayá	6	Junio	2023-06-21T00:00:00	2024-11-06T01:00:00	8	Radiación solar	0
102921	7	Sololá	702	San José Chacayá	5	Chacayá	6	Junio	2023-06-21T00:00:00	2024-11-06T02:00:00	2	Temperatura media	14
102922	7	Sololá	702	San José Chacayá	5	Chacayá	6	Junio	2023-06-21T00:00:00	2024-11-06T02:00:00	4	Temperatura máxima	14.2
102923	7	Sololá	702	San José Chacayá	5	Chacayá	6	Junio	2023-06-21T00:00:00	2024-11-06T02:00:00	3	Temperatura mínima	14
102924	7	Sololá	702	San José Chacayá	5	Chacayá	6	Junio	2023-06-21T00:00:00	2024-11-06T02:00:00	5	Humedad	95
102925	7	Sololá	702	San José Chacayá	5	Chacayá	6	Junio	2023-06-21T00:00:00	2024-11-06T02:00:00	6	Velocidad del viento	0
102926	7	Sololá	702	San José Chacayá	5	Chacayá	6	Junio	2023-06-21T00:00:00	2024-11-06T02:00:00	7	Dirección del viento	0
102927	7	Sololá	702	San José Chacayá	5	Chacayá	6	Junio	2023-06-21T00:00:00	2024-11-06T02:00:00	1	Precipitación	1.6
102928	7	Sololá	702	San José Chacayá	5	Chacayá	6	Junio	2023-06-21T00:00:00	2024-11-06T02:00:00	8	Radiación solar	0
102929	7	Sololá	702	San José Chacayá	5	Chacayá	6	Junio	2023-06-21T00:00:00	2024-11-06T03:00:00	2	Temperatura media	13.8
102930	7	Sololá	702	San José Chacayá	5	Chacayá	6	Junio	2023-06-21T00:00:00	2024-11-06T03:00:00	4	Temperatura máxima	14
102931	7	Sololá	702	San José Chacayá	5	Chacayá	6	Junio	2023-06-21T00:00:00	2024-11-06T03:00:00	3	Temperatura mínima	13.8
102932	7	Sololá	702	San José Chacayá	5	Chacayá	6	Junio	2023-06-21T00:00:00	2024-11-06T03:00:00	5	Humedad	95
102933	7	Sololá	702	San José Chacayá	5	Chacayá	6	Junio	2023-06-21T00:00:00	2024-11-06T03:00:00	6	Velocidad del viento	0
102934	7	Sololá	702	San José Chacayá	5	Chacayá	6	Junio	2023-06-21T00:00:00	2024-11-06T03:00:00	7	Dirección del viento	0
102935	7	Sololá	702	San José Chacayá	5	Chacayá	6	Junio	2023-06-21T00:00:00	2024-11-06T03:00:00	1	Precipitación	0.2
102936	7	Sololá	702	San José Chacayá	5	Chacayá	6	Junio	2023-06-21T00:00:00	2024-11-06T03:00:00	8	Radiación solar	0
102937	7	Sololá	702	San José Chacayá	5	Chacayá	6	Junio	2023-06-21T00:00:00	2024-11-06T04:00:00	2	Temperatura media	13.4
102938	7	Sololá	702	San José Chacayá	5	Chacayá	6	Junio	2023-06-21T00:00:00	2024-11-06T04:00:00	4	Temperatura máxima	13.8
102939	7	Sololá	702	San José Chacayá	5	Chacayá	6	Junio	2023-06-21T00:00:00	2024-11-06T04:00:00	3	Temperatura mínima	13.4
102940	7	Sololá	702	San José Chacayá	5	Chacayá	6	Junio	2023-06-21T00:00:00	2024-11-06T04:00:00	5	Humedad	95
102941	7	Sololá	702	San José Chacayá	5	Chacayá	6	Junio	2023-06-21T00:00:00	2024-11-06T04:00:00	6	Velocidad del viento	0
102942	7	Sololá	702	San José Chacayá	5	Chacayá	6	Junio	2023-06-21T00:00:00	2024-11-06T04:00:00	7	Dirección del viento	0
102943	7	Sololá	702	San José Chacayá	5	Chacayá	6	Junio	2023-06-21T00:00:00	2024-11-06T04:00:00	1	Precipitación	0
102944	7	Sololá	702	San José Chacayá	5	Chacayá	6	Junio	2023-06-21T00:00:00	2024-11-06T04:00:00	8	Radiación solar	0
102945	7	Sololá	702	San José Chacayá	5	Chacayá	6	Junio	2023-06-21T00:00:00	2024-11-06T05:00:00	2	Temperatura media	13.1
102946	7	Sololá	702	San José Chacayá	5	Chacayá	6	Junio	2023-06-21T00:00:00	2024-11-06T05:00:00	4	Temperatura máxima	13.4
102947	7	Sololá	702	San José Chacayá	5	Chacayá	6	Junio	2023-06-21T00:00:00	2024-11-06T05:00:00	3	Temperatura mínima	13.1
102948	7	Sololá	702	San José Chacayá	5	Chacayá	6	Junio	2023-06-21T00:00:00	2024-11-06T05:00:00	5	Humedad	95
102949	7	Sololá	702	San José Chacayá	5	Chacayá	6	Junio	2023-06-21T00:00:00	2024-11-06T05:00:00	6	Velocidad del viento	0
102950	7	Sololá	702	San José Chacayá	5	Chacayá	6	Junio	2023-06-21T00:00:00	2024-11-06T05:00:00	7	Dirección del viento	0
102951	7	Sololá	702	San José Chacayá	5	Chacayá	6	Junio	2023-06-21T00:00:00	2024-11-06T05:00:00	1	Precipitación	0
102952	7	Sololá	702	San José Chacayá	5	Chacayá	6	Junio	2023-06-21T00:00:00	2024-11-06T05:00:00	8	Radiación solar	0
102953	7	Sololá	702	San José Chacayá	5	Chacayá	6	Junio	2023-06-21T00:00:00	2024-11-06T06:00:00	2	Temperatura media	12.7
102954	7	Sololá	702	San José Chacayá	5	Chacayá	6	Junio	2023-06-21T00:00:00	2024-11-06T06:00:00	4	Temperatura máxima	13.1
102955	7	Sololá	702	San José Chacayá	5	Chacayá	6	Junio	2023-06-21T00:00:00	2024-11-06T06:00:00	3	Temperatura mínima	12.7
102956	7	Sololá	702	San José Chacayá	5	Chacayá	6	Junio	2023-06-21T00:00:00	2024-11-06T06:00:00	5	Humedad	95
102957	7	Sololá	702	San José Chacayá	5	Chacayá	6	Junio	2023-06-21T00:00:00	2024-11-06T06:00:00	6	Velocidad del viento	0
102958	7	Sololá	702	San José Chacayá	5	Chacayá	6	Junio	2023-06-21T00:00:00	2024-11-06T06:00:00	7	Dirección del viento	0
102959	7	Sololá	702	San José Chacayá	5	Chacayá	6	Junio	2023-06-21T00:00:00	2024-11-06T06:00:00	1	Precipitación	0
102960	7	Sololá	702	San José Chacayá	5	Chacayá	6	Junio	2023-06-21T00:00:00	2024-11-06T06:00:00	8	Radiación solar	4
102961	7	Sololá	702	San José Chacayá	5	Chacayá	6	Junio	2023-06-21T00:00:00	2024-11-06T07:00:00	2	Temperatura media	13.2
102962	7	Sololá	702	San José Chacayá	5	Chacayá	6	Junio	2023-06-21T00:00:00	2024-11-06T07:00:00	4	Temperatura máxima	13.2
102963	7	Sololá	702	San José Chacayá	5	Chacayá	6	Junio	2023-06-21T00:00:00	2024-11-06T07:00:00	3	Temperatura mínima	12.6
102964	7	Sololá	702	San José Chacayá	5	Chacayá	6	Junio	2023-06-21T00:00:00	2024-11-06T07:00:00	5	Humedad	96
102965	7	Sololá	702	San José Chacayá	5	Chacayá	6	Junio	2023-06-21T00:00:00	2024-11-06T07:00:00	6	Velocidad del viento	0
102966	7	Sololá	702	San José Chacayá	5	Chacayá	6	Junio	2023-06-21T00:00:00	2024-11-06T07:00:00	7	Dirección del viento	0
102967	7	Sololá	702	San José Chacayá	5	Chacayá	6	Junio	2023-06-21T00:00:00	2024-11-06T07:00:00	1	Precipitación	0
102968	7	Sololá	702	San José Chacayá	5	Chacayá	6	Junio	2023-06-21T00:00:00	2024-11-06T07:00:00	8	Radiación solar	66
102969	7	Sololá	702	San José Chacayá	5	Chacayá	6	Junio	2023-06-21T00:00:00	2024-11-06T08:00:00	2	Temperatura media	15.1
102970	7	Sololá	702	San José Chacayá	5	Chacayá	6	Junio	2023-06-21T00:00:00	2024-11-06T08:00:00	4	Temperatura máxima	15.1
102971	7	Sololá	702	San José Chacayá	5	Chacayá	6	Junio	2023-06-21T00:00:00	2024-11-06T08:00:00	3	Temperatura mínima	13.2
102972	7	Sololá	702	San José Chacayá	5	Chacayá	6	Junio	2023-06-21T00:00:00	2024-11-06T08:00:00	5	Humedad	94
102973	7	Sololá	702	San José Chacayá	5	Chacayá	6	Junio	2023-06-21T00:00:00	2024-11-06T08:00:00	6	Velocidad del viento	1.6
102974	7	Sololá	702	San José Chacayá	5	Chacayá	6	Junio	2023-06-21T00:00:00	2024-11-06T08:00:00	7	Dirección del viento	1.61
102975	7	Sololá	702	San José Chacayá	5	Chacayá	6	Junio	2023-06-21T00:00:00	2024-11-06T08:00:00	1	Precipitación	0
102976	7	Sololá	702	San José Chacayá	5	Chacayá	6	Junio	2023-06-21T00:00:00	2024-11-06T08:00:00	8	Radiación solar	205
102977	7	Sololá	702	San José Chacayá	5	Chacayá	6	Junio	2023-06-21T00:00:00	2024-11-06T09:00:00	2	Temperatura media	18.1
102978	7	Sololá	702	San José Chacayá	5	Chacayá	6	Junio	2023-06-21T00:00:00	2024-11-06T09:00:00	4	Temperatura máxima	18.1
102979	7	Sololá	702	San José Chacayá	5	Chacayá	6	Junio	2023-06-21T00:00:00	2024-11-06T09:00:00	3	Temperatura mínima	15.1
102980	7	Sololá	702	San José Chacayá	5	Chacayá	6	Junio	2023-06-21T00:00:00	2024-11-06T09:00:00	5	Humedad	83
102981	7	Sololá	702	San José Chacayá	5	Chacayá	6	Junio	2023-06-21T00:00:00	2024-11-06T09:00:00	6	Velocidad del viento	1.6
102982	7	Sololá	702	San José Chacayá	5	Chacayá	6	Junio	2023-06-21T00:00:00	2024-11-06T09:00:00	7	Dirección del viento	1.61
102983	7	Sololá	702	San José Chacayá	5	Chacayá	6	Junio	2023-06-21T00:00:00	2024-11-06T09:00:00	1	Precipitación	0
102984	7	Sololá	702	San José Chacayá	5	Chacayá	6	Junio	2023-06-21T00:00:00	2024-11-06T09:00:00	8	Radiación solar	487
102985	7	Sololá	702	San José Chacayá	5	Chacayá	6	Junio	2023-06-21T00:00:00	2024-11-06T10:00:00	2	Temperatura media	18.2
102986	7	Sololá	702	San José Chacayá	5	Chacayá	6	Junio	2023-06-21T00:00:00	2024-11-06T10:00:00	4	Temperatura máxima	20.3
102987	7	Sololá	702	San José Chacayá	5	Chacayá	6	Junio	2023-06-21T00:00:00	2024-11-06T10:00:00	3	Temperatura mínima	18.1
102988	7	Sololá	702	San José Chacayá	5	Chacayá	6	Junio	2023-06-21T00:00:00	2024-11-06T10:00:00	5	Humedad	78
102989	7	Sololá	702	San José Chacayá	5	Chacayá	6	Junio	2023-06-21T00:00:00	2024-11-06T10:00:00	6	Velocidad del viento	4.8
102990	7	Sololá	702	San José Chacayá	5	Chacayá	6	Junio	2023-06-21T00:00:00	2024-11-06T10:00:00	7	Dirección del viento	4.83
102991	7	Sololá	702	San José Chacayá	5	Chacayá	6	Junio	2023-06-21T00:00:00	2024-11-06T10:00:00	1	Precipitación	0
102992	7	Sololá	702	San José Chacayá	5	Chacayá	6	Junio	2023-06-21T00:00:00	2024-11-06T10:00:00	8	Radiación solar	661
102993	7	Sololá	702	San José Chacayá	5	Chacayá	6	Junio	2023-06-21T00:00:00	2024-11-06T11:00:00	2	Temperatura media	20.2
102994	7	Sololá	702	San José Chacayá	5	Chacayá	6	Junio	2023-06-21T00:00:00	2024-11-06T11:00:00	4	Temperatura máxima	20.2
102995	7	Sololá	702	San José Chacayá	5	Chacayá	6	Junio	2023-06-21T00:00:00	2024-11-06T11:00:00	3	Temperatura mínima	18.2
102996	7	Sololá	702	San José Chacayá	5	Chacayá	6	Junio	2023-06-21T00:00:00	2024-11-06T11:00:00	5	Humedad	75
102997	7	Sololá	702	San José Chacayá	5	Chacayá	6	Junio	2023-06-21T00:00:00	2024-11-06T11:00:00	6	Velocidad del viento	3.2
102998	7	Sololá	702	San José Chacayá	5	Chacayá	6	Junio	2023-06-21T00:00:00	2024-11-06T11:00:00	7	Dirección del viento	3.22
102999	7	Sololá	702	San José Chacayá	5	Chacayá	6	Junio	2023-06-21T00:00:00	2024-11-06T11:00:00	1	Precipitación	0
103000	7	Sololá	702	San José Chacayá	5	Chacayá	6	Junio	2023-06-21T00:00:00	2024-11-06T11:00:00	8	Radiación solar	715
103001	7	Sololá	702	San José Chacayá	5	Chacayá	6	Junio	2023-06-21T00:00:00	2024-11-06T12:00:00	2	Temperatura media	21.3
103002	7	Sololá	702	San José Chacayá	5	Chacayá	6	Junio	2023-06-21T00:00:00	2024-11-06T12:00:00	4	Temperatura máxima	21.4
103003	7	Sololá	702	San José Chacayá	5	Chacayá	6	Junio	2023-06-21T00:00:00	2024-11-06T12:00:00	3	Temperatura mínima	20.2
103004	7	Sololá	702	San José Chacayá	5	Chacayá	6	Junio	2023-06-21T00:00:00	2024-11-06T12:00:00	5	Humedad	72
103005	7	Sololá	702	San José Chacayá	5	Chacayá	6	Junio	2023-06-21T00:00:00	2024-11-06T12:00:00	6	Velocidad del viento	4.8
103006	7	Sololá	702	San José Chacayá	5	Chacayá	6	Junio	2023-06-21T00:00:00	2024-11-06T12:00:00	7	Dirección del viento	4.83
103007	7	Sololá	702	San José Chacayá	5	Chacayá	6	Junio	2023-06-21T00:00:00	2024-11-06T12:00:00	1	Precipitación	0
103008	7	Sololá	702	San José Chacayá	5	Chacayá	6	Junio	2023-06-21T00:00:00	2024-11-06T12:00:00	8	Radiación solar	940
103009	7	Sololá	702	San José Chacayá	5	Chacayá	6	Junio	2023-06-21T00:00:00	2024-11-06T13:00:00	2	Temperatura media	20
103010	7	Sololá	702	San José Chacayá	5	Chacayá	6	Junio	2023-06-21T00:00:00	2024-11-06T13:00:00	4	Temperatura máxima	21.3
103011	7	Sololá	702	San José Chacayá	5	Chacayá	6	Junio	2023-06-21T00:00:00	2024-11-06T13:00:00	3	Temperatura mínima	20
103012	7	Sololá	702	San José Chacayá	5	Chacayá	6	Junio	2023-06-21T00:00:00	2024-11-06T13:00:00	5	Humedad	73
103013	7	Sololá	702	San José Chacayá	5	Chacayá	6	Junio	2023-06-21T00:00:00	2024-11-06T13:00:00	6	Velocidad del viento	4.8
103014	7	Sololá	702	San José Chacayá	5	Chacayá	6	Junio	2023-06-21T00:00:00	2024-11-06T13:00:00	7	Dirección del viento	4.83
103015	7	Sololá	702	San José Chacayá	5	Chacayá	6	Junio	2023-06-21T00:00:00	2024-11-06T13:00:00	1	Precipitación	0
103016	7	Sololá	702	San José Chacayá	5	Chacayá	6	Junio	2023-06-21T00:00:00	2024-11-06T13:00:00	8	Radiación solar	934
103017	7	Sololá	702	San José Chacayá	5	Chacayá	6	Junio	2023-06-21T00:00:00	2024-11-06T14:00:00	2	Temperatura media	20
103018	7	Sololá	702	San José Chacayá	5	Chacayá	6	Junio	2023-06-21T00:00:00	2024-11-06T14:00:00	4	Temperatura máxima	21.3
103019	7	Sololá	702	San José Chacayá	5	Chacayá	6	Junio	2023-06-21T00:00:00	2024-11-06T14:00:00	3	Temperatura mínima	19.9
103020	7	Sololá	702	San José Chacayá	5	Chacayá	6	Junio	2023-06-21T00:00:00	2024-11-06T14:00:00	5	Humedad	76
103021	7	Sololá	702	San José Chacayá	5	Chacayá	6	Junio	2023-06-21T00:00:00	2024-11-06T14:00:00	6	Velocidad del viento	3.2
103022	7	Sololá	702	San José Chacayá	5	Chacayá	6	Junio	2023-06-21T00:00:00	2024-11-06T14:00:00	7	Dirección del viento	3.22
103023	7	Sololá	702	San José Chacayá	5	Chacayá	6	Junio	2023-06-21T00:00:00	2024-11-06T14:00:00	1	Precipitación	0
103024	7	Sololá	702	San José Chacayá	5	Chacayá	6	Junio	2023-06-21T00:00:00	2024-11-06T14:00:00	8	Radiación solar	481
103025	7	Sololá	702	San José Chacayá	5	Chacayá	6	Junio	2023-06-21T00:00:00	2024-11-06T15:00:00	2	Temperatura media	18.8
103026	7	Sololá	702	San José Chacayá	5	Chacayá	6	Junio	2023-06-21T00:00:00	2024-11-06T15:00:00	4	Temperatura máxima	20
103027	7	Sololá	702	San José Chacayá	5	Chacayá	6	Junio	2023-06-21T00:00:00	2024-11-06T15:00:00	3	Temperatura mínima	18.7
103028	7	Sololá	702	San José Chacayá	5	Chacayá	6	Junio	2023-06-21T00:00:00	2024-11-06T15:00:00	5	Humedad	83
103029	7	Sololá	702	San José Chacayá	5	Chacayá	6	Junio	2023-06-21T00:00:00	2024-11-06T15:00:00	6	Velocidad del viento	3.2
103030	7	Sololá	702	San José Chacayá	5	Chacayá	6	Junio	2023-06-21T00:00:00	2024-11-06T15:00:00	7	Dirección del viento	3.22
103031	7	Sololá	702	San José Chacayá	5	Chacayá	6	Junio	2023-06-21T00:00:00	2024-11-06T15:00:00	1	Precipitación	0
103032	7	Sololá	702	San José Chacayá	5	Chacayá	6	Junio	2023-06-21T00:00:00	2024-11-06T15:00:00	8	Radiación solar	474
103033	7	Sololá	702	San José Chacayá	5	Chacayá	6	Junio	2023-06-21T00:00:00	2024-11-06T16:00:00	2	Temperatura media	17.3
103034	7	Sololá	702	San José Chacayá	5	Chacayá	6	Junio	2023-06-21T00:00:00	2024-11-06T16:00:00	4	Temperatura máxima	18.8
103035	7	Sololá	702	San José Chacayá	5	Chacayá	6	Junio	2023-06-21T00:00:00	2024-11-06T16:00:00	3	Temperatura mínima	17.3
103036	7	Sololá	702	San José Chacayá	5	Chacayá	6	Junio	2023-06-21T00:00:00	2024-11-06T16:00:00	5	Humedad	87
103037	7	Sololá	702	San José Chacayá	5	Chacayá	6	Junio	2023-06-21T00:00:00	2024-11-06T16:00:00	6	Velocidad del viento	3.2
103038	7	Sololá	702	San José Chacayá	5	Chacayá	6	Junio	2023-06-21T00:00:00	2024-11-06T16:00:00	7	Dirección del viento	3.22
103039	7	Sololá	702	San José Chacayá	5	Chacayá	6	Junio	2023-06-21T00:00:00	2024-11-06T16:00:00	1	Precipitación	0
103040	7	Sololá	702	San José Chacayá	5	Chacayá	6	Junio	2023-06-21T00:00:00	2024-11-06T16:00:00	8	Radiación solar	92
103041	7	Sololá	702	San José Chacayá	5	Chacayá	6	Junio	2023-06-21T00:00:00	2024-11-06T17:00:00	2	Temperatura media	15.1
103042	7	Sololá	702	San José Chacayá	5	Chacayá	6	Junio	2023-06-21T00:00:00	2024-11-06T17:00:00	4	Temperatura máxima	17.3
103043	7	Sololá	702	San José Chacayá	5	Chacayá	6	Junio	2023-06-21T00:00:00	2024-11-06T17:00:00	3	Temperatura mínima	15.1
103044	7	Sololá	702	San José Chacayá	5	Chacayá	6	Junio	2023-06-21T00:00:00	2024-11-06T17:00:00	5	Humedad	93
103045	7	Sololá	702	San José Chacayá	5	Chacayá	6	Junio	2023-06-21T00:00:00	2024-11-06T17:00:00	6	Velocidad del viento	6.4
103046	7	Sololá	702	San José Chacayá	5	Chacayá	6	Junio	2023-06-21T00:00:00	2024-11-06T17:00:00	7	Dirección del viento	6.44
103047	7	Sololá	702	San José Chacayá	5	Chacayá	6	Junio	2023-06-21T00:00:00	2024-11-06T17:00:00	1	Precipitación	4.6
103048	7	Sololá	702	San José Chacayá	5	Chacayá	6	Junio	2023-06-21T00:00:00	2024-11-06T17:00:00	8	Radiación solar	47
103049	7	Sololá	702	San José Chacayá	5	Chacayá	6	Junio	2023-06-21T00:00:00	2024-11-06T18:00:00	2	Temperatura media	14.8
103050	7	Sololá	702	San José Chacayá	5	Chacayá	6	Junio	2023-06-21T00:00:00	2024-11-06T18:00:00	4	Temperatura máxima	15.1
103051	7	Sololá	702	San José Chacayá	5	Chacayá	6	Junio	2023-06-21T00:00:00	2024-11-06T18:00:00	3	Temperatura mínima	14.8
103052	7	Sololá	702	San José Chacayá	5	Chacayá	6	Junio	2023-06-21T00:00:00	2024-11-06T18:00:00	5	Humedad	93
103053	7	Sololá	702	San José Chacayá	5	Chacayá	6	Junio	2023-06-21T00:00:00	2024-11-06T18:00:00	6	Velocidad del viento	0
103054	7	Sololá	702	San José Chacayá	5	Chacayá	6	Junio	2023-06-21T00:00:00	2024-11-06T18:00:00	7	Dirección del viento	0
103055	7	Sololá	702	San José Chacayá	5	Chacayá	6	Junio	2023-06-21T00:00:00	2024-11-06T18:00:00	1	Precipitación	0
103056	7	Sololá	702	San José Chacayá	5	Chacayá	6	Junio	2023-06-21T00:00:00	2024-11-06T18:00:00	8	Radiación solar	33
103057	7	Sololá	702	San José Chacayá	5	Chacayá	6	Junio	2023-06-21T00:00:00	2024-11-06T19:00:00	2	Temperatura media	14.4
103058	7	Sololá	702	San José Chacayá	5	Chacayá	6	Junio	2023-06-21T00:00:00	2024-11-06T19:00:00	4	Temperatura máxima	14.8
103059	7	Sololá	702	San José Chacayá	5	Chacayá	6	Junio	2023-06-21T00:00:00	2024-11-06T19:00:00	3	Temperatura mínima	14.4
103060	7	Sololá	702	San José Chacayá	5	Chacayá	6	Junio	2023-06-21T00:00:00	2024-11-06T19:00:00	5	Humedad	94
103061	7	Sololá	702	San José Chacayá	5	Chacayá	6	Junio	2023-06-21T00:00:00	2024-11-06T19:00:00	6	Velocidad del viento	0
103062	7	Sololá	702	San José Chacayá	5	Chacayá	6	Junio	2023-06-21T00:00:00	2024-11-06T19:00:00	7	Dirección del viento	0
103063	7	Sololá	702	San José Chacayá	5	Chacayá	6	Junio	2023-06-21T00:00:00	2024-11-06T19:00:00	1	Precipitación	0
103064	7	Sololá	702	San José Chacayá	5	Chacayá	6	Junio	2023-06-21T00:00:00	2024-11-06T19:00:00	8	Radiación solar	0
103065	7	Sololá	702	San José Chacayá	5	Chacayá	6	Junio	2023-06-21T00:00:00	2024-11-06T20:00:00	2	Temperatura media	14.3
103066	7	Sololá	702	San José Chacayá	5	Chacayá	6	Junio	2023-06-21T00:00:00	2024-11-06T20:00:00	4	Temperatura máxima	14.5
103067	7	Sololá	702	San José Chacayá	5	Chacayá	6	Junio	2023-06-21T00:00:00	2024-11-06T20:00:00	3	Temperatura mínima	14.3
103068	7	Sololá	702	San José Chacayá	5	Chacayá	6	Junio	2023-06-21T00:00:00	2024-11-06T20:00:00	5	Humedad	94
103069	7	Sololá	702	San José Chacayá	5	Chacayá	6	Junio	2023-06-21T00:00:00	2024-11-06T20:00:00	6	Velocidad del viento	0
103070	7	Sololá	702	San José Chacayá	5	Chacayá	6	Junio	2023-06-21T00:00:00	2024-11-06T20:00:00	7	Dirección del viento	0
103071	7	Sololá	702	San José Chacayá	5	Chacayá	6	Junio	2023-06-21T00:00:00	2024-11-06T20:00:00	1	Precipitación	0
103072	7	Sololá	702	San José Chacayá	5	Chacayá	6	Junio	2023-06-21T00:00:00	2024-11-06T20:00:00	8	Radiación solar	0
103073	7	Sololá	702	San José Chacayá	5	Chacayá	6	Junio	2023-06-21T00:00:00	2024-11-06T21:00:00	2	Temperatura media	14.2
103074	7	Sololá	702	San José Chacayá	5	Chacayá	6	Junio	2023-06-21T00:00:00	2024-11-06T21:00:00	4	Temperatura máxima	14.3
103075	7	Sololá	702	San José Chacayá	5	Chacayá	6	Junio	2023-06-21T00:00:00	2024-11-06T21:00:00	3	Temperatura mínima	14.1
103076	7	Sololá	702	San José Chacayá	5	Chacayá	6	Junio	2023-06-21T00:00:00	2024-11-06T21:00:00	5	Humedad	95
103077	7	Sololá	702	San José Chacayá	5	Chacayá	6	Junio	2023-06-21T00:00:00	2024-11-06T21:00:00	6	Velocidad del viento	0
103078	7	Sololá	702	San José Chacayá	5	Chacayá	6	Junio	2023-06-21T00:00:00	2024-11-06T21:00:00	7	Dirección del viento	0
103079	7	Sololá	702	San José Chacayá	5	Chacayá	6	Junio	2023-06-21T00:00:00	2024-11-06T21:00:00	1	Precipitación	0
103080	7	Sololá	702	San José Chacayá	5	Chacayá	6	Junio	2023-06-21T00:00:00	2024-11-06T21:00:00	8	Radiación solar	0
103081	7	Sololá	702	San José Chacayá	5	Chacayá	6	Junio	2023-06-21T00:00:00	2024-11-06T22:00:00	2	Temperatura media	13.9
103082	7	Sololá	702	San José Chacayá	5	Chacayá	6	Junio	2023-06-21T00:00:00	2024-11-06T22:00:00	4	Temperatura máxima	14.2
103083	7	Sololá	702	San José Chacayá	5	Chacayá	6	Junio	2023-06-21T00:00:00	2024-11-06T22:00:00	3	Temperatura mínima	13.9
103084	7	Sololá	702	San José Chacayá	5	Chacayá	6	Junio	2023-06-21T00:00:00	2024-11-06T22:00:00	5	Humedad	95
103085	7	Sololá	702	San José Chacayá	5	Chacayá	6	Junio	2023-06-21T00:00:00	2024-11-06T22:00:00	6	Velocidad del viento	0
103086	7	Sololá	702	San José Chacayá	5	Chacayá	6	Junio	2023-06-21T00:00:00	2024-11-06T22:00:00	7	Dirección del viento	0
103087	7	Sololá	702	San José Chacayá	5	Chacayá	6	Junio	2023-06-21T00:00:00	2024-11-06T22:00:00	1	Precipitación	0
103088	7	Sololá	702	San José Chacayá	5	Chacayá	6	Junio	2023-06-21T00:00:00	2024-11-06T22:00:00	8	Radiación solar	0
103089	7	Sololá	702	San José Chacayá	5	Chacayá	6	Junio	2023-06-21T00:00:00	2024-11-06T23:00:00	2	Temperatura media	13.7
103090	7	Sololá	702	San José Chacayá	5	Chacayá	6	Junio	2023-06-21T00:00:00	2024-11-06T23:00:00	4	Temperatura máxima	13.9
103091	7	Sololá	702	San José Chacayá	5	Chacayá	6	Junio	2023-06-21T00:00:00	2024-11-06T23:00:00	3	Temperatura mínima	13.7
103092	7	Sololá	702	San José Chacayá	5	Chacayá	6	Junio	2023-06-21T00:00:00	2024-11-06T23:00:00	5	Humedad	95
103093	7	Sololá	702	San José Chacayá	5	Chacayá	6	Junio	2023-06-21T00:00:00	2024-11-06T23:00:00	6	Velocidad del viento	0
103094	7	Sololá	702	San José Chacayá	5	Chacayá	6	Junio	2023-06-21T00:00:00	2024-11-06T23:00:00	7	Dirección del viento	0
103095	7	Sololá	702	San José Chacayá	5	Chacayá	6	Junio	2023-06-21T00:00:00	2024-11-06T23:00:00	1	Precipitación	0
103096	7	Sololá	702	San José Chacayá	5	Chacayá	6	Junio	2023-06-21T00:00:00	2024-11-06T23:00:00	8	Radiación solar	0
103097	7	Sololá	702	San José Chacayá	5	Chacayá	6	Junio	2023-06-22T00:00:00	2024-11-06T00:00:00	2	Temperatura media	13.7
103098	7	Sololá	702	San José Chacayá	5	Chacayá	6	Junio	2023-06-22T00:00:00	2024-11-06T00:00:00	4	Temperatura máxima	13.8
103099	7	Sololá	702	San José Chacayá	5	Chacayá	6	Junio	2023-06-22T00:00:00	2024-11-06T00:00:00	3	Temperatura mínima	13.6
103100	7	Sololá	702	San José Chacayá	5	Chacayá	6	Junio	2023-06-22T00:00:00	2024-11-06T00:00:00	5	Humedad	96
103101	7	Sololá	702	San José Chacayá	5	Chacayá	6	Junio	2023-06-22T00:00:00	2024-11-06T00:00:00	6	Velocidad del viento	0
103102	7	Sololá	702	San José Chacayá	5	Chacayá	6	Junio	2023-06-22T00:00:00	2024-11-06T00:00:00	7	Dirección del viento	0
103103	7	Sololá	702	San José Chacayá	5	Chacayá	6	Junio	2023-06-22T00:00:00	2024-11-06T00:00:00	1	Precipitación	0
103104	7	Sololá	702	San José Chacayá	5	Chacayá	6	Junio	2023-06-22T00:00:00	2024-11-06T00:00:00	8	Radiación solar	0
103105	7	Sololá	702	San José Chacayá	5	Chacayá	6	Junio	2023-06-22T00:00:00	2024-11-06T01:00:00	2	Temperatura media	13.3
103106	7	Sololá	702	San José Chacayá	5	Chacayá	6	Junio	2023-06-22T00:00:00	2024-11-06T01:00:00	4	Temperatura máxima	13.8
103107	7	Sololá	702	San José Chacayá	5	Chacayá	6	Junio	2023-06-22T00:00:00	2024-11-06T01:00:00	3	Temperatura mínima	13.3
103108	7	Sololá	702	San José Chacayá	5	Chacayá	6	Junio	2023-06-22T00:00:00	2024-11-06T01:00:00	5	Humedad	93
103109	7	Sololá	702	San José Chacayá	5	Chacayá	6	Junio	2023-06-22T00:00:00	2024-11-06T01:00:00	6	Velocidad del viento	1.6
103110	7	Sololá	702	San José Chacayá	5	Chacayá	6	Junio	2023-06-22T00:00:00	2024-11-06T01:00:00	7	Dirección del viento	1.61
103111	7	Sololá	702	San José Chacayá	5	Chacayá	6	Junio	2023-06-22T00:00:00	2024-11-06T01:00:00	1	Precipitación	1.4
103112	7	Sololá	702	San José Chacayá	5	Chacayá	6	Junio	2023-06-22T00:00:00	2024-11-06T01:00:00	8	Radiación solar	0
103113	7	Sololá	702	San José Chacayá	5	Chacayá	6	Junio	2023-06-22T00:00:00	2024-11-06T02:00:00	2	Temperatura media	13.1
103114	7	Sololá	702	San José Chacayá	5	Chacayá	6	Junio	2023-06-22T00:00:00	2024-11-06T02:00:00	4	Temperatura máxima	13.3
103115	7	Sololá	702	San José Chacayá	5	Chacayá	6	Junio	2023-06-22T00:00:00	2024-11-06T02:00:00	3	Temperatura mínima	13.1
103116	7	Sololá	702	San José Chacayá	5	Chacayá	6	Junio	2023-06-22T00:00:00	2024-11-06T02:00:00	5	Humedad	94
103117	7	Sololá	702	San José Chacayá	5	Chacayá	6	Junio	2023-06-22T00:00:00	2024-11-06T02:00:00	6	Velocidad del viento	0
103118	7	Sololá	702	San José Chacayá	5	Chacayá	6	Junio	2023-06-22T00:00:00	2024-11-06T02:00:00	7	Dirección del viento	0
103119	7	Sololá	702	San José Chacayá	5	Chacayá	6	Junio	2023-06-22T00:00:00	2024-11-06T02:00:00	1	Precipitación	0
103120	7	Sololá	702	San José Chacayá	5	Chacayá	6	Junio	2023-06-22T00:00:00	2024-11-06T02:00:00	8	Radiación solar	0
103121	7	Sololá	702	San José Chacayá	5	Chacayá	6	Junio	2023-06-22T00:00:00	2024-11-06T03:00:00	2	Temperatura media	12.8
103122	7	Sololá	702	San José Chacayá	5	Chacayá	6	Junio	2023-06-22T00:00:00	2024-11-06T03:00:00	4	Temperatura máxima	13.1
103123	7	Sololá	702	San José Chacayá	5	Chacayá	6	Junio	2023-06-22T00:00:00	2024-11-06T03:00:00	3	Temperatura mínima	12.8
103124	7	Sololá	702	San José Chacayá	5	Chacayá	6	Junio	2023-06-22T00:00:00	2024-11-06T03:00:00	5	Humedad	95
103125	7	Sololá	702	San José Chacayá	5	Chacayá	6	Junio	2023-06-22T00:00:00	2024-11-06T03:00:00	6	Velocidad del viento	0
103126	7	Sololá	702	San José Chacayá	5	Chacayá	6	Junio	2023-06-22T00:00:00	2024-11-06T03:00:00	7	Dirección del viento	0
103127	7	Sololá	702	San José Chacayá	5	Chacayá	6	Junio	2023-06-22T00:00:00	2024-11-06T03:00:00	1	Precipitación	0
103128	7	Sololá	702	San José Chacayá	5	Chacayá	6	Junio	2023-06-22T00:00:00	2024-11-06T03:00:00	8	Radiación solar	0
103129	7	Sololá	702	San José Chacayá	5	Chacayá	6	Junio	2023-06-22T00:00:00	2024-11-06T04:00:00	2	Temperatura media	12.3
103130	7	Sololá	702	San José Chacayá	5	Chacayá	6	Junio	2023-06-22T00:00:00	2024-11-06T04:00:00	4	Temperatura máxima	12.8
103131	7	Sololá	702	San José Chacayá	5	Chacayá	6	Junio	2023-06-22T00:00:00	2024-11-06T04:00:00	3	Temperatura mínima	12.3
103132	7	Sololá	702	San José Chacayá	5	Chacayá	6	Junio	2023-06-22T00:00:00	2024-11-06T04:00:00	5	Humedad	95
103133	7	Sololá	702	San José Chacayá	5	Chacayá	6	Junio	2023-06-22T00:00:00	2024-11-06T04:00:00	6	Velocidad del viento	0
103134	7	Sololá	702	San José Chacayá	5	Chacayá	6	Junio	2023-06-22T00:00:00	2024-11-06T04:00:00	7	Dirección del viento	0
103135	7	Sololá	702	San José Chacayá	5	Chacayá	6	Junio	2023-06-22T00:00:00	2024-11-06T04:00:00	1	Precipitación	0
103136	7	Sololá	702	San José Chacayá	5	Chacayá	6	Junio	2023-06-22T00:00:00	2024-11-06T04:00:00	8	Radiación solar	0
103137	7	Sololá	702	San José Chacayá	5	Chacayá	6	Junio	2023-06-22T00:00:00	2024-11-06T05:00:00	2	Temperatura media	12.4
103138	7	Sololá	702	San José Chacayá	5	Chacayá	6	Junio	2023-06-22T00:00:00	2024-11-06T05:00:00	4	Temperatura máxima	12.5
103139	7	Sololá	702	San José Chacayá	5	Chacayá	6	Junio	2023-06-22T00:00:00	2024-11-06T05:00:00	3	Temperatura mínima	12.3
103140	7	Sololá	702	San José Chacayá	5	Chacayá	6	Junio	2023-06-22T00:00:00	2024-11-06T05:00:00	5	Humedad	95
103141	7	Sololá	702	San José Chacayá	5	Chacayá	6	Junio	2023-06-22T00:00:00	2024-11-06T05:00:00	6	Velocidad del viento	0
103142	7	Sololá	702	San José Chacayá	5	Chacayá	6	Junio	2023-06-22T00:00:00	2024-11-06T05:00:00	7	Dirección del viento	0
103143	7	Sololá	702	San José Chacayá	5	Chacayá	6	Junio	2023-06-22T00:00:00	2024-11-06T05:00:00	1	Precipitación	0
103144	7	Sololá	702	San José Chacayá	5	Chacayá	6	Junio	2023-06-22T00:00:00	2024-11-06T05:00:00	8	Radiación solar	0
103145	7	Sololá	702	San José Chacayá	5	Chacayá	6	Junio	2023-06-22T00:00:00	2024-11-06T06:00:00	2	Temperatura media	12.6
103146	7	Sololá	702	San José Chacayá	5	Chacayá	6	Junio	2023-06-22T00:00:00	2024-11-06T06:00:00	4	Temperatura máxima	12.6
103147	7	Sololá	702	San José Chacayá	5	Chacayá	6	Junio	2023-06-22T00:00:00	2024-11-06T06:00:00	3	Temperatura mínima	12.4
103148	7	Sololá	702	San José Chacayá	5	Chacayá	6	Junio	2023-06-22T00:00:00	2024-11-06T06:00:00	5	Humedad	96
103149	7	Sololá	702	San José Chacayá	5	Chacayá	6	Junio	2023-06-22T00:00:00	2024-11-06T06:00:00	6	Velocidad del viento	0
103150	7	Sololá	702	San José Chacayá	5	Chacayá	6	Junio	2023-06-22T00:00:00	2024-11-06T06:00:00	7	Dirección del viento	0
103151	7	Sololá	702	San José Chacayá	5	Chacayá	6	Junio	2023-06-22T00:00:00	2024-11-06T06:00:00	1	Precipitación	0
103152	7	Sololá	702	San José Chacayá	5	Chacayá	6	Junio	2023-06-22T00:00:00	2024-11-06T06:00:00	8	Radiación solar	0
103153	7	Sololá	702	San José Chacayá	5	Chacayá	6	Junio	2023-06-22T00:00:00	2024-11-06T07:00:00	2	Temperatura media	13.4
103154	7	Sololá	702	San José Chacayá	5	Chacayá	6	Junio	2023-06-22T00:00:00	2024-11-06T07:00:00	4	Temperatura máxima	13.4
103155	7	Sololá	702	San José Chacayá	5	Chacayá	6	Junio	2023-06-22T00:00:00	2024-11-06T07:00:00	3	Temperatura mínima	12.6
103156	7	Sololá	702	San José Chacayá	5	Chacayá	6	Junio	2023-06-22T00:00:00	2024-11-06T07:00:00	5	Humedad	95
103157	7	Sololá	702	San José Chacayá	5	Chacayá	6	Junio	2023-06-22T00:00:00	2024-11-06T07:00:00	6	Velocidad del viento	0
103158	7	Sololá	702	San José Chacayá	5	Chacayá	6	Junio	2023-06-22T00:00:00	2024-11-06T07:00:00	7	Dirección del viento	0
103159	7	Sololá	702	San José Chacayá	5	Chacayá	6	Junio	2023-06-22T00:00:00	2024-11-06T07:00:00	1	Precipitación	0
103160	7	Sololá	702	San José Chacayá	5	Chacayá	6	Junio	2023-06-22T00:00:00	2024-11-06T07:00:00	8	Radiación solar	7
103161	7	Sololá	702	San José Chacayá	5	Chacayá	6	Junio	2023-06-22T00:00:00	2024-11-06T08:00:00	2	Temperatura media	14.9
103162	7	Sololá	702	San José Chacayá	5	Chacayá	6	Junio	2023-06-22T00:00:00	2024-11-06T08:00:00	4	Temperatura máxima	14.9
103163	7	Sololá	702	San José Chacayá	5	Chacayá	6	Junio	2023-06-22T00:00:00	2024-11-06T08:00:00	3	Temperatura mínima	13.4
103164	7	Sololá	702	San José Chacayá	5	Chacayá	6	Junio	2023-06-22T00:00:00	2024-11-06T08:00:00	5	Humedad	92
103165	7	Sololá	702	San José Chacayá	5	Chacayá	6	Junio	2023-06-22T00:00:00	2024-11-06T08:00:00	6	Velocidad del viento	0
103166	7	Sololá	702	San José Chacayá	5	Chacayá	6	Junio	2023-06-22T00:00:00	2024-11-06T08:00:00	7	Dirección del viento	0
103167	7	Sololá	702	San José Chacayá	5	Chacayá	6	Junio	2023-06-22T00:00:00	2024-11-06T08:00:00	1	Precipitación	0
103168	7	Sololá	702	San José Chacayá	5	Chacayá	6	Junio	2023-06-22T00:00:00	2024-11-06T08:00:00	8	Radiación solar	35
103169	7	Sololá	702	San José Chacayá	5	Chacayá	6	Junio	2023-06-22T00:00:00	2024-11-06T09:00:00	2	Temperatura media	18.1
103170	7	Sololá	702	San José Chacayá	5	Chacayá	6	Junio	2023-06-22T00:00:00	2024-11-06T09:00:00	4	Temperatura máxima	18.1
103171	7	Sololá	702	San José Chacayá	5	Chacayá	6	Junio	2023-06-22T00:00:00	2024-11-06T09:00:00	3	Temperatura mínima	14.9
103172	7	Sololá	702	San José Chacayá	5	Chacayá	6	Junio	2023-06-22T00:00:00	2024-11-06T09:00:00	5	Humedad	84
103173	7	Sololá	702	San José Chacayá	5	Chacayá	6	Junio	2023-06-22T00:00:00	2024-11-06T09:00:00	6	Velocidad del viento	1.6
103174	7	Sololá	702	San José Chacayá	5	Chacayá	6	Junio	2023-06-22T00:00:00	2024-11-06T09:00:00	7	Dirección del viento	1.61
103175	7	Sololá	702	San José Chacayá	5	Chacayá	6	Junio	2023-06-22T00:00:00	2024-11-06T09:00:00	1	Precipitación	0
103176	7	Sololá	702	San José Chacayá	5	Chacayá	6	Junio	2023-06-22T00:00:00	2024-11-06T09:00:00	8	Radiación solar	182
103177	7	Sololá	702	San José Chacayá	5	Chacayá	6	Junio	2023-06-22T00:00:00	2024-11-06T10:00:00	2	Temperatura media	20.9
103178	7	Sololá	702	San José Chacayá	5	Chacayá	6	Junio	2023-06-22T00:00:00	2024-11-06T10:00:00	4	Temperatura máxima	20.9
103179	7	Sololá	702	San José Chacayá	5	Chacayá	6	Junio	2023-06-22T00:00:00	2024-11-06T10:00:00	3	Temperatura mínima	18.1
103180	7	Sololá	702	San José Chacayá	5	Chacayá	6	Junio	2023-06-22T00:00:00	2024-11-06T10:00:00	5	Humedad	71
103181	7	Sololá	702	San José Chacayá	5	Chacayá	6	Junio	2023-06-22T00:00:00	2024-11-06T10:00:00	6	Velocidad del viento	3.2
103182	7	Sololá	702	San José Chacayá	5	Chacayá	6	Junio	2023-06-22T00:00:00	2024-11-06T10:00:00	7	Dirección del viento	3.22
103183	7	Sololá	702	San José Chacayá	5	Chacayá	6	Junio	2023-06-22T00:00:00	2024-11-06T10:00:00	1	Precipitación	0
103184	7	Sololá	702	San José Chacayá	5	Chacayá	6	Junio	2023-06-22T00:00:00	2024-11-06T10:00:00	8	Radiación solar	604
103185	7	Sololá	702	San José Chacayá	5	Chacayá	6	Junio	2023-06-22T00:00:00	2024-11-06T11:00:00	2	Temperatura media	18.4
103186	7	Sololá	702	San José Chacayá	5	Chacayá	6	Junio	2023-06-22T00:00:00	2024-11-06T11:00:00	4	Temperatura máxima	21.3
103187	7	Sololá	702	San José Chacayá	5	Chacayá	6	Junio	2023-06-22T00:00:00	2024-11-06T11:00:00	3	Temperatura mínima	18.4
103188	7	Sololá	702	San José Chacayá	5	Chacayá	6	Junio	2023-06-22T00:00:00	2024-11-06T11:00:00	5	Humedad	74
103189	7	Sololá	702	San José Chacayá	5	Chacayá	6	Junio	2023-06-22T00:00:00	2024-11-06T11:00:00	6	Velocidad del viento	4.8
103190	7	Sololá	702	San José Chacayá	5	Chacayá	6	Junio	2023-06-22T00:00:00	2024-11-06T11:00:00	7	Dirección del viento	4.83
103191	7	Sololá	702	San José Chacayá	5	Chacayá	6	Junio	2023-06-22T00:00:00	2024-11-06T11:00:00	1	Precipitación	0
103192	7	Sololá	702	San José Chacayá	5	Chacayá	6	Junio	2023-06-22T00:00:00	2024-11-06T11:00:00	8	Radiación solar	803
103193	7	Sololá	702	San José Chacayá	5	Chacayá	6	Junio	2023-06-22T00:00:00	2024-11-06T12:00:00	2	Temperatura media	17.9
103194	7	Sololá	702	San José Chacayá	5	Chacayá	6	Junio	2023-06-22T00:00:00	2024-11-06T12:00:00	4	Temperatura máxima	18.4
103195	7	Sololá	702	San José Chacayá	5	Chacayá	6	Junio	2023-06-22T00:00:00	2024-11-06T12:00:00	3	Temperatura mínima	17.5
103196	7	Sololá	702	San José Chacayá	5	Chacayá	6	Junio	2023-06-22T00:00:00	2024-11-06T12:00:00	5	Humedad	82
103197	7	Sololá	702	San José Chacayá	5	Chacayá	6	Junio	2023-06-22T00:00:00	2024-11-06T12:00:00	6	Velocidad del viento	1.6
103198	7	Sololá	702	San José Chacayá	5	Chacayá	6	Junio	2023-06-22T00:00:00	2024-11-06T12:00:00	7	Dirección del viento	1.61
103199	7	Sololá	702	San José Chacayá	5	Chacayá	6	Junio	2023-06-22T00:00:00	2024-11-06T12:00:00	1	Precipitación	0
103200	7	Sololá	702	San José Chacayá	5	Chacayá	6	Junio	2023-06-22T00:00:00	2024-11-06T12:00:00	8	Radiación solar	885
103201	7	Sololá	702	San José Chacayá	5	Chacayá	6	Junio	2023-06-22T00:00:00	2024-11-06T13:00:00	2	Temperatura media	17
103202	7	Sololá	702	San José Chacayá	5	Chacayá	6	Junio	2023-06-22T00:00:00	2024-11-06T13:00:00	4	Temperatura máxima	18.3
103203	7	Sololá	702	San José Chacayá	5	Chacayá	6	Junio	2023-06-22T00:00:00	2024-11-06T13:00:00	3	Temperatura mínima	16.9
103204	7	Sololá	702	San José Chacayá	5	Chacayá	6	Junio	2023-06-22T00:00:00	2024-11-06T13:00:00	5	Humedad	91
103205	7	Sololá	702	San José Chacayá	5	Chacayá	6	Junio	2023-06-22T00:00:00	2024-11-06T13:00:00	6	Velocidad del viento	1.6
103206	7	Sololá	702	San José Chacayá	5	Chacayá	6	Junio	2023-06-22T00:00:00	2024-11-06T13:00:00	7	Dirección del viento	1.61
103207	7	Sololá	702	San José Chacayá	5	Chacayá	6	Junio	2023-06-22T00:00:00	2024-11-06T13:00:00	1	Precipitación	1.2
103208	7	Sololá	702	San José Chacayá	5	Chacayá	6	Junio	2023-06-22T00:00:00	2024-11-06T13:00:00	8	Radiación solar	810
103209	7	Sololá	702	San José Chacayá	5	Chacayá	6	Junio	2023-06-22T00:00:00	2024-11-06T14:00:00	2	Temperatura media	17.7
103210	7	Sololá	702	San José Chacayá	5	Chacayá	6	Junio	2023-06-22T00:00:00	2024-11-06T14:00:00	4	Temperatura máxima	18.1
103211	7	Sololá	702	San José Chacayá	5	Chacayá	6	Junio	2023-06-22T00:00:00	2024-11-06T14:00:00	3	Temperatura mínima	16.9
103212	7	Sololá	702	San José Chacayá	5	Chacayá	6	Junio	2023-06-22T00:00:00	2024-11-06T14:00:00	5	Humedad	88
103213	7	Sololá	702	San José Chacayá	5	Chacayá	6	Junio	2023-06-22T00:00:00	2024-11-06T14:00:00	6	Velocidad del viento	1.6
103214	7	Sololá	702	San José Chacayá	5	Chacayá	6	Junio	2023-06-22T00:00:00	2024-11-06T14:00:00	7	Dirección del viento	1.61
103215	7	Sololá	702	San José Chacayá	5	Chacayá	6	Junio	2023-06-22T00:00:00	2024-11-06T14:00:00	1	Precipitación	0
103216	7	Sololá	702	San José Chacayá	5	Chacayá	6	Junio	2023-06-22T00:00:00	2024-11-06T14:00:00	8	Radiación solar	879
103217	7	Sololá	702	San José Chacayá	5	Chacayá	6	Junio	2023-06-22T00:00:00	2024-11-06T15:00:00	2	Temperatura media	17.2
103218	7	Sololá	702	San José Chacayá	5	Chacayá	6	Junio	2023-06-22T00:00:00	2024-11-06T15:00:00	4	Temperatura máxima	17.7
103219	7	Sololá	702	San José Chacayá	5	Chacayá	6	Junio	2023-06-22T00:00:00	2024-11-06T15:00:00	3	Temperatura mínima	16.8
103220	7	Sololá	702	San José Chacayá	5	Chacayá	6	Junio	2023-06-22T00:00:00	2024-11-06T15:00:00	5	Humedad	91
103221	7	Sololá	702	San José Chacayá	5	Chacayá	6	Junio	2023-06-22T00:00:00	2024-11-06T15:00:00	6	Velocidad del viento	1.6
103222	7	Sololá	702	San José Chacayá	5	Chacayá	6	Junio	2023-06-22T00:00:00	2024-11-06T15:00:00	7	Dirección del viento	1.61
103223	7	Sololá	702	San José Chacayá	5	Chacayá	6	Junio	2023-06-22T00:00:00	2024-11-06T15:00:00	1	Precipitación	0.2
103224	7	Sololá	702	San José Chacayá	5	Chacayá	6	Junio	2023-06-22T00:00:00	2024-11-06T15:00:00	8	Radiación solar	647
103225	7	Sololá	702	San José Chacayá	5	Chacayá	6	Junio	2023-06-22T00:00:00	2024-11-06T16:00:00	2	Temperatura media	17.5
103226	7	Sololá	702	San José Chacayá	5	Chacayá	6	Junio	2023-06-22T00:00:00	2024-11-06T16:00:00	4	Temperatura máxima	18.1
103227	7	Sololá	702	San José Chacayá	5	Chacayá	6	Junio	2023-06-22T00:00:00	2024-11-06T16:00:00	3	Temperatura mínima	17.1
103228	7	Sololá	702	San José Chacayá	5	Chacayá	6	Junio	2023-06-22T00:00:00	2024-11-06T16:00:00	5	Humedad	89
103229	7	Sololá	702	San José Chacayá	5	Chacayá	6	Junio	2023-06-22T00:00:00	2024-11-06T16:00:00	6	Velocidad del viento	1.6
103230	7	Sololá	702	San José Chacayá	5	Chacayá	6	Junio	2023-06-22T00:00:00	2024-11-06T16:00:00	7	Dirección del viento	1.61
103231	7	Sololá	702	San José Chacayá	5	Chacayá	6	Junio	2023-06-22T00:00:00	2024-11-06T16:00:00	1	Precipitación	0
103232	7	Sololá	702	San José Chacayá	5	Chacayá	6	Junio	2023-06-22T00:00:00	2024-11-06T16:00:00	8	Radiación solar	414
103233	7	Sololá	702	San José Chacayá	5	Chacayá	6	Junio	2023-06-22T00:00:00	2024-11-06T17:00:00	2	Temperatura media	15.9
103234	7	Sololá	702	San José Chacayá	5	Chacayá	6	Junio	2023-06-22T00:00:00	2024-11-06T17:00:00	4	Temperatura máxima	17.6
103235	7	Sololá	702	San José Chacayá	5	Chacayá	6	Junio	2023-06-22T00:00:00	2024-11-06T17:00:00	3	Temperatura mínima	15.9
103236	7	Sololá	702	San José Chacayá	5	Chacayá	6	Junio	2023-06-22T00:00:00	2024-11-06T17:00:00	5	Humedad	89
103237	7	Sololá	702	San José Chacayá	5	Chacayá	6	Junio	2023-06-22T00:00:00	2024-11-06T17:00:00	6	Velocidad del viento	1.6
103238	7	Sololá	702	San José Chacayá	5	Chacayá	6	Junio	2023-06-22T00:00:00	2024-11-06T17:00:00	7	Dirección del viento	1.61
103239	7	Sololá	702	San José Chacayá	5	Chacayá	6	Junio	2023-06-22T00:00:00	2024-11-06T17:00:00	1	Precipitación	7
103240	7	Sololá	702	San José Chacayá	5	Chacayá	6	Junio	2023-06-22T00:00:00	2024-11-06T17:00:00	8	Radiación solar	136
103241	7	Sololá	702	San José Chacayá	5	Chacayá	6	Junio	2023-06-22T00:00:00	2024-11-06T18:00:00	2	Temperatura media	14.4
103242	7	Sololá	702	San José Chacayá	5	Chacayá	6	Junio	2023-06-22T00:00:00	2024-11-06T18:00:00	4	Temperatura máxima	15.9
103243	7	Sololá	702	San José Chacayá	5	Chacayá	6	Junio	2023-06-22T00:00:00	2024-11-06T18:00:00	3	Temperatura mínima	14.1
103244	7	Sololá	702	San José Chacayá	5	Chacayá	6	Junio	2023-06-22T00:00:00	2024-11-06T18:00:00	5	Humedad	95
103245	7	Sololá	702	San José Chacayá	5	Chacayá	6	Junio	2023-06-22T00:00:00	2024-11-06T18:00:00	6	Velocidad del viento	1.6
103246	7	Sololá	702	San José Chacayá	5	Chacayá	6	Junio	2023-06-22T00:00:00	2024-11-06T18:00:00	7	Dirección del viento	1.61
103247	7	Sololá	702	San José Chacayá	5	Chacayá	6	Junio	2023-06-22T00:00:00	2024-11-06T18:00:00	1	Precipitación	29
103248	7	Sololá	702	San José Chacayá	5	Chacayá	6	Junio	2023-06-22T00:00:00	2024-11-06T18:00:00	8	Radiación solar	57
103249	7	Sololá	702	San José Chacayá	5	Chacayá	6	Junio	2023-06-22T00:00:00	2024-11-06T19:00:00	2	Temperatura media	14.5
103250	7	Sololá	702	San José Chacayá	5	Chacayá	6	Junio	2023-06-22T00:00:00	2024-11-06T19:00:00	4	Temperatura máxima	14.6
103251	7	Sololá	702	San José Chacayá	5	Chacayá	6	Junio	2023-06-22T00:00:00	2024-11-06T19:00:00	3	Temperatura mínima	14.4
103252	7	Sololá	702	San José Chacayá	5	Chacayá	6	Junio	2023-06-22T00:00:00	2024-11-06T19:00:00	5	Humedad	96
103253	7	Sololá	702	San José Chacayá	5	Chacayá	6	Junio	2023-06-22T00:00:00	2024-11-06T19:00:00	6	Velocidad del viento	0
103254	7	Sololá	702	San José Chacayá	5	Chacayá	6	Junio	2023-06-22T00:00:00	2024-11-06T19:00:00	7	Dirección del viento	0
103255	7	Sololá	702	San José Chacayá	5	Chacayá	6	Junio	2023-06-22T00:00:00	2024-11-06T19:00:00	1	Precipitación	2.6
103256	7	Sololá	702	San José Chacayá	5	Chacayá	6	Junio	2023-06-22T00:00:00	2024-11-06T19:00:00	8	Radiación solar	0
103257	7	Sololá	702	San José Chacayá	5	Chacayá	6	Junio	2023-06-22T00:00:00	2024-11-06T20:00:00	2	Temperatura media	14.1
103258	7	Sololá	702	San José Chacayá	5	Chacayá	6	Junio	2023-06-22T00:00:00	2024-11-06T20:00:00	4	Temperatura máxima	14.5
103259	7	Sololá	702	San José Chacayá	5	Chacayá	6	Junio	2023-06-22T00:00:00	2024-11-06T20:00:00	3	Temperatura mínima	13.9
103260	7	Sololá	702	San José Chacayá	5	Chacayá	6	Junio	2023-06-22T00:00:00	2024-11-06T20:00:00	5	Humedad	96
103261	7	Sololá	702	San José Chacayá	5	Chacayá	6	Junio	2023-06-22T00:00:00	2024-11-06T20:00:00	6	Velocidad del viento	0
103262	7	Sololá	702	San José Chacayá	5	Chacayá	6	Junio	2023-06-22T00:00:00	2024-11-06T20:00:00	7	Dirección del viento	0
103263	7	Sololá	702	San José Chacayá	5	Chacayá	6	Junio	2023-06-22T00:00:00	2024-11-06T20:00:00	1	Precipitación	0.6
103264	7	Sololá	702	San José Chacayá	5	Chacayá	6	Junio	2023-06-22T00:00:00	2024-11-06T20:00:00	8	Radiación solar	0
103265	7	Sololá	702	San José Chacayá	5	Chacayá	6	Junio	2023-06-22T00:00:00	2024-11-06T21:00:00	2	Temperatura media	13.9
103266	7	Sololá	702	San José Chacayá	5	Chacayá	6	Junio	2023-06-22T00:00:00	2024-11-06T21:00:00	4	Temperatura máxima	14.1
103267	7	Sololá	702	San José Chacayá	5	Chacayá	6	Junio	2023-06-22T00:00:00	2024-11-06T21:00:00	3	Temperatura mínima	13.8
103268	7	Sololá	702	San José Chacayá	5	Chacayá	6	Junio	2023-06-22T00:00:00	2024-11-06T21:00:00	5	Humedad	96
103269	7	Sololá	702	San José Chacayá	5	Chacayá	6	Junio	2023-06-22T00:00:00	2024-11-06T21:00:00	6	Velocidad del viento	0
103270	7	Sololá	702	San José Chacayá	5	Chacayá	6	Junio	2023-06-22T00:00:00	2024-11-06T21:00:00	7	Dirección del viento	0
103271	7	Sololá	702	San José Chacayá	5	Chacayá	6	Junio	2023-06-22T00:00:00	2024-11-06T21:00:00	1	Precipitación	0.4
103272	7	Sololá	702	San José Chacayá	5	Chacayá	6	Junio	2023-06-22T00:00:00	2024-11-06T21:00:00	8	Radiación solar	0
103273	7	Sololá	702	San José Chacayá	5	Chacayá	6	Junio	2023-06-22T00:00:00	2024-11-06T22:00:00	2	Temperatura media	13.8
103274	7	Sololá	702	San José Chacayá	5	Chacayá	6	Junio	2023-06-22T00:00:00	2024-11-06T22:00:00	4	Temperatura máxima	13.9
103275	7	Sololá	702	San José Chacayá	5	Chacayá	6	Junio	2023-06-22T00:00:00	2024-11-06T22:00:00	3	Temperatura mínima	13.7
103276	7	Sololá	702	San José Chacayá	5	Chacayá	6	Junio	2023-06-22T00:00:00	2024-11-06T22:00:00	5	Humedad	96
103277	7	Sololá	702	San José Chacayá	5	Chacayá	6	Junio	2023-06-22T00:00:00	2024-11-06T22:00:00	6	Velocidad del viento	0
103278	7	Sololá	702	San José Chacayá	5	Chacayá	6	Junio	2023-06-22T00:00:00	2024-11-06T22:00:00	7	Dirección del viento	0
103279	7	Sololá	702	San José Chacayá	5	Chacayá	6	Junio	2023-06-22T00:00:00	2024-11-06T22:00:00	1	Precipitación	0
103280	7	Sololá	702	San José Chacayá	5	Chacayá	6	Junio	2023-06-22T00:00:00	2024-11-06T22:00:00	8	Radiación solar	0
103281	7	Sololá	702	San José Chacayá	5	Chacayá	6	Junio	2023-06-22T00:00:00	2024-11-06T23:00:00	2	Temperatura media	13.8
103282	7	Sololá	702	San José Chacayá	5	Chacayá	6	Junio	2023-06-22T00:00:00	2024-11-06T23:00:00	4	Temperatura máxima	13.9
103283	7	Sololá	702	San José Chacayá	5	Chacayá	6	Junio	2023-06-22T00:00:00	2024-11-06T23:00:00	3	Temperatura mínima	13.8
103284	7	Sololá	702	San José Chacayá	5	Chacayá	6	Junio	2023-06-22T00:00:00	2024-11-06T23:00:00	5	Humedad	96
103285	7	Sololá	702	San José Chacayá	5	Chacayá	6	Junio	2023-06-22T00:00:00	2024-11-06T23:00:00	6	Velocidad del viento	0
103286	7	Sololá	702	San José Chacayá	5	Chacayá	6	Junio	2023-06-22T00:00:00	2024-11-06T23:00:00	7	Dirección del viento	0
103287	7	Sololá	702	San José Chacayá	5	Chacayá	6	Junio	2023-06-22T00:00:00	2024-11-06T23:00:00	1	Precipitación	12.2
103288	7	Sololá	702	San José Chacayá	5	Chacayá	6	Junio	2023-06-22T00:00:00	2024-11-06T23:00:00	8	Radiación solar	0
103289	7	Sololá	702	San José Chacayá	5	Chacayá	6	Junio	2023-06-23T00:00:00	2024-11-06T00:00:00	2	Temperatura media	14
103290	7	Sololá	702	San José Chacayá	5	Chacayá	6	Junio	2023-06-23T00:00:00	2024-11-06T00:00:00	4	Temperatura máxima	14
103291	7	Sololá	702	San José Chacayá	5	Chacayá	6	Junio	2023-06-23T00:00:00	2024-11-06T00:00:00	3	Temperatura mínima	13.8
103292	7	Sololá	702	San José Chacayá	5	Chacayá	6	Junio	2023-06-23T00:00:00	2024-11-06T00:00:00	5	Humedad	97
103293	7	Sololá	702	San José Chacayá	5	Chacayá	6	Junio	2023-06-23T00:00:00	2024-11-06T00:00:00	6	Velocidad del viento	0
103294	7	Sololá	702	San José Chacayá	5	Chacayá	6	Junio	2023-06-23T00:00:00	2024-11-06T00:00:00	7	Dirección del viento	0
103295	7	Sololá	702	San José Chacayá	5	Chacayá	6	Junio	2023-06-23T00:00:00	2024-11-06T00:00:00	1	Precipitación	0.6
103296	7	Sololá	702	San José Chacayá	5	Chacayá	6	Junio	2023-06-23T00:00:00	2024-11-06T00:00:00	8	Radiación solar	0
103297	7	Sololá	702	San José Chacayá	5	Chacayá	6	Junio	2023-06-23T00:00:00	2024-11-06T01:00:00	2	Temperatura media	13.3
103298	7	Sololá	702	San José Chacayá	5	Chacayá	6	Junio	2023-06-23T00:00:00	2024-11-06T01:00:00	4	Temperatura máxima	14
103299	7	Sololá	702	San José Chacayá	5	Chacayá	6	Junio	2023-06-23T00:00:00	2024-11-06T01:00:00	3	Temperatura mínima	13.3
103300	7	Sololá	702	San José Chacayá	5	Chacayá	6	Junio	2023-06-23T00:00:00	2024-11-06T01:00:00	5	Humedad	96
103301	7	Sololá	702	San José Chacayá	5	Chacayá	6	Junio	2023-06-23T00:00:00	2024-11-06T01:00:00	6	Velocidad del viento	0
103302	7	Sololá	702	San José Chacayá	5	Chacayá	6	Junio	2023-06-23T00:00:00	2024-11-06T01:00:00	7	Dirección del viento	0
103303	7	Sololá	702	San José Chacayá	5	Chacayá	6	Junio	2023-06-23T00:00:00	2024-11-06T01:00:00	1	Precipitación	0
103304	7	Sololá	702	San José Chacayá	5	Chacayá	6	Junio	2023-06-23T00:00:00	2024-11-06T01:00:00	8	Radiación solar	0
103305	7	Sololá	702	San José Chacayá	5	Chacayá	6	Junio	2023-06-23T00:00:00	2024-11-06T02:00:00	2	Temperatura media	13.1
103306	7	Sololá	702	San José Chacayá	5	Chacayá	6	Junio	2023-06-23T00:00:00	2024-11-06T02:00:00	4	Temperatura máxima	13.4
103307	7	Sololá	702	San José Chacayá	5	Chacayá	6	Junio	2023-06-23T00:00:00	2024-11-06T02:00:00	3	Temperatura mínima	13.1
103308	7	Sololá	702	San José Chacayá	5	Chacayá	6	Junio	2023-06-23T00:00:00	2024-11-06T02:00:00	5	Humedad	96
103309	7	Sololá	702	San José Chacayá	5	Chacayá	6	Junio	2023-06-23T00:00:00	2024-11-06T02:00:00	6	Velocidad del viento	0
103310	7	Sololá	702	San José Chacayá	5	Chacayá	6	Junio	2023-06-23T00:00:00	2024-11-06T02:00:00	7	Dirección del viento	0
103311	7	Sololá	702	San José Chacayá	5	Chacayá	6	Junio	2023-06-23T00:00:00	2024-11-06T02:00:00	1	Precipitación	0
103312	7	Sololá	702	San José Chacayá	5	Chacayá	6	Junio	2023-06-23T00:00:00	2024-11-06T02:00:00	8	Radiación solar	0
103313	7	Sololá	702	San José Chacayá	5	Chacayá	6	Junio	2023-06-23T00:00:00	2024-11-06T03:00:00	2	Temperatura media	13.2
103314	7	Sololá	702	San José Chacayá	5	Chacayá	6	Junio	2023-06-23T00:00:00	2024-11-06T03:00:00	4	Temperatura máxima	13.3
103315	7	Sololá	702	San José Chacayá	5	Chacayá	6	Junio	2023-06-23T00:00:00	2024-11-06T03:00:00	3	Temperatura mínima	13.1
103316	7	Sololá	702	San José Chacayá	5	Chacayá	6	Junio	2023-06-23T00:00:00	2024-11-06T03:00:00	5	Humedad	97
103317	7	Sololá	702	San José Chacayá	5	Chacayá	6	Junio	2023-06-23T00:00:00	2024-11-06T03:00:00	6	Velocidad del viento	0
103318	7	Sololá	702	San José Chacayá	5	Chacayá	6	Junio	2023-06-23T00:00:00	2024-11-06T03:00:00	7	Dirección del viento	0
103319	7	Sololá	702	San José Chacayá	5	Chacayá	6	Junio	2023-06-23T00:00:00	2024-11-06T03:00:00	1	Precipitación	0
103320	7	Sololá	702	San José Chacayá	5	Chacayá	6	Junio	2023-06-23T00:00:00	2024-11-06T03:00:00	8	Radiación solar	0
103321	7	Sololá	702	San José Chacayá	5	Chacayá	6	Junio	2023-06-23T00:00:00	2024-11-06T04:00:00	2	Temperatura media	13.3
103322	7	Sololá	702	San José Chacayá	5	Chacayá	6	Junio	2023-06-23T00:00:00	2024-11-06T04:00:00	4	Temperatura máxima	13.3
103323	7	Sololá	702	San José Chacayá	5	Chacayá	6	Junio	2023-06-23T00:00:00	2024-11-06T04:00:00	3	Temperatura mínima	13.2
103324	7	Sololá	702	San José Chacayá	5	Chacayá	6	Junio	2023-06-23T00:00:00	2024-11-06T04:00:00	5	Humedad	97
103325	7	Sololá	702	San José Chacayá	5	Chacayá	6	Junio	2023-06-23T00:00:00	2024-11-06T04:00:00	6	Velocidad del viento	0
103326	7	Sololá	702	San José Chacayá	5	Chacayá	6	Junio	2023-06-23T00:00:00	2024-11-06T04:00:00	7	Dirección del viento	0
103327	7	Sololá	702	San José Chacayá	5	Chacayá	6	Junio	2023-06-23T00:00:00	2024-11-06T04:00:00	1	Precipitación	0.2
103328	7	Sololá	702	San José Chacayá	5	Chacayá	6	Junio	2023-06-23T00:00:00	2024-11-06T04:00:00	8	Radiación solar	0
103329	7	Sololá	702	San José Chacayá	5	Chacayá	6	Junio	2023-06-23T00:00:00	2024-11-06T05:00:00	2	Temperatura media	12.4
103330	7	Sololá	702	San José Chacayá	5	Chacayá	6	Junio	2023-06-23T00:00:00	2024-11-06T05:00:00	4	Temperatura máxima	13.3
103331	7	Sololá	702	San José Chacayá	5	Chacayá	6	Junio	2023-06-23T00:00:00	2024-11-06T05:00:00	3	Temperatura mínima	12.4
103332	7	Sololá	702	San José Chacayá	5	Chacayá	6	Junio	2023-06-23T00:00:00	2024-11-06T05:00:00	5	Humedad	96
103333	7	Sololá	702	San José Chacayá	5	Chacayá	6	Junio	2023-06-23T00:00:00	2024-11-06T05:00:00	6	Velocidad del viento	0
103334	7	Sololá	702	San José Chacayá	5	Chacayá	6	Junio	2023-06-23T00:00:00	2024-11-06T05:00:00	7	Dirección del viento	0
103335	7	Sololá	702	San José Chacayá	5	Chacayá	6	Junio	2023-06-23T00:00:00	2024-11-06T05:00:00	1	Precipitación	0
103336	7	Sololá	702	San José Chacayá	5	Chacayá	6	Junio	2023-06-23T00:00:00	2024-11-06T05:00:00	8	Radiación solar	0
103337	7	Sololá	702	San José Chacayá	5	Chacayá	6	Junio	2023-06-23T00:00:00	2024-11-06T06:00:00	2	Temperatura media	11.8
103338	7	Sololá	702	San José Chacayá	5	Chacayá	6	Junio	2023-06-23T00:00:00	2024-11-06T06:00:00	4	Temperatura máxima	12.4
103339	7	Sololá	702	San José Chacayá	5	Chacayá	6	Junio	2023-06-23T00:00:00	2024-11-06T06:00:00	3	Temperatura mínima	11.8
103340	7	Sololá	702	San José Chacayá	5	Chacayá	6	Junio	2023-06-23T00:00:00	2024-11-06T06:00:00	5	Humedad	96
103341	7	Sololá	702	San José Chacayá	5	Chacayá	6	Junio	2023-06-23T00:00:00	2024-11-06T06:00:00	6	Velocidad del viento	0
103342	7	Sololá	702	San José Chacayá	5	Chacayá	6	Junio	2023-06-23T00:00:00	2024-11-06T06:00:00	7	Dirección del viento	0
103343	7	Sololá	702	San José Chacayá	5	Chacayá	6	Junio	2023-06-23T00:00:00	2024-11-06T06:00:00	1	Precipitación	0
103344	7	Sololá	702	San José Chacayá	5	Chacayá	6	Junio	2023-06-23T00:00:00	2024-11-06T06:00:00	8	Radiación solar	7
103345	7	Sololá	702	San José Chacayá	5	Chacayá	6	Junio	2023-06-23T00:00:00	2024-11-06T07:00:00	2	Temperatura media	13.9
103346	7	Sololá	702	San José Chacayá	5	Chacayá	6	Junio	2023-06-23T00:00:00	2024-11-06T07:00:00	4	Temperatura máxima	13.9
103347	7	Sololá	702	San José Chacayá	5	Chacayá	6	Junio	2023-06-23T00:00:00	2024-11-06T07:00:00	3	Temperatura mínima	11.8
103348	7	Sololá	702	San José Chacayá	5	Chacayá	6	Junio	2023-06-23T00:00:00	2024-11-06T07:00:00	5	Humedad	97
103349	7	Sololá	702	San José Chacayá	5	Chacayá	6	Junio	2023-06-23T00:00:00	2024-11-06T07:00:00	6	Velocidad del viento	0
103350	7	Sololá	702	San José Chacayá	5	Chacayá	6	Junio	2023-06-23T00:00:00	2024-11-06T07:00:00	7	Dirección del viento	0
103351	7	Sololá	702	San José Chacayá	5	Chacayá	6	Junio	2023-06-23T00:00:00	2024-11-06T07:00:00	1	Precipitación	0
103352	7	Sololá	702	San José Chacayá	5	Chacayá	6	Junio	2023-06-23T00:00:00	2024-11-06T07:00:00	8	Radiación solar	67
103353	7	Sololá	702	San José Chacayá	5	Chacayá	6	Junio	2023-06-23T00:00:00	2024-11-06T08:00:00	2	Temperatura media	17.2
103354	7	Sololá	702	San José Chacayá	5	Chacayá	6	Junio	2023-06-23T00:00:00	2024-11-06T08:00:00	4	Temperatura máxima	17.2
103355	7	Sololá	702	San José Chacayá	5	Chacayá	6	Junio	2023-06-23T00:00:00	2024-11-06T08:00:00	3	Temperatura mínima	13.9
103356	7	Sololá	702	San José Chacayá	5	Chacayá	6	Junio	2023-06-23T00:00:00	2024-11-06T08:00:00	5	Humedad	85
103357	7	Sololá	702	San José Chacayá	5	Chacayá	6	Junio	2023-06-23T00:00:00	2024-11-06T08:00:00	6	Velocidad del viento	0
103358	7	Sololá	702	San José Chacayá	5	Chacayá	6	Junio	2023-06-23T00:00:00	2024-11-06T08:00:00	7	Dirección del viento	0
103359	7	Sololá	702	San José Chacayá	5	Chacayá	6	Junio	2023-06-23T00:00:00	2024-11-06T08:00:00	1	Precipitación	0
103360	7	Sololá	702	San José Chacayá	5	Chacayá	6	Junio	2023-06-23T00:00:00	2024-11-06T08:00:00	8	Radiación solar	167
103361	7	Sololá	702	San José Chacayá	5	Chacayá	6	Junio	2023-06-23T00:00:00	2024-11-06T09:00:00	2	Temperatura media	18.8
103362	7	Sololá	702	San José Chacayá	5	Chacayá	6	Junio	2023-06-23T00:00:00	2024-11-06T09:00:00	4	Temperatura máxima	18.8
103363	7	Sololá	702	San José Chacayá	5	Chacayá	6	Junio	2023-06-23T00:00:00	2024-11-06T09:00:00	3	Temperatura mínima	17.2
103364	7	Sololá	702	San José Chacayá	5	Chacayá	6	Junio	2023-06-23T00:00:00	2024-11-06T09:00:00	5	Humedad	79
103365	7	Sololá	702	San José Chacayá	5	Chacayá	6	Junio	2023-06-23T00:00:00	2024-11-06T09:00:00	6	Velocidad del viento	1.6
103366	7	Sololá	702	San José Chacayá	5	Chacayá	6	Junio	2023-06-23T00:00:00	2024-11-06T09:00:00	7	Dirección del viento	1.61
103367	7	Sololá	702	San José Chacayá	5	Chacayá	6	Junio	2023-06-23T00:00:00	2024-11-06T09:00:00	1	Precipitación	0
103368	7	Sololá	702	San José Chacayá	5	Chacayá	6	Junio	2023-06-23T00:00:00	2024-11-06T09:00:00	8	Radiación solar	487
103369	7	Sololá	702	San José Chacayá	5	Chacayá	6	Junio	2023-06-23T00:00:00	2024-11-06T10:00:00	2	Temperatura media	20.7
103370	7	Sololá	702	San José Chacayá	5	Chacayá	6	Junio	2023-06-23T00:00:00	2024-11-06T10:00:00	4	Temperatura máxima	20.7
103371	7	Sololá	702	San José Chacayá	5	Chacayá	6	Junio	2023-06-23T00:00:00	2024-11-06T10:00:00	3	Temperatura mínima	18.8
103372	7	Sololá	702	San José Chacayá	5	Chacayá	6	Junio	2023-06-23T00:00:00	2024-11-06T10:00:00	5	Humedad	73
103373	7	Sololá	702	San José Chacayá	5	Chacayá	6	Junio	2023-06-23T00:00:00	2024-11-06T10:00:00	6	Velocidad del viento	3.2
103374	7	Sololá	702	San José Chacayá	5	Chacayá	6	Junio	2023-06-23T00:00:00	2024-11-06T10:00:00	7	Dirección del viento	3.22
103375	7	Sololá	702	San José Chacayá	5	Chacayá	6	Junio	2023-06-23T00:00:00	2024-11-06T10:00:00	1	Precipitación	0
103376	7	Sololá	702	San José Chacayá	5	Chacayá	6	Junio	2023-06-23T00:00:00	2024-11-06T10:00:00	8	Radiación solar	751
103377	7	Sololá	702	San José Chacayá	5	Chacayá	6	Junio	2023-06-23T00:00:00	2024-11-06T11:00:00	2	Temperatura media	22.1
103378	7	Sololá	702	San José Chacayá	5	Chacayá	6	Junio	2023-06-23T00:00:00	2024-11-06T11:00:00	4	Temperatura máxima	22.4
103379	7	Sololá	702	San José Chacayá	5	Chacayá	6	Junio	2023-06-23T00:00:00	2024-11-06T11:00:00	3	Temperatura mínima	20.8
103380	7	Sololá	702	San José Chacayá	5	Chacayá	6	Junio	2023-06-23T00:00:00	2024-11-06T11:00:00	5	Humedad	63
103381	7	Sololá	702	San José Chacayá	5	Chacayá	6	Junio	2023-06-23T00:00:00	2024-11-06T11:00:00	6	Velocidad del viento	4.8
103382	7	Sololá	702	San José Chacayá	5	Chacayá	6	Junio	2023-06-23T00:00:00	2024-11-06T11:00:00	7	Dirección del viento	4.83
103383	7	Sololá	702	San José Chacayá	5	Chacayá	6	Junio	2023-06-23T00:00:00	2024-11-06T11:00:00	1	Precipitación	0
103384	7	Sololá	702	San José Chacayá	5	Chacayá	6	Junio	2023-06-23T00:00:00	2024-11-06T11:00:00	8	Radiación solar	920
103385	7	Sololá	702	San José Chacayá	5	Chacayá	6	Junio	2023-06-23T00:00:00	2024-11-06T12:00:00	2	Temperatura media	20.2
103386	7	Sololá	702	San José Chacayá	5	Chacayá	6	Junio	2023-06-23T00:00:00	2024-11-06T12:00:00	4	Temperatura máxima	22.1
103387	7	Sololá	702	San José Chacayá	5	Chacayá	6	Junio	2023-06-23T00:00:00	2024-11-06T12:00:00	3	Temperatura mínima	20.2
103388	7	Sololá	702	San José Chacayá	5	Chacayá	6	Junio	2023-06-23T00:00:00	2024-11-06T12:00:00	5	Humedad	75
103389	7	Sololá	702	San José Chacayá	5	Chacayá	6	Junio	2023-06-23T00:00:00	2024-11-06T12:00:00	6	Velocidad del viento	6.4
103390	7	Sololá	702	San José Chacayá	5	Chacayá	6	Junio	2023-06-23T00:00:00	2024-11-06T12:00:00	7	Dirección del viento	6.44
103391	7	Sololá	702	San José Chacayá	5	Chacayá	6	Junio	2023-06-23T00:00:00	2024-11-06T12:00:00	1	Precipitación	0
103392	7	Sololá	702	San José Chacayá	5	Chacayá	6	Junio	2023-06-23T00:00:00	2024-11-06T12:00:00	8	Radiación solar	491
103393	7	Sololá	702	San José Chacayá	5	Chacayá	6	Junio	2023-06-23T00:00:00	2024-11-06T13:00:00	2	Temperatura media	17.9
103394	7	Sololá	702	San José Chacayá	5	Chacayá	6	Junio	2023-06-23T00:00:00	2024-11-06T13:00:00	4	Temperatura máxima	20.6
103395	7	Sololá	702	San José Chacayá	5	Chacayá	6	Junio	2023-06-23T00:00:00	2024-11-06T13:00:00	3	Temperatura mínima	17.9
103396	7	Sololá	702	San José Chacayá	5	Chacayá	6	Junio	2023-06-23T00:00:00	2024-11-06T13:00:00	5	Humedad	83
103397	7	Sololá	702	San José Chacayá	5	Chacayá	6	Junio	2023-06-23T00:00:00	2024-11-06T13:00:00	6	Velocidad del viento	4.8
103398	7	Sololá	702	San José Chacayá	5	Chacayá	6	Junio	2023-06-23T00:00:00	2024-11-06T13:00:00	7	Dirección del viento	4.83
103399	7	Sololá	702	San José Chacayá	5	Chacayá	6	Junio	2023-06-23T00:00:00	2024-11-06T13:00:00	1	Precipitación	0
103400	7	Sololá	702	San José Chacayá	5	Chacayá	6	Junio	2023-06-23T00:00:00	2024-11-06T13:00:00	8	Radiación solar	315
103401	7	Sololá	702	San José Chacayá	5	Chacayá	6	Junio	2023-06-23T00:00:00	2024-11-06T14:00:00	2	Temperatura media	17.3
103402	7	Sololá	702	San José Chacayá	5	Chacayá	6	Junio	2023-06-23T00:00:00	2024-11-06T14:00:00	4	Temperatura máxima	18.1
103403	7	Sololá	702	San José Chacayá	5	Chacayá	6	Junio	2023-06-23T00:00:00	2024-11-06T14:00:00	3	Temperatura mínima	17.1
103404	7	Sololá	702	San José Chacayá	5	Chacayá	6	Junio	2023-06-23T00:00:00	2024-11-06T14:00:00	5	Humedad	84
103405	7	Sololá	702	San José Chacayá	5	Chacayá	6	Junio	2023-06-23T00:00:00	2024-11-06T14:00:00	6	Velocidad del viento	4.8
103406	7	Sololá	702	San José Chacayá	5	Chacayá	6	Junio	2023-06-23T00:00:00	2024-11-06T14:00:00	7	Dirección del viento	4.83
103407	7	Sololá	702	San José Chacayá	5	Chacayá	6	Junio	2023-06-23T00:00:00	2024-11-06T14:00:00	1	Precipitación	0
103408	7	Sololá	702	San José Chacayá	5	Chacayá	6	Junio	2023-06-23T00:00:00	2024-11-06T14:00:00	8	Radiación solar	389
103409	7	Sololá	702	San José Chacayá	5	Chacayá	6	Junio	2023-06-23T00:00:00	2024-11-06T15:00:00	2	Temperatura media	16.2
103410	7	Sololá	702	San José Chacayá	5	Chacayá	6	Junio	2023-06-23T00:00:00	2024-11-06T15:00:00	4	Temperatura máxima	17.3
103411	7	Sololá	702	San José Chacayá	5	Chacayá	6	Junio	2023-06-23T00:00:00	2024-11-06T15:00:00	3	Temperatura mínima	16.2
103412	7	Sololá	702	San José Chacayá	5	Chacayá	6	Junio	2023-06-23T00:00:00	2024-11-06T15:00:00	5	Humedad	92
103413	7	Sololá	702	San José Chacayá	5	Chacayá	6	Junio	2023-06-23T00:00:00	2024-11-06T15:00:00	6	Velocidad del viento	3.2
103414	7	Sololá	702	San José Chacayá	5	Chacayá	6	Junio	2023-06-23T00:00:00	2024-11-06T15:00:00	7	Dirección del viento	3.22
103415	7	Sololá	702	San José Chacayá	5	Chacayá	6	Junio	2023-06-23T00:00:00	2024-11-06T15:00:00	1	Precipitación	0.2
103416	7	Sololá	702	San José Chacayá	5	Chacayá	6	Junio	2023-06-23T00:00:00	2024-11-06T15:00:00	8	Radiación solar	344
103417	7	Sololá	702	San José Chacayá	5	Chacayá	6	Junio	2023-06-23T00:00:00	2024-11-06T16:00:00	2	Temperatura media	15.5
103418	7	Sololá	702	San José Chacayá	5	Chacayá	6	Junio	2023-06-23T00:00:00	2024-11-06T16:00:00	4	Temperatura máxima	16.2
103419	7	Sololá	702	San José Chacayá	5	Chacayá	6	Junio	2023-06-23T00:00:00	2024-11-06T16:00:00	3	Temperatura mínima	15.5
103420	7	Sololá	702	San José Chacayá	5	Chacayá	6	Junio	2023-06-23T00:00:00	2024-11-06T16:00:00	5	Humedad	93
103421	7	Sololá	702	San José Chacayá	5	Chacayá	6	Junio	2023-06-23T00:00:00	2024-11-06T16:00:00	6	Velocidad del viento	1.6
103422	7	Sololá	702	San José Chacayá	5	Chacayá	6	Junio	2023-06-23T00:00:00	2024-11-06T16:00:00	7	Dirección del viento	1.61
103423	7	Sololá	702	San José Chacayá	5	Chacayá	6	Junio	2023-06-23T00:00:00	2024-11-06T16:00:00	1	Precipitación	0.6
103424	7	Sololá	702	San José Chacayá	5	Chacayá	6	Junio	2023-06-23T00:00:00	2024-11-06T16:00:00	8	Radiación solar	11
103425	7	Sololá	702	San José Chacayá	5	Chacayá	6	Junio	2023-06-23T00:00:00	2024-11-06T17:00:00	2	Temperatura media	14.7
103426	7	Sololá	702	San José Chacayá	5	Chacayá	6	Junio	2023-06-23T00:00:00	2024-11-06T17:00:00	4	Temperatura máxima	15.6
103427	7	Sololá	702	San José Chacayá	5	Chacayá	6	Junio	2023-06-23T00:00:00	2024-11-06T17:00:00	3	Temperatura mínima	14.7
103428	7	Sololá	702	San José Chacayá	5	Chacayá	6	Junio	2023-06-23T00:00:00	2024-11-06T17:00:00	5	Humedad	92
103429	7	Sololá	702	San José Chacayá	5	Chacayá	6	Junio	2023-06-23T00:00:00	2024-11-06T17:00:00	6	Velocidad del viento	3.2
103430	7	Sololá	702	San José Chacayá	5	Chacayá	6	Junio	2023-06-23T00:00:00	2024-11-06T17:00:00	7	Dirección del viento	3.22
103431	7	Sololá	702	San José Chacayá	5	Chacayá	6	Junio	2023-06-23T00:00:00	2024-11-06T17:00:00	1	Precipitación	5.4
103432	7	Sololá	702	San José Chacayá	5	Chacayá	6	Junio	2023-06-23T00:00:00	2024-11-06T17:00:00	8	Radiación solar	40
103433	7	Sololá	702	San José Chacayá	5	Chacayá	6	Junio	2023-06-23T00:00:00	2024-11-06T18:00:00	2	Temperatura media	13.9
103434	7	Sololá	702	San José Chacayá	5	Chacayá	6	Junio	2023-06-23T00:00:00	2024-11-06T18:00:00	4	Temperatura máxima	14.7
103435	7	Sololá	702	San José Chacayá	5	Chacayá	6	Junio	2023-06-23T00:00:00	2024-11-06T18:00:00	3	Temperatura mínima	13.9
103436	7	Sololá	702	San José Chacayá	5	Chacayá	6	Junio	2023-06-23T00:00:00	2024-11-06T18:00:00	5	Humedad	95
103437	7	Sololá	702	San José Chacayá	5	Chacayá	6	Junio	2023-06-23T00:00:00	2024-11-06T18:00:00	6	Velocidad del viento	0
103438	7	Sololá	702	San José Chacayá	5	Chacayá	6	Junio	2023-06-23T00:00:00	2024-11-06T18:00:00	7	Dirección del viento	0
103439	7	Sololá	702	San José Chacayá	5	Chacayá	6	Junio	2023-06-23T00:00:00	2024-11-06T18:00:00	1	Precipitación	4.4
103440	7	Sololá	702	San José Chacayá	5	Chacayá	6	Junio	2023-06-23T00:00:00	2024-11-06T18:00:00	8	Radiación solar	56
103441	7	Sololá	702	San José Chacayá	5	Chacayá	6	Junio	2023-06-23T00:00:00	2024-11-06T19:00:00	2	Temperatura media	13.6
103442	7	Sololá	702	San José Chacayá	5	Chacayá	6	Junio	2023-06-23T00:00:00	2024-11-06T19:00:00	4	Temperatura máxima	13.9
103443	7	Sololá	702	San José Chacayá	5	Chacayá	6	Junio	2023-06-23T00:00:00	2024-11-06T19:00:00	3	Temperatura mínima	13.6
103444	7	Sololá	702	San José Chacayá	5	Chacayá	6	Junio	2023-06-23T00:00:00	2024-11-06T19:00:00	5	Humedad	95
103445	7	Sololá	702	San José Chacayá	5	Chacayá	6	Junio	2023-06-23T00:00:00	2024-11-06T19:00:00	6	Velocidad del viento	0
103446	7	Sololá	702	San José Chacayá	5	Chacayá	6	Junio	2023-06-23T00:00:00	2024-11-06T19:00:00	7	Dirección del viento	0
103447	7	Sololá	702	San José Chacayá	5	Chacayá	6	Junio	2023-06-23T00:00:00	2024-11-06T19:00:00	1	Precipitación	1.4
103448	7	Sololá	702	San José Chacayá	5	Chacayá	6	Junio	2023-06-23T00:00:00	2024-11-06T19:00:00	8	Radiación solar	0
103449	7	Sololá	702	San José Chacayá	5	Chacayá	6	Junio	2023-06-23T00:00:00	2024-11-06T20:00:00	2	Temperatura media	13.1
103450	7	Sololá	702	San José Chacayá	5	Chacayá	6	Junio	2023-06-23T00:00:00	2024-11-06T20:00:00	4	Temperatura máxima	13.6
103451	7	Sololá	702	San José Chacayá	5	Chacayá	6	Junio	2023-06-23T00:00:00	2024-11-06T20:00:00	3	Temperatura mínima	13.1
103452	7	Sololá	702	San José Chacayá	5	Chacayá	6	Junio	2023-06-23T00:00:00	2024-11-06T20:00:00	5	Humedad	94
103453	7	Sololá	702	San José Chacayá	5	Chacayá	6	Junio	2023-06-23T00:00:00	2024-11-06T20:00:00	6	Velocidad del viento	0
103454	7	Sololá	702	San José Chacayá	5	Chacayá	6	Junio	2023-06-23T00:00:00	2024-11-06T20:00:00	7	Dirección del viento	0
103455	7	Sololá	702	San José Chacayá	5	Chacayá	6	Junio	2023-06-23T00:00:00	2024-11-06T20:00:00	1	Precipitación	0
103456	7	Sololá	702	San José Chacayá	5	Chacayá	6	Junio	2023-06-23T00:00:00	2024-11-06T20:00:00	8	Radiación solar	0
103457	7	Sololá	702	San José Chacayá	5	Chacayá	6	Junio	2023-06-23T00:00:00	2024-11-06T21:00:00	2	Temperatura media	12.6
103458	7	Sololá	702	San José Chacayá	5	Chacayá	6	Junio	2023-06-23T00:00:00	2024-11-06T21:00:00	4	Temperatura máxima	13.1
103459	7	Sololá	702	San José Chacayá	5	Chacayá	6	Junio	2023-06-23T00:00:00	2024-11-06T21:00:00	3	Temperatura mínima	12.5
103460	7	Sololá	702	San José Chacayá	5	Chacayá	6	Junio	2023-06-23T00:00:00	2024-11-06T21:00:00	5	Humedad	95
103461	7	Sololá	702	San José Chacayá	5	Chacayá	6	Junio	2023-06-23T00:00:00	2024-11-06T21:00:00	6	Velocidad del viento	0
103462	7	Sololá	702	San José Chacayá	5	Chacayá	6	Junio	2023-06-23T00:00:00	2024-11-06T21:00:00	7	Dirección del viento	0
103463	7	Sololá	702	San José Chacayá	5	Chacayá	6	Junio	2023-06-23T00:00:00	2024-11-06T21:00:00	1	Precipitación	0
103464	7	Sololá	702	San José Chacayá	5	Chacayá	6	Junio	2023-06-23T00:00:00	2024-11-06T21:00:00	8	Radiación solar	0
103465	7	Sololá	702	San José Chacayá	5	Chacayá	6	Junio	2023-06-23T00:00:00	2024-11-06T22:00:00	2	Temperatura media	12.7
103466	7	Sololá	702	San José Chacayá	5	Chacayá	6	Junio	2023-06-23T00:00:00	2024-11-06T22:00:00	4	Temperatura máxima	12.8
103467	7	Sololá	702	San José Chacayá	5	Chacayá	6	Junio	2023-06-23T00:00:00	2024-11-06T22:00:00	3	Temperatura mínima	12.5
103468	7	Sololá	702	San José Chacayá	5	Chacayá	6	Junio	2023-06-23T00:00:00	2024-11-06T22:00:00	5	Humedad	95
103469	7	Sololá	702	San José Chacayá	5	Chacayá	6	Junio	2023-06-23T00:00:00	2024-11-06T22:00:00	6	Velocidad del viento	1.6
103470	7	Sololá	702	San José Chacayá	5	Chacayá	6	Junio	2023-06-23T00:00:00	2024-11-06T22:00:00	7	Dirección del viento	1.61
103471	7	Sololá	702	San José Chacayá	5	Chacayá	6	Junio	2023-06-23T00:00:00	2024-11-06T22:00:00	1	Precipitación	0
103472	7	Sololá	702	San José Chacayá	5	Chacayá	6	Junio	2023-06-23T00:00:00	2024-11-06T22:00:00	8	Radiación solar	0
103473	7	Sololá	702	San José Chacayá	5	Chacayá	6	Junio	2023-06-23T00:00:00	2024-11-06T23:00:00	2	Temperatura media	12.7
103474	7	Sololá	702	San José Chacayá	5	Chacayá	6	Junio	2023-06-23T00:00:00	2024-11-06T23:00:00	4	Temperatura máxima	13
103475	7	Sololá	702	San José Chacayá	5	Chacayá	6	Junio	2023-06-23T00:00:00	2024-11-06T23:00:00	3	Temperatura mínima	12.7
103476	7	Sololá	702	San José Chacayá	5	Chacayá	6	Junio	2023-06-23T00:00:00	2024-11-06T23:00:00	5	Humedad	95
103477	7	Sololá	702	San José Chacayá	5	Chacayá	6	Junio	2023-06-23T00:00:00	2024-11-06T23:00:00	6	Velocidad del viento	0
103478	7	Sololá	702	San José Chacayá	5	Chacayá	6	Junio	2023-06-23T00:00:00	2024-11-06T23:00:00	7	Dirección del viento	0
103479	7	Sololá	702	San José Chacayá	5	Chacayá	6	Junio	2023-06-23T00:00:00	2024-11-06T23:00:00	1	Precipitación	0
103480	7	Sololá	702	San José Chacayá	5	Chacayá	6	Junio	2023-06-23T00:00:00	2024-11-06T23:00:00	8	Radiación solar	0
103481	7	Sololá	702	San José Chacayá	5	Chacayá	6	Junio	2023-06-24T00:00:00	2024-11-06T00:00:00	2	Temperatura media	13.1
103482	7	Sololá	702	San José Chacayá	5	Chacayá	6	Junio	2023-06-24T00:00:00	2024-11-06T00:00:00	4	Temperatura máxima	13.2
103483	7	Sololá	702	San José Chacayá	5	Chacayá	6	Junio	2023-06-24T00:00:00	2024-11-06T00:00:00	3	Temperatura mínima	12.7
103484	7	Sololá	702	San José Chacayá	5	Chacayá	6	Junio	2023-06-24T00:00:00	2024-11-06T00:00:00	5	Humedad	97
103485	7	Sololá	702	San José Chacayá	5	Chacayá	6	Junio	2023-06-24T00:00:00	2024-11-06T00:00:00	6	Velocidad del viento	0
103486	7	Sololá	702	San José Chacayá	5	Chacayá	6	Junio	2023-06-24T00:00:00	2024-11-06T00:00:00	7	Dirección del viento	0
103487	7	Sololá	702	San José Chacayá	5	Chacayá	6	Junio	2023-06-24T00:00:00	2024-11-06T00:00:00	1	Precipitación	0
103488	7	Sololá	702	San José Chacayá	5	Chacayá	6	Junio	2023-06-24T00:00:00	2024-11-06T00:00:00	8	Radiación solar	0
103489	7	Sololá	702	San José Chacayá	5	Chacayá	6	Junio	2023-06-24T00:00:00	2024-11-06T01:00:00	2	Temperatura media	12.9
103490	7	Sololá	702	San José Chacayá	5	Chacayá	6	Junio	2023-06-24T00:00:00	2024-11-06T01:00:00	4	Temperatura máxima	13.2
103491	7	Sololá	702	San José Chacayá	5	Chacayá	6	Junio	2023-06-24T00:00:00	2024-11-06T01:00:00	3	Temperatura mínima	12.9
103492	7	Sololá	702	San José Chacayá	5	Chacayá	6	Junio	2023-06-24T00:00:00	2024-11-06T01:00:00	5	Humedad	96
103493	7	Sololá	702	San José Chacayá	5	Chacayá	6	Junio	2023-06-24T00:00:00	2024-11-06T01:00:00	6	Velocidad del viento	0
103494	7	Sololá	702	San José Chacayá	5	Chacayá	6	Junio	2023-06-24T00:00:00	2024-11-06T01:00:00	7	Dirección del viento	0
103495	7	Sololá	702	San José Chacayá	5	Chacayá	6	Junio	2023-06-24T00:00:00	2024-11-06T01:00:00	1	Precipitación	0
103496	7	Sololá	702	San José Chacayá	5	Chacayá	6	Junio	2023-06-24T00:00:00	2024-11-06T01:00:00	8	Radiación solar	0
103497	7	Sololá	702	San José Chacayá	5	Chacayá	6	Junio	2023-06-24T00:00:00	2024-11-06T02:00:00	2	Temperatura media	12.5
103498	7	Sololá	702	San José Chacayá	5	Chacayá	6	Junio	2023-06-24T00:00:00	2024-11-06T02:00:00	4	Temperatura máxima	13.1
103499	7	Sololá	702	San José Chacayá	5	Chacayá	6	Junio	2023-06-24T00:00:00	2024-11-06T02:00:00	3	Temperatura mínima	12.5
103500	7	Sololá	702	San José Chacayá	5	Chacayá	6	Junio	2023-06-24T00:00:00	2024-11-06T02:00:00	5	Humedad	95
103501	7	Sololá	702	San José Chacayá	5	Chacayá	6	Junio	2023-06-24T00:00:00	2024-11-06T02:00:00	6	Velocidad del viento	0
103502	7	Sololá	702	San José Chacayá	5	Chacayá	6	Junio	2023-06-24T00:00:00	2024-11-06T02:00:00	7	Dirección del viento	0
103503	7	Sololá	702	San José Chacayá	5	Chacayá	6	Junio	2023-06-24T00:00:00	2024-11-06T02:00:00	1	Precipitación	0
103504	7	Sololá	702	San José Chacayá	5	Chacayá	6	Junio	2023-06-24T00:00:00	2024-11-06T02:00:00	8	Radiación solar	0
103505	7	Sololá	702	San José Chacayá	5	Chacayá	6	Junio	2023-06-24T00:00:00	2024-11-06T03:00:00	2	Temperatura media	11.8
103506	7	Sololá	702	San José Chacayá	5	Chacayá	6	Junio	2023-06-24T00:00:00	2024-11-06T03:00:00	4	Temperatura máxima	12.6
103507	7	Sololá	702	San José Chacayá	5	Chacayá	6	Junio	2023-06-24T00:00:00	2024-11-06T03:00:00	3	Temperatura mínima	11.8
103508	7	Sololá	702	San José Chacayá	5	Chacayá	6	Junio	2023-06-24T00:00:00	2024-11-06T03:00:00	5	Humedad	96
103509	7	Sololá	702	San José Chacayá	5	Chacayá	6	Junio	2023-06-24T00:00:00	2024-11-06T03:00:00	6	Velocidad del viento	0
103510	7	Sololá	702	San José Chacayá	5	Chacayá	6	Junio	2023-06-24T00:00:00	2024-11-06T03:00:00	7	Dirección del viento	0
103511	7	Sololá	702	San José Chacayá	5	Chacayá	6	Junio	2023-06-24T00:00:00	2024-11-06T03:00:00	1	Precipitación	0
103512	7	Sololá	702	San José Chacayá	5	Chacayá	6	Junio	2023-06-24T00:00:00	2024-11-06T03:00:00	8	Radiación solar	0
103513	7	Sololá	702	San José Chacayá	5	Chacayá	6	Junio	2023-06-24T00:00:00	2024-11-06T04:00:00	2	Temperatura media	11.8
103514	7	Sololá	702	San José Chacayá	5	Chacayá	6	Junio	2023-06-24T00:00:00	2024-11-06T04:00:00	4	Temperatura máxima	11.9
103515	7	Sololá	702	San José Chacayá	5	Chacayá	6	Junio	2023-06-24T00:00:00	2024-11-06T04:00:00	3	Temperatura mínima	11.7
103516	7	Sololá	702	San José Chacayá	5	Chacayá	6	Junio	2023-06-24T00:00:00	2024-11-06T04:00:00	5	Humedad	96
103517	7	Sololá	702	San José Chacayá	5	Chacayá	6	Junio	2023-06-24T00:00:00	2024-11-06T04:00:00	6	Velocidad del viento	0
103518	7	Sololá	702	San José Chacayá	5	Chacayá	6	Junio	2023-06-24T00:00:00	2024-11-06T04:00:00	7	Dirección del viento	0
103519	7	Sololá	702	San José Chacayá	5	Chacayá	6	Junio	2023-06-24T00:00:00	2024-11-06T04:00:00	1	Precipitación	0
103520	7	Sololá	702	San José Chacayá	5	Chacayá	6	Junio	2023-06-24T00:00:00	2024-11-06T04:00:00	8	Radiación solar	0
103521	7	Sololá	702	San José Chacayá	5	Chacayá	6	Junio	2023-06-24T00:00:00	2024-11-06T05:00:00	2	Temperatura media	11.6
103522	7	Sololá	702	San José Chacayá	5	Chacayá	6	Junio	2023-06-24T00:00:00	2024-11-06T05:00:00	4	Temperatura máxima	11.8
103523	7	Sololá	702	San José Chacayá	5	Chacayá	6	Junio	2023-06-24T00:00:00	2024-11-06T05:00:00	3	Temperatura mínima	11.6
103524	7	Sololá	702	San José Chacayá	5	Chacayá	6	Junio	2023-06-24T00:00:00	2024-11-06T05:00:00	5	Humedad	96
103525	7	Sololá	702	San José Chacayá	5	Chacayá	6	Junio	2023-06-24T00:00:00	2024-11-06T05:00:00	6	Velocidad del viento	0
103526	7	Sololá	702	San José Chacayá	5	Chacayá	6	Junio	2023-06-24T00:00:00	2024-11-06T05:00:00	7	Dirección del viento	0
103527	7	Sololá	702	San José Chacayá	5	Chacayá	6	Junio	2023-06-24T00:00:00	2024-11-06T05:00:00	1	Precipitación	0
103528	7	Sololá	702	San José Chacayá	5	Chacayá	6	Junio	2023-06-24T00:00:00	2024-11-06T05:00:00	8	Radiación solar	0
103529	7	Sololá	702	San José Chacayá	5	Chacayá	6	Junio	2023-06-24T00:00:00	2024-11-06T06:00:00	2	Temperatura media	11.2
103530	7	Sololá	702	San José Chacayá	5	Chacayá	6	Junio	2023-06-24T00:00:00	2024-11-06T06:00:00	4	Temperatura máxima	11.6
103531	7	Sololá	702	San José Chacayá	5	Chacayá	6	Junio	2023-06-24T00:00:00	2024-11-06T06:00:00	3	Temperatura mínima	11.1
103532	7	Sololá	702	San José Chacayá	5	Chacayá	6	Junio	2023-06-24T00:00:00	2024-11-06T06:00:00	5	Humedad	96
103533	7	Sololá	702	San José Chacayá	5	Chacayá	6	Junio	2023-06-24T00:00:00	2024-11-06T06:00:00	6	Velocidad del viento	0
103534	7	Sololá	702	San José Chacayá	5	Chacayá	6	Junio	2023-06-24T00:00:00	2024-11-06T06:00:00	7	Dirección del viento	0
103535	7	Sololá	702	San José Chacayá	5	Chacayá	6	Junio	2023-06-24T00:00:00	2024-11-06T06:00:00	1	Precipitación	0
103536	7	Sololá	702	San José Chacayá	5	Chacayá	6	Junio	2023-06-24T00:00:00	2024-11-06T06:00:00	8	Radiación solar	4
103537	7	Sololá	702	San José Chacayá	5	Chacayá	6	Junio	2023-06-24T00:00:00	2024-11-06T07:00:00	2	Temperatura media	12
103538	7	Sololá	702	San José Chacayá	5	Chacayá	6	Junio	2023-06-24T00:00:00	2024-11-06T07:00:00	4	Temperatura máxima	12.1
103539	7	Sololá	702	San José Chacayá	5	Chacayá	6	Junio	2023-06-24T00:00:00	2024-11-06T07:00:00	3	Temperatura mínima	11.2
103540	7	Sololá	702	San José Chacayá	5	Chacayá	6	Junio	2023-06-24T00:00:00	2024-11-06T07:00:00	5	Humedad	96
103541	7	Sololá	702	San José Chacayá	5	Chacayá	6	Junio	2023-06-24T00:00:00	2024-11-06T07:00:00	6	Velocidad del viento	0
103542	7	Sololá	702	San José Chacayá	5	Chacayá	6	Junio	2023-06-24T00:00:00	2024-11-06T07:00:00	7	Dirección del viento	0
103543	7	Sololá	702	San José Chacayá	5	Chacayá	6	Junio	2023-06-24T00:00:00	2024-11-06T07:00:00	1	Precipitación	0
103544	7	Sololá	702	San José Chacayá	5	Chacayá	6	Junio	2023-06-24T00:00:00	2024-11-06T07:00:00	8	Radiación solar	62
103545	7	Sololá	702	San José Chacayá	5	Chacayá	6	Junio	2023-06-24T00:00:00	2024-11-06T08:00:00	2	Temperatura media	14.3
103546	7	Sololá	702	San José Chacayá	5	Chacayá	6	Junio	2023-06-24T00:00:00	2024-11-06T08:00:00	4	Temperatura máxima	14.3
103547	7	Sololá	702	San José Chacayá	5	Chacayá	6	Junio	2023-06-24T00:00:00	2024-11-06T08:00:00	3	Temperatura mínima	12
103548	7	Sololá	702	San José Chacayá	5	Chacayá	6	Junio	2023-06-24T00:00:00	2024-11-06T08:00:00	5	Humedad	96
103549	7	Sololá	702	San José Chacayá	5	Chacayá	6	Junio	2023-06-24T00:00:00	2024-11-06T08:00:00	6	Velocidad del viento	0
103550	7	Sololá	702	San José Chacayá	5	Chacayá	6	Junio	2023-06-24T00:00:00	2024-11-06T08:00:00	7	Dirección del viento	0
103551	7	Sololá	702	San José Chacayá	5	Chacayá	6	Junio	2023-06-24T00:00:00	2024-11-06T08:00:00	1	Precipitación	0
103552	7	Sololá	702	San José Chacayá	5	Chacayá	6	Junio	2023-06-24T00:00:00	2024-11-06T08:00:00	8	Radiación solar	248
103553	7	Sololá	702	San José Chacayá	5	Chacayá	6	Junio	2023-06-24T00:00:00	2024-11-06T09:00:00	2	Temperatura media	18.7
103554	7	Sololá	702	San José Chacayá	5	Chacayá	6	Junio	2023-06-24T00:00:00	2024-11-06T09:00:00	4	Temperatura máxima	18.7
103555	7	Sololá	702	San José Chacayá	5	Chacayá	6	Junio	2023-06-24T00:00:00	2024-11-06T09:00:00	3	Temperatura mínima	14.3
103556	7	Sololá	702	San José Chacayá	5	Chacayá	6	Junio	2023-06-24T00:00:00	2024-11-06T09:00:00	5	Humedad	75
103557	7	Sololá	702	San José Chacayá	5	Chacayá	6	Junio	2023-06-24T00:00:00	2024-11-06T09:00:00	6	Velocidad del viento	1.6
103558	7	Sololá	702	San José Chacayá	5	Chacayá	6	Junio	2023-06-24T00:00:00	2024-11-06T09:00:00	7	Dirección del viento	1.61
103559	7	Sololá	702	San José Chacayá	5	Chacayá	6	Junio	2023-06-24T00:00:00	2024-11-06T09:00:00	1	Precipitación	0
103560	7	Sololá	702	San José Chacayá	5	Chacayá	6	Junio	2023-06-24T00:00:00	2024-11-06T09:00:00	8	Radiación solar	585
103561	7	Sololá	702	San José Chacayá	5	Chacayá	6	Junio	2023-06-24T00:00:00	2024-11-06T10:00:00	2	Temperatura media	20.5
103562	7	Sololá	702	San José Chacayá	5	Chacayá	6	Junio	2023-06-24T00:00:00	2024-11-06T10:00:00	4	Temperatura máxima	20.6
103563	7	Sololá	702	San José Chacayá	5	Chacayá	6	Junio	2023-06-24T00:00:00	2024-11-06T10:00:00	3	Temperatura mínima	18.7
103564	7	Sololá	702	San José Chacayá	5	Chacayá	6	Junio	2023-06-24T00:00:00	2024-11-06T10:00:00	5	Humedad	76
103565	7	Sololá	702	San José Chacayá	5	Chacayá	6	Junio	2023-06-24T00:00:00	2024-11-06T10:00:00	6	Velocidad del viento	1.6
103566	7	Sololá	702	San José Chacayá	5	Chacayá	6	Junio	2023-06-24T00:00:00	2024-11-06T10:00:00	7	Dirección del viento	1.61
103567	7	Sololá	702	San José Chacayá	5	Chacayá	6	Junio	2023-06-24T00:00:00	2024-11-06T10:00:00	1	Precipitación	0
103568	7	Sololá	702	San José Chacayá	5	Chacayá	6	Junio	2023-06-24T00:00:00	2024-11-06T10:00:00	8	Radiación solar	767
103569	7	Sololá	702	San José Chacayá	5	Chacayá	6	Junio	2023-06-24T00:00:00	2024-11-06T11:00:00	2	Temperatura media	19.9
103570	7	Sololá	702	San José Chacayá	5	Chacayá	6	Junio	2023-06-24T00:00:00	2024-11-06T11:00:00	4	Temperatura máxima	20.7
103571	7	Sololá	702	San José Chacayá	5	Chacayá	6	Junio	2023-06-24T00:00:00	2024-11-06T11:00:00	3	Temperatura mínima	19.2
103572	7	Sololá	702	San José Chacayá	5	Chacayá	6	Junio	2023-06-24T00:00:00	2024-11-06T11:00:00	5	Humedad	79
103573	7	Sololá	702	San José Chacayá	5	Chacayá	6	Junio	2023-06-24T00:00:00	2024-11-06T11:00:00	6	Velocidad del viento	3.2
103574	7	Sololá	702	San José Chacayá	5	Chacayá	6	Junio	2023-06-24T00:00:00	2024-11-06T11:00:00	7	Dirección del viento	3.22
103575	7	Sololá	702	San José Chacayá	5	Chacayá	6	Junio	2023-06-24T00:00:00	2024-11-06T11:00:00	1	Precipitación	0
103576	7	Sololá	702	San José Chacayá	5	Chacayá	6	Junio	2023-06-24T00:00:00	2024-11-06T11:00:00	8	Radiación solar	847
103577	7	Sololá	702	San José Chacayá	5	Chacayá	6	Junio	2023-06-24T00:00:00	2024-11-06T12:00:00	2	Temperatura media	20.3
103578	7	Sololá	702	San José Chacayá	5	Chacayá	6	Junio	2023-06-24T00:00:00	2024-11-06T12:00:00	4	Temperatura máxima	20.5
103579	7	Sololá	702	San José Chacayá	5	Chacayá	6	Junio	2023-06-24T00:00:00	2024-11-06T12:00:00	3	Temperatura mínima	19.8
103580	7	Sololá	702	San José Chacayá	5	Chacayá	6	Junio	2023-06-24T00:00:00	2024-11-06T12:00:00	5	Humedad	75
103581	7	Sololá	702	San José Chacayá	5	Chacayá	6	Junio	2023-06-24T00:00:00	2024-11-06T12:00:00	6	Velocidad del viento	3.2
103582	7	Sololá	702	San José Chacayá	5	Chacayá	6	Junio	2023-06-24T00:00:00	2024-11-06T12:00:00	7	Dirección del viento	3.22
103583	7	Sololá	702	San José Chacayá	5	Chacayá	6	Junio	2023-06-24T00:00:00	2024-11-06T12:00:00	1	Precipitación	0
103584	7	Sololá	702	San José Chacayá	5	Chacayá	6	Junio	2023-06-24T00:00:00	2024-11-06T12:00:00	8	Radiación solar	269
103585	7	Sololá	702	San José Chacayá	5	Chacayá	6	Junio	2023-06-24T00:00:00	2024-11-06T13:00:00	2	Temperatura media	21.7
103586	7	Sololá	702	San José Chacayá	5	Chacayá	6	Junio	2023-06-24T00:00:00	2024-11-06T13:00:00	4	Temperatura máxima	21.8
103587	7	Sololá	702	San José Chacayá	5	Chacayá	6	Junio	2023-06-24T00:00:00	2024-11-06T13:00:00	3	Temperatura mínima	20
103588	7	Sololá	702	San José Chacayá	5	Chacayá	6	Junio	2023-06-24T00:00:00	2024-11-06T13:00:00	5	Humedad	74
103589	7	Sololá	702	San José Chacayá	5	Chacayá	6	Junio	2023-06-24T00:00:00	2024-11-06T13:00:00	6	Velocidad del viento	3.2
103590	7	Sololá	702	San José Chacayá	5	Chacayá	6	Junio	2023-06-24T00:00:00	2024-11-06T13:00:00	7	Dirección del viento	3.22
103591	7	Sololá	702	San José Chacayá	5	Chacayá	6	Junio	2023-06-24T00:00:00	2024-11-06T13:00:00	1	Precipitación	0
103592	7	Sololá	702	San José Chacayá	5	Chacayá	6	Junio	2023-06-24T00:00:00	2024-11-06T13:00:00	8	Radiación solar	527
103593	7	Sololá	702	San José Chacayá	5	Chacayá	6	Junio	2023-06-24T00:00:00	2024-11-06T14:00:00	2	Temperatura media	19.1
103594	7	Sololá	702	San José Chacayá	5	Chacayá	6	Junio	2023-06-24T00:00:00	2024-11-06T14:00:00	4	Temperatura máxima	22
103595	7	Sololá	702	San José Chacayá	5	Chacayá	6	Junio	2023-06-24T00:00:00	2024-11-06T14:00:00	3	Temperatura mínima	19.1
103596	7	Sololá	702	San José Chacayá	5	Chacayá	6	Junio	2023-06-24T00:00:00	2024-11-06T14:00:00	5	Humedad	82
103597	7	Sololá	702	San José Chacayá	5	Chacayá	6	Junio	2023-06-24T00:00:00	2024-11-06T14:00:00	6	Velocidad del viento	1.6
103598	7	Sololá	702	San José Chacayá	5	Chacayá	6	Junio	2023-06-24T00:00:00	2024-11-06T14:00:00	7	Dirección del viento	1.61
103599	7	Sololá	702	San José Chacayá	5	Chacayá	6	Junio	2023-06-24T00:00:00	2024-11-06T14:00:00	1	Precipitación	0
103600	7	Sololá	702	San José Chacayá	5	Chacayá	6	Junio	2023-06-24T00:00:00	2024-11-06T14:00:00	8	Radiación solar	724
103601	7	Sololá	702	San José Chacayá	5	Chacayá	6	Junio	2023-06-24T00:00:00	2024-11-06T15:00:00	2	Temperatura media	17.9
103602	7	Sololá	702	San José Chacayá	5	Chacayá	6	Junio	2023-06-24T00:00:00	2024-11-06T15:00:00	4	Temperatura máxima	19.1
103603	7	Sololá	702	San José Chacayá	5	Chacayá	6	Junio	2023-06-24T00:00:00	2024-11-06T15:00:00	3	Temperatura mínima	17.9
103604	7	Sololá	702	San José Chacayá	5	Chacayá	6	Junio	2023-06-24T00:00:00	2024-11-06T15:00:00	5	Humedad	89
103605	7	Sololá	702	San José Chacayá	5	Chacayá	6	Junio	2023-06-24T00:00:00	2024-11-06T15:00:00	6	Velocidad del viento	1.6
103606	7	Sololá	702	San José Chacayá	5	Chacayá	6	Junio	2023-06-24T00:00:00	2024-11-06T15:00:00	7	Dirección del viento	1.61
103607	7	Sololá	702	San José Chacayá	5	Chacayá	6	Junio	2023-06-24T00:00:00	2024-11-06T15:00:00	1	Precipitación	0
103608	7	Sololá	702	San José Chacayá	5	Chacayá	6	Junio	2023-06-24T00:00:00	2024-11-06T15:00:00	8	Radiación solar	176
103609	7	Sololá	702	San José Chacayá	5	Chacayá	6	Junio	2023-06-24T00:00:00	2024-11-06T16:00:00	2	Temperatura media	18.7
103610	7	Sololá	702	San José Chacayá	5	Chacayá	6	Junio	2023-06-24T00:00:00	2024-11-06T16:00:00	4	Temperatura máxima	18.7
103611	7	Sololá	702	San José Chacayá	5	Chacayá	6	Junio	2023-06-24T00:00:00	2024-11-06T16:00:00	3	Temperatura mínima	17.7
103612	7	Sololá	702	San José Chacayá	5	Chacayá	6	Junio	2023-06-24T00:00:00	2024-11-06T16:00:00	5	Humedad	84
103613	7	Sololá	702	San José Chacayá	5	Chacayá	6	Junio	2023-06-24T00:00:00	2024-11-06T16:00:00	6	Velocidad del viento	1.6
103614	7	Sololá	702	San José Chacayá	5	Chacayá	6	Junio	2023-06-24T00:00:00	2024-11-06T16:00:00	7	Dirección del viento	1.61
103615	7	Sololá	702	San José Chacayá	5	Chacayá	6	Junio	2023-06-24T00:00:00	2024-11-06T16:00:00	1	Precipitación	0
103616	7	Sololá	702	San José Chacayá	5	Chacayá	6	Junio	2023-06-24T00:00:00	2024-11-06T16:00:00	8	Radiación solar	228
103617	7	Sololá	702	San José Chacayá	5	Chacayá	6	Junio	2023-06-24T00:00:00	2024-11-06T17:00:00	2	Temperatura media	16
103618	7	Sololá	702	San José Chacayá	5	Chacayá	6	Junio	2023-06-24T00:00:00	2024-11-06T17:00:00	4	Temperatura máxima	19.2
103619	7	Sololá	702	San José Chacayá	5	Chacayá	6	Junio	2023-06-24T00:00:00	2024-11-06T17:00:00	3	Temperatura mínima	16
103620	7	Sololá	702	San José Chacayá	5	Chacayá	6	Junio	2023-06-24T00:00:00	2024-11-06T17:00:00	5	Humedad	92
103621	7	Sololá	702	San José Chacayá	5	Chacayá	6	Junio	2023-06-24T00:00:00	2024-11-06T17:00:00	6	Velocidad del viento	1.6
103622	7	Sololá	702	San José Chacayá	5	Chacayá	6	Junio	2023-06-24T00:00:00	2024-11-06T17:00:00	7	Dirección del viento	1.61
103623	7	Sololá	702	San José Chacayá	5	Chacayá	6	Junio	2023-06-24T00:00:00	2024-11-06T17:00:00	1	Precipitación	11.4
103624	7	Sololá	702	San José Chacayá	5	Chacayá	6	Junio	2023-06-24T00:00:00	2024-11-06T17:00:00	8	Radiación solar	323
103625	7	Sololá	702	San José Chacayá	5	Chacayá	6	Junio	2023-06-24T00:00:00	2024-11-06T18:00:00	2	Temperatura media	15.4
103626	7	Sololá	702	San José Chacayá	5	Chacayá	6	Junio	2023-06-24T00:00:00	2024-11-06T18:00:00	4	Temperatura máxima	16
103627	7	Sololá	702	San José Chacayá	5	Chacayá	6	Junio	2023-06-24T00:00:00	2024-11-06T18:00:00	3	Temperatura mínima	15.3
103628	7	Sololá	702	San José Chacayá	5	Chacayá	6	Junio	2023-06-24T00:00:00	2024-11-06T18:00:00	5	Humedad	95
103629	7	Sololá	702	San José Chacayá	5	Chacayá	6	Junio	2023-06-24T00:00:00	2024-11-06T18:00:00	6	Velocidad del viento	1.6
103630	7	Sololá	702	San José Chacayá	5	Chacayá	6	Junio	2023-06-24T00:00:00	2024-11-06T18:00:00	7	Dirección del viento	1.61
103631	7	Sololá	702	San José Chacayá	5	Chacayá	6	Junio	2023-06-24T00:00:00	2024-11-06T18:00:00	1	Precipitación	22.4
103632	7	Sololá	702	San José Chacayá	5	Chacayá	6	Junio	2023-06-24T00:00:00	2024-11-06T18:00:00	8	Radiación solar	106
103633	7	Sololá	702	San José Chacayá	5	Chacayá	6	Junio	2023-06-24T00:00:00	2024-11-06T19:00:00	2	Temperatura media	15.1
103634	7	Sololá	702	San José Chacayá	5	Chacayá	6	Junio	2023-06-24T00:00:00	2024-11-06T19:00:00	4	Temperatura máxima	15.5
103635	7	Sololá	702	San José Chacayá	5	Chacayá	6	Junio	2023-06-24T00:00:00	2024-11-06T19:00:00	3	Temperatura mínima	15.1
103636	7	Sololá	702	San José Chacayá	5	Chacayá	6	Junio	2023-06-24T00:00:00	2024-11-06T19:00:00	5	Humedad	95
103637	7	Sololá	702	San José Chacayá	5	Chacayá	6	Junio	2023-06-24T00:00:00	2024-11-06T19:00:00	6	Velocidad del viento	1.6
103638	7	Sololá	702	San José Chacayá	5	Chacayá	6	Junio	2023-06-24T00:00:00	2024-11-06T19:00:00	7	Dirección del viento	1.61
103639	7	Sololá	702	San José Chacayá	5	Chacayá	6	Junio	2023-06-24T00:00:00	2024-11-06T19:00:00	1	Precipitación	3.2
103640	7	Sololá	702	San José Chacayá	5	Chacayá	6	Junio	2023-06-24T00:00:00	2024-11-06T19:00:00	8	Radiación solar	0
103641	7	Sololá	702	San José Chacayá	5	Chacayá	6	Junio	2023-06-24T00:00:00	2024-11-06T20:00:00	2	Temperatura media	14.9
103642	7	Sololá	702	San José Chacayá	5	Chacayá	6	Junio	2023-06-24T00:00:00	2024-11-06T20:00:00	4	Temperatura máxima	15.1
103643	7	Sololá	702	San José Chacayá	5	Chacayá	6	Junio	2023-06-24T00:00:00	2024-11-06T20:00:00	3	Temperatura mínima	14.9
103644	7	Sololá	702	San José Chacayá	5	Chacayá	6	Junio	2023-06-24T00:00:00	2024-11-06T20:00:00	5	Humedad	95
103645	7	Sololá	702	San José Chacayá	5	Chacayá	6	Junio	2023-06-24T00:00:00	2024-11-06T20:00:00	6	Velocidad del viento	0
103646	7	Sololá	702	San José Chacayá	5	Chacayá	6	Junio	2023-06-24T00:00:00	2024-11-06T20:00:00	7	Dirección del viento	0
103647	7	Sololá	702	San José Chacayá	5	Chacayá	6	Junio	2023-06-24T00:00:00	2024-11-06T20:00:00	1	Precipitación	0
103648	7	Sololá	702	San José Chacayá	5	Chacayá	6	Junio	2023-06-24T00:00:00	2024-11-06T20:00:00	8	Radiación solar	0
103649	7	Sololá	702	San José Chacayá	5	Chacayá	6	Junio	2023-06-24T00:00:00	2024-11-06T21:00:00	2	Temperatura media	14.8
103650	7	Sololá	702	San José Chacayá	5	Chacayá	6	Junio	2023-06-24T00:00:00	2024-11-06T21:00:00	4	Temperatura máxima	14.9
103651	7	Sololá	702	San José Chacayá	5	Chacayá	6	Junio	2023-06-24T00:00:00	2024-11-06T21:00:00	3	Temperatura mínima	14.8
103652	7	Sololá	702	San José Chacayá	5	Chacayá	6	Junio	2023-06-24T00:00:00	2024-11-06T21:00:00	5	Humedad	96
103653	7	Sololá	702	San José Chacayá	5	Chacayá	6	Junio	2023-06-24T00:00:00	2024-11-06T21:00:00	6	Velocidad del viento	0
103654	7	Sololá	702	San José Chacayá	5	Chacayá	6	Junio	2023-06-24T00:00:00	2024-11-06T21:00:00	7	Dirección del viento	0
103655	7	Sololá	702	San José Chacayá	5	Chacayá	6	Junio	2023-06-24T00:00:00	2024-11-06T21:00:00	1	Precipitación	0
103656	7	Sololá	702	San José Chacayá	5	Chacayá	6	Junio	2023-06-24T00:00:00	2024-11-06T21:00:00	8	Radiación solar	0
103657	7	Sololá	702	San José Chacayá	5	Chacayá	6	Junio	2023-06-24T00:00:00	2024-11-06T22:00:00	2	Temperatura media	14.5
103658	7	Sololá	702	San José Chacayá	5	Chacayá	6	Junio	2023-06-24T00:00:00	2024-11-06T22:00:00	4	Temperatura máxima	14.8
103659	7	Sololá	702	San José Chacayá	5	Chacayá	6	Junio	2023-06-24T00:00:00	2024-11-06T22:00:00	3	Temperatura mínima	14.5
103660	7	Sololá	702	San José Chacayá	5	Chacayá	6	Junio	2023-06-24T00:00:00	2024-11-06T22:00:00	5	Humedad	96
103661	7	Sololá	702	San José Chacayá	5	Chacayá	6	Junio	2023-06-24T00:00:00	2024-11-06T22:00:00	6	Velocidad del viento	0
103662	7	Sololá	702	San José Chacayá	5	Chacayá	6	Junio	2023-06-24T00:00:00	2024-11-06T22:00:00	7	Dirección del viento	0
103663	7	Sololá	702	San José Chacayá	5	Chacayá	6	Junio	2023-06-24T00:00:00	2024-11-06T22:00:00	1	Precipitación	0
103664	7	Sololá	702	San José Chacayá	5	Chacayá	6	Junio	2023-06-24T00:00:00	2024-11-06T22:00:00	8	Radiación solar	0
103665	7	Sololá	702	San José Chacayá	5	Chacayá	6	Junio	2023-06-24T00:00:00	2024-11-06T23:00:00	2	Temperatura media	14.2
103666	7	Sololá	702	San José Chacayá	5	Chacayá	6	Junio	2023-06-24T00:00:00	2024-11-06T23:00:00	4	Temperatura máxima	14.6
103667	7	Sololá	702	San José Chacayá	5	Chacayá	6	Junio	2023-06-24T00:00:00	2024-11-06T23:00:00	3	Temperatura mínima	14.2
103668	7	Sololá	702	San José Chacayá	5	Chacayá	6	Junio	2023-06-24T00:00:00	2024-11-06T23:00:00	5	Humedad	95
103669	7	Sololá	702	San José Chacayá	5	Chacayá	6	Junio	2023-06-24T00:00:00	2024-11-06T23:00:00	6	Velocidad del viento	0
103670	7	Sololá	702	San José Chacayá	5	Chacayá	6	Junio	2023-06-24T00:00:00	2024-11-06T23:00:00	7	Dirección del viento	0
103671	7	Sololá	702	San José Chacayá	5	Chacayá	6	Junio	2023-06-24T00:00:00	2024-11-06T23:00:00	1	Precipitación	0
103672	7	Sololá	702	San José Chacayá	5	Chacayá	6	Junio	2023-06-24T00:00:00	2024-11-06T23:00:00	8	Radiación solar	0
103673	7	Sololá	702	San José Chacayá	5	Chacayá	6	Junio	2023-06-25T00:00:00	2024-11-06T00:00:00	2	Temperatura media	13.7
103674	7	Sololá	702	San José Chacayá	5	Chacayá	6	Junio	2023-06-25T00:00:00	2024-11-06T00:00:00	4	Temperatura máxima	14.2
103675	7	Sololá	702	San José Chacayá	5	Chacayá	6	Junio	2023-06-25T00:00:00	2024-11-06T00:00:00	3	Temperatura mínima	13.6
103676	7	Sololá	702	San José Chacayá	5	Chacayá	6	Junio	2023-06-25T00:00:00	2024-11-06T00:00:00	5	Humedad	96
103677	7	Sololá	702	San José Chacayá	5	Chacayá	6	Junio	2023-06-25T00:00:00	2024-11-06T00:00:00	6	Velocidad del viento	0
103678	7	Sololá	702	San José Chacayá	5	Chacayá	6	Junio	2023-06-25T00:00:00	2024-11-06T00:00:00	7	Dirección del viento	0
103679	7	Sololá	702	San José Chacayá	5	Chacayá	6	Junio	2023-06-25T00:00:00	2024-11-06T00:00:00	1	Precipitación	0
103680	7	Sololá	702	San José Chacayá	5	Chacayá	6	Junio	2023-06-25T00:00:00	2024-11-06T00:00:00	8	Radiación solar	0
103681	7	Sololá	702	San José Chacayá	5	Chacayá	6	Junio	2023-06-25T00:00:00	2024-11-06T01:00:00	2	Temperatura media	13.9
103682	7	Sololá	702	San José Chacayá	5	Chacayá	6	Junio	2023-06-25T00:00:00	2024-11-06T01:00:00	4	Temperatura máxima	13.9
103683	7	Sololá	702	San José Chacayá	5	Chacayá	6	Junio	2023-06-25T00:00:00	2024-11-06T01:00:00	3	Temperatura mínima	13.6
103684	7	Sololá	702	San José Chacayá	5	Chacayá	6	Junio	2023-06-25T00:00:00	2024-11-06T01:00:00	5	Humedad	97
103685	7	Sololá	702	San José Chacayá	5	Chacayá	6	Junio	2023-06-25T00:00:00	2024-11-06T01:00:00	6	Velocidad del viento	0
103686	7	Sololá	702	San José Chacayá	5	Chacayá	6	Junio	2023-06-25T00:00:00	2024-11-06T01:00:00	7	Dirección del viento	0
103687	7	Sololá	702	San José Chacayá	5	Chacayá	6	Junio	2023-06-25T00:00:00	2024-11-06T01:00:00	1	Precipitación	0
103688	7	Sololá	702	San José Chacayá	5	Chacayá	6	Junio	2023-06-25T00:00:00	2024-11-06T01:00:00	8	Radiación solar	0
103689	7	Sololá	702	San José Chacayá	5	Chacayá	6	Junio	2023-06-25T00:00:00	2024-11-06T02:00:00	2	Temperatura media	13.8
103690	7	Sololá	702	San José Chacayá	5	Chacayá	6	Junio	2023-06-25T00:00:00	2024-11-06T02:00:00	4	Temperatura máxima	14.1
103691	7	Sololá	702	San José Chacayá	5	Chacayá	6	Junio	2023-06-25T00:00:00	2024-11-06T02:00:00	3	Temperatura mínima	13.8
103692	7	Sololá	702	San José Chacayá	5	Chacayá	6	Junio	2023-06-25T00:00:00	2024-11-06T02:00:00	5	Humedad	96
103693	7	Sololá	702	San José Chacayá	5	Chacayá	6	Junio	2023-06-25T00:00:00	2024-11-06T02:00:00	6	Velocidad del viento	1.6
103694	7	Sololá	702	San José Chacayá	5	Chacayá	6	Junio	2023-06-25T00:00:00	2024-11-06T02:00:00	7	Dirección del viento	1.61
103695	7	Sololá	702	San José Chacayá	5	Chacayá	6	Junio	2023-06-25T00:00:00	2024-11-06T02:00:00	1	Precipitación	1.8
103696	7	Sololá	702	San José Chacayá	5	Chacayá	6	Junio	2023-06-25T00:00:00	2024-11-06T02:00:00	8	Radiación solar	0
103697	7	Sololá	702	San José Chacayá	5	Chacayá	6	Junio	2023-06-25T00:00:00	2024-11-06T03:00:00	2	Temperatura media	12.9
103698	7	Sololá	702	San José Chacayá	5	Chacayá	6	Junio	2023-06-25T00:00:00	2024-11-06T03:00:00	4	Temperatura máxima	13.8
103699	7	Sololá	702	San José Chacayá	5	Chacayá	6	Junio	2023-06-25T00:00:00	2024-11-06T03:00:00	3	Temperatura mínima	12.9
103700	7	Sololá	702	San José Chacayá	5	Chacayá	6	Junio	2023-06-25T00:00:00	2024-11-06T03:00:00	5	Humedad	95
103701	7	Sololá	702	San José Chacayá	5	Chacayá	6	Junio	2023-06-25T00:00:00	2024-11-06T03:00:00	6	Velocidad del viento	0
103702	7	Sololá	702	San José Chacayá	5	Chacayá	6	Junio	2023-06-25T00:00:00	2024-11-06T03:00:00	7	Dirección del viento	0
103703	7	Sololá	702	San José Chacayá	5	Chacayá	6	Junio	2023-06-25T00:00:00	2024-11-06T03:00:00	1	Precipitación	0.8
103704	7	Sololá	702	San José Chacayá	5	Chacayá	6	Junio	2023-06-25T00:00:00	2024-11-06T03:00:00	8	Radiación solar	0
103705	7	Sololá	702	San José Chacayá	5	Chacayá	6	Junio	2023-06-25T00:00:00	2024-11-06T04:00:00	2	Temperatura media	12.3
103706	7	Sololá	702	San José Chacayá	5	Chacayá	6	Junio	2023-06-25T00:00:00	2024-11-06T04:00:00	4	Temperatura máxima	12.9
103707	7	Sololá	702	San José Chacayá	5	Chacayá	6	Junio	2023-06-25T00:00:00	2024-11-06T04:00:00	3	Temperatura mínima	12.3
103708	7	Sololá	702	San José Chacayá	5	Chacayá	6	Junio	2023-06-25T00:00:00	2024-11-06T04:00:00	5	Humedad	96
103709	7	Sololá	702	San José Chacayá	5	Chacayá	6	Junio	2023-06-25T00:00:00	2024-11-06T04:00:00	6	Velocidad del viento	0
103710	7	Sololá	702	San José Chacayá	5	Chacayá	6	Junio	2023-06-25T00:00:00	2024-11-06T04:00:00	7	Dirección del viento	0
103711	7	Sololá	702	San José Chacayá	5	Chacayá	6	Junio	2023-06-25T00:00:00	2024-11-06T04:00:00	1	Precipitación	0
103712	7	Sololá	702	San José Chacayá	5	Chacayá	6	Junio	2023-06-25T00:00:00	2024-11-06T04:00:00	8	Radiación solar	0
103713	7	Sololá	702	San José Chacayá	5	Chacayá	6	Junio	2023-06-25T00:00:00	2024-11-06T05:00:00	2	Temperatura media	12.1
103714	7	Sololá	702	San José Chacayá	5	Chacayá	6	Junio	2023-06-25T00:00:00	2024-11-06T05:00:00	4	Temperatura máxima	12.4
103715	7	Sololá	702	San José Chacayá	5	Chacayá	6	Junio	2023-06-25T00:00:00	2024-11-06T05:00:00	3	Temperatura mínima	12.1
103716	7	Sololá	702	San José Chacayá	5	Chacayá	6	Junio	2023-06-25T00:00:00	2024-11-06T05:00:00	5	Humedad	96
103717	7	Sololá	702	San José Chacayá	5	Chacayá	6	Junio	2023-06-25T00:00:00	2024-11-06T05:00:00	6	Velocidad del viento	0
103718	7	Sololá	702	San José Chacayá	5	Chacayá	6	Junio	2023-06-25T00:00:00	2024-11-06T05:00:00	7	Dirección del viento	0
103719	7	Sololá	702	San José Chacayá	5	Chacayá	6	Junio	2023-06-25T00:00:00	2024-11-06T05:00:00	1	Precipitación	0
103720	7	Sololá	702	San José Chacayá	5	Chacayá	6	Junio	2023-06-25T00:00:00	2024-11-06T05:00:00	8	Radiación solar	0
103721	7	Sololá	702	San José Chacayá	5	Chacayá	6	Junio	2023-06-25T00:00:00	2024-11-06T06:00:00	2	Temperatura media	11.5
103722	7	Sololá	702	San José Chacayá	5	Chacayá	6	Junio	2023-06-25T00:00:00	2024-11-06T06:00:00	4	Temperatura máxima	12.1
103723	7	Sololá	702	San José Chacayá	5	Chacayá	6	Junio	2023-06-25T00:00:00	2024-11-06T06:00:00	3	Temperatura mínima	11.4
103724	7	Sololá	702	San José Chacayá	5	Chacayá	6	Junio	2023-06-25T00:00:00	2024-11-06T06:00:00	5	Humedad	95
103725	7	Sololá	702	San José Chacayá	5	Chacayá	6	Junio	2023-06-25T00:00:00	2024-11-06T06:00:00	6	Velocidad del viento	0
103726	7	Sololá	702	San José Chacayá	5	Chacayá	6	Junio	2023-06-25T00:00:00	2024-11-06T06:00:00	7	Dirección del viento	0
103727	7	Sololá	702	San José Chacayá	5	Chacayá	6	Junio	2023-06-25T00:00:00	2024-11-06T06:00:00	1	Precipitación	0
103728	7	Sololá	702	San José Chacayá	5	Chacayá	6	Junio	2023-06-25T00:00:00	2024-11-06T06:00:00	8	Radiación solar	5
103729	7	Sololá	702	San José Chacayá	5	Chacayá	6	Junio	2023-06-25T00:00:00	2024-11-06T07:00:00	2	Temperatura media	12.5
103730	7	Sololá	702	San José Chacayá	5	Chacayá	6	Junio	2023-06-25T00:00:00	2024-11-06T07:00:00	4	Temperatura máxima	12.5
103731	7	Sololá	702	San José Chacayá	5	Chacayá	6	Junio	2023-06-25T00:00:00	2024-11-06T07:00:00	3	Temperatura mínima	11.4
103732	7	Sololá	702	San José Chacayá	5	Chacayá	6	Junio	2023-06-25T00:00:00	2024-11-06T07:00:00	5	Humedad	96
103733	7	Sololá	702	San José Chacayá	5	Chacayá	6	Junio	2023-06-25T00:00:00	2024-11-06T07:00:00	6	Velocidad del viento	1.6
103734	7	Sololá	702	San José Chacayá	5	Chacayá	6	Junio	2023-06-25T00:00:00	2024-11-06T07:00:00	7	Dirección del viento	1.61
103735	7	Sololá	702	San José Chacayá	5	Chacayá	6	Junio	2023-06-25T00:00:00	2024-11-06T07:00:00	1	Precipitación	0
103736	7	Sololá	702	San José Chacayá	5	Chacayá	6	Junio	2023-06-25T00:00:00	2024-11-06T07:00:00	8	Radiación solar	50
103737	7	Sololá	702	San José Chacayá	5	Chacayá	6	Junio	2023-06-25T00:00:00	2024-11-06T08:00:00	2	Temperatura media	16.1
103738	7	Sololá	702	San José Chacayá	5	Chacayá	6	Junio	2023-06-25T00:00:00	2024-11-06T08:00:00	4	Temperatura máxima	16.1
103739	7	Sololá	702	San José Chacayá	5	Chacayá	6	Junio	2023-06-25T00:00:00	2024-11-06T08:00:00	3	Temperatura mínima	12.5
103740	7	Sololá	702	San José Chacayá	5	Chacayá	6	Junio	2023-06-25T00:00:00	2024-11-06T08:00:00	5	Humedad	86
103741	7	Sololá	702	San José Chacayá	5	Chacayá	6	Junio	2023-06-25T00:00:00	2024-11-06T08:00:00	6	Velocidad del viento	0
103742	7	Sololá	702	San José Chacayá	5	Chacayá	6	Junio	2023-06-25T00:00:00	2024-11-06T08:00:00	7	Dirección del viento	0
103743	7	Sololá	702	San José Chacayá	5	Chacayá	6	Junio	2023-06-25T00:00:00	2024-11-06T08:00:00	1	Precipitación	0.2
103744	7	Sololá	702	San José Chacayá	5	Chacayá	6	Junio	2023-06-25T00:00:00	2024-11-06T08:00:00	8	Radiación solar	157
103745	7	Sololá	702	San José Chacayá	5	Chacayá	6	Junio	2023-06-25T00:00:00	2024-11-06T09:00:00	2	Temperatura media	19.2
103746	7	Sololá	702	San José Chacayá	5	Chacayá	6	Junio	2023-06-25T00:00:00	2024-11-06T09:00:00	4	Temperatura máxima	19.3
103747	7	Sololá	702	San José Chacayá	5	Chacayá	6	Junio	2023-06-25T00:00:00	2024-11-06T09:00:00	3	Temperatura mínima	16.2
103748	7	Sololá	702	San José Chacayá	5	Chacayá	6	Junio	2023-06-25T00:00:00	2024-11-06T09:00:00	5	Humedad	65
103749	7	Sololá	702	San José Chacayá	5	Chacayá	6	Junio	2023-06-25T00:00:00	2024-11-06T09:00:00	6	Velocidad del viento	1.6
103750	7	Sololá	702	San José Chacayá	5	Chacayá	6	Junio	2023-06-25T00:00:00	2024-11-06T09:00:00	7	Dirección del viento	1.61
103751	7	Sololá	702	San José Chacayá	5	Chacayá	6	Junio	2023-06-25T00:00:00	2024-11-06T09:00:00	1	Precipitación	0
103752	7	Sololá	702	San José Chacayá	5	Chacayá	6	Junio	2023-06-25T00:00:00	2024-11-06T09:00:00	8	Radiación solar	281
103753	7	Sololá	702	San José Chacayá	5	Chacayá	6	Junio	2023-06-25T00:00:00	2024-11-06T10:00:00	2	Temperatura media	19.6
103754	7	Sololá	702	San José Chacayá	5	Chacayá	6	Junio	2023-06-25T00:00:00	2024-11-06T10:00:00	4	Temperatura máxima	19.6
103755	7	Sololá	702	San José Chacayá	5	Chacayá	6	Junio	2023-06-25T00:00:00	2024-11-06T10:00:00	3	Temperatura mínima	18.7
103756	7	Sololá	702	San José Chacayá	5	Chacayá	6	Junio	2023-06-25T00:00:00	2024-11-06T10:00:00	5	Humedad	68
103757	7	Sololá	702	San José Chacayá	5	Chacayá	6	Junio	2023-06-25T00:00:00	2024-11-06T10:00:00	6	Velocidad del viento	3.2
103758	7	Sololá	702	San José Chacayá	5	Chacayá	6	Junio	2023-06-25T00:00:00	2024-11-06T10:00:00	7	Dirección del viento	3.22
103759	7	Sololá	702	San José Chacayá	5	Chacayá	6	Junio	2023-06-25T00:00:00	2024-11-06T10:00:00	1	Precipitación	0
103760	7	Sololá	702	San José Chacayá	5	Chacayá	6	Junio	2023-06-25T00:00:00	2024-11-06T10:00:00	8	Radiación solar	252
103761	7	Sololá	702	San José Chacayá	5	Chacayá	6	Junio	2023-06-25T00:00:00	2024-11-06T11:00:00	2	Temperatura media	19.8
103762	7	Sololá	702	San José Chacayá	5	Chacayá	6	Junio	2023-06-25T00:00:00	2024-11-06T11:00:00	4	Temperatura máxima	20.4
103763	7	Sololá	702	San José Chacayá	5	Chacayá	6	Junio	2023-06-25T00:00:00	2024-11-06T11:00:00	3	Temperatura mínima	19.6
103764	7	Sololá	702	San José Chacayá	5	Chacayá	6	Junio	2023-06-25T00:00:00	2024-11-06T11:00:00	5	Humedad	63
103765	7	Sololá	702	San José Chacayá	5	Chacayá	6	Junio	2023-06-25T00:00:00	2024-11-06T11:00:00	6	Velocidad del viento	4.8
103766	7	Sololá	702	San José Chacayá	5	Chacayá	6	Junio	2023-06-25T00:00:00	2024-11-06T11:00:00	7	Dirección del viento	4.83
103767	7	Sololá	702	San José Chacayá	5	Chacayá	6	Junio	2023-06-25T00:00:00	2024-11-06T11:00:00	1	Precipitación	0
103768	7	Sololá	702	San José Chacayá	5	Chacayá	6	Junio	2023-06-25T00:00:00	2024-11-06T11:00:00	8	Radiación solar	151
103769	7	Sololá	702	San José Chacayá	5	Chacayá	6	Junio	2023-06-25T00:00:00	2024-11-06T12:00:00	2	Temperatura media	22.2
103770	7	Sololá	702	San José Chacayá	5	Chacayá	6	Junio	2023-06-25T00:00:00	2024-11-06T12:00:00	4	Temperatura máxima	22.2
103771	7	Sololá	702	San José Chacayá	5	Chacayá	6	Junio	2023-06-25T00:00:00	2024-11-06T12:00:00	3	Temperatura mínima	19.8
103772	7	Sololá	702	San José Chacayá	5	Chacayá	6	Junio	2023-06-25T00:00:00	2024-11-06T12:00:00	5	Humedad	51
103773	7	Sololá	702	San José Chacayá	5	Chacayá	6	Junio	2023-06-25T00:00:00	2024-11-06T12:00:00	6	Velocidad del viento	4.8
103774	7	Sololá	702	San José Chacayá	5	Chacayá	6	Junio	2023-06-25T00:00:00	2024-11-06T12:00:00	7	Dirección del viento	4.83
103775	7	Sololá	702	San José Chacayá	5	Chacayá	6	Junio	2023-06-25T00:00:00	2024-11-06T12:00:00	1	Precipitación	0
103776	7	Sololá	702	San José Chacayá	5	Chacayá	6	Junio	2023-06-25T00:00:00	2024-11-06T12:00:00	8	Radiación solar	150
103777	7	Sololá	702	San José Chacayá	5	Chacayá	6	Junio	2023-06-25T00:00:00	2024-11-06T13:00:00	2	Temperatura media	24.1
103778	7	Sololá	702	San José Chacayá	5	Chacayá	6	Junio	2023-06-25T00:00:00	2024-11-06T13:00:00	4	Temperatura máxima	24.1
103779	7	Sololá	702	San José Chacayá	5	Chacayá	6	Junio	2023-06-25T00:00:00	2024-11-06T13:00:00	3	Temperatura mínima	22.1
103780	7	Sololá	702	San José Chacayá	5	Chacayá	6	Junio	2023-06-25T00:00:00	2024-11-06T13:00:00	5	Humedad	49
103781	7	Sololá	702	San José Chacayá	5	Chacayá	6	Junio	2023-06-25T00:00:00	2024-11-06T13:00:00	6	Velocidad del viento	4.8
103782	7	Sololá	702	San José Chacayá	5	Chacayá	6	Junio	2023-06-25T00:00:00	2024-11-06T13:00:00	7	Dirección del viento	4.83
103783	7	Sololá	702	San José Chacayá	5	Chacayá	6	Junio	2023-06-25T00:00:00	2024-11-06T13:00:00	1	Precipitación	0
103784	7	Sololá	702	San José Chacayá	5	Chacayá	6	Junio	2023-06-25T00:00:00	2024-11-06T13:00:00	8	Radiación solar	233
103785	7	Sololá	702	San José Chacayá	5	Chacayá	6	Junio	2023-06-25T00:00:00	2024-11-06T14:00:00	2	Temperatura media	24.1
103786	7	Sololá	702	San José Chacayá	5	Chacayá	6	Junio	2023-06-25T00:00:00	2024-11-06T14:00:00	4	Temperatura máxima	24.2
103787	7	Sololá	702	San José Chacayá	5	Chacayá	6	Junio	2023-06-25T00:00:00	2024-11-06T14:00:00	3	Temperatura mínima	23.6
103788	7	Sololá	702	San José Chacayá	5	Chacayá	6	Junio	2023-06-25T00:00:00	2024-11-06T14:00:00	5	Humedad	41
103789	7	Sololá	702	San José Chacayá	5	Chacayá	6	Junio	2023-06-25T00:00:00	2024-11-06T14:00:00	6	Velocidad del viento	4.8
103790	7	Sololá	702	San José Chacayá	5	Chacayá	6	Junio	2023-06-25T00:00:00	2024-11-06T14:00:00	7	Dirección del viento	4.83
103791	7	Sololá	702	San José Chacayá	5	Chacayá	6	Junio	2023-06-25T00:00:00	2024-11-06T14:00:00	1	Precipitación	0
103792	7	Sololá	702	San José Chacayá	5	Chacayá	6	Junio	2023-06-25T00:00:00	2024-11-06T14:00:00	8	Radiación solar	544
103793	7	Sololá	702	San José Chacayá	5	Chacayá	6	Junio	2023-06-25T00:00:00	2024-11-06T15:00:00	2	Temperatura media	21.9
103794	7	Sololá	702	San José Chacayá	5	Chacayá	6	Junio	2023-06-25T00:00:00	2024-11-06T15:00:00	4	Temperatura máxima	24.3
103795	7	Sololá	702	San José Chacayá	5	Chacayá	6	Junio	2023-06-25T00:00:00	2024-11-06T15:00:00	3	Temperatura mínima	21.8
103796	7	Sololá	702	San José Chacayá	5	Chacayá	6	Junio	2023-06-25T00:00:00	2024-11-06T15:00:00	5	Humedad	49
103797	7	Sololá	702	San José Chacayá	5	Chacayá	6	Junio	2023-06-25T00:00:00	2024-11-06T15:00:00	6	Velocidad del viento	3.2
103798	7	Sololá	702	San José Chacayá	5	Chacayá	6	Junio	2023-06-25T00:00:00	2024-11-06T15:00:00	7	Dirección del viento	3.22
103799	7	Sololá	702	San José Chacayá	5	Chacayá	6	Junio	2023-06-25T00:00:00	2024-11-06T15:00:00	1	Precipitación	0
103800	7	Sololá	702	San José Chacayá	5	Chacayá	6	Junio	2023-06-25T00:00:00	2024-11-06T15:00:00	8	Radiación solar	402
103801	7	Sololá	702	San José Chacayá	5	Chacayá	6	Junio	2023-06-25T00:00:00	2024-11-06T16:00:00	2	Temperatura media	20.5
103802	7	Sololá	702	San José Chacayá	5	Chacayá	6	Junio	2023-06-25T00:00:00	2024-11-06T16:00:00	4	Temperatura máxima	23.2
103803	7	Sololá	702	San José Chacayá	5	Chacayá	6	Junio	2023-06-25T00:00:00	2024-11-06T16:00:00	3	Temperatura mínima	20.3
103804	7	Sololá	702	San José Chacayá	5	Chacayá	6	Junio	2023-06-25T00:00:00	2024-11-06T16:00:00	5	Humedad	62
103805	7	Sololá	702	San José Chacayá	5	Chacayá	6	Junio	2023-06-25T00:00:00	2024-11-06T16:00:00	6	Velocidad del viento	6.4
103806	7	Sololá	702	San José Chacayá	5	Chacayá	6	Junio	2023-06-25T00:00:00	2024-11-06T16:00:00	7	Dirección del viento	6.44
103807	7	Sololá	702	San José Chacayá	5	Chacayá	6	Junio	2023-06-25T00:00:00	2024-11-06T16:00:00	1	Precipitación	0
103808	7	Sololá	702	San José Chacayá	5	Chacayá	6	Junio	2023-06-25T00:00:00	2024-11-06T16:00:00	8	Radiación solar	338
103809	7	Sololá	702	San José Chacayá	5	Chacayá	6	Junio	2023-06-25T00:00:00	2024-11-06T17:00:00	2	Temperatura media	20.9
103810	7	Sololá	702	San José Chacayá	5	Chacayá	6	Junio	2023-06-25T00:00:00	2024-11-06T17:00:00	4	Temperatura máxima	21
103811	7	Sololá	702	San José Chacayá	5	Chacayá	6	Junio	2023-06-25T00:00:00	2024-11-06T17:00:00	3	Temperatura mínima	20.3
103812	7	Sololá	702	San José Chacayá	5	Chacayá	6	Junio	2023-06-25T00:00:00	2024-11-06T17:00:00	5	Humedad	64
103813	7	Sololá	702	San José Chacayá	5	Chacayá	6	Junio	2023-06-25T00:00:00	2024-11-06T17:00:00	6	Velocidad del viento	3.2
103814	7	Sololá	702	San José Chacayá	5	Chacayá	6	Junio	2023-06-25T00:00:00	2024-11-06T17:00:00	7	Dirección del viento	3.22
103815	7	Sololá	702	San José Chacayá	5	Chacayá	6	Junio	2023-06-25T00:00:00	2024-11-06T17:00:00	1	Precipitación	0
103816	7	Sololá	702	San José Chacayá	5	Chacayá	6	Junio	2023-06-25T00:00:00	2024-11-06T17:00:00	8	Radiación solar	251
103817	7	Sololá	702	San José Chacayá	5	Chacayá	6	Junio	2023-06-25T00:00:00	2024-11-06T18:00:00	2	Temperatura media	18.8
103818	7	Sololá	702	San José Chacayá	5	Chacayá	6	Junio	2023-06-25T00:00:00	2024-11-06T18:00:00	4	Temperatura máxima	20.9
103819	7	Sololá	702	San José Chacayá	5	Chacayá	6	Junio	2023-06-25T00:00:00	2024-11-06T18:00:00	3	Temperatura mínima	18.8
103820	7	Sololá	702	San José Chacayá	5	Chacayá	6	Junio	2023-06-25T00:00:00	2024-11-06T18:00:00	5	Humedad	69
103821	7	Sololá	702	San José Chacayá	5	Chacayá	6	Junio	2023-06-25T00:00:00	2024-11-06T18:00:00	6	Velocidad del viento	1.6
103822	7	Sololá	702	San José Chacayá	5	Chacayá	6	Junio	2023-06-25T00:00:00	2024-11-06T18:00:00	7	Dirección del viento	1.61
103823	7	Sololá	702	San José Chacayá	5	Chacayá	6	Junio	2023-06-25T00:00:00	2024-11-06T18:00:00	1	Precipitación	0
103824	7	Sololá	702	San José Chacayá	5	Chacayá	6	Junio	2023-06-25T00:00:00	2024-11-06T18:00:00	8	Radiación solar	96
103825	7	Sololá	702	San José Chacayá	5	Chacayá	6	Junio	2023-06-25T00:00:00	2024-11-06T19:00:00	2	Temperatura media	16.4
103826	7	Sololá	702	San José Chacayá	5	Chacayá	6	Junio	2023-06-25T00:00:00	2024-11-06T19:00:00	4	Temperatura máxima	18.8
103827	7	Sololá	702	San José Chacayá	5	Chacayá	6	Junio	2023-06-25T00:00:00	2024-11-06T19:00:00	3	Temperatura mínima	16.4
103828	7	Sololá	702	San José Chacayá	5	Chacayá	6	Junio	2023-06-25T00:00:00	2024-11-06T19:00:00	5	Humedad	77
103829	7	Sololá	702	San José Chacayá	5	Chacayá	6	Junio	2023-06-25T00:00:00	2024-11-06T19:00:00	6	Velocidad del viento	1.6
103830	7	Sololá	702	San José Chacayá	5	Chacayá	6	Junio	2023-06-25T00:00:00	2024-11-06T19:00:00	7	Dirección del viento	1.61
103831	7	Sololá	702	San José Chacayá	5	Chacayá	6	Junio	2023-06-25T00:00:00	2024-11-06T19:00:00	1	Precipitación	0
103832	7	Sololá	702	San José Chacayá	5	Chacayá	6	Junio	2023-06-25T00:00:00	2024-11-06T19:00:00	8	Radiación solar	0
103833	7	Sololá	702	San José Chacayá	5	Chacayá	6	Junio	2023-06-25T00:00:00	2024-11-06T20:00:00	2	Temperatura media	15.1
103834	7	Sololá	702	San José Chacayá	5	Chacayá	6	Junio	2023-06-25T00:00:00	2024-11-06T20:00:00	4	Temperatura máxima	16.4
103835	7	Sololá	702	San José Chacayá	5	Chacayá	6	Junio	2023-06-25T00:00:00	2024-11-06T20:00:00	3	Temperatura mínima	14.8
103836	7	Sololá	702	San José Chacayá	5	Chacayá	6	Junio	2023-06-25T00:00:00	2024-11-06T20:00:00	5	Humedad	81
103837	7	Sololá	702	San José Chacayá	5	Chacayá	6	Junio	2023-06-25T00:00:00	2024-11-06T20:00:00	6	Velocidad del viento	1.6
103838	7	Sololá	702	San José Chacayá	5	Chacayá	6	Junio	2023-06-25T00:00:00	2024-11-06T20:00:00	7	Dirección del viento	1.61
103839	7	Sololá	702	San José Chacayá	5	Chacayá	6	Junio	2023-06-25T00:00:00	2024-11-06T20:00:00	1	Precipitación	0
103840	7	Sololá	702	San José Chacayá	5	Chacayá	6	Junio	2023-06-25T00:00:00	2024-11-06T20:00:00	8	Radiación solar	0
103841	7	Sololá	702	San José Chacayá	5	Chacayá	6	Junio	2023-06-25T00:00:00	2024-11-06T21:00:00	2	Temperatura media	14.8
103842	7	Sololá	702	San José Chacayá	5	Chacayá	6	Junio	2023-06-25T00:00:00	2024-11-06T21:00:00	4	Temperatura máxima	15.4
103843	7	Sololá	702	San José Chacayá	5	Chacayá	6	Junio	2023-06-25T00:00:00	2024-11-06T21:00:00	3	Temperatura mínima	14.8
103844	7	Sololá	702	San José Chacayá	5	Chacayá	6	Junio	2023-06-25T00:00:00	2024-11-06T21:00:00	5	Humedad	75
103845	7	Sololá	702	San José Chacayá	5	Chacayá	6	Junio	2023-06-25T00:00:00	2024-11-06T21:00:00	6	Velocidad del viento	3.2
103846	7	Sololá	702	San José Chacayá	5	Chacayá	6	Junio	2023-06-25T00:00:00	2024-11-06T21:00:00	7	Dirección del viento	3.22
103847	7	Sololá	702	San José Chacayá	5	Chacayá	6	Junio	2023-06-25T00:00:00	2024-11-06T21:00:00	1	Precipitación	0
103848	7	Sololá	702	San José Chacayá	5	Chacayá	6	Junio	2023-06-25T00:00:00	2024-11-06T21:00:00	8	Radiación solar	0
103849	7	Sololá	702	San José Chacayá	5	Chacayá	6	Junio	2023-06-25T00:00:00	2024-11-06T22:00:00	2	Temperatura media	13.4
103850	7	Sololá	702	San José Chacayá	5	Chacayá	6	Junio	2023-06-25T00:00:00	2024-11-06T22:00:00	4	Temperatura máxima	14.8
103851	7	Sololá	702	San José Chacayá	5	Chacayá	6	Junio	2023-06-25T00:00:00	2024-11-06T22:00:00	3	Temperatura mínima	13.4
103852	7	Sololá	702	San José Chacayá	5	Chacayá	6	Junio	2023-06-25T00:00:00	2024-11-06T22:00:00	5	Humedad	77
103853	7	Sololá	702	San José Chacayá	5	Chacayá	6	Junio	2023-06-25T00:00:00	2024-11-06T22:00:00	6	Velocidad del viento	1.6
103854	7	Sololá	702	San José Chacayá	5	Chacayá	6	Junio	2023-06-25T00:00:00	2024-11-06T22:00:00	7	Dirección del viento	1.61
103855	7	Sololá	702	San José Chacayá	5	Chacayá	6	Junio	2023-06-25T00:00:00	2024-11-06T22:00:00	1	Precipitación	0
103856	7	Sololá	702	San José Chacayá	5	Chacayá	6	Junio	2023-06-25T00:00:00	2024-11-06T22:00:00	8	Radiación solar	0
103857	7	Sololá	702	San José Chacayá	5	Chacayá	6	Junio	2023-06-25T00:00:00	2024-11-06T23:00:00	2	Temperatura media	12.7
103858	7	Sololá	702	San José Chacayá	5	Chacayá	6	Junio	2023-06-25T00:00:00	2024-11-06T23:00:00	4	Temperatura máxima	13.4
103859	7	Sololá	702	San José Chacayá	5	Chacayá	6	Junio	2023-06-25T00:00:00	2024-11-06T23:00:00	3	Temperatura mínima	12.6
103860	7	Sololá	702	San José Chacayá	5	Chacayá	6	Junio	2023-06-25T00:00:00	2024-11-06T23:00:00	5	Humedad	80
103861	7	Sololá	702	San José Chacayá	5	Chacayá	6	Junio	2023-06-25T00:00:00	2024-11-06T23:00:00	6	Velocidad del viento	1.6
103862	7	Sololá	702	San José Chacayá	5	Chacayá	6	Junio	2023-06-25T00:00:00	2024-11-06T23:00:00	7	Dirección del viento	1.61
103863	7	Sololá	702	San José Chacayá	5	Chacayá	6	Junio	2023-06-25T00:00:00	2024-11-06T23:00:00	1	Precipitación	0
103864	7	Sololá	702	San José Chacayá	5	Chacayá	6	Junio	2023-06-25T00:00:00	2024-11-06T23:00:00	8	Radiación solar	0
103865	7	Sololá	702	San José Chacayá	5	Chacayá	6	Junio	2023-06-26T00:00:00	2024-11-06T00:00:00	2	Temperatura media	12
103866	7	Sololá	702	San José Chacayá	5	Chacayá	6	Junio	2023-06-26T00:00:00	2024-11-06T00:00:00	4	Temperatura máxima	12.7
103867	7	Sololá	702	San José Chacayá	5	Chacayá	6	Junio	2023-06-26T00:00:00	2024-11-06T00:00:00	3	Temperatura mínima	11.4
103868	7	Sololá	702	San José Chacayá	5	Chacayá	6	Junio	2023-06-26T00:00:00	2024-11-06T00:00:00	5	Humedad	83
103869	7	Sololá	702	San José Chacayá	5	Chacayá	6	Junio	2023-06-26T00:00:00	2024-11-06T00:00:00	6	Velocidad del viento	1.6
103870	7	Sololá	702	San José Chacayá	5	Chacayá	6	Junio	2023-06-26T00:00:00	2024-11-06T00:00:00	7	Dirección del viento	1.61
103871	7	Sololá	702	San José Chacayá	5	Chacayá	6	Junio	2023-06-26T00:00:00	2024-11-06T00:00:00	1	Precipitación	0
103872	7	Sololá	702	San José Chacayá	5	Chacayá	6	Junio	2023-06-26T00:00:00	2024-11-06T00:00:00	8	Radiación solar	0
103873	7	Sololá	702	San José Chacayá	5	Chacayá	6	Junio	2023-06-26T00:00:00	2024-11-06T01:00:00	2	Temperatura media	11.1
103874	7	Sololá	702	San José Chacayá	5	Chacayá	6	Junio	2023-06-26T00:00:00	2024-11-06T01:00:00	4	Temperatura máxima	12
103875	7	Sololá	702	San José Chacayá	5	Chacayá	6	Junio	2023-06-26T00:00:00	2024-11-06T01:00:00	3	Temperatura mínima	11
103876	7	Sololá	702	San José Chacayá	5	Chacayá	6	Junio	2023-06-26T00:00:00	2024-11-06T01:00:00	5	Humedad	86
103877	7	Sololá	702	San José Chacayá	5	Chacayá	6	Junio	2023-06-26T00:00:00	2024-11-06T01:00:00	6	Velocidad del viento	1.6
103878	7	Sololá	702	San José Chacayá	5	Chacayá	6	Junio	2023-06-26T00:00:00	2024-11-06T01:00:00	7	Dirección del viento	1.61
103879	7	Sololá	702	San José Chacayá	5	Chacayá	6	Junio	2023-06-26T00:00:00	2024-11-06T01:00:00	1	Precipitación	0
103880	7	Sololá	702	San José Chacayá	5	Chacayá	6	Junio	2023-06-26T00:00:00	2024-11-06T01:00:00	8	Radiación solar	0
103881	7	Sololá	702	San José Chacayá	5	Chacayá	6	Junio	2023-06-26T00:00:00	2024-11-06T02:00:00	2	Temperatura media	10.6
103882	7	Sololá	702	San José Chacayá	5	Chacayá	6	Junio	2023-06-26T00:00:00	2024-11-06T02:00:00	4	Temperatura máxima	11.5
103883	7	Sololá	702	San José Chacayá	5	Chacayá	6	Junio	2023-06-26T00:00:00	2024-11-06T02:00:00	3	Temperatura mínima	10.6
103884	7	Sololá	702	San José Chacayá	5	Chacayá	6	Junio	2023-06-26T00:00:00	2024-11-06T02:00:00	5	Humedad	88
103885	7	Sololá	702	San José Chacayá	5	Chacayá	6	Junio	2023-06-26T00:00:00	2024-11-06T02:00:00	6	Velocidad del viento	1.6
103886	7	Sololá	702	San José Chacayá	5	Chacayá	6	Junio	2023-06-26T00:00:00	2024-11-06T02:00:00	7	Dirección del viento	1.61
103887	7	Sololá	702	San José Chacayá	5	Chacayá	6	Junio	2023-06-26T00:00:00	2024-11-06T02:00:00	1	Precipitación	0
103888	7	Sololá	702	San José Chacayá	5	Chacayá	6	Junio	2023-06-26T00:00:00	2024-11-06T02:00:00	8	Radiación solar	0
103889	7	Sololá	702	San José Chacayá	5	Chacayá	6	Junio	2023-06-26T00:00:00	2024-11-06T03:00:00	2	Temperatura media	10.4
103890	7	Sololá	702	San José Chacayá	5	Chacayá	6	Junio	2023-06-26T00:00:00	2024-11-06T03:00:00	4	Temperatura máxima	10.8
103891	7	Sololá	702	San José Chacayá	5	Chacayá	6	Junio	2023-06-26T00:00:00	2024-11-06T03:00:00	3	Temperatura mínima	10.4
103892	7	Sololá	702	San José Chacayá	5	Chacayá	6	Junio	2023-06-26T00:00:00	2024-11-06T03:00:00	5	Humedad	88
103893	7	Sololá	702	San José Chacayá	5	Chacayá	6	Junio	2023-06-26T00:00:00	2024-11-06T03:00:00	6	Velocidad del viento	1.6
103894	7	Sololá	702	San José Chacayá	5	Chacayá	6	Junio	2023-06-26T00:00:00	2024-11-06T03:00:00	7	Dirección del viento	1.61
103895	7	Sololá	702	San José Chacayá	5	Chacayá	6	Junio	2023-06-26T00:00:00	2024-11-06T03:00:00	1	Precipitación	0
103896	7	Sololá	702	San José Chacayá	5	Chacayá	6	Junio	2023-06-26T00:00:00	2024-11-06T03:00:00	8	Radiación solar	0
103897	7	Sololá	702	San José Chacayá	5	Chacayá	6	Junio	2023-06-26T00:00:00	2024-11-06T04:00:00	2	Temperatura media	9.8
103898	7	Sololá	702	San José Chacayá	5	Chacayá	6	Junio	2023-06-26T00:00:00	2024-11-06T04:00:00	4	Temperatura máxima	10.4
103899	7	Sololá	702	San José Chacayá	5	Chacayá	6	Junio	2023-06-26T00:00:00	2024-11-06T04:00:00	3	Temperatura mínima	9.8
103900	7	Sololá	702	San José Chacayá	5	Chacayá	6	Junio	2023-06-26T00:00:00	2024-11-06T04:00:00	5	Humedad	90
103901	7	Sololá	702	San José Chacayá	5	Chacayá	6	Junio	2023-06-26T00:00:00	2024-11-06T04:00:00	6	Velocidad del viento	1.6
103902	7	Sololá	702	San José Chacayá	5	Chacayá	6	Junio	2023-06-26T00:00:00	2024-11-06T04:00:00	7	Dirección del viento	1.61
103903	7	Sololá	702	San José Chacayá	5	Chacayá	6	Junio	2023-06-26T00:00:00	2024-11-06T04:00:00	1	Precipitación	0
103904	7	Sololá	702	San José Chacayá	5	Chacayá	6	Junio	2023-06-26T00:00:00	2024-11-06T04:00:00	8	Radiación solar	0
103905	7	Sololá	702	San José Chacayá	5	Chacayá	6	Junio	2023-06-26T00:00:00	2024-11-06T05:00:00	2	Temperatura media	9.4
103906	7	Sololá	702	San José Chacayá	5	Chacayá	6	Junio	2023-06-26T00:00:00	2024-11-06T05:00:00	4	Temperatura máxima	9.8
103907	7	Sololá	702	San José Chacayá	5	Chacayá	6	Junio	2023-06-26T00:00:00	2024-11-06T05:00:00	3	Temperatura mínima	9.4
103908	7	Sololá	702	San José Chacayá	5	Chacayá	6	Junio	2023-06-26T00:00:00	2024-11-06T05:00:00	5	Humedad	89
103909	7	Sololá	702	San José Chacayá	5	Chacayá	6	Junio	2023-06-26T00:00:00	2024-11-06T05:00:00	6	Velocidad del viento	0
103910	7	Sololá	702	San José Chacayá	5	Chacayá	6	Junio	2023-06-26T00:00:00	2024-11-06T05:00:00	7	Dirección del viento	0
103911	7	Sololá	702	San José Chacayá	5	Chacayá	6	Junio	2023-06-26T00:00:00	2024-11-06T05:00:00	1	Precipitación	0
103912	7	Sololá	702	San José Chacayá	5	Chacayá	6	Junio	2023-06-26T00:00:00	2024-11-06T05:00:00	8	Radiación solar	0
103913	7	Sololá	702	San José Chacayá	5	Chacayá	6	Junio	2023-06-26T00:00:00	2024-11-06T06:00:00	2	Temperatura media	9
103914	7	Sololá	702	San José Chacayá	5	Chacayá	6	Junio	2023-06-26T00:00:00	2024-11-06T06:00:00	4	Temperatura máxima	9.4
103915	7	Sololá	702	San José Chacayá	5	Chacayá	6	Junio	2023-06-26T00:00:00	2024-11-06T06:00:00	3	Temperatura mínima	9
103916	7	Sololá	702	San José Chacayá	5	Chacayá	6	Junio	2023-06-26T00:00:00	2024-11-06T06:00:00	5	Humedad	91
103917	7	Sololá	702	San José Chacayá	5	Chacayá	6	Junio	2023-06-26T00:00:00	2024-11-06T06:00:00	6	Velocidad del viento	0
103918	7	Sololá	702	San José Chacayá	5	Chacayá	6	Junio	2023-06-26T00:00:00	2024-11-06T06:00:00	7	Dirección del viento	0
103919	7	Sololá	702	San José Chacayá	5	Chacayá	6	Junio	2023-06-26T00:00:00	2024-11-06T06:00:00	1	Precipitación	0
103920	7	Sololá	702	San José Chacayá	5	Chacayá	6	Junio	2023-06-26T00:00:00	2024-11-06T06:00:00	8	Radiación solar	3
103921	7	Sololá	702	San José Chacayá	5	Chacayá	6	Junio	2023-06-26T00:00:00	2024-11-06T07:00:00	2	Temperatura media	10.2
103922	7	Sololá	702	San José Chacayá	5	Chacayá	6	Junio	2023-06-26T00:00:00	2024-11-06T07:00:00	4	Temperatura máxima	10.2
103923	7	Sololá	702	San José Chacayá	5	Chacayá	6	Junio	2023-06-26T00:00:00	2024-11-06T07:00:00	3	Temperatura mínima	9
103924	7	Sololá	702	San José Chacayá	5	Chacayá	6	Junio	2023-06-26T00:00:00	2024-11-06T07:00:00	5	Humedad	91
103925	7	Sololá	702	San José Chacayá	5	Chacayá	6	Junio	2023-06-26T00:00:00	2024-11-06T07:00:00	6	Velocidad del viento	0
103926	7	Sololá	702	San José Chacayá	5	Chacayá	6	Junio	2023-06-26T00:00:00	2024-11-06T07:00:00	7	Dirección del viento	0
103927	7	Sololá	702	San José Chacayá	5	Chacayá	6	Junio	2023-06-26T00:00:00	2024-11-06T07:00:00	1	Precipitación	0
103928	7	Sololá	702	San José Chacayá	5	Chacayá	6	Junio	2023-06-26T00:00:00	2024-11-06T07:00:00	8	Radiación solar	52
103929	7	Sololá	702	San José Chacayá	5	Chacayá	6	Junio	2023-06-26T00:00:00	2024-11-06T08:00:00	2	Temperatura media	15.2
103930	7	Sololá	702	San José Chacayá	5	Chacayá	6	Junio	2023-06-26T00:00:00	2024-11-06T08:00:00	4	Temperatura máxima	15.2
103931	7	Sololá	702	San José Chacayá	5	Chacayá	6	Junio	2023-06-26T00:00:00	2024-11-06T08:00:00	3	Temperatura mínima	10.2
103932	7	Sololá	702	San José Chacayá	5	Chacayá	6	Junio	2023-06-26T00:00:00	2024-11-06T08:00:00	5	Humedad	80
103933	7	Sololá	702	San José Chacayá	5	Chacayá	6	Junio	2023-06-26T00:00:00	2024-11-06T08:00:00	6	Velocidad del viento	1.6
103934	7	Sololá	702	San José Chacayá	5	Chacayá	6	Junio	2023-06-26T00:00:00	2024-11-06T08:00:00	7	Dirección del viento	1.61
103935	7	Sololá	702	San José Chacayá	5	Chacayá	6	Junio	2023-06-26T00:00:00	2024-11-06T08:00:00	1	Precipitación	0
103936	7	Sololá	702	San José Chacayá	5	Chacayá	6	Junio	2023-06-26T00:00:00	2024-11-06T08:00:00	8	Radiación solar	152
103937	7	Sololá	702	San José Chacayá	5	Chacayá	6	Junio	2023-06-26T00:00:00	2024-11-06T09:00:00	2	Temperatura media	18.1
103938	7	Sololá	702	San José Chacayá	5	Chacayá	6	Junio	2023-06-26T00:00:00	2024-11-06T09:00:00	4	Temperatura máxima	18.1
103939	7	Sololá	702	San José Chacayá	5	Chacayá	6	Junio	2023-06-26T00:00:00	2024-11-06T09:00:00	3	Temperatura mínima	15.3
103940	7	Sololá	702	San José Chacayá	5	Chacayá	6	Junio	2023-06-26T00:00:00	2024-11-06T09:00:00	5	Humedad	67
103941	7	Sololá	702	San José Chacayá	5	Chacayá	6	Junio	2023-06-26T00:00:00	2024-11-06T09:00:00	6	Velocidad del viento	3.2
103942	7	Sololá	702	San José Chacayá	5	Chacayá	6	Junio	2023-06-26T00:00:00	2024-11-06T09:00:00	7	Dirección del viento	3.22
103943	7	Sololá	702	San José Chacayá	5	Chacayá	6	Junio	2023-06-26T00:00:00	2024-11-06T09:00:00	1	Precipitación	0
103944	7	Sololá	702	San José Chacayá	5	Chacayá	6	Junio	2023-06-26T00:00:00	2024-11-06T09:00:00	8	Radiación solar	559
103945	7	Sololá	702	San José Chacayá	5	Chacayá	6	Junio	2023-06-26T00:00:00	2024-11-06T10:00:00	2	Temperatura media	20.3
103946	7	Sololá	702	San José Chacayá	5	Chacayá	6	Junio	2023-06-26T00:00:00	2024-11-06T10:00:00	4	Temperatura máxima	20.3
103947	7	Sololá	702	San José Chacayá	5	Chacayá	6	Junio	2023-06-26T00:00:00	2024-11-06T10:00:00	3	Temperatura mínima	18.1
103948	7	Sololá	702	San José Chacayá	5	Chacayá	6	Junio	2023-06-26T00:00:00	2024-11-06T10:00:00	5	Humedad	60
103949	7	Sololá	702	San José Chacayá	5	Chacayá	6	Junio	2023-06-26T00:00:00	2024-11-06T10:00:00	6	Velocidad del viento	3.2
103950	7	Sololá	702	San José Chacayá	5	Chacayá	6	Junio	2023-06-26T00:00:00	2024-11-06T10:00:00	7	Dirección del viento	3.22
103951	7	Sololá	702	San José Chacayá	5	Chacayá	6	Junio	2023-06-26T00:00:00	2024-11-06T10:00:00	1	Precipitación	0
103952	7	Sololá	702	San José Chacayá	5	Chacayá	6	Junio	2023-06-26T00:00:00	2024-11-06T10:00:00	8	Radiación solar	768
103953	7	Sololá	702	San José Chacayá	5	Chacayá	6	Junio	2023-06-26T00:00:00	2024-11-06T11:00:00	2	Temperatura media	22.4
103954	7	Sololá	702	San José Chacayá	5	Chacayá	6	Junio	2023-06-26T00:00:00	2024-11-06T11:00:00	4	Temperatura máxima	22.4
103955	7	Sololá	702	San José Chacayá	5	Chacayá	6	Junio	2023-06-26T00:00:00	2024-11-06T11:00:00	3	Temperatura mínima	20.3
103956	7	Sololá	702	San José Chacayá	5	Chacayá	6	Junio	2023-06-26T00:00:00	2024-11-06T11:00:00	5	Humedad	56
103957	7	Sololá	702	San José Chacayá	5	Chacayá	6	Junio	2023-06-26T00:00:00	2024-11-06T11:00:00	6	Velocidad del viento	4.8
103958	7	Sololá	702	San José Chacayá	5	Chacayá	6	Junio	2023-06-26T00:00:00	2024-11-06T11:00:00	7	Dirección del viento	4.83
103959	7	Sololá	702	San José Chacayá	5	Chacayá	6	Junio	2023-06-26T00:00:00	2024-11-06T11:00:00	1	Precipitación	0
103960	7	Sololá	702	San José Chacayá	5	Chacayá	6	Junio	2023-06-26T00:00:00	2024-11-06T11:00:00	8	Radiación solar	892
103961	7	Sololá	702	San José Chacayá	5	Chacayá	6	Junio	2023-06-26T00:00:00	2024-11-06T12:00:00	2	Temperatura media	22.9
103962	7	Sololá	702	San José Chacayá	5	Chacayá	6	Junio	2023-06-26T00:00:00	2024-11-06T12:00:00	4	Temperatura máxima	22.9
103963	7	Sololá	702	San José Chacayá	5	Chacayá	6	Junio	2023-06-26T00:00:00	2024-11-06T12:00:00	3	Temperatura mínima	22.1
103964	7	Sololá	702	San José Chacayá	5	Chacayá	6	Junio	2023-06-26T00:00:00	2024-11-06T12:00:00	5	Humedad	58
103965	7	Sololá	702	San José Chacayá	5	Chacayá	6	Junio	2023-06-26T00:00:00	2024-11-06T12:00:00	6	Velocidad del viento	4.8
103966	7	Sololá	702	San José Chacayá	5	Chacayá	6	Junio	2023-06-26T00:00:00	2024-11-06T12:00:00	7	Dirección del viento	4.83
103967	7	Sololá	702	San José Chacayá	5	Chacayá	6	Junio	2023-06-26T00:00:00	2024-11-06T12:00:00	1	Precipitación	0
103968	7	Sololá	702	San José Chacayá	5	Chacayá	6	Junio	2023-06-26T00:00:00	2024-11-06T12:00:00	8	Radiación solar	1022
103969	7	Sololá	702	San José Chacayá	5	Chacayá	6	Junio	2023-06-26T00:00:00	2024-11-06T13:00:00	2	Temperatura media	23.9
103970	7	Sololá	702	San José Chacayá	5	Chacayá	6	Junio	2023-06-26T00:00:00	2024-11-06T13:00:00	4	Temperatura máxima	24.6
103971	7	Sololá	702	San José Chacayá	5	Chacayá	6	Junio	2023-06-26T00:00:00	2024-11-06T13:00:00	3	Temperatura mínima	22.9
103972	7	Sololá	702	San José Chacayá	5	Chacayá	6	Junio	2023-06-26T00:00:00	2024-11-06T13:00:00	5	Humedad	53
103973	7	Sololá	702	San José Chacayá	5	Chacayá	6	Junio	2023-06-26T00:00:00	2024-11-06T13:00:00	6	Velocidad del viento	4.8
103974	7	Sololá	702	San José Chacayá	5	Chacayá	6	Junio	2023-06-26T00:00:00	2024-11-06T13:00:00	7	Dirección del viento	4.83
103975	7	Sololá	702	San José Chacayá	5	Chacayá	6	Junio	2023-06-26T00:00:00	2024-11-06T13:00:00	1	Precipitación	0
103976	7	Sololá	702	San José Chacayá	5	Chacayá	6	Junio	2023-06-26T00:00:00	2024-11-06T13:00:00	8	Radiación solar	1035
103977	7	Sololá	702	San José Chacayá	5	Chacayá	6	Junio	2023-06-26T00:00:00	2024-11-06T14:00:00	2	Temperatura media	24.2
103978	7	Sololá	702	San José Chacayá	5	Chacayá	6	Junio	2023-06-26T00:00:00	2024-11-06T14:00:00	4	Temperatura máxima	24.8
103979	7	Sololá	702	San José Chacayá	5	Chacayá	6	Junio	2023-06-26T00:00:00	2024-11-06T14:00:00	3	Temperatura mínima	23.3
103980	7	Sololá	702	San José Chacayá	5	Chacayá	6	Junio	2023-06-26T00:00:00	2024-11-06T14:00:00	5	Humedad	52
103981	7	Sololá	702	San José Chacayá	5	Chacayá	6	Junio	2023-06-26T00:00:00	2024-11-06T14:00:00	6	Velocidad del viento	4.8
103982	7	Sololá	702	San José Chacayá	5	Chacayá	6	Junio	2023-06-26T00:00:00	2024-11-06T14:00:00	7	Dirección del viento	4.83
103983	7	Sololá	702	San José Chacayá	5	Chacayá	6	Junio	2023-06-26T00:00:00	2024-11-06T14:00:00	1	Precipitación	0
103984	7	Sololá	702	San José Chacayá	5	Chacayá	6	Junio	2023-06-26T00:00:00	2024-11-06T14:00:00	8	Radiación solar	274
103985	7	Sololá	702	San José Chacayá	5	Chacayá	6	Junio	2023-06-26T00:00:00	2024-11-06T15:00:00	2	Temperatura media	24
103986	7	Sololá	702	San José Chacayá	5	Chacayá	6	Junio	2023-06-26T00:00:00	2024-11-06T15:00:00	4	Temperatura máxima	24.7
103987	7	Sololá	702	San José Chacayá	5	Chacayá	6	Junio	2023-06-26T00:00:00	2024-11-06T15:00:00	3	Temperatura mínima	23
103988	7	Sololá	702	San José Chacayá	5	Chacayá	6	Junio	2023-06-26T00:00:00	2024-11-06T15:00:00	5	Humedad	54
103989	7	Sololá	702	San José Chacayá	5	Chacayá	6	Junio	2023-06-26T00:00:00	2024-11-06T15:00:00	6	Velocidad del viento	3.2
103990	7	Sololá	702	San José Chacayá	5	Chacayá	6	Junio	2023-06-26T00:00:00	2024-11-06T15:00:00	7	Dirección del viento	3.22
103991	7	Sololá	702	San José Chacayá	5	Chacayá	6	Junio	2023-06-26T00:00:00	2024-11-06T15:00:00	1	Precipitación	0
103992	7	Sololá	702	San José Chacayá	5	Chacayá	6	Junio	2023-06-26T00:00:00	2024-11-06T15:00:00	8	Radiación solar	50
103993	7	Sololá	702	San José Chacayá	5	Chacayá	6	Junio	2023-06-26T00:00:00	2024-11-06T16:00:00	2	Temperatura media	23.6
103994	7	Sololá	702	San José Chacayá	5	Chacayá	6	Junio	2023-06-26T00:00:00	2024-11-06T16:00:00	4	Temperatura máxima	24.2
103995	7	Sololá	702	San José Chacayá	5	Chacayá	6	Junio	2023-06-26T00:00:00	2024-11-06T16:00:00	3	Temperatura mínima	23.4
103996	7	Sololá	702	San José Chacayá	5	Chacayá	6	Junio	2023-06-26T00:00:00	2024-11-06T16:00:00	5	Humedad	55
103997	7	Sololá	702	San José Chacayá	5	Chacayá	6	Junio	2023-06-26T00:00:00	2024-11-06T16:00:00	6	Velocidad del viento	4.8
103998	7	Sololá	702	San José Chacayá	5	Chacayá	6	Junio	2023-06-26T00:00:00	2024-11-06T16:00:00	7	Dirección del viento	4.83
103999	7	Sololá	702	San José Chacayá	5	Chacayá	6	Junio	2023-06-26T00:00:00	2024-11-06T16:00:00	1	Precipitación	0
104000	7	Sololá	702	San José Chacayá	5	Chacayá	6	Junio	2023-06-26T00:00:00	2024-11-06T16:00:00	8	Radiación solar	82
104001	7	Sololá	702	San José Chacayá	5	Chacayá	6	Junio	2023-06-26T00:00:00	2024-11-06T17:00:00	2	Temperatura media	22.4
104002	7	Sololá	702	San José Chacayá	5	Chacayá	6	Junio	2023-06-26T00:00:00	2024-11-06T17:00:00	4	Temperatura máxima	23.8
104003	7	Sololá	702	San José Chacayá	5	Chacayá	6	Junio	2023-06-26T00:00:00	2024-11-06T17:00:00	3	Temperatura mínima	22.4
104004	7	Sololá	702	San José Chacayá	5	Chacayá	6	Junio	2023-06-26T00:00:00	2024-11-06T17:00:00	5	Humedad	63
104005	7	Sololá	702	San José Chacayá	5	Chacayá	6	Junio	2023-06-26T00:00:00	2024-11-06T17:00:00	6	Velocidad del viento	3.2
104006	7	Sololá	702	San José Chacayá	5	Chacayá	6	Junio	2023-06-26T00:00:00	2024-11-06T17:00:00	7	Dirección del viento	3.22
104007	7	Sololá	702	San José Chacayá	5	Chacayá	6	Junio	2023-06-26T00:00:00	2024-11-06T17:00:00	1	Precipitación	0
104008	7	Sololá	702	San José Chacayá	5	Chacayá	6	Junio	2023-06-26T00:00:00	2024-11-06T17:00:00	8	Radiación solar	50
104009	7	Sololá	702	San José Chacayá	5	Chacayá	6	Junio	2023-06-26T00:00:00	2024-11-06T18:00:00	2	Temperatura media	20.3
104010	7	Sololá	702	San José Chacayá	5	Chacayá	6	Junio	2023-06-26T00:00:00	2024-11-06T18:00:00	4	Temperatura máxima	22.3
104011	7	Sololá	702	San José Chacayá	5	Chacayá	6	Junio	2023-06-26T00:00:00	2024-11-06T18:00:00	3	Temperatura mínima	20.3
104012	7	Sololá	702	San José Chacayá	5	Chacayá	6	Junio	2023-06-26T00:00:00	2024-11-06T18:00:00	5	Humedad	77
104013	7	Sololá	702	San José Chacayá	5	Chacayá	6	Junio	2023-06-26T00:00:00	2024-11-06T18:00:00	6	Velocidad del viento	1.6
104014	7	Sololá	702	San José Chacayá	5	Chacayá	6	Junio	2023-06-26T00:00:00	2024-11-06T18:00:00	7	Dirección del viento	1.61
104015	7	Sololá	702	San José Chacayá	5	Chacayá	6	Junio	2023-06-26T00:00:00	2024-11-06T18:00:00	1	Precipitación	0
104016	7	Sololá	702	San José Chacayá	5	Chacayá	6	Junio	2023-06-26T00:00:00	2024-11-06T18:00:00	8	Radiación solar	80
104017	7	Sololá	702	San José Chacayá	5	Chacayá	6	Junio	2023-06-26T00:00:00	2024-11-06T19:00:00	2	Temperatura media	17.4
104018	7	Sololá	702	San José Chacayá	5	Chacayá	6	Junio	2023-06-26T00:00:00	2024-11-06T19:00:00	4	Temperatura máxima	20.3
104019	7	Sololá	702	San José Chacayá	5	Chacayá	6	Junio	2023-06-26T00:00:00	2024-11-06T19:00:00	3	Temperatura mínima	17.4
104020	7	Sololá	702	San José Chacayá	5	Chacayá	6	Junio	2023-06-26T00:00:00	2024-11-06T19:00:00	5	Humedad	86
104021	7	Sololá	702	San José Chacayá	5	Chacayá	6	Junio	2023-06-26T00:00:00	2024-11-06T19:00:00	6	Velocidad del viento	0
104022	7	Sololá	702	San José Chacayá	5	Chacayá	6	Junio	2023-06-26T00:00:00	2024-11-06T19:00:00	7	Dirección del viento	0
104023	7	Sololá	702	San José Chacayá	5	Chacayá	6	Junio	2023-06-26T00:00:00	2024-11-06T19:00:00	1	Precipitación	0
104024	7	Sololá	702	San José Chacayá	5	Chacayá	6	Junio	2023-06-26T00:00:00	2024-11-06T19:00:00	8	Radiación solar	0
104025	7	Sololá	702	San José Chacayá	5	Chacayá	6	Junio	2023-06-26T00:00:00	2024-11-06T20:00:00	2	Temperatura media	15.8
104026	7	Sololá	702	San José Chacayá	5	Chacayá	6	Junio	2023-06-26T00:00:00	2024-11-06T20:00:00	4	Temperatura máxima	17.4
104027	7	Sololá	702	San José Chacayá	5	Chacayá	6	Junio	2023-06-26T00:00:00	2024-11-06T20:00:00	3	Temperatura mínima	15.8
104028	7	Sololá	702	San José Chacayá	5	Chacayá	6	Junio	2023-06-26T00:00:00	2024-11-06T20:00:00	5	Humedad	87
104029	7	Sololá	702	San José Chacayá	5	Chacayá	6	Junio	2023-06-26T00:00:00	2024-11-06T20:00:00	6	Velocidad del viento	0
104030	7	Sololá	702	San José Chacayá	5	Chacayá	6	Junio	2023-06-26T00:00:00	2024-11-06T20:00:00	7	Dirección del viento	0
104031	7	Sololá	702	San José Chacayá	5	Chacayá	6	Junio	2023-06-26T00:00:00	2024-11-06T20:00:00	1	Precipitación	0
104032	7	Sololá	702	San José Chacayá	5	Chacayá	6	Junio	2023-06-26T00:00:00	2024-11-06T20:00:00	8	Radiación solar	0
104033	7	Sololá	702	San José Chacayá	5	Chacayá	6	Junio	2023-06-26T00:00:00	2024-11-06T21:00:00	2	Temperatura media	16.1
104034	7	Sololá	702	San José Chacayá	5	Chacayá	6	Junio	2023-06-26T00:00:00	2024-11-06T21:00:00	4	Temperatura máxima	16.3
104035	7	Sololá	702	San José Chacayá	5	Chacayá	6	Junio	2023-06-26T00:00:00	2024-11-06T21:00:00	3	Temperatura mínima	15.5
104036	7	Sololá	702	San José Chacayá	5	Chacayá	6	Junio	2023-06-26T00:00:00	2024-11-06T21:00:00	5	Humedad	81
104037	7	Sololá	702	San José Chacayá	5	Chacayá	6	Junio	2023-06-26T00:00:00	2024-11-06T21:00:00	6	Velocidad del viento	3.2
104038	7	Sololá	702	San José Chacayá	5	Chacayá	6	Junio	2023-06-26T00:00:00	2024-11-06T21:00:00	7	Dirección del viento	3.22
104039	7	Sololá	702	San José Chacayá	5	Chacayá	6	Junio	2023-06-26T00:00:00	2024-11-06T21:00:00	1	Precipitación	0
104040	7	Sololá	702	San José Chacayá	5	Chacayá	6	Junio	2023-06-26T00:00:00	2024-11-06T21:00:00	8	Radiación solar	0
104041	7	Sololá	702	San José Chacayá	5	Chacayá	6	Junio	2023-06-26T00:00:00	2024-11-06T22:00:00	2	Temperatura media	14.4
104042	7	Sololá	702	San José Chacayá	5	Chacayá	6	Junio	2023-06-26T00:00:00	2024-11-06T22:00:00	4	Temperatura máxima	16.1
104043	7	Sololá	702	San José Chacayá	5	Chacayá	6	Junio	2023-06-26T00:00:00	2024-11-06T22:00:00	3	Temperatura mínima	14.4
104044	7	Sololá	702	San José Chacayá	5	Chacayá	6	Junio	2023-06-26T00:00:00	2024-11-06T22:00:00	5	Humedad	88
104045	7	Sololá	702	San José Chacayá	5	Chacayá	6	Junio	2023-06-26T00:00:00	2024-11-06T22:00:00	6	Velocidad del viento	3.2
104046	7	Sololá	702	San José Chacayá	5	Chacayá	6	Junio	2023-06-26T00:00:00	2024-11-06T22:00:00	7	Dirección del viento	3.22
104047	7	Sololá	702	San José Chacayá	5	Chacayá	6	Junio	2023-06-26T00:00:00	2024-11-06T22:00:00	1	Precipitación	0.2
104048	7	Sololá	702	San José Chacayá	5	Chacayá	6	Junio	2023-06-26T00:00:00	2024-11-06T22:00:00	8	Radiación solar	0
104049	7	Sololá	702	San José Chacayá	5	Chacayá	6	Junio	2023-06-26T00:00:00	2024-11-06T23:00:00	2	Temperatura media	14.8
104050	7	Sololá	702	San José Chacayá	5	Chacayá	6	Junio	2023-06-26T00:00:00	2024-11-06T23:00:00	4	Temperatura máxima	14.8
104051	7	Sololá	702	San José Chacayá	5	Chacayá	6	Junio	2023-06-26T00:00:00	2024-11-06T23:00:00	3	Temperatura mínima	13.9
104052	7	Sololá	702	San José Chacayá	5	Chacayá	6	Junio	2023-06-26T00:00:00	2024-11-06T23:00:00	5	Humedad	85
104053	7	Sololá	702	San José Chacayá	5	Chacayá	6	Junio	2023-06-26T00:00:00	2024-11-06T23:00:00	6	Velocidad del viento	3.2
104054	7	Sololá	702	San José Chacayá	5	Chacayá	6	Junio	2023-06-26T00:00:00	2024-11-06T23:00:00	7	Dirección del viento	3.22
104055	7	Sololá	702	San José Chacayá	5	Chacayá	6	Junio	2023-06-26T00:00:00	2024-11-06T23:00:00	1	Precipitación	0
104056	7	Sololá	702	San José Chacayá	5	Chacayá	6	Junio	2023-06-26T00:00:00	2024-11-06T23:00:00	8	Radiación solar	0
104057	7	Sololá	702	San José Chacayá	5	Chacayá	6	Junio	2023-06-27T00:00:00	2024-11-06T00:00:00	2	Temperatura media	14.8
104058	7	Sololá	702	San José Chacayá	5	Chacayá	6	Junio	2023-06-27T00:00:00	2024-11-06T00:00:00	4	Temperatura máxima	14.9
104059	7	Sololá	702	San José Chacayá	5	Chacayá	6	Junio	2023-06-27T00:00:00	2024-11-06T00:00:00	3	Temperatura mínima	14.7
104060	7	Sololá	702	San José Chacayá	5	Chacayá	6	Junio	2023-06-27T00:00:00	2024-11-06T00:00:00	5	Humedad	85
104061	7	Sololá	702	San José Chacayá	5	Chacayá	6	Junio	2023-06-27T00:00:00	2024-11-06T00:00:00	6	Velocidad del viento	3.2
104062	7	Sololá	702	San José Chacayá	5	Chacayá	6	Junio	2023-06-27T00:00:00	2024-11-06T00:00:00	7	Dirección del viento	3.22
104063	7	Sololá	702	San José Chacayá	5	Chacayá	6	Junio	2023-06-27T00:00:00	2024-11-06T00:00:00	1	Precipitación	0
104064	7	Sololá	702	San José Chacayá	5	Chacayá	6	Junio	2023-06-27T00:00:00	2024-11-06T00:00:00	8	Radiación solar	0
104065	7	Sololá	702	San José Chacayá	5	Chacayá	6	Junio	2023-06-27T00:00:00	2024-11-06T01:00:00	2	Temperatura media	14.1
104066	7	Sololá	702	San José Chacayá	5	Chacayá	6	Junio	2023-06-27T00:00:00	2024-11-06T01:00:00	4	Temperatura máxima	15
104067	7	Sololá	702	San José Chacayá	5	Chacayá	6	Junio	2023-06-27T00:00:00	2024-11-06T01:00:00	3	Temperatura mínima	14
104068	7	Sololá	702	San José Chacayá	5	Chacayá	6	Junio	2023-06-27T00:00:00	2024-11-06T01:00:00	5	Humedad	86
104069	7	Sololá	702	San José Chacayá	5	Chacayá	6	Junio	2023-06-27T00:00:00	2024-11-06T01:00:00	6	Velocidad del viento	1.6
104070	7	Sololá	702	San José Chacayá	5	Chacayá	6	Junio	2023-06-27T00:00:00	2024-11-06T01:00:00	7	Dirección del viento	1.61
104071	7	Sololá	702	San José Chacayá	5	Chacayá	6	Junio	2023-06-27T00:00:00	2024-11-06T01:00:00	1	Precipitación	0
104072	7	Sololá	702	San José Chacayá	5	Chacayá	6	Junio	2023-06-27T00:00:00	2024-11-06T01:00:00	8	Radiación solar	0
104073	7	Sololá	702	San José Chacayá	5	Chacayá	6	Junio	2023-06-27T00:00:00	2024-11-06T02:00:00	2	Temperatura media	14.3
104074	7	Sololá	702	San José Chacayá	5	Chacayá	6	Junio	2023-06-27T00:00:00	2024-11-06T02:00:00	4	Temperatura máxima	14.4
104075	7	Sololá	702	San José Chacayá	5	Chacayá	6	Junio	2023-06-27T00:00:00	2024-11-06T02:00:00	3	Temperatura mínima	13.8
104076	7	Sololá	702	San José Chacayá	5	Chacayá	6	Junio	2023-06-27T00:00:00	2024-11-06T02:00:00	5	Humedad	86
104077	7	Sololá	702	San José Chacayá	5	Chacayá	6	Junio	2023-06-27T00:00:00	2024-11-06T02:00:00	6	Velocidad del viento	1.6
104078	7	Sololá	702	San José Chacayá	5	Chacayá	6	Junio	2023-06-27T00:00:00	2024-11-06T02:00:00	7	Dirección del viento	1.61
104079	7	Sololá	702	San José Chacayá	5	Chacayá	6	Junio	2023-06-27T00:00:00	2024-11-06T02:00:00	1	Precipitación	0
104080	7	Sololá	702	San José Chacayá	5	Chacayá	6	Junio	2023-06-27T00:00:00	2024-11-06T02:00:00	8	Radiación solar	0
104081	7	Sololá	702	San José Chacayá	5	Chacayá	6	Junio	2023-06-27T00:00:00	2024-11-06T03:00:00	2	Temperatura media	14.3
104082	7	Sololá	702	San José Chacayá	5	Chacayá	6	Junio	2023-06-27T00:00:00	2024-11-06T03:00:00	4	Temperatura máxima	14.4
104083	7	Sololá	702	San José Chacayá	5	Chacayá	6	Junio	2023-06-27T00:00:00	2024-11-06T03:00:00	3	Temperatura mínima	14
104084	7	Sololá	702	San José Chacayá	5	Chacayá	6	Junio	2023-06-27T00:00:00	2024-11-06T03:00:00	5	Humedad	85
104085	7	Sololá	702	San José Chacayá	5	Chacayá	6	Junio	2023-06-27T00:00:00	2024-11-06T03:00:00	6	Velocidad del viento	3.2
104086	7	Sololá	702	San José Chacayá	5	Chacayá	6	Junio	2023-06-27T00:00:00	2024-11-06T03:00:00	7	Dirección del viento	3.22
104087	7	Sololá	702	San José Chacayá	5	Chacayá	6	Junio	2023-06-27T00:00:00	2024-11-06T03:00:00	1	Precipitación	0
104088	7	Sololá	702	San José Chacayá	5	Chacayá	6	Junio	2023-06-27T00:00:00	2024-11-06T03:00:00	8	Radiación solar	0
104089	7	Sololá	702	San José Chacayá	5	Chacayá	6	Junio	2023-06-27T00:00:00	2024-11-06T04:00:00	2	Temperatura media	14.3
104090	7	Sololá	702	San José Chacayá	5	Chacayá	6	Junio	2023-06-27T00:00:00	2024-11-06T04:00:00	4	Temperatura máxima	14.5
104091	7	Sololá	702	San José Chacayá	5	Chacayá	6	Junio	2023-06-27T00:00:00	2024-11-06T04:00:00	3	Temperatura mínima	14.1
104092	7	Sololá	702	San José Chacayá	5	Chacayá	6	Junio	2023-06-27T00:00:00	2024-11-06T04:00:00	5	Humedad	85
104093	7	Sololá	702	San José Chacayá	5	Chacayá	6	Junio	2023-06-27T00:00:00	2024-11-06T04:00:00	6	Velocidad del viento	1.6
104094	7	Sololá	702	San José Chacayá	5	Chacayá	6	Junio	2023-06-27T00:00:00	2024-11-06T04:00:00	7	Dirección del viento	1.61
104095	7	Sololá	702	San José Chacayá	5	Chacayá	6	Junio	2023-06-27T00:00:00	2024-11-06T04:00:00	1	Precipitación	0
104096	7	Sololá	702	San José Chacayá	5	Chacayá	6	Junio	2023-06-27T00:00:00	2024-11-06T04:00:00	8	Radiación solar	0
104097	7	Sololá	702	San José Chacayá	5	Chacayá	6	Junio	2023-06-27T00:00:00	2024-11-06T05:00:00	2	Temperatura media	13.4
104098	7	Sololá	702	San José Chacayá	5	Chacayá	6	Junio	2023-06-27T00:00:00	2024-11-06T05:00:00	4	Temperatura máxima	14.3
104099	7	Sololá	702	San José Chacayá	5	Chacayá	6	Junio	2023-06-27T00:00:00	2024-11-06T05:00:00	3	Temperatura mínima	13.4
104100	7	Sololá	702	San José Chacayá	5	Chacayá	6	Junio	2023-06-27T00:00:00	2024-11-06T05:00:00	5	Humedad	87
104101	7	Sololá	702	San José Chacayá	5	Chacayá	6	Junio	2023-06-27T00:00:00	2024-11-06T05:00:00	6	Velocidad del viento	1.6
104102	7	Sololá	702	San José Chacayá	5	Chacayá	6	Junio	2023-06-27T00:00:00	2024-11-06T05:00:00	7	Dirección del viento	1.61
104103	7	Sololá	702	San José Chacayá	5	Chacayá	6	Junio	2023-06-27T00:00:00	2024-11-06T05:00:00	1	Precipitación	0
104104	7	Sololá	702	San José Chacayá	5	Chacayá	6	Junio	2023-06-27T00:00:00	2024-11-06T05:00:00	8	Radiación solar	0
104105	7	Sololá	702	San José Chacayá	5	Chacayá	6	Junio	2023-06-27T00:00:00	2024-11-06T06:00:00	2	Temperatura media	13.7
104106	7	Sololá	702	San José Chacayá	5	Chacayá	6	Junio	2023-06-27T00:00:00	2024-11-06T06:00:00	4	Temperatura máxima	14.3
104107	7	Sololá	702	San José Chacayá	5	Chacayá	6	Junio	2023-06-27T00:00:00	2024-11-06T06:00:00	3	Temperatura mínima	13.1
104108	7	Sololá	702	San José Chacayá	5	Chacayá	6	Junio	2023-06-27T00:00:00	2024-11-06T06:00:00	5	Humedad	83
104109	7	Sololá	702	San José Chacayá	5	Chacayá	6	Junio	2023-06-27T00:00:00	2024-11-06T06:00:00	6	Velocidad del viento	1.6
104110	7	Sololá	702	San José Chacayá	5	Chacayá	6	Junio	2023-06-27T00:00:00	2024-11-06T06:00:00	7	Dirección del viento	1.61
104111	7	Sololá	702	San José Chacayá	5	Chacayá	6	Junio	2023-06-27T00:00:00	2024-11-06T06:00:00	1	Precipitación	0
104112	7	Sololá	702	San José Chacayá	5	Chacayá	6	Junio	2023-06-27T00:00:00	2024-11-06T06:00:00	8	Radiación solar	7
104113	7	Sololá	702	San José Chacayá	5	Chacayá	6	Junio	2023-06-27T00:00:00	2024-11-06T07:00:00	2	Temperatura media	15.7
104114	7	Sololá	702	San José Chacayá	5	Chacayá	6	Junio	2023-06-27T00:00:00	2024-11-06T07:00:00	4	Temperatura máxima	15.7
104115	7	Sololá	702	San José Chacayá	5	Chacayá	6	Junio	2023-06-27T00:00:00	2024-11-06T07:00:00	3	Temperatura mínima	13.6
104116	7	Sololá	702	San José Chacayá	5	Chacayá	6	Junio	2023-06-27T00:00:00	2024-11-06T07:00:00	5	Humedad	73
104117	7	Sololá	702	San José Chacayá	5	Chacayá	6	Junio	2023-06-27T00:00:00	2024-11-06T07:00:00	6	Velocidad del viento	1.6
104118	7	Sololá	702	San José Chacayá	5	Chacayá	6	Junio	2023-06-27T00:00:00	2024-11-06T07:00:00	7	Dirección del viento	1.61
104119	7	Sololá	702	San José Chacayá	5	Chacayá	6	Junio	2023-06-27T00:00:00	2024-11-06T07:00:00	1	Precipitación	0
104120	7	Sololá	702	San José Chacayá	5	Chacayá	6	Junio	2023-06-27T00:00:00	2024-11-06T07:00:00	8	Radiación solar	36
104121	7	Sololá	702	San José Chacayá	5	Chacayá	6	Junio	2023-06-27T00:00:00	2024-11-06T08:00:00	2	Temperatura media	18.1
104122	7	Sololá	702	San José Chacayá	5	Chacayá	6	Junio	2023-06-27T00:00:00	2024-11-06T08:00:00	4	Temperatura máxima	18.1
104123	7	Sololá	702	San José Chacayá	5	Chacayá	6	Junio	2023-06-27T00:00:00	2024-11-06T08:00:00	3	Temperatura mínima	15.7
104124	7	Sololá	702	San José Chacayá	5	Chacayá	6	Junio	2023-06-27T00:00:00	2024-11-06T08:00:00	5	Humedad	68
104125	7	Sololá	702	San José Chacayá	5	Chacayá	6	Junio	2023-06-27T00:00:00	2024-11-06T08:00:00	6	Velocidad del viento	4.8
104126	7	Sololá	702	San José Chacayá	5	Chacayá	6	Junio	2023-06-27T00:00:00	2024-11-06T08:00:00	7	Dirección del viento	4.83
104127	7	Sololá	702	San José Chacayá	5	Chacayá	6	Junio	2023-06-27T00:00:00	2024-11-06T08:00:00	1	Precipitación	0
104128	7	Sololá	702	San José Chacayá	5	Chacayá	6	Junio	2023-06-27T00:00:00	2024-11-06T08:00:00	8	Radiación solar	166
104129	7	Sololá	702	San José Chacayá	5	Chacayá	6	Junio	2023-06-27T00:00:00	2024-11-06T09:00:00	2	Temperatura media	20.4
104130	7	Sololá	702	San José Chacayá	5	Chacayá	6	Junio	2023-06-27T00:00:00	2024-11-06T09:00:00	4	Temperatura máxima	20.4
104131	7	Sololá	702	San José Chacayá	5	Chacayá	6	Junio	2023-06-27T00:00:00	2024-11-06T09:00:00	3	Temperatura mínima	18.1
104132	7	Sololá	702	San José Chacayá	5	Chacayá	6	Junio	2023-06-27T00:00:00	2024-11-06T09:00:00	5	Humedad	64
104133	7	Sololá	702	San José Chacayá	5	Chacayá	6	Junio	2023-06-27T00:00:00	2024-11-06T09:00:00	6	Velocidad del viento	4.8
104134	7	Sololá	702	San José Chacayá	5	Chacayá	6	Junio	2023-06-27T00:00:00	2024-11-06T09:00:00	7	Dirección del viento	4.83
104135	7	Sololá	702	San José Chacayá	5	Chacayá	6	Junio	2023-06-27T00:00:00	2024-11-06T09:00:00	1	Precipitación	0
104136	7	Sololá	702	San José Chacayá	5	Chacayá	6	Junio	2023-06-27T00:00:00	2024-11-06T09:00:00	8	Radiación solar	573
104137	7	Sololá	702	San José Chacayá	5	Chacayá	6	Junio	2023-06-27T00:00:00	2024-11-06T10:00:00	2	Temperatura media	20.4
104138	7	Sololá	702	San José Chacayá	5	Chacayá	6	Junio	2023-06-27T00:00:00	2024-11-06T10:00:00	4	Temperatura máxima	21.1
104139	7	Sololá	702	San José Chacayá	5	Chacayá	6	Junio	2023-06-27T00:00:00	2024-11-06T10:00:00	3	Temperatura mínima	20.4
104140	7	Sololá	702	San José Chacayá	5	Chacayá	6	Junio	2023-06-27T00:00:00	2024-11-06T10:00:00	5	Humedad	65
104141	7	Sololá	702	San José Chacayá	5	Chacayá	6	Junio	2023-06-27T00:00:00	2024-11-06T10:00:00	6	Velocidad del viento	4.8
104142	7	Sololá	702	San José Chacayá	5	Chacayá	6	Junio	2023-06-27T00:00:00	2024-11-06T10:00:00	7	Dirección del viento	4.83
104143	7	Sololá	702	San José Chacayá	5	Chacayá	6	Junio	2023-06-27T00:00:00	2024-11-06T10:00:00	1	Precipitación	0
104144	7	Sololá	702	San José Chacayá	5	Chacayá	6	Junio	2023-06-27T00:00:00	2024-11-06T10:00:00	8	Radiación solar	771
104145	7	Sololá	702	San José Chacayá	5	Chacayá	6	Junio	2023-06-27T00:00:00	2024-11-06T11:00:00	2	Temperatura media	18.2
104146	7	Sololá	702	San José Chacayá	5	Chacayá	6	Junio	2023-06-27T00:00:00	2024-11-06T11:00:00	4	Temperatura máxima	20.4
104147	7	Sololá	702	San José Chacayá	5	Chacayá	6	Junio	2023-06-27T00:00:00	2024-11-06T11:00:00	3	Temperatura mínima	18.2
104148	7	Sololá	702	San José Chacayá	5	Chacayá	6	Junio	2023-06-27T00:00:00	2024-11-06T11:00:00	5	Humedad	72
104149	7	Sololá	702	San José Chacayá	5	Chacayá	6	Junio	2023-06-27T00:00:00	2024-11-06T11:00:00	6	Velocidad del viento	3.2
104150	7	Sololá	702	San José Chacayá	5	Chacayá	6	Junio	2023-06-27T00:00:00	2024-11-06T11:00:00	7	Dirección del viento	3.22
104151	7	Sololá	702	San José Chacayá	5	Chacayá	6	Junio	2023-06-27T00:00:00	2024-11-06T11:00:00	1	Precipitación	0
104152	7	Sololá	702	San José Chacayá	5	Chacayá	6	Junio	2023-06-27T00:00:00	2024-11-06T11:00:00	8	Radiación solar	918
104153	7	Sololá	702	San José Chacayá	5	Chacayá	6	Junio	2023-06-27T00:00:00	2024-11-06T12:00:00	2	Temperatura media	19
104154	7	Sololá	702	San José Chacayá	5	Chacayá	6	Junio	2023-06-27T00:00:00	2024-11-06T12:00:00	4	Temperatura máxima	19
104155	7	Sololá	702	San José Chacayá	5	Chacayá	6	Junio	2023-06-27T00:00:00	2024-11-06T12:00:00	3	Temperatura mínima	17.5
104156	7	Sololá	702	San José Chacayá	5	Chacayá	6	Junio	2023-06-27T00:00:00	2024-11-06T12:00:00	5	Humedad	72
104157	7	Sololá	702	San José Chacayá	5	Chacayá	6	Junio	2023-06-27T00:00:00	2024-11-06T12:00:00	6	Velocidad del viento	3.2
104158	7	Sololá	702	San José Chacayá	5	Chacayá	6	Junio	2023-06-27T00:00:00	2024-11-06T12:00:00	7	Dirección del viento	3.22
104159	7	Sololá	702	San José Chacayá	5	Chacayá	6	Junio	2023-06-27T00:00:00	2024-11-06T12:00:00	1	Precipitación	0
104160	7	Sololá	702	San José Chacayá	5	Chacayá	6	Junio	2023-06-27T00:00:00	2024-11-06T12:00:00	8	Radiación solar	1024
104161	7	Sololá	702	San José Chacayá	5	Chacayá	6	Junio	2023-06-27T00:00:00	2024-11-06T13:00:00	2	Temperatura media	19.8
104162	7	Sololá	702	San José Chacayá	5	Chacayá	6	Junio	2023-06-27T00:00:00	2024-11-06T13:00:00	4	Temperatura máxima	19.8
104163	7	Sololá	702	San José Chacayá	5	Chacayá	6	Junio	2023-06-27T00:00:00	2024-11-06T13:00:00	3	Temperatura mínima	18.7
104164	7	Sololá	702	San José Chacayá	5	Chacayá	6	Junio	2023-06-27T00:00:00	2024-11-06T13:00:00	5	Humedad	72
104165	7	Sololá	702	San José Chacayá	5	Chacayá	6	Junio	2023-06-27T00:00:00	2024-11-06T13:00:00	6	Velocidad del viento	1.6
104166	7	Sololá	702	San José Chacayá	5	Chacayá	6	Junio	2023-06-27T00:00:00	2024-11-06T13:00:00	7	Dirección del viento	1.61
104167	7	Sololá	702	San José Chacayá	5	Chacayá	6	Junio	2023-06-27T00:00:00	2024-11-06T13:00:00	1	Precipitación	0
104168	7	Sololá	702	San José Chacayá	5	Chacayá	6	Junio	2023-06-27T00:00:00	2024-11-06T13:00:00	8	Radiación solar	1033
104169	7	Sololá	702	San José Chacayá	5	Chacayá	6	Junio	2023-06-27T00:00:00	2024-11-06T14:00:00	2	Temperatura media	19.1
104170	7	Sololá	702	San José Chacayá	5	Chacayá	6	Junio	2023-06-27T00:00:00	2024-11-06T14:00:00	4	Temperatura máxima	20.2
104171	7	Sololá	702	San José Chacayá	5	Chacayá	6	Junio	2023-06-27T00:00:00	2024-11-06T14:00:00	3	Temperatura mínima	19.1
104172	7	Sololá	702	San José Chacayá	5	Chacayá	6	Junio	2023-06-27T00:00:00	2024-11-06T14:00:00	5	Humedad	81
104173	7	Sololá	702	San José Chacayá	5	Chacayá	6	Junio	2023-06-27T00:00:00	2024-11-06T14:00:00	6	Velocidad del viento	3.2
104174	7	Sololá	702	San José Chacayá	5	Chacayá	6	Junio	2023-06-27T00:00:00	2024-11-06T14:00:00	7	Dirección del viento	3.22
104175	7	Sololá	702	San José Chacayá	5	Chacayá	6	Junio	2023-06-27T00:00:00	2024-11-06T14:00:00	1	Precipitación	0
104176	7	Sololá	702	San José Chacayá	5	Chacayá	6	Junio	2023-06-27T00:00:00	2024-11-06T14:00:00	8	Radiación solar	824
104177	7	Sololá	702	San José Chacayá	5	Chacayá	6	Junio	2023-06-27T00:00:00	2024-11-06T15:00:00	2	Temperatura media	19.4
104178	7	Sololá	702	San José Chacayá	5	Chacayá	6	Junio	2023-06-27T00:00:00	2024-11-06T15:00:00	4	Temperatura máxima	20.4
104179	7	Sololá	702	San José Chacayá	5	Chacayá	6	Junio	2023-06-27T00:00:00	2024-11-06T15:00:00	3	Temperatura mínima	18.9
104180	7	Sololá	702	San José Chacayá	5	Chacayá	6	Junio	2023-06-27T00:00:00	2024-11-06T15:00:00	5	Humedad	75
104181	7	Sololá	702	San José Chacayá	5	Chacayá	6	Junio	2023-06-27T00:00:00	2024-11-06T15:00:00	6	Velocidad del viento	3.2
104182	7	Sololá	702	San José Chacayá	5	Chacayá	6	Junio	2023-06-27T00:00:00	2024-11-06T15:00:00	7	Dirección del viento	3.22
104183	7	Sololá	702	San José Chacayá	5	Chacayá	6	Junio	2023-06-27T00:00:00	2024-11-06T15:00:00	1	Precipitación	0
104184	7	Sololá	702	San José Chacayá	5	Chacayá	6	Junio	2023-06-27T00:00:00	2024-11-06T15:00:00	8	Radiación solar	560
104185	7	Sololá	702	San José Chacayá	5	Chacayá	6	Junio	2023-06-27T00:00:00	2024-11-06T16:00:00	2	Temperatura media	16.8
104186	7	Sololá	702	San José Chacayá	5	Chacayá	6	Junio	2023-06-27T00:00:00	2024-11-06T16:00:00	4	Temperatura máxima	19.5
104187	7	Sololá	702	San José Chacayá	5	Chacayá	6	Junio	2023-06-27T00:00:00	2024-11-06T16:00:00	3	Temperatura mínima	16.8
104188	7	Sololá	702	San José Chacayá	5	Chacayá	6	Junio	2023-06-27T00:00:00	2024-11-06T16:00:00	5	Humedad	87
104189	7	Sololá	702	San José Chacayá	5	Chacayá	6	Junio	2023-06-27T00:00:00	2024-11-06T16:00:00	6	Velocidad del viento	3.2
104190	7	Sololá	702	San José Chacayá	5	Chacayá	6	Junio	2023-06-27T00:00:00	2024-11-06T16:00:00	7	Dirección del viento	3.22
104191	7	Sololá	702	San José Chacayá	5	Chacayá	6	Junio	2023-06-27T00:00:00	2024-11-06T16:00:00	1	Precipitación	0
104192	7	Sololá	702	San José Chacayá	5	Chacayá	6	Junio	2023-06-27T00:00:00	2024-11-06T16:00:00	8	Radiación solar	140
104193	7	Sololá	702	San José Chacayá	5	Chacayá	6	Junio	2023-06-27T00:00:00	2024-11-06T17:00:00	2	Temperatura media	15.7
104194	7	Sololá	702	San José Chacayá	5	Chacayá	6	Junio	2023-06-27T00:00:00	2024-11-06T17:00:00	4	Temperatura máxima	16.8
104195	7	Sololá	702	San José Chacayá	5	Chacayá	6	Junio	2023-06-27T00:00:00	2024-11-06T17:00:00	3	Temperatura mínima	15.7
104196	7	Sololá	702	San José Chacayá	5	Chacayá	6	Junio	2023-06-27T00:00:00	2024-11-06T17:00:00	5	Humedad	92
104197	7	Sololá	702	San José Chacayá	5	Chacayá	6	Junio	2023-06-27T00:00:00	2024-11-06T17:00:00	6	Velocidad del viento	3.2
104198	7	Sololá	702	San José Chacayá	5	Chacayá	6	Junio	2023-06-27T00:00:00	2024-11-06T17:00:00	7	Dirección del viento	3.22
104199	7	Sololá	702	San José Chacayá	5	Chacayá	6	Junio	2023-06-27T00:00:00	2024-11-06T17:00:00	1	Precipitación	0
104200	7	Sololá	702	San José Chacayá	5	Chacayá	6	Junio	2023-06-27T00:00:00	2024-11-06T17:00:00	8	Radiación solar	23
104201	7	Sololá	702	San José Chacayá	5	Chacayá	6	Junio	2023-06-27T00:00:00	2024-11-06T18:00:00	2	Temperatura media	15.4
104202	7	Sololá	702	San José Chacayá	5	Chacayá	6	Junio	2023-06-27T00:00:00	2024-11-06T18:00:00	4	Temperatura máxima	15.7
104203	7	Sololá	702	San José Chacayá	5	Chacayá	6	Junio	2023-06-27T00:00:00	2024-11-06T18:00:00	3	Temperatura mínima	15.4
104204	7	Sololá	702	San José Chacayá	5	Chacayá	6	Junio	2023-06-27T00:00:00	2024-11-06T18:00:00	5	Humedad	93
104205	7	Sololá	702	San José Chacayá	5	Chacayá	6	Junio	2023-06-27T00:00:00	2024-11-06T18:00:00	6	Velocidad del viento	3.2
104206	7	Sololá	702	San José Chacayá	5	Chacayá	6	Junio	2023-06-27T00:00:00	2024-11-06T18:00:00	7	Dirección del viento	3.22
104207	7	Sololá	702	San José Chacayá	5	Chacayá	6	Junio	2023-06-27T00:00:00	2024-11-06T18:00:00	1	Precipitación	3.2
104208	7	Sololá	702	San José Chacayá	5	Chacayá	6	Junio	2023-06-27T00:00:00	2024-11-06T18:00:00	8	Radiación solar	12
104209	7	Sololá	702	San José Chacayá	5	Chacayá	6	Junio	2023-06-27T00:00:00	2024-11-06T19:00:00	2	Temperatura media	15
104210	7	Sololá	702	San José Chacayá	5	Chacayá	6	Junio	2023-06-27T00:00:00	2024-11-06T19:00:00	4	Temperatura máxima	15.4
104211	7	Sololá	702	San José Chacayá	5	Chacayá	6	Junio	2023-06-27T00:00:00	2024-11-06T19:00:00	3	Temperatura mínima	15
104212	7	Sololá	702	San José Chacayá	5	Chacayá	6	Junio	2023-06-27T00:00:00	2024-11-06T19:00:00	5	Humedad	94
104213	7	Sololá	702	San José Chacayá	5	Chacayá	6	Junio	2023-06-27T00:00:00	2024-11-06T19:00:00	6	Velocidad del viento	3.2
104214	7	Sololá	702	San José Chacayá	5	Chacayá	6	Junio	2023-06-27T00:00:00	2024-11-06T19:00:00	7	Dirección del viento	3.22
104215	7	Sololá	702	San José Chacayá	5	Chacayá	6	Junio	2023-06-27T00:00:00	2024-11-06T19:00:00	1	Precipitación	4.4
104216	7	Sololá	702	San José Chacayá	5	Chacayá	6	Junio	2023-06-27T00:00:00	2024-11-06T19:00:00	8	Radiación solar	0
104217	7	Sololá	702	San José Chacayá	5	Chacayá	6	Junio	2023-06-27T00:00:00	2024-11-06T20:00:00	2	Temperatura media	14.2
104218	7	Sololá	702	San José Chacayá	5	Chacayá	6	Junio	2023-06-27T00:00:00	2024-11-06T20:00:00	4	Temperatura máxima	15
104219	7	Sololá	702	San José Chacayá	5	Chacayá	6	Junio	2023-06-27T00:00:00	2024-11-06T20:00:00	3	Temperatura mínima	14.2
104220	7	Sololá	702	San José Chacayá	5	Chacayá	6	Junio	2023-06-27T00:00:00	2024-11-06T20:00:00	5	Humedad	94
104221	7	Sololá	702	San José Chacayá	5	Chacayá	6	Junio	2023-06-27T00:00:00	2024-11-06T20:00:00	6	Velocidad del viento	3.2
104222	7	Sololá	702	San José Chacayá	5	Chacayá	6	Junio	2023-06-27T00:00:00	2024-11-06T20:00:00	7	Dirección del viento	3.22
104223	7	Sololá	702	San José Chacayá	5	Chacayá	6	Junio	2023-06-27T00:00:00	2024-11-06T20:00:00	1	Precipitación	12
104224	7	Sololá	702	San José Chacayá	5	Chacayá	6	Junio	2023-06-27T00:00:00	2024-11-06T20:00:00	8	Radiación solar	0
104225	7	Sololá	702	San José Chacayá	5	Chacayá	6	Junio	2023-06-27T00:00:00	2024-11-06T21:00:00	2	Temperatura media	14.2
104226	7	Sololá	702	San José Chacayá	5	Chacayá	6	Junio	2023-06-27T00:00:00	2024-11-06T21:00:00	4	Temperatura máxima	14.3
104227	7	Sololá	702	San José Chacayá	5	Chacayá	6	Junio	2023-06-27T00:00:00	2024-11-06T21:00:00	3	Temperatura mínima	14.2
104228	7	Sololá	702	San José Chacayá	5	Chacayá	6	Junio	2023-06-27T00:00:00	2024-11-06T21:00:00	5	Humedad	95
104229	7	Sololá	702	San José Chacayá	5	Chacayá	6	Junio	2023-06-27T00:00:00	2024-11-06T21:00:00	6	Velocidad del viento	0
104230	7	Sololá	702	San José Chacayá	5	Chacayá	6	Junio	2023-06-27T00:00:00	2024-11-06T21:00:00	7	Dirección del viento	0
104231	7	Sololá	702	San José Chacayá	5	Chacayá	6	Junio	2023-06-27T00:00:00	2024-11-06T21:00:00	1	Precipitación	0.8
104232	7	Sololá	702	San José Chacayá	5	Chacayá	6	Junio	2023-06-27T00:00:00	2024-11-06T21:00:00	8	Radiación solar	0
104233	7	Sololá	702	San José Chacayá	5	Chacayá	6	Junio	2023-06-27T00:00:00	2024-11-06T22:00:00	2	Temperatura media	14.2
104234	7	Sololá	702	San José Chacayá	5	Chacayá	6	Junio	2023-06-27T00:00:00	2024-11-06T22:00:00	4	Temperatura máxima	14.3
104235	7	Sololá	702	San José Chacayá	5	Chacayá	6	Junio	2023-06-27T00:00:00	2024-11-06T22:00:00	3	Temperatura mínima	14.1
104236	7	Sololá	702	San José Chacayá	5	Chacayá	6	Junio	2023-06-27T00:00:00	2024-11-06T22:00:00	5	Humedad	95
104237	7	Sololá	702	San José Chacayá	5	Chacayá	6	Junio	2023-06-27T00:00:00	2024-11-06T22:00:00	6	Velocidad del viento	0
104238	7	Sololá	702	San José Chacayá	5	Chacayá	6	Junio	2023-06-27T00:00:00	2024-11-06T22:00:00	7	Dirección del viento	0
104239	7	Sololá	702	San José Chacayá	5	Chacayá	6	Junio	2023-06-27T00:00:00	2024-11-06T22:00:00	1	Precipitación	0
104240	7	Sololá	702	San José Chacayá	5	Chacayá	6	Junio	2023-06-27T00:00:00	2024-11-06T22:00:00	8	Radiación solar	0
104241	7	Sololá	702	San José Chacayá	5	Chacayá	6	Junio	2023-06-27T00:00:00	2024-11-06T23:00:00	2	Temperatura media	14.2
104242	7	Sololá	702	San José Chacayá	5	Chacayá	6	Junio	2023-06-27T00:00:00	2024-11-06T23:00:00	4	Temperatura máxima	14.3
104243	7	Sololá	702	San José Chacayá	5	Chacayá	6	Junio	2023-06-27T00:00:00	2024-11-06T23:00:00	3	Temperatura mínima	14.2
104244	7	Sololá	702	San José Chacayá	5	Chacayá	6	Junio	2023-06-27T00:00:00	2024-11-06T23:00:00	5	Humedad	95
104245	7	Sololá	702	San José Chacayá	5	Chacayá	6	Junio	2023-06-27T00:00:00	2024-11-06T23:00:00	6	Velocidad del viento	0
104246	7	Sololá	702	San José Chacayá	5	Chacayá	6	Junio	2023-06-27T00:00:00	2024-11-06T23:00:00	7	Dirección del viento	0
104247	7	Sololá	702	San José Chacayá	5	Chacayá	6	Junio	2023-06-27T00:00:00	2024-11-06T23:00:00	1	Precipitación	0
104248	7	Sololá	702	San José Chacayá	5	Chacayá	6	Junio	2023-06-27T00:00:00	2024-11-06T23:00:00	8	Radiación solar	0
104249	7	Sololá	702	San José Chacayá	5	Chacayá	6	Junio	2023-06-28T00:00:00	2024-11-06T00:00:00	2	Temperatura media	14.2
104250	7	Sololá	702	San José Chacayá	5	Chacayá	6	Junio	2023-06-28T00:00:00	2024-11-06T00:00:00	4	Temperatura máxima	14.2
104251	7	Sololá	702	San José Chacayá	5	Chacayá	6	Junio	2023-06-28T00:00:00	2024-11-06T00:00:00	3	Temperatura mínima	14.2
104252	7	Sololá	702	San José Chacayá	5	Chacayá	6	Junio	2023-06-28T00:00:00	2024-11-06T00:00:00	5	Humedad	96
104253	7	Sololá	702	San José Chacayá	5	Chacayá	6	Junio	2023-06-28T00:00:00	2024-11-06T00:00:00	6	Velocidad del viento	0
104254	7	Sololá	702	San José Chacayá	5	Chacayá	6	Junio	2023-06-28T00:00:00	2024-11-06T00:00:00	7	Dirección del viento	0
104255	7	Sololá	702	San José Chacayá	5	Chacayá	6	Junio	2023-06-28T00:00:00	2024-11-06T00:00:00	1	Precipitación	0
104256	7	Sololá	702	San José Chacayá	5	Chacayá	6	Junio	2023-06-28T00:00:00	2024-11-06T00:00:00	8	Radiación solar	0
104257	7	Sololá	702	San José Chacayá	5	Chacayá	6	Junio	2023-06-28T00:00:00	2024-11-06T01:00:00	2	Temperatura media	14
104258	7	Sololá	702	San José Chacayá	5	Chacayá	6	Junio	2023-06-28T00:00:00	2024-11-06T01:00:00	4	Temperatura máxima	14.2
104259	7	Sololá	702	San José Chacayá	5	Chacayá	6	Junio	2023-06-28T00:00:00	2024-11-06T01:00:00	3	Temperatura mínima	13.9
104260	7	Sololá	702	San José Chacayá	5	Chacayá	6	Junio	2023-06-28T00:00:00	2024-11-06T01:00:00	5	Humedad	96
104261	7	Sololá	702	San José Chacayá	5	Chacayá	6	Junio	2023-06-28T00:00:00	2024-11-06T01:00:00	6	Velocidad del viento	0
104262	7	Sololá	702	San José Chacayá	5	Chacayá	6	Junio	2023-06-28T00:00:00	2024-11-06T01:00:00	7	Dirección del viento	0
104263	7	Sololá	702	San José Chacayá	5	Chacayá	6	Junio	2023-06-28T00:00:00	2024-11-06T01:00:00	1	Precipitación	0
104264	7	Sololá	702	San José Chacayá	5	Chacayá	6	Junio	2023-06-28T00:00:00	2024-11-06T01:00:00	8	Radiación solar	0
104265	7	Sololá	702	San José Chacayá	5	Chacayá	6	Junio	2023-06-28T00:00:00	2024-11-06T02:00:00	2	Temperatura media	14
104266	7	Sololá	702	San José Chacayá	5	Chacayá	6	Junio	2023-06-28T00:00:00	2024-11-06T02:00:00	4	Temperatura máxima	14.1
104267	7	Sololá	702	San José Chacayá	5	Chacayá	6	Junio	2023-06-28T00:00:00	2024-11-06T02:00:00	3	Temperatura mínima	13.9
104268	7	Sololá	702	San José Chacayá	5	Chacayá	6	Junio	2023-06-28T00:00:00	2024-11-06T02:00:00	5	Humedad	96
104269	7	Sololá	702	San José Chacayá	5	Chacayá	6	Junio	2023-06-28T00:00:00	2024-11-06T02:00:00	6	Velocidad del viento	0
104270	7	Sololá	702	San José Chacayá	5	Chacayá	6	Junio	2023-06-28T00:00:00	2024-11-06T02:00:00	7	Dirección del viento	0
104271	7	Sololá	702	San José Chacayá	5	Chacayá	6	Junio	2023-06-28T00:00:00	2024-11-06T02:00:00	1	Precipitación	0
104272	7	Sololá	702	San José Chacayá	5	Chacayá	6	Junio	2023-06-28T00:00:00	2024-11-06T02:00:00	8	Radiación solar	0
104273	7	Sololá	702	San José Chacayá	5	Chacayá	6	Junio	2023-06-28T00:00:00	2024-11-06T03:00:00	2	Temperatura media	13.9
104274	7	Sololá	702	San José Chacayá	5	Chacayá	6	Junio	2023-06-28T00:00:00	2024-11-06T03:00:00	4	Temperatura máxima	14.1
104275	7	Sololá	702	San José Chacayá	5	Chacayá	6	Junio	2023-06-28T00:00:00	2024-11-06T03:00:00	3	Temperatura mínima	13.9
104276	7	Sololá	702	San José Chacayá	5	Chacayá	6	Junio	2023-06-28T00:00:00	2024-11-06T03:00:00	5	Humedad	96
104277	7	Sololá	702	San José Chacayá	5	Chacayá	6	Junio	2023-06-28T00:00:00	2024-11-06T03:00:00	6	Velocidad del viento	0
104278	7	Sololá	702	San José Chacayá	5	Chacayá	6	Junio	2023-06-28T00:00:00	2024-11-06T03:00:00	7	Dirección del viento	0
104279	7	Sololá	702	San José Chacayá	5	Chacayá	6	Junio	2023-06-28T00:00:00	2024-11-06T03:00:00	1	Precipitación	1
104280	7	Sololá	702	San José Chacayá	5	Chacayá	6	Junio	2023-06-28T00:00:00	2024-11-06T03:00:00	8	Radiación solar	0
104281	7	Sololá	702	San José Chacayá	5	Chacayá	6	Junio	2023-06-28T00:00:00	2024-11-06T04:00:00	2	Temperatura media	13.5
104282	7	Sololá	702	San José Chacayá	5	Chacayá	6	Junio	2023-06-28T00:00:00	2024-11-06T04:00:00	4	Temperatura máxima	13.9
104283	7	Sololá	702	San José Chacayá	5	Chacayá	6	Junio	2023-06-28T00:00:00	2024-11-06T04:00:00	3	Temperatura mínima	13.5
104284	7	Sololá	702	San José Chacayá	5	Chacayá	6	Junio	2023-06-28T00:00:00	2024-11-06T04:00:00	5	Humedad	96
104285	7	Sololá	702	San José Chacayá	5	Chacayá	6	Junio	2023-06-28T00:00:00	2024-11-06T04:00:00	6	Velocidad del viento	0
104286	7	Sololá	702	San José Chacayá	5	Chacayá	6	Junio	2023-06-28T00:00:00	2024-11-06T04:00:00	7	Dirección del viento	0
104287	7	Sololá	702	San José Chacayá	5	Chacayá	6	Junio	2023-06-28T00:00:00	2024-11-06T04:00:00	1	Precipitación	0
104288	7	Sololá	702	San José Chacayá	5	Chacayá	6	Junio	2023-06-28T00:00:00	2024-11-06T04:00:00	8	Radiación solar	0
104289	7	Sololá	702	San José Chacayá	5	Chacayá	6	Junio	2023-06-28T00:00:00	2024-11-06T05:00:00	2	Temperatura media	13.1
104290	7	Sololá	702	San José Chacayá	5	Chacayá	6	Junio	2023-06-28T00:00:00	2024-11-06T05:00:00	4	Temperatura máxima	13.5
104291	7	Sololá	702	San José Chacayá	5	Chacayá	6	Junio	2023-06-28T00:00:00	2024-11-06T05:00:00	3	Temperatura mínima	13.1
104292	7	Sololá	702	San José Chacayá	5	Chacayá	6	Junio	2023-06-28T00:00:00	2024-11-06T05:00:00	5	Humedad	95
104293	7	Sololá	702	San José Chacayá	5	Chacayá	6	Junio	2023-06-28T00:00:00	2024-11-06T05:00:00	6	Velocidad del viento	0
104294	7	Sololá	702	San José Chacayá	5	Chacayá	6	Junio	2023-06-28T00:00:00	2024-11-06T05:00:00	7	Dirección del viento	0
104295	7	Sololá	702	San José Chacayá	5	Chacayá	6	Junio	2023-06-28T00:00:00	2024-11-06T05:00:00	1	Precipitación	0.2
104296	7	Sololá	702	San José Chacayá	5	Chacayá	6	Junio	2023-06-28T00:00:00	2024-11-06T05:00:00	8	Radiación solar	0
104297	7	Sololá	702	San José Chacayá	5	Chacayá	6	Junio	2023-06-28T00:00:00	2024-11-06T06:00:00	2	Temperatura media	12.4
104298	7	Sololá	702	San José Chacayá	5	Chacayá	6	Junio	2023-06-28T00:00:00	2024-11-06T06:00:00	4	Temperatura máxima	13.1
104299	7	Sololá	702	San José Chacayá	5	Chacayá	6	Junio	2023-06-28T00:00:00	2024-11-06T06:00:00	3	Temperatura mínima	12.4
104300	7	Sololá	702	San José Chacayá	5	Chacayá	6	Junio	2023-06-28T00:00:00	2024-11-06T06:00:00	5	Humedad	95
104301	7	Sololá	702	San José Chacayá	5	Chacayá	6	Junio	2023-06-28T00:00:00	2024-11-06T06:00:00	6	Velocidad del viento	0
104302	7	Sololá	702	San José Chacayá	5	Chacayá	6	Junio	2023-06-28T00:00:00	2024-11-06T06:00:00	7	Dirección del viento	0
104303	7	Sololá	702	San José Chacayá	5	Chacayá	6	Junio	2023-06-28T00:00:00	2024-11-06T06:00:00	1	Precipitación	0
104304	7	Sololá	702	San José Chacayá	5	Chacayá	6	Junio	2023-06-28T00:00:00	2024-11-06T06:00:00	8	Radiación solar	2
104305	7	Sololá	702	San José Chacayá	5	Chacayá	6	Junio	2023-06-28T00:00:00	2024-11-06T07:00:00	2	Temperatura media	13.9
104306	7	Sololá	702	San José Chacayá	5	Chacayá	6	Junio	2023-06-28T00:00:00	2024-11-06T07:00:00	4	Temperatura máxima	13.9
104307	7	Sololá	702	San José Chacayá	5	Chacayá	6	Junio	2023-06-28T00:00:00	2024-11-06T07:00:00	3	Temperatura mínima	12.4
104308	7	Sololá	702	San José Chacayá	5	Chacayá	6	Junio	2023-06-28T00:00:00	2024-11-06T07:00:00	5	Humedad	96
104309	7	Sololá	702	San José Chacayá	5	Chacayá	6	Junio	2023-06-28T00:00:00	2024-11-06T07:00:00	6	Velocidad del viento	0
104310	7	Sololá	702	San José Chacayá	5	Chacayá	6	Junio	2023-06-28T00:00:00	2024-11-06T07:00:00	7	Dirección del viento	0
104311	7	Sololá	702	San José Chacayá	5	Chacayá	6	Junio	2023-06-28T00:00:00	2024-11-06T07:00:00	1	Precipitación	0
104312	7	Sololá	702	San José Chacayá	5	Chacayá	6	Junio	2023-06-28T00:00:00	2024-11-06T07:00:00	8	Radiación solar	24
104313	7	Sololá	702	San José Chacayá	5	Chacayá	6	Junio	2023-06-28T00:00:00	2024-11-06T08:00:00	2	Temperatura media	15.9
104314	7	Sololá	702	San José Chacayá	5	Chacayá	6	Junio	2023-06-28T00:00:00	2024-11-06T08:00:00	4	Temperatura máxima	15.9
104315	7	Sololá	702	San José Chacayá	5	Chacayá	6	Junio	2023-06-28T00:00:00	2024-11-06T08:00:00	3	Temperatura mínima	13.8
104316	7	Sololá	702	San José Chacayá	5	Chacayá	6	Junio	2023-06-28T00:00:00	2024-11-06T08:00:00	5	Humedad	91
104317	7	Sololá	702	San José Chacayá	5	Chacayá	6	Junio	2023-06-28T00:00:00	2024-11-06T08:00:00	6	Velocidad del viento	0
104318	7	Sololá	702	San José Chacayá	5	Chacayá	6	Junio	2023-06-28T00:00:00	2024-11-06T08:00:00	7	Dirección del viento	0
104319	7	Sololá	702	San José Chacayá	5	Chacayá	6	Junio	2023-06-28T00:00:00	2024-11-06T08:00:00	1	Precipitación	0
104320	7	Sololá	702	San José Chacayá	5	Chacayá	6	Junio	2023-06-28T00:00:00	2024-11-06T08:00:00	8	Radiación solar	132
104321	7	Sololá	702	San José Chacayá	5	Chacayá	6	Junio	2023-06-28T00:00:00	2024-11-06T09:00:00	2	Temperatura media	18.1
104322	7	Sololá	702	San José Chacayá	5	Chacayá	6	Junio	2023-06-28T00:00:00	2024-11-06T09:00:00	4	Temperatura máxima	18.1
104323	7	Sololá	702	San José Chacayá	5	Chacayá	6	Junio	2023-06-28T00:00:00	2024-11-06T09:00:00	3	Temperatura mínima	15.9
104324	7	Sololá	702	San José Chacayá	5	Chacayá	6	Junio	2023-06-28T00:00:00	2024-11-06T09:00:00	5	Humedad	77
104325	7	Sololá	702	San José Chacayá	5	Chacayá	6	Junio	2023-06-28T00:00:00	2024-11-06T09:00:00	6	Velocidad del viento	1.6
104326	7	Sololá	702	San José Chacayá	5	Chacayá	6	Junio	2023-06-28T00:00:00	2024-11-06T09:00:00	7	Dirección del viento	1.61
104327	7	Sololá	702	San José Chacayá	5	Chacayá	6	Junio	2023-06-28T00:00:00	2024-11-06T09:00:00	1	Precipitación	0
104328	7	Sololá	702	San José Chacayá	5	Chacayá	6	Junio	2023-06-28T00:00:00	2024-11-06T09:00:00	8	Radiación solar	495
104329	7	Sololá	702	San José Chacayá	5	Chacayá	6	Junio	2023-06-28T00:00:00	2024-11-06T10:00:00	2	Temperatura media	20.4
104330	7	Sololá	702	San José Chacayá	5	Chacayá	6	Junio	2023-06-28T00:00:00	2024-11-06T10:00:00	4	Temperatura máxima	20.4
104331	7	Sololá	702	San José Chacayá	5	Chacayá	6	Junio	2023-06-28T00:00:00	2024-11-06T10:00:00	3	Temperatura mínima	18.1
104332	7	Sololá	702	San José Chacayá	5	Chacayá	6	Junio	2023-06-28T00:00:00	2024-11-06T10:00:00	5	Humedad	71
104333	7	Sololá	702	San José Chacayá	5	Chacayá	6	Junio	2023-06-28T00:00:00	2024-11-06T10:00:00	6	Velocidad del viento	1.6
104334	7	Sololá	702	San José Chacayá	5	Chacayá	6	Junio	2023-06-28T00:00:00	2024-11-06T10:00:00	7	Dirección del viento	1.61
104335	7	Sololá	702	San José Chacayá	5	Chacayá	6	Junio	2023-06-28T00:00:00	2024-11-06T10:00:00	1	Precipitación	0
104336	7	Sololá	702	San José Chacayá	5	Chacayá	6	Junio	2023-06-28T00:00:00	2024-11-06T10:00:00	8	Radiación solar	701
104337	7	Sololá	702	San José Chacayá	5	Chacayá	6	Junio	2023-06-28T00:00:00	2024-11-06T11:00:00	2	Temperatura media	22.2
104338	7	Sololá	702	San José Chacayá	5	Chacayá	6	Junio	2023-06-28T00:00:00	2024-11-06T11:00:00	4	Temperatura máxima	22.4
104339	7	Sololá	702	San José Chacayá	5	Chacayá	6	Junio	2023-06-28T00:00:00	2024-11-06T11:00:00	3	Temperatura mínima	20.4
104340	7	Sololá	702	San José Chacayá	5	Chacayá	6	Junio	2023-06-28T00:00:00	2024-11-06T11:00:00	5	Humedad	68
104341	7	Sololá	702	San José Chacayá	5	Chacayá	6	Junio	2023-06-28T00:00:00	2024-11-06T11:00:00	6	Velocidad del viento	3.2
104342	7	Sololá	702	San José Chacayá	5	Chacayá	6	Junio	2023-06-28T00:00:00	2024-11-06T11:00:00	7	Dirección del viento	3.22
104343	7	Sololá	702	San José Chacayá	5	Chacayá	6	Junio	2023-06-28T00:00:00	2024-11-06T11:00:00	1	Precipitación	0
104344	7	Sololá	702	San José Chacayá	5	Chacayá	6	Junio	2023-06-28T00:00:00	2024-11-06T11:00:00	8	Radiación solar	675
104345	7	Sololá	702	San José Chacayá	5	Chacayá	6	Junio	2023-06-28T00:00:00	2024-11-06T12:00:00	2	Temperatura media	22
104346	7	Sololá	702	San José Chacayá	5	Chacayá	6	Junio	2023-06-28T00:00:00	2024-11-06T12:00:00	4	Temperatura máxima	22.6
104347	7	Sololá	702	San José Chacayá	5	Chacayá	6	Junio	2023-06-28T00:00:00	2024-11-06T12:00:00	3	Temperatura mínima	21.4
104348	7	Sololá	702	San José Chacayá	5	Chacayá	6	Junio	2023-06-28T00:00:00	2024-11-06T12:00:00	5	Humedad	63
104349	7	Sololá	702	San José Chacayá	5	Chacayá	6	Junio	2023-06-28T00:00:00	2024-11-06T12:00:00	6	Velocidad del viento	3.2
104350	7	Sololá	702	San José Chacayá	5	Chacayá	6	Junio	2023-06-28T00:00:00	2024-11-06T12:00:00	7	Dirección del viento	3.22
104351	7	Sololá	702	San José Chacayá	5	Chacayá	6	Junio	2023-06-28T00:00:00	2024-11-06T12:00:00	1	Precipitación	0
104352	7	Sololá	702	San José Chacayá	5	Chacayá	6	Junio	2023-06-28T00:00:00	2024-11-06T12:00:00	8	Radiación solar	832
104353	7	Sololá	702	San José Chacayá	5	Chacayá	6	Junio	2023-06-28T00:00:00	2024-11-06T13:00:00	2	Temperatura media	23.4
104354	7	Sololá	702	San José Chacayá	5	Chacayá	6	Junio	2023-06-28T00:00:00	2024-11-06T13:00:00	4	Temperatura máxima	23.5
104355	7	Sololá	702	San José Chacayá	5	Chacayá	6	Junio	2023-06-28T00:00:00	2024-11-06T13:00:00	3	Temperatura mínima	21.8
104356	7	Sololá	702	San José Chacayá	5	Chacayá	6	Junio	2023-06-28T00:00:00	2024-11-06T13:00:00	5	Humedad	65
104357	7	Sololá	702	San José Chacayá	5	Chacayá	6	Junio	2023-06-28T00:00:00	2024-11-06T13:00:00	6	Velocidad del viento	3.2
104358	7	Sololá	702	San José Chacayá	5	Chacayá	6	Junio	2023-06-28T00:00:00	2024-11-06T13:00:00	7	Dirección del viento	3.22
104359	7	Sololá	702	San José Chacayá	5	Chacayá	6	Junio	2023-06-28T00:00:00	2024-11-06T13:00:00	1	Precipitación	0
104360	7	Sololá	702	San José Chacayá	5	Chacayá	6	Junio	2023-06-28T00:00:00	2024-11-06T13:00:00	8	Radiación solar	259
104361	7	Sololá	702	San José Chacayá	5	Chacayá	6	Junio	2023-06-28T00:00:00	2024-11-06T14:00:00	2	Temperatura media	21.1
104362	7	Sololá	702	San José Chacayá	5	Chacayá	6	Junio	2023-06-28T00:00:00	2024-11-06T14:00:00	4	Temperatura máxima	23.5
104363	7	Sololá	702	San José Chacayá	5	Chacayá	6	Junio	2023-06-28T00:00:00	2024-11-06T14:00:00	3	Temperatura mínima	21.1
104364	7	Sololá	702	San José Chacayá	5	Chacayá	6	Junio	2023-06-28T00:00:00	2024-11-06T14:00:00	5	Humedad	70
104365	7	Sololá	702	San José Chacayá	5	Chacayá	6	Junio	2023-06-28T00:00:00	2024-11-06T14:00:00	6	Velocidad del viento	6.4
104366	7	Sololá	702	San José Chacayá	5	Chacayá	6	Junio	2023-06-28T00:00:00	2024-11-06T14:00:00	7	Dirección del viento	6.44
104367	7	Sololá	702	San José Chacayá	5	Chacayá	6	Junio	2023-06-28T00:00:00	2024-11-06T14:00:00	1	Precipitación	0
104368	7	Sololá	702	San José Chacayá	5	Chacayá	6	Junio	2023-06-28T00:00:00	2024-11-06T14:00:00	8	Radiación solar	391
104369	7	Sololá	702	San José Chacayá	5	Chacayá	6	Junio	2023-06-28T00:00:00	2024-11-06T15:00:00	2	Temperatura media	19.4
104370	7	Sololá	702	San José Chacayá	5	Chacayá	6	Junio	2023-06-28T00:00:00	2024-11-06T15:00:00	4	Temperatura máxima	21.1
104371	7	Sololá	702	San José Chacayá	5	Chacayá	6	Junio	2023-06-28T00:00:00	2024-11-06T15:00:00	3	Temperatura mínima	19.3
104372	7	Sololá	702	San José Chacayá	5	Chacayá	6	Junio	2023-06-28T00:00:00	2024-11-06T15:00:00	5	Humedad	79
104373	7	Sololá	702	San José Chacayá	5	Chacayá	6	Junio	2023-06-28T00:00:00	2024-11-06T15:00:00	6	Velocidad del viento	3.2
104374	7	Sololá	702	San José Chacayá	5	Chacayá	6	Junio	2023-06-28T00:00:00	2024-11-06T15:00:00	7	Dirección del viento	3.22
104375	7	Sololá	702	San José Chacayá	5	Chacayá	6	Junio	2023-06-28T00:00:00	2024-11-06T15:00:00	1	Precipitación	0
104376	7	Sololá	702	San José Chacayá	5	Chacayá	6	Junio	2023-06-28T00:00:00	2024-11-06T15:00:00	8	Radiación solar	106
104377	7	Sololá	702	San José Chacayá	5	Chacayá	6	Junio	2023-06-28T00:00:00	2024-11-06T16:00:00	2	Temperatura media	17.9
104378	7	Sololá	702	San José Chacayá	5	Chacayá	6	Junio	2023-06-28T00:00:00	2024-11-06T16:00:00	4	Temperatura máxima	19.4
104379	7	Sololá	702	San José Chacayá	5	Chacayá	6	Junio	2023-06-28T00:00:00	2024-11-06T16:00:00	3	Temperatura mínima	17.9
104380	7	Sololá	702	San José Chacayá	5	Chacayá	6	Junio	2023-06-28T00:00:00	2024-11-06T16:00:00	5	Humedad	88
104381	7	Sololá	702	San José Chacayá	5	Chacayá	6	Junio	2023-06-28T00:00:00	2024-11-06T16:00:00	6	Velocidad del viento	1.6
104382	7	Sololá	702	San José Chacayá	5	Chacayá	6	Junio	2023-06-28T00:00:00	2024-11-06T16:00:00	7	Dirección del viento	1.61
104383	7	Sololá	702	San José Chacayá	5	Chacayá	6	Junio	2023-06-28T00:00:00	2024-11-06T16:00:00	1	Precipitación	0
104384	7	Sololá	702	San José Chacayá	5	Chacayá	6	Junio	2023-06-28T00:00:00	2024-11-06T16:00:00	8	Radiación solar	79
104385	7	Sololá	702	San José Chacayá	5	Chacayá	6	Junio	2023-06-28T00:00:00	2024-11-06T17:00:00	2	Temperatura media	16.7
104386	7	Sololá	702	San José Chacayá	5	Chacayá	6	Junio	2023-06-28T00:00:00	2024-11-06T17:00:00	4	Temperatura máxima	17.9
104387	7	Sololá	702	San José Chacayá	5	Chacayá	6	Junio	2023-06-28T00:00:00	2024-11-06T17:00:00	3	Temperatura mínima	16.7
104388	7	Sololá	702	San José Chacayá	5	Chacayá	6	Junio	2023-06-28T00:00:00	2024-11-06T17:00:00	5	Humedad	92
104389	7	Sololá	702	San José Chacayá	5	Chacayá	6	Junio	2023-06-28T00:00:00	2024-11-06T17:00:00	6	Velocidad del viento	1.6
104390	7	Sololá	702	San José Chacayá	5	Chacayá	6	Junio	2023-06-28T00:00:00	2024-11-06T17:00:00	7	Dirección del viento	1.61
104391	7	Sololá	702	San José Chacayá	5	Chacayá	6	Junio	2023-06-28T00:00:00	2024-11-06T17:00:00	1	Precipitación	0.6
104392	7	Sololá	702	San José Chacayá	5	Chacayá	6	Junio	2023-06-28T00:00:00	2024-11-06T17:00:00	8	Radiación solar	88
104393	7	Sololá	702	San José Chacayá	5	Chacayá	6	Junio	2023-06-28T00:00:00	2024-11-06T18:00:00	2	Temperatura media	16.3
104394	7	Sololá	702	San José Chacayá	5	Chacayá	6	Junio	2023-06-28T00:00:00	2024-11-06T18:00:00	4	Temperatura máxima	16.7
104395	7	Sololá	702	San José Chacayá	5	Chacayá	6	Junio	2023-06-28T00:00:00	2024-11-06T18:00:00	3	Temperatura mínima	16.3
104396	7	Sololá	702	San José Chacayá	5	Chacayá	6	Junio	2023-06-28T00:00:00	2024-11-06T18:00:00	5	Humedad	94
104397	7	Sololá	702	San José Chacayá	5	Chacayá	6	Junio	2023-06-28T00:00:00	2024-11-06T18:00:00	6	Velocidad del viento	0
104398	7	Sololá	702	San José Chacayá	5	Chacayá	6	Junio	2023-06-28T00:00:00	2024-11-06T18:00:00	7	Dirección del viento	0
104399	7	Sololá	702	San José Chacayá	5	Chacayá	6	Junio	2023-06-28T00:00:00	2024-11-06T18:00:00	1	Precipitación	0.2
104400	7	Sololá	702	San José Chacayá	5	Chacayá	6	Junio	2023-06-28T00:00:00	2024-11-06T18:00:00	8	Radiación solar	45
104401	7	Sololá	702	San José Chacayá	5	Chacayá	6	Junio	2023-06-28T00:00:00	2024-11-06T19:00:00	2	Temperatura media	15.8
104402	7	Sololá	702	San José Chacayá	5	Chacayá	6	Junio	2023-06-28T00:00:00	2024-11-06T19:00:00	4	Temperatura máxima	16.3
104403	7	Sololá	702	San José Chacayá	5	Chacayá	6	Junio	2023-06-28T00:00:00	2024-11-06T19:00:00	3	Temperatura mínima	15.7
104404	7	Sololá	702	San José Chacayá	5	Chacayá	6	Junio	2023-06-28T00:00:00	2024-11-06T19:00:00	5	Humedad	93
104405	7	Sololá	702	San José Chacayá	5	Chacayá	6	Junio	2023-06-28T00:00:00	2024-11-06T19:00:00	6	Velocidad del viento	0
104406	7	Sololá	702	San José Chacayá	5	Chacayá	6	Junio	2023-06-28T00:00:00	2024-11-06T19:00:00	7	Dirección del viento	0
104407	7	Sololá	702	San José Chacayá	5	Chacayá	6	Junio	2023-06-28T00:00:00	2024-11-06T19:00:00	1	Precipitación	0
104408	7	Sololá	702	San José Chacayá	5	Chacayá	6	Junio	2023-06-28T00:00:00	2024-11-06T19:00:00	8	Radiación solar	0
104409	7	Sololá	702	San José Chacayá	5	Chacayá	6	Junio	2023-06-28T00:00:00	2024-11-06T20:00:00	2	Temperatura media	15.2
104410	7	Sololá	702	San José Chacayá	5	Chacayá	6	Junio	2023-06-28T00:00:00	2024-11-06T20:00:00	4	Temperatura máxima	15.7
104411	7	Sololá	702	San José Chacayá	5	Chacayá	6	Junio	2023-06-28T00:00:00	2024-11-06T20:00:00	3	Temperatura mínima	15.2
104412	7	Sololá	702	San José Chacayá	5	Chacayá	6	Junio	2023-06-28T00:00:00	2024-11-06T20:00:00	5	Humedad	92
104413	7	Sololá	702	San José Chacayá	5	Chacayá	6	Junio	2023-06-28T00:00:00	2024-11-06T20:00:00	6	Velocidad del viento	0
104414	7	Sololá	702	San José Chacayá	5	Chacayá	6	Junio	2023-06-28T00:00:00	2024-11-06T20:00:00	7	Dirección del viento	0
104415	7	Sololá	702	San José Chacayá	5	Chacayá	6	Junio	2023-06-28T00:00:00	2024-11-06T20:00:00	1	Precipitación	0
104416	7	Sololá	702	San José Chacayá	5	Chacayá	6	Junio	2023-06-28T00:00:00	2024-11-06T20:00:00	8	Radiación solar	0
104417	7	Sololá	702	San José Chacayá	5	Chacayá	6	Junio	2023-06-28T00:00:00	2024-11-06T21:00:00	2	Temperatura media	15.1
104418	7	Sololá	702	San José Chacayá	5	Chacayá	6	Junio	2023-06-28T00:00:00	2024-11-06T21:00:00	4	Temperatura máxima	15.3
104419	7	Sololá	702	San José Chacayá	5	Chacayá	6	Junio	2023-06-28T00:00:00	2024-11-06T21:00:00	3	Temperatura mínima	15.1
104420	7	Sololá	702	San José Chacayá	5	Chacayá	6	Junio	2023-06-28T00:00:00	2024-11-06T21:00:00	5	Humedad	91
104421	7	Sololá	702	San José Chacayá	5	Chacayá	6	Junio	2023-06-28T00:00:00	2024-11-06T21:00:00	6	Velocidad del viento	1.6
104422	7	Sololá	702	San José Chacayá	5	Chacayá	6	Junio	2023-06-28T00:00:00	2024-11-06T21:00:00	7	Dirección del viento	1.61
104423	7	Sololá	702	San José Chacayá	5	Chacayá	6	Junio	2023-06-28T00:00:00	2024-11-06T21:00:00	1	Precipitación	0.2
104424	7	Sololá	702	San José Chacayá	5	Chacayá	6	Junio	2023-06-28T00:00:00	2024-11-06T21:00:00	8	Radiación solar	0
104425	7	Sololá	702	San José Chacayá	5	Chacayá	6	Junio	2023-06-28T00:00:00	2024-11-06T22:00:00	2	Temperatura media	14.3
104426	7	Sololá	702	San José Chacayá	5	Chacayá	6	Junio	2023-06-28T00:00:00	2024-11-06T22:00:00	4	Temperatura máxima	15.2
104427	7	Sololá	702	San José Chacayá	5	Chacayá	6	Junio	2023-06-28T00:00:00	2024-11-06T22:00:00	3	Temperatura mínima	14.3
104428	7	Sololá	702	San José Chacayá	5	Chacayá	6	Junio	2023-06-28T00:00:00	2024-11-06T22:00:00	5	Humedad	94
104429	7	Sololá	702	San José Chacayá	5	Chacayá	6	Junio	2023-06-28T00:00:00	2024-11-06T22:00:00	6	Velocidad del viento	0
104430	7	Sololá	702	San José Chacayá	5	Chacayá	6	Junio	2023-06-28T00:00:00	2024-11-06T22:00:00	7	Dirección del viento	0
104431	7	Sololá	702	San José Chacayá	5	Chacayá	6	Junio	2023-06-28T00:00:00	2024-11-06T22:00:00	1	Precipitación	0
104432	7	Sololá	702	San José Chacayá	5	Chacayá	6	Junio	2023-06-28T00:00:00	2024-11-06T22:00:00	8	Radiación solar	0
104433	7	Sololá	702	San José Chacayá	5	Chacayá	6	Junio	2023-06-28T00:00:00	2024-11-06T23:00:00	2	Temperatura media	14.2
104434	7	Sololá	702	San José Chacayá	5	Chacayá	6	Junio	2023-06-28T00:00:00	2024-11-06T23:00:00	4	Temperatura máxima	14.3
104435	7	Sololá	702	San José Chacayá	5	Chacayá	6	Junio	2023-06-28T00:00:00	2024-11-06T23:00:00	3	Temperatura mínima	14.1
104436	7	Sololá	702	San José Chacayá	5	Chacayá	6	Junio	2023-06-28T00:00:00	2024-11-06T23:00:00	5	Humedad	95
104437	7	Sololá	702	San José Chacayá	5	Chacayá	6	Junio	2023-06-28T00:00:00	2024-11-06T23:00:00	6	Velocidad del viento	0
104438	7	Sololá	702	San José Chacayá	5	Chacayá	6	Junio	2023-06-28T00:00:00	2024-11-06T23:00:00	7	Dirección del viento	0
104439	7	Sololá	702	San José Chacayá	5	Chacayá	6	Junio	2023-06-28T00:00:00	2024-11-06T23:00:00	1	Precipitación	0
104440	7	Sololá	702	San José Chacayá	5	Chacayá	6	Junio	2023-06-28T00:00:00	2024-11-06T23:00:00	8	Radiación solar	0
104441	7	Sololá	702	San José Chacayá	5	Chacayá	6	Junio	2023-06-29T00:00:00	2024-11-06T00:00:00	2	Temperatura media	14.2
104442	7	Sololá	702	San José Chacayá	5	Chacayá	6	Junio	2023-06-29T00:00:00	2024-11-06T00:00:00	4	Temperatura máxima	14.3
104443	7	Sololá	702	San José Chacayá	5	Chacayá	6	Junio	2023-06-29T00:00:00	2024-11-06T00:00:00	3	Temperatura mínima	14.2
104444	7	Sololá	702	San José Chacayá	5	Chacayá	6	Junio	2023-06-29T00:00:00	2024-11-06T00:00:00	5	Humedad	94
104445	7	Sololá	702	San José Chacayá	5	Chacayá	6	Junio	2023-06-29T00:00:00	2024-11-06T00:00:00	6	Velocidad del viento	0
104446	7	Sololá	702	San José Chacayá	5	Chacayá	6	Junio	2023-06-29T00:00:00	2024-11-06T00:00:00	7	Dirección del viento	0
104447	7	Sololá	702	San José Chacayá	5	Chacayá	6	Junio	2023-06-29T00:00:00	2024-11-06T00:00:00	1	Precipitación	0
104448	7	Sololá	702	San José Chacayá	5	Chacayá	6	Junio	2023-06-29T00:00:00	2024-11-06T00:00:00	8	Radiación solar	0
104449	7	Sololá	702	San José Chacayá	5	Chacayá	6	Junio	2023-06-29T00:00:00	2024-11-06T01:00:00	2	Temperatura media	13.9
104450	7	Sololá	702	San José Chacayá	5	Chacayá	6	Junio	2023-06-29T00:00:00	2024-11-06T01:00:00	4	Temperatura máxima	14.2
104451	7	Sololá	702	San José Chacayá	5	Chacayá	6	Junio	2023-06-29T00:00:00	2024-11-06T01:00:00	3	Temperatura mínima	13.9
104452	7	Sololá	702	San José Chacayá	5	Chacayá	6	Junio	2023-06-29T00:00:00	2024-11-06T01:00:00	5	Humedad	94
104453	7	Sololá	702	San José Chacayá	5	Chacayá	6	Junio	2023-06-29T00:00:00	2024-11-06T01:00:00	6	Velocidad del viento	0
104454	7	Sololá	702	San José Chacayá	5	Chacayá	6	Junio	2023-06-29T00:00:00	2024-11-06T01:00:00	7	Dirección del viento	0
104455	7	Sololá	702	San José Chacayá	5	Chacayá	6	Junio	2023-06-29T00:00:00	2024-11-06T01:00:00	1	Precipitación	0
104456	7	Sololá	702	San José Chacayá	5	Chacayá	6	Junio	2023-06-29T00:00:00	2024-11-06T01:00:00	8	Radiación solar	0
104457	7	Sololá	702	San José Chacayá	5	Chacayá	6	Junio	2023-06-29T00:00:00	2024-11-06T02:00:00	2	Temperatura media	13.6
104458	7	Sololá	702	San José Chacayá	5	Chacayá	6	Junio	2023-06-29T00:00:00	2024-11-06T02:00:00	4	Temperatura máxima	13.9
104459	7	Sololá	702	San José Chacayá	5	Chacayá	6	Junio	2023-06-29T00:00:00	2024-11-06T02:00:00	3	Temperatura mínima	13.6
104460	7	Sololá	702	San José Chacayá	5	Chacayá	6	Junio	2023-06-29T00:00:00	2024-11-06T02:00:00	5	Humedad	94
104461	7	Sololá	702	San José Chacayá	5	Chacayá	6	Junio	2023-06-29T00:00:00	2024-11-06T02:00:00	6	Velocidad del viento	0
104462	7	Sololá	702	San José Chacayá	5	Chacayá	6	Junio	2023-06-29T00:00:00	2024-11-06T02:00:00	7	Dirección del viento	0
104463	7	Sololá	702	San José Chacayá	5	Chacayá	6	Junio	2023-06-29T00:00:00	2024-11-06T02:00:00	1	Precipitación	0
104464	7	Sololá	702	San José Chacayá	5	Chacayá	6	Junio	2023-06-29T00:00:00	2024-11-06T02:00:00	8	Radiación solar	0
104465	7	Sololá	702	San José Chacayá	5	Chacayá	6	Junio	2023-06-29T00:00:00	2024-11-06T03:00:00	2	Temperatura media	13.4
104466	7	Sololá	702	San José Chacayá	5	Chacayá	6	Junio	2023-06-29T00:00:00	2024-11-06T03:00:00	4	Temperatura máxima	13.6
104467	7	Sololá	702	San José Chacayá	5	Chacayá	6	Junio	2023-06-29T00:00:00	2024-11-06T03:00:00	3	Temperatura mínima	13.4
104468	7	Sololá	702	San José Chacayá	5	Chacayá	6	Junio	2023-06-29T00:00:00	2024-11-06T03:00:00	5	Humedad	95
104469	7	Sololá	702	San José Chacayá	5	Chacayá	6	Junio	2023-06-29T00:00:00	2024-11-06T03:00:00	6	Velocidad del viento	0
104470	7	Sololá	702	San José Chacayá	5	Chacayá	6	Junio	2023-06-29T00:00:00	2024-11-06T03:00:00	7	Dirección del viento	0
104471	7	Sololá	702	San José Chacayá	5	Chacayá	6	Junio	2023-06-29T00:00:00	2024-11-06T03:00:00	1	Precipitación	0
104472	7	Sololá	702	San José Chacayá	5	Chacayá	6	Junio	2023-06-29T00:00:00	2024-11-06T03:00:00	8	Radiación solar	0
104473	7	Sololá	702	San José Chacayá	5	Chacayá	6	Junio	2023-06-29T00:00:00	2024-11-06T04:00:00	2	Temperatura media	13.1
104474	7	Sololá	702	San José Chacayá	5	Chacayá	6	Junio	2023-06-29T00:00:00	2024-11-06T04:00:00	4	Temperatura máxima	13.4
104475	7	Sololá	702	San José Chacayá	5	Chacayá	6	Junio	2023-06-29T00:00:00	2024-11-06T04:00:00	3	Temperatura mínima	13.1
104476	7	Sololá	702	San José Chacayá	5	Chacayá	6	Junio	2023-06-29T00:00:00	2024-11-06T04:00:00	5	Humedad	94
104477	7	Sololá	702	San José Chacayá	5	Chacayá	6	Junio	2023-06-29T00:00:00	2024-11-06T04:00:00	6	Velocidad del viento	0
104478	7	Sololá	702	San José Chacayá	5	Chacayá	6	Junio	2023-06-29T00:00:00	2024-11-06T04:00:00	7	Dirección del viento	0
104479	7	Sololá	702	San José Chacayá	5	Chacayá	6	Junio	2023-06-29T00:00:00	2024-11-06T04:00:00	1	Precipitación	0
104480	7	Sololá	702	San José Chacayá	5	Chacayá	6	Junio	2023-06-29T00:00:00	2024-11-06T04:00:00	8	Radiación solar	0
104481	7	Sololá	702	San José Chacayá	5	Chacayá	6	Junio	2023-06-29T00:00:00	2024-11-06T05:00:00	2	Temperatura media	13
104482	7	Sololá	702	San José Chacayá	5	Chacayá	6	Junio	2023-06-29T00:00:00	2024-11-06T05:00:00	4	Temperatura máxima	13.2
104483	7	Sololá	702	San José Chacayá	5	Chacayá	6	Junio	2023-06-29T00:00:00	2024-11-06T05:00:00	3	Temperatura mínima	13
104484	7	Sololá	702	San José Chacayá	5	Chacayá	6	Junio	2023-06-29T00:00:00	2024-11-06T05:00:00	5	Humedad	95
104485	7	Sololá	702	San José Chacayá	5	Chacayá	6	Junio	2023-06-29T00:00:00	2024-11-06T05:00:00	6	Velocidad del viento	0
104486	7	Sololá	702	San José Chacayá	5	Chacayá	6	Junio	2023-06-29T00:00:00	2024-11-06T05:00:00	7	Dirección del viento	0
104487	7	Sololá	702	San José Chacayá	5	Chacayá	6	Junio	2023-06-29T00:00:00	2024-11-06T05:00:00	1	Precipitación	0
104488	7	Sololá	702	San José Chacayá	5	Chacayá	6	Junio	2023-06-29T00:00:00	2024-11-06T05:00:00	8	Radiación solar	0
104489	7	Sololá	702	San José Chacayá	5	Chacayá	6	Junio	2023-06-29T00:00:00	2024-11-06T06:00:00	2	Temperatura media	12.7
104490	7	Sololá	702	San José Chacayá	5	Chacayá	6	Junio	2023-06-29T00:00:00	2024-11-06T06:00:00	4	Temperatura máxima	13
104491	7	Sololá	702	San José Chacayá	5	Chacayá	6	Junio	2023-06-29T00:00:00	2024-11-06T06:00:00	3	Temperatura mínima	12.6
104492	7	Sololá	702	San José Chacayá	5	Chacayá	6	Junio	2023-06-29T00:00:00	2024-11-06T06:00:00	5	Humedad	96
104493	7	Sololá	702	San José Chacayá	5	Chacayá	6	Junio	2023-06-29T00:00:00	2024-11-06T06:00:00	6	Velocidad del viento	0
104494	7	Sololá	702	San José Chacayá	5	Chacayá	6	Junio	2023-06-29T00:00:00	2024-11-06T06:00:00	7	Dirección del viento	0
104495	7	Sololá	702	San José Chacayá	5	Chacayá	6	Junio	2023-06-29T00:00:00	2024-11-06T06:00:00	1	Precipitación	0
104496	7	Sololá	702	San José Chacayá	5	Chacayá	6	Junio	2023-06-29T00:00:00	2024-11-06T06:00:00	8	Radiación solar	0
104497	7	Sololá	702	San José Chacayá	5	Chacayá	6	Junio	2023-06-29T00:00:00	2024-11-06T07:00:00	2	Temperatura media	14.2
104498	7	Sololá	702	San José Chacayá	5	Chacayá	6	Junio	2023-06-29T00:00:00	2024-11-06T07:00:00	4	Temperatura máxima	14.2
104499	7	Sololá	702	San José Chacayá	5	Chacayá	6	Junio	2023-06-29T00:00:00	2024-11-06T07:00:00	3	Temperatura mínima	12.7
104500	7	Sololá	702	San José Chacayá	5	Chacayá	6	Junio	2023-06-29T00:00:00	2024-11-06T07:00:00	5	Humedad	96
104501	7	Sololá	702	San José Chacayá	5	Chacayá	6	Junio	2023-06-29T00:00:00	2024-11-06T07:00:00	6	Velocidad del viento	0
104502	7	Sololá	702	San José Chacayá	5	Chacayá	6	Junio	2023-06-29T00:00:00	2024-11-06T07:00:00	7	Dirección del viento	0
104503	7	Sololá	702	San José Chacayá	5	Chacayá	6	Junio	2023-06-29T00:00:00	2024-11-06T07:00:00	1	Precipitación	0
104504	7	Sololá	702	San José Chacayá	5	Chacayá	6	Junio	2023-06-29T00:00:00	2024-11-06T07:00:00	8	Radiación solar	13
104505	7	Sololá	702	San José Chacayá	5	Chacayá	6	Junio	2023-06-29T00:00:00	2024-11-06T08:00:00	2	Temperatura media	20.2
104506	7	Sololá	702	San José Chacayá	5	Chacayá	6	Junio	2023-06-29T00:00:00	2024-11-06T08:00:00	4	Temperatura máxima	20.2
104507	7	Sololá	702	San José Chacayá	5	Chacayá	6	Junio	2023-06-29T00:00:00	2024-11-06T08:00:00	3	Temperatura mínima	14.3
104508	7	Sololá	702	San José Chacayá	5	Chacayá	6	Junio	2023-06-29T00:00:00	2024-11-06T08:00:00	5	Humedad	68
104509	7	Sololá	702	San José Chacayá	5	Chacayá	6	Junio	2023-06-29T00:00:00	2024-11-06T08:00:00	6	Velocidad del viento	0
104510	7	Sololá	702	San José Chacayá	5	Chacayá	6	Junio	2023-06-29T00:00:00	2024-11-06T08:00:00	7	Dirección del viento	0
104511	7	Sololá	702	San José Chacayá	5	Chacayá	6	Junio	2023-06-29T00:00:00	2024-11-06T08:00:00	1	Precipitación	0
104512	7	Sololá	702	San José Chacayá	5	Chacayá	6	Junio	2023-06-29T00:00:00	2024-11-06T08:00:00	8	Radiación solar	34
104513	7	Sololá	702	San José Chacayá	5	Chacayá	6	Junio	2023-06-29T00:00:00	2024-11-06T09:00:00	2	Temperatura media	20.8
104514	7	Sololá	702	San José Chacayá	5	Chacayá	6	Junio	2023-06-29T00:00:00	2024-11-06T09:00:00	4	Temperatura máxima	21.1
104515	7	Sololá	702	San José Chacayá	5	Chacayá	6	Junio	2023-06-29T00:00:00	2024-11-06T09:00:00	3	Temperatura mínima	20.2
104516	7	Sololá	702	San José Chacayá	5	Chacayá	6	Junio	2023-06-29T00:00:00	2024-11-06T09:00:00	5	Humedad	74
104517	7	Sololá	702	San José Chacayá	5	Chacayá	6	Junio	2023-06-29T00:00:00	2024-11-06T09:00:00	6	Velocidad del viento	1.6
104518	7	Sololá	702	San José Chacayá	5	Chacayá	6	Junio	2023-06-29T00:00:00	2024-11-06T09:00:00	7	Dirección del viento	1.61
104519	7	Sololá	702	San José Chacayá	5	Chacayá	6	Junio	2023-06-29T00:00:00	2024-11-06T09:00:00	1	Precipitación	0
104520	7	Sololá	702	San José Chacayá	5	Chacayá	6	Junio	2023-06-29T00:00:00	2024-11-06T09:00:00	8	Radiación solar	60
104521	7	Sololá	702	San José Chacayá	5	Chacayá	6	Junio	2023-06-29T00:00:00	2024-11-06T10:00:00	2	Temperatura media	21.1
104522	7	Sololá	702	San José Chacayá	5	Chacayá	6	Junio	2023-06-29T00:00:00	2024-11-06T10:00:00	4	Temperatura máxima	22.1
104523	7	Sololá	702	San José Chacayá	5	Chacayá	6	Junio	2023-06-29T00:00:00	2024-11-06T10:00:00	3	Temperatura mínima	20.8
104524	7	Sololá	702	San José Chacayá	5	Chacayá	6	Junio	2023-06-29T00:00:00	2024-11-06T10:00:00	5	Humedad	69
104525	7	Sololá	702	San José Chacayá	5	Chacayá	6	Junio	2023-06-29T00:00:00	2024-11-06T10:00:00	6	Velocidad del viento	3.2
104526	7	Sololá	702	San José Chacayá	5	Chacayá	6	Junio	2023-06-29T00:00:00	2024-11-06T10:00:00	7	Dirección del viento	3.22
104527	7	Sololá	702	San José Chacayá	5	Chacayá	6	Junio	2023-06-29T00:00:00	2024-11-06T10:00:00	1	Precipitación	0
104528	7	Sololá	702	San José Chacayá	5	Chacayá	6	Junio	2023-06-29T00:00:00	2024-11-06T10:00:00	8	Radiación solar	340
104529	7	Sololá	702	San José Chacayá	5	Chacayá	6	Junio	2023-06-29T00:00:00	2024-11-06T11:00:00	2	Temperatura media	22.2
104530	7	Sololá	702	San José Chacayá	5	Chacayá	6	Junio	2023-06-29T00:00:00	2024-11-06T11:00:00	4	Temperatura máxima	22.2
104531	7	Sololá	702	San José Chacayá	5	Chacayá	6	Junio	2023-06-29T00:00:00	2024-11-06T11:00:00	3	Temperatura mínima	20.2
104532	7	Sololá	702	San José Chacayá	5	Chacayá	6	Junio	2023-06-29T00:00:00	2024-11-06T11:00:00	5	Humedad	68
104533	7	Sololá	702	San José Chacayá	5	Chacayá	6	Junio	2023-06-29T00:00:00	2024-11-06T11:00:00	6	Velocidad del viento	1.6
104534	7	Sololá	702	San José Chacayá	5	Chacayá	6	Junio	2023-06-29T00:00:00	2024-11-06T11:00:00	7	Dirección del viento	1.61
104535	7	Sololá	702	San José Chacayá	5	Chacayá	6	Junio	2023-06-29T00:00:00	2024-11-06T11:00:00	1	Precipitación	0
104536	7	Sololá	702	San José Chacayá	5	Chacayá	6	Junio	2023-06-29T00:00:00	2024-11-06T11:00:00	8	Radiación solar	714
104537	7	Sololá	702	San José Chacayá	5	Chacayá	6	Junio	2023-06-29T00:00:00	2024-11-06T12:00:00	2	Temperatura media	20.1
104538	7	Sololá	702	San José Chacayá	5	Chacayá	6	Junio	2023-06-29T00:00:00	2024-11-06T12:00:00	4	Temperatura máxima	22.8
104539	7	Sololá	702	San José Chacayá	5	Chacayá	6	Junio	2023-06-29T00:00:00	2024-11-06T12:00:00	3	Temperatura mínima	19.9
104540	7	Sololá	702	San José Chacayá	5	Chacayá	6	Junio	2023-06-29T00:00:00	2024-11-06T12:00:00	5	Humedad	82
104541	7	Sololá	702	San José Chacayá	5	Chacayá	6	Junio	2023-06-29T00:00:00	2024-11-06T12:00:00	6	Velocidad del viento	3.2
104542	7	Sololá	702	San José Chacayá	5	Chacayá	6	Junio	2023-06-29T00:00:00	2024-11-06T12:00:00	7	Dirección del viento	3.22
104543	7	Sololá	702	San José Chacayá	5	Chacayá	6	Junio	2023-06-29T00:00:00	2024-11-06T12:00:00	1	Precipitación	0
104544	7	Sololá	702	San José Chacayá	5	Chacayá	6	Junio	2023-06-29T00:00:00	2024-11-06T12:00:00	8	Radiación solar	863
104545	7	Sololá	702	San José Chacayá	5	Chacayá	6	Junio	2023-06-29T00:00:00	2024-11-06T13:00:00	2	Temperatura media	22.1
104546	7	Sololá	702	San José Chacayá	5	Chacayá	6	Junio	2023-06-29T00:00:00	2024-11-06T13:00:00	4	Temperatura máxima	22.4
104547	7	Sololá	702	San José Chacayá	5	Chacayá	6	Junio	2023-06-29T00:00:00	2024-11-06T13:00:00	3	Temperatura mínima	20.1
104548	7	Sololá	702	San José Chacayá	5	Chacayá	6	Junio	2023-06-29T00:00:00	2024-11-06T13:00:00	5	Humedad	75
104549	7	Sololá	702	San José Chacayá	5	Chacayá	6	Junio	2023-06-29T00:00:00	2024-11-06T13:00:00	6	Velocidad del viento	3.2
104550	7	Sololá	702	San José Chacayá	5	Chacayá	6	Junio	2023-06-29T00:00:00	2024-11-06T13:00:00	7	Dirección del viento	3.22
104551	7	Sololá	702	San José Chacayá	5	Chacayá	6	Junio	2023-06-29T00:00:00	2024-11-06T13:00:00	1	Precipitación	0
104552	7	Sololá	702	San José Chacayá	5	Chacayá	6	Junio	2023-06-29T00:00:00	2024-11-06T13:00:00	8	Radiación solar	930
104553	7	Sololá	702	San José Chacayá	5	Chacayá	6	Junio	2023-06-29T00:00:00	2024-11-06T14:00:00	2	Temperatura media	20.2
104554	7	Sololá	702	San José Chacayá	5	Chacayá	6	Junio	2023-06-29T00:00:00	2024-11-06T14:00:00	4	Temperatura máxima	22.2
104555	7	Sololá	702	San José Chacayá	5	Chacayá	6	Junio	2023-06-29T00:00:00	2024-11-06T14:00:00	3	Temperatura mínima	20.2
104556	7	Sololá	702	San José Chacayá	5	Chacayá	6	Junio	2023-06-29T00:00:00	2024-11-06T14:00:00	5	Humedad	78
104557	7	Sololá	702	San José Chacayá	5	Chacayá	6	Junio	2023-06-29T00:00:00	2024-11-06T14:00:00	6	Velocidad del viento	4.8
104558	7	Sololá	702	San José Chacayá	5	Chacayá	6	Junio	2023-06-29T00:00:00	2024-11-06T14:00:00	7	Dirección del viento	4.83
104559	7	Sololá	702	San José Chacayá	5	Chacayá	6	Junio	2023-06-29T00:00:00	2024-11-06T14:00:00	1	Precipitación	0
104560	7	Sololá	702	San José Chacayá	5	Chacayá	6	Junio	2023-06-29T00:00:00	2024-11-06T14:00:00	8	Radiación solar	348
104561	7	Sololá	702	San José Chacayá	5	Chacayá	6	Junio	2023-06-29T00:00:00	2024-11-06T15:00:00	2	Temperatura media	20.4
104562	7	Sololá	702	San José Chacayá	5	Chacayá	6	Junio	2023-06-29T00:00:00	2024-11-06T15:00:00	4	Temperatura máxima	21.4
104563	7	Sololá	702	San José Chacayá	5	Chacayá	6	Junio	2023-06-29T00:00:00	2024-11-06T15:00:00	3	Temperatura mínima	19.9
104564	7	Sololá	702	San José Chacayá	5	Chacayá	6	Junio	2023-06-29T00:00:00	2024-11-06T15:00:00	5	Humedad	74
104565	7	Sololá	702	San José Chacayá	5	Chacayá	6	Junio	2023-06-29T00:00:00	2024-11-06T15:00:00	6	Velocidad del viento	3.2
104566	7	Sololá	702	San José Chacayá	5	Chacayá	6	Junio	2023-06-29T00:00:00	2024-11-06T15:00:00	7	Dirección del viento	3.22
104567	7	Sololá	702	San José Chacayá	5	Chacayá	6	Junio	2023-06-29T00:00:00	2024-11-06T15:00:00	1	Precipitación	0
104568	7	Sololá	702	San José Chacayá	5	Chacayá	6	Junio	2023-06-29T00:00:00	2024-11-06T15:00:00	8	Radiación solar	241
104569	7	Sololá	702	San José Chacayá	5	Chacayá	6	Junio	2023-06-29T00:00:00	2024-11-06T16:00:00	2	Temperatura media	18.6
104570	7	Sololá	702	San José Chacayá	5	Chacayá	6	Junio	2023-06-29T00:00:00	2024-11-06T16:00:00	4	Temperatura máxima	21.4
104571	7	Sololá	702	San José Chacayá	5	Chacayá	6	Junio	2023-06-29T00:00:00	2024-11-06T16:00:00	3	Temperatura mínima	18.6
104572	7	Sololá	702	San José Chacayá	5	Chacayá	6	Junio	2023-06-29T00:00:00	2024-11-06T16:00:00	5	Humedad	88
104573	7	Sololá	702	San José Chacayá	5	Chacayá	6	Junio	2023-06-29T00:00:00	2024-11-06T16:00:00	6	Velocidad del viento	3.2
104574	7	Sololá	702	San José Chacayá	5	Chacayá	6	Junio	2023-06-29T00:00:00	2024-11-06T16:00:00	7	Dirección del viento	3.22
104575	7	Sololá	702	San José Chacayá	5	Chacayá	6	Junio	2023-06-29T00:00:00	2024-11-06T16:00:00	1	Precipitación	0.6
104576	7	Sololá	702	San José Chacayá	5	Chacayá	6	Junio	2023-06-29T00:00:00	2024-11-06T16:00:00	8	Radiación solar	105
104577	7	Sololá	702	San José Chacayá	5	Chacayá	6	Junio	2023-06-29T00:00:00	2024-11-06T17:00:00	2	Temperatura media	17.8
104578	7	Sololá	702	San José Chacayá	5	Chacayá	6	Junio	2023-06-29T00:00:00	2024-11-06T17:00:00	4	Temperatura máxima	18.6
104579	7	Sololá	702	San José Chacayá	5	Chacayá	6	Junio	2023-06-29T00:00:00	2024-11-06T17:00:00	3	Temperatura mínima	17.8
104580	7	Sololá	702	San José Chacayá	5	Chacayá	6	Junio	2023-06-29T00:00:00	2024-11-06T17:00:00	5	Humedad	89
104581	7	Sololá	702	San José Chacayá	5	Chacayá	6	Junio	2023-06-29T00:00:00	2024-11-06T17:00:00	6	Velocidad del viento	1.6
104582	7	Sololá	702	San José Chacayá	5	Chacayá	6	Junio	2023-06-29T00:00:00	2024-11-06T17:00:00	7	Dirección del viento	1.61
104583	7	Sololá	702	San José Chacayá	5	Chacayá	6	Junio	2023-06-29T00:00:00	2024-11-06T17:00:00	1	Precipitación	0.2
104584	7	Sololá	702	San José Chacayá	5	Chacayá	6	Junio	2023-06-29T00:00:00	2024-11-06T17:00:00	8	Radiación solar	19
104585	7	Sololá	702	San José Chacayá	5	Chacayá	6	Junio	2023-06-29T00:00:00	2024-11-06T18:00:00	2	Temperatura media	16.4
104586	7	Sololá	702	San José Chacayá	5	Chacayá	6	Junio	2023-06-29T00:00:00	2024-11-06T18:00:00	4	Temperatura máxima	17.8
104587	7	Sololá	702	San José Chacayá	5	Chacayá	6	Junio	2023-06-29T00:00:00	2024-11-06T18:00:00	3	Temperatura mínima	16.4
104588	7	Sololá	702	San José Chacayá	5	Chacayá	6	Junio	2023-06-29T00:00:00	2024-11-06T18:00:00	5	Humedad	93
104589	7	Sololá	702	San José Chacayá	5	Chacayá	6	Junio	2023-06-29T00:00:00	2024-11-06T18:00:00	6	Velocidad del viento	1.6
104590	7	Sololá	702	San José Chacayá	5	Chacayá	6	Junio	2023-06-29T00:00:00	2024-11-06T18:00:00	7	Dirección del viento	1.61
104591	7	Sololá	702	San José Chacayá	5	Chacayá	6	Junio	2023-06-29T00:00:00	2024-11-06T18:00:00	1	Precipitación	6.6
104592	7	Sololá	702	San José Chacayá	5	Chacayá	6	Junio	2023-06-29T00:00:00	2024-11-06T18:00:00	8	Radiación solar	10
104593	7	Sololá	702	San José Chacayá	5	Chacayá	6	Junio	2023-06-29T00:00:00	2024-11-06T19:00:00	2	Temperatura media	16.2
104594	7	Sololá	702	San José Chacayá	5	Chacayá	6	Junio	2023-06-29T00:00:00	2024-11-06T19:00:00	4	Temperatura máxima	16.4
104595	7	Sololá	702	San José Chacayá	5	Chacayá	6	Junio	2023-06-29T00:00:00	2024-11-06T19:00:00	3	Temperatura mínima	16.2
104596	7	Sololá	702	San José Chacayá	5	Chacayá	6	Junio	2023-06-29T00:00:00	2024-11-06T19:00:00	5	Humedad	94
104597	7	Sololá	702	San José Chacayá	5	Chacayá	6	Junio	2023-06-29T00:00:00	2024-11-06T19:00:00	6	Velocidad del viento	0
104598	7	Sololá	702	San José Chacayá	5	Chacayá	6	Junio	2023-06-29T00:00:00	2024-11-06T19:00:00	7	Dirección del viento	0
104599	7	Sololá	702	San José Chacayá	5	Chacayá	6	Junio	2023-06-29T00:00:00	2024-11-06T19:00:00	1	Precipitación	0
104600	7	Sololá	702	San José Chacayá	5	Chacayá	6	Junio	2023-06-29T00:00:00	2024-11-06T19:00:00	8	Radiación solar	0
104601	7	Sololá	702	San José Chacayá	5	Chacayá	6	Junio	2023-06-29T00:00:00	2024-11-06T20:00:00	2	Temperatura media	15.8
104602	7	Sololá	702	San José Chacayá	5	Chacayá	6	Junio	2023-06-29T00:00:00	2024-11-06T20:00:00	4	Temperatura máxima	16.2
104603	7	Sololá	702	San José Chacayá	5	Chacayá	6	Junio	2023-06-29T00:00:00	2024-11-06T20:00:00	3	Temperatura mínima	15.8
104604	7	Sololá	702	San José Chacayá	5	Chacayá	6	Junio	2023-06-29T00:00:00	2024-11-06T20:00:00	5	Humedad	94
104605	7	Sololá	702	San José Chacayá	5	Chacayá	6	Junio	2023-06-29T00:00:00	2024-11-06T20:00:00	6	Velocidad del viento	0
104606	7	Sololá	702	San José Chacayá	5	Chacayá	6	Junio	2023-06-29T00:00:00	2024-11-06T20:00:00	7	Dirección del viento	0
104607	7	Sololá	702	San José Chacayá	5	Chacayá	6	Junio	2023-06-29T00:00:00	2024-11-06T20:00:00	1	Precipitación	0
104608	7	Sololá	702	San José Chacayá	5	Chacayá	6	Junio	2023-06-29T00:00:00	2024-11-06T20:00:00	8	Radiación solar	0
104609	7	Sololá	702	San José Chacayá	5	Chacayá	6	Junio	2023-06-29T00:00:00	2024-11-06T21:00:00	2	Temperatura media	14.7
104610	7	Sololá	702	San José Chacayá	5	Chacayá	6	Junio	2023-06-29T00:00:00	2024-11-06T21:00:00	4	Temperatura máxima	15.8
104611	7	Sololá	702	San José Chacayá	5	Chacayá	6	Junio	2023-06-29T00:00:00	2024-11-06T21:00:00	3	Temperatura mínima	14.7
104612	7	Sololá	702	San José Chacayá	5	Chacayá	6	Junio	2023-06-29T00:00:00	2024-11-06T21:00:00	5	Humedad	93
104613	7	Sololá	702	San José Chacayá	5	Chacayá	6	Junio	2023-06-29T00:00:00	2024-11-06T21:00:00	6	Velocidad del viento	0
104614	7	Sololá	702	San José Chacayá	5	Chacayá	6	Junio	2023-06-29T00:00:00	2024-11-06T21:00:00	7	Dirección del viento	0
104615	7	Sololá	702	San José Chacayá	5	Chacayá	6	Junio	2023-06-29T00:00:00	2024-11-06T21:00:00	1	Precipitación	0
104616	7	Sololá	702	San José Chacayá	5	Chacayá	6	Junio	2023-06-29T00:00:00	2024-11-06T21:00:00	8	Radiación solar	0
104617	7	Sololá	702	San José Chacayá	5	Chacayá	6	Junio	2023-06-29T00:00:00	2024-11-06T22:00:00	2	Temperatura media	14.1
104618	7	Sololá	702	San José Chacayá	5	Chacayá	6	Junio	2023-06-29T00:00:00	2024-11-06T22:00:00	4	Temperatura máxima	14.7
104619	7	Sololá	702	San José Chacayá	5	Chacayá	6	Junio	2023-06-29T00:00:00	2024-11-06T22:00:00	3	Temperatura mínima	14
104620	7	Sololá	702	San José Chacayá	5	Chacayá	6	Junio	2023-06-29T00:00:00	2024-11-06T22:00:00	5	Humedad	93
104621	7	Sololá	702	San José Chacayá	5	Chacayá	6	Junio	2023-06-29T00:00:00	2024-11-06T22:00:00	6	Velocidad del viento	0
104622	7	Sololá	702	San José Chacayá	5	Chacayá	6	Junio	2023-06-29T00:00:00	2024-11-06T22:00:00	7	Dirección del viento	0
104623	7	Sololá	702	San José Chacayá	5	Chacayá	6	Junio	2023-06-29T00:00:00	2024-11-06T22:00:00	1	Precipitación	0
104624	7	Sololá	702	San José Chacayá	5	Chacayá	6	Junio	2023-06-29T00:00:00	2024-11-06T22:00:00	8	Radiación solar	0
104625	7	Sololá	702	San José Chacayá	5	Chacayá	6	Junio	2023-06-29T00:00:00	2024-11-06T23:00:00	2	Temperatura media	13.5
104626	7	Sololá	702	San José Chacayá	5	Chacayá	6	Junio	2023-06-29T00:00:00	2024-11-06T23:00:00	4	Temperatura máxima	14
104627	7	Sololá	702	San José Chacayá	5	Chacayá	6	Junio	2023-06-29T00:00:00	2024-11-06T23:00:00	3	Temperatura mínima	13.5
104628	7	Sololá	702	San José Chacayá	5	Chacayá	6	Junio	2023-06-29T00:00:00	2024-11-06T23:00:00	5	Humedad	93
104629	7	Sololá	702	San José Chacayá	5	Chacayá	6	Junio	2023-06-29T00:00:00	2024-11-06T23:00:00	6	Velocidad del viento	1.6
104630	7	Sololá	702	San José Chacayá	5	Chacayá	6	Junio	2023-06-29T00:00:00	2024-11-06T23:00:00	7	Dirección del viento	1.61
104631	7	Sololá	702	San José Chacayá	5	Chacayá	6	Junio	2023-06-29T00:00:00	2024-11-06T23:00:00	1	Precipitación	0
104632	7	Sololá	702	San José Chacayá	5	Chacayá	6	Junio	2023-06-29T00:00:00	2024-11-06T23:00:00	8	Radiación solar	0
104633	7	Sololá	702	San José Chacayá	5	Chacayá	6	Junio	2023-06-30T00:00:00	2024-11-06T00:00:00	2	Temperatura media	13
104634	7	Sololá	702	San José Chacayá	5	Chacayá	6	Junio	2023-06-30T00:00:00	2024-11-06T00:00:00	4	Temperatura máxima	13.5
104635	7	Sololá	702	San José Chacayá	5	Chacayá	6	Junio	2023-06-30T00:00:00	2024-11-06T00:00:00	3	Temperatura mínima	13
104636	7	Sololá	702	San José Chacayá	5	Chacayá	6	Junio	2023-06-30T00:00:00	2024-11-06T00:00:00	5	Humedad	93
104637	7	Sololá	702	San José Chacayá	5	Chacayá	6	Junio	2023-06-30T00:00:00	2024-11-06T00:00:00	6	Velocidad del viento	0
104638	7	Sololá	702	San José Chacayá	5	Chacayá	6	Junio	2023-06-30T00:00:00	2024-11-06T00:00:00	7	Dirección del viento	0
104639	7	Sololá	702	San José Chacayá	5	Chacayá	6	Junio	2023-06-30T00:00:00	2024-11-06T00:00:00	1	Precipitación	0
104640	7	Sololá	702	San José Chacayá	5	Chacayá	6	Junio	2023-06-30T00:00:00	2024-11-06T00:00:00	8	Radiación solar	0
104641	7	Sololá	702	San José Chacayá	5	Chacayá	6	Junio	2023-06-30T00:00:00	2024-11-06T01:00:00	2	Temperatura media	12.2
104642	7	Sololá	702	San José Chacayá	5	Chacayá	6	Junio	2023-06-30T00:00:00	2024-11-06T01:00:00	4	Temperatura máxima	13
104643	7	Sololá	702	San José Chacayá	5	Chacayá	6	Junio	2023-06-30T00:00:00	2024-11-06T01:00:00	3	Temperatura mínima	12.2
104644	7	Sololá	702	San José Chacayá	5	Chacayá	6	Junio	2023-06-30T00:00:00	2024-11-06T01:00:00	5	Humedad	93
104645	7	Sololá	702	San José Chacayá	5	Chacayá	6	Junio	2023-06-30T00:00:00	2024-11-06T01:00:00	6	Velocidad del viento	1.6
104646	7	Sololá	702	San José Chacayá	5	Chacayá	6	Junio	2023-06-30T00:00:00	2024-11-06T01:00:00	7	Dirección del viento	1.61
104647	7	Sololá	702	San José Chacayá	5	Chacayá	6	Junio	2023-06-30T00:00:00	2024-11-06T01:00:00	1	Precipitación	0
104648	7	Sololá	702	San José Chacayá	5	Chacayá	6	Junio	2023-06-30T00:00:00	2024-11-06T01:00:00	8	Radiación solar	0
104649	7	Sololá	702	San José Chacayá	5	Chacayá	6	Junio	2023-06-30T00:00:00	2024-11-06T02:00:00	2	Temperatura media	11.6
104650	7	Sololá	702	San José Chacayá	5	Chacayá	6	Junio	2023-06-30T00:00:00	2024-11-06T02:00:00	4	Temperatura máxima	12.2
104651	7	Sololá	702	San José Chacayá	5	Chacayá	6	Junio	2023-06-30T00:00:00	2024-11-06T02:00:00	3	Temperatura mínima	11.6
104652	7	Sololá	702	San José Chacayá	5	Chacayá	6	Junio	2023-06-30T00:00:00	2024-11-06T02:00:00	5	Humedad	94
104653	7	Sololá	702	San José Chacayá	5	Chacayá	6	Junio	2023-06-30T00:00:00	2024-11-06T02:00:00	6	Velocidad del viento	0
104654	7	Sololá	702	San José Chacayá	5	Chacayá	6	Junio	2023-06-30T00:00:00	2024-11-06T02:00:00	7	Dirección del viento	0
104655	7	Sololá	702	San José Chacayá	5	Chacayá	6	Junio	2023-06-30T00:00:00	2024-11-06T02:00:00	1	Precipitación	0
104656	7	Sololá	702	San José Chacayá	5	Chacayá	6	Junio	2023-06-30T00:00:00	2024-11-06T02:00:00	8	Radiación solar	0
104657	7	Sololá	702	San José Chacayá	5	Chacayá	6	Junio	2023-06-30T00:00:00	2024-11-06T03:00:00	2	Temperatura media	11.3
104658	7	Sololá	702	San José Chacayá	5	Chacayá	6	Junio	2023-06-30T00:00:00	2024-11-06T03:00:00	4	Temperatura máxima	11.6
104659	7	Sololá	702	San José Chacayá	5	Chacayá	6	Junio	2023-06-30T00:00:00	2024-11-06T03:00:00	3	Temperatura mínima	11.3
104660	7	Sololá	702	San José Chacayá	5	Chacayá	6	Junio	2023-06-30T00:00:00	2024-11-06T03:00:00	5	Humedad	93
104661	7	Sololá	702	San José Chacayá	5	Chacayá	6	Junio	2023-06-30T00:00:00	2024-11-06T03:00:00	6	Velocidad del viento	0
104662	7	Sololá	702	San José Chacayá	5	Chacayá	6	Junio	2023-06-30T00:00:00	2024-11-06T03:00:00	7	Dirección del viento	0
104663	7	Sololá	702	San José Chacayá	5	Chacayá	6	Junio	2023-06-30T00:00:00	2024-11-06T03:00:00	1	Precipitación	0
104664	7	Sololá	702	San José Chacayá	5	Chacayá	6	Junio	2023-06-30T00:00:00	2024-11-06T03:00:00	8	Radiación solar	0
104665	7	Sololá	702	San José Chacayá	5	Chacayá	6	Junio	2023-06-30T00:00:00	2024-11-06T04:00:00	2	Temperatura media	10.9
104666	7	Sololá	702	San José Chacayá	5	Chacayá	6	Junio	2023-06-30T00:00:00	2024-11-06T04:00:00	4	Temperatura máxima	11.3
104667	7	Sololá	702	San José Chacayá	5	Chacayá	6	Junio	2023-06-30T00:00:00	2024-11-06T04:00:00	3	Temperatura mínima	10.9
104668	7	Sololá	702	San José Chacayá	5	Chacayá	6	Junio	2023-06-30T00:00:00	2024-11-06T04:00:00	5	Humedad	93
104669	7	Sololá	702	San José Chacayá	5	Chacayá	6	Junio	2023-06-30T00:00:00	2024-11-06T04:00:00	6	Velocidad del viento	1.6
104670	7	Sololá	702	San José Chacayá	5	Chacayá	6	Junio	2023-06-30T00:00:00	2024-11-06T04:00:00	7	Dirección del viento	1.61
104671	7	Sololá	702	San José Chacayá	5	Chacayá	6	Junio	2023-06-30T00:00:00	2024-11-06T04:00:00	1	Precipitación	0
104672	7	Sololá	702	San José Chacayá	5	Chacayá	6	Junio	2023-06-30T00:00:00	2024-11-06T04:00:00	8	Radiación solar	0
104673	7	Sololá	702	San José Chacayá	5	Chacayá	6	Junio	2023-06-30T00:00:00	2024-11-06T05:00:00	2	Temperatura media	10.8
104674	7	Sololá	702	San José Chacayá	5	Chacayá	6	Junio	2023-06-30T00:00:00	2024-11-06T05:00:00	4	Temperatura máxima	11
104675	7	Sololá	702	San José Chacayá	5	Chacayá	6	Junio	2023-06-30T00:00:00	2024-11-06T05:00:00	3	Temperatura mínima	10.8
104676	7	Sololá	702	San José Chacayá	5	Chacayá	6	Junio	2023-06-30T00:00:00	2024-11-06T05:00:00	5	Humedad	94
104677	7	Sololá	702	San José Chacayá	5	Chacayá	6	Junio	2023-06-30T00:00:00	2024-11-06T05:00:00	6	Velocidad del viento	0
104678	7	Sololá	702	San José Chacayá	5	Chacayá	6	Junio	2023-06-30T00:00:00	2024-11-06T05:00:00	7	Dirección del viento	0
104679	7	Sololá	702	San José Chacayá	5	Chacayá	6	Junio	2023-06-30T00:00:00	2024-11-06T05:00:00	1	Precipitación	0
104680	7	Sololá	702	San José Chacayá	5	Chacayá	6	Junio	2023-06-30T00:00:00	2024-11-06T05:00:00	8	Radiación solar	0
104681	7	Sololá	702	San José Chacayá	5	Chacayá	6	Junio	2023-06-30T00:00:00	2024-11-06T06:00:00	2	Temperatura media	10.6
104682	7	Sololá	702	San José Chacayá	5	Chacayá	6	Junio	2023-06-30T00:00:00	2024-11-06T06:00:00	4	Temperatura máxima	10.8
104683	7	Sololá	702	San José Chacayá	5	Chacayá	6	Junio	2023-06-30T00:00:00	2024-11-06T06:00:00	3	Temperatura mínima	10.6
104684	7	Sololá	702	San José Chacayá	5	Chacayá	6	Junio	2023-06-30T00:00:00	2024-11-06T06:00:00	5	Humedad	94
104685	7	Sololá	702	San José Chacayá	5	Chacayá	6	Junio	2023-06-30T00:00:00	2024-11-06T06:00:00	6	Velocidad del viento	0
104686	7	Sololá	702	San José Chacayá	5	Chacayá	6	Junio	2023-06-30T00:00:00	2024-11-06T06:00:00	7	Dirección del viento	0
104687	7	Sololá	702	San José Chacayá	5	Chacayá	6	Junio	2023-06-30T00:00:00	2024-11-06T06:00:00	1	Precipitación	0
104688	7	Sololá	702	San José Chacayá	5	Chacayá	6	Junio	2023-06-30T00:00:00	2024-11-06T06:00:00	8	Radiación solar	4
104689	7	Sololá	702	San José Chacayá	5	Chacayá	6	Junio	2023-06-30T00:00:00	2024-11-06T07:00:00	2	Temperatura media	13.9
104690	7	Sololá	702	San José Chacayá	5	Chacayá	6	Junio	2023-06-30T00:00:00	2024-11-06T07:00:00	4	Temperatura máxima	13.9
104691	7	Sololá	702	San José Chacayá	5	Chacayá	6	Junio	2023-06-30T00:00:00	2024-11-06T07:00:00	3	Temperatura mínima	10.6
104692	7	Sololá	702	San José Chacayá	5	Chacayá	6	Junio	2023-06-30T00:00:00	2024-11-06T07:00:00	5	Humedad	95
104693	7	Sololá	702	San José Chacayá	5	Chacayá	6	Junio	2023-06-30T00:00:00	2024-11-06T07:00:00	6	Velocidad del viento	0
104694	7	Sololá	702	San José Chacayá	5	Chacayá	6	Junio	2023-06-30T00:00:00	2024-11-06T07:00:00	7	Dirección del viento	0
104695	7	Sololá	702	San José Chacayá	5	Chacayá	6	Junio	2023-06-30T00:00:00	2024-11-06T07:00:00	1	Precipitación	0
104696	7	Sololá	702	San José Chacayá	5	Chacayá	6	Junio	2023-06-30T00:00:00	2024-11-06T07:00:00	8	Radiación solar	43
104697	7	Sololá	702	San José Chacayá	5	Chacayá	6	Junio	2023-06-30T00:00:00	2024-11-06T08:00:00	2	Temperatura media	18.4
104698	7	Sololá	702	San José Chacayá	5	Chacayá	6	Junio	2023-06-30T00:00:00	2024-11-06T08:00:00	4	Temperatura máxima	18.4
104699	7	Sololá	702	San José Chacayá	5	Chacayá	6	Junio	2023-06-30T00:00:00	2024-11-06T08:00:00	3	Temperatura mínima	13.9
104700	7	Sololá	702	San José Chacayá	5	Chacayá	6	Junio	2023-06-30T00:00:00	2024-11-06T08:00:00	5	Humedad	73
104701	7	Sololá	702	San José Chacayá	5	Chacayá	6	Junio	2023-06-30T00:00:00	2024-11-06T08:00:00	6	Velocidad del viento	1.6
104702	7	Sololá	702	San José Chacayá	5	Chacayá	6	Junio	2023-06-30T00:00:00	2024-11-06T08:00:00	7	Dirección del viento	1.61
104703	7	Sololá	702	San José Chacayá	5	Chacayá	6	Junio	2023-06-30T00:00:00	2024-11-06T08:00:00	1	Precipitación	0
104704	7	Sololá	702	San José Chacayá	5	Chacayá	6	Junio	2023-06-30T00:00:00	2024-11-06T08:00:00	8	Radiación solar	143
104705	7	Sololá	702	San José Chacayá	5	Chacayá	6	Junio	2023-06-30T00:00:00	2024-11-06T09:00:00	2	Temperatura media	20.8
104706	7	Sololá	702	San José Chacayá	5	Chacayá	6	Junio	2023-06-30T00:00:00	2024-11-06T09:00:00	4	Temperatura máxima	20.8
104707	7	Sololá	702	San José Chacayá	5	Chacayá	6	Junio	2023-06-30T00:00:00	2024-11-06T09:00:00	3	Temperatura mínima	18.4
104708	7	Sololá	702	San José Chacayá	5	Chacayá	6	Junio	2023-06-30T00:00:00	2024-11-06T09:00:00	5	Humedad	70
104709	7	Sololá	702	San José Chacayá	5	Chacayá	6	Junio	2023-06-30T00:00:00	2024-11-06T09:00:00	6	Velocidad del viento	3.2
104710	7	Sololá	702	San José Chacayá	5	Chacayá	6	Junio	2023-06-30T00:00:00	2024-11-06T09:00:00	7	Dirección del viento	3.22
104711	7	Sololá	702	San José Chacayá	5	Chacayá	6	Junio	2023-06-30T00:00:00	2024-11-06T09:00:00	1	Precipitación	0
104712	7	Sololá	702	San José Chacayá	5	Chacayá	6	Junio	2023-06-30T00:00:00	2024-11-06T09:00:00	8	Radiación solar	562
104713	7	Sololá	702	San José Chacayá	5	Chacayá	6	Junio	2023-06-30T00:00:00	2024-11-06T10:00:00	2	Temperatura media	22.8
104714	7	Sololá	702	San José Chacayá	5	Chacayá	6	Junio	2023-06-30T00:00:00	2024-11-06T10:00:00	4	Temperatura máxima	22.8
104715	7	Sololá	702	San José Chacayá	5	Chacayá	6	Junio	2023-06-30T00:00:00	2024-11-06T10:00:00	3	Temperatura mínima	20.7
104716	7	Sololá	702	San José Chacayá	5	Chacayá	6	Junio	2023-06-30T00:00:00	2024-11-06T10:00:00	5	Humedad	62
104717	7	Sololá	702	San José Chacayá	5	Chacayá	6	Junio	2023-06-30T00:00:00	2024-11-06T10:00:00	6	Velocidad del viento	4.8
104718	7	Sololá	702	San José Chacayá	5	Chacayá	6	Junio	2023-06-30T00:00:00	2024-11-06T10:00:00	7	Dirección del viento	4.83
104719	7	Sololá	702	San José Chacayá	5	Chacayá	6	Junio	2023-06-30T00:00:00	2024-11-06T10:00:00	1	Precipitación	0
104720	7	Sololá	702	San José Chacayá	5	Chacayá	6	Junio	2023-06-30T00:00:00	2024-11-06T10:00:00	8	Radiación solar	755
104721	7	Sololá	702	San José Chacayá	5	Chacayá	6	Junio	2023-06-30T00:00:00	2024-11-06T11:00:00	2	Temperatura media	24
104722	7	Sololá	702	San José Chacayá	5	Chacayá	6	Junio	2023-06-30T00:00:00	2024-11-06T11:00:00	4	Temperatura máxima	24.4
104723	7	Sololá	702	San José Chacayá	5	Chacayá	6	Junio	2023-06-30T00:00:00	2024-11-06T11:00:00	3	Temperatura mínima	22.7
104724	7	Sololá	702	San José Chacayá	5	Chacayá	6	Junio	2023-06-30T00:00:00	2024-11-06T11:00:00	5	Humedad	54
104725	7	Sololá	702	San José Chacayá	5	Chacayá	6	Junio	2023-06-30T00:00:00	2024-11-06T11:00:00	6	Velocidad del viento	4.8
104726	7	Sololá	702	San José Chacayá	5	Chacayá	6	Junio	2023-06-30T00:00:00	2024-11-06T11:00:00	7	Dirección del viento	4.83
104727	7	Sololá	702	San José Chacayá	5	Chacayá	6	Junio	2023-06-30T00:00:00	2024-11-06T11:00:00	1	Precipitación	0
104728	7	Sololá	702	San José Chacayá	5	Chacayá	6	Junio	2023-06-30T00:00:00	2024-11-06T11:00:00	8	Radiación solar	890
104729	7	Sololá	702	San José Chacayá	5	Chacayá	6	Junio	2023-06-30T00:00:00	2024-11-06T12:00:00	2	Temperatura media	24.5
104730	7	Sololá	702	San José Chacayá	5	Chacayá	6	Junio	2023-06-30T00:00:00	2024-11-06T12:00:00	4	Temperatura máxima	24.5
104731	7	Sololá	702	San José Chacayá	5	Chacayá	6	Junio	2023-06-30T00:00:00	2024-11-06T12:00:00	3	Temperatura mínima	22.6
104732	7	Sololá	702	San José Chacayá	5	Chacayá	6	Junio	2023-06-30T00:00:00	2024-11-06T12:00:00	5	Humedad	51
104733	7	Sololá	702	San José Chacayá	5	Chacayá	6	Junio	2023-06-30T00:00:00	2024-11-06T12:00:00	6	Velocidad del viento	4.8
104734	7	Sololá	702	San José Chacayá	5	Chacayá	6	Junio	2023-06-30T00:00:00	2024-11-06T12:00:00	7	Dirección del viento	4.83
104735	7	Sololá	702	San José Chacayá	5	Chacayá	6	Junio	2023-06-30T00:00:00	2024-11-06T12:00:00	1	Precipitación	0
104736	7	Sololá	702	San José Chacayá	5	Chacayá	6	Junio	2023-06-30T00:00:00	2024-11-06T12:00:00	8	Radiación solar	1006
104737	7	Sololá	702	San José Chacayá	5	Chacayá	6	Junio	2023-06-30T00:00:00	2024-11-06T13:00:00	2	Temperatura media	24.4
104738	7	Sololá	702	San José Chacayá	5	Chacayá	6	Junio	2023-06-30T00:00:00	2024-11-06T13:00:00	4	Temperatura máxima	25.2
104739	7	Sololá	702	San José Chacayá	5	Chacayá	6	Junio	2023-06-30T00:00:00	2024-11-06T13:00:00	3	Temperatura mínima	24.2
104740	7	Sololá	702	San José Chacayá	5	Chacayá	6	Junio	2023-06-30T00:00:00	2024-11-06T13:00:00	5	Humedad	51
104741	7	Sololá	702	San José Chacayá	5	Chacayá	6	Junio	2023-06-30T00:00:00	2024-11-06T13:00:00	6	Velocidad del viento	4.8
104742	7	Sololá	702	San José Chacayá	5	Chacayá	6	Junio	2023-06-30T00:00:00	2024-11-06T13:00:00	7	Dirección del viento	4.83
104743	7	Sololá	702	San José Chacayá	5	Chacayá	6	Junio	2023-06-30T00:00:00	2024-11-06T13:00:00	1	Precipitación	0
104744	7	Sololá	702	San José Chacayá	5	Chacayá	6	Junio	2023-06-30T00:00:00	2024-11-06T13:00:00	8	Radiación solar	181
104745	7	Sololá	702	San José Chacayá	5	Chacayá	6	Junio	2023-06-30T00:00:00	2024-11-06T14:00:00	2	Temperatura media	20.9
104746	7	Sololá	702	San José Chacayá	5	Chacayá	6	Junio	2023-06-30T00:00:00	2024-11-06T14:00:00	4	Temperatura máxima	24.7
104747	7	Sololá	702	San José Chacayá	5	Chacayá	6	Junio	2023-06-30T00:00:00	2024-11-06T14:00:00	3	Temperatura mínima	20.9
104748	7	Sololá	702	San José Chacayá	5	Chacayá	6	Junio	2023-06-30T00:00:00	2024-11-06T14:00:00	5	Humedad	65
104749	7	Sololá	702	San José Chacayá	5	Chacayá	6	Junio	2023-06-30T00:00:00	2024-11-06T14:00:00	6	Velocidad del viento	4.8
104750	7	Sololá	702	San José Chacayá	5	Chacayá	6	Junio	2023-06-30T00:00:00	2024-11-06T14:00:00	7	Dirección del viento	4.83
104751	7	Sololá	702	San José Chacayá	5	Chacayá	6	Junio	2023-06-30T00:00:00	2024-11-06T14:00:00	1	Precipitación	0
104752	7	Sololá	702	San José Chacayá	5	Chacayá	6	Junio	2023-06-30T00:00:00	2024-11-06T14:00:00	8	Radiación solar	43
104753	7	Sololá	702	San José Chacayá	5	Chacayá	6	Junio	2023-06-30T00:00:00	2024-11-06T15:00:00	2	Temperatura media	21.1
104754	7	Sololá	702	San José Chacayá	5	Chacayá	6	Junio	2023-06-30T00:00:00	2024-11-06T15:00:00	4	Temperatura máxima	21.1
104755	7	Sololá	702	San José Chacayá	5	Chacayá	6	Junio	2023-06-30T00:00:00	2024-11-06T15:00:00	3	Temperatura mínima	20.4
104756	7	Sololá	702	San José Chacayá	5	Chacayá	6	Junio	2023-06-30T00:00:00	2024-11-06T15:00:00	5	Humedad	70
104757	7	Sololá	702	San José Chacayá	5	Chacayá	6	Junio	2023-06-30T00:00:00	2024-11-06T15:00:00	6	Velocidad del viento	3.2
104758	7	Sololá	702	San José Chacayá	5	Chacayá	6	Junio	2023-06-30T00:00:00	2024-11-06T15:00:00	7	Dirección del viento	3.22
104759	7	Sololá	702	San José Chacayá	5	Chacayá	6	Junio	2023-06-30T00:00:00	2024-11-06T15:00:00	1	Precipitación	0
104760	7	Sololá	702	San José Chacayá	5	Chacayá	6	Junio	2023-06-30T00:00:00	2024-11-06T15:00:00	8	Radiación solar	170
104761	7	Sololá	702	San José Chacayá	5	Chacayá	6	Junio	2023-06-30T00:00:00	2024-11-06T16:00:00	2	Temperatura media	23.5
104762	7	Sololá	702	San José Chacayá	5	Chacayá	6	Junio	2023-06-30T00:00:00	2024-11-06T16:00:00	4	Temperatura máxima	23.6
104763	7	Sololá	702	San José Chacayá	5	Chacayá	6	Junio	2023-06-30T00:00:00	2024-11-06T16:00:00	3	Temperatura mínima	21.1
104764	7	Sololá	702	San José Chacayá	5	Chacayá	6	Junio	2023-06-30T00:00:00	2024-11-06T16:00:00	5	Humedad	66
104765	7	Sololá	702	San José Chacayá	5	Chacayá	6	Junio	2023-06-30T00:00:00	2024-11-06T16:00:00	6	Velocidad del viento	3.2
104766	7	Sololá	702	San José Chacayá	5	Chacayá	6	Junio	2023-06-30T00:00:00	2024-11-06T16:00:00	7	Dirección del viento	3.22
104767	7	Sololá	702	San José Chacayá	5	Chacayá	6	Junio	2023-06-30T00:00:00	2024-11-06T16:00:00	1	Precipitación	0
104768	7	Sololá	702	San José Chacayá	5	Chacayá	6	Junio	2023-06-30T00:00:00	2024-11-06T16:00:00	8	Radiación solar	131
104769	7	Sololá	702	San José Chacayá	5	Chacayá	6	Junio	2023-06-30T00:00:00	2024-11-06T17:00:00	2	Temperatura media	19.2
104770	7	Sololá	702	San José Chacayá	5	Chacayá	6	Junio	2023-06-30T00:00:00	2024-11-06T17:00:00	4	Temperatura máxima	23.4
104771	7	Sololá	702	San José Chacayá	5	Chacayá	6	Junio	2023-06-30T00:00:00	2024-11-06T17:00:00	3	Temperatura mínima	19.2
104772	7	Sololá	702	San José Chacayá	5	Chacayá	6	Junio	2023-06-30T00:00:00	2024-11-06T17:00:00	5	Humedad	80
104773	7	Sololá	702	San José Chacayá	5	Chacayá	6	Junio	2023-06-30T00:00:00	2024-11-06T17:00:00	6	Velocidad del viento	3.2
104774	7	Sololá	702	San José Chacayá	5	Chacayá	6	Junio	2023-06-30T00:00:00	2024-11-06T17:00:00	7	Dirección del viento	3.22
104775	7	Sololá	702	San José Chacayá	5	Chacayá	6	Junio	2023-06-30T00:00:00	2024-11-06T17:00:00	1	Precipitación	0
104776	7	Sololá	702	San José Chacayá	5	Chacayá	6	Junio	2023-06-30T00:00:00	2024-11-06T17:00:00	8	Radiación solar	50
104777	7	Sololá	702	San José Chacayá	5	Chacayá	6	Junio	2023-06-30T00:00:00	2024-11-06T18:00:00	2	Temperatura media	18.3
104778	7	Sololá	702	San José Chacayá	5	Chacayá	6	Junio	2023-06-30T00:00:00	2024-11-06T18:00:00	4	Temperatura máxima	19.2
104779	7	Sololá	702	San José Chacayá	5	Chacayá	6	Junio	2023-06-30T00:00:00	2024-11-06T18:00:00	3	Temperatura mínima	18.3
104780	7	Sololá	702	San José Chacayá	5	Chacayá	6	Junio	2023-06-30T00:00:00	2024-11-06T18:00:00	5	Humedad	83
104781	7	Sololá	702	San José Chacayá	5	Chacayá	6	Junio	2023-06-30T00:00:00	2024-11-06T18:00:00	6	Velocidad del viento	1.6
104782	7	Sololá	702	San José Chacayá	5	Chacayá	6	Junio	2023-06-30T00:00:00	2024-11-06T18:00:00	7	Dirección del viento	1.61
104783	7	Sololá	702	San José Chacayá	5	Chacayá	6	Junio	2023-06-30T00:00:00	2024-11-06T18:00:00	1	Precipitación	0
104784	7	Sololá	702	San José Chacayá	5	Chacayá	6	Junio	2023-06-30T00:00:00	2024-11-06T18:00:00	8	Radiación solar	12
104785	7	Sololá	702	San José Chacayá	5	Chacayá	6	Junio	2023-06-30T00:00:00	2024-11-06T19:00:00	2	Temperatura media	16.7
104786	7	Sololá	702	San José Chacayá	5	Chacayá	6	Junio	2023-06-30T00:00:00	2024-11-06T19:00:00	4	Temperatura máxima	18.3
104787	7	Sololá	702	San José Chacayá	5	Chacayá	6	Junio	2023-06-30T00:00:00	2024-11-06T19:00:00	3	Temperatura mínima	16.7
104788	7	Sololá	702	San José Chacayá	5	Chacayá	6	Junio	2023-06-30T00:00:00	2024-11-06T19:00:00	5	Humedad	79
104789	7	Sololá	702	San José Chacayá	5	Chacayá	6	Junio	2023-06-30T00:00:00	2024-11-06T19:00:00	6	Velocidad del viento	1.6
104790	7	Sololá	702	San José Chacayá	5	Chacayá	6	Junio	2023-06-30T00:00:00	2024-11-06T19:00:00	7	Dirección del viento	1.61
104791	7	Sololá	702	San José Chacayá	5	Chacayá	6	Junio	2023-06-30T00:00:00	2024-11-06T19:00:00	1	Precipitación	0
104792	7	Sololá	702	San José Chacayá	5	Chacayá	6	Junio	2023-06-30T00:00:00	2024-11-06T19:00:00	8	Radiación solar	0
104793	7	Sololá	702	San José Chacayá	5	Chacayá	6	Junio	2023-06-30T00:00:00	2024-11-06T20:00:00	2	Temperatura media	16.1
104794	7	Sololá	702	San José Chacayá	5	Chacayá	6	Junio	2023-06-30T00:00:00	2024-11-06T20:00:00	4	Temperatura máxima	16.8
104795	7	Sololá	702	San José Chacayá	5	Chacayá	6	Junio	2023-06-30T00:00:00	2024-11-06T20:00:00	3	Temperatura mínima	16.1
104796	7	Sololá	702	San José Chacayá	5	Chacayá	6	Junio	2023-06-30T00:00:00	2024-11-06T20:00:00	5	Humedad	81
104797	7	Sololá	702	San José Chacayá	5	Chacayá	6	Junio	2023-06-30T00:00:00	2024-11-06T20:00:00	6	Velocidad del viento	1.6
104798	7	Sololá	702	San José Chacayá	5	Chacayá	6	Junio	2023-06-30T00:00:00	2024-11-06T20:00:00	7	Dirección del viento	1.61
104799	7	Sololá	702	San José Chacayá	5	Chacayá	6	Junio	2023-06-30T00:00:00	2024-11-06T20:00:00	1	Precipitación	0
104800	7	Sololá	702	San José Chacayá	5	Chacayá	6	Junio	2023-06-30T00:00:00	2024-11-06T20:00:00	8	Radiación solar	0
104801	7	Sololá	702	San José Chacayá	5	Chacayá	6	Junio	2023-06-30T00:00:00	2024-11-06T21:00:00	2	Temperatura media	13.6
104802	7	Sololá	702	San José Chacayá	5	Chacayá	6	Junio	2023-06-30T00:00:00	2024-11-06T21:00:00	4	Temperatura máxima	16.1
104803	7	Sololá	702	San José Chacayá	5	Chacayá	6	Junio	2023-06-30T00:00:00	2024-11-06T21:00:00	3	Temperatura mínima	13.6
104804	7	Sololá	702	San José Chacayá	5	Chacayá	6	Junio	2023-06-30T00:00:00	2024-11-06T21:00:00	5	Humedad	88
104805	7	Sololá	702	San José Chacayá	5	Chacayá	6	Junio	2023-06-30T00:00:00	2024-11-06T21:00:00	6	Velocidad del viento	0
104806	7	Sololá	702	San José Chacayá	5	Chacayá	6	Junio	2023-06-30T00:00:00	2024-11-06T21:00:00	7	Dirección del viento	0
104807	7	Sololá	702	San José Chacayá	5	Chacayá	6	Junio	2023-06-30T00:00:00	2024-11-06T21:00:00	1	Precipitación	0
104808	7	Sololá	702	San José Chacayá	5	Chacayá	6	Junio	2023-06-30T00:00:00	2024-11-06T21:00:00	8	Radiación solar	0
104809	7	Sololá	702	San José Chacayá	5	Chacayá	6	Junio	2023-06-30T00:00:00	2024-11-06T22:00:00	2	Temperatura media	12.5
104810	7	Sololá	702	San José Chacayá	5	Chacayá	6	Junio	2023-06-30T00:00:00	2024-11-06T22:00:00	4	Temperatura máxima	13.6
104811	7	Sololá	702	San José Chacayá	5	Chacayá	6	Junio	2023-06-30T00:00:00	2024-11-06T22:00:00	3	Temperatura mínima	12.4
104812	7	Sololá	702	San José Chacayá	5	Chacayá	6	Junio	2023-06-30T00:00:00	2024-11-06T22:00:00	5	Humedad	90
104813	7	Sololá	702	San José Chacayá	5	Chacayá	6	Junio	2023-06-30T00:00:00	2024-11-06T22:00:00	6	Velocidad del viento	0
104814	7	Sololá	702	San José Chacayá	5	Chacayá	6	Junio	2023-06-30T00:00:00	2024-11-06T22:00:00	7	Dirección del viento	0
104815	7	Sololá	702	San José Chacayá	5	Chacayá	6	Junio	2023-06-30T00:00:00	2024-11-06T22:00:00	1	Precipitación	0
104816	7	Sololá	702	San José Chacayá	5	Chacayá	6	Junio	2023-06-30T00:00:00	2024-11-06T22:00:00	8	Radiación solar	0
104817	7	Sololá	702	San José Chacayá	5	Chacayá	6	Junio	2023-06-30T00:00:00	2024-11-06T23:00:00	2	Temperatura media	11.9
104818	7	Sololá	702	San José Chacayá	5	Chacayá	6	Junio	2023-06-30T00:00:00	2024-11-06T23:00:00	4	Temperatura máxima	12.5
104819	7	Sololá	702	San José Chacayá	5	Chacayá	6	Junio	2023-06-30T00:00:00	2024-11-06T23:00:00	3	Temperatura mínima	11.9
104820	7	Sololá	702	San José Chacayá	5	Chacayá	6	Junio	2023-06-30T00:00:00	2024-11-06T23:00:00	5	Humedad	91
104821	7	Sololá	702	San José Chacayá	5	Chacayá	6	Junio	2023-06-30T00:00:00	2024-11-06T23:00:00	6	Velocidad del viento	0
104822	7	Sololá	702	San José Chacayá	5	Chacayá	6	Junio	2023-06-30T00:00:00	2024-11-06T23:00:00	7	Dirección del viento	0
104823	7	Sololá	702	San José Chacayá	5	Chacayá	6	Junio	2023-06-30T00:00:00	2024-11-06T23:00:00	1	Precipitación	0
104824	7	Sololá	702	San José Chacayá	5	Chacayá	6	Junio	2023-06-30T00:00:00	2024-11-06T23:00:00	8	Radiación solar	0
104825	7	Sololá	702	San José Chacayá	5	Chacayá	7	Julio	2023-01-07T00:00:00	2024-11-06T00:00:00	2	Temperatura media	11.7
104826	7	Sololá	702	San José Chacayá	5	Chacayá	7	Julio	2023-01-07T00:00:00	2024-11-06T00:00:00	4	Temperatura máxima	11.9
104827	7	Sololá	702	San José Chacayá	5	Chacayá	7	Julio	2023-01-07T00:00:00	2024-11-06T00:00:00	3	Temperatura mínima	11.6
104828	7	Sololá	702	San José Chacayá	5	Chacayá	7	Julio	2023-01-07T00:00:00	2024-11-06T00:00:00	5	Humedad	91
104829	7	Sololá	702	San José Chacayá	5	Chacayá	7	Julio	2023-01-07T00:00:00	2024-11-06T00:00:00	6	Velocidad del viento	0
104830	7	Sololá	702	San José Chacayá	5	Chacayá	7	Julio	2023-01-07T00:00:00	2024-11-06T00:00:00	7	Dirección del viento	0
104831	7	Sololá	702	San José Chacayá	5	Chacayá	7	Julio	2023-01-07T00:00:00	2024-11-06T00:00:00	1	Precipitación	0
104832	7	Sololá	702	San José Chacayá	5	Chacayá	7	Julio	2023-01-07T00:00:00	2024-11-06T00:00:00	8	Radiación solar	0
104833	7	Sololá	702	San José Chacayá	5	Chacayá	7	Julio	2023-01-07T00:00:00	2024-11-06T01:00:00	2	Temperatura media	11.4
104834	7	Sololá	702	San José Chacayá	5	Chacayá	7	Julio	2023-01-07T00:00:00	2024-11-06T01:00:00	4	Temperatura máxima	11.7
104835	7	Sololá	702	San José Chacayá	5	Chacayá	7	Julio	2023-01-07T00:00:00	2024-11-06T01:00:00	3	Temperatura mínima	11.3
104836	7	Sololá	702	San José Chacayá	5	Chacayá	7	Julio	2023-01-07T00:00:00	2024-11-06T01:00:00	5	Humedad	91
104837	7	Sololá	702	San José Chacayá	5	Chacayá	7	Julio	2023-01-07T00:00:00	2024-11-06T01:00:00	6	Velocidad del viento	0
104838	7	Sololá	702	San José Chacayá	5	Chacayá	7	Julio	2023-01-07T00:00:00	2024-11-06T01:00:00	7	Dirección del viento	0
104839	7	Sololá	702	San José Chacayá	5	Chacayá	7	Julio	2023-01-07T00:00:00	2024-11-06T01:00:00	1	Precipitación	0
104840	7	Sololá	702	San José Chacayá	5	Chacayá	7	Julio	2023-01-07T00:00:00	2024-11-06T01:00:00	8	Radiación solar	0
104841	7	Sololá	702	San José Chacayá	5	Chacayá	7	Julio	2023-01-07T00:00:00	2024-11-06T02:00:00	2	Temperatura media	11.5
104842	7	Sololá	702	San José Chacayá	5	Chacayá	7	Julio	2023-01-07T00:00:00	2024-11-06T02:00:00	4	Temperatura máxima	11.6
104843	7	Sololá	702	San José Chacayá	5	Chacayá	7	Julio	2023-01-07T00:00:00	2024-11-06T02:00:00	3	Temperatura mínima	11.4
104844	7	Sololá	702	San José Chacayá	5	Chacayá	7	Julio	2023-01-07T00:00:00	2024-11-06T02:00:00	5	Humedad	91
104845	7	Sololá	702	San José Chacayá	5	Chacayá	7	Julio	2023-01-07T00:00:00	2024-11-06T02:00:00	6	Velocidad del viento	0
104846	7	Sololá	702	San José Chacayá	5	Chacayá	7	Julio	2023-01-07T00:00:00	2024-11-06T02:00:00	7	Dirección del viento	0
104847	7	Sololá	702	San José Chacayá	5	Chacayá	7	Julio	2023-01-07T00:00:00	2024-11-06T02:00:00	1	Precipitación	0
104848	7	Sololá	702	San José Chacayá	5	Chacayá	7	Julio	2023-01-07T00:00:00	2024-11-06T02:00:00	8	Radiación solar	0
104849	7	Sololá	702	San José Chacayá	5	Chacayá	7	Julio	2023-01-07T00:00:00	2024-11-06T03:00:00	2	Temperatura media	11.2
104850	7	Sololá	702	San José Chacayá	5	Chacayá	7	Julio	2023-01-07T00:00:00	2024-11-06T03:00:00	4	Temperatura máxima	11.5
104851	7	Sololá	702	San José Chacayá	5	Chacayá	7	Julio	2023-01-07T00:00:00	2024-11-06T03:00:00	3	Temperatura mínima	11.1
104852	7	Sololá	702	San José Chacayá	5	Chacayá	7	Julio	2023-01-07T00:00:00	2024-11-06T03:00:00	5	Humedad	91
104853	7	Sololá	702	San José Chacayá	5	Chacayá	7	Julio	2023-01-07T00:00:00	2024-11-06T03:00:00	6	Velocidad del viento	0
104854	7	Sololá	702	San José Chacayá	5	Chacayá	7	Julio	2023-01-07T00:00:00	2024-11-06T03:00:00	7	Dirección del viento	0
104855	7	Sololá	702	San José Chacayá	5	Chacayá	7	Julio	2023-01-07T00:00:00	2024-11-06T03:00:00	1	Precipitación	0
104856	7	Sololá	702	San José Chacayá	5	Chacayá	7	Julio	2023-01-07T00:00:00	2024-11-06T03:00:00	8	Radiación solar	0
104857	7	Sololá	702	San José Chacayá	5	Chacayá	7	Julio	2023-01-07T00:00:00	2024-11-06T04:00:00	2	Temperatura media	10.9
104858	7	Sololá	702	San José Chacayá	5	Chacayá	7	Julio	2023-01-07T00:00:00	2024-11-06T04:00:00	4	Temperatura máxima	11.2
104859	7	Sololá	702	San José Chacayá	5	Chacayá	7	Julio	2023-01-07T00:00:00	2024-11-06T04:00:00	3	Temperatura mínima	10.9
104860	7	Sololá	702	San José Chacayá	5	Chacayá	7	Julio	2023-01-07T00:00:00	2024-11-06T04:00:00	5	Humedad	90
104861	7	Sololá	702	San José Chacayá	5	Chacayá	7	Julio	2023-01-07T00:00:00	2024-11-06T04:00:00	6	Velocidad del viento	1.6
104862	7	Sololá	702	San José Chacayá	5	Chacayá	7	Julio	2023-01-07T00:00:00	2024-11-06T04:00:00	7	Dirección del viento	1.61
104863	7	Sololá	702	San José Chacayá	5	Chacayá	7	Julio	2023-01-07T00:00:00	2024-11-06T04:00:00	1	Precipitación	0
104864	7	Sololá	702	San José Chacayá	5	Chacayá	7	Julio	2023-01-07T00:00:00	2024-11-06T04:00:00	8	Radiación solar	0
104865	7	Sololá	702	San José Chacayá	5	Chacayá	7	Julio	2023-01-07T00:00:00	2024-11-06T05:00:00	2	Temperatura media	10.3
104866	7	Sololá	702	San José Chacayá	5	Chacayá	7	Julio	2023-01-07T00:00:00	2024-11-06T05:00:00	4	Temperatura máxima	10.9
104867	7	Sololá	702	San José Chacayá	5	Chacayá	7	Julio	2023-01-07T00:00:00	2024-11-06T05:00:00	3	Temperatura mínima	10.3
104868	7	Sololá	702	San José Chacayá	5	Chacayá	7	Julio	2023-01-07T00:00:00	2024-11-06T05:00:00	5	Humedad	90
104869	7	Sololá	702	San José Chacayá	5	Chacayá	7	Julio	2023-01-07T00:00:00	2024-11-06T05:00:00	6	Velocidad del viento	0
104870	7	Sololá	702	San José Chacayá	5	Chacayá	7	Julio	2023-01-07T00:00:00	2024-11-06T05:00:00	7	Dirección del viento	0
104871	7	Sololá	702	San José Chacayá	5	Chacayá	7	Julio	2023-01-07T00:00:00	2024-11-06T05:00:00	1	Precipitación	0
104872	7	Sololá	702	San José Chacayá	5	Chacayá	7	Julio	2023-01-07T00:00:00	2024-11-06T05:00:00	8	Radiación solar	0
104873	7	Sololá	702	San José Chacayá	5	Chacayá	7	Julio	2023-01-07T00:00:00	2024-11-06T06:00:00	2	Temperatura media	10.3
104874	7	Sololá	702	San José Chacayá	5	Chacayá	7	Julio	2023-01-07T00:00:00	2024-11-06T06:00:00	4	Temperatura máxima	10.4
104875	7	Sololá	702	San José Chacayá	5	Chacayá	7	Julio	2023-01-07T00:00:00	2024-11-06T06:00:00	3	Temperatura mínima	10.2
104876	7	Sololá	702	San José Chacayá	5	Chacayá	7	Julio	2023-01-07T00:00:00	2024-11-06T06:00:00	5	Humedad	91
104877	7	Sololá	702	San José Chacayá	5	Chacayá	7	Julio	2023-01-07T00:00:00	2024-11-06T06:00:00	6	Velocidad del viento	0
104878	7	Sololá	702	San José Chacayá	5	Chacayá	7	Julio	2023-01-07T00:00:00	2024-11-06T06:00:00	7	Dirección del viento	0
104879	7	Sololá	702	San José Chacayá	5	Chacayá	7	Julio	2023-01-07T00:00:00	2024-11-06T06:00:00	1	Precipitación	0
104880	7	Sololá	702	San José Chacayá	5	Chacayá	7	Julio	2023-01-07T00:00:00	2024-11-06T06:00:00	8	Radiación solar	2
104881	7	Sololá	702	San José Chacayá	5	Chacayá	7	Julio	2023-01-07T00:00:00	2024-11-06T07:00:00	2	Temperatura media	12.4
104882	7	Sololá	702	San José Chacayá	5	Chacayá	7	Julio	2023-01-07T00:00:00	2024-11-06T07:00:00	4	Temperatura máxima	12.4
104883	7	Sololá	702	San José Chacayá	5	Chacayá	7	Julio	2023-01-07T00:00:00	2024-11-06T07:00:00	3	Temperatura mínima	10.2
104884	7	Sololá	702	San José Chacayá	5	Chacayá	7	Julio	2023-01-07T00:00:00	2024-11-06T07:00:00	5	Humedad	90
104885	7	Sololá	702	San José Chacayá	5	Chacayá	7	Julio	2023-01-07T00:00:00	2024-11-06T07:00:00	6	Velocidad del viento	0
104886	7	Sololá	702	San José Chacayá	5	Chacayá	7	Julio	2023-01-07T00:00:00	2024-11-06T07:00:00	7	Dirección del viento	0
104887	7	Sololá	702	San José Chacayá	5	Chacayá	7	Julio	2023-01-07T00:00:00	2024-11-06T07:00:00	1	Precipitación	0
104888	7	Sololá	702	San José Chacayá	5	Chacayá	7	Julio	2023-01-07T00:00:00	2024-11-06T07:00:00	8	Radiación solar	22
104889	7	Sololá	702	San José Chacayá	5	Chacayá	7	Julio	2023-01-07T00:00:00	2024-11-06T08:00:00	2	Temperatura media	18.4
104890	7	Sololá	702	San José Chacayá	5	Chacayá	7	Julio	2023-01-07T00:00:00	2024-11-06T08:00:00	4	Temperatura máxima	18.4
104891	7	Sololá	702	San José Chacayá	5	Chacayá	7	Julio	2023-01-07T00:00:00	2024-11-06T08:00:00	3	Temperatura mínima	12.4
104892	7	Sololá	702	San José Chacayá	5	Chacayá	7	Julio	2023-01-07T00:00:00	2024-11-06T08:00:00	5	Humedad	70
104893	7	Sololá	702	San José Chacayá	5	Chacayá	7	Julio	2023-01-07T00:00:00	2024-11-06T08:00:00	6	Velocidad del viento	1.6
104894	7	Sololá	702	San José Chacayá	5	Chacayá	7	Julio	2023-01-07T00:00:00	2024-11-06T08:00:00	7	Dirección del viento	1.61
104895	7	Sololá	702	San José Chacayá	5	Chacayá	7	Julio	2023-01-07T00:00:00	2024-11-06T08:00:00	1	Precipitación	0
104896	7	Sololá	702	San José Chacayá	5	Chacayá	7	Julio	2023-01-07T00:00:00	2024-11-06T08:00:00	8	Radiación solar	139
104897	7	Sololá	702	San José Chacayá	5	Chacayá	7	Julio	2023-01-07T00:00:00	2024-11-06T09:00:00	2	Temperatura media	20.8
104898	7	Sololá	702	San José Chacayá	5	Chacayá	7	Julio	2023-01-07T00:00:00	2024-11-06T09:00:00	4	Temperatura máxima	20.9
104899	7	Sololá	702	San José Chacayá	5	Chacayá	7	Julio	2023-01-07T00:00:00	2024-11-06T09:00:00	3	Temperatura mínima	18.5
104900	7	Sololá	702	San José Chacayá	5	Chacayá	7	Julio	2023-01-07T00:00:00	2024-11-06T09:00:00	5	Humedad	63
104901	7	Sololá	702	San José Chacayá	5	Chacayá	7	Julio	2023-01-07T00:00:00	2024-11-06T09:00:00	6	Velocidad del viento	3.2
104902	7	Sololá	702	San José Chacayá	5	Chacayá	7	Julio	2023-01-07T00:00:00	2024-11-06T09:00:00	7	Dirección del viento	3.22
104903	7	Sololá	702	San José Chacayá	5	Chacayá	7	Julio	2023-01-07T00:00:00	2024-11-06T09:00:00	1	Precipitación	0
104904	7	Sololá	702	San José Chacayá	5	Chacayá	7	Julio	2023-01-07T00:00:00	2024-11-06T09:00:00	8	Radiación solar	328
104905	7	Sololá	702	San José Chacayá	5	Chacayá	7	Julio	2023-01-07T00:00:00	2024-11-06T10:00:00	2	Temperatura media	22.8
104906	7	Sololá	702	San José Chacayá	5	Chacayá	7	Julio	2023-01-07T00:00:00	2024-11-06T10:00:00	4	Temperatura máxima	22.8
104907	7	Sololá	702	San José Chacayá	5	Chacayá	7	Julio	2023-01-07T00:00:00	2024-11-06T10:00:00	3	Temperatura mínima	20.8
104908	7	Sololá	702	San José Chacayá	5	Chacayá	7	Julio	2023-01-07T00:00:00	2024-11-06T10:00:00	5	Humedad	57
104909	7	Sololá	702	San José Chacayá	5	Chacayá	7	Julio	2023-01-07T00:00:00	2024-11-06T10:00:00	6	Velocidad del viento	3.2
104910	7	Sololá	702	San José Chacayá	5	Chacayá	7	Julio	2023-01-07T00:00:00	2024-11-06T10:00:00	7	Dirección del viento	3.22
104911	7	Sololá	702	San José Chacayá	5	Chacayá	7	Julio	2023-01-07T00:00:00	2024-11-06T10:00:00	1	Precipitación	0
104912	7	Sololá	702	San José Chacayá	5	Chacayá	7	Julio	2023-01-07T00:00:00	2024-11-06T10:00:00	8	Radiación solar	514
104913	7	Sololá	702	San José Chacayá	5	Chacayá	7	Julio	2023-01-07T00:00:00	2024-11-06T11:00:00	2	Temperatura media	23.2
104914	7	Sololá	702	San José Chacayá	5	Chacayá	7	Julio	2023-01-07T00:00:00	2024-11-06T11:00:00	4	Temperatura máxima	23.4
104915	7	Sololá	702	San José Chacayá	5	Chacayá	7	Julio	2023-01-07T00:00:00	2024-11-06T11:00:00	3	Temperatura mínima	22.8
104916	7	Sololá	702	San José Chacayá	5	Chacayá	7	Julio	2023-01-07T00:00:00	2024-11-06T11:00:00	5	Humedad	54
104917	7	Sololá	702	San José Chacayá	5	Chacayá	7	Julio	2023-01-07T00:00:00	2024-11-06T11:00:00	6	Velocidad del viento	4.8
104918	7	Sololá	702	San José Chacayá	5	Chacayá	7	Julio	2023-01-07T00:00:00	2024-11-06T11:00:00	7	Dirección del viento	4.83
104919	7	Sololá	702	San José Chacayá	5	Chacayá	7	Julio	2023-01-07T00:00:00	2024-11-06T11:00:00	1	Precipitación	0
104920	7	Sololá	702	San José Chacayá	5	Chacayá	7	Julio	2023-01-07T00:00:00	2024-11-06T11:00:00	8	Radiación solar	484
104921	7	Sololá	702	San José Chacayá	5	Chacayá	7	Julio	2023-01-07T00:00:00	2024-11-06T12:00:00	2	Temperatura media	24.3
104922	7	Sololá	702	San José Chacayá	5	Chacayá	7	Julio	2023-01-07T00:00:00	2024-11-06T12:00:00	4	Temperatura máxima	24.3
104923	7	Sololá	702	San José Chacayá	5	Chacayá	7	Julio	2023-01-07T00:00:00	2024-11-06T12:00:00	3	Temperatura mínima	22.8
104924	7	Sololá	702	San José Chacayá	5	Chacayá	7	Julio	2023-01-07T00:00:00	2024-11-06T12:00:00	5	Humedad	54
104925	7	Sololá	702	San José Chacayá	5	Chacayá	7	Julio	2023-01-07T00:00:00	2024-11-06T12:00:00	6	Velocidad del viento	4.8
104926	7	Sololá	702	San José Chacayá	5	Chacayá	7	Julio	2023-01-07T00:00:00	2024-11-06T12:00:00	7	Dirección del viento	4.83
104927	7	Sololá	702	San José Chacayá	5	Chacayá	7	Julio	2023-01-07T00:00:00	2024-11-06T12:00:00	1	Precipitación	0
104928	7	Sololá	702	San José Chacayá	5	Chacayá	7	Julio	2023-01-07T00:00:00	2024-11-06T12:00:00	8	Radiación solar	459
104929	7	Sololá	702	San José Chacayá	5	Chacayá	7	Julio	2023-01-07T00:00:00	2024-11-06T13:00:00	2	Temperatura media	23.9
104930	7	Sololá	702	San José Chacayá	5	Chacayá	7	Julio	2023-01-07T00:00:00	2024-11-06T13:00:00	4	Temperatura máxima	24.3
104931	7	Sololá	702	San José Chacayá	5	Chacayá	7	Julio	2023-01-07T00:00:00	2024-11-06T13:00:00	3	Temperatura mínima	22.6
104932	7	Sololá	702	San José Chacayá	5	Chacayá	7	Julio	2023-01-07T00:00:00	2024-11-06T13:00:00	5	Humedad	65
104933	7	Sololá	702	San José Chacayá	5	Chacayá	7	Julio	2023-01-07T00:00:00	2024-11-06T13:00:00	6	Velocidad del viento	4.8
104934	7	Sololá	702	San José Chacayá	5	Chacayá	7	Julio	2023-01-07T00:00:00	2024-11-06T13:00:00	7	Dirección del viento	4.83
104935	7	Sololá	702	San José Chacayá	5	Chacayá	7	Julio	2023-01-07T00:00:00	2024-11-06T13:00:00	1	Precipitación	0
104936	7	Sololá	702	San José Chacayá	5	Chacayá	7	Julio	2023-01-07T00:00:00	2024-11-06T13:00:00	8	Radiación solar	535
104937	7	Sololá	702	San José Chacayá	5	Chacayá	7	Julio	2023-01-07T00:00:00	2024-11-06T14:00:00	2	Temperatura media	21.8
104938	7	Sololá	702	San José Chacayá	5	Chacayá	7	Julio	2023-01-07T00:00:00	2024-11-06T14:00:00	4	Temperatura máxima	23.9
104939	7	Sololá	702	San José Chacayá	5	Chacayá	7	Julio	2023-01-07T00:00:00	2024-11-06T14:00:00	3	Temperatura mínima	21.4
104940	7	Sololá	702	San José Chacayá	5	Chacayá	7	Julio	2023-01-07T00:00:00	2024-11-06T14:00:00	5	Humedad	69
104941	7	Sololá	702	San José Chacayá	5	Chacayá	7	Julio	2023-01-07T00:00:00	2024-11-06T14:00:00	6	Velocidad del viento	8
104942	7	Sololá	702	San José Chacayá	5	Chacayá	7	Julio	2023-01-07T00:00:00	2024-11-06T14:00:00	7	Dirección del viento	8.05
104943	7	Sololá	702	San José Chacayá	5	Chacayá	7	Julio	2023-01-07T00:00:00	2024-11-06T14:00:00	1	Precipitación	0
104944	7	Sololá	702	San José Chacayá	5	Chacayá	7	Julio	2023-01-07T00:00:00	2024-11-06T14:00:00	8	Radiación solar	655
104945	7	Sololá	702	San José Chacayá	5	Chacayá	7	Julio	2023-01-07T00:00:00	2024-11-06T15:00:00	2	Temperatura media	14.8
104946	7	Sololá	702	San José Chacayá	5	Chacayá	7	Julio	2023-01-07T00:00:00	2024-11-06T15:00:00	4	Temperatura máxima	22.1
104947	7	Sololá	702	San José Chacayá	5	Chacayá	7	Julio	2023-01-07T00:00:00	2024-11-06T15:00:00	3	Temperatura mínima	14.8
104948	7	Sololá	702	San José Chacayá	5	Chacayá	7	Julio	2023-01-07T00:00:00	2024-11-06T15:00:00	5	Humedad	86
104949	7	Sololá	702	San José Chacayá	5	Chacayá	7	Julio	2023-01-07T00:00:00	2024-11-06T15:00:00	6	Velocidad del viento	4.8
104950	7	Sololá	702	San José Chacayá	5	Chacayá	7	Julio	2023-01-07T00:00:00	2024-11-06T15:00:00	7	Dirección del viento	4.83
104951	7	Sololá	702	San José Chacayá	5	Chacayá	7	Julio	2023-01-07T00:00:00	2024-11-06T15:00:00	1	Precipitación	11.2
104952	7	Sololá	702	San José Chacayá	5	Chacayá	7	Julio	2023-01-07T00:00:00	2024-11-06T15:00:00	8	Radiación solar	226
104953	7	Sololá	702	San José Chacayá	5	Chacayá	7	Julio	2023-01-07T00:00:00	2024-11-06T16:00:00	2	Temperatura media	13.3
104954	7	Sololá	702	San José Chacayá	5	Chacayá	7	Julio	2023-01-07T00:00:00	2024-11-06T16:00:00	4	Temperatura máxima	14.7
104955	7	Sololá	702	San José Chacayá	5	Chacayá	7	Julio	2023-01-07T00:00:00	2024-11-06T16:00:00	3	Temperatura mínima	13
104956	7	Sololá	702	San José Chacayá	5	Chacayá	7	Julio	2023-01-07T00:00:00	2024-11-06T16:00:00	5	Humedad	94
104957	7	Sololá	702	San José Chacayá	5	Chacayá	7	Julio	2023-01-07T00:00:00	2024-11-06T16:00:00	6	Velocidad del viento	1.6
104958	7	Sololá	702	San José Chacayá	5	Chacayá	7	Julio	2023-01-07T00:00:00	2024-11-06T16:00:00	7	Dirección del viento	1.61
104959	7	Sololá	702	San José Chacayá	5	Chacayá	7	Julio	2023-01-07T00:00:00	2024-11-06T16:00:00	1	Precipitación	12.2
104960	7	Sololá	702	San José Chacayá	5	Chacayá	7	Julio	2023-01-07T00:00:00	2024-11-06T16:00:00	8	Radiación solar	107
104961	7	Sololá	702	San José Chacayá	5	Chacayá	7	Julio	2023-01-07T00:00:00	2024-11-06T17:00:00	2	Temperatura media	13.7
104962	7	Sololá	702	San José Chacayá	5	Chacayá	7	Julio	2023-01-07T00:00:00	2024-11-06T17:00:00	4	Temperatura máxima	13.7
104963	7	Sololá	702	San José Chacayá	5	Chacayá	7	Julio	2023-01-07T00:00:00	2024-11-06T17:00:00	3	Temperatura mínima	13.3
104964	7	Sololá	702	San José Chacayá	5	Chacayá	7	Julio	2023-01-07T00:00:00	2024-11-06T17:00:00	5	Humedad	95
104965	7	Sololá	702	San José Chacayá	5	Chacayá	7	Julio	2023-01-07T00:00:00	2024-11-06T17:00:00	6	Velocidad del viento	0
104966	7	Sololá	702	San José Chacayá	5	Chacayá	7	Julio	2023-01-07T00:00:00	2024-11-06T17:00:00	7	Dirección del viento	0
104967	7	Sololá	702	San José Chacayá	5	Chacayá	7	Julio	2023-01-07T00:00:00	2024-11-06T17:00:00	1	Precipitación	1
104968	7	Sololá	702	San José Chacayá	5	Chacayá	7	Julio	2023-01-07T00:00:00	2024-11-06T17:00:00	8	Radiación solar	94
104969	7	Sololá	702	San José Chacayá	5	Chacayá	7	Julio	2023-01-07T00:00:00	2024-11-06T18:00:00	2	Temperatura media	13.4
104970	7	Sololá	702	San José Chacayá	5	Chacayá	7	Julio	2023-01-07T00:00:00	2024-11-06T18:00:00	4	Temperatura máxima	13.8
104971	7	Sololá	702	San José Chacayá	5	Chacayá	7	Julio	2023-01-07T00:00:00	2024-11-06T18:00:00	3	Temperatura mínima	13.4
104972	7	Sololá	702	San José Chacayá	5	Chacayá	7	Julio	2023-01-07T00:00:00	2024-11-06T18:00:00	5	Humedad	94
104973	7	Sololá	702	San José Chacayá	5	Chacayá	7	Julio	2023-01-07T00:00:00	2024-11-06T18:00:00	6	Velocidad del viento	1.6
104974	7	Sololá	702	San José Chacayá	5	Chacayá	7	Julio	2023-01-07T00:00:00	2024-11-06T18:00:00	7	Dirección del viento	1.61
104975	7	Sololá	702	San José Chacayá	5	Chacayá	7	Julio	2023-01-07T00:00:00	2024-11-06T18:00:00	1	Precipitación	4.6
104976	7	Sololá	702	San José Chacayá	5	Chacayá	7	Julio	2023-01-07T00:00:00	2024-11-06T18:00:00	8	Radiación solar	26
104977	7	Sololá	702	San José Chacayá	5	Chacayá	7	Julio	2023-01-07T00:00:00	2024-11-06T19:00:00	2	Temperatura media	13.1
104978	7	Sololá	702	San José Chacayá	5	Chacayá	7	Julio	2023-01-07T00:00:00	2024-11-06T19:00:00	4	Temperatura máxima	13.4
104979	7	Sololá	702	San José Chacayá	5	Chacayá	7	Julio	2023-01-07T00:00:00	2024-11-06T19:00:00	3	Temperatura mínima	13.1
104980	7	Sololá	702	San José Chacayá	5	Chacayá	7	Julio	2023-01-07T00:00:00	2024-11-06T19:00:00	5	Humedad	94
104981	7	Sololá	702	San José Chacayá	5	Chacayá	7	Julio	2023-01-07T00:00:00	2024-11-06T19:00:00	6	Velocidad del viento	1.6
104982	7	Sololá	702	San José Chacayá	5	Chacayá	7	Julio	2023-01-07T00:00:00	2024-11-06T19:00:00	7	Dirección del viento	1.61
104983	7	Sololá	702	San José Chacayá	5	Chacayá	7	Julio	2023-01-07T00:00:00	2024-11-06T19:00:00	1	Precipitación	0.6
104984	7	Sololá	702	San José Chacayá	5	Chacayá	7	Julio	2023-01-07T00:00:00	2024-11-06T19:00:00	8	Radiación solar	0
104985	7	Sololá	702	San José Chacayá	5	Chacayá	7	Julio	2023-01-07T00:00:00	2024-11-06T20:00:00	2	Temperatura media	12.8
104986	7	Sololá	702	San José Chacayá	5	Chacayá	7	Julio	2023-01-07T00:00:00	2024-11-06T20:00:00	4	Temperatura máxima	13.2
104987	7	Sololá	702	San José Chacayá	5	Chacayá	7	Julio	2023-01-07T00:00:00	2024-11-06T20:00:00	3	Temperatura mínima	12.8
104988	7	Sololá	702	San José Chacayá	5	Chacayá	7	Julio	2023-01-07T00:00:00	2024-11-06T20:00:00	5	Humedad	95
104989	7	Sololá	702	San José Chacayá	5	Chacayá	7	Julio	2023-01-07T00:00:00	2024-11-06T20:00:00	6	Velocidad del viento	0
104990	7	Sololá	702	San José Chacayá	5	Chacayá	7	Julio	2023-01-07T00:00:00	2024-11-06T20:00:00	7	Dirección del viento	0
104991	7	Sololá	702	San José Chacayá	5	Chacayá	7	Julio	2023-01-07T00:00:00	2024-11-06T20:00:00	1	Precipitación	0
104992	7	Sololá	702	San José Chacayá	5	Chacayá	7	Julio	2023-01-07T00:00:00	2024-11-06T20:00:00	8	Radiación solar	0
104993	7	Sololá	702	San José Chacayá	5	Chacayá	7	Julio	2023-01-07T00:00:00	2024-11-06T21:00:00	2	Temperatura media	12.9
104994	7	Sololá	702	San José Chacayá	5	Chacayá	7	Julio	2023-01-07T00:00:00	2024-11-06T21:00:00	4	Temperatura máxima	12.9
104995	7	Sololá	702	San José Chacayá	5	Chacayá	7	Julio	2023-01-07T00:00:00	2024-11-06T21:00:00	3	Temperatura mínima	12.7
104996	7	Sololá	702	San José Chacayá	5	Chacayá	7	Julio	2023-01-07T00:00:00	2024-11-06T21:00:00	5	Humedad	94
104997	7	Sololá	702	San José Chacayá	5	Chacayá	7	Julio	2023-01-07T00:00:00	2024-11-06T21:00:00	6	Velocidad del viento	1.6
104998	7	Sololá	702	San José Chacayá	5	Chacayá	7	Julio	2023-01-07T00:00:00	2024-11-06T21:00:00	7	Dirección del viento	1.61
104999	7	Sololá	702	San José Chacayá	5	Chacayá	7	Julio	2023-01-07T00:00:00	2024-11-06T21:00:00	1	Precipitación	0
105000	7	Sololá	702	San José Chacayá	5	Chacayá	7	Julio	2023-01-07T00:00:00	2024-11-06T21:00:00	8	Radiación solar	0
105001	7	Sololá	702	San José Chacayá	5	Chacayá	7	Julio	2023-01-07T00:00:00	2024-11-06T22:00:00	2	Temperatura media	13
105002	7	Sololá	702	San José Chacayá	5	Chacayá	7	Julio	2023-01-07T00:00:00	2024-11-06T22:00:00	4	Temperatura máxima	13.2
105003	7	Sololá	702	San José Chacayá	5	Chacayá	7	Julio	2023-01-07T00:00:00	2024-11-06T22:00:00	3	Temperatura mínima	12.9
105004	7	Sololá	702	San José Chacayá	5	Chacayá	7	Julio	2023-01-07T00:00:00	2024-11-06T22:00:00	5	Humedad	95
105005	7	Sololá	702	San José Chacayá	5	Chacayá	7	Julio	2023-01-07T00:00:00	2024-11-06T22:00:00	6	Velocidad del viento	0
105006	7	Sololá	702	San José Chacayá	5	Chacayá	7	Julio	2023-01-07T00:00:00	2024-11-06T22:00:00	7	Dirección del viento	0
105007	7	Sololá	702	San José Chacayá	5	Chacayá	7	Julio	2023-01-07T00:00:00	2024-11-06T22:00:00	1	Precipitación	0
105008	7	Sololá	702	San José Chacayá	5	Chacayá	7	Julio	2023-01-07T00:00:00	2024-11-06T22:00:00	8	Radiación solar	0
105009	7	Sololá	702	San José Chacayá	5	Chacayá	7	Julio	2023-01-07T00:00:00	2024-11-06T23:00:00	2	Temperatura media	12.8
105010	7	Sololá	702	San José Chacayá	5	Chacayá	7	Julio	2023-01-07T00:00:00	2024-11-06T23:00:00	4	Temperatura máxima	13
105011	7	Sololá	702	San José Chacayá	5	Chacayá	7	Julio	2023-01-07T00:00:00	2024-11-06T23:00:00	3	Temperatura mínima	12.8
105012	7	Sololá	702	San José Chacayá	5	Chacayá	7	Julio	2023-01-07T00:00:00	2024-11-06T23:00:00	5	Humedad	95
105013	7	Sololá	702	San José Chacayá	5	Chacayá	7	Julio	2023-01-07T00:00:00	2024-11-06T23:00:00	6	Velocidad del viento	0
105014	7	Sololá	702	San José Chacayá	5	Chacayá	7	Julio	2023-01-07T00:00:00	2024-11-06T23:00:00	7	Dirección del viento	0
105015	7	Sololá	702	San José Chacayá	5	Chacayá	7	Julio	2023-01-07T00:00:00	2024-11-06T23:00:00	1	Precipitación	0
105016	7	Sololá	702	San José Chacayá	5	Chacayá	7	Julio	2023-01-07T00:00:00	2024-11-06T23:00:00	8	Radiación solar	0
105017	7	Sololá	702	San José Chacayá	5	Chacayá	7	Julio	2023-02-07T00:00:00	2024-11-06T00:00:00	2	Temperatura media	12.5
105018	7	Sololá	702	San José Chacayá	5	Chacayá	7	Julio	2023-02-07T00:00:00	2024-11-06T00:00:00	4	Temperatura máxima	12.8
105019	7	Sololá	702	San José Chacayá	5	Chacayá	7	Julio	2023-02-07T00:00:00	2024-11-06T00:00:00	3	Temperatura mínima	12.5
105020	7	Sololá	702	San José Chacayá	5	Chacayá	7	Julio	2023-02-07T00:00:00	2024-11-06T00:00:00	5	Humedad	95
105021	7	Sololá	702	San José Chacayá	5	Chacayá	7	Julio	2023-02-07T00:00:00	2024-11-06T00:00:00	6	Velocidad del viento	0
105022	7	Sololá	702	San José Chacayá	5	Chacayá	7	Julio	2023-02-07T00:00:00	2024-11-06T00:00:00	7	Dirección del viento	0
105023	7	Sololá	702	San José Chacayá	5	Chacayá	7	Julio	2023-02-07T00:00:00	2024-11-06T00:00:00	1	Precipitación	0
105024	7	Sololá	702	San José Chacayá	5	Chacayá	7	Julio	2023-02-07T00:00:00	2024-11-06T00:00:00	8	Radiación solar	0
105025	7	Sololá	702	San José Chacayá	5	Chacayá	7	Julio	2023-02-07T00:00:00	2024-11-06T01:00:00	2	Temperatura media	12.3
105026	7	Sololá	702	San José Chacayá	5	Chacayá	7	Julio	2023-02-07T00:00:00	2024-11-06T01:00:00	4	Temperatura máxima	12.6
105027	7	Sololá	702	San José Chacayá	5	Chacayá	7	Julio	2023-02-07T00:00:00	2024-11-06T01:00:00	3	Temperatura mínima	12.3
105028	7	Sololá	702	San José Chacayá	5	Chacayá	7	Julio	2023-02-07T00:00:00	2024-11-06T01:00:00	5	Humedad	95
105029	7	Sololá	702	San José Chacayá	5	Chacayá	7	Julio	2023-02-07T00:00:00	2024-11-06T01:00:00	6	Velocidad del viento	0
105030	7	Sololá	702	San José Chacayá	5	Chacayá	7	Julio	2023-02-07T00:00:00	2024-11-06T01:00:00	7	Dirección del viento	0
105031	7	Sololá	702	San José Chacayá	5	Chacayá	7	Julio	2023-02-07T00:00:00	2024-11-06T01:00:00	1	Precipitación	0
105032	7	Sololá	702	San José Chacayá	5	Chacayá	7	Julio	2023-02-07T00:00:00	2024-11-06T01:00:00	8	Radiación solar	0
105033	7	Sololá	702	San José Chacayá	5	Chacayá	7	Julio	2023-02-07T00:00:00	2024-11-06T02:00:00	2	Temperatura media	12.2
105034	7	Sololá	702	San José Chacayá	5	Chacayá	7	Julio	2023-02-07T00:00:00	2024-11-06T02:00:00	4	Temperatura máxima	12.3
105035	7	Sololá	702	San José Chacayá	5	Chacayá	7	Julio	2023-02-07T00:00:00	2024-11-06T02:00:00	3	Temperatura mínima	12.1
105036	7	Sololá	702	San José Chacayá	5	Chacayá	7	Julio	2023-02-07T00:00:00	2024-11-06T02:00:00	5	Humedad	96
105037	7	Sololá	702	San José Chacayá	5	Chacayá	7	Julio	2023-02-07T00:00:00	2024-11-06T02:00:00	6	Velocidad del viento	0
105038	7	Sololá	702	San José Chacayá	5	Chacayá	7	Julio	2023-02-07T00:00:00	2024-11-06T02:00:00	7	Dirección del viento	0
105039	7	Sololá	702	San José Chacayá	5	Chacayá	7	Julio	2023-02-07T00:00:00	2024-11-06T02:00:00	1	Precipitación	0
105040	7	Sololá	702	San José Chacayá	5	Chacayá	7	Julio	2023-02-07T00:00:00	2024-11-06T02:00:00	8	Radiación solar	0
105041	7	Sololá	702	San José Chacayá	5	Chacayá	7	Julio	2023-02-07T00:00:00	2024-11-06T03:00:00	2	Temperatura media	11.6
105042	7	Sololá	702	San José Chacayá	5	Chacayá	7	Julio	2023-02-07T00:00:00	2024-11-06T03:00:00	4	Temperatura máxima	12.2
105043	7	Sololá	702	San José Chacayá	5	Chacayá	7	Julio	2023-02-07T00:00:00	2024-11-06T03:00:00	3	Temperatura mínima	11.6
105044	7	Sololá	702	San José Chacayá	5	Chacayá	7	Julio	2023-02-07T00:00:00	2024-11-06T03:00:00	5	Humedad	94
105045	7	Sololá	702	San José Chacayá	5	Chacayá	7	Julio	2023-02-07T00:00:00	2024-11-06T03:00:00	6	Velocidad del viento	0
105046	7	Sololá	702	San José Chacayá	5	Chacayá	7	Julio	2023-02-07T00:00:00	2024-11-06T03:00:00	7	Dirección del viento	0
105047	7	Sololá	702	San José Chacayá	5	Chacayá	7	Julio	2023-02-07T00:00:00	2024-11-06T03:00:00	1	Precipitación	0
105048	7	Sololá	702	San José Chacayá	5	Chacayá	7	Julio	2023-02-07T00:00:00	2024-11-06T03:00:00	8	Radiación solar	0
105049	7	Sololá	702	San José Chacayá	5	Chacayá	7	Julio	2023-02-07T00:00:00	2024-11-06T04:00:00	2	Temperatura media	10.8
105050	7	Sololá	702	San José Chacayá	5	Chacayá	7	Julio	2023-02-07T00:00:00	2024-11-06T04:00:00	4	Temperatura máxima	11.6
105051	7	Sololá	702	San José Chacayá	5	Chacayá	7	Julio	2023-02-07T00:00:00	2024-11-06T04:00:00	3	Temperatura mínima	10.8
105052	7	Sololá	702	San José Chacayá	5	Chacayá	7	Julio	2023-02-07T00:00:00	2024-11-06T04:00:00	5	Humedad	95
105053	7	Sololá	702	San José Chacayá	5	Chacayá	7	Julio	2023-02-07T00:00:00	2024-11-06T04:00:00	6	Velocidad del viento	0
105054	7	Sololá	702	San José Chacayá	5	Chacayá	7	Julio	2023-02-07T00:00:00	2024-11-06T04:00:00	7	Dirección del viento	0
105055	7	Sololá	702	San José Chacayá	5	Chacayá	7	Julio	2023-02-07T00:00:00	2024-11-06T04:00:00	1	Precipitación	0
105056	7	Sololá	702	San José Chacayá	5	Chacayá	7	Julio	2023-02-07T00:00:00	2024-11-06T04:00:00	8	Radiación solar	0
105057	7	Sololá	702	San José Chacayá	5	Chacayá	7	Julio	2023-02-07T00:00:00	2024-11-06T05:00:00	2	Temperatura media	10.2
105058	7	Sololá	702	San José Chacayá	5	Chacayá	7	Julio	2023-02-07T00:00:00	2024-11-06T05:00:00	4	Temperatura máxima	10.8
105059	7	Sololá	702	San José Chacayá	5	Chacayá	7	Julio	2023-02-07T00:00:00	2024-11-06T05:00:00	3	Temperatura mínima	10.2
105060	7	Sololá	702	San José Chacayá	5	Chacayá	7	Julio	2023-02-07T00:00:00	2024-11-06T05:00:00	5	Humedad	95
105061	7	Sololá	702	San José Chacayá	5	Chacayá	7	Julio	2023-02-07T00:00:00	2024-11-06T05:00:00	6	Velocidad del viento	0
105062	7	Sololá	702	San José Chacayá	5	Chacayá	7	Julio	2023-02-07T00:00:00	2024-11-06T05:00:00	7	Dirección del viento	0
105063	7	Sololá	702	San José Chacayá	5	Chacayá	7	Julio	2023-02-07T00:00:00	2024-11-06T05:00:00	1	Precipitación	0
105064	7	Sololá	702	San José Chacayá	5	Chacayá	7	Julio	2023-02-07T00:00:00	2024-11-06T05:00:00	8	Radiación solar	0
105065	7	Sololá	702	San José Chacayá	5	Chacayá	7	Julio	2023-02-07T00:00:00	2024-11-06T06:00:00	2	Temperatura media	10.4
105066	7	Sololá	702	San José Chacayá	5	Chacayá	7	Julio	2023-02-07T00:00:00	2024-11-06T06:00:00	4	Temperatura máxima	10.4
105067	7	Sololá	702	San José Chacayá	5	Chacayá	7	Julio	2023-02-07T00:00:00	2024-11-06T06:00:00	3	Temperatura mínima	10.2
105068	7	Sololá	702	San José Chacayá	5	Chacayá	7	Julio	2023-02-07T00:00:00	2024-11-06T06:00:00	5	Humedad	96
105069	7	Sololá	702	San José Chacayá	5	Chacayá	7	Julio	2023-02-07T00:00:00	2024-11-06T06:00:00	6	Velocidad del viento	0
105070	7	Sololá	702	San José Chacayá	5	Chacayá	7	Julio	2023-02-07T00:00:00	2024-11-06T06:00:00	7	Dirección del viento	0
105071	7	Sololá	702	San José Chacayá	5	Chacayá	7	Julio	2023-02-07T00:00:00	2024-11-06T06:00:00	1	Precipitación	0
105072	7	Sololá	702	San José Chacayá	5	Chacayá	7	Julio	2023-02-07T00:00:00	2024-11-06T06:00:00	8	Radiación solar	0
105073	7	Sololá	702	San José Chacayá	5	Chacayá	7	Julio	2023-02-07T00:00:00	2024-11-06T07:00:00	2	Temperatura media	12.2
105074	7	Sololá	702	San José Chacayá	5	Chacayá	7	Julio	2023-02-07T00:00:00	2024-11-06T07:00:00	4	Temperatura máxima	12.2
105075	7	Sololá	702	San José Chacayá	5	Chacayá	7	Julio	2023-02-07T00:00:00	2024-11-06T07:00:00	3	Temperatura mínima	10.4
105076	7	Sololá	702	San José Chacayá	5	Chacayá	7	Julio	2023-02-07T00:00:00	2024-11-06T07:00:00	5	Humedad	94
105077	7	Sololá	702	San José Chacayá	5	Chacayá	7	Julio	2023-02-07T00:00:00	2024-11-06T07:00:00	6	Velocidad del viento	0
105078	7	Sololá	702	San José Chacayá	5	Chacayá	7	Julio	2023-02-07T00:00:00	2024-11-06T07:00:00	7	Dirección del viento	0
105079	7	Sololá	702	San José Chacayá	5	Chacayá	7	Julio	2023-02-07T00:00:00	2024-11-06T07:00:00	1	Precipitación	0
105080	7	Sololá	702	San José Chacayá	5	Chacayá	7	Julio	2023-02-07T00:00:00	2024-11-06T07:00:00	8	Radiación solar	43
105081	7	Sololá	702	San José Chacayá	5	Chacayá	7	Julio	2023-02-07T00:00:00	2024-11-06T08:00:00	2	Temperatura media	16.8
105082	7	Sololá	702	San José Chacayá	5	Chacayá	7	Julio	2023-02-07T00:00:00	2024-11-06T08:00:00	4	Temperatura máxima	16.8
105083	7	Sololá	702	San José Chacayá	5	Chacayá	7	Julio	2023-02-07T00:00:00	2024-11-06T08:00:00	3	Temperatura mínima	12.1
105084	7	Sololá	702	San José Chacayá	5	Chacayá	7	Julio	2023-02-07T00:00:00	2024-11-06T08:00:00	5	Humedad	79
105085	7	Sololá	702	San José Chacayá	5	Chacayá	7	Julio	2023-02-07T00:00:00	2024-11-06T08:00:00	6	Velocidad del viento	0
105086	7	Sololá	702	San José Chacayá	5	Chacayá	7	Julio	2023-02-07T00:00:00	2024-11-06T08:00:00	7	Dirección del viento	0
105087	7	Sololá	702	San José Chacayá	5	Chacayá	7	Julio	2023-02-07T00:00:00	2024-11-06T08:00:00	1	Precipitación	0
105088	7	Sololá	702	San José Chacayá	5	Chacayá	7	Julio	2023-02-07T00:00:00	2024-11-06T08:00:00	8	Radiación solar	191
105089	7	Sololá	702	San José Chacayá	5	Chacayá	7	Julio	2023-02-07T00:00:00	2024-11-06T09:00:00	2	Temperatura media	19.7
105090	7	Sololá	702	San José Chacayá	5	Chacayá	7	Julio	2023-02-07T00:00:00	2024-11-06T09:00:00	4	Temperatura máxima	19.7
105091	7	Sololá	702	San José Chacayá	5	Chacayá	7	Julio	2023-02-07T00:00:00	2024-11-06T09:00:00	3	Temperatura mínima	16.8
105092	7	Sololá	702	San José Chacayá	5	Chacayá	7	Julio	2023-02-07T00:00:00	2024-11-06T09:00:00	5	Humedad	64
105093	7	Sololá	702	San José Chacayá	5	Chacayá	7	Julio	2023-02-07T00:00:00	2024-11-06T09:00:00	6	Velocidad del viento	1.6
105094	7	Sololá	702	San José Chacayá	5	Chacayá	7	Julio	2023-02-07T00:00:00	2024-11-06T09:00:00	7	Dirección del viento	1.61
105095	7	Sololá	702	San José Chacayá	5	Chacayá	7	Julio	2023-02-07T00:00:00	2024-11-06T09:00:00	1	Precipitación	0.2
105096	7	Sololá	702	San José Chacayá	5	Chacayá	7	Julio	2023-02-07T00:00:00	2024-11-06T09:00:00	8	Radiación solar	397
105097	7	Sololá	702	San José Chacayá	5	Chacayá	7	Julio	2023-02-07T00:00:00	2024-11-06T10:00:00	2	Temperatura media	19.8
105098	7	Sololá	702	San José Chacayá	5	Chacayá	7	Julio	2023-02-07T00:00:00	2024-11-06T10:00:00	4	Temperatura máxima	20
105099	7	Sololá	702	San José Chacayá	5	Chacayá	7	Julio	2023-02-07T00:00:00	2024-11-06T10:00:00	3	Temperatura mínima	19.4
105100	7	Sololá	702	San José Chacayá	5	Chacayá	7	Julio	2023-02-07T00:00:00	2024-11-06T10:00:00	5	Humedad	70
105101	7	Sololá	702	San José Chacayá	5	Chacayá	7	Julio	2023-02-07T00:00:00	2024-11-06T10:00:00	6	Velocidad del viento	4.8
105102	7	Sololá	702	San José Chacayá	5	Chacayá	7	Julio	2023-02-07T00:00:00	2024-11-06T10:00:00	7	Dirección del viento	4.83
105103	7	Sololá	702	San José Chacayá	5	Chacayá	7	Julio	2023-02-07T00:00:00	2024-11-06T10:00:00	1	Precipitación	0
105104	7	Sololá	702	San José Chacayá	5	Chacayá	7	Julio	2023-02-07T00:00:00	2024-11-06T10:00:00	8	Radiación solar	417
105105	7	Sololá	702	San José Chacayá	5	Chacayá	7	Julio	2023-02-07T00:00:00	2024-11-06T11:00:00	2	Temperatura media	19.3
105106	7	Sololá	702	San José Chacayá	5	Chacayá	7	Julio	2023-02-07T00:00:00	2024-11-06T11:00:00	4	Temperatura máxima	19.8
105107	7	Sololá	702	San José Chacayá	5	Chacayá	7	Julio	2023-02-07T00:00:00	2024-11-06T11:00:00	3	Temperatura mínima	19.1
105108	7	Sololá	702	San José Chacayá	5	Chacayá	7	Julio	2023-02-07T00:00:00	2024-11-06T11:00:00	5	Humedad	77
105109	7	Sololá	702	San José Chacayá	5	Chacayá	7	Julio	2023-02-07T00:00:00	2024-11-06T11:00:00	6	Velocidad del viento	1.6
105110	7	Sololá	702	San José Chacayá	5	Chacayá	7	Julio	2023-02-07T00:00:00	2024-11-06T11:00:00	7	Dirección del viento	1.61
105111	7	Sololá	702	San José Chacayá	5	Chacayá	7	Julio	2023-02-07T00:00:00	2024-11-06T11:00:00	1	Precipitación	0
105112	7	Sololá	702	San José Chacayá	5	Chacayá	7	Julio	2023-02-07T00:00:00	2024-11-06T11:00:00	8	Radiación solar	633
105113	7	Sololá	702	San José Chacayá	5	Chacayá	7	Julio	2023-02-07T00:00:00	2024-11-06T12:00:00	2	Temperatura media	18.6
105114	7	Sololá	702	San José Chacayá	5	Chacayá	7	Julio	2023-02-07T00:00:00	2024-11-06T12:00:00	4	Temperatura máxima	19.3
105115	7	Sololá	702	San José Chacayá	5	Chacayá	7	Julio	2023-02-07T00:00:00	2024-11-06T12:00:00	3	Temperatura mínima	17.4
105116	7	Sololá	702	San José Chacayá	5	Chacayá	7	Julio	2023-02-07T00:00:00	2024-11-06T12:00:00	5	Humedad	82
105117	7	Sololá	702	San José Chacayá	5	Chacayá	7	Julio	2023-02-07T00:00:00	2024-11-06T12:00:00	6	Velocidad del viento	1.6
105118	7	Sololá	702	San José Chacayá	5	Chacayá	7	Julio	2023-02-07T00:00:00	2024-11-06T12:00:00	7	Dirección del viento	1.61
105119	7	Sololá	702	San José Chacayá	5	Chacayá	7	Julio	2023-02-07T00:00:00	2024-11-06T12:00:00	1	Precipitación	0
105120	7	Sololá	702	San José Chacayá	5	Chacayá	7	Julio	2023-02-07T00:00:00	2024-11-06T12:00:00	8	Radiación solar	510
105121	7	Sololá	702	San José Chacayá	5	Chacayá	7	Julio	2023-02-07T00:00:00	2024-11-06T13:00:00	2	Temperatura media	17.9
105122	7	Sololá	702	San José Chacayá	5	Chacayá	7	Julio	2023-02-07T00:00:00	2024-11-06T13:00:00	4	Temperatura máxima	18.7
105123	7	Sololá	702	San José Chacayá	5	Chacayá	7	Julio	2023-02-07T00:00:00	2024-11-06T13:00:00	3	Temperatura mínima	17.2
105124	7	Sololá	702	San José Chacayá	5	Chacayá	7	Julio	2023-02-07T00:00:00	2024-11-06T13:00:00	5	Humedad	85
105125	7	Sololá	702	San José Chacayá	5	Chacayá	7	Julio	2023-02-07T00:00:00	2024-11-06T13:00:00	6	Velocidad del viento	3.2
105126	7	Sololá	702	San José Chacayá	5	Chacayá	7	Julio	2023-02-07T00:00:00	2024-11-06T13:00:00	7	Dirección del viento	3.22
105127	7	Sololá	702	San José Chacayá	5	Chacayá	7	Julio	2023-02-07T00:00:00	2024-11-06T13:00:00	1	Precipitación	0
105128	7	Sololá	702	San José Chacayá	5	Chacayá	7	Julio	2023-02-07T00:00:00	2024-11-06T13:00:00	8	Radiación solar	540
105129	7	Sololá	702	San José Chacayá	5	Chacayá	7	Julio	2023-02-07T00:00:00	2024-11-06T14:00:00	2	Temperatura media	18.1
105130	7	Sololá	702	San José Chacayá	5	Chacayá	7	Julio	2023-02-07T00:00:00	2024-11-06T14:00:00	4	Temperatura máxima	18.1
105131	7	Sololá	702	San José Chacayá	5	Chacayá	7	Julio	2023-02-07T00:00:00	2024-11-06T14:00:00	3	Temperatura mínima	17
105132	7	Sololá	702	San José Chacayá	5	Chacayá	7	Julio	2023-02-07T00:00:00	2024-11-06T14:00:00	5	Humedad	83
105133	7	Sololá	702	San José Chacayá	5	Chacayá	7	Julio	2023-02-07T00:00:00	2024-11-06T14:00:00	6	Velocidad del viento	3.2
105134	7	Sololá	702	San José Chacayá	5	Chacayá	7	Julio	2023-02-07T00:00:00	2024-11-06T14:00:00	7	Dirección del viento	3.22
105135	7	Sololá	702	San José Chacayá	5	Chacayá	7	Julio	2023-02-07T00:00:00	2024-11-06T14:00:00	1	Precipitación	0
105136	7	Sololá	702	San José Chacayá	5	Chacayá	7	Julio	2023-02-07T00:00:00	2024-11-06T14:00:00	8	Radiación solar	755
105137	7	Sololá	702	San José Chacayá	5	Chacayá	7	Julio	2023-02-07T00:00:00	2024-11-06T15:00:00	2	Temperatura media	15.8
105138	7	Sololá	702	San José Chacayá	5	Chacayá	7	Julio	2023-02-07T00:00:00	2024-11-06T15:00:00	4	Temperatura máxima	18.2
105139	7	Sololá	702	San José Chacayá	5	Chacayá	7	Julio	2023-02-07T00:00:00	2024-11-06T15:00:00	3	Temperatura mínima	15.6
105140	7	Sololá	702	San José Chacayá	5	Chacayá	7	Julio	2023-02-07T00:00:00	2024-11-06T15:00:00	5	Humedad	89
105141	7	Sololá	702	San José Chacayá	5	Chacayá	7	Julio	2023-02-07T00:00:00	2024-11-06T15:00:00	6	Velocidad del viento	4.8
105142	7	Sololá	702	San José Chacayá	5	Chacayá	7	Julio	2023-02-07T00:00:00	2024-11-06T15:00:00	7	Dirección del viento	4.83
105143	7	Sololá	702	San José Chacayá	5	Chacayá	7	Julio	2023-02-07T00:00:00	2024-11-06T15:00:00	1	Precipitación	0
105144	7	Sololá	702	San José Chacayá	5	Chacayá	7	Julio	2023-02-07T00:00:00	2024-11-06T15:00:00	8	Radiación solar	431
105145	7	Sololá	702	San José Chacayá	5	Chacayá	7	Julio	2023-02-07T00:00:00	2024-11-06T16:00:00	2	Temperatura media	15.7
105146	7	Sololá	702	San José Chacayá	5	Chacayá	7	Julio	2023-02-07T00:00:00	2024-11-06T16:00:00	4	Temperatura máxima	16.2
105147	7	Sololá	702	San José Chacayá	5	Chacayá	7	Julio	2023-02-07T00:00:00	2024-11-06T16:00:00	3	Temperatura mínima	15.7
105148	7	Sololá	702	San José Chacayá	5	Chacayá	7	Julio	2023-02-07T00:00:00	2024-11-06T16:00:00	5	Humedad	91
105149	7	Sololá	702	San José Chacayá	5	Chacayá	7	Julio	2023-02-07T00:00:00	2024-11-06T16:00:00	6	Velocidad del viento	1.6
105150	7	Sololá	702	San José Chacayá	5	Chacayá	7	Julio	2023-02-07T00:00:00	2024-11-06T16:00:00	7	Dirección del viento	1.61
105151	7	Sololá	702	San José Chacayá	5	Chacayá	7	Julio	2023-02-07T00:00:00	2024-11-06T16:00:00	1	Precipitación	0.8
105152	7	Sololá	702	San José Chacayá	5	Chacayá	7	Julio	2023-02-07T00:00:00	2024-11-06T16:00:00	8	Radiación solar	646
105153	7	Sololá	702	San José Chacayá	5	Chacayá	7	Julio	2023-02-07T00:00:00	2024-11-06T17:00:00	2	Temperatura media	16.4
105154	7	Sololá	702	San José Chacayá	5	Chacayá	7	Julio	2023-02-07T00:00:00	2024-11-06T17:00:00	4	Temperatura máxima	16.4
105155	7	Sololá	702	San José Chacayá	5	Chacayá	7	Julio	2023-02-07T00:00:00	2024-11-06T17:00:00	3	Temperatura mínima	15.6
105156	7	Sololá	702	San José Chacayá	5	Chacayá	7	Julio	2023-02-07T00:00:00	2024-11-06T17:00:00	5	Humedad	88
105157	7	Sololá	702	San José Chacayá	5	Chacayá	7	Julio	2023-02-07T00:00:00	2024-11-06T17:00:00	6	Velocidad del viento	0
105158	7	Sololá	702	San José Chacayá	5	Chacayá	7	Julio	2023-02-07T00:00:00	2024-11-06T17:00:00	7	Dirección del viento	0
105159	7	Sololá	702	San José Chacayá	5	Chacayá	7	Julio	2023-02-07T00:00:00	2024-11-06T17:00:00	1	Precipitación	0
105160	7	Sololá	702	San José Chacayá	5	Chacayá	7	Julio	2023-02-07T00:00:00	2024-11-06T17:00:00	8	Radiación solar	162
105161	7	Sololá	702	San José Chacayá	5	Chacayá	7	Julio	2023-02-07T00:00:00	2024-11-06T18:00:00	2	Temperatura media	15.4
105162	7	Sololá	702	San José Chacayá	5	Chacayá	7	Julio	2023-02-07T00:00:00	2024-11-06T18:00:00	4	Temperatura máxima	16.4
105163	7	Sololá	702	San José Chacayá	5	Chacayá	7	Julio	2023-02-07T00:00:00	2024-11-06T18:00:00	3	Temperatura mínima	15.4
105164	7	Sololá	702	San José Chacayá	5	Chacayá	7	Julio	2023-02-07T00:00:00	2024-11-06T18:00:00	5	Humedad	92
105165	7	Sololá	702	San José Chacayá	5	Chacayá	7	Julio	2023-02-07T00:00:00	2024-11-06T18:00:00	6	Velocidad del viento	0
105166	7	Sololá	702	San José Chacayá	5	Chacayá	7	Julio	2023-02-07T00:00:00	2024-11-06T18:00:00	7	Dirección del viento	0
105167	7	Sololá	702	San José Chacayá	5	Chacayá	7	Julio	2023-02-07T00:00:00	2024-11-06T18:00:00	1	Precipitación	0
105168	7	Sololá	702	San José Chacayá	5	Chacayá	7	Julio	2023-02-07T00:00:00	2024-11-06T18:00:00	8	Radiación solar	44
105169	7	Sololá	702	San José Chacayá	5	Chacayá	7	Julio	2023-02-07T00:00:00	2024-11-06T19:00:00	2	Temperatura media	14.8
105170	7	Sololá	702	San José Chacayá	5	Chacayá	7	Julio	2023-02-07T00:00:00	2024-11-06T19:00:00	4	Temperatura máxima	15.4
105171	7	Sololá	702	San José Chacayá	5	Chacayá	7	Julio	2023-02-07T00:00:00	2024-11-06T19:00:00	3	Temperatura mínima	14.8
105172	7	Sololá	702	San José Chacayá	5	Chacayá	7	Julio	2023-02-07T00:00:00	2024-11-06T19:00:00	5	Humedad	94
105173	7	Sololá	702	San José Chacayá	5	Chacayá	7	Julio	2023-02-07T00:00:00	2024-11-06T19:00:00	6	Velocidad del viento	0
105174	7	Sololá	702	San José Chacayá	5	Chacayá	7	Julio	2023-02-07T00:00:00	2024-11-06T19:00:00	7	Dirección del viento	0
105175	7	Sololá	702	San José Chacayá	5	Chacayá	7	Julio	2023-02-07T00:00:00	2024-11-06T19:00:00	1	Precipitación	3.6
105176	7	Sololá	702	San José Chacayá	5	Chacayá	7	Julio	2023-02-07T00:00:00	2024-11-06T19:00:00	8	Radiación solar	0
105177	7	Sololá	702	San José Chacayá	5	Chacayá	7	Julio	2023-02-07T00:00:00	2024-11-06T20:00:00	2	Temperatura media	14.7
105178	7	Sololá	702	San José Chacayá	5	Chacayá	7	Julio	2023-02-07T00:00:00	2024-11-06T20:00:00	4	Temperatura máxima	14.8
105179	7	Sololá	702	San José Chacayá	5	Chacayá	7	Julio	2023-02-07T00:00:00	2024-11-06T20:00:00	3	Temperatura mínima	14.7
105180	7	Sololá	702	San José Chacayá	5	Chacayá	7	Julio	2023-02-07T00:00:00	2024-11-06T20:00:00	5	Humedad	95
105181	7	Sololá	702	San José Chacayá	5	Chacayá	7	Julio	2023-02-07T00:00:00	2024-11-06T20:00:00	6	Velocidad del viento	0
105182	7	Sololá	702	San José Chacayá	5	Chacayá	7	Julio	2023-02-07T00:00:00	2024-11-06T20:00:00	7	Dirección del viento	0
105183	7	Sololá	702	San José Chacayá	5	Chacayá	7	Julio	2023-02-07T00:00:00	2024-11-06T20:00:00	1	Precipitación	4
105184	7	Sololá	702	San José Chacayá	5	Chacayá	7	Julio	2023-02-07T00:00:00	2024-11-06T20:00:00	8	Radiación solar	0
105185	7	Sololá	702	San José Chacayá	5	Chacayá	7	Julio	2023-02-07T00:00:00	2024-11-06T21:00:00	2	Temperatura media	14.6
105186	7	Sololá	702	San José Chacayá	5	Chacayá	7	Julio	2023-02-07T00:00:00	2024-11-06T21:00:00	4	Temperatura máxima	14.7
105187	7	Sololá	702	San José Chacayá	5	Chacayá	7	Julio	2023-02-07T00:00:00	2024-11-06T21:00:00	3	Temperatura mínima	14.5
105188	7	Sololá	702	San José Chacayá	5	Chacayá	7	Julio	2023-02-07T00:00:00	2024-11-06T21:00:00	5	Humedad	95
105189	7	Sololá	702	San José Chacayá	5	Chacayá	7	Julio	2023-02-07T00:00:00	2024-11-06T21:00:00	6	Velocidad del viento	0
105190	7	Sololá	702	San José Chacayá	5	Chacayá	7	Julio	2023-02-07T00:00:00	2024-11-06T21:00:00	7	Dirección del viento	0
105191	7	Sololá	702	San José Chacayá	5	Chacayá	7	Julio	2023-02-07T00:00:00	2024-11-06T21:00:00	1	Precipitación	0
105192	7	Sololá	702	San José Chacayá	5	Chacayá	7	Julio	2023-02-07T00:00:00	2024-11-06T21:00:00	8	Radiación solar	0
105193	7	Sololá	702	San José Chacayá	5	Chacayá	7	Julio	2023-02-07T00:00:00	2024-11-06T22:00:00	2	Temperatura media	14.1
105194	7	Sololá	702	San José Chacayá	5	Chacayá	7	Julio	2023-02-07T00:00:00	2024-11-06T22:00:00	4	Temperatura máxima	14.6
105195	7	Sololá	702	San José Chacayá	5	Chacayá	7	Julio	2023-02-07T00:00:00	2024-11-06T22:00:00	3	Temperatura mínima	14.1
105196	7	Sololá	702	San José Chacayá	5	Chacayá	7	Julio	2023-02-07T00:00:00	2024-11-06T22:00:00	5	Humedad	94
105197	7	Sololá	702	San José Chacayá	5	Chacayá	7	Julio	2023-02-07T00:00:00	2024-11-06T22:00:00	6	Velocidad del viento	0
105198	7	Sololá	702	San José Chacayá	5	Chacayá	7	Julio	2023-02-07T00:00:00	2024-11-06T22:00:00	7	Dirección del viento	0
105199	7	Sololá	702	San José Chacayá	5	Chacayá	7	Julio	2023-02-07T00:00:00	2024-11-06T22:00:00	1	Precipitación	0
105200	7	Sololá	702	San José Chacayá	5	Chacayá	7	Julio	2023-02-07T00:00:00	2024-11-06T22:00:00	8	Radiación solar	0
105201	7	Sololá	702	San José Chacayá	5	Chacayá	7	Julio	2023-02-07T00:00:00	2024-11-06T23:00:00	2	Temperatura media	13.9
105202	7	Sololá	702	San José Chacayá	5	Chacayá	7	Julio	2023-02-07T00:00:00	2024-11-06T23:00:00	4	Temperatura máxima	14.1
105203	7	Sololá	702	San José Chacayá	5	Chacayá	7	Julio	2023-02-07T00:00:00	2024-11-06T23:00:00	3	Temperatura mínima	13.9
105204	7	Sololá	702	San José Chacayá	5	Chacayá	7	Julio	2023-02-07T00:00:00	2024-11-06T23:00:00	5	Humedad	95
105205	7	Sololá	702	San José Chacayá	5	Chacayá	7	Julio	2023-02-07T00:00:00	2024-11-06T23:00:00	6	Velocidad del viento	0
105206	7	Sololá	702	San José Chacayá	5	Chacayá	7	Julio	2023-02-07T00:00:00	2024-11-06T23:00:00	7	Dirección del viento	0
105207	7	Sololá	702	San José Chacayá	5	Chacayá	7	Julio	2023-02-07T00:00:00	2024-11-06T23:00:00	1	Precipitación	0
105208	7	Sololá	702	San José Chacayá	5	Chacayá	7	Julio	2023-02-07T00:00:00	2024-11-06T23:00:00	8	Radiación solar	0
105209	7	Sololá	702	San José Chacayá	5	Chacayá	7	Julio	2023-03-07T00:00:00	2024-11-06T00:00:00	2	Temperatura media	13.9
105210	7	Sololá	702	San José Chacayá	5	Chacayá	7	Julio	2023-03-07T00:00:00	2024-11-06T00:00:00	4	Temperatura máxima	14
105211	7	Sololá	702	San José Chacayá	5	Chacayá	7	Julio	2023-03-07T00:00:00	2024-11-06T00:00:00	3	Temperatura mínima	13.9
105212	7	Sololá	702	San José Chacayá	5	Chacayá	7	Julio	2023-03-07T00:00:00	2024-11-06T00:00:00	5	Humedad	96
105213	7	Sololá	702	San José Chacayá	5	Chacayá	7	Julio	2023-03-07T00:00:00	2024-11-06T00:00:00	6	Velocidad del viento	0
105214	7	Sololá	702	San José Chacayá	5	Chacayá	7	Julio	2023-03-07T00:00:00	2024-11-06T00:00:00	7	Dirección del viento	0
105215	7	Sololá	702	San José Chacayá	5	Chacayá	7	Julio	2023-03-07T00:00:00	2024-11-06T00:00:00	1	Precipitación	0
105216	7	Sololá	702	San José Chacayá	5	Chacayá	7	Julio	2023-03-07T00:00:00	2024-11-06T00:00:00	8	Radiación solar	0
105217	7	Sololá	702	San José Chacayá	5	Chacayá	7	Julio	2023-03-07T00:00:00	2024-11-06T01:00:00	2	Temperatura media	13.7
105218	7	Sololá	702	San José Chacayá	5	Chacayá	7	Julio	2023-03-07T00:00:00	2024-11-06T01:00:00	4	Temperatura máxima	13.9
105219	7	Sololá	702	San José Chacayá	5	Chacayá	7	Julio	2023-03-07T00:00:00	2024-11-06T01:00:00	3	Temperatura mínima	13.7
105220	7	Sololá	702	San José Chacayá	5	Chacayá	7	Julio	2023-03-07T00:00:00	2024-11-06T01:00:00	5	Humedad	95
105221	7	Sololá	702	San José Chacayá	5	Chacayá	7	Julio	2023-03-07T00:00:00	2024-11-06T01:00:00	6	Velocidad del viento	0
105222	7	Sololá	702	San José Chacayá	5	Chacayá	7	Julio	2023-03-07T00:00:00	2024-11-06T01:00:00	7	Dirección del viento	0
105223	7	Sololá	702	San José Chacayá	5	Chacayá	7	Julio	2023-03-07T00:00:00	2024-11-06T01:00:00	1	Precipitación	0
105224	7	Sololá	702	San José Chacayá	5	Chacayá	7	Julio	2023-03-07T00:00:00	2024-11-06T01:00:00	8	Radiación solar	0
105225	7	Sololá	702	San José Chacayá	5	Chacayá	7	Julio	2023-03-07T00:00:00	2024-11-06T02:00:00	2	Temperatura media	13.7
105226	7	Sololá	702	San José Chacayá	5	Chacayá	7	Julio	2023-03-07T00:00:00	2024-11-06T02:00:00	4	Temperatura máxima	13.7
105227	7	Sololá	702	San José Chacayá	5	Chacayá	7	Julio	2023-03-07T00:00:00	2024-11-06T02:00:00	3	Temperatura mínima	13.6
105228	7	Sololá	702	San José Chacayá	5	Chacayá	7	Julio	2023-03-07T00:00:00	2024-11-06T02:00:00	5	Humedad	96
105229	7	Sololá	702	San José Chacayá	5	Chacayá	7	Julio	2023-03-07T00:00:00	2024-11-06T02:00:00	6	Velocidad del viento	0
105230	7	Sololá	702	San José Chacayá	5	Chacayá	7	Julio	2023-03-07T00:00:00	2024-11-06T02:00:00	7	Dirección del viento	0
105231	7	Sololá	702	San José Chacayá	5	Chacayá	7	Julio	2023-03-07T00:00:00	2024-11-06T02:00:00	1	Precipitación	0
105232	7	Sololá	702	San José Chacayá	5	Chacayá	7	Julio	2023-03-07T00:00:00	2024-11-06T02:00:00	8	Radiación solar	0
105233	7	Sololá	702	San José Chacayá	5	Chacayá	7	Julio	2023-03-07T00:00:00	2024-11-06T03:00:00	2	Temperatura media	13.6
105234	7	Sololá	702	San José Chacayá	5	Chacayá	7	Julio	2023-03-07T00:00:00	2024-11-06T03:00:00	4	Temperatura máxima	13.7
105235	7	Sololá	702	San José Chacayá	5	Chacayá	7	Julio	2023-03-07T00:00:00	2024-11-06T03:00:00	3	Temperatura mínima	13.6
105236	7	Sololá	702	San José Chacayá	5	Chacayá	7	Julio	2023-03-07T00:00:00	2024-11-06T03:00:00	5	Humedad	96
105237	7	Sololá	702	San José Chacayá	5	Chacayá	7	Julio	2023-03-07T00:00:00	2024-11-06T03:00:00	6	Velocidad del viento	0
105238	7	Sololá	702	San José Chacayá	5	Chacayá	7	Julio	2023-03-07T00:00:00	2024-11-06T03:00:00	7	Dirección del viento	0
105239	7	Sololá	702	San José Chacayá	5	Chacayá	7	Julio	2023-03-07T00:00:00	2024-11-06T03:00:00	1	Precipitación	0
105240	7	Sololá	702	San José Chacayá	5	Chacayá	7	Julio	2023-03-07T00:00:00	2024-11-06T03:00:00	8	Radiación solar	0
105241	7	Sololá	702	San José Chacayá	5	Chacayá	7	Julio	2023-03-07T00:00:00	2024-11-06T04:00:00	2	Temperatura media	13.6
105242	7	Sololá	702	San José Chacayá	5	Chacayá	7	Julio	2023-03-07T00:00:00	2024-11-06T04:00:00	4	Temperatura máxima	13.7
105243	7	Sololá	702	San José Chacayá	5	Chacayá	7	Julio	2023-03-07T00:00:00	2024-11-06T04:00:00	3	Temperatura mínima	13.6
105244	7	Sololá	702	San José Chacayá	5	Chacayá	7	Julio	2023-03-07T00:00:00	2024-11-06T04:00:00	5	Humedad	96
105245	7	Sololá	702	San José Chacayá	5	Chacayá	7	Julio	2023-03-07T00:00:00	2024-11-06T04:00:00	6	Velocidad del viento	0
105246	7	Sololá	702	San José Chacayá	5	Chacayá	7	Julio	2023-03-07T00:00:00	2024-11-06T04:00:00	7	Dirección del viento	0
105247	7	Sololá	702	San José Chacayá	5	Chacayá	7	Julio	2023-03-07T00:00:00	2024-11-06T04:00:00	1	Precipitación	0
105248	7	Sololá	702	San José Chacayá	5	Chacayá	7	Julio	2023-03-07T00:00:00	2024-11-06T04:00:00	8	Radiación solar	0
105249	7	Sololá	702	San José Chacayá	5	Chacayá	7	Julio	2023-03-07T00:00:00	2024-11-06T05:00:00	2	Temperatura media	13.6
105250	7	Sololá	702	San José Chacayá	5	Chacayá	7	Julio	2023-03-07T00:00:00	2024-11-06T05:00:00	4	Temperatura máxima	13.6
105251	7	Sololá	702	San José Chacayá	5	Chacayá	7	Julio	2023-03-07T00:00:00	2024-11-06T05:00:00	3	Temperatura mínima	13.5
105252	7	Sololá	702	San José Chacayá	5	Chacayá	7	Julio	2023-03-07T00:00:00	2024-11-06T05:00:00	5	Humedad	96
105253	7	Sololá	702	San José Chacayá	5	Chacayá	7	Julio	2023-03-07T00:00:00	2024-11-06T05:00:00	6	Velocidad del viento	0
105254	7	Sololá	702	San José Chacayá	5	Chacayá	7	Julio	2023-03-07T00:00:00	2024-11-06T05:00:00	7	Dirección del viento	0
105255	7	Sololá	702	San José Chacayá	5	Chacayá	7	Julio	2023-03-07T00:00:00	2024-11-06T05:00:00	1	Precipitación	0.8
105256	7	Sololá	702	San José Chacayá	5	Chacayá	7	Julio	2023-03-07T00:00:00	2024-11-06T05:00:00	8	Radiación solar	0
105257	7	Sololá	702	San José Chacayá	5	Chacayá	7	Julio	2023-03-07T00:00:00	2024-11-06T06:00:00	2	Temperatura media	13.8
105258	7	Sololá	702	San José Chacayá	5	Chacayá	7	Julio	2023-03-07T00:00:00	2024-11-06T06:00:00	4	Temperatura máxima	13.8
105259	7	Sololá	702	San José Chacayá	5	Chacayá	7	Julio	2023-03-07T00:00:00	2024-11-06T06:00:00	3	Temperatura mínima	13.6
105260	7	Sololá	702	San José Chacayá	5	Chacayá	7	Julio	2023-03-07T00:00:00	2024-11-06T06:00:00	5	Humedad	97
105261	7	Sololá	702	San José Chacayá	5	Chacayá	7	Julio	2023-03-07T00:00:00	2024-11-06T06:00:00	6	Velocidad del viento	0
105262	7	Sololá	702	San José Chacayá	5	Chacayá	7	Julio	2023-03-07T00:00:00	2024-11-06T06:00:00	7	Dirección del viento	0
105263	7	Sololá	702	San José Chacayá	5	Chacayá	7	Julio	2023-03-07T00:00:00	2024-11-06T06:00:00	1	Precipitación	0.2
105264	7	Sololá	702	San José Chacayá	5	Chacayá	7	Julio	2023-03-07T00:00:00	2024-11-06T06:00:00	8	Radiación solar	3
105265	7	Sololá	702	San José Chacayá	5	Chacayá	7	Julio	2023-03-07T00:00:00	2024-11-06T07:00:00	2	Temperatura media	14.3
105266	7	Sololá	702	San José Chacayá	5	Chacayá	7	Julio	2023-03-07T00:00:00	2024-11-06T07:00:00	4	Temperatura máxima	14.4
105267	7	Sololá	702	San José Chacayá	5	Chacayá	7	Julio	2023-03-07T00:00:00	2024-11-06T07:00:00	3	Temperatura mínima	13.7
105268	7	Sololá	702	San José Chacayá	5	Chacayá	7	Julio	2023-03-07T00:00:00	2024-11-06T07:00:00	5	Humedad	97
105269	7	Sololá	702	San José Chacayá	5	Chacayá	7	Julio	2023-03-07T00:00:00	2024-11-06T07:00:00	6	Velocidad del viento	0
105270	7	Sololá	702	San José Chacayá	5	Chacayá	7	Julio	2023-03-07T00:00:00	2024-11-06T07:00:00	7	Dirección del viento	0
105271	7	Sololá	702	San José Chacayá	5	Chacayá	7	Julio	2023-03-07T00:00:00	2024-11-06T07:00:00	1	Precipitación	0
105272	7	Sololá	702	San José Chacayá	5	Chacayá	7	Julio	2023-03-07T00:00:00	2024-11-06T07:00:00	8	Radiación solar	33
105273	7	Sololá	702	San José Chacayá	5	Chacayá	7	Julio	2023-03-07T00:00:00	2024-11-06T08:00:00	2	Temperatura media	15.4
105274	7	Sololá	702	San José Chacayá	5	Chacayá	7	Julio	2023-03-07T00:00:00	2024-11-06T08:00:00	4	Temperatura máxima	15.4
105275	7	Sololá	702	San José Chacayá	5	Chacayá	7	Julio	2023-03-07T00:00:00	2024-11-06T08:00:00	3	Temperatura mínima	14.3
105276	7	Sololá	702	San José Chacayá	5	Chacayá	7	Julio	2023-03-07T00:00:00	2024-11-06T08:00:00	5	Humedad	92
105277	7	Sololá	702	San José Chacayá	5	Chacayá	7	Julio	2023-03-07T00:00:00	2024-11-06T08:00:00	6	Velocidad del viento	0
105278	7	Sololá	702	San José Chacayá	5	Chacayá	7	Julio	2023-03-07T00:00:00	2024-11-06T08:00:00	7	Dirección del viento	0
105279	7	Sololá	702	San José Chacayá	5	Chacayá	7	Julio	2023-03-07T00:00:00	2024-11-06T08:00:00	1	Precipitación	0
105280	7	Sololá	702	San José Chacayá	5	Chacayá	7	Julio	2023-03-07T00:00:00	2024-11-06T08:00:00	8	Radiación solar	87
105281	7	Sololá	702	San José Chacayá	5	Chacayá	7	Julio	2023-03-07T00:00:00	2024-11-06T09:00:00	2	Temperatura media	17.9
105282	7	Sololá	702	San José Chacayá	5	Chacayá	7	Julio	2023-03-07T00:00:00	2024-11-06T09:00:00	4	Temperatura máxima	17.9
105283	7	Sololá	702	San José Chacayá	5	Chacayá	7	Julio	2023-03-07T00:00:00	2024-11-06T09:00:00	3	Temperatura mínima	15.3
105284	7	Sololá	702	San José Chacayá	5	Chacayá	7	Julio	2023-03-07T00:00:00	2024-11-06T09:00:00	5	Humedad	84
105285	7	Sololá	702	San José Chacayá	5	Chacayá	7	Julio	2023-03-07T00:00:00	2024-11-06T09:00:00	6	Velocidad del viento	0
105286	7	Sololá	702	San José Chacayá	5	Chacayá	7	Julio	2023-03-07T00:00:00	2024-11-06T09:00:00	7	Dirección del viento	0
105287	7	Sololá	702	San José Chacayá	5	Chacayá	7	Julio	2023-03-07T00:00:00	2024-11-06T09:00:00	1	Precipitación	0
105288	7	Sololá	702	San José Chacayá	5	Chacayá	7	Julio	2023-03-07T00:00:00	2024-11-06T09:00:00	8	Radiación solar	533
105289	7	Sololá	702	San José Chacayá	5	Chacayá	7	Julio	2023-03-07T00:00:00	2024-11-06T10:00:00	2	Temperatura media	20.1
105290	7	Sololá	702	San José Chacayá	5	Chacayá	7	Julio	2023-03-07T00:00:00	2024-11-06T10:00:00	4	Temperatura máxima	20.1
105291	7	Sololá	702	San José Chacayá	5	Chacayá	7	Julio	2023-03-07T00:00:00	2024-11-06T10:00:00	3	Temperatura mínima	18
105292	7	Sololá	702	San José Chacayá	5	Chacayá	7	Julio	2023-03-07T00:00:00	2024-11-06T10:00:00	5	Humedad	78
105293	7	Sololá	702	San José Chacayá	5	Chacayá	7	Julio	2023-03-07T00:00:00	2024-11-06T10:00:00	6	Velocidad del viento	3.2
105294	7	Sololá	702	San José Chacayá	5	Chacayá	7	Julio	2023-03-07T00:00:00	2024-11-06T10:00:00	7	Dirección del viento	3.22
105295	7	Sololá	702	San José Chacayá	5	Chacayá	7	Julio	2023-03-07T00:00:00	2024-11-06T10:00:00	1	Precipitación	0
105296	7	Sololá	702	San José Chacayá	5	Chacayá	7	Julio	2023-03-07T00:00:00	2024-11-06T10:00:00	8	Radiación solar	788
105297	7	Sololá	702	San José Chacayá	5	Chacayá	7	Julio	2023-03-07T00:00:00	2024-11-06T11:00:00	2	Temperatura media	19.7
105298	7	Sololá	702	San José Chacayá	5	Chacayá	7	Julio	2023-03-07T00:00:00	2024-11-06T11:00:00	4	Temperatura máxima	20.7
105299	7	Sololá	702	San José Chacayá	5	Chacayá	7	Julio	2023-03-07T00:00:00	2024-11-06T11:00:00	3	Temperatura mínima	19.7
105300	7	Sololá	702	San José Chacayá	5	Chacayá	7	Julio	2023-03-07T00:00:00	2024-11-06T11:00:00	5	Humedad	74
105301	7	Sololá	702	San José Chacayá	5	Chacayá	7	Julio	2023-03-07T00:00:00	2024-11-06T11:00:00	6	Velocidad del viento	4.8
105302	7	Sololá	702	San José Chacayá	5	Chacayá	7	Julio	2023-03-07T00:00:00	2024-11-06T11:00:00	7	Dirección del viento	4.83
105303	7	Sololá	702	San José Chacayá	5	Chacayá	7	Julio	2023-03-07T00:00:00	2024-11-06T11:00:00	1	Precipitación	0
105304	7	Sololá	702	San José Chacayá	5	Chacayá	7	Julio	2023-03-07T00:00:00	2024-11-06T11:00:00	8	Radiación solar	902
105305	7	Sololá	702	San José Chacayá	5	Chacayá	7	Julio	2023-03-07T00:00:00	2024-11-06T12:00:00	2	Temperatura media	18.6
105306	7	Sololá	702	San José Chacayá	5	Chacayá	7	Julio	2023-03-07T00:00:00	2024-11-06T12:00:00	4	Temperatura máxima	20.1
105307	7	Sololá	702	San José Chacayá	5	Chacayá	7	Julio	2023-03-07T00:00:00	2024-11-06T12:00:00	3	Temperatura mínima	18.6
105308	7	Sololá	702	San José Chacayá	5	Chacayá	7	Julio	2023-03-07T00:00:00	2024-11-06T12:00:00	5	Humedad	83
105309	7	Sololá	702	San José Chacayá	5	Chacayá	7	Julio	2023-03-07T00:00:00	2024-11-06T12:00:00	6	Velocidad del viento	4.8
105310	7	Sololá	702	San José Chacayá	5	Chacayá	7	Julio	2023-03-07T00:00:00	2024-11-06T12:00:00	7	Dirección del viento	4.83
105311	7	Sololá	702	San José Chacayá	5	Chacayá	7	Julio	2023-03-07T00:00:00	2024-11-06T12:00:00	1	Precipitación	0
105312	7	Sololá	702	San José Chacayá	5	Chacayá	7	Julio	2023-03-07T00:00:00	2024-11-06T12:00:00	8	Radiación solar	904
105313	7	Sololá	702	San José Chacayá	5	Chacayá	7	Julio	2023-03-07T00:00:00	2024-11-06T13:00:00	2	Temperatura media	20.8
105314	7	Sololá	702	San José Chacayá	5	Chacayá	7	Julio	2023-03-07T00:00:00	2024-11-06T13:00:00	4	Temperatura máxima	20.8
105315	7	Sololá	702	San José Chacayá	5	Chacayá	7	Julio	2023-03-07T00:00:00	2024-11-06T13:00:00	3	Temperatura mínima	18.4
105316	7	Sololá	702	San José Chacayá	5	Chacayá	7	Julio	2023-03-07T00:00:00	2024-11-06T13:00:00	5	Humedad	81
105317	7	Sololá	702	San José Chacayá	5	Chacayá	7	Julio	2023-03-07T00:00:00	2024-11-06T13:00:00	6	Velocidad del viento	3.2
105318	7	Sololá	702	San José Chacayá	5	Chacayá	7	Julio	2023-03-07T00:00:00	2024-11-06T13:00:00	7	Dirección del viento	3.22
105319	7	Sololá	702	San José Chacayá	5	Chacayá	7	Julio	2023-03-07T00:00:00	2024-11-06T13:00:00	1	Precipitación	0
105320	7	Sololá	702	San José Chacayá	5	Chacayá	7	Julio	2023-03-07T00:00:00	2024-11-06T13:00:00	8	Radiación solar	877
105321	7	Sololá	702	San José Chacayá	5	Chacayá	7	Julio	2023-03-07T00:00:00	2024-11-06T14:00:00	2	Temperatura media	18.2
105322	7	Sololá	702	San José Chacayá	5	Chacayá	7	Julio	2023-03-07T00:00:00	2024-11-06T14:00:00	4	Temperatura máxima	21.6
105323	7	Sololá	702	San José Chacayá	5	Chacayá	7	Julio	2023-03-07T00:00:00	2024-11-06T14:00:00	3	Temperatura mínima	18.2
105324	7	Sololá	702	San José Chacayá	5	Chacayá	7	Julio	2023-03-07T00:00:00	2024-11-06T14:00:00	5	Humedad	87
105325	7	Sololá	702	San José Chacayá	5	Chacayá	7	Julio	2023-03-07T00:00:00	2024-11-06T14:00:00	6	Velocidad del viento	3.2
105326	7	Sololá	702	San José Chacayá	5	Chacayá	7	Julio	2023-03-07T00:00:00	2024-11-06T14:00:00	7	Dirección del viento	3.22
105327	7	Sololá	702	San José Chacayá	5	Chacayá	7	Julio	2023-03-07T00:00:00	2024-11-06T14:00:00	1	Precipitación	0
105328	7	Sololá	702	San José Chacayá	5	Chacayá	7	Julio	2023-03-07T00:00:00	2024-11-06T14:00:00	8	Radiación solar	740
105329	7	Sololá	702	San José Chacayá	5	Chacayá	7	Julio	2023-03-07T00:00:00	2024-11-06T15:00:00	2	Temperatura media	17.1
105330	7	Sololá	702	San José Chacayá	5	Chacayá	7	Julio	2023-03-07T00:00:00	2024-11-06T15:00:00	4	Temperatura máxima	18.2
105331	7	Sololá	702	San José Chacayá	5	Chacayá	7	Julio	2023-03-07T00:00:00	2024-11-06T15:00:00	3	Temperatura mínima	17.1
105332	7	Sololá	702	San José Chacayá	5	Chacayá	7	Julio	2023-03-07T00:00:00	2024-11-06T15:00:00	5	Humedad	92
105333	7	Sololá	702	San José Chacayá	5	Chacayá	7	Julio	2023-03-07T00:00:00	2024-11-06T15:00:00	6	Velocidad del viento	1.6
105334	7	Sololá	702	San José Chacayá	5	Chacayá	7	Julio	2023-03-07T00:00:00	2024-11-06T15:00:00	7	Dirección del viento	1.61
105335	7	Sololá	702	San José Chacayá	5	Chacayá	7	Julio	2023-03-07T00:00:00	2024-11-06T15:00:00	1	Precipitación	1
105336	7	Sololá	702	San José Chacayá	5	Chacayá	7	Julio	2023-03-07T00:00:00	2024-11-06T15:00:00	8	Radiación solar	813
105337	7	Sololá	702	San José Chacayá	5	Chacayá	7	Julio	2023-03-07T00:00:00	2024-11-06T16:00:00	2	Temperatura media	17.9
105338	7	Sololá	702	San José Chacayá	5	Chacayá	7	Julio	2023-03-07T00:00:00	2024-11-06T16:00:00	4	Temperatura máxima	17.9
105339	7	Sololá	702	San José Chacayá	5	Chacayá	7	Julio	2023-03-07T00:00:00	2024-11-06T16:00:00	3	Temperatura mínima	17.1
105340	7	Sololá	702	San José Chacayá	5	Chacayá	7	Julio	2023-03-07T00:00:00	2024-11-06T16:00:00	5	Humedad	89
105341	7	Sololá	702	San José Chacayá	5	Chacayá	7	Julio	2023-03-07T00:00:00	2024-11-06T16:00:00	6	Velocidad del viento	1.6
105342	7	Sololá	702	San José Chacayá	5	Chacayá	7	Julio	2023-03-07T00:00:00	2024-11-06T16:00:00	7	Dirección del viento	1.61
105343	7	Sololá	702	San José Chacayá	5	Chacayá	7	Julio	2023-03-07T00:00:00	2024-11-06T16:00:00	1	Precipitación	0.4
105344	7	Sololá	702	San José Chacayá	5	Chacayá	7	Julio	2023-03-07T00:00:00	2024-11-06T16:00:00	8	Radiación solar	650
105345	7	Sololá	702	San José Chacayá	5	Chacayá	7	Julio	2023-03-07T00:00:00	2024-11-06T17:00:00	2	Temperatura media	17.4
105346	7	Sololá	702	San José Chacayá	5	Chacayá	7	Julio	2023-03-07T00:00:00	2024-11-06T17:00:00	4	Temperatura máxima	18.2
105347	7	Sololá	702	San José Chacayá	5	Chacayá	7	Julio	2023-03-07T00:00:00	2024-11-06T17:00:00	3	Temperatura mínima	17.4
105348	7	Sololá	702	San José Chacayá	5	Chacayá	7	Julio	2023-03-07T00:00:00	2024-11-06T17:00:00	5	Humedad	90
105349	7	Sololá	702	San José Chacayá	5	Chacayá	7	Julio	2023-03-07T00:00:00	2024-11-06T17:00:00	6	Velocidad del viento	1.6
105350	7	Sololá	702	San José Chacayá	5	Chacayá	7	Julio	2023-03-07T00:00:00	2024-11-06T17:00:00	7	Dirección del viento	1.61
105351	7	Sololá	702	San José Chacayá	5	Chacayá	7	Julio	2023-03-07T00:00:00	2024-11-06T17:00:00	1	Precipitación	0
105352	7	Sololá	702	San José Chacayá	5	Chacayá	7	Julio	2023-03-07T00:00:00	2024-11-06T17:00:00	8	Radiación solar	242
105353	7	Sololá	702	San José Chacayá	5	Chacayá	7	Julio	2023-03-07T00:00:00	2024-11-06T18:00:00	2	Temperatura media	16.3
105354	7	Sololá	702	San José Chacayá	5	Chacayá	7	Julio	2023-03-07T00:00:00	2024-11-06T18:00:00	4	Temperatura máxima	17.4
105355	7	Sololá	702	San José Chacayá	5	Chacayá	7	Julio	2023-03-07T00:00:00	2024-11-06T18:00:00	3	Temperatura mínima	16.3
105356	7	Sololá	702	San José Chacayá	5	Chacayá	7	Julio	2023-03-07T00:00:00	2024-11-06T18:00:00	5	Humedad	94
105357	7	Sololá	702	San José Chacayá	5	Chacayá	7	Julio	2023-03-07T00:00:00	2024-11-06T18:00:00	6	Velocidad del viento	0
105358	7	Sololá	702	San José Chacayá	5	Chacayá	7	Julio	2023-03-07T00:00:00	2024-11-06T18:00:00	7	Dirección del viento	0
105359	7	Sololá	702	San José Chacayá	5	Chacayá	7	Julio	2023-03-07T00:00:00	2024-11-06T18:00:00	1	Precipitación	7.2
105360	7	Sololá	702	San José Chacayá	5	Chacayá	7	Julio	2023-03-07T00:00:00	2024-11-06T18:00:00	8	Radiación solar	118
105361	7	Sololá	702	San José Chacayá	5	Chacayá	7	Julio	2023-03-07T00:00:00	2024-11-06T19:00:00	2	Temperatura media	15.8
105362	7	Sololá	702	San José Chacayá	5	Chacayá	7	Julio	2023-03-07T00:00:00	2024-11-06T19:00:00	4	Temperatura máxima	16.4
105363	7	Sololá	702	San José Chacayá	5	Chacayá	7	Julio	2023-03-07T00:00:00	2024-11-06T19:00:00	3	Temperatura mínima	15.7
105364	7	Sololá	702	San José Chacayá	5	Chacayá	7	Julio	2023-03-07T00:00:00	2024-11-06T19:00:00	5	Humedad	96
105365	7	Sololá	702	San José Chacayá	5	Chacayá	7	Julio	2023-03-07T00:00:00	2024-11-06T19:00:00	6	Velocidad del viento	1.6
105366	7	Sololá	702	San José Chacayá	5	Chacayá	7	Julio	2023-03-07T00:00:00	2024-11-06T19:00:00	7	Dirección del viento	1.61
105367	7	Sololá	702	San José Chacayá	5	Chacayá	7	Julio	2023-03-07T00:00:00	2024-11-06T19:00:00	1	Precipitación	14
105368	7	Sololá	702	San José Chacayá	5	Chacayá	7	Julio	2023-03-07T00:00:00	2024-11-06T19:00:00	8	Radiación solar	0
105369	7	Sololá	702	San José Chacayá	5	Chacayá	7	Julio	2023-03-07T00:00:00	2024-11-06T20:00:00	2	Temperatura media	15.2
105370	7	Sololá	702	San José Chacayá	5	Chacayá	7	Julio	2023-03-07T00:00:00	2024-11-06T20:00:00	4	Temperatura máxima	15.9
105371	7	Sololá	702	San José Chacayá	5	Chacayá	7	Julio	2023-03-07T00:00:00	2024-11-06T20:00:00	3	Temperatura mínima	15.2
105372	7	Sololá	702	San José Chacayá	5	Chacayá	7	Julio	2023-03-07T00:00:00	2024-11-06T20:00:00	5	Humedad	95
105373	7	Sololá	702	San José Chacayá	5	Chacayá	7	Julio	2023-03-07T00:00:00	2024-11-06T20:00:00	6	Velocidad del viento	3.2
105374	7	Sololá	702	San José Chacayá	5	Chacayá	7	Julio	2023-03-07T00:00:00	2024-11-06T20:00:00	7	Dirección del viento	3.22
105375	7	Sololá	702	San José Chacayá	5	Chacayá	7	Julio	2023-03-07T00:00:00	2024-11-06T20:00:00	1	Precipitación	11.4
105376	7	Sololá	702	San José Chacayá	5	Chacayá	7	Julio	2023-03-07T00:00:00	2024-11-06T20:00:00	8	Radiación solar	0
105377	7	Sololá	702	San José Chacayá	5	Chacayá	7	Julio	2023-03-07T00:00:00	2024-11-06T21:00:00	2	Temperatura media	14.8
105378	7	Sololá	702	San José Chacayá	5	Chacayá	7	Julio	2023-03-07T00:00:00	2024-11-06T21:00:00	4	Temperatura máxima	15.2
105379	7	Sololá	702	San José Chacayá	5	Chacayá	7	Julio	2023-03-07T00:00:00	2024-11-06T21:00:00	3	Temperatura mínima	14.8
105380	7	Sololá	702	San José Chacayá	5	Chacayá	7	Julio	2023-03-07T00:00:00	2024-11-06T21:00:00	5	Humedad	95
105381	7	Sololá	702	San José Chacayá	5	Chacayá	7	Julio	2023-03-07T00:00:00	2024-11-06T21:00:00	6	Velocidad del viento	0
105382	7	Sololá	702	San José Chacayá	5	Chacayá	7	Julio	2023-03-07T00:00:00	2024-11-06T21:00:00	7	Dirección del viento	0
105383	7	Sololá	702	San José Chacayá	5	Chacayá	7	Julio	2023-03-07T00:00:00	2024-11-06T21:00:00	1	Precipitación	2.8
105384	7	Sololá	702	San José Chacayá	5	Chacayá	7	Julio	2023-03-07T00:00:00	2024-11-06T21:00:00	8	Radiación solar	0
105385	7	Sololá	702	San José Chacayá	5	Chacayá	7	Julio	2023-03-07T00:00:00	2024-11-06T22:00:00	2	Temperatura media	14.8
105386	7	Sololá	702	San José Chacayá	5	Chacayá	7	Julio	2023-03-07T00:00:00	2024-11-06T22:00:00	4	Temperatura máxima	14.8
105387	7	Sololá	702	San José Chacayá	5	Chacayá	7	Julio	2023-03-07T00:00:00	2024-11-06T22:00:00	3	Temperatura mínima	14.7
105388	7	Sololá	702	San José Chacayá	5	Chacayá	7	Julio	2023-03-07T00:00:00	2024-11-06T22:00:00	5	Humedad	96
105389	7	Sololá	702	San José Chacayá	5	Chacayá	7	Julio	2023-03-07T00:00:00	2024-11-06T22:00:00	6	Velocidad del viento	0
105390	7	Sololá	702	San José Chacayá	5	Chacayá	7	Julio	2023-03-07T00:00:00	2024-11-06T22:00:00	7	Dirección del viento	0
105391	7	Sololá	702	San José Chacayá	5	Chacayá	7	Julio	2023-03-07T00:00:00	2024-11-06T22:00:00	1	Precipitación	2.8
105392	7	Sololá	702	San José Chacayá	5	Chacayá	7	Julio	2023-03-07T00:00:00	2024-11-06T22:00:00	8	Radiación solar	0
105393	7	Sololá	702	San José Chacayá	5	Chacayá	7	Julio	2023-03-07T00:00:00	2024-11-06T23:00:00	2	Temperatura media	14.4
105394	7	Sololá	702	San José Chacayá	5	Chacayá	7	Julio	2023-03-07T00:00:00	2024-11-06T23:00:00	4	Temperatura máxima	14.8
105395	7	Sololá	702	San José Chacayá	5	Chacayá	7	Julio	2023-03-07T00:00:00	2024-11-06T23:00:00	3	Temperatura mínima	14.4
105396	7	Sololá	702	San José Chacayá	5	Chacayá	7	Julio	2023-03-07T00:00:00	2024-11-06T23:00:00	5	Humedad	96
105397	7	Sololá	702	San José Chacayá	5	Chacayá	7	Julio	2023-03-07T00:00:00	2024-11-06T23:00:00	6	Velocidad del viento	0
105398	7	Sololá	702	San José Chacayá	5	Chacayá	7	Julio	2023-03-07T00:00:00	2024-11-06T23:00:00	7	Dirección del viento	0
105399	7	Sololá	702	San José Chacayá	5	Chacayá	7	Julio	2023-03-07T00:00:00	2024-11-06T23:00:00	1	Precipitación	2
105400	7	Sololá	702	San José Chacayá	5	Chacayá	7	Julio	2023-03-07T00:00:00	2024-11-06T23:00:00	8	Radiación solar	0
105401	7	Sololá	702	San José Chacayá	5	Chacayá	7	Julio	2023-04-07T00:00:00	2024-11-06T00:00:00	2	Temperatura media	14.3
105402	7	Sololá	702	San José Chacayá	5	Chacayá	7	Julio	2023-04-07T00:00:00	2024-11-06T00:00:00	4	Temperatura máxima	14.4
105403	7	Sololá	702	San José Chacayá	5	Chacayá	7	Julio	2023-04-07T00:00:00	2024-11-06T00:00:00	3	Temperatura mínima	14.2
105404	7	Sololá	702	San José Chacayá	5	Chacayá	7	Julio	2023-04-07T00:00:00	2024-11-06T00:00:00	5	Humedad	96
105405	7	Sololá	702	San José Chacayá	5	Chacayá	7	Julio	2023-04-07T00:00:00	2024-11-06T00:00:00	6	Velocidad del viento	0
105406	7	Sololá	702	San José Chacayá	5	Chacayá	7	Julio	2023-04-07T00:00:00	2024-11-06T00:00:00	7	Dirección del viento	0
105407	7	Sololá	702	San José Chacayá	5	Chacayá	7	Julio	2023-04-07T00:00:00	2024-11-06T00:00:00	1	Precipitación	0.2
105408	7	Sololá	702	San José Chacayá	5	Chacayá	7	Julio	2023-04-07T00:00:00	2024-11-06T00:00:00	8	Radiación solar	0
105409	7	Sololá	702	San José Chacayá	5	Chacayá	7	Julio	2023-04-07T00:00:00	2024-11-06T01:00:00	2	Temperatura media	14.3
105410	7	Sololá	702	San José Chacayá	5	Chacayá	7	Julio	2023-04-07T00:00:00	2024-11-06T01:00:00	4	Temperatura máxima	14.3
105411	7	Sololá	702	San José Chacayá	5	Chacayá	7	Julio	2023-04-07T00:00:00	2024-11-06T01:00:00	3	Temperatura mínima	14.2
105412	7	Sololá	702	San José Chacayá	5	Chacayá	7	Julio	2023-04-07T00:00:00	2024-11-06T01:00:00	5	Humedad	97
105413	7	Sololá	702	San José Chacayá	5	Chacayá	7	Julio	2023-04-07T00:00:00	2024-11-06T01:00:00	6	Velocidad del viento	0
105414	7	Sololá	702	San José Chacayá	5	Chacayá	7	Julio	2023-04-07T00:00:00	2024-11-06T01:00:00	7	Dirección del viento	0
105415	7	Sololá	702	San José Chacayá	5	Chacayá	7	Julio	2023-04-07T00:00:00	2024-11-06T01:00:00	1	Precipitación	0
105416	7	Sololá	702	San José Chacayá	5	Chacayá	7	Julio	2023-04-07T00:00:00	2024-11-06T01:00:00	8	Radiación solar	0
105417	7	Sololá	702	San José Chacayá	5	Chacayá	7	Julio	2023-04-07T00:00:00	2024-11-06T02:00:00	2	Temperatura media	14.1
105418	7	Sololá	702	San José Chacayá	5	Chacayá	7	Julio	2023-04-07T00:00:00	2024-11-06T02:00:00	4	Temperatura máxima	14.3
105419	7	Sololá	702	San José Chacayá	5	Chacayá	7	Julio	2023-04-07T00:00:00	2024-11-06T02:00:00	3	Temperatura mínima	14.1
105420	7	Sololá	702	San José Chacayá	5	Chacayá	7	Julio	2023-04-07T00:00:00	2024-11-06T02:00:00	5	Humedad	96
105421	7	Sololá	702	San José Chacayá	5	Chacayá	7	Julio	2023-04-07T00:00:00	2024-11-06T02:00:00	6	Velocidad del viento	0
105422	7	Sololá	702	San José Chacayá	5	Chacayá	7	Julio	2023-04-07T00:00:00	2024-11-06T02:00:00	7	Dirección del viento	0
105423	7	Sololá	702	San José Chacayá	5	Chacayá	7	Julio	2023-04-07T00:00:00	2024-11-06T02:00:00	1	Precipitación	0
105424	7	Sololá	702	San José Chacayá	5	Chacayá	7	Julio	2023-04-07T00:00:00	2024-11-06T02:00:00	8	Radiación solar	0
105425	7	Sololá	702	San José Chacayá	5	Chacayá	7	Julio	2023-04-07T00:00:00	2024-11-06T03:00:00	2	Temperatura media	13.9
105426	7	Sololá	702	San José Chacayá	5	Chacayá	7	Julio	2023-04-07T00:00:00	2024-11-06T03:00:00	4	Temperatura máxima	14.1
105427	7	Sololá	702	San José Chacayá	5	Chacayá	7	Julio	2023-04-07T00:00:00	2024-11-06T03:00:00	3	Temperatura mínima	13.9
105428	7	Sololá	702	San José Chacayá	5	Chacayá	7	Julio	2023-04-07T00:00:00	2024-11-06T03:00:00	5	Humedad	96
105429	7	Sololá	702	San José Chacayá	5	Chacayá	7	Julio	2023-04-07T00:00:00	2024-11-06T03:00:00	6	Velocidad del viento	0
105430	7	Sololá	702	San José Chacayá	5	Chacayá	7	Julio	2023-04-07T00:00:00	2024-11-06T03:00:00	7	Dirección del viento	0
105431	7	Sololá	702	San José Chacayá	5	Chacayá	7	Julio	2023-04-07T00:00:00	2024-11-06T03:00:00	1	Precipitación	0
105432	7	Sololá	702	San José Chacayá	5	Chacayá	7	Julio	2023-04-07T00:00:00	2024-11-06T03:00:00	8	Radiación solar	0
105433	7	Sololá	702	San José Chacayá	5	Chacayá	7	Julio	2023-04-07T00:00:00	2024-11-06T04:00:00	2	Temperatura media	13.7
105434	7	Sololá	702	San José Chacayá	5	Chacayá	7	Julio	2023-04-07T00:00:00	2024-11-06T04:00:00	4	Temperatura máxima	13.9
105435	7	Sololá	702	San José Chacayá	5	Chacayá	7	Julio	2023-04-07T00:00:00	2024-11-06T04:00:00	3	Temperatura mínima	13.7
105436	7	Sololá	702	San José Chacayá	5	Chacayá	7	Julio	2023-04-07T00:00:00	2024-11-06T04:00:00	5	Humedad	96
105437	7	Sololá	702	San José Chacayá	5	Chacayá	7	Julio	2023-04-07T00:00:00	2024-11-06T04:00:00	6	Velocidad del viento	0
105438	7	Sololá	702	San José Chacayá	5	Chacayá	7	Julio	2023-04-07T00:00:00	2024-11-06T04:00:00	7	Dirección del viento	0
105439	7	Sololá	702	San José Chacayá	5	Chacayá	7	Julio	2023-04-07T00:00:00	2024-11-06T04:00:00	1	Precipitación	0.2
105440	7	Sololá	702	San José Chacayá	5	Chacayá	7	Julio	2023-04-07T00:00:00	2024-11-06T04:00:00	8	Radiación solar	0
105441	7	Sololá	702	San José Chacayá	5	Chacayá	7	Julio	2023-04-07T00:00:00	2024-11-06T05:00:00	2	Temperatura media	13.7
105442	7	Sololá	702	San José Chacayá	5	Chacayá	7	Julio	2023-04-07T00:00:00	2024-11-06T05:00:00	4	Temperatura máxima	13.7
105443	7	Sololá	702	San José Chacayá	5	Chacayá	7	Julio	2023-04-07T00:00:00	2024-11-06T05:00:00	3	Temperatura mínima	13.6
105444	7	Sololá	702	San José Chacayá	5	Chacayá	7	Julio	2023-04-07T00:00:00	2024-11-06T05:00:00	5	Humedad	97
105445	7	Sololá	702	San José Chacayá	5	Chacayá	7	Julio	2023-04-07T00:00:00	2024-11-06T05:00:00	6	Velocidad del viento	0
105446	7	Sololá	702	San José Chacayá	5	Chacayá	7	Julio	2023-04-07T00:00:00	2024-11-06T05:00:00	7	Dirección del viento	0
105447	7	Sololá	702	San José Chacayá	5	Chacayá	7	Julio	2023-04-07T00:00:00	2024-11-06T05:00:00	1	Precipitación	0
105448	7	Sololá	702	San José Chacayá	5	Chacayá	7	Julio	2023-04-07T00:00:00	2024-11-06T05:00:00	8	Radiación solar	0
105449	7	Sololá	702	San José Chacayá	5	Chacayá	7	Julio	2023-04-07T00:00:00	2024-11-06T06:00:00	2	Temperatura media	13.3
105450	7	Sololá	702	San José Chacayá	5	Chacayá	7	Julio	2023-04-07T00:00:00	2024-11-06T06:00:00	4	Temperatura máxima	13.7
105451	7	Sololá	702	San José Chacayá	5	Chacayá	7	Julio	2023-04-07T00:00:00	2024-11-06T06:00:00	3	Temperatura mínima	13.3
105452	7	Sololá	702	San José Chacayá	5	Chacayá	7	Julio	2023-04-07T00:00:00	2024-11-06T06:00:00	5	Humedad	97
105453	7	Sololá	702	San José Chacayá	5	Chacayá	7	Julio	2023-04-07T00:00:00	2024-11-06T06:00:00	6	Velocidad del viento	0
105454	7	Sololá	702	San José Chacayá	5	Chacayá	7	Julio	2023-04-07T00:00:00	2024-11-06T06:00:00	7	Dirección del viento	0
105455	7	Sololá	702	San José Chacayá	5	Chacayá	7	Julio	2023-04-07T00:00:00	2024-11-06T06:00:00	1	Precipitación	0
105456	7	Sololá	702	San José Chacayá	5	Chacayá	7	Julio	2023-04-07T00:00:00	2024-11-06T06:00:00	8	Radiación solar	2
105457	7	Sololá	702	San José Chacayá	5	Chacayá	7	Julio	2023-04-07T00:00:00	2024-11-06T07:00:00	2	Temperatura media	14.1
105458	7	Sololá	702	San José Chacayá	5	Chacayá	7	Julio	2023-04-07T00:00:00	2024-11-06T07:00:00	4	Temperatura máxima	14.1
105459	7	Sololá	702	San José Chacayá	5	Chacayá	7	Julio	2023-04-07T00:00:00	2024-11-06T07:00:00	3	Temperatura mínima	13.3
105460	7	Sololá	702	San José Chacayá	5	Chacayá	7	Julio	2023-04-07T00:00:00	2024-11-06T07:00:00	5	Humedad	97
105461	7	Sololá	702	San José Chacayá	5	Chacayá	7	Julio	2023-04-07T00:00:00	2024-11-06T07:00:00	6	Velocidad del viento	0
105462	7	Sololá	702	San José Chacayá	5	Chacayá	7	Julio	2023-04-07T00:00:00	2024-11-06T07:00:00	7	Dirección del viento	0
105463	7	Sololá	702	San José Chacayá	5	Chacayá	7	Julio	2023-04-07T00:00:00	2024-11-06T07:00:00	1	Precipitación	0
105464	7	Sololá	702	San José Chacayá	5	Chacayá	7	Julio	2023-04-07T00:00:00	2024-11-06T07:00:00	8	Radiación solar	36
105465	7	Sololá	702	San José Chacayá	5	Chacayá	7	Julio	2023-04-07T00:00:00	2024-11-06T08:00:00	2	Temperatura media	14.5
105466	7	Sololá	702	San José Chacayá	5	Chacayá	7	Julio	2023-04-07T00:00:00	2024-11-06T08:00:00	4	Temperatura máxima	14.7
105467	7	Sololá	702	San José Chacayá	5	Chacayá	7	Julio	2023-04-07T00:00:00	2024-11-06T08:00:00	3	Temperatura mínima	14.1
105468	7	Sololá	702	San José Chacayá	5	Chacayá	7	Julio	2023-04-07T00:00:00	2024-11-06T08:00:00	5	Humedad	96
105469	7	Sololá	702	San José Chacayá	5	Chacayá	7	Julio	2023-04-07T00:00:00	2024-11-06T08:00:00	6	Velocidad del viento	0
105470	7	Sololá	702	San José Chacayá	5	Chacayá	7	Julio	2023-04-07T00:00:00	2024-11-06T08:00:00	7	Dirección del viento	0
105471	7	Sololá	702	San José Chacayá	5	Chacayá	7	Julio	2023-04-07T00:00:00	2024-11-06T08:00:00	1	Precipitación	0
105472	7	Sololá	702	San José Chacayá	5	Chacayá	7	Julio	2023-04-07T00:00:00	2024-11-06T08:00:00	8	Radiación solar	143
105473	7	Sololá	702	San José Chacayá	5	Chacayá	7	Julio	2023-04-07T00:00:00	2024-11-06T09:00:00	2	Temperatura media	16.6
105474	7	Sololá	702	San José Chacayá	5	Chacayá	7	Julio	2023-04-07T00:00:00	2024-11-06T09:00:00	4	Temperatura máxima	16.6
105475	7	Sololá	702	San José Chacayá	5	Chacayá	7	Julio	2023-04-07T00:00:00	2024-11-06T09:00:00	3	Temperatura mínima	14.3
105476	7	Sololá	702	San José Chacayá	5	Chacayá	7	Julio	2023-04-07T00:00:00	2024-11-06T09:00:00	5	Humedad	91
105477	7	Sololá	702	San José Chacayá	5	Chacayá	7	Julio	2023-04-07T00:00:00	2024-11-06T09:00:00	6	Velocidad del viento	1.6
105478	7	Sololá	702	San José Chacayá	5	Chacayá	7	Julio	2023-04-07T00:00:00	2024-11-06T09:00:00	7	Dirección del viento	1.61
105479	7	Sololá	702	San José Chacayá	5	Chacayá	7	Julio	2023-04-07T00:00:00	2024-11-06T09:00:00	1	Precipitación	0
105480	7	Sololá	702	San José Chacayá	5	Chacayá	7	Julio	2023-04-07T00:00:00	2024-11-06T09:00:00	8	Radiación solar	260
105481	7	Sololá	702	San José Chacayá	5	Chacayá	7	Julio	2023-04-07T00:00:00	2024-11-06T10:00:00	2	Temperatura media	20.2
105482	7	Sololá	702	San José Chacayá	5	Chacayá	7	Julio	2023-04-07T00:00:00	2024-11-06T10:00:00	4	Temperatura máxima	20.2
105483	7	Sololá	702	San José Chacayá	5	Chacayá	7	Julio	2023-04-07T00:00:00	2024-11-06T10:00:00	3	Temperatura mínima	16.6
105484	7	Sololá	702	San José Chacayá	5	Chacayá	7	Julio	2023-04-07T00:00:00	2024-11-06T10:00:00	5	Humedad	79
105485	7	Sololá	702	San José Chacayá	5	Chacayá	7	Julio	2023-04-07T00:00:00	2024-11-06T10:00:00	6	Velocidad del viento	3.2
105486	7	Sololá	702	San José Chacayá	5	Chacayá	7	Julio	2023-04-07T00:00:00	2024-11-06T10:00:00	7	Dirección del viento	3.22
105487	7	Sololá	702	San José Chacayá	5	Chacayá	7	Julio	2023-04-07T00:00:00	2024-11-06T10:00:00	1	Precipitación	0
105488	7	Sololá	702	San José Chacayá	5	Chacayá	7	Julio	2023-04-07T00:00:00	2024-11-06T10:00:00	8	Radiación solar	452
105489	7	Sololá	702	San José Chacayá	5	Chacayá	7	Julio	2023-04-07T00:00:00	2024-11-06T11:00:00	2	Temperatura media	20.3
105490	7	Sololá	702	San José Chacayá	5	Chacayá	7	Julio	2023-04-07T00:00:00	2024-11-06T11:00:00	4	Temperatura máxima	21.1
105491	7	Sololá	702	San José Chacayá	5	Chacayá	7	Julio	2023-04-07T00:00:00	2024-11-06T11:00:00	3	Temperatura mínima	20.1
105492	7	Sololá	702	San José Chacayá	5	Chacayá	7	Julio	2023-04-07T00:00:00	2024-11-06T11:00:00	5	Humedad	74
105493	7	Sololá	702	San José Chacayá	5	Chacayá	7	Julio	2023-04-07T00:00:00	2024-11-06T11:00:00	6	Velocidad del viento	3.2
105494	7	Sololá	702	San José Chacayá	5	Chacayá	7	Julio	2023-04-07T00:00:00	2024-11-06T11:00:00	7	Dirección del viento	3.22
105495	7	Sololá	702	San José Chacayá	5	Chacayá	7	Julio	2023-04-07T00:00:00	2024-11-06T11:00:00	1	Precipitación	0
105496	7	Sololá	702	San José Chacayá	5	Chacayá	7	Julio	2023-04-07T00:00:00	2024-11-06T11:00:00	8	Radiación solar	745
105497	7	Sololá	702	San José Chacayá	5	Chacayá	7	Julio	2023-04-07T00:00:00	2024-11-06T12:00:00	2	Temperatura media	21.4
105498	7	Sololá	702	San José Chacayá	5	Chacayá	7	Julio	2023-04-07T00:00:00	2024-11-06T12:00:00	4	Temperatura máxima	21.7
105499	7	Sololá	702	San José Chacayá	5	Chacayá	7	Julio	2023-04-07T00:00:00	2024-11-06T12:00:00	3	Temperatura mínima	20.3
105500	7	Sololá	702	San José Chacayá	5	Chacayá	7	Julio	2023-04-07T00:00:00	2024-11-06T12:00:00	5	Humedad	74
105501	7	Sololá	702	San José Chacayá	5	Chacayá	7	Julio	2023-04-07T00:00:00	2024-11-06T12:00:00	6	Velocidad del viento	4.8
105502	7	Sololá	702	San José Chacayá	5	Chacayá	7	Julio	2023-04-07T00:00:00	2024-11-06T12:00:00	7	Dirección del viento	4.83
105503	7	Sololá	702	San José Chacayá	5	Chacayá	7	Julio	2023-04-07T00:00:00	2024-11-06T12:00:00	1	Precipitación	0
105504	7	Sololá	702	San José Chacayá	5	Chacayá	7	Julio	2023-04-07T00:00:00	2024-11-06T12:00:00	8	Radiación solar	810
105505	7	Sololá	702	San José Chacayá	5	Chacayá	7	Julio	2023-04-07T00:00:00	2024-11-06T13:00:00	2	Temperatura media	20.6
105506	7	Sololá	702	San José Chacayá	5	Chacayá	7	Julio	2023-04-07T00:00:00	2024-11-06T13:00:00	4	Temperatura máxima	21.5
105507	7	Sololá	702	San José Chacayá	5	Chacayá	7	Julio	2023-04-07T00:00:00	2024-11-06T13:00:00	3	Temperatura mínima	19.6
105508	7	Sololá	702	San José Chacayá	5	Chacayá	7	Julio	2023-04-07T00:00:00	2024-11-06T13:00:00	5	Humedad	76
105509	7	Sololá	702	San José Chacayá	5	Chacayá	7	Julio	2023-04-07T00:00:00	2024-11-06T13:00:00	6	Velocidad del viento	4.8
105510	7	Sololá	702	San José Chacayá	5	Chacayá	7	Julio	2023-04-07T00:00:00	2024-11-06T13:00:00	7	Dirección del viento	4.83
105511	7	Sololá	702	San José Chacayá	5	Chacayá	7	Julio	2023-04-07T00:00:00	2024-11-06T13:00:00	1	Precipitación	0
105512	7	Sololá	702	San José Chacayá	5	Chacayá	7	Julio	2023-04-07T00:00:00	2024-11-06T13:00:00	8	Radiación solar	718
105513	7	Sololá	702	San José Chacayá	5	Chacayá	7	Julio	2023-04-07T00:00:00	2024-11-06T14:00:00	2	Temperatura media	21.4
105514	7	Sololá	702	San José Chacayá	5	Chacayá	7	Julio	2023-04-07T00:00:00	2024-11-06T14:00:00	4	Temperatura máxima	21.9
105515	7	Sololá	702	San José Chacayá	5	Chacayá	7	Julio	2023-04-07T00:00:00	2024-11-06T14:00:00	3	Temperatura mínima	20.5
105516	7	Sololá	702	San José Chacayá	5	Chacayá	7	Julio	2023-04-07T00:00:00	2024-11-06T14:00:00	5	Humedad	72
105517	7	Sololá	702	San José Chacayá	5	Chacayá	7	Julio	2023-04-07T00:00:00	2024-11-06T14:00:00	6	Velocidad del viento	6.4
105518	7	Sololá	702	San José Chacayá	5	Chacayá	7	Julio	2023-04-07T00:00:00	2024-11-06T14:00:00	7	Dirección del viento	6.44
105519	7	Sololá	702	San José Chacayá	5	Chacayá	7	Julio	2023-04-07T00:00:00	2024-11-06T14:00:00	1	Precipitación	0
105520	7	Sololá	702	San José Chacayá	5	Chacayá	7	Julio	2023-04-07T00:00:00	2024-11-06T14:00:00	8	Radiación solar	611
105521	7	Sololá	702	San José Chacayá	5	Chacayá	7	Julio	2023-04-07T00:00:00	2024-11-06T15:00:00	2	Temperatura media	17.8
105522	7	Sololá	702	San José Chacayá	5	Chacayá	7	Julio	2023-04-07T00:00:00	2024-11-06T15:00:00	4	Temperatura máxima	21.4
105523	7	Sololá	702	San José Chacayá	5	Chacayá	7	Julio	2023-04-07T00:00:00	2024-11-06T15:00:00	3	Temperatura mínima	17.8
105524	7	Sololá	702	San José Chacayá	5	Chacayá	7	Julio	2023-04-07T00:00:00	2024-11-06T15:00:00	5	Humedad	89
105525	7	Sololá	702	San José Chacayá	5	Chacayá	7	Julio	2023-04-07T00:00:00	2024-11-06T15:00:00	6	Velocidad del viento	4.8
105526	7	Sololá	702	San José Chacayá	5	Chacayá	7	Julio	2023-04-07T00:00:00	2024-11-06T15:00:00	7	Dirección del viento	4.83
105527	7	Sololá	702	San José Chacayá	5	Chacayá	7	Julio	2023-04-07T00:00:00	2024-11-06T15:00:00	1	Precipitación	1.6
105528	7	Sololá	702	San José Chacayá	5	Chacayá	7	Julio	2023-04-07T00:00:00	2024-11-06T15:00:00	8	Radiación solar	715
105529	7	Sololá	702	San José Chacayá	5	Chacayá	7	Julio	2023-04-07T00:00:00	2024-11-06T16:00:00	2	Temperatura media	16.1
105530	7	Sololá	702	San José Chacayá	5	Chacayá	7	Julio	2023-04-07T00:00:00	2024-11-06T16:00:00	4	Temperatura máxima	17.8
105531	7	Sololá	702	San José Chacayá	5	Chacayá	7	Julio	2023-04-07T00:00:00	2024-11-06T16:00:00	3	Temperatura mínima	15.9
105532	7	Sololá	702	San José Chacayá	5	Chacayá	7	Julio	2023-04-07T00:00:00	2024-11-06T16:00:00	5	Humedad	95
105533	7	Sololá	702	San José Chacayá	5	Chacayá	7	Julio	2023-04-07T00:00:00	2024-11-06T16:00:00	6	Velocidad del viento	1.6
105534	7	Sololá	702	San José Chacayá	5	Chacayá	7	Julio	2023-04-07T00:00:00	2024-11-06T16:00:00	7	Dirección del viento	1.61
105535	7	Sololá	702	San José Chacayá	5	Chacayá	7	Julio	2023-04-07T00:00:00	2024-11-06T16:00:00	1	Precipitación	24.2
105536	7	Sololá	702	San José Chacayá	5	Chacayá	7	Julio	2023-04-07T00:00:00	2024-11-06T16:00:00	8	Radiación solar	667
105537	7	Sololá	702	San José Chacayá	5	Chacayá	7	Julio	2023-04-07T00:00:00	2024-11-06T17:00:00	2	Temperatura media	16.7
105538	7	Sololá	702	San José Chacayá	5	Chacayá	7	Julio	2023-04-07T00:00:00	2024-11-06T17:00:00	4	Temperatura máxima	16.8
105539	7	Sololá	702	San José Chacayá	5	Chacayá	7	Julio	2023-04-07T00:00:00	2024-11-06T17:00:00	3	Temperatura mínima	16.1
105540	7	Sololá	702	San José Chacayá	5	Chacayá	7	Julio	2023-04-07T00:00:00	2024-11-06T17:00:00	5	Humedad	91
105541	7	Sololá	702	San José Chacayá	5	Chacayá	7	Julio	2023-04-07T00:00:00	2024-11-06T17:00:00	6	Velocidad del viento	0
105542	7	Sololá	702	San José Chacayá	5	Chacayá	7	Julio	2023-04-07T00:00:00	2024-11-06T17:00:00	7	Dirección del viento	0
105543	7	Sololá	702	San José Chacayá	5	Chacayá	7	Julio	2023-04-07T00:00:00	2024-11-06T17:00:00	1	Precipitación	0.2
105544	7	Sololá	702	San José Chacayá	5	Chacayá	7	Julio	2023-04-07T00:00:00	2024-11-06T17:00:00	8	Radiación solar	471
105545	7	Sololá	702	San José Chacayá	5	Chacayá	7	Julio	2023-04-07T00:00:00	2024-11-06T18:00:00	2	Temperatura media	16.3
105546	7	Sololá	702	San José Chacayá	5	Chacayá	7	Julio	2023-04-07T00:00:00	2024-11-06T18:00:00	4	Temperatura máxima	16.7
105547	7	Sololá	702	San José Chacayá	5	Chacayá	7	Julio	2023-04-07T00:00:00	2024-11-06T18:00:00	3	Temperatura mínima	16.3
105548	7	Sololá	702	San José Chacayá	5	Chacayá	7	Julio	2023-04-07T00:00:00	2024-11-06T18:00:00	5	Humedad	94
105549	7	Sololá	702	San José Chacayá	5	Chacayá	7	Julio	2023-04-07T00:00:00	2024-11-06T18:00:00	6	Velocidad del viento	1.6
105550	7	Sololá	702	San José Chacayá	5	Chacayá	7	Julio	2023-04-07T00:00:00	2024-11-06T18:00:00	7	Dirección del viento	1.61
105551	7	Sololá	702	San José Chacayá	5	Chacayá	7	Julio	2023-04-07T00:00:00	2024-11-06T18:00:00	1	Precipitación	0
105552	7	Sololá	702	San José Chacayá	5	Chacayá	7	Julio	2023-04-07T00:00:00	2024-11-06T18:00:00	8	Radiación solar	123
105553	7	Sololá	702	San José Chacayá	5	Chacayá	7	Julio	2023-04-07T00:00:00	2024-11-06T19:00:00	2	Temperatura media	15.7
105554	7	Sololá	702	San José Chacayá	5	Chacayá	7	Julio	2023-04-07T00:00:00	2024-11-06T19:00:00	4	Temperatura máxima	16.3
105555	7	Sololá	702	San José Chacayá	5	Chacayá	7	Julio	2023-04-07T00:00:00	2024-11-06T19:00:00	3	Temperatura mínima	15.7
105556	7	Sololá	702	San José Chacayá	5	Chacayá	7	Julio	2023-04-07T00:00:00	2024-11-06T19:00:00	5	Humedad	94
105557	7	Sololá	702	San José Chacayá	5	Chacayá	7	Julio	2023-04-07T00:00:00	2024-11-06T19:00:00	6	Velocidad del viento	0
105558	7	Sololá	702	San José Chacayá	5	Chacayá	7	Julio	2023-04-07T00:00:00	2024-11-06T19:00:00	7	Dirección del viento	0
105559	7	Sololá	702	San José Chacayá	5	Chacayá	7	Julio	2023-04-07T00:00:00	2024-11-06T19:00:00	1	Precipitación	3.4
105560	7	Sololá	702	San José Chacayá	5	Chacayá	7	Julio	2023-04-07T00:00:00	2024-11-06T19:00:00	8	Radiación solar	0
105561	7	Sololá	702	San José Chacayá	5	Chacayá	7	Julio	2023-04-07T00:00:00	2024-11-06T20:00:00	2	Temperatura media	15.4
105562	7	Sololá	702	San José Chacayá	5	Chacayá	7	Julio	2023-04-07T00:00:00	2024-11-06T20:00:00	4	Temperatura máxima	15.7
105563	7	Sololá	702	San José Chacayá	5	Chacayá	7	Julio	2023-04-07T00:00:00	2024-11-06T20:00:00	3	Temperatura mínima	15.3
105564	7	Sololá	702	San José Chacayá	5	Chacayá	7	Julio	2023-04-07T00:00:00	2024-11-06T20:00:00	5	Humedad	95
105565	7	Sololá	702	San José Chacayá	5	Chacayá	7	Julio	2023-04-07T00:00:00	2024-11-06T20:00:00	6	Velocidad del viento	0
105566	7	Sololá	702	San José Chacayá	5	Chacayá	7	Julio	2023-04-07T00:00:00	2024-11-06T20:00:00	7	Dirección del viento	0
105567	7	Sololá	702	San José Chacayá	5	Chacayá	7	Julio	2023-04-07T00:00:00	2024-11-06T20:00:00	1	Precipitación	2.8
105568	7	Sololá	702	San José Chacayá	5	Chacayá	7	Julio	2023-04-07T00:00:00	2024-11-06T20:00:00	8	Radiación solar	0
105569	7	Sololá	702	San José Chacayá	5	Chacayá	7	Julio	2023-04-07T00:00:00	2024-11-06T21:00:00	2	Temperatura media	15.2
105570	7	Sololá	702	San José Chacayá	5	Chacayá	7	Julio	2023-04-07T00:00:00	2024-11-06T21:00:00	4	Temperatura máxima	15.4
105571	7	Sololá	702	San José Chacayá	5	Chacayá	7	Julio	2023-04-07T00:00:00	2024-11-06T21:00:00	3	Temperatura mínima	15.2
105572	7	Sololá	702	San José Chacayá	5	Chacayá	7	Julio	2023-04-07T00:00:00	2024-11-06T21:00:00	5	Humedad	95
105573	7	Sololá	702	San José Chacayá	5	Chacayá	7	Julio	2023-04-07T00:00:00	2024-11-06T21:00:00	6	Velocidad del viento	0
105574	7	Sololá	702	San José Chacayá	5	Chacayá	7	Julio	2023-04-07T00:00:00	2024-11-06T21:00:00	7	Dirección del viento	0
105575	7	Sololá	702	San José Chacayá	5	Chacayá	7	Julio	2023-04-07T00:00:00	2024-11-06T21:00:00	1	Precipitación	0.8
105576	7	Sololá	702	San José Chacayá	5	Chacayá	7	Julio	2023-04-07T00:00:00	2024-11-06T21:00:00	8	Radiación solar	0
105577	7	Sololá	702	San José Chacayá	5	Chacayá	7	Julio	2023-04-07T00:00:00	2024-11-06T22:00:00	2	Temperatura media	15.1
105578	7	Sololá	702	San José Chacayá	5	Chacayá	7	Julio	2023-04-07T00:00:00	2024-11-06T22:00:00	4	Temperatura máxima	15.2
105579	7	Sololá	702	San José Chacayá	5	Chacayá	7	Julio	2023-04-07T00:00:00	2024-11-06T22:00:00	3	Temperatura mínima	15.1
105580	7	Sololá	702	San José Chacayá	5	Chacayá	7	Julio	2023-04-07T00:00:00	2024-11-06T22:00:00	5	Humedad	96
105581	7	Sololá	702	San José Chacayá	5	Chacayá	7	Julio	2023-04-07T00:00:00	2024-11-06T22:00:00	6	Velocidad del viento	0
105582	7	Sololá	702	San José Chacayá	5	Chacayá	7	Julio	2023-04-07T00:00:00	2024-11-06T22:00:00	7	Dirección del viento	0
105583	7	Sololá	702	San José Chacayá	5	Chacayá	7	Julio	2023-04-07T00:00:00	2024-11-06T22:00:00	1	Precipitación	3
105584	7	Sololá	702	San José Chacayá	5	Chacayá	7	Julio	2023-04-07T00:00:00	2024-11-06T22:00:00	8	Radiación solar	0
105585	7	Sololá	702	San José Chacayá	5	Chacayá	7	Julio	2023-04-07T00:00:00	2024-11-06T23:00:00	2	Temperatura media	14.9
105586	7	Sololá	702	San José Chacayá	5	Chacayá	7	Julio	2023-04-07T00:00:00	2024-11-06T23:00:00	4	Temperatura máxima	15.1
105587	7	Sololá	702	San José Chacayá	5	Chacayá	7	Julio	2023-04-07T00:00:00	2024-11-06T23:00:00	3	Temperatura mínima	14.9
105588	7	Sololá	702	San José Chacayá	5	Chacayá	7	Julio	2023-04-07T00:00:00	2024-11-06T23:00:00	5	Humedad	96
105589	7	Sololá	702	San José Chacayá	5	Chacayá	7	Julio	2023-04-07T00:00:00	2024-11-06T23:00:00	6	Velocidad del viento	0
105590	7	Sololá	702	San José Chacayá	5	Chacayá	7	Julio	2023-04-07T00:00:00	2024-11-06T23:00:00	7	Dirección del viento	0
105591	7	Sololá	702	San José Chacayá	5	Chacayá	7	Julio	2023-04-07T00:00:00	2024-11-06T23:00:00	1	Precipitación	4.4
105592	7	Sololá	702	San José Chacayá	5	Chacayá	7	Julio	2023-04-07T00:00:00	2024-11-06T23:00:00	8	Radiación solar	0
105593	7	Sololá	702	San José Chacayá	5	Chacayá	7	Julio	2023-05-07T00:00:00	2024-11-06T00:00:00	2	Temperatura media	14.7
105594	7	Sololá	702	San José Chacayá	5	Chacayá	7	Julio	2023-05-07T00:00:00	2024-11-06T00:00:00	4	Temperatura máxima	14.9
105595	7	Sololá	702	San José Chacayá	5	Chacayá	7	Julio	2023-05-07T00:00:00	2024-11-06T00:00:00	3	Temperatura mínima	14.6
105596	7	Sololá	702	San José Chacayá	5	Chacayá	7	Julio	2023-05-07T00:00:00	2024-11-06T00:00:00	5	Humedad	96
105597	7	Sololá	702	San José Chacayá	5	Chacayá	7	Julio	2023-05-07T00:00:00	2024-11-06T00:00:00	6	Velocidad del viento	0
105598	7	Sololá	702	San José Chacayá	5	Chacayá	7	Julio	2023-05-07T00:00:00	2024-11-06T00:00:00	7	Dirección del viento	0
105599	7	Sololá	702	San José Chacayá	5	Chacayá	7	Julio	2023-05-07T00:00:00	2024-11-06T00:00:00	1	Precipitación	1
105600	7	Sololá	702	San José Chacayá	5	Chacayá	7	Julio	2023-05-07T00:00:00	2024-11-06T00:00:00	8	Radiación solar	0
105601	7	Sololá	702	San José Chacayá	5	Chacayá	7	Julio	2023-05-07T00:00:00	2024-11-06T01:00:00	2	Temperatura media	14.4
105602	7	Sololá	702	San José Chacayá	5	Chacayá	7	Julio	2023-05-07T00:00:00	2024-11-06T01:00:00	4	Temperatura máxima	14.7
105603	7	Sololá	702	San José Chacayá	5	Chacayá	7	Julio	2023-05-07T00:00:00	2024-11-06T01:00:00	3	Temperatura mínima	14.4
105604	7	Sololá	702	San José Chacayá	5	Chacayá	7	Julio	2023-05-07T00:00:00	2024-11-06T01:00:00	5	Humedad	96
105605	7	Sololá	702	San José Chacayá	5	Chacayá	7	Julio	2023-05-07T00:00:00	2024-11-06T01:00:00	6	Velocidad del viento	0
105606	7	Sololá	702	San José Chacayá	5	Chacayá	7	Julio	2023-05-07T00:00:00	2024-11-06T01:00:00	7	Dirección del viento	0
105607	7	Sololá	702	San José Chacayá	5	Chacayá	7	Julio	2023-05-07T00:00:00	2024-11-06T01:00:00	1	Precipitación	0.4
105608	7	Sololá	702	San José Chacayá	5	Chacayá	7	Julio	2023-05-07T00:00:00	2024-11-06T01:00:00	8	Radiación solar	0
105609	7	Sololá	702	San José Chacayá	5	Chacayá	7	Julio	2023-05-07T00:00:00	2024-11-06T02:00:00	2	Temperatura media	14.1
105610	7	Sololá	702	San José Chacayá	5	Chacayá	7	Julio	2023-05-07T00:00:00	2024-11-06T02:00:00	4	Temperatura máxima	14.4
105611	7	Sololá	702	San José Chacayá	5	Chacayá	7	Julio	2023-05-07T00:00:00	2024-11-06T02:00:00	3	Temperatura mínima	14.1
105612	7	Sololá	702	San José Chacayá	5	Chacayá	7	Julio	2023-05-07T00:00:00	2024-11-06T02:00:00	5	Humedad	96
105613	7	Sololá	702	San José Chacayá	5	Chacayá	7	Julio	2023-05-07T00:00:00	2024-11-06T02:00:00	6	Velocidad del viento	0
105614	7	Sololá	702	San José Chacayá	5	Chacayá	7	Julio	2023-05-07T00:00:00	2024-11-06T02:00:00	7	Dirección del viento	0
105615	7	Sololá	702	San José Chacayá	5	Chacayá	7	Julio	2023-05-07T00:00:00	2024-11-06T02:00:00	1	Precipitación	0.2
105616	7	Sololá	702	San José Chacayá	5	Chacayá	7	Julio	2023-05-07T00:00:00	2024-11-06T02:00:00	8	Radiación solar	0
105617	7	Sololá	702	San José Chacayá	5	Chacayá	7	Julio	2023-05-07T00:00:00	2024-11-06T03:00:00	2	Temperatura media	13.3
105618	7	Sololá	702	San José Chacayá	5	Chacayá	7	Julio	2023-05-07T00:00:00	2024-11-06T03:00:00	4	Temperatura máxima	14.1
105619	7	Sololá	702	San José Chacayá	5	Chacayá	7	Julio	2023-05-07T00:00:00	2024-11-06T03:00:00	3	Temperatura mínima	13.3
105620	7	Sololá	702	San José Chacayá	5	Chacayá	7	Julio	2023-05-07T00:00:00	2024-11-06T03:00:00	5	Humedad	95
105621	7	Sololá	702	San José Chacayá	5	Chacayá	7	Julio	2023-05-07T00:00:00	2024-11-06T03:00:00	6	Velocidad del viento	0
105622	7	Sololá	702	San José Chacayá	5	Chacayá	7	Julio	2023-05-07T00:00:00	2024-11-06T03:00:00	7	Dirección del viento	0
105623	7	Sololá	702	San José Chacayá	5	Chacayá	7	Julio	2023-05-07T00:00:00	2024-11-06T03:00:00	1	Precipitación	0
105624	7	Sololá	702	San José Chacayá	5	Chacayá	7	Julio	2023-05-07T00:00:00	2024-11-06T03:00:00	8	Radiación solar	0
105625	7	Sololá	702	San José Chacayá	5	Chacayá	7	Julio	2023-05-07T00:00:00	2024-11-06T04:00:00	2	Temperatura media	12.6
105626	7	Sololá	702	San José Chacayá	5	Chacayá	7	Julio	2023-05-07T00:00:00	2024-11-06T04:00:00	4	Temperatura máxima	13.3
105627	7	Sololá	702	San José Chacayá	5	Chacayá	7	Julio	2023-05-07T00:00:00	2024-11-06T04:00:00	3	Temperatura mínima	12.6
105628	7	Sololá	702	San José Chacayá	5	Chacayá	7	Julio	2023-05-07T00:00:00	2024-11-06T04:00:00	5	Humedad	96
105629	7	Sololá	702	San José Chacayá	5	Chacayá	7	Julio	2023-05-07T00:00:00	2024-11-06T04:00:00	6	Velocidad del viento	0
105630	7	Sololá	702	San José Chacayá	5	Chacayá	7	Julio	2023-05-07T00:00:00	2024-11-06T04:00:00	7	Dirección del viento	0
105631	7	Sololá	702	San José Chacayá	5	Chacayá	7	Julio	2023-05-07T00:00:00	2024-11-06T04:00:00	1	Precipitación	0
105632	7	Sololá	702	San José Chacayá	5	Chacayá	7	Julio	2023-05-07T00:00:00	2024-11-06T04:00:00	8	Radiación solar	0
105633	7	Sololá	702	San José Chacayá	5	Chacayá	7	Julio	2023-05-07T00:00:00	2024-11-06T05:00:00	2	Temperatura media	11.9
105634	7	Sololá	702	San José Chacayá	5	Chacayá	7	Julio	2023-05-07T00:00:00	2024-11-06T05:00:00	4	Temperatura máxima	12.6
105635	7	Sololá	702	San José Chacayá	5	Chacayá	7	Julio	2023-05-07T00:00:00	2024-11-06T05:00:00	3	Temperatura mínima	11.9
105636	7	Sololá	702	San José Chacayá	5	Chacayá	7	Julio	2023-05-07T00:00:00	2024-11-06T05:00:00	5	Humedad	96
105637	7	Sololá	702	San José Chacayá	5	Chacayá	7	Julio	2023-05-07T00:00:00	2024-11-06T05:00:00	6	Velocidad del viento	0
105638	7	Sololá	702	San José Chacayá	5	Chacayá	7	Julio	2023-05-07T00:00:00	2024-11-06T05:00:00	7	Dirección del viento	0
105639	7	Sololá	702	San José Chacayá	5	Chacayá	7	Julio	2023-05-07T00:00:00	2024-11-06T05:00:00	1	Precipitación	0
105640	7	Sololá	702	San José Chacayá	5	Chacayá	7	Julio	2023-05-07T00:00:00	2024-11-06T05:00:00	8	Radiación solar	0
105641	7	Sololá	702	San José Chacayá	5	Chacayá	7	Julio	2023-05-07T00:00:00	2024-11-06T06:00:00	2	Temperatura media	11.7
105642	7	Sololá	702	San José Chacayá	5	Chacayá	7	Julio	2023-05-07T00:00:00	2024-11-06T06:00:00	4	Temperatura máxima	12
105643	7	Sololá	702	San José Chacayá	5	Chacayá	7	Julio	2023-05-07T00:00:00	2024-11-06T06:00:00	3	Temperatura mínima	11.7
105644	7	Sololá	702	San José Chacayá	5	Chacayá	7	Julio	2023-05-07T00:00:00	2024-11-06T06:00:00	5	Humedad	96
105645	7	Sololá	702	San José Chacayá	5	Chacayá	7	Julio	2023-05-07T00:00:00	2024-11-06T06:00:00	6	Velocidad del viento	0
105646	7	Sololá	702	San José Chacayá	5	Chacayá	7	Julio	2023-05-07T00:00:00	2024-11-06T06:00:00	7	Dirección del viento	0
105647	7	Sololá	702	San José Chacayá	5	Chacayá	7	Julio	2023-05-07T00:00:00	2024-11-06T06:00:00	1	Precipitación	0
105648	7	Sololá	702	San José Chacayá	5	Chacayá	7	Julio	2023-05-07T00:00:00	2024-11-06T06:00:00	8	Radiación solar	5
105649	7	Sololá	702	San José Chacayá	5	Chacayá	7	Julio	2023-05-07T00:00:00	2024-11-06T07:00:00	2	Temperatura media	13
105650	7	Sololá	702	San José Chacayá	5	Chacayá	7	Julio	2023-05-07T00:00:00	2024-11-06T07:00:00	4	Temperatura máxima	13
105651	7	Sololá	702	San José Chacayá	5	Chacayá	7	Julio	2023-05-07T00:00:00	2024-11-06T07:00:00	3	Temperatura mínima	11.7
105652	7	Sololá	702	San José Chacayá	5	Chacayá	7	Julio	2023-05-07T00:00:00	2024-11-06T07:00:00	5	Humedad	98
105653	7	Sololá	702	San José Chacayá	5	Chacayá	7	Julio	2023-05-07T00:00:00	2024-11-06T07:00:00	6	Velocidad del viento	0
105654	7	Sololá	702	San José Chacayá	5	Chacayá	7	Julio	2023-05-07T00:00:00	2024-11-06T07:00:00	7	Dirección del viento	0
105655	7	Sololá	702	San José Chacayá	5	Chacayá	7	Julio	2023-05-07T00:00:00	2024-11-06T07:00:00	1	Precipitación	0
105656	7	Sololá	702	San José Chacayá	5	Chacayá	7	Julio	2023-05-07T00:00:00	2024-11-06T07:00:00	8	Radiación solar	38
105657	7	Sololá	702	San José Chacayá	5	Chacayá	7	Julio	2023-05-07T00:00:00	2024-11-06T08:00:00	2	Temperatura media	16.9
105658	7	Sololá	702	San José Chacayá	5	Chacayá	7	Julio	2023-05-07T00:00:00	2024-11-06T08:00:00	4	Temperatura máxima	16.9
105659	7	Sololá	702	San José Chacayá	5	Chacayá	7	Julio	2023-05-07T00:00:00	2024-11-06T08:00:00	3	Temperatura mínima	13
105660	7	Sololá	702	San José Chacayá	5	Chacayá	7	Julio	2023-05-07T00:00:00	2024-11-06T08:00:00	5	Humedad	84
105661	7	Sololá	702	San José Chacayá	5	Chacayá	7	Julio	2023-05-07T00:00:00	2024-11-06T08:00:00	6	Velocidad del viento	1.6
105662	7	Sololá	702	San José Chacayá	5	Chacayá	7	Julio	2023-05-07T00:00:00	2024-11-06T08:00:00	7	Dirección del viento	1.61
105663	7	Sololá	702	San José Chacayá	5	Chacayá	7	Julio	2023-05-07T00:00:00	2024-11-06T08:00:00	1	Precipitación	0
105664	7	Sololá	702	San José Chacayá	5	Chacayá	7	Julio	2023-05-07T00:00:00	2024-11-06T08:00:00	8	Radiación solar	94
105665	7	Sololá	702	San José Chacayá	5	Chacayá	7	Julio	2023-05-07T00:00:00	2024-11-06T09:00:00	2	Temperatura media	18.9
105666	7	Sololá	702	San José Chacayá	5	Chacayá	7	Julio	2023-05-07T00:00:00	2024-11-06T09:00:00	4	Temperatura máxima	18.9
105667	7	Sololá	702	San José Chacayá	5	Chacayá	7	Julio	2023-05-07T00:00:00	2024-11-06T09:00:00	3	Temperatura mínima	16.9
105668	7	Sololá	702	San José Chacayá	5	Chacayá	7	Julio	2023-05-07T00:00:00	2024-11-06T09:00:00	5	Humedad	75
105669	7	Sololá	702	San José Chacayá	5	Chacayá	7	Julio	2023-05-07T00:00:00	2024-11-06T09:00:00	6	Velocidad del viento	3.2
105670	7	Sololá	702	San José Chacayá	5	Chacayá	7	Julio	2023-05-07T00:00:00	2024-11-06T09:00:00	7	Dirección del viento	3.22
105671	7	Sololá	702	San José Chacayá	5	Chacayá	7	Julio	2023-05-07T00:00:00	2024-11-06T09:00:00	1	Precipitación	0
105672	7	Sololá	702	San José Chacayá	5	Chacayá	7	Julio	2023-05-07T00:00:00	2024-11-06T09:00:00	8	Radiación solar	328
105673	7	Sololá	702	San José Chacayá	5	Chacayá	7	Julio	2023-05-07T00:00:00	2024-11-06T10:00:00	2	Temperatura media	21.1
105674	7	Sololá	702	San José Chacayá	5	Chacayá	7	Julio	2023-05-07T00:00:00	2024-11-06T10:00:00	4	Temperatura máxima	21.4
105675	7	Sololá	702	San José Chacayá	5	Chacayá	7	Julio	2023-05-07T00:00:00	2024-11-06T10:00:00	3	Temperatura mínima	18.9
105676	7	Sololá	702	San José Chacayá	5	Chacayá	7	Julio	2023-05-07T00:00:00	2024-11-06T10:00:00	5	Humedad	67
105677	7	Sololá	702	San José Chacayá	5	Chacayá	7	Julio	2023-05-07T00:00:00	2024-11-06T10:00:00	6	Velocidad del viento	4.8
105678	7	Sololá	702	San José Chacayá	5	Chacayá	7	Julio	2023-05-07T00:00:00	2024-11-06T10:00:00	7	Dirección del viento	4.83
105679	7	Sololá	702	San José Chacayá	5	Chacayá	7	Julio	2023-05-07T00:00:00	2024-11-06T10:00:00	1	Precipitación	0
105680	7	Sololá	702	San José Chacayá	5	Chacayá	7	Julio	2023-05-07T00:00:00	2024-11-06T10:00:00	8	Radiación solar	388
105681	7	Sololá	702	San José Chacayá	5	Chacayá	7	Julio	2023-05-07T00:00:00	2024-11-06T11:00:00	2	Temperatura media	22.5
105682	7	Sololá	702	San José Chacayá	5	Chacayá	7	Julio	2023-05-07T00:00:00	2024-11-06T11:00:00	4	Temperatura máxima	22.5
105683	7	Sololá	702	San José Chacayá	5	Chacayá	7	Julio	2023-05-07T00:00:00	2024-11-06T11:00:00	3	Temperatura mínima	21
105684	7	Sololá	702	San José Chacayá	5	Chacayá	7	Julio	2023-05-07T00:00:00	2024-11-06T11:00:00	5	Humedad	65
105685	7	Sololá	702	San José Chacayá	5	Chacayá	7	Julio	2023-05-07T00:00:00	2024-11-06T11:00:00	6	Velocidad del viento	6.4
105686	7	Sololá	702	San José Chacayá	5	Chacayá	7	Julio	2023-05-07T00:00:00	2024-11-06T11:00:00	7	Dirección del viento	6.44
105687	7	Sololá	702	San José Chacayá	5	Chacayá	7	Julio	2023-05-07T00:00:00	2024-11-06T11:00:00	1	Precipitación	0
105688	7	Sololá	702	San José Chacayá	5	Chacayá	7	Julio	2023-05-07T00:00:00	2024-11-06T11:00:00	8	Radiación solar	593
105689	7	Sololá	702	San José Chacayá	5	Chacayá	7	Julio	2023-05-07T00:00:00	2024-11-06T12:00:00	2	Temperatura media	23.1
105690	7	Sololá	702	San José Chacayá	5	Chacayá	7	Julio	2023-05-07T00:00:00	2024-11-06T12:00:00	4	Temperatura máxima	23.3
105691	7	Sololá	702	San José Chacayá	5	Chacayá	7	Julio	2023-05-07T00:00:00	2024-11-06T12:00:00	3	Temperatura mínima	22.1
105692	7	Sololá	702	San José Chacayá	5	Chacayá	7	Julio	2023-05-07T00:00:00	2024-11-06T12:00:00	5	Humedad	64
105693	7	Sololá	702	San José Chacayá	5	Chacayá	7	Julio	2023-05-07T00:00:00	2024-11-06T12:00:00	6	Velocidad del viento	6.4
105694	7	Sololá	702	San José Chacayá	5	Chacayá	7	Julio	2023-05-07T00:00:00	2024-11-06T12:00:00	7	Dirección del viento	6.44
105695	7	Sololá	702	San José Chacayá	5	Chacayá	7	Julio	2023-05-07T00:00:00	2024-11-06T12:00:00	1	Precipitación	0
105696	7	Sololá	702	San José Chacayá	5	Chacayá	7	Julio	2023-05-07T00:00:00	2024-11-06T12:00:00	8	Radiación solar	377
105697	7	Sololá	702	San José Chacayá	5	Chacayá	7	Julio	2023-05-07T00:00:00	2024-11-06T13:00:00	2	Temperatura media	22.8
105698	7	Sololá	702	San José Chacayá	5	Chacayá	7	Julio	2023-05-07T00:00:00	2024-11-06T13:00:00	4	Temperatura máxima	23.3
105699	7	Sololá	702	San José Chacayá	5	Chacayá	7	Julio	2023-05-07T00:00:00	2024-11-06T13:00:00	3	Temperatura mínima	22
105700	7	Sololá	702	San José Chacayá	5	Chacayá	7	Julio	2023-05-07T00:00:00	2024-11-06T13:00:00	5	Humedad	73
105701	7	Sololá	702	San José Chacayá	5	Chacayá	7	Julio	2023-05-07T00:00:00	2024-11-06T13:00:00	6	Velocidad del viento	6.4
105702	7	Sololá	702	San José Chacayá	5	Chacayá	7	Julio	2023-05-07T00:00:00	2024-11-06T13:00:00	7	Dirección del viento	6.44
105703	7	Sololá	702	San José Chacayá	5	Chacayá	7	Julio	2023-05-07T00:00:00	2024-11-06T13:00:00	1	Precipitación	0
105704	7	Sololá	702	San José Chacayá	5	Chacayá	7	Julio	2023-05-07T00:00:00	2024-11-06T13:00:00	8	Radiación solar	253
105705	7	Sololá	702	San José Chacayá	5	Chacayá	7	Julio	2023-05-07T00:00:00	2024-11-06T14:00:00	2	Temperatura media	19.7
105706	7	Sololá	702	San José Chacayá	5	Chacayá	7	Julio	2023-05-07T00:00:00	2024-11-06T14:00:00	4	Temperatura máxima	23
105707	7	Sololá	702	San José Chacayá	5	Chacayá	7	Julio	2023-05-07T00:00:00	2024-11-06T14:00:00	3	Temperatura mínima	19.4
105708	7	Sololá	702	San José Chacayá	5	Chacayá	7	Julio	2023-05-07T00:00:00	2024-11-06T14:00:00	5	Humedad	82
105709	7	Sololá	702	San José Chacayá	5	Chacayá	7	Julio	2023-05-07T00:00:00	2024-11-06T14:00:00	6	Velocidad del viento	3.2
105710	7	Sololá	702	San José Chacayá	5	Chacayá	7	Julio	2023-05-07T00:00:00	2024-11-06T14:00:00	7	Dirección del viento	3.22
105711	7	Sololá	702	San José Chacayá	5	Chacayá	7	Julio	2023-05-07T00:00:00	2024-11-06T14:00:00	1	Precipitación	0
105712	7	Sololá	702	San José Chacayá	5	Chacayá	7	Julio	2023-05-07T00:00:00	2024-11-06T14:00:00	8	Radiación solar	34
105713	7	Sololá	702	San José Chacayá	5	Chacayá	7	Julio	2023-05-07T00:00:00	2024-11-06T15:00:00	2	Temperatura media	17.9
105714	7	Sololá	702	San José Chacayá	5	Chacayá	7	Julio	2023-05-07T00:00:00	2024-11-06T15:00:00	4	Temperatura máxima	19.7
105715	7	Sololá	702	San José Chacayá	5	Chacayá	7	Julio	2023-05-07T00:00:00	2024-11-06T15:00:00	3	Temperatura mínima	17.6
105716	7	Sololá	702	San José Chacayá	5	Chacayá	7	Julio	2023-05-07T00:00:00	2024-11-06T15:00:00	5	Humedad	89
105717	7	Sololá	702	San José Chacayá	5	Chacayá	7	Julio	2023-05-07T00:00:00	2024-11-06T15:00:00	6	Velocidad del viento	1.6
105718	7	Sololá	702	San José Chacayá	5	Chacayá	7	Julio	2023-05-07T00:00:00	2024-11-06T15:00:00	7	Dirección del viento	1.61
105719	7	Sololá	702	San José Chacayá	5	Chacayá	7	Julio	2023-05-07T00:00:00	2024-11-06T15:00:00	1	Precipitación	0
105720	7	Sololá	702	San José Chacayá	5	Chacayá	7	Julio	2023-05-07T00:00:00	2024-11-06T15:00:00	8	Radiación solar	63
105721	7	Sololá	702	San José Chacayá	5	Chacayá	7	Julio	2023-05-07T00:00:00	2024-11-06T16:00:00	2	Temperatura media	21.1
105722	7	Sololá	702	San José Chacayá	5	Chacayá	7	Julio	2023-05-07T00:00:00	2024-11-06T16:00:00	4	Temperatura máxima	21.6
105723	7	Sololá	702	San José Chacayá	5	Chacayá	7	Julio	2023-05-07T00:00:00	2024-11-06T16:00:00	3	Temperatura mínima	17.9
105724	7	Sololá	702	San José Chacayá	5	Chacayá	7	Julio	2023-05-07T00:00:00	2024-11-06T16:00:00	5	Humedad	79
105725	7	Sololá	702	San José Chacayá	5	Chacayá	7	Julio	2023-05-07T00:00:00	2024-11-06T16:00:00	6	Velocidad del viento	1.6
105726	7	Sololá	702	San José Chacayá	5	Chacayá	7	Julio	2023-05-07T00:00:00	2024-11-06T16:00:00	7	Dirección del viento	1.61
105727	7	Sololá	702	San José Chacayá	5	Chacayá	7	Julio	2023-05-07T00:00:00	2024-11-06T16:00:00	1	Precipitación	0
105728	7	Sololá	702	San José Chacayá	5	Chacayá	7	Julio	2023-05-07T00:00:00	2024-11-06T16:00:00	8	Radiación solar	84
105729	7	Sololá	702	San José Chacayá	5	Chacayá	7	Julio	2023-05-07T00:00:00	2024-11-06T17:00:00	2	Temperatura media	18.6
105730	7	Sololá	702	San José Chacayá	5	Chacayá	7	Julio	2023-05-07T00:00:00	2024-11-06T17:00:00	4	Temperatura máxima	21.1
105731	7	Sololá	702	San José Chacayá	5	Chacayá	7	Julio	2023-05-07T00:00:00	2024-11-06T17:00:00	3	Temperatura mínima	18.6
105732	7	Sololá	702	San José Chacayá	5	Chacayá	7	Julio	2023-05-07T00:00:00	2024-11-06T17:00:00	5	Humedad	86
105733	7	Sololá	702	San José Chacayá	5	Chacayá	7	Julio	2023-05-07T00:00:00	2024-11-06T17:00:00	6	Velocidad del viento	3.2
105734	7	Sololá	702	San José Chacayá	5	Chacayá	7	Julio	2023-05-07T00:00:00	2024-11-06T17:00:00	7	Dirección del viento	3.22
105735	7	Sololá	702	San José Chacayá	5	Chacayá	7	Julio	2023-05-07T00:00:00	2024-11-06T17:00:00	1	Precipitación	0
105736	7	Sololá	702	San José Chacayá	5	Chacayá	7	Julio	2023-05-07T00:00:00	2024-11-06T17:00:00	8	Radiación solar	165
105737	7	Sololá	702	San José Chacayá	5	Chacayá	7	Julio	2023-05-07T00:00:00	2024-11-06T18:00:00	2	Temperatura media	17.4
105738	7	Sololá	702	San José Chacayá	5	Chacayá	7	Julio	2023-05-07T00:00:00	2024-11-06T18:00:00	4	Temperatura máxima	18.6
105739	7	Sololá	702	San José Chacayá	5	Chacayá	7	Julio	2023-05-07T00:00:00	2024-11-06T18:00:00	3	Temperatura mínima	17.4
105740	7	Sololá	702	San José Chacayá	5	Chacayá	7	Julio	2023-05-07T00:00:00	2024-11-06T18:00:00	5	Humedad	86
105741	7	Sololá	702	San José Chacayá	5	Chacayá	7	Julio	2023-05-07T00:00:00	2024-11-06T18:00:00	6	Velocidad del viento	1.6
105742	7	Sololá	702	San José Chacayá	5	Chacayá	7	Julio	2023-05-07T00:00:00	2024-11-06T18:00:00	7	Dirección del viento	1.61
105743	7	Sololá	702	San José Chacayá	5	Chacayá	7	Julio	2023-05-07T00:00:00	2024-11-06T18:00:00	1	Precipitación	0
105744	7	Sololá	702	San José Chacayá	5	Chacayá	7	Julio	2023-05-07T00:00:00	2024-11-06T18:00:00	8	Radiación solar	129
105745	7	Sololá	702	San José Chacayá	5	Chacayá	7	Julio	2023-05-07T00:00:00	2024-11-06T19:00:00	2	Temperatura media	15.4
105746	7	Sololá	702	San José Chacayá	5	Chacayá	7	Julio	2023-05-07T00:00:00	2024-11-06T19:00:00	4	Temperatura máxima	17.4
105747	7	Sololá	702	San José Chacayá	5	Chacayá	7	Julio	2023-05-07T00:00:00	2024-11-06T19:00:00	3	Temperatura mínima	15.4
105748	7	Sololá	702	San José Chacayá	5	Chacayá	7	Julio	2023-05-07T00:00:00	2024-11-06T19:00:00	5	Humedad	90
105749	7	Sololá	702	San José Chacayá	5	Chacayá	7	Julio	2023-05-07T00:00:00	2024-11-06T19:00:00	6	Velocidad del viento	0
105750	7	Sololá	702	San José Chacayá	5	Chacayá	7	Julio	2023-05-07T00:00:00	2024-11-06T19:00:00	7	Dirección del viento	0
105751	7	Sololá	702	San José Chacayá	5	Chacayá	7	Julio	2023-05-07T00:00:00	2024-11-06T19:00:00	1	Precipitación	0
105752	7	Sololá	702	San José Chacayá	5	Chacayá	7	Julio	2023-05-07T00:00:00	2024-11-06T19:00:00	8	Radiación solar	0
105753	7	Sololá	702	San José Chacayá	5	Chacayá	7	Julio	2023-05-07T00:00:00	2024-11-06T20:00:00	2	Temperatura media	13.2
105754	7	Sololá	702	San José Chacayá	5	Chacayá	7	Julio	2023-05-07T00:00:00	2024-11-06T20:00:00	4	Temperatura máxima	15.4
105755	7	Sololá	702	San José Chacayá	5	Chacayá	7	Julio	2023-05-07T00:00:00	2024-11-06T20:00:00	3	Temperatura mínima	13.2
105756	7	Sololá	702	San José Chacayá	5	Chacayá	7	Julio	2023-05-07T00:00:00	2024-11-06T20:00:00	5	Humedad	88
105757	7	Sololá	702	San José Chacayá	5	Chacayá	7	Julio	2023-05-07T00:00:00	2024-11-06T20:00:00	6	Velocidad del viento	0
105758	7	Sololá	702	San José Chacayá	5	Chacayá	7	Julio	2023-05-07T00:00:00	2024-11-06T20:00:00	7	Dirección del viento	0
105759	7	Sololá	702	San José Chacayá	5	Chacayá	7	Julio	2023-05-07T00:00:00	2024-11-06T20:00:00	1	Precipitación	0
105760	7	Sololá	702	San José Chacayá	5	Chacayá	7	Julio	2023-05-07T00:00:00	2024-11-06T20:00:00	8	Radiación solar	0
105761	7	Sololá	702	San José Chacayá	5	Chacayá	7	Julio	2023-05-07T00:00:00	2024-11-06T21:00:00	2	Temperatura media	13.3
105762	7	Sololá	702	San José Chacayá	5	Chacayá	7	Julio	2023-05-07T00:00:00	2024-11-06T21:00:00	4	Temperatura máxima	13.3
105763	7	Sololá	702	San José Chacayá	5	Chacayá	7	Julio	2023-05-07T00:00:00	2024-11-06T21:00:00	3	Temperatura mínima	12.5
105764	7	Sololá	702	San José Chacayá	5	Chacayá	7	Julio	2023-05-07T00:00:00	2024-11-06T21:00:00	5	Humedad	89
105765	7	Sololá	702	San José Chacayá	5	Chacayá	7	Julio	2023-05-07T00:00:00	2024-11-06T21:00:00	6	Velocidad del viento	1.6
105766	7	Sololá	702	San José Chacayá	5	Chacayá	7	Julio	2023-05-07T00:00:00	2024-11-06T21:00:00	7	Dirección del viento	1.61
105767	7	Sololá	702	San José Chacayá	5	Chacayá	7	Julio	2023-05-07T00:00:00	2024-11-06T21:00:00	1	Precipitación	0
105768	7	Sololá	702	San José Chacayá	5	Chacayá	7	Julio	2023-05-07T00:00:00	2024-11-06T21:00:00	8	Radiación solar	0
105769	7	Sololá	702	San José Chacayá	5	Chacayá	7	Julio	2023-05-07T00:00:00	2024-11-06T22:00:00	2	Temperatura media	13.2
105770	7	Sololá	702	San José Chacayá	5	Chacayá	7	Julio	2023-05-07T00:00:00	2024-11-06T22:00:00	4	Temperatura máxima	14.1
105771	7	Sololá	702	San José Chacayá	5	Chacayá	7	Julio	2023-05-07T00:00:00	2024-11-06T22:00:00	3	Temperatura mínima	13
105772	7	Sololá	702	San José Chacayá	5	Chacayá	7	Julio	2023-05-07T00:00:00	2024-11-06T22:00:00	5	Humedad	91
105773	7	Sololá	702	San José Chacayá	5	Chacayá	7	Julio	2023-05-07T00:00:00	2024-11-06T22:00:00	6	Velocidad del viento	1.6
105774	7	Sololá	702	San José Chacayá	5	Chacayá	7	Julio	2023-05-07T00:00:00	2024-11-06T22:00:00	7	Dirección del viento	1.61
105775	7	Sololá	702	San José Chacayá	5	Chacayá	7	Julio	2023-05-07T00:00:00	2024-11-06T22:00:00	1	Precipitación	0
105776	7	Sololá	702	San José Chacayá	5	Chacayá	7	Julio	2023-05-07T00:00:00	2024-11-06T22:00:00	8	Radiación solar	0
105777	7	Sololá	702	San José Chacayá	5	Chacayá	7	Julio	2023-05-07T00:00:00	2024-11-06T23:00:00	2	Temperatura media	14.1
105778	7	Sololá	702	San José Chacayá	5	Chacayá	7	Julio	2023-05-07T00:00:00	2024-11-06T23:00:00	4	Temperatura máxima	14.9
105779	7	Sololá	702	San José Chacayá	5	Chacayá	7	Julio	2023-05-07T00:00:00	2024-11-06T23:00:00	3	Temperatura mínima	13.2
105780	7	Sololá	702	San José Chacayá	5	Chacayá	7	Julio	2023-05-07T00:00:00	2024-11-06T23:00:00	5	Humedad	87
105781	7	Sololá	702	San José Chacayá	5	Chacayá	7	Julio	2023-05-07T00:00:00	2024-11-06T23:00:00	6	Velocidad del viento	1.6
105782	7	Sololá	702	San José Chacayá	5	Chacayá	7	Julio	2023-05-07T00:00:00	2024-11-06T23:00:00	7	Dirección del viento	1.61
105783	7	Sololá	702	San José Chacayá	5	Chacayá	7	Julio	2023-05-07T00:00:00	2024-11-06T23:00:00	1	Precipitación	0
105784	7	Sololá	702	San José Chacayá	5	Chacayá	7	Julio	2023-05-07T00:00:00	2024-11-06T23:00:00	8	Radiación solar	0
105785	7	Sololá	702	San José Chacayá	5	Chacayá	7	Julio	2023-06-07T00:00:00	2024-11-06T00:00:00	2	Temperatura media	12.7
105786	7	Sololá	702	San José Chacayá	5	Chacayá	7	Julio	2023-06-07T00:00:00	2024-11-06T00:00:00	4	Temperatura máxima	14.1
105787	7	Sololá	702	San José Chacayá	5	Chacayá	7	Julio	2023-06-07T00:00:00	2024-11-06T00:00:00	3	Temperatura mínima	12.7
105788	7	Sololá	702	San José Chacayá	5	Chacayá	7	Julio	2023-06-07T00:00:00	2024-11-06T00:00:00	5	Humedad	92
105789	7	Sololá	702	San José Chacayá	5	Chacayá	7	Julio	2023-06-07T00:00:00	2024-11-06T00:00:00	6	Velocidad del viento	0
105790	7	Sololá	702	San José Chacayá	5	Chacayá	7	Julio	2023-06-07T00:00:00	2024-11-06T00:00:00	7	Dirección del viento	0
105791	7	Sololá	702	San José Chacayá	5	Chacayá	7	Julio	2023-06-07T00:00:00	2024-11-06T00:00:00	1	Precipitación	0
105792	7	Sololá	702	San José Chacayá	5	Chacayá	7	Julio	2023-06-07T00:00:00	2024-11-06T00:00:00	8	Radiación solar	0
105793	7	Sololá	702	San José Chacayá	5	Chacayá	7	Julio	2023-06-07T00:00:00	2024-11-06T01:00:00	2	Temperatura media	12
105794	7	Sololá	702	San José Chacayá	5	Chacayá	7	Julio	2023-06-07T00:00:00	2024-11-06T01:00:00	4	Temperatura máxima	12.7
105795	7	Sololá	702	San José Chacayá	5	Chacayá	7	Julio	2023-06-07T00:00:00	2024-11-06T01:00:00	3	Temperatura mínima	12
105796	7	Sololá	702	San José Chacayá	5	Chacayá	7	Julio	2023-06-07T00:00:00	2024-11-06T01:00:00	5	Humedad	92
105797	7	Sololá	702	San José Chacayá	5	Chacayá	7	Julio	2023-06-07T00:00:00	2024-11-06T01:00:00	6	Velocidad del viento	0
105798	7	Sololá	702	San José Chacayá	5	Chacayá	7	Julio	2023-06-07T00:00:00	2024-11-06T01:00:00	7	Dirección del viento	0
105799	7	Sololá	702	San José Chacayá	5	Chacayá	7	Julio	2023-06-07T00:00:00	2024-11-06T01:00:00	1	Precipitación	0
105800	7	Sololá	702	San José Chacayá	5	Chacayá	7	Julio	2023-06-07T00:00:00	2024-11-06T01:00:00	8	Radiación solar	0
105801	7	Sololá	702	San José Chacayá	5	Chacayá	7	Julio	2023-06-07T00:00:00	2024-11-06T02:00:00	2	Temperatura media	11.7
105802	7	Sololá	702	San José Chacayá	5	Chacayá	7	Julio	2023-06-07T00:00:00	2024-11-06T02:00:00	4	Temperatura máxima	12.2
105803	7	Sololá	702	San José Chacayá	5	Chacayá	7	Julio	2023-06-07T00:00:00	2024-11-06T02:00:00	3	Temperatura mínima	11.6
105804	7	Sololá	702	San José Chacayá	5	Chacayá	7	Julio	2023-06-07T00:00:00	2024-11-06T02:00:00	5	Humedad	91
105805	7	Sololá	702	San José Chacayá	5	Chacayá	7	Julio	2023-06-07T00:00:00	2024-11-06T02:00:00	6	Velocidad del viento	1.6
105806	7	Sololá	702	San José Chacayá	5	Chacayá	7	Julio	2023-06-07T00:00:00	2024-11-06T02:00:00	7	Dirección del viento	1.61
105807	7	Sololá	702	San José Chacayá	5	Chacayá	7	Julio	2023-06-07T00:00:00	2024-11-06T02:00:00	1	Precipitación	0
105808	7	Sololá	702	San José Chacayá	5	Chacayá	7	Julio	2023-06-07T00:00:00	2024-11-06T02:00:00	8	Radiación solar	0
105809	7	Sololá	702	San José Chacayá	5	Chacayá	7	Julio	2023-06-07T00:00:00	2024-11-06T03:00:00	2	Temperatura media	10.8
105810	7	Sololá	702	San José Chacayá	5	Chacayá	7	Julio	2023-06-07T00:00:00	2024-11-06T03:00:00	4	Temperatura máxima	11.7
105811	7	Sololá	702	San José Chacayá	5	Chacayá	7	Julio	2023-06-07T00:00:00	2024-11-06T03:00:00	3	Temperatura mínima	10.8
105812	7	Sololá	702	San José Chacayá	5	Chacayá	7	Julio	2023-06-07T00:00:00	2024-11-06T03:00:00	5	Humedad	93
105813	7	Sololá	702	San José Chacayá	5	Chacayá	7	Julio	2023-06-07T00:00:00	2024-11-06T03:00:00	6	Velocidad del viento	0
105814	7	Sololá	702	San José Chacayá	5	Chacayá	7	Julio	2023-06-07T00:00:00	2024-11-06T03:00:00	7	Dirección del viento	0
105815	7	Sololá	702	San José Chacayá	5	Chacayá	7	Julio	2023-06-07T00:00:00	2024-11-06T03:00:00	1	Precipitación	0
105816	7	Sololá	702	San José Chacayá	5	Chacayá	7	Julio	2023-06-07T00:00:00	2024-11-06T03:00:00	8	Radiación solar	0
105817	7	Sololá	702	San José Chacayá	5	Chacayá	7	Julio	2023-06-07T00:00:00	2024-11-06T04:00:00	2	Temperatura media	10.3
105818	7	Sololá	702	San José Chacayá	5	Chacayá	7	Julio	2023-06-07T00:00:00	2024-11-06T04:00:00	4	Temperatura máxima	10.8
105819	7	Sololá	702	San José Chacayá	5	Chacayá	7	Julio	2023-06-07T00:00:00	2024-11-06T04:00:00	3	Temperatura mínima	10.3
105820	7	Sololá	702	San José Chacayá	5	Chacayá	7	Julio	2023-06-07T00:00:00	2024-11-06T04:00:00	5	Humedad	93
105821	7	Sololá	702	San José Chacayá	5	Chacayá	7	Julio	2023-06-07T00:00:00	2024-11-06T04:00:00	6	Velocidad del viento	0
105822	7	Sololá	702	San José Chacayá	5	Chacayá	7	Julio	2023-06-07T00:00:00	2024-11-06T04:00:00	7	Dirección del viento	0
105823	7	Sololá	702	San José Chacayá	5	Chacayá	7	Julio	2023-06-07T00:00:00	2024-11-06T04:00:00	1	Precipitación	0
105824	7	Sololá	702	San José Chacayá	5	Chacayá	7	Julio	2023-06-07T00:00:00	2024-11-06T04:00:00	8	Radiación solar	0
105825	7	Sololá	702	San José Chacayá	5	Chacayá	7	Julio	2023-06-07T00:00:00	2024-11-06T05:00:00	2	Temperatura media	9.9
105826	7	Sololá	702	San José Chacayá	5	Chacayá	7	Julio	2023-06-07T00:00:00	2024-11-06T05:00:00	4	Temperatura máxima	10.4
105827	7	Sololá	702	San José Chacayá	5	Chacayá	7	Julio	2023-06-07T00:00:00	2024-11-06T05:00:00	3	Temperatura mínima	9.9
105828	7	Sololá	702	San José Chacayá	5	Chacayá	7	Julio	2023-06-07T00:00:00	2024-11-06T05:00:00	5	Humedad	93
105829	7	Sololá	702	San José Chacayá	5	Chacayá	7	Julio	2023-06-07T00:00:00	2024-11-06T05:00:00	6	Velocidad del viento	0
105830	7	Sololá	702	San José Chacayá	5	Chacayá	7	Julio	2023-06-07T00:00:00	2024-11-06T05:00:00	7	Dirección del viento	0
105831	7	Sololá	702	San José Chacayá	5	Chacayá	7	Julio	2023-06-07T00:00:00	2024-11-06T05:00:00	1	Precipitación	0
105832	7	Sololá	702	San José Chacayá	5	Chacayá	7	Julio	2023-06-07T00:00:00	2024-11-06T05:00:00	8	Radiación solar	0
105833	7	Sololá	702	San José Chacayá	5	Chacayá	7	Julio	2023-06-07T00:00:00	2024-11-06T06:00:00	2	Temperatura media	9.8
105834	7	Sololá	702	San José Chacayá	5	Chacayá	7	Julio	2023-06-07T00:00:00	2024-11-06T06:00:00	4	Temperatura máxima	10
105835	7	Sololá	702	San José Chacayá	5	Chacayá	7	Julio	2023-06-07T00:00:00	2024-11-06T06:00:00	3	Temperatura mínima	9.7
105836	7	Sololá	702	San José Chacayá	5	Chacayá	7	Julio	2023-06-07T00:00:00	2024-11-06T06:00:00	5	Humedad	94
105837	7	Sololá	702	San José Chacayá	5	Chacayá	7	Julio	2023-06-07T00:00:00	2024-11-06T06:00:00	6	Velocidad del viento	0
105838	7	Sololá	702	San José Chacayá	5	Chacayá	7	Julio	2023-06-07T00:00:00	2024-11-06T06:00:00	7	Dirección del viento	0
105839	7	Sololá	702	San José Chacayá	5	Chacayá	7	Julio	2023-06-07T00:00:00	2024-11-06T06:00:00	1	Precipitación	0
105840	7	Sololá	702	San José Chacayá	5	Chacayá	7	Julio	2023-06-07T00:00:00	2024-11-06T06:00:00	8	Radiación solar	4
105841	7	Sololá	702	San José Chacayá	5	Chacayá	7	Julio	2023-06-07T00:00:00	2024-11-06T07:00:00	2	Temperatura media	12.3
105842	7	Sololá	702	San José Chacayá	5	Chacayá	7	Julio	2023-06-07T00:00:00	2024-11-06T07:00:00	4	Temperatura máxima	12.3
105843	7	Sololá	702	San José Chacayá	5	Chacayá	7	Julio	2023-06-07T00:00:00	2024-11-06T07:00:00	3	Temperatura mínima	9.8
105844	7	Sololá	702	San José Chacayá	5	Chacayá	7	Julio	2023-06-07T00:00:00	2024-11-06T07:00:00	5	Humedad	94
105845	7	Sololá	702	San José Chacayá	5	Chacayá	7	Julio	2023-06-07T00:00:00	2024-11-06T07:00:00	6	Velocidad del viento	1.6
105846	7	Sololá	702	San José Chacayá	5	Chacayá	7	Julio	2023-06-07T00:00:00	2024-11-06T07:00:00	7	Dirección del viento	1.61
105847	7	Sololá	702	San José Chacayá	5	Chacayá	7	Julio	2023-06-07T00:00:00	2024-11-06T07:00:00	1	Precipitación	0
105848	7	Sololá	702	San José Chacayá	5	Chacayá	7	Julio	2023-06-07T00:00:00	2024-11-06T07:00:00	8	Radiación solar	26
105849	7	Sololá	702	San José Chacayá	5	Chacayá	7	Julio	2023-06-07T00:00:00	2024-11-06T08:00:00	2	Temperatura media	18.2
105850	7	Sololá	702	San José Chacayá	5	Chacayá	7	Julio	2023-06-07T00:00:00	2024-11-06T08:00:00	4	Temperatura máxima	18.2
105851	7	Sololá	702	San José Chacayá	5	Chacayá	7	Julio	2023-06-07T00:00:00	2024-11-06T08:00:00	3	Temperatura mínima	12.3
105852	7	Sololá	702	San José Chacayá	5	Chacayá	7	Julio	2023-06-07T00:00:00	2024-11-06T08:00:00	5	Humedad	71
105853	7	Sololá	702	San José Chacayá	5	Chacayá	7	Julio	2023-06-07T00:00:00	2024-11-06T08:00:00	6	Velocidad del viento	1.6
105854	7	Sololá	702	San José Chacayá	5	Chacayá	7	Julio	2023-06-07T00:00:00	2024-11-06T08:00:00	7	Dirección del viento	1.61
105855	7	Sololá	702	San José Chacayá	5	Chacayá	7	Julio	2023-06-07T00:00:00	2024-11-06T08:00:00	1	Precipitación	0
105856	7	Sololá	702	San José Chacayá	5	Chacayá	7	Julio	2023-06-07T00:00:00	2024-11-06T08:00:00	8	Radiación solar	73
105857	7	Sololá	702	San José Chacayá	5	Chacayá	7	Julio	2023-06-07T00:00:00	2024-11-06T09:00:00	2	Temperatura media	21.1
105858	7	Sololá	702	San José Chacayá	5	Chacayá	7	Julio	2023-06-07T00:00:00	2024-11-06T09:00:00	4	Temperatura máxima	21.1
105859	7	Sololá	702	San José Chacayá	5	Chacayá	7	Julio	2023-06-07T00:00:00	2024-11-06T09:00:00	3	Temperatura mínima	18.2
105860	7	Sololá	702	San José Chacayá	5	Chacayá	7	Julio	2023-06-07T00:00:00	2024-11-06T09:00:00	5	Humedad	64
105861	7	Sololá	702	San José Chacayá	5	Chacayá	7	Julio	2023-06-07T00:00:00	2024-11-06T09:00:00	6	Velocidad del viento	3.2
105862	7	Sololá	702	San José Chacayá	5	Chacayá	7	Julio	2023-06-07T00:00:00	2024-11-06T09:00:00	7	Dirección del viento	3.22
105863	7	Sololá	702	San José Chacayá	5	Chacayá	7	Julio	2023-06-07T00:00:00	2024-11-06T09:00:00	1	Precipitación	0
105864	7	Sololá	702	San José Chacayá	5	Chacayá	7	Julio	2023-06-07T00:00:00	2024-11-06T09:00:00	8	Radiación solar	514
105865	7	Sololá	702	San José Chacayá	5	Chacayá	7	Julio	2023-06-07T00:00:00	2024-11-06T10:00:00	2	Temperatura media	21.9
105866	7	Sololá	702	San José Chacayá	5	Chacayá	7	Julio	2023-06-07T00:00:00	2024-11-06T10:00:00	4	Temperatura máxima	22.3
105867	7	Sololá	702	San José Chacayá	5	Chacayá	7	Julio	2023-06-07T00:00:00	2024-11-06T10:00:00	3	Temperatura mínima	21.1
105868	7	Sololá	702	San José Chacayá	5	Chacayá	7	Julio	2023-06-07T00:00:00	2024-11-06T10:00:00	5	Humedad	62
105869	7	Sololá	702	San José Chacayá	5	Chacayá	7	Julio	2023-06-07T00:00:00	2024-11-06T10:00:00	6	Velocidad del viento	3.2
105870	7	Sololá	702	San José Chacayá	5	Chacayá	7	Julio	2023-06-07T00:00:00	2024-11-06T10:00:00	7	Dirección del viento	3.22
105871	7	Sololá	702	San José Chacayá	5	Chacayá	7	Julio	2023-06-07T00:00:00	2024-11-06T10:00:00	1	Precipitación	0
105872	7	Sololá	702	San José Chacayá	5	Chacayá	7	Julio	2023-06-07T00:00:00	2024-11-06T10:00:00	8	Radiación solar	759
105873	7	Sololá	702	San José Chacayá	5	Chacayá	7	Julio	2023-06-07T00:00:00	2024-11-06T11:00:00	2	Temperatura media	21.7
105874	7	Sololá	702	San José Chacayá	5	Chacayá	7	Julio	2023-06-07T00:00:00	2024-11-06T11:00:00	4	Temperatura máxima	22.2
105875	7	Sololá	702	San José Chacayá	5	Chacayá	7	Julio	2023-06-07T00:00:00	2024-11-06T11:00:00	3	Temperatura mínima	20.3
105876	7	Sololá	702	San José Chacayá	5	Chacayá	7	Julio	2023-06-07T00:00:00	2024-11-06T11:00:00	5	Humedad	65
105877	7	Sololá	702	San José Chacayá	5	Chacayá	7	Julio	2023-06-07T00:00:00	2024-11-06T11:00:00	6	Velocidad del viento	4.8
105878	7	Sololá	702	San José Chacayá	5	Chacayá	7	Julio	2023-06-07T00:00:00	2024-11-06T11:00:00	7	Dirección del viento	4.83
105879	7	Sololá	702	San José Chacayá	5	Chacayá	7	Julio	2023-06-07T00:00:00	2024-11-06T11:00:00	1	Precipitación	0
105880	7	Sololá	702	San José Chacayá	5	Chacayá	7	Julio	2023-06-07T00:00:00	2024-11-06T11:00:00	8	Radiación solar	831
105881	7	Sololá	702	San José Chacayá	5	Chacayá	7	Julio	2023-06-07T00:00:00	2024-11-06T12:00:00	2	Temperatura media	23.4
105882	7	Sololá	702	San José Chacayá	5	Chacayá	7	Julio	2023-06-07T00:00:00	2024-11-06T12:00:00	4	Temperatura máxima	23.4
105883	7	Sololá	702	San José Chacayá	5	Chacayá	7	Julio	2023-06-07T00:00:00	2024-11-06T12:00:00	3	Temperatura mínima	21
105884	7	Sololá	702	San José Chacayá	5	Chacayá	7	Julio	2023-06-07T00:00:00	2024-11-06T12:00:00	5	Humedad	65
105885	7	Sololá	702	San José Chacayá	5	Chacayá	7	Julio	2023-06-07T00:00:00	2024-11-06T12:00:00	6	Velocidad del viento	4.8
105886	7	Sololá	702	San José Chacayá	5	Chacayá	7	Julio	2023-06-07T00:00:00	2024-11-06T12:00:00	7	Dirección del viento	4.83
105887	7	Sololá	702	San José Chacayá	5	Chacayá	7	Julio	2023-06-07T00:00:00	2024-11-06T12:00:00	1	Precipitación	0
105888	7	Sololá	702	San José Chacayá	5	Chacayá	7	Julio	2023-06-07T00:00:00	2024-11-06T12:00:00	8	Radiación solar	712
105889	7	Sololá	702	San José Chacayá	5	Chacayá	7	Julio	2023-06-07T00:00:00	2024-11-06T13:00:00	2	Temperatura media	22.3
105890	7	Sololá	702	San José Chacayá	5	Chacayá	7	Julio	2023-06-07T00:00:00	2024-11-06T13:00:00	4	Temperatura máxima	23.6
105891	7	Sololá	702	San José Chacayá	5	Chacayá	7	Julio	2023-06-07T00:00:00	2024-11-06T13:00:00	3	Temperatura mínima	22
105892	7	Sololá	702	San José Chacayá	5	Chacayá	7	Julio	2023-06-07T00:00:00	2024-11-06T13:00:00	5	Humedad	68
105893	7	Sololá	702	San José Chacayá	5	Chacayá	7	Julio	2023-06-07T00:00:00	2024-11-06T13:00:00	6	Velocidad del viento	4.8
105894	7	Sololá	702	San José Chacayá	5	Chacayá	7	Julio	2023-06-07T00:00:00	2024-11-06T13:00:00	7	Dirección del viento	4.83
105895	7	Sololá	702	San José Chacayá	5	Chacayá	7	Julio	2023-06-07T00:00:00	2024-11-06T13:00:00	1	Precipitación	0
105896	7	Sololá	702	San José Chacayá	5	Chacayá	7	Julio	2023-06-07T00:00:00	2024-11-06T13:00:00	8	Radiación solar	894
105897	7	Sololá	702	San José Chacayá	5	Chacayá	7	Julio	2023-06-07T00:00:00	2024-11-06T14:00:00	2	Temperatura media	20.4
105898	7	Sololá	702	San José Chacayá	5	Chacayá	7	Julio	2023-06-07T00:00:00	2024-11-06T14:00:00	4	Temperatura máxima	23.5
105899	7	Sololá	702	San José Chacayá	5	Chacayá	7	Julio	2023-06-07T00:00:00	2024-11-06T14:00:00	3	Temperatura mínima	20.4
105900	7	Sololá	702	San José Chacayá	5	Chacayá	7	Julio	2023-06-07T00:00:00	2024-11-06T14:00:00	5	Humedad	78
105901	7	Sololá	702	San José Chacayá	5	Chacayá	7	Julio	2023-06-07T00:00:00	2024-11-06T14:00:00	6	Velocidad del viento	3.2
105902	7	Sololá	702	San José Chacayá	5	Chacayá	7	Julio	2023-06-07T00:00:00	2024-11-06T14:00:00	7	Dirección del viento	3.22
105903	7	Sololá	702	San José Chacayá	5	Chacayá	7	Julio	2023-06-07T00:00:00	2024-11-06T14:00:00	1	Precipitación	0
105904	7	Sololá	702	San José Chacayá	5	Chacayá	7	Julio	2023-06-07T00:00:00	2024-11-06T14:00:00	8	Radiación solar	987
105905	7	Sololá	702	San José Chacayá	5	Chacayá	7	Julio	2023-06-07T00:00:00	2024-11-06T15:00:00	2	Temperatura media	22.6
105906	7	Sololá	702	San José Chacayá	5	Chacayá	7	Julio	2023-06-07T00:00:00	2024-11-06T15:00:00	4	Temperatura máxima	23.4
105907	7	Sololá	702	San José Chacayá	5	Chacayá	7	Julio	2023-06-07T00:00:00	2024-11-06T15:00:00	3	Temperatura mínima	20.2
105908	7	Sololá	702	San José Chacayá	5	Chacayá	7	Julio	2023-06-07T00:00:00	2024-11-06T15:00:00	5	Humedad	72
105909	7	Sololá	702	San José Chacayá	5	Chacayá	7	Julio	2023-06-07T00:00:00	2024-11-06T15:00:00	6	Velocidad del viento	3.2
105910	7	Sololá	702	San José Chacayá	5	Chacayá	7	Julio	2023-06-07T00:00:00	2024-11-06T15:00:00	7	Dirección del viento	3.22
105911	7	Sololá	702	San José Chacayá	5	Chacayá	7	Julio	2023-06-07T00:00:00	2024-11-06T15:00:00	1	Precipitación	0
105912	7	Sololá	702	San José Chacayá	5	Chacayá	7	Julio	2023-06-07T00:00:00	2024-11-06T15:00:00	8	Radiación solar	413
105913	7	Sololá	702	San José Chacayá	5	Chacayá	7	Julio	2023-06-07T00:00:00	2024-11-06T16:00:00	2	Temperatura media	20.6
105914	7	Sololá	702	San José Chacayá	5	Chacayá	7	Julio	2023-06-07T00:00:00	2024-11-06T16:00:00	4	Temperatura máxima	22.6
105915	7	Sololá	702	San José Chacayá	5	Chacayá	7	Julio	2023-06-07T00:00:00	2024-11-06T16:00:00	3	Temperatura mínima	20.6
105916	7	Sololá	702	San José Chacayá	5	Chacayá	7	Julio	2023-06-07T00:00:00	2024-11-06T16:00:00	5	Humedad	74
105917	7	Sololá	702	San José Chacayá	5	Chacayá	7	Julio	2023-06-07T00:00:00	2024-11-06T16:00:00	6	Velocidad del viento	4.8
105918	7	Sololá	702	San José Chacayá	5	Chacayá	7	Julio	2023-06-07T00:00:00	2024-11-06T16:00:00	7	Dirección del viento	4.83
105919	7	Sololá	702	San José Chacayá	5	Chacayá	7	Julio	2023-06-07T00:00:00	2024-11-06T16:00:00	1	Precipitación	0
105920	7	Sololá	702	San José Chacayá	5	Chacayá	7	Julio	2023-06-07T00:00:00	2024-11-06T16:00:00	8	Radiación solar	162
105921	7	Sololá	702	San José Chacayá	5	Chacayá	7	Julio	2023-06-07T00:00:00	2024-11-06T17:00:00	2	Temperatura media	19.4
105922	7	Sololá	702	San José Chacayá	5	Chacayá	7	Julio	2023-06-07T00:00:00	2024-11-06T17:00:00	4	Temperatura máxima	21.1
105923	7	Sololá	702	San José Chacayá	5	Chacayá	7	Julio	2023-06-07T00:00:00	2024-11-06T17:00:00	3	Temperatura mínima	19.4
105924	7	Sololá	702	San José Chacayá	5	Chacayá	7	Julio	2023-06-07T00:00:00	2024-11-06T17:00:00	5	Humedad	82
105925	7	Sololá	702	San José Chacayá	5	Chacayá	7	Julio	2023-06-07T00:00:00	2024-11-06T17:00:00	6	Velocidad del viento	3.2
105926	7	Sololá	702	San José Chacayá	5	Chacayá	7	Julio	2023-06-07T00:00:00	2024-11-06T17:00:00	7	Dirección del viento	3.22
105927	7	Sololá	702	San José Chacayá	5	Chacayá	7	Julio	2023-06-07T00:00:00	2024-11-06T17:00:00	1	Precipitación	0
105928	7	Sololá	702	San José Chacayá	5	Chacayá	7	Julio	2023-06-07T00:00:00	2024-11-06T17:00:00	8	Radiación solar	119
105929	7	Sololá	702	San José Chacayá	5	Chacayá	7	Julio	2023-06-07T00:00:00	2024-11-06T18:00:00	2	Temperatura media	18.3
105930	7	Sololá	702	San José Chacayá	5	Chacayá	7	Julio	2023-06-07T00:00:00	2024-11-06T18:00:00	4	Temperatura máxima	19.4
105931	7	Sololá	702	San José Chacayá	5	Chacayá	7	Julio	2023-06-07T00:00:00	2024-11-06T18:00:00	3	Temperatura mínima	18.3
105932	7	Sololá	702	San José Chacayá	5	Chacayá	7	Julio	2023-06-07T00:00:00	2024-11-06T18:00:00	5	Humedad	86
105933	7	Sololá	702	San José Chacayá	5	Chacayá	7	Julio	2023-06-07T00:00:00	2024-11-06T18:00:00	6	Velocidad del viento	1.6
105934	7	Sololá	702	San José Chacayá	5	Chacayá	7	Julio	2023-06-07T00:00:00	2024-11-06T18:00:00	7	Dirección del viento	1.61
105935	7	Sololá	702	San José Chacayá	5	Chacayá	7	Julio	2023-06-07T00:00:00	2024-11-06T18:00:00	1	Precipitación	0
105936	7	Sololá	702	San José Chacayá	5	Chacayá	7	Julio	2023-06-07T00:00:00	2024-11-06T18:00:00	8	Radiación solar	18
105937	7	Sololá	702	San José Chacayá	5	Chacayá	7	Julio	2023-06-07T00:00:00	2024-11-06T19:00:00	2	Temperatura media	16.9
105938	7	Sololá	702	San José Chacayá	5	Chacayá	7	Julio	2023-06-07T00:00:00	2024-11-06T19:00:00	4	Temperatura máxima	18.3
105939	7	Sololá	702	San José Chacayá	5	Chacayá	7	Julio	2023-06-07T00:00:00	2024-11-06T19:00:00	3	Temperatura mínima	16.9
105940	7	Sololá	702	San José Chacayá	5	Chacayá	7	Julio	2023-06-07T00:00:00	2024-11-06T19:00:00	5	Humedad	89
105941	7	Sololá	702	San José Chacayá	5	Chacayá	7	Julio	2023-06-07T00:00:00	2024-11-06T19:00:00	6	Velocidad del viento	0
105942	7	Sololá	702	San José Chacayá	5	Chacayá	7	Julio	2023-06-07T00:00:00	2024-11-06T19:00:00	7	Dirección del viento	0
105943	7	Sololá	702	San José Chacayá	5	Chacayá	7	Julio	2023-06-07T00:00:00	2024-11-06T19:00:00	1	Precipitación	0
105944	7	Sololá	702	San José Chacayá	5	Chacayá	7	Julio	2023-06-07T00:00:00	2024-11-06T19:00:00	8	Radiación solar	0
105945	7	Sololá	702	San José Chacayá	5	Chacayá	7	Julio	2023-06-07T00:00:00	2024-11-06T20:00:00	2	Temperatura media	15.3
105946	7	Sololá	702	San José Chacayá	5	Chacayá	7	Julio	2023-06-07T00:00:00	2024-11-06T20:00:00	4	Temperatura máxima	16.9
105947	7	Sololá	702	San José Chacayá	5	Chacayá	7	Julio	2023-06-07T00:00:00	2024-11-06T20:00:00	3	Temperatura mínima	15.3
105948	7	Sololá	702	San José Chacayá	5	Chacayá	7	Julio	2023-06-07T00:00:00	2024-11-06T20:00:00	5	Humedad	90
105949	7	Sololá	702	San José Chacayá	5	Chacayá	7	Julio	2023-06-07T00:00:00	2024-11-06T20:00:00	6	Velocidad del viento	0
105950	7	Sololá	702	San José Chacayá	5	Chacayá	7	Julio	2023-06-07T00:00:00	2024-11-06T20:00:00	7	Dirección del viento	0
105951	7	Sololá	702	San José Chacayá	5	Chacayá	7	Julio	2023-06-07T00:00:00	2024-11-06T20:00:00	1	Precipitación	0
105952	7	Sololá	702	San José Chacayá	5	Chacayá	7	Julio	2023-06-07T00:00:00	2024-11-06T20:00:00	8	Radiación solar	0
105953	7	Sololá	702	San José Chacayá	5	Chacayá	7	Julio	2023-06-07T00:00:00	2024-11-06T21:00:00	2	Temperatura media	13.7
105954	7	Sololá	702	San José Chacayá	5	Chacayá	7	Julio	2023-06-07T00:00:00	2024-11-06T21:00:00	4	Temperatura máxima	15.3
105955	7	Sololá	702	San José Chacayá	5	Chacayá	7	Julio	2023-06-07T00:00:00	2024-11-06T21:00:00	3	Temperatura mínima	13.7
105956	7	Sololá	702	San José Chacayá	5	Chacayá	7	Julio	2023-06-07T00:00:00	2024-11-06T21:00:00	5	Humedad	91
105957	7	Sololá	702	San José Chacayá	5	Chacayá	7	Julio	2023-06-07T00:00:00	2024-11-06T21:00:00	6	Velocidad del viento	0
105958	7	Sololá	702	San José Chacayá	5	Chacayá	7	Julio	2023-06-07T00:00:00	2024-11-06T21:00:00	7	Dirección del viento	0
105959	7	Sololá	702	San José Chacayá	5	Chacayá	7	Julio	2023-06-07T00:00:00	2024-11-06T21:00:00	1	Precipitación	0
105960	7	Sololá	702	San José Chacayá	5	Chacayá	7	Julio	2023-06-07T00:00:00	2024-11-06T21:00:00	8	Radiación solar	0
105961	7	Sololá	702	San José Chacayá	5	Chacayá	7	Julio	2023-06-07T00:00:00	2024-11-06T22:00:00	2	Temperatura media	13.1
105962	7	Sololá	702	San José Chacayá	5	Chacayá	7	Julio	2023-06-07T00:00:00	2024-11-06T22:00:00	4	Temperatura máxima	13.7
105963	7	Sololá	702	San José Chacayá	5	Chacayá	7	Julio	2023-06-07T00:00:00	2024-11-06T22:00:00	3	Temperatura mínima	13
105964	7	Sololá	702	San José Chacayá	5	Chacayá	7	Julio	2023-06-07T00:00:00	2024-11-06T22:00:00	5	Humedad	91
105965	7	Sololá	702	San José Chacayá	5	Chacayá	7	Julio	2023-06-07T00:00:00	2024-11-06T22:00:00	6	Velocidad del viento	0
105966	7	Sololá	702	San José Chacayá	5	Chacayá	7	Julio	2023-06-07T00:00:00	2024-11-06T22:00:00	7	Dirección del viento	0
105967	7	Sololá	702	San José Chacayá	5	Chacayá	7	Julio	2023-06-07T00:00:00	2024-11-06T22:00:00	1	Precipitación	0
105968	7	Sololá	702	San José Chacayá	5	Chacayá	7	Julio	2023-06-07T00:00:00	2024-11-06T22:00:00	8	Radiación solar	0
105969	7	Sololá	702	San José Chacayá	5	Chacayá	7	Julio	2023-06-07T00:00:00	2024-11-06T23:00:00	2	Temperatura media	12.2
105970	7	Sololá	702	San José Chacayá	5	Chacayá	7	Julio	2023-06-07T00:00:00	2024-11-06T23:00:00	4	Temperatura máxima	13.1
105971	7	Sololá	702	San José Chacayá	5	Chacayá	7	Julio	2023-06-07T00:00:00	2024-11-06T23:00:00	3	Temperatura mínima	12.2
105972	7	Sololá	702	San José Chacayá	5	Chacayá	7	Julio	2023-06-07T00:00:00	2024-11-06T23:00:00	5	Humedad	91
105973	7	Sololá	702	San José Chacayá	5	Chacayá	7	Julio	2023-06-07T00:00:00	2024-11-06T23:00:00	6	Velocidad del viento	0
105974	7	Sololá	702	San José Chacayá	5	Chacayá	7	Julio	2023-06-07T00:00:00	2024-11-06T23:00:00	7	Dirección del viento	0
105975	7	Sololá	702	San José Chacayá	5	Chacayá	7	Julio	2023-06-07T00:00:00	2024-11-06T23:00:00	1	Precipitación	0
105976	7	Sololá	702	San José Chacayá	5	Chacayá	7	Julio	2023-06-07T00:00:00	2024-11-06T23:00:00	8	Radiación solar	0
105977	7	Sololá	702	San José Chacayá	5	Chacayá	7	Julio	2023-07-07T00:00:00	2024-11-06T00:00:00	2	Temperatura media	11.5
105978	7	Sololá	702	San José Chacayá	5	Chacayá	7	Julio	2023-07-07T00:00:00	2024-11-06T00:00:00	4	Temperatura máxima	12.2
105979	7	Sololá	702	San José Chacayá	5	Chacayá	7	Julio	2023-07-07T00:00:00	2024-11-06T00:00:00	3	Temperatura mínima	11.5
105980	7	Sololá	702	San José Chacayá	5	Chacayá	7	Julio	2023-07-07T00:00:00	2024-11-06T00:00:00	5	Humedad	91
105981	7	Sololá	702	San José Chacayá	5	Chacayá	7	Julio	2023-07-07T00:00:00	2024-11-06T00:00:00	6	Velocidad del viento	1.6
105982	7	Sololá	702	San José Chacayá	5	Chacayá	7	Julio	2023-07-07T00:00:00	2024-11-06T00:00:00	7	Dirección del viento	1.61
105983	7	Sololá	702	San José Chacayá	5	Chacayá	7	Julio	2023-07-07T00:00:00	2024-11-06T00:00:00	1	Precipitación	0
105984	7	Sololá	702	San José Chacayá	5	Chacayá	7	Julio	2023-07-07T00:00:00	2024-11-06T00:00:00	8	Radiación solar	0
105985	7	Sololá	702	San José Chacayá	5	Chacayá	7	Julio	2023-07-07T00:00:00	2024-11-06T01:00:00	2	Temperatura media	11.4
105986	7	Sololá	702	San José Chacayá	5	Chacayá	7	Julio	2023-07-07T00:00:00	2024-11-06T01:00:00	4	Temperatura máxima	11.6
105987	7	Sololá	702	San José Chacayá	5	Chacayá	7	Julio	2023-07-07T00:00:00	2024-11-06T01:00:00	3	Temperatura mínima	11.3
105988	7	Sololá	702	San José Chacayá	5	Chacayá	7	Julio	2023-07-07T00:00:00	2024-11-06T01:00:00	5	Humedad	92
105989	7	Sololá	702	San José Chacayá	5	Chacayá	7	Julio	2023-07-07T00:00:00	2024-11-06T01:00:00	6	Velocidad del viento	0
105990	7	Sololá	702	San José Chacayá	5	Chacayá	7	Julio	2023-07-07T00:00:00	2024-11-06T01:00:00	7	Dirección del viento	0
105991	7	Sololá	702	San José Chacayá	5	Chacayá	7	Julio	2023-07-07T00:00:00	2024-11-06T01:00:00	1	Precipitación	0
105992	7	Sololá	702	San José Chacayá	5	Chacayá	7	Julio	2023-07-07T00:00:00	2024-11-06T01:00:00	8	Radiación solar	0
105993	7	Sololá	702	San José Chacayá	5	Chacayá	7	Julio	2023-07-07T00:00:00	2024-11-06T02:00:00	2	Temperatura media	10.7
105994	7	Sololá	702	San José Chacayá	5	Chacayá	7	Julio	2023-07-07T00:00:00	2024-11-06T02:00:00	4	Temperatura máxima	11.4
105995	7	Sololá	702	San José Chacayá	5	Chacayá	7	Julio	2023-07-07T00:00:00	2024-11-06T02:00:00	3	Temperatura mínima	10.7
105996	7	Sololá	702	San José Chacayá	5	Chacayá	7	Julio	2023-07-07T00:00:00	2024-11-06T02:00:00	5	Humedad	91
105997	7	Sololá	702	San José Chacayá	5	Chacayá	7	Julio	2023-07-07T00:00:00	2024-11-06T02:00:00	6	Velocidad del viento	0
105998	7	Sololá	702	San José Chacayá	5	Chacayá	7	Julio	2023-07-07T00:00:00	2024-11-06T02:00:00	7	Dirección del viento	0
105999	7	Sololá	702	San José Chacayá	5	Chacayá	7	Julio	2023-07-07T00:00:00	2024-11-06T02:00:00	1	Precipitación	0
106000	7	Sololá	702	San José Chacayá	5	Chacayá	7	Julio	2023-07-07T00:00:00	2024-11-06T02:00:00	8	Radiación solar	0
106001	7	Sololá	702	San José Chacayá	5	Chacayá	7	Julio	2023-07-07T00:00:00	2024-11-06T03:00:00	2	Temperatura media	10.3
106002	7	Sololá	702	San José Chacayá	5	Chacayá	7	Julio	2023-07-07T00:00:00	2024-11-06T03:00:00	4	Temperatura máxima	10.7
106003	7	Sololá	702	San José Chacayá	5	Chacayá	7	Julio	2023-07-07T00:00:00	2024-11-06T03:00:00	3	Temperatura mínima	10.3
106004	7	Sololá	702	San José Chacayá	5	Chacayá	7	Julio	2023-07-07T00:00:00	2024-11-06T03:00:00	5	Humedad	90
106005	7	Sololá	702	San José Chacayá	5	Chacayá	7	Julio	2023-07-07T00:00:00	2024-11-06T03:00:00	6	Velocidad del viento	0
106006	7	Sololá	702	San José Chacayá	5	Chacayá	7	Julio	2023-07-07T00:00:00	2024-11-06T03:00:00	7	Dirección del viento	0
106007	7	Sololá	702	San José Chacayá	5	Chacayá	7	Julio	2023-07-07T00:00:00	2024-11-06T03:00:00	1	Precipitación	0
106008	7	Sololá	702	San José Chacayá	5	Chacayá	7	Julio	2023-07-07T00:00:00	2024-11-06T03:00:00	8	Radiación solar	0
106009	7	Sololá	702	San José Chacayá	5	Chacayá	7	Julio	2023-07-07T00:00:00	2024-11-06T04:00:00	2	Temperatura media	10.1
106010	7	Sololá	702	San José Chacayá	5	Chacayá	7	Julio	2023-07-07T00:00:00	2024-11-06T04:00:00	4	Temperatura máxima	10.4
106011	7	Sololá	702	San José Chacayá	5	Chacayá	7	Julio	2023-07-07T00:00:00	2024-11-06T04:00:00	3	Temperatura mínima	10
106012	7	Sololá	702	San José Chacayá	5	Chacayá	7	Julio	2023-07-07T00:00:00	2024-11-06T04:00:00	5	Humedad	90
106013	7	Sololá	702	San José Chacayá	5	Chacayá	7	Julio	2023-07-07T00:00:00	2024-11-06T04:00:00	6	Velocidad del viento	0
106014	7	Sololá	702	San José Chacayá	5	Chacayá	7	Julio	2023-07-07T00:00:00	2024-11-06T04:00:00	7	Dirección del viento	0
106015	7	Sololá	702	San José Chacayá	5	Chacayá	7	Julio	2023-07-07T00:00:00	2024-11-06T04:00:00	1	Precipitación	0
106016	7	Sololá	702	San José Chacayá	5	Chacayá	7	Julio	2023-07-07T00:00:00	2024-11-06T04:00:00	8	Radiación solar	0
106017	7	Sololá	702	San José Chacayá	5	Chacayá	7	Julio	2023-07-07T00:00:00	2024-11-06T05:00:00	2	Temperatura media	9.9
106018	7	Sololá	702	San José Chacayá	5	Chacayá	7	Julio	2023-07-07T00:00:00	2024-11-06T05:00:00	4	Temperatura máxima	10.1
106019	7	Sololá	702	San José Chacayá	5	Chacayá	7	Julio	2023-07-07T00:00:00	2024-11-06T05:00:00	3	Temperatura mínima	9.9
106020	7	Sololá	702	San José Chacayá	5	Chacayá	7	Julio	2023-07-07T00:00:00	2024-11-06T05:00:00	5	Humedad	89
106021	7	Sololá	702	San José Chacayá	5	Chacayá	7	Julio	2023-07-07T00:00:00	2024-11-06T05:00:00	6	Velocidad del viento	0
106022	7	Sololá	702	San José Chacayá	5	Chacayá	7	Julio	2023-07-07T00:00:00	2024-11-06T05:00:00	7	Dirección del viento	0
106023	7	Sololá	702	San José Chacayá	5	Chacayá	7	Julio	2023-07-07T00:00:00	2024-11-06T05:00:00	1	Precipitación	0
106024	7	Sololá	702	San José Chacayá	5	Chacayá	7	Julio	2023-07-07T00:00:00	2024-11-06T05:00:00	8	Radiación solar	0
106025	7	Sololá	702	San José Chacayá	5	Chacayá	7	Julio	2023-07-07T00:00:00	2024-11-06T06:00:00	2	Temperatura media	10.1
106026	7	Sololá	702	San José Chacayá	5	Chacayá	7	Julio	2023-07-07T00:00:00	2024-11-06T06:00:00	4	Temperatura máxima	10.2
106027	7	Sololá	702	San José Chacayá	5	Chacayá	7	Julio	2023-07-07T00:00:00	2024-11-06T06:00:00	3	Temperatura mínima	9.9
106028	7	Sololá	702	San José Chacayá	5	Chacayá	7	Julio	2023-07-07T00:00:00	2024-11-06T06:00:00	5	Humedad	90
106029	7	Sololá	702	San José Chacayá	5	Chacayá	7	Julio	2023-07-07T00:00:00	2024-11-06T06:00:00	6	Velocidad del viento	1.6
106030	7	Sololá	702	San José Chacayá	5	Chacayá	7	Julio	2023-07-07T00:00:00	2024-11-06T06:00:00	7	Dirección del viento	1.61
106031	7	Sololá	702	San José Chacayá	5	Chacayá	7	Julio	2023-07-07T00:00:00	2024-11-06T06:00:00	1	Precipitación	0
106032	7	Sololá	702	San José Chacayá	5	Chacayá	7	Julio	2023-07-07T00:00:00	2024-11-06T06:00:00	8	Radiación solar	4
106033	7	Sololá	702	San José Chacayá	5	Chacayá	7	Julio	2023-07-07T00:00:00	2024-11-06T07:00:00	2	Temperatura media	11.3
106034	7	Sololá	702	San José Chacayá	5	Chacayá	7	Julio	2023-07-07T00:00:00	2024-11-06T07:00:00	4	Temperatura máxima	11.3
106035	7	Sololá	702	San José Chacayá	5	Chacayá	7	Julio	2023-07-07T00:00:00	2024-11-06T07:00:00	3	Temperatura mínima	10.1
106036	7	Sololá	702	San José Chacayá	5	Chacayá	7	Julio	2023-07-07T00:00:00	2024-11-06T07:00:00	5	Humedad	90
106037	7	Sololá	702	San José Chacayá	5	Chacayá	7	Julio	2023-07-07T00:00:00	2024-11-06T07:00:00	6	Velocidad del viento	1.6
106038	7	Sololá	702	San José Chacayá	5	Chacayá	7	Julio	2023-07-07T00:00:00	2024-11-06T07:00:00	7	Dirección del viento	1.61
106039	7	Sololá	702	San José Chacayá	5	Chacayá	7	Julio	2023-07-07T00:00:00	2024-11-06T07:00:00	1	Precipitación	0
106040	7	Sololá	702	San José Chacayá	5	Chacayá	7	Julio	2023-07-07T00:00:00	2024-11-06T07:00:00	8	Radiación solar	38
106041	7	Sololá	702	San José Chacayá	5	Chacayá	7	Julio	2023-07-07T00:00:00	2024-11-06T08:00:00	2	Temperatura media	17.5
106042	7	Sololá	702	San José Chacayá	5	Chacayá	7	Julio	2023-07-07T00:00:00	2024-11-06T08:00:00	4	Temperatura máxima	17.5
106043	7	Sololá	702	San José Chacayá	5	Chacayá	7	Julio	2023-07-07T00:00:00	2024-11-06T08:00:00	3	Temperatura mínima	11.3
106044	7	Sololá	702	San José Chacayá	5	Chacayá	7	Julio	2023-07-07T00:00:00	2024-11-06T08:00:00	5	Humedad	70
106045	7	Sololá	702	San José Chacayá	5	Chacayá	7	Julio	2023-07-07T00:00:00	2024-11-06T08:00:00	6	Velocidad del viento	1.6
106046	7	Sololá	702	San José Chacayá	5	Chacayá	7	Julio	2023-07-07T00:00:00	2024-11-06T08:00:00	7	Dirección del viento	1.61
106047	7	Sololá	702	San José Chacayá	5	Chacayá	7	Julio	2023-07-07T00:00:00	2024-11-06T08:00:00	1	Precipitación	0
106048	7	Sololá	702	San José Chacayá	5	Chacayá	7	Julio	2023-07-07T00:00:00	2024-11-06T08:00:00	8	Radiación solar	142
106049	7	Sololá	702	San José Chacayá	5	Chacayá	7	Julio	2023-07-07T00:00:00	2024-11-06T09:00:00	2	Temperatura media	22.3
106050	7	Sololá	702	San José Chacayá	5	Chacayá	7	Julio	2023-07-07T00:00:00	2024-11-06T09:00:00	4	Temperatura máxima	22.3
106051	7	Sololá	702	San José Chacayá	5	Chacayá	7	Julio	2023-07-07T00:00:00	2024-11-06T09:00:00	3	Temperatura mínima	17.6
106052	7	Sololá	702	San José Chacayá	5	Chacayá	7	Julio	2023-07-07T00:00:00	2024-11-06T09:00:00	5	Humedad	59
106053	7	Sololá	702	San José Chacayá	5	Chacayá	7	Julio	2023-07-07T00:00:00	2024-11-06T09:00:00	6	Velocidad del viento	1.6
106054	7	Sololá	702	San José Chacayá	5	Chacayá	7	Julio	2023-07-07T00:00:00	2024-11-06T09:00:00	7	Dirección del viento	1.61
106055	7	Sololá	702	San José Chacayá	5	Chacayá	7	Julio	2023-07-07T00:00:00	2024-11-06T09:00:00	1	Precipitación	0
106056	7	Sololá	702	San José Chacayá	5	Chacayá	7	Julio	2023-07-07T00:00:00	2024-11-06T09:00:00	8	Radiación solar	463
106057	7	Sololá	702	San José Chacayá	5	Chacayá	7	Julio	2023-07-07T00:00:00	2024-11-06T10:00:00	2	Temperatura media	23.3
106058	7	Sololá	702	San José Chacayá	5	Chacayá	7	Julio	2023-07-07T00:00:00	2024-11-06T10:00:00	4	Temperatura máxima	23.4
106059	7	Sololá	702	San José Chacayá	5	Chacayá	7	Julio	2023-07-07T00:00:00	2024-11-06T10:00:00	3	Temperatura mínima	22.3
106060	7	Sololá	702	San José Chacayá	5	Chacayá	7	Julio	2023-07-07T00:00:00	2024-11-06T10:00:00	5	Humedad	52
106061	7	Sololá	702	San José Chacayá	5	Chacayá	7	Julio	2023-07-07T00:00:00	2024-11-06T10:00:00	6	Velocidad del viento	4.8
106062	7	Sololá	702	San José Chacayá	5	Chacayá	7	Julio	2023-07-07T00:00:00	2024-11-06T10:00:00	7	Dirección del viento	4.83
106063	7	Sololá	702	San José Chacayá	5	Chacayá	7	Julio	2023-07-07T00:00:00	2024-11-06T10:00:00	1	Precipitación	0
106064	7	Sololá	702	San José Chacayá	5	Chacayá	7	Julio	2023-07-07T00:00:00	2024-11-06T10:00:00	8	Radiación solar	452
106065	7	Sololá	702	San José Chacayá	5	Chacayá	7	Julio	2023-07-07T00:00:00	2024-11-06T11:00:00	2	Temperatura media	23.6
106066	7	Sololá	702	San José Chacayá	5	Chacayá	7	Julio	2023-07-07T00:00:00	2024-11-06T11:00:00	4	Temperatura máxima	24.2
106067	7	Sololá	702	San José Chacayá	5	Chacayá	7	Julio	2023-07-07T00:00:00	2024-11-06T11:00:00	3	Temperatura mínima	23.2
106068	7	Sololá	702	San José Chacayá	5	Chacayá	7	Julio	2023-07-07T00:00:00	2024-11-06T11:00:00	5	Humedad	65
106069	7	Sololá	702	San José Chacayá	5	Chacayá	7	Julio	2023-07-07T00:00:00	2024-11-06T11:00:00	6	Velocidad del viento	4.8
106070	7	Sololá	702	San José Chacayá	5	Chacayá	7	Julio	2023-07-07T00:00:00	2024-11-06T11:00:00	7	Dirección del viento	4.83
106071	7	Sololá	702	San José Chacayá	5	Chacayá	7	Julio	2023-07-07T00:00:00	2024-11-06T11:00:00	1	Precipitación	0
106072	7	Sololá	702	San José Chacayá	5	Chacayá	7	Julio	2023-07-07T00:00:00	2024-11-06T11:00:00	8	Radiación solar	572
106073	7	Sololá	702	San José Chacayá	5	Chacayá	7	Julio	2023-07-07T00:00:00	2024-11-06T12:00:00	2	Temperatura media	18.7
106074	7	Sololá	702	San José Chacayá	5	Chacayá	7	Julio	2023-07-07T00:00:00	2024-11-06T12:00:00	4	Temperatura máxima	23.6
106075	7	Sololá	702	San José Chacayá	5	Chacayá	7	Julio	2023-07-07T00:00:00	2024-11-06T12:00:00	3	Temperatura mínima	18.7
106076	7	Sololá	702	San José Chacayá	5	Chacayá	7	Julio	2023-07-07T00:00:00	2024-11-06T12:00:00	5	Humedad	80
106077	7	Sololá	702	San José Chacayá	5	Chacayá	7	Julio	2023-07-07T00:00:00	2024-11-06T12:00:00	6	Velocidad del viento	6.4
106078	7	Sololá	702	San José Chacayá	5	Chacayá	7	Julio	2023-07-07T00:00:00	2024-11-06T12:00:00	7	Dirección del viento	6.44
106079	7	Sololá	702	San José Chacayá	5	Chacayá	7	Julio	2023-07-07T00:00:00	2024-11-06T12:00:00	1	Precipitación	0
106080	7	Sololá	702	San José Chacayá	5	Chacayá	7	Julio	2023-07-07T00:00:00	2024-11-06T12:00:00	8	Radiación solar	909
106081	7	Sololá	702	San José Chacayá	5	Chacayá	7	Julio	2023-07-07T00:00:00	2024-11-06T13:00:00	2	Temperatura media	20.1
106082	7	Sololá	702	San José Chacayá	5	Chacayá	7	Julio	2023-07-07T00:00:00	2024-11-06T13:00:00	4	Temperatura máxima	20.4
106083	7	Sololá	702	San José Chacayá	5	Chacayá	7	Julio	2023-07-07T00:00:00	2024-11-06T13:00:00	3	Temperatura mínima	18.2
106084	7	Sololá	702	San José Chacayá	5	Chacayá	7	Julio	2023-07-07T00:00:00	2024-11-06T13:00:00	5	Humedad	79
106085	7	Sololá	702	San José Chacayá	5	Chacayá	7	Julio	2023-07-07T00:00:00	2024-11-06T13:00:00	6	Velocidad del viento	4.8
106086	7	Sololá	702	San José Chacayá	5	Chacayá	7	Julio	2023-07-07T00:00:00	2024-11-06T13:00:00	7	Dirección del viento	4.83
106087	7	Sololá	702	San José Chacayá	5	Chacayá	7	Julio	2023-07-07T00:00:00	2024-11-06T13:00:00	1	Precipitación	0
106088	7	Sololá	702	San José Chacayá	5	Chacayá	7	Julio	2023-07-07T00:00:00	2024-11-06T13:00:00	8	Radiación solar	510
106089	7	Sololá	702	San José Chacayá	5	Chacayá	7	Julio	2023-07-07T00:00:00	2024-11-06T14:00:00	2	Temperatura media	19.5
106090	7	Sololá	702	San José Chacayá	5	Chacayá	7	Julio	2023-07-07T00:00:00	2024-11-06T14:00:00	4	Temperatura máxima	20.9
106091	7	Sololá	702	San José Chacayá	5	Chacayá	7	Julio	2023-07-07T00:00:00	2024-11-06T14:00:00	3	Temperatura mínima	19.3
106092	7	Sololá	702	San José Chacayá	5	Chacayá	7	Julio	2023-07-07T00:00:00	2024-11-06T14:00:00	5	Humedad	81
106093	7	Sololá	702	San José Chacayá	5	Chacayá	7	Julio	2023-07-07T00:00:00	2024-11-06T14:00:00	6	Velocidad del viento	4.8
106094	7	Sololá	702	San José Chacayá	5	Chacayá	7	Julio	2023-07-07T00:00:00	2024-11-06T14:00:00	7	Dirección del viento	4.83
106095	7	Sololá	702	San José Chacayá	5	Chacayá	7	Julio	2023-07-07T00:00:00	2024-11-06T14:00:00	1	Precipitación	0
106096	7	Sololá	702	San José Chacayá	5	Chacayá	7	Julio	2023-07-07T00:00:00	2024-11-06T14:00:00	8	Radiación solar	336
106097	7	Sololá	702	San José Chacayá	5	Chacayá	7	Julio	2023-07-07T00:00:00	2024-11-06T15:00:00	2	Temperatura media	16.4
106098	7	Sololá	702	San José Chacayá	5	Chacayá	7	Julio	2023-07-07T00:00:00	2024-11-06T15:00:00	4	Temperatura máxima	19.5
106099	7	Sololá	702	San José Chacayá	5	Chacayá	7	Julio	2023-07-07T00:00:00	2024-11-06T15:00:00	3	Temperatura mínima	16.4
106100	7	Sololá	702	San José Chacayá	5	Chacayá	7	Julio	2023-07-07T00:00:00	2024-11-06T15:00:00	5	Humedad	92
106101	7	Sololá	702	San José Chacayá	5	Chacayá	7	Julio	2023-07-07T00:00:00	2024-11-06T15:00:00	6	Velocidad del viento	3.2
106102	7	Sololá	702	San José Chacayá	5	Chacayá	7	Julio	2023-07-07T00:00:00	2024-11-06T15:00:00	7	Dirección del viento	3.22
106103	7	Sololá	702	San José Chacayá	5	Chacayá	7	Julio	2023-07-07T00:00:00	2024-11-06T15:00:00	1	Precipitación	0.6
106104	7	Sololá	702	San José Chacayá	5	Chacayá	7	Julio	2023-07-07T00:00:00	2024-11-06T15:00:00	8	Radiación solar	45
106105	7	Sololá	702	San José Chacayá	5	Chacayá	7	Julio	2023-07-07T00:00:00	2024-11-06T16:00:00	2	Temperatura media	14.6
106106	7	Sololá	702	San José Chacayá	5	Chacayá	7	Julio	2023-07-07T00:00:00	2024-11-06T16:00:00	4	Temperatura máxima	16.4
106107	7	Sololá	702	San José Chacayá	5	Chacayá	7	Julio	2023-07-07T00:00:00	2024-11-06T16:00:00	3	Temperatura mínima	14.6
106108	7	Sololá	702	San José Chacayá	5	Chacayá	7	Julio	2023-07-07T00:00:00	2024-11-06T16:00:00	5	Humedad	92
106109	7	Sololá	702	San José Chacayá	5	Chacayá	7	Julio	2023-07-07T00:00:00	2024-11-06T16:00:00	6	Velocidad del viento	1.6
106110	7	Sololá	702	San José Chacayá	5	Chacayá	7	Julio	2023-07-07T00:00:00	2024-11-06T16:00:00	7	Dirección del viento	1.61
106111	7	Sololá	702	San José Chacayá	5	Chacayá	7	Julio	2023-07-07T00:00:00	2024-11-06T16:00:00	1	Precipitación	4.2
106112	7	Sololá	702	San José Chacayá	5	Chacayá	7	Julio	2023-07-07T00:00:00	2024-11-06T16:00:00	8	Radiación solar	293
106113	7	Sololá	702	San José Chacayá	5	Chacayá	7	Julio	2023-07-07T00:00:00	2024-11-06T17:00:00	2	Temperatura media	14.4
106114	7	Sololá	702	San José Chacayá	5	Chacayá	7	Julio	2023-07-07T00:00:00	2024-11-06T17:00:00	4	Temperatura máxima	14.6
106115	7	Sololá	702	San José Chacayá	5	Chacayá	7	Julio	2023-07-07T00:00:00	2024-11-06T17:00:00	3	Temperatura mínima	14.3
106116	7	Sololá	702	San José Chacayá	5	Chacayá	7	Julio	2023-07-07T00:00:00	2024-11-06T17:00:00	5	Humedad	95
106117	7	Sololá	702	San José Chacayá	5	Chacayá	7	Julio	2023-07-07T00:00:00	2024-11-06T17:00:00	6	Velocidad del viento	0
106118	7	Sololá	702	San José Chacayá	5	Chacayá	7	Julio	2023-07-07T00:00:00	2024-11-06T17:00:00	7	Dirección del viento	0
106119	7	Sololá	702	San José Chacayá	5	Chacayá	7	Julio	2023-07-07T00:00:00	2024-11-06T17:00:00	1	Precipitación	22.8
106120	7	Sololá	702	San José Chacayá	5	Chacayá	7	Julio	2023-07-07T00:00:00	2024-11-06T17:00:00	8	Radiación solar	312
106121	7	Sololá	702	San José Chacayá	5	Chacayá	7	Julio	2023-07-07T00:00:00	2024-11-06T18:00:00	2	Temperatura media	14.2
106122	7	Sololá	702	San José Chacayá	5	Chacayá	7	Julio	2023-07-07T00:00:00	2024-11-06T18:00:00	4	Temperatura máxima	14.4
106123	7	Sololá	702	San José Chacayá	5	Chacayá	7	Julio	2023-07-07T00:00:00	2024-11-06T18:00:00	3	Temperatura mínima	14.1
106124	7	Sololá	702	San José Chacayá	5	Chacayá	7	Julio	2023-07-07T00:00:00	2024-11-06T18:00:00	5	Humedad	94
106125	7	Sololá	702	San José Chacayá	5	Chacayá	7	Julio	2023-07-07T00:00:00	2024-11-06T18:00:00	6	Velocidad del viento	1.6
106126	7	Sololá	702	San José Chacayá	5	Chacayá	7	Julio	2023-07-07T00:00:00	2024-11-06T18:00:00	7	Dirección del viento	1.61
106127	7	Sololá	702	San José Chacayá	5	Chacayá	7	Julio	2023-07-07T00:00:00	2024-11-06T18:00:00	1	Precipitación	6
106128	7	Sololá	702	San José Chacayá	5	Chacayá	7	Julio	2023-07-07T00:00:00	2024-11-06T18:00:00	8	Radiación solar	36
106129	7	Sololá	702	San José Chacayá	5	Chacayá	7	Julio	2023-07-07T00:00:00	2024-11-06T19:00:00	2	Temperatura media	14.1
106130	7	Sololá	702	San José Chacayá	5	Chacayá	7	Julio	2023-07-07T00:00:00	2024-11-06T19:00:00	4	Temperatura máxima	14.2
106131	7	Sololá	702	San José Chacayá	5	Chacayá	7	Julio	2023-07-07T00:00:00	2024-11-06T19:00:00	3	Temperatura mínima	14.1
106132	7	Sololá	702	San José Chacayá	5	Chacayá	7	Julio	2023-07-07T00:00:00	2024-11-06T19:00:00	5	Humedad	95
106133	7	Sololá	702	San José Chacayá	5	Chacayá	7	Julio	2023-07-07T00:00:00	2024-11-06T19:00:00	6	Velocidad del viento	0
106134	7	Sololá	702	San José Chacayá	5	Chacayá	7	Julio	2023-07-07T00:00:00	2024-11-06T19:00:00	7	Dirección del viento	0
106135	7	Sololá	702	San José Chacayá	5	Chacayá	7	Julio	2023-07-07T00:00:00	2024-11-06T19:00:00	1	Precipitación	0.8
106136	7	Sololá	702	San José Chacayá	5	Chacayá	7	Julio	2023-07-07T00:00:00	2024-11-06T19:00:00	8	Radiación solar	0
106137	7	Sololá	702	San José Chacayá	5	Chacayá	7	Julio	2023-07-07T00:00:00	2024-11-06T20:00:00	2	Temperatura media	13.8
106138	7	Sololá	702	San José Chacayá	5	Chacayá	7	Julio	2023-07-07T00:00:00	2024-11-06T20:00:00	4	Temperatura máxima	14.1
106139	7	Sololá	702	San José Chacayá	5	Chacayá	7	Julio	2023-07-07T00:00:00	2024-11-06T20:00:00	3	Temperatura mínima	13.8
106140	7	Sololá	702	San José Chacayá	5	Chacayá	7	Julio	2023-07-07T00:00:00	2024-11-06T20:00:00	5	Humedad	95
106141	7	Sololá	702	San José Chacayá	5	Chacayá	7	Julio	2023-07-07T00:00:00	2024-11-06T20:00:00	6	Velocidad del viento	0
106142	7	Sololá	702	San José Chacayá	5	Chacayá	7	Julio	2023-07-07T00:00:00	2024-11-06T20:00:00	7	Dirección del viento	0
106143	7	Sololá	702	San José Chacayá	5	Chacayá	7	Julio	2023-07-07T00:00:00	2024-11-06T20:00:00	1	Precipitación	0
106144	7	Sololá	702	San José Chacayá	5	Chacayá	7	Julio	2023-07-07T00:00:00	2024-11-06T20:00:00	8	Radiación solar	0
106145	7	Sololá	702	San José Chacayá	5	Chacayá	7	Julio	2023-07-07T00:00:00	2024-11-06T21:00:00	2	Temperatura media	13.6
106146	7	Sololá	702	San José Chacayá	5	Chacayá	7	Julio	2023-07-07T00:00:00	2024-11-06T21:00:00	4	Temperatura máxima	13.8
106147	7	Sololá	702	San José Chacayá	5	Chacayá	7	Julio	2023-07-07T00:00:00	2024-11-06T21:00:00	3	Temperatura mínima	13.6
106148	7	Sololá	702	San José Chacayá	5	Chacayá	7	Julio	2023-07-07T00:00:00	2024-11-06T21:00:00	5	Humedad	95
106149	7	Sololá	702	San José Chacayá	5	Chacayá	7	Julio	2023-07-07T00:00:00	2024-11-06T21:00:00	6	Velocidad del viento	0
106150	7	Sololá	702	San José Chacayá	5	Chacayá	7	Julio	2023-07-07T00:00:00	2024-11-06T21:00:00	7	Dirección del viento	0
106151	7	Sololá	702	San José Chacayá	5	Chacayá	7	Julio	2023-07-07T00:00:00	2024-11-06T21:00:00	1	Precipitación	0
106152	7	Sololá	702	San José Chacayá	5	Chacayá	7	Julio	2023-07-07T00:00:00	2024-11-06T21:00:00	8	Radiación solar	0
106153	7	Sololá	702	San José Chacayá	5	Chacayá	7	Julio	2023-07-07T00:00:00	2024-11-06T22:00:00	2	Temperatura media	13.5
106154	7	Sololá	702	San José Chacayá	5	Chacayá	7	Julio	2023-07-07T00:00:00	2024-11-06T22:00:00	4	Temperatura máxima	13.6
106155	7	Sololá	702	San José Chacayá	5	Chacayá	7	Julio	2023-07-07T00:00:00	2024-11-06T22:00:00	3	Temperatura mínima	13.5
106156	7	Sololá	702	San José Chacayá	5	Chacayá	7	Julio	2023-07-07T00:00:00	2024-11-06T22:00:00	5	Humedad	95
106157	7	Sololá	702	San José Chacayá	5	Chacayá	7	Julio	2023-07-07T00:00:00	2024-11-06T22:00:00	6	Velocidad del viento	0
106158	7	Sololá	702	San José Chacayá	5	Chacayá	7	Julio	2023-07-07T00:00:00	2024-11-06T22:00:00	7	Dirección del viento	0
106159	7	Sololá	702	San José Chacayá	5	Chacayá	7	Julio	2023-07-07T00:00:00	2024-11-06T22:00:00	1	Precipitación	0
106160	7	Sololá	702	San José Chacayá	5	Chacayá	7	Julio	2023-07-07T00:00:00	2024-11-06T22:00:00	8	Radiación solar	0
106161	7	Sololá	702	San José Chacayá	5	Chacayá	7	Julio	2023-07-07T00:00:00	2024-11-06T23:00:00	2	Temperatura media	13.1
106162	7	Sololá	702	San José Chacayá	5	Chacayá	7	Julio	2023-07-07T00:00:00	2024-11-06T23:00:00	4	Temperatura máxima	13.6
106163	7	Sololá	702	San José Chacayá	5	Chacayá	7	Julio	2023-07-07T00:00:00	2024-11-06T23:00:00	3	Temperatura mínima	13.1
106164	7	Sololá	702	San José Chacayá	5	Chacayá	7	Julio	2023-07-07T00:00:00	2024-11-06T23:00:00	5	Humedad	96
106165	7	Sololá	702	San José Chacayá	5	Chacayá	7	Julio	2023-07-07T00:00:00	2024-11-06T23:00:00	6	Velocidad del viento	0
106166	7	Sololá	702	San José Chacayá	5	Chacayá	7	Julio	2023-07-07T00:00:00	2024-11-06T23:00:00	7	Dirección del viento	0
106167	7	Sololá	702	San José Chacayá	5	Chacayá	7	Julio	2023-07-07T00:00:00	2024-11-06T23:00:00	1	Precipitación	0
106168	7	Sololá	702	San José Chacayá	5	Chacayá	7	Julio	2023-07-07T00:00:00	2024-11-06T23:00:00	8	Radiación solar	0
106169	7	Sololá	702	San José Chacayá	5	Chacayá	7	Julio	2023-08-07T00:00:00	2024-11-06T00:00:00	2	Temperatura media	13.1
106170	7	Sololá	702	San José Chacayá	5	Chacayá	7	Julio	2023-08-07T00:00:00	2024-11-06T00:00:00	4	Temperatura máxima	13.1
106171	7	Sololá	702	San José Chacayá	5	Chacayá	7	Julio	2023-08-07T00:00:00	2024-11-06T00:00:00	3	Temperatura mínima	13
106172	7	Sololá	702	San José Chacayá	5	Chacayá	7	Julio	2023-08-07T00:00:00	2024-11-06T00:00:00	5	Humedad	96
106173	7	Sololá	702	San José Chacayá	5	Chacayá	7	Julio	2023-08-07T00:00:00	2024-11-06T00:00:00	6	Velocidad del viento	0
106174	7	Sololá	702	San José Chacayá	5	Chacayá	7	Julio	2023-08-07T00:00:00	2024-11-06T00:00:00	7	Dirección del viento	0
106175	7	Sololá	702	San José Chacayá	5	Chacayá	7	Julio	2023-08-07T00:00:00	2024-11-06T00:00:00	1	Precipitación	0
106176	7	Sololá	702	San José Chacayá	5	Chacayá	7	Julio	2023-08-07T00:00:00	2024-11-06T00:00:00	8	Radiación solar	0
106177	7	Sololá	702	San José Chacayá	5	Chacayá	7	Julio	2023-08-07T00:00:00	2024-11-06T01:00:00	2	Temperatura media	13.2
106178	7	Sololá	702	San José Chacayá	5	Chacayá	7	Julio	2023-08-07T00:00:00	2024-11-06T01:00:00	4	Temperatura máxima	13.2
106179	7	Sololá	702	San José Chacayá	5	Chacayá	7	Julio	2023-08-07T00:00:00	2024-11-06T01:00:00	3	Temperatura mínima	13
106180	7	Sololá	702	San José Chacayá	5	Chacayá	7	Julio	2023-08-07T00:00:00	2024-11-06T01:00:00	5	Humedad	96
106181	7	Sololá	702	San José Chacayá	5	Chacayá	7	Julio	2023-08-07T00:00:00	2024-11-06T01:00:00	6	Velocidad del viento	0
106182	7	Sololá	702	San José Chacayá	5	Chacayá	7	Julio	2023-08-07T00:00:00	2024-11-06T01:00:00	7	Dirección del viento	0
106183	7	Sololá	702	San José Chacayá	5	Chacayá	7	Julio	2023-08-07T00:00:00	2024-11-06T01:00:00	1	Precipitación	0
106184	7	Sololá	702	San José Chacayá	5	Chacayá	7	Julio	2023-08-07T00:00:00	2024-11-06T01:00:00	8	Radiación solar	0
106185	7	Sololá	702	San José Chacayá	5	Chacayá	7	Julio	2023-08-07T00:00:00	2024-11-06T02:00:00	2	Temperatura media	13.3
106186	7	Sololá	702	San José Chacayá	5	Chacayá	7	Julio	2023-08-07T00:00:00	2024-11-06T02:00:00	4	Temperatura máxima	13.3
106187	7	Sololá	702	San José Chacayá	5	Chacayá	7	Julio	2023-08-07T00:00:00	2024-11-06T02:00:00	3	Temperatura mínima	13.2
106188	7	Sololá	702	San José Chacayá	5	Chacayá	7	Julio	2023-08-07T00:00:00	2024-11-06T02:00:00	5	Humedad	96
106189	7	Sololá	702	San José Chacayá	5	Chacayá	7	Julio	2023-08-07T00:00:00	2024-11-06T02:00:00	6	Velocidad del viento	0
106190	7	Sololá	702	San José Chacayá	5	Chacayá	7	Julio	2023-08-07T00:00:00	2024-11-06T02:00:00	7	Dirección del viento	0
106191	7	Sololá	702	San José Chacayá	5	Chacayá	7	Julio	2023-08-07T00:00:00	2024-11-06T02:00:00	1	Precipitación	0
106192	7	Sololá	702	San José Chacayá	5	Chacayá	7	Julio	2023-08-07T00:00:00	2024-11-06T02:00:00	8	Radiación solar	0
106193	7	Sololá	702	San José Chacayá	5	Chacayá	7	Julio	2023-08-07T00:00:00	2024-11-06T03:00:00	2	Temperatura media	13.5
106194	7	Sololá	702	San José Chacayá	5	Chacayá	7	Julio	2023-08-07T00:00:00	2024-11-06T03:00:00	4	Temperatura máxima	13.5
106195	7	Sololá	702	San José Chacayá	5	Chacayá	7	Julio	2023-08-07T00:00:00	2024-11-06T03:00:00	3	Temperatura mínima	13.3
106196	7	Sololá	702	San José Chacayá	5	Chacayá	7	Julio	2023-08-07T00:00:00	2024-11-06T03:00:00	5	Humedad	97
106197	7	Sololá	702	San José Chacayá	5	Chacayá	7	Julio	2023-08-07T00:00:00	2024-11-06T03:00:00	6	Velocidad del viento	0
106198	7	Sololá	702	San José Chacayá	5	Chacayá	7	Julio	2023-08-07T00:00:00	2024-11-06T03:00:00	7	Dirección del viento	0
106199	7	Sololá	702	San José Chacayá	5	Chacayá	7	Julio	2023-08-07T00:00:00	2024-11-06T03:00:00	1	Precipitación	0
106200	7	Sololá	702	San José Chacayá	5	Chacayá	7	Julio	2023-08-07T00:00:00	2024-11-06T03:00:00	8	Radiación solar	0
106201	7	Sololá	702	San José Chacayá	5	Chacayá	7	Julio	2023-08-07T00:00:00	2024-11-06T04:00:00	2	Temperatura media	13.3
106202	7	Sololá	702	San José Chacayá	5	Chacayá	7	Julio	2023-08-07T00:00:00	2024-11-06T04:00:00	4	Temperatura máxima	13.6
106203	7	Sololá	702	San José Chacayá	5	Chacayá	7	Julio	2023-08-07T00:00:00	2024-11-06T04:00:00	3	Temperatura mínima	13.3
106204	7	Sololá	702	San José Chacayá	5	Chacayá	7	Julio	2023-08-07T00:00:00	2024-11-06T04:00:00	5	Humedad	96
106205	7	Sololá	702	San José Chacayá	5	Chacayá	7	Julio	2023-08-07T00:00:00	2024-11-06T04:00:00	6	Velocidad del viento	0
106206	7	Sololá	702	San José Chacayá	5	Chacayá	7	Julio	2023-08-07T00:00:00	2024-11-06T04:00:00	7	Dirección del viento	0
106207	7	Sololá	702	San José Chacayá	5	Chacayá	7	Julio	2023-08-07T00:00:00	2024-11-06T04:00:00	1	Precipitación	0
106208	7	Sololá	702	San José Chacayá	5	Chacayá	7	Julio	2023-08-07T00:00:00	2024-11-06T04:00:00	8	Radiación solar	0
106209	7	Sololá	702	San José Chacayá	5	Chacayá	7	Julio	2023-08-07T00:00:00	2024-11-06T05:00:00	2	Temperatura media	12.7
106210	7	Sololá	702	San José Chacayá	5	Chacayá	7	Julio	2023-08-07T00:00:00	2024-11-06T05:00:00	4	Temperatura máxima	13.3
106211	7	Sololá	702	San José Chacayá	5	Chacayá	7	Julio	2023-08-07T00:00:00	2024-11-06T05:00:00	3	Temperatura mínima	12.7
106212	7	Sololá	702	San José Chacayá	5	Chacayá	7	Julio	2023-08-07T00:00:00	2024-11-06T05:00:00	5	Humedad	96
106213	7	Sololá	702	San José Chacayá	5	Chacayá	7	Julio	2023-08-07T00:00:00	2024-11-06T05:00:00	6	Velocidad del viento	0
106214	7	Sololá	702	San José Chacayá	5	Chacayá	7	Julio	2023-08-07T00:00:00	2024-11-06T05:00:00	7	Dirección del viento	0
106215	7	Sololá	702	San José Chacayá	5	Chacayá	7	Julio	2023-08-07T00:00:00	2024-11-06T05:00:00	1	Precipitación	0
106216	7	Sololá	702	San José Chacayá	5	Chacayá	7	Julio	2023-08-07T00:00:00	2024-11-06T05:00:00	8	Radiación solar	0
106217	7	Sololá	702	San José Chacayá	5	Chacayá	7	Julio	2023-08-07T00:00:00	2024-11-06T06:00:00	2	Temperatura media	12.5
106218	7	Sololá	702	San José Chacayá	5	Chacayá	7	Julio	2023-08-07T00:00:00	2024-11-06T06:00:00	4	Temperatura máxima	12.7
106219	7	Sololá	702	San José Chacayá	5	Chacayá	7	Julio	2023-08-07T00:00:00	2024-11-06T06:00:00	3	Temperatura mínima	12.4
106220	7	Sololá	702	San José Chacayá	5	Chacayá	7	Julio	2023-08-07T00:00:00	2024-11-06T06:00:00	5	Humedad	97
106221	7	Sololá	702	San José Chacayá	5	Chacayá	7	Julio	2023-08-07T00:00:00	2024-11-06T06:00:00	6	Velocidad del viento	0
106222	7	Sololá	702	San José Chacayá	5	Chacayá	7	Julio	2023-08-07T00:00:00	2024-11-06T06:00:00	7	Dirección del viento	0
106223	7	Sololá	702	San José Chacayá	5	Chacayá	7	Julio	2023-08-07T00:00:00	2024-11-06T06:00:00	1	Precipitación	0.2
106224	7	Sololá	702	San José Chacayá	5	Chacayá	7	Julio	2023-08-07T00:00:00	2024-11-06T06:00:00	8	Radiación solar	4
106225	7	Sololá	702	San José Chacayá	5	Chacayá	7	Julio	2023-08-07T00:00:00	2024-11-06T07:00:00	2	Temperatura media	13.2
106226	7	Sololá	702	San José Chacayá	5	Chacayá	7	Julio	2023-08-07T00:00:00	2024-11-06T07:00:00	4	Temperatura máxima	13.2
106227	7	Sololá	702	San José Chacayá	5	Chacayá	7	Julio	2023-08-07T00:00:00	2024-11-06T07:00:00	3	Temperatura mínima	12.5
106228	7	Sololá	702	San José Chacayá	5	Chacayá	7	Julio	2023-08-07T00:00:00	2024-11-06T07:00:00	5	Humedad	97
106229	7	Sololá	702	San José Chacayá	5	Chacayá	7	Julio	2023-08-07T00:00:00	2024-11-06T07:00:00	6	Velocidad del viento	0
106230	7	Sololá	702	San José Chacayá	5	Chacayá	7	Julio	2023-08-07T00:00:00	2024-11-06T07:00:00	7	Dirección del viento	0
106231	7	Sololá	702	San José Chacayá	5	Chacayá	7	Julio	2023-08-07T00:00:00	2024-11-06T07:00:00	1	Precipitación	0
106232	7	Sololá	702	San José Chacayá	5	Chacayá	7	Julio	2023-08-07T00:00:00	2024-11-06T07:00:00	8	Radiación solar	64
106233	7	Sololá	702	San José Chacayá	5	Chacayá	7	Julio	2023-08-07T00:00:00	2024-11-06T08:00:00	2	Temperatura media	14.8
106234	7	Sololá	702	San José Chacayá	5	Chacayá	7	Julio	2023-08-07T00:00:00	2024-11-06T08:00:00	4	Temperatura máxima	14.8
106235	7	Sololá	702	San José Chacayá	5	Chacayá	7	Julio	2023-08-07T00:00:00	2024-11-06T08:00:00	3	Temperatura mínima	13.2
106236	7	Sololá	702	San José Chacayá	5	Chacayá	7	Julio	2023-08-07T00:00:00	2024-11-06T08:00:00	5	Humedad	95
106237	7	Sololá	702	San José Chacayá	5	Chacayá	7	Julio	2023-08-07T00:00:00	2024-11-06T08:00:00	6	Velocidad del viento	0
106238	7	Sololá	702	San José Chacayá	5	Chacayá	7	Julio	2023-08-07T00:00:00	2024-11-06T08:00:00	7	Dirección del viento	0
106239	7	Sololá	702	San José Chacayá	5	Chacayá	7	Julio	2023-08-07T00:00:00	2024-11-06T08:00:00	1	Precipitación	0
106240	7	Sololá	702	San José Chacayá	5	Chacayá	7	Julio	2023-08-07T00:00:00	2024-11-06T08:00:00	8	Radiación solar	146
106241	7	Sololá	702	San José Chacayá	5	Chacayá	7	Julio	2023-08-07T00:00:00	2024-11-06T09:00:00	2	Temperatura media	16.2
106242	7	Sololá	702	San José Chacayá	5	Chacayá	7	Julio	2023-08-07T00:00:00	2024-11-06T09:00:00	4	Temperatura máxima	16.2
106243	7	Sololá	702	San José Chacayá	5	Chacayá	7	Julio	2023-08-07T00:00:00	2024-11-06T09:00:00	3	Temperatura mínima	14.8
106244	7	Sololá	702	San José Chacayá	5	Chacayá	7	Julio	2023-08-07T00:00:00	2024-11-06T09:00:00	5	Humedad	87
106245	7	Sololá	702	San José Chacayá	5	Chacayá	7	Julio	2023-08-07T00:00:00	2024-11-06T09:00:00	6	Velocidad del viento	1.6
106246	7	Sololá	702	San José Chacayá	5	Chacayá	7	Julio	2023-08-07T00:00:00	2024-11-06T09:00:00	7	Dirección del viento	1.61
106247	7	Sololá	702	San José Chacayá	5	Chacayá	7	Julio	2023-08-07T00:00:00	2024-11-06T09:00:00	1	Precipitación	0
106248	7	Sololá	702	San José Chacayá	5	Chacayá	7	Julio	2023-08-07T00:00:00	2024-11-06T09:00:00	8	Radiación solar	346
106249	7	Sololá	702	San José Chacayá	5	Chacayá	7	Julio	2023-08-07T00:00:00	2024-11-06T10:00:00	2	Temperatura media	17.8
106250	7	Sololá	702	San José Chacayá	5	Chacayá	7	Julio	2023-08-07T00:00:00	2024-11-06T10:00:00	4	Temperatura máxima	17.8
106251	7	Sololá	702	San José Chacayá	5	Chacayá	7	Julio	2023-08-07T00:00:00	2024-11-06T10:00:00	3	Temperatura mínima	16.2
106252	7	Sololá	702	San José Chacayá	5	Chacayá	7	Julio	2023-08-07T00:00:00	2024-11-06T10:00:00	5	Humedad	87
106253	7	Sololá	702	San José Chacayá	5	Chacayá	7	Julio	2023-08-07T00:00:00	2024-11-06T10:00:00	6	Velocidad del viento	1.6
106254	7	Sololá	702	San José Chacayá	5	Chacayá	7	Julio	2023-08-07T00:00:00	2024-11-06T10:00:00	7	Dirección del viento	1.61
106255	7	Sololá	702	San José Chacayá	5	Chacayá	7	Julio	2023-08-07T00:00:00	2024-11-06T10:00:00	1	Precipitación	0
106256	7	Sololá	702	San José Chacayá	5	Chacayá	7	Julio	2023-08-07T00:00:00	2024-11-06T10:00:00	8	Radiación solar	689
106257	7	Sololá	702	San José Chacayá	5	Chacayá	7	Julio	2023-08-07T00:00:00	2024-11-06T11:00:00	2	Temperatura media	17.9
106258	7	Sololá	702	San José Chacayá	5	Chacayá	7	Julio	2023-08-07T00:00:00	2024-11-06T11:00:00	4	Temperatura máxima	18.7
106259	7	Sololá	702	San José Chacayá	5	Chacayá	7	Julio	2023-08-07T00:00:00	2024-11-06T11:00:00	3	Temperatura mínima	17.9
106260	7	Sololá	702	San José Chacayá	5	Chacayá	7	Julio	2023-08-07T00:00:00	2024-11-06T11:00:00	5	Humedad	86
106261	7	Sololá	702	San José Chacayá	5	Chacayá	7	Julio	2023-08-07T00:00:00	2024-11-06T11:00:00	6	Velocidad del viento	3.2
106262	7	Sololá	702	San José Chacayá	5	Chacayá	7	Julio	2023-08-07T00:00:00	2024-11-06T11:00:00	7	Dirección del viento	3.22
106263	7	Sololá	702	San José Chacayá	5	Chacayá	7	Julio	2023-08-07T00:00:00	2024-11-06T11:00:00	1	Precipitación	0
106264	7	Sololá	702	San José Chacayá	5	Chacayá	7	Julio	2023-08-07T00:00:00	2024-11-06T11:00:00	8	Radiación solar	911
106265	7	Sololá	702	San José Chacayá	5	Chacayá	7	Julio	2023-08-07T00:00:00	2024-11-06T12:00:00	2	Temperatura media	17.6
106266	7	Sololá	702	San José Chacayá	5	Chacayá	7	Julio	2023-08-07T00:00:00	2024-11-06T12:00:00	4	Temperatura máxima	17.9
106267	7	Sololá	702	San José Chacayá	5	Chacayá	7	Julio	2023-08-07T00:00:00	2024-11-06T12:00:00	3	Temperatura mínima	17.2
106268	7	Sololá	702	San José Chacayá	5	Chacayá	7	Julio	2023-08-07T00:00:00	2024-11-06T12:00:00	5	Humedad	83
106269	7	Sololá	702	San José Chacayá	5	Chacayá	7	Julio	2023-08-07T00:00:00	2024-11-06T12:00:00	6	Velocidad del viento	1.6
106270	7	Sololá	702	San José Chacayá	5	Chacayá	7	Julio	2023-08-07T00:00:00	2024-11-06T12:00:00	7	Dirección del viento	1.61
106271	7	Sololá	702	San José Chacayá	5	Chacayá	7	Julio	2023-08-07T00:00:00	2024-11-06T12:00:00	1	Precipitación	0
106272	7	Sololá	702	San José Chacayá	5	Chacayá	7	Julio	2023-08-07T00:00:00	2024-11-06T12:00:00	8	Radiación solar	804
106273	7	Sololá	702	San José Chacayá	5	Chacayá	7	Julio	2023-08-07T00:00:00	2024-11-06T13:00:00	2	Temperatura media	17.8
106274	7	Sololá	702	San José Chacayá	5	Chacayá	7	Julio	2023-08-07T00:00:00	2024-11-06T13:00:00	4	Temperatura máxima	19.1
106275	7	Sololá	702	San José Chacayá	5	Chacayá	7	Julio	2023-08-07T00:00:00	2024-11-06T13:00:00	3	Temperatura mínima	17.7
106276	7	Sololá	702	San José Chacayá	5	Chacayá	7	Julio	2023-08-07T00:00:00	2024-11-06T13:00:00	5	Humedad	83
106277	7	Sololá	702	San José Chacayá	5	Chacayá	7	Julio	2023-08-07T00:00:00	2024-11-06T13:00:00	6	Velocidad del viento	3.2
106278	7	Sololá	702	San José Chacayá	5	Chacayá	7	Julio	2023-08-07T00:00:00	2024-11-06T13:00:00	7	Dirección del viento	3.22
106279	7	Sololá	702	San José Chacayá	5	Chacayá	7	Julio	2023-08-07T00:00:00	2024-11-06T13:00:00	1	Precipitación	0
106280	7	Sololá	702	San José Chacayá	5	Chacayá	7	Julio	2023-08-07T00:00:00	2024-11-06T13:00:00	8	Radiación solar	821
106281	7	Sololá	702	San José Chacayá	5	Chacayá	7	Julio	2023-08-07T00:00:00	2024-11-06T14:00:00	2	Temperatura media	19
106282	7	Sololá	702	San José Chacayá	5	Chacayá	7	Julio	2023-08-07T00:00:00	2024-11-06T14:00:00	4	Temperatura máxima	19.1
106283	7	Sololá	702	San José Chacayá	5	Chacayá	7	Julio	2023-08-07T00:00:00	2024-11-06T14:00:00	3	Temperatura mínima	17.8
106284	7	Sololá	702	San José Chacayá	5	Chacayá	7	Julio	2023-08-07T00:00:00	2024-11-06T14:00:00	5	Humedad	78
106285	7	Sololá	702	San José Chacayá	5	Chacayá	7	Julio	2023-08-07T00:00:00	2024-11-06T14:00:00	6	Velocidad del viento	3.2
106286	7	Sololá	702	San José Chacayá	5	Chacayá	7	Julio	2023-08-07T00:00:00	2024-11-06T14:00:00	7	Dirección del viento	3.22
106287	7	Sololá	702	San José Chacayá	5	Chacayá	7	Julio	2023-08-07T00:00:00	2024-11-06T14:00:00	1	Precipitación	0
106288	7	Sololá	702	San José Chacayá	5	Chacayá	7	Julio	2023-08-07T00:00:00	2024-11-06T14:00:00	8	Radiación solar	833
106289	7	Sololá	702	San José Chacayá	5	Chacayá	7	Julio	2023-08-07T00:00:00	2024-11-06T15:00:00	2	Temperatura media	16.6
106290	7	Sololá	702	San José Chacayá	5	Chacayá	7	Julio	2023-08-07T00:00:00	2024-11-06T15:00:00	4	Temperatura máxima	19.3
106291	7	Sololá	702	San José Chacayá	5	Chacayá	7	Julio	2023-08-07T00:00:00	2024-11-06T15:00:00	3	Temperatura mínima	16.6
106292	7	Sololá	702	San José Chacayá	5	Chacayá	7	Julio	2023-08-07T00:00:00	2024-11-06T15:00:00	5	Humedad	89
106293	7	Sololá	702	San José Chacayá	5	Chacayá	7	Julio	2023-08-07T00:00:00	2024-11-06T15:00:00	6	Velocidad del viento	3.2
106294	7	Sololá	702	San José Chacayá	5	Chacayá	7	Julio	2023-08-07T00:00:00	2024-11-06T15:00:00	7	Dirección del viento	3.22
106295	7	Sololá	702	San José Chacayá	5	Chacayá	7	Julio	2023-08-07T00:00:00	2024-11-06T15:00:00	1	Precipitación	2.2
106296	7	Sololá	702	San José Chacayá	5	Chacayá	7	Julio	2023-08-07T00:00:00	2024-11-06T15:00:00	8	Radiación solar	674
106297	7	Sololá	702	San José Chacayá	5	Chacayá	7	Julio	2023-08-07T00:00:00	2024-11-06T16:00:00	2	Temperatura media	15.7
106298	7	Sololá	702	San José Chacayá	5	Chacayá	7	Julio	2023-08-07T00:00:00	2024-11-06T16:00:00	4	Temperatura máxima	16.6
106299	7	Sololá	702	San José Chacayá	5	Chacayá	7	Julio	2023-08-07T00:00:00	2024-11-06T16:00:00	3	Temperatura mínima	15.5
106300	7	Sololá	702	San José Chacayá	5	Chacayá	7	Julio	2023-08-07T00:00:00	2024-11-06T16:00:00	5	Humedad	94
106301	7	Sololá	702	San José Chacayá	5	Chacayá	7	Julio	2023-08-07T00:00:00	2024-11-06T16:00:00	6	Velocidad del viento	1.6
106302	7	Sololá	702	San José Chacayá	5	Chacayá	7	Julio	2023-08-07T00:00:00	2024-11-06T16:00:00	7	Dirección del viento	1.61
106303	7	Sololá	702	San José Chacayá	5	Chacayá	7	Julio	2023-08-07T00:00:00	2024-11-06T16:00:00	1	Precipitación	2.6
106304	7	Sololá	702	San José Chacayá	5	Chacayá	7	Julio	2023-08-07T00:00:00	2024-11-06T16:00:00	8	Radiación solar	683
106305	7	Sololá	702	San José Chacayá	5	Chacayá	7	Julio	2023-08-07T00:00:00	2024-11-06T17:00:00	2	Temperatura media	15.1
106306	7	Sololá	702	San José Chacayá	5	Chacayá	7	Julio	2023-08-07T00:00:00	2024-11-06T17:00:00	4	Temperatura máxima	15.7
106307	7	Sololá	702	San José Chacayá	5	Chacayá	7	Julio	2023-08-07T00:00:00	2024-11-06T17:00:00	3	Temperatura mínima	15.1
106308	7	Sololá	702	San José Chacayá	5	Chacayá	7	Julio	2023-08-07T00:00:00	2024-11-06T17:00:00	5	Humedad	94
106309	7	Sololá	702	San José Chacayá	5	Chacayá	7	Julio	2023-08-07T00:00:00	2024-11-06T17:00:00	6	Velocidad del viento	1.6
106310	7	Sololá	702	San José Chacayá	5	Chacayá	7	Julio	2023-08-07T00:00:00	2024-11-06T17:00:00	7	Dirección del viento	1.61
106311	7	Sololá	702	San José Chacayá	5	Chacayá	7	Julio	2023-08-07T00:00:00	2024-11-06T17:00:00	1	Precipitación	3.8
106312	7	Sololá	702	San José Chacayá	5	Chacayá	7	Julio	2023-08-07T00:00:00	2024-11-06T17:00:00	8	Radiación solar	335
106313	7	Sololá	702	San José Chacayá	5	Chacayá	7	Julio	2023-08-07T00:00:00	2024-11-06T18:00:00	2	Temperatura media	14.6
106314	7	Sololá	702	San José Chacayá	5	Chacayá	7	Julio	2023-08-07T00:00:00	2024-11-06T18:00:00	4	Temperatura máxima	15.1
106315	7	Sololá	702	San José Chacayá	5	Chacayá	7	Julio	2023-08-07T00:00:00	2024-11-06T18:00:00	3	Temperatura mínima	14.6
106316	7	Sololá	702	San José Chacayá	5	Chacayá	7	Julio	2023-08-07T00:00:00	2024-11-06T18:00:00	5	Humedad	95
106317	7	Sololá	702	San José Chacayá	5	Chacayá	7	Julio	2023-08-07T00:00:00	2024-11-06T18:00:00	6	Velocidad del viento	0
106318	7	Sololá	702	San José Chacayá	5	Chacayá	7	Julio	2023-08-07T00:00:00	2024-11-06T18:00:00	7	Dirección del viento	0
106319	7	Sololá	702	San José Chacayá	5	Chacayá	7	Julio	2023-08-07T00:00:00	2024-11-06T18:00:00	1	Precipitación	1.8
106320	7	Sololá	702	San José Chacayá	5	Chacayá	7	Julio	2023-08-07T00:00:00	2024-11-06T18:00:00	8	Radiación solar	100
106321	7	Sololá	702	San José Chacayá	5	Chacayá	7	Julio	2023-08-07T00:00:00	2024-11-06T19:00:00	2	Temperatura media	14.4
106322	7	Sololá	702	San José Chacayá	5	Chacayá	7	Julio	2023-08-07T00:00:00	2024-11-06T19:00:00	4	Temperatura máxima	14.7
106323	7	Sololá	702	San José Chacayá	5	Chacayá	7	Julio	2023-08-07T00:00:00	2024-11-06T19:00:00	3	Temperatura mínima	14.4
106324	7	Sololá	702	San José Chacayá	5	Chacayá	7	Julio	2023-08-07T00:00:00	2024-11-06T19:00:00	5	Humedad	95
106325	7	Sololá	702	San José Chacayá	5	Chacayá	7	Julio	2023-08-07T00:00:00	2024-11-06T19:00:00	6	Velocidad del viento	0
106326	7	Sololá	702	San José Chacayá	5	Chacayá	7	Julio	2023-08-07T00:00:00	2024-11-06T19:00:00	7	Dirección del viento	0
106327	7	Sololá	702	San José Chacayá	5	Chacayá	7	Julio	2023-08-07T00:00:00	2024-11-06T19:00:00	1	Precipitación	0.4
106328	7	Sololá	702	San José Chacayá	5	Chacayá	7	Julio	2023-08-07T00:00:00	2024-11-06T19:00:00	8	Radiación solar	0
106329	7	Sololá	702	San José Chacayá	5	Chacayá	7	Julio	2023-08-07T00:00:00	2024-11-06T20:00:00	2	Temperatura media	14.2
106330	7	Sololá	702	San José Chacayá	5	Chacayá	7	Julio	2023-08-07T00:00:00	2024-11-06T20:00:00	4	Temperatura máxima	14.4
106331	7	Sololá	702	San José Chacayá	5	Chacayá	7	Julio	2023-08-07T00:00:00	2024-11-06T20:00:00	3	Temperatura mínima	14.1
106332	7	Sololá	702	San José Chacayá	5	Chacayá	7	Julio	2023-08-07T00:00:00	2024-11-06T20:00:00	5	Humedad	95
106333	7	Sololá	702	San José Chacayá	5	Chacayá	7	Julio	2023-08-07T00:00:00	2024-11-06T20:00:00	6	Velocidad del viento	0
106334	7	Sololá	702	San José Chacayá	5	Chacayá	7	Julio	2023-08-07T00:00:00	2024-11-06T20:00:00	7	Dirección del viento	0
106335	7	Sololá	702	San José Chacayá	5	Chacayá	7	Julio	2023-08-07T00:00:00	2024-11-06T20:00:00	1	Precipitación	0.8
106336	7	Sololá	702	San José Chacayá	5	Chacayá	7	Julio	2023-08-07T00:00:00	2024-11-06T20:00:00	8	Radiación solar	0
106337	7	Sololá	702	San José Chacayá	5	Chacayá	7	Julio	2023-08-07T00:00:00	2024-11-06T21:00:00	2	Temperatura media	13.8
106338	7	Sololá	702	San José Chacayá	5	Chacayá	7	Julio	2023-08-07T00:00:00	2024-11-06T21:00:00	4	Temperatura máxima	14.2
106339	7	Sololá	702	San José Chacayá	5	Chacayá	7	Julio	2023-08-07T00:00:00	2024-11-06T21:00:00	3	Temperatura mínima	13.8
106340	7	Sololá	702	San José Chacayá	5	Chacayá	7	Julio	2023-08-07T00:00:00	2024-11-06T21:00:00	5	Humedad	95
106341	7	Sololá	702	San José Chacayá	5	Chacayá	7	Julio	2023-08-07T00:00:00	2024-11-06T21:00:00	6	Velocidad del viento	0
106342	7	Sololá	702	San José Chacayá	5	Chacayá	7	Julio	2023-08-07T00:00:00	2024-11-06T21:00:00	7	Dirección del viento	0
106343	7	Sololá	702	San José Chacayá	5	Chacayá	7	Julio	2023-08-07T00:00:00	2024-11-06T21:00:00	1	Precipitación	0.2
106344	7	Sololá	702	San José Chacayá	5	Chacayá	7	Julio	2023-08-07T00:00:00	2024-11-06T21:00:00	8	Radiación solar	0
106345	7	Sololá	702	San José Chacayá	5	Chacayá	7	Julio	2023-08-07T00:00:00	2024-11-06T22:00:00	2	Temperatura media	13.1
106346	7	Sololá	702	San José Chacayá	5	Chacayá	7	Julio	2023-08-07T00:00:00	2024-11-06T22:00:00	4	Temperatura máxima	13.8
106347	7	Sololá	702	San José Chacayá	5	Chacayá	7	Julio	2023-08-07T00:00:00	2024-11-06T22:00:00	3	Temperatura mínima	13.1
106348	7	Sololá	702	San José Chacayá	5	Chacayá	7	Julio	2023-08-07T00:00:00	2024-11-06T22:00:00	5	Humedad	94
106349	7	Sololá	702	San José Chacayá	5	Chacayá	7	Julio	2023-08-07T00:00:00	2024-11-06T22:00:00	6	Velocidad del viento	0
106350	7	Sololá	702	San José Chacayá	5	Chacayá	7	Julio	2023-08-07T00:00:00	2024-11-06T22:00:00	7	Dirección del viento	0
106351	7	Sololá	702	San José Chacayá	5	Chacayá	7	Julio	2023-08-07T00:00:00	2024-11-06T22:00:00	1	Precipitación	0
106352	7	Sololá	702	San José Chacayá	5	Chacayá	7	Julio	2023-08-07T00:00:00	2024-11-06T22:00:00	8	Radiación solar	0
106353	7	Sololá	702	San José Chacayá	5	Chacayá	7	Julio	2023-08-07T00:00:00	2024-11-06T23:00:00	2	Temperatura media	13.2
106354	7	Sololá	702	San José Chacayá	5	Chacayá	7	Julio	2023-08-07T00:00:00	2024-11-06T23:00:00	4	Temperatura máxima	13.2
106355	7	Sololá	702	San José Chacayá	5	Chacayá	7	Julio	2023-08-07T00:00:00	2024-11-06T23:00:00	3	Temperatura mínima	12.9
106356	7	Sololá	702	San José Chacayá	5	Chacayá	7	Julio	2023-08-07T00:00:00	2024-11-06T23:00:00	5	Humedad	96
106357	7	Sololá	702	San José Chacayá	5	Chacayá	7	Julio	2023-08-07T00:00:00	2024-11-06T23:00:00	6	Velocidad del viento	0
106358	7	Sololá	702	San José Chacayá	5	Chacayá	7	Julio	2023-08-07T00:00:00	2024-11-06T23:00:00	7	Dirección del viento	0
106359	7	Sololá	702	San José Chacayá	5	Chacayá	7	Julio	2023-08-07T00:00:00	2024-11-06T23:00:00	1	Precipitación	0
106360	7	Sololá	702	San José Chacayá	5	Chacayá	7	Julio	2023-08-07T00:00:00	2024-11-06T23:00:00	8	Radiación solar	0
106361	7	Sololá	702	San José Chacayá	5	Chacayá	7	Julio	2023-09-07T00:00:00	2024-11-06T00:00:00	2	Temperatura media	13.3
106362	7	Sololá	702	San José Chacayá	5	Chacayá	7	Julio	2023-09-07T00:00:00	2024-11-06T00:00:00	4	Temperatura máxima	13.3
106363	7	Sololá	702	San José Chacayá	5	Chacayá	7	Julio	2023-09-07T00:00:00	2024-11-06T00:00:00	3	Temperatura mínima	13.1
106364	7	Sololá	702	San José Chacayá	5	Chacayá	7	Julio	2023-09-07T00:00:00	2024-11-06T00:00:00	5	Humedad	96
106365	7	Sololá	702	San José Chacayá	5	Chacayá	7	Julio	2023-09-07T00:00:00	2024-11-06T00:00:00	6	Velocidad del viento	0
106366	7	Sololá	702	San José Chacayá	5	Chacayá	7	Julio	2023-09-07T00:00:00	2024-11-06T00:00:00	7	Dirección del viento	0
106367	7	Sololá	702	San José Chacayá	5	Chacayá	7	Julio	2023-09-07T00:00:00	2024-11-06T00:00:00	1	Precipitación	0
106368	7	Sololá	702	San José Chacayá	5	Chacayá	7	Julio	2023-09-07T00:00:00	2024-11-06T00:00:00	8	Radiación solar	0
106369	7	Sololá	702	San José Chacayá	5	Chacayá	7	Julio	2023-09-07T00:00:00	2024-11-06T01:00:00	2	Temperatura media	13.5
106370	7	Sololá	702	San José Chacayá	5	Chacayá	7	Julio	2023-09-07T00:00:00	2024-11-06T01:00:00	4	Temperatura máxima	13.5
106371	7	Sololá	702	San José Chacayá	5	Chacayá	7	Julio	2023-09-07T00:00:00	2024-11-06T01:00:00	3	Temperatura mínima	13.3
106372	7	Sololá	702	San José Chacayá	5	Chacayá	7	Julio	2023-09-07T00:00:00	2024-11-06T01:00:00	5	Humedad	97
106373	7	Sololá	702	San José Chacayá	5	Chacayá	7	Julio	2023-09-07T00:00:00	2024-11-06T01:00:00	6	Velocidad del viento	0
106374	7	Sololá	702	San José Chacayá	5	Chacayá	7	Julio	2023-09-07T00:00:00	2024-11-06T01:00:00	7	Dirección del viento	0
106375	7	Sololá	702	San José Chacayá	5	Chacayá	7	Julio	2023-09-07T00:00:00	2024-11-06T01:00:00	1	Precipitación	0
106376	7	Sololá	702	San José Chacayá	5	Chacayá	7	Julio	2023-09-07T00:00:00	2024-11-06T01:00:00	8	Radiación solar	0
106377	7	Sololá	702	San José Chacayá	5	Chacayá	7	Julio	2023-09-07T00:00:00	2024-11-06T02:00:00	2	Temperatura media	13.2
106378	7	Sololá	702	San José Chacayá	5	Chacayá	7	Julio	2023-09-07T00:00:00	2024-11-06T02:00:00	4	Temperatura máxima	13.6
106379	7	Sololá	702	San José Chacayá	5	Chacayá	7	Julio	2023-09-07T00:00:00	2024-11-06T02:00:00	3	Temperatura mínima	13.2
106380	7	Sololá	702	San José Chacayá	5	Chacayá	7	Julio	2023-09-07T00:00:00	2024-11-06T02:00:00	5	Humedad	95
106381	7	Sololá	702	San José Chacayá	5	Chacayá	7	Julio	2023-09-07T00:00:00	2024-11-06T02:00:00	6	Velocidad del viento	0
106382	7	Sololá	702	San José Chacayá	5	Chacayá	7	Julio	2023-09-07T00:00:00	2024-11-06T02:00:00	7	Dirección del viento	0
106383	7	Sololá	702	San José Chacayá	5	Chacayá	7	Julio	2023-09-07T00:00:00	2024-11-06T02:00:00	1	Precipitación	0
106384	7	Sololá	702	San José Chacayá	5	Chacayá	7	Julio	2023-09-07T00:00:00	2024-11-06T02:00:00	8	Radiación solar	0
106385	7	Sololá	702	San José Chacayá	5	Chacayá	7	Julio	2023-09-07T00:00:00	2024-11-06T03:00:00	2	Temperatura media	13.1
106386	7	Sololá	702	San José Chacayá	5	Chacayá	7	Julio	2023-09-07T00:00:00	2024-11-06T03:00:00	4	Temperatura máxima	13.2
106387	7	Sololá	702	San José Chacayá	5	Chacayá	7	Julio	2023-09-07T00:00:00	2024-11-06T03:00:00	3	Temperatura mínima	12.9
106388	7	Sololá	702	San José Chacayá	5	Chacayá	7	Julio	2023-09-07T00:00:00	2024-11-06T03:00:00	5	Humedad	96
106389	7	Sololá	702	San José Chacayá	5	Chacayá	7	Julio	2023-09-07T00:00:00	2024-11-06T03:00:00	6	Velocidad del viento	0
106390	7	Sololá	702	San José Chacayá	5	Chacayá	7	Julio	2023-09-07T00:00:00	2024-11-06T03:00:00	7	Dirección del viento	0
106391	7	Sololá	702	San José Chacayá	5	Chacayá	7	Julio	2023-09-07T00:00:00	2024-11-06T03:00:00	1	Precipitación	0
106392	7	Sololá	702	San José Chacayá	5	Chacayá	7	Julio	2023-09-07T00:00:00	2024-11-06T03:00:00	8	Radiación solar	0
106393	7	Sololá	702	San José Chacayá	5	Chacayá	7	Julio	2023-09-07T00:00:00	2024-11-06T04:00:00	2	Temperatura media	12.7
106394	7	Sololá	702	San José Chacayá	5	Chacayá	7	Julio	2023-09-07T00:00:00	2024-11-06T04:00:00	4	Temperatura máxima	13.1
106395	7	Sololá	702	San José Chacayá	5	Chacayá	7	Julio	2023-09-07T00:00:00	2024-11-06T04:00:00	3	Temperatura mínima	12.7
106396	7	Sololá	702	San José Chacayá	5	Chacayá	7	Julio	2023-09-07T00:00:00	2024-11-06T04:00:00	5	Humedad	96
106397	7	Sololá	702	San José Chacayá	5	Chacayá	7	Julio	2023-09-07T00:00:00	2024-11-06T04:00:00	6	Velocidad del viento	0
106398	7	Sololá	702	San José Chacayá	5	Chacayá	7	Julio	2023-09-07T00:00:00	2024-11-06T04:00:00	7	Dirección del viento	0
106399	7	Sololá	702	San José Chacayá	5	Chacayá	7	Julio	2023-09-07T00:00:00	2024-11-06T04:00:00	1	Precipitación	0
106400	7	Sololá	702	San José Chacayá	5	Chacayá	7	Julio	2023-09-07T00:00:00	2024-11-06T04:00:00	8	Radiación solar	0
106401	7	Sololá	702	San José Chacayá	5	Chacayá	7	Julio	2023-09-07T00:00:00	2024-11-06T05:00:00	2	Temperatura media	12.1
106402	7	Sololá	702	San José Chacayá	5	Chacayá	7	Julio	2023-09-07T00:00:00	2024-11-06T05:00:00	4	Temperatura máxima	12.8
106403	7	Sololá	702	San José Chacayá	5	Chacayá	7	Julio	2023-09-07T00:00:00	2024-11-06T05:00:00	3	Temperatura mínima	12.1
106404	7	Sololá	702	San José Chacayá	5	Chacayá	7	Julio	2023-09-07T00:00:00	2024-11-06T05:00:00	5	Humedad	96
106405	7	Sololá	702	San José Chacayá	5	Chacayá	7	Julio	2023-09-07T00:00:00	2024-11-06T05:00:00	6	Velocidad del viento	0
106406	7	Sololá	702	San José Chacayá	5	Chacayá	7	Julio	2023-09-07T00:00:00	2024-11-06T05:00:00	7	Dirección del viento	0
106407	7	Sololá	702	San José Chacayá	5	Chacayá	7	Julio	2023-09-07T00:00:00	2024-11-06T05:00:00	1	Precipitación	0
106408	7	Sololá	702	San José Chacayá	5	Chacayá	7	Julio	2023-09-07T00:00:00	2024-11-06T05:00:00	8	Radiación solar	0
106409	7	Sololá	702	San José Chacayá	5	Chacayá	7	Julio	2023-09-07T00:00:00	2024-11-06T06:00:00	2	Temperatura media	11.8
106410	7	Sololá	702	San José Chacayá	5	Chacayá	7	Julio	2023-09-07T00:00:00	2024-11-06T06:00:00	4	Temperatura máxima	12.1
106411	7	Sololá	702	San José Chacayá	5	Chacayá	7	Julio	2023-09-07T00:00:00	2024-11-06T06:00:00	3	Temperatura mínima	11.8
106412	7	Sololá	702	San José Chacayá	5	Chacayá	7	Julio	2023-09-07T00:00:00	2024-11-06T06:00:00	5	Humedad	96
106413	7	Sololá	702	San José Chacayá	5	Chacayá	7	Julio	2023-09-07T00:00:00	2024-11-06T06:00:00	6	Velocidad del viento	0
106414	7	Sololá	702	San José Chacayá	5	Chacayá	7	Julio	2023-09-07T00:00:00	2024-11-06T06:00:00	7	Dirección del viento	0
106415	7	Sololá	702	San José Chacayá	5	Chacayá	7	Julio	2023-09-07T00:00:00	2024-11-06T06:00:00	1	Precipitación	0
106416	7	Sololá	702	San José Chacayá	5	Chacayá	7	Julio	2023-09-07T00:00:00	2024-11-06T06:00:00	8	Radiación solar	4
106417	7	Sololá	702	San José Chacayá	5	Chacayá	7	Julio	2023-09-07T00:00:00	2024-11-06T07:00:00	2	Temperatura media	13.2
106418	7	Sololá	702	San José Chacayá	5	Chacayá	7	Julio	2023-09-07T00:00:00	2024-11-06T07:00:00	4	Temperatura máxima	13.2
106419	7	Sololá	702	San José Chacayá	5	Chacayá	7	Julio	2023-09-07T00:00:00	2024-11-06T07:00:00	3	Temperatura mínima	11.8
106420	7	Sololá	702	San José Chacayá	5	Chacayá	7	Julio	2023-09-07T00:00:00	2024-11-06T07:00:00	5	Humedad	97
106421	7	Sololá	702	San José Chacayá	5	Chacayá	7	Julio	2023-09-07T00:00:00	2024-11-06T07:00:00	6	Velocidad del viento	1.6
106422	7	Sololá	702	San José Chacayá	5	Chacayá	7	Julio	2023-09-07T00:00:00	2024-11-06T07:00:00	7	Dirección del viento	1.61
106423	7	Sololá	702	San José Chacayá	5	Chacayá	7	Julio	2023-09-07T00:00:00	2024-11-06T07:00:00	1	Precipitación	0
106424	7	Sololá	702	San José Chacayá	5	Chacayá	7	Julio	2023-09-07T00:00:00	2024-11-06T07:00:00	8	Radiación solar	45
106425	7	Sololá	702	San José Chacayá	5	Chacayá	7	Julio	2023-09-07T00:00:00	2024-11-06T08:00:00	2	Temperatura media	16.2
106426	7	Sololá	702	San José Chacayá	5	Chacayá	7	Julio	2023-09-07T00:00:00	2024-11-06T08:00:00	4	Temperatura máxima	16.2
106427	7	Sololá	702	San José Chacayá	5	Chacayá	7	Julio	2023-09-07T00:00:00	2024-11-06T08:00:00	3	Temperatura mínima	13.2
106428	7	Sololá	702	San José Chacayá	5	Chacayá	7	Julio	2023-09-07T00:00:00	2024-11-06T08:00:00	5	Humedad	86
106429	7	Sololá	702	San José Chacayá	5	Chacayá	7	Julio	2023-09-07T00:00:00	2024-11-06T08:00:00	6	Velocidad del viento	0
106430	7	Sololá	702	San José Chacayá	5	Chacayá	7	Julio	2023-09-07T00:00:00	2024-11-06T08:00:00	7	Dirección del viento	0
106431	7	Sololá	702	San José Chacayá	5	Chacayá	7	Julio	2023-09-07T00:00:00	2024-11-06T08:00:00	1	Precipitación	0
106432	7	Sololá	702	San José Chacayá	5	Chacayá	7	Julio	2023-09-07T00:00:00	2024-11-06T08:00:00	8	Radiación solar	165
106433	7	Sololá	702	San José Chacayá	5	Chacayá	7	Julio	2023-09-07T00:00:00	2024-11-06T09:00:00	2	Temperatura media	19.2
106434	7	Sololá	702	San José Chacayá	5	Chacayá	7	Julio	2023-09-07T00:00:00	2024-11-06T09:00:00	4	Temperatura máxima	19.2
106435	7	Sololá	702	San José Chacayá	5	Chacayá	7	Julio	2023-09-07T00:00:00	2024-11-06T09:00:00	3	Temperatura mínima	16.2
106436	7	Sololá	702	San José Chacayá	5	Chacayá	7	Julio	2023-09-07T00:00:00	2024-11-06T09:00:00	5	Humedad	76
106437	7	Sololá	702	San José Chacayá	5	Chacayá	7	Julio	2023-09-07T00:00:00	2024-11-06T09:00:00	6	Velocidad del viento	3.2
106438	7	Sololá	702	San José Chacayá	5	Chacayá	7	Julio	2023-09-07T00:00:00	2024-11-06T09:00:00	7	Dirección del viento	3.22
106439	7	Sololá	702	San José Chacayá	5	Chacayá	7	Julio	2023-09-07T00:00:00	2024-11-06T09:00:00	1	Precipitación	0
106440	7	Sololá	702	San José Chacayá	5	Chacayá	7	Julio	2023-09-07T00:00:00	2024-11-06T09:00:00	8	Radiación solar	476
106441	7	Sololá	702	San José Chacayá	5	Chacayá	7	Julio	2023-09-07T00:00:00	2024-11-06T10:00:00	2	Temperatura media	19.4
106442	7	Sololá	702	San José Chacayá	5	Chacayá	7	Julio	2023-09-07T00:00:00	2024-11-06T10:00:00	4	Temperatura máxima	19.7
106443	7	Sololá	702	San José Chacayá	5	Chacayá	7	Julio	2023-09-07T00:00:00	2024-11-06T10:00:00	3	Temperatura mínima	18.6
106444	7	Sololá	702	San José Chacayá	5	Chacayá	7	Julio	2023-09-07T00:00:00	2024-11-06T10:00:00	5	Humedad	80
106445	7	Sololá	702	San José Chacayá	5	Chacayá	7	Julio	2023-09-07T00:00:00	2024-11-06T10:00:00	6	Velocidad del viento	3.2
106446	7	Sololá	702	San José Chacayá	5	Chacayá	7	Julio	2023-09-07T00:00:00	2024-11-06T10:00:00	7	Dirección del viento	3.22
106447	7	Sololá	702	San José Chacayá	5	Chacayá	7	Julio	2023-09-07T00:00:00	2024-11-06T10:00:00	1	Precipitación	0
106448	7	Sololá	702	San José Chacayá	5	Chacayá	7	Julio	2023-09-07T00:00:00	2024-11-06T10:00:00	8	Radiación solar	607
106449	7	Sololá	702	San José Chacayá	5	Chacayá	7	Julio	2023-09-07T00:00:00	2024-11-06T11:00:00	2	Temperatura media	19.2
106450	7	Sololá	702	San José Chacayá	5	Chacayá	7	Julio	2023-09-07T00:00:00	2024-11-06T11:00:00	4	Temperatura máxima	20
106451	7	Sololá	702	San José Chacayá	5	Chacayá	7	Julio	2023-09-07T00:00:00	2024-11-06T11:00:00	3	Temperatura mínima	18.4
106452	7	Sololá	702	San José Chacayá	5	Chacayá	7	Julio	2023-09-07T00:00:00	2024-11-06T11:00:00	5	Humedad	80
106453	7	Sololá	702	San José Chacayá	5	Chacayá	7	Julio	2023-09-07T00:00:00	2024-11-06T11:00:00	6	Velocidad del viento	3.2
106454	7	Sololá	702	San José Chacayá	5	Chacayá	7	Julio	2023-09-07T00:00:00	2024-11-06T11:00:00	7	Dirección del viento	3.22
106455	7	Sololá	702	San José Chacayá	5	Chacayá	7	Julio	2023-09-07T00:00:00	2024-11-06T11:00:00	1	Precipitación	0
106456	7	Sololá	702	San José Chacayá	5	Chacayá	7	Julio	2023-09-07T00:00:00	2024-11-06T11:00:00	8	Radiación solar	401
106457	7	Sololá	702	San José Chacayá	5	Chacayá	7	Julio	2023-09-07T00:00:00	2024-11-06T12:00:00	2	Temperatura media	21.3
106458	7	Sololá	702	San José Chacayá	5	Chacayá	7	Julio	2023-09-07T00:00:00	2024-11-06T12:00:00	4	Temperatura máxima	21.4
106459	7	Sololá	702	San José Chacayá	5	Chacayá	7	Julio	2023-09-07T00:00:00	2024-11-06T12:00:00	3	Temperatura mínima	19.2
106460	7	Sololá	702	San José Chacayá	5	Chacayá	7	Julio	2023-09-07T00:00:00	2024-11-06T12:00:00	5	Humedad	67
106461	7	Sololá	702	San José Chacayá	5	Chacayá	7	Julio	2023-09-07T00:00:00	2024-11-06T12:00:00	6	Velocidad del viento	1.6
106462	7	Sololá	702	San José Chacayá	5	Chacayá	7	Julio	2023-09-07T00:00:00	2024-11-06T12:00:00	7	Dirección del viento	1.61
106463	7	Sololá	702	San José Chacayá	5	Chacayá	7	Julio	2023-09-07T00:00:00	2024-11-06T12:00:00	1	Precipitación	0
106464	7	Sololá	702	San José Chacayá	5	Chacayá	7	Julio	2023-09-07T00:00:00	2024-11-06T12:00:00	8	Radiación solar	569
106465	7	Sololá	702	San José Chacayá	5	Chacayá	7	Julio	2023-09-07T00:00:00	2024-11-06T13:00:00	2	Temperatura media	22.9
106466	7	Sololá	702	San José Chacayá	5	Chacayá	7	Julio	2023-09-07T00:00:00	2024-11-06T13:00:00	4	Temperatura máxima	22.9
106467	7	Sololá	702	San José Chacayá	5	Chacayá	7	Julio	2023-09-07T00:00:00	2024-11-06T13:00:00	3	Temperatura mínima	21.3
106468	7	Sololá	702	San José Chacayá	5	Chacayá	7	Julio	2023-09-07T00:00:00	2024-11-06T13:00:00	5	Humedad	63
106469	7	Sololá	702	San José Chacayá	5	Chacayá	7	Julio	2023-09-07T00:00:00	2024-11-06T13:00:00	6	Velocidad del viento	3.2
106470	7	Sololá	702	San José Chacayá	5	Chacayá	7	Julio	2023-09-07T00:00:00	2024-11-06T13:00:00	7	Dirección del viento	3.22
106471	7	Sololá	702	San José Chacayá	5	Chacayá	7	Julio	2023-09-07T00:00:00	2024-11-06T13:00:00	1	Precipitación	0
106472	7	Sololá	702	San José Chacayá	5	Chacayá	7	Julio	2023-09-07T00:00:00	2024-11-06T13:00:00	8	Radiación solar	286
106473	7	Sololá	702	San José Chacayá	5	Chacayá	7	Julio	2023-09-07T00:00:00	2024-11-06T14:00:00	2	Temperatura media	21.1
106474	7	Sololá	702	San José Chacayá	5	Chacayá	7	Julio	2023-09-07T00:00:00	2024-11-06T14:00:00	4	Temperatura máxima	23.3
106475	7	Sololá	702	San José Chacayá	5	Chacayá	7	Julio	2023-09-07T00:00:00	2024-11-06T14:00:00	3	Temperatura mínima	21
106476	7	Sololá	702	San José Chacayá	5	Chacayá	7	Julio	2023-09-07T00:00:00	2024-11-06T14:00:00	5	Humedad	78
106477	7	Sololá	702	San José Chacayá	5	Chacayá	7	Julio	2023-09-07T00:00:00	2024-11-06T14:00:00	6	Velocidad del viento	4.8
106478	7	Sololá	702	San José Chacayá	5	Chacayá	7	Julio	2023-09-07T00:00:00	2024-11-06T14:00:00	7	Dirección del viento	4.83
106479	7	Sololá	702	San José Chacayá	5	Chacayá	7	Julio	2023-09-07T00:00:00	2024-11-06T14:00:00	1	Precipitación	0
106480	7	Sololá	702	San José Chacayá	5	Chacayá	7	Julio	2023-09-07T00:00:00	2024-11-06T14:00:00	8	Radiación solar	787
106481	7	Sololá	702	San José Chacayá	5	Chacayá	7	Julio	2023-09-07T00:00:00	2024-11-06T15:00:00	2	Temperatura media	18.7
106482	7	Sololá	702	San José Chacayá	5	Chacayá	7	Julio	2023-09-07T00:00:00	2024-11-06T15:00:00	4	Temperatura máxima	21.2
106483	7	Sololá	702	San José Chacayá	5	Chacayá	7	Julio	2023-09-07T00:00:00	2024-11-06T15:00:00	3	Temperatura mínima	18.7
106484	7	Sololá	702	San José Chacayá	5	Chacayá	7	Julio	2023-09-07T00:00:00	2024-11-06T15:00:00	5	Humedad	85
106485	7	Sololá	702	San José Chacayá	5	Chacayá	7	Julio	2023-09-07T00:00:00	2024-11-06T15:00:00	6	Velocidad del viento	3.2
106486	7	Sololá	702	San José Chacayá	5	Chacayá	7	Julio	2023-09-07T00:00:00	2024-11-06T15:00:00	7	Dirección del viento	3.22
106487	7	Sololá	702	San José Chacayá	5	Chacayá	7	Julio	2023-09-07T00:00:00	2024-11-06T15:00:00	1	Precipitación	0.2
106488	7	Sololá	702	San José Chacayá	5	Chacayá	7	Julio	2023-09-07T00:00:00	2024-11-06T15:00:00	8	Radiación solar	484
106489	7	Sololá	702	San José Chacayá	5	Chacayá	7	Julio	2023-09-07T00:00:00	2024-11-06T16:00:00	2	Temperatura media	16.5
106490	7	Sololá	702	San José Chacayá	5	Chacayá	7	Julio	2023-09-07T00:00:00	2024-11-06T16:00:00	4	Temperatura máxima	18.7
106491	7	Sololá	702	San José Chacayá	5	Chacayá	7	Julio	2023-09-07T00:00:00	2024-11-06T16:00:00	3	Temperatura mínima	16.5
106492	7	Sololá	702	San José Chacayá	5	Chacayá	7	Julio	2023-09-07T00:00:00	2024-11-06T16:00:00	5	Humedad	92
106493	7	Sololá	702	San José Chacayá	5	Chacayá	7	Julio	2023-09-07T00:00:00	2024-11-06T16:00:00	6	Velocidad del viento	1.6
106494	7	Sololá	702	San José Chacayá	5	Chacayá	7	Julio	2023-09-07T00:00:00	2024-11-06T16:00:00	7	Dirección del viento	1.61
106495	7	Sololá	702	San José Chacayá	5	Chacayá	7	Julio	2023-09-07T00:00:00	2024-11-06T16:00:00	1	Precipitación	1.6
106496	7	Sololá	702	San José Chacayá	5	Chacayá	7	Julio	2023-09-07T00:00:00	2024-11-06T16:00:00	8	Radiación solar	394
106497	7	Sololá	702	San José Chacayá	5	Chacayá	7	Julio	2023-09-07T00:00:00	2024-11-06T17:00:00	2	Temperatura media	17
106498	7	Sololá	702	San José Chacayá	5	Chacayá	7	Julio	2023-09-07T00:00:00	2024-11-06T17:00:00	4	Temperatura máxima	17.1
106499	7	Sololá	702	San José Chacayá	5	Chacayá	7	Julio	2023-09-07T00:00:00	2024-11-06T17:00:00	3	Temperatura mínima	16.4
106500	7	Sololá	702	San José Chacayá	5	Chacayá	7	Julio	2023-09-07T00:00:00	2024-11-06T17:00:00	5	Humedad	92
106501	7	Sololá	702	San José Chacayá	5	Chacayá	7	Julio	2023-09-07T00:00:00	2024-11-06T17:00:00	6	Velocidad del viento	0
106502	7	Sololá	702	San José Chacayá	5	Chacayá	7	Julio	2023-09-07T00:00:00	2024-11-06T17:00:00	7	Dirección del viento	0
106503	7	Sololá	702	San José Chacayá	5	Chacayá	7	Julio	2023-09-07T00:00:00	2024-11-06T17:00:00	1	Precipitación	0.8
106504	7	Sololá	702	San José Chacayá	5	Chacayá	7	Julio	2023-09-07T00:00:00	2024-11-06T17:00:00	8	Radiación solar	245
106505	7	Sololá	702	San José Chacayá	5	Chacayá	7	Julio	2023-09-07T00:00:00	2024-11-06T18:00:00	2	Temperatura media	16.8
106506	7	Sololá	702	San José Chacayá	5	Chacayá	7	Julio	2023-09-07T00:00:00	2024-11-06T18:00:00	4	Temperatura máxima	17.2
106507	7	Sololá	702	San José Chacayá	5	Chacayá	7	Julio	2023-09-07T00:00:00	2024-11-06T18:00:00	3	Temperatura mínima	16.8
106508	7	Sololá	702	San José Chacayá	5	Chacayá	7	Julio	2023-09-07T00:00:00	2024-11-06T18:00:00	5	Humedad	91
106509	7	Sololá	702	San José Chacayá	5	Chacayá	7	Julio	2023-09-07T00:00:00	2024-11-06T18:00:00	6	Velocidad del viento	0
106510	7	Sololá	702	San José Chacayá	5	Chacayá	7	Julio	2023-09-07T00:00:00	2024-11-06T18:00:00	7	Dirección del viento	0
106511	7	Sololá	702	San José Chacayá	5	Chacayá	7	Julio	2023-09-07T00:00:00	2024-11-06T18:00:00	1	Precipitación	0
106512	7	Sololá	702	San José Chacayá	5	Chacayá	7	Julio	2023-09-07T00:00:00	2024-11-06T18:00:00	8	Radiación solar	27
106513	7	Sololá	702	San José Chacayá	5	Chacayá	7	Julio	2023-09-07T00:00:00	2024-11-06T19:00:00	2	Temperatura media	15.3
106514	7	Sololá	702	San José Chacayá	5	Chacayá	7	Julio	2023-09-07T00:00:00	2024-11-06T19:00:00	4	Temperatura máxima	16.8
106515	7	Sololá	702	San José Chacayá	5	Chacayá	7	Julio	2023-09-07T00:00:00	2024-11-06T19:00:00	3	Temperatura mínima	15.3
106516	7	Sololá	702	San José Chacayá	5	Chacayá	7	Julio	2023-09-07T00:00:00	2024-11-06T19:00:00	5	Humedad	92
106517	7	Sololá	702	San José Chacayá	5	Chacayá	7	Julio	2023-09-07T00:00:00	2024-11-06T19:00:00	6	Velocidad del viento	0
106518	7	Sololá	702	San José Chacayá	5	Chacayá	7	Julio	2023-09-07T00:00:00	2024-11-06T19:00:00	7	Dirección del viento	0
106519	7	Sololá	702	San José Chacayá	5	Chacayá	7	Julio	2023-09-07T00:00:00	2024-11-06T19:00:00	1	Precipitación	0
106520	7	Sololá	702	San José Chacayá	5	Chacayá	7	Julio	2023-09-07T00:00:00	2024-11-06T19:00:00	8	Radiación solar	0
106521	7	Sololá	702	San José Chacayá	5	Chacayá	7	Julio	2023-09-07T00:00:00	2024-11-06T20:00:00	2	Temperatura media	14.1
106522	7	Sololá	702	San José Chacayá	5	Chacayá	7	Julio	2023-09-07T00:00:00	2024-11-06T20:00:00	4	Temperatura máxima	15.3
106523	7	Sololá	702	San José Chacayá	5	Chacayá	7	Julio	2023-09-07T00:00:00	2024-11-06T20:00:00	3	Temperatura mínima	14.1
106524	7	Sololá	702	San José Chacayá	5	Chacayá	7	Julio	2023-09-07T00:00:00	2024-11-06T20:00:00	5	Humedad	93
106525	7	Sololá	702	San José Chacayá	5	Chacayá	7	Julio	2023-09-07T00:00:00	2024-11-06T20:00:00	6	Velocidad del viento	0
106526	7	Sololá	702	San José Chacayá	5	Chacayá	7	Julio	2023-09-07T00:00:00	2024-11-06T20:00:00	7	Dirección del viento	0
106527	7	Sololá	702	San José Chacayá	5	Chacayá	7	Julio	2023-09-07T00:00:00	2024-11-06T20:00:00	1	Precipitación	0
106528	7	Sololá	702	San José Chacayá	5	Chacayá	7	Julio	2023-09-07T00:00:00	2024-11-06T20:00:00	8	Radiación solar	0
106529	7	Sololá	702	San José Chacayá	5	Chacayá	7	Julio	2023-09-07T00:00:00	2024-11-06T21:00:00	2	Temperatura media	13.5
106530	7	Sololá	702	San José Chacayá	5	Chacayá	7	Julio	2023-09-07T00:00:00	2024-11-06T21:00:00	4	Temperatura máxima	14.1
106531	7	Sololá	702	San José Chacayá	5	Chacayá	7	Julio	2023-09-07T00:00:00	2024-11-06T21:00:00	3	Temperatura mínima	13.5
106532	7	Sololá	702	San José Chacayá	5	Chacayá	7	Julio	2023-09-07T00:00:00	2024-11-06T21:00:00	5	Humedad	95
106533	7	Sololá	702	San José Chacayá	5	Chacayá	7	Julio	2023-09-07T00:00:00	2024-11-06T21:00:00	6	Velocidad del viento	0
106534	7	Sololá	702	San José Chacayá	5	Chacayá	7	Julio	2023-09-07T00:00:00	2024-11-06T21:00:00	7	Dirección del viento	0
106535	7	Sololá	702	San José Chacayá	5	Chacayá	7	Julio	2023-09-07T00:00:00	2024-11-06T21:00:00	1	Precipitación	0
106536	7	Sololá	702	San José Chacayá	5	Chacayá	7	Julio	2023-09-07T00:00:00	2024-11-06T21:00:00	8	Radiación solar	0
106537	7	Sololá	702	San José Chacayá	5	Chacayá	7	Julio	2023-09-07T00:00:00	2024-11-06T22:00:00	2	Temperatura media	13.2
106538	7	Sololá	702	San José Chacayá	5	Chacayá	7	Julio	2023-09-07T00:00:00	2024-11-06T22:00:00	4	Temperatura máxima	13.5
106539	7	Sololá	702	San José Chacayá	5	Chacayá	7	Julio	2023-09-07T00:00:00	2024-11-06T22:00:00	3	Temperatura mínima	13.2
106540	7	Sololá	702	San José Chacayá	5	Chacayá	7	Julio	2023-09-07T00:00:00	2024-11-06T22:00:00	5	Humedad	95
106541	7	Sololá	702	San José Chacayá	5	Chacayá	7	Julio	2023-09-07T00:00:00	2024-11-06T22:00:00	6	Velocidad del viento	0
106542	7	Sololá	702	San José Chacayá	5	Chacayá	7	Julio	2023-09-07T00:00:00	2024-11-06T22:00:00	7	Dirección del viento	0
106543	7	Sololá	702	San José Chacayá	5	Chacayá	7	Julio	2023-09-07T00:00:00	2024-11-06T22:00:00	1	Precipitación	0
106544	7	Sololá	702	San José Chacayá	5	Chacayá	7	Julio	2023-09-07T00:00:00	2024-11-06T22:00:00	8	Radiación solar	0
106545	7	Sololá	702	San José Chacayá	5	Chacayá	7	Julio	2023-09-07T00:00:00	2024-11-06T23:00:00	2	Temperatura media	13.1
106546	7	Sololá	702	San José Chacayá	5	Chacayá	7	Julio	2023-09-07T00:00:00	2024-11-06T23:00:00	4	Temperatura máxima	13.3
106547	7	Sololá	702	San José Chacayá	5	Chacayá	7	Julio	2023-09-07T00:00:00	2024-11-06T23:00:00	3	Temperatura mínima	13
106548	7	Sololá	702	San José Chacayá	5	Chacayá	7	Julio	2023-09-07T00:00:00	2024-11-06T23:00:00	5	Humedad	95
106549	7	Sololá	702	San José Chacayá	5	Chacayá	7	Julio	2023-09-07T00:00:00	2024-11-06T23:00:00	6	Velocidad del viento	0
106550	7	Sololá	702	San José Chacayá	5	Chacayá	7	Julio	2023-09-07T00:00:00	2024-11-06T23:00:00	7	Dirección del viento	0
106551	7	Sololá	702	San José Chacayá	5	Chacayá	7	Julio	2023-09-07T00:00:00	2024-11-06T23:00:00	1	Precipitación	0
106552	7	Sololá	702	San José Chacayá	5	Chacayá	7	Julio	2023-09-07T00:00:00	2024-11-06T23:00:00	8	Radiación solar	0
106553	7	Sololá	702	San José Chacayá	5	Chacayá	7	Julio	2023-10-07T00:00:00	2024-11-06T00:00:00	2	Temperatura media	12.7
106554	7	Sololá	702	San José Chacayá	5	Chacayá	7	Julio	2023-10-07T00:00:00	2024-11-06T00:00:00	4	Temperatura máxima	13.1
106555	7	Sololá	702	San José Chacayá	5	Chacayá	7	Julio	2023-10-07T00:00:00	2024-11-06T00:00:00	3	Temperatura mínima	12.7
106556	7	Sololá	702	San José Chacayá	5	Chacayá	7	Julio	2023-10-07T00:00:00	2024-11-06T00:00:00	5	Humedad	95
106557	7	Sololá	702	San José Chacayá	5	Chacayá	7	Julio	2023-10-07T00:00:00	2024-11-06T00:00:00	6	Velocidad del viento	1.6
106558	7	Sololá	702	San José Chacayá	5	Chacayá	7	Julio	2023-10-07T00:00:00	2024-11-06T00:00:00	7	Dirección del viento	1.61
106559	7	Sololá	702	San José Chacayá	5	Chacayá	7	Julio	2023-10-07T00:00:00	2024-11-06T00:00:00	1	Precipitación	0
106560	7	Sololá	702	San José Chacayá	5	Chacayá	7	Julio	2023-10-07T00:00:00	2024-11-06T00:00:00	8	Radiación solar	0
106561	7	Sololá	702	San José Chacayá	5	Chacayá	7	Julio	2023-10-07T00:00:00	2024-11-06T01:00:00	2	Temperatura media	12.3
106562	7	Sololá	702	San José Chacayá	5	Chacayá	7	Julio	2023-10-07T00:00:00	2024-11-06T01:00:00	4	Temperatura máxima	12.7
106563	7	Sololá	702	San José Chacayá	5	Chacayá	7	Julio	2023-10-07T00:00:00	2024-11-06T01:00:00	3	Temperatura mínima	12.3
106564	7	Sololá	702	San José Chacayá	5	Chacayá	7	Julio	2023-10-07T00:00:00	2024-11-06T01:00:00	5	Humedad	95
106565	7	Sololá	702	San José Chacayá	5	Chacayá	7	Julio	2023-10-07T00:00:00	2024-11-06T01:00:00	6	Velocidad del viento	0
106566	7	Sololá	702	San José Chacayá	5	Chacayá	7	Julio	2023-10-07T00:00:00	2024-11-06T01:00:00	7	Dirección del viento	0
106567	7	Sololá	702	San José Chacayá	5	Chacayá	7	Julio	2023-10-07T00:00:00	2024-11-06T01:00:00	1	Precipitación	0
106568	7	Sololá	702	San José Chacayá	5	Chacayá	7	Julio	2023-10-07T00:00:00	2024-11-06T01:00:00	8	Radiación solar	0
106569	7	Sololá	702	San José Chacayá	5	Chacayá	7	Julio	2023-10-07T00:00:00	2024-11-06T02:00:00	2	Temperatura media	12.2
106570	7	Sololá	702	San José Chacayá	5	Chacayá	7	Julio	2023-10-07T00:00:00	2024-11-06T02:00:00	4	Temperatura máxima	12.4
106571	7	Sololá	702	San José Chacayá	5	Chacayá	7	Julio	2023-10-07T00:00:00	2024-11-06T02:00:00	3	Temperatura mínima	12.2
106572	7	Sololá	702	San José Chacayá	5	Chacayá	7	Julio	2023-10-07T00:00:00	2024-11-06T02:00:00	5	Humedad	95
106573	7	Sololá	702	San José Chacayá	5	Chacayá	7	Julio	2023-10-07T00:00:00	2024-11-06T02:00:00	6	Velocidad del viento	0
106574	7	Sololá	702	San José Chacayá	5	Chacayá	7	Julio	2023-10-07T00:00:00	2024-11-06T02:00:00	7	Dirección del viento	0
106575	7	Sololá	702	San José Chacayá	5	Chacayá	7	Julio	2023-10-07T00:00:00	2024-11-06T02:00:00	1	Precipitación	0
106576	7	Sololá	702	San José Chacayá	5	Chacayá	7	Julio	2023-10-07T00:00:00	2024-11-06T02:00:00	8	Radiación solar	0
106577	7	Sololá	702	San José Chacayá	5	Chacayá	7	Julio	2023-10-07T00:00:00	2024-11-06T03:00:00	2	Temperatura media	11.4
106578	7	Sololá	702	San José Chacayá	5	Chacayá	7	Julio	2023-10-07T00:00:00	2024-11-06T03:00:00	4	Temperatura máxima	12.2
106579	7	Sololá	702	San José Chacayá	5	Chacayá	7	Julio	2023-10-07T00:00:00	2024-11-06T03:00:00	3	Temperatura mínima	11.4
106580	7	Sololá	702	San José Chacayá	5	Chacayá	7	Julio	2023-10-07T00:00:00	2024-11-06T03:00:00	5	Humedad	95
106581	7	Sololá	702	San José Chacayá	5	Chacayá	7	Julio	2023-10-07T00:00:00	2024-11-06T03:00:00	6	Velocidad del viento	0
106582	7	Sololá	702	San José Chacayá	5	Chacayá	7	Julio	2023-10-07T00:00:00	2024-11-06T03:00:00	7	Dirección del viento	0
106583	7	Sololá	702	San José Chacayá	5	Chacayá	7	Julio	2023-10-07T00:00:00	2024-11-06T03:00:00	1	Precipitación	0
106584	7	Sololá	702	San José Chacayá	5	Chacayá	7	Julio	2023-10-07T00:00:00	2024-11-06T03:00:00	8	Radiación solar	0
106585	7	Sololá	702	San José Chacayá	5	Chacayá	7	Julio	2023-10-07T00:00:00	2024-11-06T04:00:00	2	Temperatura media	11.1
106586	7	Sololá	702	San José Chacayá	5	Chacayá	7	Julio	2023-10-07T00:00:00	2024-11-06T04:00:00	4	Temperatura máxima	11.4
106587	7	Sololá	702	San José Chacayá	5	Chacayá	7	Julio	2023-10-07T00:00:00	2024-11-06T04:00:00	3	Temperatura mínima	10.9
106588	7	Sololá	702	San José Chacayá	5	Chacayá	7	Julio	2023-10-07T00:00:00	2024-11-06T04:00:00	5	Humedad	96
106589	7	Sololá	702	San José Chacayá	5	Chacayá	7	Julio	2023-10-07T00:00:00	2024-11-06T04:00:00	6	Velocidad del viento	0
106590	7	Sololá	702	San José Chacayá	5	Chacayá	7	Julio	2023-10-07T00:00:00	2024-11-06T04:00:00	7	Dirección del viento	0
106591	7	Sololá	702	San José Chacayá	5	Chacayá	7	Julio	2023-10-07T00:00:00	2024-11-06T04:00:00	1	Precipitación	0
106592	7	Sololá	702	San José Chacayá	5	Chacayá	7	Julio	2023-10-07T00:00:00	2024-11-06T04:00:00	8	Radiación solar	0
106593	7	Sololá	702	San José Chacayá	5	Chacayá	7	Julio	2023-10-07T00:00:00	2024-11-06T05:00:00	2	Temperatura media	11.5
106594	7	Sololá	702	San José Chacayá	5	Chacayá	7	Julio	2023-10-07T00:00:00	2024-11-06T05:00:00	4	Temperatura máxima	11.5
106595	7	Sololá	702	San José Chacayá	5	Chacayá	7	Julio	2023-10-07T00:00:00	2024-11-06T05:00:00	3	Temperatura mínima	11
106596	7	Sololá	702	San José Chacayá	5	Chacayá	7	Julio	2023-10-07T00:00:00	2024-11-06T05:00:00	5	Humedad	97
106597	7	Sololá	702	San José Chacayá	5	Chacayá	7	Julio	2023-10-07T00:00:00	2024-11-06T05:00:00	6	Velocidad del viento	0
106598	7	Sololá	702	San José Chacayá	5	Chacayá	7	Julio	2023-10-07T00:00:00	2024-11-06T05:00:00	7	Dirección del viento	0
106599	7	Sololá	702	San José Chacayá	5	Chacayá	7	Julio	2023-10-07T00:00:00	2024-11-06T05:00:00	1	Precipitación	0
106600	7	Sololá	702	San José Chacayá	5	Chacayá	7	Julio	2023-10-07T00:00:00	2024-11-06T05:00:00	8	Radiación solar	0
106601	7	Sololá	702	San José Chacayá	5	Chacayá	7	Julio	2023-10-07T00:00:00	2024-11-06T06:00:00	2	Temperatura media	12.2
106602	7	Sololá	702	San José Chacayá	5	Chacayá	7	Julio	2023-10-07T00:00:00	2024-11-06T06:00:00	4	Temperatura máxima	12.2
106603	7	Sololá	702	San José Chacayá	5	Chacayá	7	Julio	2023-10-07T00:00:00	2024-11-06T06:00:00	3	Temperatura mínima	11.4
106604	7	Sololá	702	San José Chacayá	5	Chacayá	7	Julio	2023-10-07T00:00:00	2024-11-06T06:00:00	5	Humedad	95
106605	7	Sololá	702	San José Chacayá	5	Chacayá	7	Julio	2023-10-07T00:00:00	2024-11-06T06:00:00	6	Velocidad del viento	0
106606	7	Sololá	702	San José Chacayá	5	Chacayá	7	Julio	2023-10-07T00:00:00	2024-11-06T06:00:00	7	Dirección del viento	0
106607	7	Sololá	702	San José Chacayá	5	Chacayá	7	Julio	2023-10-07T00:00:00	2024-11-06T06:00:00	1	Precipitación	0
106608	7	Sololá	702	San José Chacayá	5	Chacayá	7	Julio	2023-10-07T00:00:00	2024-11-06T06:00:00	8	Radiación solar	4
106609	7	Sololá	702	San José Chacayá	5	Chacayá	7	Julio	2023-10-07T00:00:00	2024-11-06T07:00:00	2	Temperatura media	12.6
106610	7	Sololá	702	San José Chacayá	5	Chacayá	7	Julio	2023-10-07T00:00:00	2024-11-06T07:00:00	4	Temperatura máxima	12.6
106611	7	Sololá	702	San José Chacayá	5	Chacayá	7	Julio	2023-10-07T00:00:00	2024-11-06T07:00:00	3	Temperatura mínima	11.9
106612	7	Sololá	702	San José Chacayá	5	Chacayá	7	Julio	2023-10-07T00:00:00	2024-11-06T07:00:00	5	Humedad	96
106613	7	Sololá	702	San José Chacayá	5	Chacayá	7	Julio	2023-10-07T00:00:00	2024-11-06T07:00:00	6	Velocidad del viento	0
106614	7	Sololá	702	San José Chacayá	5	Chacayá	7	Julio	2023-10-07T00:00:00	2024-11-06T07:00:00	7	Dirección del viento	0
106615	7	Sololá	702	San José Chacayá	5	Chacayá	7	Julio	2023-10-07T00:00:00	2024-11-06T07:00:00	1	Precipitación	0
106616	7	Sololá	702	San José Chacayá	5	Chacayá	7	Julio	2023-10-07T00:00:00	2024-11-06T07:00:00	8	Radiación solar	46
106617	7	Sololá	702	San José Chacayá	5	Chacayá	7	Julio	2023-10-07T00:00:00	2024-11-06T08:00:00	2	Temperatura media	17.8
106618	7	Sololá	702	San José Chacayá	5	Chacayá	7	Julio	2023-10-07T00:00:00	2024-11-06T08:00:00	4	Temperatura máxima	17.8
106619	7	Sololá	702	San José Chacayá	5	Chacayá	7	Julio	2023-10-07T00:00:00	2024-11-06T08:00:00	3	Temperatura mínima	12.6
106620	7	Sololá	702	San José Chacayá	5	Chacayá	7	Julio	2023-10-07T00:00:00	2024-11-06T08:00:00	5	Humedad	78
106621	7	Sololá	702	San José Chacayá	5	Chacayá	7	Julio	2023-10-07T00:00:00	2024-11-06T08:00:00	6	Velocidad del viento	1.6
106622	7	Sololá	702	San José Chacayá	5	Chacayá	7	Julio	2023-10-07T00:00:00	2024-11-06T08:00:00	7	Dirección del viento	1.61
106623	7	Sololá	702	San José Chacayá	5	Chacayá	7	Julio	2023-10-07T00:00:00	2024-11-06T08:00:00	1	Precipitación	0.2
106624	7	Sololá	702	San José Chacayá	5	Chacayá	7	Julio	2023-10-07T00:00:00	2024-11-06T08:00:00	8	Radiación solar	133
106625	7	Sololá	702	San José Chacayá	5	Chacayá	7	Julio	2023-10-07T00:00:00	2024-11-06T09:00:00	2	Temperatura media	19.2
106626	7	Sololá	702	San José Chacayá	5	Chacayá	7	Julio	2023-10-07T00:00:00	2024-11-06T09:00:00	4	Temperatura máxima	19.3
106627	7	Sololá	702	San José Chacayá	5	Chacayá	7	Julio	2023-10-07T00:00:00	2024-11-06T09:00:00	3	Temperatura mínima	17.8
106628	7	Sololá	702	San José Chacayá	5	Chacayá	7	Julio	2023-10-07T00:00:00	2024-11-06T09:00:00	5	Humedad	71
106629	7	Sololá	702	San José Chacayá	5	Chacayá	7	Julio	2023-10-07T00:00:00	2024-11-06T09:00:00	6	Velocidad del viento	1.6
106630	7	Sololá	702	San José Chacayá	5	Chacayá	7	Julio	2023-10-07T00:00:00	2024-11-06T09:00:00	7	Dirección del viento	1.61
106631	7	Sololá	702	San José Chacayá	5	Chacayá	7	Julio	2023-10-07T00:00:00	2024-11-06T09:00:00	1	Precipitación	0
106632	7	Sololá	702	San José Chacayá	5	Chacayá	7	Julio	2023-10-07T00:00:00	2024-11-06T09:00:00	8	Radiación solar	482
106633	7	Sololá	702	San José Chacayá	5	Chacayá	7	Julio	2023-10-07T00:00:00	2024-11-06T10:00:00	2	Temperatura media	19.8
106634	7	Sololá	702	San José Chacayá	5	Chacayá	7	Julio	2023-10-07T00:00:00	2024-11-06T10:00:00	4	Temperatura máxima	20.5
106635	7	Sololá	702	San José Chacayá	5	Chacayá	7	Julio	2023-10-07T00:00:00	2024-11-06T10:00:00	3	Temperatura mínima	18.6
106636	7	Sololá	702	San José Chacayá	5	Chacayá	7	Julio	2023-10-07T00:00:00	2024-11-06T10:00:00	5	Humedad	64
106637	7	Sololá	702	San José Chacayá	5	Chacayá	7	Julio	2023-10-07T00:00:00	2024-11-06T10:00:00	6	Velocidad del viento	0
106638	7	Sololá	702	San José Chacayá	5	Chacayá	7	Julio	2023-10-07T00:00:00	2024-11-06T10:00:00	7	Dirección del viento	0
106639	7	Sololá	702	San José Chacayá	5	Chacayá	7	Julio	2023-10-07T00:00:00	2024-11-06T10:00:00	1	Precipitación	0
106640	7	Sololá	702	San José Chacayá	5	Chacayá	7	Julio	2023-10-07T00:00:00	2024-11-06T10:00:00	8	Radiación solar	743
106641	7	Sololá	702	San José Chacayá	5	Chacayá	7	Julio	2023-10-07T00:00:00	2024-11-06T11:00:00	2	Temperatura media	19.9
106642	7	Sololá	702	San José Chacayá	5	Chacayá	7	Julio	2023-10-07T00:00:00	2024-11-06T11:00:00	4	Temperatura máxima	21.1
106643	7	Sololá	702	San José Chacayá	5	Chacayá	7	Julio	2023-10-07T00:00:00	2024-11-06T11:00:00	3	Temperatura mínima	19.8
106644	7	Sololá	702	San José Chacayá	5	Chacayá	7	Julio	2023-10-07T00:00:00	2024-11-06T11:00:00	5	Humedad	70
106645	7	Sololá	702	San José Chacayá	5	Chacayá	7	Julio	2023-10-07T00:00:00	2024-11-06T11:00:00	6	Velocidad del viento	4.8
106646	7	Sololá	702	San José Chacayá	5	Chacayá	7	Julio	2023-10-07T00:00:00	2024-11-06T11:00:00	7	Dirección del viento	4.83
106647	7	Sololá	702	San José Chacayá	5	Chacayá	7	Julio	2023-10-07T00:00:00	2024-11-06T11:00:00	1	Precipitación	0
106648	7	Sololá	702	San José Chacayá	5	Chacayá	7	Julio	2023-10-07T00:00:00	2024-11-06T11:00:00	8	Radiación solar	417
106649	7	Sololá	702	San José Chacayá	5	Chacayá	7	Julio	2023-10-07T00:00:00	2024-11-06T12:00:00	2	Temperatura media	22
106650	7	Sololá	702	San José Chacayá	5	Chacayá	7	Julio	2023-10-07T00:00:00	2024-11-06T12:00:00	4	Temperatura máxima	22
106651	7	Sololá	702	San José Chacayá	5	Chacayá	7	Julio	2023-10-07T00:00:00	2024-11-06T12:00:00	3	Temperatura mínima	19.7
106652	7	Sololá	702	San José Chacayá	5	Chacayá	7	Julio	2023-10-07T00:00:00	2024-11-06T12:00:00	5	Humedad	62
106653	7	Sololá	702	San José Chacayá	5	Chacayá	7	Julio	2023-10-07T00:00:00	2024-11-06T12:00:00	6	Velocidad del viento	6.4
106654	7	Sololá	702	San José Chacayá	5	Chacayá	7	Julio	2023-10-07T00:00:00	2024-11-06T12:00:00	7	Dirección del viento	6.44
106655	7	Sololá	702	San José Chacayá	5	Chacayá	7	Julio	2023-10-07T00:00:00	2024-11-06T12:00:00	1	Precipitación	0
106656	7	Sololá	702	San José Chacayá	5	Chacayá	7	Julio	2023-10-07T00:00:00	2024-11-06T12:00:00	8	Radiación solar	862
106657	7	Sololá	702	San José Chacayá	5	Chacayá	7	Julio	2023-10-07T00:00:00	2024-11-06T13:00:00	2	Temperatura media	21.9
106658	7	Sololá	702	San José Chacayá	5	Chacayá	7	Julio	2023-10-07T00:00:00	2024-11-06T13:00:00	4	Temperatura máxima	22.7
106659	7	Sololá	702	San José Chacayá	5	Chacayá	7	Julio	2023-10-07T00:00:00	2024-11-06T13:00:00	3	Temperatura mínima	21
106660	7	Sololá	702	San José Chacayá	5	Chacayá	7	Julio	2023-10-07T00:00:00	2024-11-06T13:00:00	5	Humedad	63
106661	7	Sololá	702	San José Chacayá	5	Chacayá	7	Julio	2023-10-07T00:00:00	2024-11-06T13:00:00	6	Velocidad del viento	4.8
106662	7	Sololá	702	San José Chacayá	5	Chacayá	7	Julio	2023-10-07T00:00:00	2024-11-06T13:00:00	7	Dirección del viento	4.83
106663	7	Sololá	702	San José Chacayá	5	Chacayá	7	Julio	2023-10-07T00:00:00	2024-11-06T13:00:00	1	Precipitación	0
106664	7	Sololá	702	San José Chacayá	5	Chacayá	7	Julio	2023-10-07T00:00:00	2024-11-06T13:00:00	8	Radiación solar	820
106665	7	Sololá	702	San José Chacayá	5	Chacayá	7	Julio	2023-10-07T00:00:00	2024-11-06T14:00:00	2	Temperatura media	21.9
106666	7	Sololá	702	San José Chacayá	5	Chacayá	7	Julio	2023-10-07T00:00:00	2024-11-06T14:00:00	4	Temperatura máxima	22.8
106667	7	Sololá	702	San José Chacayá	5	Chacayá	7	Julio	2023-10-07T00:00:00	2024-11-06T14:00:00	3	Temperatura mínima	21.1
106668	7	Sololá	702	San José Chacayá	5	Chacayá	7	Julio	2023-10-07T00:00:00	2024-11-06T14:00:00	5	Humedad	62
106669	7	Sololá	702	San José Chacayá	5	Chacayá	7	Julio	2023-10-07T00:00:00	2024-11-06T14:00:00	6	Velocidad del viento	6.4
106670	7	Sololá	702	San José Chacayá	5	Chacayá	7	Julio	2023-10-07T00:00:00	2024-11-06T14:00:00	7	Dirección del viento	6.44
106671	7	Sololá	702	San José Chacayá	5	Chacayá	7	Julio	2023-10-07T00:00:00	2024-11-06T14:00:00	1	Precipitación	0
106672	7	Sololá	702	San José Chacayá	5	Chacayá	7	Julio	2023-10-07T00:00:00	2024-11-06T14:00:00	8	Radiación solar	895
106673	7	Sololá	702	San José Chacayá	5	Chacayá	7	Julio	2023-10-07T00:00:00	2024-11-06T15:00:00	2	Temperatura media	22.9
106674	7	Sololá	702	San José Chacayá	5	Chacayá	7	Julio	2023-10-07T00:00:00	2024-11-06T15:00:00	4	Temperatura máxima	23.1
106675	7	Sololá	702	San José Chacayá	5	Chacayá	7	Julio	2023-10-07T00:00:00	2024-11-06T15:00:00	3	Temperatura mínima	22
106676	7	Sololá	702	San José Chacayá	5	Chacayá	7	Julio	2023-10-07T00:00:00	2024-11-06T15:00:00	5	Humedad	65
106677	7	Sololá	702	San José Chacayá	5	Chacayá	7	Julio	2023-10-07T00:00:00	2024-11-06T15:00:00	6	Velocidad del viento	6.4
106678	7	Sololá	702	San José Chacayá	5	Chacayá	7	Julio	2023-10-07T00:00:00	2024-11-06T15:00:00	7	Dirección del viento	6.44
106679	7	Sololá	702	San José Chacayá	5	Chacayá	7	Julio	2023-10-07T00:00:00	2024-11-06T15:00:00	1	Precipitación	0
106680	7	Sololá	702	San José Chacayá	5	Chacayá	7	Julio	2023-10-07T00:00:00	2024-11-06T15:00:00	8	Radiación solar	859
106681	7	Sololá	702	San José Chacayá	5	Chacayá	7	Julio	2023-10-07T00:00:00	2024-11-06T16:00:00	2	Temperatura media	20.8
106682	7	Sololá	702	San José Chacayá	5	Chacayá	7	Julio	2023-10-07T00:00:00	2024-11-06T16:00:00	4	Temperatura máxima	23.4
106683	7	Sololá	702	San José Chacayá	5	Chacayá	7	Julio	2023-10-07T00:00:00	2024-11-06T16:00:00	3	Temperatura mínima	20.8
106684	7	Sololá	702	San José Chacayá	5	Chacayá	7	Julio	2023-10-07T00:00:00	2024-11-06T16:00:00	5	Humedad	77
106685	7	Sololá	702	San José Chacayá	5	Chacayá	7	Julio	2023-10-07T00:00:00	2024-11-06T16:00:00	6	Velocidad del viento	4.8
106686	7	Sololá	702	San José Chacayá	5	Chacayá	7	Julio	2023-10-07T00:00:00	2024-11-06T16:00:00	7	Dirección del viento	4.83
106687	7	Sololá	702	San José Chacayá	5	Chacayá	7	Julio	2023-10-07T00:00:00	2024-11-06T16:00:00	1	Precipitación	0
106688	7	Sololá	702	San José Chacayá	5	Chacayá	7	Julio	2023-10-07T00:00:00	2024-11-06T16:00:00	8	Radiación solar	648
106689	7	Sololá	702	San José Chacayá	5	Chacayá	7	Julio	2023-10-07T00:00:00	2024-11-06T17:00:00	2	Temperatura media	18.4
106690	7	Sololá	702	San José Chacayá	5	Chacayá	7	Julio	2023-10-07T00:00:00	2024-11-06T17:00:00	4	Temperatura máxima	20.8
106691	7	Sololá	702	San José Chacayá	5	Chacayá	7	Julio	2023-10-07T00:00:00	2024-11-06T17:00:00	3	Temperatura mínima	18.1
106692	7	Sololá	702	San José Chacayá	5	Chacayá	7	Julio	2023-10-07T00:00:00	2024-11-06T17:00:00	5	Humedad	81
106693	7	Sololá	702	San José Chacayá	5	Chacayá	7	Julio	2023-10-07T00:00:00	2024-11-06T17:00:00	6	Velocidad del viento	1.6
106694	7	Sololá	702	San José Chacayá	5	Chacayá	7	Julio	2023-10-07T00:00:00	2024-11-06T17:00:00	7	Dirección del viento	1.61
106695	7	Sololá	702	San José Chacayá	5	Chacayá	7	Julio	2023-10-07T00:00:00	2024-11-06T17:00:00	1	Precipitación	0
106696	7	Sololá	702	San José Chacayá	5	Chacayá	7	Julio	2023-10-07T00:00:00	2024-11-06T17:00:00	8	Radiación solar	33
106697	7	Sololá	702	San José Chacayá	5	Chacayá	7	Julio	2023-10-07T00:00:00	2024-11-06T18:00:00	2	Temperatura media	17.6
106698	7	Sololá	702	San José Chacayá	5	Chacayá	7	Julio	2023-10-07T00:00:00	2024-11-06T18:00:00	4	Temperatura máxima	18.4
106699	7	Sololá	702	San José Chacayá	5	Chacayá	7	Julio	2023-10-07T00:00:00	2024-11-06T18:00:00	3	Temperatura mínima	17.6
106700	7	Sololá	702	San José Chacayá	5	Chacayá	7	Julio	2023-10-07T00:00:00	2024-11-06T18:00:00	5	Humedad	78
106701	7	Sololá	702	San José Chacayá	5	Chacayá	7	Julio	2023-10-07T00:00:00	2024-11-06T18:00:00	6	Velocidad del viento	0
106702	7	Sololá	702	San José Chacayá	5	Chacayá	7	Julio	2023-10-07T00:00:00	2024-11-06T18:00:00	7	Dirección del viento	0
106703	7	Sololá	702	San José Chacayá	5	Chacayá	7	Julio	2023-10-07T00:00:00	2024-11-06T18:00:00	1	Precipitación	0
106704	7	Sololá	702	San José Chacayá	5	Chacayá	7	Julio	2023-10-07T00:00:00	2024-11-06T18:00:00	8	Radiación solar	48
106705	7	Sololá	702	San José Chacayá	5	Chacayá	7	Julio	2023-10-07T00:00:00	2024-11-06T19:00:00	2	Temperatura media	16.9
106706	7	Sololá	702	San José Chacayá	5	Chacayá	7	Julio	2023-10-07T00:00:00	2024-11-06T19:00:00	4	Temperatura máxima	17.6
106707	7	Sololá	702	San José Chacayá	5	Chacayá	7	Julio	2023-10-07T00:00:00	2024-11-06T19:00:00	3	Temperatura mínima	16.9
106708	7	Sololá	702	San José Chacayá	5	Chacayá	7	Julio	2023-10-07T00:00:00	2024-11-06T19:00:00	5	Humedad	82
106709	7	Sololá	702	San José Chacayá	5	Chacayá	7	Julio	2023-10-07T00:00:00	2024-11-06T19:00:00	6	Velocidad del viento	0
106710	7	Sololá	702	San José Chacayá	5	Chacayá	7	Julio	2023-10-07T00:00:00	2024-11-06T19:00:00	7	Dirección del viento	0
106711	7	Sololá	702	San José Chacayá	5	Chacayá	7	Julio	2023-10-07T00:00:00	2024-11-06T19:00:00	1	Precipitación	0
106712	7	Sololá	702	San José Chacayá	5	Chacayá	7	Julio	2023-10-07T00:00:00	2024-11-06T19:00:00	8	Radiación solar	0
106713	7	Sololá	702	San José Chacayá	5	Chacayá	7	Julio	2023-10-07T00:00:00	2024-11-06T20:00:00	2	Temperatura media	14.6
106714	7	Sololá	702	San José Chacayá	5	Chacayá	7	Julio	2023-10-07T00:00:00	2024-11-06T20:00:00	4	Temperatura máxima	17.1
106715	7	Sololá	702	San José Chacayá	5	Chacayá	7	Julio	2023-10-07T00:00:00	2024-11-06T20:00:00	3	Temperatura mínima	14.6
106716	7	Sololá	702	San José Chacayá	5	Chacayá	7	Julio	2023-10-07T00:00:00	2024-11-06T20:00:00	5	Humedad	82
106717	7	Sololá	702	San José Chacayá	5	Chacayá	7	Julio	2023-10-07T00:00:00	2024-11-06T20:00:00	6	Velocidad del viento	3.2
106718	7	Sololá	702	San José Chacayá	5	Chacayá	7	Julio	2023-10-07T00:00:00	2024-11-06T20:00:00	7	Dirección del viento	3.22
106719	7	Sololá	702	San José Chacayá	5	Chacayá	7	Julio	2023-10-07T00:00:00	2024-11-06T20:00:00	1	Precipitación	0
106720	7	Sololá	702	San José Chacayá	5	Chacayá	7	Julio	2023-10-07T00:00:00	2024-11-06T20:00:00	8	Radiación solar	0
106721	7	Sololá	702	San José Chacayá	5	Chacayá	7	Julio	2023-10-07T00:00:00	2024-11-06T21:00:00	2	Temperatura media	14.2
106722	7	Sololá	702	San José Chacayá	5	Chacayá	7	Julio	2023-10-07T00:00:00	2024-11-06T21:00:00	4	Temperatura máxima	14.6
106723	7	Sololá	702	San José Chacayá	5	Chacayá	7	Julio	2023-10-07T00:00:00	2024-11-06T21:00:00	3	Temperatura mínima	13.8
106724	7	Sololá	702	San José Chacayá	5	Chacayá	7	Julio	2023-10-07T00:00:00	2024-11-06T21:00:00	5	Humedad	82
106725	7	Sololá	702	San José Chacayá	5	Chacayá	7	Julio	2023-10-07T00:00:00	2024-11-06T21:00:00	6	Velocidad del viento	1.6
106726	7	Sololá	702	San José Chacayá	5	Chacayá	7	Julio	2023-10-07T00:00:00	2024-11-06T21:00:00	7	Dirección del viento	1.61
106727	7	Sololá	702	San José Chacayá	5	Chacayá	7	Julio	2023-10-07T00:00:00	2024-11-06T21:00:00	1	Precipitación	0.6
106728	7	Sololá	702	San José Chacayá	5	Chacayá	7	Julio	2023-10-07T00:00:00	2024-11-06T21:00:00	8	Radiación solar	0
106729	7	Sololá	702	San José Chacayá	5	Chacayá	7	Julio	2023-10-07T00:00:00	2024-11-06T22:00:00	2	Temperatura media	14.6
106730	7	Sololá	702	San José Chacayá	5	Chacayá	7	Julio	2023-10-07T00:00:00	2024-11-06T22:00:00	4	Temperatura máxima	14.9
106731	7	Sololá	702	San José Chacayá	5	Chacayá	7	Julio	2023-10-07T00:00:00	2024-11-06T22:00:00	3	Temperatura mínima	14.2
106732	7	Sololá	702	San José Chacayá	5	Chacayá	7	Julio	2023-10-07T00:00:00	2024-11-06T22:00:00	5	Humedad	82
106733	7	Sololá	702	San José Chacayá	5	Chacayá	7	Julio	2023-10-07T00:00:00	2024-11-06T22:00:00	6	Velocidad del viento	1.6
106734	7	Sololá	702	San José Chacayá	5	Chacayá	7	Julio	2023-10-07T00:00:00	2024-11-06T22:00:00	7	Dirección del viento	1.61
106735	7	Sololá	702	San José Chacayá	5	Chacayá	7	Julio	2023-10-07T00:00:00	2024-11-06T22:00:00	1	Precipitación	0.4
106736	7	Sololá	702	San José Chacayá	5	Chacayá	7	Julio	2023-10-07T00:00:00	2024-11-06T22:00:00	8	Radiación solar	0
106737	7	Sololá	702	San José Chacayá	5	Chacayá	7	Julio	2023-10-07T00:00:00	2024-11-06T23:00:00	2	Temperatura media	14.1
106738	7	Sololá	702	San José Chacayá	5	Chacayá	7	Julio	2023-10-07T00:00:00	2024-11-06T23:00:00	4	Temperatura máxima	14.6
106739	7	Sololá	702	San José Chacayá	5	Chacayá	7	Julio	2023-10-07T00:00:00	2024-11-06T23:00:00	3	Temperatura mínima	14.1
106740	7	Sololá	702	San José Chacayá	5	Chacayá	7	Julio	2023-10-07T00:00:00	2024-11-06T23:00:00	5	Humedad	82
106741	7	Sololá	702	San José Chacayá	5	Chacayá	7	Julio	2023-10-07T00:00:00	2024-11-06T23:00:00	6	Velocidad del viento	1.6
106742	7	Sololá	702	San José Chacayá	5	Chacayá	7	Julio	2023-10-07T00:00:00	2024-11-06T23:00:00	7	Dirección del viento	1.61
106743	7	Sololá	702	San José Chacayá	5	Chacayá	7	Julio	2023-10-07T00:00:00	2024-11-06T23:00:00	1	Precipitación	0.2
106744	7	Sololá	702	San José Chacayá	5	Chacayá	7	Julio	2023-10-07T00:00:00	2024-11-06T23:00:00	8	Radiación solar	0
106745	7	Sololá	702	San José Chacayá	5	Chacayá	7	Julio	2023-11-07T00:00:00	2024-11-06T00:00:00	2	Temperatura media	13.7
106746	7	Sololá	702	San José Chacayá	5	Chacayá	7	Julio	2023-11-07T00:00:00	2024-11-06T00:00:00	4	Temperatura máxima	14.1
106747	7	Sololá	702	San José Chacayá	5	Chacayá	7	Julio	2023-11-07T00:00:00	2024-11-06T00:00:00	3	Temperatura mínima	13.6
106748	7	Sololá	702	San José Chacayá	5	Chacayá	7	Julio	2023-11-07T00:00:00	2024-11-06T00:00:00	5	Humedad	79
106749	7	Sololá	702	San José Chacayá	5	Chacayá	7	Julio	2023-11-07T00:00:00	2024-11-06T00:00:00	6	Velocidad del viento	1.6
106750	7	Sololá	702	San José Chacayá	5	Chacayá	7	Julio	2023-11-07T00:00:00	2024-11-06T00:00:00	7	Dirección del viento	1.61
106751	7	Sololá	702	San José Chacayá	5	Chacayá	7	Julio	2023-11-07T00:00:00	2024-11-06T00:00:00	1	Precipitación	0
106752	7	Sololá	702	San José Chacayá	5	Chacayá	7	Julio	2023-11-07T00:00:00	2024-11-06T00:00:00	8	Radiación solar	0
106753	7	Sololá	702	San José Chacayá	5	Chacayá	7	Julio	2023-11-07T00:00:00	2024-11-06T01:00:00	2	Temperatura media	13.3
106754	7	Sololá	702	San José Chacayá	5	Chacayá	7	Julio	2023-11-07T00:00:00	2024-11-06T01:00:00	4	Temperatura máxima	13.7
106755	7	Sololá	702	San José Chacayá	5	Chacayá	7	Julio	2023-11-07T00:00:00	2024-11-06T01:00:00	3	Temperatura mínima	13.3
106756	7	Sololá	702	San José Chacayá	5	Chacayá	7	Julio	2023-11-07T00:00:00	2024-11-06T01:00:00	5	Humedad	77
106757	7	Sololá	702	San José Chacayá	5	Chacayá	7	Julio	2023-11-07T00:00:00	2024-11-06T01:00:00	6	Velocidad del viento	1.6
106758	7	Sololá	702	San José Chacayá	5	Chacayá	7	Julio	2023-11-07T00:00:00	2024-11-06T01:00:00	7	Dirección del viento	1.61
106759	7	Sololá	702	San José Chacayá	5	Chacayá	7	Julio	2023-11-07T00:00:00	2024-11-06T01:00:00	1	Precipitación	0
106760	7	Sololá	702	San José Chacayá	5	Chacayá	7	Julio	2023-11-07T00:00:00	2024-11-06T01:00:00	8	Radiación solar	0
106761	7	Sololá	702	San José Chacayá	5	Chacayá	7	Julio	2023-11-07T00:00:00	2024-11-06T02:00:00	2	Temperatura media	14.1
106762	7	Sololá	702	San José Chacayá	5	Chacayá	7	Julio	2023-11-07T00:00:00	2024-11-06T02:00:00	4	Temperatura máxima	14.1
106763	7	Sololá	702	San José Chacayá	5	Chacayá	7	Julio	2023-11-07T00:00:00	2024-11-06T02:00:00	3	Temperatura mínima	13.3
106764	7	Sololá	702	San José Chacayá	5	Chacayá	7	Julio	2023-11-07T00:00:00	2024-11-06T02:00:00	5	Humedad	83
106765	7	Sololá	702	San José Chacayá	5	Chacayá	7	Julio	2023-11-07T00:00:00	2024-11-06T02:00:00	6	Velocidad del viento	1.6
106766	7	Sololá	702	San José Chacayá	5	Chacayá	7	Julio	2023-11-07T00:00:00	2024-11-06T02:00:00	7	Dirección del viento	1.61
106767	7	Sololá	702	San José Chacayá	5	Chacayá	7	Julio	2023-11-07T00:00:00	2024-11-06T02:00:00	1	Precipitación	0
106768	7	Sololá	702	San José Chacayá	5	Chacayá	7	Julio	2023-11-07T00:00:00	2024-11-06T02:00:00	8	Radiación solar	0
106769	7	Sololá	702	San José Chacayá	5	Chacayá	7	Julio	2023-11-07T00:00:00	2024-11-06T03:00:00	2	Temperatura media	12.9
106770	7	Sololá	702	San José Chacayá	5	Chacayá	7	Julio	2023-11-07T00:00:00	2024-11-06T03:00:00	4	Temperatura máxima	14.3
106771	7	Sololá	702	San José Chacayá	5	Chacayá	7	Julio	2023-11-07T00:00:00	2024-11-06T03:00:00	3	Temperatura mínima	12.9
106772	7	Sololá	702	San José Chacayá	5	Chacayá	7	Julio	2023-11-07T00:00:00	2024-11-06T03:00:00	5	Humedad	82
106773	7	Sololá	702	San José Chacayá	5	Chacayá	7	Julio	2023-11-07T00:00:00	2024-11-06T03:00:00	6	Velocidad del viento	1.6
106774	7	Sololá	702	San José Chacayá	5	Chacayá	7	Julio	2023-11-07T00:00:00	2024-11-06T03:00:00	7	Dirección del viento	1.61
106775	7	Sololá	702	San José Chacayá	5	Chacayá	7	Julio	2023-11-07T00:00:00	2024-11-06T03:00:00	1	Precipitación	0
106776	7	Sololá	702	San José Chacayá	5	Chacayá	7	Julio	2023-11-07T00:00:00	2024-11-06T03:00:00	8	Radiación solar	0
106777	7	Sololá	702	San José Chacayá	5	Chacayá	7	Julio	2023-11-07T00:00:00	2024-11-06T04:00:00	2	Temperatura media	12.3
106778	7	Sololá	702	San José Chacayá	5	Chacayá	7	Julio	2023-11-07T00:00:00	2024-11-06T04:00:00	4	Temperatura máxima	12.9
106779	7	Sololá	702	San José Chacayá	5	Chacayá	7	Julio	2023-11-07T00:00:00	2024-11-06T04:00:00	3	Temperatura mínima	12.3
106780	7	Sololá	702	San José Chacayá	5	Chacayá	7	Julio	2023-11-07T00:00:00	2024-11-06T04:00:00	5	Humedad	80
106781	7	Sololá	702	San José Chacayá	5	Chacayá	7	Julio	2023-11-07T00:00:00	2024-11-06T04:00:00	6	Velocidad del viento	1.6
106782	7	Sololá	702	San José Chacayá	5	Chacayá	7	Julio	2023-11-07T00:00:00	2024-11-06T04:00:00	7	Dirección del viento	1.61
106783	7	Sololá	702	San José Chacayá	5	Chacayá	7	Julio	2023-11-07T00:00:00	2024-11-06T04:00:00	1	Precipitación	0
106784	7	Sololá	702	San José Chacayá	5	Chacayá	7	Julio	2023-11-07T00:00:00	2024-11-06T04:00:00	8	Radiación solar	0
106785	7	Sololá	702	San José Chacayá	5	Chacayá	7	Julio	2023-11-07T00:00:00	2024-11-06T05:00:00	2	Temperatura media	12.4
106786	7	Sololá	702	San José Chacayá	5	Chacayá	7	Julio	2023-11-07T00:00:00	2024-11-06T05:00:00	4	Temperatura máxima	12.4
106787	7	Sololá	702	San José Chacayá	5	Chacayá	7	Julio	2023-11-07T00:00:00	2024-11-06T05:00:00	3	Temperatura mínima	12.1
106788	7	Sololá	702	San José Chacayá	5	Chacayá	7	Julio	2023-11-07T00:00:00	2024-11-06T05:00:00	5	Humedad	83
106789	7	Sololá	702	San José Chacayá	5	Chacayá	7	Julio	2023-11-07T00:00:00	2024-11-06T05:00:00	6	Velocidad del viento	3.2
106790	7	Sololá	702	San José Chacayá	5	Chacayá	7	Julio	2023-11-07T00:00:00	2024-11-06T05:00:00	7	Dirección del viento	3.22
106791	7	Sololá	702	San José Chacayá	5	Chacayá	7	Julio	2023-11-07T00:00:00	2024-11-06T05:00:00	1	Precipitación	0
106792	7	Sololá	702	San José Chacayá	5	Chacayá	7	Julio	2023-11-07T00:00:00	2024-11-06T05:00:00	8	Radiación solar	0
106793	7	Sololá	702	San José Chacayá	5	Chacayá	7	Julio	2023-11-07T00:00:00	2024-11-06T06:00:00	2	Temperatura media	12.7
106794	7	Sololá	702	San José Chacayá	5	Chacayá	7	Julio	2023-11-07T00:00:00	2024-11-06T06:00:00	4	Temperatura máxima	12.7
106795	7	Sololá	702	San José Chacayá	5	Chacayá	7	Julio	2023-11-07T00:00:00	2024-11-06T06:00:00	3	Temperatura mínima	12
106796	7	Sololá	702	San José Chacayá	5	Chacayá	7	Julio	2023-11-07T00:00:00	2024-11-06T06:00:00	5	Humedad	82
106797	7	Sololá	702	San José Chacayá	5	Chacayá	7	Julio	2023-11-07T00:00:00	2024-11-06T06:00:00	6	Velocidad del viento	1.6
106798	7	Sololá	702	San José Chacayá	5	Chacayá	7	Julio	2023-11-07T00:00:00	2024-11-06T06:00:00	7	Dirección del viento	1.61
106799	7	Sololá	702	San José Chacayá	5	Chacayá	7	Julio	2023-11-07T00:00:00	2024-11-06T06:00:00	1	Precipitación	0
106800	7	Sololá	702	San José Chacayá	5	Chacayá	7	Julio	2023-11-07T00:00:00	2024-11-06T06:00:00	8	Radiación solar	2
106801	7	Sololá	702	San José Chacayá	5	Chacayá	7	Julio	2023-11-07T00:00:00	2024-11-06T07:00:00	2	Temperatura media	15.3
106802	7	Sololá	702	San José Chacayá	5	Chacayá	7	Julio	2023-11-07T00:00:00	2024-11-06T07:00:00	4	Temperatura máxima	15.3
106803	7	Sololá	702	San José Chacayá	5	Chacayá	7	Julio	2023-11-07T00:00:00	2024-11-06T07:00:00	3	Temperatura mínima	12.5
106804	7	Sololá	702	San José Chacayá	5	Chacayá	7	Julio	2023-11-07T00:00:00	2024-11-06T07:00:00	5	Humedad	82
106805	7	Sololá	702	San José Chacayá	5	Chacayá	7	Julio	2023-11-07T00:00:00	2024-11-06T07:00:00	6	Velocidad del viento	1.6
106806	7	Sololá	702	San José Chacayá	5	Chacayá	7	Julio	2023-11-07T00:00:00	2024-11-06T07:00:00	7	Dirección del viento	1.61
106807	7	Sololá	702	San José Chacayá	5	Chacayá	7	Julio	2023-11-07T00:00:00	2024-11-06T07:00:00	1	Precipitación	0
106808	7	Sololá	702	San José Chacayá	5	Chacayá	7	Julio	2023-11-07T00:00:00	2024-11-06T07:00:00	8	Radiación solar	61
106809	7	Sololá	702	San José Chacayá	5	Chacayá	7	Julio	2023-11-07T00:00:00	2024-11-06T08:00:00	2	Temperatura media	16.9
106810	7	Sololá	702	San José Chacayá	5	Chacayá	7	Julio	2023-11-07T00:00:00	2024-11-06T08:00:00	4	Temperatura máxima	16.9
106811	7	Sololá	702	San José Chacayá	5	Chacayá	7	Julio	2023-11-07T00:00:00	2024-11-06T08:00:00	3	Temperatura mínima	15.3
106812	7	Sololá	702	San José Chacayá	5	Chacayá	7	Julio	2023-11-07T00:00:00	2024-11-06T08:00:00	5	Humedad	76
106813	7	Sololá	702	San José Chacayá	5	Chacayá	7	Julio	2023-11-07T00:00:00	2024-11-06T08:00:00	6	Velocidad del viento	1.6
106814	7	Sololá	702	San José Chacayá	5	Chacayá	7	Julio	2023-11-07T00:00:00	2024-11-06T08:00:00	7	Dirección del viento	1.61
106815	7	Sololá	702	San José Chacayá	5	Chacayá	7	Julio	2023-11-07T00:00:00	2024-11-06T08:00:00	1	Precipitación	0
106816	7	Sololá	702	San José Chacayá	5	Chacayá	7	Julio	2023-11-07T00:00:00	2024-11-06T08:00:00	8	Radiación solar	137
106817	7	Sololá	702	San José Chacayá	5	Chacayá	7	Julio	2023-11-07T00:00:00	2024-11-06T09:00:00	2	Temperatura media	19.6
106818	7	Sololá	702	San José Chacayá	5	Chacayá	7	Julio	2023-11-07T00:00:00	2024-11-06T09:00:00	4	Temperatura máxima	19.6
106819	7	Sololá	702	San José Chacayá	5	Chacayá	7	Julio	2023-11-07T00:00:00	2024-11-06T09:00:00	3	Temperatura mínima	16.9
106820	7	Sololá	702	San José Chacayá	5	Chacayá	7	Julio	2023-11-07T00:00:00	2024-11-06T09:00:00	5	Humedad	69
106821	7	Sololá	702	San José Chacayá	5	Chacayá	7	Julio	2023-11-07T00:00:00	2024-11-06T09:00:00	6	Velocidad del viento	3.2
106822	7	Sololá	702	San José Chacayá	5	Chacayá	7	Julio	2023-11-07T00:00:00	2024-11-06T09:00:00	7	Dirección del viento	3.22
106823	7	Sololá	702	San José Chacayá	5	Chacayá	7	Julio	2023-11-07T00:00:00	2024-11-06T09:00:00	1	Precipitación	0
106824	7	Sololá	702	San José Chacayá	5	Chacayá	7	Julio	2023-11-07T00:00:00	2024-11-06T09:00:00	8	Radiación solar	458
106825	7	Sololá	702	San José Chacayá	5	Chacayá	7	Julio	2023-11-07T00:00:00	2024-11-06T10:00:00	2	Temperatura media	20.9
106826	7	Sololá	702	San José Chacayá	5	Chacayá	7	Julio	2023-11-07T00:00:00	2024-11-06T10:00:00	4	Temperatura máxima	21.2
106827	7	Sololá	702	San José Chacayá	5	Chacayá	7	Julio	2023-11-07T00:00:00	2024-11-06T10:00:00	3	Temperatura mínima	19.6
106828	7	Sololá	702	San José Chacayá	5	Chacayá	7	Julio	2023-11-07T00:00:00	2024-11-06T10:00:00	5	Humedad	67
106829	7	Sololá	702	San José Chacayá	5	Chacayá	7	Julio	2023-11-07T00:00:00	2024-11-06T10:00:00	6	Velocidad del viento	4.8
106830	7	Sololá	702	San José Chacayá	5	Chacayá	7	Julio	2023-11-07T00:00:00	2024-11-06T10:00:00	7	Dirección del viento	4.83
106831	7	Sololá	702	San José Chacayá	5	Chacayá	7	Julio	2023-11-07T00:00:00	2024-11-06T10:00:00	1	Precipitación	0
106832	7	Sololá	702	San José Chacayá	5	Chacayá	7	Julio	2023-11-07T00:00:00	2024-11-06T10:00:00	8	Radiación solar	722
106833	7	Sololá	702	San José Chacayá	5	Chacayá	7	Julio	2023-11-07T00:00:00	2024-11-06T11:00:00	2	Temperatura media	20.7
106834	7	Sololá	702	San José Chacayá	5	Chacayá	7	Julio	2023-11-07T00:00:00	2024-11-06T11:00:00	4	Temperatura máxima	22.1
106835	7	Sololá	702	San José Chacayá	5	Chacayá	7	Julio	2023-11-07T00:00:00	2024-11-06T11:00:00	3	Temperatura mínima	20.7
106836	7	Sololá	702	San José Chacayá	5	Chacayá	7	Julio	2023-11-07T00:00:00	2024-11-06T11:00:00	5	Humedad	65
106837	7	Sololá	702	San José Chacayá	5	Chacayá	7	Julio	2023-11-07T00:00:00	2024-11-06T11:00:00	6	Velocidad del viento	4.8
106838	7	Sololá	702	San José Chacayá	5	Chacayá	7	Julio	2023-11-07T00:00:00	2024-11-06T11:00:00	7	Dirección del viento	4.83
106839	7	Sololá	702	San José Chacayá	5	Chacayá	7	Julio	2023-11-07T00:00:00	2024-11-06T11:00:00	1	Precipitación	0
106840	7	Sololá	702	San José Chacayá	5	Chacayá	7	Julio	2023-11-07T00:00:00	2024-11-06T11:00:00	8	Radiación solar	651
106841	7	Sololá	702	San José Chacayá	5	Chacayá	7	Julio	2023-11-07T00:00:00	2024-11-06T12:00:00	2	Temperatura media	22.1
106842	7	Sololá	702	San José Chacayá	5	Chacayá	7	Julio	2023-11-07T00:00:00	2024-11-06T12:00:00	4	Temperatura máxima	22.6
106843	7	Sololá	702	San José Chacayá	5	Chacayá	7	Julio	2023-11-07T00:00:00	2024-11-06T12:00:00	3	Temperatura mínima	20.6
106844	7	Sololá	702	San José Chacayá	5	Chacayá	7	Julio	2023-11-07T00:00:00	2024-11-06T12:00:00	5	Humedad	62
106845	7	Sololá	702	San José Chacayá	5	Chacayá	7	Julio	2023-11-07T00:00:00	2024-11-06T12:00:00	6	Velocidad del viento	4.8
106846	7	Sololá	702	San José Chacayá	5	Chacayá	7	Julio	2023-11-07T00:00:00	2024-11-06T12:00:00	7	Dirección del viento	4.83
106847	7	Sololá	702	San José Chacayá	5	Chacayá	7	Julio	2023-11-07T00:00:00	2024-11-06T12:00:00	1	Precipitación	0
106848	7	Sololá	702	San José Chacayá	5	Chacayá	7	Julio	2023-11-07T00:00:00	2024-11-06T12:00:00	8	Radiación solar	637
106849	7	Sololá	702	San José Chacayá	5	Chacayá	7	Julio	2023-11-07T00:00:00	2024-11-06T13:00:00	2	Temperatura media	22.7
106850	7	Sololá	702	San José Chacayá	5	Chacayá	7	Julio	2023-11-07T00:00:00	2024-11-06T13:00:00	4	Temperatura máxima	22.7
106851	7	Sololá	702	San José Chacayá	5	Chacayá	7	Julio	2023-11-07T00:00:00	2024-11-06T13:00:00	3	Temperatura mínima	22.1
106852	7	Sololá	702	San José Chacayá	5	Chacayá	7	Julio	2023-11-07T00:00:00	2024-11-06T13:00:00	5	Humedad	60
106853	7	Sololá	702	San José Chacayá	5	Chacayá	7	Julio	2023-11-07T00:00:00	2024-11-06T13:00:00	6	Velocidad del viento	4.8
106854	7	Sololá	702	San José Chacayá	5	Chacayá	7	Julio	2023-11-07T00:00:00	2024-11-06T13:00:00	7	Dirección del viento	4.83
106855	7	Sololá	702	San José Chacayá	5	Chacayá	7	Julio	2023-11-07T00:00:00	2024-11-06T13:00:00	1	Precipitación	0
106856	7	Sololá	702	San José Chacayá	5	Chacayá	7	Julio	2023-11-07T00:00:00	2024-11-06T13:00:00	8	Radiación solar	625
106857	7	Sololá	702	San José Chacayá	5	Chacayá	7	Julio	2023-11-07T00:00:00	2024-11-06T14:00:00	2	Temperatura media	23.4
106858	7	Sololá	702	San José Chacayá	5	Chacayá	7	Julio	2023-11-07T00:00:00	2024-11-06T14:00:00	4	Temperatura máxima	23.5
106859	7	Sololá	702	San José Chacayá	5	Chacayá	7	Julio	2023-11-07T00:00:00	2024-11-06T14:00:00	3	Temperatura mínima	22.5
106860	7	Sololá	702	San José Chacayá	5	Chacayá	7	Julio	2023-11-07T00:00:00	2024-11-06T14:00:00	5	Humedad	57
106861	7	Sololá	702	San José Chacayá	5	Chacayá	7	Julio	2023-11-07T00:00:00	2024-11-06T14:00:00	6	Velocidad del viento	4.8
106862	7	Sololá	702	San José Chacayá	5	Chacayá	7	Julio	2023-11-07T00:00:00	2024-11-06T14:00:00	7	Dirección del viento	4.83
106863	7	Sololá	702	San José Chacayá	5	Chacayá	7	Julio	2023-11-07T00:00:00	2024-11-06T14:00:00	1	Precipitación	0
106864	7	Sololá	702	San José Chacayá	5	Chacayá	7	Julio	2023-11-07T00:00:00	2024-11-06T14:00:00	8	Radiación solar	739
106865	7	Sololá	702	San José Chacayá	5	Chacayá	7	Julio	2023-11-07T00:00:00	2024-11-06T15:00:00	2	Temperatura media	23.3
106866	7	Sololá	702	San José Chacayá	5	Chacayá	7	Julio	2023-11-07T00:00:00	2024-11-06T15:00:00	4	Temperatura máxima	24.1
106867	7	Sololá	702	San José Chacayá	5	Chacayá	7	Julio	2023-11-07T00:00:00	2024-11-06T15:00:00	3	Temperatura mínima	22.8
106868	7	Sololá	702	San José Chacayá	5	Chacayá	7	Julio	2023-11-07T00:00:00	2024-11-06T15:00:00	5	Humedad	57
106869	7	Sololá	702	San José Chacayá	5	Chacayá	7	Julio	2023-11-07T00:00:00	2024-11-06T15:00:00	6	Velocidad del viento	4.8
106870	7	Sololá	702	San José Chacayá	5	Chacayá	7	Julio	2023-11-07T00:00:00	2024-11-06T15:00:00	7	Dirección del viento	4.83
106871	7	Sololá	702	San José Chacayá	5	Chacayá	7	Julio	2023-11-07T00:00:00	2024-11-06T15:00:00	1	Precipitación	0
106872	7	Sololá	702	San José Chacayá	5	Chacayá	7	Julio	2023-11-07T00:00:00	2024-11-06T15:00:00	8	Radiación solar	634
106873	7	Sololá	702	San José Chacayá	5	Chacayá	7	Julio	2023-11-07T00:00:00	2024-11-06T16:00:00	2	Temperatura media	22.8
106874	7	Sololá	702	San José Chacayá	5	Chacayá	7	Julio	2023-11-07T00:00:00	2024-11-06T16:00:00	4	Temperatura máxima	23.7
106875	7	Sololá	702	San José Chacayá	5	Chacayá	7	Julio	2023-11-07T00:00:00	2024-11-06T16:00:00	3	Temperatura mínima	22.4
106876	7	Sololá	702	San José Chacayá	5	Chacayá	7	Julio	2023-11-07T00:00:00	2024-11-06T16:00:00	5	Humedad	60
106877	7	Sololá	702	San José Chacayá	5	Chacayá	7	Julio	2023-11-07T00:00:00	2024-11-06T16:00:00	6	Velocidad del viento	4.8
106878	7	Sololá	702	San José Chacayá	5	Chacayá	7	Julio	2023-11-07T00:00:00	2024-11-06T16:00:00	7	Dirección del viento	4.83
106879	7	Sololá	702	San José Chacayá	5	Chacayá	7	Julio	2023-11-07T00:00:00	2024-11-06T16:00:00	1	Precipitación	0
106880	7	Sololá	702	San José Chacayá	5	Chacayá	7	Julio	2023-11-07T00:00:00	2024-11-06T16:00:00	8	Radiación solar	528
106881	7	Sololá	702	San José Chacayá	5	Chacayá	7	Julio	2023-11-07T00:00:00	2024-11-06T17:00:00	2	Temperatura media	20.2
106882	7	Sololá	702	San José Chacayá	5	Chacayá	7	Julio	2023-11-07T00:00:00	2024-11-06T17:00:00	4	Temperatura máxima	22.8
106883	7	Sololá	702	San José Chacayá	5	Chacayá	7	Julio	2023-11-07T00:00:00	2024-11-06T17:00:00	3	Temperatura mínima	20.2
106884	7	Sololá	702	San José Chacayá	5	Chacayá	7	Julio	2023-11-07T00:00:00	2024-11-06T17:00:00	5	Humedad	69
106885	7	Sololá	702	San José Chacayá	5	Chacayá	7	Julio	2023-11-07T00:00:00	2024-11-06T17:00:00	6	Velocidad del viento	3.2
106886	7	Sololá	702	San José Chacayá	5	Chacayá	7	Julio	2023-11-07T00:00:00	2024-11-06T17:00:00	7	Dirección del viento	3.22
106887	7	Sololá	702	San José Chacayá	5	Chacayá	7	Julio	2023-11-07T00:00:00	2024-11-06T17:00:00	1	Precipitación	0
106888	7	Sololá	702	San José Chacayá	5	Chacayá	7	Julio	2023-11-07T00:00:00	2024-11-06T17:00:00	8	Radiación solar	189
106889	7	Sololá	702	San José Chacayá	5	Chacayá	7	Julio	2023-11-07T00:00:00	2024-11-06T18:00:00	2	Temperatura media	18.8
106890	7	Sololá	702	San José Chacayá	5	Chacayá	7	Julio	2023-11-07T00:00:00	2024-11-06T18:00:00	4	Temperatura máxima	20.3
106891	7	Sololá	702	San José Chacayá	5	Chacayá	7	Julio	2023-11-07T00:00:00	2024-11-06T18:00:00	3	Temperatura mínima	18.8
106892	7	Sololá	702	San José Chacayá	5	Chacayá	7	Julio	2023-11-07T00:00:00	2024-11-06T18:00:00	5	Humedad	72
106893	7	Sololá	702	San José Chacayá	5	Chacayá	7	Julio	2023-11-07T00:00:00	2024-11-06T18:00:00	6	Velocidad del viento	3.2
106894	7	Sololá	702	San José Chacayá	5	Chacayá	7	Julio	2023-11-07T00:00:00	2024-11-06T18:00:00	7	Dirección del viento	3.22
106895	7	Sololá	702	San José Chacayá	5	Chacayá	7	Julio	2023-11-07T00:00:00	2024-11-06T18:00:00	1	Precipitación	0
106896	7	Sololá	702	San José Chacayá	5	Chacayá	7	Julio	2023-11-07T00:00:00	2024-11-06T18:00:00	8	Radiación solar	54
106897	7	Sololá	702	San José Chacayá	5	Chacayá	7	Julio	2023-11-07T00:00:00	2024-11-06T19:00:00	2	Temperatura media	16.8
106898	7	Sololá	702	San José Chacayá	5	Chacayá	7	Julio	2023-11-07T00:00:00	2024-11-06T19:00:00	4	Temperatura máxima	18.8
106899	7	Sololá	702	San José Chacayá	5	Chacayá	7	Julio	2023-11-07T00:00:00	2024-11-06T19:00:00	3	Temperatura mínima	16.8
106900	7	Sololá	702	San José Chacayá	5	Chacayá	7	Julio	2023-11-07T00:00:00	2024-11-06T19:00:00	5	Humedad	80
106901	7	Sololá	702	San José Chacayá	5	Chacayá	7	Julio	2023-11-07T00:00:00	2024-11-06T19:00:00	6	Velocidad del viento	0
106902	7	Sololá	702	San José Chacayá	5	Chacayá	7	Julio	2023-11-07T00:00:00	2024-11-06T19:00:00	7	Dirección del viento	0
106903	7	Sololá	702	San José Chacayá	5	Chacayá	7	Julio	2023-11-07T00:00:00	2024-11-06T19:00:00	1	Precipitación	0
106904	7	Sololá	702	San José Chacayá	5	Chacayá	7	Julio	2023-11-07T00:00:00	2024-11-06T19:00:00	8	Radiación solar	0
106905	7	Sololá	702	San José Chacayá	5	Chacayá	7	Julio	2023-11-07T00:00:00	2024-11-06T20:00:00	2	Temperatura media	16.9
106906	7	Sololá	702	San José Chacayá	5	Chacayá	7	Julio	2023-11-07T00:00:00	2024-11-06T20:00:00	4	Temperatura máxima	16.9
106907	7	Sololá	702	San José Chacayá	5	Chacayá	7	Julio	2023-11-07T00:00:00	2024-11-06T20:00:00	3	Temperatura mínima	16.6
106908	7	Sololá	702	San José Chacayá	5	Chacayá	7	Julio	2023-11-07T00:00:00	2024-11-06T20:00:00	5	Humedad	80
106909	7	Sololá	702	San José Chacayá	5	Chacayá	7	Julio	2023-11-07T00:00:00	2024-11-06T20:00:00	6	Velocidad del viento	1.6
106910	7	Sololá	702	San José Chacayá	5	Chacayá	7	Julio	2023-11-07T00:00:00	2024-11-06T20:00:00	7	Dirección del viento	1.61
106911	7	Sololá	702	San José Chacayá	5	Chacayá	7	Julio	2023-11-07T00:00:00	2024-11-06T20:00:00	1	Precipitación	0
106912	7	Sololá	702	San José Chacayá	5	Chacayá	7	Julio	2023-11-07T00:00:00	2024-11-06T20:00:00	8	Radiación solar	0
106913	7	Sololá	702	San José Chacayá	5	Chacayá	7	Julio	2023-11-07T00:00:00	2024-11-06T21:00:00	2	Temperatura media	16.7
106914	7	Sololá	702	San José Chacayá	5	Chacayá	7	Julio	2023-11-07T00:00:00	2024-11-06T21:00:00	4	Temperatura máxima	16.9
106915	7	Sololá	702	San José Chacayá	5	Chacayá	7	Julio	2023-11-07T00:00:00	2024-11-06T21:00:00	3	Temperatura mínima	16.6
106916	7	Sololá	702	San José Chacayá	5	Chacayá	7	Julio	2023-11-07T00:00:00	2024-11-06T21:00:00	5	Humedad	77
106917	7	Sololá	702	San José Chacayá	5	Chacayá	7	Julio	2023-11-07T00:00:00	2024-11-06T21:00:00	6	Velocidad del viento	1.6
106918	7	Sololá	702	San José Chacayá	5	Chacayá	7	Julio	2023-11-07T00:00:00	2024-11-06T21:00:00	7	Dirección del viento	1.61
106919	7	Sololá	702	San José Chacayá	5	Chacayá	7	Julio	2023-11-07T00:00:00	2024-11-06T21:00:00	1	Precipitación	0
106920	7	Sololá	702	San José Chacayá	5	Chacayá	7	Julio	2023-11-07T00:00:00	2024-11-06T21:00:00	8	Radiación solar	0
106921	7	Sololá	702	San José Chacayá	5	Chacayá	7	Julio	2023-11-07T00:00:00	2024-11-06T22:00:00	2	Temperatura media	16.6
106922	7	Sololá	702	San José Chacayá	5	Chacayá	7	Julio	2023-11-07T00:00:00	2024-11-06T22:00:00	4	Temperatura máxima	16.8
106923	7	Sololá	702	San José Chacayá	5	Chacayá	7	Julio	2023-11-07T00:00:00	2024-11-06T22:00:00	3	Temperatura mínima	16.6
106924	7	Sololá	702	San José Chacayá	5	Chacayá	7	Julio	2023-11-07T00:00:00	2024-11-06T22:00:00	5	Humedad	79
106925	7	Sololá	702	San José Chacayá	5	Chacayá	7	Julio	2023-11-07T00:00:00	2024-11-06T22:00:00	6	Velocidad del viento	4.8
106926	7	Sololá	702	San José Chacayá	5	Chacayá	7	Julio	2023-11-07T00:00:00	2024-11-06T22:00:00	7	Dirección del viento	4.83
106927	7	Sololá	702	San José Chacayá	5	Chacayá	7	Julio	2023-11-07T00:00:00	2024-11-06T22:00:00	1	Precipitación	0
106928	7	Sololá	702	San José Chacayá	5	Chacayá	7	Julio	2023-11-07T00:00:00	2024-11-06T22:00:00	8	Radiación solar	0
106929	7	Sololá	702	San José Chacayá	5	Chacayá	7	Julio	2023-11-07T00:00:00	2024-11-06T23:00:00	2	Temperatura media	16.4
106930	7	Sololá	702	San José Chacayá	5	Chacayá	7	Julio	2023-11-07T00:00:00	2024-11-06T23:00:00	4	Temperatura máxima	16.6
106931	7	Sololá	702	San José Chacayá	5	Chacayá	7	Julio	2023-11-07T00:00:00	2024-11-06T23:00:00	3	Temperatura mínima	16.3
106932	7	Sololá	702	San José Chacayá	5	Chacayá	7	Julio	2023-11-07T00:00:00	2024-11-06T23:00:00	5	Humedad	79
106933	7	Sololá	702	San José Chacayá	5	Chacayá	7	Julio	2023-11-07T00:00:00	2024-11-06T23:00:00	6	Velocidad del viento	4.8
106934	7	Sololá	702	San José Chacayá	5	Chacayá	7	Julio	2023-11-07T00:00:00	2024-11-06T23:00:00	7	Dirección del viento	4.83
106935	7	Sololá	702	San José Chacayá	5	Chacayá	7	Julio	2023-11-07T00:00:00	2024-11-06T23:00:00	1	Precipitación	0
106936	7	Sololá	702	San José Chacayá	5	Chacayá	7	Julio	2023-11-07T00:00:00	2024-11-06T23:00:00	8	Radiación solar	0
106937	7	Sololá	702	San José Chacayá	5	Chacayá	7	Julio	2023-12-07T00:00:00	2024-11-06T00:00:00	2	Temperatura media	15.9
106938	7	Sololá	702	San José Chacayá	5	Chacayá	7	Julio	2023-12-07T00:00:00	2024-11-06T00:00:00	4	Temperatura máxima	16.4
106939	7	Sololá	702	San José Chacayá	5	Chacayá	7	Julio	2023-12-07T00:00:00	2024-11-06T00:00:00	3	Temperatura mínima	15.9
106940	7	Sololá	702	San José Chacayá	5	Chacayá	7	Julio	2023-12-07T00:00:00	2024-11-06T00:00:00	5	Humedad	79
106941	7	Sololá	702	San José Chacayá	5	Chacayá	7	Julio	2023-12-07T00:00:00	2024-11-06T00:00:00	6	Velocidad del viento	1.6
106942	7	Sololá	702	San José Chacayá	5	Chacayá	7	Julio	2023-12-07T00:00:00	2024-11-06T00:00:00	7	Dirección del viento	1.61
106943	7	Sololá	702	San José Chacayá	5	Chacayá	7	Julio	2023-12-07T00:00:00	2024-11-06T00:00:00	1	Precipitación	0
106944	7	Sololá	702	San José Chacayá	5	Chacayá	7	Julio	2023-12-07T00:00:00	2024-11-06T00:00:00	8	Radiación solar	0
106945	7	Sololá	702	San José Chacayá	5	Chacayá	7	Julio	2023-12-07T00:00:00	2024-11-06T01:00:00	2	Temperatura media	14.3
106946	7	Sololá	702	San José Chacayá	5	Chacayá	7	Julio	2023-12-07T00:00:00	2024-11-06T01:00:00	4	Temperatura máxima	15.9
106947	7	Sololá	702	San José Chacayá	5	Chacayá	7	Julio	2023-12-07T00:00:00	2024-11-06T01:00:00	3	Temperatura mínima	14
106948	7	Sololá	702	San José Chacayá	5	Chacayá	7	Julio	2023-12-07T00:00:00	2024-11-06T01:00:00	5	Humedad	81
106949	7	Sololá	702	San José Chacayá	5	Chacayá	7	Julio	2023-12-07T00:00:00	2024-11-06T01:00:00	6	Velocidad del viento	1.6
106950	7	Sololá	702	San José Chacayá	5	Chacayá	7	Julio	2023-12-07T00:00:00	2024-11-06T01:00:00	7	Dirección del viento	1.61
106951	7	Sololá	702	San José Chacayá	5	Chacayá	7	Julio	2023-12-07T00:00:00	2024-11-06T01:00:00	1	Precipitación	0
106952	7	Sololá	702	San José Chacayá	5	Chacayá	7	Julio	2023-12-07T00:00:00	2024-11-06T01:00:00	8	Radiación solar	0
106953	7	Sololá	702	San José Chacayá	5	Chacayá	7	Julio	2023-12-07T00:00:00	2024-11-06T02:00:00	2	Temperatura media	14.7
106954	7	Sololá	702	San José Chacayá	5	Chacayá	7	Julio	2023-12-07T00:00:00	2024-11-06T02:00:00	4	Temperatura máxima	15.6
106955	7	Sololá	702	San José Chacayá	5	Chacayá	7	Julio	2023-12-07T00:00:00	2024-11-06T02:00:00	3	Temperatura mínima	14.3
106956	7	Sololá	702	San José Chacayá	5	Chacayá	7	Julio	2023-12-07T00:00:00	2024-11-06T02:00:00	5	Humedad	80
106957	7	Sololá	702	San José Chacayá	5	Chacayá	7	Julio	2023-12-07T00:00:00	2024-11-06T02:00:00	6	Velocidad del viento	1.6
106958	7	Sololá	702	San José Chacayá	5	Chacayá	7	Julio	2023-12-07T00:00:00	2024-11-06T02:00:00	7	Dirección del viento	1.61
106959	7	Sololá	702	San José Chacayá	5	Chacayá	7	Julio	2023-12-07T00:00:00	2024-11-06T02:00:00	1	Precipitación	0
106960	7	Sololá	702	San José Chacayá	5	Chacayá	7	Julio	2023-12-07T00:00:00	2024-11-06T02:00:00	8	Radiación solar	0
106961	7	Sololá	702	San José Chacayá	5	Chacayá	7	Julio	2023-12-07T00:00:00	2024-11-06T03:00:00	2	Temperatura media	14.8
106962	7	Sololá	702	San José Chacayá	5	Chacayá	7	Julio	2023-12-07T00:00:00	2024-11-06T03:00:00	4	Temperatura máxima	15.1
106963	7	Sololá	702	San José Chacayá	5	Chacayá	7	Julio	2023-12-07T00:00:00	2024-11-06T03:00:00	3	Temperatura mínima	14.3
106964	7	Sololá	702	San José Chacayá	5	Chacayá	7	Julio	2023-12-07T00:00:00	2024-11-06T03:00:00	5	Humedad	81
106965	7	Sololá	702	San José Chacayá	5	Chacayá	7	Julio	2023-12-07T00:00:00	2024-11-06T03:00:00	6	Velocidad del viento	1.6
106966	7	Sololá	702	San José Chacayá	5	Chacayá	7	Julio	2023-12-07T00:00:00	2024-11-06T03:00:00	7	Dirección del viento	1.61
106967	7	Sololá	702	San José Chacayá	5	Chacayá	7	Julio	2023-12-07T00:00:00	2024-11-06T03:00:00	1	Precipitación	0
106968	7	Sololá	702	San José Chacayá	5	Chacayá	7	Julio	2023-12-07T00:00:00	2024-11-06T03:00:00	8	Radiación solar	0
106969	7	Sololá	702	San José Chacayá	5	Chacayá	7	Julio	2023-12-07T00:00:00	2024-11-06T04:00:00	2	Temperatura media	14.9
106970	7	Sololá	702	San José Chacayá	5	Chacayá	7	Julio	2023-12-07T00:00:00	2024-11-06T04:00:00	4	Temperatura máxima	15.4
106971	7	Sololá	702	San José Chacayá	5	Chacayá	7	Julio	2023-12-07T00:00:00	2024-11-06T04:00:00	3	Temperatura mínima	14.8
106972	7	Sololá	702	San José Chacayá	5	Chacayá	7	Julio	2023-12-07T00:00:00	2024-11-06T04:00:00	5	Humedad	82
106973	7	Sololá	702	San José Chacayá	5	Chacayá	7	Julio	2023-12-07T00:00:00	2024-11-06T04:00:00	6	Velocidad del viento	3.2
106974	7	Sololá	702	San José Chacayá	5	Chacayá	7	Julio	2023-12-07T00:00:00	2024-11-06T04:00:00	7	Dirección del viento	3.22
106975	7	Sololá	702	San José Chacayá	5	Chacayá	7	Julio	2023-12-07T00:00:00	2024-11-06T04:00:00	1	Precipitación	0
106976	7	Sololá	702	San José Chacayá	5	Chacayá	7	Julio	2023-12-07T00:00:00	2024-11-06T04:00:00	8	Radiación solar	0
106977	7	Sololá	702	San José Chacayá	5	Chacayá	7	Julio	2023-12-07T00:00:00	2024-11-06T05:00:00	2	Temperatura media	15.4
106978	7	Sololá	702	San José Chacayá	5	Chacayá	7	Julio	2023-12-07T00:00:00	2024-11-06T05:00:00	4	Temperatura máxima	15.4
106979	7	Sololá	702	San José Chacayá	5	Chacayá	7	Julio	2023-12-07T00:00:00	2024-11-06T05:00:00	3	Temperatura mínima	14.7
106980	7	Sololá	702	San José Chacayá	5	Chacayá	7	Julio	2023-12-07T00:00:00	2024-11-06T05:00:00	5	Humedad	81
106981	7	Sololá	702	San José Chacayá	5	Chacayá	7	Julio	2023-12-07T00:00:00	2024-11-06T05:00:00	6	Velocidad del viento	3.2
106982	7	Sololá	702	San José Chacayá	5	Chacayá	7	Julio	2023-12-07T00:00:00	2024-11-06T05:00:00	7	Dirección del viento	3.22
106983	7	Sololá	702	San José Chacayá	5	Chacayá	7	Julio	2023-12-07T00:00:00	2024-11-06T05:00:00	1	Precipitación	0
106984	7	Sololá	702	San José Chacayá	5	Chacayá	7	Julio	2023-12-07T00:00:00	2024-11-06T05:00:00	8	Radiación solar	0
106985	7	Sololá	702	San José Chacayá	5	Chacayá	7	Julio	2023-12-07T00:00:00	2024-11-06T06:00:00	2	Temperatura media	15.5
106986	7	Sololá	702	San José Chacayá	5	Chacayá	7	Julio	2023-12-07T00:00:00	2024-11-06T06:00:00	4	Temperatura máxima	15.5
106987	7	Sololá	702	San José Chacayá	5	Chacayá	7	Julio	2023-12-07T00:00:00	2024-11-06T06:00:00	3	Temperatura mínima	14.7
106988	7	Sololá	702	San José Chacayá	5	Chacayá	7	Julio	2023-12-07T00:00:00	2024-11-06T06:00:00	5	Humedad	81
106989	7	Sololá	702	San José Chacayá	5	Chacayá	7	Julio	2023-12-07T00:00:00	2024-11-06T06:00:00	6	Velocidad del viento	3.2
106990	7	Sololá	702	San José Chacayá	5	Chacayá	7	Julio	2023-12-07T00:00:00	2024-11-06T06:00:00	7	Dirección del viento	3.22
106991	7	Sololá	702	San José Chacayá	5	Chacayá	7	Julio	2023-12-07T00:00:00	2024-11-06T06:00:00	1	Precipitación	0
106992	7	Sololá	702	San José Chacayá	5	Chacayá	7	Julio	2023-12-07T00:00:00	2024-11-06T06:00:00	8	Radiación solar	3
106993	7	Sololá	702	San José Chacayá	5	Chacayá	7	Julio	2023-12-07T00:00:00	2024-11-06T07:00:00	2	Temperatura media	15.6
106994	7	Sololá	702	San José Chacayá	5	Chacayá	7	Julio	2023-12-07T00:00:00	2024-11-06T07:00:00	4	Temperatura máxima	15.6
106995	7	Sololá	702	San José Chacayá	5	Chacayá	7	Julio	2023-12-07T00:00:00	2024-11-06T07:00:00	3	Temperatura mínima	15.3
106996	7	Sololá	702	San José Chacayá	5	Chacayá	7	Julio	2023-12-07T00:00:00	2024-11-06T07:00:00	5	Humedad	78
106997	7	Sololá	702	San José Chacayá	5	Chacayá	7	Julio	2023-12-07T00:00:00	2024-11-06T07:00:00	6	Velocidad del viento	4.8
106998	7	Sololá	702	San José Chacayá	5	Chacayá	7	Julio	2023-12-07T00:00:00	2024-11-06T07:00:00	7	Dirección del viento	4.83
106999	7	Sololá	702	San José Chacayá	5	Chacayá	7	Julio	2023-12-07T00:00:00	2024-11-06T07:00:00	1	Precipitación	0
107000	7	Sololá	702	San José Chacayá	5	Chacayá	7	Julio	2023-12-07T00:00:00	2024-11-06T07:00:00	8	Radiación solar	62
107001	7	Sololá	702	San José Chacayá	5	Chacayá	7	Julio	2023-12-07T00:00:00	2024-11-06T08:00:00	2	Temperatura media	16.8
107002	7	Sololá	702	San José Chacayá	5	Chacayá	7	Julio	2023-12-07T00:00:00	2024-11-06T08:00:00	4	Temperatura máxima	16.9
107003	7	Sololá	702	San José Chacayá	5	Chacayá	7	Julio	2023-12-07T00:00:00	2024-11-06T08:00:00	3	Temperatura mínima	15.6
107004	7	Sololá	702	San José Chacayá	5	Chacayá	7	Julio	2023-12-07T00:00:00	2024-11-06T08:00:00	5	Humedad	75
107005	7	Sololá	702	San José Chacayá	5	Chacayá	7	Julio	2023-12-07T00:00:00	2024-11-06T08:00:00	6	Velocidad del viento	6.4
107006	7	Sololá	702	San José Chacayá	5	Chacayá	7	Julio	2023-12-07T00:00:00	2024-11-06T08:00:00	7	Dirección del viento	6.44
107007	7	Sololá	702	San José Chacayá	5	Chacayá	7	Julio	2023-12-07T00:00:00	2024-11-06T08:00:00	1	Precipitación	0
107008	7	Sololá	702	San José Chacayá	5	Chacayá	7	Julio	2023-12-07T00:00:00	2024-11-06T08:00:00	8	Radiación solar	132
107009	7	Sololá	702	San José Chacayá	5	Chacayá	7	Julio	2023-12-07T00:00:00	2024-11-06T09:00:00	2	Temperatura media	19
107010	7	Sololá	702	San José Chacayá	5	Chacayá	7	Julio	2023-12-07T00:00:00	2024-11-06T09:00:00	4	Temperatura máxima	19
107011	7	Sololá	702	San José Chacayá	5	Chacayá	7	Julio	2023-12-07T00:00:00	2024-11-06T09:00:00	3	Temperatura mínima	16.8
107012	7	Sololá	702	San José Chacayá	5	Chacayá	7	Julio	2023-12-07T00:00:00	2024-11-06T09:00:00	5	Humedad	70
107013	7	Sololá	702	San José Chacayá	5	Chacayá	7	Julio	2023-12-07T00:00:00	2024-11-06T09:00:00	6	Velocidad del viento	6.4
107014	7	Sololá	702	San José Chacayá	5	Chacayá	7	Julio	2023-12-07T00:00:00	2024-11-06T09:00:00	7	Dirección del viento	6.44
107015	7	Sololá	702	San José Chacayá	5	Chacayá	7	Julio	2023-12-07T00:00:00	2024-11-06T09:00:00	1	Precipitación	0
107016	7	Sololá	702	San José Chacayá	5	Chacayá	7	Julio	2023-12-07T00:00:00	2024-11-06T09:00:00	8	Radiación solar	479
107017	7	Sololá	702	San José Chacayá	5	Chacayá	7	Julio	2023-12-07T00:00:00	2024-11-06T10:00:00	2	Temperatura media	20.3
107018	7	Sololá	702	San José Chacayá	5	Chacayá	7	Julio	2023-12-07T00:00:00	2024-11-06T10:00:00	4	Temperatura máxima	20.9
107019	7	Sololá	702	San José Chacayá	5	Chacayá	7	Julio	2023-12-07T00:00:00	2024-11-06T10:00:00	3	Temperatura mínima	18.9
107020	7	Sololá	702	San José Chacayá	5	Chacayá	7	Julio	2023-12-07T00:00:00	2024-11-06T10:00:00	5	Humedad	65
107021	7	Sololá	702	San José Chacayá	5	Chacayá	7	Julio	2023-12-07T00:00:00	2024-11-06T10:00:00	6	Velocidad del viento	4.8
107022	7	Sololá	702	San José Chacayá	5	Chacayá	7	Julio	2023-12-07T00:00:00	2024-11-06T10:00:00	7	Dirección del viento	4.83
107023	7	Sololá	702	San José Chacayá	5	Chacayá	7	Julio	2023-12-07T00:00:00	2024-11-06T10:00:00	1	Precipitación	0
107024	7	Sololá	702	San José Chacayá	5	Chacayá	7	Julio	2023-12-07T00:00:00	2024-11-06T10:00:00	8	Radiación solar	704
107025	7	Sololá	702	San José Chacayá	5	Chacayá	7	Julio	2023-12-07T00:00:00	2024-11-06T11:00:00	2	Temperatura media	21.7
107026	7	Sololá	702	San José Chacayá	5	Chacayá	7	Julio	2023-12-07T00:00:00	2024-11-06T11:00:00	4	Temperatura máxima	22.1
107027	7	Sololá	702	San José Chacayá	5	Chacayá	7	Julio	2023-12-07T00:00:00	2024-11-06T11:00:00	3	Temperatura mínima	20.3
107028	7	Sololá	702	San José Chacayá	5	Chacayá	7	Julio	2023-12-07T00:00:00	2024-11-06T11:00:00	5	Humedad	63
107029	7	Sololá	702	San José Chacayá	5	Chacayá	7	Julio	2023-12-07T00:00:00	2024-11-06T11:00:00	6	Velocidad del viento	4.8
107030	7	Sololá	702	San José Chacayá	5	Chacayá	7	Julio	2023-12-07T00:00:00	2024-11-06T11:00:00	7	Dirección del viento	4.83
107031	7	Sololá	702	San José Chacayá	5	Chacayá	7	Julio	2023-12-07T00:00:00	2024-11-06T11:00:00	1	Precipitación	0
107032	7	Sololá	702	San José Chacayá	5	Chacayá	7	Julio	2023-12-07T00:00:00	2024-11-06T11:00:00	8	Radiación solar	789
107033	7	Sololá	702	San José Chacayá	5	Chacayá	7	Julio	2023-12-07T00:00:00	2024-11-06T12:00:00	2	Temperatura media	20.5
107034	7	Sololá	702	San José Chacayá	5	Chacayá	7	Julio	2023-12-07T00:00:00	2024-11-06T12:00:00	4	Temperatura máxima	23
107035	7	Sololá	702	San José Chacayá	5	Chacayá	7	Julio	2023-12-07T00:00:00	2024-11-06T12:00:00	3	Temperatura mínima	20.4
107036	7	Sololá	702	San José Chacayá	5	Chacayá	7	Julio	2023-12-07T00:00:00	2024-11-06T12:00:00	5	Humedad	65
107037	7	Sololá	702	San José Chacayá	5	Chacayá	7	Julio	2023-12-07T00:00:00	2024-11-06T12:00:00	6	Velocidad del viento	6.4
107038	7	Sololá	702	San José Chacayá	5	Chacayá	7	Julio	2023-12-07T00:00:00	2024-11-06T12:00:00	7	Dirección del viento	6.44
107039	7	Sololá	702	San José Chacayá	5	Chacayá	7	Julio	2023-12-07T00:00:00	2024-11-06T12:00:00	1	Precipitación	0
107040	7	Sololá	702	San José Chacayá	5	Chacayá	7	Julio	2023-12-07T00:00:00	2024-11-06T12:00:00	8	Radiación solar	613
107041	7	Sololá	702	San José Chacayá	5	Chacayá	7	Julio	2023-12-07T00:00:00	2024-11-06T13:00:00	2	Temperatura media	23.4
107042	7	Sololá	702	San José Chacayá	5	Chacayá	7	Julio	2023-12-07T00:00:00	2024-11-06T13:00:00	4	Temperatura máxima	24
107043	7	Sololá	702	San José Chacayá	5	Chacayá	7	Julio	2023-12-07T00:00:00	2024-11-06T13:00:00	3	Temperatura mínima	20.5
107044	7	Sololá	702	San José Chacayá	5	Chacayá	7	Julio	2023-12-07T00:00:00	2024-11-06T13:00:00	5	Humedad	50
107045	7	Sololá	702	San José Chacayá	5	Chacayá	7	Julio	2023-12-07T00:00:00	2024-11-06T13:00:00	6	Velocidad del viento	4.8
107046	7	Sololá	702	San José Chacayá	5	Chacayá	7	Julio	2023-12-07T00:00:00	2024-11-06T13:00:00	7	Dirección del viento	4.83
107047	7	Sololá	702	San José Chacayá	5	Chacayá	7	Julio	2023-12-07T00:00:00	2024-11-06T13:00:00	1	Precipitación	0
107048	7	Sololá	702	San José Chacayá	5	Chacayá	7	Julio	2023-12-07T00:00:00	2024-11-06T13:00:00	8	Radiación solar	856
107049	7	Sololá	702	San José Chacayá	5	Chacayá	7	Julio	2023-12-07T00:00:00	2024-11-06T14:00:00	2	Temperatura media	23.1
107050	7	Sololá	702	San José Chacayá	5	Chacayá	7	Julio	2023-12-07T00:00:00	2024-11-06T14:00:00	4	Temperatura máxima	23.4
107051	7	Sololá	702	San José Chacayá	5	Chacayá	7	Julio	2023-12-07T00:00:00	2024-11-06T14:00:00	3	Temperatura mínima	21.8
107052	7	Sololá	702	San José Chacayá	5	Chacayá	7	Julio	2023-12-07T00:00:00	2024-11-06T14:00:00	5	Humedad	54
107053	7	Sololá	702	San José Chacayá	5	Chacayá	7	Julio	2023-12-07T00:00:00	2024-11-06T14:00:00	6	Velocidad del viento	4.8
107054	7	Sololá	702	San José Chacayá	5	Chacayá	7	Julio	2023-12-07T00:00:00	2024-11-06T14:00:00	7	Dirección del viento	4.83
107055	7	Sololá	702	San José Chacayá	5	Chacayá	7	Julio	2023-12-07T00:00:00	2024-11-06T14:00:00	1	Precipitación	0
107056	7	Sololá	702	San José Chacayá	5	Chacayá	7	Julio	2023-12-07T00:00:00	2024-11-06T14:00:00	8	Radiación solar	510
107057	7	Sololá	702	San José Chacayá	5	Chacayá	7	Julio	2023-12-07T00:00:00	2024-11-06T15:00:00	2	Temperatura media	23.2
107058	7	Sololá	702	San José Chacayá	5	Chacayá	7	Julio	2023-12-07T00:00:00	2024-11-06T15:00:00	4	Temperatura máxima	23.8
107059	7	Sololá	702	San José Chacayá	5	Chacayá	7	Julio	2023-12-07T00:00:00	2024-11-06T15:00:00	3	Temperatura mínima	22.7
107060	7	Sololá	702	San José Chacayá	5	Chacayá	7	Julio	2023-12-07T00:00:00	2024-11-06T15:00:00	5	Humedad	54
107061	7	Sololá	702	San José Chacayá	5	Chacayá	7	Julio	2023-12-07T00:00:00	2024-11-06T15:00:00	6	Velocidad del viento	3.2
107062	7	Sololá	702	San José Chacayá	5	Chacayá	7	Julio	2023-12-07T00:00:00	2024-11-06T15:00:00	7	Dirección del viento	3.22
107063	7	Sololá	702	San José Chacayá	5	Chacayá	7	Julio	2023-12-07T00:00:00	2024-11-06T15:00:00	1	Precipitación	0
107064	7	Sololá	702	San José Chacayá	5	Chacayá	7	Julio	2023-12-07T00:00:00	2024-11-06T15:00:00	8	Radiación solar	548
107065	7	Sololá	702	San José Chacayá	5	Chacayá	7	Julio	2023-12-07T00:00:00	2024-11-06T16:00:00	2	Temperatura media	23.2
107066	7	Sololá	702	San José Chacayá	5	Chacayá	7	Julio	2023-12-07T00:00:00	2024-11-06T16:00:00	4	Temperatura máxima	23.5
107067	7	Sololá	702	San José Chacayá	5	Chacayá	7	Julio	2023-12-07T00:00:00	2024-11-06T16:00:00	3	Temperatura mínima	22.4
107068	7	Sololá	702	San José Chacayá	5	Chacayá	7	Julio	2023-12-07T00:00:00	2024-11-06T16:00:00	5	Humedad	54
107069	7	Sololá	702	San José Chacayá	5	Chacayá	7	Julio	2023-12-07T00:00:00	2024-11-06T16:00:00	6	Velocidad del viento	3.2
107070	7	Sololá	702	San José Chacayá	5	Chacayá	7	Julio	2023-12-07T00:00:00	2024-11-06T16:00:00	7	Dirección del viento	3.22
107071	7	Sololá	702	San José Chacayá	5	Chacayá	7	Julio	2023-12-07T00:00:00	2024-11-06T16:00:00	1	Precipitación	0
107072	7	Sololá	702	San José Chacayá	5	Chacayá	7	Julio	2023-12-07T00:00:00	2024-11-06T16:00:00	8	Radiación solar	469
107073	7	Sololá	702	San José Chacayá	5	Chacayá	7	Julio	2023-12-07T00:00:00	2024-11-06T17:00:00	2	Temperatura media	20.8
107074	7	Sololá	702	San José Chacayá	5	Chacayá	7	Julio	2023-12-07T00:00:00	2024-11-06T17:00:00	4	Temperatura máxima	23.3
107075	7	Sololá	702	San José Chacayá	5	Chacayá	7	Julio	2023-12-07T00:00:00	2024-11-06T17:00:00	3	Temperatura mínima	20.8
107076	7	Sololá	702	San José Chacayá	5	Chacayá	7	Julio	2023-12-07T00:00:00	2024-11-06T17:00:00	5	Humedad	65
107077	7	Sololá	702	San José Chacayá	5	Chacayá	7	Julio	2023-12-07T00:00:00	2024-11-06T17:00:00	6	Velocidad del viento	3.2
107078	7	Sololá	702	San José Chacayá	5	Chacayá	7	Julio	2023-12-07T00:00:00	2024-11-06T17:00:00	7	Dirección del viento	3.22
107079	7	Sololá	702	San José Chacayá	5	Chacayá	7	Julio	2023-12-07T00:00:00	2024-11-06T17:00:00	1	Precipitación	0
107080	7	Sololá	702	San José Chacayá	5	Chacayá	7	Julio	2023-12-07T00:00:00	2024-11-06T17:00:00	8	Radiación solar	243
107081	7	Sololá	702	San José Chacayá	5	Chacayá	7	Julio	2023-12-07T00:00:00	2024-11-06T18:00:00	2	Temperatura media	18.6
107082	7	Sololá	702	San José Chacayá	5	Chacayá	7	Julio	2023-12-07T00:00:00	2024-11-06T18:00:00	4	Temperatura máxima	20.9
107083	7	Sololá	702	San José Chacayá	5	Chacayá	7	Julio	2023-12-07T00:00:00	2024-11-06T18:00:00	3	Temperatura mínima	18.6
107084	7	Sololá	702	San José Chacayá	5	Chacayá	7	Julio	2023-12-07T00:00:00	2024-11-06T18:00:00	5	Humedad	82
107085	7	Sololá	702	San José Chacayá	5	Chacayá	7	Julio	2023-12-07T00:00:00	2024-11-06T18:00:00	6	Velocidad del viento	3.2
107086	7	Sololá	702	San José Chacayá	5	Chacayá	7	Julio	2023-12-07T00:00:00	2024-11-06T18:00:00	7	Dirección del viento	3.22
107087	7	Sololá	702	San José Chacayá	5	Chacayá	7	Julio	2023-12-07T00:00:00	2024-11-06T18:00:00	1	Precipitación	0
107088	7	Sololá	702	San José Chacayá	5	Chacayá	7	Julio	2023-12-07T00:00:00	2024-11-06T18:00:00	8	Radiación solar	107
107089	7	Sololá	702	San José Chacayá	5	Chacayá	7	Julio	2023-12-07T00:00:00	2024-11-06T19:00:00	2	Temperatura media	17.2
107090	7	Sololá	702	San José Chacayá	5	Chacayá	7	Julio	2023-12-07T00:00:00	2024-11-06T19:00:00	4	Temperatura máxima	18.6
107091	7	Sololá	702	San José Chacayá	5	Chacayá	7	Julio	2023-12-07T00:00:00	2024-11-06T19:00:00	3	Temperatura mínima	17.1
107092	7	Sololá	702	San José Chacayá	5	Chacayá	7	Julio	2023-12-07T00:00:00	2024-11-06T19:00:00	5	Humedad	80
107093	7	Sololá	702	San José Chacayá	5	Chacayá	7	Julio	2023-12-07T00:00:00	2024-11-06T19:00:00	6	Velocidad del viento	0
107094	7	Sololá	702	San José Chacayá	5	Chacayá	7	Julio	2023-12-07T00:00:00	2024-11-06T19:00:00	7	Dirección del viento	0
107095	7	Sololá	702	San José Chacayá	5	Chacayá	7	Julio	2023-12-07T00:00:00	2024-11-06T19:00:00	1	Precipitación	0.4
107096	7	Sololá	702	San José Chacayá	5	Chacayá	7	Julio	2023-12-07T00:00:00	2024-11-06T19:00:00	8	Radiación solar	0
107097	7	Sololá	702	San José Chacayá	5	Chacayá	7	Julio	2023-12-07T00:00:00	2024-11-06T20:00:00	2	Temperatura media	15.8
107098	7	Sololá	702	San José Chacayá	5	Chacayá	7	Julio	2023-12-07T00:00:00	2024-11-06T20:00:00	4	Temperatura máxima	17.2
107099	7	Sololá	702	San José Chacayá	5	Chacayá	7	Julio	2023-12-07T00:00:00	2024-11-06T20:00:00	3	Temperatura mínima	15.8
107100	7	Sololá	702	San José Chacayá	5	Chacayá	7	Julio	2023-12-07T00:00:00	2024-11-06T20:00:00	5	Humedad	81
107101	7	Sololá	702	San José Chacayá	5	Chacayá	7	Julio	2023-12-07T00:00:00	2024-11-06T20:00:00	6	Velocidad del viento	1.6
107102	7	Sololá	702	San José Chacayá	5	Chacayá	7	Julio	2023-12-07T00:00:00	2024-11-06T20:00:00	7	Dirección del viento	1.61
107103	7	Sololá	702	San José Chacayá	5	Chacayá	7	Julio	2023-12-07T00:00:00	2024-11-06T20:00:00	1	Precipitación	1
107104	7	Sololá	702	San José Chacayá	5	Chacayá	7	Julio	2023-12-07T00:00:00	2024-11-06T20:00:00	8	Radiación solar	0
107105	7	Sololá	702	San José Chacayá	5	Chacayá	7	Julio	2023-12-07T00:00:00	2024-11-06T21:00:00	2	Temperatura media	13.9
107106	7	Sololá	702	San José Chacayá	5	Chacayá	7	Julio	2023-12-07T00:00:00	2024-11-06T21:00:00	4	Temperatura máxima	15.8
107107	7	Sololá	702	San José Chacayá	5	Chacayá	7	Julio	2023-12-07T00:00:00	2024-11-06T21:00:00	3	Temperatura mínima	13.9
107108	7	Sololá	702	San José Chacayá	5	Chacayá	7	Julio	2023-12-07T00:00:00	2024-11-06T21:00:00	5	Humedad	73
107109	7	Sololá	702	San José Chacayá	5	Chacayá	7	Julio	2023-12-07T00:00:00	2024-11-06T21:00:00	6	Velocidad del viento	3.2
107110	7	Sololá	702	San José Chacayá	5	Chacayá	7	Julio	2023-12-07T00:00:00	2024-11-06T21:00:00	7	Dirección del viento	3.22
107111	7	Sololá	702	San José Chacayá	5	Chacayá	7	Julio	2023-12-07T00:00:00	2024-11-06T21:00:00	1	Precipitación	3.6
107112	7	Sololá	702	San José Chacayá	5	Chacayá	7	Julio	2023-12-07T00:00:00	2024-11-06T21:00:00	8	Radiación solar	0
107113	7	Sololá	702	San José Chacayá	5	Chacayá	7	Julio	2023-12-07T00:00:00	2024-11-06T22:00:00	2	Temperatura media	13.7
107114	7	Sololá	702	San José Chacayá	5	Chacayá	7	Julio	2023-12-07T00:00:00	2024-11-06T22:00:00	4	Temperatura máxima	13.9
107115	7	Sololá	702	San José Chacayá	5	Chacayá	7	Julio	2023-12-07T00:00:00	2024-11-06T22:00:00	3	Temperatura mínima	13.7
107116	7	Sololá	702	San José Chacayá	5	Chacayá	7	Julio	2023-12-07T00:00:00	2024-11-06T22:00:00	5	Humedad	74
107117	7	Sololá	702	San José Chacayá	5	Chacayá	7	Julio	2023-12-07T00:00:00	2024-11-06T22:00:00	6	Velocidad del viento	1.6
107118	7	Sololá	702	San José Chacayá	5	Chacayá	7	Julio	2023-12-07T00:00:00	2024-11-06T22:00:00	7	Dirección del viento	1.61
107119	7	Sololá	702	San José Chacayá	5	Chacayá	7	Julio	2023-12-07T00:00:00	2024-11-06T22:00:00	1	Precipitación	1.4
107120	7	Sololá	702	San José Chacayá	5	Chacayá	7	Julio	2023-12-07T00:00:00	2024-11-06T22:00:00	8	Radiación solar	0
107121	7	Sololá	702	San José Chacayá	5	Chacayá	7	Julio	2023-12-07T00:00:00	2024-11-06T23:00:00	2	Temperatura media	14.6
107122	7	Sololá	702	San José Chacayá	5	Chacayá	7	Julio	2023-12-07T00:00:00	2024-11-06T23:00:00	4	Temperatura máxima	14.6
107123	7	Sololá	702	San José Chacayá	5	Chacayá	7	Julio	2023-12-07T00:00:00	2024-11-06T23:00:00	3	Temperatura mínima	13.7
107124	7	Sololá	702	San José Chacayá	5	Chacayá	7	Julio	2023-12-07T00:00:00	2024-11-06T23:00:00	5	Humedad	77
107125	7	Sololá	702	San José Chacayá	5	Chacayá	7	Julio	2023-12-07T00:00:00	2024-11-06T23:00:00	6	Velocidad del viento	1.6
107126	7	Sololá	702	San José Chacayá	5	Chacayá	7	Julio	2023-12-07T00:00:00	2024-11-06T23:00:00	7	Dirección del viento	1.61
107127	7	Sololá	702	San José Chacayá	5	Chacayá	7	Julio	2023-12-07T00:00:00	2024-11-06T23:00:00	1	Precipitación	0
107128	7	Sololá	702	San José Chacayá	5	Chacayá	7	Julio	2023-12-07T00:00:00	2024-11-06T23:00:00	8	Radiación solar	0
107129	7	Sololá	702	San José Chacayá	5	Chacayá	7	Julio	2023-07-13T00:00:00	2024-11-06T00:00:00	2	Temperatura media	15.3
107130	7	Sololá	702	San José Chacayá	5	Chacayá	7	Julio	2023-07-13T00:00:00	2024-11-06T00:00:00	4	Temperatura máxima	15.3
107131	7	Sololá	702	San José Chacayá	5	Chacayá	7	Julio	2023-07-13T00:00:00	2024-11-06T00:00:00	3	Temperatura mínima	14.6
107132	7	Sololá	702	San José Chacayá	5	Chacayá	7	Julio	2023-07-13T00:00:00	2024-11-06T00:00:00	5	Humedad	83
107133	7	Sololá	702	San José Chacayá	5	Chacayá	7	Julio	2023-07-13T00:00:00	2024-11-06T00:00:00	6	Velocidad del viento	4.8
107134	7	Sololá	702	San José Chacayá	5	Chacayá	7	Julio	2023-07-13T00:00:00	2024-11-06T00:00:00	7	Dirección del viento	4.83
107135	7	Sololá	702	San José Chacayá	5	Chacayá	7	Julio	2023-07-13T00:00:00	2024-11-06T00:00:00	1	Precipitación	0
107136	7	Sololá	702	San José Chacayá	5	Chacayá	7	Julio	2023-07-13T00:00:00	2024-11-06T00:00:00	8	Radiación solar	0
107137	7	Sololá	702	San José Chacayá	5	Chacayá	7	Julio	2023-07-13T00:00:00	2024-11-06T01:00:00	2	Temperatura media	15.2
107138	7	Sololá	702	San José Chacayá	5	Chacayá	7	Julio	2023-07-13T00:00:00	2024-11-06T01:00:00	4	Temperatura máxima	15.6
107139	7	Sololá	702	San José Chacayá	5	Chacayá	7	Julio	2023-07-13T00:00:00	2024-11-06T01:00:00	3	Temperatura mínima	15.2
107140	7	Sololá	702	San José Chacayá	5	Chacayá	7	Julio	2023-07-13T00:00:00	2024-11-06T01:00:00	5	Humedad	83
107141	7	Sololá	702	San José Chacayá	5	Chacayá	7	Julio	2023-07-13T00:00:00	2024-11-06T01:00:00	6	Velocidad del viento	3.2
107142	7	Sololá	702	San José Chacayá	5	Chacayá	7	Julio	2023-07-13T00:00:00	2024-11-06T01:00:00	7	Dirección del viento	3.22
107143	7	Sololá	702	San José Chacayá	5	Chacayá	7	Julio	2023-07-13T00:00:00	2024-11-06T01:00:00	1	Precipitación	0
107144	7	Sololá	702	San José Chacayá	5	Chacayá	7	Julio	2023-07-13T00:00:00	2024-11-06T01:00:00	8	Radiación solar	0
107145	7	Sololá	702	San José Chacayá	5	Chacayá	7	Julio	2023-07-13T00:00:00	2024-11-06T02:00:00	2	Temperatura media	14.7
107146	7	Sololá	702	San José Chacayá	5	Chacayá	7	Julio	2023-07-13T00:00:00	2024-11-06T02:00:00	4	Temperatura máxima	15.2
107147	7	Sololá	702	San José Chacayá	5	Chacayá	7	Julio	2023-07-13T00:00:00	2024-11-06T02:00:00	3	Temperatura mínima	13.9
107148	7	Sololá	702	San José Chacayá	5	Chacayá	7	Julio	2023-07-13T00:00:00	2024-11-06T02:00:00	5	Humedad	81
107149	7	Sololá	702	San José Chacayá	5	Chacayá	7	Julio	2023-07-13T00:00:00	2024-11-06T02:00:00	6	Velocidad del viento	1.6
107150	7	Sololá	702	San José Chacayá	5	Chacayá	7	Julio	2023-07-13T00:00:00	2024-11-06T02:00:00	7	Dirección del viento	1.61
107151	7	Sololá	702	San José Chacayá	5	Chacayá	7	Julio	2023-07-13T00:00:00	2024-11-06T02:00:00	1	Precipitación	0
107152	7	Sololá	702	San José Chacayá	5	Chacayá	7	Julio	2023-07-13T00:00:00	2024-11-06T02:00:00	8	Radiación solar	0
107153	7	Sololá	702	San José Chacayá	5	Chacayá	7	Julio	2023-07-13T00:00:00	2024-11-06T03:00:00	2	Temperatura media	15.4
107154	7	Sololá	702	San José Chacayá	5	Chacayá	7	Julio	2023-07-13T00:00:00	2024-11-06T03:00:00	4	Temperatura máxima	15.6
107155	7	Sololá	702	San José Chacayá	5	Chacayá	7	Julio	2023-07-13T00:00:00	2024-11-06T03:00:00	3	Temperatura mínima	14.7
107156	7	Sololá	702	San José Chacayá	5	Chacayá	7	Julio	2023-07-13T00:00:00	2024-11-06T03:00:00	5	Humedad	74
107157	7	Sololá	702	San José Chacayá	5	Chacayá	7	Julio	2023-07-13T00:00:00	2024-11-06T03:00:00	6	Velocidad del viento	3.2
107158	7	Sololá	702	San José Chacayá	5	Chacayá	7	Julio	2023-07-13T00:00:00	2024-11-06T03:00:00	7	Dirección del viento	3.22
107159	7	Sololá	702	San José Chacayá	5	Chacayá	7	Julio	2023-07-13T00:00:00	2024-11-06T03:00:00	1	Precipitación	0
107160	7	Sololá	702	San José Chacayá	5	Chacayá	7	Julio	2023-07-13T00:00:00	2024-11-06T03:00:00	8	Radiación solar	0
107161	7	Sololá	702	San José Chacayá	5	Chacayá	7	Julio	2023-07-13T00:00:00	2024-11-06T04:00:00	2	Temperatura media	14.9
107162	7	Sololá	702	San José Chacayá	5	Chacayá	7	Julio	2023-07-13T00:00:00	2024-11-06T04:00:00	4	Temperatura máxima	15.4
107163	7	Sololá	702	San José Chacayá	5	Chacayá	7	Julio	2023-07-13T00:00:00	2024-11-06T04:00:00	3	Temperatura mínima	14.8
107164	7	Sololá	702	San José Chacayá	5	Chacayá	7	Julio	2023-07-13T00:00:00	2024-11-06T04:00:00	5	Humedad	74
107165	7	Sololá	702	San José Chacayá	5	Chacayá	7	Julio	2023-07-13T00:00:00	2024-11-06T04:00:00	6	Velocidad del viento	3.2
107166	7	Sololá	702	San José Chacayá	5	Chacayá	7	Julio	2023-07-13T00:00:00	2024-11-06T04:00:00	7	Dirección del viento	3.22
107167	7	Sololá	702	San José Chacayá	5	Chacayá	7	Julio	2023-07-13T00:00:00	2024-11-06T04:00:00	1	Precipitación	0
107168	7	Sololá	702	San José Chacayá	5	Chacayá	7	Julio	2023-07-13T00:00:00	2024-11-06T04:00:00	8	Radiación solar	0
107169	7	Sololá	702	San José Chacayá	5	Chacayá	7	Julio	2023-07-13T00:00:00	2024-11-06T05:00:00	2	Temperatura media	15.3
107170	7	Sololá	702	San José Chacayá	5	Chacayá	7	Julio	2023-07-13T00:00:00	2024-11-06T05:00:00	4	Temperatura máxima	15.6
107171	7	Sololá	702	San José Chacayá	5	Chacayá	7	Julio	2023-07-13T00:00:00	2024-11-06T05:00:00	3	Temperatura mínima	14.9
107172	7	Sololá	702	San José Chacayá	5	Chacayá	7	Julio	2023-07-13T00:00:00	2024-11-06T05:00:00	5	Humedad	72
107173	7	Sololá	702	San José Chacayá	5	Chacayá	7	Julio	2023-07-13T00:00:00	2024-11-06T05:00:00	6	Velocidad del viento	4.8
107174	7	Sololá	702	San José Chacayá	5	Chacayá	7	Julio	2023-07-13T00:00:00	2024-11-06T05:00:00	7	Dirección del viento	4.83
107175	7	Sololá	702	San José Chacayá	5	Chacayá	7	Julio	2023-07-13T00:00:00	2024-11-06T05:00:00	1	Precipitación	0
107176	7	Sololá	702	San José Chacayá	5	Chacayá	7	Julio	2023-07-13T00:00:00	2024-11-06T05:00:00	8	Radiación solar	0
107177	7	Sololá	702	San José Chacayá	5	Chacayá	7	Julio	2023-07-13T00:00:00	2024-11-06T06:00:00	2	Temperatura media	15.2
107178	7	Sololá	702	San José Chacayá	5	Chacayá	7	Julio	2023-07-13T00:00:00	2024-11-06T06:00:00	4	Temperatura máxima	15.5
107179	7	Sololá	702	San José Chacayá	5	Chacayá	7	Julio	2023-07-13T00:00:00	2024-11-06T06:00:00	3	Temperatura mínima	15
107180	7	Sololá	702	San José Chacayá	5	Chacayá	7	Julio	2023-07-13T00:00:00	2024-11-06T06:00:00	5	Humedad	79
107181	7	Sololá	702	San José Chacayá	5	Chacayá	7	Julio	2023-07-13T00:00:00	2024-11-06T06:00:00	6	Velocidad del viento	8
107182	7	Sololá	702	San José Chacayá	5	Chacayá	7	Julio	2023-07-13T00:00:00	2024-11-06T06:00:00	7	Dirección del viento	8.05
107183	7	Sololá	702	San José Chacayá	5	Chacayá	7	Julio	2023-07-13T00:00:00	2024-11-06T06:00:00	1	Precipitación	0
107184	7	Sololá	702	San José Chacayá	5	Chacayá	7	Julio	2023-07-13T00:00:00	2024-11-06T06:00:00	8	Radiación solar	3
107185	7	Sololá	702	San José Chacayá	5	Chacayá	7	Julio	2023-07-13T00:00:00	2024-11-06T07:00:00	2	Temperatura media	15.9
107186	7	Sololá	702	San José Chacayá	5	Chacayá	7	Julio	2023-07-13T00:00:00	2024-11-06T07:00:00	4	Temperatura máxima	15.9
107187	7	Sololá	702	San José Chacayá	5	Chacayá	7	Julio	2023-07-13T00:00:00	2024-11-06T07:00:00	3	Temperatura mínima	15.2
107188	7	Sololá	702	San José Chacayá	5	Chacayá	7	Julio	2023-07-13T00:00:00	2024-11-06T07:00:00	5	Humedad	81
107189	7	Sololá	702	San José Chacayá	5	Chacayá	7	Julio	2023-07-13T00:00:00	2024-11-06T07:00:00	6	Velocidad del viento	9.7
107190	7	Sololá	702	San José Chacayá	5	Chacayá	7	Julio	2023-07-13T00:00:00	2024-11-06T07:00:00	7	Dirección del viento	9.66
107191	7	Sololá	702	San José Chacayá	5	Chacayá	7	Julio	2023-07-13T00:00:00	2024-11-06T07:00:00	1	Precipitación	0
107192	7	Sololá	702	San José Chacayá	5	Chacayá	7	Julio	2023-07-13T00:00:00	2024-11-06T07:00:00	8	Radiación solar	75
107193	7	Sololá	702	San José Chacayá	5	Chacayá	7	Julio	2023-07-13T00:00:00	2024-11-06T08:00:00	2	Temperatura media	16.8
107194	7	Sololá	702	San José Chacayá	5	Chacayá	7	Julio	2023-07-13T00:00:00	2024-11-06T08:00:00	4	Temperatura máxima	16.8
107195	7	Sololá	702	San José Chacayá	5	Chacayá	7	Julio	2023-07-13T00:00:00	2024-11-06T08:00:00	3	Temperatura mínima	15.9
107196	7	Sololá	702	San José Chacayá	5	Chacayá	7	Julio	2023-07-13T00:00:00	2024-11-06T08:00:00	5	Humedad	75
107197	7	Sololá	702	San José Chacayá	5	Chacayá	7	Julio	2023-07-13T00:00:00	2024-11-06T08:00:00	6	Velocidad del viento	6.4
107198	7	Sololá	702	San José Chacayá	5	Chacayá	7	Julio	2023-07-13T00:00:00	2024-11-06T08:00:00	7	Dirección del viento	6.44
107199	7	Sololá	702	San José Chacayá	5	Chacayá	7	Julio	2023-07-13T00:00:00	2024-11-06T08:00:00	1	Precipitación	0
107200	7	Sololá	702	San José Chacayá	5	Chacayá	7	Julio	2023-07-13T00:00:00	2024-11-06T08:00:00	8	Radiación solar	202
107201	7	Sololá	702	San José Chacayá	5	Chacayá	7	Julio	2023-07-13T00:00:00	2024-11-06T09:00:00	2	Temperatura media	18.3
107202	7	Sololá	702	San José Chacayá	5	Chacayá	7	Julio	2023-07-13T00:00:00	2024-11-06T09:00:00	4	Temperatura máxima	18.3
107203	7	Sololá	702	San José Chacayá	5	Chacayá	7	Julio	2023-07-13T00:00:00	2024-11-06T09:00:00	3	Temperatura mínima	16.8
107204	7	Sololá	702	San José Chacayá	5	Chacayá	7	Julio	2023-07-13T00:00:00	2024-11-06T09:00:00	5	Humedad	69
107205	7	Sololá	702	San José Chacayá	5	Chacayá	7	Julio	2023-07-13T00:00:00	2024-11-06T09:00:00	6	Velocidad del viento	6.4
107206	7	Sololá	702	San José Chacayá	5	Chacayá	7	Julio	2023-07-13T00:00:00	2024-11-06T09:00:00	7	Dirección del viento	6.44
107207	7	Sololá	702	San José Chacayá	5	Chacayá	7	Julio	2023-07-13T00:00:00	2024-11-06T09:00:00	1	Precipitación	0
107208	7	Sololá	702	San José Chacayá	5	Chacayá	7	Julio	2023-07-13T00:00:00	2024-11-06T09:00:00	8	Radiación solar	451
107209	7	Sololá	702	San José Chacayá	5	Chacayá	7	Julio	2023-07-13T00:00:00	2024-11-06T10:00:00	2	Temperatura media	19.7
107210	7	Sololá	702	San José Chacayá	5	Chacayá	7	Julio	2023-07-13T00:00:00	2024-11-06T10:00:00	4	Temperatura máxima	19.7
107211	7	Sololá	702	San José Chacayá	5	Chacayá	7	Julio	2023-07-13T00:00:00	2024-11-06T10:00:00	3	Temperatura mínima	18.2
107212	7	Sololá	702	San José Chacayá	5	Chacayá	7	Julio	2023-07-13T00:00:00	2024-11-06T10:00:00	5	Humedad	68
107213	7	Sololá	702	San José Chacayá	5	Chacayá	7	Julio	2023-07-13T00:00:00	2024-11-06T10:00:00	6	Velocidad del viento	6.4
107214	7	Sololá	702	San José Chacayá	5	Chacayá	7	Julio	2023-07-13T00:00:00	2024-11-06T10:00:00	7	Dirección del viento	6.44
107215	7	Sololá	702	San José Chacayá	5	Chacayá	7	Julio	2023-07-13T00:00:00	2024-11-06T10:00:00	1	Precipitación	0
107216	7	Sololá	702	San José Chacayá	5	Chacayá	7	Julio	2023-07-13T00:00:00	2024-11-06T10:00:00	8	Radiación solar	769
107217	7	Sololá	702	San José Chacayá	5	Chacayá	7	Julio	2023-07-13T00:00:00	2024-11-06T11:00:00	2	Temperatura media	20
107218	7	Sololá	702	San José Chacayá	5	Chacayá	7	Julio	2023-07-13T00:00:00	2024-11-06T11:00:00	4	Temperatura máxima	20
107219	7	Sololá	702	San José Chacayá	5	Chacayá	7	Julio	2023-07-13T00:00:00	2024-11-06T11:00:00	3	Temperatura mínima	19.2
107220	7	Sololá	702	San José Chacayá	5	Chacayá	7	Julio	2023-07-13T00:00:00	2024-11-06T11:00:00	5	Humedad	68
107221	7	Sololá	702	San José Chacayá	5	Chacayá	7	Julio	2023-07-13T00:00:00	2024-11-06T11:00:00	6	Velocidad del viento	6.4
107222	7	Sololá	702	San José Chacayá	5	Chacayá	7	Julio	2023-07-13T00:00:00	2024-11-06T11:00:00	7	Dirección del viento	6.44
107223	7	Sololá	702	San José Chacayá	5	Chacayá	7	Julio	2023-07-13T00:00:00	2024-11-06T11:00:00	1	Precipitación	0
107224	7	Sololá	702	San José Chacayá	5	Chacayá	7	Julio	2023-07-13T00:00:00	2024-11-06T11:00:00	8	Radiación solar	602
107225	7	Sololá	702	San José Chacayá	5	Chacayá	7	Julio	2023-07-13T00:00:00	2024-11-06T12:00:00	2	Temperatura media	20.9
107226	7	Sololá	702	San José Chacayá	5	Chacayá	7	Julio	2023-07-13T00:00:00	2024-11-06T12:00:00	4	Temperatura máxima	20.9
107227	7	Sololá	702	San José Chacayá	5	Chacayá	7	Julio	2023-07-13T00:00:00	2024-11-06T12:00:00	3	Temperatura mínima	19.3
107228	7	Sololá	702	San José Chacayá	5	Chacayá	7	Julio	2023-07-13T00:00:00	2024-11-06T12:00:00	5	Humedad	61
107229	7	Sololá	702	San José Chacayá	5	Chacayá	7	Julio	2023-07-13T00:00:00	2024-11-06T12:00:00	6	Velocidad del viento	6.4
107230	7	Sololá	702	San José Chacayá	5	Chacayá	7	Julio	2023-07-13T00:00:00	2024-11-06T12:00:00	7	Dirección del viento	6.44
107231	7	Sololá	702	San José Chacayá	5	Chacayá	7	Julio	2023-07-13T00:00:00	2024-11-06T12:00:00	1	Precipitación	0
107232	7	Sololá	702	San José Chacayá	5	Chacayá	7	Julio	2023-07-13T00:00:00	2024-11-06T12:00:00	8	Radiación solar	674
107233	7	Sololá	702	San José Chacayá	5	Chacayá	7	Julio	2023-07-13T00:00:00	2024-11-06T13:00:00	2	Temperatura media	21.3
107234	7	Sololá	702	San José Chacayá	5	Chacayá	7	Julio	2023-07-13T00:00:00	2024-11-06T13:00:00	4	Temperatura máxima	22.3
107235	7	Sololá	702	San José Chacayá	5	Chacayá	7	Julio	2023-07-13T00:00:00	2024-11-06T13:00:00	3	Temperatura mínima	20.9
107236	7	Sololá	702	San José Chacayá	5	Chacayá	7	Julio	2023-07-13T00:00:00	2024-11-06T13:00:00	5	Humedad	61
107237	7	Sololá	702	San José Chacayá	5	Chacayá	7	Julio	2023-07-13T00:00:00	2024-11-06T13:00:00	6	Velocidad del viento	4.8
107238	7	Sololá	702	San José Chacayá	5	Chacayá	7	Julio	2023-07-13T00:00:00	2024-11-06T13:00:00	7	Dirección del viento	4.83
107239	7	Sololá	702	San José Chacayá	5	Chacayá	7	Julio	2023-07-13T00:00:00	2024-11-06T13:00:00	1	Precipitación	0
107240	7	Sololá	702	San José Chacayá	5	Chacayá	7	Julio	2023-07-13T00:00:00	2024-11-06T13:00:00	8	Radiación solar	924
107241	7	Sololá	702	San José Chacayá	5	Chacayá	7	Julio	2023-07-13T00:00:00	2024-11-06T14:00:00	2	Temperatura media	21.4
107242	7	Sololá	702	San José Chacayá	5	Chacayá	7	Julio	2023-07-13T00:00:00	2024-11-06T14:00:00	4	Temperatura máxima	21.6
107243	7	Sololá	702	San José Chacayá	5	Chacayá	7	Julio	2023-07-13T00:00:00	2024-11-06T14:00:00	3	Temperatura mínima	20.6
107244	7	Sololá	702	San José Chacayá	5	Chacayá	7	Julio	2023-07-13T00:00:00	2024-11-06T14:00:00	5	Humedad	61
107245	7	Sololá	702	San José Chacayá	5	Chacayá	7	Julio	2023-07-13T00:00:00	2024-11-06T14:00:00	6	Velocidad del viento	3.2
107246	7	Sololá	702	San José Chacayá	5	Chacayá	7	Julio	2023-07-13T00:00:00	2024-11-06T14:00:00	7	Dirección del viento	3.22
107247	7	Sololá	702	San José Chacayá	5	Chacayá	7	Julio	2023-07-13T00:00:00	2024-11-06T14:00:00	1	Precipitación	0
107248	7	Sololá	702	San José Chacayá	5	Chacayá	7	Julio	2023-07-13T00:00:00	2024-11-06T14:00:00	8	Radiación solar	297
107249	7	Sololá	702	San José Chacayá	5	Chacayá	7	Julio	2023-07-13T00:00:00	2024-11-06T15:00:00	2	Temperatura media	20.8
107250	7	Sololá	702	San José Chacayá	5	Chacayá	7	Julio	2023-07-13T00:00:00	2024-11-06T15:00:00	4	Temperatura máxima	22.2
107251	7	Sololá	702	San José Chacayá	5	Chacayá	7	Julio	2023-07-13T00:00:00	2024-11-06T15:00:00	3	Temperatura mínima	20.4
107252	7	Sololá	702	San José Chacayá	5	Chacayá	7	Julio	2023-07-13T00:00:00	2024-11-06T15:00:00	5	Humedad	62
107253	7	Sololá	702	San José Chacayá	5	Chacayá	7	Julio	2023-07-13T00:00:00	2024-11-06T15:00:00	6	Velocidad del viento	4.8
107254	7	Sololá	702	San José Chacayá	5	Chacayá	7	Julio	2023-07-13T00:00:00	2024-11-06T15:00:00	7	Dirección del viento	4.83
107255	7	Sololá	702	San José Chacayá	5	Chacayá	7	Julio	2023-07-13T00:00:00	2024-11-06T15:00:00	1	Precipitación	0
107256	7	Sololá	702	San José Chacayá	5	Chacayá	7	Julio	2023-07-13T00:00:00	2024-11-06T15:00:00	8	Radiación solar	453
107257	7	Sololá	702	San José Chacayá	5	Chacayá	7	Julio	2023-07-13T00:00:00	2024-11-06T16:00:00	2	Temperatura media	21
107258	7	Sololá	702	San José Chacayá	5	Chacayá	7	Julio	2023-07-13T00:00:00	2024-11-06T16:00:00	4	Temperatura máxima	21.1
107259	7	Sololá	702	San José Chacayá	5	Chacayá	7	Julio	2023-07-13T00:00:00	2024-11-06T16:00:00	3	Temperatura mínima	20.7
107260	7	Sololá	702	San José Chacayá	5	Chacayá	7	Julio	2023-07-13T00:00:00	2024-11-06T16:00:00	5	Humedad	60
107261	7	Sololá	702	San José Chacayá	5	Chacayá	7	Julio	2023-07-13T00:00:00	2024-11-06T16:00:00	6	Velocidad del viento	1.6
107262	7	Sololá	702	San José Chacayá	5	Chacayá	7	Julio	2023-07-13T00:00:00	2024-11-06T16:00:00	7	Dirección del viento	1.61
107263	7	Sololá	702	San José Chacayá	5	Chacayá	7	Julio	2023-07-13T00:00:00	2024-11-06T16:00:00	1	Precipitación	0
107264	7	Sololá	702	San José Chacayá	5	Chacayá	7	Julio	2023-07-13T00:00:00	2024-11-06T16:00:00	8	Radiación solar	220
107265	7	Sololá	702	San José Chacayá	5	Chacayá	7	Julio	2023-07-13T00:00:00	2024-11-06T17:00:00	2	Temperatura media	20.3
107266	7	Sololá	702	San José Chacayá	5	Chacayá	7	Julio	2023-07-13T00:00:00	2024-11-06T17:00:00	4	Temperatura máxima	21.6
107267	7	Sololá	702	San José Chacayá	5	Chacayá	7	Julio	2023-07-13T00:00:00	2024-11-06T17:00:00	3	Temperatura mínima	20.3
107268	7	Sololá	702	San José Chacayá	5	Chacayá	7	Julio	2023-07-13T00:00:00	2024-11-06T17:00:00	5	Humedad	65
107269	7	Sololá	702	San José Chacayá	5	Chacayá	7	Julio	2023-07-13T00:00:00	2024-11-06T17:00:00	6	Velocidad del viento	1.6
107270	7	Sololá	702	San José Chacayá	5	Chacayá	7	Julio	2023-07-13T00:00:00	2024-11-06T17:00:00	7	Dirección del viento	1.61
107271	7	Sololá	702	San José Chacayá	5	Chacayá	7	Julio	2023-07-13T00:00:00	2024-11-06T17:00:00	1	Precipitación	0
107272	7	Sololá	702	San José Chacayá	5	Chacayá	7	Julio	2023-07-13T00:00:00	2024-11-06T17:00:00	8	Radiación solar	229
107273	7	Sololá	702	San José Chacayá	5	Chacayá	7	Julio	2023-07-13T00:00:00	2024-11-06T18:00:00	2	Temperatura media	18.7
107274	7	Sololá	702	San José Chacayá	5	Chacayá	7	Julio	2023-07-13T00:00:00	2024-11-06T18:00:00	4	Temperatura máxima	20.3
107275	7	Sololá	702	San José Chacayá	5	Chacayá	7	Julio	2023-07-13T00:00:00	2024-11-06T18:00:00	3	Temperatura mínima	18.7
107276	7	Sololá	702	San José Chacayá	5	Chacayá	7	Julio	2023-07-13T00:00:00	2024-11-06T18:00:00	5	Humedad	71
107277	7	Sololá	702	San José Chacayá	5	Chacayá	7	Julio	2023-07-13T00:00:00	2024-11-06T18:00:00	6	Velocidad del viento	1.6
107278	7	Sololá	702	San José Chacayá	5	Chacayá	7	Julio	2023-07-13T00:00:00	2024-11-06T18:00:00	7	Dirección del viento	1.61
107279	7	Sololá	702	San José Chacayá	5	Chacayá	7	Julio	2023-07-13T00:00:00	2024-11-06T18:00:00	1	Precipitación	0
107280	7	Sololá	702	San José Chacayá	5	Chacayá	7	Julio	2023-07-13T00:00:00	2024-11-06T18:00:00	8	Radiación solar	100
107281	7	Sololá	702	San José Chacayá	5	Chacayá	7	Julio	2023-07-13T00:00:00	2024-11-06T19:00:00	2	Temperatura media	17.2
107282	7	Sololá	702	San José Chacayá	5	Chacayá	7	Julio	2023-07-13T00:00:00	2024-11-06T19:00:00	4	Temperatura máxima	18.7
107283	7	Sololá	702	San José Chacayá	5	Chacayá	7	Julio	2023-07-13T00:00:00	2024-11-06T19:00:00	3	Temperatura mínima	17.2
107284	7	Sololá	702	San José Chacayá	5	Chacayá	7	Julio	2023-07-13T00:00:00	2024-11-06T19:00:00	5	Humedad	79
107285	7	Sololá	702	San José Chacayá	5	Chacayá	7	Julio	2023-07-13T00:00:00	2024-11-06T19:00:00	6	Velocidad del viento	1.6
107286	7	Sololá	702	San José Chacayá	5	Chacayá	7	Julio	2023-07-13T00:00:00	2024-11-06T19:00:00	7	Dirección del viento	1.61
107287	7	Sololá	702	San José Chacayá	5	Chacayá	7	Julio	2023-07-13T00:00:00	2024-11-06T19:00:00	1	Precipitación	0
107288	7	Sololá	702	San José Chacayá	5	Chacayá	7	Julio	2023-07-13T00:00:00	2024-11-06T19:00:00	8	Radiación solar	0
107289	7	Sololá	702	San José Chacayá	5	Chacayá	7	Julio	2023-07-13T00:00:00	2024-11-06T20:00:00	2	Temperatura media	16.8
107290	7	Sololá	702	San José Chacayá	5	Chacayá	7	Julio	2023-07-13T00:00:00	2024-11-06T20:00:00	4	Temperatura máxima	17.2
107291	7	Sololá	702	San José Chacayá	5	Chacayá	7	Julio	2023-07-13T00:00:00	2024-11-06T20:00:00	3	Temperatura mínima	16.7
107292	7	Sololá	702	San José Chacayá	5	Chacayá	7	Julio	2023-07-13T00:00:00	2024-11-06T20:00:00	5	Humedad	79
107293	7	Sololá	702	San José Chacayá	5	Chacayá	7	Julio	2023-07-13T00:00:00	2024-11-06T20:00:00	6	Velocidad del viento	3.2
107294	7	Sololá	702	San José Chacayá	5	Chacayá	7	Julio	2023-07-13T00:00:00	2024-11-06T20:00:00	7	Dirección del viento	3.22
107295	7	Sololá	702	San José Chacayá	5	Chacayá	7	Julio	2023-07-13T00:00:00	2024-11-06T20:00:00	1	Precipitación	0
107296	7	Sololá	702	San José Chacayá	5	Chacayá	7	Julio	2023-07-13T00:00:00	2024-11-06T20:00:00	8	Radiación solar	0
107297	7	Sololá	702	San José Chacayá	5	Chacayá	7	Julio	2023-07-13T00:00:00	2024-11-06T21:00:00	2	Temperatura media	15.8
107298	7	Sololá	702	San José Chacayá	5	Chacayá	7	Julio	2023-07-13T00:00:00	2024-11-06T21:00:00	4	Temperatura máxima	16.8
107299	7	Sololá	702	San José Chacayá	5	Chacayá	7	Julio	2023-07-13T00:00:00	2024-11-06T21:00:00	3	Temperatura mínima	15.7
107300	7	Sololá	702	San José Chacayá	5	Chacayá	7	Julio	2023-07-13T00:00:00	2024-11-06T21:00:00	5	Humedad	82
107301	7	Sololá	702	San José Chacayá	5	Chacayá	7	Julio	2023-07-13T00:00:00	2024-11-06T21:00:00	6	Velocidad del viento	1.6
107302	7	Sololá	702	San José Chacayá	5	Chacayá	7	Julio	2023-07-13T00:00:00	2024-11-06T21:00:00	7	Dirección del viento	1.61
107303	7	Sololá	702	San José Chacayá	5	Chacayá	7	Julio	2023-07-13T00:00:00	2024-11-06T21:00:00	1	Precipitación	0
107304	7	Sololá	702	San José Chacayá	5	Chacayá	7	Julio	2023-07-13T00:00:00	2024-11-06T21:00:00	8	Radiación solar	0
107305	7	Sololá	702	San José Chacayá	5	Chacayá	7	Julio	2023-07-13T00:00:00	2024-11-06T22:00:00	2	Temperatura media	15.3
107306	7	Sololá	702	San José Chacayá	5	Chacayá	7	Julio	2023-07-13T00:00:00	2024-11-06T22:00:00	4	Temperatura máxima	15.9
107307	7	Sololá	702	San José Chacayá	5	Chacayá	7	Julio	2023-07-13T00:00:00	2024-11-06T22:00:00	3	Temperatura mínima	15.2
107308	7	Sololá	702	San José Chacayá	5	Chacayá	7	Julio	2023-07-13T00:00:00	2024-11-06T22:00:00	5	Humedad	83
107309	7	Sololá	702	San José Chacayá	5	Chacayá	7	Julio	2023-07-13T00:00:00	2024-11-06T22:00:00	6	Velocidad del viento	1.6
107310	7	Sololá	702	San José Chacayá	5	Chacayá	7	Julio	2023-07-13T00:00:00	2024-11-06T22:00:00	7	Dirección del viento	1.61
107311	7	Sololá	702	San José Chacayá	5	Chacayá	7	Julio	2023-07-13T00:00:00	2024-11-06T22:00:00	1	Precipitación	0
107312	7	Sololá	702	San José Chacayá	5	Chacayá	7	Julio	2023-07-13T00:00:00	2024-11-06T22:00:00	8	Radiación solar	0
107313	7	Sololá	702	San José Chacayá	5	Chacayá	7	Julio	2023-07-13T00:00:00	2024-11-06T23:00:00	2	Temperatura media	14.8
107314	7	Sololá	702	San José Chacayá	5	Chacayá	7	Julio	2023-07-13T00:00:00	2024-11-06T23:00:00	4	Temperatura máxima	15.4
107315	7	Sololá	702	San José Chacayá	5	Chacayá	7	Julio	2023-07-13T00:00:00	2024-11-06T23:00:00	3	Temperatura mínima	14.8
107316	7	Sololá	702	San José Chacayá	5	Chacayá	7	Julio	2023-07-13T00:00:00	2024-11-06T23:00:00	5	Humedad	73
107317	7	Sololá	702	San José Chacayá	5	Chacayá	7	Julio	2023-07-13T00:00:00	2024-11-06T23:00:00	6	Velocidad del viento	1.6
107318	7	Sololá	702	San José Chacayá	5	Chacayá	7	Julio	2023-07-13T00:00:00	2024-11-06T23:00:00	7	Dirección del viento	1.61
107319	7	Sololá	702	San José Chacayá	5	Chacayá	7	Julio	2023-07-13T00:00:00	2024-11-06T23:00:00	1	Precipitación	5.6
107320	7	Sololá	702	San José Chacayá	5	Chacayá	7	Julio	2023-07-13T00:00:00	2024-11-06T23:00:00	8	Radiación solar	0
107321	7	Sololá	702	San José Chacayá	5	Chacayá	7	Julio	2023-07-14T00:00:00	2024-11-06T00:00:00	2	Temperatura media	13.9
107322	7	Sololá	702	San José Chacayá	5	Chacayá	7	Julio	2023-07-14T00:00:00	2024-11-06T00:00:00	4	Temperatura máxima	14.8
107323	7	Sololá	702	San José Chacayá	5	Chacayá	7	Julio	2023-07-14T00:00:00	2024-11-06T00:00:00	3	Temperatura mínima	13.9
107324	7	Sololá	702	San José Chacayá	5	Chacayá	7	Julio	2023-07-14T00:00:00	2024-11-06T00:00:00	5	Humedad	67
107325	7	Sololá	702	San José Chacayá	5	Chacayá	7	Julio	2023-07-14T00:00:00	2024-11-06T00:00:00	6	Velocidad del viento	0
107326	7	Sololá	702	San José Chacayá	5	Chacayá	7	Julio	2023-07-14T00:00:00	2024-11-06T00:00:00	7	Dirección del viento	0
107327	7	Sololá	702	San José Chacayá	5	Chacayá	7	Julio	2023-07-14T00:00:00	2024-11-06T00:00:00	1	Precipitación	3.6
107328	7	Sololá	702	San José Chacayá	5	Chacayá	7	Julio	2023-07-14T00:00:00	2024-11-06T00:00:00	8	Radiación solar	0
107329	7	Sololá	702	San José Chacayá	5	Chacayá	7	Julio	2023-07-14T00:00:00	2024-11-06T01:00:00	2	Temperatura media	13.5
107330	7	Sololá	702	San José Chacayá	5	Chacayá	7	Julio	2023-07-14T00:00:00	2024-11-06T01:00:00	4	Temperatura máxima	13.9
107331	7	Sololá	702	San José Chacayá	5	Chacayá	7	Julio	2023-07-14T00:00:00	2024-11-06T01:00:00	3	Temperatura mínima	13.4
107332	7	Sololá	702	San José Chacayá	5	Chacayá	7	Julio	2023-07-14T00:00:00	2024-11-06T01:00:00	5	Humedad	63
107333	7	Sololá	702	San José Chacayá	5	Chacayá	7	Julio	2023-07-14T00:00:00	2024-11-06T01:00:00	6	Velocidad del viento	0
107334	7	Sololá	702	San José Chacayá	5	Chacayá	7	Julio	2023-07-14T00:00:00	2024-11-06T01:00:00	7	Dirección del viento	0
107335	7	Sololá	702	San José Chacayá	5	Chacayá	7	Julio	2023-07-14T00:00:00	2024-11-06T01:00:00	1	Precipitación	1.2
107336	7	Sololá	702	San José Chacayá	5	Chacayá	7	Julio	2023-07-14T00:00:00	2024-11-06T01:00:00	8	Radiación solar	0
107337	7	Sololá	702	San José Chacayá	5	Chacayá	7	Julio	2023-07-14T00:00:00	2024-11-06T02:00:00	2	Temperatura media	13.6
107338	7	Sololá	702	San José Chacayá	5	Chacayá	7	Julio	2023-07-14T00:00:00	2024-11-06T02:00:00	4	Temperatura máxima	13.6
107339	7	Sololá	702	San José Chacayá	5	Chacayá	7	Julio	2023-07-14T00:00:00	2024-11-06T02:00:00	3	Temperatura mínima	13.4
107340	7	Sololá	702	San José Chacayá	5	Chacayá	7	Julio	2023-07-14T00:00:00	2024-11-06T02:00:00	5	Humedad	79
107341	7	Sololá	702	San José Chacayá	5	Chacayá	7	Julio	2023-07-14T00:00:00	2024-11-06T02:00:00	6	Velocidad del viento	1.6
107342	7	Sololá	702	San José Chacayá	5	Chacayá	7	Julio	2023-07-14T00:00:00	2024-11-06T02:00:00	7	Dirección del viento	1.61
107343	7	Sololá	702	San José Chacayá	5	Chacayá	7	Julio	2023-07-14T00:00:00	2024-11-06T02:00:00	1	Precipitación	2.6
107344	7	Sololá	702	San José Chacayá	5	Chacayá	7	Julio	2023-07-14T00:00:00	2024-11-06T02:00:00	8	Radiación solar	0
107345	7	Sololá	702	San José Chacayá	5	Chacayá	7	Julio	2023-07-14T00:00:00	2024-11-06T03:00:00	2	Temperatura media	12.7
107346	7	Sololá	702	San José Chacayá	5	Chacayá	7	Julio	2023-07-14T00:00:00	2024-11-06T03:00:00	4	Temperatura máxima	13.6
107347	7	Sololá	702	San José Chacayá	5	Chacayá	7	Julio	2023-07-14T00:00:00	2024-11-06T03:00:00	3	Temperatura mínima	12.7
107348	7	Sololá	702	San José Chacayá	5	Chacayá	7	Julio	2023-07-14T00:00:00	2024-11-06T03:00:00	5	Humedad	77
107349	7	Sololá	702	San José Chacayá	5	Chacayá	7	Julio	2023-07-14T00:00:00	2024-11-06T03:00:00	6	Velocidad del viento	0
107350	7	Sololá	702	San José Chacayá	5	Chacayá	7	Julio	2023-07-14T00:00:00	2024-11-06T03:00:00	7	Dirección del viento	0
107351	7	Sololá	702	San José Chacayá	5	Chacayá	7	Julio	2023-07-14T00:00:00	2024-11-06T03:00:00	1	Precipitación	0
107352	7	Sololá	702	San José Chacayá	5	Chacayá	7	Julio	2023-07-14T00:00:00	2024-11-06T03:00:00	8	Radiación solar	0
107353	7	Sololá	702	San José Chacayá	5	Chacayá	7	Julio	2023-07-14T00:00:00	2024-11-06T04:00:00	2	Temperatura media	12.3
107354	7	Sololá	702	San José Chacayá	5	Chacayá	7	Julio	2023-07-14T00:00:00	2024-11-06T04:00:00	4	Temperatura máxima	12.7
107355	7	Sololá	702	San José Chacayá	5	Chacayá	7	Julio	2023-07-14T00:00:00	2024-11-06T04:00:00	3	Temperatura mínima	12.3
107356	7	Sololá	702	San José Chacayá	5	Chacayá	7	Julio	2023-07-14T00:00:00	2024-11-06T04:00:00	5	Humedad	75
107357	7	Sololá	702	San José Chacayá	5	Chacayá	7	Julio	2023-07-14T00:00:00	2024-11-06T04:00:00	6	Velocidad del viento	1.6
107358	7	Sololá	702	San José Chacayá	5	Chacayá	7	Julio	2023-07-14T00:00:00	2024-11-06T04:00:00	7	Dirección del viento	1.61
107359	7	Sololá	702	San José Chacayá	5	Chacayá	7	Julio	2023-07-14T00:00:00	2024-11-06T04:00:00	1	Precipitación	0
107360	7	Sololá	702	San José Chacayá	5	Chacayá	7	Julio	2023-07-14T00:00:00	2024-11-06T04:00:00	8	Radiación solar	0
107361	7	Sololá	702	San José Chacayá	5	Chacayá	7	Julio	2023-07-14T00:00:00	2024-11-06T05:00:00	2	Temperatura media	12.5
107362	7	Sololá	702	San José Chacayá	5	Chacayá	7	Julio	2023-07-14T00:00:00	2024-11-06T05:00:00	4	Temperatura máxima	13
107363	7	Sololá	702	San José Chacayá	5	Chacayá	7	Julio	2023-07-14T00:00:00	2024-11-06T05:00:00	3	Temperatura mínima	12.1
107364	7	Sololá	702	San José Chacayá	5	Chacayá	7	Julio	2023-07-14T00:00:00	2024-11-06T05:00:00	5	Humedad	84
107365	7	Sololá	702	San José Chacayá	5	Chacayá	7	Julio	2023-07-14T00:00:00	2024-11-06T05:00:00	6	Velocidad del viento	1.6
107366	7	Sololá	702	San José Chacayá	5	Chacayá	7	Julio	2023-07-14T00:00:00	2024-11-06T05:00:00	7	Dirección del viento	1.61
107367	7	Sololá	702	San José Chacayá	5	Chacayá	7	Julio	2023-07-14T00:00:00	2024-11-06T05:00:00	1	Precipitación	0
107368	7	Sololá	702	San José Chacayá	5	Chacayá	7	Julio	2023-07-14T00:00:00	2024-11-06T05:00:00	8	Radiación solar	0
107369	7	Sololá	702	San José Chacayá	5	Chacayá	7	Julio	2023-07-14T00:00:00	2024-11-06T06:00:00	2	Temperatura media	13.2
107370	7	Sololá	702	San José Chacayá	5	Chacayá	7	Julio	2023-07-14T00:00:00	2024-11-06T06:00:00	4	Temperatura máxima	13.2
107371	7	Sololá	702	San José Chacayá	5	Chacayá	7	Julio	2023-07-14T00:00:00	2024-11-06T06:00:00	3	Temperatura mínima	12.2
107372	7	Sololá	702	San José Chacayá	5	Chacayá	7	Julio	2023-07-14T00:00:00	2024-11-06T06:00:00	5	Humedad	83
107373	7	Sololá	702	San José Chacayá	5	Chacayá	7	Julio	2023-07-14T00:00:00	2024-11-06T06:00:00	6	Velocidad del viento	1.6
107374	7	Sololá	702	San José Chacayá	5	Chacayá	7	Julio	2023-07-14T00:00:00	2024-11-06T06:00:00	7	Dirección del viento	1.61
107375	7	Sololá	702	San José Chacayá	5	Chacayá	7	Julio	2023-07-14T00:00:00	2024-11-06T06:00:00	1	Precipitación	0
107376	7	Sololá	702	San José Chacayá	5	Chacayá	7	Julio	2023-07-14T00:00:00	2024-11-06T06:00:00	8	Radiación solar	4
107377	7	Sololá	702	San José Chacayá	5	Chacayá	7	Julio	2023-07-14T00:00:00	2024-11-06T07:00:00	2	Temperatura media	14.7
107378	7	Sololá	702	San José Chacayá	5	Chacayá	7	Julio	2023-07-14T00:00:00	2024-11-06T07:00:00	4	Temperatura máxima	14.7
107379	7	Sololá	702	San José Chacayá	5	Chacayá	7	Julio	2023-07-14T00:00:00	2024-11-06T07:00:00	3	Temperatura mínima	13.2
107380	7	Sololá	702	San José Chacayá	5	Chacayá	7	Julio	2023-07-14T00:00:00	2024-11-06T07:00:00	5	Humedad	79
107381	7	Sololá	702	San José Chacayá	5	Chacayá	7	Julio	2023-07-14T00:00:00	2024-11-06T07:00:00	6	Velocidad del viento	3.2
107382	7	Sololá	702	San José Chacayá	5	Chacayá	7	Julio	2023-07-14T00:00:00	2024-11-06T07:00:00	7	Dirección del viento	3.22
107383	7	Sololá	702	San José Chacayá	5	Chacayá	7	Julio	2023-07-14T00:00:00	2024-11-06T07:00:00	1	Precipitación	0
107384	7	Sololá	702	San José Chacayá	5	Chacayá	7	Julio	2023-07-14T00:00:00	2024-11-06T07:00:00	8	Radiación solar	75
107385	7	Sololá	702	San José Chacayá	5	Chacayá	7	Julio	2023-07-14T00:00:00	2024-11-06T08:00:00	2	Temperatura media	16.3
107386	7	Sololá	702	San José Chacayá	5	Chacayá	7	Julio	2023-07-14T00:00:00	2024-11-06T08:00:00	4	Temperatura máxima	16.3
107387	7	Sololá	702	San José Chacayá	5	Chacayá	7	Julio	2023-07-14T00:00:00	2024-11-06T08:00:00	3	Temperatura mínima	14.7
107388	7	Sololá	702	San José Chacayá	5	Chacayá	7	Julio	2023-07-14T00:00:00	2024-11-06T08:00:00	5	Humedad	72
107389	7	Sololá	702	San José Chacayá	5	Chacayá	7	Julio	2023-07-14T00:00:00	2024-11-06T08:00:00	6	Velocidad del viento	4.8
107390	7	Sololá	702	San José Chacayá	5	Chacayá	7	Julio	2023-07-14T00:00:00	2024-11-06T08:00:00	7	Dirección del viento	4.83
107391	7	Sololá	702	San José Chacayá	5	Chacayá	7	Julio	2023-07-14T00:00:00	2024-11-06T08:00:00	1	Precipitación	0
107392	7	Sololá	702	San José Chacayá	5	Chacayá	7	Julio	2023-07-14T00:00:00	2024-11-06T08:00:00	8	Radiación solar	180
107393	7	Sololá	702	San José Chacayá	5	Chacayá	7	Julio	2023-07-14T00:00:00	2024-11-06T09:00:00	2	Temperatura media	17.3
107394	7	Sololá	702	San José Chacayá	5	Chacayá	7	Julio	2023-07-14T00:00:00	2024-11-06T09:00:00	4	Temperatura máxima	17.3
107395	7	Sololá	702	San José Chacayá	5	Chacayá	7	Julio	2023-07-14T00:00:00	2024-11-06T09:00:00	3	Temperatura mínima	16.3
107396	7	Sololá	702	San José Chacayá	5	Chacayá	7	Julio	2023-07-14T00:00:00	2024-11-06T09:00:00	5	Humedad	69
107397	7	Sololá	702	San José Chacayá	5	Chacayá	7	Julio	2023-07-14T00:00:00	2024-11-06T09:00:00	6	Velocidad del viento	4.8
107398	7	Sololá	702	San José Chacayá	5	Chacayá	7	Julio	2023-07-14T00:00:00	2024-11-06T09:00:00	7	Dirección del viento	4.83
107399	7	Sololá	702	San José Chacayá	5	Chacayá	7	Julio	2023-07-14T00:00:00	2024-11-06T09:00:00	1	Precipitación	0
107400	7	Sololá	702	San José Chacayá	5	Chacayá	7	Julio	2023-07-14T00:00:00	2024-11-06T09:00:00	8	Radiación solar	349
107401	7	Sololá	702	San José Chacayá	5	Chacayá	7	Julio	2023-07-14T00:00:00	2024-11-06T10:00:00	2	Temperatura media	20.6
107402	7	Sololá	702	San José Chacayá	5	Chacayá	7	Julio	2023-07-14T00:00:00	2024-11-06T10:00:00	4	Temperatura máxima	20.7
107403	7	Sololá	702	San José Chacayá	5	Chacayá	7	Julio	2023-07-14T00:00:00	2024-11-06T10:00:00	3	Temperatura mínima	17.3
107404	7	Sololá	702	San José Chacayá	5	Chacayá	7	Julio	2023-07-14T00:00:00	2024-11-06T10:00:00	5	Humedad	57
107405	7	Sololá	702	San José Chacayá	5	Chacayá	7	Julio	2023-07-14T00:00:00	2024-11-06T10:00:00	6	Velocidad del viento	4.8
107406	7	Sololá	702	San José Chacayá	5	Chacayá	7	Julio	2023-07-14T00:00:00	2024-11-06T10:00:00	7	Dirección del viento	4.83
107407	7	Sololá	702	San José Chacayá	5	Chacayá	7	Julio	2023-07-14T00:00:00	2024-11-06T10:00:00	1	Precipitación	0
107408	7	Sololá	702	San José Chacayá	5	Chacayá	7	Julio	2023-07-14T00:00:00	2024-11-06T10:00:00	8	Radiación solar	736
107409	7	Sololá	702	San José Chacayá	5	Chacayá	7	Julio	2023-07-14T00:00:00	2024-11-06T11:00:00	2	Temperatura media	19.7
107410	7	Sololá	702	San José Chacayá	5	Chacayá	7	Julio	2023-07-14T00:00:00	2024-11-06T11:00:00	4	Temperatura máxima	20.6
107411	7	Sololá	702	San José Chacayá	5	Chacayá	7	Julio	2023-07-14T00:00:00	2024-11-06T11:00:00	3	Temperatura mínima	19.4
107412	7	Sololá	702	San José Chacayá	5	Chacayá	7	Julio	2023-07-14T00:00:00	2024-11-06T11:00:00	5	Humedad	62
107413	7	Sololá	702	San José Chacayá	5	Chacayá	7	Julio	2023-07-14T00:00:00	2024-11-06T11:00:00	6	Velocidad del viento	6.4
107414	7	Sololá	702	San José Chacayá	5	Chacayá	7	Julio	2023-07-14T00:00:00	2024-11-06T11:00:00	7	Dirección del viento	6.44
107415	7	Sololá	702	San José Chacayá	5	Chacayá	7	Julio	2023-07-14T00:00:00	2024-11-06T11:00:00	1	Precipitación	0
107416	7	Sololá	702	San José Chacayá	5	Chacayá	7	Julio	2023-07-14T00:00:00	2024-11-06T11:00:00	8	Radiación solar	766
107417	7	Sololá	702	San José Chacayá	5	Chacayá	7	Julio	2023-07-14T00:00:00	2024-11-06T12:00:00	2	Temperatura media	20.9
107418	7	Sololá	702	San José Chacayá	5	Chacayá	7	Julio	2023-07-14T00:00:00	2024-11-06T12:00:00	4	Temperatura máxima	20.9
107419	7	Sololá	702	San José Chacayá	5	Chacayá	7	Julio	2023-07-14T00:00:00	2024-11-06T12:00:00	3	Temperatura mínima	19.7
107420	7	Sololá	702	San José Chacayá	5	Chacayá	7	Julio	2023-07-14T00:00:00	2024-11-06T12:00:00	5	Humedad	58
107421	7	Sololá	702	San José Chacayá	5	Chacayá	7	Julio	2023-07-14T00:00:00	2024-11-06T12:00:00	6	Velocidad del viento	6.4
107422	7	Sololá	702	San José Chacayá	5	Chacayá	7	Julio	2023-07-14T00:00:00	2024-11-06T12:00:00	7	Dirección del viento	6.44
107423	7	Sololá	702	San José Chacayá	5	Chacayá	7	Julio	2023-07-14T00:00:00	2024-11-06T12:00:00	1	Precipitación	0
107424	7	Sololá	702	San José Chacayá	5	Chacayá	7	Julio	2023-07-14T00:00:00	2024-11-06T12:00:00	8	Radiación solar	799
107425	7	Sololá	702	San José Chacayá	5	Chacayá	7	Julio	2023-07-14T00:00:00	2024-11-06T13:00:00	2	Temperatura media	21.9
107426	7	Sololá	702	San José Chacayá	5	Chacayá	7	Julio	2023-07-14T00:00:00	2024-11-06T13:00:00	4	Temperatura máxima	22.3
107427	7	Sololá	702	San José Chacayá	5	Chacayá	7	Julio	2023-07-14T00:00:00	2024-11-06T13:00:00	3	Temperatura mínima	20.9
107428	7	Sololá	702	San José Chacayá	5	Chacayá	7	Julio	2023-07-14T00:00:00	2024-11-06T13:00:00	5	Humedad	55
107429	7	Sololá	702	San José Chacayá	5	Chacayá	7	Julio	2023-07-14T00:00:00	2024-11-06T13:00:00	6	Velocidad del viento	6.4
107430	7	Sololá	702	San José Chacayá	5	Chacayá	7	Julio	2023-07-14T00:00:00	2024-11-06T13:00:00	7	Dirección del viento	6.44
107431	7	Sololá	702	San José Chacayá	5	Chacayá	7	Julio	2023-07-14T00:00:00	2024-11-06T13:00:00	1	Precipitación	0
107432	7	Sololá	702	San José Chacayá	5	Chacayá	7	Julio	2023-07-14T00:00:00	2024-11-06T13:00:00	8	Radiación solar	961
107433	7	Sololá	702	San José Chacayá	5	Chacayá	7	Julio	2023-07-14T00:00:00	2024-11-06T14:00:00	2	Temperatura media	22.4
107434	7	Sololá	702	San José Chacayá	5	Chacayá	7	Julio	2023-07-14T00:00:00	2024-11-06T14:00:00	4	Temperatura máxima	22.6
107435	7	Sololá	702	San José Chacayá	5	Chacayá	7	Julio	2023-07-14T00:00:00	2024-11-06T14:00:00	3	Temperatura mínima	21.7
107436	7	Sololá	702	San José Chacayá	5	Chacayá	7	Julio	2023-07-14T00:00:00	2024-11-06T14:00:00	5	Humedad	57
107437	7	Sololá	702	San José Chacayá	5	Chacayá	7	Julio	2023-07-14T00:00:00	2024-11-06T14:00:00	6	Velocidad del viento	6.4
107438	7	Sololá	702	San José Chacayá	5	Chacayá	7	Julio	2023-07-14T00:00:00	2024-11-06T14:00:00	7	Dirección del viento	6.44
107439	7	Sololá	702	San José Chacayá	5	Chacayá	7	Julio	2023-07-14T00:00:00	2024-11-06T14:00:00	1	Precipitación	0
107440	7	Sololá	702	San José Chacayá	5	Chacayá	7	Julio	2023-07-14T00:00:00	2024-11-06T14:00:00	8	Radiación solar	957
107441	7	Sololá	702	San José Chacayá	5	Chacayá	7	Julio	2023-07-14T00:00:00	2024-11-06T15:00:00	2	Temperatura media	21
107442	7	Sololá	702	San José Chacayá	5	Chacayá	7	Julio	2023-07-14T00:00:00	2024-11-06T15:00:00	4	Temperatura máxima	22.4
107443	7	Sololá	702	San José Chacayá	5	Chacayá	7	Julio	2023-07-14T00:00:00	2024-11-06T15:00:00	3	Temperatura mínima	21
107444	7	Sololá	702	San José Chacayá	5	Chacayá	7	Julio	2023-07-14T00:00:00	2024-11-06T15:00:00	5	Humedad	62
107445	7	Sololá	702	San José Chacayá	5	Chacayá	7	Julio	2023-07-14T00:00:00	2024-11-06T15:00:00	6	Velocidad del viento	4.8
107446	7	Sololá	702	San José Chacayá	5	Chacayá	7	Julio	2023-07-14T00:00:00	2024-11-06T15:00:00	7	Dirección del viento	4.83
107447	7	Sololá	702	San José Chacayá	5	Chacayá	7	Julio	2023-07-14T00:00:00	2024-11-06T15:00:00	1	Precipitación	0
107448	7	Sololá	702	San José Chacayá	5	Chacayá	7	Julio	2023-07-14T00:00:00	2024-11-06T15:00:00	8	Radiación solar	633
107449	7	Sololá	702	San José Chacayá	5	Chacayá	7	Julio	2023-07-14T00:00:00	2024-11-06T16:00:00	2	Temperatura media	20.1
107450	7	Sololá	702	San José Chacayá	5	Chacayá	7	Julio	2023-07-14T00:00:00	2024-11-06T16:00:00	4	Temperatura máxima	21.4
107451	7	Sololá	702	San José Chacayá	5	Chacayá	7	Julio	2023-07-14T00:00:00	2024-11-06T16:00:00	3	Temperatura mínima	20.1
107452	7	Sololá	702	San José Chacayá	5	Chacayá	7	Julio	2023-07-14T00:00:00	2024-11-06T16:00:00	5	Humedad	63
107453	7	Sololá	702	San José Chacayá	5	Chacayá	7	Julio	2023-07-14T00:00:00	2024-11-06T16:00:00	6	Velocidad del viento	4.8
107454	7	Sololá	702	San José Chacayá	5	Chacayá	7	Julio	2023-07-14T00:00:00	2024-11-06T16:00:00	7	Dirección del viento	4.83
107455	7	Sololá	702	San José Chacayá	5	Chacayá	7	Julio	2023-07-14T00:00:00	2024-11-06T16:00:00	1	Precipitación	0
107456	7	Sololá	702	San José Chacayá	5	Chacayá	7	Julio	2023-07-14T00:00:00	2024-11-06T16:00:00	8	Radiación solar	372
107457	7	Sololá	702	San José Chacayá	5	Chacayá	7	Julio	2023-07-14T00:00:00	2024-11-06T17:00:00	2	Temperatura media	18.8
107458	7	Sololá	702	San José Chacayá	5	Chacayá	7	Julio	2023-07-14T00:00:00	2024-11-06T17:00:00	4	Temperatura máxima	20.1
107459	7	Sololá	702	San José Chacayá	5	Chacayá	7	Julio	2023-07-14T00:00:00	2024-11-06T17:00:00	3	Temperatura mínima	18.8
107460	7	Sololá	702	San José Chacayá	5	Chacayá	7	Julio	2023-07-14T00:00:00	2024-11-06T17:00:00	5	Humedad	64
107461	7	Sololá	702	San José Chacayá	5	Chacayá	7	Julio	2023-07-14T00:00:00	2024-11-06T17:00:00	6	Velocidad del viento	4.8
107462	7	Sololá	702	San José Chacayá	5	Chacayá	7	Julio	2023-07-14T00:00:00	2024-11-06T17:00:00	7	Dirección del viento	4.83
107463	7	Sololá	702	San José Chacayá	5	Chacayá	7	Julio	2023-07-14T00:00:00	2024-11-06T17:00:00	1	Precipitación	0
107464	7	Sololá	702	San José Chacayá	5	Chacayá	7	Julio	2023-07-14T00:00:00	2024-11-06T17:00:00	8	Radiación solar	201
107465	7	Sololá	702	San José Chacayá	5	Chacayá	7	Julio	2023-07-14T00:00:00	2024-11-06T18:00:00	2	Temperatura media	18.6
107466	7	Sololá	702	San José Chacayá	5	Chacayá	7	Julio	2023-07-14T00:00:00	2024-11-06T18:00:00	4	Temperatura máxima	18.8
107467	7	Sololá	702	San José Chacayá	5	Chacayá	7	Julio	2023-07-14T00:00:00	2024-11-06T18:00:00	3	Temperatura mínima	18.6
107468	7	Sololá	702	San José Chacayá	5	Chacayá	7	Julio	2023-07-14T00:00:00	2024-11-06T18:00:00	5	Humedad	70
107469	7	Sololá	702	San José Chacayá	5	Chacayá	7	Julio	2023-07-14T00:00:00	2024-11-06T18:00:00	6	Velocidad del viento	3.2
107470	7	Sololá	702	San José Chacayá	5	Chacayá	7	Julio	2023-07-14T00:00:00	2024-11-06T18:00:00	7	Dirección del viento	3.22
107471	7	Sololá	702	San José Chacayá	5	Chacayá	7	Julio	2023-07-14T00:00:00	2024-11-06T18:00:00	1	Precipitación	0
107472	7	Sololá	702	San José Chacayá	5	Chacayá	7	Julio	2023-07-14T00:00:00	2024-11-06T18:00:00	8	Radiación solar	98
107473	7	Sololá	702	San José Chacayá	5	Chacayá	7	Julio	2023-07-14T00:00:00	2024-11-06T19:00:00	2	Temperatura media	17
107474	7	Sololá	702	San José Chacayá	5	Chacayá	7	Julio	2023-07-14T00:00:00	2024-11-06T19:00:00	4	Temperatura máxima	18.6
107475	7	Sololá	702	San José Chacayá	5	Chacayá	7	Julio	2023-07-14T00:00:00	2024-11-06T19:00:00	3	Temperatura mínima	17
107476	7	Sololá	702	San José Chacayá	5	Chacayá	7	Julio	2023-07-14T00:00:00	2024-11-06T19:00:00	5	Humedad	77
107477	7	Sololá	702	San José Chacayá	5	Chacayá	7	Julio	2023-07-14T00:00:00	2024-11-06T19:00:00	6	Velocidad del viento	3.2
107478	7	Sololá	702	San José Chacayá	5	Chacayá	7	Julio	2023-07-14T00:00:00	2024-11-06T19:00:00	7	Dirección del viento	3.22
107479	7	Sololá	702	San José Chacayá	5	Chacayá	7	Julio	2023-07-14T00:00:00	2024-11-06T19:00:00	1	Precipitación	0
107480	7	Sololá	702	San José Chacayá	5	Chacayá	7	Julio	2023-07-14T00:00:00	2024-11-06T19:00:00	8	Radiación solar	0
107481	7	Sololá	702	San José Chacayá	5	Chacayá	7	Julio	2023-07-14T00:00:00	2024-11-06T20:00:00	2	Temperatura media	16.3
107482	7	Sololá	702	San José Chacayá	5	Chacayá	7	Julio	2023-07-14T00:00:00	2024-11-06T20:00:00	4	Temperatura máxima	17
107483	7	Sololá	702	San José Chacayá	5	Chacayá	7	Julio	2023-07-14T00:00:00	2024-11-06T20:00:00	3	Temperatura mínima	16.3
107484	7	Sololá	702	San José Chacayá	5	Chacayá	7	Julio	2023-07-14T00:00:00	2024-11-06T20:00:00	5	Humedad	77
107485	7	Sololá	702	San José Chacayá	5	Chacayá	7	Julio	2023-07-14T00:00:00	2024-11-06T20:00:00	6	Velocidad del viento	3.2
107486	7	Sololá	702	San José Chacayá	5	Chacayá	7	Julio	2023-07-14T00:00:00	2024-11-06T20:00:00	7	Dirección del viento	3.22
107487	7	Sololá	702	San José Chacayá	5	Chacayá	7	Julio	2023-07-14T00:00:00	2024-11-06T20:00:00	1	Precipitación	0
107488	7	Sololá	702	San José Chacayá	5	Chacayá	7	Julio	2023-07-14T00:00:00	2024-11-06T20:00:00	8	Radiación solar	0
107489	7	Sololá	702	San José Chacayá	5	Chacayá	7	Julio	2023-07-14T00:00:00	2024-11-06T21:00:00	2	Temperatura media	16.3
107490	7	Sololá	702	San José Chacayá	5	Chacayá	7	Julio	2023-07-14T00:00:00	2024-11-06T21:00:00	4	Temperatura máxima	16.4
107491	7	Sololá	702	San José Chacayá	5	Chacayá	7	Julio	2023-07-14T00:00:00	2024-11-06T21:00:00	3	Temperatura mínima	15.9
107492	7	Sololá	702	San José Chacayá	5	Chacayá	7	Julio	2023-07-14T00:00:00	2024-11-06T21:00:00	5	Humedad	78
107493	7	Sololá	702	San José Chacayá	5	Chacayá	7	Julio	2023-07-14T00:00:00	2024-11-06T21:00:00	6	Velocidad del viento	1.6
107494	7	Sololá	702	San José Chacayá	5	Chacayá	7	Julio	2023-07-14T00:00:00	2024-11-06T21:00:00	7	Dirección del viento	1.61
107495	7	Sololá	702	San José Chacayá	5	Chacayá	7	Julio	2023-07-14T00:00:00	2024-11-06T21:00:00	1	Precipitación	0
107496	7	Sololá	702	San José Chacayá	5	Chacayá	7	Julio	2023-07-14T00:00:00	2024-11-06T21:00:00	8	Radiación solar	0
107497	7	Sololá	702	San José Chacayá	5	Chacayá	7	Julio	2023-07-14T00:00:00	2024-11-06T22:00:00	2	Temperatura media	15.8
107498	7	Sololá	702	San José Chacayá	5	Chacayá	7	Julio	2023-07-14T00:00:00	2024-11-06T22:00:00	4	Temperatura máxima	16.3
107499	7	Sololá	702	San José Chacayá	5	Chacayá	7	Julio	2023-07-14T00:00:00	2024-11-06T22:00:00	3	Temperatura mínima	15.8
107500	7	Sololá	702	San José Chacayá	5	Chacayá	7	Julio	2023-07-14T00:00:00	2024-11-06T22:00:00	5	Humedad	78
107501	7	Sololá	702	San José Chacayá	5	Chacayá	7	Julio	2023-07-14T00:00:00	2024-11-06T22:00:00	6	Velocidad del viento	4.8
107502	7	Sololá	702	San José Chacayá	5	Chacayá	7	Julio	2023-07-14T00:00:00	2024-11-06T22:00:00	7	Dirección del viento	4.83
107503	7	Sololá	702	San José Chacayá	5	Chacayá	7	Julio	2023-07-14T00:00:00	2024-11-06T22:00:00	1	Precipitación	0
107504	7	Sololá	702	San José Chacayá	5	Chacayá	7	Julio	2023-07-14T00:00:00	2024-11-06T22:00:00	8	Radiación solar	0
107505	7	Sololá	702	San José Chacayá	5	Chacayá	7	Julio	2023-07-14T00:00:00	2024-11-06T23:00:00	2	Temperatura media	15.5
107506	7	Sololá	702	San José Chacayá	5	Chacayá	7	Julio	2023-07-14T00:00:00	2024-11-06T23:00:00	4	Temperatura máxima	15.8
107507	7	Sololá	702	San José Chacayá	5	Chacayá	7	Julio	2023-07-14T00:00:00	2024-11-06T23:00:00	3	Temperatura mínima	15.1
107508	7	Sololá	702	San José Chacayá	5	Chacayá	7	Julio	2023-07-14T00:00:00	2024-11-06T23:00:00	5	Humedad	76
107509	7	Sololá	702	San José Chacayá	5	Chacayá	7	Julio	2023-07-14T00:00:00	2024-11-06T23:00:00	6	Velocidad del viento	4.8
107510	7	Sololá	702	San José Chacayá	5	Chacayá	7	Julio	2023-07-14T00:00:00	2024-11-06T23:00:00	7	Dirección del viento	4.83
107511	7	Sololá	702	San José Chacayá	5	Chacayá	7	Julio	2023-07-14T00:00:00	2024-11-06T23:00:00	1	Precipitación	0
107512	7	Sololá	702	San José Chacayá	5	Chacayá	7	Julio	2023-07-14T00:00:00	2024-11-06T23:00:00	8	Radiación solar	0
107513	7	Sololá	702	San José Chacayá	5	Chacayá	7	Julio	2023-07-15T00:00:00	2024-11-06T00:00:00	2	Temperatura media	15.3
107514	7	Sololá	702	San José Chacayá	5	Chacayá	7	Julio	2023-07-15T00:00:00	2024-11-06T00:00:00	4	Temperatura máxima	15.6
107515	7	Sololá	702	San José Chacayá	5	Chacayá	7	Julio	2023-07-15T00:00:00	2024-11-06T00:00:00	3	Temperatura mínima	15.3
107516	7	Sololá	702	San José Chacayá	5	Chacayá	7	Julio	2023-07-15T00:00:00	2024-11-06T00:00:00	5	Humedad	77
107517	7	Sololá	702	San José Chacayá	5	Chacayá	7	Julio	2023-07-15T00:00:00	2024-11-06T00:00:00	6	Velocidad del viento	4.8
107518	7	Sololá	702	San José Chacayá	5	Chacayá	7	Julio	2023-07-15T00:00:00	2024-11-06T00:00:00	7	Dirección del viento	4.83
107519	7	Sololá	702	San José Chacayá	5	Chacayá	7	Julio	2023-07-15T00:00:00	2024-11-06T00:00:00	1	Precipitación	0
107520	7	Sololá	702	San José Chacayá	5	Chacayá	7	Julio	2023-07-15T00:00:00	2024-11-06T00:00:00	8	Radiación solar	0
107521	7	Sololá	702	San José Chacayá	5	Chacayá	7	Julio	2023-07-15T00:00:00	2024-11-06T01:00:00	2	Temperatura media	15.6
107522	7	Sololá	702	San José Chacayá	5	Chacayá	7	Julio	2023-07-15T00:00:00	2024-11-06T01:00:00	4	Temperatura máxima	15.7
107523	7	Sololá	702	San José Chacayá	5	Chacayá	7	Julio	2023-07-15T00:00:00	2024-11-06T01:00:00	3	Temperatura mínima	15.1
107524	7	Sololá	702	San José Chacayá	5	Chacayá	7	Julio	2023-07-15T00:00:00	2024-11-06T01:00:00	5	Humedad	74
107525	7	Sololá	702	San José Chacayá	5	Chacayá	7	Julio	2023-07-15T00:00:00	2024-11-06T01:00:00	6	Velocidad del viento	4.8
107526	7	Sololá	702	San José Chacayá	5	Chacayá	7	Julio	2023-07-15T00:00:00	2024-11-06T01:00:00	7	Dirección del viento	4.83
107527	7	Sololá	702	San José Chacayá	5	Chacayá	7	Julio	2023-07-15T00:00:00	2024-11-06T01:00:00	1	Precipitación	0
107528	7	Sololá	702	San José Chacayá	5	Chacayá	7	Julio	2023-07-15T00:00:00	2024-11-06T01:00:00	8	Radiación solar	0
107529	7	Sololá	702	San José Chacayá	5	Chacayá	7	Julio	2023-07-15T00:00:00	2024-11-06T02:00:00	2	Temperatura media	15
107530	7	Sololá	702	San José Chacayá	5	Chacayá	7	Julio	2023-07-15T00:00:00	2024-11-06T02:00:00	4	Temperatura máxima	15.6
107531	7	Sololá	702	San José Chacayá	5	Chacayá	7	Julio	2023-07-15T00:00:00	2024-11-06T02:00:00	3	Temperatura mínima	15
107532	7	Sololá	702	San José Chacayá	5	Chacayá	7	Julio	2023-07-15T00:00:00	2024-11-06T02:00:00	5	Humedad	76
107533	7	Sololá	702	San José Chacayá	5	Chacayá	7	Julio	2023-07-15T00:00:00	2024-11-06T02:00:00	6	Velocidad del viento	3.2
107534	7	Sololá	702	San José Chacayá	5	Chacayá	7	Julio	2023-07-15T00:00:00	2024-11-06T02:00:00	7	Dirección del viento	3.22
107535	7	Sololá	702	San José Chacayá	5	Chacayá	7	Julio	2023-07-15T00:00:00	2024-11-06T02:00:00	1	Precipitación	0
107536	7	Sololá	702	San José Chacayá	5	Chacayá	7	Julio	2023-07-15T00:00:00	2024-11-06T02:00:00	8	Radiación solar	0
107537	7	Sololá	702	San José Chacayá	5	Chacayá	7	Julio	2023-07-15T00:00:00	2024-11-06T03:00:00	2	Temperatura media	14.8
107538	7	Sololá	702	San José Chacayá	5	Chacayá	7	Julio	2023-07-15T00:00:00	2024-11-06T03:00:00	4	Temperatura máxima	15.3
107539	7	Sololá	702	San José Chacayá	5	Chacayá	7	Julio	2023-07-15T00:00:00	2024-11-06T03:00:00	3	Temperatura mínima	14.8
107540	7	Sololá	702	San José Chacayá	5	Chacayá	7	Julio	2023-07-15T00:00:00	2024-11-06T03:00:00	5	Humedad	78
107541	7	Sololá	702	San José Chacayá	5	Chacayá	7	Julio	2023-07-15T00:00:00	2024-11-06T03:00:00	6	Velocidad del viento	3.2
107542	7	Sololá	702	San José Chacayá	5	Chacayá	7	Julio	2023-07-15T00:00:00	2024-11-06T03:00:00	7	Dirección del viento	3.22
107543	7	Sololá	702	San José Chacayá	5	Chacayá	7	Julio	2023-07-15T00:00:00	2024-11-06T03:00:00	1	Precipitación	0
107544	7	Sololá	702	San José Chacayá	5	Chacayá	7	Julio	2023-07-15T00:00:00	2024-11-06T03:00:00	8	Radiación solar	0
107545	7	Sololá	702	San José Chacayá	5	Chacayá	7	Julio	2023-07-15T00:00:00	2024-11-06T04:00:00	2	Temperatura media	14.3
107546	7	Sololá	702	San José Chacayá	5	Chacayá	7	Julio	2023-07-15T00:00:00	2024-11-06T04:00:00	4	Temperatura máxima	14.8
107547	7	Sololá	702	San José Chacayá	5	Chacayá	7	Julio	2023-07-15T00:00:00	2024-11-06T04:00:00	3	Temperatura mínima	14.1
107548	7	Sololá	702	San José Chacayá	5	Chacayá	7	Julio	2023-07-15T00:00:00	2024-11-06T04:00:00	5	Humedad	82
107549	7	Sololá	702	San José Chacayá	5	Chacayá	7	Julio	2023-07-15T00:00:00	2024-11-06T04:00:00	6	Velocidad del viento	1.6
107550	7	Sololá	702	San José Chacayá	5	Chacayá	7	Julio	2023-07-15T00:00:00	2024-11-06T04:00:00	7	Dirección del viento	1.61
107551	7	Sololá	702	San José Chacayá	5	Chacayá	7	Julio	2023-07-15T00:00:00	2024-11-06T04:00:00	1	Precipitación	0
107552	7	Sololá	702	San José Chacayá	5	Chacayá	7	Julio	2023-07-15T00:00:00	2024-11-06T04:00:00	8	Radiación solar	0
107553	7	Sololá	702	San José Chacayá	5	Chacayá	7	Julio	2023-07-15T00:00:00	2024-11-06T05:00:00	2	Temperatura media	14.8
107554	7	Sololá	702	San José Chacayá	5	Chacayá	7	Julio	2023-07-15T00:00:00	2024-11-06T05:00:00	4	Temperatura máxima	14.9
107555	7	Sololá	702	San José Chacayá	5	Chacayá	7	Julio	2023-07-15T00:00:00	2024-11-06T05:00:00	3	Temperatura mínima	14.3
107556	7	Sololá	702	San José Chacayá	5	Chacayá	7	Julio	2023-07-15T00:00:00	2024-11-06T05:00:00	5	Humedad	81
107557	7	Sololá	702	San José Chacayá	5	Chacayá	7	Julio	2023-07-15T00:00:00	2024-11-06T05:00:00	6	Velocidad del viento	3.2
107558	7	Sololá	702	San José Chacayá	5	Chacayá	7	Julio	2023-07-15T00:00:00	2024-11-06T05:00:00	7	Dirección del viento	3.22
107559	7	Sololá	702	San José Chacayá	5	Chacayá	7	Julio	2023-07-15T00:00:00	2024-11-06T05:00:00	1	Precipitación	0
107560	7	Sololá	702	San José Chacayá	5	Chacayá	7	Julio	2023-07-15T00:00:00	2024-11-06T05:00:00	8	Radiación solar	0
107561	7	Sololá	702	San José Chacayá	5	Chacayá	7	Julio	2023-07-15T00:00:00	2024-11-06T06:00:00	2	Temperatura media	14.3
107562	7	Sololá	702	San José Chacayá	5	Chacayá	7	Julio	2023-07-15T00:00:00	2024-11-06T06:00:00	4	Temperatura máxima	14.8
107563	7	Sololá	702	San José Chacayá	5	Chacayá	7	Julio	2023-07-15T00:00:00	2024-11-06T06:00:00	3	Temperatura mínima	14.3
107564	7	Sololá	702	San José Chacayá	5	Chacayá	7	Julio	2023-07-15T00:00:00	2024-11-06T06:00:00	5	Humedad	82
107565	7	Sololá	702	San José Chacayá	5	Chacayá	7	Julio	2023-07-15T00:00:00	2024-11-06T06:00:00	6	Velocidad del viento	1.6
107566	7	Sololá	702	San José Chacayá	5	Chacayá	7	Julio	2023-07-15T00:00:00	2024-11-06T06:00:00	7	Dirección del viento	1.61
107567	7	Sololá	702	San José Chacayá	5	Chacayá	7	Julio	2023-07-15T00:00:00	2024-11-06T06:00:00	1	Precipitación	0
107568	7	Sololá	702	San José Chacayá	5	Chacayá	7	Julio	2023-07-15T00:00:00	2024-11-06T06:00:00	8	Radiación solar	3
107569	7	Sololá	702	San José Chacayá	5	Chacayá	7	Julio	2023-07-15T00:00:00	2024-11-06T07:00:00	2	Temperatura media	14.7
107570	7	Sololá	702	San José Chacayá	5	Chacayá	7	Julio	2023-07-15T00:00:00	2024-11-06T07:00:00	4	Temperatura máxima	14.7
107571	7	Sololá	702	San José Chacayá	5	Chacayá	7	Julio	2023-07-15T00:00:00	2024-11-06T07:00:00	3	Temperatura mínima	13.9
107572	7	Sololá	702	San José Chacayá	5	Chacayá	7	Julio	2023-07-15T00:00:00	2024-11-06T07:00:00	5	Humedad	83
107573	7	Sololá	702	San José Chacayá	5	Chacayá	7	Julio	2023-07-15T00:00:00	2024-11-06T07:00:00	6	Velocidad del viento	1.6
107574	7	Sololá	702	San José Chacayá	5	Chacayá	7	Julio	2023-07-15T00:00:00	2024-11-06T07:00:00	7	Dirección del viento	1.61
107575	7	Sololá	702	San José Chacayá	5	Chacayá	7	Julio	2023-07-15T00:00:00	2024-11-06T07:00:00	1	Precipitación	0
107576	7	Sololá	702	San José Chacayá	5	Chacayá	7	Julio	2023-07-15T00:00:00	2024-11-06T07:00:00	8	Radiación solar	49
107577	7	Sololá	702	San José Chacayá	5	Chacayá	7	Julio	2023-07-15T00:00:00	2024-11-06T08:00:00	2	Temperatura media	16.7
107578	7	Sololá	702	San José Chacayá	5	Chacayá	7	Julio	2023-07-15T00:00:00	2024-11-06T08:00:00	4	Temperatura máxima	16.7
107579	7	Sololá	702	San José Chacayá	5	Chacayá	7	Julio	2023-07-15T00:00:00	2024-11-06T08:00:00	3	Temperatura mínima	14.7
107580	7	Sololá	702	San José Chacayá	5	Chacayá	7	Julio	2023-07-15T00:00:00	2024-11-06T08:00:00	5	Humedad	79
107581	7	Sololá	702	San José Chacayá	5	Chacayá	7	Julio	2023-07-15T00:00:00	2024-11-06T08:00:00	6	Velocidad del viento	1.6
107582	7	Sololá	702	San José Chacayá	5	Chacayá	7	Julio	2023-07-15T00:00:00	2024-11-06T08:00:00	7	Dirección del viento	1.61
107583	7	Sololá	702	San José Chacayá	5	Chacayá	7	Julio	2023-07-15T00:00:00	2024-11-06T08:00:00	1	Precipitación	0
107584	7	Sololá	702	San José Chacayá	5	Chacayá	7	Julio	2023-07-15T00:00:00	2024-11-06T08:00:00	8	Radiación solar	168
107585	7	Sololá	702	San José Chacayá	5	Chacayá	7	Julio	2023-07-15T00:00:00	2024-11-06T09:00:00	2	Temperatura media	18.4
107586	7	Sololá	702	San José Chacayá	5	Chacayá	7	Julio	2023-07-15T00:00:00	2024-11-06T09:00:00	4	Temperatura máxima	18.4
107587	7	Sololá	702	San José Chacayá	5	Chacayá	7	Julio	2023-07-15T00:00:00	2024-11-06T09:00:00	3	Temperatura mínima	16.7
107588	7	Sololá	702	San José Chacayá	5	Chacayá	7	Julio	2023-07-15T00:00:00	2024-11-06T09:00:00	5	Humedad	71
107589	7	Sololá	702	San José Chacayá	5	Chacayá	7	Julio	2023-07-15T00:00:00	2024-11-06T09:00:00	6	Velocidad del viento	3.2
107590	7	Sololá	702	San José Chacayá	5	Chacayá	7	Julio	2023-07-15T00:00:00	2024-11-06T09:00:00	7	Dirección del viento	3.22
107591	7	Sololá	702	San José Chacayá	5	Chacayá	7	Julio	2023-07-15T00:00:00	2024-11-06T09:00:00	1	Precipitación	0
107592	7	Sololá	702	San José Chacayá	5	Chacayá	7	Julio	2023-07-15T00:00:00	2024-11-06T09:00:00	8	Radiación solar	321
107593	7	Sololá	702	San José Chacayá	5	Chacayá	7	Julio	2023-07-15T00:00:00	2024-11-06T10:00:00	2	Temperatura media	20.3
107594	7	Sololá	702	San José Chacayá	5	Chacayá	7	Julio	2023-07-15T00:00:00	2024-11-06T10:00:00	4	Temperatura máxima	20.4
107595	7	Sololá	702	San José Chacayá	5	Chacayá	7	Julio	2023-07-15T00:00:00	2024-11-06T10:00:00	3	Temperatura mínima	18.4
107596	7	Sololá	702	San José Chacayá	5	Chacayá	7	Julio	2023-07-15T00:00:00	2024-11-06T10:00:00	5	Humedad	63
107597	7	Sololá	702	San José Chacayá	5	Chacayá	7	Julio	2023-07-15T00:00:00	2024-11-06T10:00:00	6	Velocidad del viento	3.2
107598	7	Sololá	702	San José Chacayá	5	Chacayá	7	Julio	2023-07-15T00:00:00	2024-11-06T10:00:00	7	Dirección del viento	3.22
107599	7	Sololá	702	San José Chacayá	5	Chacayá	7	Julio	2023-07-15T00:00:00	2024-11-06T10:00:00	1	Precipitación	0
107600	7	Sololá	702	San José Chacayá	5	Chacayá	7	Julio	2023-07-15T00:00:00	2024-11-06T10:00:00	8	Radiación solar	511
107601	7	Sololá	702	San José Chacayá	5	Chacayá	7	Julio	2023-07-15T00:00:00	2024-11-06T11:00:00	2	Temperatura media	20.4
107602	7	Sololá	702	San José Chacayá	5	Chacayá	7	Julio	2023-07-15T00:00:00	2024-11-06T11:00:00	4	Temperatura máxima	21.2
107603	7	Sololá	702	San José Chacayá	5	Chacayá	7	Julio	2023-07-15T00:00:00	2024-11-06T11:00:00	3	Temperatura mínima	20.1
107604	7	Sololá	702	San José Chacayá	5	Chacayá	7	Julio	2023-07-15T00:00:00	2024-11-06T11:00:00	5	Humedad	63
107605	7	Sololá	702	San José Chacayá	5	Chacayá	7	Julio	2023-07-15T00:00:00	2024-11-06T11:00:00	6	Velocidad del viento	4.8
107606	7	Sololá	702	San José Chacayá	5	Chacayá	7	Julio	2023-07-15T00:00:00	2024-11-06T11:00:00	7	Dirección del viento	4.83
107607	7	Sololá	702	San José Chacayá	5	Chacayá	7	Julio	2023-07-15T00:00:00	2024-11-06T11:00:00	1	Precipitación	0
107608	7	Sololá	702	San José Chacayá	5	Chacayá	7	Julio	2023-07-15T00:00:00	2024-11-06T11:00:00	8	Radiación solar	643
107609	7	Sololá	702	San José Chacayá	5	Chacayá	7	Julio	2023-07-15T00:00:00	2024-11-06T12:00:00	2	Temperatura media	20.1
107610	7	Sololá	702	San José Chacayá	5	Chacayá	7	Julio	2023-07-15T00:00:00	2024-11-06T12:00:00	4	Temperatura máxima	21.1
107611	7	Sololá	702	San José Chacayá	5	Chacayá	7	Julio	2023-07-15T00:00:00	2024-11-06T12:00:00	3	Temperatura mínima	20.1
107612	7	Sololá	702	San José Chacayá	5	Chacayá	7	Julio	2023-07-15T00:00:00	2024-11-06T12:00:00	5	Humedad	64
107613	7	Sololá	702	San José Chacayá	5	Chacayá	7	Julio	2023-07-15T00:00:00	2024-11-06T12:00:00	6	Velocidad del viento	4.8
107614	7	Sololá	702	San José Chacayá	5	Chacayá	7	Julio	2023-07-15T00:00:00	2024-11-06T12:00:00	7	Dirección del viento	4.83
107615	7	Sololá	702	San José Chacayá	5	Chacayá	7	Julio	2023-07-15T00:00:00	2024-11-06T12:00:00	1	Precipitación	0
107616	7	Sololá	702	San José Chacayá	5	Chacayá	7	Julio	2023-07-15T00:00:00	2024-11-06T12:00:00	8	Radiación solar	323
107617	7	Sololá	702	San José Chacayá	5	Chacayá	7	Julio	2023-07-15T00:00:00	2024-11-06T13:00:00	2	Temperatura media	19.8
107618	7	Sololá	702	San José Chacayá	5	Chacayá	7	Julio	2023-07-15T00:00:00	2024-11-06T13:00:00	4	Temperatura máxima	20.1
107619	7	Sololá	702	San José Chacayá	5	Chacayá	7	Julio	2023-07-15T00:00:00	2024-11-06T13:00:00	3	Temperatura mínima	19.3
107620	7	Sololá	702	San José Chacayá	5	Chacayá	7	Julio	2023-07-15T00:00:00	2024-11-06T13:00:00	5	Humedad	72
107621	7	Sololá	702	San José Chacayá	5	Chacayá	7	Julio	2023-07-15T00:00:00	2024-11-06T13:00:00	6	Velocidad del viento	4.8
107622	7	Sololá	702	San José Chacayá	5	Chacayá	7	Julio	2023-07-15T00:00:00	2024-11-06T13:00:00	7	Dirección del viento	4.83
107623	7	Sololá	702	San José Chacayá	5	Chacayá	7	Julio	2023-07-15T00:00:00	2024-11-06T13:00:00	1	Precipitación	0
107624	7	Sololá	702	San José Chacayá	5	Chacayá	7	Julio	2023-07-15T00:00:00	2024-11-06T13:00:00	8	Radiación solar	334
107625	7	Sololá	702	San José Chacayá	5	Chacayá	7	Julio	2023-07-15T00:00:00	2024-11-06T14:00:00	2	Temperatura media	20.6
107626	7	Sololá	702	San José Chacayá	5	Chacayá	7	Julio	2023-07-15T00:00:00	2024-11-06T14:00:00	4	Temperatura máxima	20.6
107627	7	Sololá	702	San José Chacayá	5	Chacayá	7	Julio	2023-07-15T00:00:00	2024-11-06T14:00:00	3	Temperatura mínima	19.8
107628	7	Sololá	702	San José Chacayá	5	Chacayá	7	Julio	2023-07-15T00:00:00	2024-11-06T14:00:00	5	Humedad	71
107629	7	Sololá	702	San José Chacayá	5	Chacayá	7	Julio	2023-07-15T00:00:00	2024-11-06T14:00:00	6	Velocidad del viento	1.6
107630	7	Sololá	702	San José Chacayá	5	Chacayá	7	Julio	2023-07-15T00:00:00	2024-11-06T14:00:00	7	Dirección del viento	1.61
107631	7	Sololá	702	San José Chacayá	5	Chacayá	7	Julio	2023-07-15T00:00:00	2024-11-06T14:00:00	1	Precipitación	0
107632	7	Sololá	702	San José Chacayá	5	Chacayá	7	Julio	2023-07-15T00:00:00	2024-11-06T14:00:00	8	Radiación solar	335
107633	7	Sololá	702	San José Chacayá	5	Chacayá	7	Julio	2023-07-15T00:00:00	2024-11-06T15:00:00	2	Temperatura media	21.6
107634	7	Sololá	702	San José Chacayá	5	Chacayá	7	Julio	2023-07-15T00:00:00	2024-11-06T15:00:00	4	Temperatura máxima	21.8
107635	7	Sololá	702	San José Chacayá	5	Chacayá	7	Julio	2023-07-15T00:00:00	2024-11-06T15:00:00	3	Temperatura mínima	20.6
107636	7	Sololá	702	San José Chacayá	5	Chacayá	7	Julio	2023-07-15T00:00:00	2024-11-06T15:00:00	5	Humedad	64
107637	7	Sololá	702	San José Chacayá	5	Chacayá	7	Julio	2023-07-15T00:00:00	2024-11-06T15:00:00	6	Velocidad del viento	3.2
107638	7	Sololá	702	San José Chacayá	5	Chacayá	7	Julio	2023-07-15T00:00:00	2024-11-06T15:00:00	7	Dirección del viento	3.22
107639	7	Sololá	702	San José Chacayá	5	Chacayá	7	Julio	2023-07-15T00:00:00	2024-11-06T15:00:00	1	Precipitación	0
107640	7	Sololá	702	San José Chacayá	5	Chacayá	7	Julio	2023-07-15T00:00:00	2024-11-06T15:00:00	8	Radiación solar	466
107641	7	Sololá	702	San José Chacayá	5	Chacayá	7	Julio	2023-07-15T00:00:00	2024-11-06T16:00:00	2	Temperatura media	19.1
107642	7	Sololá	702	San José Chacayá	5	Chacayá	7	Julio	2023-07-15T00:00:00	2024-11-06T16:00:00	4	Temperatura máxima	21.6
107643	7	Sololá	702	San José Chacayá	5	Chacayá	7	Julio	2023-07-15T00:00:00	2024-11-06T16:00:00	3	Temperatura mínima	19
107644	7	Sololá	702	San José Chacayá	5	Chacayá	7	Julio	2023-07-15T00:00:00	2024-11-06T16:00:00	5	Humedad	82
107645	7	Sololá	702	San José Chacayá	5	Chacayá	7	Julio	2023-07-15T00:00:00	2024-11-06T16:00:00	6	Velocidad del viento	3.2
107646	7	Sololá	702	San José Chacayá	5	Chacayá	7	Julio	2023-07-15T00:00:00	2024-11-06T16:00:00	7	Dirección del viento	3.22
107647	7	Sololá	702	San José Chacayá	5	Chacayá	7	Julio	2023-07-15T00:00:00	2024-11-06T16:00:00	1	Precipitación	0
107648	7	Sololá	702	San José Chacayá	5	Chacayá	7	Julio	2023-07-15T00:00:00	2024-11-06T16:00:00	8	Radiación solar	245
107649	7	Sololá	702	San José Chacayá	5	Chacayá	7	Julio	2023-07-15T00:00:00	2024-11-06T17:00:00	2	Temperatura media	18.7
107650	7	Sololá	702	San José Chacayá	5	Chacayá	7	Julio	2023-07-15T00:00:00	2024-11-06T17:00:00	4	Temperatura máxima	19.9
107651	7	Sololá	702	San José Chacayá	5	Chacayá	7	Julio	2023-07-15T00:00:00	2024-11-06T17:00:00	3	Temperatura mínima	18.7
107652	7	Sololá	702	San José Chacayá	5	Chacayá	7	Julio	2023-07-15T00:00:00	2024-11-06T17:00:00	5	Humedad	82
107653	7	Sololá	702	San José Chacayá	5	Chacayá	7	Julio	2023-07-15T00:00:00	2024-11-06T17:00:00	6	Velocidad del viento	1.6
107654	7	Sololá	702	San José Chacayá	5	Chacayá	7	Julio	2023-07-15T00:00:00	2024-11-06T17:00:00	7	Dirección del viento	1.61
107655	7	Sololá	702	San José Chacayá	5	Chacayá	7	Julio	2023-07-15T00:00:00	2024-11-06T17:00:00	1	Precipitación	0
107656	7	Sololá	702	San José Chacayá	5	Chacayá	7	Julio	2023-07-15T00:00:00	2024-11-06T17:00:00	8	Radiación solar	196
107657	7	Sololá	702	San José Chacayá	5	Chacayá	7	Julio	2023-07-15T00:00:00	2024-11-06T18:00:00	2	Temperatura media	16.8
107658	7	Sololá	702	San José Chacayá	5	Chacayá	7	Julio	2023-07-15T00:00:00	2024-11-06T18:00:00	4	Temperatura máxima	18.7
107659	7	Sololá	702	San José Chacayá	5	Chacayá	7	Julio	2023-07-15T00:00:00	2024-11-06T18:00:00	3	Temperatura mínima	16.8
107660	7	Sololá	702	San José Chacayá	5	Chacayá	7	Julio	2023-07-15T00:00:00	2024-11-06T18:00:00	5	Humedad	80
107661	7	Sololá	702	San José Chacayá	5	Chacayá	7	Julio	2023-07-15T00:00:00	2024-11-06T18:00:00	6	Velocidad del viento	1.6
107662	7	Sololá	702	San José Chacayá	5	Chacayá	7	Julio	2023-07-15T00:00:00	2024-11-06T18:00:00	7	Dirección del viento	1.61
107663	7	Sololá	702	San José Chacayá	5	Chacayá	7	Julio	2023-07-15T00:00:00	2024-11-06T18:00:00	1	Precipitación	0
107664	7	Sololá	702	San José Chacayá	5	Chacayá	7	Julio	2023-07-15T00:00:00	2024-11-06T18:00:00	8	Radiación solar	57
107665	7	Sololá	702	San José Chacayá	5	Chacayá	7	Julio	2023-07-15T00:00:00	2024-11-06T19:00:00	2	Temperatura media	16
107666	7	Sololá	702	San José Chacayá	5	Chacayá	7	Julio	2023-07-15T00:00:00	2024-11-06T19:00:00	4	Temperatura máxima	16.8
107667	7	Sololá	702	San José Chacayá	5	Chacayá	7	Julio	2023-07-15T00:00:00	2024-11-06T19:00:00	3	Temperatura mínima	16
107668	7	Sololá	702	San José Chacayá	5	Chacayá	7	Julio	2023-07-15T00:00:00	2024-11-06T19:00:00	5	Humedad	81
107669	7	Sololá	702	San José Chacayá	5	Chacayá	7	Julio	2023-07-15T00:00:00	2024-11-06T19:00:00	6	Velocidad del viento	1.6
107670	7	Sololá	702	San José Chacayá	5	Chacayá	7	Julio	2023-07-15T00:00:00	2024-11-06T19:00:00	7	Dirección del viento	1.61
107671	7	Sololá	702	San José Chacayá	5	Chacayá	7	Julio	2023-07-15T00:00:00	2024-11-06T19:00:00	1	Precipitación	0
107672	7	Sololá	702	San José Chacayá	5	Chacayá	7	Julio	2023-07-15T00:00:00	2024-11-06T19:00:00	8	Radiación solar	0
107673	7	Sololá	702	San José Chacayá	5	Chacayá	7	Julio	2023-07-15T00:00:00	2024-11-06T20:00:00	2	Temperatura media	15.4
107674	7	Sololá	702	San José Chacayá	5	Chacayá	7	Julio	2023-07-15T00:00:00	2024-11-06T20:00:00	4	Temperatura máxima	16.1
107675	7	Sololá	702	San José Chacayá	5	Chacayá	7	Julio	2023-07-15T00:00:00	2024-11-06T20:00:00	3	Temperatura mínima	15.4
107676	7	Sololá	702	San José Chacayá	5	Chacayá	7	Julio	2023-07-15T00:00:00	2024-11-06T20:00:00	5	Humedad	83
107677	7	Sololá	702	San José Chacayá	5	Chacayá	7	Julio	2023-07-15T00:00:00	2024-11-06T20:00:00	6	Velocidad del viento	0
107678	7	Sololá	702	San José Chacayá	5	Chacayá	7	Julio	2023-07-15T00:00:00	2024-11-06T20:00:00	7	Dirección del viento	0
107679	7	Sololá	702	San José Chacayá	5	Chacayá	7	Julio	2023-07-15T00:00:00	2024-11-06T20:00:00	1	Precipitación	0
107680	7	Sololá	702	San José Chacayá	5	Chacayá	7	Julio	2023-07-15T00:00:00	2024-11-06T20:00:00	8	Radiación solar	0
107681	7	Sololá	702	San José Chacayá	5	Chacayá	7	Julio	2023-07-15T00:00:00	2024-11-06T21:00:00	2	Temperatura media	15.4
107682	7	Sololá	702	San José Chacayá	5	Chacayá	7	Julio	2023-07-15T00:00:00	2024-11-06T21:00:00	4	Temperatura máxima	15.8
107683	7	Sololá	702	San José Chacayá	5	Chacayá	7	Julio	2023-07-15T00:00:00	2024-11-06T21:00:00	3	Temperatura mínima	15.4
107684	7	Sololá	702	San José Chacayá	5	Chacayá	7	Julio	2023-07-15T00:00:00	2024-11-06T21:00:00	5	Humedad	83
107685	7	Sololá	702	San José Chacayá	5	Chacayá	7	Julio	2023-07-15T00:00:00	2024-11-06T21:00:00	6	Velocidad del viento	1.6
107686	7	Sololá	702	San José Chacayá	5	Chacayá	7	Julio	2023-07-15T00:00:00	2024-11-06T21:00:00	7	Dirección del viento	1.61
107687	7	Sololá	702	San José Chacayá	5	Chacayá	7	Julio	2023-07-15T00:00:00	2024-11-06T21:00:00	1	Precipitación	0
107688	7	Sololá	702	San José Chacayá	5	Chacayá	7	Julio	2023-07-15T00:00:00	2024-11-06T21:00:00	8	Radiación solar	0
107689	7	Sololá	702	San José Chacayá	5	Chacayá	7	Julio	2023-07-15T00:00:00	2024-11-06T22:00:00	2	Temperatura media	14.9
107690	7	Sololá	702	San José Chacayá	5	Chacayá	7	Julio	2023-07-15T00:00:00	2024-11-06T22:00:00	4	Temperatura máxima	15.4
107691	7	Sololá	702	San José Chacayá	5	Chacayá	7	Julio	2023-07-15T00:00:00	2024-11-06T22:00:00	3	Temperatura mínima	14.9
107692	7	Sololá	702	San José Chacayá	5	Chacayá	7	Julio	2023-07-15T00:00:00	2024-11-06T22:00:00	5	Humedad	83
107693	7	Sololá	702	San José Chacayá	5	Chacayá	7	Julio	2023-07-15T00:00:00	2024-11-06T22:00:00	6	Velocidad del viento	1.6
107694	7	Sololá	702	San José Chacayá	5	Chacayá	7	Julio	2023-07-15T00:00:00	2024-11-06T22:00:00	7	Dirección del viento	1.61
107695	7	Sololá	702	San José Chacayá	5	Chacayá	7	Julio	2023-07-15T00:00:00	2024-11-06T22:00:00	1	Precipitación	0
107696	7	Sololá	702	San José Chacayá	5	Chacayá	7	Julio	2023-07-15T00:00:00	2024-11-06T22:00:00	8	Radiación solar	0
107697	7	Sololá	702	San José Chacayá	5	Chacayá	7	Julio	2023-07-15T00:00:00	2024-11-06T23:00:00	2	Temperatura media	14.9
107698	7	Sololá	702	San José Chacayá	5	Chacayá	7	Julio	2023-07-15T00:00:00	2024-11-06T23:00:00	4	Temperatura máxima	15.1
107699	7	Sololá	702	San José Chacayá	5	Chacayá	7	Julio	2023-07-15T00:00:00	2024-11-06T23:00:00	3	Temperatura mínima	14.9
107700	7	Sololá	702	San José Chacayá	5	Chacayá	7	Julio	2023-07-15T00:00:00	2024-11-06T23:00:00	5	Humedad	82
107701	7	Sololá	702	San José Chacayá	5	Chacayá	7	Julio	2023-07-15T00:00:00	2024-11-06T23:00:00	6	Velocidad del viento	3.2
107702	7	Sololá	702	San José Chacayá	5	Chacayá	7	Julio	2023-07-15T00:00:00	2024-11-06T23:00:00	7	Dirección del viento	3.22
107703	7	Sololá	702	San José Chacayá	5	Chacayá	7	Julio	2023-07-15T00:00:00	2024-11-06T23:00:00	1	Precipitación	0
107704	7	Sololá	702	San José Chacayá	5	Chacayá	7	Julio	2023-07-15T00:00:00	2024-11-06T23:00:00	8	Radiación solar	0
107705	7	Sololá	702	San José Chacayá	5	Chacayá	7	Julio	2023-07-16T00:00:00	2024-11-06T00:00:00	2	Temperatura media	13.9
107706	7	Sololá	702	San José Chacayá	5	Chacayá	7	Julio	2023-07-16T00:00:00	2024-11-06T00:00:00	4	Temperatura máxima	15
107707	7	Sololá	702	San José Chacayá	5	Chacayá	7	Julio	2023-07-16T00:00:00	2024-11-06T00:00:00	3	Temperatura mínima	13.9
107708	7	Sololá	702	San José Chacayá	5	Chacayá	7	Julio	2023-07-16T00:00:00	2024-11-06T00:00:00	5	Humedad	84
107709	7	Sololá	702	San José Chacayá	5	Chacayá	7	Julio	2023-07-16T00:00:00	2024-11-06T00:00:00	6	Velocidad del viento	1.6
107710	7	Sololá	702	San José Chacayá	5	Chacayá	7	Julio	2023-07-16T00:00:00	2024-11-06T00:00:00	7	Dirección del viento	1.61
107711	7	Sololá	702	San José Chacayá	5	Chacayá	7	Julio	2023-07-16T00:00:00	2024-11-06T00:00:00	1	Precipitación	0
107712	7	Sololá	702	San José Chacayá	5	Chacayá	7	Julio	2023-07-16T00:00:00	2024-11-06T00:00:00	8	Radiación solar	0
107713	7	Sololá	702	San José Chacayá	5	Chacayá	7	Julio	2023-07-16T00:00:00	2024-11-06T01:00:00	2	Temperatura media	13.6
107714	7	Sololá	702	San José Chacayá	5	Chacayá	7	Julio	2023-07-16T00:00:00	2024-11-06T01:00:00	4	Temperatura máxima	13.9
107715	7	Sololá	702	San José Chacayá	5	Chacayá	7	Julio	2023-07-16T00:00:00	2024-11-06T01:00:00	3	Temperatura mínima	13.5
107716	7	Sololá	702	San José Chacayá	5	Chacayá	7	Julio	2023-07-16T00:00:00	2024-11-06T01:00:00	5	Humedad	83
107717	7	Sololá	702	San José Chacayá	5	Chacayá	7	Julio	2023-07-16T00:00:00	2024-11-06T01:00:00	6	Velocidad del viento	1.6
107718	7	Sololá	702	San José Chacayá	5	Chacayá	7	Julio	2023-07-16T00:00:00	2024-11-06T01:00:00	7	Dirección del viento	1.61
107719	7	Sololá	702	San José Chacayá	5	Chacayá	7	Julio	2023-07-16T00:00:00	2024-11-06T01:00:00	1	Precipitación	0
107720	7	Sololá	702	San José Chacayá	5	Chacayá	7	Julio	2023-07-16T00:00:00	2024-11-06T01:00:00	8	Radiación solar	0
107721	7	Sololá	702	San José Chacayá	5	Chacayá	7	Julio	2023-07-16T00:00:00	2024-11-06T02:00:00	2	Temperatura media	13.9
107722	7	Sololá	702	San José Chacayá	5	Chacayá	7	Julio	2023-07-16T00:00:00	2024-11-06T02:00:00	4	Temperatura máxima	14.1
107723	7	Sololá	702	San José Chacayá	5	Chacayá	7	Julio	2023-07-16T00:00:00	2024-11-06T02:00:00	3	Temperatura mínima	13.4
107724	7	Sololá	702	San José Chacayá	5	Chacayá	7	Julio	2023-07-16T00:00:00	2024-11-06T02:00:00	5	Humedad	82
107725	7	Sololá	702	San José Chacayá	5	Chacayá	7	Julio	2023-07-16T00:00:00	2024-11-06T02:00:00	6	Velocidad del viento	1.6
107726	7	Sololá	702	San José Chacayá	5	Chacayá	7	Julio	2023-07-16T00:00:00	2024-11-06T02:00:00	7	Dirección del viento	1.61
107727	7	Sololá	702	San José Chacayá	5	Chacayá	7	Julio	2023-07-16T00:00:00	2024-11-06T02:00:00	1	Precipitación	0
107728	7	Sololá	702	San José Chacayá	5	Chacayá	7	Julio	2023-07-16T00:00:00	2024-11-06T02:00:00	8	Radiación solar	0
107729	7	Sololá	702	San José Chacayá	5	Chacayá	7	Julio	2023-07-16T00:00:00	2024-11-06T03:00:00	2	Temperatura media	13.6
107730	7	Sololá	702	San José Chacayá	5	Chacayá	7	Julio	2023-07-16T00:00:00	2024-11-06T03:00:00	4	Temperatura máxima	13.9
107731	7	Sololá	702	San José Chacayá	5	Chacayá	7	Julio	2023-07-16T00:00:00	2024-11-06T03:00:00	3	Temperatura mínima	13.6
107732	7	Sololá	702	San José Chacayá	5	Chacayá	7	Julio	2023-07-16T00:00:00	2024-11-06T03:00:00	5	Humedad	74
107733	7	Sololá	702	San José Chacayá	5	Chacayá	7	Julio	2023-07-16T00:00:00	2024-11-06T03:00:00	6	Velocidad del viento	0
107734	7	Sololá	702	San José Chacayá	5	Chacayá	7	Julio	2023-07-16T00:00:00	2024-11-06T03:00:00	7	Dirección del viento	0
107735	7	Sololá	702	San José Chacayá	5	Chacayá	7	Julio	2023-07-16T00:00:00	2024-11-06T03:00:00	1	Precipitación	0.2
107736	7	Sololá	702	San José Chacayá	5	Chacayá	7	Julio	2023-07-16T00:00:00	2024-11-06T03:00:00	8	Radiación solar	0
107737	7	Sololá	702	San José Chacayá	5	Chacayá	7	Julio	2023-07-16T00:00:00	2024-11-06T04:00:00	2	Temperatura media	14.1
107738	7	Sololá	702	San José Chacayá	5	Chacayá	7	Julio	2023-07-16T00:00:00	2024-11-06T04:00:00	4	Temperatura máxima	14.3
107739	7	Sololá	702	San José Chacayá	5	Chacayá	7	Julio	2023-07-16T00:00:00	2024-11-06T04:00:00	3	Temperatura mínima	13.6
107740	7	Sololá	702	San José Chacayá	5	Chacayá	7	Julio	2023-07-16T00:00:00	2024-11-06T04:00:00	5	Humedad	88
107741	7	Sololá	702	San José Chacayá	5	Chacayá	7	Julio	2023-07-16T00:00:00	2024-11-06T04:00:00	6	Velocidad del viento	1.6
107742	7	Sololá	702	San José Chacayá	5	Chacayá	7	Julio	2023-07-16T00:00:00	2024-11-06T04:00:00	7	Dirección del viento	1.61
107743	7	Sololá	702	San José Chacayá	5	Chacayá	7	Julio	2023-07-16T00:00:00	2024-11-06T04:00:00	1	Precipitación	0
107744	7	Sololá	702	San José Chacayá	5	Chacayá	7	Julio	2023-07-16T00:00:00	2024-11-06T04:00:00	8	Radiación solar	0
107745	7	Sololá	702	San José Chacayá	5	Chacayá	7	Julio	2023-07-16T00:00:00	2024-11-06T05:00:00	2	Temperatura media	14.4
107746	7	Sololá	702	San José Chacayá	5	Chacayá	7	Julio	2023-07-16T00:00:00	2024-11-06T05:00:00	4	Temperatura máxima	14.6
107747	7	Sololá	702	San José Chacayá	5	Chacayá	7	Julio	2023-07-16T00:00:00	2024-11-06T05:00:00	3	Temperatura mínima	14
107748	7	Sololá	702	San José Chacayá	5	Chacayá	7	Julio	2023-07-16T00:00:00	2024-11-06T05:00:00	5	Humedad	85
107749	7	Sololá	702	San José Chacayá	5	Chacayá	7	Julio	2023-07-16T00:00:00	2024-11-06T05:00:00	6	Velocidad del viento	3.2
107750	7	Sololá	702	San José Chacayá	5	Chacayá	7	Julio	2023-07-16T00:00:00	2024-11-06T05:00:00	7	Dirección del viento	3.22
107751	7	Sololá	702	San José Chacayá	5	Chacayá	7	Julio	2023-07-16T00:00:00	2024-11-06T05:00:00	1	Precipitación	0
107752	7	Sololá	702	San José Chacayá	5	Chacayá	7	Julio	2023-07-16T00:00:00	2024-11-06T05:00:00	8	Radiación solar	0
107753	7	Sololá	702	San José Chacayá	5	Chacayá	7	Julio	2023-07-16T00:00:00	2024-11-06T06:00:00	2	Temperatura media	14.7
107754	7	Sololá	702	San José Chacayá	5	Chacayá	7	Julio	2023-07-16T00:00:00	2024-11-06T06:00:00	4	Temperatura máxima	14.7
107755	7	Sololá	702	San José Chacayá	5	Chacayá	7	Julio	2023-07-16T00:00:00	2024-11-06T06:00:00	3	Temperatura mínima	14.3
107756	7	Sololá	702	San José Chacayá	5	Chacayá	7	Julio	2023-07-16T00:00:00	2024-11-06T06:00:00	5	Humedad	84
107757	7	Sololá	702	San José Chacayá	5	Chacayá	7	Julio	2023-07-16T00:00:00	2024-11-06T06:00:00	6	Velocidad del viento	4.8
107758	7	Sololá	702	San José Chacayá	5	Chacayá	7	Julio	2023-07-16T00:00:00	2024-11-06T06:00:00	7	Dirección del viento	4.83
107759	7	Sololá	702	San José Chacayá	5	Chacayá	7	Julio	2023-07-16T00:00:00	2024-11-06T06:00:00	1	Precipitación	0
107760	7	Sololá	702	San José Chacayá	5	Chacayá	7	Julio	2023-07-16T00:00:00	2024-11-06T06:00:00	8	Radiación solar	5
107761	7	Sololá	702	San José Chacayá	5	Chacayá	7	Julio	2023-07-16T00:00:00	2024-11-06T07:00:00	2	Temperatura media	15.7
107762	7	Sololá	702	San José Chacayá	5	Chacayá	7	Julio	2023-07-16T00:00:00	2024-11-06T07:00:00	4	Temperatura máxima	15.7
107763	7	Sololá	702	San José Chacayá	5	Chacayá	7	Julio	2023-07-16T00:00:00	2024-11-06T07:00:00	3	Temperatura mínima	15.1
107764	7	Sololá	702	San José Chacayá	5	Chacayá	7	Julio	2023-07-16T00:00:00	2024-11-06T07:00:00	5	Humedad	81
107765	7	Sololá	702	San José Chacayá	5	Chacayá	7	Julio	2023-07-16T00:00:00	2024-11-06T07:00:00	6	Velocidad del viento	3.2
107766	7	Sololá	702	San José Chacayá	5	Chacayá	7	Julio	2023-07-16T00:00:00	2024-11-06T07:00:00	7	Dirección del viento	3.22
107767	7	Sololá	702	San José Chacayá	5	Chacayá	7	Julio	2023-07-16T00:00:00	2024-11-06T07:00:00	1	Precipitación	0
107768	7	Sololá	702	San José Chacayá	5	Chacayá	7	Julio	2023-07-16T00:00:00	2024-11-06T07:00:00	8	Radiación solar	88
107769	7	Sololá	702	San José Chacayá	5	Chacayá	7	Julio	2023-07-16T00:00:00	2024-11-06T08:00:00	2	Temperatura media	16.7
107770	7	Sololá	702	San José Chacayá	5	Chacayá	7	Julio	2023-07-16T00:00:00	2024-11-06T08:00:00	4	Temperatura máxima	16.7
107771	7	Sololá	702	San José Chacayá	5	Chacayá	7	Julio	2023-07-16T00:00:00	2024-11-06T08:00:00	3	Temperatura mínima	15.7
107772	7	Sololá	702	San José Chacayá	5	Chacayá	7	Julio	2023-07-16T00:00:00	2024-11-06T08:00:00	5	Humedad	79
107773	7	Sololá	702	San José Chacayá	5	Chacayá	7	Julio	2023-07-16T00:00:00	2024-11-06T08:00:00	6	Velocidad del viento	1.6
107774	7	Sololá	702	San José Chacayá	5	Chacayá	7	Julio	2023-07-16T00:00:00	2024-11-06T08:00:00	7	Dirección del viento	1.61
107775	7	Sololá	702	San José Chacayá	5	Chacayá	7	Julio	2023-07-16T00:00:00	2024-11-06T08:00:00	1	Precipitación	0
107776	7	Sololá	702	San José Chacayá	5	Chacayá	7	Julio	2023-07-16T00:00:00	2024-11-06T08:00:00	8	Radiación solar	140
107777	7	Sololá	702	San José Chacayá	5	Chacayá	7	Julio	2023-07-16T00:00:00	2024-11-06T09:00:00	2	Temperatura media	17.9
107778	7	Sololá	702	San José Chacayá	5	Chacayá	7	Julio	2023-07-16T00:00:00	2024-11-06T09:00:00	4	Temperatura máxima	18.1
107779	7	Sololá	702	San José Chacayá	5	Chacayá	7	Julio	2023-07-16T00:00:00	2024-11-06T09:00:00	3	Temperatura mínima	16.6
107780	7	Sololá	702	San José Chacayá	5	Chacayá	7	Julio	2023-07-16T00:00:00	2024-11-06T09:00:00	5	Humedad	76
107781	7	Sololá	702	San José Chacayá	5	Chacayá	7	Julio	2023-07-16T00:00:00	2024-11-06T09:00:00	6	Velocidad del viento	4.8
107782	7	Sololá	702	San José Chacayá	5	Chacayá	7	Julio	2023-07-16T00:00:00	2024-11-06T09:00:00	7	Dirección del viento	4.83
107783	7	Sololá	702	San José Chacayá	5	Chacayá	7	Julio	2023-07-16T00:00:00	2024-11-06T09:00:00	1	Precipitación	0
107784	7	Sololá	702	San José Chacayá	5	Chacayá	7	Julio	2023-07-16T00:00:00	2024-11-06T09:00:00	8	Radiación solar	289
107785	7	Sololá	702	San José Chacayá	5	Chacayá	7	Julio	2023-07-16T00:00:00	2024-11-06T10:00:00	2	Temperatura media	18.3
107786	7	Sololá	702	San José Chacayá	5	Chacayá	7	Julio	2023-07-16T00:00:00	2024-11-06T10:00:00	4	Temperatura máxima	18.3
107787	7	Sololá	702	San José Chacayá	5	Chacayá	7	Julio	2023-07-16T00:00:00	2024-11-06T10:00:00	3	Temperatura mínima	17.9
107788	7	Sololá	702	San José Chacayá	5	Chacayá	7	Julio	2023-07-16T00:00:00	2024-11-06T10:00:00	5	Humedad	74
107789	7	Sololá	702	San José Chacayá	5	Chacayá	7	Julio	2023-07-16T00:00:00	2024-11-06T10:00:00	6	Velocidad del viento	3.2
107790	7	Sololá	702	San José Chacayá	5	Chacayá	7	Julio	2023-07-16T00:00:00	2024-11-06T10:00:00	7	Dirección del viento	3.22
107791	7	Sololá	702	San José Chacayá	5	Chacayá	7	Julio	2023-07-16T00:00:00	2024-11-06T10:00:00	1	Precipitación	0
107792	7	Sololá	702	San José Chacayá	5	Chacayá	7	Julio	2023-07-16T00:00:00	2024-11-06T10:00:00	8	Radiación solar	255
107793	7	Sololá	702	San José Chacayá	5	Chacayá	7	Julio	2023-07-16T00:00:00	2024-11-06T11:00:00	2	Temperatura media	19.2
107794	7	Sololá	702	San José Chacayá	5	Chacayá	7	Julio	2023-07-16T00:00:00	2024-11-06T11:00:00	4	Temperatura máxima	19.2
107795	7	Sololá	702	San José Chacayá	5	Chacayá	7	Julio	2023-07-16T00:00:00	2024-11-06T11:00:00	3	Temperatura mínima	18.3
107796	7	Sololá	702	San José Chacayá	5	Chacayá	7	Julio	2023-07-16T00:00:00	2024-11-06T11:00:00	5	Humedad	69
107797	7	Sololá	702	San José Chacayá	5	Chacayá	7	Julio	2023-07-16T00:00:00	2024-11-06T11:00:00	6	Velocidad del viento	4.8
107798	7	Sololá	702	San José Chacayá	5	Chacayá	7	Julio	2023-07-16T00:00:00	2024-11-06T11:00:00	7	Dirección del viento	4.83
107799	7	Sololá	702	San José Chacayá	5	Chacayá	7	Julio	2023-07-16T00:00:00	2024-11-06T11:00:00	1	Precipitación	0
107800	7	Sololá	702	San José Chacayá	5	Chacayá	7	Julio	2023-07-16T00:00:00	2024-11-06T11:00:00	8	Radiación solar	280
107801	7	Sololá	702	San José Chacayá	5	Chacayá	7	Julio	2023-07-16T00:00:00	2024-11-06T12:00:00	2	Temperatura media	19.4
107802	7	Sololá	702	San José Chacayá	5	Chacayá	7	Julio	2023-07-16T00:00:00	2024-11-06T12:00:00	4	Temperatura máxima	20
107803	7	Sololá	702	San José Chacayá	5	Chacayá	7	Julio	2023-07-16T00:00:00	2024-11-06T12:00:00	3	Temperatura mínima	19.2
107804	7	Sololá	702	San José Chacayá	5	Chacayá	7	Julio	2023-07-16T00:00:00	2024-11-06T12:00:00	5	Humedad	71
107805	7	Sololá	702	San José Chacayá	5	Chacayá	7	Julio	2023-07-16T00:00:00	2024-11-06T12:00:00	6	Velocidad del viento	3.2
107806	7	Sololá	702	San José Chacayá	5	Chacayá	7	Julio	2023-07-16T00:00:00	2024-11-06T12:00:00	7	Dirección del viento	3.22
107807	7	Sololá	702	San José Chacayá	5	Chacayá	7	Julio	2023-07-16T00:00:00	2024-11-06T12:00:00	1	Precipitación	0
107808	7	Sololá	702	San José Chacayá	5	Chacayá	7	Julio	2023-07-16T00:00:00	2024-11-06T12:00:00	8	Radiación solar	346
107809	7	Sololá	702	San José Chacayá	5	Chacayá	7	Julio	2023-07-16T00:00:00	2024-11-06T13:00:00	2	Temperatura media	19.7
107810	7	Sololá	702	San José Chacayá	5	Chacayá	7	Julio	2023-07-16T00:00:00	2024-11-06T13:00:00	4	Temperatura máxima	20.1
107811	7	Sololá	702	San José Chacayá	5	Chacayá	7	Julio	2023-07-16T00:00:00	2024-11-06T13:00:00	3	Temperatura mínima	19.3
107812	7	Sololá	702	San José Chacayá	5	Chacayá	7	Julio	2023-07-16T00:00:00	2024-11-06T13:00:00	5	Humedad	71
107813	7	Sololá	702	San José Chacayá	5	Chacayá	7	Julio	2023-07-16T00:00:00	2024-11-06T13:00:00	6	Velocidad del viento	3.2
107814	7	Sololá	702	San José Chacayá	5	Chacayá	7	Julio	2023-07-16T00:00:00	2024-11-06T13:00:00	7	Dirección del viento	3.22
107815	7	Sololá	702	San José Chacayá	5	Chacayá	7	Julio	2023-07-16T00:00:00	2024-11-06T13:00:00	1	Precipitación	0
107816	7	Sololá	702	San José Chacayá	5	Chacayá	7	Julio	2023-07-16T00:00:00	2024-11-06T13:00:00	8	Radiación solar	295
107817	7	Sololá	702	San José Chacayá	5	Chacayá	7	Julio	2023-07-16T00:00:00	2024-11-06T14:00:00	2	Temperatura media	20.7
107818	7	Sololá	702	San José Chacayá	5	Chacayá	7	Julio	2023-07-16T00:00:00	2024-11-06T14:00:00	4	Temperatura máxima	21.1
107819	7	Sololá	702	San José Chacayá	5	Chacayá	7	Julio	2023-07-16T00:00:00	2024-11-06T14:00:00	3	Temperatura mínima	19.5
107820	7	Sololá	702	San José Chacayá	5	Chacayá	7	Julio	2023-07-16T00:00:00	2024-11-06T14:00:00	5	Humedad	69
107821	7	Sololá	702	San José Chacayá	5	Chacayá	7	Julio	2023-07-16T00:00:00	2024-11-06T14:00:00	6	Velocidad del viento	4.8
107822	7	Sololá	702	San José Chacayá	5	Chacayá	7	Julio	2023-07-16T00:00:00	2024-11-06T14:00:00	7	Dirección del viento	4.83
107823	7	Sololá	702	San José Chacayá	5	Chacayá	7	Julio	2023-07-16T00:00:00	2024-11-06T14:00:00	1	Precipitación	0
107824	7	Sololá	702	San José Chacayá	5	Chacayá	7	Julio	2023-07-16T00:00:00	2024-11-06T14:00:00	8	Radiación solar	400
107825	7	Sololá	702	San José Chacayá	5	Chacayá	7	Julio	2023-07-16T00:00:00	2024-11-06T15:00:00	2	Temperatura media	21.7
107826	7	Sololá	702	San José Chacayá	5	Chacayá	7	Julio	2023-07-16T00:00:00	2024-11-06T15:00:00	4	Temperatura máxima	21.7
107827	7	Sololá	702	San José Chacayá	5	Chacayá	7	Julio	2023-07-16T00:00:00	2024-11-06T15:00:00	3	Temperatura mínima	20.3
107828	7	Sololá	702	San José Chacayá	5	Chacayá	7	Julio	2023-07-16T00:00:00	2024-11-06T15:00:00	5	Humedad	65
107829	7	Sololá	702	San José Chacayá	5	Chacayá	7	Julio	2023-07-16T00:00:00	2024-11-06T15:00:00	6	Velocidad del viento	4.8
107830	7	Sololá	702	San José Chacayá	5	Chacayá	7	Julio	2023-07-16T00:00:00	2024-11-06T15:00:00	7	Dirección del viento	4.83
107831	7	Sololá	702	San José Chacayá	5	Chacayá	7	Julio	2023-07-16T00:00:00	2024-11-06T15:00:00	1	Precipitación	0
107832	7	Sololá	702	San José Chacayá	5	Chacayá	7	Julio	2023-07-16T00:00:00	2024-11-06T15:00:00	8	Radiación solar	371
107833	7	Sololá	702	San José Chacayá	5	Chacayá	7	Julio	2023-07-16T00:00:00	2024-11-06T16:00:00	2	Temperatura media	17.1
107834	7	Sololá	702	San José Chacayá	5	Chacayá	7	Julio	2023-07-16T00:00:00	2024-11-06T16:00:00	4	Temperatura máxima	21.7
107835	7	Sololá	702	San José Chacayá	5	Chacayá	7	Julio	2023-07-16T00:00:00	2024-11-06T16:00:00	3	Temperatura mínima	17.1
107836	7	Sololá	702	San José Chacayá	5	Chacayá	7	Julio	2023-07-16T00:00:00	2024-11-06T16:00:00	5	Humedad	82
107837	7	Sololá	702	San José Chacayá	5	Chacayá	7	Julio	2023-07-16T00:00:00	2024-11-06T16:00:00	6	Velocidad del viento	3.2
107838	7	Sololá	702	San José Chacayá	5	Chacayá	7	Julio	2023-07-16T00:00:00	2024-11-06T16:00:00	7	Dirección del viento	3.22
107839	7	Sololá	702	San José Chacayá	5	Chacayá	7	Julio	2023-07-16T00:00:00	2024-11-06T16:00:00	1	Precipitación	1.6
107840	7	Sololá	702	San José Chacayá	5	Chacayá	7	Julio	2023-07-16T00:00:00	2024-11-06T16:00:00	8	Radiación solar	68
107841	7	Sololá	702	San José Chacayá	5	Chacayá	7	Julio	2023-07-16T00:00:00	2024-11-06T17:00:00	2	Temperatura media	15.5
107842	7	Sololá	702	San José Chacayá	5	Chacayá	7	Julio	2023-07-16T00:00:00	2024-11-06T17:00:00	4	Temperatura máxima	17.1
107843	7	Sololá	702	San José Chacayá	5	Chacayá	7	Julio	2023-07-16T00:00:00	2024-11-06T17:00:00	3	Temperatura mínima	15.4
107844	7	Sololá	702	San José Chacayá	5	Chacayá	7	Julio	2023-07-16T00:00:00	2024-11-06T17:00:00	5	Humedad	72
107845	7	Sololá	702	San José Chacayá	5	Chacayá	7	Julio	2023-07-16T00:00:00	2024-11-06T17:00:00	6	Velocidad del viento	0
107846	7	Sololá	702	San José Chacayá	5	Chacayá	7	Julio	2023-07-16T00:00:00	2024-11-06T17:00:00	7	Dirección del viento	0
107847	7	Sololá	702	San José Chacayá	5	Chacayá	7	Julio	2023-07-16T00:00:00	2024-11-06T17:00:00	1	Precipitación	0
107848	7	Sololá	702	San José Chacayá	5	Chacayá	7	Julio	2023-07-16T00:00:00	2024-11-06T17:00:00	8	Radiación solar	10
107849	7	Sololá	702	San José Chacayá	5	Chacayá	7	Julio	2023-07-16T00:00:00	2024-11-06T18:00:00	2	Temperatura media	15.3
107850	7	Sololá	702	San José Chacayá	5	Chacayá	7	Julio	2023-07-16T00:00:00	2024-11-06T18:00:00	4	Temperatura máxima	15.6
107851	7	Sololá	702	San José Chacayá	5	Chacayá	7	Julio	2023-07-16T00:00:00	2024-11-06T18:00:00	3	Temperatura mínima	15.3
107852	7	Sololá	702	San José Chacayá	5	Chacayá	7	Julio	2023-07-16T00:00:00	2024-11-06T18:00:00	5	Humedad	68
107853	7	Sololá	702	San José Chacayá	5	Chacayá	7	Julio	2023-07-16T00:00:00	2024-11-06T18:00:00	6	Velocidad del viento	0
107854	7	Sololá	702	San José Chacayá	5	Chacayá	7	Julio	2023-07-16T00:00:00	2024-11-06T18:00:00	7	Dirección del viento	0
107855	7	Sololá	702	San José Chacayá	5	Chacayá	7	Julio	2023-07-16T00:00:00	2024-11-06T18:00:00	1	Precipitación	2.6
107856	7	Sololá	702	San José Chacayá	5	Chacayá	7	Julio	2023-07-16T00:00:00	2024-11-06T18:00:00	8	Radiación solar	1
107857	7	Sololá	702	San José Chacayá	5	Chacayá	7	Julio	2023-07-16T00:00:00	2024-11-06T19:00:00	2	Temperatura media	14.6
107858	7	Sololá	702	San José Chacayá	5	Chacayá	7	Julio	2023-07-16T00:00:00	2024-11-06T19:00:00	4	Temperatura máxima	15.3
107859	7	Sololá	702	San José Chacayá	5	Chacayá	7	Julio	2023-07-16T00:00:00	2024-11-06T19:00:00	3	Temperatura mínima	14.4
107860	7	Sololá	702	San José Chacayá	5	Chacayá	7	Julio	2023-07-16T00:00:00	2024-11-06T19:00:00	5	Humedad	68
107861	7	Sololá	702	San José Chacayá	5	Chacayá	7	Julio	2023-07-16T00:00:00	2024-11-06T19:00:00	6	Velocidad del viento	0
107862	7	Sololá	702	San José Chacayá	5	Chacayá	7	Julio	2023-07-16T00:00:00	2024-11-06T19:00:00	7	Dirección del viento	0
107863	7	Sololá	702	San José Chacayá	5	Chacayá	7	Julio	2023-07-16T00:00:00	2024-11-06T19:00:00	1	Precipitación	0.8
107864	7	Sololá	702	San José Chacayá	5	Chacayá	7	Julio	2023-07-16T00:00:00	2024-11-06T19:00:00	8	Radiación solar	0
107865	7	Sololá	702	San José Chacayá	5	Chacayá	7	Julio	2023-07-16T00:00:00	2024-11-06T20:00:00	2	Temperatura media	14.5
107866	7	Sololá	702	San José Chacayá	5	Chacayá	7	Julio	2023-07-16T00:00:00	2024-11-06T20:00:00	4	Temperatura máxima	14.6
107867	7	Sololá	702	San José Chacayá	5	Chacayá	7	Julio	2023-07-16T00:00:00	2024-11-06T20:00:00	3	Temperatura mínima	14.4
107868	7	Sololá	702	San José Chacayá	5	Chacayá	7	Julio	2023-07-16T00:00:00	2024-11-06T20:00:00	5	Humedad	61
107869	7	Sololá	702	San José Chacayá	5	Chacayá	7	Julio	2023-07-16T00:00:00	2024-11-06T20:00:00	6	Velocidad del viento	0
107870	7	Sololá	702	San José Chacayá	5	Chacayá	7	Julio	2023-07-16T00:00:00	2024-11-06T20:00:00	7	Dirección del viento	0
107871	7	Sololá	702	San José Chacayá	5	Chacayá	7	Julio	2023-07-16T00:00:00	2024-11-06T20:00:00	1	Precipitación	0.2
107872	7	Sololá	702	San José Chacayá	5	Chacayá	7	Julio	2023-07-16T00:00:00	2024-11-06T20:00:00	8	Radiación solar	0
107873	7	Sololá	702	San José Chacayá	5	Chacayá	7	Julio	2023-07-16T00:00:00	2024-11-06T21:00:00	2	Temperatura media	13.6
107874	7	Sololá	702	San José Chacayá	5	Chacayá	7	Julio	2023-07-16T00:00:00	2024-11-06T21:00:00	4	Temperatura máxima	14.6
107875	7	Sololá	702	San José Chacayá	5	Chacayá	7	Julio	2023-07-16T00:00:00	2024-11-06T21:00:00	3	Temperatura mínima	13.6
107876	7	Sololá	702	San José Chacayá	5	Chacayá	7	Julio	2023-07-16T00:00:00	2024-11-06T21:00:00	5	Humedad	81
107877	7	Sololá	702	San José Chacayá	5	Chacayá	7	Julio	2023-07-16T00:00:00	2024-11-06T21:00:00	6	Velocidad del viento	0
107878	7	Sololá	702	San José Chacayá	5	Chacayá	7	Julio	2023-07-16T00:00:00	2024-11-06T21:00:00	7	Dirección del viento	0
107879	7	Sololá	702	San José Chacayá	5	Chacayá	7	Julio	2023-07-16T00:00:00	2024-11-06T21:00:00	1	Precipitación	0
107880	7	Sololá	702	San José Chacayá	5	Chacayá	7	Julio	2023-07-16T00:00:00	2024-11-06T21:00:00	8	Radiación solar	0
107881	7	Sololá	702	San José Chacayá	5	Chacayá	7	Julio	2023-07-16T00:00:00	2024-11-06T22:00:00	2	Temperatura media	13.2
107882	7	Sololá	702	San José Chacayá	5	Chacayá	7	Julio	2023-07-16T00:00:00	2024-11-06T22:00:00	4	Temperatura máxima	13.6
107883	7	Sololá	702	San José Chacayá	5	Chacayá	7	Julio	2023-07-16T00:00:00	2024-11-06T22:00:00	3	Temperatura mínima	13.2
107884	7	Sololá	702	San José Chacayá	5	Chacayá	7	Julio	2023-07-16T00:00:00	2024-11-06T22:00:00	5	Humedad	72
107885	7	Sololá	702	San José Chacayá	5	Chacayá	7	Julio	2023-07-16T00:00:00	2024-11-06T22:00:00	6	Velocidad del viento	0
107886	7	Sololá	702	San José Chacayá	5	Chacayá	7	Julio	2023-07-16T00:00:00	2024-11-06T22:00:00	7	Dirección del viento	0
107887	7	Sololá	702	San José Chacayá	5	Chacayá	7	Julio	2023-07-16T00:00:00	2024-11-06T22:00:00	1	Precipitación	0
107888	7	Sololá	702	San José Chacayá	5	Chacayá	7	Julio	2023-07-16T00:00:00	2024-11-06T22:00:00	8	Radiación solar	0
107889	7	Sololá	702	San José Chacayá	5	Chacayá	7	Julio	2023-07-16T00:00:00	2024-11-06T23:00:00	2	Temperatura media	13.1
107890	7	Sololá	702	San José Chacayá	5	Chacayá	7	Julio	2023-07-16T00:00:00	2024-11-06T23:00:00	4	Temperatura máxima	13.3
107891	7	Sololá	702	San José Chacayá	5	Chacayá	7	Julio	2023-07-16T00:00:00	2024-11-06T23:00:00	3	Temperatura mínima	13
107892	7	Sololá	702	San José Chacayá	5	Chacayá	7	Julio	2023-07-16T00:00:00	2024-11-06T23:00:00	5	Humedad	93
107893	7	Sololá	702	San José Chacayá	5	Chacayá	7	Julio	2023-07-16T00:00:00	2024-11-06T23:00:00	6	Velocidad del viento	1.6
107894	7	Sololá	702	San José Chacayá	5	Chacayá	7	Julio	2023-07-16T00:00:00	2024-11-06T23:00:00	7	Dirección del viento	1.61
107895	7	Sololá	702	San José Chacayá	5	Chacayá	7	Julio	2023-07-16T00:00:00	2024-11-06T23:00:00	1	Precipitación	0
107896	7	Sololá	702	San José Chacayá	5	Chacayá	7	Julio	2023-07-16T00:00:00	2024-11-06T23:00:00	8	Radiación solar	0
107897	7	Sololá	702	San José Chacayá	5	Chacayá	7	Julio	2023-07-17T00:00:00	2024-11-06T00:00:00	2	Temperatura media	13
107898	7	Sololá	702	San José Chacayá	5	Chacayá	7	Julio	2023-07-17T00:00:00	2024-11-06T00:00:00	4	Temperatura máxima	13.1
107899	7	Sololá	702	San José Chacayá	5	Chacayá	7	Julio	2023-07-17T00:00:00	2024-11-06T00:00:00	3	Temperatura mínima	13
107900	7	Sololá	702	San José Chacayá	5	Chacayá	7	Julio	2023-07-17T00:00:00	2024-11-06T00:00:00	5	Humedad	93
107901	7	Sololá	702	San José Chacayá	5	Chacayá	7	Julio	2023-07-17T00:00:00	2024-11-06T00:00:00	6	Velocidad del viento	0
107902	7	Sololá	702	San José Chacayá	5	Chacayá	7	Julio	2023-07-17T00:00:00	2024-11-06T00:00:00	7	Dirección del viento	0
107903	7	Sololá	702	San José Chacayá	5	Chacayá	7	Julio	2023-07-17T00:00:00	2024-11-06T00:00:00	1	Precipitación	0
107904	7	Sololá	702	San José Chacayá	5	Chacayá	7	Julio	2023-07-17T00:00:00	2024-11-06T00:00:00	8	Radiación solar	0
107905	7	Sololá	702	San José Chacayá	5	Chacayá	7	Julio	2023-07-17T00:00:00	2024-11-06T01:00:00	2	Temperatura media	13.4
107906	7	Sololá	702	San José Chacayá	5	Chacayá	7	Julio	2023-07-17T00:00:00	2024-11-06T01:00:00	4	Temperatura máxima	13.4
107907	7	Sololá	702	San José Chacayá	5	Chacayá	7	Julio	2023-07-17T00:00:00	2024-11-06T01:00:00	3	Temperatura mínima	12.8
107908	7	Sololá	702	San José Chacayá	5	Chacayá	7	Julio	2023-07-17T00:00:00	2024-11-06T01:00:00	5	Humedad	89
107909	7	Sololá	702	San José Chacayá	5	Chacayá	7	Julio	2023-07-17T00:00:00	2024-11-06T01:00:00	6	Velocidad del viento	1.6
107910	7	Sololá	702	San José Chacayá	5	Chacayá	7	Julio	2023-07-17T00:00:00	2024-11-06T01:00:00	7	Dirección del viento	1.61
107911	7	Sololá	702	San José Chacayá	5	Chacayá	7	Julio	2023-07-17T00:00:00	2024-11-06T01:00:00	1	Precipitación	0
107912	7	Sololá	702	San José Chacayá	5	Chacayá	7	Julio	2023-07-17T00:00:00	2024-11-06T01:00:00	8	Radiación solar	0
107913	7	Sololá	702	San José Chacayá	5	Chacayá	7	Julio	2023-07-17T00:00:00	2024-11-06T02:00:00	2	Temperatura media	13.8
107914	7	Sololá	702	San José Chacayá	5	Chacayá	7	Julio	2023-07-17T00:00:00	2024-11-06T02:00:00	4	Temperatura máxima	13.8
107915	7	Sololá	702	San José Chacayá	5	Chacayá	7	Julio	2023-07-17T00:00:00	2024-11-06T02:00:00	3	Temperatura mínima	13.4
107916	7	Sololá	702	San José Chacayá	5	Chacayá	7	Julio	2023-07-17T00:00:00	2024-11-06T02:00:00	5	Humedad	85
107917	7	Sololá	702	San José Chacayá	5	Chacayá	7	Julio	2023-07-17T00:00:00	2024-11-06T02:00:00	6	Velocidad del viento	1.6
107918	7	Sololá	702	San José Chacayá	5	Chacayá	7	Julio	2023-07-17T00:00:00	2024-11-06T02:00:00	7	Dirección del viento	1.61
107919	7	Sololá	702	San José Chacayá	5	Chacayá	7	Julio	2023-07-17T00:00:00	2024-11-06T02:00:00	1	Precipitación	0
107920	7	Sololá	702	San José Chacayá	5	Chacayá	7	Julio	2023-07-17T00:00:00	2024-11-06T02:00:00	8	Radiación solar	0
107921	7	Sololá	702	San José Chacayá	5	Chacayá	7	Julio	2023-07-17T00:00:00	2024-11-06T03:00:00	2	Temperatura media	12.9
107922	7	Sololá	702	San José Chacayá	5	Chacayá	7	Julio	2023-07-17T00:00:00	2024-11-06T03:00:00	4	Temperatura máxima	13.9
107923	7	Sololá	702	San José Chacayá	5	Chacayá	7	Julio	2023-07-17T00:00:00	2024-11-06T03:00:00	3	Temperatura mínima	12.9
107924	7	Sololá	702	San José Chacayá	5	Chacayá	7	Julio	2023-07-17T00:00:00	2024-11-06T03:00:00	5	Humedad	90
107925	7	Sololá	702	San José Chacayá	5	Chacayá	7	Julio	2023-07-17T00:00:00	2024-11-06T03:00:00	6	Velocidad del viento	1.6
107926	7	Sololá	702	San José Chacayá	5	Chacayá	7	Julio	2023-07-17T00:00:00	2024-11-06T03:00:00	7	Dirección del viento	1.61
107927	7	Sololá	702	San José Chacayá	5	Chacayá	7	Julio	2023-07-17T00:00:00	2024-11-06T03:00:00	1	Precipitación	0
107928	7	Sololá	702	San José Chacayá	5	Chacayá	7	Julio	2023-07-17T00:00:00	2024-11-06T03:00:00	8	Radiación solar	0
107929	7	Sololá	702	San José Chacayá	5	Chacayá	7	Julio	2023-07-17T00:00:00	2024-11-06T04:00:00	2	Temperatura media	14.1
107930	7	Sololá	702	San José Chacayá	5	Chacayá	7	Julio	2023-07-17T00:00:00	2024-11-06T04:00:00	4	Temperatura máxima	14.1
107931	7	Sololá	702	San José Chacayá	5	Chacayá	7	Julio	2023-07-17T00:00:00	2024-11-06T04:00:00	3	Temperatura mínima	12.9
107932	7	Sololá	702	San José Chacayá	5	Chacayá	7	Julio	2023-07-17T00:00:00	2024-11-06T04:00:00	5	Humedad	85
107933	7	Sololá	702	San José Chacayá	5	Chacayá	7	Julio	2023-07-17T00:00:00	2024-11-06T04:00:00	6	Velocidad del viento	1.6
107934	7	Sololá	702	San José Chacayá	5	Chacayá	7	Julio	2023-07-17T00:00:00	2024-11-06T04:00:00	7	Dirección del viento	1.61
107935	7	Sololá	702	San José Chacayá	5	Chacayá	7	Julio	2023-07-17T00:00:00	2024-11-06T04:00:00	1	Precipitación	0
107936	7	Sololá	702	San José Chacayá	5	Chacayá	7	Julio	2023-07-17T00:00:00	2024-11-06T04:00:00	8	Radiación solar	0
107937	7	Sololá	702	San José Chacayá	5	Chacayá	7	Julio	2023-07-17T00:00:00	2024-11-06T05:00:00	2	Temperatura media	14
107938	7	Sololá	702	San José Chacayá	5	Chacayá	7	Julio	2023-07-17T00:00:00	2024-11-06T05:00:00	4	Temperatura máxima	14.2
107939	7	Sololá	702	San José Chacayá	5	Chacayá	7	Julio	2023-07-17T00:00:00	2024-11-06T05:00:00	3	Temperatura mínima	13.9
107940	7	Sololá	702	San José Chacayá	5	Chacayá	7	Julio	2023-07-17T00:00:00	2024-11-06T05:00:00	5	Humedad	79
107941	7	Sololá	702	San José Chacayá	5	Chacayá	7	Julio	2023-07-17T00:00:00	2024-11-06T05:00:00	6	Velocidad del viento	4.8
107942	7	Sololá	702	San José Chacayá	5	Chacayá	7	Julio	2023-07-17T00:00:00	2024-11-06T05:00:00	7	Dirección del viento	4.83
107943	7	Sololá	702	San José Chacayá	5	Chacayá	7	Julio	2023-07-17T00:00:00	2024-11-06T05:00:00	1	Precipitación	0
107944	7	Sololá	702	San José Chacayá	5	Chacayá	7	Julio	2023-07-17T00:00:00	2024-11-06T05:00:00	8	Radiación solar	0
107945	7	Sololá	702	San José Chacayá	5	Chacayá	7	Julio	2023-07-17T00:00:00	2024-11-06T06:00:00	2	Temperatura media	14.3
107946	7	Sololá	702	San José Chacayá	5	Chacayá	7	Julio	2023-07-17T00:00:00	2024-11-06T06:00:00	4	Temperatura máxima	14.3
107947	7	Sololá	702	San José Chacayá	5	Chacayá	7	Julio	2023-07-17T00:00:00	2024-11-06T06:00:00	3	Temperatura mínima	14
107948	7	Sololá	702	San José Chacayá	5	Chacayá	7	Julio	2023-07-17T00:00:00	2024-11-06T06:00:00	5	Humedad	72
107949	7	Sololá	702	San José Chacayá	5	Chacayá	7	Julio	2023-07-17T00:00:00	2024-11-06T06:00:00	6	Velocidad del viento	6.4
107950	7	Sololá	702	San José Chacayá	5	Chacayá	7	Julio	2023-07-17T00:00:00	2024-11-06T06:00:00	7	Dirección del viento	6.44
107951	7	Sololá	702	San José Chacayá	5	Chacayá	7	Julio	2023-07-17T00:00:00	2024-11-06T06:00:00	1	Precipitación	0
107952	7	Sololá	702	San José Chacayá	5	Chacayá	7	Julio	2023-07-17T00:00:00	2024-11-06T06:00:00	8	Radiación solar	2
107953	7	Sololá	702	San José Chacayá	5	Chacayá	7	Julio	2023-07-17T00:00:00	2024-11-06T07:00:00	2	Temperatura media	15.2
107954	7	Sololá	702	San José Chacayá	5	Chacayá	7	Julio	2023-07-17T00:00:00	2024-11-06T07:00:00	4	Temperatura máxima	15.8
107955	7	Sololá	702	San José Chacayá	5	Chacayá	7	Julio	2023-07-17T00:00:00	2024-11-06T07:00:00	3	Temperatura mínima	14.8
107956	7	Sololá	702	San José Chacayá	5	Chacayá	7	Julio	2023-07-17T00:00:00	2024-11-06T07:00:00	5	Humedad	70
107957	7	Sololá	702	San José Chacayá	5	Chacayá	7	Julio	2023-07-17T00:00:00	2024-11-06T07:00:00	6	Velocidad del viento	0
107958	7	Sololá	702	San José Chacayá	5	Chacayá	7	Julio	2023-07-17T00:00:00	2024-11-06T07:00:00	7	Dirección del viento	0
107959	7	Sololá	702	San José Chacayá	5	Chacayá	7	Julio	2023-07-17T00:00:00	2024-11-06T07:00:00	1	Precipitación	0
107960	7	Sololá	702	San José Chacayá	5	Chacayá	7	Julio	2023-07-17T00:00:00	2024-11-06T07:00:00	8	Radiación solar	25
107961	7	Sololá	702	San José Chacayá	5	Chacayá	7	Julio	2023-07-17T00:00:00	2024-11-06T08:00:00	2	Temperatura media	16.7
107962	7	Sololá	702	San José Chacayá	5	Chacayá	7	Julio	2023-07-17T00:00:00	2024-11-06T08:00:00	4	Temperatura máxima	16.7
107963	7	Sololá	702	San José Chacayá	5	Chacayá	7	Julio	2023-07-17T00:00:00	2024-11-06T08:00:00	3	Temperatura mínima	16.1
107964	7	Sololá	702	San José Chacayá	5	Chacayá	7	Julio	2023-07-17T00:00:00	2024-11-06T08:00:00	5	Humedad	66
107965	7	Sololá	702	San José Chacayá	5	Chacayá	7	Julio	2023-07-17T00:00:00	2024-11-06T08:00:00	6	Velocidad del viento	4.8
107966	7	Sololá	702	San José Chacayá	5	Chacayá	7	Julio	2023-07-17T00:00:00	2024-11-06T08:00:00	7	Dirección del viento	4.83
107967	7	Sololá	702	San José Chacayá	5	Chacayá	7	Julio	2023-07-17T00:00:00	2024-11-06T08:00:00	1	Precipitación	0
107968	7	Sololá	702	San José Chacayá	5	Chacayá	7	Julio	2023-07-17T00:00:00	2024-11-06T08:00:00	8	Radiación solar	47
107969	7	Sololá	702	San José Chacayá	5	Chacayá	7	Julio	2023-07-17T00:00:00	2024-11-06T09:00:00	2	Temperatura media	19.1
107970	7	Sololá	702	San José Chacayá	5	Chacayá	7	Julio	2023-07-17T00:00:00	2024-11-06T09:00:00	4	Temperatura máxima	19.2
107971	7	Sololá	702	San José Chacayá	5	Chacayá	7	Julio	2023-07-17T00:00:00	2024-11-06T09:00:00	3	Temperatura mínima	16.7
107972	7	Sololá	702	San José Chacayá	5	Chacayá	7	Julio	2023-07-17T00:00:00	2024-11-06T09:00:00	5	Humedad	58
107973	7	Sololá	702	San José Chacayá	5	Chacayá	7	Julio	2023-07-17T00:00:00	2024-11-06T09:00:00	6	Velocidad del viento	4.8
107974	7	Sololá	702	San José Chacayá	5	Chacayá	7	Julio	2023-07-17T00:00:00	2024-11-06T09:00:00	7	Dirección del viento	4.83
107975	7	Sololá	702	San José Chacayá	5	Chacayá	7	Julio	2023-07-17T00:00:00	2024-11-06T09:00:00	1	Precipitación	0
107976	7	Sololá	702	San José Chacayá	5	Chacayá	7	Julio	2023-07-17T00:00:00	2024-11-06T09:00:00	8	Radiación solar	436
107977	7	Sololá	702	San José Chacayá	5	Chacayá	7	Julio	2023-07-17T00:00:00	2024-11-06T10:00:00	2	Temperatura media	19.6
107978	7	Sololá	702	San José Chacayá	5	Chacayá	7	Julio	2023-07-17T00:00:00	2024-11-06T10:00:00	4	Temperatura máxima	19.7
107979	7	Sololá	702	San José Chacayá	5	Chacayá	7	Julio	2023-07-17T00:00:00	2024-11-06T10:00:00	3	Temperatura mínima	19.1
107980	7	Sololá	702	San José Chacayá	5	Chacayá	7	Julio	2023-07-17T00:00:00	2024-11-06T10:00:00	5	Humedad	63
107981	7	Sololá	702	San José Chacayá	5	Chacayá	7	Julio	2023-07-17T00:00:00	2024-11-06T10:00:00	6	Velocidad del viento	4.8
107982	7	Sololá	702	San José Chacayá	5	Chacayá	7	Julio	2023-07-17T00:00:00	2024-11-06T10:00:00	7	Dirección del viento	4.83
107983	7	Sololá	702	San José Chacayá	5	Chacayá	7	Julio	2023-07-17T00:00:00	2024-11-06T10:00:00	1	Precipitación	0
107984	7	Sololá	702	San José Chacayá	5	Chacayá	7	Julio	2023-07-17T00:00:00	2024-11-06T10:00:00	8	Radiación solar	760
107985	7	Sololá	702	San José Chacayá	5	Chacayá	7	Julio	2023-07-17T00:00:00	2024-11-06T11:00:00	2	Temperatura media	21.2
107986	7	Sololá	702	San José Chacayá	5	Chacayá	7	Julio	2023-07-17T00:00:00	2024-11-06T11:00:00	4	Temperatura máxima	21.4
107987	7	Sololá	702	San José Chacayá	5	Chacayá	7	Julio	2023-07-17T00:00:00	2024-11-06T11:00:00	3	Temperatura mínima	19.6
107988	7	Sololá	702	San José Chacayá	5	Chacayá	7	Julio	2023-07-17T00:00:00	2024-11-06T11:00:00	5	Humedad	58
107989	7	Sololá	702	San José Chacayá	5	Chacayá	7	Julio	2023-07-17T00:00:00	2024-11-06T11:00:00	6	Velocidad del viento	4.8
107990	7	Sololá	702	San José Chacayá	5	Chacayá	7	Julio	2023-07-17T00:00:00	2024-11-06T11:00:00	7	Dirección del viento	4.83
107991	7	Sololá	702	San José Chacayá	5	Chacayá	7	Julio	2023-07-17T00:00:00	2024-11-06T11:00:00	1	Precipitación	0
107992	7	Sololá	702	San José Chacayá	5	Chacayá	7	Julio	2023-07-17T00:00:00	2024-11-06T11:00:00	8	Radiación solar	895
107993	7	Sololá	702	San José Chacayá	5	Chacayá	7	Julio	2023-07-17T00:00:00	2024-11-06T12:00:00	2	Temperatura media	22.2
107994	7	Sololá	702	San José Chacayá	5	Chacayá	7	Julio	2023-07-17T00:00:00	2024-11-06T12:00:00	4	Temperatura máxima	22.2
107995	7	Sololá	702	San José Chacayá	5	Chacayá	7	Julio	2023-07-17T00:00:00	2024-11-06T12:00:00	3	Temperatura mínima	21.2
107996	7	Sololá	702	San José Chacayá	5	Chacayá	7	Julio	2023-07-17T00:00:00	2024-11-06T12:00:00	5	Humedad	53
107997	7	Sololá	702	San José Chacayá	5	Chacayá	7	Julio	2023-07-17T00:00:00	2024-11-06T12:00:00	6	Velocidad del viento	4.8
107998	7	Sololá	702	San José Chacayá	5	Chacayá	7	Julio	2023-07-17T00:00:00	2024-11-06T12:00:00	7	Dirección del viento	4.83
107999	7	Sololá	702	San José Chacayá	5	Chacayá	7	Julio	2023-07-17T00:00:00	2024-11-06T12:00:00	1	Precipitación	0
108000	7	Sololá	702	San José Chacayá	5	Chacayá	7	Julio	2023-07-17T00:00:00	2024-11-06T12:00:00	8	Radiación solar	1003
108001	7	Sololá	702	San José Chacayá	5	Chacayá	7	Julio	2023-07-17T00:00:00	2024-11-06T13:00:00	2	Temperatura media	21.4
108002	7	Sololá	702	San José Chacayá	5	Chacayá	7	Julio	2023-07-17T00:00:00	2024-11-06T13:00:00	4	Temperatura máxima	22.7
108003	7	Sololá	702	San José Chacayá	5	Chacayá	7	Julio	2023-07-17T00:00:00	2024-11-06T13:00:00	3	Temperatura mínima	21.4
108004	7	Sololá	702	San José Chacayá	5	Chacayá	7	Julio	2023-07-17T00:00:00	2024-11-06T13:00:00	5	Humedad	58
108005	7	Sololá	702	San José Chacayá	5	Chacayá	7	Julio	2023-07-17T00:00:00	2024-11-06T13:00:00	6	Velocidad del viento	6.4
108006	7	Sololá	702	San José Chacayá	5	Chacayá	7	Julio	2023-07-17T00:00:00	2024-11-06T13:00:00	7	Dirección del viento	6.44
108007	7	Sololá	702	San José Chacayá	5	Chacayá	7	Julio	2023-07-17T00:00:00	2024-11-06T13:00:00	1	Precipitación	0
108008	7	Sololá	702	San José Chacayá	5	Chacayá	7	Julio	2023-07-17T00:00:00	2024-11-06T13:00:00	8	Radiación solar	1034
108009	7	Sololá	702	San José Chacayá	5	Chacayá	7	Julio	2023-07-17T00:00:00	2024-11-06T14:00:00	2	Temperatura media	22.5
108010	7	Sololá	702	San José Chacayá	5	Chacayá	7	Julio	2023-07-17T00:00:00	2024-11-06T14:00:00	4	Temperatura máxima	23
108011	7	Sololá	702	San José Chacayá	5	Chacayá	7	Julio	2023-07-17T00:00:00	2024-11-06T14:00:00	3	Temperatura mínima	21.4
108012	7	Sololá	702	San José Chacayá	5	Chacayá	7	Julio	2023-07-17T00:00:00	2024-11-06T14:00:00	5	Humedad	50
108013	7	Sololá	702	San José Chacayá	5	Chacayá	7	Julio	2023-07-17T00:00:00	2024-11-06T14:00:00	6	Velocidad del viento	4.8
108014	7	Sololá	702	San José Chacayá	5	Chacayá	7	Julio	2023-07-17T00:00:00	2024-11-06T14:00:00	7	Dirección del viento	4.83
108015	7	Sololá	702	San José Chacayá	5	Chacayá	7	Julio	2023-07-17T00:00:00	2024-11-06T14:00:00	1	Precipitación	0
108016	7	Sololá	702	San José Chacayá	5	Chacayá	7	Julio	2023-07-17T00:00:00	2024-11-06T14:00:00	8	Radiación solar	919
108017	7	Sololá	702	San José Chacayá	5	Chacayá	7	Julio	2023-07-17T00:00:00	2024-11-06T15:00:00	2	Temperatura media	22.5
108018	7	Sololá	702	San José Chacayá	5	Chacayá	7	Julio	2023-07-17T00:00:00	2024-11-06T15:00:00	4	Temperatura máxima	22.7
108019	7	Sololá	702	San José Chacayá	5	Chacayá	7	Julio	2023-07-17T00:00:00	2024-11-06T15:00:00	3	Temperatura mínima	22.2
108020	7	Sololá	702	San José Chacayá	5	Chacayá	7	Julio	2023-07-17T00:00:00	2024-11-06T15:00:00	5	Humedad	53
108021	7	Sololá	702	San José Chacayá	5	Chacayá	7	Julio	2023-07-17T00:00:00	2024-11-06T15:00:00	6	Velocidad del viento	4.8
108022	7	Sololá	702	San José Chacayá	5	Chacayá	7	Julio	2023-07-17T00:00:00	2024-11-06T15:00:00	7	Dirección del viento	4.83
108023	7	Sololá	702	San José Chacayá	5	Chacayá	7	Julio	2023-07-17T00:00:00	2024-11-06T15:00:00	1	Precipitación	0
108024	7	Sololá	702	San José Chacayá	5	Chacayá	7	Julio	2023-07-17T00:00:00	2024-11-06T15:00:00	8	Radiación solar	883
108025	7	Sololá	702	San José Chacayá	5	Chacayá	7	Julio	2023-07-17T00:00:00	2024-11-06T16:00:00	2	Temperatura media	22.2
108026	7	Sololá	702	San José Chacayá	5	Chacayá	7	Julio	2023-07-17T00:00:00	2024-11-06T16:00:00	4	Temperatura máxima	22.9
108027	7	Sololá	702	San José Chacayá	5	Chacayá	7	Julio	2023-07-17T00:00:00	2024-11-06T16:00:00	3	Temperatura mínima	21.9
108028	7	Sololá	702	San José Chacayá	5	Chacayá	7	Julio	2023-07-17T00:00:00	2024-11-06T16:00:00	5	Humedad	55
108029	7	Sololá	702	San José Chacayá	5	Chacayá	7	Julio	2023-07-17T00:00:00	2024-11-06T16:00:00	6	Velocidad del viento	4.8
108030	7	Sololá	702	San José Chacayá	5	Chacayá	7	Julio	2023-07-17T00:00:00	2024-11-06T16:00:00	7	Dirección del viento	4.83
108031	7	Sololá	702	San José Chacayá	5	Chacayá	7	Julio	2023-07-17T00:00:00	2024-11-06T16:00:00	1	Precipitación	0
108032	7	Sololá	702	San José Chacayá	5	Chacayá	7	Julio	2023-07-17T00:00:00	2024-11-06T16:00:00	8	Radiación solar	568
108033	7	Sololá	702	San José Chacayá	5	Chacayá	7	Julio	2023-07-17T00:00:00	2024-11-06T17:00:00	2	Temperatura media	21.2
108034	7	Sololá	702	San José Chacayá	5	Chacayá	7	Julio	2023-07-17T00:00:00	2024-11-06T17:00:00	4	Temperatura máxima	22.2
108035	7	Sololá	702	San José Chacayá	5	Chacayá	7	Julio	2023-07-17T00:00:00	2024-11-06T17:00:00	3	Temperatura mínima	20.7
108036	7	Sololá	702	San José Chacayá	5	Chacayá	7	Julio	2023-07-17T00:00:00	2024-11-06T17:00:00	5	Humedad	56
108037	7	Sololá	702	San José Chacayá	5	Chacayá	7	Julio	2023-07-17T00:00:00	2024-11-06T17:00:00	6	Velocidad del viento	4.8
108038	7	Sololá	702	San José Chacayá	5	Chacayá	7	Julio	2023-07-17T00:00:00	2024-11-06T17:00:00	7	Dirección del viento	4.83
108039	7	Sololá	702	San José Chacayá	5	Chacayá	7	Julio	2023-07-17T00:00:00	2024-11-06T17:00:00	1	Precipitación	0
108040	7	Sololá	702	San José Chacayá	5	Chacayá	7	Julio	2023-07-17T00:00:00	2024-11-06T17:00:00	8	Radiación solar	322
108041	7	Sololá	702	San José Chacayá	5	Chacayá	7	Julio	2023-07-17T00:00:00	2024-11-06T18:00:00	2	Temperatura media	18.4
108042	7	Sololá	702	San José Chacayá	5	Chacayá	7	Julio	2023-07-17T00:00:00	2024-11-06T18:00:00	4	Temperatura máxima	21.2
108043	7	Sololá	702	San José Chacayá	5	Chacayá	7	Julio	2023-07-17T00:00:00	2024-11-06T18:00:00	3	Temperatura mínima	18.4
108044	7	Sololá	702	San José Chacayá	5	Chacayá	7	Julio	2023-07-17T00:00:00	2024-11-06T18:00:00	5	Humedad	67
108045	7	Sololá	702	San José Chacayá	5	Chacayá	7	Julio	2023-07-17T00:00:00	2024-11-06T18:00:00	6	Velocidad del viento	3.2
108046	7	Sololá	702	San José Chacayá	5	Chacayá	7	Julio	2023-07-17T00:00:00	2024-11-06T18:00:00	7	Dirección del viento	3.22
108047	7	Sololá	702	San José Chacayá	5	Chacayá	7	Julio	2023-07-17T00:00:00	2024-11-06T18:00:00	1	Precipitación	0
108048	7	Sololá	702	San José Chacayá	5	Chacayá	7	Julio	2023-07-17T00:00:00	2024-11-06T18:00:00	8	Radiación solar	42
108049	7	Sololá	702	San José Chacayá	5	Chacayá	7	Julio	2023-07-17T00:00:00	2024-11-06T19:00:00	2	Temperatura media	16.6
108050	7	Sololá	702	San José Chacayá	5	Chacayá	7	Julio	2023-07-17T00:00:00	2024-11-06T19:00:00	4	Temperatura máxima	18.4
108051	7	Sololá	702	San José Chacayá	5	Chacayá	7	Julio	2023-07-17T00:00:00	2024-11-06T19:00:00	3	Temperatura mínima	16.6
108052	7	Sololá	702	San José Chacayá	5	Chacayá	7	Julio	2023-07-17T00:00:00	2024-11-06T19:00:00	5	Humedad	77
108053	7	Sololá	702	San José Chacayá	5	Chacayá	7	Julio	2023-07-17T00:00:00	2024-11-06T19:00:00	6	Velocidad del viento	3.2
108054	7	Sololá	702	San José Chacayá	5	Chacayá	7	Julio	2023-07-17T00:00:00	2024-11-06T19:00:00	7	Dirección del viento	3.22
108055	7	Sololá	702	San José Chacayá	5	Chacayá	7	Julio	2023-07-17T00:00:00	2024-11-06T19:00:00	1	Precipitación	0
108056	7	Sololá	702	San José Chacayá	5	Chacayá	7	Julio	2023-07-17T00:00:00	2024-11-06T19:00:00	8	Radiación solar	0
108057	7	Sololá	702	San José Chacayá	5	Chacayá	7	Julio	2023-07-17T00:00:00	2024-11-06T20:00:00	2	Temperatura media	16.2
108058	7	Sololá	702	San José Chacayá	5	Chacayá	7	Julio	2023-07-17T00:00:00	2024-11-06T20:00:00	4	Temperatura máxima	16.6
108059	7	Sololá	702	San José Chacayá	5	Chacayá	7	Julio	2023-07-17T00:00:00	2024-11-06T20:00:00	3	Temperatura mínima	16.1
108060	7	Sololá	702	San José Chacayá	5	Chacayá	7	Julio	2023-07-17T00:00:00	2024-11-06T20:00:00	5	Humedad	76
108061	7	Sololá	702	San José Chacayá	5	Chacayá	7	Julio	2023-07-17T00:00:00	2024-11-06T20:00:00	6	Velocidad del viento	3.2
108062	7	Sololá	702	San José Chacayá	5	Chacayá	7	Julio	2023-07-17T00:00:00	2024-11-06T20:00:00	7	Dirección del viento	3.22
108063	7	Sololá	702	San José Chacayá	5	Chacayá	7	Julio	2023-07-17T00:00:00	2024-11-06T20:00:00	1	Precipitación	0
108064	7	Sololá	702	San José Chacayá	5	Chacayá	7	Julio	2023-07-17T00:00:00	2024-11-06T20:00:00	8	Radiación solar	0
108065	7	Sololá	702	San José Chacayá	5	Chacayá	7	Julio	2023-07-17T00:00:00	2024-11-06T21:00:00	2	Temperatura media	15.6
108066	7	Sololá	702	San José Chacayá	5	Chacayá	7	Julio	2023-07-17T00:00:00	2024-11-06T21:00:00	4	Temperatura máxima	16.2
108067	7	Sololá	702	San José Chacayá	5	Chacayá	7	Julio	2023-07-17T00:00:00	2024-11-06T21:00:00	3	Temperatura mínima	15.6
108068	7	Sololá	702	San José Chacayá	5	Chacayá	7	Julio	2023-07-17T00:00:00	2024-11-06T21:00:00	5	Humedad	76
108069	7	Sololá	702	San José Chacayá	5	Chacayá	7	Julio	2023-07-17T00:00:00	2024-11-06T21:00:00	6	Velocidad del viento	4.8
108070	7	Sololá	702	San José Chacayá	5	Chacayá	7	Julio	2023-07-17T00:00:00	2024-11-06T21:00:00	7	Dirección del viento	4.83
108071	7	Sololá	702	San José Chacayá	5	Chacayá	7	Julio	2023-07-17T00:00:00	2024-11-06T21:00:00	1	Precipitación	0
108072	7	Sololá	702	San José Chacayá	5	Chacayá	7	Julio	2023-07-17T00:00:00	2024-11-06T21:00:00	8	Radiación solar	0
108073	7	Sololá	702	San José Chacayá	5	Chacayá	7	Julio	2023-07-17T00:00:00	2024-11-06T22:00:00	2	Temperatura media	15.6
108074	7	Sololá	702	San José Chacayá	5	Chacayá	7	Julio	2023-07-17T00:00:00	2024-11-06T22:00:00	4	Temperatura máxima	15.6
108075	7	Sololá	702	San José Chacayá	5	Chacayá	7	Julio	2023-07-17T00:00:00	2024-11-06T22:00:00	3	Temperatura mínima	15.4
108076	7	Sololá	702	San José Chacayá	5	Chacayá	7	Julio	2023-07-17T00:00:00	2024-11-06T22:00:00	5	Humedad	75
108077	7	Sololá	702	San José Chacayá	5	Chacayá	7	Julio	2023-07-17T00:00:00	2024-11-06T22:00:00	6	Velocidad del viento	3.2
108078	7	Sololá	702	San José Chacayá	5	Chacayá	7	Julio	2023-07-17T00:00:00	2024-11-06T22:00:00	7	Dirección del viento	3.22
108079	7	Sololá	702	San José Chacayá	5	Chacayá	7	Julio	2023-07-17T00:00:00	2024-11-06T22:00:00	1	Precipitación	0
108080	7	Sololá	702	San José Chacayá	5	Chacayá	7	Julio	2023-07-17T00:00:00	2024-11-06T22:00:00	8	Radiación solar	0
108081	7	Sololá	702	San José Chacayá	5	Chacayá	7	Julio	2023-07-17T00:00:00	2024-11-06T23:00:00	2	Temperatura media	14.9
108082	7	Sololá	702	San José Chacayá	5	Chacayá	7	Julio	2023-07-17T00:00:00	2024-11-06T23:00:00	4	Temperatura máxima	15.6
108083	7	Sololá	702	San José Chacayá	5	Chacayá	7	Julio	2023-07-17T00:00:00	2024-11-06T23:00:00	3	Temperatura mínima	14.9
108084	7	Sololá	702	San José Chacayá	5	Chacayá	7	Julio	2023-07-17T00:00:00	2024-11-06T23:00:00	5	Humedad	77
108085	7	Sololá	702	San José Chacayá	5	Chacayá	7	Julio	2023-07-17T00:00:00	2024-11-06T23:00:00	6	Velocidad del viento	3.2
108086	7	Sololá	702	San José Chacayá	5	Chacayá	7	Julio	2023-07-17T00:00:00	2024-11-06T23:00:00	7	Dirección del viento	3.22
108087	7	Sololá	702	San José Chacayá	5	Chacayá	7	Julio	2023-07-17T00:00:00	2024-11-06T23:00:00	1	Precipitación	0
108088	7	Sololá	702	San José Chacayá	5	Chacayá	7	Julio	2023-07-17T00:00:00	2024-11-06T23:00:00	8	Radiación solar	0
108089	7	Sololá	702	San José Chacayá	5	Chacayá	7	Julio	2023-07-18T00:00:00	2024-11-06T00:00:00	2	Temperatura media	13.8
108090	7	Sololá	702	San José Chacayá	5	Chacayá	7	Julio	2023-07-18T00:00:00	2024-11-06T00:00:00	4	Temperatura máxima	15
108091	7	Sololá	702	San José Chacayá	5	Chacayá	7	Julio	2023-07-18T00:00:00	2024-11-06T00:00:00	3	Temperatura mínima	13.8
108092	7	Sololá	702	San José Chacayá	5	Chacayá	7	Julio	2023-07-18T00:00:00	2024-11-06T00:00:00	5	Humedad	79
108093	7	Sololá	702	San José Chacayá	5	Chacayá	7	Julio	2023-07-18T00:00:00	2024-11-06T00:00:00	6	Velocidad del viento	1.6
108094	7	Sololá	702	San José Chacayá	5	Chacayá	7	Julio	2023-07-18T00:00:00	2024-11-06T00:00:00	7	Dirección del viento	1.61
108095	7	Sololá	702	San José Chacayá	5	Chacayá	7	Julio	2023-07-18T00:00:00	2024-11-06T00:00:00	1	Precipitación	0
108096	7	Sololá	702	San José Chacayá	5	Chacayá	7	Julio	2023-07-18T00:00:00	2024-11-06T00:00:00	8	Radiación solar	0
108097	7	Sololá	702	San José Chacayá	5	Chacayá	7	Julio	2023-07-18T00:00:00	2024-11-06T01:00:00	2	Temperatura media	13.3
108098	7	Sololá	702	San José Chacayá	5	Chacayá	7	Julio	2023-07-18T00:00:00	2024-11-06T01:00:00	4	Temperatura máxima	13.3
108099	7	Sololá	702	San José Chacayá	5	Chacayá	7	Julio	2023-07-18T00:00:00	2024-11-06T01:00:00	3	Temperatura mínima	12.2
108100	7	Sololá	702	San José Chacayá	5	Chacayá	7	Julio	2023-07-18T00:00:00	2024-11-06T01:00:00	5	Humedad	83
108101	7	Sololá	702	San José Chacayá	5	Chacayá	7	Julio	2023-07-18T00:00:00	2024-11-06T01:00:00	6	Velocidad del viento	1.6
108102	7	Sololá	702	San José Chacayá	5	Chacayá	7	Julio	2023-07-18T00:00:00	2024-11-06T01:00:00	7	Dirección del viento	1.61
108103	7	Sololá	702	San José Chacayá	5	Chacayá	7	Julio	2023-07-18T00:00:00	2024-11-06T01:00:00	1	Precipitación	0
108104	7	Sololá	702	San José Chacayá	5	Chacayá	7	Julio	2023-07-18T00:00:00	2024-11-06T01:00:00	8	Radiación solar	0
108105	7	Sololá	702	San José Chacayá	5	Chacayá	7	Julio	2023-07-18T00:00:00	2024-11-06T02:00:00	2	Temperatura media	12.9
108106	7	Sololá	702	San José Chacayá	5	Chacayá	7	Julio	2023-07-18T00:00:00	2024-11-06T02:00:00	4	Temperatura máxima	13.3
108107	7	Sololá	702	San José Chacayá	5	Chacayá	7	Julio	2023-07-18T00:00:00	2024-11-06T02:00:00	3	Temperatura mínima	12.4
108108	7	Sololá	702	San José Chacayá	5	Chacayá	7	Julio	2023-07-18T00:00:00	2024-11-06T02:00:00	5	Humedad	84
108109	7	Sololá	702	San José Chacayá	5	Chacayá	7	Julio	2023-07-18T00:00:00	2024-11-06T02:00:00	6	Velocidad del viento	1.6
108110	7	Sololá	702	San José Chacayá	5	Chacayá	7	Julio	2023-07-18T00:00:00	2024-11-06T02:00:00	7	Dirección del viento	1.61
108111	7	Sololá	702	San José Chacayá	5	Chacayá	7	Julio	2023-07-18T00:00:00	2024-11-06T02:00:00	1	Precipitación	0
108112	7	Sololá	702	San José Chacayá	5	Chacayá	7	Julio	2023-07-18T00:00:00	2024-11-06T02:00:00	8	Radiación solar	0
108113	7	Sololá	702	San José Chacayá	5	Chacayá	7	Julio	2023-07-18T00:00:00	2024-11-06T03:00:00	2	Temperatura media	13.9
108114	7	Sololá	702	San José Chacayá	5	Chacayá	7	Julio	2023-07-18T00:00:00	2024-11-06T03:00:00	4	Temperatura máxima	13.9
108115	7	Sololá	702	San José Chacayá	5	Chacayá	7	Julio	2023-07-18T00:00:00	2024-11-06T03:00:00	3	Temperatura mínima	13.9
108116	7	Sololá	702	San José Chacayá	5	Chacayá	7	Julio	2023-07-18T00:00:00	2024-11-06T03:00:00	5	Humedad	83
108117	7	Sololá	702	San José Chacayá	5	Chacayá	7	Julio	2023-07-18T00:00:00	2024-11-06T03:00:00	6	Velocidad del viento	4.8
108118	7	Sololá	702	San José Chacayá	5	Chacayá	7	Julio	2023-07-18T00:00:00	2024-11-06T03:00:00	7	Dirección del viento	4.83
108119	7	Sololá	702	San José Chacayá	5	Chacayá	7	Julio	2023-07-18T00:00:00	2024-11-06T03:00:00	1	Precipitación	0
108120	7	Sololá	702	San José Chacayá	5	Chacayá	7	Julio	2023-07-18T00:00:00	2024-11-06T03:00:00	8	Radiación solar	0
108121	7	Sololá	702	San José Chacayá	5	Chacayá	7	Julio	2023-07-18T00:00:00	2024-11-06T04:00:00	2	Temperatura media	14.4
108122	7	Sololá	702	San José Chacayá	5	Chacayá	7	Julio	2023-07-18T00:00:00	2024-11-06T04:00:00	4	Temperatura máxima	14.5
108123	7	Sololá	702	San José Chacayá	5	Chacayá	7	Julio	2023-07-18T00:00:00	2024-11-06T04:00:00	3	Temperatura mínima	13.7
108124	7	Sololá	702	San José Chacayá	5	Chacayá	7	Julio	2023-07-18T00:00:00	2024-11-06T04:00:00	5	Humedad	83
108125	7	Sololá	702	San José Chacayá	5	Chacayá	7	Julio	2023-07-18T00:00:00	2024-11-06T04:00:00	6	Velocidad del viento	3.2
108126	7	Sololá	702	San José Chacayá	5	Chacayá	7	Julio	2023-07-18T00:00:00	2024-11-06T04:00:00	7	Dirección del viento	3.22
108127	7	Sololá	702	San José Chacayá	5	Chacayá	7	Julio	2023-07-18T00:00:00	2024-11-06T04:00:00	1	Precipitación	0
108128	7	Sololá	702	San José Chacayá	5	Chacayá	7	Julio	2023-07-18T00:00:00	2024-11-06T04:00:00	8	Radiación solar	0
108129	7	Sololá	702	San José Chacayá	5	Chacayá	7	Julio	2023-07-18T00:00:00	2024-11-06T05:00:00	2	Temperatura media	14.4
108130	7	Sololá	702	San José Chacayá	5	Chacayá	7	Julio	2023-07-18T00:00:00	2024-11-06T05:00:00	4	Temperatura máxima	14.6
108131	7	Sololá	702	San José Chacayá	5	Chacayá	7	Julio	2023-07-18T00:00:00	2024-11-06T05:00:00	3	Temperatura mínima	14.3
108132	7	Sololá	702	San José Chacayá	5	Chacayá	7	Julio	2023-07-18T00:00:00	2024-11-06T05:00:00	5	Humedad	82
108133	7	Sololá	702	San José Chacayá	5	Chacayá	7	Julio	2023-07-18T00:00:00	2024-11-06T05:00:00	6	Velocidad del viento	3.2
108134	7	Sololá	702	San José Chacayá	5	Chacayá	7	Julio	2023-07-18T00:00:00	2024-11-06T05:00:00	7	Dirección del viento	3.22
108135	7	Sololá	702	San José Chacayá	5	Chacayá	7	Julio	2023-07-18T00:00:00	2024-11-06T05:00:00	1	Precipitación	0
108136	7	Sololá	702	San José Chacayá	5	Chacayá	7	Julio	2023-07-18T00:00:00	2024-11-06T05:00:00	8	Radiación solar	0
108137	7	Sololá	702	San José Chacayá	5	Chacayá	7	Julio	2023-07-18T00:00:00	2024-11-06T06:00:00	2	Temperatura media	14.2
108138	7	Sololá	702	San José Chacayá	5	Chacayá	7	Julio	2023-07-18T00:00:00	2024-11-06T06:00:00	4	Temperatura máxima	14.5
108139	7	Sololá	702	San José Chacayá	5	Chacayá	7	Julio	2023-07-18T00:00:00	2024-11-06T06:00:00	3	Temperatura mínima	14.2
108140	7	Sololá	702	San José Chacayá	5	Chacayá	7	Julio	2023-07-18T00:00:00	2024-11-06T06:00:00	5	Humedad	82
108141	7	Sololá	702	San José Chacayá	5	Chacayá	7	Julio	2023-07-18T00:00:00	2024-11-06T06:00:00	6	Velocidad del viento	3.2
108142	7	Sololá	702	San José Chacayá	5	Chacayá	7	Julio	2023-07-18T00:00:00	2024-11-06T06:00:00	7	Dirección del viento	3.22
108143	7	Sololá	702	San José Chacayá	5	Chacayá	7	Julio	2023-07-18T00:00:00	2024-11-06T06:00:00	1	Precipitación	0
108144	7	Sololá	702	San José Chacayá	5	Chacayá	7	Julio	2023-07-18T00:00:00	2024-11-06T06:00:00	8	Radiación solar	3
108145	7	Sololá	702	San José Chacayá	5	Chacayá	7	Julio	2023-07-18T00:00:00	2024-11-06T07:00:00	2	Temperatura media	15.4
108146	7	Sololá	702	San José Chacayá	5	Chacayá	7	Julio	2023-07-18T00:00:00	2024-11-06T07:00:00	4	Temperatura máxima	15.4
108147	7	Sololá	702	San José Chacayá	5	Chacayá	7	Julio	2023-07-18T00:00:00	2024-11-06T07:00:00	3	Temperatura mínima	14
108148	7	Sololá	702	San José Chacayá	5	Chacayá	7	Julio	2023-07-18T00:00:00	2024-11-06T07:00:00	5	Humedad	76
108149	7	Sololá	702	San José Chacayá	5	Chacayá	7	Julio	2023-07-18T00:00:00	2024-11-06T07:00:00	6	Velocidad del viento	4.8
108150	7	Sololá	702	San José Chacayá	5	Chacayá	7	Julio	2023-07-18T00:00:00	2024-11-06T07:00:00	7	Dirección del viento	4.83
108151	7	Sololá	702	San José Chacayá	5	Chacayá	7	Julio	2023-07-18T00:00:00	2024-11-06T07:00:00	1	Precipitación	0
108152	7	Sololá	702	San José Chacayá	5	Chacayá	7	Julio	2023-07-18T00:00:00	2024-11-06T07:00:00	8	Radiación solar	23
108153	7	Sololá	702	San José Chacayá	5	Chacayá	7	Julio	2023-07-18T00:00:00	2024-11-06T08:00:00	2	Temperatura media	16.7
108154	7	Sololá	702	San José Chacayá	5	Chacayá	7	Julio	2023-07-18T00:00:00	2024-11-06T08:00:00	4	Temperatura máxima	16.7
108155	7	Sololá	702	San José Chacayá	5	Chacayá	7	Julio	2023-07-18T00:00:00	2024-11-06T08:00:00	3	Temperatura mínima	15.4
108156	7	Sololá	702	San José Chacayá	5	Chacayá	7	Julio	2023-07-18T00:00:00	2024-11-06T08:00:00	5	Humedad	73
108157	7	Sololá	702	San José Chacayá	5	Chacayá	7	Julio	2023-07-18T00:00:00	2024-11-06T08:00:00	6	Velocidad del viento	6.4
108158	7	Sololá	702	San José Chacayá	5	Chacayá	7	Julio	2023-07-18T00:00:00	2024-11-06T08:00:00	7	Dirección del viento	6.44
108159	7	Sololá	702	San José Chacayá	5	Chacayá	7	Julio	2023-07-18T00:00:00	2024-11-06T08:00:00	1	Precipitación	0
108160	7	Sololá	702	San José Chacayá	5	Chacayá	7	Julio	2023-07-18T00:00:00	2024-11-06T08:00:00	8	Radiación solar	38
108161	7	Sololá	702	San José Chacayá	5	Chacayá	7	Julio	2023-07-18T00:00:00	2024-11-06T09:00:00	2	Temperatura media	18.2
108162	7	Sololá	702	San José Chacayá	5	Chacayá	7	Julio	2023-07-18T00:00:00	2024-11-06T09:00:00	4	Temperatura máxima	18.3
108163	7	Sololá	702	San José Chacayá	5	Chacayá	7	Julio	2023-07-18T00:00:00	2024-11-06T09:00:00	3	Temperatura mínima	16.9
108164	7	Sololá	702	San José Chacayá	5	Chacayá	7	Julio	2023-07-18T00:00:00	2024-11-06T09:00:00	5	Humedad	68
108165	7	Sololá	702	San José Chacayá	5	Chacayá	7	Julio	2023-07-18T00:00:00	2024-11-06T09:00:00	6	Velocidad del viento	8
108166	7	Sololá	702	San José Chacayá	5	Chacayá	7	Julio	2023-07-18T00:00:00	2024-11-06T09:00:00	7	Dirección del viento	8.05
108167	7	Sololá	702	San José Chacayá	5	Chacayá	7	Julio	2023-07-18T00:00:00	2024-11-06T09:00:00	1	Precipitación	0
108168	7	Sololá	702	San José Chacayá	5	Chacayá	7	Julio	2023-07-18T00:00:00	2024-11-06T09:00:00	8	Radiación solar	425
108169	7	Sololá	702	San José Chacayá	5	Chacayá	7	Julio	2023-07-18T00:00:00	2024-11-06T10:00:00	2	Temperatura media	20.4
108170	7	Sololá	702	San José Chacayá	5	Chacayá	7	Julio	2023-07-18T00:00:00	2024-11-06T10:00:00	4	Temperatura máxima	20.4
108171	7	Sololá	702	San José Chacayá	5	Chacayá	7	Julio	2023-07-18T00:00:00	2024-11-06T10:00:00	3	Temperatura mínima	18.2
108172	7	Sololá	702	San José Chacayá	5	Chacayá	7	Julio	2023-07-18T00:00:00	2024-11-06T10:00:00	5	Humedad	59
108173	7	Sololá	702	San José Chacayá	5	Chacayá	7	Julio	2023-07-18T00:00:00	2024-11-06T10:00:00	6	Velocidad del viento	6.4
108174	7	Sololá	702	San José Chacayá	5	Chacayá	7	Julio	2023-07-18T00:00:00	2024-11-06T10:00:00	7	Dirección del viento	6.44
108175	7	Sololá	702	San José Chacayá	5	Chacayá	7	Julio	2023-07-18T00:00:00	2024-11-06T10:00:00	1	Precipitación	0
108176	7	Sololá	702	San José Chacayá	5	Chacayá	7	Julio	2023-07-18T00:00:00	2024-11-06T10:00:00	8	Radiación solar	790
108177	7	Sololá	702	San José Chacayá	5	Chacayá	7	Julio	2023-07-18T00:00:00	2024-11-06T11:00:00	2	Temperatura media	21.8
108178	7	Sololá	702	San José Chacayá	5	Chacayá	7	Julio	2023-07-18T00:00:00	2024-11-06T11:00:00	4	Temperatura máxima	22.2
108179	7	Sololá	702	San José Chacayá	5	Chacayá	7	Julio	2023-07-18T00:00:00	2024-11-06T11:00:00	3	Temperatura mínima	20.4
108180	7	Sololá	702	San José Chacayá	5	Chacayá	7	Julio	2023-07-18T00:00:00	2024-11-06T11:00:00	5	Humedad	54
108181	7	Sololá	702	San José Chacayá	5	Chacayá	7	Julio	2023-07-18T00:00:00	2024-11-06T11:00:00	6	Velocidad del viento	4.8
108182	7	Sololá	702	San José Chacayá	5	Chacayá	7	Julio	2023-07-18T00:00:00	2024-11-06T11:00:00	7	Dirección del viento	4.83
108183	7	Sololá	702	San José Chacayá	5	Chacayá	7	Julio	2023-07-18T00:00:00	2024-11-06T11:00:00	1	Precipitación	0
108184	7	Sololá	702	San José Chacayá	5	Chacayá	7	Julio	2023-07-18T00:00:00	2024-11-06T11:00:00	8	Radiación solar	890
108185	7	Sololá	702	San José Chacayá	5	Chacayá	7	Julio	2023-07-18T00:00:00	2024-11-06T12:00:00	2	Temperatura media	22.4
108186	7	Sololá	702	San José Chacayá	5	Chacayá	7	Julio	2023-07-18T00:00:00	2024-11-06T12:00:00	4	Temperatura máxima	22.7
108187	7	Sololá	702	San José Chacayá	5	Chacayá	7	Julio	2023-07-18T00:00:00	2024-11-06T12:00:00	3	Temperatura mínima	21.5
108188	7	Sololá	702	San José Chacayá	5	Chacayá	7	Julio	2023-07-18T00:00:00	2024-11-06T12:00:00	5	Humedad	50
108189	7	Sololá	702	San José Chacayá	5	Chacayá	7	Julio	2023-07-18T00:00:00	2024-11-06T12:00:00	6	Velocidad del viento	4.8
108190	7	Sololá	702	San José Chacayá	5	Chacayá	7	Julio	2023-07-18T00:00:00	2024-11-06T12:00:00	7	Dirección del viento	4.83
108191	7	Sololá	702	San José Chacayá	5	Chacayá	7	Julio	2023-07-18T00:00:00	2024-11-06T12:00:00	1	Precipitación	0
108192	7	Sololá	702	San José Chacayá	5	Chacayá	7	Julio	2023-07-18T00:00:00	2024-11-06T12:00:00	8	Radiación solar	772
108193	7	Sololá	702	San José Chacayá	5	Chacayá	7	Julio	2023-07-18T00:00:00	2024-11-06T13:00:00	2	Temperatura media	23.4
108194	7	Sololá	702	San José Chacayá	5	Chacayá	7	Julio	2023-07-18T00:00:00	2024-11-06T13:00:00	4	Temperatura máxima	23.7
108195	7	Sololá	702	San José Chacayá	5	Chacayá	7	Julio	2023-07-18T00:00:00	2024-11-06T13:00:00	3	Temperatura mínima	22.4
108196	7	Sololá	702	San José Chacayá	5	Chacayá	7	Julio	2023-07-18T00:00:00	2024-11-06T13:00:00	5	Humedad	49
108197	7	Sololá	702	San José Chacayá	5	Chacayá	7	Julio	2023-07-18T00:00:00	2024-11-06T13:00:00	6	Velocidad del viento	4.8
108198	7	Sololá	702	San José Chacayá	5	Chacayá	7	Julio	2023-07-18T00:00:00	2024-11-06T13:00:00	7	Dirección del viento	4.83
108199	7	Sololá	702	San José Chacayá	5	Chacayá	7	Julio	2023-07-18T00:00:00	2024-11-06T13:00:00	1	Precipitación	0
108200	7	Sololá	702	San José Chacayá	5	Chacayá	7	Julio	2023-07-18T00:00:00	2024-11-06T13:00:00	8	Radiación solar	310
108201	7	Sololá	702	San José Chacayá	5	Chacayá	7	Julio	2023-07-18T00:00:00	2024-11-06T14:00:00	2	Temperatura media	24.2
108202	7	Sololá	702	San José Chacayá	5	Chacayá	7	Julio	2023-07-18T00:00:00	2024-11-06T14:00:00	4	Temperatura máxima	24.2
108203	7	Sololá	702	San José Chacayá	5	Chacayá	7	Julio	2023-07-18T00:00:00	2024-11-06T14:00:00	3	Temperatura mínima	23.3
108204	7	Sololá	702	San José Chacayá	5	Chacayá	7	Julio	2023-07-18T00:00:00	2024-11-06T14:00:00	5	Humedad	42
108205	7	Sololá	702	San José Chacayá	5	Chacayá	7	Julio	2023-07-18T00:00:00	2024-11-06T14:00:00	6	Velocidad del viento	6.4
108206	7	Sololá	702	San José Chacayá	5	Chacayá	7	Julio	2023-07-18T00:00:00	2024-11-06T14:00:00	7	Dirección del viento	6.44
108207	7	Sololá	702	San José Chacayá	5	Chacayá	7	Julio	2023-07-18T00:00:00	2024-11-06T14:00:00	1	Precipitación	0
108208	7	Sololá	702	San José Chacayá	5	Chacayá	7	Julio	2023-07-18T00:00:00	2024-11-06T14:00:00	8	Radiación solar	812
108209	7	Sololá	702	San José Chacayá	5	Chacayá	7	Julio	2023-07-18T00:00:00	2024-11-06T15:00:00	2	Temperatura media	24.5
108210	7	Sololá	702	San José Chacayá	5	Chacayá	7	Julio	2023-07-18T00:00:00	2024-11-06T15:00:00	4	Temperatura máxima	24.5
108211	7	Sololá	702	San José Chacayá	5	Chacayá	7	Julio	2023-07-18T00:00:00	2024-11-06T15:00:00	3	Temperatura mínima	23.8
108212	7	Sololá	702	San José Chacayá	5	Chacayá	7	Julio	2023-07-18T00:00:00	2024-11-06T15:00:00	5	Humedad	45
108213	7	Sololá	702	San José Chacayá	5	Chacayá	7	Julio	2023-07-18T00:00:00	2024-11-06T15:00:00	6	Velocidad del viento	6.4
108214	7	Sololá	702	San José Chacayá	5	Chacayá	7	Julio	2023-07-18T00:00:00	2024-11-06T15:00:00	7	Dirección del viento	6.44
108215	7	Sololá	702	San José Chacayá	5	Chacayá	7	Julio	2023-07-18T00:00:00	2024-11-06T15:00:00	1	Precipitación	0
108216	7	Sololá	702	San José Chacayá	5	Chacayá	7	Julio	2023-07-18T00:00:00	2024-11-06T15:00:00	8	Radiación solar	336
108217	7	Sololá	702	San José Chacayá	5	Chacayá	7	Julio	2023-07-18T00:00:00	2024-11-06T16:00:00	2	Temperatura media	22.7
108218	7	Sololá	702	San José Chacayá	5	Chacayá	7	Julio	2023-07-18T00:00:00	2024-11-06T16:00:00	4	Temperatura máxima	24.6
108219	7	Sololá	702	San José Chacayá	5	Chacayá	7	Julio	2023-07-18T00:00:00	2024-11-06T16:00:00	3	Temperatura mínima	22.5
108220	7	Sololá	702	San José Chacayá	5	Chacayá	7	Julio	2023-07-18T00:00:00	2024-11-06T16:00:00	5	Humedad	49
108221	7	Sololá	702	San José Chacayá	5	Chacayá	7	Julio	2023-07-18T00:00:00	2024-11-06T16:00:00	6	Velocidad del viento	4.8
108222	7	Sololá	702	San José Chacayá	5	Chacayá	7	Julio	2023-07-18T00:00:00	2024-11-06T16:00:00	7	Dirección del viento	4.83
108223	7	Sololá	702	San José Chacayá	5	Chacayá	7	Julio	2023-07-18T00:00:00	2024-11-06T16:00:00	1	Precipitación	0
108224	7	Sololá	702	San José Chacayá	5	Chacayá	7	Julio	2023-07-18T00:00:00	2024-11-06T16:00:00	8	Radiación solar	180
108225	7	Sololá	702	San José Chacayá	5	Chacayá	7	Julio	2023-07-18T00:00:00	2024-11-06T17:00:00	2	Temperatura media	19.5
108226	7	Sololá	702	San José Chacayá	5	Chacayá	7	Julio	2023-07-18T00:00:00	2024-11-06T17:00:00	4	Temperatura máxima	22.7
108227	7	Sololá	702	San José Chacayá	5	Chacayá	7	Julio	2023-07-18T00:00:00	2024-11-06T17:00:00	3	Temperatura mínima	19.4
108228	7	Sololá	702	San José Chacayá	5	Chacayá	7	Julio	2023-07-18T00:00:00	2024-11-06T17:00:00	5	Humedad	55
108229	7	Sololá	702	San José Chacayá	5	Chacayá	7	Julio	2023-07-18T00:00:00	2024-11-06T17:00:00	6	Velocidad del viento	4.8
108230	7	Sololá	702	San José Chacayá	5	Chacayá	7	Julio	2023-07-18T00:00:00	2024-11-06T17:00:00	7	Dirección del viento	4.83
108231	7	Sololá	702	San José Chacayá	5	Chacayá	7	Julio	2023-07-18T00:00:00	2024-11-06T17:00:00	1	Precipitación	0
108232	7	Sololá	702	San José Chacayá	5	Chacayá	7	Julio	2023-07-18T00:00:00	2024-11-06T17:00:00	8	Radiación solar	298
108233	7	Sololá	702	San José Chacayá	5	Chacayá	7	Julio	2023-07-18T00:00:00	2024-11-06T18:00:00	2	Temperatura media	19.3
108234	7	Sololá	702	San José Chacayá	5	Chacayá	7	Julio	2023-07-18T00:00:00	2024-11-06T18:00:00	4	Temperatura máxima	19.9
108235	7	Sololá	702	San José Chacayá	5	Chacayá	7	Julio	2023-07-18T00:00:00	2024-11-06T18:00:00	3	Temperatura mínima	19.3
108236	7	Sololá	702	San José Chacayá	5	Chacayá	7	Julio	2023-07-18T00:00:00	2024-11-06T18:00:00	5	Humedad	61
108237	7	Sololá	702	San José Chacayá	5	Chacayá	7	Julio	2023-07-18T00:00:00	2024-11-06T18:00:00	6	Velocidad del viento	3.2
108238	7	Sololá	702	San José Chacayá	5	Chacayá	7	Julio	2023-07-18T00:00:00	2024-11-06T18:00:00	7	Dirección del viento	3.22
108239	7	Sololá	702	San José Chacayá	5	Chacayá	7	Julio	2023-07-18T00:00:00	2024-11-06T18:00:00	1	Precipitación	0
108240	7	Sololá	702	San José Chacayá	5	Chacayá	7	Julio	2023-07-18T00:00:00	2024-11-06T18:00:00	8	Radiación solar	90
108241	7	Sololá	702	San José Chacayá	5	Chacayá	7	Julio	2023-07-18T00:00:00	2024-11-06T19:00:00	2	Temperatura media	16.3
108242	7	Sololá	702	San José Chacayá	5	Chacayá	7	Julio	2023-07-18T00:00:00	2024-11-06T19:00:00	4	Temperatura máxima	19.3
108243	7	Sololá	702	San José Chacayá	5	Chacayá	7	Julio	2023-07-18T00:00:00	2024-11-06T19:00:00	3	Temperatura mínima	16.3
108244	7	Sololá	702	San José Chacayá	5	Chacayá	7	Julio	2023-07-18T00:00:00	2024-11-06T19:00:00	5	Humedad	76
108245	7	Sololá	702	San José Chacayá	5	Chacayá	7	Julio	2023-07-18T00:00:00	2024-11-06T19:00:00	6	Velocidad del viento	1.6
108246	7	Sololá	702	San José Chacayá	5	Chacayá	7	Julio	2023-07-18T00:00:00	2024-11-06T19:00:00	7	Dirección del viento	1.61
108247	7	Sololá	702	San José Chacayá	5	Chacayá	7	Julio	2023-07-18T00:00:00	2024-11-06T19:00:00	1	Precipitación	0
108248	7	Sololá	702	San José Chacayá	5	Chacayá	7	Julio	2023-07-18T00:00:00	2024-11-06T19:00:00	8	Radiación solar	0
108249	7	Sololá	702	San José Chacayá	5	Chacayá	7	Julio	2023-07-18T00:00:00	2024-11-06T20:00:00	2	Temperatura media	15.2
108250	7	Sololá	702	San José Chacayá	5	Chacayá	7	Julio	2023-07-18T00:00:00	2024-11-06T20:00:00	4	Temperatura máxima	16.3
108251	7	Sololá	702	San José Chacayá	5	Chacayá	7	Julio	2023-07-18T00:00:00	2024-11-06T20:00:00	3	Temperatura mínima	15.2
108252	7	Sololá	702	San José Chacayá	5	Chacayá	7	Julio	2023-07-18T00:00:00	2024-11-06T20:00:00	5	Humedad	77
108253	7	Sololá	702	San José Chacayá	5	Chacayá	7	Julio	2023-07-18T00:00:00	2024-11-06T20:00:00	6	Velocidad del viento	1.6
108254	7	Sololá	702	San José Chacayá	5	Chacayá	7	Julio	2023-07-18T00:00:00	2024-11-06T20:00:00	7	Dirección del viento	1.61
108255	7	Sololá	702	San José Chacayá	5	Chacayá	7	Julio	2023-07-18T00:00:00	2024-11-06T20:00:00	1	Precipitación	0
108256	7	Sololá	702	San José Chacayá	5	Chacayá	7	Julio	2023-07-18T00:00:00	2024-11-06T20:00:00	8	Radiación solar	0
108257	7	Sololá	702	San José Chacayá	5	Chacayá	7	Julio	2023-07-18T00:00:00	2024-11-06T21:00:00	2	Temperatura media	14.1
108258	7	Sololá	702	San José Chacayá	5	Chacayá	7	Julio	2023-07-18T00:00:00	2024-11-06T21:00:00	4	Temperatura máxima	15.2
108259	7	Sololá	702	San José Chacayá	5	Chacayá	7	Julio	2023-07-18T00:00:00	2024-11-06T21:00:00	3	Temperatura mínima	14.1
108260	7	Sololá	702	San José Chacayá	5	Chacayá	7	Julio	2023-07-18T00:00:00	2024-11-06T21:00:00	5	Humedad	79
108261	7	Sololá	702	San José Chacayá	5	Chacayá	7	Julio	2023-07-18T00:00:00	2024-11-06T21:00:00	6	Velocidad del viento	1.6
108262	7	Sololá	702	San José Chacayá	5	Chacayá	7	Julio	2023-07-18T00:00:00	2024-11-06T21:00:00	7	Dirección del viento	1.61
108263	7	Sololá	702	San José Chacayá	5	Chacayá	7	Julio	2023-07-18T00:00:00	2024-11-06T21:00:00	1	Precipitación	0
108264	7	Sololá	702	San José Chacayá	5	Chacayá	7	Julio	2023-07-18T00:00:00	2024-11-06T21:00:00	8	Radiación solar	0
108265	7	Sololá	702	San José Chacayá	5	Chacayá	7	Julio	2023-07-18T00:00:00	2024-11-06T22:00:00	2	Temperatura media	14.2
108266	7	Sololá	702	San José Chacayá	5	Chacayá	7	Julio	2023-07-18T00:00:00	2024-11-06T22:00:00	4	Temperatura máxima	14.3
108267	7	Sololá	702	San José Chacayá	5	Chacayá	7	Julio	2023-07-18T00:00:00	2024-11-06T22:00:00	3	Temperatura mínima	14.1
108268	7	Sololá	702	San José Chacayá	5	Chacayá	7	Julio	2023-07-18T00:00:00	2024-11-06T22:00:00	5	Humedad	78
108269	7	Sololá	702	San José Chacayá	5	Chacayá	7	Julio	2023-07-18T00:00:00	2024-11-06T22:00:00	6	Velocidad del viento	3.2
108270	7	Sololá	702	San José Chacayá	5	Chacayá	7	Julio	2023-07-18T00:00:00	2024-11-06T22:00:00	7	Dirección del viento	3.22
108271	7	Sololá	702	San José Chacayá	5	Chacayá	7	Julio	2023-07-18T00:00:00	2024-11-06T22:00:00	1	Precipitación	0
108272	7	Sololá	702	San José Chacayá	5	Chacayá	7	Julio	2023-07-18T00:00:00	2024-11-06T22:00:00	8	Radiación solar	0
108273	7	Sololá	702	San José Chacayá	5	Chacayá	7	Julio	2023-07-18T00:00:00	2024-11-06T23:00:00	2	Temperatura media	14.3
108274	7	Sololá	702	San José Chacayá	5	Chacayá	7	Julio	2023-07-18T00:00:00	2024-11-06T23:00:00	4	Temperatura máxima	14.3
108275	7	Sololá	702	San José Chacayá	5	Chacayá	7	Julio	2023-07-18T00:00:00	2024-11-06T23:00:00	3	Temperatura mínima	14.1
108276	7	Sololá	702	San José Chacayá	5	Chacayá	7	Julio	2023-07-18T00:00:00	2024-11-06T23:00:00	5	Humedad	78
108277	7	Sololá	702	San José Chacayá	5	Chacayá	7	Julio	2023-07-18T00:00:00	2024-11-06T23:00:00	6	Velocidad del viento	4.8
108278	7	Sololá	702	San José Chacayá	5	Chacayá	7	Julio	2023-07-18T00:00:00	2024-11-06T23:00:00	7	Dirección del viento	4.83
108279	7	Sololá	702	San José Chacayá	5	Chacayá	7	Julio	2023-07-18T00:00:00	2024-11-06T23:00:00	1	Precipitación	0
108280	7	Sololá	702	San José Chacayá	5	Chacayá	7	Julio	2023-07-18T00:00:00	2024-11-06T23:00:00	8	Radiación solar	0
108281	7	Sololá	702	San José Chacayá	5	Chacayá	7	Julio	2023-07-19T00:00:00	2024-11-06T00:00:00	2	Temperatura media	14.8
108282	7	Sololá	702	San José Chacayá	5	Chacayá	7	Julio	2023-07-19T00:00:00	2024-11-06T00:00:00	4	Temperatura máxima	14.8
108283	7	Sololá	702	San José Chacayá	5	Chacayá	7	Julio	2023-07-19T00:00:00	2024-11-06T00:00:00	3	Temperatura mínima	14.1
108284	7	Sololá	702	San José Chacayá	5	Chacayá	7	Julio	2023-07-19T00:00:00	2024-11-06T00:00:00	5	Humedad	76
108285	7	Sololá	702	San José Chacayá	5	Chacayá	7	Julio	2023-07-19T00:00:00	2024-11-06T00:00:00	6	Velocidad del viento	6.4
108286	7	Sololá	702	San José Chacayá	5	Chacayá	7	Julio	2023-07-19T00:00:00	2024-11-06T00:00:00	7	Dirección del viento	6.44
108287	7	Sololá	702	San José Chacayá	5	Chacayá	7	Julio	2023-07-19T00:00:00	2024-11-06T00:00:00	1	Precipitación	0
108288	7	Sololá	702	San José Chacayá	5	Chacayá	7	Julio	2023-07-19T00:00:00	2024-11-06T00:00:00	8	Radiación solar	0
108289	7	Sololá	702	San José Chacayá	5	Chacayá	7	Julio	2023-07-19T00:00:00	2024-11-06T01:00:00	2	Temperatura media	14.6
108290	7	Sololá	702	San José Chacayá	5	Chacayá	7	Julio	2023-07-19T00:00:00	2024-11-06T01:00:00	4	Temperatura máxima	14.9
108291	7	Sololá	702	San José Chacayá	5	Chacayá	7	Julio	2023-07-19T00:00:00	2024-11-06T01:00:00	3	Temperatura mínima	14.6
108292	7	Sololá	702	San José Chacayá	5	Chacayá	7	Julio	2023-07-19T00:00:00	2024-11-06T01:00:00	5	Humedad	76
108293	7	Sololá	702	San José Chacayá	5	Chacayá	7	Julio	2023-07-19T00:00:00	2024-11-06T01:00:00	6	Velocidad del viento	8
108294	7	Sololá	702	San José Chacayá	5	Chacayá	7	Julio	2023-07-19T00:00:00	2024-11-06T01:00:00	7	Dirección del viento	8.05
108295	7	Sololá	702	San José Chacayá	5	Chacayá	7	Julio	2023-07-19T00:00:00	2024-11-06T01:00:00	1	Precipitación	0
108296	7	Sololá	702	San José Chacayá	5	Chacayá	7	Julio	2023-07-19T00:00:00	2024-11-06T01:00:00	8	Radiación solar	0
108297	7	Sololá	702	San José Chacayá	5	Chacayá	7	Julio	2023-07-19T00:00:00	2024-11-06T02:00:00	2	Temperatura media	14.3
108298	7	Sololá	702	San José Chacayá	5	Chacayá	7	Julio	2023-07-19T00:00:00	2024-11-06T02:00:00	4	Temperatura máxima	14.6
108299	7	Sololá	702	San José Chacayá	5	Chacayá	7	Julio	2023-07-19T00:00:00	2024-11-06T02:00:00	3	Temperatura mínima	14.3
108300	7	Sololá	702	San José Chacayá	5	Chacayá	7	Julio	2023-07-19T00:00:00	2024-11-06T02:00:00	5	Humedad	64
108301	7	Sololá	702	San José Chacayá	5	Chacayá	7	Julio	2023-07-19T00:00:00	2024-11-06T02:00:00	6	Velocidad del viento	8
108302	7	Sololá	702	San José Chacayá	5	Chacayá	7	Julio	2023-07-19T00:00:00	2024-11-06T02:00:00	7	Dirección del viento	8.05
108303	7	Sololá	702	San José Chacayá	5	Chacayá	7	Julio	2023-07-19T00:00:00	2024-11-06T02:00:00	1	Precipitación	0
108304	7	Sololá	702	San José Chacayá	5	Chacayá	7	Julio	2023-07-19T00:00:00	2024-11-06T02:00:00	8	Radiación solar	0
108305	7	Sololá	702	San José Chacayá	5	Chacayá	7	Julio	2023-07-19T00:00:00	2024-11-06T03:00:00	2	Temperatura media	14.5
108306	7	Sololá	702	San José Chacayá	5	Chacayá	7	Julio	2023-07-19T00:00:00	2024-11-06T03:00:00	4	Temperatura máxima	14.6
108307	7	Sololá	702	San José Chacayá	5	Chacayá	7	Julio	2023-07-19T00:00:00	2024-11-06T03:00:00	3	Temperatura mínima	14.3
108308	7	Sololá	702	San José Chacayá	5	Chacayá	7	Julio	2023-07-19T00:00:00	2024-11-06T03:00:00	5	Humedad	60
108309	7	Sololá	702	San José Chacayá	5	Chacayá	7	Julio	2023-07-19T00:00:00	2024-11-06T03:00:00	6	Velocidad del viento	8
108310	7	Sololá	702	San José Chacayá	5	Chacayá	7	Julio	2023-07-19T00:00:00	2024-11-06T03:00:00	7	Dirección del viento	8.05
108311	7	Sololá	702	San José Chacayá	5	Chacayá	7	Julio	2023-07-19T00:00:00	2024-11-06T03:00:00	1	Precipitación	0
108312	7	Sololá	702	San José Chacayá	5	Chacayá	7	Julio	2023-07-19T00:00:00	2024-11-06T03:00:00	8	Radiación solar	0
108313	7	Sololá	702	San José Chacayá	5	Chacayá	7	Julio	2023-07-19T00:00:00	2024-11-06T04:00:00	2	Temperatura media	14.7
108314	7	Sololá	702	San José Chacayá	5	Chacayá	7	Julio	2023-07-19T00:00:00	2024-11-06T04:00:00	4	Temperatura máxima	15.1
108315	7	Sololá	702	San José Chacayá	5	Chacayá	7	Julio	2023-07-19T00:00:00	2024-11-06T04:00:00	3	Temperatura mínima	14.7
108316	7	Sololá	702	San José Chacayá	5	Chacayá	7	Julio	2023-07-19T00:00:00	2024-11-06T04:00:00	5	Humedad	51
108317	7	Sololá	702	San José Chacayá	5	Chacayá	7	Julio	2023-07-19T00:00:00	2024-11-06T04:00:00	6	Velocidad del viento	6.4
108318	7	Sololá	702	San José Chacayá	5	Chacayá	7	Julio	2023-07-19T00:00:00	2024-11-06T04:00:00	7	Dirección del viento	6.44
108319	7	Sololá	702	San José Chacayá	5	Chacayá	7	Julio	2023-07-19T00:00:00	2024-11-06T04:00:00	1	Precipitación	0
108320	7	Sololá	702	San José Chacayá	5	Chacayá	7	Julio	2023-07-19T00:00:00	2024-11-06T04:00:00	8	Radiación solar	0
108321	7	Sololá	702	San José Chacayá	5	Chacayá	7	Julio	2023-07-19T00:00:00	2024-11-06T05:00:00	2	Temperatura media	14.6
108322	7	Sololá	702	San José Chacayá	5	Chacayá	7	Julio	2023-07-19T00:00:00	2024-11-06T05:00:00	4	Temperatura máxima	14.7
108323	7	Sololá	702	San José Chacayá	5	Chacayá	7	Julio	2023-07-19T00:00:00	2024-11-06T05:00:00	3	Temperatura mínima	14.5
108324	7	Sololá	702	San José Chacayá	5	Chacayá	7	Julio	2023-07-19T00:00:00	2024-11-06T05:00:00	5	Humedad	60
108325	7	Sololá	702	San José Chacayá	5	Chacayá	7	Julio	2023-07-19T00:00:00	2024-11-06T05:00:00	6	Velocidad del viento	4.8
108326	7	Sololá	702	San José Chacayá	5	Chacayá	7	Julio	2023-07-19T00:00:00	2024-11-06T05:00:00	7	Dirección del viento	4.83
108327	7	Sololá	702	San José Chacayá	5	Chacayá	7	Julio	2023-07-19T00:00:00	2024-11-06T05:00:00	1	Precipitación	0
108328	7	Sololá	702	San José Chacayá	5	Chacayá	7	Julio	2023-07-19T00:00:00	2024-11-06T05:00:00	8	Radiación solar	0
108329	7	Sololá	702	San José Chacayá	5	Chacayá	7	Julio	2023-07-19T00:00:00	2024-11-06T06:00:00	2	Temperatura media	14.6
108330	7	Sololá	702	San José Chacayá	5	Chacayá	7	Julio	2023-07-19T00:00:00	2024-11-06T06:00:00	4	Temperatura máxima	14.6
108331	7	Sololá	702	San José Chacayá	5	Chacayá	7	Julio	2023-07-19T00:00:00	2024-11-06T06:00:00	3	Temperatura mínima	14.3
108332	7	Sololá	702	San José Chacayá	5	Chacayá	7	Julio	2023-07-19T00:00:00	2024-11-06T06:00:00	5	Humedad	72
108333	7	Sololá	702	San José Chacayá	5	Chacayá	7	Julio	2023-07-19T00:00:00	2024-11-06T06:00:00	6	Velocidad del viento	6.4
108334	7	Sololá	702	San José Chacayá	5	Chacayá	7	Julio	2023-07-19T00:00:00	2024-11-06T06:00:00	7	Dirección del viento	6.44
108335	7	Sololá	702	San José Chacayá	5	Chacayá	7	Julio	2023-07-19T00:00:00	2024-11-06T06:00:00	1	Precipitación	0
108336	7	Sololá	702	San José Chacayá	5	Chacayá	7	Julio	2023-07-19T00:00:00	2024-11-06T06:00:00	8	Radiación solar	5
108337	7	Sololá	702	San José Chacayá	5	Chacayá	7	Julio	2023-07-19T00:00:00	2024-11-06T07:00:00	2	Temperatura media	14.5
108338	7	Sololá	702	San José Chacayá	5	Chacayá	7	Julio	2023-07-19T00:00:00	2024-11-06T07:00:00	4	Temperatura máxima	14.9
108339	7	Sololá	702	San José Chacayá	5	Chacayá	7	Julio	2023-07-19T00:00:00	2024-11-06T07:00:00	3	Temperatura mínima	14.2
108340	7	Sololá	702	San José Chacayá	5	Chacayá	7	Julio	2023-07-19T00:00:00	2024-11-06T07:00:00	5	Humedad	70
108341	7	Sololá	702	San José Chacayá	5	Chacayá	7	Julio	2023-07-19T00:00:00	2024-11-06T07:00:00	6	Velocidad del viento	0
108342	7	Sololá	702	San José Chacayá	5	Chacayá	7	Julio	2023-07-19T00:00:00	2024-11-06T07:00:00	7	Dirección del viento	0
108343	7	Sololá	702	San José Chacayá	5	Chacayá	7	Julio	2023-07-19T00:00:00	2024-11-06T07:00:00	1	Precipitación	0
108344	7	Sololá	702	San José Chacayá	5	Chacayá	7	Julio	2023-07-19T00:00:00	2024-11-06T07:00:00	8	Radiación solar	70
108345	7	Sololá	702	San José Chacayá	5	Chacayá	7	Julio	2023-07-19T00:00:00	2024-11-06T08:00:00	2	Temperatura media	15.1
108346	7	Sololá	702	San José Chacayá	5	Chacayá	7	Julio	2023-07-19T00:00:00	2024-11-06T08:00:00	4	Temperatura máxima	15.1
108347	7	Sololá	702	San José Chacayá	5	Chacayá	7	Julio	2023-07-19T00:00:00	2024-11-06T08:00:00	3	Temperatura mínima	15
108348	7	Sololá	702	San José Chacayá	5	Chacayá	7	Julio	2023-07-19T00:00:00	2024-11-06T08:00:00	5	Humedad	79
108349	7	Sololá	702	San José Chacayá	5	Chacayá	7	Julio	2023-07-19T00:00:00	2024-11-06T08:00:00	6	Velocidad del viento	11.3
108350	7	Sololá	702	San José Chacayá	5	Chacayá	7	Julio	2023-07-19T00:00:00	2024-11-06T08:00:00	7	Dirección del viento	11.27
108351	7	Sololá	702	San José Chacayá	5	Chacayá	7	Julio	2023-07-19T00:00:00	2024-11-06T08:00:00	1	Precipitación	0
108352	7	Sololá	702	San José Chacayá	5	Chacayá	7	Julio	2023-07-19T00:00:00	2024-11-06T08:00:00	8	Radiación solar	142
108353	7	Sololá	702	San José Chacayá	5	Chacayá	7	Julio	2023-07-19T00:00:00	2024-11-06T09:00:00	2	Temperatura media	16.9
108354	7	Sololá	702	San José Chacayá	5	Chacayá	7	Julio	2023-07-19T00:00:00	2024-11-06T09:00:00	4	Temperatura máxima	16.9
108355	7	Sololá	702	San José Chacayá	5	Chacayá	7	Julio	2023-07-19T00:00:00	2024-11-06T09:00:00	3	Temperatura mínima	15
108356	7	Sololá	702	San José Chacayá	5	Chacayá	7	Julio	2023-07-19T00:00:00	2024-11-06T09:00:00	5	Humedad	70
108357	7	Sololá	702	San José Chacayá	5	Chacayá	7	Julio	2023-07-19T00:00:00	2024-11-06T09:00:00	6	Velocidad del viento	6.4
108358	7	Sololá	702	San José Chacayá	5	Chacayá	7	Julio	2023-07-19T00:00:00	2024-11-06T09:00:00	7	Dirección del viento	6.44
108359	7	Sololá	702	San José Chacayá	5	Chacayá	7	Julio	2023-07-19T00:00:00	2024-11-06T09:00:00	1	Precipitación	0
108360	7	Sololá	702	San José Chacayá	5	Chacayá	7	Julio	2023-07-19T00:00:00	2024-11-06T09:00:00	8	Radiación solar	435
108361	7	Sololá	702	San José Chacayá	5	Chacayá	7	Julio	2023-07-19T00:00:00	2024-11-06T10:00:00	2	Temperatura media	17.7
108362	7	Sololá	702	San José Chacayá	5	Chacayá	7	Julio	2023-07-19T00:00:00	2024-11-06T10:00:00	4	Temperatura máxima	17.7
108363	7	Sololá	702	San José Chacayá	5	Chacayá	7	Julio	2023-07-19T00:00:00	2024-11-06T10:00:00	3	Temperatura mínima	16.9
108364	7	Sololá	702	San José Chacayá	5	Chacayá	7	Julio	2023-07-19T00:00:00	2024-11-06T10:00:00	5	Humedad	64
108365	7	Sololá	702	San José Chacayá	5	Chacayá	7	Julio	2023-07-19T00:00:00	2024-11-06T10:00:00	6	Velocidad del viento	4.8
108366	7	Sololá	702	San José Chacayá	5	Chacayá	7	Julio	2023-07-19T00:00:00	2024-11-06T10:00:00	7	Dirección del viento	4.83
108367	7	Sololá	702	San José Chacayá	5	Chacayá	7	Julio	2023-07-19T00:00:00	2024-11-06T10:00:00	1	Precipitación	0
108368	7	Sololá	702	San José Chacayá	5	Chacayá	7	Julio	2023-07-19T00:00:00	2024-11-06T10:00:00	8	Radiación solar	721
108369	7	Sololá	702	San José Chacayá	5	Chacayá	7	Julio	2023-07-19T00:00:00	2024-11-06T11:00:00	2	Temperatura media	19.9
108370	7	Sololá	702	San José Chacayá	5	Chacayá	7	Julio	2023-07-19T00:00:00	2024-11-06T11:00:00	4	Temperatura máxima	20
108371	7	Sololá	702	San José Chacayá	5	Chacayá	7	Julio	2023-07-19T00:00:00	2024-11-06T11:00:00	3	Temperatura mínima	17.7
108372	7	Sololá	702	San José Chacayá	5	Chacayá	7	Julio	2023-07-19T00:00:00	2024-11-06T11:00:00	5	Humedad	58
108373	7	Sololá	702	San José Chacayá	5	Chacayá	7	Julio	2023-07-19T00:00:00	2024-11-06T11:00:00	6	Velocidad del viento	8
108374	7	Sololá	702	San José Chacayá	5	Chacayá	7	Julio	2023-07-19T00:00:00	2024-11-06T11:00:00	7	Dirección del viento	8.05
108375	7	Sololá	702	San José Chacayá	5	Chacayá	7	Julio	2023-07-19T00:00:00	2024-11-06T11:00:00	1	Precipitación	0
108376	7	Sololá	702	San José Chacayá	5	Chacayá	7	Julio	2023-07-19T00:00:00	2024-11-06T11:00:00	8	Radiación solar	892
108377	7	Sololá	702	San José Chacayá	5	Chacayá	7	Julio	2023-07-19T00:00:00	2024-11-06T12:00:00	2	Temperatura media	22.2
108378	7	Sololá	702	San José Chacayá	5	Chacayá	7	Julio	2023-07-19T00:00:00	2024-11-06T12:00:00	4	Temperatura máxima	22.5
108379	7	Sololá	702	San José Chacayá	5	Chacayá	7	Julio	2023-07-19T00:00:00	2024-11-06T12:00:00	3	Temperatura mínima	19.9
108380	7	Sololá	702	San José Chacayá	5	Chacayá	7	Julio	2023-07-19T00:00:00	2024-11-06T12:00:00	5	Humedad	60
108381	7	Sololá	702	San José Chacayá	5	Chacayá	7	Julio	2023-07-19T00:00:00	2024-11-06T12:00:00	6	Velocidad del viento	6.4
108382	7	Sololá	702	San José Chacayá	5	Chacayá	7	Julio	2023-07-19T00:00:00	2024-11-06T12:00:00	7	Dirección del viento	6.44
108383	7	Sololá	702	San José Chacayá	5	Chacayá	7	Julio	2023-07-19T00:00:00	2024-11-06T12:00:00	1	Precipitación	0
108384	7	Sololá	702	San José Chacayá	5	Chacayá	7	Julio	2023-07-19T00:00:00	2024-11-06T12:00:00	8	Radiación solar	1009
108385	7	Sololá	702	San José Chacayá	5	Chacayá	7	Julio	2023-07-19T00:00:00	2024-11-06T13:00:00	2	Temperatura media	22.4
108386	7	Sololá	702	San José Chacayá	5	Chacayá	7	Julio	2023-07-19T00:00:00	2024-11-06T13:00:00	4	Temperatura máxima	22.4
108387	7	Sololá	702	San José Chacayá	5	Chacayá	7	Julio	2023-07-19T00:00:00	2024-11-06T13:00:00	3	Temperatura mínima	21.6
108388	7	Sololá	702	San José Chacayá	5	Chacayá	7	Julio	2023-07-19T00:00:00	2024-11-06T13:00:00	5	Humedad	58
108389	7	Sololá	702	San José Chacayá	5	Chacayá	7	Julio	2023-07-19T00:00:00	2024-11-06T13:00:00	6	Velocidad del viento	6.4
108390	7	Sololá	702	San José Chacayá	5	Chacayá	7	Julio	2023-07-19T00:00:00	2024-11-06T13:00:00	7	Dirección del viento	6.44
108391	7	Sololá	702	San José Chacayá	5	Chacayá	7	Julio	2023-07-19T00:00:00	2024-11-06T13:00:00	1	Precipitación	0
108392	7	Sololá	702	San José Chacayá	5	Chacayá	7	Julio	2023-07-19T00:00:00	2024-11-06T13:00:00	8	Radiación solar	1055
108393	7	Sololá	702	San José Chacayá	5	Chacayá	7	Julio	2023-07-19T00:00:00	2024-11-06T14:00:00	2	Temperatura media	22.4
108394	7	Sololá	702	San José Chacayá	5	Chacayá	7	Julio	2023-07-19T00:00:00	2024-11-06T14:00:00	4	Temperatura máxima	23.2
108395	7	Sololá	702	San José Chacayá	5	Chacayá	7	Julio	2023-07-19T00:00:00	2024-11-06T14:00:00	3	Temperatura mínima	22.2
108396	7	Sololá	702	San José Chacayá	5	Chacayá	7	Julio	2023-07-19T00:00:00	2024-11-06T14:00:00	5	Humedad	57
108397	7	Sololá	702	San José Chacayá	5	Chacayá	7	Julio	2023-07-19T00:00:00	2024-11-06T14:00:00	6	Velocidad del viento	6.4
108398	7	Sololá	702	San José Chacayá	5	Chacayá	7	Julio	2023-07-19T00:00:00	2024-11-06T14:00:00	7	Dirección del viento	6.44
108399	7	Sololá	702	San José Chacayá	5	Chacayá	7	Julio	2023-07-19T00:00:00	2024-11-06T14:00:00	1	Precipitación	0
108400	7	Sololá	702	San José Chacayá	5	Chacayá	7	Julio	2023-07-19T00:00:00	2024-11-06T14:00:00	8	Radiación solar	1048
108401	7	Sololá	702	San José Chacayá	5	Chacayá	7	Julio	2023-07-19T00:00:00	2024-11-06T15:00:00	2	Temperatura media	22.4
108402	7	Sololá	702	San José Chacayá	5	Chacayá	7	Julio	2023-07-19T00:00:00	2024-11-06T15:00:00	4	Temperatura máxima	23.8
108403	7	Sololá	702	San José Chacayá	5	Chacayá	7	Julio	2023-07-19T00:00:00	2024-11-06T15:00:00	3	Temperatura mínima	22.3
108404	7	Sololá	702	San José Chacayá	5	Chacayá	7	Julio	2023-07-19T00:00:00	2024-11-06T15:00:00	5	Humedad	56
108405	7	Sololá	702	San José Chacayá	5	Chacayá	7	Julio	2023-07-19T00:00:00	2024-11-06T15:00:00	6	Velocidad del viento	4.8
108406	7	Sololá	702	San José Chacayá	5	Chacayá	7	Julio	2023-07-19T00:00:00	2024-11-06T15:00:00	7	Dirección del viento	4.83
108407	7	Sololá	702	San José Chacayá	5	Chacayá	7	Julio	2023-07-19T00:00:00	2024-11-06T15:00:00	1	Precipitación	0
108408	7	Sololá	702	San José Chacayá	5	Chacayá	7	Julio	2023-07-19T00:00:00	2024-11-06T15:00:00	8	Radiación solar	890
108409	7	Sololá	702	San José Chacayá	5	Chacayá	7	Julio	2023-07-19T00:00:00	2024-11-06T16:00:00	2	Temperatura media	20.3
108410	7	Sololá	702	San José Chacayá	5	Chacayá	7	Julio	2023-07-19T00:00:00	2024-11-06T16:00:00	4	Temperatura máxima	22.4
108411	7	Sololá	702	San José Chacayá	5	Chacayá	7	Julio	2023-07-19T00:00:00	2024-11-06T16:00:00	3	Temperatura mínima	20.3
108412	7	Sololá	702	San José Chacayá	5	Chacayá	7	Julio	2023-07-19T00:00:00	2024-11-06T16:00:00	5	Humedad	63
108413	7	Sololá	702	San José Chacayá	5	Chacayá	7	Julio	2023-07-19T00:00:00	2024-11-06T16:00:00	6	Velocidad del viento	4.8
108414	7	Sololá	702	San José Chacayá	5	Chacayá	7	Julio	2023-07-19T00:00:00	2024-11-06T16:00:00	7	Dirección del viento	4.83
108415	7	Sololá	702	San José Chacayá	5	Chacayá	7	Julio	2023-07-19T00:00:00	2024-11-06T16:00:00	1	Precipitación	0
108416	7	Sololá	702	San José Chacayá	5	Chacayá	7	Julio	2023-07-19T00:00:00	2024-11-06T16:00:00	8	Radiación solar	666
108417	7	Sololá	702	San José Chacayá	5	Chacayá	7	Julio	2023-07-19T00:00:00	2024-11-06T17:00:00	2	Temperatura media	19.5
108418	7	Sololá	702	San José Chacayá	5	Chacayá	7	Julio	2023-07-19T00:00:00	2024-11-06T17:00:00	4	Temperatura máxima	21.1
108419	7	Sololá	702	San José Chacayá	5	Chacayá	7	Julio	2023-07-19T00:00:00	2024-11-06T17:00:00	3	Temperatura mínima	19.5
108420	7	Sololá	702	San José Chacayá	5	Chacayá	7	Julio	2023-07-19T00:00:00	2024-11-06T17:00:00	5	Humedad	67
108421	7	Sololá	702	San José Chacayá	5	Chacayá	7	Julio	2023-07-19T00:00:00	2024-11-06T17:00:00	6	Velocidad del viento	6.4
108422	7	Sololá	702	San José Chacayá	5	Chacayá	7	Julio	2023-07-19T00:00:00	2024-11-06T17:00:00	7	Dirección del viento	6.44
108423	7	Sololá	702	San José Chacayá	5	Chacayá	7	Julio	2023-07-19T00:00:00	2024-11-06T17:00:00	1	Precipitación	0
108424	7	Sololá	702	San José Chacayá	5	Chacayá	7	Julio	2023-07-19T00:00:00	2024-11-06T17:00:00	8	Radiación solar	311
108425	7	Sololá	702	San José Chacayá	5	Chacayá	7	Julio	2023-07-19T00:00:00	2024-11-06T18:00:00	2	Temperatura media	17.6
108426	7	Sololá	702	San José Chacayá	5	Chacayá	7	Julio	2023-07-19T00:00:00	2024-11-06T18:00:00	4	Temperatura máxima	19.6
108427	7	Sololá	702	San José Chacayá	5	Chacayá	7	Julio	2023-07-19T00:00:00	2024-11-06T18:00:00	3	Temperatura mínima	17.6
108428	7	Sololá	702	San José Chacayá	5	Chacayá	7	Julio	2023-07-19T00:00:00	2024-11-06T18:00:00	5	Humedad	74
108429	7	Sololá	702	San José Chacayá	5	Chacayá	7	Julio	2023-07-19T00:00:00	2024-11-06T18:00:00	6	Velocidad del viento	4.8
108430	7	Sololá	702	San José Chacayá	5	Chacayá	7	Julio	2023-07-19T00:00:00	2024-11-06T18:00:00	7	Dirección del viento	4.83
108431	7	Sololá	702	San José Chacayá	5	Chacayá	7	Julio	2023-07-19T00:00:00	2024-11-06T18:00:00	1	Precipitación	0
108432	7	Sololá	702	San José Chacayá	5	Chacayá	7	Julio	2023-07-19T00:00:00	2024-11-06T18:00:00	8	Radiación solar	52
108433	7	Sololá	702	San José Chacayá	5	Chacayá	7	Julio	2023-07-19T00:00:00	2024-11-06T19:00:00	2	Temperatura media	16.7
108434	7	Sololá	702	San José Chacayá	5	Chacayá	7	Julio	2023-07-19T00:00:00	2024-11-06T19:00:00	4	Temperatura máxima	17.6
108435	7	Sololá	702	San José Chacayá	5	Chacayá	7	Julio	2023-07-19T00:00:00	2024-11-06T19:00:00	3	Temperatura mínima	16.7
108436	7	Sololá	702	San José Chacayá	5	Chacayá	7	Julio	2023-07-19T00:00:00	2024-11-06T19:00:00	5	Humedad	79
108437	7	Sololá	702	San José Chacayá	5	Chacayá	7	Julio	2023-07-19T00:00:00	2024-11-06T19:00:00	6	Velocidad del viento	4.8
108438	7	Sololá	702	San José Chacayá	5	Chacayá	7	Julio	2023-07-19T00:00:00	2024-11-06T19:00:00	7	Dirección del viento	4.83
108439	7	Sololá	702	San José Chacayá	5	Chacayá	7	Julio	2023-07-19T00:00:00	2024-11-06T19:00:00	1	Precipitación	0
108440	7	Sololá	702	San José Chacayá	5	Chacayá	7	Julio	2023-07-19T00:00:00	2024-11-06T19:00:00	8	Radiación solar	0
108441	7	Sololá	702	San José Chacayá	5	Chacayá	7	Julio	2023-07-19T00:00:00	2024-11-06T20:00:00	2	Temperatura media	16.7
108442	7	Sololá	702	San José Chacayá	5	Chacayá	7	Julio	2023-07-19T00:00:00	2024-11-06T20:00:00	4	Temperatura máxima	16.9
108443	7	Sololá	702	San José Chacayá	5	Chacayá	7	Julio	2023-07-19T00:00:00	2024-11-06T20:00:00	3	Temperatura mínima	16.7
108444	7	Sololá	702	San José Chacayá	5	Chacayá	7	Julio	2023-07-19T00:00:00	2024-11-06T20:00:00	5	Humedad	79
108445	7	Sololá	702	San José Chacayá	5	Chacayá	7	Julio	2023-07-19T00:00:00	2024-11-06T20:00:00	6	Velocidad del viento	4.8
108446	7	Sololá	702	San José Chacayá	5	Chacayá	7	Julio	2023-07-19T00:00:00	2024-11-06T20:00:00	7	Dirección del viento	4.83
108447	7	Sololá	702	San José Chacayá	5	Chacayá	7	Julio	2023-07-19T00:00:00	2024-11-06T20:00:00	1	Precipitación	0
108448	7	Sololá	702	San José Chacayá	5	Chacayá	7	Julio	2023-07-19T00:00:00	2024-11-06T20:00:00	8	Radiación solar	0
108449	7	Sololá	702	San José Chacayá	5	Chacayá	7	Julio	2023-07-19T00:00:00	2024-11-06T21:00:00	2	Temperatura media	16.3
108450	7	Sololá	702	San José Chacayá	5	Chacayá	7	Julio	2023-07-19T00:00:00	2024-11-06T21:00:00	4	Temperatura máxima	16.8
108451	7	Sololá	702	San José Chacayá	5	Chacayá	7	Julio	2023-07-19T00:00:00	2024-11-06T21:00:00	3	Temperatura mínima	16.3
108452	7	Sololá	702	San José Chacayá	5	Chacayá	7	Julio	2023-07-19T00:00:00	2024-11-06T21:00:00	5	Humedad	80
108453	7	Sololá	702	San José Chacayá	5	Chacayá	7	Julio	2023-07-19T00:00:00	2024-11-06T21:00:00	6	Velocidad del viento	3.2
108454	7	Sololá	702	San José Chacayá	5	Chacayá	7	Julio	2023-07-19T00:00:00	2024-11-06T21:00:00	7	Dirección del viento	3.22
108455	7	Sololá	702	San José Chacayá	5	Chacayá	7	Julio	2023-07-19T00:00:00	2024-11-06T21:00:00	1	Precipitación	0
108456	7	Sololá	702	San José Chacayá	5	Chacayá	7	Julio	2023-07-19T00:00:00	2024-11-06T21:00:00	8	Radiación solar	0
108457	7	Sololá	702	San José Chacayá	5	Chacayá	7	Julio	2023-07-19T00:00:00	2024-11-06T22:00:00	2	Temperatura media	15.8
108458	7	Sololá	702	San José Chacayá	5	Chacayá	7	Julio	2023-07-19T00:00:00	2024-11-06T22:00:00	4	Temperatura máxima	16.3
108459	7	Sololá	702	San José Chacayá	5	Chacayá	7	Julio	2023-07-19T00:00:00	2024-11-06T22:00:00	3	Temperatura mínima	15.8
108460	7	Sololá	702	San José Chacayá	5	Chacayá	7	Julio	2023-07-19T00:00:00	2024-11-06T22:00:00	5	Humedad	81
108461	7	Sololá	702	San José Chacayá	5	Chacayá	7	Julio	2023-07-19T00:00:00	2024-11-06T22:00:00	6	Velocidad del viento	3.2
108462	7	Sololá	702	San José Chacayá	5	Chacayá	7	Julio	2023-07-19T00:00:00	2024-11-06T22:00:00	7	Dirección del viento	3.22
108463	7	Sololá	702	San José Chacayá	5	Chacayá	7	Julio	2023-07-19T00:00:00	2024-11-06T22:00:00	1	Precipitación	0
108464	7	Sololá	702	San José Chacayá	5	Chacayá	7	Julio	2023-07-19T00:00:00	2024-11-06T22:00:00	8	Radiación solar	0
108465	7	Sololá	702	San José Chacayá	5	Chacayá	7	Julio	2023-07-19T00:00:00	2024-11-06T23:00:00	2	Temperatura media	15.6
108466	7	Sololá	702	San José Chacayá	5	Chacayá	7	Julio	2023-07-19T00:00:00	2024-11-06T23:00:00	4	Temperatura máxima	16
108467	7	Sololá	702	San José Chacayá	5	Chacayá	7	Julio	2023-07-19T00:00:00	2024-11-06T23:00:00	3	Temperatura mínima	15.6
108468	7	Sololá	702	San José Chacayá	5	Chacayá	7	Julio	2023-07-19T00:00:00	2024-11-06T23:00:00	5	Humedad	81
108469	7	Sololá	702	San José Chacayá	5	Chacayá	7	Julio	2023-07-19T00:00:00	2024-11-06T23:00:00	6	Velocidad del viento	3.2
108470	7	Sololá	702	San José Chacayá	5	Chacayá	7	Julio	2023-07-19T00:00:00	2024-11-06T23:00:00	7	Dirección del viento	3.22
108471	7	Sololá	702	San José Chacayá	5	Chacayá	7	Julio	2023-07-19T00:00:00	2024-11-06T23:00:00	1	Precipitación	0
108472	7	Sololá	702	San José Chacayá	5	Chacayá	7	Julio	2023-07-19T00:00:00	2024-11-06T23:00:00	8	Radiación solar	0
108473	7	Sololá	702	San José Chacayá	5	Chacayá	7	Julio	2023-07-20T00:00:00	2024-11-06T00:00:00	2	Temperatura media	14.2
108474	7	Sololá	702	San José Chacayá	5	Chacayá	7	Julio	2023-07-20T00:00:00	2024-11-06T00:00:00	4	Temperatura máxima	14.8
108475	7	Sololá	702	San José Chacayá	5	Chacayá	7	Julio	2023-07-20T00:00:00	2024-11-06T00:00:00	3	Temperatura mínima	14.1
108476	7	Sololá	702	San José Chacayá	5	Chacayá	7	Julio	2023-07-20T00:00:00	2024-11-06T00:00:00	5	Humedad	58
108477	7	Sololá	702	San José Chacayá	5	Chacayá	7	Julio	2023-07-20T00:00:00	2024-11-06T00:00:00	6	Velocidad del viento	3.2
108478	7	Sololá	702	San José Chacayá	5	Chacayá	7	Julio	2023-07-20T00:00:00	2024-11-06T00:00:00	7	Dirección del viento	3.22
108479	7	Sololá	702	San José Chacayá	5	Chacayá	7	Julio	2023-07-20T00:00:00	2024-11-06T00:00:00	1	Precipitación	0
108480	7	Sololá	702	San José Chacayá	5	Chacayá	7	Julio	2023-07-20T00:00:00	2024-11-06T00:00:00	8	Radiación solar	0
108481	7	Sololá	702	San José Chacayá	5	Chacayá	7	Julio	2023-07-20T00:00:00	2024-11-06T01:00:00	2	Temperatura media	14.1
108482	7	Sololá	702	San José Chacayá	5	Chacayá	7	Julio	2023-07-20T00:00:00	2024-11-06T01:00:00	4	Temperatura máxima	14.3
108483	7	Sololá	702	San José Chacayá	5	Chacayá	7	Julio	2023-07-20T00:00:00	2024-11-06T01:00:00	3	Temperatura mínima	13.9
108484	7	Sololá	702	San José Chacayá	5	Chacayá	7	Julio	2023-07-20T00:00:00	2024-11-06T01:00:00	5	Humedad	64
108485	7	Sololá	702	San José Chacayá	5	Chacayá	7	Julio	2023-07-20T00:00:00	2024-11-06T01:00:00	6	Velocidad del viento	3.2
108486	7	Sololá	702	San José Chacayá	5	Chacayá	7	Julio	2023-07-20T00:00:00	2024-11-06T01:00:00	7	Dirección del viento	3.22
108487	7	Sololá	702	San José Chacayá	5	Chacayá	7	Julio	2023-07-20T00:00:00	2024-11-06T01:00:00	1	Precipitación	0
108488	7	Sololá	702	San José Chacayá	5	Chacayá	7	Julio	2023-07-20T00:00:00	2024-11-06T01:00:00	8	Radiación solar	0
108489	7	Sololá	702	San José Chacayá	5	Chacayá	7	Julio	2023-07-20T00:00:00	2024-11-06T02:00:00	2	Temperatura media	12.6
108490	7	Sololá	702	San José Chacayá	5	Chacayá	7	Julio	2023-07-20T00:00:00	2024-11-06T02:00:00	4	Temperatura máxima	12.6
108491	7	Sololá	702	San José Chacayá	5	Chacayá	7	Julio	2023-07-20T00:00:00	2024-11-06T02:00:00	3	Temperatura mínima	12.2
108492	7	Sololá	702	San José Chacayá	5	Chacayá	7	Julio	2023-07-20T00:00:00	2024-11-06T02:00:00	5	Humedad	82
108493	7	Sololá	702	San José Chacayá	5	Chacayá	7	Julio	2023-07-20T00:00:00	2024-11-06T02:00:00	6	Velocidad del viento	3.2
108494	7	Sololá	702	San José Chacayá	5	Chacayá	7	Julio	2023-07-20T00:00:00	2024-11-06T02:00:00	7	Dirección del viento	3.22
108495	7	Sololá	702	San José Chacayá	5	Chacayá	7	Julio	2023-07-20T00:00:00	2024-11-06T02:00:00	1	Precipitación	0
108496	7	Sololá	702	San José Chacayá	5	Chacayá	7	Julio	2023-07-20T00:00:00	2024-11-06T02:00:00	8	Radiación solar	0
108497	7	Sololá	702	San José Chacayá	5	Chacayá	7	Julio	2023-07-20T00:00:00	2024-11-06T03:00:00	2	Temperatura media	15.7
108498	7	Sololá	702	San José Chacayá	5	Chacayá	7	Julio	2023-07-20T00:00:00	2024-11-06T03:00:00	4	Temperatura máxima	15.7
108499	7	Sololá	702	San José Chacayá	5	Chacayá	7	Julio	2023-07-20T00:00:00	2024-11-06T03:00:00	3	Temperatura mínima	12.4
108500	7	Sololá	702	San José Chacayá	5	Chacayá	7	Julio	2023-07-20T00:00:00	2024-11-06T03:00:00	5	Humedad	77
108501	7	Sololá	702	San José Chacayá	5	Chacayá	7	Julio	2023-07-20T00:00:00	2024-11-06T03:00:00	6	Velocidad del viento	3.2
108502	7	Sololá	702	San José Chacayá	5	Chacayá	7	Julio	2023-07-20T00:00:00	2024-11-06T03:00:00	7	Dirección del viento	3.22
108503	7	Sololá	702	San José Chacayá	5	Chacayá	7	Julio	2023-07-20T00:00:00	2024-11-06T03:00:00	1	Precipitación	0
108504	7	Sololá	702	San José Chacayá	5	Chacayá	7	Julio	2023-07-20T00:00:00	2024-11-06T03:00:00	8	Radiación solar	0
108505	7	Sololá	702	San José Chacayá	5	Chacayá	7	Julio	2023-07-20T00:00:00	2024-11-06T04:00:00	2	Temperatura media	15.6
108506	7	Sololá	702	San José Chacayá	5	Chacayá	7	Julio	2023-07-20T00:00:00	2024-11-06T04:00:00	4	Temperatura máxima	16
108507	7	Sololá	702	San José Chacayá	5	Chacayá	7	Julio	2023-07-20T00:00:00	2024-11-06T04:00:00	3	Temperatura mínima	15.6
108508	7	Sololá	702	San José Chacayá	5	Chacayá	7	Julio	2023-07-20T00:00:00	2024-11-06T04:00:00	5	Humedad	79
108509	7	Sololá	702	San José Chacayá	5	Chacayá	7	Julio	2023-07-20T00:00:00	2024-11-06T04:00:00	6	Velocidad del viento	4.8
108510	7	Sololá	702	San José Chacayá	5	Chacayá	7	Julio	2023-07-20T00:00:00	2024-11-06T04:00:00	7	Dirección del viento	4.83
108511	7	Sololá	702	San José Chacayá	5	Chacayá	7	Julio	2023-07-20T00:00:00	2024-11-06T04:00:00	1	Precipitación	0
108512	7	Sololá	702	San José Chacayá	5	Chacayá	7	Julio	2023-07-20T00:00:00	2024-11-06T04:00:00	8	Radiación solar	0
108513	7	Sololá	702	San José Chacayá	5	Chacayá	7	Julio	2023-07-20T00:00:00	2024-11-06T05:00:00	2	Temperatura media	14.4
108514	7	Sololá	702	San José Chacayá	5	Chacayá	7	Julio	2023-07-20T00:00:00	2024-11-06T05:00:00	4	Temperatura máxima	15.5
108515	7	Sololá	702	San José Chacayá	5	Chacayá	7	Julio	2023-07-20T00:00:00	2024-11-06T05:00:00	3	Temperatura mínima	14.4
108516	7	Sololá	702	San José Chacayá	5	Chacayá	7	Julio	2023-07-20T00:00:00	2024-11-06T05:00:00	5	Humedad	81
108517	7	Sololá	702	San José Chacayá	5	Chacayá	7	Julio	2023-07-20T00:00:00	2024-11-06T05:00:00	6	Velocidad del viento	3.2
108518	7	Sololá	702	San José Chacayá	5	Chacayá	7	Julio	2023-07-20T00:00:00	2024-11-06T05:00:00	7	Dirección del viento	3.22
108519	7	Sololá	702	San José Chacayá	5	Chacayá	7	Julio	2023-07-20T00:00:00	2024-11-06T05:00:00	1	Precipitación	0
108520	7	Sololá	702	San José Chacayá	5	Chacayá	7	Julio	2023-07-20T00:00:00	2024-11-06T05:00:00	8	Radiación solar	0
108521	7	Sololá	702	San José Chacayá	5	Chacayá	7	Julio	2023-07-20T00:00:00	2024-11-06T06:00:00	2	Temperatura media	12.3
108522	7	Sololá	702	San José Chacayá	5	Chacayá	7	Julio	2023-07-20T00:00:00	2024-11-06T06:00:00	4	Temperatura máxima	14.4
108523	7	Sololá	702	San José Chacayá	5	Chacayá	7	Julio	2023-07-20T00:00:00	2024-11-06T06:00:00	3	Temperatura mínima	12.3
108524	7	Sololá	702	San José Chacayá	5	Chacayá	7	Julio	2023-07-20T00:00:00	2024-11-06T06:00:00	5	Humedad	83
108525	7	Sololá	702	San José Chacayá	5	Chacayá	7	Julio	2023-07-20T00:00:00	2024-11-06T06:00:00	6	Velocidad del viento	1.6
108526	7	Sololá	702	San José Chacayá	5	Chacayá	7	Julio	2023-07-20T00:00:00	2024-11-06T06:00:00	7	Dirección del viento	1.61
108527	7	Sololá	702	San José Chacayá	5	Chacayá	7	Julio	2023-07-20T00:00:00	2024-11-06T06:00:00	1	Precipitación	0
108528	7	Sololá	702	San José Chacayá	5	Chacayá	7	Julio	2023-07-20T00:00:00	2024-11-06T06:00:00	8	Radiación solar	1
108529	7	Sololá	702	San José Chacayá	5	Chacayá	7	Julio	2023-07-20T00:00:00	2024-11-06T07:00:00	2	Temperatura media	15.2
108530	7	Sololá	702	San José Chacayá	5	Chacayá	7	Julio	2023-07-20T00:00:00	2024-11-06T07:00:00	4	Temperatura máxima	15.2
108531	7	Sololá	702	San José Chacayá	5	Chacayá	7	Julio	2023-07-20T00:00:00	2024-11-06T07:00:00	3	Temperatura mínima	13.4
108532	7	Sololá	702	San José Chacayá	5	Chacayá	7	Julio	2023-07-20T00:00:00	2024-11-06T07:00:00	5	Humedad	73
108533	7	Sololá	702	San José Chacayá	5	Chacayá	7	Julio	2023-07-20T00:00:00	2024-11-06T07:00:00	6	Velocidad del viento	6.4
108534	7	Sololá	702	San José Chacayá	5	Chacayá	7	Julio	2023-07-20T00:00:00	2024-11-06T07:00:00	7	Dirección del viento	6.44
108535	7	Sololá	702	San José Chacayá	5	Chacayá	7	Julio	2023-07-20T00:00:00	2024-11-06T07:00:00	1	Precipitación	0
108536	7	Sololá	702	San José Chacayá	5	Chacayá	7	Julio	2023-07-20T00:00:00	2024-11-06T07:00:00	8	Radiación solar	55
108537	7	Sololá	702	San José Chacayá	5	Chacayá	7	Julio	2023-07-20T00:00:00	2024-11-06T08:00:00	2	Temperatura media	16.7
108538	7	Sololá	702	San José Chacayá	5	Chacayá	7	Julio	2023-07-20T00:00:00	2024-11-06T08:00:00	4	Temperatura máxima	16.7
108539	7	Sololá	702	San José Chacayá	5	Chacayá	7	Julio	2023-07-20T00:00:00	2024-11-06T08:00:00	3	Temperatura mínima	15.2
108540	7	Sololá	702	San José Chacayá	5	Chacayá	7	Julio	2023-07-20T00:00:00	2024-11-06T08:00:00	5	Humedad	70
108541	7	Sololá	702	San José Chacayá	5	Chacayá	7	Julio	2023-07-20T00:00:00	2024-11-06T08:00:00	6	Velocidad del viento	3.2
108542	7	Sololá	702	San José Chacayá	5	Chacayá	7	Julio	2023-07-20T00:00:00	2024-11-06T08:00:00	7	Dirección del viento	3.22
108543	7	Sololá	702	San José Chacayá	5	Chacayá	7	Julio	2023-07-20T00:00:00	2024-11-06T08:00:00	1	Precipitación	0
108544	7	Sololá	702	San José Chacayá	5	Chacayá	7	Julio	2023-07-20T00:00:00	2024-11-06T08:00:00	8	Radiación solar	126
108545	7	Sololá	702	San José Chacayá	5	Chacayá	7	Julio	2023-07-20T00:00:00	2024-11-06T09:00:00	2	Temperatura media	18.8
108546	7	Sololá	702	San José Chacayá	5	Chacayá	7	Julio	2023-07-20T00:00:00	2024-11-06T09:00:00	4	Temperatura máxima	18.8
108547	7	Sololá	702	San José Chacayá	5	Chacayá	7	Julio	2023-07-20T00:00:00	2024-11-06T09:00:00	3	Temperatura mínima	18.8
108548	7	Sololá	702	San José Chacayá	5	Chacayá	7	Julio	2023-07-20T00:00:00	2024-11-06T09:00:00	5	Humedad	70
108549	7	Sololá	702	San José Chacayá	5	Chacayá	7	Julio	2023-07-20T00:00:00	2024-11-06T09:00:00	6	Velocidad del viento	4.8
108550	7	Sololá	702	San José Chacayá	5	Chacayá	7	Julio	2023-07-20T00:00:00	2024-11-06T09:00:00	7	Dirección del viento	4.83
108551	7	Sololá	702	San José Chacayá	5	Chacayá	7	Julio	2023-07-20T00:00:00	2024-11-06T09:00:00	1	Precipitación	0
108552	7	Sololá	702	San José Chacayá	5	Chacayá	7	Julio	2023-07-20T00:00:00	2024-11-06T09:00:00	8	Radiación solar	666
108553	7	Sololá	702	San José Chacayá	5	Chacayá	7	Julio	2023-07-20T00:00:00	2024-11-06T10:00:00	2	Temperatura media	20.4
108554	7	Sololá	702	San José Chacayá	5	Chacayá	7	Julio	2023-07-20T00:00:00	2024-11-06T10:00:00	4	Temperatura máxima	20.4
108555	7	Sololá	702	San José Chacayá	5	Chacayá	7	Julio	2023-07-20T00:00:00	2024-11-06T10:00:00	3	Temperatura mínima	18.8
108556	7	Sololá	702	San José Chacayá	5	Chacayá	7	Julio	2023-07-20T00:00:00	2024-11-06T10:00:00	5	Humedad	67
108557	7	Sololá	702	San José Chacayá	5	Chacayá	7	Julio	2023-07-20T00:00:00	2024-11-06T10:00:00	6	Velocidad del viento	6.4
108558	7	Sololá	702	San José Chacayá	5	Chacayá	7	Julio	2023-07-20T00:00:00	2024-11-06T10:00:00	7	Dirección del viento	6.44
108559	7	Sololá	702	San José Chacayá	5	Chacayá	7	Julio	2023-07-20T00:00:00	2024-11-06T10:00:00	1	Precipitación	0
108560	7	Sololá	702	San José Chacayá	5	Chacayá	7	Julio	2023-07-20T00:00:00	2024-11-06T10:00:00	8	Radiación solar	764
108561	7	Sololá	702	San José Chacayá	5	Chacayá	7	Julio	2023-07-20T00:00:00	2024-11-06T11:00:00	2	Temperatura media	20.9
108562	7	Sololá	702	San José Chacayá	5	Chacayá	7	Julio	2023-07-20T00:00:00	2024-11-06T11:00:00	4	Temperatura máxima	21.2
108563	7	Sololá	702	San José Chacayá	5	Chacayá	7	Julio	2023-07-20T00:00:00	2024-11-06T11:00:00	3	Temperatura mínima	19.8
108564	7	Sololá	702	San José Chacayá	5	Chacayá	7	Julio	2023-07-20T00:00:00	2024-11-06T11:00:00	5	Humedad	64
108565	7	Sololá	702	San José Chacayá	5	Chacayá	7	Julio	2023-07-20T00:00:00	2024-11-06T11:00:00	6	Velocidad del viento	9.7
108566	7	Sololá	702	San José Chacayá	5	Chacayá	7	Julio	2023-07-20T00:00:00	2024-11-06T11:00:00	7	Dirección del viento	9.66
108567	7	Sololá	702	San José Chacayá	5	Chacayá	7	Julio	2023-07-20T00:00:00	2024-11-06T11:00:00	1	Precipitación	0
108568	7	Sololá	702	San José Chacayá	5	Chacayá	7	Julio	2023-07-20T00:00:00	2024-11-06T11:00:00	8	Radiación solar	915
108569	7	Sololá	702	San José Chacayá	5	Chacayá	7	Julio	2023-07-20T00:00:00	2024-11-06T12:00:00	2	Temperatura media	21.3
108570	7	Sololá	702	San José Chacayá	5	Chacayá	7	Julio	2023-07-20T00:00:00	2024-11-06T12:00:00	4	Temperatura máxima	21.8
108571	7	Sololá	702	San José Chacayá	5	Chacayá	7	Julio	2023-07-20T00:00:00	2024-11-06T12:00:00	3	Temperatura mínima	20.7
108572	7	Sololá	702	San José Chacayá	5	Chacayá	7	Julio	2023-07-20T00:00:00	2024-11-06T12:00:00	5	Humedad	63
108573	7	Sololá	702	San José Chacayá	5	Chacayá	7	Julio	2023-07-20T00:00:00	2024-11-06T12:00:00	6	Velocidad del viento	8
108574	7	Sololá	702	San José Chacayá	5	Chacayá	7	Julio	2023-07-20T00:00:00	2024-11-06T12:00:00	7	Dirección del viento	8.05
108575	7	Sololá	702	San José Chacayá	5	Chacayá	7	Julio	2023-07-20T00:00:00	2024-11-06T12:00:00	1	Precipitación	0
108576	7	Sololá	702	San José Chacayá	5	Chacayá	7	Julio	2023-07-20T00:00:00	2024-11-06T12:00:00	8	Radiación solar	954
108577	7	Sololá	702	San José Chacayá	5	Chacayá	7	Julio	2023-07-20T00:00:00	2024-11-06T13:00:00	2	Temperatura media	21.3
108578	7	Sololá	702	San José Chacayá	5	Chacayá	7	Julio	2023-07-20T00:00:00	2024-11-06T13:00:00	4	Temperatura máxima	22.2
108579	7	Sololá	702	San José Chacayá	5	Chacayá	7	Julio	2023-07-20T00:00:00	2024-11-06T13:00:00	3	Temperatura mínima	20.9
108580	7	Sololá	702	San José Chacayá	5	Chacayá	7	Julio	2023-07-20T00:00:00	2024-11-06T13:00:00	5	Humedad	64
108581	7	Sololá	702	San José Chacayá	5	Chacayá	7	Julio	2023-07-20T00:00:00	2024-11-06T13:00:00	6	Velocidad del viento	8
108582	7	Sololá	702	San José Chacayá	5	Chacayá	7	Julio	2023-07-20T00:00:00	2024-11-06T13:00:00	7	Dirección del viento	8.05
108583	7	Sololá	702	San José Chacayá	5	Chacayá	7	Julio	2023-07-20T00:00:00	2024-11-06T13:00:00	1	Precipitación	0
108584	7	Sololá	702	San José Chacayá	5	Chacayá	7	Julio	2023-07-20T00:00:00	2024-11-06T13:00:00	8	Radiación solar	790
108585	7	Sololá	702	San José Chacayá	5	Chacayá	7	Julio	2023-07-20T00:00:00	2024-11-06T14:00:00	2	Temperatura media	22.8
108586	7	Sololá	702	San José Chacayá	5	Chacayá	7	Julio	2023-07-20T00:00:00	2024-11-06T14:00:00	4	Temperatura máxima	22.8
108587	7	Sololá	702	San José Chacayá	5	Chacayá	7	Julio	2023-07-20T00:00:00	2024-11-06T14:00:00	3	Temperatura mínima	21.3
108588	7	Sololá	702	San José Chacayá	5	Chacayá	7	Julio	2023-07-20T00:00:00	2024-11-06T14:00:00	5	Humedad	61
108589	7	Sololá	702	San José Chacayá	5	Chacayá	7	Julio	2023-07-20T00:00:00	2024-11-06T14:00:00	6	Velocidad del viento	6.4
108590	7	Sololá	702	San José Chacayá	5	Chacayá	7	Julio	2023-07-20T00:00:00	2024-11-06T14:00:00	7	Dirección del viento	6.44
108591	7	Sololá	702	San José Chacayá	5	Chacayá	7	Julio	2023-07-20T00:00:00	2024-11-06T14:00:00	1	Precipitación	0
108592	7	Sololá	702	San José Chacayá	5	Chacayá	7	Julio	2023-07-20T00:00:00	2024-11-06T14:00:00	8	Radiación solar	675
108593	7	Sololá	702	San José Chacayá	5	Chacayá	7	Julio	2023-07-20T00:00:00	2024-11-06T15:00:00	2	Temperatura media	23.7
108594	7	Sololá	702	San José Chacayá	5	Chacayá	7	Julio	2023-07-20T00:00:00	2024-11-06T15:00:00	4	Temperatura máxima	23.7
108595	7	Sololá	702	San José Chacayá	5	Chacayá	7	Julio	2023-07-20T00:00:00	2024-11-06T15:00:00	3	Temperatura mínima	22.4
108596	7	Sololá	702	San José Chacayá	5	Chacayá	7	Julio	2023-07-20T00:00:00	2024-11-06T15:00:00	5	Humedad	58
108597	7	Sololá	702	San José Chacayá	5	Chacayá	7	Julio	2023-07-20T00:00:00	2024-11-06T15:00:00	6	Velocidad del viento	6.4
108598	7	Sololá	702	San José Chacayá	5	Chacayá	7	Julio	2023-07-20T00:00:00	2024-11-06T15:00:00	7	Dirección del viento	6.44
108599	7	Sololá	702	San José Chacayá	5	Chacayá	7	Julio	2023-07-20T00:00:00	2024-11-06T15:00:00	1	Precipitación	0
108600	7	Sololá	702	San José Chacayá	5	Chacayá	7	Julio	2023-07-20T00:00:00	2024-11-06T15:00:00	8	Radiación solar	782
108601	7	Sololá	702	San José Chacayá	5	Chacayá	7	Julio	2023-07-20T00:00:00	2024-11-06T16:00:00	2	Temperatura media	22.1
108602	7	Sololá	702	San José Chacayá	5	Chacayá	7	Julio	2023-07-20T00:00:00	2024-11-06T16:00:00	4	Temperatura máxima	23.9
108603	7	Sololá	702	San José Chacayá	5	Chacayá	7	Julio	2023-07-20T00:00:00	2024-11-06T16:00:00	3	Temperatura mínima	22.1
108604	7	Sololá	702	San José Chacayá	5	Chacayá	7	Julio	2023-07-20T00:00:00	2024-11-06T16:00:00	5	Humedad	60
108605	7	Sololá	702	San José Chacayá	5	Chacayá	7	Julio	2023-07-20T00:00:00	2024-11-06T16:00:00	6	Velocidad del viento	4.8
108606	7	Sololá	702	San José Chacayá	5	Chacayá	7	Julio	2023-07-20T00:00:00	2024-11-06T16:00:00	7	Dirección del viento	4.83
108607	7	Sololá	702	San José Chacayá	5	Chacayá	7	Julio	2023-07-20T00:00:00	2024-11-06T16:00:00	1	Precipitación	0
108608	7	Sololá	702	San José Chacayá	5	Chacayá	7	Julio	2023-07-20T00:00:00	2024-11-06T16:00:00	8	Radiación solar	656
108609	7	Sololá	702	San José Chacayá	5	Chacayá	7	Julio	2023-07-20T00:00:00	2024-11-06T17:00:00	2	Temperatura media	20.6
108610	7	Sololá	702	San José Chacayá	5	Chacayá	7	Julio	2023-07-20T00:00:00	2024-11-06T17:00:00	4	Temperatura máxima	22.4
108611	7	Sololá	702	San José Chacayá	5	Chacayá	7	Julio	2023-07-20T00:00:00	2024-11-06T17:00:00	3	Temperatura mínima	20.6
108612	7	Sololá	702	San José Chacayá	5	Chacayá	7	Julio	2023-07-20T00:00:00	2024-11-06T17:00:00	5	Humedad	63
108613	7	Sololá	702	San José Chacayá	5	Chacayá	7	Julio	2023-07-20T00:00:00	2024-11-06T17:00:00	6	Velocidad del viento	4.8
108614	7	Sololá	702	San José Chacayá	5	Chacayá	7	Julio	2023-07-20T00:00:00	2024-11-06T17:00:00	7	Dirección del viento	4.83
108615	7	Sololá	702	San José Chacayá	5	Chacayá	7	Julio	2023-07-20T00:00:00	2024-11-06T17:00:00	1	Precipitación	0
108616	7	Sololá	702	San José Chacayá	5	Chacayá	7	Julio	2023-07-20T00:00:00	2024-11-06T17:00:00	8	Radiación solar	271
108617	7	Sololá	702	San José Chacayá	5	Chacayá	7	Julio	2023-07-20T00:00:00	2024-11-06T18:00:00	2	Temperatura media	18.1
108618	7	Sololá	702	San José Chacayá	5	Chacayá	7	Julio	2023-07-20T00:00:00	2024-11-06T18:00:00	4	Temperatura máxima	20.6
108619	7	Sololá	702	San José Chacayá	5	Chacayá	7	Julio	2023-07-20T00:00:00	2024-11-06T18:00:00	3	Temperatura mínima	18.1
108620	7	Sololá	702	San José Chacayá	5	Chacayá	7	Julio	2023-07-20T00:00:00	2024-11-06T18:00:00	5	Humedad	74
108621	7	Sololá	702	San José Chacayá	5	Chacayá	7	Julio	2023-07-20T00:00:00	2024-11-06T18:00:00	6	Velocidad del viento	4.8
108622	7	Sololá	702	San José Chacayá	5	Chacayá	7	Julio	2023-07-20T00:00:00	2024-11-06T18:00:00	7	Dirección del viento	4.83
108623	7	Sololá	702	San José Chacayá	5	Chacayá	7	Julio	2023-07-20T00:00:00	2024-11-06T18:00:00	1	Precipitación	0
108624	7	Sololá	702	San José Chacayá	5	Chacayá	7	Julio	2023-07-20T00:00:00	2024-11-06T18:00:00	8	Radiación solar	75
108625	7	Sololá	702	San José Chacayá	5	Chacayá	7	Julio	2023-07-20T00:00:00	2024-11-06T19:00:00	2	Temperatura media	16.3
108626	7	Sololá	702	San José Chacayá	5	Chacayá	7	Julio	2023-07-20T00:00:00	2024-11-06T19:00:00	4	Temperatura máxima	18.1
108627	7	Sololá	702	San José Chacayá	5	Chacayá	7	Julio	2023-07-20T00:00:00	2024-11-06T19:00:00	3	Temperatura mínima	16.3
108628	7	Sololá	702	San José Chacayá	5	Chacayá	7	Julio	2023-07-20T00:00:00	2024-11-06T19:00:00	5	Humedad	79
108629	7	Sololá	702	San José Chacayá	5	Chacayá	7	Julio	2023-07-20T00:00:00	2024-11-06T19:00:00	6	Velocidad del viento	4.8
108630	7	Sololá	702	San José Chacayá	5	Chacayá	7	Julio	2023-07-20T00:00:00	2024-11-06T19:00:00	7	Dirección del viento	4.83
108631	7	Sololá	702	San José Chacayá	5	Chacayá	7	Julio	2023-07-20T00:00:00	2024-11-06T19:00:00	1	Precipitación	0
108632	7	Sololá	702	San José Chacayá	5	Chacayá	7	Julio	2023-07-20T00:00:00	2024-11-06T19:00:00	8	Radiación solar	0
108633	7	Sololá	702	San José Chacayá	5	Chacayá	7	Julio	2023-07-20T00:00:00	2024-11-06T20:00:00	2	Temperatura media	16.3
108634	7	Sololá	702	San José Chacayá	5	Chacayá	7	Julio	2023-07-20T00:00:00	2024-11-06T20:00:00	4	Temperatura máxima	16.4
108635	7	Sololá	702	San José Chacayá	5	Chacayá	7	Julio	2023-07-20T00:00:00	2024-11-06T20:00:00	3	Temperatura mínima	16.3
108636	7	Sololá	702	San José Chacayá	5	Chacayá	7	Julio	2023-07-20T00:00:00	2024-11-06T20:00:00	5	Humedad	78
108637	7	Sololá	702	San José Chacayá	5	Chacayá	7	Julio	2023-07-20T00:00:00	2024-11-06T20:00:00	6	Velocidad del viento	4.8
108638	7	Sololá	702	San José Chacayá	5	Chacayá	7	Julio	2023-07-20T00:00:00	2024-11-06T20:00:00	7	Dirección del viento	4.83
108639	7	Sololá	702	San José Chacayá	5	Chacayá	7	Julio	2023-07-20T00:00:00	2024-11-06T20:00:00	1	Precipitación	0
108640	7	Sololá	702	San José Chacayá	5	Chacayá	7	Julio	2023-07-20T00:00:00	2024-11-06T20:00:00	8	Radiación solar	0
108641	7	Sololá	702	San José Chacayá	5	Chacayá	7	Julio	2023-07-20T00:00:00	2024-11-06T21:00:00	2	Temperatura media	16.6
108642	7	Sololá	702	San José Chacayá	5	Chacayá	7	Julio	2023-07-20T00:00:00	2024-11-06T21:00:00	4	Temperatura máxima	16.6
108643	7	Sololá	702	San José Chacayá	5	Chacayá	7	Julio	2023-07-20T00:00:00	2024-11-06T21:00:00	3	Temperatura mínima	16.2
108644	7	Sololá	702	San José Chacayá	5	Chacayá	7	Julio	2023-07-20T00:00:00	2024-11-06T21:00:00	5	Humedad	77
108645	7	Sololá	702	San José Chacayá	5	Chacayá	7	Julio	2023-07-20T00:00:00	2024-11-06T21:00:00	6	Velocidad del viento	4.8
108646	7	Sololá	702	San José Chacayá	5	Chacayá	7	Julio	2023-07-20T00:00:00	2024-11-06T21:00:00	7	Dirección del viento	4.83
108647	7	Sololá	702	San José Chacayá	5	Chacayá	7	Julio	2023-07-20T00:00:00	2024-11-06T21:00:00	1	Precipitación	0
108648	7	Sololá	702	San José Chacayá	5	Chacayá	7	Julio	2023-07-20T00:00:00	2024-11-06T21:00:00	8	Radiación solar	0
108649	7	Sololá	702	San José Chacayá	5	Chacayá	7	Julio	2023-07-20T00:00:00	2024-11-06T22:00:00	2	Temperatura media	16.5
108650	7	Sololá	702	San José Chacayá	5	Chacayá	7	Julio	2023-07-20T00:00:00	2024-11-06T22:00:00	4	Temperatura máxima	16.7
108651	7	Sololá	702	San José Chacayá	5	Chacayá	7	Julio	2023-07-20T00:00:00	2024-11-06T22:00:00	3	Temperatura mínima	16.2
108652	7	Sololá	702	San José Chacayá	5	Chacayá	7	Julio	2023-07-20T00:00:00	2024-11-06T22:00:00	5	Humedad	75
108653	7	Sololá	702	San José Chacayá	5	Chacayá	7	Julio	2023-07-20T00:00:00	2024-11-06T22:00:00	6	Velocidad del viento	3.2
108654	7	Sololá	702	San José Chacayá	5	Chacayá	7	Julio	2023-07-20T00:00:00	2024-11-06T22:00:00	7	Dirección del viento	3.22
108655	7	Sololá	702	San José Chacayá	5	Chacayá	7	Julio	2023-07-20T00:00:00	2024-11-06T22:00:00	1	Precipitación	0
108656	7	Sololá	702	San José Chacayá	5	Chacayá	7	Julio	2023-07-20T00:00:00	2024-11-06T22:00:00	8	Radiación solar	0
108657	7	Sololá	702	San José Chacayá	5	Chacayá	7	Julio	2023-07-20T00:00:00	2024-11-06T23:00:00	2	Temperatura media	16.4
108658	7	Sololá	702	San José Chacayá	5	Chacayá	7	Julio	2023-07-20T00:00:00	2024-11-06T23:00:00	4	Temperatura máxima	16.5
108659	7	Sololá	702	San José Chacayá	5	Chacayá	7	Julio	2023-07-20T00:00:00	2024-11-06T23:00:00	3	Temperatura mínima	15.9
108660	7	Sololá	702	San José Chacayá	5	Chacayá	7	Julio	2023-07-20T00:00:00	2024-11-06T23:00:00	5	Humedad	74
108661	7	Sololá	702	San José Chacayá	5	Chacayá	7	Julio	2023-07-20T00:00:00	2024-11-06T23:00:00	6	Velocidad del viento	1.6
108662	7	Sololá	702	San José Chacayá	5	Chacayá	7	Julio	2023-07-20T00:00:00	2024-11-06T23:00:00	7	Dirección del viento	1.61
108663	7	Sololá	702	San José Chacayá	5	Chacayá	7	Julio	2023-07-20T00:00:00	2024-11-06T23:00:00	1	Precipitación	0
108664	7	Sololá	702	San José Chacayá	5	Chacayá	7	Julio	2023-07-20T00:00:00	2024-11-06T23:00:00	8	Radiación solar	0
108665	7	Sololá	702	San José Chacayá	5	Chacayá	7	Julio	2023-07-21T00:00:00	2024-11-06T00:00:00	2	Temperatura media	14.5
108666	7	Sololá	702	San José Chacayá	5	Chacayá	7	Julio	2023-07-21T00:00:00	2024-11-06T00:00:00	4	Temperatura máxima	16.4
108667	7	Sololá	702	San José Chacayá	5	Chacayá	7	Julio	2023-07-21T00:00:00	2024-11-06T00:00:00	3	Temperatura mínima	14.5
108668	7	Sololá	702	San José Chacayá	5	Chacayá	7	Julio	2023-07-21T00:00:00	2024-11-06T00:00:00	5	Humedad	80
108669	7	Sololá	702	San José Chacayá	5	Chacayá	7	Julio	2023-07-21T00:00:00	2024-11-06T00:00:00	6	Velocidad del viento	1.6
108670	7	Sololá	702	San José Chacayá	5	Chacayá	7	Julio	2023-07-21T00:00:00	2024-11-06T00:00:00	7	Dirección del viento	1.61
108671	7	Sololá	702	San José Chacayá	5	Chacayá	7	Julio	2023-07-21T00:00:00	2024-11-06T00:00:00	1	Precipitación	0
108672	7	Sololá	702	San José Chacayá	5	Chacayá	7	Julio	2023-07-21T00:00:00	2024-11-06T00:00:00	8	Radiación solar	0
108673	7	Sololá	702	San José Chacayá	5	Chacayá	7	Julio	2023-07-21T00:00:00	2024-11-06T01:00:00	2	Temperatura media	14.3
108674	7	Sololá	702	San José Chacayá	5	Chacayá	7	Julio	2023-07-21T00:00:00	2024-11-06T01:00:00	4	Temperatura máxima	15.8
108675	7	Sololá	702	San José Chacayá	5	Chacayá	7	Julio	2023-07-21T00:00:00	2024-11-06T01:00:00	3	Temperatura mínima	14.3
108676	7	Sololá	702	San José Chacayá	5	Chacayá	7	Julio	2023-07-21T00:00:00	2024-11-06T01:00:00	5	Humedad	81
108677	7	Sololá	702	San José Chacayá	5	Chacayá	7	Julio	2023-07-21T00:00:00	2024-11-06T01:00:00	6	Velocidad del viento	1.6
108678	7	Sololá	702	San José Chacayá	5	Chacayá	7	Julio	2023-07-21T00:00:00	2024-11-06T01:00:00	7	Dirección del viento	1.61
108679	7	Sololá	702	San José Chacayá	5	Chacayá	7	Julio	2023-07-21T00:00:00	2024-11-06T01:00:00	1	Precipitación	0
108680	7	Sololá	702	San José Chacayá	5	Chacayá	7	Julio	2023-07-21T00:00:00	2024-11-06T01:00:00	8	Radiación solar	0
108681	7	Sololá	702	San José Chacayá	5	Chacayá	7	Julio	2023-07-21T00:00:00	2024-11-06T02:00:00	2	Temperatura media	13.9
108682	7	Sololá	702	San José Chacayá	5	Chacayá	7	Julio	2023-07-21T00:00:00	2024-11-06T02:00:00	4	Temperatura máxima	14.1
108683	7	Sololá	702	San José Chacayá	5	Chacayá	7	Julio	2023-07-21T00:00:00	2024-11-06T02:00:00	3	Temperatura mínima	13.9
108684	7	Sololá	702	San José Chacayá	5	Chacayá	7	Julio	2023-07-21T00:00:00	2024-11-06T02:00:00	5	Humedad	77
108685	7	Sololá	702	San José Chacayá	5	Chacayá	7	Julio	2023-07-21T00:00:00	2024-11-06T02:00:00	6	Velocidad del viento	0
108686	7	Sololá	702	San José Chacayá	5	Chacayá	7	Julio	2023-07-21T00:00:00	2024-11-06T02:00:00	7	Dirección del viento	0
108687	7	Sololá	702	San José Chacayá	5	Chacayá	7	Julio	2023-07-21T00:00:00	2024-11-06T02:00:00	1	Precipitación	0
108688	7	Sololá	702	San José Chacayá	5	Chacayá	7	Julio	2023-07-21T00:00:00	2024-11-06T02:00:00	8	Radiación solar	0
108689	7	Sololá	702	San José Chacayá	5	Chacayá	7	Julio	2023-07-21T00:00:00	2024-11-06T03:00:00	2	Temperatura media	13.6
108690	7	Sololá	702	San José Chacayá	5	Chacayá	7	Julio	2023-07-21T00:00:00	2024-11-06T03:00:00	4	Temperatura máxima	13.9
108691	7	Sololá	702	San José Chacayá	5	Chacayá	7	Julio	2023-07-21T00:00:00	2024-11-06T03:00:00	3	Temperatura mínima	13.6
108692	7	Sololá	702	San José Chacayá	5	Chacayá	7	Julio	2023-07-21T00:00:00	2024-11-06T03:00:00	5	Humedad	76
108693	7	Sololá	702	San José Chacayá	5	Chacayá	7	Julio	2023-07-21T00:00:00	2024-11-06T03:00:00	6	Velocidad del viento	0
108694	7	Sololá	702	San José Chacayá	5	Chacayá	7	Julio	2023-07-21T00:00:00	2024-11-06T03:00:00	7	Dirección del viento	0
108695	7	Sololá	702	San José Chacayá	5	Chacayá	7	Julio	2023-07-21T00:00:00	2024-11-06T03:00:00	1	Precipitación	0
108696	7	Sololá	702	San José Chacayá	5	Chacayá	7	Julio	2023-07-21T00:00:00	2024-11-06T03:00:00	8	Radiación solar	0
108697	7	Sololá	702	San José Chacayá	5	Chacayá	7	Julio	2023-07-21T00:00:00	2024-11-06T04:00:00	2	Temperatura media	11.4
108698	7	Sololá	702	San José Chacayá	5	Chacayá	7	Julio	2023-07-21T00:00:00	2024-11-06T04:00:00	4	Temperatura máxima	11.9
108699	7	Sololá	702	San José Chacayá	5	Chacayá	7	Julio	2023-07-21T00:00:00	2024-11-06T04:00:00	3	Temperatura mínima	11.4
108700	7	Sololá	702	San José Chacayá	5	Chacayá	7	Julio	2023-07-21T00:00:00	2024-11-06T04:00:00	5	Humedad	83
108701	7	Sololá	702	San José Chacayá	5	Chacayá	7	Julio	2023-07-21T00:00:00	2024-11-06T04:00:00	6	Velocidad del viento	3.2
108702	7	Sololá	702	San José Chacayá	5	Chacayá	7	Julio	2023-07-21T00:00:00	2024-11-06T04:00:00	7	Dirección del viento	3.22
108703	7	Sololá	702	San José Chacayá	5	Chacayá	7	Julio	2023-07-21T00:00:00	2024-11-06T04:00:00	1	Precipitación	0
108704	7	Sololá	702	San José Chacayá	5	Chacayá	7	Julio	2023-07-21T00:00:00	2024-11-06T04:00:00	8	Radiación solar	0
108705	7	Sololá	702	San José Chacayá	5	Chacayá	7	Julio	2023-07-21T00:00:00	2024-11-06T05:00:00	2	Temperatura media	11.8
108706	7	Sololá	702	San José Chacayá	5	Chacayá	7	Julio	2023-07-21T00:00:00	2024-11-06T05:00:00	4	Temperatura máxima	13.1
108707	7	Sololá	702	San José Chacayá	5	Chacayá	7	Julio	2023-07-21T00:00:00	2024-11-06T05:00:00	3	Temperatura mínima	11.4
108708	7	Sololá	702	San José Chacayá	5	Chacayá	7	Julio	2023-07-21T00:00:00	2024-11-06T05:00:00	5	Humedad	84
108709	7	Sololá	702	San José Chacayá	5	Chacayá	7	Julio	2023-07-21T00:00:00	2024-11-06T05:00:00	6	Velocidad del viento	3.2
108710	7	Sololá	702	San José Chacayá	5	Chacayá	7	Julio	2023-07-21T00:00:00	2024-11-06T05:00:00	7	Dirección del viento	3.22
108711	7	Sololá	702	San José Chacayá	5	Chacayá	7	Julio	2023-07-21T00:00:00	2024-11-06T05:00:00	1	Precipitación	0
108712	7	Sololá	702	San José Chacayá	5	Chacayá	7	Julio	2023-07-21T00:00:00	2024-11-06T05:00:00	8	Radiación solar	0
108713	7	Sololá	702	San José Chacayá	5	Chacayá	7	Julio	2023-07-21T00:00:00	2024-11-06T06:00:00	2	Temperatura media	13.2
108714	7	Sololá	702	San José Chacayá	5	Chacayá	7	Julio	2023-07-21T00:00:00	2024-11-06T06:00:00	4	Temperatura máxima	13.2
108715	7	Sololá	702	San José Chacayá	5	Chacayá	7	Julio	2023-07-21T00:00:00	2024-11-06T06:00:00	3	Temperatura mínima	11.7
108716	7	Sololá	702	San José Chacayá	5	Chacayá	7	Julio	2023-07-21T00:00:00	2024-11-06T06:00:00	5	Humedad	83
108717	7	Sololá	702	San José Chacayá	5	Chacayá	7	Julio	2023-07-21T00:00:00	2024-11-06T06:00:00	6	Velocidad del viento	3.2
108718	7	Sololá	702	San José Chacayá	5	Chacayá	7	Julio	2023-07-21T00:00:00	2024-11-06T06:00:00	7	Dirección del viento	3.22
108719	7	Sololá	702	San José Chacayá	5	Chacayá	7	Julio	2023-07-21T00:00:00	2024-11-06T06:00:00	1	Precipitación	0
108720	7	Sololá	702	San José Chacayá	5	Chacayá	7	Julio	2023-07-21T00:00:00	2024-11-06T06:00:00	8	Radiación solar	1
108721	7	Sololá	702	San José Chacayá	5	Chacayá	7	Julio	2023-07-21T00:00:00	2024-11-06T07:00:00	2	Temperatura media	13.2
108722	7	Sololá	702	San José Chacayá	5	Chacayá	7	Julio	2023-07-21T00:00:00	2024-11-06T07:00:00	4	Temperatura máxima	13.2
108723	7	Sololá	702	San José Chacayá	5	Chacayá	7	Julio	2023-07-21T00:00:00	2024-11-06T07:00:00	3	Temperatura mínima	12.4
108724	7	Sololá	702	San José Chacayá	5	Chacayá	7	Julio	2023-07-21T00:00:00	2024-11-06T07:00:00	5	Humedad	82
108725	7	Sololá	702	San José Chacayá	5	Chacayá	7	Julio	2023-07-21T00:00:00	2024-11-06T07:00:00	6	Velocidad del viento	1.6
108726	7	Sololá	702	San José Chacayá	5	Chacayá	7	Julio	2023-07-21T00:00:00	2024-11-06T07:00:00	7	Dirección del viento	1.61
108727	7	Sololá	702	San José Chacayá	5	Chacayá	7	Julio	2023-07-21T00:00:00	2024-11-06T07:00:00	1	Precipitación	0
108728	7	Sololá	702	San José Chacayá	5	Chacayá	7	Julio	2023-07-21T00:00:00	2024-11-06T07:00:00	8	Radiación solar	50
108729	7	Sololá	702	San José Chacayá	5	Chacayá	7	Julio	2023-07-21T00:00:00	2024-11-06T08:00:00	2	Temperatura media	15.1
108730	7	Sololá	702	San José Chacayá	5	Chacayá	7	Julio	2023-07-21T00:00:00	2024-11-06T08:00:00	4	Temperatura máxima	15.1
108731	7	Sololá	702	San José Chacayá	5	Chacayá	7	Julio	2023-07-21T00:00:00	2024-11-06T08:00:00	3	Temperatura mínima	13.2
108732	7	Sololá	702	San José Chacayá	5	Chacayá	7	Julio	2023-07-21T00:00:00	2024-11-06T08:00:00	5	Humedad	84
108733	7	Sololá	702	San José Chacayá	5	Chacayá	7	Julio	2023-07-21T00:00:00	2024-11-06T08:00:00	6	Velocidad del viento	0
108734	7	Sololá	702	San José Chacayá	5	Chacayá	7	Julio	2023-07-21T00:00:00	2024-11-06T08:00:00	7	Dirección del viento	0
108735	7	Sololá	702	San José Chacayá	5	Chacayá	7	Julio	2023-07-21T00:00:00	2024-11-06T08:00:00	1	Precipitación	0
108736	7	Sololá	702	San José Chacayá	5	Chacayá	7	Julio	2023-07-21T00:00:00	2024-11-06T08:00:00	8	Radiación solar	140
108737	7	Sololá	702	San José Chacayá	5	Chacayá	7	Julio	2023-07-21T00:00:00	2024-11-06T09:00:00	2	Temperatura media	20.3
108738	7	Sololá	702	San José Chacayá	5	Chacayá	7	Julio	2023-07-21T00:00:00	2024-11-06T09:00:00	4	Temperatura máxima	20.7
108739	7	Sololá	702	San José Chacayá	5	Chacayá	7	Julio	2023-07-21T00:00:00	2024-11-06T09:00:00	3	Temperatura mínima	20.2
108740	7	Sololá	702	San José Chacayá	5	Chacayá	7	Julio	2023-07-21T00:00:00	2024-11-06T09:00:00	5	Humedad	66
108741	7	Sololá	702	San José Chacayá	5	Chacayá	7	Julio	2023-07-21T00:00:00	2024-11-06T09:00:00	6	Velocidad del viento	4.8
108742	7	Sololá	702	San José Chacayá	5	Chacayá	7	Julio	2023-07-21T00:00:00	2024-11-06T09:00:00	7	Dirección del viento	4.83
108743	7	Sololá	702	San José Chacayá	5	Chacayá	7	Julio	2023-07-21T00:00:00	2024-11-06T09:00:00	1	Precipitación	0
108744	7	Sololá	702	San José Chacayá	5	Chacayá	7	Julio	2023-07-21T00:00:00	2024-11-06T09:00:00	8	Radiación solar	392
108745	7	Sololá	702	San José Chacayá	5	Chacayá	7	Julio	2023-07-21T00:00:00	2024-11-06T10:00:00	2	Temperatura media	22.3
108746	7	Sololá	702	San José Chacayá	5	Chacayá	7	Julio	2023-07-21T00:00:00	2024-11-06T10:00:00	4	Temperatura máxima	22.3
108747	7	Sololá	702	San José Chacayá	5	Chacayá	7	Julio	2023-07-21T00:00:00	2024-11-06T10:00:00	3	Temperatura mínima	20
108748	7	Sololá	702	San José Chacayá	5	Chacayá	7	Julio	2023-07-21T00:00:00	2024-11-06T10:00:00	5	Humedad	60
108749	7	Sololá	702	San José Chacayá	5	Chacayá	7	Julio	2023-07-21T00:00:00	2024-11-06T10:00:00	6	Velocidad del viento	4.8
108750	7	Sololá	702	San José Chacayá	5	Chacayá	7	Julio	2023-07-21T00:00:00	2024-11-06T10:00:00	7	Dirección del viento	4.83
108751	7	Sololá	702	San José Chacayá	5	Chacayá	7	Julio	2023-07-21T00:00:00	2024-11-06T10:00:00	1	Precipitación	0
108752	7	Sololá	702	San José Chacayá	5	Chacayá	7	Julio	2023-07-21T00:00:00	2024-11-06T10:00:00	8	Radiación solar	769
108753	7	Sololá	702	San José Chacayá	5	Chacayá	7	Julio	2023-07-21T00:00:00	2024-11-06T11:00:00	2	Temperatura media	23.8
108754	7	Sololá	702	San José Chacayá	5	Chacayá	7	Julio	2023-07-21T00:00:00	2024-11-06T11:00:00	4	Temperatura máxima	23.8
108755	7	Sololá	702	San José Chacayá	5	Chacayá	7	Julio	2023-07-21T00:00:00	2024-11-06T11:00:00	3	Temperatura mínima	21.9
108756	7	Sololá	702	San José Chacayá	5	Chacayá	7	Julio	2023-07-21T00:00:00	2024-11-06T11:00:00	5	Humedad	58
108757	7	Sololá	702	San José Chacayá	5	Chacayá	7	Julio	2023-07-21T00:00:00	2024-11-06T11:00:00	6	Velocidad del viento	4.8
108758	7	Sololá	702	San José Chacayá	5	Chacayá	7	Julio	2023-07-21T00:00:00	2024-11-06T11:00:00	7	Dirección del viento	4.83
108759	7	Sololá	702	San José Chacayá	5	Chacayá	7	Julio	2023-07-21T00:00:00	2024-11-06T11:00:00	1	Precipitación	0
108760	7	Sololá	702	San José Chacayá	5	Chacayá	7	Julio	2023-07-21T00:00:00	2024-11-06T11:00:00	8	Radiación solar	947
108761	7	Sololá	702	San José Chacayá	5	Chacayá	7	Julio	2023-07-21T00:00:00	2024-11-06T12:00:00	2	Temperatura media	25.2
108762	7	Sololá	702	San José Chacayá	5	Chacayá	7	Julio	2023-07-21T00:00:00	2024-11-06T12:00:00	4	Temperatura máxima	25.3
108763	7	Sololá	702	San José Chacayá	5	Chacayá	7	Julio	2023-07-21T00:00:00	2024-11-06T12:00:00	3	Temperatura mínima	23.8
108764	7	Sololá	702	San José Chacayá	5	Chacayá	7	Julio	2023-07-21T00:00:00	2024-11-06T12:00:00	5	Humedad	48
108765	7	Sololá	702	San José Chacayá	5	Chacayá	7	Julio	2023-07-21T00:00:00	2024-11-06T12:00:00	6	Velocidad del viento	4.8
108766	7	Sololá	702	San José Chacayá	5	Chacayá	7	Julio	2023-07-21T00:00:00	2024-11-06T12:00:00	7	Dirección del viento	4.83
108767	7	Sololá	702	San José Chacayá	5	Chacayá	7	Julio	2023-07-21T00:00:00	2024-11-06T12:00:00	1	Precipitación	0
108768	7	Sololá	702	San José Chacayá	5	Chacayá	7	Julio	2023-07-21T00:00:00	2024-11-06T12:00:00	8	Radiación solar	1003
108769	7	Sololá	702	San José Chacayá	5	Chacayá	7	Julio	2023-07-21T00:00:00	2024-11-06T13:00:00	2	Temperatura media	24.1
108770	7	Sololá	702	San José Chacayá	5	Chacayá	7	Julio	2023-07-21T00:00:00	2024-11-06T13:00:00	4	Temperatura máxima	25.9
108771	7	Sololá	702	San José Chacayá	5	Chacayá	7	Julio	2023-07-21T00:00:00	2024-11-06T13:00:00	3	Temperatura mínima	24
108772	7	Sololá	702	San José Chacayá	5	Chacayá	7	Julio	2023-07-21T00:00:00	2024-11-06T13:00:00	5	Humedad	54
108773	7	Sololá	702	San José Chacayá	5	Chacayá	7	Julio	2023-07-21T00:00:00	2024-11-06T13:00:00	6	Velocidad del viento	4.8
108774	7	Sololá	702	San José Chacayá	5	Chacayá	7	Julio	2023-07-21T00:00:00	2024-11-06T13:00:00	7	Dirección del viento	4.83
108775	7	Sololá	702	San José Chacayá	5	Chacayá	7	Julio	2023-07-21T00:00:00	2024-11-06T13:00:00	1	Precipitación	0
108776	7	Sololá	702	San José Chacayá	5	Chacayá	7	Julio	2023-07-21T00:00:00	2024-11-06T13:00:00	8	Radiación solar	1047
108777	7	Sololá	702	San José Chacayá	5	Chacayá	7	Julio	2023-07-21T00:00:00	2024-11-06T14:00:00	2	Temperatura media	23.3
108778	7	Sololá	702	San José Chacayá	5	Chacayá	7	Julio	2023-07-21T00:00:00	2024-11-06T14:00:00	4	Temperatura máxima	24.5
108779	7	Sololá	702	San José Chacayá	5	Chacayá	7	Julio	2023-07-21T00:00:00	2024-11-06T14:00:00	3	Temperatura mínima	23.2
108780	7	Sololá	702	San José Chacayá	5	Chacayá	7	Julio	2023-07-21T00:00:00	2024-11-06T14:00:00	5	Humedad	57
108781	7	Sololá	702	San José Chacayá	5	Chacayá	7	Julio	2023-07-21T00:00:00	2024-11-06T14:00:00	6	Velocidad del viento	4.8
108782	7	Sololá	702	San José Chacayá	5	Chacayá	7	Julio	2023-07-21T00:00:00	2024-11-06T14:00:00	7	Dirección del viento	4.83
108783	7	Sololá	702	San José Chacayá	5	Chacayá	7	Julio	2023-07-21T00:00:00	2024-11-06T14:00:00	1	Precipitación	0
108784	7	Sololá	702	San José Chacayá	5	Chacayá	7	Julio	2023-07-21T00:00:00	2024-11-06T14:00:00	8	Radiación solar	938
108785	7	Sololá	702	San José Chacayá	5	Chacayá	7	Julio	2023-07-21T00:00:00	2024-11-06T15:00:00	2	Temperatura media	22.4
108786	7	Sololá	702	San José Chacayá	5	Chacayá	7	Julio	2023-07-21T00:00:00	2024-11-06T15:00:00	4	Temperatura máxima	24.6
108787	7	Sololá	702	San José Chacayá	5	Chacayá	7	Julio	2023-07-21T00:00:00	2024-11-06T15:00:00	3	Temperatura mínima	22.4
108788	7	Sololá	702	San José Chacayá	5	Chacayá	7	Julio	2023-07-21T00:00:00	2024-11-06T15:00:00	5	Humedad	66
108789	7	Sololá	702	San José Chacayá	5	Chacayá	7	Julio	2023-07-21T00:00:00	2024-11-06T15:00:00	6	Velocidad del viento	6.4
108790	7	Sololá	702	San José Chacayá	5	Chacayá	7	Julio	2023-07-21T00:00:00	2024-11-06T15:00:00	7	Dirección del viento	6.44
108791	7	Sololá	702	San José Chacayá	5	Chacayá	7	Julio	2023-07-21T00:00:00	2024-11-06T15:00:00	1	Precipitación	0
108792	7	Sololá	702	San José Chacayá	5	Chacayá	7	Julio	2023-07-21T00:00:00	2024-11-06T15:00:00	8	Radiación solar	860
108793	7	Sololá	702	San José Chacayá	5	Chacayá	7	Julio	2023-07-21T00:00:00	2024-11-06T16:00:00	2	Temperatura media	23.2
108794	7	Sololá	702	San José Chacayá	5	Chacayá	7	Julio	2023-07-21T00:00:00	2024-11-06T16:00:00	4	Temperatura máxima	23.8
108795	7	Sololá	702	San José Chacayá	5	Chacayá	7	Julio	2023-07-21T00:00:00	2024-11-06T16:00:00	3	Temperatura mínima	22.3
108796	7	Sololá	702	San José Chacayá	5	Chacayá	7	Julio	2023-07-21T00:00:00	2024-11-06T16:00:00	5	Humedad	68
108797	7	Sololá	702	San José Chacayá	5	Chacayá	7	Julio	2023-07-21T00:00:00	2024-11-06T16:00:00	6	Velocidad del viento	4.8
108798	7	Sololá	702	San José Chacayá	5	Chacayá	7	Julio	2023-07-21T00:00:00	2024-11-06T16:00:00	7	Dirección del viento	4.83
108799	7	Sololá	702	San José Chacayá	5	Chacayá	7	Julio	2023-07-21T00:00:00	2024-11-06T16:00:00	1	Precipitación	0
108800	7	Sololá	702	San José Chacayá	5	Chacayá	7	Julio	2023-07-21T00:00:00	2024-11-06T16:00:00	8	Radiación solar	641
108801	7	Sololá	702	San José Chacayá	5	Chacayá	7	Julio	2023-07-21T00:00:00	2024-11-06T17:00:00	2	Temperatura media	21.4
108802	7	Sololá	702	San José Chacayá	5	Chacayá	7	Julio	2023-07-21T00:00:00	2024-11-06T17:00:00	4	Temperatura máxima	23.2
108803	7	Sololá	702	San José Chacayá	5	Chacayá	7	Julio	2023-07-21T00:00:00	2024-11-06T17:00:00	3	Temperatura mínima	21.4
108804	7	Sololá	702	San José Chacayá	5	Chacayá	7	Julio	2023-07-21T00:00:00	2024-11-06T17:00:00	5	Humedad	74
108805	7	Sololá	702	San José Chacayá	5	Chacayá	7	Julio	2023-07-21T00:00:00	2024-11-06T17:00:00	6	Velocidad del viento	1.6
108806	7	Sololá	702	San José Chacayá	5	Chacayá	7	Julio	2023-07-21T00:00:00	2024-11-06T17:00:00	7	Dirección del viento	1.61
108807	7	Sololá	702	San José Chacayá	5	Chacayá	7	Julio	2023-07-21T00:00:00	2024-11-06T17:00:00	1	Precipitación	0
108808	7	Sololá	702	San José Chacayá	5	Chacayá	7	Julio	2023-07-21T00:00:00	2024-11-06T17:00:00	8	Radiación solar	310
108809	7	Sololá	702	San José Chacayá	5	Chacayá	7	Julio	2023-07-21T00:00:00	2024-11-06T18:00:00	2	Temperatura media	19.8
108810	7	Sololá	702	San José Chacayá	5	Chacayá	7	Julio	2023-07-21T00:00:00	2024-11-06T18:00:00	4	Temperatura máxima	21.5
108811	7	Sololá	702	San José Chacayá	5	Chacayá	7	Julio	2023-07-21T00:00:00	2024-11-06T18:00:00	3	Temperatura mínima	19.8
108812	7	Sololá	702	San José Chacayá	5	Chacayá	7	Julio	2023-07-21T00:00:00	2024-11-06T18:00:00	5	Humedad	81
108813	7	Sololá	702	San José Chacayá	5	Chacayá	7	Julio	2023-07-21T00:00:00	2024-11-06T18:00:00	6	Velocidad del viento	1.6
108814	7	Sololá	702	San José Chacayá	5	Chacayá	7	Julio	2023-07-21T00:00:00	2024-11-06T18:00:00	7	Dirección del viento	1.61
108815	7	Sololá	702	San José Chacayá	5	Chacayá	7	Julio	2023-07-21T00:00:00	2024-11-06T18:00:00	1	Precipitación	0
108816	7	Sololá	702	San José Chacayá	5	Chacayá	7	Julio	2023-07-21T00:00:00	2024-11-06T18:00:00	8	Radiación solar	57
108817	7	Sololá	702	San José Chacayá	5	Chacayá	7	Julio	2023-07-21T00:00:00	2024-11-06T19:00:00	2	Temperatura media	17.4
108818	7	Sololá	702	San José Chacayá	5	Chacayá	7	Julio	2023-07-21T00:00:00	2024-11-06T19:00:00	4	Temperatura máxima	19.8
108819	7	Sololá	702	San José Chacayá	5	Chacayá	7	Julio	2023-07-21T00:00:00	2024-11-06T19:00:00	3	Temperatura mínima	17.4
108820	7	Sololá	702	San José Chacayá	5	Chacayá	7	Julio	2023-07-21T00:00:00	2024-11-06T19:00:00	5	Humedad	88
108821	7	Sololá	702	San José Chacayá	5	Chacayá	7	Julio	2023-07-21T00:00:00	2024-11-06T19:00:00	6	Velocidad del viento	0
108822	7	Sololá	702	San José Chacayá	5	Chacayá	7	Julio	2023-07-21T00:00:00	2024-11-06T19:00:00	7	Dirección del viento	0
108823	7	Sololá	702	San José Chacayá	5	Chacayá	7	Julio	2023-07-21T00:00:00	2024-11-06T19:00:00	1	Precipitación	0
108824	7	Sololá	702	San José Chacayá	5	Chacayá	7	Julio	2023-07-21T00:00:00	2024-11-06T19:00:00	8	Radiación solar	0
108825	7	Sololá	702	San José Chacayá	5	Chacayá	7	Julio	2023-07-21T00:00:00	2024-11-06T20:00:00	2	Temperatura media	16.7
108826	7	Sololá	702	San José Chacayá	5	Chacayá	7	Julio	2023-07-21T00:00:00	2024-11-06T20:00:00	4	Temperatura máxima	17.4
108827	7	Sololá	702	San José Chacayá	5	Chacayá	7	Julio	2023-07-21T00:00:00	2024-11-06T20:00:00	3	Temperatura mínima	16.6
108828	7	Sololá	702	San José Chacayá	5	Chacayá	7	Julio	2023-07-21T00:00:00	2024-11-06T20:00:00	5	Humedad	87
108829	7	Sololá	702	San José Chacayá	5	Chacayá	7	Julio	2023-07-21T00:00:00	2024-11-06T20:00:00	6	Velocidad del viento	0
108830	7	Sololá	702	San José Chacayá	5	Chacayá	7	Julio	2023-07-21T00:00:00	2024-11-06T20:00:00	7	Dirección del viento	0
108831	7	Sololá	702	San José Chacayá	5	Chacayá	7	Julio	2023-07-21T00:00:00	2024-11-06T20:00:00	1	Precipitación	0
108832	7	Sololá	702	San José Chacayá	5	Chacayá	7	Julio	2023-07-21T00:00:00	2024-11-06T20:00:00	8	Radiación solar	0
108833	7	Sololá	702	San José Chacayá	5	Chacayá	7	Julio	2023-07-21T00:00:00	2024-11-06T21:00:00	2	Temperatura media	15.6
108834	7	Sololá	702	San José Chacayá	5	Chacayá	7	Julio	2023-07-21T00:00:00	2024-11-06T21:00:00	4	Temperatura máxima	16.7
108835	7	Sololá	702	San José Chacayá	5	Chacayá	7	Julio	2023-07-21T00:00:00	2024-11-06T21:00:00	3	Temperatura mínima	15.6
108836	7	Sololá	702	San José Chacayá	5	Chacayá	7	Julio	2023-07-21T00:00:00	2024-11-06T21:00:00	5	Humedad	88
108837	7	Sololá	702	San José Chacayá	5	Chacayá	7	Julio	2023-07-21T00:00:00	2024-11-06T21:00:00	6	Velocidad del viento	0
108838	7	Sololá	702	San José Chacayá	5	Chacayá	7	Julio	2023-07-21T00:00:00	2024-11-06T21:00:00	7	Dirección del viento	0
108839	7	Sololá	702	San José Chacayá	5	Chacayá	7	Julio	2023-07-21T00:00:00	2024-11-06T21:00:00	1	Precipitación	0
108840	7	Sololá	702	San José Chacayá	5	Chacayá	7	Julio	2023-07-21T00:00:00	2024-11-06T21:00:00	8	Radiación solar	0
108841	7	Sololá	702	San José Chacayá	5	Chacayá	7	Julio	2023-07-21T00:00:00	2024-11-06T22:00:00	2	Temperatura media	14.7
108842	7	Sololá	702	San José Chacayá	5	Chacayá	7	Julio	2023-07-21T00:00:00	2024-11-06T22:00:00	4	Temperatura máxima	15.6
108843	7	Sololá	702	San José Chacayá	5	Chacayá	7	Julio	2023-07-21T00:00:00	2024-11-06T22:00:00	3	Temperatura mínima	14.7
108844	7	Sololá	702	San José Chacayá	5	Chacayá	7	Julio	2023-07-21T00:00:00	2024-11-06T22:00:00	5	Humedad	90
108845	7	Sololá	702	San José Chacayá	5	Chacayá	7	Julio	2023-07-21T00:00:00	2024-11-06T22:00:00	6	Velocidad del viento	0
108846	7	Sololá	702	San José Chacayá	5	Chacayá	7	Julio	2023-07-21T00:00:00	2024-11-06T22:00:00	7	Dirección del viento	0
108847	7	Sololá	702	San José Chacayá	5	Chacayá	7	Julio	2023-07-21T00:00:00	2024-11-06T22:00:00	1	Precipitación	0
108848	7	Sololá	702	San José Chacayá	5	Chacayá	7	Julio	2023-07-21T00:00:00	2024-11-06T22:00:00	8	Radiación solar	0
108849	7	Sololá	702	San José Chacayá	5	Chacayá	7	Julio	2023-07-21T00:00:00	2024-11-06T23:00:00	2	Temperatura media	13.9
108850	7	Sololá	702	San José Chacayá	5	Chacayá	7	Julio	2023-07-21T00:00:00	2024-11-06T23:00:00	4	Temperatura máxima	14.7
108851	7	Sololá	702	San José Chacayá	5	Chacayá	7	Julio	2023-07-21T00:00:00	2024-11-06T23:00:00	3	Temperatura mínima	13.9
108852	7	Sololá	702	San José Chacayá	5	Chacayá	7	Julio	2023-07-21T00:00:00	2024-11-06T23:00:00	5	Humedad	91
108853	7	Sololá	702	San José Chacayá	5	Chacayá	7	Julio	2023-07-21T00:00:00	2024-11-06T23:00:00	6	Velocidad del viento	0
108854	7	Sololá	702	San José Chacayá	5	Chacayá	7	Julio	2023-07-21T00:00:00	2024-11-06T23:00:00	7	Dirección del viento	0
108855	7	Sololá	702	San José Chacayá	5	Chacayá	7	Julio	2023-07-21T00:00:00	2024-11-06T23:00:00	1	Precipitación	0
108856	7	Sololá	702	San José Chacayá	5	Chacayá	7	Julio	2023-07-21T00:00:00	2024-11-06T23:00:00	8	Radiación solar	0
108857	7	Sololá	702	San José Chacayá	5	Chacayá	7	Julio	2023-07-22T00:00:00	2024-11-06T00:00:00	2	Temperatura media	13.6
108858	7	Sololá	702	San José Chacayá	5	Chacayá	7	Julio	2023-07-22T00:00:00	2024-11-06T00:00:00	4	Temperatura máxima	14.3
108859	7	Sololá	702	San José Chacayá	5	Chacayá	7	Julio	2023-07-22T00:00:00	2024-11-06T00:00:00	3	Temperatura mínima	13.6
108860	7	Sololá	702	San José Chacayá	5	Chacayá	7	Julio	2023-07-22T00:00:00	2024-11-06T00:00:00	5	Humedad	90
108861	7	Sololá	702	San José Chacayá	5	Chacayá	7	Julio	2023-07-22T00:00:00	2024-11-06T00:00:00	6	Velocidad del viento	0
108862	7	Sololá	702	San José Chacayá	5	Chacayá	7	Julio	2023-07-22T00:00:00	2024-11-06T00:00:00	7	Dirección del viento	0
108863	7	Sololá	702	San José Chacayá	5	Chacayá	7	Julio	2023-07-22T00:00:00	2024-11-06T00:00:00	1	Precipitación	0
108864	7	Sololá	702	San José Chacayá	5	Chacayá	7	Julio	2023-07-22T00:00:00	2024-11-06T00:00:00	8	Radiación solar	0
108865	7	Sololá	702	San José Chacayá	5	Chacayá	7	Julio	2023-07-22T00:00:00	2024-11-06T01:00:00	2	Temperatura media	13.7
108866	7	Sololá	702	San José Chacayá	5	Chacayá	7	Julio	2023-07-22T00:00:00	2024-11-06T01:00:00	4	Temperatura máxima	14
108867	7	Sololá	702	San José Chacayá	5	Chacayá	7	Julio	2023-07-22T00:00:00	2024-11-06T01:00:00	3	Temperatura mínima	13.7
108868	7	Sololá	702	San José Chacayá	5	Chacayá	7	Julio	2023-07-22T00:00:00	2024-11-06T01:00:00	5	Humedad	79
108869	7	Sololá	702	San José Chacayá	5	Chacayá	7	Julio	2023-07-22T00:00:00	2024-11-06T01:00:00	6	Velocidad del viento	0
108870	7	Sololá	702	San José Chacayá	5	Chacayá	7	Julio	2023-07-22T00:00:00	2024-11-06T01:00:00	7	Dirección del viento	0
108871	7	Sololá	702	San José Chacayá	5	Chacayá	7	Julio	2023-07-22T00:00:00	2024-11-06T01:00:00	1	Precipitación	0
108872	7	Sololá	702	San José Chacayá	5	Chacayá	7	Julio	2023-07-22T00:00:00	2024-11-06T01:00:00	8	Radiación solar	0
108873	7	Sololá	702	San José Chacayá	5	Chacayá	7	Julio	2023-07-22T00:00:00	2024-11-06T02:00:00	2	Temperatura media	13.4
108874	7	Sololá	702	San José Chacayá	5	Chacayá	7	Julio	2023-07-22T00:00:00	2024-11-06T02:00:00	4	Temperatura máxima	13.7
108875	7	Sololá	702	San José Chacayá	5	Chacayá	7	Julio	2023-07-22T00:00:00	2024-11-06T02:00:00	3	Temperatura mínima	13.4
108876	7	Sololá	702	San José Chacayá	5	Chacayá	7	Julio	2023-07-22T00:00:00	2024-11-06T02:00:00	5	Humedad	80
108877	7	Sololá	702	San José Chacayá	5	Chacayá	7	Julio	2023-07-22T00:00:00	2024-11-06T02:00:00	6	Velocidad del viento	1.6
108878	7	Sololá	702	San José Chacayá	5	Chacayá	7	Julio	2023-07-22T00:00:00	2024-11-06T02:00:00	7	Dirección del viento	1.61
108879	7	Sololá	702	San José Chacayá	5	Chacayá	7	Julio	2023-07-22T00:00:00	2024-11-06T02:00:00	1	Precipitación	0
108880	7	Sololá	702	San José Chacayá	5	Chacayá	7	Julio	2023-07-22T00:00:00	2024-11-06T02:00:00	8	Radiación solar	0
108881	7	Sololá	702	San José Chacayá	5	Chacayá	7	Julio	2023-07-22T00:00:00	2024-11-06T03:00:00	2	Temperatura media	12.7
108882	7	Sololá	702	San José Chacayá	5	Chacayá	7	Julio	2023-07-22T00:00:00	2024-11-06T03:00:00	4	Temperatura máxima	12.8
108883	7	Sololá	702	San José Chacayá	5	Chacayá	7	Julio	2023-07-22T00:00:00	2024-11-06T03:00:00	3	Temperatura mínima	12.7
108884	7	Sololá	702	San José Chacayá	5	Chacayá	7	Julio	2023-07-22T00:00:00	2024-11-06T03:00:00	5	Humedad	81
108885	7	Sololá	702	San José Chacayá	5	Chacayá	7	Julio	2023-07-22T00:00:00	2024-11-06T03:00:00	6	Velocidad del viento	3.2
108886	7	Sololá	702	San José Chacayá	5	Chacayá	7	Julio	2023-07-22T00:00:00	2024-11-06T03:00:00	7	Dirección del viento	3.22
108887	7	Sololá	702	San José Chacayá	5	Chacayá	7	Julio	2023-07-22T00:00:00	2024-11-06T03:00:00	1	Precipitación	0
108888	7	Sololá	702	San José Chacayá	5	Chacayá	7	Julio	2023-07-22T00:00:00	2024-11-06T03:00:00	8	Radiación solar	0
108889	7	Sololá	702	San José Chacayá	5	Chacayá	7	Julio	2023-07-22T00:00:00	2024-11-06T04:00:00	2	Temperatura media	12.4
108890	7	Sololá	702	San José Chacayá	5	Chacayá	7	Julio	2023-07-22T00:00:00	2024-11-06T04:00:00	4	Temperatura máxima	12.7
108891	7	Sololá	702	San José Chacayá	5	Chacayá	7	Julio	2023-07-22T00:00:00	2024-11-06T04:00:00	3	Temperatura mínima	12.3
108892	7	Sololá	702	San José Chacayá	5	Chacayá	7	Julio	2023-07-22T00:00:00	2024-11-06T04:00:00	5	Humedad	81
108893	7	Sololá	702	San José Chacayá	5	Chacayá	7	Julio	2023-07-22T00:00:00	2024-11-06T04:00:00	6	Velocidad del viento	3.2
108894	7	Sololá	702	San José Chacayá	5	Chacayá	7	Julio	2023-07-22T00:00:00	2024-11-06T04:00:00	7	Dirección del viento	3.22
108895	7	Sololá	702	San José Chacayá	5	Chacayá	7	Julio	2023-07-22T00:00:00	2024-11-06T04:00:00	1	Precipitación	0
108896	7	Sololá	702	San José Chacayá	5	Chacayá	7	Julio	2023-07-22T00:00:00	2024-11-06T04:00:00	8	Radiación solar	0
108897	7	Sololá	702	San José Chacayá	5	Chacayá	7	Julio	2023-07-22T00:00:00	2024-11-06T05:00:00	2	Temperatura media	12.2
108898	7	Sololá	702	San José Chacayá	5	Chacayá	7	Julio	2023-07-22T00:00:00	2024-11-06T05:00:00	4	Temperatura máxima	12.5
108899	7	Sololá	702	San José Chacayá	5	Chacayá	7	Julio	2023-07-22T00:00:00	2024-11-06T05:00:00	3	Temperatura mínima	12
108900	7	Sololá	702	San José Chacayá	5	Chacayá	7	Julio	2023-07-22T00:00:00	2024-11-06T05:00:00	5	Humedad	81
108901	7	Sololá	702	San José Chacayá	5	Chacayá	7	Julio	2023-07-22T00:00:00	2024-11-06T05:00:00	6	Velocidad del viento	3.2
108902	7	Sololá	702	San José Chacayá	5	Chacayá	7	Julio	2023-07-22T00:00:00	2024-11-06T05:00:00	7	Dirección del viento	3.22
108903	7	Sololá	702	San José Chacayá	5	Chacayá	7	Julio	2023-07-22T00:00:00	2024-11-06T05:00:00	1	Precipitación	0
108904	7	Sololá	702	San José Chacayá	5	Chacayá	7	Julio	2023-07-22T00:00:00	2024-11-06T05:00:00	8	Radiación solar	0
108905	7	Sololá	702	San José Chacayá	5	Chacayá	7	Julio	2023-07-22T00:00:00	2024-11-06T06:00:00	2	Temperatura media	12.1
108906	7	Sololá	702	San José Chacayá	5	Chacayá	7	Julio	2023-07-22T00:00:00	2024-11-06T06:00:00	4	Temperatura máxima	12.3
108907	7	Sololá	702	San José Chacayá	5	Chacayá	7	Julio	2023-07-22T00:00:00	2024-11-06T06:00:00	3	Temperatura mínima	11.9
108908	7	Sololá	702	San José Chacayá	5	Chacayá	7	Julio	2023-07-22T00:00:00	2024-11-06T06:00:00	5	Humedad	82
108909	7	Sololá	702	San José Chacayá	5	Chacayá	7	Julio	2023-07-22T00:00:00	2024-11-06T06:00:00	6	Velocidad del viento	4.8
108910	7	Sololá	702	San José Chacayá	5	Chacayá	7	Julio	2023-07-22T00:00:00	2024-11-06T06:00:00	7	Dirección del viento	4.83
108911	7	Sololá	702	San José Chacayá	5	Chacayá	7	Julio	2023-07-22T00:00:00	2024-11-06T06:00:00	1	Precipitación	0
108912	7	Sololá	702	San José Chacayá	5	Chacayá	7	Julio	2023-07-22T00:00:00	2024-11-06T06:00:00	8	Radiación solar	1
108913	7	Sololá	702	San José Chacayá	5	Chacayá	7	Julio	2023-07-22T00:00:00	2024-11-06T07:00:00	2	Temperatura media	13.7
108914	7	Sololá	702	San José Chacayá	5	Chacayá	7	Julio	2023-07-22T00:00:00	2024-11-06T07:00:00	4	Temperatura máxima	13.7
108915	7	Sololá	702	San José Chacayá	5	Chacayá	7	Julio	2023-07-22T00:00:00	2024-11-06T07:00:00	3	Temperatura mínima	12.1
108916	7	Sololá	702	San José Chacayá	5	Chacayá	7	Julio	2023-07-22T00:00:00	2024-11-06T07:00:00	5	Humedad	83
108917	7	Sololá	702	San José Chacayá	5	Chacayá	7	Julio	2023-07-22T00:00:00	2024-11-06T07:00:00	6	Velocidad del viento	1.6
108918	7	Sololá	702	San José Chacayá	5	Chacayá	7	Julio	2023-07-22T00:00:00	2024-11-06T07:00:00	7	Dirección del viento	1.61
108919	7	Sololá	702	San José Chacayá	5	Chacayá	7	Julio	2023-07-22T00:00:00	2024-11-06T07:00:00	1	Precipitación	0
108920	7	Sololá	702	San José Chacayá	5	Chacayá	7	Julio	2023-07-22T00:00:00	2024-11-06T07:00:00	8	Radiación solar	92
108921	7	Sololá	702	San José Chacayá	5	Chacayá	7	Julio	2023-07-22T00:00:00	2024-11-06T08:00:00	2	Temperatura media	17.2
108922	7	Sololá	702	San José Chacayá	5	Chacayá	7	Julio	2023-07-22T00:00:00	2024-11-06T08:00:00	4	Temperatura máxima	17.2
108923	7	Sololá	702	San José Chacayá	5	Chacayá	7	Julio	2023-07-22T00:00:00	2024-11-06T08:00:00	3	Temperatura mínima	13.7
108924	7	Sololá	702	San José Chacayá	5	Chacayá	7	Julio	2023-07-22T00:00:00	2024-11-06T08:00:00	5	Humedad	78
108925	7	Sololá	702	San José Chacayá	5	Chacayá	7	Julio	2023-07-22T00:00:00	2024-11-06T08:00:00	6	Velocidad del viento	1.6
108926	7	Sololá	702	San José Chacayá	5	Chacayá	7	Julio	2023-07-22T00:00:00	2024-11-06T08:00:00	7	Dirección del viento	1.61
108927	7	Sololá	702	San José Chacayá	5	Chacayá	7	Julio	2023-07-22T00:00:00	2024-11-06T08:00:00	1	Precipitación	0
108928	7	Sololá	702	San José Chacayá	5	Chacayá	7	Julio	2023-07-22T00:00:00	2024-11-06T08:00:00	8	Radiación solar	103
108929	7	Sololá	702	San José Chacayá	5	Chacayá	7	Julio	2023-07-22T00:00:00	2024-11-06T09:00:00	2	Temperatura media	19.3
108930	7	Sololá	702	San José Chacayá	5	Chacayá	7	Julio	2023-07-22T00:00:00	2024-11-06T09:00:00	4	Temperatura máxima	19.3
108931	7	Sololá	702	San José Chacayá	5	Chacayá	7	Julio	2023-07-22T00:00:00	2024-11-06T09:00:00	3	Temperatura mínima	17.2
108932	7	Sololá	702	San José Chacayá	5	Chacayá	7	Julio	2023-07-22T00:00:00	2024-11-06T09:00:00	5	Humedad	70
108933	7	Sololá	702	San José Chacayá	5	Chacayá	7	Julio	2023-07-22T00:00:00	2024-11-06T09:00:00	6	Velocidad del viento	3.2
108934	7	Sololá	702	San José Chacayá	5	Chacayá	7	Julio	2023-07-22T00:00:00	2024-11-06T09:00:00	7	Dirección del viento	3.22
108935	7	Sololá	702	San José Chacayá	5	Chacayá	7	Julio	2023-07-22T00:00:00	2024-11-06T09:00:00	1	Precipitación	0
108936	7	Sololá	702	San José Chacayá	5	Chacayá	7	Julio	2023-07-22T00:00:00	2024-11-06T09:00:00	8	Radiación solar	273
108937	7	Sololá	702	San José Chacayá	5	Chacayá	7	Julio	2023-07-22T00:00:00	2024-11-06T10:00:00	2	Temperatura media	20.9
108938	7	Sololá	702	San José Chacayá	5	Chacayá	7	Julio	2023-07-22T00:00:00	2024-11-06T10:00:00	4	Temperatura máxima	20.9
108939	7	Sololá	702	San José Chacayá	5	Chacayá	7	Julio	2023-07-22T00:00:00	2024-11-06T10:00:00	3	Temperatura mínima	19.3
108940	7	Sololá	702	San José Chacayá	5	Chacayá	7	Julio	2023-07-22T00:00:00	2024-11-06T10:00:00	5	Humedad	65
108941	7	Sololá	702	San José Chacayá	5	Chacayá	7	Julio	2023-07-22T00:00:00	2024-11-06T10:00:00	6	Velocidad del viento	4.8
108942	7	Sololá	702	San José Chacayá	5	Chacayá	7	Julio	2023-07-22T00:00:00	2024-11-06T10:00:00	7	Dirección del viento	4.83
108943	7	Sololá	702	San José Chacayá	5	Chacayá	7	Julio	2023-07-22T00:00:00	2024-11-06T10:00:00	1	Precipitación	0
108944	7	Sololá	702	San José Chacayá	5	Chacayá	7	Julio	2023-07-22T00:00:00	2024-11-06T10:00:00	8	Radiación solar	497
108945	7	Sololá	702	San José Chacayá	5	Chacayá	7	Julio	2023-07-22T00:00:00	2024-11-06T11:00:00	2	Temperatura media	22.6
108946	7	Sololá	702	San José Chacayá	5	Chacayá	7	Julio	2023-07-22T00:00:00	2024-11-06T11:00:00	4	Temperatura máxima	22.8
108947	7	Sololá	702	San José Chacayá	5	Chacayá	7	Julio	2023-07-22T00:00:00	2024-11-06T11:00:00	3	Temperatura mínima	20.9
108948	7	Sololá	702	San José Chacayá	5	Chacayá	7	Julio	2023-07-22T00:00:00	2024-11-06T11:00:00	5	Humedad	64
108949	7	Sololá	702	San José Chacayá	5	Chacayá	7	Julio	2023-07-22T00:00:00	2024-11-06T11:00:00	6	Velocidad del viento	4.8
108950	7	Sololá	702	San José Chacayá	5	Chacayá	7	Julio	2023-07-22T00:00:00	2024-11-06T11:00:00	7	Dirección del viento	4.83
108951	7	Sololá	702	San José Chacayá	5	Chacayá	7	Julio	2023-07-22T00:00:00	2024-11-06T11:00:00	1	Precipitación	0
108952	7	Sololá	702	San José Chacayá	5	Chacayá	7	Julio	2023-07-22T00:00:00	2024-11-06T11:00:00	8	Radiación solar	982
108953	7	Sololá	702	San José Chacayá	5	Chacayá	7	Julio	2023-07-22T00:00:00	2024-11-06T12:00:00	2	Temperatura media	20.5
108954	7	Sololá	702	San José Chacayá	5	Chacayá	7	Julio	2023-07-22T00:00:00	2024-11-06T12:00:00	4	Temperatura máxima	22.6
108955	7	Sololá	702	San José Chacayá	5	Chacayá	7	Julio	2023-07-22T00:00:00	2024-11-06T12:00:00	3	Temperatura mínima	20.3
108956	7	Sololá	702	San José Chacayá	5	Chacayá	7	Julio	2023-07-22T00:00:00	2024-11-06T12:00:00	5	Humedad	77
108957	7	Sololá	702	San José Chacayá	5	Chacayá	7	Julio	2023-07-22T00:00:00	2024-11-06T12:00:00	6	Velocidad del viento	4.8
108958	7	Sololá	702	San José Chacayá	5	Chacayá	7	Julio	2023-07-22T00:00:00	2024-11-06T12:00:00	7	Dirección del viento	4.83
108959	7	Sololá	702	San José Chacayá	5	Chacayá	7	Julio	2023-07-22T00:00:00	2024-11-06T12:00:00	1	Precipitación	0
108960	7	Sololá	702	San José Chacayá	5	Chacayá	7	Julio	2023-07-22T00:00:00	2024-11-06T12:00:00	8	Radiación solar	524
108961	7	Sololá	702	San José Chacayá	5	Chacayá	7	Julio	2023-07-22T00:00:00	2024-11-06T13:00:00	2	Temperatura media	17.5
108962	7	Sololá	702	San José Chacayá	5	Chacayá	7	Julio	2023-07-22T00:00:00	2024-11-06T13:00:00	4	Temperatura máxima	20.5
108963	7	Sololá	702	San José Chacayá	5	Chacayá	7	Julio	2023-07-22T00:00:00	2024-11-06T13:00:00	3	Temperatura mínima	17.5
108964	7	Sololá	702	San José Chacayá	5	Chacayá	7	Julio	2023-07-22T00:00:00	2024-11-06T13:00:00	5	Humedad	80
108965	7	Sololá	702	San José Chacayá	5	Chacayá	7	Julio	2023-07-22T00:00:00	2024-11-06T13:00:00	6	Velocidad del viento	4.8
108966	7	Sololá	702	San José Chacayá	5	Chacayá	7	Julio	2023-07-22T00:00:00	2024-11-06T13:00:00	7	Dirección del viento	4.83
108967	7	Sololá	702	San José Chacayá	5	Chacayá	7	Julio	2023-07-22T00:00:00	2024-11-06T13:00:00	1	Precipitación	1.4
108968	7	Sololá	702	San José Chacayá	5	Chacayá	7	Julio	2023-07-22T00:00:00	2024-11-06T13:00:00	8	Radiación solar	144
108969	7	Sololá	702	San José Chacayá	5	Chacayá	7	Julio	2023-07-22T00:00:00	2024-11-06T14:00:00	2	Temperatura media	14.6
108970	7	Sololá	702	San José Chacayá	5	Chacayá	7	Julio	2023-07-22T00:00:00	2024-11-06T14:00:00	4	Temperatura máxima	17.5
108971	7	Sololá	702	San José Chacayá	5	Chacayá	7	Julio	2023-07-22T00:00:00	2024-11-06T14:00:00	3	Temperatura mínima	14.6
108972	7	Sololá	702	San José Chacayá	5	Chacayá	7	Julio	2023-07-22T00:00:00	2024-11-06T14:00:00	5	Humedad	76
108973	7	Sololá	702	San José Chacayá	5	Chacayá	7	Julio	2023-07-22T00:00:00	2024-11-06T14:00:00	6	Velocidad del viento	3.2
108974	7	Sololá	702	San José Chacayá	5	Chacayá	7	Julio	2023-07-22T00:00:00	2024-11-06T14:00:00	7	Dirección del viento	3.22
108975	7	Sololá	702	San José Chacayá	5	Chacayá	7	Julio	2023-07-22T00:00:00	2024-11-06T14:00:00	1	Precipitación	6.2
108976	7	Sololá	702	San José Chacayá	5	Chacayá	7	Julio	2023-07-22T00:00:00	2024-11-06T14:00:00	8	Radiación solar	67
108977	7	Sololá	702	San José Chacayá	5	Chacayá	7	Julio	2023-07-22T00:00:00	2024-11-06T15:00:00	2	Temperatura media	16.3
108978	7	Sololá	702	San José Chacayá	5	Chacayá	7	Julio	2023-07-22T00:00:00	2024-11-06T15:00:00	4	Temperatura máxima	16.3
108979	7	Sololá	702	San José Chacayá	5	Chacayá	7	Julio	2023-07-22T00:00:00	2024-11-06T15:00:00	3	Temperatura mínima	14.7
108980	7	Sololá	702	San José Chacayá	5	Chacayá	7	Julio	2023-07-22T00:00:00	2024-11-06T15:00:00	5	Humedad	79
108981	7	Sololá	702	San José Chacayá	5	Chacayá	7	Julio	2023-07-22T00:00:00	2024-11-06T15:00:00	6	Velocidad del viento	1.6
108982	7	Sololá	702	San José Chacayá	5	Chacayá	7	Julio	2023-07-22T00:00:00	2024-11-06T15:00:00	7	Dirección del viento	1.61
108983	7	Sololá	702	San José Chacayá	5	Chacayá	7	Julio	2023-07-22T00:00:00	2024-11-06T15:00:00	1	Precipitación	0
108984	7	Sololá	702	San José Chacayá	5	Chacayá	7	Julio	2023-07-22T00:00:00	2024-11-06T15:00:00	8	Radiación solar	218
108985	7	Sololá	702	San José Chacayá	5	Chacayá	7	Julio	2023-07-22T00:00:00	2024-11-06T16:00:00	2	Temperatura media	15.6
108986	7	Sololá	702	San José Chacayá	5	Chacayá	7	Julio	2023-07-22T00:00:00	2024-11-06T16:00:00	4	Temperatura máxima	16.6
108987	7	Sololá	702	San José Chacayá	5	Chacayá	7	Julio	2023-07-22T00:00:00	2024-11-06T16:00:00	3	Temperatura mínima	15.6
108988	7	Sololá	702	San José Chacayá	5	Chacayá	7	Julio	2023-07-22T00:00:00	2024-11-06T16:00:00	5	Humedad	82
108989	7	Sololá	702	San José Chacayá	5	Chacayá	7	Julio	2023-07-22T00:00:00	2024-11-06T16:00:00	6	Velocidad del viento	0
108990	7	Sololá	702	San José Chacayá	5	Chacayá	7	Julio	2023-07-22T00:00:00	2024-11-06T16:00:00	7	Dirección del viento	0
108991	7	Sololá	702	San José Chacayá	5	Chacayá	7	Julio	2023-07-22T00:00:00	2024-11-06T16:00:00	1	Precipitación	0
108992	7	Sololá	702	San José Chacayá	5	Chacayá	7	Julio	2023-07-22T00:00:00	2024-11-06T16:00:00	8	Radiación solar	119
108993	7	Sololá	702	San José Chacayá	5	Chacayá	7	Julio	2023-07-22T00:00:00	2024-11-06T17:00:00	2	Temperatura media	15.3
108994	7	Sololá	702	San José Chacayá	5	Chacayá	7	Julio	2023-07-22T00:00:00	2024-11-06T17:00:00	4	Temperatura máxima	15.6
108995	7	Sololá	702	San José Chacayá	5	Chacayá	7	Julio	2023-07-22T00:00:00	2024-11-06T17:00:00	3	Temperatura mínima	15.3
108996	7	Sololá	702	San José Chacayá	5	Chacayá	7	Julio	2023-07-22T00:00:00	2024-11-06T17:00:00	5	Humedad	81
108997	7	Sololá	702	San José Chacayá	5	Chacayá	7	Julio	2023-07-22T00:00:00	2024-11-06T17:00:00	6	Velocidad del viento	1.6
108998	7	Sololá	702	San José Chacayá	5	Chacayá	7	Julio	2023-07-22T00:00:00	2024-11-06T17:00:00	7	Dirección del viento	1.61
108999	7	Sololá	702	San José Chacayá	5	Chacayá	7	Julio	2023-07-22T00:00:00	2024-11-06T17:00:00	1	Precipitación	0
109000	7	Sololá	702	San José Chacayá	5	Chacayá	7	Julio	2023-07-22T00:00:00	2024-11-06T17:00:00	8	Radiación solar	38
109001	7	Sololá	702	San José Chacayá	5	Chacayá	7	Julio	2023-07-22T00:00:00	2024-11-06T18:00:00	2	Temperatura media	15.2
109002	7	Sololá	702	San José Chacayá	5	Chacayá	7	Julio	2023-07-22T00:00:00	2024-11-06T18:00:00	4	Temperatura máxima	15.4
109003	7	Sololá	702	San José Chacayá	5	Chacayá	7	Julio	2023-07-22T00:00:00	2024-11-06T18:00:00	3	Temperatura mínima	15.2
109004	7	Sololá	702	San José Chacayá	5	Chacayá	7	Julio	2023-07-22T00:00:00	2024-11-06T18:00:00	5	Humedad	78
109005	7	Sololá	702	San José Chacayá	5	Chacayá	7	Julio	2023-07-22T00:00:00	2024-11-06T18:00:00	6	Velocidad del viento	0
109006	7	Sololá	702	San José Chacayá	5	Chacayá	7	Julio	2023-07-22T00:00:00	2024-11-06T18:00:00	7	Dirección del viento	0
109007	7	Sololá	702	San José Chacayá	5	Chacayá	7	Julio	2023-07-22T00:00:00	2024-11-06T18:00:00	1	Precipitación	0
109008	7	Sololá	702	San José Chacayá	5	Chacayá	7	Julio	2023-07-22T00:00:00	2024-11-06T18:00:00	8	Radiación solar	33
109009	7	Sololá	702	San José Chacayá	5	Chacayá	7	Julio	2023-07-22T00:00:00	2024-11-06T19:00:00	2	Temperatura media	14.6
109010	7	Sololá	702	San José Chacayá	5	Chacayá	7	Julio	2023-07-22T00:00:00	2024-11-06T19:00:00	4	Temperatura máxima	15.2
109011	7	Sololá	702	San José Chacayá	5	Chacayá	7	Julio	2023-07-22T00:00:00	2024-11-06T19:00:00	3	Temperatura mínima	14.6
109012	7	Sololá	702	San José Chacayá	5	Chacayá	7	Julio	2023-07-22T00:00:00	2024-11-06T19:00:00	5	Humedad	74
109013	7	Sololá	702	San José Chacayá	5	Chacayá	7	Julio	2023-07-22T00:00:00	2024-11-06T19:00:00	6	Velocidad del viento	1.6
109014	7	Sololá	702	San José Chacayá	5	Chacayá	7	Julio	2023-07-22T00:00:00	2024-11-06T19:00:00	7	Dirección del viento	1.61
109015	7	Sololá	702	San José Chacayá	5	Chacayá	7	Julio	2023-07-22T00:00:00	2024-11-06T19:00:00	1	Precipitación	0
109016	7	Sololá	702	San José Chacayá	5	Chacayá	7	Julio	2023-07-22T00:00:00	2024-11-06T19:00:00	8	Radiación solar	0
109017	7	Sololá	702	San José Chacayá	5	Chacayá	7	Julio	2023-07-22T00:00:00	2024-11-06T20:00:00	2	Temperatura media	14.1
109018	7	Sololá	702	San José Chacayá	5	Chacayá	7	Julio	2023-07-22T00:00:00	2024-11-06T20:00:00	4	Temperatura máxima	14.6
109019	7	Sololá	702	San José Chacayá	5	Chacayá	7	Julio	2023-07-22T00:00:00	2024-11-06T20:00:00	3	Temperatura mínima	14.1
109020	7	Sololá	702	San José Chacayá	5	Chacayá	7	Julio	2023-07-22T00:00:00	2024-11-06T20:00:00	5	Humedad	72
109021	7	Sololá	702	San José Chacayá	5	Chacayá	7	Julio	2023-07-22T00:00:00	2024-11-06T20:00:00	6	Velocidad del viento	1.6
109022	7	Sololá	702	San José Chacayá	5	Chacayá	7	Julio	2023-07-22T00:00:00	2024-11-06T20:00:00	7	Dirección del viento	1.61
109023	7	Sololá	702	San José Chacayá	5	Chacayá	7	Julio	2023-07-22T00:00:00	2024-11-06T20:00:00	1	Precipitación	0
109024	7	Sololá	702	San José Chacayá	5	Chacayá	7	Julio	2023-07-22T00:00:00	2024-11-06T20:00:00	8	Radiación solar	0
109025	7	Sololá	702	San José Chacayá	5	Chacayá	7	Julio	2023-07-22T00:00:00	2024-11-06T21:00:00	2	Temperatura media	13.9
109026	7	Sololá	702	San José Chacayá	5	Chacayá	7	Julio	2023-07-22T00:00:00	2024-11-06T21:00:00	4	Temperatura máxima	15.4
109027	7	Sololá	702	San José Chacayá	5	Chacayá	7	Julio	2023-07-22T00:00:00	2024-11-06T21:00:00	3	Temperatura mínima	13.9
109028	7	Sololá	702	San José Chacayá	5	Chacayá	7	Julio	2023-07-22T00:00:00	2024-11-06T21:00:00	5	Humedad	82
109029	7	Sololá	702	San José Chacayá	5	Chacayá	7	Julio	2023-07-22T00:00:00	2024-11-06T21:00:00	6	Velocidad del viento	3.2
109030	7	Sololá	702	San José Chacayá	5	Chacayá	7	Julio	2023-07-22T00:00:00	2024-11-06T21:00:00	7	Dirección del viento	3.22
109031	7	Sololá	702	San José Chacayá	5	Chacayá	7	Julio	2023-07-22T00:00:00	2024-11-06T21:00:00	1	Precipitación	0
109032	7	Sololá	702	San José Chacayá	5	Chacayá	7	Julio	2023-07-22T00:00:00	2024-11-06T21:00:00	8	Radiación solar	0
109033	7	Sololá	702	San José Chacayá	5	Chacayá	7	Julio	2023-07-22T00:00:00	2024-11-06T22:00:00	2	Temperatura media	13
109034	7	Sololá	702	San José Chacayá	5	Chacayá	7	Julio	2023-07-22T00:00:00	2024-11-06T22:00:00	4	Temperatura máxima	14
109035	7	Sololá	702	San José Chacayá	5	Chacayá	7	Julio	2023-07-22T00:00:00	2024-11-06T22:00:00	3	Temperatura mínima	13
109036	7	Sololá	702	San José Chacayá	5	Chacayá	7	Julio	2023-07-22T00:00:00	2024-11-06T22:00:00	5	Humedad	83
109037	7	Sololá	702	San José Chacayá	5	Chacayá	7	Julio	2023-07-22T00:00:00	2024-11-06T22:00:00	6	Velocidad del viento	1.6
109038	7	Sololá	702	San José Chacayá	5	Chacayá	7	Julio	2023-07-22T00:00:00	2024-11-06T22:00:00	7	Dirección del viento	1.61
109039	7	Sololá	702	San José Chacayá	5	Chacayá	7	Julio	2023-07-22T00:00:00	2024-11-06T22:00:00	1	Precipitación	0
109040	7	Sololá	702	San José Chacayá	5	Chacayá	7	Julio	2023-07-22T00:00:00	2024-11-06T22:00:00	8	Radiación solar	0
109041	7	Sololá	702	San José Chacayá	5	Chacayá	7	Julio	2023-07-22T00:00:00	2024-11-06T23:00:00	2	Temperatura media	11.8
109042	7	Sololá	702	San José Chacayá	5	Chacayá	7	Julio	2023-07-22T00:00:00	2024-11-06T23:00:00	4	Temperatura máxima	13
109043	7	Sololá	702	San José Chacayá	5	Chacayá	7	Julio	2023-07-22T00:00:00	2024-11-06T23:00:00	3	Temperatura mínima	11.8
109044	7	Sololá	702	San José Chacayá	5	Chacayá	7	Julio	2023-07-22T00:00:00	2024-11-06T23:00:00	5	Humedad	84
109045	7	Sololá	702	San José Chacayá	5	Chacayá	7	Julio	2023-07-22T00:00:00	2024-11-06T23:00:00	6	Velocidad del viento	1.6
109046	7	Sololá	702	San José Chacayá	5	Chacayá	7	Julio	2023-07-22T00:00:00	2024-11-06T23:00:00	7	Dirección del viento	1.61
109047	7	Sololá	702	San José Chacayá	5	Chacayá	7	Julio	2023-07-22T00:00:00	2024-11-06T23:00:00	1	Precipitación	0
109048	7	Sololá	702	San José Chacayá	5	Chacayá	7	Julio	2023-07-22T00:00:00	2024-11-06T23:00:00	8	Radiación solar	0
109049	7	Sololá	702	San José Chacayá	5	Chacayá	7	Julio	2023-07-23T00:00:00	2024-11-06T00:00:00	2	Temperatura media	11.6
109050	7	Sololá	702	San José Chacayá	5	Chacayá	7	Julio	2023-07-23T00:00:00	2024-11-06T00:00:00	4	Temperatura máxima	12
109051	7	Sololá	702	San José Chacayá	5	Chacayá	7	Julio	2023-07-23T00:00:00	2024-11-06T00:00:00	3	Temperatura mínima	11.6
109052	7	Sololá	702	San José Chacayá	5	Chacayá	7	Julio	2023-07-23T00:00:00	2024-11-06T00:00:00	5	Humedad	94
109053	7	Sololá	702	San José Chacayá	5	Chacayá	7	Julio	2023-07-23T00:00:00	2024-11-06T00:00:00	6	Velocidad del viento	0
109054	7	Sololá	702	San José Chacayá	5	Chacayá	7	Julio	2023-07-23T00:00:00	2024-11-06T00:00:00	7	Dirección del viento	0
109055	7	Sololá	702	San José Chacayá	5	Chacayá	7	Julio	2023-07-23T00:00:00	2024-11-06T00:00:00	1	Precipitación	0
109056	7	Sololá	702	San José Chacayá	5	Chacayá	7	Julio	2023-07-23T00:00:00	2024-11-06T00:00:00	8	Radiación solar	0
109057	7	Sololá	702	San José Chacayá	5	Chacayá	7	Julio	2023-07-23T00:00:00	2024-11-06T01:00:00	2	Temperatura media	11.8
109058	7	Sololá	702	San José Chacayá	5	Chacayá	7	Julio	2023-07-23T00:00:00	2024-11-06T01:00:00	4	Temperatura máxima	11.8
109059	7	Sololá	702	San José Chacayá	5	Chacayá	7	Julio	2023-07-23T00:00:00	2024-11-06T01:00:00	3	Temperatura mínima	11.6
109060	7	Sololá	702	San José Chacayá	5	Chacayá	7	Julio	2023-07-23T00:00:00	2024-11-06T01:00:00	5	Humedad	93
109061	7	Sololá	702	San José Chacayá	5	Chacayá	7	Julio	2023-07-23T00:00:00	2024-11-06T01:00:00	6	Velocidad del viento	1.6
109062	7	Sololá	702	San José Chacayá	5	Chacayá	7	Julio	2023-07-23T00:00:00	2024-11-06T01:00:00	7	Dirección del viento	1.61
109063	7	Sololá	702	San José Chacayá	5	Chacayá	7	Julio	2023-07-23T00:00:00	2024-11-06T01:00:00	1	Precipitación	0
109064	7	Sololá	702	San José Chacayá	5	Chacayá	7	Julio	2023-07-23T00:00:00	2024-11-06T01:00:00	8	Radiación solar	0
109065	7	Sololá	702	San José Chacayá	5	Chacayá	7	Julio	2023-07-23T00:00:00	2024-11-06T02:00:00	2	Temperatura media	11.7
109066	7	Sololá	702	San José Chacayá	5	Chacayá	7	Julio	2023-07-23T00:00:00	2024-11-06T02:00:00	4	Temperatura máxima	11.8
109067	7	Sololá	702	San José Chacayá	5	Chacayá	7	Julio	2023-07-23T00:00:00	2024-11-06T02:00:00	3	Temperatura mínima	11.7
109068	7	Sololá	702	San José Chacayá	5	Chacayá	7	Julio	2023-07-23T00:00:00	2024-11-06T02:00:00	5	Humedad	92
109069	7	Sololá	702	San José Chacayá	5	Chacayá	7	Julio	2023-07-23T00:00:00	2024-11-06T02:00:00	6	Velocidad del viento	1.6
109070	7	Sololá	702	San José Chacayá	5	Chacayá	7	Julio	2023-07-23T00:00:00	2024-11-06T02:00:00	7	Dirección del viento	1.61
109071	7	Sololá	702	San José Chacayá	5	Chacayá	7	Julio	2023-07-23T00:00:00	2024-11-06T02:00:00	1	Precipitación	0
109072	7	Sololá	702	San José Chacayá	5	Chacayá	7	Julio	2023-07-23T00:00:00	2024-11-06T02:00:00	8	Radiación solar	0
109073	7	Sololá	702	San José Chacayá	5	Chacayá	7	Julio	2023-07-23T00:00:00	2024-11-06T03:00:00	2	Temperatura media	11.6
109074	7	Sololá	702	San José Chacayá	5	Chacayá	7	Julio	2023-07-23T00:00:00	2024-11-06T03:00:00	4	Temperatura máxima	11.7
109075	7	Sololá	702	San José Chacayá	5	Chacayá	7	Julio	2023-07-23T00:00:00	2024-11-06T03:00:00	3	Temperatura mínima	11.6
109076	7	Sololá	702	San José Chacayá	5	Chacayá	7	Julio	2023-07-23T00:00:00	2024-11-06T03:00:00	5	Humedad	93
109077	7	Sololá	702	San José Chacayá	5	Chacayá	7	Julio	2023-07-23T00:00:00	2024-11-06T03:00:00	6	Velocidad del viento	1.6
109078	7	Sololá	702	San José Chacayá	5	Chacayá	7	Julio	2023-07-23T00:00:00	2024-11-06T03:00:00	7	Dirección del viento	1.61
109079	7	Sololá	702	San José Chacayá	5	Chacayá	7	Julio	2023-07-23T00:00:00	2024-11-06T03:00:00	1	Precipitación	0
109080	7	Sololá	702	San José Chacayá	5	Chacayá	7	Julio	2023-07-23T00:00:00	2024-11-06T03:00:00	8	Radiación solar	0
109081	7	Sololá	702	San José Chacayá	5	Chacayá	7	Julio	2023-07-23T00:00:00	2024-11-06T04:00:00	2	Temperatura media	11.2
109082	7	Sololá	702	San José Chacayá	5	Chacayá	7	Julio	2023-07-23T00:00:00	2024-11-06T04:00:00	4	Temperatura máxima	11.6
109083	7	Sololá	702	San José Chacayá	5	Chacayá	7	Julio	2023-07-23T00:00:00	2024-11-06T04:00:00	3	Temperatura mínima	11.1
109084	7	Sololá	702	San José Chacayá	5	Chacayá	7	Julio	2023-07-23T00:00:00	2024-11-06T04:00:00	5	Humedad	93
109085	7	Sololá	702	San José Chacayá	5	Chacayá	7	Julio	2023-07-23T00:00:00	2024-11-06T04:00:00	6	Velocidad del viento	0
109086	7	Sololá	702	San José Chacayá	5	Chacayá	7	Julio	2023-07-23T00:00:00	2024-11-06T04:00:00	7	Dirección del viento	0
109087	7	Sololá	702	San José Chacayá	5	Chacayá	7	Julio	2023-07-23T00:00:00	2024-11-06T04:00:00	1	Precipitación	0
109088	7	Sololá	702	San José Chacayá	5	Chacayá	7	Julio	2023-07-23T00:00:00	2024-11-06T04:00:00	8	Radiación solar	0
109089	7	Sololá	702	San José Chacayá	5	Chacayá	7	Julio	2023-07-23T00:00:00	2024-11-06T05:00:00	2	Temperatura media	10.8
109090	7	Sololá	702	San José Chacayá	5	Chacayá	7	Julio	2023-07-23T00:00:00	2024-11-06T05:00:00	4	Temperatura máxima	11.2
109091	7	Sololá	702	San José Chacayá	5	Chacayá	7	Julio	2023-07-23T00:00:00	2024-11-06T05:00:00	3	Temperatura mínima	10.8
109092	7	Sololá	702	San José Chacayá	5	Chacayá	7	Julio	2023-07-23T00:00:00	2024-11-06T05:00:00	5	Humedad	94
109093	7	Sololá	702	San José Chacayá	5	Chacayá	7	Julio	2023-07-23T00:00:00	2024-11-06T05:00:00	6	Velocidad del viento	0
109094	7	Sololá	702	San José Chacayá	5	Chacayá	7	Julio	2023-07-23T00:00:00	2024-11-06T05:00:00	7	Dirección del viento	0
109095	7	Sololá	702	San José Chacayá	5	Chacayá	7	Julio	2023-07-23T00:00:00	2024-11-06T05:00:00	1	Precipitación	0
109096	7	Sololá	702	San José Chacayá	5	Chacayá	7	Julio	2023-07-23T00:00:00	2024-11-06T05:00:00	8	Radiación solar	0
109097	7	Sololá	702	San José Chacayá	5	Chacayá	7	Julio	2023-07-23T00:00:00	2024-11-06T06:00:00	2	Temperatura media	9.8
109098	7	Sololá	702	San José Chacayá	5	Chacayá	7	Julio	2023-07-23T00:00:00	2024-11-06T06:00:00	4	Temperatura máxima	10.2
109099	7	Sololá	702	San José Chacayá	5	Chacayá	7	Julio	2023-07-23T00:00:00	2024-11-06T06:00:00	3	Temperatura mínima	9.8
109100	7	Sololá	702	San José Chacayá	5	Chacayá	7	Julio	2023-07-23T00:00:00	2024-11-06T06:00:00	5	Humedad	84
109101	7	Sololá	702	San José Chacayá	5	Chacayá	7	Julio	2023-07-23T00:00:00	2024-11-06T06:00:00	6	Velocidad del viento	3.2
109102	7	Sololá	702	San José Chacayá	5	Chacayá	7	Julio	2023-07-23T00:00:00	2024-11-06T06:00:00	7	Dirección del viento	3.22
109103	7	Sololá	702	San José Chacayá	5	Chacayá	7	Julio	2023-07-23T00:00:00	2024-11-06T06:00:00	1	Precipitación	0
109104	7	Sololá	702	San José Chacayá	5	Chacayá	7	Julio	2023-07-23T00:00:00	2024-11-06T06:00:00	8	Radiación solar	3
109105	7	Sololá	702	San José Chacayá	5	Chacayá	7	Julio	2023-07-23T00:00:00	2024-11-06T07:00:00	2	Temperatura media	13.8
109106	7	Sololá	702	San José Chacayá	5	Chacayá	7	Julio	2023-07-23T00:00:00	2024-11-06T07:00:00	4	Temperatura máxima	13.8
109107	7	Sololá	702	San José Chacayá	5	Chacayá	7	Julio	2023-07-23T00:00:00	2024-11-06T07:00:00	3	Temperatura mínima	9.8
109108	7	Sololá	702	San José Chacayá	5	Chacayá	7	Julio	2023-07-23T00:00:00	2024-11-06T07:00:00	5	Humedad	84
109109	7	Sololá	702	San José Chacayá	5	Chacayá	7	Julio	2023-07-23T00:00:00	2024-11-06T07:00:00	6	Velocidad del viento	3.2
109110	7	Sololá	702	San José Chacayá	5	Chacayá	7	Julio	2023-07-23T00:00:00	2024-11-06T07:00:00	7	Dirección del viento	3.22
109111	7	Sololá	702	San José Chacayá	5	Chacayá	7	Julio	2023-07-23T00:00:00	2024-11-06T07:00:00	1	Precipitación	0
109112	7	Sololá	702	San José Chacayá	5	Chacayá	7	Julio	2023-07-23T00:00:00	2024-11-06T07:00:00	8	Radiación solar	32
109113	7	Sololá	702	San José Chacayá	5	Chacayá	7	Julio	2023-07-23T00:00:00	2024-11-06T08:00:00	2	Temperatura media	16.6
109114	7	Sololá	702	San José Chacayá	5	Chacayá	7	Julio	2023-07-23T00:00:00	2024-11-06T08:00:00	4	Temperatura máxima	16.6
109115	7	Sololá	702	San José Chacayá	5	Chacayá	7	Julio	2023-07-23T00:00:00	2024-11-06T08:00:00	3	Temperatura mínima	14.9
109116	7	Sololá	702	San José Chacayá	5	Chacayá	7	Julio	2023-07-23T00:00:00	2024-11-06T08:00:00	5	Humedad	82
109117	7	Sololá	702	San José Chacayá	5	Chacayá	7	Julio	2023-07-23T00:00:00	2024-11-06T08:00:00	6	Velocidad del viento	1.6
109118	7	Sololá	702	San José Chacayá	5	Chacayá	7	Julio	2023-07-23T00:00:00	2024-11-06T08:00:00	7	Dirección del viento	1.61
109119	7	Sololá	702	San José Chacayá	5	Chacayá	7	Julio	2023-07-23T00:00:00	2024-11-06T08:00:00	1	Precipitación	0
109120	7	Sololá	702	San José Chacayá	5	Chacayá	7	Julio	2023-07-23T00:00:00	2024-11-06T08:00:00	8	Radiación solar	161
109121	7	Sololá	702	San José Chacayá	5	Chacayá	7	Julio	2023-07-23T00:00:00	2024-11-06T09:00:00	2	Temperatura media	20
109122	7	Sololá	702	San José Chacayá	5	Chacayá	7	Julio	2023-07-23T00:00:00	2024-11-06T09:00:00	4	Temperatura máxima	20
109123	7	Sololá	702	San José Chacayá	5	Chacayá	7	Julio	2023-07-23T00:00:00	2024-11-06T09:00:00	3	Temperatura mínima	16.6
109124	7	Sololá	702	San José Chacayá	5	Chacayá	7	Julio	2023-07-23T00:00:00	2024-11-06T09:00:00	5	Humedad	70
109125	7	Sololá	702	San José Chacayá	5	Chacayá	7	Julio	2023-07-23T00:00:00	2024-11-06T09:00:00	6	Velocidad del viento	3.2
109126	7	Sololá	702	San José Chacayá	5	Chacayá	7	Julio	2023-07-23T00:00:00	2024-11-06T09:00:00	7	Dirección del viento	3.22
109127	7	Sololá	702	San José Chacayá	5	Chacayá	7	Julio	2023-07-23T00:00:00	2024-11-06T09:00:00	1	Precipitación	0
109128	7	Sololá	702	San José Chacayá	5	Chacayá	7	Julio	2023-07-23T00:00:00	2024-11-06T09:00:00	8	Radiación solar	406
109129	7	Sololá	702	San José Chacayá	5	Chacayá	7	Julio	2023-07-23T00:00:00	2024-11-06T10:00:00	2	Temperatura media	21.4
109130	7	Sololá	702	San José Chacayá	5	Chacayá	7	Julio	2023-07-23T00:00:00	2024-11-06T10:00:00	4	Temperatura máxima	21.6
109131	7	Sololá	702	San José Chacayá	5	Chacayá	7	Julio	2023-07-23T00:00:00	2024-11-06T10:00:00	3	Temperatura mínima	20
109132	7	Sololá	702	San José Chacayá	5	Chacayá	7	Julio	2023-07-23T00:00:00	2024-11-06T10:00:00	5	Humedad	65
109133	7	Sololá	702	San José Chacayá	5	Chacayá	7	Julio	2023-07-23T00:00:00	2024-11-06T10:00:00	6	Velocidad del viento	4.8
109134	7	Sololá	702	San José Chacayá	5	Chacayá	7	Julio	2023-07-23T00:00:00	2024-11-06T10:00:00	7	Dirección del viento	4.83
109135	7	Sololá	702	San José Chacayá	5	Chacayá	7	Julio	2023-07-23T00:00:00	2024-11-06T10:00:00	1	Precipitación	0
109136	7	Sololá	702	San José Chacayá	5	Chacayá	7	Julio	2023-07-23T00:00:00	2024-11-06T10:00:00	8	Radiación solar	798
109137	7	Sololá	702	San José Chacayá	5	Chacayá	7	Julio	2023-07-23T00:00:00	2024-11-06T11:00:00	2	Temperatura media	20.3
109138	7	Sololá	702	San José Chacayá	5	Chacayá	7	Julio	2023-07-23T00:00:00	2024-11-06T11:00:00	4	Temperatura máxima	21.9
109139	7	Sololá	702	San José Chacayá	5	Chacayá	7	Julio	2023-07-23T00:00:00	2024-11-06T11:00:00	3	Temperatura mínima	20.3
109140	7	Sololá	702	San José Chacayá	5	Chacayá	7	Julio	2023-07-23T00:00:00	2024-11-06T11:00:00	5	Humedad	69
109141	7	Sololá	702	San José Chacayá	5	Chacayá	7	Julio	2023-07-23T00:00:00	2024-11-06T11:00:00	6	Velocidad del viento	4.8
109142	7	Sololá	702	San José Chacayá	5	Chacayá	7	Julio	2023-07-23T00:00:00	2024-11-06T11:00:00	7	Dirección del viento	4.83
109143	7	Sololá	702	San José Chacayá	5	Chacayá	7	Julio	2023-07-23T00:00:00	2024-11-06T11:00:00	1	Precipitación	0
109144	7	Sololá	702	San José Chacayá	5	Chacayá	7	Julio	2023-07-23T00:00:00	2024-11-06T11:00:00	8	Radiación solar	454
109145	7	Sololá	702	San José Chacayá	5	Chacayá	7	Julio	2023-07-23T00:00:00	2024-11-06T12:00:00	2	Temperatura media	17.7
109146	7	Sololá	702	San José Chacayá	5	Chacayá	7	Julio	2023-07-23T00:00:00	2024-11-06T12:00:00	4	Temperatura máxima	20.5
109147	7	Sololá	702	San José Chacayá	5	Chacayá	7	Julio	2023-07-23T00:00:00	2024-11-06T12:00:00	3	Temperatura mínima	17.7
109148	7	Sololá	702	San José Chacayá	5	Chacayá	7	Julio	2023-07-23T00:00:00	2024-11-06T12:00:00	5	Humedad	82
109149	7	Sololá	702	San José Chacayá	5	Chacayá	7	Julio	2023-07-23T00:00:00	2024-11-06T12:00:00	6	Velocidad del viento	3.2
109150	7	Sololá	702	San José Chacayá	5	Chacayá	7	Julio	2023-07-23T00:00:00	2024-11-06T12:00:00	7	Dirección del viento	3.22
109151	7	Sololá	702	San José Chacayá	5	Chacayá	7	Julio	2023-07-23T00:00:00	2024-11-06T12:00:00	1	Precipitación	0.2
109152	7	Sololá	702	San José Chacayá	5	Chacayá	7	Julio	2023-07-23T00:00:00	2024-11-06T12:00:00	8	Radiación solar	198
109153	7	Sololá	702	San José Chacayá	5	Chacayá	7	Julio	2023-07-23T00:00:00	2024-11-06T13:00:00	2	Temperatura media	19.2
109154	7	Sololá	702	San José Chacayá	5	Chacayá	7	Julio	2023-07-23T00:00:00	2024-11-06T13:00:00	4	Temperatura máxima	19.2
109155	7	Sololá	702	San José Chacayá	5	Chacayá	7	Julio	2023-07-23T00:00:00	2024-11-06T13:00:00	3	Temperatura mínima	17.2
109156	7	Sololá	702	San José Chacayá	5	Chacayá	7	Julio	2023-07-23T00:00:00	2024-11-06T13:00:00	5	Humedad	82
109157	7	Sololá	702	San José Chacayá	5	Chacayá	7	Julio	2023-07-23T00:00:00	2024-11-06T13:00:00	6	Velocidad del viento	1.6
109158	7	Sololá	702	San José Chacayá	5	Chacayá	7	Julio	2023-07-23T00:00:00	2024-11-06T13:00:00	7	Dirección del viento	1.61
109159	7	Sololá	702	San José Chacayá	5	Chacayá	7	Julio	2023-07-23T00:00:00	2024-11-06T13:00:00	1	Precipitación	0.6
109160	7	Sololá	702	San José Chacayá	5	Chacayá	7	Julio	2023-07-23T00:00:00	2024-11-06T13:00:00	8	Radiación solar	302
109161	7	Sololá	702	San José Chacayá	5	Chacayá	7	Julio	2023-07-23T00:00:00	2024-11-06T14:00:00	2	Temperatura media	17.8
109162	7	Sololá	702	San José Chacayá	5	Chacayá	7	Julio	2023-07-23T00:00:00	2024-11-06T14:00:00	4	Temperatura máxima	19.2
109163	7	Sololá	702	San José Chacayá	5	Chacayá	7	Julio	2023-07-23T00:00:00	2024-11-06T14:00:00	3	Temperatura mínima	16.7
109164	7	Sololá	702	San José Chacayá	5	Chacayá	7	Julio	2023-07-23T00:00:00	2024-11-06T14:00:00	5	Humedad	81
109165	7	Sololá	702	San José Chacayá	5	Chacayá	7	Julio	2023-07-23T00:00:00	2024-11-06T14:00:00	6	Velocidad del viento	1.6
109166	7	Sololá	702	San José Chacayá	5	Chacayá	7	Julio	2023-07-23T00:00:00	2024-11-06T14:00:00	7	Dirección del viento	1.61
109167	7	Sololá	702	San José Chacayá	5	Chacayá	7	Julio	2023-07-23T00:00:00	2024-11-06T14:00:00	1	Precipitación	3.4
109168	7	Sololá	702	San José Chacayá	5	Chacayá	7	Julio	2023-07-23T00:00:00	2024-11-06T14:00:00	8	Radiación solar	251
109169	7	Sololá	702	San José Chacayá	5	Chacayá	7	Julio	2023-07-23T00:00:00	2024-11-06T15:00:00	2	Temperatura media	16.5
109170	7	Sololá	702	San José Chacayá	5	Chacayá	7	Julio	2023-07-23T00:00:00	2024-11-06T15:00:00	4	Temperatura máxima	18
109171	7	Sololá	702	San José Chacayá	5	Chacayá	7	Julio	2023-07-23T00:00:00	2024-11-06T15:00:00	3	Temperatura mínima	16.5
109172	7	Sololá	702	San José Chacayá	5	Chacayá	7	Julio	2023-07-23T00:00:00	2024-11-06T15:00:00	5	Humedad	68
109173	7	Sololá	702	San José Chacayá	5	Chacayá	7	Julio	2023-07-23T00:00:00	2024-11-06T15:00:00	6	Velocidad del viento	3.2
109174	7	Sololá	702	San José Chacayá	5	Chacayá	7	Julio	2023-07-23T00:00:00	2024-11-06T15:00:00	7	Dirección del viento	3.22
109175	7	Sololá	702	San José Chacayá	5	Chacayá	7	Julio	2023-07-23T00:00:00	2024-11-06T15:00:00	1	Precipitación	0.4
109176	7	Sololá	702	San José Chacayá	5	Chacayá	7	Julio	2023-07-23T00:00:00	2024-11-06T15:00:00	8	Radiación solar	87
109177	7	Sololá	702	San José Chacayá	5	Chacayá	7	Julio	2023-07-23T00:00:00	2024-11-06T16:00:00	2	Temperatura media	15.9
109178	7	Sololá	702	San José Chacayá	5	Chacayá	7	Julio	2023-07-23T00:00:00	2024-11-06T16:00:00	4	Temperatura máxima	16.5
109179	7	Sololá	702	San José Chacayá	5	Chacayá	7	Julio	2023-07-23T00:00:00	2024-11-06T16:00:00	3	Temperatura mínima	15.9
109180	7	Sololá	702	San José Chacayá	5	Chacayá	7	Julio	2023-07-23T00:00:00	2024-11-06T16:00:00	5	Humedad	72
109181	7	Sololá	702	San José Chacayá	5	Chacayá	7	Julio	2023-07-23T00:00:00	2024-11-06T16:00:00	6	Velocidad del viento	3.2
109182	7	Sololá	702	San José Chacayá	5	Chacayá	7	Julio	2023-07-23T00:00:00	2024-11-06T16:00:00	7	Dirección del viento	3.22
109183	7	Sololá	702	San José Chacayá	5	Chacayá	7	Julio	2023-07-23T00:00:00	2024-11-06T16:00:00	1	Precipitación	5.2
109184	7	Sololá	702	San José Chacayá	5	Chacayá	7	Julio	2023-07-23T00:00:00	2024-11-06T16:00:00	8	Radiación solar	86
109185	7	Sololá	702	San José Chacayá	5	Chacayá	7	Julio	2023-07-23T00:00:00	2024-11-06T17:00:00	2	Temperatura media	15.4
109186	7	Sololá	702	San José Chacayá	5	Chacayá	7	Julio	2023-07-23T00:00:00	2024-11-06T17:00:00	4	Temperatura máxima	16.1
109187	7	Sololá	702	San José Chacayá	5	Chacayá	7	Julio	2023-07-23T00:00:00	2024-11-06T17:00:00	3	Temperatura mínima	15.3
109188	7	Sololá	702	San José Chacayá	5	Chacayá	7	Julio	2023-07-23T00:00:00	2024-11-06T17:00:00	5	Humedad	68
109189	7	Sololá	702	San José Chacayá	5	Chacayá	7	Julio	2023-07-23T00:00:00	2024-11-06T17:00:00	6	Velocidad del viento	1.6
109190	7	Sololá	702	San José Chacayá	5	Chacayá	7	Julio	2023-07-23T00:00:00	2024-11-06T17:00:00	7	Dirección del viento	1.61
109191	7	Sololá	702	San José Chacayá	5	Chacayá	7	Julio	2023-07-23T00:00:00	2024-11-06T17:00:00	1	Precipitación	0.8
109192	7	Sololá	702	San José Chacayá	5	Chacayá	7	Julio	2023-07-23T00:00:00	2024-11-06T17:00:00	8	Radiación solar	55
109193	7	Sololá	702	San José Chacayá	5	Chacayá	7	Julio	2023-07-23T00:00:00	2024-11-06T18:00:00	2	Temperatura media	15.3
109194	7	Sololá	702	San José Chacayá	5	Chacayá	7	Julio	2023-07-23T00:00:00	2024-11-06T18:00:00	4	Temperatura máxima	15.5
109195	7	Sololá	702	San José Chacayá	5	Chacayá	7	Julio	2023-07-23T00:00:00	2024-11-06T18:00:00	3	Temperatura mínima	15.3
109196	7	Sololá	702	San José Chacayá	5	Chacayá	7	Julio	2023-07-23T00:00:00	2024-11-06T18:00:00	5	Humedad	76
109197	7	Sololá	702	San José Chacayá	5	Chacayá	7	Julio	2023-07-23T00:00:00	2024-11-06T18:00:00	6	Velocidad del viento	1.6
109198	7	Sololá	702	San José Chacayá	5	Chacayá	7	Julio	2023-07-23T00:00:00	2024-11-06T18:00:00	7	Dirección del viento	1.61
109199	7	Sololá	702	San José Chacayá	5	Chacayá	7	Julio	2023-07-23T00:00:00	2024-11-06T18:00:00	1	Precipitación	0
109200	7	Sololá	702	San José Chacayá	5	Chacayá	7	Julio	2023-07-23T00:00:00	2024-11-06T18:00:00	8	Radiación solar	90
109201	7	Sololá	702	San José Chacayá	5	Chacayá	7	Julio	2023-07-23T00:00:00	2024-11-06T19:00:00	2	Temperatura media	14
109202	7	Sololá	702	San José Chacayá	5	Chacayá	7	Julio	2023-07-23T00:00:00	2024-11-06T19:00:00	4	Temperatura máxima	15.3
109203	7	Sololá	702	San José Chacayá	5	Chacayá	7	Julio	2023-07-23T00:00:00	2024-11-06T19:00:00	3	Temperatura mínima	14
109204	7	Sololá	702	San José Chacayá	5	Chacayá	7	Julio	2023-07-23T00:00:00	2024-11-06T19:00:00	5	Humedad	75
109205	7	Sololá	702	San José Chacayá	5	Chacayá	7	Julio	2023-07-23T00:00:00	2024-11-06T19:00:00	6	Velocidad del viento	1.6
109206	7	Sololá	702	San José Chacayá	5	Chacayá	7	Julio	2023-07-23T00:00:00	2024-11-06T19:00:00	7	Dirección del viento	1.61
109207	7	Sololá	702	San José Chacayá	5	Chacayá	7	Julio	2023-07-23T00:00:00	2024-11-06T19:00:00	1	Precipitación	0
109208	7	Sololá	702	San José Chacayá	5	Chacayá	7	Julio	2023-07-23T00:00:00	2024-11-06T19:00:00	8	Radiación solar	0
109209	7	Sololá	702	San José Chacayá	5	Chacayá	7	Julio	2023-07-23T00:00:00	2024-11-06T20:00:00	2	Temperatura media	13.1
109210	7	Sololá	702	San José Chacayá	5	Chacayá	7	Julio	2023-07-23T00:00:00	2024-11-06T20:00:00	4	Temperatura máxima	14
109211	7	Sololá	702	San José Chacayá	5	Chacayá	7	Julio	2023-07-23T00:00:00	2024-11-06T20:00:00	3	Temperatura mínima	13.1
109212	7	Sololá	702	San José Chacayá	5	Chacayá	7	Julio	2023-07-23T00:00:00	2024-11-06T20:00:00	5	Humedad	73
109213	7	Sololá	702	San José Chacayá	5	Chacayá	7	Julio	2023-07-23T00:00:00	2024-11-06T20:00:00	6	Velocidad del viento	3.2
109214	7	Sololá	702	San José Chacayá	5	Chacayá	7	Julio	2023-07-23T00:00:00	2024-11-06T20:00:00	7	Dirección del viento	3.22
109215	7	Sololá	702	San José Chacayá	5	Chacayá	7	Julio	2023-07-23T00:00:00	2024-11-06T20:00:00	1	Precipitación	0
109216	7	Sololá	702	San José Chacayá	5	Chacayá	7	Julio	2023-07-23T00:00:00	2024-11-06T20:00:00	8	Radiación solar	0
109217	7	Sololá	702	San José Chacayá	5	Chacayá	7	Julio	2023-07-23T00:00:00	2024-11-06T21:00:00	2	Temperatura media	14.9
109218	7	Sololá	702	San José Chacayá	5	Chacayá	7	Julio	2023-07-23T00:00:00	2024-11-06T21:00:00	4	Temperatura máxima	15.9
109219	7	Sololá	702	San José Chacayá	5	Chacayá	7	Julio	2023-07-23T00:00:00	2024-11-06T21:00:00	3	Temperatura mínima	14.9
109220	7	Sololá	702	San José Chacayá	5	Chacayá	7	Julio	2023-07-23T00:00:00	2024-11-06T21:00:00	5	Humedad	83
109221	7	Sololá	702	San José Chacayá	5	Chacayá	7	Julio	2023-07-23T00:00:00	2024-11-06T21:00:00	6	Velocidad del viento	1.6
109222	7	Sololá	702	San José Chacayá	5	Chacayá	7	Julio	2023-07-23T00:00:00	2024-11-06T21:00:00	7	Dirección del viento	1.61
109223	7	Sololá	702	San José Chacayá	5	Chacayá	7	Julio	2023-07-23T00:00:00	2024-11-06T21:00:00	1	Precipitación	0
109224	7	Sololá	702	San José Chacayá	5	Chacayá	7	Julio	2023-07-23T00:00:00	2024-11-06T21:00:00	8	Radiación solar	0
109225	7	Sololá	702	San José Chacayá	5	Chacayá	7	Julio	2023-07-23T00:00:00	2024-11-06T22:00:00	2	Temperatura media	13.9
109226	7	Sololá	702	San José Chacayá	5	Chacayá	7	Julio	2023-07-23T00:00:00	2024-11-06T22:00:00	4	Temperatura máxima	14.9
109227	7	Sololá	702	San José Chacayá	5	Chacayá	7	Julio	2023-07-23T00:00:00	2024-11-06T22:00:00	3	Temperatura mínima	13.8
109228	7	Sololá	702	San José Chacayá	5	Chacayá	7	Julio	2023-07-23T00:00:00	2024-11-06T22:00:00	5	Humedad	84
109229	7	Sololá	702	San José Chacayá	5	Chacayá	7	Julio	2023-07-23T00:00:00	2024-11-06T22:00:00	6	Velocidad del viento	0
109230	7	Sololá	702	San José Chacayá	5	Chacayá	7	Julio	2023-07-23T00:00:00	2024-11-06T22:00:00	7	Dirección del viento	0
109231	7	Sololá	702	San José Chacayá	5	Chacayá	7	Julio	2023-07-23T00:00:00	2024-11-06T22:00:00	1	Precipitación	0
109232	7	Sololá	702	San José Chacayá	5	Chacayá	7	Julio	2023-07-23T00:00:00	2024-11-06T22:00:00	8	Radiación solar	0
109233	7	Sololá	702	San José Chacayá	5	Chacayá	7	Julio	2023-07-23T00:00:00	2024-11-06T23:00:00	2	Temperatura media	14.4
109234	7	Sololá	702	San José Chacayá	5	Chacayá	7	Julio	2023-07-23T00:00:00	2024-11-06T23:00:00	4	Temperatura máxima	14.7
109235	7	Sololá	702	San José Chacayá	5	Chacayá	7	Julio	2023-07-23T00:00:00	2024-11-06T23:00:00	3	Temperatura mínima	13.9
109236	7	Sololá	702	San José Chacayá	5	Chacayá	7	Julio	2023-07-23T00:00:00	2024-11-06T23:00:00	5	Humedad	83
109237	7	Sololá	702	San José Chacayá	5	Chacayá	7	Julio	2023-07-23T00:00:00	2024-11-06T23:00:00	6	Velocidad del viento	1.6
109238	7	Sololá	702	San José Chacayá	5	Chacayá	7	Julio	2023-07-23T00:00:00	2024-11-06T23:00:00	7	Dirección del viento	1.61
109239	7	Sololá	702	San José Chacayá	5	Chacayá	7	Julio	2023-07-23T00:00:00	2024-11-06T23:00:00	1	Precipitación	0
109240	7	Sololá	702	San José Chacayá	5	Chacayá	7	Julio	2023-07-23T00:00:00	2024-11-06T23:00:00	8	Radiación solar	0
109241	7	Sololá	702	San José Chacayá	5	Chacayá	7	Julio	2023-07-24T00:00:00	2024-11-06T00:00:00	2	Temperatura media	13.8
109242	7	Sololá	702	San José Chacayá	5	Chacayá	7	Julio	2023-07-24T00:00:00	2024-11-06T00:00:00	4	Temperatura máxima	13.8
109243	7	Sololá	702	San José Chacayá	5	Chacayá	7	Julio	2023-07-24T00:00:00	2024-11-06T00:00:00	3	Temperatura mínima	13.4
109244	7	Sololá	702	San José Chacayá	5	Chacayá	7	Julio	2023-07-24T00:00:00	2024-11-06T00:00:00	5	Humedad	60
109245	7	Sololá	702	San José Chacayá	5	Chacayá	7	Julio	2023-07-24T00:00:00	2024-11-06T00:00:00	6	Velocidad del viento	0
109246	7	Sololá	702	San José Chacayá	5	Chacayá	7	Julio	2023-07-24T00:00:00	2024-11-06T00:00:00	7	Dirección del viento	0
109247	7	Sololá	702	San José Chacayá	5	Chacayá	7	Julio	2023-07-24T00:00:00	2024-11-06T00:00:00	1	Precipitación	0
109248	7	Sololá	702	San José Chacayá	5	Chacayá	7	Julio	2023-07-24T00:00:00	2024-11-06T00:00:00	8	Radiación solar	0
109249	7	Sololá	702	San José Chacayá	5	Chacayá	7	Julio	2023-07-24T00:00:00	2024-11-06T01:00:00	2	Temperatura media	14
109250	7	Sololá	702	San José Chacayá	5	Chacayá	7	Julio	2023-07-24T00:00:00	2024-11-06T01:00:00	4	Temperatura máxima	14.1
109251	7	Sololá	702	San José Chacayá	5	Chacayá	7	Julio	2023-07-24T00:00:00	2024-11-06T01:00:00	3	Temperatura mínima	13.8
109252	7	Sololá	702	San José Chacayá	5	Chacayá	7	Julio	2023-07-24T00:00:00	2024-11-06T01:00:00	5	Humedad	55
109253	7	Sololá	702	San José Chacayá	5	Chacayá	7	Julio	2023-07-24T00:00:00	2024-11-06T01:00:00	6	Velocidad del viento	1.6
109254	7	Sololá	702	San José Chacayá	5	Chacayá	7	Julio	2023-07-24T00:00:00	2024-11-06T01:00:00	7	Dirección del viento	1.61
109255	7	Sololá	702	San José Chacayá	5	Chacayá	7	Julio	2023-07-24T00:00:00	2024-11-06T01:00:00	1	Precipitación	0
109256	7	Sololá	702	San José Chacayá	5	Chacayá	7	Julio	2023-07-24T00:00:00	2024-11-06T01:00:00	8	Radiación solar	0
109257	7	Sololá	702	San José Chacayá	5	Chacayá	7	Julio	2023-07-24T00:00:00	2024-11-06T02:00:00	2	Temperatura media	14
109258	7	Sololá	702	San José Chacayá	5	Chacayá	7	Julio	2023-07-24T00:00:00	2024-11-06T02:00:00	4	Temperatura máxima	14.1
109259	7	Sololá	702	San José Chacayá	5	Chacayá	7	Julio	2023-07-24T00:00:00	2024-11-06T02:00:00	3	Temperatura mínima	14
109260	7	Sololá	702	San José Chacayá	5	Chacayá	7	Julio	2023-07-24T00:00:00	2024-11-06T02:00:00	5	Humedad	54
109261	7	Sololá	702	San José Chacayá	5	Chacayá	7	Julio	2023-07-24T00:00:00	2024-11-06T02:00:00	6	Velocidad del viento	0
109262	7	Sololá	702	San José Chacayá	5	Chacayá	7	Julio	2023-07-24T00:00:00	2024-11-06T02:00:00	7	Dirección del viento	0
109263	7	Sololá	702	San José Chacayá	5	Chacayá	7	Julio	2023-07-24T00:00:00	2024-11-06T02:00:00	1	Precipitación	0
109264	7	Sololá	702	San José Chacayá	5	Chacayá	7	Julio	2023-07-24T00:00:00	2024-11-06T02:00:00	8	Radiación solar	0
109265	7	Sololá	702	San José Chacayá	5	Chacayá	7	Julio	2023-07-24T00:00:00	2024-11-06T03:00:00	2	Temperatura media	13.7
109266	7	Sololá	702	San José Chacayá	5	Chacayá	7	Julio	2023-07-24T00:00:00	2024-11-06T03:00:00	4	Temperatura máxima	14
109267	7	Sololá	702	San José Chacayá	5	Chacayá	7	Julio	2023-07-24T00:00:00	2024-11-06T03:00:00	3	Temperatura mínima	13.7
109268	7	Sololá	702	San José Chacayá	5	Chacayá	7	Julio	2023-07-24T00:00:00	2024-11-06T03:00:00	5	Humedad	52
109269	7	Sololá	702	San José Chacayá	5	Chacayá	7	Julio	2023-07-24T00:00:00	2024-11-06T03:00:00	6	Velocidad del viento	0
109270	7	Sololá	702	San José Chacayá	5	Chacayá	7	Julio	2023-07-24T00:00:00	2024-11-06T03:00:00	7	Dirección del viento	0
109271	7	Sololá	702	San José Chacayá	5	Chacayá	7	Julio	2023-07-24T00:00:00	2024-11-06T03:00:00	1	Precipitación	0
109272	7	Sololá	702	San José Chacayá	5	Chacayá	7	Julio	2023-07-24T00:00:00	2024-11-06T03:00:00	8	Radiación solar	0
109273	7	Sololá	702	San José Chacayá	5	Chacayá	7	Julio	2023-07-24T00:00:00	2024-11-06T04:00:00	2	Temperatura media	13.2
109274	7	Sololá	702	San José Chacayá	5	Chacayá	7	Julio	2023-07-24T00:00:00	2024-11-06T04:00:00	4	Temperatura máxima	13.7
109275	7	Sololá	702	San José Chacayá	5	Chacayá	7	Julio	2023-07-24T00:00:00	2024-11-06T04:00:00	3	Temperatura mínima	13.2
109276	7	Sololá	702	San José Chacayá	5	Chacayá	7	Julio	2023-07-24T00:00:00	2024-11-06T04:00:00	5	Humedad	57
109277	7	Sololá	702	San José Chacayá	5	Chacayá	7	Julio	2023-07-24T00:00:00	2024-11-06T04:00:00	6	Velocidad del viento	1.6
109278	7	Sololá	702	San José Chacayá	5	Chacayá	7	Julio	2023-07-24T00:00:00	2024-11-06T04:00:00	7	Dirección del viento	1.61
109279	7	Sololá	702	San José Chacayá	5	Chacayá	7	Julio	2023-07-24T00:00:00	2024-11-06T04:00:00	1	Precipitación	0
109280	7	Sololá	702	San José Chacayá	5	Chacayá	7	Julio	2023-07-24T00:00:00	2024-11-06T04:00:00	8	Radiación solar	0
109281	7	Sololá	702	San José Chacayá	5	Chacayá	7	Julio	2023-07-24T00:00:00	2024-11-06T05:00:00	2	Temperatura media	13.2
109282	7	Sololá	702	San José Chacayá	5	Chacayá	7	Julio	2023-07-24T00:00:00	2024-11-06T05:00:00	4	Temperatura máxima	13.2
109283	7	Sololá	702	San José Chacayá	5	Chacayá	7	Julio	2023-07-24T00:00:00	2024-11-06T05:00:00	3	Temperatura mínima	13
109284	7	Sololá	702	San José Chacayá	5	Chacayá	7	Julio	2023-07-24T00:00:00	2024-11-06T05:00:00	5	Humedad	51
109285	7	Sololá	702	San José Chacayá	5	Chacayá	7	Julio	2023-07-24T00:00:00	2024-11-06T05:00:00	6	Velocidad del viento	1.6
109286	7	Sololá	702	San José Chacayá	5	Chacayá	7	Julio	2023-07-24T00:00:00	2024-11-06T05:00:00	7	Dirección del viento	1.61
109287	7	Sololá	702	San José Chacayá	5	Chacayá	7	Julio	2023-07-24T00:00:00	2024-11-06T05:00:00	1	Precipitación	0
109288	7	Sololá	702	San José Chacayá	5	Chacayá	7	Julio	2023-07-24T00:00:00	2024-11-06T05:00:00	8	Radiación solar	0
109289	7	Sololá	702	San José Chacayá	5	Chacayá	7	Julio	2023-07-24T00:00:00	2024-11-06T06:00:00	2	Temperatura media	13.7
109290	7	Sololá	702	San José Chacayá	5	Chacayá	7	Julio	2023-07-24T00:00:00	2024-11-06T06:00:00	4	Temperatura máxima	13.7
109291	7	Sololá	702	San José Chacayá	5	Chacayá	7	Julio	2023-07-24T00:00:00	2024-11-06T06:00:00	3	Temperatura mínima	13.2
109292	7	Sololá	702	San José Chacayá	5	Chacayá	7	Julio	2023-07-24T00:00:00	2024-11-06T06:00:00	5	Humedad	53
109293	7	Sololá	702	San José Chacayá	5	Chacayá	7	Julio	2023-07-24T00:00:00	2024-11-06T06:00:00	6	Velocidad del viento	1.6
109294	7	Sololá	702	San José Chacayá	5	Chacayá	7	Julio	2023-07-24T00:00:00	2024-11-06T06:00:00	7	Dirección del viento	1.61
109295	7	Sololá	702	San José Chacayá	5	Chacayá	7	Julio	2023-07-24T00:00:00	2024-11-06T06:00:00	1	Precipitación	0.2
109296	7	Sololá	702	San José Chacayá	5	Chacayá	7	Julio	2023-07-24T00:00:00	2024-11-06T06:00:00	8	Radiación solar	2
109297	7	Sololá	702	San José Chacayá	5	Chacayá	7	Julio	2023-07-24T00:00:00	2024-11-06T07:00:00	2	Temperatura media	12.6
109298	7	Sololá	702	San José Chacayá	5	Chacayá	7	Julio	2023-07-24T00:00:00	2024-11-06T07:00:00	4	Temperatura máxima	12.6
109299	7	Sololá	702	San José Chacayá	5	Chacayá	7	Julio	2023-07-24T00:00:00	2024-11-06T07:00:00	3	Temperatura mínima	9.9
109300	7	Sololá	702	San José Chacayá	5	Chacayá	7	Julio	2023-07-24T00:00:00	2024-11-06T07:00:00	5	Humedad	85
109301	7	Sololá	702	San José Chacayá	5	Chacayá	7	Julio	2023-07-24T00:00:00	2024-11-06T07:00:00	6	Velocidad del viento	1.6
109302	7	Sololá	702	San José Chacayá	5	Chacayá	7	Julio	2023-07-24T00:00:00	2024-11-06T07:00:00	7	Dirección del viento	1.61
109303	7	Sololá	702	San José Chacayá	5	Chacayá	7	Julio	2023-07-24T00:00:00	2024-11-06T07:00:00	1	Precipitación	0
109304	7	Sololá	702	San José Chacayá	5	Chacayá	7	Julio	2023-07-24T00:00:00	2024-11-06T07:00:00	8	Radiación solar	40
109305	7	Sololá	702	San José Chacayá	5	Chacayá	7	Julio	2023-07-24T00:00:00	2024-11-06T08:00:00	2	Temperatura media	16.7
109306	7	Sololá	702	San José Chacayá	5	Chacayá	7	Julio	2023-07-24T00:00:00	2024-11-06T08:00:00	4	Temperatura máxima	16.7
109307	7	Sololá	702	San José Chacayá	5	Chacayá	7	Julio	2023-07-24T00:00:00	2024-11-06T08:00:00	3	Temperatura mínima	12.6
109308	7	Sololá	702	San José Chacayá	5	Chacayá	7	Julio	2023-07-24T00:00:00	2024-11-06T08:00:00	5	Humedad	76
109309	7	Sololá	702	San José Chacayá	5	Chacayá	7	Julio	2023-07-24T00:00:00	2024-11-06T08:00:00	6	Velocidad del viento	3.2
109310	7	Sololá	702	San José Chacayá	5	Chacayá	7	Julio	2023-07-24T00:00:00	2024-11-06T08:00:00	7	Dirección del viento	3.22
109311	7	Sololá	702	San José Chacayá	5	Chacayá	7	Julio	2023-07-24T00:00:00	2024-11-06T08:00:00	1	Precipitación	0
109312	7	Sololá	702	San José Chacayá	5	Chacayá	7	Julio	2023-07-24T00:00:00	2024-11-06T08:00:00	8	Radiación solar	100
109313	7	Sololá	702	San José Chacayá	5	Chacayá	7	Julio	2023-07-24T00:00:00	2024-11-06T09:00:00	2	Temperatura media	19.9
109314	7	Sololá	702	San José Chacayá	5	Chacayá	7	Julio	2023-07-24T00:00:00	2024-11-06T09:00:00	4	Temperatura máxima	19.9
109315	7	Sololá	702	San José Chacayá	5	Chacayá	7	Julio	2023-07-24T00:00:00	2024-11-06T09:00:00	3	Temperatura mínima	19.9
109316	7	Sololá	702	San José Chacayá	5	Chacayá	7	Julio	2023-07-24T00:00:00	2024-11-06T09:00:00	5	Humedad	72
109317	7	Sololá	702	San José Chacayá	5	Chacayá	7	Julio	2023-07-24T00:00:00	2024-11-06T09:00:00	6	Velocidad del viento	1.6
109318	7	Sololá	702	San José Chacayá	5	Chacayá	7	Julio	2023-07-24T00:00:00	2024-11-06T09:00:00	7	Dirección del viento	1.61
109319	7	Sololá	702	San José Chacayá	5	Chacayá	7	Julio	2023-07-24T00:00:00	2024-11-06T09:00:00	1	Precipitación	0
109320	7	Sololá	702	San José Chacayá	5	Chacayá	7	Julio	2023-07-24T00:00:00	2024-11-06T09:00:00	8	Radiación solar	400
109321	7	Sololá	702	San José Chacayá	5	Chacayá	7	Julio	2023-07-24T00:00:00	2024-11-06T10:00:00	2	Temperatura media	21.5
109322	7	Sololá	702	San José Chacayá	5	Chacayá	7	Julio	2023-07-24T00:00:00	2024-11-06T10:00:00	4	Temperatura máxima	21.5
109323	7	Sololá	702	San José Chacayá	5	Chacayá	7	Julio	2023-07-24T00:00:00	2024-11-06T10:00:00	3	Temperatura mínima	19.1
109324	7	Sololá	702	San José Chacayá	5	Chacayá	7	Julio	2023-07-24T00:00:00	2024-11-06T10:00:00	5	Humedad	64
109325	7	Sololá	702	San José Chacayá	5	Chacayá	7	Julio	2023-07-24T00:00:00	2024-11-06T10:00:00	6	Velocidad del viento	4.8
109326	7	Sololá	702	San José Chacayá	5	Chacayá	7	Julio	2023-07-24T00:00:00	2024-11-06T10:00:00	7	Dirección del viento	4.83
109327	7	Sololá	702	San José Chacayá	5	Chacayá	7	Julio	2023-07-24T00:00:00	2024-11-06T10:00:00	1	Precipitación	0
109328	7	Sololá	702	San José Chacayá	5	Chacayá	7	Julio	2023-07-24T00:00:00	2024-11-06T10:00:00	8	Radiación solar	766
109329	7	Sololá	702	San José Chacayá	5	Chacayá	7	Julio	2023-07-24T00:00:00	2024-11-06T11:00:00	2	Temperatura media	22.1
109330	7	Sololá	702	San José Chacayá	5	Chacayá	7	Julio	2023-07-24T00:00:00	2024-11-06T11:00:00	4	Temperatura máxima	22.6
109331	7	Sololá	702	San José Chacayá	5	Chacayá	7	Julio	2023-07-24T00:00:00	2024-11-06T11:00:00	3	Temperatura mínima	21.5
109332	7	Sololá	702	San José Chacayá	5	Chacayá	7	Julio	2023-07-24T00:00:00	2024-11-06T11:00:00	5	Humedad	63
109333	7	Sololá	702	San José Chacayá	5	Chacayá	7	Julio	2023-07-24T00:00:00	2024-11-06T11:00:00	6	Velocidad del viento	4.8
109334	7	Sololá	702	San José Chacayá	5	Chacayá	7	Julio	2023-07-24T00:00:00	2024-11-06T11:00:00	7	Dirección del viento	4.83
109335	7	Sololá	702	San José Chacayá	5	Chacayá	7	Julio	2023-07-24T00:00:00	2024-11-06T11:00:00	1	Precipitación	0
109336	7	Sololá	702	San José Chacayá	5	Chacayá	7	Julio	2023-07-24T00:00:00	2024-11-06T11:00:00	8	Radiación solar	840
109337	7	Sololá	702	San José Chacayá	5	Chacayá	7	Julio	2023-07-24T00:00:00	2024-11-06T12:00:00	2	Temperatura media	22.9
109338	7	Sololá	702	San José Chacayá	5	Chacayá	7	Julio	2023-07-24T00:00:00	2024-11-06T12:00:00	4	Temperatura máxima	22.9
109339	7	Sololá	702	San José Chacayá	5	Chacayá	7	Julio	2023-07-24T00:00:00	2024-11-06T12:00:00	3	Temperatura mínima	21.7
109340	7	Sololá	702	San José Chacayá	5	Chacayá	7	Julio	2023-07-24T00:00:00	2024-11-06T12:00:00	5	Humedad	60
109341	7	Sololá	702	San José Chacayá	5	Chacayá	7	Julio	2023-07-24T00:00:00	2024-11-06T12:00:00	6	Velocidad del viento	4.8
109342	7	Sololá	702	San José Chacayá	5	Chacayá	7	Julio	2023-07-24T00:00:00	2024-11-06T12:00:00	7	Dirección del viento	4.83
109343	7	Sololá	702	San José Chacayá	5	Chacayá	7	Julio	2023-07-24T00:00:00	2024-11-06T12:00:00	1	Precipitación	0
109344	7	Sololá	702	San José Chacayá	5	Chacayá	7	Julio	2023-07-24T00:00:00	2024-11-06T12:00:00	8	Radiación solar	1028
109345	7	Sololá	702	San José Chacayá	5	Chacayá	7	Julio	2023-07-24T00:00:00	2024-11-06T13:00:00	2	Temperatura media	23.6
109346	7	Sololá	702	San José Chacayá	5	Chacayá	7	Julio	2023-07-24T00:00:00	2024-11-06T13:00:00	4	Temperatura máxima	24.1
109347	7	Sololá	702	San José Chacayá	5	Chacayá	7	Julio	2023-07-24T00:00:00	2024-11-06T13:00:00	3	Temperatura mínima	22.9
109348	7	Sololá	702	San José Chacayá	5	Chacayá	7	Julio	2023-07-24T00:00:00	2024-11-06T13:00:00	5	Humedad	61
109349	7	Sololá	702	San José Chacayá	5	Chacayá	7	Julio	2023-07-24T00:00:00	2024-11-06T13:00:00	6	Velocidad del viento	6.4
109350	7	Sololá	702	San José Chacayá	5	Chacayá	7	Julio	2023-07-24T00:00:00	2024-11-06T13:00:00	7	Dirección del viento	6.44
109351	7	Sololá	702	San José Chacayá	5	Chacayá	7	Julio	2023-07-24T00:00:00	2024-11-06T13:00:00	1	Precipitación	0
109352	7	Sololá	702	San José Chacayá	5	Chacayá	7	Julio	2023-07-24T00:00:00	2024-11-06T13:00:00	8	Radiación solar	1051
109353	7	Sololá	702	San José Chacayá	5	Chacayá	7	Julio	2023-07-24T00:00:00	2024-11-06T14:00:00	2	Temperatura media	22.2
109354	7	Sololá	702	San José Chacayá	5	Chacayá	7	Julio	2023-07-24T00:00:00	2024-11-06T14:00:00	4	Temperatura máxima	23.6
109355	7	Sololá	702	San José Chacayá	5	Chacayá	7	Julio	2023-07-24T00:00:00	2024-11-06T14:00:00	3	Temperatura mínima	21.6
109356	7	Sololá	702	San José Chacayá	5	Chacayá	7	Julio	2023-07-24T00:00:00	2024-11-06T14:00:00	5	Humedad	71
109357	7	Sololá	702	San José Chacayá	5	Chacayá	7	Julio	2023-07-24T00:00:00	2024-11-06T14:00:00	6	Velocidad del viento	3.2
109358	7	Sololá	702	San José Chacayá	5	Chacayá	7	Julio	2023-07-24T00:00:00	2024-11-06T14:00:00	7	Dirección del viento	3.22
109359	7	Sololá	702	San José Chacayá	5	Chacayá	7	Julio	2023-07-24T00:00:00	2024-11-06T14:00:00	1	Precipitación	0
109360	7	Sololá	702	San José Chacayá	5	Chacayá	7	Julio	2023-07-24T00:00:00	2024-11-06T14:00:00	8	Radiación solar	556
109361	7	Sololá	702	San José Chacayá	5	Chacayá	7	Julio	2023-07-24T00:00:00	2024-11-06T15:00:00	2	Temperatura media	17.8
109362	7	Sololá	702	San José Chacayá	5	Chacayá	7	Julio	2023-07-24T00:00:00	2024-11-06T15:00:00	4	Temperatura máxima	22.2
109363	7	Sololá	702	San José Chacayá	5	Chacayá	7	Julio	2023-07-24T00:00:00	2024-11-06T15:00:00	3	Temperatura mínima	17.8
109364	7	Sololá	702	San José Chacayá	5	Chacayá	7	Julio	2023-07-24T00:00:00	2024-11-06T15:00:00	5	Humedad	86
109365	7	Sololá	702	San José Chacayá	5	Chacayá	7	Julio	2023-07-24T00:00:00	2024-11-06T15:00:00	6	Velocidad del viento	6.4
109366	7	Sololá	702	San José Chacayá	5	Chacayá	7	Julio	2023-07-24T00:00:00	2024-11-06T15:00:00	7	Dirección del viento	6.44
109367	7	Sololá	702	San José Chacayá	5	Chacayá	7	Julio	2023-07-24T00:00:00	2024-11-06T15:00:00	1	Precipitación	0
109368	7	Sololá	702	San José Chacayá	5	Chacayá	7	Julio	2023-07-24T00:00:00	2024-11-06T15:00:00	8	Radiación solar	337
109369	7	Sololá	702	San José Chacayá	5	Chacayá	7	Julio	2023-07-24T00:00:00	2024-11-06T16:00:00	2	Temperatura media	15.9
109370	7	Sololá	702	San José Chacayá	5	Chacayá	7	Julio	2023-07-24T00:00:00	2024-11-06T16:00:00	4	Temperatura máxima	17.8
109371	7	Sololá	702	San José Chacayá	5	Chacayá	7	Julio	2023-07-24T00:00:00	2024-11-06T16:00:00	3	Temperatura mínima	15.8
109372	7	Sololá	702	San José Chacayá	5	Chacayá	7	Julio	2023-07-24T00:00:00	2024-11-06T16:00:00	5	Humedad	93
109373	7	Sololá	702	San José Chacayá	5	Chacayá	7	Julio	2023-07-24T00:00:00	2024-11-06T16:00:00	6	Velocidad del viento	4.8
109374	7	Sololá	702	San José Chacayá	5	Chacayá	7	Julio	2023-07-24T00:00:00	2024-11-06T16:00:00	7	Dirección del viento	4.83
109375	7	Sololá	702	San José Chacayá	5	Chacayá	7	Julio	2023-07-24T00:00:00	2024-11-06T16:00:00	1	Precipitación	4.4
109376	7	Sololá	702	San José Chacayá	5	Chacayá	7	Julio	2023-07-24T00:00:00	2024-11-06T16:00:00	8	Radiación solar	344
109377	7	Sololá	702	San José Chacayá	5	Chacayá	7	Julio	2023-07-24T00:00:00	2024-11-06T17:00:00	2	Temperatura media	16.4
109378	7	Sololá	702	San José Chacayá	5	Chacayá	7	Julio	2023-07-24T00:00:00	2024-11-06T17:00:00	4	Temperatura máxima	16.4
109379	7	Sololá	702	San José Chacayá	5	Chacayá	7	Julio	2023-07-24T00:00:00	2024-11-06T17:00:00	3	Temperatura mínima	15.6
109380	7	Sololá	702	San José Chacayá	5	Chacayá	7	Julio	2023-07-24T00:00:00	2024-11-06T17:00:00	5	Humedad	92
109381	7	Sololá	702	San José Chacayá	5	Chacayá	7	Julio	2023-07-24T00:00:00	2024-11-06T17:00:00	6	Velocidad del viento	1.6
109382	7	Sololá	702	San José Chacayá	5	Chacayá	7	Julio	2023-07-24T00:00:00	2024-11-06T17:00:00	7	Dirección del viento	1.61
109383	7	Sololá	702	San José Chacayá	5	Chacayá	7	Julio	2023-07-24T00:00:00	2024-11-06T17:00:00	1	Precipitación	0
109384	7	Sololá	702	San José Chacayá	5	Chacayá	7	Julio	2023-07-24T00:00:00	2024-11-06T17:00:00	8	Radiación solar	159
109385	7	Sololá	702	San José Chacayá	5	Chacayá	7	Julio	2023-07-24T00:00:00	2024-11-06T18:00:00	2	Temperatura media	14.8
109386	7	Sololá	702	San José Chacayá	5	Chacayá	7	Julio	2023-07-24T00:00:00	2024-11-06T18:00:00	4	Temperatura máxima	16.7
109387	7	Sololá	702	San José Chacayá	5	Chacayá	7	Julio	2023-07-24T00:00:00	2024-11-06T18:00:00	3	Temperatura mínima	14.8
109388	7	Sololá	702	San José Chacayá	5	Chacayá	7	Julio	2023-07-24T00:00:00	2024-11-06T18:00:00	5	Humedad	92
109389	7	Sololá	702	San José Chacayá	5	Chacayá	7	Julio	2023-07-24T00:00:00	2024-11-06T18:00:00	6	Velocidad del viento	1.6
109390	7	Sololá	702	San José Chacayá	5	Chacayá	7	Julio	2023-07-24T00:00:00	2024-11-06T18:00:00	7	Dirección del viento	1.61
109391	7	Sololá	702	San José Chacayá	5	Chacayá	7	Julio	2023-07-24T00:00:00	2024-11-06T18:00:00	1	Precipitación	7.2
109392	7	Sololá	702	San José Chacayá	5	Chacayá	7	Julio	2023-07-24T00:00:00	2024-11-06T18:00:00	8	Radiación solar	79
109393	7	Sololá	702	San José Chacayá	5	Chacayá	7	Julio	2023-07-24T00:00:00	2024-11-06T19:00:00	2	Temperatura media	14.6
109394	7	Sololá	702	San José Chacayá	5	Chacayá	7	Julio	2023-07-24T00:00:00	2024-11-06T19:00:00	4	Temperatura máxima	14.9
109395	7	Sololá	702	San José Chacayá	5	Chacayá	7	Julio	2023-07-24T00:00:00	2024-11-06T19:00:00	3	Temperatura mínima	14.5
109396	7	Sololá	702	San José Chacayá	5	Chacayá	7	Julio	2023-07-24T00:00:00	2024-11-06T19:00:00	5	Humedad	94
109397	7	Sololá	702	San José Chacayá	5	Chacayá	7	Julio	2023-07-24T00:00:00	2024-11-06T19:00:00	6	Velocidad del viento	0
109398	7	Sololá	702	San José Chacayá	5	Chacayá	7	Julio	2023-07-24T00:00:00	2024-11-06T19:00:00	7	Dirección del viento	0
109399	7	Sololá	702	San José Chacayá	5	Chacayá	7	Julio	2023-07-24T00:00:00	2024-11-06T19:00:00	1	Precipitación	0.8
109400	7	Sololá	702	San José Chacayá	5	Chacayá	7	Julio	2023-07-24T00:00:00	2024-11-06T19:00:00	8	Radiación solar	0
109401	7	Sololá	702	San José Chacayá	5	Chacayá	7	Julio	2023-07-24T00:00:00	2024-11-06T20:00:00	2	Temperatura media	14.3
109402	7	Sololá	702	San José Chacayá	5	Chacayá	7	Julio	2023-07-24T00:00:00	2024-11-06T20:00:00	4	Temperatura máxima	14.7
109403	7	Sololá	702	San José Chacayá	5	Chacayá	7	Julio	2023-07-24T00:00:00	2024-11-06T20:00:00	3	Temperatura mínima	14.3
109404	7	Sololá	702	San José Chacayá	5	Chacayá	7	Julio	2023-07-24T00:00:00	2024-11-06T20:00:00	5	Humedad	94
109405	7	Sololá	702	San José Chacayá	5	Chacayá	7	Julio	2023-07-24T00:00:00	2024-11-06T20:00:00	6	Velocidad del viento	0
109406	7	Sololá	702	San José Chacayá	5	Chacayá	7	Julio	2023-07-24T00:00:00	2024-11-06T20:00:00	7	Dirección del viento	0
109407	7	Sololá	702	San José Chacayá	5	Chacayá	7	Julio	2023-07-24T00:00:00	2024-11-06T20:00:00	1	Precipitación	3
109408	7	Sololá	702	San José Chacayá	5	Chacayá	7	Julio	2023-07-24T00:00:00	2024-11-06T20:00:00	8	Radiación solar	0
109409	7	Sololá	702	San José Chacayá	5	Chacayá	7	Julio	2023-07-24T00:00:00	2024-11-06T21:00:00	2	Temperatura media	14.1
109410	7	Sololá	702	San José Chacayá	5	Chacayá	7	Julio	2023-07-24T00:00:00	2024-11-06T21:00:00	4	Temperatura máxima	14.3
109411	7	Sololá	702	San José Chacayá	5	Chacayá	7	Julio	2023-07-24T00:00:00	2024-11-06T21:00:00	3	Temperatura mínima	14
109412	7	Sololá	702	San José Chacayá	5	Chacayá	7	Julio	2023-07-24T00:00:00	2024-11-06T21:00:00	5	Humedad	94
109413	7	Sololá	702	San José Chacayá	5	Chacayá	7	Julio	2023-07-24T00:00:00	2024-11-06T21:00:00	6	Velocidad del viento	0
109414	7	Sololá	702	San José Chacayá	5	Chacayá	7	Julio	2023-07-24T00:00:00	2024-11-06T21:00:00	7	Dirección del viento	0
109415	7	Sololá	702	San José Chacayá	5	Chacayá	7	Julio	2023-07-24T00:00:00	2024-11-06T21:00:00	1	Precipitación	0.2
109416	7	Sololá	702	San José Chacayá	5	Chacayá	7	Julio	2023-07-24T00:00:00	2024-11-06T21:00:00	8	Radiación solar	0
109417	7	Sololá	702	San José Chacayá	5	Chacayá	7	Julio	2023-07-24T00:00:00	2024-11-06T22:00:00	2	Temperatura media	13.9
109418	7	Sololá	702	San José Chacayá	5	Chacayá	7	Julio	2023-07-24T00:00:00	2024-11-06T22:00:00	4	Temperatura máxima	14.9
109419	7	Sololá	702	San José Chacayá	5	Chacayá	7	Julio	2023-07-24T00:00:00	2024-11-06T22:00:00	3	Temperatura mínima	13.8
109420	7	Sololá	702	San José Chacayá	5	Chacayá	7	Julio	2023-07-24T00:00:00	2024-11-06T22:00:00	5	Humedad	84
109421	7	Sololá	702	San José Chacayá	5	Chacayá	7	Julio	2023-07-24T00:00:00	2024-11-06T22:00:00	6	Velocidad del viento	0
109422	7	Sololá	702	San José Chacayá	5	Chacayá	7	Julio	2023-07-24T00:00:00	2024-11-06T22:00:00	7	Dirección del viento	0
109423	7	Sololá	702	San José Chacayá	5	Chacayá	7	Julio	2023-07-24T00:00:00	2024-11-06T22:00:00	1	Precipitación	0
109424	7	Sololá	702	San José Chacayá	5	Chacayá	7	Julio	2023-07-24T00:00:00	2024-11-06T22:00:00	8	Radiación solar	0
109425	7	Sololá	702	San José Chacayá	5	Chacayá	7	Julio	2023-07-24T00:00:00	2024-11-06T23:00:00	2	Temperatura media	14.4
109426	7	Sololá	702	San José Chacayá	5	Chacayá	7	Julio	2023-07-24T00:00:00	2024-11-06T23:00:00	4	Temperatura máxima	14.7
109427	7	Sololá	702	San José Chacayá	5	Chacayá	7	Julio	2023-07-24T00:00:00	2024-11-06T23:00:00	3	Temperatura mínima	13.9
109428	7	Sololá	702	San José Chacayá	5	Chacayá	7	Julio	2023-07-24T00:00:00	2024-11-06T23:00:00	5	Humedad	83
109429	7	Sololá	702	San José Chacayá	5	Chacayá	7	Julio	2023-07-24T00:00:00	2024-11-06T23:00:00	6	Velocidad del viento	1.6
109430	7	Sololá	702	San José Chacayá	5	Chacayá	7	Julio	2023-07-24T00:00:00	2024-11-06T23:00:00	7	Dirección del viento	1.61
109431	7	Sololá	702	San José Chacayá	5	Chacayá	7	Julio	2023-07-24T00:00:00	2024-11-06T23:00:00	1	Precipitación	0
109432	7	Sololá	702	San José Chacayá	5	Chacayá	7	Julio	2023-07-24T00:00:00	2024-11-06T23:00:00	8	Radiación solar	0
109433	7	Sololá	702	San José Chacayá	5	Chacayá	7	Julio	2023-07-25T00:00:00	2024-11-06T00:00:00	2	Temperatura media	12.7
109434	7	Sololá	702	San José Chacayá	5	Chacayá	7	Julio	2023-07-25T00:00:00	2024-11-06T00:00:00	4	Temperatura máxima	14.4
109435	7	Sololá	702	San José Chacayá	5	Chacayá	7	Julio	2023-07-25T00:00:00	2024-11-06T00:00:00	3	Temperatura mínima	12.7
109436	7	Sololá	702	San José Chacayá	5	Chacayá	7	Julio	2023-07-25T00:00:00	2024-11-06T00:00:00	5	Humedad	84
109437	7	Sololá	702	San José Chacayá	5	Chacayá	7	Julio	2023-07-25T00:00:00	2024-11-06T00:00:00	6	Velocidad del viento	1.6
109438	7	Sololá	702	San José Chacayá	5	Chacayá	7	Julio	2023-07-25T00:00:00	2024-11-06T00:00:00	7	Dirección del viento	1.61
109439	7	Sololá	702	San José Chacayá	5	Chacayá	7	Julio	2023-07-25T00:00:00	2024-11-06T00:00:00	1	Precipitación	0
109440	7	Sololá	702	San José Chacayá	5	Chacayá	7	Julio	2023-07-25T00:00:00	2024-11-06T00:00:00	8	Radiación solar	0
109441	7	Sololá	702	San José Chacayá	5	Chacayá	7	Julio	2023-07-25T00:00:00	2024-11-06T01:00:00	2	Temperatura media	13.9
109442	7	Sololá	702	San José Chacayá	5	Chacayá	7	Julio	2023-07-25T00:00:00	2024-11-06T01:00:00	4	Temperatura máxima	14.2
109443	7	Sololá	702	San José Chacayá	5	Chacayá	7	Julio	2023-07-25T00:00:00	2024-11-06T01:00:00	3	Temperatura mínima	13.9
109444	7	Sololá	702	San José Chacayá	5	Chacayá	7	Julio	2023-07-25T00:00:00	2024-11-06T01:00:00	5	Humedad	91
109445	7	Sololá	702	San José Chacayá	5	Chacayá	7	Julio	2023-07-25T00:00:00	2024-11-06T01:00:00	6	Velocidad del viento	1.6
109446	7	Sololá	702	San José Chacayá	5	Chacayá	7	Julio	2023-07-25T00:00:00	2024-11-06T01:00:00	7	Dirección del viento	1.61
109447	7	Sololá	702	San José Chacayá	5	Chacayá	7	Julio	2023-07-25T00:00:00	2024-11-06T01:00:00	1	Precipitación	0
109448	7	Sololá	702	San José Chacayá	5	Chacayá	7	Julio	2023-07-25T00:00:00	2024-11-06T01:00:00	8	Radiación solar	0
109449	7	Sololá	702	San José Chacayá	5	Chacayá	7	Julio	2023-07-25T00:00:00	2024-11-06T02:00:00	2	Temperatura media	13.3
109450	7	Sololá	702	San José Chacayá	5	Chacayá	7	Julio	2023-07-25T00:00:00	2024-11-06T02:00:00	4	Temperatura máxima	13.9
109451	7	Sololá	702	San José Chacayá	5	Chacayá	7	Julio	2023-07-25T00:00:00	2024-11-06T02:00:00	3	Temperatura mínima	13.2
109452	7	Sololá	702	San José Chacayá	5	Chacayá	7	Julio	2023-07-25T00:00:00	2024-11-06T02:00:00	5	Humedad	92
109453	7	Sololá	702	San José Chacayá	5	Chacayá	7	Julio	2023-07-25T00:00:00	2024-11-06T02:00:00	6	Velocidad del viento	0
109454	7	Sololá	702	San José Chacayá	5	Chacayá	7	Julio	2023-07-25T00:00:00	2024-11-06T02:00:00	7	Dirección del viento	0
109455	7	Sololá	702	San José Chacayá	5	Chacayá	7	Julio	2023-07-25T00:00:00	2024-11-06T02:00:00	1	Precipitación	0
109456	7	Sololá	702	San José Chacayá	5	Chacayá	7	Julio	2023-07-25T00:00:00	2024-11-06T02:00:00	8	Radiación solar	0
109457	7	Sololá	702	San José Chacayá	5	Chacayá	7	Julio	2023-07-25T00:00:00	2024-11-06T03:00:00	2	Temperatura media	12.7
109458	7	Sololá	702	San José Chacayá	5	Chacayá	7	Julio	2023-07-25T00:00:00	2024-11-06T03:00:00	4	Temperatura máxima	13.3
109459	7	Sololá	702	San José Chacayá	5	Chacayá	7	Julio	2023-07-25T00:00:00	2024-11-06T03:00:00	3	Temperatura mínima	12.7
109460	7	Sololá	702	San José Chacayá	5	Chacayá	7	Julio	2023-07-25T00:00:00	2024-11-06T03:00:00	5	Humedad	90
109461	7	Sololá	702	San José Chacayá	5	Chacayá	7	Julio	2023-07-25T00:00:00	2024-11-06T03:00:00	6	Velocidad del viento	1.6
109462	7	Sololá	702	San José Chacayá	5	Chacayá	7	Julio	2023-07-25T00:00:00	2024-11-06T03:00:00	7	Dirección del viento	1.61
109463	7	Sololá	702	San José Chacayá	5	Chacayá	7	Julio	2023-07-25T00:00:00	2024-11-06T03:00:00	1	Precipitación	0
109464	7	Sololá	702	San José Chacayá	5	Chacayá	7	Julio	2023-07-25T00:00:00	2024-11-06T03:00:00	8	Radiación solar	0
109465	7	Sololá	702	San José Chacayá	5	Chacayá	7	Julio	2023-07-25T00:00:00	2024-11-06T04:00:00	2	Temperatura media	11.9
109466	7	Sololá	702	San José Chacayá	5	Chacayá	7	Julio	2023-07-25T00:00:00	2024-11-06T04:00:00	4	Temperatura máxima	12.7
109467	7	Sololá	702	San José Chacayá	5	Chacayá	7	Julio	2023-07-25T00:00:00	2024-11-06T04:00:00	3	Temperatura mínima	11.9
109468	7	Sololá	702	San José Chacayá	5	Chacayá	7	Julio	2023-07-25T00:00:00	2024-11-06T04:00:00	5	Humedad	92
109469	7	Sololá	702	San José Chacayá	5	Chacayá	7	Julio	2023-07-25T00:00:00	2024-11-06T04:00:00	6	Velocidad del viento	1.6
109470	7	Sololá	702	San José Chacayá	5	Chacayá	7	Julio	2023-07-25T00:00:00	2024-11-06T04:00:00	7	Dirección del viento	1.61
109471	7	Sololá	702	San José Chacayá	5	Chacayá	7	Julio	2023-07-25T00:00:00	2024-11-06T04:00:00	1	Precipitación	0
109472	7	Sololá	702	San José Chacayá	5	Chacayá	7	Julio	2023-07-25T00:00:00	2024-11-06T04:00:00	8	Radiación solar	0
109473	7	Sololá	702	San José Chacayá	5	Chacayá	7	Julio	2023-07-25T00:00:00	2024-11-06T05:00:00	2	Temperatura media	12.4
109474	7	Sololá	702	San José Chacayá	5	Chacayá	7	Julio	2023-07-25T00:00:00	2024-11-06T05:00:00	4	Temperatura máxima	12.4
109475	7	Sololá	702	San José Chacayá	5	Chacayá	7	Julio	2023-07-25T00:00:00	2024-11-06T05:00:00	3	Temperatura mínima	11.8
109476	7	Sololá	702	San José Chacayá	5	Chacayá	7	Julio	2023-07-25T00:00:00	2024-11-06T05:00:00	5	Humedad	89
109477	7	Sololá	702	San José Chacayá	5	Chacayá	7	Julio	2023-07-25T00:00:00	2024-11-06T05:00:00	6	Velocidad del viento	1.6
109478	7	Sololá	702	San José Chacayá	5	Chacayá	7	Julio	2023-07-25T00:00:00	2024-11-06T05:00:00	7	Dirección del viento	1.61
109479	7	Sololá	702	San José Chacayá	5	Chacayá	7	Julio	2023-07-25T00:00:00	2024-11-06T05:00:00	1	Precipitación	0
109480	7	Sololá	702	San José Chacayá	5	Chacayá	7	Julio	2023-07-25T00:00:00	2024-11-06T05:00:00	8	Radiación solar	0
109481	7	Sololá	702	San José Chacayá	5	Chacayá	7	Julio	2023-07-25T00:00:00	2024-11-06T06:00:00	2	Temperatura media	13
109482	7	Sololá	702	San José Chacayá	5	Chacayá	7	Julio	2023-07-25T00:00:00	2024-11-06T06:00:00	4	Temperatura máxima	13.9
109483	7	Sololá	702	San José Chacayá	5	Chacayá	7	Julio	2023-07-25T00:00:00	2024-11-06T06:00:00	3	Temperatura mínima	13
109484	7	Sololá	702	San José Chacayá	5	Chacayá	7	Julio	2023-07-25T00:00:00	2024-11-06T06:00:00	5	Humedad	85
109485	7	Sololá	702	San José Chacayá	5	Chacayá	7	Julio	2023-07-25T00:00:00	2024-11-06T06:00:00	6	Velocidad del viento	0
109486	7	Sololá	702	San José Chacayá	5	Chacayá	7	Julio	2023-07-25T00:00:00	2024-11-06T06:00:00	7	Dirección del viento	0
109487	7	Sololá	702	San José Chacayá	5	Chacayá	7	Julio	2023-07-25T00:00:00	2024-11-06T06:00:00	1	Precipitación	0
109488	7	Sololá	702	San José Chacayá	5	Chacayá	7	Julio	2023-07-25T00:00:00	2024-11-06T06:00:00	8	Radiación solar	2
109489	7	Sololá	702	San José Chacayá	5	Chacayá	7	Julio	2023-07-25T00:00:00	2024-11-06T07:00:00	2	Temperatura media	14.9
109490	7	Sololá	702	San José Chacayá	5	Chacayá	7	Julio	2023-07-25T00:00:00	2024-11-06T07:00:00	4	Temperatura máxima	14.9
109491	7	Sololá	702	San José Chacayá	5	Chacayá	7	Julio	2023-07-25T00:00:00	2024-11-06T07:00:00	3	Temperatura mínima	13
109492	7	Sololá	702	San José Chacayá	5	Chacayá	7	Julio	2023-07-25T00:00:00	2024-11-06T07:00:00	5	Humedad	83
109493	7	Sololá	702	San José Chacayá	5	Chacayá	7	Julio	2023-07-25T00:00:00	2024-11-06T07:00:00	6	Velocidad del viento	1.6
109494	7	Sololá	702	San José Chacayá	5	Chacayá	7	Julio	2023-07-25T00:00:00	2024-11-06T07:00:00	7	Dirección del viento	1.61
109495	7	Sololá	702	San José Chacayá	5	Chacayá	7	Julio	2023-07-25T00:00:00	2024-11-06T07:00:00	1	Precipitación	0
109496	7	Sololá	702	San José Chacayá	5	Chacayá	7	Julio	2023-07-25T00:00:00	2024-11-06T07:00:00	8	Radiación solar	26
109497	7	Sololá	702	San José Chacayá	5	Chacayá	7	Julio	2023-07-25T00:00:00	2024-11-06T08:00:00	2	Temperatura media	17.7
109498	7	Sololá	702	San José Chacayá	5	Chacayá	7	Julio	2023-07-25T00:00:00	2024-11-06T08:00:00	4	Temperatura máxima	17.7
109499	7	Sololá	702	San José Chacayá	5	Chacayá	7	Julio	2023-07-25T00:00:00	2024-11-06T08:00:00	3	Temperatura mínima	14.4
109500	7	Sololá	702	San José Chacayá	5	Chacayá	7	Julio	2023-07-25T00:00:00	2024-11-06T08:00:00	5	Humedad	67
109501	7	Sololá	702	San José Chacayá	5	Chacayá	7	Julio	2023-07-25T00:00:00	2024-11-06T08:00:00	6	Velocidad del viento	1.6
109502	7	Sololá	702	San José Chacayá	5	Chacayá	7	Julio	2023-07-25T00:00:00	2024-11-06T08:00:00	7	Dirección del viento	1.61
109503	7	Sololá	702	San José Chacayá	5	Chacayá	7	Julio	2023-07-25T00:00:00	2024-11-06T08:00:00	1	Precipitación	0
109504	7	Sololá	702	San José Chacayá	5	Chacayá	7	Julio	2023-07-25T00:00:00	2024-11-06T08:00:00	8	Radiación solar	94
109505	7	Sololá	702	San José Chacayá	5	Chacayá	7	Julio	2023-07-25T00:00:00	2024-11-06T09:00:00	2	Temperatura media	20.1
109506	7	Sololá	702	San José Chacayá	5	Chacayá	7	Julio	2023-07-25T00:00:00	2024-11-06T09:00:00	4	Temperatura máxima	20.1
109507	7	Sololá	702	San José Chacayá	5	Chacayá	7	Julio	2023-07-25T00:00:00	2024-11-06T09:00:00	3	Temperatura mínima	17.7
109508	7	Sololá	702	San José Chacayá	5	Chacayá	7	Julio	2023-07-25T00:00:00	2024-11-06T09:00:00	5	Humedad	64
109509	7	Sololá	702	San José Chacayá	5	Chacayá	7	Julio	2023-07-25T00:00:00	2024-11-06T09:00:00	6	Velocidad del viento	3.2
109510	7	Sololá	702	San José Chacayá	5	Chacayá	7	Julio	2023-07-25T00:00:00	2024-11-06T09:00:00	7	Dirección del viento	3.22
109511	7	Sololá	702	San José Chacayá	5	Chacayá	7	Julio	2023-07-25T00:00:00	2024-11-06T09:00:00	1	Precipitación	0
109512	7	Sololá	702	San José Chacayá	5	Chacayá	7	Julio	2023-07-25T00:00:00	2024-11-06T09:00:00	8	Radiación solar	442
109513	7	Sololá	702	San José Chacayá	5	Chacayá	7	Julio	2023-07-25T00:00:00	2024-11-06T10:00:00	2	Temperatura media	20.6
109514	7	Sololá	702	San José Chacayá	5	Chacayá	7	Julio	2023-07-25T00:00:00	2024-11-06T10:00:00	4	Temperatura máxima	20.7
109515	7	Sololá	702	San José Chacayá	5	Chacayá	7	Julio	2023-07-25T00:00:00	2024-11-06T10:00:00	3	Temperatura mínima	20
109516	7	Sololá	702	San José Chacayá	5	Chacayá	7	Julio	2023-07-25T00:00:00	2024-11-06T10:00:00	5	Humedad	61
109517	7	Sololá	702	San José Chacayá	5	Chacayá	7	Julio	2023-07-25T00:00:00	2024-11-06T10:00:00	6	Velocidad del viento	6.4
109518	7	Sololá	702	San José Chacayá	5	Chacayá	7	Julio	2023-07-25T00:00:00	2024-11-06T10:00:00	7	Dirección del viento	6.44
109519	7	Sololá	702	San José Chacayá	5	Chacayá	7	Julio	2023-07-25T00:00:00	2024-11-06T10:00:00	1	Precipitación	0
109520	7	Sololá	702	San José Chacayá	5	Chacayá	7	Julio	2023-07-25T00:00:00	2024-11-06T10:00:00	8	Radiación solar	717
109521	7	Sololá	702	San José Chacayá	5	Chacayá	7	Julio	2023-07-25T00:00:00	2024-11-06T11:00:00	2	Temperatura media	22.2
109522	7	Sololá	702	San José Chacayá	5	Chacayá	7	Julio	2023-07-25T00:00:00	2024-11-06T11:00:00	4	Temperatura máxima	22.4
109523	7	Sololá	702	San José Chacayá	5	Chacayá	7	Julio	2023-07-25T00:00:00	2024-11-06T11:00:00	3	Temperatura mínima	20.6
109524	7	Sololá	702	San José Chacayá	5	Chacayá	7	Julio	2023-07-25T00:00:00	2024-11-06T11:00:00	5	Humedad	50
109525	7	Sololá	702	San José Chacayá	5	Chacayá	7	Julio	2023-07-25T00:00:00	2024-11-06T11:00:00	6	Velocidad del viento	6.4
109526	7	Sololá	702	San José Chacayá	5	Chacayá	7	Julio	2023-07-25T00:00:00	2024-11-06T11:00:00	7	Dirección del viento	6.44
109527	7	Sololá	702	San José Chacayá	5	Chacayá	7	Julio	2023-07-25T00:00:00	2024-11-06T11:00:00	1	Precipitación	0
109528	7	Sololá	702	San José Chacayá	5	Chacayá	7	Julio	2023-07-25T00:00:00	2024-11-06T11:00:00	8	Radiación solar	909
109529	7	Sololá	702	San José Chacayá	5	Chacayá	7	Julio	2023-07-25T00:00:00	2024-11-06T12:00:00	2	Temperatura media	22.4
109530	7	Sololá	702	San José Chacayá	5	Chacayá	7	Julio	2023-07-25T00:00:00	2024-11-06T12:00:00	4	Temperatura máxima	22.8
109531	7	Sololá	702	San José Chacayá	5	Chacayá	7	Julio	2023-07-25T00:00:00	2024-11-06T12:00:00	3	Temperatura mínima	22.1
109532	7	Sololá	702	San José Chacayá	5	Chacayá	7	Julio	2023-07-25T00:00:00	2024-11-06T12:00:00	5	Humedad	48
109533	7	Sololá	702	San José Chacayá	5	Chacayá	7	Julio	2023-07-25T00:00:00	2024-11-06T12:00:00	6	Velocidad del viento	6.4
109534	7	Sololá	702	San José Chacayá	5	Chacayá	7	Julio	2023-07-25T00:00:00	2024-11-06T12:00:00	7	Dirección del viento	6.44
109535	7	Sololá	702	San José Chacayá	5	Chacayá	7	Julio	2023-07-25T00:00:00	2024-11-06T12:00:00	1	Precipitación	0
109536	7	Sololá	702	San José Chacayá	5	Chacayá	7	Julio	2023-07-25T00:00:00	2024-11-06T12:00:00	8	Radiación solar	982
109537	7	Sololá	702	San José Chacayá	5	Chacayá	7	Julio	2023-07-25T00:00:00	2024-11-06T13:00:00	2	Temperatura media	23.2
109538	7	Sololá	702	San José Chacayá	5	Chacayá	7	Julio	2023-07-25T00:00:00	2024-11-06T13:00:00	4	Temperatura máxima	23.6
109539	7	Sololá	702	San José Chacayá	5	Chacayá	7	Julio	2023-07-25T00:00:00	2024-11-06T13:00:00	3	Temperatura mínima	22.5
109540	7	Sololá	702	San José Chacayá	5	Chacayá	7	Julio	2023-07-25T00:00:00	2024-11-06T13:00:00	5	Humedad	45
109541	7	Sololá	702	San José Chacayá	5	Chacayá	7	Julio	2023-07-25T00:00:00	2024-11-06T13:00:00	6	Velocidad del viento	6.4
109542	7	Sololá	702	San José Chacayá	5	Chacayá	7	Julio	2023-07-25T00:00:00	2024-11-06T13:00:00	7	Dirección del viento	6.44
109543	7	Sololá	702	San José Chacayá	5	Chacayá	7	Julio	2023-07-25T00:00:00	2024-11-06T13:00:00	1	Precipitación	0.2
109544	7	Sololá	702	San José Chacayá	5	Chacayá	7	Julio	2023-07-25T00:00:00	2024-11-06T13:00:00	8	Radiación solar	1002
109545	7	Sololá	702	San José Chacayá	5	Chacayá	7	Julio	2023-07-25T00:00:00	2024-11-06T14:00:00	2	Temperatura media	23.6
109546	7	Sololá	702	San José Chacayá	5	Chacayá	7	Julio	2023-07-25T00:00:00	2024-11-06T14:00:00	4	Temperatura máxima	24
109547	7	Sololá	702	San José Chacayá	5	Chacayá	7	Julio	2023-07-25T00:00:00	2024-11-06T14:00:00	3	Temperatura mínima	23.3
109548	7	Sololá	702	San José Chacayá	5	Chacayá	7	Julio	2023-07-25T00:00:00	2024-11-06T14:00:00	5	Humedad	43
109549	7	Sololá	702	San José Chacayá	5	Chacayá	7	Julio	2023-07-25T00:00:00	2024-11-06T14:00:00	6	Velocidad del viento	4.8
109550	7	Sololá	702	San José Chacayá	5	Chacayá	7	Julio	2023-07-25T00:00:00	2024-11-06T14:00:00	7	Dirección del viento	4.83
109551	7	Sololá	702	San José Chacayá	5	Chacayá	7	Julio	2023-07-25T00:00:00	2024-11-06T14:00:00	1	Precipitación	0
109552	7	Sololá	702	San José Chacayá	5	Chacayá	7	Julio	2023-07-25T00:00:00	2024-11-06T14:00:00	8	Radiación solar	957
109553	7	Sololá	702	San José Chacayá	5	Chacayá	7	Julio	2023-07-25T00:00:00	2024-11-06T15:00:00	2	Temperatura media	23.5
109554	7	Sololá	702	San José Chacayá	5	Chacayá	7	Julio	2023-07-25T00:00:00	2024-11-06T15:00:00	4	Temperatura máxima	23.7
109555	7	Sololá	702	San José Chacayá	5	Chacayá	7	Julio	2023-07-25T00:00:00	2024-11-06T15:00:00	3	Temperatura mínima	23.1
109556	7	Sololá	702	San José Chacayá	5	Chacayá	7	Julio	2023-07-25T00:00:00	2024-11-06T15:00:00	5	Humedad	50
109557	7	Sololá	702	San José Chacayá	5	Chacayá	7	Julio	2023-07-25T00:00:00	2024-11-06T15:00:00	6	Velocidad del viento	4.8
109558	7	Sololá	702	San José Chacayá	5	Chacayá	7	Julio	2023-07-25T00:00:00	2024-11-06T15:00:00	7	Dirección del viento	4.83
109559	7	Sololá	702	San José Chacayá	5	Chacayá	7	Julio	2023-07-25T00:00:00	2024-11-06T15:00:00	1	Precipitación	0
109560	7	Sololá	702	San José Chacayá	5	Chacayá	7	Julio	2023-07-25T00:00:00	2024-11-06T15:00:00	8	Radiación solar	846
109561	7	Sololá	702	San José Chacayá	5	Chacayá	7	Julio	2023-07-25T00:00:00	2024-11-06T16:00:00	2	Temperatura media	21.9
109562	7	Sololá	702	San José Chacayá	5	Chacayá	7	Julio	2023-07-25T00:00:00	2024-11-06T16:00:00	4	Temperatura máxima	23.4
109563	7	Sololá	702	San José Chacayá	5	Chacayá	7	Julio	2023-07-25T00:00:00	2024-11-06T16:00:00	3	Temperatura mínima	21.8
109564	7	Sololá	702	San José Chacayá	5	Chacayá	7	Julio	2023-07-25T00:00:00	2024-11-06T16:00:00	5	Humedad	56
109565	7	Sololá	702	San José Chacayá	5	Chacayá	7	Julio	2023-07-25T00:00:00	2024-11-06T16:00:00	6	Velocidad del viento	4.8
109566	7	Sololá	702	San José Chacayá	5	Chacayá	7	Julio	2023-07-25T00:00:00	2024-11-06T16:00:00	7	Dirección del viento	4.83
109567	7	Sololá	702	San José Chacayá	5	Chacayá	7	Julio	2023-07-25T00:00:00	2024-11-06T16:00:00	1	Precipitación	0
109568	7	Sololá	702	San José Chacayá	5	Chacayá	7	Julio	2023-07-25T00:00:00	2024-11-06T16:00:00	8	Radiación solar	630
109569	7	Sololá	702	San José Chacayá	5	Chacayá	7	Julio	2023-07-25T00:00:00	2024-11-06T17:00:00	2	Temperatura media	19.8
109570	7	Sololá	702	San José Chacayá	5	Chacayá	7	Julio	2023-07-25T00:00:00	2024-11-06T17:00:00	4	Temperatura máxima	22
109571	7	Sololá	702	San José Chacayá	5	Chacayá	7	Julio	2023-07-25T00:00:00	2024-11-06T17:00:00	3	Temperatura mínima	19.8
109572	7	Sololá	702	San José Chacayá	5	Chacayá	7	Julio	2023-07-25T00:00:00	2024-11-06T17:00:00	5	Humedad	60
109573	7	Sololá	702	San José Chacayá	5	Chacayá	7	Julio	2023-07-25T00:00:00	2024-11-06T17:00:00	6	Velocidad del viento	4.8
109574	7	Sololá	702	San José Chacayá	5	Chacayá	7	Julio	2023-07-25T00:00:00	2024-11-06T17:00:00	7	Dirección del viento	4.83
109575	7	Sololá	702	San José Chacayá	5	Chacayá	7	Julio	2023-07-25T00:00:00	2024-11-06T17:00:00	1	Precipitación	0
109576	7	Sololá	702	San José Chacayá	5	Chacayá	7	Julio	2023-07-25T00:00:00	2024-11-06T17:00:00	8	Radiación solar	271
109577	7	Sololá	702	San José Chacayá	5	Chacayá	7	Julio	2023-07-25T00:00:00	2024-11-06T18:00:00	2	Temperatura media	18.2
109578	7	Sololá	702	San José Chacayá	5	Chacayá	7	Julio	2023-07-25T00:00:00	2024-11-06T18:00:00	4	Temperatura máxima	19.8
109579	7	Sololá	702	San José Chacayá	5	Chacayá	7	Julio	2023-07-25T00:00:00	2024-11-06T18:00:00	3	Temperatura mínima	18.2
109580	7	Sololá	702	San José Chacayá	5	Chacayá	7	Julio	2023-07-25T00:00:00	2024-11-06T18:00:00	5	Humedad	67
109581	7	Sololá	702	San José Chacayá	5	Chacayá	7	Julio	2023-07-25T00:00:00	2024-11-06T18:00:00	6	Velocidad del viento	4.8
109582	7	Sololá	702	San José Chacayá	5	Chacayá	7	Julio	2023-07-25T00:00:00	2024-11-06T18:00:00	7	Dirección del viento	4.83
109583	7	Sololá	702	San José Chacayá	5	Chacayá	7	Julio	2023-07-25T00:00:00	2024-11-06T18:00:00	1	Precipitación	0
109584	7	Sololá	702	San José Chacayá	5	Chacayá	7	Julio	2023-07-25T00:00:00	2024-11-06T18:00:00	8	Radiación solar	48
109585	7	Sololá	702	San José Chacayá	5	Chacayá	7	Julio	2023-07-25T00:00:00	2024-11-06T19:00:00	2	Temperatura media	16.7
109586	7	Sololá	702	San José Chacayá	5	Chacayá	7	Julio	2023-07-25T00:00:00	2024-11-06T19:00:00	4	Temperatura máxima	18.2
109587	7	Sololá	702	San José Chacayá	5	Chacayá	7	Julio	2023-07-25T00:00:00	2024-11-06T19:00:00	3	Temperatura mínima	16.7
109588	7	Sololá	702	San José Chacayá	5	Chacayá	7	Julio	2023-07-25T00:00:00	2024-11-06T19:00:00	5	Humedad	75
109589	7	Sololá	702	San José Chacayá	5	Chacayá	7	Julio	2023-07-25T00:00:00	2024-11-06T19:00:00	6	Velocidad del viento	3.2
109590	7	Sololá	702	San José Chacayá	5	Chacayá	7	Julio	2023-07-25T00:00:00	2024-11-06T19:00:00	7	Dirección del viento	3.22
109591	7	Sololá	702	San José Chacayá	5	Chacayá	7	Julio	2023-07-25T00:00:00	2024-11-06T19:00:00	1	Precipitación	0
109592	7	Sololá	702	San José Chacayá	5	Chacayá	7	Julio	2023-07-25T00:00:00	2024-11-06T19:00:00	8	Radiación solar	0
109593	7	Sololá	702	San José Chacayá	5	Chacayá	7	Julio	2023-07-25T00:00:00	2024-11-06T20:00:00	2	Temperatura media	16.2
109594	7	Sololá	702	San José Chacayá	5	Chacayá	7	Julio	2023-07-25T00:00:00	2024-11-06T20:00:00	4	Temperatura máxima	16.7
109595	7	Sololá	702	San José Chacayá	5	Chacayá	7	Julio	2023-07-25T00:00:00	2024-11-06T20:00:00	3	Temperatura mínima	16.2
109596	7	Sololá	702	San José Chacayá	5	Chacayá	7	Julio	2023-07-25T00:00:00	2024-11-06T20:00:00	5	Humedad	78
109597	7	Sololá	702	San José Chacayá	5	Chacayá	7	Julio	2023-07-25T00:00:00	2024-11-06T20:00:00	6	Velocidad del viento	3.2
109598	7	Sololá	702	San José Chacayá	5	Chacayá	7	Julio	2023-07-25T00:00:00	2024-11-06T20:00:00	7	Dirección del viento	3.22
109599	7	Sololá	702	San José Chacayá	5	Chacayá	7	Julio	2023-07-25T00:00:00	2024-11-06T20:00:00	1	Precipitación	0
109600	7	Sololá	702	San José Chacayá	5	Chacayá	7	Julio	2023-07-25T00:00:00	2024-11-06T20:00:00	8	Radiación solar	0
109601	7	Sololá	702	San José Chacayá	5	Chacayá	7	Julio	2023-07-25T00:00:00	2024-11-06T21:00:00	2	Temperatura media	15.9
109602	7	Sololá	702	San José Chacayá	5	Chacayá	7	Julio	2023-07-25T00:00:00	2024-11-06T21:00:00	4	Temperatura máxima	16.2
109603	7	Sololá	702	San José Chacayá	5	Chacayá	7	Julio	2023-07-25T00:00:00	2024-11-06T21:00:00	3	Temperatura mínima	15.7
109604	7	Sololá	702	San José Chacayá	5	Chacayá	7	Julio	2023-07-25T00:00:00	2024-11-06T21:00:00	5	Humedad	77
109605	7	Sololá	702	San José Chacayá	5	Chacayá	7	Julio	2023-07-25T00:00:00	2024-11-06T21:00:00	6	Velocidad del viento	4.8
109606	7	Sololá	702	San José Chacayá	5	Chacayá	7	Julio	2023-07-25T00:00:00	2024-11-06T21:00:00	7	Dirección del viento	4.83
109607	7	Sololá	702	San José Chacayá	5	Chacayá	7	Julio	2023-07-25T00:00:00	2024-11-06T21:00:00	1	Precipitación	0
109608	7	Sololá	702	San José Chacayá	5	Chacayá	7	Julio	2023-07-25T00:00:00	2024-11-06T21:00:00	8	Radiación solar	0
109609	7	Sololá	702	San José Chacayá	5	Chacayá	7	Julio	2023-07-25T00:00:00	2024-11-06T22:00:00	2	Temperatura media	15.1
109610	7	Sololá	702	San José Chacayá	5	Chacayá	7	Julio	2023-07-25T00:00:00	2024-11-06T22:00:00	4	Temperatura máxima	15.9
109611	7	Sololá	702	San José Chacayá	5	Chacayá	7	Julio	2023-07-25T00:00:00	2024-11-06T22:00:00	3	Temperatura mínima	15.1
109612	7	Sololá	702	San José Chacayá	5	Chacayá	7	Julio	2023-07-25T00:00:00	2024-11-06T22:00:00	5	Humedad	74
109613	7	Sololá	702	San José Chacayá	5	Chacayá	7	Julio	2023-07-25T00:00:00	2024-11-06T22:00:00	6	Velocidad del viento	4.8
109614	7	Sololá	702	San José Chacayá	5	Chacayá	7	Julio	2023-07-25T00:00:00	2024-11-06T22:00:00	7	Dirección del viento	4.83
109615	7	Sololá	702	San José Chacayá	5	Chacayá	7	Julio	2023-07-25T00:00:00	2024-11-06T22:00:00	1	Precipitación	0
109616	7	Sololá	702	San José Chacayá	5	Chacayá	7	Julio	2023-07-25T00:00:00	2024-11-06T22:00:00	8	Radiación solar	0
109617	7	Sololá	702	San José Chacayá	5	Chacayá	7	Julio	2023-07-25T00:00:00	2024-11-06T23:00:00	2	Temperatura media	14.6
109618	7	Sololá	702	San José Chacayá	5	Chacayá	7	Julio	2023-07-25T00:00:00	2024-11-06T23:00:00	4	Temperatura máxima	15.3
109619	7	Sololá	702	San José Chacayá	5	Chacayá	7	Julio	2023-07-25T00:00:00	2024-11-06T23:00:00	3	Temperatura mínima	14.6
109620	7	Sololá	702	San José Chacayá	5	Chacayá	7	Julio	2023-07-25T00:00:00	2024-11-06T23:00:00	5	Humedad	64
109621	7	Sololá	702	San José Chacayá	5	Chacayá	7	Julio	2023-07-25T00:00:00	2024-11-06T23:00:00	6	Velocidad del viento	3.2
109622	7	Sololá	702	San José Chacayá	5	Chacayá	7	Julio	2023-07-25T00:00:00	2024-11-06T23:00:00	7	Dirección del viento	3.22
109623	7	Sololá	702	San José Chacayá	5	Chacayá	7	Julio	2023-07-25T00:00:00	2024-11-06T23:00:00	1	Precipitación	0
109624	7	Sololá	702	San José Chacayá	5	Chacayá	7	Julio	2023-07-25T00:00:00	2024-11-06T23:00:00	8	Radiación solar	0
109625	7	Sololá	702	San José Chacayá	5	Chacayá	7	Julio	2023-07-26T00:00:00	2024-11-06T00:00:00	2	Temperatura media	12.7
109626	7	Sololá	702	San José Chacayá	5	Chacayá	7	Julio	2023-07-26T00:00:00	2024-11-06T00:00:00	4	Temperatura máxima	14.9
109627	7	Sololá	702	San José Chacayá	5	Chacayá	7	Julio	2023-07-26T00:00:00	2024-11-06T00:00:00	3	Temperatura mínima	12.5
109628	7	Sololá	702	San José Chacayá	5	Chacayá	7	Julio	2023-07-26T00:00:00	2024-11-06T00:00:00	5	Humedad	72
109629	7	Sololá	702	San José Chacayá	5	Chacayá	7	Julio	2023-07-26T00:00:00	2024-11-06T00:00:00	6	Velocidad del viento	1.6
109630	7	Sololá	702	San José Chacayá	5	Chacayá	7	Julio	2023-07-26T00:00:00	2024-11-06T00:00:00	7	Dirección del viento	1.61
109631	7	Sololá	702	San José Chacayá	5	Chacayá	7	Julio	2023-07-26T00:00:00	2024-11-06T00:00:00	1	Precipitación	0
109632	7	Sololá	702	San José Chacayá	5	Chacayá	7	Julio	2023-07-26T00:00:00	2024-11-06T00:00:00	8	Radiación solar	0
109633	7	Sololá	702	San José Chacayá	5	Chacayá	7	Julio	2023-07-26T00:00:00	2024-11-06T01:00:00	2	Temperatura media	13.7
109634	7	Sololá	702	San José Chacayá	5	Chacayá	7	Julio	2023-07-26T00:00:00	2024-11-06T01:00:00	4	Temperatura máxima	14.2
109635	7	Sololá	702	San José Chacayá	5	Chacayá	7	Julio	2023-07-26T00:00:00	2024-11-06T01:00:00	3	Temperatura mínima	13.7
109636	7	Sololá	702	San José Chacayá	5	Chacayá	7	Julio	2023-07-26T00:00:00	2024-11-06T01:00:00	5	Humedad	68
109637	7	Sololá	702	San José Chacayá	5	Chacayá	7	Julio	2023-07-26T00:00:00	2024-11-06T01:00:00	6	Velocidad del viento	3.2
109638	7	Sololá	702	San José Chacayá	5	Chacayá	7	Julio	2023-07-26T00:00:00	2024-11-06T01:00:00	7	Dirección del viento	3.22
109639	7	Sololá	702	San José Chacayá	5	Chacayá	7	Julio	2023-07-26T00:00:00	2024-11-06T01:00:00	1	Precipitación	0
109640	7	Sololá	702	San José Chacayá	5	Chacayá	7	Julio	2023-07-26T00:00:00	2024-11-06T01:00:00	8	Radiación solar	0
109641	7	Sololá	702	San José Chacayá	5	Chacayá	7	Julio	2023-07-26T00:00:00	2024-11-06T02:00:00	2	Temperatura media	13.2
109642	7	Sololá	702	San José Chacayá	5	Chacayá	7	Julio	2023-07-26T00:00:00	2024-11-06T02:00:00	4	Temperatura máxima	13.7
109643	7	Sololá	702	San José Chacayá	5	Chacayá	7	Julio	2023-07-26T00:00:00	2024-11-06T02:00:00	3	Temperatura mínima	13.2
109644	7	Sololá	702	San José Chacayá	5	Chacayá	7	Julio	2023-07-26T00:00:00	2024-11-06T02:00:00	5	Humedad	69
109645	7	Sololá	702	San José Chacayá	5	Chacayá	7	Julio	2023-07-26T00:00:00	2024-11-06T02:00:00	6	Velocidad del viento	0
109646	7	Sololá	702	San José Chacayá	5	Chacayá	7	Julio	2023-07-26T00:00:00	2024-11-06T02:00:00	7	Dirección del viento	0
109647	7	Sololá	702	San José Chacayá	5	Chacayá	7	Julio	2023-07-26T00:00:00	2024-11-06T02:00:00	1	Precipitación	0
109648	7	Sololá	702	San José Chacayá	5	Chacayá	7	Julio	2023-07-26T00:00:00	2024-11-06T02:00:00	8	Radiación solar	0
109649	7	Sololá	702	San José Chacayá	5	Chacayá	7	Julio	2023-07-26T00:00:00	2024-11-06T03:00:00	2	Temperatura media	12.9
109650	7	Sololá	702	San José Chacayá	5	Chacayá	7	Julio	2023-07-26T00:00:00	2024-11-06T03:00:00	4	Temperatura máxima	13.2
109651	7	Sololá	702	San José Chacayá	5	Chacayá	7	Julio	2023-07-26T00:00:00	2024-11-06T03:00:00	3	Temperatura mínima	12.9
109652	7	Sololá	702	San José Chacayá	5	Chacayá	7	Julio	2023-07-26T00:00:00	2024-11-06T03:00:00	5	Humedad	71
109653	7	Sololá	702	San José Chacayá	5	Chacayá	7	Julio	2023-07-26T00:00:00	2024-11-06T03:00:00	6	Velocidad del viento	1.6
109654	7	Sololá	702	San José Chacayá	5	Chacayá	7	Julio	2023-07-26T00:00:00	2024-11-06T03:00:00	7	Dirección del viento	1.61
109655	7	Sololá	702	San José Chacayá	5	Chacayá	7	Julio	2023-07-26T00:00:00	2024-11-06T03:00:00	1	Precipitación	0
109656	7	Sololá	702	San José Chacayá	5	Chacayá	7	Julio	2023-07-26T00:00:00	2024-11-06T03:00:00	8	Radiación solar	0
109657	7	Sololá	702	San José Chacayá	5	Chacayá	7	Julio	2023-07-26T00:00:00	2024-11-06T04:00:00	2	Temperatura media	12.6
109658	7	Sololá	702	San José Chacayá	5	Chacayá	7	Julio	2023-07-26T00:00:00	2024-11-06T04:00:00	4	Temperatura máxima	12.9
109659	7	Sololá	702	San José Chacayá	5	Chacayá	7	Julio	2023-07-26T00:00:00	2024-11-06T04:00:00	3	Temperatura mínima	12.6
109660	7	Sololá	702	San José Chacayá	5	Chacayá	7	Julio	2023-07-26T00:00:00	2024-11-06T04:00:00	5	Humedad	71
109661	7	Sololá	702	San José Chacayá	5	Chacayá	7	Julio	2023-07-26T00:00:00	2024-11-06T04:00:00	6	Velocidad del viento	0
109662	7	Sololá	702	San José Chacayá	5	Chacayá	7	Julio	2023-07-26T00:00:00	2024-11-06T04:00:00	7	Dirección del viento	0
109663	7	Sololá	702	San José Chacayá	5	Chacayá	7	Julio	2023-07-26T00:00:00	2024-11-06T04:00:00	1	Precipitación	0
109664	7	Sololá	702	San José Chacayá	5	Chacayá	7	Julio	2023-07-26T00:00:00	2024-11-06T04:00:00	8	Radiación solar	0
109665	7	Sololá	702	San José Chacayá	5	Chacayá	7	Julio	2023-07-26T00:00:00	2024-11-06T05:00:00	2	Temperatura media	12.4
109666	7	Sololá	702	San José Chacayá	5	Chacayá	7	Julio	2023-07-26T00:00:00	2024-11-06T05:00:00	4	Temperatura máxima	12.6
109667	7	Sololá	702	San José Chacayá	5	Chacayá	7	Julio	2023-07-26T00:00:00	2024-11-06T05:00:00	3	Temperatura mínima	12.4
109668	7	Sololá	702	San José Chacayá	5	Chacayá	7	Julio	2023-07-26T00:00:00	2024-11-06T05:00:00	5	Humedad	70
109669	7	Sololá	702	San José Chacayá	5	Chacayá	7	Julio	2023-07-26T00:00:00	2024-11-06T05:00:00	6	Velocidad del viento	0
109670	7	Sololá	702	San José Chacayá	5	Chacayá	7	Julio	2023-07-26T00:00:00	2024-11-06T05:00:00	7	Dirección del viento	0
109671	7	Sololá	702	San José Chacayá	5	Chacayá	7	Julio	2023-07-26T00:00:00	2024-11-06T05:00:00	1	Precipitación	0
109672	7	Sololá	702	San José Chacayá	5	Chacayá	7	Julio	2023-07-26T00:00:00	2024-11-06T05:00:00	8	Radiación solar	0
109673	7	Sololá	702	San José Chacayá	5	Chacayá	7	Julio	2023-07-26T00:00:00	2024-11-06T06:00:00	2	Temperatura media	12.3
109674	7	Sololá	702	San José Chacayá	5	Chacayá	7	Julio	2023-07-26T00:00:00	2024-11-06T06:00:00	4	Temperatura máxima	12.5
109675	7	Sololá	702	San José Chacayá	5	Chacayá	7	Julio	2023-07-26T00:00:00	2024-11-06T06:00:00	3	Temperatura mínima	12.3
109676	7	Sololá	702	San José Chacayá	5	Chacayá	7	Julio	2023-07-26T00:00:00	2024-11-06T06:00:00	5	Humedad	72
109677	7	Sololá	702	San José Chacayá	5	Chacayá	7	Julio	2023-07-26T00:00:00	2024-11-06T06:00:00	6	Velocidad del viento	0
109678	7	Sololá	702	San José Chacayá	5	Chacayá	7	Julio	2023-07-26T00:00:00	2024-11-06T06:00:00	7	Dirección del viento	0
109679	7	Sololá	702	San José Chacayá	5	Chacayá	7	Julio	2023-07-26T00:00:00	2024-11-06T06:00:00	1	Precipitación	0
109680	7	Sololá	702	San José Chacayá	5	Chacayá	7	Julio	2023-07-26T00:00:00	2024-11-06T06:00:00	8	Radiación solar	2
109681	7	Sololá	702	San José Chacayá	5	Chacayá	7	Julio	2023-07-26T00:00:00	2024-11-06T07:00:00	2	Temperatura media	12.9
109682	7	Sololá	702	San José Chacayá	5	Chacayá	7	Julio	2023-07-26T00:00:00	2024-11-06T07:00:00	4	Temperatura máxima	12.9
109683	7	Sololá	702	San José Chacayá	5	Chacayá	7	Julio	2023-07-26T00:00:00	2024-11-06T07:00:00	3	Temperatura mínima	12.1
109684	7	Sololá	702	San José Chacayá	5	Chacayá	7	Julio	2023-07-26T00:00:00	2024-11-06T07:00:00	5	Humedad	69
109685	7	Sololá	702	San José Chacayá	5	Chacayá	7	Julio	2023-07-26T00:00:00	2024-11-06T07:00:00	6	Velocidad del viento	1.6
109686	7	Sololá	702	San José Chacayá	5	Chacayá	7	Julio	2023-07-26T00:00:00	2024-11-06T07:00:00	7	Dirección del viento	1.61
109687	7	Sololá	702	San José Chacayá	5	Chacayá	7	Julio	2023-07-26T00:00:00	2024-11-06T07:00:00	1	Precipitación	0
109688	7	Sololá	702	San José Chacayá	5	Chacayá	7	Julio	2023-07-26T00:00:00	2024-11-06T07:00:00	8	Radiación solar	51
109689	7	Sololá	702	San José Chacayá	5	Chacayá	7	Julio	2023-07-26T00:00:00	2024-11-06T08:00:00	2	Temperatura media	14.6
109690	7	Sololá	702	San José Chacayá	5	Chacayá	7	Julio	2023-07-26T00:00:00	2024-11-06T08:00:00	4	Temperatura máxima	14.7
109691	7	Sololá	702	San José Chacayá	5	Chacayá	7	Julio	2023-07-26T00:00:00	2024-11-06T08:00:00	3	Temperatura mínima	12.9
109692	7	Sololá	702	San José Chacayá	5	Chacayá	7	Julio	2023-07-26T00:00:00	2024-11-06T08:00:00	5	Humedad	79
109693	7	Sololá	702	San José Chacayá	5	Chacayá	7	Julio	2023-07-26T00:00:00	2024-11-06T08:00:00	6	Velocidad del viento	0
109694	7	Sololá	702	San José Chacayá	5	Chacayá	7	Julio	2023-07-26T00:00:00	2024-11-06T08:00:00	7	Dirección del viento	0
109695	7	Sololá	702	San José Chacayá	5	Chacayá	7	Julio	2023-07-26T00:00:00	2024-11-06T08:00:00	1	Precipitación	0
109696	7	Sololá	702	San José Chacayá	5	Chacayá	7	Julio	2023-07-26T00:00:00	2024-11-06T08:00:00	8	Radiación solar	89
109697	7	Sololá	702	San José Chacayá	5	Chacayá	7	Julio	2023-07-26T00:00:00	2024-11-06T09:00:00	2	Temperatura media	20.4
109698	7	Sololá	702	San José Chacayá	5	Chacayá	7	Julio	2023-07-26T00:00:00	2024-11-06T09:00:00	4	Temperatura máxima	20.4
109699	7	Sololá	702	San José Chacayá	5	Chacayá	7	Julio	2023-07-26T00:00:00	2024-11-06T09:00:00	3	Temperatura mínima	18.7
109700	7	Sololá	702	San José Chacayá	5	Chacayá	7	Julio	2023-07-26T00:00:00	2024-11-06T09:00:00	5	Humedad	55
109701	7	Sololá	702	San José Chacayá	5	Chacayá	7	Julio	2023-07-26T00:00:00	2024-11-06T09:00:00	6	Velocidad del viento	6.4
109702	7	Sololá	702	San José Chacayá	5	Chacayá	7	Julio	2023-07-26T00:00:00	2024-11-06T09:00:00	7	Dirección del viento	6.44
109703	7	Sololá	702	San José Chacayá	5	Chacayá	7	Julio	2023-07-26T00:00:00	2024-11-06T09:00:00	1	Precipitación	0
109704	7	Sololá	702	San José Chacayá	5	Chacayá	7	Julio	2023-07-26T00:00:00	2024-11-06T09:00:00	8	Radiación solar	489
109705	7	Sololá	702	San José Chacayá	5	Chacayá	7	Julio	2023-07-26T00:00:00	2024-11-06T10:00:00	2	Temperatura media	22.8
109706	7	Sololá	702	San José Chacayá	5	Chacayá	7	Julio	2023-07-26T00:00:00	2024-11-06T10:00:00	4	Temperatura máxima	22.9
109707	7	Sololá	702	San José Chacayá	5	Chacayá	7	Julio	2023-07-26T00:00:00	2024-11-06T10:00:00	3	Temperatura mínima	20.4
109708	7	Sololá	702	San José Chacayá	5	Chacayá	7	Julio	2023-07-26T00:00:00	2024-11-06T10:00:00	5	Humedad	54
109709	7	Sololá	702	San José Chacayá	5	Chacayá	7	Julio	2023-07-26T00:00:00	2024-11-06T10:00:00	6	Velocidad del viento	4.8
109710	7	Sololá	702	San José Chacayá	5	Chacayá	7	Julio	2023-07-26T00:00:00	2024-11-06T10:00:00	7	Dirección del viento	4.83
109711	7	Sololá	702	San José Chacayá	5	Chacayá	7	Julio	2023-07-26T00:00:00	2024-11-06T10:00:00	1	Precipitación	0
109712	7	Sololá	702	San José Chacayá	5	Chacayá	7	Julio	2023-07-26T00:00:00	2024-11-06T10:00:00	8	Radiación solar	767
109713	7	Sololá	702	San José Chacayá	5	Chacayá	7	Julio	2023-07-26T00:00:00	2024-11-06T11:00:00	2	Temperatura media	23.4
109714	7	Sololá	702	San José Chacayá	5	Chacayá	7	Julio	2023-07-26T00:00:00	2024-11-06T11:00:00	4	Temperatura máxima	23.7
109715	7	Sololá	702	San José Chacayá	5	Chacayá	7	Julio	2023-07-26T00:00:00	2024-11-06T11:00:00	3	Temperatura mínima	22.6
109716	7	Sololá	702	San José Chacayá	5	Chacayá	7	Julio	2023-07-26T00:00:00	2024-11-06T11:00:00	5	Humedad	51
109717	7	Sololá	702	San José Chacayá	5	Chacayá	7	Julio	2023-07-26T00:00:00	2024-11-06T11:00:00	6	Velocidad del viento	6.4
109718	7	Sololá	702	San José Chacayá	5	Chacayá	7	Julio	2023-07-26T00:00:00	2024-11-06T11:00:00	7	Dirección del viento	6.44
109719	7	Sololá	702	San José Chacayá	5	Chacayá	7	Julio	2023-07-26T00:00:00	2024-11-06T11:00:00	1	Precipitación	0
109720	7	Sololá	702	San José Chacayá	5	Chacayá	7	Julio	2023-07-26T00:00:00	2024-11-06T11:00:00	8	Radiación solar	914
109721	7	Sololá	702	San José Chacayá	5	Chacayá	7	Julio	2023-07-26T00:00:00	2024-11-06T12:00:00	2	Temperatura media	24.2
109722	7	Sololá	702	San José Chacayá	5	Chacayá	7	Julio	2023-07-26T00:00:00	2024-11-06T12:00:00	4	Temperatura máxima	24.4
109723	7	Sololá	702	San José Chacayá	5	Chacayá	7	Julio	2023-07-26T00:00:00	2024-11-06T12:00:00	3	Temperatura mínima	23.4
109724	7	Sololá	702	San José Chacayá	5	Chacayá	7	Julio	2023-07-26T00:00:00	2024-11-06T12:00:00	5	Humedad	47
109725	7	Sololá	702	San José Chacayá	5	Chacayá	7	Julio	2023-07-26T00:00:00	2024-11-06T12:00:00	6	Velocidad del viento	6.4
109726	7	Sololá	702	San José Chacayá	5	Chacayá	7	Julio	2023-07-26T00:00:00	2024-11-06T12:00:00	7	Dirección del viento	6.44
109727	7	Sololá	702	San José Chacayá	5	Chacayá	7	Julio	2023-07-26T00:00:00	2024-11-06T12:00:00	1	Precipitación	0
109728	7	Sololá	702	San José Chacayá	5	Chacayá	7	Julio	2023-07-26T00:00:00	2024-11-06T12:00:00	8	Radiación solar	1002
109729	7	Sololá	702	San José Chacayá	5	Chacayá	7	Julio	2023-07-26T00:00:00	2024-11-06T13:00:00	2	Temperatura media	23.7
109730	7	Sololá	702	San José Chacayá	5	Chacayá	7	Julio	2023-07-26T00:00:00	2024-11-06T13:00:00	4	Temperatura máxima	24.3
109731	7	Sololá	702	San José Chacayá	5	Chacayá	7	Julio	2023-07-26T00:00:00	2024-11-06T13:00:00	3	Temperatura mínima	23.7
109732	7	Sololá	702	San José Chacayá	5	Chacayá	7	Julio	2023-07-26T00:00:00	2024-11-06T13:00:00	5	Humedad	50
109733	7	Sololá	702	San José Chacayá	5	Chacayá	7	Julio	2023-07-26T00:00:00	2024-11-06T13:00:00	6	Velocidad del viento	6.4
109734	7	Sololá	702	San José Chacayá	5	Chacayá	7	Julio	2023-07-26T00:00:00	2024-11-06T13:00:00	7	Dirección del viento	6.44
109735	7	Sololá	702	San José Chacayá	5	Chacayá	7	Julio	2023-07-26T00:00:00	2024-11-06T13:00:00	1	Precipitación	0
109736	7	Sololá	702	San José Chacayá	5	Chacayá	7	Julio	2023-07-26T00:00:00	2024-11-06T13:00:00	8	Radiación solar	974
109737	7	Sololá	702	San José Chacayá	5	Chacayá	7	Julio	2023-07-26T00:00:00	2024-11-06T14:00:00	2	Temperatura media	23.7
109738	7	Sololá	702	San José Chacayá	5	Chacayá	7	Julio	2023-07-26T00:00:00	2024-11-06T14:00:00	4	Temperatura máxima	24.1
109739	7	Sololá	702	San José Chacayá	5	Chacayá	7	Julio	2023-07-26T00:00:00	2024-11-06T14:00:00	3	Temperatura mínima	23.4
109740	7	Sololá	702	San José Chacayá	5	Chacayá	7	Julio	2023-07-26T00:00:00	2024-11-06T14:00:00	5	Humedad	53
109741	7	Sololá	702	San José Chacayá	5	Chacayá	7	Julio	2023-07-26T00:00:00	2024-11-06T14:00:00	6	Velocidad del viento	6.4
109742	7	Sololá	702	San José Chacayá	5	Chacayá	7	Julio	2023-07-26T00:00:00	2024-11-06T14:00:00	7	Dirección del viento	6.44
109743	7	Sololá	702	San José Chacayá	5	Chacayá	7	Julio	2023-07-26T00:00:00	2024-11-06T14:00:00	1	Precipitación	0
109744	7	Sololá	702	San José Chacayá	5	Chacayá	7	Julio	2023-07-26T00:00:00	2024-11-06T14:00:00	8	Radiación solar	857
109745	7	Sololá	702	San José Chacayá	5	Chacayá	7	Julio	2023-07-26T00:00:00	2024-11-06T15:00:00	2	Temperatura media	22.3
109746	7	Sololá	702	San José Chacayá	5	Chacayá	7	Julio	2023-07-26T00:00:00	2024-11-06T15:00:00	4	Temperatura máxima	23.7
109747	7	Sololá	702	San José Chacayá	5	Chacayá	7	Julio	2023-07-26T00:00:00	2024-11-06T15:00:00	3	Temperatura mínima	22.3
109748	7	Sololá	702	San José Chacayá	5	Chacayá	7	Julio	2023-07-26T00:00:00	2024-11-06T15:00:00	5	Humedad	58
109749	7	Sololá	702	San José Chacayá	5	Chacayá	7	Julio	2023-07-26T00:00:00	2024-11-06T15:00:00	6	Velocidad del viento	6.4
109750	7	Sololá	702	San José Chacayá	5	Chacayá	7	Julio	2023-07-26T00:00:00	2024-11-06T15:00:00	7	Dirección del viento	6.44
109751	7	Sololá	702	San José Chacayá	5	Chacayá	7	Julio	2023-07-26T00:00:00	2024-11-06T15:00:00	1	Precipitación	0
109752	7	Sololá	702	San José Chacayá	5	Chacayá	7	Julio	2023-07-26T00:00:00	2024-11-06T15:00:00	8	Radiación solar	872
109753	7	Sololá	702	San José Chacayá	5	Chacayá	7	Julio	2023-07-26T00:00:00	2024-11-06T16:00:00	2	Temperatura media	20.8
109754	7	Sololá	702	San José Chacayá	5	Chacayá	7	Julio	2023-07-26T00:00:00	2024-11-06T16:00:00	4	Temperatura máxima	22.4
109755	7	Sololá	702	San José Chacayá	5	Chacayá	7	Julio	2023-07-26T00:00:00	2024-11-06T16:00:00	3	Temperatura mínima	20.6
109756	7	Sololá	702	San José Chacayá	5	Chacayá	7	Julio	2023-07-26T00:00:00	2024-11-06T16:00:00	5	Humedad	63
109757	7	Sololá	702	San José Chacayá	5	Chacayá	7	Julio	2023-07-26T00:00:00	2024-11-06T16:00:00	6	Velocidad del viento	6.4
109758	7	Sololá	702	San José Chacayá	5	Chacayá	7	Julio	2023-07-26T00:00:00	2024-11-06T16:00:00	7	Dirección del viento	6.44
109759	7	Sololá	702	San José Chacayá	5	Chacayá	7	Julio	2023-07-26T00:00:00	2024-11-06T16:00:00	1	Precipitación	0
109760	7	Sololá	702	San José Chacayá	5	Chacayá	7	Julio	2023-07-26T00:00:00	2024-11-06T16:00:00	8	Radiación solar	206
109761	7	Sololá	702	San José Chacayá	5	Chacayá	7	Julio	2023-07-26T00:00:00	2024-11-06T17:00:00	2	Temperatura media	19.4
109762	7	Sololá	702	San José Chacayá	5	Chacayá	7	Julio	2023-07-26T00:00:00	2024-11-06T17:00:00	4	Temperatura máxima	20.9
109763	7	Sololá	702	San José Chacayá	5	Chacayá	7	Julio	2023-07-26T00:00:00	2024-11-06T17:00:00	3	Temperatura mínima	19.2
109764	7	Sololá	702	San José Chacayá	5	Chacayá	7	Julio	2023-07-26T00:00:00	2024-11-06T17:00:00	5	Humedad	65
109765	7	Sololá	702	San José Chacayá	5	Chacayá	7	Julio	2023-07-26T00:00:00	2024-11-06T17:00:00	6	Velocidad del viento	4.8
109766	7	Sololá	702	San José Chacayá	5	Chacayá	7	Julio	2023-07-26T00:00:00	2024-11-06T17:00:00	7	Dirección del viento	4.83
109767	7	Sololá	702	San José Chacayá	5	Chacayá	7	Julio	2023-07-26T00:00:00	2024-11-06T17:00:00	1	Precipitación	0
109768	7	Sololá	702	San José Chacayá	5	Chacayá	7	Julio	2023-07-26T00:00:00	2024-11-06T17:00:00	8	Radiación solar	129
109769	7	Sololá	702	San José Chacayá	5	Chacayá	7	Julio	2023-07-26T00:00:00	2024-11-06T18:00:00	2	Temperatura media	17.1
109770	7	Sololá	702	San José Chacayá	5	Chacayá	7	Julio	2023-07-26T00:00:00	2024-11-06T18:00:00	4	Temperatura máxima	19.4
109771	7	Sololá	702	San José Chacayá	5	Chacayá	7	Julio	2023-07-26T00:00:00	2024-11-06T18:00:00	3	Temperatura mínima	17.1
109772	7	Sololá	702	San José Chacayá	5	Chacayá	7	Julio	2023-07-26T00:00:00	2024-11-06T18:00:00	5	Humedad	73
109773	7	Sololá	702	San José Chacayá	5	Chacayá	7	Julio	2023-07-26T00:00:00	2024-11-06T18:00:00	6	Velocidad del viento	4.8
109774	7	Sololá	702	San José Chacayá	5	Chacayá	7	Julio	2023-07-26T00:00:00	2024-11-06T18:00:00	7	Dirección del viento	4.83
109775	7	Sololá	702	San José Chacayá	5	Chacayá	7	Julio	2023-07-26T00:00:00	2024-11-06T18:00:00	1	Precipitación	0
109776	7	Sololá	702	San José Chacayá	5	Chacayá	7	Julio	2023-07-26T00:00:00	2024-11-06T18:00:00	8	Radiación solar	92
109777	7	Sololá	702	San José Chacayá	5	Chacayá	7	Julio	2023-07-26T00:00:00	2024-11-06T19:00:00	2	Temperatura media	16.3
109778	7	Sololá	702	San José Chacayá	5	Chacayá	7	Julio	2023-07-26T00:00:00	2024-11-06T19:00:00	4	Temperatura máxima	17.1
109779	7	Sololá	702	San José Chacayá	5	Chacayá	7	Julio	2023-07-26T00:00:00	2024-11-06T19:00:00	3	Temperatura mínima	16.3
109780	7	Sololá	702	San José Chacayá	5	Chacayá	7	Julio	2023-07-26T00:00:00	2024-11-06T19:00:00	5	Humedad	75
109781	7	Sololá	702	San José Chacayá	5	Chacayá	7	Julio	2023-07-26T00:00:00	2024-11-06T19:00:00	6	Velocidad del viento	3.2
109782	7	Sololá	702	San José Chacayá	5	Chacayá	7	Julio	2023-07-26T00:00:00	2024-11-06T19:00:00	7	Dirección del viento	3.22
109783	7	Sololá	702	San José Chacayá	5	Chacayá	7	Julio	2023-07-26T00:00:00	2024-11-06T19:00:00	1	Precipitación	0
109784	7	Sololá	702	San José Chacayá	5	Chacayá	7	Julio	2023-07-26T00:00:00	2024-11-06T19:00:00	8	Radiación solar	0
109785	7	Sololá	702	San José Chacayá	5	Chacayá	7	Julio	2023-07-26T00:00:00	2024-11-06T20:00:00	2	Temperatura media	14.7
109786	7	Sololá	702	San José Chacayá	5	Chacayá	7	Julio	2023-07-26T00:00:00	2024-11-06T20:00:00	4	Temperatura máxima	16.3
109787	7	Sololá	702	San José Chacayá	5	Chacayá	7	Julio	2023-07-26T00:00:00	2024-11-06T20:00:00	3	Temperatura mínima	14.7
109788	7	Sololá	702	San José Chacayá	5	Chacayá	7	Julio	2023-07-26T00:00:00	2024-11-06T20:00:00	5	Humedad	78
109789	7	Sololá	702	San José Chacayá	5	Chacayá	7	Julio	2023-07-26T00:00:00	2024-11-06T20:00:00	6	Velocidad del viento	1.6
109790	7	Sololá	702	San José Chacayá	5	Chacayá	7	Julio	2023-07-26T00:00:00	2024-11-06T20:00:00	7	Dirección del viento	1.61
109791	7	Sololá	702	San José Chacayá	5	Chacayá	7	Julio	2023-07-26T00:00:00	2024-11-06T20:00:00	1	Precipitación	0
109792	7	Sololá	702	San José Chacayá	5	Chacayá	7	Julio	2023-07-26T00:00:00	2024-11-06T20:00:00	8	Radiación solar	0
109793	7	Sololá	702	San José Chacayá	5	Chacayá	7	Julio	2023-07-26T00:00:00	2024-11-06T21:00:00	2	Temperatura media	15.2
109794	7	Sololá	702	San José Chacayá	5	Chacayá	7	Julio	2023-07-26T00:00:00	2024-11-06T21:00:00	4	Temperatura máxima	15.3
109795	7	Sololá	702	San José Chacayá	5	Chacayá	7	Julio	2023-07-26T00:00:00	2024-11-06T21:00:00	3	Temperatura mínima	14
109796	7	Sololá	702	San José Chacayá	5	Chacayá	7	Julio	2023-07-26T00:00:00	2024-11-06T21:00:00	5	Humedad	76
109797	7	Sololá	702	San José Chacayá	5	Chacayá	7	Julio	2023-07-26T00:00:00	2024-11-06T21:00:00	6	Velocidad del viento	1.6
109798	7	Sololá	702	San José Chacayá	5	Chacayá	7	Julio	2023-07-26T00:00:00	2024-11-06T21:00:00	7	Dirección del viento	1.61
109799	7	Sololá	702	San José Chacayá	5	Chacayá	7	Julio	2023-07-26T00:00:00	2024-11-06T21:00:00	1	Precipitación	0
109800	7	Sololá	702	San José Chacayá	5	Chacayá	7	Julio	2023-07-26T00:00:00	2024-11-06T21:00:00	8	Radiación solar	0
109801	7	Sololá	702	San José Chacayá	5	Chacayá	7	Julio	2023-07-26T00:00:00	2024-11-06T22:00:00	2	Temperatura media	15.2
109802	7	Sololá	702	San José Chacayá	5	Chacayá	7	Julio	2023-07-26T00:00:00	2024-11-06T22:00:00	4	Temperatura máxima	15.4
109803	7	Sololá	702	San José Chacayá	5	Chacayá	7	Julio	2023-07-26T00:00:00	2024-11-06T22:00:00	3	Temperatura mínima	15.2
109804	7	Sololá	702	San José Chacayá	5	Chacayá	7	Julio	2023-07-26T00:00:00	2024-11-06T22:00:00	5	Humedad	79
109805	7	Sololá	702	San José Chacayá	5	Chacayá	7	Julio	2023-07-26T00:00:00	2024-11-06T22:00:00	6	Velocidad del viento	3.2
109806	7	Sololá	702	San José Chacayá	5	Chacayá	7	Julio	2023-07-26T00:00:00	2024-11-06T22:00:00	7	Dirección del viento	3.22
109807	7	Sololá	702	San José Chacayá	5	Chacayá	7	Julio	2023-07-26T00:00:00	2024-11-06T22:00:00	1	Precipitación	0
109808	7	Sololá	702	San José Chacayá	5	Chacayá	7	Julio	2023-07-26T00:00:00	2024-11-06T22:00:00	8	Radiación solar	0
109809	7	Sololá	702	San José Chacayá	5	Chacayá	7	Julio	2023-07-26T00:00:00	2024-11-06T23:00:00	2	Temperatura media	14.8
109810	7	Sololá	702	San José Chacayá	5	Chacayá	7	Julio	2023-07-26T00:00:00	2024-11-06T23:00:00	4	Temperatura máxima	15.3
109811	7	Sololá	702	San José Chacayá	5	Chacayá	7	Julio	2023-07-26T00:00:00	2024-11-06T23:00:00	3	Temperatura mínima	14.7
109812	7	Sololá	702	San José Chacayá	5	Chacayá	7	Julio	2023-07-26T00:00:00	2024-11-06T23:00:00	5	Humedad	78
109813	7	Sololá	702	San José Chacayá	5	Chacayá	7	Julio	2023-07-26T00:00:00	2024-11-06T23:00:00	6	Velocidad del viento	3.2
109814	7	Sololá	702	San José Chacayá	5	Chacayá	7	Julio	2023-07-26T00:00:00	2024-11-06T23:00:00	7	Dirección del viento	3.22
109815	7	Sololá	702	San José Chacayá	5	Chacayá	7	Julio	2023-07-26T00:00:00	2024-11-06T23:00:00	1	Precipitación	0
109816	7	Sololá	702	San José Chacayá	5	Chacayá	7	Julio	2023-07-26T00:00:00	2024-11-06T23:00:00	8	Radiación solar	0
109817	7	Sololá	702	San José Chacayá	5	Chacayá	7	Julio	2023-07-27T00:00:00	2024-11-06T00:00:00	2	Temperatura media	14.2
109818	7	Sololá	702	San José Chacayá	5	Chacayá	7	Julio	2023-07-27T00:00:00	2024-11-06T00:00:00	4	Temperatura máxima	14.8
109819	7	Sololá	702	San José Chacayá	5	Chacayá	7	Julio	2023-07-27T00:00:00	2024-11-06T00:00:00	3	Temperatura mínima	14.2
109820	7	Sololá	702	San José Chacayá	5	Chacayá	7	Julio	2023-07-27T00:00:00	2024-11-06T00:00:00	5	Humedad	81
109821	7	Sololá	702	San José Chacayá	5	Chacayá	7	Julio	2023-07-27T00:00:00	2024-11-06T00:00:00	6	Velocidad del viento	1.6
109822	7	Sololá	702	San José Chacayá	5	Chacayá	7	Julio	2023-07-27T00:00:00	2024-11-06T00:00:00	7	Dirección del viento	1.61
109823	7	Sololá	702	San José Chacayá	5	Chacayá	7	Julio	2023-07-27T00:00:00	2024-11-06T00:00:00	1	Precipitación	0
109824	7	Sololá	702	San José Chacayá	5	Chacayá	7	Julio	2023-07-27T00:00:00	2024-11-06T00:00:00	8	Radiación solar	0
109825	7	Sololá	702	San José Chacayá	5	Chacayá	7	Julio	2023-07-27T00:00:00	2024-11-06T01:00:00	2	Temperatura media	13.8
109826	7	Sololá	702	San José Chacayá	5	Chacayá	7	Julio	2023-07-27T00:00:00	2024-11-06T01:00:00	4	Temperatura máxima	14.2
109827	7	Sololá	702	San José Chacayá	5	Chacayá	7	Julio	2023-07-27T00:00:00	2024-11-06T01:00:00	3	Temperatura mínima	13.8
109828	7	Sololá	702	San José Chacayá	5	Chacayá	7	Julio	2023-07-27T00:00:00	2024-11-06T01:00:00	5	Humedad	75
109829	7	Sololá	702	San José Chacayá	5	Chacayá	7	Julio	2023-07-27T00:00:00	2024-11-06T01:00:00	6	Velocidad del viento	0
109830	7	Sololá	702	San José Chacayá	5	Chacayá	7	Julio	2023-07-27T00:00:00	2024-11-06T01:00:00	7	Dirección del viento	0
109831	7	Sololá	702	San José Chacayá	5	Chacayá	7	Julio	2023-07-27T00:00:00	2024-11-06T01:00:00	1	Precipitación	0
109832	7	Sololá	702	San José Chacayá	5	Chacayá	7	Julio	2023-07-27T00:00:00	2024-11-06T01:00:00	8	Radiación solar	0
109833	7	Sololá	702	San José Chacayá	5	Chacayá	7	Julio	2023-07-27T00:00:00	2024-11-06T02:00:00	2	Temperatura media	13.5
109834	7	Sololá	702	San José Chacayá	5	Chacayá	7	Julio	2023-07-27T00:00:00	2024-11-06T02:00:00	4	Temperatura máxima	13.8
109835	7	Sololá	702	San José Chacayá	5	Chacayá	7	Julio	2023-07-27T00:00:00	2024-11-06T02:00:00	3	Temperatura mínima	13.5
109836	7	Sololá	702	San José Chacayá	5	Chacayá	7	Julio	2023-07-27T00:00:00	2024-11-06T02:00:00	5	Humedad	73
109837	7	Sololá	702	San José Chacayá	5	Chacayá	7	Julio	2023-07-27T00:00:00	2024-11-06T02:00:00	6	Velocidad del viento	0
109838	7	Sololá	702	San José Chacayá	5	Chacayá	7	Julio	2023-07-27T00:00:00	2024-11-06T02:00:00	7	Dirección del viento	0
109839	7	Sololá	702	San José Chacayá	5	Chacayá	7	Julio	2023-07-27T00:00:00	2024-11-06T02:00:00	1	Precipitación	0
109840	7	Sololá	702	San José Chacayá	5	Chacayá	7	Julio	2023-07-27T00:00:00	2024-11-06T02:00:00	8	Radiación solar	0
109841	7	Sololá	702	San José Chacayá	5	Chacayá	7	Julio	2023-07-27T00:00:00	2024-11-06T03:00:00	2	Temperatura media	13.3
109842	7	Sololá	702	San José Chacayá	5	Chacayá	7	Julio	2023-07-27T00:00:00	2024-11-06T03:00:00	4	Temperatura máxima	13.5
109843	7	Sololá	702	San José Chacayá	5	Chacayá	7	Julio	2023-07-27T00:00:00	2024-11-06T03:00:00	3	Temperatura mínima	13.3
109844	7	Sololá	702	San José Chacayá	5	Chacayá	7	Julio	2023-07-27T00:00:00	2024-11-06T03:00:00	5	Humedad	72
109845	7	Sololá	702	San José Chacayá	5	Chacayá	7	Julio	2023-07-27T00:00:00	2024-11-06T03:00:00	6	Velocidad del viento	0
109846	7	Sololá	702	San José Chacayá	5	Chacayá	7	Julio	2023-07-27T00:00:00	2024-11-06T03:00:00	7	Dirección del viento	0
109847	7	Sololá	702	San José Chacayá	5	Chacayá	7	Julio	2023-07-27T00:00:00	2024-11-06T03:00:00	1	Precipitación	0
109848	7	Sololá	702	San José Chacayá	5	Chacayá	7	Julio	2023-07-27T00:00:00	2024-11-06T03:00:00	8	Radiación solar	0
109849	7	Sololá	702	San José Chacayá	5	Chacayá	7	Julio	2023-07-27T00:00:00	2024-11-06T04:00:00	2	Temperatura media	13.2
109850	7	Sololá	702	San José Chacayá	5	Chacayá	7	Julio	2023-07-27T00:00:00	2024-11-06T04:00:00	4	Temperatura máxima	13.3
109851	7	Sololá	702	San José Chacayá	5	Chacayá	7	Julio	2023-07-27T00:00:00	2024-11-06T04:00:00	3	Temperatura mínima	13.1
109852	7	Sololá	702	San José Chacayá	5	Chacayá	7	Julio	2023-07-27T00:00:00	2024-11-06T04:00:00	5	Humedad	72
109853	7	Sololá	702	San José Chacayá	5	Chacayá	7	Julio	2023-07-27T00:00:00	2024-11-06T04:00:00	6	Velocidad del viento	0
109854	7	Sololá	702	San José Chacayá	5	Chacayá	7	Julio	2023-07-27T00:00:00	2024-11-06T04:00:00	7	Dirección del viento	0
109855	7	Sololá	702	San José Chacayá	5	Chacayá	7	Julio	2023-07-27T00:00:00	2024-11-06T04:00:00	1	Precipitación	0
109856	7	Sololá	702	San José Chacayá	5	Chacayá	7	Julio	2023-07-27T00:00:00	2024-11-06T04:00:00	8	Radiación solar	0
109857	7	Sololá	702	San José Chacayá	5	Chacayá	7	Julio	2023-07-27T00:00:00	2024-11-06T05:00:00	2	Temperatura media	12.4
109858	7	Sololá	702	San José Chacayá	5	Chacayá	7	Julio	2023-07-27T00:00:00	2024-11-06T05:00:00	4	Temperatura máxima	13.2
109859	7	Sololá	702	San José Chacayá	5	Chacayá	7	Julio	2023-07-27T00:00:00	2024-11-06T05:00:00	3	Temperatura mínima	12.4
109860	7	Sololá	702	San José Chacayá	5	Chacayá	7	Julio	2023-07-27T00:00:00	2024-11-06T05:00:00	5	Humedad	78
109861	7	Sololá	702	San José Chacayá	5	Chacayá	7	Julio	2023-07-27T00:00:00	2024-11-06T05:00:00	6	Velocidad del viento	1.6
109862	7	Sololá	702	San José Chacayá	5	Chacayá	7	Julio	2023-07-27T00:00:00	2024-11-06T05:00:00	7	Dirección del viento	1.61
109863	7	Sololá	702	San José Chacayá	5	Chacayá	7	Julio	2023-07-27T00:00:00	2024-11-06T05:00:00	1	Precipitación	0
109864	7	Sololá	702	San José Chacayá	5	Chacayá	7	Julio	2023-07-27T00:00:00	2024-11-06T05:00:00	8	Radiación solar	0
109865	7	Sololá	702	San José Chacayá	5	Chacayá	7	Julio	2023-07-27T00:00:00	2024-11-06T06:00:00	2	Temperatura media	11.7
109866	7	Sololá	702	San José Chacayá	5	Chacayá	7	Julio	2023-07-27T00:00:00	2024-11-06T06:00:00	4	Temperatura máxima	12.4
109867	7	Sololá	702	San José Chacayá	5	Chacayá	7	Julio	2023-07-27T00:00:00	2024-11-06T06:00:00	3	Temperatura mínima	11.7
109868	7	Sololá	702	San José Chacayá	5	Chacayá	7	Julio	2023-07-27T00:00:00	2024-11-06T06:00:00	5	Humedad	76
109869	7	Sololá	702	San José Chacayá	5	Chacayá	7	Julio	2023-07-27T00:00:00	2024-11-06T06:00:00	6	Velocidad del viento	1.6
109870	7	Sololá	702	San José Chacayá	5	Chacayá	7	Julio	2023-07-27T00:00:00	2024-11-06T06:00:00	7	Dirección del viento	1.61
109871	7	Sololá	702	San José Chacayá	5	Chacayá	7	Julio	2023-07-27T00:00:00	2024-11-06T06:00:00	1	Precipitación	0
109872	7	Sololá	702	San José Chacayá	5	Chacayá	7	Julio	2023-07-27T00:00:00	2024-11-06T06:00:00	8	Radiación solar	3
109873	7	Sololá	702	San José Chacayá	5	Chacayá	7	Julio	2023-07-27T00:00:00	2024-11-06T07:00:00	2	Temperatura media	13.5
109874	7	Sololá	702	San José Chacayá	5	Chacayá	7	Julio	2023-07-27T00:00:00	2024-11-06T07:00:00	4	Temperatura máxima	13.5
109875	7	Sololá	702	San José Chacayá	5	Chacayá	7	Julio	2023-07-27T00:00:00	2024-11-06T07:00:00	3	Temperatura mínima	11.7
109876	7	Sololá	702	San José Chacayá	5	Chacayá	7	Julio	2023-07-27T00:00:00	2024-11-06T07:00:00	5	Humedad	83
109877	7	Sololá	702	San José Chacayá	5	Chacayá	7	Julio	2023-07-27T00:00:00	2024-11-06T07:00:00	6	Velocidad del viento	1.6
109878	7	Sololá	702	San José Chacayá	5	Chacayá	7	Julio	2023-07-27T00:00:00	2024-11-06T07:00:00	7	Dirección del viento	1.61
109879	7	Sololá	702	San José Chacayá	5	Chacayá	7	Julio	2023-07-27T00:00:00	2024-11-06T07:00:00	1	Precipitación	0
109880	7	Sololá	702	San José Chacayá	5	Chacayá	7	Julio	2023-07-27T00:00:00	2024-11-06T07:00:00	8	Radiación solar	34
109881	7	Sololá	702	San José Chacayá	5	Chacayá	7	Julio	2023-07-27T00:00:00	2024-11-06T08:00:00	2	Temperatura media	15.3
109882	7	Sololá	702	San José Chacayá	5	Chacayá	7	Julio	2023-07-27T00:00:00	2024-11-06T08:00:00	4	Temperatura máxima	15.3
109883	7	Sololá	702	San José Chacayá	5	Chacayá	7	Julio	2023-07-27T00:00:00	2024-11-06T08:00:00	3	Temperatura mínima	13.5
109884	7	Sololá	702	San José Chacayá	5	Chacayá	7	Julio	2023-07-27T00:00:00	2024-11-06T08:00:00	5	Humedad	77
109885	7	Sololá	702	San José Chacayá	5	Chacayá	7	Julio	2023-07-27T00:00:00	2024-11-06T08:00:00	6	Velocidad del viento	4.8
109886	7	Sololá	702	San José Chacayá	5	Chacayá	7	Julio	2023-07-27T00:00:00	2024-11-06T08:00:00	7	Dirección del viento	4.83
109887	7	Sololá	702	San José Chacayá	5	Chacayá	7	Julio	2023-07-27T00:00:00	2024-11-06T08:00:00	1	Precipitación	0
109888	7	Sololá	702	San José Chacayá	5	Chacayá	7	Julio	2023-07-27T00:00:00	2024-11-06T08:00:00	8	Radiación solar	74
109889	7	Sololá	702	San José Chacayá	5	Chacayá	7	Julio	2023-07-27T00:00:00	2024-11-06T09:00:00	2	Temperatura media	19.7
109890	7	Sololá	702	San José Chacayá	5	Chacayá	7	Julio	2023-07-27T00:00:00	2024-11-06T09:00:00	4	Temperatura máxima	19.8
109891	7	Sololá	702	San José Chacayá	5	Chacayá	7	Julio	2023-07-27T00:00:00	2024-11-06T09:00:00	3	Temperatura mínima	18.3
109892	7	Sololá	702	San José Chacayá	5	Chacayá	7	Julio	2023-07-27T00:00:00	2024-11-06T09:00:00	5	Humedad	67
109893	7	Sololá	702	San José Chacayá	5	Chacayá	7	Julio	2023-07-27T00:00:00	2024-11-06T09:00:00	6	Velocidad del viento	6.4
109894	7	Sololá	702	San José Chacayá	5	Chacayá	7	Julio	2023-07-27T00:00:00	2024-11-06T09:00:00	7	Dirección del viento	6.44
109895	7	Sololá	702	San José Chacayá	5	Chacayá	7	Julio	2023-07-27T00:00:00	2024-11-06T09:00:00	1	Precipitación	0
109896	7	Sololá	702	San José Chacayá	5	Chacayá	7	Julio	2023-07-27T00:00:00	2024-11-06T09:00:00	8	Radiación solar	687
109897	7	Sololá	702	San José Chacayá	5	Chacayá	7	Julio	2023-07-27T00:00:00	2024-11-06T10:00:00	2	Temperatura media	21
109898	7	Sololá	702	San José Chacayá	5	Chacayá	7	Julio	2023-07-27T00:00:00	2024-11-06T10:00:00	4	Temperatura máxima	21.4
109899	7	Sololá	702	San José Chacayá	5	Chacayá	7	Julio	2023-07-27T00:00:00	2024-11-06T10:00:00	3	Temperatura mínima	19.7
109900	7	Sololá	702	San José Chacayá	5	Chacayá	7	Julio	2023-07-27T00:00:00	2024-11-06T10:00:00	5	Humedad	62
109901	7	Sololá	702	San José Chacayá	5	Chacayá	7	Julio	2023-07-27T00:00:00	2024-11-06T10:00:00	6	Velocidad del viento	4.8
109902	7	Sololá	702	San José Chacayá	5	Chacayá	7	Julio	2023-07-27T00:00:00	2024-11-06T10:00:00	7	Dirección del viento	4.83
109903	7	Sololá	702	San José Chacayá	5	Chacayá	7	Julio	2023-07-27T00:00:00	2024-11-06T10:00:00	1	Precipitación	0
109904	7	Sololá	702	San José Chacayá	5	Chacayá	7	Julio	2023-07-27T00:00:00	2024-11-06T10:00:00	8	Radiación solar	839
109905	7	Sololá	702	San José Chacayá	5	Chacayá	7	Julio	2023-07-27T00:00:00	2024-11-06T11:00:00	2	Temperatura media	21.6
109906	7	Sololá	702	San José Chacayá	5	Chacayá	7	Julio	2023-07-27T00:00:00	2024-11-06T11:00:00	4	Temperatura máxima	22.1
109907	7	Sololá	702	San José Chacayá	5	Chacayá	7	Julio	2023-07-27T00:00:00	2024-11-06T11:00:00	3	Temperatura mínima	20.8
109908	7	Sololá	702	San José Chacayá	5	Chacayá	7	Julio	2023-07-27T00:00:00	2024-11-06T11:00:00	5	Humedad	59
109909	7	Sololá	702	San José Chacayá	5	Chacayá	7	Julio	2023-07-27T00:00:00	2024-11-06T11:00:00	6	Velocidad del viento	6.4
109910	7	Sololá	702	San José Chacayá	5	Chacayá	7	Julio	2023-07-27T00:00:00	2024-11-06T11:00:00	7	Dirección del viento	6.44
109911	7	Sololá	702	San José Chacayá	5	Chacayá	7	Julio	2023-07-27T00:00:00	2024-11-06T11:00:00	1	Precipitación	0
109912	7	Sololá	702	San José Chacayá	5	Chacayá	7	Julio	2023-07-27T00:00:00	2024-11-06T11:00:00	8	Radiación solar	957
109913	7	Sololá	702	San José Chacayá	5	Chacayá	7	Julio	2023-07-27T00:00:00	2024-11-06T12:00:00	2	Temperatura media	22.9
109914	7	Sololá	702	San José Chacayá	5	Chacayá	7	Julio	2023-07-27T00:00:00	2024-11-06T12:00:00	4	Temperatura máxima	23.2
109915	7	Sololá	702	San José Chacayá	5	Chacayá	7	Julio	2023-07-27T00:00:00	2024-11-06T12:00:00	3	Temperatura mínima	21.6
109916	7	Sololá	702	San José Chacayá	5	Chacayá	7	Julio	2023-07-27T00:00:00	2024-11-06T12:00:00	5	Humedad	56
109917	7	Sololá	702	San José Chacayá	5	Chacayá	7	Julio	2023-07-27T00:00:00	2024-11-06T12:00:00	6	Velocidad del viento	6.4
109918	7	Sololá	702	San José Chacayá	5	Chacayá	7	Julio	2023-07-27T00:00:00	2024-11-06T12:00:00	7	Dirección del viento	6.44
109919	7	Sololá	702	San José Chacayá	5	Chacayá	7	Julio	2023-07-27T00:00:00	2024-11-06T12:00:00	1	Precipitación	0
109920	7	Sololá	702	San José Chacayá	5	Chacayá	7	Julio	2023-07-27T00:00:00	2024-11-06T12:00:00	8	Radiación solar	1028
109921	7	Sololá	702	San José Chacayá	5	Chacayá	7	Julio	2023-07-27T00:00:00	2024-11-06T13:00:00	2	Temperatura media	22.7
109922	7	Sololá	702	San José Chacayá	5	Chacayá	7	Julio	2023-07-27T00:00:00	2024-11-06T13:00:00	4	Temperatura máxima	23.4
109923	7	Sololá	702	San José Chacayá	5	Chacayá	7	Julio	2023-07-27T00:00:00	2024-11-06T13:00:00	3	Temperatura mínima	22.1
109924	7	Sololá	702	San José Chacayá	5	Chacayá	7	Julio	2023-07-27T00:00:00	2024-11-06T13:00:00	5	Humedad	57
109925	7	Sololá	702	San José Chacayá	5	Chacayá	7	Julio	2023-07-27T00:00:00	2024-11-06T13:00:00	6	Velocidad del viento	4.8
109926	7	Sololá	702	San José Chacayá	5	Chacayá	7	Julio	2023-07-27T00:00:00	2024-11-06T13:00:00	7	Dirección del viento	4.83
109927	7	Sololá	702	San José Chacayá	5	Chacayá	7	Julio	2023-07-27T00:00:00	2024-11-06T13:00:00	1	Precipitación	0
109928	7	Sololá	702	San José Chacayá	5	Chacayá	7	Julio	2023-07-27T00:00:00	2024-11-06T13:00:00	8	Radiación solar	911
109929	7	Sololá	702	San José Chacayá	5	Chacayá	7	Julio	2023-07-27T00:00:00	2024-11-06T14:00:00	2	Temperatura media	23.5
109930	7	Sololá	702	San José Chacayá	5	Chacayá	7	Julio	2023-07-27T00:00:00	2024-11-06T14:00:00	4	Temperatura máxima	23.8
109931	7	Sololá	702	San José Chacayá	5	Chacayá	7	Julio	2023-07-27T00:00:00	2024-11-06T14:00:00	3	Temperatura mínima	22.6
109932	7	Sololá	702	San José Chacayá	5	Chacayá	7	Julio	2023-07-27T00:00:00	2024-11-06T14:00:00	5	Humedad	52
109933	7	Sololá	702	San José Chacayá	5	Chacayá	7	Julio	2023-07-27T00:00:00	2024-11-06T14:00:00	6	Velocidad del viento	4.8
109934	7	Sololá	702	San José Chacayá	5	Chacayá	7	Julio	2023-07-27T00:00:00	2024-11-06T14:00:00	7	Dirección del viento	4.83
109935	7	Sololá	702	San José Chacayá	5	Chacayá	7	Julio	2023-07-27T00:00:00	2024-11-06T14:00:00	1	Precipitación	0
109936	7	Sololá	702	San José Chacayá	5	Chacayá	7	Julio	2023-07-27T00:00:00	2024-11-06T14:00:00	8	Radiación solar	840
109937	7	Sololá	702	San José Chacayá	5	Chacayá	7	Julio	2023-07-27T00:00:00	2024-11-06T15:00:00	2	Temperatura media	23.6
109938	7	Sololá	702	San José Chacayá	5	Chacayá	7	Julio	2023-07-27T00:00:00	2024-11-06T15:00:00	4	Temperatura máxima	23.9
109939	7	Sololá	702	San José Chacayá	5	Chacayá	7	Julio	2023-07-27T00:00:00	2024-11-06T15:00:00	3	Temperatura mínima	22.8
109940	7	Sololá	702	San José Chacayá	5	Chacayá	7	Julio	2023-07-27T00:00:00	2024-11-06T15:00:00	5	Humedad	51
109941	7	Sololá	702	San José Chacayá	5	Chacayá	7	Julio	2023-07-27T00:00:00	2024-11-06T15:00:00	6	Velocidad del viento	4.8
109942	7	Sololá	702	San José Chacayá	5	Chacayá	7	Julio	2023-07-27T00:00:00	2024-11-06T15:00:00	7	Dirección del viento	4.83
109943	7	Sololá	702	San José Chacayá	5	Chacayá	7	Julio	2023-07-27T00:00:00	2024-11-06T15:00:00	1	Precipitación	0
109944	7	Sololá	702	San José Chacayá	5	Chacayá	7	Julio	2023-07-27T00:00:00	2024-11-06T15:00:00	8	Radiación solar	721
109945	7	Sololá	702	San José Chacayá	5	Chacayá	7	Julio	2023-07-27T00:00:00	2024-11-06T16:00:00	2	Temperatura media	22
109946	7	Sololá	702	San José Chacayá	5	Chacayá	7	Julio	2023-07-27T00:00:00	2024-11-06T16:00:00	4	Temperatura máxima	23.6
109947	7	Sololá	702	San José Chacayá	5	Chacayá	7	Julio	2023-07-27T00:00:00	2024-11-06T16:00:00	3	Temperatura mínima	21.7
109948	7	Sololá	702	San José Chacayá	5	Chacayá	7	Julio	2023-07-27T00:00:00	2024-11-06T16:00:00	5	Humedad	51
109949	7	Sololá	702	San José Chacayá	5	Chacayá	7	Julio	2023-07-27T00:00:00	2024-11-06T16:00:00	6	Velocidad del viento	4.8
109950	7	Sololá	702	San José Chacayá	5	Chacayá	7	Julio	2023-07-27T00:00:00	2024-11-06T16:00:00	7	Dirección del viento	4.83
109951	7	Sololá	702	San José Chacayá	5	Chacayá	7	Julio	2023-07-27T00:00:00	2024-11-06T16:00:00	1	Precipitación	0
109952	7	Sololá	702	San José Chacayá	5	Chacayá	7	Julio	2023-07-27T00:00:00	2024-11-06T16:00:00	8	Radiación solar	415
109953	7	Sololá	702	San José Chacayá	5	Chacayá	7	Julio	2023-07-27T00:00:00	2024-11-06T17:00:00	2	Temperatura media	21.2
109954	7	Sololá	702	San José Chacayá	5	Chacayá	7	Julio	2023-07-27T00:00:00	2024-11-06T17:00:00	4	Temperatura máxima	22.2
109955	7	Sololá	702	San José Chacayá	5	Chacayá	7	Julio	2023-07-27T00:00:00	2024-11-06T17:00:00	3	Temperatura mínima	21.2
109956	7	Sololá	702	San José Chacayá	5	Chacayá	7	Julio	2023-07-27T00:00:00	2024-11-06T17:00:00	5	Humedad	63
109957	7	Sololá	702	San José Chacayá	5	Chacayá	7	Julio	2023-07-27T00:00:00	2024-11-06T17:00:00	6	Velocidad del viento	3.2
109958	7	Sololá	702	San José Chacayá	5	Chacayá	7	Julio	2023-07-27T00:00:00	2024-11-06T17:00:00	7	Dirección del viento	3.22
109959	7	Sololá	702	San José Chacayá	5	Chacayá	7	Julio	2023-07-27T00:00:00	2024-11-06T17:00:00	1	Precipitación	0
109960	7	Sololá	702	San José Chacayá	5	Chacayá	7	Julio	2023-07-27T00:00:00	2024-11-06T17:00:00	8	Radiación solar	195
109961	7	Sololá	702	San José Chacayá	5	Chacayá	7	Julio	2023-07-27T00:00:00	2024-11-06T18:00:00	2	Temperatura media	18.5
109962	7	Sololá	702	San José Chacayá	5	Chacayá	7	Julio	2023-07-27T00:00:00	2024-11-06T18:00:00	4	Temperatura máxima	21.2
109963	7	Sololá	702	San José Chacayá	5	Chacayá	7	Julio	2023-07-27T00:00:00	2024-11-06T18:00:00	3	Temperatura mínima	18.5
109964	7	Sololá	702	San José Chacayá	5	Chacayá	7	Julio	2023-07-27T00:00:00	2024-11-06T18:00:00	5	Humedad	72
109965	7	Sololá	702	San José Chacayá	5	Chacayá	7	Julio	2023-07-27T00:00:00	2024-11-06T18:00:00	6	Velocidad del viento	1.6
109966	7	Sololá	702	San José Chacayá	5	Chacayá	7	Julio	2023-07-27T00:00:00	2024-11-06T18:00:00	7	Dirección del viento	1.61
109967	7	Sololá	702	San José Chacayá	5	Chacayá	7	Julio	2023-07-27T00:00:00	2024-11-06T18:00:00	1	Precipitación	0
109968	7	Sololá	702	San José Chacayá	5	Chacayá	7	Julio	2023-07-27T00:00:00	2024-11-06T18:00:00	8	Radiación solar	44
109969	7	Sololá	702	San José Chacayá	5	Chacayá	7	Julio	2023-07-27T00:00:00	2024-11-06T19:00:00	2	Temperatura media	17.5
109970	7	Sololá	702	San José Chacayá	5	Chacayá	7	Julio	2023-07-27T00:00:00	2024-11-06T19:00:00	4	Temperatura máxima	18.5
109971	7	Sololá	702	San José Chacayá	5	Chacayá	7	Julio	2023-07-27T00:00:00	2024-11-06T19:00:00	3	Temperatura mínima	17.5
109972	7	Sololá	702	San José Chacayá	5	Chacayá	7	Julio	2023-07-27T00:00:00	2024-11-06T19:00:00	5	Humedad	76
109973	7	Sololá	702	San José Chacayá	5	Chacayá	7	Julio	2023-07-27T00:00:00	2024-11-06T19:00:00	6	Velocidad del viento	1.6
109974	7	Sololá	702	San José Chacayá	5	Chacayá	7	Julio	2023-07-27T00:00:00	2024-11-06T19:00:00	7	Dirección del viento	1.61
109975	7	Sololá	702	San José Chacayá	5	Chacayá	7	Julio	2023-07-27T00:00:00	2024-11-06T19:00:00	1	Precipitación	0
109976	7	Sololá	702	San José Chacayá	5	Chacayá	7	Julio	2023-07-27T00:00:00	2024-11-06T19:00:00	8	Radiación solar	0
109977	7	Sololá	702	San José Chacayá	5	Chacayá	7	Julio	2023-07-27T00:00:00	2024-11-06T20:00:00	2	Temperatura media	16.9
109978	7	Sololá	702	San José Chacayá	5	Chacayá	7	Julio	2023-07-27T00:00:00	2024-11-06T20:00:00	4	Temperatura máxima	17.5
109979	7	Sololá	702	San José Chacayá	5	Chacayá	7	Julio	2023-07-27T00:00:00	2024-11-06T20:00:00	3	Temperatura mínima	16.9
109980	7	Sololá	702	San José Chacayá	5	Chacayá	7	Julio	2023-07-27T00:00:00	2024-11-06T20:00:00	5	Humedad	77
109981	7	Sololá	702	San José Chacayá	5	Chacayá	7	Julio	2023-07-27T00:00:00	2024-11-06T20:00:00	6	Velocidad del viento	3.2
109982	7	Sololá	702	San José Chacayá	5	Chacayá	7	Julio	2023-07-27T00:00:00	2024-11-06T20:00:00	7	Dirección del viento	3.22
109983	7	Sololá	702	San José Chacayá	5	Chacayá	7	Julio	2023-07-27T00:00:00	2024-11-06T20:00:00	1	Precipitación	0
109984	7	Sololá	702	San José Chacayá	5	Chacayá	7	Julio	2023-07-27T00:00:00	2024-11-06T20:00:00	8	Radiación solar	0
109985	7	Sololá	702	San José Chacayá	5	Chacayá	7	Julio	2023-07-27T00:00:00	2024-11-06T21:00:00	2	Temperatura media	16.1
109986	7	Sololá	702	San José Chacayá	5	Chacayá	7	Julio	2023-07-27T00:00:00	2024-11-06T21:00:00	4	Temperatura máxima	16.9
109987	7	Sololá	702	San José Chacayá	5	Chacayá	7	Julio	2023-07-27T00:00:00	2024-11-06T21:00:00	3	Temperatura mínima	16
109988	7	Sololá	702	San José Chacayá	5	Chacayá	7	Julio	2023-07-27T00:00:00	2024-11-06T21:00:00	5	Humedad	79
109989	7	Sololá	702	San José Chacayá	5	Chacayá	7	Julio	2023-07-27T00:00:00	2024-11-06T21:00:00	6	Velocidad del viento	3.2
109990	7	Sololá	702	San José Chacayá	5	Chacayá	7	Julio	2023-07-27T00:00:00	2024-11-06T21:00:00	7	Dirección del viento	3.22
109991	7	Sololá	702	San José Chacayá	5	Chacayá	7	Julio	2023-07-27T00:00:00	2024-11-06T21:00:00	1	Precipitación	0
109992	7	Sololá	702	San José Chacayá	5	Chacayá	7	Julio	2023-07-27T00:00:00	2024-11-06T21:00:00	8	Radiación solar	0
109993	7	Sololá	702	San José Chacayá	5	Chacayá	7	Julio	2023-07-27T00:00:00	2024-11-06T22:00:00	2	Temperatura media	16.1
109994	7	Sololá	702	San José Chacayá	5	Chacayá	7	Julio	2023-07-27T00:00:00	2024-11-06T22:00:00	4	Temperatura máxima	16.2
109995	7	Sololá	702	San José Chacayá	5	Chacayá	7	Julio	2023-07-27T00:00:00	2024-11-06T22:00:00	3	Temperatura mínima	15.9
109996	7	Sololá	702	San José Chacayá	5	Chacayá	7	Julio	2023-07-27T00:00:00	2024-11-06T22:00:00	5	Humedad	75
109997	7	Sololá	702	San José Chacayá	5	Chacayá	7	Julio	2023-07-27T00:00:00	2024-11-06T22:00:00	6	Velocidad del viento	4.8
109998	7	Sololá	702	San José Chacayá	5	Chacayá	7	Julio	2023-07-27T00:00:00	2024-11-06T22:00:00	7	Dirección del viento	4.83
109999	7	Sololá	702	San José Chacayá	5	Chacayá	7	Julio	2023-07-27T00:00:00	2024-11-06T22:00:00	1	Precipitación	0
110000	7	Sololá	702	San José Chacayá	5	Chacayá	7	Julio	2023-07-27T00:00:00	2024-11-06T22:00:00	8	Radiación solar	0
110001	7	Sololá	702	San José Chacayá	5	Chacayá	7	Julio	2023-07-27T00:00:00	2024-11-06T23:00:00	2	Temperatura media	15.6
110002	7	Sololá	702	San José Chacayá	5	Chacayá	7	Julio	2023-07-27T00:00:00	2024-11-06T23:00:00	4	Temperatura máxima	16.1
110003	7	Sololá	702	San José Chacayá	5	Chacayá	7	Julio	2023-07-27T00:00:00	2024-11-06T23:00:00	3	Temperatura mínima	15.6
110004	7	Sololá	702	San José Chacayá	5	Chacayá	7	Julio	2023-07-27T00:00:00	2024-11-06T23:00:00	5	Humedad	74
110005	7	Sololá	702	San José Chacayá	5	Chacayá	7	Julio	2023-07-27T00:00:00	2024-11-06T23:00:00	6	Velocidad del viento	3.2
110006	7	Sololá	702	San José Chacayá	5	Chacayá	7	Julio	2023-07-27T00:00:00	2024-11-06T23:00:00	7	Dirección del viento	3.22
110007	7	Sololá	702	San José Chacayá	5	Chacayá	7	Julio	2023-07-27T00:00:00	2024-11-06T23:00:00	1	Precipitación	0
110008	7	Sololá	702	San José Chacayá	5	Chacayá	7	Julio	2023-07-27T00:00:00	2024-11-06T23:00:00	8	Radiación solar	0
110009	7	Sololá	702	San José Chacayá	5	Chacayá	7	Julio	2023-07-28T00:00:00	2024-11-06T00:00:00	2	Temperatura media	15.7
110010	7	Sololá	702	San José Chacayá	5	Chacayá	7	Julio	2023-07-28T00:00:00	2024-11-06T00:00:00	4	Temperatura máxima	15.9
110011	7	Sololá	702	San José Chacayá	5	Chacayá	7	Julio	2023-07-28T00:00:00	2024-11-06T00:00:00	3	Temperatura mínima	15.6
110012	7	Sololá	702	San José Chacayá	5	Chacayá	7	Julio	2023-07-28T00:00:00	2024-11-06T00:00:00	5	Humedad	74
110013	7	Sololá	702	San José Chacayá	5	Chacayá	7	Julio	2023-07-28T00:00:00	2024-11-06T00:00:00	6	Velocidad del viento	6.4
110014	7	Sololá	702	San José Chacayá	5	Chacayá	7	Julio	2023-07-28T00:00:00	2024-11-06T00:00:00	7	Dirección del viento	6.44
110015	7	Sololá	702	San José Chacayá	5	Chacayá	7	Julio	2023-07-28T00:00:00	2024-11-06T00:00:00	1	Precipitación	0
110016	7	Sololá	702	San José Chacayá	5	Chacayá	7	Julio	2023-07-28T00:00:00	2024-11-06T00:00:00	8	Radiación solar	0
110017	7	Sololá	702	San José Chacayá	5	Chacayá	7	Julio	2023-07-28T00:00:00	2024-11-06T01:00:00	2	Temperatura media	16.1
110018	7	Sololá	702	San José Chacayá	5	Chacayá	7	Julio	2023-07-28T00:00:00	2024-11-06T01:00:00	4	Temperatura máxima	16.3
110019	7	Sololá	702	San José Chacayá	5	Chacayá	7	Julio	2023-07-28T00:00:00	2024-11-06T01:00:00	3	Temperatura mínima	15.8
110020	7	Sololá	702	San José Chacayá	5	Chacayá	7	Julio	2023-07-28T00:00:00	2024-11-06T01:00:00	5	Humedad	77
110021	7	Sololá	702	San José Chacayá	5	Chacayá	7	Julio	2023-07-28T00:00:00	2024-11-06T01:00:00	6	Velocidad del viento	3.2
110022	7	Sololá	702	San José Chacayá	5	Chacayá	7	Julio	2023-07-28T00:00:00	2024-11-06T01:00:00	7	Dirección del viento	3.22
110023	7	Sololá	702	San José Chacayá	5	Chacayá	7	Julio	2023-07-28T00:00:00	2024-11-06T01:00:00	1	Precipitación	0
110024	7	Sololá	702	San José Chacayá	5	Chacayá	7	Julio	2023-07-28T00:00:00	2024-11-06T01:00:00	8	Radiación solar	0
110025	7	Sololá	702	San José Chacayá	5	Chacayá	7	Julio	2023-07-28T00:00:00	2024-11-06T02:00:00	2	Temperatura media	15.4
110026	7	Sololá	702	San José Chacayá	5	Chacayá	7	Julio	2023-07-28T00:00:00	2024-11-06T02:00:00	4	Temperatura máxima	16
110027	7	Sololá	702	San José Chacayá	5	Chacayá	7	Julio	2023-07-28T00:00:00	2024-11-06T02:00:00	3	Temperatura mínima	15
110028	7	Sololá	702	San José Chacayá	5	Chacayá	7	Julio	2023-07-28T00:00:00	2024-11-06T02:00:00	5	Humedad	80
110029	7	Sololá	702	San José Chacayá	5	Chacayá	7	Julio	2023-07-28T00:00:00	2024-11-06T02:00:00	6	Velocidad del viento	1.6
110030	7	Sololá	702	San José Chacayá	5	Chacayá	7	Julio	2023-07-28T00:00:00	2024-11-06T02:00:00	7	Dirección del viento	1.61
110031	7	Sololá	702	San José Chacayá	5	Chacayá	7	Julio	2023-07-28T00:00:00	2024-11-06T02:00:00	1	Precipitación	0
110032	7	Sololá	702	San José Chacayá	5	Chacayá	7	Julio	2023-07-28T00:00:00	2024-11-06T02:00:00	8	Radiación solar	0
110033	7	Sololá	702	San José Chacayá	5	Chacayá	7	Julio	2023-07-28T00:00:00	2024-11-06T03:00:00	2	Temperatura media	14.4
110034	7	Sololá	702	San José Chacayá	5	Chacayá	7	Julio	2023-07-28T00:00:00	2024-11-06T03:00:00	4	Temperatura máxima	15.4
110035	7	Sololá	702	San José Chacayá	5	Chacayá	7	Julio	2023-07-28T00:00:00	2024-11-06T03:00:00	3	Temperatura mínima	14.4
110036	7	Sololá	702	San José Chacayá	5	Chacayá	7	Julio	2023-07-28T00:00:00	2024-11-06T03:00:00	5	Humedad	83
110037	7	Sololá	702	San José Chacayá	5	Chacayá	7	Julio	2023-07-28T00:00:00	2024-11-06T03:00:00	6	Velocidad del viento	1.6
110038	7	Sololá	702	San José Chacayá	5	Chacayá	7	Julio	2023-07-28T00:00:00	2024-11-06T03:00:00	7	Dirección del viento	1.61
110039	7	Sololá	702	San José Chacayá	5	Chacayá	7	Julio	2023-07-28T00:00:00	2024-11-06T03:00:00	1	Precipitación	0
110040	7	Sololá	702	San José Chacayá	5	Chacayá	7	Julio	2023-07-28T00:00:00	2024-11-06T03:00:00	8	Radiación solar	0
110041	7	Sololá	702	San José Chacayá	5	Chacayá	7	Julio	2023-07-28T00:00:00	2024-11-06T04:00:00	2	Temperatura media	14.4
110042	7	Sololá	702	San José Chacayá	5	Chacayá	7	Julio	2023-07-28T00:00:00	2024-11-06T04:00:00	4	Temperatura máxima	14.4
110043	7	Sololá	702	San José Chacayá	5	Chacayá	7	Julio	2023-07-28T00:00:00	2024-11-06T04:00:00	3	Temperatura mínima	13.7
110044	7	Sololá	702	San José Chacayá	5	Chacayá	7	Julio	2023-07-28T00:00:00	2024-11-06T04:00:00	5	Humedad	82
110045	7	Sololá	702	San José Chacayá	5	Chacayá	7	Julio	2023-07-28T00:00:00	2024-11-06T04:00:00	6	Velocidad del viento	1.6
110046	7	Sololá	702	San José Chacayá	5	Chacayá	7	Julio	2023-07-28T00:00:00	2024-11-06T04:00:00	7	Dirección del viento	1.61
110047	7	Sololá	702	San José Chacayá	5	Chacayá	7	Julio	2023-07-28T00:00:00	2024-11-06T04:00:00	1	Precipitación	0
110048	7	Sololá	702	San José Chacayá	5	Chacayá	7	Julio	2023-07-28T00:00:00	2024-11-06T04:00:00	8	Radiación solar	0
110049	7	Sololá	702	San José Chacayá	5	Chacayá	7	Julio	2023-07-28T00:00:00	2024-11-06T05:00:00	2	Temperatura media	15.1
110050	7	Sololá	702	San José Chacayá	5	Chacayá	7	Julio	2023-07-28T00:00:00	2024-11-06T05:00:00	4	Temperatura máxima	15.4
110051	7	Sololá	702	San José Chacayá	5	Chacayá	7	Julio	2023-07-28T00:00:00	2024-11-06T05:00:00	3	Temperatura mínima	14.4
110052	7	Sololá	702	San José Chacayá	5	Chacayá	7	Julio	2023-07-28T00:00:00	2024-11-06T05:00:00	5	Humedad	81
110053	7	Sololá	702	San José Chacayá	5	Chacayá	7	Julio	2023-07-28T00:00:00	2024-11-06T05:00:00	6	Velocidad del viento	1.6
110054	7	Sololá	702	San José Chacayá	5	Chacayá	7	Julio	2023-07-28T00:00:00	2024-11-06T05:00:00	7	Dirección del viento	1.61
110055	7	Sololá	702	San José Chacayá	5	Chacayá	7	Julio	2023-07-28T00:00:00	2024-11-06T05:00:00	1	Precipitación	0
110056	7	Sololá	702	San José Chacayá	5	Chacayá	7	Julio	2023-07-28T00:00:00	2024-11-06T05:00:00	8	Radiación solar	0
110057	7	Sololá	702	San José Chacayá	5	Chacayá	7	Julio	2023-07-28T00:00:00	2024-11-06T06:00:00	2	Temperatura media	14.8
110058	7	Sololá	702	San José Chacayá	5	Chacayá	7	Julio	2023-07-28T00:00:00	2024-11-06T06:00:00	4	Temperatura máxima	15.1
110059	7	Sololá	702	San José Chacayá	5	Chacayá	7	Julio	2023-07-28T00:00:00	2024-11-06T06:00:00	3	Temperatura mínima	14.8
110060	7	Sololá	702	San José Chacayá	5	Chacayá	7	Julio	2023-07-28T00:00:00	2024-11-06T06:00:00	5	Humedad	82
110061	7	Sololá	702	San José Chacayá	5	Chacayá	7	Julio	2023-07-28T00:00:00	2024-11-06T06:00:00	6	Velocidad del viento	1.6
110062	7	Sololá	702	San José Chacayá	5	Chacayá	7	Julio	2023-07-28T00:00:00	2024-11-06T06:00:00	7	Dirección del viento	1.61
110063	7	Sololá	702	San José Chacayá	5	Chacayá	7	Julio	2023-07-28T00:00:00	2024-11-06T06:00:00	1	Precipitación	0
110064	7	Sololá	702	San José Chacayá	5	Chacayá	7	Julio	2023-07-28T00:00:00	2024-11-06T06:00:00	8	Radiación solar	3
110065	7	Sololá	702	San José Chacayá	5	Chacayá	7	Julio	2023-07-28T00:00:00	2024-11-06T07:00:00	2	Temperatura media	15.8
110066	7	Sololá	702	San José Chacayá	5	Chacayá	7	Julio	2023-07-28T00:00:00	2024-11-06T07:00:00	4	Temperatura máxima	15.8
110067	7	Sololá	702	San José Chacayá	5	Chacayá	7	Julio	2023-07-28T00:00:00	2024-11-06T07:00:00	3	Temperatura mínima	14.7
110068	7	Sololá	702	San José Chacayá	5	Chacayá	7	Julio	2023-07-28T00:00:00	2024-11-06T07:00:00	5	Humedad	81
110069	7	Sololá	702	San José Chacayá	5	Chacayá	7	Julio	2023-07-28T00:00:00	2024-11-06T07:00:00	6	Velocidad del viento	1.6
110070	7	Sololá	702	San José Chacayá	5	Chacayá	7	Julio	2023-07-28T00:00:00	2024-11-06T07:00:00	7	Dirección del viento	1.61
110071	7	Sololá	702	San José Chacayá	5	Chacayá	7	Julio	2023-07-28T00:00:00	2024-11-06T07:00:00	1	Precipitación	0
110072	7	Sololá	702	San José Chacayá	5	Chacayá	7	Julio	2023-07-28T00:00:00	2024-11-06T07:00:00	8	Radiación solar	58
110073	7	Sololá	702	San José Chacayá	5	Chacayá	7	Julio	2023-07-28T00:00:00	2024-11-06T08:00:00	2	Temperatura media	19.2
110074	7	Sololá	702	San José Chacayá	5	Chacayá	7	Julio	2023-07-28T00:00:00	2024-11-06T08:00:00	4	Temperatura máxima	19.2
110075	7	Sololá	702	San José Chacayá	5	Chacayá	7	Julio	2023-07-28T00:00:00	2024-11-06T08:00:00	3	Temperatura mínima	19.1
110076	7	Sololá	702	San José Chacayá	5	Chacayá	7	Julio	2023-07-28T00:00:00	2024-11-06T08:00:00	5	Humedad	66
110077	7	Sololá	702	San José Chacayá	5	Chacayá	7	Julio	2023-07-28T00:00:00	2024-11-06T08:00:00	6	Velocidad del viento	6.4
110078	7	Sololá	702	San José Chacayá	5	Chacayá	7	Julio	2023-07-28T00:00:00	2024-11-06T08:00:00	7	Dirección del viento	6.44
110079	7	Sololá	702	San José Chacayá	5	Chacayá	7	Julio	2023-07-28T00:00:00	2024-11-06T08:00:00	1	Precipitación	0
110080	7	Sololá	702	San José Chacayá	5	Chacayá	7	Julio	2023-07-28T00:00:00	2024-11-06T08:00:00	8	Radiación solar	93
110081	7	Sololá	702	San José Chacayá	5	Chacayá	7	Julio	2023-07-28T00:00:00	2024-11-06T09:00:00	2	Temperatura media	21
110082	7	Sololá	702	San José Chacayá	5	Chacayá	7	Julio	2023-07-28T00:00:00	2024-11-06T09:00:00	4	Temperatura máxima	21
110083	7	Sololá	702	San José Chacayá	5	Chacayá	7	Julio	2023-07-28T00:00:00	2024-11-06T09:00:00	3	Temperatura mínima	19.1
110084	7	Sololá	702	San José Chacayá	5	Chacayá	7	Julio	2023-07-28T00:00:00	2024-11-06T09:00:00	5	Humedad	58
110085	7	Sololá	702	San José Chacayá	5	Chacayá	7	Julio	2023-07-28T00:00:00	2024-11-06T09:00:00	6	Velocidad del viento	4.8
110086	7	Sololá	702	San José Chacayá	5	Chacayá	7	Julio	2023-07-28T00:00:00	2024-11-06T09:00:00	7	Dirección del viento	4.83
110087	7	Sololá	702	San José Chacayá	5	Chacayá	7	Julio	2023-07-28T00:00:00	2024-11-06T09:00:00	1	Precipitación	0
110088	7	Sololá	702	San José Chacayá	5	Chacayá	7	Julio	2023-07-28T00:00:00	2024-11-06T09:00:00	8	Radiación solar	217
110089	7	Sololá	702	San José Chacayá	5	Chacayá	7	Julio	2023-07-28T00:00:00	2024-11-06T10:00:00	2	Temperatura media	22.9
110090	7	Sololá	702	San José Chacayá	5	Chacayá	7	Julio	2023-07-28T00:00:00	2024-11-06T10:00:00	4	Temperatura máxima	23
110091	7	Sololá	702	San José Chacayá	5	Chacayá	7	Julio	2023-07-28T00:00:00	2024-11-06T10:00:00	3	Temperatura mínima	21
110092	7	Sololá	702	San José Chacayá	5	Chacayá	7	Julio	2023-07-28T00:00:00	2024-11-06T10:00:00	5	Humedad	53
110093	7	Sololá	702	San José Chacayá	5	Chacayá	7	Julio	2023-07-28T00:00:00	2024-11-06T10:00:00	6	Velocidad del viento	4.8
110094	7	Sololá	702	San José Chacayá	5	Chacayá	7	Julio	2023-07-28T00:00:00	2024-11-06T10:00:00	7	Dirección del viento	4.83
110095	7	Sololá	702	San José Chacayá	5	Chacayá	7	Julio	2023-07-28T00:00:00	2024-11-06T10:00:00	1	Precipitación	0
110096	7	Sololá	702	San José Chacayá	5	Chacayá	7	Julio	2023-07-28T00:00:00	2024-11-06T10:00:00	8	Radiación solar	681
110097	7	Sololá	702	San José Chacayá	5	Chacayá	7	Julio	2023-07-28T00:00:00	2024-11-06T11:00:00	2	Temperatura media	23.3
110098	7	Sololá	702	San José Chacayá	5	Chacayá	7	Julio	2023-07-28T00:00:00	2024-11-06T11:00:00	4	Temperatura máxima	23.6
110099	7	Sololá	702	San José Chacayá	5	Chacayá	7	Julio	2023-07-28T00:00:00	2024-11-06T11:00:00	3	Temperatura mínima	22.8
110100	7	Sololá	702	San José Chacayá	5	Chacayá	7	Julio	2023-07-28T00:00:00	2024-11-06T11:00:00	5	Humedad	55
110101	7	Sololá	702	San José Chacayá	5	Chacayá	7	Julio	2023-07-28T00:00:00	2024-11-06T11:00:00	6	Velocidad del viento	6.4
110102	7	Sololá	702	San José Chacayá	5	Chacayá	7	Julio	2023-07-28T00:00:00	2024-11-06T11:00:00	7	Dirección del viento	6.44
110103	7	Sololá	702	San José Chacayá	5	Chacayá	7	Julio	2023-07-28T00:00:00	2024-11-06T11:00:00	1	Precipitación	0
110104	7	Sololá	702	San José Chacayá	5	Chacayá	7	Julio	2023-07-28T00:00:00	2024-11-06T11:00:00	8	Radiación solar	669
110105	7	Sololá	702	San José Chacayá	5	Chacayá	7	Julio	2023-07-28T00:00:00	2024-11-06T12:00:00	2	Temperatura media	23.6
110106	7	Sololá	702	San José Chacayá	5	Chacayá	7	Julio	2023-07-28T00:00:00	2024-11-06T12:00:00	4	Temperatura máxima	23.6
110107	7	Sololá	702	San José Chacayá	5	Chacayá	7	Julio	2023-07-28T00:00:00	2024-11-06T12:00:00	3	Temperatura mínima	22.9
110108	7	Sololá	702	San José Chacayá	5	Chacayá	7	Julio	2023-07-28T00:00:00	2024-11-06T12:00:00	5	Humedad	54
110109	7	Sololá	702	San José Chacayá	5	Chacayá	7	Julio	2023-07-28T00:00:00	2024-11-06T12:00:00	6	Velocidad del viento	6.4
110110	7	Sololá	702	San José Chacayá	5	Chacayá	7	Julio	2023-07-28T00:00:00	2024-11-06T12:00:00	7	Dirección del viento	6.44
110111	7	Sololá	702	San José Chacayá	5	Chacayá	7	Julio	2023-07-28T00:00:00	2024-11-06T12:00:00	1	Precipitación	0
110112	7	Sololá	702	San José Chacayá	5	Chacayá	7	Julio	2023-07-28T00:00:00	2024-11-06T12:00:00	8	Radiación solar	554
110113	7	Sololá	702	San José Chacayá	5	Chacayá	7	Julio	2023-07-28T00:00:00	2024-11-06T13:00:00	2	Temperatura media	24.3
110114	7	Sololá	702	San José Chacayá	5	Chacayá	7	Julio	2023-07-28T00:00:00	2024-11-06T13:00:00	4	Temperatura máxima	24.4
110115	7	Sololá	702	San José Chacayá	5	Chacayá	7	Julio	2023-07-28T00:00:00	2024-11-06T13:00:00	3	Temperatura mínima	23.2
110116	7	Sololá	702	San José Chacayá	5	Chacayá	7	Julio	2023-07-28T00:00:00	2024-11-06T13:00:00	5	Humedad	51
110117	7	Sololá	702	San José Chacayá	5	Chacayá	7	Julio	2023-07-28T00:00:00	2024-11-06T13:00:00	6	Velocidad del viento	4.8
110118	7	Sololá	702	San José Chacayá	5	Chacayá	7	Julio	2023-07-28T00:00:00	2024-11-06T13:00:00	7	Dirección del viento	4.83
110119	7	Sololá	702	San José Chacayá	5	Chacayá	7	Julio	2023-07-28T00:00:00	2024-11-06T13:00:00	1	Precipitación	0
110120	7	Sololá	702	San José Chacayá	5	Chacayá	7	Julio	2023-07-28T00:00:00	2024-11-06T13:00:00	8	Radiación solar	578
110121	7	Sololá	702	San José Chacayá	5	Chacayá	7	Julio	2023-07-28T00:00:00	2024-11-06T14:00:00	2	Temperatura media	24
110122	7	Sololá	702	San José Chacayá	5	Chacayá	7	Julio	2023-07-28T00:00:00	2024-11-06T14:00:00	4	Temperatura máxima	24.8
110123	7	Sololá	702	San José Chacayá	5	Chacayá	7	Julio	2023-07-28T00:00:00	2024-11-06T14:00:00	3	Temperatura mínima	24
110124	7	Sololá	702	San José Chacayá	5	Chacayá	7	Julio	2023-07-28T00:00:00	2024-11-06T14:00:00	5	Humedad	51
110125	7	Sololá	702	San José Chacayá	5	Chacayá	7	Julio	2023-07-28T00:00:00	2024-11-06T14:00:00	6	Velocidad del viento	6.4
110126	7	Sololá	702	San José Chacayá	5	Chacayá	7	Julio	2023-07-28T00:00:00	2024-11-06T14:00:00	7	Dirección del viento	6.44
110127	7	Sololá	702	San José Chacayá	5	Chacayá	7	Julio	2023-07-28T00:00:00	2024-11-06T14:00:00	1	Precipitación	0
110128	7	Sololá	702	San José Chacayá	5	Chacayá	7	Julio	2023-07-28T00:00:00	2024-11-06T14:00:00	8	Radiación solar	342
110129	7	Sololá	702	San José Chacayá	5	Chacayá	7	Julio	2023-07-28T00:00:00	2024-11-06T15:00:00	2	Temperatura media	23.9
110130	7	Sololá	702	San José Chacayá	5	Chacayá	7	Julio	2023-07-28T00:00:00	2024-11-06T15:00:00	4	Temperatura máxima	24.6
110131	7	Sololá	702	San José Chacayá	5	Chacayá	7	Julio	2023-07-28T00:00:00	2024-11-06T15:00:00	3	Temperatura mínima	23.6
110132	7	Sololá	702	San José Chacayá	5	Chacayá	7	Julio	2023-07-28T00:00:00	2024-11-06T15:00:00	5	Humedad	54
110133	7	Sololá	702	San José Chacayá	5	Chacayá	7	Julio	2023-07-28T00:00:00	2024-11-06T15:00:00	6	Velocidad del viento	4.8
110134	7	Sololá	702	San José Chacayá	5	Chacayá	7	Julio	2023-07-28T00:00:00	2024-11-06T15:00:00	7	Dirección del viento	4.83
110135	7	Sololá	702	San José Chacayá	5	Chacayá	7	Julio	2023-07-28T00:00:00	2024-11-06T15:00:00	1	Precipitación	0
110136	7	Sololá	702	San José Chacayá	5	Chacayá	7	Julio	2023-07-28T00:00:00	2024-11-06T15:00:00	8	Radiación solar	560
110137	7	Sololá	702	San José Chacayá	5	Chacayá	7	Julio	2023-07-28T00:00:00	2024-11-06T16:00:00	2	Temperatura media	22.1
110138	7	Sololá	702	San José Chacayá	5	Chacayá	7	Julio	2023-07-28T00:00:00	2024-11-06T16:00:00	4	Temperatura máxima	23.9
110139	7	Sololá	702	San José Chacayá	5	Chacayá	7	Julio	2023-07-28T00:00:00	2024-11-06T16:00:00	3	Temperatura mínima	22.1
110140	7	Sololá	702	San José Chacayá	5	Chacayá	7	Julio	2023-07-28T00:00:00	2024-11-06T16:00:00	5	Humedad	60
110141	7	Sololá	702	San José Chacayá	5	Chacayá	7	Julio	2023-07-28T00:00:00	2024-11-06T16:00:00	6	Velocidad del viento	4.8
110142	7	Sololá	702	San José Chacayá	5	Chacayá	7	Julio	2023-07-28T00:00:00	2024-11-06T16:00:00	7	Dirección del viento	4.83
110143	7	Sololá	702	San José Chacayá	5	Chacayá	7	Julio	2023-07-28T00:00:00	2024-11-06T16:00:00	1	Precipitación	0
110144	7	Sololá	702	San José Chacayá	5	Chacayá	7	Julio	2023-07-28T00:00:00	2024-11-06T16:00:00	8	Radiación solar	326
110145	7	Sololá	702	San José Chacayá	5	Chacayá	7	Julio	2023-07-28T00:00:00	2024-11-06T17:00:00	2	Temperatura media	20.6
110146	7	Sololá	702	San José Chacayá	5	Chacayá	7	Julio	2023-07-28T00:00:00	2024-11-06T17:00:00	4	Temperatura máxima	22.1
110147	7	Sololá	702	San José Chacayá	5	Chacayá	7	Julio	2023-07-28T00:00:00	2024-11-06T17:00:00	3	Temperatura mínima	20.4
110148	7	Sololá	702	San José Chacayá	5	Chacayá	7	Julio	2023-07-28T00:00:00	2024-11-06T17:00:00	5	Humedad	66
110149	7	Sololá	702	San José Chacayá	5	Chacayá	7	Julio	2023-07-28T00:00:00	2024-11-06T17:00:00	6	Velocidad del viento	3.2
110150	7	Sololá	702	San José Chacayá	5	Chacayá	7	Julio	2023-07-28T00:00:00	2024-11-06T17:00:00	7	Dirección del viento	3.22
110151	7	Sololá	702	San José Chacayá	5	Chacayá	7	Julio	2023-07-28T00:00:00	2024-11-06T17:00:00	1	Precipitación	0
110152	7	Sololá	702	San José Chacayá	5	Chacayá	7	Julio	2023-07-28T00:00:00	2024-11-06T17:00:00	8	Radiación solar	166
110153	7	Sololá	702	San José Chacayá	5	Chacayá	7	Julio	2023-07-28T00:00:00	2024-11-06T18:00:00	2	Temperatura media	19.1
110154	7	Sololá	702	San José Chacayá	5	Chacayá	7	Julio	2023-07-28T00:00:00	2024-11-06T18:00:00	4	Temperatura máxima	20.7
110155	7	Sololá	702	San José Chacayá	5	Chacayá	7	Julio	2023-07-28T00:00:00	2024-11-06T18:00:00	3	Temperatura mínima	19.1
110156	7	Sololá	702	San José Chacayá	5	Chacayá	7	Julio	2023-07-28T00:00:00	2024-11-06T18:00:00	5	Humedad	72
110157	7	Sololá	702	San José Chacayá	5	Chacayá	7	Julio	2023-07-28T00:00:00	2024-11-06T18:00:00	6	Velocidad del viento	1.6
110158	7	Sololá	702	San José Chacayá	5	Chacayá	7	Julio	2023-07-28T00:00:00	2024-11-06T18:00:00	7	Dirección del viento	1.61
110159	7	Sololá	702	San José Chacayá	5	Chacayá	7	Julio	2023-07-28T00:00:00	2024-11-06T18:00:00	1	Precipitación	0
110160	7	Sololá	702	San José Chacayá	5	Chacayá	7	Julio	2023-07-28T00:00:00	2024-11-06T18:00:00	8	Radiación solar	129
110161	7	Sololá	702	San José Chacayá	5	Chacayá	7	Julio	2023-07-28T00:00:00	2024-11-06T19:00:00	2	Temperatura media	17.2
110162	7	Sololá	702	San José Chacayá	5	Chacayá	7	Julio	2023-07-28T00:00:00	2024-11-06T19:00:00	4	Temperatura máxima	19.1
110163	7	Sololá	702	San José Chacayá	5	Chacayá	7	Julio	2023-07-28T00:00:00	2024-11-06T19:00:00	3	Temperatura mínima	17.2
110164	7	Sololá	702	San José Chacayá	5	Chacayá	7	Julio	2023-07-28T00:00:00	2024-11-06T19:00:00	5	Humedad	82
110165	7	Sololá	702	San José Chacayá	5	Chacayá	7	Julio	2023-07-28T00:00:00	2024-11-06T19:00:00	6	Velocidad del viento	1.6
110166	7	Sololá	702	San José Chacayá	5	Chacayá	7	Julio	2023-07-28T00:00:00	2024-11-06T19:00:00	7	Dirección del viento	1.61
110167	7	Sololá	702	San José Chacayá	5	Chacayá	7	Julio	2023-07-28T00:00:00	2024-11-06T19:00:00	1	Precipitación	0
110168	7	Sololá	702	San José Chacayá	5	Chacayá	7	Julio	2023-07-28T00:00:00	2024-11-06T19:00:00	8	Radiación solar	0
110169	7	Sololá	702	San José Chacayá	5	Chacayá	7	Julio	2023-07-28T00:00:00	2024-11-06T20:00:00	2	Temperatura media	16.7
110170	7	Sololá	702	San José Chacayá	5	Chacayá	7	Julio	2023-07-28T00:00:00	2024-11-06T20:00:00	4	Temperatura máxima	17.2
110171	7	Sololá	702	San José Chacayá	5	Chacayá	7	Julio	2023-07-28T00:00:00	2024-11-06T20:00:00	3	Temperatura mínima	16.7
110172	7	Sololá	702	San José Chacayá	5	Chacayá	7	Julio	2023-07-28T00:00:00	2024-11-06T20:00:00	5	Humedad	81
110173	7	Sololá	702	San José Chacayá	5	Chacayá	7	Julio	2023-07-28T00:00:00	2024-11-06T20:00:00	6	Velocidad del viento	3.2
110174	7	Sololá	702	San José Chacayá	5	Chacayá	7	Julio	2023-07-28T00:00:00	2024-11-06T20:00:00	7	Dirección del viento	3.22
110175	7	Sololá	702	San José Chacayá	5	Chacayá	7	Julio	2023-07-28T00:00:00	2024-11-06T20:00:00	1	Precipitación	0
110176	7	Sololá	702	San José Chacayá	5	Chacayá	7	Julio	2023-07-28T00:00:00	2024-11-06T20:00:00	8	Radiación solar	0
110177	7	Sololá	702	San José Chacayá	5	Chacayá	7	Julio	2023-07-28T00:00:00	2024-11-06T21:00:00	2	Temperatura media	16.5
110178	7	Sololá	702	San José Chacayá	5	Chacayá	7	Julio	2023-07-28T00:00:00	2024-11-06T21:00:00	4	Temperatura máxima	16.8
110179	7	Sololá	702	San José Chacayá	5	Chacayá	7	Julio	2023-07-28T00:00:00	2024-11-06T21:00:00	3	Temperatura mínima	16.5
110180	7	Sololá	702	San José Chacayá	5	Chacayá	7	Julio	2023-07-28T00:00:00	2024-11-06T21:00:00	5	Humedad	83
110181	7	Sololá	702	San José Chacayá	5	Chacayá	7	Julio	2023-07-28T00:00:00	2024-11-06T21:00:00	6	Velocidad del viento	3.2
110182	7	Sololá	702	San José Chacayá	5	Chacayá	7	Julio	2023-07-28T00:00:00	2024-11-06T21:00:00	7	Dirección del viento	3.22
110183	7	Sololá	702	San José Chacayá	5	Chacayá	7	Julio	2023-07-28T00:00:00	2024-11-06T21:00:00	1	Precipitación	0
110184	7	Sololá	702	San José Chacayá	5	Chacayá	7	Julio	2023-07-28T00:00:00	2024-11-06T21:00:00	8	Radiación solar	0
110185	7	Sololá	702	San José Chacayá	5	Chacayá	7	Julio	2023-07-28T00:00:00	2024-11-06T22:00:00	2	Temperatura media	15.9
110186	7	Sololá	702	San José Chacayá	5	Chacayá	7	Julio	2023-07-28T00:00:00	2024-11-06T22:00:00	4	Temperatura máxima	16.5
110187	7	Sololá	702	San José Chacayá	5	Chacayá	7	Julio	2023-07-28T00:00:00	2024-11-06T22:00:00	3	Temperatura mínima	15.9
110188	7	Sololá	702	San José Chacayá	5	Chacayá	7	Julio	2023-07-28T00:00:00	2024-11-06T22:00:00	5	Humedad	87
110189	7	Sololá	702	San José Chacayá	5	Chacayá	7	Julio	2023-07-28T00:00:00	2024-11-06T22:00:00	6	Velocidad del viento	1.6
110190	7	Sololá	702	San José Chacayá	5	Chacayá	7	Julio	2023-07-28T00:00:00	2024-11-06T22:00:00	7	Dirección del viento	1.61
110191	7	Sololá	702	San José Chacayá	5	Chacayá	7	Julio	2023-07-28T00:00:00	2024-11-06T22:00:00	1	Precipitación	0.2
110192	7	Sololá	702	San José Chacayá	5	Chacayá	7	Julio	2023-07-28T00:00:00	2024-11-06T22:00:00	8	Radiación solar	0
110193	7	Sololá	702	San José Chacayá	5	Chacayá	7	Julio	2023-07-28T00:00:00	2024-11-06T23:00:00	2	Temperatura media	16.4
110194	7	Sololá	702	San José Chacayá	5	Chacayá	7	Julio	2023-07-28T00:00:00	2024-11-06T23:00:00	4	Temperatura máxima	16.4
110195	7	Sololá	702	San José Chacayá	5	Chacayá	7	Julio	2023-07-28T00:00:00	2024-11-06T23:00:00	3	Temperatura mínima	15.7
110196	7	Sololá	702	San José Chacayá	5	Chacayá	7	Julio	2023-07-28T00:00:00	2024-11-06T23:00:00	5	Humedad	73
110197	7	Sololá	702	San José Chacayá	5	Chacayá	7	Julio	2023-07-28T00:00:00	2024-11-06T23:00:00	6	Velocidad del viento	4.8
110198	7	Sololá	702	San José Chacayá	5	Chacayá	7	Julio	2023-07-28T00:00:00	2024-11-06T23:00:00	7	Dirección del viento	4.83
110199	7	Sololá	702	San José Chacayá	5	Chacayá	7	Julio	2023-07-28T00:00:00	2024-11-06T23:00:00	1	Precipitación	0.2
110200	7	Sololá	702	San José Chacayá	5	Chacayá	7	Julio	2023-07-28T00:00:00	2024-11-06T23:00:00	8	Radiación solar	0
110201	7	Sololá	702	San José Chacayá	5	Chacayá	7	Julio	2023-07-29T00:00:00	2024-11-06T00:00:00	2	Temperatura media	16
110202	7	Sololá	702	San José Chacayá	5	Chacayá	7	Julio	2023-07-29T00:00:00	2024-11-06T00:00:00	4	Temperatura máxima	16.6
110203	7	Sololá	702	San José Chacayá	5	Chacayá	7	Julio	2023-07-29T00:00:00	2024-11-06T00:00:00	3	Temperatura mínima	15.8
110204	7	Sololá	702	San José Chacayá	5	Chacayá	7	Julio	2023-07-29T00:00:00	2024-11-06T00:00:00	5	Humedad	73
110205	7	Sololá	702	San José Chacayá	5	Chacayá	7	Julio	2023-07-29T00:00:00	2024-11-06T00:00:00	6	Velocidad del viento	3.2
110206	7	Sololá	702	San José Chacayá	5	Chacayá	7	Julio	2023-07-29T00:00:00	2024-11-06T00:00:00	7	Dirección del viento	3.22
110207	7	Sololá	702	San José Chacayá	5	Chacayá	7	Julio	2023-07-29T00:00:00	2024-11-06T00:00:00	1	Precipitación	0
110208	7	Sololá	702	San José Chacayá	5	Chacayá	7	Julio	2023-07-29T00:00:00	2024-11-06T00:00:00	8	Radiación solar	0
110209	7	Sololá	702	San José Chacayá	5	Chacayá	7	Julio	2023-07-29T00:00:00	2024-11-06T01:00:00	2	Temperatura media	14.4
110210	7	Sololá	702	San José Chacayá	5	Chacayá	7	Julio	2023-07-29T00:00:00	2024-11-06T01:00:00	4	Temperatura máxima	14.9
110211	7	Sololá	702	San José Chacayá	5	Chacayá	7	Julio	2023-07-29T00:00:00	2024-11-06T01:00:00	3	Temperatura mínima	14.4
110212	7	Sololá	702	San José Chacayá	5	Chacayá	7	Julio	2023-07-29T00:00:00	2024-11-06T01:00:00	5	Humedad	83
110213	7	Sololá	702	San José Chacayá	5	Chacayá	7	Julio	2023-07-29T00:00:00	2024-11-06T01:00:00	6	Velocidad del viento	3.2
110214	7	Sololá	702	San José Chacayá	5	Chacayá	7	Julio	2023-07-29T00:00:00	2024-11-06T01:00:00	7	Dirección del viento	3.22
110215	7	Sololá	702	San José Chacayá	5	Chacayá	7	Julio	2023-07-29T00:00:00	2024-11-06T01:00:00	1	Precipitación	0
110216	7	Sololá	702	San José Chacayá	5	Chacayá	7	Julio	2023-07-29T00:00:00	2024-11-06T01:00:00	8	Radiación solar	0
110217	7	Sololá	702	San José Chacayá	5	Chacayá	7	Julio	2023-07-29T00:00:00	2024-11-06T02:00:00	2	Temperatura media	13.8
110218	7	Sololá	702	San José Chacayá	5	Chacayá	7	Julio	2023-07-29T00:00:00	2024-11-06T02:00:00	4	Temperatura máxima	14.4
110219	7	Sololá	702	San José Chacayá	5	Chacayá	7	Julio	2023-07-29T00:00:00	2024-11-06T02:00:00	3	Temperatura mínima	13.7
110220	7	Sololá	702	San José Chacayá	5	Chacayá	7	Julio	2023-07-29T00:00:00	2024-11-06T02:00:00	5	Humedad	83
110221	7	Sololá	702	San José Chacayá	5	Chacayá	7	Julio	2023-07-29T00:00:00	2024-11-06T02:00:00	6	Velocidad del viento	1.6
110222	7	Sololá	702	San José Chacayá	5	Chacayá	7	Julio	2023-07-29T00:00:00	2024-11-06T02:00:00	7	Dirección del viento	1.61
110223	7	Sololá	702	San José Chacayá	5	Chacayá	7	Julio	2023-07-29T00:00:00	2024-11-06T02:00:00	1	Precipitación	0
110224	7	Sololá	702	San José Chacayá	5	Chacayá	7	Julio	2023-07-29T00:00:00	2024-11-06T02:00:00	8	Radiación solar	0
110225	7	Sololá	702	San José Chacayá	5	Chacayá	7	Julio	2023-07-29T00:00:00	2024-11-06T03:00:00	2	Temperatura media	13.2
110226	7	Sololá	702	San José Chacayá	5	Chacayá	7	Julio	2023-07-29T00:00:00	2024-11-06T03:00:00	4	Temperatura máxima	13.7
110227	7	Sololá	702	San José Chacayá	5	Chacayá	7	Julio	2023-07-29T00:00:00	2024-11-06T03:00:00	3	Temperatura mínima	13.2
110228	7	Sololá	702	San José Chacayá	5	Chacayá	7	Julio	2023-07-29T00:00:00	2024-11-06T03:00:00	5	Humedad	84
110229	7	Sololá	702	San José Chacayá	5	Chacayá	7	Julio	2023-07-29T00:00:00	2024-11-06T03:00:00	6	Velocidad del viento	0
110230	7	Sololá	702	San José Chacayá	5	Chacayá	7	Julio	2023-07-29T00:00:00	2024-11-06T03:00:00	7	Dirección del viento	0
110231	7	Sololá	702	San José Chacayá	5	Chacayá	7	Julio	2023-07-29T00:00:00	2024-11-06T03:00:00	1	Precipitación	0
110232	7	Sololá	702	San José Chacayá	5	Chacayá	7	Julio	2023-07-29T00:00:00	2024-11-06T03:00:00	8	Radiación solar	0
110233	7	Sololá	702	San José Chacayá	5	Chacayá	7	Julio	2023-07-29T00:00:00	2024-11-06T04:00:00	2	Temperatura media	13.5
110234	7	Sololá	702	San José Chacayá	5	Chacayá	7	Julio	2023-07-29T00:00:00	2024-11-06T04:00:00	4	Temperatura máxima	13.5
110235	7	Sololá	702	San José Chacayá	5	Chacayá	7	Julio	2023-07-29T00:00:00	2024-11-06T04:00:00	3	Temperatura mínima	13.2
110236	7	Sololá	702	San José Chacayá	5	Chacayá	7	Julio	2023-07-29T00:00:00	2024-11-06T04:00:00	5	Humedad	84
110237	7	Sololá	702	San José Chacayá	5	Chacayá	7	Julio	2023-07-29T00:00:00	2024-11-06T04:00:00	6	Velocidad del viento	1.6
110238	7	Sololá	702	San José Chacayá	5	Chacayá	7	Julio	2023-07-29T00:00:00	2024-11-06T04:00:00	7	Dirección del viento	1.61
110239	7	Sololá	702	San José Chacayá	5	Chacayá	7	Julio	2023-07-29T00:00:00	2024-11-06T04:00:00	1	Precipitación	0
110240	7	Sololá	702	San José Chacayá	5	Chacayá	7	Julio	2023-07-29T00:00:00	2024-11-06T04:00:00	8	Radiación solar	0
110241	7	Sololá	702	San José Chacayá	5	Chacayá	7	Julio	2023-07-29T00:00:00	2024-11-06T05:00:00	2	Temperatura media	13.4
110242	7	Sololá	702	San José Chacayá	5	Chacayá	7	Julio	2023-07-29T00:00:00	2024-11-06T05:00:00	4	Temperatura máxima	13.6
110243	7	Sololá	702	San José Chacayá	5	Chacayá	7	Julio	2023-07-29T00:00:00	2024-11-06T05:00:00	3	Temperatura mínima	13.4
110244	7	Sololá	702	San José Chacayá	5	Chacayá	7	Julio	2023-07-29T00:00:00	2024-11-06T05:00:00	5	Humedad	84
110245	7	Sololá	702	San José Chacayá	5	Chacayá	7	Julio	2023-07-29T00:00:00	2024-11-06T05:00:00	6	Velocidad del viento	1.6
110246	7	Sololá	702	San José Chacayá	5	Chacayá	7	Julio	2023-07-29T00:00:00	2024-11-06T05:00:00	7	Dirección del viento	1.61
110247	7	Sololá	702	San José Chacayá	5	Chacayá	7	Julio	2023-07-29T00:00:00	2024-11-06T05:00:00	1	Precipitación	0.2
110248	7	Sololá	702	San José Chacayá	5	Chacayá	7	Julio	2023-07-29T00:00:00	2024-11-06T05:00:00	8	Radiación solar	0
110249	7	Sololá	702	San José Chacayá	5	Chacayá	7	Julio	2023-07-29T00:00:00	2024-11-06T06:00:00	2	Temperatura media	13.6
110250	7	Sololá	702	San José Chacayá	5	Chacayá	7	Julio	2023-07-29T00:00:00	2024-11-06T06:00:00	4	Temperatura máxima	13.6
110251	7	Sololá	702	San José Chacayá	5	Chacayá	7	Julio	2023-07-29T00:00:00	2024-11-06T06:00:00	3	Temperatura mínima	13.4
110252	7	Sololá	702	San José Chacayá	5	Chacayá	7	Julio	2023-07-29T00:00:00	2024-11-06T06:00:00	5	Humedad	84
110253	7	Sololá	702	San José Chacayá	5	Chacayá	7	Julio	2023-07-29T00:00:00	2024-11-06T06:00:00	6	Velocidad del viento	1.6
110254	7	Sololá	702	San José Chacayá	5	Chacayá	7	Julio	2023-07-29T00:00:00	2024-11-06T06:00:00	7	Dirección del viento	1.61
110255	7	Sololá	702	San José Chacayá	5	Chacayá	7	Julio	2023-07-29T00:00:00	2024-11-06T06:00:00	1	Precipitación	0.2
110256	7	Sololá	702	San José Chacayá	5	Chacayá	7	Julio	2023-07-29T00:00:00	2024-11-06T06:00:00	8	Radiación solar	2
110257	7	Sololá	702	San José Chacayá	5	Chacayá	7	Julio	2023-07-29T00:00:00	2024-11-06T07:00:00	2	Temperatura media	14.5
110258	7	Sololá	702	San José Chacayá	5	Chacayá	7	Julio	2023-07-29T00:00:00	2024-11-06T07:00:00	4	Temperatura máxima	14.5
110259	7	Sololá	702	San José Chacayá	5	Chacayá	7	Julio	2023-07-29T00:00:00	2024-11-06T07:00:00	3	Temperatura mínima	13.6
110260	7	Sololá	702	San José Chacayá	5	Chacayá	7	Julio	2023-07-29T00:00:00	2024-11-06T07:00:00	5	Humedad	82
110261	7	Sololá	702	San José Chacayá	5	Chacayá	7	Julio	2023-07-29T00:00:00	2024-11-06T07:00:00	6	Velocidad del viento	3.2
110262	7	Sololá	702	San José Chacayá	5	Chacayá	7	Julio	2023-07-29T00:00:00	2024-11-06T07:00:00	7	Dirección del viento	3.22
110263	7	Sololá	702	San José Chacayá	5	Chacayá	7	Julio	2023-07-29T00:00:00	2024-11-06T07:00:00	1	Precipitación	0
110264	7	Sololá	702	San José Chacayá	5	Chacayá	7	Julio	2023-07-29T00:00:00	2024-11-06T07:00:00	8	Radiación solar	63
110265	7	Sololá	702	San José Chacayá	5	Chacayá	7	Julio	2023-07-29T00:00:00	2024-11-06T08:00:00	2	Temperatura media	16.9
110266	7	Sololá	702	San José Chacayá	5	Chacayá	7	Julio	2023-07-29T00:00:00	2024-11-06T08:00:00	4	Temperatura máxima	16.9
110267	7	Sololá	702	San José Chacayá	5	Chacayá	7	Julio	2023-07-29T00:00:00	2024-11-06T08:00:00	3	Temperatura mínima	16.3
110268	7	Sololá	702	San José Chacayá	5	Chacayá	7	Julio	2023-07-29T00:00:00	2024-11-06T08:00:00	5	Humedad	82
110269	7	Sololá	702	San José Chacayá	5	Chacayá	7	Julio	2023-07-29T00:00:00	2024-11-06T08:00:00	6	Velocidad del viento	4.8
110270	7	Sololá	702	San José Chacayá	5	Chacayá	7	Julio	2023-07-29T00:00:00	2024-11-06T08:00:00	7	Dirección del viento	4.83
110271	7	Sololá	702	San José Chacayá	5	Chacayá	7	Julio	2023-07-29T00:00:00	2024-11-06T08:00:00	1	Precipitación	0
110272	7	Sololá	702	San José Chacayá	5	Chacayá	7	Julio	2023-07-29T00:00:00	2024-11-06T08:00:00	8	Radiación solar	316
110273	7	Sololá	702	San José Chacayá	5	Chacayá	7	Julio	2023-07-29T00:00:00	2024-11-06T09:00:00	2	Temperatura media	16.9
110274	7	Sololá	702	San José Chacayá	5	Chacayá	7	Julio	2023-07-29T00:00:00	2024-11-06T09:00:00	4	Temperatura máxima	17.4
110275	7	Sololá	702	San José Chacayá	5	Chacayá	7	Julio	2023-07-29T00:00:00	2024-11-06T09:00:00	3	Temperatura mínima	16.5
110276	7	Sololá	702	San José Chacayá	5	Chacayá	7	Julio	2023-07-29T00:00:00	2024-11-06T09:00:00	5	Humedad	82
110277	7	Sololá	702	San José Chacayá	5	Chacayá	7	Julio	2023-07-29T00:00:00	2024-11-06T09:00:00	6	Velocidad del viento	4.8
110278	7	Sololá	702	San José Chacayá	5	Chacayá	7	Julio	2023-07-29T00:00:00	2024-11-06T09:00:00	7	Dirección del viento	4.83
110279	7	Sololá	702	San José Chacayá	5	Chacayá	7	Julio	2023-07-29T00:00:00	2024-11-06T09:00:00	1	Precipitación	0
110280	7	Sololá	702	San José Chacayá	5	Chacayá	7	Julio	2023-07-29T00:00:00	2024-11-06T09:00:00	8	Radiación solar	278
110281	7	Sololá	702	San José Chacayá	5	Chacayá	7	Julio	2023-07-29T00:00:00	2024-11-06T10:00:00	2	Temperatura media	17.2
110282	7	Sololá	702	San José Chacayá	5	Chacayá	7	Julio	2023-07-29T00:00:00	2024-11-06T10:00:00	4	Temperatura máxima	17.6
110283	7	Sololá	702	San José Chacayá	5	Chacayá	7	Julio	2023-07-29T00:00:00	2024-11-06T10:00:00	3	Temperatura mínima	16.8
110284	7	Sololá	702	San José Chacayá	5	Chacayá	7	Julio	2023-07-29T00:00:00	2024-11-06T10:00:00	5	Humedad	81
110285	7	Sololá	702	San José Chacayá	5	Chacayá	7	Julio	2023-07-29T00:00:00	2024-11-06T10:00:00	6	Velocidad del viento	3.2
110286	7	Sololá	702	San José Chacayá	5	Chacayá	7	Julio	2023-07-29T00:00:00	2024-11-06T10:00:00	7	Dirección del viento	3.22
110287	7	Sololá	702	San José Chacayá	5	Chacayá	7	Julio	2023-07-29T00:00:00	2024-11-06T10:00:00	1	Precipitación	0
110288	7	Sololá	702	San José Chacayá	5	Chacayá	7	Julio	2023-07-29T00:00:00	2024-11-06T10:00:00	8	Radiación solar	239
110289	7	Sololá	702	San José Chacayá	5	Chacayá	7	Julio	2023-07-29T00:00:00	2024-11-06T11:00:00	2	Temperatura media	18.1
110290	7	Sololá	702	San José Chacayá	5	Chacayá	7	Julio	2023-07-29T00:00:00	2024-11-06T11:00:00	4	Temperatura máxima	18.3
110291	7	Sololá	702	San José Chacayá	5	Chacayá	7	Julio	2023-07-29T00:00:00	2024-11-06T11:00:00	3	Temperatura mínima	17
110292	7	Sololá	702	San José Chacayá	5	Chacayá	7	Julio	2023-07-29T00:00:00	2024-11-06T11:00:00	5	Humedad	78
110293	7	Sololá	702	San José Chacayá	5	Chacayá	7	Julio	2023-07-29T00:00:00	2024-11-06T11:00:00	6	Velocidad del viento	3.2
110294	7	Sololá	702	San José Chacayá	5	Chacayá	7	Julio	2023-07-29T00:00:00	2024-11-06T11:00:00	7	Dirección del viento	3.22
110295	7	Sololá	702	San José Chacayá	5	Chacayá	7	Julio	2023-07-29T00:00:00	2024-11-06T11:00:00	1	Precipitación	0
110296	7	Sololá	702	San José Chacayá	5	Chacayá	7	Julio	2023-07-29T00:00:00	2024-11-06T11:00:00	8	Radiación solar	243
110297	7	Sololá	702	San José Chacayá	5	Chacayá	7	Julio	2023-07-29T00:00:00	2024-11-06T12:00:00	2	Temperatura media	15.4
110298	7	Sololá	702	San José Chacayá	5	Chacayá	7	Julio	2023-07-29T00:00:00	2024-11-06T12:00:00	4	Temperatura máxima	18.1
110299	7	Sololá	702	San José Chacayá	5	Chacayá	7	Julio	2023-07-29T00:00:00	2024-11-06T12:00:00	3	Temperatura mínima	15.4
110300	7	Sololá	702	San José Chacayá	5	Chacayá	7	Julio	2023-07-29T00:00:00	2024-11-06T12:00:00	5	Humedad	78
110301	7	Sololá	702	San José Chacayá	5	Chacayá	7	Julio	2023-07-29T00:00:00	2024-11-06T12:00:00	6	Velocidad del viento	4.8
110302	7	Sololá	702	San José Chacayá	5	Chacayá	7	Julio	2023-07-29T00:00:00	2024-11-06T12:00:00	7	Dirección del viento	4.83
110303	7	Sololá	702	San José Chacayá	5	Chacayá	7	Julio	2023-07-29T00:00:00	2024-11-06T12:00:00	1	Precipitación	6.4
110304	7	Sololá	702	San José Chacayá	5	Chacayá	7	Julio	2023-07-29T00:00:00	2024-11-06T12:00:00	8	Radiación solar	92
110305	7	Sololá	702	San José Chacayá	5	Chacayá	7	Julio	2023-07-29T00:00:00	2024-11-06T13:00:00	2	Temperatura media	15.3
110306	7	Sololá	702	San José Chacayá	5	Chacayá	7	Julio	2023-07-29T00:00:00	2024-11-06T13:00:00	4	Temperatura máxima	16
110307	7	Sololá	702	San José Chacayá	5	Chacayá	7	Julio	2023-07-29T00:00:00	2024-11-06T13:00:00	3	Temperatura mínima	15.3
110308	7	Sololá	702	San José Chacayá	5	Chacayá	7	Julio	2023-07-29T00:00:00	2024-11-06T13:00:00	5	Humedad	69
110309	7	Sololá	702	San José Chacayá	5	Chacayá	7	Julio	2023-07-29T00:00:00	2024-11-06T13:00:00	6	Velocidad del viento	1.6
110310	7	Sololá	702	San José Chacayá	5	Chacayá	7	Julio	2023-07-29T00:00:00	2024-11-06T13:00:00	7	Dirección del viento	1.61
110311	7	Sololá	702	San José Chacayá	5	Chacayá	7	Julio	2023-07-29T00:00:00	2024-11-06T13:00:00	1	Precipitación	5.2
110312	7	Sololá	702	San José Chacayá	5	Chacayá	7	Julio	2023-07-29T00:00:00	2024-11-06T13:00:00	8	Radiación solar	163
110313	7	Sololá	702	San José Chacayá	5	Chacayá	7	Julio	2023-07-29T00:00:00	2024-11-06T14:00:00	2	Temperatura media	17.6
110314	7	Sololá	702	San José Chacayá	5	Chacayá	7	Julio	2023-07-29T00:00:00	2024-11-06T14:00:00	4	Temperatura máxima	17.6
110315	7	Sololá	702	San José Chacayá	5	Chacayá	7	Julio	2023-07-29T00:00:00	2024-11-06T14:00:00	3	Temperatura mínima	15.2
110316	7	Sololá	702	San José Chacayá	5	Chacayá	7	Julio	2023-07-29T00:00:00	2024-11-06T14:00:00	5	Humedad	79
110317	7	Sololá	702	San José Chacayá	5	Chacayá	7	Julio	2023-07-29T00:00:00	2024-11-06T14:00:00	6	Velocidad del viento	0
110318	7	Sololá	702	San José Chacayá	5	Chacayá	7	Julio	2023-07-29T00:00:00	2024-11-06T14:00:00	7	Dirección del viento	0
110319	7	Sololá	702	San José Chacayá	5	Chacayá	7	Julio	2023-07-29T00:00:00	2024-11-06T14:00:00	1	Precipitación	1
110320	7	Sololá	702	San José Chacayá	5	Chacayá	7	Julio	2023-07-29T00:00:00	2024-11-06T14:00:00	8	Radiación solar	327
110321	7	Sololá	702	San José Chacayá	5	Chacayá	7	Julio	2023-07-29T00:00:00	2024-11-06T15:00:00	2	Temperatura media	18.6
110322	7	Sololá	702	San José Chacayá	5	Chacayá	7	Julio	2023-07-29T00:00:00	2024-11-06T15:00:00	4	Temperatura máxima	18.8
110323	7	Sololá	702	San José Chacayá	5	Chacayá	7	Julio	2023-07-29T00:00:00	2024-11-06T15:00:00	3	Temperatura mínima	17.7
110324	7	Sololá	702	San José Chacayá	5	Chacayá	7	Julio	2023-07-29T00:00:00	2024-11-06T15:00:00	5	Humedad	81
110325	7	Sololá	702	San José Chacayá	5	Chacayá	7	Julio	2023-07-29T00:00:00	2024-11-06T15:00:00	6	Velocidad del viento	1.6
110326	7	Sololá	702	San José Chacayá	5	Chacayá	7	Julio	2023-07-29T00:00:00	2024-11-06T15:00:00	7	Dirección del viento	1.61
110327	7	Sololá	702	San José Chacayá	5	Chacayá	7	Julio	2023-07-29T00:00:00	2024-11-06T15:00:00	1	Precipitación	0
110328	7	Sololá	702	San José Chacayá	5	Chacayá	7	Julio	2023-07-29T00:00:00	2024-11-06T15:00:00	8	Radiación solar	338
110329	7	Sololá	702	San José Chacayá	5	Chacayá	7	Julio	2023-07-29T00:00:00	2024-11-06T16:00:00	2	Temperatura media	18.4
110330	7	Sololá	702	San José Chacayá	5	Chacayá	7	Julio	2023-07-29T00:00:00	2024-11-06T16:00:00	4	Temperatura máxima	19.3
110331	7	Sololá	702	San José Chacayá	5	Chacayá	7	Julio	2023-07-29T00:00:00	2024-11-06T16:00:00	3	Temperatura mínima	18.4
110332	7	Sololá	702	San José Chacayá	5	Chacayá	7	Julio	2023-07-29T00:00:00	2024-11-06T16:00:00	5	Humedad	79
110333	7	Sololá	702	San José Chacayá	5	Chacayá	7	Julio	2023-07-29T00:00:00	2024-11-06T16:00:00	6	Velocidad del viento	3.2
110334	7	Sololá	702	San José Chacayá	5	Chacayá	7	Julio	2023-07-29T00:00:00	2024-11-06T16:00:00	7	Dirección del viento	3.22
110335	7	Sololá	702	San José Chacayá	5	Chacayá	7	Julio	2023-07-29T00:00:00	2024-11-06T16:00:00	1	Precipitación	0
110336	7	Sololá	702	San José Chacayá	5	Chacayá	7	Julio	2023-07-29T00:00:00	2024-11-06T16:00:00	8	Radiación solar	234
110337	7	Sololá	702	San José Chacayá	5	Chacayá	7	Julio	2023-07-29T00:00:00	2024-11-06T17:00:00	2	Temperatura media	17.1
110338	7	Sololá	702	San José Chacayá	5	Chacayá	7	Julio	2023-07-29T00:00:00	2024-11-06T17:00:00	4	Temperatura máxima	18.4
110339	7	Sololá	702	San José Chacayá	5	Chacayá	7	Julio	2023-07-29T00:00:00	2024-11-06T17:00:00	3	Temperatura mínima	17.1
110340	7	Sololá	702	San José Chacayá	5	Chacayá	7	Julio	2023-07-29T00:00:00	2024-11-06T17:00:00	5	Humedad	82
110341	7	Sololá	702	San José Chacayá	5	Chacayá	7	Julio	2023-07-29T00:00:00	2024-11-06T17:00:00	6	Velocidad del viento	1.6
110342	7	Sololá	702	San José Chacayá	5	Chacayá	7	Julio	2023-07-29T00:00:00	2024-11-06T17:00:00	7	Dirección del viento	1.61
110343	7	Sololá	702	San José Chacayá	5	Chacayá	7	Julio	2023-07-29T00:00:00	2024-11-06T17:00:00	1	Precipitación	0.4
110344	7	Sololá	702	San José Chacayá	5	Chacayá	7	Julio	2023-07-29T00:00:00	2024-11-06T17:00:00	8	Radiación solar	78
110345	7	Sololá	702	San José Chacayá	5	Chacayá	7	Julio	2023-07-29T00:00:00	2024-11-06T18:00:00	2	Temperatura media	15.7
110346	7	Sololá	702	San José Chacayá	5	Chacayá	7	Julio	2023-07-29T00:00:00	2024-11-06T18:00:00	4	Temperatura máxima	16.4
110347	7	Sololá	702	San José Chacayá	5	Chacayá	7	Julio	2023-07-29T00:00:00	2024-11-06T18:00:00	3	Temperatura mínima	15.7
110348	7	Sololá	702	San José Chacayá	5	Chacayá	7	Julio	2023-07-29T00:00:00	2024-11-06T18:00:00	5	Humedad	84
110349	7	Sololá	702	San José Chacayá	5	Chacayá	7	Julio	2023-07-29T00:00:00	2024-11-06T18:00:00	6	Velocidad del viento	1.6
110350	7	Sololá	702	San José Chacayá	5	Chacayá	7	Julio	2023-07-29T00:00:00	2024-11-06T18:00:00	7	Dirección del viento	1.61
110351	7	Sololá	702	San José Chacayá	5	Chacayá	7	Julio	2023-07-29T00:00:00	2024-11-06T18:00:00	1	Precipitación	0.4
110352	7	Sololá	702	San José Chacayá	5	Chacayá	7	Julio	2023-07-29T00:00:00	2024-11-06T18:00:00	8	Radiación solar	64
110353	7	Sololá	702	San José Chacayá	5	Chacayá	7	Julio	2023-07-29T00:00:00	2024-11-06T19:00:00	2	Temperatura media	14.4
110354	7	Sololá	702	San José Chacayá	5	Chacayá	7	Julio	2023-07-29T00:00:00	2024-11-06T19:00:00	4	Temperatura máxima	15.7
110355	7	Sololá	702	San José Chacayá	5	Chacayá	7	Julio	2023-07-29T00:00:00	2024-11-06T19:00:00	3	Temperatura mínima	14.4
110356	7	Sololá	702	San José Chacayá	5	Chacayá	7	Julio	2023-07-29T00:00:00	2024-11-06T19:00:00	5	Humedad	79
110357	7	Sololá	702	San José Chacayá	5	Chacayá	7	Julio	2023-07-29T00:00:00	2024-11-06T19:00:00	6	Velocidad del viento	1.6
110358	7	Sololá	702	San José Chacayá	5	Chacayá	7	Julio	2023-07-29T00:00:00	2024-11-06T19:00:00	7	Dirección del viento	1.61
110359	7	Sololá	702	San José Chacayá	5	Chacayá	7	Julio	2023-07-29T00:00:00	2024-11-06T19:00:00	1	Precipitación	0
110360	7	Sololá	702	San José Chacayá	5	Chacayá	7	Julio	2023-07-29T00:00:00	2024-11-06T19:00:00	8	Radiación solar	0
110361	7	Sololá	702	San José Chacayá	5	Chacayá	7	Julio	2023-07-29T00:00:00	2024-11-06T20:00:00	2	Temperatura media	14.3
110362	7	Sololá	702	San José Chacayá	5	Chacayá	7	Julio	2023-07-29T00:00:00	2024-11-06T20:00:00	4	Temperatura máxima	14.3
110363	7	Sololá	702	San José Chacayá	5	Chacayá	7	Julio	2023-07-29T00:00:00	2024-11-06T20:00:00	3	Temperatura mínima	14.3
110364	7	Sololá	702	San José Chacayá	5	Chacayá	7	Julio	2023-07-29T00:00:00	2024-11-06T20:00:00	5	Humedad	92
110365	7	Sololá	702	San José Chacayá	5	Chacayá	7	Julio	2023-07-29T00:00:00	2024-11-06T20:00:00	6	Velocidad del viento	0
110366	7	Sololá	702	San José Chacayá	5	Chacayá	7	Julio	2023-07-29T00:00:00	2024-11-06T20:00:00	7	Dirección del viento	0
110367	7	Sololá	702	San José Chacayá	5	Chacayá	7	Julio	2023-07-29T00:00:00	2024-11-06T20:00:00	1	Precipitación	5.8
110368	7	Sololá	702	San José Chacayá	5	Chacayá	7	Julio	2023-07-29T00:00:00	2024-11-06T20:00:00	8	Radiación solar	0
110369	7	Sololá	702	San José Chacayá	5	Chacayá	7	Julio	2023-07-29T00:00:00	2024-11-06T21:00:00	2	Temperatura media	14.3
110370	7	Sololá	702	San José Chacayá	5	Chacayá	7	Julio	2023-07-29T00:00:00	2024-11-06T21:00:00	4	Temperatura máxima	14.3
110371	7	Sololá	702	San José Chacayá	5	Chacayá	7	Julio	2023-07-29T00:00:00	2024-11-06T21:00:00	3	Temperatura mínima	14.2
110372	7	Sololá	702	San José Chacayá	5	Chacayá	7	Julio	2023-07-29T00:00:00	2024-11-06T21:00:00	5	Humedad	50
110373	7	Sololá	702	San José Chacayá	5	Chacayá	7	Julio	2023-07-29T00:00:00	2024-11-06T21:00:00	6	Velocidad del viento	0
110374	7	Sololá	702	San José Chacayá	5	Chacayá	7	Julio	2023-07-29T00:00:00	2024-11-06T21:00:00	7	Dirección del viento	0
110375	7	Sololá	702	San José Chacayá	5	Chacayá	7	Julio	2023-07-29T00:00:00	2024-11-06T21:00:00	1	Precipitación	3.8
110376	7	Sololá	702	San José Chacayá	5	Chacayá	7	Julio	2023-07-29T00:00:00	2024-11-06T21:00:00	8	Radiación solar	0
110377	7	Sololá	702	San José Chacayá	5	Chacayá	7	Julio	2023-07-29T00:00:00	2024-11-06T22:00:00	2	Temperatura media	13.9
110378	7	Sololá	702	San José Chacayá	5	Chacayá	7	Julio	2023-07-29T00:00:00	2024-11-06T22:00:00	4	Temperatura máxima	14.3
110379	7	Sololá	702	San José Chacayá	5	Chacayá	7	Julio	2023-07-29T00:00:00	2024-11-06T22:00:00	3	Temperatura mínima	13.9
110380	7	Sololá	702	San José Chacayá	5	Chacayá	7	Julio	2023-07-29T00:00:00	2024-11-06T22:00:00	5	Humedad	49
110381	7	Sololá	702	San José Chacayá	5	Chacayá	7	Julio	2023-07-29T00:00:00	2024-11-06T22:00:00	6	Velocidad del viento	1.6
110382	7	Sololá	702	San José Chacayá	5	Chacayá	7	Julio	2023-07-29T00:00:00	2024-11-06T22:00:00	7	Dirección del viento	1.61
110383	7	Sololá	702	San José Chacayá	5	Chacayá	7	Julio	2023-07-29T00:00:00	2024-11-06T22:00:00	1	Precipitación	0.8
110384	7	Sololá	702	San José Chacayá	5	Chacayá	7	Julio	2023-07-29T00:00:00	2024-11-06T22:00:00	8	Radiación solar	0
110385	7	Sololá	702	San José Chacayá	5	Chacayá	7	Julio	2023-07-29T00:00:00	2024-11-06T23:00:00	2	Temperatura media	13.8
110386	7	Sololá	702	San José Chacayá	5	Chacayá	7	Julio	2023-07-29T00:00:00	2024-11-06T23:00:00	4	Temperatura máxima	13.9
110387	7	Sololá	702	San José Chacayá	5	Chacayá	7	Julio	2023-07-29T00:00:00	2024-11-06T23:00:00	3	Temperatura mínima	13.8
110388	7	Sololá	702	San José Chacayá	5	Chacayá	7	Julio	2023-07-29T00:00:00	2024-11-06T23:00:00	5	Humedad	54
110389	7	Sololá	702	San José Chacayá	5	Chacayá	7	Julio	2023-07-29T00:00:00	2024-11-06T23:00:00	6	Velocidad del viento	1.6
110390	7	Sololá	702	San José Chacayá	5	Chacayá	7	Julio	2023-07-29T00:00:00	2024-11-06T23:00:00	7	Dirección del viento	1.61
110391	7	Sololá	702	San José Chacayá	5	Chacayá	7	Julio	2023-07-29T00:00:00	2024-11-06T23:00:00	1	Precipitación	0
110392	7	Sololá	702	San José Chacayá	5	Chacayá	7	Julio	2023-07-29T00:00:00	2024-11-06T23:00:00	8	Radiación solar	0
110393	7	Sololá	702	San José Chacayá	5	Chacayá	7	Julio	2023-07-30T00:00:00	2024-11-06T00:00:00	2	Temperatura media	14.4
110394	7	Sololá	702	San José Chacayá	5	Chacayá	7	Julio	2023-07-30T00:00:00	2024-11-06T00:00:00	4	Temperatura máxima	14.4
110395	7	Sololá	702	San José Chacayá	5	Chacayá	7	Julio	2023-07-30T00:00:00	2024-11-06T00:00:00	3	Temperatura mínima	13.8
110396	7	Sololá	702	San José Chacayá	5	Chacayá	7	Julio	2023-07-30T00:00:00	2024-11-06T00:00:00	5	Humedad	57
110397	7	Sololá	702	San José Chacayá	5	Chacayá	7	Julio	2023-07-30T00:00:00	2024-11-06T00:00:00	6	Velocidad del viento	1.6
110398	7	Sololá	702	San José Chacayá	5	Chacayá	7	Julio	2023-07-30T00:00:00	2024-11-06T00:00:00	7	Dirección del viento	1.61
110399	7	Sololá	702	San José Chacayá	5	Chacayá	7	Julio	2023-07-30T00:00:00	2024-11-06T00:00:00	1	Precipitación	0
110400	7	Sololá	702	San José Chacayá	5	Chacayá	7	Julio	2023-07-30T00:00:00	2024-11-06T00:00:00	8	Radiación solar	0
110401	7	Sololá	702	San José Chacayá	5	Chacayá	7	Julio	2023-07-30T00:00:00	2024-11-06T01:00:00	2	Temperatura media	13.9
110402	7	Sololá	702	San José Chacayá	5	Chacayá	7	Julio	2023-07-30T00:00:00	2024-11-06T01:00:00	4	Temperatura máxima	14.6
110403	7	Sololá	702	San José Chacayá	5	Chacayá	7	Julio	2023-07-30T00:00:00	2024-11-06T01:00:00	3	Temperatura mínima	13.9
110404	7	Sololá	702	San José Chacayá	5	Chacayá	7	Julio	2023-07-30T00:00:00	2024-11-06T01:00:00	5	Humedad	75
110405	7	Sololá	702	San José Chacayá	5	Chacayá	7	Julio	2023-07-30T00:00:00	2024-11-06T01:00:00	6	Velocidad del viento	1.6
110406	7	Sololá	702	San José Chacayá	5	Chacayá	7	Julio	2023-07-30T00:00:00	2024-11-06T01:00:00	7	Dirección del viento	1.61
110407	7	Sololá	702	San José Chacayá	5	Chacayá	7	Julio	2023-07-30T00:00:00	2024-11-06T01:00:00	1	Precipitación	0
110408	7	Sololá	702	San José Chacayá	5	Chacayá	7	Julio	2023-07-30T00:00:00	2024-11-06T01:00:00	8	Radiación solar	0
110409	7	Sololá	702	San José Chacayá	5	Chacayá	7	Julio	2023-07-30T00:00:00	2024-11-06T02:00:00	2	Temperatura media	12.9
110410	7	Sololá	702	San José Chacayá	5	Chacayá	7	Julio	2023-07-30T00:00:00	2024-11-06T02:00:00	4	Temperatura máxima	13.9
110411	7	Sololá	702	San José Chacayá	5	Chacayá	7	Julio	2023-07-30T00:00:00	2024-11-06T02:00:00	3	Temperatura mínima	12.9
110412	7	Sololá	702	San José Chacayá	5	Chacayá	7	Julio	2023-07-30T00:00:00	2024-11-06T02:00:00	5	Humedad	63
110413	7	Sololá	702	San José Chacayá	5	Chacayá	7	Julio	2023-07-30T00:00:00	2024-11-06T02:00:00	6	Velocidad del viento	0
110414	7	Sololá	702	San José Chacayá	5	Chacayá	7	Julio	2023-07-30T00:00:00	2024-11-06T02:00:00	7	Dirección del viento	0
110415	7	Sololá	702	San José Chacayá	5	Chacayá	7	Julio	2023-07-30T00:00:00	2024-11-06T02:00:00	1	Precipitación	0
110416	7	Sololá	702	San José Chacayá	5	Chacayá	7	Julio	2023-07-30T00:00:00	2024-11-06T02:00:00	8	Radiación solar	0
110417	7	Sololá	702	San José Chacayá	5	Chacayá	7	Julio	2023-07-30T00:00:00	2024-11-06T03:00:00	2	Temperatura media	12.2
110418	7	Sololá	702	San José Chacayá	5	Chacayá	7	Julio	2023-07-30T00:00:00	2024-11-06T03:00:00	4	Temperatura máxima	12.9
110419	7	Sololá	702	San José Chacayá	5	Chacayá	7	Julio	2023-07-30T00:00:00	2024-11-06T03:00:00	3	Temperatura mínima	12.2
110420	7	Sololá	702	San José Chacayá	5	Chacayá	7	Julio	2023-07-30T00:00:00	2024-11-06T03:00:00	5	Humedad	58
110421	7	Sololá	702	San José Chacayá	5	Chacayá	7	Julio	2023-07-30T00:00:00	2024-11-06T03:00:00	6	Velocidad del viento	1.6
110422	7	Sololá	702	San José Chacayá	5	Chacayá	7	Julio	2023-07-30T00:00:00	2024-11-06T03:00:00	7	Dirección del viento	1.61
110423	7	Sololá	702	San José Chacayá	5	Chacayá	7	Julio	2023-07-30T00:00:00	2024-11-06T03:00:00	1	Precipitación	0
110424	7	Sololá	702	San José Chacayá	5	Chacayá	7	Julio	2023-07-30T00:00:00	2024-11-06T03:00:00	8	Radiación solar	0
110425	7	Sololá	702	San José Chacayá	5	Chacayá	7	Julio	2023-07-30T00:00:00	2024-11-06T04:00:00	2	Temperatura media	11.9
110426	7	Sololá	702	San José Chacayá	5	Chacayá	7	Julio	2023-07-30T00:00:00	2024-11-06T04:00:00	4	Temperatura máxima	12.2
110427	7	Sololá	702	San José Chacayá	5	Chacayá	7	Julio	2023-07-30T00:00:00	2024-11-06T04:00:00	3	Temperatura mínima	11.9
110428	7	Sololá	702	San José Chacayá	5	Chacayá	7	Julio	2023-07-30T00:00:00	2024-11-06T04:00:00	5	Humedad	56
110429	7	Sololá	702	San José Chacayá	5	Chacayá	7	Julio	2023-07-30T00:00:00	2024-11-06T04:00:00	6	Velocidad del viento	1.6
110430	7	Sololá	702	San José Chacayá	5	Chacayá	7	Julio	2023-07-30T00:00:00	2024-11-06T04:00:00	7	Dirección del viento	1.61
110431	7	Sololá	702	San José Chacayá	5	Chacayá	7	Julio	2023-07-30T00:00:00	2024-11-06T04:00:00	1	Precipitación	0
110432	7	Sololá	702	San José Chacayá	5	Chacayá	7	Julio	2023-07-30T00:00:00	2024-11-06T04:00:00	8	Radiación solar	0
110433	7	Sololá	702	San José Chacayá	5	Chacayá	7	Julio	2023-07-30T00:00:00	2024-11-06T05:00:00	2	Temperatura media	11.6
110434	7	Sololá	702	San José Chacayá	5	Chacayá	7	Julio	2023-07-30T00:00:00	2024-11-06T05:00:00	4	Temperatura máxima	12
110435	7	Sololá	702	San José Chacayá	5	Chacayá	7	Julio	2023-07-30T00:00:00	2024-11-06T05:00:00	3	Temperatura mínima	11.6
110436	7	Sololá	702	San José Chacayá	5	Chacayá	7	Julio	2023-07-30T00:00:00	2024-11-06T05:00:00	5	Humedad	55
110437	7	Sololá	702	San José Chacayá	5	Chacayá	7	Julio	2023-07-30T00:00:00	2024-11-06T05:00:00	6	Velocidad del viento	1.6
110438	7	Sololá	702	San José Chacayá	5	Chacayá	7	Julio	2023-07-30T00:00:00	2024-11-06T05:00:00	7	Dirección del viento	1.61
110439	7	Sololá	702	San José Chacayá	5	Chacayá	7	Julio	2023-07-30T00:00:00	2024-11-06T05:00:00	1	Precipitación	0
110440	7	Sololá	702	San José Chacayá	5	Chacayá	7	Julio	2023-07-30T00:00:00	2024-11-06T05:00:00	8	Radiación solar	0
110441	7	Sololá	702	San José Chacayá	5	Chacayá	7	Julio	2023-07-30T00:00:00	2024-11-06T06:00:00	2	Temperatura media	12.4
110442	7	Sololá	702	San José Chacayá	5	Chacayá	7	Julio	2023-07-30T00:00:00	2024-11-06T06:00:00	4	Temperatura máxima	12.4
110443	7	Sololá	702	San José Chacayá	5	Chacayá	7	Julio	2023-07-30T00:00:00	2024-11-06T06:00:00	3	Temperatura mínima	12.3
110444	7	Sololá	702	San José Chacayá	5	Chacayá	7	Julio	2023-07-30T00:00:00	2024-11-06T06:00:00	5	Humedad	81
110445	7	Sololá	702	San José Chacayá	5	Chacayá	7	Julio	2023-07-30T00:00:00	2024-11-06T06:00:00	6	Velocidad del viento	1.6
110446	7	Sololá	702	San José Chacayá	5	Chacayá	7	Julio	2023-07-30T00:00:00	2024-11-06T06:00:00	7	Dirección del viento	1.61
110447	7	Sololá	702	San José Chacayá	5	Chacayá	7	Julio	2023-07-30T00:00:00	2024-11-06T06:00:00	1	Precipitación	0
110448	7	Sololá	702	San José Chacayá	5	Chacayá	7	Julio	2023-07-30T00:00:00	2024-11-06T06:00:00	8	Radiación solar	1
110449	7	Sololá	702	San José Chacayá	5	Chacayá	7	Julio	2023-07-30T00:00:00	2024-11-06T07:00:00	2	Temperatura media	12.7
110450	7	Sololá	702	San José Chacayá	5	Chacayá	7	Julio	2023-07-30T00:00:00	2024-11-06T07:00:00	4	Temperatura máxima	12.7
110451	7	Sololá	702	San José Chacayá	5	Chacayá	7	Julio	2023-07-30T00:00:00	2024-11-06T07:00:00	3	Temperatura mínima	12.3
110452	7	Sololá	702	San José Chacayá	5	Chacayá	7	Julio	2023-07-30T00:00:00	2024-11-06T07:00:00	5	Humedad	85
110453	7	Sololá	702	San José Chacayá	5	Chacayá	7	Julio	2023-07-30T00:00:00	2024-11-06T07:00:00	6	Velocidad del viento	1.6
110454	7	Sololá	702	San José Chacayá	5	Chacayá	7	Julio	2023-07-30T00:00:00	2024-11-06T07:00:00	7	Dirección del viento	1.61
110455	7	Sololá	702	San José Chacayá	5	Chacayá	7	Julio	2023-07-30T00:00:00	2024-11-06T07:00:00	1	Precipitación	0
110456	7	Sololá	702	San José Chacayá	5	Chacayá	7	Julio	2023-07-30T00:00:00	2024-11-06T07:00:00	8	Radiación solar	25
110457	7	Sololá	702	San José Chacayá	5	Chacayá	7	Julio	2023-07-30T00:00:00	2024-11-06T08:00:00	2	Temperatura media	14.3
110458	7	Sololá	702	San José Chacayá	5	Chacayá	7	Julio	2023-07-30T00:00:00	2024-11-06T08:00:00	4	Temperatura máxima	14.3
110459	7	Sololá	702	San José Chacayá	5	Chacayá	7	Julio	2023-07-30T00:00:00	2024-11-06T08:00:00	3	Temperatura mínima	12.7
110460	7	Sololá	702	San José Chacayá	5	Chacayá	7	Julio	2023-07-30T00:00:00	2024-11-06T08:00:00	5	Humedad	79
110461	7	Sololá	702	San José Chacayá	5	Chacayá	7	Julio	2023-07-30T00:00:00	2024-11-06T08:00:00	6	Velocidad del viento	1.6
110462	7	Sololá	702	San José Chacayá	5	Chacayá	7	Julio	2023-07-30T00:00:00	2024-11-06T08:00:00	7	Dirección del viento	1.61
110463	7	Sololá	702	San José Chacayá	5	Chacayá	7	Julio	2023-07-30T00:00:00	2024-11-06T08:00:00	1	Precipitación	0
110464	7	Sololá	702	San José Chacayá	5	Chacayá	7	Julio	2023-07-30T00:00:00	2024-11-06T08:00:00	8	Radiación solar	134
110465	7	Sololá	702	San José Chacayá	5	Chacayá	7	Julio	2023-07-30T00:00:00	2024-11-06T09:00:00	2	Temperatura media	16.7
110466	7	Sololá	702	San José Chacayá	5	Chacayá	7	Julio	2023-07-30T00:00:00	2024-11-06T09:00:00	4	Temperatura máxima	16.7
110467	7	Sololá	702	San José Chacayá	5	Chacayá	7	Julio	2023-07-30T00:00:00	2024-11-06T09:00:00	3	Temperatura mínima	14.3
110468	7	Sololá	702	San José Chacayá	5	Chacayá	7	Julio	2023-07-30T00:00:00	2024-11-06T09:00:00	5	Humedad	69
110469	7	Sololá	702	San José Chacayá	5	Chacayá	7	Julio	2023-07-30T00:00:00	2024-11-06T09:00:00	6	Velocidad del viento	1.6
110470	7	Sololá	702	San José Chacayá	5	Chacayá	7	Julio	2023-07-30T00:00:00	2024-11-06T09:00:00	7	Dirección del viento	1.61
110471	7	Sololá	702	San José Chacayá	5	Chacayá	7	Julio	2023-07-30T00:00:00	2024-11-06T09:00:00	1	Precipitación	0
110472	7	Sololá	702	San José Chacayá	5	Chacayá	7	Julio	2023-07-30T00:00:00	2024-11-06T09:00:00	8	Radiación solar	255
110473	7	Sololá	702	San José Chacayá	5	Chacayá	7	Julio	2023-07-30T00:00:00	2024-11-06T10:00:00	2	Temperatura media	21.8
110474	7	Sololá	702	San José Chacayá	5	Chacayá	7	Julio	2023-07-30T00:00:00	2024-11-06T10:00:00	4	Temperatura máxima	22.1
110475	7	Sololá	702	San José Chacayá	5	Chacayá	7	Julio	2023-07-30T00:00:00	2024-11-06T10:00:00	3	Temperatura mínima	21.8
110476	7	Sololá	702	San José Chacayá	5	Chacayá	7	Julio	2023-07-30T00:00:00	2024-11-06T10:00:00	5	Humedad	70
110477	7	Sololá	702	San José Chacayá	5	Chacayá	7	Julio	2023-07-30T00:00:00	2024-11-06T10:00:00	6	Velocidad del viento	4.8
110478	7	Sololá	702	San José Chacayá	5	Chacayá	7	Julio	2023-07-30T00:00:00	2024-11-06T10:00:00	7	Dirección del viento	4.83
110479	7	Sololá	702	San José Chacayá	5	Chacayá	7	Julio	2023-07-30T00:00:00	2024-11-06T10:00:00	1	Precipitación	0
110480	7	Sololá	702	San José Chacayá	5	Chacayá	7	Julio	2023-07-30T00:00:00	2024-11-06T10:00:00	8	Radiación solar	576
110481	7	Sololá	702	San José Chacayá	5	Chacayá	7	Julio	2023-07-30T00:00:00	2024-11-06T11:00:00	2	Temperatura media	19.3
110482	7	Sololá	702	San José Chacayá	5	Chacayá	7	Julio	2023-07-30T00:00:00	2024-11-06T11:00:00	4	Temperatura máxima	21.8
110483	7	Sololá	702	San José Chacayá	5	Chacayá	7	Julio	2023-07-30T00:00:00	2024-11-06T11:00:00	3	Temperatura mínima	19.3
110484	7	Sololá	702	San José Chacayá	5	Chacayá	7	Julio	2023-07-30T00:00:00	2024-11-06T11:00:00	5	Humedad	80
110485	7	Sololá	702	San José Chacayá	5	Chacayá	7	Julio	2023-07-30T00:00:00	2024-11-06T11:00:00	6	Velocidad del viento	4.8
110486	7	Sololá	702	San José Chacayá	5	Chacayá	7	Julio	2023-07-30T00:00:00	2024-11-06T11:00:00	7	Dirección del viento	4.83
110487	7	Sololá	702	San José Chacayá	5	Chacayá	7	Julio	2023-07-30T00:00:00	2024-11-06T11:00:00	1	Precipitación	0
110488	7	Sololá	702	San José Chacayá	5	Chacayá	7	Julio	2023-07-30T00:00:00	2024-11-06T11:00:00	8	Radiación solar	258
110489	7	Sololá	702	San José Chacayá	5	Chacayá	7	Julio	2023-07-30T00:00:00	2024-11-06T12:00:00	2	Temperatura media	18.7
110490	7	Sololá	702	San José Chacayá	5	Chacayá	7	Julio	2023-07-30T00:00:00	2024-11-06T12:00:00	4	Temperatura máxima	19.3
110491	7	Sololá	702	San José Chacayá	5	Chacayá	7	Julio	2023-07-30T00:00:00	2024-11-06T12:00:00	3	Temperatura mínima	18.5
110492	7	Sololá	702	San José Chacayá	5	Chacayá	7	Julio	2023-07-30T00:00:00	2024-11-06T12:00:00	5	Humedad	81
110493	7	Sololá	702	San José Chacayá	5	Chacayá	7	Julio	2023-07-30T00:00:00	2024-11-06T12:00:00	6	Velocidad del viento	1.6
110494	7	Sololá	702	San José Chacayá	5	Chacayá	7	Julio	2023-07-30T00:00:00	2024-11-06T12:00:00	7	Dirección del viento	1.61
110495	7	Sololá	702	San José Chacayá	5	Chacayá	7	Julio	2023-07-30T00:00:00	2024-11-06T12:00:00	1	Precipitación	0.4
110496	7	Sololá	702	San José Chacayá	5	Chacayá	7	Julio	2023-07-30T00:00:00	2024-11-06T12:00:00	8	Radiación solar	159
110497	7	Sololá	702	San José Chacayá	5	Chacayá	7	Julio	2023-07-30T00:00:00	2024-11-06T13:00:00	2	Temperatura media	18.3
110498	7	Sololá	702	San José Chacayá	5	Chacayá	7	Julio	2023-07-30T00:00:00	2024-11-06T13:00:00	4	Temperatura máxima	18.8
110499	7	Sololá	702	San José Chacayá	5	Chacayá	7	Julio	2023-07-30T00:00:00	2024-11-06T13:00:00	3	Temperatura mínima	18.2
110500	7	Sololá	702	San José Chacayá	5	Chacayá	7	Julio	2023-07-30T00:00:00	2024-11-06T13:00:00	5	Humedad	80
110501	7	Sololá	702	San José Chacayá	5	Chacayá	7	Julio	2023-07-30T00:00:00	2024-11-06T13:00:00	6	Velocidad del viento	0
110502	7	Sololá	702	San José Chacayá	5	Chacayá	7	Julio	2023-07-30T00:00:00	2024-11-06T13:00:00	7	Dirección del viento	0
110503	7	Sololá	702	San José Chacayá	5	Chacayá	7	Julio	2023-07-30T00:00:00	2024-11-06T13:00:00	1	Precipitación	0
110504	7	Sololá	702	San José Chacayá	5	Chacayá	7	Julio	2023-07-30T00:00:00	2024-11-06T13:00:00	8	Radiación solar	82
110505	7	Sololá	702	San José Chacayá	5	Chacayá	7	Julio	2023-07-30T00:00:00	2024-11-06T14:00:00	2	Temperatura media	20
110506	7	Sololá	702	San José Chacayá	5	Chacayá	7	Julio	2023-07-30T00:00:00	2024-11-06T14:00:00	4	Temperatura máxima	20.9
110507	7	Sololá	702	San José Chacayá	5	Chacayá	7	Julio	2023-07-30T00:00:00	2024-11-06T14:00:00	3	Temperatura mínima	19.7
110508	7	Sololá	702	San José Chacayá	5	Chacayá	7	Julio	2023-07-30T00:00:00	2024-11-06T14:00:00	5	Humedad	51
110509	7	Sololá	702	San José Chacayá	5	Chacayá	7	Julio	2023-07-30T00:00:00	2024-11-06T14:00:00	6	Velocidad del viento	8
110510	7	Sololá	702	San José Chacayá	5	Chacayá	7	Julio	2023-07-30T00:00:00	2024-11-06T14:00:00	7	Dirección del viento	8.05
110511	7	Sololá	702	San José Chacayá	5	Chacayá	7	Julio	2023-07-30T00:00:00	2024-11-06T14:00:00	1	Precipitación	0
110512	7	Sololá	702	San José Chacayá	5	Chacayá	7	Julio	2023-07-30T00:00:00	2024-11-06T14:00:00	8	Radiación solar	878
110513	7	Sololá	702	San José Chacayá	5	Chacayá	7	Julio	2023-07-30T00:00:00	2024-11-06T15:00:00	2	Temperatura media	20.9
110514	7	Sololá	702	San José Chacayá	5	Chacayá	7	Julio	2023-07-30T00:00:00	2024-11-06T15:00:00	4	Temperatura máxima	21.2
110515	7	Sololá	702	San José Chacayá	5	Chacayá	7	Julio	2023-07-30T00:00:00	2024-11-06T15:00:00	3	Temperatura mínima	19.8
110516	7	Sololá	702	San José Chacayá	5	Chacayá	7	Julio	2023-07-30T00:00:00	2024-11-06T15:00:00	5	Humedad	42
110517	7	Sololá	702	San José Chacayá	5	Chacayá	7	Julio	2023-07-30T00:00:00	2024-11-06T15:00:00	6	Velocidad del viento	6.4
110518	7	Sololá	702	San José Chacayá	5	Chacayá	7	Julio	2023-07-30T00:00:00	2024-11-06T15:00:00	7	Dirección del viento	6.44
110519	7	Sololá	702	San José Chacayá	5	Chacayá	7	Julio	2023-07-30T00:00:00	2024-11-06T15:00:00	1	Precipitación	0
110520	7	Sololá	702	San José Chacayá	5	Chacayá	7	Julio	2023-07-30T00:00:00	2024-11-06T15:00:00	8	Radiación solar	782
110521	7	Sololá	702	San José Chacayá	5	Chacayá	7	Julio	2023-07-30T00:00:00	2024-11-06T16:00:00	2	Temperatura media	15.9
110522	7	Sololá	702	San José Chacayá	5	Chacayá	7	Julio	2023-07-30T00:00:00	2024-11-06T16:00:00	4	Temperatura máxima	16.2
110523	7	Sololá	702	San José Chacayá	5	Chacayá	7	Julio	2023-07-30T00:00:00	2024-11-06T16:00:00	3	Temperatura mínima	15.8
110524	7	Sololá	702	San José Chacayá	5	Chacayá	7	Julio	2023-07-30T00:00:00	2024-11-06T16:00:00	5	Humedad	78
110525	7	Sololá	702	San José Chacayá	5	Chacayá	7	Julio	2023-07-30T00:00:00	2024-11-06T16:00:00	6	Velocidad del viento	1.6
110526	7	Sololá	702	San José Chacayá	5	Chacayá	7	Julio	2023-07-30T00:00:00	2024-11-06T16:00:00	7	Dirección del viento	1.61
110527	7	Sololá	702	San José Chacayá	5	Chacayá	7	Julio	2023-07-30T00:00:00	2024-11-06T16:00:00	1	Precipitación	0
110528	7	Sololá	702	San José Chacayá	5	Chacayá	7	Julio	2023-07-30T00:00:00	2024-11-06T16:00:00	8	Radiación solar	0
110529	7	Sololá	702	San José Chacayá	5	Chacayá	7	Julio	2023-07-30T00:00:00	2024-11-06T17:00:00	2	Temperatura media	15.3
110530	7	Sololá	702	San José Chacayá	5	Chacayá	7	Julio	2023-07-30T00:00:00	2024-11-06T17:00:00	4	Temperatura máxima	15.9
110531	7	Sololá	702	San José Chacayá	5	Chacayá	7	Julio	2023-07-30T00:00:00	2024-11-06T17:00:00	3	Temperatura mínima	15.2
110532	7	Sololá	702	San José Chacayá	5	Chacayá	7	Julio	2023-07-30T00:00:00	2024-11-06T17:00:00	5	Humedad	80
110533	7	Sololá	702	San José Chacayá	5	Chacayá	7	Julio	2023-07-30T00:00:00	2024-11-06T17:00:00	6	Velocidad del viento	1.6
110534	7	Sololá	702	San José Chacayá	5	Chacayá	7	Julio	2023-07-30T00:00:00	2024-11-06T17:00:00	7	Dirección del viento	1.61
110535	7	Sololá	702	San José Chacayá	5	Chacayá	7	Julio	2023-07-30T00:00:00	2024-11-06T17:00:00	1	Precipitación	0
110536	7	Sololá	702	San José Chacayá	5	Chacayá	7	Julio	2023-07-30T00:00:00	2024-11-06T17:00:00	8	Radiación solar	0
110537	7	Sololá	702	San José Chacayá	5	Chacayá	7	Julio	2023-07-30T00:00:00	2024-11-06T18:00:00	2	Temperatura media	14.9
110538	7	Sololá	702	San José Chacayá	5	Chacayá	7	Julio	2023-07-30T00:00:00	2024-11-06T18:00:00	4	Temperatura máxima	15.3
110539	7	Sololá	702	San José Chacayá	5	Chacayá	7	Julio	2023-07-30T00:00:00	2024-11-06T18:00:00	3	Temperatura mínima	14.9
110540	7	Sololá	702	San José Chacayá	5	Chacayá	7	Julio	2023-07-30T00:00:00	2024-11-06T18:00:00	5	Humedad	71
110541	7	Sololá	702	San José Chacayá	5	Chacayá	7	Julio	2023-07-30T00:00:00	2024-11-06T18:00:00	6	Velocidad del viento	0
110542	7	Sololá	702	San José Chacayá	5	Chacayá	7	Julio	2023-07-30T00:00:00	2024-11-06T18:00:00	7	Dirección del viento	0
110543	7	Sololá	702	San José Chacayá	5	Chacayá	7	Julio	2023-07-30T00:00:00	2024-11-06T18:00:00	1	Precipitación	0
110544	7	Sololá	702	San José Chacayá	5	Chacayá	7	Julio	2023-07-30T00:00:00	2024-11-06T18:00:00	8	Radiación solar	0
110545	7	Sololá	702	San José Chacayá	5	Chacayá	7	Julio	2023-07-30T00:00:00	2024-11-06T19:00:00	2	Temperatura media	14.7
110546	7	Sololá	702	San José Chacayá	5	Chacayá	7	Julio	2023-07-30T00:00:00	2024-11-06T19:00:00	4	Temperatura máxima	15.1
110547	7	Sololá	702	San José Chacayá	5	Chacayá	7	Julio	2023-07-30T00:00:00	2024-11-06T19:00:00	3	Temperatura mínima	14.7
110548	7	Sololá	702	San José Chacayá	5	Chacayá	7	Julio	2023-07-30T00:00:00	2024-11-06T19:00:00	5	Humedad	63
110549	7	Sololá	702	San José Chacayá	5	Chacayá	7	Julio	2023-07-30T00:00:00	2024-11-06T19:00:00	6	Velocidad del viento	0
110550	7	Sololá	702	San José Chacayá	5	Chacayá	7	Julio	2023-07-30T00:00:00	2024-11-06T19:00:00	7	Dirección del viento	0
110551	7	Sololá	702	San José Chacayá	5	Chacayá	7	Julio	2023-07-30T00:00:00	2024-11-06T19:00:00	1	Precipitación	0.4
110552	7	Sololá	702	San José Chacayá	5	Chacayá	7	Julio	2023-07-30T00:00:00	2024-11-06T19:00:00	8	Radiación solar	0
110553	7	Sololá	702	San José Chacayá	5	Chacayá	7	Julio	2023-07-30T00:00:00	2024-11-06T20:00:00	2	Temperatura media	14.4
110554	7	Sololá	702	San José Chacayá	5	Chacayá	7	Julio	2023-07-30T00:00:00	2024-11-06T20:00:00	4	Temperatura máxima	14.7
110555	7	Sololá	702	San José Chacayá	5	Chacayá	7	Julio	2023-07-30T00:00:00	2024-11-06T20:00:00	3	Temperatura mínima	14.4
110556	7	Sololá	702	San José Chacayá	5	Chacayá	7	Julio	2023-07-30T00:00:00	2024-11-06T20:00:00	5	Humedad	58
110557	7	Sololá	702	San José Chacayá	5	Chacayá	7	Julio	2023-07-30T00:00:00	2024-11-06T20:00:00	6	Velocidad del viento	0
110558	7	Sololá	702	San José Chacayá	5	Chacayá	7	Julio	2023-07-30T00:00:00	2024-11-06T20:00:00	7	Dirección del viento	0
110559	7	Sololá	702	San José Chacayá	5	Chacayá	7	Julio	2023-07-30T00:00:00	2024-11-06T20:00:00	1	Precipitación	0.2
110560	7	Sololá	702	San José Chacayá	5	Chacayá	7	Julio	2023-07-30T00:00:00	2024-11-06T20:00:00	8	Radiación solar	0
110561	7	Sololá	702	San José Chacayá	5	Chacayá	7	Julio	2023-07-30T00:00:00	2024-11-06T21:00:00	2	Temperatura media	13.9
110562	7	Sololá	702	San José Chacayá	5	Chacayá	7	Julio	2023-07-30T00:00:00	2024-11-06T21:00:00	4	Temperatura máxima	14.6
110563	7	Sololá	702	San José Chacayá	5	Chacayá	7	Julio	2023-07-30T00:00:00	2024-11-06T21:00:00	3	Temperatura mínima	13.9
110564	7	Sololá	702	San José Chacayá	5	Chacayá	7	Julio	2023-07-30T00:00:00	2024-11-06T21:00:00	5	Humedad	73
110565	7	Sololá	702	San José Chacayá	5	Chacayá	7	Julio	2023-07-30T00:00:00	2024-11-06T21:00:00	6	Velocidad del viento	1.6
110566	7	Sololá	702	San José Chacayá	5	Chacayá	7	Julio	2023-07-30T00:00:00	2024-11-06T21:00:00	7	Dirección del viento	1.61
110567	7	Sololá	702	San José Chacayá	5	Chacayá	7	Julio	2023-07-30T00:00:00	2024-11-06T21:00:00	1	Precipitación	1.8
110568	7	Sololá	702	San José Chacayá	5	Chacayá	7	Julio	2023-07-30T00:00:00	2024-11-06T21:00:00	8	Radiación solar	0
110569	7	Sololá	702	San José Chacayá	5	Chacayá	7	Julio	2023-07-30T00:00:00	2024-11-06T22:00:00	2	Temperatura media	13.3
110570	7	Sololá	702	San José Chacayá	5	Chacayá	7	Julio	2023-07-30T00:00:00	2024-11-06T22:00:00	4	Temperatura máxima	13.9
110571	7	Sololá	702	San José Chacayá	5	Chacayá	7	Julio	2023-07-30T00:00:00	2024-11-06T22:00:00	3	Temperatura mínima	13.3
110572	7	Sololá	702	San José Chacayá	5	Chacayá	7	Julio	2023-07-30T00:00:00	2024-11-06T22:00:00	5	Humedad	65
110573	7	Sololá	702	San José Chacayá	5	Chacayá	7	Julio	2023-07-30T00:00:00	2024-11-06T22:00:00	6	Velocidad del viento	1.6
110574	7	Sololá	702	San José Chacayá	5	Chacayá	7	Julio	2023-07-30T00:00:00	2024-11-06T22:00:00	7	Dirección del viento	1.61
110575	7	Sololá	702	San José Chacayá	5	Chacayá	7	Julio	2023-07-30T00:00:00	2024-11-06T22:00:00	1	Precipitación	2.2
110576	7	Sololá	702	San José Chacayá	5	Chacayá	7	Julio	2023-07-30T00:00:00	2024-11-06T22:00:00	8	Radiación solar	0
110577	7	Sololá	702	San José Chacayá	5	Chacayá	7	Julio	2023-07-30T00:00:00	2024-11-06T23:00:00	2	Temperatura media	13.3
110578	7	Sololá	702	San José Chacayá	5	Chacayá	7	Julio	2023-07-30T00:00:00	2024-11-06T23:00:00	4	Temperatura máxima	13.4
110579	7	Sololá	702	San José Chacayá	5	Chacayá	7	Julio	2023-07-30T00:00:00	2024-11-06T23:00:00	3	Temperatura mínima	13.2
110580	7	Sololá	702	San José Chacayá	5	Chacayá	7	Julio	2023-07-30T00:00:00	2024-11-06T23:00:00	5	Humedad	64
110581	7	Sololá	702	San José Chacayá	5	Chacayá	7	Julio	2023-07-30T00:00:00	2024-11-06T23:00:00	6	Velocidad del viento	1.6
110582	7	Sololá	702	San José Chacayá	5	Chacayá	7	Julio	2023-07-30T00:00:00	2024-11-06T23:00:00	7	Dirección del viento	1.61
110583	7	Sololá	702	San José Chacayá	5	Chacayá	7	Julio	2023-07-30T00:00:00	2024-11-06T23:00:00	1	Precipitación	0.2
110584	7	Sololá	702	San José Chacayá	5	Chacayá	7	Julio	2023-07-30T00:00:00	2024-11-06T23:00:00	8	Radiación solar	0
110585	7	Sololá	702	San José Chacayá	5	Chacayá	7	Julio	2023-07-31T00:00:00	2024-11-06T00:00:00	2	Temperatura media	12.8
110586	7	Sololá	702	San José Chacayá	5	Chacayá	7	Julio	2023-07-31T00:00:00	2024-11-06T00:00:00	4	Temperatura máxima	13.3
110587	7	Sololá	702	San José Chacayá	5	Chacayá	7	Julio	2023-07-31T00:00:00	2024-11-06T00:00:00	3	Temperatura mínima	12.8
110588	7	Sololá	702	San José Chacayá	5	Chacayá	7	Julio	2023-07-31T00:00:00	2024-11-06T00:00:00	5	Humedad	72
110589	7	Sololá	702	San José Chacayá	5	Chacayá	7	Julio	2023-07-31T00:00:00	2024-11-06T00:00:00	6	Velocidad del viento	3.2
110590	7	Sololá	702	San José Chacayá	5	Chacayá	7	Julio	2023-07-31T00:00:00	2024-11-06T00:00:00	7	Dirección del viento	3.22
110591	7	Sololá	702	San José Chacayá	5	Chacayá	7	Julio	2023-07-31T00:00:00	2024-11-06T00:00:00	1	Precipitación	0.2
110592	7	Sololá	702	San José Chacayá	5	Chacayá	7	Julio	2023-07-31T00:00:00	2024-11-06T00:00:00	8	Radiación solar	0
110593	7	Sololá	702	San José Chacayá	5	Chacayá	7	Julio	2023-07-31T00:00:00	2024-11-06T01:00:00	2	Temperatura media	12.7
110594	7	Sololá	702	San José Chacayá	5	Chacayá	7	Julio	2023-07-31T00:00:00	2024-11-06T01:00:00	4	Temperatura máxima	12.8
110595	7	Sololá	702	San José Chacayá	5	Chacayá	7	Julio	2023-07-31T00:00:00	2024-11-06T01:00:00	3	Temperatura mínima	12.6
110596	7	Sololá	702	San José Chacayá	5	Chacayá	7	Julio	2023-07-31T00:00:00	2024-11-06T01:00:00	5	Humedad	75
110597	7	Sololá	702	San José Chacayá	5	Chacayá	7	Julio	2023-07-31T00:00:00	2024-11-06T01:00:00	6	Velocidad del viento	3.2
110598	7	Sololá	702	San José Chacayá	5	Chacayá	7	Julio	2023-07-31T00:00:00	2024-11-06T01:00:00	7	Dirección del viento	3.22
110599	7	Sololá	702	San José Chacayá	5	Chacayá	7	Julio	2023-07-31T00:00:00	2024-11-06T01:00:00	1	Precipitación	0
110600	7	Sololá	702	San José Chacayá	5	Chacayá	7	Julio	2023-07-31T00:00:00	2024-11-06T01:00:00	8	Radiación solar	0
110601	7	Sololá	702	San José Chacayá	5	Chacayá	7	Julio	2023-07-31T00:00:00	2024-11-06T02:00:00	2	Temperatura media	11.8
110602	7	Sololá	702	San José Chacayá	5	Chacayá	7	Julio	2023-07-31T00:00:00	2024-11-06T02:00:00	4	Temperatura máxima	13.2
110603	7	Sololá	702	San José Chacayá	5	Chacayá	7	Julio	2023-07-31T00:00:00	2024-11-06T02:00:00	3	Temperatura mínima	11.8
110604	7	Sololá	702	San José Chacayá	5	Chacayá	7	Julio	2023-07-31T00:00:00	2024-11-06T02:00:00	5	Humedad	81
110605	7	Sololá	702	San José Chacayá	5	Chacayá	7	Julio	2023-07-31T00:00:00	2024-11-06T02:00:00	6	Velocidad del viento	1.6
110606	7	Sololá	702	San José Chacayá	5	Chacayá	7	Julio	2023-07-31T00:00:00	2024-11-06T02:00:00	7	Dirección del viento	1.61
110607	7	Sololá	702	San José Chacayá	5	Chacayá	7	Julio	2023-07-31T00:00:00	2024-11-06T02:00:00	1	Precipitación	0
110608	7	Sololá	702	San José Chacayá	5	Chacayá	7	Julio	2023-07-31T00:00:00	2024-11-06T02:00:00	8	Radiación solar	0
110609	7	Sololá	702	San José Chacayá	5	Chacayá	7	Julio	2023-07-31T00:00:00	2024-11-06T03:00:00	2	Temperatura media	10.1
110610	7	Sololá	702	San José Chacayá	5	Chacayá	7	Julio	2023-07-31T00:00:00	2024-11-06T03:00:00	4	Temperatura máxima	11.8
110611	7	Sololá	702	San José Chacayá	5	Chacayá	7	Julio	2023-07-31T00:00:00	2024-11-06T03:00:00	3	Temperatura mínima	10.1
110612	7	Sololá	702	San José Chacayá	5	Chacayá	7	Julio	2023-07-31T00:00:00	2024-11-06T03:00:00	5	Humedad	84
110613	7	Sololá	702	San José Chacayá	5	Chacayá	7	Julio	2023-07-31T00:00:00	2024-11-06T03:00:00	6	Velocidad del viento	1.6
110614	7	Sololá	702	San José Chacayá	5	Chacayá	7	Julio	2023-07-31T00:00:00	2024-11-06T03:00:00	7	Dirección del viento	1.61
110615	7	Sololá	702	San José Chacayá	5	Chacayá	7	Julio	2023-07-31T00:00:00	2024-11-06T03:00:00	1	Precipitación	0
110616	7	Sololá	702	San José Chacayá	5	Chacayá	7	Julio	2023-07-31T00:00:00	2024-11-06T03:00:00	8	Radiación solar	0
110617	7	Sololá	702	San José Chacayá	5	Chacayá	7	Julio	2023-07-31T00:00:00	2024-11-06T04:00:00	2	Temperatura media	18.8
110618	7	Sololá	702	San José Chacayá	5	Chacayá	7	Julio	2023-07-31T00:00:00	2024-11-06T04:00:00	4	Temperatura máxima	18.8
110619	7	Sololá	702	San José Chacayá	5	Chacayá	7	Julio	2023-07-31T00:00:00	2024-11-06T04:00:00	3	Temperatura mínima	18.3
110620	7	Sololá	702	San José Chacayá	5	Chacayá	7	Julio	2023-07-31T00:00:00	2024-11-06T04:00:00	5	Humedad	74
110621	7	Sololá	702	San José Chacayá	5	Chacayá	7	Julio	2023-07-31T00:00:00	2024-11-06T04:00:00	6	Velocidad del viento	0
110622	7	Sololá	702	San José Chacayá	5	Chacayá	7	Julio	2023-07-31T00:00:00	2024-11-06T04:00:00	7	Dirección del viento	0
110623	7	Sololá	702	San José Chacayá	5	Chacayá	7	Julio	2023-07-31T00:00:00	2024-11-06T04:00:00	1	Precipitación	0.2
110624	7	Sololá	702	San José Chacayá	5	Chacayá	7	Julio	2023-07-31T00:00:00	2024-11-06T04:00:00	8	Radiación solar	0
110625	7	Sololá	702	San José Chacayá	5	Chacayá	7	Julio	2023-07-31T00:00:00	2024-11-06T05:00:00	2	Temperatura media	22.4
110626	7	Sololá	702	San José Chacayá	5	Chacayá	7	Julio	2023-07-31T00:00:00	2024-11-06T05:00:00	4	Temperatura máxima	22.5
110627	7	Sololá	702	San José Chacayá	5	Chacayá	7	Julio	2023-07-31T00:00:00	2024-11-06T05:00:00	3	Temperatura mínima	18.8
110628	7	Sololá	702	San José Chacayá	5	Chacayá	7	Julio	2023-07-31T00:00:00	2024-11-06T05:00:00	5	Humedad	60
110629	7	Sololá	702	San José Chacayá	5	Chacayá	7	Julio	2023-07-31T00:00:00	2024-11-06T05:00:00	6	Velocidad del viento	1.6
110630	7	Sololá	702	San José Chacayá	5	Chacayá	7	Julio	2023-07-31T00:00:00	2024-11-06T05:00:00	7	Dirección del viento	1.61
110631	7	Sololá	702	San José Chacayá	5	Chacayá	7	Julio	2023-07-31T00:00:00	2024-11-06T05:00:00	1	Precipitación	0
110632	7	Sololá	702	San José Chacayá	5	Chacayá	7	Julio	2023-07-31T00:00:00	2024-11-06T05:00:00	8	Radiación solar	0
110633	7	Sololá	702	San José Chacayá	5	Chacayá	7	Julio	2023-07-31T00:00:00	2024-11-06T06:00:00	2	Temperatura media	23.7
110634	7	Sololá	702	San José Chacayá	5	Chacayá	7	Julio	2023-07-31T00:00:00	2024-11-06T06:00:00	4	Temperatura máxima	23.7
110635	7	Sololá	702	San José Chacayá	5	Chacayá	7	Julio	2023-07-31T00:00:00	2024-11-06T06:00:00	3	Temperatura mínima	22.4
110636	7	Sololá	702	San José Chacayá	5	Chacayá	7	Julio	2023-07-31T00:00:00	2024-11-06T06:00:00	5	Humedad	58
110637	7	Sololá	702	San José Chacayá	5	Chacayá	7	Julio	2023-07-31T00:00:00	2024-11-06T06:00:00	6	Velocidad del viento	4.8
110638	7	Sololá	702	San José Chacayá	5	Chacayá	7	Julio	2023-07-31T00:00:00	2024-11-06T06:00:00	7	Dirección del viento	4.83
110639	7	Sololá	702	San José Chacayá	5	Chacayá	7	Julio	2023-07-31T00:00:00	2024-11-06T06:00:00	1	Precipitación	0
110640	7	Sololá	702	San José Chacayá	5	Chacayá	7	Julio	2023-07-31T00:00:00	2024-11-06T06:00:00	8	Radiación solar	1
110641	7	Sololá	702	San José Chacayá	5	Chacayá	7	Julio	2023-07-31T00:00:00	2024-11-06T07:00:00	2	Temperatura media	22.2
110642	7	Sololá	702	San José Chacayá	5	Chacayá	7	Julio	2023-07-31T00:00:00	2024-11-06T07:00:00	4	Temperatura máxima	24
110643	7	Sololá	702	San José Chacayá	5	Chacayá	7	Julio	2023-07-31T00:00:00	2024-11-06T07:00:00	3	Temperatura mínima	22.2
110644	7	Sololá	702	San José Chacayá	5	Chacayá	7	Julio	2023-07-31T00:00:00	2024-11-06T07:00:00	5	Humedad	60
110645	7	Sololá	702	San José Chacayá	5	Chacayá	7	Julio	2023-07-31T00:00:00	2024-11-06T07:00:00	6	Velocidad del viento	4.8
110646	7	Sololá	702	San José Chacayá	5	Chacayá	7	Julio	2023-07-31T00:00:00	2024-11-06T07:00:00	7	Dirección del viento	4.83
110647	7	Sololá	702	San José Chacayá	5	Chacayá	7	Julio	2023-07-31T00:00:00	2024-11-06T07:00:00	1	Precipitación	0
110648	7	Sololá	702	San José Chacayá	5	Chacayá	7	Julio	2023-07-31T00:00:00	2024-11-06T07:00:00	8	Radiación solar	20
110649	7	Sololá	702	San José Chacayá	5	Chacayá	7	Julio	2023-07-31T00:00:00	2024-11-06T08:00:00	2	Temperatura media	24.1
110650	7	Sololá	702	San José Chacayá	5	Chacayá	7	Julio	2023-07-31T00:00:00	2024-11-06T08:00:00	4	Temperatura máxima	24.4
110651	7	Sololá	702	San José Chacayá	5	Chacayá	7	Julio	2023-07-31T00:00:00	2024-11-06T08:00:00	3	Temperatura mínima	22.2
110652	7	Sololá	702	San José Chacayá	5	Chacayá	7	Julio	2023-07-31T00:00:00	2024-11-06T08:00:00	5	Humedad	56
110653	7	Sololá	702	San José Chacayá	5	Chacayá	7	Julio	2023-07-31T00:00:00	2024-11-06T08:00:00	6	Velocidad del viento	4.8
110654	7	Sololá	702	San José Chacayá	5	Chacayá	7	Julio	2023-07-31T00:00:00	2024-11-06T08:00:00	7	Dirección del viento	4.83
110655	7	Sololá	702	San José Chacayá	5	Chacayá	7	Julio	2023-07-31T00:00:00	2024-11-06T08:00:00	1	Precipitación	0
110656	7	Sololá	702	San José Chacayá	5	Chacayá	7	Julio	2023-07-31T00:00:00	2024-11-06T08:00:00	8	Radiación solar	42
110657	7	Sololá	702	San José Chacayá	5	Chacayá	7	Julio	2023-07-31T00:00:00	2024-11-06T09:00:00	2	Temperatura media	23.2
110658	7	Sololá	702	San José Chacayá	5	Chacayá	7	Julio	2023-07-31T00:00:00	2024-11-06T09:00:00	4	Temperatura máxima	24.1
110659	7	Sololá	702	San José Chacayá	5	Chacayá	7	Julio	2023-07-31T00:00:00	2024-11-06T09:00:00	3	Temperatura mínima	22.4
110660	7	Sololá	702	San José Chacayá	5	Chacayá	7	Julio	2023-07-31T00:00:00	2024-11-06T09:00:00	5	Humedad	59
110661	7	Sololá	702	San José Chacayá	5	Chacayá	7	Julio	2023-07-31T00:00:00	2024-11-06T09:00:00	6	Velocidad del viento	8
110662	7	Sololá	702	San José Chacayá	5	Chacayá	7	Julio	2023-07-31T00:00:00	2024-11-06T09:00:00	7	Dirección del viento	8.05
110663	7	Sololá	702	San José Chacayá	5	Chacayá	7	Julio	2023-07-31T00:00:00	2024-11-06T09:00:00	1	Precipitación	0
110664	7	Sololá	702	San José Chacayá	5	Chacayá	7	Julio	2023-07-31T00:00:00	2024-11-06T09:00:00	8	Radiación solar	217
110665	7	Sololá	702	San José Chacayá	5	Chacayá	7	Julio	2023-07-31T00:00:00	2024-11-06T10:00:00	2	Temperatura media	23
110666	7	Sololá	702	San José Chacayá	5	Chacayá	7	Julio	2023-07-31T00:00:00	2024-11-06T10:00:00	4	Temperatura máxima	23.7
110667	7	Sololá	702	San José Chacayá	5	Chacayá	7	Julio	2023-07-31T00:00:00	2024-11-06T10:00:00	3	Temperatura mínima	22.1
110668	7	Sololá	702	San José Chacayá	5	Chacayá	7	Julio	2023-07-31T00:00:00	2024-11-06T10:00:00	5	Humedad	73
110669	7	Sololá	702	San José Chacayá	5	Chacayá	7	Julio	2023-07-31T00:00:00	2024-11-06T10:00:00	6	Velocidad del viento	6.4
110670	7	Sololá	702	San José Chacayá	5	Chacayá	7	Julio	2023-07-31T00:00:00	2024-11-06T10:00:00	7	Dirección del viento	6.44
110671	7	Sololá	702	San José Chacayá	5	Chacayá	7	Julio	2023-07-31T00:00:00	2024-11-06T10:00:00	1	Precipitación	0
110672	7	Sololá	702	San José Chacayá	5	Chacayá	7	Julio	2023-07-31T00:00:00	2024-11-06T10:00:00	8	Radiación solar	457
110673	7	Sololá	702	San José Chacayá	5	Chacayá	7	Julio	2023-07-31T00:00:00	2024-11-06T11:00:00	2	Temperatura media	22
110674	7	Sololá	702	San José Chacayá	5	Chacayá	7	Julio	2023-07-31T00:00:00	2024-11-06T11:00:00	4	Temperatura máxima	22.9
110675	7	Sololá	702	San José Chacayá	5	Chacayá	7	Julio	2023-07-31T00:00:00	2024-11-06T11:00:00	3	Temperatura mínima	20.3
110676	7	Sololá	702	San José Chacayá	5	Chacayá	7	Julio	2023-07-31T00:00:00	2024-11-06T11:00:00	5	Humedad	77
110677	7	Sololá	702	San José Chacayá	5	Chacayá	7	Julio	2023-07-31T00:00:00	2024-11-06T11:00:00	6	Velocidad del viento	3.2
110678	7	Sololá	702	San José Chacayá	5	Chacayá	7	Julio	2023-07-31T00:00:00	2024-11-06T11:00:00	7	Dirección del viento	3.22
110679	7	Sololá	702	San José Chacayá	5	Chacayá	7	Julio	2023-07-31T00:00:00	2024-11-06T11:00:00	1	Precipitación	0
110680	7	Sololá	702	San José Chacayá	5	Chacayá	7	Julio	2023-07-31T00:00:00	2024-11-06T11:00:00	8	Radiación solar	880
110681	7	Sololá	702	San José Chacayá	5	Chacayá	7	Julio	2023-07-31T00:00:00	2024-11-06T12:00:00	2	Temperatura media	19.2
110682	7	Sololá	702	San José Chacayá	5	Chacayá	7	Julio	2023-07-31T00:00:00	2024-11-06T12:00:00	4	Temperatura máxima	22
110683	7	Sololá	702	San José Chacayá	5	Chacayá	7	Julio	2023-07-31T00:00:00	2024-11-06T12:00:00	3	Temperatura mínima	19.2
110684	7	Sololá	702	San José Chacayá	5	Chacayá	7	Julio	2023-07-31T00:00:00	2024-11-06T12:00:00	5	Humedad	81
110685	7	Sololá	702	San José Chacayá	5	Chacayá	7	Julio	2023-07-31T00:00:00	2024-11-06T12:00:00	6	Velocidad del viento	3.2
110686	7	Sololá	702	San José Chacayá	5	Chacayá	7	Julio	2023-07-31T00:00:00	2024-11-06T12:00:00	7	Dirección del viento	3.22
110687	7	Sololá	702	San José Chacayá	5	Chacayá	7	Julio	2023-07-31T00:00:00	2024-11-06T12:00:00	1	Precipitación	0
110688	7	Sololá	702	San José Chacayá	5	Chacayá	7	Julio	2023-07-31T00:00:00	2024-11-06T12:00:00	8	Radiación solar	697
110689	7	Sololá	702	San José Chacayá	5	Chacayá	7	Julio	2023-07-31T00:00:00	2024-11-06T13:00:00	2	Temperatura media	18.6
110690	7	Sololá	702	San José Chacayá	5	Chacayá	7	Julio	2023-07-31T00:00:00	2024-11-06T13:00:00	4	Temperatura máxima	19.3
110691	7	Sololá	702	San José Chacayá	5	Chacayá	7	Julio	2023-07-31T00:00:00	2024-11-06T13:00:00	3	Temperatura mínima	18.6
110692	7	Sololá	702	San José Chacayá	5	Chacayá	7	Julio	2023-07-31T00:00:00	2024-11-06T13:00:00	5	Humedad	81
110693	7	Sololá	702	San José Chacayá	5	Chacayá	7	Julio	2023-07-31T00:00:00	2024-11-06T13:00:00	6	Velocidad del viento	1.6
110694	7	Sololá	702	San José Chacayá	5	Chacayá	7	Julio	2023-07-31T00:00:00	2024-11-06T13:00:00	7	Dirección del viento	1.61
110695	7	Sololá	702	San José Chacayá	5	Chacayá	7	Julio	2023-07-31T00:00:00	2024-11-06T13:00:00	1	Precipitación	0
110696	7	Sololá	702	San José Chacayá	5	Chacayá	7	Julio	2023-07-31T00:00:00	2024-11-06T13:00:00	8	Radiación solar	904
110697	7	Sololá	702	San José Chacayá	5	Chacayá	7	Julio	2023-07-31T00:00:00	2024-11-06T14:00:00	2	Temperatura media	15.8
110698	7	Sololá	702	San José Chacayá	5	Chacayá	7	Julio	2023-07-31T00:00:00	2024-11-06T14:00:00	4	Temperatura máxima	18.6
110699	7	Sololá	702	San José Chacayá	5	Chacayá	7	Julio	2023-07-31T00:00:00	2024-11-06T14:00:00	3	Temperatura mínima	15.8
110700	7	Sololá	702	San José Chacayá	5	Chacayá	7	Julio	2023-07-31T00:00:00	2024-11-06T14:00:00	5	Humedad	76
110701	7	Sololá	702	San José Chacayá	5	Chacayá	7	Julio	2023-07-31T00:00:00	2024-11-06T14:00:00	6	Velocidad del viento	1.6
110702	7	Sololá	702	San José Chacayá	5	Chacayá	7	Julio	2023-07-31T00:00:00	2024-11-06T14:00:00	7	Dirección del viento	1.61
110703	7	Sololá	702	San José Chacayá	5	Chacayá	7	Julio	2023-07-31T00:00:00	2024-11-06T14:00:00	1	Precipitación	4.8
110704	7	Sololá	702	San José Chacayá	5	Chacayá	7	Julio	2023-07-31T00:00:00	2024-11-06T14:00:00	8	Radiación solar	926
110705	7	Sololá	702	San José Chacayá	5	Chacayá	7	Julio	2023-07-31T00:00:00	2024-11-06T15:00:00	2	Temperatura media	15.5
110706	7	Sololá	702	San José Chacayá	5	Chacayá	7	Julio	2023-07-31T00:00:00	2024-11-06T15:00:00	4	Temperatura máxima	15.9
110707	7	Sololá	702	San José Chacayá	5	Chacayá	7	Julio	2023-07-31T00:00:00	2024-11-06T15:00:00	3	Temperatura mínima	15.5
110708	7	Sololá	702	San José Chacayá	5	Chacayá	7	Julio	2023-07-31T00:00:00	2024-11-06T15:00:00	5	Humedad	75
110709	7	Sololá	702	San José Chacayá	5	Chacayá	7	Julio	2023-07-31T00:00:00	2024-11-06T15:00:00	6	Velocidad del viento	1.6
110710	7	Sololá	702	San José Chacayá	5	Chacayá	7	Julio	2023-07-31T00:00:00	2024-11-06T15:00:00	7	Dirección del viento	1.61
110711	7	Sololá	702	San José Chacayá	5	Chacayá	7	Julio	2023-07-31T00:00:00	2024-11-06T15:00:00	1	Precipitación	0.2
110712	7	Sololá	702	San José Chacayá	5	Chacayá	7	Julio	2023-07-31T00:00:00	2024-11-06T15:00:00	8	Radiación solar	681
110713	7	Sololá	702	San José Chacayá	5	Chacayá	7	Julio	2023-07-31T00:00:00	2024-11-06T16:00:00	2	Temperatura media	15.5
110714	7	Sololá	702	San José Chacayá	5	Chacayá	7	Julio	2023-07-31T00:00:00	2024-11-06T16:00:00	4	Temperatura máxima	15.7
110715	7	Sololá	702	San José Chacayá	5	Chacayá	7	Julio	2023-07-31T00:00:00	2024-11-06T16:00:00	3	Temperatura mínima	15.3
110716	7	Sololá	702	San José Chacayá	5	Chacayá	7	Julio	2023-07-31T00:00:00	2024-11-06T16:00:00	5	Humedad	77
110717	7	Sololá	702	San José Chacayá	5	Chacayá	7	Julio	2023-07-31T00:00:00	2024-11-06T16:00:00	6	Velocidad del viento	1.6
110718	7	Sololá	702	San José Chacayá	5	Chacayá	7	Julio	2023-07-31T00:00:00	2024-11-06T16:00:00	7	Dirección del viento	1.61
110719	7	Sololá	702	San José Chacayá	5	Chacayá	7	Julio	2023-07-31T00:00:00	2024-11-06T16:00:00	1	Precipitación	0
110720	7	Sololá	702	San José Chacayá	5	Chacayá	7	Julio	2023-07-31T00:00:00	2024-11-06T16:00:00	8	Radiación solar	401
110721	7	Sololá	702	San José Chacayá	5	Chacayá	7	Julio	2023-07-31T00:00:00	2024-11-06T17:00:00	2	Temperatura media	18.1
110722	7	Sololá	702	San José Chacayá	5	Chacayá	7	Julio	2023-07-31T00:00:00	2024-11-06T17:00:00	4	Temperatura máxima	20
110723	7	Sololá	702	San José Chacayá	5	Chacayá	7	Julio	2023-07-31T00:00:00	2024-11-06T17:00:00	3	Temperatura mínima	18.1
110724	7	Sololá	702	San José Chacayá	5	Chacayá	7	Julio	2023-07-31T00:00:00	2024-11-06T17:00:00	5	Humedad	72
110725	7	Sololá	702	San José Chacayá	5	Chacayá	7	Julio	2023-07-31T00:00:00	2024-11-06T17:00:00	6	Velocidad del viento	3.2
110726	7	Sololá	702	San José Chacayá	5	Chacayá	7	Julio	2023-07-31T00:00:00	2024-11-06T17:00:00	7	Dirección del viento	3.22
110727	7	Sololá	702	San José Chacayá	5	Chacayá	7	Julio	2023-07-31T00:00:00	2024-11-06T17:00:00	1	Precipitación	0
110728	7	Sololá	702	San José Chacayá	5	Chacayá	7	Julio	2023-07-31T00:00:00	2024-11-06T17:00:00	8	Radiación solar	261
110729	7	Sololá	702	San José Chacayá	5	Chacayá	7	Julio	2023-07-31T00:00:00	2024-11-06T18:00:00	2	Temperatura media	16.8
110730	7	Sololá	702	San José Chacayá	5	Chacayá	7	Julio	2023-07-31T00:00:00	2024-11-06T18:00:00	4	Temperatura máxima	18.1
110731	7	Sololá	702	San José Chacayá	5	Chacayá	7	Julio	2023-07-31T00:00:00	2024-11-06T18:00:00	3	Temperatura mínima	16.8
110732	7	Sololá	702	San José Chacayá	5	Chacayá	7	Julio	2023-07-31T00:00:00	2024-11-06T18:00:00	5	Humedad	83
110733	7	Sololá	702	San José Chacayá	5	Chacayá	7	Julio	2023-07-31T00:00:00	2024-11-06T18:00:00	6	Velocidad del viento	1.6
110734	7	Sololá	702	San José Chacayá	5	Chacayá	7	Julio	2023-07-31T00:00:00	2024-11-06T18:00:00	7	Dirección del viento	1.61
110735	7	Sololá	702	San José Chacayá	5	Chacayá	7	Julio	2023-07-31T00:00:00	2024-11-06T18:00:00	1	Precipitación	0
110736	7	Sololá	702	San José Chacayá	5	Chacayá	7	Julio	2023-07-31T00:00:00	2024-11-06T18:00:00	8	Radiación solar	108
110737	7	Sololá	702	San José Chacayá	5	Chacayá	7	Julio	2023-07-31T00:00:00	2024-11-06T19:00:00	2	Temperatura media	15.3
110738	7	Sololá	702	San José Chacayá	5	Chacayá	7	Julio	2023-07-31T00:00:00	2024-11-06T19:00:00	4	Temperatura máxima	16.8
110739	7	Sololá	702	San José Chacayá	5	Chacayá	7	Julio	2023-07-31T00:00:00	2024-11-06T19:00:00	3	Temperatura mínima	15.3
110740	7	Sololá	702	San José Chacayá	5	Chacayá	7	Julio	2023-07-31T00:00:00	2024-11-06T19:00:00	5	Humedad	83
110741	7	Sololá	702	San José Chacayá	5	Chacayá	7	Julio	2023-07-31T00:00:00	2024-11-06T19:00:00	6	Velocidad del viento	0
110742	7	Sololá	702	San José Chacayá	5	Chacayá	7	Julio	2023-07-31T00:00:00	2024-11-06T19:00:00	7	Dirección del viento	0
110743	7	Sololá	702	San José Chacayá	5	Chacayá	7	Julio	2023-07-31T00:00:00	2024-11-06T19:00:00	1	Precipitación	0
110744	7	Sololá	702	San José Chacayá	5	Chacayá	7	Julio	2023-07-31T00:00:00	2024-11-06T19:00:00	8	Radiación solar	0
110745	7	Sololá	702	San José Chacayá	5	Chacayá	7	Julio	2023-07-31T00:00:00	2024-11-06T20:00:00	2	Temperatura media	13.6
110746	7	Sololá	702	San José Chacayá	5	Chacayá	7	Julio	2023-07-31T00:00:00	2024-11-06T20:00:00	4	Temperatura máxima	15.3
110747	7	Sololá	702	San José Chacayá	5	Chacayá	7	Julio	2023-07-31T00:00:00	2024-11-06T20:00:00	3	Temperatura mínima	13.6
110748	7	Sololá	702	San José Chacayá	5	Chacayá	7	Julio	2023-07-31T00:00:00	2024-11-06T20:00:00	5	Humedad	84
110749	7	Sololá	702	San José Chacayá	5	Chacayá	7	Julio	2023-07-31T00:00:00	2024-11-06T20:00:00	6	Velocidad del viento	0
110750	7	Sololá	702	San José Chacayá	5	Chacayá	7	Julio	2023-07-31T00:00:00	2024-11-06T20:00:00	7	Dirección del viento	0
110751	7	Sololá	702	San José Chacayá	5	Chacayá	7	Julio	2023-07-31T00:00:00	2024-11-06T20:00:00	1	Precipitación	0
110752	7	Sololá	702	San José Chacayá	5	Chacayá	7	Julio	2023-07-31T00:00:00	2024-11-06T20:00:00	8	Radiación solar	0
110753	7	Sololá	702	San José Chacayá	5	Chacayá	7	Julio	2023-07-31T00:00:00	2024-11-06T21:00:00	2	Temperatura media	13.6
110754	7	Sololá	702	San José Chacayá	5	Chacayá	7	Julio	2023-07-31T00:00:00	2024-11-06T21:00:00	4	Temperatura máxima	13.7
110755	7	Sololá	702	San José Chacayá	5	Chacayá	7	Julio	2023-07-31T00:00:00	2024-11-06T21:00:00	3	Temperatura mínima	13.6
110756	7	Sololá	702	San José Chacayá	5	Chacayá	7	Julio	2023-07-31T00:00:00	2024-11-06T21:00:00	5	Humedad	84
110757	7	Sololá	702	San José Chacayá	5	Chacayá	7	Julio	2023-07-31T00:00:00	2024-11-06T21:00:00	6	Velocidad del viento	0
110758	7	Sololá	702	San José Chacayá	5	Chacayá	7	Julio	2023-07-31T00:00:00	2024-11-06T21:00:00	7	Dirección del viento	0
110759	7	Sololá	702	San José Chacayá	5	Chacayá	7	Julio	2023-07-31T00:00:00	2024-11-06T21:00:00	1	Precipitación	0
110760	7	Sololá	702	San José Chacayá	5	Chacayá	7	Julio	2023-07-31T00:00:00	2024-11-06T21:00:00	8	Radiación solar	0
110761	7	Sololá	702	San José Chacayá	5	Chacayá	7	Julio	2023-07-31T00:00:00	2024-11-06T22:00:00	2	Temperatura media	14.3
110762	7	Sololá	702	San José Chacayá	5	Chacayá	7	Julio	2023-07-31T00:00:00	2024-11-06T22:00:00	4	Temperatura máxima	14.6
110763	7	Sololá	702	San José Chacayá	5	Chacayá	7	Julio	2023-07-31T00:00:00	2024-11-06T22:00:00	3	Temperatura mínima	14.1
110764	7	Sololá	702	San José Chacayá	5	Chacayá	7	Julio	2023-07-31T00:00:00	2024-11-06T22:00:00	5	Humedad	68
110765	7	Sololá	702	San José Chacayá	5	Chacayá	7	Julio	2023-07-31T00:00:00	2024-11-06T22:00:00	6	Velocidad del viento	0
110766	7	Sololá	702	San José Chacayá	5	Chacayá	7	Julio	2023-07-31T00:00:00	2024-11-06T22:00:00	7	Dirección del viento	0
110767	7	Sololá	702	San José Chacayá	5	Chacayá	7	Julio	2023-07-31T00:00:00	2024-11-06T22:00:00	1	Precipitación	0.6
110768	7	Sololá	702	San José Chacayá	5	Chacayá	7	Julio	2023-07-31T00:00:00	2024-11-06T22:00:00	8	Radiación solar	0
110769	7	Sololá	702	San José Chacayá	5	Chacayá	7	Julio	2023-07-31T00:00:00	2024-11-06T23:00:00	2	Temperatura media	13.9
110770	7	Sololá	702	San José Chacayá	5	Chacayá	7	Julio	2023-07-31T00:00:00	2024-11-06T23:00:00	4	Temperatura máxima	14.3
110771	7	Sololá	702	San José Chacayá	5	Chacayá	7	Julio	2023-07-31T00:00:00	2024-11-06T23:00:00	3	Temperatura mínima	13.9
110772	7	Sololá	702	San José Chacayá	5	Chacayá	7	Julio	2023-07-31T00:00:00	2024-11-06T23:00:00	5	Humedad	63
110773	7	Sololá	702	San José Chacayá	5	Chacayá	7	Julio	2023-07-31T00:00:00	2024-11-06T23:00:00	6	Velocidad del viento	1.6
110774	7	Sololá	702	San José Chacayá	5	Chacayá	7	Julio	2023-07-31T00:00:00	2024-11-06T23:00:00	7	Dirección del viento	1.61
110775	7	Sololá	702	San José Chacayá	5	Chacayá	7	Julio	2023-07-31T00:00:00	2024-11-06T23:00:00	1	Precipitación	0
110776	7	Sololá	702	San José Chacayá	5	Chacayá	7	Julio	2023-07-31T00:00:00	2024-11-06T23:00:00	8	Radiación solar	0
110777	7	Sololá	702	San José Chacayá	5	Chacayá	8	Agosto	2023-01-08T00:00:00	2024-11-06T00:00:00	2	Temperatura media	13.5
110778	7	Sololá	702	San José Chacayá	5	Chacayá	8	Agosto	2023-01-08T00:00:00	2024-11-06T00:00:00	4	Temperatura máxima	13.9
110779	7	Sololá	702	San José Chacayá	5	Chacayá	8	Agosto	2023-01-08T00:00:00	2024-11-06T00:00:00	3	Temperatura mínima	13.5
110780	7	Sololá	702	San José Chacayá	5	Chacayá	8	Agosto	2023-01-08T00:00:00	2024-11-06T00:00:00	5	Humedad	66
110781	7	Sololá	702	San José Chacayá	5	Chacayá	8	Agosto	2023-01-08T00:00:00	2024-11-06T00:00:00	6	Velocidad del viento	1.6
110782	7	Sololá	702	San José Chacayá	5	Chacayá	8	Agosto	2023-01-08T00:00:00	2024-11-06T00:00:00	7	Dirección del viento	1.61
110783	7	Sololá	702	San José Chacayá	5	Chacayá	8	Agosto	2023-01-08T00:00:00	2024-11-06T00:00:00	1	Precipitación	0
110784	7	Sololá	702	San José Chacayá	5	Chacayá	8	Agosto	2023-01-08T00:00:00	2024-11-06T00:00:00	8	Radiación solar	0
110785	7	Sololá	702	San José Chacayá	5	Chacayá	8	Agosto	2023-01-08T00:00:00	2024-11-06T01:00:00	2	Temperatura media	13.2
110786	7	Sololá	702	San José Chacayá	5	Chacayá	8	Agosto	2023-01-08T00:00:00	2024-11-06T01:00:00	4	Temperatura máxima	13.4
110787	7	Sololá	702	San José Chacayá	5	Chacayá	8	Agosto	2023-01-08T00:00:00	2024-11-06T01:00:00	3	Temperatura mínima	13.2
110788	7	Sololá	702	San José Chacayá	5	Chacayá	8	Agosto	2023-01-08T00:00:00	2024-11-06T01:00:00	5	Humedad	63
110789	7	Sololá	702	San José Chacayá	5	Chacayá	8	Agosto	2023-01-08T00:00:00	2024-11-06T01:00:00	6	Velocidad del viento	1.6
110790	7	Sololá	702	San José Chacayá	5	Chacayá	8	Agosto	2023-01-08T00:00:00	2024-11-06T01:00:00	7	Dirección del viento	1.61
110791	7	Sololá	702	San José Chacayá	5	Chacayá	8	Agosto	2023-01-08T00:00:00	2024-11-06T01:00:00	1	Precipitación	0
110792	7	Sololá	702	San José Chacayá	5	Chacayá	8	Agosto	2023-01-08T00:00:00	2024-11-06T01:00:00	8	Radiación solar	0
110793	7	Sololá	702	San José Chacayá	5	Chacayá	8	Agosto	2023-01-08T00:00:00	2024-11-06T02:00:00	2	Temperatura media	13.8
110794	7	Sololá	702	San José Chacayá	5	Chacayá	8	Agosto	2023-01-08T00:00:00	2024-11-06T02:00:00	4	Temperatura máxima	14
110795	7	Sololá	702	San José Chacayá	5	Chacayá	8	Agosto	2023-01-08T00:00:00	2024-11-06T02:00:00	3	Temperatura mínima	13.8
110796	7	Sololá	702	San José Chacayá	5	Chacayá	8	Agosto	2023-01-08T00:00:00	2024-11-06T02:00:00	5	Humedad	93
110797	7	Sololá	702	San José Chacayá	5	Chacayá	8	Agosto	2023-01-08T00:00:00	2024-11-06T02:00:00	6	Velocidad del viento	1.6
110798	7	Sololá	702	San José Chacayá	5	Chacayá	8	Agosto	2023-01-08T00:00:00	2024-11-06T02:00:00	7	Dirección del viento	0.8
110799	7	Sololá	702	San José Chacayá	5	Chacayá	8	Agosto	2023-01-08T00:00:00	2024-11-06T02:00:00	1	Precipitación	0.51
110800	7	Sololá	702	San José Chacayá	5	Chacayá	8	Agosto	2023-01-08T00:00:00	2024-11-06T02:00:00	8	Radiación solar	0
110801	7	Sololá	702	San José Chacayá	5	Chacayá	8	Agosto	2023-01-08T00:00:00	2024-11-06T03:00:00	2	Temperatura media	14.1
110802	7	Sololá	702	San José Chacayá	5	Chacayá	8	Agosto	2023-01-08T00:00:00	2024-11-06T03:00:00	4	Temperatura máxima	14.3
110803	7	Sololá	702	San José Chacayá	5	Chacayá	8	Agosto	2023-01-08T00:00:00	2024-11-06T03:00:00	3	Temperatura mínima	14.1
110804	7	Sololá	702	San José Chacayá	5	Chacayá	8	Agosto	2023-01-08T00:00:00	2024-11-06T03:00:00	5	Humedad	93
110805	7	Sololá	702	San José Chacayá	5	Chacayá	8	Agosto	2023-01-08T00:00:00	2024-11-06T03:00:00	6	Velocidad del viento	1.6
110806	7	Sololá	702	San José Chacayá	5	Chacayá	8	Agosto	2023-01-08T00:00:00	2024-11-06T03:00:00	7	Dirección del viento	0.8
110807	7	Sololá	702	San José Chacayá	5	Chacayá	8	Agosto	2023-01-08T00:00:00	2024-11-06T03:00:00	1	Precipitación	0.25
110808	7	Sololá	702	San José Chacayá	5	Chacayá	8	Agosto	2023-01-08T00:00:00	2024-11-06T03:00:00	8	Radiación solar	0
110809	7	Sololá	702	San José Chacayá	5	Chacayá	8	Agosto	2023-01-08T00:00:00	2024-11-06T04:00:00	2	Temperatura media	18.3
110810	7	Sololá	702	San José Chacayá	5	Chacayá	8	Agosto	2023-01-08T00:00:00	2024-11-06T04:00:00	4	Temperatura máxima	18.3
110811	7	Sololá	702	San José Chacayá	5	Chacayá	8	Agosto	2023-01-08T00:00:00	2024-11-06T04:00:00	3	Temperatura mínima	16.4
110812	7	Sololá	702	San José Chacayá	5	Chacayá	8	Agosto	2023-01-08T00:00:00	2024-11-06T04:00:00	5	Humedad	73
110813	7	Sololá	702	San José Chacayá	5	Chacayá	8	Agosto	2023-01-08T00:00:00	2024-11-06T04:00:00	6	Velocidad del viento	3.2
110814	7	Sololá	702	San José Chacayá	5	Chacayá	8	Agosto	2023-01-08T00:00:00	2024-11-06T04:00:00	7	Dirección del viento	3.22
110815	7	Sololá	702	San José Chacayá	5	Chacayá	8	Agosto	2023-01-08T00:00:00	2024-11-06T04:00:00	1	Precipitación	0.2
110816	7	Sololá	702	San José Chacayá	5	Chacayá	8	Agosto	2023-01-08T00:00:00	2024-11-06T04:00:00	8	Radiación solar	0
110817	7	Sololá	702	San José Chacayá	5	Chacayá	8	Agosto	2023-01-08T00:00:00	2024-11-06T05:00:00	2	Temperatura media	21.2
110818	7	Sololá	702	San José Chacayá	5	Chacayá	8	Agosto	2023-01-08T00:00:00	2024-11-06T05:00:00	4	Temperatura máxima	21.2
110819	7	Sololá	702	San José Chacayá	5	Chacayá	8	Agosto	2023-01-08T00:00:00	2024-11-06T05:00:00	3	Temperatura mínima	18.3
110820	7	Sololá	702	San José Chacayá	5	Chacayá	8	Agosto	2023-01-08T00:00:00	2024-11-06T05:00:00	5	Humedad	67
110821	7	Sololá	702	San José Chacayá	5	Chacayá	8	Agosto	2023-01-08T00:00:00	2024-11-06T05:00:00	6	Velocidad del viento	3.2
110822	7	Sololá	702	San José Chacayá	5	Chacayá	8	Agosto	2023-01-08T00:00:00	2024-11-06T05:00:00	7	Dirección del viento	3.22
110823	7	Sololá	702	San José Chacayá	5	Chacayá	8	Agosto	2023-01-08T00:00:00	2024-11-06T05:00:00	1	Precipitación	0
110824	7	Sololá	702	San José Chacayá	5	Chacayá	8	Agosto	2023-01-08T00:00:00	2024-11-06T05:00:00	8	Radiación solar	0
110825	7	Sololá	702	San José Chacayá	5	Chacayá	8	Agosto	2023-01-08T00:00:00	2024-11-06T06:00:00	2	Temperatura media	20.9
110826	7	Sololá	702	San José Chacayá	5	Chacayá	8	Agosto	2023-01-08T00:00:00	2024-11-06T06:00:00	4	Temperatura máxima	21.9
110827	7	Sololá	702	San José Chacayá	5	Chacayá	8	Agosto	2023-01-08T00:00:00	2024-11-06T06:00:00	3	Temperatura mínima	20.8
110828	7	Sololá	702	San José Chacayá	5	Chacayá	8	Agosto	2023-01-08T00:00:00	2024-11-06T06:00:00	5	Humedad	66
110829	7	Sololá	702	San José Chacayá	5	Chacayá	8	Agosto	2023-01-08T00:00:00	2024-11-06T06:00:00	6	Velocidad del viento	4.8
110830	7	Sololá	702	San José Chacayá	5	Chacayá	8	Agosto	2023-01-08T00:00:00	2024-11-06T06:00:00	7	Dirección del viento	4.83
110831	7	Sololá	702	San José Chacayá	5	Chacayá	8	Agosto	2023-01-08T00:00:00	2024-11-06T06:00:00	1	Precipitación	0
110832	7	Sololá	702	San José Chacayá	5	Chacayá	8	Agosto	2023-01-08T00:00:00	2024-11-06T06:00:00	8	Radiación solar	3
110833	7	Sololá	702	San José Chacayá	5	Chacayá	8	Agosto	2023-01-08T00:00:00	2024-11-06T07:00:00	2	Temperatura media	21.5
110834	7	Sololá	702	San José Chacayá	5	Chacayá	8	Agosto	2023-01-08T00:00:00	2024-11-06T07:00:00	4	Temperatura máxima	21.7
110835	7	Sololá	702	San José Chacayá	5	Chacayá	8	Agosto	2023-01-08T00:00:00	2024-11-06T07:00:00	3	Temperatura mínima	20.3
110836	7	Sololá	702	San José Chacayá	5	Chacayá	8	Agosto	2023-01-08T00:00:00	2024-11-06T07:00:00	5	Humedad	64
110837	7	Sololá	702	San José Chacayá	5	Chacayá	8	Agosto	2023-01-08T00:00:00	2024-11-06T07:00:00	6	Velocidad del viento	8
110838	7	Sololá	702	San José Chacayá	5	Chacayá	8	Agosto	2023-01-08T00:00:00	2024-11-06T07:00:00	7	Dirección del viento	8.05
110839	7	Sololá	702	San José Chacayá	5	Chacayá	8	Agosto	2023-01-08T00:00:00	2024-11-06T07:00:00	1	Precipitación	0
110840	7	Sololá	702	San José Chacayá	5	Chacayá	8	Agosto	2023-01-08T00:00:00	2024-11-06T07:00:00	8	Radiación solar	60
110841	7	Sololá	702	San José Chacayá	5	Chacayá	8	Agosto	2023-01-08T00:00:00	2024-11-06T08:00:00	2	Temperatura media	22.1
110842	7	Sololá	702	San José Chacayá	5	Chacayá	8	Agosto	2023-01-08T00:00:00	2024-11-06T08:00:00	4	Temperatura máxima	22.2
110843	7	Sololá	702	San José Chacayá	5	Chacayá	8	Agosto	2023-01-08T00:00:00	2024-11-06T08:00:00	3	Temperatura mínima	20
110844	7	Sololá	702	San José Chacayá	5	Chacayá	8	Agosto	2023-01-08T00:00:00	2024-11-06T08:00:00	5	Humedad	64
110845	7	Sololá	702	San José Chacayá	5	Chacayá	8	Agosto	2023-01-08T00:00:00	2024-11-06T08:00:00	6	Velocidad del viento	4.8
110846	7	Sololá	702	San José Chacayá	5	Chacayá	8	Agosto	2023-01-08T00:00:00	2024-11-06T08:00:00	7	Dirección del viento	4.83
110847	7	Sololá	702	San José Chacayá	5	Chacayá	8	Agosto	2023-01-08T00:00:00	2024-11-06T08:00:00	1	Precipitación	0
110848	7	Sololá	702	San José Chacayá	5	Chacayá	8	Agosto	2023-01-08T00:00:00	2024-11-06T08:00:00	8	Radiación solar	152
110849	7	Sololá	702	San José Chacayá	5	Chacayá	8	Agosto	2023-01-08T00:00:00	2024-11-06T09:00:00	2	Temperatura media	22.6
110850	7	Sololá	702	San José Chacayá	5	Chacayá	8	Agosto	2023-01-08T00:00:00	2024-11-06T09:00:00	4	Temperatura máxima	22.9
110851	7	Sololá	702	San José Chacayá	5	Chacayá	8	Agosto	2023-01-08T00:00:00	2024-11-06T09:00:00	3	Temperatura mínima	21.4
110852	7	Sololá	702	San José Chacayá	5	Chacayá	8	Agosto	2023-01-08T00:00:00	2024-11-06T09:00:00	5	Humedad	64
110853	7	Sololá	702	San José Chacayá	5	Chacayá	8	Agosto	2023-01-08T00:00:00	2024-11-06T09:00:00	6	Velocidad del viento	4.8
110854	7	Sololá	702	San José Chacayá	5	Chacayá	8	Agosto	2023-01-08T00:00:00	2024-11-06T09:00:00	7	Dirección del viento	4.83
110855	7	Sololá	702	San José Chacayá	5	Chacayá	8	Agosto	2023-01-08T00:00:00	2024-11-06T09:00:00	1	Precipitación	0
110856	7	Sololá	702	San José Chacayá	5	Chacayá	8	Agosto	2023-01-08T00:00:00	2024-11-06T09:00:00	8	Radiación solar	444
110857	7	Sololá	702	San José Chacayá	5	Chacayá	8	Agosto	2023-01-08T00:00:00	2024-11-06T10:00:00	2	Temperatura media	19.8
110858	7	Sololá	702	San José Chacayá	5	Chacayá	8	Agosto	2023-01-08T00:00:00	2024-11-06T10:00:00	4	Temperatura máxima	22.7
110859	7	Sololá	702	San José Chacayá	5	Chacayá	8	Agosto	2023-01-08T00:00:00	2024-11-06T10:00:00	3	Temperatura mínima	19.8
110860	7	Sololá	702	San José Chacayá	5	Chacayá	8	Agosto	2023-01-08T00:00:00	2024-11-06T10:00:00	5	Humedad	80
110861	7	Sololá	702	San José Chacayá	5	Chacayá	8	Agosto	2023-01-08T00:00:00	2024-11-06T10:00:00	6	Velocidad del viento	3.2
110862	7	Sololá	702	San José Chacayá	5	Chacayá	8	Agosto	2023-01-08T00:00:00	2024-11-06T10:00:00	7	Dirección del viento	3.22
110863	7	Sololá	702	San José Chacayá	5	Chacayá	8	Agosto	2023-01-08T00:00:00	2024-11-06T10:00:00	1	Precipitación	0
110864	7	Sololá	702	San José Chacayá	5	Chacayá	8	Agosto	2023-01-08T00:00:00	2024-11-06T10:00:00	8	Radiación solar	763
110865	7	Sololá	702	San José Chacayá	5	Chacayá	8	Agosto	2023-01-08T00:00:00	2024-11-06T11:00:00	2	Temperatura media	19.8
110866	7	Sololá	702	San José Chacayá	5	Chacayá	8	Agosto	2023-01-08T00:00:00	2024-11-06T11:00:00	4	Temperatura máxima	21.5
110867	7	Sololá	702	San José Chacayá	5	Chacayá	8	Agosto	2023-01-08T00:00:00	2024-11-06T11:00:00	3	Temperatura mínima	19.8
110868	7	Sololá	702	San José Chacayá	5	Chacayá	8	Agosto	2023-01-08T00:00:00	2024-11-06T11:00:00	5	Humedad	81
110869	7	Sololá	702	San José Chacayá	5	Chacayá	8	Agosto	2023-01-08T00:00:00	2024-11-06T11:00:00	6	Velocidad del viento	4.8
110870	7	Sololá	702	San José Chacayá	5	Chacayá	8	Agosto	2023-01-08T00:00:00	2024-11-06T11:00:00	7	Dirección del viento	4.83
110871	7	Sololá	702	San José Chacayá	5	Chacayá	8	Agosto	2023-01-08T00:00:00	2024-11-06T11:00:00	1	Precipitación	0
110872	7	Sololá	702	San José Chacayá	5	Chacayá	8	Agosto	2023-01-08T00:00:00	2024-11-06T11:00:00	8	Radiación solar	628
110873	7	Sololá	702	San José Chacayá	5	Chacayá	8	Agosto	2023-01-08T00:00:00	2024-11-06T12:00:00	2	Temperatura media	15.2
110874	7	Sololá	702	San José Chacayá	5	Chacayá	8	Agosto	2023-01-08T00:00:00	2024-11-06T12:00:00	4	Temperatura máxima	19.8
110875	7	Sololá	702	San José Chacayá	5	Chacayá	8	Agosto	2023-01-08T00:00:00	2024-11-06T12:00:00	3	Temperatura mínima	15.2
110876	7	Sololá	702	San José Chacayá	5	Chacayá	8	Agosto	2023-01-08T00:00:00	2024-11-06T12:00:00	5	Humedad	69
110877	7	Sololá	702	San José Chacayá	5	Chacayá	8	Agosto	2023-01-08T00:00:00	2024-11-06T12:00:00	6	Velocidad del viento	4.8
110878	7	Sololá	702	San José Chacayá	5	Chacayá	8	Agosto	2023-01-08T00:00:00	2024-11-06T12:00:00	7	Dirección del viento	4.83
110879	7	Sololá	702	San José Chacayá	5	Chacayá	8	Agosto	2023-01-08T00:00:00	2024-11-06T12:00:00	1	Precipitación	23
110880	7	Sololá	702	San José Chacayá	5	Chacayá	8	Agosto	2023-01-08T00:00:00	2024-11-06T12:00:00	8	Radiación solar	511
110881	7	Sololá	702	San José Chacayá	5	Chacayá	8	Agosto	2023-01-08T00:00:00	2024-11-06T13:00:00	2	Temperatura media	15.5
110882	7	Sololá	702	San José Chacayá	5	Chacayá	8	Agosto	2023-01-08T00:00:00	2024-11-06T13:00:00	4	Temperatura máxima	15.6
110883	7	Sololá	702	San José Chacayá	5	Chacayá	8	Agosto	2023-01-08T00:00:00	2024-11-06T13:00:00	3	Temperatura mínima	15.2
110884	7	Sololá	702	San José Chacayá	5	Chacayá	8	Agosto	2023-01-08T00:00:00	2024-11-06T13:00:00	5	Humedad	47
110885	7	Sololá	702	San José Chacayá	5	Chacayá	8	Agosto	2023-01-08T00:00:00	2024-11-06T13:00:00	6	Velocidad del viento	0
110886	7	Sololá	702	San José Chacayá	5	Chacayá	8	Agosto	2023-01-08T00:00:00	2024-11-06T13:00:00	7	Dirección del viento	0
110887	7	Sololá	702	San José Chacayá	5	Chacayá	8	Agosto	2023-01-08T00:00:00	2024-11-06T13:00:00	1	Precipitación	2.8
110888	7	Sololá	702	San José Chacayá	5	Chacayá	8	Agosto	2023-01-08T00:00:00	2024-11-06T13:00:00	8	Radiación solar	383
110889	7	Sololá	702	San José Chacayá	5	Chacayá	8	Agosto	2023-01-08T00:00:00	2024-11-06T14:00:00	2	Temperatura media	15.3
110890	7	Sololá	702	San José Chacayá	5	Chacayá	8	Agosto	2023-01-08T00:00:00	2024-11-06T14:00:00	4	Temperatura máxima	15.5
110891	7	Sololá	702	San José Chacayá	5	Chacayá	8	Agosto	2023-01-08T00:00:00	2024-11-06T14:00:00	3	Temperatura mínima	15.3
110892	7	Sololá	702	San José Chacayá	5	Chacayá	8	Agosto	2023-01-08T00:00:00	2024-11-06T14:00:00	5	Humedad	43
110893	7	Sololá	702	San José Chacayá	5	Chacayá	8	Agosto	2023-01-08T00:00:00	2024-11-06T14:00:00	6	Velocidad del viento	0
110894	7	Sololá	702	San José Chacayá	5	Chacayá	8	Agosto	2023-01-08T00:00:00	2024-11-06T14:00:00	7	Dirección del viento	0
110895	7	Sololá	702	San José Chacayá	5	Chacayá	8	Agosto	2023-01-08T00:00:00	2024-11-06T14:00:00	1	Precipitación	0.2
110896	7	Sololá	702	San José Chacayá	5	Chacayá	8	Agosto	2023-01-08T00:00:00	2024-11-06T14:00:00	8	Radiación solar	769
110897	7	Sololá	702	San José Chacayá	5	Chacayá	8	Agosto	2023-01-08T00:00:00	2024-11-06T15:00:00	2	Temperatura media	14.8
110898	7	Sololá	702	San José Chacayá	5	Chacayá	8	Agosto	2023-01-08T00:00:00	2024-11-06T15:00:00	4	Temperatura máxima	15.3
110899	7	Sololá	702	San José Chacayá	5	Chacayá	8	Agosto	2023-01-08T00:00:00	2024-11-06T15:00:00	3	Temperatura mínima	14.8
110900	7	Sololá	702	San José Chacayá	5	Chacayá	8	Agosto	2023-01-08T00:00:00	2024-11-06T15:00:00	5	Humedad	40
110901	7	Sololá	702	San José Chacayá	5	Chacayá	8	Agosto	2023-01-08T00:00:00	2024-11-06T15:00:00	6	Velocidad del viento	0
110902	7	Sololá	702	San José Chacayá	5	Chacayá	8	Agosto	2023-01-08T00:00:00	2024-11-06T15:00:00	7	Dirección del viento	0
110903	7	Sololá	702	San José Chacayá	5	Chacayá	8	Agosto	2023-01-08T00:00:00	2024-11-06T15:00:00	1	Precipitación	0
110904	7	Sololá	702	San José Chacayá	5	Chacayá	8	Agosto	2023-01-08T00:00:00	2024-11-06T15:00:00	8	Radiación solar	273
110905	7	Sololá	702	San José Chacayá	5	Chacayá	8	Agosto	2023-01-08T00:00:00	2024-11-06T16:00:00	2	Temperatura media	14.9
110906	7	Sololá	702	San José Chacayá	5	Chacayá	8	Agosto	2023-01-08T00:00:00	2024-11-06T16:00:00	4	Temperatura máxima	14.9
110907	7	Sololá	702	San José Chacayá	5	Chacayá	8	Agosto	2023-01-08T00:00:00	2024-11-06T16:00:00	3	Temperatura mínima	14.8
110908	7	Sololá	702	San José Chacayá	5	Chacayá	8	Agosto	2023-01-08T00:00:00	2024-11-06T16:00:00	5	Humedad	30
110909	7	Sololá	702	San José Chacayá	5	Chacayá	8	Agosto	2023-01-08T00:00:00	2024-11-06T16:00:00	6	Velocidad del viento	0
110910	7	Sololá	702	San José Chacayá	5	Chacayá	8	Agosto	2023-01-08T00:00:00	2024-11-06T16:00:00	7	Dirección del viento	0
110911	7	Sololá	702	San José Chacayá	5	Chacayá	8	Agosto	2023-01-08T00:00:00	2024-11-06T16:00:00	1	Precipitación	0
110912	7	Sololá	702	San José Chacayá	5	Chacayá	8	Agosto	2023-01-08T00:00:00	2024-11-06T16:00:00	8	Radiación solar	402
110913	7	Sololá	702	San José Chacayá	5	Chacayá	8	Agosto	2023-01-08T00:00:00	2024-11-06T17:00:00	2	Temperatura media	14
110914	7	Sololá	702	San José Chacayá	5	Chacayá	8	Agosto	2023-01-08T00:00:00	2024-11-06T17:00:00	4	Temperatura máxima	14.9
110915	7	Sololá	702	San José Chacayá	5	Chacayá	8	Agosto	2023-01-08T00:00:00	2024-11-06T17:00:00	3	Temperatura mínima	14
110916	7	Sololá	702	San José Chacayá	5	Chacayá	8	Agosto	2023-01-08T00:00:00	2024-11-06T17:00:00	5	Humedad	35
110917	7	Sololá	702	San José Chacayá	5	Chacayá	8	Agosto	2023-01-08T00:00:00	2024-11-06T17:00:00	6	Velocidad del viento	1.6
110918	7	Sololá	702	San José Chacayá	5	Chacayá	8	Agosto	2023-01-08T00:00:00	2024-11-06T17:00:00	7	Dirección del viento	1.61
110919	7	Sololá	702	San José Chacayá	5	Chacayá	8	Agosto	2023-01-08T00:00:00	2024-11-06T17:00:00	1	Precipitación	9.4
110920	7	Sololá	702	San José Chacayá	5	Chacayá	8	Agosto	2023-01-08T00:00:00	2024-11-06T17:00:00	8	Radiación solar	48
110921	7	Sololá	702	San José Chacayá	5	Chacayá	8	Agosto	2023-01-08T00:00:00	2024-11-06T18:00:00	2	Temperatura media	15.3
110922	7	Sololá	702	San José Chacayá	5	Chacayá	8	Agosto	2023-01-08T00:00:00	2024-11-06T18:00:00	4	Temperatura máxima	15.3
110923	7	Sololá	702	San José Chacayá	5	Chacayá	8	Agosto	2023-01-08T00:00:00	2024-11-06T18:00:00	3	Temperatura mínima	15.2
110924	7	Sololá	702	San José Chacayá	5	Chacayá	8	Agosto	2023-01-08T00:00:00	2024-11-06T18:00:00	5	Humedad	95
110925	7	Sololá	702	San José Chacayá	5	Chacayá	8	Agosto	2023-01-08T00:00:00	2024-11-06T18:00:00	6	Velocidad del viento	0
110926	7	Sololá	702	San José Chacayá	5	Chacayá	8	Agosto	2023-01-08T00:00:00	2024-11-06T18:00:00	7	Dirección del viento	0
110927	7	Sololá	702	San José Chacayá	5	Chacayá	8	Agosto	2023-01-08T00:00:00	2024-11-06T18:00:00	1	Precipitación	0
110928	7	Sololá	702	San José Chacayá	5	Chacayá	8	Agosto	2023-01-08T00:00:00	2024-11-06T18:00:00	8	Radiación solar	31
110929	7	Sololá	702	San José Chacayá	5	Chacayá	8	Agosto	2023-01-08T00:00:00	2024-11-06T19:00:00	2	Temperatura media	15.1
110930	7	Sololá	702	San José Chacayá	5	Chacayá	8	Agosto	2023-01-08T00:00:00	2024-11-06T19:00:00	4	Temperatura máxima	15.2
110931	7	Sololá	702	San José Chacayá	5	Chacayá	8	Agosto	2023-01-08T00:00:00	2024-11-06T19:00:00	3	Temperatura mínima	15.1
110932	7	Sololá	702	San José Chacayá	5	Chacayá	8	Agosto	2023-01-08T00:00:00	2024-11-06T19:00:00	5	Humedad	95
110933	7	Sololá	702	San José Chacayá	5	Chacayá	8	Agosto	2023-01-08T00:00:00	2024-11-06T19:00:00	6	Velocidad del viento	0
110934	7	Sololá	702	San José Chacayá	5	Chacayá	8	Agosto	2023-01-08T00:00:00	2024-11-06T19:00:00	7	Dirección del viento	0
110935	7	Sololá	702	San José Chacayá	5	Chacayá	8	Agosto	2023-01-08T00:00:00	2024-11-06T19:00:00	1	Precipitación	0
110936	7	Sololá	702	San José Chacayá	5	Chacayá	8	Agosto	2023-01-08T00:00:00	2024-11-06T19:00:00	8	Radiación solar	0
110937	7	Sololá	702	San José Chacayá	5	Chacayá	8	Agosto	2023-01-08T00:00:00	2024-11-06T20:00:00	2	Temperatura media	14.6
110938	7	Sololá	702	San José Chacayá	5	Chacayá	8	Agosto	2023-01-08T00:00:00	2024-11-06T20:00:00	4	Temperatura máxima	14.8
110939	7	Sololá	702	San José Chacayá	5	Chacayá	8	Agosto	2023-01-08T00:00:00	2024-11-06T20:00:00	3	Temperatura mínima	14.6
110940	7	Sololá	702	San José Chacayá	5	Chacayá	8	Agosto	2023-01-08T00:00:00	2024-11-06T20:00:00	5	Humedad	95
110941	7	Sololá	702	San José Chacayá	5	Chacayá	8	Agosto	2023-01-08T00:00:00	2024-11-06T20:00:00	6	Velocidad del viento	0
110942	7	Sololá	702	San José Chacayá	5	Chacayá	8	Agosto	2023-01-08T00:00:00	2024-11-06T20:00:00	7	Dirección del viento	0
110943	7	Sololá	702	San José Chacayá	5	Chacayá	8	Agosto	2023-01-08T00:00:00	2024-11-06T20:00:00	1	Precipitación	0
110944	7	Sololá	702	San José Chacayá	5	Chacayá	8	Agosto	2023-01-08T00:00:00	2024-11-06T20:00:00	8	Radiación solar	0
110945	7	Sololá	702	San José Chacayá	5	Chacayá	8	Agosto	2023-01-08T00:00:00	2024-11-06T21:00:00	2	Temperatura media	12.6
110946	7	Sololá	702	San José Chacayá	5	Chacayá	8	Agosto	2023-01-08T00:00:00	2024-11-06T21:00:00	4	Temperatura máxima	12.7
110947	7	Sololá	702	San José Chacayá	5	Chacayá	8	Agosto	2023-01-08T00:00:00	2024-11-06T21:00:00	3	Temperatura mínima	12.6
110948	7	Sololá	702	San José Chacayá	5	Chacayá	8	Agosto	2023-01-08T00:00:00	2024-11-06T21:00:00	5	Humedad	47
110949	7	Sololá	702	San José Chacayá	5	Chacayá	8	Agosto	2023-01-08T00:00:00	2024-11-06T21:00:00	6	Velocidad del viento	1.6
110950	7	Sololá	702	San José Chacayá	5	Chacayá	8	Agosto	2023-01-08T00:00:00	2024-11-06T21:00:00	7	Dirección del viento	1.61
110951	7	Sololá	702	San José Chacayá	5	Chacayá	8	Agosto	2023-01-08T00:00:00	2024-11-06T21:00:00	1	Precipitación	0
110952	7	Sololá	702	San José Chacayá	5	Chacayá	8	Agosto	2023-01-08T00:00:00	2024-11-06T21:00:00	8	Radiación solar	0
110953	7	Sololá	702	San José Chacayá	5	Chacayá	8	Agosto	2023-01-08T00:00:00	2024-11-06T22:00:00	2	Temperatura media	12.4
110954	7	Sololá	702	San José Chacayá	5	Chacayá	8	Agosto	2023-01-08T00:00:00	2024-11-06T22:00:00	4	Temperatura máxima	12.6
110955	7	Sololá	702	San José Chacayá	5	Chacayá	8	Agosto	2023-01-08T00:00:00	2024-11-06T22:00:00	3	Temperatura mínima	12.4
110956	7	Sololá	702	San José Chacayá	5	Chacayá	8	Agosto	2023-01-08T00:00:00	2024-11-06T22:00:00	5	Humedad	54
110957	7	Sololá	702	San José Chacayá	5	Chacayá	8	Agosto	2023-01-08T00:00:00	2024-11-06T22:00:00	6	Velocidad del viento	1.6
110958	7	Sololá	702	San José Chacayá	5	Chacayá	8	Agosto	2023-01-08T00:00:00	2024-11-06T22:00:00	7	Dirección del viento	1.61
110959	7	Sololá	702	San José Chacayá	5	Chacayá	8	Agosto	2023-01-08T00:00:00	2024-11-06T22:00:00	1	Precipitación	0
110960	7	Sololá	702	San José Chacayá	5	Chacayá	8	Agosto	2023-01-08T00:00:00	2024-11-06T22:00:00	8	Radiación solar	0
110961	7	Sololá	702	San José Chacayá	5	Chacayá	8	Agosto	2023-01-08T00:00:00	2024-11-06T23:00:00	2	Temperatura media	12.3
110962	7	Sololá	702	San José Chacayá	5	Chacayá	8	Agosto	2023-01-08T00:00:00	2024-11-06T23:00:00	4	Temperatura máxima	12.5
110963	7	Sololá	702	San José Chacayá	5	Chacayá	8	Agosto	2023-01-08T00:00:00	2024-11-06T23:00:00	3	Temperatura mínima	12.2
110964	7	Sololá	702	San José Chacayá	5	Chacayá	8	Agosto	2023-01-08T00:00:00	2024-11-06T23:00:00	5	Humedad	57
110965	7	Sololá	702	San José Chacayá	5	Chacayá	8	Agosto	2023-01-08T00:00:00	2024-11-06T23:00:00	6	Velocidad del viento	1.6
110966	7	Sololá	702	San José Chacayá	5	Chacayá	8	Agosto	2023-01-08T00:00:00	2024-11-06T23:00:00	7	Dirección del viento	1.61
110967	7	Sololá	702	San José Chacayá	5	Chacayá	8	Agosto	2023-01-08T00:00:00	2024-11-06T23:00:00	1	Precipitación	0
110968	7	Sololá	702	San José Chacayá	5	Chacayá	8	Agosto	2023-01-08T00:00:00	2024-11-06T23:00:00	8	Radiación solar	0
110969	7	Sololá	702	San José Chacayá	5	Chacayá	8	Agosto	2023-02-08T00:00:00	2024-11-06T00:00:00	2	Temperatura media	12.6
110970	7	Sololá	702	San José Chacayá	5	Chacayá	8	Agosto	2023-02-08T00:00:00	2024-11-06T00:00:00	4	Temperatura máxima	12.6
110971	7	Sololá	702	San José Chacayá	5	Chacayá	8	Agosto	2023-02-08T00:00:00	2024-11-06T00:00:00	3	Temperatura mínima	12.3
110972	7	Sololá	702	San José Chacayá	5	Chacayá	8	Agosto	2023-02-08T00:00:00	2024-11-06T00:00:00	5	Humedad	64
110973	7	Sololá	702	San José Chacayá	5	Chacayá	8	Agosto	2023-02-08T00:00:00	2024-11-06T00:00:00	6	Velocidad del viento	0
110974	7	Sololá	702	San José Chacayá	5	Chacayá	8	Agosto	2023-02-08T00:00:00	2024-11-06T00:00:00	7	Dirección del viento	0
110975	7	Sololá	702	San José Chacayá	5	Chacayá	8	Agosto	2023-02-08T00:00:00	2024-11-06T00:00:00	1	Precipitación	0
110976	7	Sololá	702	San José Chacayá	5	Chacayá	8	Agosto	2023-02-08T00:00:00	2024-11-06T00:00:00	8	Radiación solar	0
110977	7	Sololá	702	San José Chacayá	5	Chacayá	8	Agosto	2023-02-08T00:00:00	2024-11-06T01:00:00	2	Temperatura media	12.7
110978	7	Sololá	702	San José Chacayá	5	Chacayá	8	Agosto	2023-02-08T00:00:00	2024-11-06T01:00:00	4	Temperatura máxima	12.8
110979	7	Sololá	702	San José Chacayá	5	Chacayá	8	Agosto	2023-02-08T00:00:00	2024-11-06T01:00:00	3	Temperatura mínima	12.6
110980	7	Sololá	702	San José Chacayá	5	Chacayá	8	Agosto	2023-02-08T00:00:00	2024-11-06T01:00:00	5	Humedad	64
110981	7	Sololá	702	San José Chacayá	5	Chacayá	8	Agosto	2023-02-08T00:00:00	2024-11-06T01:00:00	6	Velocidad del viento	1.6
110982	7	Sololá	702	San José Chacayá	5	Chacayá	8	Agosto	2023-02-08T00:00:00	2024-11-06T01:00:00	7	Dirección del viento	1.61
110983	7	Sololá	702	San José Chacayá	5	Chacayá	8	Agosto	2023-02-08T00:00:00	2024-11-06T01:00:00	1	Precipitación	0
110984	7	Sololá	702	San José Chacayá	5	Chacayá	8	Agosto	2023-02-08T00:00:00	2024-11-06T01:00:00	8	Radiación solar	0
110985	7	Sololá	702	San José Chacayá	5	Chacayá	8	Agosto	2023-02-08T00:00:00	2024-11-06T02:00:00	2	Temperatura media	12.9
110986	7	Sololá	702	San José Chacayá	5	Chacayá	8	Agosto	2023-02-08T00:00:00	2024-11-06T02:00:00	4	Temperatura máxima	12.9
110987	7	Sololá	702	San José Chacayá	5	Chacayá	8	Agosto	2023-02-08T00:00:00	2024-11-06T02:00:00	3	Temperatura mínima	12.7
110988	7	Sololá	702	San José Chacayá	5	Chacayá	8	Agosto	2023-02-08T00:00:00	2024-11-06T02:00:00	5	Humedad	59
110989	7	Sololá	702	San José Chacayá	5	Chacayá	8	Agosto	2023-02-08T00:00:00	2024-11-06T02:00:00	6	Velocidad del viento	0
110990	7	Sololá	702	San José Chacayá	5	Chacayá	8	Agosto	2023-02-08T00:00:00	2024-11-06T02:00:00	7	Dirección del viento	0
110991	7	Sololá	702	San José Chacayá	5	Chacayá	8	Agosto	2023-02-08T00:00:00	2024-11-06T02:00:00	1	Precipitación	0
110992	7	Sololá	702	San José Chacayá	5	Chacayá	8	Agosto	2023-02-08T00:00:00	2024-11-06T02:00:00	8	Radiación solar	0
110993	7	Sololá	702	San José Chacayá	5	Chacayá	8	Agosto	2023-02-08T00:00:00	2024-11-06T03:00:00	2	Temperatura media	12.1
110994	7	Sololá	702	San José Chacayá	5	Chacayá	8	Agosto	2023-02-08T00:00:00	2024-11-06T03:00:00	4	Temperatura máxima	12.3
110995	7	Sololá	702	San José Chacayá	5	Chacayá	8	Agosto	2023-02-08T00:00:00	2024-11-06T03:00:00	3	Temperatura mínima	12.1
110996	7	Sololá	702	San José Chacayá	5	Chacayá	8	Agosto	2023-02-08T00:00:00	2024-11-06T03:00:00	5	Humedad	95
110997	7	Sololá	702	San José Chacayá	5	Chacayá	8	Agosto	2023-02-08T00:00:00	2024-11-06T03:00:00	6	Velocidad del viento	1.6
110998	7	Sololá	702	San José Chacayá	5	Chacayá	8	Agosto	2023-02-08T00:00:00	2024-11-06T03:00:00	7	Dirección del viento	0.8
110999	7	Sololá	702	San José Chacayá	5	Chacayá	8	Agosto	2023-02-08T00:00:00	2024-11-06T03:00:00	1	Precipitación	0
111000	7	Sololá	702	San José Chacayá	5	Chacayá	8	Agosto	2023-02-08T00:00:00	2024-11-06T03:00:00	8	Radiación solar	0
111001	7	Sololá	702	San José Chacayá	5	Chacayá	8	Agosto	2023-02-08T00:00:00	2024-11-06T04:00:00	2	Temperatura media	11.9
111002	7	Sololá	702	San José Chacayá	5	Chacayá	8	Agosto	2023-02-08T00:00:00	2024-11-06T04:00:00	4	Temperatura máxima	11.9
111003	7	Sololá	702	San José Chacayá	5	Chacayá	8	Agosto	2023-02-08T00:00:00	2024-11-06T04:00:00	3	Temperatura mínima	11.8
111004	7	Sololá	702	San José Chacayá	5	Chacayá	8	Agosto	2023-02-08T00:00:00	2024-11-06T04:00:00	5	Humedad	95
111005	7	Sololá	702	San José Chacayá	5	Chacayá	8	Agosto	2023-02-08T00:00:00	2024-11-06T04:00:00	6	Velocidad del viento	1.6
111006	7	Sololá	702	San José Chacayá	5	Chacayá	8	Agosto	2023-02-08T00:00:00	2024-11-06T04:00:00	7	Dirección del viento	0.8
111007	7	Sololá	702	San José Chacayá	5	Chacayá	8	Agosto	2023-02-08T00:00:00	2024-11-06T04:00:00	1	Precipitación	0
111008	7	Sololá	702	San José Chacayá	5	Chacayá	8	Agosto	2023-02-08T00:00:00	2024-11-06T04:00:00	8	Radiación solar	0
111009	7	Sololá	702	San José Chacayá	5	Chacayá	8	Agosto	2023-02-08T00:00:00	2024-11-06T05:00:00	2	Temperatura media	17.6
111010	7	Sololá	702	San José Chacayá	5	Chacayá	8	Agosto	2023-02-08T00:00:00	2024-11-06T05:00:00	4	Temperatura máxima	17.7
111011	7	Sololá	702	San José Chacayá	5	Chacayá	8	Agosto	2023-02-08T00:00:00	2024-11-06T05:00:00	3	Temperatura mínima	16.2
111012	7	Sololá	702	San José Chacayá	5	Chacayá	8	Agosto	2023-02-08T00:00:00	2024-11-06T05:00:00	5	Humedad	78
111013	7	Sololá	702	San José Chacayá	5	Chacayá	8	Agosto	2023-02-08T00:00:00	2024-11-06T05:00:00	6	Velocidad del viento	3.2
111014	7	Sololá	702	San José Chacayá	5	Chacayá	8	Agosto	2023-02-08T00:00:00	2024-11-06T05:00:00	7	Dirección del viento	3.22
111015	7	Sololá	702	San José Chacayá	5	Chacayá	8	Agosto	2023-02-08T00:00:00	2024-11-06T05:00:00	1	Precipitación	0
111016	7	Sololá	702	San José Chacayá	5	Chacayá	8	Agosto	2023-02-08T00:00:00	2024-11-06T05:00:00	8	Radiación solar	0
111017	7	Sololá	702	San José Chacayá	5	Chacayá	8	Agosto	2023-02-08T00:00:00	2024-11-06T06:00:00	2	Temperatura media	18.2
111018	7	Sololá	702	San José Chacayá	5	Chacayá	8	Agosto	2023-02-08T00:00:00	2024-11-06T06:00:00	4	Temperatura máxima	18.2
111019	7	Sololá	702	San José Chacayá	5	Chacayá	8	Agosto	2023-02-08T00:00:00	2024-11-06T06:00:00	3	Temperatura mínima	17.5
111020	7	Sololá	702	San José Chacayá	5	Chacayá	8	Agosto	2023-02-08T00:00:00	2024-11-06T06:00:00	5	Humedad	76
111021	7	Sololá	702	San José Chacayá	5	Chacayá	8	Agosto	2023-02-08T00:00:00	2024-11-06T06:00:00	6	Velocidad del viento	4.8
111022	7	Sololá	702	San José Chacayá	5	Chacayá	8	Agosto	2023-02-08T00:00:00	2024-11-06T06:00:00	7	Dirección del viento	4.83
111023	7	Sololá	702	San José Chacayá	5	Chacayá	8	Agosto	2023-02-08T00:00:00	2024-11-06T06:00:00	1	Precipitación	0
111024	7	Sololá	702	San José Chacayá	5	Chacayá	8	Agosto	2023-02-08T00:00:00	2024-11-06T06:00:00	8	Radiación solar	2
111025	7	Sololá	702	San José Chacayá	5	Chacayá	8	Agosto	2023-02-08T00:00:00	2024-11-06T07:00:00	2	Temperatura media	17.7
111026	7	Sololá	702	San José Chacayá	5	Chacayá	8	Agosto	2023-02-08T00:00:00	2024-11-06T07:00:00	4	Temperatura máxima	18.6
111027	7	Sololá	702	San José Chacayá	5	Chacayá	8	Agosto	2023-02-08T00:00:00	2024-11-06T07:00:00	3	Temperatura mínima	17.6
111028	7	Sololá	702	San José Chacayá	5	Chacayá	8	Agosto	2023-02-08T00:00:00	2024-11-06T07:00:00	5	Humedad	76
111029	7	Sololá	702	San José Chacayá	5	Chacayá	8	Agosto	2023-02-08T00:00:00	2024-11-06T07:00:00	6	Velocidad del viento	4.8
111030	7	Sololá	702	San José Chacayá	5	Chacayá	8	Agosto	2023-02-08T00:00:00	2024-11-06T07:00:00	7	Dirección del viento	4.83
111031	7	Sololá	702	San José Chacayá	5	Chacayá	8	Agosto	2023-02-08T00:00:00	2024-11-06T07:00:00	1	Precipitación	0
111032	7	Sololá	702	San José Chacayá	5	Chacayá	8	Agosto	2023-02-08T00:00:00	2024-11-06T07:00:00	8	Radiación solar	49
111033	7	Sololá	702	San José Chacayá	5	Chacayá	8	Agosto	2023-02-08T00:00:00	2024-11-06T08:00:00	2	Temperatura media	17.3
111034	7	Sololá	702	San José Chacayá	5	Chacayá	8	Agosto	2023-02-08T00:00:00	2024-11-06T08:00:00	4	Temperatura máxima	17.8
111035	7	Sololá	702	San José Chacayá	5	Chacayá	8	Agosto	2023-02-08T00:00:00	2024-11-06T08:00:00	3	Temperatura mínima	17.3
111036	7	Sololá	702	San José Chacayá	5	Chacayá	8	Agosto	2023-02-08T00:00:00	2024-11-06T08:00:00	5	Humedad	77
111037	7	Sololá	702	San José Chacayá	5	Chacayá	8	Agosto	2023-02-08T00:00:00	2024-11-06T08:00:00	6	Velocidad del viento	3.2
111038	7	Sololá	702	San José Chacayá	5	Chacayá	8	Agosto	2023-02-08T00:00:00	2024-11-06T08:00:00	7	Dirección del viento	3.22
111039	7	Sololá	702	San José Chacayá	5	Chacayá	8	Agosto	2023-02-08T00:00:00	2024-11-06T08:00:00	1	Precipitación	0
111040	7	Sololá	702	San José Chacayá	5	Chacayá	8	Agosto	2023-02-08T00:00:00	2024-11-06T08:00:00	8	Radiación solar	78
111041	7	Sololá	702	San José Chacayá	5	Chacayá	8	Agosto	2023-02-08T00:00:00	2024-11-06T09:00:00	2	Temperatura media	17.1
111042	7	Sololá	702	San José Chacayá	5	Chacayá	8	Agosto	2023-02-08T00:00:00	2024-11-06T09:00:00	4	Temperatura máxima	17.3
111043	7	Sololá	702	San José Chacayá	5	Chacayá	8	Agosto	2023-02-08T00:00:00	2024-11-06T09:00:00	3	Temperatura mínima	16.9
111044	7	Sololá	702	San José Chacayá	5	Chacayá	8	Agosto	2023-02-08T00:00:00	2024-11-06T09:00:00	5	Humedad	80
111045	7	Sololá	702	San José Chacayá	5	Chacayá	8	Agosto	2023-02-08T00:00:00	2024-11-06T09:00:00	6	Velocidad del viento	1.6
111046	7	Sololá	702	San José Chacayá	5	Chacayá	8	Agosto	2023-02-08T00:00:00	2024-11-06T09:00:00	7	Dirección del viento	1.61
111047	7	Sololá	702	San José Chacayá	5	Chacayá	8	Agosto	2023-02-08T00:00:00	2024-11-06T09:00:00	1	Precipitación	0
111048	7	Sololá	702	San José Chacayá	5	Chacayá	8	Agosto	2023-02-08T00:00:00	2024-11-06T09:00:00	8	Radiación solar	418
111049	7	Sololá	702	San José Chacayá	5	Chacayá	8	Agosto	2023-02-08T00:00:00	2024-11-06T10:00:00	2	Temperatura media	17.6
111050	7	Sololá	702	San José Chacayá	5	Chacayá	8	Agosto	2023-02-08T00:00:00	2024-11-06T10:00:00	4	Temperatura máxima	17.6
111051	7	Sololá	702	San José Chacayá	5	Chacayá	8	Agosto	2023-02-08T00:00:00	2024-11-06T10:00:00	3	Temperatura mínima	16.7
111052	7	Sololá	702	San José Chacayá	5	Chacayá	8	Agosto	2023-02-08T00:00:00	2024-11-06T10:00:00	5	Humedad	78
111053	7	Sololá	702	San José Chacayá	5	Chacayá	8	Agosto	2023-02-08T00:00:00	2024-11-06T10:00:00	6	Velocidad del viento	4.8
111054	7	Sololá	702	San José Chacayá	5	Chacayá	8	Agosto	2023-02-08T00:00:00	2024-11-06T10:00:00	7	Dirección del viento	2.41
111055	7	Sololá	702	San José Chacayá	5	Chacayá	8	Agosto	2023-02-08T00:00:00	2024-11-06T10:00:00	1	Precipitación	3.05
111056	7	Sololá	702	San José Chacayá	5	Chacayá	8	Agosto	2023-02-08T00:00:00	2024-11-06T10:00:00	8	Radiación solar	625
111057	7	Sololá	702	San José Chacayá	5	Chacayá	8	Agosto	2023-02-08T00:00:00	2024-11-06T11:00:00	2	Temperatura media	18.2
111058	7	Sololá	702	San José Chacayá	5	Chacayá	8	Agosto	2023-02-08T00:00:00	2024-11-06T11:00:00	4	Temperatura máxima	18.3
111059	7	Sololá	702	San José Chacayá	5	Chacayá	8	Agosto	2023-02-08T00:00:00	2024-11-06T11:00:00	3	Temperatura mínima	17.8
111060	7	Sololá	702	San José Chacayá	5	Chacayá	8	Agosto	2023-02-08T00:00:00	2024-11-06T11:00:00	5	Humedad	76
111061	7	Sololá	702	San José Chacayá	5	Chacayá	8	Agosto	2023-02-08T00:00:00	2024-11-06T11:00:00	6	Velocidad del viento	4.8
111062	7	Sololá	702	San José Chacayá	5	Chacayá	8	Agosto	2023-02-08T00:00:00	2024-11-06T11:00:00	7	Dirección del viento	2.41
111063	7	Sololá	702	San José Chacayá	5	Chacayá	8	Agosto	2023-02-08T00:00:00	2024-11-06T11:00:00	1	Precipitación	0
111064	7	Sololá	702	San José Chacayá	5	Chacayá	8	Agosto	2023-02-08T00:00:00	2024-11-06T11:00:00	8	Radiación solar	740
111065	7	Sololá	702	San José Chacayá	5	Chacayá	8	Agosto	2023-02-08T00:00:00	2024-11-06T12:00:00	2	Temperatura media	17.7
111066	7	Sololá	702	San José Chacayá	5	Chacayá	8	Agosto	2023-02-08T00:00:00	2024-11-06T12:00:00	4	Temperatura máxima	18.1
111067	7	Sololá	702	San José Chacayá	5	Chacayá	8	Agosto	2023-02-08T00:00:00	2024-11-06T12:00:00	3	Temperatura mínima	17.6
111068	7	Sololá	702	San José Chacayá	5	Chacayá	8	Agosto	2023-02-08T00:00:00	2024-11-06T12:00:00	5	Humedad	76
111069	7	Sololá	702	San José Chacayá	5	Chacayá	8	Agosto	2023-02-08T00:00:00	2024-11-06T12:00:00	6	Velocidad del viento	6.4
111070	7	Sololá	702	San José Chacayá	5	Chacayá	8	Agosto	2023-02-08T00:00:00	2024-11-06T12:00:00	7	Dirección del viento	3.22
111071	7	Sololá	702	San José Chacayá	5	Chacayá	8	Agosto	2023-02-08T00:00:00	2024-11-06T12:00:00	1	Precipitación	0
111072	7	Sololá	702	San José Chacayá	5	Chacayá	8	Agosto	2023-02-08T00:00:00	2024-11-06T12:00:00	8	Radiación solar	891
111073	7	Sololá	702	San José Chacayá	5	Chacayá	8	Agosto	2023-02-08T00:00:00	2024-11-06T13:00:00	2	Temperatura media	17.2
111074	7	Sololá	702	San José Chacayá	5	Chacayá	8	Agosto	2023-02-08T00:00:00	2024-11-06T13:00:00	4	Temperatura máxima	17.4
111075	7	Sololá	702	San José Chacayá	5	Chacayá	8	Agosto	2023-02-08T00:00:00	2024-11-06T13:00:00	3	Temperatura mínima	17.2
111076	7	Sololá	702	San José Chacayá	5	Chacayá	8	Agosto	2023-02-08T00:00:00	2024-11-06T13:00:00	5	Humedad	76
111077	7	Sololá	702	San José Chacayá	5	Chacayá	8	Agosto	2023-02-08T00:00:00	2024-11-06T13:00:00	6	Velocidad del viento	3.2
111078	7	Sololá	702	San José Chacayá	5	Chacayá	8	Agosto	2023-02-08T00:00:00	2024-11-06T13:00:00	7	Dirección del viento	1.61
111079	7	Sololá	702	San José Chacayá	5	Chacayá	8	Agosto	2023-02-08T00:00:00	2024-11-06T13:00:00	1	Precipitación	0
111080	7	Sololá	702	San José Chacayá	5	Chacayá	8	Agosto	2023-02-08T00:00:00	2024-11-06T13:00:00	8	Radiación solar	961
111081	7	Sololá	702	San José Chacayá	5	Chacayá	8	Agosto	2023-02-08T00:00:00	2024-11-06T14:00:00	2	Temperatura media	17.1
111082	7	Sololá	702	San José Chacayá	5	Chacayá	8	Agosto	2023-02-08T00:00:00	2024-11-06T14:00:00	4	Temperatura máxima	17.2
111083	7	Sololá	702	San José Chacayá	5	Chacayá	8	Agosto	2023-02-08T00:00:00	2024-11-06T14:00:00	3	Temperatura mínima	16.9
111084	7	Sololá	702	San José Chacayá	5	Chacayá	8	Agosto	2023-02-08T00:00:00	2024-11-06T14:00:00	5	Humedad	82
111085	7	Sololá	702	San José Chacayá	5	Chacayá	8	Agosto	2023-02-08T00:00:00	2024-11-06T14:00:00	6	Velocidad del viento	1.6
111086	7	Sololá	702	San José Chacayá	5	Chacayá	8	Agosto	2023-02-08T00:00:00	2024-11-06T14:00:00	7	Dirección del viento	0.8
111087	7	Sololá	702	San José Chacayá	5	Chacayá	8	Agosto	2023-02-08T00:00:00	2024-11-06T14:00:00	1	Precipitación	0
111088	7	Sololá	702	San José Chacayá	5	Chacayá	8	Agosto	2023-02-08T00:00:00	2024-11-06T14:00:00	8	Radiación solar	896
111089	7	Sololá	702	San José Chacayá	5	Chacayá	8	Agosto	2023-02-08T00:00:00	2024-11-06T15:00:00	2	Temperatura media	17.8
111090	7	Sololá	702	San José Chacayá	5	Chacayá	8	Agosto	2023-02-08T00:00:00	2024-11-06T15:00:00	4	Temperatura máxima	17.8
111091	7	Sololá	702	San José Chacayá	5	Chacayá	8	Agosto	2023-02-08T00:00:00	2024-11-06T15:00:00	3	Temperatura mínima	16.9
111092	7	Sololá	702	San José Chacayá	5	Chacayá	8	Agosto	2023-02-08T00:00:00	2024-11-06T15:00:00	5	Humedad	79
111093	7	Sololá	702	San José Chacayá	5	Chacayá	8	Agosto	2023-02-08T00:00:00	2024-11-06T15:00:00	6	Velocidad del viento	1.6
111094	7	Sololá	702	San José Chacayá	5	Chacayá	8	Agosto	2023-02-08T00:00:00	2024-11-06T15:00:00	7	Dirección del viento	0.8
111095	7	Sololá	702	San José Chacayá	5	Chacayá	8	Agosto	2023-02-08T00:00:00	2024-11-06T15:00:00	1	Precipitación	0
111096	7	Sololá	702	San José Chacayá	5	Chacayá	8	Agosto	2023-02-08T00:00:00	2024-11-06T15:00:00	8	Radiación solar	813
111097	7	Sololá	702	San José Chacayá	5	Chacayá	8	Agosto	2023-02-08T00:00:00	2024-11-06T16:00:00	2	Temperatura media	18.3
111098	7	Sololá	702	San José Chacayá	5	Chacayá	8	Agosto	2023-02-08T00:00:00	2024-11-06T16:00:00	4	Temperatura máxima	18.9
111099	7	Sololá	702	San José Chacayá	5	Chacayá	8	Agosto	2023-02-08T00:00:00	2024-11-06T16:00:00	3	Temperatura mínima	18.3
111100	7	Sololá	702	San José Chacayá	5	Chacayá	8	Agosto	2023-02-08T00:00:00	2024-11-06T16:00:00	5	Humedad	73
111101	7	Sololá	702	San José Chacayá	5	Chacayá	8	Agosto	2023-02-08T00:00:00	2024-11-06T16:00:00	6	Velocidad del viento	1.6
111102	7	Sololá	702	San José Chacayá	5	Chacayá	8	Agosto	2023-02-08T00:00:00	2024-11-06T16:00:00	7	Dirección del viento	0.8
111103	7	Sololá	702	San José Chacayá	5	Chacayá	8	Agosto	2023-02-08T00:00:00	2024-11-06T16:00:00	1	Precipitación	0
111104	7	Sololá	702	San José Chacayá	5	Chacayá	8	Agosto	2023-02-08T00:00:00	2024-11-06T16:00:00	8	Radiación solar	585
111105	7	Sololá	702	San José Chacayá	5	Chacayá	8	Agosto	2023-02-08T00:00:00	2024-11-06T17:00:00	2	Temperatura media	17.4
111106	7	Sololá	702	San José Chacayá	5	Chacayá	8	Agosto	2023-02-08T00:00:00	2024-11-06T17:00:00	4	Temperatura máxima	17.7
111107	7	Sololá	702	San José Chacayá	5	Chacayá	8	Agosto	2023-02-08T00:00:00	2024-11-06T17:00:00	3	Temperatura mínima	17.4
111108	7	Sololá	702	San José Chacayá	5	Chacayá	8	Agosto	2023-02-08T00:00:00	2024-11-06T17:00:00	5	Humedad	82
111109	7	Sololá	702	San José Chacayá	5	Chacayá	8	Agosto	2023-02-08T00:00:00	2024-11-06T17:00:00	6	Velocidad del viento	0
111110	7	Sololá	702	San José Chacayá	5	Chacayá	8	Agosto	2023-02-08T00:00:00	2024-11-06T17:00:00	7	Dirección del viento	0
111111	7	Sololá	702	San José Chacayá	5	Chacayá	8	Agosto	2023-02-08T00:00:00	2024-11-06T17:00:00	1	Precipitación	0
111112	7	Sololá	702	San José Chacayá	5	Chacayá	8	Agosto	2023-02-08T00:00:00	2024-11-06T17:00:00	8	Radiación solar	157
111113	7	Sololá	702	San José Chacayá	5	Chacayá	8	Agosto	2023-02-08T00:00:00	2024-11-06T18:00:00	2	Temperatura media	16
111114	7	Sololá	702	San José Chacayá	5	Chacayá	8	Agosto	2023-02-08T00:00:00	2024-11-06T18:00:00	4	Temperatura máxima	16.5
111115	7	Sololá	702	San José Chacayá	5	Chacayá	8	Agosto	2023-02-08T00:00:00	2024-11-06T18:00:00	3	Temperatura mínima	15.9
111116	7	Sololá	702	San José Chacayá	5	Chacayá	8	Agosto	2023-02-08T00:00:00	2024-11-06T18:00:00	5	Humedad	91
111117	7	Sololá	702	San José Chacayá	5	Chacayá	8	Agosto	2023-02-08T00:00:00	2024-11-06T18:00:00	6	Velocidad del viento	0
111118	7	Sololá	702	San José Chacayá	5	Chacayá	8	Agosto	2023-02-08T00:00:00	2024-11-06T18:00:00	7	Dirección del viento	0
111119	7	Sololá	702	San José Chacayá	5	Chacayá	8	Agosto	2023-02-08T00:00:00	2024-11-06T18:00:00	1	Precipitación	9.65
111120	7	Sololá	702	San José Chacayá	5	Chacayá	8	Agosto	2023-02-08T00:00:00	2024-11-06T18:00:00	8	Radiación solar	76
111121	7	Sololá	702	San José Chacayá	5	Chacayá	8	Agosto	2023-02-08T00:00:00	2024-11-06T19:00:00	2	Temperatura media	15.4
111122	7	Sololá	702	San José Chacayá	5	Chacayá	8	Agosto	2023-02-08T00:00:00	2024-11-06T19:00:00	4	Temperatura máxima	15.7
111123	7	Sololá	702	San José Chacayá	5	Chacayá	8	Agosto	2023-02-08T00:00:00	2024-11-06T19:00:00	3	Temperatura mínima	15.3
111124	7	Sololá	702	San José Chacayá	5	Chacayá	8	Agosto	2023-02-08T00:00:00	2024-11-06T19:00:00	5	Humedad	86
111125	7	Sololá	702	San José Chacayá	5	Chacayá	8	Agosto	2023-02-08T00:00:00	2024-11-06T19:00:00	6	Velocidad del viento	0
111126	7	Sololá	702	San José Chacayá	5	Chacayá	8	Agosto	2023-02-08T00:00:00	2024-11-06T19:00:00	7	Dirección del viento	0
111127	7	Sololá	702	San José Chacayá	5	Chacayá	8	Agosto	2023-02-08T00:00:00	2024-11-06T19:00:00	1	Precipitación	0
111128	7	Sololá	702	San José Chacayá	5	Chacayá	8	Agosto	2023-02-08T00:00:00	2024-11-06T19:00:00	8	Radiación solar	0
111129	7	Sololá	702	San José Chacayá	5	Chacayá	8	Agosto	2023-02-08T00:00:00	2024-11-06T20:00:00	2	Temperatura media	14.9
111130	7	Sololá	702	San José Chacayá	5	Chacayá	8	Agosto	2023-02-08T00:00:00	2024-11-06T20:00:00	4	Temperatura máxima	15.2
111131	7	Sololá	702	San José Chacayá	5	Chacayá	8	Agosto	2023-02-08T00:00:00	2024-11-06T20:00:00	3	Temperatura mínima	14.9
111132	7	Sololá	702	San José Chacayá	5	Chacayá	8	Agosto	2023-02-08T00:00:00	2024-11-06T20:00:00	5	Humedad	89
111133	7	Sololá	702	San José Chacayá	5	Chacayá	8	Agosto	2023-02-08T00:00:00	2024-11-06T20:00:00	6	Velocidad del viento	0
111134	7	Sololá	702	San José Chacayá	5	Chacayá	8	Agosto	2023-02-08T00:00:00	2024-11-06T20:00:00	7	Dirección del viento	0
111135	7	Sololá	702	San José Chacayá	5	Chacayá	8	Agosto	2023-02-08T00:00:00	2024-11-06T20:00:00	1	Precipitación	0.51
111136	7	Sololá	702	San José Chacayá	5	Chacayá	8	Agosto	2023-02-08T00:00:00	2024-11-06T20:00:00	8	Radiación solar	0
111137	7	Sololá	702	San José Chacayá	5	Chacayá	8	Agosto	2023-02-08T00:00:00	2024-11-06T21:00:00	2	Temperatura media	15.2
111138	7	Sololá	702	San José Chacayá	5	Chacayá	8	Agosto	2023-02-08T00:00:00	2024-11-06T21:00:00	4	Temperatura máxima	15.4
111139	7	Sololá	702	San José Chacayá	5	Chacayá	8	Agosto	2023-02-08T00:00:00	2024-11-06T21:00:00	3	Temperatura mínima	15.2
111140	7	Sololá	702	San José Chacayá	5	Chacayá	8	Agosto	2023-02-08T00:00:00	2024-11-06T21:00:00	5	Humedad	82
111141	7	Sololá	702	San José Chacayá	5	Chacayá	8	Agosto	2023-02-08T00:00:00	2024-11-06T21:00:00	6	Velocidad del viento	0
111142	7	Sololá	702	San José Chacayá	5	Chacayá	8	Agosto	2023-02-08T00:00:00	2024-11-06T21:00:00	7	Dirección del viento	0
111143	7	Sololá	702	San José Chacayá	5	Chacayá	8	Agosto	2023-02-08T00:00:00	2024-11-06T21:00:00	1	Precipitación	0
111144	7	Sololá	702	San José Chacayá	5	Chacayá	8	Agosto	2023-02-08T00:00:00	2024-11-06T21:00:00	8	Radiación solar	0
111145	7	Sololá	702	San José Chacayá	5	Chacayá	8	Agosto	2023-02-08T00:00:00	2024-11-06T22:00:00	2	Temperatura media	14.9
111146	7	Sololá	702	San José Chacayá	5	Chacayá	8	Agosto	2023-02-08T00:00:00	2024-11-06T22:00:00	4	Temperatura máxima	15.2
111147	7	Sololá	702	San José Chacayá	5	Chacayá	8	Agosto	2023-02-08T00:00:00	2024-11-06T22:00:00	3	Temperatura mínima	14.8
111148	7	Sololá	702	San José Chacayá	5	Chacayá	8	Agosto	2023-02-08T00:00:00	2024-11-06T22:00:00	5	Humedad	81
111149	7	Sololá	702	San José Chacayá	5	Chacayá	8	Agosto	2023-02-08T00:00:00	2024-11-06T22:00:00	6	Velocidad del viento	0
111150	7	Sololá	702	San José Chacayá	5	Chacayá	8	Agosto	2023-02-08T00:00:00	2024-11-06T22:00:00	7	Dirección del viento	0
111151	7	Sololá	702	San José Chacayá	5	Chacayá	8	Agosto	2023-02-08T00:00:00	2024-11-06T22:00:00	1	Precipitación	0
111152	7	Sololá	702	San José Chacayá	5	Chacayá	8	Agosto	2023-02-08T00:00:00	2024-11-06T22:00:00	8	Radiación solar	0
111153	7	Sololá	702	San José Chacayá	5	Chacayá	8	Agosto	2023-02-08T00:00:00	2024-11-06T23:00:00	2	Temperatura media	15.6
111154	7	Sololá	702	San José Chacayá	5	Chacayá	8	Agosto	2023-02-08T00:00:00	2024-11-06T23:00:00	4	Temperatura máxima	15.6
111155	7	Sololá	702	San José Chacayá	5	Chacayá	8	Agosto	2023-02-08T00:00:00	2024-11-06T23:00:00	3	Temperatura mínima	14.9
111156	7	Sololá	702	San José Chacayá	5	Chacayá	8	Agosto	2023-02-08T00:00:00	2024-11-06T23:00:00	5	Humedad	82
111157	7	Sololá	702	San José Chacayá	5	Chacayá	8	Agosto	2023-02-08T00:00:00	2024-11-06T23:00:00	6	Velocidad del viento	0
111158	7	Sololá	702	San José Chacayá	5	Chacayá	8	Agosto	2023-02-08T00:00:00	2024-11-06T23:00:00	7	Dirección del viento	0
111159	7	Sololá	702	San José Chacayá	5	Chacayá	8	Agosto	2023-02-08T00:00:00	2024-11-06T23:00:00	1	Precipitación	0
111160	7	Sololá	702	San José Chacayá	5	Chacayá	8	Agosto	2023-02-08T00:00:00	2024-11-06T23:00:00	8	Radiación solar	0
111161	7	Sololá	702	San José Chacayá	5	Chacayá	8	Agosto	2023-03-08T00:00:00	2024-11-06T00:00:00	2	Temperatura media	15.1
111162	7	Sololá	702	San José Chacayá	5	Chacayá	8	Agosto	2023-03-08T00:00:00	2024-11-06T00:00:00	4	Temperatura máxima	15.7
111163	7	Sololá	702	San José Chacayá	5	Chacayá	8	Agosto	2023-03-08T00:00:00	2024-11-06T00:00:00	3	Temperatura mínima	14.9
111164	7	Sololá	702	San José Chacayá	5	Chacayá	8	Agosto	2023-03-08T00:00:00	2024-11-06T00:00:00	5	Humedad	82
111165	7	Sololá	702	San José Chacayá	5	Chacayá	8	Agosto	2023-03-08T00:00:00	2024-11-06T00:00:00	6	Velocidad del viento	0
111166	7	Sololá	702	San José Chacayá	5	Chacayá	8	Agosto	2023-03-08T00:00:00	2024-11-06T00:00:00	7	Dirección del viento	0
111167	7	Sololá	702	San José Chacayá	5	Chacayá	8	Agosto	2023-03-08T00:00:00	2024-11-06T00:00:00	1	Precipitación	0
111168	7	Sololá	702	San José Chacayá	5	Chacayá	8	Agosto	2023-03-08T00:00:00	2024-11-06T00:00:00	8	Radiación solar	0
111169	7	Sololá	702	San José Chacayá	5	Chacayá	8	Agosto	2023-03-08T00:00:00	2024-11-06T01:00:00	2	Temperatura media	14.1
111170	7	Sololá	702	San José Chacayá	5	Chacayá	8	Agosto	2023-03-08T00:00:00	2024-11-06T01:00:00	4	Temperatura máxima	15.2
111171	7	Sololá	702	San José Chacayá	5	Chacayá	8	Agosto	2023-03-08T00:00:00	2024-11-06T01:00:00	3	Temperatura mínima	14.1
111172	7	Sololá	702	San José Chacayá	5	Chacayá	8	Agosto	2023-03-08T00:00:00	2024-11-06T01:00:00	5	Humedad	75
111173	7	Sololá	702	San José Chacayá	5	Chacayá	8	Agosto	2023-03-08T00:00:00	2024-11-06T01:00:00	6	Velocidad del viento	0
111174	7	Sololá	702	San José Chacayá	5	Chacayá	8	Agosto	2023-03-08T00:00:00	2024-11-06T01:00:00	7	Dirección del viento	0
111175	7	Sololá	702	San José Chacayá	5	Chacayá	8	Agosto	2023-03-08T00:00:00	2024-11-06T01:00:00	1	Precipitación	0
111176	7	Sololá	702	San José Chacayá	5	Chacayá	8	Agosto	2023-03-08T00:00:00	2024-11-06T01:00:00	8	Radiación solar	0
111177	7	Sololá	702	San José Chacayá	5	Chacayá	8	Agosto	2023-03-08T00:00:00	2024-11-06T02:00:00	2	Temperatura media	13.5
111178	7	Sololá	702	San José Chacayá	5	Chacayá	8	Agosto	2023-03-08T00:00:00	2024-11-06T02:00:00	4	Temperatura máxima	14.1
111179	7	Sololá	702	San José Chacayá	5	Chacayá	8	Agosto	2023-03-08T00:00:00	2024-11-06T02:00:00	3	Temperatura mínima	13.5
111180	7	Sololá	702	San José Chacayá	5	Chacayá	8	Agosto	2023-03-08T00:00:00	2024-11-06T02:00:00	5	Humedad	72
111181	7	Sololá	702	San José Chacayá	5	Chacayá	8	Agosto	2023-03-08T00:00:00	2024-11-06T02:00:00	6	Velocidad del viento	0
111182	7	Sololá	702	San José Chacayá	5	Chacayá	8	Agosto	2023-03-08T00:00:00	2024-11-06T02:00:00	7	Dirección del viento	0
111183	7	Sololá	702	San José Chacayá	5	Chacayá	8	Agosto	2023-03-08T00:00:00	2024-11-06T02:00:00	1	Precipitación	0
111184	7	Sololá	702	San José Chacayá	5	Chacayá	8	Agosto	2023-03-08T00:00:00	2024-11-06T02:00:00	8	Radiación solar	0
111185	7	Sololá	702	San José Chacayá	5	Chacayá	8	Agosto	2023-03-08T00:00:00	2024-11-06T03:00:00	2	Temperatura media	13.1
111186	7	Sololá	702	San José Chacayá	5	Chacayá	8	Agosto	2023-03-08T00:00:00	2024-11-06T03:00:00	4	Temperatura máxima	13.5
111187	7	Sololá	702	San José Chacayá	5	Chacayá	8	Agosto	2023-03-08T00:00:00	2024-11-06T03:00:00	3	Temperatura mínima	13.1
111188	7	Sololá	702	San José Chacayá	5	Chacayá	8	Agosto	2023-03-08T00:00:00	2024-11-06T03:00:00	5	Humedad	72
111189	7	Sololá	702	San José Chacayá	5	Chacayá	8	Agosto	2023-03-08T00:00:00	2024-11-06T03:00:00	6	Velocidad del viento	1.6
111190	7	Sololá	702	San José Chacayá	5	Chacayá	8	Agosto	2023-03-08T00:00:00	2024-11-06T03:00:00	7	Dirección del viento	1.61
111191	7	Sololá	702	San José Chacayá	5	Chacayá	8	Agosto	2023-03-08T00:00:00	2024-11-06T03:00:00	1	Precipitación	0
111192	7	Sololá	702	San José Chacayá	5	Chacayá	8	Agosto	2023-03-08T00:00:00	2024-11-06T03:00:00	8	Radiación solar	0
111193	7	Sololá	702	San José Chacayá	5	Chacayá	8	Agosto	2023-03-08T00:00:00	2024-11-06T04:00:00	2	Temperatura media	13
111194	7	Sololá	702	San José Chacayá	5	Chacayá	8	Agosto	2023-03-08T00:00:00	2024-11-06T04:00:00	4	Temperatura máxima	13.1
111195	7	Sololá	702	San José Chacayá	5	Chacayá	8	Agosto	2023-03-08T00:00:00	2024-11-06T04:00:00	3	Temperatura mínima	13
111196	7	Sololá	702	San José Chacayá	5	Chacayá	8	Agosto	2023-03-08T00:00:00	2024-11-06T04:00:00	5	Humedad	77
111197	7	Sololá	702	San José Chacayá	5	Chacayá	8	Agosto	2023-03-08T00:00:00	2024-11-06T04:00:00	6	Velocidad del viento	1.6
111198	7	Sololá	702	San José Chacayá	5	Chacayá	8	Agosto	2023-03-08T00:00:00	2024-11-06T04:00:00	7	Dirección del viento	1.61
111199	7	Sololá	702	San José Chacayá	5	Chacayá	8	Agosto	2023-03-08T00:00:00	2024-11-06T04:00:00	1	Precipitación	0
111200	7	Sololá	702	San José Chacayá	5	Chacayá	8	Agosto	2023-03-08T00:00:00	2024-11-06T04:00:00	8	Radiación solar	0
111201	7	Sololá	702	San José Chacayá	5	Chacayá	8	Agosto	2023-03-08T00:00:00	2024-11-06T05:00:00	2	Temperatura media	12.1
111202	7	Sololá	702	San José Chacayá	5	Chacayá	8	Agosto	2023-03-08T00:00:00	2024-11-06T05:00:00	4	Temperatura máxima	13
111203	7	Sololá	702	San José Chacayá	5	Chacayá	8	Agosto	2023-03-08T00:00:00	2024-11-06T05:00:00	3	Temperatura mínima	12.1
111204	7	Sololá	702	San José Chacayá	5	Chacayá	8	Agosto	2023-03-08T00:00:00	2024-11-06T05:00:00	5	Humedad	76
111205	7	Sololá	702	San José Chacayá	5	Chacayá	8	Agosto	2023-03-08T00:00:00	2024-11-06T05:00:00	6	Velocidad del viento	1.6
111206	7	Sololá	702	San José Chacayá	5	Chacayá	8	Agosto	2023-03-08T00:00:00	2024-11-06T05:00:00	7	Dirección del viento	1.61
111207	7	Sololá	702	San José Chacayá	5	Chacayá	8	Agosto	2023-03-08T00:00:00	2024-11-06T05:00:00	1	Precipitación	0
111208	7	Sololá	702	San José Chacayá	5	Chacayá	8	Agosto	2023-03-08T00:00:00	2024-11-06T05:00:00	8	Radiación solar	0
111209	7	Sololá	702	San José Chacayá	5	Chacayá	8	Agosto	2023-03-08T00:00:00	2024-11-06T06:00:00	2	Temperatura media	11.7
111210	7	Sololá	702	San José Chacayá	5	Chacayá	8	Agosto	2023-03-08T00:00:00	2024-11-06T06:00:00	4	Temperatura máxima	12.1
111211	7	Sololá	702	San José Chacayá	5	Chacayá	8	Agosto	2023-03-08T00:00:00	2024-11-06T06:00:00	3	Temperatura mínima	11.7
111212	7	Sololá	702	San José Chacayá	5	Chacayá	8	Agosto	2023-03-08T00:00:00	2024-11-06T06:00:00	5	Humedad	77
111213	7	Sololá	702	San José Chacayá	5	Chacayá	8	Agosto	2023-03-08T00:00:00	2024-11-06T06:00:00	6	Velocidad del viento	1.6
111214	7	Sololá	702	San José Chacayá	5	Chacayá	8	Agosto	2023-03-08T00:00:00	2024-11-06T06:00:00	7	Dirección del viento	1.61
111215	7	Sololá	702	San José Chacayá	5	Chacayá	8	Agosto	2023-03-08T00:00:00	2024-11-06T06:00:00	1	Precipitación	0
111216	7	Sololá	702	San José Chacayá	5	Chacayá	8	Agosto	2023-03-08T00:00:00	2024-11-06T06:00:00	8	Radiación solar	3
111217	7	Sololá	702	San José Chacayá	5	Chacayá	8	Agosto	2023-03-08T00:00:00	2024-11-06T07:00:00	2	Temperatura media	12.2
111218	7	Sololá	702	San José Chacayá	5	Chacayá	8	Agosto	2023-03-08T00:00:00	2024-11-06T07:00:00	4	Temperatura máxima	12.2
111219	7	Sololá	702	San José Chacayá	5	Chacayá	8	Agosto	2023-03-08T00:00:00	2024-11-06T07:00:00	3	Temperatura mínima	11.5
111220	7	Sololá	702	San José Chacayá	5	Chacayá	8	Agosto	2023-03-08T00:00:00	2024-11-06T07:00:00	5	Humedad	92
111221	7	Sololá	702	San José Chacayá	5	Chacayá	8	Agosto	2023-03-08T00:00:00	2024-11-06T07:00:00	6	Velocidad del viento	1.6
111222	7	Sololá	702	San José Chacayá	5	Chacayá	8	Agosto	2023-03-08T00:00:00	2024-11-06T07:00:00	7	Dirección del viento	1.61
111223	7	Sololá	702	San José Chacayá	5	Chacayá	8	Agosto	2023-03-08T00:00:00	2024-11-06T07:00:00	1	Precipitación	0
111224	7	Sololá	702	San José Chacayá	5	Chacayá	8	Agosto	2023-03-08T00:00:00	2024-11-06T07:00:00	8	Radiación solar	33
111225	7	Sololá	702	San José Chacayá	5	Chacayá	8	Agosto	2023-03-08T00:00:00	2024-11-06T08:00:00	2	Temperatura media	17.1
111226	7	Sololá	702	San José Chacayá	5	Chacayá	8	Agosto	2023-03-08T00:00:00	2024-11-06T08:00:00	4	Temperatura máxima	17.1
111227	7	Sololá	702	San José Chacayá	5	Chacayá	8	Agosto	2023-03-08T00:00:00	2024-11-06T08:00:00	3	Temperatura mínima	15.1
111228	7	Sololá	702	San José Chacayá	5	Chacayá	8	Agosto	2023-03-08T00:00:00	2024-11-06T08:00:00	5	Humedad	79
111229	7	Sololá	702	San José Chacayá	5	Chacayá	8	Agosto	2023-03-08T00:00:00	2024-11-06T08:00:00	6	Velocidad del viento	1.6
111230	7	Sololá	702	San José Chacayá	5	Chacayá	8	Agosto	2023-03-08T00:00:00	2024-11-06T08:00:00	7	Dirección del viento	1.61
111231	7	Sololá	702	San José Chacayá	5	Chacayá	8	Agosto	2023-03-08T00:00:00	2024-11-06T08:00:00	1	Precipitación	0
111232	7	Sololá	702	San José Chacayá	5	Chacayá	8	Agosto	2023-03-08T00:00:00	2024-11-06T08:00:00	8	Radiación solar	44
111233	7	Sololá	702	San José Chacayá	5	Chacayá	8	Agosto	2023-03-08T00:00:00	2024-11-06T09:00:00	2	Temperatura media	19.9
111234	7	Sololá	702	San José Chacayá	5	Chacayá	8	Agosto	2023-03-08T00:00:00	2024-11-06T09:00:00	4	Temperatura máxima	19.9
111235	7	Sololá	702	San José Chacayá	5	Chacayá	8	Agosto	2023-03-08T00:00:00	2024-11-06T09:00:00	3	Temperatura mínima	17.4
111236	7	Sololá	702	San José Chacayá	5	Chacayá	8	Agosto	2023-03-08T00:00:00	2024-11-06T09:00:00	5	Humedad	67
111237	7	Sololá	702	San José Chacayá	5	Chacayá	8	Agosto	2023-03-08T00:00:00	2024-11-06T09:00:00	6	Velocidad del viento	4.8
111238	7	Sololá	702	San José Chacayá	5	Chacayá	8	Agosto	2023-03-08T00:00:00	2024-11-06T09:00:00	7	Dirección del viento	4.83
111239	7	Sololá	702	San José Chacayá	5	Chacayá	8	Agosto	2023-03-08T00:00:00	2024-11-06T09:00:00	1	Precipitación	0
111240	7	Sololá	702	San José Chacayá	5	Chacayá	8	Agosto	2023-03-08T00:00:00	2024-11-06T09:00:00	8	Radiación solar	236
111241	7	Sololá	702	San José Chacayá	5	Chacayá	8	Agosto	2023-03-08T00:00:00	2024-11-06T10:00:00	2	Temperatura media	22
111242	7	Sololá	702	San José Chacayá	5	Chacayá	8	Agosto	2023-03-08T00:00:00	2024-11-06T10:00:00	4	Temperatura máxima	22
111243	7	Sololá	702	San José Chacayá	5	Chacayá	8	Agosto	2023-03-08T00:00:00	2024-11-06T10:00:00	3	Temperatura mínima	19.9
111244	7	Sololá	702	San José Chacayá	5	Chacayá	8	Agosto	2023-03-08T00:00:00	2024-11-06T10:00:00	5	Humedad	62
111245	7	Sololá	702	San José Chacayá	5	Chacayá	8	Agosto	2023-03-08T00:00:00	2024-11-06T10:00:00	6	Velocidad del viento	4.8
111246	7	Sololá	702	San José Chacayá	5	Chacayá	8	Agosto	2023-03-08T00:00:00	2024-11-06T10:00:00	7	Dirección del viento	4.83
111247	7	Sololá	702	San José Chacayá	5	Chacayá	8	Agosto	2023-03-08T00:00:00	2024-11-06T10:00:00	1	Precipitación	0
111248	7	Sololá	702	San José Chacayá	5	Chacayá	8	Agosto	2023-03-08T00:00:00	2024-11-06T10:00:00	8	Radiación solar	786
111249	7	Sololá	702	San José Chacayá	5	Chacayá	8	Agosto	2023-03-08T00:00:00	2024-11-06T11:00:00	2	Temperatura media	23.7
111250	7	Sololá	702	San José Chacayá	5	Chacayá	8	Agosto	2023-03-08T00:00:00	2024-11-06T11:00:00	4	Temperatura máxima	23.7
111251	7	Sololá	702	San José Chacayá	5	Chacayá	8	Agosto	2023-03-08T00:00:00	2024-11-06T11:00:00	3	Temperatura mínima	22
111252	7	Sololá	702	San José Chacayá	5	Chacayá	8	Agosto	2023-03-08T00:00:00	2024-11-06T11:00:00	5	Humedad	60
111253	7	Sololá	702	San José Chacayá	5	Chacayá	8	Agosto	2023-03-08T00:00:00	2024-11-06T11:00:00	6	Velocidad del viento	4.8
111254	7	Sololá	702	San José Chacayá	5	Chacayá	8	Agosto	2023-03-08T00:00:00	2024-11-06T11:00:00	7	Dirección del viento	4.83
111255	7	Sololá	702	San José Chacayá	5	Chacayá	8	Agosto	2023-03-08T00:00:00	2024-11-06T11:00:00	1	Precipitación	0
111256	7	Sololá	702	San José Chacayá	5	Chacayá	8	Agosto	2023-03-08T00:00:00	2024-11-06T11:00:00	8	Radiación solar	918
111257	7	Sololá	702	San José Chacayá	5	Chacayá	8	Agosto	2023-03-08T00:00:00	2024-11-06T12:00:00	2	Temperatura media	20.8
111258	7	Sololá	702	San José Chacayá	5	Chacayá	8	Agosto	2023-03-08T00:00:00	2024-11-06T12:00:00	4	Temperatura máxima	23.7
111259	7	Sololá	702	San José Chacayá	5	Chacayá	8	Agosto	2023-03-08T00:00:00	2024-11-06T12:00:00	3	Temperatura mínima	20.8
111260	7	Sololá	702	San José Chacayá	5	Chacayá	8	Agosto	2023-03-08T00:00:00	2024-11-06T12:00:00	5	Humedad	72
111261	7	Sololá	702	San José Chacayá	5	Chacayá	8	Agosto	2023-03-08T00:00:00	2024-11-06T12:00:00	6	Velocidad del viento	4.8
111262	7	Sololá	702	San José Chacayá	5	Chacayá	8	Agosto	2023-03-08T00:00:00	2024-11-06T12:00:00	7	Dirección del viento	4.83
111263	7	Sololá	702	San José Chacayá	5	Chacayá	8	Agosto	2023-03-08T00:00:00	2024-11-06T12:00:00	1	Precipitación	0
111264	7	Sololá	702	San José Chacayá	5	Chacayá	8	Agosto	2023-03-08T00:00:00	2024-11-06T12:00:00	8	Radiación solar	983
111265	7	Sololá	702	San José Chacayá	5	Chacayá	8	Agosto	2023-03-08T00:00:00	2024-11-06T13:00:00	2	Temperatura media	18.8
111266	7	Sololá	702	San José Chacayá	5	Chacayá	8	Agosto	2023-03-08T00:00:00	2024-11-06T13:00:00	4	Temperatura máxima	20.8
111267	7	Sololá	702	San José Chacayá	5	Chacayá	8	Agosto	2023-03-08T00:00:00	2024-11-06T13:00:00	3	Temperatura mínima	18.8
111268	7	Sololá	702	San José Chacayá	5	Chacayá	8	Agosto	2023-03-08T00:00:00	2024-11-06T13:00:00	5	Humedad	78
111269	7	Sololá	702	San José Chacayá	5	Chacayá	8	Agosto	2023-03-08T00:00:00	2024-11-06T13:00:00	6	Velocidad del viento	1.6
111270	7	Sololá	702	San José Chacayá	5	Chacayá	8	Agosto	2023-03-08T00:00:00	2024-11-06T13:00:00	7	Dirección del viento	1.61
111271	7	Sololá	702	San José Chacayá	5	Chacayá	8	Agosto	2023-03-08T00:00:00	2024-11-06T13:00:00	1	Precipitación	0
111272	7	Sololá	702	San José Chacayá	5	Chacayá	8	Agosto	2023-03-08T00:00:00	2024-11-06T13:00:00	8	Radiación solar	986
111273	7	Sololá	702	San José Chacayá	5	Chacayá	8	Agosto	2023-03-08T00:00:00	2024-11-06T14:00:00	2	Temperatura media	16.2
111274	7	Sololá	702	San José Chacayá	5	Chacayá	8	Agosto	2023-03-08T00:00:00	2024-11-06T14:00:00	4	Temperatura máxima	18.7
111275	7	Sololá	702	San José Chacayá	5	Chacayá	8	Agosto	2023-03-08T00:00:00	2024-11-06T14:00:00	3	Temperatura mínima	16.2
111276	7	Sololá	702	San José Chacayá	5	Chacayá	8	Agosto	2023-03-08T00:00:00	2024-11-06T14:00:00	5	Humedad	88
111277	7	Sololá	702	San José Chacayá	5	Chacayá	8	Agosto	2023-03-08T00:00:00	2024-11-06T14:00:00	6	Velocidad del viento	1.6
111278	7	Sololá	702	San José Chacayá	5	Chacayá	8	Agosto	2023-03-08T00:00:00	2024-11-06T14:00:00	7	Dirección del viento	1.61
111279	7	Sololá	702	San José Chacayá	5	Chacayá	8	Agosto	2023-03-08T00:00:00	2024-11-06T14:00:00	1	Precipitación	1.4
111280	7	Sololá	702	San José Chacayá	5	Chacayá	8	Agosto	2023-03-08T00:00:00	2024-11-06T14:00:00	8	Radiación solar	622
111281	7	Sololá	702	San José Chacayá	5	Chacayá	8	Agosto	2023-03-08T00:00:00	2024-11-06T15:00:00	2	Temperatura media	17.4
111282	7	Sololá	702	San José Chacayá	5	Chacayá	8	Agosto	2023-03-08T00:00:00	2024-11-06T15:00:00	4	Temperatura máxima	17.4
111283	7	Sololá	702	San José Chacayá	5	Chacayá	8	Agosto	2023-03-08T00:00:00	2024-11-06T15:00:00	3	Temperatura mínima	15.9
111284	7	Sololá	702	San José Chacayá	5	Chacayá	8	Agosto	2023-03-08T00:00:00	2024-11-06T15:00:00	5	Humedad	89
111285	7	Sololá	702	San José Chacayá	5	Chacayá	8	Agosto	2023-03-08T00:00:00	2024-11-06T15:00:00	6	Velocidad del viento	1.6
111286	7	Sololá	702	San José Chacayá	5	Chacayá	8	Agosto	2023-03-08T00:00:00	2024-11-06T15:00:00	7	Dirección del viento	1.61
111287	7	Sololá	702	San José Chacayá	5	Chacayá	8	Agosto	2023-03-08T00:00:00	2024-11-06T15:00:00	1	Precipitación	0.8
111288	7	Sololá	702	San José Chacayá	5	Chacayá	8	Agosto	2023-03-08T00:00:00	2024-11-06T15:00:00	8	Radiación solar	134
111289	7	Sololá	702	San José Chacayá	5	Chacayá	8	Agosto	2023-03-08T00:00:00	2024-11-06T16:00:00	2	Temperatura media	17.7
111290	7	Sololá	702	San José Chacayá	5	Chacayá	8	Agosto	2023-03-08T00:00:00	2024-11-06T16:00:00	4	Temperatura máxima	18.8
111291	7	Sololá	702	San José Chacayá	5	Chacayá	8	Agosto	2023-03-08T00:00:00	2024-11-06T16:00:00	3	Temperatura mínima	17.4
111292	7	Sololá	702	San José Chacayá	5	Chacayá	8	Agosto	2023-03-08T00:00:00	2024-11-06T16:00:00	5	Humedad	86
111293	7	Sololá	702	San José Chacayá	5	Chacayá	8	Agosto	2023-03-08T00:00:00	2024-11-06T16:00:00	6	Velocidad del viento	1.6
111294	7	Sololá	702	San José Chacayá	5	Chacayá	8	Agosto	2023-03-08T00:00:00	2024-11-06T16:00:00	7	Dirección del viento	1.61
111295	7	Sololá	702	San José Chacayá	5	Chacayá	8	Agosto	2023-03-08T00:00:00	2024-11-06T16:00:00	1	Precipitación	0.6
111296	7	Sololá	702	San José Chacayá	5	Chacayá	8	Agosto	2023-03-08T00:00:00	2024-11-06T16:00:00	8	Radiación solar	107
111297	7	Sololá	702	San José Chacayá	5	Chacayá	8	Agosto	2023-03-08T00:00:00	2024-11-06T17:00:00	2	Temperatura media	16.9
111298	7	Sololá	702	San José Chacayá	5	Chacayá	8	Agosto	2023-03-08T00:00:00	2024-11-06T17:00:00	4	Temperatura máxima	17.7
111299	7	Sololá	702	San José Chacayá	5	Chacayá	8	Agosto	2023-03-08T00:00:00	2024-11-06T17:00:00	3	Temperatura mínima	16.9
111300	7	Sololá	702	San José Chacayá	5	Chacayá	8	Agosto	2023-03-08T00:00:00	2024-11-06T17:00:00	5	Humedad	90
111301	7	Sololá	702	San José Chacayá	5	Chacayá	8	Agosto	2023-03-08T00:00:00	2024-11-06T17:00:00	6	Velocidad del viento	0
111302	7	Sololá	702	San José Chacayá	5	Chacayá	8	Agosto	2023-03-08T00:00:00	2024-11-06T17:00:00	7	Dirección del viento	0
111303	7	Sololá	702	San José Chacayá	5	Chacayá	8	Agosto	2023-03-08T00:00:00	2024-11-06T17:00:00	1	Precipitación	0.2
111304	7	Sololá	702	San José Chacayá	5	Chacayá	8	Agosto	2023-03-08T00:00:00	2024-11-06T17:00:00	8	Radiación solar	16
111305	7	Sololá	702	San José Chacayá	5	Chacayá	8	Agosto	2023-03-08T00:00:00	2024-11-06T18:00:00	2	Temperatura media	15.6
111306	7	Sololá	702	San José Chacayá	5	Chacayá	8	Agosto	2023-03-08T00:00:00	2024-11-06T18:00:00	4	Temperatura máxima	17
111307	7	Sololá	702	San José Chacayá	5	Chacayá	8	Agosto	2023-03-08T00:00:00	2024-11-06T18:00:00	3	Temperatura mínima	15.6
111308	7	Sololá	702	San José Chacayá	5	Chacayá	8	Agosto	2023-03-08T00:00:00	2024-11-06T18:00:00	5	Humedad	92
111309	7	Sololá	702	San José Chacayá	5	Chacayá	8	Agosto	2023-03-08T00:00:00	2024-11-06T18:00:00	6	Velocidad del viento	1.6
111310	7	Sololá	702	San José Chacayá	5	Chacayá	8	Agosto	2023-03-08T00:00:00	2024-11-06T18:00:00	7	Dirección del viento	1.61
111311	7	Sololá	702	San José Chacayá	5	Chacayá	8	Agosto	2023-03-08T00:00:00	2024-11-06T18:00:00	1	Precipitación	1.4
111312	7	Sololá	702	San José Chacayá	5	Chacayá	8	Agosto	2023-03-08T00:00:00	2024-11-06T18:00:00	8	Radiación solar	59
111313	7	Sololá	702	San José Chacayá	5	Chacayá	8	Agosto	2023-03-08T00:00:00	2024-11-06T19:00:00	2	Temperatura media	14.9
111314	7	Sololá	702	San José Chacayá	5	Chacayá	8	Agosto	2023-03-08T00:00:00	2024-11-06T19:00:00	4	Temperatura máxima	15.6
111315	7	Sololá	702	San José Chacayá	5	Chacayá	8	Agosto	2023-03-08T00:00:00	2024-11-06T19:00:00	3	Temperatura mínima	14.9
111316	7	Sololá	702	San José Chacayá	5	Chacayá	8	Agosto	2023-03-08T00:00:00	2024-11-06T19:00:00	5	Humedad	93
111317	7	Sololá	702	San José Chacayá	5	Chacayá	8	Agosto	2023-03-08T00:00:00	2024-11-06T19:00:00	6	Velocidad del viento	0
111318	7	Sololá	702	San José Chacayá	5	Chacayá	8	Agosto	2023-03-08T00:00:00	2024-11-06T19:00:00	7	Dirección del viento	0
111319	7	Sololá	702	San José Chacayá	5	Chacayá	8	Agosto	2023-03-08T00:00:00	2024-11-06T19:00:00	1	Precipitación	0.8
111320	7	Sololá	702	San José Chacayá	5	Chacayá	8	Agosto	2023-03-08T00:00:00	2024-11-06T19:00:00	8	Radiación solar	0
111321	7	Sololá	702	San José Chacayá	5	Chacayá	8	Agosto	2023-03-08T00:00:00	2024-11-06T20:00:00	2	Temperatura media	14.6
111322	7	Sololá	702	San José Chacayá	5	Chacayá	8	Agosto	2023-03-08T00:00:00	2024-11-06T20:00:00	4	Temperatura máxima	14.9
111323	7	Sololá	702	San José Chacayá	5	Chacayá	8	Agosto	2023-03-08T00:00:00	2024-11-06T20:00:00	3	Temperatura mínima	14.6
111324	7	Sololá	702	San José Chacayá	5	Chacayá	8	Agosto	2023-03-08T00:00:00	2024-11-06T20:00:00	5	Humedad	92
111325	7	Sololá	702	San José Chacayá	5	Chacayá	8	Agosto	2023-03-08T00:00:00	2024-11-06T20:00:00	6	Velocidad del viento	0
111326	7	Sololá	702	San José Chacayá	5	Chacayá	8	Agosto	2023-03-08T00:00:00	2024-11-06T20:00:00	7	Dirección del viento	0
111327	7	Sololá	702	San José Chacayá	5	Chacayá	8	Agosto	2023-03-08T00:00:00	2024-11-06T20:00:00	1	Precipitación	2.8
111328	7	Sololá	702	San José Chacayá	5	Chacayá	8	Agosto	2023-03-08T00:00:00	2024-11-06T20:00:00	8	Radiación solar	0
111329	7	Sololá	702	San José Chacayá	5	Chacayá	8	Agosto	2023-03-08T00:00:00	2024-11-06T21:00:00	2	Temperatura media	13.8
111330	7	Sololá	702	San José Chacayá	5	Chacayá	8	Agosto	2023-03-08T00:00:00	2024-11-06T21:00:00	4	Temperatura máxima	14.6
111331	7	Sololá	702	San José Chacayá	5	Chacayá	8	Agosto	2023-03-08T00:00:00	2024-11-06T21:00:00	3	Temperatura mínima	13.8
111332	7	Sololá	702	San José Chacayá	5	Chacayá	8	Agosto	2023-03-08T00:00:00	2024-11-06T21:00:00	5	Humedad	93
111333	7	Sololá	702	San José Chacayá	5	Chacayá	8	Agosto	2023-03-08T00:00:00	2024-11-06T21:00:00	6	Velocidad del viento	1.6
111334	7	Sololá	702	San José Chacayá	5	Chacayá	8	Agosto	2023-03-08T00:00:00	2024-11-06T21:00:00	7	Dirección del viento	1.61
111335	7	Sololá	702	San José Chacayá	5	Chacayá	8	Agosto	2023-03-08T00:00:00	2024-11-06T21:00:00	1	Precipitación	3.2
111336	7	Sololá	702	San José Chacayá	5	Chacayá	8	Agosto	2023-03-08T00:00:00	2024-11-06T21:00:00	8	Radiación solar	0
111337	7	Sololá	702	San José Chacayá	5	Chacayá	8	Agosto	2023-03-08T00:00:00	2024-11-06T22:00:00	2	Temperatura media	13.2
111338	7	Sololá	702	San José Chacayá	5	Chacayá	8	Agosto	2023-03-08T00:00:00	2024-11-06T22:00:00	4	Temperatura máxima	13.8
111339	7	Sololá	702	San José Chacayá	5	Chacayá	8	Agosto	2023-03-08T00:00:00	2024-11-06T22:00:00	3	Temperatura mínima	13.2
111340	7	Sololá	702	San José Chacayá	5	Chacayá	8	Agosto	2023-03-08T00:00:00	2024-11-06T22:00:00	5	Humedad	93
111341	7	Sololá	702	San José Chacayá	5	Chacayá	8	Agosto	2023-03-08T00:00:00	2024-11-06T22:00:00	6	Velocidad del viento	1.6
111342	7	Sololá	702	San José Chacayá	5	Chacayá	8	Agosto	2023-03-08T00:00:00	2024-11-06T22:00:00	7	Dirección del viento	1.61
111343	7	Sololá	702	San José Chacayá	5	Chacayá	8	Agosto	2023-03-08T00:00:00	2024-11-06T22:00:00	1	Precipitación	0.8
111344	7	Sololá	702	San José Chacayá	5	Chacayá	8	Agosto	2023-03-08T00:00:00	2024-11-06T22:00:00	8	Radiación solar	0
111345	7	Sololá	702	San José Chacayá	5	Chacayá	8	Agosto	2023-03-08T00:00:00	2024-11-06T23:00:00	2	Temperatura media	12.8
111346	7	Sololá	702	San José Chacayá	5	Chacayá	8	Agosto	2023-03-08T00:00:00	2024-11-06T23:00:00	4	Temperatura máxima	13
111347	7	Sololá	702	San José Chacayá	5	Chacayá	8	Agosto	2023-03-08T00:00:00	2024-11-06T23:00:00	3	Temperatura mínima	12.8
111348	7	Sololá	702	San José Chacayá	5	Chacayá	8	Agosto	2023-03-08T00:00:00	2024-11-06T23:00:00	5	Humedad	92
111349	7	Sololá	702	San José Chacayá	5	Chacayá	8	Agosto	2023-03-08T00:00:00	2024-11-06T23:00:00	6	Velocidad del viento	1.6
111350	7	Sololá	702	San José Chacayá	5	Chacayá	8	Agosto	2023-03-08T00:00:00	2024-11-06T23:00:00	7	Dirección del viento	1.61
111351	7	Sololá	702	San José Chacayá	5	Chacayá	8	Agosto	2023-03-08T00:00:00	2024-11-06T23:00:00	1	Precipitación	0.4
111352	7	Sololá	702	San José Chacayá	5	Chacayá	8	Agosto	2023-03-08T00:00:00	2024-11-06T23:00:00	8	Radiación solar	0
111353	7	Sololá	702	San José Chacayá	5	Chacayá	8	Agosto	2023-04-08T00:00:00	2024-11-06T00:00:00	2	Temperatura media	12.7
111354	7	Sololá	702	San José Chacayá	5	Chacayá	8	Agosto	2023-04-08T00:00:00	2024-11-06T00:00:00	4	Temperatura máxima	12.8
111355	7	Sololá	702	San José Chacayá	5	Chacayá	8	Agosto	2023-04-08T00:00:00	2024-11-06T00:00:00	3	Temperatura mínima	12.6
111356	7	Sololá	702	San José Chacayá	5	Chacayá	8	Agosto	2023-04-08T00:00:00	2024-11-06T00:00:00	5	Humedad	94
111357	7	Sololá	702	San José Chacayá	5	Chacayá	8	Agosto	2023-04-08T00:00:00	2024-11-06T00:00:00	6	Velocidad del viento	0
111358	7	Sololá	702	San José Chacayá	5	Chacayá	8	Agosto	2023-04-08T00:00:00	2024-11-06T00:00:00	7	Dirección del viento	0
111359	7	Sololá	702	San José Chacayá	5	Chacayá	8	Agosto	2023-04-08T00:00:00	2024-11-06T00:00:00	1	Precipitación	9.4
111360	7	Sololá	702	San José Chacayá	5	Chacayá	8	Agosto	2023-04-08T00:00:00	2024-11-06T00:00:00	8	Radiación solar	0
111361	7	Sololá	702	San José Chacayá	5	Chacayá	8	Agosto	2023-04-08T00:00:00	2024-11-06T01:00:00	2	Temperatura media	12.5
111362	7	Sololá	702	San José Chacayá	5	Chacayá	8	Agosto	2023-04-08T00:00:00	2024-11-06T01:00:00	4	Temperatura máxima	12.7
111363	7	Sololá	702	San José Chacayá	5	Chacayá	8	Agosto	2023-04-08T00:00:00	2024-11-06T01:00:00	3	Temperatura mínima	12.4
111364	7	Sololá	702	San José Chacayá	5	Chacayá	8	Agosto	2023-04-08T00:00:00	2024-11-06T01:00:00	5	Humedad	94
111365	7	Sololá	702	San José Chacayá	5	Chacayá	8	Agosto	2023-04-08T00:00:00	2024-11-06T01:00:00	6	Velocidad del viento	0
111366	7	Sololá	702	San José Chacayá	5	Chacayá	8	Agosto	2023-04-08T00:00:00	2024-11-06T01:00:00	7	Dirección del viento	0
111367	7	Sololá	702	San José Chacayá	5	Chacayá	8	Agosto	2023-04-08T00:00:00	2024-11-06T01:00:00	1	Precipitación	0
111368	7	Sololá	702	San José Chacayá	5	Chacayá	8	Agosto	2023-04-08T00:00:00	2024-11-06T01:00:00	8	Radiación solar	0
111369	7	Sololá	702	San José Chacayá	5	Chacayá	8	Agosto	2023-04-08T00:00:00	2024-11-06T02:00:00	2	Temperatura media	12.2
111370	7	Sololá	702	San José Chacayá	5	Chacayá	8	Agosto	2023-04-08T00:00:00	2024-11-06T02:00:00	4	Temperatura máxima	12.5
111371	7	Sololá	702	San José Chacayá	5	Chacayá	8	Agosto	2023-04-08T00:00:00	2024-11-06T02:00:00	3	Temperatura mínima	12.2
111372	7	Sololá	702	San José Chacayá	5	Chacayá	8	Agosto	2023-04-08T00:00:00	2024-11-06T02:00:00	5	Humedad	95
111373	7	Sololá	702	San José Chacayá	5	Chacayá	8	Agosto	2023-04-08T00:00:00	2024-11-06T02:00:00	6	Velocidad del viento	0
111374	7	Sololá	702	San José Chacayá	5	Chacayá	8	Agosto	2023-04-08T00:00:00	2024-11-06T02:00:00	7	Dirección del viento	0
111375	7	Sololá	702	San José Chacayá	5	Chacayá	8	Agosto	2023-04-08T00:00:00	2024-11-06T02:00:00	1	Precipitación	0
111376	7	Sololá	702	San José Chacayá	5	Chacayá	8	Agosto	2023-04-08T00:00:00	2024-11-06T02:00:00	8	Radiación solar	0
111377	7	Sololá	702	San José Chacayá	5	Chacayá	8	Agosto	2023-04-08T00:00:00	2024-11-06T03:00:00	2	Temperatura media	12.1
111378	7	Sololá	702	San José Chacayá	5	Chacayá	8	Agosto	2023-04-08T00:00:00	2024-11-06T03:00:00	4	Temperatura máxima	12.2
111379	7	Sololá	702	San José Chacayá	5	Chacayá	8	Agosto	2023-04-08T00:00:00	2024-11-06T03:00:00	3	Temperatura mínima	12.1
111380	7	Sololá	702	San José Chacayá	5	Chacayá	8	Agosto	2023-04-08T00:00:00	2024-11-06T03:00:00	5	Humedad	93
111381	7	Sololá	702	San José Chacayá	5	Chacayá	8	Agosto	2023-04-08T00:00:00	2024-11-06T03:00:00	6	Velocidad del viento	1.6
111382	7	Sololá	702	San José Chacayá	5	Chacayá	8	Agosto	2023-04-08T00:00:00	2024-11-06T03:00:00	7	Dirección del viento	1.61
111383	7	Sololá	702	San José Chacayá	5	Chacayá	8	Agosto	2023-04-08T00:00:00	2024-11-06T03:00:00	1	Precipitación	0
111384	7	Sololá	702	San José Chacayá	5	Chacayá	8	Agosto	2023-04-08T00:00:00	2024-11-06T03:00:00	8	Radiación solar	0
111385	7	Sololá	702	San José Chacayá	5	Chacayá	8	Agosto	2023-04-08T00:00:00	2024-11-06T04:00:00	2	Temperatura media	12.1
111386	7	Sololá	702	San José Chacayá	5	Chacayá	8	Agosto	2023-04-08T00:00:00	2024-11-06T04:00:00	4	Temperatura máxima	12.2
111387	7	Sololá	702	San José Chacayá	5	Chacayá	8	Agosto	2023-04-08T00:00:00	2024-11-06T04:00:00	3	Temperatura mínima	12.1
111388	7	Sololá	702	San José Chacayá	5	Chacayá	8	Agosto	2023-04-08T00:00:00	2024-11-06T04:00:00	5	Humedad	93
111389	7	Sololá	702	San José Chacayá	5	Chacayá	8	Agosto	2023-04-08T00:00:00	2024-11-06T04:00:00	6	Velocidad del viento	1.6
111390	7	Sololá	702	San José Chacayá	5	Chacayá	8	Agosto	2023-04-08T00:00:00	2024-11-06T04:00:00	7	Dirección del viento	1.61
111391	7	Sololá	702	San José Chacayá	5	Chacayá	8	Agosto	2023-04-08T00:00:00	2024-11-06T04:00:00	1	Precipitación	0
111392	7	Sololá	702	San José Chacayá	5	Chacayá	8	Agosto	2023-04-08T00:00:00	2024-11-06T04:00:00	8	Radiación solar	0
111393	7	Sololá	702	San José Chacayá	5	Chacayá	8	Agosto	2023-04-08T00:00:00	2024-11-06T05:00:00	2	Temperatura media	12.3
111394	7	Sololá	702	San José Chacayá	5	Chacayá	8	Agosto	2023-04-08T00:00:00	2024-11-06T05:00:00	4	Temperatura máxima	12.3
111395	7	Sololá	702	San José Chacayá	5	Chacayá	8	Agosto	2023-04-08T00:00:00	2024-11-06T05:00:00	3	Temperatura mínima	12.1
111396	7	Sololá	702	San José Chacayá	5	Chacayá	8	Agosto	2023-04-08T00:00:00	2024-11-06T05:00:00	5	Humedad	93
111397	7	Sololá	702	San José Chacayá	5	Chacayá	8	Agosto	2023-04-08T00:00:00	2024-11-06T05:00:00	6	Velocidad del viento	0
111398	7	Sololá	702	San José Chacayá	5	Chacayá	8	Agosto	2023-04-08T00:00:00	2024-11-06T05:00:00	7	Dirección del viento	0
111399	7	Sololá	702	San José Chacayá	5	Chacayá	8	Agosto	2023-04-08T00:00:00	2024-11-06T05:00:00	1	Precipitación	0
111400	7	Sololá	702	San José Chacayá	5	Chacayá	8	Agosto	2023-04-08T00:00:00	2024-11-06T05:00:00	8	Radiación solar	0
111401	7	Sololá	702	San José Chacayá	5	Chacayá	8	Agosto	2023-04-08T00:00:00	2024-11-06T06:00:00	2	Temperatura media	12.3
111402	7	Sololá	702	San José Chacayá	5	Chacayá	8	Agosto	2023-04-08T00:00:00	2024-11-06T06:00:00	4	Temperatura máxima	12.3
111403	7	Sololá	702	San José Chacayá	5	Chacayá	8	Agosto	2023-04-08T00:00:00	2024-11-06T06:00:00	3	Temperatura mínima	12.2
111404	7	Sololá	702	San José Chacayá	5	Chacayá	8	Agosto	2023-04-08T00:00:00	2024-11-06T06:00:00	5	Humedad	93
111405	7	Sololá	702	San José Chacayá	5	Chacayá	8	Agosto	2023-04-08T00:00:00	2024-11-06T06:00:00	6	Velocidad del viento	0
111406	7	Sololá	702	San José Chacayá	5	Chacayá	8	Agosto	2023-04-08T00:00:00	2024-11-06T06:00:00	7	Dirección del viento	0
111407	7	Sololá	702	San José Chacayá	5	Chacayá	8	Agosto	2023-04-08T00:00:00	2024-11-06T06:00:00	1	Precipitación	0
111408	7	Sololá	702	San José Chacayá	5	Chacayá	8	Agosto	2023-04-08T00:00:00	2024-11-06T06:00:00	8	Radiación solar	2
111409	7	Sololá	702	San José Chacayá	5	Chacayá	8	Agosto	2023-04-08T00:00:00	2024-11-06T07:00:00	2	Temperatura media	13.8
111410	7	Sololá	702	San José Chacayá	5	Chacayá	8	Agosto	2023-04-08T00:00:00	2024-11-06T07:00:00	4	Temperatura máxima	13.8
111411	7	Sololá	702	San José Chacayá	5	Chacayá	8	Agosto	2023-04-08T00:00:00	2024-11-06T07:00:00	3	Temperatura mínima	12.3
111412	7	Sololá	702	San José Chacayá	5	Chacayá	8	Agosto	2023-04-08T00:00:00	2024-11-06T07:00:00	5	Humedad	93
111413	7	Sololá	702	San José Chacayá	5	Chacayá	8	Agosto	2023-04-08T00:00:00	2024-11-06T07:00:00	6	Velocidad del viento	1.6
111414	7	Sololá	702	San José Chacayá	5	Chacayá	8	Agosto	2023-04-08T00:00:00	2024-11-06T07:00:00	7	Dirección del viento	1.61
111415	7	Sololá	702	San José Chacayá	5	Chacayá	8	Agosto	2023-04-08T00:00:00	2024-11-06T07:00:00	1	Precipitación	0
111416	7	Sololá	702	San José Chacayá	5	Chacayá	8	Agosto	2023-04-08T00:00:00	2024-11-06T07:00:00	8	Radiación solar	48
111417	7	Sololá	702	San José Chacayá	5	Chacayá	8	Agosto	2023-04-08T00:00:00	2024-11-06T08:00:00	2	Temperatura media	16.3
111418	7	Sololá	702	San José Chacayá	5	Chacayá	8	Agosto	2023-04-08T00:00:00	2024-11-06T08:00:00	4	Temperatura máxima	16.3
111419	7	Sololá	702	San José Chacayá	5	Chacayá	8	Agosto	2023-04-08T00:00:00	2024-11-06T08:00:00	3	Temperatura mínima	13.8
111420	7	Sololá	702	San José Chacayá	5	Chacayá	8	Agosto	2023-04-08T00:00:00	2024-11-06T08:00:00	5	Humedad	91
111421	7	Sololá	702	San José Chacayá	5	Chacayá	8	Agosto	2023-04-08T00:00:00	2024-11-06T08:00:00	6	Velocidad del viento	0
111422	7	Sololá	702	San José Chacayá	5	Chacayá	8	Agosto	2023-04-08T00:00:00	2024-11-06T08:00:00	7	Dirección del viento	0
111423	7	Sololá	702	San José Chacayá	5	Chacayá	8	Agosto	2023-04-08T00:00:00	2024-11-06T08:00:00	1	Precipitación	0
111424	7	Sololá	702	San José Chacayá	5	Chacayá	8	Agosto	2023-04-08T00:00:00	2024-11-06T08:00:00	8	Radiación solar	170
111425	7	Sololá	702	San José Chacayá	5	Chacayá	8	Agosto	2023-04-08T00:00:00	2024-11-06T09:00:00	2	Temperatura media	19.8
111426	7	Sololá	702	San José Chacayá	5	Chacayá	8	Agosto	2023-04-08T00:00:00	2024-11-06T09:00:00	4	Temperatura máxima	19.8
111427	7	Sololá	702	San José Chacayá	5	Chacayá	8	Agosto	2023-04-08T00:00:00	2024-11-06T09:00:00	3	Temperatura mínima	16.3
111428	7	Sololá	702	San José Chacayá	5	Chacayá	8	Agosto	2023-04-08T00:00:00	2024-11-06T09:00:00	5	Humedad	68
111429	7	Sololá	702	San José Chacayá	5	Chacayá	8	Agosto	2023-04-08T00:00:00	2024-11-06T09:00:00	6	Velocidad del viento	0
111430	7	Sololá	702	San José Chacayá	5	Chacayá	8	Agosto	2023-04-08T00:00:00	2024-11-06T09:00:00	7	Dirección del viento	0
111431	7	Sololá	702	San José Chacayá	5	Chacayá	8	Agosto	2023-04-08T00:00:00	2024-11-06T09:00:00	1	Precipitación	0
111432	7	Sololá	702	San José Chacayá	5	Chacayá	8	Agosto	2023-04-08T00:00:00	2024-11-06T09:00:00	8	Radiación solar	296
111433	7	Sololá	702	San José Chacayá	5	Chacayá	8	Agosto	2023-04-08T00:00:00	2024-11-06T10:00:00	2	Temperatura media	22.7
111434	7	Sololá	702	San José Chacayá	5	Chacayá	8	Agosto	2023-04-08T00:00:00	2024-11-06T10:00:00	4	Temperatura máxima	22.7
111435	7	Sololá	702	San José Chacayá	5	Chacayá	8	Agosto	2023-04-08T00:00:00	2024-11-06T10:00:00	3	Temperatura mínima	19.8
111436	7	Sololá	702	San José Chacayá	5	Chacayá	8	Agosto	2023-04-08T00:00:00	2024-11-06T10:00:00	5	Humedad	67
111437	7	Sololá	702	San José Chacayá	5	Chacayá	8	Agosto	2023-04-08T00:00:00	2024-11-06T10:00:00	6	Velocidad del viento	3.2
111438	7	Sololá	702	San José Chacayá	5	Chacayá	8	Agosto	2023-04-08T00:00:00	2024-11-06T10:00:00	7	Dirección del viento	3.22
111439	7	Sololá	702	San José Chacayá	5	Chacayá	8	Agosto	2023-04-08T00:00:00	2024-11-06T10:00:00	1	Precipitación	0
111440	7	Sololá	702	San José Chacayá	5	Chacayá	8	Agosto	2023-04-08T00:00:00	2024-11-06T10:00:00	8	Radiación solar	515
111441	7	Sololá	702	San José Chacayá	5	Chacayá	8	Agosto	2023-04-08T00:00:00	2024-11-06T11:00:00	2	Temperatura media	22.2
111442	7	Sololá	702	San José Chacayá	5	Chacayá	8	Agosto	2023-04-08T00:00:00	2024-11-06T11:00:00	4	Temperatura máxima	23
111443	7	Sololá	702	San José Chacayá	5	Chacayá	8	Agosto	2023-04-08T00:00:00	2024-11-06T11:00:00	3	Temperatura mínima	22.1
111444	7	Sololá	702	San José Chacayá	5	Chacayá	8	Agosto	2023-04-08T00:00:00	2024-11-06T11:00:00	5	Humedad	71
111445	7	Sololá	702	San José Chacayá	5	Chacayá	8	Agosto	2023-04-08T00:00:00	2024-11-06T11:00:00	6	Velocidad del viento	3.2
111446	7	Sololá	702	San José Chacayá	5	Chacayá	8	Agosto	2023-04-08T00:00:00	2024-11-06T11:00:00	7	Dirección del viento	3.22
111447	7	Sololá	702	San José Chacayá	5	Chacayá	8	Agosto	2023-04-08T00:00:00	2024-11-06T11:00:00	1	Precipitación	0
111448	7	Sololá	702	San José Chacayá	5	Chacayá	8	Agosto	2023-04-08T00:00:00	2024-11-06T11:00:00	8	Radiación solar	926
111449	7	Sololá	702	San José Chacayá	5	Chacayá	8	Agosto	2023-04-08T00:00:00	2024-11-06T12:00:00	2	Temperatura media	23.3
111450	7	Sololá	702	San José Chacayá	5	Chacayá	8	Agosto	2023-04-08T00:00:00	2024-11-06T12:00:00	4	Temperatura máxima	23.4
111451	7	Sololá	702	San José Chacayá	5	Chacayá	8	Agosto	2023-04-08T00:00:00	2024-11-06T12:00:00	3	Temperatura mínima	22.3
111452	7	Sololá	702	San José Chacayá	5	Chacayá	8	Agosto	2023-04-08T00:00:00	2024-11-06T12:00:00	5	Humedad	67
111453	7	Sololá	702	San José Chacayá	5	Chacayá	8	Agosto	2023-04-08T00:00:00	2024-11-06T12:00:00	6	Velocidad del viento	3.2
111454	7	Sololá	702	San José Chacayá	5	Chacayá	8	Agosto	2023-04-08T00:00:00	2024-11-06T12:00:00	7	Dirección del viento	3.22
111455	7	Sololá	702	San José Chacayá	5	Chacayá	8	Agosto	2023-04-08T00:00:00	2024-11-06T12:00:00	1	Precipitación	0
111456	7	Sololá	702	San José Chacayá	5	Chacayá	8	Agosto	2023-04-08T00:00:00	2024-11-06T12:00:00	8	Radiación solar	972
111457	7	Sololá	702	San José Chacayá	5	Chacayá	8	Agosto	2023-04-08T00:00:00	2024-11-06T13:00:00	2	Temperatura media	24.1
111458	7	Sololá	702	San José Chacayá	5	Chacayá	8	Agosto	2023-04-08T00:00:00	2024-11-06T13:00:00	4	Temperatura máxima	24.1
111459	7	Sololá	702	San José Chacayá	5	Chacayá	8	Agosto	2023-04-08T00:00:00	2024-11-06T13:00:00	3	Temperatura mínima	23
111460	7	Sololá	702	San José Chacayá	5	Chacayá	8	Agosto	2023-04-08T00:00:00	2024-11-06T13:00:00	5	Humedad	58
111461	7	Sololá	702	San José Chacayá	5	Chacayá	8	Agosto	2023-04-08T00:00:00	2024-11-06T13:00:00	6	Velocidad del viento	4.8
111462	7	Sololá	702	San José Chacayá	5	Chacayá	8	Agosto	2023-04-08T00:00:00	2024-11-06T13:00:00	7	Dirección del viento	4.83
111463	7	Sololá	702	San José Chacayá	5	Chacayá	8	Agosto	2023-04-08T00:00:00	2024-11-06T13:00:00	1	Precipitación	0
111464	7	Sololá	702	San José Chacayá	5	Chacayá	8	Agosto	2023-04-08T00:00:00	2024-11-06T13:00:00	8	Radiación solar	1003
111465	7	Sololá	702	San José Chacayá	5	Chacayá	8	Agosto	2023-04-08T00:00:00	2024-11-06T14:00:00	2	Temperatura media	23.5
111466	7	Sololá	702	San José Chacayá	5	Chacayá	8	Agosto	2023-04-08T00:00:00	2024-11-06T14:00:00	4	Temperatura máxima	24.4
111467	7	Sololá	702	San José Chacayá	5	Chacayá	8	Agosto	2023-04-08T00:00:00	2024-11-06T14:00:00	3	Temperatura mínima	23.2
111468	7	Sololá	702	San José Chacayá	5	Chacayá	8	Agosto	2023-04-08T00:00:00	2024-11-06T14:00:00	5	Humedad	62
111469	7	Sololá	702	San José Chacayá	5	Chacayá	8	Agosto	2023-04-08T00:00:00	2024-11-06T14:00:00	6	Velocidad del viento	4.8
111470	7	Sololá	702	San José Chacayá	5	Chacayá	8	Agosto	2023-04-08T00:00:00	2024-11-06T14:00:00	7	Dirección del viento	4.83
111471	7	Sololá	702	San José Chacayá	5	Chacayá	8	Agosto	2023-04-08T00:00:00	2024-11-06T14:00:00	1	Precipitación	0
111472	7	Sololá	702	San José Chacayá	5	Chacayá	8	Agosto	2023-04-08T00:00:00	2024-11-06T14:00:00	8	Radiación solar	325
111473	7	Sololá	702	San José Chacayá	5	Chacayá	8	Agosto	2023-04-08T00:00:00	2024-11-06T15:00:00	2	Temperatura media	23.1
111474	7	Sololá	702	San José Chacayá	5	Chacayá	8	Agosto	2023-04-08T00:00:00	2024-11-06T15:00:00	4	Temperatura máxima	24.1
111475	7	Sololá	702	San José Chacayá	5	Chacayá	8	Agosto	2023-04-08T00:00:00	2024-11-06T15:00:00	3	Temperatura mínima	22.9
111476	7	Sololá	702	San José Chacayá	5	Chacayá	8	Agosto	2023-04-08T00:00:00	2024-11-06T15:00:00	5	Humedad	60
111477	7	Sololá	702	San José Chacayá	5	Chacayá	8	Agosto	2023-04-08T00:00:00	2024-11-06T15:00:00	6	Velocidad del viento	4.8
111478	7	Sololá	702	San José Chacayá	5	Chacayá	8	Agosto	2023-04-08T00:00:00	2024-11-06T15:00:00	7	Dirección del viento	4.83
111479	7	Sololá	702	San José Chacayá	5	Chacayá	8	Agosto	2023-04-08T00:00:00	2024-11-06T15:00:00	1	Precipitación	0
111480	7	Sololá	702	San José Chacayá	5	Chacayá	8	Agosto	2023-04-08T00:00:00	2024-11-06T15:00:00	8	Radiación solar	39
111481	7	Sololá	702	San José Chacayá	5	Chacayá	8	Agosto	2023-04-08T00:00:00	2024-11-06T16:00:00	2	Temperatura media	22.6
111482	7	Sololá	702	San José Chacayá	5	Chacayá	8	Agosto	2023-04-08T00:00:00	2024-11-06T16:00:00	4	Temperatura máxima	24
111483	7	Sololá	702	San José Chacayá	5	Chacayá	8	Agosto	2023-04-08T00:00:00	2024-11-06T16:00:00	3	Temperatura mínima	22.6
111484	7	Sololá	702	San José Chacayá	5	Chacayá	8	Agosto	2023-04-08T00:00:00	2024-11-06T16:00:00	5	Humedad	60
111485	7	Sololá	702	San José Chacayá	5	Chacayá	8	Agosto	2023-04-08T00:00:00	2024-11-06T16:00:00	6	Velocidad del viento	4.8
111486	7	Sololá	702	San José Chacayá	5	Chacayá	8	Agosto	2023-04-08T00:00:00	2024-11-06T16:00:00	7	Dirección del viento	4.83
111487	7	Sololá	702	San José Chacayá	5	Chacayá	8	Agosto	2023-04-08T00:00:00	2024-11-06T16:00:00	1	Precipitación	0
111488	7	Sololá	702	San José Chacayá	5	Chacayá	8	Agosto	2023-04-08T00:00:00	2024-11-06T16:00:00	8	Radiación solar	110
111489	7	Sololá	702	San José Chacayá	5	Chacayá	8	Agosto	2023-04-08T00:00:00	2024-11-06T17:00:00	2	Temperatura media	21.4
111490	7	Sololá	702	San José Chacayá	5	Chacayá	8	Agosto	2023-04-08T00:00:00	2024-11-06T17:00:00	4	Temperatura máxima	22.6
111491	7	Sololá	702	San José Chacayá	5	Chacayá	8	Agosto	2023-04-08T00:00:00	2024-11-06T17:00:00	3	Temperatura mínima	21.4
111492	7	Sololá	702	San José Chacayá	5	Chacayá	8	Agosto	2023-04-08T00:00:00	2024-11-06T17:00:00	5	Humedad	75
111493	7	Sololá	702	San José Chacayá	5	Chacayá	8	Agosto	2023-04-08T00:00:00	2024-11-06T17:00:00	6	Velocidad del viento	4.8
111494	7	Sololá	702	San José Chacayá	5	Chacayá	8	Agosto	2023-04-08T00:00:00	2024-11-06T17:00:00	7	Dirección del viento	4.83
111495	7	Sololá	702	San José Chacayá	5	Chacayá	8	Agosto	2023-04-08T00:00:00	2024-11-06T17:00:00	1	Precipitación	0
111496	7	Sololá	702	San José Chacayá	5	Chacayá	8	Agosto	2023-04-08T00:00:00	2024-11-06T17:00:00	8	Radiación solar	86
111497	7	Sololá	702	San José Chacayá	5	Chacayá	8	Agosto	2023-04-08T00:00:00	2024-11-06T18:00:00	2	Temperatura media	18.3
111498	7	Sololá	702	San José Chacayá	5	Chacayá	8	Agosto	2023-04-08T00:00:00	2024-11-06T18:00:00	4	Temperatura máxima	21.4
111499	7	Sololá	702	San José Chacayá	5	Chacayá	8	Agosto	2023-04-08T00:00:00	2024-11-06T18:00:00	3	Temperatura mínima	18.3
111500	7	Sololá	702	San José Chacayá	5	Chacayá	8	Agosto	2023-04-08T00:00:00	2024-11-06T18:00:00	5	Humedad	79
111501	7	Sololá	702	San José Chacayá	5	Chacayá	8	Agosto	2023-04-08T00:00:00	2024-11-06T18:00:00	6	Velocidad del viento	3.2
111502	7	Sololá	702	San José Chacayá	5	Chacayá	8	Agosto	2023-04-08T00:00:00	2024-11-06T18:00:00	7	Dirección del viento	3.22
111503	7	Sololá	702	San José Chacayá	5	Chacayá	8	Agosto	2023-04-08T00:00:00	2024-11-06T18:00:00	1	Precipitación	0
111504	7	Sololá	702	San José Chacayá	5	Chacayá	8	Agosto	2023-04-08T00:00:00	2024-11-06T18:00:00	8	Radiación solar	36
111505	7	Sololá	702	San José Chacayá	5	Chacayá	8	Agosto	2023-04-08T00:00:00	2024-11-06T19:00:00	2	Temperatura media	15.8
111506	7	Sololá	702	San José Chacayá	5	Chacayá	8	Agosto	2023-04-08T00:00:00	2024-11-06T19:00:00	4	Temperatura máxima	18.2
111507	7	Sololá	702	San José Chacayá	5	Chacayá	8	Agosto	2023-04-08T00:00:00	2024-11-06T19:00:00	3	Temperatura mínima	15.8
111508	7	Sololá	702	San José Chacayá	5	Chacayá	8	Agosto	2023-04-08T00:00:00	2024-11-06T19:00:00	5	Humedad	87
111509	7	Sololá	702	San José Chacayá	5	Chacayá	8	Agosto	2023-04-08T00:00:00	2024-11-06T19:00:00	6	Velocidad del viento	0
111510	7	Sololá	702	San José Chacayá	5	Chacayá	8	Agosto	2023-04-08T00:00:00	2024-11-06T19:00:00	7	Dirección del viento	0
111511	7	Sololá	702	San José Chacayá	5	Chacayá	8	Agosto	2023-04-08T00:00:00	2024-11-06T19:00:00	1	Precipitación	0
111512	7	Sololá	702	San José Chacayá	5	Chacayá	8	Agosto	2023-04-08T00:00:00	2024-11-06T19:00:00	8	Radiación solar	0
111513	7	Sololá	702	San José Chacayá	5	Chacayá	8	Agosto	2023-04-08T00:00:00	2024-11-06T20:00:00	2	Temperatura media	15.2
111514	7	Sololá	702	San José Chacayá	5	Chacayá	8	Agosto	2023-04-08T00:00:00	2024-11-06T20:00:00	4	Temperatura máxima	15.9
111515	7	Sololá	702	San José Chacayá	5	Chacayá	8	Agosto	2023-04-08T00:00:00	2024-11-06T20:00:00	3	Temperatura mínima	15.2
111516	7	Sololá	702	San José Chacayá	5	Chacayá	8	Agosto	2023-04-08T00:00:00	2024-11-06T20:00:00	5	Humedad	90
111517	7	Sololá	702	San José Chacayá	5	Chacayá	8	Agosto	2023-04-08T00:00:00	2024-11-06T20:00:00	6	Velocidad del viento	0
111518	7	Sololá	702	San José Chacayá	5	Chacayá	8	Agosto	2023-04-08T00:00:00	2024-11-06T20:00:00	7	Dirección del viento	0
111519	7	Sololá	702	San José Chacayá	5	Chacayá	8	Agosto	2023-04-08T00:00:00	2024-11-06T20:00:00	1	Precipitación	0
111520	7	Sololá	702	San José Chacayá	5	Chacayá	8	Agosto	2023-04-08T00:00:00	2024-11-06T20:00:00	8	Radiación solar	0
111521	7	Sololá	702	San José Chacayá	5	Chacayá	8	Agosto	2023-04-08T00:00:00	2024-11-06T21:00:00	2	Temperatura media	14.3
111522	7	Sololá	702	San José Chacayá	5	Chacayá	8	Agosto	2023-04-08T00:00:00	2024-11-06T21:00:00	4	Temperatura máxima	15.2
111523	7	Sololá	702	San José Chacayá	5	Chacayá	8	Agosto	2023-04-08T00:00:00	2024-11-06T21:00:00	3	Temperatura mínima	14.3
111524	7	Sololá	702	San José Chacayá	5	Chacayá	8	Agosto	2023-04-08T00:00:00	2024-11-06T21:00:00	5	Humedad	90
111525	7	Sololá	702	San José Chacayá	5	Chacayá	8	Agosto	2023-04-08T00:00:00	2024-11-06T21:00:00	6	Velocidad del viento	0
111526	7	Sololá	702	San José Chacayá	5	Chacayá	8	Agosto	2023-04-08T00:00:00	2024-11-06T21:00:00	7	Dirección del viento	0
111527	7	Sololá	702	San José Chacayá	5	Chacayá	8	Agosto	2023-04-08T00:00:00	2024-11-06T21:00:00	1	Precipitación	0
111528	7	Sololá	702	San José Chacayá	5	Chacayá	8	Agosto	2023-04-08T00:00:00	2024-11-06T21:00:00	8	Radiación solar	0
111529	7	Sololá	702	San José Chacayá	5	Chacayá	8	Agosto	2023-04-08T00:00:00	2024-11-06T22:00:00	2	Temperatura media	13.8
111530	7	Sololá	702	San José Chacayá	5	Chacayá	8	Agosto	2023-04-08T00:00:00	2024-11-06T22:00:00	4	Temperatura máxima	14.3
111531	7	Sololá	702	San José Chacayá	5	Chacayá	8	Agosto	2023-04-08T00:00:00	2024-11-06T22:00:00	3	Temperatura mínima	13.8
111532	7	Sololá	702	San José Chacayá	5	Chacayá	8	Agosto	2023-04-08T00:00:00	2024-11-06T22:00:00	5	Humedad	90
111533	7	Sololá	702	San José Chacayá	5	Chacayá	8	Agosto	2023-04-08T00:00:00	2024-11-06T22:00:00	6	Velocidad del viento	0
111534	7	Sololá	702	San José Chacayá	5	Chacayá	8	Agosto	2023-04-08T00:00:00	2024-11-06T22:00:00	7	Dirección del viento	0
111535	7	Sololá	702	San José Chacayá	5	Chacayá	8	Agosto	2023-04-08T00:00:00	2024-11-06T22:00:00	1	Precipitación	0
111536	7	Sololá	702	San José Chacayá	5	Chacayá	8	Agosto	2023-04-08T00:00:00	2024-11-06T22:00:00	8	Radiación solar	0
111537	7	Sololá	702	San José Chacayá	5	Chacayá	8	Agosto	2023-04-08T00:00:00	2024-11-06T23:00:00	2	Temperatura media	12.8
111538	7	Sololá	702	San José Chacayá	5	Chacayá	8	Agosto	2023-04-08T00:00:00	2024-11-06T23:00:00	4	Temperatura máxima	13.8
111539	7	Sololá	702	San José Chacayá	5	Chacayá	8	Agosto	2023-04-08T00:00:00	2024-11-06T23:00:00	3	Temperatura mínima	12.8
111540	7	Sololá	702	San José Chacayá	5	Chacayá	8	Agosto	2023-04-08T00:00:00	2024-11-06T23:00:00	5	Humedad	92
111541	7	Sololá	702	San José Chacayá	5	Chacayá	8	Agosto	2023-04-08T00:00:00	2024-11-06T23:00:00	6	Velocidad del viento	0
111542	7	Sololá	702	San José Chacayá	5	Chacayá	8	Agosto	2023-04-08T00:00:00	2024-11-06T23:00:00	7	Dirección del viento	0
111543	7	Sololá	702	San José Chacayá	5	Chacayá	8	Agosto	2023-04-08T00:00:00	2024-11-06T23:00:00	1	Precipitación	0
111544	7	Sololá	702	San José Chacayá	5	Chacayá	8	Agosto	2023-04-08T00:00:00	2024-11-06T23:00:00	8	Radiación solar	0
111545	7	Sololá	702	San José Chacayá	5	Chacayá	8	Agosto	2023-05-08T00:00:00	2024-11-06T00:00:00	2	Temperatura media	12.4
111546	7	Sololá	702	San José Chacayá	5	Chacayá	8	Agosto	2023-05-08T00:00:00	2024-11-06T00:00:00	4	Temperatura máxima	12.8
111547	7	Sololá	702	San José Chacayá	5	Chacayá	8	Agosto	2023-05-08T00:00:00	2024-11-06T00:00:00	3	Temperatura mínima	12.4
111548	7	Sololá	702	San José Chacayá	5	Chacayá	8	Agosto	2023-05-08T00:00:00	2024-11-06T00:00:00	5	Humedad	92
111549	7	Sololá	702	San José Chacayá	5	Chacayá	8	Agosto	2023-05-08T00:00:00	2024-11-06T00:00:00	6	Velocidad del viento	0
111550	7	Sololá	702	San José Chacayá	5	Chacayá	8	Agosto	2023-05-08T00:00:00	2024-11-06T00:00:00	7	Dirección del viento	0
111551	7	Sololá	702	San José Chacayá	5	Chacayá	8	Agosto	2023-05-08T00:00:00	2024-11-06T00:00:00	1	Precipitación	0
111552	7	Sololá	702	San José Chacayá	5	Chacayá	8	Agosto	2023-05-08T00:00:00	2024-11-06T00:00:00	8	Radiación solar	0
111553	7	Sololá	702	San José Chacayá	5	Chacayá	8	Agosto	2023-05-08T00:00:00	2024-11-06T01:00:00	2	Temperatura media	11.7
111554	7	Sololá	702	San José Chacayá	5	Chacayá	8	Agosto	2023-05-08T00:00:00	2024-11-06T01:00:00	4	Temperatura máxima	12.1
111555	7	Sololá	702	San José Chacayá	5	Chacayá	8	Agosto	2023-05-08T00:00:00	2024-11-06T01:00:00	3	Temperatura mínima	11.7
111556	7	Sololá	702	San José Chacayá	5	Chacayá	8	Agosto	2023-05-08T00:00:00	2024-11-06T01:00:00	5	Humedad	92
111557	7	Sololá	702	San José Chacayá	5	Chacayá	8	Agosto	2023-05-08T00:00:00	2024-11-06T01:00:00	6	Velocidad del viento	0
111558	7	Sololá	702	San José Chacayá	5	Chacayá	8	Agosto	2023-05-08T00:00:00	2024-11-06T01:00:00	7	Dirección del viento	0
111559	7	Sololá	702	San José Chacayá	5	Chacayá	8	Agosto	2023-05-08T00:00:00	2024-11-06T01:00:00	1	Precipitación	0
111560	7	Sololá	702	San José Chacayá	5	Chacayá	8	Agosto	2023-05-08T00:00:00	2024-11-06T01:00:00	8	Radiación solar	0
111561	7	Sololá	702	San José Chacayá	5	Chacayá	8	Agosto	2023-05-08T00:00:00	2024-11-06T02:00:00	2	Temperatura media	11.6
111562	7	Sololá	702	San José Chacayá	5	Chacayá	8	Agosto	2023-05-08T00:00:00	2024-11-06T02:00:00	4	Temperatura máxima	11.9
111563	7	Sololá	702	San José Chacayá	5	Chacayá	8	Agosto	2023-05-08T00:00:00	2024-11-06T02:00:00	3	Temperatura mínima	11.5
111564	7	Sololá	702	San José Chacayá	5	Chacayá	8	Agosto	2023-05-08T00:00:00	2024-11-06T02:00:00	5	Humedad	91
111565	7	Sololá	702	San José Chacayá	5	Chacayá	8	Agosto	2023-05-08T00:00:00	2024-11-06T02:00:00	6	Velocidad del viento	1.6
111566	7	Sololá	702	San José Chacayá	5	Chacayá	8	Agosto	2023-05-08T00:00:00	2024-11-06T02:00:00	7	Dirección del viento	1.61
111567	7	Sololá	702	San José Chacayá	5	Chacayá	8	Agosto	2023-05-08T00:00:00	2024-11-06T02:00:00	1	Precipitación	0
111568	7	Sololá	702	San José Chacayá	5	Chacayá	8	Agosto	2023-05-08T00:00:00	2024-11-06T02:00:00	8	Radiación solar	0
111569	7	Sololá	702	San José Chacayá	5	Chacayá	8	Agosto	2023-05-08T00:00:00	2024-11-06T03:00:00	2	Temperatura media	11.1
111570	7	Sololá	702	San José Chacayá	5	Chacayá	8	Agosto	2023-05-08T00:00:00	2024-11-06T03:00:00	4	Temperatura máxima	11.6
111571	7	Sololá	702	San José Chacayá	5	Chacayá	8	Agosto	2023-05-08T00:00:00	2024-11-06T03:00:00	3	Temperatura mínima	11.1
111572	7	Sololá	702	San José Chacayá	5	Chacayá	8	Agosto	2023-05-08T00:00:00	2024-11-06T03:00:00	5	Humedad	92
111573	7	Sololá	702	San José Chacayá	5	Chacayá	8	Agosto	2023-05-08T00:00:00	2024-11-06T03:00:00	6	Velocidad del viento	1.6
111574	7	Sololá	702	San José Chacayá	5	Chacayá	8	Agosto	2023-05-08T00:00:00	2024-11-06T03:00:00	7	Dirección del viento	1.61
111575	7	Sololá	702	San José Chacayá	5	Chacayá	8	Agosto	2023-05-08T00:00:00	2024-11-06T03:00:00	1	Precipitación	0
111576	7	Sololá	702	San José Chacayá	5	Chacayá	8	Agosto	2023-05-08T00:00:00	2024-11-06T03:00:00	8	Radiación solar	0
111577	7	Sololá	702	San José Chacayá	5	Chacayá	8	Agosto	2023-05-08T00:00:00	2024-11-06T04:00:00	2	Temperatura media	10.6
111578	7	Sololá	702	San José Chacayá	5	Chacayá	8	Agosto	2023-05-08T00:00:00	2024-11-06T04:00:00	4	Temperatura máxima	11.1
111579	7	Sololá	702	San José Chacayá	5	Chacayá	8	Agosto	2023-05-08T00:00:00	2024-11-06T04:00:00	3	Temperatura mínima	10.6
111580	7	Sololá	702	San José Chacayá	5	Chacayá	8	Agosto	2023-05-08T00:00:00	2024-11-06T04:00:00	5	Humedad	93
111581	7	Sololá	702	San José Chacayá	5	Chacayá	8	Agosto	2023-05-08T00:00:00	2024-11-06T04:00:00	6	Velocidad del viento	0
111582	7	Sololá	702	San José Chacayá	5	Chacayá	8	Agosto	2023-05-08T00:00:00	2024-11-06T04:00:00	7	Dirección del viento	0
111583	7	Sololá	702	San José Chacayá	5	Chacayá	8	Agosto	2023-05-08T00:00:00	2024-11-06T04:00:00	1	Precipitación	0
111584	7	Sololá	702	San José Chacayá	5	Chacayá	8	Agosto	2023-05-08T00:00:00	2024-11-06T04:00:00	8	Radiación solar	0
111585	7	Sololá	702	San José Chacayá	5	Chacayá	8	Agosto	2023-05-08T00:00:00	2024-11-06T05:00:00	2	Temperatura media	10.7
111586	7	Sololá	702	San José Chacayá	5	Chacayá	8	Agosto	2023-05-08T00:00:00	2024-11-06T05:00:00	4	Temperatura máxima	10.7
111587	7	Sololá	702	San José Chacayá	5	Chacayá	8	Agosto	2023-05-08T00:00:00	2024-11-06T05:00:00	3	Temperatura mínima	10.6
111588	7	Sololá	702	San José Chacayá	5	Chacayá	8	Agosto	2023-05-08T00:00:00	2024-11-06T05:00:00	5	Humedad	92
111589	7	Sololá	702	San José Chacayá	5	Chacayá	8	Agosto	2023-05-08T00:00:00	2024-11-06T05:00:00	6	Velocidad del viento	0
111590	7	Sololá	702	San José Chacayá	5	Chacayá	8	Agosto	2023-05-08T00:00:00	2024-11-06T05:00:00	7	Dirección del viento	0
111591	7	Sololá	702	San José Chacayá	5	Chacayá	8	Agosto	2023-05-08T00:00:00	2024-11-06T05:00:00	1	Precipitación	0
111592	7	Sololá	702	San José Chacayá	5	Chacayá	8	Agosto	2023-05-08T00:00:00	2024-11-06T05:00:00	8	Radiación solar	0
111593	7	Sololá	702	San José Chacayá	5	Chacayá	8	Agosto	2023-05-08T00:00:00	2024-11-06T06:00:00	2	Temperatura media	10.6
111594	7	Sololá	702	San José Chacayá	5	Chacayá	8	Agosto	2023-05-08T00:00:00	2024-11-06T06:00:00	4	Temperatura máxima	10.7
111595	7	Sololá	702	San José Chacayá	5	Chacayá	8	Agosto	2023-05-08T00:00:00	2024-11-06T06:00:00	3	Temperatura mínima	10.4
111596	7	Sololá	702	San José Chacayá	5	Chacayá	8	Agosto	2023-05-08T00:00:00	2024-11-06T06:00:00	5	Humedad	94
111597	7	Sololá	702	San José Chacayá	5	Chacayá	8	Agosto	2023-05-08T00:00:00	2024-11-06T06:00:00	6	Velocidad del viento	1.6
111598	7	Sololá	702	San José Chacayá	5	Chacayá	8	Agosto	2023-05-08T00:00:00	2024-11-06T06:00:00	7	Dirección del viento	1.61
111599	7	Sololá	702	San José Chacayá	5	Chacayá	8	Agosto	2023-05-08T00:00:00	2024-11-06T06:00:00	1	Precipitación	0
111600	7	Sololá	702	San José Chacayá	5	Chacayá	8	Agosto	2023-05-08T00:00:00	2024-11-06T06:00:00	8	Radiación solar	2
111601	7	Sololá	702	San José Chacayá	5	Chacayá	8	Agosto	2023-05-08T00:00:00	2024-11-06T07:00:00	2	Temperatura media	11.6
111602	7	Sololá	702	San José Chacayá	5	Chacayá	8	Agosto	2023-05-08T00:00:00	2024-11-06T07:00:00	4	Temperatura máxima	11.6
111603	7	Sololá	702	San José Chacayá	5	Chacayá	8	Agosto	2023-05-08T00:00:00	2024-11-06T07:00:00	3	Temperatura mínima	10.5
111604	7	Sololá	702	San José Chacayá	5	Chacayá	8	Agosto	2023-05-08T00:00:00	2024-11-06T07:00:00	5	Humedad	96
111605	7	Sololá	702	San José Chacayá	5	Chacayá	8	Agosto	2023-05-08T00:00:00	2024-11-06T07:00:00	6	Velocidad del viento	0
111606	7	Sololá	702	San José Chacayá	5	Chacayá	8	Agosto	2023-05-08T00:00:00	2024-11-06T07:00:00	7	Dirección del viento	0
111607	7	Sololá	702	San José Chacayá	5	Chacayá	8	Agosto	2023-05-08T00:00:00	2024-11-06T07:00:00	1	Precipitación	0
111608	7	Sololá	702	San José Chacayá	5	Chacayá	8	Agosto	2023-05-08T00:00:00	2024-11-06T07:00:00	8	Radiación solar	59
111609	7	Sololá	702	San José Chacayá	5	Chacayá	8	Agosto	2023-05-08T00:00:00	2024-11-06T08:00:00	2	Temperatura media	16.3
111610	7	Sololá	702	San José Chacayá	5	Chacayá	8	Agosto	2023-05-08T00:00:00	2024-11-06T08:00:00	4	Temperatura máxima	16.3
111611	7	Sololá	702	San José Chacayá	5	Chacayá	8	Agosto	2023-05-08T00:00:00	2024-11-06T08:00:00	3	Temperatura mínima	11.6
111612	7	Sololá	702	San José Chacayá	5	Chacayá	8	Agosto	2023-05-08T00:00:00	2024-11-06T08:00:00	5	Humedad	82
111613	7	Sololá	702	San José Chacayá	5	Chacayá	8	Agosto	2023-05-08T00:00:00	2024-11-06T08:00:00	6	Velocidad del viento	1.6
111614	7	Sololá	702	San José Chacayá	5	Chacayá	8	Agosto	2023-05-08T00:00:00	2024-11-06T08:00:00	7	Dirección del viento	1.61
111615	7	Sololá	702	San José Chacayá	5	Chacayá	8	Agosto	2023-05-08T00:00:00	2024-11-06T08:00:00	1	Precipitación	0
111616	7	Sololá	702	San José Chacayá	5	Chacayá	8	Agosto	2023-05-08T00:00:00	2024-11-06T08:00:00	8	Radiación solar	127
111617	7	Sololá	702	San José Chacayá	5	Chacayá	8	Agosto	2023-05-08T00:00:00	2024-11-06T09:00:00	2	Temperatura media	21.1
111618	7	Sololá	702	San José Chacayá	5	Chacayá	8	Agosto	2023-05-08T00:00:00	2024-11-06T09:00:00	4	Temperatura máxima	21.1
111619	7	Sololá	702	San José Chacayá	5	Chacayá	8	Agosto	2023-05-08T00:00:00	2024-11-06T09:00:00	3	Temperatura mínima	16.3
111620	7	Sololá	702	San José Chacayá	5	Chacayá	8	Agosto	2023-05-08T00:00:00	2024-11-06T09:00:00	5	Humedad	59
111621	7	Sololá	702	San José Chacayá	5	Chacayá	8	Agosto	2023-05-08T00:00:00	2024-11-06T09:00:00	6	Velocidad del viento	3.2
111622	7	Sololá	702	San José Chacayá	5	Chacayá	8	Agosto	2023-05-08T00:00:00	2024-11-06T09:00:00	7	Dirección del viento	3.22
111623	7	Sololá	702	San José Chacayá	5	Chacayá	8	Agosto	2023-05-08T00:00:00	2024-11-06T09:00:00	1	Precipitación	0
111624	7	Sololá	702	San José Chacayá	5	Chacayá	8	Agosto	2023-05-08T00:00:00	2024-11-06T09:00:00	8	Radiación solar	851
111625	7	Sololá	702	San José Chacayá	5	Chacayá	8	Agosto	2023-05-08T00:00:00	2024-11-06T10:00:00	2	Temperatura media	23.2
111626	7	Sololá	702	San José Chacayá	5	Chacayá	8	Agosto	2023-05-08T00:00:00	2024-11-06T10:00:00	4	Temperatura máxima	23.2
111627	7	Sololá	702	San José Chacayá	5	Chacayá	8	Agosto	2023-05-08T00:00:00	2024-11-06T10:00:00	3	Temperatura mínima	21.1
111628	7	Sololá	702	San José Chacayá	5	Chacayá	8	Agosto	2023-05-08T00:00:00	2024-11-06T10:00:00	5	Humedad	48
111629	7	Sololá	702	San José Chacayá	5	Chacayá	8	Agosto	2023-05-08T00:00:00	2024-11-06T10:00:00	6	Velocidad del viento	3.2
111630	7	Sololá	702	San José Chacayá	5	Chacayá	8	Agosto	2023-05-08T00:00:00	2024-11-06T10:00:00	7	Dirección del viento	3.22
111631	7	Sololá	702	San José Chacayá	5	Chacayá	8	Agosto	2023-05-08T00:00:00	2024-11-06T10:00:00	1	Precipitación	0
111632	7	Sololá	702	San José Chacayá	5	Chacayá	8	Agosto	2023-05-08T00:00:00	2024-11-06T10:00:00	8	Radiación solar	860
111633	7	Sololá	702	San José Chacayá	5	Chacayá	8	Agosto	2023-05-08T00:00:00	2024-11-06T11:00:00	2	Temperatura media	24.2
111634	7	Sololá	702	San José Chacayá	5	Chacayá	8	Agosto	2023-05-08T00:00:00	2024-11-06T11:00:00	4	Temperatura máxima	24.3
111635	7	Sololá	702	San José Chacayá	5	Chacayá	8	Agosto	2023-05-08T00:00:00	2024-11-06T11:00:00	3	Temperatura mínima	23.1
111636	7	Sololá	702	San José Chacayá	5	Chacayá	8	Agosto	2023-05-08T00:00:00	2024-11-06T11:00:00	5	Humedad	45
111637	7	Sololá	702	San José Chacayá	5	Chacayá	8	Agosto	2023-05-08T00:00:00	2024-11-06T11:00:00	6	Velocidad del viento	4.8
111638	7	Sololá	702	San José Chacayá	5	Chacayá	8	Agosto	2023-05-08T00:00:00	2024-11-06T11:00:00	7	Dirección del viento	4.83
111639	7	Sololá	702	San José Chacayá	5	Chacayá	8	Agosto	2023-05-08T00:00:00	2024-11-06T11:00:00	1	Precipitación	0
111640	7	Sololá	702	San José Chacayá	5	Chacayá	8	Agosto	2023-05-08T00:00:00	2024-11-06T11:00:00	8	Radiación solar	922
111641	7	Sololá	702	San José Chacayá	5	Chacayá	8	Agosto	2023-05-08T00:00:00	2024-11-06T12:00:00	2	Temperatura media	25.2
111642	7	Sololá	702	San José Chacayá	5	Chacayá	8	Agosto	2023-05-08T00:00:00	2024-11-06T12:00:00	4	Temperatura máxima	25.2
111643	7	Sololá	702	San José Chacayá	5	Chacayá	8	Agosto	2023-05-08T00:00:00	2024-11-06T12:00:00	3	Temperatura mínima	23.9
111644	7	Sololá	702	San José Chacayá	5	Chacayá	8	Agosto	2023-05-08T00:00:00	2024-11-06T12:00:00	5	Humedad	46
111645	7	Sololá	702	San José Chacayá	5	Chacayá	8	Agosto	2023-05-08T00:00:00	2024-11-06T12:00:00	6	Velocidad del viento	4.8
111646	7	Sololá	702	San José Chacayá	5	Chacayá	8	Agosto	2023-05-08T00:00:00	2024-11-06T12:00:00	7	Dirección del viento	4.83
111647	7	Sololá	702	San José Chacayá	5	Chacayá	8	Agosto	2023-05-08T00:00:00	2024-11-06T12:00:00	1	Precipitación	0
111648	7	Sololá	702	San José Chacayá	5	Chacayá	8	Agosto	2023-05-08T00:00:00	2024-11-06T12:00:00	8	Radiación solar	958
111649	7	Sololá	702	San José Chacayá	5	Chacayá	8	Agosto	2023-05-08T00:00:00	2024-11-06T13:00:00	2	Temperatura media	24.8
111650	7	Sololá	702	San José Chacayá	5	Chacayá	8	Agosto	2023-05-08T00:00:00	2024-11-06T13:00:00	4	Temperatura máxima	25.3
111651	7	Sololá	702	San José Chacayá	5	Chacayá	8	Agosto	2023-05-08T00:00:00	2024-11-06T13:00:00	3	Temperatura mínima	23.9
111652	7	Sololá	702	San José Chacayá	5	Chacayá	8	Agosto	2023-05-08T00:00:00	2024-11-06T13:00:00	5	Humedad	44
111653	7	Sololá	702	San José Chacayá	5	Chacayá	8	Agosto	2023-05-08T00:00:00	2024-11-06T13:00:00	6	Velocidad del viento	4.8
111654	7	Sololá	702	San José Chacayá	5	Chacayá	8	Agosto	2023-05-08T00:00:00	2024-11-06T13:00:00	7	Dirección del viento	4.83
111655	7	Sololá	702	San José Chacayá	5	Chacayá	8	Agosto	2023-05-08T00:00:00	2024-11-06T13:00:00	1	Precipitación	0
111656	7	Sololá	702	San José Chacayá	5	Chacayá	8	Agosto	2023-05-08T00:00:00	2024-11-06T13:00:00	8	Radiación solar	1040
111657	7	Sololá	702	San José Chacayá	5	Chacayá	8	Agosto	2023-05-08T00:00:00	2024-11-06T14:00:00	2	Temperatura media	25.6
111658	7	Sololá	702	San José Chacayá	5	Chacayá	8	Agosto	2023-05-08T00:00:00	2024-11-06T14:00:00	4	Temperatura máxima	25.7
111659	7	Sololá	702	San José Chacayá	5	Chacayá	8	Agosto	2023-05-08T00:00:00	2024-11-06T14:00:00	3	Temperatura mínima	24.7
111660	7	Sololá	702	San José Chacayá	5	Chacayá	8	Agosto	2023-05-08T00:00:00	2024-11-06T14:00:00	5	Humedad	41
111661	7	Sololá	702	San José Chacayá	5	Chacayá	8	Agosto	2023-05-08T00:00:00	2024-11-06T14:00:00	6	Velocidad del viento	4.8
111662	7	Sololá	702	San José Chacayá	5	Chacayá	8	Agosto	2023-05-08T00:00:00	2024-11-06T14:00:00	7	Dirección del viento	4.83
111663	7	Sololá	702	San José Chacayá	5	Chacayá	8	Agosto	2023-05-08T00:00:00	2024-11-06T14:00:00	1	Precipitación	0
111664	7	Sololá	702	San José Chacayá	5	Chacayá	8	Agosto	2023-05-08T00:00:00	2024-11-06T14:00:00	8	Radiación solar	391
111665	7	Sololá	702	San José Chacayá	5	Chacayá	8	Agosto	2023-05-08T00:00:00	2024-11-06T15:00:00	2	Temperatura media	24.4
111666	7	Sololá	702	San José Chacayá	5	Chacayá	8	Agosto	2023-05-08T00:00:00	2024-11-06T15:00:00	4	Temperatura máxima	25.9
111667	7	Sololá	702	San José Chacayá	5	Chacayá	8	Agosto	2023-05-08T00:00:00	2024-11-06T15:00:00	3	Temperatura mínima	24.3
111668	7	Sololá	702	San José Chacayá	5	Chacayá	8	Agosto	2023-05-08T00:00:00	2024-11-06T15:00:00	5	Humedad	45
111669	7	Sololá	702	San José Chacayá	5	Chacayá	8	Agosto	2023-05-08T00:00:00	2024-11-06T15:00:00	6	Velocidad del viento	4.8
111670	7	Sololá	702	San José Chacayá	5	Chacayá	8	Agosto	2023-05-08T00:00:00	2024-11-06T15:00:00	7	Dirección del viento	4.83
111671	7	Sololá	702	San José Chacayá	5	Chacayá	8	Agosto	2023-05-08T00:00:00	2024-11-06T15:00:00	1	Precipitación	0
111672	7	Sololá	702	San José Chacayá	5	Chacayá	8	Agosto	2023-05-08T00:00:00	2024-11-06T15:00:00	8	Radiación solar	478
111673	7	Sololá	702	San José Chacayá	5	Chacayá	8	Agosto	2023-05-08T00:00:00	2024-11-06T16:00:00	2	Temperatura media	24.2
111674	7	Sololá	702	San José Chacayá	5	Chacayá	8	Agosto	2023-05-08T00:00:00	2024-11-06T16:00:00	4	Temperatura máxima	24.7
111675	7	Sololá	702	San José Chacayá	5	Chacayá	8	Agosto	2023-05-08T00:00:00	2024-11-06T16:00:00	3	Temperatura mínima	23.9
111676	7	Sololá	702	San José Chacayá	5	Chacayá	8	Agosto	2023-05-08T00:00:00	2024-11-06T16:00:00	5	Humedad	41
111677	7	Sololá	702	San José Chacayá	5	Chacayá	8	Agosto	2023-05-08T00:00:00	2024-11-06T16:00:00	6	Velocidad del viento	4.8
111678	7	Sololá	702	San José Chacayá	5	Chacayá	8	Agosto	2023-05-08T00:00:00	2024-11-06T16:00:00	7	Dirección del viento	4.83
111679	7	Sololá	702	San José Chacayá	5	Chacayá	8	Agosto	2023-05-08T00:00:00	2024-11-06T16:00:00	1	Precipitación	0
111680	7	Sololá	702	San José Chacayá	5	Chacayá	8	Agosto	2023-05-08T00:00:00	2024-11-06T16:00:00	8	Radiación solar	338
111681	7	Sololá	702	San José Chacayá	5	Chacayá	8	Agosto	2023-05-08T00:00:00	2024-11-06T17:00:00	2	Temperatura media	23.3
111682	7	Sololá	702	San José Chacayá	5	Chacayá	8	Agosto	2023-05-08T00:00:00	2024-11-06T17:00:00	4	Temperatura máxima	24.5
111683	7	Sololá	702	San José Chacayá	5	Chacayá	8	Agosto	2023-05-08T00:00:00	2024-11-06T17:00:00	3	Temperatura mínima	23.3
111684	7	Sololá	702	San José Chacayá	5	Chacayá	8	Agosto	2023-05-08T00:00:00	2024-11-06T17:00:00	5	Humedad	50
111685	7	Sololá	702	San José Chacayá	5	Chacayá	8	Agosto	2023-05-08T00:00:00	2024-11-06T17:00:00	6	Velocidad del viento	3.2
111686	7	Sololá	702	San José Chacayá	5	Chacayá	8	Agosto	2023-05-08T00:00:00	2024-11-06T17:00:00	7	Dirección del viento	3.22
111687	7	Sololá	702	San José Chacayá	5	Chacayá	8	Agosto	2023-05-08T00:00:00	2024-11-06T17:00:00	1	Precipitación	0
111688	7	Sololá	702	San José Chacayá	5	Chacayá	8	Agosto	2023-05-08T00:00:00	2024-11-06T17:00:00	8	Radiación solar	223
111689	7	Sololá	702	San José Chacayá	5	Chacayá	8	Agosto	2023-05-08T00:00:00	2024-11-06T18:00:00	2	Temperatura media	20.9
111690	7	Sololá	702	San José Chacayá	5	Chacayá	8	Agosto	2023-05-08T00:00:00	2024-11-06T18:00:00	4	Temperatura máxima	23.4
111691	7	Sololá	702	San José Chacayá	5	Chacayá	8	Agosto	2023-05-08T00:00:00	2024-11-06T18:00:00	3	Temperatura mínima	20.8
111692	7	Sololá	702	San José Chacayá	5	Chacayá	8	Agosto	2023-05-08T00:00:00	2024-11-06T18:00:00	5	Humedad	59
111693	7	Sololá	702	San José Chacayá	5	Chacayá	8	Agosto	2023-05-08T00:00:00	2024-11-06T18:00:00	6	Velocidad del viento	1.6
111694	7	Sololá	702	San José Chacayá	5	Chacayá	8	Agosto	2023-05-08T00:00:00	2024-11-06T18:00:00	7	Dirección del viento	1.61
111695	7	Sololá	702	San José Chacayá	5	Chacayá	8	Agosto	2023-05-08T00:00:00	2024-11-06T18:00:00	1	Precipitación	0
111696	7	Sololá	702	San José Chacayá	5	Chacayá	8	Agosto	2023-05-08T00:00:00	2024-11-06T18:00:00	8	Radiación solar	38
111697	7	Sololá	702	San José Chacayá	5	Chacayá	8	Agosto	2023-05-08T00:00:00	2024-11-06T19:00:00	2	Temperatura media	18.1
111698	7	Sololá	702	San José Chacayá	5	Chacayá	8	Agosto	2023-05-08T00:00:00	2024-11-06T19:00:00	4	Temperatura máxima	20.9
111699	7	Sololá	702	San José Chacayá	5	Chacayá	8	Agosto	2023-05-08T00:00:00	2024-11-06T19:00:00	3	Temperatura mínima	18.1
111700	7	Sololá	702	San José Chacayá	5	Chacayá	8	Agosto	2023-05-08T00:00:00	2024-11-06T19:00:00	5	Humedad	71
111701	7	Sololá	702	San José Chacayá	5	Chacayá	8	Agosto	2023-05-08T00:00:00	2024-11-06T19:00:00	6	Velocidad del viento	1.6
111702	7	Sololá	702	San José Chacayá	5	Chacayá	8	Agosto	2023-05-08T00:00:00	2024-11-06T19:00:00	7	Dirección del viento	1.61
111703	7	Sololá	702	San José Chacayá	5	Chacayá	8	Agosto	2023-05-08T00:00:00	2024-11-06T19:00:00	1	Precipitación	0
111704	7	Sololá	702	San José Chacayá	5	Chacayá	8	Agosto	2023-05-08T00:00:00	2024-11-06T19:00:00	8	Radiación solar	0
111705	7	Sololá	702	San José Chacayá	5	Chacayá	8	Agosto	2023-05-08T00:00:00	2024-11-06T20:00:00	2	Temperatura media	17.1
111706	7	Sololá	702	San José Chacayá	5	Chacayá	8	Agosto	2023-05-08T00:00:00	2024-11-06T20:00:00	4	Temperatura máxima	18.1
111707	7	Sololá	702	San José Chacayá	5	Chacayá	8	Agosto	2023-05-08T00:00:00	2024-11-06T20:00:00	3	Temperatura mínima	17.1
111708	7	Sololá	702	San José Chacayá	5	Chacayá	8	Agosto	2023-05-08T00:00:00	2024-11-06T20:00:00	5	Humedad	76
111709	7	Sololá	702	San José Chacayá	5	Chacayá	8	Agosto	2023-05-08T00:00:00	2024-11-06T20:00:00	6	Velocidad del viento	1.6
111710	7	Sololá	702	San José Chacayá	5	Chacayá	8	Agosto	2023-05-08T00:00:00	2024-11-06T20:00:00	7	Dirección del viento	1.61
111711	7	Sololá	702	San José Chacayá	5	Chacayá	8	Agosto	2023-05-08T00:00:00	2024-11-06T20:00:00	1	Precipitación	0
111712	7	Sololá	702	San José Chacayá	5	Chacayá	8	Agosto	2023-05-08T00:00:00	2024-11-06T20:00:00	8	Radiación solar	0
111713	7	Sololá	702	San José Chacayá	5	Chacayá	8	Agosto	2023-05-08T00:00:00	2024-11-06T21:00:00	2	Temperatura media	16.3
111714	7	Sololá	702	San José Chacayá	5	Chacayá	8	Agosto	2023-05-08T00:00:00	2024-11-06T21:00:00	4	Temperatura máxima	17.1
111715	7	Sololá	702	San José Chacayá	5	Chacayá	8	Agosto	2023-05-08T00:00:00	2024-11-06T21:00:00	3	Temperatura mínima	16.2
111716	7	Sololá	702	San José Chacayá	5	Chacayá	8	Agosto	2023-05-08T00:00:00	2024-11-06T21:00:00	5	Humedad	80
111717	7	Sololá	702	San José Chacayá	5	Chacayá	8	Agosto	2023-05-08T00:00:00	2024-11-06T21:00:00	6	Velocidad del viento	3.2
111718	7	Sololá	702	San José Chacayá	5	Chacayá	8	Agosto	2023-05-08T00:00:00	2024-11-06T21:00:00	7	Dirección del viento	3.22
111719	7	Sololá	702	San José Chacayá	5	Chacayá	8	Agosto	2023-05-08T00:00:00	2024-11-06T21:00:00	1	Precipitación	0
111720	7	Sololá	702	San José Chacayá	5	Chacayá	8	Agosto	2023-05-08T00:00:00	2024-11-06T21:00:00	8	Radiación solar	0
111721	7	Sololá	702	San José Chacayá	5	Chacayá	8	Agosto	2023-05-08T00:00:00	2024-11-06T22:00:00	2	Temperatura media	14.4
111722	7	Sololá	702	San José Chacayá	5	Chacayá	8	Agosto	2023-05-08T00:00:00	2024-11-06T22:00:00	4	Temperatura máxima	16.3
111723	7	Sololá	702	San José Chacayá	5	Chacayá	8	Agosto	2023-05-08T00:00:00	2024-11-06T22:00:00	3	Temperatura mínima	14.4
111724	7	Sololá	702	San José Chacayá	5	Chacayá	8	Agosto	2023-05-08T00:00:00	2024-11-06T22:00:00	5	Humedad	84
111725	7	Sololá	702	San José Chacayá	5	Chacayá	8	Agosto	2023-05-08T00:00:00	2024-11-06T22:00:00	6	Velocidad del viento	1.6
111726	7	Sololá	702	San José Chacayá	5	Chacayá	8	Agosto	2023-05-08T00:00:00	2024-11-06T22:00:00	7	Dirección del viento	1.61
111727	7	Sololá	702	San José Chacayá	5	Chacayá	8	Agosto	2023-05-08T00:00:00	2024-11-06T22:00:00	1	Precipitación	0
111728	7	Sololá	702	San José Chacayá	5	Chacayá	8	Agosto	2023-05-08T00:00:00	2024-11-06T22:00:00	8	Radiación solar	0
111729	7	Sololá	702	San José Chacayá	5	Chacayá	8	Agosto	2023-05-08T00:00:00	2024-11-06T23:00:00	2	Temperatura media	13.3
111730	7	Sololá	702	San José Chacayá	5	Chacayá	8	Agosto	2023-05-08T00:00:00	2024-11-06T23:00:00	4	Temperatura máxima	14.4
111731	7	Sololá	702	San José Chacayá	5	Chacayá	8	Agosto	2023-05-08T00:00:00	2024-11-06T23:00:00	3	Temperatura mínima	13.3
111732	7	Sololá	702	San José Chacayá	5	Chacayá	8	Agosto	2023-05-08T00:00:00	2024-11-06T23:00:00	5	Humedad	86
111733	7	Sololá	702	San José Chacayá	5	Chacayá	8	Agosto	2023-05-08T00:00:00	2024-11-06T23:00:00	6	Velocidad del viento	1.6
111734	7	Sololá	702	San José Chacayá	5	Chacayá	8	Agosto	2023-05-08T00:00:00	2024-11-06T23:00:00	7	Dirección del viento	1.61
111735	7	Sololá	702	San José Chacayá	5	Chacayá	8	Agosto	2023-05-08T00:00:00	2024-11-06T23:00:00	1	Precipitación	0
111736	7	Sololá	702	San José Chacayá	5	Chacayá	8	Agosto	2023-05-08T00:00:00	2024-11-06T23:00:00	8	Radiación solar	0
111737	7	Sololá	702	San José Chacayá	5	Chacayá	8	Agosto	2023-06-08T00:00:00	2024-11-06T00:00:00	2	Temperatura media	12.4
111738	7	Sololá	702	San José Chacayá	5	Chacayá	8	Agosto	2023-06-08T00:00:00	2024-11-06T00:00:00	4	Temperatura máxima	13.3
111739	7	Sololá	702	San José Chacayá	5	Chacayá	8	Agosto	2023-06-08T00:00:00	2024-11-06T00:00:00	3	Temperatura mínima	12.4
111740	7	Sololá	702	San José Chacayá	5	Chacayá	8	Agosto	2023-06-08T00:00:00	2024-11-06T00:00:00	5	Humedad	88
111741	7	Sololá	702	San José Chacayá	5	Chacayá	8	Agosto	2023-06-08T00:00:00	2024-11-06T00:00:00	6	Velocidad del viento	1.6
111742	7	Sololá	702	San José Chacayá	5	Chacayá	8	Agosto	2023-06-08T00:00:00	2024-11-06T00:00:00	7	Dirección del viento	1.61
111743	7	Sololá	702	San José Chacayá	5	Chacayá	8	Agosto	2023-06-08T00:00:00	2024-11-06T00:00:00	1	Precipitación	0
111744	7	Sololá	702	San José Chacayá	5	Chacayá	8	Agosto	2023-06-08T00:00:00	2024-11-06T00:00:00	8	Radiación solar	0
111745	7	Sololá	702	San José Chacayá	5	Chacayá	8	Agosto	2023-06-08T00:00:00	2024-11-06T01:00:00	2	Temperatura media	12.1
111746	7	Sololá	702	San José Chacayá	5	Chacayá	8	Agosto	2023-06-08T00:00:00	2024-11-06T01:00:00	4	Temperatura máxima	12.7
111747	7	Sololá	702	San José Chacayá	5	Chacayá	8	Agosto	2023-06-08T00:00:00	2024-11-06T01:00:00	3	Temperatura mínima	12.1
111748	7	Sololá	702	San José Chacayá	5	Chacayá	8	Agosto	2023-06-08T00:00:00	2024-11-06T01:00:00	5	Humedad	87
111749	7	Sololá	702	San José Chacayá	5	Chacayá	8	Agosto	2023-06-08T00:00:00	2024-11-06T01:00:00	6	Velocidad del viento	1.6
111750	7	Sololá	702	San José Chacayá	5	Chacayá	8	Agosto	2023-06-08T00:00:00	2024-11-06T01:00:00	7	Dirección del viento	1.61
111751	7	Sololá	702	San José Chacayá	5	Chacayá	8	Agosto	2023-06-08T00:00:00	2024-11-06T01:00:00	1	Precipitación	0
111752	7	Sololá	702	San José Chacayá	5	Chacayá	8	Agosto	2023-06-08T00:00:00	2024-11-06T01:00:00	8	Radiación solar	0
111753	7	Sololá	702	San José Chacayá	5	Chacayá	8	Agosto	2023-06-08T00:00:00	2024-11-06T02:00:00	2	Temperatura media	11.1
111754	7	Sololá	702	San José Chacayá	5	Chacayá	8	Agosto	2023-06-08T00:00:00	2024-11-06T02:00:00	4	Temperatura máxima	12
111755	7	Sololá	702	San José Chacayá	5	Chacayá	8	Agosto	2023-06-08T00:00:00	2024-11-06T02:00:00	3	Temperatura mínima	11.1
111756	7	Sololá	702	San José Chacayá	5	Chacayá	8	Agosto	2023-06-08T00:00:00	2024-11-06T02:00:00	5	Humedad	86
111757	7	Sololá	702	San José Chacayá	5	Chacayá	8	Agosto	2023-06-08T00:00:00	2024-11-06T02:00:00	6	Velocidad del viento	1.6
111758	7	Sololá	702	San José Chacayá	5	Chacayá	8	Agosto	2023-06-08T00:00:00	2024-11-06T02:00:00	7	Dirección del viento	1.61
111759	7	Sololá	702	San José Chacayá	5	Chacayá	8	Agosto	2023-06-08T00:00:00	2024-11-06T02:00:00	1	Precipitación	0
111760	7	Sololá	702	San José Chacayá	5	Chacayá	8	Agosto	2023-06-08T00:00:00	2024-11-06T02:00:00	8	Radiación solar	0
111761	7	Sololá	702	San José Chacayá	5	Chacayá	8	Agosto	2023-06-08T00:00:00	2024-11-06T03:00:00	2	Temperatura media	10.4
111762	7	Sololá	702	San José Chacayá	5	Chacayá	8	Agosto	2023-06-08T00:00:00	2024-11-06T03:00:00	4	Temperatura máxima	11.2
111763	7	Sololá	702	San José Chacayá	5	Chacayá	8	Agosto	2023-06-08T00:00:00	2024-11-06T03:00:00	3	Temperatura mínima	10.4
111764	7	Sololá	702	San José Chacayá	5	Chacayá	8	Agosto	2023-06-08T00:00:00	2024-11-06T03:00:00	5	Humedad	88
111765	7	Sololá	702	San José Chacayá	5	Chacayá	8	Agosto	2023-06-08T00:00:00	2024-11-06T03:00:00	6	Velocidad del viento	0
111766	7	Sololá	702	San José Chacayá	5	Chacayá	8	Agosto	2023-06-08T00:00:00	2024-11-06T03:00:00	7	Dirección del viento	0
111767	7	Sololá	702	San José Chacayá	5	Chacayá	8	Agosto	2023-06-08T00:00:00	2024-11-06T03:00:00	1	Precipitación	0
111768	7	Sololá	702	San José Chacayá	5	Chacayá	8	Agosto	2023-06-08T00:00:00	2024-11-06T03:00:00	8	Radiación solar	0
111769	7	Sololá	702	San José Chacayá	5	Chacayá	8	Agosto	2023-06-08T00:00:00	2024-11-06T04:00:00	2	Temperatura media	10.3
111770	7	Sololá	702	San José Chacayá	5	Chacayá	8	Agosto	2023-06-08T00:00:00	2024-11-06T04:00:00	4	Temperatura máxima	10.4
111771	7	Sololá	702	San José Chacayá	5	Chacayá	8	Agosto	2023-06-08T00:00:00	2024-11-06T04:00:00	3	Temperatura mínima	10.2
111772	7	Sololá	702	San José Chacayá	5	Chacayá	8	Agosto	2023-06-08T00:00:00	2024-11-06T04:00:00	5	Humedad	89
111773	7	Sololá	702	San José Chacayá	5	Chacayá	8	Agosto	2023-06-08T00:00:00	2024-11-06T04:00:00	6	Velocidad del viento	1.6
111774	7	Sololá	702	San José Chacayá	5	Chacayá	8	Agosto	2023-06-08T00:00:00	2024-11-06T04:00:00	7	Dirección del viento	1.61
111775	7	Sololá	702	San José Chacayá	5	Chacayá	8	Agosto	2023-06-08T00:00:00	2024-11-06T04:00:00	1	Precipitación	0
111776	7	Sololá	702	San José Chacayá	5	Chacayá	8	Agosto	2023-06-08T00:00:00	2024-11-06T04:00:00	8	Radiación solar	0
111777	7	Sololá	702	San José Chacayá	5	Chacayá	8	Agosto	2023-06-08T00:00:00	2024-11-06T05:00:00	2	Temperatura media	9.7
111778	7	Sololá	702	San José Chacayá	5	Chacayá	8	Agosto	2023-06-08T00:00:00	2024-11-06T05:00:00	4	Temperatura máxima	10.3
111779	7	Sololá	702	San José Chacayá	5	Chacayá	8	Agosto	2023-06-08T00:00:00	2024-11-06T05:00:00	3	Temperatura mínima	9.6
111780	7	Sololá	702	San José Chacayá	5	Chacayá	8	Agosto	2023-06-08T00:00:00	2024-11-06T05:00:00	5	Humedad	91
111781	7	Sololá	702	San José Chacayá	5	Chacayá	8	Agosto	2023-06-08T00:00:00	2024-11-06T05:00:00	6	Velocidad del viento	1.6
111782	7	Sololá	702	San José Chacayá	5	Chacayá	8	Agosto	2023-06-08T00:00:00	2024-11-06T05:00:00	7	Dirección del viento	1.61
111783	7	Sololá	702	San José Chacayá	5	Chacayá	8	Agosto	2023-06-08T00:00:00	2024-11-06T05:00:00	1	Precipitación	0
111784	7	Sololá	702	San José Chacayá	5	Chacayá	8	Agosto	2023-06-08T00:00:00	2024-11-06T05:00:00	8	Radiación solar	0
111785	7	Sololá	702	San José Chacayá	5	Chacayá	8	Agosto	2023-06-08T00:00:00	2024-11-06T06:00:00	2	Temperatura media	9.6
111786	7	Sololá	702	San José Chacayá	5	Chacayá	8	Agosto	2023-06-08T00:00:00	2024-11-06T06:00:00	4	Temperatura máxima	9.7
111787	7	Sololá	702	San José Chacayá	5	Chacayá	8	Agosto	2023-06-08T00:00:00	2024-11-06T06:00:00	3	Temperatura mínima	9.5
111788	7	Sololá	702	San José Chacayá	5	Chacayá	8	Agosto	2023-06-08T00:00:00	2024-11-06T06:00:00	5	Humedad	91
111789	7	Sololá	702	San José Chacayá	5	Chacayá	8	Agosto	2023-06-08T00:00:00	2024-11-06T06:00:00	6	Velocidad del viento	1.6
111790	7	Sololá	702	San José Chacayá	5	Chacayá	8	Agosto	2023-06-08T00:00:00	2024-11-06T06:00:00	7	Dirección del viento	1.61
111791	7	Sololá	702	San José Chacayá	5	Chacayá	8	Agosto	2023-06-08T00:00:00	2024-11-06T06:00:00	1	Precipitación	0
111792	7	Sololá	702	San José Chacayá	5	Chacayá	8	Agosto	2023-06-08T00:00:00	2024-11-06T06:00:00	8	Radiación solar	1
111793	7	Sololá	702	San José Chacayá	5	Chacayá	8	Agosto	2023-06-08T00:00:00	2024-11-06T07:00:00	2	Temperatura media	11.2
111794	7	Sololá	702	San José Chacayá	5	Chacayá	8	Agosto	2023-06-08T00:00:00	2024-11-06T07:00:00	4	Temperatura máxima	11.2
111795	7	Sololá	702	San José Chacayá	5	Chacayá	8	Agosto	2023-06-08T00:00:00	2024-11-06T07:00:00	3	Temperatura mínima	9.6
111796	7	Sololá	702	San José Chacayá	5	Chacayá	8	Agosto	2023-06-08T00:00:00	2024-11-06T07:00:00	5	Humedad	90
111797	7	Sololá	702	San José Chacayá	5	Chacayá	8	Agosto	2023-06-08T00:00:00	2024-11-06T07:00:00	6	Velocidad del viento	0
111798	7	Sololá	702	San José Chacayá	5	Chacayá	8	Agosto	2023-06-08T00:00:00	2024-11-06T07:00:00	7	Dirección del viento	0
111799	7	Sololá	702	San José Chacayá	5	Chacayá	8	Agosto	2023-06-08T00:00:00	2024-11-06T07:00:00	1	Precipitación	0
111800	7	Sololá	702	San José Chacayá	5	Chacayá	8	Agosto	2023-06-08T00:00:00	2024-11-06T07:00:00	8	Radiación solar	42
111801	7	Sololá	702	San José Chacayá	5	Chacayá	8	Agosto	2023-06-08T00:00:00	2024-11-06T08:00:00	2	Temperatura media	17
111802	7	Sololá	702	San José Chacayá	5	Chacayá	8	Agosto	2023-06-08T00:00:00	2024-11-06T08:00:00	4	Temperatura máxima	17
111803	7	Sololá	702	San José Chacayá	5	Chacayá	8	Agosto	2023-06-08T00:00:00	2024-11-06T08:00:00	3	Temperatura mínima	11.3
111804	7	Sololá	702	San José Chacayá	5	Chacayá	8	Agosto	2023-06-08T00:00:00	2024-11-06T08:00:00	5	Humedad	75
111805	7	Sololá	702	San José Chacayá	5	Chacayá	8	Agosto	2023-06-08T00:00:00	2024-11-06T08:00:00	6	Velocidad del viento	1.6
111806	7	Sololá	702	San José Chacayá	5	Chacayá	8	Agosto	2023-06-08T00:00:00	2024-11-06T08:00:00	7	Dirección del viento	1.61
111807	7	Sololá	702	San José Chacayá	5	Chacayá	8	Agosto	2023-06-08T00:00:00	2024-11-06T08:00:00	1	Precipitación	0
111808	7	Sololá	702	San José Chacayá	5	Chacayá	8	Agosto	2023-06-08T00:00:00	2024-11-06T08:00:00	8	Radiación solar	147
111809	7	Sololá	702	San José Chacayá	5	Chacayá	8	Agosto	2023-06-08T00:00:00	2024-11-06T09:00:00	2	Temperatura media	20.6
111810	7	Sololá	702	San José Chacayá	5	Chacayá	8	Agosto	2023-06-08T00:00:00	2024-11-06T09:00:00	4	Temperatura máxima	20.7
111811	7	Sololá	702	San José Chacayá	5	Chacayá	8	Agosto	2023-06-08T00:00:00	2024-11-06T09:00:00	3	Temperatura mínima	17.2
111812	7	Sololá	702	San José Chacayá	5	Chacayá	8	Agosto	2023-06-08T00:00:00	2024-11-06T09:00:00	5	Humedad	60
111813	7	Sololá	702	San José Chacayá	5	Chacayá	8	Agosto	2023-06-08T00:00:00	2024-11-06T09:00:00	6	Velocidad del viento	3.2
111814	7	Sololá	702	San José Chacayá	5	Chacayá	8	Agosto	2023-06-08T00:00:00	2024-11-06T09:00:00	7	Dirección del viento	3.22
111815	7	Sololá	702	San José Chacayá	5	Chacayá	8	Agosto	2023-06-08T00:00:00	2024-11-06T09:00:00	1	Precipitación	0
111816	7	Sololá	702	San José Chacayá	5	Chacayá	8	Agosto	2023-06-08T00:00:00	2024-11-06T09:00:00	8	Radiación solar	303
111817	7	Sololá	702	San José Chacayá	5	Chacayá	8	Agosto	2023-06-08T00:00:00	2024-11-06T10:00:00	2	Temperatura media	22.4
111818	7	Sololá	702	San José Chacayá	5	Chacayá	8	Agosto	2023-06-08T00:00:00	2024-11-06T10:00:00	4	Temperatura máxima	22.5
111819	7	Sololá	702	San José Chacayá	5	Chacayá	8	Agosto	2023-06-08T00:00:00	2024-11-06T10:00:00	3	Temperatura mínima	20.6
111820	7	Sololá	702	San José Chacayá	5	Chacayá	8	Agosto	2023-06-08T00:00:00	2024-11-06T10:00:00	5	Humedad	51
111821	7	Sololá	702	San José Chacayá	5	Chacayá	8	Agosto	2023-06-08T00:00:00	2024-11-06T10:00:00	6	Velocidad del viento	4.8
111822	7	Sololá	702	San José Chacayá	5	Chacayá	8	Agosto	2023-06-08T00:00:00	2024-11-06T10:00:00	7	Dirección del viento	4.83
111823	7	Sololá	702	San José Chacayá	5	Chacayá	8	Agosto	2023-06-08T00:00:00	2024-11-06T10:00:00	1	Precipitación	0
111824	7	Sololá	702	San José Chacayá	5	Chacayá	8	Agosto	2023-06-08T00:00:00	2024-11-06T10:00:00	8	Radiación solar	447
111825	7	Sololá	702	San José Chacayá	5	Chacayá	8	Agosto	2023-06-08T00:00:00	2024-11-06T11:00:00	2	Temperatura media	24.1
111826	7	Sololá	702	San José Chacayá	5	Chacayá	8	Agosto	2023-06-08T00:00:00	2024-11-06T11:00:00	4	Temperatura máxima	24.1
111827	7	Sololá	702	San José Chacayá	5	Chacayá	8	Agosto	2023-06-08T00:00:00	2024-11-06T11:00:00	3	Temperatura mínima	22.3
111828	7	Sololá	702	San José Chacayá	5	Chacayá	8	Agosto	2023-06-08T00:00:00	2024-11-06T11:00:00	5	Humedad	49
111829	7	Sololá	702	San José Chacayá	5	Chacayá	8	Agosto	2023-06-08T00:00:00	2024-11-06T11:00:00	6	Velocidad del viento	4.8
111830	7	Sololá	702	San José Chacayá	5	Chacayá	8	Agosto	2023-06-08T00:00:00	2024-11-06T11:00:00	7	Dirección del viento	4.83
111831	7	Sololá	702	San José Chacayá	5	Chacayá	8	Agosto	2023-06-08T00:00:00	2024-11-06T11:00:00	1	Precipitación	0
111832	7	Sololá	702	San José Chacayá	5	Chacayá	8	Agosto	2023-06-08T00:00:00	2024-11-06T11:00:00	8	Radiación solar	869
111833	7	Sololá	702	San José Chacayá	5	Chacayá	8	Agosto	2023-06-08T00:00:00	2024-11-06T12:00:00	2	Temperatura media	24.9
111834	7	Sololá	702	San José Chacayá	5	Chacayá	8	Agosto	2023-06-08T00:00:00	2024-11-06T12:00:00	4	Temperatura máxima	24.9
111835	7	Sololá	702	San José Chacayá	5	Chacayá	8	Agosto	2023-06-08T00:00:00	2024-11-06T12:00:00	3	Temperatura mínima	24
111836	7	Sololá	702	San José Chacayá	5	Chacayá	8	Agosto	2023-06-08T00:00:00	2024-11-06T12:00:00	5	Humedad	45
111837	7	Sololá	702	San José Chacayá	5	Chacayá	8	Agosto	2023-06-08T00:00:00	2024-11-06T12:00:00	6	Velocidad del viento	6.4
111838	7	Sololá	702	San José Chacayá	5	Chacayá	8	Agosto	2023-06-08T00:00:00	2024-11-06T12:00:00	7	Dirección del viento	6.44
111839	7	Sololá	702	San José Chacayá	5	Chacayá	8	Agosto	2023-06-08T00:00:00	2024-11-06T12:00:00	1	Precipitación	0
111840	7	Sololá	702	San José Chacayá	5	Chacayá	8	Agosto	2023-06-08T00:00:00	2024-11-06T12:00:00	8	Radiación solar	748
111841	7	Sololá	702	San José Chacayá	5	Chacayá	8	Agosto	2023-06-08T00:00:00	2024-11-06T13:00:00	2	Temperatura media	24.9
111842	7	Sololá	702	San José Chacayá	5	Chacayá	8	Agosto	2023-06-08T00:00:00	2024-11-06T13:00:00	4	Temperatura máxima	25.1
111843	7	Sololá	702	San José Chacayá	5	Chacayá	8	Agosto	2023-06-08T00:00:00	2024-11-06T13:00:00	3	Temperatura mínima	24.8
111844	7	Sololá	702	San José Chacayá	5	Chacayá	8	Agosto	2023-06-08T00:00:00	2024-11-06T13:00:00	5	Humedad	48
111845	7	Sololá	702	San José Chacayá	5	Chacayá	8	Agosto	2023-06-08T00:00:00	2024-11-06T13:00:00	6	Velocidad del viento	4.8
111846	7	Sololá	702	San José Chacayá	5	Chacayá	8	Agosto	2023-06-08T00:00:00	2024-11-06T13:00:00	7	Dirección del viento	4.83
111847	7	Sololá	702	San José Chacayá	5	Chacayá	8	Agosto	2023-06-08T00:00:00	2024-11-06T13:00:00	1	Precipitación	0
111848	7	Sololá	702	San José Chacayá	5	Chacayá	8	Agosto	2023-06-08T00:00:00	2024-11-06T13:00:00	8	Radiación solar	776
111849	7	Sololá	702	San José Chacayá	5	Chacayá	8	Agosto	2023-06-08T00:00:00	2024-11-06T14:00:00	2	Temperatura media	24.9
111850	7	Sololá	702	San José Chacayá	5	Chacayá	8	Agosto	2023-06-08T00:00:00	2024-11-06T14:00:00	4	Temperatura máxima	25.5
111851	7	Sololá	702	San José Chacayá	5	Chacayá	8	Agosto	2023-06-08T00:00:00	2024-11-06T14:00:00	3	Temperatura mínima	24.2
111852	7	Sololá	702	San José Chacayá	5	Chacayá	8	Agosto	2023-06-08T00:00:00	2024-11-06T14:00:00	5	Humedad	45
111853	7	Sololá	702	San José Chacayá	5	Chacayá	8	Agosto	2023-06-08T00:00:00	2024-11-06T14:00:00	6	Velocidad del viento	4.8
111854	7	Sololá	702	San José Chacayá	5	Chacayá	8	Agosto	2023-06-08T00:00:00	2024-11-06T14:00:00	7	Dirección del viento	4.83
111855	7	Sololá	702	San José Chacayá	5	Chacayá	8	Agosto	2023-06-08T00:00:00	2024-11-06T14:00:00	1	Precipitación	0
111856	7	Sololá	702	San José Chacayá	5	Chacayá	8	Agosto	2023-06-08T00:00:00	2024-11-06T14:00:00	8	Radiación solar	984
111857	7	Sololá	702	San José Chacayá	5	Chacayá	8	Agosto	2023-06-08T00:00:00	2024-11-06T15:00:00	2	Temperatura media	24.2
111858	7	Sololá	702	San José Chacayá	5	Chacayá	8	Agosto	2023-06-08T00:00:00	2024-11-06T15:00:00	4	Temperatura máxima	24.9
111859	7	Sololá	702	San José Chacayá	5	Chacayá	8	Agosto	2023-06-08T00:00:00	2024-11-06T15:00:00	3	Temperatura mínima	23.2
111860	7	Sololá	702	San José Chacayá	5	Chacayá	8	Agosto	2023-06-08T00:00:00	2024-11-06T15:00:00	5	Humedad	56
111861	7	Sololá	702	San José Chacayá	5	Chacayá	8	Agosto	2023-06-08T00:00:00	2024-11-06T15:00:00	6	Velocidad del viento	4.8
111862	7	Sololá	702	San José Chacayá	5	Chacayá	8	Agosto	2023-06-08T00:00:00	2024-11-06T15:00:00	7	Dirección del viento	4.83
111863	7	Sololá	702	San José Chacayá	5	Chacayá	8	Agosto	2023-06-08T00:00:00	2024-11-06T15:00:00	1	Precipitación	0
111864	7	Sololá	702	San José Chacayá	5	Chacayá	8	Agosto	2023-06-08T00:00:00	2024-11-06T15:00:00	8	Radiación solar	676
111865	7	Sololá	702	San José Chacayá	5	Chacayá	8	Agosto	2023-06-08T00:00:00	2024-11-06T16:00:00	2	Temperatura media	23.6
111866	7	Sololá	702	San José Chacayá	5	Chacayá	8	Agosto	2023-06-08T00:00:00	2024-11-06T16:00:00	4	Temperatura máxima	24.7
111867	7	Sololá	702	San José Chacayá	5	Chacayá	8	Agosto	2023-06-08T00:00:00	2024-11-06T16:00:00	3	Temperatura mínima	23.6
111868	7	Sololá	702	San José Chacayá	5	Chacayá	8	Agosto	2023-06-08T00:00:00	2024-11-06T16:00:00	5	Humedad	56
111869	7	Sololá	702	San José Chacayá	5	Chacayá	8	Agosto	2023-06-08T00:00:00	2024-11-06T16:00:00	6	Velocidad del viento	3.2
111870	7	Sololá	702	San José Chacayá	5	Chacayá	8	Agosto	2023-06-08T00:00:00	2024-11-06T16:00:00	7	Dirección del viento	3.22
111871	7	Sololá	702	San José Chacayá	5	Chacayá	8	Agosto	2023-06-08T00:00:00	2024-11-06T16:00:00	1	Precipitación	0
111872	7	Sololá	702	San José Chacayá	5	Chacayá	8	Agosto	2023-06-08T00:00:00	2024-11-06T16:00:00	8	Radiación solar	123
111873	7	Sololá	702	San José Chacayá	5	Chacayá	8	Agosto	2023-06-08T00:00:00	2024-11-06T17:00:00	2	Temperatura media	20.2
111874	7	Sololá	702	San José Chacayá	5	Chacayá	8	Agosto	2023-06-08T00:00:00	2024-11-06T17:00:00	4	Temperatura máxima	23.6
111875	7	Sololá	702	San José Chacayá	5	Chacayá	8	Agosto	2023-06-08T00:00:00	2024-11-06T17:00:00	3	Temperatura mínima	20.1
111876	7	Sololá	702	San José Chacayá	5	Chacayá	8	Agosto	2023-06-08T00:00:00	2024-11-06T17:00:00	5	Humedad	75
111877	7	Sololá	702	San José Chacayá	5	Chacayá	8	Agosto	2023-06-08T00:00:00	2024-11-06T17:00:00	6	Velocidad del viento	3.2
111878	7	Sololá	702	San José Chacayá	5	Chacayá	8	Agosto	2023-06-08T00:00:00	2024-11-06T17:00:00	7	Dirección del viento	3.22
111879	7	Sololá	702	San José Chacayá	5	Chacayá	8	Agosto	2023-06-08T00:00:00	2024-11-06T17:00:00	1	Precipitación	0
111880	7	Sololá	702	San José Chacayá	5	Chacayá	8	Agosto	2023-06-08T00:00:00	2024-11-06T17:00:00	8	Radiación solar	126
111881	7	Sololá	702	San José Chacayá	5	Chacayá	8	Agosto	2023-06-08T00:00:00	2024-11-06T18:00:00	2	Temperatura media	18.5
111882	7	Sololá	702	San José Chacayá	5	Chacayá	8	Agosto	2023-06-08T00:00:00	2024-11-06T18:00:00	4	Temperatura máxima	20.2
111883	7	Sololá	702	San José Chacayá	5	Chacayá	8	Agosto	2023-06-08T00:00:00	2024-11-06T18:00:00	3	Temperatura mínima	18.5
111884	7	Sololá	702	San José Chacayá	5	Chacayá	8	Agosto	2023-06-08T00:00:00	2024-11-06T18:00:00	5	Humedad	74
111885	7	Sololá	702	San José Chacayá	5	Chacayá	8	Agosto	2023-06-08T00:00:00	2024-11-06T18:00:00	6	Velocidad del viento	1.6
111886	7	Sololá	702	San José Chacayá	5	Chacayá	8	Agosto	2023-06-08T00:00:00	2024-11-06T18:00:00	7	Dirección del viento	1.61
111887	7	Sololá	702	San José Chacayá	5	Chacayá	8	Agosto	2023-06-08T00:00:00	2024-11-06T18:00:00	1	Precipitación	0
111888	7	Sololá	702	San José Chacayá	5	Chacayá	8	Agosto	2023-06-08T00:00:00	2024-11-06T18:00:00	8	Radiación solar	116
111889	7	Sololá	702	San José Chacayá	5	Chacayá	8	Agosto	2023-06-08T00:00:00	2024-11-06T19:00:00	2	Temperatura media	17.2
111890	7	Sololá	702	San José Chacayá	5	Chacayá	8	Agosto	2023-06-08T00:00:00	2024-11-06T19:00:00	4	Temperatura máxima	18.5
111891	7	Sololá	702	San José Chacayá	5	Chacayá	8	Agosto	2023-06-08T00:00:00	2024-11-06T19:00:00	3	Temperatura mínima	17.2
111892	7	Sololá	702	San José Chacayá	5	Chacayá	8	Agosto	2023-06-08T00:00:00	2024-11-06T19:00:00	5	Humedad	79
111893	7	Sololá	702	San José Chacayá	5	Chacayá	8	Agosto	2023-06-08T00:00:00	2024-11-06T19:00:00	6	Velocidad del viento	1.6
111894	7	Sololá	702	San José Chacayá	5	Chacayá	8	Agosto	2023-06-08T00:00:00	2024-11-06T19:00:00	7	Dirección del viento	1.61
111895	7	Sololá	702	San José Chacayá	5	Chacayá	8	Agosto	2023-06-08T00:00:00	2024-11-06T19:00:00	1	Precipitación	0
111896	7	Sololá	702	San José Chacayá	5	Chacayá	8	Agosto	2023-06-08T00:00:00	2024-11-06T19:00:00	8	Radiación solar	0
111897	7	Sololá	702	San José Chacayá	5	Chacayá	8	Agosto	2023-06-08T00:00:00	2024-11-06T20:00:00	2	Temperatura media	17.3
111898	7	Sololá	702	San José Chacayá	5	Chacayá	8	Agosto	2023-06-08T00:00:00	2024-11-06T20:00:00	4	Temperatura máxima	17.5
111899	7	Sololá	702	San José Chacayá	5	Chacayá	8	Agosto	2023-06-08T00:00:00	2024-11-06T20:00:00	3	Temperatura mínima	17
111900	7	Sololá	702	San José Chacayá	5	Chacayá	8	Agosto	2023-06-08T00:00:00	2024-11-06T20:00:00	5	Humedad	78
111901	7	Sololá	702	San José Chacayá	5	Chacayá	8	Agosto	2023-06-08T00:00:00	2024-11-06T20:00:00	6	Velocidad del viento	1.6
111902	7	Sololá	702	San José Chacayá	5	Chacayá	8	Agosto	2023-06-08T00:00:00	2024-11-06T20:00:00	7	Dirección del viento	1.61
111903	7	Sololá	702	San José Chacayá	5	Chacayá	8	Agosto	2023-06-08T00:00:00	2024-11-06T20:00:00	1	Precipitación	0
111904	7	Sololá	702	San José Chacayá	5	Chacayá	8	Agosto	2023-06-08T00:00:00	2024-11-06T20:00:00	8	Radiación solar	0
111905	7	Sololá	702	San José Chacayá	5	Chacayá	8	Agosto	2023-06-08T00:00:00	2024-11-06T21:00:00	2	Temperatura media	16.6
111906	7	Sololá	702	San José Chacayá	5	Chacayá	8	Agosto	2023-06-08T00:00:00	2024-11-06T21:00:00	4	Temperatura máxima	17.3
111907	7	Sololá	702	San José Chacayá	5	Chacayá	8	Agosto	2023-06-08T00:00:00	2024-11-06T21:00:00	3	Temperatura mínima	16.6
111908	7	Sololá	702	San José Chacayá	5	Chacayá	8	Agosto	2023-06-08T00:00:00	2024-11-06T21:00:00	5	Humedad	79
111909	7	Sololá	702	San José Chacayá	5	Chacayá	8	Agosto	2023-06-08T00:00:00	2024-11-06T21:00:00	6	Velocidad del viento	3.2
111910	7	Sololá	702	San José Chacayá	5	Chacayá	8	Agosto	2023-06-08T00:00:00	2024-11-06T21:00:00	7	Dirección del viento	3.22
111911	7	Sololá	702	San José Chacayá	5	Chacayá	8	Agosto	2023-06-08T00:00:00	2024-11-06T21:00:00	1	Precipitación	0
111912	7	Sololá	702	San José Chacayá	5	Chacayá	8	Agosto	2023-06-08T00:00:00	2024-11-06T21:00:00	8	Radiación solar	0
111913	7	Sololá	702	San José Chacayá	5	Chacayá	8	Agosto	2023-06-08T00:00:00	2024-11-06T22:00:00	2	Temperatura media	16.3
111914	7	Sololá	702	San José Chacayá	5	Chacayá	8	Agosto	2023-06-08T00:00:00	2024-11-06T22:00:00	4	Temperatura máxima	16.6
111915	7	Sololá	702	San José Chacayá	5	Chacayá	8	Agosto	2023-06-08T00:00:00	2024-11-06T22:00:00	3	Temperatura mínima	16.3
111916	7	Sololá	702	San José Chacayá	5	Chacayá	8	Agosto	2023-06-08T00:00:00	2024-11-06T22:00:00	5	Humedad	79
111917	7	Sololá	702	San José Chacayá	5	Chacayá	8	Agosto	2023-06-08T00:00:00	2024-11-06T22:00:00	6	Velocidad del viento	3.2
111918	7	Sololá	702	San José Chacayá	5	Chacayá	8	Agosto	2023-06-08T00:00:00	2024-11-06T22:00:00	7	Dirección del viento	3.22
111919	7	Sololá	702	San José Chacayá	5	Chacayá	8	Agosto	2023-06-08T00:00:00	2024-11-06T22:00:00	1	Precipitación	0
111920	7	Sololá	702	San José Chacayá	5	Chacayá	8	Agosto	2023-06-08T00:00:00	2024-11-06T22:00:00	8	Radiación solar	0
111921	7	Sololá	702	San José Chacayá	5	Chacayá	8	Agosto	2023-06-08T00:00:00	2024-11-06T23:00:00	2	Temperatura media	15.6
111922	7	Sololá	702	San José Chacayá	5	Chacayá	8	Agosto	2023-06-08T00:00:00	2024-11-06T23:00:00	4	Temperatura máxima	16.3
111923	7	Sololá	702	San José Chacayá	5	Chacayá	8	Agosto	2023-06-08T00:00:00	2024-11-06T23:00:00	3	Temperatura mínima	15.6
111924	7	Sololá	702	San José Chacayá	5	Chacayá	8	Agosto	2023-06-08T00:00:00	2024-11-06T23:00:00	5	Humedad	78
111925	7	Sololá	702	San José Chacayá	5	Chacayá	8	Agosto	2023-06-08T00:00:00	2024-11-06T23:00:00	6	Velocidad del viento	3.2
111926	7	Sololá	702	San José Chacayá	5	Chacayá	8	Agosto	2023-06-08T00:00:00	2024-11-06T23:00:00	7	Dirección del viento	3.22
111927	7	Sololá	702	San José Chacayá	5	Chacayá	8	Agosto	2023-06-08T00:00:00	2024-11-06T23:00:00	1	Precipitación	0
111928	7	Sololá	702	San José Chacayá	5	Chacayá	8	Agosto	2023-06-08T00:00:00	2024-11-06T23:00:00	8	Radiación solar	0
111929	7	Sololá	702	San José Chacayá	5	Chacayá	8	Agosto	2023-07-08T00:00:00	2024-11-06T00:00:00	2	Temperatura media	14.6
111930	7	Sololá	702	San José Chacayá	5	Chacayá	8	Agosto	2023-07-08T00:00:00	2024-11-06T00:00:00	4	Temperatura máxima	15.6
111931	7	Sololá	702	San José Chacayá	5	Chacayá	8	Agosto	2023-07-08T00:00:00	2024-11-06T00:00:00	3	Temperatura mínima	14.6
111932	7	Sololá	702	San José Chacayá	5	Chacayá	8	Agosto	2023-07-08T00:00:00	2024-11-06T00:00:00	5	Humedad	81
111933	7	Sololá	702	San José Chacayá	5	Chacayá	8	Agosto	2023-07-08T00:00:00	2024-11-06T00:00:00	6	Velocidad del viento	3.2
111934	7	Sololá	702	San José Chacayá	5	Chacayá	8	Agosto	2023-07-08T00:00:00	2024-11-06T00:00:00	7	Dirección del viento	3.22
111935	7	Sololá	702	San José Chacayá	5	Chacayá	8	Agosto	2023-07-08T00:00:00	2024-11-06T00:00:00	1	Precipitación	0
111936	7	Sololá	702	San José Chacayá	5	Chacayá	8	Agosto	2023-07-08T00:00:00	2024-11-06T00:00:00	8	Radiación solar	0
111937	7	Sololá	702	San José Chacayá	5	Chacayá	8	Agosto	2023-07-08T00:00:00	2024-11-06T01:00:00	2	Temperatura media	12.9
111938	7	Sololá	702	San José Chacayá	5	Chacayá	8	Agosto	2023-07-08T00:00:00	2024-11-06T01:00:00	4	Temperatura máxima	14.4
111939	7	Sololá	702	San José Chacayá	5	Chacayá	8	Agosto	2023-07-08T00:00:00	2024-11-06T01:00:00	3	Temperatura mínima	12.9
111940	7	Sololá	702	San José Chacayá	5	Chacayá	8	Agosto	2023-07-08T00:00:00	2024-11-06T01:00:00	5	Humedad	86
111941	7	Sololá	702	San José Chacayá	5	Chacayá	8	Agosto	2023-07-08T00:00:00	2024-11-06T01:00:00	6	Velocidad del viento	0
111942	7	Sololá	702	San José Chacayá	5	Chacayá	8	Agosto	2023-07-08T00:00:00	2024-11-06T01:00:00	7	Dirección del viento	0
111943	7	Sololá	702	San José Chacayá	5	Chacayá	8	Agosto	2023-07-08T00:00:00	2024-11-06T01:00:00	1	Precipitación	0
111944	7	Sololá	702	San José Chacayá	5	Chacayá	8	Agosto	2023-07-08T00:00:00	2024-11-06T01:00:00	8	Radiación solar	0
111945	7	Sololá	702	San José Chacayá	5	Chacayá	8	Agosto	2023-07-08T00:00:00	2024-11-06T02:00:00	2	Temperatura media	12.2
111946	7	Sololá	702	San José Chacayá	5	Chacayá	8	Agosto	2023-07-08T00:00:00	2024-11-06T02:00:00	4	Temperatura máxima	12.9
111947	7	Sololá	702	San José Chacayá	5	Chacayá	8	Agosto	2023-07-08T00:00:00	2024-11-06T02:00:00	3	Temperatura mínima	12.2
111948	7	Sololá	702	San José Chacayá	5	Chacayá	8	Agosto	2023-07-08T00:00:00	2024-11-06T02:00:00	5	Humedad	87
111949	7	Sololá	702	San José Chacayá	5	Chacayá	8	Agosto	2023-07-08T00:00:00	2024-11-06T02:00:00	6	Velocidad del viento	1.6
111950	7	Sololá	702	San José Chacayá	5	Chacayá	8	Agosto	2023-07-08T00:00:00	2024-11-06T02:00:00	7	Dirección del viento	1.61
111951	7	Sololá	702	San José Chacayá	5	Chacayá	8	Agosto	2023-07-08T00:00:00	2024-11-06T02:00:00	1	Precipitación	0
111952	7	Sololá	702	San José Chacayá	5	Chacayá	8	Agosto	2023-07-08T00:00:00	2024-11-06T02:00:00	8	Radiación solar	0
111953	7	Sololá	702	San José Chacayá	5	Chacayá	8	Agosto	2023-07-08T00:00:00	2024-11-06T03:00:00	2	Temperatura media	12.2
111954	7	Sololá	702	San José Chacayá	5	Chacayá	8	Agosto	2023-07-08T00:00:00	2024-11-06T03:00:00	4	Temperatura máxima	12.2
111955	7	Sololá	702	San José Chacayá	5	Chacayá	8	Agosto	2023-07-08T00:00:00	2024-11-06T03:00:00	3	Temperatura mínima	11.9
111956	7	Sololá	702	San José Chacayá	5	Chacayá	8	Agosto	2023-07-08T00:00:00	2024-11-06T03:00:00	5	Humedad	87
111957	7	Sololá	702	San José Chacayá	5	Chacayá	8	Agosto	2023-07-08T00:00:00	2024-11-06T03:00:00	6	Velocidad del viento	1.6
111958	7	Sololá	702	San José Chacayá	5	Chacayá	8	Agosto	2023-07-08T00:00:00	2024-11-06T03:00:00	7	Dirección del viento	1.61
111959	7	Sololá	702	San José Chacayá	5	Chacayá	8	Agosto	2023-07-08T00:00:00	2024-11-06T03:00:00	1	Precipitación	0
111960	7	Sololá	702	San José Chacayá	5	Chacayá	8	Agosto	2023-07-08T00:00:00	2024-11-06T03:00:00	8	Radiación solar	0
111961	7	Sololá	702	San José Chacayá	5	Chacayá	8	Agosto	2023-07-08T00:00:00	2024-11-06T04:00:00	2	Temperatura media	13
111962	7	Sololá	702	San José Chacayá	5	Chacayá	8	Agosto	2023-07-08T00:00:00	2024-11-06T04:00:00	4	Temperatura máxima	13.2
111963	7	Sololá	702	San José Chacayá	5	Chacayá	8	Agosto	2023-07-08T00:00:00	2024-11-06T04:00:00	3	Temperatura mínima	12.3
111964	7	Sololá	702	San José Chacayá	5	Chacayá	8	Agosto	2023-07-08T00:00:00	2024-11-06T04:00:00	5	Humedad	84
111965	7	Sololá	702	San José Chacayá	5	Chacayá	8	Agosto	2023-07-08T00:00:00	2024-11-06T04:00:00	6	Velocidad del viento	1.6
111966	7	Sololá	702	San José Chacayá	5	Chacayá	8	Agosto	2023-07-08T00:00:00	2024-11-06T04:00:00	7	Dirección del viento	1.61
111967	7	Sololá	702	San José Chacayá	5	Chacayá	8	Agosto	2023-07-08T00:00:00	2024-11-06T04:00:00	1	Precipitación	0
111968	7	Sololá	702	San José Chacayá	5	Chacayá	8	Agosto	2023-07-08T00:00:00	2024-11-06T04:00:00	8	Radiación solar	0
111969	7	Sololá	702	San José Chacayá	5	Chacayá	8	Agosto	2023-07-08T00:00:00	2024-11-06T05:00:00	2	Temperatura media	11.3
111970	7	Sololá	702	San José Chacayá	5	Chacayá	8	Agosto	2023-07-08T00:00:00	2024-11-06T05:00:00	4	Temperatura máxima	13
111971	7	Sololá	702	San José Chacayá	5	Chacayá	8	Agosto	2023-07-08T00:00:00	2024-11-06T05:00:00	3	Temperatura mínima	11.3
111972	7	Sololá	702	San José Chacayá	5	Chacayá	8	Agosto	2023-07-08T00:00:00	2024-11-06T05:00:00	5	Humedad	88
111973	7	Sololá	702	San José Chacayá	5	Chacayá	8	Agosto	2023-07-08T00:00:00	2024-11-06T05:00:00	6	Velocidad del viento	1.6
111974	7	Sololá	702	San José Chacayá	5	Chacayá	8	Agosto	2023-07-08T00:00:00	2024-11-06T05:00:00	7	Dirección del viento	1.61
111975	7	Sololá	702	San José Chacayá	5	Chacayá	8	Agosto	2023-07-08T00:00:00	2024-11-06T05:00:00	1	Precipitación	0
111976	7	Sololá	702	San José Chacayá	5	Chacayá	8	Agosto	2023-07-08T00:00:00	2024-11-06T05:00:00	8	Radiación solar	0
111977	7	Sololá	702	San José Chacayá	5	Chacayá	8	Agosto	2023-07-08T00:00:00	2024-11-06T06:00:00	2	Temperatura media	11.2
111978	7	Sololá	702	San José Chacayá	5	Chacayá	8	Agosto	2023-07-08T00:00:00	2024-11-06T06:00:00	4	Temperatura máxima	11.5
111979	7	Sololá	702	San José Chacayá	5	Chacayá	8	Agosto	2023-07-08T00:00:00	2024-11-06T06:00:00	3	Temperatura mínima	10.9
111980	7	Sololá	702	San José Chacayá	5	Chacayá	8	Agosto	2023-07-08T00:00:00	2024-11-06T06:00:00	5	Humedad	88
111981	7	Sololá	702	San José Chacayá	5	Chacayá	8	Agosto	2023-07-08T00:00:00	2024-11-06T06:00:00	6	Velocidad del viento	1.6
111982	7	Sololá	702	San José Chacayá	5	Chacayá	8	Agosto	2023-07-08T00:00:00	2024-11-06T06:00:00	7	Dirección del viento	1.61
111983	7	Sololá	702	San José Chacayá	5	Chacayá	8	Agosto	2023-07-08T00:00:00	2024-11-06T06:00:00	1	Precipitación	0
111984	7	Sololá	702	San José Chacayá	5	Chacayá	8	Agosto	2023-07-08T00:00:00	2024-11-06T06:00:00	8	Radiación solar	1
111985	7	Sololá	702	San José Chacayá	5	Chacayá	8	Agosto	2023-07-08T00:00:00	2024-11-06T07:00:00	2	Temperatura media	15.2
111986	7	Sololá	702	San José Chacayá	5	Chacayá	8	Agosto	2023-07-08T00:00:00	2024-11-06T07:00:00	4	Temperatura máxima	15.2
111987	7	Sololá	702	San José Chacayá	5	Chacayá	8	Agosto	2023-07-08T00:00:00	2024-11-06T07:00:00	3	Temperatura mínima	11.1
111988	7	Sololá	702	San José Chacayá	5	Chacayá	8	Agosto	2023-07-08T00:00:00	2024-11-06T07:00:00	5	Humedad	80
111989	7	Sololá	702	San José Chacayá	5	Chacayá	8	Agosto	2023-07-08T00:00:00	2024-11-06T07:00:00	6	Velocidad del viento	3.2
111990	7	Sololá	702	San José Chacayá	5	Chacayá	8	Agosto	2023-07-08T00:00:00	2024-11-06T07:00:00	7	Dirección del viento	3.22
111991	7	Sololá	702	San José Chacayá	5	Chacayá	8	Agosto	2023-07-08T00:00:00	2024-11-06T07:00:00	1	Precipitación	0
111992	7	Sololá	702	San José Chacayá	5	Chacayá	8	Agosto	2023-07-08T00:00:00	2024-11-06T07:00:00	8	Radiación solar	33
111993	7	Sololá	702	San José Chacayá	5	Chacayá	8	Agosto	2023-07-08T00:00:00	2024-11-06T08:00:00	2	Temperatura media	17.3
111994	7	Sololá	702	San José Chacayá	5	Chacayá	8	Agosto	2023-07-08T00:00:00	2024-11-06T08:00:00	4	Temperatura máxima	17.3
111995	7	Sololá	702	San José Chacayá	5	Chacayá	8	Agosto	2023-07-08T00:00:00	2024-11-06T08:00:00	3	Temperatura mínima	15.3
111996	7	Sololá	702	San José Chacayá	5	Chacayá	8	Agosto	2023-07-08T00:00:00	2024-11-06T08:00:00	5	Humedad	72
111997	7	Sololá	702	San José Chacayá	5	Chacayá	8	Agosto	2023-07-08T00:00:00	2024-11-06T08:00:00	6	Velocidad del viento	4.8
111998	7	Sololá	702	San José Chacayá	5	Chacayá	8	Agosto	2023-07-08T00:00:00	2024-11-06T08:00:00	7	Dirección del viento	4.83
111999	7	Sololá	702	San José Chacayá	5	Chacayá	8	Agosto	2023-07-08T00:00:00	2024-11-06T08:00:00	1	Precipitación	0
112000	7	Sololá	702	San José Chacayá	5	Chacayá	8	Agosto	2023-07-08T00:00:00	2024-11-06T08:00:00	8	Radiación solar	128
112001	7	Sololá	702	San José Chacayá	5	Chacayá	8	Agosto	2023-07-08T00:00:00	2024-11-06T09:00:00	2	Temperatura media	19.6
112002	7	Sololá	702	San José Chacayá	5	Chacayá	8	Agosto	2023-07-08T00:00:00	2024-11-06T09:00:00	4	Temperatura máxima	19.6
112003	7	Sololá	702	San José Chacayá	5	Chacayá	8	Agosto	2023-07-08T00:00:00	2024-11-06T09:00:00	3	Temperatura mínima	17.3
112004	7	Sololá	702	San José Chacayá	5	Chacayá	8	Agosto	2023-07-08T00:00:00	2024-11-06T09:00:00	5	Humedad	63
112005	7	Sololá	702	San José Chacayá	5	Chacayá	8	Agosto	2023-07-08T00:00:00	2024-11-06T09:00:00	6	Velocidad del viento	4.8
112006	7	Sololá	702	San José Chacayá	5	Chacayá	8	Agosto	2023-07-08T00:00:00	2024-11-06T09:00:00	7	Dirección del viento	4.83
112007	7	Sololá	702	San José Chacayá	5	Chacayá	8	Agosto	2023-07-08T00:00:00	2024-11-06T09:00:00	1	Precipitación	0
112008	7	Sololá	702	San José Chacayá	5	Chacayá	8	Agosto	2023-07-08T00:00:00	2024-11-06T09:00:00	8	Radiación solar	351
112009	7	Sololá	702	San José Chacayá	5	Chacayá	8	Agosto	2023-07-08T00:00:00	2024-11-06T10:00:00	2	Temperatura media	21.2
112010	7	Sololá	702	San José Chacayá	5	Chacayá	8	Agosto	2023-07-08T00:00:00	2024-11-06T10:00:00	4	Temperatura máxima	21.5
112011	7	Sololá	702	San José Chacayá	5	Chacayá	8	Agosto	2023-07-08T00:00:00	2024-11-06T10:00:00	3	Temperatura mínima	19.6
112012	7	Sololá	702	San José Chacayá	5	Chacayá	8	Agosto	2023-07-08T00:00:00	2024-11-06T10:00:00	5	Humedad	60
112013	7	Sololá	702	San José Chacayá	5	Chacayá	8	Agosto	2023-07-08T00:00:00	2024-11-06T10:00:00	6	Velocidad del viento	4.8
112014	7	Sololá	702	San José Chacayá	5	Chacayá	8	Agosto	2023-07-08T00:00:00	2024-11-06T10:00:00	7	Dirección del viento	4.83
112015	7	Sololá	702	San José Chacayá	5	Chacayá	8	Agosto	2023-07-08T00:00:00	2024-11-06T10:00:00	1	Precipitación	0
112016	7	Sololá	702	San José Chacayá	5	Chacayá	8	Agosto	2023-07-08T00:00:00	2024-11-06T10:00:00	8	Radiación solar	440
112017	7	Sololá	702	San José Chacayá	5	Chacayá	8	Agosto	2023-07-08T00:00:00	2024-11-06T11:00:00	2	Temperatura media	22.1
112018	7	Sololá	702	San José Chacayá	5	Chacayá	8	Agosto	2023-07-08T00:00:00	2024-11-06T11:00:00	4	Temperatura máxima	22.1
112019	7	Sololá	702	San José Chacayá	5	Chacayá	8	Agosto	2023-07-08T00:00:00	2024-11-06T11:00:00	3	Temperatura mínima	21.1
112020	7	Sololá	702	San José Chacayá	5	Chacayá	8	Agosto	2023-07-08T00:00:00	2024-11-06T11:00:00	5	Humedad	63
112021	7	Sololá	702	San José Chacayá	5	Chacayá	8	Agosto	2023-07-08T00:00:00	2024-11-06T11:00:00	6	Velocidad del viento	4.8
112022	7	Sololá	702	San José Chacayá	5	Chacayá	8	Agosto	2023-07-08T00:00:00	2024-11-06T11:00:00	7	Dirección del viento	4.83
112023	7	Sololá	702	San José Chacayá	5	Chacayá	8	Agosto	2023-07-08T00:00:00	2024-11-06T11:00:00	1	Precipitación	0
112024	7	Sololá	702	San José Chacayá	5	Chacayá	8	Agosto	2023-07-08T00:00:00	2024-11-06T11:00:00	8	Radiación solar	650
112025	7	Sololá	702	San José Chacayá	5	Chacayá	8	Agosto	2023-07-08T00:00:00	2024-11-06T12:00:00	2	Temperatura media	22.7
112026	7	Sololá	702	San José Chacayá	5	Chacayá	8	Agosto	2023-07-08T00:00:00	2024-11-06T12:00:00	4	Temperatura máxima	23.7
112027	7	Sololá	702	San José Chacayá	5	Chacayá	8	Agosto	2023-07-08T00:00:00	2024-11-06T12:00:00	3	Temperatura mínima	22.1
112028	7	Sololá	702	San José Chacayá	5	Chacayá	8	Agosto	2023-07-08T00:00:00	2024-11-06T12:00:00	5	Humedad	58
112029	7	Sololá	702	San José Chacayá	5	Chacayá	8	Agosto	2023-07-08T00:00:00	2024-11-06T12:00:00	6	Velocidad del viento	4.8
112030	7	Sololá	702	San José Chacayá	5	Chacayá	8	Agosto	2023-07-08T00:00:00	2024-11-06T12:00:00	7	Dirección del viento	4.83
112031	7	Sololá	702	San José Chacayá	5	Chacayá	8	Agosto	2023-07-08T00:00:00	2024-11-06T12:00:00	1	Precipitación	0
112032	7	Sololá	702	San José Chacayá	5	Chacayá	8	Agosto	2023-07-08T00:00:00	2024-11-06T12:00:00	8	Radiación solar	557
112033	7	Sololá	702	San José Chacayá	5	Chacayá	8	Agosto	2023-07-08T00:00:00	2024-11-06T13:00:00	2	Temperatura media	24.6
112034	7	Sololá	702	San José Chacayá	5	Chacayá	8	Agosto	2023-07-08T00:00:00	2024-11-06T13:00:00	4	Temperatura máxima	24.6
112035	7	Sololá	702	San José Chacayá	5	Chacayá	8	Agosto	2023-07-08T00:00:00	2024-11-06T13:00:00	3	Temperatura mínima	22.6
112036	7	Sololá	702	San José Chacayá	5	Chacayá	8	Agosto	2023-07-08T00:00:00	2024-11-06T13:00:00	5	Humedad	56
112037	7	Sololá	702	San José Chacayá	5	Chacayá	8	Agosto	2023-07-08T00:00:00	2024-11-06T13:00:00	6	Velocidad del viento	4.8
112038	7	Sololá	702	San José Chacayá	5	Chacayá	8	Agosto	2023-07-08T00:00:00	2024-11-06T13:00:00	7	Dirección del viento	4.83
112039	7	Sololá	702	San José Chacayá	5	Chacayá	8	Agosto	2023-07-08T00:00:00	2024-11-06T13:00:00	1	Precipitación	0
112040	7	Sololá	702	San José Chacayá	5	Chacayá	8	Agosto	2023-07-08T00:00:00	2024-11-06T13:00:00	8	Radiación solar	501
112041	7	Sololá	702	San José Chacayá	5	Chacayá	8	Agosto	2023-07-08T00:00:00	2024-11-06T14:00:00	2	Temperatura media	21.6
112042	7	Sololá	702	San José Chacayá	5	Chacayá	8	Agosto	2023-07-08T00:00:00	2024-11-06T14:00:00	4	Temperatura máxima	24.7
112043	7	Sololá	702	San José Chacayá	5	Chacayá	8	Agosto	2023-07-08T00:00:00	2024-11-06T14:00:00	3	Temperatura mínima	21.6
112044	7	Sololá	702	San José Chacayá	5	Chacayá	8	Agosto	2023-07-08T00:00:00	2024-11-06T14:00:00	5	Humedad	62
112045	7	Sololá	702	San José Chacayá	5	Chacayá	8	Agosto	2023-07-08T00:00:00	2024-11-06T14:00:00	6	Velocidad del viento	4.8
112046	7	Sololá	702	San José Chacayá	5	Chacayá	8	Agosto	2023-07-08T00:00:00	2024-11-06T14:00:00	7	Dirección del viento	4.83
112047	7	Sololá	702	San José Chacayá	5	Chacayá	8	Agosto	2023-07-08T00:00:00	2024-11-06T14:00:00	1	Precipitación	0
112048	7	Sololá	702	San José Chacayá	5	Chacayá	8	Agosto	2023-07-08T00:00:00	2024-11-06T14:00:00	8	Radiación solar	199
112049	7	Sololá	702	San José Chacayá	5	Chacayá	8	Agosto	2023-07-08T00:00:00	2024-11-06T15:00:00	2	Temperatura media	24.3
112050	7	Sololá	702	San José Chacayá	5	Chacayá	8	Agosto	2023-07-08T00:00:00	2024-11-06T15:00:00	4	Temperatura máxima	24.3
112051	7	Sololá	702	San José Chacayá	5	Chacayá	8	Agosto	2023-07-08T00:00:00	2024-11-06T15:00:00	3	Temperatura mínima	21.3
112052	7	Sololá	702	San José Chacayá	5	Chacayá	8	Agosto	2023-07-08T00:00:00	2024-11-06T15:00:00	5	Humedad	54
112053	7	Sololá	702	San José Chacayá	5	Chacayá	8	Agosto	2023-07-08T00:00:00	2024-11-06T15:00:00	6	Velocidad del viento	3.2
112054	7	Sololá	702	San José Chacayá	5	Chacayá	8	Agosto	2023-07-08T00:00:00	2024-11-06T15:00:00	7	Dirección del viento	3.22
112055	7	Sololá	702	San José Chacayá	5	Chacayá	8	Agosto	2023-07-08T00:00:00	2024-11-06T15:00:00	1	Precipitación	0
112056	7	Sololá	702	San José Chacayá	5	Chacayá	8	Agosto	2023-07-08T00:00:00	2024-11-06T15:00:00	8	Radiación solar	146
112057	7	Sololá	702	San José Chacayá	5	Chacayá	8	Agosto	2023-07-08T00:00:00	2024-11-06T16:00:00	2	Temperatura media	23
112058	7	Sololá	702	San José Chacayá	5	Chacayá	8	Agosto	2023-07-08T00:00:00	2024-11-06T16:00:00	4	Temperatura máxima	24.3
112059	7	Sololá	702	San José Chacayá	5	Chacayá	8	Agosto	2023-07-08T00:00:00	2024-11-06T16:00:00	3	Temperatura mínima	23
112060	7	Sololá	702	San José Chacayá	5	Chacayá	8	Agosto	2023-07-08T00:00:00	2024-11-06T16:00:00	5	Humedad	57
112061	7	Sololá	702	San José Chacayá	5	Chacayá	8	Agosto	2023-07-08T00:00:00	2024-11-06T16:00:00	6	Velocidad del viento	4.8
112062	7	Sololá	702	San José Chacayá	5	Chacayá	8	Agosto	2023-07-08T00:00:00	2024-11-06T16:00:00	7	Dirección del viento	4.83
112063	7	Sololá	702	San José Chacayá	5	Chacayá	8	Agosto	2023-07-08T00:00:00	2024-11-06T16:00:00	1	Precipitación	0
112064	7	Sololá	702	San José Chacayá	5	Chacayá	8	Agosto	2023-07-08T00:00:00	2024-11-06T16:00:00	8	Radiación solar	272
112065	7	Sololá	702	San José Chacayá	5	Chacayá	8	Agosto	2023-07-08T00:00:00	2024-11-06T17:00:00	2	Temperatura media	20.9
112066	7	Sololá	702	San José Chacayá	5	Chacayá	8	Agosto	2023-07-08T00:00:00	2024-11-06T17:00:00	4	Temperatura máxima	23
112067	7	Sololá	702	San José Chacayá	5	Chacayá	8	Agosto	2023-07-08T00:00:00	2024-11-06T17:00:00	3	Temperatura mínima	20.8
112068	7	Sololá	702	San José Chacayá	5	Chacayá	8	Agosto	2023-07-08T00:00:00	2024-11-06T17:00:00	5	Humedad	69
112069	7	Sololá	702	San José Chacayá	5	Chacayá	8	Agosto	2023-07-08T00:00:00	2024-11-06T17:00:00	6	Velocidad del viento	4.8
112070	7	Sololá	702	San José Chacayá	5	Chacayá	8	Agosto	2023-07-08T00:00:00	2024-11-06T17:00:00	7	Dirección del viento	4.83
112071	7	Sololá	702	San José Chacayá	5	Chacayá	8	Agosto	2023-07-08T00:00:00	2024-11-06T17:00:00	1	Precipitación	0
112072	7	Sololá	702	San José Chacayá	5	Chacayá	8	Agosto	2023-07-08T00:00:00	2024-11-06T17:00:00	8	Radiación solar	61
112073	7	Sololá	702	San José Chacayá	5	Chacayá	8	Agosto	2023-07-08T00:00:00	2024-11-06T18:00:00	2	Temperatura media	20
112074	7	Sololá	702	San José Chacayá	5	Chacayá	8	Agosto	2023-07-08T00:00:00	2024-11-06T18:00:00	4	Temperatura máxima	20.8
112075	7	Sololá	702	San José Chacayá	5	Chacayá	8	Agosto	2023-07-08T00:00:00	2024-11-06T18:00:00	3	Temperatura mínima	20
112076	7	Sololá	702	San José Chacayá	5	Chacayá	8	Agosto	2023-07-08T00:00:00	2024-11-06T18:00:00	5	Humedad	70
112077	7	Sololá	702	San José Chacayá	5	Chacayá	8	Agosto	2023-07-08T00:00:00	2024-11-06T18:00:00	6	Velocidad del viento	1.6
112078	7	Sololá	702	San José Chacayá	5	Chacayá	8	Agosto	2023-07-08T00:00:00	2024-11-06T18:00:00	7	Dirección del viento	1.61
112079	7	Sololá	702	San José Chacayá	5	Chacayá	8	Agosto	2023-07-08T00:00:00	2024-11-06T18:00:00	1	Precipitación	0
112080	7	Sololá	702	San José Chacayá	5	Chacayá	8	Agosto	2023-07-08T00:00:00	2024-11-06T18:00:00	8	Radiación solar	20
112081	7	Sololá	702	San José Chacayá	5	Chacayá	8	Agosto	2023-07-08T00:00:00	2024-11-06T19:00:00	2	Temperatura media	17.5
112082	7	Sololá	702	San José Chacayá	5	Chacayá	8	Agosto	2023-07-08T00:00:00	2024-11-06T19:00:00	4	Temperatura máxima	20.1
112083	7	Sololá	702	San José Chacayá	5	Chacayá	8	Agosto	2023-07-08T00:00:00	2024-11-06T19:00:00	3	Temperatura mínima	17.5
112084	7	Sololá	702	San José Chacayá	5	Chacayá	8	Agosto	2023-07-08T00:00:00	2024-11-06T19:00:00	5	Humedad	78
112085	7	Sololá	702	San José Chacayá	5	Chacayá	8	Agosto	2023-07-08T00:00:00	2024-11-06T19:00:00	6	Velocidad del viento	0
112086	7	Sololá	702	San José Chacayá	5	Chacayá	8	Agosto	2023-07-08T00:00:00	2024-11-06T19:00:00	7	Dirección del viento	0
112087	7	Sololá	702	San José Chacayá	5	Chacayá	8	Agosto	2023-07-08T00:00:00	2024-11-06T19:00:00	1	Precipitación	0
112088	7	Sololá	702	San José Chacayá	5	Chacayá	8	Agosto	2023-07-08T00:00:00	2024-11-06T19:00:00	8	Radiación solar	0
112089	7	Sololá	702	San José Chacayá	5	Chacayá	8	Agosto	2023-07-08T00:00:00	2024-11-06T20:00:00	2	Temperatura media	16.6
112090	7	Sololá	702	San José Chacayá	5	Chacayá	8	Agosto	2023-07-08T00:00:00	2024-11-06T20:00:00	4	Temperatura máxima	17.5
112091	7	Sololá	702	San José Chacayá	5	Chacayá	8	Agosto	2023-07-08T00:00:00	2024-11-06T20:00:00	3	Temperatura mínima	16.6
112092	7	Sololá	702	San José Chacayá	5	Chacayá	8	Agosto	2023-07-08T00:00:00	2024-11-06T20:00:00	5	Humedad	82
112093	7	Sololá	702	San José Chacayá	5	Chacayá	8	Agosto	2023-07-08T00:00:00	2024-11-06T20:00:00	6	Velocidad del viento	3.2
112094	7	Sololá	702	San José Chacayá	5	Chacayá	8	Agosto	2023-07-08T00:00:00	2024-11-06T20:00:00	7	Dirección del viento	3.22
112095	7	Sololá	702	San José Chacayá	5	Chacayá	8	Agosto	2023-07-08T00:00:00	2024-11-06T20:00:00	1	Precipitación	0
112096	7	Sololá	702	San José Chacayá	5	Chacayá	8	Agosto	2023-07-08T00:00:00	2024-11-06T20:00:00	8	Radiación solar	0
112097	7	Sololá	702	San José Chacayá	5	Chacayá	8	Agosto	2023-07-08T00:00:00	2024-11-06T21:00:00	2	Temperatura media	16.6
112098	7	Sololá	702	San José Chacayá	5	Chacayá	8	Agosto	2023-07-08T00:00:00	2024-11-06T21:00:00	4	Temperatura máxima	16.7
112099	7	Sololá	702	San José Chacayá	5	Chacayá	8	Agosto	2023-07-08T00:00:00	2024-11-06T21:00:00	3	Temperatura mínima	16.5
112100	7	Sololá	702	San José Chacayá	5	Chacayá	8	Agosto	2023-07-08T00:00:00	2024-11-06T21:00:00	5	Humedad	82
112101	7	Sololá	702	San José Chacayá	5	Chacayá	8	Agosto	2023-07-08T00:00:00	2024-11-06T21:00:00	6	Velocidad del viento	3.2
112102	7	Sololá	702	San José Chacayá	5	Chacayá	8	Agosto	2023-07-08T00:00:00	2024-11-06T21:00:00	7	Dirección del viento	3.22
112103	7	Sololá	702	San José Chacayá	5	Chacayá	8	Agosto	2023-07-08T00:00:00	2024-11-06T21:00:00	1	Precipitación	0
112104	7	Sololá	702	San José Chacayá	5	Chacayá	8	Agosto	2023-07-08T00:00:00	2024-11-06T21:00:00	8	Radiación solar	0
112105	7	Sololá	702	San José Chacayá	5	Chacayá	8	Agosto	2023-07-08T00:00:00	2024-11-06T22:00:00	2	Temperatura media	16
112106	7	Sololá	702	San José Chacayá	5	Chacayá	8	Agosto	2023-07-08T00:00:00	2024-11-06T22:00:00	4	Temperatura máxima	16.7
112107	7	Sololá	702	San José Chacayá	5	Chacayá	8	Agosto	2023-07-08T00:00:00	2024-11-06T22:00:00	3	Temperatura mínima	16
112108	7	Sololá	702	San José Chacayá	5	Chacayá	8	Agosto	2023-07-08T00:00:00	2024-11-06T22:00:00	5	Humedad	82
112109	7	Sololá	702	San José Chacayá	5	Chacayá	8	Agosto	2023-07-08T00:00:00	2024-11-06T22:00:00	6	Velocidad del viento	1.6
112110	7	Sololá	702	San José Chacayá	5	Chacayá	8	Agosto	2023-07-08T00:00:00	2024-11-06T22:00:00	7	Dirección del viento	1.61
112111	7	Sololá	702	San José Chacayá	5	Chacayá	8	Agosto	2023-07-08T00:00:00	2024-11-06T22:00:00	1	Precipitación	0
112112	7	Sololá	702	San José Chacayá	5	Chacayá	8	Agosto	2023-07-08T00:00:00	2024-11-06T22:00:00	8	Radiación solar	0
112113	7	Sololá	702	San José Chacayá	5	Chacayá	8	Agosto	2023-07-08T00:00:00	2024-11-06T23:00:00	2	Temperatura media	15.1
112114	7	Sololá	702	San José Chacayá	5	Chacayá	8	Agosto	2023-07-08T00:00:00	2024-11-06T23:00:00	4	Temperatura máxima	16.3
112115	7	Sololá	702	San José Chacayá	5	Chacayá	8	Agosto	2023-07-08T00:00:00	2024-11-06T23:00:00	3	Temperatura mínima	15.1
112116	7	Sololá	702	San José Chacayá	5	Chacayá	8	Agosto	2023-07-08T00:00:00	2024-11-06T23:00:00	5	Humedad	84
112117	7	Sololá	702	San José Chacayá	5	Chacayá	8	Agosto	2023-07-08T00:00:00	2024-11-06T23:00:00	6	Velocidad del viento	1.6
112118	7	Sololá	702	San José Chacayá	5	Chacayá	8	Agosto	2023-07-08T00:00:00	2024-11-06T23:00:00	7	Dirección del viento	1.61
112119	7	Sololá	702	San José Chacayá	5	Chacayá	8	Agosto	2023-07-08T00:00:00	2024-11-06T23:00:00	1	Precipitación	0
112120	7	Sololá	702	San José Chacayá	5	Chacayá	8	Agosto	2023-07-08T00:00:00	2024-11-06T23:00:00	8	Radiación solar	0
112121	7	Sololá	702	San José Chacayá	5	Chacayá	8	Agosto	2023-08-08T00:00:00	2024-11-06T00:00:00	2	Temperatura media	14.8
112122	7	Sololá	702	San José Chacayá	5	Chacayá	8	Agosto	2023-08-08T00:00:00	2024-11-06T00:00:00	4	Temperatura máxima	15.3
112123	7	Sololá	702	San José Chacayá	5	Chacayá	8	Agosto	2023-08-08T00:00:00	2024-11-06T00:00:00	3	Temperatura mínima	14.6
112124	7	Sololá	702	San José Chacayá	5	Chacayá	8	Agosto	2023-08-08T00:00:00	2024-11-06T00:00:00	5	Humedad	85
112125	7	Sololá	702	San José Chacayá	5	Chacayá	8	Agosto	2023-08-08T00:00:00	2024-11-06T00:00:00	6	Velocidad del viento	1.6
112126	7	Sololá	702	San José Chacayá	5	Chacayá	8	Agosto	2023-08-08T00:00:00	2024-11-06T00:00:00	7	Dirección del viento	1.61
112127	7	Sololá	702	San José Chacayá	5	Chacayá	8	Agosto	2023-08-08T00:00:00	2024-11-06T00:00:00	1	Precipitación	0
112128	7	Sololá	702	San José Chacayá	5	Chacayá	8	Agosto	2023-08-08T00:00:00	2024-11-06T00:00:00	8	Radiación solar	0
112129	7	Sololá	702	San José Chacayá	5	Chacayá	8	Agosto	2023-08-08T00:00:00	2024-11-06T01:00:00	2	Temperatura media	14.3
112130	7	Sololá	702	San José Chacayá	5	Chacayá	8	Agosto	2023-08-08T00:00:00	2024-11-06T01:00:00	4	Temperatura máxima	14.9
112131	7	Sololá	702	San José Chacayá	5	Chacayá	8	Agosto	2023-08-08T00:00:00	2024-11-06T01:00:00	3	Temperatura mínima	14.3
112132	7	Sololá	702	San José Chacayá	5	Chacayá	8	Agosto	2023-08-08T00:00:00	2024-11-06T01:00:00	5	Humedad	86
112133	7	Sololá	702	San José Chacayá	5	Chacayá	8	Agosto	2023-08-08T00:00:00	2024-11-06T01:00:00	6	Velocidad del viento	1.6
112134	7	Sololá	702	San José Chacayá	5	Chacayá	8	Agosto	2023-08-08T00:00:00	2024-11-06T01:00:00	7	Dirección del viento	1.61
112135	7	Sololá	702	San José Chacayá	5	Chacayá	8	Agosto	2023-08-08T00:00:00	2024-11-06T01:00:00	1	Precipitación	0
112136	7	Sololá	702	San José Chacayá	5	Chacayá	8	Agosto	2023-08-08T00:00:00	2024-11-06T01:00:00	8	Radiación solar	0
112137	7	Sololá	702	San José Chacayá	5	Chacayá	8	Agosto	2023-08-08T00:00:00	2024-11-06T02:00:00	2	Temperatura media	14.9
112138	7	Sololá	702	San José Chacayá	5	Chacayá	8	Agosto	2023-08-08T00:00:00	2024-11-06T02:00:00	4	Temperatura máxima	14.9
112139	7	Sololá	702	San José Chacayá	5	Chacayá	8	Agosto	2023-08-08T00:00:00	2024-11-06T02:00:00	3	Temperatura mínima	13.5
112140	7	Sololá	702	San José Chacayá	5	Chacayá	8	Agosto	2023-08-08T00:00:00	2024-11-06T02:00:00	5	Humedad	85
112141	7	Sololá	702	San José Chacayá	5	Chacayá	8	Agosto	2023-08-08T00:00:00	2024-11-06T02:00:00	6	Velocidad del viento	1.6
112142	7	Sololá	702	San José Chacayá	5	Chacayá	8	Agosto	2023-08-08T00:00:00	2024-11-06T02:00:00	7	Dirección del viento	1.61
112143	7	Sololá	702	San José Chacayá	5	Chacayá	8	Agosto	2023-08-08T00:00:00	2024-11-06T02:00:00	1	Precipitación	0
112144	7	Sololá	702	San José Chacayá	5	Chacayá	8	Agosto	2023-08-08T00:00:00	2024-11-06T02:00:00	8	Radiación solar	0
112145	7	Sololá	702	San José Chacayá	5	Chacayá	8	Agosto	2023-08-08T00:00:00	2024-11-06T03:00:00	2	Temperatura media	13.7
112146	7	Sololá	702	San José Chacayá	5	Chacayá	8	Agosto	2023-08-08T00:00:00	2024-11-06T03:00:00	4	Temperatura máxima	15.2
112147	7	Sololá	702	San José Chacayá	5	Chacayá	8	Agosto	2023-08-08T00:00:00	2024-11-06T03:00:00	3	Temperatura mínima	13.7
112148	7	Sololá	702	San José Chacayá	5	Chacayá	8	Agosto	2023-08-08T00:00:00	2024-11-06T03:00:00	5	Humedad	86
112149	7	Sololá	702	San José Chacayá	5	Chacayá	8	Agosto	2023-08-08T00:00:00	2024-11-06T03:00:00	6	Velocidad del viento	0
112150	7	Sololá	702	San José Chacayá	5	Chacayá	8	Agosto	2023-08-08T00:00:00	2024-11-06T03:00:00	7	Dirección del viento	0
112151	7	Sololá	702	San José Chacayá	5	Chacayá	8	Agosto	2023-08-08T00:00:00	2024-11-06T03:00:00	1	Precipitación	0
112152	7	Sololá	702	San José Chacayá	5	Chacayá	8	Agosto	2023-08-08T00:00:00	2024-11-06T03:00:00	8	Radiación solar	0
112153	7	Sololá	702	San José Chacayá	5	Chacayá	8	Agosto	2023-08-08T00:00:00	2024-11-06T04:00:00	2	Temperatura media	14.2
112154	7	Sololá	702	San José Chacayá	5	Chacayá	8	Agosto	2023-08-08T00:00:00	2024-11-06T04:00:00	4	Temperatura máxima	14.9
112155	7	Sololá	702	San José Chacayá	5	Chacayá	8	Agosto	2023-08-08T00:00:00	2024-11-06T04:00:00	3	Temperatura mínima	13.6
112156	7	Sololá	702	San José Chacayá	5	Chacayá	8	Agosto	2023-08-08T00:00:00	2024-11-06T04:00:00	5	Humedad	83
112157	7	Sololá	702	San José Chacayá	5	Chacayá	8	Agosto	2023-08-08T00:00:00	2024-11-06T04:00:00	6	Velocidad del viento	1.6
112158	7	Sololá	702	San José Chacayá	5	Chacayá	8	Agosto	2023-08-08T00:00:00	2024-11-06T04:00:00	7	Dirección del viento	1.61
112159	7	Sololá	702	San José Chacayá	5	Chacayá	8	Agosto	2023-08-08T00:00:00	2024-11-06T04:00:00	1	Precipitación	0
112160	7	Sololá	702	San José Chacayá	5	Chacayá	8	Agosto	2023-08-08T00:00:00	2024-11-06T04:00:00	8	Radiación solar	0
112161	7	Sololá	702	San José Chacayá	5	Chacayá	8	Agosto	2023-08-08T00:00:00	2024-11-06T05:00:00	2	Temperatura media	12.9
112162	7	Sololá	702	San José Chacayá	5	Chacayá	8	Agosto	2023-08-08T00:00:00	2024-11-06T05:00:00	4	Temperatura máxima	14.2
112163	7	Sololá	702	San José Chacayá	5	Chacayá	8	Agosto	2023-08-08T00:00:00	2024-11-06T05:00:00	3	Temperatura mínima	12.9
112164	7	Sololá	702	San José Chacayá	5	Chacayá	8	Agosto	2023-08-08T00:00:00	2024-11-06T05:00:00	5	Humedad	87
112165	7	Sololá	702	San José Chacayá	5	Chacayá	8	Agosto	2023-08-08T00:00:00	2024-11-06T05:00:00	6	Velocidad del viento	1.6
112166	7	Sololá	702	San José Chacayá	5	Chacayá	8	Agosto	2023-08-08T00:00:00	2024-11-06T05:00:00	7	Dirección del viento	1.61
112167	7	Sololá	702	San José Chacayá	5	Chacayá	8	Agosto	2023-08-08T00:00:00	2024-11-06T05:00:00	1	Precipitación	0
112168	7	Sololá	702	San José Chacayá	5	Chacayá	8	Agosto	2023-08-08T00:00:00	2024-11-06T05:00:00	8	Radiación solar	0
112169	7	Sololá	702	San José Chacayá	5	Chacayá	8	Agosto	2023-08-08T00:00:00	2024-11-06T06:00:00	2	Temperatura media	13.6
112170	7	Sololá	702	San José Chacayá	5	Chacayá	8	Agosto	2023-08-08T00:00:00	2024-11-06T06:00:00	4	Temperatura máxima	13.6
112171	7	Sololá	702	San José Chacayá	5	Chacayá	8	Agosto	2023-08-08T00:00:00	2024-11-06T06:00:00	3	Temperatura mínima	12.6
112172	7	Sololá	702	San José Chacayá	5	Chacayá	8	Agosto	2023-08-08T00:00:00	2024-11-06T06:00:00	5	Humedad	85
112173	7	Sololá	702	San José Chacayá	5	Chacayá	8	Agosto	2023-08-08T00:00:00	2024-11-06T06:00:00	6	Velocidad del viento	1.6
112174	7	Sololá	702	San José Chacayá	5	Chacayá	8	Agosto	2023-08-08T00:00:00	2024-11-06T06:00:00	7	Dirección del viento	1.61
112175	7	Sololá	702	San José Chacayá	5	Chacayá	8	Agosto	2023-08-08T00:00:00	2024-11-06T06:00:00	1	Precipitación	0
112176	7	Sololá	702	San José Chacayá	5	Chacayá	8	Agosto	2023-08-08T00:00:00	2024-11-06T06:00:00	8	Radiación solar	2
112177	7	Sololá	702	San José Chacayá	5	Chacayá	8	Agosto	2023-08-08T00:00:00	2024-11-06T07:00:00	2	Temperatura media	16.6
112178	7	Sololá	702	San José Chacayá	5	Chacayá	8	Agosto	2023-08-08T00:00:00	2024-11-06T07:00:00	4	Temperatura máxima	16.6
112179	7	Sololá	702	San José Chacayá	5	Chacayá	8	Agosto	2023-08-08T00:00:00	2024-11-06T07:00:00	3	Temperatura mínima	13.6
112180	7	Sololá	702	San José Chacayá	5	Chacayá	8	Agosto	2023-08-08T00:00:00	2024-11-06T07:00:00	5	Humedad	78
112181	7	Sololá	702	San José Chacayá	5	Chacayá	8	Agosto	2023-08-08T00:00:00	2024-11-06T07:00:00	6	Velocidad del viento	4.8
112182	7	Sololá	702	San José Chacayá	5	Chacayá	8	Agosto	2023-08-08T00:00:00	2024-11-06T07:00:00	7	Dirección del viento	4.83
112183	7	Sololá	702	San José Chacayá	5	Chacayá	8	Agosto	2023-08-08T00:00:00	2024-11-06T07:00:00	1	Precipitación	0
112184	7	Sololá	702	San José Chacayá	5	Chacayá	8	Agosto	2023-08-08T00:00:00	2024-11-06T07:00:00	8	Radiación solar	65
112185	7	Sololá	702	San José Chacayá	5	Chacayá	8	Agosto	2023-08-08T00:00:00	2024-11-06T08:00:00	2	Temperatura media	17.9
112186	7	Sololá	702	San José Chacayá	5	Chacayá	8	Agosto	2023-08-08T00:00:00	2024-11-06T08:00:00	4	Temperatura máxima	17.9
112187	7	Sololá	702	San José Chacayá	5	Chacayá	8	Agosto	2023-08-08T00:00:00	2024-11-06T08:00:00	3	Temperatura mínima	16.6
112188	7	Sololá	702	San José Chacayá	5	Chacayá	8	Agosto	2023-08-08T00:00:00	2024-11-06T08:00:00	5	Humedad	75
112189	7	Sololá	702	San José Chacayá	5	Chacayá	8	Agosto	2023-08-08T00:00:00	2024-11-06T08:00:00	6	Velocidad del viento	4.8
112190	7	Sololá	702	San José Chacayá	5	Chacayá	8	Agosto	2023-08-08T00:00:00	2024-11-06T08:00:00	7	Dirección del viento	4.83
112191	7	Sololá	702	San José Chacayá	5	Chacayá	8	Agosto	2023-08-08T00:00:00	2024-11-06T08:00:00	1	Precipitación	0
112192	7	Sololá	702	San José Chacayá	5	Chacayá	8	Agosto	2023-08-08T00:00:00	2024-11-06T08:00:00	8	Radiación solar	156
112193	7	Sololá	702	San José Chacayá	5	Chacayá	8	Agosto	2023-08-08T00:00:00	2024-11-06T09:00:00	2	Temperatura media	20.4
112194	7	Sololá	702	San José Chacayá	5	Chacayá	8	Agosto	2023-08-08T00:00:00	2024-11-06T09:00:00	4	Temperatura máxima	20.4
112195	7	Sololá	702	San José Chacayá	5	Chacayá	8	Agosto	2023-08-08T00:00:00	2024-11-06T09:00:00	3	Temperatura mínima	17.9
112196	7	Sololá	702	San José Chacayá	5	Chacayá	8	Agosto	2023-08-08T00:00:00	2024-11-06T09:00:00	5	Humedad	66
112197	7	Sololá	702	San José Chacayá	5	Chacayá	8	Agosto	2023-08-08T00:00:00	2024-11-06T09:00:00	6	Velocidad del viento	4.8
112198	7	Sololá	702	San José Chacayá	5	Chacayá	8	Agosto	2023-08-08T00:00:00	2024-11-06T09:00:00	7	Dirección del viento	4.83
112199	7	Sololá	702	San José Chacayá	5	Chacayá	8	Agosto	2023-08-08T00:00:00	2024-11-06T09:00:00	1	Precipitación	0
112200	7	Sololá	702	San José Chacayá	5	Chacayá	8	Agosto	2023-08-08T00:00:00	2024-11-06T09:00:00	8	Radiación solar	406
112201	7	Sololá	702	San José Chacayá	5	Chacayá	8	Agosto	2023-08-08T00:00:00	2024-11-06T10:00:00	2	Temperatura media	22.4
112202	7	Sololá	702	San José Chacayá	5	Chacayá	8	Agosto	2023-08-08T00:00:00	2024-11-06T10:00:00	4	Temperatura máxima	22.4
112203	7	Sololá	702	San José Chacayá	5	Chacayá	8	Agosto	2023-08-08T00:00:00	2024-11-06T10:00:00	3	Temperatura mínima	20.3
112204	7	Sololá	702	San José Chacayá	5	Chacayá	8	Agosto	2023-08-08T00:00:00	2024-11-06T10:00:00	5	Humedad	62
112205	7	Sololá	702	San José Chacayá	5	Chacayá	8	Agosto	2023-08-08T00:00:00	2024-11-06T10:00:00	6	Velocidad del viento	4.8
112206	7	Sololá	702	San José Chacayá	5	Chacayá	8	Agosto	2023-08-08T00:00:00	2024-11-06T10:00:00	7	Dirección del viento	4.83
112207	7	Sololá	702	San José Chacayá	5	Chacayá	8	Agosto	2023-08-08T00:00:00	2024-11-06T10:00:00	1	Precipitación	0
112208	7	Sololá	702	San José Chacayá	5	Chacayá	8	Agosto	2023-08-08T00:00:00	2024-11-06T10:00:00	8	Radiación solar	676
112209	7	Sololá	702	San José Chacayá	5	Chacayá	8	Agosto	2023-08-08T00:00:00	2024-11-06T11:00:00	2	Temperatura media	22.7
112210	7	Sololá	702	San José Chacayá	5	Chacayá	8	Agosto	2023-08-08T00:00:00	2024-11-06T11:00:00	4	Temperatura máxima	23.5
112211	7	Sololá	702	San José Chacayá	5	Chacayá	8	Agosto	2023-08-08T00:00:00	2024-11-06T11:00:00	3	Temperatura mínima	22.2
112212	7	Sololá	702	San José Chacayá	5	Chacayá	8	Agosto	2023-08-08T00:00:00	2024-11-06T11:00:00	5	Humedad	63
112213	7	Sololá	702	San José Chacayá	5	Chacayá	8	Agosto	2023-08-08T00:00:00	2024-11-06T11:00:00	6	Velocidad del viento	6.4
112214	7	Sololá	702	San José Chacayá	5	Chacayá	8	Agosto	2023-08-08T00:00:00	2024-11-06T11:00:00	7	Dirección del viento	6.44
112215	7	Sololá	702	San José Chacayá	5	Chacayá	8	Agosto	2023-08-08T00:00:00	2024-11-06T11:00:00	1	Precipitación	0
112216	7	Sololá	702	San José Chacayá	5	Chacayá	8	Agosto	2023-08-08T00:00:00	2024-11-06T11:00:00	8	Radiación solar	889
112217	7	Sololá	702	San José Chacayá	5	Chacayá	8	Agosto	2023-08-08T00:00:00	2024-11-06T12:00:00	2	Temperatura media	24.1
112218	7	Sololá	702	San José Chacayá	5	Chacayá	8	Agosto	2023-08-08T00:00:00	2024-11-06T12:00:00	4	Temperatura máxima	24.1
112219	7	Sololá	702	San José Chacayá	5	Chacayá	8	Agosto	2023-08-08T00:00:00	2024-11-06T12:00:00	3	Temperatura mínima	22.7
112220	7	Sololá	702	San José Chacayá	5	Chacayá	8	Agosto	2023-08-08T00:00:00	2024-11-06T12:00:00	5	Humedad	56
112221	7	Sololá	702	San José Chacayá	5	Chacayá	8	Agosto	2023-08-08T00:00:00	2024-11-06T12:00:00	6	Velocidad del viento	6.4
112222	7	Sololá	702	San José Chacayá	5	Chacayá	8	Agosto	2023-08-08T00:00:00	2024-11-06T12:00:00	7	Dirección del viento	6.44
112223	7	Sololá	702	San José Chacayá	5	Chacayá	8	Agosto	2023-08-08T00:00:00	2024-11-06T12:00:00	1	Precipitación	0
112224	7	Sololá	702	San José Chacayá	5	Chacayá	8	Agosto	2023-08-08T00:00:00	2024-11-06T12:00:00	8	Radiación solar	1026
112225	7	Sololá	702	San José Chacayá	5	Chacayá	8	Agosto	2023-08-08T00:00:00	2024-11-06T13:00:00	2	Temperatura media	25
112226	7	Sololá	702	San José Chacayá	5	Chacayá	8	Agosto	2023-08-08T00:00:00	2024-11-06T13:00:00	4	Temperatura máxima	25
112227	7	Sololá	702	San José Chacayá	5	Chacayá	8	Agosto	2023-08-08T00:00:00	2024-11-06T13:00:00	3	Temperatura mínima	24.1
112228	7	Sololá	702	San José Chacayá	5	Chacayá	8	Agosto	2023-08-08T00:00:00	2024-11-06T13:00:00	5	Humedad	52
112229	7	Sololá	702	San José Chacayá	5	Chacayá	8	Agosto	2023-08-08T00:00:00	2024-11-06T13:00:00	6	Velocidad del viento	4.8
112230	7	Sololá	702	San José Chacayá	5	Chacayá	8	Agosto	2023-08-08T00:00:00	2024-11-06T13:00:00	7	Dirección del viento	4.83
112231	7	Sololá	702	San José Chacayá	5	Chacayá	8	Agosto	2023-08-08T00:00:00	2024-11-06T13:00:00	1	Precipitación	0
112232	7	Sololá	702	San José Chacayá	5	Chacayá	8	Agosto	2023-08-08T00:00:00	2024-11-06T13:00:00	8	Radiación solar	663
112233	7	Sololá	702	San José Chacayá	5	Chacayá	8	Agosto	2023-08-08T00:00:00	2024-11-06T14:00:00	2	Temperatura media	22.9
112234	7	Sololá	702	San José Chacayá	5	Chacayá	8	Agosto	2023-08-08T00:00:00	2024-11-06T14:00:00	4	Temperatura máxima	25.1
112235	7	Sololá	702	San José Chacayá	5	Chacayá	8	Agosto	2023-08-08T00:00:00	2024-11-06T14:00:00	3	Temperatura mínima	21.9
112236	7	Sololá	702	San José Chacayá	5	Chacayá	8	Agosto	2023-08-08T00:00:00	2024-11-06T14:00:00	5	Humedad	65
112237	7	Sololá	702	San José Chacayá	5	Chacayá	8	Agosto	2023-08-08T00:00:00	2024-11-06T14:00:00	6	Velocidad del viento	8
112238	7	Sololá	702	San José Chacayá	5	Chacayá	8	Agosto	2023-08-08T00:00:00	2024-11-06T14:00:00	7	Dirección del viento	8.05
112239	7	Sololá	702	San José Chacayá	5	Chacayá	8	Agosto	2023-08-08T00:00:00	2024-11-06T14:00:00	1	Precipitación	0
112240	7	Sololá	702	San José Chacayá	5	Chacayá	8	Agosto	2023-08-08T00:00:00	2024-11-06T14:00:00	8	Radiación solar	773
112241	7	Sololá	702	San José Chacayá	5	Chacayá	8	Agosto	2023-08-08T00:00:00	2024-11-06T15:00:00	2	Temperatura media	23.3
112242	7	Sololá	702	San José Chacayá	5	Chacayá	8	Agosto	2023-08-08T00:00:00	2024-11-06T15:00:00	4	Temperatura máxima	23.7
112243	7	Sololá	702	San José Chacayá	5	Chacayá	8	Agosto	2023-08-08T00:00:00	2024-11-06T15:00:00	3	Temperatura mínima	21.6
112244	7	Sololá	702	San José Chacayá	5	Chacayá	8	Agosto	2023-08-08T00:00:00	2024-11-06T15:00:00	5	Humedad	59
112245	7	Sololá	702	San José Chacayá	5	Chacayá	8	Agosto	2023-08-08T00:00:00	2024-11-06T15:00:00	6	Velocidad del viento	4.8
112246	7	Sololá	702	San José Chacayá	5	Chacayá	8	Agosto	2023-08-08T00:00:00	2024-11-06T15:00:00	7	Dirección del viento	4.83
112247	7	Sololá	702	San José Chacayá	5	Chacayá	8	Agosto	2023-08-08T00:00:00	2024-11-06T15:00:00	1	Precipitación	0
112248	7	Sololá	702	San José Chacayá	5	Chacayá	8	Agosto	2023-08-08T00:00:00	2024-11-06T15:00:00	8	Radiación solar	416
112249	7	Sololá	702	San José Chacayá	5	Chacayá	8	Agosto	2023-08-08T00:00:00	2024-11-06T16:00:00	2	Temperatura media	23.4
112250	7	Sololá	702	San José Chacayá	5	Chacayá	8	Agosto	2023-08-08T00:00:00	2024-11-06T16:00:00	4	Temperatura máxima	23.9
112251	7	Sololá	702	San José Chacayá	5	Chacayá	8	Agosto	2023-08-08T00:00:00	2024-11-06T16:00:00	3	Temperatura mínima	23.1
112252	7	Sololá	702	San José Chacayá	5	Chacayá	8	Agosto	2023-08-08T00:00:00	2024-11-06T16:00:00	5	Humedad	66
112253	7	Sololá	702	San José Chacayá	5	Chacayá	8	Agosto	2023-08-08T00:00:00	2024-11-06T16:00:00	6	Velocidad del viento	4.8
112254	7	Sololá	702	San José Chacayá	5	Chacayá	8	Agosto	2023-08-08T00:00:00	2024-11-06T16:00:00	7	Dirección del viento	4.83
112255	7	Sololá	702	San José Chacayá	5	Chacayá	8	Agosto	2023-08-08T00:00:00	2024-11-06T16:00:00	1	Precipitación	0
112256	7	Sololá	702	San José Chacayá	5	Chacayá	8	Agosto	2023-08-08T00:00:00	2024-11-06T16:00:00	8	Radiación solar	260
112257	7	Sololá	702	San José Chacayá	5	Chacayá	8	Agosto	2023-08-08T00:00:00	2024-11-06T17:00:00	2	Temperatura media	21.4
112258	7	Sololá	702	San José Chacayá	5	Chacayá	8	Agosto	2023-08-08T00:00:00	2024-11-06T17:00:00	4	Temperatura máxima	23.4
112259	7	Sololá	702	San José Chacayá	5	Chacayá	8	Agosto	2023-08-08T00:00:00	2024-11-06T17:00:00	3	Temperatura mínima	21.4
112260	7	Sololá	702	San José Chacayá	5	Chacayá	8	Agosto	2023-08-08T00:00:00	2024-11-06T17:00:00	5	Humedad	75
112261	7	Sololá	702	San José Chacayá	5	Chacayá	8	Agosto	2023-08-08T00:00:00	2024-11-06T17:00:00	6	Velocidad del viento	3.2
112262	7	Sololá	702	San José Chacayá	5	Chacayá	8	Agosto	2023-08-08T00:00:00	2024-11-06T17:00:00	7	Dirección del viento	3.22
112263	7	Sololá	702	San José Chacayá	5	Chacayá	8	Agosto	2023-08-08T00:00:00	2024-11-06T17:00:00	1	Precipitación	0
112264	7	Sololá	702	San José Chacayá	5	Chacayá	8	Agosto	2023-08-08T00:00:00	2024-11-06T17:00:00	8	Radiación solar	88
112265	7	Sololá	702	San José Chacayá	5	Chacayá	8	Agosto	2023-08-08T00:00:00	2024-11-06T18:00:00	2	Temperatura media	18.9
112266	7	Sololá	702	San José Chacayá	5	Chacayá	8	Agosto	2023-08-08T00:00:00	2024-11-06T18:00:00	4	Temperatura máxima	21.5
112267	7	Sololá	702	San José Chacayá	5	Chacayá	8	Agosto	2023-08-08T00:00:00	2024-11-06T18:00:00	3	Temperatura mínima	18.9
112268	7	Sololá	702	San José Chacayá	5	Chacayá	8	Agosto	2023-08-08T00:00:00	2024-11-06T18:00:00	5	Humedad	84
112269	7	Sololá	702	San José Chacayá	5	Chacayá	8	Agosto	2023-08-08T00:00:00	2024-11-06T18:00:00	6	Velocidad del viento	1.6
112270	7	Sololá	702	San José Chacayá	5	Chacayá	8	Agosto	2023-08-08T00:00:00	2024-11-06T18:00:00	7	Dirección del viento	1.61
112271	7	Sololá	702	San José Chacayá	5	Chacayá	8	Agosto	2023-08-08T00:00:00	2024-11-06T18:00:00	1	Precipitación	0
112272	7	Sololá	702	San José Chacayá	5	Chacayá	8	Agosto	2023-08-08T00:00:00	2024-11-06T18:00:00	8	Radiación solar	14
112273	7	Sololá	702	San José Chacayá	5	Chacayá	8	Agosto	2023-08-08T00:00:00	2024-11-06T19:00:00	2	Temperatura media	17
112274	7	Sololá	702	San José Chacayá	5	Chacayá	8	Agosto	2023-08-08T00:00:00	2024-11-06T19:00:00	4	Temperatura máxima	18.9
112275	7	Sololá	702	San José Chacayá	5	Chacayá	8	Agosto	2023-08-08T00:00:00	2024-11-06T19:00:00	3	Temperatura mínima	17
112276	7	Sololá	702	San José Chacayá	5	Chacayá	8	Agosto	2023-08-08T00:00:00	2024-11-06T19:00:00	5	Humedad	87
112277	7	Sololá	702	San José Chacayá	5	Chacayá	8	Agosto	2023-08-08T00:00:00	2024-11-06T19:00:00	6	Velocidad del viento	0
112278	7	Sololá	702	San José Chacayá	5	Chacayá	8	Agosto	2023-08-08T00:00:00	2024-11-06T19:00:00	7	Dirección del viento	0
112279	7	Sololá	702	San José Chacayá	5	Chacayá	8	Agosto	2023-08-08T00:00:00	2024-11-06T19:00:00	1	Precipitación	0
112280	7	Sololá	702	San José Chacayá	5	Chacayá	8	Agosto	2023-08-08T00:00:00	2024-11-06T19:00:00	8	Radiación solar	0
112281	7	Sololá	702	San José Chacayá	5	Chacayá	8	Agosto	2023-08-08T00:00:00	2024-11-06T20:00:00	2	Temperatura media	15.4
112282	7	Sololá	702	San José Chacayá	5	Chacayá	8	Agosto	2023-08-08T00:00:00	2024-11-06T20:00:00	4	Temperatura máxima	17
112283	7	Sololá	702	San José Chacayá	5	Chacayá	8	Agosto	2023-08-08T00:00:00	2024-11-06T20:00:00	3	Temperatura mínima	15.4
112284	7	Sololá	702	San José Chacayá	5	Chacayá	8	Agosto	2023-08-08T00:00:00	2024-11-06T20:00:00	5	Humedad	88
112285	7	Sololá	702	San José Chacayá	5	Chacayá	8	Agosto	2023-08-08T00:00:00	2024-11-06T20:00:00	6	Velocidad del viento	0
112286	7	Sololá	702	San José Chacayá	5	Chacayá	8	Agosto	2023-08-08T00:00:00	2024-11-06T20:00:00	7	Dirección del viento	0
112287	7	Sololá	702	San José Chacayá	5	Chacayá	8	Agosto	2023-08-08T00:00:00	2024-11-06T20:00:00	1	Precipitación	0
112288	7	Sololá	702	San José Chacayá	5	Chacayá	8	Agosto	2023-08-08T00:00:00	2024-11-06T20:00:00	8	Radiación solar	0
112289	7	Sololá	702	San José Chacayá	5	Chacayá	8	Agosto	2023-08-08T00:00:00	2024-11-06T21:00:00	2	Temperatura media	14.1
112290	7	Sololá	702	San José Chacayá	5	Chacayá	8	Agosto	2023-08-08T00:00:00	2024-11-06T21:00:00	4	Temperatura máxima	15.5
112291	7	Sololá	702	San José Chacayá	5	Chacayá	8	Agosto	2023-08-08T00:00:00	2024-11-06T21:00:00	3	Temperatura mínima	14.1
112292	7	Sololá	702	San José Chacayá	5	Chacayá	8	Agosto	2023-08-08T00:00:00	2024-11-06T21:00:00	5	Humedad	90
112293	7	Sololá	702	San José Chacayá	5	Chacayá	8	Agosto	2023-08-08T00:00:00	2024-11-06T21:00:00	6	Velocidad del viento	0
112294	7	Sololá	702	San José Chacayá	5	Chacayá	8	Agosto	2023-08-08T00:00:00	2024-11-06T21:00:00	7	Dirección del viento	0
112295	7	Sololá	702	San José Chacayá	5	Chacayá	8	Agosto	2023-08-08T00:00:00	2024-11-06T21:00:00	1	Precipitación	0
112296	7	Sololá	702	San José Chacayá	5	Chacayá	8	Agosto	2023-08-08T00:00:00	2024-11-06T21:00:00	8	Radiación solar	0
112297	7	Sololá	702	San José Chacayá	5	Chacayá	8	Agosto	2023-08-08T00:00:00	2024-11-06T22:00:00	2	Temperatura media	13.5
112298	7	Sololá	702	San José Chacayá	5	Chacayá	8	Agosto	2023-08-08T00:00:00	2024-11-06T22:00:00	4	Temperatura máxima	14.1
112299	7	Sololá	702	San José Chacayá	5	Chacayá	8	Agosto	2023-08-08T00:00:00	2024-11-06T22:00:00	3	Temperatura mínima	13.4
112300	7	Sololá	702	San José Chacayá	5	Chacayá	8	Agosto	2023-08-08T00:00:00	2024-11-06T22:00:00	5	Humedad	89
112301	7	Sololá	702	San José Chacayá	5	Chacayá	8	Agosto	2023-08-08T00:00:00	2024-11-06T22:00:00	6	Velocidad del viento	1.6
112302	7	Sololá	702	San José Chacayá	5	Chacayá	8	Agosto	2023-08-08T00:00:00	2024-11-06T22:00:00	7	Dirección del viento	1.61
112303	7	Sololá	702	San José Chacayá	5	Chacayá	8	Agosto	2023-08-08T00:00:00	2024-11-06T22:00:00	1	Precipitación	0
112304	7	Sololá	702	San José Chacayá	5	Chacayá	8	Agosto	2023-08-08T00:00:00	2024-11-06T22:00:00	8	Radiación solar	0
112305	7	Sololá	702	San José Chacayá	5	Chacayá	8	Agosto	2023-08-08T00:00:00	2024-11-06T23:00:00	2	Temperatura media	12.8
112306	7	Sololá	702	San José Chacayá	5	Chacayá	8	Agosto	2023-08-08T00:00:00	2024-11-06T23:00:00	4	Temperatura máxima	13.6
112307	7	Sololá	702	San José Chacayá	5	Chacayá	8	Agosto	2023-08-08T00:00:00	2024-11-06T23:00:00	3	Temperatura mínima	12.8
112308	7	Sololá	702	San José Chacayá	5	Chacayá	8	Agosto	2023-08-08T00:00:00	2024-11-06T23:00:00	5	Humedad	90
112309	7	Sololá	702	San José Chacayá	5	Chacayá	8	Agosto	2023-08-08T00:00:00	2024-11-06T23:00:00	6	Velocidad del viento	1.6
112310	7	Sololá	702	San José Chacayá	5	Chacayá	8	Agosto	2023-08-08T00:00:00	2024-11-06T23:00:00	7	Dirección del viento	1.61
112311	7	Sololá	702	San José Chacayá	5	Chacayá	8	Agosto	2023-08-08T00:00:00	2024-11-06T23:00:00	1	Precipitación	0
112312	7	Sololá	702	San José Chacayá	5	Chacayá	8	Agosto	2023-08-08T00:00:00	2024-11-06T23:00:00	8	Radiación solar	0
112313	7	Sololá	702	San José Chacayá	5	Chacayá	8	Agosto	2023-09-08T00:00:00	2024-11-06T00:00:00	2	Temperatura media	12.1
112314	7	Sololá	702	San José Chacayá	5	Chacayá	8	Agosto	2023-09-08T00:00:00	2024-11-06T00:00:00	4	Temperatura máxima	12.8
112315	7	Sololá	702	San José Chacayá	5	Chacayá	8	Agosto	2023-09-08T00:00:00	2024-11-06T00:00:00	3	Temperatura mínima	12.1
112316	7	Sololá	702	San José Chacayá	5	Chacayá	8	Agosto	2023-09-08T00:00:00	2024-11-06T00:00:00	5	Humedad	91
112317	7	Sololá	702	San José Chacayá	5	Chacayá	8	Agosto	2023-09-08T00:00:00	2024-11-06T00:00:00	6	Velocidad del viento	0
112318	7	Sololá	702	San José Chacayá	5	Chacayá	8	Agosto	2023-09-08T00:00:00	2024-11-06T00:00:00	7	Dirección del viento	0
112319	7	Sololá	702	San José Chacayá	5	Chacayá	8	Agosto	2023-09-08T00:00:00	2024-11-06T00:00:00	1	Precipitación	0
112320	7	Sololá	702	San José Chacayá	5	Chacayá	8	Agosto	2023-09-08T00:00:00	2024-11-06T00:00:00	8	Radiación solar	0
112321	7	Sololá	702	San José Chacayá	5	Chacayá	8	Agosto	2023-09-08T00:00:00	2024-11-06T01:00:00	2	Temperatura media	11.8
112322	7	Sololá	702	San José Chacayá	5	Chacayá	8	Agosto	2023-09-08T00:00:00	2024-11-06T01:00:00	4	Temperatura máxima	12.1
112323	7	Sololá	702	San José Chacayá	5	Chacayá	8	Agosto	2023-09-08T00:00:00	2024-11-06T01:00:00	3	Temperatura mínima	11.8
112324	7	Sololá	702	San José Chacayá	5	Chacayá	8	Agosto	2023-09-08T00:00:00	2024-11-06T01:00:00	5	Humedad	91
112325	7	Sololá	702	San José Chacayá	5	Chacayá	8	Agosto	2023-09-08T00:00:00	2024-11-06T01:00:00	6	Velocidad del viento	0
112326	7	Sololá	702	San José Chacayá	5	Chacayá	8	Agosto	2023-09-08T00:00:00	2024-11-06T01:00:00	7	Dirección del viento	0
112327	7	Sololá	702	San José Chacayá	5	Chacayá	8	Agosto	2023-09-08T00:00:00	2024-11-06T01:00:00	1	Precipitación	0
112328	7	Sololá	702	San José Chacayá	5	Chacayá	8	Agosto	2023-09-08T00:00:00	2024-11-06T01:00:00	8	Radiación solar	0
112329	7	Sololá	702	San José Chacayá	5	Chacayá	8	Agosto	2023-09-08T00:00:00	2024-11-06T02:00:00	2	Temperatura media	11.5
112330	7	Sololá	702	San José Chacayá	5	Chacayá	8	Agosto	2023-09-08T00:00:00	2024-11-06T02:00:00	4	Temperatura máxima	11.9
112331	7	Sololá	702	San José Chacayá	5	Chacayá	8	Agosto	2023-09-08T00:00:00	2024-11-06T02:00:00	3	Temperatura mínima	11.5
112332	7	Sololá	702	San José Chacayá	5	Chacayá	8	Agosto	2023-09-08T00:00:00	2024-11-06T02:00:00	5	Humedad	91
112333	7	Sololá	702	San José Chacayá	5	Chacayá	8	Agosto	2023-09-08T00:00:00	2024-11-06T02:00:00	6	Velocidad del viento	0
112334	7	Sololá	702	San José Chacayá	5	Chacayá	8	Agosto	2023-09-08T00:00:00	2024-11-06T02:00:00	7	Dirección del viento	0
112335	7	Sololá	702	San José Chacayá	5	Chacayá	8	Agosto	2023-09-08T00:00:00	2024-11-06T02:00:00	1	Precipitación	0
112336	7	Sololá	702	San José Chacayá	5	Chacayá	8	Agosto	2023-09-08T00:00:00	2024-11-06T02:00:00	8	Radiación solar	0
112337	7	Sololá	702	San José Chacayá	5	Chacayá	8	Agosto	2023-09-08T00:00:00	2024-11-06T03:00:00	2	Temperatura media	11.4
112338	7	Sololá	702	San José Chacayá	5	Chacayá	8	Agosto	2023-09-08T00:00:00	2024-11-06T03:00:00	4	Temperatura máxima	11.5
112339	7	Sololá	702	San José Chacayá	5	Chacayá	8	Agosto	2023-09-08T00:00:00	2024-11-06T03:00:00	3	Temperatura mínima	11.3
112340	7	Sololá	702	San José Chacayá	5	Chacayá	8	Agosto	2023-09-08T00:00:00	2024-11-06T03:00:00	5	Humedad	90
112341	7	Sololá	702	San José Chacayá	5	Chacayá	8	Agosto	2023-09-08T00:00:00	2024-11-06T03:00:00	6	Velocidad del viento	1.6
112342	7	Sololá	702	San José Chacayá	5	Chacayá	8	Agosto	2023-09-08T00:00:00	2024-11-06T03:00:00	7	Dirección del viento	1.61
112343	7	Sololá	702	San José Chacayá	5	Chacayá	8	Agosto	2023-09-08T00:00:00	2024-11-06T03:00:00	1	Precipitación	0
112344	7	Sololá	702	San José Chacayá	5	Chacayá	8	Agosto	2023-09-08T00:00:00	2024-11-06T03:00:00	8	Radiación solar	0
112345	7	Sololá	702	San José Chacayá	5	Chacayá	8	Agosto	2023-09-08T00:00:00	2024-11-06T04:00:00	2	Temperatura media	11.1
112346	7	Sololá	702	San José Chacayá	5	Chacayá	8	Agosto	2023-09-08T00:00:00	2024-11-06T04:00:00	4	Temperatura máxima	11.4
112347	7	Sololá	702	San José Chacayá	5	Chacayá	8	Agosto	2023-09-08T00:00:00	2024-11-06T04:00:00	3	Temperatura mínima	10.9
112348	7	Sololá	702	San José Chacayá	5	Chacayá	8	Agosto	2023-09-08T00:00:00	2024-11-06T04:00:00	5	Humedad	91
112349	7	Sololá	702	San José Chacayá	5	Chacayá	8	Agosto	2023-09-08T00:00:00	2024-11-06T04:00:00	6	Velocidad del viento	1.6
112350	7	Sololá	702	San José Chacayá	5	Chacayá	8	Agosto	2023-09-08T00:00:00	2024-11-06T04:00:00	7	Dirección del viento	1.61
112351	7	Sololá	702	San José Chacayá	5	Chacayá	8	Agosto	2023-09-08T00:00:00	2024-11-06T04:00:00	1	Precipitación	0
112352	7	Sololá	702	San José Chacayá	5	Chacayá	8	Agosto	2023-09-08T00:00:00	2024-11-06T04:00:00	8	Radiación solar	0
112353	7	Sololá	702	San José Chacayá	5	Chacayá	8	Agosto	2023-09-08T00:00:00	2024-11-06T05:00:00	2	Temperatura media	11
112354	7	Sololá	702	San José Chacayá	5	Chacayá	8	Agosto	2023-09-08T00:00:00	2024-11-06T05:00:00	4	Temperatura máxima	11.2
112355	7	Sololá	702	San José Chacayá	5	Chacayá	8	Agosto	2023-09-08T00:00:00	2024-11-06T05:00:00	3	Temperatura mínima	11
112356	7	Sololá	702	San José Chacayá	5	Chacayá	8	Agosto	2023-09-08T00:00:00	2024-11-06T05:00:00	5	Humedad	92
112357	7	Sololá	702	San José Chacayá	5	Chacayá	8	Agosto	2023-09-08T00:00:00	2024-11-06T05:00:00	6	Velocidad del viento	0
112358	7	Sololá	702	San José Chacayá	5	Chacayá	8	Agosto	2023-09-08T00:00:00	2024-11-06T05:00:00	7	Dirección del viento	0
112359	7	Sololá	702	San José Chacayá	5	Chacayá	8	Agosto	2023-09-08T00:00:00	2024-11-06T05:00:00	1	Precipitación	0
112360	7	Sololá	702	San José Chacayá	5	Chacayá	8	Agosto	2023-09-08T00:00:00	2024-11-06T05:00:00	8	Radiación solar	0
112361	7	Sololá	702	San José Chacayá	5	Chacayá	8	Agosto	2023-09-08T00:00:00	2024-11-06T06:00:00	2	Temperatura media	10.3
112362	7	Sololá	702	San José Chacayá	5	Chacayá	8	Agosto	2023-09-08T00:00:00	2024-11-06T06:00:00	4	Temperatura máxima	11.1
112363	7	Sololá	702	San José Chacayá	5	Chacayá	8	Agosto	2023-09-08T00:00:00	2024-11-06T06:00:00	3	Temperatura mínima	10.3
112364	7	Sololá	702	San José Chacayá	5	Chacayá	8	Agosto	2023-09-08T00:00:00	2024-11-06T06:00:00	5	Humedad	92
112365	7	Sololá	702	San José Chacayá	5	Chacayá	8	Agosto	2023-09-08T00:00:00	2024-11-06T06:00:00	6	Velocidad del viento	0
112366	7	Sololá	702	San José Chacayá	5	Chacayá	8	Agosto	2023-09-08T00:00:00	2024-11-06T06:00:00	7	Dirección del viento	0
112367	7	Sololá	702	San José Chacayá	5	Chacayá	8	Agosto	2023-09-08T00:00:00	2024-11-06T06:00:00	1	Precipitación	0
112368	7	Sololá	702	San José Chacayá	5	Chacayá	8	Agosto	2023-09-08T00:00:00	2024-11-06T06:00:00	8	Radiación solar	1
112369	7	Sololá	702	San José Chacayá	5	Chacayá	8	Agosto	2023-09-08T00:00:00	2024-11-06T07:00:00	2	Temperatura media	11.7
112370	7	Sololá	702	San José Chacayá	5	Chacayá	8	Agosto	2023-09-08T00:00:00	2024-11-06T07:00:00	4	Temperatura máxima	11.7
112371	7	Sololá	702	San José Chacayá	5	Chacayá	8	Agosto	2023-09-08T00:00:00	2024-11-06T07:00:00	3	Temperatura mínima	10.3
112372	7	Sololá	702	San José Chacayá	5	Chacayá	8	Agosto	2023-09-08T00:00:00	2024-11-06T07:00:00	5	Humedad	92
112373	7	Sololá	702	San José Chacayá	5	Chacayá	8	Agosto	2023-09-08T00:00:00	2024-11-06T07:00:00	6	Velocidad del viento	1.6
112374	7	Sololá	702	San José Chacayá	5	Chacayá	8	Agosto	2023-09-08T00:00:00	2024-11-06T07:00:00	7	Dirección del viento	1.61
112375	7	Sololá	702	San José Chacayá	5	Chacayá	8	Agosto	2023-09-08T00:00:00	2024-11-06T07:00:00	1	Precipitación	0
112376	7	Sololá	702	San José Chacayá	5	Chacayá	8	Agosto	2023-09-08T00:00:00	2024-11-06T07:00:00	8	Radiación solar	44
112377	7	Sololá	702	San José Chacayá	5	Chacayá	8	Agosto	2023-09-08T00:00:00	2024-11-06T08:00:00	2	Temperatura media	17.1
112378	7	Sololá	702	San José Chacayá	5	Chacayá	8	Agosto	2023-09-08T00:00:00	2024-11-06T08:00:00	4	Temperatura máxima	17.1
112379	7	Sololá	702	San José Chacayá	5	Chacayá	8	Agosto	2023-09-08T00:00:00	2024-11-06T08:00:00	3	Temperatura mínima	11.7
112380	7	Sololá	702	San José Chacayá	5	Chacayá	8	Agosto	2023-09-08T00:00:00	2024-11-06T08:00:00	5	Humedad	72
112381	7	Sololá	702	San José Chacayá	5	Chacayá	8	Agosto	2023-09-08T00:00:00	2024-11-06T08:00:00	6	Velocidad del viento	1.6
112382	7	Sololá	702	San José Chacayá	5	Chacayá	8	Agosto	2023-09-08T00:00:00	2024-11-06T08:00:00	7	Dirección del viento	1.61
112383	7	Sololá	702	San José Chacayá	5	Chacayá	8	Agosto	2023-09-08T00:00:00	2024-11-06T08:00:00	1	Precipitación	0
112384	7	Sololá	702	San José Chacayá	5	Chacayá	8	Agosto	2023-09-08T00:00:00	2024-11-06T08:00:00	8	Radiación solar	158
112385	7	Sololá	702	San José Chacayá	5	Chacayá	8	Agosto	2023-09-08T00:00:00	2024-11-06T09:00:00	2	Temperatura media	20.3
112386	7	Sololá	702	San José Chacayá	5	Chacayá	8	Agosto	2023-09-08T00:00:00	2024-11-06T09:00:00	4	Temperatura máxima	20.3
112387	7	Sololá	702	San José Chacayá	5	Chacayá	8	Agosto	2023-09-08T00:00:00	2024-11-06T09:00:00	3	Temperatura mínima	17.1
112388	7	Sololá	702	San José Chacayá	5	Chacayá	8	Agosto	2023-09-08T00:00:00	2024-11-06T09:00:00	5	Humedad	59
112389	7	Sololá	702	San José Chacayá	5	Chacayá	8	Agosto	2023-09-08T00:00:00	2024-11-06T09:00:00	6	Velocidad del viento	1.6
112390	7	Sololá	702	San José Chacayá	5	Chacayá	8	Agosto	2023-09-08T00:00:00	2024-11-06T09:00:00	7	Dirección del viento	1.61
112391	7	Sololá	702	San José Chacayá	5	Chacayá	8	Agosto	2023-09-08T00:00:00	2024-11-06T09:00:00	1	Precipitación	0
112392	7	Sololá	702	San José Chacayá	5	Chacayá	8	Agosto	2023-09-08T00:00:00	2024-11-06T09:00:00	8	Radiación solar	345
112393	7	Sololá	702	San José Chacayá	5	Chacayá	8	Agosto	2023-09-08T00:00:00	2024-11-06T10:00:00	2	Temperatura media	22.4
112394	7	Sololá	702	San José Chacayá	5	Chacayá	8	Agosto	2023-09-08T00:00:00	2024-11-06T10:00:00	4	Temperatura máxima	22.6
112395	7	Sololá	702	San José Chacayá	5	Chacayá	8	Agosto	2023-09-08T00:00:00	2024-11-06T10:00:00	3	Temperatura mínima	20.3
112396	7	Sololá	702	San José Chacayá	5	Chacayá	8	Agosto	2023-09-08T00:00:00	2024-11-06T10:00:00	5	Humedad	57
112397	7	Sololá	702	San José Chacayá	5	Chacayá	8	Agosto	2023-09-08T00:00:00	2024-11-06T10:00:00	6	Velocidad del viento	3.2
112398	7	Sololá	702	San José Chacayá	5	Chacayá	8	Agosto	2023-09-08T00:00:00	2024-11-06T10:00:00	7	Dirección del viento	3.22
112399	7	Sololá	702	San José Chacayá	5	Chacayá	8	Agosto	2023-09-08T00:00:00	2024-11-06T10:00:00	1	Precipitación	0
112400	7	Sololá	702	San José Chacayá	5	Chacayá	8	Agosto	2023-09-08T00:00:00	2024-11-06T10:00:00	8	Radiación solar	810
112401	7	Sololá	702	San José Chacayá	5	Chacayá	8	Agosto	2023-09-08T00:00:00	2024-11-06T11:00:00	2	Temperatura media	24.1
112402	7	Sololá	702	San José Chacayá	5	Chacayá	8	Agosto	2023-09-08T00:00:00	2024-11-06T11:00:00	4	Temperatura máxima	24.1
112403	7	Sololá	702	San José Chacayá	5	Chacayá	8	Agosto	2023-09-08T00:00:00	2024-11-06T11:00:00	3	Temperatura mínima	22.3
112404	7	Sololá	702	San José Chacayá	5	Chacayá	8	Agosto	2023-09-08T00:00:00	2024-11-06T11:00:00	5	Humedad	57
112405	7	Sololá	702	San José Chacayá	5	Chacayá	8	Agosto	2023-09-08T00:00:00	2024-11-06T11:00:00	6	Velocidad del viento	3.2
112406	7	Sololá	702	San José Chacayá	5	Chacayá	8	Agosto	2023-09-08T00:00:00	2024-11-06T11:00:00	7	Dirección del viento	3.22
112407	7	Sololá	702	San José Chacayá	5	Chacayá	8	Agosto	2023-09-08T00:00:00	2024-11-06T11:00:00	1	Precipitación	0
112408	7	Sololá	702	San José Chacayá	5	Chacayá	8	Agosto	2023-09-08T00:00:00	2024-11-06T11:00:00	8	Radiación solar	466
112409	7	Sololá	702	San José Chacayá	5	Chacayá	8	Agosto	2023-09-08T00:00:00	2024-11-06T12:00:00	2	Temperatura media	24.5
112410	7	Sololá	702	San José Chacayá	5	Chacayá	8	Agosto	2023-09-08T00:00:00	2024-11-06T12:00:00	4	Temperatura máxima	24.5
112411	7	Sololá	702	San José Chacayá	5	Chacayá	8	Agosto	2023-09-08T00:00:00	2024-11-06T12:00:00	3	Temperatura mínima	24
112412	7	Sololá	702	San José Chacayá	5	Chacayá	8	Agosto	2023-09-08T00:00:00	2024-11-06T12:00:00	5	Humedad	57
112413	7	Sololá	702	San José Chacayá	5	Chacayá	8	Agosto	2023-09-08T00:00:00	2024-11-06T12:00:00	6	Velocidad del viento	4.8
112414	7	Sololá	702	San José Chacayá	5	Chacayá	8	Agosto	2023-09-08T00:00:00	2024-11-06T12:00:00	7	Dirección del viento	4.83
112415	7	Sololá	702	San José Chacayá	5	Chacayá	8	Agosto	2023-09-08T00:00:00	2024-11-06T12:00:00	1	Precipitación	0
112416	7	Sololá	702	San José Chacayá	5	Chacayá	8	Agosto	2023-09-08T00:00:00	2024-11-06T12:00:00	8	Radiación solar	392
112417	7	Sololá	702	San José Chacayá	5	Chacayá	8	Agosto	2023-09-08T00:00:00	2024-11-06T13:00:00	2	Temperatura media	24.4
112418	7	Sololá	702	San José Chacayá	5	Chacayá	8	Agosto	2023-09-08T00:00:00	2024-11-06T13:00:00	4	Temperatura máxima	25.3
112419	7	Sololá	702	San José Chacayá	5	Chacayá	8	Agosto	2023-09-08T00:00:00	2024-11-06T13:00:00	3	Temperatura mínima	24.4
112420	7	Sololá	702	San José Chacayá	5	Chacayá	8	Agosto	2023-09-08T00:00:00	2024-11-06T13:00:00	5	Humedad	62
112421	7	Sololá	702	San José Chacayá	5	Chacayá	8	Agosto	2023-09-08T00:00:00	2024-11-06T13:00:00	6	Velocidad del viento	4.8
112422	7	Sololá	702	San José Chacayá	5	Chacayá	8	Agosto	2023-09-08T00:00:00	2024-11-06T13:00:00	7	Dirección del viento	4.83
112423	7	Sololá	702	San José Chacayá	5	Chacayá	8	Agosto	2023-09-08T00:00:00	2024-11-06T13:00:00	1	Precipitación	0
112424	7	Sololá	702	San José Chacayá	5	Chacayá	8	Agosto	2023-09-08T00:00:00	2024-11-06T13:00:00	8	Radiación solar	752
112425	7	Sololá	702	San José Chacayá	5	Chacayá	8	Agosto	2023-09-08T00:00:00	2024-11-06T14:00:00	2	Temperatura media	23
112426	7	Sololá	702	San José Chacayá	5	Chacayá	8	Agosto	2023-09-08T00:00:00	2024-11-06T14:00:00	4	Temperatura máxima	24.4
112427	7	Sololá	702	San José Chacayá	5	Chacayá	8	Agosto	2023-09-08T00:00:00	2024-11-06T14:00:00	3	Temperatura mínima	23
112428	7	Sololá	702	San José Chacayá	5	Chacayá	8	Agosto	2023-09-08T00:00:00	2024-11-06T14:00:00	5	Humedad	65
112429	7	Sololá	702	San José Chacayá	5	Chacayá	8	Agosto	2023-09-08T00:00:00	2024-11-06T14:00:00	6	Velocidad del viento	6.4
112430	7	Sololá	702	San José Chacayá	5	Chacayá	8	Agosto	2023-09-08T00:00:00	2024-11-06T14:00:00	7	Dirección del viento	6.44
112431	7	Sololá	702	San José Chacayá	5	Chacayá	8	Agosto	2023-09-08T00:00:00	2024-11-06T14:00:00	1	Precipitación	0
112432	7	Sololá	702	San José Chacayá	5	Chacayá	8	Agosto	2023-09-08T00:00:00	2024-11-06T14:00:00	8	Radiación solar	815
112433	7	Sololá	702	San José Chacayá	5	Chacayá	8	Agosto	2023-09-08T00:00:00	2024-11-06T15:00:00	2	Temperatura media	20.2
112434	7	Sololá	702	San José Chacayá	5	Chacayá	8	Agosto	2023-09-08T00:00:00	2024-11-06T15:00:00	4	Temperatura máxima	23
112435	7	Sololá	702	San José Chacayá	5	Chacayá	8	Agosto	2023-09-08T00:00:00	2024-11-06T15:00:00	3	Temperatura mínima	20.2
112436	7	Sololá	702	San José Chacayá	5	Chacayá	8	Agosto	2023-09-08T00:00:00	2024-11-06T15:00:00	5	Humedad	77
112437	7	Sololá	702	San José Chacayá	5	Chacayá	8	Agosto	2023-09-08T00:00:00	2024-11-06T15:00:00	6	Velocidad del viento	3.2
112438	7	Sololá	702	San José Chacayá	5	Chacayá	8	Agosto	2023-09-08T00:00:00	2024-11-06T15:00:00	7	Dirección del viento	3.22
112439	7	Sololá	702	San José Chacayá	5	Chacayá	8	Agosto	2023-09-08T00:00:00	2024-11-06T15:00:00	1	Precipitación	0
112440	7	Sololá	702	San José Chacayá	5	Chacayá	8	Agosto	2023-09-08T00:00:00	2024-11-06T15:00:00	8	Radiación solar	778
112441	7	Sololá	702	San José Chacayá	5	Chacayá	8	Agosto	2023-09-08T00:00:00	2024-11-06T16:00:00	2	Temperatura media	16.5
112442	7	Sololá	702	San José Chacayá	5	Chacayá	8	Agosto	2023-09-08T00:00:00	2024-11-06T16:00:00	4	Temperatura máxima	20.2
112443	7	Sololá	702	San José Chacayá	5	Chacayá	8	Agosto	2023-09-08T00:00:00	2024-11-06T16:00:00	3	Temperatura mínima	16.4
112444	7	Sololá	702	San José Chacayá	5	Chacayá	8	Agosto	2023-09-08T00:00:00	2024-11-06T16:00:00	5	Humedad	90
112445	7	Sololá	702	San José Chacayá	5	Chacayá	8	Agosto	2023-09-08T00:00:00	2024-11-06T16:00:00	6	Velocidad del viento	1.6
112446	7	Sololá	702	San José Chacayá	5	Chacayá	8	Agosto	2023-09-08T00:00:00	2024-11-06T16:00:00	7	Dirección del viento	1.61
112447	7	Sololá	702	San José Chacayá	5	Chacayá	8	Agosto	2023-09-08T00:00:00	2024-11-06T16:00:00	1	Precipitación	15.4
112448	7	Sololá	702	San José Chacayá	5	Chacayá	8	Agosto	2023-09-08T00:00:00	2024-11-06T16:00:00	8	Radiación solar	190
112449	7	Sololá	702	San José Chacayá	5	Chacayá	8	Agosto	2023-09-08T00:00:00	2024-11-06T17:00:00	2	Temperatura media	16.6
112450	7	Sololá	702	San José Chacayá	5	Chacayá	8	Agosto	2023-09-08T00:00:00	2024-11-06T17:00:00	4	Temperatura máxima	16.9
112451	7	Sololá	702	San José Chacayá	5	Chacayá	8	Agosto	2023-09-08T00:00:00	2024-11-06T17:00:00	3	Temperatura mínima	16.3
112452	7	Sololá	702	San José Chacayá	5	Chacayá	8	Agosto	2023-09-08T00:00:00	2024-11-06T17:00:00	5	Humedad	93
112453	7	Sololá	702	San José Chacayá	5	Chacayá	8	Agosto	2023-09-08T00:00:00	2024-11-06T17:00:00	6	Velocidad del viento	1.6
112454	7	Sololá	702	San José Chacayá	5	Chacayá	8	Agosto	2023-09-08T00:00:00	2024-11-06T17:00:00	7	Dirección del viento	1.61
112455	7	Sololá	702	San José Chacayá	5	Chacayá	8	Agosto	2023-09-08T00:00:00	2024-11-06T17:00:00	1	Precipitación	0
112456	7	Sololá	702	San José Chacayá	5	Chacayá	8	Agosto	2023-09-08T00:00:00	2024-11-06T17:00:00	8	Radiación solar	111
112457	7	Sololá	702	San José Chacayá	5	Chacayá	8	Agosto	2023-09-08T00:00:00	2024-11-06T18:00:00	2	Temperatura media	17.2
112458	7	Sololá	702	San José Chacayá	5	Chacayá	8	Agosto	2023-09-08T00:00:00	2024-11-06T18:00:00	4	Temperatura máxima	17.5
112459	7	Sololá	702	San José Chacayá	5	Chacayá	8	Agosto	2023-09-08T00:00:00	2024-11-06T18:00:00	3	Temperatura mínima	16.7
112460	7	Sololá	702	San José Chacayá	5	Chacayá	8	Agosto	2023-09-08T00:00:00	2024-11-06T18:00:00	5	Humedad	91
112461	7	Sololá	702	San José Chacayá	5	Chacayá	8	Agosto	2023-09-08T00:00:00	2024-11-06T18:00:00	6	Velocidad del viento	1.6
112462	7	Sololá	702	San José Chacayá	5	Chacayá	8	Agosto	2023-09-08T00:00:00	2024-11-06T18:00:00	7	Dirección del viento	1.61
112463	7	Sololá	702	San José Chacayá	5	Chacayá	8	Agosto	2023-09-08T00:00:00	2024-11-06T18:00:00	1	Precipitación	2.4
112464	7	Sololá	702	San José Chacayá	5	Chacayá	8	Agosto	2023-09-08T00:00:00	2024-11-06T18:00:00	8	Radiación solar	46
112465	7	Sololá	702	San José Chacayá	5	Chacayá	8	Agosto	2023-09-08T00:00:00	2024-11-06T19:00:00	2	Temperatura media	15.8
112466	7	Sololá	702	San José Chacayá	5	Chacayá	8	Agosto	2023-09-08T00:00:00	2024-11-06T19:00:00	4	Temperatura máxima	17.2
112467	7	Sololá	702	San José Chacayá	5	Chacayá	8	Agosto	2023-09-08T00:00:00	2024-11-06T19:00:00	3	Temperatura mínima	15.8
112468	7	Sololá	702	San José Chacayá	5	Chacayá	8	Agosto	2023-09-08T00:00:00	2024-11-06T19:00:00	5	Humedad	94
112469	7	Sololá	702	San José Chacayá	5	Chacayá	8	Agosto	2023-09-08T00:00:00	2024-11-06T19:00:00	6	Velocidad del viento	0
112470	7	Sololá	702	San José Chacayá	5	Chacayá	8	Agosto	2023-09-08T00:00:00	2024-11-06T19:00:00	7	Dirección del viento	0
112471	7	Sololá	702	San José Chacayá	5	Chacayá	8	Agosto	2023-09-08T00:00:00	2024-11-06T19:00:00	1	Precipitación	0
112472	7	Sololá	702	San José Chacayá	5	Chacayá	8	Agosto	2023-09-08T00:00:00	2024-11-06T19:00:00	8	Radiación solar	0
112473	7	Sololá	702	San José Chacayá	5	Chacayá	8	Agosto	2023-09-08T00:00:00	2024-11-06T20:00:00	2	Temperatura media	15.4
112474	7	Sololá	702	San José Chacayá	5	Chacayá	8	Agosto	2023-09-08T00:00:00	2024-11-06T20:00:00	4	Temperatura máxima	16
112475	7	Sololá	702	San José Chacayá	5	Chacayá	8	Agosto	2023-09-08T00:00:00	2024-11-06T20:00:00	3	Temperatura mínima	15.4
112476	7	Sololá	702	San José Chacayá	5	Chacayá	8	Agosto	2023-09-08T00:00:00	2024-11-06T20:00:00	5	Humedad	94
112477	7	Sololá	702	San José Chacayá	5	Chacayá	8	Agosto	2023-09-08T00:00:00	2024-11-06T20:00:00	6	Velocidad del viento	0
112478	7	Sololá	702	San José Chacayá	5	Chacayá	8	Agosto	2023-09-08T00:00:00	2024-11-06T20:00:00	7	Dirección del viento	0
112479	7	Sololá	702	San José Chacayá	5	Chacayá	8	Agosto	2023-09-08T00:00:00	2024-11-06T20:00:00	1	Precipitación	0
112480	7	Sololá	702	San José Chacayá	5	Chacayá	8	Agosto	2023-09-08T00:00:00	2024-11-06T20:00:00	8	Radiación solar	0
112481	7	Sololá	702	San José Chacayá	5	Chacayá	8	Agosto	2023-09-08T00:00:00	2024-11-06T21:00:00	2	Temperatura media	14.6
112482	7	Sololá	702	San José Chacayá	5	Chacayá	8	Agosto	2023-09-08T00:00:00	2024-11-06T21:00:00	4	Temperatura máxima	15.4
112483	7	Sololá	702	San José Chacayá	5	Chacayá	8	Agosto	2023-09-08T00:00:00	2024-11-06T21:00:00	3	Temperatura mínima	14.5
112484	7	Sololá	702	San José Chacayá	5	Chacayá	8	Agosto	2023-09-08T00:00:00	2024-11-06T21:00:00	5	Humedad	94
112485	7	Sololá	702	San José Chacayá	5	Chacayá	8	Agosto	2023-09-08T00:00:00	2024-11-06T21:00:00	6	Velocidad del viento	0
112486	7	Sololá	702	San José Chacayá	5	Chacayá	8	Agosto	2023-09-08T00:00:00	2024-11-06T21:00:00	7	Dirección del viento	0
112487	7	Sololá	702	San José Chacayá	5	Chacayá	8	Agosto	2023-09-08T00:00:00	2024-11-06T21:00:00	1	Precipitación	0
112488	7	Sololá	702	San José Chacayá	5	Chacayá	8	Agosto	2023-09-08T00:00:00	2024-11-06T21:00:00	8	Radiación solar	0
112489	7	Sololá	702	San José Chacayá	5	Chacayá	8	Agosto	2023-09-08T00:00:00	2024-11-06T22:00:00	2	Temperatura media	13.7
112490	7	Sololá	702	San José Chacayá	5	Chacayá	8	Agosto	2023-09-08T00:00:00	2024-11-06T22:00:00	4	Temperatura máxima	14.6
112491	7	Sololá	702	San José Chacayá	5	Chacayá	8	Agosto	2023-09-08T00:00:00	2024-11-06T22:00:00	3	Temperatura mínima	13.7
112492	7	Sololá	702	San José Chacayá	5	Chacayá	8	Agosto	2023-09-08T00:00:00	2024-11-06T22:00:00	5	Humedad	94
112493	7	Sololá	702	San José Chacayá	5	Chacayá	8	Agosto	2023-09-08T00:00:00	2024-11-06T22:00:00	6	Velocidad del viento	0
112494	7	Sololá	702	San José Chacayá	5	Chacayá	8	Agosto	2023-09-08T00:00:00	2024-11-06T22:00:00	7	Dirección del viento	0
112495	7	Sololá	702	San José Chacayá	5	Chacayá	8	Agosto	2023-09-08T00:00:00	2024-11-06T22:00:00	1	Precipitación	0
112496	7	Sololá	702	San José Chacayá	5	Chacayá	8	Agosto	2023-09-08T00:00:00	2024-11-06T22:00:00	8	Radiación solar	0
112497	7	Sololá	702	San José Chacayá	5	Chacayá	8	Agosto	2023-09-08T00:00:00	2024-11-06T23:00:00	2	Temperatura media	13.1
112498	7	Sololá	702	San José Chacayá	5	Chacayá	8	Agosto	2023-09-08T00:00:00	2024-11-06T23:00:00	4	Temperatura máxima	13.6
112499	7	Sololá	702	San José Chacayá	5	Chacayá	8	Agosto	2023-09-08T00:00:00	2024-11-06T23:00:00	3	Temperatura mínima	13.1
112500	7	Sololá	702	San José Chacayá	5	Chacayá	8	Agosto	2023-09-08T00:00:00	2024-11-06T23:00:00	5	Humedad	94
112501	7	Sololá	702	San José Chacayá	5	Chacayá	8	Agosto	2023-09-08T00:00:00	2024-11-06T23:00:00	6	Velocidad del viento	1.6
112502	7	Sololá	702	San José Chacayá	5	Chacayá	8	Agosto	2023-09-08T00:00:00	2024-11-06T23:00:00	7	Dirección del viento	1.61
112503	7	Sololá	702	San José Chacayá	5	Chacayá	8	Agosto	2023-09-08T00:00:00	2024-11-06T23:00:00	1	Precipitación	0
112504	7	Sololá	702	San José Chacayá	5	Chacayá	8	Agosto	2023-09-08T00:00:00	2024-11-06T23:00:00	8	Radiación solar	0
112505	7	Sololá	702	San José Chacayá	5	Chacayá	8	Agosto	2023-10-08T00:00:00	2024-11-06T00:00:00	2	Temperatura media	12.6
112506	7	Sololá	702	San José Chacayá	5	Chacayá	8	Agosto	2023-10-08T00:00:00	2024-11-06T00:00:00	4	Temperatura máxima	13.1
112507	7	Sololá	702	San José Chacayá	5	Chacayá	8	Agosto	2023-10-08T00:00:00	2024-11-06T00:00:00	3	Temperatura mínima	12.6
112508	7	Sololá	702	San José Chacayá	5	Chacayá	8	Agosto	2023-10-08T00:00:00	2024-11-06T00:00:00	5	Humedad	94
112509	7	Sololá	702	San José Chacayá	5	Chacayá	8	Agosto	2023-10-08T00:00:00	2024-11-06T00:00:00	6	Velocidad del viento	1.6
112510	7	Sololá	702	San José Chacayá	5	Chacayá	8	Agosto	2023-10-08T00:00:00	2024-11-06T00:00:00	7	Dirección del viento	1.61
112511	7	Sololá	702	San José Chacayá	5	Chacayá	8	Agosto	2023-10-08T00:00:00	2024-11-06T00:00:00	1	Precipitación	0
112512	7	Sololá	702	San José Chacayá	5	Chacayá	8	Agosto	2023-10-08T00:00:00	2024-11-06T00:00:00	8	Radiación solar	0
112513	7	Sololá	702	San José Chacayá	5	Chacayá	8	Agosto	2023-10-08T00:00:00	2024-11-06T01:00:00	2	Temperatura media	12.4
112514	7	Sololá	702	San José Chacayá	5	Chacayá	8	Agosto	2023-10-08T00:00:00	2024-11-06T01:00:00	4	Temperatura máxima	12.6
112515	7	Sololá	702	San José Chacayá	5	Chacayá	8	Agosto	2023-10-08T00:00:00	2024-11-06T01:00:00	3	Temperatura mínima	12.4
112516	7	Sololá	702	San José Chacayá	5	Chacayá	8	Agosto	2023-10-08T00:00:00	2024-11-06T01:00:00	5	Humedad	94
112517	7	Sololá	702	San José Chacayá	5	Chacayá	8	Agosto	2023-10-08T00:00:00	2024-11-06T01:00:00	6	Velocidad del viento	1.6
112518	7	Sololá	702	San José Chacayá	5	Chacayá	8	Agosto	2023-10-08T00:00:00	2024-11-06T01:00:00	7	Dirección del viento	1.61
112519	7	Sololá	702	San José Chacayá	5	Chacayá	8	Agosto	2023-10-08T00:00:00	2024-11-06T01:00:00	1	Precipitación	0
112520	7	Sololá	702	San José Chacayá	5	Chacayá	8	Agosto	2023-10-08T00:00:00	2024-11-06T01:00:00	8	Radiación solar	0
112521	7	Sololá	702	San José Chacayá	5	Chacayá	8	Agosto	2023-10-08T00:00:00	2024-11-06T02:00:00	2	Temperatura media	12.3
112522	7	Sololá	702	San José Chacayá	5	Chacayá	8	Agosto	2023-10-08T00:00:00	2024-11-06T02:00:00	4	Temperatura máxima	12.4
112523	7	Sololá	702	San José Chacayá	5	Chacayá	8	Agosto	2023-10-08T00:00:00	2024-11-06T02:00:00	3	Temperatura mínima	12.3
112524	7	Sololá	702	San José Chacayá	5	Chacayá	8	Agosto	2023-10-08T00:00:00	2024-11-06T02:00:00	5	Humedad	94
112525	7	Sololá	702	San José Chacayá	5	Chacayá	8	Agosto	2023-10-08T00:00:00	2024-11-06T02:00:00	6	Velocidad del viento	1.6
112526	7	Sololá	702	San José Chacayá	5	Chacayá	8	Agosto	2023-10-08T00:00:00	2024-11-06T02:00:00	7	Dirección del viento	1.61
112527	7	Sololá	702	San José Chacayá	5	Chacayá	8	Agosto	2023-10-08T00:00:00	2024-11-06T02:00:00	1	Precipitación	0
112528	7	Sololá	702	San José Chacayá	5	Chacayá	8	Agosto	2023-10-08T00:00:00	2024-11-06T02:00:00	8	Radiación solar	0
112529	7	Sololá	702	San José Chacayá	5	Chacayá	8	Agosto	2023-10-08T00:00:00	2024-11-06T03:00:00	2	Temperatura media	11.9
112530	7	Sololá	702	San José Chacayá	5	Chacayá	8	Agosto	2023-10-08T00:00:00	2024-11-06T03:00:00	4	Temperatura máxima	12.3
112531	7	Sololá	702	San José Chacayá	5	Chacayá	8	Agosto	2023-10-08T00:00:00	2024-11-06T03:00:00	3	Temperatura mínima	11.9
112532	7	Sololá	702	San José Chacayá	5	Chacayá	8	Agosto	2023-10-08T00:00:00	2024-11-06T03:00:00	5	Humedad	94
112533	7	Sololá	702	San José Chacayá	5	Chacayá	8	Agosto	2023-10-08T00:00:00	2024-11-06T03:00:00	6	Velocidad del viento	1.6
112534	7	Sololá	702	San José Chacayá	5	Chacayá	8	Agosto	2023-10-08T00:00:00	2024-11-06T03:00:00	7	Dirección del viento	1.61
112535	7	Sololá	702	San José Chacayá	5	Chacayá	8	Agosto	2023-10-08T00:00:00	2024-11-06T03:00:00	1	Precipitación	0
112536	7	Sololá	702	San José Chacayá	5	Chacayá	8	Agosto	2023-10-08T00:00:00	2024-11-06T03:00:00	8	Radiación solar	0
112537	7	Sololá	702	San José Chacayá	5	Chacayá	8	Agosto	2023-10-08T00:00:00	2024-11-06T04:00:00	2	Temperatura media	12.2
112538	7	Sololá	702	San José Chacayá	5	Chacayá	8	Agosto	2023-10-08T00:00:00	2024-11-06T04:00:00	4	Temperatura máxima	12.2
112539	7	Sololá	702	San José Chacayá	5	Chacayá	8	Agosto	2023-10-08T00:00:00	2024-11-06T04:00:00	3	Temperatura mínima	11.9
112540	7	Sololá	702	San José Chacayá	5	Chacayá	8	Agosto	2023-10-08T00:00:00	2024-11-06T04:00:00	5	Humedad	94
112541	7	Sololá	702	San José Chacayá	5	Chacayá	8	Agosto	2023-10-08T00:00:00	2024-11-06T04:00:00	6	Velocidad del viento	1.6
112542	7	Sololá	702	San José Chacayá	5	Chacayá	8	Agosto	2023-10-08T00:00:00	2024-11-06T04:00:00	7	Dirección del viento	1.61
112543	7	Sololá	702	San José Chacayá	5	Chacayá	8	Agosto	2023-10-08T00:00:00	2024-11-06T04:00:00	1	Precipitación	0
112544	7	Sololá	702	San José Chacayá	5	Chacayá	8	Agosto	2023-10-08T00:00:00	2024-11-06T04:00:00	8	Radiación solar	0
112545	7	Sololá	702	San José Chacayá	5	Chacayá	8	Agosto	2023-10-08T00:00:00	2024-11-06T05:00:00	2	Temperatura media	12.1
112546	7	Sololá	702	San José Chacayá	5	Chacayá	8	Agosto	2023-10-08T00:00:00	2024-11-06T05:00:00	4	Temperatura máxima	12.2
112547	7	Sololá	702	San José Chacayá	5	Chacayá	8	Agosto	2023-10-08T00:00:00	2024-11-06T05:00:00	3	Temperatura mínima	12
112548	7	Sololá	702	San José Chacayá	5	Chacayá	8	Agosto	2023-10-08T00:00:00	2024-11-06T05:00:00	5	Humedad	94
112549	7	Sololá	702	San José Chacayá	5	Chacayá	8	Agosto	2023-10-08T00:00:00	2024-11-06T05:00:00	6	Velocidad del viento	0
112550	7	Sololá	702	San José Chacayá	5	Chacayá	8	Agosto	2023-10-08T00:00:00	2024-11-06T05:00:00	7	Dirección del viento	0
112551	7	Sololá	702	San José Chacayá	5	Chacayá	8	Agosto	2023-10-08T00:00:00	2024-11-06T05:00:00	1	Precipitación	0
112552	7	Sololá	702	San José Chacayá	5	Chacayá	8	Agosto	2023-10-08T00:00:00	2024-11-06T05:00:00	8	Radiación solar	0
112553	7	Sololá	702	San José Chacayá	5	Chacayá	8	Agosto	2023-10-08T00:00:00	2024-11-06T06:00:00	2	Temperatura media	11.5
112554	7	Sololá	702	San José Chacayá	5	Chacayá	8	Agosto	2023-10-08T00:00:00	2024-11-06T06:00:00	4	Temperatura máxima	12.1
112555	7	Sololá	702	San José Chacayá	5	Chacayá	8	Agosto	2023-10-08T00:00:00	2024-11-06T06:00:00	3	Temperatura mínima	11.5
112556	7	Sololá	702	San José Chacayá	5	Chacayá	8	Agosto	2023-10-08T00:00:00	2024-11-06T06:00:00	5	Humedad	94
112557	7	Sololá	702	San José Chacayá	5	Chacayá	8	Agosto	2023-10-08T00:00:00	2024-11-06T06:00:00	6	Velocidad del viento	1.6
112558	7	Sololá	702	San José Chacayá	5	Chacayá	8	Agosto	2023-10-08T00:00:00	2024-11-06T06:00:00	7	Dirección del viento	1.61
112559	7	Sololá	702	San José Chacayá	5	Chacayá	8	Agosto	2023-10-08T00:00:00	2024-11-06T06:00:00	1	Precipitación	0
112560	7	Sololá	702	San José Chacayá	5	Chacayá	8	Agosto	2023-10-08T00:00:00	2024-11-06T06:00:00	8	Radiación solar	1
112561	7	Sololá	702	San José Chacayá	5	Chacayá	8	Agosto	2023-10-08T00:00:00	2024-11-06T07:00:00	2	Temperatura media	13.1
112562	7	Sololá	702	San José Chacayá	5	Chacayá	8	Agosto	2023-10-08T00:00:00	2024-11-06T07:00:00	4	Temperatura máxima	13.1
112563	7	Sololá	702	San José Chacayá	5	Chacayá	8	Agosto	2023-10-08T00:00:00	2024-11-06T07:00:00	3	Temperatura mínima	11.5
112564	7	Sololá	702	San José Chacayá	5	Chacayá	8	Agosto	2023-10-08T00:00:00	2024-11-06T07:00:00	5	Humedad	94
112565	7	Sololá	702	San José Chacayá	5	Chacayá	8	Agosto	2023-10-08T00:00:00	2024-11-06T07:00:00	6	Velocidad del viento	1.6
112566	7	Sololá	702	San José Chacayá	5	Chacayá	8	Agosto	2023-10-08T00:00:00	2024-11-06T07:00:00	7	Dirección del viento	1.61
112567	7	Sololá	702	San José Chacayá	5	Chacayá	8	Agosto	2023-10-08T00:00:00	2024-11-06T07:00:00	1	Precipitación	0
112568	7	Sololá	702	San José Chacayá	5	Chacayá	8	Agosto	2023-10-08T00:00:00	2024-11-06T07:00:00	8	Radiación solar	55
112569	7	Sololá	702	San José Chacayá	5	Chacayá	8	Agosto	2023-10-08T00:00:00	2024-11-06T08:00:00	2	Temperatura media	16.2
112570	7	Sololá	702	San José Chacayá	5	Chacayá	8	Agosto	2023-10-08T00:00:00	2024-11-06T08:00:00	4	Temperatura máxima	16.2
112571	7	Sololá	702	San José Chacayá	5	Chacayá	8	Agosto	2023-10-08T00:00:00	2024-11-06T08:00:00	3	Temperatura mínima	13.1
112572	7	Sololá	702	San José Chacayá	5	Chacayá	8	Agosto	2023-10-08T00:00:00	2024-11-06T08:00:00	5	Humedad	84
112573	7	Sololá	702	San José Chacayá	5	Chacayá	8	Agosto	2023-10-08T00:00:00	2024-11-06T08:00:00	6	Velocidad del viento	0
112574	7	Sololá	702	San José Chacayá	5	Chacayá	8	Agosto	2023-10-08T00:00:00	2024-11-06T08:00:00	7	Dirección del viento	0
112575	7	Sololá	702	San José Chacayá	5	Chacayá	8	Agosto	2023-10-08T00:00:00	2024-11-06T08:00:00	1	Precipitación	0
112576	7	Sololá	702	San José Chacayá	5	Chacayá	8	Agosto	2023-10-08T00:00:00	2024-11-06T08:00:00	8	Radiación solar	138
112577	7	Sololá	702	San José Chacayá	5	Chacayá	8	Agosto	2023-10-08T00:00:00	2024-11-06T09:00:00	2	Temperatura media	20.1
112578	7	Sololá	702	San José Chacayá	5	Chacayá	8	Agosto	2023-10-08T00:00:00	2024-11-06T09:00:00	4	Temperatura máxima	20.1
112579	7	Sololá	702	San José Chacayá	5	Chacayá	8	Agosto	2023-10-08T00:00:00	2024-11-06T09:00:00	3	Temperatura mínima	16.2
112580	7	Sololá	702	San José Chacayá	5	Chacayá	8	Agosto	2023-10-08T00:00:00	2024-11-06T09:00:00	5	Humedad	70
112581	7	Sololá	702	San José Chacayá	5	Chacayá	8	Agosto	2023-10-08T00:00:00	2024-11-06T09:00:00	6	Velocidad del viento	1.6
112582	7	Sololá	702	San José Chacayá	5	Chacayá	8	Agosto	2023-10-08T00:00:00	2024-11-06T09:00:00	7	Dirección del viento	1.61
112583	7	Sololá	702	San José Chacayá	5	Chacayá	8	Agosto	2023-10-08T00:00:00	2024-11-06T09:00:00	1	Precipitación	0
112584	7	Sololá	702	San José Chacayá	5	Chacayá	8	Agosto	2023-10-08T00:00:00	2024-11-06T09:00:00	8	Radiación solar	276
112585	7	Sololá	702	San José Chacayá	5	Chacayá	8	Agosto	2023-10-08T00:00:00	2024-11-06T10:00:00	2	Temperatura media	22.7
112586	7	Sololá	702	San José Chacayá	5	Chacayá	8	Agosto	2023-10-08T00:00:00	2024-11-06T10:00:00	4	Temperatura máxima	23
112587	7	Sololá	702	San José Chacayá	5	Chacayá	8	Agosto	2023-10-08T00:00:00	2024-11-06T10:00:00	3	Temperatura mínima	20.1
112588	7	Sololá	702	San José Chacayá	5	Chacayá	8	Agosto	2023-10-08T00:00:00	2024-11-06T10:00:00	5	Humedad	68
112589	7	Sololá	702	San José Chacayá	5	Chacayá	8	Agosto	2023-10-08T00:00:00	2024-11-06T10:00:00	6	Velocidad del viento	4.8
112590	7	Sololá	702	San José Chacayá	5	Chacayá	8	Agosto	2023-10-08T00:00:00	2024-11-06T10:00:00	7	Dirección del viento	4.83
112591	7	Sololá	702	San José Chacayá	5	Chacayá	8	Agosto	2023-10-08T00:00:00	2024-11-06T10:00:00	1	Precipitación	0
112592	7	Sololá	702	San José Chacayá	5	Chacayá	8	Agosto	2023-10-08T00:00:00	2024-11-06T10:00:00	8	Radiación solar	332
112593	7	Sololá	702	San José Chacayá	5	Chacayá	8	Agosto	2023-10-08T00:00:00	2024-11-06T11:00:00	2	Temperatura media	23.3
112594	7	Sololá	702	San José Chacayá	5	Chacayá	8	Agosto	2023-10-08T00:00:00	2024-11-06T11:00:00	4	Temperatura máxima	23.4
112595	7	Sololá	702	San José Chacayá	5	Chacayá	8	Agosto	2023-10-08T00:00:00	2024-11-06T11:00:00	3	Temperatura mínima	22.4
112596	7	Sololá	702	San José Chacayá	5	Chacayá	8	Agosto	2023-10-08T00:00:00	2024-11-06T11:00:00	5	Humedad	67
112597	7	Sololá	702	San José Chacayá	5	Chacayá	8	Agosto	2023-10-08T00:00:00	2024-11-06T11:00:00	6	Velocidad del viento	4.8
112598	7	Sololá	702	San José Chacayá	5	Chacayá	8	Agosto	2023-10-08T00:00:00	2024-11-06T11:00:00	7	Dirección del viento	4.83
112599	7	Sololá	702	San José Chacayá	5	Chacayá	8	Agosto	2023-10-08T00:00:00	2024-11-06T11:00:00	1	Precipitación	0
112600	7	Sololá	702	San José Chacayá	5	Chacayá	8	Agosto	2023-10-08T00:00:00	2024-11-06T11:00:00	8	Radiación solar	563
112601	7	Sololá	702	San José Chacayá	5	Chacayá	8	Agosto	2023-10-08T00:00:00	2024-11-06T12:00:00	2	Temperatura media	23.9
112602	7	Sololá	702	San José Chacayá	5	Chacayá	8	Agosto	2023-10-08T00:00:00	2024-11-06T12:00:00	4	Temperatura máxima	23.9
112603	7	Sololá	702	San José Chacayá	5	Chacayá	8	Agosto	2023-10-08T00:00:00	2024-11-06T12:00:00	3	Temperatura mínima	23.3
112604	7	Sololá	702	San José Chacayá	5	Chacayá	8	Agosto	2023-10-08T00:00:00	2024-11-06T12:00:00	5	Humedad	62
112605	7	Sololá	702	San José Chacayá	5	Chacayá	8	Agosto	2023-10-08T00:00:00	2024-11-06T12:00:00	6	Velocidad del viento	4.8
112606	7	Sololá	702	San José Chacayá	5	Chacayá	8	Agosto	2023-10-08T00:00:00	2024-11-06T12:00:00	7	Dirección del viento	4.83
112607	7	Sololá	702	San José Chacayá	5	Chacayá	8	Agosto	2023-10-08T00:00:00	2024-11-06T12:00:00	1	Precipitación	0
112608	7	Sololá	702	San José Chacayá	5	Chacayá	8	Agosto	2023-10-08T00:00:00	2024-11-06T12:00:00	8	Radiación solar	457
112609	7	Sololá	702	San José Chacayá	5	Chacayá	8	Agosto	2023-10-08T00:00:00	2024-11-06T13:00:00	2	Temperatura media	21.1
112610	7	Sololá	702	San José Chacayá	5	Chacayá	8	Agosto	2023-10-08T00:00:00	2024-11-06T13:00:00	4	Temperatura máxima	24
112611	7	Sololá	702	San José Chacayá	5	Chacayá	8	Agosto	2023-10-08T00:00:00	2024-11-06T13:00:00	3	Temperatura mínima	21
112612	7	Sololá	702	San José Chacayá	5	Chacayá	8	Agosto	2023-10-08T00:00:00	2024-11-06T13:00:00	5	Humedad	78
112613	7	Sololá	702	San José Chacayá	5	Chacayá	8	Agosto	2023-10-08T00:00:00	2024-11-06T13:00:00	6	Velocidad del viento	3.2
112614	7	Sololá	702	San José Chacayá	5	Chacayá	8	Agosto	2023-10-08T00:00:00	2024-11-06T13:00:00	7	Dirección del viento	3.22
112615	7	Sololá	702	San José Chacayá	5	Chacayá	8	Agosto	2023-10-08T00:00:00	2024-11-06T13:00:00	1	Precipitación	0
112616	7	Sololá	702	San José Chacayá	5	Chacayá	8	Agosto	2023-10-08T00:00:00	2024-11-06T13:00:00	8	Radiación solar	298
112617	7	Sololá	702	San José Chacayá	5	Chacayá	8	Agosto	2023-10-08T00:00:00	2024-11-06T14:00:00	2	Temperatura media	19.4
112618	7	Sololá	702	San José Chacayá	5	Chacayá	8	Agosto	2023-10-08T00:00:00	2024-11-06T14:00:00	4	Temperatura máxima	21.1
112619	7	Sololá	702	San José Chacayá	5	Chacayá	8	Agosto	2023-10-08T00:00:00	2024-11-06T14:00:00	3	Temperatura mínima	19.4
112620	7	Sololá	702	San José Chacayá	5	Chacayá	8	Agosto	2023-10-08T00:00:00	2024-11-06T14:00:00	5	Humedad	84
112621	7	Sololá	702	San José Chacayá	5	Chacayá	8	Agosto	2023-10-08T00:00:00	2024-11-06T14:00:00	6	Velocidad del viento	3.2
112622	7	Sololá	702	San José Chacayá	5	Chacayá	8	Agosto	2023-10-08T00:00:00	2024-11-06T14:00:00	7	Dirección del viento	3.22
112623	7	Sololá	702	San José Chacayá	5	Chacayá	8	Agosto	2023-10-08T00:00:00	2024-11-06T14:00:00	1	Precipitación	0
112624	7	Sololá	702	San José Chacayá	5	Chacayá	8	Agosto	2023-10-08T00:00:00	2024-11-06T14:00:00	8	Radiación solar	542
112625	7	Sololá	702	San José Chacayá	5	Chacayá	8	Agosto	2023-10-08T00:00:00	2024-11-06T15:00:00	2	Temperatura media	19.1
112626	7	Sololá	702	San José Chacayá	5	Chacayá	8	Agosto	2023-10-08T00:00:00	2024-11-06T15:00:00	4	Temperatura máxima	19.4
112627	7	Sololá	702	San José Chacayá	5	Chacayá	8	Agosto	2023-10-08T00:00:00	2024-11-06T15:00:00	3	Temperatura mínima	18.8
112628	7	Sololá	702	San José Chacayá	5	Chacayá	8	Agosto	2023-10-08T00:00:00	2024-11-06T15:00:00	5	Humedad	85
112629	7	Sololá	702	San José Chacayá	5	Chacayá	8	Agosto	2023-10-08T00:00:00	2024-11-06T15:00:00	6	Velocidad del viento	3.2
112630	7	Sololá	702	San José Chacayá	5	Chacayá	8	Agosto	2023-10-08T00:00:00	2024-11-06T15:00:00	7	Dirección del viento	3.22
112631	7	Sololá	702	San José Chacayá	5	Chacayá	8	Agosto	2023-10-08T00:00:00	2024-11-06T15:00:00	1	Precipitación	0
112632	7	Sololá	702	San José Chacayá	5	Chacayá	8	Agosto	2023-10-08T00:00:00	2024-11-06T15:00:00	8	Radiación solar	269
112633	7	Sololá	702	San José Chacayá	5	Chacayá	8	Agosto	2023-10-08T00:00:00	2024-11-06T16:00:00	2	Temperatura media	19.8
112634	7	Sololá	702	San José Chacayá	5	Chacayá	8	Agosto	2023-10-08T00:00:00	2024-11-06T16:00:00	4	Temperatura máxima	19.8
112635	7	Sololá	702	San José Chacayá	5	Chacayá	8	Agosto	2023-10-08T00:00:00	2024-11-06T16:00:00	3	Temperatura mínima	19.1
112636	7	Sololá	702	San José Chacayá	5	Chacayá	8	Agosto	2023-10-08T00:00:00	2024-11-06T16:00:00	5	Humedad	84
112637	7	Sololá	702	San José Chacayá	5	Chacayá	8	Agosto	2023-10-08T00:00:00	2024-11-06T16:00:00	6	Velocidad del viento	1.6
112638	7	Sololá	702	San José Chacayá	5	Chacayá	8	Agosto	2023-10-08T00:00:00	2024-11-06T16:00:00	7	Dirección del viento	1.61
112639	7	Sololá	702	San José Chacayá	5	Chacayá	8	Agosto	2023-10-08T00:00:00	2024-11-06T16:00:00	1	Precipitación	0
112640	7	Sololá	702	San José Chacayá	5	Chacayá	8	Agosto	2023-10-08T00:00:00	2024-11-06T16:00:00	8	Radiación solar	188
112641	7	Sololá	702	San José Chacayá	5	Chacayá	8	Agosto	2023-10-08T00:00:00	2024-11-06T17:00:00	2	Temperatura media	20.2
112642	7	Sololá	702	San José Chacayá	5	Chacayá	8	Agosto	2023-10-08T00:00:00	2024-11-06T17:00:00	4	Temperatura máxima	20.6
112643	7	Sololá	702	San José Chacayá	5	Chacayá	8	Agosto	2023-10-08T00:00:00	2024-11-06T17:00:00	3	Temperatura mínima	19.8
112644	7	Sololá	702	San José Chacayá	5	Chacayá	8	Agosto	2023-10-08T00:00:00	2024-11-06T17:00:00	5	Humedad	75
112645	7	Sololá	702	San José Chacayá	5	Chacayá	8	Agosto	2023-10-08T00:00:00	2024-11-06T17:00:00	6	Velocidad del viento	1.6
112646	7	Sololá	702	San José Chacayá	5	Chacayá	8	Agosto	2023-10-08T00:00:00	2024-11-06T17:00:00	7	Dirección del viento	1.61
112647	7	Sololá	702	San José Chacayá	5	Chacayá	8	Agosto	2023-10-08T00:00:00	2024-11-06T17:00:00	1	Precipitación	0
112648	7	Sololá	702	San José Chacayá	5	Chacayá	8	Agosto	2023-10-08T00:00:00	2024-11-06T17:00:00	8	Radiación solar	82
112649	7	Sololá	702	San José Chacayá	5	Chacayá	8	Agosto	2023-10-08T00:00:00	2024-11-06T18:00:00	2	Temperatura media	18.6
112650	7	Sololá	702	San José Chacayá	5	Chacayá	8	Agosto	2023-10-08T00:00:00	2024-11-06T18:00:00	4	Temperatura máxima	20.2
112651	7	Sololá	702	San José Chacayá	5	Chacayá	8	Agosto	2023-10-08T00:00:00	2024-11-06T18:00:00	3	Temperatura mínima	18.6
112652	7	Sololá	702	San José Chacayá	5	Chacayá	8	Agosto	2023-10-08T00:00:00	2024-11-06T18:00:00	5	Humedad	76
112653	7	Sololá	702	San José Chacayá	5	Chacayá	8	Agosto	2023-10-08T00:00:00	2024-11-06T18:00:00	6	Velocidad del viento	3.2
112654	7	Sololá	702	San José Chacayá	5	Chacayá	8	Agosto	2023-10-08T00:00:00	2024-11-06T18:00:00	7	Dirección del viento	3.22
112655	7	Sololá	702	San José Chacayá	5	Chacayá	8	Agosto	2023-10-08T00:00:00	2024-11-06T18:00:00	1	Precipitación	0
112656	7	Sololá	702	San José Chacayá	5	Chacayá	8	Agosto	2023-10-08T00:00:00	2024-11-06T18:00:00	8	Radiación solar	57
112657	7	Sololá	702	San José Chacayá	5	Chacayá	8	Agosto	2023-10-08T00:00:00	2024-11-06T19:00:00	2	Temperatura media	16.6
112658	7	Sololá	702	San José Chacayá	5	Chacayá	8	Agosto	2023-10-08T00:00:00	2024-11-06T19:00:00	4	Temperatura máxima	18.6
112659	7	Sololá	702	San José Chacayá	5	Chacayá	8	Agosto	2023-10-08T00:00:00	2024-11-06T19:00:00	3	Temperatura mínima	16.6
112660	7	Sololá	702	San José Chacayá	5	Chacayá	8	Agosto	2023-10-08T00:00:00	2024-11-06T19:00:00	5	Humedad	83
112661	7	Sololá	702	San José Chacayá	5	Chacayá	8	Agosto	2023-10-08T00:00:00	2024-11-06T19:00:00	6	Velocidad del viento	1.6
112662	7	Sololá	702	San José Chacayá	5	Chacayá	8	Agosto	2023-10-08T00:00:00	2024-11-06T19:00:00	7	Dirección del viento	1.61
112663	7	Sololá	702	San José Chacayá	5	Chacayá	8	Agosto	2023-10-08T00:00:00	2024-11-06T19:00:00	1	Precipitación	0
112664	7	Sololá	702	San José Chacayá	5	Chacayá	8	Agosto	2023-10-08T00:00:00	2024-11-06T19:00:00	8	Radiación solar	0
112665	7	Sololá	702	San José Chacayá	5	Chacayá	8	Agosto	2023-10-08T00:00:00	2024-11-06T20:00:00	2	Temperatura media	15.6
112666	7	Sololá	702	San José Chacayá	5	Chacayá	8	Agosto	2023-10-08T00:00:00	2024-11-06T20:00:00	4	Temperatura máxima	16.6
112667	7	Sololá	702	San José Chacayá	5	Chacayá	8	Agosto	2023-10-08T00:00:00	2024-11-06T20:00:00	3	Temperatura mínima	15.6
112668	7	Sololá	702	San José Chacayá	5	Chacayá	8	Agosto	2023-10-08T00:00:00	2024-11-06T20:00:00	5	Humedad	87
112669	7	Sololá	702	San José Chacayá	5	Chacayá	8	Agosto	2023-10-08T00:00:00	2024-11-06T20:00:00	6	Velocidad del viento	1.6
112670	7	Sololá	702	San José Chacayá	5	Chacayá	8	Agosto	2023-10-08T00:00:00	2024-11-06T20:00:00	7	Dirección del viento	1.61
112671	7	Sololá	702	San José Chacayá	5	Chacayá	8	Agosto	2023-10-08T00:00:00	2024-11-06T20:00:00	1	Precipitación	0
112672	7	Sololá	702	San José Chacayá	5	Chacayá	8	Agosto	2023-10-08T00:00:00	2024-11-06T20:00:00	8	Radiación solar	0
112673	7	Sololá	702	San José Chacayá	5	Chacayá	8	Agosto	2023-10-08T00:00:00	2024-11-06T21:00:00	2	Temperatura media	14.2
112674	7	Sololá	702	San José Chacayá	5	Chacayá	8	Agosto	2023-10-08T00:00:00	2024-11-06T21:00:00	4	Temperatura máxima	15.5
112675	7	Sololá	702	San José Chacayá	5	Chacayá	8	Agosto	2023-10-08T00:00:00	2024-11-06T21:00:00	3	Temperatura mínima	14.2
112676	7	Sololá	702	San José Chacayá	5	Chacayá	8	Agosto	2023-10-08T00:00:00	2024-11-06T21:00:00	5	Humedad	89
112677	7	Sololá	702	San José Chacayá	5	Chacayá	8	Agosto	2023-10-08T00:00:00	2024-11-06T21:00:00	6	Velocidad del viento	1.6
112678	7	Sololá	702	San José Chacayá	5	Chacayá	8	Agosto	2023-10-08T00:00:00	2024-11-06T21:00:00	7	Dirección del viento	1.61
112679	7	Sololá	702	San José Chacayá	5	Chacayá	8	Agosto	2023-10-08T00:00:00	2024-11-06T21:00:00	1	Precipitación	0
112680	7	Sololá	702	San José Chacayá	5	Chacayá	8	Agosto	2023-10-08T00:00:00	2024-11-06T21:00:00	8	Radiación solar	0
112681	7	Sololá	702	San José Chacayá	5	Chacayá	8	Agosto	2023-10-08T00:00:00	2024-11-06T22:00:00	2	Temperatura media	13.1
112682	7	Sololá	702	San José Chacayá	5	Chacayá	8	Agosto	2023-10-08T00:00:00	2024-11-06T22:00:00	4	Temperatura máxima	14.2
112683	7	Sololá	702	San José Chacayá	5	Chacayá	8	Agosto	2023-10-08T00:00:00	2024-11-06T22:00:00	3	Temperatura mínima	13.1
112684	7	Sololá	702	San José Chacayá	5	Chacayá	8	Agosto	2023-10-08T00:00:00	2024-11-06T22:00:00	5	Humedad	90
112685	7	Sololá	702	San José Chacayá	5	Chacayá	8	Agosto	2023-10-08T00:00:00	2024-11-06T22:00:00	6	Velocidad del viento	1.6
112686	7	Sololá	702	San José Chacayá	5	Chacayá	8	Agosto	2023-10-08T00:00:00	2024-11-06T22:00:00	7	Dirección del viento	1.61
112687	7	Sololá	702	San José Chacayá	5	Chacayá	8	Agosto	2023-10-08T00:00:00	2024-11-06T22:00:00	1	Precipitación	0
112688	7	Sololá	702	San José Chacayá	5	Chacayá	8	Agosto	2023-10-08T00:00:00	2024-11-06T22:00:00	8	Radiación solar	0
112689	7	Sololá	702	San José Chacayá	5	Chacayá	8	Agosto	2023-10-08T00:00:00	2024-11-06T23:00:00	2	Temperatura media	12.4
112690	7	Sololá	702	San José Chacayá	5	Chacayá	8	Agosto	2023-10-08T00:00:00	2024-11-06T23:00:00	4	Temperatura máxima	13.1
112691	7	Sololá	702	San José Chacayá	5	Chacayá	8	Agosto	2023-10-08T00:00:00	2024-11-06T23:00:00	3	Temperatura mínima	12.4
112692	7	Sololá	702	San José Chacayá	5	Chacayá	8	Agosto	2023-10-08T00:00:00	2024-11-06T23:00:00	5	Humedad	91
112693	7	Sololá	702	San José Chacayá	5	Chacayá	8	Agosto	2023-10-08T00:00:00	2024-11-06T23:00:00	6	Velocidad del viento	0
112694	7	Sololá	702	San José Chacayá	5	Chacayá	8	Agosto	2023-10-08T00:00:00	2024-11-06T23:00:00	7	Dirección del viento	0
112695	7	Sololá	702	San José Chacayá	5	Chacayá	8	Agosto	2023-10-08T00:00:00	2024-11-06T23:00:00	1	Precipitación	0
112696	7	Sololá	702	San José Chacayá	5	Chacayá	8	Agosto	2023-10-08T00:00:00	2024-11-06T23:00:00	8	Radiación solar	0
112697	7	Sololá	702	San José Chacayá	5	Chacayá	8	Agosto	2023-11-08T00:00:00	2024-11-06T00:00:00	2	Temperatura media	12.2
112698	7	Sololá	702	San José Chacayá	5	Chacayá	8	Agosto	2023-11-08T00:00:00	2024-11-06T00:00:00	4	Temperatura máxima	12.5
112699	7	Sololá	702	San José Chacayá	5	Chacayá	8	Agosto	2023-11-08T00:00:00	2024-11-06T00:00:00	3	Temperatura mínima	12.2
112700	7	Sololá	702	San José Chacayá	5	Chacayá	8	Agosto	2023-11-08T00:00:00	2024-11-06T00:00:00	5	Humedad	91
112701	7	Sololá	702	San José Chacayá	5	Chacayá	8	Agosto	2023-11-08T00:00:00	2024-11-06T00:00:00	6	Velocidad del viento	1.6
112702	7	Sololá	702	San José Chacayá	5	Chacayá	8	Agosto	2023-11-08T00:00:00	2024-11-06T00:00:00	7	Dirección del viento	1.61
112703	7	Sololá	702	San José Chacayá	5	Chacayá	8	Agosto	2023-11-08T00:00:00	2024-11-06T00:00:00	1	Precipitación	0
112704	7	Sololá	702	San José Chacayá	5	Chacayá	8	Agosto	2023-11-08T00:00:00	2024-11-06T00:00:00	8	Radiación solar	0
112705	7	Sololá	702	San José Chacayá	5	Chacayá	8	Agosto	2023-11-08T00:00:00	2024-11-06T01:00:00	2	Temperatura media	11.9
112706	7	Sololá	702	San José Chacayá	5	Chacayá	8	Agosto	2023-11-08T00:00:00	2024-11-06T01:00:00	4	Temperatura máxima	12.2
112707	7	Sololá	702	San José Chacayá	5	Chacayá	8	Agosto	2023-11-08T00:00:00	2024-11-06T01:00:00	3	Temperatura mínima	11.8
112708	7	Sololá	702	San José Chacayá	5	Chacayá	8	Agosto	2023-11-08T00:00:00	2024-11-06T01:00:00	5	Humedad	91
112709	7	Sololá	702	San José Chacayá	5	Chacayá	8	Agosto	2023-11-08T00:00:00	2024-11-06T01:00:00	6	Velocidad del viento	1.6
112710	7	Sololá	702	San José Chacayá	5	Chacayá	8	Agosto	2023-11-08T00:00:00	2024-11-06T01:00:00	7	Dirección del viento	1.61
112711	7	Sololá	702	San José Chacayá	5	Chacayá	8	Agosto	2023-11-08T00:00:00	2024-11-06T01:00:00	1	Precipitación	0
112712	7	Sololá	702	San José Chacayá	5	Chacayá	8	Agosto	2023-11-08T00:00:00	2024-11-06T01:00:00	8	Radiación solar	0
112713	7	Sololá	702	San José Chacayá	5	Chacayá	8	Agosto	2023-11-08T00:00:00	2024-11-06T02:00:00	2	Temperatura media	11.4
112714	7	Sololá	702	San José Chacayá	5	Chacayá	8	Agosto	2023-11-08T00:00:00	2024-11-06T02:00:00	4	Temperatura máxima	11.9
112715	7	Sololá	702	San José Chacayá	5	Chacayá	8	Agosto	2023-11-08T00:00:00	2024-11-06T02:00:00	3	Temperatura mínima	11.4
112716	7	Sololá	702	San José Chacayá	5	Chacayá	8	Agosto	2023-11-08T00:00:00	2024-11-06T02:00:00	5	Humedad	91
112717	7	Sololá	702	San José Chacayá	5	Chacayá	8	Agosto	2023-11-08T00:00:00	2024-11-06T02:00:00	6	Velocidad del viento	1.6
112718	7	Sololá	702	San José Chacayá	5	Chacayá	8	Agosto	2023-11-08T00:00:00	2024-11-06T02:00:00	7	Dirección del viento	1.61
112719	7	Sololá	702	San José Chacayá	5	Chacayá	8	Agosto	2023-11-08T00:00:00	2024-11-06T02:00:00	1	Precipitación	0
112720	7	Sololá	702	San José Chacayá	5	Chacayá	8	Agosto	2023-11-08T00:00:00	2024-11-06T02:00:00	8	Radiación solar	0
112721	7	Sololá	702	San José Chacayá	5	Chacayá	8	Agosto	2023-11-08T00:00:00	2024-11-06T03:00:00	2	Temperatura media	10.9
112722	7	Sololá	702	San José Chacayá	5	Chacayá	8	Agosto	2023-11-08T00:00:00	2024-11-06T03:00:00	4	Temperatura máxima	11.4
112723	7	Sololá	702	San José Chacayá	5	Chacayá	8	Agosto	2023-11-08T00:00:00	2024-11-06T03:00:00	3	Temperatura mínima	10.9
112724	7	Sololá	702	San José Chacayá	5	Chacayá	8	Agosto	2023-11-08T00:00:00	2024-11-06T03:00:00	5	Humedad	89
112725	7	Sololá	702	San José Chacayá	5	Chacayá	8	Agosto	2023-11-08T00:00:00	2024-11-06T03:00:00	6	Velocidad del viento	1.6
112726	7	Sololá	702	San José Chacayá	5	Chacayá	8	Agosto	2023-11-08T00:00:00	2024-11-06T03:00:00	7	Dirección del viento	1.61
112727	7	Sololá	702	San José Chacayá	5	Chacayá	8	Agosto	2023-11-08T00:00:00	2024-11-06T03:00:00	1	Precipitación	0
112728	7	Sololá	702	San José Chacayá	5	Chacayá	8	Agosto	2023-11-08T00:00:00	2024-11-06T03:00:00	8	Radiación solar	0
112729	7	Sololá	702	San José Chacayá	5	Chacayá	8	Agosto	2023-11-08T00:00:00	2024-11-06T04:00:00	2	Temperatura media	10.3
112730	7	Sololá	702	San José Chacayá	5	Chacayá	8	Agosto	2023-11-08T00:00:00	2024-11-06T04:00:00	4	Temperatura máxima	10.9
112731	7	Sololá	702	San José Chacayá	5	Chacayá	8	Agosto	2023-11-08T00:00:00	2024-11-06T04:00:00	3	Temperatura mínima	10.3
112732	7	Sololá	702	San José Chacayá	5	Chacayá	8	Agosto	2023-11-08T00:00:00	2024-11-06T04:00:00	5	Humedad	90
112733	7	Sololá	702	San José Chacayá	5	Chacayá	8	Agosto	2023-11-08T00:00:00	2024-11-06T04:00:00	6	Velocidad del viento	1.6
112734	7	Sololá	702	San José Chacayá	5	Chacayá	8	Agosto	2023-11-08T00:00:00	2024-11-06T04:00:00	7	Dirección del viento	1.61
112735	7	Sololá	702	San José Chacayá	5	Chacayá	8	Agosto	2023-11-08T00:00:00	2024-11-06T04:00:00	1	Precipitación	0
112736	7	Sololá	702	San José Chacayá	5	Chacayá	8	Agosto	2023-11-08T00:00:00	2024-11-06T04:00:00	8	Radiación solar	0
112737	7	Sololá	702	San José Chacayá	5	Chacayá	8	Agosto	2023-11-08T00:00:00	2024-11-06T05:00:00	2	Temperatura media	10
112738	7	Sololá	702	San José Chacayá	5	Chacayá	8	Agosto	2023-11-08T00:00:00	2024-11-06T05:00:00	4	Temperatura máxima	10.3
112739	7	Sololá	702	San José Chacayá	5	Chacayá	8	Agosto	2023-11-08T00:00:00	2024-11-06T05:00:00	3	Temperatura mínima	9.9
112740	7	Sololá	702	San José Chacayá	5	Chacayá	8	Agosto	2023-11-08T00:00:00	2024-11-06T05:00:00	5	Humedad	90
112741	7	Sololá	702	San José Chacayá	5	Chacayá	8	Agosto	2023-11-08T00:00:00	2024-11-06T05:00:00	6	Velocidad del viento	1.6
112742	7	Sololá	702	San José Chacayá	5	Chacayá	8	Agosto	2023-11-08T00:00:00	2024-11-06T05:00:00	7	Dirección del viento	1.61
112743	7	Sololá	702	San José Chacayá	5	Chacayá	8	Agosto	2023-11-08T00:00:00	2024-11-06T05:00:00	1	Precipitación	0
112744	7	Sololá	702	San José Chacayá	5	Chacayá	8	Agosto	2023-11-08T00:00:00	2024-11-06T05:00:00	8	Radiación solar	0
112745	7	Sololá	702	San José Chacayá	5	Chacayá	8	Agosto	2023-11-08T00:00:00	2024-11-06T06:00:00	2	Temperatura media	9.9
112746	7	Sololá	702	San José Chacayá	5	Chacayá	8	Agosto	2023-11-08T00:00:00	2024-11-06T06:00:00	4	Temperatura máxima	10.2
112747	7	Sololá	702	San José Chacayá	5	Chacayá	8	Agosto	2023-11-08T00:00:00	2024-11-06T06:00:00	3	Temperatura mínima	9.8
112748	7	Sololá	702	San José Chacayá	5	Chacayá	8	Agosto	2023-11-08T00:00:00	2024-11-06T06:00:00	5	Humedad	89
112749	7	Sololá	702	San José Chacayá	5	Chacayá	8	Agosto	2023-11-08T00:00:00	2024-11-06T06:00:00	6	Velocidad del viento	1.6
112750	7	Sololá	702	San José Chacayá	5	Chacayá	8	Agosto	2023-11-08T00:00:00	2024-11-06T06:00:00	7	Dirección del viento	1.61
112751	7	Sololá	702	San José Chacayá	5	Chacayá	8	Agosto	2023-11-08T00:00:00	2024-11-06T06:00:00	1	Precipitación	0
112752	7	Sololá	702	San José Chacayá	5	Chacayá	8	Agosto	2023-11-08T00:00:00	2024-11-06T06:00:00	8	Radiación solar	3
112753	7	Sololá	702	San José Chacayá	5	Chacayá	8	Agosto	2023-11-08T00:00:00	2024-11-06T07:00:00	2	Temperatura media	11.2
112754	7	Sololá	702	San José Chacayá	5	Chacayá	8	Agosto	2023-11-08T00:00:00	2024-11-06T07:00:00	4	Temperatura máxima	11.2
112755	7	Sololá	702	San José Chacayá	5	Chacayá	8	Agosto	2023-11-08T00:00:00	2024-11-06T07:00:00	3	Temperatura mínima	9.8
112756	7	Sololá	702	San José Chacayá	5	Chacayá	8	Agosto	2023-11-08T00:00:00	2024-11-06T07:00:00	5	Humedad	89
112757	7	Sololá	702	San José Chacayá	5	Chacayá	8	Agosto	2023-11-08T00:00:00	2024-11-06T07:00:00	6	Velocidad del viento	1.6
112758	7	Sololá	702	San José Chacayá	5	Chacayá	8	Agosto	2023-11-08T00:00:00	2024-11-06T07:00:00	7	Dirección del viento	1.61
112759	7	Sololá	702	San José Chacayá	5	Chacayá	8	Agosto	2023-11-08T00:00:00	2024-11-06T07:00:00	1	Precipitación	0
112760	7	Sololá	702	San José Chacayá	5	Chacayá	8	Agosto	2023-11-08T00:00:00	2024-11-06T07:00:00	8	Radiación solar	56
112761	7	Sololá	702	San José Chacayá	5	Chacayá	8	Agosto	2023-11-08T00:00:00	2024-11-06T08:00:00	2	Temperatura media	16.3
112762	7	Sololá	702	San José Chacayá	5	Chacayá	8	Agosto	2023-11-08T00:00:00	2024-11-06T08:00:00	4	Temperatura máxima	16.3
112763	7	Sololá	702	San José Chacayá	5	Chacayá	8	Agosto	2023-11-08T00:00:00	2024-11-06T08:00:00	3	Temperatura mínima	11.2
112764	7	Sololá	702	San José Chacayá	5	Chacayá	8	Agosto	2023-11-08T00:00:00	2024-11-06T08:00:00	5	Humedad	75
112765	7	Sololá	702	San José Chacayá	5	Chacayá	8	Agosto	2023-11-08T00:00:00	2024-11-06T08:00:00	6	Velocidad del viento	1.6
112766	7	Sololá	702	San José Chacayá	5	Chacayá	8	Agosto	2023-11-08T00:00:00	2024-11-06T08:00:00	7	Dirección del viento	1.61
112767	7	Sololá	702	San José Chacayá	5	Chacayá	8	Agosto	2023-11-08T00:00:00	2024-11-06T08:00:00	1	Precipitación	0
112768	7	Sololá	702	San José Chacayá	5	Chacayá	8	Agosto	2023-11-08T00:00:00	2024-11-06T08:00:00	8	Radiación solar	113
112769	7	Sololá	702	San José Chacayá	5	Chacayá	8	Agosto	2023-11-08T00:00:00	2024-11-06T09:00:00	2	Temperatura media	20.3
112770	7	Sololá	702	San José Chacayá	5	Chacayá	8	Agosto	2023-11-08T00:00:00	2024-11-06T09:00:00	4	Temperatura máxima	20.3
112771	7	Sololá	702	San José Chacayá	5	Chacayá	8	Agosto	2023-11-08T00:00:00	2024-11-06T09:00:00	3	Temperatura mínima	16.4
112772	7	Sololá	702	San José Chacayá	5	Chacayá	8	Agosto	2023-11-08T00:00:00	2024-11-06T09:00:00	5	Humedad	60
112773	7	Sololá	702	San José Chacayá	5	Chacayá	8	Agosto	2023-11-08T00:00:00	2024-11-06T09:00:00	6	Velocidad del viento	1.6
112774	7	Sololá	702	San José Chacayá	5	Chacayá	8	Agosto	2023-11-08T00:00:00	2024-11-06T09:00:00	7	Dirección del viento	1.61
112775	7	Sololá	702	San José Chacayá	5	Chacayá	8	Agosto	2023-11-08T00:00:00	2024-11-06T09:00:00	1	Precipitación	0
112776	7	Sololá	702	San José Chacayá	5	Chacayá	8	Agosto	2023-11-08T00:00:00	2024-11-06T09:00:00	8	Radiación solar	339
112777	7	Sololá	702	San José Chacayá	5	Chacayá	8	Agosto	2023-11-08T00:00:00	2024-11-06T10:00:00	2	Temperatura media	21.2
112778	7	Sololá	702	San José Chacayá	5	Chacayá	8	Agosto	2023-11-08T00:00:00	2024-11-06T10:00:00	4	Temperatura máxima	21.6
112779	7	Sololá	702	San José Chacayá	5	Chacayá	8	Agosto	2023-11-08T00:00:00	2024-11-06T10:00:00	3	Temperatura mínima	20.3
112780	7	Sololá	702	San José Chacayá	5	Chacayá	8	Agosto	2023-11-08T00:00:00	2024-11-06T10:00:00	5	Humedad	60
112781	7	Sololá	702	San José Chacayá	5	Chacayá	8	Agosto	2023-11-08T00:00:00	2024-11-06T10:00:00	6	Velocidad del viento	3.2
112782	7	Sololá	702	San José Chacayá	5	Chacayá	8	Agosto	2023-11-08T00:00:00	2024-11-06T10:00:00	7	Dirección del viento	3.22
112783	7	Sololá	702	San José Chacayá	5	Chacayá	8	Agosto	2023-11-08T00:00:00	2024-11-06T10:00:00	1	Precipitación	0
112784	7	Sololá	702	San José Chacayá	5	Chacayá	8	Agosto	2023-11-08T00:00:00	2024-11-06T10:00:00	8	Radiación solar	574
112785	7	Sololá	702	San José Chacayá	5	Chacayá	8	Agosto	2023-11-08T00:00:00	2024-11-06T11:00:00	2	Temperatura media	21.4
112786	7	Sololá	702	San José Chacayá	5	Chacayá	8	Agosto	2023-11-08T00:00:00	2024-11-06T11:00:00	4	Temperatura máxima	21.7
112787	7	Sololá	702	San José Chacayá	5	Chacayá	8	Agosto	2023-11-08T00:00:00	2024-11-06T11:00:00	3	Temperatura mínima	20.9
112788	7	Sololá	702	San José Chacayá	5	Chacayá	8	Agosto	2023-11-08T00:00:00	2024-11-06T11:00:00	5	Humedad	68
112789	7	Sololá	702	San José Chacayá	5	Chacayá	8	Agosto	2023-11-08T00:00:00	2024-11-06T11:00:00	6	Velocidad del viento	3.2
112790	7	Sololá	702	San José Chacayá	5	Chacayá	8	Agosto	2023-11-08T00:00:00	2024-11-06T11:00:00	7	Dirección del viento	3.22
112791	7	Sololá	702	San José Chacayá	5	Chacayá	8	Agosto	2023-11-08T00:00:00	2024-11-06T11:00:00	1	Precipitación	0
112792	7	Sololá	702	San José Chacayá	5	Chacayá	8	Agosto	2023-11-08T00:00:00	2024-11-06T11:00:00	8	Radiación solar	483
112793	7	Sololá	702	San José Chacayá	5	Chacayá	8	Agosto	2023-11-08T00:00:00	2024-11-06T12:00:00	2	Temperatura media	22.3
112794	7	Sololá	702	San José Chacayá	5	Chacayá	8	Agosto	2023-11-08T00:00:00	2024-11-06T12:00:00	4	Temperatura máxima	23.7
112795	7	Sololá	702	San José Chacayá	5	Chacayá	8	Agosto	2023-11-08T00:00:00	2024-11-06T12:00:00	3	Temperatura mínima	21.3
112796	7	Sololá	702	San José Chacayá	5	Chacayá	8	Agosto	2023-11-08T00:00:00	2024-11-06T12:00:00	5	Humedad	62
112797	7	Sololá	702	San José Chacayá	5	Chacayá	8	Agosto	2023-11-08T00:00:00	2024-11-06T12:00:00	6	Velocidad del viento	4.8
112798	7	Sololá	702	San José Chacayá	5	Chacayá	8	Agosto	2023-11-08T00:00:00	2024-11-06T12:00:00	7	Dirección del viento	4.83
112799	7	Sololá	702	San José Chacayá	5	Chacayá	8	Agosto	2023-11-08T00:00:00	2024-11-06T12:00:00	1	Precipitación	0
112800	7	Sololá	702	San José Chacayá	5	Chacayá	8	Agosto	2023-11-08T00:00:00	2024-11-06T12:00:00	8	Radiación solar	500
112801	7	Sololá	702	San José Chacayá	5	Chacayá	8	Agosto	2023-11-08T00:00:00	2024-11-06T13:00:00	2	Temperatura media	23.3
112802	7	Sololá	702	San José Chacayá	5	Chacayá	8	Agosto	2023-11-08T00:00:00	2024-11-06T13:00:00	4	Temperatura máxima	23.4
112803	7	Sololá	702	San José Chacayá	5	Chacayá	8	Agosto	2023-11-08T00:00:00	2024-11-06T13:00:00	3	Temperatura mínima	22.3
112804	7	Sololá	702	San José Chacayá	5	Chacayá	8	Agosto	2023-11-08T00:00:00	2024-11-06T13:00:00	5	Humedad	66
112805	7	Sololá	702	San José Chacayá	5	Chacayá	8	Agosto	2023-11-08T00:00:00	2024-11-06T13:00:00	6	Velocidad del viento	4.8
112806	7	Sololá	702	San José Chacayá	5	Chacayá	8	Agosto	2023-11-08T00:00:00	2024-11-06T13:00:00	7	Dirección del viento	4.83
112807	7	Sololá	702	San José Chacayá	5	Chacayá	8	Agosto	2023-11-08T00:00:00	2024-11-06T13:00:00	1	Precipitación	0
112808	7	Sololá	702	San José Chacayá	5	Chacayá	8	Agosto	2023-11-08T00:00:00	2024-11-06T13:00:00	8	Radiación solar	282
112809	7	Sololá	702	San José Chacayá	5	Chacayá	8	Agosto	2023-11-08T00:00:00	2024-11-06T14:00:00	2	Temperatura media	23.9
112810	7	Sololá	702	San José Chacayá	5	Chacayá	8	Agosto	2023-11-08T00:00:00	2024-11-06T14:00:00	4	Temperatura máxima	24
112811	7	Sololá	702	San José Chacayá	5	Chacayá	8	Agosto	2023-11-08T00:00:00	2024-11-06T14:00:00	3	Temperatura mínima	22.8
112812	7	Sololá	702	San José Chacayá	5	Chacayá	8	Agosto	2023-11-08T00:00:00	2024-11-06T14:00:00	5	Humedad	67
112813	7	Sololá	702	San José Chacayá	5	Chacayá	8	Agosto	2023-11-08T00:00:00	2024-11-06T14:00:00	6	Velocidad del viento	3.2
112814	7	Sololá	702	San José Chacayá	5	Chacayá	8	Agosto	2023-11-08T00:00:00	2024-11-06T14:00:00	7	Dirección del viento	3.22
112815	7	Sololá	702	San José Chacayá	5	Chacayá	8	Agosto	2023-11-08T00:00:00	2024-11-06T14:00:00	1	Precipitación	0
112816	7	Sololá	702	San José Chacayá	5	Chacayá	8	Agosto	2023-11-08T00:00:00	2024-11-06T14:00:00	8	Radiación solar	404
112817	7	Sololá	702	San José Chacayá	5	Chacayá	8	Agosto	2023-11-08T00:00:00	2024-11-06T15:00:00	2	Temperatura media	23.2
112818	7	Sololá	702	San José Chacayá	5	Chacayá	8	Agosto	2023-11-08T00:00:00	2024-11-06T15:00:00	4	Temperatura máxima	24.2
112819	7	Sololá	702	San José Chacayá	5	Chacayá	8	Agosto	2023-11-08T00:00:00	2024-11-06T15:00:00	3	Temperatura mínima	23.2
112820	7	Sololá	702	San José Chacayá	5	Chacayá	8	Agosto	2023-11-08T00:00:00	2024-11-06T15:00:00	5	Humedad	71
112821	7	Sololá	702	San José Chacayá	5	Chacayá	8	Agosto	2023-11-08T00:00:00	2024-11-06T15:00:00	6	Velocidad del viento	3.2
112822	7	Sololá	702	San José Chacayá	5	Chacayá	8	Agosto	2023-11-08T00:00:00	2024-11-06T15:00:00	7	Dirección del viento	3.22
112823	7	Sololá	702	San José Chacayá	5	Chacayá	8	Agosto	2023-11-08T00:00:00	2024-11-06T15:00:00	1	Precipitación	0
112824	7	Sololá	702	San José Chacayá	5	Chacayá	8	Agosto	2023-11-08T00:00:00	2024-11-06T15:00:00	8	Radiación solar	316
112825	7	Sololá	702	San José Chacayá	5	Chacayá	8	Agosto	2023-11-08T00:00:00	2024-11-06T16:00:00	2	Temperatura media	21.4
112826	7	Sololá	702	San José Chacayá	5	Chacayá	8	Agosto	2023-11-08T00:00:00	2024-11-06T16:00:00	4	Temperatura máxima	23.2
112827	7	Sololá	702	San José Chacayá	5	Chacayá	8	Agosto	2023-11-08T00:00:00	2024-11-06T16:00:00	3	Temperatura mínima	21.1
112828	7	Sololá	702	San José Chacayá	5	Chacayá	8	Agosto	2023-11-08T00:00:00	2024-11-06T16:00:00	5	Humedad	77
112829	7	Sololá	702	San José Chacayá	5	Chacayá	8	Agosto	2023-11-08T00:00:00	2024-11-06T16:00:00	6	Velocidad del viento	3.2
112830	7	Sololá	702	San José Chacayá	5	Chacayá	8	Agosto	2023-11-08T00:00:00	2024-11-06T16:00:00	7	Dirección del viento	3.22
112831	7	Sololá	702	San José Chacayá	5	Chacayá	8	Agosto	2023-11-08T00:00:00	2024-11-06T16:00:00	1	Precipitación	0
112832	7	Sololá	702	San José Chacayá	5	Chacayá	8	Agosto	2023-11-08T00:00:00	2024-11-06T16:00:00	8	Radiación solar	287
112833	7	Sololá	702	San José Chacayá	5	Chacayá	8	Agosto	2023-11-08T00:00:00	2024-11-06T17:00:00	2	Temperatura media	20.6
112834	7	Sololá	702	San José Chacayá	5	Chacayá	8	Agosto	2023-11-08T00:00:00	2024-11-06T17:00:00	4	Temperatura máxima	21.6
112835	7	Sololá	702	San José Chacayá	5	Chacayá	8	Agosto	2023-11-08T00:00:00	2024-11-06T17:00:00	3	Temperatura mínima	20.6
112836	7	Sololá	702	San José Chacayá	5	Chacayá	8	Agosto	2023-11-08T00:00:00	2024-11-06T17:00:00	5	Humedad	78
112837	7	Sololá	702	San José Chacayá	5	Chacayá	8	Agosto	2023-11-08T00:00:00	2024-11-06T17:00:00	6	Velocidad del viento	1.6
112838	7	Sololá	702	San José Chacayá	5	Chacayá	8	Agosto	2023-11-08T00:00:00	2024-11-06T17:00:00	7	Dirección del viento	1.61
112839	7	Sololá	702	San José Chacayá	5	Chacayá	8	Agosto	2023-11-08T00:00:00	2024-11-06T17:00:00	1	Precipitación	0
112840	7	Sololá	702	San José Chacayá	5	Chacayá	8	Agosto	2023-11-08T00:00:00	2024-11-06T17:00:00	8	Radiación solar	120
112841	7	Sololá	702	San José Chacayá	5	Chacayá	8	Agosto	2023-11-08T00:00:00	2024-11-06T18:00:00	2	Temperatura media	18.6
112842	7	Sololá	702	San José Chacayá	5	Chacayá	8	Agosto	2023-11-08T00:00:00	2024-11-06T18:00:00	4	Temperatura máxima	20.6
112843	7	Sololá	702	San José Chacayá	5	Chacayá	8	Agosto	2023-11-08T00:00:00	2024-11-06T18:00:00	3	Temperatura mínima	18.6
112844	7	Sololá	702	San José Chacayá	5	Chacayá	8	Agosto	2023-11-08T00:00:00	2024-11-06T18:00:00	5	Humedad	89
112845	7	Sololá	702	San José Chacayá	5	Chacayá	8	Agosto	2023-11-08T00:00:00	2024-11-06T18:00:00	6	Velocidad del viento	0
112846	7	Sololá	702	San José Chacayá	5	Chacayá	8	Agosto	2023-11-08T00:00:00	2024-11-06T18:00:00	7	Dirección del viento	0
112847	7	Sololá	702	San José Chacayá	5	Chacayá	8	Agosto	2023-11-08T00:00:00	2024-11-06T18:00:00	1	Precipitación	0
112848	7	Sololá	702	San José Chacayá	5	Chacayá	8	Agosto	2023-11-08T00:00:00	2024-11-06T18:00:00	8	Radiación solar	49
112849	7	Sololá	702	San José Chacayá	5	Chacayá	8	Agosto	2023-11-08T00:00:00	2024-11-06T19:00:00	2	Temperatura media	17
112850	7	Sololá	702	San José Chacayá	5	Chacayá	8	Agosto	2023-11-08T00:00:00	2024-11-06T19:00:00	4	Temperatura máxima	18.6
112851	7	Sololá	702	San José Chacayá	5	Chacayá	8	Agosto	2023-11-08T00:00:00	2024-11-06T19:00:00	3	Temperatura mínima	17
112852	7	Sololá	702	San José Chacayá	5	Chacayá	8	Agosto	2023-11-08T00:00:00	2024-11-06T19:00:00	5	Humedad	88
112853	7	Sololá	702	San José Chacayá	5	Chacayá	8	Agosto	2023-11-08T00:00:00	2024-11-06T19:00:00	6	Velocidad del viento	0
112854	7	Sololá	702	San José Chacayá	5	Chacayá	8	Agosto	2023-11-08T00:00:00	2024-11-06T19:00:00	7	Dirección del viento	0
112855	7	Sololá	702	San José Chacayá	5	Chacayá	8	Agosto	2023-11-08T00:00:00	2024-11-06T19:00:00	1	Precipitación	0
112856	7	Sololá	702	San José Chacayá	5	Chacayá	8	Agosto	2023-11-08T00:00:00	2024-11-06T19:00:00	8	Radiación solar	0
112857	7	Sololá	702	San José Chacayá	5	Chacayá	8	Agosto	2023-11-08T00:00:00	2024-11-06T20:00:00	2	Temperatura media	17.3
112858	7	Sololá	702	San José Chacayá	5	Chacayá	8	Agosto	2023-11-08T00:00:00	2024-11-06T20:00:00	4	Temperatura máxima	17.3
112859	7	Sololá	702	San José Chacayá	5	Chacayá	8	Agosto	2023-11-08T00:00:00	2024-11-06T20:00:00	3	Temperatura mínima	16.6
112860	7	Sololá	702	San José Chacayá	5	Chacayá	8	Agosto	2023-11-08T00:00:00	2024-11-06T20:00:00	5	Humedad	83
112861	7	Sololá	702	San José Chacayá	5	Chacayá	8	Agosto	2023-11-08T00:00:00	2024-11-06T20:00:00	6	Velocidad del viento	1.6
112862	7	Sololá	702	San José Chacayá	5	Chacayá	8	Agosto	2023-11-08T00:00:00	2024-11-06T20:00:00	7	Dirección del viento	1.61
112863	7	Sololá	702	San José Chacayá	5	Chacayá	8	Agosto	2023-11-08T00:00:00	2024-11-06T20:00:00	1	Precipitación	0
112864	7	Sololá	702	San José Chacayá	5	Chacayá	8	Agosto	2023-11-08T00:00:00	2024-11-06T20:00:00	8	Radiación solar	0
112865	7	Sololá	702	San José Chacayá	5	Chacayá	8	Agosto	2023-11-08T00:00:00	2024-11-06T21:00:00	2	Temperatura media	16.9
112866	7	Sololá	702	San José Chacayá	5	Chacayá	8	Agosto	2023-11-08T00:00:00	2024-11-06T21:00:00	4	Temperatura máxima	17.4
112867	7	Sololá	702	San José Chacayá	5	Chacayá	8	Agosto	2023-11-08T00:00:00	2024-11-06T21:00:00	3	Temperatura mínima	16.8
112868	7	Sololá	702	San José Chacayá	5	Chacayá	8	Agosto	2023-11-08T00:00:00	2024-11-06T21:00:00	5	Humedad	83
112869	7	Sololá	702	San José Chacayá	5	Chacayá	8	Agosto	2023-11-08T00:00:00	2024-11-06T21:00:00	6	Velocidad del viento	1.6
112870	7	Sololá	702	San José Chacayá	5	Chacayá	8	Agosto	2023-11-08T00:00:00	2024-11-06T21:00:00	7	Dirección del viento	1.61
112871	7	Sololá	702	San José Chacayá	5	Chacayá	8	Agosto	2023-11-08T00:00:00	2024-11-06T21:00:00	1	Precipitación	0
112872	7	Sololá	702	San José Chacayá	5	Chacayá	8	Agosto	2023-11-08T00:00:00	2024-11-06T21:00:00	8	Radiación solar	0
112873	7	Sololá	702	San José Chacayá	5	Chacayá	8	Agosto	2023-11-08T00:00:00	2024-11-06T22:00:00	2	Temperatura media	16.2
112874	7	Sololá	702	San José Chacayá	5	Chacayá	8	Agosto	2023-11-08T00:00:00	2024-11-06T22:00:00	4	Temperatura máxima	16.8
112875	7	Sololá	702	San José Chacayá	5	Chacayá	8	Agosto	2023-11-08T00:00:00	2024-11-06T22:00:00	3	Temperatura mínima	16.2
112876	7	Sololá	702	San José Chacayá	5	Chacayá	8	Agosto	2023-11-08T00:00:00	2024-11-06T22:00:00	5	Humedad	83
112877	7	Sololá	702	San José Chacayá	5	Chacayá	8	Agosto	2023-11-08T00:00:00	2024-11-06T22:00:00	6	Velocidad del viento	1.6
112878	7	Sololá	702	San José Chacayá	5	Chacayá	8	Agosto	2023-11-08T00:00:00	2024-11-06T22:00:00	7	Dirección del viento	1.61
112879	7	Sololá	702	San José Chacayá	5	Chacayá	8	Agosto	2023-11-08T00:00:00	2024-11-06T22:00:00	1	Precipitación	0
112880	7	Sololá	702	San José Chacayá	5	Chacayá	8	Agosto	2023-11-08T00:00:00	2024-11-06T22:00:00	8	Radiación solar	0
112881	7	Sololá	702	San José Chacayá	5	Chacayá	8	Agosto	2023-11-08T00:00:00	2024-11-06T23:00:00	2	Temperatura media	16.2
112882	7	Sololá	702	San José Chacayá	5	Chacayá	8	Agosto	2023-11-08T00:00:00	2024-11-06T23:00:00	4	Temperatura máxima	16.3
112883	7	Sololá	702	San José Chacayá	5	Chacayá	8	Agosto	2023-11-08T00:00:00	2024-11-06T23:00:00	3	Temperatura mínima	15.8
112884	7	Sololá	702	San José Chacayá	5	Chacayá	8	Agosto	2023-11-08T00:00:00	2024-11-06T23:00:00	5	Humedad	82
112885	7	Sololá	702	San José Chacayá	5	Chacayá	8	Agosto	2023-11-08T00:00:00	2024-11-06T23:00:00	6	Velocidad del viento	1.6
112886	7	Sololá	702	San José Chacayá	5	Chacayá	8	Agosto	2023-11-08T00:00:00	2024-11-06T23:00:00	7	Dirección del viento	1.61
112887	7	Sololá	702	San José Chacayá	5	Chacayá	8	Agosto	2023-11-08T00:00:00	2024-11-06T23:00:00	1	Precipitación	0
112888	7	Sololá	702	San José Chacayá	5	Chacayá	8	Agosto	2023-11-08T00:00:00	2024-11-06T23:00:00	8	Radiación solar	0
112889	7	Sololá	702	San José Chacayá	5	Chacayá	8	Agosto	2023-12-08T00:00:00	2024-11-06T00:00:00	2	Temperatura media	14.3
112890	7	Sololá	702	San José Chacayá	5	Chacayá	8	Agosto	2023-12-08T00:00:00	2024-11-06T00:00:00	4	Temperatura máxima	16.2
112891	7	Sololá	702	San José Chacayá	5	Chacayá	8	Agosto	2023-12-08T00:00:00	2024-11-06T00:00:00	3	Temperatura mínima	14.3
112892	7	Sololá	702	San José Chacayá	5	Chacayá	8	Agosto	2023-12-08T00:00:00	2024-11-06T00:00:00	5	Humedad	86
112893	7	Sololá	702	San José Chacayá	5	Chacayá	8	Agosto	2023-12-08T00:00:00	2024-11-06T00:00:00	6	Velocidad del viento	1.6
112894	7	Sololá	702	San José Chacayá	5	Chacayá	8	Agosto	2023-12-08T00:00:00	2024-11-06T00:00:00	7	Dirección del viento	1.61
112895	7	Sololá	702	San José Chacayá	5	Chacayá	8	Agosto	2023-12-08T00:00:00	2024-11-06T00:00:00	1	Precipitación	0
112896	7	Sololá	702	San José Chacayá	5	Chacayá	8	Agosto	2023-12-08T00:00:00	2024-11-06T00:00:00	8	Radiación solar	0
112897	7	Sololá	702	San José Chacayá	5	Chacayá	8	Agosto	2023-12-08T00:00:00	2024-11-06T01:00:00	2	Temperatura media	12.9
112898	7	Sololá	702	San José Chacayá	5	Chacayá	8	Agosto	2023-12-08T00:00:00	2024-11-06T01:00:00	4	Temperatura máxima	14.3
112899	7	Sololá	702	San José Chacayá	5	Chacayá	8	Agosto	2023-12-08T00:00:00	2024-11-06T01:00:00	3	Temperatura mínima	12.8
112900	7	Sololá	702	San José Chacayá	5	Chacayá	8	Agosto	2023-12-08T00:00:00	2024-11-06T01:00:00	5	Humedad	89
112901	7	Sololá	702	San José Chacayá	5	Chacayá	8	Agosto	2023-12-08T00:00:00	2024-11-06T01:00:00	6	Velocidad del viento	1.6
112902	7	Sololá	702	San José Chacayá	5	Chacayá	8	Agosto	2023-12-08T00:00:00	2024-11-06T01:00:00	7	Dirección del viento	1.61
112903	7	Sololá	702	San José Chacayá	5	Chacayá	8	Agosto	2023-12-08T00:00:00	2024-11-06T01:00:00	1	Precipitación	0
112904	7	Sololá	702	San José Chacayá	5	Chacayá	8	Agosto	2023-12-08T00:00:00	2024-11-06T01:00:00	8	Radiación solar	0
112905	7	Sololá	702	San José Chacayá	5	Chacayá	8	Agosto	2023-12-08T00:00:00	2024-11-06T02:00:00	2	Temperatura media	12.4
112906	7	Sololá	702	San José Chacayá	5	Chacayá	8	Agosto	2023-12-08T00:00:00	2024-11-06T02:00:00	4	Temperatura máxima	13
112907	7	Sololá	702	San José Chacayá	5	Chacayá	8	Agosto	2023-12-08T00:00:00	2024-11-06T02:00:00	3	Temperatura mínima	12.3
112908	7	Sololá	702	San José Chacayá	5	Chacayá	8	Agosto	2023-12-08T00:00:00	2024-11-06T02:00:00	5	Humedad	91
112909	7	Sololá	702	San José Chacayá	5	Chacayá	8	Agosto	2023-12-08T00:00:00	2024-11-06T02:00:00	6	Velocidad del viento	0
112910	7	Sololá	702	San José Chacayá	5	Chacayá	8	Agosto	2023-12-08T00:00:00	2024-11-06T02:00:00	7	Dirección del viento	0
112911	7	Sololá	702	San José Chacayá	5	Chacayá	8	Agosto	2023-12-08T00:00:00	2024-11-06T02:00:00	1	Precipitación	0
112912	7	Sololá	702	San José Chacayá	5	Chacayá	8	Agosto	2023-12-08T00:00:00	2024-11-06T02:00:00	8	Radiación solar	0
112913	7	Sololá	702	San José Chacayá	5	Chacayá	8	Agosto	2023-12-08T00:00:00	2024-11-06T03:00:00	2	Temperatura media	12
112914	7	Sololá	702	San José Chacayá	5	Chacayá	8	Agosto	2023-12-08T00:00:00	2024-11-06T03:00:00	4	Temperatura máxima	12.6
112915	7	Sololá	702	San José Chacayá	5	Chacayá	8	Agosto	2023-12-08T00:00:00	2024-11-06T03:00:00	3	Temperatura mínima	12
112916	7	Sololá	702	San José Chacayá	5	Chacayá	8	Agosto	2023-12-08T00:00:00	2024-11-06T03:00:00	5	Humedad	91
112917	7	Sololá	702	San José Chacayá	5	Chacayá	8	Agosto	2023-12-08T00:00:00	2024-11-06T03:00:00	6	Velocidad del viento	0
112918	7	Sololá	702	San José Chacayá	5	Chacayá	8	Agosto	2023-12-08T00:00:00	2024-11-06T03:00:00	7	Dirección del viento	0
112919	7	Sololá	702	San José Chacayá	5	Chacayá	8	Agosto	2023-12-08T00:00:00	2024-11-06T03:00:00	1	Precipitación	0
112920	7	Sololá	702	San José Chacayá	5	Chacayá	8	Agosto	2023-12-08T00:00:00	2024-11-06T03:00:00	8	Radiación solar	0
112921	7	Sololá	702	San José Chacayá	5	Chacayá	8	Agosto	2023-12-08T00:00:00	2024-11-06T04:00:00	2	Temperatura media	11.7
112922	7	Sololá	702	San José Chacayá	5	Chacayá	8	Agosto	2023-12-08T00:00:00	2024-11-06T04:00:00	4	Temperatura máxima	12.1
112923	7	Sololá	702	San José Chacayá	5	Chacayá	8	Agosto	2023-12-08T00:00:00	2024-11-06T04:00:00	3	Temperatura mínima	11.7
112924	7	Sololá	702	San José Chacayá	5	Chacayá	8	Agosto	2023-12-08T00:00:00	2024-11-06T04:00:00	5	Humedad	92
112925	7	Sololá	702	San José Chacayá	5	Chacayá	8	Agosto	2023-12-08T00:00:00	2024-11-06T04:00:00	6	Velocidad del viento	0
112926	7	Sololá	702	San José Chacayá	5	Chacayá	8	Agosto	2023-12-08T00:00:00	2024-11-06T04:00:00	7	Dirección del viento	0
112927	7	Sololá	702	San José Chacayá	5	Chacayá	8	Agosto	2023-12-08T00:00:00	2024-11-06T04:00:00	1	Precipitación	0
112928	7	Sololá	702	San José Chacayá	5	Chacayá	8	Agosto	2023-12-08T00:00:00	2024-11-06T04:00:00	8	Radiación solar	0
112929	7	Sololá	702	San José Chacayá	5	Chacayá	8	Agosto	2023-12-08T00:00:00	2024-11-06T05:00:00	2	Temperatura media	12.4
112930	7	Sololá	702	San José Chacayá	5	Chacayá	8	Agosto	2023-12-08T00:00:00	2024-11-06T05:00:00	4	Temperatura máxima	12.4
112931	7	Sololá	702	San José Chacayá	5	Chacayá	8	Agosto	2023-12-08T00:00:00	2024-11-06T05:00:00	3	Temperatura mínima	11.7
112932	7	Sololá	702	San José Chacayá	5	Chacayá	8	Agosto	2023-12-08T00:00:00	2024-11-06T05:00:00	5	Humedad	90
112933	7	Sololá	702	San José Chacayá	5	Chacayá	8	Agosto	2023-12-08T00:00:00	2024-11-06T05:00:00	6	Velocidad del viento	1.6
112934	7	Sololá	702	San José Chacayá	5	Chacayá	8	Agosto	2023-12-08T00:00:00	2024-11-06T05:00:00	7	Dirección del viento	1.61
112935	7	Sololá	702	San José Chacayá	5	Chacayá	8	Agosto	2023-12-08T00:00:00	2024-11-06T05:00:00	1	Precipitación	0
112936	7	Sololá	702	San José Chacayá	5	Chacayá	8	Agosto	2023-12-08T00:00:00	2024-11-06T05:00:00	8	Radiación solar	0
112937	7	Sololá	702	San José Chacayá	5	Chacayá	8	Agosto	2023-12-08T00:00:00	2024-11-06T06:00:00	2	Temperatura media	12.4
112938	7	Sololá	702	San José Chacayá	5	Chacayá	8	Agosto	2023-12-08T00:00:00	2024-11-06T06:00:00	4	Temperatura máxima	12.7
112939	7	Sololá	702	San José Chacayá	5	Chacayá	8	Agosto	2023-12-08T00:00:00	2024-11-06T06:00:00	3	Temperatura mínima	12.4
112940	7	Sololá	702	San José Chacayá	5	Chacayá	8	Agosto	2023-12-08T00:00:00	2024-11-06T06:00:00	5	Humedad	90
112941	7	Sololá	702	San José Chacayá	5	Chacayá	8	Agosto	2023-12-08T00:00:00	2024-11-06T06:00:00	6	Velocidad del viento	1.6
112942	7	Sololá	702	San José Chacayá	5	Chacayá	8	Agosto	2023-12-08T00:00:00	2024-11-06T06:00:00	7	Dirección del viento	1.61
112943	7	Sololá	702	San José Chacayá	5	Chacayá	8	Agosto	2023-12-08T00:00:00	2024-11-06T06:00:00	1	Precipitación	0
112944	7	Sololá	702	San José Chacayá	5	Chacayá	8	Agosto	2023-12-08T00:00:00	2024-11-06T06:00:00	8	Radiación solar	2
112945	7	Sololá	702	San José Chacayá	5	Chacayá	8	Agosto	2023-12-08T00:00:00	2024-11-06T07:00:00	2	Temperatura media	13.3
112946	7	Sololá	702	San José Chacayá	5	Chacayá	8	Agosto	2023-12-08T00:00:00	2024-11-06T07:00:00	4	Temperatura máxima	13.3
112947	7	Sololá	702	San José Chacayá	5	Chacayá	8	Agosto	2023-12-08T00:00:00	2024-11-06T07:00:00	3	Temperatura mínima	12.4
112948	7	Sololá	702	San José Chacayá	5	Chacayá	8	Agosto	2023-12-08T00:00:00	2024-11-06T07:00:00	5	Humedad	89
112949	7	Sololá	702	San José Chacayá	5	Chacayá	8	Agosto	2023-12-08T00:00:00	2024-11-06T07:00:00	6	Velocidad del viento	0
112950	7	Sololá	702	San José Chacayá	5	Chacayá	8	Agosto	2023-12-08T00:00:00	2024-11-06T07:00:00	7	Dirección del viento	0
112951	7	Sololá	702	San José Chacayá	5	Chacayá	8	Agosto	2023-12-08T00:00:00	2024-11-06T07:00:00	1	Precipitación	0
112952	7	Sololá	702	San José Chacayá	5	Chacayá	8	Agosto	2023-12-08T00:00:00	2024-11-06T07:00:00	8	Radiación solar	56
112953	7	Sololá	702	San José Chacayá	5	Chacayá	8	Agosto	2023-12-08T00:00:00	2024-11-06T08:00:00	2	Temperatura media	15.9
112954	7	Sololá	702	San José Chacayá	5	Chacayá	8	Agosto	2023-12-08T00:00:00	2024-11-06T08:00:00	4	Temperatura máxima	15.9
112955	7	Sololá	702	San José Chacayá	5	Chacayá	8	Agosto	2023-12-08T00:00:00	2024-11-06T08:00:00	3	Temperatura mínima	13.3
112956	7	Sololá	702	San José Chacayá	5	Chacayá	8	Agosto	2023-12-08T00:00:00	2024-11-06T08:00:00	5	Humedad	85
112957	7	Sololá	702	San José Chacayá	5	Chacayá	8	Agosto	2023-12-08T00:00:00	2024-11-06T08:00:00	6	Velocidad del viento	0
112958	7	Sololá	702	San José Chacayá	5	Chacayá	8	Agosto	2023-12-08T00:00:00	2024-11-06T08:00:00	7	Dirección del viento	0
112959	7	Sololá	702	San José Chacayá	5	Chacayá	8	Agosto	2023-12-08T00:00:00	2024-11-06T08:00:00	1	Precipitación	0
112960	7	Sololá	702	San José Chacayá	5	Chacayá	8	Agosto	2023-12-08T00:00:00	2024-11-06T08:00:00	8	Radiación solar	128
112961	7	Sololá	702	San José Chacayá	5	Chacayá	8	Agosto	2023-12-08T00:00:00	2024-11-06T09:00:00	2	Temperatura media	20.7
112962	7	Sololá	702	San José Chacayá	5	Chacayá	8	Agosto	2023-12-08T00:00:00	2024-11-06T09:00:00	4	Temperatura máxima	20.7
112963	7	Sololá	702	San José Chacayá	5	Chacayá	8	Agosto	2023-12-08T00:00:00	2024-11-06T09:00:00	3	Temperatura mínima	15.9
112964	7	Sololá	702	San José Chacayá	5	Chacayá	8	Agosto	2023-12-08T00:00:00	2024-11-06T09:00:00	5	Humedad	63
112965	7	Sololá	702	San José Chacayá	5	Chacayá	8	Agosto	2023-12-08T00:00:00	2024-11-06T09:00:00	6	Velocidad del viento	0
112966	7	Sololá	702	San José Chacayá	5	Chacayá	8	Agosto	2023-12-08T00:00:00	2024-11-06T09:00:00	7	Dirección del viento	0
112967	7	Sololá	702	San José Chacayá	5	Chacayá	8	Agosto	2023-12-08T00:00:00	2024-11-06T09:00:00	1	Precipitación	0
112968	7	Sololá	702	San José Chacayá	5	Chacayá	8	Agosto	2023-12-08T00:00:00	2024-11-06T09:00:00	8	Radiación solar	292
112969	7	Sololá	702	San José Chacayá	5	Chacayá	8	Agosto	2023-12-08T00:00:00	2024-11-06T10:00:00	2	Temperatura media	23.3
112970	7	Sololá	702	San José Chacayá	5	Chacayá	8	Agosto	2023-12-08T00:00:00	2024-11-06T10:00:00	4	Temperatura máxima	23.3
112971	7	Sololá	702	San José Chacayá	5	Chacayá	8	Agosto	2023-12-08T00:00:00	2024-11-06T10:00:00	3	Temperatura mínima	20.7
112972	7	Sololá	702	San José Chacayá	5	Chacayá	8	Agosto	2023-12-08T00:00:00	2024-11-06T10:00:00	5	Humedad	61
112973	7	Sololá	702	San José Chacayá	5	Chacayá	8	Agosto	2023-12-08T00:00:00	2024-11-06T10:00:00	6	Velocidad del viento	1.6
112974	7	Sololá	702	San José Chacayá	5	Chacayá	8	Agosto	2023-12-08T00:00:00	2024-11-06T10:00:00	7	Dirección del viento	1.61
112975	7	Sololá	702	San José Chacayá	5	Chacayá	8	Agosto	2023-12-08T00:00:00	2024-11-06T10:00:00	1	Precipitación	0
112976	7	Sololá	702	San José Chacayá	5	Chacayá	8	Agosto	2023-12-08T00:00:00	2024-11-06T10:00:00	8	Radiación solar	607
112977	7	Sololá	702	San José Chacayá	5	Chacayá	8	Agosto	2023-12-08T00:00:00	2024-11-06T11:00:00	2	Temperatura media	24.2
112978	7	Sololá	702	San José Chacayá	5	Chacayá	8	Agosto	2023-12-08T00:00:00	2024-11-06T11:00:00	4	Temperatura máxima	24.4
112979	7	Sololá	702	San José Chacayá	5	Chacayá	8	Agosto	2023-12-08T00:00:00	2024-11-06T11:00:00	3	Temperatura mínima	23.3
112980	7	Sololá	702	San José Chacayá	5	Chacayá	8	Agosto	2023-12-08T00:00:00	2024-11-06T11:00:00	5	Humedad	55
112981	7	Sololá	702	San José Chacayá	5	Chacayá	8	Agosto	2023-12-08T00:00:00	2024-11-06T11:00:00	6	Velocidad del viento	6.4
112982	7	Sololá	702	San José Chacayá	5	Chacayá	8	Agosto	2023-12-08T00:00:00	2024-11-06T11:00:00	7	Dirección del viento	6.44
112983	7	Sololá	702	San José Chacayá	5	Chacayá	8	Agosto	2023-12-08T00:00:00	2024-11-06T11:00:00	1	Precipitación	0
112984	7	Sololá	702	San José Chacayá	5	Chacayá	8	Agosto	2023-12-08T00:00:00	2024-11-06T11:00:00	8	Radiación solar	842
112985	7	Sololá	702	San José Chacayá	5	Chacayá	8	Agosto	2023-12-08T00:00:00	2024-11-06T12:00:00	2	Temperatura media	24.3
112986	7	Sololá	702	San José Chacayá	5	Chacayá	8	Agosto	2023-12-08T00:00:00	2024-11-06T12:00:00	4	Temperatura máxima	24.4
112987	7	Sololá	702	San José Chacayá	5	Chacayá	8	Agosto	2023-12-08T00:00:00	2024-11-06T12:00:00	3	Temperatura mínima	23.9
112988	7	Sololá	702	San José Chacayá	5	Chacayá	8	Agosto	2023-12-08T00:00:00	2024-11-06T12:00:00	5	Humedad	61
112989	7	Sololá	702	San José Chacayá	5	Chacayá	8	Agosto	2023-12-08T00:00:00	2024-11-06T12:00:00	6	Velocidad del viento	8
112990	7	Sololá	702	San José Chacayá	5	Chacayá	8	Agosto	2023-12-08T00:00:00	2024-11-06T12:00:00	7	Dirección del viento	8.05
112991	7	Sololá	702	San José Chacayá	5	Chacayá	8	Agosto	2023-12-08T00:00:00	2024-11-06T12:00:00	1	Precipitación	0
112992	7	Sololá	702	San José Chacayá	5	Chacayá	8	Agosto	2023-12-08T00:00:00	2024-11-06T12:00:00	8	Radiación solar	993
112993	7	Sololá	702	San José Chacayá	5	Chacayá	8	Agosto	2023-12-08T00:00:00	2024-11-06T13:00:00	2	Temperatura media	23.2
112994	7	Sololá	702	San José Chacayá	5	Chacayá	8	Agosto	2023-12-08T00:00:00	2024-11-06T13:00:00	4	Temperatura máxima	24.3
112995	7	Sololá	702	San José Chacayá	5	Chacayá	8	Agosto	2023-12-08T00:00:00	2024-11-06T13:00:00	3	Temperatura mínima	23
112996	7	Sololá	702	San José Chacayá	5	Chacayá	8	Agosto	2023-12-08T00:00:00	2024-11-06T13:00:00	5	Humedad	66
112997	7	Sololá	702	San José Chacayá	5	Chacayá	8	Agosto	2023-12-08T00:00:00	2024-11-06T13:00:00	6	Velocidad del viento	8
112998	7	Sololá	702	San José Chacayá	5	Chacayá	8	Agosto	2023-12-08T00:00:00	2024-11-06T13:00:00	7	Dirección del viento	8.05
112999	7	Sololá	702	San José Chacayá	5	Chacayá	8	Agosto	2023-12-08T00:00:00	2024-11-06T13:00:00	1	Precipitación	0
113000	7	Sololá	702	San José Chacayá	5	Chacayá	8	Agosto	2023-12-08T00:00:00	2024-11-06T13:00:00	8	Radiación solar	1011
113001	7	Sololá	702	San José Chacayá	5	Chacayá	8	Agosto	2023-12-08T00:00:00	2024-11-06T14:00:00	2	Temperatura media	23.9
113002	7	Sololá	702	San José Chacayá	5	Chacayá	8	Agosto	2023-12-08T00:00:00	2024-11-06T14:00:00	4	Temperatura máxima	24.3
113003	7	Sololá	702	San José Chacayá	5	Chacayá	8	Agosto	2023-12-08T00:00:00	2024-11-06T14:00:00	3	Temperatura mínima	23.2
113004	7	Sololá	702	San José Chacayá	5	Chacayá	8	Agosto	2023-12-08T00:00:00	2024-11-06T14:00:00	5	Humedad	70
113005	7	Sololá	702	San José Chacayá	5	Chacayá	8	Agosto	2023-12-08T00:00:00	2024-11-06T14:00:00	6	Velocidad del viento	4.8
113006	7	Sololá	702	San José Chacayá	5	Chacayá	8	Agosto	2023-12-08T00:00:00	2024-11-06T14:00:00	7	Dirección del viento	4.83
113007	7	Sololá	702	San José Chacayá	5	Chacayá	8	Agosto	2023-12-08T00:00:00	2024-11-06T14:00:00	1	Precipitación	0
113008	7	Sololá	702	San José Chacayá	5	Chacayá	8	Agosto	2023-12-08T00:00:00	2024-11-06T14:00:00	8	Radiación solar	349
113009	7	Sololá	702	San José Chacayá	5	Chacayá	8	Agosto	2023-12-08T00:00:00	2024-11-06T15:00:00	2	Temperatura media	23.4
113010	7	Sololá	702	San José Chacayá	5	Chacayá	8	Agosto	2023-12-08T00:00:00	2024-11-06T15:00:00	4	Temperatura máxima	24.1
113011	7	Sololá	702	San José Chacayá	5	Chacayá	8	Agosto	2023-12-08T00:00:00	2024-11-06T15:00:00	3	Temperatura mínima	23.2
113012	7	Sololá	702	San José Chacayá	5	Chacayá	8	Agosto	2023-12-08T00:00:00	2024-11-06T15:00:00	5	Humedad	70
113013	7	Sololá	702	San José Chacayá	5	Chacayá	8	Agosto	2023-12-08T00:00:00	2024-11-06T15:00:00	6	Velocidad del viento	4.8
113014	7	Sololá	702	San José Chacayá	5	Chacayá	8	Agosto	2023-12-08T00:00:00	2024-11-06T15:00:00	7	Dirección del viento	4.83
113015	7	Sololá	702	San José Chacayá	5	Chacayá	8	Agosto	2023-12-08T00:00:00	2024-11-06T15:00:00	1	Precipitación	0
113016	7	Sololá	702	San José Chacayá	5	Chacayá	8	Agosto	2023-12-08T00:00:00	2024-11-06T15:00:00	8	Radiación solar	565
113017	7	Sololá	702	San José Chacayá	5	Chacayá	8	Agosto	2023-12-08T00:00:00	2024-11-06T16:00:00	2	Temperatura media	22.9
113018	7	Sololá	702	San José Chacayá	5	Chacayá	8	Agosto	2023-12-08T00:00:00	2024-11-06T16:00:00	4	Temperatura máxima	23.5
113019	7	Sololá	702	San José Chacayá	5	Chacayá	8	Agosto	2023-12-08T00:00:00	2024-11-06T16:00:00	3	Temperatura mínima	22.5
113020	7	Sololá	702	San José Chacayá	5	Chacayá	8	Agosto	2023-12-08T00:00:00	2024-11-06T16:00:00	5	Humedad	68
113021	7	Sololá	702	San José Chacayá	5	Chacayá	8	Agosto	2023-12-08T00:00:00	2024-11-06T16:00:00	6	Velocidad del viento	3.2
113022	7	Sololá	702	San José Chacayá	5	Chacayá	8	Agosto	2023-12-08T00:00:00	2024-11-06T16:00:00	7	Dirección del viento	3.22
113023	7	Sololá	702	San José Chacayá	5	Chacayá	8	Agosto	2023-12-08T00:00:00	2024-11-06T16:00:00	1	Precipitación	0
113024	7	Sololá	702	San José Chacayá	5	Chacayá	8	Agosto	2023-12-08T00:00:00	2024-11-06T16:00:00	8	Radiación solar	217
113025	7	Sololá	702	San José Chacayá	5	Chacayá	8	Agosto	2023-12-08T00:00:00	2024-11-06T17:00:00	2	Temperatura media	21.7
113026	7	Sololá	702	San José Chacayá	5	Chacayá	8	Agosto	2023-12-08T00:00:00	2024-11-06T17:00:00	4	Temperatura máxima	23.3
113027	7	Sololá	702	San José Chacayá	5	Chacayá	8	Agosto	2023-12-08T00:00:00	2024-11-06T17:00:00	3	Temperatura mínima	21.6
113028	7	Sololá	702	San José Chacayá	5	Chacayá	8	Agosto	2023-12-08T00:00:00	2024-11-06T17:00:00	5	Humedad	79
113029	7	Sololá	702	San José Chacayá	5	Chacayá	8	Agosto	2023-12-08T00:00:00	2024-11-06T17:00:00	6	Velocidad del viento	3.2
113030	7	Sololá	702	San José Chacayá	5	Chacayá	8	Agosto	2023-12-08T00:00:00	2024-11-06T17:00:00	7	Dirección del viento	3.22
113031	7	Sololá	702	San José Chacayá	5	Chacayá	8	Agosto	2023-12-08T00:00:00	2024-11-06T17:00:00	1	Precipitación	0
113032	7	Sololá	702	San José Chacayá	5	Chacayá	8	Agosto	2023-12-08T00:00:00	2024-11-06T17:00:00	8	Radiación solar	40
113033	7	Sololá	702	San José Chacayá	5	Chacayá	8	Agosto	2023-12-08T00:00:00	2024-11-06T18:00:00	2	Temperatura media	19.2
113034	7	Sololá	702	San José Chacayá	5	Chacayá	8	Agosto	2023-12-08T00:00:00	2024-11-06T18:00:00	4	Temperatura máxima	21.7
113035	7	Sololá	702	San José Chacayá	5	Chacayá	8	Agosto	2023-12-08T00:00:00	2024-11-06T18:00:00	3	Temperatura mínima	19.2
113036	7	Sololá	702	San José Chacayá	5	Chacayá	8	Agosto	2023-12-08T00:00:00	2024-11-06T18:00:00	5	Humedad	80
113037	7	Sololá	702	San José Chacayá	5	Chacayá	8	Agosto	2023-12-08T00:00:00	2024-11-06T18:00:00	6	Velocidad del viento	1.6
113038	7	Sololá	702	San José Chacayá	5	Chacayá	8	Agosto	2023-12-08T00:00:00	2024-11-06T18:00:00	7	Dirección del viento	1.61
113039	7	Sololá	702	San José Chacayá	5	Chacayá	8	Agosto	2023-12-08T00:00:00	2024-11-06T18:00:00	1	Precipitación	0
113040	7	Sololá	702	San José Chacayá	5	Chacayá	8	Agosto	2023-12-08T00:00:00	2024-11-06T18:00:00	8	Radiación solar	8
113041	7	Sololá	702	San José Chacayá	5	Chacayá	8	Agosto	2023-12-08T00:00:00	2024-11-06T19:00:00	2	Temperatura media	17.6
113042	7	Sololá	702	San José Chacayá	5	Chacayá	8	Agosto	2023-12-08T00:00:00	2024-11-06T19:00:00	4	Temperatura máxima	19.2
113043	7	Sololá	702	San José Chacayá	5	Chacayá	8	Agosto	2023-12-08T00:00:00	2024-11-06T19:00:00	3	Temperatura mínima	17.6
113044	7	Sololá	702	San José Chacayá	5	Chacayá	8	Agosto	2023-12-08T00:00:00	2024-11-06T19:00:00	5	Humedad	83
113045	7	Sololá	702	San José Chacayá	5	Chacayá	8	Agosto	2023-12-08T00:00:00	2024-11-06T19:00:00	6	Velocidad del viento	1.6
113046	7	Sololá	702	San José Chacayá	5	Chacayá	8	Agosto	2023-12-08T00:00:00	2024-11-06T19:00:00	7	Dirección del viento	1.61
113047	7	Sololá	702	San José Chacayá	5	Chacayá	8	Agosto	2023-12-08T00:00:00	2024-11-06T19:00:00	1	Precipitación	0
113048	7	Sololá	702	San José Chacayá	5	Chacayá	8	Agosto	2023-12-08T00:00:00	2024-11-06T19:00:00	8	Radiación solar	0
113049	7	Sololá	702	San José Chacayá	5	Chacayá	8	Agosto	2023-12-08T00:00:00	2024-11-06T20:00:00	2	Temperatura media	17.6
113050	7	Sololá	702	San José Chacayá	5	Chacayá	8	Agosto	2023-12-08T00:00:00	2024-11-06T20:00:00	4	Temperatura máxima	17.6
113051	7	Sololá	702	San José Chacayá	5	Chacayá	8	Agosto	2023-12-08T00:00:00	2024-11-06T20:00:00	3	Temperatura mínima	17.1
113052	7	Sololá	702	San José Chacayá	5	Chacayá	8	Agosto	2023-12-08T00:00:00	2024-11-06T20:00:00	5	Humedad	81
113053	7	Sololá	702	San José Chacayá	5	Chacayá	8	Agosto	2023-12-08T00:00:00	2024-11-06T20:00:00	6	Velocidad del viento	1.6
113054	7	Sololá	702	San José Chacayá	5	Chacayá	8	Agosto	2023-12-08T00:00:00	2024-11-06T20:00:00	7	Dirección del viento	1.61
113055	7	Sololá	702	San José Chacayá	5	Chacayá	8	Agosto	2023-12-08T00:00:00	2024-11-06T20:00:00	1	Precipitación	0
113056	7	Sololá	702	San José Chacayá	5	Chacayá	8	Agosto	2023-12-08T00:00:00	2024-11-06T20:00:00	8	Radiación solar	0
113057	7	Sololá	702	San José Chacayá	5	Chacayá	8	Agosto	2023-12-08T00:00:00	2024-11-06T21:00:00	2	Temperatura media	17
113058	7	Sololá	702	San José Chacayá	5	Chacayá	8	Agosto	2023-12-08T00:00:00	2024-11-06T21:00:00	4	Temperatura máxima	17.6
113059	7	Sololá	702	San José Chacayá	5	Chacayá	8	Agosto	2023-12-08T00:00:00	2024-11-06T21:00:00	3	Temperatura mínima	17
113060	7	Sololá	702	San José Chacayá	5	Chacayá	8	Agosto	2023-12-08T00:00:00	2024-11-06T21:00:00	5	Humedad	79
113061	7	Sololá	702	San José Chacayá	5	Chacayá	8	Agosto	2023-12-08T00:00:00	2024-11-06T21:00:00	6	Velocidad del viento	1.6
113062	7	Sololá	702	San José Chacayá	5	Chacayá	8	Agosto	2023-12-08T00:00:00	2024-11-06T21:00:00	7	Dirección del viento	1.61
113063	7	Sololá	702	San José Chacayá	5	Chacayá	8	Agosto	2023-12-08T00:00:00	2024-11-06T21:00:00	1	Precipitación	0
113064	7	Sololá	702	San José Chacayá	5	Chacayá	8	Agosto	2023-12-08T00:00:00	2024-11-06T21:00:00	8	Radiación solar	0
113065	7	Sololá	702	San José Chacayá	5	Chacayá	8	Agosto	2023-12-08T00:00:00	2024-11-06T22:00:00	2	Temperatura media	16.2
113066	7	Sololá	702	San José Chacayá	5	Chacayá	8	Agosto	2023-12-08T00:00:00	2024-11-06T22:00:00	4	Temperatura máxima	16.9
113067	7	Sololá	702	San José Chacayá	5	Chacayá	8	Agosto	2023-12-08T00:00:00	2024-11-06T22:00:00	3	Temperatura mínima	16.2
113068	7	Sololá	702	San José Chacayá	5	Chacayá	8	Agosto	2023-12-08T00:00:00	2024-11-06T22:00:00	5	Humedad	80
113069	7	Sololá	702	San José Chacayá	5	Chacayá	8	Agosto	2023-12-08T00:00:00	2024-11-06T22:00:00	6	Velocidad del viento	3.2
113070	7	Sololá	702	San José Chacayá	5	Chacayá	8	Agosto	2023-12-08T00:00:00	2024-11-06T22:00:00	7	Dirección del viento	3.22
113071	7	Sololá	702	San José Chacayá	5	Chacayá	8	Agosto	2023-12-08T00:00:00	2024-11-06T22:00:00	1	Precipitación	0
113072	7	Sololá	702	San José Chacayá	5	Chacayá	8	Agosto	2023-12-08T00:00:00	2024-11-06T22:00:00	8	Radiación solar	0
113073	7	Sololá	702	San José Chacayá	5	Chacayá	8	Agosto	2023-12-08T00:00:00	2024-11-06T23:00:00	2	Temperatura media	15.7
113074	7	Sololá	702	San José Chacayá	5	Chacayá	8	Agosto	2023-12-08T00:00:00	2024-11-06T23:00:00	4	Temperatura máxima	16.2
113075	7	Sololá	702	San José Chacayá	5	Chacayá	8	Agosto	2023-12-08T00:00:00	2024-11-06T23:00:00	3	Temperatura mínima	15.7
113076	7	Sololá	702	San José Chacayá	5	Chacayá	8	Agosto	2023-12-08T00:00:00	2024-11-06T23:00:00	5	Humedad	80
113077	7	Sololá	702	San José Chacayá	5	Chacayá	8	Agosto	2023-12-08T00:00:00	2024-11-06T23:00:00	6	Velocidad del viento	3.2
113078	7	Sololá	702	San José Chacayá	5	Chacayá	8	Agosto	2023-12-08T00:00:00	2024-11-06T23:00:00	7	Dirección del viento	3.22
113079	7	Sololá	702	San José Chacayá	5	Chacayá	8	Agosto	2023-12-08T00:00:00	2024-11-06T23:00:00	1	Precipitación	0
113080	7	Sololá	702	San José Chacayá	5	Chacayá	8	Agosto	2023-12-08T00:00:00	2024-11-06T23:00:00	8	Radiación solar	0
113081	7	Sololá	702	San José Chacayá	5	Chacayá	8	Agosto	2023-08-13T00:00:00	2024-11-06T00:00:00	2	Temperatura media	15.3
113082	7	Sololá	702	San José Chacayá	5	Chacayá	8	Agosto	2023-08-13T00:00:00	2024-11-06T00:00:00	4	Temperatura máxima	15.7
113083	7	Sololá	702	San José Chacayá	5	Chacayá	8	Agosto	2023-08-13T00:00:00	2024-11-06T00:00:00	3	Temperatura mínima	15.3
113084	7	Sololá	702	San José Chacayá	5	Chacayá	8	Agosto	2023-08-13T00:00:00	2024-11-06T00:00:00	5	Humedad	74
113085	7	Sololá	702	San José Chacayá	5	Chacayá	8	Agosto	2023-08-13T00:00:00	2024-11-06T00:00:00	6	Velocidad del viento	4.8
113086	7	Sololá	702	San José Chacayá	5	Chacayá	8	Agosto	2023-08-13T00:00:00	2024-11-06T00:00:00	7	Dirección del viento	4.83
113087	7	Sololá	702	San José Chacayá	5	Chacayá	8	Agosto	2023-08-13T00:00:00	2024-11-06T00:00:00	1	Precipitación	0
113088	7	Sololá	702	San José Chacayá	5	Chacayá	8	Agosto	2023-08-13T00:00:00	2024-11-06T00:00:00	8	Radiación solar	0
113089	7	Sololá	702	San José Chacayá	5	Chacayá	8	Agosto	2023-08-13T00:00:00	2024-11-06T01:00:00	2	Temperatura media	14.5
113090	7	Sololá	702	San José Chacayá	5	Chacayá	8	Agosto	2023-08-13T00:00:00	2024-11-06T01:00:00	4	Temperatura máxima	15.3
113091	7	Sololá	702	San José Chacayá	5	Chacayá	8	Agosto	2023-08-13T00:00:00	2024-11-06T01:00:00	3	Temperatura mínima	14.5
113092	7	Sololá	702	San José Chacayá	5	Chacayá	8	Agosto	2023-08-13T00:00:00	2024-11-06T01:00:00	5	Humedad	71
113093	7	Sololá	702	San José Chacayá	5	Chacayá	8	Agosto	2023-08-13T00:00:00	2024-11-06T01:00:00	6	Velocidad del viento	1.6
113094	7	Sololá	702	San José Chacayá	5	Chacayá	8	Agosto	2023-08-13T00:00:00	2024-11-06T01:00:00	7	Dirección del viento	1.61
113095	7	Sololá	702	San José Chacayá	5	Chacayá	8	Agosto	2023-08-13T00:00:00	2024-11-06T01:00:00	1	Precipitación	0
113096	7	Sololá	702	San José Chacayá	5	Chacayá	8	Agosto	2023-08-13T00:00:00	2024-11-06T01:00:00	8	Radiación solar	0
113097	7	Sololá	702	San José Chacayá	5	Chacayá	8	Agosto	2023-08-13T00:00:00	2024-11-06T02:00:00	2	Temperatura media	15.1
113098	7	Sololá	702	San José Chacayá	5	Chacayá	8	Agosto	2023-08-13T00:00:00	2024-11-06T02:00:00	4	Temperatura máxima	15.2
113099	7	Sololá	702	San José Chacayá	5	Chacayá	8	Agosto	2023-08-13T00:00:00	2024-11-06T02:00:00	3	Temperatura mínima	13.3
113100	7	Sololá	702	San José Chacayá	5	Chacayá	8	Agosto	2023-08-13T00:00:00	2024-11-06T02:00:00	5	Humedad	64
113101	7	Sololá	702	San José Chacayá	5	Chacayá	8	Agosto	2023-08-13T00:00:00	2024-11-06T02:00:00	6	Velocidad del viento	3.2
113102	7	Sololá	702	San José Chacayá	5	Chacayá	8	Agosto	2023-08-13T00:00:00	2024-11-06T02:00:00	7	Dirección del viento	3.22
113103	7	Sololá	702	San José Chacayá	5	Chacayá	8	Agosto	2023-08-13T00:00:00	2024-11-06T02:00:00	1	Precipitación	0
113104	7	Sololá	702	San José Chacayá	5	Chacayá	8	Agosto	2023-08-13T00:00:00	2024-11-06T02:00:00	8	Radiación solar	0
113105	7	Sololá	702	San José Chacayá	5	Chacayá	8	Agosto	2023-08-13T00:00:00	2024-11-06T03:00:00	2	Temperatura media	15.6
113106	7	Sololá	702	San José Chacayá	5	Chacayá	8	Agosto	2023-08-13T00:00:00	2024-11-06T03:00:00	4	Temperatura máxima	15.7
113107	7	Sololá	702	San José Chacayá	5	Chacayá	8	Agosto	2023-08-13T00:00:00	2024-11-06T03:00:00	3	Temperatura mínima	15.2
113108	7	Sololá	702	San José Chacayá	5	Chacayá	8	Agosto	2023-08-13T00:00:00	2024-11-06T03:00:00	5	Humedad	66
113109	7	Sololá	702	San José Chacayá	5	Chacayá	8	Agosto	2023-08-13T00:00:00	2024-11-06T03:00:00	6	Velocidad del viento	8
113110	7	Sololá	702	San José Chacayá	5	Chacayá	8	Agosto	2023-08-13T00:00:00	2024-11-06T03:00:00	7	Dirección del viento	8.05
113111	7	Sololá	702	San José Chacayá	5	Chacayá	8	Agosto	2023-08-13T00:00:00	2024-11-06T03:00:00	1	Precipitación	0
113112	7	Sololá	702	San José Chacayá	5	Chacayá	8	Agosto	2023-08-13T00:00:00	2024-11-06T03:00:00	8	Radiación solar	0
113113	7	Sololá	702	San José Chacayá	5	Chacayá	8	Agosto	2023-08-13T00:00:00	2024-11-06T04:00:00	2	Temperatura media	14
113114	7	Sololá	702	San José Chacayá	5	Chacayá	8	Agosto	2023-08-13T00:00:00	2024-11-06T04:00:00	4	Temperatura máxima	15.7
113115	7	Sololá	702	San José Chacayá	5	Chacayá	8	Agosto	2023-08-13T00:00:00	2024-11-06T04:00:00	3	Temperatura mínima	14
113116	7	Sololá	702	San José Chacayá	5	Chacayá	8	Agosto	2023-08-13T00:00:00	2024-11-06T04:00:00	5	Humedad	75
113117	7	Sololá	702	San José Chacayá	5	Chacayá	8	Agosto	2023-08-13T00:00:00	2024-11-06T04:00:00	6	Velocidad del viento	3.2
113118	7	Sololá	702	San José Chacayá	5	Chacayá	8	Agosto	2023-08-13T00:00:00	2024-11-06T04:00:00	7	Dirección del viento	3.22
113119	7	Sololá	702	San José Chacayá	5	Chacayá	8	Agosto	2023-08-13T00:00:00	2024-11-06T04:00:00	1	Precipitación	0
113120	7	Sololá	702	San José Chacayá	5	Chacayá	8	Agosto	2023-08-13T00:00:00	2024-11-06T04:00:00	8	Radiación solar	0
113121	7	Sololá	702	San José Chacayá	5	Chacayá	8	Agosto	2023-08-13T00:00:00	2024-11-06T05:00:00	2	Temperatura media	14.3
113122	7	Sololá	702	San José Chacayá	5	Chacayá	8	Agosto	2023-08-13T00:00:00	2024-11-06T05:00:00	4	Temperatura máxima	14.3
113123	7	Sololá	702	San José Chacayá	5	Chacayá	8	Agosto	2023-08-13T00:00:00	2024-11-06T05:00:00	3	Temperatura mínima	13.3
113124	7	Sololá	702	San José Chacayá	5	Chacayá	8	Agosto	2023-08-13T00:00:00	2024-11-06T05:00:00	5	Humedad	79
113125	7	Sololá	702	San José Chacayá	5	Chacayá	8	Agosto	2023-08-13T00:00:00	2024-11-06T05:00:00	6	Velocidad del viento	1.6
113126	7	Sololá	702	San José Chacayá	5	Chacayá	8	Agosto	2023-08-13T00:00:00	2024-11-06T05:00:00	7	Dirección del viento	1.61
113127	7	Sololá	702	San José Chacayá	5	Chacayá	8	Agosto	2023-08-13T00:00:00	2024-11-06T05:00:00	1	Precipitación	0
113128	7	Sololá	702	San José Chacayá	5	Chacayá	8	Agosto	2023-08-13T00:00:00	2024-11-06T05:00:00	8	Radiación solar	0
113129	7	Sololá	702	San José Chacayá	5	Chacayá	8	Agosto	2023-08-13T00:00:00	2024-11-06T06:00:00	2	Temperatura media	15.1
113130	7	Sololá	702	San José Chacayá	5	Chacayá	8	Agosto	2023-08-13T00:00:00	2024-11-06T06:00:00	4	Temperatura máxima	15.6
113131	7	Sololá	702	San José Chacayá	5	Chacayá	8	Agosto	2023-08-13T00:00:00	2024-11-06T06:00:00	3	Temperatura mínima	14.3
113132	7	Sololá	702	San José Chacayá	5	Chacayá	8	Agosto	2023-08-13T00:00:00	2024-11-06T06:00:00	5	Humedad	77
113133	7	Sololá	702	San José Chacayá	5	Chacayá	8	Agosto	2023-08-13T00:00:00	2024-11-06T06:00:00	6	Velocidad del viento	3.2
113134	7	Sololá	702	San José Chacayá	5	Chacayá	8	Agosto	2023-08-13T00:00:00	2024-11-06T06:00:00	7	Dirección del viento	3.22
113135	7	Sololá	702	San José Chacayá	5	Chacayá	8	Agosto	2023-08-13T00:00:00	2024-11-06T06:00:00	1	Precipitación	0
113136	7	Sololá	702	San José Chacayá	5	Chacayá	8	Agosto	2023-08-13T00:00:00	2024-11-06T06:00:00	8	Radiación solar	2
113137	7	Sololá	702	San José Chacayá	5	Chacayá	8	Agosto	2023-08-13T00:00:00	2024-11-06T07:00:00	2	Temperatura media	16.2
113138	7	Sololá	702	San José Chacayá	5	Chacayá	8	Agosto	2023-08-13T00:00:00	2024-11-06T07:00:00	4	Temperatura máxima	16.2
113139	7	Sololá	702	San José Chacayá	5	Chacayá	8	Agosto	2023-08-13T00:00:00	2024-11-06T07:00:00	3	Temperatura mínima	14.8
113140	7	Sololá	702	San José Chacayá	5	Chacayá	8	Agosto	2023-08-13T00:00:00	2024-11-06T07:00:00	5	Humedad	76
113141	7	Sololá	702	San José Chacayá	5	Chacayá	8	Agosto	2023-08-13T00:00:00	2024-11-06T07:00:00	6	Velocidad del viento	1.6
113142	7	Sololá	702	San José Chacayá	5	Chacayá	8	Agosto	2023-08-13T00:00:00	2024-11-06T07:00:00	7	Dirección del viento	1.61
113143	7	Sololá	702	San José Chacayá	5	Chacayá	8	Agosto	2023-08-13T00:00:00	2024-11-06T07:00:00	1	Precipitación	0
113144	7	Sololá	702	San José Chacayá	5	Chacayá	8	Agosto	2023-08-13T00:00:00	2024-11-06T07:00:00	8	Radiación solar	35
113145	7	Sololá	702	San José Chacayá	5	Chacayá	8	Agosto	2023-08-13T00:00:00	2024-11-06T08:00:00	2	Temperatura media	17.7
113146	7	Sololá	702	San José Chacayá	5	Chacayá	8	Agosto	2023-08-13T00:00:00	2024-11-06T08:00:00	4	Temperatura máxima	17.7
113147	7	Sololá	702	San José Chacayá	5	Chacayá	8	Agosto	2023-08-13T00:00:00	2024-11-06T08:00:00	3	Temperatura mínima	16.2
113148	7	Sololá	702	San José Chacayá	5	Chacayá	8	Agosto	2023-08-13T00:00:00	2024-11-06T08:00:00	5	Humedad	73
113149	7	Sololá	702	San José Chacayá	5	Chacayá	8	Agosto	2023-08-13T00:00:00	2024-11-06T08:00:00	6	Velocidad del viento	4.8
113150	7	Sololá	702	San José Chacayá	5	Chacayá	8	Agosto	2023-08-13T00:00:00	2024-11-06T08:00:00	7	Dirección del viento	4.83
113151	7	Sololá	702	San José Chacayá	5	Chacayá	8	Agosto	2023-08-13T00:00:00	2024-11-06T08:00:00	1	Precipitación	0
113152	7	Sololá	702	San José Chacayá	5	Chacayá	8	Agosto	2023-08-13T00:00:00	2024-11-06T08:00:00	8	Radiación solar	57
113153	7	Sololá	702	San José Chacayá	5	Chacayá	8	Agosto	2023-08-13T00:00:00	2024-11-06T09:00:00	2	Temperatura media	18.6
113154	7	Sololá	702	San José Chacayá	5	Chacayá	8	Agosto	2023-08-13T00:00:00	2024-11-06T09:00:00	4	Temperatura máxima	19.2
113155	7	Sololá	702	San José Chacayá	5	Chacayá	8	Agosto	2023-08-13T00:00:00	2024-11-06T09:00:00	3	Temperatura mínima	17.7
113156	7	Sololá	702	San José Chacayá	5	Chacayá	8	Agosto	2023-08-13T00:00:00	2024-11-06T09:00:00	5	Humedad	71
113157	7	Sololá	702	San José Chacayá	5	Chacayá	8	Agosto	2023-08-13T00:00:00	2024-11-06T09:00:00	6	Velocidad del viento	8
113158	7	Sololá	702	San José Chacayá	5	Chacayá	8	Agosto	2023-08-13T00:00:00	2024-11-06T09:00:00	7	Dirección del viento	8.05
113159	7	Sololá	702	San José Chacayá	5	Chacayá	8	Agosto	2023-08-13T00:00:00	2024-11-06T09:00:00	1	Precipitación	0
113160	7	Sololá	702	San José Chacayá	5	Chacayá	8	Agosto	2023-08-13T00:00:00	2024-11-06T09:00:00	8	Radiación solar	496
113161	7	Sololá	702	San José Chacayá	5	Chacayá	8	Agosto	2023-08-13T00:00:00	2024-11-06T10:00:00	2	Temperatura media	19.4
113162	7	Sololá	702	San José Chacayá	5	Chacayá	8	Agosto	2023-08-13T00:00:00	2024-11-06T10:00:00	4	Temperatura máxima	19.4
113163	7	Sololá	702	San José Chacayá	5	Chacayá	8	Agosto	2023-08-13T00:00:00	2024-11-06T10:00:00	3	Temperatura mínima	18.6
113164	7	Sololá	702	San José Chacayá	5	Chacayá	8	Agosto	2023-08-13T00:00:00	2024-11-06T10:00:00	5	Humedad	69
113165	7	Sololá	702	San José Chacayá	5	Chacayá	8	Agosto	2023-08-13T00:00:00	2024-11-06T10:00:00	6	Velocidad del viento	4.8
113166	7	Sololá	702	San José Chacayá	5	Chacayá	8	Agosto	2023-08-13T00:00:00	2024-11-06T10:00:00	7	Dirección del viento	4.83
113167	7	Sololá	702	San José Chacayá	5	Chacayá	8	Agosto	2023-08-13T00:00:00	2024-11-06T10:00:00	1	Precipitación	0
113168	7	Sololá	702	San José Chacayá	5	Chacayá	8	Agosto	2023-08-13T00:00:00	2024-11-06T10:00:00	8	Radiación solar	816
113169	7	Sololá	702	San José Chacayá	5	Chacayá	8	Agosto	2023-08-13T00:00:00	2024-11-06T11:00:00	2	Temperatura media	20.2
113170	7	Sololá	702	San José Chacayá	5	Chacayá	8	Agosto	2023-08-13T00:00:00	2024-11-06T11:00:00	4	Temperatura máxima	20.4
113171	7	Sololá	702	San José Chacayá	5	Chacayá	8	Agosto	2023-08-13T00:00:00	2024-11-06T11:00:00	3	Temperatura mínima	19.3
113172	7	Sololá	702	San José Chacayá	5	Chacayá	8	Agosto	2023-08-13T00:00:00	2024-11-06T11:00:00	5	Humedad	69
113173	7	Sololá	702	San José Chacayá	5	Chacayá	8	Agosto	2023-08-13T00:00:00	2024-11-06T11:00:00	6	Velocidad del viento	3.2
113174	7	Sololá	702	San José Chacayá	5	Chacayá	8	Agosto	2023-08-13T00:00:00	2024-11-06T11:00:00	7	Dirección del viento	3.22
113175	7	Sololá	702	San José Chacayá	5	Chacayá	8	Agosto	2023-08-13T00:00:00	2024-11-06T11:00:00	1	Precipitación	0
113176	7	Sololá	702	San José Chacayá	5	Chacayá	8	Agosto	2023-08-13T00:00:00	2024-11-06T11:00:00	8	Radiación solar	819
113177	7	Sololá	702	San José Chacayá	5	Chacayá	8	Agosto	2023-08-13T00:00:00	2024-11-06T12:00:00	2	Temperatura media	20.8
113178	7	Sololá	702	San José Chacayá	5	Chacayá	8	Agosto	2023-08-13T00:00:00	2024-11-06T12:00:00	4	Temperatura máxima	21.4
113179	7	Sololá	702	San José Chacayá	5	Chacayá	8	Agosto	2023-08-13T00:00:00	2024-11-06T12:00:00	3	Temperatura mínima	20.2
113180	7	Sololá	702	San José Chacayá	5	Chacayá	8	Agosto	2023-08-13T00:00:00	2024-11-06T12:00:00	5	Humedad	68
113181	7	Sololá	702	San José Chacayá	5	Chacayá	8	Agosto	2023-08-13T00:00:00	2024-11-06T12:00:00	6	Velocidad del viento	3.2
113182	7	Sololá	702	San José Chacayá	5	Chacayá	8	Agosto	2023-08-13T00:00:00	2024-11-06T12:00:00	7	Dirección del viento	3.22
113183	7	Sololá	702	San José Chacayá	5	Chacayá	8	Agosto	2023-08-13T00:00:00	2024-11-06T12:00:00	1	Precipitación	0
113184	7	Sololá	702	San José Chacayá	5	Chacayá	8	Agosto	2023-08-13T00:00:00	2024-11-06T12:00:00	8	Radiación solar	1027
113185	7	Sololá	702	San José Chacayá	5	Chacayá	8	Agosto	2023-08-13T00:00:00	2024-11-06T13:00:00	2	Temperatura media	21.2
113186	7	Sololá	702	San José Chacayá	5	Chacayá	8	Agosto	2023-08-13T00:00:00	2024-11-06T13:00:00	4	Temperatura máxima	21.2
113187	7	Sololá	702	San José Chacayá	5	Chacayá	8	Agosto	2023-08-13T00:00:00	2024-11-06T13:00:00	3	Temperatura mínima	20.4
113188	7	Sololá	702	San José Chacayá	5	Chacayá	8	Agosto	2023-08-13T00:00:00	2024-11-06T13:00:00	5	Humedad	65
113189	7	Sololá	702	San José Chacayá	5	Chacayá	8	Agosto	2023-08-13T00:00:00	2024-11-06T13:00:00	6	Velocidad del viento	3.2
113190	7	Sololá	702	San José Chacayá	5	Chacayá	8	Agosto	2023-08-13T00:00:00	2024-11-06T13:00:00	7	Dirección del viento	3.22
113191	7	Sololá	702	San José Chacayá	5	Chacayá	8	Agosto	2023-08-13T00:00:00	2024-11-06T13:00:00	1	Precipitación	0
113192	7	Sololá	702	San José Chacayá	5	Chacayá	8	Agosto	2023-08-13T00:00:00	2024-11-06T13:00:00	8	Radiación solar	1021
113193	7	Sololá	702	San José Chacayá	5	Chacayá	8	Agosto	2023-08-13T00:00:00	2024-11-06T14:00:00	2	Temperatura media	21.3
113194	7	Sololá	702	San José Chacayá	5	Chacayá	8	Agosto	2023-08-13T00:00:00	2024-11-06T14:00:00	4	Temperatura máxima	22.7
113195	7	Sololá	702	San José Chacayá	5	Chacayá	8	Agosto	2023-08-13T00:00:00	2024-11-06T14:00:00	3	Temperatura mínima	21.2
113196	7	Sololá	702	San José Chacayá	5	Chacayá	8	Agosto	2023-08-13T00:00:00	2024-11-06T14:00:00	5	Humedad	65
113197	7	Sololá	702	San José Chacayá	5	Chacayá	8	Agosto	2023-08-13T00:00:00	2024-11-06T14:00:00	6	Velocidad del viento	3.2
113198	7	Sololá	702	San José Chacayá	5	Chacayá	8	Agosto	2023-08-13T00:00:00	2024-11-06T14:00:00	7	Dirección del viento	3.22
113199	7	Sololá	702	San José Chacayá	5	Chacayá	8	Agosto	2023-08-13T00:00:00	2024-11-06T14:00:00	1	Precipitación	0
113200	7	Sololá	702	San José Chacayá	5	Chacayá	8	Agosto	2023-08-13T00:00:00	2024-11-06T14:00:00	8	Radiación solar	741
113201	7	Sololá	702	San José Chacayá	5	Chacayá	8	Agosto	2023-08-13T00:00:00	2024-11-06T15:00:00	2	Temperatura media	20.5
113202	7	Sololá	702	San José Chacayá	5	Chacayá	8	Agosto	2023-08-13T00:00:00	2024-11-06T15:00:00	4	Temperatura máxima	23.1
113203	7	Sololá	702	San José Chacayá	5	Chacayá	8	Agosto	2023-08-13T00:00:00	2024-11-06T15:00:00	3	Temperatura mínima	20.5
113204	7	Sololá	702	San José Chacayá	5	Chacayá	8	Agosto	2023-08-13T00:00:00	2024-11-06T15:00:00	5	Humedad	78
113205	7	Sololá	702	San José Chacayá	5	Chacayá	8	Agosto	2023-08-13T00:00:00	2024-11-06T15:00:00	6	Velocidad del viento	4.8
113206	7	Sololá	702	San José Chacayá	5	Chacayá	8	Agosto	2023-08-13T00:00:00	2024-11-06T15:00:00	7	Dirección del viento	4.83
113207	7	Sololá	702	San José Chacayá	5	Chacayá	8	Agosto	2023-08-13T00:00:00	2024-11-06T15:00:00	1	Precipitación	0
113208	7	Sololá	702	San José Chacayá	5	Chacayá	8	Agosto	2023-08-13T00:00:00	2024-11-06T15:00:00	8	Radiación solar	496
113209	7	Sololá	702	San José Chacayá	5	Chacayá	8	Agosto	2023-08-13T00:00:00	2024-11-06T16:00:00	2	Temperatura media	20.9
113210	7	Sololá	702	San José Chacayá	5	Chacayá	8	Agosto	2023-08-13T00:00:00	2024-11-06T16:00:00	4	Temperatura máxima	21.9
113211	7	Sololá	702	San José Chacayá	5	Chacayá	8	Agosto	2023-08-13T00:00:00	2024-11-06T16:00:00	3	Temperatura mínima	19.7
113212	7	Sololá	702	San José Chacayá	5	Chacayá	8	Agosto	2023-08-13T00:00:00	2024-11-06T16:00:00	5	Humedad	75
113213	7	Sololá	702	San José Chacayá	5	Chacayá	8	Agosto	2023-08-13T00:00:00	2024-11-06T16:00:00	6	Velocidad del viento	3.2
113214	7	Sololá	702	San José Chacayá	5	Chacayá	8	Agosto	2023-08-13T00:00:00	2024-11-06T16:00:00	7	Dirección del viento	3.22
113215	7	Sololá	702	San José Chacayá	5	Chacayá	8	Agosto	2023-08-13T00:00:00	2024-11-06T16:00:00	1	Precipitación	0
113216	7	Sololá	702	San José Chacayá	5	Chacayá	8	Agosto	2023-08-13T00:00:00	2024-11-06T16:00:00	8	Radiación solar	357
113217	7	Sololá	702	San José Chacayá	5	Chacayá	8	Agosto	2023-08-13T00:00:00	2024-11-06T17:00:00	2	Temperatura media	19.2
113218	7	Sololá	702	San José Chacayá	5	Chacayá	8	Agosto	2023-08-13T00:00:00	2024-11-06T17:00:00	4	Temperatura máxima	20.9
113219	7	Sololá	702	San José Chacayá	5	Chacayá	8	Agosto	2023-08-13T00:00:00	2024-11-06T17:00:00	3	Temperatura mínima	18.9
113220	7	Sololá	702	San José Chacayá	5	Chacayá	8	Agosto	2023-08-13T00:00:00	2024-11-06T17:00:00	5	Humedad	81
113221	7	Sololá	702	San José Chacayá	5	Chacayá	8	Agosto	2023-08-13T00:00:00	2024-11-06T17:00:00	6	Velocidad del viento	3.2
113222	7	Sololá	702	San José Chacayá	5	Chacayá	8	Agosto	2023-08-13T00:00:00	2024-11-06T17:00:00	7	Dirección del viento	3.22
113223	7	Sololá	702	San José Chacayá	5	Chacayá	8	Agosto	2023-08-13T00:00:00	2024-11-06T17:00:00	1	Precipitación	0
113224	7	Sololá	702	San José Chacayá	5	Chacayá	8	Agosto	2023-08-13T00:00:00	2024-11-06T17:00:00	8	Radiación solar	217
113225	7	Sololá	702	San José Chacayá	5	Chacayá	8	Agosto	2023-08-13T00:00:00	2024-11-06T18:00:00	2	Temperatura media	17.9
113226	7	Sololá	702	San José Chacayá	5	Chacayá	8	Agosto	2023-08-13T00:00:00	2024-11-06T18:00:00	4	Temperatura máxima	19.2
113227	7	Sololá	702	San José Chacayá	5	Chacayá	8	Agosto	2023-08-13T00:00:00	2024-11-06T18:00:00	3	Temperatura mínima	17.9
113228	7	Sololá	702	San José Chacayá	5	Chacayá	8	Agosto	2023-08-13T00:00:00	2024-11-06T18:00:00	5	Humedad	86
113229	7	Sololá	702	San José Chacayá	5	Chacayá	8	Agosto	2023-08-13T00:00:00	2024-11-06T18:00:00	6	Velocidad del viento	1.6
113230	7	Sololá	702	San José Chacayá	5	Chacayá	8	Agosto	2023-08-13T00:00:00	2024-11-06T18:00:00	7	Dirección del viento	1.61
113231	7	Sololá	702	San José Chacayá	5	Chacayá	8	Agosto	2023-08-13T00:00:00	2024-11-06T18:00:00	1	Precipitación	0
113232	7	Sololá	702	San José Chacayá	5	Chacayá	8	Agosto	2023-08-13T00:00:00	2024-11-06T18:00:00	8	Radiación solar	43
113233	7	Sololá	702	San José Chacayá	5	Chacayá	8	Agosto	2023-08-13T00:00:00	2024-11-06T19:00:00	2	Temperatura media	14.7
113234	7	Sololá	702	San José Chacayá	5	Chacayá	8	Agosto	2023-08-13T00:00:00	2024-11-06T19:00:00	4	Temperatura máxima	17.9
113235	7	Sololá	702	San José Chacayá	5	Chacayá	8	Agosto	2023-08-13T00:00:00	2024-11-06T19:00:00	3	Temperatura mínima	14.7
113236	7	Sololá	702	San José Chacayá	5	Chacayá	8	Agosto	2023-08-13T00:00:00	2024-11-06T19:00:00	5	Humedad	91
113237	7	Sololá	702	San José Chacayá	5	Chacayá	8	Agosto	2023-08-13T00:00:00	2024-11-06T19:00:00	6	Velocidad del viento	4.8
113238	7	Sololá	702	San José Chacayá	5	Chacayá	8	Agosto	2023-08-13T00:00:00	2024-11-06T19:00:00	7	Dirección del viento	4.83
113239	7	Sololá	702	San José Chacayá	5	Chacayá	8	Agosto	2023-08-13T00:00:00	2024-11-06T19:00:00	1	Precipitación	4
113240	7	Sololá	702	San José Chacayá	5	Chacayá	8	Agosto	2023-08-13T00:00:00	2024-11-06T19:00:00	8	Radiación solar	0
113241	7	Sololá	702	San José Chacayá	5	Chacayá	8	Agosto	2023-08-13T00:00:00	2024-11-06T20:00:00	2	Temperatura media	14.2
113242	7	Sololá	702	San José Chacayá	5	Chacayá	8	Agosto	2023-08-13T00:00:00	2024-11-06T20:00:00	4	Temperatura máxima	14.7
113243	7	Sololá	702	San José Chacayá	5	Chacayá	8	Agosto	2023-08-13T00:00:00	2024-11-06T20:00:00	3	Temperatura mínima	14.2
113244	7	Sololá	702	San José Chacayá	5	Chacayá	8	Agosto	2023-08-13T00:00:00	2024-11-06T20:00:00	5	Humedad	92
113245	7	Sololá	702	San José Chacayá	5	Chacayá	8	Agosto	2023-08-13T00:00:00	2024-11-06T20:00:00	6	Velocidad del viento	1.6
113246	7	Sololá	702	San José Chacayá	5	Chacayá	8	Agosto	2023-08-13T00:00:00	2024-11-06T20:00:00	7	Dirección del viento	1.61
113247	7	Sololá	702	San José Chacayá	5	Chacayá	8	Agosto	2023-08-13T00:00:00	2024-11-06T20:00:00	1	Precipitación	0
113248	7	Sololá	702	San José Chacayá	5	Chacayá	8	Agosto	2023-08-13T00:00:00	2024-11-06T20:00:00	8	Radiación solar	0
113249	7	Sololá	702	San José Chacayá	5	Chacayá	8	Agosto	2023-08-13T00:00:00	2024-11-06T21:00:00	2	Temperatura media	14.1
113250	7	Sololá	702	San José Chacayá	5	Chacayá	8	Agosto	2023-08-13T00:00:00	2024-11-06T21:00:00	4	Temperatura máxima	14.2
113251	7	Sololá	702	San José Chacayá	5	Chacayá	8	Agosto	2023-08-13T00:00:00	2024-11-06T21:00:00	3	Temperatura mínima	14
113252	7	Sololá	702	San José Chacayá	5	Chacayá	8	Agosto	2023-08-13T00:00:00	2024-11-06T21:00:00	5	Humedad	93
113253	7	Sololá	702	San José Chacayá	5	Chacayá	8	Agosto	2023-08-13T00:00:00	2024-11-06T21:00:00	6	Velocidad del viento	1.6
113254	7	Sololá	702	San José Chacayá	5	Chacayá	8	Agosto	2023-08-13T00:00:00	2024-11-06T21:00:00	7	Dirección del viento	1.61
113255	7	Sololá	702	San José Chacayá	5	Chacayá	8	Agosto	2023-08-13T00:00:00	2024-11-06T21:00:00	1	Precipitación	0
113256	7	Sololá	702	San José Chacayá	5	Chacayá	8	Agosto	2023-08-13T00:00:00	2024-11-06T21:00:00	8	Radiación solar	0
113257	7	Sololá	702	San José Chacayá	5	Chacayá	8	Agosto	2023-08-13T00:00:00	2024-11-06T22:00:00	2	Temperatura media	13.9
113258	7	Sololá	702	San José Chacayá	5	Chacayá	8	Agosto	2023-08-13T00:00:00	2024-11-06T22:00:00	4	Temperatura máxima	14.1
113259	7	Sololá	702	San José Chacayá	5	Chacayá	8	Agosto	2023-08-13T00:00:00	2024-11-06T22:00:00	3	Temperatura mínima	13.9
113260	7	Sololá	702	San José Chacayá	5	Chacayá	8	Agosto	2023-08-13T00:00:00	2024-11-06T22:00:00	5	Humedad	93
113261	7	Sololá	702	San José Chacayá	5	Chacayá	8	Agosto	2023-08-13T00:00:00	2024-11-06T22:00:00	6	Velocidad del viento	0
113262	7	Sololá	702	San José Chacayá	5	Chacayá	8	Agosto	2023-08-13T00:00:00	2024-11-06T22:00:00	7	Dirección del viento	0
113263	7	Sololá	702	San José Chacayá	5	Chacayá	8	Agosto	2023-08-13T00:00:00	2024-11-06T22:00:00	1	Precipitación	0
113264	7	Sololá	702	San José Chacayá	5	Chacayá	8	Agosto	2023-08-13T00:00:00	2024-11-06T22:00:00	8	Radiación solar	0
113265	7	Sololá	702	San José Chacayá	5	Chacayá	8	Agosto	2023-08-13T00:00:00	2024-11-06T23:00:00	2	Temperatura media	14.1
113266	7	Sololá	702	San José Chacayá	5	Chacayá	8	Agosto	2023-08-13T00:00:00	2024-11-06T23:00:00	4	Temperatura máxima	14.1
113267	7	Sololá	702	San José Chacayá	5	Chacayá	8	Agosto	2023-08-13T00:00:00	2024-11-06T23:00:00	3	Temperatura mínima	13.9
113268	7	Sololá	702	San José Chacayá	5	Chacayá	8	Agosto	2023-08-13T00:00:00	2024-11-06T23:00:00	5	Humedad	94
113269	7	Sololá	702	San José Chacayá	5	Chacayá	8	Agosto	2023-08-13T00:00:00	2024-11-06T23:00:00	6	Velocidad del viento	0
113270	7	Sololá	702	San José Chacayá	5	Chacayá	8	Agosto	2023-08-13T00:00:00	2024-11-06T23:00:00	7	Dirección del viento	0
113271	7	Sololá	702	San José Chacayá	5	Chacayá	8	Agosto	2023-08-13T00:00:00	2024-11-06T23:00:00	1	Precipitación	0
113272	7	Sololá	702	San José Chacayá	5	Chacayá	8	Agosto	2023-08-13T00:00:00	2024-11-06T23:00:00	8	Radiación solar	0
113273	7	Sololá	702	San José Chacayá	5	Chacayá	8	Agosto	2023-08-14T00:00:00	2024-11-06T00:00:00	2	Temperatura media	14.3
113274	7	Sololá	702	San José Chacayá	5	Chacayá	8	Agosto	2023-08-14T00:00:00	2024-11-06T00:00:00	4	Temperatura máxima	14.3
113275	7	Sololá	702	San José Chacayá	5	Chacayá	8	Agosto	2023-08-14T00:00:00	2024-11-06T00:00:00	3	Temperatura mínima	14.1
113276	7	Sololá	702	San José Chacayá	5	Chacayá	8	Agosto	2023-08-14T00:00:00	2024-11-06T00:00:00	5	Humedad	93
113277	7	Sololá	702	San José Chacayá	5	Chacayá	8	Agosto	2023-08-14T00:00:00	2024-11-06T00:00:00	6	Velocidad del viento	0
113278	7	Sololá	702	San José Chacayá	5	Chacayá	8	Agosto	2023-08-14T00:00:00	2024-11-06T00:00:00	7	Dirección del viento	0
113279	7	Sololá	702	San José Chacayá	5	Chacayá	8	Agosto	2023-08-14T00:00:00	2024-11-06T00:00:00	1	Precipitación	0
113280	7	Sololá	702	San José Chacayá	5	Chacayá	8	Agosto	2023-08-14T00:00:00	2024-11-06T00:00:00	8	Radiación solar	0
113281	7	Sololá	702	San José Chacayá	5	Chacayá	8	Agosto	2023-08-14T00:00:00	2024-11-06T01:00:00	2	Temperatura media	14.3
113282	7	Sololá	702	San José Chacayá	5	Chacayá	8	Agosto	2023-08-14T00:00:00	2024-11-06T01:00:00	4	Temperatura máxima	14.4
113283	7	Sololá	702	San José Chacayá	5	Chacayá	8	Agosto	2023-08-14T00:00:00	2024-11-06T01:00:00	3	Temperatura mínima	14.2
113284	7	Sololá	702	San José Chacayá	5	Chacayá	8	Agosto	2023-08-14T00:00:00	2024-11-06T01:00:00	5	Humedad	93
113285	7	Sololá	702	San José Chacayá	5	Chacayá	8	Agosto	2023-08-14T00:00:00	2024-11-06T01:00:00	6	Velocidad del viento	0
113286	7	Sololá	702	San José Chacayá	5	Chacayá	8	Agosto	2023-08-14T00:00:00	2024-11-06T01:00:00	7	Dirección del viento	0
113287	7	Sololá	702	San José Chacayá	5	Chacayá	8	Agosto	2023-08-14T00:00:00	2024-11-06T01:00:00	1	Precipitación	0
113288	7	Sololá	702	San José Chacayá	5	Chacayá	8	Agosto	2023-08-14T00:00:00	2024-11-06T01:00:00	8	Radiación solar	0
113289	7	Sololá	702	San José Chacayá	5	Chacayá	8	Agosto	2023-08-14T00:00:00	2024-11-06T02:00:00	2	Temperatura media	14.1
113290	7	Sololá	702	San José Chacayá	5	Chacayá	8	Agosto	2023-08-14T00:00:00	2024-11-06T02:00:00	4	Temperatura máxima	14.3
113291	7	Sololá	702	San José Chacayá	5	Chacayá	8	Agosto	2023-08-14T00:00:00	2024-11-06T02:00:00	3	Temperatura mínima	14.1
113292	7	Sololá	702	San José Chacayá	5	Chacayá	8	Agosto	2023-08-14T00:00:00	2024-11-06T02:00:00	5	Humedad	91
113293	7	Sololá	702	San José Chacayá	5	Chacayá	8	Agosto	2023-08-14T00:00:00	2024-11-06T02:00:00	6	Velocidad del viento	0
113294	7	Sololá	702	San José Chacayá	5	Chacayá	8	Agosto	2023-08-14T00:00:00	2024-11-06T02:00:00	7	Dirección del viento	0
113295	7	Sololá	702	San José Chacayá	5	Chacayá	8	Agosto	2023-08-14T00:00:00	2024-11-06T02:00:00	1	Precipitación	0
113296	7	Sololá	702	San José Chacayá	5	Chacayá	8	Agosto	2023-08-14T00:00:00	2024-11-06T02:00:00	8	Radiación solar	0
113297	7	Sololá	702	San José Chacayá	5	Chacayá	8	Agosto	2023-08-14T00:00:00	2024-11-06T03:00:00	2	Temperatura media	13.2
113298	7	Sololá	702	San José Chacayá	5	Chacayá	8	Agosto	2023-08-14T00:00:00	2024-11-06T03:00:00	4	Temperatura máxima	14.1
113299	7	Sololá	702	San José Chacayá	5	Chacayá	8	Agosto	2023-08-14T00:00:00	2024-11-06T03:00:00	3	Temperatura mínima	13.2
113300	7	Sololá	702	San José Chacayá	5	Chacayá	8	Agosto	2023-08-14T00:00:00	2024-11-06T03:00:00	5	Humedad	90
113301	7	Sololá	702	San José Chacayá	5	Chacayá	8	Agosto	2023-08-14T00:00:00	2024-11-06T03:00:00	6	Velocidad del viento	1.6
113302	7	Sololá	702	San José Chacayá	5	Chacayá	8	Agosto	2023-08-14T00:00:00	2024-11-06T03:00:00	7	Dirección del viento	1.61
113303	7	Sololá	702	San José Chacayá	5	Chacayá	8	Agosto	2023-08-14T00:00:00	2024-11-06T03:00:00	1	Precipitación	0
113304	7	Sololá	702	San José Chacayá	5	Chacayá	8	Agosto	2023-08-14T00:00:00	2024-11-06T03:00:00	8	Radiación solar	0
113305	7	Sololá	702	San José Chacayá	5	Chacayá	8	Agosto	2023-08-14T00:00:00	2024-11-06T04:00:00	2	Temperatura media	12.1
113306	7	Sololá	702	San José Chacayá	5	Chacayá	8	Agosto	2023-08-14T00:00:00	2024-11-06T04:00:00	4	Temperatura máxima	13.2
113307	7	Sololá	702	San José Chacayá	5	Chacayá	8	Agosto	2023-08-14T00:00:00	2024-11-06T04:00:00	3	Temperatura mínima	12.1
113308	7	Sololá	702	San José Chacayá	5	Chacayá	8	Agosto	2023-08-14T00:00:00	2024-11-06T04:00:00	5	Humedad	93
113309	7	Sololá	702	San José Chacayá	5	Chacayá	8	Agosto	2023-08-14T00:00:00	2024-11-06T04:00:00	6	Velocidad del viento	0
113310	7	Sololá	702	San José Chacayá	5	Chacayá	8	Agosto	2023-08-14T00:00:00	2024-11-06T04:00:00	7	Dirección del viento	0
113311	7	Sololá	702	San José Chacayá	5	Chacayá	8	Agosto	2023-08-14T00:00:00	2024-11-06T04:00:00	1	Precipitación	0
113312	7	Sololá	702	San José Chacayá	5	Chacayá	8	Agosto	2023-08-14T00:00:00	2024-11-06T04:00:00	8	Radiación solar	0
113313	7	Sololá	702	San José Chacayá	5	Chacayá	8	Agosto	2023-08-14T00:00:00	2024-11-06T05:00:00	2	Temperatura media	12.9
113314	7	Sololá	702	San José Chacayá	5	Chacayá	8	Agosto	2023-08-14T00:00:00	2024-11-06T05:00:00	4	Temperatura máxima	12.9
113315	7	Sololá	702	San José Chacayá	5	Chacayá	8	Agosto	2023-08-14T00:00:00	2024-11-06T05:00:00	3	Temperatura mínima	11.8
113316	7	Sololá	702	San José Chacayá	5	Chacayá	8	Agosto	2023-08-14T00:00:00	2024-11-06T05:00:00	5	Humedad	89
113317	7	Sololá	702	San José Chacayá	5	Chacayá	8	Agosto	2023-08-14T00:00:00	2024-11-06T05:00:00	6	Velocidad del viento	1.6
113318	7	Sololá	702	San José Chacayá	5	Chacayá	8	Agosto	2023-08-14T00:00:00	2024-11-06T05:00:00	7	Dirección del viento	1.61
113319	7	Sololá	702	San José Chacayá	5	Chacayá	8	Agosto	2023-08-14T00:00:00	2024-11-06T05:00:00	1	Precipitación	0
113320	7	Sololá	702	San José Chacayá	5	Chacayá	8	Agosto	2023-08-14T00:00:00	2024-11-06T05:00:00	8	Radiación solar	0
113321	7	Sololá	702	San José Chacayá	5	Chacayá	8	Agosto	2023-08-14T00:00:00	2024-11-06T06:00:00	2	Temperatura media	12.1
113322	7	Sololá	702	San José Chacayá	5	Chacayá	8	Agosto	2023-08-14T00:00:00	2024-11-06T06:00:00	4	Temperatura máxima	13.1
113323	7	Sololá	702	San José Chacayá	5	Chacayá	8	Agosto	2023-08-14T00:00:00	2024-11-06T06:00:00	3	Temperatura mínima	12
113324	7	Sololá	702	San José Chacayá	5	Chacayá	8	Agosto	2023-08-14T00:00:00	2024-11-06T06:00:00	5	Humedad	92
113325	7	Sololá	702	San José Chacayá	5	Chacayá	8	Agosto	2023-08-14T00:00:00	2024-11-06T06:00:00	6	Velocidad del viento	1.6
113326	7	Sololá	702	San José Chacayá	5	Chacayá	8	Agosto	2023-08-14T00:00:00	2024-11-06T06:00:00	7	Dirección del viento	1.61
113327	7	Sololá	702	San José Chacayá	5	Chacayá	8	Agosto	2023-08-14T00:00:00	2024-11-06T06:00:00	1	Precipitación	0
113328	7	Sololá	702	San José Chacayá	5	Chacayá	8	Agosto	2023-08-14T00:00:00	2024-11-06T06:00:00	8	Radiación solar	2
113329	7	Sololá	702	San José Chacayá	5	Chacayá	8	Agosto	2023-08-14T00:00:00	2024-11-06T07:00:00	2	Temperatura media	14.5
113330	7	Sololá	702	San José Chacayá	5	Chacayá	8	Agosto	2023-08-14T00:00:00	2024-11-06T07:00:00	4	Temperatura máxima	14.6
113331	7	Sololá	702	San José Chacayá	5	Chacayá	8	Agosto	2023-08-14T00:00:00	2024-11-06T07:00:00	3	Temperatura mínima	12.1
113332	7	Sololá	702	San José Chacayá	5	Chacayá	8	Agosto	2023-08-14T00:00:00	2024-11-06T07:00:00	5	Humedad	85
113333	7	Sololá	702	San José Chacayá	5	Chacayá	8	Agosto	2023-08-14T00:00:00	2024-11-06T07:00:00	6	Velocidad del viento	3.2
113334	7	Sololá	702	San José Chacayá	5	Chacayá	8	Agosto	2023-08-14T00:00:00	2024-11-06T07:00:00	7	Dirección del viento	3.22
113335	7	Sololá	702	San José Chacayá	5	Chacayá	8	Agosto	2023-08-14T00:00:00	2024-11-06T07:00:00	1	Precipitación	0
113336	7	Sololá	702	San José Chacayá	5	Chacayá	8	Agosto	2023-08-14T00:00:00	2024-11-06T07:00:00	8	Radiación solar	31
113337	7	Sololá	702	San José Chacayá	5	Chacayá	8	Agosto	2023-08-14T00:00:00	2024-11-06T08:00:00	2	Temperatura media	16.4
113338	7	Sololá	702	San José Chacayá	5	Chacayá	8	Agosto	2023-08-14T00:00:00	2024-11-06T08:00:00	4	Temperatura máxima	16.4
113339	7	Sololá	702	San José Chacayá	5	Chacayá	8	Agosto	2023-08-14T00:00:00	2024-11-06T08:00:00	3	Temperatura mínima	14.5
113340	7	Sololá	702	San José Chacayá	5	Chacayá	8	Agosto	2023-08-14T00:00:00	2024-11-06T08:00:00	5	Humedad	80
113341	7	Sololá	702	San José Chacayá	5	Chacayá	8	Agosto	2023-08-14T00:00:00	2024-11-06T08:00:00	6	Velocidad del viento	3.2
113342	7	Sololá	702	San José Chacayá	5	Chacayá	8	Agosto	2023-08-14T00:00:00	2024-11-06T08:00:00	7	Dirección del viento	3.22
113343	7	Sololá	702	San José Chacayá	5	Chacayá	8	Agosto	2023-08-14T00:00:00	2024-11-06T08:00:00	1	Precipitación	0
113344	7	Sololá	702	San José Chacayá	5	Chacayá	8	Agosto	2023-08-14T00:00:00	2024-11-06T08:00:00	8	Radiación solar	62
113345	7	Sololá	702	San José Chacayá	5	Chacayá	8	Agosto	2023-08-14T00:00:00	2024-11-06T09:00:00	2	Temperatura media	17.5
113346	7	Sololá	702	San José Chacayá	5	Chacayá	8	Agosto	2023-08-14T00:00:00	2024-11-06T09:00:00	4	Temperatura máxima	17.5
113347	7	Sololá	702	San José Chacayá	5	Chacayá	8	Agosto	2023-08-14T00:00:00	2024-11-06T09:00:00	3	Temperatura mínima	16.4
113348	7	Sololá	702	San José Chacayá	5	Chacayá	8	Agosto	2023-08-14T00:00:00	2024-11-06T09:00:00	5	Humedad	73
113349	7	Sololá	702	San José Chacayá	5	Chacayá	8	Agosto	2023-08-14T00:00:00	2024-11-06T09:00:00	6	Velocidad del viento	4.8
113350	7	Sololá	702	San José Chacayá	5	Chacayá	8	Agosto	2023-08-14T00:00:00	2024-11-06T09:00:00	7	Dirección del viento	4.83
113351	7	Sololá	702	San José Chacayá	5	Chacayá	8	Agosto	2023-08-14T00:00:00	2024-11-06T09:00:00	1	Precipitación	0
113352	7	Sololá	702	San José Chacayá	5	Chacayá	8	Agosto	2023-08-14T00:00:00	2024-11-06T09:00:00	8	Radiación solar	294
113353	7	Sololá	702	San José Chacayá	5	Chacayá	8	Agosto	2023-08-14T00:00:00	2024-11-06T10:00:00	2	Temperatura media	20.5
113354	7	Sololá	702	San José Chacayá	5	Chacayá	8	Agosto	2023-08-14T00:00:00	2024-11-06T10:00:00	4	Temperatura máxima	20.6
113355	7	Sololá	702	San José Chacayá	5	Chacayá	8	Agosto	2023-08-14T00:00:00	2024-11-06T10:00:00	3	Temperatura mínima	17.6
113356	7	Sololá	702	San José Chacayá	5	Chacayá	8	Agosto	2023-08-14T00:00:00	2024-11-06T10:00:00	5	Humedad	63
113357	7	Sololá	702	San José Chacayá	5	Chacayá	8	Agosto	2023-08-14T00:00:00	2024-11-06T10:00:00	6	Velocidad del viento	4.8
113358	7	Sololá	702	San José Chacayá	5	Chacayá	8	Agosto	2023-08-14T00:00:00	2024-11-06T10:00:00	7	Dirección del viento	4.83
113359	7	Sololá	702	San José Chacayá	5	Chacayá	8	Agosto	2023-08-14T00:00:00	2024-11-06T10:00:00	1	Precipitación	0
113360	7	Sololá	702	San José Chacayá	5	Chacayá	8	Agosto	2023-08-14T00:00:00	2024-11-06T10:00:00	8	Radiación solar	548
113361	7	Sololá	702	San José Chacayá	5	Chacayá	8	Agosto	2023-08-14T00:00:00	2024-11-06T11:00:00	2	Temperatura media	21.4
113362	7	Sololá	702	San José Chacayá	5	Chacayá	8	Agosto	2023-08-14T00:00:00	2024-11-06T11:00:00	4	Temperatura máxima	22.1
113363	7	Sololá	702	San José Chacayá	5	Chacayá	8	Agosto	2023-08-14T00:00:00	2024-11-06T11:00:00	3	Temperatura mínima	20.5
113364	7	Sololá	702	San José Chacayá	5	Chacayá	8	Agosto	2023-08-14T00:00:00	2024-11-06T11:00:00	5	Humedad	59
113365	7	Sololá	702	San José Chacayá	5	Chacayá	8	Agosto	2023-08-14T00:00:00	2024-11-06T11:00:00	6	Velocidad del viento	4.8
113366	7	Sololá	702	San José Chacayá	5	Chacayá	8	Agosto	2023-08-14T00:00:00	2024-11-06T11:00:00	7	Dirección del viento	4.83
113367	7	Sololá	702	San José Chacayá	5	Chacayá	8	Agosto	2023-08-14T00:00:00	2024-11-06T11:00:00	1	Precipitación	0
113368	7	Sololá	702	San José Chacayá	5	Chacayá	8	Agosto	2023-08-14T00:00:00	2024-11-06T11:00:00	8	Radiación solar	756
113369	7	Sololá	702	San José Chacayá	5	Chacayá	8	Agosto	2023-08-14T00:00:00	2024-11-06T12:00:00	2	Temperatura media	21.3
113370	7	Sololá	702	San José Chacayá	5	Chacayá	8	Agosto	2023-08-14T00:00:00	2024-11-06T12:00:00	4	Temperatura máxima	22.7
113371	7	Sololá	702	San José Chacayá	5	Chacayá	8	Agosto	2023-08-14T00:00:00	2024-11-06T12:00:00	3	Temperatura mínima	21.2
113372	7	Sololá	702	San José Chacayá	5	Chacayá	8	Agosto	2023-08-14T00:00:00	2024-11-06T12:00:00	5	Humedad	59
113373	7	Sololá	702	San José Chacayá	5	Chacayá	8	Agosto	2023-08-14T00:00:00	2024-11-06T12:00:00	6	Velocidad del viento	4.8
113374	7	Sololá	702	San José Chacayá	5	Chacayá	8	Agosto	2023-08-14T00:00:00	2024-11-06T12:00:00	7	Dirección del viento	4.83
113375	7	Sololá	702	San José Chacayá	5	Chacayá	8	Agosto	2023-08-14T00:00:00	2024-11-06T12:00:00	1	Precipitación	0
113376	7	Sololá	702	San José Chacayá	5	Chacayá	8	Agosto	2023-08-14T00:00:00	2024-11-06T12:00:00	8	Radiación solar	778
113377	7	Sololá	702	San José Chacayá	5	Chacayá	8	Agosto	2023-08-14T00:00:00	2024-11-06T13:00:00	2	Temperatura media	21
113378	7	Sololá	702	San José Chacayá	5	Chacayá	8	Agosto	2023-08-14T00:00:00	2024-11-06T13:00:00	4	Temperatura máxima	21.4
113379	7	Sololá	702	San José Chacayá	5	Chacayá	8	Agosto	2023-08-14T00:00:00	2024-11-06T13:00:00	3	Temperatura mínima	20.6
113380	7	Sololá	702	San José Chacayá	5	Chacayá	8	Agosto	2023-08-14T00:00:00	2024-11-06T13:00:00	5	Humedad	58
113381	7	Sololá	702	San José Chacayá	5	Chacayá	8	Agosto	2023-08-14T00:00:00	2024-11-06T13:00:00	6	Velocidad del viento	3.2
113382	7	Sololá	702	San José Chacayá	5	Chacayá	8	Agosto	2023-08-14T00:00:00	2024-11-06T13:00:00	7	Dirección del viento	3.22
113383	7	Sololá	702	San José Chacayá	5	Chacayá	8	Agosto	2023-08-14T00:00:00	2024-11-06T13:00:00	1	Precipitación	0
113384	7	Sololá	702	San José Chacayá	5	Chacayá	8	Agosto	2023-08-14T00:00:00	2024-11-06T13:00:00	8	Radiación solar	743
113385	7	Sololá	702	San José Chacayá	5	Chacayá	8	Agosto	2023-08-14T00:00:00	2024-11-06T14:00:00	2	Temperatura media	22.9
113386	7	Sololá	702	San José Chacayá	5	Chacayá	8	Agosto	2023-08-14T00:00:00	2024-11-06T14:00:00	4	Temperatura máxima	22.9
113387	7	Sololá	702	San José Chacayá	5	Chacayá	8	Agosto	2023-08-14T00:00:00	2024-11-06T14:00:00	3	Temperatura mínima	20.6
113388	7	Sololá	702	San José Chacayá	5	Chacayá	8	Agosto	2023-08-14T00:00:00	2024-11-06T14:00:00	5	Humedad	53
113389	7	Sololá	702	San José Chacayá	5	Chacayá	8	Agosto	2023-08-14T00:00:00	2024-11-06T14:00:00	6	Velocidad del viento	4.8
113390	7	Sololá	702	San José Chacayá	5	Chacayá	8	Agosto	2023-08-14T00:00:00	2024-11-06T14:00:00	7	Dirección del viento	4.83
113391	7	Sololá	702	San José Chacayá	5	Chacayá	8	Agosto	2023-08-14T00:00:00	2024-11-06T14:00:00	1	Precipitación	0
113392	7	Sololá	702	San José Chacayá	5	Chacayá	8	Agosto	2023-08-14T00:00:00	2024-11-06T14:00:00	8	Radiación solar	444
113393	7	Sololá	702	San José Chacayá	5	Chacayá	8	Agosto	2023-08-14T00:00:00	2024-11-06T15:00:00	2	Temperatura media	21.5
113394	7	Sololá	702	San José Chacayá	5	Chacayá	8	Agosto	2023-08-14T00:00:00	2024-11-06T15:00:00	4	Temperatura máxima	22.9
113395	7	Sololá	702	San José Chacayá	5	Chacayá	8	Agosto	2023-08-14T00:00:00	2024-11-06T15:00:00	3	Temperatura mínima	21.5
113396	7	Sololá	702	San José Chacayá	5	Chacayá	8	Agosto	2023-08-14T00:00:00	2024-11-06T15:00:00	5	Humedad	61
113397	7	Sololá	702	San José Chacayá	5	Chacayá	8	Agosto	2023-08-14T00:00:00	2024-11-06T15:00:00	6	Velocidad del viento	4.8
113398	7	Sololá	702	San José Chacayá	5	Chacayá	8	Agosto	2023-08-14T00:00:00	2024-11-06T15:00:00	7	Dirección del viento	4.83
113399	7	Sololá	702	San José Chacayá	5	Chacayá	8	Agosto	2023-08-14T00:00:00	2024-11-06T15:00:00	1	Precipitación	0
113400	7	Sololá	702	San José Chacayá	5	Chacayá	8	Agosto	2023-08-14T00:00:00	2024-11-06T15:00:00	8	Radiación solar	218
113401	7	Sololá	702	San José Chacayá	5	Chacayá	8	Agosto	2023-08-14T00:00:00	2024-11-06T16:00:00	2	Temperatura media	21.4
113402	7	Sololá	702	San José Chacayá	5	Chacayá	8	Agosto	2023-08-14T00:00:00	2024-11-06T16:00:00	4	Temperatura máxima	21.8
113403	7	Sololá	702	San José Chacayá	5	Chacayá	8	Agosto	2023-08-14T00:00:00	2024-11-06T16:00:00	3	Temperatura mínima	20
113404	7	Sololá	702	San José Chacayá	5	Chacayá	8	Agosto	2023-08-14T00:00:00	2024-11-06T16:00:00	5	Humedad	62
113405	7	Sololá	702	San José Chacayá	5	Chacayá	8	Agosto	2023-08-14T00:00:00	2024-11-06T16:00:00	6	Velocidad del viento	3.2
113406	7	Sololá	702	San José Chacayá	5	Chacayá	8	Agosto	2023-08-14T00:00:00	2024-11-06T16:00:00	7	Dirección del viento	3.22
113407	7	Sololá	702	San José Chacayá	5	Chacayá	8	Agosto	2023-08-14T00:00:00	2024-11-06T16:00:00	1	Precipitación	0
113408	7	Sololá	702	San José Chacayá	5	Chacayá	8	Agosto	2023-08-14T00:00:00	2024-11-06T16:00:00	8	Radiación solar	285
113409	7	Sololá	702	San José Chacayá	5	Chacayá	8	Agosto	2023-08-14T00:00:00	2024-11-06T17:00:00	2	Temperatura media	18.9
113410	7	Sololá	702	San José Chacayá	5	Chacayá	8	Agosto	2023-08-14T00:00:00	2024-11-06T17:00:00	4	Temperatura máxima	21.4
113411	7	Sololá	702	San José Chacayá	5	Chacayá	8	Agosto	2023-08-14T00:00:00	2024-11-06T17:00:00	3	Temperatura mínima	18.9
113412	7	Sololá	702	San José Chacayá	5	Chacayá	8	Agosto	2023-08-14T00:00:00	2024-11-06T17:00:00	5	Humedad	68
113413	7	Sololá	702	San José Chacayá	5	Chacayá	8	Agosto	2023-08-14T00:00:00	2024-11-06T17:00:00	6	Velocidad del viento	3.2
113414	7	Sololá	702	San José Chacayá	5	Chacayá	8	Agosto	2023-08-14T00:00:00	2024-11-06T17:00:00	7	Dirección del viento	3.22
113415	7	Sololá	702	San José Chacayá	5	Chacayá	8	Agosto	2023-08-14T00:00:00	2024-11-06T17:00:00	1	Precipitación	0
113416	7	Sololá	702	San José Chacayá	5	Chacayá	8	Agosto	2023-08-14T00:00:00	2024-11-06T17:00:00	8	Radiación solar	144
113417	7	Sololá	702	San José Chacayá	5	Chacayá	8	Agosto	2023-08-14T00:00:00	2024-11-06T18:00:00	2	Temperatura media	17.4
113418	7	Sololá	702	San José Chacayá	5	Chacayá	8	Agosto	2023-08-14T00:00:00	2024-11-06T18:00:00	4	Temperatura máxima	18.9
113419	7	Sololá	702	San José Chacayá	5	Chacayá	8	Agosto	2023-08-14T00:00:00	2024-11-06T18:00:00	3	Temperatura mínima	17.4
113420	7	Sololá	702	San José Chacayá	5	Chacayá	8	Agosto	2023-08-14T00:00:00	2024-11-06T18:00:00	5	Humedad	74
113421	7	Sololá	702	San José Chacayá	5	Chacayá	8	Agosto	2023-08-14T00:00:00	2024-11-06T18:00:00	6	Velocidad del viento	3.2
113422	7	Sololá	702	San José Chacayá	5	Chacayá	8	Agosto	2023-08-14T00:00:00	2024-11-06T18:00:00	7	Dirección del viento	3.22
113423	7	Sololá	702	San José Chacayá	5	Chacayá	8	Agosto	2023-08-14T00:00:00	2024-11-06T18:00:00	1	Precipitación	0
113424	7	Sololá	702	San José Chacayá	5	Chacayá	8	Agosto	2023-08-14T00:00:00	2024-11-06T18:00:00	8	Radiación solar	14
113425	7	Sololá	702	San José Chacayá	5	Chacayá	8	Agosto	2023-08-14T00:00:00	2024-11-06T19:00:00	2	Temperatura media	15.7
113426	7	Sololá	702	San José Chacayá	5	Chacayá	8	Agosto	2023-08-14T00:00:00	2024-11-06T19:00:00	4	Temperatura máxima	17.4
113427	7	Sololá	702	San José Chacayá	5	Chacayá	8	Agosto	2023-08-14T00:00:00	2024-11-06T19:00:00	3	Temperatura mínima	15.7
113428	7	Sololá	702	San José Chacayá	5	Chacayá	8	Agosto	2023-08-14T00:00:00	2024-11-06T19:00:00	5	Humedad	79
113429	7	Sololá	702	San José Chacayá	5	Chacayá	8	Agosto	2023-08-14T00:00:00	2024-11-06T19:00:00	6	Velocidad del viento	1.6
113430	7	Sololá	702	San José Chacayá	5	Chacayá	8	Agosto	2023-08-14T00:00:00	2024-11-06T19:00:00	7	Dirección del viento	1.61
113431	7	Sololá	702	San José Chacayá	5	Chacayá	8	Agosto	2023-08-14T00:00:00	2024-11-06T19:00:00	1	Precipitación	0
113432	7	Sololá	702	San José Chacayá	5	Chacayá	8	Agosto	2023-08-14T00:00:00	2024-11-06T19:00:00	8	Radiación solar	0
113433	7	Sololá	702	San José Chacayá	5	Chacayá	8	Agosto	2023-08-14T00:00:00	2024-11-06T20:00:00	2	Temperatura media	15.1
113434	7	Sololá	702	San José Chacayá	5	Chacayá	8	Agosto	2023-08-14T00:00:00	2024-11-06T20:00:00	4	Temperatura máxima	15.8
113435	7	Sololá	702	San José Chacayá	5	Chacayá	8	Agosto	2023-08-14T00:00:00	2024-11-06T20:00:00	3	Temperatura mínima	14.8
113436	7	Sololá	702	San José Chacayá	5	Chacayá	8	Agosto	2023-08-14T00:00:00	2024-11-06T20:00:00	5	Humedad	83
113437	7	Sololá	702	San José Chacayá	5	Chacayá	8	Agosto	2023-08-14T00:00:00	2024-11-06T20:00:00	6	Velocidad del viento	1.6
113438	7	Sololá	702	San José Chacayá	5	Chacayá	8	Agosto	2023-08-14T00:00:00	2024-11-06T20:00:00	7	Dirección del viento	1.61
113439	7	Sololá	702	San José Chacayá	5	Chacayá	8	Agosto	2023-08-14T00:00:00	2024-11-06T20:00:00	1	Precipitación	0
113440	7	Sololá	702	San José Chacayá	5	Chacayá	8	Agosto	2023-08-14T00:00:00	2024-11-06T20:00:00	8	Radiación solar	0
113441	7	Sololá	702	San José Chacayá	5	Chacayá	8	Agosto	2023-08-14T00:00:00	2024-11-06T21:00:00	2	Temperatura media	14.7
113442	7	Sololá	702	San José Chacayá	5	Chacayá	8	Agosto	2023-08-14T00:00:00	2024-11-06T21:00:00	4	Temperatura máxima	15.4
113443	7	Sololá	702	San José Chacayá	5	Chacayá	8	Agosto	2023-08-14T00:00:00	2024-11-06T21:00:00	3	Temperatura mínima	14.7
113444	7	Sololá	702	San José Chacayá	5	Chacayá	8	Agosto	2023-08-14T00:00:00	2024-11-06T21:00:00	5	Humedad	89
113445	7	Sololá	702	San José Chacayá	5	Chacayá	8	Agosto	2023-08-14T00:00:00	2024-11-06T21:00:00	6	Velocidad del viento	0
113446	7	Sololá	702	San José Chacayá	5	Chacayá	8	Agosto	2023-08-14T00:00:00	2024-11-06T21:00:00	7	Dirección del viento	0
113447	7	Sololá	702	San José Chacayá	5	Chacayá	8	Agosto	2023-08-14T00:00:00	2024-11-06T21:00:00	1	Precipitación	1
113448	7	Sololá	702	San José Chacayá	5	Chacayá	8	Agosto	2023-08-14T00:00:00	2024-11-06T21:00:00	8	Radiación solar	0
113449	7	Sololá	702	San José Chacayá	5	Chacayá	8	Agosto	2023-08-14T00:00:00	2024-11-06T22:00:00	2	Temperatura media	14.4
113450	7	Sololá	702	San José Chacayá	5	Chacayá	8	Agosto	2023-08-14T00:00:00	2024-11-06T22:00:00	4	Temperatura máxima	14.7
113451	7	Sololá	702	San José Chacayá	5	Chacayá	8	Agosto	2023-08-14T00:00:00	2024-11-06T22:00:00	3	Temperatura mínima	14.1
113452	7	Sololá	702	San José Chacayá	5	Chacayá	8	Agosto	2023-08-14T00:00:00	2024-11-06T22:00:00	5	Humedad	88
113453	7	Sololá	702	San José Chacayá	5	Chacayá	8	Agosto	2023-08-14T00:00:00	2024-11-06T22:00:00	6	Velocidad del viento	3.2
113454	7	Sololá	702	San José Chacayá	5	Chacayá	8	Agosto	2023-08-14T00:00:00	2024-11-06T22:00:00	7	Dirección del viento	3.22
113455	7	Sololá	702	San José Chacayá	5	Chacayá	8	Agosto	2023-08-14T00:00:00	2024-11-06T22:00:00	1	Precipitación	0.2
113456	7	Sololá	702	San José Chacayá	5	Chacayá	8	Agosto	2023-08-14T00:00:00	2024-11-06T22:00:00	8	Radiación solar	0
113457	7	Sololá	702	San José Chacayá	5	Chacayá	8	Agosto	2023-08-14T00:00:00	2024-11-06T23:00:00	2	Temperatura media	13.9
113458	7	Sololá	702	San José Chacayá	5	Chacayá	8	Agosto	2023-08-14T00:00:00	2024-11-06T23:00:00	4	Temperatura máxima	14.6
113459	7	Sololá	702	San José Chacayá	5	Chacayá	8	Agosto	2023-08-14T00:00:00	2024-11-06T23:00:00	3	Temperatura mínima	13.8
113460	7	Sololá	702	San José Chacayá	5	Chacayá	8	Agosto	2023-08-14T00:00:00	2024-11-06T23:00:00	5	Humedad	92
113461	7	Sololá	702	San José Chacayá	5	Chacayá	8	Agosto	2023-08-14T00:00:00	2024-11-06T23:00:00	6	Velocidad del viento	1.6
113462	7	Sololá	702	San José Chacayá	5	Chacayá	8	Agosto	2023-08-14T00:00:00	2024-11-06T23:00:00	7	Dirección del viento	1.61
113463	7	Sololá	702	San José Chacayá	5	Chacayá	8	Agosto	2023-08-14T00:00:00	2024-11-06T23:00:00	1	Precipitación	0
113464	7	Sololá	702	San José Chacayá	5	Chacayá	8	Agosto	2023-08-14T00:00:00	2024-11-06T23:00:00	8	Radiación solar	0
113465	7	Sololá	702	San José Chacayá	5	Chacayá	8	Agosto	2023-08-15T00:00:00	2024-11-06T00:00:00	2	Temperatura media	13.9
113466	7	Sololá	702	San José Chacayá	5	Chacayá	8	Agosto	2023-08-15T00:00:00	2024-11-06T00:00:00	4	Temperatura máxima	14
113467	7	Sololá	702	San José Chacayá	5	Chacayá	8	Agosto	2023-08-15T00:00:00	2024-11-06T00:00:00	3	Temperatura mínima	13.8
113468	7	Sololá	702	San José Chacayá	5	Chacayá	8	Agosto	2023-08-15T00:00:00	2024-11-06T00:00:00	5	Humedad	94
113469	7	Sololá	702	San José Chacayá	5	Chacayá	8	Agosto	2023-08-15T00:00:00	2024-11-06T00:00:00	6	Velocidad del viento	0
113470	7	Sololá	702	San José Chacayá	5	Chacayá	8	Agosto	2023-08-15T00:00:00	2024-11-06T00:00:00	7	Dirección del viento	0
113471	7	Sololá	702	San José Chacayá	5	Chacayá	8	Agosto	2023-08-15T00:00:00	2024-11-06T00:00:00	1	Precipitación	4.4
113472	7	Sololá	702	San José Chacayá	5	Chacayá	8	Agosto	2023-08-15T00:00:00	2024-11-06T00:00:00	8	Radiación solar	0
113473	7	Sololá	702	San José Chacayá	5	Chacayá	8	Agosto	2023-08-15T00:00:00	2024-11-06T01:00:00	2	Temperatura media	13.6
113474	7	Sololá	702	San José Chacayá	5	Chacayá	8	Agosto	2023-08-15T00:00:00	2024-11-06T01:00:00	4	Temperatura máxima	14
113475	7	Sololá	702	San José Chacayá	5	Chacayá	8	Agosto	2023-08-15T00:00:00	2024-11-06T01:00:00	3	Temperatura mínima	13.6
113476	7	Sololá	702	San José Chacayá	5	Chacayá	8	Agosto	2023-08-15T00:00:00	2024-11-06T01:00:00	5	Humedad	93
113477	7	Sololá	702	San José Chacayá	5	Chacayá	8	Agosto	2023-08-15T00:00:00	2024-11-06T01:00:00	6	Velocidad del viento	1.6
113478	7	Sololá	702	San José Chacayá	5	Chacayá	8	Agosto	2023-08-15T00:00:00	2024-11-06T01:00:00	7	Dirección del viento	1.61
113479	7	Sololá	702	San José Chacayá	5	Chacayá	8	Agosto	2023-08-15T00:00:00	2024-11-06T01:00:00	1	Precipitación	2
113480	7	Sololá	702	San José Chacayá	5	Chacayá	8	Agosto	2023-08-15T00:00:00	2024-11-06T01:00:00	8	Radiación solar	0
113481	7	Sololá	702	San José Chacayá	5	Chacayá	8	Agosto	2023-08-15T00:00:00	2024-11-06T02:00:00	2	Temperatura media	13.1
113482	7	Sololá	702	San José Chacayá	5	Chacayá	8	Agosto	2023-08-15T00:00:00	2024-11-06T02:00:00	4	Temperatura máxima	13.6
113483	7	Sololá	702	San José Chacayá	5	Chacayá	8	Agosto	2023-08-15T00:00:00	2024-11-06T02:00:00	3	Temperatura mínima	13.1
113484	7	Sololá	702	San José Chacayá	5	Chacayá	8	Agosto	2023-08-15T00:00:00	2024-11-06T02:00:00	5	Humedad	89
113485	7	Sololá	702	San José Chacayá	5	Chacayá	8	Agosto	2023-08-15T00:00:00	2024-11-06T02:00:00	6	Velocidad del viento	1.6
113486	7	Sololá	702	San José Chacayá	5	Chacayá	8	Agosto	2023-08-15T00:00:00	2024-11-06T02:00:00	7	Dirección del viento	1.61
113487	7	Sololá	702	San José Chacayá	5	Chacayá	8	Agosto	2023-08-15T00:00:00	2024-11-06T02:00:00	1	Precipitación	0
113488	7	Sololá	702	San José Chacayá	5	Chacayá	8	Agosto	2023-08-15T00:00:00	2024-11-06T02:00:00	8	Radiación solar	0
113489	7	Sololá	702	San José Chacayá	5	Chacayá	8	Agosto	2023-08-15T00:00:00	2024-11-06T03:00:00	2	Temperatura media	12.8
113490	7	Sololá	702	San José Chacayá	5	Chacayá	8	Agosto	2023-08-15T00:00:00	2024-11-06T03:00:00	4	Temperatura máxima	13.3
113491	7	Sololá	702	San José Chacayá	5	Chacayá	8	Agosto	2023-08-15T00:00:00	2024-11-06T03:00:00	3	Temperatura mínima	12.8
113492	7	Sololá	702	San José Chacayá	5	Chacayá	8	Agosto	2023-08-15T00:00:00	2024-11-06T03:00:00	5	Humedad	92
113493	7	Sololá	702	San José Chacayá	5	Chacayá	8	Agosto	2023-08-15T00:00:00	2024-11-06T03:00:00	6	Velocidad del viento	1.6
113494	7	Sololá	702	San José Chacayá	5	Chacayá	8	Agosto	2023-08-15T00:00:00	2024-11-06T03:00:00	7	Dirección del viento	1.61
113495	7	Sololá	702	San José Chacayá	5	Chacayá	8	Agosto	2023-08-15T00:00:00	2024-11-06T03:00:00	1	Precipitación	0
113496	7	Sololá	702	San José Chacayá	5	Chacayá	8	Agosto	2023-08-15T00:00:00	2024-11-06T03:00:00	8	Radiación solar	0
113497	7	Sololá	702	San José Chacayá	5	Chacayá	8	Agosto	2023-08-15T00:00:00	2024-11-06T04:00:00	2	Temperatura media	12.7
113498	7	Sololá	702	San José Chacayá	5	Chacayá	8	Agosto	2023-08-15T00:00:00	2024-11-06T04:00:00	4	Temperatura máxima	12.8
113499	7	Sololá	702	San José Chacayá	5	Chacayá	8	Agosto	2023-08-15T00:00:00	2024-11-06T04:00:00	3	Temperatura mínima	12.6
113500	7	Sololá	702	San José Chacayá	5	Chacayá	8	Agosto	2023-08-15T00:00:00	2024-11-06T04:00:00	5	Humedad	93
113501	7	Sololá	702	San José Chacayá	5	Chacayá	8	Agosto	2023-08-15T00:00:00	2024-11-06T04:00:00	6	Velocidad del viento	0
113502	7	Sololá	702	San José Chacayá	5	Chacayá	8	Agosto	2023-08-15T00:00:00	2024-11-06T04:00:00	7	Dirección del viento	0
113503	7	Sololá	702	San José Chacayá	5	Chacayá	8	Agosto	2023-08-15T00:00:00	2024-11-06T04:00:00	1	Precipitación	0
113504	7	Sololá	702	San José Chacayá	5	Chacayá	8	Agosto	2023-08-15T00:00:00	2024-11-06T04:00:00	8	Radiación solar	0
113505	7	Sololá	702	San José Chacayá	5	Chacayá	8	Agosto	2023-08-15T00:00:00	2024-11-06T05:00:00	2	Temperatura media	12.6
113506	7	Sololá	702	San José Chacayá	5	Chacayá	8	Agosto	2023-08-15T00:00:00	2024-11-06T05:00:00	4	Temperatura máxima	12.8
113507	7	Sololá	702	San José Chacayá	5	Chacayá	8	Agosto	2023-08-15T00:00:00	2024-11-06T05:00:00	3	Temperatura mínima	12.6
113508	7	Sololá	702	San José Chacayá	5	Chacayá	8	Agosto	2023-08-15T00:00:00	2024-11-06T05:00:00	5	Humedad	91
113509	7	Sololá	702	San José Chacayá	5	Chacayá	8	Agosto	2023-08-15T00:00:00	2024-11-06T05:00:00	6	Velocidad del viento	0
113510	7	Sololá	702	San José Chacayá	5	Chacayá	8	Agosto	2023-08-15T00:00:00	2024-11-06T05:00:00	7	Dirección del viento	0
113511	7	Sololá	702	San José Chacayá	5	Chacayá	8	Agosto	2023-08-15T00:00:00	2024-11-06T05:00:00	1	Precipitación	0
113512	7	Sololá	702	San José Chacayá	5	Chacayá	8	Agosto	2023-08-15T00:00:00	2024-11-06T05:00:00	8	Radiación solar	0
113513	7	Sololá	702	San José Chacayá	5	Chacayá	8	Agosto	2023-08-15T00:00:00	2024-11-06T06:00:00	2	Temperatura media	12.9
113514	7	Sololá	702	San José Chacayá	5	Chacayá	8	Agosto	2023-08-15T00:00:00	2024-11-06T06:00:00	4	Temperatura máxima	13
113515	7	Sololá	702	San José Chacayá	5	Chacayá	8	Agosto	2023-08-15T00:00:00	2024-11-06T06:00:00	3	Temperatura mínima	12.6
113516	7	Sololá	702	San José Chacayá	5	Chacayá	8	Agosto	2023-08-15T00:00:00	2024-11-06T06:00:00	5	Humedad	91
113517	7	Sololá	702	San José Chacayá	5	Chacayá	8	Agosto	2023-08-15T00:00:00	2024-11-06T06:00:00	6	Velocidad del viento	1.6
113518	7	Sololá	702	San José Chacayá	5	Chacayá	8	Agosto	2023-08-15T00:00:00	2024-11-06T06:00:00	7	Dirección del viento	1.61
113519	7	Sololá	702	San José Chacayá	5	Chacayá	8	Agosto	2023-08-15T00:00:00	2024-11-06T06:00:00	1	Precipitación	0
113520	7	Sololá	702	San José Chacayá	5	Chacayá	8	Agosto	2023-08-15T00:00:00	2024-11-06T06:00:00	8	Radiación solar	2
113521	7	Sololá	702	San José Chacayá	5	Chacayá	8	Agosto	2023-08-15T00:00:00	2024-11-06T07:00:00	2	Temperatura media	14.1
113522	7	Sololá	702	San José Chacayá	5	Chacayá	8	Agosto	2023-08-15T00:00:00	2024-11-06T07:00:00	4	Temperatura máxima	14.1
113523	7	Sololá	702	San José Chacayá	5	Chacayá	8	Agosto	2023-08-15T00:00:00	2024-11-06T07:00:00	3	Temperatura mínima	12.9
113524	7	Sololá	702	San José Chacayá	5	Chacayá	8	Agosto	2023-08-15T00:00:00	2024-11-06T07:00:00	5	Humedad	88
113525	7	Sololá	702	San José Chacayá	5	Chacayá	8	Agosto	2023-08-15T00:00:00	2024-11-06T07:00:00	6	Velocidad del viento	1.6
113526	7	Sololá	702	San José Chacayá	5	Chacayá	8	Agosto	2023-08-15T00:00:00	2024-11-06T07:00:00	7	Dirección del viento	1.61
113527	7	Sololá	702	San José Chacayá	5	Chacayá	8	Agosto	2023-08-15T00:00:00	2024-11-06T07:00:00	1	Precipitación	0
113528	7	Sololá	702	San José Chacayá	5	Chacayá	8	Agosto	2023-08-15T00:00:00	2024-11-06T07:00:00	8	Radiación solar	48
113529	7	Sololá	702	San José Chacayá	5	Chacayá	8	Agosto	2023-08-15T00:00:00	2024-11-06T08:00:00	2	Temperatura media	16.3
113530	7	Sololá	702	San José Chacayá	5	Chacayá	8	Agosto	2023-08-15T00:00:00	2024-11-06T08:00:00	4	Temperatura máxima	16.3
113531	7	Sololá	702	San José Chacayá	5	Chacayá	8	Agosto	2023-08-15T00:00:00	2024-11-06T08:00:00	3	Temperatura mínima	14.1
113532	7	Sololá	702	San José Chacayá	5	Chacayá	8	Agosto	2023-08-15T00:00:00	2024-11-06T08:00:00	5	Humedad	75
113533	7	Sololá	702	San José Chacayá	5	Chacayá	8	Agosto	2023-08-15T00:00:00	2024-11-06T08:00:00	6	Velocidad del viento	0
113534	7	Sololá	702	San José Chacayá	5	Chacayá	8	Agosto	2023-08-15T00:00:00	2024-11-06T08:00:00	7	Dirección del viento	0
113535	7	Sololá	702	San José Chacayá	5	Chacayá	8	Agosto	2023-08-15T00:00:00	2024-11-06T08:00:00	1	Precipitación	0
113536	7	Sololá	702	San José Chacayá	5	Chacayá	8	Agosto	2023-08-15T00:00:00	2024-11-06T08:00:00	8	Radiación solar	159
113537	7	Sololá	702	San José Chacayá	5	Chacayá	8	Agosto	2023-08-15T00:00:00	2024-11-06T09:00:00	2	Temperatura media	18.7
113538	7	Sololá	702	San José Chacayá	5	Chacayá	8	Agosto	2023-08-15T00:00:00	2024-11-06T09:00:00	4	Temperatura máxima	18.8
113539	7	Sololá	702	San José Chacayá	5	Chacayá	8	Agosto	2023-08-15T00:00:00	2024-11-06T09:00:00	3	Temperatura mínima	16.4
113540	7	Sololá	702	San José Chacayá	5	Chacayá	8	Agosto	2023-08-15T00:00:00	2024-11-06T09:00:00	5	Humedad	65
113541	7	Sololá	702	San José Chacayá	5	Chacayá	8	Agosto	2023-08-15T00:00:00	2024-11-06T09:00:00	6	Velocidad del viento	1.6
113542	7	Sololá	702	San José Chacayá	5	Chacayá	8	Agosto	2023-08-15T00:00:00	2024-11-06T09:00:00	7	Dirección del viento	1.61
113543	7	Sololá	702	San José Chacayá	5	Chacayá	8	Agosto	2023-08-15T00:00:00	2024-11-06T09:00:00	1	Precipitación	0
113544	7	Sololá	702	San José Chacayá	5	Chacayá	8	Agosto	2023-08-15T00:00:00	2024-11-06T09:00:00	8	Radiación solar	444
113545	7	Sololá	702	San José Chacayá	5	Chacayá	8	Agosto	2023-08-15T00:00:00	2024-11-06T10:00:00	2	Temperatura media	19.3
113546	7	Sololá	702	San José Chacayá	5	Chacayá	8	Agosto	2023-08-15T00:00:00	2024-11-06T10:00:00	4	Temperatura máxima	20.6
113547	7	Sololá	702	San José Chacayá	5	Chacayá	8	Agosto	2023-08-15T00:00:00	2024-11-06T10:00:00	3	Temperatura mínima	18.7
113548	7	Sololá	702	San José Chacayá	5	Chacayá	8	Agosto	2023-08-15T00:00:00	2024-11-06T10:00:00	5	Humedad	69
113549	7	Sololá	702	San José Chacayá	5	Chacayá	8	Agosto	2023-08-15T00:00:00	2024-11-06T10:00:00	6	Velocidad del viento	4.8
113550	7	Sololá	702	San José Chacayá	5	Chacayá	8	Agosto	2023-08-15T00:00:00	2024-11-06T10:00:00	7	Dirección del viento	4.83
113551	7	Sololá	702	San José Chacayá	5	Chacayá	8	Agosto	2023-08-15T00:00:00	2024-11-06T10:00:00	1	Precipitación	0
113552	7	Sololá	702	San José Chacayá	5	Chacayá	8	Agosto	2023-08-15T00:00:00	2024-11-06T10:00:00	8	Radiación solar	686
113553	7	Sololá	702	San José Chacayá	5	Chacayá	8	Agosto	2023-08-15T00:00:00	2024-11-06T11:00:00	2	Temperatura media	18.9
113554	7	Sololá	702	San José Chacayá	5	Chacayá	8	Agosto	2023-08-15T00:00:00	2024-11-06T11:00:00	4	Temperatura máxima	20
113555	7	Sololá	702	San José Chacayá	5	Chacayá	8	Agosto	2023-08-15T00:00:00	2024-11-06T11:00:00	3	Temperatura mínima	18.8
113556	7	Sololá	702	San José Chacayá	5	Chacayá	8	Agosto	2023-08-15T00:00:00	2024-11-06T11:00:00	5	Humedad	70
113557	7	Sololá	702	San José Chacayá	5	Chacayá	8	Agosto	2023-08-15T00:00:00	2024-11-06T11:00:00	6	Velocidad del viento	3.2
113558	7	Sololá	702	San José Chacayá	5	Chacayá	8	Agosto	2023-08-15T00:00:00	2024-11-06T11:00:00	7	Dirección del viento	3.22
113559	7	Sololá	702	San José Chacayá	5	Chacayá	8	Agosto	2023-08-15T00:00:00	2024-11-06T11:00:00	1	Precipitación	0
113560	7	Sololá	702	San José Chacayá	5	Chacayá	8	Agosto	2023-08-15T00:00:00	2024-11-06T11:00:00	8	Radiación solar	794
113561	7	Sololá	702	San José Chacayá	5	Chacayá	8	Agosto	2023-08-15T00:00:00	2024-11-06T12:00:00	2	Temperatura media	20.7
113562	7	Sololá	702	San José Chacayá	5	Chacayá	8	Agosto	2023-08-15T00:00:00	2024-11-06T12:00:00	4	Temperatura máxima	21.1
113563	7	Sololá	702	San José Chacayá	5	Chacayá	8	Agosto	2023-08-15T00:00:00	2024-11-06T12:00:00	3	Temperatura mínima	18.9
113564	7	Sololá	702	San José Chacayá	5	Chacayá	8	Agosto	2023-08-15T00:00:00	2024-11-06T12:00:00	5	Humedad	64
113565	7	Sololá	702	San José Chacayá	5	Chacayá	8	Agosto	2023-08-15T00:00:00	2024-11-06T12:00:00	6	Velocidad del viento	3.2
113566	7	Sololá	702	San José Chacayá	5	Chacayá	8	Agosto	2023-08-15T00:00:00	2024-11-06T12:00:00	7	Dirección del viento	3.22
113567	7	Sololá	702	San José Chacayá	5	Chacayá	8	Agosto	2023-08-15T00:00:00	2024-11-06T12:00:00	1	Precipitación	0
113568	7	Sololá	702	San José Chacayá	5	Chacayá	8	Agosto	2023-08-15T00:00:00	2024-11-06T12:00:00	8	Radiación solar	989
113569	7	Sololá	702	San José Chacayá	5	Chacayá	8	Agosto	2023-08-15T00:00:00	2024-11-06T13:00:00	2	Temperatura media	19.2
113570	7	Sololá	702	San José Chacayá	5	Chacayá	8	Agosto	2023-08-15T00:00:00	2024-11-06T13:00:00	4	Temperatura máxima	21.6
113571	7	Sololá	702	San José Chacayá	5	Chacayá	8	Agosto	2023-08-15T00:00:00	2024-11-06T13:00:00	3	Temperatura mínima	19.1
113572	7	Sololá	702	San José Chacayá	5	Chacayá	8	Agosto	2023-08-15T00:00:00	2024-11-06T13:00:00	5	Humedad	71
113573	7	Sololá	702	San José Chacayá	5	Chacayá	8	Agosto	2023-08-15T00:00:00	2024-11-06T13:00:00	6	Velocidad del viento	6.4
113574	7	Sololá	702	San José Chacayá	5	Chacayá	8	Agosto	2023-08-15T00:00:00	2024-11-06T13:00:00	7	Dirección del viento	6.44
113575	7	Sololá	702	San José Chacayá	5	Chacayá	8	Agosto	2023-08-15T00:00:00	2024-11-06T13:00:00	1	Precipitación	0
113576	7	Sololá	702	San José Chacayá	5	Chacayá	8	Agosto	2023-08-15T00:00:00	2024-11-06T13:00:00	8	Radiación solar	748
113577	7	Sololá	702	San José Chacayá	5	Chacayá	8	Agosto	2023-08-15T00:00:00	2024-11-06T14:00:00	2	Temperatura media	17.7
113578	7	Sololá	702	San José Chacayá	5	Chacayá	8	Agosto	2023-08-15T00:00:00	2024-11-06T14:00:00	4	Temperatura máxima	19.3
113579	7	Sololá	702	San José Chacayá	5	Chacayá	8	Agosto	2023-08-15T00:00:00	2024-11-06T14:00:00	3	Temperatura mínima	17.7
113580	7	Sololá	702	San José Chacayá	5	Chacayá	8	Agosto	2023-08-15T00:00:00	2024-11-06T14:00:00	5	Humedad	82
113581	7	Sololá	702	San José Chacayá	5	Chacayá	8	Agosto	2023-08-15T00:00:00	2024-11-06T14:00:00	6	Velocidad del viento	3.2
113582	7	Sololá	702	San José Chacayá	5	Chacayá	8	Agosto	2023-08-15T00:00:00	2024-11-06T14:00:00	7	Dirección del viento	3.22
113583	7	Sololá	702	San José Chacayá	5	Chacayá	8	Agosto	2023-08-15T00:00:00	2024-11-06T14:00:00	1	Precipitación	0
113584	7	Sololá	702	San José Chacayá	5	Chacayá	8	Agosto	2023-08-15T00:00:00	2024-11-06T14:00:00	8	Radiación solar	195
113585	7	Sololá	702	San José Chacayá	5	Chacayá	8	Agosto	2023-08-15T00:00:00	2024-11-06T15:00:00	2	Temperatura media	19
113586	7	Sololá	702	San José Chacayá	5	Chacayá	8	Agosto	2023-08-15T00:00:00	2024-11-06T15:00:00	4	Temperatura máxima	19.3
113587	7	Sololá	702	San José Chacayá	5	Chacayá	8	Agosto	2023-08-15T00:00:00	2024-11-06T15:00:00	3	Temperatura mínima	17.4
113588	7	Sololá	702	San José Chacayá	5	Chacayá	8	Agosto	2023-08-15T00:00:00	2024-11-06T15:00:00	5	Humedad	69
113589	7	Sololá	702	San José Chacayá	5	Chacayá	8	Agosto	2023-08-15T00:00:00	2024-11-06T15:00:00	6	Velocidad del viento	1.6
113590	7	Sololá	702	San José Chacayá	5	Chacayá	8	Agosto	2023-08-15T00:00:00	2024-11-06T15:00:00	7	Dirección del viento	1.61
113591	7	Sololá	702	San José Chacayá	5	Chacayá	8	Agosto	2023-08-15T00:00:00	2024-11-06T15:00:00	1	Precipitación	0
113592	7	Sololá	702	San José Chacayá	5	Chacayá	8	Agosto	2023-08-15T00:00:00	2024-11-06T15:00:00	8	Radiación solar	378
113593	7	Sololá	702	San José Chacayá	5	Chacayá	8	Agosto	2023-08-15T00:00:00	2024-11-06T16:00:00	2	Temperatura media	16.7
113594	7	Sololá	702	San José Chacayá	5	Chacayá	8	Agosto	2023-08-15T00:00:00	2024-11-06T16:00:00	4	Temperatura máxima	19.2
113595	7	Sololá	702	San José Chacayá	5	Chacayá	8	Agosto	2023-08-15T00:00:00	2024-11-06T16:00:00	3	Temperatura mínima	16.7
113596	7	Sololá	702	San José Chacayá	5	Chacayá	8	Agosto	2023-08-15T00:00:00	2024-11-06T16:00:00	5	Humedad	85
113597	7	Sololá	702	San José Chacayá	5	Chacayá	8	Agosto	2023-08-15T00:00:00	2024-11-06T16:00:00	6	Velocidad del viento	3.2
113598	7	Sololá	702	San José Chacayá	5	Chacayá	8	Agosto	2023-08-15T00:00:00	2024-11-06T16:00:00	7	Dirección del viento	3.22
113599	7	Sololá	702	San José Chacayá	5	Chacayá	8	Agosto	2023-08-15T00:00:00	2024-11-06T16:00:00	1	Precipitación	0.8
113600	7	Sololá	702	San José Chacayá	5	Chacayá	8	Agosto	2023-08-15T00:00:00	2024-11-06T16:00:00	8	Radiación solar	327
113601	7	Sololá	702	San José Chacayá	5	Chacayá	8	Agosto	2023-08-15T00:00:00	2024-11-06T17:00:00	2	Temperatura media	16.3
113602	7	Sololá	702	San José Chacayá	5	Chacayá	8	Agosto	2023-08-15T00:00:00	2024-11-06T17:00:00	4	Temperatura máxima	16.6
113603	7	Sololá	702	San José Chacayá	5	Chacayá	8	Agosto	2023-08-15T00:00:00	2024-11-06T17:00:00	3	Temperatura mínima	15.9
113604	7	Sololá	702	San José Chacayá	5	Chacayá	8	Agosto	2023-08-15T00:00:00	2024-11-06T17:00:00	5	Humedad	91
113605	7	Sololá	702	San José Chacayá	5	Chacayá	8	Agosto	2023-08-15T00:00:00	2024-11-06T17:00:00	6	Velocidad del viento	1.6
113606	7	Sololá	702	San José Chacayá	5	Chacayá	8	Agosto	2023-08-15T00:00:00	2024-11-06T17:00:00	7	Dirección del viento	1.61
113607	7	Sololá	702	San José Chacayá	5	Chacayá	8	Agosto	2023-08-15T00:00:00	2024-11-06T17:00:00	1	Precipitación	0.2
113608	7	Sololá	702	San José Chacayá	5	Chacayá	8	Agosto	2023-08-15T00:00:00	2024-11-06T17:00:00	8	Radiación solar	40
113609	7	Sololá	702	San José Chacayá	5	Chacayá	8	Agosto	2023-08-15T00:00:00	2024-11-06T18:00:00	2	Temperatura media	16.3
113610	7	Sololá	702	San José Chacayá	5	Chacayá	8	Agosto	2023-08-15T00:00:00	2024-11-06T18:00:00	4	Temperatura máxima	16.4
113611	7	Sololá	702	San José Chacayá	5	Chacayá	8	Agosto	2023-08-15T00:00:00	2024-11-06T18:00:00	3	Temperatura mínima	16.2
113612	7	Sololá	702	San José Chacayá	5	Chacayá	8	Agosto	2023-08-15T00:00:00	2024-11-06T18:00:00	5	Humedad	90
113613	7	Sololá	702	San José Chacayá	5	Chacayá	8	Agosto	2023-08-15T00:00:00	2024-11-06T18:00:00	6	Velocidad del viento	0
113614	7	Sololá	702	San José Chacayá	5	Chacayá	8	Agosto	2023-08-15T00:00:00	2024-11-06T18:00:00	7	Dirección del viento	0
113615	7	Sololá	702	San José Chacayá	5	Chacayá	8	Agosto	2023-08-15T00:00:00	2024-11-06T18:00:00	1	Precipitación	0
113616	7	Sololá	702	San José Chacayá	5	Chacayá	8	Agosto	2023-08-15T00:00:00	2024-11-06T18:00:00	8	Radiación solar	34
113617	7	Sololá	702	San José Chacayá	5	Chacayá	8	Agosto	2023-08-15T00:00:00	2024-11-06T19:00:00	2	Temperatura media	15.4
113618	7	Sololá	702	San José Chacayá	5	Chacayá	8	Agosto	2023-08-15T00:00:00	2024-11-06T19:00:00	4	Temperatura máxima	16.3
113619	7	Sololá	702	San José Chacayá	5	Chacayá	8	Agosto	2023-08-15T00:00:00	2024-11-06T19:00:00	3	Temperatura mínima	15.4
113620	7	Sololá	702	San José Chacayá	5	Chacayá	8	Agosto	2023-08-15T00:00:00	2024-11-06T19:00:00	5	Humedad	90
113621	7	Sololá	702	San José Chacayá	5	Chacayá	8	Agosto	2023-08-15T00:00:00	2024-11-06T19:00:00	6	Velocidad del viento	0
113622	7	Sololá	702	San José Chacayá	5	Chacayá	8	Agosto	2023-08-15T00:00:00	2024-11-06T19:00:00	7	Dirección del viento	0
113623	7	Sololá	702	San José Chacayá	5	Chacayá	8	Agosto	2023-08-15T00:00:00	2024-11-06T19:00:00	1	Precipitación	0
113624	7	Sololá	702	San José Chacayá	5	Chacayá	8	Agosto	2023-08-15T00:00:00	2024-11-06T19:00:00	8	Radiación solar	0
113625	7	Sololá	702	San José Chacayá	5	Chacayá	8	Agosto	2023-08-15T00:00:00	2024-11-06T20:00:00	2	Temperatura media	14.4
113626	7	Sololá	702	San José Chacayá	5	Chacayá	8	Agosto	2023-08-15T00:00:00	2024-11-06T20:00:00	4	Temperatura máxima	15.4
113627	7	Sololá	702	San José Chacayá	5	Chacayá	8	Agosto	2023-08-15T00:00:00	2024-11-06T20:00:00	3	Temperatura mínima	14.4
113628	7	Sololá	702	San José Chacayá	5	Chacayá	8	Agosto	2023-08-15T00:00:00	2024-11-06T20:00:00	5	Humedad	92
113629	7	Sololá	702	San José Chacayá	5	Chacayá	8	Agosto	2023-08-15T00:00:00	2024-11-06T20:00:00	6	Velocidad del viento	0
113630	7	Sololá	702	San José Chacayá	5	Chacayá	8	Agosto	2023-08-15T00:00:00	2024-11-06T20:00:00	7	Dirección del viento	0
113631	7	Sololá	702	San José Chacayá	5	Chacayá	8	Agosto	2023-08-15T00:00:00	2024-11-06T20:00:00	1	Precipitación	0
113632	7	Sololá	702	San José Chacayá	5	Chacayá	8	Agosto	2023-08-15T00:00:00	2024-11-06T20:00:00	8	Radiación solar	0
113633	7	Sololá	702	San José Chacayá	5	Chacayá	8	Agosto	2023-08-15T00:00:00	2024-11-06T21:00:00	2	Temperatura media	13.9
113634	7	Sololá	702	San José Chacayá	5	Chacayá	8	Agosto	2023-08-15T00:00:00	2024-11-06T21:00:00	4	Temperatura máxima	14.5
113635	7	Sololá	702	San José Chacayá	5	Chacayá	8	Agosto	2023-08-15T00:00:00	2024-11-06T21:00:00	3	Temperatura mínima	13.9
113636	7	Sololá	702	San José Chacayá	5	Chacayá	8	Agosto	2023-08-15T00:00:00	2024-11-06T21:00:00	5	Humedad	92
113637	7	Sololá	702	San José Chacayá	5	Chacayá	8	Agosto	2023-08-15T00:00:00	2024-11-06T21:00:00	6	Velocidad del viento	0
113638	7	Sololá	702	San José Chacayá	5	Chacayá	8	Agosto	2023-08-15T00:00:00	2024-11-06T21:00:00	7	Dirección del viento	0
113639	7	Sololá	702	San José Chacayá	5	Chacayá	8	Agosto	2023-08-15T00:00:00	2024-11-06T21:00:00	1	Precipitación	0
113640	7	Sololá	702	San José Chacayá	5	Chacayá	8	Agosto	2023-08-15T00:00:00	2024-11-06T21:00:00	8	Radiación solar	0
113641	7	Sololá	702	San José Chacayá	5	Chacayá	8	Agosto	2023-08-15T00:00:00	2024-11-06T22:00:00	2	Temperatura media	13.4
113642	7	Sololá	702	San José Chacayá	5	Chacayá	8	Agosto	2023-08-15T00:00:00	2024-11-06T22:00:00	4	Temperatura máxima	13.9
113643	7	Sololá	702	San José Chacayá	5	Chacayá	8	Agosto	2023-08-15T00:00:00	2024-11-06T22:00:00	3	Temperatura mínima	13.4
113644	7	Sololá	702	San José Chacayá	5	Chacayá	8	Agosto	2023-08-15T00:00:00	2024-11-06T22:00:00	5	Humedad	93
113645	7	Sololá	702	San José Chacayá	5	Chacayá	8	Agosto	2023-08-15T00:00:00	2024-11-06T22:00:00	6	Velocidad del viento	0
113646	7	Sololá	702	San José Chacayá	5	Chacayá	8	Agosto	2023-08-15T00:00:00	2024-11-06T22:00:00	7	Dirección del viento	0
113647	7	Sololá	702	San José Chacayá	5	Chacayá	8	Agosto	2023-08-15T00:00:00	2024-11-06T22:00:00	1	Precipitación	0
113648	7	Sololá	702	San José Chacayá	5	Chacayá	8	Agosto	2023-08-15T00:00:00	2024-11-06T22:00:00	8	Radiación solar	0
113649	7	Sololá	702	San José Chacayá	5	Chacayá	8	Agosto	2023-08-15T00:00:00	2024-11-06T23:00:00	2	Temperatura media	13.3
113650	7	Sololá	702	San José Chacayá	5	Chacayá	8	Agosto	2023-08-15T00:00:00	2024-11-06T23:00:00	4	Temperatura máxima	13.4
113651	7	Sololá	702	San José Chacayá	5	Chacayá	8	Agosto	2023-08-15T00:00:00	2024-11-06T23:00:00	3	Temperatura mínima	13.3
113652	7	Sololá	702	San José Chacayá	5	Chacayá	8	Agosto	2023-08-15T00:00:00	2024-11-06T23:00:00	5	Humedad	93
113653	7	Sololá	702	San José Chacayá	5	Chacayá	8	Agosto	2023-08-15T00:00:00	2024-11-06T23:00:00	6	Velocidad del viento	0
113654	7	Sololá	702	San José Chacayá	5	Chacayá	8	Agosto	2023-08-15T00:00:00	2024-11-06T23:00:00	7	Dirección del viento	0
113655	7	Sololá	702	San José Chacayá	5	Chacayá	8	Agosto	2023-08-15T00:00:00	2024-11-06T23:00:00	1	Precipitación	0
113656	7	Sololá	702	San José Chacayá	5	Chacayá	8	Agosto	2023-08-15T00:00:00	2024-11-06T23:00:00	8	Radiación solar	0
113657	7	Sololá	702	San José Chacayá	5	Chacayá	8	Agosto	2023-08-16T00:00:00	2024-11-06T00:00:00	2	Temperatura media	12.9
113658	7	Sololá	702	San José Chacayá	5	Chacayá	8	Agosto	2023-08-16T00:00:00	2024-11-06T00:00:00	4	Temperatura máxima	13.3
113659	7	Sololá	702	San José Chacayá	5	Chacayá	8	Agosto	2023-08-16T00:00:00	2024-11-06T00:00:00	3	Temperatura mínima	12.9
113660	7	Sololá	702	San José Chacayá	5	Chacayá	8	Agosto	2023-08-16T00:00:00	2024-11-06T00:00:00	5	Humedad	92
113661	7	Sololá	702	San José Chacayá	5	Chacayá	8	Agosto	2023-08-16T00:00:00	2024-11-06T00:00:00	6	Velocidad del viento	1.6
113662	7	Sololá	702	San José Chacayá	5	Chacayá	8	Agosto	2023-08-16T00:00:00	2024-11-06T00:00:00	7	Dirección del viento	1.61
113663	7	Sololá	702	San José Chacayá	5	Chacayá	8	Agosto	2023-08-16T00:00:00	2024-11-06T00:00:00	1	Precipitación	0
113664	7	Sololá	702	San José Chacayá	5	Chacayá	8	Agosto	2023-08-16T00:00:00	2024-11-06T00:00:00	8	Radiación solar	0
113665	7	Sololá	702	San José Chacayá	5	Chacayá	8	Agosto	2023-08-16T00:00:00	2024-11-06T01:00:00	2	Temperatura media	12.4
113666	7	Sololá	702	San José Chacayá	5	Chacayá	8	Agosto	2023-08-16T00:00:00	2024-11-06T01:00:00	4	Temperatura máxima	12.9
113667	7	Sololá	702	San José Chacayá	5	Chacayá	8	Agosto	2023-08-16T00:00:00	2024-11-06T01:00:00	3	Temperatura mínima	12.4
113668	7	Sololá	702	San José Chacayá	5	Chacayá	8	Agosto	2023-08-16T00:00:00	2024-11-06T01:00:00	5	Humedad	92
113669	7	Sololá	702	San José Chacayá	5	Chacayá	8	Agosto	2023-08-16T00:00:00	2024-11-06T01:00:00	6	Velocidad del viento	1.6
113670	7	Sololá	702	San José Chacayá	5	Chacayá	8	Agosto	2023-08-16T00:00:00	2024-11-06T01:00:00	7	Dirección del viento	1.61
113671	7	Sololá	702	San José Chacayá	5	Chacayá	8	Agosto	2023-08-16T00:00:00	2024-11-06T01:00:00	1	Precipitación	0
113672	7	Sololá	702	San José Chacayá	5	Chacayá	8	Agosto	2023-08-16T00:00:00	2024-11-06T01:00:00	8	Radiación solar	0
113673	7	Sololá	702	San José Chacayá	5	Chacayá	8	Agosto	2023-08-16T00:00:00	2024-11-06T02:00:00	2	Temperatura media	11.6
113674	7	Sololá	702	San José Chacayá	5	Chacayá	8	Agosto	2023-08-16T00:00:00	2024-11-06T02:00:00	4	Temperatura máxima	12.4
113675	7	Sololá	702	San José Chacayá	5	Chacayá	8	Agosto	2023-08-16T00:00:00	2024-11-06T02:00:00	3	Temperatura mínima	11.6
113676	7	Sololá	702	San José Chacayá	5	Chacayá	8	Agosto	2023-08-16T00:00:00	2024-11-06T02:00:00	5	Humedad	93
113677	7	Sololá	702	San José Chacayá	5	Chacayá	8	Agosto	2023-08-16T00:00:00	2024-11-06T02:00:00	6	Velocidad del viento	1.6
113678	7	Sololá	702	San José Chacayá	5	Chacayá	8	Agosto	2023-08-16T00:00:00	2024-11-06T02:00:00	7	Dirección del viento	1.61
113679	7	Sololá	702	San José Chacayá	5	Chacayá	8	Agosto	2023-08-16T00:00:00	2024-11-06T02:00:00	1	Precipitación	0
113680	7	Sololá	702	San José Chacayá	5	Chacayá	8	Agosto	2023-08-16T00:00:00	2024-11-06T02:00:00	8	Radiación solar	0
113681	7	Sololá	702	San José Chacayá	5	Chacayá	8	Agosto	2023-08-16T00:00:00	2024-11-06T03:00:00	2	Temperatura media	11.2
113682	7	Sololá	702	San José Chacayá	5	Chacayá	8	Agosto	2023-08-16T00:00:00	2024-11-06T03:00:00	4	Temperatura máxima	11.6
113683	7	Sololá	702	San José Chacayá	5	Chacayá	8	Agosto	2023-08-16T00:00:00	2024-11-06T03:00:00	3	Temperatura mínima	11.2
113684	7	Sololá	702	San José Chacayá	5	Chacayá	8	Agosto	2023-08-16T00:00:00	2024-11-06T03:00:00	5	Humedad	93
113685	7	Sololá	702	San José Chacayá	5	Chacayá	8	Agosto	2023-08-16T00:00:00	2024-11-06T03:00:00	6	Velocidad del viento	0
113686	7	Sololá	702	San José Chacayá	5	Chacayá	8	Agosto	2023-08-16T00:00:00	2024-11-06T03:00:00	7	Dirección del viento	0
113687	7	Sololá	702	San José Chacayá	5	Chacayá	8	Agosto	2023-08-16T00:00:00	2024-11-06T03:00:00	1	Precipitación	0
113688	7	Sololá	702	San José Chacayá	5	Chacayá	8	Agosto	2023-08-16T00:00:00	2024-11-06T03:00:00	8	Radiación solar	0
113689	7	Sololá	702	San José Chacayá	5	Chacayá	8	Agosto	2023-08-16T00:00:00	2024-11-06T04:00:00	2	Temperatura media	11.1
113690	7	Sololá	702	San José Chacayá	5	Chacayá	8	Agosto	2023-08-16T00:00:00	2024-11-06T04:00:00	4	Temperatura máxima	11.2
113691	7	Sololá	702	San José Chacayá	5	Chacayá	8	Agosto	2023-08-16T00:00:00	2024-11-06T04:00:00	3	Temperatura mínima	10.9
113692	7	Sololá	702	San José Chacayá	5	Chacayá	8	Agosto	2023-08-16T00:00:00	2024-11-06T04:00:00	5	Humedad	94
113693	7	Sololá	702	San José Chacayá	5	Chacayá	8	Agosto	2023-08-16T00:00:00	2024-11-06T04:00:00	6	Velocidad del viento	1.6
113694	7	Sololá	702	San José Chacayá	5	Chacayá	8	Agosto	2023-08-16T00:00:00	2024-11-06T04:00:00	7	Dirección del viento	1.61
113695	7	Sololá	702	San José Chacayá	5	Chacayá	8	Agosto	2023-08-16T00:00:00	2024-11-06T04:00:00	1	Precipitación	0
113696	7	Sololá	702	San José Chacayá	5	Chacayá	8	Agosto	2023-08-16T00:00:00	2024-11-06T04:00:00	8	Radiación solar	0
113697	7	Sololá	702	San José Chacayá	5	Chacayá	8	Agosto	2023-08-16T00:00:00	2024-11-06T05:00:00	2	Temperatura media	11.8
113698	7	Sololá	702	San José Chacayá	5	Chacayá	8	Agosto	2023-08-16T00:00:00	2024-11-06T05:00:00	4	Temperatura máxima	11.8
113699	7	Sololá	702	San José Chacayá	5	Chacayá	8	Agosto	2023-08-16T00:00:00	2024-11-06T05:00:00	3	Temperatura mínima	11.1
113700	7	Sololá	702	San José Chacayá	5	Chacayá	8	Agosto	2023-08-16T00:00:00	2024-11-06T05:00:00	5	Humedad	93
113701	7	Sololá	702	San José Chacayá	5	Chacayá	8	Agosto	2023-08-16T00:00:00	2024-11-06T05:00:00	6	Velocidad del viento	1.6
113702	7	Sololá	702	San José Chacayá	5	Chacayá	8	Agosto	2023-08-16T00:00:00	2024-11-06T05:00:00	7	Dirección del viento	1.61
113703	7	Sololá	702	San José Chacayá	5	Chacayá	8	Agosto	2023-08-16T00:00:00	2024-11-06T05:00:00	1	Precipitación	0
113704	7	Sololá	702	San José Chacayá	5	Chacayá	8	Agosto	2023-08-16T00:00:00	2024-11-06T05:00:00	8	Radiación solar	0
113705	7	Sololá	702	San José Chacayá	5	Chacayá	8	Agosto	2023-08-16T00:00:00	2024-11-06T06:00:00	2	Temperatura media	11.3
113706	7	Sololá	702	San José Chacayá	5	Chacayá	8	Agosto	2023-08-16T00:00:00	2024-11-06T06:00:00	4	Temperatura máxima	11.9
113707	7	Sololá	702	San José Chacayá	5	Chacayá	8	Agosto	2023-08-16T00:00:00	2024-11-06T06:00:00	3	Temperatura mínima	11.3
113708	7	Sololá	702	San José Chacayá	5	Chacayá	8	Agosto	2023-08-16T00:00:00	2024-11-06T06:00:00	5	Humedad	93
113709	7	Sololá	702	San José Chacayá	5	Chacayá	8	Agosto	2023-08-16T00:00:00	2024-11-06T06:00:00	6	Velocidad del viento	0
113710	7	Sololá	702	San José Chacayá	5	Chacayá	8	Agosto	2023-08-16T00:00:00	2024-11-06T06:00:00	7	Dirección del viento	0
113711	7	Sololá	702	San José Chacayá	5	Chacayá	8	Agosto	2023-08-16T00:00:00	2024-11-06T06:00:00	1	Precipitación	0
113712	7	Sololá	702	San José Chacayá	5	Chacayá	8	Agosto	2023-08-16T00:00:00	2024-11-06T06:00:00	8	Radiación solar	2
113713	7	Sololá	702	San José Chacayá	5	Chacayá	8	Agosto	2023-08-16T00:00:00	2024-11-06T07:00:00	2	Temperatura media	12.4
113714	7	Sololá	702	San José Chacayá	5	Chacayá	8	Agosto	2023-08-16T00:00:00	2024-11-06T07:00:00	4	Temperatura máxima	12.4
113715	7	Sololá	702	San José Chacayá	5	Chacayá	8	Agosto	2023-08-16T00:00:00	2024-11-06T07:00:00	3	Temperatura mínima	11.3
113716	7	Sololá	702	San José Chacayá	5	Chacayá	8	Agosto	2023-08-16T00:00:00	2024-11-06T07:00:00	5	Humedad	92
113717	7	Sololá	702	San José Chacayá	5	Chacayá	8	Agosto	2023-08-16T00:00:00	2024-11-06T07:00:00	6	Velocidad del viento	0
113718	7	Sololá	702	San José Chacayá	5	Chacayá	8	Agosto	2023-08-16T00:00:00	2024-11-06T07:00:00	7	Dirección del viento	0
113719	7	Sololá	702	San José Chacayá	5	Chacayá	8	Agosto	2023-08-16T00:00:00	2024-11-06T07:00:00	1	Precipitación	0.2
113720	7	Sololá	702	San José Chacayá	5	Chacayá	8	Agosto	2023-08-16T00:00:00	2024-11-06T07:00:00	8	Radiación solar	45
113721	7	Sololá	702	San José Chacayá	5	Chacayá	8	Agosto	2023-08-16T00:00:00	2024-11-06T08:00:00	2	Temperatura media	15.7
113722	7	Sololá	702	San José Chacayá	5	Chacayá	8	Agosto	2023-08-16T00:00:00	2024-11-06T08:00:00	4	Temperatura máxima	15.7
113723	7	Sololá	702	San José Chacayá	5	Chacayá	8	Agosto	2023-08-16T00:00:00	2024-11-06T08:00:00	3	Temperatura mínima	12.4
113724	7	Sololá	702	San José Chacayá	5	Chacayá	8	Agosto	2023-08-16T00:00:00	2024-11-06T08:00:00	5	Humedad	82
113725	7	Sololá	702	San José Chacayá	5	Chacayá	8	Agosto	2023-08-16T00:00:00	2024-11-06T08:00:00	6	Velocidad del viento	0
113726	7	Sololá	702	San José Chacayá	5	Chacayá	8	Agosto	2023-08-16T00:00:00	2024-11-06T08:00:00	7	Dirección del viento	0
113727	7	Sololá	702	San José Chacayá	5	Chacayá	8	Agosto	2023-08-16T00:00:00	2024-11-06T08:00:00	1	Precipitación	0
113728	7	Sololá	702	San José Chacayá	5	Chacayá	8	Agosto	2023-08-16T00:00:00	2024-11-06T08:00:00	8	Radiación solar	124
113729	7	Sololá	702	San José Chacayá	5	Chacayá	8	Agosto	2023-08-16T00:00:00	2024-11-06T09:00:00	2	Temperatura media	18.4
113730	7	Sololá	702	San José Chacayá	5	Chacayá	8	Agosto	2023-08-16T00:00:00	2024-11-06T09:00:00	4	Temperatura máxima	18.4
113731	7	Sololá	702	San José Chacayá	5	Chacayá	8	Agosto	2023-08-16T00:00:00	2024-11-06T09:00:00	3	Temperatura mínima	15.7
113732	7	Sololá	702	San José Chacayá	5	Chacayá	8	Agosto	2023-08-16T00:00:00	2024-11-06T09:00:00	5	Humedad	74
113733	7	Sololá	702	San José Chacayá	5	Chacayá	8	Agosto	2023-08-16T00:00:00	2024-11-06T09:00:00	6	Velocidad del viento	1.6
113734	7	Sololá	702	San José Chacayá	5	Chacayá	8	Agosto	2023-08-16T00:00:00	2024-11-06T09:00:00	7	Dirección del viento	1.61
113735	7	Sololá	702	San José Chacayá	5	Chacayá	8	Agosto	2023-08-16T00:00:00	2024-11-06T09:00:00	1	Precipitación	0
113736	7	Sololá	702	San José Chacayá	5	Chacayá	8	Agosto	2023-08-16T00:00:00	2024-11-06T09:00:00	8	Radiación solar	473
113737	7	Sololá	702	San José Chacayá	5	Chacayá	8	Agosto	2023-08-16T00:00:00	2024-11-06T10:00:00	2	Temperatura media	19.6
113738	7	Sololá	702	San José Chacayá	5	Chacayá	8	Agosto	2023-08-16T00:00:00	2024-11-06T10:00:00	4	Temperatura máxima	19.6
113739	7	Sololá	702	San José Chacayá	5	Chacayá	8	Agosto	2023-08-16T00:00:00	2024-11-06T10:00:00	3	Temperatura mínima	18.4
113740	7	Sololá	702	San José Chacayá	5	Chacayá	8	Agosto	2023-08-16T00:00:00	2024-11-06T10:00:00	5	Humedad	65
113741	7	Sololá	702	San José Chacayá	5	Chacayá	8	Agosto	2023-08-16T00:00:00	2024-11-06T10:00:00	6	Velocidad del viento	6.4
113742	7	Sololá	702	San José Chacayá	5	Chacayá	8	Agosto	2023-08-16T00:00:00	2024-11-06T10:00:00	7	Dirección del viento	6.44
113743	7	Sololá	702	San José Chacayá	5	Chacayá	8	Agosto	2023-08-16T00:00:00	2024-11-06T10:00:00	1	Precipitación	0
113744	7	Sololá	702	San José Chacayá	5	Chacayá	8	Agosto	2023-08-16T00:00:00	2024-11-06T10:00:00	8	Radiación solar	688
113745	7	Sololá	702	San José Chacayá	5	Chacayá	8	Agosto	2023-08-16T00:00:00	2024-11-06T11:00:00	2	Temperatura media	22.1
113746	7	Sololá	702	San José Chacayá	5	Chacayá	8	Agosto	2023-08-16T00:00:00	2024-11-06T11:00:00	4	Temperatura máxima	22.1
113747	7	Sololá	702	San José Chacayá	5	Chacayá	8	Agosto	2023-08-16T00:00:00	2024-11-06T11:00:00	3	Temperatura mínima	19.6
113748	7	Sololá	702	San José Chacayá	5	Chacayá	8	Agosto	2023-08-16T00:00:00	2024-11-06T11:00:00	5	Humedad	60
113749	7	Sololá	702	San José Chacayá	5	Chacayá	8	Agosto	2023-08-16T00:00:00	2024-11-06T11:00:00	6	Velocidad del viento	4.8
113750	7	Sololá	702	San José Chacayá	5	Chacayá	8	Agosto	2023-08-16T00:00:00	2024-11-06T11:00:00	7	Dirección del viento	4.83
113751	7	Sololá	702	San José Chacayá	5	Chacayá	8	Agosto	2023-08-16T00:00:00	2024-11-06T11:00:00	1	Precipitación	0
113752	7	Sololá	702	San José Chacayá	5	Chacayá	8	Agosto	2023-08-16T00:00:00	2024-11-06T11:00:00	8	Radiación solar	360
113753	7	Sololá	702	San José Chacayá	5	Chacayá	8	Agosto	2023-08-16T00:00:00	2024-11-06T12:00:00	2	Temperatura media	20.3
113754	7	Sololá	702	San José Chacayá	5	Chacayá	8	Agosto	2023-08-16T00:00:00	2024-11-06T12:00:00	4	Temperatura máxima	23.2
113755	7	Sololá	702	San José Chacayá	5	Chacayá	8	Agosto	2023-08-16T00:00:00	2024-11-06T12:00:00	3	Temperatura mínima	20.3
113756	7	Sololá	702	San José Chacayá	5	Chacayá	8	Agosto	2023-08-16T00:00:00	2024-11-06T12:00:00	5	Humedad	65
113757	7	Sololá	702	San José Chacayá	5	Chacayá	8	Agosto	2023-08-16T00:00:00	2024-11-06T12:00:00	6	Velocidad del viento	4.8
113758	7	Sololá	702	San José Chacayá	5	Chacayá	8	Agosto	2023-08-16T00:00:00	2024-11-06T12:00:00	7	Dirección del viento	4.83
113759	7	Sololá	702	San José Chacayá	5	Chacayá	8	Agosto	2023-08-16T00:00:00	2024-11-06T12:00:00	1	Precipitación	0
113760	7	Sololá	702	San José Chacayá	5	Chacayá	8	Agosto	2023-08-16T00:00:00	2024-11-06T12:00:00	8	Radiación solar	358
113761	7	Sololá	702	San José Chacayá	5	Chacayá	8	Agosto	2023-08-16T00:00:00	2024-11-06T13:00:00	2	Temperatura media	20.8
113762	7	Sololá	702	San José Chacayá	5	Chacayá	8	Agosto	2023-08-16T00:00:00	2024-11-06T13:00:00	4	Temperatura máxima	22.4
113763	7	Sololá	702	San José Chacayá	5	Chacayá	8	Agosto	2023-08-16T00:00:00	2024-11-06T13:00:00	3	Temperatura mínima	19.7
113764	7	Sololá	702	San José Chacayá	5	Chacayá	8	Agosto	2023-08-16T00:00:00	2024-11-06T13:00:00	5	Humedad	67
113765	7	Sololá	702	San José Chacayá	5	Chacayá	8	Agosto	2023-08-16T00:00:00	2024-11-06T13:00:00	6	Velocidad del viento	4.8
113766	7	Sololá	702	San José Chacayá	5	Chacayá	8	Agosto	2023-08-16T00:00:00	2024-11-06T13:00:00	7	Dirección del viento	4.83
113767	7	Sololá	702	San José Chacayá	5	Chacayá	8	Agosto	2023-08-16T00:00:00	2024-11-06T13:00:00	1	Precipitación	0
113768	7	Sololá	702	San José Chacayá	5	Chacayá	8	Agosto	2023-08-16T00:00:00	2024-11-06T13:00:00	8	Radiación solar	457
113769	7	Sololá	702	San José Chacayá	5	Chacayá	8	Agosto	2023-08-16T00:00:00	2024-11-06T14:00:00	2	Temperatura media	19.8
113770	7	Sololá	702	San José Chacayá	5	Chacayá	8	Agosto	2023-08-16T00:00:00	2024-11-06T14:00:00	4	Temperatura máxima	20.8
113771	7	Sololá	702	San José Chacayá	5	Chacayá	8	Agosto	2023-08-16T00:00:00	2024-11-06T14:00:00	3	Temperatura mínima	19.4
113772	7	Sololá	702	San José Chacayá	5	Chacayá	8	Agosto	2023-08-16T00:00:00	2024-11-06T14:00:00	5	Humedad	74
113773	7	Sololá	702	San José Chacayá	5	Chacayá	8	Agosto	2023-08-16T00:00:00	2024-11-06T14:00:00	6	Velocidad del viento	1.6
113774	7	Sololá	702	San José Chacayá	5	Chacayá	8	Agosto	2023-08-16T00:00:00	2024-11-06T14:00:00	7	Dirección del viento	1.61
113775	7	Sololá	702	San José Chacayá	5	Chacayá	8	Agosto	2023-08-16T00:00:00	2024-11-06T14:00:00	1	Precipitación	0
113776	7	Sololá	702	San José Chacayá	5	Chacayá	8	Agosto	2023-08-16T00:00:00	2024-11-06T14:00:00	8	Radiación solar	520
113777	7	Sololá	702	San José Chacayá	5	Chacayá	8	Agosto	2023-08-16T00:00:00	2024-11-06T15:00:00	2	Temperatura media	18.8
113778	7	Sololá	702	San José Chacayá	5	Chacayá	8	Agosto	2023-08-16T00:00:00	2024-11-06T15:00:00	4	Temperatura máxima	22.4
113779	7	Sololá	702	San José Chacayá	5	Chacayá	8	Agosto	2023-08-16T00:00:00	2024-11-06T15:00:00	3	Temperatura mínima	18.8
113780	7	Sololá	702	San José Chacayá	5	Chacayá	8	Agosto	2023-08-16T00:00:00	2024-11-06T15:00:00	5	Humedad	83
113781	7	Sololá	702	San José Chacayá	5	Chacayá	8	Agosto	2023-08-16T00:00:00	2024-11-06T15:00:00	6	Velocidad del viento	3.2
113782	7	Sololá	702	San José Chacayá	5	Chacayá	8	Agosto	2023-08-16T00:00:00	2024-11-06T15:00:00	7	Dirección del viento	3.22
113783	7	Sololá	702	San José Chacayá	5	Chacayá	8	Agosto	2023-08-16T00:00:00	2024-11-06T15:00:00	1	Precipitación	0
113784	7	Sololá	702	San José Chacayá	5	Chacayá	8	Agosto	2023-08-16T00:00:00	2024-11-06T15:00:00	8	Radiación solar	735
113785	7	Sololá	702	San José Chacayá	5	Chacayá	8	Agosto	2023-08-16T00:00:00	2024-11-06T16:00:00	2	Temperatura media	18.4
113786	7	Sololá	702	San José Chacayá	5	Chacayá	8	Agosto	2023-08-16T00:00:00	2024-11-06T16:00:00	4	Temperatura máxima	18.8
113787	7	Sololá	702	San José Chacayá	5	Chacayá	8	Agosto	2023-08-16T00:00:00	2024-11-06T16:00:00	3	Temperatura mínima	17.9
113788	7	Sololá	702	San José Chacayá	5	Chacayá	8	Agosto	2023-08-16T00:00:00	2024-11-06T16:00:00	5	Humedad	87
113789	7	Sololá	702	San José Chacayá	5	Chacayá	8	Agosto	2023-08-16T00:00:00	2024-11-06T16:00:00	6	Velocidad del viento	1.6
113790	7	Sololá	702	San José Chacayá	5	Chacayá	8	Agosto	2023-08-16T00:00:00	2024-11-06T16:00:00	7	Dirección del viento	1.61
113791	7	Sololá	702	San José Chacayá	5	Chacayá	8	Agosto	2023-08-16T00:00:00	2024-11-06T16:00:00	1	Precipitación	0
113792	7	Sololá	702	San José Chacayá	5	Chacayá	8	Agosto	2023-08-16T00:00:00	2024-11-06T16:00:00	8	Radiación solar	620
113793	7	Sololá	702	San José Chacayá	5	Chacayá	8	Agosto	2023-08-16T00:00:00	2024-11-06T17:00:00	2	Temperatura media	17.4
113794	7	Sololá	702	San José Chacayá	5	Chacayá	8	Agosto	2023-08-16T00:00:00	2024-11-06T17:00:00	4	Temperatura máxima	18.4
113795	7	Sololá	702	San José Chacayá	5	Chacayá	8	Agosto	2023-08-16T00:00:00	2024-11-06T17:00:00	3	Temperatura mínima	17.3
113796	7	Sololá	702	San José Chacayá	5	Chacayá	8	Agosto	2023-08-16T00:00:00	2024-11-06T17:00:00	5	Humedad	88
113797	7	Sololá	702	San José Chacayá	5	Chacayá	8	Agosto	2023-08-16T00:00:00	2024-11-06T17:00:00	6	Velocidad del viento	1.6
113798	7	Sololá	702	San José Chacayá	5	Chacayá	8	Agosto	2023-08-16T00:00:00	2024-11-06T17:00:00	7	Dirección del viento	1.61
113799	7	Sololá	702	San José Chacayá	5	Chacayá	8	Agosto	2023-08-16T00:00:00	2024-11-06T17:00:00	1	Precipitación	0
113800	7	Sololá	702	San José Chacayá	5	Chacayá	8	Agosto	2023-08-16T00:00:00	2024-11-06T17:00:00	8	Radiación solar	203
113801	7	Sololá	702	San José Chacayá	5	Chacayá	8	Agosto	2023-08-16T00:00:00	2024-11-06T18:00:00	2	Temperatura media	16.9
113802	7	Sololá	702	San José Chacayá	5	Chacayá	8	Agosto	2023-08-16T00:00:00	2024-11-06T18:00:00	4	Temperatura máxima	17.4
113803	7	Sololá	702	San José Chacayá	5	Chacayá	8	Agosto	2023-08-16T00:00:00	2024-11-06T18:00:00	3	Temperatura mínima	16.8
113804	7	Sololá	702	San José Chacayá	5	Chacayá	8	Agosto	2023-08-16T00:00:00	2024-11-06T18:00:00	5	Humedad	90
113805	7	Sololá	702	San José Chacayá	5	Chacayá	8	Agosto	2023-08-16T00:00:00	2024-11-06T18:00:00	6	Velocidad del viento	0
113806	7	Sololá	702	San José Chacayá	5	Chacayá	8	Agosto	2023-08-16T00:00:00	2024-11-06T18:00:00	7	Dirección del viento	0
113807	7	Sololá	702	San José Chacayá	5	Chacayá	8	Agosto	2023-08-16T00:00:00	2024-11-06T18:00:00	1	Precipitación	0
113808	7	Sololá	702	San José Chacayá	5	Chacayá	8	Agosto	2023-08-16T00:00:00	2024-11-06T18:00:00	8	Radiación solar	45
113809	7	Sololá	702	San José Chacayá	5	Chacayá	8	Agosto	2023-08-16T00:00:00	2024-11-06T19:00:00	2	Temperatura media	15.6
113810	7	Sololá	702	San José Chacayá	5	Chacayá	8	Agosto	2023-08-16T00:00:00	2024-11-06T19:00:00	4	Temperatura máxima	16.9
113811	7	Sololá	702	San José Chacayá	5	Chacayá	8	Agosto	2023-08-16T00:00:00	2024-11-06T19:00:00	3	Temperatura mínima	15.6
113812	7	Sololá	702	San José Chacayá	5	Chacayá	8	Agosto	2023-08-16T00:00:00	2024-11-06T19:00:00	5	Humedad	91
113813	7	Sololá	702	San José Chacayá	5	Chacayá	8	Agosto	2023-08-16T00:00:00	2024-11-06T19:00:00	6	Velocidad del viento	0
113814	7	Sololá	702	San José Chacayá	5	Chacayá	8	Agosto	2023-08-16T00:00:00	2024-11-06T19:00:00	7	Dirección del viento	0
113815	7	Sololá	702	San José Chacayá	5	Chacayá	8	Agosto	2023-08-16T00:00:00	2024-11-06T19:00:00	1	Precipitación	0
113816	7	Sololá	702	San José Chacayá	5	Chacayá	8	Agosto	2023-08-16T00:00:00	2024-11-06T19:00:00	8	Radiación solar	0
113817	7	Sololá	702	San José Chacayá	5	Chacayá	8	Agosto	2023-08-16T00:00:00	2024-11-06T20:00:00	2	Temperatura media	14.1
113818	7	Sololá	702	San José Chacayá	5	Chacayá	8	Agosto	2023-08-16T00:00:00	2024-11-06T20:00:00	4	Temperatura máxima	15.6
113819	7	Sololá	702	San José Chacayá	5	Chacayá	8	Agosto	2023-08-16T00:00:00	2024-11-06T20:00:00	3	Temperatura mínima	14.1
113820	7	Sololá	702	San José Chacayá	5	Chacayá	8	Agosto	2023-08-16T00:00:00	2024-11-06T20:00:00	5	Humedad	91
113821	7	Sololá	702	San José Chacayá	5	Chacayá	8	Agosto	2023-08-16T00:00:00	2024-11-06T20:00:00	6	Velocidad del viento	0
113822	7	Sololá	702	San José Chacayá	5	Chacayá	8	Agosto	2023-08-16T00:00:00	2024-11-06T20:00:00	7	Dirección del viento	0
113823	7	Sololá	702	San José Chacayá	5	Chacayá	8	Agosto	2023-08-16T00:00:00	2024-11-06T20:00:00	1	Precipitación	0
113824	7	Sololá	702	San José Chacayá	5	Chacayá	8	Agosto	2023-08-16T00:00:00	2024-11-06T20:00:00	8	Radiación solar	0
113825	7	Sololá	702	San José Chacayá	5	Chacayá	8	Agosto	2023-08-16T00:00:00	2024-11-06T21:00:00	2	Temperatura media	13.6
113826	7	Sololá	702	San José Chacayá	5	Chacayá	8	Agosto	2023-08-16T00:00:00	2024-11-06T21:00:00	4	Temperatura máxima	14.1
113827	7	Sololá	702	San José Chacayá	5	Chacayá	8	Agosto	2023-08-16T00:00:00	2024-11-06T21:00:00	3	Temperatura mínima	13.6
113828	7	Sololá	702	San José Chacayá	5	Chacayá	8	Agosto	2023-08-16T00:00:00	2024-11-06T21:00:00	5	Humedad	93
113829	7	Sololá	702	San José Chacayá	5	Chacayá	8	Agosto	2023-08-16T00:00:00	2024-11-06T21:00:00	6	Velocidad del viento	0
113830	7	Sololá	702	San José Chacayá	5	Chacayá	8	Agosto	2023-08-16T00:00:00	2024-11-06T21:00:00	7	Dirección del viento	0
113831	7	Sololá	702	San José Chacayá	5	Chacayá	8	Agosto	2023-08-16T00:00:00	2024-11-06T21:00:00	1	Precipitación	0
113832	7	Sololá	702	San José Chacayá	5	Chacayá	8	Agosto	2023-08-16T00:00:00	2024-11-06T21:00:00	8	Radiación solar	0
113833	7	Sololá	702	San José Chacayá	5	Chacayá	8	Agosto	2023-08-16T00:00:00	2024-11-06T22:00:00	2	Temperatura media	12.9
113834	7	Sololá	702	San José Chacayá	5	Chacayá	8	Agosto	2023-08-16T00:00:00	2024-11-06T22:00:00	4	Temperatura máxima	13.6
113835	7	Sololá	702	San José Chacayá	5	Chacayá	8	Agosto	2023-08-16T00:00:00	2024-11-06T22:00:00	3	Temperatura mínima	12.9
113836	7	Sololá	702	San José Chacayá	5	Chacayá	8	Agosto	2023-08-16T00:00:00	2024-11-06T22:00:00	5	Humedad	93
113837	7	Sololá	702	San José Chacayá	5	Chacayá	8	Agosto	2023-08-16T00:00:00	2024-11-06T22:00:00	6	Velocidad del viento	0
113838	7	Sololá	702	San José Chacayá	5	Chacayá	8	Agosto	2023-08-16T00:00:00	2024-11-06T22:00:00	7	Dirección del viento	0
113839	7	Sololá	702	San José Chacayá	5	Chacayá	8	Agosto	2023-08-16T00:00:00	2024-11-06T22:00:00	1	Precipitación	0
113840	7	Sololá	702	San José Chacayá	5	Chacayá	8	Agosto	2023-08-16T00:00:00	2024-11-06T22:00:00	8	Radiación solar	0
113841	7	Sololá	702	San José Chacayá	5	Chacayá	8	Agosto	2023-08-16T00:00:00	2024-11-06T23:00:00	2	Temperatura media	12.6
113842	7	Sololá	702	San José Chacayá	5	Chacayá	8	Agosto	2023-08-16T00:00:00	2024-11-06T23:00:00	4	Temperatura máxima	12.9
113843	7	Sololá	702	San José Chacayá	5	Chacayá	8	Agosto	2023-08-16T00:00:00	2024-11-06T23:00:00	3	Temperatura mínima	12.5
113844	7	Sololá	702	San José Chacayá	5	Chacayá	8	Agosto	2023-08-16T00:00:00	2024-11-06T23:00:00	5	Humedad	93
113845	7	Sololá	702	San José Chacayá	5	Chacayá	8	Agosto	2023-08-16T00:00:00	2024-11-06T23:00:00	6	Velocidad del viento	1.6
113846	7	Sololá	702	San José Chacayá	5	Chacayá	8	Agosto	2023-08-16T00:00:00	2024-11-06T23:00:00	7	Dirección del viento	1.61
113847	7	Sololá	702	San José Chacayá	5	Chacayá	8	Agosto	2023-08-16T00:00:00	2024-11-06T23:00:00	1	Precipitación	0
113848	7	Sololá	702	San José Chacayá	5	Chacayá	8	Agosto	2023-08-16T00:00:00	2024-11-06T23:00:00	8	Radiación solar	0
113849	7	Sololá	702	San José Chacayá	5	Chacayá	8	Agosto	2023-08-17T00:00:00	2024-11-06T00:00:00	2	Temperatura media	12.1
113850	7	Sololá	702	San José Chacayá	5	Chacayá	8	Agosto	2023-08-17T00:00:00	2024-11-06T00:00:00	4	Temperatura máxima	12.6
113851	7	Sololá	702	San José Chacayá	5	Chacayá	8	Agosto	2023-08-17T00:00:00	2024-11-06T00:00:00	3	Temperatura mínima	12.1
113852	7	Sololá	702	San José Chacayá	5	Chacayá	8	Agosto	2023-08-17T00:00:00	2024-11-06T00:00:00	5	Humedad	93
113853	7	Sololá	702	San José Chacayá	5	Chacayá	8	Agosto	2023-08-17T00:00:00	2024-11-06T00:00:00	6	Velocidad del viento	0
113854	7	Sololá	702	San José Chacayá	5	Chacayá	8	Agosto	2023-08-17T00:00:00	2024-11-06T00:00:00	7	Dirección del viento	0
113855	7	Sololá	702	San José Chacayá	5	Chacayá	8	Agosto	2023-08-17T00:00:00	2024-11-06T00:00:00	1	Precipitación	0
113856	7	Sololá	702	San José Chacayá	5	Chacayá	8	Agosto	2023-08-17T00:00:00	2024-11-06T00:00:00	8	Radiación solar	0
113857	7	Sololá	702	San José Chacayá	5	Chacayá	8	Agosto	2023-08-17T00:00:00	2024-11-06T01:00:00	2	Temperatura media	11.6
113858	7	Sololá	702	San José Chacayá	5	Chacayá	8	Agosto	2023-08-17T00:00:00	2024-11-06T01:00:00	4	Temperatura máxima	12.1
113859	7	Sololá	702	San José Chacayá	5	Chacayá	8	Agosto	2023-08-17T00:00:00	2024-11-06T01:00:00	3	Temperatura mínima	11.6
113860	7	Sololá	702	San José Chacayá	5	Chacayá	8	Agosto	2023-08-17T00:00:00	2024-11-06T01:00:00	5	Humedad	92
113861	7	Sololá	702	San José Chacayá	5	Chacayá	8	Agosto	2023-08-17T00:00:00	2024-11-06T01:00:00	6	Velocidad del viento	0
113862	7	Sololá	702	San José Chacayá	5	Chacayá	8	Agosto	2023-08-17T00:00:00	2024-11-06T01:00:00	7	Dirección del viento	0
113863	7	Sololá	702	San José Chacayá	5	Chacayá	8	Agosto	2023-08-17T00:00:00	2024-11-06T01:00:00	1	Precipitación	0
113864	7	Sololá	702	San José Chacayá	5	Chacayá	8	Agosto	2023-08-17T00:00:00	2024-11-06T01:00:00	8	Radiación solar	0
113865	7	Sololá	702	San José Chacayá	5	Chacayá	8	Agosto	2023-08-17T00:00:00	2024-11-06T02:00:00	2	Temperatura media	11.1
113866	7	Sololá	702	San José Chacayá	5	Chacayá	8	Agosto	2023-08-17T00:00:00	2024-11-06T02:00:00	4	Temperatura máxima	11.6
113867	7	Sololá	702	San José Chacayá	5	Chacayá	8	Agosto	2023-08-17T00:00:00	2024-11-06T02:00:00	3	Temperatura mínima	11.1
113868	7	Sololá	702	San José Chacayá	5	Chacayá	8	Agosto	2023-08-17T00:00:00	2024-11-06T02:00:00	5	Humedad	93
113869	7	Sololá	702	San José Chacayá	5	Chacayá	8	Agosto	2023-08-17T00:00:00	2024-11-06T02:00:00	6	Velocidad del viento	0
113870	7	Sololá	702	San José Chacayá	5	Chacayá	8	Agosto	2023-08-17T00:00:00	2024-11-06T02:00:00	7	Dirección del viento	0
113871	7	Sololá	702	San José Chacayá	5	Chacayá	8	Agosto	2023-08-17T00:00:00	2024-11-06T02:00:00	1	Precipitación	0
113872	7	Sololá	702	San José Chacayá	5	Chacayá	8	Agosto	2023-08-17T00:00:00	2024-11-06T02:00:00	8	Radiación solar	0
113873	7	Sololá	702	San José Chacayá	5	Chacayá	8	Agosto	2023-08-17T00:00:00	2024-11-06T03:00:00	2	Temperatura media	10.7
113874	7	Sololá	702	San José Chacayá	5	Chacayá	8	Agosto	2023-08-17T00:00:00	2024-11-06T03:00:00	4	Temperatura máxima	11.1
113875	7	Sololá	702	San José Chacayá	5	Chacayá	8	Agosto	2023-08-17T00:00:00	2024-11-06T03:00:00	3	Temperatura mínima	10.7
113876	7	Sololá	702	San José Chacayá	5	Chacayá	8	Agosto	2023-08-17T00:00:00	2024-11-06T03:00:00	5	Humedad	93
113877	7	Sololá	702	San José Chacayá	5	Chacayá	8	Agosto	2023-08-17T00:00:00	2024-11-06T03:00:00	6	Velocidad del viento	1.6
113878	7	Sololá	702	San José Chacayá	5	Chacayá	8	Agosto	2023-08-17T00:00:00	2024-11-06T03:00:00	7	Dirección del viento	1.61
113879	7	Sololá	702	San José Chacayá	5	Chacayá	8	Agosto	2023-08-17T00:00:00	2024-11-06T03:00:00	1	Precipitación	0
113880	7	Sololá	702	San José Chacayá	5	Chacayá	8	Agosto	2023-08-17T00:00:00	2024-11-06T03:00:00	8	Radiación solar	0
113881	7	Sololá	702	San José Chacayá	5	Chacayá	8	Agosto	2023-08-17T00:00:00	2024-11-06T04:00:00	2	Temperatura media	10.3
113882	7	Sololá	702	San José Chacayá	5	Chacayá	8	Agosto	2023-08-17T00:00:00	2024-11-06T04:00:00	4	Temperatura máxima	10.7
113883	7	Sololá	702	San José Chacayá	5	Chacayá	8	Agosto	2023-08-17T00:00:00	2024-11-06T04:00:00	3	Temperatura mínima	10.3
113884	7	Sololá	702	San José Chacayá	5	Chacayá	8	Agosto	2023-08-17T00:00:00	2024-11-06T04:00:00	5	Humedad	93
113885	7	Sololá	702	San José Chacayá	5	Chacayá	8	Agosto	2023-08-17T00:00:00	2024-11-06T04:00:00	6	Velocidad del viento	0
113886	7	Sololá	702	San José Chacayá	5	Chacayá	8	Agosto	2023-08-17T00:00:00	2024-11-06T04:00:00	7	Dirección del viento	0
113887	7	Sololá	702	San José Chacayá	5	Chacayá	8	Agosto	2023-08-17T00:00:00	2024-11-06T04:00:00	1	Precipitación	0
113888	7	Sololá	702	San José Chacayá	5	Chacayá	8	Agosto	2023-08-17T00:00:00	2024-11-06T04:00:00	8	Radiación solar	0
113889	7	Sololá	702	San José Chacayá	5	Chacayá	8	Agosto	2023-08-17T00:00:00	2024-11-06T05:00:00	2	Temperatura media	10
113890	7	Sololá	702	San José Chacayá	5	Chacayá	8	Agosto	2023-08-17T00:00:00	2024-11-06T05:00:00	4	Temperatura máxima	10.3
113891	7	Sololá	702	San José Chacayá	5	Chacayá	8	Agosto	2023-08-17T00:00:00	2024-11-06T05:00:00	3	Temperatura mínima	10
113892	7	Sololá	702	San José Chacayá	5	Chacayá	8	Agosto	2023-08-17T00:00:00	2024-11-06T05:00:00	5	Humedad	93
113893	7	Sololá	702	San José Chacayá	5	Chacayá	8	Agosto	2023-08-17T00:00:00	2024-11-06T05:00:00	6	Velocidad del viento	1.6
113894	7	Sololá	702	San José Chacayá	5	Chacayá	8	Agosto	2023-08-17T00:00:00	2024-11-06T05:00:00	7	Dirección del viento	1.61
113895	7	Sololá	702	San José Chacayá	5	Chacayá	8	Agosto	2023-08-17T00:00:00	2024-11-06T05:00:00	1	Precipitación	0
113896	7	Sololá	702	San José Chacayá	5	Chacayá	8	Agosto	2023-08-17T00:00:00	2024-11-06T05:00:00	8	Radiación solar	0
113897	7	Sololá	702	San José Chacayá	5	Chacayá	8	Agosto	2023-08-17T00:00:00	2024-11-06T06:00:00	2	Temperatura media	9.7
113898	7	Sololá	702	San José Chacayá	5	Chacayá	8	Agosto	2023-08-17T00:00:00	2024-11-06T06:00:00	4	Temperatura máxima	10
113899	7	Sololá	702	San José Chacayá	5	Chacayá	8	Agosto	2023-08-17T00:00:00	2024-11-06T06:00:00	3	Temperatura mínima	9.7
113900	7	Sololá	702	San José Chacayá	5	Chacayá	8	Agosto	2023-08-17T00:00:00	2024-11-06T06:00:00	5	Humedad	93
113901	7	Sololá	702	San José Chacayá	5	Chacayá	8	Agosto	2023-08-17T00:00:00	2024-11-06T06:00:00	6	Velocidad del viento	0
113902	7	Sololá	702	San José Chacayá	5	Chacayá	8	Agosto	2023-08-17T00:00:00	2024-11-06T06:00:00	7	Dirección del viento	0
113903	7	Sololá	702	San José Chacayá	5	Chacayá	8	Agosto	2023-08-17T00:00:00	2024-11-06T06:00:00	1	Precipitación	0
113904	7	Sololá	702	San José Chacayá	5	Chacayá	8	Agosto	2023-08-17T00:00:00	2024-11-06T06:00:00	8	Radiación solar	1
113905	7	Sololá	702	San José Chacayá	5	Chacayá	8	Agosto	2023-08-17T00:00:00	2024-11-06T07:00:00	2	Temperatura media	10.3
113906	7	Sololá	702	San José Chacayá	5	Chacayá	8	Agosto	2023-08-17T00:00:00	2024-11-06T07:00:00	4	Temperatura máxima	10.3
113907	7	Sololá	702	San José Chacayá	5	Chacayá	8	Agosto	2023-08-17T00:00:00	2024-11-06T07:00:00	3	Temperatura mínima	9.6
113908	7	Sololá	702	San José Chacayá	5	Chacayá	8	Agosto	2023-08-17T00:00:00	2024-11-06T07:00:00	5	Humedad	93
113909	7	Sololá	702	San José Chacayá	5	Chacayá	8	Agosto	2023-08-17T00:00:00	2024-11-06T07:00:00	6	Velocidad del viento	1.6
113910	7	Sololá	702	San José Chacayá	5	Chacayá	8	Agosto	2023-08-17T00:00:00	2024-11-06T07:00:00	7	Dirección del viento	1.61
113911	7	Sololá	702	San José Chacayá	5	Chacayá	8	Agosto	2023-08-17T00:00:00	2024-11-06T07:00:00	1	Precipitación	0
113912	7	Sololá	702	San José Chacayá	5	Chacayá	8	Agosto	2023-08-17T00:00:00	2024-11-06T07:00:00	8	Radiación solar	66
113913	7	Sololá	702	San José Chacayá	5	Chacayá	8	Agosto	2023-08-17T00:00:00	2024-11-06T08:00:00	2	Temperatura media	14.2
113914	7	Sololá	702	San José Chacayá	5	Chacayá	8	Agosto	2023-08-17T00:00:00	2024-11-06T08:00:00	4	Temperatura máxima	14.2
113915	7	Sololá	702	San José Chacayá	5	Chacayá	8	Agosto	2023-08-17T00:00:00	2024-11-06T08:00:00	3	Temperatura mínima	10.3
113916	7	Sololá	702	San José Chacayá	5	Chacayá	8	Agosto	2023-08-17T00:00:00	2024-11-06T08:00:00	5	Humedad	86
113917	7	Sololá	702	San José Chacayá	5	Chacayá	8	Agosto	2023-08-17T00:00:00	2024-11-06T08:00:00	6	Velocidad del viento	0
113918	7	Sololá	702	San José Chacayá	5	Chacayá	8	Agosto	2023-08-17T00:00:00	2024-11-06T08:00:00	7	Dirección del viento	0
113919	7	Sololá	702	San José Chacayá	5	Chacayá	8	Agosto	2023-08-17T00:00:00	2024-11-06T08:00:00	1	Precipitación	0
113920	7	Sololá	702	San José Chacayá	5	Chacayá	8	Agosto	2023-08-17T00:00:00	2024-11-06T08:00:00	8	Radiación solar	162
113921	7	Sololá	702	San José Chacayá	5	Chacayá	8	Agosto	2023-08-17T00:00:00	2024-11-06T09:00:00	2	Temperatura media	18.8
113922	7	Sololá	702	San José Chacayá	5	Chacayá	8	Agosto	2023-08-17T00:00:00	2024-11-06T09:00:00	4	Temperatura máxima	18.8
113923	7	Sololá	702	San José Chacayá	5	Chacayá	8	Agosto	2023-08-17T00:00:00	2024-11-06T09:00:00	3	Temperatura mínima	14.2
113924	7	Sololá	702	San José Chacayá	5	Chacayá	8	Agosto	2023-08-17T00:00:00	2024-11-06T09:00:00	5	Humedad	69
113925	7	Sololá	702	San José Chacayá	5	Chacayá	8	Agosto	2023-08-17T00:00:00	2024-11-06T09:00:00	6	Velocidad del viento	3.2
113926	7	Sololá	702	San José Chacayá	5	Chacayá	8	Agosto	2023-08-17T00:00:00	2024-11-06T09:00:00	7	Dirección del viento	3.22
113927	7	Sololá	702	San José Chacayá	5	Chacayá	8	Agosto	2023-08-17T00:00:00	2024-11-06T09:00:00	1	Precipitación	0
113928	7	Sololá	702	San José Chacayá	5	Chacayá	8	Agosto	2023-08-17T00:00:00	2024-11-06T09:00:00	8	Radiación solar	139
113929	7	Sololá	702	San José Chacayá	5	Chacayá	8	Agosto	2023-08-17T00:00:00	2024-11-06T10:00:00	2	Temperatura media	20.6
113930	7	Sololá	702	San José Chacayá	5	Chacayá	8	Agosto	2023-08-17T00:00:00	2024-11-06T10:00:00	4	Temperatura máxima	20.8
113931	7	Sololá	702	San José Chacayá	5	Chacayá	8	Agosto	2023-08-17T00:00:00	2024-11-06T10:00:00	3	Temperatura mínima	18.9
113932	7	Sololá	702	San José Chacayá	5	Chacayá	8	Agosto	2023-08-17T00:00:00	2024-11-06T10:00:00	5	Humedad	62
113933	7	Sololá	702	San José Chacayá	5	Chacayá	8	Agosto	2023-08-17T00:00:00	2024-11-06T10:00:00	6	Velocidad del viento	6.4
113934	7	Sololá	702	San José Chacayá	5	Chacayá	8	Agosto	2023-08-17T00:00:00	2024-11-06T10:00:00	7	Dirección del viento	6.44
113935	7	Sololá	702	San José Chacayá	5	Chacayá	8	Agosto	2023-08-17T00:00:00	2024-11-06T10:00:00	1	Precipitación	0
113936	7	Sololá	702	San José Chacayá	5	Chacayá	8	Agosto	2023-08-17T00:00:00	2024-11-06T10:00:00	8	Radiación solar	287
113937	7	Sololá	702	San José Chacayá	5	Chacayá	8	Agosto	2023-08-17T00:00:00	2024-11-06T11:00:00	2	Temperatura media	22.4
113938	7	Sololá	702	San José Chacayá	5	Chacayá	8	Agosto	2023-08-17T00:00:00	2024-11-06T11:00:00	4	Temperatura máxima	22.7
113939	7	Sololá	702	San José Chacayá	5	Chacayá	8	Agosto	2023-08-17T00:00:00	2024-11-06T11:00:00	3	Temperatura mínima	20.1
113940	7	Sololá	702	San José Chacayá	5	Chacayá	8	Agosto	2023-08-17T00:00:00	2024-11-06T11:00:00	5	Humedad	54
113941	7	Sololá	702	San José Chacayá	5	Chacayá	8	Agosto	2023-08-17T00:00:00	2024-11-06T11:00:00	6	Velocidad del viento	4.8
113942	7	Sololá	702	San José Chacayá	5	Chacayá	8	Agosto	2023-08-17T00:00:00	2024-11-06T11:00:00	7	Dirección del viento	4.83
113943	7	Sololá	702	San José Chacayá	5	Chacayá	8	Agosto	2023-08-17T00:00:00	2024-11-06T11:00:00	1	Precipitación	0
113944	7	Sololá	702	San José Chacayá	5	Chacayá	8	Agosto	2023-08-17T00:00:00	2024-11-06T11:00:00	8	Radiación solar	488
113945	7	Sololá	702	San José Chacayá	5	Chacayá	8	Agosto	2023-08-17T00:00:00	2024-11-06T12:00:00	2	Temperatura media	22.4
113946	7	Sololá	702	San José Chacayá	5	Chacayá	8	Agosto	2023-08-17T00:00:00	2024-11-06T12:00:00	4	Temperatura máxima	23
113947	7	Sololá	702	San José Chacayá	5	Chacayá	8	Agosto	2023-08-17T00:00:00	2024-11-06T12:00:00	3	Temperatura mínima	22
113948	7	Sololá	702	San José Chacayá	5	Chacayá	8	Agosto	2023-08-17T00:00:00	2024-11-06T12:00:00	5	Humedad	57
113949	7	Sololá	702	San José Chacayá	5	Chacayá	8	Agosto	2023-08-17T00:00:00	2024-11-06T12:00:00	6	Velocidad del viento	4.8
113950	7	Sololá	702	San José Chacayá	5	Chacayá	8	Agosto	2023-08-17T00:00:00	2024-11-06T12:00:00	7	Dirección del viento	4.83
113951	7	Sololá	702	San José Chacayá	5	Chacayá	8	Agosto	2023-08-17T00:00:00	2024-11-06T12:00:00	1	Precipitación	0
113952	7	Sololá	702	San José Chacayá	5	Chacayá	8	Agosto	2023-08-17T00:00:00	2024-11-06T12:00:00	8	Radiación solar	502
113953	7	Sololá	702	San José Chacayá	5	Chacayá	8	Agosto	2023-08-17T00:00:00	2024-11-06T13:00:00	2	Temperatura media	23.6
113954	7	Sololá	702	San José Chacayá	5	Chacayá	8	Agosto	2023-08-17T00:00:00	2024-11-06T13:00:00	4	Temperatura máxima	23.6
113955	7	Sololá	702	San José Chacayá	5	Chacayá	8	Agosto	2023-08-17T00:00:00	2024-11-06T13:00:00	3	Temperatura mínima	21.7
113956	7	Sololá	702	San José Chacayá	5	Chacayá	8	Agosto	2023-08-17T00:00:00	2024-11-06T13:00:00	5	Humedad	52
113957	7	Sololá	702	San José Chacayá	5	Chacayá	8	Agosto	2023-08-17T00:00:00	2024-11-06T13:00:00	6	Velocidad del viento	4.8
113958	7	Sololá	702	San José Chacayá	5	Chacayá	8	Agosto	2023-08-17T00:00:00	2024-11-06T13:00:00	7	Dirección del viento	4.83
113959	7	Sololá	702	San José Chacayá	5	Chacayá	8	Agosto	2023-08-17T00:00:00	2024-11-06T13:00:00	1	Precipitación	0
113960	7	Sololá	702	San José Chacayá	5	Chacayá	8	Agosto	2023-08-17T00:00:00	2024-11-06T13:00:00	8	Radiación solar	453
113961	7	Sololá	702	San José Chacayá	5	Chacayá	8	Agosto	2023-08-17T00:00:00	2024-11-06T14:00:00	2	Temperatura media	23.4
113962	7	Sololá	702	San José Chacayá	5	Chacayá	8	Agosto	2023-08-17T00:00:00	2024-11-06T14:00:00	4	Temperatura máxima	24.7
113963	7	Sololá	702	San José Chacayá	5	Chacayá	8	Agosto	2023-08-17T00:00:00	2024-11-06T14:00:00	3	Temperatura mínima	23.3
113964	7	Sololá	702	San José Chacayá	5	Chacayá	8	Agosto	2023-08-17T00:00:00	2024-11-06T14:00:00	5	Humedad	49
113965	7	Sololá	702	San José Chacayá	5	Chacayá	8	Agosto	2023-08-17T00:00:00	2024-11-06T14:00:00	6	Velocidad del viento	4.8
113966	7	Sololá	702	San José Chacayá	5	Chacayá	8	Agosto	2023-08-17T00:00:00	2024-11-06T14:00:00	7	Dirección del viento	4.83
113967	7	Sololá	702	San José Chacayá	5	Chacayá	8	Agosto	2023-08-17T00:00:00	2024-11-06T14:00:00	1	Precipitación	0
113968	7	Sololá	702	San José Chacayá	5	Chacayá	8	Agosto	2023-08-17T00:00:00	2024-11-06T14:00:00	8	Radiación solar	429
113969	7	Sololá	702	San José Chacayá	5	Chacayá	8	Agosto	2023-08-17T00:00:00	2024-11-06T15:00:00	2	Temperatura media	21.2
113970	7	Sololá	702	San José Chacayá	5	Chacayá	8	Agosto	2023-08-17T00:00:00	2024-11-06T15:00:00	4	Temperatura máxima	23.4
113971	7	Sololá	702	San José Chacayá	5	Chacayá	8	Agosto	2023-08-17T00:00:00	2024-11-06T15:00:00	3	Temperatura mínima	20.9
113972	7	Sololá	702	San José Chacayá	5	Chacayá	8	Agosto	2023-08-17T00:00:00	2024-11-06T15:00:00	5	Humedad	67
113973	7	Sololá	702	San José Chacayá	5	Chacayá	8	Agosto	2023-08-17T00:00:00	2024-11-06T15:00:00	6	Velocidad del viento	4.8
113974	7	Sololá	702	San José Chacayá	5	Chacayá	8	Agosto	2023-08-17T00:00:00	2024-11-06T15:00:00	7	Dirección del viento	4.83
113975	7	Sololá	702	San José Chacayá	5	Chacayá	8	Agosto	2023-08-17T00:00:00	2024-11-06T15:00:00	1	Precipitación	0
113976	7	Sololá	702	San José Chacayá	5	Chacayá	8	Agosto	2023-08-17T00:00:00	2024-11-06T15:00:00	8	Radiación solar	514
113977	7	Sololá	702	San José Chacayá	5	Chacayá	8	Agosto	2023-08-17T00:00:00	2024-11-06T16:00:00	2	Temperatura media	22.8
113978	7	Sololá	702	San José Chacayá	5	Chacayá	8	Agosto	2023-08-17T00:00:00	2024-11-06T16:00:00	4	Temperatura máxima	22.8
113979	7	Sololá	702	San José Chacayá	5	Chacayá	8	Agosto	2023-08-17T00:00:00	2024-11-06T16:00:00	3	Temperatura mínima	20.2
113980	7	Sololá	702	San José Chacayá	5	Chacayá	8	Agosto	2023-08-17T00:00:00	2024-11-06T16:00:00	5	Humedad	59
113981	7	Sololá	702	San José Chacayá	5	Chacayá	8	Agosto	2023-08-17T00:00:00	2024-11-06T16:00:00	6	Velocidad del viento	3.2
113982	7	Sololá	702	San José Chacayá	5	Chacayá	8	Agosto	2023-08-17T00:00:00	2024-11-06T16:00:00	7	Dirección del viento	3.22
113983	7	Sololá	702	San José Chacayá	5	Chacayá	8	Agosto	2023-08-17T00:00:00	2024-11-06T16:00:00	1	Precipitación	0
113984	7	Sololá	702	San José Chacayá	5	Chacayá	8	Agosto	2023-08-17T00:00:00	2024-11-06T16:00:00	8	Radiación solar	319
113985	7	Sololá	702	San José Chacayá	5	Chacayá	8	Agosto	2023-08-17T00:00:00	2024-11-06T17:00:00	2	Temperatura media	21.1
113986	7	Sololá	702	San José Chacayá	5	Chacayá	8	Agosto	2023-08-17T00:00:00	2024-11-06T17:00:00	4	Temperatura máxima	22.9
113987	7	Sololá	702	San José Chacayá	5	Chacayá	8	Agosto	2023-08-17T00:00:00	2024-11-06T17:00:00	3	Temperatura mínima	20.9
113988	7	Sololá	702	San José Chacayá	5	Chacayá	8	Agosto	2023-08-17T00:00:00	2024-11-06T17:00:00	5	Humedad	74
113989	7	Sololá	702	San José Chacayá	5	Chacayá	8	Agosto	2023-08-17T00:00:00	2024-11-06T17:00:00	6	Velocidad del viento	3.2
113990	7	Sololá	702	San José Chacayá	5	Chacayá	8	Agosto	2023-08-17T00:00:00	2024-11-06T17:00:00	7	Dirección del viento	3.22
113991	7	Sololá	702	San José Chacayá	5	Chacayá	8	Agosto	2023-08-17T00:00:00	2024-11-06T17:00:00	1	Precipitación	0
113992	7	Sololá	702	San José Chacayá	5	Chacayá	8	Agosto	2023-08-17T00:00:00	2024-11-06T17:00:00	8	Radiación solar	126
113993	7	Sololá	702	San José Chacayá	5	Chacayá	8	Agosto	2023-08-17T00:00:00	2024-11-06T18:00:00	2	Temperatura media	18.7
113994	7	Sololá	702	San José Chacayá	5	Chacayá	8	Agosto	2023-08-17T00:00:00	2024-11-06T18:00:00	4	Temperatura máxima	21.1
113995	7	Sololá	702	San José Chacayá	5	Chacayá	8	Agosto	2023-08-17T00:00:00	2024-11-06T18:00:00	3	Temperatura mínima	18.7
113996	7	Sololá	702	San José Chacayá	5	Chacayá	8	Agosto	2023-08-17T00:00:00	2024-11-06T18:00:00	5	Humedad	83
113997	7	Sololá	702	San José Chacayá	5	Chacayá	8	Agosto	2023-08-17T00:00:00	2024-11-06T18:00:00	6	Velocidad del viento	1.6
113998	7	Sololá	702	San José Chacayá	5	Chacayá	8	Agosto	2023-08-17T00:00:00	2024-11-06T18:00:00	7	Dirección del viento	1.61
113999	7	Sololá	702	San José Chacayá	5	Chacayá	8	Agosto	2023-08-17T00:00:00	2024-11-06T18:00:00	1	Precipitación	0
114000	7	Sololá	702	San José Chacayá	5	Chacayá	8	Agosto	2023-08-17T00:00:00	2024-11-06T18:00:00	8	Radiación solar	38
114001	7	Sololá	702	San José Chacayá	5	Chacayá	8	Agosto	2023-08-17T00:00:00	2024-11-06T19:00:00	2	Temperatura media	17.1
114002	7	Sololá	702	San José Chacayá	5	Chacayá	8	Agosto	2023-08-17T00:00:00	2024-11-06T19:00:00	4	Temperatura máxima	18.7
114003	7	Sololá	702	San José Chacayá	5	Chacayá	8	Agosto	2023-08-17T00:00:00	2024-11-06T19:00:00	3	Temperatura mínima	17.1
114004	7	Sololá	702	San José Chacayá	5	Chacayá	8	Agosto	2023-08-17T00:00:00	2024-11-06T19:00:00	5	Humedad	90
114005	7	Sololá	702	San José Chacayá	5	Chacayá	8	Agosto	2023-08-17T00:00:00	2024-11-06T19:00:00	6	Velocidad del viento	0
114006	7	Sololá	702	San José Chacayá	5	Chacayá	8	Agosto	2023-08-17T00:00:00	2024-11-06T19:00:00	7	Dirección del viento	0
114007	7	Sololá	702	San José Chacayá	5	Chacayá	8	Agosto	2023-08-17T00:00:00	2024-11-06T19:00:00	1	Precipitación	0
114008	7	Sololá	702	San José Chacayá	5	Chacayá	8	Agosto	2023-08-17T00:00:00	2024-11-06T19:00:00	8	Radiación solar	0
114009	7	Sololá	702	San José Chacayá	5	Chacayá	8	Agosto	2023-08-17T00:00:00	2024-11-06T20:00:00	2	Temperatura media	16.1
114010	7	Sololá	702	San José Chacayá	5	Chacayá	8	Agosto	2023-08-17T00:00:00	2024-11-06T20:00:00	4	Temperatura máxima	17.2
114011	7	Sololá	702	San José Chacayá	5	Chacayá	8	Agosto	2023-08-17T00:00:00	2024-11-06T20:00:00	3	Temperatura mínima	16.1
114012	7	Sololá	702	San José Chacayá	5	Chacayá	8	Agosto	2023-08-17T00:00:00	2024-11-06T20:00:00	5	Humedad	84
114013	7	Sololá	702	San José Chacayá	5	Chacayá	8	Agosto	2023-08-17T00:00:00	2024-11-06T20:00:00	6	Velocidad del viento	1.6
114014	7	Sololá	702	San José Chacayá	5	Chacayá	8	Agosto	2023-08-17T00:00:00	2024-11-06T20:00:00	7	Dirección del viento	1.61
114015	7	Sololá	702	San José Chacayá	5	Chacayá	8	Agosto	2023-08-17T00:00:00	2024-11-06T20:00:00	1	Precipitación	0
114016	7	Sololá	702	San José Chacayá	5	Chacayá	8	Agosto	2023-08-17T00:00:00	2024-11-06T20:00:00	8	Radiación solar	0
114017	7	Sololá	702	San José Chacayá	5	Chacayá	8	Agosto	2023-08-17T00:00:00	2024-11-06T21:00:00	2	Temperatura media	15.7
114018	7	Sololá	702	San José Chacayá	5	Chacayá	8	Agosto	2023-08-17T00:00:00	2024-11-06T21:00:00	4	Temperatura máxima	16.1
114019	7	Sololá	702	San José Chacayá	5	Chacayá	8	Agosto	2023-08-17T00:00:00	2024-11-06T21:00:00	3	Temperatura mínima	15.6
114020	7	Sololá	702	San José Chacayá	5	Chacayá	8	Agosto	2023-08-17T00:00:00	2024-11-06T21:00:00	5	Humedad	83
114021	7	Sololá	702	San José Chacayá	5	Chacayá	8	Agosto	2023-08-17T00:00:00	2024-11-06T21:00:00	6	Velocidad del viento	1.6
114022	7	Sololá	702	San José Chacayá	5	Chacayá	8	Agosto	2023-08-17T00:00:00	2024-11-06T21:00:00	7	Dirección del viento	1.61
114023	7	Sololá	702	San José Chacayá	5	Chacayá	8	Agosto	2023-08-17T00:00:00	2024-11-06T21:00:00	1	Precipitación	0
114024	7	Sololá	702	San José Chacayá	5	Chacayá	8	Agosto	2023-08-17T00:00:00	2024-11-06T21:00:00	8	Radiación solar	0
114025	7	Sololá	702	San José Chacayá	5	Chacayá	8	Agosto	2023-08-17T00:00:00	2024-11-06T22:00:00	2	Temperatura media	14.6
114026	7	Sololá	702	San José Chacayá	5	Chacayá	8	Agosto	2023-08-17T00:00:00	2024-11-06T22:00:00	4	Temperatura máxima	15.7
114027	7	Sololá	702	San José Chacayá	5	Chacayá	8	Agosto	2023-08-17T00:00:00	2024-11-06T22:00:00	3	Temperatura mínima	14.6
114028	7	Sololá	702	San José Chacayá	5	Chacayá	8	Agosto	2023-08-17T00:00:00	2024-11-06T22:00:00	5	Humedad	86
114029	7	Sololá	702	San José Chacayá	5	Chacayá	8	Agosto	2023-08-17T00:00:00	2024-11-06T22:00:00	6	Velocidad del viento	1.6
114030	7	Sololá	702	San José Chacayá	5	Chacayá	8	Agosto	2023-08-17T00:00:00	2024-11-06T22:00:00	7	Dirección del viento	1.61
114031	7	Sololá	702	San José Chacayá	5	Chacayá	8	Agosto	2023-08-17T00:00:00	2024-11-06T22:00:00	1	Precipitación	0
114032	7	Sololá	702	San José Chacayá	5	Chacayá	8	Agosto	2023-08-17T00:00:00	2024-11-06T22:00:00	8	Radiación solar	0
114033	7	Sololá	702	San José Chacayá	5	Chacayá	8	Agosto	2023-08-17T00:00:00	2024-11-06T23:00:00	2	Temperatura media	14.8
114034	7	Sololá	702	San José Chacayá	5	Chacayá	8	Agosto	2023-08-17T00:00:00	2024-11-06T23:00:00	4	Temperatura máxima	14.9
114035	7	Sololá	702	San José Chacayá	5	Chacayá	8	Agosto	2023-08-17T00:00:00	2024-11-06T23:00:00	3	Temperatura mínima	14.4
114036	7	Sololá	702	San José Chacayá	5	Chacayá	8	Agosto	2023-08-17T00:00:00	2024-11-06T23:00:00	5	Humedad	84
114037	7	Sololá	702	San José Chacayá	5	Chacayá	8	Agosto	2023-08-17T00:00:00	2024-11-06T23:00:00	6	Velocidad del viento	1.6
114038	7	Sololá	702	San José Chacayá	5	Chacayá	8	Agosto	2023-08-17T00:00:00	2024-11-06T23:00:00	7	Dirección del viento	1.61
114039	7	Sololá	702	San José Chacayá	5	Chacayá	8	Agosto	2023-08-17T00:00:00	2024-11-06T23:00:00	1	Precipitación	0
114040	7	Sololá	702	San José Chacayá	5	Chacayá	8	Agosto	2023-08-17T00:00:00	2024-11-06T23:00:00	8	Radiación solar	0
114041	7	Sololá	702	San José Chacayá	5	Chacayá	8	Agosto	2023-08-18T00:00:00	2024-11-06T00:00:00	2	Temperatura media	13.4
114042	7	Sololá	702	San José Chacayá	5	Chacayá	8	Agosto	2023-08-18T00:00:00	2024-11-06T00:00:00	4	Temperatura máxima	14.9
114043	7	Sololá	702	San José Chacayá	5	Chacayá	8	Agosto	2023-08-18T00:00:00	2024-11-06T00:00:00	3	Temperatura mínima	13.4
114044	7	Sololá	702	San José Chacayá	5	Chacayá	8	Agosto	2023-08-18T00:00:00	2024-11-06T00:00:00	5	Humedad	87
114045	7	Sololá	702	San José Chacayá	5	Chacayá	8	Agosto	2023-08-18T00:00:00	2024-11-06T00:00:00	6	Velocidad del viento	1.6
114046	7	Sololá	702	San José Chacayá	5	Chacayá	8	Agosto	2023-08-18T00:00:00	2024-11-06T00:00:00	7	Dirección del viento	1.61
114047	7	Sololá	702	San José Chacayá	5	Chacayá	8	Agosto	2023-08-18T00:00:00	2024-11-06T00:00:00	1	Precipitación	0
114048	7	Sololá	702	San José Chacayá	5	Chacayá	8	Agosto	2023-08-18T00:00:00	2024-11-06T00:00:00	8	Radiación solar	0
114049	7	Sololá	702	San José Chacayá	5	Chacayá	8	Agosto	2023-08-18T00:00:00	2024-11-06T01:00:00	2	Temperatura media	12.1
114050	7	Sololá	702	San José Chacayá	5	Chacayá	8	Agosto	2023-08-18T00:00:00	2024-11-06T01:00:00	4	Temperatura máxima	13.4
114051	7	Sololá	702	San José Chacayá	5	Chacayá	8	Agosto	2023-08-18T00:00:00	2024-11-06T01:00:00	3	Temperatura mínima	12.1
114052	7	Sololá	702	San José Chacayá	5	Chacayá	8	Agosto	2023-08-18T00:00:00	2024-11-06T01:00:00	5	Humedad	90
114053	7	Sololá	702	San José Chacayá	5	Chacayá	8	Agosto	2023-08-18T00:00:00	2024-11-06T01:00:00	6	Velocidad del viento	1.6
114054	7	Sololá	702	San José Chacayá	5	Chacayá	8	Agosto	2023-08-18T00:00:00	2024-11-06T01:00:00	7	Dirección del viento	1.61
114055	7	Sololá	702	San José Chacayá	5	Chacayá	8	Agosto	2023-08-18T00:00:00	2024-11-06T01:00:00	1	Precipitación	0
114056	7	Sololá	702	San José Chacayá	5	Chacayá	8	Agosto	2023-08-18T00:00:00	2024-11-06T01:00:00	8	Radiación solar	0
114057	7	Sololá	702	San José Chacayá	5	Chacayá	8	Agosto	2023-08-18T00:00:00	2024-11-06T02:00:00	2	Temperatura media	12.6
114058	7	Sololá	702	San José Chacayá	5	Chacayá	8	Agosto	2023-08-18T00:00:00	2024-11-06T02:00:00	4	Temperatura máxima	12.6
114059	7	Sololá	702	San José Chacayá	5	Chacayá	8	Agosto	2023-08-18T00:00:00	2024-11-06T02:00:00	3	Temperatura mínima	12
114060	7	Sololá	702	San José Chacayá	5	Chacayá	8	Agosto	2023-08-18T00:00:00	2024-11-06T02:00:00	5	Humedad	90
114061	7	Sololá	702	San José Chacayá	5	Chacayá	8	Agosto	2023-08-18T00:00:00	2024-11-06T02:00:00	6	Velocidad del viento	0
114062	7	Sololá	702	San José Chacayá	5	Chacayá	8	Agosto	2023-08-18T00:00:00	2024-11-06T02:00:00	7	Dirección del viento	0
114063	7	Sololá	702	San José Chacayá	5	Chacayá	8	Agosto	2023-08-18T00:00:00	2024-11-06T02:00:00	1	Precipitación	0
114064	7	Sololá	702	San José Chacayá	5	Chacayá	8	Agosto	2023-08-18T00:00:00	2024-11-06T02:00:00	8	Radiación solar	0
114065	7	Sololá	702	San José Chacayá	5	Chacayá	8	Agosto	2023-08-18T00:00:00	2024-11-06T03:00:00	2	Temperatura media	13.1
114066	7	Sololá	702	San José Chacayá	5	Chacayá	8	Agosto	2023-08-18T00:00:00	2024-11-06T03:00:00	4	Temperatura máxima	13.1
114067	7	Sololá	702	San José Chacayá	5	Chacayá	8	Agosto	2023-08-18T00:00:00	2024-11-06T03:00:00	3	Temperatura mínima	12.6
114068	7	Sololá	702	San José Chacayá	5	Chacayá	8	Agosto	2023-08-18T00:00:00	2024-11-06T03:00:00	5	Humedad	90
114069	7	Sololá	702	San José Chacayá	5	Chacayá	8	Agosto	2023-08-18T00:00:00	2024-11-06T03:00:00	6	Velocidad del viento	0
114070	7	Sololá	702	San José Chacayá	5	Chacayá	8	Agosto	2023-08-18T00:00:00	2024-11-06T03:00:00	7	Dirección del viento	0
114071	7	Sololá	702	San José Chacayá	5	Chacayá	8	Agosto	2023-08-18T00:00:00	2024-11-06T03:00:00	1	Precipitación	0
114072	7	Sololá	702	San José Chacayá	5	Chacayá	8	Agosto	2023-08-18T00:00:00	2024-11-06T03:00:00	8	Radiación solar	0
114073	7	Sololá	702	San José Chacayá	5	Chacayá	8	Agosto	2023-08-18T00:00:00	2024-11-06T04:00:00	2	Temperatura media	13.7
114074	7	Sololá	702	San José Chacayá	5	Chacayá	8	Agosto	2023-08-18T00:00:00	2024-11-06T04:00:00	4	Temperatura máxima	13.7
114075	7	Sololá	702	San José Chacayá	5	Chacayá	8	Agosto	2023-08-18T00:00:00	2024-11-06T04:00:00	3	Temperatura mínima	13.1
114076	7	Sololá	702	San José Chacayá	5	Chacayá	8	Agosto	2023-08-18T00:00:00	2024-11-06T04:00:00	5	Humedad	91
114077	7	Sololá	702	San José Chacayá	5	Chacayá	8	Agosto	2023-08-18T00:00:00	2024-11-06T04:00:00	6	Velocidad del viento	0
114078	7	Sololá	702	San José Chacayá	5	Chacayá	8	Agosto	2023-08-18T00:00:00	2024-11-06T04:00:00	7	Dirección del viento	0
114079	7	Sololá	702	San José Chacayá	5	Chacayá	8	Agosto	2023-08-18T00:00:00	2024-11-06T04:00:00	1	Precipitación	0
114080	7	Sololá	702	San José Chacayá	5	Chacayá	8	Agosto	2023-08-18T00:00:00	2024-11-06T04:00:00	8	Radiación solar	0
114081	7	Sololá	702	San José Chacayá	5	Chacayá	8	Agosto	2023-08-18T00:00:00	2024-11-06T05:00:00	2	Temperatura media	13.4
114082	7	Sololá	702	San José Chacayá	5	Chacayá	8	Agosto	2023-08-18T00:00:00	2024-11-06T05:00:00	4	Temperatura máxima	13.7
114083	7	Sololá	702	San José Chacayá	5	Chacayá	8	Agosto	2023-08-18T00:00:00	2024-11-06T05:00:00	3	Temperatura mínima	13.4
114084	7	Sololá	702	San José Chacayá	5	Chacayá	8	Agosto	2023-08-18T00:00:00	2024-11-06T05:00:00	5	Humedad	92
114085	7	Sololá	702	San José Chacayá	5	Chacayá	8	Agosto	2023-08-18T00:00:00	2024-11-06T05:00:00	6	Velocidad del viento	0
114086	7	Sololá	702	San José Chacayá	5	Chacayá	8	Agosto	2023-08-18T00:00:00	2024-11-06T05:00:00	7	Dirección del viento	0
114087	7	Sololá	702	San José Chacayá	5	Chacayá	8	Agosto	2023-08-18T00:00:00	2024-11-06T05:00:00	1	Precipitación	0
114088	7	Sololá	702	San José Chacayá	5	Chacayá	8	Agosto	2023-08-18T00:00:00	2024-11-06T05:00:00	8	Radiación solar	0
114089	7	Sololá	702	San José Chacayá	5	Chacayá	8	Agosto	2023-08-18T00:00:00	2024-11-06T06:00:00	2	Temperatura media	12.6
114090	7	Sololá	702	San José Chacayá	5	Chacayá	8	Agosto	2023-08-18T00:00:00	2024-11-06T06:00:00	4	Temperatura máxima	13.5
114091	7	Sololá	702	San José Chacayá	5	Chacayá	8	Agosto	2023-08-18T00:00:00	2024-11-06T06:00:00	3	Temperatura mínima	12.6
114092	7	Sololá	702	San José Chacayá	5	Chacayá	8	Agosto	2023-08-18T00:00:00	2024-11-06T06:00:00	5	Humedad	92
114093	7	Sololá	702	San José Chacayá	5	Chacayá	8	Agosto	2023-08-18T00:00:00	2024-11-06T06:00:00	6	Velocidad del viento	0
114094	7	Sololá	702	San José Chacayá	5	Chacayá	8	Agosto	2023-08-18T00:00:00	2024-11-06T06:00:00	7	Dirección del viento	0
114095	7	Sololá	702	San José Chacayá	5	Chacayá	8	Agosto	2023-08-18T00:00:00	2024-11-06T06:00:00	1	Precipitación	0
114096	7	Sololá	702	San José Chacayá	5	Chacayá	8	Agosto	2023-08-18T00:00:00	2024-11-06T06:00:00	8	Radiación solar	2
114097	7	Sololá	702	San José Chacayá	5	Chacayá	8	Agosto	2023-08-18T00:00:00	2024-11-06T07:00:00	2	Temperatura media	12.9
114098	7	Sololá	702	San José Chacayá	5	Chacayá	8	Agosto	2023-08-18T00:00:00	2024-11-06T07:00:00	4	Temperatura máxima	12.9
114099	7	Sololá	702	San José Chacayá	5	Chacayá	8	Agosto	2023-08-18T00:00:00	2024-11-06T07:00:00	3	Temperatura mínima	12.3
114100	7	Sololá	702	San José Chacayá	5	Chacayá	8	Agosto	2023-08-18T00:00:00	2024-11-06T07:00:00	5	Humedad	94
114101	7	Sololá	702	San José Chacayá	5	Chacayá	8	Agosto	2023-08-18T00:00:00	2024-11-06T07:00:00	6	Velocidad del viento	0
114102	7	Sololá	702	San José Chacayá	5	Chacayá	8	Agosto	2023-08-18T00:00:00	2024-11-06T07:00:00	7	Dirección del viento	0
114103	7	Sololá	702	San José Chacayá	5	Chacayá	8	Agosto	2023-08-18T00:00:00	2024-11-06T07:00:00	1	Precipitación	0
114104	7	Sololá	702	San José Chacayá	5	Chacayá	8	Agosto	2023-08-18T00:00:00	2024-11-06T07:00:00	8	Radiación solar	60
114105	7	Sololá	702	San José Chacayá	5	Chacayá	8	Agosto	2023-08-18T00:00:00	2024-11-06T08:00:00	2	Temperatura media	16.5
114106	7	Sololá	702	San José Chacayá	5	Chacayá	8	Agosto	2023-08-18T00:00:00	2024-11-06T08:00:00	4	Temperatura máxima	16.5
114107	7	Sololá	702	San José Chacayá	5	Chacayá	8	Agosto	2023-08-18T00:00:00	2024-11-06T08:00:00	3	Temperatura mínima	12.9
114108	7	Sololá	702	San José Chacayá	5	Chacayá	8	Agosto	2023-08-18T00:00:00	2024-11-06T08:00:00	5	Humedad	80
114109	7	Sololá	702	San José Chacayá	5	Chacayá	8	Agosto	2023-08-18T00:00:00	2024-11-06T08:00:00	6	Velocidad del viento	3.2
114110	7	Sololá	702	San José Chacayá	5	Chacayá	8	Agosto	2023-08-18T00:00:00	2024-11-06T08:00:00	7	Dirección del viento	3.22
114111	7	Sololá	702	San José Chacayá	5	Chacayá	8	Agosto	2023-08-18T00:00:00	2024-11-06T08:00:00	1	Precipitación	0
114112	7	Sololá	702	San José Chacayá	5	Chacayá	8	Agosto	2023-08-18T00:00:00	2024-11-06T08:00:00	8	Radiación solar	121
114113	7	Sololá	702	San José Chacayá	5	Chacayá	8	Agosto	2023-08-18T00:00:00	2024-11-06T09:00:00	2	Temperatura media	18.2
114114	7	Sololá	702	San José Chacayá	5	Chacayá	8	Agosto	2023-08-18T00:00:00	2024-11-06T09:00:00	4	Temperatura máxima	18.7
114115	7	Sololá	702	San José Chacayá	5	Chacayá	8	Agosto	2023-08-18T00:00:00	2024-11-06T09:00:00	3	Temperatura mínima	16.5
114116	7	Sololá	702	San José Chacayá	5	Chacayá	8	Agosto	2023-08-18T00:00:00	2024-11-06T09:00:00	5	Humedad	71
114117	7	Sololá	702	San José Chacayá	5	Chacayá	8	Agosto	2023-08-18T00:00:00	2024-11-06T09:00:00	6	Velocidad del viento	4.8
114118	7	Sololá	702	San José Chacayá	5	Chacayá	8	Agosto	2023-08-18T00:00:00	2024-11-06T09:00:00	7	Dirección del viento	4.83
114119	7	Sololá	702	San José Chacayá	5	Chacayá	8	Agosto	2023-08-18T00:00:00	2024-11-06T09:00:00	1	Precipitación	0.2
114120	7	Sololá	702	San José Chacayá	5	Chacayá	8	Agosto	2023-08-18T00:00:00	2024-11-06T09:00:00	8	Radiación solar	332
114121	7	Sololá	702	San José Chacayá	5	Chacayá	8	Agosto	2023-08-18T00:00:00	2024-11-06T10:00:00	2	Temperatura media	20.8
114122	7	Sololá	702	San José Chacayá	5	Chacayá	8	Agosto	2023-08-18T00:00:00	2024-11-06T10:00:00	4	Temperatura máxima	21.4
114123	7	Sololá	702	San José Chacayá	5	Chacayá	8	Agosto	2023-08-18T00:00:00	2024-11-06T10:00:00	3	Temperatura mínima	18.1
114124	7	Sololá	702	San José Chacayá	5	Chacayá	8	Agosto	2023-08-18T00:00:00	2024-11-06T10:00:00	5	Humedad	66
114125	7	Sololá	702	San José Chacayá	5	Chacayá	8	Agosto	2023-08-18T00:00:00	2024-11-06T10:00:00	6	Velocidad del viento	4.8
114126	7	Sololá	702	San José Chacayá	5	Chacayá	8	Agosto	2023-08-18T00:00:00	2024-11-06T10:00:00	7	Dirección del viento	4.83
114127	7	Sololá	702	San José Chacayá	5	Chacayá	8	Agosto	2023-08-18T00:00:00	2024-11-06T10:00:00	1	Precipitación	0
114128	7	Sololá	702	San José Chacayá	5	Chacayá	8	Agosto	2023-08-18T00:00:00	2024-11-06T10:00:00	8	Radiación solar	763
114129	7	Sololá	702	San José Chacayá	5	Chacayá	8	Agosto	2023-08-18T00:00:00	2024-11-06T11:00:00	2	Temperatura media	21.2
114130	7	Sololá	702	San José Chacayá	5	Chacayá	8	Agosto	2023-08-18T00:00:00	2024-11-06T11:00:00	4	Temperatura máxima	23.2
114131	7	Sololá	702	San José Chacayá	5	Chacayá	8	Agosto	2023-08-18T00:00:00	2024-11-06T11:00:00	3	Temperatura mínima	20.8
114132	7	Sololá	702	San José Chacayá	5	Chacayá	8	Agosto	2023-08-18T00:00:00	2024-11-06T11:00:00	5	Humedad	63
114133	7	Sololá	702	San José Chacayá	5	Chacayá	8	Agosto	2023-08-18T00:00:00	2024-11-06T11:00:00	6	Velocidad del viento	4.8
114134	7	Sololá	702	San José Chacayá	5	Chacayá	8	Agosto	2023-08-18T00:00:00	2024-11-06T11:00:00	7	Dirección del viento	4.83
114135	7	Sololá	702	San José Chacayá	5	Chacayá	8	Agosto	2023-08-18T00:00:00	2024-11-06T11:00:00	1	Precipitación	0
114136	7	Sololá	702	San José Chacayá	5	Chacayá	8	Agosto	2023-08-18T00:00:00	2024-11-06T11:00:00	8	Radiación solar	940
114137	7	Sololá	702	San José Chacayá	5	Chacayá	8	Agosto	2023-08-18T00:00:00	2024-11-06T12:00:00	2	Temperatura media	21.8
114138	7	Sololá	702	San José Chacayá	5	Chacayá	8	Agosto	2023-08-18T00:00:00	2024-11-06T12:00:00	4	Temperatura máxima	22.8
114139	7	Sololá	702	San José Chacayá	5	Chacayá	8	Agosto	2023-08-18T00:00:00	2024-11-06T12:00:00	3	Temperatura mínima	21.1
114140	7	Sololá	702	San José Chacayá	5	Chacayá	8	Agosto	2023-08-18T00:00:00	2024-11-06T12:00:00	5	Humedad	62
114141	7	Sololá	702	San José Chacayá	5	Chacayá	8	Agosto	2023-08-18T00:00:00	2024-11-06T12:00:00	6	Velocidad del viento	4.8
114142	7	Sololá	702	San José Chacayá	5	Chacayá	8	Agosto	2023-08-18T00:00:00	2024-11-06T12:00:00	7	Dirección del viento	4.83
114143	7	Sololá	702	San José Chacayá	5	Chacayá	8	Agosto	2023-08-18T00:00:00	2024-11-06T12:00:00	1	Precipitación	0
114144	7	Sololá	702	San José Chacayá	5	Chacayá	8	Agosto	2023-08-18T00:00:00	2024-11-06T12:00:00	8	Radiación solar	717
114145	7	Sololá	702	San José Chacayá	5	Chacayá	8	Agosto	2023-08-18T00:00:00	2024-11-06T13:00:00	2	Temperatura media	21.3
114146	7	Sololá	702	San José Chacayá	5	Chacayá	8	Agosto	2023-08-18T00:00:00	2024-11-06T13:00:00	4	Temperatura máxima	22.1
114147	7	Sololá	702	San José Chacayá	5	Chacayá	8	Agosto	2023-08-18T00:00:00	2024-11-06T13:00:00	3	Temperatura mínima	20.6
114148	7	Sololá	702	San José Chacayá	5	Chacayá	8	Agosto	2023-08-18T00:00:00	2024-11-06T13:00:00	5	Humedad	60
114149	7	Sololá	702	San José Chacayá	5	Chacayá	8	Agosto	2023-08-18T00:00:00	2024-11-06T13:00:00	6	Velocidad del viento	4.8
114150	7	Sololá	702	San José Chacayá	5	Chacayá	8	Agosto	2023-08-18T00:00:00	2024-11-06T13:00:00	7	Dirección del viento	4.83
114151	7	Sololá	702	San José Chacayá	5	Chacayá	8	Agosto	2023-08-18T00:00:00	2024-11-06T13:00:00	1	Precipitación	0
114152	7	Sololá	702	San José Chacayá	5	Chacayá	8	Agosto	2023-08-18T00:00:00	2024-11-06T13:00:00	8	Radiación solar	876
114153	7	Sololá	702	San José Chacayá	5	Chacayá	8	Agosto	2023-08-18T00:00:00	2024-11-06T14:00:00	2	Temperatura media	22.2
114154	7	Sololá	702	San José Chacayá	5	Chacayá	8	Agosto	2023-08-18T00:00:00	2024-11-06T14:00:00	4	Temperatura máxima	23.7
114155	7	Sololá	702	San José Chacayá	5	Chacayá	8	Agosto	2023-08-18T00:00:00	2024-11-06T14:00:00	3	Temperatura mínima	21.3
114156	7	Sololá	702	San José Chacayá	5	Chacayá	8	Agosto	2023-08-18T00:00:00	2024-11-06T14:00:00	5	Humedad	61
114157	7	Sololá	702	San José Chacayá	5	Chacayá	8	Agosto	2023-08-18T00:00:00	2024-11-06T14:00:00	6	Velocidad del viento	4.8
114158	7	Sololá	702	San José Chacayá	5	Chacayá	8	Agosto	2023-08-18T00:00:00	2024-11-06T14:00:00	7	Dirección del viento	4.83
114159	7	Sololá	702	San José Chacayá	5	Chacayá	8	Agosto	2023-08-18T00:00:00	2024-11-06T14:00:00	1	Precipitación	0
114160	7	Sololá	702	San José Chacayá	5	Chacayá	8	Agosto	2023-08-18T00:00:00	2024-11-06T14:00:00	8	Radiación solar	773
114161	7	Sololá	702	San José Chacayá	5	Chacayá	8	Agosto	2023-08-18T00:00:00	2024-11-06T15:00:00	2	Temperatura media	22.3
114162	7	Sololá	702	San José Chacayá	5	Chacayá	8	Agosto	2023-08-18T00:00:00	2024-11-06T15:00:00	4	Temperatura máxima	22.3
114163	7	Sololá	702	San José Chacayá	5	Chacayá	8	Agosto	2023-08-18T00:00:00	2024-11-06T15:00:00	3	Temperatura mínima	20.2
114164	7	Sololá	702	San José Chacayá	5	Chacayá	8	Agosto	2023-08-18T00:00:00	2024-11-06T15:00:00	5	Humedad	61
114165	7	Sololá	702	San José Chacayá	5	Chacayá	8	Agosto	2023-08-18T00:00:00	2024-11-06T15:00:00	6	Velocidad del viento	4.8
114166	7	Sololá	702	San José Chacayá	5	Chacayá	8	Agosto	2023-08-18T00:00:00	2024-11-06T15:00:00	7	Dirección del viento	4.83
114167	7	Sololá	702	San José Chacayá	5	Chacayá	8	Agosto	2023-08-18T00:00:00	2024-11-06T15:00:00	1	Precipitación	0
114168	7	Sololá	702	San José Chacayá	5	Chacayá	8	Agosto	2023-08-18T00:00:00	2024-11-06T15:00:00	8	Radiación solar	690
114169	7	Sololá	702	San José Chacayá	5	Chacayá	8	Agosto	2023-08-18T00:00:00	2024-11-06T16:00:00	2	Temperatura media	22.3
114170	7	Sololá	702	San José Chacayá	5	Chacayá	8	Agosto	2023-08-18T00:00:00	2024-11-06T16:00:00	4	Temperatura máxima	22.8
114171	7	Sololá	702	San José Chacayá	5	Chacayá	8	Agosto	2023-08-18T00:00:00	2024-11-06T16:00:00	3	Temperatura mínima	21.6
114172	7	Sololá	702	San José Chacayá	5	Chacayá	8	Agosto	2023-08-18T00:00:00	2024-11-06T16:00:00	5	Humedad	62
114173	7	Sololá	702	San José Chacayá	5	Chacayá	8	Agosto	2023-08-18T00:00:00	2024-11-06T16:00:00	6	Velocidad del viento	4.8
114174	7	Sololá	702	San José Chacayá	5	Chacayá	8	Agosto	2023-08-18T00:00:00	2024-11-06T16:00:00	7	Dirección del viento	4.83
114175	7	Sololá	702	San José Chacayá	5	Chacayá	8	Agosto	2023-08-18T00:00:00	2024-11-06T16:00:00	1	Precipitación	0
114176	7	Sololá	702	San José Chacayá	5	Chacayá	8	Agosto	2023-08-18T00:00:00	2024-11-06T16:00:00	8	Radiación solar	234
114177	7	Sololá	702	San José Chacayá	5	Chacayá	8	Agosto	2023-08-18T00:00:00	2024-11-06T17:00:00	2	Temperatura media	20.3
114178	7	Sololá	702	San José Chacayá	5	Chacayá	8	Agosto	2023-08-18T00:00:00	2024-11-06T17:00:00	4	Temperatura máxima	22.3
114179	7	Sololá	702	San José Chacayá	5	Chacayá	8	Agosto	2023-08-18T00:00:00	2024-11-06T17:00:00	3	Temperatura mínima	20.3
114180	7	Sololá	702	San José Chacayá	5	Chacayá	8	Agosto	2023-08-18T00:00:00	2024-11-06T17:00:00	5	Humedad	57
114181	7	Sololá	702	San José Chacayá	5	Chacayá	8	Agosto	2023-08-18T00:00:00	2024-11-06T17:00:00	6	Velocidad del viento	3.2
114182	7	Sololá	702	San José Chacayá	5	Chacayá	8	Agosto	2023-08-18T00:00:00	2024-11-06T17:00:00	7	Dirección del viento	3.22
114183	7	Sololá	702	San José Chacayá	5	Chacayá	8	Agosto	2023-08-18T00:00:00	2024-11-06T17:00:00	1	Precipitación	0
114184	7	Sololá	702	San José Chacayá	5	Chacayá	8	Agosto	2023-08-18T00:00:00	2024-11-06T17:00:00	8	Radiación solar	65
114185	7	Sololá	702	San José Chacayá	5	Chacayá	8	Agosto	2023-08-18T00:00:00	2024-11-06T18:00:00	2	Temperatura media	18.3
114186	7	Sololá	702	San José Chacayá	5	Chacayá	8	Agosto	2023-08-18T00:00:00	2024-11-06T18:00:00	4	Temperatura máxima	20.3
114187	7	Sololá	702	San José Chacayá	5	Chacayá	8	Agosto	2023-08-18T00:00:00	2024-11-06T18:00:00	3	Temperatura mínima	18.3
114188	7	Sololá	702	San José Chacayá	5	Chacayá	8	Agosto	2023-08-18T00:00:00	2024-11-06T18:00:00	5	Humedad	70
114189	7	Sololá	702	San José Chacayá	5	Chacayá	8	Agosto	2023-08-18T00:00:00	2024-11-06T18:00:00	6	Velocidad del viento	1.6
114190	7	Sololá	702	San José Chacayá	5	Chacayá	8	Agosto	2023-08-18T00:00:00	2024-11-06T18:00:00	7	Dirección del viento	1.61
114191	7	Sololá	702	San José Chacayá	5	Chacayá	8	Agosto	2023-08-18T00:00:00	2024-11-06T18:00:00	1	Precipitación	0
114192	7	Sololá	702	San José Chacayá	5	Chacayá	8	Agosto	2023-08-18T00:00:00	2024-11-06T18:00:00	8	Radiación solar	63
114193	7	Sololá	702	San José Chacayá	5	Chacayá	8	Agosto	2023-08-18T00:00:00	2024-11-06T19:00:00	2	Temperatura media	17.3
114194	7	Sololá	702	San José Chacayá	5	Chacayá	8	Agosto	2023-08-18T00:00:00	2024-11-06T19:00:00	4	Temperatura máxima	18.3
114195	7	Sololá	702	San José Chacayá	5	Chacayá	8	Agosto	2023-08-18T00:00:00	2024-11-06T19:00:00	3	Temperatura mínima	17.3
114196	7	Sololá	702	San José Chacayá	5	Chacayá	8	Agosto	2023-08-18T00:00:00	2024-11-06T19:00:00	5	Humedad	74
114197	7	Sololá	702	San José Chacayá	5	Chacayá	8	Agosto	2023-08-18T00:00:00	2024-11-06T19:00:00	6	Velocidad del viento	1.6
114198	7	Sololá	702	San José Chacayá	5	Chacayá	8	Agosto	2023-08-18T00:00:00	2024-11-06T19:00:00	7	Dirección del viento	1.61
114199	7	Sololá	702	San José Chacayá	5	Chacayá	8	Agosto	2023-08-18T00:00:00	2024-11-06T19:00:00	1	Precipitación	0
114200	7	Sololá	702	San José Chacayá	5	Chacayá	8	Agosto	2023-08-18T00:00:00	2024-11-06T19:00:00	8	Radiación solar	0
114201	7	Sololá	702	San José Chacayá	5	Chacayá	8	Agosto	2023-08-18T00:00:00	2024-11-06T20:00:00	2	Temperatura media	16
114202	7	Sololá	702	San José Chacayá	5	Chacayá	8	Agosto	2023-08-18T00:00:00	2024-11-06T20:00:00	4	Temperatura máxima	17.3
114203	7	Sololá	702	San José Chacayá	5	Chacayá	8	Agosto	2023-08-18T00:00:00	2024-11-06T20:00:00	3	Temperatura mínima	16
114204	7	Sololá	702	San José Chacayá	5	Chacayá	8	Agosto	2023-08-18T00:00:00	2024-11-06T20:00:00	5	Humedad	79
114205	7	Sololá	702	San José Chacayá	5	Chacayá	8	Agosto	2023-08-18T00:00:00	2024-11-06T20:00:00	6	Velocidad del viento	3.2
114206	7	Sololá	702	San José Chacayá	5	Chacayá	8	Agosto	2023-08-18T00:00:00	2024-11-06T20:00:00	7	Dirección del viento	3.22
114207	7	Sololá	702	San José Chacayá	5	Chacayá	8	Agosto	2023-08-18T00:00:00	2024-11-06T20:00:00	1	Precipitación	0
114208	7	Sololá	702	San José Chacayá	5	Chacayá	8	Agosto	2023-08-18T00:00:00	2024-11-06T20:00:00	8	Radiación solar	0
114209	7	Sololá	702	San José Chacayá	5	Chacayá	8	Agosto	2023-08-18T00:00:00	2024-11-06T21:00:00	2	Temperatura media	15.4
114210	7	Sololá	702	San José Chacayá	5	Chacayá	8	Agosto	2023-08-18T00:00:00	2024-11-06T21:00:00	4	Temperatura máxima	16.2
114211	7	Sololá	702	San José Chacayá	5	Chacayá	8	Agosto	2023-08-18T00:00:00	2024-11-06T21:00:00	3	Temperatura mínima	15.4
114212	7	Sololá	702	San José Chacayá	5	Chacayá	8	Agosto	2023-08-18T00:00:00	2024-11-06T21:00:00	5	Humedad	79
114213	7	Sololá	702	San José Chacayá	5	Chacayá	8	Agosto	2023-08-18T00:00:00	2024-11-06T21:00:00	6	Velocidad del viento	1.6
114214	7	Sololá	702	San José Chacayá	5	Chacayá	8	Agosto	2023-08-18T00:00:00	2024-11-06T21:00:00	7	Dirección del viento	1.61
114215	7	Sololá	702	San José Chacayá	5	Chacayá	8	Agosto	2023-08-18T00:00:00	2024-11-06T21:00:00	1	Precipitación	0
114216	7	Sololá	702	San José Chacayá	5	Chacayá	8	Agosto	2023-08-18T00:00:00	2024-11-06T21:00:00	8	Radiación solar	0
114217	7	Sololá	702	San José Chacayá	5	Chacayá	8	Agosto	2023-08-18T00:00:00	2024-11-06T22:00:00	2	Temperatura media	14.1
114218	7	Sololá	702	San José Chacayá	5	Chacayá	8	Agosto	2023-08-18T00:00:00	2024-11-06T22:00:00	4	Temperatura máxima	15.5
114219	7	Sololá	702	San José Chacayá	5	Chacayá	8	Agosto	2023-08-18T00:00:00	2024-11-06T22:00:00	3	Temperatura mínima	14
114220	7	Sololá	702	San José Chacayá	5	Chacayá	8	Agosto	2023-08-18T00:00:00	2024-11-06T22:00:00	5	Humedad	81
114221	7	Sololá	702	San José Chacayá	5	Chacayá	8	Agosto	2023-08-18T00:00:00	2024-11-06T22:00:00	6	Velocidad del viento	1.6
114222	7	Sololá	702	San José Chacayá	5	Chacayá	8	Agosto	2023-08-18T00:00:00	2024-11-06T22:00:00	7	Dirección del viento	1.61
114223	7	Sololá	702	San José Chacayá	5	Chacayá	8	Agosto	2023-08-18T00:00:00	2024-11-06T22:00:00	1	Precipitación	0
114224	7	Sololá	702	San José Chacayá	5	Chacayá	8	Agosto	2023-08-18T00:00:00	2024-11-06T22:00:00	8	Radiación solar	0
114225	7	Sololá	702	San José Chacayá	5	Chacayá	8	Agosto	2023-08-18T00:00:00	2024-11-06T23:00:00	2	Temperatura media	13.2
114226	7	Sololá	702	San José Chacayá	5	Chacayá	8	Agosto	2023-08-18T00:00:00	2024-11-06T23:00:00	4	Temperatura máxima	14.8
114227	7	Sololá	702	San José Chacayá	5	Chacayá	8	Agosto	2023-08-18T00:00:00	2024-11-06T23:00:00	3	Temperatura mínima	13.2
114228	7	Sololá	702	San José Chacayá	5	Chacayá	8	Agosto	2023-08-18T00:00:00	2024-11-06T23:00:00	5	Humedad	83
114229	7	Sololá	702	San José Chacayá	5	Chacayá	8	Agosto	2023-08-18T00:00:00	2024-11-06T23:00:00	6	Velocidad del viento	1.6
114230	7	Sololá	702	San José Chacayá	5	Chacayá	8	Agosto	2023-08-18T00:00:00	2024-11-06T23:00:00	7	Dirección del viento	1.61
114231	7	Sololá	702	San José Chacayá	5	Chacayá	8	Agosto	2023-08-18T00:00:00	2024-11-06T23:00:00	1	Precipitación	0
114232	7	Sololá	702	San José Chacayá	5	Chacayá	8	Agosto	2023-08-18T00:00:00	2024-11-06T23:00:00	8	Radiación solar	0
114233	7	Sololá	702	San José Chacayá	5	Chacayá	8	Agosto	2023-08-19T00:00:00	2024-11-06T00:00:00	2	Temperatura media	14.5
114234	7	Sololá	702	San José Chacayá	5	Chacayá	8	Agosto	2023-08-19T00:00:00	2024-11-06T00:00:00	4	Temperatura máxima	14.6
114235	7	Sololá	702	San José Chacayá	5	Chacayá	8	Agosto	2023-08-19T00:00:00	2024-11-06T00:00:00	3	Temperatura mínima	13
114236	7	Sololá	702	San José Chacayá	5	Chacayá	8	Agosto	2023-08-19T00:00:00	2024-11-06T00:00:00	5	Humedad	75
114237	7	Sololá	702	San José Chacayá	5	Chacayá	8	Agosto	2023-08-19T00:00:00	2024-11-06T00:00:00	6	Velocidad del viento	3.2
114238	7	Sololá	702	San José Chacayá	5	Chacayá	8	Agosto	2023-08-19T00:00:00	2024-11-06T00:00:00	7	Dirección del viento	3.22
114239	7	Sololá	702	San José Chacayá	5	Chacayá	8	Agosto	2023-08-19T00:00:00	2024-11-06T00:00:00	1	Precipitación	0
114240	7	Sololá	702	San José Chacayá	5	Chacayá	8	Agosto	2023-08-19T00:00:00	2024-11-06T00:00:00	8	Radiación solar	0
114241	7	Sololá	702	San José Chacayá	5	Chacayá	8	Agosto	2023-08-19T00:00:00	2024-11-06T01:00:00	2	Temperatura media	14.2
114242	7	Sololá	702	San José Chacayá	5	Chacayá	8	Agosto	2023-08-19T00:00:00	2024-11-06T01:00:00	4	Temperatura máxima	14.6
114243	7	Sololá	702	San José Chacayá	5	Chacayá	8	Agosto	2023-08-19T00:00:00	2024-11-06T01:00:00	3	Temperatura mínima	14.2
114244	7	Sololá	702	San José Chacayá	5	Chacayá	8	Agosto	2023-08-19T00:00:00	2024-11-06T01:00:00	5	Humedad	74
114245	7	Sololá	702	San José Chacayá	5	Chacayá	8	Agosto	2023-08-19T00:00:00	2024-11-06T01:00:00	6	Velocidad del viento	3.2
114246	7	Sololá	702	San José Chacayá	5	Chacayá	8	Agosto	2023-08-19T00:00:00	2024-11-06T01:00:00	7	Dirección del viento	3.22
114247	7	Sololá	702	San José Chacayá	5	Chacayá	8	Agosto	2023-08-19T00:00:00	2024-11-06T01:00:00	1	Precipitación	0
114248	7	Sololá	702	San José Chacayá	5	Chacayá	8	Agosto	2023-08-19T00:00:00	2024-11-06T01:00:00	8	Radiación solar	0
114249	7	Sololá	702	San José Chacayá	5	Chacayá	8	Agosto	2023-08-19T00:00:00	2024-11-06T02:00:00	2	Temperatura media	13.3
114250	7	Sololá	702	San José Chacayá	5	Chacayá	8	Agosto	2023-08-19T00:00:00	2024-11-06T02:00:00	4	Temperatura máxima	14.2
114251	7	Sololá	702	San José Chacayá	5	Chacayá	8	Agosto	2023-08-19T00:00:00	2024-11-06T02:00:00	3	Temperatura mínima	13.3
114252	7	Sololá	702	San José Chacayá	5	Chacayá	8	Agosto	2023-08-19T00:00:00	2024-11-06T02:00:00	5	Humedad	77
114253	7	Sololá	702	San José Chacayá	5	Chacayá	8	Agosto	2023-08-19T00:00:00	2024-11-06T02:00:00	6	Velocidad del viento	3.2
114254	7	Sololá	702	San José Chacayá	5	Chacayá	8	Agosto	2023-08-19T00:00:00	2024-11-06T02:00:00	7	Dirección del viento	3.22
114255	7	Sololá	702	San José Chacayá	5	Chacayá	8	Agosto	2023-08-19T00:00:00	2024-11-06T02:00:00	1	Precipitación	0
114256	7	Sololá	702	San José Chacayá	5	Chacayá	8	Agosto	2023-08-19T00:00:00	2024-11-06T02:00:00	8	Radiación solar	0
114257	7	Sololá	702	San José Chacayá	5	Chacayá	8	Agosto	2023-08-19T00:00:00	2024-11-06T03:00:00	2	Temperatura media	11.7
114258	7	Sololá	702	San José Chacayá	5	Chacayá	8	Agosto	2023-08-19T00:00:00	2024-11-06T03:00:00	4	Temperatura máxima	12.3
114259	7	Sololá	702	San José Chacayá	5	Chacayá	8	Agosto	2023-08-19T00:00:00	2024-11-06T03:00:00	3	Temperatura mínima	11.3
114260	7	Sololá	702	San José Chacayá	5	Chacayá	8	Agosto	2023-08-19T00:00:00	2024-11-06T03:00:00	5	Humedad	75
114261	7	Sololá	702	San José Chacayá	5	Chacayá	8	Agosto	2023-08-19T00:00:00	2024-11-06T03:00:00	6	Velocidad del viento	1.6
114262	7	Sololá	702	San José Chacayá	5	Chacayá	8	Agosto	2023-08-19T00:00:00	2024-11-06T03:00:00	7	Dirección del viento	0.8
114263	7	Sololá	702	San José Chacayá	5	Chacayá	8	Agosto	2023-08-19T00:00:00	2024-11-06T03:00:00	1	Precipitación	0
114264	7	Sololá	702	San José Chacayá	5	Chacayá	8	Agosto	2023-08-19T00:00:00	2024-11-06T03:00:00	8	Radiación solar	0
114265	7	Sololá	702	San José Chacayá	5	Chacayá	8	Agosto	2023-08-19T00:00:00	2024-11-06T04:00:00	2	Temperatura media	12
114266	7	Sololá	702	San José Chacayá	5	Chacayá	8	Agosto	2023-08-19T00:00:00	2024-11-06T04:00:00	4	Temperatura máxima	12.4
114267	7	Sololá	702	San José Chacayá	5	Chacayá	8	Agosto	2023-08-19T00:00:00	2024-11-06T04:00:00	3	Temperatura mínima	11.8
114268	7	Sololá	702	San José Chacayá	5	Chacayá	8	Agosto	2023-08-19T00:00:00	2024-11-06T04:00:00	5	Humedad	73
114269	7	Sololá	702	San José Chacayá	5	Chacayá	8	Agosto	2023-08-19T00:00:00	2024-11-06T04:00:00	6	Velocidad del viento	1.6
114270	7	Sololá	702	San José Chacayá	5	Chacayá	8	Agosto	2023-08-19T00:00:00	2024-11-06T04:00:00	7	Dirección del viento	0.8
114271	7	Sololá	702	San José Chacayá	5	Chacayá	8	Agosto	2023-08-19T00:00:00	2024-11-06T04:00:00	1	Precipitación	0
114272	7	Sololá	702	San José Chacayá	5	Chacayá	8	Agosto	2023-08-19T00:00:00	2024-11-06T04:00:00	8	Radiación solar	0
114273	7	Sololá	702	San José Chacayá	5	Chacayá	8	Agosto	2023-08-19T00:00:00	2024-11-06T05:00:00	2	Temperatura media	9.4
114274	7	Sololá	702	San José Chacayá	5	Chacayá	8	Agosto	2023-08-19T00:00:00	2024-11-06T05:00:00	4	Temperatura máxima	10.4
114275	7	Sololá	702	San José Chacayá	5	Chacayá	8	Agosto	2023-08-19T00:00:00	2024-11-06T05:00:00	3	Temperatura mínima	9.4
114276	7	Sololá	702	San José Chacayá	5	Chacayá	8	Agosto	2023-08-19T00:00:00	2024-11-06T05:00:00	5	Humedad	77
114277	7	Sololá	702	San José Chacayá	5	Chacayá	8	Agosto	2023-08-19T00:00:00	2024-11-06T05:00:00	6	Velocidad del viento	1.6
114278	7	Sololá	702	San José Chacayá	5	Chacayá	8	Agosto	2023-08-19T00:00:00	2024-11-06T05:00:00	7	Dirección del viento	0.8
114279	7	Sololá	702	San José Chacayá	5	Chacayá	8	Agosto	2023-08-19T00:00:00	2024-11-06T05:00:00	1	Precipitación	0
114280	7	Sololá	702	San José Chacayá	5	Chacayá	8	Agosto	2023-08-19T00:00:00	2024-11-06T05:00:00	8	Radiación solar	0
114281	7	Sololá	702	San José Chacayá	5	Chacayá	8	Agosto	2023-08-19T00:00:00	2024-11-06T06:00:00	2	Temperatura media	10.2
114282	7	Sololá	702	San José Chacayá	5	Chacayá	8	Agosto	2023-08-19T00:00:00	2024-11-06T06:00:00	4	Temperatura máxima	10.6
114283	7	Sololá	702	San José Chacayá	5	Chacayá	8	Agosto	2023-08-19T00:00:00	2024-11-06T06:00:00	3	Temperatura mínima	9.4
114284	7	Sololá	702	San José Chacayá	5	Chacayá	8	Agosto	2023-08-19T00:00:00	2024-11-06T06:00:00	5	Humedad	77
114285	7	Sololá	702	San José Chacayá	5	Chacayá	8	Agosto	2023-08-19T00:00:00	2024-11-06T06:00:00	6	Velocidad del viento	3.2
114286	7	Sololá	702	San José Chacayá	5	Chacayá	8	Agosto	2023-08-19T00:00:00	2024-11-06T06:00:00	7	Dirección del viento	1.61
114287	7	Sololá	702	San José Chacayá	5	Chacayá	8	Agosto	2023-08-19T00:00:00	2024-11-06T06:00:00	1	Precipitación	0
114288	7	Sololá	702	San José Chacayá	5	Chacayá	8	Agosto	2023-08-19T00:00:00	2024-11-06T06:00:00	8	Radiación solar	1
114289	7	Sololá	702	San José Chacayá	5	Chacayá	8	Agosto	2023-08-19T00:00:00	2024-11-06T07:00:00	2	Temperatura media	13.3
114290	7	Sololá	702	San José Chacayá	5	Chacayá	8	Agosto	2023-08-19T00:00:00	2024-11-06T07:00:00	4	Temperatura máxima	13.3
114291	7	Sololá	702	San José Chacayá	5	Chacayá	8	Agosto	2023-08-19T00:00:00	2024-11-06T07:00:00	3	Temperatura mínima	10.2
114292	7	Sololá	702	San José Chacayá	5	Chacayá	8	Agosto	2023-08-19T00:00:00	2024-11-06T07:00:00	5	Humedad	76
114293	7	Sololá	702	San José Chacayá	5	Chacayá	8	Agosto	2023-08-19T00:00:00	2024-11-06T07:00:00	6	Velocidad del viento	3.2
114294	7	Sololá	702	San José Chacayá	5	Chacayá	8	Agosto	2023-08-19T00:00:00	2024-11-06T07:00:00	7	Dirección del viento	1.61
114295	7	Sololá	702	San José Chacayá	5	Chacayá	8	Agosto	2023-08-19T00:00:00	2024-11-06T07:00:00	1	Precipitación	0
114296	7	Sololá	702	San José Chacayá	5	Chacayá	8	Agosto	2023-08-19T00:00:00	2024-11-06T07:00:00	8	Radiación solar	53
114297	7	Sololá	702	San José Chacayá	5	Chacayá	8	Agosto	2023-08-19T00:00:00	2024-11-06T08:00:00	2	Temperatura media	16.3
114298	7	Sololá	702	San José Chacayá	5	Chacayá	8	Agosto	2023-08-19T00:00:00	2024-11-06T08:00:00	4	Temperatura máxima	16.3
114299	7	Sololá	702	San José Chacayá	5	Chacayá	8	Agosto	2023-08-19T00:00:00	2024-11-06T08:00:00	3	Temperatura mínima	15.2
114300	7	Sololá	702	San José Chacayá	5	Chacayá	8	Agosto	2023-08-19T00:00:00	2024-11-06T08:00:00	5	Humedad	64
114301	7	Sololá	702	San José Chacayá	5	Chacayá	8	Agosto	2023-08-19T00:00:00	2024-11-06T08:00:00	6	Velocidad del viento	6.4
114302	7	Sololá	702	San José Chacayá	5	Chacayá	8	Agosto	2023-08-19T00:00:00	2024-11-06T08:00:00	7	Dirección del viento	3.22
114303	7	Sololá	702	San José Chacayá	5	Chacayá	8	Agosto	2023-08-19T00:00:00	2024-11-06T08:00:00	1	Precipitación	0
114304	7	Sololá	702	San José Chacayá	5	Chacayá	8	Agosto	2023-08-19T00:00:00	2024-11-06T08:00:00	8	Radiación solar	141
114305	7	Sololá	702	San José Chacayá	5	Chacayá	8	Agosto	2023-08-19T00:00:00	2024-11-06T09:00:00	2	Temperatura media	17.8
114306	7	Sololá	702	San José Chacayá	5	Chacayá	8	Agosto	2023-08-19T00:00:00	2024-11-06T09:00:00	4	Temperatura máxima	17.9
114307	7	Sololá	702	San José Chacayá	5	Chacayá	8	Agosto	2023-08-19T00:00:00	2024-11-06T09:00:00	3	Temperatura mínima	17.3
114308	7	Sololá	702	San José Chacayá	5	Chacayá	8	Agosto	2023-08-19T00:00:00	2024-11-06T09:00:00	5	Humedad	62
114309	7	Sololá	702	San José Chacayá	5	Chacayá	8	Agosto	2023-08-19T00:00:00	2024-11-06T09:00:00	6	Velocidad del viento	8
114310	7	Sololá	702	San José Chacayá	5	Chacayá	8	Agosto	2023-08-19T00:00:00	2024-11-06T09:00:00	7	Dirección del viento	4.02
114311	7	Sololá	702	San José Chacayá	5	Chacayá	8	Agosto	2023-08-19T00:00:00	2024-11-06T09:00:00	1	Precipitación	0
114312	7	Sololá	702	San José Chacayá	5	Chacayá	8	Agosto	2023-08-19T00:00:00	2024-11-06T09:00:00	8	Radiación solar	276
114313	7	Sololá	702	San José Chacayá	5	Chacayá	8	Agosto	2023-08-19T00:00:00	2024-11-06T10:00:00	2	Temperatura media	20.7
114314	7	Sololá	702	San José Chacayá	5	Chacayá	8	Agosto	2023-08-19T00:00:00	2024-11-06T10:00:00	4	Temperatura máxima	20.7
114315	7	Sololá	702	San José Chacayá	5	Chacayá	8	Agosto	2023-08-19T00:00:00	2024-11-06T10:00:00	3	Temperatura mínima	19.2
114316	7	Sololá	702	San José Chacayá	5	Chacayá	8	Agosto	2023-08-19T00:00:00	2024-11-06T10:00:00	5	Humedad	54
114317	7	Sololá	702	San José Chacayá	5	Chacayá	8	Agosto	2023-08-19T00:00:00	2024-11-06T10:00:00	6	Velocidad del viento	6.4
114318	7	Sololá	702	San José Chacayá	5	Chacayá	8	Agosto	2023-08-19T00:00:00	2024-11-06T10:00:00	7	Dirección del viento	3.22
114319	7	Sololá	702	San José Chacayá	5	Chacayá	8	Agosto	2023-08-19T00:00:00	2024-11-06T10:00:00	1	Precipitación	0
114320	7	Sololá	702	San José Chacayá	5	Chacayá	8	Agosto	2023-08-19T00:00:00	2024-11-06T10:00:00	8	Radiación solar	742
114321	7	Sololá	702	San José Chacayá	5	Chacayá	8	Agosto	2023-08-19T00:00:00	2024-11-06T11:00:00	2	Temperatura media	21.2
114322	7	Sololá	702	San José Chacayá	5	Chacayá	8	Agosto	2023-08-19T00:00:00	2024-11-06T11:00:00	4	Temperatura máxima	22.1
114323	7	Sololá	702	San José Chacayá	5	Chacayá	8	Agosto	2023-08-19T00:00:00	2024-11-06T11:00:00	3	Temperatura mínima	21.2
114324	7	Sololá	702	San José Chacayá	5	Chacayá	8	Agosto	2023-08-19T00:00:00	2024-11-06T11:00:00	5	Humedad	56
114325	7	Sololá	702	San José Chacayá	5	Chacayá	8	Agosto	2023-08-19T00:00:00	2024-11-06T11:00:00	6	Velocidad del viento	6.4
114326	7	Sololá	702	San José Chacayá	5	Chacayá	8	Agosto	2023-08-19T00:00:00	2024-11-06T11:00:00	7	Dirección del viento	3.22
114327	7	Sololá	702	San José Chacayá	5	Chacayá	8	Agosto	2023-08-19T00:00:00	2024-11-06T11:00:00	1	Precipitación	0
114328	7	Sololá	702	San José Chacayá	5	Chacayá	8	Agosto	2023-08-19T00:00:00	2024-11-06T11:00:00	8	Radiación solar	975
114329	7	Sololá	702	San José Chacayá	5	Chacayá	8	Agosto	2023-08-19T00:00:00	2024-11-06T12:00:00	2	Temperatura media	22.7
114330	7	Sololá	702	San José Chacayá	5	Chacayá	8	Agosto	2023-08-19T00:00:00	2024-11-06T12:00:00	4	Temperatura máxima	22.9
114331	7	Sololá	702	San José Chacayá	5	Chacayá	8	Agosto	2023-08-19T00:00:00	2024-11-06T12:00:00	3	Temperatura mínima	22.1
114332	7	Sololá	702	San José Chacayá	5	Chacayá	8	Agosto	2023-08-19T00:00:00	2024-11-06T12:00:00	5	Humedad	55
114333	7	Sololá	702	San José Chacayá	5	Chacayá	8	Agosto	2023-08-19T00:00:00	2024-11-06T12:00:00	6	Velocidad del viento	6.4
114334	7	Sololá	702	San José Chacayá	5	Chacayá	8	Agosto	2023-08-19T00:00:00	2024-11-06T12:00:00	7	Dirección del viento	3.22
114335	7	Sololá	702	San José Chacayá	5	Chacayá	8	Agosto	2023-08-19T00:00:00	2024-11-06T12:00:00	1	Precipitación	0
114336	7	Sololá	702	San José Chacayá	5	Chacayá	8	Agosto	2023-08-19T00:00:00	2024-11-06T12:00:00	8	Radiación solar	705
114337	7	Sololá	702	San José Chacayá	5	Chacayá	8	Agosto	2023-08-19T00:00:00	2024-11-06T13:00:00	2	Temperatura media	22
114338	7	Sololá	702	San José Chacayá	5	Chacayá	8	Agosto	2023-08-19T00:00:00	2024-11-06T13:00:00	4	Temperatura máxima	23.6
114339	7	Sololá	702	San José Chacayá	5	Chacayá	8	Agosto	2023-08-19T00:00:00	2024-11-06T13:00:00	3	Temperatura mínima	21.7
114340	7	Sololá	702	San José Chacayá	5	Chacayá	8	Agosto	2023-08-19T00:00:00	2024-11-06T13:00:00	5	Humedad	57
114341	7	Sololá	702	San José Chacayá	5	Chacayá	8	Agosto	2023-08-19T00:00:00	2024-11-06T13:00:00	6	Velocidad del viento	6.4
114342	7	Sololá	702	San José Chacayá	5	Chacayá	8	Agosto	2023-08-19T00:00:00	2024-11-06T13:00:00	7	Dirección del viento	3.22
114343	7	Sololá	702	San José Chacayá	5	Chacayá	8	Agosto	2023-08-19T00:00:00	2024-11-06T13:00:00	1	Precipitación	0
114344	7	Sololá	702	San José Chacayá	5	Chacayá	8	Agosto	2023-08-19T00:00:00	2024-11-06T13:00:00	8	Radiación solar	664
114345	7	Sololá	702	San José Chacayá	5	Chacayá	8	Agosto	2023-08-19T00:00:00	2024-11-06T14:00:00	2	Temperatura media	22.5
114346	7	Sololá	702	San José Chacayá	5	Chacayá	8	Agosto	2023-08-19T00:00:00	2024-11-06T14:00:00	4	Temperatura máxima	22.8
114347	7	Sololá	702	San José Chacayá	5	Chacayá	8	Agosto	2023-08-19T00:00:00	2024-11-06T14:00:00	3	Temperatura mínima	21.9
114348	7	Sololá	702	San José Chacayá	5	Chacayá	8	Agosto	2023-08-19T00:00:00	2024-11-06T14:00:00	5	Humedad	52
114349	7	Sololá	702	San José Chacayá	5	Chacayá	8	Agosto	2023-08-19T00:00:00	2024-11-06T14:00:00	6	Velocidad del viento	4.8
114350	7	Sololá	702	San José Chacayá	5	Chacayá	8	Agosto	2023-08-19T00:00:00	2024-11-06T14:00:00	7	Dirección del viento	2.41
114351	7	Sololá	702	San José Chacayá	5	Chacayá	8	Agosto	2023-08-19T00:00:00	2024-11-06T14:00:00	1	Precipitación	0
114352	7	Sololá	702	San José Chacayá	5	Chacayá	8	Agosto	2023-08-19T00:00:00	2024-11-06T14:00:00	8	Radiación solar	522
114353	7	Sololá	702	San José Chacayá	5	Chacayá	8	Agosto	2023-08-19T00:00:00	2024-11-06T15:00:00	2	Temperatura media	23.3
114354	7	Sololá	702	San José Chacayá	5	Chacayá	8	Agosto	2023-08-19T00:00:00	2024-11-06T15:00:00	4	Temperatura máxima	23.9
114355	7	Sololá	702	San José Chacayá	5	Chacayá	8	Agosto	2023-08-19T00:00:00	2024-11-06T15:00:00	3	Temperatura mínima	23.1
114356	7	Sololá	702	San José Chacayá	5	Chacayá	8	Agosto	2023-08-19T00:00:00	2024-11-06T15:00:00	5	Humedad	53
114357	7	Sololá	702	San José Chacayá	5	Chacayá	8	Agosto	2023-08-19T00:00:00	2024-11-06T15:00:00	6	Velocidad del viento	4.8
114358	7	Sololá	702	San José Chacayá	5	Chacayá	8	Agosto	2023-08-19T00:00:00	2024-11-06T15:00:00	7	Dirección del viento	2.41
114359	7	Sololá	702	San José Chacayá	5	Chacayá	8	Agosto	2023-08-19T00:00:00	2024-11-06T15:00:00	1	Precipitación	0
114360	7	Sololá	702	San José Chacayá	5	Chacayá	8	Agosto	2023-08-19T00:00:00	2024-11-06T15:00:00	8	Radiación solar	241
114361	7	Sololá	702	San José Chacayá	5	Chacayá	8	Agosto	2023-08-19T00:00:00	2024-11-06T16:00:00	2	Temperatura media	19.7
114362	7	Sololá	702	San José Chacayá	5	Chacayá	8	Agosto	2023-08-19T00:00:00	2024-11-06T16:00:00	4	Temperatura máxima	22.2
114363	7	Sololá	702	San José Chacayá	5	Chacayá	8	Agosto	2023-08-19T00:00:00	2024-11-06T16:00:00	3	Temperatura mínima	19.7
114364	7	Sololá	702	San José Chacayá	5	Chacayá	8	Agosto	2023-08-19T00:00:00	2024-11-06T16:00:00	5	Humedad	63
114365	7	Sololá	702	San José Chacayá	5	Chacayá	8	Agosto	2023-08-19T00:00:00	2024-11-06T16:00:00	6	Velocidad del viento	6.4
114366	7	Sololá	702	San José Chacayá	5	Chacayá	8	Agosto	2023-08-19T00:00:00	2024-11-06T16:00:00	7	Dirección del viento	3.22
114367	7	Sololá	702	San José Chacayá	5	Chacayá	8	Agosto	2023-08-19T00:00:00	2024-11-06T16:00:00	1	Precipitación	0
114368	7	Sololá	702	San José Chacayá	5	Chacayá	8	Agosto	2023-08-19T00:00:00	2024-11-06T16:00:00	8	Radiación solar	11
114369	7	Sololá	702	San José Chacayá	5	Chacayá	8	Agosto	2023-08-19T00:00:00	2024-11-06T17:00:00	2	Temperatura media	19.9
114370	7	Sololá	702	San José Chacayá	5	Chacayá	8	Agosto	2023-08-19T00:00:00	2024-11-06T17:00:00	4	Temperatura máxima	20.9
114371	7	Sololá	702	San José Chacayá	5	Chacayá	8	Agosto	2023-08-19T00:00:00	2024-11-06T17:00:00	3	Temperatura mínima	19.9
114372	7	Sololá	702	San José Chacayá	5	Chacayá	8	Agosto	2023-08-19T00:00:00	2024-11-06T17:00:00	5	Humedad	74
114373	7	Sololá	702	San José Chacayá	5	Chacayá	8	Agosto	2023-08-19T00:00:00	2024-11-06T17:00:00	6	Velocidad del viento	3.2
114374	7	Sololá	702	San José Chacayá	5	Chacayá	8	Agosto	2023-08-19T00:00:00	2024-11-06T17:00:00	7	Dirección del viento	1.61
114375	7	Sololá	702	San José Chacayá	5	Chacayá	8	Agosto	2023-08-19T00:00:00	2024-11-06T17:00:00	1	Precipitación	0
114376	7	Sololá	702	San José Chacayá	5	Chacayá	8	Agosto	2023-08-19T00:00:00	2024-11-06T17:00:00	8	Radiación solar	22
114377	7	Sololá	702	San José Chacayá	5	Chacayá	8	Agosto	2023-08-19T00:00:00	2024-11-06T18:00:00	2	Temperatura media	17.3
114378	7	Sololá	702	San José Chacayá	5	Chacayá	8	Agosto	2023-08-19T00:00:00	2024-11-06T18:00:00	4	Temperatura máxima	18.1
114379	7	Sololá	702	San José Chacayá	5	Chacayá	8	Agosto	2023-08-19T00:00:00	2024-11-06T18:00:00	3	Temperatura mínima	17.3
114380	7	Sololá	702	San José Chacayá	5	Chacayá	8	Agosto	2023-08-19T00:00:00	2024-11-06T18:00:00	5	Humedad	74
114381	7	Sololá	702	San José Chacayá	5	Chacayá	8	Agosto	2023-08-19T00:00:00	2024-11-06T18:00:00	6	Velocidad del viento	3.2
114382	7	Sololá	702	San José Chacayá	5	Chacayá	8	Agosto	2023-08-19T00:00:00	2024-11-06T18:00:00	7	Dirección del viento	1.61
114383	7	Sololá	702	San José Chacayá	5	Chacayá	8	Agosto	2023-08-19T00:00:00	2024-11-06T18:00:00	1	Precipitación	0
114384	7	Sololá	702	San José Chacayá	5	Chacayá	8	Agosto	2023-08-19T00:00:00	2024-11-06T18:00:00	8	Radiación solar	35
114385	7	Sololá	702	San José Chacayá	5	Chacayá	8	Agosto	2023-08-19T00:00:00	2024-11-06T19:00:00	2	Temperatura media	16.2
114386	7	Sololá	702	San José Chacayá	5	Chacayá	8	Agosto	2023-08-19T00:00:00	2024-11-06T19:00:00	4	Temperatura máxima	16.8
114387	7	Sololá	702	San José Chacayá	5	Chacayá	8	Agosto	2023-08-19T00:00:00	2024-11-06T19:00:00	3	Temperatura mínima	16.1
114388	7	Sololá	702	San José Chacayá	5	Chacayá	8	Agosto	2023-08-19T00:00:00	2024-11-06T19:00:00	5	Humedad	78
114389	7	Sololá	702	San José Chacayá	5	Chacayá	8	Agosto	2023-08-19T00:00:00	2024-11-06T19:00:00	6	Velocidad del viento	3.2
114390	7	Sololá	702	San José Chacayá	5	Chacayá	8	Agosto	2023-08-19T00:00:00	2024-11-06T19:00:00	7	Dirección del viento	1.61
114391	7	Sololá	702	San José Chacayá	5	Chacayá	8	Agosto	2023-08-19T00:00:00	2024-11-06T19:00:00	1	Precipitación	0
114392	7	Sololá	702	San José Chacayá	5	Chacayá	8	Agosto	2023-08-19T00:00:00	2024-11-06T19:00:00	8	Radiación solar	0
114393	7	Sololá	702	San José Chacayá	5	Chacayá	8	Agosto	2023-08-19T00:00:00	2024-11-06T20:00:00	2	Temperatura media	15.3
114394	7	Sololá	702	San José Chacayá	5	Chacayá	8	Agosto	2023-08-19T00:00:00	2024-11-06T20:00:00	4	Temperatura máxima	15.8
114395	7	Sololá	702	San José Chacayá	5	Chacayá	8	Agosto	2023-08-19T00:00:00	2024-11-06T20:00:00	3	Temperatura mínima	15.3
114396	7	Sololá	702	San José Chacayá	5	Chacayá	8	Agosto	2023-08-19T00:00:00	2024-11-06T20:00:00	5	Humedad	76
114397	7	Sololá	702	San José Chacayá	5	Chacayá	8	Agosto	2023-08-19T00:00:00	2024-11-06T20:00:00	6	Velocidad del viento	4.8
114398	7	Sololá	702	San José Chacayá	5	Chacayá	8	Agosto	2023-08-19T00:00:00	2024-11-06T20:00:00	7	Dirección del viento	2.41
114399	7	Sololá	702	San José Chacayá	5	Chacayá	8	Agosto	2023-08-19T00:00:00	2024-11-06T20:00:00	1	Precipitación	0
114400	7	Sololá	702	San José Chacayá	5	Chacayá	8	Agosto	2023-08-19T00:00:00	2024-11-06T20:00:00	8	Radiación solar	0
114401	7	Sololá	702	San José Chacayá	5	Chacayá	8	Agosto	2023-08-19T00:00:00	2024-11-06T21:00:00	2	Temperatura media	14.6
114402	7	Sololá	702	San José Chacayá	5	Chacayá	8	Agosto	2023-08-19T00:00:00	2024-11-06T21:00:00	4	Temperatura máxima	15.1
114403	7	Sololá	702	San José Chacayá	5	Chacayá	8	Agosto	2023-08-19T00:00:00	2024-11-06T21:00:00	3	Temperatura mínima	14.6
114404	7	Sololá	702	San José Chacayá	5	Chacayá	8	Agosto	2023-08-19T00:00:00	2024-11-06T21:00:00	5	Humedad	77
114405	7	Sololá	702	San José Chacayá	5	Chacayá	8	Agosto	2023-08-19T00:00:00	2024-11-06T21:00:00	6	Velocidad del viento	4.8
114406	7	Sololá	702	San José Chacayá	5	Chacayá	8	Agosto	2023-08-19T00:00:00	2024-11-06T21:00:00	7	Dirección del viento	2.41
114407	7	Sololá	702	San José Chacayá	5	Chacayá	8	Agosto	2023-08-19T00:00:00	2024-11-06T21:00:00	1	Precipitación	0
114408	7	Sololá	702	San José Chacayá	5	Chacayá	8	Agosto	2023-08-19T00:00:00	2024-11-06T21:00:00	8	Radiación solar	0
114409	7	Sololá	702	San José Chacayá	5	Chacayá	8	Agosto	2023-08-19T00:00:00	2024-11-06T22:00:00	2	Temperatura media	14.6
114410	7	Sololá	702	San José Chacayá	5	Chacayá	8	Agosto	2023-08-19T00:00:00	2024-11-06T22:00:00	4	Temperatura máxima	14.7
114411	7	Sololá	702	San José Chacayá	5	Chacayá	8	Agosto	2023-08-19T00:00:00	2024-11-06T22:00:00	3	Temperatura mínima	14.3
114412	7	Sololá	702	San José Chacayá	5	Chacayá	8	Agosto	2023-08-19T00:00:00	2024-11-06T22:00:00	5	Humedad	74
114413	7	Sololá	702	San José Chacayá	5	Chacayá	8	Agosto	2023-08-19T00:00:00	2024-11-06T22:00:00	6	Velocidad del viento	3.2
114414	7	Sololá	702	San José Chacayá	5	Chacayá	8	Agosto	2023-08-19T00:00:00	2024-11-06T22:00:00	7	Dirección del viento	1.61
114415	7	Sololá	702	San José Chacayá	5	Chacayá	8	Agosto	2023-08-19T00:00:00	2024-11-06T22:00:00	1	Precipitación	0
114416	7	Sololá	702	San José Chacayá	5	Chacayá	8	Agosto	2023-08-19T00:00:00	2024-11-06T22:00:00	8	Radiación solar	0
114417	7	Sololá	702	San José Chacayá	5	Chacayá	8	Agosto	2023-08-19T00:00:00	2024-11-06T23:00:00	2	Temperatura media	14.4
114418	7	Sololá	702	San José Chacayá	5	Chacayá	8	Agosto	2023-08-19T00:00:00	2024-11-06T23:00:00	4	Temperatura máxima	14.5
114419	7	Sololá	702	San José Chacayá	5	Chacayá	8	Agosto	2023-08-19T00:00:00	2024-11-06T23:00:00	3	Temperatura mínima	14.4
114420	7	Sololá	702	San José Chacayá	5	Chacayá	8	Agosto	2023-08-19T00:00:00	2024-11-06T23:00:00	5	Humedad	72
114421	7	Sololá	702	San José Chacayá	5	Chacayá	8	Agosto	2023-08-19T00:00:00	2024-11-06T23:00:00	6	Velocidad del viento	4.8
114422	7	Sololá	702	San José Chacayá	5	Chacayá	8	Agosto	2023-08-19T00:00:00	2024-11-06T23:00:00	7	Dirección del viento	2.41
114423	7	Sololá	702	San José Chacayá	5	Chacayá	8	Agosto	2023-08-19T00:00:00	2024-11-06T23:00:00	1	Precipitación	0
114424	7	Sololá	702	San José Chacayá	5	Chacayá	8	Agosto	2023-08-19T00:00:00	2024-11-06T23:00:00	8	Radiación solar	0
114425	7	Sololá	702	San José Chacayá	5	Chacayá	8	Agosto	2023-08-20T00:00:00	2024-11-06T00:00:00	2	Temperatura media	14.7
114426	7	Sololá	702	San José Chacayá	5	Chacayá	8	Agosto	2023-08-20T00:00:00	2024-11-06T00:00:00	4	Temperatura máxima	14.8
114427	7	Sololá	702	San José Chacayá	5	Chacayá	8	Agosto	2023-08-20T00:00:00	2024-11-06T00:00:00	3	Temperatura mínima	14.6
114428	7	Sololá	702	San José Chacayá	5	Chacayá	8	Agosto	2023-08-20T00:00:00	2024-11-06T00:00:00	5	Humedad	70
114429	7	Sololá	702	San José Chacayá	5	Chacayá	8	Agosto	2023-08-20T00:00:00	2024-11-06T00:00:00	6	Velocidad del viento	6.4
114430	7	Sololá	702	San José Chacayá	5	Chacayá	8	Agosto	2023-08-20T00:00:00	2024-11-06T00:00:00	7	Dirección del viento	3.22
114431	7	Sololá	702	San José Chacayá	5	Chacayá	8	Agosto	2023-08-20T00:00:00	2024-11-06T00:00:00	1	Precipitación	0
114432	7	Sololá	702	San José Chacayá	5	Chacayá	8	Agosto	2023-08-20T00:00:00	2024-11-06T00:00:00	8	Radiación solar	0
114433	7	Sololá	702	San José Chacayá	5	Chacayá	8	Agosto	2023-08-20T00:00:00	2024-11-06T01:00:00	2	Temperatura media	14.3
114434	7	Sololá	702	San José Chacayá	5	Chacayá	8	Agosto	2023-08-20T00:00:00	2024-11-06T01:00:00	4	Temperatura máxima	14.4
114435	7	Sololá	702	San José Chacayá	5	Chacayá	8	Agosto	2023-08-20T00:00:00	2024-11-06T01:00:00	3	Temperatura mínima	14.3
114436	7	Sololá	702	San José Chacayá	5	Chacayá	8	Agosto	2023-08-20T00:00:00	2024-11-06T01:00:00	5	Humedad	67
114437	7	Sololá	702	San José Chacayá	5	Chacayá	8	Agosto	2023-08-20T00:00:00	2024-11-06T01:00:00	6	Velocidad del viento	6.4
114438	7	Sololá	702	San José Chacayá	5	Chacayá	8	Agosto	2023-08-20T00:00:00	2024-11-06T01:00:00	7	Dirección del viento	3.22
114439	7	Sololá	702	San José Chacayá	5	Chacayá	8	Agosto	2023-08-20T00:00:00	2024-11-06T01:00:00	1	Precipitación	0
114440	7	Sololá	702	San José Chacayá	5	Chacayá	8	Agosto	2023-08-20T00:00:00	2024-11-06T01:00:00	8	Radiación solar	0
114441	7	Sololá	702	San José Chacayá	5	Chacayá	8	Agosto	2023-08-20T00:00:00	2024-11-06T02:00:00	2	Temperatura media	13.1
114442	7	Sololá	702	San José Chacayá	5	Chacayá	8	Agosto	2023-08-20T00:00:00	2024-11-06T02:00:00	4	Temperatura máxima	14.4
114443	7	Sololá	702	San José Chacayá	5	Chacayá	8	Agosto	2023-08-20T00:00:00	2024-11-06T02:00:00	3	Temperatura mínima	13.1
114444	7	Sololá	702	San José Chacayá	5	Chacayá	8	Agosto	2023-08-20T00:00:00	2024-11-06T02:00:00	5	Humedad	72
114445	7	Sololá	702	San José Chacayá	5	Chacayá	8	Agosto	2023-08-20T00:00:00	2024-11-06T02:00:00	6	Velocidad del viento	3.2
114446	7	Sololá	702	San José Chacayá	5	Chacayá	8	Agosto	2023-08-20T00:00:00	2024-11-06T02:00:00	7	Dirección del viento	1.61
114447	7	Sololá	702	San José Chacayá	5	Chacayá	8	Agosto	2023-08-20T00:00:00	2024-11-06T02:00:00	1	Precipitación	0
114448	7	Sololá	702	San José Chacayá	5	Chacayá	8	Agosto	2023-08-20T00:00:00	2024-11-06T02:00:00	8	Radiación solar	0
114449	7	Sololá	702	San José Chacayá	5	Chacayá	8	Agosto	2023-08-20T00:00:00	2024-11-06T03:00:00	2	Temperatura media	12.2
114450	7	Sololá	702	San José Chacayá	5	Chacayá	8	Agosto	2023-08-20T00:00:00	2024-11-06T03:00:00	4	Temperatura máxima	13.7
114451	7	Sololá	702	San José Chacayá	5	Chacayá	8	Agosto	2023-08-20T00:00:00	2024-11-06T03:00:00	3	Temperatura mínima	12.1
114452	7	Sololá	702	San José Chacayá	5	Chacayá	8	Agosto	2023-08-20T00:00:00	2024-11-06T03:00:00	5	Humedad	73
114453	7	Sololá	702	San José Chacayá	5	Chacayá	8	Agosto	2023-08-20T00:00:00	2024-11-06T03:00:00	6	Velocidad del viento	3.2
114454	7	Sololá	702	San José Chacayá	5	Chacayá	8	Agosto	2023-08-20T00:00:00	2024-11-06T03:00:00	7	Dirección del viento	1.61
114455	7	Sololá	702	San José Chacayá	5	Chacayá	8	Agosto	2023-08-20T00:00:00	2024-11-06T03:00:00	1	Precipitación	0
114456	7	Sololá	702	San José Chacayá	5	Chacayá	8	Agosto	2023-08-20T00:00:00	2024-11-06T03:00:00	8	Radiación solar	0
114457	7	Sololá	702	San José Chacayá	5	Chacayá	8	Agosto	2023-08-20T00:00:00	2024-11-06T04:00:00	2	Temperatura media	10.2
114458	7	Sololá	702	San José Chacayá	5	Chacayá	8	Agosto	2023-08-20T00:00:00	2024-11-06T04:00:00	4	Temperatura máxima	11
114459	7	Sololá	702	San José Chacayá	5	Chacayá	8	Agosto	2023-08-20T00:00:00	2024-11-06T04:00:00	3	Temperatura mínima	10.2
114460	7	Sololá	702	San José Chacayá	5	Chacayá	8	Agosto	2023-08-20T00:00:00	2024-11-06T04:00:00	5	Humedad	80
114461	7	Sololá	702	San José Chacayá	5	Chacayá	8	Agosto	2023-08-20T00:00:00	2024-11-06T04:00:00	6	Velocidad del viento	1.6
114462	7	Sololá	702	San José Chacayá	5	Chacayá	8	Agosto	2023-08-20T00:00:00	2024-11-06T04:00:00	7	Dirección del viento	0.8
114463	7	Sololá	702	San José Chacayá	5	Chacayá	8	Agosto	2023-08-20T00:00:00	2024-11-06T04:00:00	1	Precipitación	0
114464	7	Sololá	702	San José Chacayá	5	Chacayá	8	Agosto	2023-08-20T00:00:00	2024-11-06T04:00:00	8	Radiación solar	0
114465	7	Sololá	702	San José Chacayá	5	Chacayá	8	Agosto	2023-08-20T00:00:00	2024-11-06T05:00:00	2	Temperatura media	9.3
114466	7	Sololá	702	San José Chacayá	5	Chacayá	8	Agosto	2023-08-20T00:00:00	2024-11-06T05:00:00	4	Temperatura máxima	10.1
114467	7	Sololá	702	San José Chacayá	5	Chacayá	8	Agosto	2023-08-20T00:00:00	2024-11-06T05:00:00	3	Temperatura mínima	9.3
114468	7	Sololá	702	San José Chacayá	5	Chacayá	8	Agosto	2023-08-20T00:00:00	2024-11-06T05:00:00	5	Humedad	81
114469	7	Sololá	702	San José Chacayá	5	Chacayá	8	Agosto	2023-08-20T00:00:00	2024-11-06T05:00:00	6	Velocidad del viento	1.6
114470	7	Sololá	702	San José Chacayá	5	Chacayá	8	Agosto	2023-08-20T00:00:00	2024-11-06T05:00:00	7	Dirección del viento	0.8
114471	7	Sololá	702	San José Chacayá	5	Chacayá	8	Agosto	2023-08-20T00:00:00	2024-11-06T05:00:00	1	Precipitación	0
114472	7	Sololá	702	San José Chacayá	5	Chacayá	8	Agosto	2023-08-20T00:00:00	2024-11-06T05:00:00	8	Radiación solar	0
114473	7	Sololá	702	San José Chacayá	5	Chacayá	8	Agosto	2023-08-20T00:00:00	2024-11-06T06:00:00	2	Temperatura media	8.4
114474	7	Sololá	702	San José Chacayá	5	Chacayá	8	Agosto	2023-08-20T00:00:00	2024-11-06T06:00:00	4	Temperatura máxima	8.6
114475	7	Sololá	702	San José Chacayá	5	Chacayá	8	Agosto	2023-08-20T00:00:00	2024-11-06T06:00:00	3	Temperatura mínima	8.4
114476	7	Sololá	702	San José Chacayá	5	Chacayá	8	Agosto	2023-08-20T00:00:00	2024-11-06T06:00:00	5	Humedad	85
114477	7	Sololá	702	San José Chacayá	5	Chacayá	8	Agosto	2023-08-20T00:00:00	2024-11-06T06:00:00	6	Velocidad del viento	1.6
114478	7	Sololá	702	San José Chacayá	5	Chacayá	8	Agosto	2023-08-20T00:00:00	2024-11-06T06:00:00	7	Dirección del viento	0.8
114479	7	Sololá	702	San José Chacayá	5	Chacayá	8	Agosto	2023-08-20T00:00:00	2024-11-06T06:00:00	1	Precipitación	0
114480	7	Sololá	702	San José Chacayá	5	Chacayá	8	Agosto	2023-08-20T00:00:00	2024-11-06T06:00:00	8	Radiación solar	1
114481	7	Sololá	702	San José Chacayá	5	Chacayá	8	Agosto	2023-08-20T00:00:00	2024-11-06T07:00:00	2	Temperatura media	10.2
114482	7	Sololá	702	San José Chacayá	5	Chacayá	8	Agosto	2023-08-20T00:00:00	2024-11-06T07:00:00	4	Temperatura máxima	10.2
114483	7	Sololá	702	San José Chacayá	5	Chacayá	8	Agosto	2023-08-20T00:00:00	2024-11-06T07:00:00	3	Temperatura mínima	8.9
114484	7	Sololá	702	San José Chacayá	5	Chacayá	8	Agosto	2023-08-20T00:00:00	2024-11-06T07:00:00	5	Humedad	83
114485	7	Sololá	702	San José Chacayá	5	Chacayá	8	Agosto	2023-08-20T00:00:00	2024-11-06T07:00:00	6	Velocidad del viento	0
114486	7	Sololá	702	San José Chacayá	5	Chacayá	8	Agosto	2023-08-20T00:00:00	2024-11-06T07:00:00	7	Dirección del viento	0
114487	7	Sololá	702	San José Chacayá	5	Chacayá	8	Agosto	2023-08-20T00:00:00	2024-11-06T07:00:00	1	Precipitación	0
114488	7	Sololá	702	San José Chacayá	5	Chacayá	8	Agosto	2023-08-20T00:00:00	2024-11-06T07:00:00	8	Radiación solar	56
114489	7	Sololá	702	San José Chacayá	5	Chacayá	8	Agosto	2023-08-20T00:00:00	2024-11-06T08:00:00	2	Temperatura media	15.7
114490	7	Sololá	702	San José Chacayá	5	Chacayá	8	Agosto	2023-08-20T00:00:00	2024-11-06T08:00:00	4	Temperatura máxima	15.7
114491	7	Sololá	702	San José Chacayá	5	Chacayá	8	Agosto	2023-08-20T00:00:00	2024-11-06T08:00:00	3	Temperatura mínima	12.6
114492	7	Sololá	702	San José Chacayá	5	Chacayá	8	Agosto	2023-08-20T00:00:00	2024-11-06T08:00:00	5	Humedad	64
114493	7	Sololá	702	San José Chacayá	5	Chacayá	8	Agosto	2023-08-20T00:00:00	2024-11-06T08:00:00	6	Velocidad del viento	1.6
114494	7	Sololá	702	San José Chacayá	5	Chacayá	8	Agosto	2023-08-20T00:00:00	2024-11-06T08:00:00	7	Dirección del viento	0.8
114495	7	Sololá	702	San José Chacayá	5	Chacayá	8	Agosto	2023-08-20T00:00:00	2024-11-06T08:00:00	1	Precipitación	0
114496	7	Sololá	702	San José Chacayá	5	Chacayá	8	Agosto	2023-08-20T00:00:00	2024-11-06T08:00:00	8	Radiación solar	89
114497	7	Sololá	702	San José Chacayá	5	Chacayá	8	Agosto	2023-08-20T00:00:00	2024-11-06T09:00:00	2	Temperatura media	20
114498	7	Sololá	702	San José Chacayá	5	Chacayá	8	Agosto	2023-08-20T00:00:00	2024-11-06T09:00:00	4	Temperatura máxima	20
114499	7	Sololá	702	San José Chacayá	5	Chacayá	8	Agosto	2023-08-20T00:00:00	2024-11-06T09:00:00	3	Temperatura mínima	18.1
114500	7	Sololá	702	San José Chacayá	5	Chacayá	8	Agosto	2023-08-20T00:00:00	2024-11-06T09:00:00	5	Humedad	52
114501	7	Sololá	702	San José Chacayá	5	Chacayá	8	Agosto	2023-08-20T00:00:00	2024-11-06T09:00:00	6	Velocidad del viento	4.8
114502	7	Sololá	702	San José Chacayá	5	Chacayá	8	Agosto	2023-08-20T00:00:00	2024-11-06T09:00:00	7	Dirección del viento	2.41
114503	7	Sololá	702	San José Chacayá	5	Chacayá	8	Agosto	2023-08-20T00:00:00	2024-11-06T09:00:00	1	Precipitación	0
114504	7	Sololá	702	San José Chacayá	5	Chacayá	8	Agosto	2023-08-20T00:00:00	2024-11-06T09:00:00	8	Radiación solar	328
114505	7	Sololá	702	San José Chacayá	5	Chacayá	8	Agosto	2023-08-20T00:00:00	2024-11-06T10:00:00	2	Temperatura media	21.7
114506	7	Sololá	702	San José Chacayá	5	Chacayá	8	Agosto	2023-08-20T00:00:00	2024-11-06T10:00:00	4	Temperatura máxima	21.7
114507	7	Sololá	702	San José Chacayá	5	Chacayá	8	Agosto	2023-08-20T00:00:00	2024-11-06T10:00:00	3	Temperatura mínima	21.1
114508	7	Sololá	702	San José Chacayá	5	Chacayá	8	Agosto	2023-08-20T00:00:00	2024-11-06T10:00:00	5	Humedad	53
114509	7	Sololá	702	San José Chacayá	5	Chacayá	8	Agosto	2023-08-20T00:00:00	2024-11-06T10:00:00	6	Velocidad del viento	8
114510	7	Sololá	702	San José Chacayá	5	Chacayá	8	Agosto	2023-08-20T00:00:00	2024-11-06T10:00:00	7	Dirección del viento	4.02
114511	7	Sololá	702	San José Chacayá	5	Chacayá	8	Agosto	2023-08-20T00:00:00	2024-11-06T10:00:00	1	Precipitación	0
114512	7	Sololá	702	San José Chacayá	5	Chacayá	8	Agosto	2023-08-20T00:00:00	2024-11-06T10:00:00	8	Radiación solar	233
114513	7	Sololá	702	San José Chacayá	5	Chacayá	8	Agosto	2023-08-20T00:00:00	2024-11-06T11:00:00	2	Temperatura media	23.2
114514	7	Sololá	702	San José Chacayá	5	Chacayá	8	Agosto	2023-08-20T00:00:00	2024-11-06T11:00:00	4	Temperatura máxima	23.6
114515	7	Sololá	702	San José Chacayá	5	Chacayá	8	Agosto	2023-08-20T00:00:00	2024-11-06T11:00:00	3	Temperatura mínima	22.8
114516	7	Sololá	702	San José Chacayá	5	Chacayá	8	Agosto	2023-08-20T00:00:00	2024-11-06T11:00:00	5	Humedad	48
114517	7	Sololá	702	San José Chacayá	5	Chacayá	8	Agosto	2023-08-20T00:00:00	2024-11-06T11:00:00	6	Velocidad del viento	4.8
114518	7	Sololá	702	San José Chacayá	5	Chacayá	8	Agosto	2023-08-20T00:00:00	2024-11-06T11:00:00	7	Dirección del viento	2.41
114519	7	Sololá	702	San José Chacayá	5	Chacayá	8	Agosto	2023-08-20T00:00:00	2024-11-06T11:00:00	1	Precipitación	0
114520	7	Sololá	702	San José Chacayá	5	Chacayá	8	Agosto	2023-08-20T00:00:00	2024-11-06T11:00:00	8	Radiación solar	234
114521	7	Sololá	702	San José Chacayá	5	Chacayá	8	Agosto	2023-08-20T00:00:00	2024-11-06T12:00:00	2	Temperatura media	23.7
114522	7	Sololá	702	San José Chacayá	5	Chacayá	8	Agosto	2023-08-20T00:00:00	2024-11-06T12:00:00	4	Temperatura máxima	24.2
114523	7	Sololá	702	San José Chacayá	5	Chacayá	8	Agosto	2023-08-20T00:00:00	2024-11-06T12:00:00	3	Temperatura mínima	23.2
114524	7	Sololá	702	San José Chacayá	5	Chacayá	8	Agosto	2023-08-20T00:00:00	2024-11-06T12:00:00	5	Humedad	48
114525	7	Sololá	702	San José Chacayá	5	Chacayá	8	Agosto	2023-08-20T00:00:00	2024-11-06T12:00:00	6	Velocidad del viento	4.8
114526	7	Sololá	702	San José Chacayá	5	Chacayá	8	Agosto	2023-08-20T00:00:00	2024-11-06T12:00:00	7	Dirección del viento	2.41
114527	7	Sololá	702	San José Chacayá	5	Chacayá	8	Agosto	2023-08-20T00:00:00	2024-11-06T12:00:00	1	Precipitación	0
114528	7	Sololá	702	San José Chacayá	5	Chacayá	8	Agosto	2023-08-20T00:00:00	2024-11-06T12:00:00	8	Radiación solar	301
114529	7	Sololá	702	San José Chacayá	5	Chacayá	8	Agosto	2023-08-20T00:00:00	2024-11-06T13:00:00	2	Temperatura media	23.8
114530	7	Sololá	702	San José Chacayá	5	Chacayá	8	Agosto	2023-08-20T00:00:00	2024-11-06T13:00:00	4	Temperatura máxima	24.2
114531	7	Sololá	702	San José Chacayá	5	Chacayá	8	Agosto	2023-08-20T00:00:00	2024-11-06T13:00:00	3	Temperatura mínima	23.7
114532	7	Sololá	702	San José Chacayá	5	Chacayá	8	Agosto	2023-08-20T00:00:00	2024-11-06T13:00:00	5	Humedad	50
114533	7	Sololá	702	San José Chacayá	5	Chacayá	8	Agosto	2023-08-20T00:00:00	2024-11-06T13:00:00	6	Velocidad del viento	6.4
114534	7	Sololá	702	San José Chacayá	5	Chacayá	8	Agosto	2023-08-20T00:00:00	2024-11-06T13:00:00	7	Dirección del viento	3.22
114535	7	Sololá	702	San José Chacayá	5	Chacayá	8	Agosto	2023-08-20T00:00:00	2024-11-06T13:00:00	1	Precipitación	0
114536	7	Sololá	702	San José Chacayá	5	Chacayá	8	Agosto	2023-08-20T00:00:00	2024-11-06T13:00:00	8	Radiación solar	710
114537	7	Sololá	702	San José Chacayá	5	Chacayá	8	Agosto	2023-08-20T00:00:00	2024-11-06T14:00:00	2	Temperatura media	21.7
114538	7	Sololá	702	San José Chacayá	5	Chacayá	8	Agosto	2023-08-20T00:00:00	2024-11-06T14:00:00	4	Temperatura máxima	22.6
114539	7	Sololá	702	San José Chacayá	5	Chacayá	8	Agosto	2023-08-20T00:00:00	2024-11-06T14:00:00	3	Temperatura mínima	21
114540	7	Sololá	702	San José Chacayá	5	Chacayá	8	Agosto	2023-08-20T00:00:00	2024-11-06T14:00:00	5	Humedad	69
114541	7	Sololá	702	San José Chacayá	5	Chacayá	8	Agosto	2023-08-20T00:00:00	2024-11-06T14:00:00	6	Velocidad del viento	8
114542	7	Sololá	702	San José Chacayá	5	Chacayá	8	Agosto	2023-08-20T00:00:00	2024-11-06T14:00:00	7	Dirección del viento	4.02
114543	7	Sololá	702	San José Chacayá	5	Chacayá	8	Agosto	2023-08-20T00:00:00	2024-11-06T14:00:00	1	Precipitación	0
114544	7	Sololá	702	San José Chacayá	5	Chacayá	8	Agosto	2023-08-20T00:00:00	2024-11-06T14:00:00	8	Radiación solar	897
114545	7	Sololá	702	San José Chacayá	5	Chacayá	8	Agosto	2023-08-20T00:00:00	2024-11-06T15:00:00	2	Temperatura media	22.7
114546	7	Sololá	702	San José Chacayá	5	Chacayá	8	Agosto	2023-08-20T00:00:00	2024-11-06T15:00:00	4	Temperatura máxima	22.7
114547	7	Sololá	702	San José Chacayá	5	Chacayá	8	Agosto	2023-08-20T00:00:00	2024-11-06T15:00:00	3	Temperatura mínima	21.7
114548	7	Sololá	702	San José Chacayá	5	Chacayá	8	Agosto	2023-08-20T00:00:00	2024-11-06T15:00:00	5	Humedad	66
114549	7	Sololá	702	San José Chacayá	5	Chacayá	8	Agosto	2023-08-20T00:00:00	2024-11-06T15:00:00	6	Velocidad del viento	4.8
114550	7	Sololá	702	San José Chacayá	5	Chacayá	8	Agosto	2023-08-20T00:00:00	2024-11-06T15:00:00	7	Dirección del viento	2.41
114551	7	Sololá	702	San José Chacayá	5	Chacayá	8	Agosto	2023-08-20T00:00:00	2024-11-06T15:00:00	1	Precipitación	0
114552	7	Sololá	702	San José Chacayá	5	Chacayá	8	Agosto	2023-08-20T00:00:00	2024-11-06T15:00:00	8	Radiación solar	585
114553	7	Sololá	702	San José Chacayá	5	Chacayá	8	Agosto	2023-08-20T00:00:00	2024-11-06T16:00:00	2	Temperatura media	20.8
114554	7	Sololá	702	San José Chacayá	5	Chacayá	8	Agosto	2023-08-20T00:00:00	2024-11-06T16:00:00	4	Temperatura máxima	23.4
114555	7	Sololá	702	San José Chacayá	5	Chacayá	8	Agosto	2023-08-20T00:00:00	2024-11-06T16:00:00	3	Temperatura mínima	20.8
114556	7	Sololá	702	San José Chacayá	5	Chacayá	8	Agosto	2023-08-20T00:00:00	2024-11-06T16:00:00	5	Humedad	67
114557	7	Sololá	702	San José Chacayá	5	Chacayá	8	Agosto	2023-08-20T00:00:00	2024-11-06T16:00:00	6	Velocidad del viento	4.8
114558	7	Sololá	702	San José Chacayá	5	Chacayá	8	Agosto	2023-08-20T00:00:00	2024-11-06T16:00:00	7	Dirección del viento	2.41
114559	7	Sololá	702	San José Chacayá	5	Chacayá	8	Agosto	2023-08-20T00:00:00	2024-11-06T16:00:00	1	Precipitación	0
114560	7	Sololá	702	San José Chacayá	5	Chacayá	8	Agosto	2023-08-20T00:00:00	2024-11-06T16:00:00	8	Radiación solar	257
114561	7	Sololá	702	San José Chacayá	5	Chacayá	8	Agosto	2023-08-20T00:00:00	2024-11-06T17:00:00	2	Temperatura media	20.1
114562	7	Sololá	702	San José Chacayá	5	Chacayá	8	Agosto	2023-08-20T00:00:00	2024-11-06T17:00:00	4	Temperatura máxima	20.4
114563	7	Sololá	702	San José Chacayá	5	Chacayá	8	Agosto	2023-08-20T00:00:00	2024-11-06T17:00:00	3	Temperatura mínima	20
114564	7	Sololá	702	San José Chacayá	5	Chacayá	8	Agosto	2023-08-20T00:00:00	2024-11-06T17:00:00	5	Humedad	70
114565	7	Sololá	702	San José Chacayá	5	Chacayá	8	Agosto	2023-08-20T00:00:00	2024-11-06T17:00:00	6	Velocidad del viento	3.2
114566	7	Sololá	702	San José Chacayá	5	Chacayá	8	Agosto	2023-08-20T00:00:00	2024-11-06T17:00:00	7	Dirección del viento	1.61
114567	7	Sololá	702	San José Chacayá	5	Chacayá	8	Agosto	2023-08-20T00:00:00	2024-11-06T17:00:00	1	Precipitación	0
114568	7	Sololá	702	San José Chacayá	5	Chacayá	8	Agosto	2023-08-20T00:00:00	2024-11-06T17:00:00	8	Radiación solar	28
114569	7	Sololá	702	San José Chacayá	5	Chacayá	8	Agosto	2023-08-20T00:00:00	2024-11-06T18:00:00	2	Temperatura media	18.2
114570	7	Sololá	702	San José Chacayá	5	Chacayá	8	Agosto	2023-08-20T00:00:00	2024-11-06T18:00:00	4	Temperatura máxima	19.2
114571	7	Sololá	702	San José Chacayá	5	Chacayá	8	Agosto	2023-08-20T00:00:00	2024-11-06T18:00:00	3	Temperatura mínima	18.2
114572	7	Sololá	702	San José Chacayá	5	Chacayá	8	Agosto	2023-08-20T00:00:00	2024-11-06T18:00:00	5	Humedad	71
114573	7	Sololá	702	San José Chacayá	5	Chacayá	8	Agosto	2023-08-20T00:00:00	2024-11-06T18:00:00	6	Velocidad del viento	3.2
114574	7	Sololá	702	San José Chacayá	5	Chacayá	8	Agosto	2023-08-20T00:00:00	2024-11-06T18:00:00	7	Dirección del viento	1.61
114575	7	Sololá	702	San José Chacayá	5	Chacayá	8	Agosto	2023-08-20T00:00:00	2024-11-06T18:00:00	1	Precipitación	0
114576	7	Sololá	702	San José Chacayá	5	Chacayá	8	Agosto	2023-08-20T00:00:00	2024-11-06T18:00:00	8	Radiación solar	12
114577	7	Sololá	702	San José Chacayá	5	Chacayá	8	Agosto	2023-08-20T00:00:00	2024-11-06T19:00:00	2	Temperatura media	16.2
114578	7	Sololá	702	San José Chacayá	5	Chacayá	8	Agosto	2023-08-20T00:00:00	2024-11-06T19:00:00	4	Temperatura máxima	17.4
114579	7	Sololá	702	San José Chacayá	5	Chacayá	8	Agosto	2023-08-20T00:00:00	2024-11-06T19:00:00	3	Temperatura mínima	16.2
114580	7	Sololá	702	San José Chacayá	5	Chacayá	8	Agosto	2023-08-20T00:00:00	2024-11-06T19:00:00	5	Humedad	79
114581	7	Sololá	702	San José Chacayá	5	Chacayá	8	Agosto	2023-08-20T00:00:00	2024-11-06T19:00:00	6	Velocidad del viento	0
114582	7	Sololá	702	San José Chacayá	5	Chacayá	8	Agosto	2023-08-20T00:00:00	2024-11-06T19:00:00	7	Dirección del viento	0
114583	7	Sololá	702	San José Chacayá	5	Chacayá	8	Agosto	2023-08-20T00:00:00	2024-11-06T19:00:00	1	Precipitación	0
114584	7	Sololá	702	San José Chacayá	5	Chacayá	8	Agosto	2023-08-20T00:00:00	2024-11-06T19:00:00	8	Radiación solar	0
114585	7	Sololá	702	San José Chacayá	5	Chacayá	8	Agosto	2023-08-20T00:00:00	2024-11-06T20:00:00	2	Temperatura media	16.4
114586	7	Sololá	702	San José Chacayá	5	Chacayá	8	Agosto	2023-08-20T00:00:00	2024-11-06T20:00:00	4	Temperatura máxima	16.4
114587	7	Sololá	702	San José Chacayá	5	Chacayá	8	Agosto	2023-08-20T00:00:00	2024-11-06T20:00:00	3	Temperatura mínima	16.4
114588	7	Sololá	702	San José Chacayá	5	Chacayá	8	Agosto	2023-08-20T00:00:00	2024-11-06T20:00:00	5	Humedad	79
114589	7	Sololá	702	San José Chacayá	5	Chacayá	8	Agosto	2023-08-20T00:00:00	2024-11-06T20:00:00	6	Velocidad del viento	1.6
114590	7	Sololá	702	San José Chacayá	5	Chacayá	8	Agosto	2023-08-20T00:00:00	2024-11-06T20:00:00	7	Dirección del viento	0.8
114591	7	Sololá	702	San José Chacayá	5	Chacayá	8	Agosto	2023-08-20T00:00:00	2024-11-06T20:00:00	1	Precipitación	0
114592	7	Sololá	702	San José Chacayá	5	Chacayá	8	Agosto	2023-08-20T00:00:00	2024-11-06T20:00:00	8	Radiación solar	0
114593	7	Sololá	702	San José Chacayá	5	Chacayá	8	Agosto	2023-08-20T00:00:00	2024-11-06T21:00:00	2	Temperatura media	15.2
114594	7	Sololá	702	San José Chacayá	5	Chacayá	8	Agosto	2023-08-20T00:00:00	2024-11-06T21:00:00	4	Temperatura máxima	16.1
114595	7	Sololá	702	San José Chacayá	5	Chacayá	8	Agosto	2023-08-20T00:00:00	2024-11-06T21:00:00	3	Temperatura mínima	15.2
114596	7	Sololá	702	San José Chacayá	5	Chacayá	8	Agosto	2023-08-20T00:00:00	2024-11-06T21:00:00	5	Humedad	82
114597	7	Sololá	702	San José Chacayá	5	Chacayá	8	Agosto	2023-08-20T00:00:00	2024-11-06T21:00:00	6	Velocidad del viento	1.6
114598	7	Sololá	702	San José Chacayá	5	Chacayá	8	Agosto	2023-08-20T00:00:00	2024-11-06T21:00:00	7	Dirección del viento	0.8
114599	7	Sololá	702	San José Chacayá	5	Chacayá	8	Agosto	2023-08-20T00:00:00	2024-11-06T21:00:00	1	Precipitación	0
114600	7	Sololá	702	San José Chacayá	5	Chacayá	8	Agosto	2023-08-20T00:00:00	2024-11-06T21:00:00	8	Radiación solar	0
114601	7	Sololá	702	San José Chacayá	5	Chacayá	8	Agosto	2023-08-20T00:00:00	2024-11-06T22:00:00	2	Temperatura media	15.6
114602	7	Sololá	702	San José Chacayá	5	Chacayá	8	Agosto	2023-08-20T00:00:00	2024-11-06T22:00:00	4	Temperatura máxima	15.6
114603	7	Sololá	702	San José Chacayá	5	Chacayá	8	Agosto	2023-08-20T00:00:00	2024-11-06T22:00:00	3	Temperatura mínima	14.6
114604	7	Sololá	702	San José Chacayá	5	Chacayá	8	Agosto	2023-08-20T00:00:00	2024-11-06T22:00:00	5	Humedad	78
114605	7	Sololá	702	San José Chacayá	5	Chacayá	8	Agosto	2023-08-20T00:00:00	2024-11-06T22:00:00	6	Velocidad del viento	3.2
114606	7	Sololá	702	San José Chacayá	5	Chacayá	8	Agosto	2023-08-20T00:00:00	2024-11-06T22:00:00	7	Dirección del viento	1.61
114607	7	Sololá	702	San José Chacayá	5	Chacayá	8	Agosto	2023-08-20T00:00:00	2024-11-06T22:00:00	1	Precipitación	0
114608	7	Sololá	702	San José Chacayá	5	Chacayá	8	Agosto	2023-08-20T00:00:00	2024-11-06T22:00:00	8	Radiación solar	0
114609	7	Sololá	702	San José Chacayá	5	Chacayá	8	Agosto	2023-08-20T00:00:00	2024-11-06T23:00:00	2	Temperatura media	14
114610	7	Sololá	702	San José Chacayá	5	Chacayá	8	Agosto	2023-08-20T00:00:00	2024-11-06T23:00:00	4	Temperatura máxima	15.3
114611	7	Sololá	702	San José Chacayá	5	Chacayá	8	Agosto	2023-08-20T00:00:00	2024-11-06T23:00:00	3	Temperatura mínima	14
114612	7	Sololá	702	San José Chacayá	5	Chacayá	8	Agosto	2023-08-20T00:00:00	2024-11-06T23:00:00	5	Humedad	84
114613	7	Sololá	702	San José Chacayá	5	Chacayá	8	Agosto	2023-08-20T00:00:00	2024-11-06T23:00:00	6	Velocidad del viento	1.6
114614	7	Sololá	702	San José Chacayá	5	Chacayá	8	Agosto	2023-08-20T00:00:00	2024-11-06T23:00:00	7	Dirección del viento	0.8
114615	7	Sololá	702	San José Chacayá	5	Chacayá	8	Agosto	2023-08-20T00:00:00	2024-11-06T23:00:00	1	Precipitación	0
114616	7	Sololá	702	San José Chacayá	5	Chacayá	8	Agosto	2023-08-20T00:00:00	2024-11-06T23:00:00	8	Radiación solar	0
114617	7	Sololá	702	San José Chacayá	5	Chacayá	8	Agosto	2023-08-21T00:00:00	2024-11-06T00:00:00	2	Temperatura media	12.9
114618	7	Sololá	702	San José Chacayá	5	Chacayá	8	Agosto	2023-08-21T00:00:00	2024-11-06T00:00:00	4	Temperatura máxima	13.3
114619	7	Sololá	702	San José Chacayá	5	Chacayá	8	Agosto	2023-08-21T00:00:00	2024-11-06T00:00:00	3	Temperatura mínima	12.9
114620	7	Sololá	702	San José Chacayá	5	Chacayá	8	Agosto	2023-08-21T00:00:00	2024-11-06T00:00:00	5	Humedad	87
114621	7	Sololá	702	San José Chacayá	5	Chacayá	8	Agosto	2023-08-21T00:00:00	2024-11-06T00:00:00	6	Velocidad del viento	1.6
114622	7	Sololá	702	San José Chacayá	5	Chacayá	8	Agosto	2023-08-21T00:00:00	2024-11-06T00:00:00	7	Dirección del viento	0.8
114623	7	Sololá	702	San José Chacayá	5	Chacayá	8	Agosto	2023-08-21T00:00:00	2024-11-06T00:00:00	1	Precipitación	0
114624	7	Sololá	702	San José Chacayá	5	Chacayá	8	Agosto	2023-08-21T00:00:00	2024-11-06T00:00:00	8	Radiación solar	0
114625	7	Sololá	702	San José Chacayá	5	Chacayá	8	Agosto	2023-08-21T00:00:00	2024-11-06T01:00:00	2	Temperatura media	11.7
114626	7	Sololá	702	San José Chacayá	5	Chacayá	8	Agosto	2023-08-21T00:00:00	2024-11-06T01:00:00	4	Temperatura máxima	12.2
114627	7	Sololá	702	San José Chacayá	5	Chacayá	8	Agosto	2023-08-21T00:00:00	2024-11-06T01:00:00	3	Temperatura mínima	11.7
114628	7	Sololá	702	San José Chacayá	5	Chacayá	8	Agosto	2023-08-21T00:00:00	2024-11-06T01:00:00	5	Humedad	90
114629	7	Sololá	702	San José Chacayá	5	Chacayá	8	Agosto	2023-08-21T00:00:00	2024-11-06T01:00:00	6	Velocidad del viento	0
114630	7	Sololá	702	San José Chacayá	5	Chacayá	8	Agosto	2023-08-21T00:00:00	2024-11-06T01:00:00	7	Dirección del viento	0
114631	7	Sololá	702	San José Chacayá	5	Chacayá	8	Agosto	2023-08-21T00:00:00	2024-11-06T01:00:00	1	Precipitación	0
114632	7	Sololá	702	San José Chacayá	5	Chacayá	8	Agosto	2023-08-21T00:00:00	2024-11-06T01:00:00	8	Radiación solar	0
114633	7	Sololá	702	San José Chacayá	5	Chacayá	8	Agosto	2023-08-21T00:00:00	2024-11-06T02:00:00	2	Temperatura media	11.4
114634	7	Sololá	702	San José Chacayá	5	Chacayá	8	Agosto	2023-08-21T00:00:00	2024-11-06T02:00:00	4	Temperatura máxima	11.6
114635	7	Sololá	702	San José Chacayá	5	Chacayá	8	Agosto	2023-08-21T00:00:00	2024-11-06T02:00:00	3	Temperatura mínima	11.4
114636	7	Sololá	702	San José Chacayá	5	Chacayá	8	Agosto	2023-08-21T00:00:00	2024-11-06T02:00:00	5	Humedad	89
114637	7	Sololá	702	San José Chacayá	5	Chacayá	8	Agosto	2023-08-21T00:00:00	2024-11-06T02:00:00	6	Velocidad del viento	0
114638	7	Sololá	702	San José Chacayá	5	Chacayá	8	Agosto	2023-08-21T00:00:00	2024-11-06T02:00:00	7	Dirección del viento	0
114639	7	Sololá	702	San José Chacayá	5	Chacayá	8	Agosto	2023-08-21T00:00:00	2024-11-06T02:00:00	1	Precipitación	0
114640	7	Sololá	702	San José Chacayá	5	Chacayá	8	Agosto	2023-08-21T00:00:00	2024-11-06T02:00:00	8	Radiación solar	0
114641	7	Sololá	702	San José Chacayá	5	Chacayá	8	Agosto	2023-08-21T00:00:00	2024-11-06T03:00:00	2	Temperatura media	10.8
114642	7	Sololá	702	San José Chacayá	5	Chacayá	8	Agosto	2023-08-21T00:00:00	2024-11-06T03:00:00	4	Temperatura máxima	11.1
114643	7	Sololá	702	San José Chacayá	5	Chacayá	8	Agosto	2023-08-21T00:00:00	2024-11-06T03:00:00	3	Temperatura mínima	10.7
114644	7	Sololá	702	San José Chacayá	5	Chacayá	8	Agosto	2023-08-21T00:00:00	2024-11-06T03:00:00	5	Humedad	90
114645	7	Sololá	702	San José Chacayá	5	Chacayá	8	Agosto	2023-08-21T00:00:00	2024-11-06T03:00:00	6	Velocidad del viento	1.6
114646	7	Sololá	702	San José Chacayá	5	Chacayá	8	Agosto	2023-08-21T00:00:00	2024-11-06T03:00:00	7	Dirección del viento	0.8
114647	7	Sololá	702	San José Chacayá	5	Chacayá	8	Agosto	2023-08-21T00:00:00	2024-11-06T03:00:00	1	Precipitación	0
114648	7	Sololá	702	San José Chacayá	5	Chacayá	8	Agosto	2023-08-21T00:00:00	2024-11-06T03:00:00	8	Radiación solar	0
114649	7	Sololá	702	San José Chacayá	5	Chacayá	8	Agosto	2023-08-21T00:00:00	2024-11-06T04:00:00	2	Temperatura media	10.6
114650	7	Sololá	702	San José Chacayá	5	Chacayá	8	Agosto	2023-08-21T00:00:00	2024-11-06T04:00:00	4	Temperatura máxima	10.8
114651	7	Sololá	702	San José Chacayá	5	Chacayá	8	Agosto	2023-08-21T00:00:00	2024-11-06T04:00:00	3	Temperatura mínima	10.6
114652	7	Sololá	702	San José Chacayá	5	Chacayá	8	Agosto	2023-08-21T00:00:00	2024-11-06T04:00:00	5	Humedad	90
114653	7	Sololá	702	San José Chacayá	5	Chacayá	8	Agosto	2023-08-21T00:00:00	2024-11-06T04:00:00	6	Velocidad del viento	1.6
114654	7	Sololá	702	San José Chacayá	5	Chacayá	8	Agosto	2023-08-21T00:00:00	2024-11-06T04:00:00	7	Dirección del viento	0.8
114655	7	Sololá	702	San José Chacayá	5	Chacayá	8	Agosto	2023-08-21T00:00:00	2024-11-06T04:00:00	1	Precipitación	0
114656	7	Sololá	702	San José Chacayá	5	Chacayá	8	Agosto	2023-08-21T00:00:00	2024-11-06T04:00:00	8	Radiación solar	0
114657	7	Sololá	702	San José Chacayá	5	Chacayá	8	Agosto	2023-08-21T00:00:00	2024-11-06T05:00:00	2	Temperatura media	10.6
114658	7	Sololá	702	San José Chacayá	5	Chacayá	8	Agosto	2023-08-21T00:00:00	2024-11-06T05:00:00	4	Temperatura máxima	10.6
114659	7	Sololá	702	San José Chacayá	5	Chacayá	8	Agosto	2023-08-21T00:00:00	2024-11-06T05:00:00	3	Temperatura mínima	10.4
114660	7	Sololá	702	San José Chacayá	5	Chacayá	8	Agosto	2023-08-21T00:00:00	2024-11-06T05:00:00	5	Humedad	91
114661	7	Sololá	702	San José Chacayá	5	Chacayá	8	Agosto	2023-08-21T00:00:00	2024-11-06T05:00:00	6	Velocidad del viento	1.6
114662	7	Sololá	702	San José Chacayá	5	Chacayá	8	Agosto	2023-08-21T00:00:00	2024-11-06T05:00:00	7	Dirección del viento	0.8
114663	7	Sololá	702	San José Chacayá	5	Chacayá	8	Agosto	2023-08-21T00:00:00	2024-11-06T05:00:00	1	Precipitación	0
114664	7	Sololá	702	San José Chacayá	5	Chacayá	8	Agosto	2023-08-21T00:00:00	2024-11-06T05:00:00	8	Radiación solar	0
114665	7	Sololá	702	San José Chacayá	5	Chacayá	8	Agosto	2023-08-21T00:00:00	2024-11-06T06:00:00	2	Temperatura media	10.8
114666	7	Sololá	702	San José Chacayá	5	Chacayá	8	Agosto	2023-08-21T00:00:00	2024-11-06T06:00:00	4	Temperatura máxima	10.8
114667	7	Sololá	702	San José Chacayá	5	Chacayá	8	Agosto	2023-08-21T00:00:00	2024-11-06T06:00:00	3	Temperatura mínima	10.7
114668	7	Sololá	702	San José Chacayá	5	Chacayá	8	Agosto	2023-08-21T00:00:00	2024-11-06T06:00:00	5	Humedad	91
114669	7	Sololá	702	San José Chacayá	5	Chacayá	8	Agosto	2023-08-21T00:00:00	2024-11-06T06:00:00	6	Velocidad del viento	1.6
114670	7	Sololá	702	San José Chacayá	5	Chacayá	8	Agosto	2023-08-21T00:00:00	2024-11-06T06:00:00	7	Dirección del viento	0.8
114671	7	Sololá	702	San José Chacayá	5	Chacayá	8	Agosto	2023-08-21T00:00:00	2024-11-06T06:00:00	1	Precipitación	0
114672	7	Sololá	702	San José Chacayá	5	Chacayá	8	Agosto	2023-08-21T00:00:00	2024-11-06T06:00:00	8	Radiación solar	1
114673	7	Sololá	702	San José Chacayá	5	Chacayá	8	Agosto	2023-08-21T00:00:00	2024-11-06T07:00:00	2	Temperatura media	11.6
114674	7	Sololá	702	San José Chacayá	5	Chacayá	8	Agosto	2023-08-21T00:00:00	2024-11-06T07:00:00	4	Temperatura máxima	11.6
114675	7	Sololá	702	San José Chacayá	5	Chacayá	8	Agosto	2023-08-21T00:00:00	2024-11-06T07:00:00	3	Temperatura mínima	11.1
114676	7	Sololá	702	San José Chacayá	5	Chacayá	8	Agosto	2023-08-21T00:00:00	2024-11-06T07:00:00	5	Humedad	91
114677	7	Sololá	702	San José Chacayá	5	Chacayá	8	Agosto	2023-08-21T00:00:00	2024-11-06T07:00:00	6	Velocidad del viento	0
114678	7	Sololá	702	San José Chacayá	5	Chacayá	8	Agosto	2023-08-21T00:00:00	2024-11-06T07:00:00	7	Dirección del viento	0
114679	7	Sololá	702	San José Chacayá	5	Chacayá	8	Agosto	2023-08-21T00:00:00	2024-11-06T07:00:00	1	Precipitación	0
114680	7	Sololá	702	San José Chacayá	5	Chacayá	8	Agosto	2023-08-21T00:00:00	2024-11-06T07:00:00	8	Radiación solar	70
114681	7	Sololá	702	San José Chacayá	5	Chacayá	8	Agosto	2023-08-21T00:00:00	2024-11-06T08:00:00	2	Temperatura media	14.9
114682	7	Sololá	702	San José Chacayá	5	Chacayá	8	Agosto	2023-08-21T00:00:00	2024-11-06T08:00:00	4	Temperatura máxima	14.9
114683	7	Sololá	702	San José Chacayá	5	Chacayá	8	Agosto	2023-08-21T00:00:00	2024-11-06T08:00:00	3	Temperatura mínima	12.9
114684	7	Sololá	702	San José Chacayá	5	Chacayá	8	Agosto	2023-08-21T00:00:00	2024-11-06T08:00:00	5	Humedad	85
114685	7	Sololá	702	San José Chacayá	5	Chacayá	8	Agosto	2023-08-21T00:00:00	2024-11-06T08:00:00	6	Velocidad del viento	0
114686	7	Sololá	702	San José Chacayá	5	Chacayá	8	Agosto	2023-08-21T00:00:00	2024-11-06T08:00:00	7	Dirección del viento	0
114687	7	Sololá	702	San José Chacayá	5	Chacayá	8	Agosto	2023-08-21T00:00:00	2024-11-06T08:00:00	1	Precipitación	0
114688	7	Sololá	702	San José Chacayá	5	Chacayá	8	Agosto	2023-08-21T00:00:00	2024-11-06T08:00:00	8	Radiación solar	172
114689	7	Sololá	702	San José Chacayá	5	Chacayá	8	Agosto	2023-08-21T00:00:00	2024-11-06T09:00:00	2	Temperatura media	20.2
114690	7	Sololá	702	San José Chacayá	5	Chacayá	8	Agosto	2023-08-21T00:00:00	2024-11-06T09:00:00	4	Temperatura máxima	20.2
114691	7	Sololá	702	San José Chacayá	5	Chacayá	8	Agosto	2023-08-21T00:00:00	2024-11-06T09:00:00	3	Temperatura mínima	17.6
114692	7	Sololá	702	San José Chacayá	5	Chacayá	8	Agosto	2023-08-21T00:00:00	2024-11-06T09:00:00	5	Humedad	61
114693	7	Sololá	702	San José Chacayá	5	Chacayá	8	Agosto	2023-08-21T00:00:00	2024-11-06T09:00:00	6	Velocidad del viento	0
114694	7	Sololá	702	San José Chacayá	5	Chacayá	8	Agosto	2023-08-21T00:00:00	2024-11-06T09:00:00	7	Dirección del viento	0
114695	7	Sololá	702	San José Chacayá	5	Chacayá	8	Agosto	2023-08-21T00:00:00	2024-11-06T09:00:00	1	Precipitación	0
114696	7	Sololá	702	San José Chacayá	5	Chacayá	8	Agosto	2023-08-21T00:00:00	2024-11-06T09:00:00	8	Radiación solar	464
114697	7	Sololá	702	San José Chacayá	5	Chacayá	8	Agosto	2023-08-21T00:00:00	2024-11-06T10:00:00	2	Temperatura media	21.6
114698	7	Sololá	702	San José Chacayá	5	Chacayá	8	Agosto	2023-08-21T00:00:00	2024-11-06T10:00:00	4	Temperatura máxima	21.6
114699	7	Sololá	702	San José Chacayá	5	Chacayá	8	Agosto	2023-08-21T00:00:00	2024-11-06T10:00:00	3	Temperatura mínima	19.9
114700	7	Sololá	702	San José Chacayá	5	Chacayá	8	Agosto	2023-08-21T00:00:00	2024-11-06T10:00:00	5	Humedad	62
114701	7	Sololá	702	San José Chacayá	5	Chacayá	8	Agosto	2023-08-21T00:00:00	2024-11-06T10:00:00	6	Velocidad del viento	1.6
114702	7	Sololá	702	San José Chacayá	5	Chacayá	8	Agosto	2023-08-21T00:00:00	2024-11-06T10:00:00	7	Dirección del viento	0.8
114703	7	Sololá	702	San José Chacayá	5	Chacayá	8	Agosto	2023-08-21T00:00:00	2024-11-06T10:00:00	1	Precipitación	0
114704	7	Sololá	702	San José Chacayá	5	Chacayá	8	Agosto	2023-08-21T00:00:00	2024-11-06T10:00:00	8	Radiación solar	797
114705	7	Sololá	702	San José Chacayá	5	Chacayá	8	Agosto	2023-08-21T00:00:00	2024-11-06T11:00:00	2	Temperatura media	22.6
114706	7	Sololá	702	San José Chacayá	5	Chacayá	8	Agosto	2023-08-21T00:00:00	2024-11-06T11:00:00	4	Temperatura máxima	22.7
114707	7	Sololá	702	San José Chacayá	5	Chacayá	8	Agosto	2023-08-21T00:00:00	2024-11-06T11:00:00	3	Temperatura mínima	21.9
114708	7	Sololá	702	San José Chacayá	5	Chacayá	8	Agosto	2023-08-21T00:00:00	2024-11-06T11:00:00	5	Humedad	61
114709	7	Sololá	702	San José Chacayá	5	Chacayá	8	Agosto	2023-08-21T00:00:00	2024-11-06T11:00:00	6	Velocidad del viento	3.2
114710	7	Sololá	702	San José Chacayá	5	Chacayá	8	Agosto	2023-08-21T00:00:00	2024-11-06T11:00:00	7	Dirección del viento	1.61
114711	7	Sololá	702	San José Chacayá	5	Chacayá	8	Agosto	2023-08-21T00:00:00	2024-11-06T11:00:00	1	Precipitación	0
114712	7	Sololá	702	San José Chacayá	5	Chacayá	8	Agosto	2023-08-21T00:00:00	2024-11-06T11:00:00	8	Radiación solar	899
114713	7	Sololá	702	San José Chacayá	5	Chacayá	8	Agosto	2023-08-21T00:00:00	2024-11-06T12:00:00	2	Temperatura media	23.9
114714	7	Sololá	702	San José Chacayá	5	Chacayá	8	Agosto	2023-08-21T00:00:00	2024-11-06T12:00:00	4	Temperatura máxima	24.2
114715	7	Sololá	702	San José Chacayá	5	Chacayá	8	Agosto	2023-08-21T00:00:00	2024-11-06T12:00:00	3	Temperatura mínima	22.8
114716	7	Sololá	702	San José Chacayá	5	Chacayá	8	Agosto	2023-08-21T00:00:00	2024-11-06T12:00:00	5	Humedad	56
114717	7	Sololá	702	San José Chacayá	5	Chacayá	8	Agosto	2023-08-21T00:00:00	2024-11-06T12:00:00	6	Velocidad del viento	4.8
114718	7	Sololá	702	San José Chacayá	5	Chacayá	8	Agosto	2023-08-21T00:00:00	2024-11-06T12:00:00	7	Dirección del viento	2.41
114719	7	Sololá	702	San José Chacayá	5	Chacayá	8	Agosto	2023-08-21T00:00:00	2024-11-06T12:00:00	1	Precipitación	0
114720	7	Sololá	702	San José Chacayá	5	Chacayá	8	Agosto	2023-08-21T00:00:00	2024-11-06T12:00:00	8	Radiación solar	294
114721	7	Sololá	702	San José Chacayá	5	Chacayá	8	Agosto	2023-08-21T00:00:00	2024-11-06T13:00:00	2	Temperatura media	21.1
114722	7	Sololá	702	San José Chacayá	5	Chacayá	8	Agosto	2023-08-21T00:00:00	2024-11-06T13:00:00	4	Temperatura máxima	23.3
114723	7	Sololá	702	San José Chacayá	5	Chacayá	8	Agosto	2023-08-21T00:00:00	2024-11-06T13:00:00	3	Temperatura mínima	21.1
114724	7	Sololá	702	San José Chacayá	5	Chacayá	8	Agosto	2023-08-21T00:00:00	2024-11-06T13:00:00	5	Humedad	74
114725	7	Sololá	702	San José Chacayá	5	Chacayá	8	Agosto	2023-08-21T00:00:00	2024-11-06T13:00:00	6	Velocidad del viento	4.8
114726	7	Sololá	702	San José Chacayá	5	Chacayá	8	Agosto	2023-08-21T00:00:00	2024-11-06T13:00:00	7	Dirección del viento	2.41
114727	7	Sololá	702	San José Chacayá	5	Chacayá	8	Agosto	2023-08-21T00:00:00	2024-11-06T13:00:00	1	Precipitación	0
114728	7	Sololá	702	San José Chacayá	5	Chacayá	8	Agosto	2023-08-21T00:00:00	2024-11-06T13:00:00	8	Radiación solar	130
114729	7	Sololá	702	San José Chacayá	5	Chacayá	8	Agosto	2023-08-21T00:00:00	2024-11-06T14:00:00	2	Temperatura media	22.8
114730	7	Sololá	702	San José Chacayá	5	Chacayá	8	Agosto	2023-08-21T00:00:00	2024-11-06T14:00:00	4	Temperatura máxima	22.8
114731	7	Sololá	702	San José Chacayá	5	Chacayá	8	Agosto	2023-08-21T00:00:00	2024-11-06T14:00:00	3	Temperatura mínima	22.2
114732	7	Sololá	702	San José Chacayá	5	Chacayá	8	Agosto	2023-08-21T00:00:00	2024-11-06T14:00:00	5	Humedad	73
114733	7	Sololá	702	San José Chacayá	5	Chacayá	8	Agosto	2023-08-21T00:00:00	2024-11-06T14:00:00	6	Velocidad del viento	6.4
114734	7	Sololá	702	San José Chacayá	5	Chacayá	8	Agosto	2023-08-21T00:00:00	2024-11-06T14:00:00	7	Dirección del viento	3.22
114735	7	Sololá	702	San José Chacayá	5	Chacayá	8	Agosto	2023-08-21T00:00:00	2024-11-06T14:00:00	1	Precipitación	0
114736	7	Sololá	702	San José Chacayá	5	Chacayá	8	Agosto	2023-08-21T00:00:00	2024-11-06T14:00:00	8	Radiación solar	202
114737	7	Sololá	702	San José Chacayá	5	Chacayá	8	Agosto	2023-08-21T00:00:00	2024-11-06T15:00:00	2	Temperatura media	22.3
114738	7	Sololá	702	San José Chacayá	5	Chacayá	8	Agosto	2023-08-21T00:00:00	2024-11-06T15:00:00	4	Temperatura máxima	22.7
114739	7	Sololá	702	San José Chacayá	5	Chacayá	8	Agosto	2023-08-21T00:00:00	2024-11-06T15:00:00	3	Temperatura mínima	22.3
114740	7	Sololá	702	San José Chacayá	5	Chacayá	8	Agosto	2023-08-21T00:00:00	2024-11-06T15:00:00	5	Humedad	72
114741	7	Sololá	702	San José Chacayá	5	Chacayá	8	Agosto	2023-08-21T00:00:00	2024-11-06T15:00:00	6	Velocidad del viento	4.8
114742	7	Sololá	702	San José Chacayá	5	Chacayá	8	Agosto	2023-08-21T00:00:00	2024-11-06T15:00:00	7	Dirección del viento	2.41
114743	7	Sololá	702	San José Chacayá	5	Chacayá	8	Agosto	2023-08-21T00:00:00	2024-11-06T15:00:00	1	Precipitación	0
114744	7	Sololá	702	San José Chacayá	5	Chacayá	8	Agosto	2023-08-21T00:00:00	2024-11-06T15:00:00	8	Radiación solar	97
114745	7	Sololá	702	San José Chacayá	5	Chacayá	8	Agosto	2023-08-21T00:00:00	2024-11-06T16:00:00	2	Temperatura media	17.2
114746	7	Sololá	702	San José Chacayá	5	Chacayá	8	Agosto	2023-08-21T00:00:00	2024-11-06T16:00:00	4	Temperatura máxima	19.8
114747	7	Sololá	702	San José Chacayá	5	Chacayá	8	Agosto	2023-08-21T00:00:00	2024-11-06T16:00:00	3	Temperatura mínima	17.2
114748	7	Sololá	702	San José Chacayá	5	Chacayá	8	Agosto	2023-08-21T00:00:00	2024-11-06T16:00:00	5	Humedad	90
114749	7	Sololá	702	San José Chacayá	5	Chacayá	8	Agosto	2023-08-21T00:00:00	2024-11-06T16:00:00	6	Velocidad del viento	6.4
114750	7	Sololá	702	San José Chacayá	5	Chacayá	8	Agosto	2023-08-21T00:00:00	2024-11-06T16:00:00	7	Dirección del viento	3.22
114751	7	Sololá	702	San José Chacayá	5	Chacayá	8	Agosto	2023-08-21T00:00:00	2024-11-06T16:00:00	1	Precipitación	1.02
114752	7	Sololá	702	San José Chacayá	5	Chacayá	8	Agosto	2023-08-21T00:00:00	2024-11-06T16:00:00	8	Radiación solar	326
114753	7	Sololá	702	San José Chacayá	5	Chacayá	8	Agosto	2023-08-21T00:00:00	2024-11-06T17:00:00	2	Temperatura media	15.7
114754	7	Sololá	702	San José Chacayá	5	Chacayá	8	Agosto	2023-08-21T00:00:00	2024-11-06T17:00:00	4	Temperatura máxima	16.5
114755	7	Sololá	702	San José Chacayá	5	Chacayá	8	Agosto	2023-08-21T00:00:00	2024-11-06T17:00:00	3	Temperatura mínima	15.6
114756	7	Sololá	702	San José Chacayá	5	Chacayá	8	Agosto	2023-08-21T00:00:00	2024-11-06T17:00:00	5	Humedad	93
114757	7	Sololá	702	San José Chacayá	5	Chacayá	8	Agosto	2023-08-21T00:00:00	2024-11-06T17:00:00	6	Velocidad del viento	3.2
114758	7	Sololá	702	San José Chacayá	5	Chacayá	8	Agosto	2023-08-21T00:00:00	2024-11-06T17:00:00	7	Dirección del viento	1.61
114759	7	Sololá	702	San José Chacayá	5	Chacayá	8	Agosto	2023-08-21T00:00:00	2024-11-06T17:00:00	1	Precipitación	22.1
114760	7	Sololá	702	San José Chacayá	5	Chacayá	8	Agosto	2023-08-21T00:00:00	2024-11-06T17:00:00	8	Radiación solar	71
114761	7	Sololá	702	San José Chacayá	5	Chacayá	8	Agosto	2023-08-21T00:00:00	2024-11-06T18:00:00	2	Temperatura media	15.6
114762	7	Sololá	702	San José Chacayá	5	Chacayá	8	Agosto	2023-08-21T00:00:00	2024-11-06T18:00:00	4	Temperatura máxima	15.7
114763	7	Sololá	702	San José Chacayá	5	Chacayá	8	Agosto	2023-08-21T00:00:00	2024-11-06T18:00:00	3	Temperatura mínima	15.6
114764	7	Sololá	702	San José Chacayá	5	Chacayá	8	Agosto	2023-08-21T00:00:00	2024-11-06T18:00:00	5	Humedad	94
114765	7	Sololá	702	San José Chacayá	5	Chacayá	8	Agosto	2023-08-21T00:00:00	2024-11-06T18:00:00	6	Velocidad del viento	0
114766	7	Sololá	702	San José Chacayá	5	Chacayá	8	Agosto	2023-08-21T00:00:00	2024-11-06T18:00:00	7	Dirección del viento	0
114767	7	Sololá	702	San José Chacayá	5	Chacayá	8	Agosto	2023-08-21T00:00:00	2024-11-06T18:00:00	1	Precipitación	0
114768	7	Sololá	702	San José Chacayá	5	Chacayá	8	Agosto	2023-08-21T00:00:00	2024-11-06T18:00:00	8	Radiación solar	10
114769	7	Sololá	702	San José Chacayá	5	Chacayá	8	Agosto	2023-08-21T00:00:00	2024-11-06T19:00:00	2	Temperatura media	14.9
114770	7	Sololá	702	San José Chacayá	5	Chacayá	8	Agosto	2023-08-21T00:00:00	2024-11-06T19:00:00	4	Temperatura máxima	15.4
114771	7	Sololá	702	San José Chacayá	5	Chacayá	8	Agosto	2023-08-21T00:00:00	2024-11-06T19:00:00	3	Temperatura mínima	14.9
114772	7	Sololá	702	San José Chacayá	5	Chacayá	8	Agosto	2023-08-21T00:00:00	2024-11-06T19:00:00	5	Humedad	93
114773	7	Sololá	702	San José Chacayá	5	Chacayá	8	Agosto	2023-08-21T00:00:00	2024-11-06T19:00:00	6	Velocidad del viento	0
114774	7	Sololá	702	San José Chacayá	5	Chacayá	8	Agosto	2023-08-21T00:00:00	2024-11-06T19:00:00	7	Dirección del viento	0
114775	7	Sololá	702	San José Chacayá	5	Chacayá	8	Agosto	2023-08-21T00:00:00	2024-11-06T19:00:00	1	Precipitación	0
114776	7	Sololá	702	San José Chacayá	5	Chacayá	8	Agosto	2023-08-21T00:00:00	2024-11-06T19:00:00	8	Radiación solar	0
114777	7	Sololá	702	San José Chacayá	5	Chacayá	8	Agosto	2023-08-21T00:00:00	2024-11-06T20:00:00	2	Temperatura media	14.7
114778	7	Sololá	702	San José Chacayá	5	Chacayá	8	Agosto	2023-08-21T00:00:00	2024-11-06T20:00:00	4	Temperatura máxima	14.8
114779	7	Sololá	702	San José Chacayá	5	Chacayá	8	Agosto	2023-08-21T00:00:00	2024-11-06T20:00:00	3	Temperatura mínima	14.6
114780	7	Sololá	702	San José Chacayá	5	Chacayá	8	Agosto	2023-08-21T00:00:00	2024-11-06T20:00:00	5	Humedad	94
114781	7	Sololá	702	San José Chacayá	5	Chacayá	8	Agosto	2023-08-21T00:00:00	2024-11-06T20:00:00	6	Velocidad del viento	0
114782	7	Sololá	702	San José Chacayá	5	Chacayá	8	Agosto	2023-08-21T00:00:00	2024-11-06T20:00:00	7	Dirección del viento	0
114783	7	Sololá	702	San José Chacayá	5	Chacayá	8	Agosto	2023-08-21T00:00:00	2024-11-06T20:00:00	1	Precipitación	0
114784	7	Sololá	702	San José Chacayá	5	Chacayá	8	Agosto	2023-08-21T00:00:00	2024-11-06T20:00:00	8	Radiación solar	0
114785	7	Sololá	702	San José Chacayá	5	Chacayá	8	Agosto	2023-08-21T00:00:00	2024-11-06T21:00:00	2	Temperatura media	14.5
114786	7	Sololá	702	San José Chacayá	5	Chacayá	8	Agosto	2023-08-21T00:00:00	2024-11-06T21:00:00	4	Temperatura máxima	14.7
114787	7	Sololá	702	San José Chacayá	5	Chacayá	8	Agosto	2023-08-21T00:00:00	2024-11-06T21:00:00	3	Temperatura mínima	14.5
114788	7	Sololá	702	San José Chacayá	5	Chacayá	8	Agosto	2023-08-21T00:00:00	2024-11-06T21:00:00	5	Humedad	94
114789	7	Sololá	702	San José Chacayá	5	Chacayá	8	Agosto	2023-08-21T00:00:00	2024-11-06T21:00:00	6	Velocidad del viento	0
114790	7	Sololá	702	San José Chacayá	5	Chacayá	8	Agosto	2023-08-21T00:00:00	2024-11-06T21:00:00	7	Dirección del viento	0
114791	7	Sololá	702	San José Chacayá	5	Chacayá	8	Agosto	2023-08-21T00:00:00	2024-11-06T21:00:00	1	Precipitación	0.25
114792	7	Sololá	702	San José Chacayá	5	Chacayá	8	Agosto	2023-08-21T00:00:00	2024-11-06T21:00:00	8	Radiación solar	0
114793	7	Sololá	702	San José Chacayá	5	Chacayá	8	Agosto	2023-08-21T00:00:00	2024-11-06T22:00:00	2	Temperatura media	14.3
114794	7	Sololá	702	San José Chacayá	5	Chacayá	8	Agosto	2023-08-21T00:00:00	2024-11-06T22:00:00	4	Temperatura máxima	14.3
114795	7	Sololá	702	San José Chacayá	5	Chacayá	8	Agosto	2023-08-21T00:00:00	2024-11-06T22:00:00	3	Temperatura mínima	14.3
114796	7	Sololá	702	San José Chacayá	5	Chacayá	8	Agosto	2023-08-21T00:00:00	2024-11-06T22:00:00	5	Humedad	95
114797	7	Sololá	702	San José Chacayá	5	Chacayá	8	Agosto	2023-08-21T00:00:00	2024-11-06T22:00:00	6	Velocidad del viento	0
114798	7	Sololá	702	San José Chacayá	5	Chacayá	8	Agosto	2023-08-21T00:00:00	2024-11-06T22:00:00	7	Dirección del viento	0
114799	7	Sololá	702	San José Chacayá	5	Chacayá	8	Agosto	2023-08-21T00:00:00	2024-11-06T22:00:00	1	Precipitación	0
114800	7	Sololá	702	San José Chacayá	5	Chacayá	8	Agosto	2023-08-21T00:00:00	2024-11-06T22:00:00	8	Radiación solar	0
114801	7	Sololá	702	San José Chacayá	5	Chacayá	8	Agosto	2023-08-21T00:00:00	2024-11-06T23:00:00	2	Temperatura media	14.1
114802	7	Sololá	702	San José Chacayá	5	Chacayá	8	Agosto	2023-08-21T00:00:00	2024-11-06T23:00:00	4	Temperatura máxima	14.4
114803	7	Sololá	702	San José Chacayá	5	Chacayá	8	Agosto	2023-08-21T00:00:00	2024-11-06T23:00:00	3	Temperatura mínima	14.1
114804	7	Sololá	702	San José Chacayá	5	Chacayá	8	Agosto	2023-08-21T00:00:00	2024-11-06T23:00:00	5	Humedad	92
114805	7	Sololá	702	San José Chacayá	5	Chacayá	8	Agosto	2023-08-21T00:00:00	2024-11-06T23:00:00	6	Velocidad del viento	1.6
114806	7	Sololá	702	San José Chacayá	5	Chacayá	8	Agosto	2023-08-21T00:00:00	2024-11-06T23:00:00	7	Dirección del viento	0.8
114807	7	Sololá	702	San José Chacayá	5	Chacayá	8	Agosto	2023-08-21T00:00:00	2024-11-06T23:00:00	1	Precipitación	0
114808	7	Sololá	702	San José Chacayá	5	Chacayá	8	Agosto	2023-08-21T00:00:00	2024-11-06T23:00:00	8	Radiación solar	0
114809	7	Sololá	702	San José Chacayá	5	Chacayá	8	Agosto	2023-08-22T00:00:00	2024-11-06T00:00:00	2	Temperatura media	14.3
114810	7	Sololá	702	San José Chacayá	5	Chacayá	8	Agosto	2023-08-22T00:00:00	2024-11-06T00:00:00	4	Temperatura máxima	14.3
114811	7	Sololá	702	San José Chacayá	5	Chacayá	8	Agosto	2023-08-22T00:00:00	2024-11-06T00:00:00	3	Temperatura mínima	14.1
114812	7	Sololá	702	San José Chacayá	5	Chacayá	8	Agosto	2023-08-22T00:00:00	2024-11-06T00:00:00	5	Humedad	88
114813	7	Sololá	702	San José Chacayá	5	Chacayá	8	Agosto	2023-08-22T00:00:00	2024-11-06T00:00:00	6	Velocidad del viento	1.6
114814	7	Sololá	702	San José Chacayá	5	Chacayá	8	Agosto	2023-08-22T00:00:00	2024-11-06T00:00:00	7	Dirección del viento	0.8
114815	7	Sololá	702	San José Chacayá	5	Chacayá	8	Agosto	2023-08-22T00:00:00	2024-11-06T00:00:00	1	Precipitación	0
114816	7	Sololá	702	San José Chacayá	5	Chacayá	8	Agosto	2023-08-22T00:00:00	2024-11-06T00:00:00	8	Radiación solar	0
114817	7	Sololá	702	San José Chacayá	5	Chacayá	8	Agosto	2023-08-22T00:00:00	2024-11-06T01:00:00	2	Temperatura media	14.1
114818	7	Sololá	702	San José Chacayá	5	Chacayá	8	Agosto	2023-08-22T00:00:00	2024-11-06T01:00:00	4	Temperatura máxima	14.6
114819	7	Sololá	702	San José Chacayá	5	Chacayá	8	Agosto	2023-08-22T00:00:00	2024-11-06T01:00:00	3	Temperatura mínima	14.1
114820	7	Sololá	702	San José Chacayá	5	Chacayá	8	Agosto	2023-08-22T00:00:00	2024-11-06T01:00:00	5	Humedad	88
114821	7	Sololá	702	San José Chacayá	5	Chacayá	8	Agosto	2023-08-22T00:00:00	2024-11-06T01:00:00	6	Velocidad del viento	1.6
114822	7	Sololá	702	San José Chacayá	5	Chacayá	8	Agosto	2023-08-22T00:00:00	2024-11-06T01:00:00	7	Dirección del viento	0.8
114823	7	Sololá	702	San José Chacayá	5	Chacayá	8	Agosto	2023-08-22T00:00:00	2024-11-06T01:00:00	1	Precipitación	0
114824	7	Sololá	702	San José Chacayá	5	Chacayá	8	Agosto	2023-08-22T00:00:00	2024-11-06T01:00:00	8	Radiación solar	0
114825	7	Sololá	702	San José Chacayá	5	Chacayá	8	Agosto	2023-08-22T00:00:00	2024-11-06T02:00:00	2	Temperatura media	12.9
114826	7	Sololá	702	San José Chacayá	5	Chacayá	8	Agosto	2023-08-22T00:00:00	2024-11-06T02:00:00	4	Temperatura máxima	13.6
114827	7	Sololá	702	San José Chacayá	5	Chacayá	8	Agosto	2023-08-22T00:00:00	2024-11-06T02:00:00	3	Temperatura mínima	12.9
114828	7	Sololá	702	San José Chacayá	5	Chacayá	8	Agosto	2023-08-22T00:00:00	2024-11-06T02:00:00	5	Humedad	91
114829	7	Sololá	702	San José Chacayá	5	Chacayá	8	Agosto	2023-08-22T00:00:00	2024-11-06T02:00:00	6	Velocidad del viento	0
114830	7	Sololá	702	San José Chacayá	5	Chacayá	8	Agosto	2023-08-22T00:00:00	2024-11-06T02:00:00	7	Dirección del viento	0
114831	7	Sololá	702	San José Chacayá	5	Chacayá	8	Agosto	2023-08-22T00:00:00	2024-11-06T02:00:00	1	Precipitación	0
114832	7	Sololá	702	San José Chacayá	5	Chacayá	8	Agosto	2023-08-22T00:00:00	2024-11-06T02:00:00	8	Radiación solar	0
114833	7	Sololá	702	San José Chacayá	5	Chacayá	8	Agosto	2023-08-22T00:00:00	2024-11-06T03:00:00	2	Temperatura media	12.1
114834	7	Sololá	702	San José Chacayá	5	Chacayá	8	Agosto	2023-08-22T00:00:00	2024-11-06T03:00:00	4	Temperatura máxima	12.5
114835	7	Sololá	702	San José Chacayá	5	Chacayá	8	Agosto	2023-08-22T00:00:00	2024-11-06T03:00:00	3	Temperatura mínima	12.1
114836	7	Sololá	702	San José Chacayá	5	Chacayá	8	Agosto	2023-08-22T00:00:00	2024-11-06T03:00:00	5	Humedad	92
114837	7	Sololá	702	San José Chacayá	5	Chacayá	8	Agosto	2023-08-22T00:00:00	2024-11-06T03:00:00	6	Velocidad del viento	0
114838	7	Sololá	702	San José Chacayá	5	Chacayá	8	Agosto	2023-08-22T00:00:00	2024-11-06T03:00:00	7	Dirección del viento	0
114839	7	Sololá	702	San José Chacayá	5	Chacayá	8	Agosto	2023-08-22T00:00:00	2024-11-06T03:00:00	1	Precipitación	0
114840	7	Sololá	702	San José Chacayá	5	Chacayá	8	Agosto	2023-08-22T00:00:00	2024-11-06T03:00:00	8	Radiación solar	0
114841	7	Sololá	702	San José Chacayá	5	Chacayá	8	Agosto	2023-08-22T00:00:00	2024-11-06T04:00:00	2	Temperatura media	11.3
114842	7	Sololá	702	San José Chacayá	5	Chacayá	8	Agosto	2023-08-22T00:00:00	2024-11-06T04:00:00	4	Temperatura máxima	11.7
114843	7	Sololá	702	San José Chacayá	5	Chacayá	8	Agosto	2023-08-22T00:00:00	2024-11-06T04:00:00	3	Temperatura mínima	11.3
114844	7	Sololá	702	San José Chacayá	5	Chacayá	8	Agosto	2023-08-22T00:00:00	2024-11-06T04:00:00	5	Humedad	93
114845	7	Sololá	702	San José Chacayá	5	Chacayá	8	Agosto	2023-08-22T00:00:00	2024-11-06T04:00:00	6	Velocidad del viento	0
114846	7	Sololá	702	San José Chacayá	5	Chacayá	8	Agosto	2023-08-22T00:00:00	2024-11-06T04:00:00	7	Dirección del viento	0
114847	7	Sololá	702	San José Chacayá	5	Chacayá	8	Agosto	2023-08-22T00:00:00	2024-11-06T04:00:00	1	Precipitación	0
114848	7	Sololá	702	San José Chacayá	5	Chacayá	8	Agosto	2023-08-22T00:00:00	2024-11-06T04:00:00	8	Radiación solar	0
114849	7	Sololá	702	San José Chacayá	5	Chacayá	8	Agosto	2023-08-22T00:00:00	2024-11-06T05:00:00	2	Temperatura media	10.9
114850	7	Sololá	702	San José Chacayá	5	Chacayá	8	Agosto	2023-08-22T00:00:00	2024-11-06T05:00:00	4	Temperatura máxima	11.2
114851	7	Sololá	702	San José Chacayá	5	Chacayá	8	Agosto	2023-08-22T00:00:00	2024-11-06T05:00:00	3	Temperatura mínima	10.9
114852	7	Sololá	702	San José Chacayá	5	Chacayá	8	Agosto	2023-08-22T00:00:00	2024-11-06T05:00:00	5	Humedad	93
114853	7	Sololá	702	San José Chacayá	5	Chacayá	8	Agosto	2023-08-22T00:00:00	2024-11-06T05:00:00	6	Velocidad del viento	0
114854	7	Sololá	702	San José Chacayá	5	Chacayá	8	Agosto	2023-08-22T00:00:00	2024-11-06T05:00:00	7	Dirección del viento	0
114855	7	Sololá	702	San José Chacayá	5	Chacayá	8	Agosto	2023-08-22T00:00:00	2024-11-06T05:00:00	1	Precipitación	0
114856	7	Sololá	702	San José Chacayá	5	Chacayá	8	Agosto	2023-08-22T00:00:00	2024-11-06T05:00:00	8	Radiación solar	0
114857	7	Sololá	702	San José Chacayá	5	Chacayá	8	Agosto	2023-08-22T00:00:00	2024-11-06T06:00:00	2	Temperatura media	10.8
114858	7	Sololá	702	San José Chacayá	5	Chacayá	8	Agosto	2023-08-22T00:00:00	2024-11-06T06:00:00	4	Temperatura máxima	10.9
114859	7	Sololá	702	San José Chacayá	5	Chacayá	8	Agosto	2023-08-22T00:00:00	2024-11-06T06:00:00	3	Temperatura mínima	10.7
114860	7	Sololá	702	San José Chacayá	5	Chacayá	8	Agosto	2023-08-22T00:00:00	2024-11-06T06:00:00	5	Humedad	93
114861	7	Sololá	702	San José Chacayá	5	Chacayá	8	Agosto	2023-08-22T00:00:00	2024-11-06T06:00:00	6	Velocidad del viento	1.6
114862	7	Sololá	702	San José Chacayá	5	Chacayá	8	Agosto	2023-08-22T00:00:00	2024-11-06T06:00:00	7	Dirección del viento	0.8
114863	7	Sololá	702	San José Chacayá	5	Chacayá	8	Agosto	2023-08-22T00:00:00	2024-11-06T06:00:00	1	Precipitación	0
114864	7	Sololá	702	San José Chacayá	5	Chacayá	8	Agosto	2023-08-22T00:00:00	2024-11-06T06:00:00	8	Radiación solar	1
114865	7	Sololá	702	San José Chacayá	5	Chacayá	8	Agosto	2023-08-22T00:00:00	2024-11-06T07:00:00	2	Temperatura media	11.7
114866	7	Sololá	702	San José Chacayá	5	Chacayá	8	Agosto	2023-08-22T00:00:00	2024-11-06T07:00:00	4	Temperatura máxima	11.7
114867	7	Sololá	702	San José Chacayá	5	Chacayá	8	Agosto	2023-08-22T00:00:00	2024-11-06T07:00:00	3	Temperatura mínima	10.8
114868	7	Sololá	702	San José Chacayá	5	Chacayá	8	Agosto	2023-08-22T00:00:00	2024-11-06T07:00:00	5	Humedad	93
114869	7	Sololá	702	San José Chacayá	5	Chacayá	8	Agosto	2023-08-22T00:00:00	2024-11-06T07:00:00	6	Velocidad del viento	1.6
114870	7	Sololá	702	San José Chacayá	5	Chacayá	8	Agosto	2023-08-22T00:00:00	2024-11-06T07:00:00	7	Dirección del viento	0.8
114871	7	Sololá	702	San José Chacayá	5	Chacayá	8	Agosto	2023-08-22T00:00:00	2024-11-06T07:00:00	1	Precipitación	0
114872	7	Sololá	702	San José Chacayá	5	Chacayá	8	Agosto	2023-08-22T00:00:00	2024-11-06T07:00:00	8	Radiación solar	34
114873	7	Sololá	702	San José Chacayá	5	Chacayá	8	Agosto	2023-08-22T00:00:00	2024-11-06T08:00:00	2	Temperatura media	15.7
114874	7	Sololá	702	San José Chacayá	5	Chacayá	8	Agosto	2023-08-22T00:00:00	2024-11-06T08:00:00	4	Temperatura máxima	15.7
114875	7	Sololá	702	San José Chacayá	5	Chacayá	8	Agosto	2023-08-22T00:00:00	2024-11-06T08:00:00	3	Temperatura mínima	13.4
114876	7	Sololá	702	San José Chacayá	5	Chacayá	8	Agosto	2023-08-22T00:00:00	2024-11-06T08:00:00	5	Humedad	80
114877	7	Sololá	702	San José Chacayá	5	Chacayá	8	Agosto	2023-08-22T00:00:00	2024-11-06T08:00:00	6	Velocidad del viento	1.6
114878	7	Sololá	702	San José Chacayá	5	Chacayá	8	Agosto	2023-08-22T00:00:00	2024-11-06T08:00:00	7	Dirección del viento	0.8
114879	7	Sololá	702	San José Chacayá	5	Chacayá	8	Agosto	2023-08-22T00:00:00	2024-11-06T08:00:00	1	Precipitación	0
114880	7	Sololá	702	San José Chacayá	5	Chacayá	8	Agosto	2023-08-22T00:00:00	2024-11-06T08:00:00	8	Radiación solar	126
114881	7	Sololá	702	San José Chacayá	5	Chacayá	8	Agosto	2023-08-22T00:00:00	2024-11-06T09:00:00	2	Temperatura media	19.2
114882	7	Sololá	702	San José Chacayá	5	Chacayá	8	Agosto	2023-08-22T00:00:00	2024-11-06T09:00:00	4	Temperatura máxima	19.2
114883	7	Sololá	702	San José Chacayá	5	Chacayá	8	Agosto	2023-08-22T00:00:00	2024-11-06T09:00:00	3	Temperatura mínima	17.8
114884	7	Sololá	702	San José Chacayá	5	Chacayá	8	Agosto	2023-08-22T00:00:00	2024-11-06T09:00:00	5	Humedad	70
114885	7	Sololá	702	San José Chacayá	5	Chacayá	8	Agosto	2023-08-22T00:00:00	2024-11-06T09:00:00	6	Velocidad del viento	6.4
114886	7	Sololá	702	San José Chacayá	5	Chacayá	8	Agosto	2023-08-22T00:00:00	2024-11-06T09:00:00	7	Dirección del viento	3.22
114887	7	Sololá	702	San José Chacayá	5	Chacayá	8	Agosto	2023-08-22T00:00:00	2024-11-06T09:00:00	1	Precipitación	0
114888	7	Sololá	702	San José Chacayá	5	Chacayá	8	Agosto	2023-08-22T00:00:00	2024-11-06T09:00:00	8	Radiación solar	409
114889	7	Sololá	702	San José Chacayá	5	Chacayá	8	Agosto	2023-08-22T00:00:00	2024-11-06T10:00:00	2	Temperatura media	22.4
114890	7	Sololá	702	San José Chacayá	5	Chacayá	8	Agosto	2023-08-22T00:00:00	2024-11-06T10:00:00	4	Temperatura máxima	22.4
114891	7	Sololá	702	San José Chacayá	5	Chacayá	8	Agosto	2023-08-22T00:00:00	2024-11-06T10:00:00	3	Temperatura mínima	20.3
114892	7	Sololá	702	San José Chacayá	5	Chacayá	8	Agosto	2023-08-22T00:00:00	2024-11-06T10:00:00	5	Humedad	62
114893	7	Sololá	702	San José Chacayá	5	Chacayá	8	Agosto	2023-08-22T00:00:00	2024-11-06T10:00:00	6	Velocidad del viento	4.8
114894	7	Sololá	702	San José Chacayá	5	Chacayá	8	Agosto	2023-08-22T00:00:00	2024-11-06T10:00:00	7	Dirección del viento	2.41
114895	7	Sololá	702	San José Chacayá	5	Chacayá	8	Agosto	2023-08-22T00:00:00	2024-11-06T10:00:00	1	Precipitación	0
114896	7	Sololá	702	San José Chacayá	5	Chacayá	8	Agosto	2023-08-22T00:00:00	2024-11-06T10:00:00	8	Radiación solar	543
114897	7	Sololá	702	San José Chacayá	5	Chacayá	8	Agosto	2023-08-22T00:00:00	2024-11-06T11:00:00	2	Temperatura media	23.6
114898	7	Sololá	702	San José Chacayá	5	Chacayá	8	Agosto	2023-08-22T00:00:00	2024-11-06T11:00:00	4	Temperatura máxima	23.7
114899	7	Sololá	702	San José Chacayá	5	Chacayá	8	Agosto	2023-08-22T00:00:00	2024-11-06T11:00:00	3	Temperatura mínima	22.8
114900	7	Sololá	702	San José Chacayá	5	Chacayá	8	Agosto	2023-08-22T00:00:00	2024-11-06T11:00:00	5	Humedad	57
114901	7	Sololá	702	San José Chacayá	5	Chacayá	8	Agosto	2023-08-22T00:00:00	2024-11-06T11:00:00	6	Velocidad del viento	6.4
114902	7	Sololá	702	San José Chacayá	5	Chacayá	8	Agosto	2023-08-22T00:00:00	2024-11-06T11:00:00	7	Dirección del viento	3.22
114903	7	Sololá	702	San José Chacayá	5	Chacayá	8	Agosto	2023-08-22T00:00:00	2024-11-06T11:00:00	1	Precipitación	0
114904	7	Sololá	702	San José Chacayá	5	Chacayá	8	Agosto	2023-08-22T00:00:00	2024-11-06T11:00:00	8	Radiación solar	292
114905	7	Sololá	702	San José Chacayá	5	Chacayá	8	Agosto	2023-08-22T00:00:00	2024-11-06T12:00:00	2	Temperatura media	23.2
114906	7	Sololá	702	San José Chacayá	5	Chacayá	8	Agosto	2023-08-22T00:00:00	2024-11-06T12:00:00	4	Temperatura máxima	23.3
114907	7	Sololá	702	San José Chacayá	5	Chacayá	8	Agosto	2023-08-22T00:00:00	2024-11-06T12:00:00	3	Temperatura mínima	22.4
114908	7	Sololá	702	San José Chacayá	5	Chacayá	8	Agosto	2023-08-22T00:00:00	2024-11-06T12:00:00	5	Humedad	62
114909	7	Sololá	702	San José Chacayá	5	Chacayá	8	Agosto	2023-08-22T00:00:00	2024-11-06T12:00:00	6	Velocidad del viento	6.4
114910	7	Sololá	702	San José Chacayá	5	Chacayá	8	Agosto	2023-08-22T00:00:00	2024-11-06T12:00:00	7	Dirección del viento	3.22
114911	7	Sololá	702	San José Chacayá	5	Chacayá	8	Agosto	2023-08-22T00:00:00	2024-11-06T12:00:00	1	Precipitación	0
114912	7	Sololá	702	San José Chacayá	5	Chacayá	8	Agosto	2023-08-22T00:00:00	2024-11-06T12:00:00	8	Radiación solar	259
114913	7	Sololá	702	San José Chacayá	5	Chacayá	8	Agosto	2023-08-22T00:00:00	2024-11-06T13:00:00	2	Temperatura media	21.2
114914	7	Sololá	702	San José Chacayá	5	Chacayá	8	Agosto	2023-08-22T00:00:00	2024-11-06T13:00:00	4	Temperatura máxima	23.2
114915	7	Sololá	702	San José Chacayá	5	Chacayá	8	Agosto	2023-08-22T00:00:00	2024-11-06T13:00:00	3	Temperatura mínima	21.2
114916	7	Sololá	702	San José Chacayá	5	Chacayá	8	Agosto	2023-08-22T00:00:00	2024-11-06T13:00:00	5	Humedad	70
114917	7	Sololá	702	San José Chacayá	5	Chacayá	8	Agosto	2023-08-22T00:00:00	2024-11-06T13:00:00	6	Velocidad del viento	3.2
114918	7	Sololá	702	San José Chacayá	5	Chacayá	8	Agosto	2023-08-22T00:00:00	2024-11-06T13:00:00	7	Dirección del viento	1.61
114919	7	Sololá	702	San José Chacayá	5	Chacayá	8	Agosto	2023-08-22T00:00:00	2024-11-06T13:00:00	1	Precipitación	0
114920	7	Sololá	702	San José Chacayá	5	Chacayá	8	Agosto	2023-08-22T00:00:00	2024-11-06T13:00:00	8	Radiación solar	145
114921	7	Sololá	702	San José Chacayá	5	Chacayá	8	Agosto	2023-08-22T00:00:00	2024-11-06T14:00:00	2	Temperatura media	20.7
114922	7	Sololá	702	San José Chacayá	5	Chacayá	8	Agosto	2023-08-22T00:00:00	2024-11-06T14:00:00	4	Temperatura máxima	21.2
114923	7	Sololá	702	San José Chacayá	5	Chacayá	8	Agosto	2023-08-22T00:00:00	2024-11-06T14:00:00	3	Temperatura mínima	20.4
114924	7	Sololá	702	San José Chacayá	5	Chacayá	8	Agosto	2023-08-22T00:00:00	2024-11-06T14:00:00	5	Humedad	72
114925	7	Sololá	702	San José Chacayá	5	Chacayá	8	Agosto	2023-08-22T00:00:00	2024-11-06T14:00:00	6	Velocidad del viento	4.8
114926	7	Sololá	702	San José Chacayá	5	Chacayá	8	Agosto	2023-08-22T00:00:00	2024-11-06T14:00:00	7	Dirección del viento	2.41
114927	7	Sololá	702	San José Chacayá	5	Chacayá	8	Agosto	2023-08-22T00:00:00	2024-11-06T14:00:00	1	Precipitación	0
114928	7	Sololá	702	San José Chacayá	5	Chacayá	8	Agosto	2023-08-22T00:00:00	2024-11-06T14:00:00	8	Radiación solar	91
114929	7	Sololá	702	San José Chacayá	5	Chacayá	8	Agosto	2023-08-22T00:00:00	2024-11-06T15:00:00	2	Temperatura media	21.5
114930	7	Sololá	702	San José Chacayá	5	Chacayá	8	Agosto	2023-08-22T00:00:00	2024-11-06T15:00:00	4	Temperatura máxima	21.5
114931	7	Sololá	702	San José Chacayá	5	Chacayá	8	Agosto	2023-08-22T00:00:00	2024-11-06T15:00:00	3	Temperatura mínima	21.1
114932	7	Sololá	702	San José Chacayá	5	Chacayá	8	Agosto	2023-08-22T00:00:00	2024-11-06T15:00:00	5	Humedad	67
114933	7	Sololá	702	San José Chacayá	5	Chacayá	8	Agosto	2023-08-22T00:00:00	2024-11-06T15:00:00	6	Velocidad del viento	4.8
114934	7	Sololá	702	San José Chacayá	5	Chacayá	8	Agosto	2023-08-22T00:00:00	2024-11-06T15:00:00	7	Dirección del viento	2.41
114935	7	Sololá	702	San José Chacayá	5	Chacayá	8	Agosto	2023-08-22T00:00:00	2024-11-06T15:00:00	1	Precipitación	0
114936	7	Sololá	702	San José Chacayá	5	Chacayá	8	Agosto	2023-08-22T00:00:00	2024-11-06T15:00:00	8	Radiación solar	119
114937	7	Sololá	702	San José Chacayá	5	Chacayá	8	Agosto	2023-08-22T00:00:00	2024-11-06T16:00:00	2	Temperatura media	19.7
114938	7	Sololá	702	San José Chacayá	5	Chacayá	8	Agosto	2023-08-22T00:00:00	2024-11-06T16:00:00	4	Temperatura máxima	20.7
114939	7	Sololá	702	San José Chacayá	5	Chacayá	8	Agosto	2023-08-22T00:00:00	2024-11-06T16:00:00	3	Temperatura mínima	19.3
114940	7	Sololá	702	San José Chacayá	5	Chacayá	8	Agosto	2023-08-22T00:00:00	2024-11-06T16:00:00	5	Humedad	75
114941	7	Sololá	702	San José Chacayá	5	Chacayá	8	Agosto	2023-08-22T00:00:00	2024-11-06T16:00:00	6	Velocidad del viento	1.6
114942	7	Sololá	702	San José Chacayá	5	Chacayá	8	Agosto	2023-08-22T00:00:00	2024-11-06T16:00:00	7	Dirección del viento	0.8
114943	7	Sololá	702	San José Chacayá	5	Chacayá	8	Agosto	2023-08-22T00:00:00	2024-11-06T16:00:00	1	Precipitación	0
114944	7	Sololá	702	San José Chacayá	5	Chacayá	8	Agosto	2023-08-22T00:00:00	2024-11-06T16:00:00	8	Radiación solar	209
114945	7	Sololá	702	San José Chacayá	5	Chacayá	8	Agosto	2023-08-22T00:00:00	2024-11-06T17:00:00	2	Temperatura media	19.1
114946	7	Sololá	702	San José Chacayá	5	Chacayá	8	Agosto	2023-08-22T00:00:00	2024-11-06T17:00:00	4	Temperatura máxima	20.2
114947	7	Sololá	702	San José Chacayá	5	Chacayá	8	Agosto	2023-08-22T00:00:00	2024-11-06T17:00:00	3	Temperatura mínima	19.1
114948	7	Sololá	702	San José Chacayá	5	Chacayá	8	Agosto	2023-08-22T00:00:00	2024-11-06T17:00:00	5	Humedad	79
114949	7	Sololá	702	San José Chacayá	5	Chacayá	8	Agosto	2023-08-22T00:00:00	2024-11-06T17:00:00	6	Velocidad del viento	3.2
114950	7	Sololá	702	San José Chacayá	5	Chacayá	8	Agosto	2023-08-22T00:00:00	2024-11-06T17:00:00	7	Dirección del viento	1.61
114951	7	Sololá	702	San José Chacayá	5	Chacayá	8	Agosto	2023-08-22T00:00:00	2024-11-06T17:00:00	1	Precipitación	0
114952	7	Sololá	702	San José Chacayá	5	Chacayá	8	Agosto	2023-08-22T00:00:00	2024-11-06T17:00:00	8	Radiación solar	242
114953	7	Sololá	702	San José Chacayá	5	Chacayá	8	Agosto	2023-08-22T00:00:00	2024-11-06T18:00:00	2	Temperatura media	17.4
114954	7	Sololá	702	San José Chacayá	5	Chacayá	8	Agosto	2023-08-22T00:00:00	2024-11-06T18:00:00	4	Temperatura máxima	18.2
114955	7	Sololá	702	San José Chacayá	5	Chacayá	8	Agosto	2023-08-22T00:00:00	2024-11-06T18:00:00	3	Temperatura mínima	17.4
114956	7	Sololá	702	San José Chacayá	5	Chacayá	8	Agosto	2023-08-22T00:00:00	2024-11-06T18:00:00	5	Humedad	87
114957	7	Sololá	702	San José Chacayá	5	Chacayá	8	Agosto	2023-08-22T00:00:00	2024-11-06T18:00:00	6	Velocidad del viento	1.6
114958	7	Sololá	702	San José Chacayá	5	Chacayá	8	Agosto	2023-08-22T00:00:00	2024-11-06T18:00:00	7	Dirección del viento	0.8
114959	7	Sololá	702	San José Chacayá	5	Chacayá	8	Agosto	2023-08-22T00:00:00	2024-11-06T18:00:00	1	Precipitación	0
114960	7	Sololá	702	San José Chacayá	5	Chacayá	8	Agosto	2023-08-22T00:00:00	2024-11-06T18:00:00	8	Radiación solar	71
114961	7	Sololá	702	San José Chacayá	5	Chacayá	8	Agosto	2023-08-22T00:00:00	2024-11-06T19:00:00	2	Temperatura media	16
114962	7	Sololá	702	San José Chacayá	5	Chacayá	8	Agosto	2023-08-22T00:00:00	2024-11-06T19:00:00	4	Temperatura máxima	16.7
114963	7	Sololá	702	San José Chacayá	5	Chacayá	8	Agosto	2023-08-22T00:00:00	2024-11-06T19:00:00	3	Temperatura mínima	15.9
114964	7	Sololá	702	San José Chacayá	5	Chacayá	8	Agosto	2023-08-22T00:00:00	2024-11-06T19:00:00	5	Humedad	87
114965	7	Sololá	702	San José Chacayá	5	Chacayá	8	Agosto	2023-08-22T00:00:00	2024-11-06T19:00:00	6	Velocidad del viento	0
114966	7	Sololá	702	San José Chacayá	5	Chacayá	8	Agosto	2023-08-22T00:00:00	2024-11-06T19:00:00	7	Dirección del viento	0
114967	7	Sololá	702	San José Chacayá	5	Chacayá	8	Agosto	2023-08-22T00:00:00	2024-11-06T19:00:00	1	Precipitación	0
114968	7	Sololá	702	San José Chacayá	5	Chacayá	8	Agosto	2023-08-22T00:00:00	2024-11-06T19:00:00	8	Radiación solar	0
114969	7	Sololá	702	San José Chacayá	5	Chacayá	8	Agosto	2023-08-22T00:00:00	2024-11-06T20:00:00	2	Temperatura media	15.9
114970	7	Sololá	702	San José Chacayá	5	Chacayá	8	Agosto	2023-08-22T00:00:00	2024-11-06T20:00:00	4	Temperatura máxima	16.2
114971	7	Sololá	702	San José Chacayá	5	Chacayá	8	Agosto	2023-08-22T00:00:00	2024-11-06T20:00:00	3	Temperatura mínima	15.9
114972	7	Sololá	702	San José Chacayá	5	Chacayá	8	Agosto	2023-08-22T00:00:00	2024-11-06T20:00:00	5	Humedad	85
114973	7	Sololá	702	San José Chacayá	5	Chacayá	8	Agosto	2023-08-22T00:00:00	2024-11-06T20:00:00	6	Velocidad del viento	1.6
114974	7	Sololá	702	San José Chacayá	5	Chacayá	8	Agosto	2023-08-22T00:00:00	2024-11-06T20:00:00	7	Dirección del viento	0.8
114975	7	Sololá	702	San José Chacayá	5	Chacayá	8	Agosto	2023-08-22T00:00:00	2024-11-06T20:00:00	1	Precipitación	0
114976	7	Sololá	702	San José Chacayá	5	Chacayá	8	Agosto	2023-08-22T00:00:00	2024-11-06T20:00:00	8	Radiación solar	0
114977	7	Sololá	702	San José Chacayá	5	Chacayá	8	Agosto	2023-08-22T00:00:00	2024-11-06T21:00:00	2	Temperatura media	15.6
114978	7	Sololá	702	San José Chacayá	5	Chacayá	8	Agosto	2023-08-22T00:00:00	2024-11-06T21:00:00	4	Temperatura máxima	15.8
114979	7	Sololá	702	San José Chacayá	5	Chacayá	8	Agosto	2023-08-22T00:00:00	2024-11-06T21:00:00	3	Temperatura mínima	15.5
114980	7	Sololá	702	San José Chacayá	5	Chacayá	8	Agosto	2023-08-22T00:00:00	2024-11-06T21:00:00	5	Humedad	80
114981	7	Sololá	702	San José Chacayá	5	Chacayá	8	Agosto	2023-08-22T00:00:00	2024-11-06T21:00:00	6	Velocidad del viento	1.6
114982	7	Sololá	702	San José Chacayá	5	Chacayá	8	Agosto	2023-08-22T00:00:00	2024-11-06T21:00:00	7	Dirección del viento	0.8
114983	7	Sololá	702	San José Chacayá	5	Chacayá	8	Agosto	2023-08-22T00:00:00	2024-11-06T21:00:00	1	Precipitación	0
114984	7	Sololá	702	San José Chacayá	5	Chacayá	8	Agosto	2023-08-22T00:00:00	2024-11-06T21:00:00	8	Radiación solar	0
114985	7	Sololá	702	San José Chacayá	5	Chacayá	8	Agosto	2023-08-22T00:00:00	2024-11-06T22:00:00	2	Temperatura media	14.6
114986	7	Sololá	702	San José Chacayá	5	Chacayá	8	Agosto	2023-08-22T00:00:00	2024-11-06T22:00:00	4	Temperatura máxima	14.7
114987	7	Sololá	702	San José Chacayá	5	Chacayá	8	Agosto	2023-08-22T00:00:00	2024-11-06T22:00:00	3	Temperatura mínima	14.5
114988	7	Sololá	702	San José Chacayá	5	Chacayá	8	Agosto	2023-08-22T00:00:00	2024-11-06T22:00:00	5	Humedad	79
114989	7	Sololá	702	San José Chacayá	5	Chacayá	8	Agosto	2023-08-22T00:00:00	2024-11-06T22:00:00	6	Velocidad del viento	4.8
114990	7	Sololá	702	San José Chacayá	5	Chacayá	8	Agosto	2023-08-22T00:00:00	2024-11-06T22:00:00	7	Dirección del viento	2.41
114991	7	Sololá	702	San José Chacayá	5	Chacayá	8	Agosto	2023-08-22T00:00:00	2024-11-06T22:00:00	1	Precipitación	0
114992	7	Sololá	702	San José Chacayá	5	Chacayá	8	Agosto	2023-08-22T00:00:00	2024-11-06T22:00:00	8	Radiación solar	0
114993	7	Sololá	702	San José Chacayá	5	Chacayá	8	Agosto	2023-08-22T00:00:00	2024-11-06T23:00:00	2	Temperatura media	13.8
114994	7	Sololá	702	San José Chacayá	5	Chacayá	8	Agosto	2023-08-22T00:00:00	2024-11-06T23:00:00	4	Temperatura máxima	14.1
114995	7	Sololá	702	San José Chacayá	5	Chacayá	8	Agosto	2023-08-22T00:00:00	2024-11-06T23:00:00	3	Temperatura mínima	13.8
114996	7	Sololá	702	San José Chacayá	5	Chacayá	8	Agosto	2023-08-22T00:00:00	2024-11-06T23:00:00	5	Humedad	83
114997	7	Sololá	702	San José Chacayá	5	Chacayá	8	Agosto	2023-08-22T00:00:00	2024-11-06T23:00:00	6	Velocidad del viento	1.6
114998	7	Sololá	702	San José Chacayá	5	Chacayá	8	Agosto	2023-08-22T00:00:00	2024-11-06T23:00:00	7	Dirección del viento	0.8
114999	7	Sololá	702	San José Chacayá	5	Chacayá	8	Agosto	2023-08-22T00:00:00	2024-11-06T23:00:00	1	Precipitación	0
115000	7	Sololá	702	San José Chacayá	5	Chacayá	8	Agosto	2023-08-22T00:00:00	2024-11-06T23:00:00	8	Radiación solar	0
115001	7	Sololá	702	San José Chacayá	5	Chacayá	8	Agosto	2023-08-23T00:00:00	2024-11-06T00:00:00	2	Temperatura media	13.8
115002	7	Sololá	702	San José Chacayá	5	Chacayá	8	Agosto	2023-08-23T00:00:00	2024-11-06T00:00:00	4	Temperatura máxima	13.8
115003	7	Sololá	702	San José Chacayá	5	Chacayá	8	Agosto	2023-08-23T00:00:00	2024-11-06T00:00:00	3	Temperatura mínima	13.4
115004	7	Sololá	702	San José Chacayá	5	Chacayá	8	Agosto	2023-08-23T00:00:00	2024-11-06T00:00:00	5	Humedad	82
115005	7	Sololá	702	San José Chacayá	5	Chacayá	8	Agosto	2023-08-23T00:00:00	2024-11-06T00:00:00	6	Velocidad del viento	1.6
115006	7	Sololá	702	San José Chacayá	5	Chacayá	8	Agosto	2023-08-23T00:00:00	2024-11-06T00:00:00	7	Dirección del viento	0.8
115007	7	Sololá	702	San José Chacayá	5	Chacayá	8	Agosto	2023-08-23T00:00:00	2024-11-06T00:00:00	1	Precipitación	0
115008	7	Sololá	702	San José Chacayá	5	Chacayá	8	Agosto	2023-08-23T00:00:00	2024-11-06T00:00:00	8	Radiación solar	0
115009	7	Sololá	702	San José Chacayá	5	Chacayá	8	Agosto	2023-08-23T00:00:00	2024-11-06T01:00:00	2	Temperatura media	13.4
115010	7	Sololá	702	San José Chacayá	5	Chacayá	8	Agosto	2023-08-23T00:00:00	2024-11-06T01:00:00	4	Temperatura máxima	13.5
115011	7	Sololá	702	San José Chacayá	5	Chacayá	8	Agosto	2023-08-23T00:00:00	2024-11-06T01:00:00	3	Temperatura mínima	12.3
115012	7	Sololá	702	San José Chacayá	5	Chacayá	8	Agosto	2023-08-23T00:00:00	2024-11-06T01:00:00	5	Humedad	81
115013	7	Sololá	702	San José Chacayá	5	Chacayá	8	Agosto	2023-08-23T00:00:00	2024-11-06T01:00:00	6	Velocidad del viento	1.6
115014	7	Sololá	702	San José Chacayá	5	Chacayá	8	Agosto	2023-08-23T00:00:00	2024-11-06T01:00:00	7	Dirección del viento	0.8
115015	7	Sololá	702	San José Chacayá	5	Chacayá	8	Agosto	2023-08-23T00:00:00	2024-11-06T01:00:00	1	Precipitación	0
115016	7	Sololá	702	San José Chacayá	5	Chacayá	8	Agosto	2023-08-23T00:00:00	2024-11-06T01:00:00	8	Radiación solar	0
115017	7	Sololá	702	San José Chacayá	5	Chacayá	8	Agosto	2023-08-23T00:00:00	2024-11-06T02:00:00	2	Temperatura media	13.4
115018	7	Sololá	702	San José Chacayá	5	Chacayá	8	Agosto	2023-08-23T00:00:00	2024-11-06T02:00:00	4	Temperatura máxima	14.2
115019	7	Sololá	702	San José Chacayá	5	Chacayá	8	Agosto	2023-08-23T00:00:00	2024-11-06T02:00:00	3	Temperatura mínima	13.3
115020	7	Sololá	702	San José Chacayá	5	Chacayá	8	Agosto	2023-08-23T00:00:00	2024-11-06T02:00:00	5	Humedad	79
115021	7	Sololá	702	San José Chacayá	5	Chacayá	8	Agosto	2023-08-23T00:00:00	2024-11-06T02:00:00	6	Velocidad del viento	1.6
115022	7	Sololá	702	San José Chacayá	5	Chacayá	8	Agosto	2023-08-23T00:00:00	2024-11-06T02:00:00	7	Dirección del viento	0.8
115023	7	Sololá	702	San José Chacayá	5	Chacayá	8	Agosto	2023-08-23T00:00:00	2024-11-06T02:00:00	1	Precipitación	0
115024	7	Sololá	702	San José Chacayá	5	Chacayá	8	Agosto	2023-08-23T00:00:00	2024-11-06T02:00:00	8	Radiación solar	0
115025	7	Sololá	702	San José Chacayá	5	Chacayá	8	Agosto	2023-08-23T00:00:00	2024-11-06T03:00:00	2	Temperatura media	12.5
115026	7	Sololá	702	San José Chacayá	5	Chacayá	8	Agosto	2023-08-23T00:00:00	2024-11-06T03:00:00	4	Temperatura máxima	12.8
115027	7	Sololá	702	San José Chacayá	5	Chacayá	8	Agosto	2023-08-23T00:00:00	2024-11-06T03:00:00	3	Temperatura mínima	12.3
115028	7	Sololá	702	San José Chacayá	5	Chacayá	8	Agosto	2023-08-23T00:00:00	2024-11-06T03:00:00	5	Humedad	79
115029	7	Sololá	702	San José Chacayá	5	Chacayá	8	Agosto	2023-08-23T00:00:00	2024-11-06T03:00:00	6	Velocidad del viento	3.2
115030	7	Sololá	702	San José Chacayá	5	Chacayá	8	Agosto	2023-08-23T00:00:00	2024-11-06T03:00:00	7	Dirección del viento	1.61
115031	7	Sololá	702	San José Chacayá	5	Chacayá	8	Agosto	2023-08-23T00:00:00	2024-11-06T03:00:00	1	Precipitación	0
115032	7	Sololá	702	San José Chacayá	5	Chacayá	8	Agosto	2023-08-23T00:00:00	2024-11-06T03:00:00	8	Radiación solar	0
115033	7	Sololá	702	San José Chacayá	5	Chacayá	8	Agosto	2023-08-23T00:00:00	2024-11-06T04:00:00	2	Temperatura media	10.8
115034	7	Sololá	702	San José Chacayá	5	Chacayá	8	Agosto	2023-08-23T00:00:00	2024-11-06T04:00:00	4	Temperatura máxima	11.7
115035	7	Sololá	702	San José Chacayá	5	Chacayá	8	Agosto	2023-08-23T00:00:00	2024-11-06T04:00:00	3	Temperatura mínima	10.8
115036	7	Sololá	702	San José Chacayá	5	Chacayá	8	Agosto	2023-08-23T00:00:00	2024-11-06T04:00:00	5	Humedad	86
115037	7	Sololá	702	San José Chacayá	5	Chacayá	8	Agosto	2023-08-23T00:00:00	2024-11-06T04:00:00	6	Velocidad del viento	1.6
115038	7	Sololá	702	San José Chacayá	5	Chacayá	8	Agosto	2023-08-23T00:00:00	2024-11-06T04:00:00	7	Dirección del viento	0.8
115039	7	Sololá	702	San José Chacayá	5	Chacayá	8	Agosto	2023-08-23T00:00:00	2024-11-06T04:00:00	1	Precipitación	0
115040	7	Sololá	702	San José Chacayá	5	Chacayá	8	Agosto	2023-08-23T00:00:00	2024-11-06T04:00:00	8	Radiación solar	0
115041	7	Sololá	702	San José Chacayá	5	Chacayá	8	Agosto	2023-08-23T00:00:00	2024-11-06T05:00:00	2	Temperatura media	10.3
115042	7	Sololá	702	San José Chacayá	5	Chacayá	8	Agosto	2023-08-23T00:00:00	2024-11-06T05:00:00	4	Temperatura máxima	10.5
115043	7	Sololá	702	San José Chacayá	5	Chacayá	8	Agosto	2023-08-23T00:00:00	2024-11-06T05:00:00	3	Temperatura mínima	10.3
115044	7	Sololá	702	San José Chacayá	5	Chacayá	8	Agosto	2023-08-23T00:00:00	2024-11-06T05:00:00	5	Humedad	85
115045	7	Sololá	702	San José Chacayá	5	Chacayá	8	Agosto	2023-08-23T00:00:00	2024-11-06T05:00:00	6	Velocidad del viento	1.6
115046	7	Sololá	702	San José Chacayá	5	Chacayá	8	Agosto	2023-08-23T00:00:00	2024-11-06T05:00:00	7	Dirección del viento	0.8
115047	7	Sololá	702	San José Chacayá	5	Chacayá	8	Agosto	2023-08-23T00:00:00	2024-11-06T05:00:00	1	Precipitación	0
115048	7	Sololá	702	San José Chacayá	5	Chacayá	8	Agosto	2023-08-23T00:00:00	2024-11-06T05:00:00	8	Radiación solar	0
115049	7	Sololá	702	San José Chacayá	5	Chacayá	8	Agosto	2023-08-23T00:00:00	2024-11-06T06:00:00	2	Temperatura media	10.2
115050	7	Sololá	702	San José Chacayá	5	Chacayá	8	Agosto	2023-08-23T00:00:00	2024-11-06T06:00:00	4	Temperatura máxima	10.2
115051	7	Sololá	702	San José Chacayá	5	Chacayá	8	Agosto	2023-08-23T00:00:00	2024-11-06T06:00:00	3	Temperatura mínima	10.1
115052	7	Sololá	702	San José Chacayá	5	Chacayá	8	Agosto	2023-08-23T00:00:00	2024-11-06T06:00:00	5	Humedad	86
115053	7	Sololá	702	San José Chacayá	5	Chacayá	8	Agosto	2023-08-23T00:00:00	2024-11-06T06:00:00	6	Velocidad del viento	0
115054	7	Sololá	702	San José Chacayá	5	Chacayá	8	Agosto	2023-08-23T00:00:00	2024-11-06T06:00:00	7	Dirección del viento	0
115055	7	Sololá	702	San José Chacayá	5	Chacayá	8	Agosto	2023-08-23T00:00:00	2024-11-06T06:00:00	1	Precipitación	0
115056	7	Sololá	702	San José Chacayá	5	Chacayá	8	Agosto	2023-08-23T00:00:00	2024-11-06T06:00:00	8	Radiación solar	1
115057	7	Sololá	702	San José Chacayá	5	Chacayá	8	Agosto	2023-08-23T00:00:00	2024-11-06T07:00:00	2	Temperatura media	11.2
115058	7	Sololá	702	San José Chacayá	5	Chacayá	8	Agosto	2023-08-23T00:00:00	2024-11-06T07:00:00	4	Temperatura máxima	11.2
115059	7	Sololá	702	San José Chacayá	5	Chacayá	8	Agosto	2023-08-23T00:00:00	2024-11-06T07:00:00	3	Temperatura mínima	10.6
115060	7	Sololá	702	San José Chacayá	5	Chacayá	8	Agosto	2023-08-23T00:00:00	2024-11-06T07:00:00	5	Humedad	85
115061	7	Sololá	702	San José Chacayá	5	Chacayá	8	Agosto	2023-08-23T00:00:00	2024-11-06T07:00:00	6	Velocidad del viento	0
115062	7	Sololá	702	San José Chacayá	5	Chacayá	8	Agosto	2023-08-23T00:00:00	2024-11-06T07:00:00	7	Dirección del viento	0
115063	7	Sololá	702	San José Chacayá	5	Chacayá	8	Agosto	2023-08-23T00:00:00	2024-11-06T07:00:00	1	Precipitación	0
115064	7	Sololá	702	San José Chacayá	5	Chacayá	8	Agosto	2023-08-23T00:00:00	2024-11-06T07:00:00	8	Radiación solar	26
115065	7	Sololá	702	San José Chacayá	5	Chacayá	8	Agosto	2023-08-23T00:00:00	2024-11-06T08:00:00	2	Temperatura media	15.2
115066	7	Sololá	702	San José Chacayá	5	Chacayá	8	Agosto	2023-08-23T00:00:00	2024-11-06T08:00:00	4	Temperatura máxima	15.2
115067	7	Sololá	702	San José Chacayá	5	Chacayá	8	Agosto	2023-08-23T00:00:00	2024-11-06T08:00:00	3	Temperatura mínima	13.2
115068	7	Sololá	702	San José Chacayá	5	Chacayá	8	Agosto	2023-08-23T00:00:00	2024-11-06T08:00:00	5	Humedad	80
115069	7	Sololá	702	San José Chacayá	5	Chacayá	8	Agosto	2023-08-23T00:00:00	2024-11-06T08:00:00	6	Velocidad del viento	0
115070	7	Sololá	702	San José Chacayá	5	Chacayá	8	Agosto	2023-08-23T00:00:00	2024-11-06T08:00:00	7	Dirección del viento	0
115071	7	Sololá	702	San José Chacayá	5	Chacayá	8	Agosto	2023-08-23T00:00:00	2024-11-06T08:00:00	1	Precipitación	0
115072	7	Sololá	702	San José Chacayá	5	Chacayá	8	Agosto	2023-08-23T00:00:00	2024-11-06T08:00:00	8	Radiación solar	77
115073	7	Sololá	702	San José Chacayá	5	Chacayá	8	Agosto	2023-08-23T00:00:00	2024-11-06T09:00:00	2	Temperatura media	18.2
115074	7	Sololá	702	San José Chacayá	5	Chacayá	8	Agosto	2023-08-23T00:00:00	2024-11-06T09:00:00	4	Temperatura máxima	18.3
115075	7	Sololá	702	San José Chacayá	5	Chacayá	8	Agosto	2023-08-23T00:00:00	2024-11-06T09:00:00	3	Temperatura mínima	17.8
115076	7	Sololá	702	San José Chacayá	5	Chacayá	8	Agosto	2023-08-23T00:00:00	2024-11-06T09:00:00	5	Humedad	68
115077	7	Sololá	702	San José Chacayá	5	Chacayá	8	Agosto	2023-08-23T00:00:00	2024-11-06T09:00:00	6	Velocidad del viento	1.6
115078	7	Sololá	702	San José Chacayá	5	Chacayá	8	Agosto	2023-08-23T00:00:00	2024-11-06T09:00:00	7	Dirección del viento	0.8
115079	7	Sololá	702	San José Chacayá	5	Chacayá	8	Agosto	2023-08-23T00:00:00	2024-11-06T09:00:00	1	Precipitación	0
115080	7	Sololá	702	San José Chacayá	5	Chacayá	8	Agosto	2023-08-23T00:00:00	2024-11-06T09:00:00	8	Radiación solar	484
115081	7	Sololá	702	San José Chacayá	5	Chacayá	8	Agosto	2023-08-23T00:00:00	2024-11-06T10:00:00	2	Temperatura media	20.1
115082	7	Sololá	702	San José Chacayá	5	Chacayá	8	Agosto	2023-08-23T00:00:00	2024-11-06T10:00:00	4	Temperatura máxima	20.1
115083	7	Sololá	702	San José Chacayá	5	Chacayá	8	Agosto	2023-08-23T00:00:00	2024-11-06T10:00:00	3	Temperatura mínima	18.8
115084	7	Sololá	702	San José Chacayá	5	Chacayá	8	Agosto	2023-08-23T00:00:00	2024-11-06T10:00:00	5	Humedad	63
115085	7	Sololá	702	San José Chacayá	5	Chacayá	8	Agosto	2023-08-23T00:00:00	2024-11-06T10:00:00	6	Velocidad del viento	1.6
115086	7	Sololá	702	San José Chacayá	5	Chacayá	8	Agosto	2023-08-23T00:00:00	2024-11-06T10:00:00	7	Dirección del viento	0.8
115087	7	Sololá	702	San José Chacayá	5	Chacayá	8	Agosto	2023-08-23T00:00:00	2024-11-06T10:00:00	1	Precipitación	0
115088	7	Sololá	702	San José Chacayá	5	Chacayá	8	Agosto	2023-08-23T00:00:00	2024-11-06T10:00:00	8	Radiación solar	721
115089	7	Sololá	702	San José Chacayá	5	Chacayá	8	Agosto	2023-08-23T00:00:00	2024-11-06T11:00:00	2	Temperatura media	20.1
115090	7	Sololá	702	San José Chacayá	5	Chacayá	8	Agosto	2023-08-23T00:00:00	2024-11-06T11:00:00	4	Temperatura máxima	20.2
115091	7	Sololá	702	San José Chacayá	5	Chacayá	8	Agosto	2023-08-23T00:00:00	2024-11-06T11:00:00	3	Temperatura mínima	19.6
115092	7	Sololá	702	San José Chacayá	5	Chacayá	8	Agosto	2023-08-23T00:00:00	2024-11-06T11:00:00	5	Humedad	57
115093	7	Sololá	702	San José Chacayá	5	Chacayá	8	Agosto	2023-08-23T00:00:00	2024-11-06T11:00:00	6	Velocidad del viento	3.2
115094	7	Sololá	702	San José Chacayá	5	Chacayá	8	Agosto	2023-08-23T00:00:00	2024-11-06T11:00:00	7	Dirección del viento	1.61
115095	7	Sololá	702	San José Chacayá	5	Chacayá	8	Agosto	2023-08-23T00:00:00	2024-11-06T11:00:00	1	Precipitación	0
115096	7	Sololá	702	San José Chacayá	5	Chacayá	8	Agosto	2023-08-23T00:00:00	2024-11-06T11:00:00	8	Radiación solar	817
115097	7	Sololá	702	San José Chacayá	5	Chacayá	8	Agosto	2023-08-23T00:00:00	2024-11-06T12:00:00	2	Temperatura media	21.8
115098	7	Sololá	702	San José Chacayá	5	Chacayá	8	Agosto	2023-08-23T00:00:00	2024-11-06T12:00:00	4	Temperatura máxima	21.8
115099	7	Sololá	702	San José Chacayá	5	Chacayá	8	Agosto	2023-08-23T00:00:00	2024-11-06T12:00:00	3	Temperatura mínima	21
115100	7	Sololá	702	San José Chacayá	5	Chacayá	8	Agosto	2023-08-23T00:00:00	2024-11-06T12:00:00	5	Humedad	54
115101	7	Sololá	702	San José Chacayá	5	Chacayá	8	Agosto	2023-08-23T00:00:00	2024-11-06T12:00:00	6	Velocidad del viento	3.2
115102	7	Sololá	702	San José Chacayá	5	Chacayá	8	Agosto	2023-08-23T00:00:00	2024-11-06T12:00:00	7	Dirección del viento	1.61
115103	7	Sololá	702	San José Chacayá	5	Chacayá	8	Agosto	2023-08-23T00:00:00	2024-11-06T12:00:00	1	Precipitación	0
115104	7	Sololá	702	San José Chacayá	5	Chacayá	8	Agosto	2023-08-23T00:00:00	2024-11-06T12:00:00	8	Radiación solar	885
115105	7	Sololá	702	San José Chacayá	5	Chacayá	8	Agosto	2023-08-23T00:00:00	2024-11-06T13:00:00	2	Temperatura media	21.7
115106	7	Sololá	702	San José Chacayá	5	Chacayá	8	Agosto	2023-08-23T00:00:00	2024-11-06T13:00:00	4	Temperatura máxima	22.3
115107	7	Sololá	702	San José Chacayá	5	Chacayá	8	Agosto	2023-08-23T00:00:00	2024-11-06T13:00:00	3	Temperatura mínima	21.7
115108	7	Sololá	702	San José Chacayá	5	Chacayá	8	Agosto	2023-08-23T00:00:00	2024-11-06T13:00:00	5	Humedad	58
115109	7	Sololá	702	San José Chacayá	5	Chacayá	8	Agosto	2023-08-23T00:00:00	2024-11-06T13:00:00	6	Velocidad del viento	4.8
115110	7	Sololá	702	San José Chacayá	5	Chacayá	8	Agosto	2023-08-23T00:00:00	2024-11-06T13:00:00	7	Dirección del viento	2.41
115111	7	Sololá	702	San José Chacayá	5	Chacayá	8	Agosto	2023-08-23T00:00:00	2024-11-06T13:00:00	1	Precipitación	0
115112	7	Sololá	702	San José Chacayá	5	Chacayá	8	Agosto	2023-08-23T00:00:00	2024-11-06T13:00:00	8	Radiación solar	1060
115113	7	Sololá	702	San José Chacayá	5	Chacayá	8	Agosto	2023-08-23T00:00:00	2024-11-06T14:00:00	2	Temperatura media	20.7
115114	7	Sololá	702	San José Chacayá	5	Chacayá	8	Agosto	2023-08-23T00:00:00	2024-11-06T14:00:00	4	Temperatura máxima	21.3
115115	7	Sololá	702	San José Chacayá	5	Chacayá	8	Agosto	2023-08-23T00:00:00	2024-11-06T14:00:00	3	Temperatura mínima	20.7
115116	7	Sololá	702	San José Chacayá	5	Chacayá	8	Agosto	2023-08-23T00:00:00	2024-11-06T14:00:00	5	Humedad	63
115117	7	Sololá	702	San José Chacayá	5	Chacayá	8	Agosto	2023-08-23T00:00:00	2024-11-06T14:00:00	6	Velocidad del viento	3.2
115118	7	Sololá	702	San José Chacayá	5	Chacayá	8	Agosto	2023-08-23T00:00:00	2024-11-06T14:00:00	7	Dirección del viento	1.61
115119	7	Sololá	702	San José Chacayá	5	Chacayá	8	Agosto	2023-08-23T00:00:00	2024-11-06T14:00:00	1	Precipitación	0
115120	7	Sololá	702	San José Chacayá	5	Chacayá	8	Agosto	2023-08-23T00:00:00	2024-11-06T14:00:00	8	Radiación solar	708
115121	7	Sololá	702	San José Chacayá	5	Chacayá	8	Agosto	2023-08-23T00:00:00	2024-11-06T15:00:00	2	Temperatura media	19.5
115122	7	Sololá	702	San José Chacayá	5	Chacayá	8	Agosto	2023-08-23T00:00:00	2024-11-06T15:00:00	4	Temperatura máxima	20
115123	7	Sololá	702	San José Chacayá	5	Chacayá	8	Agosto	2023-08-23T00:00:00	2024-11-06T15:00:00	3	Temperatura mínima	19.5
115124	7	Sololá	702	San José Chacayá	5	Chacayá	8	Agosto	2023-08-23T00:00:00	2024-11-06T15:00:00	5	Humedad	64
115125	7	Sololá	702	San José Chacayá	5	Chacayá	8	Agosto	2023-08-23T00:00:00	2024-11-06T15:00:00	6	Velocidad del viento	6.4
115126	7	Sololá	702	San José Chacayá	5	Chacayá	8	Agosto	2023-08-23T00:00:00	2024-11-06T15:00:00	7	Dirección del viento	3.22
115127	7	Sololá	702	San José Chacayá	5	Chacayá	8	Agosto	2023-08-23T00:00:00	2024-11-06T15:00:00	1	Precipitación	0
115128	7	Sololá	702	San José Chacayá	5	Chacayá	8	Agosto	2023-08-23T00:00:00	2024-11-06T15:00:00	8	Radiación solar	320
115129	7	Sololá	702	San José Chacayá	5	Chacayá	8	Agosto	2023-08-23T00:00:00	2024-11-06T16:00:00	2	Temperatura media	19.8
115130	7	Sololá	702	San José Chacayá	5	Chacayá	8	Agosto	2023-08-23T00:00:00	2024-11-06T16:00:00	4	Temperatura máxima	19.8
115131	7	Sololá	702	San José Chacayá	5	Chacayá	8	Agosto	2023-08-23T00:00:00	2024-11-06T16:00:00	3	Temperatura mínima	19.4
115132	7	Sololá	702	San José Chacayá	5	Chacayá	8	Agosto	2023-08-23T00:00:00	2024-11-06T16:00:00	5	Humedad	64
115133	7	Sololá	702	San José Chacayá	5	Chacayá	8	Agosto	2023-08-23T00:00:00	2024-11-06T16:00:00	6	Velocidad del viento	3.2
115134	7	Sololá	702	San José Chacayá	5	Chacayá	8	Agosto	2023-08-23T00:00:00	2024-11-06T16:00:00	7	Dirección del viento	1.61
115135	7	Sololá	702	San José Chacayá	5	Chacayá	8	Agosto	2023-08-23T00:00:00	2024-11-06T16:00:00	1	Precipitación	0
115136	7	Sololá	702	San José Chacayá	5	Chacayá	8	Agosto	2023-08-23T00:00:00	2024-11-06T16:00:00	8	Radiación solar	141
115137	7	Sololá	702	San José Chacayá	5	Chacayá	8	Agosto	2023-08-23T00:00:00	2024-11-06T17:00:00	2	Temperatura media	19.2
115138	7	Sololá	702	San José Chacayá	5	Chacayá	8	Agosto	2023-08-23T00:00:00	2024-11-06T17:00:00	4	Temperatura máxima	19.6
115139	7	Sololá	702	San José Chacayá	5	Chacayá	8	Agosto	2023-08-23T00:00:00	2024-11-06T17:00:00	3	Temperatura mínima	19.2
115140	7	Sololá	702	San José Chacayá	5	Chacayá	8	Agosto	2023-08-23T00:00:00	2024-11-06T17:00:00	5	Humedad	69
115141	7	Sololá	702	San José Chacayá	5	Chacayá	8	Agosto	2023-08-23T00:00:00	2024-11-06T17:00:00	6	Velocidad del viento	1.6
115142	7	Sololá	702	San José Chacayá	5	Chacayá	8	Agosto	2023-08-23T00:00:00	2024-11-06T17:00:00	7	Dirección del viento	0.8
115143	7	Sololá	702	San José Chacayá	5	Chacayá	8	Agosto	2023-08-23T00:00:00	2024-11-06T17:00:00	1	Precipitación	0
115144	7	Sololá	702	San José Chacayá	5	Chacayá	8	Agosto	2023-08-23T00:00:00	2024-11-06T17:00:00	8	Radiación solar	148
115145	7	Sololá	702	San José Chacayá	5	Chacayá	8	Agosto	2023-08-23T00:00:00	2024-11-06T18:00:00	2	Temperatura media	17.2
115146	7	Sololá	702	San José Chacayá	5	Chacayá	8	Agosto	2023-08-23T00:00:00	2024-11-06T18:00:00	4	Temperatura máxima	18.1
115147	7	Sololá	702	San José Chacayá	5	Chacayá	8	Agosto	2023-08-23T00:00:00	2024-11-06T18:00:00	3	Temperatura mínima	17.1
115148	7	Sololá	702	San José Chacayá	5	Chacayá	8	Agosto	2023-08-23T00:00:00	2024-11-06T18:00:00	5	Humedad	84
115149	7	Sololá	702	San José Chacayá	5	Chacayá	8	Agosto	2023-08-23T00:00:00	2024-11-06T18:00:00	6	Velocidad del viento	0
115150	7	Sololá	702	San José Chacayá	5	Chacayá	8	Agosto	2023-08-23T00:00:00	2024-11-06T18:00:00	7	Dirección del viento	0
115151	7	Sololá	702	San José Chacayá	5	Chacayá	8	Agosto	2023-08-23T00:00:00	2024-11-06T18:00:00	1	Precipitación	0
115152	7	Sololá	702	San José Chacayá	5	Chacayá	8	Agosto	2023-08-23T00:00:00	2024-11-06T18:00:00	8	Radiación solar	10
115153	7	Sololá	702	San José Chacayá	5	Chacayá	8	Agosto	2023-08-23T00:00:00	2024-11-06T19:00:00	2	Temperatura media	15.5
115154	7	Sololá	702	San José Chacayá	5	Chacayá	8	Agosto	2023-08-23T00:00:00	2024-11-06T19:00:00	4	Temperatura máxima	16.3
115155	7	Sololá	702	San José Chacayá	5	Chacayá	8	Agosto	2023-08-23T00:00:00	2024-11-06T19:00:00	3	Temperatura mínima	15.5
115156	7	Sololá	702	San José Chacayá	5	Chacayá	8	Agosto	2023-08-23T00:00:00	2024-11-06T19:00:00	5	Humedad	88
115157	7	Sololá	702	San José Chacayá	5	Chacayá	8	Agosto	2023-08-23T00:00:00	2024-11-06T19:00:00	6	Velocidad del viento	0
115158	7	Sololá	702	San José Chacayá	5	Chacayá	8	Agosto	2023-08-23T00:00:00	2024-11-06T19:00:00	7	Dirección del viento	0
115159	7	Sololá	702	San José Chacayá	5	Chacayá	8	Agosto	2023-08-23T00:00:00	2024-11-06T19:00:00	1	Precipitación	0
115160	7	Sololá	702	San José Chacayá	5	Chacayá	8	Agosto	2023-08-23T00:00:00	2024-11-06T19:00:00	8	Radiación solar	0
115161	7	Sololá	702	San José Chacayá	5	Chacayá	8	Agosto	2023-08-23T00:00:00	2024-11-06T20:00:00	2	Temperatura media	14.3
115162	7	Sololá	702	San José Chacayá	5	Chacayá	8	Agosto	2023-08-23T00:00:00	2024-11-06T20:00:00	4	Temperatura máxima	14.8
115163	7	Sololá	702	San José Chacayá	5	Chacayá	8	Agosto	2023-08-23T00:00:00	2024-11-06T20:00:00	3	Temperatura mínima	14.3
115164	7	Sololá	702	San José Chacayá	5	Chacayá	8	Agosto	2023-08-23T00:00:00	2024-11-06T20:00:00	5	Humedad	90
115165	7	Sololá	702	San José Chacayá	5	Chacayá	8	Agosto	2023-08-23T00:00:00	2024-11-06T20:00:00	6	Velocidad del viento	0
115166	7	Sololá	702	San José Chacayá	5	Chacayá	8	Agosto	2023-08-23T00:00:00	2024-11-06T20:00:00	7	Dirección del viento	0
115167	7	Sololá	702	San José Chacayá	5	Chacayá	8	Agosto	2023-08-23T00:00:00	2024-11-06T20:00:00	1	Precipitación	0
115168	7	Sololá	702	San José Chacayá	5	Chacayá	8	Agosto	2023-08-23T00:00:00	2024-11-06T20:00:00	8	Radiación solar	0
115169	7	Sololá	702	San José Chacayá	5	Chacayá	8	Agosto	2023-08-23T00:00:00	2024-11-06T21:00:00	2	Temperatura media	13.9
115170	7	Sololá	702	San José Chacayá	5	Chacayá	8	Agosto	2023-08-23T00:00:00	2024-11-06T21:00:00	4	Temperatura máxima	14
115171	7	Sololá	702	San José Chacayá	5	Chacayá	8	Agosto	2023-08-23T00:00:00	2024-11-06T21:00:00	3	Temperatura mínima	13.8
115172	7	Sololá	702	San José Chacayá	5	Chacayá	8	Agosto	2023-08-23T00:00:00	2024-11-06T21:00:00	5	Humedad	90
115173	7	Sololá	702	San José Chacayá	5	Chacayá	8	Agosto	2023-08-23T00:00:00	2024-11-06T21:00:00	6	Velocidad del viento	0
115174	7	Sololá	702	San José Chacayá	5	Chacayá	8	Agosto	2023-08-23T00:00:00	2024-11-06T21:00:00	7	Dirección del viento	0
115175	7	Sololá	702	San José Chacayá	5	Chacayá	8	Agosto	2023-08-23T00:00:00	2024-11-06T21:00:00	1	Precipitación	0
115176	7	Sololá	702	San José Chacayá	5	Chacayá	8	Agosto	2023-08-23T00:00:00	2024-11-06T21:00:00	8	Radiación solar	0
115177	7	Sololá	702	San José Chacayá	5	Chacayá	8	Agosto	2023-08-23T00:00:00	2024-11-06T22:00:00	2	Temperatura media	14.3
115178	7	Sololá	702	San José Chacayá	5	Chacayá	8	Agosto	2023-08-23T00:00:00	2024-11-06T22:00:00	4	Temperatura máxima	14.3
115179	7	Sololá	702	San José Chacayá	5	Chacayá	8	Agosto	2023-08-23T00:00:00	2024-11-06T22:00:00	3	Temperatura mínima	13.8
115180	7	Sololá	702	San José Chacayá	5	Chacayá	8	Agosto	2023-08-23T00:00:00	2024-11-06T22:00:00	5	Humedad	86
115181	7	Sololá	702	San José Chacayá	5	Chacayá	8	Agosto	2023-08-23T00:00:00	2024-11-06T22:00:00	6	Velocidad del viento	1.6
115182	7	Sololá	702	San José Chacayá	5	Chacayá	8	Agosto	2023-08-23T00:00:00	2024-11-06T22:00:00	7	Dirección del viento	0.8
115183	7	Sololá	702	San José Chacayá	5	Chacayá	8	Agosto	2023-08-23T00:00:00	2024-11-06T22:00:00	1	Precipitación	0
115184	7	Sololá	702	San José Chacayá	5	Chacayá	8	Agosto	2023-08-23T00:00:00	2024-11-06T22:00:00	8	Radiación solar	0
115185	7	Sololá	702	San José Chacayá	5	Chacayá	8	Agosto	2023-08-23T00:00:00	2024-11-06T23:00:00	2	Temperatura media	15.4
115186	7	Sololá	702	San José Chacayá	5	Chacayá	8	Agosto	2023-08-23T00:00:00	2024-11-06T23:00:00	4	Temperatura máxima	15.4
115187	7	Sololá	702	San José Chacayá	5	Chacayá	8	Agosto	2023-08-23T00:00:00	2024-11-06T23:00:00	3	Temperatura mínima	13.9
115188	7	Sololá	702	San José Chacayá	5	Chacayá	8	Agosto	2023-08-23T00:00:00	2024-11-06T23:00:00	5	Humedad	78
115189	7	Sololá	702	San José Chacayá	5	Chacayá	8	Agosto	2023-08-23T00:00:00	2024-11-06T23:00:00	6	Velocidad del viento	4.8
115190	7	Sololá	702	San José Chacayá	5	Chacayá	8	Agosto	2023-08-23T00:00:00	2024-11-06T23:00:00	7	Dirección del viento	2.41
115191	7	Sololá	702	San José Chacayá	5	Chacayá	8	Agosto	2023-08-23T00:00:00	2024-11-06T23:00:00	1	Precipitación	0
115192	7	Sololá	702	San José Chacayá	5	Chacayá	8	Agosto	2023-08-23T00:00:00	2024-11-06T23:00:00	8	Radiación solar	0
115193	7	Sololá	702	San José Chacayá	5	Chacayá	8	Agosto	2023-08-24T00:00:00	2024-11-06T00:00:00	2	Temperatura media	14.4
115194	7	Sololá	702	San José Chacayá	5	Chacayá	8	Agosto	2023-08-24T00:00:00	2024-11-06T00:00:00	4	Temperatura máxima	15.6
115195	7	Sololá	702	San José Chacayá	5	Chacayá	8	Agosto	2023-08-24T00:00:00	2024-11-06T00:00:00	3	Temperatura mínima	14.4
115196	7	Sololá	702	San José Chacayá	5	Chacayá	8	Agosto	2023-08-24T00:00:00	2024-11-06T00:00:00	5	Humedad	84
115197	7	Sololá	702	San José Chacayá	5	Chacayá	8	Agosto	2023-08-24T00:00:00	2024-11-06T00:00:00	6	Velocidad del viento	0
115198	7	Sololá	702	San José Chacayá	5	Chacayá	8	Agosto	2023-08-24T00:00:00	2024-11-06T00:00:00	7	Dirección del viento	0
115199	7	Sololá	702	San José Chacayá	5	Chacayá	8	Agosto	2023-08-24T00:00:00	2024-11-06T00:00:00	1	Precipitación	0
115200	7	Sololá	702	San José Chacayá	5	Chacayá	8	Agosto	2023-08-24T00:00:00	2024-11-06T00:00:00	8	Radiación solar	0
115201	7	Sololá	702	San José Chacayá	5	Chacayá	8	Agosto	2023-08-24T00:00:00	2024-11-06T01:00:00	2	Temperatura media	12.8
115202	7	Sololá	702	San José Chacayá	5	Chacayá	8	Agosto	2023-08-24T00:00:00	2024-11-06T01:00:00	4	Temperatura máxima	13.4
115203	7	Sololá	702	San José Chacayá	5	Chacayá	8	Agosto	2023-08-24T00:00:00	2024-11-06T01:00:00	3	Temperatura mínima	12.8
115204	7	Sololá	702	San José Chacayá	5	Chacayá	8	Agosto	2023-08-24T00:00:00	2024-11-06T01:00:00	5	Humedad	90
115205	7	Sololá	702	San José Chacayá	5	Chacayá	8	Agosto	2023-08-24T00:00:00	2024-11-06T01:00:00	6	Velocidad del viento	1.6
115206	7	Sololá	702	San José Chacayá	5	Chacayá	8	Agosto	2023-08-24T00:00:00	2024-11-06T01:00:00	7	Dirección del viento	0.8
115207	7	Sololá	702	San José Chacayá	5	Chacayá	8	Agosto	2023-08-24T00:00:00	2024-11-06T01:00:00	1	Precipitación	0
115208	7	Sololá	702	San José Chacayá	5	Chacayá	8	Agosto	2023-08-24T00:00:00	2024-11-06T01:00:00	8	Radiación solar	0
115209	7	Sololá	702	San José Chacayá	5	Chacayá	8	Agosto	2023-08-24T00:00:00	2024-11-06T02:00:00	2	Temperatura media	12.2
115210	7	Sololá	702	San José Chacayá	5	Chacayá	8	Agosto	2023-08-24T00:00:00	2024-11-06T02:00:00	4	Temperatura máxima	12.4
115211	7	Sololá	702	San José Chacayá	5	Chacayá	8	Agosto	2023-08-24T00:00:00	2024-11-06T02:00:00	3	Temperatura mínima	12.1
115212	7	Sololá	702	San José Chacayá	5	Chacayá	8	Agosto	2023-08-24T00:00:00	2024-11-06T02:00:00	5	Humedad	92
115213	7	Sololá	702	San José Chacayá	5	Chacayá	8	Agosto	2023-08-24T00:00:00	2024-11-06T02:00:00	6	Velocidad del viento	0
115214	7	Sololá	702	San José Chacayá	5	Chacayá	8	Agosto	2023-08-24T00:00:00	2024-11-06T02:00:00	7	Dirección del viento	0
115215	7	Sololá	702	San José Chacayá	5	Chacayá	8	Agosto	2023-08-24T00:00:00	2024-11-06T02:00:00	1	Precipitación	0
115216	7	Sololá	702	San José Chacayá	5	Chacayá	8	Agosto	2023-08-24T00:00:00	2024-11-06T02:00:00	8	Radiación solar	0
115217	7	Sololá	702	San José Chacayá	5	Chacayá	8	Agosto	2023-08-24T00:00:00	2024-11-06T03:00:00	2	Temperatura media	12.3
115218	7	Sololá	702	San José Chacayá	5	Chacayá	8	Agosto	2023-08-24T00:00:00	2024-11-06T03:00:00	4	Temperatura máxima	12.3
115219	7	Sololá	702	San José Chacayá	5	Chacayá	8	Agosto	2023-08-24T00:00:00	2024-11-06T03:00:00	3	Temperatura mínima	12.2
115220	7	Sololá	702	San José Chacayá	5	Chacayá	8	Agosto	2023-08-24T00:00:00	2024-11-06T03:00:00	5	Humedad	94
115221	7	Sololá	702	San José Chacayá	5	Chacayá	8	Agosto	2023-08-24T00:00:00	2024-11-06T03:00:00	6	Velocidad del viento	0
115222	7	Sololá	702	San José Chacayá	5	Chacayá	8	Agosto	2023-08-24T00:00:00	2024-11-06T03:00:00	7	Dirección del viento	0
115223	7	Sololá	702	San José Chacayá	5	Chacayá	8	Agosto	2023-08-24T00:00:00	2024-11-06T03:00:00	1	Precipitación	0
115224	7	Sololá	702	San José Chacayá	5	Chacayá	8	Agosto	2023-08-24T00:00:00	2024-11-06T03:00:00	8	Radiación solar	0
115225	7	Sololá	702	San José Chacayá	5	Chacayá	8	Agosto	2023-08-24T00:00:00	2024-11-06T04:00:00	2	Temperatura media	12.4
115226	7	Sololá	702	San José Chacayá	5	Chacayá	8	Agosto	2023-08-24T00:00:00	2024-11-06T04:00:00	4	Temperatura máxima	12.5
115227	7	Sololá	702	San José Chacayá	5	Chacayá	8	Agosto	2023-08-24T00:00:00	2024-11-06T04:00:00	3	Temperatura mínima	12.4
115228	7	Sololá	702	San José Chacayá	5	Chacayá	8	Agosto	2023-08-24T00:00:00	2024-11-06T04:00:00	5	Humedad	94
115229	7	Sololá	702	San José Chacayá	5	Chacayá	8	Agosto	2023-08-24T00:00:00	2024-11-06T04:00:00	6	Velocidad del viento	0
115230	7	Sololá	702	San José Chacayá	5	Chacayá	8	Agosto	2023-08-24T00:00:00	2024-11-06T04:00:00	7	Dirección del viento	0
115231	7	Sololá	702	San José Chacayá	5	Chacayá	8	Agosto	2023-08-24T00:00:00	2024-11-06T04:00:00	1	Precipitación	0
115232	7	Sololá	702	San José Chacayá	5	Chacayá	8	Agosto	2023-08-24T00:00:00	2024-11-06T04:00:00	8	Radiación solar	0
115233	7	Sololá	702	San José Chacayá	5	Chacayá	8	Agosto	2023-08-24T00:00:00	2024-11-06T05:00:00	2	Temperatura media	12.7
115234	7	Sololá	702	San José Chacayá	5	Chacayá	8	Agosto	2023-08-24T00:00:00	2024-11-06T05:00:00	4	Temperatura máxima	12.7
115235	7	Sololá	702	San José Chacayá	5	Chacayá	8	Agosto	2023-08-24T00:00:00	2024-11-06T05:00:00	3	Temperatura mínima	12.6
115236	7	Sololá	702	San José Chacayá	5	Chacayá	8	Agosto	2023-08-24T00:00:00	2024-11-06T05:00:00	5	Humedad	92
115237	7	Sololá	702	San José Chacayá	5	Chacayá	8	Agosto	2023-08-24T00:00:00	2024-11-06T05:00:00	6	Velocidad del viento	0
115238	7	Sololá	702	San José Chacayá	5	Chacayá	8	Agosto	2023-08-24T00:00:00	2024-11-06T05:00:00	7	Dirección del viento	0
115239	7	Sololá	702	San José Chacayá	5	Chacayá	8	Agosto	2023-08-24T00:00:00	2024-11-06T05:00:00	1	Precipitación	0
115240	7	Sololá	702	San José Chacayá	5	Chacayá	8	Agosto	2023-08-24T00:00:00	2024-11-06T05:00:00	8	Radiación solar	0
115241	7	Sololá	702	San José Chacayá	5	Chacayá	8	Agosto	2023-08-24T00:00:00	2024-11-06T06:00:00	2	Temperatura media	12.3
115242	7	Sololá	702	San José Chacayá	5	Chacayá	8	Agosto	2023-08-24T00:00:00	2024-11-06T06:00:00	4	Temperatura máxima	12.4
115243	7	Sololá	702	San José Chacayá	5	Chacayá	8	Agosto	2023-08-24T00:00:00	2024-11-06T06:00:00	3	Temperatura mínima	12.3
115244	7	Sololá	702	San José Chacayá	5	Chacayá	8	Agosto	2023-08-24T00:00:00	2024-11-06T06:00:00	5	Humedad	92
115245	7	Sololá	702	San José Chacayá	5	Chacayá	8	Agosto	2023-08-24T00:00:00	2024-11-06T06:00:00	6	Velocidad del viento	0
115246	7	Sololá	702	San José Chacayá	5	Chacayá	8	Agosto	2023-08-24T00:00:00	2024-11-06T06:00:00	7	Dirección del viento	0
115247	7	Sololá	702	San José Chacayá	5	Chacayá	8	Agosto	2023-08-24T00:00:00	2024-11-06T06:00:00	1	Precipitación	0
115248	7	Sololá	702	San José Chacayá	5	Chacayá	8	Agosto	2023-08-24T00:00:00	2024-11-06T06:00:00	8	Radiación solar	1
115249	7	Sololá	702	San José Chacayá	5	Chacayá	8	Agosto	2023-08-24T00:00:00	2024-11-06T07:00:00	2	Temperatura media	13.2
115250	7	Sololá	702	San José Chacayá	5	Chacayá	8	Agosto	2023-08-24T00:00:00	2024-11-06T07:00:00	4	Temperatura máxima	13.2
115251	7	Sololá	702	San José Chacayá	5	Chacayá	8	Agosto	2023-08-24T00:00:00	2024-11-06T07:00:00	3	Temperatura mínima	12.7
115252	7	Sololá	702	San José Chacayá	5	Chacayá	8	Agosto	2023-08-24T00:00:00	2024-11-06T07:00:00	5	Humedad	90
115253	7	Sololá	702	San José Chacayá	5	Chacayá	8	Agosto	2023-08-24T00:00:00	2024-11-06T07:00:00	6	Velocidad del viento	0
115254	7	Sololá	702	San José Chacayá	5	Chacayá	8	Agosto	2023-08-24T00:00:00	2024-11-06T07:00:00	7	Dirección del viento	0
115255	7	Sololá	702	San José Chacayá	5	Chacayá	8	Agosto	2023-08-24T00:00:00	2024-11-06T07:00:00	1	Precipitación	0
115256	7	Sololá	702	San José Chacayá	5	Chacayá	8	Agosto	2023-08-24T00:00:00	2024-11-06T07:00:00	8	Radiación solar	38
115257	7	Sololá	702	San José Chacayá	5	Chacayá	8	Agosto	2023-08-24T00:00:00	2024-11-06T08:00:00	2	Temperatura media	15.3
115258	7	Sololá	702	San José Chacayá	5	Chacayá	8	Agosto	2023-08-24T00:00:00	2024-11-06T08:00:00	4	Temperatura máxima	15.3
115259	7	Sololá	702	San José Chacayá	5	Chacayá	8	Agosto	2023-08-24T00:00:00	2024-11-06T08:00:00	3	Temperatura mínima	14.1
115260	7	Sololá	702	San José Chacayá	5	Chacayá	8	Agosto	2023-08-24T00:00:00	2024-11-06T08:00:00	5	Humedad	82
115261	7	Sololá	702	San José Chacayá	5	Chacayá	8	Agosto	2023-08-24T00:00:00	2024-11-06T08:00:00	6	Velocidad del viento	0
115262	7	Sololá	702	San José Chacayá	5	Chacayá	8	Agosto	2023-08-24T00:00:00	2024-11-06T08:00:00	7	Dirección del viento	0
115263	7	Sololá	702	San José Chacayá	5	Chacayá	8	Agosto	2023-08-24T00:00:00	2024-11-06T08:00:00	1	Precipitación	0
115264	7	Sololá	702	San José Chacayá	5	Chacayá	8	Agosto	2023-08-24T00:00:00	2024-11-06T08:00:00	8	Radiación solar	90
115265	7	Sololá	702	San José Chacayá	5	Chacayá	8	Agosto	2023-08-24T00:00:00	2024-11-06T09:00:00	2	Temperatura media	16.7
115266	7	Sololá	702	San José Chacayá	5	Chacayá	8	Agosto	2023-08-24T00:00:00	2024-11-06T09:00:00	4	Temperatura máxima	16.7
115267	7	Sololá	702	San José Chacayá	5	Chacayá	8	Agosto	2023-08-24T00:00:00	2024-11-06T09:00:00	3	Temperatura mínima	16.1
115268	7	Sololá	702	San José Chacayá	5	Chacayá	8	Agosto	2023-08-24T00:00:00	2024-11-06T09:00:00	5	Humedad	80
115269	7	Sololá	702	San José Chacayá	5	Chacayá	8	Agosto	2023-08-24T00:00:00	2024-11-06T09:00:00	6	Velocidad del viento	0
115270	7	Sololá	702	San José Chacayá	5	Chacayá	8	Agosto	2023-08-24T00:00:00	2024-11-06T09:00:00	7	Dirección del viento	0
115271	7	Sololá	702	San José Chacayá	5	Chacayá	8	Agosto	2023-08-24T00:00:00	2024-11-06T09:00:00	1	Precipitación	0
115272	7	Sololá	702	San José Chacayá	5	Chacayá	8	Agosto	2023-08-24T00:00:00	2024-11-06T09:00:00	8	Radiación solar	336
115273	7	Sololá	702	San José Chacayá	5	Chacayá	8	Agosto	2023-08-24T00:00:00	2024-11-06T10:00:00	2	Temperatura media	17.3
115274	7	Sololá	702	San José Chacayá	5	Chacayá	8	Agosto	2023-08-24T00:00:00	2024-11-06T10:00:00	4	Temperatura máxima	17.4
115275	7	Sololá	702	San José Chacayá	5	Chacayá	8	Agosto	2023-08-24T00:00:00	2024-11-06T10:00:00	3	Temperatura mínima	17.1
115276	7	Sololá	702	San José Chacayá	5	Chacayá	8	Agosto	2023-08-24T00:00:00	2024-11-06T10:00:00	5	Humedad	83
115277	7	Sololá	702	San José Chacayá	5	Chacayá	8	Agosto	2023-08-24T00:00:00	2024-11-06T10:00:00	6	Velocidad del viento	1.6
115278	7	Sololá	702	San José Chacayá	5	Chacayá	8	Agosto	2023-08-24T00:00:00	2024-11-06T10:00:00	7	Dirección del viento	0.8
115279	7	Sololá	702	San José Chacayá	5	Chacayá	8	Agosto	2023-08-24T00:00:00	2024-11-06T10:00:00	1	Precipitación	0
115280	7	Sololá	702	San José Chacayá	5	Chacayá	8	Agosto	2023-08-24T00:00:00	2024-11-06T10:00:00	8	Radiación solar	714
115281	7	Sololá	702	San José Chacayá	5	Chacayá	8	Agosto	2023-08-24T00:00:00	2024-11-06T11:00:00	2	Temperatura media	18.3
115282	7	Sololá	702	San José Chacayá	5	Chacayá	8	Agosto	2023-08-24T00:00:00	2024-11-06T11:00:00	4	Temperatura máxima	18.3
115283	7	Sololá	702	San José Chacayá	5	Chacayá	8	Agosto	2023-08-24T00:00:00	2024-11-06T11:00:00	3	Temperatura mínima	17.8
115284	7	Sololá	702	San José Chacayá	5	Chacayá	8	Agosto	2023-08-24T00:00:00	2024-11-06T11:00:00	5	Humedad	82
115285	7	Sololá	702	San José Chacayá	5	Chacayá	8	Agosto	2023-08-24T00:00:00	2024-11-06T11:00:00	6	Velocidad del viento	1.6
115286	7	Sololá	702	San José Chacayá	5	Chacayá	8	Agosto	2023-08-24T00:00:00	2024-11-06T11:00:00	7	Dirección del viento	0.8
115287	7	Sololá	702	San José Chacayá	5	Chacayá	8	Agosto	2023-08-24T00:00:00	2024-11-06T11:00:00	1	Precipitación	0
115288	7	Sololá	702	San José Chacayá	5	Chacayá	8	Agosto	2023-08-24T00:00:00	2024-11-06T11:00:00	8	Radiación solar	473
115289	7	Sololá	702	San José Chacayá	5	Chacayá	8	Agosto	2023-08-24T00:00:00	2024-11-06T12:00:00	2	Temperatura media	19.3
115290	7	Sololá	702	San José Chacayá	5	Chacayá	8	Agosto	2023-08-24T00:00:00	2024-11-06T12:00:00	4	Temperatura máxima	19.3
115291	7	Sololá	702	San José Chacayá	5	Chacayá	8	Agosto	2023-08-24T00:00:00	2024-11-06T12:00:00	3	Temperatura mínima	17.9
115292	7	Sololá	702	San José Chacayá	5	Chacayá	8	Agosto	2023-08-24T00:00:00	2024-11-06T12:00:00	5	Humedad	78
115293	7	Sololá	702	San José Chacayá	5	Chacayá	8	Agosto	2023-08-24T00:00:00	2024-11-06T12:00:00	6	Velocidad del viento	3.2
115294	7	Sololá	702	San José Chacayá	5	Chacayá	8	Agosto	2023-08-24T00:00:00	2024-11-06T12:00:00	7	Dirección del viento	1.61
115295	7	Sololá	702	San José Chacayá	5	Chacayá	8	Agosto	2023-08-24T00:00:00	2024-11-06T12:00:00	1	Precipitación	0
115296	7	Sololá	702	San José Chacayá	5	Chacayá	8	Agosto	2023-08-24T00:00:00	2024-11-06T12:00:00	8	Radiación solar	280
115297	7	Sololá	702	San José Chacayá	5	Chacayá	8	Agosto	2023-08-24T00:00:00	2024-11-06T13:00:00	2	Temperatura media	19.4
115298	7	Sololá	702	San José Chacayá	5	Chacayá	8	Agosto	2023-08-24T00:00:00	2024-11-06T13:00:00	4	Temperatura máxima	20.4
115299	7	Sololá	702	San José Chacayá	5	Chacayá	8	Agosto	2023-08-24T00:00:00	2024-11-06T13:00:00	3	Temperatura mínima	19.4
115300	7	Sololá	702	San José Chacayá	5	Chacayá	8	Agosto	2023-08-24T00:00:00	2024-11-06T13:00:00	5	Humedad	76
115301	7	Sololá	702	San José Chacayá	5	Chacayá	8	Agosto	2023-08-24T00:00:00	2024-11-06T13:00:00	6	Velocidad del viento	6.4
115302	7	Sololá	702	San José Chacayá	5	Chacayá	8	Agosto	2023-08-24T00:00:00	2024-11-06T13:00:00	7	Dirección del viento	3.22
115303	7	Sololá	702	San José Chacayá	5	Chacayá	8	Agosto	2023-08-24T00:00:00	2024-11-06T13:00:00	1	Precipitación	0
115304	7	Sololá	702	San José Chacayá	5	Chacayá	8	Agosto	2023-08-24T00:00:00	2024-11-06T13:00:00	8	Radiación solar	357
115305	7	Sololá	702	San José Chacayá	5	Chacayá	8	Agosto	2023-08-24T00:00:00	2024-11-06T14:00:00	2	Temperatura media	17.4
115306	7	Sololá	702	San José Chacayá	5	Chacayá	8	Agosto	2023-08-24T00:00:00	2024-11-06T14:00:00	4	Temperatura máxima	18.2
115307	7	Sololá	702	San José Chacayá	5	Chacayá	8	Agosto	2023-08-24T00:00:00	2024-11-06T14:00:00	3	Temperatura mínima	17.4
115308	7	Sololá	702	San José Chacayá	5	Chacayá	8	Agosto	2023-08-24T00:00:00	2024-11-06T14:00:00	5	Humedad	84
115309	7	Sololá	702	San José Chacayá	5	Chacayá	8	Agosto	2023-08-24T00:00:00	2024-11-06T14:00:00	6	Velocidad del viento	3.2
115310	7	Sololá	702	San José Chacayá	5	Chacayá	8	Agosto	2023-08-24T00:00:00	2024-11-06T14:00:00	7	Dirección del viento	1.61
115311	7	Sololá	702	San José Chacayá	5	Chacayá	8	Agosto	2023-08-24T00:00:00	2024-11-06T14:00:00	1	Precipitación	0
115312	7	Sololá	702	San José Chacayá	5	Chacayá	8	Agosto	2023-08-24T00:00:00	2024-11-06T14:00:00	8	Radiación solar	417
115313	7	Sololá	702	San José Chacayá	5	Chacayá	8	Agosto	2023-08-24T00:00:00	2024-11-06T15:00:00	2	Temperatura media	16.6
115314	7	Sololá	702	San José Chacayá	5	Chacayá	8	Agosto	2023-08-24T00:00:00	2024-11-06T15:00:00	4	Temperatura máxima	16.9
115315	7	Sololá	702	San José Chacayá	5	Chacayá	8	Agosto	2023-08-24T00:00:00	2024-11-06T15:00:00	3	Temperatura mínima	16.6
115316	7	Sololá	702	San José Chacayá	5	Chacayá	8	Agosto	2023-08-24T00:00:00	2024-11-06T15:00:00	5	Humedad	89
115317	7	Sololá	702	San José Chacayá	5	Chacayá	8	Agosto	2023-08-24T00:00:00	2024-11-06T15:00:00	6	Velocidad del viento	0
115318	7	Sololá	702	San José Chacayá	5	Chacayá	8	Agosto	2023-08-24T00:00:00	2024-11-06T15:00:00	7	Dirección del viento	0
115319	7	Sololá	702	San José Chacayá	5	Chacayá	8	Agosto	2023-08-24T00:00:00	2024-11-06T15:00:00	1	Precipitación	0.51
115320	7	Sololá	702	San José Chacayá	5	Chacayá	8	Agosto	2023-08-24T00:00:00	2024-11-06T15:00:00	8	Radiación solar	402
115321	7	Sololá	702	San José Chacayá	5	Chacayá	8	Agosto	2023-08-24T00:00:00	2024-11-06T16:00:00	2	Temperatura media	16.2
115322	7	Sololá	702	San José Chacayá	5	Chacayá	8	Agosto	2023-08-24T00:00:00	2024-11-06T16:00:00	4	Temperatura máxima	16.5
115323	7	Sololá	702	San José Chacayá	5	Chacayá	8	Agosto	2023-08-24T00:00:00	2024-11-06T16:00:00	3	Temperatura mínima	16.2
115324	7	Sololá	702	San José Chacayá	5	Chacayá	8	Agosto	2023-08-24T00:00:00	2024-11-06T16:00:00	5	Humedad	91
115325	7	Sololá	702	San José Chacayá	5	Chacayá	8	Agosto	2023-08-24T00:00:00	2024-11-06T16:00:00	6	Velocidad del viento	1.6
115326	7	Sololá	702	San José Chacayá	5	Chacayá	8	Agosto	2023-08-24T00:00:00	2024-11-06T16:00:00	7	Dirección del viento	0.8
115327	7	Sololá	702	San José Chacayá	5	Chacayá	8	Agosto	2023-08-24T00:00:00	2024-11-06T16:00:00	1	Precipitación	0.76
115328	7	Sololá	702	San José Chacayá	5	Chacayá	8	Agosto	2023-08-24T00:00:00	2024-11-06T16:00:00	8	Radiación solar	66
115329	7	Sololá	702	San José Chacayá	5	Chacayá	8	Agosto	2023-08-24T00:00:00	2024-11-06T17:00:00	2	Temperatura media	16.1
115330	7	Sololá	702	San José Chacayá	5	Chacayá	8	Agosto	2023-08-24T00:00:00	2024-11-06T17:00:00	4	Temperatura máxima	16.1
115331	7	Sololá	702	San José Chacayá	5	Chacayá	8	Agosto	2023-08-24T00:00:00	2024-11-06T17:00:00	3	Temperatura mínima	15.9
115332	7	Sololá	702	San José Chacayá	5	Chacayá	8	Agosto	2023-08-24T00:00:00	2024-11-06T17:00:00	5	Humedad	92
115333	7	Sololá	702	San José Chacayá	5	Chacayá	8	Agosto	2023-08-24T00:00:00	2024-11-06T17:00:00	6	Velocidad del viento	0
115334	7	Sololá	702	San José Chacayá	5	Chacayá	8	Agosto	2023-08-24T00:00:00	2024-11-06T17:00:00	7	Dirección del viento	0
115335	7	Sololá	702	San José Chacayá	5	Chacayá	8	Agosto	2023-08-24T00:00:00	2024-11-06T17:00:00	1	Precipitación	0
115336	7	Sololá	702	San José Chacayá	5	Chacayá	8	Agosto	2023-08-24T00:00:00	2024-11-06T17:00:00	8	Radiación solar	241
115337	7	Sololá	702	San José Chacayá	5	Chacayá	8	Agosto	2023-08-24T00:00:00	2024-11-06T18:00:00	2	Temperatura media	15.9
115338	7	Sololá	702	San José Chacayá	5	Chacayá	8	Agosto	2023-08-24T00:00:00	2024-11-06T18:00:00	4	Temperatura máxima	16.1
115339	7	Sololá	702	San José Chacayá	5	Chacayá	8	Agosto	2023-08-24T00:00:00	2024-11-06T18:00:00	3	Temperatura mínima	15.9
115340	7	Sololá	702	San José Chacayá	5	Chacayá	8	Agosto	2023-08-24T00:00:00	2024-11-06T18:00:00	5	Humedad	92
115341	7	Sololá	702	San José Chacayá	5	Chacayá	8	Agosto	2023-08-24T00:00:00	2024-11-06T18:00:00	6	Velocidad del viento	0
115342	7	Sololá	702	San José Chacayá	5	Chacayá	8	Agosto	2023-08-24T00:00:00	2024-11-06T18:00:00	7	Dirección del viento	0
115343	7	Sololá	702	San José Chacayá	5	Chacayá	8	Agosto	2023-08-24T00:00:00	2024-11-06T18:00:00	1	Precipitación	0
115344	7	Sololá	702	San José Chacayá	5	Chacayá	8	Agosto	2023-08-24T00:00:00	2024-11-06T18:00:00	8	Radiación solar	62
115345	7	Sololá	702	San José Chacayá	5	Chacayá	8	Agosto	2023-08-24T00:00:00	2024-11-06T19:00:00	2	Temperatura media	14.8
115346	7	Sololá	702	San José Chacayá	5	Chacayá	8	Agosto	2023-08-24T00:00:00	2024-11-06T19:00:00	4	Temperatura máxima	15.6
115347	7	Sololá	702	San José Chacayá	5	Chacayá	8	Agosto	2023-08-24T00:00:00	2024-11-06T19:00:00	3	Temperatura mínima	14.8
115348	7	Sololá	702	San José Chacayá	5	Chacayá	8	Agosto	2023-08-24T00:00:00	2024-11-06T19:00:00	5	Humedad	92
115349	7	Sololá	702	San José Chacayá	5	Chacayá	8	Agosto	2023-08-24T00:00:00	2024-11-06T19:00:00	6	Velocidad del viento	0
115350	7	Sololá	702	San José Chacayá	5	Chacayá	8	Agosto	2023-08-24T00:00:00	2024-11-06T19:00:00	7	Dirección del viento	0
115351	7	Sololá	702	San José Chacayá	5	Chacayá	8	Agosto	2023-08-24T00:00:00	2024-11-06T19:00:00	1	Precipitación	0
115352	7	Sololá	702	San José Chacayá	5	Chacayá	8	Agosto	2023-08-24T00:00:00	2024-11-06T19:00:00	8	Radiación solar	0
115353	7	Sololá	702	San José Chacayá	5	Chacayá	8	Agosto	2023-08-24T00:00:00	2024-11-06T20:00:00	2	Temperatura media	14.1
115354	7	Sololá	702	San José Chacayá	5	Chacayá	8	Agosto	2023-08-24T00:00:00	2024-11-06T20:00:00	4	Temperatura máxima	14.4
115355	7	Sololá	702	San José Chacayá	5	Chacayá	8	Agosto	2023-08-24T00:00:00	2024-11-06T20:00:00	3	Temperatura mínima	14.1
115356	7	Sololá	702	San José Chacayá	5	Chacayá	8	Agosto	2023-08-24T00:00:00	2024-11-06T20:00:00	5	Humedad	93
115357	7	Sololá	702	San José Chacayá	5	Chacayá	8	Agosto	2023-08-24T00:00:00	2024-11-06T20:00:00	6	Velocidad del viento	0
115358	7	Sololá	702	San José Chacayá	5	Chacayá	8	Agosto	2023-08-24T00:00:00	2024-11-06T20:00:00	7	Dirección del viento	0
115359	7	Sololá	702	San José Chacayá	5	Chacayá	8	Agosto	2023-08-24T00:00:00	2024-11-06T20:00:00	1	Precipitación	0
115360	7	Sololá	702	San José Chacayá	5	Chacayá	8	Agosto	2023-08-24T00:00:00	2024-11-06T20:00:00	8	Radiación solar	0
115361	7	Sololá	702	San José Chacayá	5	Chacayá	8	Agosto	2023-08-24T00:00:00	2024-11-06T21:00:00	2	Temperatura media	13.7
115362	7	Sololá	702	San José Chacayá	5	Chacayá	8	Agosto	2023-08-24T00:00:00	2024-11-06T21:00:00	4	Temperatura máxima	13.8
115363	7	Sololá	702	San José Chacayá	5	Chacayá	8	Agosto	2023-08-24T00:00:00	2024-11-06T21:00:00	3	Temperatura mínima	13.6
115364	7	Sololá	702	San José Chacayá	5	Chacayá	8	Agosto	2023-08-24T00:00:00	2024-11-06T21:00:00	5	Humedad	94
115365	7	Sololá	702	San José Chacayá	5	Chacayá	8	Agosto	2023-08-24T00:00:00	2024-11-06T21:00:00	6	Velocidad del viento	0
115366	7	Sololá	702	San José Chacayá	5	Chacayá	8	Agosto	2023-08-24T00:00:00	2024-11-06T21:00:00	7	Dirección del viento	0
115367	7	Sololá	702	San José Chacayá	5	Chacayá	8	Agosto	2023-08-24T00:00:00	2024-11-06T21:00:00	1	Precipitación	0
115368	7	Sololá	702	San José Chacayá	5	Chacayá	8	Agosto	2023-08-24T00:00:00	2024-11-06T21:00:00	8	Radiación solar	0
115369	7	Sololá	702	San José Chacayá	5	Chacayá	8	Agosto	2023-08-24T00:00:00	2024-11-06T22:00:00	2	Temperatura media	12.9
115370	7	Sololá	702	San José Chacayá	5	Chacayá	8	Agosto	2023-08-24T00:00:00	2024-11-06T22:00:00	4	Temperatura máxima	13.3
115371	7	Sololá	702	San José Chacayá	5	Chacayá	8	Agosto	2023-08-24T00:00:00	2024-11-06T22:00:00	3	Temperatura mínima	12.9
115372	7	Sololá	702	San José Chacayá	5	Chacayá	8	Agosto	2023-08-24T00:00:00	2024-11-06T22:00:00	5	Humedad	94
115373	7	Sololá	702	San José Chacayá	5	Chacayá	8	Agosto	2023-08-24T00:00:00	2024-11-06T22:00:00	6	Velocidad del viento	0
115374	7	Sololá	702	San José Chacayá	5	Chacayá	8	Agosto	2023-08-24T00:00:00	2024-11-06T22:00:00	7	Dirección del viento	0
115375	7	Sololá	702	San José Chacayá	5	Chacayá	8	Agosto	2023-08-24T00:00:00	2024-11-06T22:00:00	1	Precipitación	0
115376	7	Sololá	702	San José Chacayá	5	Chacayá	8	Agosto	2023-08-24T00:00:00	2024-11-06T22:00:00	8	Radiación solar	0
115377	7	Sololá	702	San José Chacayá	5	Chacayá	8	Agosto	2023-08-24T00:00:00	2024-11-06T23:00:00	2	Temperatura media	12
115378	7	Sololá	702	San José Chacayá	5	Chacayá	8	Agosto	2023-08-24T00:00:00	2024-11-06T23:00:00	4	Temperatura máxima	12.4
115379	7	Sololá	702	San José Chacayá	5	Chacayá	8	Agosto	2023-08-24T00:00:00	2024-11-06T23:00:00	3	Temperatura mínima	12
115380	7	Sololá	702	San José Chacayá	5	Chacayá	8	Agosto	2023-08-24T00:00:00	2024-11-06T23:00:00	5	Humedad	94
115381	7	Sololá	702	San José Chacayá	5	Chacayá	8	Agosto	2023-08-24T00:00:00	2024-11-06T23:00:00	6	Velocidad del viento	0
115382	7	Sololá	702	San José Chacayá	5	Chacayá	8	Agosto	2023-08-24T00:00:00	2024-11-06T23:00:00	7	Dirección del viento	0
115383	7	Sololá	702	San José Chacayá	5	Chacayá	8	Agosto	2023-08-24T00:00:00	2024-11-06T23:00:00	1	Precipitación	0
115384	7	Sololá	702	San José Chacayá	5	Chacayá	8	Agosto	2023-08-24T00:00:00	2024-11-06T23:00:00	8	Radiación solar	0
115385	7	Sololá	702	San José Chacayá	5	Chacayá	8	Agosto	2023-08-25T00:00:00	2024-11-06T00:00:00	2	Temperatura media	11.9
115386	7	Sololá	702	San José Chacayá	5	Chacayá	8	Agosto	2023-08-25T00:00:00	2024-11-06T00:00:00	4	Temperatura máxima	11.9
115387	7	Sololá	702	San José Chacayá	5	Chacayá	8	Agosto	2023-08-25T00:00:00	2024-11-06T00:00:00	3	Temperatura mínima	11.7
115388	7	Sololá	702	San José Chacayá	5	Chacayá	8	Agosto	2023-08-25T00:00:00	2024-11-06T00:00:00	5	Humedad	96
115389	7	Sololá	702	San José Chacayá	5	Chacayá	8	Agosto	2023-08-25T00:00:00	2024-11-06T00:00:00	6	Velocidad del viento	0
115390	7	Sololá	702	San José Chacayá	5	Chacayá	8	Agosto	2023-08-25T00:00:00	2024-11-06T00:00:00	7	Dirección del viento	0
115391	7	Sololá	702	San José Chacayá	5	Chacayá	8	Agosto	2023-08-25T00:00:00	2024-11-06T00:00:00	1	Precipitación	0
115392	7	Sololá	702	San José Chacayá	5	Chacayá	8	Agosto	2023-08-25T00:00:00	2024-11-06T00:00:00	8	Radiación solar	0
115393	7	Sololá	702	San José Chacayá	5	Chacayá	8	Agosto	2023-08-25T00:00:00	2024-11-06T01:00:00	2	Temperatura media	12.6
115394	7	Sololá	702	San José Chacayá	5	Chacayá	8	Agosto	2023-08-25T00:00:00	2024-11-06T01:00:00	4	Temperatura máxima	12.6
115395	7	Sololá	702	San José Chacayá	5	Chacayá	8	Agosto	2023-08-25T00:00:00	2024-11-06T01:00:00	3	Temperatura mínima	12.1
115396	7	Sololá	702	San José Chacayá	5	Chacayá	8	Agosto	2023-08-25T00:00:00	2024-11-06T01:00:00	5	Humedad	96
115397	7	Sololá	702	San José Chacayá	5	Chacayá	8	Agosto	2023-08-25T00:00:00	2024-11-06T01:00:00	6	Velocidad del viento	1.6
115398	7	Sololá	702	San José Chacayá	5	Chacayá	8	Agosto	2023-08-25T00:00:00	2024-11-06T01:00:00	7	Dirección del viento	0.8
115399	7	Sololá	702	San José Chacayá	5	Chacayá	8	Agosto	2023-08-25T00:00:00	2024-11-06T01:00:00	1	Precipitación	0
115400	7	Sololá	702	San José Chacayá	5	Chacayá	8	Agosto	2023-08-25T00:00:00	2024-11-06T01:00:00	8	Radiación solar	0
115401	7	Sololá	702	San José Chacayá	5	Chacayá	8	Agosto	2023-08-25T00:00:00	2024-11-06T02:00:00	2	Temperatura media	12.2
115402	7	Sololá	702	San José Chacayá	5	Chacayá	8	Agosto	2023-08-25T00:00:00	2024-11-06T02:00:00	4	Temperatura máxima	12.6
115403	7	Sololá	702	San José Chacayá	5	Chacayá	8	Agosto	2023-08-25T00:00:00	2024-11-06T02:00:00	3	Temperatura mínima	12.2
115404	7	Sololá	702	San José Chacayá	5	Chacayá	8	Agosto	2023-08-25T00:00:00	2024-11-06T02:00:00	5	Humedad	94
115405	7	Sololá	702	San José Chacayá	5	Chacayá	8	Agosto	2023-08-25T00:00:00	2024-11-06T02:00:00	6	Velocidad del viento	0
115406	7	Sololá	702	San José Chacayá	5	Chacayá	8	Agosto	2023-08-25T00:00:00	2024-11-06T02:00:00	7	Dirección del viento	0
115407	7	Sololá	702	San José Chacayá	5	Chacayá	8	Agosto	2023-08-25T00:00:00	2024-11-06T02:00:00	1	Precipitación	0
115408	7	Sololá	702	San José Chacayá	5	Chacayá	8	Agosto	2023-08-25T00:00:00	2024-11-06T02:00:00	8	Radiación solar	0
115409	7	Sololá	702	San José Chacayá	5	Chacayá	8	Agosto	2023-08-25T00:00:00	2024-11-06T03:00:00	2	Temperatura media	11.7
115410	7	Sololá	702	San José Chacayá	5	Chacayá	8	Agosto	2023-08-25T00:00:00	2024-11-06T03:00:00	4	Temperatura máxima	12
115411	7	Sololá	702	San José Chacayá	5	Chacayá	8	Agosto	2023-08-25T00:00:00	2024-11-06T03:00:00	3	Temperatura mínima	11.7
115412	7	Sololá	702	San José Chacayá	5	Chacayá	8	Agosto	2023-08-25T00:00:00	2024-11-06T03:00:00	5	Humedad	93
115413	7	Sololá	702	San José Chacayá	5	Chacayá	8	Agosto	2023-08-25T00:00:00	2024-11-06T03:00:00	6	Velocidad del viento	0
115414	7	Sololá	702	San José Chacayá	5	Chacayá	8	Agosto	2023-08-25T00:00:00	2024-11-06T03:00:00	7	Dirección del viento	0
115415	7	Sololá	702	San José Chacayá	5	Chacayá	8	Agosto	2023-08-25T00:00:00	2024-11-06T03:00:00	1	Precipitación	0
115416	7	Sololá	702	San José Chacayá	5	Chacayá	8	Agosto	2023-08-25T00:00:00	2024-11-06T03:00:00	8	Radiación solar	0
115417	7	Sololá	702	San José Chacayá	5	Chacayá	8	Agosto	2023-08-25T00:00:00	2024-11-06T04:00:00	2	Temperatura media	11.4
115418	7	Sololá	702	San José Chacayá	5	Chacayá	8	Agosto	2023-08-25T00:00:00	2024-11-06T04:00:00	4	Temperatura máxima	11.6
115419	7	Sololá	702	San José Chacayá	5	Chacayá	8	Agosto	2023-08-25T00:00:00	2024-11-06T04:00:00	3	Temperatura mínima	11.4
115420	7	Sololá	702	San José Chacayá	5	Chacayá	8	Agosto	2023-08-25T00:00:00	2024-11-06T04:00:00	5	Humedad	94
115421	7	Sololá	702	San José Chacayá	5	Chacayá	8	Agosto	2023-08-25T00:00:00	2024-11-06T04:00:00	6	Velocidad del viento	0
115422	7	Sololá	702	San José Chacayá	5	Chacayá	8	Agosto	2023-08-25T00:00:00	2024-11-06T04:00:00	7	Dirección del viento	0
115423	7	Sololá	702	San José Chacayá	5	Chacayá	8	Agosto	2023-08-25T00:00:00	2024-11-06T04:00:00	1	Precipitación	0
115424	7	Sololá	702	San José Chacayá	5	Chacayá	8	Agosto	2023-08-25T00:00:00	2024-11-06T04:00:00	8	Radiación solar	0
115425	7	Sololá	702	San José Chacayá	5	Chacayá	8	Agosto	2023-08-25T00:00:00	2024-11-06T05:00:00	2	Temperatura media	11.4
115426	7	Sololá	702	San José Chacayá	5	Chacayá	8	Agosto	2023-08-25T00:00:00	2024-11-06T05:00:00	4	Temperatura máxima	11.4
115427	7	Sololá	702	San José Chacayá	5	Chacayá	8	Agosto	2023-08-25T00:00:00	2024-11-06T05:00:00	3	Temperatura mínima	11.3
115428	7	Sololá	702	San José Chacayá	5	Chacayá	8	Agosto	2023-08-25T00:00:00	2024-11-06T05:00:00	5	Humedad	95
115429	7	Sololá	702	San José Chacayá	5	Chacayá	8	Agosto	2023-08-25T00:00:00	2024-11-06T05:00:00	6	Velocidad del viento	0
115430	7	Sololá	702	San José Chacayá	5	Chacayá	8	Agosto	2023-08-25T00:00:00	2024-11-06T05:00:00	7	Dirección del viento	0
115431	7	Sololá	702	San José Chacayá	5	Chacayá	8	Agosto	2023-08-25T00:00:00	2024-11-06T05:00:00	1	Precipitación	0
115432	7	Sololá	702	San José Chacayá	5	Chacayá	8	Agosto	2023-08-25T00:00:00	2024-11-06T05:00:00	8	Radiación solar	0
115433	7	Sololá	702	San José Chacayá	5	Chacayá	8	Agosto	2023-08-25T00:00:00	2024-11-06T06:00:00	2	Temperatura media	11.6
115434	7	Sololá	702	San José Chacayá	5	Chacayá	8	Agosto	2023-08-25T00:00:00	2024-11-06T06:00:00	4	Temperatura máxima	11.6
115435	7	Sololá	702	San José Chacayá	5	Chacayá	8	Agosto	2023-08-25T00:00:00	2024-11-06T06:00:00	3	Temperatura mínima	11.5
115436	7	Sololá	702	San José Chacayá	5	Chacayá	8	Agosto	2023-08-25T00:00:00	2024-11-06T06:00:00	5	Humedad	95
115437	7	Sololá	702	San José Chacayá	5	Chacayá	8	Agosto	2023-08-25T00:00:00	2024-11-06T06:00:00	6	Velocidad del viento	0
115438	7	Sololá	702	San José Chacayá	5	Chacayá	8	Agosto	2023-08-25T00:00:00	2024-11-06T06:00:00	7	Dirección del viento	0
115439	7	Sololá	702	San José Chacayá	5	Chacayá	8	Agosto	2023-08-25T00:00:00	2024-11-06T06:00:00	1	Precipitación	0
115440	7	Sololá	702	San José Chacayá	5	Chacayá	8	Agosto	2023-08-25T00:00:00	2024-11-06T06:00:00	8	Radiación solar	1
115441	7	Sololá	702	San José Chacayá	5	Chacayá	8	Agosto	2023-08-25T00:00:00	2024-11-06T07:00:00	2	Temperatura media	11.9
115442	7	Sololá	702	San José Chacayá	5	Chacayá	8	Agosto	2023-08-25T00:00:00	2024-11-06T07:00:00	4	Temperatura máxima	11.9
115443	7	Sololá	702	San José Chacayá	5	Chacayá	8	Agosto	2023-08-25T00:00:00	2024-11-06T07:00:00	3	Temperatura mínima	11.4
115444	7	Sololá	702	San José Chacayá	5	Chacayá	8	Agosto	2023-08-25T00:00:00	2024-11-06T07:00:00	5	Humedad	95
115445	7	Sololá	702	San José Chacayá	5	Chacayá	8	Agosto	2023-08-25T00:00:00	2024-11-06T07:00:00	6	Velocidad del viento	1.6
115446	7	Sololá	702	San José Chacayá	5	Chacayá	8	Agosto	2023-08-25T00:00:00	2024-11-06T07:00:00	7	Dirección del viento	0.8
115447	7	Sololá	702	San José Chacayá	5	Chacayá	8	Agosto	2023-08-25T00:00:00	2024-11-06T07:00:00	1	Precipitación	0
115448	7	Sololá	702	San José Chacayá	5	Chacayá	8	Agosto	2023-08-25T00:00:00	2024-11-06T07:00:00	8	Radiación solar	25
115449	7	Sololá	702	San José Chacayá	5	Chacayá	8	Agosto	2023-08-25T00:00:00	2024-11-06T08:00:00	2	Temperatura media	13.6
115450	7	Sololá	702	San José Chacayá	5	Chacayá	8	Agosto	2023-08-25T00:00:00	2024-11-06T08:00:00	4	Temperatura máxima	13.6
115451	7	Sololá	702	San José Chacayá	5	Chacayá	8	Agosto	2023-08-25T00:00:00	2024-11-06T08:00:00	3	Temperatura mínima	12.6
115452	7	Sololá	702	San José Chacayá	5	Chacayá	8	Agosto	2023-08-25T00:00:00	2024-11-06T08:00:00	5	Humedad	93
115453	7	Sololá	702	San José Chacayá	5	Chacayá	8	Agosto	2023-08-25T00:00:00	2024-11-06T08:00:00	6	Velocidad del viento	0
115454	7	Sololá	702	San José Chacayá	5	Chacayá	8	Agosto	2023-08-25T00:00:00	2024-11-06T08:00:00	7	Dirección del viento	0
115455	7	Sololá	702	San José Chacayá	5	Chacayá	8	Agosto	2023-08-25T00:00:00	2024-11-06T08:00:00	1	Precipitación	0
115456	7	Sololá	702	San José Chacayá	5	Chacayá	8	Agosto	2023-08-25T00:00:00	2024-11-06T08:00:00	8	Radiación solar	40
115457	7	Sololá	702	San José Chacayá	5	Chacayá	8	Agosto	2023-08-25T00:00:00	2024-11-06T09:00:00	2	Temperatura media	19.3
115458	7	Sololá	702	San José Chacayá	5	Chacayá	8	Agosto	2023-08-25T00:00:00	2024-11-06T09:00:00	4	Temperatura máxima	19.3
115459	7	Sololá	702	San José Chacayá	5	Chacayá	8	Agosto	2023-08-25T00:00:00	2024-11-06T09:00:00	3	Temperatura mínima	16.2
115460	7	Sololá	702	San José Chacayá	5	Chacayá	8	Agosto	2023-08-25T00:00:00	2024-11-06T09:00:00	5	Humedad	76
115461	7	Sololá	702	San José Chacayá	5	Chacayá	8	Agosto	2023-08-25T00:00:00	2024-11-06T09:00:00	6	Velocidad del viento	3.2
115462	7	Sololá	702	San José Chacayá	5	Chacayá	8	Agosto	2023-08-25T00:00:00	2024-11-06T09:00:00	7	Dirección del viento	1.61
115463	7	Sololá	702	San José Chacayá	5	Chacayá	8	Agosto	2023-08-25T00:00:00	2024-11-06T09:00:00	1	Precipitación	0
115464	7	Sololá	702	San José Chacayá	5	Chacayá	8	Agosto	2023-08-25T00:00:00	2024-11-06T09:00:00	8	Radiación solar	550
115465	7	Sololá	702	San José Chacayá	5	Chacayá	8	Agosto	2023-08-25T00:00:00	2024-11-06T10:00:00	2	Temperatura media	21.4
115466	7	Sololá	702	San José Chacayá	5	Chacayá	8	Agosto	2023-08-25T00:00:00	2024-11-06T10:00:00	4	Temperatura máxima	21.6
115467	7	Sololá	702	San José Chacayá	5	Chacayá	8	Agosto	2023-08-25T00:00:00	2024-11-06T10:00:00	3	Temperatura mínima	21.1
115468	7	Sololá	702	San José Chacayá	5	Chacayá	8	Agosto	2023-08-25T00:00:00	2024-11-06T10:00:00	5	Humedad	70
115469	7	Sololá	702	San José Chacayá	5	Chacayá	8	Agosto	2023-08-25T00:00:00	2024-11-06T10:00:00	6	Velocidad del viento	6.4
115470	7	Sololá	702	San José Chacayá	5	Chacayá	8	Agosto	2023-08-25T00:00:00	2024-11-06T10:00:00	7	Dirección del viento	3.22
115471	7	Sololá	702	San José Chacayá	5	Chacayá	8	Agosto	2023-08-25T00:00:00	2024-11-06T10:00:00	1	Precipitación	0
115472	7	Sololá	702	San José Chacayá	5	Chacayá	8	Agosto	2023-08-25T00:00:00	2024-11-06T10:00:00	8	Radiación solar	833
115473	7	Sololá	702	San José Chacayá	5	Chacayá	8	Agosto	2023-08-25T00:00:00	2024-11-06T11:00:00	2	Temperatura media	20.6
115474	7	Sololá	702	San José Chacayá	5	Chacayá	8	Agosto	2023-08-25T00:00:00	2024-11-06T11:00:00	4	Temperatura máxima	20.7
115475	7	Sololá	702	San José Chacayá	5	Chacayá	8	Agosto	2023-08-25T00:00:00	2024-11-06T11:00:00	3	Temperatura mínima	20
115476	7	Sololá	702	San José Chacayá	5	Chacayá	8	Agosto	2023-08-25T00:00:00	2024-11-06T11:00:00	5	Humedad	76
115477	7	Sololá	702	San José Chacayá	5	Chacayá	8	Agosto	2023-08-25T00:00:00	2024-11-06T11:00:00	6	Velocidad del viento	6.4
115478	7	Sololá	702	San José Chacayá	5	Chacayá	8	Agosto	2023-08-25T00:00:00	2024-11-06T11:00:00	7	Dirección del viento	3.22
115479	7	Sololá	702	San José Chacayá	5	Chacayá	8	Agosto	2023-08-25T00:00:00	2024-11-06T11:00:00	1	Precipitación	0
115480	7	Sololá	702	San José Chacayá	5	Chacayá	8	Agosto	2023-08-25T00:00:00	2024-11-06T11:00:00	8	Radiación solar	996
115481	7	Sololá	702	San José Chacayá	5	Chacayá	8	Agosto	2023-08-25T00:00:00	2024-11-06T12:00:00	2	Temperatura media	21.4
115482	7	Sololá	702	San José Chacayá	5	Chacayá	8	Agosto	2023-08-25T00:00:00	2024-11-06T12:00:00	4	Temperatura máxima	22.1
115483	7	Sololá	702	San José Chacayá	5	Chacayá	8	Agosto	2023-08-25T00:00:00	2024-11-06T12:00:00	3	Temperatura mínima	21.3
115484	7	Sololá	702	San José Chacayá	5	Chacayá	8	Agosto	2023-08-25T00:00:00	2024-11-06T12:00:00	5	Humedad	72
115485	7	Sololá	702	San José Chacayá	5	Chacayá	8	Agosto	2023-08-25T00:00:00	2024-11-06T12:00:00	6	Velocidad del viento	6.4
115486	7	Sololá	702	San José Chacayá	5	Chacayá	8	Agosto	2023-08-25T00:00:00	2024-11-06T12:00:00	7	Dirección del viento	3.22
115487	7	Sololá	702	San José Chacayá	5	Chacayá	8	Agosto	2023-08-25T00:00:00	2024-11-06T12:00:00	1	Precipitación	0
115488	7	Sololá	702	San José Chacayá	5	Chacayá	8	Agosto	2023-08-25T00:00:00	2024-11-06T12:00:00	8	Radiación solar	826
115489	7	Sololá	702	San José Chacayá	5	Chacayá	8	Agosto	2023-08-25T00:00:00	2024-11-06T13:00:00	2	Temperatura media	20.3
115490	7	Sololá	702	San José Chacayá	5	Chacayá	8	Agosto	2023-08-25T00:00:00	2024-11-06T13:00:00	4	Temperatura máxima	21.7
115491	7	Sololá	702	San José Chacayá	5	Chacayá	8	Agosto	2023-08-25T00:00:00	2024-11-06T13:00:00	3	Temperatura mínima	20.3
115492	7	Sololá	702	San José Chacayá	5	Chacayá	8	Agosto	2023-08-25T00:00:00	2024-11-06T13:00:00	5	Humedad	76
115493	7	Sololá	702	San José Chacayá	5	Chacayá	8	Agosto	2023-08-25T00:00:00	2024-11-06T13:00:00	6	Velocidad del viento	4.8
115494	7	Sololá	702	San José Chacayá	5	Chacayá	8	Agosto	2023-08-25T00:00:00	2024-11-06T13:00:00	7	Dirección del viento	2.41
115495	7	Sololá	702	San José Chacayá	5	Chacayá	8	Agosto	2023-08-25T00:00:00	2024-11-06T13:00:00	1	Precipitación	0
115496	7	Sololá	702	San José Chacayá	5	Chacayá	8	Agosto	2023-08-25T00:00:00	2024-11-06T13:00:00	8	Radiación solar	394
115497	7	Sololá	702	San José Chacayá	5	Chacayá	8	Agosto	2023-08-25T00:00:00	2024-11-06T14:00:00	2	Temperatura media	20.6
115498	7	Sololá	702	San José Chacayá	5	Chacayá	8	Agosto	2023-08-25T00:00:00	2024-11-06T14:00:00	4	Temperatura máxima	20.8
115499	7	Sololá	702	San José Chacayá	5	Chacayá	8	Agosto	2023-08-25T00:00:00	2024-11-06T14:00:00	3	Temperatura mínima	20.2
115500	7	Sololá	702	San José Chacayá	5	Chacayá	8	Agosto	2023-08-25T00:00:00	2024-11-06T14:00:00	5	Humedad	74
115501	7	Sololá	702	San José Chacayá	5	Chacayá	8	Agosto	2023-08-25T00:00:00	2024-11-06T14:00:00	6	Velocidad del viento	4.8
115502	7	Sololá	702	San José Chacayá	5	Chacayá	8	Agosto	2023-08-25T00:00:00	2024-11-06T14:00:00	7	Dirección del viento	2.41
115503	7	Sololá	702	San José Chacayá	5	Chacayá	8	Agosto	2023-08-25T00:00:00	2024-11-06T14:00:00	1	Precipitación	0
115504	7	Sololá	702	San José Chacayá	5	Chacayá	8	Agosto	2023-08-25T00:00:00	2024-11-06T14:00:00	8	Radiación solar	211
115505	7	Sololá	702	San José Chacayá	5	Chacayá	8	Agosto	2023-08-25T00:00:00	2024-11-06T15:00:00	2	Temperatura media	19.4
115506	7	Sololá	702	San José Chacayá	5	Chacayá	8	Agosto	2023-08-25T00:00:00	2024-11-06T15:00:00	4	Temperatura máxima	20
115507	7	Sololá	702	San José Chacayá	5	Chacayá	8	Agosto	2023-08-25T00:00:00	2024-11-06T15:00:00	3	Temperatura mínima	19.4
115508	7	Sololá	702	San José Chacayá	5	Chacayá	8	Agosto	2023-08-25T00:00:00	2024-11-06T15:00:00	5	Humedad	78
115509	7	Sololá	702	San José Chacayá	5	Chacayá	8	Agosto	2023-08-25T00:00:00	2024-11-06T15:00:00	6	Velocidad del viento	6.4
115510	7	Sololá	702	San José Chacayá	5	Chacayá	8	Agosto	2023-08-25T00:00:00	2024-11-06T15:00:00	7	Dirección del viento	3.22
115511	7	Sololá	702	San José Chacayá	5	Chacayá	8	Agosto	2023-08-25T00:00:00	2024-11-06T15:00:00	1	Precipitación	0
115512	7	Sololá	702	San José Chacayá	5	Chacayá	8	Agosto	2023-08-25T00:00:00	2024-11-06T15:00:00	8	Radiación solar	122
115513	7	Sololá	702	San José Chacayá	5	Chacayá	8	Agosto	2023-08-25T00:00:00	2024-11-06T16:00:00	2	Temperatura media	18.9
115514	7	Sololá	702	San José Chacayá	5	Chacayá	8	Agosto	2023-08-25T00:00:00	2024-11-06T16:00:00	4	Temperatura máxima	19.3
115515	7	Sololá	702	San José Chacayá	5	Chacayá	8	Agosto	2023-08-25T00:00:00	2024-11-06T16:00:00	3	Temperatura mínima	18.9
115516	7	Sololá	702	San José Chacayá	5	Chacayá	8	Agosto	2023-08-25T00:00:00	2024-11-06T16:00:00	5	Humedad	80
115517	7	Sololá	702	San José Chacayá	5	Chacayá	8	Agosto	2023-08-25T00:00:00	2024-11-06T16:00:00	6	Velocidad del viento	6.4
115518	7	Sololá	702	San José Chacayá	5	Chacayá	8	Agosto	2023-08-25T00:00:00	2024-11-06T16:00:00	7	Dirección del viento	3.22
115519	7	Sololá	702	San José Chacayá	5	Chacayá	8	Agosto	2023-08-25T00:00:00	2024-11-06T16:00:00	1	Precipitación	0
115520	7	Sololá	702	San José Chacayá	5	Chacayá	8	Agosto	2023-08-25T00:00:00	2024-11-06T16:00:00	8	Radiación solar	118
115521	7	Sololá	702	San José Chacayá	5	Chacayá	8	Agosto	2023-08-25T00:00:00	2024-11-06T17:00:00	2	Temperatura media	17.9
115522	7	Sololá	702	San José Chacayá	5	Chacayá	8	Agosto	2023-08-25T00:00:00	2024-11-06T17:00:00	4	Temperatura máxima	18.8
115523	7	Sololá	702	San José Chacayá	5	Chacayá	8	Agosto	2023-08-25T00:00:00	2024-11-06T17:00:00	3	Temperatura mínima	17.9
115524	7	Sololá	702	San José Chacayá	5	Chacayá	8	Agosto	2023-08-25T00:00:00	2024-11-06T17:00:00	5	Humedad	86
115525	7	Sololá	702	San José Chacayá	5	Chacayá	8	Agosto	2023-08-25T00:00:00	2024-11-06T17:00:00	6	Velocidad del viento	3.2
115526	7	Sololá	702	San José Chacayá	5	Chacayá	8	Agosto	2023-08-25T00:00:00	2024-11-06T17:00:00	7	Dirección del viento	1.61
115527	7	Sololá	702	San José Chacayá	5	Chacayá	8	Agosto	2023-08-25T00:00:00	2024-11-06T17:00:00	1	Precipitación	0
115528	7	Sololá	702	San José Chacayá	5	Chacayá	8	Agosto	2023-08-25T00:00:00	2024-11-06T17:00:00	8	Radiación solar	64
115529	7	Sololá	702	San José Chacayá	5	Chacayá	8	Agosto	2023-08-25T00:00:00	2024-11-06T18:00:00	2	Temperatura media	17.2
115530	7	Sololá	702	San José Chacayá	5	Chacayá	8	Agosto	2023-08-25T00:00:00	2024-11-06T18:00:00	4	Temperatura máxima	17.4
115531	7	Sololá	702	San José Chacayá	5	Chacayá	8	Agosto	2023-08-25T00:00:00	2024-11-06T18:00:00	3	Temperatura mínima	17.2
115532	7	Sololá	702	San José Chacayá	5	Chacayá	8	Agosto	2023-08-25T00:00:00	2024-11-06T18:00:00	5	Humedad	88
115533	7	Sololá	702	San José Chacayá	5	Chacayá	8	Agosto	2023-08-25T00:00:00	2024-11-06T18:00:00	6	Velocidad del viento	1.6
115534	7	Sololá	702	San José Chacayá	5	Chacayá	8	Agosto	2023-08-25T00:00:00	2024-11-06T18:00:00	7	Dirección del viento	0.8
115535	7	Sololá	702	San José Chacayá	5	Chacayá	8	Agosto	2023-08-25T00:00:00	2024-11-06T18:00:00	1	Precipitación	0
115536	7	Sololá	702	San José Chacayá	5	Chacayá	8	Agosto	2023-08-25T00:00:00	2024-11-06T18:00:00	8	Radiación solar	15
115537	7	Sololá	702	San José Chacayá	5	Chacayá	8	Agosto	2023-08-25T00:00:00	2024-11-06T19:00:00	2	Temperatura media	16.4
115538	7	Sololá	702	San José Chacayá	5	Chacayá	8	Agosto	2023-08-25T00:00:00	2024-11-06T19:00:00	4	Temperatura máxima	16.8
115539	7	Sololá	702	San José Chacayá	5	Chacayá	8	Agosto	2023-08-25T00:00:00	2024-11-06T19:00:00	3	Temperatura mínima	16.4
115540	7	Sololá	702	San José Chacayá	5	Chacayá	8	Agosto	2023-08-25T00:00:00	2024-11-06T19:00:00	5	Humedad	92
115541	7	Sololá	702	San José Chacayá	5	Chacayá	8	Agosto	2023-08-25T00:00:00	2024-11-06T19:00:00	6	Velocidad del viento	0
115542	7	Sololá	702	San José Chacayá	5	Chacayá	8	Agosto	2023-08-25T00:00:00	2024-11-06T19:00:00	7	Dirección del viento	0
115543	7	Sololá	702	San José Chacayá	5	Chacayá	8	Agosto	2023-08-25T00:00:00	2024-11-06T19:00:00	1	Precipitación	0
115544	7	Sololá	702	San José Chacayá	5	Chacayá	8	Agosto	2023-08-25T00:00:00	2024-11-06T19:00:00	8	Radiación solar	0
115545	7	Sololá	702	San José Chacayá	5	Chacayá	8	Agosto	2023-08-25T00:00:00	2024-11-06T20:00:00	2	Temperatura media	16.2
115546	7	Sololá	702	San José Chacayá	5	Chacayá	8	Agosto	2023-08-25T00:00:00	2024-11-06T20:00:00	4	Temperatura máxima	16.3
115547	7	Sololá	702	San José Chacayá	5	Chacayá	8	Agosto	2023-08-25T00:00:00	2024-11-06T20:00:00	3	Temperatura mínima	16.2
115548	7	Sololá	702	San José Chacayá	5	Chacayá	8	Agosto	2023-08-25T00:00:00	2024-11-06T20:00:00	5	Humedad	93
115549	7	Sololá	702	San José Chacayá	5	Chacayá	8	Agosto	2023-08-25T00:00:00	2024-11-06T20:00:00	6	Velocidad del viento	0
115550	7	Sololá	702	San José Chacayá	5	Chacayá	8	Agosto	2023-08-25T00:00:00	2024-11-06T20:00:00	7	Dirección del viento	0
115551	7	Sololá	702	San José Chacayá	5	Chacayá	8	Agosto	2023-08-25T00:00:00	2024-11-06T20:00:00	1	Precipitación	0
115552	7	Sololá	702	San José Chacayá	5	Chacayá	8	Agosto	2023-08-25T00:00:00	2024-11-06T20:00:00	8	Radiación solar	0
115553	7	Sololá	702	San José Chacayá	5	Chacayá	8	Agosto	2023-08-25T00:00:00	2024-11-06T21:00:00	2	Temperatura media	16.1
115554	7	Sololá	702	San José Chacayá	5	Chacayá	8	Agosto	2023-08-25T00:00:00	2024-11-06T21:00:00	4	Temperatura máxima	16.2
115555	7	Sololá	702	San José Chacayá	5	Chacayá	8	Agosto	2023-08-25T00:00:00	2024-11-06T21:00:00	3	Temperatura mínima	16
115556	7	Sololá	702	San José Chacayá	5	Chacayá	8	Agosto	2023-08-25T00:00:00	2024-11-06T21:00:00	5	Humedad	95
115557	7	Sololá	702	San José Chacayá	5	Chacayá	8	Agosto	2023-08-25T00:00:00	2024-11-06T21:00:00	6	Velocidad del viento	0
115558	7	Sololá	702	San José Chacayá	5	Chacayá	8	Agosto	2023-08-25T00:00:00	2024-11-06T21:00:00	7	Dirección del viento	0
115559	7	Sololá	702	San José Chacayá	5	Chacayá	8	Agosto	2023-08-25T00:00:00	2024-11-06T21:00:00	1	Precipitación	0
115560	7	Sololá	702	San José Chacayá	5	Chacayá	8	Agosto	2023-08-25T00:00:00	2024-11-06T21:00:00	8	Radiación solar	0
115561	7	Sololá	702	San José Chacayá	5	Chacayá	8	Agosto	2023-08-25T00:00:00	2024-11-06T22:00:00	2	Temperatura media	15.9
115562	7	Sololá	702	San José Chacayá	5	Chacayá	8	Agosto	2023-08-25T00:00:00	2024-11-06T22:00:00	4	Temperatura máxima	15.9
115563	7	Sololá	702	San José Chacayá	5	Chacayá	8	Agosto	2023-08-25T00:00:00	2024-11-06T22:00:00	3	Temperatura mínima	15.8
115564	7	Sololá	702	San José Chacayá	5	Chacayá	8	Agosto	2023-08-25T00:00:00	2024-11-06T22:00:00	5	Humedad	95
115565	7	Sololá	702	San José Chacayá	5	Chacayá	8	Agosto	2023-08-25T00:00:00	2024-11-06T22:00:00	6	Velocidad del viento	0
115566	7	Sololá	702	San José Chacayá	5	Chacayá	8	Agosto	2023-08-25T00:00:00	2024-11-06T22:00:00	7	Dirección del viento	0
115567	7	Sololá	702	San José Chacayá	5	Chacayá	8	Agosto	2023-08-25T00:00:00	2024-11-06T22:00:00	1	Precipitación	0
115568	7	Sololá	702	San José Chacayá	5	Chacayá	8	Agosto	2023-08-25T00:00:00	2024-11-06T22:00:00	8	Radiación solar	0
115569	7	Sololá	702	San José Chacayá	5	Chacayá	8	Agosto	2023-08-25T00:00:00	2024-11-06T23:00:00	2	Temperatura media	15.6
115570	7	Sololá	702	San José Chacayá	5	Chacayá	8	Agosto	2023-08-25T00:00:00	2024-11-06T23:00:00	4	Temperatura máxima	15.8
115571	7	Sololá	702	San José Chacayá	5	Chacayá	8	Agosto	2023-08-25T00:00:00	2024-11-06T23:00:00	3	Temperatura mínima	15.6
115572	7	Sololá	702	San José Chacayá	5	Chacayá	8	Agosto	2023-08-25T00:00:00	2024-11-06T23:00:00	5	Humedad	95
115573	7	Sololá	702	San José Chacayá	5	Chacayá	8	Agosto	2023-08-25T00:00:00	2024-11-06T23:00:00	6	Velocidad del viento	0
115574	7	Sololá	702	San José Chacayá	5	Chacayá	8	Agosto	2023-08-25T00:00:00	2024-11-06T23:00:00	7	Dirección del viento	0
115575	7	Sololá	702	San José Chacayá	5	Chacayá	8	Agosto	2023-08-25T00:00:00	2024-11-06T23:00:00	1	Precipitación	0
115576	7	Sololá	702	San José Chacayá	5	Chacayá	8	Agosto	2023-08-25T00:00:00	2024-11-06T23:00:00	8	Radiación solar	0
115577	7	Sololá	702	San José Chacayá	5	Chacayá	8	Agosto	2023-08-26T00:00:00	2024-11-06T00:00:00	2	Temperatura media	15.4
115578	7	Sololá	702	San José Chacayá	5	Chacayá	8	Agosto	2023-08-26T00:00:00	2024-11-06T00:00:00	4	Temperatura máxima	15.7
115579	7	Sololá	702	San José Chacayá	5	Chacayá	8	Agosto	2023-08-26T00:00:00	2024-11-06T00:00:00	3	Temperatura mínima	15.4
115580	7	Sololá	702	San José Chacayá	5	Chacayá	8	Agosto	2023-08-26T00:00:00	2024-11-06T00:00:00	5	Humedad	95
115581	7	Sololá	702	San José Chacayá	5	Chacayá	8	Agosto	2023-08-26T00:00:00	2024-11-06T00:00:00	6	Velocidad del viento	0
115582	7	Sololá	702	San José Chacayá	5	Chacayá	8	Agosto	2023-08-26T00:00:00	2024-11-06T00:00:00	7	Dirección del viento	0
115583	7	Sololá	702	San José Chacayá	5	Chacayá	8	Agosto	2023-08-26T00:00:00	2024-11-06T00:00:00	1	Precipitación	0
115584	7	Sololá	702	San José Chacayá	5	Chacayá	8	Agosto	2023-08-26T00:00:00	2024-11-06T00:00:00	8	Radiación solar	0
115585	7	Sololá	702	San José Chacayá	5	Chacayá	8	Agosto	2023-08-26T00:00:00	2024-11-06T01:00:00	2	Temperatura media	14.8
115586	7	Sololá	702	San José Chacayá	5	Chacayá	8	Agosto	2023-08-26T00:00:00	2024-11-06T01:00:00	4	Temperatura máxima	15.3
115587	7	Sololá	702	San José Chacayá	5	Chacayá	8	Agosto	2023-08-26T00:00:00	2024-11-06T01:00:00	3	Temperatura mínima	14.8
115588	7	Sololá	702	San José Chacayá	5	Chacayá	8	Agosto	2023-08-26T00:00:00	2024-11-06T01:00:00	5	Humedad	94
115589	7	Sololá	702	San José Chacayá	5	Chacayá	8	Agosto	2023-08-26T00:00:00	2024-11-06T01:00:00	6	Velocidad del viento	0
115590	7	Sololá	702	San José Chacayá	5	Chacayá	8	Agosto	2023-08-26T00:00:00	2024-11-06T01:00:00	7	Dirección del viento	0
115591	7	Sololá	702	San José Chacayá	5	Chacayá	8	Agosto	2023-08-26T00:00:00	2024-11-06T01:00:00	1	Precipitación	0
115592	7	Sololá	702	San José Chacayá	5	Chacayá	8	Agosto	2023-08-26T00:00:00	2024-11-06T01:00:00	8	Radiación solar	0
115593	7	Sololá	702	San José Chacayá	5	Chacayá	8	Agosto	2023-08-26T00:00:00	2024-11-06T02:00:00	2	Temperatura media	14.1
115594	7	Sololá	702	San José Chacayá	5	Chacayá	8	Agosto	2023-08-26T00:00:00	2024-11-06T02:00:00	4	Temperatura máxima	14.4
115595	7	Sololá	702	San José Chacayá	5	Chacayá	8	Agosto	2023-08-26T00:00:00	2024-11-06T02:00:00	3	Temperatura mínima	14
115596	7	Sololá	702	San José Chacayá	5	Chacayá	8	Agosto	2023-08-26T00:00:00	2024-11-06T02:00:00	5	Humedad	95
115597	7	Sololá	702	San José Chacayá	5	Chacayá	8	Agosto	2023-08-26T00:00:00	2024-11-06T02:00:00	6	Velocidad del viento	0
115598	7	Sololá	702	San José Chacayá	5	Chacayá	8	Agosto	2023-08-26T00:00:00	2024-11-06T02:00:00	7	Dirección del viento	0
115599	7	Sololá	702	San José Chacayá	5	Chacayá	8	Agosto	2023-08-26T00:00:00	2024-11-06T02:00:00	1	Precipitación	0
115600	7	Sololá	702	San José Chacayá	5	Chacayá	8	Agosto	2023-08-26T00:00:00	2024-11-06T02:00:00	8	Radiación solar	0
115601	7	Sololá	702	San José Chacayá	5	Chacayá	8	Agosto	2023-08-26T00:00:00	2024-11-06T03:00:00	2	Temperatura media	13.9
115602	7	Sololá	702	San José Chacayá	5	Chacayá	8	Agosto	2023-08-26T00:00:00	2024-11-06T03:00:00	4	Temperatura máxima	14
115603	7	Sololá	702	San José Chacayá	5	Chacayá	8	Agosto	2023-08-26T00:00:00	2024-11-06T03:00:00	3	Temperatura mínima	13.9
115604	7	Sololá	702	San José Chacayá	5	Chacayá	8	Agosto	2023-08-26T00:00:00	2024-11-06T03:00:00	5	Humedad	95
115605	7	Sololá	702	San José Chacayá	5	Chacayá	8	Agosto	2023-08-26T00:00:00	2024-11-06T03:00:00	6	Velocidad del viento	0
115606	7	Sololá	702	San José Chacayá	5	Chacayá	8	Agosto	2023-08-26T00:00:00	2024-11-06T03:00:00	7	Dirección del viento	0
115607	7	Sololá	702	San José Chacayá	5	Chacayá	8	Agosto	2023-08-26T00:00:00	2024-11-06T03:00:00	1	Precipitación	0
115608	7	Sololá	702	San José Chacayá	5	Chacayá	8	Agosto	2023-08-26T00:00:00	2024-11-06T03:00:00	8	Radiación solar	0
115609	7	Sololá	702	San José Chacayá	5	Chacayá	8	Agosto	2023-08-26T00:00:00	2024-11-06T04:00:00	2	Temperatura media	13.1
115610	7	Sololá	702	San José Chacayá	5	Chacayá	8	Agosto	2023-08-26T00:00:00	2024-11-06T04:00:00	4	Temperatura máxima	13.6
115611	7	Sololá	702	San José Chacayá	5	Chacayá	8	Agosto	2023-08-26T00:00:00	2024-11-06T04:00:00	3	Temperatura mínima	13.1
115612	7	Sololá	702	San José Chacayá	5	Chacayá	8	Agosto	2023-08-26T00:00:00	2024-11-06T04:00:00	5	Humedad	94
115613	7	Sololá	702	San José Chacayá	5	Chacayá	8	Agosto	2023-08-26T00:00:00	2024-11-06T04:00:00	6	Velocidad del viento	0
115614	7	Sololá	702	San José Chacayá	5	Chacayá	8	Agosto	2023-08-26T00:00:00	2024-11-06T04:00:00	7	Dirección del viento	0
115615	7	Sololá	702	San José Chacayá	5	Chacayá	8	Agosto	2023-08-26T00:00:00	2024-11-06T04:00:00	1	Precipitación	0
115616	7	Sololá	702	San José Chacayá	5	Chacayá	8	Agosto	2023-08-26T00:00:00	2024-11-06T04:00:00	8	Radiación solar	0
115617	7	Sololá	702	San José Chacayá	5	Chacayá	8	Agosto	2023-08-26T00:00:00	2024-11-06T05:00:00	2	Temperatura media	12.6
115618	7	Sololá	702	San José Chacayá	5	Chacayá	8	Agosto	2023-08-26T00:00:00	2024-11-06T05:00:00	4	Temperatura máxima	12.7
115619	7	Sololá	702	San José Chacayá	5	Chacayá	8	Agosto	2023-08-26T00:00:00	2024-11-06T05:00:00	3	Temperatura mínima	12.6
115620	7	Sololá	702	San José Chacayá	5	Chacayá	8	Agosto	2023-08-26T00:00:00	2024-11-06T05:00:00	5	Humedad	95
115621	7	Sololá	702	San José Chacayá	5	Chacayá	8	Agosto	2023-08-26T00:00:00	2024-11-06T05:00:00	6	Velocidad del viento	0
115622	7	Sololá	702	San José Chacayá	5	Chacayá	8	Agosto	2023-08-26T00:00:00	2024-11-06T05:00:00	7	Dirección del viento	0
115623	7	Sololá	702	San José Chacayá	5	Chacayá	8	Agosto	2023-08-26T00:00:00	2024-11-06T05:00:00	1	Precipitación	0
115624	7	Sololá	702	San José Chacayá	5	Chacayá	8	Agosto	2023-08-26T00:00:00	2024-11-06T05:00:00	8	Radiación solar	0
115625	7	Sololá	702	San José Chacayá	5	Chacayá	8	Agosto	2023-08-26T00:00:00	2024-11-06T06:00:00	2	Temperatura media	12.4
115626	7	Sololá	702	San José Chacayá	5	Chacayá	8	Agosto	2023-08-26T00:00:00	2024-11-06T06:00:00	4	Temperatura máxima	12.5
115627	7	Sololá	702	San José Chacayá	5	Chacayá	8	Agosto	2023-08-26T00:00:00	2024-11-06T06:00:00	3	Temperatura mínima	12.4
115628	7	Sololá	702	San José Chacayá	5	Chacayá	8	Agosto	2023-08-26T00:00:00	2024-11-06T06:00:00	5	Humedad	95
115629	7	Sololá	702	San José Chacayá	5	Chacayá	8	Agosto	2023-08-26T00:00:00	2024-11-06T06:00:00	6	Velocidad del viento	0
115630	7	Sololá	702	San José Chacayá	5	Chacayá	8	Agosto	2023-08-26T00:00:00	2024-11-06T06:00:00	7	Dirección del viento	0
115631	7	Sololá	702	San José Chacayá	5	Chacayá	8	Agosto	2023-08-26T00:00:00	2024-11-06T06:00:00	1	Precipitación	0
115632	7	Sololá	702	San José Chacayá	5	Chacayá	8	Agosto	2023-08-26T00:00:00	2024-11-06T06:00:00	8	Radiación solar	1
115633	7	Sololá	702	San José Chacayá	5	Chacayá	8	Agosto	2023-08-26T00:00:00	2024-11-06T07:00:00	2	Temperatura media	13.7
115634	7	Sololá	702	San José Chacayá	5	Chacayá	8	Agosto	2023-08-26T00:00:00	2024-11-06T07:00:00	4	Temperatura máxima	13.7
115635	7	Sololá	702	San José Chacayá	5	Chacayá	8	Agosto	2023-08-26T00:00:00	2024-11-06T07:00:00	3	Temperatura mínima	12.8
115636	7	Sololá	702	San José Chacayá	5	Chacayá	8	Agosto	2023-08-26T00:00:00	2024-11-06T07:00:00	5	Humedad	95
115637	7	Sololá	702	San José Chacayá	5	Chacayá	8	Agosto	2023-08-26T00:00:00	2024-11-06T07:00:00	6	Velocidad del viento	0
115638	7	Sololá	702	San José Chacayá	5	Chacayá	8	Agosto	2023-08-26T00:00:00	2024-11-06T07:00:00	7	Dirección del viento	0
115639	7	Sololá	702	San José Chacayá	5	Chacayá	8	Agosto	2023-08-26T00:00:00	2024-11-06T07:00:00	1	Precipitación	0
115640	7	Sololá	702	San José Chacayá	5	Chacayá	8	Agosto	2023-08-26T00:00:00	2024-11-06T07:00:00	8	Radiación solar	18
115641	7	Sololá	702	San José Chacayá	5	Chacayá	8	Agosto	2023-08-26T00:00:00	2024-11-06T08:00:00	2	Temperatura media	16.9
115642	7	Sololá	702	San José Chacayá	5	Chacayá	8	Agosto	2023-08-26T00:00:00	2024-11-06T08:00:00	4	Temperatura máxima	16.9
115643	7	Sololá	702	San José Chacayá	5	Chacayá	8	Agosto	2023-08-26T00:00:00	2024-11-06T08:00:00	3	Temperatura mínima	14.9
115644	7	Sololá	702	San José Chacayá	5	Chacayá	8	Agosto	2023-08-26T00:00:00	2024-11-06T08:00:00	5	Humedad	83
115645	7	Sololá	702	San José Chacayá	5	Chacayá	8	Agosto	2023-08-26T00:00:00	2024-11-06T08:00:00	6	Velocidad del viento	1.6
115646	7	Sololá	702	San José Chacayá	5	Chacayá	8	Agosto	2023-08-26T00:00:00	2024-11-06T08:00:00	7	Dirección del viento	0.8
115647	7	Sololá	702	San José Chacayá	5	Chacayá	8	Agosto	2023-08-26T00:00:00	2024-11-06T08:00:00	1	Precipitación	0
115648	7	Sololá	702	San José Chacayá	5	Chacayá	8	Agosto	2023-08-26T00:00:00	2024-11-06T08:00:00	8	Radiación solar	66
115649	7	Sololá	702	San José Chacayá	5	Chacayá	8	Agosto	2023-08-26T00:00:00	2024-11-06T09:00:00	2	Temperatura media	20.2
115650	7	Sololá	702	San José Chacayá	5	Chacayá	8	Agosto	2023-08-26T00:00:00	2024-11-06T09:00:00	4	Temperatura máxima	20.2
115651	7	Sololá	702	San José Chacayá	5	Chacayá	8	Agosto	2023-08-26T00:00:00	2024-11-06T09:00:00	3	Temperatura mínima	18.3
115652	7	Sololá	702	San José Chacayá	5	Chacayá	8	Agosto	2023-08-26T00:00:00	2024-11-06T09:00:00	5	Humedad	79
115653	7	Sololá	702	San José Chacayá	5	Chacayá	8	Agosto	2023-08-26T00:00:00	2024-11-06T09:00:00	6	Velocidad del viento	3.2
115654	7	Sololá	702	San José Chacayá	5	Chacayá	8	Agosto	2023-08-26T00:00:00	2024-11-06T09:00:00	7	Dirección del viento	1.61
115655	7	Sololá	702	San José Chacayá	5	Chacayá	8	Agosto	2023-08-26T00:00:00	2024-11-06T09:00:00	1	Precipitación	0
115656	7	Sololá	702	San José Chacayá	5	Chacayá	8	Agosto	2023-08-26T00:00:00	2024-11-06T09:00:00	8	Radiación solar	521
115657	7	Sololá	702	San José Chacayá	5	Chacayá	8	Agosto	2023-08-26T00:00:00	2024-11-06T10:00:00	2	Temperatura media	21.8
115658	7	Sololá	702	San José Chacayá	5	Chacayá	8	Agosto	2023-08-26T00:00:00	2024-11-06T10:00:00	4	Temperatura máxima	21.9
115659	7	Sololá	702	San José Chacayá	5	Chacayá	8	Agosto	2023-08-26T00:00:00	2024-11-06T10:00:00	3	Temperatura mínima	20.7
115660	7	Sololá	702	San José Chacayá	5	Chacayá	8	Agosto	2023-08-26T00:00:00	2024-11-06T10:00:00	5	Humedad	69
115661	7	Sololá	702	San José Chacayá	5	Chacayá	8	Agosto	2023-08-26T00:00:00	2024-11-06T10:00:00	6	Velocidad del viento	3.2
115662	7	Sololá	702	San José Chacayá	5	Chacayá	8	Agosto	2023-08-26T00:00:00	2024-11-06T10:00:00	7	Dirección del viento	1.61
115663	7	Sololá	702	San José Chacayá	5	Chacayá	8	Agosto	2023-08-26T00:00:00	2024-11-06T10:00:00	1	Precipitación	0
115664	7	Sololá	702	San José Chacayá	5	Chacayá	8	Agosto	2023-08-26T00:00:00	2024-11-06T10:00:00	8	Radiación solar	725
115665	7	Sololá	702	San José Chacayá	5	Chacayá	8	Agosto	2023-08-26T00:00:00	2024-11-06T11:00:00	2	Temperatura media	21.7
115666	7	Sololá	702	San José Chacayá	5	Chacayá	8	Agosto	2023-08-26T00:00:00	2024-11-06T11:00:00	4	Temperatura máxima	22.6
115667	7	Sololá	702	San José Chacayá	5	Chacayá	8	Agosto	2023-08-26T00:00:00	2024-11-06T11:00:00	3	Temperatura mínima	21.7
115668	7	Sololá	702	San José Chacayá	5	Chacayá	8	Agosto	2023-08-26T00:00:00	2024-11-06T11:00:00	5	Humedad	70
115669	7	Sololá	702	San José Chacayá	5	Chacayá	8	Agosto	2023-08-26T00:00:00	2024-11-06T11:00:00	6	Velocidad del viento	8
115670	7	Sololá	702	San José Chacayá	5	Chacayá	8	Agosto	2023-08-26T00:00:00	2024-11-06T11:00:00	7	Dirección del viento	4.02
115671	7	Sololá	702	San José Chacayá	5	Chacayá	8	Agosto	2023-08-26T00:00:00	2024-11-06T11:00:00	1	Precipitación	1.02
115672	7	Sololá	702	San José Chacayá	5	Chacayá	8	Agosto	2023-08-26T00:00:00	2024-11-06T11:00:00	8	Radiación solar	922
115673	7	Sololá	702	San José Chacayá	5	Chacayá	8	Agosto	2023-08-26T00:00:00	2024-11-06T12:00:00	2	Temperatura media	22.7
115674	7	Sololá	702	San José Chacayá	5	Chacayá	8	Agosto	2023-08-26T00:00:00	2024-11-06T12:00:00	4	Temperatura máxima	22.8
115675	7	Sololá	702	San José Chacayá	5	Chacayá	8	Agosto	2023-08-26T00:00:00	2024-11-06T12:00:00	3	Temperatura mínima	21
115676	7	Sololá	702	San José Chacayá	5	Chacayá	8	Agosto	2023-08-26T00:00:00	2024-11-06T12:00:00	5	Humedad	71
115677	7	Sololá	702	San José Chacayá	5	Chacayá	8	Agosto	2023-08-26T00:00:00	2024-11-06T12:00:00	6	Velocidad del viento	4.8
115678	7	Sololá	702	San José Chacayá	5	Chacayá	8	Agosto	2023-08-26T00:00:00	2024-11-06T12:00:00	7	Dirección del viento	2.41
115679	7	Sololá	702	San José Chacayá	5	Chacayá	8	Agosto	2023-08-26T00:00:00	2024-11-06T12:00:00	1	Precipitación	0
115680	7	Sololá	702	San José Chacayá	5	Chacayá	8	Agosto	2023-08-26T00:00:00	2024-11-06T12:00:00	8	Radiación solar	994
115681	7	Sololá	702	San José Chacayá	5	Chacayá	8	Agosto	2023-08-26T00:00:00	2024-11-06T13:00:00	2	Temperatura media	21.4
115682	7	Sololá	702	San José Chacayá	5	Chacayá	8	Agosto	2023-08-26T00:00:00	2024-11-06T13:00:00	4	Temperatura máxima	22.6
115683	7	Sololá	702	San José Chacayá	5	Chacayá	8	Agosto	2023-08-26T00:00:00	2024-11-06T13:00:00	3	Temperatura mínima	21.1
115684	7	Sololá	702	San José Chacayá	5	Chacayá	8	Agosto	2023-08-26T00:00:00	2024-11-06T13:00:00	5	Humedad	72
115685	7	Sololá	702	San José Chacayá	5	Chacayá	8	Agosto	2023-08-26T00:00:00	2024-11-06T13:00:00	6	Velocidad del viento	8
115686	7	Sololá	702	San José Chacayá	5	Chacayá	8	Agosto	2023-08-26T00:00:00	2024-11-06T13:00:00	7	Dirección del viento	4.02
115687	7	Sololá	702	San José Chacayá	5	Chacayá	8	Agosto	2023-08-26T00:00:00	2024-11-06T13:00:00	1	Precipitación	0
115688	7	Sololá	702	San José Chacayá	5	Chacayá	8	Agosto	2023-08-26T00:00:00	2024-11-06T13:00:00	8	Radiación solar	722
115689	7	Sololá	702	San José Chacayá	5	Chacayá	8	Agosto	2023-08-26T00:00:00	2024-11-06T14:00:00	2	Temperatura media	21.9
115690	7	Sololá	702	San José Chacayá	5	Chacayá	8	Agosto	2023-08-26T00:00:00	2024-11-06T14:00:00	4	Temperatura máxima	22.4
115691	7	Sololá	702	San José Chacayá	5	Chacayá	8	Agosto	2023-08-26T00:00:00	2024-11-06T14:00:00	3	Temperatura mínima	21.9
115692	7	Sololá	702	San José Chacayá	5	Chacayá	8	Agosto	2023-08-26T00:00:00	2024-11-06T14:00:00	5	Humedad	70
115693	7	Sololá	702	San José Chacayá	5	Chacayá	8	Agosto	2023-08-26T00:00:00	2024-11-06T14:00:00	6	Velocidad del viento	6.4
115694	7	Sololá	702	San José Chacayá	5	Chacayá	8	Agosto	2023-08-26T00:00:00	2024-11-06T14:00:00	7	Dirección del viento	3.22
115695	7	Sololá	702	San José Chacayá	5	Chacayá	8	Agosto	2023-08-26T00:00:00	2024-11-06T14:00:00	1	Precipitación	0
115696	7	Sololá	702	San José Chacayá	5	Chacayá	8	Agosto	2023-08-26T00:00:00	2024-11-06T14:00:00	8	Radiación solar	719
115697	7	Sololá	702	San José Chacayá	5	Chacayá	8	Agosto	2023-08-26T00:00:00	2024-11-06T15:00:00	2	Temperatura media	19.9
115698	7	Sololá	702	San José Chacayá	5	Chacayá	8	Agosto	2023-08-26T00:00:00	2024-11-06T15:00:00	4	Temperatura máxima	20.8
115699	7	Sololá	702	San José Chacayá	5	Chacayá	8	Agosto	2023-08-26T00:00:00	2024-11-06T15:00:00	3	Temperatura mínima	19.9
115700	7	Sololá	702	San José Chacayá	5	Chacayá	8	Agosto	2023-08-26T00:00:00	2024-11-06T15:00:00	5	Humedad	75
115701	7	Sololá	702	San José Chacayá	5	Chacayá	8	Agosto	2023-08-26T00:00:00	2024-11-06T15:00:00	6	Velocidad del viento	4.8
115702	7	Sololá	702	San José Chacayá	5	Chacayá	8	Agosto	2023-08-26T00:00:00	2024-11-06T15:00:00	7	Dirección del viento	2.41
115703	7	Sololá	702	San José Chacayá	5	Chacayá	8	Agosto	2023-08-26T00:00:00	2024-11-06T15:00:00	1	Precipitación	0
115704	7	Sololá	702	San José Chacayá	5	Chacayá	8	Agosto	2023-08-26T00:00:00	2024-11-06T15:00:00	8	Radiación solar	666
115705	7	Sololá	702	San José Chacayá	5	Chacayá	8	Agosto	2023-08-26T00:00:00	2024-11-06T16:00:00	2	Temperatura media	18.9
115706	7	Sololá	702	San José Chacayá	5	Chacayá	8	Agosto	2023-08-26T00:00:00	2024-11-06T16:00:00	4	Temperatura máxima	20.3
115707	7	Sololá	702	San José Chacayá	5	Chacayá	8	Agosto	2023-08-26T00:00:00	2024-11-06T16:00:00	3	Temperatura mínima	18.9
115708	7	Sololá	702	San José Chacayá	5	Chacayá	8	Agosto	2023-08-26T00:00:00	2024-11-06T16:00:00	5	Humedad	80
115709	7	Sololá	702	San José Chacayá	5	Chacayá	8	Agosto	2023-08-26T00:00:00	2024-11-06T16:00:00	6	Velocidad del viento	8
115710	7	Sololá	702	San José Chacayá	5	Chacayá	8	Agosto	2023-08-26T00:00:00	2024-11-06T16:00:00	7	Dirección del viento	4.02
115711	7	Sololá	702	San José Chacayá	5	Chacayá	8	Agosto	2023-08-26T00:00:00	2024-11-06T16:00:00	1	Precipitación	0
115712	7	Sololá	702	San José Chacayá	5	Chacayá	8	Agosto	2023-08-26T00:00:00	2024-11-06T16:00:00	8	Radiación solar	172
115713	7	Sololá	702	San José Chacayá	5	Chacayá	8	Agosto	2023-08-26T00:00:00	2024-11-06T17:00:00	2	Temperatura media	19.1
115714	7	Sololá	702	San José Chacayá	5	Chacayá	8	Agosto	2023-08-26T00:00:00	2024-11-06T17:00:00	4	Temperatura máxima	19.3
115715	7	Sololá	702	San José Chacayá	5	Chacayá	8	Agosto	2023-08-26T00:00:00	2024-11-06T17:00:00	3	Temperatura mínima	18.8
115716	7	Sololá	702	San José Chacayá	5	Chacayá	8	Agosto	2023-08-26T00:00:00	2024-11-06T17:00:00	5	Humedad	79
115717	7	Sololá	702	San José Chacayá	5	Chacayá	8	Agosto	2023-08-26T00:00:00	2024-11-06T17:00:00	6	Velocidad del viento	4.8
115718	7	Sololá	702	San José Chacayá	5	Chacayá	8	Agosto	2023-08-26T00:00:00	2024-11-06T17:00:00	7	Dirección del viento	2.41
115719	7	Sololá	702	San José Chacayá	5	Chacayá	8	Agosto	2023-08-26T00:00:00	2024-11-06T17:00:00	1	Precipitación	0
115720	7	Sololá	702	San José Chacayá	5	Chacayá	8	Agosto	2023-08-26T00:00:00	2024-11-06T17:00:00	8	Radiación solar	142
115721	7	Sololá	702	San José Chacayá	5	Chacayá	8	Agosto	2023-08-26T00:00:00	2024-11-06T18:00:00	2	Temperatura media	17.9
115722	7	Sololá	702	San José Chacayá	5	Chacayá	8	Agosto	2023-08-26T00:00:00	2024-11-06T18:00:00	4	Temperatura máxima	18.7
115723	7	Sololá	702	San José Chacayá	5	Chacayá	8	Agosto	2023-08-26T00:00:00	2024-11-06T18:00:00	3	Temperatura mínima	17.9
115724	7	Sololá	702	San José Chacayá	5	Chacayá	8	Agosto	2023-08-26T00:00:00	2024-11-06T18:00:00	5	Humedad	83
115725	7	Sololá	702	San José Chacayá	5	Chacayá	8	Agosto	2023-08-26T00:00:00	2024-11-06T18:00:00	6	Velocidad del viento	1.6
115726	7	Sololá	702	San José Chacayá	5	Chacayá	8	Agosto	2023-08-26T00:00:00	2024-11-06T18:00:00	7	Dirección del viento	0.8
115727	7	Sololá	702	San José Chacayá	5	Chacayá	8	Agosto	2023-08-26T00:00:00	2024-11-06T18:00:00	1	Precipitación	0
115728	7	Sololá	702	San José Chacayá	5	Chacayá	8	Agosto	2023-08-26T00:00:00	2024-11-06T18:00:00	8	Radiación solar	51
115729	7	Sololá	702	San José Chacayá	5	Chacayá	8	Agosto	2023-08-26T00:00:00	2024-11-06T19:00:00	2	Temperatura media	17
115730	7	Sololá	702	San José Chacayá	5	Chacayá	8	Agosto	2023-08-26T00:00:00	2024-11-06T19:00:00	4	Temperatura máxima	17.2
115731	7	Sololá	702	San José Chacayá	5	Chacayá	8	Agosto	2023-08-26T00:00:00	2024-11-06T19:00:00	3	Temperatura mínima	16.9
115732	7	Sololá	702	San José Chacayá	5	Chacayá	8	Agosto	2023-08-26T00:00:00	2024-11-06T19:00:00	5	Humedad	92
115733	7	Sololá	702	San José Chacayá	5	Chacayá	8	Agosto	2023-08-26T00:00:00	2024-11-06T19:00:00	6	Velocidad del viento	0
115734	7	Sololá	702	San José Chacayá	5	Chacayá	8	Agosto	2023-08-26T00:00:00	2024-11-06T19:00:00	7	Dirección del viento	0
115735	7	Sololá	702	San José Chacayá	5	Chacayá	8	Agosto	2023-08-26T00:00:00	2024-11-06T19:00:00	1	Precipitación	0
115736	7	Sololá	702	San José Chacayá	5	Chacayá	8	Agosto	2023-08-26T00:00:00	2024-11-06T19:00:00	8	Radiación solar	0
115737	7	Sololá	702	San José Chacayá	5	Chacayá	8	Agosto	2023-08-26T00:00:00	2024-11-06T20:00:00	2	Temperatura media	16.7
115738	7	Sololá	702	San José Chacayá	5	Chacayá	8	Agosto	2023-08-26T00:00:00	2024-11-06T20:00:00	4	Temperatura máxima	16.8
115739	7	Sololá	702	San José Chacayá	5	Chacayá	8	Agosto	2023-08-26T00:00:00	2024-11-06T20:00:00	3	Temperatura mínima	16.6
115740	7	Sololá	702	San José Chacayá	5	Chacayá	8	Agosto	2023-08-26T00:00:00	2024-11-06T20:00:00	5	Humedad	91
115741	7	Sololá	702	San José Chacayá	5	Chacayá	8	Agosto	2023-08-26T00:00:00	2024-11-06T20:00:00	6	Velocidad del viento	1.6
115742	7	Sololá	702	San José Chacayá	5	Chacayá	8	Agosto	2023-08-26T00:00:00	2024-11-06T20:00:00	7	Dirección del viento	0.8
115743	7	Sololá	702	San José Chacayá	5	Chacayá	8	Agosto	2023-08-26T00:00:00	2024-11-06T20:00:00	1	Precipitación	0
115744	7	Sololá	702	San José Chacayá	5	Chacayá	8	Agosto	2023-08-26T00:00:00	2024-11-06T20:00:00	8	Radiación solar	0
115745	7	Sololá	702	San José Chacayá	5	Chacayá	8	Agosto	2023-08-26T00:00:00	2024-11-06T21:00:00	2	Temperatura media	16.2
115746	7	Sololá	702	San José Chacayá	5	Chacayá	8	Agosto	2023-08-26T00:00:00	2024-11-06T21:00:00	4	Temperatura máxima	16.6
115747	7	Sololá	702	San José Chacayá	5	Chacayá	8	Agosto	2023-08-26T00:00:00	2024-11-06T21:00:00	3	Temperatura mínima	16.2
115748	7	Sololá	702	San José Chacayá	5	Chacayá	8	Agosto	2023-08-26T00:00:00	2024-11-06T21:00:00	5	Humedad	90
115749	7	Sololá	702	San José Chacayá	5	Chacayá	8	Agosto	2023-08-26T00:00:00	2024-11-06T21:00:00	6	Velocidad del viento	0
115750	7	Sololá	702	San José Chacayá	5	Chacayá	8	Agosto	2023-08-26T00:00:00	2024-11-06T21:00:00	7	Dirección del viento	0
115751	7	Sololá	702	San José Chacayá	5	Chacayá	8	Agosto	2023-08-26T00:00:00	2024-11-06T21:00:00	1	Precipitación	0
115752	7	Sololá	702	San José Chacayá	5	Chacayá	8	Agosto	2023-08-26T00:00:00	2024-11-06T21:00:00	8	Radiación solar	0
115753	7	Sololá	702	San José Chacayá	5	Chacayá	8	Agosto	2023-08-26T00:00:00	2024-11-06T22:00:00	2	Temperatura media	15.7
115754	7	Sololá	702	San José Chacayá	5	Chacayá	8	Agosto	2023-08-26T00:00:00	2024-11-06T22:00:00	4	Temperatura máxima	16
115755	7	Sololá	702	San José Chacayá	5	Chacayá	8	Agosto	2023-08-26T00:00:00	2024-11-06T22:00:00	3	Temperatura mínima	15.7
115756	7	Sololá	702	San José Chacayá	5	Chacayá	8	Agosto	2023-08-26T00:00:00	2024-11-06T22:00:00	5	Humedad	92
115757	7	Sololá	702	San José Chacayá	5	Chacayá	8	Agosto	2023-08-26T00:00:00	2024-11-06T22:00:00	6	Velocidad del viento	0
115758	7	Sololá	702	San José Chacayá	5	Chacayá	8	Agosto	2023-08-26T00:00:00	2024-11-06T22:00:00	7	Dirección del viento	0
115759	7	Sololá	702	San José Chacayá	5	Chacayá	8	Agosto	2023-08-26T00:00:00	2024-11-06T22:00:00	1	Precipitación	0
115760	7	Sololá	702	San José Chacayá	5	Chacayá	8	Agosto	2023-08-26T00:00:00	2024-11-06T22:00:00	8	Radiación solar	0
115761	7	Sololá	702	San José Chacayá	5	Chacayá	8	Agosto	2023-08-26T00:00:00	2024-11-06T23:00:00	2	Temperatura media	15.6
115762	7	Sololá	702	San José Chacayá	5	Chacayá	8	Agosto	2023-08-26T00:00:00	2024-11-06T23:00:00	4	Temperatura máxima	15.7
115763	7	Sololá	702	San José Chacayá	5	Chacayá	8	Agosto	2023-08-26T00:00:00	2024-11-06T23:00:00	3	Temperatura mínima	15.5
115764	7	Sololá	702	San José Chacayá	5	Chacayá	8	Agosto	2023-08-26T00:00:00	2024-11-06T23:00:00	5	Humedad	93
115765	7	Sololá	702	San José Chacayá	5	Chacayá	8	Agosto	2023-08-26T00:00:00	2024-11-06T23:00:00	6	Velocidad del viento	0
115766	7	Sololá	702	San José Chacayá	5	Chacayá	8	Agosto	2023-08-26T00:00:00	2024-11-06T23:00:00	7	Dirección del viento	0
115767	7	Sololá	702	San José Chacayá	5	Chacayá	8	Agosto	2023-08-26T00:00:00	2024-11-06T23:00:00	1	Precipitación	0
115768	7	Sololá	702	San José Chacayá	5	Chacayá	8	Agosto	2023-08-26T00:00:00	2024-11-06T23:00:00	8	Radiación solar	0
115769	7	Sololá	702	San José Chacayá	5	Chacayá	8	Agosto	2023-08-27T00:00:00	2024-11-06T00:00:00	2	Temperatura media	15.6
115770	7	Sololá	702	San José Chacayá	5	Chacayá	8	Agosto	2023-08-27T00:00:00	2024-11-06T00:00:00	4	Temperatura máxima	15.7
115771	7	Sololá	702	San José Chacayá	5	Chacayá	8	Agosto	2023-08-27T00:00:00	2024-11-06T00:00:00	3	Temperatura mínima	15.6
115772	7	Sololá	702	San José Chacayá	5	Chacayá	8	Agosto	2023-08-27T00:00:00	2024-11-06T00:00:00	5	Humedad	93
115773	7	Sololá	702	San José Chacayá	5	Chacayá	8	Agosto	2023-08-27T00:00:00	2024-11-06T00:00:00	6	Velocidad del viento	0
115774	7	Sololá	702	San José Chacayá	5	Chacayá	8	Agosto	2023-08-27T00:00:00	2024-11-06T00:00:00	7	Dirección del viento	0
115775	7	Sololá	702	San José Chacayá	5	Chacayá	8	Agosto	2023-08-27T00:00:00	2024-11-06T00:00:00	1	Precipitación	0
115776	7	Sololá	702	San José Chacayá	5	Chacayá	8	Agosto	2023-08-27T00:00:00	2024-11-06T00:00:00	8	Radiación solar	0
115777	7	Sololá	702	San José Chacayá	5	Chacayá	8	Agosto	2023-08-27T00:00:00	2024-11-06T01:00:00	2	Temperatura media	15.2
115778	7	Sololá	702	San José Chacayá	5	Chacayá	8	Agosto	2023-08-27T00:00:00	2024-11-06T01:00:00	4	Temperatura máxima	15.3
115779	7	Sololá	702	San José Chacayá	5	Chacayá	8	Agosto	2023-08-27T00:00:00	2024-11-06T01:00:00	3	Temperatura mínima	15.1
115780	7	Sololá	702	San José Chacayá	5	Chacayá	8	Agosto	2023-08-27T00:00:00	2024-11-06T01:00:00	5	Humedad	94
115781	7	Sololá	702	San José Chacayá	5	Chacayá	8	Agosto	2023-08-27T00:00:00	2024-11-06T01:00:00	6	Velocidad del viento	0
115782	7	Sololá	702	San José Chacayá	5	Chacayá	8	Agosto	2023-08-27T00:00:00	2024-11-06T01:00:00	7	Dirección del viento	0
115783	7	Sololá	702	San José Chacayá	5	Chacayá	8	Agosto	2023-08-27T00:00:00	2024-11-06T01:00:00	1	Precipitación	0
115784	7	Sololá	702	San José Chacayá	5	Chacayá	8	Agosto	2023-08-27T00:00:00	2024-11-06T01:00:00	8	Radiación solar	0
115785	7	Sololá	702	San José Chacayá	5	Chacayá	8	Agosto	2023-08-27T00:00:00	2024-11-06T02:00:00	2	Temperatura media	14.9
115786	7	Sololá	702	San José Chacayá	5	Chacayá	8	Agosto	2023-08-27T00:00:00	2024-11-06T02:00:00	4	Temperatura máxima	15.1
115787	7	Sololá	702	San José Chacayá	5	Chacayá	8	Agosto	2023-08-27T00:00:00	2024-11-06T02:00:00	3	Temperatura mínima	14.9
115788	7	Sololá	702	San José Chacayá	5	Chacayá	8	Agosto	2023-08-27T00:00:00	2024-11-06T02:00:00	5	Humedad	93
115789	7	Sololá	702	San José Chacayá	5	Chacayá	8	Agosto	2023-08-27T00:00:00	2024-11-06T02:00:00	6	Velocidad del viento	0
115790	7	Sololá	702	San José Chacayá	5	Chacayá	8	Agosto	2023-08-27T00:00:00	2024-11-06T02:00:00	7	Dirección del viento	0
115791	7	Sololá	702	San José Chacayá	5	Chacayá	8	Agosto	2023-08-27T00:00:00	2024-11-06T02:00:00	1	Precipitación	0
115792	7	Sololá	702	San José Chacayá	5	Chacayá	8	Agosto	2023-08-27T00:00:00	2024-11-06T02:00:00	8	Radiación solar	0
115793	7	Sololá	702	San José Chacayá	5	Chacayá	8	Agosto	2023-08-27T00:00:00	2024-11-06T03:00:00	2	Temperatura media	14.7
115794	7	Sololá	702	San José Chacayá	5	Chacayá	8	Agosto	2023-08-27T00:00:00	2024-11-06T03:00:00	4	Temperatura máxima	14.8
115795	7	Sololá	702	San José Chacayá	5	Chacayá	8	Agosto	2023-08-27T00:00:00	2024-11-06T03:00:00	3	Temperatura mínima	14.7
115796	7	Sololá	702	San José Chacayá	5	Chacayá	8	Agosto	2023-08-27T00:00:00	2024-11-06T03:00:00	5	Humedad	93
115797	7	Sololá	702	San José Chacayá	5	Chacayá	8	Agosto	2023-08-27T00:00:00	2024-11-06T03:00:00	6	Velocidad del viento	0
115798	7	Sololá	702	San José Chacayá	5	Chacayá	8	Agosto	2023-08-27T00:00:00	2024-11-06T03:00:00	7	Dirección del viento	0
115799	7	Sololá	702	San José Chacayá	5	Chacayá	8	Agosto	2023-08-27T00:00:00	2024-11-06T03:00:00	1	Precipitación	0
115800	7	Sololá	702	San José Chacayá	5	Chacayá	8	Agosto	2023-08-27T00:00:00	2024-11-06T03:00:00	8	Radiación solar	0
115801	7	Sololá	702	San José Chacayá	5	Chacayá	8	Agosto	2023-08-27T00:00:00	2024-11-06T04:00:00	2	Temperatura media	14.2
115802	7	Sololá	702	San José Chacayá	5	Chacayá	8	Agosto	2023-08-27T00:00:00	2024-11-06T04:00:00	4	Temperatura máxima	14.5
115803	7	Sololá	702	San José Chacayá	5	Chacayá	8	Agosto	2023-08-27T00:00:00	2024-11-06T04:00:00	3	Temperatura mínima	14.2
115804	7	Sololá	702	San José Chacayá	5	Chacayá	8	Agosto	2023-08-27T00:00:00	2024-11-06T04:00:00	5	Humedad	92
115805	7	Sololá	702	San José Chacayá	5	Chacayá	8	Agosto	2023-08-27T00:00:00	2024-11-06T04:00:00	6	Velocidad del viento	0
115806	7	Sololá	702	San José Chacayá	5	Chacayá	8	Agosto	2023-08-27T00:00:00	2024-11-06T04:00:00	7	Dirección del viento	0
115807	7	Sololá	702	San José Chacayá	5	Chacayá	8	Agosto	2023-08-27T00:00:00	2024-11-06T04:00:00	1	Precipitación	0
115808	7	Sololá	702	San José Chacayá	5	Chacayá	8	Agosto	2023-08-27T00:00:00	2024-11-06T04:00:00	8	Radiación solar	0
115809	7	Sololá	702	San José Chacayá	5	Chacayá	8	Agosto	2023-08-27T00:00:00	2024-11-06T05:00:00	2	Temperatura media	13.5
115810	7	Sololá	702	San José Chacayá	5	Chacayá	8	Agosto	2023-08-27T00:00:00	2024-11-06T05:00:00	4	Temperatura máxima	13.9
115811	7	Sololá	702	San José Chacayá	5	Chacayá	8	Agosto	2023-08-27T00:00:00	2024-11-06T05:00:00	3	Temperatura mínima	13.5
115812	7	Sololá	702	San José Chacayá	5	Chacayá	8	Agosto	2023-08-27T00:00:00	2024-11-06T05:00:00	5	Humedad	93
115813	7	Sololá	702	San José Chacayá	5	Chacayá	8	Agosto	2023-08-27T00:00:00	2024-11-06T05:00:00	6	Velocidad del viento	0
115814	7	Sololá	702	San José Chacayá	5	Chacayá	8	Agosto	2023-08-27T00:00:00	2024-11-06T05:00:00	7	Dirección del viento	0
115815	7	Sololá	702	San José Chacayá	5	Chacayá	8	Agosto	2023-08-27T00:00:00	2024-11-06T05:00:00	1	Precipitación	0
115816	7	Sololá	702	San José Chacayá	5	Chacayá	8	Agosto	2023-08-27T00:00:00	2024-11-06T05:00:00	8	Radiación solar	0
115817	7	Sololá	702	San José Chacayá	5	Chacayá	8	Agosto	2023-08-27T00:00:00	2024-11-06T06:00:00	2	Temperatura media	13
115818	7	Sololá	702	San José Chacayá	5	Chacayá	8	Agosto	2023-08-27T00:00:00	2024-11-06T06:00:00	4	Temperatura máxima	13.2
115819	7	Sololá	702	San José Chacayá	5	Chacayá	8	Agosto	2023-08-27T00:00:00	2024-11-06T06:00:00	3	Temperatura mínima	13
115820	7	Sololá	702	San José Chacayá	5	Chacayá	8	Agosto	2023-08-27T00:00:00	2024-11-06T06:00:00	5	Humedad	93
115821	7	Sololá	702	San José Chacayá	5	Chacayá	8	Agosto	2023-08-27T00:00:00	2024-11-06T06:00:00	6	Velocidad del viento	0
115822	7	Sololá	702	San José Chacayá	5	Chacayá	8	Agosto	2023-08-27T00:00:00	2024-11-06T06:00:00	7	Dirección del viento	0
115823	7	Sololá	702	San José Chacayá	5	Chacayá	8	Agosto	2023-08-27T00:00:00	2024-11-06T06:00:00	1	Precipitación	0
115824	7	Sololá	702	San José Chacayá	5	Chacayá	8	Agosto	2023-08-27T00:00:00	2024-11-06T06:00:00	8	Radiación solar	1
115825	7	Sololá	702	San José Chacayá	5	Chacayá	8	Agosto	2023-08-27T00:00:00	2024-11-06T07:00:00	2	Temperatura media	13.9
115826	7	Sololá	702	San José Chacayá	5	Chacayá	8	Agosto	2023-08-27T00:00:00	2024-11-06T07:00:00	4	Temperatura máxima	13.9
115827	7	Sololá	702	San José Chacayá	5	Chacayá	8	Agosto	2023-08-27T00:00:00	2024-11-06T07:00:00	3	Temperatura mínima	13.1
115828	7	Sololá	702	San José Chacayá	5	Chacayá	8	Agosto	2023-08-27T00:00:00	2024-11-06T07:00:00	5	Humedad	92
115829	7	Sololá	702	San José Chacayá	5	Chacayá	8	Agosto	2023-08-27T00:00:00	2024-11-06T07:00:00	6	Velocidad del viento	1.6
115830	7	Sololá	702	San José Chacayá	5	Chacayá	8	Agosto	2023-08-27T00:00:00	2024-11-06T07:00:00	7	Dirección del viento	0.8
115831	7	Sololá	702	San José Chacayá	5	Chacayá	8	Agosto	2023-08-27T00:00:00	2024-11-06T07:00:00	1	Precipitación	0
115832	7	Sololá	702	San José Chacayá	5	Chacayá	8	Agosto	2023-08-27T00:00:00	2024-11-06T07:00:00	8	Radiación solar	37
115833	7	Sololá	702	San José Chacayá	5	Chacayá	8	Agosto	2023-08-27T00:00:00	2024-11-06T08:00:00	2	Temperatura media	17.1
115834	7	Sololá	702	San José Chacayá	5	Chacayá	8	Agosto	2023-08-27T00:00:00	2024-11-06T08:00:00	4	Temperatura máxima	17.1
115835	7	Sololá	702	San José Chacayá	5	Chacayá	8	Agosto	2023-08-27T00:00:00	2024-11-06T08:00:00	3	Temperatura mínima	15
115836	7	Sololá	702	San José Chacayá	5	Chacayá	8	Agosto	2023-08-27T00:00:00	2024-11-06T08:00:00	5	Humedad	86
115837	7	Sololá	702	San José Chacayá	5	Chacayá	8	Agosto	2023-08-27T00:00:00	2024-11-06T08:00:00	6	Velocidad del viento	1.6
115838	7	Sololá	702	San José Chacayá	5	Chacayá	8	Agosto	2023-08-27T00:00:00	2024-11-06T08:00:00	7	Dirección del viento	0.8
115839	7	Sololá	702	San José Chacayá	5	Chacayá	8	Agosto	2023-08-27T00:00:00	2024-11-06T08:00:00	1	Precipitación	0
115840	7	Sololá	702	San José Chacayá	5	Chacayá	8	Agosto	2023-08-27T00:00:00	2024-11-06T08:00:00	8	Radiación solar	199
115841	7	Sololá	702	San José Chacayá	5	Chacayá	8	Agosto	2023-08-27T00:00:00	2024-11-06T09:00:00	2	Temperatura media	19.1
115842	7	Sololá	702	San José Chacayá	5	Chacayá	8	Agosto	2023-08-27T00:00:00	2024-11-06T09:00:00	4	Temperatura máxima	19.1
115843	7	Sololá	702	San José Chacayá	5	Chacayá	8	Agosto	2023-08-27T00:00:00	2024-11-06T09:00:00	3	Temperatura mínima	18.3
115844	7	Sololá	702	San José Chacayá	5	Chacayá	8	Agosto	2023-08-27T00:00:00	2024-11-06T09:00:00	5	Humedad	81
115845	7	Sololá	702	San José Chacayá	5	Chacayá	8	Agosto	2023-08-27T00:00:00	2024-11-06T09:00:00	6	Velocidad del viento	3.2
115846	7	Sololá	702	San José Chacayá	5	Chacayá	8	Agosto	2023-08-27T00:00:00	2024-11-06T09:00:00	7	Dirección del viento	1.61
115847	7	Sololá	702	San José Chacayá	5	Chacayá	8	Agosto	2023-08-27T00:00:00	2024-11-06T09:00:00	1	Precipitación	0
115848	7	Sololá	702	San José Chacayá	5	Chacayá	8	Agosto	2023-08-27T00:00:00	2024-11-06T09:00:00	8	Radiación solar	608
115849	7	Sololá	702	San José Chacayá	5	Chacayá	8	Agosto	2023-08-27T00:00:00	2024-11-06T10:00:00	2	Temperatura media	22.2
115850	7	Sololá	702	San José Chacayá	5	Chacayá	8	Agosto	2023-08-27T00:00:00	2024-11-06T10:00:00	4	Temperatura máxima	22.3
115851	7	Sololá	702	San José Chacayá	5	Chacayá	8	Agosto	2023-08-27T00:00:00	2024-11-06T10:00:00	3	Temperatura mínima	20.9
115852	7	Sololá	702	San José Chacayá	5	Chacayá	8	Agosto	2023-08-27T00:00:00	2024-11-06T10:00:00	5	Humedad	68
115853	7	Sololá	702	San José Chacayá	5	Chacayá	8	Agosto	2023-08-27T00:00:00	2024-11-06T10:00:00	6	Velocidad del viento	3.2
115854	7	Sololá	702	San José Chacayá	5	Chacayá	8	Agosto	2023-08-27T00:00:00	2024-11-06T10:00:00	7	Dirección del viento	1.61
115855	7	Sololá	702	San José Chacayá	5	Chacayá	8	Agosto	2023-08-27T00:00:00	2024-11-06T10:00:00	1	Precipitación	0
115856	7	Sololá	702	San José Chacayá	5	Chacayá	8	Agosto	2023-08-27T00:00:00	2024-11-06T10:00:00	8	Radiación solar	683
115857	7	Sololá	702	San José Chacayá	5	Chacayá	8	Agosto	2023-08-27T00:00:00	2024-11-06T11:00:00	2	Temperatura media	22.2
115858	7	Sololá	702	San José Chacayá	5	Chacayá	8	Agosto	2023-08-27T00:00:00	2024-11-06T11:00:00	4	Temperatura máxima	22.9
115859	7	Sololá	702	San José Chacayá	5	Chacayá	8	Agosto	2023-08-27T00:00:00	2024-11-06T11:00:00	3	Temperatura mínima	22.2
115860	7	Sololá	702	San José Chacayá	5	Chacayá	8	Agosto	2023-08-27T00:00:00	2024-11-06T11:00:00	5	Humedad	69
115861	7	Sololá	702	San José Chacayá	5	Chacayá	8	Agosto	2023-08-27T00:00:00	2024-11-06T11:00:00	6	Velocidad del viento	4.8
115862	7	Sololá	702	San José Chacayá	5	Chacayá	8	Agosto	2023-08-27T00:00:00	2024-11-06T11:00:00	7	Dirección del viento	2.41
115863	7	Sololá	702	San José Chacayá	5	Chacayá	8	Agosto	2023-08-27T00:00:00	2024-11-06T11:00:00	1	Precipitación	0
115864	7	Sololá	702	San José Chacayá	5	Chacayá	8	Agosto	2023-08-27T00:00:00	2024-11-06T11:00:00	8	Radiación solar	907
115865	7	Sololá	702	San José Chacayá	5	Chacayá	8	Agosto	2023-08-27T00:00:00	2024-11-06T12:00:00	2	Temperatura media	22.5
115866	7	Sololá	702	San José Chacayá	5	Chacayá	8	Agosto	2023-08-27T00:00:00	2024-11-06T12:00:00	4	Temperatura máxima	22.8
115867	7	Sololá	702	San José Chacayá	5	Chacayá	8	Agosto	2023-08-27T00:00:00	2024-11-06T12:00:00	3	Temperatura mínima	22.5
115868	7	Sololá	702	San José Chacayá	5	Chacayá	8	Agosto	2023-08-27T00:00:00	2024-11-06T12:00:00	5	Humedad	67
115869	7	Sololá	702	San José Chacayá	5	Chacayá	8	Agosto	2023-08-27T00:00:00	2024-11-06T12:00:00	6	Velocidad del viento	4.8
115870	7	Sololá	702	San José Chacayá	5	Chacayá	8	Agosto	2023-08-27T00:00:00	2024-11-06T12:00:00	7	Dirección del viento	2.41
115871	7	Sololá	702	San José Chacayá	5	Chacayá	8	Agosto	2023-08-27T00:00:00	2024-11-06T12:00:00	1	Precipitación	0
115872	7	Sololá	702	San José Chacayá	5	Chacayá	8	Agosto	2023-08-27T00:00:00	2024-11-06T12:00:00	8	Radiación solar	1035
115873	7	Sololá	702	San José Chacayá	5	Chacayá	8	Agosto	2023-08-27T00:00:00	2024-11-06T13:00:00	2	Temperatura media	21.4
115874	7	Sololá	702	San José Chacayá	5	Chacayá	8	Agosto	2023-08-27T00:00:00	2024-11-06T13:00:00	4	Temperatura máxima	22.6
115875	7	Sololá	702	San José Chacayá	5	Chacayá	8	Agosto	2023-08-27T00:00:00	2024-11-06T13:00:00	3	Temperatura mínima	21.3
115876	7	Sololá	702	San José Chacayá	5	Chacayá	8	Agosto	2023-08-27T00:00:00	2024-11-06T13:00:00	5	Humedad	74
115877	7	Sololá	702	San José Chacayá	5	Chacayá	8	Agosto	2023-08-27T00:00:00	2024-11-06T13:00:00	6	Velocidad del viento	4.8
115878	7	Sololá	702	San José Chacayá	5	Chacayá	8	Agosto	2023-08-27T00:00:00	2024-11-06T13:00:00	7	Dirección del viento	2.41
115879	7	Sololá	702	San José Chacayá	5	Chacayá	8	Agosto	2023-08-27T00:00:00	2024-11-06T13:00:00	1	Precipitación	0
115880	7	Sololá	702	San José Chacayá	5	Chacayá	8	Agosto	2023-08-27T00:00:00	2024-11-06T13:00:00	8	Radiación solar	931
115881	7	Sololá	702	San José Chacayá	5	Chacayá	8	Agosto	2023-08-27T00:00:00	2024-11-06T14:00:00	2	Temperatura media	20.9
115882	7	Sololá	702	San José Chacayá	5	Chacayá	8	Agosto	2023-08-27T00:00:00	2024-11-06T14:00:00	4	Temperatura máxima	21.6
115883	7	Sololá	702	San José Chacayá	5	Chacayá	8	Agosto	2023-08-27T00:00:00	2024-11-06T14:00:00	3	Temperatura mínima	20.8
115884	7	Sololá	702	San José Chacayá	5	Chacayá	8	Agosto	2023-08-27T00:00:00	2024-11-06T14:00:00	5	Humedad	74
115885	7	Sololá	702	San José Chacayá	5	Chacayá	8	Agosto	2023-08-27T00:00:00	2024-11-06T14:00:00	6	Velocidad del viento	4.8
115886	7	Sololá	702	San José Chacayá	5	Chacayá	8	Agosto	2023-08-27T00:00:00	2024-11-06T14:00:00	7	Dirección del viento	2.41
115887	7	Sololá	702	San José Chacayá	5	Chacayá	8	Agosto	2023-08-27T00:00:00	2024-11-06T14:00:00	1	Precipitación	0
115888	7	Sololá	702	San José Chacayá	5	Chacayá	8	Agosto	2023-08-27T00:00:00	2024-11-06T14:00:00	8	Radiación solar	302
115889	7	Sololá	702	San José Chacayá	5	Chacayá	8	Agosto	2023-08-27T00:00:00	2024-11-06T15:00:00	2	Temperatura media	19.8
115890	7	Sololá	702	San José Chacayá	5	Chacayá	8	Agosto	2023-08-27T00:00:00	2024-11-06T15:00:00	4	Temperatura máxima	20
115891	7	Sololá	702	San José Chacayá	5	Chacayá	8	Agosto	2023-08-27T00:00:00	2024-11-06T15:00:00	3	Temperatura mínima	19.6
115892	7	Sololá	702	San José Chacayá	5	Chacayá	8	Agosto	2023-08-27T00:00:00	2024-11-06T15:00:00	5	Humedad	79
115893	7	Sololá	702	San José Chacayá	5	Chacayá	8	Agosto	2023-08-27T00:00:00	2024-11-06T15:00:00	6	Velocidad del viento	3.2
115894	7	Sololá	702	San José Chacayá	5	Chacayá	8	Agosto	2023-08-27T00:00:00	2024-11-06T15:00:00	7	Dirección del viento	1.61
115895	7	Sololá	702	San José Chacayá	5	Chacayá	8	Agosto	2023-08-27T00:00:00	2024-11-06T15:00:00	1	Precipitación	0
115896	7	Sololá	702	San José Chacayá	5	Chacayá	8	Agosto	2023-08-27T00:00:00	2024-11-06T15:00:00	8	Radiación solar	192
115897	7	Sololá	702	San José Chacayá	5	Chacayá	8	Agosto	2023-08-27T00:00:00	2024-11-06T16:00:00	2	Temperatura media	19.4
115898	7	Sololá	702	San José Chacayá	5	Chacayá	8	Agosto	2023-08-27T00:00:00	2024-11-06T16:00:00	4	Temperatura máxima	20.8
115899	7	Sololá	702	San José Chacayá	5	Chacayá	8	Agosto	2023-08-27T00:00:00	2024-11-06T16:00:00	3	Temperatura mínima	19.4
115900	7	Sololá	702	San José Chacayá	5	Chacayá	8	Agosto	2023-08-27T00:00:00	2024-11-06T16:00:00	5	Humedad	79
115901	7	Sololá	702	San José Chacayá	5	Chacayá	8	Agosto	2023-08-27T00:00:00	2024-11-06T16:00:00	6	Velocidad del viento	6.4
115902	7	Sololá	702	San José Chacayá	5	Chacayá	8	Agosto	2023-08-27T00:00:00	2024-11-06T16:00:00	7	Dirección del viento	3.22
115903	7	Sololá	702	San José Chacayá	5	Chacayá	8	Agosto	2023-08-27T00:00:00	2024-11-06T16:00:00	1	Precipitación	0
115904	7	Sololá	702	San José Chacayá	5	Chacayá	8	Agosto	2023-08-27T00:00:00	2024-11-06T16:00:00	8	Radiación solar	98
115905	7	Sololá	702	San José Chacayá	5	Chacayá	8	Agosto	2023-08-27T00:00:00	2024-11-06T17:00:00	2	Temperatura media	18.8
115906	7	Sololá	702	San José Chacayá	5	Chacayá	8	Agosto	2023-08-27T00:00:00	2024-11-06T17:00:00	4	Temperatura máxima	18.8
115907	7	Sololá	702	San José Chacayá	5	Chacayá	8	Agosto	2023-08-27T00:00:00	2024-11-06T17:00:00	3	Temperatura mínima	18.3
115908	7	Sololá	702	San José Chacayá	5	Chacayá	8	Agosto	2023-08-27T00:00:00	2024-11-06T17:00:00	5	Humedad	81
115909	7	Sololá	702	San José Chacayá	5	Chacayá	8	Agosto	2023-08-27T00:00:00	2024-11-06T17:00:00	6	Velocidad del viento	3.2
115910	7	Sololá	702	San José Chacayá	5	Chacayá	8	Agosto	2023-08-27T00:00:00	2024-11-06T17:00:00	7	Dirección del viento	1.61
115911	7	Sololá	702	San José Chacayá	5	Chacayá	8	Agosto	2023-08-27T00:00:00	2024-11-06T17:00:00	1	Precipitación	0
115912	7	Sololá	702	San José Chacayá	5	Chacayá	8	Agosto	2023-08-27T00:00:00	2024-11-06T17:00:00	8	Radiación solar	36
115913	7	Sololá	702	San José Chacayá	5	Chacayá	8	Agosto	2023-08-27T00:00:00	2024-11-06T18:00:00	2	Temperatura media	17.5
115914	7	Sololá	702	San José Chacayá	5	Chacayá	8	Agosto	2023-08-27T00:00:00	2024-11-06T18:00:00	4	Temperatura máxima	18.1
115915	7	Sololá	702	San José Chacayá	5	Chacayá	8	Agosto	2023-08-27T00:00:00	2024-11-06T18:00:00	3	Temperatura mínima	17.5
115916	7	Sololá	702	San José Chacayá	5	Chacayá	8	Agosto	2023-08-27T00:00:00	2024-11-06T18:00:00	5	Humedad	88
115917	7	Sololá	702	San José Chacayá	5	Chacayá	8	Agosto	2023-08-27T00:00:00	2024-11-06T18:00:00	6	Velocidad del viento	1.6
115918	7	Sololá	702	San José Chacayá	5	Chacayá	8	Agosto	2023-08-27T00:00:00	2024-11-06T18:00:00	7	Dirección del viento	0.8
115919	7	Sololá	702	San José Chacayá	5	Chacayá	8	Agosto	2023-08-27T00:00:00	2024-11-06T18:00:00	1	Precipitación	0
115920	7	Sololá	702	San José Chacayá	5	Chacayá	8	Agosto	2023-08-27T00:00:00	2024-11-06T18:00:00	8	Radiación solar	15
115921	7	Sololá	702	San José Chacayá	5	Chacayá	8	Agosto	2023-08-27T00:00:00	2024-11-06T19:00:00	2	Temperatura media	16.7
115922	7	Sololá	702	San José Chacayá	5	Chacayá	8	Agosto	2023-08-27T00:00:00	2024-11-06T19:00:00	4	Temperatura máxima	16.9
115923	7	Sololá	702	San José Chacayá	5	Chacayá	8	Agosto	2023-08-27T00:00:00	2024-11-06T19:00:00	3	Temperatura mínima	16.7
115924	7	Sololá	702	San José Chacayá	5	Chacayá	8	Agosto	2023-08-27T00:00:00	2024-11-06T19:00:00	5	Humedad	92
115925	7	Sololá	702	San José Chacayá	5	Chacayá	8	Agosto	2023-08-27T00:00:00	2024-11-06T19:00:00	6	Velocidad del viento	0
115926	7	Sololá	702	San José Chacayá	5	Chacayá	8	Agosto	2023-08-27T00:00:00	2024-11-06T19:00:00	7	Dirección del viento	0
115927	7	Sololá	702	San José Chacayá	5	Chacayá	8	Agosto	2023-08-27T00:00:00	2024-11-06T19:00:00	1	Precipitación	0
115928	7	Sololá	702	San José Chacayá	5	Chacayá	8	Agosto	2023-08-27T00:00:00	2024-11-06T19:00:00	8	Radiación solar	0
115929	7	Sololá	702	San José Chacayá	5	Chacayá	8	Agosto	2023-08-27T00:00:00	2024-11-06T20:00:00	2	Temperatura media	15.9
115930	7	Sololá	702	San José Chacayá	5	Chacayá	8	Agosto	2023-08-27T00:00:00	2024-11-06T20:00:00	4	Temperatura máxima	16.4
115931	7	Sololá	702	San José Chacayá	5	Chacayá	8	Agosto	2023-08-27T00:00:00	2024-11-06T20:00:00	3	Temperatura mínima	15.8
115932	7	Sololá	702	San José Chacayá	5	Chacayá	8	Agosto	2023-08-27T00:00:00	2024-11-06T20:00:00	5	Humedad	91
115933	7	Sololá	702	San José Chacayá	5	Chacayá	8	Agosto	2023-08-27T00:00:00	2024-11-06T20:00:00	6	Velocidad del viento	1.6
115934	7	Sololá	702	San José Chacayá	5	Chacayá	8	Agosto	2023-08-27T00:00:00	2024-11-06T20:00:00	7	Dirección del viento	0.8
115935	7	Sololá	702	San José Chacayá	5	Chacayá	8	Agosto	2023-08-27T00:00:00	2024-11-06T20:00:00	1	Precipitación	0
115936	7	Sololá	702	San José Chacayá	5	Chacayá	8	Agosto	2023-08-27T00:00:00	2024-11-06T20:00:00	8	Radiación solar	0
115937	7	Sololá	702	San José Chacayá	5	Chacayá	8	Agosto	2023-08-27T00:00:00	2024-11-06T21:00:00	2	Temperatura media	15.6
115938	7	Sololá	702	San José Chacayá	5	Chacayá	8	Agosto	2023-08-27T00:00:00	2024-11-06T21:00:00	4	Temperatura máxima	15.9
115939	7	Sololá	702	San José Chacayá	5	Chacayá	8	Agosto	2023-08-27T00:00:00	2024-11-06T21:00:00	3	Temperatura mínima	15.6
115940	7	Sololá	702	San José Chacayá	5	Chacayá	8	Agosto	2023-08-27T00:00:00	2024-11-06T21:00:00	5	Humedad	93
115941	7	Sololá	702	San José Chacayá	5	Chacayá	8	Agosto	2023-08-27T00:00:00	2024-11-06T21:00:00	6	Velocidad del viento	1.6
115942	7	Sololá	702	San José Chacayá	5	Chacayá	8	Agosto	2023-08-27T00:00:00	2024-11-06T21:00:00	7	Dirección del viento	0.8
115943	7	Sololá	702	San José Chacayá	5	Chacayá	8	Agosto	2023-08-27T00:00:00	2024-11-06T21:00:00	1	Precipitación	0
115944	7	Sololá	702	San José Chacayá	5	Chacayá	8	Agosto	2023-08-27T00:00:00	2024-11-06T21:00:00	8	Radiación solar	0
115945	7	Sololá	702	San José Chacayá	5	Chacayá	8	Agosto	2023-08-27T00:00:00	2024-11-06T22:00:00	2	Temperatura media	15.3
115946	7	Sololá	702	San José Chacayá	5	Chacayá	8	Agosto	2023-08-27T00:00:00	2024-11-06T22:00:00	4	Temperatura máxima	15.4
115947	7	Sololá	702	San José Chacayá	5	Chacayá	8	Agosto	2023-08-27T00:00:00	2024-11-06T22:00:00	3	Temperatura mínima	15.2
115948	7	Sololá	702	San José Chacayá	5	Chacayá	8	Agosto	2023-08-27T00:00:00	2024-11-06T22:00:00	5	Humedad	94
115949	7	Sololá	702	San José Chacayá	5	Chacayá	8	Agosto	2023-08-27T00:00:00	2024-11-06T22:00:00	6	Velocidad del viento	0
115950	7	Sololá	702	San José Chacayá	5	Chacayá	8	Agosto	2023-08-27T00:00:00	2024-11-06T22:00:00	7	Dirección del viento	0
115951	7	Sololá	702	San José Chacayá	5	Chacayá	8	Agosto	2023-08-27T00:00:00	2024-11-06T22:00:00	1	Precipitación	0.25
115952	7	Sololá	702	San José Chacayá	5	Chacayá	8	Agosto	2023-08-27T00:00:00	2024-11-06T22:00:00	8	Radiación solar	0
115953	7	Sololá	702	San José Chacayá	5	Chacayá	8	Agosto	2023-08-27T00:00:00	2024-11-06T23:00:00	2	Temperatura media	15.1
115954	7	Sololá	702	San José Chacayá	5	Chacayá	8	Agosto	2023-08-27T00:00:00	2024-11-06T23:00:00	4	Temperatura máxima	15.2
115955	7	Sololá	702	San José Chacayá	5	Chacayá	8	Agosto	2023-08-27T00:00:00	2024-11-06T23:00:00	3	Temperatura mínima	15.1
115956	7	Sololá	702	San José Chacayá	5	Chacayá	8	Agosto	2023-08-27T00:00:00	2024-11-06T23:00:00	5	Humedad	95
115957	7	Sololá	702	San José Chacayá	5	Chacayá	8	Agosto	2023-08-27T00:00:00	2024-11-06T23:00:00	6	Velocidad del viento	0
115958	7	Sololá	702	San José Chacayá	5	Chacayá	8	Agosto	2023-08-27T00:00:00	2024-11-06T23:00:00	7	Dirección del viento	0
115959	7	Sololá	702	San José Chacayá	5	Chacayá	8	Agosto	2023-08-27T00:00:00	2024-11-06T23:00:00	1	Precipitación	0.76
115960	7	Sololá	702	San José Chacayá	5	Chacayá	8	Agosto	2023-08-27T00:00:00	2024-11-06T23:00:00	8	Radiación solar	0
115961	7	Sololá	702	San José Chacayá	5	Chacayá	8	Agosto	2023-08-28T00:00:00	2024-11-06T00:00:00	2	Temperatura media	14.8
115962	7	Sololá	702	San José Chacayá	5	Chacayá	8	Agosto	2023-08-28T00:00:00	2024-11-06T00:00:00	4	Temperatura máxima	15
115963	7	Sololá	702	San José Chacayá	5	Chacayá	8	Agosto	2023-08-28T00:00:00	2024-11-06T00:00:00	3	Temperatura mínima	14.8
115964	7	Sololá	702	San José Chacayá	5	Chacayá	8	Agosto	2023-08-28T00:00:00	2024-11-06T00:00:00	5	Humedad	94
115965	7	Sololá	702	San José Chacayá	5	Chacayá	8	Agosto	2023-08-28T00:00:00	2024-11-06T00:00:00	6	Velocidad del viento	0
115966	7	Sololá	702	San José Chacayá	5	Chacayá	8	Agosto	2023-08-28T00:00:00	2024-11-06T00:00:00	7	Dirección del viento	0
115967	7	Sololá	702	San José Chacayá	5	Chacayá	8	Agosto	2023-08-28T00:00:00	2024-11-06T00:00:00	1	Precipitación	0.25
115968	7	Sololá	702	San José Chacayá	5	Chacayá	8	Agosto	2023-08-28T00:00:00	2024-11-06T00:00:00	8	Radiación solar	0
115969	7	Sololá	702	San José Chacayá	5	Chacayá	8	Agosto	2023-08-28T00:00:00	2024-11-06T01:00:00	2	Temperatura media	14.6
115970	7	Sololá	702	San José Chacayá	5	Chacayá	8	Agosto	2023-08-28T00:00:00	2024-11-06T01:00:00	4	Temperatura máxima	14.7
115971	7	Sololá	702	San José Chacayá	5	Chacayá	8	Agosto	2023-08-28T00:00:00	2024-11-06T01:00:00	3	Temperatura mínima	14.6
115972	7	Sololá	702	San José Chacayá	5	Chacayá	8	Agosto	2023-08-28T00:00:00	2024-11-06T01:00:00	5	Humedad	95
115973	7	Sololá	702	San José Chacayá	5	Chacayá	8	Agosto	2023-08-28T00:00:00	2024-11-06T01:00:00	6	Velocidad del viento	0
115974	7	Sololá	702	San José Chacayá	5	Chacayá	8	Agosto	2023-08-28T00:00:00	2024-11-06T01:00:00	7	Dirección del viento	0
115975	7	Sololá	702	San José Chacayá	5	Chacayá	8	Agosto	2023-08-28T00:00:00	2024-11-06T01:00:00	1	Precipitación	0
115976	7	Sololá	702	San José Chacayá	5	Chacayá	8	Agosto	2023-08-28T00:00:00	2024-11-06T01:00:00	8	Radiación solar	0
115977	7	Sololá	702	San José Chacayá	5	Chacayá	8	Agosto	2023-08-28T00:00:00	2024-11-06T02:00:00	2	Temperatura media	13.6
115978	7	Sololá	702	San José Chacayá	5	Chacayá	8	Agosto	2023-08-28T00:00:00	2024-11-06T02:00:00	4	Temperatura máxima	14.7
115979	7	Sololá	702	San José Chacayá	5	Chacayá	8	Agosto	2023-08-28T00:00:00	2024-11-06T02:00:00	3	Temperatura mínima	13.6
115980	7	Sololá	702	San José Chacayá	5	Chacayá	8	Agosto	2023-08-28T00:00:00	2024-11-06T02:00:00	5	Humedad	94
115981	7	Sololá	702	San José Chacayá	5	Chacayá	8	Agosto	2023-08-28T00:00:00	2024-11-06T02:00:00	6	Velocidad del viento	4.8
115982	7	Sololá	702	San José Chacayá	5	Chacayá	8	Agosto	2023-08-28T00:00:00	2024-11-06T02:00:00	7	Dirección del viento	2.41
115983	7	Sololá	702	San José Chacayá	5	Chacayá	8	Agosto	2023-08-28T00:00:00	2024-11-06T02:00:00	1	Precipitación	0.25
115984	7	Sololá	702	San José Chacayá	5	Chacayá	8	Agosto	2023-08-28T00:00:00	2024-11-06T02:00:00	8	Radiación solar	0
115985	7	Sololá	702	San José Chacayá	5	Chacayá	8	Agosto	2023-08-28T00:00:00	2024-11-06T03:00:00	2	Temperatura media	13.6
115986	7	Sololá	702	San José Chacayá	5	Chacayá	8	Agosto	2023-08-28T00:00:00	2024-11-06T03:00:00	4	Temperatura máxima	13.6
115987	7	Sololá	702	San José Chacayá	5	Chacayá	8	Agosto	2023-08-28T00:00:00	2024-11-06T03:00:00	3	Temperatura mínima	13.4
115988	7	Sololá	702	San José Chacayá	5	Chacayá	8	Agosto	2023-08-28T00:00:00	2024-11-06T03:00:00	5	Humedad	95
115989	7	Sololá	702	San José Chacayá	5	Chacayá	8	Agosto	2023-08-28T00:00:00	2024-11-06T03:00:00	6	Velocidad del viento	0
115990	7	Sololá	702	San José Chacayá	5	Chacayá	8	Agosto	2023-08-28T00:00:00	2024-11-06T03:00:00	7	Dirección del viento	0
115991	7	Sololá	702	San José Chacayá	5	Chacayá	8	Agosto	2023-08-28T00:00:00	2024-11-06T03:00:00	1	Precipitación	0
115992	7	Sololá	702	San José Chacayá	5	Chacayá	8	Agosto	2023-08-28T00:00:00	2024-11-06T03:00:00	8	Radiación solar	0
115993	7	Sololá	702	San José Chacayá	5	Chacayá	8	Agosto	2023-08-28T00:00:00	2024-11-06T04:00:00	2	Temperatura media	13.3
115994	7	Sololá	702	San José Chacayá	5	Chacayá	8	Agosto	2023-08-28T00:00:00	2024-11-06T04:00:00	4	Temperatura máxima	13.5
115995	7	Sololá	702	San José Chacayá	5	Chacayá	8	Agosto	2023-08-28T00:00:00	2024-11-06T04:00:00	3	Temperatura mínima	13.2
115996	7	Sololá	702	San José Chacayá	5	Chacayá	8	Agosto	2023-08-28T00:00:00	2024-11-06T04:00:00	5	Humedad	94
115997	7	Sololá	702	San José Chacayá	5	Chacayá	8	Agosto	2023-08-28T00:00:00	2024-11-06T04:00:00	6	Velocidad del viento	0
115998	7	Sololá	702	San José Chacayá	5	Chacayá	8	Agosto	2023-08-28T00:00:00	2024-11-06T04:00:00	7	Dirección del viento	0
115999	7	Sololá	702	San José Chacayá	5	Chacayá	8	Agosto	2023-08-28T00:00:00	2024-11-06T04:00:00	1	Precipitación	0
116000	7	Sololá	702	San José Chacayá	5	Chacayá	8	Agosto	2023-08-28T00:00:00	2024-11-06T04:00:00	8	Radiación solar	0
116001	7	Sololá	702	San José Chacayá	5	Chacayá	8	Agosto	2023-08-28T00:00:00	2024-11-06T05:00:00	2	Temperatura media	13.2
116002	7	Sololá	702	San José Chacayá	5	Chacayá	8	Agosto	2023-08-28T00:00:00	2024-11-06T05:00:00	4	Temperatura máxima	13.2
116003	7	Sololá	702	San José Chacayá	5	Chacayá	8	Agosto	2023-08-28T00:00:00	2024-11-06T05:00:00	3	Temperatura mínima	13.1
116004	7	Sololá	702	San José Chacayá	5	Chacayá	8	Agosto	2023-08-28T00:00:00	2024-11-06T05:00:00	5	Humedad	95
116005	7	Sololá	702	San José Chacayá	5	Chacayá	8	Agosto	2023-08-28T00:00:00	2024-11-06T05:00:00	6	Velocidad del viento	0
116006	7	Sololá	702	San José Chacayá	5	Chacayá	8	Agosto	2023-08-28T00:00:00	2024-11-06T05:00:00	7	Dirección del viento	0
116007	7	Sololá	702	San José Chacayá	5	Chacayá	8	Agosto	2023-08-28T00:00:00	2024-11-06T05:00:00	1	Precipitación	0
116008	7	Sololá	702	San José Chacayá	5	Chacayá	8	Agosto	2023-08-28T00:00:00	2024-11-06T05:00:00	8	Radiación solar	0
116009	7	Sololá	702	San José Chacayá	5	Chacayá	8	Agosto	2023-08-28T00:00:00	2024-11-06T06:00:00	2	Temperatura media	13.1
116010	7	Sololá	702	San José Chacayá	5	Chacayá	8	Agosto	2023-08-28T00:00:00	2024-11-06T06:00:00	4	Temperatura máxima	13.1
116011	7	Sololá	702	San José Chacayá	5	Chacayá	8	Agosto	2023-08-28T00:00:00	2024-11-06T06:00:00	3	Temperatura mínima	12.8
116012	7	Sololá	702	San José Chacayá	5	Chacayá	8	Agosto	2023-08-28T00:00:00	2024-11-06T06:00:00	5	Humedad	94
116013	7	Sololá	702	San José Chacayá	5	Chacayá	8	Agosto	2023-08-28T00:00:00	2024-11-06T06:00:00	6	Velocidad del viento	1.6
116014	7	Sololá	702	San José Chacayá	5	Chacayá	8	Agosto	2023-08-28T00:00:00	2024-11-06T06:00:00	7	Dirección del viento	0.8
116015	7	Sololá	702	San José Chacayá	5	Chacayá	8	Agosto	2023-08-28T00:00:00	2024-11-06T06:00:00	1	Precipitación	0
116016	7	Sololá	702	San José Chacayá	5	Chacayá	8	Agosto	2023-08-28T00:00:00	2024-11-06T06:00:00	8	Radiación solar	0
116017	7	Sololá	702	San José Chacayá	5	Chacayá	8	Agosto	2023-08-28T00:00:00	2024-11-06T07:00:00	2	Temperatura media	13.7
116018	7	Sololá	702	San José Chacayá	5	Chacayá	8	Agosto	2023-08-28T00:00:00	2024-11-06T07:00:00	4	Temperatura máxima	13.7
116019	7	Sololá	702	San José Chacayá	5	Chacayá	8	Agosto	2023-08-28T00:00:00	2024-11-06T07:00:00	3	Temperatura mínima	13.2
116020	7	Sololá	702	San José Chacayá	5	Chacayá	8	Agosto	2023-08-28T00:00:00	2024-11-06T07:00:00	5	Humedad	95
116021	7	Sololá	702	San José Chacayá	5	Chacayá	8	Agosto	2023-08-28T00:00:00	2024-11-06T07:00:00	6	Velocidad del viento	1.6
116022	7	Sololá	702	San José Chacayá	5	Chacayá	8	Agosto	2023-08-28T00:00:00	2024-11-06T07:00:00	7	Dirección del viento	0.8
116023	7	Sololá	702	San José Chacayá	5	Chacayá	8	Agosto	2023-08-28T00:00:00	2024-11-06T07:00:00	1	Precipitación	0
116024	7	Sololá	702	San José Chacayá	5	Chacayá	8	Agosto	2023-08-28T00:00:00	2024-11-06T07:00:00	8	Radiación solar	0
116025	7	Sololá	702	San José Chacayá	5	Chacayá	8	Agosto	2023-08-28T00:00:00	2024-11-06T08:00:00	2	Temperatura media	15.8
116026	7	Sololá	702	San José Chacayá	5	Chacayá	8	Agosto	2023-08-28T00:00:00	2024-11-06T08:00:00	4	Temperatura máxima	15.9
116027	7	Sololá	702	San José Chacayá	5	Chacayá	8	Agosto	2023-08-28T00:00:00	2024-11-06T08:00:00	3	Temperatura mínima	14.9
116028	7	Sololá	702	San José Chacayá	5	Chacayá	8	Agosto	2023-08-28T00:00:00	2024-11-06T08:00:00	5	Humedad	80
116029	7	Sololá	702	San José Chacayá	5	Chacayá	8	Agosto	2023-08-28T00:00:00	2024-11-06T08:00:00	6	Velocidad del viento	1.6
116030	7	Sololá	702	San José Chacayá	5	Chacayá	8	Agosto	2023-08-28T00:00:00	2024-11-06T08:00:00	7	Dirección del viento	0.8
116031	7	Sololá	702	San José Chacayá	5	Chacayá	8	Agosto	2023-08-28T00:00:00	2024-11-06T08:00:00	1	Precipitación	15.24
116032	7	Sololá	702	San José Chacayá	5	Chacayá	8	Agosto	2023-08-28T00:00:00	2024-11-06T08:00:00	8	Radiación solar	141
116033	7	Sololá	702	San José Chacayá	5	Chacayá	8	Agosto	2023-08-28T00:00:00	2024-11-06T09:00:00	2	Temperatura media	16.9
116034	7	Sololá	702	San José Chacayá	5	Chacayá	8	Agosto	2023-08-28T00:00:00	2024-11-06T09:00:00	4	Temperatura máxima	16.9
116035	7	Sololá	702	San José Chacayá	5	Chacayá	8	Agosto	2023-08-28T00:00:00	2024-11-06T09:00:00	3	Temperatura mínima	16.3
116036	7	Sololá	702	San José Chacayá	5	Chacayá	8	Agosto	2023-08-28T00:00:00	2024-11-06T09:00:00	5	Humedad	75
116037	7	Sololá	702	San José Chacayá	5	Chacayá	8	Agosto	2023-08-28T00:00:00	2024-11-06T09:00:00	6	Velocidad del viento	1.6
116038	7	Sololá	702	San José Chacayá	5	Chacayá	8	Agosto	2023-08-28T00:00:00	2024-11-06T09:00:00	7	Dirección del viento	0.8
116039	7	Sololá	702	San José Chacayá	5	Chacayá	8	Agosto	2023-08-28T00:00:00	2024-11-06T09:00:00	1	Precipitación	0.76
116040	7	Sololá	702	San José Chacayá	5	Chacayá	8	Agosto	2023-08-28T00:00:00	2024-11-06T09:00:00	8	Radiación solar	259
116041	7	Sololá	702	San José Chacayá	5	Chacayá	8	Agosto	2023-08-28T00:00:00	2024-11-06T10:00:00	2	Temperatura media	19.9
116042	7	Sololá	702	San José Chacayá	5	Chacayá	8	Agosto	2023-08-28T00:00:00	2024-11-06T10:00:00	4	Temperatura máxima	19.9
116043	7	Sololá	702	San José Chacayá	5	Chacayá	8	Agosto	2023-08-28T00:00:00	2024-11-06T10:00:00	3	Temperatura mínima	18.2
116044	7	Sololá	702	San José Chacayá	5	Chacayá	8	Agosto	2023-08-28T00:00:00	2024-11-06T10:00:00	5	Humedad	78
116045	7	Sololá	702	San José Chacayá	5	Chacayá	8	Agosto	2023-08-28T00:00:00	2024-11-06T10:00:00	6	Velocidad del viento	3.2
116046	7	Sololá	702	San José Chacayá	5	Chacayá	8	Agosto	2023-08-28T00:00:00	2024-11-06T10:00:00	7	Dirección del viento	1.61
116047	7	Sololá	702	San José Chacayá	5	Chacayá	8	Agosto	2023-08-28T00:00:00	2024-11-06T10:00:00	1	Precipitación	0
116048	7	Sololá	702	San José Chacayá	5	Chacayá	8	Agosto	2023-08-28T00:00:00	2024-11-06T10:00:00	8	Radiación solar	855
116049	7	Sololá	702	San José Chacayá	5	Chacayá	8	Agosto	2023-08-28T00:00:00	2024-11-06T11:00:00	2	Temperatura media	20.1
116050	7	Sololá	702	San José Chacayá	5	Chacayá	8	Agosto	2023-08-28T00:00:00	2024-11-06T11:00:00	4	Temperatura máxima	20.7
116051	7	Sololá	702	San José Chacayá	5	Chacayá	8	Agosto	2023-08-28T00:00:00	2024-11-06T11:00:00	3	Temperatura mínima	19.9
116052	7	Sololá	702	San José Chacayá	5	Chacayá	8	Agosto	2023-08-28T00:00:00	2024-11-06T11:00:00	5	Humedad	78
116053	7	Sololá	702	San José Chacayá	5	Chacayá	8	Agosto	2023-08-28T00:00:00	2024-11-06T11:00:00	6	Velocidad del viento	4.8
116054	7	Sololá	702	San José Chacayá	5	Chacayá	8	Agosto	2023-08-28T00:00:00	2024-11-06T11:00:00	7	Dirección del viento	2.41
116055	7	Sololá	702	San José Chacayá	5	Chacayá	8	Agosto	2023-08-28T00:00:00	2024-11-06T11:00:00	1	Precipitación	0
116056	7	Sololá	702	San José Chacayá	5	Chacayá	8	Agosto	2023-08-28T00:00:00	2024-11-06T11:00:00	8	Radiación solar	729
116057	7	Sololá	702	San José Chacayá	5	Chacayá	8	Agosto	2023-08-28T00:00:00	2024-11-06T12:00:00	2	Temperatura media	18.4
116058	7	Sololá	702	San José Chacayá	5	Chacayá	8	Agosto	2023-08-28T00:00:00	2024-11-06T12:00:00	4	Temperatura máxima	19.1
116059	7	Sololá	702	San José Chacayá	5	Chacayá	8	Agosto	2023-08-28T00:00:00	2024-11-06T12:00:00	3	Temperatura mínima	18.3
116060	7	Sololá	702	San José Chacayá	5	Chacayá	8	Agosto	2023-08-28T00:00:00	2024-11-06T12:00:00	5	Humedad	81
116061	7	Sololá	702	San José Chacayá	5	Chacayá	8	Agosto	2023-08-28T00:00:00	2024-11-06T12:00:00	6	Velocidad del viento	9.7
116062	7	Sololá	702	San José Chacayá	5	Chacayá	8	Agosto	2023-08-28T00:00:00	2024-11-06T12:00:00	7	Dirección del viento	4.83
116063	7	Sololá	702	San José Chacayá	5	Chacayá	8	Agosto	2023-08-28T00:00:00	2024-11-06T12:00:00	1	Precipitación	0
116064	7	Sololá	702	San José Chacayá	5	Chacayá	8	Agosto	2023-08-28T00:00:00	2024-11-06T12:00:00	8	Radiación solar	472
116065	7	Sololá	702	San José Chacayá	5	Chacayá	8	Agosto	2023-08-28T00:00:00	2024-11-06T13:00:00	2	Temperatura media	17.9
116066	7	Sololá	702	San José Chacayá	5	Chacayá	8	Agosto	2023-08-28T00:00:00	2024-11-06T13:00:00	4	Temperatura máxima	18.8
116067	7	Sololá	702	San José Chacayá	5	Chacayá	8	Agosto	2023-08-28T00:00:00	2024-11-06T13:00:00	3	Temperatura mínima	17.9
116068	7	Sololá	702	San José Chacayá	5	Chacayá	8	Agosto	2023-08-28T00:00:00	2024-11-06T13:00:00	5	Humedad	81
116069	7	Sololá	702	San José Chacayá	5	Chacayá	8	Agosto	2023-08-28T00:00:00	2024-11-06T13:00:00	6	Velocidad del viento	8
116070	7	Sololá	702	San José Chacayá	5	Chacayá	8	Agosto	2023-08-28T00:00:00	2024-11-06T13:00:00	7	Dirección del viento	4.02
116071	7	Sololá	702	San José Chacayá	5	Chacayá	8	Agosto	2023-08-28T00:00:00	2024-11-06T13:00:00	1	Precipitación	0
116072	7	Sololá	702	San José Chacayá	5	Chacayá	8	Agosto	2023-08-28T00:00:00	2024-11-06T13:00:00	8	Radiación solar	338
116073	7	Sololá	702	San José Chacayá	5	Chacayá	8	Agosto	2023-08-28T00:00:00	2024-11-06T14:00:00	2	Temperatura media	17.8
116074	7	Sololá	702	San José Chacayá	5	Chacayá	8	Agosto	2023-08-28T00:00:00	2024-11-06T14:00:00	4	Temperatura máxima	18.7
116075	7	Sololá	702	San José Chacayá	5	Chacayá	8	Agosto	2023-08-28T00:00:00	2024-11-06T14:00:00	3	Temperatura mínima	17.8
116076	7	Sololá	702	San José Chacayá	5	Chacayá	8	Agosto	2023-08-28T00:00:00	2024-11-06T14:00:00	5	Humedad	81
116077	7	Sololá	702	San José Chacayá	5	Chacayá	8	Agosto	2023-08-28T00:00:00	2024-11-06T14:00:00	6	Velocidad del viento	3.2
116078	7	Sololá	702	San José Chacayá	5	Chacayá	8	Agosto	2023-08-28T00:00:00	2024-11-06T14:00:00	7	Dirección del viento	1.61
116079	7	Sololá	702	San José Chacayá	5	Chacayá	8	Agosto	2023-08-28T00:00:00	2024-11-06T14:00:00	1	Precipitación	0
116080	7	Sololá	702	San José Chacayá	5	Chacayá	8	Agosto	2023-08-28T00:00:00	2024-11-06T14:00:00	8	Radiación solar	133
116081	7	Sololá	702	San José Chacayá	5	Chacayá	8	Agosto	2023-08-28T00:00:00	2024-11-06T15:00:00	2	Temperatura media	16.4
116082	7	Sololá	702	San José Chacayá	5	Chacayá	8	Agosto	2023-08-28T00:00:00	2024-11-06T15:00:00	4	Temperatura máxima	17.3
116083	7	Sololá	702	San José Chacayá	5	Chacayá	8	Agosto	2023-08-28T00:00:00	2024-11-06T15:00:00	3	Temperatura mínima	16.4
116084	7	Sololá	702	San José Chacayá	5	Chacayá	8	Agosto	2023-08-28T00:00:00	2024-11-06T15:00:00	5	Humedad	81
116085	7	Sololá	702	San José Chacayá	5	Chacayá	8	Agosto	2023-08-28T00:00:00	2024-11-06T15:00:00	6	Velocidad del viento	4.8
116086	7	Sololá	702	San José Chacayá	5	Chacayá	8	Agosto	2023-08-28T00:00:00	2024-11-06T15:00:00	7	Dirección del viento	2.41
116087	7	Sololá	702	San José Chacayá	5	Chacayá	8	Agosto	2023-08-28T00:00:00	2024-11-06T15:00:00	1	Precipitación	0
116088	7	Sololá	702	San José Chacayá	5	Chacayá	8	Agosto	2023-08-28T00:00:00	2024-11-06T15:00:00	8	Radiación solar	69
116089	7	Sololá	702	San José Chacayá	5	Chacayá	8	Agosto	2023-08-28T00:00:00	2024-11-06T16:00:00	2	Temperatura media	16.5
116090	7	Sololá	702	San José Chacayá	5	Chacayá	8	Agosto	2023-08-28T00:00:00	2024-11-06T16:00:00	4	Temperatura máxima	16.9
116091	7	Sololá	702	San José Chacayá	5	Chacayá	8	Agosto	2023-08-28T00:00:00	2024-11-06T16:00:00	3	Temperatura mínima	16.4
116092	7	Sololá	702	San José Chacayá	5	Chacayá	8	Agosto	2023-08-28T00:00:00	2024-11-06T16:00:00	5	Humedad	72
116093	7	Sololá	702	San José Chacayá	5	Chacayá	8	Agosto	2023-08-28T00:00:00	2024-11-06T16:00:00	6	Velocidad del viento	1.6
116094	7	Sololá	702	San José Chacayá	5	Chacayá	8	Agosto	2023-08-28T00:00:00	2024-11-06T16:00:00	7	Dirección del viento	0.8
116095	7	Sololá	702	San José Chacayá	5	Chacayá	8	Agosto	2023-08-28T00:00:00	2024-11-06T16:00:00	1	Precipitación	0
116096	7	Sololá	702	San José Chacayá	5	Chacayá	8	Agosto	2023-08-28T00:00:00	2024-11-06T16:00:00	8	Radiación solar	70
116097	7	Sololá	702	San José Chacayá	5	Chacayá	8	Agosto	2023-08-28T00:00:00	2024-11-06T17:00:00	2	Temperatura media	15.9
116098	7	Sololá	702	San José Chacayá	5	Chacayá	8	Agosto	2023-08-28T00:00:00	2024-11-06T17:00:00	4	Temperatura máxima	16.1
116099	7	Sololá	702	San José Chacayá	5	Chacayá	8	Agosto	2023-08-28T00:00:00	2024-11-06T17:00:00	3	Temperatura mínima	15.8
116100	7	Sololá	702	San José Chacayá	5	Chacayá	8	Agosto	2023-08-28T00:00:00	2024-11-06T17:00:00	5	Humedad	67
116101	7	Sololá	702	San José Chacayá	5	Chacayá	8	Agosto	2023-08-28T00:00:00	2024-11-06T17:00:00	6	Velocidad del viento	1.6
116102	7	Sololá	702	San José Chacayá	5	Chacayá	8	Agosto	2023-08-28T00:00:00	2024-11-06T17:00:00	7	Dirección del viento	0.8
116103	7	Sololá	702	San José Chacayá	5	Chacayá	8	Agosto	2023-08-28T00:00:00	2024-11-06T17:00:00	1	Precipitación	0.25
116104	7	Sololá	702	San José Chacayá	5	Chacayá	8	Agosto	2023-08-28T00:00:00	2024-11-06T17:00:00	8	Radiación solar	40
116105	7	Sololá	702	San José Chacayá	5	Chacayá	8	Agosto	2023-08-28T00:00:00	2024-11-06T18:00:00	2	Temperatura media	15.3
116106	7	Sololá	702	San José Chacayá	5	Chacayá	8	Agosto	2023-08-28T00:00:00	2024-11-06T18:00:00	4	Temperatura máxima	15.9
116107	7	Sololá	702	San José Chacayá	5	Chacayá	8	Agosto	2023-08-28T00:00:00	2024-11-06T18:00:00	3	Temperatura mínima	15.3
116108	7	Sololá	702	San José Chacayá	5	Chacayá	8	Agosto	2023-08-28T00:00:00	2024-11-06T18:00:00	5	Humedad	59
116109	7	Sololá	702	San José Chacayá	5	Chacayá	8	Agosto	2023-08-28T00:00:00	2024-11-06T18:00:00	6	Velocidad del viento	1.6
116110	7	Sololá	702	San José Chacayá	5	Chacayá	8	Agosto	2023-08-28T00:00:00	2024-11-06T18:00:00	7	Dirección del viento	0.8
116111	7	Sololá	702	San José Chacayá	5	Chacayá	8	Agosto	2023-08-28T00:00:00	2024-11-06T18:00:00	1	Precipitación	0
116112	7	Sololá	702	San José Chacayá	5	Chacayá	8	Agosto	2023-08-28T00:00:00	2024-11-06T18:00:00	8	Radiación solar	13
116113	7	Sololá	702	San José Chacayá	5	Chacayá	8	Agosto	2023-08-28T00:00:00	2024-11-06T19:00:00	2	Temperatura media	14.7
116114	7	Sololá	702	San José Chacayá	5	Chacayá	8	Agosto	2023-08-28T00:00:00	2024-11-06T19:00:00	4	Temperatura máxima	15.1
116115	7	Sololá	702	San José Chacayá	5	Chacayá	8	Agosto	2023-08-28T00:00:00	2024-11-06T19:00:00	3	Temperatura mínima	14.7
116116	7	Sololá	702	San José Chacayá	5	Chacayá	8	Agosto	2023-08-28T00:00:00	2024-11-06T19:00:00	5	Humedad	44
116117	7	Sololá	702	San José Chacayá	5	Chacayá	8	Agosto	2023-08-28T00:00:00	2024-11-06T19:00:00	6	Velocidad del viento	0
116118	7	Sololá	702	San José Chacayá	5	Chacayá	8	Agosto	2023-08-28T00:00:00	2024-11-06T19:00:00	7	Dirección del viento	0
116119	7	Sololá	702	San José Chacayá	5	Chacayá	8	Agosto	2023-08-28T00:00:00	2024-11-06T19:00:00	1	Precipitación	0
116120	7	Sololá	702	San José Chacayá	5	Chacayá	8	Agosto	2023-08-28T00:00:00	2024-11-06T19:00:00	8	Radiación solar	0
116121	7	Sololá	702	San José Chacayá	5	Chacayá	8	Agosto	2023-08-28T00:00:00	2024-11-06T20:00:00	2	Temperatura media	14.8
116122	7	Sololá	702	San José Chacayá	5	Chacayá	8	Agosto	2023-08-28T00:00:00	2024-11-06T20:00:00	4	Temperatura máxima	14.8
116123	7	Sololá	702	San José Chacayá	5	Chacayá	8	Agosto	2023-08-28T00:00:00	2024-11-06T20:00:00	3	Temperatura mínima	14.7
116124	7	Sololá	702	San José Chacayá	5	Chacayá	8	Agosto	2023-08-28T00:00:00	2024-11-06T20:00:00	5	Humedad	32
116125	7	Sololá	702	San José Chacayá	5	Chacayá	8	Agosto	2023-08-28T00:00:00	2024-11-06T20:00:00	6	Velocidad del viento	0
116126	7	Sololá	702	San José Chacayá	5	Chacayá	8	Agosto	2023-08-28T00:00:00	2024-11-06T20:00:00	7	Dirección del viento	0
116127	7	Sololá	702	San José Chacayá	5	Chacayá	8	Agosto	2023-08-28T00:00:00	2024-11-06T20:00:00	1	Precipitación	0
116128	7	Sololá	702	San José Chacayá	5	Chacayá	8	Agosto	2023-08-28T00:00:00	2024-11-06T20:00:00	8	Radiación solar	0
116129	7	Sololá	702	San José Chacayá	5	Chacayá	8	Agosto	2023-08-28T00:00:00	2024-11-06T21:00:00	2	Temperatura media	14.6
116130	7	Sololá	702	San José Chacayá	5	Chacayá	8	Agosto	2023-08-28T00:00:00	2024-11-06T21:00:00	4	Temperatura máxima	14.7
116131	7	Sololá	702	San José Chacayá	5	Chacayá	8	Agosto	2023-08-28T00:00:00	2024-11-06T21:00:00	3	Temperatura mínima	14.6
116132	7	Sololá	702	San José Chacayá	5	Chacayá	8	Agosto	2023-08-28T00:00:00	2024-11-06T21:00:00	5	Humedad	30
116133	7	Sololá	702	San José Chacayá	5	Chacayá	8	Agosto	2023-08-28T00:00:00	2024-11-06T21:00:00	6	Velocidad del viento	0
116134	7	Sololá	702	San José Chacayá	5	Chacayá	8	Agosto	2023-08-28T00:00:00	2024-11-06T21:00:00	7	Dirección del viento	0
116135	7	Sololá	702	San José Chacayá	5	Chacayá	8	Agosto	2023-08-28T00:00:00	2024-11-06T21:00:00	1	Precipitación	1.27
116136	7	Sololá	702	San José Chacayá	5	Chacayá	8	Agosto	2023-08-28T00:00:00	2024-11-06T21:00:00	8	Radiación solar	0
116137	7	Sololá	702	San José Chacayá	5	Chacayá	8	Agosto	2023-08-28T00:00:00	2024-11-06T22:00:00	2	Temperatura media	14.4
116138	7	Sololá	702	San José Chacayá	5	Chacayá	8	Agosto	2023-08-28T00:00:00	2024-11-06T22:00:00	4	Temperatura máxima	14.4
116139	7	Sololá	702	San José Chacayá	5	Chacayá	8	Agosto	2023-08-28T00:00:00	2024-11-06T22:00:00	3	Temperatura mínima	14.4
116140	7	Sololá	702	San José Chacayá	5	Chacayá	8	Agosto	2023-08-28T00:00:00	2024-11-06T22:00:00	5	Humedad	26
116141	7	Sololá	702	San José Chacayá	5	Chacayá	8	Agosto	2023-08-28T00:00:00	2024-11-06T22:00:00	6	Velocidad del viento	0
116142	7	Sololá	702	San José Chacayá	5	Chacayá	8	Agosto	2023-08-28T00:00:00	2024-11-06T22:00:00	7	Dirección del viento	0
116143	7	Sololá	702	San José Chacayá	5	Chacayá	8	Agosto	2023-08-28T00:00:00	2024-11-06T22:00:00	1	Precipitación	0
116144	7	Sololá	702	San José Chacayá	5	Chacayá	8	Agosto	2023-08-28T00:00:00	2024-11-06T22:00:00	8	Radiación solar	0
116145	7	Sololá	702	San José Chacayá	5	Chacayá	8	Agosto	2023-08-28T00:00:00	2024-11-06T23:00:00	2	Temperatura media	14.3
116146	7	Sololá	702	San José Chacayá	5	Chacayá	8	Agosto	2023-08-28T00:00:00	2024-11-06T23:00:00	4	Temperatura máxima	14.4
116147	7	Sololá	702	San José Chacayá	5	Chacayá	8	Agosto	2023-08-28T00:00:00	2024-11-06T23:00:00	3	Temperatura mínima	14.3
116148	7	Sololá	702	San José Chacayá	5	Chacayá	8	Agosto	2023-08-28T00:00:00	2024-11-06T23:00:00	5	Humedad	25
116149	7	Sololá	702	San José Chacayá	5	Chacayá	8	Agosto	2023-08-28T00:00:00	2024-11-06T23:00:00	6	Velocidad del viento	0
116150	7	Sololá	702	San José Chacayá	5	Chacayá	8	Agosto	2023-08-28T00:00:00	2024-11-06T23:00:00	7	Dirección del viento	0
116151	7	Sololá	702	San José Chacayá	5	Chacayá	8	Agosto	2023-08-28T00:00:00	2024-11-06T23:00:00	1	Precipitación	1.78
116152	7	Sololá	702	San José Chacayá	5	Chacayá	8	Agosto	2023-08-28T00:00:00	2024-11-06T23:00:00	8	Radiación solar	0
116153	7	Sololá	702	San José Chacayá	5	Chacayá	8	Agosto	2023-08-29T00:00:00	2024-11-06T00:00:00	2	Temperatura media	14.2
116154	7	Sololá	702	San José Chacayá	5	Chacayá	8	Agosto	2023-08-29T00:00:00	2024-11-06T00:00:00	4	Temperatura máxima	14.2
116155	7	Sololá	702	San José Chacayá	5	Chacayá	8	Agosto	2023-08-29T00:00:00	2024-11-06T00:00:00	3	Temperatura mínima	14.1
116156	7	Sololá	702	San José Chacayá	5	Chacayá	8	Agosto	2023-08-29T00:00:00	2024-11-06T00:00:00	5	Humedad	30
116157	7	Sololá	702	San José Chacayá	5	Chacayá	8	Agosto	2023-08-29T00:00:00	2024-11-06T00:00:00	6	Velocidad del viento	0
116158	7	Sololá	702	San José Chacayá	5	Chacayá	8	Agosto	2023-08-29T00:00:00	2024-11-06T00:00:00	7	Dirección del viento	0
116159	7	Sololá	702	San José Chacayá	5	Chacayá	8	Agosto	2023-08-29T00:00:00	2024-11-06T00:00:00	1	Precipitación	0
116160	7	Sololá	702	San José Chacayá	5	Chacayá	8	Agosto	2023-08-29T00:00:00	2024-11-06T00:00:00	8	Radiación solar	0
116161	7	Sololá	702	San José Chacayá	5	Chacayá	8	Agosto	2023-08-29T00:00:00	2024-11-06T01:00:00	2	Temperatura media	14.1
116162	7	Sololá	702	San José Chacayá	5	Chacayá	8	Agosto	2023-08-29T00:00:00	2024-11-06T01:00:00	4	Temperatura máxima	14.1
116163	7	Sololá	702	San José Chacayá	5	Chacayá	8	Agosto	2023-08-29T00:00:00	2024-11-06T01:00:00	3	Temperatura mínima	13.9
116164	7	Sololá	702	San José Chacayá	5	Chacayá	8	Agosto	2023-08-29T00:00:00	2024-11-06T01:00:00	5	Humedad	27
116165	7	Sololá	702	San José Chacayá	5	Chacayá	8	Agosto	2023-08-29T00:00:00	2024-11-06T01:00:00	6	Velocidad del viento	1.6
116166	7	Sololá	702	San José Chacayá	5	Chacayá	8	Agosto	2023-08-29T00:00:00	2024-11-06T01:00:00	7	Dirección del viento	0.8
116167	7	Sololá	702	San José Chacayá	5	Chacayá	8	Agosto	2023-08-29T00:00:00	2024-11-06T01:00:00	1	Precipitación	0
116168	7	Sololá	702	San José Chacayá	5	Chacayá	8	Agosto	2023-08-29T00:00:00	2024-11-06T01:00:00	8	Radiación solar	0
116169	7	Sololá	702	San José Chacayá	5	Chacayá	8	Agosto	2023-08-29T00:00:00	2024-11-06T02:00:00	2	Temperatura media	13.9
116170	7	Sololá	702	San José Chacayá	5	Chacayá	8	Agosto	2023-08-29T00:00:00	2024-11-06T02:00:00	4	Temperatura máxima	14
116171	7	Sololá	702	San José Chacayá	5	Chacayá	8	Agosto	2023-08-29T00:00:00	2024-11-06T02:00:00	3	Temperatura mínima	13.9
116172	7	Sololá	702	San José Chacayá	5	Chacayá	8	Agosto	2023-08-29T00:00:00	2024-11-06T02:00:00	5	Humedad	44
116173	7	Sololá	702	San José Chacayá	5	Chacayá	8	Agosto	2023-08-29T00:00:00	2024-11-06T02:00:00	6	Velocidad del viento	3.2
116174	7	Sololá	702	San José Chacayá	5	Chacayá	8	Agosto	2023-08-29T00:00:00	2024-11-06T02:00:00	7	Dirección del viento	1.61
116175	7	Sololá	702	San José Chacayá	5	Chacayá	8	Agosto	2023-08-29T00:00:00	2024-11-06T02:00:00	1	Precipitación	0
116176	7	Sololá	702	San José Chacayá	5	Chacayá	8	Agosto	2023-08-29T00:00:00	2024-11-06T02:00:00	8	Radiación solar	0
116177	7	Sololá	702	San José Chacayá	5	Chacayá	8	Agosto	2023-08-29T00:00:00	2024-11-06T03:00:00	2	Temperatura media	13.7
116178	7	Sololá	702	San José Chacayá	5	Chacayá	8	Agosto	2023-08-29T00:00:00	2024-11-06T03:00:00	4	Temperatura máxima	13.8
116179	7	Sololá	702	San José Chacayá	5	Chacayá	8	Agosto	2023-08-29T00:00:00	2024-11-06T03:00:00	3	Temperatura mínima	13.7
116180	7	Sololá	702	San José Chacayá	5	Chacayá	8	Agosto	2023-08-29T00:00:00	2024-11-06T03:00:00	5	Humedad	57
116181	7	Sololá	702	San José Chacayá	5	Chacayá	8	Agosto	2023-08-29T00:00:00	2024-11-06T03:00:00	6	Velocidad del viento	3.2
116182	7	Sololá	702	San José Chacayá	5	Chacayá	8	Agosto	2023-08-29T00:00:00	2024-11-06T03:00:00	7	Dirección del viento	1.61
116183	7	Sololá	702	San José Chacayá	5	Chacayá	8	Agosto	2023-08-29T00:00:00	2024-11-06T03:00:00	1	Precipitación	0
116184	7	Sololá	702	San José Chacayá	5	Chacayá	8	Agosto	2023-08-29T00:00:00	2024-11-06T03:00:00	8	Radiación solar	0
116185	7	Sololá	702	San José Chacayá	5	Chacayá	8	Agosto	2023-08-29T00:00:00	2024-11-06T04:00:00	2	Temperatura media	13.2
116186	7	Sololá	702	San José Chacayá	5	Chacayá	8	Agosto	2023-08-29T00:00:00	2024-11-06T04:00:00	4	Temperatura máxima	13.4
116187	7	Sololá	702	San José Chacayá	5	Chacayá	8	Agosto	2023-08-29T00:00:00	2024-11-06T04:00:00	3	Temperatura mínima	13.2
116188	7	Sololá	702	San José Chacayá	5	Chacayá	8	Agosto	2023-08-29T00:00:00	2024-11-06T04:00:00	5	Humedad	56
116189	7	Sololá	702	San José Chacayá	5	Chacayá	8	Agosto	2023-08-29T00:00:00	2024-11-06T04:00:00	6	Velocidad del viento	1.6
116190	7	Sololá	702	San José Chacayá	5	Chacayá	8	Agosto	2023-08-29T00:00:00	2024-11-06T04:00:00	7	Dirección del viento	0.8
116191	7	Sololá	702	San José Chacayá	5	Chacayá	8	Agosto	2023-08-29T00:00:00	2024-11-06T04:00:00	1	Precipitación	0
116192	7	Sololá	702	San José Chacayá	5	Chacayá	8	Agosto	2023-08-29T00:00:00	2024-11-06T04:00:00	8	Radiación solar	0
116193	7	Sololá	702	San José Chacayá	5	Chacayá	8	Agosto	2023-08-29T00:00:00	2024-11-06T05:00:00	2	Temperatura media	12.8
116194	7	Sololá	702	San José Chacayá	5	Chacayá	8	Agosto	2023-08-29T00:00:00	2024-11-06T05:00:00	4	Temperatura máxima	12.9
116195	7	Sololá	702	San José Chacayá	5	Chacayá	8	Agosto	2023-08-29T00:00:00	2024-11-06T05:00:00	3	Temperatura mínima	12.8
116196	7	Sololá	702	San José Chacayá	5	Chacayá	8	Agosto	2023-08-29T00:00:00	2024-11-06T05:00:00	5	Humedad	55
116197	7	Sololá	702	San José Chacayá	5	Chacayá	8	Agosto	2023-08-29T00:00:00	2024-11-06T05:00:00	6	Velocidad del viento	1.6
116198	7	Sololá	702	San José Chacayá	5	Chacayá	8	Agosto	2023-08-29T00:00:00	2024-11-06T05:00:00	7	Dirección del viento	0.8
116199	7	Sololá	702	San José Chacayá	5	Chacayá	8	Agosto	2023-08-29T00:00:00	2024-11-06T05:00:00	1	Precipitación	0
116200	7	Sololá	702	San José Chacayá	5	Chacayá	8	Agosto	2023-08-29T00:00:00	2024-11-06T05:00:00	8	Radiación solar	0
116201	7	Sololá	702	San José Chacayá	5	Chacayá	8	Agosto	2023-08-29T00:00:00	2024-11-06T06:00:00	2	Temperatura media	12.3
116202	7	Sololá	702	San José Chacayá	5	Chacayá	8	Agosto	2023-08-29T00:00:00	2024-11-06T06:00:00	4	Temperatura máxima	12.6
116203	7	Sololá	702	San José Chacayá	5	Chacayá	8	Agosto	2023-08-29T00:00:00	2024-11-06T06:00:00	3	Temperatura mínima	12.3
116204	7	Sololá	702	San José Chacayá	5	Chacayá	8	Agosto	2023-08-29T00:00:00	2024-11-06T06:00:00	5	Humedad	59
116205	7	Sololá	702	San José Chacayá	5	Chacayá	8	Agosto	2023-08-29T00:00:00	2024-11-06T06:00:00	6	Velocidad del viento	1.6
116206	7	Sololá	702	San José Chacayá	5	Chacayá	8	Agosto	2023-08-29T00:00:00	2024-11-06T06:00:00	7	Dirección del viento	0.8
116207	7	Sololá	702	San José Chacayá	5	Chacayá	8	Agosto	2023-08-29T00:00:00	2024-11-06T06:00:00	1	Precipitación	0
116208	7	Sololá	702	San José Chacayá	5	Chacayá	8	Agosto	2023-08-29T00:00:00	2024-11-06T06:00:00	8	Radiación solar	1
116209	7	Sololá	702	San José Chacayá	5	Chacayá	8	Agosto	2023-08-29T00:00:00	2024-11-06T07:00:00	2	Temperatura media	12.8
116210	7	Sololá	702	San José Chacayá	5	Chacayá	8	Agosto	2023-08-29T00:00:00	2024-11-06T07:00:00	4	Temperatura máxima	12.8
116211	7	Sololá	702	San José Chacayá	5	Chacayá	8	Agosto	2023-08-29T00:00:00	2024-11-06T07:00:00	3	Temperatura mínima	12.3
116212	7	Sololá	702	San José Chacayá	5	Chacayá	8	Agosto	2023-08-29T00:00:00	2024-11-06T07:00:00	5	Humedad	48
116213	7	Sololá	702	San José Chacayá	5	Chacayá	8	Agosto	2023-08-29T00:00:00	2024-11-06T07:00:00	6	Velocidad del viento	0
116214	7	Sololá	702	San José Chacayá	5	Chacayá	8	Agosto	2023-08-29T00:00:00	2024-11-06T07:00:00	7	Dirección del viento	0
116215	7	Sololá	702	San José Chacayá	5	Chacayá	8	Agosto	2023-08-29T00:00:00	2024-11-06T07:00:00	1	Precipitación	0
116216	7	Sololá	702	San José Chacayá	5	Chacayá	8	Agosto	2023-08-29T00:00:00	2024-11-06T07:00:00	8	Radiación solar	56
116217	7	Sololá	702	San José Chacayá	5	Chacayá	8	Agosto	2023-08-29T00:00:00	2024-11-06T08:00:00	2	Temperatura media	14.6
116218	7	Sololá	702	San José Chacayá	5	Chacayá	8	Agosto	2023-08-29T00:00:00	2024-11-06T08:00:00	4	Temperatura máxima	14.6
116219	7	Sololá	702	San José Chacayá	5	Chacayá	8	Agosto	2023-08-29T00:00:00	2024-11-06T08:00:00	3	Temperatura mínima	13.6
116220	7	Sololá	702	San José Chacayá	5	Chacayá	8	Agosto	2023-08-29T00:00:00	2024-11-06T08:00:00	5	Humedad	52
116221	7	Sololá	702	San José Chacayá	5	Chacayá	8	Agosto	2023-08-29T00:00:00	2024-11-06T08:00:00	6	Velocidad del viento	0
116222	7	Sololá	702	San José Chacayá	5	Chacayá	8	Agosto	2023-08-29T00:00:00	2024-11-06T08:00:00	7	Dirección del viento	0
116223	7	Sololá	702	San José Chacayá	5	Chacayá	8	Agosto	2023-08-29T00:00:00	2024-11-06T08:00:00	1	Precipitación	0
116224	7	Sololá	702	San José Chacayá	5	Chacayá	8	Agosto	2023-08-29T00:00:00	2024-11-06T08:00:00	8	Radiación solar	129
116225	7	Sololá	702	San José Chacayá	5	Chacayá	8	Agosto	2023-08-29T00:00:00	2024-11-06T09:00:00	2	Temperatura media	17.7
116226	7	Sololá	702	San José Chacayá	5	Chacayá	8	Agosto	2023-08-29T00:00:00	2024-11-06T09:00:00	4	Temperatura máxima	17.7
116227	7	Sololá	702	San José Chacayá	5	Chacayá	8	Agosto	2023-08-29T00:00:00	2024-11-06T09:00:00	3	Temperatura mínima	16.2
116228	7	Sololá	702	San José Chacayá	5	Chacayá	8	Agosto	2023-08-29T00:00:00	2024-11-06T09:00:00	5	Humedad	81
116229	7	Sololá	702	San José Chacayá	5	Chacayá	8	Agosto	2023-08-29T00:00:00	2024-11-06T09:00:00	6	Velocidad del viento	1.6
116230	7	Sololá	702	San José Chacayá	5	Chacayá	8	Agosto	2023-08-29T00:00:00	2024-11-06T09:00:00	7	Dirección del viento	0.8
116231	7	Sololá	702	San José Chacayá	5	Chacayá	8	Agosto	2023-08-29T00:00:00	2024-11-06T09:00:00	1	Precipitación	0
116232	7	Sololá	702	San José Chacayá	5	Chacayá	8	Agosto	2023-08-29T00:00:00	2024-11-06T09:00:00	8	Radiación solar	386
116233	7	Sololá	702	San José Chacayá	5	Chacayá	8	Agosto	2023-08-29T00:00:00	2024-11-06T10:00:00	2	Temperatura media	20.3
116234	7	Sololá	702	San José Chacayá	5	Chacayá	8	Agosto	2023-08-29T00:00:00	2024-11-06T10:00:00	4	Temperatura máxima	20.3
116235	7	Sololá	702	San José Chacayá	5	Chacayá	8	Agosto	2023-08-29T00:00:00	2024-11-06T10:00:00	3	Temperatura mínima	18.7
116236	7	Sololá	702	San José Chacayá	5	Chacayá	8	Agosto	2023-08-29T00:00:00	2024-11-06T10:00:00	5	Humedad	75
116237	7	Sololá	702	San José Chacayá	5	Chacayá	8	Agosto	2023-08-29T00:00:00	2024-11-06T10:00:00	6	Velocidad del viento	4.8
116238	7	Sololá	702	San José Chacayá	5	Chacayá	8	Agosto	2023-08-29T00:00:00	2024-11-06T10:00:00	7	Dirección del viento	2.41
116239	7	Sololá	702	San José Chacayá	5	Chacayá	8	Agosto	2023-08-29T00:00:00	2024-11-06T10:00:00	1	Precipitación	0
116240	7	Sololá	702	San José Chacayá	5	Chacayá	8	Agosto	2023-08-29T00:00:00	2024-11-06T10:00:00	8	Radiación solar	831
116241	7	Sololá	702	San José Chacayá	5	Chacayá	8	Agosto	2023-08-29T00:00:00	2024-11-06T11:00:00	2	Temperatura media	20.8
116242	7	Sololá	702	San José Chacayá	5	Chacayá	8	Agosto	2023-08-29T00:00:00	2024-11-06T11:00:00	4	Temperatura máxima	21.8
116243	7	Sololá	702	San José Chacayá	5	Chacayá	8	Agosto	2023-08-29T00:00:00	2024-11-06T11:00:00	3	Temperatura mínima	20.8
116244	7	Sololá	702	San José Chacayá	5	Chacayá	8	Agosto	2023-08-29T00:00:00	2024-11-06T11:00:00	5	Humedad	71
116245	7	Sololá	702	San José Chacayá	5	Chacayá	8	Agosto	2023-08-29T00:00:00	2024-11-06T11:00:00	6	Velocidad del viento	4.8
116246	7	Sololá	702	San José Chacayá	5	Chacayá	8	Agosto	2023-08-29T00:00:00	2024-11-06T11:00:00	7	Dirección del viento	2.41
116247	7	Sololá	702	San José Chacayá	5	Chacayá	8	Agosto	2023-08-29T00:00:00	2024-11-06T11:00:00	1	Precipitación	0
116248	7	Sololá	702	San José Chacayá	5	Chacayá	8	Agosto	2023-08-29T00:00:00	2024-11-06T11:00:00	8	Radiación solar	804
116249	7	Sololá	702	San José Chacayá	5	Chacayá	8	Agosto	2023-08-29T00:00:00	2024-11-06T12:00:00	2	Temperatura media	20.1
116250	7	Sololá	702	San José Chacayá	5	Chacayá	8	Agosto	2023-08-29T00:00:00	2024-11-06T12:00:00	4	Temperatura máxima	21.1
116251	7	Sololá	702	San José Chacayá	5	Chacayá	8	Agosto	2023-08-29T00:00:00	2024-11-06T12:00:00	3	Temperatura mínima	19.3
116252	7	Sololá	702	San José Chacayá	5	Chacayá	8	Agosto	2023-08-29T00:00:00	2024-11-06T12:00:00	5	Humedad	74
116253	7	Sololá	702	San José Chacayá	5	Chacayá	8	Agosto	2023-08-29T00:00:00	2024-11-06T12:00:00	6	Velocidad del viento	6.4
116254	7	Sololá	702	San José Chacayá	5	Chacayá	8	Agosto	2023-08-29T00:00:00	2024-11-06T12:00:00	7	Dirección del viento	3.22
116255	7	Sololá	702	San José Chacayá	5	Chacayá	8	Agosto	2023-08-29T00:00:00	2024-11-06T12:00:00	1	Precipitación	0
116256	7	Sololá	702	San José Chacayá	5	Chacayá	8	Agosto	2023-08-29T00:00:00	2024-11-06T12:00:00	8	Radiación solar	585
116257	7	Sololá	702	San José Chacayá	5	Chacayá	8	Agosto	2023-08-29T00:00:00	2024-11-06T13:00:00	2	Temperatura media	17.4
116258	7	Sololá	702	San José Chacayá	5	Chacayá	8	Agosto	2023-08-29T00:00:00	2024-11-06T13:00:00	4	Temperatura máxima	17.6
116259	7	Sololá	702	San José Chacayá	5	Chacayá	8	Agosto	2023-08-29T00:00:00	2024-11-06T13:00:00	3	Temperatura mínima	17.2
116260	7	Sololá	702	San José Chacayá	5	Chacayá	8	Agosto	2023-08-29T00:00:00	2024-11-06T13:00:00	5	Humedad	81
116261	7	Sololá	702	San José Chacayá	5	Chacayá	8	Agosto	2023-08-29T00:00:00	2024-11-06T13:00:00	6	Velocidad del viento	4.8
116262	7	Sololá	702	San José Chacayá	5	Chacayá	8	Agosto	2023-08-29T00:00:00	2024-11-06T13:00:00	7	Dirección del viento	2.41
116263	7	Sololá	702	San José Chacayá	5	Chacayá	8	Agosto	2023-08-29T00:00:00	2024-11-06T13:00:00	1	Precipitación	0
116264	7	Sololá	702	San José Chacayá	5	Chacayá	8	Agosto	2023-08-29T00:00:00	2024-11-06T13:00:00	8	Radiación solar	104
116265	7	Sololá	702	San José Chacayá	5	Chacayá	8	Agosto	2023-08-29T00:00:00	2024-11-06T14:00:00	2	Temperatura media	17.8
116266	7	Sololá	702	San José Chacayá	5	Chacayá	8	Agosto	2023-08-29T00:00:00	2024-11-06T14:00:00	4	Temperatura máxima	18.2
116267	7	Sololá	702	San José Chacayá	5	Chacayá	8	Agosto	2023-08-29T00:00:00	2024-11-06T14:00:00	3	Temperatura mínima	17.8
116268	7	Sololá	702	San José Chacayá	5	Chacayá	8	Agosto	2023-08-29T00:00:00	2024-11-06T14:00:00	5	Humedad	81
116269	7	Sololá	702	San José Chacayá	5	Chacayá	8	Agosto	2023-08-29T00:00:00	2024-11-06T14:00:00	6	Velocidad del viento	3.2
116270	7	Sololá	702	San José Chacayá	5	Chacayá	8	Agosto	2023-08-29T00:00:00	2024-11-06T14:00:00	7	Dirección del viento	1.61
116271	7	Sololá	702	San José Chacayá	5	Chacayá	8	Agosto	2023-08-29T00:00:00	2024-11-06T14:00:00	1	Precipitación	0
116272	7	Sololá	702	San José Chacayá	5	Chacayá	8	Agosto	2023-08-29T00:00:00	2024-11-06T14:00:00	8	Radiación solar	177
116273	7	Sololá	702	San José Chacayá	5	Chacayá	8	Agosto	2023-08-29T00:00:00	2024-11-06T15:00:00	2	Temperatura media	17.4
116274	7	Sololá	702	San José Chacayá	5	Chacayá	8	Agosto	2023-08-29T00:00:00	2024-11-06T15:00:00	4	Temperatura máxima	17.7
116275	7	Sololá	702	San José Chacayá	5	Chacayá	8	Agosto	2023-08-29T00:00:00	2024-11-06T15:00:00	3	Temperatura mínima	17.4
116276	7	Sololá	702	San José Chacayá	5	Chacayá	8	Agosto	2023-08-29T00:00:00	2024-11-06T15:00:00	5	Humedad	79
116277	7	Sololá	702	San José Chacayá	5	Chacayá	8	Agosto	2023-08-29T00:00:00	2024-11-06T15:00:00	6	Velocidad del viento	1.6
116278	7	Sololá	702	San José Chacayá	5	Chacayá	8	Agosto	2023-08-29T00:00:00	2024-11-06T15:00:00	7	Dirección del viento	0.8
116279	7	Sololá	702	San José Chacayá	5	Chacayá	8	Agosto	2023-08-29T00:00:00	2024-11-06T15:00:00	1	Precipitación	0
116280	7	Sololá	702	San José Chacayá	5	Chacayá	8	Agosto	2023-08-29T00:00:00	2024-11-06T15:00:00	8	Radiación solar	102
116281	7	Sololá	702	San José Chacayá	5	Chacayá	8	Agosto	2023-08-29T00:00:00	2024-11-06T16:00:00	2	Temperatura media	17.3
116282	7	Sololá	702	San José Chacayá	5	Chacayá	8	Agosto	2023-08-29T00:00:00	2024-11-06T16:00:00	4	Temperatura máxima	17.7
116283	7	Sololá	702	San José Chacayá	5	Chacayá	8	Agosto	2023-08-29T00:00:00	2024-11-06T16:00:00	3	Temperatura mínima	17.3
116284	7	Sololá	702	San José Chacayá	5	Chacayá	8	Agosto	2023-08-29T00:00:00	2024-11-06T16:00:00	5	Humedad	78
116285	7	Sololá	702	San José Chacayá	5	Chacayá	8	Agosto	2023-08-29T00:00:00	2024-11-06T16:00:00	6	Velocidad del viento	0
116286	7	Sololá	702	San José Chacayá	5	Chacayá	8	Agosto	2023-08-29T00:00:00	2024-11-06T16:00:00	7	Dirección del viento	0
116287	7	Sololá	702	San José Chacayá	5	Chacayá	8	Agosto	2023-08-29T00:00:00	2024-11-06T16:00:00	1	Precipitación	0
116288	7	Sololá	702	San José Chacayá	5	Chacayá	8	Agosto	2023-08-29T00:00:00	2024-11-06T16:00:00	8	Radiación solar	70
116289	7	Sololá	702	San José Chacayá	5	Chacayá	8	Agosto	2023-08-29T00:00:00	2024-11-06T17:00:00	2	Temperatura media	16.7
116290	7	Sololá	702	San José Chacayá	5	Chacayá	8	Agosto	2023-08-29T00:00:00	2024-11-06T17:00:00	4	Temperatura máxima	16.9
116291	7	Sololá	702	San José Chacayá	5	Chacayá	8	Agosto	2023-08-29T00:00:00	2024-11-06T17:00:00	3	Temperatura mínima	16.6
116292	7	Sololá	702	San José Chacayá	5	Chacayá	8	Agosto	2023-08-29T00:00:00	2024-11-06T17:00:00	5	Humedad	67
116293	7	Sololá	702	San José Chacayá	5	Chacayá	8	Agosto	2023-08-29T00:00:00	2024-11-06T17:00:00	6	Velocidad del viento	0
116294	7	Sololá	702	San José Chacayá	5	Chacayá	8	Agosto	2023-08-29T00:00:00	2024-11-06T17:00:00	7	Dirección del viento	0
116295	7	Sololá	702	San José Chacayá	5	Chacayá	8	Agosto	2023-08-29T00:00:00	2024-11-06T17:00:00	1	Precipitación	0
116296	7	Sololá	702	San José Chacayá	5	Chacayá	8	Agosto	2023-08-29T00:00:00	2024-11-06T17:00:00	8	Radiación solar	25
116297	7	Sololá	702	San José Chacayá	5	Chacayá	8	Agosto	2023-08-29T00:00:00	2024-11-06T18:00:00	2	Temperatura media	16.6
116298	7	Sololá	702	San José Chacayá	5	Chacayá	8	Agosto	2023-08-29T00:00:00	2024-11-06T18:00:00	4	Temperatura máxima	16.6
116299	7	Sololá	702	San José Chacayá	5	Chacayá	8	Agosto	2023-08-29T00:00:00	2024-11-06T18:00:00	3	Temperatura mínima	16.4
116300	7	Sololá	702	San José Chacayá	5	Chacayá	8	Agosto	2023-08-29T00:00:00	2024-11-06T18:00:00	5	Humedad	52
116301	7	Sololá	702	San José Chacayá	5	Chacayá	8	Agosto	2023-08-29T00:00:00	2024-11-06T18:00:00	6	Velocidad del viento	0
116302	7	Sololá	702	San José Chacayá	5	Chacayá	8	Agosto	2023-08-29T00:00:00	2024-11-06T18:00:00	7	Dirección del viento	0
116303	7	Sololá	702	San José Chacayá	5	Chacayá	8	Agosto	2023-08-29T00:00:00	2024-11-06T18:00:00	1	Precipitación	0
116304	7	Sololá	702	San José Chacayá	5	Chacayá	8	Agosto	2023-08-29T00:00:00	2024-11-06T18:00:00	8	Radiación solar	5
116305	7	Sololá	702	San José Chacayá	5	Chacayá	8	Agosto	2023-08-29T00:00:00	2024-11-06T19:00:00	2	Temperatura media	16
116306	7	Sololá	702	San José Chacayá	5	Chacayá	8	Agosto	2023-08-29T00:00:00	2024-11-06T19:00:00	4	Temperatura máxima	16.3
116307	7	Sololá	702	San José Chacayá	5	Chacayá	8	Agosto	2023-08-29T00:00:00	2024-11-06T19:00:00	3	Temperatura mínima	16
116308	7	Sololá	702	San José Chacayá	5	Chacayá	8	Agosto	2023-08-29T00:00:00	2024-11-06T19:00:00	5	Humedad	44
116309	7	Sololá	702	San José Chacayá	5	Chacayá	8	Agosto	2023-08-29T00:00:00	2024-11-06T19:00:00	6	Velocidad del viento	1.6
116310	7	Sololá	702	San José Chacayá	5	Chacayá	8	Agosto	2023-08-29T00:00:00	2024-11-06T19:00:00	7	Dirección del viento	0.8
116311	7	Sololá	702	San José Chacayá	5	Chacayá	8	Agosto	2023-08-29T00:00:00	2024-11-06T19:00:00	1	Precipitación	0
116312	7	Sololá	702	San José Chacayá	5	Chacayá	8	Agosto	2023-08-29T00:00:00	2024-11-06T19:00:00	8	Radiación solar	0
116313	7	Sololá	702	San José Chacayá	5	Chacayá	8	Agosto	2023-08-29T00:00:00	2024-11-06T20:00:00	2	Temperatura media	15.4
116314	7	Sololá	702	San José Chacayá	5	Chacayá	8	Agosto	2023-08-29T00:00:00	2024-11-06T20:00:00	4	Temperatura máxima	15.9
116315	7	Sololá	702	San José Chacayá	5	Chacayá	8	Agosto	2023-08-29T00:00:00	2024-11-06T20:00:00	3	Temperatura mínima	15.4
116316	7	Sololá	702	San José Chacayá	5	Chacayá	8	Agosto	2023-08-29T00:00:00	2024-11-06T20:00:00	5	Humedad	32
116317	7	Sololá	702	San José Chacayá	5	Chacayá	8	Agosto	2023-08-29T00:00:00	2024-11-06T20:00:00	6	Velocidad del viento	0
116318	7	Sololá	702	San José Chacayá	5	Chacayá	8	Agosto	2023-08-29T00:00:00	2024-11-06T20:00:00	7	Dirección del viento	0
116319	7	Sololá	702	San José Chacayá	5	Chacayá	8	Agosto	2023-08-29T00:00:00	2024-11-06T20:00:00	1	Precipitación	2.54
116320	7	Sololá	702	San José Chacayá	5	Chacayá	8	Agosto	2023-08-29T00:00:00	2024-11-06T20:00:00	8	Radiación solar	0
116321	7	Sololá	702	San José Chacayá	5	Chacayá	8	Agosto	2023-08-29T00:00:00	2024-11-06T21:00:00	2	Temperatura media	15.1
116322	7	Sololá	702	San José Chacayá	5	Chacayá	8	Agosto	2023-08-29T00:00:00	2024-11-06T21:00:00	4	Temperatura máxima	15.2
116323	7	Sololá	702	San José Chacayá	5	Chacayá	8	Agosto	2023-08-29T00:00:00	2024-11-06T21:00:00	3	Temperatura mínima	15.1
116324	7	Sololá	702	San José Chacayá	5	Chacayá	8	Agosto	2023-08-29T00:00:00	2024-11-06T21:00:00	5	Humedad	23
116325	7	Sololá	702	San José Chacayá	5	Chacayá	8	Agosto	2023-08-29T00:00:00	2024-11-06T21:00:00	6	Velocidad del viento	0
116326	7	Sololá	702	San José Chacayá	5	Chacayá	8	Agosto	2023-08-29T00:00:00	2024-11-06T21:00:00	7	Dirección del viento	0
116327	7	Sololá	702	San José Chacayá	5	Chacayá	8	Agosto	2023-08-29T00:00:00	2024-11-06T21:00:00	1	Precipitación	1.52
116328	7	Sololá	702	San José Chacayá	5	Chacayá	8	Agosto	2023-08-29T00:00:00	2024-11-06T21:00:00	8	Radiación solar	0
116329	7	Sololá	702	San José Chacayá	5	Chacayá	8	Agosto	2023-08-29T00:00:00	2024-11-06T22:00:00	2	Temperatura media	15.1
116330	7	Sololá	702	San José Chacayá	5	Chacayá	8	Agosto	2023-08-29T00:00:00	2024-11-06T22:00:00	4	Temperatura máxima	15.1
116331	7	Sololá	702	San José Chacayá	5	Chacayá	8	Agosto	2023-08-29T00:00:00	2024-11-06T22:00:00	3	Temperatura mínima	15
116332	7	Sololá	702	San José Chacayá	5	Chacayá	8	Agosto	2023-08-29T00:00:00	2024-11-06T22:00:00	5	Humedad	20
116333	7	Sololá	702	San José Chacayá	5	Chacayá	8	Agosto	2023-08-29T00:00:00	2024-11-06T22:00:00	6	Velocidad del viento	1.6
116334	7	Sololá	702	San José Chacayá	5	Chacayá	8	Agosto	2023-08-29T00:00:00	2024-11-06T22:00:00	7	Dirección del viento	0.8
116335	7	Sololá	702	San José Chacayá	5	Chacayá	8	Agosto	2023-08-29T00:00:00	2024-11-06T22:00:00	1	Precipitación	0.76
116336	7	Sololá	702	San José Chacayá	5	Chacayá	8	Agosto	2023-08-29T00:00:00	2024-11-06T22:00:00	8	Radiación solar	0
116337	7	Sololá	702	San José Chacayá	5	Chacayá	8	Agosto	2023-08-29T00:00:00	2024-11-06T23:00:00	2	Temperatura media	14.9
116338	7	Sololá	702	San José Chacayá	5	Chacayá	8	Agosto	2023-08-29T00:00:00	2024-11-06T23:00:00	4	Temperatura máxima	15.1
116339	7	Sololá	702	San José Chacayá	5	Chacayá	8	Agosto	2023-08-29T00:00:00	2024-11-06T23:00:00	3	Temperatura mínima	14.9
116340	7	Sololá	702	San José Chacayá	5	Chacayá	8	Agosto	2023-08-29T00:00:00	2024-11-06T23:00:00	5	Humedad	23
116341	7	Sololá	702	San José Chacayá	5	Chacayá	8	Agosto	2023-08-29T00:00:00	2024-11-06T23:00:00	6	Velocidad del viento	0
116342	7	Sololá	702	San José Chacayá	5	Chacayá	8	Agosto	2023-08-29T00:00:00	2024-11-06T23:00:00	7	Dirección del viento	0
116343	7	Sololá	702	San José Chacayá	5	Chacayá	8	Agosto	2023-08-29T00:00:00	2024-11-06T23:00:00	1	Precipitación	0.51
116344	7	Sololá	702	San José Chacayá	5	Chacayá	8	Agosto	2023-08-29T00:00:00	2024-11-06T23:00:00	8	Radiación solar	0
116345	7	Sololá	702	San José Chacayá	5	Chacayá	8	Agosto	2023-08-30T00:00:00	2024-11-06T00:00:00	2	Temperatura media	14.8
116346	7	Sololá	702	San José Chacayá	5	Chacayá	8	Agosto	2023-08-30T00:00:00	2024-11-06T00:00:00	4	Temperatura máxima	14.9
116347	7	Sololá	702	San José Chacayá	5	Chacayá	8	Agosto	2023-08-30T00:00:00	2024-11-06T00:00:00	3	Temperatura mínima	14.8
116348	7	Sololá	702	San José Chacayá	5	Chacayá	8	Agosto	2023-08-30T00:00:00	2024-11-06T00:00:00	5	Humedad	18
116349	7	Sololá	702	San José Chacayá	5	Chacayá	8	Agosto	2023-08-30T00:00:00	2024-11-06T00:00:00	6	Velocidad del viento	0
116350	7	Sololá	702	San José Chacayá	5	Chacayá	8	Agosto	2023-08-30T00:00:00	2024-11-06T00:00:00	7	Dirección del viento	0
116351	7	Sololá	702	San José Chacayá	5	Chacayá	8	Agosto	2023-08-30T00:00:00	2024-11-06T00:00:00	1	Precipitación	0.25
116352	7	Sololá	702	San José Chacayá	5	Chacayá	8	Agosto	2023-08-30T00:00:00	2024-11-06T00:00:00	8	Radiación solar	0
116353	7	Sololá	702	San José Chacayá	5	Chacayá	8	Agosto	2023-08-30T00:00:00	2024-11-06T01:00:00	2	Temperatura media	14.8
116354	7	Sololá	702	San José Chacayá	5	Chacayá	8	Agosto	2023-08-30T00:00:00	2024-11-06T01:00:00	4	Temperatura máxima	14.9
116355	7	Sololá	702	San José Chacayá	5	Chacayá	8	Agosto	2023-08-30T00:00:00	2024-11-06T01:00:00	3	Temperatura mínima	14.8
116356	7	Sololá	702	San José Chacayá	5	Chacayá	8	Agosto	2023-08-30T00:00:00	2024-11-06T01:00:00	5	Humedad	27
116357	7	Sololá	702	San José Chacayá	5	Chacayá	8	Agosto	2023-08-30T00:00:00	2024-11-06T01:00:00	6	Velocidad del viento	0
116358	7	Sololá	702	San José Chacayá	5	Chacayá	8	Agosto	2023-08-30T00:00:00	2024-11-06T01:00:00	7	Dirección del viento	0
116359	7	Sololá	702	San José Chacayá	5	Chacayá	8	Agosto	2023-08-30T00:00:00	2024-11-06T01:00:00	1	Precipitación	0.25
116360	7	Sololá	702	San José Chacayá	5	Chacayá	8	Agosto	2023-08-30T00:00:00	2024-11-06T01:00:00	8	Radiación solar	0
116361	7	Sololá	702	San José Chacayá	5	Chacayá	8	Agosto	2023-08-30T00:00:00	2024-11-06T02:00:00	2	Temperatura media	14.6
116362	7	Sololá	702	San José Chacayá	5	Chacayá	8	Agosto	2023-08-30T00:00:00	2024-11-06T02:00:00	4	Temperatura máxima	14.7
116363	7	Sololá	702	San José Chacayá	5	Chacayá	8	Agosto	2023-08-30T00:00:00	2024-11-06T02:00:00	3	Temperatura mínima	14.6
116364	7	Sololá	702	San José Chacayá	5	Chacayá	8	Agosto	2023-08-30T00:00:00	2024-11-06T02:00:00	5	Humedad	34
116365	7	Sololá	702	San José Chacayá	5	Chacayá	8	Agosto	2023-08-30T00:00:00	2024-11-06T02:00:00	6	Velocidad del viento	0
116366	7	Sololá	702	San José Chacayá	5	Chacayá	8	Agosto	2023-08-30T00:00:00	2024-11-06T02:00:00	7	Dirección del viento	0
116367	7	Sololá	702	San José Chacayá	5	Chacayá	8	Agosto	2023-08-30T00:00:00	2024-11-06T02:00:00	1	Precipitación	0.25
116368	7	Sololá	702	San José Chacayá	5	Chacayá	8	Agosto	2023-08-30T00:00:00	2024-11-06T02:00:00	8	Radiación solar	0
116369	7	Sololá	702	San José Chacayá	5	Chacayá	8	Agosto	2023-08-30T00:00:00	2024-11-06T03:00:00	2	Temperatura media	14.4
116370	7	Sololá	702	San José Chacayá	5	Chacayá	8	Agosto	2023-08-30T00:00:00	2024-11-06T03:00:00	4	Temperatura máxima	14.5
116371	7	Sololá	702	San José Chacayá	5	Chacayá	8	Agosto	2023-08-30T00:00:00	2024-11-06T03:00:00	3	Temperatura mínima	14.4
116372	7	Sololá	702	San José Chacayá	5	Chacayá	8	Agosto	2023-08-30T00:00:00	2024-11-06T03:00:00	5	Humedad	34
116373	7	Sololá	702	San José Chacayá	5	Chacayá	8	Agosto	2023-08-30T00:00:00	2024-11-06T03:00:00	6	Velocidad del viento	1.6
116374	7	Sololá	702	San José Chacayá	5	Chacayá	8	Agosto	2023-08-30T00:00:00	2024-11-06T03:00:00	7	Dirección del viento	0.8
116375	7	Sololá	702	San José Chacayá	5	Chacayá	8	Agosto	2023-08-30T00:00:00	2024-11-06T03:00:00	1	Precipitación	0
116376	7	Sololá	702	San José Chacayá	5	Chacayá	8	Agosto	2023-08-30T00:00:00	2024-11-06T03:00:00	8	Radiación solar	0
116377	7	Sololá	702	San José Chacayá	5	Chacayá	8	Agosto	2023-08-30T00:00:00	2024-11-06T04:00:00	2	Temperatura media	14.2
116378	7	Sololá	702	San José Chacayá	5	Chacayá	8	Agosto	2023-08-30T00:00:00	2024-11-06T04:00:00	4	Temperatura máxima	14.3
116379	7	Sololá	702	San José Chacayá	5	Chacayá	8	Agosto	2023-08-30T00:00:00	2024-11-06T04:00:00	3	Temperatura mínima	14.2
116380	7	Sololá	702	San José Chacayá	5	Chacayá	8	Agosto	2023-08-30T00:00:00	2024-11-06T04:00:00	5	Humedad	46
116381	7	Sololá	702	San José Chacayá	5	Chacayá	8	Agosto	2023-08-30T00:00:00	2024-11-06T04:00:00	6	Velocidad del viento	0
116382	7	Sololá	702	San José Chacayá	5	Chacayá	8	Agosto	2023-08-30T00:00:00	2024-11-06T04:00:00	7	Dirección del viento	0
116383	7	Sololá	702	San José Chacayá	5	Chacayá	8	Agosto	2023-08-30T00:00:00	2024-11-06T04:00:00	1	Precipitación	0.51
116384	7	Sololá	702	San José Chacayá	5	Chacayá	8	Agosto	2023-08-30T00:00:00	2024-11-06T04:00:00	8	Radiación solar	0
116385	7	Sololá	702	San José Chacayá	5	Chacayá	8	Agosto	2023-08-30T00:00:00	2024-11-06T05:00:00	2	Temperatura media	14.1
116386	7	Sololá	702	San José Chacayá	5	Chacayá	8	Agosto	2023-08-30T00:00:00	2024-11-06T05:00:00	4	Temperatura máxima	14.1
116387	7	Sololá	702	San José Chacayá	5	Chacayá	8	Agosto	2023-08-30T00:00:00	2024-11-06T05:00:00	3	Temperatura mínima	14.1
116388	7	Sololá	702	San José Chacayá	5	Chacayá	8	Agosto	2023-08-30T00:00:00	2024-11-06T05:00:00	5	Humedad	61
116389	7	Sololá	702	San José Chacayá	5	Chacayá	8	Agosto	2023-08-30T00:00:00	2024-11-06T05:00:00	6	Velocidad del viento	1.6
116390	7	Sololá	702	San José Chacayá	5	Chacayá	8	Agosto	2023-08-30T00:00:00	2024-11-06T05:00:00	7	Dirección del viento	0.8
116391	7	Sololá	702	San José Chacayá	5	Chacayá	8	Agosto	2023-08-30T00:00:00	2024-11-06T05:00:00	1	Precipitación	0
116392	7	Sololá	702	San José Chacayá	5	Chacayá	8	Agosto	2023-08-30T00:00:00	2024-11-06T05:00:00	8	Radiación solar	0
116393	7	Sololá	702	San José Chacayá	5	Chacayá	8	Agosto	2023-08-30T00:00:00	2024-11-06T06:00:00	2	Temperatura media	13.7
116394	7	Sololá	702	San José Chacayá	5	Chacayá	8	Agosto	2023-08-30T00:00:00	2024-11-06T06:00:00	4	Temperatura máxima	13.8
116395	7	Sololá	702	San José Chacayá	5	Chacayá	8	Agosto	2023-08-30T00:00:00	2024-11-06T06:00:00	3	Temperatura mínima	13.7
116396	7	Sololá	702	San José Chacayá	5	Chacayá	8	Agosto	2023-08-30T00:00:00	2024-11-06T06:00:00	5	Humedad	64
116397	7	Sololá	702	San José Chacayá	5	Chacayá	8	Agosto	2023-08-30T00:00:00	2024-11-06T06:00:00	6	Velocidad del viento	4.8
116398	7	Sololá	702	San José Chacayá	5	Chacayá	8	Agosto	2023-08-30T00:00:00	2024-11-06T06:00:00	7	Dirección del viento	2.41
116399	7	Sololá	702	San José Chacayá	5	Chacayá	8	Agosto	2023-08-30T00:00:00	2024-11-06T06:00:00	1	Precipitación	0
116400	7	Sololá	702	San José Chacayá	5	Chacayá	8	Agosto	2023-08-30T00:00:00	2024-11-06T06:00:00	8	Radiación solar	0
116401	7	Sololá	702	San José Chacayá	5	Chacayá	8	Agosto	2023-08-30T00:00:00	2024-11-06T07:00:00	2	Temperatura media	14.2
116402	7	Sololá	702	San José Chacayá	5	Chacayá	8	Agosto	2023-08-30T00:00:00	2024-11-06T07:00:00	4	Temperatura máxima	14.2
116403	7	Sololá	702	San José Chacayá	5	Chacayá	8	Agosto	2023-08-30T00:00:00	2024-11-06T07:00:00	3	Temperatura mínima	13.8
116404	7	Sololá	702	San José Chacayá	5	Chacayá	8	Agosto	2023-08-30T00:00:00	2024-11-06T07:00:00	5	Humedad	71
116405	7	Sololá	702	San José Chacayá	5	Chacayá	8	Agosto	2023-08-30T00:00:00	2024-11-06T07:00:00	6	Velocidad del viento	3.2
116406	7	Sololá	702	San José Chacayá	5	Chacayá	8	Agosto	2023-08-30T00:00:00	2024-11-06T07:00:00	7	Dirección del viento	1.61
116407	7	Sololá	702	San José Chacayá	5	Chacayá	8	Agosto	2023-08-30T00:00:00	2024-11-06T07:00:00	1	Precipitación	0.25
116408	7	Sololá	702	San José Chacayá	5	Chacayá	8	Agosto	2023-08-30T00:00:00	2024-11-06T07:00:00	8	Radiación solar	51
116409	7	Sololá	702	San José Chacayá	5	Chacayá	8	Agosto	2023-08-30T00:00:00	2024-11-06T08:00:00	2	Temperatura media	15.8
116410	7	Sololá	702	San José Chacayá	5	Chacayá	8	Agosto	2023-08-30T00:00:00	2024-11-06T08:00:00	4	Temperatura máxima	15.8
116411	7	Sololá	702	San José Chacayá	5	Chacayá	8	Agosto	2023-08-30T00:00:00	2024-11-06T08:00:00	3	Temperatura mínima	14.8
116412	7	Sololá	702	San José Chacayá	5	Chacayá	8	Agosto	2023-08-30T00:00:00	2024-11-06T08:00:00	5	Humedad	78
116413	7	Sololá	702	San José Chacayá	5	Chacayá	8	Agosto	2023-08-30T00:00:00	2024-11-06T08:00:00	6	Velocidad del viento	1.6
116414	7	Sololá	702	San José Chacayá	5	Chacayá	8	Agosto	2023-08-30T00:00:00	2024-11-06T08:00:00	7	Dirección del viento	0.8
116415	7	Sololá	702	San José Chacayá	5	Chacayá	8	Agosto	2023-08-30T00:00:00	2024-11-06T08:00:00	1	Precipitación	0
116416	7	Sololá	702	San José Chacayá	5	Chacayá	8	Agosto	2023-08-30T00:00:00	2024-11-06T08:00:00	8	Radiación solar	166
116417	7	Sololá	702	San José Chacayá	5	Chacayá	8	Agosto	2023-08-30T00:00:00	2024-11-06T09:00:00	2	Temperatura media	18
116418	7	Sololá	702	San José Chacayá	5	Chacayá	8	Agosto	2023-08-30T00:00:00	2024-11-06T09:00:00	4	Temperatura máxima	18
116419	7	Sololá	702	San José Chacayá	5	Chacayá	8	Agosto	2023-08-30T00:00:00	2024-11-06T09:00:00	3	Temperatura mínima	17.2
116420	7	Sololá	702	San José Chacayá	5	Chacayá	8	Agosto	2023-08-30T00:00:00	2024-11-06T09:00:00	5	Humedad	81
116421	7	Sololá	702	San José Chacayá	5	Chacayá	8	Agosto	2023-08-30T00:00:00	2024-11-06T09:00:00	6	Velocidad del viento	0
116422	7	Sololá	702	San José Chacayá	5	Chacayá	8	Agosto	2023-08-30T00:00:00	2024-11-06T09:00:00	7	Dirección del viento	0
116423	7	Sololá	702	San José Chacayá	5	Chacayá	8	Agosto	2023-08-30T00:00:00	2024-11-06T09:00:00	1	Precipitación	0
116424	7	Sololá	702	San José Chacayá	5	Chacayá	8	Agosto	2023-08-30T00:00:00	2024-11-06T09:00:00	8	Radiación solar	272
116425	7	Sololá	702	San José Chacayá	5	Chacayá	8	Agosto	2023-08-30T00:00:00	2024-11-06T10:00:00	2	Temperatura media	21.2
116426	7	Sololá	702	San José Chacayá	5	Chacayá	8	Agosto	2023-08-30T00:00:00	2024-11-06T10:00:00	4	Temperatura máxima	21.2
116427	7	Sololá	702	San José Chacayá	5	Chacayá	8	Agosto	2023-08-30T00:00:00	2024-11-06T10:00:00	3	Temperatura mínima	18.5
116428	7	Sololá	702	San José Chacayá	5	Chacayá	8	Agosto	2023-08-30T00:00:00	2024-11-06T10:00:00	5	Humedad	77
116429	7	Sololá	702	San José Chacayá	5	Chacayá	8	Agosto	2023-08-30T00:00:00	2024-11-06T10:00:00	6	Velocidad del viento	3.2
116430	7	Sololá	702	San José Chacayá	5	Chacayá	8	Agosto	2023-08-30T00:00:00	2024-11-06T10:00:00	7	Dirección del viento	1.61
116431	7	Sololá	702	San José Chacayá	5	Chacayá	8	Agosto	2023-08-30T00:00:00	2024-11-06T10:00:00	1	Precipitación	0
116432	7	Sololá	702	San José Chacayá	5	Chacayá	8	Agosto	2023-08-30T00:00:00	2024-11-06T10:00:00	8	Radiación solar	905
116433	7	Sololá	702	San José Chacayá	5	Chacayá	8	Agosto	2023-08-30T00:00:00	2024-11-06T11:00:00	2	Temperatura media	20.9
116434	7	Sololá	702	San José Chacayá	5	Chacayá	8	Agosto	2023-08-30T00:00:00	2024-11-06T11:00:00	4	Temperatura máxima	21.6
116435	7	Sololá	702	San José Chacayá	5	Chacayá	8	Agosto	2023-08-30T00:00:00	2024-11-06T11:00:00	3	Temperatura mínima	20.6
116436	7	Sololá	702	San José Chacayá	5	Chacayá	8	Agosto	2023-08-30T00:00:00	2024-11-06T11:00:00	5	Humedad	72
116437	7	Sololá	702	San José Chacayá	5	Chacayá	8	Agosto	2023-08-30T00:00:00	2024-11-06T11:00:00	6	Velocidad del viento	6.4
116438	7	Sololá	702	San José Chacayá	5	Chacayá	8	Agosto	2023-08-30T00:00:00	2024-11-06T11:00:00	7	Dirección del viento	3.22
116439	7	Sololá	702	San José Chacayá	5	Chacayá	8	Agosto	2023-08-30T00:00:00	2024-11-06T11:00:00	1	Precipitación	0
116440	7	Sololá	702	San José Chacayá	5	Chacayá	8	Agosto	2023-08-30T00:00:00	2024-11-06T11:00:00	8	Radiación solar	757
116441	7	Sololá	702	San José Chacayá	5	Chacayá	8	Agosto	2023-08-30T00:00:00	2024-11-06T12:00:00	2	Temperatura media	21.7
116442	7	Sololá	702	San José Chacayá	5	Chacayá	8	Agosto	2023-08-30T00:00:00	2024-11-06T12:00:00	4	Temperatura máxima	21.8
116443	7	Sololá	702	San José Chacayá	5	Chacayá	8	Agosto	2023-08-30T00:00:00	2024-11-06T12:00:00	3	Temperatura mínima	20.3
116444	7	Sololá	702	San José Chacayá	5	Chacayá	8	Agosto	2023-08-30T00:00:00	2024-11-06T12:00:00	5	Humedad	75
116445	7	Sololá	702	San José Chacayá	5	Chacayá	8	Agosto	2023-08-30T00:00:00	2024-11-06T12:00:00	6	Velocidad del viento	6.4
116446	7	Sololá	702	San José Chacayá	5	Chacayá	8	Agosto	2023-08-30T00:00:00	2024-11-06T12:00:00	7	Dirección del viento	3.22
116447	7	Sololá	702	San José Chacayá	5	Chacayá	8	Agosto	2023-08-30T00:00:00	2024-11-06T12:00:00	1	Precipitación	0
116448	7	Sololá	702	San José Chacayá	5	Chacayá	8	Agosto	2023-08-30T00:00:00	2024-11-06T12:00:00	8	Radiación solar	797
116449	7	Sololá	702	San José Chacayá	5	Chacayá	8	Agosto	2023-08-30T00:00:00	2024-11-06T13:00:00	2	Temperatura media	20.1
116450	7	Sololá	702	San José Chacayá	5	Chacayá	8	Agosto	2023-08-30T00:00:00	2024-11-06T13:00:00	4	Temperatura máxima	21.1
116451	7	Sololá	702	San José Chacayá	5	Chacayá	8	Agosto	2023-08-30T00:00:00	2024-11-06T13:00:00	3	Temperatura mínima	20.1
116452	7	Sololá	702	San José Chacayá	5	Chacayá	8	Agosto	2023-08-30T00:00:00	2024-11-06T13:00:00	5	Humedad	76
116453	7	Sololá	702	San José Chacayá	5	Chacayá	8	Agosto	2023-08-30T00:00:00	2024-11-06T13:00:00	6	Velocidad del viento	9.7
116454	7	Sololá	702	San José Chacayá	5	Chacayá	8	Agosto	2023-08-30T00:00:00	2024-11-06T13:00:00	7	Dirección del viento	4.83
116455	7	Sololá	702	San José Chacayá	5	Chacayá	8	Agosto	2023-08-30T00:00:00	2024-11-06T13:00:00	1	Precipitación	0
116456	7	Sololá	702	San José Chacayá	5	Chacayá	8	Agosto	2023-08-30T00:00:00	2024-11-06T13:00:00	8	Radiación solar	637
116457	7	Sololá	702	San José Chacayá	5	Chacayá	8	Agosto	2023-08-30T00:00:00	2024-11-06T14:00:00	2	Temperatura media	19.6
116458	7	Sololá	702	San José Chacayá	5	Chacayá	8	Agosto	2023-08-30T00:00:00	2024-11-06T14:00:00	4	Temperatura máxima	20.1
116459	7	Sololá	702	San José Chacayá	5	Chacayá	8	Agosto	2023-08-30T00:00:00	2024-11-06T14:00:00	3	Temperatura mínima	19.4
116460	7	Sololá	702	San José Chacayá	5	Chacayá	8	Agosto	2023-08-30T00:00:00	2024-11-06T14:00:00	5	Humedad	78
116461	7	Sololá	702	San José Chacayá	5	Chacayá	8	Agosto	2023-08-30T00:00:00	2024-11-06T14:00:00	6	Velocidad del viento	6.4
116462	7	Sololá	702	San José Chacayá	5	Chacayá	8	Agosto	2023-08-30T00:00:00	2024-11-06T14:00:00	7	Dirección del viento	3.22
116463	7	Sololá	702	San José Chacayá	5	Chacayá	8	Agosto	2023-08-30T00:00:00	2024-11-06T14:00:00	1	Precipitación	0
116464	7	Sololá	702	San José Chacayá	5	Chacayá	8	Agosto	2023-08-30T00:00:00	2024-11-06T14:00:00	8	Radiación solar	383
116465	7	Sololá	702	San José Chacayá	5	Chacayá	8	Agosto	2023-08-30T00:00:00	2024-11-06T15:00:00	2	Temperatura media	18.9
116466	7	Sololá	702	San José Chacayá	5	Chacayá	8	Agosto	2023-08-30T00:00:00	2024-11-06T15:00:00	4	Temperatura máxima	19.4
116467	7	Sololá	702	San José Chacayá	5	Chacayá	8	Agosto	2023-08-30T00:00:00	2024-11-06T15:00:00	3	Temperatura mínima	18.9
116468	7	Sololá	702	San José Chacayá	5	Chacayá	8	Agosto	2023-08-30T00:00:00	2024-11-06T15:00:00	5	Humedad	79
116469	7	Sololá	702	San José Chacayá	5	Chacayá	8	Agosto	2023-08-30T00:00:00	2024-11-06T15:00:00	6	Velocidad del viento	3.2
116470	7	Sololá	702	San José Chacayá	5	Chacayá	8	Agosto	2023-08-30T00:00:00	2024-11-06T15:00:00	7	Dirección del viento	1.61
116471	7	Sololá	702	San José Chacayá	5	Chacayá	8	Agosto	2023-08-30T00:00:00	2024-11-06T15:00:00	1	Precipitación	0
116472	7	Sololá	702	San José Chacayá	5	Chacayá	8	Agosto	2023-08-30T00:00:00	2024-11-06T15:00:00	8	Radiación solar	236
116473	7	Sololá	702	San José Chacayá	5	Chacayá	8	Agosto	2023-08-30T00:00:00	2024-11-06T16:00:00	2	Temperatura media	18.2
116474	7	Sololá	702	San José Chacayá	5	Chacayá	8	Agosto	2023-08-30T00:00:00	2024-11-06T16:00:00	4	Temperatura máxima	18.7
116475	7	Sololá	702	San José Chacayá	5	Chacayá	8	Agosto	2023-08-30T00:00:00	2024-11-06T16:00:00	3	Temperatura mínima	18.2
116476	7	Sololá	702	San José Chacayá	5	Chacayá	8	Agosto	2023-08-30T00:00:00	2024-11-06T16:00:00	5	Humedad	81
116477	7	Sololá	702	San José Chacayá	5	Chacayá	8	Agosto	2023-08-30T00:00:00	2024-11-06T16:00:00	6	Velocidad del viento	1.6
116478	7	Sololá	702	San José Chacayá	5	Chacayá	8	Agosto	2023-08-30T00:00:00	2024-11-06T16:00:00	7	Dirección del viento	0.8
116479	7	Sololá	702	San José Chacayá	5	Chacayá	8	Agosto	2023-08-30T00:00:00	2024-11-06T16:00:00	1	Precipitación	0
116480	7	Sololá	702	San José Chacayá	5	Chacayá	8	Agosto	2023-08-30T00:00:00	2024-11-06T16:00:00	8	Radiación solar	150
116481	7	Sololá	702	San José Chacayá	5	Chacayá	8	Agosto	2023-08-30T00:00:00	2024-11-06T17:00:00	2	Temperatura media	16.9
116482	7	Sololá	702	San José Chacayá	5	Chacayá	8	Agosto	2023-08-30T00:00:00	2024-11-06T17:00:00	4	Temperatura máxima	17.3
116483	7	Sololá	702	San José Chacayá	5	Chacayá	8	Agosto	2023-08-30T00:00:00	2024-11-06T17:00:00	3	Temperatura mínima	16.9
116484	7	Sololá	702	San José Chacayá	5	Chacayá	8	Agosto	2023-08-30T00:00:00	2024-11-06T17:00:00	5	Humedad	74
116485	7	Sololá	702	San José Chacayá	5	Chacayá	8	Agosto	2023-08-30T00:00:00	2024-11-06T17:00:00	6	Velocidad del viento	1.6
116486	7	Sololá	702	San José Chacayá	5	Chacayá	8	Agosto	2023-08-30T00:00:00	2024-11-06T17:00:00	7	Dirección del viento	0.8
116487	7	Sololá	702	San José Chacayá	5	Chacayá	8	Agosto	2023-08-30T00:00:00	2024-11-06T17:00:00	1	Precipitación	0
116488	7	Sololá	702	San José Chacayá	5	Chacayá	8	Agosto	2023-08-30T00:00:00	2024-11-06T17:00:00	8	Radiación solar	35
116489	7	Sololá	702	San José Chacayá	5	Chacayá	8	Agosto	2023-08-30T00:00:00	2024-11-06T18:00:00	2	Temperatura media	16.7
116490	7	Sololá	702	San José Chacayá	5	Chacayá	8	Agosto	2023-08-30T00:00:00	2024-11-06T18:00:00	4	Temperatura máxima	16.9
116491	7	Sololá	702	San José Chacayá	5	Chacayá	8	Agosto	2023-08-30T00:00:00	2024-11-06T18:00:00	3	Temperatura mínima	16.7
116492	7	Sololá	702	San José Chacayá	5	Chacayá	8	Agosto	2023-08-30T00:00:00	2024-11-06T18:00:00	5	Humedad	74
116493	7	Sololá	702	San José Chacayá	5	Chacayá	8	Agosto	2023-08-30T00:00:00	2024-11-06T18:00:00	6	Velocidad del viento	0
116494	7	Sololá	702	San José Chacayá	5	Chacayá	8	Agosto	2023-08-30T00:00:00	2024-11-06T18:00:00	7	Dirección del viento	0
116495	7	Sololá	702	San José Chacayá	5	Chacayá	8	Agosto	2023-08-30T00:00:00	2024-11-06T18:00:00	1	Precipitación	0
116496	7	Sololá	702	San José Chacayá	5	Chacayá	8	Agosto	2023-08-30T00:00:00	2024-11-06T18:00:00	8	Radiación solar	11
116497	7	Sololá	702	San José Chacayá	5	Chacayá	8	Agosto	2023-08-30T00:00:00	2024-11-06T19:00:00	2	Temperatura media	15.9
116498	7	Sololá	702	San José Chacayá	5	Chacayá	8	Agosto	2023-08-30T00:00:00	2024-11-06T19:00:00	4	Temperatura máxima	16.3
116499	7	Sololá	702	San José Chacayá	5	Chacayá	8	Agosto	2023-08-30T00:00:00	2024-11-06T19:00:00	3	Temperatura mínima	15.9
116500	7	Sololá	702	San José Chacayá	5	Chacayá	8	Agosto	2023-08-30T00:00:00	2024-11-06T19:00:00	5	Humedad	69
116501	7	Sololá	702	San José Chacayá	5	Chacayá	8	Agosto	2023-08-30T00:00:00	2024-11-06T19:00:00	6	Velocidad del viento	0
116502	7	Sololá	702	San José Chacayá	5	Chacayá	8	Agosto	2023-08-30T00:00:00	2024-11-06T19:00:00	7	Dirección del viento	0
116503	7	Sololá	702	San José Chacayá	5	Chacayá	8	Agosto	2023-08-30T00:00:00	2024-11-06T19:00:00	1	Precipitación	0
116504	7	Sololá	702	San José Chacayá	5	Chacayá	8	Agosto	2023-08-30T00:00:00	2024-11-06T19:00:00	8	Radiación solar	0
116505	7	Sololá	702	San José Chacayá	5	Chacayá	8	Agosto	2023-08-30T00:00:00	2024-11-06T20:00:00	2	Temperatura media	15.8
116506	7	Sololá	702	San José Chacayá	5	Chacayá	8	Agosto	2023-08-30T00:00:00	2024-11-06T20:00:00	4	Temperatura máxima	15.9
116507	7	Sololá	702	San José Chacayá	5	Chacayá	8	Agosto	2023-08-30T00:00:00	2024-11-06T20:00:00	3	Temperatura mínima	15.8
116508	7	Sololá	702	San José Chacayá	5	Chacayá	8	Agosto	2023-08-30T00:00:00	2024-11-06T20:00:00	5	Humedad	64
116509	7	Sololá	702	San José Chacayá	5	Chacayá	8	Agosto	2023-08-30T00:00:00	2024-11-06T20:00:00	6	Velocidad del viento	0
116510	7	Sololá	702	San José Chacayá	5	Chacayá	8	Agosto	2023-08-30T00:00:00	2024-11-06T20:00:00	7	Dirección del viento	0
116511	7	Sololá	702	San José Chacayá	5	Chacayá	8	Agosto	2023-08-30T00:00:00	2024-11-06T20:00:00	1	Precipitación	0
116512	7	Sololá	702	San José Chacayá	5	Chacayá	8	Agosto	2023-08-30T00:00:00	2024-11-06T20:00:00	8	Radiación solar	0
116513	7	Sololá	702	San José Chacayá	5	Chacayá	8	Agosto	2023-08-30T00:00:00	2024-11-06T21:00:00	2	Temperatura media	15.6
116514	7	Sololá	702	San José Chacayá	5	Chacayá	8	Agosto	2023-08-30T00:00:00	2024-11-06T21:00:00	4	Temperatura máxima	15.8
116515	7	Sololá	702	San José Chacayá	5	Chacayá	8	Agosto	2023-08-30T00:00:00	2024-11-06T21:00:00	3	Temperatura mínima	15.6
116516	7	Sololá	702	San José Chacayá	5	Chacayá	8	Agosto	2023-08-30T00:00:00	2024-11-06T21:00:00	5	Humedad	71
116517	7	Sololá	702	San José Chacayá	5	Chacayá	8	Agosto	2023-08-30T00:00:00	2024-11-06T21:00:00	6	Velocidad del viento	0
116518	7	Sololá	702	San José Chacayá	5	Chacayá	8	Agosto	2023-08-30T00:00:00	2024-11-06T21:00:00	7	Dirección del viento	0
116519	7	Sololá	702	San José Chacayá	5	Chacayá	8	Agosto	2023-08-30T00:00:00	2024-11-06T21:00:00	1	Precipitación	0
116520	7	Sololá	702	San José Chacayá	5	Chacayá	8	Agosto	2023-08-30T00:00:00	2024-11-06T21:00:00	8	Radiación solar	0
116521	7	Sololá	702	San José Chacayá	5	Chacayá	8	Agosto	2023-08-30T00:00:00	2024-11-06T22:00:00	2	Temperatura media	15.2
116522	7	Sololá	702	San José Chacayá	5	Chacayá	8	Agosto	2023-08-30T00:00:00	2024-11-06T22:00:00	4	Temperatura máxima	15.2
116523	7	Sololá	702	San José Chacayá	5	Chacayá	8	Agosto	2023-08-30T00:00:00	2024-11-06T22:00:00	3	Temperatura mínima	15.2
116524	7	Sololá	702	San José Chacayá	5	Chacayá	8	Agosto	2023-08-30T00:00:00	2024-11-06T22:00:00	5	Humedad	73
116525	7	Sololá	702	San José Chacayá	5	Chacayá	8	Agosto	2023-08-30T00:00:00	2024-11-06T22:00:00	6	Velocidad del viento	1.6
116526	7	Sololá	702	San José Chacayá	5	Chacayá	8	Agosto	2023-08-30T00:00:00	2024-11-06T22:00:00	7	Dirección del viento	0.8
116527	7	Sololá	702	San José Chacayá	5	Chacayá	8	Agosto	2023-08-30T00:00:00	2024-11-06T22:00:00	1	Precipitación	0
116528	7	Sololá	702	San José Chacayá	5	Chacayá	8	Agosto	2023-08-30T00:00:00	2024-11-06T22:00:00	8	Radiación solar	0
116529	7	Sololá	702	San José Chacayá	5	Chacayá	8	Agosto	2023-08-30T00:00:00	2024-11-06T23:00:00	2	Temperatura media	14.6
116530	7	Sololá	702	San José Chacayá	5	Chacayá	8	Agosto	2023-08-30T00:00:00	2024-11-06T23:00:00	4	Temperatura máxima	14.9
116531	7	Sololá	702	San José Chacayá	5	Chacayá	8	Agosto	2023-08-30T00:00:00	2024-11-06T23:00:00	3	Temperatura mínima	14.6
116532	7	Sololá	702	San José Chacayá	5	Chacayá	8	Agosto	2023-08-30T00:00:00	2024-11-06T23:00:00	5	Humedad	72
116533	7	Sololá	702	San José Chacayá	5	Chacayá	8	Agosto	2023-08-30T00:00:00	2024-11-06T23:00:00	6	Velocidad del viento	1.6
116534	7	Sololá	702	San José Chacayá	5	Chacayá	8	Agosto	2023-08-30T00:00:00	2024-11-06T23:00:00	7	Dirección del viento	0.8
116535	7	Sololá	702	San José Chacayá	5	Chacayá	8	Agosto	2023-08-30T00:00:00	2024-11-06T23:00:00	1	Precipitación	0
116536	7	Sololá	702	San José Chacayá	5	Chacayá	8	Agosto	2023-08-30T00:00:00	2024-11-06T23:00:00	8	Radiación solar	0
116537	7	Sololá	702	San José Chacayá	5	Chacayá	8	Agosto	2023-08-31T00:00:00	2024-11-06T00:00:00	2	Temperatura media	14.6
116538	7	Sololá	702	San José Chacayá	5	Chacayá	8	Agosto	2023-08-31T00:00:00	2024-11-06T00:00:00	4	Temperatura máxima	14.6
116539	7	Sololá	702	San José Chacayá	5	Chacayá	8	Agosto	2023-08-31T00:00:00	2024-11-06T00:00:00	3	Temperatura mínima	14.6
116540	7	Sololá	702	San José Chacayá	5	Chacayá	8	Agosto	2023-08-31T00:00:00	2024-11-06T00:00:00	5	Humedad	76
116541	7	Sololá	702	San José Chacayá	5	Chacayá	8	Agosto	2023-08-31T00:00:00	2024-11-06T00:00:00	6	Velocidad del viento	1.6
116542	7	Sololá	702	San José Chacayá	5	Chacayá	8	Agosto	2023-08-31T00:00:00	2024-11-06T00:00:00	7	Dirección del viento	0.8
116543	7	Sololá	702	San José Chacayá	5	Chacayá	8	Agosto	2023-08-31T00:00:00	2024-11-06T00:00:00	1	Precipitación	0
116544	7	Sololá	702	San José Chacayá	5	Chacayá	8	Agosto	2023-08-31T00:00:00	2024-11-06T00:00:00	8	Radiación solar	0
116545	7	Sololá	702	San José Chacayá	5	Chacayá	8	Agosto	2023-08-31T00:00:00	2024-11-06T01:00:00	2	Temperatura media	14.3
116546	7	Sololá	702	San José Chacayá	5	Chacayá	8	Agosto	2023-08-31T00:00:00	2024-11-06T01:00:00	4	Temperatura máxima	14.4
116547	7	Sololá	702	San José Chacayá	5	Chacayá	8	Agosto	2023-08-31T00:00:00	2024-11-06T01:00:00	3	Temperatura mínima	14.3
116548	7	Sololá	702	San José Chacayá	5	Chacayá	8	Agosto	2023-08-31T00:00:00	2024-11-06T01:00:00	5	Humedad	74
116549	7	Sololá	702	San José Chacayá	5	Chacayá	8	Agosto	2023-08-31T00:00:00	2024-11-06T01:00:00	6	Velocidad del viento	1.6
116550	7	Sololá	702	San José Chacayá	5	Chacayá	8	Agosto	2023-08-31T00:00:00	2024-11-06T01:00:00	7	Dirección del viento	0.8
116551	7	Sololá	702	San José Chacayá	5	Chacayá	8	Agosto	2023-08-31T00:00:00	2024-11-06T01:00:00	1	Precipitación	0
116552	7	Sololá	702	San José Chacayá	5	Chacayá	8	Agosto	2023-08-31T00:00:00	2024-11-06T01:00:00	8	Radiación solar	0
116553	7	Sololá	702	San José Chacayá	5	Chacayá	8	Agosto	2023-08-31T00:00:00	2024-11-06T02:00:00	2	Temperatura media	14.1
116554	7	Sololá	702	San José Chacayá	5	Chacayá	8	Agosto	2023-08-31T00:00:00	2024-11-06T02:00:00	4	Temperatura máxima	14.2
116555	7	Sololá	702	San José Chacayá	5	Chacayá	8	Agosto	2023-08-31T00:00:00	2024-11-06T02:00:00	3	Temperatura mínima	14.1
116556	7	Sololá	702	San José Chacayá	5	Chacayá	8	Agosto	2023-08-31T00:00:00	2024-11-06T02:00:00	5	Humedad	72
116557	7	Sololá	702	San José Chacayá	5	Chacayá	8	Agosto	2023-08-31T00:00:00	2024-11-06T02:00:00	6	Velocidad del viento	1.6
116558	7	Sololá	702	San José Chacayá	5	Chacayá	8	Agosto	2023-08-31T00:00:00	2024-11-06T02:00:00	7	Dirección del viento	0.8
116559	7	Sololá	702	San José Chacayá	5	Chacayá	8	Agosto	2023-08-31T00:00:00	2024-11-06T02:00:00	1	Precipitación	0
116560	7	Sololá	702	San José Chacayá	5	Chacayá	8	Agosto	2023-08-31T00:00:00	2024-11-06T02:00:00	8	Radiación solar	0
116561	7	Sololá	702	San José Chacayá	5	Chacayá	8	Agosto	2023-08-31T00:00:00	2024-11-06T03:00:00	2	Temperatura media	13.7
116562	7	Sololá	702	San José Chacayá	5	Chacayá	8	Agosto	2023-08-31T00:00:00	2024-11-06T03:00:00	4	Temperatura máxima	13.8
116563	7	Sololá	702	San José Chacayá	5	Chacayá	8	Agosto	2023-08-31T00:00:00	2024-11-06T03:00:00	3	Temperatura mínima	13.7
116564	7	Sololá	702	San José Chacayá	5	Chacayá	8	Agosto	2023-08-31T00:00:00	2024-11-06T03:00:00	5	Humedad	75
116565	7	Sololá	702	San José Chacayá	5	Chacayá	8	Agosto	2023-08-31T00:00:00	2024-11-06T03:00:00	6	Velocidad del viento	4.8
116566	7	Sololá	702	San José Chacayá	5	Chacayá	8	Agosto	2023-08-31T00:00:00	2024-11-06T03:00:00	7	Dirección del viento	2.41
116567	7	Sololá	702	San José Chacayá	5	Chacayá	8	Agosto	2023-08-31T00:00:00	2024-11-06T03:00:00	1	Precipitación	0
116568	7	Sololá	702	San José Chacayá	5	Chacayá	8	Agosto	2023-08-31T00:00:00	2024-11-06T03:00:00	8	Radiación solar	0
116569	7	Sololá	702	San José Chacayá	5	Chacayá	8	Agosto	2023-08-31T00:00:00	2024-11-06T04:00:00	2	Temperatura media	13.7
116570	7	Sololá	702	San José Chacayá	5	Chacayá	8	Agosto	2023-08-31T00:00:00	2024-11-06T04:00:00	4	Temperatura máxima	13.8
116571	7	Sololá	702	San José Chacayá	5	Chacayá	8	Agosto	2023-08-31T00:00:00	2024-11-06T04:00:00	3	Temperatura mínima	13.7
116572	7	Sololá	702	San José Chacayá	5	Chacayá	8	Agosto	2023-08-31T00:00:00	2024-11-06T04:00:00	5	Humedad	77
116573	7	Sololá	702	San José Chacayá	5	Chacayá	8	Agosto	2023-08-31T00:00:00	2024-11-06T04:00:00	6	Velocidad del viento	3.2
116574	7	Sololá	702	San José Chacayá	5	Chacayá	8	Agosto	2023-08-31T00:00:00	2024-11-06T04:00:00	7	Dirección del viento	1.61
116575	7	Sololá	702	San José Chacayá	5	Chacayá	8	Agosto	2023-08-31T00:00:00	2024-11-06T04:00:00	1	Precipitación	0
116576	7	Sololá	702	San José Chacayá	5	Chacayá	8	Agosto	2023-08-31T00:00:00	2024-11-06T04:00:00	8	Radiación solar	0
116577	7	Sololá	702	San José Chacayá	5	Chacayá	8	Agosto	2023-08-31T00:00:00	2024-11-06T05:00:00	2	Temperatura media	13.3
116578	7	Sololá	702	San José Chacayá	5	Chacayá	8	Agosto	2023-08-31T00:00:00	2024-11-06T05:00:00	4	Temperatura máxima	13.5
116579	7	Sololá	702	San José Chacayá	5	Chacayá	8	Agosto	2023-08-31T00:00:00	2024-11-06T05:00:00	3	Temperatura mínima	13.3
116580	7	Sololá	702	San José Chacayá	5	Chacayá	8	Agosto	2023-08-31T00:00:00	2024-11-06T05:00:00	5	Humedad	75
116581	7	Sololá	702	San José Chacayá	5	Chacayá	8	Agosto	2023-08-31T00:00:00	2024-11-06T05:00:00	6	Velocidad del viento	3.2
116582	7	Sololá	702	San José Chacayá	5	Chacayá	8	Agosto	2023-08-31T00:00:00	2024-11-06T05:00:00	7	Dirección del viento	1.61
116583	7	Sololá	702	San José Chacayá	5	Chacayá	8	Agosto	2023-08-31T00:00:00	2024-11-06T05:00:00	1	Precipitación	0
116584	7	Sololá	702	San José Chacayá	5	Chacayá	8	Agosto	2023-08-31T00:00:00	2024-11-06T05:00:00	8	Radiación solar	0
116585	7	Sololá	702	San José Chacayá	5	Chacayá	8	Agosto	2023-08-31T00:00:00	2024-11-06T06:00:00	2	Temperatura media	13
116586	7	Sololá	702	San José Chacayá	5	Chacayá	8	Agosto	2023-08-31T00:00:00	2024-11-06T06:00:00	4	Temperatura máxima	13.2
116587	7	Sololá	702	San José Chacayá	5	Chacayá	8	Agosto	2023-08-31T00:00:00	2024-11-06T06:00:00	3	Temperatura mínima	13
116588	7	Sololá	702	San José Chacayá	5	Chacayá	8	Agosto	2023-08-31T00:00:00	2024-11-06T06:00:00	5	Humedad	77
116589	7	Sololá	702	San José Chacayá	5	Chacayá	8	Agosto	2023-08-31T00:00:00	2024-11-06T06:00:00	6	Velocidad del viento	3.2
116590	7	Sololá	702	San José Chacayá	5	Chacayá	8	Agosto	2023-08-31T00:00:00	2024-11-06T06:00:00	7	Dirección del viento	1.61
116591	7	Sololá	702	San José Chacayá	5	Chacayá	8	Agosto	2023-08-31T00:00:00	2024-11-06T06:00:00	1	Precipitación	0
116592	7	Sololá	702	San José Chacayá	5	Chacayá	8	Agosto	2023-08-31T00:00:00	2024-11-06T06:00:00	8	Radiación solar	1
116593	7	Sololá	702	San José Chacayá	5	Chacayá	8	Agosto	2023-08-31T00:00:00	2024-11-06T07:00:00	2	Temperatura media	13.5
116594	7	Sololá	702	San José Chacayá	5	Chacayá	8	Agosto	2023-08-31T00:00:00	2024-11-06T07:00:00	4	Temperatura máxima	13.5
116595	7	Sololá	702	San José Chacayá	5	Chacayá	8	Agosto	2023-08-31T00:00:00	2024-11-06T07:00:00	3	Temperatura mínima	12.9
116596	7	Sololá	702	San José Chacayá	5	Chacayá	8	Agosto	2023-08-31T00:00:00	2024-11-06T07:00:00	5	Humedad	79
116597	7	Sololá	702	San José Chacayá	5	Chacayá	8	Agosto	2023-08-31T00:00:00	2024-11-06T07:00:00	6	Velocidad del viento	3.2
116598	7	Sololá	702	San José Chacayá	5	Chacayá	8	Agosto	2023-08-31T00:00:00	2024-11-06T07:00:00	7	Dirección del viento	1.61
116599	7	Sololá	702	San José Chacayá	5	Chacayá	8	Agosto	2023-08-31T00:00:00	2024-11-06T07:00:00	1	Precipitación	0
116600	7	Sololá	702	San José Chacayá	5	Chacayá	8	Agosto	2023-08-31T00:00:00	2024-11-06T07:00:00	8	Radiación solar	51
116601	7	Sololá	702	San José Chacayá	5	Chacayá	8	Agosto	2023-08-31T00:00:00	2024-11-06T08:00:00	2	Temperatura media	17.2
116602	7	Sololá	702	San José Chacayá	5	Chacayá	8	Agosto	2023-08-31T00:00:00	2024-11-06T08:00:00	4	Temperatura máxima	17.2
116603	7	Sololá	702	San José Chacayá	5	Chacayá	8	Agosto	2023-08-31T00:00:00	2024-11-06T08:00:00	3	Temperatura mínima	15.1
116604	7	Sololá	702	San José Chacayá	5	Chacayá	8	Agosto	2023-08-31T00:00:00	2024-11-06T08:00:00	5	Humedad	75
116605	7	Sololá	702	San José Chacayá	5	Chacayá	8	Agosto	2023-08-31T00:00:00	2024-11-06T08:00:00	6	Velocidad del viento	0
116606	7	Sololá	702	San José Chacayá	5	Chacayá	8	Agosto	2023-08-31T00:00:00	2024-11-06T08:00:00	7	Dirección del viento	0
116607	7	Sololá	702	San José Chacayá	5	Chacayá	8	Agosto	2023-08-31T00:00:00	2024-11-06T08:00:00	1	Precipitación	0
116608	7	Sololá	702	San José Chacayá	5	Chacayá	8	Agosto	2023-08-31T00:00:00	2024-11-06T08:00:00	8	Radiación solar	77
116609	7	Sololá	702	San José Chacayá	5	Chacayá	8	Agosto	2023-08-31T00:00:00	2024-11-06T09:00:00	2	Temperatura media	21.3
116610	7	Sololá	702	San José Chacayá	5	Chacayá	8	Agosto	2023-08-31T00:00:00	2024-11-06T09:00:00	4	Temperatura máxima	21.3
116611	7	Sololá	702	San José Chacayá	5	Chacayá	8	Agosto	2023-08-31T00:00:00	2024-11-06T09:00:00	3	Temperatura mínima	20.3
116612	7	Sololá	702	San José Chacayá	5	Chacayá	8	Agosto	2023-08-31T00:00:00	2024-11-06T09:00:00	5	Humedad	65
116613	7	Sololá	702	San José Chacayá	5	Chacayá	8	Agosto	2023-08-31T00:00:00	2024-11-06T09:00:00	6	Velocidad del viento	3.2
116614	7	Sololá	702	San José Chacayá	5	Chacayá	8	Agosto	2023-08-31T00:00:00	2024-11-06T09:00:00	7	Dirección del viento	1.61
116615	7	Sololá	702	San José Chacayá	5	Chacayá	8	Agosto	2023-08-31T00:00:00	2024-11-06T09:00:00	1	Precipitación	0
116616	7	Sololá	702	San José Chacayá	5	Chacayá	8	Agosto	2023-08-31T00:00:00	2024-11-06T09:00:00	8	Radiación solar	603
116617	7	Sololá	702	San José Chacayá	5	Chacayá	8	Agosto	2023-08-31T00:00:00	2024-11-06T10:00:00	2	Temperatura media	21.7
116618	7	Sololá	702	San José Chacayá	5	Chacayá	8	Agosto	2023-08-31T00:00:00	2024-11-06T10:00:00	4	Temperatura máxima	21.7
116619	7	Sololá	702	San José Chacayá	5	Chacayá	8	Agosto	2023-08-31T00:00:00	2024-11-06T10:00:00	3	Temperatura mínima	20.8
116620	7	Sololá	702	San José Chacayá	5	Chacayá	8	Agosto	2023-08-31T00:00:00	2024-11-06T10:00:00	5	Humedad	67
116621	7	Sololá	702	San José Chacayá	5	Chacayá	8	Agosto	2023-08-31T00:00:00	2024-11-06T10:00:00	6	Velocidad del viento	1.6
116622	7	Sololá	702	San José Chacayá	5	Chacayá	8	Agosto	2023-08-31T00:00:00	2024-11-06T10:00:00	7	Dirección del viento	0.8
116623	7	Sololá	702	San José Chacayá	5	Chacayá	8	Agosto	2023-08-31T00:00:00	2024-11-06T10:00:00	1	Precipitación	0
116624	7	Sololá	702	San José Chacayá	5	Chacayá	8	Agosto	2023-08-31T00:00:00	2024-11-06T10:00:00	8	Radiación solar	441
116625	7	Sololá	702	San José Chacayá	5	Chacayá	8	Agosto	2023-08-31T00:00:00	2024-11-06T11:00:00	2	Temperatura media	23.7
116626	7	Sololá	702	San José Chacayá	5	Chacayá	8	Agosto	2023-08-31T00:00:00	2024-11-06T11:00:00	4	Temperatura máxima	23.8
116627	7	Sololá	702	San José Chacayá	5	Chacayá	8	Agosto	2023-08-31T00:00:00	2024-11-06T11:00:00	3	Temperatura mínima	23.4
116628	7	Sololá	702	San José Chacayá	5	Chacayá	8	Agosto	2023-08-31T00:00:00	2024-11-06T11:00:00	5	Humedad	64
116629	7	Sololá	702	San José Chacayá	5	Chacayá	8	Agosto	2023-08-31T00:00:00	2024-11-06T11:00:00	6	Velocidad del viento	4.8
116630	7	Sololá	702	San José Chacayá	5	Chacayá	8	Agosto	2023-08-31T00:00:00	2024-11-06T11:00:00	7	Dirección del viento	2.41
116631	7	Sololá	702	San José Chacayá	5	Chacayá	8	Agosto	2023-08-31T00:00:00	2024-11-06T11:00:00	1	Precipitación	0
116632	7	Sololá	702	San José Chacayá	5	Chacayá	8	Agosto	2023-08-31T00:00:00	2024-11-06T11:00:00	8	Radiación solar	943
116633	7	Sololá	702	San José Chacayá	5	Chacayá	8	Agosto	2023-08-31T00:00:00	2024-11-06T12:00:00	2	Temperatura media	22.4
116634	7	Sololá	702	San José Chacayá	5	Chacayá	8	Agosto	2023-08-31T00:00:00	2024-11-06T12:00:00	4	Temperatura máxima	23.3
116635	7	Sololá	702	San José Chacayá	5	Chacayá	8	Agosto	2023-08-31T00:00:00	2024-11-06T12:00:00	3	Temperatura mínima	22.4
116636	7	Sololá	702	San José Chacayá	5	Chacayá	8	Agosto	2023-08-31T00:00:00	2024-11-06T12:00:00	5	Humedad	69
116637	7	Sololá	702	San José Chacayá	5	Chacayá	8	Agosto	2023-08-31T00:00:00	2024-11-06T12:00:00	6	Velocidad del viento	6.4
116638	7	Sololá	702	San José Chacayá	5	Chacayá	8	Agosto	2023-08-31T00:00:00	2024-11-06T12:00:00	7	Dirección del viento	3.22
116639	7	Sololá	702	San José Chacayá	5	Chacayá	8	Agosto	2023-08-31T00:00:00	2024-11-06T12:00:00	1	Precipitación	0
116640	7	Sololá	702	San José Chacayá	5	Chacayá	8	Agosto	2023-08-31T00:00:00	2024-11-06T12:00:00	8	Radiación solar	1026
116641	7	Sololá	702	San José Chacayá	5	Chacayá	8	Agosto	2023-08-31T00:00:00	2024-11-06T13:00:00	2	Temperatura media	20.8
116642	7	Sololá	702	San José Chacayá	5	Chacayá	8	Agosto	2023-08-31T00:00:00	2024-11-06T13:00:00	4	Temperatura máxima	22.6
116643	7	Sololá	702	San José Chacayá	5	Chacayá	8	Agosto	2023-08-31T00:00:00	2024-11-06T13:00:00	3	Temperatura mínima	20.7
116644	7	Sololá	702	San José Chacayá	5	Chacayá	8	Agosto	2023-08-31T00:00:00	2024-11-06T13:00:00	5	Humedad	78
116645	7	Sololá	702	San José Chacayá	5	Chacayá	8	Agosto	2023-08-31T00:00:00	2024-11-06T13:00:00	6	Velocidad del viento	6.4
116646	7	Sololá	702	San José Chacayá	5	Chacayá	8	Agosto	2023-08-31T00:00:00	2024-11-06T13:00:00	7	Dirección del viento	3.22
116647	7	Sololá	702	San José Chacayá	5	Chacayá	8	Agosto	2023-08-31T00:00:00	2024-11-06T13:00:00	1	Precipitación	0
116648	7	Sololá	702	San José Chacayá	5	Chacayá	8	Agosto	2023-08-31T00:00:00	2024-11-06T13:00:00	8	Radiación solar	426
116649	7	Sololá	702	San José Chacayá	5	Chacayá	8	Agosto	2023-08-31T00:00:00	2024-11-06T14:00:00	2	Temperatura media	17.4
116650	7	Sololá	702	San José Chacayá	5	Chacayá	8	Agosto	2023-08-31T00:00:00	2024-11-06T14:00:00	4	Temperatura máxima	19.8
116651	7	Sololá	702	San José Chacayá	5	Chacayá	8	Agosto	2023-08-31T00:00:00	2024-11-06T14:00:00	3	Temperatura mínima	17.4
116652	7	Sololá	702	San José Chacayá	5	Chacayá	8	Agosto	2023-08-31T00:00:00	2024-11-06T14:00:00	5	Humedad	78
116653	7	Sololá	702	San José Chacayá	5	Chacayá	8	Agosto	2023-08-31T00:00:00	2024-11-06T14:00:00	6	Velocidad del viento	9.7
116654	7	Sololá	702	San José Chacayá	5	Chacayá	8	Agosto	2023-08-31T00:00:00	2024-11-06T14:00:00	7	Dirección del viento	4.83
116655	7	Sololá	702	San José Chacayá	5	Chacayá	8	Agosto	2023-08-31T00:00:00	2024-11-06T14:00:00	1	Precipitación	0
116656	7	Sololá	702	San José Chacayá	5	Chacayá	8	Agosto	2023-08-31T00:00:00	2024-11-06T14:00:00	8	Radiación solar	20
116657	7	Sololá	702	San José Chacayá	5	Chacayá	8	Agosto	2023-08-31T00:00:00	2024-11-06T15:00:00	2	Temperatura media	14.9
116658	7	Sololá	702	San José Chacayá	5	Chacayá	8	Agosto	2023-08-31T00:00:00	2024-11-06T15:00:00	4	Temperatura máxima	16.3
116659	7	Sololá	702	San José Chacayá	5	Chacayá	8	Agosto	2023-08-31T00:00:00	2024-11-06T15:00:00	3	Temperatura mínima	14.9
116660	7	Sololá	702	San José Chacayá	5	Chacayá	8	Agosto	2023-08-31T00:00:00	2024-11-06T15:00:00	5	Humedad	79
116661	7	Sololá	702	San José Chacayá	5	Chacayá	8	Agosto	2023-08-31T00:00:00	2024-11-06T15:00:00	6	Velocidad del viento	1.6
116662	7	Sololá	702	San José Chacayá	5	Chacayá	8	Agosto	2023-08-31T00:00:00	2024-11-06T15:00:00	7	Dirección del viento	0.8
116663	7	Sololá	702	San José Chacayá	5	Chacayá	8	Agosto	2023-08-31T00:00:00	2024-11-06T15:00:00	1	Precipitación	0
116664	7	Sololá	702	San José Chacayá	5	Chacayá	8	Agosto	2023-08-31T00:00:00	2024-11-06T15:00:00	8	Radiación solar	31
116665	7	Sololá	702	San José Chacayá	5	Chacayá	8	Agosto	2023-08-31T00:00:00	2024-11-06T16:00:00	2	Temperatura media	14.8
116666	7	Sololá	702	San José Chacayá	5	Chacayá	8	Agosto	2023-08-31T00:00:00	2024-11-06T16:00:00	4	Temperatura máxima	14.8
116667	7	Sololá	702	San José Chacayá	5	Chacayá	8	Agosto	2023-08-31T00:00:00	2024-11-06T16:00:00	3	Temperatura mínima	14.5
116668	7	Sololá	702	San José Chacayá	5	Chacayá	8	Agosto	2023-08-31T00:00:00	2024-11-06T16:00:00	5	Humedad	76
116669	7	Sololá	702	San José Chacayá	5	Chacayá	8	Agosto	2023-08-31T00:00:00	2024-11-06T16:00:00	6	Velocidad del viento	1.6
116670	7	Sololá	702	San José Chacayá	5	Chacayá	8	Agosto	2023-08-31T00:00:00	2024-11-06T16:00:00	7	Dirección del viento	0.8
116671	7	Sololá	702	San José Chacayá	5	Chacayá	8	Agosto	2023-08-31T00:00:00	2024-11-06T16:00:00	1	Precipitación	0
116672	7	Sololá	702	San José Chacayá	5	Chacayá	8	Agosto	2023-08-31T00:00:00	2024-11-06T16:00:00	8	Radiación solar	39
116673	7	Sololá	702	San José Chacayá	5	Chacayá	8	Agosto	2023-08-31T00:00:00	2024-11-06T17:00:00	2	Temperatura media	15.1
116674	7	Sololá	702	San José Chacayá	5	Chacayá	8	Agosto	2023-08-31T00:00:00	2024-11-06T17:00:00	4	Temperatura máxima	15.2
116675	7	Sololá	702	San José Chacayá	5	Chacayá	8	Agosto	2023-08-31T00:00:00	2024-11-06T17:00:00	3	Temperatura mínima	14.9
116676	7	Sololá	702	San José Chacayá	5	Chacayá	8	Agosto	2023-08-31T00:00:00	2024-11-06T17:00:00	5	Humedad	75
116677	7	Sololá	702	San José Chacayá	5	Chacayá	8	Agosto	2023-08-31T00:00:00	2024-11-06T17:00:00	6	Velocidad del viento	1.6
116678	7	Sololá	702	San José Chacayá	5	Chacayá	8	Agosto	2023-08-31T00:00:00	2024-11-06T17:00:00	7	Dirección del viento	0.8
116679	7	Sololá	702	San José Chacayá	5	Chacayá	8	Agosto	2023-08-31T00:00:00	2024-11-06T17:00:00	1	Precipitación	0
116680	7	Sololá	702	San José Chacayá	5	Chacayá	8	Agosto	2023-08-31T00:00:00	2024-11-06T17:00:00	8	Radiación solar	18
116681	7	Sololá	702	San José Chacayá	5	Chacayá	8	Agosto	2023-08-31T00:00:00	2024-11-06T18:00:00	2	Temperatura media	14.8
116682	7	Sololá	702	San José Chacayá	5	Chacayá	8	Agosto	2023-08-31T00:00:00	2024-11-06T18:00:00	4	Temperatura máxima	15
116683	7	Sololá	702	San José Chacayá	5	Chacayá	8	Agosto	2023-08-31T00:00:00	2024-11-06T18:00:00	3	Temperatura mínima	14.8
116684	7	Sololá	702	San José Chacayá	5	Chacayá	8	Agosto	2023-08-31T00:00:00	2024-11-06T18:00:00	5	Humedad	72
116685	7	Sololá	702	San José Chacayá	5	Chacayá	8	Agosto	2023-08-31T00:00:00	2024-11-06T18:00:00	6	Velocidad del viento	1.6
116686	7	Sololá	702	San José Chacayá	5	Chacayá	8	Agosto	2023-08-31T00:00:00	2024-11-06T18:00:00	7	Dirección del viento	0.8
116687	7	Sololá	702	San José Chacayá	5	Chacayá	8	Agosto	2023-08-31T00:00:00	2024-11-06T18:00:00	1	Precipitación	0
116688	7	Sololá	702	San José Chacayá	5	Chacayá	8	Agosto	2023-08-31T00:00:00	2024-11-06T18:00:00	8	Radiación solar	0
116689	7	Sololá	702	San José Chacayá	5	Chacayá	8	Agosto	2023-08-31T00:00:00	2024-11-06T19:00:00	2	Temperatura media	14.7
116690	7	Sololá	702	San José Chacayá	5	Chacayá	8	Agosto	2023-08-31T00:00:00	2024-11-06T19:00:00	4	Temperatura máxima	14.8
116691	7	Sololá	702	San José Chacayá	5	Chacayá	8	Agosto	2023-08-31T00:00:00	2024-11-06T19:00:00	3	Temperatura mínima	14.7
116692	7	Sololá	702	San José Chacayá	5	Chacayá	8	Agosto	2023-08-31T00:00:00	2024-11-06T19:00:00	5	Humedad	73
116693	7	Sololá	702	San José Chacayá	5	Chacayá	8	Agosto	2023-08-31T00:00:00	2024-11-06T19:00:00	6	Velocidad del viento	1.6
116694	7	Sololá	702	San José Chacayá	5	Chacayá	8	Agosto	2023-08-31T00:00:00	2024-11-06T19:00:00	7	Dirección del viento	0.8
116695	7	Sololá	702	San José Chacayá	5	Chacayá	8	Agosto	2023-08-31T00:00:00	2024-11-06T19:00:00	1	Precipitación	0
116696	7	Sololá	702	San José Chacayá	5	Chacayá	8	Agosto	2023-08-31T00:00:00	2024-11-06T19:00:00	8	Radiación solar	0
116697	7	Sololá	702	San José Chacayá	5	Chacayá	8	Agosto	2023-08-31T00:00:00	2024-11-06T20:00:00	2	Temperatura media	14.3
116698	7	Sololá	702	San José Chacayá	5	Chacayá	8	Agosto	2023-08-31T00:00:00	2024-11-06T20:00:00	4	Temperatura máxima	14.6
116699	7	Sololá	702	San José Chacayá	5	Chacayá	8	Agosto	2023-08-31T00:00:00	2024-11-06T20:00:00	3	Temperatura mínima	14.3
116700	7	Sololá	702	San José Chacayá	5	Chacayá	8	Agosto	2023-08-31T00:00:00	2024-11-06T20:00:00	5	Humedad	66
116701	7	Sololá	702	San José Chacayá	5	Chacayá	8	Agosto	2023-08-31T00:00:00	2024-11-06T20:00:00	6	Velocidad del viento	3.2
116702	7	Sololá	702	San José Chacayá	5	Chacayá	8	Agosto	2023-08-31T00:00:00	2024-11-06T20:00:00	7	Dirección del viento	1.61
116703	7	Sololá	702	San José Chacayá	5	Chacayá	8	Agosto	2023-08-31T00:00:00	2024-11-06T20:00:00	1	Precipitación	0
116704	7	Sololá	702	San José Chacayá	5	Chacayá	8	Agosto	2023-08-31T00:00:00	2024-11-06T20:00:00	8	Radiación solar	0
116705	7	Sololá	702	San José Chacayá	5	Chacayá	8	Agosto	2023-08-31T00:00:00	2024-11-06T21:00:00	2	Temperatura media	14.1
116706	7	Sololá	702	San José Chacayá	5	Chacayá	8	Agosto	2023-08-31T00:00:00	2024-11-06T21:00:00	4	Temperatura máxima	14.2
116707	7	Sololá	702	San José Chacayá	5	Chacayá	8	Agosto	2023-08-31T00:00:00	2024-11-06T21:00:00	3	Temperatura mínima	14
116708	7	Sololá	702	San José Chacayá	5	Chacayá	8	Agosto	2023-08-31T00:00:00	2024-11-06T21:00:00	5	Humedad	65
116709	7	Sololá	702	San José Chacayá	5	Chacayá	8	Agosto	2023-08-31T00:00:00	2024-11-06T21:00:00	6	Velocidad del viento	3.2
116710	7	Sololá	702	San José Chacayá	5	Chacayá	8	Agosto	2023-08-31T00:00:00	2024-11-06T21:00:00	7	Dirección del viento	1.61
116711	7	Sololá	702	San José Chacayá	5	Chacayá	8	Agosto	2023-08-31T00:00:00	2024-11-06T21:00:00	1	Precipitación	0
116712	7	Sololá	702	San José Chacayá	5	Chacayá	8	Agosto	2023-08-31T00:00:00	2024-11-06T21:00:00	8	Radiación solar	0
116713	7	Sololá	702	San José Chacayá	5	Chacayá	8	Agosto	2023-08-31T00:00:00	2024-11-06T22:00:00	2	Temperatura media	13.8
116714	7	Sololá	702	San José Chacayá	5	Chacayá	8	Agosto	2023-08-31T00:00:00	2024-11-06T22:00:00	4	Temperatura máxima	14
116715	7	Sololá	702	San José Chacayá	5	Chacayá	8	Agosto	2023-08-31T00:00:00	2024-11-06T22:00:00	3	Temperatura mínima	13.8
116716	7	Sololá	702	San José Chacayá	5	Chacayá	8	Agosto	2023-08-31T00:00:00	2024-11-06T22:00:00	5	Humedad	62
116717	7	Sololá	702	San José Chacayá	5	Chacayá	8	Agosto	2023-08-31T00:00:00	2024-11-06T22:00:00	6	Velocidad del viento	0
116718	7	Sololá	702	San José Chacayá	5	Chacayá	8	Agosto	2023-08-31T00:00:00	2024-11-06T22:00:00	7	Dirección del viento	0
116719	7	Sololá	702	San José Chacayá	5	Chacayá	8	Agosto	2023-08-31T00:00:00	2024-11-06T22:00:00	1	Precipitación	0
116720	7	Sololá	702	San José Chacayá	5	Chacayá	8	Agosto	2023-08-31T00:00:00	2024-11-06T22:00:00	8	Radiación solar	0
116721	7	Sololá	702	San José Chacayá	5	Chacayá	8	Agosto	2023-08-31T00:00:00	2024-11-06T23:00:00	2	Temperatura media	13.4
116722	7	Sololá	702	San José Chacayá	5	Chacayá	8	Agosto	2023-08-31T00:00:00	2024-11-06T23:00:00	4	Temperatura máxima	13.6
116723	7	Sololá	702	San José Chacayá	5	Chacayá	8	Agosto	2023-08-31T00:00:00	2024-11-06T23:00:00	3	Temperatura mínima	13.4
116724	7	Sololá	702	San José Chacayá	5	Chacayá	8	Agosto	2023-08-31T00:00:00	2024-11-06T23:00:00	5	Humedad	60
116725	7	Sololá	702	San José Chacayá	5	Chacayá	8	Agosto	2023-08-31T00:00:00	2024-11-06T23:00:00	6	Velocidad del viento	1.6
116726	7	Sololá	702	San José Chacayá	5	Chacayá	8	Agosto	2023-08-31T00:00:00	2024-11-06T23:00:00	7	Dirección del viento	0.8
116727	7	Sololá	702	San José Chacayá	5	Chacayá	8	Agosto	2023-08-31T00:00:00	2024-11-06T23:00:00	1	Precipitación	0
116728	7	Sololá	702	San José Chacayá	5	Chacayá	8	Agosto	2023-08-31T00:00:00	2024-11-06T23:00:00	8	Radiación solar	0
116729	7	Sololá	702	San José Chacayá	5	Chacayá	9	Septiembre	2023-01-09T00:00:00	2024-11-06T00:00:00	2	Temperatura media	13.5
116730	7	Sololá	702	San José Chacayá	5	Chacayá	9	Septiembre	2023-01-09T00:00:00	2024-11-06T00:00:00	4	Temperatura máxima	13.5
116731	7	Sololá	702	San José Chacayá	5	Chacayá	9	Septiembre	2023-01-09T00:00:00	2024-11-06T00:00:00	3	Temperatura mínima	13.3
116732	7	Sololá	702	San José Chacayá	5	Chacayá	9	Septiembre	2023-01-09T00:00:00	2024-11-06T00:00:00	5	Humedad	66
116733	7	Sololá	702	San José Chacayá	5	Chacayá	9	Septiembre	2023-01-09T00:00:00	2024-11-06T00:00:00	6	Velocidad del viento	1.6
116734	7	Sololá	702	San José Chacayá	5	Chacayá	9	Septiembre	2023-01-09T00:00:00	2024-11-06T00:00:00	7	Dirección del viento	0.8
116735	7	Sololá	702	San José Chacayá	5	Chacayá	9	Septiembre	2023-01-09T00:00:00	2024-11-06T00:00:00	1	Precipitación	0
116736	7	Sololá	702	San José Chacayá	5	Chacayá	9	Septiembre	2023-01-09T00:00:00	2024-11-06T00:00:00	8	Radiación solar	0
116737	7	Sololá	702	San José Chacayá	5	Chacayá	9	Septiembre	2023-01-09T00:00:00	2024-11-06T01:00:00	2	Temperatura media	13
116738	7	Sololá	702	San José Chacayá	5	Chacayá	9	Septiembre	2023-01-09T00:00:00	2024-11-06T01:00:00	4	Temperatura máxima	13.2
116739	7	Sololá	702	San José Chacayá	5	Chacayá	9	Septiembre	2023-01-09T00:00:00	2024-11-06T01:00:00	3	Temperatura mínima	12.9
116740	7	Sololá	702	San José Chacayá	5	Chacayá	9	Septiembre	2023-01-09T00:00:00	2024-11-06T01:00:00	5	Humedad	79
116741	7	Sololá	702	San José Chacayá	5	Chacayá	9	Septiembre	2023-01-09T00:00:00	2024-11-06T01:00:00	6	Velocidad del viento	4.8
116742	7	Sololá	702	San José Chacayá	5	Chacayá	9	Septiembre	2023-01-09T00:00:00	2024-11-06T01:00:00	7	Dirección del viento	2.41
116743	7	Sololá	702	San José Chacayá	5	Chacayá	9	Septiembre	2023-01-09T00:00:00	2024-11-06T01:00:00	1	Precipitación	2.29
116744	7	Sololá	702	San José Chacayá	5	Chacayá	9	Septiembre	2023-01-09T00:00:00	2024-11-06T01:00:00	8	Radiación solar	0
116745	7	Sololá	702	San José Chacayá	5	Chacayá	9	Septiembre	2023-01-09T00:00:00	2024-11-06T02:00:00	2	Temperatura media	12.8
116746	7	Sololá	702	San José Chacayá	5	Chacayá	9	Septiembre	2023-01-09T00:00:00	2024-11-06T02:00:00	4	Temperatura máxima	12.9
116747	7	Sololá	702	San José Chacayá	5	Chacayá	9	Septiembre	2023-01-09T00:00:00	2024-11-06T02:00:00	3	Temperatura mínima	12.8
116748	7	Sololá	702	San José Chacayá	5	Chacayá	9	Septiembre	2023-01-09T00:00:00	2024-11-06T02:00:00	5	Humedad	74
116749	7	Sololá	702	San José Chacayá	5	Chacayá	9	Septiembre	2023-01-09T00:00:00	2024-11-06T02:00:00	6	Velocidad del viento	3.2
116750	7	Sololá	702	San José Chacayá	5	Chacayá	9	Septiembre	2023-01-09T00:00:00	2024-11-06T02:00:00	7	Dirección del viento	1.61
116751	7	Sololá	702	San José Chacayá	5	Chacayá	9	Septiembre	2023-01-09T00:00:00	2024-11-06T02:00:00	1	Precipitación	2.29
116752	7	Sololá	702	San José Chacayá	5	Chacayá	9	Septiembre	2023-01-09T00:00:00	2024-11-06T02:00:00	8	Radiación solar	0
116753	7	Sololá	702	San José Chacayá	5	Chacayá	9	Septiembre	2023-01-09T00:00:00	2024-11-06T03:00:00	2	Temperatura media	12.6
116754	7	Sololá	702	San José Chacayá	5	Chacayá	9	Septiembre	2023-01-09T00:00:00	2024-11-06T03:00:00	4	Temperatura máxima	12.7
116755	7	Sololá	702	San José Chacayá	5	Chacayá	9	Septiembre	2023-01-09T00:00:00	2024-11-06T03:00:00	3	Temperatura mínima	12.6
116756	7	Sololá	702	San José Chacayá	5	Chacayá	9	Septiembre	2023-01-09T00:00:00	2024-11-06T03:00:00	5	Humedad	74
116757	7	Sololá	702	San José Chacayá	5	Chacayá	9	Septiembre	2023-01-09T00:00:00	2024-11-06T03:00:00	6	Velocidad del viento	4.8
116758	7	Sololá	702	San José Chacayá	5	Chacayá	9	Septiembre	2023-01-09T00:00:00	2024-11-06T03:00:00	7	Dirección del viento	2.41
116759	7	Sololá	702	San José Chacayá	5	Chacayá	9	Septiembre	2023-01-09T00:00:00	2024-11-06T03:00:00	1	Precipitación	0.25
116760	7	Sololá	702	San José Chacayá	5	Chacayá	9	Septiembre	2023-01-09T00:00:00	2024-11-06T03:00:00	8	Radiación solar	0
116761	7	Sololá	702	San José Chacayá	5	Chacayá	9	Septiembre	2023-01-09T00:00:00	2024-11-06T04:00:00	2	Temperatura media	12.3
116762	7	Sololá	702	San José Chacayá	5	Chacayá	9	Septiembre	2023-01-09T00:00:00	2024-11-06T04:00:00	4	Temperatura máxima	12.4
116763	7	Sololá	702	San José Chacayá	5	Chacayá	9	Septiembre	2023-01-09T00:00:00	2024-11-06T04:00:00	3	Temperatura mínima	12.3
116764	7	Sololá	702	San José Chacayá	5	Chacayá	9	Septiembre	2023-01-09T00:00:00	2024-11-06T04:00:00	5	Humedad	80
116765	7	Sololá	702	San José Chacayá	5	Chacayá	9	Septiembre	2023-01-09T00:00:00	2024-11-06T04:00:00	6	Velocidad del viento	6.4
116766	7	Sololá	702	San José Chacayá	5	Chacayá	9	Septiembre	2023-01-09T00:00:00	2024-11-06T04:00:00	7	Dirección del viento	3.22
116767	7	Sololá	702	San José Chacayá	5	Chacayá	9	Septiembre	2023-01-09T00:00:00	2024-11-06T04:00:00	1	Precipitación	0
116768	7	Sololá	702	San José Chacayá	5	Chacayá	9	Septiembre	2023-01-09T00:00:00	2024-11-06T04:00:00	8	Radiación solar	0
116769	7	Sololá	702	San José Chacayá	5	Chacayá	9	Septiembre	2023-01-09T00:00:00	2024-11-06T05:00:00	2	Temperatura media	11.9
116770	7	Sololá	702	San José Chacayá	5	Chacayá	9	Septiembre	2023-01-09T00:00:00	2024-11-06T05:00:00	4	Temperatura máxima	12.1
116771	7	Sololá	702	San José Chacayá	5	Chacayá	9	Septiembre	2023-01-09T00:00:00	2024-11-06T05:00:00	3	Temperatura mínima	11.9
116772	7	Sololá	702	San José Chacayá	5	Chacayá	9	Septiembre	2023-01-09T00:00:00	2024-11-06T05:00:00	5	Humedad	80
116773	7	Sololá	702	San José Chacayá	5	Chacayá	9	Septiembre	2023-01-09T00:00:00	2024-11-06T05:00:00	6	Velocidad del viento	4.8
116774	7	Sololá	702	San José Chacayá	5	Chacayá	9	Septiembre	2023-01-09T00:00:00	2024-11-06T05:00:00	7	Dirección del viento	2.41
116775	7	Sololá	702	San José Chacayá	5	Chacayá	9	Septiembre	2023-01-09T00:00:00	2024-11-06T05:00:00	1	Precipitación	0
116776	7	Sololá	702	San José Chacayá	5	Chacayá	9	Septiembre	2023-01-09T00:00:00	2024-11-06T05:00:00	8	Radiación solar	0
116777	7	Sololá	702	San José Chacayá	5	Chacayá	9	Septiembre	2023-01-09T00:00:00	2024-11-06T06:00:00	2	Temperatura media	11.3
116778	7	Sololá	702	San José Chacayá	5	Chacayá	9	Septiembre	2023-01-09T00:00:00	2024-11-06T06:00:00	4	Temperatura máxima	11.7
116779	7	Sololá	702	San José Chacayá	5	Chacayá	9	Septiembre	2023-01-09T00:00:00	2024-11-06T06:00:00	3	Temperatura mínima	11.3
116780	7	Sololá	702	San José Chacayá	5	Chacayá	9	Septiembre	2023-01-09T00:00:00	2024-11-06T06:00:00	5	Humedad	78
116781	7	Sololá	702	San José Chacayá	5	Chacayá	9	Septiembre	2023-01-09T00:00:00	2024-11-06T06:00:00	6	Velocidad del viento	4.8
116782	7	Sololá	702	San José Chacayá	5	Chacayá	9	Septiembre	2023-01-09T00:00:00	2024-11-06T06:00:00	7	Dirección del viento	2.41
116783	7	Sololá	702	San José Chacayá	5	Chacayá	9	Septiembre	2023-01-09T00:00:00	2024-11-06T06:00:00	1	Precipitación	0
116784	7	Sololá	702	San José Chacayá	5	Chacayá	9	Septiembre	2023-01-09T00:00:00	2024-11-06T06:00:00	8	Radiación solar	2
116785	7	Sololá	702	San José Chacayá	5	Chacayá	9	Septiembre	2023-01-09T00:00:00	2024-11-06T07:00:00	2	Temperatura media	12.5
116786	7	Sololá	702	San José Chacayá	5	Chacayá	9	Septiembre	2023-01-09T00:00:00	2024-11-06T07:00:00	4	Temperatura máxima	12.5
116787	7	Sololá	702	San José Chacayá	5	Chacayá	9	Septiembre	2023-01-09T00:00:00	2024-11-06T07:00:00	3	Temperatura mínima	11.5
116788	7	Sololá	702	San José Chacayá	5	Chacayá	9	Septiembre	2023-01-09T00:00:00	2024-11-06T07:00:00	5	Humedad	75
116789	7	Sololá	702	San José Chacayá	5	Chacayá	9	Septiembre	2023-01-09T00:00:00	2024-11-06T07:00:00	6	Velocidad del viento	3.2
116790	7	Sololá	702	San José Chacayá	5	Chacayá	9	Septiembre	2023-01-09T00:00:00	2024-11-06T07:00:00	7	Dirección del viento	1.61
116791	7	Sololá	702	San José Chacayá	5	Chacayá	9	Septiembre	2023-01-09T00:00:00	2024-11-06T07:00:00	1	Precipitación	0
116792	7	Sololá	702	San José Chacayá	5	Chacayá	9	Septiembre	2023-01-09T00:00:00	2024-11-06T07:00:00	8	Radiación solar	38
116793	7	Sololá	702	San José Chacayá	5	Chacayá	9	Septiembre	2023-01-09T00:00:00	2024-11-06T08:00:00	2	Temperatura media	18.4
116794	7	Sololá	702	San José Chacayá	5	Chacayá	9	Septiembre	2023-01-09T00:00:00	2024-11-06T08:00:00	4	Temperatura máxima	18.4
116795	7	Sololá	702	San José Chacayá	5	Chacayá	9	Septiembre	2023-01-09T00:00:00	2024-11-06T08:00:00	3	Temperatura mínima	16
116796	7	Sololá	702	San José Chacayá	5	Chacayá	9	Septiembre	2023-01-09T00:00:00	2024-11-06T08:00:00	5	Humedad	68
116797	7	Sololá	702	San José Chacayá	5	Chacayá	9	Septiembre	2023-01-09T00:00:00	2024-11-06T08:00:00	6	Velocidad del viento	3.2
116798	7	Sololá	702	San José Chacayá	5	Chacayá	9	Septiembre	2023-01-09T00:00:00	2024-11-06T08:00:00	7	Dirección del viento	1.61
116799	7	Sololá	702	San José Chacayá	5	Chacayá	9	Septiembre	2023-01-09T00:00:00	2024-11-06T08:00:00	1	Precipitación	0
116800	7	Sololá	702	San José Chacayá	5	Chacayá	9	Septiembre	2023-01-09T00:00:00	2024-11-06T08:00:00	8	Radiación solar	63
116801	7	Sololá	702	San José Chacayá	5	Chacayá	9	Septiembre	2023-01-09T00:00:00	2024-11-06T09:00:00	2	Temperatura media	20.6
116802	7	Sololá	702	San José Chacayá	5	Chacayá	9	Septiembre	2023-01-09T00:00:00	2024-11-06T09:00:00	4	Temperatura máxima	20.7
116803	7	Sololá	702	San José Chacayá	5	Chacayá	9	Septiembre	2023-01-09T00:00:00	2024-11-06T09:00:00	3	Temperatura mínima	20.2
116804	7	Sololá	702	San José Chacayá	5	Chacayá	9	Septiembre	2023-01-09T00:00:00	2024-11-06T09:00:00	5	Humedad	62
116805	7	Sololá	702	San José Chacayá	5	Chacayá	9	Septiembre	2023-01-09T00:00:00	2024-11-06T09:00:00	6	Velocidad del viento	6.4
116806	7	Sololá	702	San José Chacayá	5	Chacayá	9	Septiembre	2023-01-09T00:00:00	2024-11-06T09:00:00	7	Dirección del viento	3.22
116807	7	Sololá	702	San José Chacayá	5	Chacayá	9	Septiembre	2023-01-09T00:00:00	2024-11-06T09:00:00	1	Precipitación	0.25
116808	7	Sololá	702	San José Chacayá	5	Chacayá	9	Septiembre	2023-01-09T00:00:00	2024-11-06T09:00:00	8	Radiación solar	582
116809	7	Sololá	702	San José Chacayá	5	Chacayá	9	Septiembre	2023-01-09T00:00:00	2024-11-06T10:00:00	2	Temperatura media	21.8
116810	7	Sololá	702	San José Chacayá	5	Chacayá	9	Septiembre	2023-01-09T00:00:00	2024-11-06T10:00:00	4	Temperatura máxima	21.8
116811	7	Sololá	702	San José Chacayá	5	Chacayá	9	Septiembre	2023-01-09T00:00:00	2024-11-06T10:00:00	3	Temperatura mínima	20.8
116812	7	Sololá	702	San José Chacayá	5	Chacayá	9	Septiembre	2023-01-09T00:00:00	2024-11-06T10:00:00	5	Humedad	59
116813	7	Sololá	702	San José Chacayá	5	Chacayá	9	Septiembre	2023-01-09T00:00:00	2024-11-06T10:00:00	6	Velocidad del viento	6.4
116814	7	Sololá	702	San José Chacayá	5	Chacayá	9	Septiembre	2023-01-09T00:00:00	2024-11-06T10:00:00	7	Dirección del viento	3.22
116815	7	Sololá	702	San José Chacayá	5	Chacayá	9	Septiembre	2023-01-09T00:00:00	2024-11-06T10:00:00	1	Precipitación	0
116816	7	Sololá	702	San José Chacayá	5	Chacayá	9	Septiembre	2023-01-09T00:00:00	2024-11-06T10:00:00	8	Radiación solar	768
116817	7	Sololá	702	San José Chacayá	5	Chacayá	9	Septiembre	2023-01-09T00:00:00	2024-11-06T11:00:00	2	Temperatura media	22.9
116818	7	Sololá	702	San José Chacayá	5	Chacayá	9	Septiembre	2023-01-09T00:00:00	2024-11-06T11:00:00	4	Temperatura máxima	23.2
116819	7	Sololá	702	San José Chacayá	5	Chacayá	9	Septiembre	2023-01-09T00:00:00	2024-11-06T11:00:00	3	Temperatura mínima	22.5
116820	7	Sololá	702	San José Chacayá	5	Chacayá	9	Septiembre	2023-01-09T00:00:00	2024-11-06T11:00:00	5	Humedad	57
116821	7	Sololá	702	San José Chacayá	5	Chacayá	9	Septiembre	2023-01-09T00:00:00	2024-11-06T11:00:00	6	Velocidad del viento	6.4
116822	7	Sololá	702	San José Chacayá	5	Chacayá	9	Septiembre	2023-01-09T00:00:00	2024-11-06T11:00:00	7	Dirección del viento	3.22
116823	7	Sololá	702	San José Chacayá	5	Chacayá	9	Septiembre	2023-01-09T00:00:00	2024-11-06T11:00:00	1	Precipitación	0
116824	7	Sololá	702	San José Chacayá	5	Chacayá	9	Septiembre	2023-01-09T00:00:00	2024-11-06T11:00:00	8	Radiación solar	932
116825	7	Sololá	702	San José Chacayá	5	Chacayá	9	Septiembre	2023-01-09T00:00:00	2024-11-06T12:00:00	2	Temperatura media	24.3
116826	7	Sololá	702	San José Chacayá	5	Chacayá	9	Septiembre	2023-01-09T00:00:00	2024-11-06T12:00:00	4	Temperatura máxima	24.3
116827	7	Sololá	702	San José Chacayá	5	Chacayá	9	Septiembre	2023-01-09T00:00:00	2024-11-06T12:00:00	3	Temperatura mínima	23.7
116828	7	Sololá	702	San José Chacayá	5	Chacayá	9	Septiembre	2023-01-09T00:00:00	2024-11-06T12:00:00	5	Humedad	54
116829	7	Sololá	702	San José Chacayá	5	Chacayá	9	Septiembre	2023-01-09T00:00:00	2024-11-06T12:00:00	6	Velocidad del viento	4.8
116830	7	Sololá	702	San José Chacayá	5	Chacayá	9	Septiembre	2023-01-09T00:00:00	2024-11-06T12:00:00	7	Dirección del viento	2.41
116831	7	Sololá	702	San José Chacayá	5	Chacayá	9	Septiembre	2023-01-09T00:00:00	2024-11-06T12:00:00	1	Precipitación	0
116832	7	Sololá	702	San José Chacayá	5	Chacayá	9	Septiembre	2023-01-09T00:00:00	2024-11-06T12:00:00	8	Radiación solar	1004
116833	7	Sololá	702	San José Chacayá	5	Chacayá	9	Septiembre	2023-01-09T00:00:00	2024-11-06T13:00:00	2	Temperatura media	24.8
116834	7	Sololá	702	San José Chacayá	5	Chacayá	9	Septiembre	2023-01-09T00:00:00	2024-11-06T13:00:00	4	Temperatura máxima	24.8
116835	7	Sololá	702	San José Chacayá	5	Chacayá	9	Septiembre	2023-01-09T00:00:00	2024-11-06T13:00:00	3	Temperatura mínima	24.2
116836	7	Sololá	702	San José Chacayá	5	Chacayá	9	Septiembre	2023-01-09T00:00:00	2024-11-06T13:00:00	5	Humedad	54
116837	7	Sololá	702	San José Chacayá	5	Chacayá	9	Septiembre	2023-01-09T00:00:00	2024-11-06T13:00:00	6	Velocidad del viento	8
116838	7	Sololá	702	San José Chacayá	5	Chacayá	9	Septiembre	2023-01-09T00:00:00	2024-11-06T13:00:00	7	Dirección del viento	4.02
116839	7	Sololá	702	San José Chacayá	5	Chacayá	9	Septiembre	2023-01-09T00:00:00	2024-11-06T13:00:00	1	Precipitación	0
116840	7	Sololá	702	San José Chacayá	5	Chacayá	9	Septiembre	2023-01-09T00:00:00	2024-11-06T13:00:00	8	Radiación solar	1042
116841	7	Sololá	702	San José Chacayá	5	Chacayá	9	Septiembre	2023-01-09T00:00:00	2024-11-06T14:00:00	2	Temperatura media	23.7
116842	7	Sololá	702	San José Chacayá	5	Chacayá	9	Septiembre	2023-01-09T00:00:00	2024-11-06T14:00:00	4	Temperatura máxima	25.6
116843	7	Sololá	702	San José Chacayá	5	Chacayá	9	Septiembre	2023-01-09T00:00:00	2024-11-06T14:00:00	3	Temperatura mínima	23.3
116844	7	Sololá	702	San José Chacayá	5	Chacayá	9	Septiembre	2023-01-09T00:00:00	2024-11-06T14:00:00	5	Humedad	66
116845	7	Sololá	702	San José Chacayá	5	Chacayá	9	Septiembre	2023-01-09T00:00:00	2024-11-06T14:00:00	6	Velocidad del viento	8
116846	7	Sololá	702	San José Chacayá	5	Chacayá	9	Septiembre	2023-01-09T00:00:00	2024-11-06T14:00:00	7	Dirección del viento	4.02
116847	7	Sololá	702	San José Chacayá	5	Chacayá	9	Septiembre	2023-01-09T00:00:00	2024-11-06T14:00:00	1	Precipitación	0
116848	7	Sololá	702	San José Chacayá	5	Chacayá	9	Septiembre	2023-01-09T00:00:00	2024-11-06T14:00:00	8	Radiación solar	949
116849	7	Sololá	702	San José Chacayá	5	Chacayá	9	Septiembre	2023-01-09T00:00:00	2024-11-06T15:00:00	2	Temperatura media	23.1
116850	7	Sololá	702	San José Chacayá	5	Chacayá	9	Septiembre	2023-01-09T00:00:00	2024-11-06T15:00:00	4	Temperatura máxima	23.9
116851	7	Sololá	702	San José Chacayá	5	Chacayá	9	Septiembre	2023-01-09T00:00:00	2024-11-06T15:00:00	3	Temperatura mínima	22.9
116852	7	Sololá	702	San José Chacayá	5	Chacayá	9	Septiembre	2023-01-09T00:00:00	2024-11-06T15:00:00	5	Humedad	73
116853	7	Sololá	702	San José Chacayá	5	Chacayá	9	Septiembre	2023-01-09T00:00:00	2024-11-06T15:00:00	6	Velocidad del viento	4.8
116854	7	Sololá	702	San José Chacayá	5	Chacayá	9	Septiembre	2023-01-09T00:00:00	2024-11-06T15:00:00	7	Dirección del viento	2.41
116855	7	Sololá	702	San José Chacayá	5	Chacayá	9	Septiembre	2023-01-09T00:00:00	2024-11-06T15:00:00	1	Precipitación	0
116856	7	Sololá	702	San José Chacayá	5	Chacayá	9	Septiembre	2023-01-09T00:00:00	2024-11-06T15:00:00	8	Radiación solar	835
116857	7	Sololá	702	San José Chacayá	5	Chacayá	9	Septiembre	2023-01-09T00:00:00	2024-11-06T16:00:00	2	Temperatura media	21.6
116858	7	Sololá	702	San José Chacayá	5	Chacayá	9	Septiembre	2023-01-09T00:00:00	2024-11-06T16:00:00	4	Temperatura máxima	22.9
116859	7	Sololá	702	San José Chacayá	5	Chacayá	9	Septiembre	2023-01-09T00:00:00	2024-11-06T16:00:00	3	Temperatura mínima	21.5
116860	7	Sololá	702	San José Chacayá	5	Chacayá	9	Septiembre	2023-01-09T00:00:00	2024-11-06T16:00:00	5	Humedad	77
116861	7	Sololá	702	San José Chacayá	5	Chacayá	9	Septiembre	2023-01-09T00:00:00	2024-11-06T16:00:00	6	Velocidad del viento	4.8
116862	7	Sololá	702	San José Chacayá	5	Chacayá	9	Septiembre	2023-01-09T00:00:00	2024-11-06T16:00:00	7	Dirección del viento	2.41
116863	7	Sololá	702	San José Chacayá	5	Chacayá	9	Septiembre	2023-01-09T00:00:00	2024-11-06T16:00:00	1	Precipitación	0
116864	7	Sololá	702	San José Chacayá	5	Chacayá	9	Septiembre	2023-01-09T00:00:00	2024-11-06T16:00:00	8	Radiación solar	434
116865	7	Sololá	702	San José Chacayá	5	Chacayá	9	Septiembre	2023-01-09T00:00:00	2024-11-06T17:00:00	2	Temperatura media	19.8
116866	7	Sololá	702	San José Chacayá	5	Chacayá	9	Septiembre	2023-01-09T00:00:00	2024-11-06T17:00:00	4	Temperatura máxima	20.4
116867	7	Sololá	702	San José Chacayá	5	Chacayá	9	Septiembre	2023-01-09T00:00:00	2024-11-06T17:00:00	3	Temperatura mínima	19.8
116868	7	Sololá	702	San José Chacayá	5	Chacayá	9	Septiembre	2023-01-09T00:00:00	2024-11-06T17:00:00	5	Humedad	80
116869	7	Sololá	702	San José Chacayá	5	Chacayá	9	Septiembre	2023-01-09T00:00:00	2024-11-06T17:00:00	6	Velocidad del viento	1.6
116870	7	Sololá	702	San José Chacayá	5	Chacayá	9	Septiembre	2023-01-09T00:00:00	2024-11-06T17:00:00	7	Dirección del viento	0.8
116871	7	Sololá	702	San José Chacayá	5	Chacayá	9	Septiembre	2023-01-09T00:00:00	2024-11-06T17:00:00	1	Precipitación	0
116872	7	Sololá	702	San José Chacayá	5	Chacayá	9	Septiembre	2023-01-09T00:00:00	2024-11-06T17:00:00	8	Radiación solar	72
116873	7	Sololá	702	San José Chacayá	5	Chacayá	9	Septiembre	2023-01-09T00:00:00	2024-11-06T18:00:00	2	Temperatura media	18.1
116874	7	Sololá	702	San José Chacayá	5	Chacayá	9	Septiembre	2023-01-09T00:00:00	2024-11-06T18:00:00	4	Temperatura máxima	18.9
116875	7	Sololá	702	San José Chacayá	5	Chacayá	9	Septiembre	2023-01-09T00:00:00	2024-11-06T18:00:00	3	Temperatura mínima	18.1
116876	7	Sololá	702	San José Chacayá	5	Chacayá	9	Septiembre	2023-01-09T00:00:00	2024-11-06T18:00:00	5	Humedad	76
116877	7	Sololá	702	San José Chacayá	5	Chacayá	9	Septiembre	2023-01-09T00:00:00	2024-11-06T18:00:00	6	Velocidad del viento	0
116878	7	Sololá	702	San José Chacayá	5	Chacayá	9	Septiembre	2023-01-09T00:00:00	2024-11-06T18:00:00	7	Dirección del viento	0
116879	7	Sololá	702	San José Chacayá	5	Chacayá	9	Septiembre	2023-01-09T00:00:00	2024-11-06T18:00:00	1	Precipitación	0
116880	7	Sololá	702	San José Chacayá	5	Chacayá	9	Septiembre	2023-01-09T00:00:00	2024-11-06T18:00:00	8	Radiación solar	17
116881	7	Sololá	702	San José Chacayá	5	Chacayá	9	Septiembre	2023-01-09T00:00:00	2024-11-06T19:00:00	2	Temperatura media	15.3
116882	7	Sololá	702	San José Chacayá	5	Chacayá	9	Septiembre	2023-01-09T00:00:00	2024-11-06T19:00:00	4	Temperatura máxima	17.6
116883	7	Sololá	702	San José Chacayá	5	Chacayá	9	Septiembre	2023-01-09T00:00:00	2024-11-06T19:00:00	3	Temperatura mínima	15.3
116884	7	Sololá	702	San José Chacayá	5	Chacayá	9	Septiembre	2023-01-09T00:00:00	2024-11-06T19:00:00	5	Humedad	80
116885	7	Sololá	702	San José Chacayá	5	Chacayá	9	Septiembre	2023-01-09T00:00:00	2024-11-06T19:00:00	6	Velocidad del viento	4.8
116886	7	Sololá	702	San José Chacayá	5	Chacayá	9	Septiembre	2023-01-09T00:00:00	2024-11-06T19:00:00	7	Dirección del viento	2.41
116887	7	Sololá	702	San José Chacayá	5	Chacayá	9	Septiembre	2023-01-09T00:00:00	2024-11-06T19:00:00	1	Precipitación	0
116888	7	Sololá	702	San José Chacayá	5	Chacayá	9	Septiembre	2023-01-09T00:00:00	2024-11-06T19:00:00	8	Radiación solar	0
116889	7	Sololá	702	San José Chacayá	5	Chacayá	9	Septiembre	2023-01-09T00:00:00	2024-11-06T20:00:00	2	Temperatura media	14.8
116890	7	Sololá	702	San José Chacayá	5	Chacayá	9	Septiembre	2023-01-09T00:00:00	2024-11-06T20:00:00	4	Temperatura máxima	14.8
116891	7	Sololá	702	San José Chacayá	5	Chacayá	9	Septiembre	2023-01-09T00:00:00	2024-11-06T20:00:00	3	Temperatura mínima	14.2
116892	7	Sololá	702	San José Chacayá	5	Chacayá	9	Septiembre	2023-01-09T00:00:00	2024-11-06T20:00:00	5	Humedad	79
116893	7	Sololá	702	San José Chacayá	5	Chacayá	9	Septiembre	2023-01-09T00:00:00	2024-11-06T20:00:00	6	Velocidad del viento	4.8
116894	7	Sololá	702	San José Chacayá	5	Chacayá	9	Septiembre	2023-01-09T00:00:00	2024-11-06T20:00:00	7	Dirección del viento	2.41
116895	7	Sololá	702	San José Chacayá	5	Chacayá	9	Septiembre	2023-01-09T00:00:00	2024-11-06T20:00:00	1	Precipitación	0
116896	7	Sololá	702	San José Chacayá	5	Chacayá	9	Septiembre	2023-01-09T00:00:00	2024-11-06T20:00:00	8	Radiación solar	0
116897	7	Sololá	702	San José Chacayá	5	Chacayá	9	Septiembre	2023-01-09T00:00:00	2024-11-06T21:00:00	2	Temperatura media	14.4
116898	7	Sololá	702	San José Chacayá	5	Chacayá	9	Septiembre	2023-01-09T00:00:00	2024-11-06T21:00:00	4	Temperatura máxima	14.9
116899	7	Sololá	702	San José Chacayá	5	Chacayá	9	Septiembre	2023-01-09T00:00:00	2024-11-06T21:00:00	3	Temperatura mínima	14.4
116900	7	Sololá	702	San José Chacayá	5	Chacayá	9	Septiembre	2023-01-09T00:00:00	2024-11-06T21:00:00	5	Humedad	74
116901	7	Sololá	702	San José Chacayá	5	Chacayá	9	Septiembre	2023-01-09T00:00:00	2024-11-06T21:00:00	6	Velocidad del viento	0
116902	7	Sololá	702	San José Chacayá	5	Chacayá	9	Septiembre	2023-01-09T00:00:00	2024-11-06T21:00:00	7	Dirección del viento	0
116903	7	Sololá	702	San José Chacayá	5	Chacayá	9	Septiembre	2023-01-09T00:00:00	2024-11-06T21:00:00	1	Precipitación	0
116904	7	Sololá	702	San José Chacayá	5	Chacayá	9	Septiembre	2023-01-09T00:00:00	2024-11-06T21:00:00	8	Radiación solar	0
116905	7	Sololá	702	San José Chacayá	5	Chacayá	9	Septiembre	2023-01-09T00:00:00	2024-11-06T22:00:00	2	Temperatura media	14.1
116906	7	Sololá	702	San José Chacayá	5	Chacayá	9	Septiembre	2023-01-09T00:00:00	2024-11-06T22:00:00	4	Temperatura máxima	14.4
116907	7	Sololá	702	San José Chacayá	5	Chacayá	9	Septiembre	2023-01-09T00:00:00	2024-11-06T22:00:00	3	Temperatura mínima	14.1
116908	7	Sololá	702	San José Chacayá	5	Chacayá	9	Septiembre	2023-01-09T00:00:00	2024-11-06T22:00:00	5	Humedad	68
116909	7	Sololá	702	San José Chacayá	5	Chacayá	9	Septiembre	2023-01-09T00:00:00	2024-11-06T22:00:00	6	Velocidad del viento	0
116910	7	Sololá	702	San José Chacayá	5	Chacayá	9	Septiembre	2023-01-09T00:00:00	2024-11-06T22:00:00	7	Dirección del viento	0
116911	7	Sololá	702	San José Chacayá	5	Chacayá	9	Septiembre	2023-01-09T00:00:00	2024-11-06T22:00:00	1	Precipitación	0
116912	7	Sololá	702	San José Chacayá	5	Chacayá	9	Septiembre	2023-01-09T00:00:00	2024-11-06T22:00:00	8	Radiación solar	0
116913	7	Sololá	702	San José Chacayá	5	Chacayá	9	Septiembre	2023-01-09T00:00:00	2024-11-06T23:00:00	2	Temperatura media	14.9
116914	7	Sololá	702	San José Chacayá	5	Chacayá	9	Septiembre	2023-01-09T00:00:00	2024-11-06T23:00:00	4	Temperatura máxima	14.9
116915	7	Sololá	702	San José Chacayá	5	Chacayá	9	Septiembre	2023-01-09T00:00:00	2024-11-06T23:00:00	3	Temperatura mínima	13.9
116916	7	Sololá	702	San José Chacayá	5	Chacayá	9	Septiembre	2023-01-09T00:00:00	2024-11-06T23:00:00	5	Humedad	82
116917	7	Sololá	702	San José Chacayá	5	Chacayá	9	Septiembre	2023-01-09T00:00:00	2024-11-06T23:00:00	6	Velocidad del viento	4.8
116918	7	Sololá	702	San José Chacayá	5	Chacayá	9	Septiembre	2023-01-09T00:00:00	2024-11-06T23:00:00	7	Dirección del viento	2.41
116919	7	Sololá	702	San José Chacayá	5	Chacayá	9	Septiembre	2023-01-09T00:00:00	2024-11-06T23:00:00	1	Precipitación	0
116920	7	Sololá	702	San José Chacayá	5	Chacayá	9	Septiembre	2023-01-09T00:00:00	2024-11-06T23:00:00	8	Radiación solar	0
116921	7	Sololá	702	San José Chacayá	5	Chacayá	9	Septiembre	2023-02-09T00:00:00	2024-11-06T00:00:00	2	Temperatura media	15.2
116922	7	Sololá	702	San José Chacayá	5	Chacayá	9	Septiembre	2023-02-09T00:00:00	2024-11-06T00:00:00	4	Temperatura máxima	15.2
116923	7	Sololá	702	San José Chacayá	5	Chacayá	9	Septiembre	2023-02-09T00:00:00	2024-11-06T00:00:00	3	Temperatura mínima	15.1
116924	7	Sololá	702	San José Chacayá	5	Chacayá	9	Septiembre	2023-02-09T00:00:00	2024-11-06T00:00:00	5	Humedad	82
116925	7	Sololá	702	San José Chacayá	5	Chacayá	9	Septiembre	2023-02-09T00:00:00	2024-11-06T00:00:00	6	Velocidad del viento	3.2
116926	7	Sololá	702	San José Chacayá	5	Chacayá	9	Septiembre	2023-02-09T00:00:00	2024-11-06T00:00:00	7	Dirección del viento	1.61
116927	7	Sololá	702	San José Chacayá	5	Chacayá	9	Septiembre	2023-02-09T00:00:00	2024-11-06T00:00:00	1	Precipitación	0
116928	7	Sololá	702	San José Chacayá	5	Chacayá	9	Septiembre	2023-02-09T00:00:00	2024-11-06T00:00:00	8	Radiación solar	0
116929	7	Sololá	702	San José Chacayá	5	Chacayá	9	Septiembre	2023-02-09T00:00:00	2024-11-06T01:00:00	2	Temperatura media	15.2
116930	7	Sololá	702	San José Chacayá	5	Chacayá	9	Septiembre	2023-02-09T00:00:00	2024-11-06T01:00:00	4	Temperatura máxima	15.2
116931	7	Sololá	702	San José Chacayá	5	Chacayá	9	Septiembre	2023-02-09T00:00:00	2024-11-06T01:00:00	3	Temperatura mínima	14.3
116932	7	Sololá	702	San José Chacayá	5	Chacayá	9	Septiembre	2023-02-09T00:00:00	2024-11-06T01:00:00	5	Humedad	81
116933	7	Sololá	702	San José Chacayá	5	Chacayá	9	Septiembre	2023-02-09T00:00:00	2024-11-06T01:00:00	6	Velocidad del viento	1.6
116934	7	Sololá	702	San José Chacayá	5	Chacayá	9	Septiembre	2023-02-09T00:00:00	2024-11-06T01:00:00	7	Dirección del viento	0.8
116935	7	Sololá	702	San José Chacayá	5	Chacayá	9	Septiembre	2023-02-09T00:00:00	2024-11-06T01:00:00	1	Precipitación	0
116936	7	Sololá	702	San José Chacayá	5	Chacayá	9	Septiembre	2023-02-09T00:00:00	2024-11-06T01:00:00	8	Radiación solar	0
116937	7	Sololá	702	San José Chacayá	5	Chacayá	9	Septiembre	2023-02-09T00:00:00	2024-11-06T02:00:00	2	Temperatura media	15.7
116938	7	Sololá	702	San José Chacayá	5	Chacayá	9	Septiembre	2023-02-09T00:00:00	2024-11-06T02:00:00	4	Temperatura máxima	15.7
116939	7	Sololá	702	San José Chacayá	5	Chacayá	9	Septiembre	2023-02-09T00:00:00	2024-11-06T02:00:00	3	Temperatura mínima	15.3
116940	7	Sololá	702	San José Chacayá	5	Chacayá	9	Septiembre	2023-02-09T00:00:00	2024-11-06T02:00:00	5	Humedad	80
116941	7	Sololá	702	San José Chacayá	5	Chacayá	9	Septiembre	2023-02-09T00:00:00	2024-11-06T02:00:00	6	Velocidad del viento	4.8
116942	7	Sololá	702	San José Chacayá	5	Chacayá	9	Septiembre	2023-02-09T00:00:00	2024-11-06T02:00:00	7	Dirección del viento	2.41
116943	7	Sololá	702	San José Chacayá	5	Chacayá	9	Septiembre	2023-02-09T00:00:00	2024-11-06T02:00:00	1	Precipitación	0
116944	7	Sololá	702	San José Chacayá	5	Chacayá	9	Septiembre	2023-02-09T00:00:00	2024-11-06T02:00:00	8	Radiación solar	0
116945	7	Sololá	702	San José Chacayá	5	Chacayá	9	Septiembre	2023-02-09T00:00:00	2024-11-06T03:00:00	2	Temperatura media	14.9
116946	7	Sololá	702	San José Chacayá	5	Chacayá	9	Septiembre	2023-02-09T00:00:00	2024-11-06T03:00:00	4	Temperatura máxima	15.6
116947	7	Sololá	702	San José Chacayá	5	Chacayá	9	Septiembre	2023-02-09T00:00:00	2024-11-06T03:00:00	3	Temperatura mínima	14.9
116948	7	Sololá	702	San José Chacayá	5	Chacayá	9	Septiembre	2023-02-09T00:00:00	2024-11-06T03:00:00	5	Humedad	81
116949	7	Sololá	702	San José Chacayá	5	Chacayá	9	Septiembre	2023-02-09T00:00:00	2024-11-06T03:00:00	6	Velocidad del viento	1.6
116950	7	Sololá	702	San José Chacayá	5	Chacayá	9	Septiembre	2023-02-09T00:00:00	2024-11-06T03:00:00	7	Dirección del viento	0.8
116951	7	Sololá	702	San José Chacayá	5	Chacayá	9	Septiembre	2023-02-09T00:00:00	2024-11-06T03:00:00	1	Precipitación	0
116952	7	Sololá	702	San José Chacayá	5	Chacayá	9	Septiembre	2023-02-09T00:00:00	2024-11-06T03:00:00	8	Radiación solar	0
116953	7	Sololá	702	San José Chacayá	5	Chacayá	9	Septiembre	2023-02-09T00:00:00	2024-11-06T04:00:00	2	Temperatura media	13.6
116954	7	Sololá	702	San José Chacayá	5	Chacayá	9	Septiembre	2023-02-09T00:00:00	2024-11-06T04:00:00	4	Temperatura máxima	13.9
116955	7	Sololá	702	San José Chacayá	5	Chacayá	9	Septiembre	2023-02-09T00:00:00	2024-11-06T04:00:00	3	Temperatura mínima	13.6
116956	7	Sololá	702	San José Chacayá	5	Chacayá	9	Septiembre	2023-02-09T00:00:00	2024-11-06T04:00:00	5	Humedad	82
116957	7	Sololá	702	San José Chacayá	5	Chacayá	9	Septiembre	2023-02-09T00:00:00	2024-11-06T04:00:00	6	Velocidad del viento	1.6
116958	7	Sololá	702	San José Chacayá	5	Chacayá	9	Septiembre	2023-02-09T00:00:00	2024-11-06T04:00:00	7	Dirección del viento	0.8
116959	7	Sololá	702	San José Chacayá	5	Chacayá	9	Septiembre	2023-02-09T00:00:00	2024-11-06T04:00:00	1	Precipitación	0
116960	7	Sololá	702	San José Chacayá	5	Chacayá	9	Septiembre	2023-02-09T00:00:00	2024-11-06T04:00:00	8	Radiación solar	0
116961	7	Sololá	702	San José Chacayá	5	Chacayá	9	Septiembre	2023-02-09T00:00:00	2024-11-06T05:00:00	2	Temperatura media	12.7
116962	7	Sololá	702	San José Chacayá	5	Chacayá	9	Septiembre	2023-02-09T00:00:00	2024-11-06T05:00:00	4	Temperatura máxima	13.2
116963	7	Sololá	702	San José Chacayá	5	Chacayá	9	Septiembre	2023-02-09T00:00:00	2024-11-06T05:00:00	3	Temperatura mínima	12.7
116964	7	Sololá	702	San José Chacayá	5	Chacayá	9	Septiembre	2023-02-09T00:00:00	2024-11-06T05:00:00	5	Humedad	80
116965	7	Sololá	702	San José Chacayá	5	Chacayá	9	Septiembre	2023-02-09T00:00:00	2024-11-06T05:00:00	6	Velocidad del viento	3.2
116966	7	Sololá	702	San José Chacayá	5	Chacayá	9	Septiembre	2023-02-09T00:00:00	2024-11-06T05:00:00	7	Dirección del viento	1.61
116967	7	Sololá	702	San José Chacayá	5	Chacayá	9	Septiembre	2023-02-09T00:00:00	2024-11-06T05:00:00	1	Precipitación	0
116968	7	Sololá	702	San José Chacayá	5	Chacayá	9	Septiembre	2023-02-09T00:00:00	2024-11-06T05:00:00	8	Radiación solar	0
116969	7	Sololá	702	San José Chacayá	5	Chacayá	9	Septiembre	2023-02-09T00:00:00	2024-11-06T06:00:00	2	Temperatura media	11.9
116970	7	Sololá	702	San José Chacayá	5	Chacayá	9	Septiembre	2023-02-09T00:00:00	2024-11-06T06:00:00	4	Temperatura máxima	12.2
116971	7	Sololá	702	San José Chacayá	5	Chacayá	9	Septiembre	2023-02-09T00:00:00	2024-11-06T06:00:00	3	Temperatura mínima	11.9
116972	7	Sololá	702	San José Chacayá	5	Chacayá	9	Septiembre	2023-02-09T00:00:00	2024-11-06T06:00:00	5	Humedad	78
116973	7	Sololá	702	San José Chacayá	5	Chacayá	9	Septiembre	2023-02-09T00:00:00	2024-11-06T06:00:00	6	Velocidad del viento	4.8
116974	7	Sololá	702	San José Chacayá	5	Chacayá	9	Septiembre	2023-02-09T00:00:00	2024-11-06T06:00:00	7	Dirección del viento	2.41
116975	7	Sololá	702	San José Chacayá	5	Chacayá	9	Septiembre	2023-02-09T00:00:00	2024-11-06T06:00:00	1	Precipitación	0
116976	7	Sololá	702	San José Chacayá	5	Chacayá	9	Septiembre	2023-02-09T00:00:00	2024-11-06T06:00:00	8	Radiación solar	2
116977	7	Sololá	702	San José Chacayá	5	Chacayá	9	Septiembre	2023-02-09T00:00:00	2024-11-06T07:00:00	2	Temperatura media	13.3
116978	7	Sololá	702	San José Chacayá	5	Chacayá	9	Septiembre	2023-02-09T00:00:00	2024-11-06T07:00:00	4	Temperatura máxima	13.3
116979	7	Sololá	702	San José Chacayá	5	Chacayá	9	Septiembre	2023-02-09T00:00:00	2024-11-06T07:00:00	3	Temperatura mínima	12.3
116980	7	Sololá	702	San José Chacayá	5	Chacayá	9	Septiembre	2023-02-09T00:00:00	2024-11-06T07:00:00	5	Humedad	80
116981	7	Sololá	702	San José Chacayá	5	Chacayá	9	Septiembre	2023-02-09T00:00:00	2024-11-06T07:00:00	6	Velocidad del viento	3.2
116982	7	Sololá	702	San José Chacayá	5	Chacayá	9	Septiembre	2023-02-09T00:00:00	2024-11-06T07:00:00	7	Dirección del viento	1.61
116983	7	Sololá	702	San José Chacayá	5	Chacayá	9	Septiembre	2023-02-09T00:00:00	2024-11-06T07:00:00	1	Precipitación	0
116984	7	Sololá	702	San José Chacayá	5	Chacayá	9	Septiembre	2023-02-09T00:00:00	2024-11-06T07:00:00	8	Radiación solar	45
116985	7	Sololá	702	San José Chacayá	5	Chacayá	9	Septiembre	2023-02-09T00:00:00	2024-11-06T08:00:00	2	Temperatura media	17.4
116986	7	Sololá	702	San José Chacayá	5	Chacayá	9	Septiembre	2023-02-09T00:00:00	2024-11-06T08:00:00	4	Temperatura máxima	17.4
116987	7	Sololá	702	San José Chacayá	5	Chacayá	9	Septiembre	2023-02-09T00:00:00	2024-11-06T08:00:00	3	Temperatura mínima	14.9
116988	7	Sololá	702	San José Chacayá	5	Chacayá	9	Septiembre	2023-02-09T00:00:00	2024-11-06T08:00:00	5	Humedad	74
116989	7	Sololá	702	San José Chacayá	5	Chacayá	9	Septiembre	2023-02-09T00:00:00	2024-11-06T08:00:00	6	Velocidad del viento	3.2
116990	7	Sololá	702	San José Chacayá	5	Chacayá	9	Septiembre	2023-02-09T00:00:00	2024-11-06T08:00:00	7	Dirección del viento	1.61
116991	7	Sololá	702	San José Chacayá	5	Chacayá	9	Septiembre	2023-02-09T00:00:00	2024-11-06T08:00:00	1	Precipitación	0
116992	7	Sololá	702	San José Chacayá	5	Chacayá	9	Septiembre	2023-02-09T00:00:00	2024-11-06T08:00:00	8	Radiación solar	99
116993	7	Sololá	702	San José Chacayá	5	Chacayá	9	Septiembre	2023-02-09T00:00:00	2024-11-06T09:00:00	2	Temperatura media	20.6
116994	7	Sololá	702	San José Chacayá	5	Chacayá	9	Septiembre	2023-02-09T00:00:00	2024-11-06T09:00:00	4	Temperatura máxima	20.6
116995	7	Sololá	702	San José Chacayá	5	Chacayá	9	Septiembre	2023-02-09T00:00:00	2024-11-06T09:00:00	3	Temperatura mínima	18.6
116996	7	Sololá	702	San José Chacayá	5	Chacayá	9	Septiembre	2023-02-09T00:00:00	2024-11-06T09:00:00	5	Humedad	64
116997	7	Sololá	702	San José Chacayá	5	Chacayá	9	Septiembre	2023-02-09T00:00:00	2024-11-06T09:00:00	6	Velocidad del viento	3.2
116998	7	Sololá	702	San José Chacayá	5	Chacayá	9	Septiembre	2023-02-09T00:00:00	2024-11-06T09:00:00	7	Dirección del viento	1.61
116999	7	Sololá	702	San José Chacayá	5	Chacayá	9	Septiembre	2023-02-09T00:00:00	2024-11-06T09:00:00	1	Precipitación	0
117000	7	Sololá	702	San José Chacayá	5	Chacayá	9	Septiembre	2023-02-09T00:00:00	2024-11-06T09:00:00	8	Radiación solar	591
117001	7	Sololá	702	San José Chacayá	5	Chacayá	9	Septiembre	2023-02-09T00:00:00	2024-11-06T10:00:00	2	Temperatura media	22.1
117002	7	Sololá	702	San José Chacayá	5	Chacayá	9	Septiembre	2023-02-09T00:00:00	2024-11-06T10:00:00	4	Temperatura máxima	22.1
117003	7	Sololá	702	San José Chacayá	5	Chacayá	9	Septiembre	2023-02-09T00:00:00	2024-11-06T10:00:00	3	Temperatura mínima	20.9
117004	7	Sololá	702	San José Chacayá	5	Chacayá	9	Septiembre	2023-02-09T00:00:00	2024-11-06T10:00:00	5	Humedad	61
117005	7	Sololá	702	San José Chacayá	5	Chacayá	9	Septiembre	2023-02-09T00:00:00	2024-11-06T10:00:00	6	Velocidad del viento	6.4
117006	7	Sololá	702	San José Chacayá	5	Chacayá	9	Septiembre	2023-02-09T00:00:00	2024-11-06T10:00:00	7	Dirección del viento	3.22
117007	7	Sololá	702	San José Chacayá	5	Chacayá	9	Septiembre	2023-02-09T00:00:00	2024-11-06T10:00:00	1	Precipitación	0
117008	7	Sololá	702	San José Chacayá	5	Chacayá	9	Septiembre	2023-02-09T00:00:00	2024-11-06T10:00:00	8	Radiación solar	802
117009	7	Sololá	702	San José Chacayá	5	Chacayá	9	Septiembre	2023-02-09T00:00:00	2024-11-06T11:00:00	2	Temperatura media	21.1
117010	7	Sololá	702	San José Chacayá	5	Chacayá	9	Septiembre	2023-02-09T00:00:00	2024-11-06T11:00:00	4	Temperatura máxima	22.3
117011	7	Sololá	702	San José Chacayá	5	Chacayá	9	Septiembre	2023-02-09T00:00:00	2024-11-06T11:00:00	3	Temperatura mínima	21.1
117012	7	Sololá	702	San José Chacayá	5	Chacayá	9	Septiembre	2023-02-09T00:00:00	2024-11-06T11:00:00	5	Humedad	60
117013	7	Sololá	702	San José Chacayá	5	Chacayá	9	Septiembre	2023-02-09T00:00:00	2024-11-06T11:00:00	6	Velocidad del viento	9.7
117014	7	Sololá	702	San José Chacayá	5	Chacayá	9	Septiembre	2023-02-09T00:00:00	2024-11-06T11:00:00	7	Dirección del viento	4.83
117015	7	Sololá	702	San José Chacayá	5	Chacayá	9	Septiembre	2023-02-09T00:00:00	2024-11-06T11:00:00	1	Precipitación	0
117016	7	Sololá	702	San José Chacayá	5	Chacayá	9	Septiembre	2023-02-09T00:00:00	2024-11-06T11:00:00	8	Radiación solar	715
117017	7	Sololá	702	San José Chacayá	5	Chacayá	9	Septiembre	2023-02-09T00:00:00	2024-11-06T12:00:00	2	Temperatura media	21.4
117018	7	Sololá	702	San José Chacayá	5	Chacayá	9	Septiembre	2023-02-09T00:00:00	2024-11-06T12:00:00	4	Temperatura máxima	21.4
117019	7	Sololá	702	San José Chacayá	5	Chacayá	9	Septiembre	2023-02-09T00:00:00	2024-11-06T12:00:00	3	Temperatura mínima	21
117020	7	Sololá	702	San José Chacayá	5	Chacayá	9	Septiembre	2023-02-09T00:00:00	2024-11-06T12:00:00	5	Humedad	62
117021	7	Sololá	702	San José Chacayá	5	Chacayá	9	Septiembre	2023-02-09T00:00:00	2024-11-06T12:00:00	6	Velocidad del viento	6.4
117022	7	Sololá	702	San José Chacayá	5	Chacayá	9	Septiembre	2023-02-09T00:00:00	2024-11-06T12:00:00	7	Dirección del viento	3.22
117023	7	Sololá	702	San José Chacayá	5	Chacayá	9	Septiembre	2023-02-09T00:00:00	2024-11-06T12:00:00	1	Precipitación	0
117024	7	Sololá	702	San José Chacayá	5	Chacayá	9	Septiembre	2023-02-09T00:00:00	2024-11-06T12:00:00	8	Radiación solar	277
117025	7	Sololá	702	San José Chacayá	5	Chacayá	9	Septiembre	2023-02-09T00:00:00	2024-11-06T13:00:00	2	Temperatura media	22.1
117026	7	Sololá	702	San José Chacayá	5	Chacayá	9	Septiembre	2023-02-09T00:00:00	2024-11-06T13:00:00	4	Temperatura máxima	22.1
117027	7	Sololá	702	San José Chacayá	5	Chacayá	9	Septiembre	2023-02-09T00:00:00	2024-11-06T13:00:00	3	Temperatura mínima	21.2
117028	7	Sololá	702	San José Chacayá	5	Chacayá	9	Septiembre	2023-02-09T00:00:00	2024-11-06T13:00:00	5	Humedad	56
117029	7	Sololá	702	San José Chacayá	5	Chacayá	9	Septiembre	2023-02-09T00:00:00	2024-11-06T13:00:00	6	Velocidad del viento	8
117030	7	Sololá	702	San José Chacayá	5	Chacayá	9	Septiembre	2023-02-09T00:00:00	2024-11-06T13:00:00	7	Dirección del viento	4.02
117031	7	Sololá	702	San José Chacayá	5	Chacayá	9	Septiembre	2023-02-09T00:00:00	2024-11-06T13:00:00	1	Precipitación	0
117032	7	Sololá	702	San José Chacayá	5	Chacayá	9	Septiembre	2023-02-09T00:00:00	2024-11-06T13:00:00	8	Radiación solar	478
117033	7	Sololá	702	San José Chacayá	5	Chacayá	9	Septiembre	2023-02-09T00:00:00	2024-11-06T14:00:00	2	Temperatura media	20.9
117034	7	Sololá	702	San José Chacayá	5	Chacayá	9	Septiembre	2023-02-09T00:00:00	2024-11-06T14:00:00	4	Temperatura máxima	22.6
117035	7	Sololá	702	San José Chacayá	5	Chacayá	9	Septiembre	2023-02-09T00:00:00	2024-11-06T14:00:00	3	Temperatura mínima	20.9
117036	7	Sololá	702	San José Chacayá	5	Chacayá	9	Septiembre	2023-02-09T00:00:00	2024-11-06T14:00:00	5	Humedad	74
117037	7	Sololá	702	San José Chacayá	5	Chacayá	9	Septiembre	2023-02-09T00:00:00	2024-11-06T14:00:00	6	Velocidad del viento	6.4
117038	7	Sololá	702	San José Chacayá	5	Chacayá	9	Septiembre	2023-02-09T00:00:00	2024-11-06T14:00:00	7	Dirección del viento	3.22
117039	7	Sololá	702	San José Chacayá	5	Chacayá	9	Septiembre	2023-02-09T00:00:00	2024-11-06T14:00:00	1	Precipitación	0
117040	7	Sololá	702	San José Chacayá	5	Chacayá	9	Septiembre	2023-02-09T00:00:00	2024-11-06T14:00:00	8	Radiación solar	346
117041	7	Sololá	702	San José Chacayá	5	Chacayá	9	Septiembre	2023-02-09T00:00:00	2024-11-06T15:00:00	2	Temperatura media	17.3
117042	7	Sololá	702	San José Chacayá	5	Chacayá	9	Septiembre	2023-02-09T00:00:00	2024-11-06T15:00:00	4	Temperatura máxima	18.8
117043	7	Sololá	702	San José Chacayá	5	Chacayá	9	Septiembre	2023-02-09T00:00:00	2024-11-06T15:00:00	3	Temperatura mínima	17.1
117044	7	Sololá	702	San José Chacayá	5	Chacayá	9	Septiembre	2023-02-09T00:00:00	2024-11-06T15:00:00	5	Humedad	78
117045	7	Sololá	702	San José Chacayá	5	Chacayá	9	Septiembre	2023-02-09T00:00:00	2024-11-06T15:00:00	6	Velocidad del viento	3.2
117046	7	Sololá	702	San José Chacayá	5	Chacayá	9	Septiembre	2023-02-09T00:00:00	2024-11-06T15:00:00	7	Dirección del viento	1.61
117047	7	Sololá	702	San José Chacayá	5	Chacayá	9	Septiembre	2023-02-09T00:00:00	2024-11-06T15:00:00	1	Precipitación	0
117048	7	Sololá	702	San José Chacayá	5	Chacayá	9	Septiembre	2023-02-09T00:00:00	2024-11-06T15:00:00	8	Radiación solar	194
117049	7	Sololá	702	San José Chacayá	5	Chacayá	9	Septiembre	2023-02-09T00:00:00	2024-11-06T16:00:00	2	Temperatura media	18.7
117050	7	Sololá	702	San José Chacayá	5	Chacayá	9	Septiembre	2023-02-09T00:00:00	2024-11-06T16:00:00	4	Temperatura máxima	19.7
117051	7	Sololá	702	San José Chacayá	5	Chacayá	9	Septiembre	2023-02-09T00:00:00	2024-11-06T16:00:00	3	Temperatura mínima	18.7
117052	7	Sololá	702	San José Chacayá	5	Chacayá	9	Septiembre	2023-02-09T00:00:00	2024-11-06T16:00:00	5	Humedad	79
117053	7	Sololá	702	San José Chacayá	5	Chacayá	9	Septiembre	2023-02-09T00:00:00	2024-11-06T16:00:00	6	Velocidad del viento	1.6
117054	7	Sololá	702	San José Chacayá	5	Chacayá	9	Septiembre	2023-02-09T00:00:00	2024-11-06T16:00:00	7	Dirección del viento	0.8
117055	7	Sololá	702	San José Chacayá	5	Chacayá	9	Septiembre	2023-02-09T00:00:00	2024-11-06T16:00:00	1	Precipitación	0
117056	7	Sololá	702	San José Chacayá	5	Chacayá	9	Septiembre	2023-02-09T00:00:00	2024-11-06T16:00:00	8	Radiación solar	156
117057	7	Sololá	702	San José Chacayá	5	Chacayá	9	Septiembre	2023-02-09T00:00:00	2024-11-06T17:00:00	2	Temperatura media	18.3
117058	7	Sololá	702	San José Chacayá	5	Chacayá	9	Septiembre	2023-02-09T00:00:00	2024-11-06T17:00:00	4	Temperatura máxima	18.4
117059	7	Sololá	702	San José Chacayá	5	Chacayá	9	Septiembre	2023-02-09T00:00:00	2024-11-06T17:00:00	3	Temperatura mínima	18.2
117060	7	Sololá	702	San José Chacayá	5	Chacayá	9	Septiembre	2023-02-09T00:00:00	2024-11-06T17:00:00	5	Humedad	79
117061	7	Sololá	702	San José Chacayá	5	Chacayá	9	Septiembre	2023-02-09T00:00:00	2024-11-06T17:00:00	6	Velocidad del viento	0
117062	7	Sololá	702	San José Chacayá	5	Chacayá	9	Septiembre	2023-02-09T00:00:00	2024-11-06T17:00:00	7	Dirección del viento	0
117063	7	Sololá	702	San José Chacayá	5	Chacayá	9	Septiembre	2023-02-09T00:00:00	2024-11-06T17:00:00	1	Precipitación	0
117064	7	Sololá	702	San José Chacayá	5	Chacayá	9	Septiembre	2023-02-09T00:00:00	2024-11-06T17:00:00	8	Radiación solar	66
117065	7	Sololá	702	San José Chacayá	5	Chacayá	9	Septiembre	2023-02-09T00:00:00	2024-11-06T18:00:00	2	Temperatura media	16.7
117066	7	Sololá	702	San José Chacayá	5	Chacayá	9	Septiembre	2023-02-09T00:00:00	2024-11-06T18:00:00	4	Temperatura máxima	17.5
117067	7	Sololá	702	San José Chacayá	5	Chacayá	9	Septiembre	2023-02-09T00:00:00	2024-11-06T18:00:00	3	Temperatura mínima	16.7
117068	7	Sololá	702	San José Chacayá	5	Chacayá	9	Septiembre	2023-02-09T00:00:00	2024-11-06T18:00:00	5	Humedad	81
117069	7	Sololá	702	San José Chacayá	5	Chacayá	9	Septiembre	2023-02-09T00:00:00	2024-11-06T18:00:00	6	Velocidad del viento	0
117070	7	Sololá	702	San José Chacayá	5	Chacayá	9	Septiembre	2023-02-09T00:00:00	2024-11-06T18:00:00	7	Dirección del viento	0
117071	7	Sololá	702	San José Chacayá	5	Chacayá	9	Septiembre	2023-02-09T00:00:00	2024-11-06T18:00:00	1	Precipitación	0
117072	7	Sololá	702	San José Chacayá	5	Chacayá	9	Septiembre	2023-02-09T00:00:00	2024-11-06T18:00:00	8	Radiación solar	39
117073	7	Sololá	702	San José Chacayá	5	Chacayá	9	Septiembre	2023-02-09T00:00:00	2024-11-06T19:00:00	2	Temperatura media	15.2
117074	7	Sololá	702	San José Chacayá	5	Chacayá	9	Septiembre	2023-02-09T00:00:00	2024-11-06T19:00:00	4	Temperatura máxima	16
117075	7	Sololá	702	San José Chacayá	5	Chacayá	9	Septiembre	2023-02-09T00:00:00	2024-11-06T19:00:00	3	Temperatura mínima	15.2
117076	7	Sololá	702	San José Chacayá	5	Chacayá	9	Septiembre	2023-02-09T00:00:00	2024-11-06T19:00:00	5	Humedad	79
117077	7	Sololá	702	San José Chacayá	5	Chacayá	9	Septiembre	2023-02-09T00:00:00	2024-11-06T19:00:00	6	Velocidad del viento	0
117078	7	Sololá	702	San José Chacayá	5	Chacayá	9	Septiembre	2023-02-09T00:00:00	2024-11-06T19:00:00	7	Dirección del viento	0
117079	7	Sololá	702	San José Chacayá	5	Chacayá	9	Septiembre	2023-02-09T00:00:00	2024-11-06T19:00:00	1	Precipitación	0
117080	7	Sololá	702	San José Chacayá	5	Chacayá	9	Septiembre	2023-02-09T00:00:00	2024-11-06T19:00:00	8	Radiación solar	0
117081	7	Sololá	702	San José Chacayá	5	Chacayá	9	Septiembre	2023-02-09T00:00:00	2024-11-06T20:00:00	2	Temperatura media	15.1
117082	7	Sololá	702	San José Chacayá	5	Chacayá	9	Septiembre	2023-02-09T00:00:00	2024-11-06T20:00:00	4	Temperatura máxima	15.1
117083	7	Sololá	702	San José Chacayá	5	Chacayá	9	Septiembre	2023-02-09T00:00:00	2024-11-06T20:00:00	3	Temperatura mínima	14.8
117084	7	Sololá	702	San José Chacayá	5	Chacayá	9	Septiembre	2023-02-09T00:00:00	2024-11-06T20:00:00	5	Humedad	80
117085	7	Sololá	702	San José Chacayá	5	Chacayá	9	Septiembre	2023-02-09T00:00:00	2024-11-06T20:00:00	6	Velocidad del viento	1.6
117086	7	Sololá	702	San José Chacayá	5	Chacayá	9	Septiembre	2023-02-09T00:00:00	2024-11-06T20:00:00	7	Dirección del viento	0.8
117087	7	Sololá	702	San José Chacayá	5	Chacayá	9	Septiembre	2023-02-09T00:00:00	2024-11-06T20:00:00	1	Precipitación	0
117088	7	Sololá	702	San José Chacayá	5	Chacayá	9	Septiembre	2023-02-09T00:00:00	2024-11-06T20:00:00	8	Radiación solar	0
117089	7	Sololá	702	San José Chacayá	5	Chacayá	9	Septiembre	2023-02-09T00:00:00	2024-11-06T21:00:00	2	Temperatura media	14.4
117090	7	Sololá	702	San José Chacayá	5	Chacayá	9	Septiembre	2023-02-09T00:00:00	2024-11-06T21:00:00	4	Temperatura máxima	14.8
117091	7	Sololá	702	San José Chacayá	5	Chacayá	9	Septiembre	2023-02-09T00:00:00	2024-11-06T21:00:00	3	Temperatura mínima	14.4
117092	7	Sololá	702	San José Chacayá	5	Chacayá	9	Septiembre	2023-02-09T00:00:00	2024-11-06T21:00:00	5	Humedad	74
117093	7	Sololá	702	San José Chacayá	5	Chacayá	9	Septiembre	2023-02-09T00:00:00	2024-11-06T21:00:00	6	Velocidad del viento	0
117094	7	Sololá	702	San José Chacayá	5	Chacayá	9	Septiembre	2023-02-09T00:00:00	2024-11-06T21:00:00	7	Dirección del viento	0
117095	7	Sololá	702	San José Chacayá	5	Chacayá	9	Septiembre	2023-02-09T00:00:00	2024-11-06T21:00:00	1	Precipitación	0
117096	7	Sololá	702	San José Chacayá	5	Chacayá	9	Septiembre	2023-02-09T00:00:00	2024-11-06T21:00:00	8	Radiación solar	0
117097	7	Sololá	702	San José Chacayá	5	Chacayá	9	Septiembre	2023-02-09T00:00:00	2024-11-06T22:00:00	2	Temperatura media	14.8
117098	7	Sololá	702	San José Chacayá	5	Chacayá	9	Septiembre	2023-02-09T00:00:00	2024-11-06T22:00:00	4	Temperatura máxima	14.9
117099	7	Sololá	702	San José Chacayá	5	Chacayá	9	Septiembre	2023-02-09T00:00:00	2024-11-06T22:00:00	3	Temperatura mínima	14.6
117100	7	Sololá	702	San José Chacayá	5	Chacayá	9	Septiembre	2023-02-09T00:00:00	2024-11-06T22:00:00	5	Humedad	80
117101	7	Sololá	702	San José Chacayá	5	Chacayá	9	Septiembre	2023-02-09T00:00:00	2024-11-06T22:00:00	6	Velocidad del viento	1.6
117102	7	Sololá	702	San José Chacayá	5	Chacayá	9	Septiembre	2023-02-09T00:00:00	2024-11-06T22:00:00	7	Dirección del viento	0.8
117103	7	Sololá	702	San José Chacayá	5	Chacayá	9	Septiembre	2023-02-09T00:00:00	2024-11-06T22:00:00	1	Precipitación	0
117104	7	Sololá	702	San José Chacayá	5	Chacayá	9	Septiembre	2023-02-09T00:00:00	2024-11-06T22:00:00	8	Radiación solar	0
117105	7	Sololá	702	San José Chacayá	5	Chacayá	9	Septiembre	2023-02-09T00:00:00	2024-11-06T23:00:00	2	Temperatura media	15.1
117106	7	Sololá	702	San José Chacayá	5	Chacayá	9	Septiembre	2023-02-09T00:00:00	2024-11-06T23:00:00	4	Temperatura máxima	15.2
117107	7	Sololá	702	San José Chacayá	5	Chacayá	9	Septiembre	2023-02-09T00:00:00	2024-11-06T23:00:00	3	Temperatura mínima	14.9
117108	7	Sololá	702	San José Chacayá	5	Chacayá	9	Septiembre	2023-02-09T00:00:00	2024-11-06T23:00:00	5	Humedad	82
117109	7	Sololá	702	San José Chacayá	5	Chacayá	9	Septiembre	2023-02-09T00:00:00	2024-11-06T23:00:00	6	Velocidad del viento	1.6
117110	7	Sololá	702	San José Chacayá	5	Chacayá	9	Septiembre	2023-02-09T00:00:00	2024-11-06T23:00:00	7	Dirección del viento	0.8
117111	7	Sololá	702	San José Chacayá	5	Chacayá	9	Septiembre	2023-02-09T00:00:00	2024-11-06T23:00:00	1	Precipitación	0
117112	7	Sololá	702	San José Chacayá	5	Chacayá	9	Septiembre	2023-02-09T00:00:00	2024-11-06T23:00:00	8	Radiación solar	0
117113	7	Sololá	702	San José Chacayá	5	Chacayá	9	Septiembre	2023-03-09T00:00:00	2024-11-06T00:00:00	2	Temperatura media	15.2
117114	7	Sololá	702	San José Chacayá	5	Chacayá	9	Septiembre	2023-03-09T00:00:00	2024-11-06T00:00:00	4	Temperatura máxima	15.4
117115	7	Sololá	702	San José Chacayá	5	Chacayá	9	Septiembre	2023-03-09T00:00:00	2024-11-06T00:00:00	3	Temperatura mínima	15
117116	7	Sololá	702	San José Chacayá	5	Chacayá	9	Septiembre	2023-03-09T00:00:00	2024-11-06T00:00:00	5	Humedad	82
117117	7	Sololá	702	San José Chacayá	5	Chacayá	9	Septiembre	2023-03-09T00:00:00	2024-11-06T00:00:00	6	Velocidad del viento	1.6
117118	7	Sololá	702	San José Chacayá	5	Chacayá	9	Septiembre	2023-03-09T00:00:00	2024-11-06T00:00:00	7	Dirección del viento	0.8
117119	7	Sololá	702	San José Chacayá	5	Chacayá	9	Septiembre	2023-03-09T00:00:00	2024-11-06T00:00:00	1	Precipitación	0
117120	7	Sololá	702	San José Chacayá	5	Chacayá	9	Septiembre	2023-03-09T00:00:00	2024-11-06T00:00:00	8	Radiación solar	0
117121	7	Sololá	702	San José Chacayá	5	Chacayá	9	Septiembre	2023-03-09T00:00:00	2024-11-06T01:00:00	2	Temperatura media	14
117122	7	Sololá	702	San José Chacayá	5	Chacayá	9	Septiembre	2023-03-09T00:00:00	2024-11-06T01:00:00	4	Temperatura máxima	14.9
117123	7	Sololá	702	San José Chacayá	5	Chacayá	9	Septiembre	2023-03-09T00:00:00	2024-11-06T01:00:00	3	Temperatura mínima	14
117124	7	Sololá	702	San José Chacayá	5	Chacayá	9	Septiembre	2023-03-09T00:00:00	2024-11-06T01:00:00	5	Humedad	82
117125	7	Sololá	702	San José Chacayá	5	Chacayá	9	Septiembre	2023-03-09T00:00:00	2024-11-06T01:00:00	6	Velocidad del viento	0
117126	7	Sololá	702	San José Chacayá	5	Chacayá	9	Septiembre	2023-03-09T00:00:00	2024-11-06T01:00:00	7	Dirección del viento	0
117127	7	Sololá	702	San José Chacayá	5	Chacayá	9	Septiembre	2023-03-09T00:00:00	2024-11-06T01:00:00	1	Precipitación	0
117128	7	Sololá	702	San José Chacayá	5	Chacayá	9	Septiembre	2023-03-09T00:00:00	2024-11-06T01:00:00	8	Radiación solar	0
117129	7	Sololá	702	San José Chacayá	5	Chacayá	9	Septiembre	2023-03-09T00:00:00	2024-11-06T02:00:00	2	Temperatura media	15
117130	7	Sololá	702	San José Chacayá	5	Chacayá	9	Septiembre	2023-03-09T00:00:00	2024-11-06T02:00:00	4	Temperatura máxima	15
117131	7	Sololá	702	San José Chacayá	5	Chacayá	9	Septiembre	2023-03-09T00:00:00	2024-11-06T02:00:00	3	Temperatura mínima	14.1
117132	7	Sololá	702	San José Chacayá	5	Chacayá	9	Septiembre	2023-03-09T00:00:00	2024-11-06T02:00:00	5	Humedad	81
117133	7	Sololá	702	San José Chacayá	5	Chacayá	9	Septiembre	2023-03-09T00:00:00	2024-11-06T02:00:00	6	Velocidad del viento	3.2
117134	7	Sololá	702	San José Chacayá	5	Chacayá	9	Septiembre	2023-03-09T00:00:00	2024-11-06T02:00:00	7	Dirección del viento	1.61
117135	7	Sololá	702	San José Chacayá	5	Chacayá	9	Septiembre	2023-03-09T00:00:00	2024-11-06T02:00:00	1	Precipitación	0
117136	7	Sololá	702	San José Chacayá	5	Chacayá	9	Septiembre	2023-03-09T00:00:00	2024-11-06T02:00:00	8	Radiación solar	0
117137	7	Sololá	702	San José Chacayá	5	Chacayá	9	Septiembre	2023-03-09T00:00:00	2024-11-06T03:00:00	2	Temperatura media	14.5
117138	7	Sololá	702	San José Chacayá	5	Chacayá	9	Septiembre	2023-03-09T00:00:00	2024-11-06T03:00:00	4	Temperatura máxima	14.8
117139	7	Sololá	702	San José Chacayá	5	Chacayá	9	Septiembre	2023-03-09T00:00:00	2024-11-06T03:00:00	3	Temperatura mínima	14.5
117140	7	Sololá	702	San José Chacayá	5	Chacayá	9	Septiembre	2023-03-09T00:00:00	2024-11-06T03:00:00	5	Humedad	82
117141	7	Sololá	702	San José Chacayá	5	Chacayá	9	Septiembre	2023-03-09T00:00:00	2024-11-06T03:00:00	6	Velocidad del viento	1.6
117142	7	Sololá	702	San José Chacayá	5	Chacayá	9	Septiembre	2023-03-09T00:00:00	2024-11-06T03:00:00	7	Dirección del viento	0.8
117143	7	Sololá	702	San José Chacayá	5	Chacayá	9	Septiembre	2023-03-09T00:00:00	2024-11-06T03:00:00	1	Precipitación	0
117144	7	Sololá	702	San José Chacayá	5	Chacayá	9	Septiembre	2023-03-09T00:00:00	2024-11-06T03:00:00	8	Radiación solar	0
117145	7	Sololá	702	San José Chacayá	5	Chacayá	9	Septiembre	2023-03-09T00:00:00	2024-11-06T04:00:00	2	Temperatura media	13.5
117146	7	Sololá	702	San José Chacayá	5	Chacayá	9	Septiembre	2023-03-09T00:00:00	2024-11-06T04:00:00	4	Temperatura máxima	14.3
117147	7	Sololá	702	San José Chacayá	5	Chacayá	9	Septiembre	2023-03-09T00:00:00	2024-11-06T04:00:00	3	Temperatura mínima	13.5
117148	7	Sololá	702	San José Chacayá	5	Chacayá	9	Septiembre	2023-03-09T00:00:00	2024-11-06T04:00:00	5	Humedad	82
117149	7	Sololá	702	San José Chacayá	5	Chacayá	9	Septiembre	2023-03-09T00:00:00	2024-11-06T04:00:00	6	Velocidad del viento	1.6
117150	7	Sololá	702	San José Chacayá	5	Chacayá	9	Septiembre	2023-03-09T00:00:00	2024-11-06T04:00:00	7	Dirección del viento	0.8
117151	7	Sololá	702	San José Chacayá	5	Chacayá	9	Septiembre	2023-03-09T00:00:00	2024-11-06T04:00:00	1	Precipitación	0
117152	7	Sololá	702	San José Chacayá	5	Chacayá	9	Septiembre	2023-03-09T00:00:00	2024-11-06T04:00:00	8	Radiación solar	0
117153	7	Sololá	702	San José Chacayá	5	Chacayá	9	Septiembre	2023-03-09T00:00:00	2024-11-06T05:00:00	2	Temperatura media	14
117154	7	Sololá	702	San José Chacayá	5	Chacayá	9	Septiembre	2023-03-09T00:00:00	2024-11-06T05:00:00	4	Temperatura máxima	14
117155	7	Sololá	702	San José Chacayá	5	Chacayá	9	Septiembre	2023-03-09T00:00:00	2024-11-06T05:00:00	3	Temperatura mínima	12.4
117156	7	Sololá	702	San José Chacayá	5	Chacayá	9	Septiembre	2023-03-09T00:00:00	2024-11-06T05:00:00	5	Humedad	82
117157	7	Sololá	702	San José Chacayá	5	Chacayá	9	Septiembre	2023-03-09T00:00:00	2024-11-06T05:00:00	6	Velocidad del viento	3.2
117158	7	Sololá	702	San José Chacayá	5	Chacayá	9	Septiembre	2023-03-09T00:00:00	2024-11-06T05:00:00	7	Dirección del viento	1.61
117159	7	Sololá	702	San José Chacayá	5	Chacayá	9	Septiembre	2023-03-09T00:00:00	2024-11-06T05:00:00	1	Precipitación	0
117160	7	Sololá	702	San José Chacayá	5	Chacayá	9	Septiembre	2023-03-09T00:00:00	2024-11-06T05:00:00	8	Radiación solar	0
117161	7	Sololá	702	San José Chacayá	5	Chacayá	9	Septiembre	2023-03-09T00:00:00	2024-11-06T06:00:00	2	Temperatura media	14.5
117162	7	Sololá	702	San José Chacayá	5	Chacayá	9	Septiembre	2023-03-09T00:00:00	2024-11-06T06:00:00	4	Temperatura máxima	14.5
117163	7	Sololá	702	San José Chacayá	5	Chacayá	9	Septiembre	2023-03-09T00:00:00	2024-11-06T06:00:00	3	Temperatura mínima	14.4
117164	7	Sololá	702	San José Chacayá	5	Chacayá	9	Septiembre	2023-03-09T00:00:00	2024-11-06T06:00:00	5	Humedad	81
117165	7	Sololá	702	San José Chacayá	5	Chacayá	9	Septiembre	2023-03-09T00:00:00	2024-11-06T06:00:00	6	Velocidad del viento	4.8
117166	7	Sololá	702	San José Chacayá	5	Chacayá	9	Septiembre	2023-03-09T00:00:00	2024-11-06T06:00:00	7	Dirección del viento	2.41
117167	7	Sololá	702	San José Chacayá	5	Chacayá	9	Septiembre	2023-03-09T00:00:00	2024-11-06T06:00:00	1	Precipitación	0
117168	7	Sololá	702	San José Chacayá	5	Chacayá	9	Septiembre	2023-03-09T00:00:00	2024-11-06T06:00:00	8	Radiación solar	1
117169	7	Sololá	702	San José Chacayá	5	Chacayá	9	Septiembre	2023-03-09T00:00:00	2024-11-06T07:00:00	2	Temperatura media	15.4
117170	7	Sololá	702	San José Chacayá	5	Chacayá	9	Septiembre	2023-03-09T00:00:00	2024-11-06T07:00:00	4	Temperatura máxima	15.4
117171	7	Sololá	702	San José Chacayá	5	Chacayá	9	Septiembre	2023-03-09T00:00:00	2024-11-06T07:00:00	3	Temperatura mínima	14.7
117172	7	Sololá	702	San José Chacayá	5	Chacayá	9	Septiembre	2023-03-09T00:00:00	2024-11-06T07:00:00	5	Humedad	80
117173	7	Sololá	702	San José Chacayá	5	Chacayá	9	Septiembre	2023-03-09T00:00:00	2024-11-06T07:00:00	6	Velocidad del viento	3.2
117174	7	Sololá	702	San José Chacayá	5	Chacayá	9	Septiembre	2023-03-09T00:00:00	2024-11-06T07:00:00	7	Dirección del viento	1.61
117175	7	Sololá	702	San José Chacayá	5	Chacayá	9	Septiembre	2023-03-09T00:00:00	2024-11-06T07:00:00	1	Precipitación	0
117176	7	Sololá	702	San José Chacayá	5	Chacayá	9	Septiembre	2023-03-09T00:00:00	2024-11-06T07:00:00	8	Radiación solar	43
117177	7	Sololá	702	San José Chacayá	5	Chacayá	9	Septiembre	2023-03-09T00:00:00	2024-11-06T08:00:00	2	Temperatura media	17.9
117178	7	Sololá	702	San José Chacayá	5	Chacayá	9	Septiembre	2023-03-09T00:00:00	2024-11-06T08:00:00	4	Temperatura máxima	17.9
117179	7	Sololá	702	San José Chacayá	5	Chacayá	9	Septiembre	2023-03-09T00:00:00	2024-11-06T08:00:00	3	Temperatura mínima	16.3
117180	7	Sololá	702	San José Chacayá	5	Chacayá	9	Septiembre	2023-03-09T00:00:00	2024-11-06T08:00:00	5	Humedad	74
117181	7	Sololá	702	San José Chacayá	5	Chacayá	9	Septiembre	2023-03-09T00:00:00	2024-11-06T08:00:00	6	Velocidad del viento	3.2
117182	7	Sololá	702	San José Chacayá	5	Chacayá	9	Septiembre	2023-03-09T00:00:00	2024-11-06T08:00:00	7	Dirección del viento	1.61
117183	7	Sololá	702	San José Chacayá	5	Chacayá	9	Septiembre	2023-03-09T00:00:00	2024-11-06T08:00:00	1	Precipitación	0
117184	7	Sololá	702	San José Chacayá	5	Chacayá	9	Septiembre	2023-03-09T00:00:00	2024-11-06T08:00:00	8	Radiación solar	80
117185	7	Sololá	702	San José Chacayá	5	Chacayá	9	Septiembre	2023-03-09T00:00:00	2024-11-06T09:00:00	2	Temperatura media	20.7
117186	7	Sololá	702	San José Chacayá	5	Chacayá	9	Septiembre	2023-03-09T00:00:00	2024-11-06T09:00:00	4	Temperatura máxima	20.7
117187	7	Sololá	702	San José Chacayá	5	Chacayá	9	Septiembre	2023-03-09T00:00:00	2024-11-06T09:00:00	3	Temperatura mínima	19.3
117188	7	Sololá	702	San José Chacayá	5	Chacayá	9	Septiembre	2023-03-09T00:00:00	2024-11-06T09:00:00	5	Humedad	64
117189	7	Sololá	702	San José Chacayá	5	Chacayá	9	Septiembre	2023-03-09T00:00:00	2024-11-06T09:00:00	6	Velocidad del viento	4.8
117190	7	Sololá	702	San José Chacayá	5	Chacayá	9	Septiembre	2023-03-09T00:00:00	2024-11-06T09:00:00	7	Dirección del viento	2.41
117191	7	Sololá	702	San José Chacayá	5	Chacayá	9	Septiembre	2023-03-09T00:00:00	2024-11-06T09:00:00	1	Precipitación	0
117192	7	Sololá	702	San José Chacayá	5	Chacayá	9	Septiembre	2023-03-09T00:00:00	2024-11-06T09:00:00	8	Radiación solar	596
117193	7	Sololá	702	San José Chacayá	5	Chacayá	9	Septiembre	2023-03-09T00:00:00	2024-11-06T10:00:00	2	Temperatura media	22.6
117194	7	Sololá	702	San José Chacayá	5	Chacayá	9	Septiembre	2023-03-09T00:00:00	2024-11-06T10:00:00	4	Temperatura máxima	22.6
117195	7	Sololá	702	San José Chacayá	5	Chacayá	9	Septiembre	2023-03-09T00:00:00	2024-11-06T10:00:00	3	Temperatura mínima	21.4
117196	7	Sololá	702	San José Chacayá	5	Chacayá	9	Septiembre	2023-03-09T00:00:00	2024-11-06T10:00:00	5	Humedad	58
117197	7	Sololá	702	San José Chacayá	5	Chacayá	9	Septiembre	2023-03-09T00:00:00	2024-11-06T10:00:00	6	Velocidad del viento	4.8
117198	7	Sololá	702	San José Chacayá	5	Chacayá	9	Septiembre	2023-03-09T00:00:00	2024-11-06T10:00:00	7	Dirección del viento	2.41
117199	7	Sololá	702	San José Chacayá	5	Chacayá	9	Septiembre	2023-03-09T00:00:00	2024-11-06T10:00:00	1	Precipitación	0
117200	7	Sololá	702	San José Chacayá	5	Chacayá	9	Septiembre	2023-03-09T00:00:00	2024-11-06T10:00:00	8	Radiación solar	761
117201	7	Sololá	702	San José Chacayá	5	Chacayá	9	Septiembre	2023-03-09T00:00:00	2024-11-06T11:00:00	2	Temperatura media	21.7
117202	7	Sololá	702	San José Chacayá	5	Chacayá	9	Septiembre	2023-03-09T00:00:00	2024-11-06T11:00:00	4	Temperatura máxima	22.3
117203	7	Sololá	702	San José Chacayá	5	Chacayá	9	Septiembre	2023-03-09T00:00:00	2024-11-06T11:00:00	3	Temperatura mínima	21.4
117204	7	Sololá	702	San José Chacayá	5	Chacayá	9	Septiembre	2023-03-09T00:00:00	2024-11-06T11:00:00	5	Humedad	62
117205	7	Sololá	702	San José Chacayá	5	Chacayá	9	Septiembre	2023-03-09T00:00:00	2024-11-06T11:00:00	6	Velocidad del viento	4.8
117206	7	Sololá	702	San José Chacayá	5	Chacayá	9	Septiembre	2023-03-09T00:00:00	2024-11-06T11:00:00	7	Dirección del viento	2.41
117207	7	Sololá	702	San José Chacayá	5	Chacayá	9	Septiembre	2023-03-09T00:00:00	2024-11-06T11:00:00	1	Precipitación	0
117208	7	Sololá	702	San José Chacayá	5	Chacayá	9	Septiembre	2023-03-09T00:00:00	2024-11-06T11:00:00	8	Radiación solar	477
117209	7	Sololá	702	San José Chacayá	5	Chacayá	9	Septiembre	2023-03-09T00:00:00	2024-11-06T12:00:00	2	Temperatura media	23.2
117210	7	Sololá	702	San José Chacayá	5	Chacayá	9	Septiembre	2023-03-09T00:00:00	2024-11-06T12:00:00	4	Temperatura máxima	23.2
117211	7	Sololá	702	San José Chacayá	5	Chacayá	9	Septiembre	2023-03-09T00:00:00	2024-11-06T12:00:00	3	Temperatura mínima	21.3
117212	7	Sololá	702	San José Chacayá	5	Chacayá	9	Septiembre	2023-03-09T00:00:00	2024-11-06T12:00:00	5	Humedad	55
117213	7	Sololá	702	San José Chacayá	5	Chacayá	9	Septiembre	2023-03-09T00:00:00	2024-11-06T12:00:00	6	Velocidad del viento	8
117214	7	Sololá	702	San José Chacayá	5	Chacayá	9	Septiembre	2023-03-09T00:00:00	2024-11-06T12:00:00	7	Dirección del viento	4.02
117215	7	Sololá	702	San José Chacayá	5	Chacayá	9	Septiembre	2023-03-09T00:00:00	2024-11-06T12:00:00	1	Precipitación	0
117216	7	Sololá	702	San José Chacayá	5	Chacayá	9	Septiembre	2023-03-09T00:00:00	2024-11-06T12:00:00	8	Radiación solar	1169
117217	7	Sololá	702	San José Chacayá	5	Chacayá	9	Septiembre	2023-03-09T00:00:00	2024-11-06T13:00:00	2	Temperatura media	21
117218	7	Sololá	702	San José Chacayá	5	Chacayá	9	Septiembre	2023-03-09T00:00:00	2024-11-06T13:00:00	4	Temperatura máxima	22
117219	7	Sololá	702	San José Chacayá	5	Chacayá	9	Septiembre	2023-03-09T00:00:00	2024-11-06T13:00:00	3	Temperatura mínima	21
117220	7	Sololá	702	San José Chacayá	5	Chacayá	9	Septiembre	2023-03-09T00:00:00	2024-11-06T13:00:00	5	Humedad	68
117221	7	Sololá	702	San José Chacayá	5	Chacayá	9	Septiembre	2023-03-09T00:00:00	2024-11-06T13:00:00	6	Velocidad del viento	8
117222	7	Sololá	702	San José Chacayá	5	Chacayá	9	Septiembre	2023-03-09T00:00:00	2024-11-06T13:00:00	7	Dirección del viento	4.02
117223	7	Sololá	702	San José Chacayá	5	Chacayá	9	Septiembre	2023-03-09T00:00:00	2024-11-06T13:00:00	1	Precipitación	0
117224	7	Sololá	702	San José Chacayá	5	Chacayá	9	Septiembre	2023-03-09T00:00:00	2024-11-06T13:00:00	8	Radiación solar	492
117225	7	Sololá	702	San José Chacayá	5	Chacayá	9	Septiembre	2023-03-09T00:00:00	2024-11-06T14:00:00	2	Temperatura media	20.6
117226	7	Sololá	702	San José Chacayá	5	Chacayá	9	Septiembre	2023-03-09T00:00:00	2024-11-06T14:00:00	4	Temperatura máxima	20.9
117227	7	Sololá	702	San José Chacayá	5	Chacayá	9	Septiembre	2023-03-09T00:00:00	2024-11-06T14:00:00	3	Temperatura mínima	19.9
117228	7	Sololá	702	San José Chacayá	5	Chacayá	9	Septiembre	2023-03-09T00:00:00	2024-11-06T14:00:00	5	Humedad	77
117229	7	Sololá	702	San José Chacayá	5	Chacayá	9	Septiembre	2023-03-09T00:00:00	2024-11-06T14:00:00	6	Velocidad del viento	4.8
117230	7	Sololá	702	San José Chacayá	5	Chacayá	9	Septiembre	2023-03-09T00:00:00	2024-11-06T14:00:00	7	Dirección del viento	2.41
117231	7	Sololá	702	San José Chacayá	5	Chacayá	9	Septiembre	2023-03-09T00:00:00	2024-11-06T14:00:00	1	Precipitación	0
117232	7	Sololá	702	San José Chacayá	5	Chacayá	9	Septiembre	2023-03-09T00:00:00	2024-11-06T14:00:00	8	Radiación solar	500
117233	7	Sololá	702	San José Chacayá	5	Chacayá	9	Septiembre	2023-03-09T00:00:00	2024-11-06T15:00:00	2	Temperatura media	20.5
117234	7	Sololá	702	San José Chacayá	5	Chacayá	9	Septiembre	2023-03-09T00:00:00	2024-11-06T15:00:00	4	Temperatura máxima	21.3
117235	7	Sololá	702	San José Chacayá	5	Chacayá	9	Septiembre	2023-03-09T00:00:00	2024-11-06T15:00:00	3	Temperatura mínima	20.5
117236	7	Sololá	702	San José Chacayá	5	Chacayá	9	Septiembre	2023-03-09T00:00:00	2024-11-06T15:00:00	5	Humedad	76
117237	7	Sololá	702	San José Chacayá	5	Chacayá	9	Septiembre	2023-03-09T00:00:00	2024-11-06T15:00:00	6	Velocidad del viento	4.8
117238	7	Sololá	702	San José Chacayá	5	Chacayá	9	Septiembre	2023-03-09T00:00:00	2024-11-06T15:00:00	7	Dirección del viento	2.41
117239	7	Sololá	702	San José Chacayá	5	Chacayá	9	Septiembre	2023-03-09T00:00:00	2024-11-06T15:00:00	1	Precipitación	0
117240	7	Sololá	702	San José Chacayá	5	Chacayá	9	Septiembre	2023-03-09T00:00:00	2024-11-06T15:00:00	8	Radiación solar	397
117241	7	Sololá	702	San José Chacayá	5	Chacayá	9	Septiembre	2023-03-09T00:00:00	2024-11-06T16:00:00	2	Temperatura media	19.4
117242	7	Sololá	702	San José Chacayá	5	Chacayá	9	Septiembre	2023-03-09T00:00:00	2024-11-06T16:00:00	4	Temperatura máxima	20.9
117243	7	Sololá	702	San José Chacayá	5	Chacayá	9	Septiembre	2023-03-09T00:00:00	2024-11-06T16:00:00	3	Temperatura mínima	19.4
117244	7	Sololá	702	San José Chacayá	5	Chacayá	9	Septiembre	2023-03-09T00:00:00	2024-11-06T16:00:00	5	Humedad	79
117245	7	Sololá	702	San José Chacayá	5	Chacayá	9	Septiembre	2023-03-09T00:00:00	2024-11-06T16:00:00	6	Velocidad del viento	4.8
117246	7	Sololá	702	San José Chacayá	5	Chacayá	9	Septiembre	2023-03-09T00:00:00	2024-11-06T16:00:00	7	Dirección del viento	2.41
117247	7	Sololá	702	San José Chacayá	5	Chacayá	9	Septiembre	2023-03-09T00:00:00	2024-11-06T16:00:00	1	Precipitación	0
117248	7	Sololá	702	San José Chacayá	5	Chacayá	9	Septiembre	2023-03-09T00:00:00	2024-11-06T16:00:00	8	Radiación solar	214
117249	7	Sololá	702	San José Chacayá	5	Chacayá	9	Septiembre	2023-03-09T00:00:00	2024-11-06T17:00:00	2	Temperatura media	16.2
117250	7	Sololá	702	San José Chacayá	5	Chacayá	9	Septiembre	2023-03-09T00:00:00	2024-11-06T17:00:00	4	Temperatura máxima	18.1
117251	7	Sololá	702	San José Chacayá	5	Chacayá	9	Septiembre	2023-03-09T00:00:00	2024-11-06T17:00:00	3	Temperatura mínima	16.2
117252	7	Sololá	702	San José Chacayá	5	Chacayá	9	Septiembre	2023-03-09T00:00:00	2024-11-06T17:00:00	5	Humedad	80
117253	7	Sololá	702	San José Chacayá	5	Chacayá	9	Septiembre	2023-03-09T00:00:00	2024-11-06T17:00:00	6	Velocidad del viento	1.6
117254	7	Sololá	702	San José Chacayá	5	Chacayá	9	Septiembre	2023-03-09T00:00:00	2024-11-06T17:00:00	7	Dirección del viento	0.8
117255	7	Sololá	702	San José Chacayá	5	Chacayá	9	Septiembre	2023-03-09T00:00:00	2024-11-06T17:00:00	1	Precipitación	0
117256	7	Sololá	702	San José Chacayá	5	Chacayá	9	Septiembre	2023-03-09T00:00:00	2024-11-06T17:00:00	8	Radiación solar	69
117257	7	Sololá	702	San José Chacayá	5	Chacayá	9	Septiembre	2023-03-09T00:00:00	2024-11-06T18:00:00	2	Temperatura media	16.1
117258	7	Sololá	702	San José Chacayá	5	Chacayá	9	Septiembre	2023-03-09T00:00:00	2024-11-06T18:00:00	4	Temperatura máxima	16.3
117259	7	Sololá	702	San José Chacayá	5	Chacayá	9	Septiembre	2023-03-09T00:00:00	2024-11-06T18:00:00	3	Temperatura mínima	16.1
117260	7	Sololá	702	San José Chacayá	5	Chacayá	9	Septiembre	2023-03-09T00:00:00	2024-11-06T18:00:00	5	Humedad	76
117261	7	Sololá	702	San José Chacayá	5	Chacayá	9	Septiembre	2023-03-09T00:00:00	2024-11-06T18:00:00	6	Velocidad del viento	0
117262	7	Sololá	702	San José Chacayá	5	Chacayá	9	Septiembre	2023-03-09T00:00:00	2024-11-06T18:00:00	7	Dirección del viento	0
117263	7	Sololá	702	San José Chacayá	5	Chacayá	9	Septiembre	2023-03-09T00:00:00	2024-11-06T18:00:00	1	Precipitación	0
117264	7	Sololá	702	San José Chacayá	5	Chacayá	9	Septiembre	2023-03-09T00:00:00	2024-11-06T18:00:00	8	Radiación solar	18
117265	7	Sololá	702	San José Chacayá	5	Chacayá	9	Septiembre	2023-03-09T00:00:00	2024-11-06T19:00:00	2	Temperatura media	15.6
117266	7	Sololá	702	San José Chacayá	5	Chacayá	9	Septiembre	2023-03-09T00:00:00	2024-11-06T19:00:00	4	Temperatura máxima	15.6
117267	7	Sololá	702	San José Chacayá	5	Chacayá	9	Septiembre	2023-03-09T00:00:00	2024-11-06T19:00:00	3	Temperatura mínima	15.5
117268	7	Sololá	702	San José Chacayá	5	Chacayá	9	Septiembre	2023-03-09T00:00:00	2024-11-06T19:00:00	5	Humedad	60
117269	7	Sololá	702	San José Chacayá	5	Chacayá	9	Septiembre	2023-03-09T00:00:00	2024-11-06T19:00:00	6	Velocidad del viento	0
117270	7	Sololá	702	San José Chacayá	5	Chacayá	9	Septiembre	2023-03-09T00:00:00	2024-11-06T19:00:00	7	Dirección del viento	0
117271	7	Sololá	702	San José Chacayá	5	Chacayá	9	Septiembre	2023-03-09T00:00:00	2024-11-06T19:00:00	1	Precipitación	0
117272	7	Sololá	702	San José Chacayá	5	Chacayá	9	Septiembre	2023-03-09T00:00:00	2024-11-06T19:00:00	8	Radiación solar	0
117273	7	Sololá	702	San José Chacayá	5	Chacayá	9	Septiembre	2023-03-09T00:00:00	2024-11-06T20:00:00	2	Temperatura media	15.3
117274	7	Sololá	702	San José Chacayá	5	Chacayá	9	Septiembre	2023-03-09T00:00:00	2024-11-06T20:00:00	4	Temperatura máxima	15.3
117275	7	Sololá	702	San José Chacayá	5	Chacayá	9	Septiembre	2023-03-09T00:00:00	2024-11-06T20:00:00	3	Temperatura mínima	15.3
117276	7	Sololá	702	San José Chacayá	5	Chacayá	9	Septiembre	2023-03-09T00:00:00	2024-11-06T20:00:00	5	Humedad	56
117277	7	Sololá	702	San José Chacayá	5	Chacayá	9	Septiembre	2023-03-09T00:00:00	2024-11-06T20:00:00	6	Velocidad del viento	0
117278	7	Sololá	702	San José Chacayá	5	Chacayá	9	Septiembre	2023-03-09T00:00:00	2024-11-06T20:00:00	7	Dirección del viento	0
117279	7	Sololá	702	San José Chacayá	5	Chacayá	9	Septiembre	2023-03-09T00:00:00	2024-11-06T20:00:00	1	Precipitación	0
117280	7	Sololá	702	San José Chacayá	5	Chacayá	9	Septiembre	2023-03-09T00:00:00	2024-11-06T20:00:00	8	Radiación solar	0
117281	7	Sololá	702	San José Chacayá	5	Chacayá	9	Septiembre	2023-03-09T00:00:00	2024-11-06T21:00:00	2	Temperatura media	14.9
117282	7	Sololá	702	San José Chacayá	5	Chacayá	9	Septiembre	2023-03-09T00:00:00	2024-11-06T21:00:00	4	Temperatura máxima	15.1
117283	7	Sololá	702	San José Chacayá	5	Chacayá	9	Septiembre	2023-03-09T00:00:00	2024-11-06T21:00:00	3	Temperatura mínima	14.9
117284	7	Sololá	702	San José Chacayá	5	Chacayá	9	Septiembre	2023-03-09T00:00:00	2024-11-06T21:00:00	5	Humedad	54
117285	7	Sololá	702	San José Chacayá	5	Chacayá	9	Septiembre	2023-03-09T00:00:00	2024-11-06T21:00:00	6	Velocidad del viento	0
117286	7	Sololá	702	San José Chacayá	5	Chacayá	9	Septiembre	2023-03-09T00:00:00	2024-11-06T21:00:00	7	Dirección del viento	0
117287	7	Sololá	702	San José Chacayá	5	Chacayá	9	Septiembre	2023-03-09T00:00:00	2024-11-06T21:00:00	1	Precipitación	2.29
117288	7	Sololá	702	San José Chacayá	5	Chacayá	9	Septiembre	2023-03-09T00:00:00	2024-11-06T21:00:00	8	Radiación solar	0
117289	7	Sololá	702	San José Chacayá	5	Chacayá	9	Septiembre	2023-03-09T00:00:00	2024-11-06T22:00:00	2	Temperatura media	14.4
117290	7	Sololá	702	San José Chacayá	5	Chacayá	9	Septiembre	2023-03-09T00:00:00	2024-11-06T22:00:00	4	Temperatura máxima	14.7
117291	7	Sololá	702	San José Chacayá	5	Chacayá	9	Septiembre	2023-03-09T00:00:00	2024-11-06T22:00:00	3	Temperatura mínima	14.4
117292	7	Sololá	702	San José Chacayá	5	Chacayá	9	Septiembre	2023-03-09T00:00:00	2024-11-06T22:00:00	5	Humedad	50
117293	7	Sololá	702	San José Chacayá	5	Chacayá	9	Septiembre	2023-03-09T00:00:00	2024-11-06T22:00:00	6	Velocidad del viento	0
117294	7	Sololá	702	San José Chacayá	5	Chacayá	9	Septiembre	2023-03-09T00:00:00	2024-11-06T22:00:00	7	Dirección del viento	0
117295	7	Sololá	702	San José Chacayá	5	Chacayá	9	Septiembre	2023-03-09T00:00:00	2024-11-06T22:00:00	1	Precipitación	4.83
117296	7	Sololá	702	San José Chacayá	5	Chacayá	9	Septiembre	2023-03-09T00:00:00	2024-11-06T22:00:00	8	Radiación solar	0
117297	7	Sololá	702	San José Chacayá	5	Chacayá	9	Septiembre	2023-03-09T00:00:00	2024-11-06T23:00:00	2	Temperatura media	13.9
117298	7	Sololá	702	San José Chacayá	5	Chacayá	9	Septiembre	2023-03-09T00:00:00	2024-11-06T23:00:00	4	Temperatura máxima	14.3
117299	7	Sololá	702	San José Chacayá	5	Chacayá	9	Septiembre	2023-03-09T00:00:00	2024-11-06T23:00:00	3	Temperatura mínima	13.9
117300	7	Sololá	702	San José Chacayá	5	Chacayá	9	Septiembre	2023-03-09T00:00:00	2024-11-06T23:00:00	5	Humedad	51
117301	7	Sololá	702	San José Chacayá	5	Chacayá	9	Septiembre	2023-03-09T00:00:00	2024-11-06T23:00:00	6	Velocidad del viento	0
117302	7	Sololá	702	San José Chacayá	5	Chacayá	9	Septiembre	2023-03-09T00:00:00	2024-11-06T23:00:00	7	Dirección del viento	0
117303	7	Sololá	702	San José Chacayá	5	Chacayá	9	Septiembre	2023-03-09T00:00:00	2024-11-06T23:00:00	1	Precipitación	2.04
117304	7	Sololá	702	San José Chacayá	5	Chacayá	9	Septiembre	2023-03-09T00:00:00	2024-11-06T23:00:00	8	Radiación solar	0
117305	7	Sololá	702	San José Chacayá	5	Chacayá	9	Septiembre	2023-04-09T00:00:00	2024-11-06T00:00:00	2	Temperatura media	13.8
117306	7	Sololá	702	San José Chacayá	5	Chacayá	9	Septiembre	2023-04-09T00:00:00	2024-11-06T00:00:00	4	Temperatura máxima	13.9
117307	7	Sololá	702	San José Chacayá	5	Chacayá	9	Septiembre	2023-04-09T00:00:00	2024-11-06T00:00:00	3	Temperatura mínima	13.8
117308	7	Sololá	702	San José Chacayá	5	Chacayá	9	Septiembre	2023-04-09T00:00:00	2024-11-06T00:00:00	5	Humedad	52
117309	7	Sololá	702	San José Chacayá	5	Chacayá	9	Septiembre	2023-04-09T00:00:00	2024-11-06T00:00:00	6	Velocidad del viento	1.6
117310	7	Sololá	702	San José Chacayá	5	Chacayá	9	Septiembre	2023-04-09T00:00:00	2024-11-06T00:00:00	7	Dirección del viento	0.8
117311	7	Sololá	702	San José Chacayá	5	Chacayá	9	Septiembre	2023-04-09T00:00:00	2024-11-06T00:00:00	1	Precipitación	0.51
117312	7	Sololá	702	San José Chacayá	5	Chacayá	9	Septiembre	2023-04-09T00:00:00	2024-11-06T00:00:00	8	Radiación solar	0
117313	7	Sololá	702	San José Chacayá	5	Chacayá	9	Septiembre	2023-04-09T00:00:00	2024-11-06T01:00:00	2	Temperatura media	13.7
117314	7	Sololá	702	San José Chacayá	5	Chacayá	9	Septiembre	2023-04-09T00:00:00	2024-11-06T01:00:00	4	Temperatura máxima	13.8
117315	7	Sololá	702	San José Chacayá	5	Chacayá	9	Septiembre	2023-04-09T00:00:00	2024-11-06T01:00:00	3	Temperatura mínima	13.7
117316	7	Sololá	702	San José Chacayá	5	Chacayá	9	Septiembre	2023-04-09T00:00:00	2024-11-06T01:00:00	5	Humedad	45
117317	7	Sololá	702	San José Chacayá	5	Chacayá	9	Septiembre	2023-04-09T00:00:00	2024-11-06T01:00:00	6	Velocidad del viento	0
117318	7	Sololá	702	San José Chacayá	5	Chacayá	9	Septiembre	2023-04-09T00:00:00	2024-11-06T01:00:00	7	Dirección del viento	0
117319	7	Sololá	702	San José Chacayá	5	Chacayá	9	Septiembre	2023-04-09T00:00:00	2024-11-06T01:00:00	1	Precipitación	0
117320	7	Sololá	702	San José Chacayá	5	Chacayá	9	Septiembre	2023-04-09T00:00:00	2024-11-06T01:00:00	8	Radiación solar	0
117321	7	Sololá	702	San José Chacayá	5	Chacayá	9	Septiembre	2023-04-09T00:00:00	2024-11-06T02:00:00	2	Temperatura media	13.2
117322	7	Sololá	702	San José Chacayá	5	Chacayá	9	Septiembre	2023-04-09T00:00:00	2024-11-06T02:00:00	4	Temperatura máxima	13.4
117323	7	Sololá	702	San José Chacayá	5	Chacayá	9	Septiembre	2023-04-09T00:00:00	2024-11-06T02:00:00	3	Temperatura mínima	13.2
117324	7	Sololá	702	San José Chacayá	5	Chacayá	9	Septiembre	2023-04-09T00:00:00	2024-11-06T02:00:00	5	Humedad	50
117325	7	Sololá	702	San José Chacayá	5	Chacayá	9	Septiembre	2023-04-09T00:00:00	2024-11-06T02:00:00	6	Velocidad del viento	0
117326	7	Sololá	702	San José Chacayá	5	Chacayá	9	Septiembre	2023-04-09T00:00:00	2024-11-06T02:00:00	7	Dirección del viento	0
117327	7	Sololá	702	San José Chacayá	5	Chacayá	9	Septiembre	2023-04-09T00:00:00	2024-11-06T02:00:00	1	Precipitación	0
117328	7	Sololá	702	San José Chacayá	5	Chacayá	9	Septiembre	2023-04-09T00:00:00	2024-11-06T02:00:00	8	Radiación solar	0
117329	7	Sololá	702	San José Chacayá	5	Chacayá	9	Septiembre	2023-04-09T00:00:00	2024-11-06T03:00:00	2	Temperatura media	12.3
117330	7	Sololá	702	San José Chacayá	5	Chacayá	9	Septiembre	2023-04-09T00:00:00	2024-11-06T03:00:00	4	Temperatura máxima	12.7
117331	7	Sololá	702	San José Chacayá	5	Chacayá	9	Septiembre	2023-04-09T00:00:00	2024-11-06T03:00:00	3	Temperatura mínima	12.3
117332	7	Sololá	702	San José Chacayá	5	Chacayá	9	Septiembre	2023-04-09T00:00:00	2024-11-06T03:00:00	5	Humedad	50
117333	7	Sololá	702	San José Chacayá	5	Chacayá	9	Septiembre	2023-04-09T00:00:00	2024-11-06T03:00:00	6	Velocidad del viento	0
117334	7	Sololá	702	San José Chacayá	5	Chacayá	9	Septiembre	2023-04-09T00:00:00	2024-11-06T03:00:00	7	Dirección del viento	0
117335	7	Sololá	702	San José Chacayá	5	Chacayá	9	Septiembre	2023-04-09T00:00:00	2024-11-06T03:00:00	1	Precipitación	0
117336	7	Sololá	702	San José Chacayá	5	Chacayá	9	Septiembre	2023-04-09T00:00:00	2024-11-06T03:00:00	8	Radiación solar	0
117337	7	Sololá	702	San José Chacayá	5	Chacayá	9	Septiembre	2023-04-09T00:00:00	2024-11-06T04:00:00	2	Temperatura media	11.4
117338	7	Sololá	702	San José Chacayá	5	Chacayá	9	Septiembre	2023-04-09T00:00:00	2024-11-06T04:00:00	4	Temperatura máxima	11.8
117339	7	Sololá	702	San José Chacayá	5	Chacayá	9	Septiembre	2023-04-09T00:00:00	2024-11-06T04:00:00	3	Temperatura mínima	11.4
117340	7	Sololá	702	San José Chacayá	5	Chacayá	9	Septiembre	2023-04-09T00:00:00	2024-11-06T04:00:00	5	Humedad	53
117341	7	Sololá	702	San José Chacayá	5	Chacayá	9	Septiembre	2023-04-09T00:00:00	2024-11-06T04:00:00	6	Velocidad del viento	3.2
117342	7	Sololá	702	San José Chacayá	5	Chacayá	9	Septiembre	2023-04-09T00:00:00	2024-11-06T04:00:00	7	Dirección del viento	1.61
117343	7	Sololá	702	San José Chacayá	5	Chacayá	9	Septiembre	2023-04-09T00:00:00	2024-11-06T04:00:00	1	Precipitación	0
117344	7	Sololá	702	San José Chacayá	5	Chacayá	9	Septiembre	2023-04-09T00:00:00	2024-11-06T04:00:00	8	Radiación solar	0
117345	7	Sololá	702	San José Chacayá	5	Chacayá	9	Septiembre	2023-04-09T00:00:00	2024-11-06T05:00:00	2	Temperatura media	10.9
117346	7	Sololá	702	San José Chacayá	5	Chacayá	9	Septiembre	2023-04-09T00:00:00	2024-11-06T05:00:00	4	Temperatura máxima	11.2
117347	7	Sololá	702	San José Chacayá	5	Chacayá	9	Septiembre	2023-04-09T00:00:00	2024-11-06T05:00:00	3	Temperatura mínima	10.9
117348	7	Sololá	702	San José Chacayá	5	Chacayá	9	Septiembre	2023-04-09T00:00:00	2024-11-06T05:00:00	5	Humedad	51
117349	7	Sololá	702	San José Chacayá	5	Chacayá	9	Septiembre	2023-04-09T00:00:00	2024-11-06T05:00:00	6	Velocidad del viento	0
117350	7	Sololá	702	San José Chacayá	5	Chacayá	9	Septiembre	2023-04-09T00:00:00	2024-11-06T05:00:00	7	Dirección del viento	0
117351	7	Sololá	702	San José Chacayá	5	Chacayá	9	Septiembre	2023-04-09T00:00:00	2024-11-06T05:00:00	1	Precipitación	0
117352	7	Sololá	702	San José Chacayá	5	Chacayá	9	Septiembre	2023-04-09T00:00:00	2024-11-06T05:00:00	8	Radiación solar	0
117353	7	Sololá	702	San José Chacayá	5	Chacayá	9	Septiembre	2023-04-09T00:00:00	2024-11-06T06:00:00	2	Temperatura media	10.7
117354	7	Sololá	702	San José Chacayá	5	Chacayá	9	Septiembre	2023-04-09T00:00:00	2024-11-06T06:00:00	4	Temperatura máxima	10.7
117355	7	Sololá	702	San José Chacayá	5	Chacayá	9	Septiembre	2023-04-09T00:00:00	2024-11-06T06:00:00	3	Temperatura mínima	10.6
117356	7	Sololá	702	San José Chacayá	5	Chacayá	9	Septiembre	2023-04-09T00:00:00	2024-11-06T06:00:00	5	Humedad	44
117357	7	Sololá	702	San José Chacayá	5	Chacayá	9	Septiembre	2023-04-09T00:00:00	2024-11-06T06:00:00	6	Velocidad del viento	3.2
117358	7	Sololá	702	San José Chacayá	5	Chacayá	9	Septiembre	2023-04-09T00:00:00	2024-11-06T06:00:00	7	Dirección del viento	1.61
117359	7	Sololá	702	San José Chacayá	5	Chacayá	9	Septiembre	2023-04-09T00:00:00	2024-11-06T06:00:00	1	Precipitación	0
117360	7	Sololá	702	San José Chacayá	5	Chacayá	9	Septiembre	2023-04-09T00:00:00	2024-11-06T06:00:00	8	Radiación solar	1
117361	7	Sololá	702	San José Chacayá	5	Chacayá	9	Septiembre	2023-04-09T00:00:00	2024-11-06T07:00:00	2	Temperatura media	11.8
117362	7	Sololá	702	San José Chacayá	5	Chacayá	9	Septiembre	2023-04-09T00:00:00	2024-11-06T07:00:00	4	Temperatura máxima	11.8
117363	7	Sololá	702	San José Chacayá	5	Chacayá	9	Septiembre	2023-04-09T00:00:00	2024-11-06T07:00:00	3	Temperatura mínima	11
117364	7	Sololá	702	San José Chacayá	5	Chacayá	9	Septiembre	2023-04-09T00:00:00	2024-11-06T07:00:00	5	Humedad	49
117365	7	Sololá	702	San José Chacayá	5	Chacayá	9	Septiembre	2023-04-09T00:00:00	2024-11-06T07:00:00	6	Velocidad del viento	3.2
117366	7	Sololá	702	San José Chacayá	5	Chacayá	9	Septiembre	2023-04-09T00:00:00	2024-11-06T07:00:00	7	Dirección del viento	1.61
117367	7	Sololá	702	San José Chacayá	5	Chacayá	9	Septiembre	2023-04-09T00:00:00	2024-11-06T07:00:00	1	Precipitación	0
117368	7	Sololá	702	San José Chacayá	5	Chacayá	9	Septiembre	2023-04-09T00:00:00	2024-11-06T07:00:00	8	Radiación solar	51
117369	7	Sololá	702	San José Chacayá	5	Chacayá	9	Septiembre	2023-04-09T00:00:00	2024-11-06T08:00:00	2	Temperatura media	14.6
117370	7	Sololá	702	San José Chacayá	5	Chacayá	9	Septiembre	2023-04-09T00:00:00	2024-11-06T08:00:00	4	Temperatura máxima	14.6
117371	7	Sololá	702	San José Chacayá	5	Chacayá	9	Septiembre	2023-04-09T00:00:00	2024-11-06T08:00:00	3	Temperatura mínima	13.1
117372	7	Sololá	702	San José Chacayá	5	Chacayá	9	Septiembre	2023-04-09T00:00:00	2024-11-06T08:00:00	5	Humedad	81
117373	7	Sololá	702	San José Chacayá	5	Chacayá	9	Septiembre	2023-04-09T00:00:00	2024-11-06T08:00:00	6	Velocidad del viento	1.6
117374	7	Sololá	702	San José Chacayá	5	Chacayá	9	Septiembre	2023-04-09T00:00:00	2024-11-06T08:00:00	7	Dirección del viento	0.8
117375	7	Sololá	702	San José Chacayá	5	Chacayá	9	Septiembre	2023-04-09T00:00:00	2024-11-06T08:00:00	1	Precipitación	0.25
117376	7	Sololá	702	San José Chacayá	5	Chacayá	9	Septiembre	2023-04-09T00:00:00	2024-11-06T08:00:00	8	Radiación solar	78
117377	7	Sololá	702	San José Chacayá	5	Chacayá	9	Septiembre	2023-04-09T00:00:00	2024-11-06T09:00:00	2	Temperatura media	19.8
117378	7	Sololá	702	San José Chacayá	5	Chacayá	9	Septiembre	2023-04-09T00:00:00	2024-11-06T09:00:00	4	Temperatura máxima	19.8
117379	7	Sololá	702	San José Chacayá	5	Chacayá	9	Septiembre	2023-04-09T00:00:00	2024-11-06T09:00:00	3	Temperatura mínima	17.5
117380	7	Sololá	702	San José Chacayá	5	Chacayá	9	Septiembre	2023-04-09T00:00:00	2024-11-06T09:00:00	5	Humedad	70
117381	7	Sololá	702	San José Chacayá	5	Chacayá	9	Septiembre	2023-04-09T00:00:00	2024-11-06T09:00:00	6	Velocidad del viento	3.2
117382	7	Sololá	702	San José Chacayá	5	Chacayá	9	Septiembre	2023-04-09T00:00:00	2024-11-06T09:00:00	7	Dirección del viento	1.61
117383	7	Sololá	702	San José Chacayá	5	Chacayá	9	Septiembre	2023-04-09T00:00:00	2024-11-06T09:00:00	1	Precipitación	0
117384	7	Sololá	702	San José Chacayá	5	Chacayá	9	Septiembre	2023-04-09T00:00:00	2024-11-06T09:00:00	8	Radiación solar	614
117385	7	Sololá	702	San José Chacayá	5	Chacayá	9	Septiembre	2023-04-09T00:00:00	2024-11-06T10:00:00	2	Temperatura media	21
117386	7	Sololá	702	San José Chacayá	5	Chacayá	9	Septiembre	2023-04-09T00:00:00	2024-11-06T10:00:00	4	Temperatura máxima	21
117387	7	Sololá	702	San José Chacayá	5	Chacayá	9	Septiembre	2023-04-09T00:00:00	2024-11-06T10:00:00	3	Temperatura mínima	20
117388	7	Sololá	702	San José Chacayá	5	Chacayá	9	Septiembre	2023-04-09T00:00:00	2024-11-06T10:00:00	5	Humedad	65
117389	7	Sololá	702	San José Chacayá	5	Chacayá	9	Septiembre	2023-04-09T00:00:00	2024-11-06T10:00:00	6	Velocidad del viento	4.8
117390	7	Sololá	702	San José Chacayá	5	Chacayá	9	Septiembre	2023-04-09T00:00:00	2024-11-06T10:00:00	7	Dirección del viento	2.41
117391	7	Sololá	702	San José Chacayá	5	Chacayá	9	Septiembre	2023-04-09T00:00:00	2024-11-06T10:00:00	1	Precipitación	0
117392	7	Sololá	702	San José Chacayá	5	Chacayá	9	Septiembre	2023-04-09T00:00:00	2024-11-06T10:00:00	8	Radiación solar	841
117393	7	Sololá	702	San José Chacayá	5	Chacayá	9	Septiembre	2023-04-09T00:00:00	2024-11-06T11:00:00	2	Temperatura media	22.6
117394	7	Sololá	702	San José Chacayá	5	Chacayá	9	Septiembre	2023-04-09T00:00:00	2024-11-06T11:00:00	4	Temperatura máxima	22.7
117395	7	Sololá	702	San José Chacayá	5	Chacayá	9	Septiembre	2023-04-09T00:00:00	2024-11-06T11:00:00	3	Temperatura mínima	21.9
117396	7	Sololá	702	San José Chacayá	5	Chacayá	9	Septiembre	2023-04-09T00:00:00	2024-11-06T11:00:00	5	Humedad	58
117397	7	Sololá	702	San José Chacayá	5	Chacayá	9	Septiembre	2023-04-09T00:00:00	2024-11-06T11:00:00	6	Velocidad del viento	4.8
117398	7	Sololá	702	San José Chacayá	5	Chacayá	9	Septiembre	2023-04-09T00:00:00	2024-11-06T11:00:00	7	Dirección del viento	2.41
117399	7	Sololá	702	San José Chacayá	5	Chacayá	9	Septiembre	2023-04-09T00:00:00	2024-11-06T11:00:00	1	Precipitación	0
117400	7	Sololá	702	San José Chacayá	5	Chacayá	9	Septiembre	2023-04-09T00:00:00	2024-11-06T11:00:00	8	Radiación solar	963
117401	7	Sololá	702	San José Chacayá	5	Chacayá	9	Septiembre	2023-04-09T00:00:00	2024-11-06T12:00:00	2	Temperatura media	23.3
117402	7	Sololá	702	San José Chacayá	5	Chacayá	9	Septiembre	2023-04-09T00:00:00	2024-11-06T12:00:00	4	Temperatura máxima	23.6
117403	7	Sololá	702	San José Chacayá	5	Chacayá	9	Septiembre	2023-04-09T00:00:00	2024-11-06T12:00:00	3	Temperatura mínima	23
117404	7	Sololá	702	San José Chacayá	5	Chacayá	9	Septiembre	2023-04-09T00:00:00	2024-11-06T12:00:00	5	Humedad	56
117405	7	Sololá	702	San José Chacayá	5	Chacayá	9	Septiembre	2023-04-09T00:00:00	2024-11-06T12:00:00	6	Velocidad del viento	6.4
117406	7	Sololá	702	San José Chacayá	5	Chacayá	9	Septiembre	2023-04-09T00:00:00	2024-11-06T12:00:00	7	Dirección del viento	3.22
117407	7	Sololá	702	San José Chacayá	5	Chacayá	9	Septiembre	2023-04-09T00:00:00	2024-11-06T12:00:00	1	Precipitación	0
117408	7	Sololá	702	San José Chacayá	5	Chacayá	9	Septiembre	2023-04-09T00:00:00	2024-11-06T12:00:00	8	Radiación solar	1062
117409	7	Sololá	702	San José Chacayá	5	Chacayá	9	Septiembre	2023-04-09T00:00:00	2024-11-06T13:00:00	2	Temperatura media	21
117410	7	Sololá	702	San José Chacayá	5	Chacayá	9	Septiembre	2023-04-09T00:00:00	2024-11-06T13:00:00	4	Temperatura máxima	23.2
117411	7	Sololá	702	San José Chacayá	5	Chacayá	9	Septiembre	2023-04-09T00:00:00	2024-11-06T13:00:00	3	Temperatura mínima	21
117412	7	Sololá	702	San José Chacayá	5	Chacayá	9	Septiembre	2023-04-09T00:00:00	2024-11-06T13:00:00	5	Humedad	76
117413	7	Sololá	702	San José Chacayá	5	Chacayá	9	Septiembre	2023-04-09T00:00:00	2024-11-06T13:00:00	6	Velocidad del viento	8
117414	7	Sololá	702	San José Chacayá	5	Chacayá	9	Septiembre	2023-04-09T00:00:00	2024-11-06T13:00:00	7	Dirección del viento	4.02
117415	7	Sololá	702	San José Chacayá	5	Chacayá	9	Septiembre	2023-04-09T00:00:00	2024-11-06T13:00:00	1	Precipitación	0
117416	7	Sololá	702	San José Chacayá	5	Chacayá	9	Septiembre	2023-04-09T00:00:00	2024-11-06T13:00:00	8	Radiación solar	821
117417	7	Sololá	702	San José Chacayá	5	Chacayá	9	Septiembre	2023-04-09T00:00:00	2024-11-06T14:00:00	2	Temperatura media	17.3
117418	7	Sololá	702	San José Chacayá	5	Chacayá	9	Septiembre	2023-04-09T00:00:00	2024-11-06T14:00:00	4	Temperatura máxima	19.9
117419	7	Sololá	702	San José Chacayá	5	Chacayá	9	Septiembre	2023-04-09T00:00:00	2024-11-06T14:00:00	3	Temperatura mínima	17.3
117420	7	Sololá	702	San José Chacayá	5	Chacayá	9	Septiembre	2023-04-09T00:00:00	2024-11-06T14:00:00	5	Humedad	79
117421	7	Sololá	702	San José Chacayá	5	Chacayá	9	Septiembre	2023-04-09T00:00:00	2024-11-06T14:00:00	6	Velocidad del viento	9.7
117422	7	Sololá	702	San José Chacayá	5	Chacayá	9	Septiembre	2023-04-09T00:00:00	2024-11-06T14:00:00	7	Dirección del viento	4.83
117423	7	Sololá	702	San José Chacayá	5	Chacayá	9	Septiembre	2023-04-09T00:00:00	2024-11-06T14:00:00	1	Precipitación	0
117424	7	Sololá	702	San José Chacayá	5	Chacayá	9	Septiembre	2023-04-09T00:00:00	2024-11-06T14:00:00	8	Radiación solar	186
117425	7	Sololá	702	San José Chacayá	5	Chacayá	9	Septiembre	2023-04-09T00:00:00	2024-11-06T15:00:00	2	Temperatura media	18.7
117426	7	Sololá	702	San José Chacayá	5	Chacayá	9	Septiembre	2023-04-09T00:00:00	2024-11-06T15:00:00	4	Temperatura máxima	18.7
117427	7	Sololá	702	San José Chacayá	5	Chacayá	9	Septiembre	2023-04-09T00:00:00	2024-11-06T15:00:00	3	Temperatura mínima	16.8
117428	7	Sololá	702	San José Chacayá	5	Chacayá	9	Septiembre	2023-04-09T00:00:00	2024-11-06T15:00:00	5	Humedad	80
117429	7	Sololá	702	San José Chacayá	5	Chacayá	9	Septiembre	2023-04-09T00:00:00	2024-11-06T15:00:00	6	Velocidad del viento	4.8
117430	7	Sololá	702	San José Chacayá	5	Chacayá	9	Septiembre	2023-04-09T00:00:00	2024-11-06T15:00:00	7	Dirección del viento	2.41
117431	7	Sololá	702	San José Chacayá	5	Chacayá	9	Septiembre	2023-04-09T00:00:00	2024-11-06T15:00:00	1	Precipitación	0
117432	7	Sololá	702	San José Chacayá	5	Chacayá	9	Septiembre	2023-04-09T00:00:00	2024-11-06T15:00:00	8	Radiación solar	347
117433	7	Sololá	702	San José Chacayá	5	Chacayá	9	Septiembre	2023-04-09T00:00:00	2024-11-06T16:00:00	2	Temperatura media	16.1
117434	7	Sololá	702	San José Chacayá	5	Chacayá	9	Septiembre	2023-04-09T00:00:00	2024-11-06T16:00:00	4	Temperatura máxima	17.2
117435	7	Sololá	702	San José Chacayá	5	Chacayá	9	Septiembre	2023-04-09T00:00:00	2024-11-06T16:00:00	3	Temperatura mínima	16.1
117436	7	Sololá	702	San José Chacayá	5	Chacayá	9	Septiembre	2023-04-09T00:00:00	2024-11-06T16:00:00	5	Humedad	73
117437	7	Sololá	702	San José Chacayá	5	Chacayá	9	Septiembre	2023-04-09T00:00:00	2024-11-06T16:00:00	6	Velocidad del viento	4.8
117438	7	Sololá	702	San José Chacayá	5	Chacayá	9	Septiembre	2023-04-09T00:00:00	2024-11-06T16:00:00	7	Dirección del viento	2.41
117439	7	Sololá	702	San José Chacayá	5	Chacayá	9	Septiembre	2023-04-09T00:00:00	2024-11-06T16:00:00	1	Precipitación	0
117440	7	Sololá	702	San José Chacayá	5	Chacayá	9	Septiembre	2023-04-09T00:00:00	2024-11-06T16:00:00	8	Radiación solar	158
117441	7	Sololá	702	San José Chacayá	5	Chacayá	9	Septiembre	2023-04-09T00:00:00	2024-11-06T17:00:00	2	Temperatura media	15.3
117442	7	Sololá	702	San José Chacayá	5	Chacayá	9	Septiembre	2023-04-09T00:00:00	2024-11-06T17:00:00	4	Temperatura máxima	16
117443	7	Sololá	702	San José Chacayá	5	Chacayá	9	Septiembre	2023-04-09T00:00:00	2024-11-06T17:00:00	3	Temperatura mínima	15.3
117444	7	Sololá	702	San José Chacayá	5	Chacayá	9	Septiembre	2023-04-09T00:00:00	2024-11-06T17:00:00	5	Humedad	56
117445	7	Sololá	702	San José Chacayá	5	Chacayá	9	Septiembre	2023-04-09T00:00:00	2024-11-06T17:00:00	6	Velocidad del viento	1.6
117446	7	Sololá	702	San José Chacayá	5	Chacayá	9	Septiembre	2023-04-09T00:00:00	2024-11-06T17:00:00	7	Dirección del viento	0.8
117447	7	Sololá	702	San José Chacayá	5	Chacayá	9	Septiembre	2023-04-09T00:00:00	2024-11-06T17:00:00	1	Precipitación	4.07
117448	7	Sololá	702	San José Chacayá	5	Chacayá	9	Septiembre	2023-04-09T00:00:00	2024-11-06T17:00:00	8	Radiación solar	22
117449	7	Sololá	702	San José Chacayá	5	Chacayá	9	Septiembre	2023-04-09T00:00:00	2024-11-06T18:00:00	2	Temperatura media	14.9
117450	7	Sololá	702	San José Chacayá	5	Chacayá	9	Septiembre	2023-04-09T00:00:00	2024-11-06T18:00:00	4	Temperatura máxima	15
117451	7	Sololá	702	San José Chacayá	5	Chacayá	9	Septiembre	2023-04-09T00:00:00	2024-11-06T18:00:00	3	Temperatura mínima	14.9
117452	7	Sololá	702	San José Chacayá	5	Chacayá	9	Septiembre	2023-04-09T00:00:00	2024-11-06T18:00:00	5	Humedad	46
117453	7	Sololá	702	San José Chacayá	5	Chacayá	9	Septiembre	2023-04-09T00:00:00	2024-11-06T18:00:00	6	Velocidad del viento	0
117454	7	Sololá	702	San José Chacayá	5	Chacayá	9	Septiembre	2023-04-09T00:00:00	2024-11-06T18:00:00	7	Dirección del viento	0
117455	7	Sololá	702	San José Chacayá	5	Chacayá	9	Septiembre	2023-04-09T00:00:00	2024-11-06T18:00:00	1	Precipitación	3.3
117456	7	Sololá	702	San José Chacayá	5	Chacayá	9	Septiembre	2023-04-09T00:00:00	2024-11-06T18:00:00	8	Radiación solar	13
117457	7	Sololá	702	San José Chacayá	5	Chacayá	9	Septiembre	2023-04-09T00:00:00	2024-11-06T19:00:00	2	Temperatura media	14.8
117458	7	Sololá	702	San José Chacayá	5	Chacayá	9	Septiembre	2023-04-09T00:00:00	2024-11-06T19:00:00	4	Temperatura máxima	14.9
117459	7	Sololá	702	San José Chacayá	5	Chacayá	9	Septiembre	2023-04-09T00:00:00	2024-11-06T19:00:00	3	Temperatura mínima	14.8
117460	7	Sololá	702	San José Chacayá	5	Chacayá	9	Septiembre	2023-04-09T00:00:00	2024-11-06T19:00:00	5	Humedad	37
117461	7	Sololá	702	San José Chacayá	5	Chacayá	9	Septiembre	2023-04-09T00:00:00	2024-11-06T19:00:00	6	Velocidad del viento	0
117462	7	Sololá	702	San José Chacayá	5	Chacayá	9	Septiembre	2023-04-09T00:00:00	2024-11-06T19:00:00	7	Dirección del viento	0
117463	7	Sololá	702	San José Chacayá	5	Chacayá	9	Septiembre	2023-04-09T00:00:00	2024-11-06T19:00:00	1	Precipitación	6.35
117464	7	Sololá	702	San José Chacayá	5	Chacayá	9	Septiembre	2023-04-09T00:00:00	2024-11-06T19:00:00	8	Radiación solar	0
117465	7	Sololá	702	San José Chacayá	5	Chacayá	9	Septiembre	2023-04-09T00:00:00	2024-11-06T20:00:00	2	Temperatura media	14.4
117466	7	Sololá	702	San José Chacayá	5	Chacayá	9	Septiembre	2023-04-09T00:00:00	2024-11-06T20:00:00	4	Temperatura máxima	14.8
117467	7	Sololá	702	San José Chacayá	5	Chacayá	9	Septiembre	2023-04-09T00:00:00	2024-11-06T20:00:00	3	Temperatura mínima	14.4
117468	7	Sololá	702	San José Chacayá	5	Chacayá	9	Septiembre	2023-04-09T00:00:00	2024-11-06T20:00:00	5	Humedad	35
117469	7	Sololá	702	San José Chacayá	5	Chacayá	9	Septiembre	2023-04-09T00:00:00	2024-11-06T20:00:00	6	Velocidad del viento	0
117470	7	Sololá	702	San José Chacayá	5	Chacayá	9	Septiembre	2023-04-09T00:00:00	2024-11-06T20:00:00	7	Dirección del viento	0
117471	7	Sololá	702	San José Chacayá	5	Chacayá	9	Septiembre	2023-04-09T00:00:00	2024-11-06T20:00:00	1	Precipitación	3.56
117472	7	Sololá	702	San José Chacayá	5	Chacayá	9	Septiembre	2023-04-09T00:00:00	2024-11-06T20:00:00	8	Radiación solar	0
117473	7	Sololá	702	San José Chacayá	5	Chacayá	9	Septiembre	2023-04-09T00:00:00	2024-11-06T21:00:00	2	Temperatura media	14.2
117474	7	Sololá	702	San José Chacayá	5	Chacayá	9	Septiembre	2023-04-09T00:00:00	2024-11-06T21:00:00	4	Temperatura máxima	14.3
117475	7	Sololá	702	San José Chacayá	5	Chacayá	9	Septiembre	2023-04-09T00:00:00	2024-11-06T21:00:00	3	Temperatura mínima	14.2
117476	7	Sololá	702	San José Chacayá	5	Chacayá	9	Septiembre	2023-04-09T00:00:00	2024-11-06T21:00:00	5	Humedad	31
117477	7	Sololá	702	San José Chacayá	5	Chacayá	9	Septiembre	2023-04-09T00:00:00	2024-11-06T21:00:00	6	Velocidad del viento	0
117478	7	Sololá	702	San José Chacayá	5	Chacayá	9	Septiembre	2023-04-09T00:00:00	2024-11-06T21:00:00	7	Dirección del viento	0
117479	7	Sololá	702	San José Chacayá	5	Chacayá	9	Septiembre	2023-04-09T00:00:00	2024-11-06T21:00:00	1	Precipitación	0.76
117480	7	Sololá	702	San José Chacayá	5	Chacayá	9	Septiembre	2023-04-09T00:00:00	2024-11-06T21:00:00	8	Radiación solar	0
117481	7	Sololá	702	San José Chacayá	5	Chacayá	9	Septiembre	2023-04-09T00:00:00	2024-11-06T22:00:00	2	Temperatura media	13.9
117482	7	Sololá	702	San José Chacayá	5	Chacayá	9	Septiembre	2023-04-09T00:00:00	2024-11-06T22:00:00	4	Temperatura máxima	14.1
117483	7	Sololá	702	San José Chacayá	5	Chacayá	9	Septiembre	2023-04-09T00:00:00	2024-11-06T22:00:00	3	Temperatura mínima	13.9
117484	7	Sololá	702	San José Chacayá	5	Chacayá	9	Septiembre	2023-04-09T00:00:00	2024-11-06T22:00:00	5	Humedad	28
117485	7	Sololá	702	San José Chacayá	5	Chacayá	9	Septiembre	2023-04-09T00:00:00	2024-11-06T22:00:00	6	Velocidad del viento	0
117486	7	Sololá	702	San José Chacayá	5	Chacayá	9	Septiembre	2023-04-09T00:00:00	2024-11-06T22:00:00	7	Dirección del viento	0
117487	7	Sololá	702	San José Chacayá	5	Chacayá	9	Septiembre	2023-04-09T00:00:00	2024-11-06T22:00:00	1	Precipitación	0
117488	7	Sololá	702	San José Chacayá	5	Chacayá	9	Septiembre	2023-04-09T00:00:00	2024-11-06T22:00:00	8	Radiación solar	0
117489	7	Sololá	702	San José Chacayá	5	Chacayá	9	Septiembre	2023-04-09T00:00:00	2024-11-06T23:00:00	2	Temperatura media	14
117490	7	Sololá	702	San José Chacayá	5	Chacayá	9	Septiembre	2023-04-09T00:00:00	2024-11-06T23:00:00	4	Temperatura máxima	14.1
117491	7	Sololá	702	San José Chacayá	5	Chacayá	9	Septiembre	2023-04-09T00:00:00	2024-11-06T23:00:00	3	Temperatura mínima	13.9
117492	7	Sololá	702	San José Chacayá	5	Chacayá	9	Septiembre	2023-04-09T00:00:00	2024-11-06T23:00:00	5	Humedad	24
117493	7	Sololá	702	San José Chacayá	5	Chacayá	9	Septiembre	2023-04-09T00:00:00	2024-11-06T23:00:00	6	Velocidad del viento	0
117494	7	Sololá	702	San José Chacayá	5	Chacayá	9	Septiembre	2023-04-09T00:00:00	2024-11-06T23:00:00	7	Dirección del viento	0
117495	7	Sololá	702	San José Chacayá	5	Chacayá	9	Septiembre	2023-04-09T00:00:00	2024-11-06T23:00:00	1	Precipitación	0.25
117496	7	Sololá	702	San José Chacayá	5	Chacayá	9	Septiembre	2023-04-09T00:00:00	2024-11-06T23:00:00	8	Radiación solar	0
117497	7	Sololá	702	San José Chacayá	5	Chacayá	9	Septiembre	2023-05-09T00:00:00	2024-11-06T00:00:00	2	Temperatura media	13.8
117498	7	Sololá	702	San José Chacayá	5	Chacayá	9	Septiembre	2023-05-09T00:00:00	2024-11-06T00:00:00	4	Temperatura máxima	13.9
117499	7	Sololá	702	San José Chacayá	5	Chacayá	9	Septiembre	2023-05-09T00:00:00	2024-11-06T00:00:00	3	Temperatura mínima	13.8
117500	7	Sololá	702	San José Chacayá	5	Chacayá	9	Septiembre	2023-05-09T00:00:00	2024-11-06T00:00:00	5	Humedad	25
117501	7	Sololá	702	San José Chacayá	5	Chacayá	9	Septiembre	2023-05-09T00:00:00	2024-11-06T00:00:00	6	Velocidad del viento	0
117502	7	Sololá	702	San José Chacayá	5	Chacayá	9	Septiembre	2023-05-09T00:00:00	2024-11-06T00:00:00	7	Dirección del viento	0
117503	7	Sololá	702	San José Chacayá	5	Chacayá	9	Septiembre	2023-05-09T00:00:00	2024-11-06T00:00:00	1	Precipitación	0
117504	7	Sololá	702	San José Chacayá	5	Chacayá	9	Septiembre	2023-05-09T00:00:00	2024-11-06T00:00:00	8	Radiación solar	0
117505	7	Sololá	702	San José Chacayá	5	Chacayá	9	Septiembre	2023-05-09T00:00:00	2024-11-06T01:00:00	2	Temperatura media	13.4
117506	7	Sololá	702	San José Chacayá	5	Chacayá	9	Septiembre	2023-05-09T00:00:00	2024-11-06T01:00:00	4	Temperatura máxima	13.7
117507	7	Sololá	702	San José Chacayá	5	Chacayá	9	Septiembre	2023-05-09T00:00:00	2024-11-06T01:00:00	3	Temperatura mínima	13.4
117508	7	Sololá	702	San José Chacayá	5	Chacayá	9	Septiembre	2023-05-09T00:00:00	2024-11-06T01:00:00	5	Humedad	29
117509	7	Sololá	702	San José Chacayá	5	Chacayá	9	Septiembre	2023-05-09T00:00:00	2024-11-06T01:00:00	6	Velocidad del viento	1.6
117510	7	Sololá	702	San José Chacayá	5	Chacayá	9	Septiembre	2023-05-09T00:00:00	2024-11-06T01:00:00	7	Dirección del viento	0.8
117511	7	Sololá	702	San José Chacayá	5	Chacayá	9	Septiembre	2023-05-09T00:00:00	2024-11-06T01:00:00	1	Precipitación	0
117512	7	Sololá	702	San José Chacayá	5	Chacayá	9	Septiembre	2023-05-09T00:00:00	2024-11-06T01:00:00	8	Radiación solar	0
117513	7	Sololá	702	San José Chacayá	5	Chacayá	9	Septiembre	2023-05-09T00:00:00	2024-11-06T02:00:00	2	Temperatura media	13.3
117514	7	Sololá	702	San José Chacayá	5	Chacayá	9	Septiembre	2023-05-09T00:00:00	2024-11-06T02:00:00	4	Temperatura máxima	13.4
117515	7	Sololá	702	San José Chacayá	5	Chacayá	9	Septiembre	2023-05-09T00:00:00	2024-11-06T02:00:00	3	Temperatura mínima	13.2
117516	7	Sololá	702	San José Chacayá	5	Chacayá	9	Septiembre	2023-05-09T00:00:00	2024-11-06T02:00:00	5	Humedad	35
117517	7	Sololá	702	San José Chacayá	5	Chacayá	9	Septiembre	2023-05-09T00:00:00	2024-11-06T02:00:00	6	Velocidad del viento	3.2
117518	7	Sololá	702	San José Chacayá	5	Chacayá	9	Septiembre	2023-05-09T00:00:00	2024-11-06T02:00:00	7	Dirección del viento	1.61
117519	7	Sololá	702	San José Chacayá	5	Chacayá	9	Septiembre	2023-05-09T00:00:00	2024-11-06T02:00:00	1	Precipitación	0
117520	7	Sololá	702	San José Chacayá	5	Chacayá	9	Septiembre	2023-05-09T00:00:00	2024-11-06T02:00:00	8	Radiación solar	0
117521	7	Sololá	702	San José Chacayá	5	Chacayá	9	Septiembre	2023-05-09T00:00:00	2024-11-06T03:00:00	2	Temperatura media	12.4
117522	7	Sololá	702	San José Chacayá	5	Chacayá	9	Septiembre	2023-05-09T00:00:00	2024-11-06T03:00:00	4	Temperatura máxima	12.8
117523	7	Sololá	702	San José Chacayá	5	Chacayá	9	Septiembre	2023-05-09T00:00:00	2024-11-06T03:00:00	3	Temperatura mínima	12.4
117524	7	Sololá	702	San José Chacayá	5	Chacayá	9	Septiembre	2023-05-09T00:00:00	2024-11-06T03:00:00	5	Humedad	44
117525	7	Sololá	702	San José Chacayá	5	Chacayá	9	Septiembre	2023-05-09T00:00:00	2024-11-06T03:00:00	6	Velocidad del viento	1.6
117526	7	Sololá	702	San José Chacayá	5	Chacayá	9	Septiembre	2023-05-09T00:00:00	2024-11-06T03:00:00	7	Dirección del viento	0.8
117527	7	Sololá	702	San José Chacayá	5	Chacayá	9	Septiembre	2023-05-09T00:00:00	2024-11-06T03:00:00	1	Precipitación	0.25
117528	7	Sololá	702	San José Chacayá	5	Chacayá	9	Septiembre	2023-05-09T00:00:00	2024-11-06T03:00:00	8	Radiación solar	0
117529	7	Sololá	702	San José Chacayá	5	Chacayá	9	Septiembre	2023-05-09T00:00:00	2024-11-06T04:00:00	2	Temperatura media	11.8
117530	7	Sololá	702	San José Chacayá	5	Chacayá	9	Septiembre	2023-05-09T00:00:00	2024-11-06T04:00:00	4	Temperatura máxima	12.2
117531	7	Sololá	702	San José Chacayá	5	Chacayá	9	Septiembre	2023-05-09T00:00:00	2024-11-06T04:00:00	3	Temperatura mínima	11.8
117532	7	Sololá	702	San José Chacayá	5	Chacayá	9	Septiembre	2023-05-09T00:00:00	2024-11-06T04:00:00	5	Humedad	49
117533	7	Sololá	702	San José Chacayá	5	Chacayá	9	Septiembre	2023-05-09T00:00:00	2024-11-06T04:00:00	6	Velocidad del viento	1.6
117534	7	Sololá	702	San José Chacayá	5	Chacayá	9	Septiembre	2023-05-09T00:00:00	2024-11-06T04:00:00	7	Dirección del viento	0.8
117535	7	Sololá	702	San José Chacayá	5	Chacayá	9	Septiembre	2023-05-09T00:00:00	2024-11-06T04:00:00	1	Precipitación	0
117536	7	Sololá	702	San José Chacayá	5	Chacayá	9	Septiembre	2023-05-09T00:00:00	2024-11-06T04:00:00	8	Radiación solar	0
117537	7	Sololá	702	San José Chacayá	5	Chacayá	9	Septiembre	2023-05-09T00:00:00	2024-11-06T05:00:00	2	Temperatura media	11.5
117538	7	Sololá	702	San José Chacayá	5	Chacayá	9	Septiembre	2023-05-09T00:00:00	2024-11-06T05:00:00	4	Temperatura máxima	11.7
117539	7	Sololá	702	San José Chacayá	5	Chacayá	9	Septiembre	2023-05-09T00:00:00	2024-11-06T05:00:00	3	Temperatura mínima	11.4
117540	7	Sololá	702	San José Chacayá	5	Chacayá	9	Septiembre	2023-05-09T00:00:00	2024-11-06T05:00:00	5	Humedad	48
117541	7	Sololá	702	San José Chacayá	5	Chacayá	9	Septiembre	2023-05-09T00:00:00	2024-11-06T05:00:00	6	Velocidad del viento	3.2
117542	7	Sololá	702	San José Chacayá	5	Chacayá	9	Septiembre	2023-05-09T00:00:00	2024-11-06T05:00:00	7	Dirección del viento	1.61
117543	7	Sololá	702	San José Chacayá	5	Chacayá	9	Septiembre	2023-05-09T00:00:00	2024-11-06T05:00:00	1	Precipitación	0
117544	7	Sololá	702	San José Chacayá	5	Chacayá	9	Septiembre	2023-05-09T00:00:00	2024-11-06T05:00:00	8	Radiación solar	0
117545	7	Sololá	702	San José Chacayá	5	Chacayá	9	Septiembre	2023-05-09T00:00:00	2024-11-06T06:00:00	2	Temperatura media	11.2
117546	7	Sololá	702	San José Chacayá	5	Chacayá	9	Septiembre	2023-05-09T00:00:00	2024-11-06T06:00:00	4	Temperatura máxima	11.5
117547	7	Sololá	702	San José Chacayá	5	Chacayá	9	Septiembre	2023-05-09T00:00:00	2024-11-06T06:00:00	3	Temperatura mínima	11.2
117548	7	Sololá	702	San José Chacayá	5	Chacayá	9	Septiembre	2023-05-09T00:00:00	2024-11-06T06:00:00	5	Humedad	54
117549	7	Sololá	702	San José Chacayá	5	Chacayá	9	Septiembre	2023-05-09T00:00:00	2024-11-06T06:00:00	6	Velocidad del viento	1.6
117550	7	Sololá	702	San José Chacayá	5	Chacayá	9	Septiembre	2023-05-09T00:00:00	2024-11-06T06:00:00	7	Dirección del viento	0.8
117551	7	Sololá	702	San José Chacayá	5	Chacayá	9	Septiembre	2023-05-09T00:00:00	2024-11-06T06:00:00	1	Precipitación	0
117552	7	Sololá	702	San José Chacayá	5	Chacayá	9	Septiembre	2023-05-09T00:00:00	2024-11-06T06:00:00	8	Radiación solar	2
117553	7	Sololá	702	San José Chacayá	5	Chacayá	9	Septiembre	2023-05-09T00:00:00	2024-11-06T07:00:00	2	Temperatura media	12.4
117554	7	Sololá	702	San José Chacayá	5	Chacayá	9	Septiembre	2023-05-09T00:00:00	2024-11-06T07:00:00	4	Temperatura máxima	12.4
117555	7	Sololá	702	San José Chacayá	5	Chacayá	9	Septiembre	2023-05-09T00:00:00	2024-11-06T07:00:00	3	Temperatura mínima	11.6
117556	7	Sololá	702	San José Chacayá	5	Chacayá	9	Septiembre	2023-05-09T00:00:00	2024-11-06T07:00:00	5	Humedad	51
117557	7	Sololá	702	San José Chacayá	5	Chacayá	9	Septiembre	2023-05-09T00:00:00	2024-11-06T07:00:00	6	Velocidad del viento	1.6
117558	7	Sololá	702	San José Chacayá	5	Chacayá	9	Septiembre	2023-05-09T00:00:00	2024-11-06T07:00:00	7	Dirección del viento	0.8
117559	7	Sololá	702	San José Chacayá	5	Chacayá	9	Septiembre	2023-05-09T00:00:00	2024-11-06T07:00:00	1	Precipitación	0
117560	7	Sololá	702	San José Chacayá	5	Chacayá	9	Septiembre	2023-05-09T00:00:00	2024-11-06T07:00:00	8	Radiación solar	27
117561	7	Sololá	702	San José Chacayá	5	Chacayá	9	Septiembre	2023-05-09T00:00:00	2024-11-06T08:00:00	2	Temperatura media	15.1
117562	7	Sololá	702	San José Chacayá	5	Chacayá	9	Septiembre	2023-05-09T00:00:00	2024-11-06T08:00:00	4	Temperatura máxima	15.1
117563	7	Sololá	702	San José Chacayá	5	Chacayá	9	Septiembre	2023-05-09T00:00:00	2024-11-06T08:00:00	3	Temperatura mínima	13.9
117564	7	Sololá	702	San José Chacayá	5	Chacayá	9	Septiembre	2023-05-09T00:00:00	2024-11-06T08:00:00	5	Humedad	77
117565	7	Sololá	702	San José Chacayá	5	Chacayá	9	Septiembre	2023-05-09T00:00:00	2024-11-06T08:00:00	6	Velocidad del viento	0
117566	7	Sololá	702	San José Chacayá	5	Chacayá	9	Septiembre	2023-05-09T00:00:00	2024-11-06T08:00:00	7	Dirección del viento	0
117567	7	Sololá	702	San José Chacayá	5	Chacayá	9	Septiembre	2023-05-09T00:00:00	2024-11-06T08:00:00	1	Precipitación	0
117568	7	Sololá	702	San José Chacayá	5	Chacayá	9	Septiembre	2023-05-09T00:00:00	2024-11-06T08:00:00	8	Radiación solar	78
117569	7	Sololá	702	San José Chacayá	5	Chacayá	9	Septiembre	2023-05-09T00:00:00	2024-11-06T09:00:00	2	Temperatura media	19.4
117570	7	Sololá	702	San José Chacayá	5	Chacayá	9	Septiembre	2023-05-09T00:00:00	2024-11-06T09:00:00	4	Temperatura máxima	19.5
117571	7	Sololá	702	San José Chacayá	5	Chacayá	9	Septiembre	2023-05-09T00:00:00	2024-11-06T09:00:00	3	Temperatura mínima	17.5
117572	7	Sololá	702	San José Chacayá	5	Chacayá	9	Septiembre	2023-05-09T00:00:00	2024-11-06T09:00:00	5	Humedad	68
117573	7	Sololá	702	San José Chacayá	5	Chacayá	9	Septiembre	2023-05-09T00:00:00	2024-11-06T09:00:00	6	Velocidad del viento	4.8
117574	7	Sololá	702	San José Chacayá	5	Chacayá	9	Septiembre	2023-05-09T00:00:00	2024-11-06T09:00:00	7	Dirección del viento	2.41
117575	7	Sololá	702	San José Chacayá	5	Chacayá	9	Septiembre	2023-05-09T00:00:00	2024-11-06T09:00:00	1	Precipitación	0
117576	7	Sololá	702	San José Chacayá	5	Chacayá	9	Septiembre	2023-05-09T00:00:00	2024-11-06T09:00:00	8	Radiación solar	606
117577	7	Sololá	702	San José Chacayá	5	Chacayá	9	Septiembre	2023-05-09T00:00:00	2024-11-06T10:00:00	2	Temperatura media	20.8
117578	7	Sololá	702	San José Chacayá	5	Chacayá	9	Septiembre	2023-05-09T00:00:00	2024-11-06T10:00:00	4	Temperatura máxima	21.2
117579	7	Sololá	702	San José Chacayá	5	Chacayá	9	Septiembre	2023-05-09T00:00:00	2024-11-06T10:00:00	3	Temperatura mínima	20.2
117580	7	Sololá	702	San José Chacayá	5	Chacayá	9	Septiembre	2023-05-09T00:00:00	2024-11-06T10:00:00	5	Humedad	66
117581	7	Sololá	702	San José Chacayá	5	Chacayá	9	Septiembre	2023-05-09T00:00:00	2024-11-06T10:00:00	6	Velocidad del viento	6.4
117582	7	Sololá	702	San José Chacayá	5	Chacayá	9	Septiembre	2023-05-09T00:00:00	2024-11-06T10:00:00	7	Dirección del viento	3.22
117583	7	Sololá	702	San José Chacayá	5	Chacayá	9	Septiembre	2023-05-09T00:00:00	2024-11-06T10:00:00	1	Precipitación	0
117584	7	Sololá	702	San José Chacayá	5	Chacayá	9	Septiembre	2023-05-09T00:00:00	2024-11-06T10:00:00	8	Radiación solar	782
117585	7	Sololá	702	San José Chacayá	5	Chacayá	9	Septiembre	2023-05-09T00:00:00	2024-11-06T11:00:00	2	Temperatura media	21.7
117586	7	Sololá	702	San José Chacayá	5	Chacayá	9	Septiembre	2023-05-09T00:00:00	2024-11-06T11:00:00	4	Temperatura máxima	22.1
117587	7	Sololá	702	San José Chacayá	5	Chacayá	9	Septiembre	2023-05-09T00:00:00	2024-11-06T11:00:00	3	Temperatura mínima	20.7
117588	7	Sololá	702	San José Chacayá	5	Chacayá	9	Septiembre	2023-05-09T00:00:00	2024-11-06T11:00:00	5	Humedad	69
117589	7	Sololá	702	San José Chacayá	5	Chacayá	9	Septiembre	2023-05-09T00:00:00	2024-11-06T11:00:00	6	Velocidad del viento	4.8
117590	7	Sololá	702	San José Chacayá	5	Chacayá	9	Septiembre	2023-05-09T00:00:00	2024-11-06T11:00:00	7	Dirección del viento	2.41
117591	7	Sololá	702	San José Chacayá	5	Chacayá	9	Septiembre	2023-05-09T00:00:00	2024-11-06T11:00:00	1	Precipitación	0
117592	7	Sololá	702	San José Chacayá	5	Chacayá	9	Septiembre	2023-05-09T00:00:00	2024-11-06T11:00:00	8	Radiación solar	1003
117593	7	Sololá	702	San José Chacayá	5	Chacayá	9	Septiembre	2023-05-09T00:00:00	2024-11-06T12:00:00	2	Temperatura media	19.8
117594	7	Sololá	702	San José Chacayá	5	Chacayá	9	Septiembre	2023-05-09T00:00:00	2024-11-06T12:00:00	4	Temperatura máxima	20.8
117595	7	Sololá	702	San José Chacayá	5	Chacayá	9	Septiembre	2023-05-09T00:00:00	2024-11-06T12:00:00	3	Temperatura mínima	19.8
117596	7	Sololá	702	San José Chacayá	5	Chacayá	9	Septiembre	2023-05-09T00:00:00	2024-11-06T12:00:00	5	Humedad	76
117597	7	Sololá	702	San José Chacayá	5	Chacayá	9	Septiembre	2023-05-09T00:00:00	2024-11-06T12:00:00	6	Velocidad del viento	6.4
117598	7	Sololá	702	San José Chacayá	5	Chacayá	9	Septiembre	2023-05-09T00:00:00	2024-11-06T12:00:00	7	Dirección del viento	3.22
117599	7	Sololá	702	San José Chacayá	5	Chacayá	9	Septiembre	2023-05-09T00:00:00	2024-11-06T12:00:00	1	Precipitación	0
117600	7	Sololá	702	San José Chacayá	5	Chacayá	9	Septiembre	2023-05-09T00:00:00	2024-11-06T12:00:00	8	Radiación solar	404
117601	7	Sololá	702	San José Chacayá	5	Chacayá	9	Septiembre	2023-05-09T00:00:00	2024-11-06T13:00:00	2	Temperatura media	20.4
117602	7	Sololá	702	San José Chacayá	5	Chacayá	9	Septiembre	2023-05-09T00:00:00	2024-11-06T13:00:00	4	Temperatura máxima	20.4
117603	7	Sololá	702	San José Chacayá	5	Chacayá	9	Septiembre	2023-05-09T00:00:00	2024-11-06T13:00:00	3	Temperatura mínima	18.6
117604	7	Sololá	702	San José Chacayá	5	Chacayá	9	Septiembre	2023-05-09T00:00:00	2024-11-06T13:00:00	5	Humedad	76
117605	7	Sololá	702	San José Chacayá	5	Chacayá	9	Septiembre	2023-05-09T00:00:00	2024-11-06T13:00:00	6	Velocidad del viento	3.2
117606	7	Sololá	702	San José Chacayá	5	Chacayá	9	Septiembre	2023-05-09T00:00:00	2024-11-06T13:00:00	7	Dirección del viento	1.61
117607	7	Sololá	702	San José Chacayá	5	Chacayá	9	Septiembre	2023-05-09T00:00:00	2024-11-06T13:00:00	1	Precipitación	0
117608	7	Sololá	702	San José Chacayá	5	Chacayá	9	Septiembre	2023-05-09T00:00:00	2024-11-06T13:00:00	8	Radiación solar	465
117609	7	Sololá	702	San José Chacayá	5	Chacayá	9	Septiembre	2023-05-09T00:00:00	2024-11-06T14:00:00	2	Temperatura media	18.8
117610	7	Sololá	702	San José Chacayá	5	Chacayá	9	Septiembre	2023-05-09T00:00:00	2024-11-06T14:00:00	4	Temperatura máxima	21.2
117611	7	Sololá	702	San José Chacayá	5	Chacayá	9	Septiembre	2023-05-09T00:00:00	2024-11-06T14:00:00	3	Temperatura mínima	18.8
117612	7	Sololá	702	San José Chacayá	5	Chacayá	9	Septiembre	2023-05-09T00:00:00	2024-11-06T14:00:00	5	Humedad	80
117613	7	Sololá	702	San José Chacayá	5	Chacayá	9	Septiembre	2023-05-09T00:00:00	2024-11-06T14:00:00	6	Velocidad del viento	4.8
117614	7	Sololá	702	San José Chacayá	5	Chacayá	9	Septiembre	2023-05-09T00:00:00	2024-11-06T14:00:00	7	Dirección del viento	2.41
117615	7	Sololá	702	San José Chacayá	5	Chacayá	9	Septiembre	2023-05-09T00:00:00	2024-11-06T14:00:00	1	Precipitación	20.32
117616	7	Sololá	702	San José Chacayá	5	Chacayá	9	Septiembre	2023-05-09T00:00:00	2024-11-06T14:00:00	8	Radiación solar	302
117617	7	Sololá	702	San José Chacayá	5	Chacayá	9	Septiembre	2023-05-09T00:00:00	2024-11-06T15:00:00	2	Temperatura media	13.9
117618	7	Sololá	702	San José Chacayá	5	Chacayá	9	Septiembre	2023-05-09T00:00:00	2024-11-06T15:00:00	4	Temperatura máxima	13.9
117619	7	Sololá	702	San José Chacayá	5	Chacayá	9	Septiembre	2023-05-09T00:00:00	2024-11-06T15:00:00	3	Temperatura mínima	13.4
117620	7	Sololá	702	San José Chacayá	5	Chacayá	9	Septiembre	2023-05-09T00:00:00	2024-11-06T15:00:00	5	Humedad	56
117621	7	Sololá	702	San José Chacayá	5	Chacayá	9	Septiembre	2023-05-09T00:00:00	2024-11-06T15:00:00	6	Velocidad del viento	3.2
117622	7	Sololá	702	San José Chacayá	5	Chacayá	9	Septiembre	2023-05-09T00:00:00	2024-11-06T15:00:00	7	Dirección del viento	1.61
117623	7	Sololá	702	San José Chacayá	5	Chacayá	9	Septiembre	2023-05-09T00:00:00	2024-11-06T15:00:00	1	Precipitación	12.7
117624	7	Sololá	702	San José Chacayá	5	Chacayá	9	Septiembre	2023-05-09T00:00:00	2024-11-06T15:00:00	8	Radiación solar	43
117625	7	Sololá	702	San José Chacayá	5	Chacayá	9	Septiembre	2023-05-09T00:00:00	2024-11-06T16:00:00	2	Temperatura media	14.1
117626	7	Sololá	702	San José Chacayá	5	Chacayá	9	Septiembre	2023-05-09T00:00:00	2024-11-06T16:00:00	4	Temperatura máxima	14.2
117627	7	Sololá	702	San José Chacayá	5	Chacayá	9	Septiembre	2023-05-09T00:00:00	2024-11-06T16:00:00	3	Temperatura mínima	13.9
117628	7	Sololá	702	San José Chacayá	5	Chacayá	9	Septiembre	2023-05-09T00:00:00	2024-11-06T16:00:00	5	Humedad	38
117629	7	Sololá	702	San José Chacayá	5	Chacayá	9	Septiembre	2023-05-09T00:00:00	2024-11-06T16:00:00	6	Velocidad del viento	1.6
117630	7	Sololá	702	San José Chacayá	5	Chacayá	9	Septiembre	2023-05-09T00:00:00	2024-11-06T16:00:00	7	Dirección del viento	0.8
117631	7	Sololá	702	San José Chacayá	5	Chacayá	9	Septiembre	2023-05-09T00:00:00	2024-11-06T16:00:00	1	Precipitación	0
117632	7	Sololá	702	San José Chacayá	5	Chacayá	9	Septiembre	2023-05-09T00:00:00	2024-11-06T16:00:00	8	Radiación solar	21
117633	7	Sololá	702	San José Chacayá	5	Chacayá	9	Septiembre	2023-05-09T00:00:00	2024-11-06T17:00:00	2	Temperatura media	13.9
117634	7	Sololá	702	San José Chacayá	5	Chacayá	9	Septiembre	2023-05-09T00:00:00	2024-11-06T17:00:00	4	Temperatura máxima	13.9
117635	7	Sololá	702	San José Chacayá	5	Chacayá	9	Septiembre	2023-05-09T00:00:00	2024-11-06T17:00:00	3	Temperatura mínima	13.8
117636	7	Sololá	702	San José Chacayá	5	Chacayá	9	Septiembre	2023-05-09T00:00:00	2024-11-06T17:00:00	5	Humedad	95
117637	7	Sololá	702	San José Chacayá	5	Chacayá	9	Septiembre	2023-05-09T00:00:00	2024-11-06T17:00:00	6	Velocidad del viento	0
117638	7	Sololá	702	San José Chacayá	5	Chacayá	9	Septiembre	2023-05-09T00:00:00	2024-11-06T17:00:00	7	Dirección del viento	0
117639	7	Sololá	702	San José Chacayá	5	Chacayá	9	Septiembre	2023-05-09T00:00:00	2024-11-06T17:00:00	1	Precipitación	0.76
117640	7	Sololá	702	San José Chacayá	5	Chacayá	9	Septiembre	2023-05-09T00:00:00	2024-11-06T17:00:00	8	Radiación solar	163
117641	7	Sololá	702	San José Chacayá	5	Chacayá	9	Septiembre	2023-05-09T00:00:00	2024-11-06T18:00:00	2	Temperatura media	13.7
117642	7	Sololá	702	San José Chacayá	5	Chacayá	9	Septiembre	2023-05-09T00:00:00	2024-11-06T18:00:00	4	Temperatura máxima	13.8
117643	7	Sololá	702	San José Chacayá	5	Chacayá	9	Septiembre	2023-05-09T00:00:00	2024-11-06T18:00:00	3	Temperatura mínima	13.7
117644	7	Sololá	702	San José Chacayá	5	Chacayá	9	Septiembre	2023-05-09T00:00:00	2024-11-06T18:00:00	5	Humedad	95
117645	7	Sololá	702	San José Chacayá	5	Chacayá	9	Septiembre	2023-05-09T00:00:00	2024-11-06T18:00:00	6	Velocidad del viento	0
117646	7	Sololá	702	San José Chacayá	5	Chacayá	9	Septiembre	2023-05-09T00:00:00	2024-11-06T18:00:00	7	Dirección del viento	0
117647	7	Sololá	702	San José Chacayá	5	Chacayá	9	Septiembre	2023-05-09T00:00:00	2024-11-06T18:00:00	1	Precipitación	0
117648	7	Sololá	702	San José Chacayá	5	Chacayá	9	Septiembre	2023-05-09T00:00:00	2024-11-06T18:00:00	8	Radiación solar	61
117649	7	Sololá	702	San José Chacayá	5	Chacayá	9	Septiembre	2023-05-09T00:00:00	2024-11-06T19:00:00	2	Temperatura media	13.4
117650	7	Sololá	702	San José Chacayá	5	Chacayá	9	Septiembre	2023-05-09T00:00:00	2024-11-06T19:00:00	4	Temperatura máxima	13.6
117651	7	Sololá	702	San José Chacayá	5	Chacayá	9	Septiembre	2023-05-09T00:00:00	2024-11-06T19:00:00	3	Temperatura mínima	13.4
117652	7	Sololá	702	San José Chacayá	5	Chacayá	9	Septiembre	2023-05-09T00:00:00	2024-11-06T19:00:00	5	Humedad	95
117653	7	Sololá	702	San José Chacayá	5	Chacayá	9	Septiembre	2023-05-09T00:00:00	2024-11-06T19:00:00	6	Velocidad del viento	0
117654	7	Sololá	702	San José Chacayá	5	Chacayá	9	Septiembre	2023-05-09T00:00:00	2024-11-06T19:00:00	7	Dirección del viento	0
117655	7	Sololá	702	San José Chacayá	5	Chacayá	9	Septiembre	2023-05-09T00:00:00	2024-11-06T19:00:00	1	Precipitación	0.25
117656	7	Sololá	702	San José Chacayá	5	Chacayá	9	Septiembre	2023-05-09T00:00:00	2024-11-06T19:00:00	8	Radiación solar	0
117657	7	Sololá	702	San José Chacayá	5	Chacayá	9	Septiembre	2023-05-09T00:00:00	2024-11-06T20:00:00	2	Temperatura media	13.2
117658	7	Sololá	702	San José Chacayá	5	Chacayá	9	Septiembre	2023-05-09T00:00:00	2024-11-06T20:00:00	4	Temperatura máxima	13.3
117659	7	Sololá	702	San José Chacayá	5	Chacayá	9	Septiembre	2023-05-09T00:00:00	2024-11-06T20:00:00	3	Temperatura mínima	13.1
117660	7	Sololá	702	San José Chacayá	5	Chacayá	9	Septiembre	2023-05-09T00:00:00	2024-11-06T20:00:00	5	Humedad	95
117661	7	Sololá	702	San José Chacayá	5	Chacayá	9	Septiembre	2023-05-09T00:00:00	2024-11-06T20:00:00	6	Velocidad del viento	0
117662	7	Sololá	702	San José Chacayá	5	Chacayá	9	Septiembre	2023-05-09T00:00:00	2024-11-06T20:00:00	7	Dirección del viento	0
117663	7	Sololá	702	San José Chacayá	5	Chacayá	9	Septiembre	2023-05-09T00:00:00	2024-11-06T20:00:00	1	Precipitación	0
117664	7	Sololá	702	San José Chacayá	5	Chacayá	9	Septiembre	2023-05-09T00:00:00	2024-11-06T20:00:00	8	Radiación solar	0
117665	7	Sololá	702	San José Chacayá	5	Chacayá	9	Septiembre	2023-05-09T00:00:00	2024-11-06T21:00:00	2	Temperatura media	13.2
117666	7	Sololá	702	San José Chacayá	5	Chacayá	9	Septiembre	2023-05-09T00:00:00	2024-11-06T21:00:00	4	Temperatura máxima	13.3
117667	7	Sololá	702	San José Chacayá	5	Chacayá	9	Septiembre	2023-05-09T00:00:00	2024-11-06T21:00:00	3	Temperatura mínima	13.2
117668	7	Sololá	702	San José Chacayá	5	Chacayá	9	Septiembre	2023-05-09T00:00:00	2024-11-06T21:00:00	5	Humedad	96
117669	7	Sololá	702	San José Chacayá	5	Chacayá	9	Septiembre	2023-05-09T00:00:00	2024-11-06T21:00:00	6	Velocidad del viento	0
117670	7	Sololá	702	San José Chacayá	5	Chacayá	9	Septiembre	2023-05-09T00:00:00	2024-11-06T21:00:00	7	Dirección del viento	0
117671	7	Sololá	702	San José Chacayá	5	Chacayá	9	Septiembre	2023-05-09T00:00:00	2024-11-06T21:00:00	1	Precipitación	0
117672	7	Sololá	702	San José Chacayá	5	Chacayá	9	Septiembre	2023-05-09T00:00:00	2024-11-06T21:00:00	8	Radiación solar	0
117673	7	Sololá	702	San José Chacayá	5	Chacayá	9	Septiembre	2023-05-09T00:00:00	2024-11-06T22:00:00	2	Temperatura media	13.3
117674	7	Sololá	702	San José Chacayá	5	Chacayá	9	Septiembre	2023-05-09T00:00:00	2024-11-06T22:00:00	4	Temperatura máxima	13.3
117675	7	Sololá	702	San José Chacayá	5	Chacayá	9	Septiembre	2023-05-09T00:00:00	2024-11-06T22:00:00	3	Temperatura mínima	13.2
117676	7	Sololá	702	San José Chacayá	5	Chacayá	9	Septiembre	2023-05-09T00:00:00	2024-11-06T22:00:00	5	Humedad	96
117677	7	Sololá	702	San José Chacayá	5	Chacayá	9	Septiembre	2023-05-09T00:00:00	2024-11-06T22:00:00	6	Velocidad del viento	0
117678	7	Sololá	702	San José Chacayá	5	Chacayá	9	Septiembre	2023-05-09T00:00:00	2024-11-06T22:00:00	7	Dirección del viento	0
117679	7	Sololá	702	San José Chacayá	5	Chacayá	9	Septiembre	2023-05-09T00:00:00	2024-11-06T22:00:00	1	Precipitación	0
117680	7	Sololá	702	San José Chacayá	5	Chacayá	9	Septiembre	2023-05-09T00:00:00	2024-11-06T22:00:00	8	Radiación solar	0
117681	7	Sololá	702	San José Chacayá	5	Chacayá	9	Septiembre	2023-05-09T00:00:00	2024-11-06T23:00:00	2	Temperatura media	12.9
117682	7	Sololá	702	San José Chacayá	5	Chacayá	9	Septiembre	2023-05-09T00:00:00	2024-11-06T23:00:00	4	Temperatura máxima	13.1
117683	7	Sololá	702	San José Chacayá	5	Chacayá	9	Septiembre	2023-05-09T00:00:00	2024-11-06T23:00:00	3	Temperatura mínima	12.9
117684	7	Sololá	702	San José Chacayá	5	Chacayá	9	Septiembre	2023-05-09T00:00:00	2024-11-06T23:00:00	5	Humedad	96
117685	7	Sololá	702	San José Chacayá	5	Chacayá	9	Septiembre	2023-05-09T00:00:00	2024-11-06T23:00:00	6	Velocidad del viento	0
117686	7	Sololá	702	San José Chacayá	5	Chacayá	9	Septiembre	2023-05-09T00:00:00	2024-11-06T23:00:00	7	Dirección del viento	0
117687	7	Sololá	702	San José Chacayá	5	Chacayá	9	Septiembre	2023-05-09T00:00:00	2024-11-06T23:00:00	1	Precipitación	0.25
117688	7	Sololá	702	San José Chacayá	5	Chacayá	9	Septiembre	2023-05-09T00:00:00	2024-11-06T23:00:00	8	Radiación solar	0
117689	7	Sololá	702	San José Chacayá	5	Chacayá	9	Septiembre	2023-06-09T00:00:00	2024-11-06T00:00:00	2	Temperatura media	12.7
117690	7	Sololá	702	San José Chacayá	5	Chacayá	9	Septiembre	2023-06-09T00:00:00	2024-11-06T00:00:00	4	Temperatura máxima	12.9
117691	7	Sololá	702	San José Chacayá	5	Chacayá	9	Septiembre	2023-06-09T00:00:00	2024-11-06T00:00:00	3	Temperatura mínima	12.7
117692	7	Sololá	702	San José Chacayá	5	Chacayá	9	Septiembre	2023-06-09T00:00:00	2024-11-06T00:00:00	5	Humedad	95
117693	7	Sololá	702	San José Chacayá	5	Chacayá	9	Septiembre	2023-06-09T00:00:00	2024-11-06T00:00:00	6	Velocidad del viento	0
117694	7	Sololá	702	San José Chacayá	5	Chacayá	9	Septiembre	2023-06-09T00:00:00	2024-11-06T00:00:00	7	Dirección del viento	0
117695	7	Sololá	702	San José Chacayá	5	Chacayá	9	Septiembre	2023-06-09T00:00:00	2024-11-06T00:00:00	1	Precipitación	0
117696	7	Sololá	702	San José Chacayá	5	Chacayá	9	Septiembre	2023-06-09T00:00:00	2024-11-06T00:00:00	8	Radiación solar	0
117697	7	Sololá	702	San José Chacayá	5	Chacayá	9	Septiembre	2023-06-09T00:00:00	2024-11-06T01:00:00	2	Temperatura media	12.9
117698	7	Sololá	702	San José Chacayá	5	Chacayá	9	Septiembre	2023-06-09T00:00:00	2024-11-06T01:00:00	4	Temperatura máxima	13.1
117699	7	Sololá	702	San José Chacayá	5	Chacayá	9	Septiembre	2023-06-09T00:00:00	2024-11-06T01:00:00	3	Temperatura mínima	12.8
117700	7	Sololá	702	San José Chacayá	5	Chacayá	9	Septiembre	2023-06-09T00:00:00	2024-11-06T01:00:00	5	Humedad	95
117701	7	Sololá	702	San José Chacayá	5	Chacayá	9	Septiembre	2023-06-09T00:00:00	2024-11-06T01:00:00	6	Velocidad del viento	1.6
117702	7	Sololá	702	San José Chacayá	5	Chacayá	9	Septiembre	2023-06-09T00:00:00	2024-11-06T01:00:00	7	Dirección del viento	0.8
117703	7	Sololá	702	San José Chacayá	5	Chacayá	9	Septiembre	2023-06-09T00:00:00	2024-11-06T01:00:00	1	Precipitación	0
117704	7	Sololá	702	San José Chacayá	5	Chacayá	9	Septiembre	2023-06-09T00:00:00	2024-11-06T01:00:00	8	Radiación solar	0
117705	7	Sololá	702	San José Chacayá	5	Chacayá	9	Septiembre	2023-06-09T00:00:00	2024-11-06T02:00:00	2	Temperatura media	12.6
117706	7	Sololá	702	San José Chacayá	5	Chacayá	9	Septiembre	2023-06-09T00:00:00	2024-11-06T02:00:00	4	Temperatura máxima	12.9
117707	7	Sololá	702	San José Chacayá	5	Chacayá	9	Septiembre	2023-06-09T00:00:00	2024-11-06T02:00:00	3	Temperatura mínima	12.6
117708	7	Sololá	702	San José Chacayá	5	Chacayá	9	Septiembre	2023-06-09T00:00:00	2024-11-06T02:00:00	5	Humedad	95
117709	7	Sololá	702	San José Chacayá	5	Chacayá	9	Septiembre	2023-06-09T00:00:00	2024-11-06T02:00:00	6	Velocidad del viento	0
117710	7	Sololá	702	San José Chacayá	5	Chacayá	9	Septiembre	2023-06-09T00:00:00	2024-11-06T02:00:00	7	Dirección del viento	0
117711	7	Sololá	702	San José Chacayá	5	Chacayá	9	Septiembre	2023-06-09T00:00:00	2024-11-06T02:00:00	1	Precipitación	0
117712	7	Sololá	702	San José Chacayá	5	Chacayá	9	Septiembre	2023-06-09T00:00:00	2024-11-06T02:00:00	8	Radiación solar	0
117713	7	Sololá	702	San José Chacayá	5	Chacayá	9	Septiembre	2023-06-09T00:00:00	2024-11-06T03:00:00	2	Temperatura media	12
117714	7	Sololá	702	San José Chacayá	5	Chacayá	9	Septiembre	2023-06-09T00:00:00	2024-11-06T03:00:00	4	Temperatura máxima	12.1
117715	7	Sololá	702	San José Chacayá	5	Chacayá	9	Septiembre	2023-06-09T00:00:00	2024-11-06T03:00:00	3	Temperatura mínima	11.9
117716	7	Sololá	702	San José Chacayá	5	Chacayá	9	Septiembre	2023-06-09T00:00:00	2024-11-06T03:00:00	5	Humedad	95
117717	7	Sololá	702	San José Chacayá	5	Chacayá	9	Septiembre	2023-06-09T00:00:00	2024-11-06T03:00:00	6	Velocidad del viento	1.6
117718	7	Sololá	702	San José Chacayá	5	Chacayá	9	Septiembre	2023-06-09T00:00:00	2024-11-06T03:00:00	7	Dirección del viento	0.8
117719	7	Sololá	702	San José Chacayá	5	Chacayá	9	Septiembre	2023-06-09T00:00:00	2024-11-06T03:00:00	1	Precipitación	0
117720	7	Sololá	702	San José Chacayá	5	Chacayá	9	Septiembre	2023-06-09T00:00:00	2024-11-06T03:00:00	8	Radiación solar	0
117721	7	Sololá	702	San José Chacayá	5	Chacayá	9	Septiembre	2023-06-09T00:00:00	2024-11-06T04:00:00	2	Temperatura media	11.6
117722	7	Sololá	702	San José Chacayá	5	Chacayá	9	Septiembre	2023-06-09T00:00:00	2024-11-06T04:00:00	4	Temperatura máxima	11.8
117723	7	Sololá	702	San José Chacayá	5	Chacayá	9	Septiembre	2023-06-09T00:00:00	2024-11-06T04:00:00	3	Temperatura mínima	11.6
117724	7	Sololá	702	San José Chacayá	5	Chacayá	9	Septiembre	2023-06-09T00:00:00	2024-11-06T04:00:00	5	Humedad	96
117725	7	Sololá	702	San José Chacayá	5	Chacayá	9	Septiembre	2023-06-09T00:00:00	2024-11-06T04:00:00	6	Velocidad del viento	0
117726	7	Sololá	702	San José Chacayá	5	Chacayá	9	Septiembre	2023-06-09T00:00:00	2024-11-06T04:00:00	7	Dirección del viento	0
117727	7	Sololá	702	San José Chacayá	5	Chacayá	9	Septiembre	2023-06-09T00:00:00	2024-11-06T04:00:00	1	Precipitación	0
117728	7	Sololá	702	San José Chacayá	5	Chacayá	9	Septiembre	2023-06-09T00:00:00	2024-11-06T04:00:00	8	Radiación solar	0
117729	7	Sololá	702	San José Chacayá	5	Chacayá	9	Septiembre	2023-06-09T00:00:00	2024-11-06T05:00:00	2	Temperatura media	11.8
117730	7	Sololá	702	San José Chacayá	5	Chacayá	9	Septiembre	2023-06-09T00:00:00	2024-11-06T05:00:00	4	Temperatura máxima	11.8
117731	7	Sololá	702	San José Chacayá	5	Chacayá	9	Septiembre	2023-06-09T00:00:00	2024-11-06T05:00:00	3	Temperatura mínima	11.6
117732	7	Sololá	702	San José Chacayá	5	Chacayá	9	Septiembre	2023-06-09T00:00:00	2024-11-06T05:00:00	5	Humedad	96
117733	7	Sololá	702	San José Chacayá	5	Chacayá	9	Septiembre	2023-06-09T00:00:00	2024-11-06T05:00:00	6	Velocidad del viento	0
117734	7	Sololá	702	San José Chacayá	5	Chacayá	9	Septiembre	2023-06-09T00:00:00	2024-11-06T05:00:00	7	Dirección del viento	0
117735	7	Sololá	702	San José Chacayá	5	Chacayá	9	Septiembre	2023-06-09T00:00:00	2024-11-06T05:00:00	1	Precipitación	0
117736	7	Sololá	702	San José Chacayá	5	Chacayá	9	Septiembre	2023-06-09T00:00:00	2024-11-06T05:00:00	8	Radiación solar	0
117737	7	Sololá	702	San José Chacayá	5	Chacayá	9	Septiembre	2023-06-09T00:00:00	2024-11-06T06:00:00	2	Temperatura media	11.8
117738	7	Sololá	702	San José Chacayá	5	Chacayá	9	Septiembre	2023-06-09T00:00:00	2024-11-06T06:00:00	4	Temperatura máxima	11.9
117739	7	Sololá	702	San José Chacayá	5	Chacayá	9	Septiembre	2023-06-09T00:00:00	2024-11-06T06:00:00	3	Temperatura mínima	11.8
117740	7	Sololá	702	San José Chacayá	5	Chacayá	9	Septiembre	2023-06-09T00:00:00	2024-11-06T06:00:00	5	Humedad	96
117741	7	Sololá	702	San José Chacayá	5	Chacayá	9	Septiembre	2023-06-09T00:00:00	2024-11-06T06:00:00	6	Velocidad del viento	1.6
117742	7	Sololá	702	San José Chacayá	5	Chacayá	9	Septiembre	2023-06-09T00:00:00	2024-11-06T06:00:00	7	Dirección del viento	0.8
117743	7	Sololá	702	San José Chacayá	5	Chacayá	9	Septiembre	2023-06-09T00:00:00	2024-11-06T06:00:00	1	Precipitación	0
117744	7	Sololá	702	San José Chacayá	5	Chacayá	9	Septiembre	2023-06-09T00:00:00	2024-11-06T06:00:00	8	Radiación solar	1
117745	7	Sololá	702	San José Chacayá	5	Chacayá	9	Septiembre	2023-06-09T00:00:00	2024-11-06T07:00:00	2	Temperatura media	12.4
117746	7	Sololá	702	San José Chacayá	5	Chacayá	9	Septiembre	2023-06-09T00:00:00	2024-11-06T07:00:00	4	Temperatura máxima	12.4
117747	7	Sololá	702	San José Chacayá	5	Chacayá	9	Septiembre	2023-06-09T00:00:00	2024-11-06T07:00:00	3	Temperatura mínima	11.9
117748	7	Sololá	702	San José Chacayá	5	Chacayá	9	Septiembre	2023-06-09T00:00:00	2024-11-06T07:00:00	5	Humedad	97
117749	7	Sololá	702	San José Chacayá	5	Chacayá	9	Septiembre	2023-06-09T00:00:00	2024-11-06T07:00:00	6	Velocidad del viento	0
117750	7	Sololá	702	San José Chacayá	5	Chacayá	9	Septiembre	2023-06-09T00:00:00	2024-11-06T07:00:00	7	Dirección del viento	0
117751	7	Sololá	702	San José Chacayá	5	Chacayá	9	Septiembre	2023-06-09T00:00:00	2024-11-06T07:00:00	1	Precipitación	0
117752	7	Sololá	702	San José Chacayá	5	Chacayá	9	Septiembre	2023-06-09T00:00:00	2024-11-06T07:00:00	8	Radiación solar	22
117753	7	Sololá	702	San José Chacayá	5	Chacayá	9	Septiembre	2023-06-09T00:00:00	2024-11-06T08:00:00	2	Temperatura media	14.4
117754	7	Sololá	702	San José Chacayá	5	Chacayá	9	Septiembre	2023-06-09T00:00:00	2024-11-06T08:00:00	4	Temperatura máxima	14.5
117755	7	Sololá	702	San José Chacayá	5	Chacayá	9	Septiembre	2023-06-09T00:00:00	2024-11-06T08:00:00	3	Temperatura mínima	13.6
117756	7	Sololá	702	San José Chacayá	5	Chacayá	9	Septiembre	2023-06-09T00:00:00	2024-11-06T08:00:00	5	Humedad	94
117757	7	Sololá	702	San José Chacayá	5	Chacayá	9	Septiembre	2023-06-09T00:00:00	2024-11-06T08:00:00	6	Velocidad del viento	0
117758	7	Sololá	702	San José Chacayá	5	Chacayá	9	Septiembre	2023-06-09T00:00:00	2024-11-06T08:00:00	7	Dirección del viento	0
117759	7	Sololá	702	San José Chacayá	5	Chacayá	9	Septiembre	2023-06-09T00:00:00	2024-11-06T08:00:00	1	Precipitación	0
117760	7	Sololá	702	San José Chacayá	5	Chacayá	9	Septiembre	2023-06-09T00:00:00	2024-11-06T08:00:00	8	Radiación solar	44
117761	7	Sololá	702	San José Chacayá	5	Chacayá	9	Septiembre	2023-06-09T00:00:00	2024-11-06T09:00:00	2	Temperatura media	16.2
117762	7	Sololá	702	San José Chacayá	5	Chacayá	9	Septiembre	2023-06-09T00:00:00	2024-11-06T09:00:00	4	Temperatura máxima	16.2
117763	7	Sololá	702	San José Chacayá	5	Chacayá	9	Septiembre	2023-06-09T00:00:00	2024-11-06T09:00:00	3	Temperatura mínima	15.2
117764	7	Sololá	702	San José Chacayá	5	Chacayá	9	Septiembre	2023-06-09T00:00:00	2024-11-06T09:00:00	5	Humedad	82
117765	7	Sololá	702	San José Chacayá	5	Chacayá	9	Septiembre	2023-06-09T00:00:00	2024-11-06T09:00:00	6	Velocidad del viento	0
117766	7	Sololá	702	San José Chacayá	5	Chacayá	9	Septiembre	2023-06-09T00:00:00	2024-11-06T09:00:00	7	Dirección del viento	0
117767	7	Sololá	702	San José Chacayá	5	Chacayá	9	Septiembre	2023-06-09T00:00:00	2024-11-06T09:00:00	1	Precipitación	0
117768	7	Sololá	702	San José Chacayá	5	Chacayá	9	Septiembre	2023-06-09T00:00:00	2024-11-06T09:00:00	8	Radiación solar	552
117769	7	Sololá	702	San José Chacayá	5	Chacayá	9	Septiembre	2023-06-09T00:00:00	2024-11-06T10:00:00	2	Temperatura media	19.1
117770	7	Sololá	702	San José Chacayá	5	Chacayá	9	Septiembre	2023-06-09T00:00:00	2024-11-06T10:00:00	4	Temperatura máxima	19.1
117771	7	Sololá	702	San José Chacayá	5	Chacayá	9	Septiembre	2023-06-09T00:00:00	2024-11-06T10:00:00	3	Temperatura mínima	18.8
117772	7	Sololá	702	San José Chacayá	5	Chacayá	9	Septiembre	2023-06-09T00:00:00	2024-11-06T10:00:00	5	Humedad	71
117773	7	Sololá	702	San José Chacayá	5	Chacayá	9	Septiembre	2023-06-09T00:00:00	2024-11-06T10:00:00	6	Velocidad del viento	4.8
117774	7	Sololá	702	San José Chacayá	5	Chacayá	9	Septiembre	2023-06-09T00:00:00	2024-11-06T10:00:00	7	Dirección del viento	2.41
117775	7	Sololá	702	San José Chacayá	5	Chacayá	9	Septiembre	2023-06-09T00:00:00	2024-11-06T10:00:00	1	Precipitación	0
117776	7	Sololá	702	San José Chacayá	5	Chacayá	9	Septiembre	2023-06-09T00:00:00	2024-11-06T10:00:00	8	Radiación solar	823
117777	7	Sololá	702	San José Chacayá	5	Chacayá	9	Septiembre	2023-06-09T00:00:00	2024-11-06T11:00:00	2	Temperatura media	21.6
117778	7	Sololá	702	San José Chacayá	5	Chacayá	9	Septiembre	2023-06-09T00:00:00	2024-11-06T11:00:00	4	Temperatura máxima	21.7
117779	7	Sololá	702	San José Chacayá	5	Chacayá	9	Septiembre	2023-06-09T00:00:00	2024-11-06T11:00:00	3	Temperatura mínima	19.8
117780	7	Sololá	702	San José Chacayá	5	Chacayá	9	Septiembre	2023-06-09T00:00:00	2024-11-06T11:00:00	5	Humedad	63
117781	7	Sololá	702	San José Chacayá	5	Chacayá	9	Septiembre	2023-06-09T00:00:00	2024-11-06T11:00:00	6	Velocidad del viento	6.4
117782	7	Sololá	702	San José Chacayá	5	Chacayá	9	Septiembre	2023-06-09T00:00:00	2024-11-06T11:00:00	7	Dirección del viento	3.22
117783	7	Sololá	702	San José Chacayá	5	Chacayá	9	Septiembre	2023-06-09T00:00:00	2024-11-06T11:00:00	1	Precipitación	0
117784	7	Sololá	702	San José Chacayá	5	Chacayá	9	Septiembre	2023-06-09T00:00:00	2024-11-06T11:00:00	8	Radiación solar	943
117785	7	Sololá	702	San José Chacayá	5	Chacayá	9	Septiembre	2023-06-09T00:00:00	2024-11-06T12:00:00	2	Temperatura media	21.1
117786	7	Sololá	702	San José Chacayá	5	Chacayá	9	Septiembre	2023-06-09T00:00:00	2024-11-06T12:00:00	4	Temperatura máxima	21.8
117787	7	Sololá	702	San José Chacayá	5	Chacayá	9	Septiembre	2023-06-09T00:00:00	2024-11-06T12:00:00	3	Temperatura mínima	21.1
117788	7	Sololá	702	San José Chacayá	5	Chacayá	9	Septiembre	2023-06-09T00:00:00	2024-11-06T12:00:00	5	Humedad	66
117789	7	Sololá	702	San José Chacayá	5	Chacayá	9	Septiembre	2023-06-09T00:00:00	2024-11-06T12:00:00	6	Velocidad del viento	6.4
117790	7	Sololá	702	San José Chacayá	5	Chacayá	9	Septiembre	2023-06-09T00:00:00	2024-11-06T12:00:00	7	Dirección del viento	3.22
117791	7	Sololá	702	San José Chacayá	5	Chacayá	9	Septiembre	2023-06-09T00:00:00	2024-11-06T12:00:00	1	Precipitación	0
117792	7	Sololá	702	San José Chacayá	5	Chacayá	9	Septiembre	2023-06-09T00:00:00	2024-11-06T12:00:00	8	Radiación solar	527
117793	7	Sololá	702	San José Chacayá	5	Chacayá	9	Septiembre	2023-06-09T00:00:00	2024-11-06T13:00:00	2	Temperatura media	21.8
117794	7	Sololá	702	San José Chacayá	5	Chacayá	9	Septiembre	2023-06-09T00:00:00	2024-11-06T13:00:00	4	Temperatura máxima	21.9
117795	7	Sololá	702	San José Chacayá	5	Chacayá	9	Septiembre	2023-06-09T00:00:00	2024-11-06T13:00:00	3	Temperatura mínima	21.5
117796	7	Sololá	702	San José Chacayá	5	Chacayá	9	Septiembre	2023-06-09T00:00:00	2024-11-06T13:00:00	5	Humedad	66
117797	7	Sololá	702	San José Chacayá	5	Chacayá	9	Septiembre	2023-06-09T00:00:00	2024-11-06T13:00:00	6	Velocidad del viento	4.8
117798	7	Sololá	702	San José Chacayá	5	Chacayá	9	Septiembre	2023-06-09T00:00:00	2024-11-06T13:00:00	7	Dirección del viento	2.41
117799	7	Sololá	702	San José Chacayá	5	Chacayá	9	Septiembre	2023-06-09T00:00:00	2024-11-06T13:00:00	1	Precipitación	0
117800	7	Sololá	702	San José Chacayá	5	Chacayá	9	Septiembre	2023-06-09T00:00:00	2024-11-06T13:00:00	8	Radiación solar	1000
117801	7	Sololá	702	San José Chacayá	5	Chacayá	9	Septiembre	2023-06-09T00:00:00	2024-11-06T14:00:00	2	Temperatura media	22.1
117802	7	Sololá	702	San José Chacayá	5	Chacayá	9	Septiembre	2023-06-09T00:00:00	2024-11-06T14:00:00	4	Temperatura máxima	22.2
117803	7	Sololá	702	San José Chacayá	5	Chacayá	9	Septiembre	2023-06-09T00:00:00	2024-11-06T14:00:00	3	Temperatura mínima	21.7
117804	7	Sololá	702	San José Chacayá	5	Chacayá	9	Septiembre	2023-06-09T00:00:00	2024-11-06T14:00:00	5	Humedad	65
117805	7	Sololá	702	San José Chacayá	5	Chacayá	9	Septiembre	2023-06-09T00:00:00	2024-11-06T14:00:00	6	Velocidad del viento	3.2
117806	7	Sololá	702	San José Chacayá	5	Chacayá	9	Septiembre	2023-06-09T00:00:00	2024-11-06T14:00:00	7	Dirección del viento	1.61
117807	7	Sololá	702	San José Chacayá	5	Chacayá	9	Septiembre	2023-06-09T00:00:00	2024-11-06T14:00:00	1	Precipitación	0
117808	7	Sololá	702	San José Chacayá	5	Chacayá	9	Septiembre	2023-06-09T00:00:00	2024-11-06T14:00:00	8	Radiación solar	939
117809	7	Sololá	702	San José Chacayá	5	Chacayá	9	Septiembre	2023-06-09T00:00:00	2024-11-06T15:00:00	2	Temperatura media	21.6
117810	7	Sololá	702	San José Chacayá	5	Chacayá	9	Septiembre	2023-06-09T00:00:00	2024-11-06T15:00:00	4	Temperatura máxima	21.9
117811	7	Sololá	702	San José Chacayá	5	Chacayá	9	Septiembre	2023-06-09T00:00:00	2024-11-06T15:00:00	3	Temperatura mínima	21.4
117812	7	Sololá	702	San José Chacayá	5	Chacayá	9	Septiembre	2023-06-09T00:00:00	2024-11-06T15:00:00	5	Humedad	66
117813	7	Sololá	702	San José Chacayá	5	Chacayá	9	Septiembre	2023-06-09T00:00:00	2024-11-06T15:00:00	6	Velocidad del viento	6.4
117814	7	Sololá	702	San José Chacayá	5	Chacayá	9	Septiembre	2023-06-09T00:00:00	2024-11-06T15:00:00	7	Dirección del viento	3.22
117815	7	Sololá	702	San José Chacayá	5	Chacayá	9	Septiembre	2023-06-09T00:00:00	2024-11-06T15:00:00	1	Precipitación	0
117816	7	Sololá	702	San José Chacayá	5	Chacayá	9	Septiembre	2023-06-09T00:00:00	2024-11-06T15:00:00	8	Radiación solar	736
117817	7	Sololá	702	San José Chacayá	5	Chacayá	9	Septiembre	2023-06-09T00:00:00	2024-11-06T16:00:00	2	Temperatura media	19.6
117818	7	Sololá	702	San José Chacayá	5	Chacayá	9	Septiembre	2023-06-09T00:00:00	2024-11-06T16:00:00	4	Temperatura máxima	21.2
117819	7	Sololá	702	San José Chacayá	5	Chacayá	9	Septiembre	2023-06-09T00:00:00	2024-11-06T16:00:00	3	Temperatura mínima	19.6
117820	7	Sololá	702	San José Chacayá	5	Chacayá	9	Septiembre	2023-06-09T00:00:00	2024-11-06T16:00:00	5	Humedad	70
117821	7	Sololá	702	San José Chacayá	5	Chacayá	9	Septiembre	2023-06-09T00:00:00	2024-11-06T16:00:00	6	Velocidad del viento	3.2
117822	7	Sololá	702	San José Chacayá	5	Chacayá	9	Septiembre	2023-06-09T00:00:00	2024-11-06T16:00:00	7	Dirección del viento	1.61
117823	7	Sololá	702	San José Chacayá	5	Chacayá	9	Septiembre	2023-06-09T00:00:00	2024-11-06T16:00:00	1	Precipitación	0
117824	7	Sololá	702	San José Chacayá	5	Chacayá	9	Septiembre	2023-06-09T00:00:00	2024-11-06T16:00:00	8	Radiación solar	465
117825	7	Sololá	702	San José Chacayá	5	Chacayá	9	Septiembre	2023-06-09T00:00:00	2024-11-06T17:00:00	2	Temperatura media	18.5
117826	7	Sololá	702	San José Chacayá	5	Chacayá	9	Septiembre	2023-06-09T00:00:00	2024-11-06T17:00:00	4	Temperatura máxima	18.9
117827	7	Sololá	702	San José Chacayá	5	Chacayá	9	Septiembre	2023-06-09T00:00:00	2024-11-06T17:00:00	3	Temperatura mínima	18.5
117828	7	Sololá	702	San José Chacayá	5	Chacayá	9	Septiembre	2023-06-09T00:00:00	2024-11-06T17:00:00	5	Humedad	78
117829	7	Sololá	702	San José Chacayá	5	Chacayá	9	Septiembre	2023-06-09T00:00:00	2024-11-06T17:00:00	6	Velocidad del viento	1.6
117830	7	Sololá	702	San José Chacayá	5	Chacayá	9	Septiembre	2023-06-09T00:00:00	2024-11-06T17:00:00	7	Dirección del viento	0.8
117831	7	Sololá	702	San José Chacayá	5	Chacayá	9	Septiembre	2023-06-09T00:00:00	2024-11-06T17:00:00	1	Precipitación	0
117832	7	Sololá	702	San José Chacayá	5	Chacayá	9	Septiembre	2023-06-09T00:00:00	2024-11-06T17:00:00	8	Radiación solar	106
117833	7	Sololá	702	San José Chacayá	5	Chacayá	9	Septiembre	2023-06-09T00:00:00	2024-11-06T18:00:00	2	Temperatura media	19.1
117834	7	Sololá	702	San José Chacayá	5	Chacayá	9	Septiembre	2023-06-09T00:00:00	2024-11-06T18:00:00	4	Temperatura máxima	19.3
117835	7	Sololá	702	San José Chacayá	5	Chacayá	9	Septiembre	2023-06-09T00:00:00	2024-11-06T18:00:00	3	Temperatura mínima	19.1
117836	7	Sololá	702	San José Chacayá	5	Chacayá	9	Septiembre	2023-06-09T00:00:00	2024-11-06T18:00:00	5	Humedad	80
117837	7	Sololá	702	San José Chacayá	5	Chacayá	9	Septiembre	2023-06-09T00:00:00	2024-11-06T18:00:00	6	Velocidad del viento	1.6
117838	7	Sololá	702	San José Chacayá	5	Chacayá	9	Septiembre	2023-06-09T00:00:00	2024-11-06T18:00:00	7	Dirección del viento	0.8
117839	7	Sololá	702	San José Chacayá	5	Chacayá	9	Septiembre	2023-06-09T00:00:00	2024-11-06T18:00:00	1	Precipitación	0
117840	7	Sololá	702	San José Chacayá	5	Chacayá	9	Septiembre	2023-06-09T00:00:00	2024-11-06T18:00:00	8	Radiación solar	64
117841	7	Sololá	702	San José Chacayá	5	Chacayá	9	Septiembre	2023-06-09T00:00:00	2024-11-06T19:00:00	2	Temperatura media	16.3
117842	7	Sololá	702	San José Chacayá	5	Chacayá	9	Septiembre	2023-06-09T00:00:00	2024-11-06T19:00:00	4	Temperatura máxima	17.8
117843	7	Sololá	702	San José Chacayá	5	Chacayá	9	Septiembre	2023-06-09T00:00:00	2024-11-06T19:00:00	3	Temperatura mínima	16.3
117844	7	Sololá	702	San José Chacayá	5	Chacayá	9	Septiembre	2023-06-09T00:00:00	2024-11-06T19:00:00	5	Humedad	87
117845	7	Sololá	702	San José Chacayá	5	Chacayá	9	Septiembre	2023-06-09T00:00:00	2024-11-06T19:00:00	6	Velocidad del viento	0
117846	7	Sololá	702	San José Chacayá	5	Chacayá	9	Septiembre	2023-06-09T00:00:00	2024-11-06T19:00:00	7	Dirección del viento	0
117847	7	Sololá	702	San José Chacayá	5	Chacayá	9	Septiembre	2023-06-09T00:00:00	2024-11-06T19:00:00	1	Precipitación	0
117848	7	Sololá	702	San José Chacayá	5	Chacayá	9	Septiembre	2023-06-09T00:00:00	2024-11-06T19:00:00	8	Radiación solar	0
117849	7	Sololá	702	San José Chacayá	5	Chacayá	9	Septiembre	2023-06-09T00:00:00	2024-11-06T20:00:00	2	Temperatura media	14.8
117850	7	Sololá	702	San José Chacayá	5	Chacayá	9	Septiembre	2023-06-09T00:00:00	2024-11-06T20:00:00	4	Temperatura máxima	15.3
117851	7	Sololá	702	San José Chacayá	5	Chacayá	9	Septiembre	2023-06-09T00:00:00	2024-11-06T20:00:00	3	Temperatura mínima	14.8
117852	7	Sololá	702	San José Chacayá	5	Chacayá	9	Septiembre	2023-06-09T00:00:00	2024-11-06T20:00:00	5	Humedad	89
117853	7	Sololá	702	San José Chacayá	5	Chacayá	9	Septiembre	2023-06-09T00:00:00	2024-11-06T20:00:00	6	Velocidad del viento	1.6
117854	7	Sololá	702	San José Chacayá	5	Chacayá	9	Septiembre	2023-06-09T00:00:00	2024-11-06T20:00:00	7	Dirección del viento	0.8
117855	7	Sololá	702	San José Chacayá	5	Chacayá	9	Septiembre	2023-06-09T00:00:00	2024-11-06T20:00:00	1	Precipitación	0
117856	7	Sololá	702	San José Chacayá	5	Chacayá	9	Septiembre	2023-06-09T00:00:00	2024-11-06T20:00:00	8	Radiación solar	0
117857	7	Sololá	702	San José Chacayá	5	Chacayá	9	Septiembre	2023-06-09T00:00:00	2024-11-06T21:00:00	2	Temperatura media	13.8
117858	7	Sololá	702	San José Chacayá	5	Chacayá	9	Septiembre	2023-06-09T00:00:00	2024-11-06T21:00:00	4	Temperatura máxima	14.2
117859	7	Sololá	702	San José Chacayá	5	Chacayá	9	Septiembre	2023-06-09T00:00:00	2024-11-06T21:00:00	3	Temperatura mínima	13.8
117860	7	Sololá	702	San José Chacayá	5	Chacayá	9	Septiembre	2023-06-09T00:00:00	2024-11-06T21:00:00	5	Humedad	90
117861	7	Sololá	702	San José Chacayá	5	Chacayá	9	Septiembre	2023-06-09T00:00:00	2024-11-06T21:00:00	6	Velocidad del viento	1.6
117862	7	Sololá	702	San José Chacayá	5	Chacayá	9	Septiembre	2023-06-09T00:00:00	2024-11-06T21:00:00	7	Dirección del viento	0.8
117863	7	Sololá	702	San José Chacayá	5	Chacayá	9	Septiembre	2023-06-09T00:00:00	2024-11-06T21:00:00	1	Precipitación	0
117864	7	Sololá	702	San José Chacayá	5	Chacayá	9	Septiembre	2023-06-09T00:00:00	2024-11-06T21:00:00	8	Radiación solar	0
117865	7	Sololá	702	San José Chacayá	5	Chacayá	9	Septiembre	2023-06-09T00:00:00	2024-11-06T22:00:00	2	Temperatura media	13.1
117866	7	Sololá	702	San José Chacayá	5	Chacayá	9	Septiembre	2023-06-09T00:00:00	2024-11-06T22:00:00	4	Temperatura máxima	13.3
117867	7	Sololá	702	San José Chacayá	5	Chacayá	9	Septiembre	2023-06-09T00:00:00	2024-11-06T22:00:00	3	Temperatura mínima	13.1
117868	7	Sololá	702	San José Chacayá	5	Chacayá	9	Septiembre	2023-06-09T00:00:00	2024-11-06T22:00:00	5	Humedad	91
117869	7	Sololá	702	San José Chacayá	5	Chacayá	9	Septiembre	2023-06-09T00:00:00	2024-11-06T22:00:00	6	Velocidad del viento	1.6
117870	7	Sololá	702	San José Chacayá	5	Chacayá	9	Septiembre	2023-06-09T00:00:00	2024-11-06T22:00:00	7	Dirección del viento	0.8
117871	7	Sololá	702	San José Chacayá	5	Chacayá	9	Septiembre	2023-06-09T00:00:00	2024-11-06T22:00:00	1	Precipitación	0
117872	7	Sololá	702	San José Chacayá	5	Chacayá	9	Septiembre	2023-06-09T00:00:00	2024-11-06T22:00:00	8	Radiación solar	0
117873	7	Sololá	702	San José Chacayá	5	Chacayá	9	Septiembre	2023-06-09T00:00:00	2024-11-06T23:00:00	2	Temperatura media	12.6
117874	7	Sololá	702	San José Chacayá	5	Chacayá	9	Septiembre	2023-06-09T00:00:00	2024-11-06T23:00:00	4	Temperatura máxima	12.8
117875	7	Sololá	702	San José Chacayá	5	Chacayá	9	Septiembre	2023-06-09T00:00:00	2024-11-06T23:00:00	3	Temperatura mínima	12.6
117876	7	Sololá	702	San José Chacayá	5	Chacayá	9	Septiembre	2023-06-09T00:00:00	2024-11-06T23:00:00	5	Humedad	92
117877	7	Sololá	702	San José Chacayá	5	Chacayá	9	Septiembre	2023-06-09T00:00:00	2024-11-06T23:00:00	6	Velocidad del viento	0
117878	7	Sololá	702	San José Chacayá	5	Chacayá	9	Septiembre	2023-06-09T00:00:00	2024-11-06T23:00:00	7	Dirección del viento	0
117879	7	Sololá	702	San José Chacayá	5	Chacayá	9	Septiembre	2023-06-09T00:00:00	2024-11-06T23:00:00	1	Precipitación	0
117880	7	Sololá	702	San José Chacayá	5	Chacayá	9	Septiembre	2023-06-09T00:00:00	2024-11-06T23:00:00	8	Radiación solar	0
117881	7	Sololá	702	San José Chacayá	5	Chacayá	9	Septiembre	2023-07-09T00:00:00	2024-11-06T00:00:00	2	Temperatura media	12.8
117882	7	Sololá	702	San José Chacayá	5	Chacayá	9	Septiembre	2023-07-09T00:00:00	2024-11-06T00:00:00	4	Temperatura máxima	12.9
117883	7	Sololá	702	San José Chacayá	5	Chacayá	9	Septiembre	2023-07-09T00:00:00	2024-11-06T00:00:00	3	Temperatura mínima	12.4
117884	7	Sololá	702	San José Chacayá	5	Chacayá	9	Septiembre	2023-07-09T00:00:00	2024-11-06T00:00:00	5	Humedad	92
117885	7	Sololá	702	San José Chacayá	5	Chacayá	9	Septiembre	2023-07-09T00:00:00	2024-11-06T00:00:00	6	Velocidad del viento	1.6
117886	7	Sololá	702	San José Chacayá	5	Chacayá	9	Septiembre	2023-07-09T00:00:00	2024-11-06T00:00:00	7	Dirección del viento	0.8
117887	7	Sololá	702	San José Chacayá	5	Chacayá	9	Septiembre	2023-07-09T00:00:00	2024-11-06T00:00:00	1	Precipitación	0
117888	7	Sololá	702	San José Chacayá	5	Chacayá	9	Septiembre	2023-07-09T00:00:00	2024-11-06T00:00:00	8	Radiación solar	0
117889	7	Sololá	702	San José Chacayá	5	Chacayá	9	Septiembre	2023-07-09T00:00:00	2024-11-06T01:00:00	2	Temperatura media	12.2
117890	7	Sololá	702	San José Chacayá	5	Chacayá	9	Septiembre	2023-07-09T00:00:00	2024-11-06T01:00:00	4	Temperatura máxima	12.4
117891	7	Sololá	702	San José Chacayá	5	Chacayá	9	Septiembre	2023-07-09T00:00:00	2024-11-06T01:00:00	3	Temperatura mínima	12.2
117892	7	Sololá	702	San José Chacayá	5	Chacayá	9	Septiembre	2023-07-09T00:00:00	2024-11-06T01:00:00	5	Humedad	93
117893	7	Sololá	702	San José Chacayá	5	Chacayá	9	Septiembre	2023-07-09T00:00:00	2024-11-06T01:00:00	6	Velocidad del viento	1.6
117894	7	Sololá	702	San José Chacayá	5	Chacayá	9	Septiembre	2023-07-09T00:00:00	2024-11-06T01:00:00	7	Dirección del viento	0.8
117895	7	Sololá	702	San José Chacayá	5	Chacayá	9	Septiembre	2023-07-09T00:00:00	2024-11-06T01:00:00	1	Precipitación	0
117896	7	Sololá	702	San José Chacayá	5	Chacayá	9	Septiembre	2023-07-09T00:00:00	2024-11-06T01:00:00	8	Radiación solar	0
117897	7	Sololá	702	San José Chacayá	5	Chacayá	9	Septiembre	2023-07-09T00:00:00	2024-11-06T02:00:00	2	Temperatura media	11.7
117898	7	Sololá	702	San José Chacayá	5	Chacayá	9	Septiembre	2023-07-09T00:00:00	2024-11-06T02:00:00	4	Temperatura máxima	11.9
117899	7	Sololá	702	San José Chacayá	5	Chacayá	9	Septiembre	2023-07-09T00:00:00	2024-11-06T02:00:00	3	Temperatura mínima	11.7
117900	7	Sololá	702	San José Chacayá	5	Chacayá	9	Septiembre	2023-07-09T00:00:00	2024-11-06T02:00:00	5	Humedad	93
117901	7	Sololá	702	San José Chacayá	5	Chacayá	9	Septiembre	2023-07-09T00:00:00	2024-11-06T02:00:00	6	Velocidad del viento	0
117902	7	Sololá	702	San José Chacayá	5	Chacayá	9	Septiembre	2023-07-09T00:00:00	2024-11-06T02:00:00	7	Dirección del viento	0
117903	7	Sololá	702	San José Chacayá	5	Chacayá	9	Septiembre	2023-07-09T00:00:00	2024-11-06T02:00:00	1	Precipitación	0
117904	7	Sololá	702	San José Chacayá	5	Chacayá	9	Septiembre	2023-07-09T00:00:00	2024-11-06T02:00:00	8	Radiación solar	0
117905	7	Sololá	702	San José Chacayá	5	Chacayá	9	Septiembre	2023-07-09T00:00:00	2024-11-06T03:00:00	2	Temperatura media	11.7
117906	7	Sololá	702	San José Chacayá	5	Chacayá	9	Septiembre	2023-07-09T00:00:00	2024-11-06T03:00:00	4	Temperatura máxima	11.8
117907	7	Sololá	702	San José Chacayá	5	Chacayá	9	Septiembre	2023-07-09T00:00:00	2024-11-06T03:00:00	3	Temperatura mínima	11.7
117908	7	Sololá	702	San José Chacayá	5	Chacayá	9	Septiembre	2023-07-09T00:00:00	2024-11-06T03:00:00	5	Humedad	93
117909	7	Sololá	702	San José Chacayá	5	Chacayá	9	Septiembre	2023-07-09T00:00:00	2024-11-06T03:00:00	6	Velocidad del viento	1.6
117910	7	Sololá	702	San José Chacayá	5	Chacayá	9	Septiembre	2023-07-09T00:00:00	2024-11-06T03:00:00	7	Dirección del viento	0.8
117911	7	Sololá	702	San José Chacayá	5	Chacayá	9	Septiembre	2023-07-09T00:00:00	2024-11-06T03:00:00	1	Precipitación	0
117912	7	Sololá	702	San José Chacayá	5	Chacayá	9	Septiembre	2023-07-09T00:00:00	2024-11-06T03:00:00	8	Radiación solar	0
117913	7	Sololá	702	San José Chacayá	5	Chacayá	9	Septiembre	2023-07-09T00:00:00	2024-11-06T04:00:00	2	Temperatura media	11.4
117914	7	Sololá	702	San José Chacayá	5	Chacayá	9	Septiembre	2023-07-09T00:00:00	2024-11-06T04:00:00	4	Temperatura máxima	11.6
117915	7	Sololá	702	San José Chacayá	5	Chacayá	9	Septiembre	2023-07-09T00:00:00	2024-11-06T04:00:00	3	Temperatura mínima	11.3
117916	7	Sololá	702	San José Chacayá	5	Chacayá	9	Septiembre	2023-07-09T00:00:00	2024-11-06T04:00:00	5	Humedad	93
117917	7	Sololá	702	San José Chacayá	5	Chacayá	9	Septiembre	2023-07-09T00:00:00	2024-11-06T04:00:00	6	Velocidad del viento	0
117918	7	Sololá	702	San José Chacayá	5	Chacayá	9	Septiembre	2023-07-09T00:00:00	2024-11-06T04:00:00	7	Dirección del viento	0
117919	7	Sololá	702	San José Chacayá	5	Chacayá	9	Septiembre	2023-07-09T00:00:00	2024-11-06T04:00:00	1	Precipitación	0
117920	7	Sololá	702	San José Chacayá	5	Chacayá	9	Septiembre	2023-07-09T00:00:00	2024-11-06T04:00:00	8	Radiación solar	0
117921	7	Sololá	702	San José Chacayá	5	Chacayá	9	Septiembre	2023-07-09T00:00:00	2024-11-06T05:00:00	2	Temperatura media	11.2
117922	7	Sololá	702	San José Chacayá	5	Chacayá	9	Septiembre	2023-07-09T00:00:00	2024-11-06T05:00:00	4	Temperatura máxima	11.2
117923	7	Sololá	702	San José Chacayá	5	Chacayá	9	Septiembre	2023-07-09T00:00:00	2024-11-06T05:00:00	3	Temperatura mínima	11.1
117924	7	Sololá	702	San José Chacayá	5	Chacayá	9	Septiembre	2023-07-09T00:00:00	2024-11-06T05:00:00	5	Humedad	94
117925	7	Sololá	702	San José Chacayá	5	Chacayá	9	Septiembre	2023-07-09T00:00:00	2024-11-06T05:00:00	6	Velocidad del viento	1.6
117926	7	Sololá	702	San José Chacayá	5	Chacayá	9	Septiembre	2023-07-09T00:00:00	2024-11-06T05:00:00	7	Dirección del viento	0.8
117927	7	Sololá	702	San José Chacayá	5	Chacayá	9	Septiembre	2023-07-09T00:00:00	2024-11-06T05:00:00	1	Precipitación	0
117928	7	Sololá	702	San José Chacayá	5	Chacayá	9	Septiembre	2023-07-09T00:00:00	2024-11-06T05:00:00	8	Radiación solar	0
117929	7	Sololá	702	San José Chacayá	5	Chacayá	9	Septiembre	2023-07-09T00:00:00	2024-11-06T06:00:00	2	Temperatura media	11
117930	7	Sololá	702	San José Chacayá	5	Chacayá	9	Septiembre	2023-07-09T00:00:00	2024-11-06T06:00:00	4	Temperatura máxima	11.1
117931	7	Sololá	702	San José Chacayá	5	Chacayá	9	Septiembre	2023-07-09T00:00:00	2024-11-06T06:00:00	3	Temperatura mínima	11
117932	7	Sololá	702	San José Chacayá	5	Chacayá	9	Septiembre	2023-07-09T00:00:00	2024-11-06T06:00:00	5	Humedad	94
117933	7	Sololá	702	San José Chacayá	5	Chacayá	9	Septiembre	2023-07-09T00:00:00	2024-11-06T06:00:00	6	Velocidad del viento	1.6
117934	7	Sololá	702	San José Chacayá	5	Chacayá	9	Septiembre	2023-07-09T00:00:00	2024-11-06T06:00:00	7	Dirección del viento	0.8
117935	7	Sololá	702	San José Chacayá	5	Chacayá	9	Septiembre	2023-07-09T00:00:00	2024-11-06T06:00:00	1	Precipitación	0
117936	7	Sololá	702	San José Chacayá	5	Chacayá	9	Septiembre	2023-07-09T00:00:00	2024-11-06T06:00:00	8	Radiación solar	0
117937	7	Sololá	702	San José Chacayá	5	Chacayá	9	Septiembre	2023-07-09T00:00:00	2024-11-06T07:00:00	2	Temperatura media	12.1
117938	7	Sololá	702	San José Chacayá	5	Chacayá	9	Septiembre	2023-07-09T00:00:00	2024-11-06T07:00:00	4	Temperatura máxima	12.1
117939	7	Sololá	702	San José Chacayá	5	Chacayá	9	Septiembre	2023-07-09T00:00:00	2024-11-06T07:00:00	3	Temperatura mínima	11.1
117940	7	Sololá	702	San José Chacayá	5	Chacayá	9	Septiembre	2023-07-09T00:00:00	2024-11-06T07:00:00	5	Humedad	96
117941	7	Sololá	702	San José Chacayá	5	Chacayá	9	Septiembre	2023-07-09T00:00:00	2024-11-06T07:00:00	6	Velocidad del viento	0
117942	7	Sololá	702	San José Chacayá	5	Chacayá	9	Septiembre	2023-07-09T00:00:00	2024-11-06T07:00:00	7	Dirección del viento	0
117943	7	Sololá	702	San José Chacayá	5	Chacayá	9	Septiembre	2023-07-09T00:00:00	2024-11-06T07:00:00	1	Precipitación	0
117944	7	Sololá	702	San José Chacayá	5	Chacayá	9	Septiembre	2023-07-09T00:00:00	2024-11-06T07:00:00	8	Radiación solar	49
117945	7	Sololá	702	San José Chacayá	5	Chacayá	9	Septiembre	2023-07-09T00:00:00	2024-11-06T08:00:00	2	Temperatura media	17.7
117946	7	Sololá	702	San José Chacayá	5	Chacayá	9	Septiembre	2023-07-09T00:00:00	2024-11-06T08:00:00	4	Temperatura máxima	17.7
117947	7	Sololá	702	San José Chacayá	5	Chacayá	9	Septiembre	2023-07-09T00:00:00	2024-11-06T08:00:00	3	Temperatura mínima	14.3
117948	7	Sololá	702	San José Chacayá	5	Chacayá	9	Septiembre	2023-07-09T00:00:00	2024-11-06T08:00:00	5	Humedad	80
117949	7	Sololá	702	San José Chacayá	5	Chacayá	9	Septiembre	2023-07-09T00:00:00	2024-11-06T08:00:00	6	Velocidad del viento	3.2
117950	7	Sololá	702	San José Chacayá	5	Chacayá	9	Septiembre	2023-07-09T00:00:00	2024-11-06T08:00:00	7	Dirección del viento	1.61
117951	7	Sololá	702	San José Chacayá	5	Chacayá	9	Septiembre	2023-07-09T00:00:00	2024-11-06T08:00:00	1	Precipitación	0
117952	7	Sololá	702	San José Chacayá	5	Chacayá	9	Septiembre	2023-07-09T00:00:00	2024-11-06T08:00:00	8	Radiación solar	160
117953	7	Sololá	702	San José Chacayá	5	Chacayá	9	Septiembre	2023-07-09T00:00:00	2024-11-06T09:00:00	2	Temperatura media	20.7
117954	7	Sololá	702	San José Chacayá	5	Chacayá	9	Septiembre	2023-07-09T00:00:00	2024-11-06T09:00:00	4	Temperatura máxima	20.7
117955	7	Sololá	702	San José Chacayá	5	Chacayá	9	Septiembre	2023-07-09T00:00:00	2024-11-06T09:00:00	3	Temperatura mínima	19.2
117956	7	Sololá	702	San José Chacayá	5	Chacayá	9	Septiembre	2023-07-09T00:00:00	2024-11-06T09:00:00	5	Humedad	67
117957	7	Sololá	702	San José Chacayá	5	Chacayá	9	Septiembre	2023-07-09T00:00:00	2024-11-06T09:00:00	6	Velocidad del viento	6.4
117958	7	Sololá	702	San José Chacayá	5	Chacayá	9	Septiembre	2023-07-09T00:00:00	2024-11-06T09:00:00	7	Dirección del viento	3.22
117959	7	Sololá	702	San José Chacayá	5	Chacayá	9	Septiembre	2023-07-09T00:00:00	2024-11-06T09:00:00	1	Precipitación	0
117960	7	Sololá	702	San José Chacayá	5	Chacayá	9	Septiembre	2023-07-09T00:00:00	2024-11-06T09:00:00	8	Radiación solar	602
117961	7	Sololá	702	San José Chacayá	5	Chacayá	9	Septiembre	2023-07-09T00:00:00	2024-11-06T10:00:00	2	Temperatura media	22.9
117962	7	Sololá	702	San José Chacayá	5	Chacayá	9	Septiembre	2023-07-09T00:00:00	2024-11-06T10:00:00	4	Temperatura máxima	22.9
117963	7	Sololá	702	San José Chacayá	5	Chacayá	9	Septiembre	2023-07-09T00:00:00	2024-11-06T10:00:00	3	Temperatura mínima	21.6
117964	7	Sololá	702	San José Chacayá	5	Chacayá	9	Septiembre	2023-07-09T00:00:00	2024-11-06T10:00:00	5	Humedad	54
117965	7	Sololá	702	San José Chacayá	5	Chacayá	9	Septiembre	2023-07-09T00:00:00	2024-11-06T10:00:00	6	Velocidad del viento	4.8
117966	7	Sololá	702	San José Chacayá	5	Chacayá	9	Septiembre	2023-07-09T00:00:00	2024-11-06T10:00:00	7	Dirección del viento	2.41
117967	7	Sololá	702	San José Chacayá	5	Chacayá	9	Septiembre	2023-07-09T00:00:00	2024-11-06T10:00:00	1	Precipitación	0
117968	7	Sololá	702	San José Chacayá	5	Chacayá	9	Septiembre	2023-07-09T00:00:00	2024-11-06T10:00:00	8	Radiación solar	637
117969	7	Sololá	702	San José Chacayá	5	Chacayá	9	Septiembre	2023-07-09T00:00:00	2024-11-06T11:00:00	2	Temperatura media	23.4
117970	7	Sololá	702	San José Chacayá	5	Chacayá	9	Septiembre	2023-07-09T00:00:00	2024-11-06T11:00:00	4	Temperatura máxima	23.8
117971	7	Sololá	702	San José Chacayá	5	Chacayá	9	Septiembre	2023-07-09T00:00:00	2024-11-06T11:00:00	3	Temperatura mínima	23.4
117972	7	Sololá	702	San José Chacayá	5	Chacayá	9	Septiembre	2023-07-09T00:00:00	2024-11-06T11:00:00	5	Humedad	50
117973	7	Sololá	702	San José Chacayá	5	Chacayá	9	Septiembre	2023-07-09T00:00:00	2024-11-06T11:00:00	6	Velocidad del viento	6.4
117974	7	Sololá	702	San José Chacayá	5	Chacayá	9	Septiembre	2023-07-09T00:00:00	2024-11-06T11:00:00	7	Dirección del viento	3.22
117975	7	Sololá	702	San José Chacayá	5	Chacayá	9	Septiembre	2023-07-09T00:00:00	2024-11-06T11:00:00	1	Precipitación	0
117976	7	Sololá	702	San José Chacayá	5	Chacayá	9	Septiembre	2023-07-09T00:00:00	2024-11-06T11:00:00	8	Radiación solar	853
117977	7	Sololá	702	San José Chacayá	5	Chacayá	9	Septiembre	2023-07-09T00:00:00	2024-11-06T12:00:00	2	Temperatura media	24.3
117978	7	Sololá	702	San José Chacayá	5	Chacayá	9	Septiembre	2023-07-09T00:00:00	2024-11-06T12:00:00	4	Temperatura máxima	24.7
117979	7	Sololá	702	San José Chacayá	5	Chacayá	9	Septiembre	2023-07-09T00:00:00	2024-11-06T12:00:00	3	Temperatura mínima	24.1
117980	7	Sololá	702	San José Chacayá	5	Chacayá	9	Septiembre	2023-07-09T00:00:00	2024-11-06T12:00:00	5	Humedad	47
117981	7	Sololá	702	San José Chacayá	5	Chacayá	9	Septiembre	2023-07-09T00:00:00	2024-11-06T12:00:00	6	Velocidad del viento	4.8
117982	7	Sololá	702	San José Chacayá	5	Chacayá	9	Septiembre	2023-07-09T00:00:00	2024-11-06T12:00:00	7	Dirección del viento	2.41
117983	7	Sololá	702	San José Chacayá	5	Chacayá	9	Septiembre	2023-07-09T00:00:00	2024-11-06T12:00:00	1	Precipitación	0
117984	7	Sololá	702	San José Chacayá	5	Chacayá	9	Septiembre	2023-07-09T00:00:00	2024-11-06T12:00:00	8	Radiación solar	908
117985	7	Sololá	702	San José Chacayá	5	Chacayá	9	Septiembre	2023-07-09T00:00:00	2024-11-06T13:00:00	2	Temperatura media	25.1
117986	7	Sololá	702	San José Chacayá	5	Chacayá	9	Septiembre	2023-07-09T00:00:00	2024-11-06T13:00:00	4	Temperatura máxima	25.4
117987	7	Sololá	702	San José Chacayá	5	Chacayá	9	Septiembre	2023-07-09T00:00:00	2024-11-06T13:00:00	3	Temperatura mínima	25.1
117988	7	Sololá	702	San José Chacayá	5	Chacayá	9	Septiembre	2023-07-09T00:00:00	2024-11-06T13:00:00	5	Humedad	50
117989	7	Sololá	702	San José Chacayá	5	Chacayá	9	Septiembre	2023-07-09T00:00:00	2024-11-06T13:00:00	6	Velocidad del viento	6.4
117990	7	Sololá	702	San José Chacayá	5	Chacayá	9	Septiembre	2023-07-09T00:00:00	2024-11-06T13:00:00	7	Dirección del viento	3.22
117991	7	Sololá	702	San José Chacayá	5	Chacayá	9	Septiembre	2023-07-09T00:00:00	2024-11-06T13:00:00	1	Precipitación	0
117992	7	Sololá	702	San José Chacayá	5	Chacayá	9	Septiembre	2023-07-09T00:00:00	2024-11-06T13:00:00	8	Radiación solar	899
117993	7	Sololá	702	San José Chacayá	5	Chacayá	9	Septiembre	2023-07-09T00:00:00	2024-11-06T14:00:00	2	Temperatura media	21.8
117994	7	Sololá	702	San José Chacayá	5	Chacayá	9	Septiembre	2023-07-09T00:00:00	2024-11-06T14:00:00	4	Temperatura máxima	24.4
117995	7	Sololá	702	San José Chacayá	5	Chacayá	9	Septiembre	2023-07-09T00:00:00	2024-11-06T14:00:00	3	Temperatura mínima	21.8
117996	7	Sololá	702	San José Chacayá	5	Chacayá	9	Septiembre	2023-07-09T00:00:00	2024-11-06T14:00:00	5	Humedad	76
117997	7	Sololá	702	San José Chacayá	5	Chacayá	9	Septiembre	2023-07-09T00:00:00	2024-11-06T14:00:00	6	Velocidad del viento	8
117998	7	Sololá	702	San José Chacayá	5	Chacayá	9	Septiembre	2023-07-09T00:00:00	2024-11-06T14:00:00	7	Dirección del viento	4.02
117999	7	Sololá	702	San José Chacayá	5	Chacayá	9	Septiembre	2023-07-09T00:00:00	2024-11-06T14:00:00	1	Precipitación	0
118000	7	Sololá	702	San José Chacayá	5	Chacayá	9	Septiembre	2023-07-09T00:00:00	2024-11-06T14:00:00	8	Radiación solar	912
118001	7	Sololá	702	San José Chacayá	5	Chacayá	9	Septiembre	2023-07-09T00:00:00	2024-11-06T15:00:00	2	Temperatura media	19.9
118002	7	Sololá	702	San José Chacayá	5	Chacayá	9	Septiembre	2023-07-09T00:00:00	2024-11-06T15:00:00	4	Temperatura máxima	20.9
118003	7	Sololá	702	San José Chacayá	5	Chacayá	9	Septiembre	2023-07-09T00:00:00	2024-11-06T15:00:00	3	Temperatura mínima	19.8
118004	7	Sololá	702	San José Chacayá	5	Chacayá	9	Septiembre	2023-07-09T00:00:00	2024-11-06T15:00:00	5	Humedad	79
118005	7	Sololá	702	San José Chacayá	5	Chacayá	9	Septiembre	2023-07-09T00:00:00	2024-11-06T15:00:00	6	Velocidad del viento	6.4
118006	7	Sololá	702	San José Chacayá	5	Chacayá	9	Septiembre	2023-07-09T00:00:00	2024-11-06T15:00:00	7	Dirección del viento	3.22
118007	7	Sololá	702	San José Chacayá	5	Chacayá	9	Septiembre	2023-07-09T00:00:00	2024-11-06T15:00:00	1	Precipitación	0
118008	7	Sololá	702	San José Chacayá	5	Chacayá	9	Septiembre	2023-07-09T00:00:00	2024-11-06T15:00:00	8	Radiación solar	352
118009	7	Sololá	702	San José Chacayá	5	Chacayá	9	Septiembre	2023-07-09T00:00:00	2024-11-06T16:00:00	2	Temperatura media	19.8
118010	7	Sololá	702	San José Chacayá	5	Chacayá	9	Septiembre	2023-07-09T00:00:00	2024-11-06T16:00:00	4	Temperatura máxima	19.8
118011	7	Sololá	702	San José Chacayá	5	Chacayá	9	Septiembre	2023-07-09T00:00:00	2024-11-06T16:00:00	3	Temperatura mínima	19.4
118012	7	Sololá	702	San José Chacayá	5	Chacayá	9	Septiembre	2023-07-09T00:00:00	2024-11-06T16:00:00	5	Humedad	79
118013	7	Sololá	702	San José Chacayá	5	Chacayá	9	Septiembre	2023-07-09T00:00:00	2024-11-06T16:00:00	6	Velocidad del viento	3.2
118014	7	Sololá	702	San José Chacayá	5	Chacayá	9	Septiembre	2023-07-09T00:00:00	2024-11-06T16:00:00	7	Dirección del viento	1.61
118015	7	Sololá	702	San José Chacayá	5	Chacayá	9	Septiembre	2023-07-09T00:00:00	2024-11-06T16:00:00	1	Precipitación	0
118016	7	Sololá	702	San José Chacayá	5	Chacayá	9	Septiembre	2023-07-09T00:00:00	2024-11-06T16:00:00	8	Radiación solar	257
118017	7	Sololá	702	San José Chacayá	5	Chacayá	9	Septiembre	2023-07-09T00:00:00	2024-11-06T17:00:00	2	Temperatura media	18.2
118018	7	Sololá	702	San José Chacayá	5	Chacayá	9	Septiembre	2023-07-09T00:00:00	2024-11-06T17:00:00	4	Temperatura máxima	18.6
118019	7	Sololá	702	San José Chacayá	5	Chacayá	9	Septiembre	2023-07-09T00:00:00	2024-11-06T17:00:00	3	Temperatura mínima	18.2
118020	7	Sololá	702	San José Chacayá	5	Chacayá	9	Septiembre	2023-07-09T00:00:00	2024-11-06T17:00:00	5	Humedad	80
118021	7	Sololá	702	San José Chacayá	5	Chacayá	9	Septiembre	2023-07-09T00:00:00	2024-11-06T17:00:00	6	Velocidad del viento	3.2
118022	7	Sololá	702	San José Chacayá	5	Chacayá	9	Septiembre	2023-07-09T00:00:00	2024-11-06T17:00:00	7	Dirección del viento	1.61
118023	7	Sololá	702	San José Chacayá	5	Chacayá	9	Septiembre	2023-07-09T00:00:00	2024-11-06T17:00:00	1	Precipitación	0
118024	7	Sololá	702	San José Chacayá	5	Chacayá	9	Septiembre	2023-07-09T00:00:00	2024-11-06T17:00:00	8	Radiación solar	101
118025	7	Sololá	702	San José Chacayá	5	Chacayá	9	Septiembre	2023-07-09T00:00:00	2024-11-06T18:00:00	2	Temperatura media	16.8
118026	7	Sololá	702	San José Chacayá	5	Chacayá	9	Septiembre	2023-07-09T00:00:00	2024-11-06T18:00:00	4	Temperatura máxima	17.8
118027	7	Sololá	702	San José Chacayá	5	Chacayá	9	Septiembre	2023-07-09T00:00:00	2024-11-06T18:00:00	3	Temperatura mínima	16.8
118028	7	Sololá	702	San José Chacayá	5	Chacayá	9	Septiembre	2023-07-09T00:00:00	2024-11-06T18:00:00	5	Humedad	79
118029	7	Sololá	702	San José Chacayá	5	Chacayá	9	Septiembre	2023-07-09T00:00:00	2024-11-06T18:00:00	6	Velocidad del viento	1.6
118030	7	Sololá	702	San José Chacayá	5	Chacayá	9	Septiembre	2023-07-09T00:00:00	2024-11-06T18:00:00	7	Dirección del viento	0.8
118031	7	Sololá	702	San José Chacayá	5	Chacayá	9	Septiembre	2023-07-09T00:00:00	2024-11-06T18:00:00	1	Precipitación	0
118032	7	Sololá	702	San José Chacayá	5	Chacayá	9	Septiembre	2023-07-09T00:00:00	2024-11-06T18:00:00	8	Radiación solar	4
118033	7	Sololá	702	San José Chacayá	5	Chacayá	9	Septiembre	2023-07-09T00:00:00	2024-11-06T19:00:00	2	Temperatura media	15.4
118034	7	Sololá	702	San José Chacayá	5	Chacayá	9	Septiembre	2023-07-09T00:00:00	2024-11-06T19:00:00	4	Temperatura máxima	15.8
118035	7	Sololá	702	San José Chacayá	5	Chacayá	9	Septiembre	2023-07-09T00:00:00	2024-11-06T19:00:00	3	Temperatura mínima	15.3
118036	7	Sololá	702	San José Chacayá	5	Chacayá	9	Septiembre	2023-07-09T00:00:00	2024-11-06T19:00:00	5	Humedad	78
118037	7	Sololá	702	San José Chacayá	5	Chacayá	9	Septiembre	2023-07-09T00:00:00	2024-11-06T19:00:00	6	Velocidad del viento	0
118038	7	Sololá	702	San José Chacayá	5	Chacayá	9	Septiembre	2023-07-09T00:00:00	2024-11-06T19:00:00	7	Dirección del viento	0
118039	7	Sololá	702	San José Chacayá	5	Chacayá	9	Septiembre	2023-07-09T00:00:00	2024-11-06T19:00:00	1	Precipitación	0
118040	7	Sololá	702	San José Chacayá	5	Chacayá	9	Septiembre	2023-07-09T00:00:00	2024-11-06T19:00:00	8	Radiación solar	0
118041	7	Sololá	702	San José Chacayá	5	Chacayá	9	Septiembre	2023-07-09T00:00:00	2024-11-06T20:00:00	2	Temperatura media	15.6
118042	7	Sololá	702	San José Chacayá	5	Chacayá	9	Septiembre	2023-07-09T00:00:00	2024-11-06T20:00:00	4	Temperatura máxima	15.7
118043	7	Sololá	702	San José Chacayá	5	Chacayá	9	Septiembre	2023-07-09T00:00:00	2024-11-06T20:00:00	3	Temperatura mínima	15.6
118044	7	Sololá	702	San José Chacayá	5	Chacayá	9	Septiembre	2023-07-09T00:00:00	2024-11-06T20:00:00	5	Humedad	81
118045	7	Sololá	702	San José Chacayá	5	Chacayá	9	Septiembre	2023-07-09T00:00:00	2024-11-06T20:00:00	6	Velocidad del viento	3.2
118046	7	Sololá	702	San José Chacayá	5	Chacayá	9	Septiembre	2023-07-09T00:00:00	2024-11-06T20:00:00	7	Dirección del viento	1.61
118047	7	Sololá	702	San José Chacayá	5	Chacayá	9	Septiembre	2023-07-09T00:00:00	2024-11-06T20:00:00	1	Precipitación	0
118048	7	Sololá	702	San José Chacayá	5	Chacayá	9	Septiembre	2023-07-09T00:00:00	2024-11-06T20:00:00	8	Radiación solar	0
118049	7	Sololá	702	San José Chacayá	5	Chacayá	9	Septiembre	2023-07-09T00:00:00	2024-11-06T21:00:00	2	Temperatura media	15.9
118050	7	Sololá	702	San José Chacayá	5	Chacayá	9	Septiembre	2023-07-09T00:00:00	2024-11-06T21:00:00	4	Temperatura máxima	15.9
118051	7	Sololá	702	San José Chacayá	5	Chacayá	9	Septiembre	2023-07-09T00:00:00	2024-11-06T21:00:00	3	Temperatura mínima	15.6
118052	7	Sololá	702	San José Chacayá	5	Chacayá	9	Septiembre	2023-07-09T00:00:00	2024-11-06T21:00:00	5	Humedad	81
118053	7	Sololá	702	San José Chacayá	5	Chacayá	9	Septiembre	2023-07-09T00:00:00	2024-11-06T21:00:00	6	Velocidad del viento	3.2
118054	7	Sololá	702	San José Chacayá	5	Chacayá	9	Septiembre	2023-07-09T00:00:00	2024-11-06T21:00:00	7	Dirección del viento	1.61
118055	7	Sololá	702	San José Chacayá	5	Chacayá	9	Septiembre	2023-07-09T00:00:00	2024-11-06T21:00:00	1	Precipitación	0
118056	7	Sololá	702	San José Chacayá	5	Chacayá	9	Septiembre	2023-07-09T00:00:00	2024-11-06T21:00:00	8	Radiación solar	0
118057	7	Sololá	702	San José Chacayá	5	Chacayá	9	Septiembre	2023-07-09T00:00:00	2024-11-06T22:00:00	2	Temperatura media	15.2
118058	7	Sololá	702	San José Chacayá	5	Chacayá	9	Septiembre	2023-07-09T00:00:00	2024-11-06T22:00:00	4	Temperatura máxima	15.8
118059	7	Sololá	702	San José Chacayá	5	Chacayá	9	Septiembre	2023-07-09T00:00:00	2024-11-06T22:00:00	3	Temperatura mínima	15.2
118060	7	Sololá	702	San José Chacayá	5	Chacayá	9	Septiembre	2023-07-09T00:00:00	2024-11-06T22:00:00	5	Humedad	81
118061	7	Sololá	702	San José Chacayá	5	Chacayá	9	Septiembre	2023-07-09T00:00:00	2024-11-06T22:00:00	6	Velocidad del viento	1.6
118062	7	Sololá	702	San José Chacayá	5	Chacayá	9	Septiembre	2023-07-09T00:00:00	2024-11-06T22:00:00	7	Dirección del viento	0.8
118063	7	Sololá	702	San José Chacayá	5	Chacayá	9	Septiembre	2023-07-09T00:00:00	2024-11-06T22:00:00	1	Precipitación	0
118064	7	Sololá	702	San José Chacayá	5	Chacayá	9	Septiembre	2023-07-09T00:00:00	2024-11-06T22:00:00	8	Radiación solar	0
118065	7	Sololá	702	San José Chacayá	5	Chacayá	9	Septiembre	2023-07-09T00:00:00	2024-11-06T23:00:00	2	Temperatura media	14.2
118066	7	Sololá	702	San José Chacayá	5	Chacayá	9	Septiembre	2023-07-09T00:00:00	2024-11-06T23:00:00	4	Temperatura máxima	14.3
118067	7	Sololá	702	San José Chacayá	5	Chacayá	9	Septiembre	2023-07-09T00:00:00	2024-11-06T23:00:00	3	Temperatura mínima	14
118068	7	Sololá	702	San José Chacayá	5	Chacayá	9	Septiembre	2023-07-09T00:00:00	2024-11-06T23:00:00	5	Humedad	81
118069	7	Sololá	702	San José Chacayá	5	Chacayá	9	Septiembre	2023-07-09T00:00:00	2024-11-06T23:00:00	6	Velocidad del viento	0
118070	7	Sololá	702	San José Chacayá	5	Chacayá	9	Septiembre	2023-07-09T00:00:00	2024-11-06T23:00:00	7	Dirección del viento	0
118071	7	Sololá	702	San José Chacayá	5	Chacayá	9	Septiembre	2023-07-09T00:00:00	2024-11-06T23:00:00	1	Precipitación	0
118072	7	Sololá	702	San José Chacayá	5	Chacayá	9	Septiembre	2023-07-09T00:00:00	2024-11-06T23:00:00	8	Radiación solar	0
118073	7	Sololá	702	San José Chacayá	5	Chacayá	9	Septiembre	2023-08-09T00:00:00	2024-11-06T00:00:00	2	Temperatura media	12.8
118074	7	Sololá	702	San José Chacayá	5	Chacayá	9	Septiembre	2023-08-09T00:00:00	2024-11-06T00:00:00	4	Temperatura máxima	13.5
118075	7	Sololá	702	San José Chacayá	5	Chacayá	9	Septiembre	2023-08-09T00:00:00	2024-11-06T00:00:00	3	Temperatura mínima	12.8
118076	7	Sololá	702	San José Chacayá	5	Chacayá	9	Septiembre	2023-08-09T00:00:00	2024-11-06T00:00:00	5	Humedad	78
118077	7	Sololá	702	San José Chacayá	5	Chacayá	9	Septiembre	2023-08-09T00:00:00	2024-11-06T00:00:00	6	Velocidad del viento	0
118078	7	Sololá	702	San José Chacayá	5	Chacayá	9	Septiembre	2023-08-09T00:00:00	2024-11-06T00:00:00	7	Dirección del viento	0
118079	7	Sololá	702	San José Chacayá	5	Chacayá	9	Septiembre	2023-08-09T00:00:00	2024-11-06T00:00:00	1	Precipitación	0
118080	7	Sololá	702	San José Chacayá	5	Chacayá	9	Septiembre	2023-08-09T00:00:00	2024-11-06T00:00:00	8	Radiación solar	0
118081	7	Sololá	702	San José Chacayá	5	Chacayá	9	Septiembre	2023-08-09T00:00:00	2024-11-06T01:00:00	2	Temperatura media	11.8
118082	7	Sololá	702	San José Chacayá	5	Chacayá	9	Septiembre	2023-08-09T00:00:00	2024-11-06T01:00:00	4	Temperatura máxima	12.2
118083	7	Sololá	702	San José Chacayá	5	Chacayá	9	Septiembre	2023-08-09T00:00:00	2024-11-06T01:00:00	3	Temperatura mínima	11.8
118084	7	Sololá	702	San José Chacayá	5	Chacayá	9	Septiembre	2023-08-09T00:00:00	2024-11-06T01:00:00	5	Humedad	76
118085	7	Sololá	702	San José Chacayá	5	Chacayá	9	Septiembre	2023-08-09T00:00:00	2024-11-06T01:00:00	6	Velocidad del viento	0
118086	7	Sololá	702	San José Chacayá	5	Chacayá	9	Septiembre	2023-08-09T00:00:00	2024-11-06T01:00:00	7	Dirección del viento	0
118087	7	Sololá	702	San José Chacayá	5	Chacayá	9	Septiembre	2023-08-09T00:00:00	2024-11-06T01:00:00	1	Precipitación	0
118088	7	Sololá	702	San José Chacayá	5	Chacayá	9	Septiembre	2023-08-09T00:00:00	2024-11-06T01:00:00	8	Radiación solar	0
118089	7	Sololá	702	San José Chacayá	5	Chacayá	9	Septiembre	2023-08-09T00:00:00	2024-11-06T02:00:00	2	Temperatura media	11.8
118090	7	Sololá	702	San José Chacayá	5	Chacayá	9	Septiembre	2023-08-09T00:00:00	2024-11-06T02:00:00	4	Temperatura máxima	11.8
118091	7	Sololá	702	San José Chacayá	5	Chacayá	9	Septiembre	2023-08-09T00:00:00	2024-11-06T02:00:00	3	Temperatura mínima	11.6
118092	7	Sololá	702	San José Chacayá	5	Chacayá	9	Septiembre	2023-08-09T00:00:00	2024-11-06T02:00:00	5	Humedad	81
118093	7	Sololá	702	San José Chacayá	5	Chacayá	9	Septiembre	2023-08-09T00:00:00	2024-11-06T02:00:00	6	Velocidad del viento	4.8
118094	7	Sololá	702	San José Chacayá	5	Chacayá	9	Septiembre	2023-08-09T00:00:00	2024-11-06T02:00:00	7	Dirección del viento	2.41
118095	7	Sololá	702	San José Chacayá	5	Chacayá	9	Septiembre	2023-08-09T00:00:00	2024-11-06T02:00:00	1	Precipitación	0
118096	7	Sololá	702	San José Chacayá	5	Chacayá	9	Septiembre	2023-08-09T00:00:00	2024-11-06T02:00:00	8	Radiación solar	0
118097	7	Sololá	702	San José Chacayá	5	Chacayá	9	Septiembre	2023-08-09T00:00:00	2024-11-06T03:00:00	2	Temperatura media	11
118098	7	Sololá	702	San José Chacayá	5	Chacayá	9	Septiembre	2023-08-09T00:00:00	2024-11-06T03:00:00	4	Temperatura máxima	11.3
118099	7	Sololá	702	San José Chacayá	5	Chacayá	9	Septiembre	2023-08-09T00:00:00	2024-11-06T03:00:00	3	Temperatura mínima	11
118100	7	Sololá	702	San José Chacayá	5	Chacayá	9	Septiembre	2023-08-09T00:00:00	2024-11-06T03:00:00	5	Humedad	78
118101	7	Sololá	702	San José Chacayá	5	Chacayá	9	Septiembre	2023-08-09T00:00:00	2024-11-06T03:00:00	6	Velocidad del viento	1.6
118102	7	Sololá	702	San José Chacayá	5	Chacayá	9	Septiembre	2023-08-09T00:00:00	2024-11-06T03:00:00	7	Dirección del viento	0.8
118103	7	Sololá	702	San José Chacayá	5	Chacayá	9	Septiembre	2023-08-09T00:00:00	2024-11-06T03:00:00	1	Precipitación	0
118104	7	Sololá	702	San José Chacayá	5	Chacayá	9	Septiembre	2023-08-09T00:00:00	2024-11-06T03:00:00	8	Radiación solar	0
118105	7	Sololá	702	San José Chacayá	5	Chacayá	9	Septiembre	2023-08-09T00:00:00	2024-11-06T04:00:00	2	Temperatura media	11
118106	7	Sololá	702	San José Chacayá	5	Chacayá	9	Septiembre	2023-08-09T00:00:00	2024-11-06T04:00:00	4	Temperatura máxima	11.1
118107	7	Sololá	702	San José Chacayá	5	Chacayá	9	Septiembre	2023-08-09T00:00:00	2024-11-06T04:00:00	3	Temperatura mínima	11
118108	7	Sololá	702	San José Chacayá	5	Chacayá	9	Septiembre	2023-08-09T00:00:00	2024-11-06T04:00:00	5	Humedad	76
118109	7	Sololá	702	San José Chacayá	5	Chacayá	9	Septiembre	2023-08-09T00:00:00	2024-11-06T04:00:00	6	Velocidad del viento	3.2
118110	7	Sololá	702	San José Chacayá	5	Chacayá	9	Septiembre	2023-08-09T00:00:00	2024-11-06T04:00:00	7	Dirección del viento	1.61
118111	7	Sololá	702	San José Chacayá	5	Chacayá	9	Septiembre	2023-08-09T00:00:00	2024-11-06T04:00:00	1	Precipitación	0
118112	7	Sololá	702	San José Chacayá	5	Chacayá	9	Septiembre	2023-08-09T00:00:00	2024-11-06T04:00:00	8	Radiación solar	0
118113	7	Sololá	702	San José Chacayá	5	Chacayá	9	Septiembre	2023-08-09T00:00:00	2024-11-06T05:00:00	2	Temperatura media	11
118114	7	Sololá	702	San José Chacayá	5	Chacayá	9	Septiembre	2023-08-09T00:00:00	2024-11-06T05:00:00	4	Temperatura máxima	11.1
118115	7	Sololá	702	San José Chacayá	5	Chacayá	9	Septiembre	2023-08-09T00:00:00	2024-11-06T05:00:00	3	Temperatura mínima	10.8
118116	7	Sololá	702	San José Chacayá	5	Chacayá	9	Septiembre	2023-08-09T00:00:00	2024-11-06T05:00:00	5	Humedad	81
118117	7	Sololá	702	San José Chacayá	5	Chacayá	9	Septiembre	2023-08-09T00:00:00	2024-11-06T05:00:00	6	Velocidad del viento	4.8
118118	7	Sololá	702	San José Chacayá	5	Chacayá	9	Septiembre	2023-08-09T00:00:00	2024-11-06T05:00:00	7	Dirección del viento	2.41
118119	7	Sololá	702	San José Chacayá	5	Chacayá	9	Septiembre	2023-08-09T00:00:00	2024-11-06T05:00:00	1	Precipitación	0
118120	7	Sololá	702	San José Chacayá	5	Chacayá	9	Septiembre	2023-08-09T00:00:00	2024-11-06T05:00:00	8	Radiación solar	0
118121	7	Sololá	702	San José Chacayá	5	Chacayá	9	Septiembre	2023-08-09T00:00:00	2024-11-06T06:00:00	2	Temperatura media	10.6
118122	7	Sololá	702	San José Chacayá	5	Chacayá	9	Septiembre	2023-08-09T00:00:00	2024-11-06T06:00:00	4	Temperatura máxima	10.7
118123	7	Sololá	702	San José Chacayá	5	Chacayá	9	Septiembre	2023-08-09T00:00:00	2024-11-06T06:00:00	3	Temperatura mínima	10.6
118124	7	Sololá	702	San José Chacayá	5	Chacayá	9	Septiembre	2023-08-09T00:00:00	2024-11-06T06:00:00	5	Humedad	82
118125	7	Sololá	702	San José Chacayá	5	Chacayá	9	Septiembre	2023-08-09T00:00:00	2024-11-06T06:00:00	6	Velocidad del viento	4.8
118126	7	Sololá	702	San José Chacayá	5	Chacayá	9	Septiembre	2023-08-09T00:00:00	2024-11-06T06:00:00	7	Dirección del viento	2.41
118127	7	Sololá	702	San José Chacayá	5	Chacayá	9	Septiembre	2023-08-09T00:00:00	2024-11-06T06:00:00	1	Precipitación	0
118128	7	Sololá	702	San José Chacayá	5	Chacayá	9	Septiembre	2023-08-09T00:00:00	2024-11-06T06:00:00	8	Radiación solar	1
118129	7	Sololá	702	San José Chacayá	5	Chacayá	9	Septiembre	2023-08-09T00:00:00	2024-11-06T07:00:00	2	Temperatura media	12.8
118130	7	Sololá	702	San José Chacayá	5	Chacayá	9	Septiembre	2023-08-09T00:00:00	2024-11-06T07:00:00	4	Temperatura máxima	12.8
118131	7	Sololá	702	San José Chacayá	5	Chacayá	9	Septiembre	2023-08-09T00:00:00	2024-11-06T07:00:00	3	Temperatura mínima	11.2
118132	7	Sololá	702	San José Chacayá	5	Chacayá	9	Septiembre	2023-08-09T00:00:00	2024-11-06T07:00:00	5	Humedad	82
118133	7	Sololá	702	San José Chacayá	5	Chacayá	9	Septiembre	2023-08-09T00:00:00	2024-11-06T07:00:00	6	Velocidad del viento	3.2
118134	7	Sololá	702	San José Chacayá	5	Chacayá	9	Septiembre	2023-08-09T00:00:00	2024-11-06T07:00:00	7	Dirección del viento	1.61
118135	7	Sololá	702	San José Chacayá	5	Chacayá	9	Septiembre	2023-08-09T00:00:00	2024-11-06T07:00:00	1	Precipitación	0
118136	7	Sololá	702	San José Chacayá	5	Chacayá	9	Septiembre	2023-08-09T00:00:00	2024-11-06T07:00:00	8	Radiación solar	46
118137	7	Sololá	702	San José Chacayá	5	Chacayá	9	Septiembre	2023-08-09T00:00:00	2024-11-06T08:00:00	2	Temperatura media	18.6
118138	7	Sololá	702	San José Chacayá	5	Chacayá	9	Septiembre	2023-08-09T00:00:00	2024-11-06T08:00:00	4	Temperatura máxima	18.6
118139	7	Sololá	702	San José Chacayá	5	Chacayá	9	Septiembre	2023-08-09T00:00:00	2024-11-06T08:00:00	3	Temperatura mínima	15.1
118140	7	Sololá	702	San José Chacayá	5	Chacayá	9	Septiembre	2023-08-09T00:00:00	2024-11-06T08:00:00	5	Humedad	64
118141	7	Sololá	702	San José Chacayá	5	Chacayá	9	Septiembre	2023-08-09T00:00:00	2024-11-06T08:00:00	6	Velocidad del viento	1.6
118142	7	Sololá	702	San José Chacayá	5	Chacayá	9	Septiembre	2023-08-09T00:00:00	2024-11-06T08:00:00	7	Dirección del viento	0.8
118143	7	Sololá	702	San José Chacayá	5	Chacayá	9	Septiembre	2023-08-09T00:00:00	2024-11-06T08:00:00	1	Precipitación	0
118144	7	Sololá	702	San José Chacayá	5	Chacayá	9	Septiembre	2023-08-09T00:00:00	2024-11-06T08:00:00	8	Radiación solar	118
118145	7	Sololá	702	San José Chacayá	5	Chacayá	9	Septiembre	2023-08-09T00:00:00	2024-11-06T09:00:00	2	Temperatura media	21.8
118146	7	Sololá	702	San José Chacayá	5	Chacayá	9	Septiembre	2023-08-09T00:00:00	2024-11-06T09:00:00	4	Temperatura máxima	21.8
118147	7	Sololá	702	San José Chacayá	5	Chacayá	9	Septiembre	2023-08-09T00:00:00	2024-11-06T09:00:00	3	Temperatura mínima	20.6
118148	7	Sololá	702	San José Chacayá	5	Chacayá	9	Septiembre	2023-08-09T00:00:00	2024-11-06T09:00:00	5	Humedad	53
118149	7	Sololá	702	San José Chacayá	5	Chacayá	9	Septiembre	2023-08-09T00:00:00	2024-11-06T09:00:00	6	Velocidad del viento	4.8
118150	7	Sololá	702	San José Chacayá	5	Chacayá	9	Septiembre	2023-08-09T00:00:00	2024-11-06T09:00:00	7	Dirección del viento	2.41
118151	7	Sololá	702	San José Chacayá	5	Chacayá	9	Septiembre	2023-08-09T00:00:00	2024-11-06T09:00:00	1	Precipitación	0
118152	7	Sololá	702	San José Chacayá	5	Chacayá	9	Septiembre	2023-08-09T00:00:00	2024-11-06T09:00:00	8	Radiación solar	590
118153	7	Sololá	702	San José Chacayá	5	Chacayá	9	Septiembre	2023-08-09T00:00:00	2024-11-06T10:00:00	2	Temperatura media	22.9
118154	7	Sololá	702	San José Chacayá	5	Chacayá	9	Septiembre	2023-08-09T00:00:00	2024-11-06T10:00:00	4	Temperatura máxima	23.1
118155	7	Sololá	702	San José Chacayá	5	Chacayá	9	Septiembre	2023-08-09T00:00:00	2024-11-06T10:00:00	3	Temperatura mínima	22.4
118156	7	Sololá	702	San José Chacayá	5	Chacayá	9	Septiembre	2023-08-09T00:00:00	2024-11-06T10:00:00	5	Humedad	58
118157	7	Sololá	702	San José Chacayá	5	Chacayá	9	Septiembre	2023-08-09T00:00:00	2024-11-06T10:00:00	6	Velocidad del viento	4.8
118158	7	Sololá	702	San José Chacayá	5	Chacayá	9	Septiembre	2023-08-09T00:00:00	2024-11-06T10:00:00	7	Dirección del viento	2.41
118159	7	Sololá	702	San José Chacayá	5	Chacayá	9	Septiembre	2023-08-09T00:00:00	2024-11-06T10:00:00	1	Precipitación	0
118160	7	Sololá	702	San José Chacayá	5	Chacayá	9	Septiembre	2023-08-09T00:00:00	2024-11-06T10:00:00	8	Radiación solar	655
118161	7	Sololá	702	San José Chacayá	5	Chacayá	9	Septiembre	2023-08-09T00:00:00	2024-11-06T11:00:00	2	Temperatura media	22.8
118162	7	Sololá	702	San José Chacayá	5	Chacayá	9	Septiembre	2023-08-09T00:00:00	2024-11-06T11:00:00	4	Temperatura máxima	23.4
118163	7	Sololá	702	San José Chacayá	5	Chacayá	9	Septiembre	2023-08-09T00:00:00	2024-11-06T11:00:00	3	Temperatura mínima	22.7
118164	7	Sololá	702	San José Chacayá	5	Chacayá	9	Septiembre	2023-08-09T00:00:00	2024-11-06T11:00:00	5	Humedad	59
118165	7	Sololá	702	San José Chacayá	5	Chacayá	9	Septiembre	2023-08-09T00:00:00	2024-11-06T11:00:00	6	Velocidad del viento	8
118166	7	Sololá	702	San José Chacayá	5	Chacayá	9	Septiembre	2023-08-09T00:00:00	2024-11-06T11:00:00	7	Dirección del viento	4.02
118167	7	Sololá	702	San José Chacayá	5	Chacayá	9	Septiembre	2023-08-09T00:00:00	2024-11-06T11:00:00	1	Precipitación	0
118168	7	Sololá	702	San José Chacayá	5	Chacayá	9	Septiembre	2023-08-09T00:00:00	2024-11-06T11:00:00	8	Radiación solar	920
118169	7	Sololá	702	San José Chacayá	5	Chacayá	9	Septiembre	2023-08-09T00:00:00	2024-11-06T12:00:00	2	Temperatura media	22.7
118170	7	Sololá	702	San José Chacayá	5	Chacayá	9	Septiembre	2023-08-09T00:00:00	2024-11-06T12:00:00	4	Temperatura máxima	23.6
118171	7	Sololá	702	San José Chacayá	5	Chacayá	9	Septiembre	2023-08-09T00:00:00	2024-11-06T12:00:00	3	Temperatura mínima	22.4
118172	7	Sololá	702	San José Chacayá	5	Chacayá	9	Septiembre	2023-08-09T00:00:00	2024-11-06T12:00:00	5	Humedad	62
118173	7	Sololá	702	San José Chacayá	5	Chacayá	9	Septiembre	2023-08-09T00:00:00	2024-11-06T12:00:00	6	Velocidad del viento	8
118174	7	Sololá	702	San José Chacayá	5	Chacayá	9	Septiembre	2023-08-09T00:00:00	2024-11-06T12:00:00	7	Dirección del viento	4.02
118175	7	Sololá	702	San José Chacayá	5	Chacayá	9	Septiembre	2023-08-09T00:00:00	2024-11-06T12:00:00	1	Precipitación	0
118176	7	Sololá	702	San José Chacayá	5	Chacayá	9	Septiembre	2023-08-09T00:00:00	2024-11-06T12:00:00	8	Radiación solar	1013
118177	7	Sololá	702	San José Chacayá	5	Chacayá	9	Septiembre	2023-08-09T00:00:00	2024-11-06T13:00:00	2	Temperatura media	22
118178	7	Sololá	702	San José Chacayá	5	Chacayá	9	Septiembre	2023-08-09T00:00:00	2024-11-06T13:00:00	4	Temperatura máxima	22.7
118179	7	Sololá	702	San José Chacayá	5	Chacayá	9	Septiembre	2023-08-09T00:00:00	2024-11-06T13:00:00	3	Temperatura mínima	21.3
118180	7	Sololá	702	San José Chacayá	5	Chacayá	9	Septiembre	2023-08-09T00:00:00	2024-11-06T13:00:00	5	Humedad	70
118181	7	Sololá	702	San José Chacayá	5	Chacayá	9	Septiembre	2023-08-09T00:00:00	2024-11-06T13:00:00	6	Velocidad del viento	8
118182	7	Sololá	702	San José Chacayá	5	Chacayá	9	Septiembre	2023-08-09T00:00:00	2024-11-06T13:00:00	7	Dirección del viento	4.02
118183	7	Sololá	702	San José Chacayá	5	Chacayá	9	Septiembre	2023-08-09T00:00:00	2024-11-06T13:00:00	1	Precipitación	0
118184	7	Sololá	702	San José Chacayá	5	Chacayá	9	Septiembre	2023-08-09T00:00:00	2024-11-06T13:00:00	8	Radiación solar	875
118185	7	Sololá	702	San José Chacayá	5	Chacayá	9	Septiembre	2023-08-09T00:00:00	2024-11-06T14:00:00	2	Temperatura media	21.3
118186	7	Sololá	702	San José Chacayá	5	Chacayá	9	Septiembre	2023-08-09T00:00:00	2024-11-06T14:00:00	4	Temperatura máxima	22.3
118187	7	Sololá	702	San José Chacayá	5	Chacayá	9	Septiembre	2023-08-09T00:00:00	2024-11-06T14:00:00	3	Temperatura mínima	21.3
118188	7	Sololá	702	San José Chacayá	5	Chacayá	9	Septiembre	2023-08-09T00:00:00	2024-11-06T14:00:00	5	Humedad	70
118189	7	Sololá	702	San José Chacayá	5	Chacayá	9	Septiembre	2023-08-09T00:00:00	2024-11-06T14:00:00	6	Velocidad del viento	6.4
118190	7	Sololá	702	San José Chacayá	5	Chacayá	9	Septiembre	2023-08-09T00:00:00	2024-11-06T14:00:00	7	Dirección del viento	3.22
118191	7	Sololá	702	San José Chacayá	5	Chacayá	9	Septiembre	2023-08-09T00:00:00	2024-11-06T14:00:00	1	Precipitación	0
118192	7	Sololá	702	San José Chacayá	5	Chacayá	9	Septiembre	2023-08-09T00:00:00	2024-11-06T14:00:00	8	Radiación solar	650
118193	7	Sololá	702	San José Chacayá	5	Chacayá	9	Septiembre	2023-08-09T00:00:00	2024-11-06T15:00:00	2	Temperatura media	21.1
118194	7	Sololá	702	San José Chacayá	5	Chacayá	9	Septiembre	2023-08-09T00:00:00	2024-11-06T15:00:00	4	Temperatura máxima	21.9
118195	7	Sololá	702	San José Chacayá	5	Chacayá	9	Septiembre	2023-08-09T00:00:00	2024-11-06T15:00:00	3	Temperatura mínima	21.1
118196	7	Sololá	702	San José Chacayá	5	Chacayá	9	Septiembre	2023-08-09T00:00:00	2024-11-06T15:00:00	5	Humedad	74
118197	7	Sololá	702	San José Chacayá	5	Chacayá	9	Septiembre	2023-08-09T00:00:00	2024-11-06T15:00:00	6	Velocidad del viento	4.8
118198	7	Sololá	702	San José Chacayá	5	Chacayá	9	Septiembre	2023-08-09T00:00:00	2024-11-06T15:00:00	7	Dirección del viento	2.41
118199	7	Sololá	702	San José Chacayá	5	Chacayá	9	Septiembre	2023-08-09T00:00:00	2024-11-06T15:00:00	1	Precipitación	0
118200	7	Sololá	702	San José Chacayá	5	Chacayá	9	Septiembre	2023-08-09T00:00:00	2024-11-06T15:00:00	8	Radiación solar	482
118201	7	Sololá	702	San José Chacayá	5	Chacayá	9	Septiembre	2023-08-09T00:00:00	2024-11-06T16:00:00	2	Temperatura media	19.5
118202	7	Sololá	702	San José Chacayá	5	Chacayá	9	Septiembre	2023-08-09T00:00:00	2024-11-06T16:00:00	4	Temperatura máxima	20.1
118203	7	Sololá	702	San José Chacayá	5	Chacayá	9	Septiembre	2023-08-09T00:00:00	2024-11-06T16:00:00	3	Temperatura mínima	19.4
118204	7	Sololá	702	San José Chacayá	5	Chacayá	9	Septiembre	2023-08-09T00:00:00	2024-11-06T16:00:00	5	Humedad	79
118205	7	Sololá	702	San José Chacayá	5	Chacayá	9	Septiembre	2023-08-09T00:00:00	2024-11-06T16:00:00	6	Velocidad del viento	4.8
118206	7	Sololá	702	San José Chacayá	5	Chacayá	9	Septiembre	2023-08-09T00:00:00	2024-11-06T16:00:00	7	Dirección del viento	2.41
118207	7	Sololá	702	San José Chacayá	5	Chacayá	9	Septiembre	2023-08-09T00:00:00	2024-11-06T16:00:00	1	Precipitación	0
118208	7	Sololá	702	San José Chacayá	5	Chacayá	9	Septiembre	2023-08-09T00:00:00	2024-11-06T16:00:00	8	Radiación solar	237
118209	7	Sololá	702	San José Chacayá	5	Chacayá	9	Septiembre	2023-08-09T00:00:00	2024-11-06T17:00:00	2	Temperatura media	17.8
118210	7	Sololá	702	San José Chacayá	5	Chacayá	9	Septiembre	2023-08-09T00:00:00	2024-11-06T17:00:00	4	Temperatura máxima	18.6
118211	7	Sololá	702	San José Chacayá	5	Chacayá	9	Septiembre	2023-08-09T00:00:00	2024-11-06T17:00:00	3	Temperatura mínima	17.8
118212	7	Sololá	702	San José Chacayá	5	Chacayá	9	Septiembre	2023-08-09T00:00:00	2024-11-06T17:00:00	5	Humedad	80
118213	7	Sololá	702	San José Chacayá	5	Chacayá	9	Septiembre	2023-08-09T00:00:00	2024-11-06T17:00:00	6	Velocidad del viento	1.6
118214	7	Sololá	702	San José Chacayá	5	Chacayá	9	Septiembre	2023-08-09T00:00:00	2024-11-06T17:00:00	7	Dirección del viento	0.8
118215	7	Sololá	702	San José Chacayá	5	Chacayá	9	Septiembre	2023-08-09T00:00:00	2024-11-06T17:00:00	1	Precipitación	0
118216	7	Sololá	702	San José Chacayá	5	Chacayá	9	Septiembre	2023-08-09T00:00:00	2024-11-06T17:00:00	8	Radiación solar	42
118217	7	Sololá	702	San José Chacayá	5	Chacayá	9	Septiembre	2023-08-09T00:00:00	2024-11-06T18:00:00	2	Temperatura media	16.8
118218	7	Sololá	702	San José Chacayá	5	Chacayá	9	Septiembre	2023-08-09T00:00:00	2024-11-06T18:00:00	4	Temperatura máxima	16.9
118219	7	Sololá	702	San José Chacayá	5	Chacayá	9	Septiembre	2023-08-09T00:00:00	2024-11-06T18:00:00	3	Temperatura mínima	16.7
118220	7	Sololá	702	San José Chacayá	5	Chacayá	9	Septiembre	2023-08-09T00:00:00	2024-11-06T18:00:00	5	Humedad	71
118221	7	Sololá	702	San José Chacayá	5	Chacayá	9	Septiembre	2023-08-09T00:00:00	2024-11-06T18:00:00	6	Velocidad del viento	0
118222	7	Sololá	702	San José Chacayá	5	Chacayá	9	Septiembre	2023-08-09T00:00:00	2024-11-06T18:00:00	7	Dirección del viento	0
118223	7	Sololá	702	San José Chacayá	5	Chacayá	9	Septiembre	2023-08-09T00:00:00	2024-11-06T18:00:00	1	Precipitación	0
118224	7	Sololá	702	San José Chacayá	5	Chacayá	9	Septiembre	2023-08-09T00:00:00	2024-11-06T18:00:00	8	Radiación solar	19
118225	7	Sololá	702	San José Chacayá	5	Chacayá	9	Septiembre	2023-08-09T00:00:00	2024-11-06T19:00:00	2	Temperatura media	16.1
118226	7	Sololá	702	San José Chacayá	5	Chacayá	9	Septiembre	2023-08-09T00:00:00	2024-11-06T19:00:00	4	Temperatura máxima	16.7
118227	7	Sololá	702	San José Chacayá	5	Chacayá	9	Septiembre	2023-08-09T00:00:00	2024-11-06T19:00:00	3	Temperatura mínima	16.1
118228	7	Sololá	702	San José Chacayá	5	Chacayá	9	Septiembre	2023-08-09T00:00:00	2024-11-06T19:00:00	5	Humedad	80
118229	7	Sololá	702	San José Chacayá	5	Chacayá	9	Septiembre	2023-08-09T00:00:00	2024-11-06T19:00:00	6	Velocidad del viento	1.6
118230	7	Sololá	702	San José Chacayá	5	Chacayá	9	Septiembre	2023-08-09T00:00:00	2024-11-06T19:00:00	7	Dirección del viento	0.8
118231	7	Sololá	702	San José Chacayá	5	Chacayá	9	Septiembre	2023-08-09T00:00:00	2024-11-06T19:00:00	1	Precipitación	0
118232	7	Sololá	702	San José Chacayá	5	Chacayá	9	Septiembre	2023-08-09T00:00:00	2024-11-06T19:00:00	8	Radiación solar	0
118233	7	Sololá	702	San José Chacayá	5	Chacayá	9	Septiembre	2023-08-09T00:00:00	2024-11-06T20:00:00	2	Temperatura media	15.1
118234	7	Sololá	702	San José Chacayá	5	Chacayá	9	Septiembre	2023-08-09T00:00:00	2024-11-06T20:00:00	4	Temperatura máxima	15.5
118235	7	Sololá	702	San José Chacayá	5	Chacayá	9	Septiembre	2023-08-09T00:00:00	2024-11-06T20:00:00	3	Temperatura mínima	15
118236	7	Sololá	702	San José Chacayá	5	Chacayá	9	Septiembre	2023-08-09T00:00:00	2024-11-06T20:00:00	5	Humedad	67
118237	7	Sololá	702	San José Chacayá	5	Chacayá	9	Septiembre	2023-08-09T00:00:00	2024-11-06T20:00:00	6	Velocidad del viento	3.2
118238	7	Sololá	702	San José Chacayá	5	Chacayá	9	Septiembre	2023-08-09T00:00:00	2024-11-06T20:00:00	7	Dirección del viento	1.61
118239	7	Sololá	702	San José Chacayá	5	Chacayá	9	Septiembre	2023-08-09T00:00:00	2024-11-06T20:00:00	1	Precipitación	0
118240	7	Sololá	702	San José Chacayá	5	Chacayá	9	Septiembre	2023-08-09T00:00:00	2024-11-06T20:00:00	8	Radiación solar	0
118241	7	Sololá	702	San José Chacayá	5	Chacayá	9	Septiembre	2023-08-09T00:00:00	2024-11-06T21:00:00	2	Temperatura media	14.7
118242	7	Sololá	702	San José Chacayá	5	Chacayá	9	Septiembre	2023-08-09T00:00:00	2024-11-06T21:00:00	4	Temperatura máxima	14.8
118243	7	Sololá	702	San José Chacayá	5	Chacayá	9	Septiembre	2023-08-09T00:00:00	2024-11-06T21:00:00	3	Temperatura mínima	14.7
118244	7	Sololá	702	San José Chacayá	5	Chacayá	9	Septiembre	2023-08-09T00:00:00	2024-11-06T21:00:00	5	Humedad	54
118245	7	Sololá	702	San José Chacayá	5	Chacayá	9	Septiembre	2023-08-09T00:00:00	2024-11-06T21:00:00	6	Velocidad del viento	0
118246	7	Sololá	702	San José Chacayá	5	Chacayá	9	Septiembre	2023-08-09T00:00:00	2024-11-06T21:00:00	7	Dirección del viento	0
118247	7	Sololá	702	San José Chacayá	5	Chacayá	9	Septiembre	2023-08-09T00:00:00	2024-11-06T21:00:00	1	Precipitación	4.82
118248	7	Sololá	702	San José Chacayá	5	Chacayá	9	Septiembre	2023-08-09T00:00:00	2024-11-06T21:00:00	8	Radiación solar	0
118249	7	Sololá	702	San José Chacayá	5	Chacayá	9	Septiembre	2023-08-09T00:00:00	2024-11-06T22:00:00	2	Temperatura media	14.4
118250	7	Sololá	702	San José Chacayá	5	Chacayá	9	Septiembre	2023-08-09T00:00:00	2024-11-06T22:00:00	4	Temperatura máxima	14.5
118251	7	Sololá	702	San José Chacayá	5	Chacayá	9	Septiembre	2023-08-09T00:00:00	2024-11-06T22:00:00	3	Temperatura mínima	14.4
118252	7	Sololá	702	San José Chacayá	5	Chacayá	9	Septiembre	2023-08-09T00:00:00	2024-11-06T22:00:00	5	Humedad	48
118253	7	Sololá	702	San José Chacayá	5	Chacayá	9	Septiembre	2023-08-09T00:00:00	2024-11-06T22:00:00	6	Velocidad del viento	0
118254	7	Sololá	702	San José Chacayá	5	Chacayá	9	Septiembre	2023-08-09T00:00:00	2024-11-06T22:00:00	7	Dirección del viento	0
118255	7	Sololá	702	San José Chacayá	5	Chacayá	9	Septiembre	2023-08-09T00:00:00	2024-11-06T22:00:00	1	Precipitación	0
118256	7	Sololá	702	San José Chacayá	5	Chacayá	9	Septiembre	2023-08-09T00:00:00	2024-11-06T22:00:00	8	Radiación solar	0
118257	7	Sololá	702	San José Chacayá	5	Chacayá	9	Septiembre	2023-08-09T00:00:00	2024-11-06T23:00:00	2	Temperatura media	14.3
118258	7	Sololá	702	San José Chacayá	5	Chacayá	9	Septiembre	2023-08-09T00:00:00	2024-11-06T23:00:00	4	Temperatura máxima	14.3
118259	7	Sololá	702	San José Chacayá	5	Chacayá	9	Septiembre	2023-08-09T00:00:00	2024-11-06T23:00:00	3	Temperatura mínima	14.3
118260	7	Sololá	702	San José Chacayá	5	Chacayá	9	Septiembre	2023-08-09T00:00:00	2024-11-06T23:00:00	5	Humedad	43
118261	7	Sololá	702	San José Chacayá	5	Chacayá	9	Septiembre	2023-08-09T00:00:00	2024-11-06T23:00:00	6	Velocidad del viento	0
118262	7	Sololá	702	San José Chacayá	5	Chacayá	9	Septiembre	2023-08-09T00:00:00	2024-11-06T23:00:00	7	Dirección del viento	0
118263	7	Sololá	702	San José Chacayá	5	Chacayá	9	Septiembre	2023-08-09T00:00:00	2024-11-06T23:00:00	1	Precipitación	0
118264	7	Sololá	702	San José Chacayá	5	Chacayá	9	Septiembre	2023-08-09T00:00:00	2024-11-06T23:00:00	8	Radiación solar	0
118265	7	Sololá	702	San José Chacayá	5	Chacayá	9	Septiembre	2023-09-09T00:00:00	2024-11-06T00:00:00	2	Temperatura media	13.8
118266	7	Sololá	702	San José Chacayá	5	Chacayá	9	Septiembre	2023-09-09T00:00:00	2024-11-06T00:00:00	4	Temperatura máxima	14.1
118267	7	Sololá	702	San José Chacayá	5	Chacayá	9	Septiembre	2023-09-09T00:00:00	2024-11-06T00:00:00	3	Temperatura mínima	13.8
118268	7	Sololá	702	San José Chacayá	5	Chacayá	9	Septiembre	2023-09-09T00:00:00	2024-11-06T00:00:00	5	Humedad	43
118269	7	Sololá	702	San José Chacayá	5	Chacayá	9	Septiembre	2023-09-09T00:00:00	2024-11-06T00:00:00	6	Velocidad del viento	0
118270	7	Sololá	702	San José Chacayá	5	Chacayá	9	Septiembre	2023-09-09T00:00:00	2024-11-06T00:00:00	7	Dirección del viento	0
118271	7	Sololá	702	San José Chacayá	5	Chacayá	9	Septiembre	2023-09-09T00:00:00	2024-11-06T00:00:00	1	Precipitación	0
118272	7	Sololá	702	San José Chacayá	5	Chacayá	9	Septiembre	2023-09-09T00:00:00	2024-11-06T00:00:00	8	Radiación solar	0
118273	7	Sololá	702	San José Chacayá	5	Chacayá	9	Septiembre	2023-09-09T00:00:00	2024-11-06T01:00:00	2	Temperatura media	13.2
118274	7	Sololá	702	San José Chacayá	5	Chacayá	9	Septiembre	2023-09-09T00:00:00	2024-11-06T01:00:00	4	Temperatura máxima	13.6
118275	7	Sololá	702	San José Chacayá	5	Chacayá	9	Septiembre	2023-09-09T00:00:00	2024-11-06T01:00:00	3	Temperatura mínima	13.2
118276	7	Sololá	702	San José Chacayá	5	Chacayá	9	Septiembre	2023-09-09T00:00:00	2024-11-06T01:00:00	5	Humedad	44
118277	7	Sololá	702	San José Chacayá	5	Chacayá	9	Septiembre	2023-09-09T00:00:00	2024-11-06T01:00:00	6	Velocidad del viento	0
118278	7	Sololá	702	San José Chacayá	5	Chacayá	9	Septiembre	2023-09-09T00:00:00	2024-11-06T01:00:00	7	Dirección del viento	0
118279	7	Sololá	702	San José Chacayá	5	Chacayá	9	Septiembre	2023-09-09T00:00:00	2024-11-06T01:00:00	1	Precipitación	0
118280	7	Sololá	702	San José Chacayá	5	Chacayá	9	Septiembre	2023-09-09T00:00:00	2024-11-06T01:00:00	8	Radiación solar	0
118281	7	Sololá	702	San José Chacayá	5	Chacayá	9	Septiembre	2023-09-09T00:00:00	2024-11-06T02:00:00	2	Temperatura media	12.9
118282	7	Sololá	702	San José Chacayá	5	Chacayá	9	Septiembre	2023-09-09T00:00:00	2024-11-06T02:00:00	4	Temperatura máxima	13.1
118283	7	Sololá	702	San José Chacayá	5	Chacayá	9	Septiembre	2023-09-09T00:00:00	2024-11-06T02:00:00	3	Temperatura mínima	12.9
118284	7	Sololá	702	San José Chacayá	5	Chacayá	9	Septiembre	2023-09-09T00:00:00	2024-11-06T02:00:00	5	Humedad	40
118285	7	Sololá	702	San José Chacayá	5	Chacayá	9	Septiembre	2023-09-09T00:00:00	2024-11-06T02:00:00	6	Velocidad del viento	0
118286	7	Sololá	702	San José Chacayá	5	Chacayá	9	Septiembre	2023-09-09T00:00:00	2024-11-06T02:00:00	7	Dirección del viento	0
118287	7	Sololá	702	San José Chacayá	5	Chacayá	9	Septiembre	2023-09-09T00:00:00	2024-11-06T02:00:00	1	Precipitación	0
118288	7	Sololá	702	San José Chacayá	5	Chacayá	9	Septiembre	2023-09-09T00:00:00	2024-11-06T02:00:00	8	Radiación solar	0
118289	7	Sololá	702	San José Chacayá	5	Chacayá	9	Septiembre	2023-09-09T00:00:00	2024-11-06T03:00:00	2	Temperatura media	13.1
118290	7	Sololá	702	San José Chacayá	5	Chacayá	9	Septiembre	2023-09-09T00:00:00	2024-11-06T03:00:00	4	Temperatura máxima	13.1
118291	7	Sololá	702	San José Chacayá	5	Chacayá	9	Septiembre	2023-09-09T00:00:00	2024-11-06T03:00:00	3	Temperatura mínima	12.9
118292	7	Sololá	702	San José Chacayá	5	Chacayá	9	Septiembre	2023-09-09T00:00:00	2024-11-06T03:00:00	5	Humedad	38
118293	7	Sololá	702	San José Chacayá	5	Chacayá	9	Septiembre	2023-09-09T00:00:00	2024-11-06T03:00:00	6	Velocidad del viento	0
118294	7	Sololá	702	San José Chacayá	5	Chacayá	9	Septiembre	2023-09-09T00:00:00	2024-11-06T03:00:00	7	Dirección del viento	0
118295	7	Sololá	702	San José Chacayá	5	Chacayá	9	Septiembre	2023-09-09T00:00:00	2024-11-06T03:00:00	1	Precipitación	0.25
118296	7	Sololá	702	San José Chacayá	5	Chacayá	9	Septiembre	2023-09-09T00:00:00	2024-11-06T03:00:00	8	Radiación solar	0
118297	7	Sololá	702	San José Chacayá	5	Chacayá	9	Septiembre	2023-09-09T00:00:00	2024-11-06T04:00:00	2	Temperatura media	13.3
118298	7	Sololá	702	San José Chacayá	5	Chacayá	9	Septiembre	2023-09-09T00:00:00	2024-11-06T04:00:00	4	Temperatura máxima	13.3
118299	7	Sololá	702	San José Chacayá	5	Chacayá	9	Septiembre	2023-09-09T00:00:00	2024-11-06T04:00:00	3	Temperatura mínima	13.3
118300	7	Sololá	702	San José Chacayá	5	Chacayá	9	Septiembre	2023-09-09T00:00:00	2024-11-06T04:00:00	5	Humedad	57
118301	7	Sololá	702	San José Chacayá	5	Chacayá	9	Septiembre	2023-09-09T00:00:00	2024-11-06T04:00:00	6	Velocidad del viento	0
118302	7	Sololá	702	San José Chacayá	5	Chacayá	9	Septiembre	2023-09-09T00:00:00	2024-11-06T04:00:00	7	Dirección del viento	0
118303	7	Sololá	702	San José Chacayá	5	Chacayá	9	Septiembre	2023-09-09T00:00:00	2024-11-06T04:00:00	1	Precipitación	0
118304	7	Sololá	702	San José Chacayá	5	Chacayá	9	Septiembre	2023-09-09T00:00:00	2024-11-06T04:00:00	8	Radiación solar	0
118305	7	Sololá	702	San José Chacayá	5	Chacayá	9	Septiembre	2023-09-09T00:00:00	2024-11-06T05:00:00	2	Temperatura media	12.8
118306	7	Sololá	702	San José Chacayá	5	Chacayá	9	Septiembre	2023-09-09T00:00:00	2024-11-06T05:00:00	4	Temperatura máxima	13.1
118307	7	Sololá	702	San José Chacayá	5	Chacayá	9	Septiembre	2023-09-09T00:00:00	2024-11-06T05:00:00	3	Temperatura mínima	12.8
118308	7	Sololá	702	San José Chacayá	5	Chacayá	9	Septiembre	2023-09-09T00:00:00	2024-11-06T05:00:00	5	Humedad	59
118309	7	Sololá	702	San José Chacayá	5	Chacayá	9	Septiembre	2023-09-09T00:00:00	2024-11-06T05:00:00	6	Velocidad del viento	1.6
118310	7	Sololá	702	San José Chacayá	5	Chacayá	9	Septiembre	2023-09-09T00:00:00	2024-11-06T05:00:00	7	Dirección del viento	0.8
118311	7	Sololá	702	San José Chacayá	5	Chacayá	9	Septiembre	2023-09-09T00:00:00	2024-11-06T05:00:00	1	Precipitación	0
118312	7	Sololá	702	San José Chacayá	5	Chacayá	9	Septiembre	2023-09-09T00:00:00	2024-11-06T05:00:00	8	Radiación solar	0
118313	7	Sololá	702	San José Chacayá	5	Chacayá	9	Septiembre	2023-09-09T00:00:00	2024-11-06T06:00:00	2	Temperatura media	11.9
118314	7	Sololá	702	San José Chacayá	5	Chacayá	9	Septiembre	2023-09-09T00:00:00	2024-11-06T06:00:00	4	Temperatura máxima	12.4
118315	7	Sololá	702	San José Chacayá	5	Chacayá	9	Septiembre	2023-09-09T00:00:00	2024-11-06T06:00:00	3	Temperatura mínima	11.9
118316	7	Sololá	702	San José Chacayá	5	Chacayá	9	Septiembre	2023-09-09T00:00:00	2024-11-06T06:00:00	5	Humedad	66
118317	7	Sololá	702	San José Chacayá	5	Chacayá	9	Septiembre	2023-09-09T00:00:00	2024-11-06T06:00:00	6	Velocidad del viento	3.2
118318	7	Sololá	702	San José Chacayá	5	Chacayá	9	Septiembre	2023-09-09T00:00:00	2024-11-06T06:00:00	7	Dirección del viento	1.61
118319	7	Sololá	702	San José Chacayá	5	Chacayá	9	Septiembre	2023-09-09T00:00:00	2024-11-06T06:00:00	1	Precipitación	0
118320	7	Sololá	702	San José Chacayá	5	Chacayá	9	Septiembre	2023-09-09T00:00:00	2024-11-06T06:00:00	8	Radiación solar	3
118321	7	Sololá	702	San José Chacayá	5	Chacayá	9	Septiembre	2023-09-09T00:00:00	2024-11-06T07:00:00	2	Temperatura media	12.9
118322	7	Sololá	702	San José Chacayá	5	Chacayá	9	Septiembre	2023-09-09T00:00:00	2024-11-06T07:00:00	4	Temperatura máxima	12.9
118323	7	Sololá	702	San José Chacayá	5	Chacayá	9	Septiembre	2023-09-09T00:00:00	2024-11-06T07:00:00	3	Temperatura mínima	12.1
118324	7	Sololá	702	San José Chacayá	5	Chacayá	9	Septiembre	2023-09-09T00:00:00	2024-11-06T07:00:00	5	Humedad	58
118325	7	Sololá	702	San José Chacayá	5	Chacayá	9	Septiembre	2023-09-09T00:00:00	2024-11-06T07:00:00	6	Velocidad del viento	0
118326	7	Sololá	702	San José Chacayá	5	Chacayá	9	Septiembre	2023-09-09T00:00:00	2024-11-06T07:00:00	7	Dirección del viento	0
118327	7	Sololá	702	San José Chacayá	5	Chacayá	9	Septiembre	2023-09-09T00:00:00	2024-11-06T07:00:00	1	Precipitación	0
118328	7	Sololá	702	San José Chacayá	5	Chacayá	9	Septiembre	2023-09-09T00:00:00	2024-11-06T07:00:00	8	Radiación solar	71
118329	7	Sololá	702	San José Chacayá	5	Chacayá	9	Septiembre	2023-09-09T00:00:00	2024-11-06T08:00:00	2	Temperatura media	15.6
118330	7	Sololá	702	San José Chacayá	5	Chacayá	9	Septiembre	2023-09-09T00:00:00	2024-11-06T08:00:00	4	Temperatura máxima	15.6
118331	7	Sololá	702	San José Chacayá	5	Chacayá	9	Septiembre	2023-09-09T00:00:00	2024-11-06T08:00:00	3	Temperatura mínima	14.7
118332	7	Sololá	702	San José Chacayá	5	Chacayá	9	Septiembre	2023-09-09T00:00:00	2024-11-06T08:00:00	5	Humedad	80
118333	7	Sololá	702	San José Chacayá	5	Chacayá	9	Septiembre	2023-09-09T00:00:00	2024-11-06T08:00:00	6	Velocidad del viento	0
118334	7	Sololá	702	San José Chacayá	5	Chacayá	9	Septiembre	2023-09-09T00:00:00	2024-11-06T08:00:00	7	Dirección del viento	0
118335	7	Sololá	702	San José Chacayá	5	Chacayá	9	Septiembre	2023-09-09T00:00:00	2024-11-06T08:00:00	1	Precipitación	0
118336	7	Sololá	702	San José Chacayá	5	Chacayá	9	Septiembre	2023-09-09T00:00:00	2024-11-06T08:00:00	8	Radiación solar	177
118337	7	Sololá	702	San José Chacayá	5	Chacayá	9	Septiembre	2023-09-09T00:00:00	2024-11-06T09:00:00	2	Temperatura media	17.9
118338	7	Sololá	702	San José Chacayá	5	Chacayá	9	Septiembre	2023-09-09T00:00:00	2024-11-06T09:00:00	4	Temperatura máxima	17.9
118339	7	Sololá	702	San José Chacayá	5	Chacayá	9	Septiembre	2023-09-09T00:00:00	2024-11-06T09:00:00	3	Temperatura mínima	16.4
118340	7	Sololá	702	San José Chacayá	5	Chacayá	9	Septiembre	2023-09-09T00:00:00	2024-11-06T09:00:00	5	Humedad	74
118341	7	Sololá	702	San José Chacayá	5	Chacayá	9	Septiembre	2023-09-09T00:00:00	2024-11-06T09:00:00	6	Velocidad del viento	1.6
118342	7	Sololá	702	San José Chacayá	5	Chacayá	9	Septiembre	2023-09-09T00:00:00	2024-11-06T09:00:00	7	Dirección del viento	0.8
118343	7	Sololá	702	San José Chacayá	5	Chacayá	9	Septiembre	2023-09-09T00:00:00	2024-11-06T09:00:00	1	Precipitación	0
118344	7	Sololá	702	San José Chacayá	5	Chacayá	9	Septiembre	2023-09-09T00:00:00	2024-11-06T09:00:00	8	Radiación solar	450
118345	7	Sololá	702	San José Chacayá	5	Chacayá	9	Septiembre	2023-09-09T00:00:00	2024-11-06T10:00:00	2	Temperatura media	18.6
118346	7	Sololá	702	San José Chacayá	5	Chacayá	9	Septiembre	2023-09-09T00:00:00	2024-11-06T10:00:00	4	Temperatura máxima	19.3
118347	7	Sololá	702	San José Chacayá	5	Chacayá	9	Septiembre	2023-09-09T00:00:00	2024-11-06T10:00:00	3	Temperatura mínima	18.6
118348	7	Sololá	702	San José Chacayá	5	Chacayá	9	Septiembre	2023-09-09T00:00:00	2024-11-06T10:00:00	5	Humedad	74
118349	7	Sololá	702	San José Chacayá	5	Chacayá	9	Septiembre	2023-09-09T00:00:00	2024-11-06T10:00:00	6	Velocidad del viento	4.8
118350	7	Sololá	702	San José Chacayá	5	Chacayá	9	Septiembre	2023-09-09T00:00:00	2024-11-06T10:00:00	7	Dirección del viento	2.41
118351	7	Sololá	702	San José Chacayá	5	Chacayá	9	Septiembre	2023-09-09T00:00:00	2024-11-06T10:00:00	1	Precipitación	0
118352	7	Sololá	702	San José Chacayá	5	Chacayá	9	Septiembre	2023-09-09T00:00:00	2024-11-06T10:00:00	8	Radiación solar	425
118353	7	Sololá	702	San José Chacayá	5	Chacayá	9	Septiembre	2023-09-09T00:00:00	2024-11-06T11:00:00	2	Temperatura media	20.6
118354	7	Sololá	702	San José Chacayá	5	Chacayá	9	Septiembre	2023-09-09T00:00:00	2024-11-06T11:00:00	4	Temperatura máxima	20.7
118355	7	Sololá	702	San José Chacayá	5	Chacayá	9	Septiembre	2023-09-09T00:00:00	2024-11-06T11:00:00	3	Temperatura mínima	20.1
118356	7	Sololá	702	San José Chacayá	5	Chacayá	9	Septiembre	2023-09-09T00:00:00	2024-11-06T11:00:00	5	Humedad	67
118357	7	Sololá	702	San José Chacayá	5	Chacayá	9	Septiembre	2023-09-09T00:00:00	2024-11-06T11:00:00	6	Velocidad del viento	3.2
118358	7	Sololá	702	San José Chacayá	5	Chacayá	9	Septiembre	2023-09-09T00:00:00	2024-11-06T11:00:00	7	Dirección del viento	1.61
118359	7	Sololá	702	San José Chacayá	5	Chacayá	9	Septiembre	2023-09-09T00:00:00	2024-11-06T11:00:00	1	Precipitación	0
118360	7	Sololá	702	San José Chacayá	5	Chacayá	9	Septiembre	2023-09-09T00:00:00	2024-11-06T11:00:00	8	Radiación solar	726
118361	7	Sololá	702	San José Chacayá	5	Chacayá	9	Septiembre	2023-09-09T00:00:00	2024-11-06T12:00:00	2	Temperatura media	22.3
118362	7	Sololá	702	San José Chacayá	5	Chacayá	9	Septiembre	2023-09-09T00:00:00	2024-11-06T12:00:00	4	Temperatura máxima	22.3
118363	7	Sololá	702	San José Chacayá	5	Chacayá	9	Septiembre	2023-09-09T00:00:00	2024-11-06T12:00:00	3	Temperatura mínima	20.9
118364	7	Sololá	702	San José Chacayá	5	Chacayá	9	Septiembre	2023-09-09T00:00:00	2024-11-06T12:00:00	5	Humedad	64
118365	7	Sololá	702	San José Chacayá	5	Chacayá	9	Septiembre	2023-09-09T00:00:00	2024-11-06T12:00:00	6	Velocidad del viento	6.4
118366	7	Sololá	702	San José Chacayá	5	Chacayá	9	Septiembre	2023-09-09T00:00:00	2024-11-06T12:00:00	7	Dirección del viento	3.22
118367	7	Sololá	702	San José Chacayá	5	Chacayá	9	Septiembre	2023-09-09T00:00:00	2024-11-06T12:00:00	1	Precipitación	0
118368	7	Sololá	702	San José Chacayá	5	Chacayá	9	Septiembre	2023-09-09T00:00:00	2024-11-06T12:00:00	8	Radiación solar	1075
118369	7	Sololá	702	San José Chacayá	5	Chacayá	9	Septiembre	2023-09-09T00:00:00	2024-11-06T13:00:00	2	Temperatura media	20.9
118370	7	Sololá	702	San José Chacayá	5	Chacayá	9	Septiembre	2023-09-09T00:00:00	2024-11-06T13:00:00	4	Temperatura máxima	21.5
118371	7	Sololá	702	San José Chacayá	5	Chacayá	9	Septiembre	2023-09-09T00:00:00	2024-11-06T13:00:00	3	Temperatura mínima	20.4
118372	7	Sololá	702	San José Chacayá	5	Chacayá	9	Septiembre	2023-09-09T00:00:00	2024-11-06T13:00:00	5	Humedad	70
118373	7	Sololá	702	San José Chacayá	5	Chacayá	9	Septiembre	2023-09-09T00:00:00	2024-11-06T13:00:00	6	Velocidad del viento	4.8
118374	7	Sololá	702	San José Chacayá	5	Chacayá	9	Septiembre	2023-09-09T00:00:00	2024-11-06T13:00:00	7	Dirección del viento	2.41
118375	7	Sololá	702	San José Chacayá	5	Chacayá	9	Septiembre	2023-09-09T00:00:00	2024-11-06T13:00:00	1	Precipitación	0
118376	7	Sololá	702	San José Chacayá	5	Chacayá	9	Septiembre	2023-09-09T00:00:00	2024-11-06T13:00:00	8	Radiación solar	525
118377	7	Sololá	702	San José Chacayá	5	Chacayá	9	Septiembre	2023-09-09T00:00:00	2024-11-06T14:00:00	2	Temperatura media	19.6
118378	7	Sololá	702	San José Chacayá	5	Chacayá	9	Septiembre	2023-09-09T00:00:00	2024-11-06T14:00:00	4	Temperatura máxima	20.1
118379	7	Sololá	702	San José Chacayá	5	Chacayá	9	Septiembre	2023-09-09T00:00:00	2024-11-06T14:00:00	3	Temperatura mínima	19.6
118380	7	Sololá	702	San José Chacayá	5	Chacayá	9	Septiembre	2023-09-09T00:00:00	2024-11-06T14:00:00	5	Humedad	79
118381	7	Sololá	702	San José Chacayá	5	Chacayá	9	Septiembre	2023-09-09T00:00:00	2024-11-06T14:00:00	6	Velocidad del viento	1.6
118382	7	Sololá	702	San José Chacayá	5	Chacayá	9	Septiembre	2023-09-09T00:00:00	2024-11-06T14:00:00	7	Dirección del viento	0.8
118383	7	Sololá	702	San José Chacayá	5	Chacayá	9	Septiembre	2023-09-09T00:00:00	2024-11-06T14:00:00	1	Precipitación	0
118384	7	Sololá	702	San José Chacayá	5	Chacayá	9	Septiembre	2023-09-09T00:00:00	2024-11-06T14:00:00	8	Radiación solar	293
118385	7	Sololá	702	San José Chacayá	5	Chacayá	9	Septiembre	2023-09-09T00:00:00	2024-11-06T15:00:00	2	Temperatura media	19.3
118386	7	Sololá	702	San José Chacayá	5	Chacayá	9	Septiembre	2023-09-09T00:00:00	2024-11-06T15:00:00	4	Temperatura máxima	20.9
118387	7	Sololá	702	San José Chacayá	5	Chacayá	9	Septiembre	2023-09-09T00:00:00	2024-11-06T15:00:00	3	Temperatura mínima	19.3
118388	7	Sololá	702	San José Chacayá	5	Chacayá	9	Septiembre	2023-09-09T00:00:00	2024-11-06T15:00:00	5	Humedad	80
118389	7	Sololá	702	San José Chacayá	5	Chacayá	9	Septiembre	2023-09-09T00:00:00	2024-11-06T15:00:00	6	Velocidad del viento	3.2
118390	7	Sololá	702	San José Chacayá	5	Chacayá	9	Septiembre	2023-09-09T00:00:00	2024-11-06T15:00:00	7	Dirección del viento	1.61
118391	7	Sololá	702	San José Chacayá	5	Chacayá	9	Septiembre	2023-09-09T00:00:00	2024-11-06T15:00:00	1	Precipitación	0
118392	7	Sololá	702	San José Chacayá	5	Chacayá	9	Septiembre	2023-09-09T00:00:00	2024-11-06T15:00:00	8	Radiación solar	330
118393	7	Sololá	702	San José Chacayá	5	Chacayá	9	Septiembre	2023-09-09T00:00:00	2024-11-06T16:00:00	2	Temperatura media	15.1
118394	7	Sololá	702	San José Chacayá	5	Chacayá	9	Septiembre	2023-09-09T00:00:00	2024-11-06T16:00:00	4	Temperatura máxima	17.2
118395	7	Sololá	702	San José Chacayá	5	Chacayá	9	Septiembre	2023-09-09T00:00:00	2024-11-06T16:00:00	3	Temperatura mínima	14.9
118396	7	Sololá	702	San José Chacayá	5	Chacayá	9	Septiembre	2023-09-09T00:00:00	2024-11-06T16:00:00	5	Humedad	66
118397	7	Sololá	702	San José Chacayá	5	Chacayá	9	Septiembre	2023-09-09T00:00:00	2024-11-06T16:00:00	6	Velocidad del viento	3.2
118398	7	Sololá	702	San José Chacayá	5	Chacayá	9	Septiembre	2023-09-09T00:00:00	2024-11-06T16:00:00	7	Dirección del viento	1.61
118399	7	Sololá	702	San José Chacayá	5	Chacayá	9	Septiembre	2023-09-09T00:00:00	2024-11-06T16:00:00	1	Precipitación	15.49
118400	7	Sololá	702	San José Chacayá	5	Chacayá	9	Septiembre	2023-09-09T00:00:00	2024-11-06T16:00:00	8	Radiación solar	27
118401	7	Sololá	702	San José Chacayá	5	Chacayá	9	Septiembre	2023-09-09T00:00:00	2024-11-06T17:00:00	2	Temperatura media	15.1
118402	7	Sololá	702	San José Chacayá	5	Chacayá	9	Septiembre	2023-09-09T00:00:00	2024-11-06T17:00:00	4	Temperatura máxima	15.2
118403	7	Sololá	702	San José Chacayá	5	Chacayá	9	Septiembre	2023-09-09T00:00:00	2024-11-06T17:00:00	3	Temperatura mínima	15.1
118404	7	Sololá	702	San José Chacayá	5	Chacayá	9	Septiembre	2023-09-09T00:00:00	2024-11-06T17:00:00	5	Humedad	46
118405	7	Sololá	702	San José Chacayá	5	Chacayá	9	Septiembre	2023-09-09T00:00:00	2024-11-06T17:00:00	6	Velocidad del viento	1.6
118406	7	Sololá	702	San José Chacayá	5	Chacayá	9	Septiembre	2023-09-09T00:00:00	2024-11-06T17:00:00	7	Dirección del viento	0.8
118407	7	Sololá	702	San José Chacayá	5	Chacayá	9	Septiembre	2023-09-09T00:00:00	2024-11-06T17:00:00	1	Precipitación	3.3
118408	7	Sololá	702	San José Chacayá	5	Chacayá	9	Septiembre	2023-09-09T00:00:00	2024-11-06T17:00:00	8	Radiación solar	21
118409	7	Sololá	702	San José Chacayá	5	Chacayá	9	Septiembre	2023-09-09T00:00:00	2024-11-06T18:00:00	2	Temperatura media	14.9
118410	7	Sololá	702	San José Chacayá	5	Chacayá	9	Septiembre	2023-09-09T00:00:00	2024-11-06T18:00:00	4	Temperatura máxima	15
118411	7	Sololá	702	San José Chacayá	5	Chacayá	9	Septiembre	2023-09-09T00:00:00	2024-11-06T18:00:00	3	Temperatura mínima	14.9
118412	7	Sololá	702	San José Chacayá	5	Chacayá	9	Septiembre	2023-09-09T00:00:00	2024-11-06T18:00:00	5	Humedad	40
118413	7	Sololá	702	San José Chacayá	5	Chacayá	9	Septiembre	2023-09-09T00:00:00	2024-11-06T18:00:00	6	Velocidad del viento	1.6
118414	7	Sololá	702	San José Chacayá	5	Chacayá	9	Septiembre	2023-09-09T00:00:00	2024-11-06T18:00:00	7	Dirección del viento	0.8
118415	7	Sololá	702	San José Chacayá	5	Chacayá	9	Septiembre	2023-09-09T00:00:00	2024-11-06T18:00:00	1	Precipitación	0
118416	7	Sololá	702	San José Chacayá	5	Chacayá	9	Septiembre	2023-09-09T00:00:00	2024-11-06T18:00:00	8	Radiación solar	6
118417	7	Sololá	702	San José Chacayá	5	Chacayá	9	Septiembre	2023-09-09T00:00:00	2024-11-06T19:00:00	2	Temperatura media	14.8
118418	7	Sololá	702	San José Chacayá	5	Chacayá	9	Septiembre	2023-09-09T00:00:00	2024-11-06T19:00:00	4	Temperatura máxima	14.9
118419	7	Sololá	702	San José Chacayá	5	Chacayá	9	Septiembre	2023-09-09T00:00:00	2024-11-06T19:00:00	3	Temperatura mínima	14.8
118420	7	Sololá	702	San José Chacayá	5	Chacayá	9	Septiembre	2023-09-09T00:00:00	2024-11-06T19:00:00	5	Humedad	40
118421	7	Sololá	702	San José Chacayá	5	Chacayá	9	Septiembre	2023-09-09T00:00:00	2024-11-06T19:00:00	6	Velocidad del viento	1.6
118422	7	Sololá	702	San José Chacayá	5	Chacayá	9	Septiembre	2023-09-09T00:00:00	2024-11-06T19:00:00	7	Dirección del viento	0.8
118423	7	Sololá	702	San José Chacayá	5	Chacayá	9	Septiembre	2023-09-09T00:00:00	2024-11-06T19:00:00	1	Precipitación	0
118424	7	Sololá	702	San José Chacayá	5	Chacayá	9	Septiembre	2023-09-09T00:00:00	2024-11-06T19:00:00	8	Radiación solar	0
118425	7	Sololá	702	San José Chacayá	5	Chacayá	9	Septiembre	2023-09-09T00:00:00	2024-11-06T20:00:00	2	Temperatura media	14.7
118426	7	Sololá	702	San José Chacayá	5	Chacayá	9	Septiembre	2023-09-09T00:00:00	2024-11-06T20:00:00	4	Temperatura máxima	14.8
118427	7	Sololá	702	San José Chacayá	5	Chacayá	9	Septiembre	2023-09-09T00:00:00	2024-11-06T20:00:00	3	Temperatura mínima	14.7
118428	7	Sololá	702	San José Chacayá	5	Chacayá	9	Septiembre	2023-09-09T00:00:00	2024-11-06T20:00:00	5	Humedad	36
118429	7	Sololá	702	San José Chacayá	5	Chacayá	9	Septiembre	2023-09-09T00:00:00	2024-11-06T20:00:00	6	Velocidad del viento	1.6
118430	7	Sololá	702	San José Chacayá	5	Chacayá	9	Septiembre	2023-09-09T00:00:00	2024-11-06T20:00:00	7	Dirección del viento	0.8
118431	7	Sololá	702	San José Chacayá	5	Chacayá	9	Septiembre	2023-09-09T00:00:00	2024-11-06T20:00:00	1	Precipitación	0
118432	7	Sololá	702	San José Chacayá	5	Chacayá	9	Septiembre	2023-09-09T00:00:00	2024-11-06T20:00:00	8	Radiación solar	0
118433	7	Sololá	702	San José Chacayá	5	Chacayá	9	Septiembre	2023-09-09T00:00:00	2024-11-06T21:00:00	2	Temperatura media	14.4
118434	7	Sololá	702	San José Chacayá	5	Chacayá	9	Septiembre	2023-09-09T00:00:00	2024-11-06T21:00:00	4	Temperatura máxima	14.6
118435	7	Sololá	702	San José Chacayá	5	Chacayá	9	Septiembre	2023-09-09T00:00:00	2024-11-06T21:00:00	3	Temperatura mínima	14.4
118436	7	Sololá	702	San José Chacayá	5	Chacayá	9	Septiembre	2023-09-09T00:00:00	2024-11-06T21:00:00	5	Humedad	38
118437	7	Sololá	702	San José Chacayá	5	Chacayá	9	Septiembre	2023-09-09T00:00:00	2024-11-06T21:00:00	6	Velocidad del viento	1.6
118438	7	Sololá	702	San José Chacayá	5	Chacayá	9	Septiembre	2023-09-09T00:00:00	2024-11-06T21:00:00	7	Dirección del viento	0.8
118439	7	Sololá	702	San José Chacayá	5	Chacayá	9	Septiembre	2023-09-09T00:00:00	2024-11-06T21:00:00	1	Precipitación	0
118440	7	Sololá	702	San José Chacayá	5	Chacayá	9	Septiembre	2023-09-09T00:00:00	2024-11-06T21:00:00	8	Radiación solar	0
118441	7	Sololá	702	San José Chacayá	5	Chacayá	9	Septiembre	2023-09-09T00:00:00	2024-11-06T22:00:00	2	Temperatura media	14.2
118442	7	Sololá	702	San José Chacayá	5	Chacayá	9	Septiembre	2023-09-09T00:00:00	2024-11-06T22:00:00	4	Temperatura máxima	14.3
118443	7	Sololá	702	San José Chacayá	5	Chacayá	9	Septiembre	2023-09-09T00:00:00	2024-11-06T22:00:00	3	Temperatura mínima	14.2
118444	7	Sololá	702	San José Chacayá	5	Chacayá	9	Septiembre	2023-09-09T00:00:00	2024-11-06T22:00:00	5	Humedad	35
118445	7	Sololá	702	San José Chacayá	5	Chacayá	9	Septiembre	2023-09-09T00:00:00	2024-11-06T22:00:00	6	Velocidad del viento	0
118446	7	Sololá	702	San José Chacayá	5	Chacayá	9	Septiembre	2023-09-09T00:00:00	2024-11-06T22:00:00	7	Dirección del viento	0
118447	7	Sololá	702	San José Chacayá	5	Chacayá	9	Septiembre	2023-09-09T00:00:00	2024-11-06T22:00:00	1	Precipitación	0.25
118448	7	Sololá	702	San José Chacayá	5	Chacayá	9	Septiembre	2023-09-09T00:00:00	2024-11-06T22:00:00	8	Radiación solar	0
118449	7	Sololá	702	San José Chacayá	5	Chacayá	9	Septiembre	2023-09-09T00:00:00	2024-11-06T23:00:00	2	Temperatura media	14.1
118450	7	Sololá	702	San José Chacayá	5	Chacayá	9	Septiembre	2023-09-09T00:00:00	2024-11-06T23:00:00	4	Temperatura máxima	14.2
118451	7	Sololá	702	San José Chacayá	5	Chacayá	9	Septiembre	2023-09-09T00:00:00	2024-11-06T23:00:00	3	Temperatura mínima	14.1
118452	7	Sololá	702	San José Chacayá	5	Chacayá	9	Septiembre	2023-09-09T00:00:00	2024-11-06T23:00:00	5	Humedad	34
118453	7	Sololá	702	San José Chacayá	5	Chacayá	9	Septiembre	2023-09-09T00:00:00	2024-11-06T23:00:00	6	Velocidad del viento	0
118454	7	Sololá	702	San José Chacayá	5	Chacayá	9	Septiembre	2023-09-09T00:00:00	2024-11-06T23:00:00	7	Dirección del viento	0
118455	7	Sololá	702	San José Chacayá	5	Chacayá	9	Septiembre	2023-09-09T00:00:00	2024-11-06T23:00:00	1	Precipitación	0
118456	7	Sololá	702	San José Chacayá	5	Chacayá	9	Septiembre	2023-09-09T00:00:00	2024-11-06T23:00:00	8	Radiación solar	0
118457	7	Sololá	702	San José Chacayá	5	Chacayá	9	Septiembre	2023-10-09T00:00:00	2024-11-06T00:00:00	2	Temperatura media	13.8
118458	7	Sololá	702	San José Chacayá	5	Chacayá	9	Septiembre	2023-10-09T00:00:00	2024-11-06T00:00:00	4	Temperatura máxima	14.1
118459	7	Sololá	702	San José Chacayá	5	Chacayá	9	Septiembre	2023-10-09T00:00:00	2024-11-06T00:00:00	3	Temperatura mínima	13.8
118460	7	Sololá	702	San José Chacayá	5	Chacayá	9	Septiembre	2023-10-09T00:00:00	2024-11-06T00:00:00	5	Humedad	42
118461	7	Sololá	702	San José Chacayá	5	Chacayá	9	Septiembre	2023-10-09T00:00:00	2024-11-06T00:00:00	6	Velocidad del viento	0
118462	7	Sololá	702	San José Chacayá	5	Chacayá	9	Septiembre	2023-10-09T00:00:00	2024-11-06T00:00:00	7	Dirección del viento	0
118463	7	Sololá	702	San José Chacayá	5	Chacayá	9	Septiembre	2023-10-09T00:00:00	2024-11-06T00:00:00	1	Precipitación	0
118464	7	Sololá	702	San José Chacayá	5	Chacayá	9	Septiembre	2023-10-09T00:00:00	2024-11-06T00:00:00	8	Radiación solar	0
118465	7	Sololá	702	San José Chacayá	5	Chacayá	9	Septiembre	2023-10-09T00:00:00	2024-11-06T01:00:00	2	Temperatura media	13.8
118466	7	Sololá	702	San José Chacayá	5	Chacayá	9	Septiembre	2023-10-09T00:00:00	2024-11-06T01:00:00	4	Temperatura máxima	13.9
118467	7	Sololá	702	San José Chacayá	5	Chacayá	9	Septiembre	2023-10-09T00:00:00	2024-11-06T01:00:00	3	Temperatura mínima	13.7
118468	7	Sololá	702	San José Chacayá	5	Chacayá	9	Septiembre	2023-10-09T00:00:00	2024-11-06T01:00:00	5	Humedad	45
118469	7	Sololá	702	San José Chacayá	5	Chacayá	9	Septiembre	2023-10-09T00:00:00	2024-11-06T01:00:00	6	Velocidad del viento	0
118470	7	Sololá	702	San José Chacayá	5	Chacayá	9	Septiembre	2023-10-09T00:00:00	2024-11-06T01:00:00	7	Dirección del viento	0
118471	7	Sololá	702	San José Chacayá	5	Chacayá	9	Septiembre	2023-10-09T00:00:00	2024-11-06T01:00:00	1	Precipitación	0
118472	7	Sololá	702	San José Chacayá	5	Chacayá	9	Septiembre	2023-10-09T00:00:00	2024-11-06T01:00:00	8	Radiación solar	0
118473	7	Sololá	702	San José Chacayá	5	Chacayá	9	Septiembre	2023-10-09T00:00:00	2024-11-06T02:00:00	2	Temperatura media	13.6
118474	7	Sololá	702	San José Chacayá	5	Chacayá	9	Septiembre	2023-10-09T00:00:00	2024-11-06T02:00:00	4	Temperatura máxima	13.7
118475	7	Sololá	702	San José Chacayá	5	Chacayá	9	Septiembre	2023-10-09T00:00:00	2024-11-06T02:00:00	3	Temperatura mínima	13.6
118476	7	Sololá	702	San José Chacayá	5	Chacayá	9	Septiembre	2023-10-09T00:00:00	2024-11-06T02:00:00	5	Humedad	50
118477	7	Sololá	702	San José Chacayá	5	Chacayá	9	Septiembre	2023-10-09T00:00:00	2024-11-06T02:00:00	6	Velocidad del viento	0
118478	7	Sololá	702	San José Chacayá	5	Chacayá	9	Septiembre	2023-10-09T00:00:00	2024-11-06T02:00:00	7	Dirección del viento	0
118479	7	Sololá	702	San José Chacayá	5	Chacayá	9	Septiembre	2023-10-09T00:00:00	2024-11-06T02:00:00	1	Precipitación	0
118480	7	Sololá	702	San José Chacayá	5	Chacayá	9	Septiembre	2023-10-09T00:00:00	2024-11-06T02:00:00	8	Radiación solar	0
118481	7	Sololá	702	San José Chacayá	5	Chacayá	9	Septiembre	2023-10-09T00:00:00	2024-11-06T03:00:00	2	Temperatura media	13.3
118482	7	Sololá	702	San José Chacayá	5	Chacayá	9	Septiembre	2023-10-09T00:00:00	2024-11-06T03:00:00	4	Temperatura máxima	13.4
118483	7	Sololá	702	San José Chacayá	5	Chacayá	9	Septiembre	2023-10-09T00:00:00	2024-11-06T03:00:00	3	Temperatura mínima	13.3
118484	7	Sololá	702	San José Chacayá	5	Chacayá	9	Septiembre	2023-10-09T00:00:00	2024-11-06T03:00:00	5	Humedad	45
118485	7	Sololá	702	San José Chacayá	5	Chacayá	9	Septiembre	2023-10-09T00:00:00	2024-11-06T03:00:00	6	Velocidad del viento	0
118486	7	Sololá	702	San José Chacayá	5	Chacayá	9	Septiembre	2023-10-09T00:00:00	2024-11-06T03:00:00	7	Dirección del viento	0
118487	7	Sololá	702	San José Chacayá	5	Chacayá	9	Septiembre	2023-10-09T00:00:00	2024-11-06T03:00:00	1	Precipitación	0
118488	7	Sololá	702	San José Chacayá	5	Chacayá	9	Septiembre	2023-10-09T00:00:00	2024-11-06T03:00:00	8	Radiación solar	0
118489	7	Sololá	702	San José Chacayá	5	Chacayá	9	Septiembre	2023-10-09T00:00:00	2024-11-06T04:00:00	2	Temperatura media	13.1
118490	7	Sololá	702	San José Chacayá	5	Chacayá	9	Septiembre	2023-10-09T00:00:00	2024-11-06T04:00:00	4	Temperatura máxima	13.2
118491	7	Sololá	702	San José Chacayá	5	Chacayá	9	Septiembre	2023-10-09T00:00:00	2024-11-06T04:00:00	3	Temperatura mínima	13.1
118492	7	Sololá	702	San José Chacayá	5	Chacayá	9	Septiembre	2023-10-09T00:00:00	2024-11-06T04:00:00	5	Humedad	41
118493	7	Sololá	702	San José Chacayá	5	Chacayá	9	Septiembre	2023-10-09T00:00:00	2024-11-06T04:00:00	6	Velocidad del viento	0
118494	7	Sololá	702	San José Chacayá	5	Chacayá	9	Septiembre	2023-10-09T00:00:00	2024-11-06T04:00:00	7	Dirección del viento	0
118495	7	Sololá	702	San José Chacayá	5	Chacayá	9	Septiembre	2023-10-09T00:00:00	2024-11-06T04:00:00	1	Precipitación	0
118496	7	Sololá	702	San José Chacayá	5	Chacayá	9	Septiembre	2023-10-09T00:00:00	2024-11-06T04:00:00	8	Radiación solar	0
118497	7	Sololá	702	San José Chacayá	5	Chacayá	9	Septiembre	2023-10-09T00:00:00	2024-11-06T05:00:00	2	Temperatura media	12.8
118498	7	Sololá	702	San José Chacayá	5	Chacayá	9	Septiembre	2023-10-09T00:00:00	2024-11-06T05:00:00	4	Temperatura máxima	12.9
118499	7	Sololá	702	San José Chacayá	5	Chacayá	9	Septiembre	2023-10-09T00:00:00	2024-11-06T05:00:00	3	Temperatura mínima	12.8
118500	7	Sololá	702	San José Chacayá	5	Chacayá	9	Septiembre	2023-10-09T00:00:00	2024-11-06T05:00:00	5	Humedad	50
118501	7	Sololá	702	San José Chacayá	5	Chacayá	9	Septiembre	2023-10-09T00:00:00	2024-11-06T05:00:00	6	Velocidad del viento	1.6
118502	7	Sololá	702	San José Chacayá	5	Chacayá	9	Septiembre	2023-10-09T00:00:00	2024-11-06T05:00:00	7	Dirección del viento	0.8
118503	7	Sololá	702	San José Chacayá	5	Chacayá	9	Septiembre	2023-10-09T00:00:00	2024-11-06T05:00:00	1	Precipitación	0
118504	7	Sololá	702	San José Chacayá	5	Chacayá	9	Septiembre	2023-10-09T00:00:00	2024-11-06T05:00:00	8	Radiación solar	0
118505	7	Sololá	702	San José Chacayá	5	Chacayá	9	Septiembre	2023-10-09T00:00:00	2024-11-06T06:00:00	2	Temperatura media	12.4
118506	7	Sololá	702	San José Chacayá	5	Chacayá	9	Septiembre	2023-10-09T00:00:00	2024-11-06T06:00:00	4	Temperatura máxima	12.6
118507	7	Sololá	702	San José Chacayá	5	Chacayá	9	Septiembre	2023-10-09T00:00:00	2024-11-06T06:00:00	3	Temperatura mínima	12.4
118508	7	Sololá	702	San José Chacayá	5	Chacayá	9	Septiembre	2023-10-09T00:00:00	2024-11-06T06:00:00	5	Humedad	59
118509	7	Sololá	702	San José Chacayá	5	Chacayá	9	Septiembre	2023-10-09T00:00:00	2024-11-06T06:00:00	6	Velocidad del viento	1.6
118510	7	Sololá	702	San José Chacayá	5	Chacayá	9	Septiembre	2023-10-09T00:00:00	2024-11-06T06:00:00	7	Dirección del viento	0.8
118511	7	Sololá	702	San José Chacayá	5	Chacayá	9	Septiembre	2023-10-09T00:00:00	2024-11-06T06:00:00	1	Precipitación	0
118512	7	Sololá	702	San José Chacayá	5	Chacayá	9	Septiembre	2023-10-09T00:00:00	2024-11-06T06:00:00	8	Radiación solar	0
118513	7	Sololá	702	San José Chacayá	5	Chacayá	9	Septiembre	2023-10-09T00:00:00	2024-11-06T07:00:00	2	Temperatura media	12.7
118514	7	Sololá	702	San José Chacayá	5	Chacayá	9	Septiembre	2023-10-09T00:00:00	2024-11-06T07:00:00	4	Temperatura máxima	12.7
118515	7	Sololá	702	San José Chacayá	5	Chacayá	9	Septiembre	2023-10-09T00:00:00	2024-11-06T07:00:00	3	Temperatura mínima	12.4
118516	7	Sololá	702	San José Chacayá	5	Chacayá	9	Septiembre	2023-10-09T00:00:00	2024-11-06T07:00:00	5	Humedad	56
118517	7	Sololá	702	San José Chacayá	5	Chacayá	9	Septiembre	2023-10-09T00:00:00	2024-11-06T07:00:00	6	Velocidad del viento	0
118518	7	Sololá	702	San José Chacayá	5	Chacayá	9	Septiembre	2023-10-09T00:00:00	2024-11-06T07:00:00	7	Dirección del viento	0
118519	7	Sololá	702	San José Chacayá	5	Chacayá	9	Septiembre	2023-10-09T00:00:00	2024-11-06T07:00:00	1	Precipitación	0
118520	7	Sololá	702	San José Chacayá	5	Chacayá	9	Septiembre	2023-10-09T00:00:00	2024-11-06T07:00:00	8	Radiación solar	36
118521	7	Sololá	702	San José Chacayá	5	Chacayá	9	Septiembre	2023-10-09T00:00:00	2024-11-06T08:00:00	2	Temperatura media	14.4
118522	7	Sololá	702	San José Chacayá	5	Chacayá	9	Septiembre	2023-10-09T00:00:00	2024-11-06T08:00:00	4	Temperatura máxima	14.4
118523	7	Sololá	702	San José Chacayá	5	Chacayá	9	Septiembre	2023-10-09T00:00:00	2024-11-06T08:00:00	3	Temperatura mínima	13.4
118524	7	Sololá	702	San José Chacayá	5	Chacayá	9	Septiembre	2023-10-09T00:00:00	2024-11-06T08:00:00	5	Humedad	68
118525	7	Sololá	702	San José Chacayá	5	Chacayá	9	Septiembre	2023-10-09T00:00:00	2024-11-06T08:00:00	6	Velocidad del viento	0
118526	7	Sololá	702	San José Chacayá	5	Chacayá	9	Septiembre	2023-10-09T00:00:00	2024-11-06T08:00:00	7	Dirección del viento	0
118527	7	Sololá	702	San José Chacayá	5	Chacayá	9	Septiembre	2023-10-09T00:00:00	2024-11-06T08:00:00	1	Precipitación	0
118528	7	Sololá	702	San José Chacayá	5	Chacayá	9	Septiembre	2023-10-09T00:00:00	2024-11-06T08:00:00	8	Radiación solar	135
118529	7	Sololá	702	San José Chacayá	5	Chacayá	9	Septiembre	2023-10-09T00:00:00	2024-11-06T09:00:00	2	Temperatura media	16.1
118530	7	Sololá	702	San José Chacayá	5	Chacayá	9	Septiembre	2023-10-09T00:00:00	2024-11-06T09:00:00	4	Temperatura máxima	16.1
118531	7	Sololá	702	San José Chacayá	5	Chacayá	9	Septiembre	2023-10-09T00:00:00	2024-11-06T09:00:00	3	Temperatura mínima	15.4
118532	7	Sololá	702	San José Chacayá	5	Chacayá	9	Septiembre	2023-10-09T00:00:00	2024-11-06T09:00:00	5	Humedad	81
118533	7	Sololá	702	San José Chacayá	5	Chacayá	9	Septiembre	2023-10-09T00:00:00	2024-11-06T09:00:00	6	Velocidad del viento	1.6
118534	7	Sololá	702	San José Chacayá	5	Chacayá	9	Septiembre	2023-10-09T00:00:00	2024-11-06T09:00:00	7	Dirección del viento	0.8
118535	7	Sololá	702	San José Chacayá	5	Chacayá	9	Septiembre	2023-10-09T00:00:00	2024-11-06T09:00:00	1	Precipitación	0
118536	7	Sololá	702	San José Chacayá	5	Chacayá	9	Septiembre	2023-10-09T00:00:00	2024-11-06T09:00:00	8	Radiación solar	214
118537	7	Sololá	702	San José Chacayá	5	Chacayá	9	Septiembre	2023-10-09T00:00:00	2024-11-06T10:00:00	2	Temperatura media	18.1
118538	7	Sololá	702	San José Chacayá	5	Chacayá	9	Septiembre	2023-10-09T00:00:00	2024-11-06T10:00:00	4	Temperatura máxima	18.1
118539	7	Sololá	702	San José Chacayá	5	Chacayá	9	Septiembre	2023-10-09T00:00:00	2024-11-06T10:00:00	3	Temperatura mínima	16.6
118540	7	Sololá	702	San José Chacayá	5	Chacayá	9	Septiembre	2023-10-09T00:00:00	2024-11-06T10:00:00	5	Humedad	77
118541	7	Sololá	702	San José Chacayá	5	Chacayá	9	Septiembre	2023-10-09T00:00:00	2024-11-06T10:00:00	6	Velocidad del viento	1.6
118542	7	Sololá	702	San José Chacayá	5	Chacayá	9	Septiembre	2023-10-09T00:00:00	2024-11-06T10:00:00	7	Dirección del viento	0.8
118543	7	Sololá	702	San José Chacayá	5	Chacayá	9	Septiembre	2023-10-09T00:00:00	2024-11-06T10:00:00	1	Precipitación	0
118544	7	Sololá	702	San José Chacayá	5	Chacayá	9	Septiembre	2023-10-09T00:00:00	2024-11-06T10:00:00	8	Radiación solar	431
118545	7	Sololá	702	San José Chacayá	5	Chacayá	9	Septiembre	2023-10-09T00:00:00	2024-11-06T11:00:00	2	Temperatura media	22
118546	7	Sololá	702	San José Chacayá	5	Chacayá	9	Septiembre	2023-10-09T00:00:00	2024-11-06T11:00:00	4	Temperatura máxima	22
118547	7	Sololá	702	San José Chacayá	5	Chacayá	9	Septiembre	2023-10-09T00:00:00	2024-11-06T11:00:00	3	Temperatura mínima	20.1
118548	7	Sololá	702	San José Chacayá	5	Chacayá	9	Septiembre	2023-10-09T00:00:00	2024-11-06T11:00:00	5	Humedad	64
118549	7	Sololá	702	San José Chacayá	5	Chacayá	9	Septiembre	2023-10-09T00:00:00	2024-11-06T11:00:00	6	Velocidad del viento	4.8
118550	7	Sololá	702	San José Chacayá	5	Chacayá	9	Septiembre	2023-10-09T00:00:00	2024-11-06T11:00:00	7	Dirección del viento	2.41
118551	7	Sololá	702	San José Chacayá	5	Chacayá	9	Septiembre	2023-10-09T00:00:00	2024-11-06T11:00:00	1	Precipitación	0
118552	7	Sololá	702	San José Chacayá	5	Chacayá	9	Septiembre	2023-10-09T00:00:00	2024-11-06T11:00:00	8	Radiación solar	1029
118553	7	Sololá	702	San José Chacayá	5	Chacayá	9	Septiembre	2023-10-09T00:00:00	2024-11-06T12:00:00	2	Temperatura media	22.3
118554	7	Sololá	702	San José Chacayá	5	Chacayá	9	Septiembre	2023-10-09T00:00:00	2024-11-06T12:00:00	4	Temperatura máxima	22.4
118555	7	Sololá	702	San José Chacayá	5	Chacayá	9	Septiembre	2023-10-09T00:00:00	2024-11-06T12:00:00	3	Temperatura mínima	21.9
118556	7	Sololá	702	San José Chacayá	5	Chacayá	9	Septiembre	2023-10-09T00:00:00	2024-11-06T12:00:00	5	Humedad	66
118557	7	Sololá	702	San José Chacayá	5	Chacayá	9	Septiembre	2023-10-09T00:00:00	2024-11-06T12:00:00	6	Velocidad del viento	6.4
118558	7	Sololá	702	San José Chacayá	5	Chacayá	9	Septiembre	2023-10-09T00:00:00	2024-11-06T12:00:00	7	Dirección del viento	3.22
118559	7	Sololá	702	San José Chacayá	5	Chacayá	9	Septiembre	2023-10-09T00:00:00	2024-11-06T12:00:00	1	Precipitación	0
118560	7	Sololá	702	San José Chacayá	5	Chacayá	9	Septiembre	2023-10-09T00:00:00	2024-11-06T12:00:00	8	Radiación solar	1082
118561	7	Sololá	702	San José Chacayá	5	Chacayá	9	Septiembre	2023-10-09T00:00:00	2024-11-06T13:00:00	2	Temperatura media	21.2
118562	7	Sololá	702	San José Chacayá	5	Chacayá	9	Septiembre	2023-10-09T00:00:00	2024-11-06T13:00:00	4	Temperatura máxima	22.6
118563	7	Sololá	702	San José Chacayá	5	Chacayá	9	Septiembre	2023-10-09T00:00:00	2024-11-06T13:00:00	3	Temperatura mínima	21.2
118564	7	Sololá	702	San José Chacayá	5	Chacayá	9	Septiembre	2023-10-09T00:00:00	2024-11-06T13:00:00	5	Humedad	72
118565	7	Sololá	702	San José Chacayá	5	Chacayá	9	Septiembre	2023-10-09T00:00:00	2024-11-06T13:00:00	6	Velocidad del viento	6.4
118566	7	Sololá	702	San José Chacayá	5	Chacayá	9	Septiembre	2023-10-09T00:00:00	2024-11-06T13:00:00	7	Dirección del viento	3.22
118567	7	Sololá	702	San José Chacayá	5	Chacayá	9	Septiembre	2023-10-09T00:00:00	2024-11-06T13:00:00	1	Precipitación	0
118568	7	Sololá	702	San José Chacayá	5	Chacayá	9	Septiembre	2023-10-09T00:00:00	2024-11-06T13:00:00	8	Radiación solar	670
118569	7	Sololá	702	San José Chacayá	5	Chacayá	9	Septiembre	2023-10-09T00:00:00	2024-11-06T14:00:00	2	Temperatura media	22.1
118570	7	Sololá	702	San José Chacayá	5	Chacayá	9	Septiembre	2023-10-09T00:00:00	2024-11-06T14:00:00	4	Temperatura máxima	22.1
118571	7	Sololá	702	San José Chacayá	5	Chacayá	9	Septiembre	2023-10-09T00:00:00	2024-11-06T14:00:00	3	Temperatura mínima	20.9
118572	7	Sololá	702	San José Chacayá	5	Chacayá	9	Septiembre	2023-10-09T00:00:00	2024-11-06T14:00:00	5	Humedad	72
118573	7	Sololá	702	San José Chacayá	5	Chacayá	9	Septiembre	2023-10-09T00:00:00	2024-11-06T14:00:00	6	Velocidad del viento	4.8
118574	7	Sololá	702	San José Chacayá	5	Chacayá	9	Septiembre	2023-10-09T00:00:00	2024-11-06T14:00:00	7	Dirección del viento	2.41
118575	7	Sololá	702	San José Chacayá	5	Chacayá	9	Septiembre	2023-10-09T00:00:00	2024-11-06T14:00:00	1	Precipitación	0
118576	7	Sololá	702	San José Chacayá	5	Chacayá	9	Septiembre	2023-10-09T00:00:00	2024-11-06T14:00:00	8	Radiación solar	907
118577	7	Sololá	702	San José Chacayá	5	Chacayá	9	Septiembre	2023-10-09T00:00:00	2024-11-06T15:00:00	2	Temperatura media	21.1
118578	7	Sololá	702	San José Chacayá	5	Chacayá	9	Septiembre	2023-10-09T00:00:00	2024-11-06T15:00:00	4	Temperatura máxima	21.6
118579	7	Sololá	702	San José Chacayá	5	Chacayá	9	Septiembre	2023-10-09T00:00:00	2024-11-06T15:00:00	3	Temperatura mínima	21.1
118580	7	Sololá	702	San José Chacayá	5	Chacayá	9	Septiembre	2023-10-09T00:00:00	2024-11-06T15:00:00	5	Humedad	76
118581	7	Sololá	702	San José Chacayá	5	Chacayá	9	Septiembre	2023-10-09T00:00:00	2024-11-06T15:00:00	6	Velocidad del viento	3.2
118582	7	Sololá	702	San José Chacayá	5	Chacayá	9	Septiembre	2023-10-09T00:00:00	2024-11-06T15:00:00	7	Dirección del viento	1.61
118583	7	Sololá	702	San José Chacayá	5	Chacayá	9	Septiembre	2023-10-09T00:00:00	2024-11-06T15:00:00	1	Precipitación	0
118584	7	Sololá	702	San José Chacayá	5	Chacayá	9	Septiembre	2023-10-09T00:00:00	2024-11-06T15:00:00	8	Radiación solar	490
118585	7	Sololá	702	San José Chacayá	5	Chacayá	9	Septiembre	2023-10-09T00:00:00	2024-11-06T16:00:00	2	Temperatura media	20.1
118586	7	Sololá	702	San José Chacayá	5	Chacayá	9	Septiembre	2023-10-09T00:00:00	2024-11-06T16:00:00	4	Temperatura máxima	20.7
118587	7	Sololá	702	San José Chacayá	5	Chacayá	9	Septiembre	2023-10-09T00:00:00	2024-11-06T16:00:00	3	Temperatura mínima	19.6
118588	7	Sololá	702	San José Chacayá	5	Chacayá	9	Septiembre	2023-10-09T00:00:00	2024-11-06T16:00:00	5	Humedad	79
118589	7	Sololá	702	San José Chacayá	5	Chacayá	9	Septiembre	2023-10-09T00:00:00	2024-11-06T16:00:00	6	Velocidad del viento	3.2
118590	7	Sololá	702	San José Chacayá	5	Chacayá	9	Septiembre	2023-10-09T00:00:00	2024-11-06T16:00:00	7	Dirección del viento	1.61
118591	7	Sololá	702	San José Chacayá	5	Chacayá	9	Septiembre	2023-10-09T00:00:00	2024-11-06T16:00:00	1	Precipitación	0
118592	7	Sololá	702	San José Chacayá	5	Chacayá	9	Septiembre	2023-10-09T00:00:00	2024-11-06T16:00:00	8	Radiación solar	249
118593	7	Sololá	702	San José Chacayá	5	Chacayá	9	Septiembre	2023-10-09T00:00:00	2024-11-06T17:00:00	2	Temperatura media	18
118594	7	Sololá	702	San José Chacayá	5	Chacayá	9	Septiembre	2023-10-09T00:00:00	2024-11-06T17:00:00	4	Temperatura máxima	18.4
118595	7	Sololá	702	San José Chacayá	5	Chacayá	9	Septiembre	2023-10-09T00:00:00	2024-11-06T17:00:00	3	Temperatura mínima	18
118596	7	Sololá	702	San José Chacayá	5	Chacayá	9	Septiembre	2023-10-09T00:00:00	2024-11-06T17:00:00	5	Humedad	80
118597	7	Sololá	702	San José Chacayá	5	Chacayá	9	Septiembre	2023-10-09T00:00:00	2024-11-06T17:00:00	6	Velocidad del viento	1.6
118598	7	Sololá	702	San José Chacayá	5	Chacayá	9	Septiembre	2023-10-09T00:00:00	2024-11-06T17:00:00	7	Dirección del viento	0.8
118599	7	Sololá	702	San José Chacayá	5	Chacayá	9	Septiembre	2023-10-09T00:00:00	2024-11-06T17:00:00	1	Precipitación	0
118600	7	Sololá	702	San José Chacayá	5	Chacayá	9	Septiembre	2023-10-09T00:00:00	2024-11-06T17:00:00	8	Radiación solar	75
118601	7	Sololá	702	San José Chacayá	5	Chacayá	9	Septiembre	2023-10-09T00:00:00	2024-11-06T18:00:00	2	Temperatura media	16.9
118602	7	Sololá	702	San José Chacayá	5	Chacayá	9	Septiembre	2023-10-09T00:00:00	2024-11-06T18:00:00	4	Temperatura máxima	17.6
118603	7	Sololá	702	San José Chacayá	5	Chacayá	9	Septiembre	2023-10-09T00:00:00	2024-11-06T18:00:00	3	Temperatura mínima	16.9
118604	7	Sololá	702	San José Chacayá	5	Chacayá	9	Septiembre	2023-10-09T00:00:00	2024-11-06T18:00:00	5	Humedad	76
118605	7	Sololá	702	San José Chacayá	5	Chacayá	9	Septiembre	2023-10-09T00:00:00	2024-11-06T18:00:00	6	Velocidad del viento	1.6
118606	7	Sololá	702	San José Chacayá	5	Chacayá	9	Septiembre	2023-10-09T00:00:00	2024-11-06T18:00:00	7	Dirección del viento	0.8
118607	7	Sololá	702	San José Chacayá	5	Chacayá	9	Septiembre	2023-10-09T00:00:00	2024-11-06T18:00:00	1	Precipitación	0
118608	7	Sololá	702	San José Chacayá	5	Chacayá	9	Septiembre	2023-10-09T00:00:00	2024-11-06T18:00:00	8	Radiación solar	14
118609	7	Sololá	702	San José Chacayá	5	Chacayá	9	Septiembre	2023-10-09T00:00:00	2024-11-06T19:00:00	2	Temperatura media	16.1
118610	7	Sololá	702	San José Chacayá	5	Chacayá	9	Septiembre	2023-10-09T00:00:00	2024-11-06T19:00:00	4	Temperatura máxima	16.4
118611	7	Sololá	702	San José Chacayá	5	Chacayá	9	Septiembre	2023-10-09T00:00:00	2024-11-06T19:00:00	3	Temperatura mínima	16.1
118612	7	Sololá	702	San José Chacayá	5	Chacayá	9	Septiembre	2023-10-09T00:00:00	2024-11-06T19:00:00	5	Humedad	61
118613	7	Sololá	702	San José Chacayá	5	Chacayá	9	Septiembre	2023-10-09T00:00:00	2024-11-06T19:00:00	6	Velocidad del viento	0
118614	7	Sololá	702	San José Chacayá	5	Chacayá	9	Septiembre	2023-10-09T00:00:00	2024-11-06T19:00:00	7	Dirección del viento	0
118615	7	Sololá	702	San José Chacayá	5	Chacayá	9	Septiembre	2023-10-09T00:00:00	2024-11-06T19:00:00	1	Precipitación	1.78
118616	7	Sololá	702	San José Chacayá	5	Chacayá	9	Septiembre	2023-10-09T00:00:00	2024-11-06T19:00:00	8	Radiación solar	0
118617	7	Sololá	702	San José Chacayá	5	Chacayá	9	Septiembre	2023-10-09T00:00:00	2024-11-06T20:00:00	2	Temperatura media	15
118618	7	Sololá	702	San José Chacayá	5	Chacayá	9	Septiembre	2023-10-09T00:00:00	2024-11-06T20:00:00	4	Temperatura máxima	15.3
118619	7	Sololá	702	San José Chacayá	5	Chacayá	9	Septiembre	2023-10-09T00:00:00	2024-11-06T20:00:00	3	Temperatura mínima	15
118620	7	Sololá	702	San José Chacayá	5	Chacayá	9	Septiembre	2023-10-09T00:00:00	2024-11-06T20:00:00	5	Humedad	60
118621	7	Sololá	702	San José Chacayá	5	Chacayá	9	Septiembre	2023-10-09T00:00:00	2024-11-06T20:00:00	6	Velocidad del viento	0
118622	7	Sololá	702	San José Chacayá	5	Chacayá	9	Septiembre	2023-10-09T00:00:00	2024-11-06T20:00:00	7	Dirección del viento	0
118623	7	Sololá	702	San José Chacayá	5	Chacayá	9	Septiembre	2023-10-09T00:00:00	2024-11-06T20:00:00	1	Precipitación	7.87
118624	7	Sololá	702	San José Chacayá	5	Chacayá	9	Septiembre	2023-10-09T00:00:00	2024-11-06T20:00:00	8	Radiación solar	0
118625	7	Sololá	702	San José Chacayá	5	Chacayá	9	Septiembre	2023-10-09T00:00:00	2024-11-06T21:00:00	2	Temperatura media	14.8
118626	7	Sololá	702	San José Chacayá	5	Chacayá	9	Septiembre	2023-10-09T00:00:00	2024-11-06T21:00:00	4	Temperatura máxima	14.9
118627	7	Sololá	702	San José Chacayá	5	Chacayá	9	Septiembre	2023-10-09T00:00:00	2024-11-06T21:00:00	3	Temperatura mínima	14.8
118628	7	Sololá	702	San José Chacayá	5	Chacayá	9	Septiembre	2023-10-09T00:00:00	2024-11-06T21:00:00	5	Humedad	47
118629	7	Sololá	702	San José Chacayá	5	Chacayá	9	Septiembre	2023-10-09T00:00:00	2024-11-06T21:00:00	6	Velocidad del viento	0
118630	7	Sololá	702	San José Chacayá	5	Chacayá	9	Septiembre	2023-10-09T00:00:00	2024-11-06T21:00:00	7	Dirección del viento	0
118631	7	Sololá	702	San José Chacayá	5	Chacayá	9	Septiembre	2023-10-09T00:00:00	2024-11-06T21:00:00	1	Precipitación	1.78
118632	7	Sololá	702	San José Chacayá	5	Chacayá	9	Septiembre	2023-10-09T00:00:00	2024-11-06T21:00:00	8	Radiación solar	0
118633	7	Sololá	702	San José Chacayá	5	Chacayá	9	Septiembre	2023-10-09T00:00:00	2024-11-06T22:00:00	2	Temperatura media	14.6
118634	7	Sololá	702	San José Chacayá	5	Chacayá	9	Septiembre	2023-10-09T00:00:00	2024-11-06T22:00:00	4	Temperatura máxima	14.7
118635	7	Sololá	702	San José Chacayá	5	Chacayá	9	Septiembre	2023-10-09T00:00:00	2024-11-06T22:00:00	3	Temperatura mínima	14.5
118636	7	Sololá	702	San José Chacayá	5	Chacayá	9	Septiembre	2023-10-09T00:00:00	2024-11-06T22:00:00	5	Humedad	62
118637	7	Sololá	702	San José Chacayá	5	Chacayá	9	Septiembre	2023-10-09T00:00:00	2024-11-06T22:00:00	6	Velocidad del viento	0
118638	7	Sololá	702	San José Chacayá	5	Chacayá	9	Septiembre	2023-10-09T00:00:00	2024-11-06T22:00:00	7	Dirección del viento	0
118639	7	Sololá	702	San José Chacayá	5	Chacayá	9	Septiembre	2023-10-09T00:00:00	2024-11-06T22:00:00	1	Precipitación	0
118640	7	Sololá	702	San José Chacayá	5	Chacayá	9	Septiembre	2023-10-09T00:00:00	2024-11-06T22:00:00	8	Radiación solar	0
118641	7	Sololá	702	San José Chacayá	5	Chacayá	9	Septiembre	2023-10-09T00:00:00	2024-11-06T23:00:00	2	Temperatura media	14.3
118642	7	Sololá	702	San José Chacayá	5	Chacayá	9	Septiembre	2023-10-09T00:00:00	2024-11-06T23:00:00	4	Temperatura máxima	14.4
118643	7	Sololá	702	San José Chacayá	5	Chacayá	9	Septiembre	2023-10-09T00:00:00	2024-11-06T23:00:00	3	Temperatura mínima	14.3
118644	7	Sololá	702	San José Chacayá	5	Chacayá	9	Septiembre	2023-10-09T00:00:00	2024-11-06T23:00:00	5	Humedad	45
118645	7	Sololá	702	San José Chacayá	5	Chacayá	9	Septiembre	2023-10-09T00:00:00	2024-11-06T23:00:00	6	Velocidad del viento	0
118646	7	Sololá	702	San José Chacayá	5	Chacayá	9	Septiembre	2023-10-09T00:00:00	2024-11-06T23:00:00	7	Dirección del viento	0
118647	7	Sololá	702	San José Chacayá	5	Chacayá	9	Septiembre	2023-10-09T00:00:00	2024-11-06T23:00:00	1	Precipitación	0
118648	7	Sololá	702	San José Chacayá	5	Chacayá	9	Septiembre	2023-10-09T00:00:00	2024-11-06T23:00:00	8	Radiación solar	0
118649	7	Sololá	702	San José Chacayá	5	Chacayá	9	Septiembre	2023-11-09T00:00:00	2024-11-06T00:00:00	2	Temperatura media	13.7
118650	7	Sololá	702	San José Chacayá	5	Chacayá	9	Septiembre	2023-11-09T00:00:00	2024-11-06T00:00:00	4	Temperatura máxima	14.1
118651	7	Sololá	702	San José Chacayá	5	Chacayá	9	Septiembre	2023-11-09T00:00:00	2024-11-06T00:00:00	3	Temperatura mínima	13.7
118652	7	Sololá	702	San José Chacayá	5	Chacayá	9	Septiembre	2023-11-09T00:00:00	2024-11-06T00:00:00	5	Humedad	44
118653	7	Sololá	702	San José Chacayá	5	Chacayá	9	Septiembre	2023-11-09T00:00:00	2024-11-06T00:00:00	6	Velocidad del viento	0
118654	7	Sololá	702	San José Chacayá	5	Chacayá	9	Septiembre	2023-11-09T00:00:00	2024-11-06T00:00:00	7	Dirección del viento	0
118655	7	Sololá	702	San José Chacayá	5	Chacayá	9	Septiembre	2023-11-09T00:00:00	2024-11-06T00:00:00	1	Precipitación	0
118656	7	Sololá	702	San José Chacayá	5	Chacayá	9	Septiembre	2023-11-09T00:00:00	2024-11-06T00:00:00	8	Radiación solar	0
118657	7	Sololá	702	San José Chacayá	5	Chacayá	9	Septiembre	2023-11-09T00:00:00	2024-11-06T01:00:00	2	Temperatura media	13.1
118658	7	Sololá	702	San José Chacayá	5	Chacayá	9	Septiembre	2023-11-09T00:00:00	2024-11-06T01:00:00	4	Temperatura máxima	13.6
118659	7	Sololá	702	San José Chacayá	5	Chacayá	9	Septiembre	2023-11-09T00:00:00	2024-11-06T01:00:00	3	Temperatura mínima	13.1
118660	7	Sololá	702	San José Chacayá	5	Chacayá	9	Septiembre	2023-11-09T00:00:00	2024-11-06T01:00:00	5	Humedad	45
118661	7	Sololá	702	San José Chacayá	5	Chacayá	9	Septiembre	2023-11-09T00:00:00	2024-11-06T01:00:00	6	Velocidad del viento	0
118662	7	Sololá	702	San José Chacayá	5	Chacayá	9	Septiembre	2023-11-09T00:00:00	2024-11-06T01:00:00	7	Dirección del viento	0
118663	7	Sololá	702	San José Chacayá	5	Chacayá	9	Septiembre	2023-11-09T00:00:00	2024-11-06T01:00:00	1	Precipitación	0
118664	7	Sololá	702	San José Chacayá	5	Chacayá	9	Septiembre	2023-11-09T00:00:00	2024-11-06T01:00:00	8	Radiación solar	0
118665	7	Sololá	702	San José Chacayá	5	Chacayá	9	Septiembre	2023-11-09T00:00:00	2024-11-06T02:00:00	2	Temperatura media	12.7
118666	7	Sololá	702	San José Chacayá	5	Chacayá	9	Septiembre	2023-11-09T00:00:00	2024-11-06T02:00:00	4	Temperatura máxima	13.1
118667	7	Sololá	702	San José Chacayá	5	Chacayá	9	Septiembre	2023-11-09T00:00:00	2024-11-06T02:00:00	3	Temperatura mínima	12.7
118668	7	Sololá	702	San José Chacayá	5	Chacayá	9	Septiembre	2023-11-09T00:00:00	2024-11-06T02:00:00	5	Humedad	46
118669	7	Sololá	702	San José Chacayá	5	Chacayá	9	Septiembre	2023-11-09T00:00:00	2024-11-06T02:00:00	6	Velocidad del viento	0
118670	7	Sololá	702	San José Chacayá	5	Chacayá	9	Septiembre	2023-11-09T00:00:00	2024-11-06T02:00:00	7	Dirección del viento	0
118671	7	Sololá	702	San José Chacayá	5	Chacayá	9	Septiembre	2023-11-09T00:00:00	2024-11-06T02:00:00	1	Precipitación	0
118672	7	Sololá	702	San José Chacayá	5	Chacayá	9	Septiembre	2023-11-09T00:00:00	2024-11-06T02:00:00	8	Radiación solar	0
118673	7	Sololá	702	San José Chacayá	5	Chacayá	9	Septiembre	2023-11-09T00:00:00	2024-11-06T03:00:00	2	Temperatura media	12.5
118674	7	Sololá	702	San José Chacayá	5	Chacayá	9	Septiembre	2023-11-09T00:00:00	2024-11-06T03:00:00	4	Temperatura máxima	12.7
118675	7	Sololá	702	San José Chacayá	5	Chacayá	9	Septiembre	2023-11-09T00:00:00	2024-11-06T03:00:00	3	Temperatura mínima	12.5
118676	7	Sololá	702	San José Chacayá	5	Chacayá	9	Septiembre	2023-11-09T00:00:00	2024-11-06T03:00:00	5	Humedad	46
118677	7	Sololá	702	San José Chacayá	5	Chacayá	9	Septiembre	2023-11-09T00:00:00	2024-11-06T03:00:00	6	Velocidad del viento	1.6
118678	7	Sololá	702	San José Chacayá	5	Chacayá	9	Septiembre	2023-11-09T00:00:00	2024-11-06T03:00:00	7	Dirección del viento	0.8
118679	7	Sololá	702	San José Chacayá	5	Chacayá	9	Septiembre	2023-11-09T00:00:00	2024-11-06T03:00:00	1	Precipitación	0
118680	7	Sololá	702	San José Chacayá	5	Chacayá	9	Septiembre	2023-11-09T00:00:00	2024-11-06T03:00:00	8	Radiación solar	0
118681	7	Sololá	702	San José Chacayá	5	Chacayá	9	Septiembre	2023-11-09T00:00:00	2024-11-06T04:00:00	2	Temperatura media	12.1
118682	7	Sololá	702	San José Chacayá	5	Chacayá	9	Septiembre	2023-11-09T00:00:00	2024-11-06T04:00:00	4	Temperatura máxima	12.2
118683	7	Sololá	702	San José Chacayá	5	Chacayá	9	Septiembre	2023-11-09T00:00:00	2024-11-06T04:00:00	3	Temperatura mínima	12.1
118684	7	Sololá	702	San José Chacayá	5	Chacayá	9	Septiembre	2023-11-09T00:00:00	2024-11-06T04:00:00	5	Humedad	48
118685	7	Sololá	702	San José Chacayá	5	Chacayá	9	Septiembre	2023-11-09T00:00:00	2024-11-06T04:00:00	6	Velocidad del viento	3.2
118686	7	Sololá	702	San José Chacayá	5	Chacayá	9	Septiembre	2023-11-09T00:00:00	2024-11-06T04:00:00	7	Dirección del viento	1.61
118687	7	Sololá	702	San José Chacayá	5	Chacayá	9	Septiembre	2023-11-09T00:00:00	2024-11-06T04:00:00	1	Precipitación	0
118688	7	Sololá	702	San José Chacayá	5	Chacayá	9	Septiembre	2023-11-09T00:00:00	2024-11-06T04:00:00	8	Radiación solar	0
118689	7	Sololá	702	San José Chacayá	5	Chacayá	9	Septiembre	2023-11-09T00:00:00	2024-11-06T05:00:00	2	Temperatura media	11.5
118690	7	Sololá	702	San José Chacayá	5	Chacayá	9	Septiembre	2023-11-09T00:00:00	2024-11-06T05:00:00	4	Temperatura máxima	11.9
118691	7	Sololá	702	San José Chacayá	5	Chacayá	9	Septiembre	2023-11-09T00:00:00	2024-11-06T05:00:00	3	Temperatura mínima	11.5
118692	7	Sololá	702	San José Chacayá	5	Chacayá	9	Septiembre	2023-11-09T00:00:00	2024-11-06T05:00:00	5	Humedad	61
118693	7	Sololá	702	San José Chacayá	5	Chacayá	9	Septiembre	2023-11-09T00:00:00	2024-11-06T05:00:00	6	Velocidad del viento	1.6
118694	7	Sololá	702	San José Chacayá	5	Chacayá	9	Septiembre	2023-11-09T00:00:00	2024-11-06T05:00:00	7	Dirección del viento	0.8
118695	7	Sololá	702	San José Chacayá	5	Chacayá	9	Septiembre	2023-11-09T00:00:00	2024-11-06T05:00:00	1	Precipitación	0
118696	7	Sololá	702	San José Chacayá	5	Chacayá	9	Septiembre	2023-11-09T00:00:00	2024-11-06T05:00:00	8	Radiación solar	0
118697	7	Sololá	702	San José Chacayá	5	Chacayá	9	Septiembre	2023-11-09T00:00:00	2024-11-06T06:00:00	2	Temperatura media	11.2
118698	7	Sololá	702	San José Chacayá	5	Chacayá	9	Septiembre	2023-11-09T00:00:00	2024-11-06T06:00:00	4	Temperatura máxima	11.4
118699	7	Sololá	702	San José Chacayá	5	Chacayá	9	Septiembre	2023-11-09T00:00:00	2024-11-06T06:00:00	3	Temperatura mínima	11.2
118700	7	Sololá	702	San José Chacayá	5	Chacayá	9	Septiembre	2023-11-09T00:00:00	2024-11-06T06:00:00	5	Humedad	59
118701	7	Sololá	702	San José Chacayá	5	Chacayá	9	Septiembre	2023-11-09T00:00:00	2024-11-06T06:00:00	6	Velocidad del viento	3.2
118702	7	Sololá	702	San José Chacayá	5	Chacayá	9	Septiembre	2023-11-09T00:00:00	2024-11-06T06:00:00	7	Dirección del viento	1.61
118703	7	Sololá	702	San José Chacayá	5	Chacayá	9	Septiembre	2023-11-09T00:00:00	2024-11-06T06:00:00	1	Precipitación	0
118704	7	Sololá	702	San José Chacayá	5	Chacayá	9	Septiembre	2023-11-09T00:00:00	2024-11-06T06:00:00	8	Radiación solar	1
118705	7	Sololá	702	San José Chacayá	5	Chacayá	9	Septiembre	2023-11-09T00:00:00	2024-11-06T07:00:00	2	Temperatura media	12.7
118706	7	Sololá	702	San José Chacayá	5	Chacayá	9	Septiembre	2023-11-09T00:00:00	2024-11-06T07:00:00	4	Temperatura máxima	12.7
118707	7	Sololá	702	San José Chacayá	5	Chacayá	9	Septiembre	2023-11-09T00:00:00	2024-11-06T07:00:00	3	Temperatura mínima	11.5
118708	7	Sololá	702	San José Chacayá	5	Chacayá	9	Septiembre	2023-11-09T00:00:00	2024-11-06T07:00:00	5	Humedad	43
118709	7	Sololá	702	San José Chacayá	5	Chacayá	9	Septiembre	2023-11-09T00:00:00	2024-11-06T07:00:00	6	Velocidad del viento	3.2
118710	7	Sololá	702	San José Chacayá	5	Chacayá	9	Septiembre	2023-11-09T00:00:00	2024-11-06T07:00:00	7	Dirección del viento	1.61
118711	7	Sololá	702	San José Chacayá	5	Chacayá	9	Septiembre	2023-11-09T00:00:00	2024-11-06T07:00:00	1	Precipitación	0
118712	7	Sololá	702	San José Chacayá	5	Chacayá	9	Septiembre	2023-11-09T00:00:00	2024-11-06T07:00:00	8	Radiación solar	88
118713	7	Sololá	702	San José Chacayá	5	Chacayá	9	Septiembre	2023-11-09T00:00:00	2024-11-06T08:00:00	2	Temperatura media	15.6
118714	7	Sololá	702	San José Chacayá	5	Chacayá	9	Septiembre	2023-11-09T00:00:00	2024-11-06T08:00:00	4	Temperatura máxima	15.6
118715	7	Sololá	702	San José Chacayá	5	Chacayá	9	Septiembre	2023-11-09T00:00:00	2024-11-06T08:00:00	3	Temperatura mínima	14.2
118716	7	Sololá	702	San José Chacayá	5	Chacayá	9	Septiembre	2023-11-09T00:00:00	2024-11-06T08:00:00	5	Humedad	81
118717	7	Sololá	702	San José Chacayá	5	Chacayá	9	Septiembre	2023-11-09T00:00:00	2024-11-06T08:00:00	6	Velocidad del viento	1.6
118718	7	Sololá	702	San José Chacayá	5	Chacayá	9	Septiembre	2023-11-09T00:00:00	2024-11-06T08:00:00	7	Dirección del viento	0.8
118719	7	Sololá	702	San José Chacayá	5	Chacayá	9	Septiembre	2023-11-09T00:00:00	2024-11-06T08:00:00	1	Precipitación	0
118720	7	Sololá	702	San José Chacayá	5	Chacayá	9	Septiembre	2023-11-09T00:00:00	2024-11-06T08:00:00	8	Radiación solar	188
118721	7	Sololá	702	San José Chacayá	5	Chacayá	9	Septiembre	2023-11-09T00:00:00	2024-11-06T09:00:00	2	Temperatura media	19.3
118722	7	Sololá	702	San José Chacayá	5	Chacayá	9	Septiembre	2023-11-09T00:00:00	2024-11-06T09:00:00	4	Temperatura máxima	19.3
118723	7	Sololá	702	San José Chacayá	5	Chacayá	9	Septiembre	2023-11-09T00:00:00	2024-11-06T09:00:00	3	Temperatura mínima	16.8
118724	7	Sololá	702	San José Chacayá	5	Chacayá	9	Septiembre	2023-11-09T00:00:00	2024-11-06T09:00:00	5	Humedad	70
118725	7	Sololá	702	San José Chacayá	5	Chacayá	9	Septiembre	2023-11-09T00:00:00	2024-11-06T09:00:00	6	Velocidad del viento	3.2
118726	7	Sololá	702	San José Chacayá	5	Chacayá	9	Septiembre	2023-11-09T00:00:00	2024-11-06T09:00:00	7	Dirección del viento	1.61
118727	7	Sololá	702	San José Chacayá	5	Chacayá	9	Septiembre	2023-11-09T00:00:00	2024-11-06T09:00:00	1	Precipitación	0.25
118728	7	Sololá	702	San José Chacayá	5	Chacayá	9	Septiembre	2023-11-09T00:00:00	2024-11-06T09:00:00	8	Radiación solar	567
118729	7	Sololá	702	San José Chacayá	5	Chacayá	9	Septiembre	2023-11-09T00:00:00	2024-11-06T10:00:00	2	Temperatura media	20.9
118730	7	Sololá	702	San José Chacayá	5	Chacayá	9	Septiembre	2023-11-09T00:00:00	2024-11-06T10:00:00	4	Temperatura máxima	21.1
118731	7	Sololá	702	San José Chacayá	5	Chacayá	9	Septiembre	2023-11-09T00:00:00	2024-11-06T10:00:00	3	Temperatura mínima	20.1
118732	7	Sololá	702	San José Chacayá	5	Chacayá	9	Septiembre	2023-11-09T00:00:00	2024-11-06T10:00:00	5	Humedad	62
118733	7	Sololá	702	San José Chacayá	5	Chacayá	9	Septiembre	2023-11-09T00:00:00	2024-11-06T10:00:00	6	Velocidad del viento	4.8
118734	7	Sololá	702	San José Chacayá	5	Chacayá	9	Septiembre	2023-11-09T00:00:00	2024-11-06T10:00:00	7	Dirección del viento	2.41
118735	7	Sololá	702	San José Chacayá	5	Chacayá	9	Septiembre	2023-11-09T00:00:00	2024-11-06T10:00:00	1	Precipitación	0
118736	7	Sololá	702	San José Chacayá	5	Chacayá	9	Septiembre	2023-11-09T00:00:00	2024-11-06T10:00:00	8	Radiación solar	643
118737	7	Sololá	702	San José Chacayá	5	Chacayá	9	Septiembre	2023-11-09T00:00:00	2024-11-06T11:00:00	2	Temperatura media	21.6
118738	7	Sololá	702	San José Chacayá	5	Chacayá	9	Septiembre	2023-11-09T00:00:00	2024-11-06T11:00:00	4	Temperatura máxima	22.3
118739	7	Sololá	702	San José Chacayá	5	Chacayá	9	Septiembre	2023-11-09T00:00:00	2024-11-06T11:00:00	3	Temperatura mínima	21.5
118740	7	Sololá	702	San José Chacayá	5	Chacayá	9	Septiembre	2023-11-09T00:00:00	2024-11-06T11:00:00	5	Humedad	59
118741	7	Sololá	702	San José Chacayá	5	Chacayá	9	Septiembre	2023-11-09T00:00:00	2024-11-06T11:00:00	6	Velocidad del viento	4.8
118742	7	Sololá	702	San José Chacayá	5	Chacayá	9	Septiembre	2023-11-09T00:00:00	2024-11-06T11:00:00	7	Dirección del viento	2.41
118743	7	Sololá	702	San José Chacayá	5	Chacayá	9	Septiembre	2023-11-09T00:00:00	2024-11-06T11:00:00	1	Precipitación	0
118744	7	Sololá	702	San José Chacayá	5	Chacayá	9	Septiembre	2023-11-09T00:00:00	2024-11-06T11:00:00	8	Radiación solar	825
118745	7	Sololá	702	San José Chacayá	5	Chacayá	9	Septiembre	2023-11-09T00:00:00	2024-11-06T12:00:00	2	Temperatura media	22.4
118746	7	Sololá	702	San José Chacayá	5	Chacayá	9	Septiembre	2023-11-09T00:00:00	2024-11-06T12:00:00	4	Temperatura máxima	22.9
118747	7	Sololá	702	San José Chacayá	5	Chacayá	9	Septiembre	2023-11-09T00:00:00	2024-11-06T12:00:00	3	Temperatura mínima	21.7
118748	7	Sololá	702	San José Chacayá	5	Chacayá	9	Septiembre	2023-11-09T00:00:00	2024-11-06T12:00:00	5	Humedad	58
118749	7	Sololá	702	San José Chacayá	5	Chacayá	9	Septiembre	2023-11-09T00:00:00	2024-11-06T12:00:00	6	Velocidad del viento	6.4
118750	7	Sololá	702	San José Chacayá	5	Chacayá	9	Septiembre	2023-11-09T00:00:00	2024-11-06T12:00:00	7	Dirección del viento	3.22
118751	7	Sololá	702	San José Chacayá	5	Chacayá	9	Septiembre	2023-11-09T00:00:00	2024-11-06T12:00:00	1	Precipitación	0
118752	7	Sololá	702	San José Chacayá	5	Chacayá	9	Septiembre	2023-11-09T00:00:00	2024-11-06T12:00:00	8	Radiación solar	985
118753	7	Sololá	702	San José Chacayá	5	Chacayá	9	Septiembre	2023-11-09T00:00:00	2024-11-06T13:00:00	2	Temperatura media	22.5
118754	7	Sololá	702	San José Chacayá	5	Chacayá	9	Septiembre	2023-11-09T00:00:00	2024-11-06T13:00:00	4	Temperatura máxima	22.5
118755	7	Sololá	702	San José Chacayá	5	Chacayá	9	Septiembre	2023-11-09T00:00:00	2024-11-06T13:00:00	3	Temperatura mínima	20.4
118756	7	Sololá	702	San José Chacayá	5	Chacayá	9	Septiembre	2023-11-09T00:00:00	2024-11-06T13:00:00	5	Humedad	64
118757	7	Sololá	702	San José Chacayá	5	Chacayá	9	Septiembre	2023-11-09T00:00:00	2024-11-06T13:00:00	6	Velocidad del viento	6.4
118758	7	Sololá	702	San José Chacayá	5	Chacayá	9	Septiembre	2023-11-09T00:00:00	2024-11-06T13:00:00	7	Dirección del viento	3.22
118759	7	Sololá	702	San José Chacayá	5	Chacayá	9	Septiembre	2023-11-09T00:00:00	2024-11-06T13:00:00	1	Precipitación	0
118760	7	Sololá	702	San José Chacayá	5	Chacayá	9	Septiembre	2023-11-09T00:00:00	2024-11-06T13:00:00	8	Radiación solar	933
118761	7	Sololá	702	San José Chacayá	5	Chacayá	9	Septiembre	2023-11-09T00:00:00	2024-11-06T14:00:00	2	Temperatura media	22.9
118762	7	Sololá	702	San José Chacayá	5	Chacayá	9	Septiembre	2023-11-09T00:00:00	2024-11-06T14:00:00	4	Temperatura máxima	22.9
118763	7	Sololá	702	San José Chacayá	5	Chacayá	9	Septiembre	2023-11-09T00:00:00	2024-11-06T14:00:00	3	Temperatura mínima	21.9
118764	7	Sololá	702	San José Chacayá	5	Chacayá	9	Septiembre	2023-11-09T00:00:00	2024-11-06T14:00:00	5	Humedad	65
118765	7	Sololá	702	San José Chacayá	5	Chacayá	9	Septiembre	2023-11-09T00:00:00	2024-11-06T14:00:00	6	Velocidad del viento	4.8
118766	7	Sololá	702	San José Chacayá	5	Chacayá	9	Septiembre	2023-11-09T00:00:00	2024-11-06T14:00:00	7	Dirección del viento	2.41
118767	7	Sololá	702	San José Chacayá	5	Chacayá	9	Septiembre	2023-11-09T00:00:00	2024-11-06T14:00:00	1	Precipitación	0
118768	7	Sololá	702	San José Chacayá	5	Chacayá	9	Septiembre	2023-11-09T00:00:00	2024-11-06T14:00:00	8	Radiación solar	879
118769	7	Sololá	702	San José Chacayá	5	Chacayá	9	Septiembre	2023-11-09T00:00:00	2024-11-06T15:00:00	2	Temperatura media	21.3
118770	7	Sololá	702	San José Chacayá	5	Chacayá	9	Septiembre	2023-11-09T00:00:00	2024-11-06T15:00:00	4	Temperatura máxima	22
118771	7	Sololá	702	San José Chacayá	5	Chacayá	9	Septiembre	2023-11-09T00:00:00	2024-11-06T15:00:00	3	Temperatura mínima	21.3
118772	7	Sololá	702	San José Chacayá	5	Chacayá	9	Septiembre	2023-11-09T00:00:00	2024-11-06T15:00:00	5	Humedad	74
118773	7	Sololá	702	San José Chacayá	5	Chacayá	9	Septiembre	2023-11-09T00:00:00	2024-11-06T15:00:00	6	Velocidad del viento	8
118774	7	Sololá	702	San José Chacayá	5	Chacayá	9	Septiembre	2023-11-09T00:00:00	2024-11-06T15:00:00	7	Dirección del viento	4.02
118775	7	Sololá	702	San José Chacayá	5	Chacayá	9	Septiembre	2023-11-09T00:00:00	2024-11-06T15:00:00	1	Precipitación	0
118776	7	Sololá	702	San José Chacayá	5	Chacayá	9	Septiembre	2023-11-09T00:00:00	2024-11-06T15:00:00	8	Radiación solar	880
118777	7	Sololá	702	San José Chacayá	5	Chacayá	9	Septiembre	2023-11-09T00:00:00	2024-11-06T16:00:00	2	Temperatura media	17.3
118778	7	Sololá	702	San José Chacayá	5	Chacayá	9	Septiembre	2023-11-09T00:00:00	2024-11-06T16:00:00	4	Temperatura máxima	19.7
118779	7	Sololá	702	San José Chacayá	5	Chacayá	9	Septiembre	2023-11-09T00:00:00	2024-11-06T16:00:00	3	Temperatura mínima	17.3
118780	7	Sololá	702	San José Chacayá	5	Chacayá	9	Septiembre	2023-11-09T00:00:00	2024-11-06T16:00:00	5	Humedad	79
118781	7	Sololá	702	San José Chacayá	5	Chacayá	9	Septiembre	2023-11-09T00:00:00	2024-11-06T16:00:00	6	Velocidad del viento	3.2
118782	7	Sololá	702	San José Chacayá	5	Chacayá	9	Septiembre	2023-11-09T00:00:00	2024-11-06T16:00:00	7	Dirección del viento	1.61
118783	7	Sololá	702	San José Chacayá	5	Chacayá	9	Septiembre	2023-11-09T00:00:00	2024-11-06T16:00:00	1	Precipitación	6.1
118784	7	Sololá	702	San José Chacayá	5	Chacayá	9	Septiembre	2023-11-09T00:00:00	2024-11-06T16:00:00	8	Radiación solar	119
118785	7	Sololá	702	San José Chacayá	5	Chacayá	9	Septiembre	2023-11-09T00:00:00	2024-11-06T17:00:00	2	Temperatura media	16.8
118786	7	Sololá	702	San José Chacayá	5	Chacayá	9	Septiembre	2023-11-09T00:00:00	2024-11-06T17:00:00	4	Temperatura máxima	16.8
118787	7	Sololá	702	San José Chacayá	5	Chacayá	9	Septiembre	2023-11-09T00:00:00	2024-11-06T17:00:00	3	Temperatura mínima	16.7
118788	7	Sololá	702	San José Chacayá	5	Chacayá	9	Septiembre	2023-11-09T00:00:00	2024-11-06T17:00:00	5	Humedad	56
118789	7	Sololá	702	San José Chacayá	5	Chacayá	9	Septiembre	2023-11-09T00:00:00	2024-11-06T17:00:00	6	Velocidad del viento	0
118790	7	Sololá	702	San José Chacayá	5	Chacayá	9	Septiembre	2023-11-09T00:00:00	2024-11-06T17:00:00	7	Dirección del viento	0
118791	7	Sololá	702	San José Chacayá	5	Chacayá	9	Septiembre	2023-11-09T00:00:00	2024-11-06T17:00:00	1	Precipitación	3.05
118792	7	Sololá	702	San José Chacayá	5	Chacayá	9	Septiembre	2023-11-09T00:00:00	2024-11-06T17:00:00	8	Radiación solar	27
118793	7	Sololá	702	San José Chacayá	5	Chacayá	9	Septiembre	2023-11-09T00:00:00	2024-11-06T18:00:00	2	Temperatura media	16.4
118794	7	Sololá	702	San José Chacayá	5	Chacayá	9	Septiembre	2023-11-09T00:00:00	2024-11-06T18:00:00	4	Temperatura máxima	16.7
118795	7	Sololá	702	San José Chacayá	5	Chacayá	9	Septiembre	2023-11-09T00:00:00	2024-11-06T18:00:00	3	Temperatura mínima	16.4
118796	7	Sololá	702	San José Chacayá	5	Chacayá	9	Septiembre	2023-11-09T00:00:00	2024-11-06T18:00:00	5	Humedad	45
118797	7	Sololá	702	San José Chacayá	5	Chacayá	9	Septiembre	2023-11-09T00:00:00	2024-11-06T18:00:00	6	Velocidad del viento	0
118798	7	Sololá	702	San José Chacayá	5	Chacayá	9	Septiembre	2023-11-09T00:00:00	2024-11-06T18:00:00	7	Dirección del viento	0
118799	7	Sololá	702	San José Chacayá	5	Chacayá	9	Septiembre	2023-11-09T00:00:00	2024-11-06T18:00:00	1	Precipitación	1.78
118800	7	Sololá	702	San José Chacayá	5	Chacayá	9	Septiembre	2023-11-09T00:00:00	2024-11-06T18:00:00	8	Radiación solar	3
118801	7	Sololá	702	San José Chacayá	5	Chacayá	9	Septiembre	2023-11-09T00:00:00	2024-11-06T19:00:00	2	Temperatura media	14.4
118802	7	Sololá	702	San José Chacayá	5	Chacayá	9	Septiembre	2023-11-09T00:00:00	2024-11-06T19:00:00	4	Temperatura máxima	14.7
118803	7	Sololá	702	San José Chacayá	5	Chacayá	9	Septiembre	2023-11-09T00:00:00	2024-11-06T19:00:00	3	Temperatura mínima	14.4
118804	7	Sololá	702	San José Chacayá	5	Chacayá	9	Septiembre	2023-11-09T00:00:00	2024-11-06T19:00:00	5	Humedad	61
118805	7	Sololá	702	San José Chacayá	5	Chacayá	9	Septiembre	2023-11-09T00:00:00	2024-11-06T19:00:00	6	Velocidad del viento	0
118806	7	Sololá	702	San José Chacayá	5	Chacayá	9	Septiembre	2023-11-09T00:00:00	2024-11-06T19:00:00	7	Dirección del viento	0
118807	7	Sololá	702	San José Chacayá	5	Chacayá	9	Septiembre	2023-11-09T00:00:00	2024-11-06T19:00:00	1	Precipitación	2.03
118808	7	Sololá	702	San José Chacayá	5	Chacayá	9	Septiembre	2023-11-09T00:00:00	2024-11-06T19:00:00	8	Radiación solar	0
118809	7	Sololá	702	San José Chacayá	5	Chacayá	9	Septiembre	2023-11-09T00:00:00	2024-11-06T20:00:00	2	Temperatura media	14.8
118810	7	Sololá	702	San José Chacayá	5	Chacayá	9	Septiembre	2023-11-09T00:00:00	2024-11-06T20:00:00	4	Temperatura máxima	14.8
118811	7	Sololá	702	San José Chacayá	5	Chacayá	9	Septiembre	2023-11-09T00:00:00	2024-11-06T20:00:00	3	Temperatura mínima	14.6
118812	7	Sololá	702	San José Chacayá	5	Chacayá	9	Septiembre	2023-11-09T00:00:00	2024-11-06T20:00:00	5	Humedad	60
118813	7	Sololá	702	San José Chacayá	5	Chacayá	9	Septiembre	2023-11-09T00:00:00	2024-11-06T20:00:00	6	Velocidad del viento	0
118814	7	Sololá	702	San José Chacayá	5	Chacayá	9	Septiembre	2023-11-09T00:00:00	2024-11-06T20:00:00	7	Dirección del viento	0
118815	7	Sololá	702	San José Chacayá	5	Chacayá	9	Septiembre	2023-11-09T00:00:00	2024-11-06T20:00:00	1	Precipitación	3.56
118816	7	Sololá	702	San José Chacayá	5	Chacayá	9	Septiembre	2023-11-09T00:00:00	2024-11-06T20:00:00	8	Radiación solar	0
118817	7	Sololá	702	San José Chacayá	5	Chacayá	9	Septiembre	2023-11-09T00:00:00	2024-11-06T21:00:00	2	Temperatura media	14.8
118818	7	Sololá	702	San José Chacayá	5	Chacayá	9	Septiembre	2023-11-09T00:00:00	2024-11-06T21:00:00	4	Temperatura máxima	14.9
118819	7	Sololá	702	San José Chacayá	5	Chacayá	9	Septiembre	2023-11-09T00:00:00	2024-11-06T21:00:00	3	Temperatura mínima	14.8
118820	7	Sololá	702	San José Chacayá	5	Chacayá	9	Septiembre	2023-11-09T00:00:00	2024-11-06T21:00:00	5	Humedad	51
118821	7	Sololá	702	San José Chacayá	5	Chacayá	9	Septiembre	2023-11-09T00:00:00	2024-11-06T21:00:00	6	Velocidad del viento	0
118822	7	Sololá	702	San José Chacayá	5	Chacayá	9	Septiembre	2023-11-09T00:00:00	2024-11-06T21:00:00	7	Dirección del viento	0
118823	7	Sololá	702	San José Chacayá	5	Chacayá	9	Septiembre	2023-11-09T00:00:00	2024-11-06T21:00:00	1	Precipitación	3.3
118824	7	Sololá	702	San José Chacayá	5	Chacayá	9	Septiembre	2023-11-09T00:00:00	2024-11-06T21:00:00	8	Radiación solar	0
118825	7	Sololá	702	San José Chacayá	5	Chacayá	9	Septiembre	2023-11-09T00:00:00	2024-11-06T22:00:00	2	Temperatura media	14.6
118826	7	Sololá	702	San José Chacayá	5	Chacayá	9	Septiembre	2023-11-09T00:00:00	2024-11-06T22:00:00	4	Temperatura máxima	14.7
118827	7	Sololá	702	San José Chacayá	5	Chacayá	9	Septiembre	2023-11-09T00:00:00	2024-11-06T22:00:00	3	Temperatura mínima	14.6
118828	7	Sololá	702	San José Chacayá	5	Chacayá	9	Septiembre	2023-11-09T00:00:00	2024-11-06T22:00:00	5	Humedad	59
118829	7	Sololá	702	San José Chacayá	5	Chacayá	9	Septiembre	2023-11-09T00:00:00	2024-11-06T22:00:00	6	Velocidad del viento	0
118830	7	Sololá	702	San José Chacayá	5	Chacayá	9	Septiembre	2023-11-09T00:00:00	2024-11-06T22:00:00	7	Dirección del viento	0
118831	7	Sololá	702	San José Chacayá	5	Chacayá	9	Septiembre	2023-11-09T00:00:00	2024-11-06T22:00:00	1	Precipitación	1.53
118832	7	Sololá	702	San José Chacayá	5	Chacayá	9	Septiembre	2023-11-09T00:00:00	2024-11-06T22:00:00	8	Radiación solar	0
118833	7	Sololá	702	San José Chacayá	5	Chacayá	9	Septiembre	2023-11-09T00:00:00	2024-11-06T23:00:00	2	Temperatura media	14.4
118834	7	Sololá	702	San José Chacayá	5	Chacayá	9	Septiembre	2023-11-09T00:00:00	2024-11-06T23:00:00	4	Temperatura máxima	14.6
118835	7	Sololá	702	San José Chacayá	5	Chacayá	9	Septiembre	2023-11-09T00:00:00	2024-11-06T23:00:00	3	Temperatura mínima	14.4
118836	7	Sololá	702	San José Chacayá	5	Chacayá	9	Septiembre	2023-11-09T00:00:00	2024-11-06T23:00:00	5	Humedad	49
118837	7	Sololá	702	San José Chacayá	5	Chacayá	9	Septiembre	2023-11-09T00:00:00	2024-11-06T23:00:00	6	Velocidad del viento	0
118838	7	Sololá	702	San José Chacayá	5	Chacayá	9	Septiembre	2023-11-09T00:00:00	2024-11-06T23:00:00	7	Dirección del viento	0
118839	7	Sololá	702	San José Chacayá	5	Chacayá	9	Septiembre	2023-11-09T00:00:00	2024-11-06T23:00:00	1	Precipitación	0
118840	7	Sololá	702	San José Chacayá	5	Chacayá	9	Septiembre	2023-11-09T00:00:00	2024-11-06T23:00:00	8	Radiación solar	0
118841	7	Sololá	702	San José Chacayá	5	Chacayá	9	Septiembre	2023-12-09T00:00:00	2024-11-06T00:00:00	2	Temperatura media	13.8
118842	7	Sololá	702	San José Chacayá	5	Chacayá	9	Septiembre	2023-12-09T00:00:00	2024-11-06T00:00:00	4	Temperatura máxima	14.1
118843	7	Sololá	702	San José Chacayá	5	Chacayá	9	Septiembre	2023-12-09T00:00:00	2024-11-06T00:00:00	3	Temperatura mínima	13.7
118844	7	Sololá	702	San José Chacayá	5	Chacayá	9	Septiembre	2023-12-09T00:00:00	2024-11-06T00:00:00	5	Humedad	43
118845	7	Sololá	702	San José Chacayá	5	Chacayá	9	Septiembre	2023-12-09T00:00:00	2024-11-06T00:00:00	6	Velocidad del viento	0
118846	7	Sololá	702	San José Chacayá	5	Chacayá	9	Septiembre	2023-12-09T00:00:00	2024-11-06T00:00:00	7	Dirección del viento	0
118847	7	Sololá	702	San José Chacayá	5	Chacayá	9	Septiembre	2023-12-09T00:00:00	2024-11-06T00:00:00	1	Precipitación	0
118848	7	Sololá	702	San José Chacayá	5	Chacayá	9	Septiembre	2023-12-09T00:00:00	2024-11-06T00:00:00	8	Radiación solar	0
118849	7	Sololá	702	San José Chacayá	5	Chacayá	9	Septiembre	2023-12-09T00:00:00	2024-11-06T01:00:00	2	Temperatura media	13.4
118850	7	Sololá	702	San José Chacayá	5	Chacayá	9	Septiembre	2023-12-09T00:00:00	2024-11-06T01:00:00	4	Temperatura máxima	13.5
118851	7	Sololá	702	San José Chacayá	5	Chacayá	9	Septiembre	2023-12-09T00:00:00	2024-11-06T01:00:00	3	Temperatura mínima	13.4
118852	7	Sololá	702	San José Chacayá	5	Chacayá	9	Septiembre	2023-12-09T00:00:00	2024-11-06T01:00:00	5	Humedad	35
118853	7	Sololá	702	San José Chacayá	5	Chacayá	9	Septiembre	2023-12-09T00:00:00	2024-11-06T01:00:00	6	Velocidad del viento	0
118854	7	Sololá	702	San José Chacayá	5	Chacayá	9	Septiembre	2023-12-09T00:00:00	2024-11-06T01:00:00	7	Dirección del viento	0
118855	7	Sololá	702	San José Chacayá	5	Chacayá	9	Septiembre	2023-12-09T00:00:00	2024-11-06T01:00:00	1	Precipitación	0
118856	7	Sololá	702	San José Chacayá	5	Chacayá	9	Septiembre	2023-12-09T00:00:00	2024-11-06T01:00:00	8	Radiación solar	0
118857	7	Sololá	702	San José Chacayá	5	Chacayá	9	Septiembre	2023-12-09T00:00:00	2024-11-06T02:00:00	2	Temperatura media	12.9
118858	7	Sololá	702	San José Chacayá	5	Chacayá	9	Septiembre	2023-12-09T00:00:00	2024-11-06T02:00:00	4	Temperatura máxima	13.2
118859	7	Sololá	702	San José Chacayá	5	Chacayá	9	Septiembre	2023-12-09T00:00:00	2024-11-06T02:00:00	3	Temperatura mínima	12.9
118860	7	Sololá	702	San José Chacayá	5	Chacayá	9	Septiembre	2023-12-09T00:00:00	2024-11-06T02:00:00	5	Humedad	39
118861	7	Sololá	702	San José Chacayá	5	Chacayá	9	Septiembre	2023-12-09T00:00:00	2024-11-06T02:00:00	6	Velocidad del viento	0
118862	7	Sololá	702	San José Chacayá	5	Chacayá	9	Septiembre	2023-12-09T00:00:00	2024-11-06T02:00:00	7	Dirección del viento	0
118863	7	Sololá	702	San José Chacayá	5	Chacayá	9	Septiembre	2023-12-09T00:00:00	2024-11-06T02:00:00	1	Precipitación	0.25
118864	7	Sololá	702	San José Chacayá	5	Chacayá	9	Septiembre	2023-12-09T00:00:00	2024-11-06T02:00:00	8	Radiación solar	0
118865	7	Sololá	702	San José Chacayá	5	Chacayá	9	Septiembre	2023-12-09T00:00:00	2024-11-06T03:00:00	2	Temperatura media	12.7
118866	7	Sololá	702	San José Chacayá	5	Chacayá	9	Septiembre	2023-12-09T00:00:00	2024-11-06T03:00:00	4	Temperatura máxima	12.8
118867	7	Sololá	702	San José Chacayá	5	Chacayá	9	Septiembre	2023-12-09T00:00:00	2024-11-06T03:00:00	3	Temperatura mínima	12.7
118868	7	Sololá	702	San José Chacayá	5	Chacayá	9	Septiembre	2023-12-09T00:00:00	2024-11-06T03:00:00	5	Humedad	34
118869	7	Sololá	702	San José Chacayá	5	Chacayá	9	Septiembre	2023-12-09T00:00:00	2024-11-06T03:00:00	6	Velocidad del viento	0
118870	7	Sololá	702	San José Chacayá	5	Chacayá	9	Septiembre	2023-12-09T00:00:00	2024-11-06T03:00:00	7	Dirección del viento	0
118871	7	Sololá	702	San José Chacayá	5	Chacayá	9	Septiembre	2023-12-09T00:00:00	2024-11-06T03:00:00	1	Precipitación	0
118872	7	Sololá	702	San José Chacayá	5	Chacayá	9	Septiembre	2023-12-09T00:00:00	2024-11-06T03:00:00	8	Radiación solar	0
118873	7	Sololá	702	San José Chacayá	5	Chacayá	9	Septiembre	2023-12-09T00:00:00	2024-11-06T04:00:00	2	Temperatura media	12.2
118874	7	Sololá	702	San José Chacayá	5	Chacayá	9	Septiembre	2023-12-09T00:00:00	2024-11-06T04:00:00	4	Temperatura máxima	12.5
118875	7	Sololá	702	San José Chacayá	5	Chacayá	9	Septiembre	2023-12-09T00:00:00	2024-11-06T04:00:00	3	Temperatura mínima	12.2
118876	7	Sololá	702	San José Chacayá	5	Chacayá	9	Septiembre	2023-12-09T00:00:00	2024-11-06T04:00:00	5	Humedad	36
118877	7	Sololá	702	San José Chacayá	5	Chacayá	9	Septiembre	2023-12-09T00:00:00	2024-11-06T04:00:00	6	Velocidad del viento	1.6
118878	7	Sololá	702	San José Chacayá	5	Chacayá	9	Septiembre	2023-12-09T00:00:00	2024-11-06T04:00:00	7	Dirección del viento	0.8
118879	7	Sololá	702	San José Chacayá	5	Chacayá	9	Septiembre	2023-12-09T00:00:00	2024-11-06T04:00:00	1	Precipitación	0
118880	7	Sololá	702	San José Chacayá	5	Chacayá	9	Septiembre	2023-12-09T00:00:00	2024-11-06T04:00:00	8	Radiación solar	0
118881	7	Sololá	702	San José Chacayá	5	Chacayá	9	Septiembre	2023-12-09T00:00:00	2024-11-06T05:00:00	2	Temperatura media	12.1
118882	7	Sololá	702	San José Chacayá	5	Chacayá	9	Septiembre	2023-12-09T00:00:00	2024-11-06T05:00:00	4	Temperatura máxima	12.2
118883	7	Sololá	702	San José Chacayá	5	Chacayá	9	Septiembre	2023-12-09T00:00:00	2024-11-06T05:00:00	3	Temperatura mínima	12.1
118884	7	Sololá	702	San José Chacayá	5	Chacayá	9	Septiembre	2023-12-09T00:00:00	2024-11-06T05:00:00	5	Humedad	33
118885	7	Sololá	702	San José Chacayá	5	Chacayá	9	Septiembre	2023-12-09T00:00:00	2024-11-06T05:00:00	6	Velocidad del viento	1.6
118886	7	Sololá	702	San José Chacayá	5	Chacayá	9	Septiembre	2023-12-09T00:00:00	2024-11-06T05:00:00	7	Dirección del viento	0.8
118887	7	Sololá	702	San José Chacayá	5	Chacayá	9	Septiembre	2023-12-09T00:00:00	2024-11-06T05:00:00	1	Precipitación	0
118888	7	Sololá	702	San José Chacayá	5	Chacayá	9	Septiembre	2023-12-09T00:00:00	2024-11-06T05:00:00	8	Radiación solar	0
118889	7	Sololá	702	San José Chacayá	5	Chacayá	9	Septiembre	2023-12-09T00:00:00	2024-11-06T06:00:00	2	Temperatura media	11.5
118890	7	Sololá	702	San José Chacayá	5	Chacayá	9	Septiembre	2023-12-09T00:00:00	2024-11-06T06:00:00	4	Temperatura máxima	11.7
118891	7	Sololá	702	San José Chacayá	5	Chacayá	9	Septiembre	2023-12-09T00:00:00	2024-11-06T06:00:00	3	Temperatura mínima	11.5
118892	7	Sololá	702	San José Chacayá	5	Chacayá	9	Septiembre	2023-12-09T00:00:00	2024-11-06T06:00:00	5	Humedad	40
118893	7	Sololá	702	San José Chacayá	5	Chacayá	9	Septiembre	2023-12-09T00:00:00	2024-11-06T06:00:00	6	Velocidad del viento	3.2
118894	7	Sololá	702	San José Chacayá	5	Chacayá	9	Septiembre	2023-12-09T00:00:00	2024-11-06T06:00:00	7	Dirección del viento	1.61
118895	7	Sololá	702	San José Chacayá	5	Chacayá	9	Septiembre	2023-12-09T00:00:00	2024-11-06T06:00:00	1	Precipitación	0
118896	7	Sololá	702	San José Chacayá	5	Chacayá	9	Septiembre	2023-12-09T00:00:00	2024-11-06T06:00:00	8	Radiación solar	1
118897	7	Sololá	702	San José Chacayá	5	Chacayá	9	Septiembre	2023-12-09T00:00:00	2024-11-06T07:00:00	2	Temperatura media	12.7
118898	7	Sololá	702	San José Chacayá	5	Chacayá	9	Septiembre	2023-12-09T00:00:00	2024-11-06T07:00:00	4	Temperatura máxima	12.7
118899	7	Sololá	702	San José Chacayá	5	Chacayá	9	Septiembre	2023-12-09T00:00:00	2024-11-06T07:00:00	3	Temperatura mínima	11.7
118900	7	Sololá	702	San José Chacayá	5	Chacayá	9	Septiembre	2023-12-09T00:00:00	2024-11-06T07:00:00	5	Humedad	46
118901	7	Sololá	702	San José Chacayá	5	Chacayá	9	Septiembre	2023-12-09T00:00:00	2024-11-06T07:00:00	6	Velocidad del viento	3.2
118902	7	Sololá	702	San José Chacayá	5	Chacayá	9	Septiembre	2023-12-09T00:00:00	2024-11-06T07:00:00	7	Dirección del viento	1.61
118903	7	Sololá	702	San José Chacayá	5	Chacayá	9	Septiembre	2023-12-09T00:00:00	2024-11-06T07:00:00	1	Precipitación	0
118904	7	Sololá	702	San José Chacayá	5	Chacayá	9	Septiembre	2023-12-09T00:00:00	2024-11-06T07:00:00	8	Radiación solar	31
118905	7	Sololá	702	San José Chacayá	5	Chacayá	9	Septiembre	2023-12-09T00:00:00	2024-11-06T08:00:00	2	Temperatura media	16.1
118906	7	Sololá	702	San José Chacayá	5	Chacayá	9	Septiembre	2023-12-09T00:00:00	2024-11-06T08:00:00	4	Temperatura máxima	16.1
118907	7	Sololá	702	San José Chacayá	5	Chacayá	9	Septiembre	2023-12-09T00:00:00	2024-11-06T08:00:00	3	Temperatura mínima	14.2
118908	7	Sololá	702	San José Chacayá	5	Chacayá	9	Septiembre	2023-12-09T00:00:00	2024-11-06T08:00:00	5	Humedad	80
118909	7	Sololá	702	San José Chacayá	5	Chacayá	9	Septiembre	2023-12-09T00:00:00	2024-11-06T08:00:00	6	Velocidad del viento	1.6
118910	7	Sololá	702	San José Chacayá	5	Chacayá	9	Septiembre	2023-12-09T00:00:00	2024-11-06T08:00:00	7	Dirección del viento	0.8
118911	7	Sololá	702	San José Chacayá	5	Chacayá	9	Septiembre	2023-12-09T00:00:00	2024-11-06T08:00:00	1	Precipitación	0
118912	7	Sololá	702	San José Chacayá	5	Chacayá	9	Septiembre	2023-12-09T00:00:00	2024-11-06T08:00:00	8	Radiación solar	151
118913	7	Sololá	702	San José Chacayá	5	Chacayá	9	Septiembre	2023-12-09T00:00:00	2024-11-06T09:00:00	2	Temperatura media	20.3
118914	7	Sololá	702	San José Chacayá	5	Chacayá	9	Septiembre	2023-12-09T00:00:00	2024-11-06T09:00:00	4	Temperatura máxima	20.3
118915	7	Sololá	702	San José Chacayá	5	Chacayá	9	Septiembre	2023-12-09T00:00:00	2024-11-06T09:00:00	3	Temperatura mínima	18.3
118916	7	Sololá	702	San José Chacayá	5	Chacayá	9	Septiembre	2023-12-09T00:00:00	2024-11-06T09:00:00	5	Humedad	68
118917	7	Sololá	702	San José Chacayá	5	Chacayá	9	Septiembre	2023-12-09T00:00:00	2024-11-06T09:00:00	6	Velocidad del viento	4.8
118918	7	Sololá	702	San José Chacayá	5	Chacayá	9	Septiembre	2023-12-09T00:00:00	2024-11-06T09:00:00	7	Dirección del viento	2.41
118919	7	Sololá	702	San José Chacayá	5	Chacayá	9	Septiembre	2023-12-09T00:00:00	2024-11-06T09:00:00	1	Precipitación	0
118920	7	Sololá	702	San José Chacayá	5	Chacayá	9	Septiembre	2023-12-09T00:00:00	2024-11-06T09:00:00	8	Radiación solar	598
118921	7	Sololá	702	San José Chacayá	5	Chacayá	9	Septiembre	2023-12-09T00:00:00	2024-11-06T10:00:00	2	Temperatura media	21.8
118922	7	Sololá	702	San José Chacayá	5	Chacayá	9	Septiembre	2023-12-09T00:00:00	2024-11-06T10:00:00	4	Temperatura máxima	21.8
118923	7	Sololá	702	San José Chacayá	5	Chacayá	9	Septiembre	2023-12-09T00:00:00	2024-11-06T10:00:00	3	Temperatura mínima	20.6
118924	7	Sololá	702	San José Chacayá	5	Chacayá	9	Septiembre	2023-12-09T00:00:00	2024-11-06T10:00:00	5	Humedad	62
118925	7	Sololá	702	San José Chacayá	5	Chacayá	9	Septiembre	2023-12-09T00:00:00	2024-11-06T10:00:00	6	Velocidad del viento	4.8
118926	7	Sololá	702	San José Chacayá	5	Chacayá	9	Septiembre	2023-12-09T00:00:00	2024-11-06T10:00:00	7	Dirección del viento	2.41
118927	7	Sololá	702	San José Chacayá	5	Chacayá	9	Septiembre	2023-12-09T00:00:00	2024-11-06T10:00:00	1	Precipitación	0
118928	7	Sololá	702	San José Chacayá	5	Chacayá	9	Septiembre	2023-12-09T00:00:00	2024-11-06T10:00:00	8	Radiación solar	646
118929	7	Sololá	702	San José Chacayá	5	Chacayá	9	Septiembre	2023-12-09T00:00:00	2024-11-06T11:00:00	2	Temperatura media	24.1
118930	7	Sololá	702	San José Chacayá	5	Chacayá	9	Septiembre	2023-12-09T00:00:00	2024-11-06T11:00:00	4	Temperatura máxima	24.1
118931	7	Sololá	702	San José Chacayá	5	Chacayá	9	Septiembre	2023-12-09T00:00:00	2024-11-06T11:00:00	3	Temperatura mínima	23.1
118932	7	Sololá	702	San José Chacayá	5	Chacayá	9	Septiembre	2023-12-09T00:00:00	2024-11-06T11:00:00	5	Humedad	63
118933	7	Sololá	702	San José Chacayá	5	Chacayá	9	Septiembre	2023-12-09T00:00:00	2024-11-06T11:00:00	6	Velocidad del viento	4.8
118934	7	Sololá	702	San José Chacayá	5	Chacayá	9	Septiembre	2023-12-09T00:00:00	2024-11-06T11:00:00	7	Dirección del viento	2.41
118935	7	Sololá	702	San José Chacayá	5	Chacayá	9	Septiembre	2023-12-09T00:00:00	2024-11-06T11:00:00	1	Precipitación	0
118936	7	Sololá	702	San José Chacayá	5	Chacayá	9	Septiembre	2023-12-09T00:00:00	2024-11-06T11:00:00	8	Radiación solar	198
118937	7	Sololá	702	San José Chacayá	5	Chacayá	9	Septiembre	2023-12-09T00:00:00	2024-11-06T12:00:00	2	Temperatura media	23.7
118938	7	Sololá	702	San José Chacayá	5	Chacayá	9	Septiembre	2023-12-09T00:00:00	2024-11-06T12:00:00	4	Temperatura máxima	24.2
118939	7	Sololá	702	San José Chacayá	5	Chacayá	9	Septiembre	2023-12-09T00:00:00	2024-11-06T12:00:00	3	Temperatura mínima	23.6
118940	7	Sololá	702	San José Chacayá	5	Chacayá	9	Septiembre	2023-12-09T00:00:00	2024-11-06T12:00:00	5	Humedad	66
118941	7	Sololá	702	San José Chacayá	5	Chacayá	9	Septiembre	2023-12-09T00:00:00	2024-11-06T12:00:00	6	Velocidad del viento	6.4
118942	7	Sololá	702	San José Chacayá	5	Chacayá	9	Septiembre	2023-12-09T00:00:00	2024-11-06T12:00:00	7	Dirección del viento	3.22
118943	7	Sololá	702	San José Chacayá	5	Chacayá	9	Septiembre	2023-12-09T00:00:00	2024-11-06T12:00:00	1	Precipitación	0
118944	7	Sololá	702	San José Chacayá	5	Chacayá	9	Septiembre	2023-12-09T00:00:00	2024-11-06T12:00:00	8	Radiación solar	130
118945	7	Sololá	702	San José Chacayá	5	Chacayá	9	Septiembre	2023-12-09T00:00:00	2024-11-06T13:00:00	2	Temperatura media	23.3
118946	7	Sololá	702	San José Chacayá	5	Chacayá	9	Septiembre	2023-12-09T00:00:00	2024-11-06T13:00:00	4	Temperatura máxima	23.8
118947	7	Sololá	702	San José Chacayá	5	Chacayá	9	Septiembre	2023-12-09T00:00:00	2024-11-06T13:00:00	3	Temperatura mínima	23.1
118948	7	Sololá	702	San José Chacayá	5	Chacayá	9	Septiembre	2023-12-09T00:00:00	2024-11-06T13:00:00	5	Humedad	64
118949	7	Sololá	702	San José Chacayá	5	Chacayá	9	Septiembre	2023-12-09T00:00:00	2024-11-06T13:00:00	6	Velocidad del viento	6.4
118950	7	Sololá	702	San José Chacayá	5	Chacayá	9	Septiembre	2023-12-09T00:00:00	2024-11-06T13:00:00	7	Dirección del viento	3.22
118951	7	Sololá	702	San José Chacayá	5	Chacayá	9	Septiembre	2023-12-09T00:00:00	2024-11-06T13:00:00	1	Precipitación	0
118952	7	Sololá	702	San José Chacayá	5	Chacayá	9	Septiembre	2023-12-09T00:00:00	2024-11-06T13:00:00	8	Radiación solar	128
118953	7	Sololá	702	San José Chacayá	5	Chacayá	9	Septiembre	2023-12-09T00:00:00	2024-11-06T14:00:00	2	Temperatura media	22.1
118954	7	Sololá	702	San José Chacayá	5	Chacayá	9	Septiembre	2023-12-09T00:00:00	2024-11-06T14:00:00	4	Temperatura máxima	23.4
118955	7	Sololá	702	San José Chacayá	5	Chacayá	9	Septiembre	2023-12-09T00:00:00	2024-11-06T14:00:00	3	Temperatura mínima	22.1
118956	7	Sololá	702	San José Chacayá	5	Chacayá	9	Septiembre	2023-12-09T00:00:00	2024-11-06T14:00:00	5	Humedad	72
118957	7	Sololá	702	San José Chacayá	5	Chacayá	9	Septiembre	2023-12-09T00:00:00	2024-11-06T14:00:00	6	Velocidad del viento	8
118958	7	Sololá	702	San José Chacayá	5	Chacayá	9	Septiembre	2023-12-09T00:00:00	2024-11-06T14:00:00	7	Dirección del viento	4.02
118959	7	Sololá	702	San José Chacayá	5	Chacayá	9	Septiembre	2023-12-09T00:00:00	2024-11-06T14:00:00	1	Precipitación	0
118960	7	Sololá	702	San José Chacayá	5	Chacayá	9	Septiembre	2023-12-09T00:00:00	2024-11-06T14:00:00	8	Radiación solar	76
118961	7	Sololá	702	San José Chacayá	5	Chacayá	9	Septiembre	2023-12-09T00:00:00	2024-11-06T15:00:00	2	Temperatura media	21.7
118962	7	Sololá	702	San José Chacayá	5	Chacayá	9	Septiembre	2023-12-09T00:00:00	2024-11-06T15:00:00	4	Temperatura máxima	22.4
118963	7	Sololá	702	San José Chacayá	5	Chacayá	9	Septiembre	2023-12-09T00:00:00	2024-11-06T15:00:00	3	Temperatura mínima	21.7
118964	7	Sololá	702	San José Chacayá	5	Chacayá	9	Septiembre	2023-12-09T00:00:00	2024-11-06T15:00:00	5	Humedad	73
118965	7	Sololá	702	San José Chacayá	5	Chacayá	9	Septiembre	2023-12-09T00:00:00	2024-11-06T15:00:00	6	Velocidad del viento	6.4
118966	7	Sololá	702	San José Chacayá	5	Chacayá	9	Septiembre	2023-12-09T00:00:00	2024-11-06T15:00:00	7	Dirección del viento	3.22
118967	7	Sololá	702	San José Chacayá	5	Chacayá	9	Septiembre	2023-12-09T00:00:00	2024-11-06T15:00:00	1	Precipitación	0
118968	7	Sololá	702	San José Chacayá	5	Chacayá	9	Septiembre	2023-12-09T00:00:00	2024-11-06T15:00:00	8	Radiación solar	108
118969	7	Sololá	702	San José Chacayá	5	Chacayá	9	Septiembre	2023-12-09T00:00:00	2024-11-06T16:00:00	2	Temperatura media	20.2
118970	7	Sololá	702	San José Chacayá	5	Chacayá	9	Septiembre	2023-12-09T00:00:00	2024-11-06T16:00:00	4	Temperatura máxima	20.2
118971	7	Sololá	702	San José Chacayá	5	Chacayá	9	Septiembre	2023-12-09T00:00:00	2024-11-06T16:00:00	3	Temperatura mínima	19.7
118972	7	Sololá	702	San José Chacayá	5	Chacayá	9	Septiembre	2023-12-09T00:00:00	2024-11-06T16:00:00	5	Humedad	79
118973	7	Sololá	702	San José Chacayá	5	Chacayá	9	Septiembre	2023-12-09T00:00:00	2024-11-06T16:00:00	6	Velocidad del viento	6.4
118974	7	Sololá	702	San José Chacayá	5	Chacayá	9	Septiembre	2023-12-09T00:00:00	2024-11-06T16:00:00	7	Dirección del viento	3.22
118975	7	Sololá	702	San José Chacayá	5	Chacayá	9	Septiembre	2023-12-09T00:00:00	2024-11-06T16:00:00	1	Precipitación	0
118976	7	Sololá	702	San José Chacayá	5	Chacayá	9	Septiembre	2023-12-09T00:00:00	2024-11-06T16:00:00	8	Radiación solar	21
118977	7	Sololá	702	San José Chacayá	5	Chacayá	9	Septiembre	2023-12-09T00:00:00	2024-11-06T17:00:00	2	Temperatura media	19.1
118978	7	Sololá	702	San José Chacayá	5	Chacayá	9	Septiembre	2023-12-09T00:00:00	2024-11-06T17:00:00	4	Temperatura máxima	19.7
118979	7	Sololá	702	San José Chacayá	5	Chacayá	9	Septiembre	2023-12-09T00:00:00	2024-11-06T17:00:00	3	Temperatura mínima	19.1
118980	7	Sololá	702	San José Chacayá	5	Chacayá	9	Septiembre	2023-12-09T00:00:00	2024-11-06T17:00:00	5	Humedad	86
118981	7	Sololá	702	San José Chacayá	5	Chacayá	9	Septiembre	2023-12-09T00:00:00	2024-11-06T17:00:00	6	Velocidad del viento	1.6
118982	7	Sololá	702	San José Chacayá	5	Chacayá	9	Septiembre	2023-12-09T00:00:00	2024-11-06T17:00:00	7	Dirección del viento	0.8
118983	7	Sololá	702	San José Chacayá	5	Chacayá	9	Septiembre	2023-12-09T00:00:00	2024-11-06T17:00:00	1	Precipitación	0.25
118984	7	Sololá	702	San José Chacayá	5	Chacayá	9	Septiembre	2023-12-09T00:00:00	2024-11-06T17:00:00	8	Radiación solar	23
118985	7	Sololá	702	San José Chacayá	5	Chacayá	9	Septiembre	2023-12-09T00:00:00	2024-11-06T18:00:00	2	Temperatura media	17.4
118986	7	Sololá	702	San José Chacayá	5	Chacayá	9	Septiembre	2023-12-09T00:00:00	2024-11-06T18:00:00	4	Temperatura máxima	18.2
118987	7	Sololá	702	San José Chacayá	5	Chacayá	9	Septiembre	2023-12-09T00:00:00	2024-11-06T18:00:00	3	Temperatura mínima	17.4
118988	7	Sololá	702	San José Chacayá	5	Chacayá	9	Septiembre	2023-12-09T00:00:00	2024-11-06T18:00:00	5	Humedad	91
118989	7	Sololá	702	San José Chacayá	5	Chacayá	9	Septiembre	2023-12-09T00:00:00	2024-11-06T18:00:00	6	Velocidad del viento	0
118990	7	Sololá	702	San José Chacayá	5	Chacayá	9	Septiembre	2023-12-09T00:00:00	2024-11-06T18:00:00	7	Dirección del viento	0
118991	7	Sololá	702	San José Chacayá	5	Chacayá	9	Septiembre	2023-12-09T00:00:00	2024-11-06T18:00:00	1	Precipitación	1.52
118992	7	Sololá	702	San José Chacayá	5	Chacayá	9	Septiembre	2023-12-09T00:00:00	2024-11-06T18:00:00	8	Radiación solar	8
118993	7	Sololá	702	San José Chacayá	5	Chacayá	9	Septiembre	2023-12-09T00:00:00	2024-11-06T19:00:00	2	Temperatura media	16.7
118994	7	Sololá	702	San José Chacayá	5	Chacayá	9	Septiembre	2023-12-09T00:00:00	2024-11-06T19:00:00	4	Temperatura máxima	17.1
118995	7	Sololá	702	San José Chacayá	5	Chacayá	9	Septiembre	2023-12-09T00:00:00	2024-11-06T19:00:00	3	Temperatura mínima	16.7
118996	7	Sololá	702	San José Chacayá	5	Chacayá	9	Septiembre	2023-12-09T00:00:00	2024-11-06T19:00:00	5	Humedad	93
118997	7	Sololá	702	San José Chacayá	5	Chacayá	9	Septiembre	2023-12-09T00:00:00	2024-11-06T19:00:00	6	Velocidad del viento	0
118998	7	Sololá	702	San José Chacayá	5	Chacayá	9	Septiembre	2023-12-09T00:00:00	2024-11-06T19:00:00	7	Dirección del viento	0
118999	7	Sololá	702	San José Chacayá	5	Chacayá	9	Septiembre	2023-12-09T00:00:00	2024-11-06T19:00:00	1	Precipitación	0
119000	7	Sololá	702	San José Chacayá	5	Chacayá	9	Septiembre	2023-12-09T00:00:00	2024-11-06T19:00:00	8	Radiación solar	0
119001	7	Sololá	702	San José Chacayá	5	Chacayá	9	Septiembre	2023-12-09T00:00:00	2024-11-06T20:00:00	2	Temperatura media	16.2
119002	7	Sololá	702	San José Chacayá	5	Chacayá	9	Septiembre	2023-12-09T00:00:00	2024-11-06T20:00:00	4	Temperatura máxima	16.4
119003	7	Sololá	702	San José Chacayá	5	Chacayá	9	Septiembre	2023-12-09T00:00:00	2024-11-06T20:00:00	3	Temperatura mínima	16.2
119004	7	Sololá	702	San José Chacayá	5	Chacayá	9	Septiembre	2023-12-09T00:00:00	2024-11-06T20:00:00	5	Humedad	94
119005	7	Sololá	702	San José Chacayá	5	Chacayá	9	Septiembre	2023-12-09T00:00:00	2024-11-06T20:00:00	6	Velocidad del viento	0
119006	7	Sololá	702	San José Chacayá	5	Chacayá	9	Septiembre	2023-12-09T00:00:00	2024-11-06T20:00:00	7	Dirección del viento	0
119007	7	Sololá	702	San José Chacayá	5	Chacayá	9	Septiembre	2023-12-09T00:00:00	2024-11-06T20:00:00	1	Precipitación	0
119008	7	Sololá	702	San José Chacayá	5	Chacayá	9	Septiembre	2023-12-09T00:00:00	2024-11-06T20:00:00	8	Radiación solar	0
119009	7	Sololá	702	San José Chacayá	5	Chacayá	9	Septiembre	2023-12-09T00:00:00	2024-11-06T21:00:00	2	Temperatura media	15.8
119010	7	Sololá	702	San José Chacayá	5	Chacayá	9	Septiembre	2023-12-09T00:00:00	2024-11-06T21:00:00	4	Temperatura máxima	16.1
119011	7	Sololá	702	San José Chacayá	5	Chacayá	9	Septiembre	2023-12-09T00:00:00	2024-11-06T21:00:00	3	Temperatura mínima	15.8
119012	7	Sololá	702	San José Chacayá	5	Chacayá	9	Septiembre	2023-12-09T00:00:00	2024-11-06T21:00:00	5	Humedad	94
119013	7	Sololá	702	San José Chacayá	5	Chacayá	9	Septiembre	2023-12-09T00:00:00	2024-11-06T21:00:00	6	Velocidad del viento	0
119014	7	Sololá	702	San José Chacayá	5	Chacayá	9	Septiembre	2023-12-09T00:00:00	2024-11-06T21:00:00	7	Dirección del viento	0
119015	7	Sololá	702	San José Chacayá	5	Chacayá	9	Septiembre	2023-12-09T00:00:00	2024-11-06T21:00:00	1	Precipitación	0
119016	7	Sololá	702	San José Chacayá	5	Chacayá	9	Septiembre	2023-12-09T00:00:00	2024-11-06T21:00:00	8	Radiación solar	0
119017	7	Sololá	702	San José Chacayá	5	Chacayá	9	Septiembre	2023-12-09T00:00:00	2024-11-06T22:00:00	2	Temperatura media	15.2
119018	7	Sololá	702	San José Chacayá	5	Chacayá	9	Septiembre	2023-12-09T00:00:00	2024-11-06T22:00:00	4	Temperatura máxima	15.4
119019	7	Sololá	702	San José Chacayá	5	Chacayá	9	Septiembre	2023-12-09T00:00:00	2024-11-06T22:00:00	3	Temperatura mínima	15.2
119020	7	Sololá	702	San José Chacayá	5	Chacayá	9	Septiembre	2023-12-09T00:00:00	2024-11-06T22:00:00	5	Humedad	94
119021	7	Sololá	702	San José Chacayá	5	Chacayá	9	Septiembre	2023-12-09T00:00:00	2024-11-06T22:00:00	6	Velocidad del viento	0
119022	7	Sololá	702	San José Chacayá	5	Chacayá	9	Septiembre	2023-12-09T00:00:00	2024-11-06T22:00:00	7	Dirección del viento	0
119023	7	Sololá	702	San José Chacayá	5	Chacayá	9	Septiembre	2023-12-09T00:00:00	2024-11-06T22:00:00	1	Precipitación	0
119024	7	Sololá	702	San José Chacayá	5	Chacayá	9	Septiembre	2023-12-09T00:00:00	2024-11-06T22:00:00	8	Radiación solar	0
119025	7	Sololá	702	San José Chacayá	5	Chacayá	9	Septiembre	2023-12-09T00:00:00	2024-11-06T23:00:00	2	Temperatura media	14.6
119026	7	Sololá	702	San José Chacayá	5	Chacayá	9	Septiembre	2023-12-09T00:00:00	2024-11-06T23:00:00	4	Temperatura máxima	14.9
119027	7	Sololá	702	San José Chacayá	5	Chacayá	9	Septiembre	2023-12-09T00:00:00	2024-11-06T23:00:00	3	Temperatura mínima	14.6
119028	7	Sololá	702	San José Chacayá	5	Chacayá	9	Septiembre	2023-12-09T00:00:00	2024-11-06T23:00:00	5	Humedad	94
119029	7	Sololá	702	San José Chacayá	5	Chacayá	9	Septiembre	2023-12-09T00:00:00	2024-11-06T23:00:00	6	Velocidad del viento	0
119030	7	Sololá	702	San José Chacayá	5	Chacayá	9	Septiembre	2023-12-09T00:00:00	2024-11-06T23:00:00	7	Dirección del viento	0
119031	7	Sololá	702	San José Chacayá	5	Chacayá	9	Septiembre	2023-12-09T00:00:00	2024-11-06T23:00:00	1	Precipitación	0
119032	7	Sololá	702	San José Chacayá	5	Chacayá	9	Septiembre	2023-12-09T00:00:00	2024-11-06T23:00:00	8	Radiación solar	0
119033	7	Sololá	702	San José Chacayá	5	Chacayá	9	Septiembre	2023-09-13T00:00:00	2024-11-06T00:00:00	2	Temperatura media	14.6
119034	7	Sololá	702	San José Chacayá	5	Chacayá	9	Septiembre	2023-09-13T00:00:00	2024-11-06T00:00:00	4	Temperatura máxima	14.6
119035	7	Sololá	702	San José Chacayá	5	Chacayá	9	Septiembre	2023-09-13T00:00:00	2024-11-06T00:00:00	3	Temperatura mínima	14.3
119036	7	Sololá	702	San José Chacayá	5	Chacayá	9	Septiembre	2023-09-13T00:00:00	2024-11-06T00:00:00	5	Humedad	95
119037	7	Sololá	702	San José Chacayá	5	Chacayá	9	Septiembre	2023-09-13T00:00:00	2024-11-06T00:00:00	6	Velocidad del viento	0
119038	7	Sololá	702	San José Chacayá	5	Chacayá	9	Septiembre	2023-09-13T00:00:00	2024-11-06T00:00:00	7	Dirección del viento	0
119039	7	Sololá	702	San José Chacayá	5	Chacayá	9	Septiembre	2023-09-13T00:00:00	2024-11-06T00:00:00	1	Precipitación	0
119040	7	Sololá	702	San José Chacayá	5	Chacayá	9	Septiembre	2023-09-13T00:00:00	2024-11-06T00:00:00	8	Radiación solar	0
119041	7	Sololá	702	San José Chacayá	5	Chacayá	9	Septiembre	2023-09-13T00:00:00	2024-11-06T01:00:00	2	Temperatura media	14.6
119042	7	Sololá	702	San José Chacayá	5	Chacayá	9	Septiembre	2023-09-13T00:00:00	2024-11-06T01:00:00	4	Temperatura máxima	14.6
119043	7	Sololá	702	San José Chacayá	5	Chacayá	9	Septiembre	2023-09-13T00:00:00	2024-11-06T01:00:00	3	Temperatura mínima	14.5
119044	7	Sololá	702	San José Chacayá	5	Chacayá	9	Septiembre	2023-09-13T00:00:00	2024-11-06T01:00:00	5	Humedad	95
119045	7	Sololá	702	San José Chacayá	5	Chacayá	9	Septiembre	2023-09-13T00:00:00	2024-11-06T01:00:00	6	Velocidad del viento	0
119046	7	Sololá	702	San José Chacayá	5	Chacayá	9	Septiembre	2023-09-13T00:00:00	2024-11-06T01:00:00	7	Dirección del viento	0
119047	7	Sololá	702	San José Chacayá	5	Chacayá	9	Septiembre	2023-09-13T00:00:00	2024-11-06T01:00:00	1	Precipitación	0
119048	7	Sololá	702	San José Chacayá	5	Chacayá	9	Septiembre	2023-09-13T00:00:00	2024-11-06T01:00:00	8	Radiación solar	0
119049	7	Sololá	702	San José Chacayá	5	Chacayá	9	Septiembre	2023-09-13T00:00:00	2024-11-06T02:00:00	2	Temperatura media	14.3
119050	7	Sololá	702	San José Chacayá	5	Chacayá	9	Septiembre	2023-09-13T00:00:00	2024-11-06T02:00:00	4	Temperatura máxima	14.6
119051	7	Sololá	702	San José Chacayá	5	Chacayá	9	Septiembre	2023-09-13T00:00:00	2024-11-06T02:00:00	3	Temperatura mínima	14.3
119052	7	Sololá	702	San José Chacayá	5	Chacayá	9	Septiembre	2023-09-13T00:00:00	2024-11-06T02:00:00	5	Humedad	95
119053	7	Sololá	702	San José Chacayá	5	Chacayá	9	Septiembre	2023-09-13T00:00:00	2024-11-06T02:00:00	6	Velocidad del viento	0
119054	7	Sololá	702	San José Chacayá	5	Chacayá	9	Septiembre	2023-09-13T00:00:00	2024-11-06T02:00:00	7	Dirección del viento	0
119055	7	Sololá	702	San José Chacayá	5	Chacayá	9	Septiembre	2023-09-13T00:00:00	2024-11-06T02:00:00	1	Precipitación	0
119056	7	Sololá	702	San José Chacayá	5	Chacayá	9	Septiembre	2023-09-13T00:00:00	2024-11-06T02:00:00	8	Radiación solar	0
119057	7	Sololá	702	San José Chacayá	5	Chacayá	9	Septiembre	2023-09-13T00:00:00	2024-11-06T03:00:00	2	Temperatura media	14.2
119058	7	Sololá	702	San José Chacayá	5	Chacayá	9	Septiembre	2023-09-13T00:00:00	2024-11-06T03:00:00	4	Temperatura máxima	14.3
119059	7	Sololá	702	San José Chacayá	5	Chacayá	9	Septiembre	2023-09-13T00:00:00	2024-11-06T03:00:00	3	Temperatura mínima	14.2
119060	7	Sololá	702	San José Chacayá	5	Chacayá	9	Septiembre	2023-09-13T00:00:00	2024-11-06T03:00:00	5	Humedad	95
119061	7	Sololá	702	San José Chacayá	5	Chacayá	9	Septiembre	2023-09-13T00:00:00	2024-11-06T03:00:00	6	Velocidad del viento	0
119062	7	Sololá	702	San José Chacayá	5	Chacayá	9	Septiembre	2023-09-13T00:00:00	2024-11-06T03:00:00	7	Dirección del viento	0
119063	7	Sololá	702	San José Chacayá	5	Chacayá	9	Septiembre	2023-09-13T00:00:00	2024-11-06T03:00:00	1	Precipitación	4.58
119064	7	Sololá	702	San José Chacayá	5	Chacayá	9	Septiembre	2023-09-13T00:00:00	2024-11-06T03:00:00	8	Radiación solar	0
119065	7	Sololá	702	San José Chacayá	5	Chacayá	9	Septiembre	2023-09-13T00:00:00	2024-11-06T04:00:00	2	Temperatura media	13.9
119066	7	Sololá	702	San José Chacayá	5	Chacayá	9	Septiembre	2023-09-13T00:00:00	2024-11-06T04:00:00	4	Temperatura máxima	14.1
119067	7	Sololá	702	San José Chacayá	5	Chacayá	9	Septiembre	2023-09-13T00:00:00	2024-11-06T04:00:00	3	Temperatura mínima	13.9
119068	7	Sololá	702	San José Chacayá	5	Chacayá	9	Septiembre	2023-09-13T00:00:00	2024-11-06T04:00:00	5	Humedad	95
119069	7	Sololá	702	San José Chacayá	5	Chacayá	9	Septiembre	2023-09-13T00:00:00	2024-11-06T04:00:00	6	Velocidad del viento	0
119070	7	Sololá	702	San José Chacayá	5	Chacayá	9	Septiembre	2023-09-13T00:00:00	2024-11-06T04:00:00	7	Dirección del viento	0
119071	7	Sololá	702	San José Chacayá	5	Chacayá	9	Septiembre	2023-09-13T00:00:00	2024-11-06T04:00:00	1	Precipitación	0.25
119072	7	Sololá	702	San José Chacayá	5	Chacayá	9	Septiembre	2023-09-13T00:00:00	2024-11-06T04:00:00	8	Radiación solar	0
119073	7	Sololá	702	San José Chacayá	5	Chacayá	9	Septiembre	2023-09-13T00:00:00	2024-11-06T05:00:00	2	Temperatura media	13.6
119074	7	Sololá	702	San José Chacayá	5	Chacayá	9	Septiembre	2023-09-13T00:00:00	2024-11-06T05:00:00	4	Temperatura máxima	13.9
119075	7	Sololá	702	San José Chacayá	5	Chacayá	9	Septiembre	2023-09-13T00:00:00	2024-11-06T05:00:00	3	Temperatura mínima	13.6
119076	7	Sololá	702	San José Chacayá	5	Chacayá	9	Septiembre	2023-09-13T00:00:00	2024-11-06T05:00:00	5	Humedad	95
119077	7	Sololá	702	San José Chacayá	5	Chacayá	9	Septiembre	2023-09-13T00:00:00	2024-11-06T05:00:00	6	Velocidad del viento	0
119078	7	Sololá	702	San José Chacayá	5	Chacayá	9	Septiembre	2023-09-13T00:00:00	2024-11-06T05:00:00	7	Dirección del viento	0
119079	7	Sololá	702	San José Chacayá	5	Chacayá	9	Septiembre	2023-09-13T00:00:00	2024-11-06T05:00:00	1	Precipitación	0
119080	7	Sololá	702	San José Chacayá	5	Chacayá	9	Septiembre	2023-09-13T00:00:00	2024-11-06T05:00:00	8	Radiación solar	0
119081	7	Sololá	702	San José Chacayá	5	Chacayá	9	Septiembre	2023-09-13T00:00:00	2024-11-06T06:00:00	2	Temperatura media	12.9
119082	7	Sololá	702	San José Chacayá	5	Chacayá	9	Septiembre	2023-09-13T00:00:00	2024-11-06T06:00:00	4	Temperatura máxima	13.3
119083	7	Sololá	702	San José Chacayá	5	Chacayá	9	Septiembre	2023-09-13T00:00:00	2024-11-06T06:00:00	3	Temperatura mínima	12.9
119084	7	Sololá	702	San José Chacayá	5	Chacayá	9	Septiembre	2023-09-13T00:00:00	2024-11-06T06:00:00	5	Humedad	95
119085	7	Sololá	702	San José Chacayá	5	Chacayá	9	Septiembre	2023-09-13T00:00:00	2024-11-06T06:00:00	6	Velocidad del viento	0
119086	7	Sololá	702	San José Chacayá	5	Chacayá	9	Septiembre	2023-09-13T00:00:00	2024-11-06T06:00:00	7	Dirección del viento	0
119087	7	Sololá	702	San José Chacayá	5	Chacayá	9	Septiembre	2023-09-13T00:00:00	2024-11-06T06:00:00	1	Precipitación	0
119088	7	Sololá	702	San José Chacayá	5	Chacayá	9	Septiembre	2023-09-13T00:00:00	2024-11-06T06:00:00	8	Radiación solar	1
119089	7	Sololá	702	San José Chacayá	5	Chacayá	9	Septiembre	2023-09-13T00:00:00	2024-11-06T07:00:00	2	Temperatura media	13.4
119090	7	Sololá	702	San José Chacayá	5	Chacayá	9	Septiembre	2023-09-13T00:00:00	2024-11-06T07:00:00	4	Temperatura máxima	13.4
119091	7	Sololá	702	San José Chacayá	5	Chacayá	9	Septiembre	2023-09-13T00:00:00	2024-11-06T07:00:00	3	Temperatura mínima	12.9
119092	7	Sololá	702	San José Chacayá	5	Chacayá	9	Septiembre	2023-09-13T00:00:00	2024-11-06T07:00:00	5	Humedad	94
119093	7	Sololá	702	San José Chacayá	5	Chacayá	9	Septiembre	2023-09-13T00:00:00	2024-11-06T07:00:00	6	Velocidad del viento	1.6
119094	7	Sololá	702	San José Chacayá	5	Chacayá	9	Septiembre	2023-09-13T00:00:00	2024-11-06T07:00:00	7	Dirección del viento	0.8
119095	7	Sololá	702	San José Chacayá	5	Chacayá	9	Septiembre	2023-09-13T00:00:00	2024-11-06T07:00:00	1	Precipitación	0
119096	7	Sololá	702	San José Chacayá	5	Chacayá	9	Septiembre	2023-09-13T00:00:00	2024-11-06T07:00:00	8	Radiación solar	25
119097	7	Sololá	702	San José Chacayá	5	Chacayá	9	Septiembre	2023-09-13T00:00:00	2024-11-06T08:00:00	2	Temperatura media	15.3
119098	7	Sololá	702	San José Chacayá	5	Chacayá	9	Septiembre	2023-09-13T00:00:00	2024-11-06T08:00:00	4	Temperatura máxima	15.3
119099	7	Sololá	702	San José Chacayá	5	Chacayá	9	Septiembre	2023-09-13T00:00:00	2024-11-06T08:00:00	3	Temperatura mínima	14.1
119100	7	Sololá	702	San José Chacayá	5	Chacayá	9	Septiembre	2023-09-13T00:00:00	2024-11-06T08:00:00	5	Humedad	93
119101	7	Sololá	702	San José Chacayá	5	Chacayá	9	Septiembre	2023-09-13T00:00:00	2024-11-06T08:00:00	6	Velocidad del viento	0
119102	7	Sololá	702	San José Chacayá	5	Chacayá	9	Septiembre	2023-09-13T00:00:00	2024-11-06T08:00:00	7	Dirección del viento	0
119103	7	Sololá	702	San José Chacayá	5	Chacayá	9	Septiembre	2023-09-13T00:00:00	2024-11-06T08:00:00	1	Precipitación	0
119104	7	Sololá	702	San José Chacayá	5	Chacayá	9	Septiembre	2023-09-13T00:00:00	2024-11-06T08:00:00	8	Radiación solar	117
119105	7	Sololá	702	San José Chacayá	5	Chacayá	9	Septiembre	2023-09-13T00:00:00	2024-11-06T09:00:00	2	Temperatura media	21.3
119106	7	Sololá	702	San José Chacayá	5	Chacayá	9	Septiembre	2023-09-13T00:00:00	2024-11-06T09:00:00	4	Temperatura máxima	21.3
119107	7	Sololá	702	San José Chacayá	5	Chacayá	9	Septiembre	2023-09-13T00:00:00	2024-11-06T09:00:00	3	Temperatura mínima	17.8
119108	7	Sololá	702	San José Chacayá	5	Chacayá	9	Septiembre	2023-09-13T00:00:00	2024-11-06T09:00:00	5	Humedad	73
119109	7	Sololá	702	San José Chacayá	5	Chacayá	9	Septiembre	2023-09-13T00:00:00	2024-11-06T09:00:00	6	Velocidad del viento	1.6
119110	7	Sololá	702	San José Chacayá	5	Chacayá	9	Septiembre	2023-09-13T00:00:00	2024-11-06T09:00:00	7	Dirección del viento	0.8
119111	7	Sololá	702	San José Chacayá	5	Chacayá	9	Septiembre	2023-09-13T00:00:00	2024-11-06T09:00:00	1	Precipitación	0
119112	7	Sololá	702	San José Chacayá	5	Chacayá	9	Septiembre	2023-09-13T00:00:00	2024-11-06T09:00:00	8	Radiación solar	588
119113	7	Sololá	702	San José Chacayá	5	Chacayá	9	Septiembre	2023-09-13T00:00:00	2024-11-06T10:00:00	2	Temperatura media	21.2
119114	7	Sololá	702	San José Chacayá	5	Chacayá	9	Septiembre	2023-09-13T00:00:00	2024-11-06T10:00:00	4	Temperatura máxima	21.8
119115	7	Sololá	702	San José Chacayá	5	Chacayá	9	Septiembre	2023-09-13T00:00:00	2024-11-06T10:00:00	3	Temperatura mínima	21.1
119116	7	Sololá	702	San José Chacayá	5	Chacayá	9	Septiembre	2023-09-13T00:00:00	2024-11-06T10:00:00	5	Humedad	75
119117	7	Sololá	702	San José Chacayá	5	Chacayá	9	Septiembre	2023-09-13T00:00:00	2024-11-06T10:00:00	6	Velocidad del viento	3.2
119118	7	Sololá	702	San José Chacayá	5	Chacayá	9	Septiembre	2023-09-13T00:00:00	2024-11-06T10:00:00	7	Dirección del viento	1.61
119119	7	Sololá	702	San José Chacayá	5	Chacayá	9	Septiembre	2023-09-13T00:00:00	2024-11-06T10:00:00	1	Precipitación	0
119120	7	Sololá	702	San José Chacayá	5	Chacayá	9	Septiembre	2023-09-13T00:00:00	2024-11-06T10:00:00	8	Radiación solar	825
119121	7	Sololá	702	San José Chacayá	5	Chacayá	9	Septiembre	2023-09-13T00:00:00	2024-11-06T11:00:00	2	Temperatura media	23.3
119122	7	Sololá	702	San José Chacayá	5	Chacayá	9	Septiembre	2023-09-13T00:00:00	2024-11-06T11:00:00	4	Temperatura máxima	23.3
119123	7	Sololá	702	San José Chacayá	5	Chacayá	9	Septiembre	2023-09-13T00:00:00	2024-11-06T11:00:00	3	Temperatura mínima	22.8
119124	7	Sololá	702	San José Chacayá	5	Chacayá	9	Septiembre	2023-09-13T00:00:00	2024-11-06T11:00:00	5	Humedad	68
119125	7	Sololá	702	San José Chacayá	5	Chacayá	9	Septiembre	2023-09-13T00:00:00	2024-11-06T11:00:00	6	Velocidad del viento	4.8
119126	7	Sololá	702	San José Chacayá	5	Chacayá	9	Septiembre	2023-09-13T00:00:00	2024-11-06T11:00:00	7	Dirección del viento	2.41
119127	7	Sololá	702	San José Chacayá	5	Chacayá	9	Septiembre	2023-09-13T00:00:00	2024-11-06T11:00:00	1	Precipitación	0
119128	7	Sololá	702	San José Chacayá	5	Chacayá	9	Septiembre	2023-09-13T00:00:00	2024-11-06T11:00:00	8	Radiación solar	809
119129	7	Sololá	702	San José Chacayá	5	Chacayá	9	Septiembre	2023-09-13T00:00:00	2024-11-06T12:00:00	2	Temperatura media	22.7
119130	7	Sololá	702	San José Chacayá	5	Chacayá	9	Septiembre	2023-09-13T00:00:00	2024-11-06T12:00:00	4	Temperatura máxima	23.7
119131	7	Sololá	702	San José Chacayá	5	Chacayá	9	Septiembre	2023-09-13T00:00:00	2024-11-06T12:00:00	3	Temperatura mínima	22.7
119132	7	Sololá	702	San José Chacayá	5	Chacayá	9	Septiembre	2023-09-13T00:00:00	2024-11-06T12:00:00	5	Humedad	67
119133	7	Sololá	702	San José Chacayá	5	Chacayá	9	Septiembre	2023-09-13T00:00:00	2024-11-06T12:00:00	6	Velocidad del viento	6.4
119134	7	Sololá	702	San José Chacayá	5	Chacayá	9	Septiembre	2023-09-13T00:00:00	2024-11-06T12:00:00	7	Dirección del viento	3.22
119135	7	Sololá	702	San José Chacayá	5	Chacayá	9	Septiembre	2023-09-13T00:00:00	2024-11-06T12:00:00	1	Precipitación	0
119136	7	Sololá	702	San José Chacayá	5	Chacayá	9	Septiembre	2023-09-13T00:00:00	2024-11-06T12:00:00	8	Radiación solar	291
119137	7	Sololá	702	San José Chacayá	5	Chacayá	9	Septiembre	2023-09-13T00:00:00	2024-11-06T13:00:00	2	Temperatura media	21.6
119138	7	Sololá	702	San José Chacayá	5	Chacayá	9	Septiembre	2023-09-13T00:00:00	2024-11-06T13:00:00	4	Temperatura máxima	21.9
119139	7	Sololá	702	San José Chacayá	5	Chacayá	9	Septiembre	2023-09-13T00:00:00	2024-11-06T13:00:00	3	Temperatura mínima	21.3
119140	7	Sololá	702	San José Chacayá	5	Chacayá	9	Septiembre	2023-09-13T00:00:00	2024-11-06T13:00:00	5	Humedad	72
119141	7	Sololá	702	San José Chacayá	5	Chacayá	9	Septiembre	2023-09-13T00:00:00	2024-11-06T13:00:00	6	Velocidad del viento	6.4
119142	7	Sololá	702	San José Chacayá	5	Chacayá	9	Septiembre	2023-09-13T00:00:00	2024-11-06T13:00:00	7	Dirección del viento	3.22
119143	7	Sololá	702	San José Chacayá	5	Chacayá	9	Septiembre	2023-09-13T00:00:00	2024-11-06T13:00:00	1	Precipitación	0
119144	7	Sololá	702	San José Chacayá	5	Chacayá	9	Septiembre	2023-09-13T00:00:00	2024-11-06T13:00:00	8	Radiación solar	83
119145	7	Sololá	702	San José Chacayá	5	Chacayá	9	Septiembre	2023-09-13T00:00:00	2024-11-06T14:00:00	2	Temperatura media	19.4
119146	7	Sololá	702	San José Chacayá	5	Chacayá	9	Septiembre	2023-09-13T00:00:00	2024-11-06T14:00:00	4	Temperatura máxima	21.7
119147	7	Sololá	702	San José Chacayá	5	Chacayá	9	Septiembre	2023-09-13T00:00:00	2024-11-06T14:00:00	3	Temperatura mínima	19.4
119148	7	Sololá	702	San José Chacayá	5	Chacayá	9	Septiembre	2023-09-13T00:00:00	2024-11-06T14:00:00	5	Humedad	80
119149	7	Sololá	702	San José Chacayá	5	Chacayá	9	Septiembre	2023-09-13T00:00:00	2024-11-06T14:00:00	6	Velocidad del viento	6.4
119150	7	Sololá	702	San José Chacayá	5	Chacayá	9	Septiembre	2023-09-13T00:00:00	2024-11-06T14:00:00	7	Dirección del viento	3.22
119151	7	Sololá	702	San José Chacayá	5	Chacayá	9	Septiembre	2023-09-13T00:00:00	2024-11-06T14:00:00	1	Precipitación	0
119152	7	Sololá	702	San José Chacayá	5	Chacayá	9	Septiembre	2023-09-13T00:00:00	2024-11-06T14:00:00	8	Radiación solar	337
119153	7	Sololá	702	San José Chacayá	5	Chacayá	9	Septiembre	2023-09-13T00:00:00	2024-11-06T15:00:00	2	Temperatura media	18.8
119154	7	Sololá	702	San José Chacayá	5	Chacayá	9	Septiembre	2023-09-13T00:00:00	2024-11-06T15:00:00	4	Temperatura máxima	20.3
119155	7	Sololá	702	San José Chacayá	5	Chacayá	9	Septiembre	2023-09-13T00:00:00	2024-11-06T15:00:00	3	Temperatura mínima	18.8
119156	7	Sololá	702	San José Chacayá	5	Chacayá	9	Septiembre	2023-09-13T00:00:00	2024-11-06T15:00:00	5	Humedad	85
119157	7	Sololá	702	San José Chacayá	5	Chacayá	9	Septiembre	2023-09-13T00:00:00	2024-11-06T15:00:00	6	Velocidad del viento	4.8
119158	7	Sololá	702	San José Chacayá	5	Chacayá	9	Septiembre	2023-09-13T00:00:00	2024-11-06T15:00:00	7	Dirección del viento	2.41
119159	7	Sololá	702	San José Chacayá	5	Chacayá	9	Septiembre	2023-09-13T00:00:00	2024-11-06T15:00:00	1	Precipitación	3.56
119160	7	Sololá	702	San José Chacayá	5	Chacayá	9	Septiembre	2023-09-13T00:00:00	2024-11-06T15:00:00	8	Radiación solar	200
119161	7	Sololá	702	San José Chacayá	5	Chacayá	9	Septiembre	2023-09-13T00:00:00	2024-11-06T16:00:00	2	Temperatura media	17.1
119162	7	Sololá	702	San José Chacayá	5	Chacayá	9	Septiembre	2023-09-13T00:00:00	2024-11-06T16:00:00	4	Temperatura máxima	17.3
119163	7	Sololá	702	San José Chacayá	5	Chacayá	9	Septiembre	2023-09-13T00:00:00	2024-11-06T16:00:00	3	Temperatura mínima	17
119164	7	Sololá	702	San José Chacayá	5	Chacayá	9	Septiembre	2023-09-13T00:00:00	2024-11-06T16:00:00	5	Humedad	93
119165	7	Sololá	702	San José Chacayá	5	Chacayá	9	Septiembre	2023-09-13T00:00:00	2024-11-06T16:00:00	6	Velocidad del viento	0
119166	7	Sololá	702	San José Chacayá	5	Chacayá	9	Septiembre	2023-09-13T00:00:00	2024-11-06T16:00:00	7	Dirección del viento	0
119167	7	Sololá	702	San José Chacayá	5	Chacayá	9	Septiembre	2023-09-13T00:00:00	2024-11-06T16:00:00	1	Precipitación	0
119168	7	Sololá	702	San José Chacayá	5	Chacayá	9	Septiembre	2023-09-13T00:00:00	2024-11-06T16:00:00	8	Radiación solar	17
119169	7	Sololá	702	San José Chacayá	5	Chacayá	9	Septiembre	2023-09-13T00:00:00	2024-11-06T17:00:00	2	Temperatura media	16.9
119170	7	Sololá	702	San José Chacayá	5	Chacayá	9	Septiembre	2023-09-13T00:00:00	2024-11-06T17:00:00	4	Temperatura máxima	17.1
119171	7	Sololá	702	San José Chacayá	5	Chacayá	9	Septiembre	2023-09-13T00:00:00	2024-11-06T17:00:00	3	Temperatura mínima	16.9
119172	7	Sololá	702	San José Chacayá	5	Chacayá	9	Septiembre	2023-09-13T00:00:00	2024-11-06T17:00:00	5	Humedad	93
119173	7	Sololá	702	San José Chacayá	5	Chacayá	9	Septiembre	2023-09-13T00:00:00	2024-11-06T17:00:00	6	Velocidad del viento	0
119174	7	Sololá	702	San José Chacayá	5	Chacayá	9	Septiembre	2023-09-13T00:00:00	2024-11-06T17:00:00	7	Dirección del viento	0
119175	7	Sololá	702	San José Chacayá	5	Chacayá	9	Septiembre	2023-09-13T00:00:00	2024-11-06T17:00:00	1	Precipitación	5.59
119176	7	Sololá	702	San José Chacayá	5	Chacayá	9	Septiembre	2023-09-13T00:00:00	2024-11-06T17:00:00	8	Radiación solar	15
119177	7	Sololá	702	San José Chacayá	5	Chacayá	9	Septiembre	2023-09-13T00:00:00	2024-11-06T18:00:00	2	Temperatura media	16.5
119178	7	Sololá	702	San José Chacayá	5	Chacayá	9	Septiembre	2023-09-13T00:00:00	2024-11-06T18:00:00	4	Temperatura máxima	16.8
119179	7	Sololá	702	San José Chacayá	5	Chacayá	9	Septiembre	2023-09-13T00:00:00	2024-11-06T18:00:00	3	Temperatura mínima	16.4
119180	7	Sololá	702	San José Chacayá	5	Chacayá	9	Septiembre	2023-09-13T00:00:00	2024-11-06T18:00:00	5	Humedad	94
119181	7	Sololá	702	San José Chacayá	5	Chacayá	9	Septiembre	2023-09-13T00:00:00	2024-11-06T18:00:00	6	Velocidad del viento	0
119182	7	Sololá	702	San José Chacayá	5	Chacayá	9	Septiembre	2023-09-13T00:00:00	2024-11-06T18:00:00	7	Dirección del viento	0
119183	7	Sololá	702	San José Chacayá	5	Chacayá	9	Septiembre	2023-09-13T00:00:00	2024-11-06T18:00:00	1	Precipitación	2.54
119184	7	Sololá	702	San José Chacayá	5	Chacayá	9	Septiembre	2023-09-13T00:00:00	2024-11-06T18:00:00	8	Radiación solar	13
119185	7	Sololá	702	San José Chacayá	5	Chacayá	9	Septiembre	2023-09-13T00:00:00	2024-11-06T19:00:00	2	Temperatura media	16.3
119186	7	Sololá	702	San José Chacayá	5	Chacayá	9	Septiembre	2023-09-13T00:00:00	2024-11-06T19:00:00	4	Temperatura máxima	16.3
119187	7	Sololá	702	San José Chacayá	5	Chacayá	9	Septiembre	2023-09-13T00:00:00	2024-11-06T19:00:00	3	Temperatura mínima	16.2
119188	7	Sololá	702	San José Chacayá	5	Chacayá	9	Septiembre	2023-09-13T00:00:00	2024-11-06T19:00:00	5	Humedad	94
119189	7	Sololá	702	San José Chacayá	5	Chacayá	9	Septiembre	2023-09-13T00:00:00	2024-11-06T19:00:00	6	Velocidad del viento	0
119190	7	Sololá	702	San José Chacayá	5	Chacayá	9	Septiembre	2023-09-13T00:00:00	2024-11-06T19:00:00	7	Dirección del viento	0
119191	7	Sololá	702	San José Chacayá	5	Chacayá	9	Septiembre	2023-09-13T00:00:00	2024-11-06T19:00:00	1	Precipitación	0.51
119192	7	Sololá	702	San José Chacayá	5	Chacayá	9	Septiembre	2023-09-13T00:00:00	2024-11-06T19:00:00	8	Radiación solar	0
119193	7	Sololá	702	San José Chacayá	5	Chacayá	9	Septiembre	2023-09-13T00:00:00	2024-11-06T20:00:00	2	Temperatura media	15.4
119194	7	Sololá	702	San José Chacayá	5	Chacayá	9	Septiembre	2023-09-13T00:00:00	2024-11-06T20:00:00	4	Temperatura máxima	15.7
119195	7	Sololá	702	San José Chacayá	5	Chacayá	9	Septiembre	2023-09-13T00:00:00	2024-11-06T20:00:00	3	Temperatura mínima	15.3
119196	7	Sololá	702	San José Chacayá	5	Chacayá	9	Septiembre	2023-09-13T00:00:00	2024-11-06T20:00:00	5	Humedad	93
119197	7	Sololá	702	San José Chacayá	5	Chacayá	9	Septiembre	2023-09-13T00:00:00	2024-11-06T20:00:00	6	Velocidad del viento	0
119198	7	Sololá	702	San José Chacayá	5	Chacayá	9	Septiembre	2023-09-13T00:00:00	2024-11-06T20:00:00	7	Dirección del viento	0
119199	7	Sololá	702	San José Chacayá	5	Chacayá	9	Septiembre	2023-09-13T00:00:00	2024-11-06T20:00:00	1	Precipitación	0.51
119200	7	Sololá	702	San José Chacayá	5	Chacayá	9	Septiembre	2023-09-13T00:00:00	2024-11-06T20:00:00	8	Radiación solar	0
119201	7	Sololá	702	San José Chacayá	5	Chacayá	9	Septiembre	2023-09-13T00:00:00	2024-11-06T21:00:00	2	Temperatura media	15.2
119202	7	Sololá	702	San José Chacayá	5	Chacayá	9	Septiembre	2023-09-13T00:00:00	2024-11-06T21:00:00	4	Temperatura máxima	15.3
119203	7	Sololá	702	San José Chacayá	5	Chacayá	9	Septiembre	2023-09-13T00:00:00	2024-11-06T21:00:00	3	Temperatura mínima	15.2
119204	7	Sololá	702	San José Chacayá	5	Chacayá	9	Septiembre	2023-09-13T00:00:00	2024-11-06T21:00:00	5	Humedad	94
119205	7	Sololá	702	San José Chacayá	5	Chacayá	9	Septiembre	2023-09-13T00:00:00	2024-11-06T21:00:00	6	Velocidad del viento	0
119206	7	Sololá	702	San José Chacayá	5	Chacayá	9	Septiembre	2023-09-13T00:00:00	2024-11-06T21:00:00	7	Dirección del viento	0
119207	7	Sololá	702	San José Chacayá	5	Chacayá	9	Septiembre	2023-09-13T00:00:00	2024-11-06T21:00:00	1	Precipitación	0
119208	7	Sololá	702	San José Chacayá	5	Chacayá	9	Septiembre	2023-09-13T00:00:00	2024-11-06T21:00:00	8	Radiación solar	0
119209	7	Sololá	702	San José Chacayá	5	Chacayá	9	Septiembre	2023-09-13T00:00:00	2024-11-06T22:00:00	2	Temperatura media	15.2
119210	7	Sololá	702	San José Chacayá	5	Chacayá	9	Septiembre	2023-09-13T00:00:00	2024-11-06T22:00:00	4	Temperatura máxima	15.3
119211	7	Sololá	702	San José Chacayá	5	Chacayá	9	Septiembre	2023-09-13T00:00:00	2024-11-06T22:00:00	3	Temperatura mínima	15.2
119212	7	Sololá	702	San José Chacayá	5	Chacayá	9	Septiembre	2023-09-13T00:00:00	2024-11-06T22:00:00	5	Humedad	93
119213	7	Sololá	702	San José Chacayá	5	Chacayá	9	Septiembre	2023-09-13T00:00:00	2024-11-06T22:00:00	6	Velocidad del viento	0
119214	7	Sololá	702	San José Chacayá	5	Chacayá	9	Septiembre	2023-09-13T00:00:00	2024-11-06T22:00:00	7	Dirección del viento	0
119215	7	Sololá	702	San José Chacayá	5	Chacayá	9	Septiembre	2023-09-13T00:00:00	2024-11-06T22:00:00	1	Precipitación	1.01
119216	7	Sololá	702	San José Chacayá	5	Chacayá	9	Septiembre	2023-09-13T00:00:00	2024-11-06T22:00:00	8	Radiación solar	0
119217	7	Sololá	702	San José Chacayá	5	Chacayá	9	Septiembre	2023-09-13T00:00:00	2024-11-06T23:00:00	2	Temperatura media	15.1
119218	7	Sololá	702	San José Chacayá	5	Chacayá	9	Septiembre	2023-09-13T00:00:00	2024-11-06T23:00:00	4	Temperatura máxima	15.1
119219	7	Sololá	702	San José Chacayá	5	Chacayá	9	Septiembre	2023-09-13T00:00:00	2024-11-06T23:00:00	3	Temperatura mínima	15
119220	7	Sololá	702	San José Chacayá	5	Chacayá	9	Septiembre	2023-09-13T00:00:00	2024-11-06T23:00:00	5	Humedad	95
119221	7	Sololá	702	San José Chacayá	5	Chacayá	9	Septiembre	2023-09-13T00:00:00	2024-11-06T23:00:00	6	Velocidad del viento	0
119222	7	Sololá	702	San José Chacayá	5	Chacayá	9	Septiembre	2023-09-13T00:00:00	2024-11-06T23:00:00	7	Dirección del viento	0
119223	7	Sololá	702	San José Chacayá	5	Chacayá	9	Septiembre	2023-09-13T00:00:00	2024-11-06T23:00:00	1	Precipitación	0
119224	7	Sololá	702	San José Chacayá	5	Chacayá	9	Septiembre	2023-09-13T00:00:00	2024-11-06T23:00:00	8	Radiación solar	0
119225	7	Sololá	702	San José Chacayá	5	Chacayá	9	Septiembre	2023-09-14T00:00:00	2024-11-06T00:00:00	2	Temperatura media	14.7
119226	7	Sololá	702	San José Chacayá	5	Chacayá	9	Septiembre	2023-09-14T00:00:00	2024-11-06T00:00:00	4	Temperatura máxima	14.9
119227	7	Sololá	702	San José Chacayá	5	Chacayá	9	Septiembre	2023-09-14T00:00:00	2024-11-06T00:00:00	3	Temperatura mínima	14.7
119228	7	Sololá	702	San José Chacayá	5	Chacayá	9	Septiembre	2023-09-14T00:00:00	2024-11-06T00:00:00	5	Humedad	92
119229	7	Sololá	702	San José Chacayá	5	Chacayá	9	Septiembre	2023-09-14T00:00:00	2024-11-06T00:00:00	6	Velocidad del viento	0
119230	7	Sololá	702	San José Chacayá	5	Chacayá	9	Septiembre	2023-09-14T00:00:00	2024-11-06T00:00:00	7	Dirección del viento	0
119231	7	Sololá	702	San José Chacayá	5	Chacayá	9	Septiembre	2023-09-14T00:00:00	2024-11-06T00:00:00	1	Precipitación	0.25
119232	7	Sololá	702	San José Chacayá	5	Chacayá	9	Septiembre	2023-09-14T00:00:00	2024-11-06T00:00:00	8	Radiación solar	0
119233	7	Sololá	702	San José Chacayá	5	Chacayá	9	Septiembre	2023-09-14T00:00:00	2024-11-06T01:00:00	2	Temperatura media	14.3
119234	7	Sololá	702	San José Chacayá	5	Chacayá	9	Septiembre	2023-09-14T00:00:00	2024-11-06T01:00:00	4	Temperatura máxima	14.6
119235	7	Sololá	702	San José Chacayá	5	Chacayá	9	Septiembre	2023-09-14T00:00:00	2024-11-06T01:00:00	3	Temperatura mínima	14.3
119236	7	Sololá	702	San José Chacayá	5	Chacayá	9	Septiembre	2023-09-14T00:00:00	2024-11-06T01:00:00	5	Humedad	93
119237	7	Sololá	702	San José Chacayá	5	Chacayá	9	Septiembre	2023-09-14T00:00:00	2024-11-06T01:00:00	6	Velocidad del viento	0
119238	7	Sololá	702	San José Chacayá	5	Chacayá	9	Septiembre	2023-09-14T00:00:00	2024-11-06T01:00:00	7	Dirección del viento	0
119239	7	Sololá	702	San José Chacayá	5	Chacayá	9	Septiembre	2023-09-14T00:00:00	2024-11-06T01:00:00	1	Precipitación	0
119240	7	Sololá	702	San José Chacayá	5	Chacayá	9	Septiembre	2023-09-14T00:00:00	2024-11-06T01:00:00	8	Radiación solar	0
119241	7	Sololá	702	San José Chacayá	5	Chacayá	9	Septiembre	2023-09-14T00:00:00	2024-11-06T02:00:00	2	Temperatura media	13.9
119242	7	Sololá	702	San José Chacayá	5	Chacayá	9	Septiembre	2023-09-14T00:00:00	2024-11-06T02:00:00	4	Temperatura máxima	14.1
119243	7	Sololá	702	San José Chacayá	5	Chacayá	9	Septiembre	2023-09-14T00:00:00	2024-11-06T02:00:00	3	Temperatura mínima	13.9
119244	7	Sololá	702	San José Chacayá	5	Chacayá	9	Septiembre	2023-09-14T00:00:00	2024-11-06T02:00:00	5	Humedad	90
119245	7	Sololá	702	San José Chacayá	5	Chacayá	9	Septiembre	2023-09-14T00:00:00	2024-11-06T02:00:00	6	Velocidad del viento	1.6
119246	7	Sololá	702	San José Chacayá	5	Chacayá	9	Septiembre	2023-09-14T00:00:00	2024-11-06T02:00:00	7	Dirección del viento	0.8
119247	7	Sololá	702	San José Chacayá	5	Chacayá	9	Septiembre	2023-09-14T00:00:00	2024-11-06T02:00:00	1	Precipitación	0
119248	7	Sololá	702	San José Chacayá	5	Chacayá	9	Septiembre	2023-09-14T00:00:00	2024-11-06T02:00:00	8	Radiación solar	0
119249	7	Sololá	702	San José Chacayá	5	Chacayá	9	Septiembre	2023-09-14T00:00:00	2024-11-06T03:00:00	2	Temperatura media	12.9
119250	7	Sololá	702	San José Chacayá	5	Chacayá	9	Septiembre	2023-09-14T00:00:00	2024-11-06T03:00:00	4	Temperatura máxima	13.7
119251	7	Sololá	702	San José Chacayá	5	Chacayá	9	Septiembre	2023-09-14T00:00:00	2024-11-06T03:00:00	3	Temperatura mínima	12.9
119252	7	Sololá	702	San José Chacayá	5	Chacayá	9	Septiembre	2023-09-14T00:00:00	2024-11-06T03:00:00	5	Humedad	93
119253	7	Sololá	702	San José Chacayá	5	Chacayá	9	Septiembre	2023-09-14T00:00:00	2024-11-06T03:00:00	6	Velocidad del viento	0
119254	7	Sololá	702	San José Chacayá	5	Chacayá	9	Septiembre	2023-09-14T00:00:00	2024-11-06T03:00:00	7	Dirección del viento	0
119255	7	Sololá	702	San José Chacayá	5	Chacayá	9	Septiembre	2023-09-14T00:00:00	2024-11-06T03:00:00	1	Precipitación	0
119256	7	Sololá	702	San José Chacayá	5	Chacayá	9	Septiembre	2023-09-14T00:00:00	2024-11-06T03:00:00	8	Radiación solar	0
119257	7	Sololá	702	San José Chacayá	5	Chacayá	9	Septiembre	2023-09-14T00:00:00	2024-11-06T04:00:00	2	Temperatura media	12.2
119258	7	Sololá	702	San José Chacayá	5	Chacayá	9	Septiembre	2023-09-14T00:00:00	2024-11-06T04:00:00	4	Temperatura máxima	12.5
119259	7	Sololá	702	San José Chacayá	5	Chacayá	9	Septiembre	2023-09-14T00:00:00	2024-11-06T04:00:00	3	Temperatura mínima	12.1
119260	7	Sololá	702	San José Chacayá	5	Chacayá	9	Septiembre	2023-09-14T00:00:00	2024-11-06T04:00:00	5	Humedad	93
119261	7	Sololá	702	San José Chacayá	5	Chacayá	9	Septiembre	2023-09-14T00:00:00	2024-11-06T04:00:00	6	Velocidad del viento	0
119262	7	Sololá	702	San José Chacayá	5	Chacayá	9	Septiembre	2023-09-14T00:00:00	2024-11-06T04:00:00	7	Dirección del viento	0
119263	7	Sololá	702	San José Chacayá	5	Chacayá	9	Septiembre	2023-09-14T00:00:00	2024-11-06T04:00:00	1	Precipitación	0
119264	7	Sololá	702	San José Chacayá	5	Chacayá	9	Septiembre	2023-09-14T00:00:00	2024-11-06T04:00:00	8	Radiación solar	0
119265	7	Sololá	702	San José Chacayá	5	Chacayá	9	Septiembre	2023-09-14T00:00:00	2024-11-06T05:00:00	2	Temperatura media	11.8
119266	7	Sololá	702	San José Chacayá	5	Chacayá	9	Septiembre	2023-09-14T00:00:00	2024-11-06T05:00:00	4	Temperatura máxima	11.9
119267	7	Sololá	702	San José Chacayá	5	Chacayá	9	Septiembre	2023-09-14T00:00:00	2024-11-06T05:00:00	3	Temperatura mínima	11.7
119268	7	Sololá	702	San José Chacayá	5	Chacayá	9	Septiembre	2023-09-14T00:00:00	2024-11-06T05:00:00	5	Humedad	94
119269	7	Sololá	702	San José Chacayá	5	Chacayá	9	Septiembre	2023-09-14T00:00:00	2024-11-06T05:00:00	6	Velocidad del viento	1.6
119270	7	Sololá	702	San José Chacayá	5	Chacayá	9	Septiembre	2023-09-14T00:00:00	2024-11-06T05:00:00	7	Dirección del viento	0.8
119271	7	Sololá	702	San José Chacayá	5	Chacayá	9	Septiembre	2023-09-14T00:00:00	2024-11-06T05:00:00	1	Precipitación	0
119272	7	Sololá	702	San José Chacayá	5	Chacayá	9	Septiembre	2023-09-14T00:00:00	2024-11-06T05:00:00	8	Radiación solar	0
119273	7	Sololá	702	San José Chacayá	5	Chacayá	9	Septiembre	2023-09-14T00:00:00	2024-11-06T06:00:00	2	Temperatura media	11.7
119274	7	Sololá	702	San José Chacayá	5	Chacayá	9	Septiembre	2023-09-14T00:00:00	2024-11-06T06:00:00	4	Temperatura máxima	11.8
119275	7	Sololá	702	San José Chacayá	5	Chacayá	9	Septiembre	2023-09-14T00:00:00	2024-11-06T06:00:00	3	Temperatura mínima	11.7
119276	7	Sololá	702	San José Chacayá	5	Chacayá	9	Septiembre	2023-09-14T00:00:00	2024-11-06T06:00:00	5	Humedad	94
119277	7	Sololá	702	San José Chacayá	5	Chacayá	9	Septiembre	2023-09-14T00:00:00	2024-11-06T06:00:00	6	Velocidad del viento	0
119278	7	Sololá	702	San José Chacayá	5	Chacayá	9	Septiembre	2023-09-14T00:00:00	2024-11-06T06:00:00	7	Dirección del viento	0
119279	7	Sololá	702	San José Chacayá	5	Chacayá	9	Septiembre	2023-09-14T00:00:00	2024-11-06T06:00:00	1	Precipitación	0
119280	7	Sololá	702	San José Chacayá	5	Chacayá	9	Septiembre	2023-09-14T00:00:00	2024-11-06T06:00:00	8	Radiación solar	1
119281	7	Sololá	702	San José Chacayá	5	Chacayá	9	Septiembre	2023-09-14T00:00:00	2024-11-06T07:00:00	2	Temperatura media	12.2
119282	7	Sololá	702	San José Chacayá	5	Chacayá	9	Septiembre	2023-09-14T00:00:00	2024-11-06T07:00:00	4	Temperatura máxima	12.2
119283	7	Sololá	702	San José Chacayá	5	Chacayá	9	Septiembre	2023-09-14T00:00:00	2024-11-06T07:00:00	3	Temperatura mínima	11.7
119284	7	Sololá	702	San José Chacayá	5	Chacayá	9	Septiembre	2023-09-14T00:00:00	2024-11-06T07:00:00	5	Humedad	96
119285	7	Sololá	702	San José Chacayá	5	Chacayá	9	Septiembre	2023-09-14T00:00:00	2024-11-06T07:00:00	6	Velocidad del viento	0
119286	7	Sololá	702	San José Chacayá	5	Chacayá	9	Septiembre	2023-09-14T00:00:00	2024-11-06T07:00:00	7	Dirección del viento	0
119287	7	Sololá	702	San José Chacayá	5	Chacayá	9	Septiembre	2023-09-14T00:00:00	2024-11-06T07:00:00	1	Precipitación	0
119288	7	Sololá	702	San José Chacayá	5	Chacayá	9	Septiembre	2023-09-14T00:00:00	2024-11-06T07:00:00	8	Radiación solar	58
119289	7	Sololá	702	San José Chacayá	5	Chacayá	9	Septiembre	2023-09-14T00:00:00	2024-11-06T08:00:00	2	Temperatura media	14.3
119290	7	Sololá	702	San José Chacayá	5	Chacayá	9	Septiembre	2023-09-14T00:00:00	2024-11-06T08:00:00	4	Temperatura máxima	14.3
119291	7	Sololá	702	San José Chacayá	5	Chacayá	9	Septiembre	2023-09-14T00:00:00	2024-11-06T08:00:00	3	Temperatura mínima	13.1
119292	7	Sololá	702	San José Chacayá	5	Chacayá	9	Septiembre	2023-09-14T00:00:00	2024-11-06T08:00:00	5	Humedad	95
119293	7	Sololá	702	San José Chacayá	5	Chacayá	9	Septiembre	2023-09-14T00:00:00	2024-11-06T08:00:00	6	Velocidad del viento	0
119294	7	Sololá	702	San José Chacayá	5	Chacayá	9	Septiembre	2023-09-14T00:00:00	2024-11-06T08:00:00	7	Dirección del viento	0
119295	7	Sololá	702	San José Chacayá	5	Chacayá	9	Septiembre	2023-09-14T00:00:00	2024-11-06T08:00:00	1	Precipitación	0
119296	7	Sololá	702	San José Chacayá	5	Chacayá	9	Septiembre	2023-09-14T00:00:00	2024-11-06T08:00:00	8	Radiación solar	150
119297	7	Sololá	702	San José Chacayá	5	Chacayá	9	Septiembre	2023-09-14T00:00:00	2024-11-06T09:00:00	2	Temperatura media	17.5
119298	7	Sololá	702	San José Chacayá	5	Chacayá	9	Septiembre	2023-09-14T00:00:00	2024-11-06T09:00:00	4	Temperatura máxima	17.5
119299	7	Sololá	702	San José Chacayá	5	Chacayá	9	Septiembre	2023-09-14T00:00:00	2024-11-06T09:00:00	3	Temperatura mínima	15.6
119300	7	Sololá	702	San José Chacayá	5	Chacayá	9	Septiembre	2023-09-14T00:00:00	2024-11-06T09:00:00	5	Humedad	77
119301	7	Sololá	702	San José Chacayá	5	Chacayá	9	Septiembre	2023-09-14T00:00:00	2024-11-06T09:00:00	6	Velocidad del viento	1.6
119302	7	Sololá	702	San José Chacayá	5	Chacayá	9	Septiembre	2023-09-14T00:00:00	2024-11-06T09:00:00	7	Dirección del viento	0.8
119303	7	Sololá	702	San José Chacayá	5	Chacayá	9	Septiembre	2023-09-14T00:00:00	2024-11-06T09:00:00	1	Precipitación	0
119304	7	Sololá	702	San José Chacayá	5	Chacayá	9	Septiembre	2023-09-14T00:00:00	2024-11-06T09:00:00	8	Radiación solar	538
119305	7	Sololá	702	San José Chacayá	5	Chacayá	9	Septiembre	2023-09-14T00:00:00	2024-11-06T10:00:00	2	Temperatura media	21.1
119306	7	Sololá	702	San José Chacayá	5	Chacayá	9	Septiembre	2023-09-14T00:00:00	2024-11-06T10:00:00	4	Temperatura máxima	21.4
119307	7	Sololá	702	San José Chacayá	5	Chacayá	9	Septiembre	2023-09-14T00:00:00	2024-11-06T10:00:00	3	Temperatura mínima	19.6
119308	7	Sololá	702	San José Chacayá	5	Chacayá	9	Septiembre	2023-09-14T00:00:00	2024-11-06T10:00:00	5	Humedad	69
119309	7	Sololá	702	San José Chacayá	5	Chacayá	9	Septiembre	2023-09-14T00:00:00	2024-11-06T10:00:00	6	Velocidad del viento	3.2
119310	7	Sololá	702	San José Chacayá	5	Chacayá	9	Septiembre	2023-09-14T00:00:00	2024-11-06T10:00:00	7	Dirección del viento	1.61
119311	7	Sololá	702	San José Chacayá	5	Chacayá	9	Septiembre	2023-09-14T00:00:00	2024-11-06T10:00:00	1	Precipitación	0
119312	7	Sololá	702	San José Chacayá	5	Chacayá	9	Septiembre	2023-09-14T00:00:00	2024-11-06T10:00:00	8	Radiación solar	772
119313	7	Sololá	702	San José Chacayá	5	Chacayá	9	Septiembre	2023-09-14T00:00:00	2024-11-06T11:00:00	2	Temperatura media	22.6
119314	7	Sololá	702	San José Chacayá	5	Chacayá	9	Septiembre	2023-09-14T00:00:00	2024-11-06T11:00:00	4	Temperatura máxima	23.2
119315	7	Sololá	702	San José Chacayá	5	Chacayá	9	Septiembre	2023-09-14T00:00:00	2024-11-06T11:00:00	3	Temperatura mínima	22.4
119316	7	Sololá	702	San José Chacayá	5	Chacayá	9	Septiembre	2023-09-14T00:00:00	2024-11-06T11:00:00	5	Humedad	61
119317	7	Sololá	702	San José Chacayá	5	Chacayá	9	Septiembre	2023-09-14T00:00:00	2024-11-06T11:00:00	6	Velocidad del viento	4.8
119318	7	Sololá	702	San José Chacayá	5	Chacayá	9	Septiembre	2023-09-14T00:00:00	2024-11-06T11:00:00	7	Dirección del viento	2.41
119319	7	Sololá	702	San José Chacayá	5	Chacayá	9	Septiembre	2023-09-14T00:00:00	2024-11-06T11:00:00	1	Precipitación	0
119320	7	Sololá	702	San José Chacayá	5	Chacayá	9	Septiembre	2023-09-14T00:00:00	2024-11-06T11:00:00	8	Radiación solar	927
119321	7	Sololá	702	San José Chacayá	5	Chacayá	9	Septiembre	2023-09-14T00:00:00	2024-11-06T12:00:00	2	Temperatura media	23.7
119322	7	Sololá	702	San José Chacayá	5	Chacayá	9	Septiembre	2023-09-14T00:00:00	2024-11-06T12:00:00	4	Temperatura máxima	23.7
119323	7	Sololá	702	San José Chacayá	5	Chacayá	9	Septiembre	2023-09-14T00:00:00	2024-11-06T12:00:00	3	Temperatura mínima	22.6
119324	7	Sololá	702	San José Chacayá	5	Chacayá	9	Septiembre	2023-09-14T00:00:00	2024-11-06T12:00:00	5	Humedad	62
119325	7	Sololá	702	San José Chacayá	5	Chacayá	9	Septiembre	2023-09-14T00:00:00	2024-11-06T12:00:00	6	Velocidad del viento	4.8
119326	7	Sololá	702	San José Chacayá	5	Chacayá	9	Septiembre	2023-09-14T00:00:00	2024-11-06T12:00:00	7	Dirección del viento	2.41
119327	7	Sololá	702	San José Chacayá	5	Chacayá	9	Septiembre	2023-09-14T00:00:00	2024-11-06T12:00:00	1	Precipitación	0
119328	7	Sololá	702	San José Chacayá	5	Chacayá	9	Septiembre	2023-09-14T00:00:00	2024-11-06T12:00:00	8	Radiación solar	778
119329	7	Sololá	702	San José Chacayá	5	Chacayá	9	Septiembre	2023-09-14T00:00:00	2024-11-06T13:00:00	2	Temperatura media	23.2
119330	7	Sololá	702	San José Chacayá	5	Chacayá	9	Septiembre	2023-09-14T00:00:00	2024-11-06T13:00:00	4	Temperatura máxima	23.2
119331	7	Sololá	702	San José Chacayá	5	Chacayá	9	Septiembre	2023-09-14T00:00:00	2024-11-06T13:00:00	3	Temperatura mínima	22.7
119332	7	Sololá	702	San José Chacayá	5	Chacayá	9	Septiembre	2023-09-14T00:00:00	2024-11-06T13:00:00	5	Humedad	62
119333	7	Sololá	702	San José Chacayá	5	Chacayá	9	Septiembre	2023-09-14T00:00:00	2024-11-06T13:00:00	6	Velocidad del viento	6.4
119334	7	Sololá	702	San José Chacayá	5	Chacayá	9	Septiembre	2023-09-14T00:00:00	2024-11-06T13:00:00	7	Dirección del viento	3.22
119335	7	Sololá	702	San José Chacayá	5	Chacayá	9	Septiembre	2023-09-14T00:00:00	2024-11-06T13:00:00	1	Precipitación	0
119336	7	Sololá	702	San José Chacayá	5	Chacayá	9	Septiembre	2023-09-14T00:00:00	2024-11-06T13:00:00	8	Radiación solar	348
119337	7	Sololá	702	San José Chacayá	5	Chacayá	9	Septiembre	2023-09-14T00:00:00	2024-11-06T14:00:00	2	Temperatura media	24.3
119338	7	Sololá	702	San José Chacayá	5	Chacayá	9	Septiembre	2023-09-14T00:00:00	2024-11-06T14:00:00	4	Temperatura máxima	24.7
119339	7	Sololá	702	San José Chacayá	5	Chacayá	9	Septiembre	2023-09-14T00:00:00	2024-11-06T14:00:00	3	Temperatura mínima	23.4
119340	7	Sololá	702	San José Chacayá	5	Chacayá	9	Septiembre	2023-09-14T00:00:00	2024-11-06T14:00:00	5	Humedad	65
119341	7	Sololá	702	San José Chacayá	5	Chacayá	9	Septiembre	2023-09-14T00:00:00	2024-11-06T14:00:00	6	Velocidad del viento	4.8
119342	7	Sololá	702	San José Chacayá	5	Chacayá	9	Septiembre	2023-09-14T00:00:00	2024-11-06T14:00:00	7	Dirección del viento	2.41
119343	7	Sololá	702	San José Chacayá	5	Chacayá	9	Septiembre	2023-09-14T00:00:00	2024-11-06T14:00:00	1	Precipitación	0
119344	7	Sololá	702	San José Chacayá	5	Chacayá	9	Septiembre	2023-09-14T00:00:00	2024-11-06T14:00:00	8	Radiación solar	424
119345	7	Sololá	702	San José Chacayá	5	Chacayá	9	Septiembre	2023-09-14T00:00:00	2024-11-06T15:00:00	2	Temperatura media	21.3
119346	7	Sololá	702	San José Chacayá	5	Chacayá	9	Septiembre	2023-09-14T00:00:00	2024-11-06T15:00:00	4	Temperatura máxima	22.3
119347	7	Sololá	702	San José Chacayá	5	Chacayá	9	Septiembre	2023-09-14T00:00:00	2024-11-06T15:00:00	3	Temperatura mínima	21.3
119348	7	Sololá	702	San José Chacayá	5	Chacayá	9	Septiembre	2023-09-14T00:00:00	2024-11-06T15:00:00	5	Humedad	75
119349	7	Sololá	702	San José Chacayá	5	Chacayá	9	Septiembre	2023-09-14T00:00:00	2024-11-06T15:00:00	6	Velocidad del viento	4.8
119350	7	Sololá	702	San José Chacayá	5	Chacayá	9	Septiembre	2023-09-14T00:00:00	2024-11-06T15:00:00	7	Dirección del viento	2.41
119351	7	Sololá	702	San José Chacayá	5	Chacayá	9	Septiembre	2023-09-14T00:00:00	2024-11-06T15:00:00	1	Precipitación	0
119352	7	Sololá	702	San José Chacayá	5	Chacayá	9	Septiembre	2023-09-14T00:00:00	2024-11-06T15:00:00	8	Radiación solar	508
119353	7	Sololá	702	San José Chacayá	5	Chacayá	9	Septiembre	2023-09-14T00:00:00	2024-11-06T16:00:00	2	Temperatura media	20
119354	7	Sololá	702	San José Chacayá	5	Chacayá	9	Septiembre	2023-09-14T00:00:00	2024-11-06T16:00:00	4	Temperatura máxima	20.2
119355	7	Sololá	702	San José Chacayá	5	Chacayá	9	Septiembre	2023-09-14T00:00:00	2024-11-06T16:00:00	3	Temperatura mínima	19.9
119356	7	Sololá	702	San José Chacayá	5	Chacayá	9	Septiembre	2023-09-14T00:00:00	2024-11-06T16:00:00	5	Humedad	80
119357	7	Sololá	702	San José Chacayá	5	Chacayá	9	Septiembre	2023-09-14T00:00:00	2024-11-06T16:00:00	6	Velocidad del viento	3.2
119358	7	Sololá	702	San José Chacayá	5	Chacayá	9	Septiembre	2023-09-14T00:00:00	2024-11-06T16:00:00	7	Dirección del viento	1.61
119359	7	Sololá	702	San José Chacayá	5	Chacayá	9	Septiembre	2023-09-14T00:00:00	2024-11-06T16:00:00	1	Precipitación	0
119360	7	Sololá	702	San José Chacayá	5	Chacayá	9	Septiembre	2023-09-14T00:00:00	2024-11-06T16:00:00	8	Radiación solar	216
119361	7	Sololá	702	San José Chacayá	5	Chacayá	9	Septiembre	2023-09-14T00:00:00	2024-11-06T17:00:00	2	Temperatura media	18.8
119362	7	Sololá	702	San José Chacayá	5	Chacayá	9	Septiembre	2023-09-14T00:00:00	2024-11-06T17:00:00	4	Temperatura máxima	19.5
119363	7	Sololá	702	San José Chacayá	5	Chacayá	9	Septiembre	2023-09-14T00:00:00	2024-11-06T17:00:00	3	Temperatura mínima	18.8
119364	7	Sololá	702	San José Chacayá	5	Chacayá	9	Septiembre	2023-09-14T00:00:00	2024-11-06T17:00:00	5	Humedad	84
119365	7	Sololá	702	San José Chacayá	5	Chacayá	9	Septiembre	2023-09-14T00:00:00	2024-11-06T17:00:00	6	Velocidad del viento	1.6
119366	7	Sololá	702	San José Chacayá	5	Chacayá	9	Septiembre	2023-09-14T00:00:00	2024-11-06T17:00:00	7	Dirección del viento	0.8
119367	7	Sololá	702	San José Chacayá	5	Chacayá	9	Septiembre	2023-09-14T00:00:00	2024-11-06T17:00:00	1	Precipitación	0
119368	7	Sololá	702	San José Chacayá	5	Chacayá	9	Septiembre	2023-09-14T00:00:00	2024-11-06T17:00:00	8	Radiación solar	107
119369	7	Sololá	702	San José Chacayá	5	Chacayá	9	Septiembre	2023-09-14T00:00:00	2024-11-06T18:00:00	2	Temperatura media	17.3
119370	7	Sololá	702	San José Chacayá	5	Chacayá	9	Septiembre	2023-09-14T00:00:00	2024-11-06T18:00:00	4	Temperatura máxima	17.7
119371	7	Sololá	702	San José Chacayá	5	Chacayá	9	Septiembre	2023-09-14T00:00:00	2024-11-06T18:00:00	3	Temperatura mínima	17.3
119372	7	Sololá	702	San José Chacayá	5	Chacayá	9	Septiembre	2023-09-14T00:00:00	2024-11-06T18:00:00	5	Humedad	89
119373	7	Sololá	702	San José Chacayá	5	Chacayá	9	Septiembre	2023-09-14T00:00:00	2024-11-06T18:00:00	6	Velocidad del viento	1.6
119374	7	Sololá	702	San José Chacayá	5	Chacayá	9	Septiembre	2023-09-14T00:00:00	2024-11-06T18:00:00	7	Dirección del viento	0.8
119375	7	Sololá	702	San José Chacayá	5	Chacayá	9	Septiembre	2023-09-14T00:00:00	2024-11-06T18:00:00	1	Precipitación	0
119376	7	Sololá	702	San José Chacayá	5	Chacayá	9	Septiembre	2023-09-14T00:00:00	2024-11-06T18:00:00	8	Radiación solar	6
119377	7	Sololá	702	San José Chacayá	5	Chacayá	9	Septiembre	2023-09-14T00:00:00	2024-11-06T19:00:00	2	Temperatura media	16.2
119378	7	Sololá	702	San José Chacayá	5	Chacayá	9	Septiembre	2023-09-14T00:00:00	2024-11-06T19:00:00	4	Temperatura máxima	16.8
119379	7	Sololá	702	San José Chacayá	5	Chacayá	9	Septiembre	2023-09-14T00:00:00	2024-11-06T19:00:00	3	Temperatura mínima	16.2
119380	7	Sololá	702	San José Chacayá	5	Chacayá	9	Septiembre	2023-09-14T00:00:00	2024-11-06T19:00:00	5	Humedad	91
119381	7	Sololá	702	San José Chacayá	5	Chacayá	9	Septiembre	2023-09-14T00:00:00	2024-11-06T19:00:00	6	Velocidad del viento	0
119382	7	Sololá	702	San José Chacayá	5	Chacayá	9	Septiembre	2023-09-14T00:00:00	2024-11-06T19:00:00	7	Dirección del viento	0
119383	7	Sololá	702	San José Chacayá	5	Chacayá	9	Septiembre	2023-09-14T00:00:00	2024-11-06T19:00:00	1	Precipitación	0
119384	7	Sololá	702	San José Chacayá	5	Chacayá	9	Septiembre	2023-09-14T00:00:00	2024-11-06T19:00:00	8	Radiación solar	0
119385	7	Sololá	702	San José Chacayá	5	Chacayá	9	Septiembre	2023-09-14T00:00:00	2024-11-06T20:00:00	2	Temperatura media	15.2
119386	7	Sololá	702	San José Chacayá	5	Chacayá	9	Septiembre	2023-09-14T00:00:00	2024-11-06T20:00:00	4	Temperatura máxima	15.6
119387	7	Sololá	702	San José Chacayá	5	Chacayá	9	Septiembre	2023-09-14T00:00:00	2024-11-06T20:00:00	3	Temperatura mínima	15.2
119388	7	Sololá	702	San José Chacayá	5	Chacayá	9	Septiembre	2023-09-14T00:00:00	2024-11-06T20:00:00	5	Humedad	92
119389	7	Sololá	702	San José Chacayá	5	Chacayá	9	Septiembre	2023-09-14T00:00:00	2024-11-06T20:00:00	6	Velocidad del viento	0
119390	7	Sololá	702	San José Chacayá	5	Chacayá	9	Septiembre	2023-09-14T00:00:00	2024-11-06T20:00:00	7	Dirección del viento	0
119391	7	Sololá	702	San José Chacayá	5	Chacayá	9	Septiembre	2023-09-14T00:00:00	2024-11-06T20:00:00	1	Precipitación	0
119392	7	Sololá	702	San José Chacayá	5	Chacayá	9	Septiembre	2023-09-14T00:00:00	2024-11-06T20:00:00	8	Radiación solar	0
119393	7	Sololá	702	San José Chacayá	5	Chacayá	9	Septiembre	2023-09-14T00:00:00	2024-11-06T21:00:00	2	Temperatura media	14.6
119394	7	Sololá	702	San José Chacayá	5	Chacayá	9	Septiembre	2023-09-14T00:00:00	2024-11-06T21:00:00	4	Temperatura máxima	14.8
119395	7	Sololá	702	San José Chacayá	5	Chacayá	9	Septiembre	2023-09-14T00:00:00	2024-11-06T21:00:00	3	Temperatura mínima	14.6
119396	7	Sololá	702	San José Chacayá	5	Chacayá	9	Septiembre	2023-09-14T00:00:00	2024-11-06T21:00:00	5	Humedad	93
119397	7	Sololá	702	San José Chacayá	5	Chacayá	9	Septiembre	2023-09-14T00:00:00	2024-11-06T21:00:00	6	Velocidad del viento	0
119398	7	Sololá	702	San José Chacayá	5	Chacayá	9	Septiembre	2023-09-14T00:00:00	2024-11-06T21:00:00	7	Dirección del viento	0
119399	7	Sololá	702	San José Chacayá	5	Chacayá	9	Septiembre	2023-09-14T00:00:00	2024-11-06T21:00:00	1	Precipitación	0
119400	7	Sololá	702	San José Chacayá	5	Chacayá	9	Septiembre	2023-09-14T00:00:00	2024-11-06T21:00:00	8	Radiación solar	0
119401	7	Sololá	702	San José Chacayá	5	Chacayá	9	Septiembre	2023-09-14T00:00:00	2024-11-06T22:00:00	2	Temperatura media	14.8
119402	7	Sololá	702	San José Chacayá	5	Chacayá	9	Septiembre	2023-09-14T00:00:00	2024-11-06T22:00:00	4	Temperatura máxima	14.8
119403	7	Sololá	702	San José Chacayá	5	Chacayá	9	Septiembre	2023-09-14T00:00:00	2024-11-06T22:00:00	3	Temperatura mínima	14.5
119404	7	Sololá	702	San José Chacayá	5	Chacayá	9	Septiembre	2023-09-14T00:00:00	2024-11-06T22:00:00	5	Humedad	94
119405	7	Sololá	702	San José Chacayá	5	Chacayá	9	Septiembre	2023-09-14T00:00:00	2024-11-06T22:00:00	6	Velocidad del viento	0
119406	7	Sololá	702	San José Chacayá	5	Chacayá	9	Septiembre	2023-09-14T00:00:00	2024-11-06T22:00:00	7	Dirección del viento	0
119407	7	Sololá	702	San José Chacayá	5	Chacayá	9	Septiembre	2023-09-14T00:00:00	2024-11-06T22:00:00	1	Precipitación	0
119408	7	Sololá	702	San José Chacayá	5	Chacayá	9	Septiembre	2023-09-14T00:00:00	2024-11-06T22:00:00	8	Radiación solar	0
119409	7	Sololá	702	San José Chacayá	5	Chacayá	9	Septiembre	2023-09-14T00:00:00	2024-11-06T23:00:00	2	Temperatura media	15.1
119410	7	Sololá	702	San José Chacayá	5	Chacayá	9	Septiembre	2023-09-14T00:00:00	2024-11-06T23:00:00	4	Temperatura máxima	15.2
119411	7	Sololá	702	San José Chacayá	5	Chacayá	9	Septiembre	2023-09-14T00:00:00	2024-11-06T23:00:00	3	Temperatura mínima	15.1
119412	7	Sololá	702	San José Chacayá	5	Chacayá	9	Septiembre	2023-09-14T00:00:00	2024-11-06T23:00:00	5	Humedad	93
119413	7	Sololá	702	San José Chacayá	5	Chacayá	9	Septiembre	2023-09-14T00:00:00	2024-11-06T23:00:00	6	Velocidad del viento	0
119414	7	Sololá	702	San José Chacayá	5	Chacayá	9	Septiembre	2023-09-14T00:00:00	2024-11-06T23:00:00	7	Dirección del viento	0
119415	7	Sololá	702	San José Chacayá	5	Chacayá	9	Septiembre	2023-09-14T00:00:00	2024-11-06T23:00:00	1	Precipitación	0
119416	7	Sololá	702	San José Chacayá	5	Chacayá	9	Septiembre	2023-09-14T00:00:00	2024-11-06T23:00:00	8	Radiación solar	0
119417	7	Sololá	702	San José Chacayá	5	Chacayá	9	Septiembre	2023-09-15T00:00:00	2024-11-06T00:00:00	2	Temperatura media	14.6
119418	7	Sololá	702	San José Chacayá	5	Chacayá	9	Septiembre	2023-09-15T00:00:00	2024-11-06T00:00:00	4	Temperatura máxima	14.8
119419	7	Sololá	702	San José Chacayá	5	Chacayá	9	Septiembre	2023-09-15T00:00:00	2024-11-06T00:00:00	3	Temperatura mínima	14.6
119420	7	Sololá	702	San José Chacayá	5	Chacayá	9	Septiembre	2023-09-15T00:00:00	2024-11-06T00:00:00	5	Humedad	92
119421	7	Sololá	702	San José Chacayá	5	Chacayá	9	Septiembre	2023-09-15T00:00:00	2024-11-06T00:00:00	6	Velocidad del viento	0
119422	7	Sololá	702	San José Chacayá	5	Chacayá	9	Septiembre	2023-09-15T00:00:00	2024-11-06T00:00:00	7	Dirección del viento	0
119423	7	Sololá	702	San José Chacayá	5	Chacayá	9	Septiembre	2023-09-15T00:00:00	2024-11-06T00:00:00	1	Precipitación	0
119424	7	Sololá	702	San José Chacayá	5	Chacayá	9	Septiembre	2023-09-15T00:00:00	2024-11-06T00:00:00	8	Radiación solar	0
119425	7	Sololá	702	San José Chacayá	5	Chacayá	9	Septiembre	2023-09-15T00:00:00	2024-11-06T01:00:00	2	Temperatura media	13.7
119426	7	Sololá	702	San José Chacayá	5	Chacayá	9	Septiembre	2023-09-15T00:00:00	2024-11-06T01:00:00	4	Temperatura máxima	14
119427	7	Sololá	702	San José Chacayá	5	Chacayá	9	Septiembre	2023-09-15T00:00:00	2024-11-06T01:00:00	3	Temperatura mínima	13.6
119428	7	Sololá	702	San José Chacayá	5	Chacayá	9	Septiembre	2023-09-15T00:00:00	2024-11-06T01:00:00	5	Humedad	93
119429	7	Sololá	702	San José Chacayá	5	Chacayá	9	Septiembre	2023-09-15T00:00:00	2024-11-06T01:00:00	6	Velocidad del viento	0
119430	7	Sololá	702	San José Chacayá	5	Chacayá	9	Septiembre	2023-09-15T00:00:00	2024-11-06T01:00:00	7	Dirección del viento	0
119431	7	Sololá	702	San José Chacayá	5	Chacayá	9	Septiembre	2023-09-15T00:00:00	2024-11-06T01:00:00	1	Precipitación	0
119432	7	Sololá	702	San José Chacayá	5	Chacayá	9	Septiembre	2023-09-15T00:00:00	2024-11-06T01:00:00	8	Radiación solar	0
119433	7	Sololá	702	San José Chacayá	5	Chacayá	9	Septiembre	2023-09-15T00:00:00	2024-11-06T02:00:00	2	Temperatura media	12.9
119434	7	Sololá	702	San José Chacayá	5	Chacayá	9	Septiembre	2023-09-15T00:00:00	2024-11-06T02:00:00	4	Temperatura máxima	13.3
119435	7	Sololá	702	San José Chacayá	5	Chacayá	9	Septiembre	2023-09-15T00:00:00	2024-11-06T02:00:00	3	Temperatura mínima	12.9
119436	7	Sololá	702	San José Chacayá	5	Chacayá	9	Septiembre	2023-09-15T00:00:00	2024-11-06T02:00:00	5	Humedad	93
119437	7	Sololá	702	San José Chacayá	5	Chacayá	9	Septiembre	2023-09-15T00:00:00	2024-11-06T02:00:00	6	Velocidad del viento	0
119438	7	Sololá	702	San José Chacayá	5	Chacayá	9	Septiembre	2023-09-15T00:00:00	2024-11-06T02:00:00	7	Dirección del viento	0
119439	7	Sololá	702	San José Chacayá	5	Chacayá	9	Septiembre	2023-09-15T00:00:00	2024-11-06T02:00:00	1	Precipitación	0
119440	7	Sololá	702	San José Chacayá	5	Chacayá	9	Septiembre	2023-09-15T00:00:00	2024-11-06T02:00:00	8	Radiación solar	0
119441	7	Sololá	702	San José Chacayá	5	Chacayá	9	Septiembre	2023-09-15T00:00:00	2024-11-06T03:00:00	2	Temperatura media	12.2
119442	7	Sololá	702	San José Chacayá	5	Chacayá	9	Septiembre	2023-09-15T00:00:00	2024-11-06T03:00:00	4	Temperatura máxima	12.5
119443	7	Sololá	702	San José Chacayá	5	Chacayá	9	Septiembre	2023-09-15T00:00:00	2024-11-06T03:00:00	3	Temperatura mínima	12.2
119444	7	Sololá	702	San José Chacayá	5	Chacayá	9	Septiembre	2023-09-15T00:00:00	2024-11-06T03:00:00	5	Humedad	94
119445	7	Sololá	702	San José Chacayá	5	Chacayá	9	Septiembre	2023-09-15T00:00:00	2024-11-06T03:00:00	6	Velocidad del viento	0
119446	7	Sololá	702	San José Chacayá	5	Chacayá	9	Septiembre	2023-09-15T00:00:00	2024-11-06T03:00:00	7	Dirección del viento	0
119447	7	Sololá	702	San José Chacayá	5	Chacayá	9	Septiembre	2023-09-15T00:00:00	2024-11-06T03:00:00	1	Precipitación	0
119448	7	Sololá	702	San José Chacayá	5	Chacayá	9	Septiembre	2023-09-15T00:00:00	2024-11-06T03:00:00	8	Radiación solar	0
119449	7	Sololá	702	San José Chacayá	5	Chacayá	9	Septiembre	2023-09-15T00:00:00	2024-11-06T04:00:00	2	Temperatura media	11.7
119450	7	Sololá	702	San José Chacayá	5	Chacayá	9	Septiembre	2023-09-15T00:00:00	2024-11-06T04:00:00	4	Temperatura máxima	11.9
119451	7	Sololá	702	San José Chacayá	5	Chacayá	9	Septiembre	2023-09-15T00:00:00	2024-11-06T04:00:00	3	Temperatura mínima	11.6
119452	7	Sololá	702	San José Chacayá	5	Chacayá	9	Septiembre	2023-09-15T00:00:00	2024-11-06T04:00:00	5	Humedad	95
119453	7	Sololá	702	San José Chacayá	5	Chacayá	9	Septiembre	2023-09-15T00:00:00	2024-11-06T04:00:00	6	Velocidad del viento	1.6
119454	7	Sololá	702	San José Chacayá	5	Chacayá	9	Septiembre	2023-09-15T00:00:00	2024-11-06T04:00:00	7	Dirección del viento	0.8
119455	7	Sololá	702	San José Chacayá	5	Chacayá	9	Septiembre	2023-09-15T00:00:00	2024-11-06T04:00:00	1	Precipitación	0.25
119456	7	Sololá	702	San José Chacayá	5	Chacayá	9	Septiembre	2023-09-15T00:00:00	2024-11-06T04:00:00	8	Radiación solar	0
119457	7	Sololá	702	San José Chacayá	5	Chacayá	9	Septiembre	2023-09-15T00:00:00	2024-11-06T05:00:00	2	Temperatura media	11.2
119458	7	Sololá	702	San José Chacayá	5	Chacayá	9	Septiembre	2023-09-15T00:00:00	2024-11-06T05:00:00	4	Temperatura máxima	11.3
119459	7	Sololá	702	San José Chacayá	5	Chacayá	9	Septiembre	2023-09-15T00:00:00	2024-11-06T05:00:00	3	Temperatura mínima	11.2
119460	7	Sololá	702	San José Chacayá	5	Chacayá	9	Septiembre	2023-09-15T00:00:00	2024-11-06T05:00:00	5	Humedad	95
119461	7	Sololá	702	San José Chacayá	5	Chacayá	9	Septiembre	2023-09-15T00:00:00	2024-11-06T05:00:00	6	Velocidad del viento	0
119462	7	Sololá	702	San José Chacayá	5	Chacayá	9	Septiembre	2023-09-15T00:00:00	2024-11-06T05:00:00	7	Dirección del viento	0
119463	7	Sololá	702	San José Chacayá	5	Chacayá	9	Septiembre	2023-09-15T00:00:00	2024-11-06T05:00:00	1	Precipitación	0
119464	7	Sololá	702	San José Chacayá	5	Chacayá	9	Septiembre	2023-09-15T00:00:00	2024-11-06T05:00:00	8	Radiación solar	0
119465	7	Sololá	702	San José Chacayá	5	Chacayá	9	Septiembre	2023-09-15T00:00:00	2024-11-06T06:00:00	2	Temperatura media	11.8
119466	7	Sololá	702	San José Chacayá	5	Chacayá	9	Septiembre	2023-09-15T00:00:00	2024-11-06T06:00:00	4	Temperatura máxima	11.8
119467	7	Sololá	702	San José Chacayá	5	Chacayá	9	Septiembre	2023-09-15T00:00:00	2024-11-06T06:00:00	3	Temperatura mínima	11.3
119468	7	Sololá	702	San José Chacayá	5	Chacayá	9	Septiembre	2023-09-15T00:00:00	2024-11-06T06:00:00	5	Humedad	96
119469	7	Sololá	702	San José Chacayá	5	Chacayá	9	Septiembre	2023-09-15T00:00:00	2024-11-06T06:00:00	6	Velocidad del viento	1.6
119470	7	Sololá	702	San José Chacayá	5	Chacayá	9	Septiembre	2023-09-15T00:00:00	2024-11-06T06:00:00	7	Dirección del viento	0.8
119471	7	Sololá	702	San José Chacayá	5	Chacayá	9	Septiembre	2023-09-15T00:00:00	2024-11-06T06:00:00	1	Precipitación	0
119472	7	Sololá	702	San José Chacayá	5	Chacayá	9	Septiembre	2023-09-15T00:00:00	2024-11-06T06:00:00	8	Radiación solar	1
119473	7	Sololá	702	San José Chacayá	5	Chacayá	9	Septiembre	2023-09-15T00:00:00	2024-11-06T07:00:00	2	Temperatura media	13.3
119474	7	Sololá	702	San José Chacayá	5	Chacayá	9	Septiembre	2023-09-15T00:00:00	2024-11-06T07:00:00	4	Temperatura máxima	13.3
119475	7	Sololá	702	San José Chacayá	5	Chacayá	9	Septiembre	2023-09-15T00:00:00	2024-11-06T07:00:00	3	Temperatura mínima	12.4
119476	7	Sololá	702	San José Chacayá	5	Chacayá	9	Septiembre	2023-09-15T00:00:00	2024-11-06T07:00:00	5	Humedad	94
119477	7	Sololá	702	San José Chacayá	5	Chacayá	9	Septiembre	2023-09-15T00:00:00	2024-11-06T07:00:00	6	Velocidad del viento	0
119478	7	Sololá	702	San José Chacayá	5	Chacayá	9	Septiembre	2023-09-15T00:00:00	2024-11-06T07:00:00	7	Dirección del viento	0
119479	7	Sololá	702	San José Chacayá	5	Chacayá	9	Septiembre	2023-09-15T00:00:00	2024-11-06T07:00:00	1	Precipitación	0
119480	7	Sololá	702	San José Chacayá	5	Chacayá	9	Septiembre	2023-09-15T00:00:00	2024-11-06T07:00:00	8	Radiación solar	52
119481	7	Sololá	702	San José Chacayá	5	Chacayá	9	Septiembre	2023-09-15T00:00:00	2024-11-06T08:00:00	2	Temperatura media	16.7
119482	7	Sololá	702	San José Chacayá	5	Chacayá	9	Septiembre	2023-09-15T00:00:00	2024-11-06T08:00:00	4	Temperatura máxima	16.7
119483	7	Sololá	702	San José Chacayá	5	Chacayá	9	Septiembre	2023-09-15T00:00:00	2024-11-06T08:00:00	3	Temperatura mínima	14.8
119484	7	Sololá	702	San José Chacayá	5	Chacayá	9	Septiembre	2023-09-15T00:00:00	2024-11-06T08:00:00	5	Humedad	77
119485	7	Sololá	702	San José Chacayá	5	Chacayá	9	Septiembre	2023-09-15T00:00:00	2024-11-06T08:00:00	6	Velocidad del viento	1.6
119486	7	Sololá	702	San José Chacayá	5	Chacayá	9	Septiembre	2023-09-15T00:00:00	2024-11-06T08:00:00	7	Dirección del viento	0.8
119487	7	Sololá	702	San José Chacayá	5	Chacayá	9	Septiembre	2023-09-15T00:00:00	2024-11-06T08:00:00	1	Precipitación	0
119488	7	Sololá	702	San José Chacayá	5	Chacayá	9	Septiembre	2023-09-15T00:00:00	2024-11-06T08:00:00	8	Radiación solar	139
119489	7	Sololá	702	San José Chacayá	5	Chacayá	9	Septiembre	2023-09-15T00:00:00	2024-11-06T09:00:00	2	Temperatura media	20.6
119490	7	Sololá	702	San José Chacayá	5	Chacayá	9	Septiembre	2023-09-15T00:00:00	2024-11-06T09:00:00	4	Temperatura máxima	20.6
119491	7	Sololá	702	San José Chacayá	5	Chacayá	9	Septiembre	2023-09-15T00:00:00	2024-11-06T09:00:00	3	Temperatura mínima	18.3
119492	7	Sololá	702	San José Chacayá	5	Chacayá	9	Septiembre	2023-09-15T00:00:00	2024-11-06T09:00:00	5	Humedad	64
119493	7	Sololá	702	San José Chacayá	5	Chacayá	9	Septiembre	2023-09-15T00:00:00	2024-11-06T09:00:00	6	Velocidad del viento	3.2
119494	7	Sololá	702	San José Chacayá	5	Chacayá	9	Septiembre	2023-09-15T00:00:00	2024-11-06T09:00:00	7	Dirección del viento	1.61
119495	7	Sololá	702	San José Chacayá	5	Chacayá	9	Septiembre	2023-09-15T00:00:00	2024-11-06T09:00:00	1	Precipitación	0
119496	7	Sololá	702	San José Chacayá	5	Chacayá	9	Septiembre	2023-09-15T00:00:00	2024-11-06T09:00:00	8	Radiación solar	589
119497	7	Sololá	702	San José Chacayá	5	Chacayá	9	Septiembre	2023-09-15T00:00:00	2024-11-06T10:00:00	2	Temperatura media	21.8
119498	7	Sololá	702	San José Chacayá	5	Chacayá	9	Septiembre	2023-09-15T00:00:00	2024-11-06T10:00:00	4	Temperatura máxima	21.8
119499	7	Sololá	702	San José Chacayá	5	Chacayá	9	Septiembre	2023-09-15T00:00:00	2024-11-06T10:00:00	3	Temperatura mínima	20.8
119500	7	Sololá	702	San José Chacayá	5	Chacayá	9	Septiembre	2023-09-15T00:00:00	2024-11-06T10:00:00	5	Humedad	64
119501	7	Sololá	702	San José Chacayá	5	Chacayá	9	Septiembre	2023-09-15T00:00:00	2024-11-06T10:00:00	6	Velocidad del viento	3.2
119502	7	Sololá	702	San José Chacayá	5	Chacayá	9	Septiembre	2023-09-15T00:00:00	2024-11-06T10:00:00	7	Dirección del viento	1.61
119503	7	Sololá	702	San José Chacayá	5	Chacayá	9	Septiembre	2023-09-15T00:00:00	2024-11-06T10:00:00	1	Precipitación	0
119504	7	Sololá	702	San José Chacayá	5	Chacayá	9	Septiembre	2023-09-15T00:00:00	2024-11-06T10:00:00	8	Radiación solar	829
119505	7	Sololá	702	San José Chacayá	5	Chacayá	9	Septiembre	2023-09-15T00:00:00	2024-11-06T11:00:00	2	Temperatura media	21.9
119506	7	Sololá	702	San José Chacayá	5	Chacayá	9	Septiembre	2023-09-15T00:00:00	2024-11-06T11:00:00	4	Temperatura máxima	21.9
119507	7	Sololá	702	San José Chacayá	5	Chacayá	9	Septiembre	2023-09-15T00:00:00	2024-11-06T11:00:00	3	Temperatura mínima	21.2
119508	7	Sololá	702	San José Chacayá	5	Chacayá	9	Septiembre	2023-09-15T00:00:00	2024-11-06T11:00:00	5	Humedad	62
119509	7	Sololá	702	San José Chacayá	5	Chacayá	9	Septiembre	2023-09-15T00:00:00	2024-11-06T11:00:00	6	Velocidad del viento	3.2
119510	7	Sololá	702	San José Chacayá	5	Chacayá	9	Septiembre	2023-09-15T00:00:00	2024-11-06T11:00:00	7	Dirección del viento	1.61
119511	7	Sololá	702	San José Chacayá	5	Chacayá	9	Septiembre	2023-09-15T00:00:00	2024-11-06T11:00:00	1	Precipitación	0
119512	7	Sololá	702	San José Chacayá	5	Chacayá	9	Septiembre	2023-09-15T00:00:00	2024-11-06T11:00:00	8	Radiación solar	693
119513	7	Sololá	702	San José Chacayá	5	Chacayá	9	Septiembre	2023-09-15T00:00:00	2024-11-06T12:00:00	2	Temperatura media	24
119514	7	Sololá	702	San José Chacayá	5	Chacayá	9	Septiembre	2023-09-15T00:00:00	2024-11-06T12:00:00	4	Temperatura máxima	24.1
119515	7	Sololá	702	San José Chacayá	5	Chacayá	9	Septiembre	2023-09-15T00:00:00	2024-11-06T12:00:00	3	Temperatura mínima	23.6
119516	7	Sololá	702	San José Chacayá	5	Chacayá	9	Septiembre	2023-09-15T00:00:00	2024-11-06T12:00:00	5	Humedad	52
119517	7	Sololá	702	San José Chacayá	5	Chacayá	9	Septiembre	2023-09-15T00:00:00	2024-11-06T12:00:00	6	Velocidad del viento	4.8
119518	7	Sololá	702	San José Chacayá	5	Chacayá	9	Septiembre	2023-09-15T00:00:00	2024-11-06T12:00:00	7	Dirección del viento	2.41
119519	7	Sololá	702	San José Chacayá	5	Chacayá	9	Septiembre	2023-09-15T00:00:00	2024-11-06T12:00:00	1	Precipitación	0
119520	7	Sololá	702	San José Chacayá	5	Chacayá	9	Septiembre	2023-09-15T00:00:00	2024-11-06T12:00:00	8	Radiación solar	410
119521	7	Sololá	702	San José Chacayá	5	Chacayá	9	Septiembre	2023-09-15T00:00:00	2024-11-06T13:00:00	2	Temperatura media	24.3
119522	7	Sololá	702	San José Chacayá	5	Chacayá	9	Septiembre	2023-09-15T00:00:00	2024-11-06T13:00:00	4	Temperatura máxima	24.4
119523	7	Sololá	702	San José Chacayá	5	Chacayá	9	Septiembre	2023-09-15T00:00:00	2024-11-06T13:00:00	3	Temperatura mínima	23.8
119524	7	Sololá	702	San José Chacayá	5	Chacayá	9	Septiembre	2023-09-15T00:00:00	2024-11-06T13:00:00	5	Humedad	61
119525	7	Sololá	702	San José Chacayá	5	Chacayá	9	Septiembre	2023-09-15T00:00:00	2024-11-06T13:00:00	6	Velocidad del viento	4.8
119526	7	Sololá	702	San José Chacayá	5	Chacayá	9	Septiembre	2023-09-15T00:00:00	2024-11-06T13:00:00	7	Dirección del viento	2.41
119527	7	Sololá	702	San José Chacayá	5	Chacayá	9	Septiembre	2023-09-15T00:00:00	2024-11-06T13:00:00	1	Precipitación	0
119528	7	Sololá	702	San José Chacayá	5	Chacayá	9	Septiembre	2023-09-15T00:00:00	2024-11-06T13:00:00	8	Radiación solar	494
119529	7	Sololá	702	San José Chacayá	5	Chacayá	9	Septiembre	2023-09-15T00:00:00	2024-11-06T14:00:00	2	Temperatura media	20.2
119530	7	Sololá	702	San José Chacayá	5	Chacayá	9	Septiembre	2023-09-15T00:00:00	2024-11-06T14:00:00	4	Temperatura máxima	23.1
119531	7	Sololá	702	San José Chacayá	5	Chacayá	9	Septiembre	2023-09-15T00:00:00	2024-11-06T14:00:00	3	Temperatura mínima	20.2
119532	7	Sololá	702	San José Chacayá	5	Chacayá	9	Septiembre	2023-09-15T00:00:00	2024-11-06T14:00:00	5	Humedad	75
119533	7	Sololá	702	San José Chacayá	5	Chacayá	9	Septiembre	2023-09-15T00:00:00	2024-11-06T14:00:00	6	Velocidad del viento	6.4
119534	7	Sololá	702	San José Chacayá	5	Chacayá	9	Septiembre	2023-09-15T00:00:00	2024-11-06T14:00:00	7	Dirección del viento	3.22
119535	7	Sololá	702	San José Chacayá	5	Chacayá	9	Septiembre	2023-09-15T00:00:00	2024-11-06T14:00:00	1	Precipitación	0
119536	7	Sololá	702	San José Chacayá	5	Chacayá	9	Septiembre	2023-09-15T00:00:00	2024-11-06T14:00:00	8	Radiación solar	133
119537	7	Sololá	702	San José Chacayá	5	Chacayá	9	Septiembre	2023-09-15T00:00:00	2024-11-06T15:00:00	2	Temperatura media	18.7
119538	7	Sololá	702	San José Chacayá	5	Chacayá	9	Septiembre	2023-09-15T00:00:00	2024-11-06T15:00:00	4	Temperatura máxima	20.1
119539	7	Sololá	702	San José Chacayá	5	Chacayá	9	Septiembre	2023-09-15T00:00:00	2024-11-06T15:00:00	3	Temperatura mínima	18.5
119540	7	Sololá	702	San José Chacayá	5	Chacayá	9	Septiembre	2023-09-15T00:00:00	2024-11-06T15:00:00	5	Humedad	84
119541	7	Sololá	702	San José Chacayá	5	Chacayá	9	Septiembre	2023-09-15T00:00:00	2024-11-06T15:00:00	6	Velocidad del viento	4.8
119542	7	Sololá	702	San José Chacayá	5	Chacayá	9	Septiembre	2023-09-15T00:00:00	2024-11-06T15:00:00	7	Dirección del viento	2.41
119543	7	Sololá	702	San José Chacayá	5	Chacayá	9	Septiembre	2023-09-15T00:00:00	2024-11-06T15:00:00	1	Precipitación	1.27
119544	7	Sololá	702	San José Chacayá	5	Chacayá	9	Septiembre	2023-09-15T00:00:00	2024-11-06T15:00:00	8	Radiación solar	88
119545	7	Sololá	702	San José Chacayá	5	Chacayá	9	Septiembre	2023-09-15T00:00:00	2024-11-06T16:00:00	2	Temperatura media	16.9
119546	7	Sololá	702	San José Chacayá	5	Chacayá	9	Septiembre	2023-09-15T00:00:00	2024-11-06T16:00:00	4	Temperatura máxima	17.8
119547	7	Sololá	702	San José Chacayá	5	Chacayá	9	Septiembre	2023-09-15T00:00:00	2024-11-06T16:00:00	3	Temperatura mínima	16.8
119548	7	Sololá	702	San José Chacayá	5	Chacayá	9	Septiembre	2023-09-15T00:00:00	2024-11-06T16:00:00	5	Humedad	92
119549	7	Sololá	702	San José Chacayá	5	Chacayá	9	Septiembre	2023-09-15T00:00:00	2024-11-06T16:00:00	6	Velocidad del viento	4.8
119550	7	Sololá	702	San José Chacayá	5	Chacayá	9	Septiembre	2023-09-15T00:00:00	2024-11-06T16:00:00	7	Dirección del viento	2.41
119551	7	Sololá	702	San José Chacayá	5	Chacayá	9	Septiembre	2023-09-15T00:00:00	2024-11-06T16:00:00	1	Precipitación	0
119552	7	Sololá	702	San José Chacayá	5	Chacayá	9	Septiembre	2023-09-15T00:00:00	2024-11-06T16:00:00	8	Radiación solar	210
119553	7	Sololá	702	San José Chacayá	5	Chacayá	9	Septiembre	2023-09-15T00:00:00	2024-11-06T17:00:00	2	Temperatura media	17
119554	7	Sololá	702	San José Chacayá	5	Chacayá	9	Septiembre	2023-09-15T00:00:00	2024-11-06T17:00:00	4	Temperatura máxima	17.1
119555	7	Sololá	702	San José Chacayá	5	Chacayá	9	Septiembre	2023-09-15T00:00:00	2024-11-06T17:00:00	3	Temperatura mínima	16.9
119556	7	Sololá	702	San José Chacayá	5	Chacayá	9	Septiembre	2023-09-15T00:00:00	2024-11-06T17:00:00	5	Humedad	89
119557	7	Sololá	702	San José Chacayá	5	Chacayá	9	Septiembre	2023-09-15T00:00:00	2024-11-06T17:00:00	6	Velocidad del viento	1.6
119558	7	Sololá	702	San José Chacayá	5	Chacayá	9	Septiembre	2023-09-15T00:00:00	2024-11-06T17:00:00	7	Dirección del viento	0.8
119559	7	Sololá	702	San José Chacayá	5	Chacayá	9	Septiembre	2023-09-15T00:00:00	2024-11-06T17:00:00	1	Precipitación	0
119560	7	Sololá	702	San José Chacayá	5	Chacayá	9	Septiembre	2023-09-15T00:00:00	2024-11-06T17:00:00	8	Radiación solar	117
119561	7	Sololá	702	San José Chacayá	5	Chacayá	9	Septiembre	2023-09-15T00:00:00	2024-11-06T18:00:00	2	Temperatura media	16.6
119562	7	Sololá	702	San José Chacayá	5	Chacayá	9	Septiembre	2023-09-15T00:00:00	2024-11-06T18:00:00	4	Temperatura máxima	16.8
119563	7	Sololá	702	San José Chacayá	5	Chacayá	9	Septiembre	2023-09-15T00:00:00	2024-11-06T18:00:00	3	Temperatura mínima	16.6
119564	7	Sololá	702	San José Chacayá	5	Chacayá	9	Septiembre	2023-09-15T00:00:00	2024-11-06T18:00:00	5	Humedad	91
119565	7	Sololá	702	San José Chacayá	5	Chacayá	9	Septiembre	2023-09-15T00:00:00	2024-11-06T18:00:00	6	Velocidad del viento	0
119566	7	Sololá	702	San José Chacayá	5	Chacayá	9	Septiembre	2023-09-15T00:00:00	2024-11-06T18:00:00	7	Dirección del viento	0
119567	7	Sololá	702	San José Chacayá	5	Chacayá	9	Septiembre	2023-09-15T00:00:00	2024-11-06T18:00:00	1	Precipitación	0.25
119568	7	Sololá	702	San José Chacayá	5	Chacayá	9	Septiembre	2023-09-15T00:00:00	2024-11-06T18:00:00	8	Radiación solar	45
119569	7	Sololá	702	San José Chacayá	5	Chacayá	9	Septiembre	2023-09-15T00:00:00	2024-11-06T19:00:00	2	Temperatura media	15.6
119570	7	Sololá	702	San José Chacayá	5	Chacayá	9	Septiembre	2023-09-15T00:00:00	2024-11-06T19:00:00	4	Temperatura máxima	16.3
119571	7	Sololá	702	San José Chacayá	5	Chacayá	9	Septiembre	2023-09-15T00:00:00	2024-11-06T19:00:00	3	Temperatura mínima	15.6
119572	7	Sololá	702	San José Chacayá	5	Chacayá	9	Septiembre	2023-09-15T00:00:00	2024-11-06T19:00:00	5	Humedad	92
119573	7	Sololá	702	San José Chacayá	5	Chacayá	9	Septiembre	2023-09-15T00:00:00	2024-11-06T19:00:00	6	Velocidad del viento	0
119574	7	Sololá	702	San José Chacayá	5	Chacayá	9	Septiembre	2023-09-15T00:00:00	2024-11-06T19:00:00	7	Dirección del viento	0
119575	7	Sololá	702	San José Chacayá	5	Chacayá	9	Septiembre	2023-09-15T00:00:00	2024-11-06T19:00:00	1	Precipitación	0
119576	7	Sololá	702	San José Chacayá	5	Chacayá	9	Septiembre	2023-09-15T00:00:00	2024-11-06T19:00:00	8	Radiación solar	0
119577	7	Sololá	702	San José Chacayá	5	Chacayá	9	Septiembre	2023-09-15T00:00:00	2024-11-06T20:00:00	2	Temperatura media	14.8
119578	7	Sololá	702	San José Chacayá	5	Chacayá	9	Septiembre	2023-09-15T00:00:00	2024-11-06T20:00:00	4	Temperatura máxima	15.1
119579	7	Sololá	702	San José Chacayá	5	Chacayá	9	Septiembre	2023-09-15T00:00:00	2024-11-06T20:00:00	3	Temperatura mínima	14.8
119580	7	Sololá	702	San José Chacayá	5	Chacayá	9	Septiembre	2023-09-15T00:00:00	2024-11-06T20:00:00	5	Humedad	93
119581	7	Sololá	702	San José Chacayá	5	Chacayá	9	Septiembre	2023-09-15T00:00:00	2024-11-06T20:00:00	6	Velocidad del viento	0
119582	7	Sololá	702	San José Chacayá	5	Chacayá	9	Septiembre	2023-09-15T00:00:00	2024-11-06T20:00:00	7	Dirección del viento	0
119583	7	Sololá	702	San José Chacayá	5	Chacayá	9	Septiembre	2023-09-15T00:00:00	2024-11-06T20:00:00	1	Precipitación	0
119584	7	Sololá	702	San José Chacayá	5	Chacayá	9	Septiembre	2023-09-15T00:00:00	2024-11-06T20:00:00	8	Radiación solar	0
119585	7	Sololá	702	San José Chacayá	5	Chacayá	9	Septiembre	2023-09-15T00:00:00	2024-11-06T21:00:00	2	Temperatura media	13.9
119586	7	Sololá	702	San José Chacayá	5	Chacayá	9	Septiembre	2023-09-15T00:00:00	2024-11-06T21:00:00	4	Temperatura máxima	14.6
119587	7	Sololá	702	San José Chacayá	5	Chacayá	9	Septiembre	2023-09-15T00:00:00	2024-11-06T21:00:00	3	Temperatura mínima	13.9
119588	7	Sololá	702	San José Chacayá	5	Chacayá	9	Septiembre	2023-09-15T00:00:00	2024-11-06T21:00:00	5	Humedad	93
119589	7	Sololá	702	San José Chacayá	5	Chacayá	9	Septiembre	2023-09-15T00:00:00	2024-11-06T21:00:00	6	Velocidad del viento	0
119590	7	Sololá	702	San José Chacayá	5	Chacayá	9	Septiembre	2023-09-15T00:00:00	2024-11-06T21:00:00	7	Dirección del viento	0
119591	7	Sololá	702	San José Chacayá	5	Chacayá	9	Septiembre	2023-09-15T00:00:00	2024-11-06T21:00:00	1	Precipitación	0
119592	7	Sololá	702	San José Chacayá	5	Chacayá	9	Septiembre	2023-09-15T00:00:00	2024-11-06T21:00:00	8	Radiación solar	0
119593	7	Sololá	702	San José Chacayá	5	Chacayá	9	Septiembre	2023-09-15T00:00:00	2024-11-06T22:00:00	2	Temperatura media	13.1
119594	7	Sololá	702	San José Chacayá	5	Chacayá	9	Septiembre	2023-09-15T00:00:00	2024-11-06T22:00:00	4	Temperatura máxima	13.4
119595	7	Sololá	702	San José Chacayá	5	Chacayá	9	Septiembre	2023-09-15T00:00:00	2024-11-06T22:00:00	3	Temperatura mínima	13.1
119596	7	Sololá	702	San José Chacayá	5	Chacayá	9	Septiembre	2023-09-15T00:00:00	2024-11-06T22:00:00	5	Humedad	94
119597	7	Sololá	702	San José Chacayá	5	Chacayá	9	Septiembre	2023-09-15T00:00:00	2024-11-06T22:00:00	6	Velocidad del viento	0
119598	7	Sololá	702	San José Chacayá	5	Chacayá	9	Septiembre	2023-09-15T00:00:00	2024-11-06T22:00:00	7	Dirección del viento	0
119599	7	Sololá	702	San José Chacayá	5	Chacayá	9	Septiembre	2023-09-15T00:00:00	2024-11-06T22:00:00	1	Precipitación	0
119600	7	Sololá	702	San José Chacayá	5	Chacayá	9	Septiembre	2023-09-15T00:00:00	2024-11-06T22:00:00	8	Radiación solar	0
119601	7	Sololá	702	San José Chacayá	5	Chacayá	9	Septiembre	2023-09-15T00:00:00	2024-11-06T23:00:00	2	Temperatura media	12.6
119602	7	Sololá	702	San José Chacayá	5	Chacayá	9	Septiembre	2023-09-15T00:00:00	2024-11-06T23:00:00	4	Temperatura máxima	12.9
119603	7	Sololá	702	San José Chacayá	5	Chacayá	9	Septiembre	2023-09-15T00:00:00	2024-11-06T23:00:00	3	Temperatura mínima	12.6
119604	7	Sololá	702	San José Chacayá	5	Chacayá	9	Septiembre	2023-09-15T00:00:00	2024-11-06T23:00:00	5	Humedad	94
119605	7	Sololá	702	San José Chacayá	5	Chacayá	9	Septiembre	2023-09-15T00:00:00	2024-11-06T23:00:00	6	Velocidad del viento	0
119606	7	Sololá	702	San José Chacayá	5	Chacayá	9	Septiembre	2023-09-15T00:00:00	2024-11-06T23:00:00	7	Dirección del viento	0
119607	7	Sololá	702	San José Chacayá	5	Chacayá	9	Septiembre	2023-09-15T00:00:00	2024-11-06T23:00:00	1	Precipitación	0
119608	7	Sololá	702	San José Chacayá	5	Chacayá	9	Septiembre	2023-09-15T00:00:00	2024-11-06T23:00:00	8	Radiación solar	0
119609	7	Sololá	702	San José Chacayá	5	Chacayá	9	Septiembre	2023-09-16T00:00:00	2024-11-06T00:00:00	2	Temperatura media	12.1
119610	7	Sololá	702	San José Chacayá	5	Chacayá	9	Septiembre	2023-09-16T00:00:00	2024-11-06T00:00:00	4	Temperatura máxima	12.3
119611	7	Sololá	702	San José Chacayá	5	Chacayá	9	Septiembre	2023-09-16T00:00:00	2024-11-06T00:00:00	3	Temperatura mínima	12
119612	7	Sololá	702	San José Chacayá	5	Chacayá	9	Septiembre	2023-09-16T00:00:00	2024-11-06T00:00:00	5	Humedad	94
119613	7	Sololá	702	San José Chacayá	5	Chacayá	9	Septiembre	2023-09-16T00:00:00	2024-11-06T00:00:00	6	Velocidad del viento	1.6
119614	7	Sololá	702	San José Chacayá	5	Chacayá	9	Septiembre	2023-09-16T00:00:00	2024-11-06T00:00:00	7	Dirección del viento	0.8
119615	7	Sololá	702	San José Chacayá	5	Chacayá	9	Septiembre	2023-09-16T00:00:00	2024-11-06T00:00:00	1	Precipitación	0
119616	7	Sololá	702	San José Chacayá	5	Chacayá	9	Septiembre	2023-09-16T00:00:00	2024-11-06T00:00:00	8	Radiación solar	0
119617	7	Sololá	702	San José Chacayá	5	Chacayá	9	Septiembre	2023-09-16T00:00:00	2024-11-06T01:00:00	2	Temperatura media	11.1
119618	7	Sololá	702	San José Chacayá	5	Chacayá	9	Septiembre	2023-09-16T00:00:00	2024-11-06T01:00:00	4	Temperatura máxima	11.6
119619	7	Sololá	702	San José Chacayá	5	Chacayá	9	Septiembre	2023-09-16T00:00:00	2024-11-06T01:00:00	3	Temperatura mínima	11.1
119620	7	Sololá	702	San José Chacayá	5	Chacayá	9	Septiembre	2023-09-16T00:00:00	2024-11-06T01:00:00	5	Humedad	94
119621	7	Sololá	702	San José Chacayá	5	Chacayá	9	Septiembre	2023-09-16T00:00:00	2024-11-06T01:00:00	6	Velocidad del viento	0
119622	7	Sololá	702	San José Chacayá	5	Chacayá	9	Septiembre	2023-09-16T00:00:00	2024-11-06T01:00:00	7	Dirección del viento	0
119623	7	Sololá	702	San José Chacayá	5	Chacayá	9	Septiembre	2023-09-16T00:00:00	2024-11-06T01:00:00	1	Precipitación	0
119624	7	Sololá	702	San José Chacayá	5	Chacayá	9	Septiembre	2023-09-16T00:00:00	2024-11-06T01:00:00	8	Radiación solar	0
119625	7	Sololá	702	San José Chacayá	5	Chacayá	9	Septiembre	2023-09-16T00:00:00	2024-11-06T02:00:00	2	Temperatura media	10.7
119626	7	Sololá	702	San José Chacayá	5	Chacayá	9	Septiembre	2023-09-16T00:00:00	2024-11-06T02:00:00	4	Temperatura máxima	11.1
119627	7	Sololá	702	San José Chacayá	5	Chacayá	9	Septiembre	2023-09-16T00:00:00	2024-11-06T02:00:00	3	Temperatura mínima	10.7
119628	7	Sololá	702	San José Chacayá	5	Chacayá	9	Septiembre	2023-09-16T00:00:00	2024-11-06T02:00:00	5	Humedad	93
119629	7	Sololá	702	San José Chacayá	5	Chacayá	9	Septiembre	2023-09-16T00:00:00	2024-11-06T02:00:00	6	Velocidad del viento	0
119630	7	Sololá	702	San José Chacayá	5	Chacayá	9	Septiembre	2023-09-16T00:00:00	2024-11-06T02:00:00	7	Dirección del viento	0
119631	7	Sololá	702	San José Chacayá	5	Chacayá	9	Septiembre	2023-09-16T00:00:00	2024-11-06T02:00:00	1	Precipitación	0
119632	7	Sololá	702	San José Chacayá	5	Chacayá	9	Septiembre	2023-09-16T00:00:00	2024-11-06T02:00:00	8	Radiación solar	0
119633	7	Sololá	702	San José Chacayá	5	Chacayá	9	Septiembre	2023-09-16T00:00:00	2024-11-06T03:00:00	2	Temperatura media	10.3
119634	7	Sololá	702	San José Chacayá	5	Chacayá	9	Septiembre	2023-09-16T00:00:00	2024-11-06T03:00:00	4	Temperatura máxima	10.6
119635	7	Sololá	702	San José Chacayá	5	Chacayá	9	Septiembre	2023-09-16T00:00:00	2024-11-06T03:00:00	3	Temperatura mínima	10.3
119636	7	Sololá	702	San José Chacayá	5	Chacayá	9	Septiembre	2023-09-16T00:00:00	2024-11-06T03:00:00	5	Humedad	93
119637	7	Sololá	702	San José Chacayá	5	Chacayá	9	Septiembre	2023-09-16T00:00:00	2024-11-06T03:00:00	6	Velocidad del viento	0
119638	7	Sololá	702	San José Chacayá	5	Chacayá	9	Septiembre	2023-09-16T00:00:00	2024-11-06T03:00:00	7	Dirección del viento	0
119639	7	Sololá	702	San José Chacayá	5	Chacayá	9	Septiembre	2023-09-16T00:00:00	2024-11-06T03:00:00	1	Precipitación	0
119640	7	Sololá	702	San José Chacayá	5	Chacayá	9	Septiembre	2023-09-16T00:00:00	2024-11-06T03:00:00	8	Radiación solar	0
119641	7	Sololá	702	San José Chacayá	5	Chacayá	9	Septiembre	2023-09-16T00:00:00	2024-11-06T04:00:00	2	Temperatura media	10
119642	7	Sololá	702	San José Chacayá	5	Chacayá	9	Septiembre	2023-09-16T00:00:00	2024-11-06T04:00:00	4	Temperatura máxima	10.2
119643	7	Sololá	702	San José Chacayá	5	Chacayá	9	Septiembre	2023-09-16T00:00:00	2024-11-06T04:00:00	3	Temperatura mínima	10
119644	7	Sololá	702	San José Chacayá	5	Chacayá	9	Septiembre	2023-09-16T00:00:00	2024-11-06T04:00:00	5	Humedad	92
119645	7	Sololá	702	San José Chacayá	5	Chacayá	9	Septiembre	2023-09-16T00:00:00	2024-11-06T04:00:00	6	Velocidad del viento	1.6
119646	7	Sololá	702	San José Chacayá	5	Chacayá	9	Septiembre	2023-09-16T00:00:00	2024-11-06T04:00:00	7	Dirección del viento	0.8
119647	7	Sololá	702	San José Chacayá	5	Chacayá	9	Septiembre	2023-09-16T00:00:00	2024-11-06T04:00:00	1	Precipitación	0
119648	7	Sololá	702	San José Chacayá	5	Chacayá	9	Septiembre	2023-09-16T00:00:00	2024-11-06T04:00:00	8	Radiación solar	0
119649	7	Sololá	702	San José Chacayá	5	Chacayá	9	Septiembre	2023-09-16T00:00:00	2024-11-06T05:00:00	2	Temperatura media	9.7
119650	7	Sololá	702	San José Chacayá	5	Chacayá	9	Septiembre	2023-09-16T00:00:00	2024-11-06T05:00:00	4	Temperatura máxima	9.9
119651	7	Sololá	702	San José Chacayá	5	Chacayá	9	Septiembre	2023-09-16T00:00:00	2024-11-06T05:00:00	3	Temperatura mínima	9.7
119652	7	Sololá	702	San José Chacayá	5	Chacayá	9	Septiembre	2023-09-16T00:00:00	2024-11-06T05:00:00	5	Humedad	93
119653	7	Sololá	702	San José Chacayá	5	Chacayá	9	Septiembre	2023-09-16T00:00:00	2024-11-06T05:00:00	6	Velocidad del viento	1.6
119654	7	Sololá	702	San José Chacayá	5	Chacayá	9	Septiembre	2023-09-16T00:00:00	2024-11-06T05:00:00	7	Dirección del viento	0.8
119655	7	Sololá	702	San José Chacayá	5	Chacayá	9	Septiembre	2023-09-16T00:00:00	2024-11-06T05:00:00	1	Precipitación	0
119656	7	Sololá	702	San José Chacayá	5	Chacayá	9	Septiembre	2023-09-16T00:00:00	2024-11-06T05:00:00	8	Radiación solar	0
119657	7	Sololá	702	San José Chacayá	5	Chacayá	9	Septiembre	2023-09-16T00:00:00	2024-11-06T06:00:00	2	Temperatura media	9.6
119658	7	Sololá	702	San José Chacayá	5	Chacayá	9	Septiembre	2023-09-16T00:00:00	2024-11-06T06:00:00	4	Temperatura máxima	9.6
119659	7	Sololá	702	San José Chacayá	5	Chacayá	9	Septiembre	2023-09-16T00:00:00	2024-11-06T06:00:00	3	Temperatura mínima	9.4
119660	7	Sololá	702	San José Chacayá	5	Chacayá	9	Septiembre	2023-09-16T00:00:00	2024-11-06T06:00:00	5	Humedad	94
119661	7	Sololá	702	San José Chacayá	5	Chacayá	9	Septiembre	2023-09-16T00:00:00	2024-11-06T06:00:00	6	Velocidad del viento	0
119662	7	Sololá	702	San José Chacayá	5	Chacayá	9	Septiembre	2023-09-16T00:00:00	2024-11-06T06:00:00	7	Dirección del viento	0
119663	7	Sololá	702	San José Chacayá	5	Chacayá	9	Septiembre	2023-09-16T00:00:00	2024-11-06T06:00:00	1	Precipitación	0
119664	7	Sololá	702	San José Chacayá	5	Chacayá	9	Septiembre	2023-09-16T00:00:00	2024-11-06T06:00:00	8	Radiación solar	1
119665	7	Sololá	702	San José Chacayá	5	Chacayá	9	Septiembre	2023-09-16T00:00:00	2024-11-06T07:00:00	2	Temperatura media	11.2
119666	7	Sololá	702	San José Chacayá	5	Chacayá	9	Septiembre	2023-09-16T00:00:00	2024-11-06T07:00:00	4	Temperatura máxima	11.2
119667	7	Sololá	702	San José Chacayá	5	Chacayá	9	Septiembre	2023-09-16T00:00:00	2024-11-06T07:00:00	3	Temperatura mínima	10.1
119668	7	Sololá	702	San José Chacayá	5	Chacayá	9	Septiembre	2023-09-16T00:00:00	2024-11-06T07:00:00	5	Humedad	95
119669	7	Sololá	702	San José Chacayá	5	Chacayá	9	Septiembre	2023-09-16T00:00:00	2024-11-06T07:00:00	6	Velocidad del viento	0
119670	7	Sololá	702	San José Chacayá	5	Chacayá	9	Septiembre	2023-09-16T00:00:00	2024-11-06T07:00:00	7	Dirección del viento	0
119671	7	Sololá	702	San José Chacayá	5	Chacayá	9	Septiembre	2023-09-16T00:00:00	2024-11-06T07:00:00	1	Precipitación	0
119672	7	Sololá	702	San José Chacayá	5	Chacayá	9	Septiembre	2023-09-16T00:00:00	2024-11-06T07:00:00	8	Radiación solar	40
119673	7	Sololá	702	San José Chacayá	5	Chacayá	9	Septiembre	2023-09-16T00:00:00	2024-11-06T08:00:00	2	Temperatura media	15.6
119674	7	Sololá	702	San José Chacayá	5	Chacayá	9	Septiembre	2023-09-16T00:00:00	2024-11-06T08:00:00	4	Temperatura máxima	15.6
119675	7	Sololá	702	San José Chacayá	5	Chacayá	9	Septiembre	2023-09-16T00:00:00	2024-11-06T08:00:00	3	Temperatura mínima	13.1
119676	7	Sololá	702	San José Chacayá	5	Chacayá	9	Septiembre	2023-09-16T00:00:00	2024-11-06T08:00:00	5	Humedad	81
119677	7	Sololá	702	San José Chacayá	5	Chacayá	9	Septiembre	2023-09-16T00:00:00	2024-11-06T08:00:00	6	Velocidad del viento	3.2
119678	7	Sololá	702	San José Chacayá	5	Chacayá	9	Septiembre	2023-09-16T00:00:00	2024-11-06T08:00:00	7	Dirección del viento	1.61
119679	7	Sololá	702	San José Chacayá	5	Chacayá	9	Septiembre	2023-09-16T00:00:00	2024-11-06T08:00:00	1	Precipitación	0
119680	7	Sololá	702	San José Chacayá	5	Chacayá	9	Septiembre	2023-09-16T00:00:00	2024-11-06T08:00:00	8	Radiación solar	142
119681	7	Sololá	702	San José Chacayá	5	Chacayá	9	Septiembre	2023-09-16T00:00:00	2024-11-06T09:00:00	2	Temperatura media	18.9
119682	7	Sololá	702	San José Chacayá	5	Chacayá	9	Septiembre	2023-09-16T00:00:00	2024-11-06T09:00:00	4	Temperatura máxima	18.9
119683	7	Sololá	702	San José Chacayá	5	Chacayá	9	Septiembre	2023-09-16T00:00:00	2024-11-06T09:00:00	3	Temperatura mínima	17.2
119684	7	Sololá	702	San José Chacayá	5	Chacayá	9	Septiembre	2023-09-16T00:00:00	2024-11-06T09:00:00	5	Humedad	67
119685	7	Sololá	702	San José Chacayá	5	Chacayá	9	Septiembre	2023-09-16T00:00:00	2024-11-06T09:00:00	6	Velocidad del viento	4.8
119686	7	Sololá	702	San José Chacayá	5	Chacayá	9	Septiembre	2023-09-16T00:00:00	2024-11-06T09:00:00	7	Dirección del viento	2.41
119687	7	Sololá	702	San José Chacayá	5	Chacayá	9	Septiembre	2023-09-16T00:00:00	2024-11-06T09:00:00	1	Precipitación	0
119688	7	Sololá	702	San José Chacayá	5	Chacayá	9	Septiembre	2023-09-16T00:00:00	2024-11-06T09:00:00	8	Radiación solar	242
119689	7	Sololá	702	San José Chacayá	5	Chacayá	9	Septiembre	2023-09-16T00:00:00	2024-11-06T10:00:00	2	Temperatura media	21.9
119690	7	Sololá	702	San José Chacayá	5	Chacayá	9	Septiembre	2023-09-16T00:00:00	2024-11-06T10:00:00	4	Temperatura máxima	22.1
119691	7	Sololá	702	San José Chacayá	5	Chacayá	9	Septiembre	2023-09-16T00:00:00	2024-11-06T10:00:00	3	Temperatura mínima	21.3
119692	7	Sololá	702	San José Chacayá	5	Chacayá	9	Septiembre	2023-09-16T00:00:00	2024-11-06T10:00:00	5	Humedad	60
119693	7	Sololá	702	San José Chacayá	5	Chacayá	9	Septiembre	2023-09-16T00:00:00	2024-11-06T10:00:00	6	Velocidad del viento	4.8
119694	7	Sololá	702	San José Chacayá	5	Chacayá	9	Septiembre	2023-09-16T00:00:00	2024-11-06T10:00:00	7	Dirección del viento	2.41
119695	7	Sololá	702	San José Chacayá	5	Chacayá	9	Septiembre	2023-09-16T00:00:00	2024-11-06T10:00:00	1	Precipitación	0
119696	7	Sololá	702	San José Chacayá	5	Chacayá	9	Septiembre	2023-09-16T00:00:00	2024-11-06T10:00:00	8	Radiación solar	383
119697	7	Sololá	702	San José Chacayá	5	Chacayá	9	Septiembre	2023-09-16T00:00:00	2024-11-06T11:00:00	2	Temperatura media	22.9
119698	7	Sololá	702	San José Chacayá	5	Chacayá	9	Septiembre	2023-09-16T00:00:00	2024-11-06T11:00:00	4	Temperatura máxima	23.3
119699	7	Sololá	702	San José Chacayá	5	Chacayá	9	Septiembre	2023-09-16T00:00:00	2024-11-06T11:00:00	3	Temperatura mínima	22.6
119700	7	Sololá	702	San José Chacayá	5	Chacayá	9	Septiembre	2023-09-16T00:00:00	2024-11-06T11:00:00	5	Humedad	59
119701	7	Sololá	702	San José Chacayá	5	Chacayá	9	Septiembre	2023-09-16T00:00:00	2024-11-06T11:00:00	6	Velocidad del viento	4.8
119702	7	Sololá	702	San José Chacayá	5	Chacayá	9	Septiembre	2023-09-16T00:00:00	2024-11-06T11:00:00	7	Dirección del viento	2.41
119703	7	Sololá	702	San José Chacayá	5	Chacayá	9	Septiembre	2023-09-16T00:00:00	2024-11-06T11:00:00	1	Precipitación	0
119704	7	Sololá	702	San José Chacayá	5	Chacayá	9	Septiembre	2023-09-16T00:00:00	2024-11-06T11:00:00	8	Radiación solar	949
119705	7	Sololá	702	San José Chacayá	5	Chacayá	9	Septiembre	2023-09-16T00:00:00	2024-11-06T12:00:00	2	Temperatura media	21.7
119706	7	Sololá	702	San José Chacayá	5	Chacayá	9	Septiembre	2023-09-16T00:00:00	2024-11-06T12:00:00	4	Temperatura máxima	23.1
119707	7	Sololá	702	San José Chacayá	5	Chacayá	9	Septiembre	2023-09-16T00:00:00	2024-11-06T12:00:00	3	Temperatura mínima	21.7
119708	7	Sololá	702	San José Chacayá	5	Chacayá	9	Septiembre	2023-09-16T00:00:00	2024-11-06T12:00:00	5	Humedad	60
119709	7	Sololá	702	San José Chacayá	5	Chacayá	9	Septiembre	2023-09-16T00:00:00	2024-11-06T12:00:00	6	Velocidad del viento	4.8
119710	7	Sololá	702	San José Chacayá	5	Chacayá	9	Septiembre	2023-09-16T00:00:00	2024-11-06T12:00:00	7	Dirección del viento	2.41
119711	7	Sololá	702	San José Chacayá	5	Chacayá	9	Septiembre	2023-09-16T00:00:00	2024-11-06T12:00:00	1	Precipitación	0
119712	7	Sololá	702	San José Chacayá	5	Chacayá	9	Septiembre	2023-09-16T00:00:00	2024-11-06T12:00:00	8	Radiación solar	996
119713	7	Sololá	702	San José Chacayá	5	Chacayá	9	Septiembre	2023-09-16T00:00:00	2024-11-06T13:00:00	2	Temperatura media	23
119714	7	Sololá	702	San José Chacayá	5	Chacayá	9	Septiembre	2023-09-16T00:00:00	2024-11-06T13:00:00	4	Temperatura máxima	23.2
119715	7	Sololá	702	San José Chacayá	5	Chacayá	9	Septiembre	2023-09-16T00:00:00	2024-11-06T13:00:00	3	Temperatura mínima	21.6
119716	7	Sololá	702	San José Chacayá	5	Chacayá	9	Septiembre	2023-09-16T00:00:00	2024-11-06T13:00:00	5	Humedad	57
119717	7	Sololá	702	San José Chacayá	5	Chacayá	9	Septiembre	2023-09-16T00:00:00	2024-11-06T13:00:00	6	Velocidad del viento	3.2
119718	7	Sololá	702	San José Chacayá	5	Chacayá	9	Septiembre	2023-09-16T00:00:00	2024-11-06T13:00:00	7	Dirección del viento	1.61
119719	7	Sololá	702	San José Chacayá	5	Chacayá	9	Septiembre	2023-09-16T00:00:00	2024-11-06T13:00:00	1	Precipitación	0
119720	7	Sololá	702	San José Chacayá	5	Chacayá	9	Septiembre	2023-09-16T00:00:00	2024-11-06T13:00:00	8	Radiación solar	1012
119721	7	Sololá	702	San José Chacayá	5	Chacayá	9	Septiembre	2023-09-16T00:00:00	2024-11-06T14:00:00	2	Temperatura media	23.7
119722	7	Sololá	702	San José Chacayá	5	Chacayá	9	Septiembre	2023-09-16T00:00:00	2024-11-06T14:00:00	4	Temperatura máxima	24.4
119723	7	Sololá	702	San José Chacayá	5	Chacayá	9	Septiembre	2023-09-16T00:00:00	2024-11-06T14:00:00	3	Temperatura mínima	23.7
119724	7	Sololá	702	San José Chacayá	5	Chacayá	9	Septiembre	2023-09-16T00:00:00	2024-11-06T14:00:00	5	Humedad	53
119725	7	Sololá	702	San José Chacayá	5	Chacayá	9	Septiembre	2023-09-16T00:00:00	2024-11-06T14:00:00	6	Velocidad del viento	4.8
119726	7	Sololá	702	San José Chacayá	5	Chacayá	9	Septiembre	2023-09-16T00:00:00	2024-11-06T14:00:00	7	Dirección del viento	2.41
119727	7	Sololá	702	San José Chacayá	5	Chacayá	9	Septiembre	2023-09-16T00:00:00	2024-11-06T14:00:00	1	Precipitación	0
119728	7	Sololá	702	San José Chacayá	5	Chacayá	9	Septiembre	2023-09-16T00:00:00	2024-11-06T14:00:00	8	Radiación solar	526
119729	7	Sololá	702	San José Chacayá	5	Chacayá	9	Septiembre	2023-09-16T00:00:00	2024-11-06T15:00:00	2	Temperatura media	23.3
119730	7	Sololá	702	San José Chacayá	5	Chacayá	9	Septiembre	2023-09-16T00:00:00	2024-11-06T15:00:00	4	Temperatura máxima	23.4
119731	7	Sololá	702	San José Chacayá	5	Chacayá	9	Septiembre	2023-09-16T00:00:00	2024-11-06T15:00:00	3	Temperatura mínima	22.6
119732	7	Sololá	702	San José Chacayá	5	Chacayá	9	Septiembre	2023-09-16T00:00:00	2024-11-06T15:00:00	5	Humedad	64
119733	7	Sololá	702	San José Chacayá	5	Chacayá	9	Septiembre	2023-09-16T00:00:00	2024-11-06T15:00:00	6	Velocidad del viento	8
119734	7	Sololá	702	San José Chacayá	5	Chacayá	9	Septiembre	2023-09-16T00:00:00	2024-11-06T15:00:00	7	Dirección del viento	4.02
119735	7	Sololá	702	San José Chacayá	5	Chacayá	9	Septiembre	2023-09-16T00:00:00	2024-11-06T15:00:00	1	Precipitación	0
119736	7	Sololá	702	San José Chacayá	5	Chacayá	9	Septiembre	2023-09-16T00:00:00	2024-11-06T15:00:00	8	Radiación solar	247
119737	7	Sololá	702	San José Chacayá	5	Chacayá	9	Septiembre	2023-09-16T00:00:00	2024-11-06T16:00:00	2	Temperatura media	21.2
119738	7	Sololá	702	San José Chacayá	5	Chacayá	9	Septiembre	2023-09-16T00:00:00	2024-11-06T16:00:00	4	Temperatura máxima	22.7
119739	7	Sololá	702	San José Chacayá	5	Chacayá	9	Septiembre	2023-09-16T00:00:00	2024-11-06T16:00:00	3	Temperatura mínima	21.2
119740	7	Sololá	702	San José Chacayá	5	Chacayá	9	Septiembre	2023-09-16T00:00:00	2024-11-06T16:00:00	5	Humedad	74
119741	7	Sololá	702	San José Chacayá	5	Chacayá	9	Septiembre	2023-09-16T00:00:00	2024-11-06T16:00:00	6	Velocidad del viento	3.2
119742	7	Sololá	702	San José Chacayá	5	Chacayá	9	Septiembre	2023-09-16T00:00:00	2024-11-06T16:00:00	7	Dirección del viento	1.61
119743	7	Sololá	702	San José Chacayá	5	Chacayá	9	Septiembre	2023-09-16T00:00:00	2024-11-06T16:00:00	1	Precipitación	0
119744	7	Sololá	702	San José Chacayá	5	Chacayá	9	Septiembre	2023-09-16T00:00:00	2024-11-06T16:00:00	8	Radiación solar	199
119745	7	Sololá	702	San José Chacayá	5	Chacayá	9	Septiembre	2023-09-16T00:00:00	2024-11-06T17:00:00	2	Temperatura media	20.2
119746	7	Sololá	702	San José Chacayá	5	Chacayá	9	Septiembre	2023-09-16T00:00:00	2024-11-06T17:00:00	4	Temperatura máxima	21.1
119747	7	Sololá	702	San José Chacayá	5	Chacayá	9	Septiembre	2023-09-16T00:00:00	2024-11-06T17:00:00	3	Temperatura mínima	20.2
119748	7	Sololá	702	San José Chacayá	5	Chacayá	9	Septiembre	2023-09-16T00:00:00	2024-11-06T17:00:00	5	Humedad	78
119749	7	Sololá	702	San José Chacayá	5	Chacayá	9	Septiembre	2023-09-16T00:00:00	2024-11-06T17:00:00	6	Velocidad del viento	3.2
119750	7	Sololá	702	San José Chacayá	5	Chacayá	9	Septiembre	2023-09-16T00:00:00	2024-11-06T17:00:00	7	Dirección del viento	1.61
119751	7	Sololá	702	San José Chacayá	5	Chacayá	9	Septiembre	2023-09-16T00:00:00	2024-11-06T17:00:00	1	Precipitación	0
119752	7	Sololá	702	San José Chacayá	5	Chacayá	9	Septiembre	2023-09-16T00:00:00	2024-11-06T17:00:00	8	Radiación solar	67
119753	7	Sololá	702	San José Chacayá	5	Chacayá	9	Septiembre	2023-09-16T00:00:00	2024-11-06T18:00:00	2	Temperatura media	17.9
119754	7	Sololá	702	San José Chacayá	5	Chacayá	9	Septiembre	2023-09-16T00:00:00	2024-11-06T18:00:00	4	Temperatura máxima	18.6
119755	7	Sololá	702	San José Chacayá	5	Chacayá	9	Septiembre	2023-09-16T00:00:00	2024-11-06T18:00:00	3	Temperatura mínima	17.9
119756	7	Sololá	702	San José Chacayá	5	Chacayá	9	Septiembre	2023-09-16T00:00:00	2024-11-06T18:00:00	5	Humedad	89
119757	7	Sololá	702	San José Chacayá	5	Chacayá	9	Septiembre	2023-09-16T00:00:00	2024-11-06T18:00:00	6	Velocidad del viento	1.6
119758	7	Sololá	702	San José Chacayá	5	Chacayá	9	Septiembre	2023-09-16T00:00:00	2024-11-06T18:00:00	7	Dirección del viento	0.8
119759	7	Sololá	702	San José Chacayá	5	Chacayá	9	Septiembre	2023-09-16T00:00:00	2024-11-06T18:00:00	1	Precipitación	0
119760	7	Sololá	702	San José Chacayá	5	Chacayá	9	Septiembre	2023-09-16T00:00:00	2024-11-06T18:00:00	8	Radiación solar	21
119761	7	Sololá	702	San José Chacayá	5	Chacayá	9	Septiembre	2023-09-16T00:00:00	2024-11-06T19:00:00	2	Temperatura media	16.8
119762	7	Sololá	702	San José Chacayá	5	Chacayá	9	Septiembre	2023-09-16T00:00:00	2024-11-06T19:00:00	4	Temperatura máxima	17.7
119763	7	Sololá	702	San José Chacayá	5	Chacayá	9	Septiembre	2023-09-16T00:00:00	2024-11-06T19:00:00	3	Temperatura mínima	16.8
119764	7	Sololá	702	San José Chacayá	5	Chacayá	9	Septiembre	2023-09-16T00:00:00	2024-11-06T19:00:00	5	Humedad	85
119765	7	Sololá	702	San José Chacayá	5	Chacayá	9	Septiembre	2023-09-16T00:00:00	2024-11-06T19:00:00	6	Velocidad del viento	0
119766	7	Sololá	702	San José Chacayá	5	Chacayá	9	Septiembre	2023-09-16T00:00:00	2024-11-06T19:00:00	7	Dirección del viento	0
119767	7	Sololá	702	San José Chacayá	5	Chacayá	9	Septiembre	2023-09-16T00:00:00	2024-11-06T19:00:00	1	Precipitación	0
119768	7	Sololá	702	San José Chacayá	5	Chacayá	9	Septiembre	2023-09-16T00:00:00	2024-11-06T19:00:00	8	Radiación solar	0
119769	7	Sololá	702	San José Chacayá	5	Chacayá	9	Septiembre	2023-09-16T00:00:00	2024-11-06T20:00:00	2	Temperatura media	15.9
119770	7	Sololá	702	San José Chacayá	5	Chacayá	9	Septiembre	2023-09-16T00:00:00	2024-11-06T20:00:00	4	Temperatura máxima	16.4
119771	7	Sololá	702	San José Chacayá	5	Chacayá	9	Septiembre	2023-09-16T00:00:00	2024-11-06T20:00:00	3	Temperatura mínima	15.9
119772	7	Sololá	702	San José Chacayá	5	Chacayá	9	Septiembre	2023-09-16T00:00:00	2024-11-06T20:00:00	5	Humedad	88
119773	7	Sololá	702	San José Chacayá	5	Chacayá	9	Septiembre	2023-09-16T00:00:00	2024-11-06T20:00:00	6	Velocidad del viento	0
119774	7	Sololá	702	San José Chacayá	5	Chacayá	9	Septiembre	2023-09-16T00:00:00	2024-11-06T20:00:00	7	Dirección del viento	0
119775	7	Sololá	702	San José Chacayá	5	Chacayá	9	Septiembre	2023-09-16T00:00:00	2024-11-06T20:00:00	1	Precipitación	0
119776	7	Sololá	702	San José Chacayá	5	Chacayá	9	Septiembre	2023-09-16T00:00:00	2024-11-06T20:00:00	8	Radiación solar	0
119777	7	Sololá	702	San José Chacayá	5	Chacayá	9	Septiembre	2023-09-16T00:00:00	2024-11-06T21:00:00	2	Temperatura media	16.2
119778	7	Sololá	702	San José Chacayá	5	Chacayá	9	Septiembre	2023-09-16T00:00:00	2024-11-06T21:00:00	4	Temperatura máxima	16.2
119779	7	Sololá	702	San José Chacayá	5	Chacayá	9	Septiembre	2023-09-16T00:00:00	2024-11-06T21:00:00	3	Temperatura mínima	15.7
119780	7	Sololá	702	San José Chacayá	5	Chacayá	9	Septiembre	2023-09-16T00:00:00	2024-11-06T21:00:00	5	Humedad	84
119781	7	Sololá	702	San José Chacayá	5	Chacayá	9	Septiembre	2023-09-16T00:00:00	2024-11-06T21:00:00	6	Velocidad del viento	3.2
119782	7	Sololá	702	San José Chacayá	5	Chacayá	9	Septiembre	2023-09-16T00:00:00	2024-11-06T21:00:00	7	Dirección del viento	1.61
119783	7	Sololá	702	San José Chacayá	5	Chacayá	9	Septiembre	2023-09-16T00:00:00	2024-11-06T21:00:00	1	Precipitación	0
119784	7	Sololá	702	San José Chacayá	5	Chacayá	9	Septiembre	2023-09-16T00:00:00	2024-11-06T21:00:00	8	Radiación solar	0
119785	7	Sololá	702	San José Chacayá	5	Chacayá	9	Septiembre	2023-09-16T00:00:00	2024-11-06T22:00:00	2	Temperatura media	14.8
119786	7	Sololá	702	San José Chacayá	5	Chacayá	9	Septiembre	2023-09-16T00:00:00	2024-11-06T22:00:00	4	Temperatura máxima	15.9
119787	7	Sololá	702	San José Chacayá	5	Chacayá	9	Septiembre	2023-09-16T00:00:00	2024-11-06T22:00:00	3	Temperatura mínima	14.8
119788	7	Sololá	702	San José Chacayá	5	Chacayá	9	Septiembre	2023-09-16T00:00:00	2024-11-06T22:00:00	5	Humedad	87
119789	7	Sololá	702	San José Chacayá	5	Chacayá	9	Septiembre	2023-09-16T00:00:00	2024-11-06T22:00:00	6	Velocidad del viento	0
119790	7	Sololá	702	San José Chacayá	5	Chacayá	9	Septiembre	2023-09-16T00:00:00	2024-11-06T22:00:00	7	Dirección del viento	0
119791	7	Sololá	702	San José Chacayá	5	Chacayá	9	Septiembre	2023-09-16T00:00:00	2024-11-06T22:00:00	1	Precipitación	0
119792	7	Sololá	702	San José Chacayá	5	Chacayá	9	Septiembre	2023-09-16T00:00:00	2024-11-06T22:00:00	8	Radiación solar	0
119793	7	Sololá	702	San José Chacayá	5	Chacayá	9	Septiembre	2023-09-16T00:00:00	2024-11-06T23:00:00	2	Temperatura media	13.7
119794	7	Sololá	702	San José Chacayá	5	Chacayá	9	Septiembre	2023-09-16T00:00:00	2024-11-06T23:00:00	4	Temperatura máxima	14.2
119795	7	Sololá	702	San José Chacayá	5	Chacayá	9	Septiembre	2023-09-16T00:00:00	2024-11-06T23:00:00	3	Temperatura mínima	13.7
119796	7	Sololá	702	San José Chacayá	5	Chacayá	9	Septiembre	2023-09-16T00:00:00	2024-11-06T23:00:00	5	Humedad	89
119797	7	Sololá	702	San José Chacayá	5	Chacayá	9	Septiembre	2023-09-16T00:00:00	2024-11-06T23:00:00	6	Velocidad del viento	0
119798	7	Sololá	702	San José Chacayá	5	Chacayá	9	Septiembre	2023-09-16T00:00:00	2024-11-06T23:00:00	7	Dirección del viento	0
119799	7	Sololá	702	San José Chacayá	5	Chacayá	9	Septiembre	2023-09-16T00:00:00	2024-11-06T23:00:00	1	Precipitación	0
119800	7	Sololá	702	San José Chacayá	5	Chacayá	9	Septiembre	2023-09-16T00:00:00	2024-11-06T23:00:00	8	Radiación solar	0
119801	7	Sololá	702	San José Chacayá	5	Chacayá	9	Septiembre	2023-09-17T00:00:00	2024-11-06T00:00:00	2	Temperatura media	13.5
119802	7	Sololá	702	San José Chacayá	5	Chacayá	9	Septiembre	2023-09-17T00:00:00	2024-11-06T00:00:00	4	Temperatura máxima	13.9
119803	7	Sololá	702	San José Chacayá	5	Chacayá	9	Septiembre	2023-09-17T00:00:00	2024-11-06T00:00:00	3	Temperatura mínima	13.2
119804	7	Sololá	702	San José Chacayá	5	Chacayá	9	Septiembre	2023-09-17T00:00:00	2024-11-06T00:00:00	5	Humedad	87
119805	7	Sololá	702	San José Chacayá	5	Chacayá	9	Septiembre	2023-09-17T00:00:00	2024-11-06T00:00:00	6	Velocidad del viento	1.6
119806	7	Sololá	702	San José Chacayá	5	Chacayá	9	Septiembre	2023-09-17T00:00:00	2024-11-06T00:00:00	7	Dirección del viento	0.8
119807	7	Sololá	702	San José Chacayá	5	Chacayá	9	Septiembre	2023-09-17T00:00:00	2024-11-06T00:00:00	1	Precipitación	0
119808	7	Sololá	702	San José Chacayá	5	Chacayá	9	Septiembre	2023-09-17T00:00:00	2024-11-06T00:00:00	8	Radiación solar	0
119809	7	Sololá	702	San José Chacayá	5	Chacayá	9	Septiembre	2023-09-17T00:00:00	2024-11-06T01:00:00	2	Temperatura media	11.7
119810	7	Sololá	702	San José Chacayá	5	Chacayá	9	Septiembre	2023-09-17T00:00:00	2024-11-06T01:00:00	4	Temperatura máxima	13
119811	7	Sololá	702	San José Chacayá	5	Chacayá	9	Septiembre	2023-09-17T00:00:00	2024-11-06T01:00:00	3	Temperatura mínima	11.7
119812	7	Sololá	702	San José Chacayá	5	Chacayá	9	Septiembre	2023-09-17T00:00:00	2024-11-06T01:00:00	5	Humedad	91
119813	7	Sololá	702	San José Chacayá	5	Chacayá	9	Septiembre	2023-09-17T00:00:00	2024-11-06T01:00:00	6	Velocidad del viento	0
119814	7	Sololá	702	San José Chacayá	5	Chacayá	9	Septiembre	2023-09-17T00:00:00	2024-11-06T01:00:00	7	Dirección del viento	0
119815	7	Sololá	702	San José Chacayá	5	Chacayá	9	Septiembre	2023-09-17T00:00:00	2024-11-06T01:00:00	1	Precipitación	0
119816	7	Sololá	702	San José Chacayá	5	Chacayá	9	Septiembre	2023-09-17T00:00:00	2024-11-06T01:00:00	8	Radiación solar	0
119817	7	Sololá	702	San José Chacayá	5	Chacayá	9	Septiembre	2023-09-17T00:00:00	2024-11-06T02:00:00	2	Temperatura media	10.9
119818	7	Sololá	702	San José Chacayá	5	Chacayá	9	Septiembre	2023-09-17T00:00:00	2024-11-06T02:00:00	4	Temperatura máxima	11.3
119819	7	Sololá	702	San José Chacayá	5	Chacayá	9	Septiembre	2023-09-17T00:00:00	2024-11-06T02:00:00	3	Temperatura mínima	10.9
119820	7	Sololá	702	San José Chacayá	5	Chacayá	9	Septiembre	2023-09-17T00:00:00	2024-11-06T02:00:00	5	Humedad	92
119821	7	Sololá	702	San José Chacayá	5	Chacayá	9	Septiembre	2023-09-17T00:00:00	2024-11-06T02:00:00	6	Velocidad del viento	1.6
119822	7	Sololá	702	San José Chacayá	5	Chacayá	9	Septiembre	2023-09-17T00:00:00	2024-11-06T02:00:00	7	Dirección del viento	0.8
119823	7	Sololá	702	San José Chacayá	5	Chacayá	9	Septiembre	2023-09-17T00:00:00	2024-11-06T02:00:00	1	Precipitación	0
119824	7	Sololá	702	San José Chacayá	5	Chacayá	9	Septiembre	2023-09-17T00:00:00	2024-11-06T02:00:00	8	Radiación solar	0
119825	7	Sololá	702	San José Chacayá	5	Chacayá	9	Septiembre	2023-09-17T00:00:00	2024-11-06T03:00:00	2	Temperatura media	10.3
119826	7	Sololá	702	San José Chacayá	5	Chacayá	9	Septiembre	2023-09-17T00:00:00	2024-11-06T03:00:00	4	Temperatura máxima	10.6
119827	7	Sololá	702	San José Chacayá	5	Chacayá	9	Septiembre	2023-09-17T00:00:00	2024-11-06T03:00:00	3	Temperatura mínima	10.3
119828	7	Sololá	702	San José Chacayá	5	Chacayá	9	Septiembre	2023-09-17T00:00:00	2024-11-06T03:00:00	5	Humedad	92
119829	7	Sololá	702	San José Chacayá	5	Chacayá	9	Septiembre	2023-09-17T00:00:00	2024-11-06T03:00:00	6	Velocidad del viento	0
119830	7	Sololá	702	San José Chacayá	5	Chacayá	9	Septiembre	2023-09-17T00:00:00	2024-11-06T03:00:00	7	Dirección del viento	0
119831	7	Sololá	702	San José Chacayá	5	Chacayá	9	Septiembre	2023-09-17T00:00:00	2024-11-06T03:00:00	1	Precipitación	0
119832	7	Sololá	702	San José Chacayá	5	Chacayá	9	Septiembre	2023-09-17T00:00:00	2024-11-06T03:00:00	8	Radiación solar	0
119833	7	Sololá	702	San José Chacayá	5	Chacayá	9	Septiembre	2023-09-17T00:00:00	2024-11-06T04:00:00	2	Temperatura media	9.8
119834	7	Sololá	702	San José Chacayá	5	Chacayá	9	Septiembre	2023-09-17T00:00:00	2024-11-06T04:00:00	4	Temperatura máxima	10.1
119835	7	Sololá	702	San José Chacayá	5	Chacayá	9	Septiembre	2023-09-17T00:00:00	2024-11-06T04:00:00	3	Temperatura mínima	9.8
119836	7	Sololá	702	San José Chacayá	5	Chacayá	9	Septiembre	2023-09-17T00:00:00	2024-11-06T04:00:00	5	Humedad	91
119837	7	Sololá	702	San José Chacayá	5	Chacayá	9	Septiembre	2023-09-17T00:00:00	2024-11-06T04:00:00	6	Velocidad del viento	1.6
119838	7	Sololá	702	San José Chacayá	5	Chacayá	9	Septiembre	2023-09-17T00:00:00	2024-11-06T04:00:00	7	Dirección del viento	0.8
119839	7	Sololá	702	San José Chacayá	5	Chacayá	9	Septiembre	2023-09-17T00:00:00	2024-11-06T04:00:00	1	Precipitación	0
119840	7	Sololá	702	San José Chacayá	5	Chacayá	9	Septiembre	2023-09-17T00:00:00	2024-11-06T04:00:00	8	Radiación solar	0
119841	7	Sololá	702	San José Chacayá	5	Chacayá	9	Septiembre	2023-09-17T00:00:00	2024-11-06T05:00:00	2	Temperatura media	9.3
119842	7	Sololá	702	San José Chacayá	5	Chacayá	9	Septiembre	2023-09-17T00:00:00	2024-11-06T05:00:00	4	Temperatura máxima	9.6
119843	7	Sololá	702	San José Chacayá	5	Chacayá	9	Septiembre	2023-09-17T00:00:00	2024-11-06T05:00:00	3	Temperatura mínima	9.3
119844	7	Sololá	702	San José Chacayá	5	Chacayá	9	Septiembre	2023-09-17T00:00:00	2024-11-06T05:00:00	5	Humedad	90
119845	7	Sololá	702	San José Chacayá	5	Chacayá	9	Septiembre	2023-09-17T00:00:00	2024-11-06T05:00:00	6	Velocidad del viento	1.6
119846	7	Sololá	702	San José Chacayá	5	Chacayá	9	Septiembre	2023-09-17T00:00:00	2024-11-06T05:00:00	7	Dirección del viento	0.8
119847	7	Sololá	702	San José Chacayá	5	Chacayá	9	Septiembre	2023-09-17T00:00:00	2024-11-06T05:00:00	1	Precipitación	0
119848	7	Sololá	702	San José Chacayá	5	Chacayá	9	Septiembre	2023-09-17T00:00:00	2024-11-06T05:00:00	8	Radiación solar	0
119849	7	Sololá	702	San José Chacayá	5	Chacayá	9	Septiembre	2023-09-17T00:00:00	2024-11-06T06:00:00	2	Temperatura media	9
119850	7	Sololá	702	San José Chacayá	5	Chacayá	9	Septiembre	2023-09-17T00:00:00	2024-11-06T06:00:00	4	Temperatura máxima	9.2
119851	7	Sololá	702	San José Chacayá	5	Chacayá	9	Septiembre	2023-09-17T00:00:00	2024-11-06T06:00:00	3	Temperatura mínima	8.9
119852	7	Sololá	702	San José Chacayá	5	Chacayá	9	Septiembre	2023-09-17T00:00:00	2024-11-06T06:00:00	5	Humedad	89
119853	7	Sololá	702	San José Chacayá	5	Chacayá	9	Septiembre	2023-09-17T00:00:00	2024-11-06T06:00:00	6	Velocidad del viento	1.6
119854	7	Sololá	702	San José Chacayá	5	Chacayá	9	Septiembre	2023-09-17T00:00:00	2024-11-06T06:00:00	7	Dirección del viento	0.8
119855	7	Sololá	702	San José Chacayá	5	Chacayá	9	Septiembre	2023-09-17T00:00:00	2024-11-06T06:00:00	1	Precipitación	0
119856	7	Sololá	702	San José Chacayá	5	Chacayá	9	Septiembre	2023-09-17T00:00:00	2024-11-06T06:00:00	8	Radiación solar	1
119857	7	Sololá	702	San José Chacayá	5	Chacayá	9	Septiembre	2023-09-17T00:00:00	2024-11-06T07:00:00	2	Temperatura media	9.9
119858	7	Sololá	702	San José Chacayá	5	Chacayá	9	Septiembre	2023-09-17T00:00:00	2024-11-06T07:00:00	4	Temperatura máxima	9.9
119859	7	Sololá	702	San José Chacayá	5	Chacayá	9	Septiembre	2023-09-17T00:00:00	2024-11-06T07:00:00	3	Temperatura mínima	9.3
119860	7	Sololá	702	San José Chacayá	5	Chacayá	9	Septiembre	2023-09-17T00:00:00	2024-11-06T07:00:00	5	Humedad	89
119861	7	Sololá	702	San José Chacayá	5	Chacayá	9	Septiembre	2023-09-17T00:00:00	2024-11-06T07:00:00	6	Velocidad del viento	1.6
119862	7	Sololá	702	San José Chacayá	5	Chacayá	9	Septiembre	2023-09-17T00:00:00	2024-11-06T07:00:00	7	Dirección del viento	0.8
119863	7	Sololá	702	San José Chacayá	5	Chacayá	9	Septiembre	2023-09-17T00:00:00	2024-11-06T07:00:00	1	Precipitación	0
119864	7	Sololá	702	San José Chacayá	5	Chacayá	9	Septiembre	2023-09-17T00:00:00	2024-11-06T07:00:00	8	Radiación solar	37
119865	7	Sololá	702	San José Chacayá	5	Chacayá	9	Septiembre	2023-09-17T00:00:00	2024-11-06T08:00:00	2	Temperatura media	15.7
119866	7	Sololá	702	San José Chacayá	5	Chacayá	9	Septiembre	2023-09-17T00:00:00	2024-11-06T08:00:00	4	Temperatura máxima	15.7
119867	7	Sololá	702	San José Chacayá	5	Chacayá	9	Septiembre	2023-09-17T00:00:00	2024-11-06T08:00:00	3	Temperatura mínima	12.4
119868	7	Sololá	702	San José Chacayá	5	Chacayá	9	Septiembre	2023-09-17T00:00:00	2024-11-06T08:00:00	5	Humedad	75
119869	7	Sololá	702	San José Chacayá	5	Chacayá	9	Septiembre	2023-09-17T00:00:00	2024-11-06T08:00:00	6	Velocidad del viento	1.6
119870	7	Sololá	702	San José Chacayá	5	Chacayá	9	Septiembre	2023-09-17T00:00:00	2024-11-06T08:00:00	7	Dirección del viento	0.8
119871	7	Sololá	702	San José Chacayá	5	Chacayá	9	Septiembre	2023-09-17T00:00:00	2024-11-06T08:00:00	1	Precipitación	0
119872	7	Sololá	702	San José Chacayá	5	Chacayá	9	Septiembre	2023-09-17T00:00:00	2024-11-06T08:00:00	8	Radiación solar	155
119873	7	Sololá	702	San José Chacayá	5	Chacayá	9	Septiembre	2023-09-17T00:00:00	2024-11-06T09:00:00	2	Temperatura media	19.8
119874	7	Sololá	702	San José Chacayá	5	Chacayá	9	Septiembre	2023-09-17T00:00:00	2024-11-06T09:00:00	4	Temperatura máxima	19.8
119875	7	Sololá	702	San José Chacayá	5	Chacayá	9	Septiembre	2023-09-17T00:00:00	2024-11-06T09:00:00	3	Temperatura mínima	18.2
119876	7	Sololá	702	San José Chacayá	5	Chacayá	9	Septiembre	2023-09-17T00:00:00	2024-11-06T09:00:00	5	Humedad	61
119877	7	Sololá	702	San José Chacayá	5	Chacayá	9	Septiembre	2023-09-17T00:00:00	2024-11-06T09:00:00	6	Velocidad del viento	4.8
119878	7	Sololá	702	San José Chacayá	5	Chacayá	9	Septiembre	2023-09-17T00:00:00	2024-11-06T09:00:00	7	Dirección del viento	2.41
119879	7	Sololá	702	San José Chacayá	5	Chacayá	9	Septiembre	2023-09-17T00:00:00	2024-11-06T09:00:00	1	Precipitación	0
119880	7	Sololá	702	San José Chacayá	5	Chacayá	9	Septiembre	2023-09-17T00:00:00	2024-11-06T09:00:00	8	Radiación solar	530
119881	7	Sololá	702	San José Chacayá	5	Chacayá	9	Septiembre	2023-09-17T00:00:00	2024-11-06T10:00:00	2	Temperatura media	21.6
119882	7	Sololá	702	San José Chacayá	5	Chacayá	9	Septiembre	2023-09-17T00:00:00	2024-11-06T10:00:00	4	Temperatura máxima	21.7
119883	7	Sololá	702	San José Chacayá	5	Chacayá	9	Septiembre	2023-09-17T00:00:00	2024-11-06T10:00:00	3	Temperatura mínima	20.8
119884	7	Sololá	702	San José Chacayá	5	Chacayá	9	Septiembre	2023-09-17T00:00:00	2024-11-06T10:00:00	5	Humedad	49
119885	7	Sololá	702	San José Chacayá	5	Chacayá	9	Septiembre	2023-09-17T00:00:00	2024-11-06T10:00:00	6	Velocidad del viento	4.8
119886	7	Sololá	702	San José Chacayá	5	Chacayá	9	Septiembre	2023-09-17T00:00:00	2024-11-06T10:00:00	7	Dirección del viento	2.41
119887	7	Sololá	702	San José Chacayá	5	Chacayá	9	Septiembre	2023-09-17T00:00:00	2024-11-06T10:00:00	1	Precipitación	0
119888	7	Sololá	702	San José Chacayá	5	Chacayá	9	Septiembre	2023-09-17T00:00:00	2024-11-06T10:00:00	8	Radiación solar	820
119889	7	Sololá	702	San José Chacayá	5	Chacayá	9	Septiembre	2023-09-17T00:00:00	2024-11-06T11:00:00	2	Temperatura media	22.3
119890	7	Sololá	702	San José Chacayá	5	Chacayá	9	Septiembre	2023-09-17T00:00:00	2024-11-06T11:00:00	4	Temperatura máxima	22.8
119891	7	Sololá	702	San José Chacayá	5	Chacayá	9	Septiembre	2023-09-17T00:00:00	2024-11-06T11:00:00	3	Temperatura mínima	21.9
119892	7	Sololá	702	San José Chacayá	5	Chacayá	9	Septiembre	2023-09-17T00:00:00	2024-11-06T11:00:00	5	Humedad	55
119893	7	Sololá	702	San José Chacayá	5	Chacayá	9	Septiembre	2023-09-17T00:00:00	2024-11-06T11:00:00	6	Velocidad del viento	6.4
119894	7	Sololá	702	San José Chacayá	5	Chacayá	9	Septiembre	2023-09-17T00:00:00	2024-11-06T11:00:00	7	Dirección del viento	3.22
119895	7	Sololá	702	San José Chacayá	5	Chacayá	9	Septiembre	2023-09-17T00:00:00	2024-11-06T11:00:00	1	Precipitación	0
119896	7	Sololá	702	San José Chacayá	5	Chacayá	9	Septiembre	2023-09-17T00:00:00	2024-11-06T11:00:00	8	Radiación solar	637
119897	7	Sololá	702	San José Chacayá	5	Chacayá	9	Septiembre	2023-09-17T00:00:00	2024-11-06T12:00:00	2	Temperatura media	22.7
119898	7	Sololá	702	San José Chacayá	5	Chacayá	9	Septiembre	2023-09-17T00:00:00	2024-11-06T12:00:00	4	Temperatura máxima	23
119899	7	Sololá	702	San José Chacayá	5	Chacayá	9	Septiembre	2023-09-17T00:00:00	2024-11-06T12:00:00	3	Temperatura mínima	22.6
119900	7	Sololá	702	San José Chacayá	5	Chacayá	9	Septiembre	2023-09-17T00:00:00	2024-11-06T12:00:00	5	Humedad	54
119901	7	Sololá	702	San José Chacayá	5	Chacayá	9	Septiembre	2023-09-17T00:00:00	2024-11-06T12:00:00	6	Velocidad del viento	4.8
119902	7	Sololá	702	San José Chacayá	5	Chacayá	9	Septiembre	2023-09-17T00:00:00	2024-11-06T12:00:00	7	Dirección del viento	2.41
119903	7	Sololá	702	San José Chacayá	5	Chacayá	9	Septiembre	2023-09-17T00:00:00	2024-11-06T12:00:00	1	Precipitación	0
119904	7	Sololá	702	San José Chacayá	5	Chacayá	9	Septiembre	2023-09-17T00:00:00	2024-11-06T12:00:00	8	Radiación solar	332
119905	7	Sololá	702	San José Chacayá	5	Chacayá	9	Septiembre	2023-09-17T00:00:00	2024-11-06T13:00:00	2	Temperatura media	23.4
119906	7	Sololá	702	San José Chacayá	5	Chacayá	9	Septiembre	2023-09-17T00:00:00	2024-11-06T13:00:00	4	Temperatura máxima	23.6
119907	7	Sololá	702	San José Chacayá	5	Chacayá	9	Septiembre	2023-09-17T00:00:00	2024-11-06T13:00:00	3	Temperatura mínima	23.1
119908	7	Sololá	702	San José Chacayá	5	Chacayá	9	Septiembre	2023-09-17T00:00:00	2024-11-06T13:00:00	5	Humedad	61
119909	7	Sololá	702	San José Chacayá	5	Chacayá	9	Septiembre	2023-09-17T00:00:00	2024-11-06T13:00:00	6	Velocidad del viento	4.8
119910	7	Sololá	702	San José Chacayá	5	Chacayá	9	Septiembre	2023-09-17T00:00:00	2024-11-06T13:00:00	7	Dirección del viento	2.41
119911	7	Sololá	702	San José Chacayá	5	Chacayá	9	Septiembre	2023-09-17T00:00:00	2024-11-06T13:00:00	1	Precipitación	0
119912	7	Sololá	702	San José Chacayá	5	Chacayá	9	Septiembre	2023-09-17T00:00:00	2024-11-06T13:00:00	8	Radiación solar	292
119913	7	Sololá	702	San José Chacayá	5	Chacayá	9	Septiembre	2023-09-17T00:00:00	2024-11-06T14:00:00	2	Temperatura media	23.5
119914	7	Sololá	702	San José Chacayá	5	Chacayá	9	Septiembre	2023-09-17T00:00:00	2024-11-06T14:00:00	4	Temperatura máxima	23.5
119915	7	Sololá	702	San José Chacayá	5	Chacayá	9	Septiembre	2023-09-17T00:00:00	2024-11-06T14:00:00	3	Temperatura mínima	22.6
119916	7	Sololá	702	San José Chacayá	5	Chacayá	9	Septiembre	2023-09-17T00:00:00	2024-11-06T14:00:00	5	Humedad	65
119917	7	Sololá	702	San José Chacayá	5	Chacayá	9	Septiembre	2023-09-17T00:00:00	2024-11-06T14:00:00	6	Velocidad del viento	6.4
119918	7	Sololá	702	San José Chacayá	5	Chacayá	9	Septiembre	2023-09-17T00:00:00	2024-11-06T14:00:00	7	Dirección del viento	3.22
119919	7	Sololá	702	San José Chacayá	5	Chacayá	9	Septiembre	2023-09-17T00:00:00	2024-11-06T14:00:00	1	Precipitación	0
119920	7	Sololá	702	San José Chacayá	5	Chacayá	9	Septiembre	2023-09-17T00:00:00	2024-11-06T14:00:00	8	Radiación solar	425
119921	7	Sololá	702	San José Chacayá	5	Chacayá	9	Septiembre	2023-09-17T00:00:00	2024-11-06T15:00:00	2	Temperatura media	23.7
119922	7	Sololá	702	San José Chacayá	5	Chacayá	9	Septiembre	2023-09-17T00:00:00	2024-11-06T15:00:00	4	Temperatura máxima	23.7
119923	7	Sololá	702	San José Chacayá	5	Chacayá	9	Septiembre	2023-09-17T00:00:00	2024-11-06T15:00:00	3	Temperatura mínima	23.2
119924	7	Sololá	702	San José Chacayá	5	Chacayá	9	Septiembre	2023-09-17T00:00:00	2024-11-06T15:00:00	5	Humedad	66
119925	7	Sololá	702	San José Chacayá	5	Chacayá	9	Septiembre	2023-09-17T00:00:00	2024-11-06T15:00:00	6	Velocidad del viento	4.8
119926	7	Sololá	702	San José Chacayá	5	Chacayá	9	Septiembre	2023-09-17T00:00:00	2024-11-06T15:00:00	7	Dirección del viento	2.41
119927	7	Sololá	702	San José Chacayá	5	Chacayá	9	Septiembre	2023-09-17T00:00:00	2024-11-06T15:00:00	1	Precipitación	0
119928	7	Sololá	702	San José Chacayá	5	Chacayá	9	Septiembre	2023-09-17T00:00:00	2024-11-06T15:00:00	8	Radiación solar	165
119929	7	Sololá	702	San José Chacayá	5	Chacayá	9	Septiembre	2023-09-17T00:00:00	2024-11-06T16:00:00	2	Temperatura media	22.2
119930	7	Sololá	702	San José Chacayá	5	Chacayá	9	Septiembre	2023-09-17T00:00:00	2024-11-06T16:00:00	4	Temperatura máxima	23.1
119931	7	Sololá	702	San José Chacayá	5	Chacayá	9	Septiembre	2023-09-17T00:00:00	2024-11-06T16:00:00	3	Temperatura mínima	22.2
119932	7	Sololá	702	San José Chacayá	5	Chacayá	9	Septiembre	2023-09-17T00:00:00	2024-11-06T16:00:00	5	Humedad	71
119933	7	Sololá	702	San José Chacayá	5	Chacayá	9	Septiembre	2023-09-17T00:00:00	2024-11-06T16:00:00	6	Velocidad del viento	3.2
119934	7	Sololá	702	San José Chacayá	5	Chacayá	9	Septiembre	2023-09-17T00:00:00	2024-11-06T16:00:00	7	Dirección del viento	1.61
119935	7	Sololá	702	San José Chacayá	5	Chacayá	9	Septiembre	2023-09-17T00:00:00	2024-11-06T16:00:00	1	Precipitación	0
119936	7	Sololá	702	San José Chacayá	5	Chacayá	9	Septiembre	2023-09-17T00:00:00	2024-11-06T16:00:00	8	Radiación solar	44
119937	7	Sololá	702	San José Chacayá	5	Chacayá	9	Septiembre	2023-09-17T00:00:00	2024-11-06T17:00:00	2	Temperatura media	20.1
119938	7	Sololá	702	San José Chacayá	5	Chacayá	9	Septiembre	2023-09-17T00:00:00	2024-11-06T17:00:00	4	Temperatura máxima	21.4
119939	7	Sololá	702	San José Chacayá	5	Chacayá	9	Septiembre	2023-09-17T00:00:00	2024-11-06T17:00:00	3	Temperatura mínima	20.1
119940	7	Sololá	702	San José Chacayá	5	Chacayá	9	Septiembre	2023-09-17T00:00:00	2024-11-06T17:00:00	5	Humedad	78
119941	7	Sololá	702	San José Chacayá	5	Chacayá	9	Septiembre	2023-09-17T00:00:00	2024-11-06T17:00:00	6	Velocidad del viento	1.6
119942	7	Sololá	702	San José Chacayá	5	Chacayá	9	Septiembre	2023-09-17T00:00:00	2024-11-06T17:00:00	7	Dirección del viento	0.8
119943	7	Sololá	702	San José Chacayá	5	Chacayá	9	Septiembre	2023-09-17T00:00:00	2024-11-06T17:00:00	1	Precipitación	0
119944	7	Sololá	702	San José Chacayá	5	Chacayá	9	Septiembre	2023-09-17T00:00:00	2024-11-06T17:00:00	8	Radiación solar	112
119945	7	Sololá	702	San José Chacayá	5	Chacayá	9	Septiembre	2023-09-17T00:00:00	2024-11-06T18:00:00	2	Temperatura media	17.8
119946	7	Sololá	702	San José Chacayá	5	Chacayá	9	Septiembre	2023-09-17T00:00:00	2024-11-06T18:00:00	4	Temperatura máxima	18.7
119947	7	Sololá	702	San José Chacayá	5	Chacayá	9	Septiembre	2023-09-17T00:00:00	2024-11-06T18:00:00	3	Temperatura mínima	17.8
119948	7	Sololá	702	San José Chacayá	5	Chacayá	9	Septiembre	2023-09-17T00:00:00	2024-11-06T18:00:00	5	Humedad	86
119949	7	Sololá	702	San José Chacayá	5	Chacayá	9	Septiembre	2023-09-17T00:00:00	2024-11-06T18:00:00	6	Velocidad del viento	1.6
119950	7	Sololá	702	San José Chacayá	5	Chacayá	9	Septiembre	2023-09-17T00:00:00	2024-11-06T18:00:00	7	Dirección del viento	0.8
119951	7	Sololá	702	San José Chacayá	5	Chacayá	9	Septiembre	2023-09-17T00:00:00	2024-11-06T18:00:00	1	Precipitación	0
119952	7	Sololá	702	San José Chacayá	5	Chacayá	9	Septiembre	2023-09-17T00:00:00	2024-11-06T18:00:00	8	Radiación solar	33
119953	7	Sololá	702	San José Chacayá	5	Chacayá	9	Septiembre	2023-09-17T00:00:00	2024-11-06T19:00:00	2	Temperatura media	16.4
119954	7	Sololá	702	San José Chacayá	5	Chacayá	9	Septiembre	2023-09-17T00:00:00	2024-11-06T19:00:00	4	Temperatura máxima	17.3
119955	7	Sololá	702	San José Chacayá	5	Chacayá	9	Septiembre	2023-09-17T00:00:00	2024-11-06T19:00:00	3	Temperatura mínima	16.4
119956	7	Sololá	702	San José Chacayá	5	Chacayá	9	Septiembre	2023-09-17T00:00:00	2024-11-06T19:00:00	5	Humedad	88
119957	7	Sololá	702	San José Chacayá	5	Chacayá	9	Septiembre	2023-09-17T00:00:00	2024-11-06T19:00:00	6	Velocidad del viento	0
119958	7	Sololá	702	San José Chacayá	5	Chacayá	9	Septiembre	2023-09-17T00:00:00	2024-11-06T19:00:00	7	Dirección del viento	0
119959	7	Sololá	702	San José Chacayá	5	Chacayá	9	Septiembre	2023-09-17T00:00:00	2024-11-06T19:00:00	1	Precipitación	0
119960	7	Sololá	702	San José Chacayá	5	Chacayá	9	Septiembre	2023-09-17T00:00:00	2024-11-06T19:00:00	8	Radiación solar	0
119961	7	Sololá	702	San José Chacayá	5	Chacayá	9	Septiembre	2023-09-17T00:00:00	2024-11-06T20:00:00	2	Temperatura media	15.6
119962	7	Sololá	702	San José Chacayá	5	Chacayá	9	Septiembre	2023-09-17T00:00:00	2024-11-06T20:00:00	4	Temperatura máxima	16
119963	7	Sololá	702	San José Chacayá	5	Chacayá	9	Septiembre	2023-09-17T00:00:00	2024-11-06T20:00:00	3	Temperatura mínima	15.6
119964	7	Sololá	702	San José Chacayá	5	Chacayá	9	Septiembre	2023-09-17T00:00:00	2024-11-06T20:00:00	5	Humedad	90
119965	7	Sololá	702	San José Chacayá	5	Chacayá	9	Septiembre	2023-09-17T00:00:00	2024-11-06T20:00:00	6	Velocidad del viento	0
119966	7	Sololá	702	San José Chacayá	5	Chacayá	9	Septiembre	2023-09-17T00:00:00	2024-11-06T20:00:00	7	Dirección del viento	0
119967	7	Sololá	702	San José Chacayá	5	Chacayá	9	Septiembre	2023-09-17T00:00:00	2024-11-06T20:00:00	1	Precipitación	0
119968	7	Sololá	702	San José Chacayá	5	Chacayá	9	Septiembre	2023-09-17T00:00:00	2024-11-06T20:00:00	8	Radiación solar	0
119969	7	Sololá	702	San José Chacayá	5	Chacayá	9	Septiembre	2023-09-17T00:00:00	2024-11-06T21:00:00	2	Temperatura media	15.6
119970	7	Sololá	702	San José Chacayá	5	Chacayá	9	Septiembre	2023-09-17T00:00:00	2024-11-06T21:00:00	4	Temperatura máxima	15.6
119971	7	Sololá	702	San José Chacayá	5	Chacayá	9	Septiembre	2023-09-17T00:00:00	2024-11-06T21:00:00	3	Temperatura mínima	15.3
119972	7	Sololá	702	San José Chacayá	5	Chacayá	9	Septiembre	2023-09-17T00:00:00	2024-11-06T21:00:00	5	Humedad	89
119973	7	Sololá	702	San José Chacayá	5	Chacayá	9	Septiembre	2023-09-17T00:00:00	2024-11-06T21:00:00	6	Velocidad del viento	0
119974	7	Sololá	702	San José Chacayá	5	Chacayá	9	Septiembre	2023-09-17T00:00:00	2024-11-06T21:00:00	7	Dirección del viento	0
119975	7	Sololá	702	San José Chacayá	5	Chacayá	9	Septiembre	2023-09-17T00:00:00	2024-11-06T21:00:00	1	Precipitación	0
119976	7	Sololá	702	San José Chacayá	5	Chacayá	9	Septiembre	2023-09-17T00:00:00	2024-11-06T21:00:00	8	Radiación solar	0
119977	7	Sololá	702	San José Chacayá	5	Chacayá	9	Septiembre	2023-09-17T00:00:00	2024-11-06T22:00:00	2	Temperatura media	15.6
119978	7	Sololá	702	San José Chacayá	5	Chacayá	9	Septiembre	2023-09-17T00:00:00	2024-11-06T22:00:00	4	Temperatura máxima	15.8
119979	7	Sololá	702	San José Chacayá	5	Chacayá	9	Septiembre	2023-09-17T00:00:00	2024-11-06T22:00:00	3	Temperatura mínima	15.6
119980	7	Sololá	702	San José Chacayá	5	Chacayá	9	Septiembre	2023-09-17T00:00:00	2024-11-06T22:00:00	5	Humedad	89
119981	7	Sololá	702	San José Chacayá	5	Chacayá	9	Septiembre	2023-09-17T00:00:00	2024-11-06T22:00:00	6	Velocidad del viento	0
119982	7	Sololá	702	San José Chacayá	5	Chacayá	9	Septiembre	2023-09-17T00:00:00	2024-11-06T22:00:00	7	Dirección del viento	0
119983	7	Sololá	702	San José Chacayá	5	Chacayá	9	Septiembre	2023-09-17T00:00:00	2024-11-06T22:00:00	1	Precipitación	1.01
119984	7	Sololá	702	San José Chacayá	5	Chacayá	9	Septiembre	2023-09-17T00:00:00	2024-11-06T22:00:00	8	Radiación solar	0
119985	7	Sololá	702	San José Chacayá	5	Chacayá	9	Septiembre	2023-09-17T00:00:00	2024-11-06T23:00:00	2	Temperatura media	14.7
119986	7	Sololá	702	San José Chacayá	5	Chacayá	9	Septiembre	2023-09-17T00:00:00	2024-11-06T23:00:00	4	Temperatura máxima	15
119987	7	Sololá	702	San José Chacayá	5	Chacayá	9	Septiembre	2023-09-17T00:00:00	2024-11-06T23:00:00	3	Temperatura mínima	14.7
119988	7	Sololá	702	San José Chacayá	5	Chacayá	9	Septiembre	2023-09-17T00:00:00	2024-11-06T23:00:00	5	Humedad	92
119989	7	Sololá	702	San José Chacayá	5	Chacayá	9	Septiembre	2023-09-17T00:00:00	2024-11-06T23:00:00	6	Velocidad del viento	0
119990	7	Sololá	702	San José Chacayá	5	Chacayá	9	Septiembre	2023-09-17T00:00:00	2024-11-06T23:00:00	7	Dirección del viento	0
119991	7	Sololá	702	San José Chacayá	5	Chacayá	9	Septiembre	2023-09-17T00:00:00	2024-11-06T23:00:00	1	Precipitación	0.51
119992	7	Sololá	702	San José Chacayá	5	Chacayá	9	Septiembre	2023-09-17T00:00:00	2024-11-06T23:00:00	8	Radiación solar	0
119993	7	Sololá	702	San José Chacayá	5	Chacayá	9	Septiembre	2023-09-18T00:00:00	2024-11-06T00:00:00	2	Temperatura media	14.3
119994	7	Sololá	702	San José Chacayá	5	Chacayá	9	Septiembre	2023-09-18T00:00:00	2024-11-06T00:00:00	4	Temperatura máxima	14.6
119995	7	Sololá	702	San José Chacayá	5	Chacayá	9	Septiembre	2023-09-18T00:00:00	2024-11-06T00:00:00	3	Temperatura mínima	14.3
119996	7	Sololá	702	San José Chacayá	5	Chacayá	9	Septiembre	2023-09-18T00:00:00	2024-11-06T00:00:00	5	Humedad	93
119997	7	Sololá	702	San José Chacayá	5	Chacayá	9	Septiembre	2023-09-18T00:00:00	2024-11-06T00:00:00	6	Velocidad del viento	0
119998	7	Sololá	702	San José Chacayá	5	Chacayá	9	Septiembre	2023-09-18T00:00:00	2024-11-06T00:00:00	7	Dirección del viento	0
119999	7	Sololá	702	San José Chacayá	5	Chacayá	9	Septiembre	2023-09-18T00:00:00	2024-11-06T00:00:00	1	Precipitación	2.29
120000	7	Sololá	702	San José Chacayá	5	Chacayá	9	Septiembre	2023-09-18T00:00:00	2024-11-06T00:00:00	8	Radiación solar	0
120001	7	Sololá	702	San José Chacayá	5	Chacayá	9	Septiembre	2023-09-18T00:00:00	2024-11-06T01:00:00	2	Temperatura media	13.6
120002	7	Sololá	702	San José Chacayá	5	Chacayá	9	Septiembre	2023-09-18T00:00:00	2024-11-06T01:00:00	4	Temperatura máxima	14.2
120003	7	Sololá	702	San José Chacayá	5	Chacayá	9	Septiembre	2023-09-18T00:00:00	2024-11-06T01:00:00	3	Temperatura mínima	13.6
120004	7	Sololá	702	San José Chacayá	5	Chacayá	9	Septiembre	2023-09-18T00:00:00	2024-11-06T01:00:00	5	Humedad	89
120005	7	Sololá	702	San José Chacayá	5	Chacayá	9	Septiembre	2023-09-18T00:00:00	2024-11-06T01:00:00	6	Velocidad del viento	1.6
120006	7	Sololá	702	San José Chacayá	5	Chacayá	9	Septiembre	2023-09-18T00:00:00	2024-11-06T01:00:00	7	Dirección del viento	0.8
120007	7	Sololá	702	San José Chacayá	5	Chacayá	9	Septiembre	2023-09-18T00:00:00	2024-11-06T01:00:00	1	Precipitación	0
120008	7	Sololá	702	San José Chacayá	5	Chacayá	9	Septiembre	2023-09-18T00:00:00	2024-11-06T01:00:00	8	Radiación solar	0
120009	7	Sololá	702	San José Chacayá	5	Chacayá	9	Septiembre	2023-09-18T00:00:00	2024-11-06T02:00:00	2	Temperatura media	13.2
120010	7	Sololá	702	San José Chacayá	5	Chacayá	9	Septiembre	2023-09-18T00:00:00	2024-11-06T02:00:00	4	Temperatura máxima	13.3
120011	7	Sololá	702	San José Chacayá	5	Chacayá	9	Septiembre	2023-09-18T00:00:00	2024-11-06T02:00:00	3	Temperatura mínima	12.9
120012	7	Sololá	702	San José Chacayá	5	Chacayá	9	Septiembre	2023-09-18T00:00:00	2024-11-06T02:00:00	5	Humedad	87
120013	7	Sololá	702	San José Chacayá	5	Chacayá	9	Septiembre	2023-09-18T00:00:00	2024-11-06T02:00:00	6	Velocidad del viento	1.6
120014	7	Sololá	702	San José Chacayá	5	Chacayá	9	Septiembre	2023-09-18T00:00:00	2024-11-06T02:00:00	7	Dirección del viento	0.8
120015	7	Sololá	702	San José Chacayá	5	Chacayá	9	Septiembre	2023-09-18T00:00:00	2024-11-06T02:00:00	1	Precipitación	0.25
120016	7	Sololá	702	San José Chacayá	5	Chacayá	9	Septiembre	2023-09-18T00:00:00	2024-11-06T02:00:00	8	Radiación solar	0
120017	7	Sololá	702	San José Chacayá	5	Chacayá	9	Septiembre	2023-09-18T00:00:00	2024-11-06T03:00:00	2	Temperatura media	13.8
120018	7	Sololá	702	San José Chacayá	5	Chacayá	9	Septiembre	2023-09-18T00:00:00	2024-11-06T03:00:00	4	Temperatura máxima	13.8
120019	7	Sololá	702	San José Chacayá	5	Chacayá	9	Septiembre	2023-09-18T00:00:00	2024-11-06T03:00:00	3	Temperatura mínima	13.2
120020	7	Sololá	702	San José Chacayá	5	Chacayá	9	Septiembre	2023-09-18T00:00:00	2024-11-06T03:00:00	5	Humedad	81
120021	7	Sololá	702	San José Chacayá	5	Chacayá	9	Septiembre	2023-09-18T00:00:00	2024-11-06T03:00:00	6	Velocidad del viento	3.2
120022	7	Sololá	702	San José Chacayá	5	Chacayá	9	Septiembre	2023-09-18T00:00:00	2024-11-06T03:00:00	7	Dirección del viento	1.61
120023	7	Sololá	702	San José Chacayá	5	Chacayá	9	Septiembre	2023-09-18T00:00:00	2024-11-06T03:00:00	1	Precipitación	0
120024	7	Sololá	702	San José Chacayá	5	Chacayá	9	Septiembre	2023-09-18T00:00:00	2024-11-06T03:00:00	8	Radiación solar	0
120025	7	Sololá	702	San José Chacayá	5	Chacayá	9	Septiembre	2023-09-18T00:00:00	2024-11-06T04:00:00	2	Temperatura media	12.4
120026	7	Sololá	702	San José Chacayá	5	Chacayá	9	Septiembre	2023-09-18T00:00:00	2024-11-06T04:00:00	4	Temperatura máxima	13.6
120027	7	Sololá	702	San José Chacayá	5	Chacayá	9	Septiembre	2023-09-18T00:00:00	2024-11-06T04:00:00	3	Temperatura mínima	12.4
120028	7	Sololá	702	San José Chacayá	5	Chacayá	9	Septiembre	2023-09-18T00:00:00	2024-11-06T04:00:00	5	Humedad	83
120029	7	Sololá	702	San José Chacayá	5	Chacayá	9	Septiembre	2023-09-18T00:00:00	2024-11-06T04:00:00	6	Velocidad del viento	1.6
120030	7	Sololá	702	San José Chacayá	5	Chacayá	9	Septiembre	2023-09-18T00:00:00	2024-11-06T04:00:00	7	Dirección del viento	0.8
120031	7	Sololá	702	San José Chacayá	5	Chacayá	9	Septiembre	2023-09-18T00:00:00	2024-11-06T04:00:00	1	Precipitación	0
120032	7	Sololá	702	San José Chacayá	5	Chacayá	9	Septiembre	2023-09-18T00:00:00	2024-11-06T04:00:00	8	Radiación solar	0
120033	7	Sololá	702	San José Chacayá	5	Chacayá	9	Septiembre	2023-09-18T00:00:00	2024-11-06T05:00:00	2	Temperatura media	12.9
120034	7	Sololá	702	San José Chacayá	5	Chacayá	9	Septiembre	2023-09-18T00:00:00	2024-11-06T05:00:00	4	Temperatura máxima	13.3
120035	7	Sololá	702	San José Chacayá	5	Chacayá	9	Septiembre	2023-09-18T00:00:00	2024-11-06T05:00:00	3	Temperatura mínima	12.9
120036	7	Sololá	702	San José Chacayá	5	Chacayá	9	Septiembre	2023-09-18T00:00:00	2024-11-06T05:00:00	5	Humedad	82
120037	7	Sololá	702	San José Chacayá	5	Chacayá	9	Septiembre	2023-09-18T00:00:00	2024-11-06T05:00:00	6	Velocidad del viento	1.6
120038	7	Sololá	702	San José Chacayá	5	Chacayá	9	Septiembre	2023-09-18T00:00:00	2024-11-06T05:00:00	7	Dirección del viento	0.8
120039	7	Sololá	702	San José Chacayá	5	Chacayá	9	Septiembre	2023-09-18T00:00:00	2024-11-06T05:00:00	1	Precipitación	0
120040	7	Sololá	702	San José Chacayá	5	Chacayá	9	Septiembre	2023-09-18T00:00:00	2024-11-06T05:00:00	8	Radiación solar	0
120041	7	Sololá	702	San José Chacayá	5	Chacayá	9	Septiembre	2023-09-18T00:00:00	2024-11-06T06:00:00	2	Temperatura media	12.2
120042	7	Sololá	702	San José Chacayá	5	Chacayá	9	Septiembre	2023-09-18T00:00:00	2024-11-06T06:00:00	4	Temperatura máxima	12.3
120043	7	Sololá	702	San José Chacayá	5	Chacayá	9	Septiembre	2023-09-18T00:00:00	2024-11-06T06:00:00	3	Temperatura mínima	11.8
120044	7	Sololá	702	San José Chacayá	5	Chacayá	9	Septiembre	2023-09-18T00:00:00	2024-11-06T06:00:00	5	Humedad	76
120045	7	Sololá	702	San José Chacayá	5	Chacayá	9	Septiembre	2023-09-18T00:00:00	2024-11-06T06:00:00	6	Velocidad del viento	1.6
120046	7	Sololá	702	San José Chacayá	5	Chacayá	9	Septiembre	2023-09-18T00:00:00	2024-11-06T06:00:00	7	Dirección del viento	0.8
120047	7	Sololá	702	San José Chacayá	5	Chacayá	9	Septiembre	2023-09-18T00:00:00	2024-11-06T06:00:00	1	Precipitación	0
120048	7	Sololá	702	San José Chacayá	5	Chacayá	9	Septiembre	2023-09-18T00:00:00	2024-11-06T06:00:00	8	Radiación solar	1
120049	7	Sololá	702	San José Chacayá	5	Chacayá	9	Septiembre	2023-09-18T00:00:00	2024-11-06T07:00:00	2	Temperatura media	13.8
120050	7	Sololá	702	San José Chacayá	5	Chacayá	9	Septiembre	2023-09-18T00:00:00	2024-11-06T07:00:00	4	Temperatura máxima	13.8
120051	7	Sololá	702	San José Chacayá	5	Chacayá	9	Septiembre	2023-09-18T00:00:00	2024-11-06T07:00:00	3	Temperatura mínima	13.1
120052	7	Sololá	702	San José Chacayá	5	Chacayá	9	Septiembre	2023-09-18T00:00:00	2024-11-06T07:00:00	5	Humedad	76
120053	7	Sololá	702	San José Chacayá	5	Chacayá	9	Septiembre	2023-09-18T00:00:00	2024-11-06T07:00:00	6	Velocidad del viento	1.6
120054	7	Sololá	702	San José Chacayá	5	Chacayá	9	Septiembre	2023-09-18T00:00:00	2024-11-06T07:00:00	7	Dirección del viento	0.8
120055	7	Sololá	702	San José Chacayá	5	Chacayá	9	Septiembre	2023-09-18T00:00:00	2024-11-06T07:00:00	1	Precipitación	0
120056	7	Sololá	702	San José Chacayá	5	Chacayá	9	Septiembre	2023-09-18T00:00:00	2024-11-06T07:00:00	8	Radiación solar	59
120057	7	Sololá	702	San José Chacayá	5	Chacayá	9	Septiembre	2023-09-18T00:00:00	2024-11-06T08:00:00	2	Temperatura media	15.9
120058	7	Sololá	702	San José Chacayá	5	Chacayá	9	Septiembre	2023-09-18T00:00:00	2024-11-06T08:00:00	4	Temperatura máxima	15.9
120059	7	Sololá	702	San José Chacayá	5	Chacayá	9	Septiembre	2023-09-18T00:00:00	2024-11-06T08:00:00	3	Temperatura mínima	14.8
120060	7	Sololá	702	San José Chacayá	5	Chacayá	9	Septiembre	2023-09-18T00:00:00	2024-11-06T08:00:00	5	Humedad	67
120061	7	Sololá	702	San José Chacayá	5	Chacayá	9	Septiembre	2023-09-18T00:00:00	2024-11-06T08:00:00	6	Velocidad del viento	4.8
120062	7	Sololá	702	San José Chacayá	5	Chacayá	9	Septiembre	2023-09-18T00:00:00	2024-11-06T08:00:00	7	Dirección del viento	2.41
120063	7	Sololá	702	San José Chacayá	5	Chacayá	9	Septiembre	2023-09-18T00:00:00	2024-11-06T08:00:00	1	Precipitación	0
120064	7	Sololá	702	San José Chacayá	5	Chacayá	9	Septiembre	2023-09-18T00:00:00	2024-11-06T08:00:00	8	Radiación solar	189
120065	7	Sololá	702	San José Chacayá	5	Chacayá	9	Septiembre	2023-09-18T00:00:00	2024-11-06T09:00:00	2	Temperatura media	20.2
120066	7	Sololá	702	San José Chacayá	5	Chacayá	9	Septiembre	2023-09-18T00:00:00	2024-11-06T09:00:00	4	Temperatura máxima	20.2
120067	7	Sololá	702	San José Chacayá	5	Chacayá	9	Septiembre	2023-09-18T00:00:00	2024-11-06T09:00:00	3	Temperatura mínima	17.9
120068	7	Sololá	702	San José Chacayá	5	Chacayá	9	Septiembre	2023-09-18T00:00:00	2024-11-06T09:00:00	5	Humedad	58
120069	7	Sololá	702	San José Chacayá	5	Chacayá	9	Septiembre	2023-09-18T00:00:00	2024-11-06T09:00:00	6	Velocidad del viento	6.4
120070	7	Sololá	702	San José Chacayá	5	Chacayá	9	Septiembre	2023-09-18T00:00:00	2024-11-06T09:00:00	7	Dirección del viento	3.22
120071	7	Sololá	702	San José Chacayá	5	Chacayá	9	Septiembre	2023-09-18T00:00:00	2024-11-06T09:00:00	1	Precipitación	0
120072	7	Sololá	702	San José Chacayá	5	Chacayá	9	Septiembre	2023-09-18T00:00:00	2024-11-06T09:00:00	8	Radiación solar	552
120073	7	Sololá	702	San José Chacayá	5	Chacayá	9	Septiembre	2023-09-18T00:00:00	2024-11-06T10:00:00	2	Temperatura media	20.4
120074	7	Sololá	702	San José Chacayá	5	Chacayá	9	Septiembre	2023-09-18T00:00:00	2024-11-06T10:00:00	4	Temperatura máxima	21.7
120075	7	Sololá	702	San José Chacayá	5	Chacayá	9	Septiembre	2023-09-18T00:00:00	2024-11-06T10:00:00	3	Temperatura mínima	20.4
120076	7	Sololá	702	San José Chacayá	5	Chacayá	9	Septiembre	2023-09-18T00:00:00	2024-11-06T10:00:00	5	Humedad	56
120077	7	Sololá	702	San José Chacayá	5	Chacayá	9	Septiembre	2023-09-18T00:00:00	2024-11-06T10:00:00	6	Velocidad del viento	4.8
120078	7	Sololá	702	San José Chacayá	5	Chacayá	9	Septiembre	2023-09-18T00:00:00	2024-11-06T10:00:00	7	Dirección del viento	2.41
120079	7	Sololá	702	San José Chacayá	5	Chacayá	9	Septiembre	2023-09-18T00:00:00	2024-11-06T10:00:00	1	Precipitación	0
120080	7	Sololá	702	San José Chacayá	5	Chacayá	9	Septiembre	2023-09-18T00:00:00	2024-11-06T10:00:00	8	Radiación solar	756
120081	7	Sololá	702	San José Chacayá	5	Chacayá	9	Septiembre	2023-09-18T00:00:00	2024-11-06T11:00:00	2	Temperatura media	22.8
120082	7	Sololá	702	San José Chacayá	5	Chacayá	9	Septiembre	2023-09-18T00:00:00	2024-11-06T11:00:00	4	Temperatura máxima	23.1
120083	7	Sololá	702	San José Chacayá	5	Chacayá	9	Septiembre	2023-09-18T00:00:00	2024-11-06T11:00:00	3	Temperatura mínima	22.2
120084	7	Sololá	702	San José Chacayá	5	Chacayá	9	Septiembre	2023-09-18T00:00:00	2024-11-06T11:00:00	5	Humedad	55
120085	7	Sololá	702	San José Chacayá	5	Chacayá	9	Septiembre	2023-09-18T00:00:00	2024-11-06T11:00:00	6	Velocidad del viento	6.4
120086	7	Sololá	702	San José Chacayá	5	Chacayá	9	Septiembre	2023-09-18T00:00:00	2024-11-06T11:00:00	7	Dirección del viento	3.22
120087	7	Sololá	702	San José Chacayá	5	Chacayá	9	Septiembre	2023-09-18T00:00:00	2024-11-06T11:00:00	1	Precipitación	0
120088	7	Sololá	702	San José Chacayá	5	Chacayá	9	Septiembre	2023-09-18T00:00:00	2024-11-06T11:00:00	8	Radiación solar	893
120089	7	Sololá	702	San José Chacayá	5	Chacayá	9	Septiembre	2023-09-18T00:00:00	2024-11-06T12:00:00	2	Temperatura media	22.3
120090	7	Sololá	702	San José Chacayá	5	Chacayá	9	Septiembre	2023-09-18T00:00:00	2024-11-06T12:00:00	4	Temperatura máxima	23.4
120091	7	Sololá	702	San José Chacayá	5	Chacayá	9	Septiembre	2023-09-18T00:00:00	2024-11-06T12:00:00	3	Temperatura mínima	22.3
120092	7	Sololá	702	San José Chacayá	5	Chacayá	9	Septiembre	2023-09-18T00:00:00	2024-11-06T12:00:00	5	Humedad	61
120093	7	Sololá	702	San José Chacayá	5	Chacayá	9	Septiembre	2023-09-18T00:00:00	2024-11-06T12:00:00	6	Velocidad del viento	4.8
120094	7	Sololá	702	San José Chacayá	5	Chacayá	9	Septiembre	2023-09-18T00:00:00	2024-11-06T12:00:00	7	Dirección del viento	2.41
120095	7	Sololá	702	San José Chacayá	5	Chacayá	9	Septiembre	2023-09-18T00:00:00	2024-11-06T12:00:00	1	Precipitación	0
120096	7	Sololá	702	San José Chacayá	5	Chacayá	9	Septiembre	2023-09-18T00:00:00	2024-11-06T12:00:00	8	Radiación solar	1000
120097	7	Sololá	702	San José Chacayá	5	Chacayá	9	Septiembre	2023-09-18T00:00:00	2024-11-06T13:00:00	2	Temperatura media	22.3
120098	7	Sololá	702	San José Chacayá	5	Chacayá	9	Septiembre	2023-09-18T00:00:00	2024-11-06T13:00:00	4	Temperatura máxima	22.8
120099	7	Sololá	702	San José Chacayá	5	Chacayá	9	Septiembre	2023-09-18T00:00:00	2024-11-06T13:00:00	3	Temperatura mínima	22.3
120100	7	Sololá	702	San José Chacayá	5	Chacayá	9	Septiembre	2023-09-18T00:00:00	2024-11-06T13:00:00	5	Humedad	68
120101	7	Sololá	702	San José Chacayá	5	Chacayá	9	Septiembre	2023-09-18T00:00:00	2024-11-06T13:00:00	6	Velocidad del viento	6.4
120102	7	Sololá	702	San José Chacayá	5	Chacayá	9	Septiembre	2023-09-18T00:00:00	2024-11-06T13:00:00	7	Dirección del viento	3.22
120103	7	Sololá	702	San José Chacayá	5	Chacayá	9	Septiembre	2023-09-18T00:00:00	2024-11-06T13:00:00	1	Precipitación	0
120104	7	Sololá	702	San José Chacayá	5	Chacayá	9	Septiembre	2023-09-18T00:00:00	2024-11-06T13:00:00	8	Radiación solar	612
120105	7	Sololá	702	San José Chacayá	5	Chacayá	9	Septiembre	2023-09-18T00:00:00	2024-11-06T14:00:00	2	Temperatura media	22.8
120106	7	Sololá	702	San José Chacayá	5	Chacayá	9	Septiembre	2023-09-18T00:00:00	2024-11-06T14:00:00	4	Temperatura máxima	23.4
120107	7	Sololá	702	San José Chacayá	5	Chacayá	9	Septiembre	2023-09-18T00:00:00	2024-11-06T14:00:00	3	Temperatura mínima	22.7
120108	7	Sololá	702	San José Chacayá	5	Chacayá	9	Septiembre	2023-09-18T00:00:00	2024-11-06T14:00:00	5	Humedad	68
120109	7	Sololá	702	San José Chacayá	5	Chacayá	9	Septiembre	2023-09-18T00:00:00	2024-11-06T14:00:00	6	Velocidad del viento	4.8
120110	7	Sololá	702	San José Chacayá	5	Chacayá	9	Septiembre	2023-09-18T00:00:00	2024-11-06T14:00:00	7	Dirección del viento	2.41
120111	7	Sololá	702	San José Chacayá	5	Chacayá	9	Septiembre	2023-09-18T00:00:00	2024-11-06T14:00:00	1	Precipitación	0
120112	7	Sololá	702	San José Chacayá	5	Chacayá	9	Septiembre	2023-09-18T00:00:00	2024-11-06T14:00:00	8	Radiación solar	802
120113	7	Sololá	702	San José Chacayá	5	Chacayá	9	Septiembre	2023-09-18T00:00:00	2024-11-06T15:00:00	2	Temperatura media	19.5
120114	7	Sololá	702	San José Chacayá	5	Chacayá	9	Septiembre	2023-09-18T00:00:00	2024-11-06T15:00:00	4	Temperatura máxima	22.7
120115	7	Sololá	702	San José Chacayá	5	Chacayá	9	Septiembre	2023-09-18T00:00:00	2024-11-06T15:00:00	3	Temperatura mínima	19.5
120116	7	Sololá	702	San José Chacayá	5	Chacayá	9	Septiembre	2023-09-18T00:00:00	2024-11-06T15:00:00	5	Humedad	80
120117	7	Sololá	702	San José Chacayá	5	Chacayá	9	Septiembre	2023-09-18T00:00:00	2024-11-06T15:00:00	6	Velocidad del viento	3.2
120118	7	Sololá	702	San José Chacayá	5	Chacayá	9	Septiembre	2023-09-18T00:00:00	2024-11-06T15:00:00	7	Dirección del viento	1.61
120119	7	Sololá	702	San José Chacayá	5	Chacayá	9	Septiembre	2023-09-18T00:00:00	2024-11-06T15:00:00	1	Precipitación	0
120120	7	Sololá	702	San José Chacayá	5	Chacayá	9	Septiembre	2023-09-18T00:00:00	2024-11-06T15:00:00	8	Radiación solar	542
120121	7	Sololá	702	San José Chacayá	5	Chacayá	9	Septiembre	2023-09-18T00:00:00	2024-11-06T16:00:00	2	Temperatura media	17.9
120122	7	Sololá	702	San José Chacayá	5	Chacayá	9	Septiembre	2023-09-18T00:00:00	2024-11-06T16:00:00	4	Temperatura máxima	18.6
120123	7	Sololá	702	San José Chacayá	5	Chacayá	9	Septiembre	2023-09-18T00:00:00	2024-11-06T16:00:00	3	Temperatura mínima	17.8
120124	7	Sololá	702	San José Chacayá	5	Chacayá	9	Septiembre	2023-09-18T00:00:00	2024-11-06T16:00:00	5	Humedad	86
120125	7	Sololá	702	San José Chacayá	5	Chacayá	9	Septiembre	2023-09-18T00:00:00	2024-11-06T16:00:00	6	Velocidad del viento	1.6
120126	7	Sololá	702	San José Chacayá	5	Chacayá	9	Septiembre	2023-09-18T00:00:00	2024-11-06T16:00:00	7	Dirección del viento	0.8
120127	7	Sololá	702	San José Chacayá	5	Chacayá	9	Septiembre	2023-09-18T00:00:00	2024-11-06T16:00:00	1	Precipitación	0
120128	7	Sololá	702	San José Chacayá	5	Chacayá	9	Septiembre	2023-09-18T00:00:00	2024-11-06T16:00:00	8	Radiación solar	457
120129	7	Sololá	702	San José Chacayá	5	Chacayá	9	Septiembre	2023-09-18T00:00:00	2024-11-06T17:00:00	2	Temperatura media	17.8
120130	7	Sololá	702	San José Chacayá	5	Chacayá	9	Septiembre	2023-09-18T00:00:00	2024-11-06T17:00:00	4	Temperatura máxima	17.9
120131	7	Sololá	702	San José Chacayá	5	Chacayá	9	Septiembre	2023-09-18T00:00:00	2024-11-06T17:00:00	3	Temperatura mínima	17.8
120132	7	Sololá	702	San José Chacayá	5	Chacayá	9	Septiembre	2023-09-18T00:00:00	2024-11-06T17:00:00	5	Humedad	85
120133	7	Sololá	702	San José Chacayá	5	Chacayá	9	Septiembre	2023-09-18T00:00:00	2024-11-06T17:00:00	6	Velocidad del viento	1.6
120134	7	Sololá	702	San José Chacayá	5	Chacayá	9	Septiembre	2023-09-18T00:00:00	2024-11-06T17:00:00	7	Dirección del viento	0.8
120135	7	Sololá	702	San José Chacayá	5	Chacayá	9	Septiembre	2023-09-18T00:00:00	2024-11-06T17:00:00	1	Precipitación	0
120136	7	Sololá	702	San José Chacayá	5	Chacayá	9	Septiembre	2023-09-18T00:00:00	2024-11-06T17:00:00	8	Radiación solar	103
120137	7	Sololá	702	San José Chacayá	5	Chacayá	9	Septiembre	2023-09-18T00:00:00	2024-11-06T18:00:00	2	Temperatura media	16.8
120138	7	Sololá	702	San José Chacayá	5	Chacayá	9	Septiembre	2023-09-18T00:00:00	2024-11-06T18:00:00	4	Temperatura máxima	17.2
120139	7	Sololá	702	San José Chacayá	5	Chacayá	9	Septiembre	2023-09-18T00:00:00	2024-11-06T18:00:00	3	Temperatura mínima	16.8
120140	7	Sololá	702	San José Chacayá	5	Chacayá	9	Septiembre	2023-09-18T00:00:00	2024-11-06T18:00:00	5	Humedad	89
120141	7	Sololá	702	San José Chacayá	5	Chacayá	9	Septiembre	2023-09-18T00:00:00	2024-11-06T18:00:00	6	Velocidad del viento	0
120142	7	Sololá	702	San José Chacayá	5	Chacayá	9	Septiembre	2023-09-18T00:00:00	2024-11-06T18:00:00	7	Dirección del viento	0
120143	7	Sololá	702	San José Chacayá	5	Chacayá	9	Septiembre	2023-09-18T00:00:00	2024-11-06T18:00:00	1	Precipitación	0
120144	7	Sololá	702	San José Chacayá	5	Chacayá	9	Septiembre	2023-09-18T00:00:00	2024-11-06T18:00:00	8	Radiación solar	32
120145	7	Sololá	702	San José Chacayá	5	Chacayá	9	Septiembre	2023-09-18T00:00:00	2024-11-06T19:00:00	2	Temperatura media	15.8
120146	7	Sololá	702	San José Chacayá	5	Chacayá	9	Septiembre	2023-09-18T00:00:00	2024-11-06T19:00:00	4	Temperatura máxima	16.2
120147	7	Sololá	702	San José Chacayá	5	Chacayá	9	Septiembre	2023-09-18T00:00:00	2024-11-06T19:00:00	3	Temperatura mínima	15.8
120148	7	Sololá	702	San José Chacayá	5	Chacayá	9	Septiembre	2023-09-18T00:00:00	2024-11-06T19:00:00	5	Humedad	91
120149	7	Sololá	702	San José Chacayá	5	Chacayá	9	Septiembre	2023-09-18T00:00:00	2024-11-06T19:00:00	6	Velocidad del viento	0
120150	7	Sololá	702	San José Chacayá	5	Chacayá	9	Septiembre	2023-09-18T00:00:00	2024-11-06T19:00:00	7	Dirección del viento	0
120151	7	Sololá	702	San José Chacayá	5	Chacayá	9	Septiembre	2023-09-18T00:00:00	2024-11-06T19:00:00	1	Precipitación	0
120152	7	Sololá	702	San José Chacayá	5	Chacayá	9	Septiembre	2023-09-18T00:00:00	2024-11-06T19:00:00	8	Radiación solar	0
120153	7	Sololá	702	San José Chacayá	5	Chacayá	9	Septiembre	2023-09-18T00:00:00	2024-11-06T20:00:00	2	Temperatura media	15.2
120154	7	Sololá	702	San José Chacayá	5	Chacayá	9	Septiembre	2023-09-18T00:00:00	2024-11-06T20:00:00	4	Temperatura máxima	15.4
120155	7	Sololá	702	San José Chacayá	5	Chacayá	9	Septiembre	2023-09-18T00:00:00	2024-11-06T20:00:00	3	Temperatura mínima	15.1
120156	7	Sololá	702	San José Chacayá	5	Chacayá	9	Septiembre	2023-09-18T00:00:00	2024-11-06T20:00:00	5	Humedad	91
120157	7	Sololá	702	San José Chacayá	5	Chacayá	9	Septiembre	2023-09-18T00:00:00	2024-11-06T20:00:00	6	Velocidad del viento	0
120158	7	Sololá	702	San José Chacayá	5	Chacayá	9	Septiembre	2023-09-18T00:00:00	2024-11-06T20:00:00	7	Dirección del viento	0
120159	7	Sololá	702	San José Chacayá	5	Chacayá	9	Septiembre	2023-09-18T00:00:00	2024-11-06T20:00:00	1	Precipitación	0
120160	7	Sololá	702	San José Chacayá	5	Chacayá	9	Septiembre	2023-09-18T00:00:00	2024-11-06T20:00:00	8	Radiación solar	0
120161	7	Sololá	702	San José Chacayá	5	Chacayá	9	Septiembre	2023-09-18T00:00:00	2024-11-06T21:00:00	2	Temperatura media	14.5
120162	7	Sololá	702	San José Chacayá	5	Chacayá	9	Septiembre	2023-09-18T00:00:00	2024-11-06T21:00:00	4	Temperatura máxima	15
120163	7	Sololá	702	San José Chacayá	5	Chacayá	9	Septiembre	2023-09-18T00:00:00	2024-11-06T21:00:00	3	Temperatura mínima	14.4
120164	7	Sololá	702	San José Chacayá	5	Chacayá	9	Septiembre	2023-09-18T00:00:00	2024-11-06T21:00:00	5	Humedad	90
120165	7	Sololá	702	San José Chacayá	5	Chacayá	9	Septiembre	2023-09-18T00:00:00	2024-11-06T21:00:00	6	Velocidad del viento	0
120166	7	Sololá	702	San José Chacayá	5	Chacayá	9	Septiembre	2023-09-18T00:00:00	2024-11-06T21:00:00	7	Dirección del viento	0
120167	7	Sololá	702	San José Chacayá	5	Chacayá	9	Septiembre	2023-09-18T00:00:00	2024-11-06T21:00:00	1	Precipitación	0
120168	7	Sololá	702	San José Chacayá	5	Chacayá	9	Septiembre	2023-09-18T00:00:00	2024-11-06T21:00:00	8	Radiación solar	0
120169	7	Sololá	702	San José Chacayá	5	Chacayá	9	Septiembre	2023-09-18T00:00:00	2024-11-06T22:00:00	2	Temperatura media	13.7
120170	7	Sololá	702	San José Chacayá	5	Chacayá	9	Septiembre	2023-09-18T00:00:00	2024-11-06T22:00:00	4	Temperatura máxima	14.5
120171	7	Sololá	702	San José Chacayá	5	Chacayá	9	Septiembre	2023-09-18T00:00:00	2024-11-06T22:00:00	3	Temperatura mínima	13.7
120172	7	Sololá	702	San José Chacayá	5	Chacayá	9	Septiembre	2023-09-18T00:00:00	2024-11-06T22:00:00	5	Humedad	89
120173	7	Sololá	702	San José Chacayá	5	Chacayá	9	Septiembre	2023-09-18T00:00:00	2024-11-06T22:00:00	6	Velocidad del viento	0
120174	7	Sololá	702	San José Chacayá	5	Chacayá	9	Septiembre	2023-09-18T00:00:00	2024-11-06T22:00:00	7	Dirección del viento	0
120175	7	Sololá	702	San José Chacayá	5	Chacayá	9	Septiembre	2023-09-18T00:00:00	2024-11-06T22:00:00	1	Precipitación	0
120176	7	Sololá	702	San José Chacayá	5	Chacayá	9	Septiembre	2023-09-18T00:00:00	2024-11-06T22:00:00	8	Radiación solar	0
120177	7	Sololá	702	San José Chacayá	5	Chacayá	9	Septiembre	2023-09-18T00:00:00	2024-11-06T23:00:00	2	Temperatura media	12.8
120178	7	Sololá	702	San José Chacayá	5	Chacayá	9	Septiembre	2023-09-18T00:00:00	2024-11-06T23:00:00	4	Temperatura máxima	13.2
120179	7	Sololá	702	San José Chacayá	5	Chacayá	9	Septiembre	2023-09-18T00:00:00	2024-11-06T23:00:00	3	Temperatura mínima	12.8
120180	7	Sololá	702	San José Chacayá	5	Chacayá	9	Septiembre	2023-09-18T00:00:00	2024-11-06T23:00:00	5	Humedad	91
120181	7	Sololá	702	San José Chacayá	5	Chacayá	9	Septiembre	2023-09-18T00:00:00	2024-11-06T23:00:00	6	Velocidad del viento	0
120182	7	Sololá	702	San José Chacayá	5	Chacayá	9	Septiembre	2023-09-18T00:00:00	2024-11-06T23:00:00	7	Dirección del viento	0
120183	7	Sololá	702	San José Chacayá	5	Chacayá	9	Septiembre	2023-09-18T00:00:00	2024-11-06T23:00:00	1	Precipitación	0
120184	7	Sololá	702	San José Chacayá	5	Chacayá	9	Septiembre	2023-09-18T00:00:00	2024-11-06T23:00:00	8	Radiación solar	0
120185	7	Sololá	702	San José Chacayá	5	Chacayá	9	Septiembre	2023-09-19T00:00:00	2024-11-06T00:00:00	2	Temperatura media	12
120186	7	Sololá	702	San José Chacayá	5	Chacayá	9	Septiembre	2023-09-19T00:00:00	2024-11-06T00:00:00	4	Temperatura máxima	12.4
120187	7	Sololá	702	San José Chacayá	5	Chacayá	9	Septiembre	2023-09-19T00:00:00	2024-11-06T00:00:00	3	Temperatura mínima	12
120188	7	Sololá	702	San José Chacayá	5	Chacayá	9	Septiembre	2023-09-19T00:00:00	2024-11-06T00:00:00	5	Humedad	92
120189	7	Sololá	702	San José Chacayá	5	Chacayá	9	Septiembre	2023-09-19T00:00:00	2024-11-06T00:00:00	6	Velocidad del viento	0
120190	7	Sololá	702	San José Chacayá	5	Chacayá	9	Septiembre	2023-09-19T00:00:00	2024-11-06T00:00:00	7	Dirección del viento	0
120191	7	Sololá	702	San José Chacayá	5	Chacayá	9	Septiembre	2023-09-19T00:00:00	2024-11-06T00:00:00	1	Precipitación	0
120192	7	Sololá	702	San José Chacayá	5	Chacayá	9	Septiembre	2023-09-19T00:00:00	2024-11-06T00:00:00	8	Radiación solar	0
120193	7	Sololá	702	San José Chacayá	5	Chacayá	9	Septiembre	2023-09-19T00:00:00	2024-11-06T01:00:00	2	Temperatura media	11.5
120194	7	Sololá	702	San José Chacayá	5	Chacayá	9	Septiembre	2023-09-19T00:00:00	2024-11-06T01:00:00	4	Temperatura máxima	11.8
120195	7	Sololá	702	San José Chacayá	5	Chacayá	9	Septiembre	2023-09-19T00:00:00	2024-11-06T01:00:00	3	Temperatura mínima	11.5
120196	7	Sololá	702	San José Chacayá	5	Chacayá	9	Septiembre	2023-09-19T00:00:00	2024-11-06T01:00:00	5	Humedad	93
120197	7	Sololá	702	San José Chacayá	5	Chacayá	9	Septiembre	2023-09-19T00:00:00	2024-11-06T01:00:00	6	Velocidad del viento	0
120198	7	Sololá	702	San José Chacayá	5	Chacayá	9	Septiembre	2023-09-19T00:00:00	2024-11-06T01:00:00	7	Dirección del viento	0
120199	7	Sololá	702	San José Chacayá	5	Chacayá	9	Septiembre	2023-09-19T00:00:00	2024-11-06T01:00:00	1	Precipitación	0
120200	7	Sololá	702	San José Chacayá	5	Chacayá	9	Septiembre	2023-09-19T00:00:00	2024-11-06T01:00:00	8	Radiación solar	0
120201	7	Sololá	702	San José Chacayá	5	Chacayá	9	Septiembre	2023-09-19T00:00:00	2024-11-06T02:00:00	2	Temperatura media	11.7
120202	7	Sololá	702	San José Chacayá	5	Chacayá	9	Septiembre	2023-09-19T00:00:00	2024-11-06T02:00:00	4	Temperatura máxima	11.8
120203	7	Sololá	702	San José Chacayá	5	Chacayá	9	Septiembre	2023-09-19T00:00:00	2024-11-06T02:00:00	3	Temperatura mínima	11.7
120204	7	Sololá	702	San José Chacayá	5	Chacayá	9	Septiembre	2023-09-19T00:00:00	2024-11-06T02:00:00	5	Humedad	92
120205	7	Sololá	702	San José Chacayá	5	Chacayá	9	Septiembre	2023-09-19T00:00:00	2024-11-06T02:00:00	6	Velocidad del viento	0
120206	7	Sololá	702	San José Chacayá	5	Chacayá	9	Septiembre	2023-09-19T00:00:00	2024-11-06T02:00:00	7	Dirección del viento	0
120207	7	Sololá	702	San José Chacayá	5	Chacayá	9	Septiembre	2023-09-19T00:00:00	2024-11-06T02:00:00	1	Precipitación	0
120208	7	Sololá	702	San José Chacayá	5	Chacayá	9	Septiembre	2023-09-19T00:00:00	2024-11-06T02:00:00	8	Radiación solar	0
120209	7	Sololá	702	San José Chacayá	5	Chacayá	9	Septiembre	2023-09-19T00:00:00	2024-11-06T03:00:00	2	Temperatura media	11.8
120210	7	Sololá	702	San José Chacayá	5	Chacayá	9	Septiembre	2023-09-19T00:00:00	2024-11-06T03:00:00	4	Temperatura máxima	12.4
120211	7	Sololá	702	San José Chacayá	5	Chacayá	9	Septiembre	2023-09-19T00:00:00	2024-11-06T03:00:00	3	Temperatura mínima	11.8
120212	7	Sololá	702	San José Chacayá	5	Chacayá	9	Septiembre	2023-09-19T00:00:00	2024-11-06T03:00:00	5	Humedad	89
120213	7	Sololá	702	San José Chacayá	5	Chacayá	9	Septiembre	2023-09-19T00:00:00	2024-11-06T03:00:00	6	Velocidad del viento	1.6
120214	7	Sololá	702	San José Chacayá	5	Chacayá	9	Septiembre	2023-09-19T00:00:00	2024-11-06T03:00:00	7	Dirección del viento	0.8
120215	7	Sololá	702	San José Chacayá	5	Chacayá	9	Septiembre	2023-09-19T00:00:00	2024-11-06T03:00:00	1	Precipitación	0
120216	7	Sololá	702	San José Chacayá	5	Chacayá	9	Septiembre	2023-09-19T00:00:00	2024-11-06T03:00:00	8	Radiación solar	0
120217	7	Sololá	702	San José Chacayá	5	Chacayá	9	Septiembre	2023-09-19T00:00:00	2024-11-06T04:00:00	2	Temperatura media	10.7
120218	7	Sololá	702	San José Chacayá	5	Chacayá	9	Septiembre	2023-09-19T00:00:00	2024-11-06T04:00:00	4	Temperatura máxima	11.2
120219	7	Sololá	702	San José Chacayá	5	Chacayá	9	Septiembre	2023-09-19T00:00:00	2024-11-06T04:00:00	3	Temperatura mínima	10.7
120220	7	Sololá	702	San José Chacayá	5	Chacayá	9	Septiembre	2023-09-19T00:00:00	2024-11-06T04:00:00	5	Humedad	90
120221	7	Sololá	702	San José Chacayá	5	Chacayá	9	Septiembre	2023-09-19T00:00:00	2024-11-06T04:00:00	6	Velocidad del viento	1.6
120222	7	Sololá	702	San José Chacayá	5	Chacayá	9	Septiembre	2023-09-19T00:00:00	2024-11-06T04:00:00	7	Dirección del viento	0.8
120223	7	Sololá	702	San José Chacayá	5	Chacayá	9	Septiembre	2023-09-19T00:00:00	2024-11-06T04:00:00	1	Precipitación	0
120224	7	Sololá	702	San José Chacayá	5	Chacayá	9	Septiembre	2023-09-19T00:00:00	2024-11-06T04:00:00	8	Radiación solar	0
120225	7	Sololá	702	San José Chacayá	5	Chacayá	9	Septiembre	2023-09-19T00:00:00	2024-11-06T05:00:00	2	Temperatura media	10.3
120226	7	Sololá	702	San José Chacayá	5	Chacayá	9	Septiembre	2023-09-19T00:00:00	2024-11-06T05:00:00	4	Temperatura máxima	10.3
120227	7	Sololá	702	San José Chacayá	5	Chacayá	9	Septiembre	2023-09-19T00:00:00	2024-11-06T05:00:00	3	Temperatura mínima	10
120228	7	Sololá	702	San José Chacayá	5	Chacayá	9	Septiembre	2023-09-19T00:00:00	2024-11-06T05:00:00	5	Humedad	88
120229	7	Sololá	702	San José Chacayá	5	Chacayá	9	Septiembre	2023-09-19T00:00:00	2024-11-06T05:00:00	6	Velocidad del viento	1.6
120230	7	Sololá	702	San José Chacayá	5	Chacayá	9	Septiembre	2023-09-19T00:00:00	2024-11-06T05:00:00	7	Dirección del viento	0.8
120231	7	Sololá	702	San José Chacayá	5	Chacayá	9	Septiembre	2023-09-19T00:00:00	2024-11-06T05:00:00	1	Precipitación	0
120232	7	Sololá	702	San José Chacayá	5	Chacayá	9	Septiembre	2023-09-19T00:00:00	2024-11-06T05:00:00	8	Radiación solar	0
120233	7	Sololá	702	San José Chacayá	5	Chacayá	9	Septiembre	2023-09-19T00:00:00	2024-11-06T06:00:00	2	Temperatura media	9.5
120234	7	Sololá	702	San José Chacayá	5	Chacayá	9	Septiembre	2023-09-19T00:00:00	2024-11-06T06:00:00	4	Temperatura máxima	9.8
120235	7	Sololá	702	San José Chacayá	5	Chacayá	9	Septiembre	2023-09-19T00:00:00	2024-11-06T06:00:00	3	Temperatura mínima	9.4
120236	7	Sololá	702	San José Chacayá	5	Chacayá	9	Septiembre	2023-09-19T00:00:00	2024-11-06T06:00:00	5	Humedad	87
120237	7	Sololá	702	San José Chacayá	5	Chacayá	9	Septiembre	2023-09-19T00:00:00	2024-11-06T06:00:00	6	Velocidad del viento	1.6
120238	7	Sololá	702	San José Chacayá	5	Chacayá	9	Septiembre	2023-09-19T00:00:00	2024-11-06T06:00:00	7	Dirección del viento	0.8
120239	7	Sololá	702	San José Chacayá	5	Chacayá	9	Septiembre	2023-09-19T00:00:00	2024-11-06T06:00:00	1	Precipitación	0
120240	7	Sololá	702	San José Chacayá	5	Chacayá	9	Septiembre	2023-09-19T00:00:00	2024-11-06T06:00:00	8	Radiación solar	1
120241	7	Sololá	702	San José Chacayá	5	Chacayá	9	Septiembre	2023-09-19T00:00:00	2024-11-06T07:00:00	2	Temperatura media	10.2
120242	7	Sololá	702	San José Chacayá	5	Chacayá	9	Septiembre	2023-09-19T00:00:00	2024-11-06T07:00:00	4	Temperatura máxima	10.2
120243	7	Sololá	702	San José Chacayá	5	Chacayá	9	Septiembre	2023-09-19T00:00:00	2024-11-06T07:00:00	3	Temperatura mínima	9.4
120244	7	Sololá	702	San José Chacayá	5	Chacayá	9	Septiembre	2023-09-19T00:00:00	2024-11-06T07:00:00	5	Humedad	89
120245	7	Sololá	702	San José Chacayá	5	Chacayá	9	Septiembre	2023-09-19T00:00:00	2024-11-06T07:00:00	6	Velocidad del viento	0
120246	7	Sololá	702	San José Chacayá	5	Chacayá	9	Septiembre	2023-09-19T00:00:00	2024-11-06T07:00:00	7	Dirección del viento	0
120247	7	Sololá	702	San José Chacayá	5	Chacayá	9	Septiembre	2023-09-19T00:00:00	2024-11-06T07:00:00	1	Precipitación	0
120248	7	Sololá	702	San José Chacayá	5	Chacayá	9	Septiembre	2023-09-19T00:00:00	2024-11-06T07:00:00	8	Radiación solar	28
120249	7	Sololá	702	San José Chacayá	5	Chacayá	9	Septiembre	2023-09-19T00:00:00	2024-11-06T08:00:00	2	Temperatura media	14.9
120250	7	Sololá	702	San José Chacayá	5	Chacayá	9	Septiembre	2023-09-19T00:00:00	2024-11-06T08:00:00	4	Temperatura máxima	14.9
120251	7	Sololá	702	San José Chacayá	5	Chacayá	9	Septiembre	2023-09-19T00:00:00	2024-11-06T08:00:00	3	Temperatura mínima	12.4
120252	7	Sololá	702	San José Chacayá	5	Chacayá	9	Septiembre	2023-09-19T00:00:00	2024-11-06T08:00:00	5	Humedad	71
120253	7	Sololá	702	San José Chacayá	5	Chacayá	9	Septiembre	2023-09-19T00:00:00	2024-11-06T08:00:00	6	Velocidad del viento	0
120254	7	Sololá	702	San José Chacayá	5	Chacayá	9	Septiembre	2023-09-19T00:00:00	2024-11-06T08:00:00	7	Dirección del viento	0
120255	7	Sololá	702	San José Chacayá	5	Chacayá	9	Septiembre	2023-09-19T00:00:00	2024-11-06T08:00:00	1	Precipitación	0
120256	7	Sololá	702	San José Chacayá	5	Chacayá	9	Septiembre	2023-09-19T00:00:00	2024-11-06T08:00:00	8	Radiación solar	107
120257	7	Sololá	702	San José Chacayá	5	Chacayá	9	Septiembre	2023-09-19T00:00:00	2024-11-06T09:00:00	2	Temperatura media	19.6
120258	7	Sololá	702	San José Chacayá	5	Chacayá	9	Septiembre	2023-09-19T00:00:00	2024-11-06T09:00:00	4	Temperatura máxima	19.6
120259	7	Sololá	702	San José Chacayá	5	Chacayá	9	Septiembre	2023-09-19T00:00:00	2024-11-06T09:00:00	3	Temperatura mínima	17.1
120260	7	Sololá	702	San José Chacayá	5	Chacayá	9	Septiembre	2023-09-19T00:00:00	2024-11-06T09:00:00	5	Humedad	44
120261	7	Sololá	702	San José Chacayá	5	Chacayá	9	Septiembre	2023-09-19T00:00:00	2024-11-06T09:00:00	6	Velocidad del viento	4.8
120262	7	Sololá	702	San José Chacayá	5	Chacayá	9	Septiembre	2023-09-19T00:00:00	2024-11-06T09:00:00	7	Dirección del viento	2.41
120263	7	Sololá	702	San José Chacayá	5	Chacayá	9	Septiembre	2023-09-19T00:00:00	2024-11-06T09:00:00	1	Precipitación	0
120264	7	Sololá	702	San José Chacayá	5	Chacayá	9	Septiembre	2023-09-19T00:00:00	2024-11-06T09:00:00	8	Radiación solar	597
120265	7	Sololá	702	San José Chacayá	5	Chacayá	9	Septiembre	2023-09-19T00:00:00	2024-11-06T10:00:00	2	Temperatura media	22.2
120266	7	Sololá	702	San José Chacayá	5	Chacayá	9	Septiembre	2023-09-19T00:00:00	2024-11-06T10:00:00	4	Temperatura máxima	22.2
120267	7	Sololá	702	San José Chacayá	5	Chacayá	9	Septiembre	2023-09-19T00:00:00	2024-11-06T10:00:00	3	Temperatura mínima	20.9
120268	7	Sololá	702	San José Chacayá	5	Chacayá	9	Septiembre	2023-09-19T00:00:00	2024-11-06T10:00:00	5	Humedad	43
120269	7	Sololá	702	San José Chacayá	5	Chacayá	9	Septiembre	2023-09-19T00:00:00	2024-11-06T10:00:00	6	Velocidad del viento	4.8
120270	7	Sololá	702	San José Chacayá	5	Chacayá	9	Septiembre	2023-09-19T00:00:00	2024-11-06T10:00:00	7	Dirección del viento	2.41
120271	7	Sololá	702	San José Chacayá	5	Chacayá	9	Septiembre	2023-09-19T00:00:00	2024-11-06T10:00:00	1	Precipitación	0
120272	7	Sololá	702	San José Chacayá	5	Chacayá	9	Septiembre	2023-09-19T00:00:00	2024-11-06T10:00:00	8	Radiación solar	846
120273	7	Sololá	702	San José Chacayá	5	Chacayá	9	Septiembre	2023-09-19T00:00:00	2024-11-06T11:00:00	2	Temperatura media	22.8
120274	7	Sololá	702	San José Chacayá	5	Chacayá	9	Septiembre	2023-09-19T00:00:00	2024-11-06T11:00:00	4	Temperatura máxima	23.1
120275	7	Sololá	702	San José Chacayá	5	Chacayá	9	Septiembre	2023-09-19T00:00:00	2024-11-06T11:00:00	3	Temperatura mínima	22.7
120276	7	Sololá	702	San José Chacayá	5	Chacayá	9	Septiembre	2023-09-19T00:00:00	2024-11-06T11:00:00	5	Humedad	42
120277	7	Sololá	702	San José Chacayá	5	Chacayá	9	Septiembre	2023-09-19T00:00:00	2024-11-06T11:00:00	6	Velocidad del viento	4.8
120278	7	Sololá	702	San José Chacayá	5	Chacayá	9	Septiembre	2023-09-19T00:00:00	2024-11-06T11:00:00	7	Dirección del viento	2.41
120279	7	Sololá	702	San José Chacayá	5	Chacayá	9	Septiembre	2023-09-19T00:00:00	2024-11-06T11:00:00	1	Precipitación	0
120280	7	Sololá	702	San José Chacayá	5	Chacayá	9	Septiembre	2023-09-19T00:00:00	2024-11-06T11:00:00	8	Radiación solar	545
120281	7	Sololá	702	San José Chacayá	5	Chacayá	9	Septiembre	2023-09-19T00:00:00	2024-11-06T12:00:00	2	Temperatura media	23.2
120282	7	Sololá	702	San José Chacayá	5	Chacayá	9	Septiembre	2023-09-19T00:00:00	2024-11-06T12:00:00	4	Temperatura máxima	23.8
120283	7	Sololá	702	San José Chacayá	5	Chacayá	9	Septiembre	2023-09-19T00:00:00	2024-11-06T12:00:00	3	Temperatura mínima	23.1
120284	7	Sololá	702	San José Chacayá	5	Chacayá	9	Septiembre	2023-09-19T00:00:00	2024-11-06T12:00:00	5	Humedad	46
120285	7	Sololá	702	San José Chacayá	5	Chacayá	9	Septiembre	2023-09-19T00:00:00	2024-11-06T12:00:00	6	Velocidad del viento	6.4
120286	7	Sololá	702	San José Chacayá	5	Chacayá	9	Septiembre	2023-09-19T00:00:00	2024-11-06T12:00:00	7	Dirección del viento	3.22
120287	7	Sololá	702	San José Chacayá	5	Chacayá	9	Septiembre	2023-09-19T00:00:00	2024-11-06T12:00:00	1	Precipitación	0
120288	7	Sololá	702	San José Chacayá	5	Chacayá	9	Septiembre	2023-09-19T00:00:00	2024-11-06T12:00:00	8	Radiación solar	355
120289	7	Sololá	702	San José Chacayá	5	Chacayá	9	Septiembre	2023-09-19T00:00:00	2024-11-06T13:00:00	2	Temperatura media	23.3
120290	7	Sololá	702	San José Chacayá	5	Chacayá	9	Septiembre	2023-09-19T00:00:00	2024-11-06T13:00:00	4	Temperatura máxima	23.3
120291	7	Sololá	702	San José Chacayá	5	Chacayá	9	Septiembre	2023-09-19T00:00:00	2024-11-06T13:00:00	3	Temperatura mínima	22.8
120292	7	Sololá	702	San José Chacayá	5	Chacayá	9	Septiembre	2023-09-19T00:00:00	2024-11-06T13:00:00	5	Humedad	49
120293	7	Sololá	702	San José Chacayá	5	Chacayá	9	Septiembre	2023-09-19T00:00:00	2024-11-06T13:00:00	6	Velocidad del viento	6.4
120294	7	Sololá	702	San José Chacayá	5	Chacayá	9	Septiembre	2023-09-19T00:00:00	2024-11-06T13:00:00	7	Dirección del viento	3.22
120295	7	Sololá	702	San José Chacayá	5	Chacayá	9	Septiembre	2023-09-19T00:00:00	2024-11-06T13:00:00	1	Precipitación	0
120296	7	Sololá	702	San José Chacayá	5	Chacayá	9	Septiembre	2023-09-19T00:00:00	2024-11-06T13:00:00	8	Radiación solar	847
120297	7	Sololá	702	San José Chacayá	5	Chacayá	9	Septiembre	2023-09-19T00:00:00	2024-11-06T14:00:00	2	Temperatura media	23.3
120298	7	Sololá	702	San José Chacayá	5	Chacayá	9	Septiembre	2023-09-19T00:00:00	2024-11-06T14:00:00	4	Temperatura máxima	23.9
120299	7	Sololá	702	San José Chacayá	5	Chacayá	9	Septiembre	2023-09-19T00:00:00	2024-11-06T14:00:00	3	Temperatura mínima	23.3
120300	7	Sololá	702	San José Chacayá	5	Chacayá	9	Septiembre	2023-09-19T00:00:00	2024-11-06T14:00:00	5	Humedad	57
120301	7	Sololá	702	San José Chacayá	5	Chacayá	9	Septiembre	2023-09-19T00:00:00	2024-11-06T14:00:00	6	Velocidad del viento	6.4
120302	7	Sololá	702	San José Chacayá	5	Chacayá	9	Septiembre	2023-09-19T00:00:00	2024-11-06T14:00:00	7	Dirección del viento	3.22
120303	7	Sololá	702	San José Chacayá	5	Chacayá	9	Septiembre	2023-09-19T00:00:00	2024-11-06T14:00:00	1	Precipitación	0
120304	7	Sololá	702	San José Chacayá	5	Chacayá	9	Septiembre	2023-09-19T00:00:00	2024-11-06T14:00:00	8	Radiación solar	466
120305	7	Sololá	702	San José Chacayá	5	Chacayá	9	Septiembre	2023-09-19T00:00:00	2024-11-06T15:00:00	2	Temperatura media	21.5
120306	7	Sololá	702	San José Chacayá	5	Chacayá	9	Septiembre	2023-09-19T00:00:00	2024-11-06T15:00:00	4	Temperatura máxima	22.3
120307	7	Sololá	702	San José Chacayá	5	Chacayá	9	Septiembre	2023-09-19T00:00:00	2024-11-06T15:00:00	3	Temperatura mínima	21.3
120308	7	Sololá	702	San José Chacayá	5	Chacayá	9	Septiembre	2023-09-19T00:00:00	2024-11-06T15:00:00	5	Humedad	64
120309	7	Sololá	702	San José Chacayá	5	Chacayá	9	Septiembre	2023-09-19T00:00:00	2024-11-06T15:00:00	6	Velocidad del viento	4.8
120310	7	Sololá	702	San José Chacayá	5	Chacayá	9	Septiembre	2023-09-19T00:00:00	2024-11-06T15:00:00	7	Dirección del viento	2.41
120311	7	Sololá	702	San José Chacayá	5	Chacayá	9	Septiembre	2023-09-19T00:00:00	2024-11-06T15:00:00	1	Precipitación	0
120312	7	Sololá	702	San José Chacayá	5	Chacayá	9	Septiembre	2023-09-19T00:00:00	2024-11-06T15:00:00	8	Radiación solar	191
120313	7	Sololá	702	San José Chacayá	5	Chacayá	9	Septiembre	2023-09-19T00:00:00	2024-11-06T16:00:00	2	Temperatura media	20.3
120314	7	Sololá	702	San José Chacayá	5	Chacayá	9	Septiembre	2023-09-19T00:00:00	2024-11-06T16:00:00	4	Temperatura máxima	21.4
120315	7	Sololá	702	San José Chacayá	5	Chacayá	9	Septiembre	2023-09-19T00:00:00	2024-11-06T16:00:00	3	Temperatura mínima	20.3
120316	7	Sololá	702	San José Chacayá	5	Chacayá	9	Septiembre	2023-09-19T00:00:00	2024-11-06T16:00:00	5	Humedad	72
120317	7	Sololá	702	San José Chacayá	5	Chacayá	9	Septiembre	2023-09-19T00:00:00	2024-11-06T16:00:00	6	Velocidad del viento	3.2
120318	7	Sololá	702	San José Chacayá	5	Chacayá	9	Septiembre	2023-09-19T00:00:00	2024-11-06T16:00:00	7	Dirección del viento	1.61
120319	7	Sololá	702	San José Chacayá	5	Chacayá	9	Septiembre	2023-09-19T00:00:00	2024-11-06T16:00:00	1	Precipitación	0
120320	7	Sololá	702	San José Chacayá	5	Chacayá	9	Septiembre	2023-09-19T00:00:00	2024-11-06T16:00:00	8	Radiación solar	220
120321	7	Sololá	702	San José Chacayá	5	Chacayá	9	Septiembre	2023-09-19T00:00:00	2024-11-06T17:00:00	2	Temperatura media	19.4
120322	7	Sololá	702	San José Chacayá	5	Chacayá	9	Septiembre	2023-09-19T00:00:00	2024-11-06T17:00:00	4	Temperatura máxima	20.1
120323	7	Sololá	702	San José Chacayá	5	Chacayá	9	Septiembre	2023-09-19T00:00:00	2024-11-06T17:00:00	3	Temperatura mínima	19.4
120324	7	Sololá	702	San José Chacayá	5	Chacayá	9	Septiembre	2023-09-19T00:00:00	2024-11-06T17:00:00	5	Humedad	78
120325	7	Sololá	702	San José Chacayá	5	Chacayá	9	Septiembre	2023-09-19T00:00:00	2024-11-06T17:00:00	6	Velocidad del viento	1.6
120326	7	Sololá	702	San José Chacayá	5	Chacayá	9	Septiembre	2023-09-19T00:00:00	2024-11-06T17:00:00	7	Dirección del viento	0.8
120327	7	Sololá	702	San José Chacayá	5	Chacayá	9	Septiembre	2023-09-19T00:00:00	2024-11-06T17:00:00	1	Precipitación	0
120328	7	Sololá	702	San José Chacayá	5	Chacayá	9	Septiembre	2023-09-19T00:00:00	2024-11-06T17:00:00	8	Radiación solar	13
120329	7	Sololá	702	San José Chacayá	5	Chacayá	9	Septiembre	2023-09-19T00:00:00	2024-11-06T18:00:00	2	Temperatura media	16.9
120330	7	Sololá	702	San José Chacayá	5	Chacayá	9	Septiembre	2023-09-19T00:00:00	2024-11-06T18:00:00	4	Temperatura máxima	18
120331	7	Sololá	702	San José Chacayá	5	Chacayá	9	Septiembre	2023-09-19T00:00:00	2024-11-06T18:00:00	3	Temperatura mínima	16.9
120332	7	Sololá	702	San José Chacayá	5	Chacayá	9	Septiembre	2023-09-19T00:00:00	2024-11-06T18:00:00	5	Humedad	86
120333	7	Sololá	702	San José Chacayá	5	Chacayá	9	Septiembre	2023-09-19T00:00:00	2024-11-06T18:00:00	6	Velocidad del viento	0
120334	7	Sololá	702	San José Chacayá	5	Chacayá	9	Septiembre	2023-09-19T00:00:00	2024-11-06T18:00:00	7	Dirección del viento	0
120335	7	Sololá	702	San José Chacayá	5	Chacayá	9	Septiembre	2023-09-19T00:00:00	2024-11-06T18:00:00	1	Precipitación	0
120336	7	Sololá	702	San José Chacayá	5	Chacayá	9	Septiembre	2023-09-19T00:00:00	2024-11-06T18:00:00	8	Radiación solar	5
120337	7	Sololá	702	San José Chacayá	5	Chacayá	9	Septiembre	2023-09-19T00:00:00	2024-11-06T19:00:00	2	Temperatura media	15.9
120338	7	Sololá	702	San José Chacayá	5	Chacayá	9	Septiembre	2023-09-19T00:00:00	2024-11-06T19:00:00	4	Temperatura máxima	16.6
120339	7	Sololá	702	San José Chacayá	5	Chacayá	9	Septiembre	2023-09-19T00:00:00	2024-11-06T19:00:00	3	Temperatura mínima	15.9
120340	7	Sololá	702	San José Chacayá	5	Chacayá	9	Septiembre	2023-09-19T00:00:00	2024-11-06T19:00:00	5	Humedad	91
120341	7	Sololá	702	San José Chacayá	5	Chacayá	9	Septiembre	2023-09-19T00:00:00	2024-11-06T19:00:00	6	Velocidad del viento	0
120342	7	Sololá	702	San José Chacayá	5	Chacayá	9	Septiembre	2023-09-19T00:00:00	2024-11-06T19:00:00	7	Dirección del viento	0
120343	7	Sololá	702	San José Chacayá	5	Chacayá	9	Septiembre	2023-09-19T00:00:00	2024-11-06T19:00:00	1	Precipitación	0
120344	7	Sololá	702	San José Chacayá	5	Chacayá	9	Septiembre	2023-09-19T00:00:00	2024-11-06T19:00:00	8	Radiación solar	0
120345	7	Sololá	702	San José Chacayá	5	Chacayá	9	Septiembre	2023-09-19T00:00:00	2024-11-06T20:00:00	2	Temperatura media	14.6
120346	7	Sololá	702	San José Chacayá	5	Chacayá	9	Septiembre	2023-09-19T00:00:00	2024-11-06T20:00:00	4	Temperatura máxima	15.4
120347	7	Sololá	702	San José Chacayá	5	Chacayá	9	Septiembre	2023-09-19T00:00:00	2024-11-06T20:00:00	3	Temperatura mínima	14.6
120348	7	Sololá	702	San José Chacayá	5	Chacayá	9	Septiembre	2023-09-19T00:00:00	2024-11-06T20:00:00	5	Humedad	90
120349	7	Sololá	702	San José Chacayá	5	Chacayá	9	Septiembre	2023-09-19T00:00:00	2024-11-06T20:00:00	6	Velocidad del viento	0
120350	7	Sololá	702	San José Chacayá	5	Chacayá	9	Septiembre	2023-09-19T00:00:00	2024-11-06T20:00:00	7	Dirección del viento	0
120351	7	Sololá	702	San José Chacayá	5	Chacayá	9	Septiembre	2023-09-19T00:00:00	2024-11-06T20:00:00	1	Precipitación	0
120352	7	Sololá	702	San José Chacayá	5	Chacayá	9	Septiembre	2023-09-19T00:00:00	2024-11-06T20:00:00	8	Radiación solar	0
120353	7	Sololá	702	San José Chacayá	5	Chacayá	9	Septiembre	2023-09-19T00:00:00	2024-11-06T21:00:00	2	Temperatura media	13.4
120354	7	Sololá	702	San José Chacayá	5	Chacayá	9	Septiembre	2023-09-19T00:00:00	2024-11-06T21:00:00	4	Temperatura máxima	13.8
120355	7	Sololá	702	San José Chacayá	5	Chacayá	9	Septiembre	2023-09-19T00:00:00	2024-11-06T21:00:00	3	Temperatura mínima	13.3
120356	7	Sololá	702	San José Chacayá	5	Chacayá	9	Septiembre	2023-09-19T00:00:00	2024-11-06T21:00:00	5	Humedad	91
120357	7	Sololá	702	San José Chacayá	5	Chacayá	9	Septiembre	2023-09-19T00:00:00	2024-11-06T21:00:00	6	Velocidad del viento	0
120358	7	Sololá	702	San José Chacayá	5	Chacayá	9	Septiembre	2023-09-19T00:00:00	2024-11-06T21:00:00	7	Dirección del viento	0
120359	7	Sololá	702	San José Chacayá	5	Chacayá	9	Septiembre	2023-09-19T00:00:00	2024-11-06T21:00:00	1	Precipitación	0
120360	7	Sololá	702	San José Chacayá	5	Chacayá	9	Septiembre	2023-09-19T00:00:00	2024-11-06T21:00:00	8	Radiación solar	0
120361	7	Sololá	702	San José Chacayá	5	Chacayá	9	Septiembre	2023-09-19T00:00:00	2024-11-06T22:00:00	2	Temperatura media	13.4
120362	7	Sololá	702	San José Chacayá	5	Chacayá	9	Septiembre	2023-09-19T00:00:00	2024-11-06T22:00:00	4	Temperatura máxima	13.8
120363	7	Sololá	702	San José Chacayá	5	Chacayá	9	Septiembre	2023-09-19T00:00:00	2024-11-06T22:00:00	3	Temperatura mínima	13.2
120364	7	Sololá	702	San José Chacayá	5	Chacayá	9	Septiembre	2023-09-19T00:00:00	2024-11-06T22:00:00	5	Humedad	88
120365	7	Sololá	702	San José Chacayá	5	Chacayá	9	Septiembre	2023-09-19T00:00:00	2024-11-06T22:00:00	6	Velocidad del viento	1.6
120366	7	Sololá	702	San José Chacayá	5	Chacayá	9	Septiembre	2023-09-19T00:00:00	2024-11-06T22:00:00	7	Dirección del viento	0.8
120367	7	Sololá	702	San José Chacayá	5	Chacayá	9	Septiembre	2023-09-19T00:00:00	2024-11-06T22:00:00	1	Precipitación	0
120368	7	Sololá	702	San José Chacayá	5	Chacayá	9	Septiembre	2023-09-19T00:00:00	2024-11-06T22:00:00	8	Radiación solar	0
120369	7	Sololá	702	San José Chacayá	5	Chacayá	9	Septiembre	2023-09-19T00:00:00	2024-11-06T23:00:00	2	Temperatura media	11.9
120370	7	Sololá	702	San José Chacayá	5	Chacayá	9	Septiembre	2023-09-19T00:00:00	2024-11-06T23:00:00	4	Temperatura máxima	12.5
120371	7	Sololá	702	San José Chacayá	5	Chacayá	9	Septiembre	2023-09-19T00:00:00	2024-11-06T23:00:00	3	Temperatura mínima	11.9
120372	7	Sololá	702	San José Chacayá	5	Chacayá	9	Septiembre	2023-09-19T00:00:00	2024-11-06T23:00:00	5	Humedad	92
120373	7	Sololá	702	San José Chacayá	5	Chacayá	9	Septiembre	2023-09-19T00:00:00	2024-11-06T23:00:00	6	Velocidad del viento	0
120374	7	Sololá	702	San José Chacayá	5	Chacayá	9	Septiembre	2023-09-19T00:00:00	2024-11-06T23:00:00	7	Dirección del viento	0
120375	7	Sololá	702	San José Chacayá	5	Chacayá	9	Septiembre	2023-09-19T00:00:00	2024-11-06T23:00:00	1	Precipitación	0
120376	7	Sololá	702	San José Chacayá	5	Chacayá	9	Septiembre	2023-09-19T00:00:00	2024-11-06T23:00:00	8	Radiación solar	0
120377	7	Sololá	702	San José Chacayá	5	Chacayá	9	Septiembre	2023-09-20T00:00:00	2024-11-06T00:00:00	2	Temperatura media	11.2
120378	7	Sololá	702	San José Chacayá	5	Chacayá	9	Septiembre	2023-09-20T00:00:00	2024-11-06T00:00:00	4	Temperatura máxima	11.6
120379	7	Sololá	702	San José Chacayá	5	Chacayá	9	Septiembre	2023-09-20T00:00:00	2024-11-06T00:00:00	3	Temperatura mínima	11.2
120380	7	Sololá	702	San José Chacayá	5	Chacayá	9	Septiembre	2023-09-20T00:00:00	2024-11-06T00:00:00	5	Humedad	92
120381	7	Sololá	702	San José Chacayá	5	Chacayá	9	Septiembre	2023-09-20T00:00:00	2024-11-06T00:00:00	6	Velocidad del viento	0
120382	7	Sololá	702	San José Chacayá	5	Chacayá	9	Septiembre	2023-09-20T00:00:00	2024-11-06T00:00:00	7	Dirección del viento	0
120383	7	Sololá	702	San José Chacayá	5	Chacayá	9	Septiembre	2023-09-20T00:00:00	2024-11-06T00:00:00	1	Precipitación	0
120384	7	Sololá	702	San José Chacayá	5	Chacayá	9	Septiembre	2023-09-20T00:00:00	2024-11-06T00:00:00	8	Radiación solar	0
120385	7	Sololá	702	San José Chacayá	5	Chacayá	9	Septiembre	2023-09-20T00:00:00	2024-11-06T01:00:00	2	Temperatura media	10.9
120386	7	Sololá	702	San José Chacayá	5	Chacayá	9	Septiembre	2023-09-20T00:00:00	2024-11-06T01:00:00	4	Temperatura máxima	11.1
120387	7	Sololá	702	San José Chacayá	5	Chacayá	9	Septiembre	2023-09-20T00:00:00	2024-11-06T01:00:00	3	Temperatura mínima	10.9
120388	7	Sololá	702	San José Chacayá	5	Chacayá	9	Septiembre	2023-09-20T00:00:00	2024-11-06T01:00:00	5	Humedad	91
120389	7	Sololá	702	San José Chacayá	5	Chacayá	9	Septiembre	2023-09-20T00:00:00	2024-11-06T01:00:00	6	Velocidad del viento	1.6
120390	7	Sololá	702	San José Chacayá	5	Chacayá	9	Septiembre	2023-09-20T00:00:00	2024-11-06T01:00:00	7	Dirección del viento	0.8
120391	7	Sololá	702	San José Chacayá	5	Chacayá	9	Septiembre	2023-09-20T00:00:00	2024-11-06T01:00:00	1	Precipitación	0
120392	7	Sololá	702	San José Chacayá	5	Chacayá	9	Septiembre	2023-09-20T00:00:00	2024-11-06T01:00:00	8	Radiación solar	0
120393	7	Sololá	702	San José Chacayá	5	Chacayá	9	Septiembre	2023-09-20T00:00:00	2024-11-06T02:00:00	2	Temperatura media	10.1
120394	7	Sololá	702	San José Chacayá	5	Chacayá	9	Septiembre	2023-09-20T00:00:00	2024-11-06T02:00:00	4	Temperatura máxima	10.6
120395	7	Sololá	702	San José Chacayá	5	Chacayá	9	Septiembre	2023-09-20T00:00:00	2024-11-06T02:00:00	3	Temperatura mínima	10.1
120396	7	Sololá	702	San José Chacayá	5	Chacayá	9	Septiembre	2023-09-20T00:00:00	2024-11-06T02:00:00	5	Humedad	92
120397	7	Sololá	702	San José Chacayá	5	Chacayá	9	Septiembre	2023-09-20T00:00:00	2024-11-06T02:00:00	6	Velocidad del viento	0
120398	7	Sololá	702	San José Chacayá	5	Chacayá	9	Septiembre	2023-09-20T00:00:00	2024-11-06T02:00:00	7	Dirección del viento	0
120399	7	Sololá	702	San José Chacayá	5	Chacayá	9	Septiembre	2023-09-20T00:00:00	2024-11-06T02:00:00	1	Precipitación	0
120400	7	Sololá	702	San José Chacayá	5	Chacayá	9	Septiembre	2023-09-20T00:00:00	2024-11-06T02:00:00	8	Radiación solar	0
120401	7	Sololá	702	San José Chacayá	5	Chacayá	9	Septiembre	2023-09-20T00:00:00	2024-11-06T03:00:00	2	Temperatura media	9.7
120402	7	Sololá	702	San José Chacayá	5	Chacayá	9	Septiembre	2023-09-20T00:00:00	2024-11-06T03:00:00	4	Temperatura máxima	10
120403	7	Sololá	702	San José Chacayá	5	Chacayá	9	Septiembre	2023-09-20T00:00:00	2024-11-06T03:00:00	3	Temperatura mínima	9.7
120404	7	Sololá	702	San José Chacayá	5	Chacayá	9	Septiembre	2023-09-20T00:00:00	2024-11-06T03:00:00	5	Humedad	92
120405	7	Sololá	702	San José Chacayá	5	Chacayá	9	Septiembre	2023-09-20T00:00:00	2024-11-06T03:00:00	6	Velocidad del viento	0
120406	7	Sololá	702	San José Chacayá	5	Chacayá	9	Septiembre	2023-09-20T00:00:00	2024-11-06T03:00:00	7	Dirección del viento	0
120407	7	Sololá	702	San José Chacayá	5	Chacayá	9	Septiembre	2023-09-20T00:00:00	2024-11-06T03:00:00	1	Precipitación	0
120408	7	Sololá	702	San José Chacayá	5	Chacayá	9	Septiembre	2023-09-20T00:00:00	2024-11-06T03:00:00	8	Radiación solar	0
120409	7	Sololá	702	San José Chacayá	5	Chacayá	9	Septiembre	2023-09-20T00:00:00	2024-11-06T04:00:00	2	Temperatura media	9.8
120410	7	Sololá	702	San José Chacayá	5	Chacayá	9	Septiembre	2023-09-20T00:00:00	2024-11-06T04:00:00	4	Temperatura máxima	9.8
120411	7	Sololá	702	San José Chacayá	5	Chacayá	9	Septiembre	2023-09-20T00:00:00	2024-11-06T04:00:00	3	Temperatura mínima	9.7
120412	7	Sololá	702	San José Chacayá	5	Chacayá	9	Septiembre	2023-09-20T00:00:00	2024-11-06T04:00:00	5	Humedad	92
120413	7	Sololá	702	San José Chacayá	5	Chacayá	9	Septiembre	2023-09-20T00:00:00	2024-11-06T04:00:00	6	Velocidad del viento	1.6
120414	7	Sololá	702	San José Chacayá	5	Chacayá	9	Septiembre	2023-09-20T00:00:00	2024-11-06T04:00:00	7	Dirección del viento	0.8
120415	7	Sololá	702	San José Chacayá	5	Chacayá	9	Septiembre	2023-09-20T00:00:00	2024-11-06T04:00:00	1	Precipitación	0
120416	7	Sololá	702	San José Chacayá	5	Chacayá	9	Septiembre	2023-09-20T00:00:00	2024-11-06T04:00:00	8	Radiación solar	0
120417	7	Sololá	702	San José Chacayá	5	Chacayá	9	Septiembre	2023-09-20T00:00:00	2024-11-06T05:00:00	2	Temperatura media	9.4
120418	7	Sololá	702	San José Chacayá	5	Chacayá	9	Septiembre	2023-09-20T00:00:00	2024-11-06T05:00:00	4	Temperatura máxima	9.8
120419	7	Sololá	702	San José Chacayá	5	Chacayá	9	Septiembre	2023-09-20T00:00:00	2024-11-06T05:00:00	3	Temperatura mínima	9.4
120420	7	Sololá	702	San José Chacayá	5	Chacayá	9	Septiembre	2023-09-20T00:00:00	2024-11-06T05:00:00	5	Humedad	91
120421	7	Sololá	702	San José Chacayá	5	Chacayá	9	Septiembre	2023-09-20T00:00:00	2024-11-06T05:00:00	6	Velocidad del viento	1.6
120422	7	Sololá	702	San José Chacayá	5	Chacayá	9	Septiembre	2023-09-20T00:00:00	2024-11-06T05:00:00	7	Dirección del viento	0.8
120423	7	Sololá	702	San José Chacayá	5	Chacayá	9	Septiembre	2023-09-20T00:00:00	2024-11-06T05:00:00	1	Precipitación	0
120424	7	Sololá	702	San José Chacayá	5	Chacayá	9	Septiembre	2023-09-20T00:00:00	2024-11-06T05:00:00	8	Radiación solar	0
120425	7	Sololá	702	San José Chacayá	5	Chacayá	9	Septiembre	2023-09-20T00:00:00	2024-11-06T06:00:00	2	Temperatura media	8.9
120426	7	Sololá	702	San José Chacayá	5	Chacayá	9	Septiembre	2023-09-20T00:00:00	2024-11-06T06:00:00	4	Temperatura máxima	9.1
120427	7	Sololá	702	San José Chacayá	5	Chacayá	9	Septiembre	2023-09-20T00:00:00	2024-11-06T06:00:00	3	Temperatura mínima	8.9
120428	7	Sololá	702	San José Chacayá	5	Chacayá	9	Septiembre	2023-09-20T00:00:00	2024-11-06T06:00:00	5	Humedad	93
120429	7	Sololá	702	San José Chacayá	5	Chacayá	9	Septiembre	2023-09-20T00:00:00	2024-11-06T06:00:00	6	Velocidad del viento	0
120430	7	Sololá	702	San José Chacayá	5	Chacayá	9	Septiembre	2023-09-20T00:00:00	2024-11-06T06:00:00	7	Dirección del viento	0
120431	7	Sololá	702	San José Chacayá	5	Chacayá	9	Septiembre	2023-09-20T00:00:00	2024-11-06T06:00:00	1	Precipitación	0
120432	7	Sololá	702	San José Chacayá	5	Chacayá	9	Septiembre	2023-09-20T00:00:00	2024-11-06T06:00:00	8	Radiación solar	0
120433	7	Sololá	702	San José Chacayá	5	Chacayá	9	Septiembre	2023-09-20T00:00:00	2024-11-06T07:00:00	2	Temperatura media	10.3
120434	7	Sololá	702	San José Chacayá	5	Chacayá	9	Septiembre	2023-09-20T00:00:00	2024-11-06T07:00:00	4	Temperatura máxima	10.3
120435	7	Sololá	702	San José Chacayá	5	Chacayá	9	Septiembre	2023-09-20T00:00:00	2024-11-06T07:00:00	3	Temperatura mínima	9.3
120436	7	Sololá	702	San José Chacayá	5	Chacayá	9	Septiembre	2023-09-20T00:00:00	2024-11-06T07:00:00	5	Humedad	92
120437	7	Sololá	702	San José Chacayá	5	Chacayá	9	Septiembre	2023-09-20T00:00:00	2024-11-06T07:00:00	6	Velocidad del viento	1.6
120438	7	Sololá	702	San José Chacayá	5	Chacayá	9	Septiembre	2023-09-20T00:00:00	2024-11-06T07:00:00	7	Dirección del viento	0.8
120439	7	Sololá	702	San José Chacayá	5	Chacayá	9	Septiembre	2023-09-20T00:00:00	2024-11-06T07:00:00	1	Precipitación	0
120440	7	Sololá	702	San José Chacayá	5	Chacayá	9	Septiembre	2023-09-20T00:00:00	2024-11-06T07:00:00	8	Radiación solar	43
120441	7	Sololá	702	San José Chacayá	5	Chacayá	9	Septiembre	2023-09-20T00:00:00	2024-11-06T08:00:00	2	Temperatura media	15.1
120442	7	Sololá	702	San José Chacayá	5	Chacayá	9	Septiembre	2023-09-20T00:00:00	2024-11-06T08:00:00	4	Temperatura máxima	15.1
120443	7	Sololá	702	San José Chacayá	5	Chacayá	9	Septiembre	2023-09-20T00:00:00	2024-11-06T08:00:00	3	Temperatura mínima	12.8
120444	7	Sololá	702	San José Chacayá	5	Chacayá	9	Septiembre	2023-09-20T00:00:00	2024-11-06T08:00:00	5	Humedad	81
120445	7	Sololá	702	San José Chacayá	5	Chacayá	9	Septiembre	2023-09-20T00:00:00	2024-11-06T08:00:00	6	Velocidad del viento	0
120446	7	Sololá	702	San José Chacayá	5	Chacayá	9	Septiembre	2023-09-20T00:00:00	2024-11-06T08:00:00	7	Dirección del viento	0
120447	7	Sololá	702	San José Chacayá	5	Chacayá	9	Septiembre	2023-09-20T00:00:00	2024-11-06T08:00:00	1	Precipitación	0
120448	7	Sololá	702	San José Chacayá	5	Chacayá	9	Septiembre	2023-09-20T00:00:00	2024-11-06T08:00:00	8	Radiación solar	147
120449	7	Sololá	702	San José Chacayá	5	Chacayá	9	Septiembre	2023-09-20T00:00:00	2024-11-06T09:00:00	2	Temperatura media	20.7
120450	7	Sololá	702	San José Chacayá	5	Chacayá	9	Septiembre	2023-09-20T00:00:00	2024-11-06T09:00:00	4	Temperatura máxima	20.7
120451	7	Sololá	702	San José Chacayá	5	Chacayá	9	Septiembre	2023-09-20T00:00:00	2024-11-06T09:00:00	3	Temperatura mínima	18.1
120452	7	Sololá	702	San José Chacayá	5	Chacayá	9	Septiembre	2023-09-20T00:00:00	2024-11-06T09:00:00	5	Humedad	62
120453	7	Sololá	702	San José Chacayá	5	Chacayá	9	Septiembre	2023-09-20T00:00:00	2024-11-06T09:00:00	6	Velocidad del viento	3.2
120454	7	Sololá	702	San José Chacayá	5	Chacayá	9	Septiembre	2023-09-20T00:00:00	2024-11-06T09:00:00	7	Dirección del viento	1.61
120455	7	Sololá	702	San José Chacayá	5	Chacayá	9	Septiembre	2023-09-20T00:00:00	2024-11-06T09:00:00	1	Precipitación	0
120456	7	Sololá	702	San José Chacayá	5	Chacayá	9	Septiembre	2023-09-20T00:00:00	2024-11-06T09:00:00	8	Radiación solar	288
120457	7	Sololá	702	San José Chacayá	5	Chacayá	9	Septiembre	2023-09-20T00:00:00	2024-11-06T10:00:00	2	Temperatura media	23.1
120458	7	Sololá	702	San José Chacayá	5	Chacayá	9	Septiembre	2023-09-20T00:00:00	2024-11-06T10:00:00	4	Temperatura máxima	23.3
120459	7	Sololá	702	San José Chacayá	5	Chacayá	9	Septiembre	2023-09-20T00:00:00	2024-11-06T10:00:00	3	Temperatura mínima	22.6
120460	7	Sololá	702	San José Chacayá	5	Chacayá	9	Septiembre	2023-09-20T00:00:00	2024-11-06T10:00:00	5	Humedad	55
120461	7	Sololá	702	San José Chacayá	5	Chacayá	9	Septiembre	2023-09-20T00:00:00	2024-11-06T10:00:00	6	Velocidad del viento	6.4
120462	7	Sololá	702	San José Chacayá	5	Chacayá	9	Septiembre	2023-09-20T00:00:00	2024-11-06T10:00:00	7	Dirección del viento	3.22
120463	7	Sololá	702	San José Chacayá	5	Chacayá	9	Septiembre	2023-09-20T00:00:00	2024-11-06T10:00:00	1	Precipitación	0
120464	7	Sololá	702	San José Chacayá	5	Chacayá	9	Septiembre	2023-09-20T00:00:00	2024-11-06T10:00:00	8	Radiación solar	341
120465	7	Sololá	702	San José Chacayá	5	Chacayá	9	Septiembre	2023-09-20T00:00:00	2024-11-06T11:00:00	2	Temperatura media	23.6
120466	7	Sololá	702	San José Chacayá	5	Chacayá	9	Septiembre	2023-09-20T00:00:00	2024-11-06T11:00:00	4	Temperatura máxima	23.6
120467	7	Sololá	702	San José Chacayá	5	Chacayá	9	Septiembre	2023-09-20T00:00:00	2024-11-06T11:00:00	3	Temperatura mínima	22.9
120468	7	Sololá	702	San José Chacayá	5	Chacayá	9	Septiembre	2023-09-20T00:00:00	2024-11-06T11:00:00	5	Humedad	53
120469	7	Sololá	702	San José Chacayá	5	Chacayá	9	Septiembre	2023-09-20T00:00:00	2024-11-06T11:00:00	6	Velocidad del viento	4.8
120470	7	Sololá	702	San José Chacayá	5	Chacayá	9	Septiembre	2023-09-20T00:00:00	2024-11-06T11:00:00	7	Dirección del viento	2.41
120471	7	Sololá	702	San José Chacayá	5	Chacayá	9	Septiembre	2023-09-20T00:00:00	2024-11-06T11:00:00	1	Precipitación	0
120472	7	Sololá	702	San José Chacayá	5	Chacayá	9	Septiembre	2023-09-20T00:00:00	2024-11-06T11:00:00	8	Radiación solar	458
120473	7	Sololá	702	San José Chacayá	5	Chacayá	9	Septiembre	2023-09-20T00:00:00	2024-11-06T12:00:00	2	Temperatura media	23.8
120474	7	Sololá	702	San José Chacayá	5	Chacayá	9	Septiembre	2023-09-20T00:00:00	2024-11-06T12:00:00	4	Temperatura máxima	23.8
120475	7	Sololá	702	San José Chacayá	5	Chacayá	9	Septiembre	2023-09-20T00:00:00	2024-11-06T12:00:00	3	Temperatura mínima	23.3
120476	7	Sololá	702	San José Chacayá	5	Chacayá	9	Septiembre	2023-09-20T00:00:00	2024-11-06T12:00:00	5	Humedad	50
120477	7	Sololá	702	San José Chacayá	5	Chacayá	9	Septiembre	2023-09-20T00:00:00	2024-11-06T12:00:00	6	Velocidad del viento	3.2
120478	7	Sololá	702	San José Chacayá	5	Chacayá	9	Septiembre	2023-09-20T00:00:00	2024-11-06T12:00:00	7	Dirección del viento	1.61
120479	7	Sololá	702	San José Chacayá	5	Chacayá	9	Septiembre	2023-09-20T00:00:00	2024-11-06T12:00:00	1	Precipitación	0
120480	7	Sololá	702	San José Chacayá	5	Chacayá	9	Septiembre	2023-09-20T00:00:00	2024-11-06T12:00:00	8	Radiación solar	485
120481	7	Sololá	702	San José Chacayá	5	Chacayá	9	Septiembre	2023-09-20T00:00:00	2024-11-06T13:00:00	2	Temperatura media	22.7
120482	7	Sololá	702	San José Chacayá	5	Chacayá	9	Septiembre	2023-09-20T00:00:00	2024-11-06T13:00:00	4	Temperatura máxima	23.3
120483	7	Sololá	702	San José Chacayá	5	Chacayá	9	Septiembre	2023-09-20T00:00:00	2024-11-06T13:00:00	3	Temperatura mínima	22.7
120484	7	Sololá	702	San José Chacayá	5	Chacayá	9	Septiembre	2023-09-20T00:00:00	2024-11-06T13:00:00	5	Humedad	57
120485	7	Sololá	702	San José Chacayá	5	Chacayá	9	Septiembre	2023-09-20T00:00:00	2024-11-06T13:00:00	6	Velocidad del viento	3.2
120486	7	Sololá	702	San José Chacayá	5	Chacayá	9	Septiembre	2023-09-20T00:00:00	2024-11-06T13:00:00	7	Dirección del viento	1.61
120487	7	Sololá	702	San José Chacayá	5	Chacayá	9	Septiembre	2023-09-20T00:00:00	2024-11-06T13:00:00	1	Precipitación	0
120488	7	Sololá	702	San José Chacayá	5	Chacayá	9	Septiembre	2023-09-20T00:00:00	2024-11-06T13:00:00	8	Radiación solar	310
120489	7	Sololá	702	San José Chacayá	5	Chacayá	9	Septiembre	2023-09-20T00:00:00	2024-11-06T14:00:00	2	Temperatura media	21.8
120490	7	Sololá	702	San José Chacayá	5	Chacayá	9	Septiembre	2023-09-20T00:00:00	2024-11-06T14:00:00	4	Temperatura máxima	23.8
120491	7	Sololá	702	San José Chacayá	5	Chacayá	9	Septiembre	2023-09-20T00:00:00	2024-11-06T14:00:00	3	Temperatura mínima	21.8
120492	7	Sololá	702	San José Chacayá	5	Chacayá	9	Septiembre	2023-09-20T00:00:00	2024-11-06T14:00:00	5	Humedad	69
120493	7	Sololá	702	San José Chacayá	5	Chacayá	9	Septiembre	2023-09-20T00:00:00	2024-11-06T14:00:00	6	Velocidad del viento	4.8
120494	7	Sololá	702	San José Chacayá	5	Chacayá	9	Septiembre	2023-09-20T00:00:00	2024-11-06T14:00:00	7	Dirección del viento	2.41
120495	7	Sololá	702	San José Chacayá	5	Chacayá	9	Septiembre	2023-09-20T00:00:00	2024-11-06T14:00:00	1	Precipitación	0
120496	7	Sololá	702	San José Chacayá	5	Chacayá	9	Septiembre	2023-09-20T00:00:00	2024-11-06T14:00:00	8	Radiación solar	195
120497	7	Sololá	702	San José Chacayá	5	Chacayá	9	Septiembre	2023-09-20T00:00:00	2024-11-06T15:00:00	2	Temperatura media	21.2
120498	7	Sololá	702	San José Chacayá	5	Chacayá	9	Septiembre	2023-09-20T00:00:00	2024-11-06T15:00:00	4	Temperatura máxima	22
120499	7	Sololá	702	San José Chacayá	5	Chacayá	9	Septiembre	2023-09-20T00:00:00	2024-11-06T15:00:00	3	Temperatura mínima	21.2
120500	7	Sololá	702	San José Chacayá	5	Chacayá	9	Septiembre	2023-09-20T00:00:00	2024-11-06T15:00:00	5	Humedad	71
120501	7	Sololá	702	San José Chacayá	5	Chacayá	9	Septiembre	2023-09-20T00:00:00	2024-11-06T15:00:00	6	Velocidad del viento	4.8
120502	7	Sololá	702	San José Chacayá	5	Chacayá	9	Septiembre	2023-09-20T00:00:00	2024-11-06T15:00:00	7	Dirección del viento	2.41
120503	7	Sololá	702	San José Chacayá	5	Chacayá	9	Septiembre	2023-09-20T00:00:00	2024-11-06T15:00:00	1	Precipitación	0
120504	7	Sololá	702	San José Chacayá	5	Chacayá	9	Septiembre	2023-09-20T00:00:00	2024-11-06T15:00:00	8	Radiación solar	485
120505	7	Sololá	702	San José Chacayá	5	Chacayá	9	Septiembre	2023-09-20T00:00:00	2024-11-06T16:00:00	2	Temperatura media	18.3
120506	7	Sololá	702	San José Chacayá	5	Chacayá	9	Septiembre	2023-09-20T00:00:00	2024-11-06T16:00:00	4	Temperatura máxima	19.4
120507	7	Sololá	702	San José Chacayá	5	Chacayá	9	Septiembre	2023-09-20T00:00:00	2024-11-06T16:00:00	3	Temperatura mínima	18.2
120508	7	Sololá	702	San José Chacayá	5	Chacayá	9	Septiembre	2023-09-20T00:00:00	2024-11-06T16:00:00	5	Humedad	84
120509	7	Sololá	702	San José Chacayá	5	Chacayá	9	Septiembre	2023-09-20T00:00:00	2024-11-06T16:00:00	6	Velocidad del viento	3.2
120510	7	Sololá	702	San José Chacayá	5	Chacayá	9	Septiembre	2023-09-20T00:00:00	2024-11-06T16:00:00	7	Dirección del viento	1.61
120511	7	Sololá	702	San José Chacayá	5	Chacayá	9	Septiembre	2023-09-20T00:00:00	2024-11-06T16:00:00	1	Precipitación	1.52
120512	7	Sololá	702	San José Chacayá	5	Chacayá	9	Septiembre	2023-09-20T00:00:00	2024-11-06T16:00:00	8	Radiación solar	204
120513	7	Sololá	702	San José Chacayá	5	Chacayá	9	Septiembre	2023-09-20T00:00:00	2024-11-06T17:00:00	2	Temperatura media	16.3
120514	7	Sololá	702	San José Chacayá	5	Chacayá	9	Septiembre	2023-09-20T00:00:00	2024-11-06T17:00:00	4	Temperatura máxima	17.7
120515	7	Sololá	702	San José Chacayá	5	Chacayá	9	Septiembre	2023-09-20T00:00:00	2024-11-06T17:00:00	3	Temperatura mínima	16.3
120516	7	Sololá	702	San José Chacayá	5	Chacayá	9	Septiembre	2023-09-20T00:00:00	2024-11-06T17:00:00	5	Humedad	91
120517	7	Sololá	702	San José Chacayá	5	Chacayá	9	Septiembre	2023-09-20T00:00:00	2024-11-06T17:00:00	6	Velocidad del viento	3.2
120518	7	Sololá	702	San José Chacayá	5	Chacayá	9	Septiembre	2023-09-20T00:00:00	2024-11-06T17:00:00	7	Dirección del viento	1.61
120519	7	Sololá	702	San José Chacayá	5	Chacayá	9	Septiembre	2023-09-20T00:00:00	2024-11-06T17:00:00	1	Precipitación	6.86
120520	7	Sololá	702	San José Chacayá	5	Chacayá	9	Septiembre	2023-09-20T00:00:00	2024-11-06T17:00:00	8	Radiación solar	33
120521	7	Sololá	702	San José Chacayá	5	Chacayá	9	Septiembre	2023-09-20T00:00:00	2024-11-06T18:00:00	2	Temperatura media	15.8
120522	7	Sololá	702	San José Chacayá	5	Chacayá	9	Septiembre	2023-09-20T00:00:00	2024-11-06T18:00:00	4	Temperatura máxima	16.2
120523	7	Sololá	702	San José Chacayá	5	Chacayá	9	Septiembre	2023-09-20T00:00:00	2024-11-06T18:00:00	3	Temperatura mínima	15.8
120524	7	Sololá	702	San José Chacayá	5	Chacayá	9	Septiembre	2023-09-20T00:00:00	2024-11-06T18:00:00	5	Humedad	93
120525	7	Sololá	702	San José Chacayá	5	Chacayá	9	Septiembre	2023-09-20T00:00:00	2024-11-06T18:00:00	6	Velocidad del viento	0
120526	7	Sololá	702	San José Chacayá	5	Chacayá	9	Septiembre	2023-09-20T00:00:00	2024-11-06T18:00:00	7	Dirección del viento	0
120527	7	Sololá	702	San José Chacayá	5	Chacayá	9	Septiembre	2023-09-20T00:00:00	2024-11-06T18:00:00	1	Precipitación	0
120528	7	Sololá	702	San José Chacayá	5	Chacayá	9	Septiembre	2023-09-20T00:00:00	2024-11-06T18:00:00	8	Radiación solar	2
120529	7	Sololá	702	San José Chacayá	5	Chacayá	9	Septiembre	2023-09-20T00:00:00	2024-11-06T19:00:00	2	Temperatura media	15.4
120530	7	Sololá	702	San José Chacayá	5	Chacayá	9	Septiembre	2023-09-20T00:00:00	2024-11-06T19:00:00	4	Temperatura máxima	15.4
120531	7	Sololá	702	San José Chacayá	5	Chacayá	9	Septiembre	2023-09-20T00:00:00	2024-11-06T19:00:00	3	Temperatura mínima	15.1
120532	7	Sololá	702	San José Chacayá	5	Chacayá	9	Septiembre	2023-09-20T00:00:00	2024-11-06T19:00:00	5	Humedad	95
120533	7	Sololá	702	San José Chacayá	5	Chacayá	9	Septiembre	2023-09-20T00:00:00	2024-11-06T19:00:00	6	Velocidad del viento	0
120534	7	Sololá	702	San José Chacayá	5	Chacayá	9	Septiembre	2023-09-20T00:00:00	2024-11-06T19:00:00	7	Dirección del viento	0
120535	7	Sololá	702	San José Chacayá	5	Chacayá	9	Septiembre	2023-09-20T00:00:00	2024-11-06T19:00:00	1	Precipitación	0
120536	7	Sololá	702	San José Chacayá	5	Chacayá	9	Septiembre	2023-09-20T00:00:00	2024-11-06T19:00:00	8	Radiación solar	0
120537	7	Sololá	702	San José Chacayá	5	Chacayá	9	Septiembre	2023-09-20T00:00:00	2024-11-06T20:00:00	2	Temperatura media	14.4
120538	7	Sololá	702	San José Chacayá	5	Chacayá	9	Septiembre	2023-09-20T00:00:00	2024-11-06T20:00:00	4	Temperatura máxima	14.8
120539	7	Sololá	702	San José Chacayá	5	Chacayá	9	Septiembre	2023-09-20T00:00:00	2024-11-06T20:00:00	3	Temperatura mínima	14.4
120540	7	Sololá	702	San José Chacayá	5	Chacayá	9	Septiembre	2023-09-20T00:00:00	2024-11-06T20:00:00	5	Humedad	94
120541	7	Sololá	702	San José Chacayá	5	Chacayá	9	Septiembre	2023-09-20T00:00:00	2024-11-06T20:00:00	6	Velocidad del viento	0
120542	7	Sololá	702	San José Chacayá	5	Chacayá	9	Septiembre	2023-09-20T00:00:00	2024-11-06T20:00:00	7	Dirección del viento	0
120543	7	Sololá	702	San José Chacayá	5	Chacayá	9	Septiembre	2023-09-20T00:00:00	2024-11-06T20:00:00	1	Precipitación	0
120544	7	Sololá	702	San José Chacayá	5	Chacayá	9	Septiembre	2023-09-20T00:00:00	2024-11-06T20:00:00	8	Radiación solar	0
120545	7	Sololá	702	San José Chacayá	5	Chacayá	9	Septiembre	2023-09-20T00:00:00	2024-11-06T21:00:00	2	Temperatura media	13.7
120546	7	Sololá	702	San José Chacayá	5	Chacayá	9	Septiembre	2023-09-20T00:00:00	2024-11-06T21:00:00	4	Temperatura máxima	14.1
120547	7	Sololá	702	San José Chacayá	5	Chacayá	9	Septiembre	2023-09-20T00:00:00	2024-11-06T21:00:00	3	Temperatura mínima	13.7
120548	7	Sololá	702	San José Chacayá	5	Chacayá	9	Septiembre	2023-09-20T00:00:00	2024-11-06T21:00:00	5	Humedad	94
120549	7	Sololá	702	San José Chacayá	5	Chacayá	9	Septiembre	2023-09-20T00:00:00	2024-11-06T21:00:00	6	Velocidad del viento	0
120550	7	Sololá	702	San José Chacayá	5	Chacayá	9	Septiembre	2023-09-20T00:00:00	2024-11-06T21:00:00	7	Dirección del viento	0
120551	7	Sololá	702	San José Chacayá	5	Chacayá	9	Septiembre	2023-09-20T00:00:00	2024-11-06T21:00:00	1	Precipitación	0
120552	7	Sololá	702	San José Chacayá	5	Chacayá	9	Septiembre	2023-09-20T00:00:00	2024-11-06T21:00:00	8	Radiación solar	0
120553	7	Sololá	702	San José Chacayá	5	Chacayá	9	Septiembre	2023-09-20T00:00:00	2024-11-06T22:00:00	2	Temperatura media	13.7
120554	7	Sololá	702	San José Chacayá	5	Chacayá	9	Septiembre	2023-09-20T00:00:00	2024-11-06T22:00:00	4	Temperatura máxima	13.7
120555	7	Sololá	702	San José Chacayá	5	Chacayá	9	Septiembre	2023-09-20T00:00:00	2024-11-06T22:00:00	3	Temperatura mínima	13.6
120556	7	Sololá	702	San José Chacayá	5	Chacayá	9	Septiembre	2023-09-20T00:00:00	2024-11-06T22:00:00	5	Humedad	95
120557	7	Sololá	702	San José Chacayá	5	Chacayá	9	Septiembre	2023-09-20T00:00:00	2024-11-06T22:00:00	6	Velocidad del viento	0
120558	7	Sololá	702	San José Chacayá	5	Chacayá	9	Septiembre	2023-09-20T00:00:00	2024-11-06T22:00:00	7	Dirección del viento	0
120559	7	Sololá	702	San José Chacayá	5	Chacayá	9	Septiembre	2023-09-20T00:00:00	2024-11-06T22:00:00	1	Precipitación	0
120560	7	Sololá	702	San José Chacayá	5	Chacayá	9	Septiembre	2023-09-20T00:00:00	2024-11-06T22:00:00	8	Radiación solar	0
120561	7	Sololá	702	San José Chacayá	5	Chacayá	9	Septiembre	2023-09-20T00:00:00	2024-11-06T23:00:00	2	Temperatura media	14.1
120562	7	Sololá	702	San José Chacayá	5	Chacayá	9	Septiembre	2023-09-20T00:00:00	2024-11-06T23:00:00	4	Temperatura máxima	14.1
120563	7	Sololá	702	San José Chacayá	5	Chacayá	9	Septiembre	2023-09-20T00:00:00	2024-11-06T23:00:00	3	Temperatura mínima	13.7
120564	7	Sololá	702	San José Chacayá	5	Chacayá	9	Septiembre	2023-09-20T00:00:00	2024-11-06T23:00:00	5	Humedad	96
120565	7	Sololá	702	San José Chacayá	5	Chacayá	9	Septiembre	2023-09-20T00:00:00	2024-11-06T23:00:00	6	Velocidad del viento	0
120566	7	Sololá	702	San José Chacayá	5	Chacayá	9	Septiembre	2023-09-20T00:00:00	2024-11-06T23:00:00	7	Dirección del viento	0
120567	7	Sololá	702	San José Chacayá	5	Chacayá	9	Septiembre	2023-09-20T00:00:00	2024-11-06T23:00:00	1	Precipitación	0.25
120568	7	Sololá	702	San José Chacayá	5	Chacayá	9	Septiembre	2023-09-20T00:00:00	2024-11-06T23:00:00	8	Radiación solar	0
120569	7	Sololá	702	San José Chacayá	5	Chacayá	9	Septiembre	2023-09-21T00:00:00	2024-11-06T00:00:00	2	Temperatura media	13.5
120570	7	Sololá	702	San José Chacayá	5	Chacayá	9	Septiembre	2023-09-21T00:00:00	2024-11-06T00:00:00	4	Temperatura máxima	13.9
120571	7	Sololá	702	San José Chacayá	5	Chacayá	9	Septiembre	2023-09-21T00:00:00	2024-11-06T00:00:00	3	Temperatura mínima	13.5
120572	7	Sololá	702	San José Chacayá	5	Chacayá	9	Septiembre	2023-09-21T00:00:00	2024-11-06T00:00:00	5	Humedad	95
120573	7	Sololá	702	San José Chacayá	5	Chacayá	9	Septiembre	2023-09-21T00:00:00	2024-11-06T00:00:00	6	Velocidad del viento	0
120574	7	Sololá	702	San José Chacayá	5	Chacayá	9	Septiembre	2023-09-21T00:00:00	2024-11-06T00:00:00	7	Dirección del viento	0
120575	7	Sololá	702	San José Chacayá	5	Chacayá	9	Septiembre	2023-09-21T00:00:00	2024-11-06T00:00:00	1	Precipitación	0
120576	7	Sololá	702	San José Chacayá	5	Chacayá	9	Septiembre	2023-09-21T00:00:00	2024-11-06T00:00:00	8	Radiación solar	0
120577	7	Sololá	702	San José Chacayá	5	Chacayá	9	Septiembre	2023-09-21T00:00:00	2024-11-06T01:00:00	2	Temperatura media	12.8
120578	7	Sololá	702	San José Chacayá	5	Chacayá	9	Septiembre	2023-09-21T00:00:00	2024-11-06T01:00:00	4	Temperatura máxima	13.2
120579	7	Sololá	702	San José Chacayá	5	Chacayá	9	Septiembre	2023-09-21T00:00:00	2024-11-06T01:00:00	3	Temperatura mínima	12.8
120580	7	Sololá	702	San José Chacayá	5	Chacayá	9	Septiembre	2023-09-21T00:00:00	2024-11-06T01:00:00	5	Humedad	94
120581	7	Sololá	702	San José Chacayá	5	Chacayá	9	Septiembre	2023-09-21T00:00:00	2024-11-06T01:00:00	6	Velocidad del viento	0
120582	7	Sololá	702	San José Chacayá	5	Chacayá	9	Septiembre	2023-09-21T00:00:00	2024-11-06T01:00:00	7	Dirección del viento	0
120583	7	Sololá	702	San José Chacayá	5	Chacayá	9	Septiembre	2023-09-21T00:00:00	2024-11-06T01:00:00	1	Precipitación	0
120584	7	Sololá	702	San José Chacayá	5	Chacayá	9	Septiembre	2023-09-21T00:00:00	2024-11-06T01:00:00	8	Radiación solar	0
120585	7	Sololá	702	San José Chacayá	5	Chacayá	9	Septiembre	2023-09-21T00:00:00	2024-11-06T02:00:00	2	Temperatura media	11.8
120586	7	Sololá	702	San José Chacayá	5	Chacayá	9	Septiembre	2023-09-21T00:00:00	2024-11-06T02:00:00	4	Temperatura máxima	12.3
120587	7	Sololá	702	San José Chacayá	5	Chacayá	9	Septiembre	2023-09-21T00:00:00	2024-11-06T02:00:00	3	Temperatura mínima	11.8
120588	7	Sololá	702	San José Chacayá	5	Chacayá	9	Septiembre	2023-09-21T00:00:00	2024-11-06T02:00:00	5	Humedad	94
120589	7	Sololá	702	San José Chacayá	5	Chacayá	9	Septiembre	2023-09-21T00:00:00	2024-11-06T02:00:00	6	Velocidad del viento	0
120590	7	Sololá	702	San José Chacayá	5	Chacayá	9	Septiembre	2023-09-21T00:00:00	2024-11-06T02:00:00	7	Dirección del viento	0
120591	7	Sololá	702	San José Chacayá	5	Chacayá	9	Septiembre	2023-09-21T00:00:00	2024-11-06T02:00:00	1	Precipitación	0
120592	7	Sololá	702	San José Chacayá	5	Chacayá	9	Septiembre	2023-09-21T00:00:00	2024-11-06T02:00:00	8	Radiación solar	0
120593	7	Sololá	702	San José Chacayá	5	Chacayá	9	Septiembre	2023-09-21T00:00:00	2024-11-06T03:00:00	2	Temperatura media	11.2
120594	7	Sololá	702	San José Chacayá	5	Chacayá	9	Septiembre	2023-09-21T00:00:00	2024-11-06T03:00:00	4	Temperatura máxima	11.6
120595	7	Sololá	702	San José Chacayá	5	Chacayá	9	Septiembre	2023-09-21T00:00:00	2024-11-06T03:00:00	3	Temperatura mínima	11.2
120596	7	Sololá	702	San José Chacayá	5	Chacayá	9	Septiembre	2023-09-21T00:00:00	2024-11-06T03:00:00	5	Humedad	95
120597	7	Sololá	702	San José Chacayá	5	Chacayá	9	Septiembre	2023-09-21T00:00:00	2024-11-06T03:00:00	6	Velocidad del viento	0
120598	7	Sololá	702	San José Chacayá	5	Chacayá	9	Septiembre	2023-09-21T00:00:00	2024-11-06T03:00:00	7	Dirección del viento	0
120599	7	Sololá	702	San José Chacayá	5	Chacayá	9	Septiembre	2023-09-21T00:00:00	2024-11-06T03:00:00	1	Precipitación	0
120600	7	Sololá	702	San José Chacayá	5	Chacayá	9	Septiembre	2023-09-21T00:00:00	2024-11-06T03:00:00	8	Radiación solar	0
120601	7	Sololá	702	San José Chacayá	5	Chacayá	9	Septiembre	2023-09-21T00:00:00	2024-11-06T04:00:00	2	Temperatura media	10.9
120602	7	Sololá	702	San José Chacayá	5	Chacayá	9	Septiembre	2023-09-21T00:00:00	2024-11-06T04:00:00	4	Temperatura máxima	11.1
120603	7	Sololá	702	San José Chacayá	5	Chacayá	9	Septiembre	2023-09-21T00:00:00	2024-11-06T04:00:00	3	Temperatura mínima	10.8
120604	7	Sololá	702	San José Chacayá	5	Chacayá	9	Septiembre	2023-09-21T00:00:00	2024-11-06T04:00:00	5	Humedad	95
120605	7	Sololá	702	San José Chacayá	5	Chacayá	9	Septiembre	2023-09-21T00:00:00	2024-11-06T04:00:00	6	Velocidad del viento	0
120606	7	Sololá	702	San José Chacayá	5	Chacayá	9	Septiembre	2023-09-21T00:00:00	2024-11-06T04:00:00	7	Dirección del viento	0
120607	7	Sololá	702	San José Chacayá	5	Chacayá	9	Septiembre	2023-09-21T00:00:00	2024-11-06T04:00:00	1	Precipitación	0
120608	7	Sololá	702	San José Chacayá	5	Chacayá	9	Septiembre	2023-09-21T00:00:00	2024-11-06T04:00:00	8	Radiación solar	0
120609	7	Sololá	702	San José Chacayá	5	Chacayá	9	Septiembre	2023-09-21T00:00:00	2024-11-06T05:00:00	2	Temperatura media	10.6
120610	7	Sololá	702	San José Chacayá	5	Chacayá	9	Septiembre	2023-09-21T00:00:00	2024-11-06T05:00:00	4	Temperatura máxima	10.7
120611	7	Sololá	702	San José Chacayá	5	Chacayá	9	Septiembre	2023-09-21T00:00:00	2024-11-06T05:00:00	3	Temperatura mínima	10.6
120612	7	Sololá	702	San José Chacayá	5	Chacayá	9	Septiembre	2023-09-21T00:00:00	2024-11-06T05:00:00	5	Humedad	95
120613	7	Sololá	702	San José Chacayá	5	Chacayá	9	Septiembre	2023-09-21T00:00:00	2024-11-06T05:00:00	6	Velocidad del viento	0
120614	7	Sololá	702	San José Chacayá	5	Chacayá	9	Septiembre	2023-09-21T00:00:00	2024-11-06T05:00:00	7	Dirección del viento	0
120615	7	Sololá	702	San José Chacayá	5	Chacayá	9	Septiembre	2023-09-21T00:00:00	2024-11-06T05:00:00	1	Precipitación	0
120616	7	Sololá	702	San José Chacayá	5	Chacayá	9	Septiembre	2023-09-21T00:00:00	2024-11-06T05:00:00	8	Radiación solar	0
120617	7	Sololá	702	San José Chacayá	5	Chacayá	9	Septiembre	2023-09-21T00:00:00	2024-11-06T06:00:00	2	Temperatura media	10.6
120618	7	Sololá	702	San José Chacayá	5	Chacayá	9	Septiembre	2023-09-21T00:00:00	2024-11-06T06:00:00	4	Temperatura máxima	10.6
120619	7	Sololá	702	San José Chacayá	5	Chacayá	9	Septiembre	2023-09-21T00:00:00	2024-11-06T06:00:00	3	Temperatura mínima	10.5
120620	7	Sololá	702	San José Chacayá	5	Chacayá	9	Septiembre	2023-09-21T00:00:00	2024-11-06T06:00:00	5	Humedad	95
120621	7	Sololá	702	San José Chacayá	5	Chacayá	9	Septiembre	2023-09-21T00:00:00	2024-11-06T06:00:00	6	Velocidad del viento	1.6
120622	7	Sololá	702	San José Chacayá	5	Chacayá	9	Septiembre	2023-09-21T00:00:00	2024-11-06T06:00:00	7	Dirección del viento	0.8
120623	7	Sololá	702	San José Chacayá	5	Chacayá	9	Septiembre	2023-09-21T00:00:00	2024-11-06T06:00:00	1	Precipitación	0
120624	7	Sololá	702	San José Chacayá	5	Chacayá	9	Septiembre	2023-09-21T00:00:00	2024-11-06T06:00:00	8	Radiación solar	0
120625	7	Sololá	702	San José Chacayá	5	Chacayá	9	Septiembre	2023-09-21T00:00:00	2024-11-06T07:00:00	2	Temperatura media	12.2
120626	7	Sololá	702	San José Chacayá	5	Chacayá	9	Septiembre	2023-09-21T00:00:00	2024-11-06T07:00:00	4	Temperatura máxima	12.2
120627	7	Sololá	702	San José Chacayá	5	Chacayá	9	Septiembre	2023-09-21T00:00:00	2024-11-06T07:00:00	3	Temperatura mínima	11.1
120628	7	Sololá	702	San José Chacayá	5	Chacayá	9	Septiembre	2023-09-21T00:00:00	2024-11-06T07:00:00	5	Humedad	95
120629	7	Sololá	702	San José Chacayá	5	Chacayá	9	Septiembre	2023-09-21T00:00:00	2024-11-06T07:00:00	6	Velocidad del viento	0
120630	7	Sololá	702	San José Chacayá	5	Chacayá	9	Septiembre	2023-09-21T00:00:00	2024-11-06T07:00:00	7	Dirección del viento	0
120631	7	Sololá	702	San José Chacayá	5	Chacayá	9	Septiembre	2023-09-21T00:00:00	2024-11-06T07:00:00	1	Precipitación	0
120632	7	Sololá	702	San José Chacayá	5	Chacayá	9	Septiembre	2023-09-21T00:00:00	2024-11-06T07:00:00	8	Radiación solar	34
120633	7	Sololá	702	San José Chacayá	5	Chacayá	9	Septiembre	2023-09-21T00:00:00	2024-11-06T08:00:00	2	Temperatura media	16.2
120634	7	Sololá	702	San José Chacayá	5	Chacayá	9	Septiembre	2023-09-21T00:00:00	2024-11-06T08:00:00	4	Temperatura máxima	16.2
120635	7	Sololá	702	San José Chacayá	5	Chacayá	9	Septiembre	2023-09-21T00:00:00	2024-11-06T08:00:00	3	Temperatura mínima	13.7
120636	7	Sololá	702	San José Chacayá	5	Chacayá	9	Septiembre	2023-09-21T00:00:00	2024-11-06T08:00:00	5	Humedad	79
120637	7	Sololá	702	San José Chacayá	5	Chacayá	9	Septiembre	2023-09-21T00:00:00	2024-11-06T08:00:00	6	Velocidad del viento	3.2
120638	7	Sololá	702	San José Chacayá	5	Chacayá	9	Septiembre	2023-09-21T00:00:00	2024-11-06T08:00:00	7	Dirección del viento	1.61
120639	7	Sololá	702	San José Chacayá	5	Chacayá	9	Septiembre	2023-09-21T00:00:00	2024-11-06T08:00:00	1	Precipitación	0
120640	7	Sololá	702	San José Chacayá	5	Chacayá	9	Septiembre	2023-09-21T00:00:00	2024-11-06T08:00:00	8	Radiación solar	123
120641	7	Sololá	702	San José Chacayá	5	Chacayá	9	Septiembre	2023-09-21T00:00:00	2024-11-06T09:00:00	2	Temperatura media	20.5
120642	7	Sololá	702	San José Chacayá	5	Chacayá	9	Septiembre	2023-09-21T00:00:00	2024-11-06T09:00:00	4	Temperatura máxima	20.5
120643	7	Sololá	702	San José Chacayá	5	Chacayá	9	Septiembre	2023-09-21T00:00:00	2024-11-06T09:00:00	3	Temperatura mínima	18.9
120644	7	Sololá	702	San José Chacayá	5	Chacayá	9	Septiembre	2023-09-21T00:00:00	2024-11-06T09:00:00	5	Humedad	67
120645	7	Sololá	702	San José Chacayá	5	Chacayá	9	Septiembre	2023-09-21T00:00:00	2024-11-06T09:00:00	6	Velocidad del viento	4.8
120646	7	Sololá	702	San José Chacayá	5	Chacayá	9	Septiembre	2023-09-21T00:00:00	2024-11-06T09:00:00	7	Dirección del viento	2.41
120647	7	Sololá	702	San José Chacayá	5	Chacayá	9	Septiembre	2023-09-21T00:00:00	2024-11-06T09:00:00	1	Precipitación	0
120648	7	Sololá	702	San José Chacayá	5	Chacayá	9	Septiembre	2023-09-21T00:00:00	2024-11-06T09:00:00	8	Radiación solar	283
120649	7	Sololá	702	San José Chacayá	5	Chacayá	9	Septiembre	2023-09-21T00:00:00	2024-11-06T10:00:00	2	Temperatura media	20.3
120650	7	Sololá	702	San José Chacayá	5	Chacayá	9	Septiembre	2023-09-21T00:00:00	2024-11-06T10:00:00	4	Temperatura máxima	21
120651	7	Sololá	702	San José Chacayá	5	Chacayá	9	Septiembre	2023-09-21T00:00:00	2024-11-06T10:00:00	3	Temperatura mínima	20.2
120652	7	Sololá	702	San José Chacayá	5	Chacayá	9	Septiembre	2023-09-21T00:00:00	2024-11-06T10:00:00	5	Humedad	67
120653	7	Sololá	702	San José Chacayá	5	Chacayá	9	Septiembre	2023-09-21T00:00:00	2024-11-06T10:00:00	6	Velocidad del viento	4.8
120654	7	Sololá	702	San José Chacayá	5	Chacayá	9	Septiembre	2023-09-21T00:00:00	2024-11-06T10:00:00	7	Dirección del viento	2.41
120655	7	Sololá	702	San José Chacayá	5	Chacayá	9	Septiembre	2023-09-21T00:00:00	2024-11-06T10:00:00	1	Precipitación	0
120656	7	Sololá	702	San José Chacayá	5	Chacayá	9	Septiembre	2023-09-21T00:00:00	2024-11-06T10:00:00	8	Radiación solar	357
120657	7	Sololá	702	San José Chacayá	5	Chacayá	9	Septiembre	2023-09-21T00:00:00	2024-11-06T11:00:00	2	Temperatura media	21.7
120658	7	Sololá	702	San José Chacayá	5	Chacayá	9	Septiembre	2023-09-21T00:00:00	2024-11-06T11:00:00	4	Temperatura máxima	21.7
120659	7	Sololá	702	San José Chacayá	5	Chacayá	9	Septiembre	2023-09-21T00:00:00	2024-11-06T11:00:00	3	Temperatura mínima	20.1
120660	7	Sololá	702	San José Chacayá	5	Chacayá	9	Septiembre	2023-09-21T00:00:00	2024-11-06T11:00:00	5	Humedad	64
120661	7	Sololá	702	San José Chacayá	5	Chacayá	9	Septiembre	2023-09-21T00:00:00	2024-11-06T11:00:00	6	Velocidad del viento	4.8
120662	7	Sololá	702	San José Chacayá	5	Chacayá	9	Septiembre	2023-09-21T00:00:00	2024-11-06T11:00:00	7	Dirección del viento	2.41
120663	7	Sololá	702	San José Chacayá	5	Chacayá	9	Septiembre	2023-09-21T00:00:00	2024-11-06T11:00:00	1	Precipitación	0
120664	7	Sololá	702	San José Chacayá	5	Chacayá	9	Septiembre	2023-09-21T00:00:00	2024-11-06T11:00:00	8	Radiación solar	904
120665	7	Sololá	702	San José Chacayá	5	Chacayá	9	Septiembre	2023-09-21T00:00:00	2024-11-06T12:00:00	2	Temperatura media	22.2
120666	7	Sololá	702	San José Chacayá	5	Chacayá	9	Septiembre	2023-09-21T00:00:00	2024-11-06T12:00:00	4	Temperatura máxima	22.4
120667	7	Sololá	702	San José Chacayá	5	Chacayá	9	Septiembre	2023-09-21T00:00:00	2024-11-06T12:00:00	3	Temperatura mínima	21.4
120668	7	Sololá	702	San José Chacayá	5	Chacayá	9	Septiembre	2023-09-21T00:00:00	2024-11-06T12:00:00	5	Humedad	63
120669	7	Sololá	702	San José Chacayá	5	Chacayá	9	Septiembre	2023-09-21T00:00:00	2024-11-06T12:00:00	6	Velocidad del viento	4.8
120670	7	Sololá	702	San José Chacayá	5	Chacayá	9	Septiembre	2023-09-21T00:00:00	2024-11-06T12:00:00	7	Dirección del viento	2.41
120671	7	Sololá	702	San José Chacayá	5	Chacayá	9	Septiembre	2023-09-21T00:00:00	2024-11-06T12:00:00	1	Precipitación	0
120672	7	Sololá	702	San José Chacayá	5	Chacayá	9	Septiembre	2023-09-21T00:00:00	2024-11-06T12:00:00	8	Radiación solar	517
120673	7	Sololá	702	San José Chacayá	5	Chacayá	9	Septiembre	2023-09-21T00:00:00	2024-11-06T13:00:00	2	Temperatura media	22.1
120674	7	Sololá	702	San José Chacayá	5	Chacayá	9	Septiembre	2023-09-21T00:00:00	2024-11-06T13:00:00	4	Temperatura máxima	23.3
120675	7	Sololá	702	San José Chacayá	5	Chacayá	9	Septiembre	2023-09-21T00:00:00	2024-11-06T13:00:00	3	Temperatura mínima	22.1
120676	7	Sololá	702	San José Chacayá	5	Chacayá	9	Septiembre	2023-09-21T00:00:00	2024-11-06T13:00:00	5	Humedad	61
120677	7	Sololá	702	San José Chacayá	5	Chacayá	9	Septiembre	2023-09-21T00:00:00	2024-11-06T13:00:00	6	Velocidad del viento	6.4
120678	7	Sololá	702	San José Chacayá	5	Chacayá	9	Septiembre	2023-09-21T00:00:00	2024-11-06T13:00:00	7	Dirección del viento	3.22
120679	7	Sololá	702	San José Chacayá	5	Chacayá	9	Septiembre	2023-09-21T00:00:00	2024-11-06T13:00:00	1	Precipitación	0
120680	7	Sololá	702	San José Chacayá	5	Chacayá	9	Septiembre	2023-09-21T00:00:00	2024-11-06T13:00:00	8	Radiación solar	400
120681	7	Sololá	702	San José Chacayá	5	Chacayá	9	Septiembre	2023-09-21T00:00:00	2024-11-06T14:00:00	2	Temperatura media	23.1
120682	7	Sololá	702	San José Chacayá	5	Chacayá	9	Septiembre	2023-09-21T00:00:00	2024-11-06T14:00:00	4	Temperatura máxima	23.2
120683	7	Sololá	702	San José Chacayá	5	Chacayá	9	Septiembre	2023-09-21T00:00:00	2024-11-06T14:00:00	3	Temperatura mínima	22.2
120684	7	Sololá	702	San José Chacayá	5	Chacayá	9	Septiembre	2023-09-21T00:00:00	2024-11-06T14:00:00	5	Humedad	59
120685	7	Sololá	702	San José Chacayá	5	Chacayá	9	Septiembre	2023-09-21T00:00:00	2024-11-06T14:00:00	6	Velocidad del viento	4.8
120686	7	Sololá	702	San José Chacayá	5	Chacayá	9	Septiembre	2023-09-21T00:00:00	2024-11-06T14:00:00	7	Dirección del viento	2.41
120687	7	Sololá	702	San José Chacayá	5	Chacayá	9	Septiembre	2023-09-21T00:00:00	2024-11-06T14:00:00	1	Precipitación	0
120688	7	Sololá	702	San José Chacayá	5	Chacayá	9	Septiembre	2023-09-21T00:00:00	2024-11-06T14:00:00	8	Radiación solar	310
120689	7	Sololá	702	San José Chacayá	5	Chacayá	9	Septiembre	2023-09-21T00:00:00	2024-11-06T15:00:00	2	Temperatura media	24.6
120690	7	Sololá	702	San José Chacayá	5	Chacayá	9	Septiembre	2023-09-21T00:00:00	2024-11-06T15:00:00	4	Temperatura máxima	24.6
120691	7	Sololá	702	San José Chacayá	5	Chacayá	9	Septiembre	2023-09-21T00:00:00	2024-11-06T15:00:00	3	Temperatura mínima	23.4
120692	7	Sololá	702	San José Chacayá	5	Chacayá	9	Septiembre	2023-09-21T00:00:00	2024-11-06T15:00:00	5	Humedad	56
120693	7	Sololá	702	San José Chacayá	5	Chacayá	9	Septiembre	2023-09-21T00:00:00	2024-11-06T15:00:00	6	Velocidad del viento	4.8
120694	7	Sololá	702	San José Chacayá	5	Chacayá	9	Septiembre	2023-09-21T00:00:00	2024-11-06T15:00:00	7	Dirección del viento	2.41
120695	7	Sololá	702	San José Chacayá	5	Chacayá	9	Septiembre	2023-09-21T00:00:00	2024-11-06T15:00:00	1	Precipitación	0
120696	7	Sololá	702	San José Chacayá	5	Chacayá	9	Septiembre	2023-09-21T00:00:00	2024-11-06T15:00:00	8	Radiación solar	213
120697	7	Sololá	702	San José Chacayá	5	Chacayá	9	Septiembre	2023-09-21T00:00:00	2024-11-06T16:00:00	2	Temperatura media	22.6
120698	7	Sololá	702	San José Chacayá	5	Chacayá	9	Septiembre	2023-09-21T00:00:00	2024-11-06T16:00:00	4	Temperatura máxima	23.8
120699	7	Sololá	702	San José Chacayá	5	Chacayá	9	Septiembre	2023-09-21T00:00:00	2024-11-06T16:00:00	3	Temperatura mínima	22.6
120700	7	Sololá	702	San José Chacayá	5	Chacayá	9	Septiembre	2023-09-21T00:00:00	2024-11-06T16:00:00	5	Humedad	61
120701	7	Sololá	702	San José Chacayá	5	Chacayá	9	Septiembre	2023-09-21T00:00:00	2024-11-06T16:00:00	6	Velocidad del viento	3.2
120702	7	Sololá	702	San José Chacayá	5	Chacayá	9	Septiembre	2023-09-21T00:00:00	2024-11-06T16:00:00	7	Dirección del viento	1.61
120703	7	Sololá	702	San José Chacayá	5	Chacayá	9	Septiembre	2023-09-21T00:00:00	2024-11-06T16:00:00	1	Precipitación	0
120704	7	Sololá	702	San José Chacayá	5	Chacayá	9	Septiembre	2023-09-21T00:00:00	2024-11-06T16:00:00	8	Radiación solar	63
120705	7	Sololá	702	San José Chacayá	5	Chacayá	9	Septiembre	2023-09-21T00:00:00	2024-11-06T17:00:00	2	Temperatura media	19.8
120706	7	Sololá	702	San José Chacayá	5	Chacayá	9	Septiembre	2023-09-21T00:00:00	2024-11-06T17:00:00	4	Temperatura máxima	21.9
120707	7	Sololá	702	San José Chacayá	5	Chacayá	9	Septiembre	2023-09-21T00:00:00	2024-11-06T17:00:00	3	Temperatura mínima	19.8
120708	7	Sololá	702	San José Chacayá	5	Chacayá	9	Septiembre	2023-09-21T00:00:00	2024-11-06T17:00:00	5	Humedad	82
120709	7	Sololá	702	San José Chacayá	5	Chacayá	9	Septiembre	2023-09-21T00:00:00	2024-11-06T17:00:00	6	Velocidad del viento	1.6
120710	7	Sololá	702	San José Chacayá	5	Chacayá	9	Septiembre	2023-09-21T00:00:00	2024-11-06T17:00:00	7	Dirección del viento	0.8
120711	7	Sololá	702	San José Chacayá	5	Chacayá	9	Septiembre	2023-09-21T00:00:00	2024-11-06T17:00:00	1	Precipitación	0
120712	7	Sololá	702	San José Chacayá	5	Chacayá	9	Septiembre	2023-09-21T00:00:00	2024-11-06T17:00:00	8	Radiación solar	35
120713	7	Sololá	702	San José Chacayá	5	Chacayá	9	Septiembre	2023-09-21T00:00:00	2024-11-06T18:00:00	2	Temperatura media	17.5
120714	7	Sololá	702	San José Chacayá	5	Chacayá	9	Septiembre	2023-09-21T00:00:00	2024-11-06T18:00:00	4	Temperatura máxima	18.5
120715	7	Sololá	702	San José Chacayá	5	Chacayá	9	Septiembre	2023-09-21T00:00:00	2024-11-06T18:00:00	3	Temperatura mínima	17.5
120716	7	Sololá	702	San José Chacayá	5	Chacayá	9	Septiembre	2023-09-21T00:00:00	2024-11-06T18:00:00	5	Humedad	90
120717	7	Sololá	702	San José Chacayá	5	Chacayá	9	Septiembre	2023-09-21T00:00:00	2024-11-06T18:00:00	6	Velocidad del viento	1.6
120718	7	Sololá	702	San José Chacayá	5	Chacayá	9	Septiembre	2023-09-21T00:00:00	2024-11-06T18:00:00	7	Dirección del viento	0.8
120719	7	Sololá	702	San José Chacayá	5	Chacayá	9	Septiembre	2023-09-21T00:00:00	2024-11-06T18:00:00	1	Precipitación	0
120720	7	Sololá	702	San José Chacayá	5	Chacayá	9	Septiembre	2023-09-21T00:00:00	2024-11-06T18:00:00	8	Radiación solar	14
120721	7	Sololá	702	San José Chacayá	5	Chacayá	9	Septiembre	2023-09-21T00:00:00	2024-11-06T19:00:00	2	Temperatura media	16.8
120722	7	Sololá	702	San José Chacayá	5	Chacayá	9	Septiembre	2023-09-21T00:00:00	2024-11-06T19:00:00	4	Temperatura máxima	16.9
120723	7	Sololá	702	San José Chacayá	5	Chacayá	9	Septiembre	2023-09-21T00:00:00	2024-11-06T19:00:00	3	Temperatura mínima	16.8
120724	7	Sololá	702	San José Chacayá	5	Chacayá	9	Septiembre	2023-09-21T00:00:00	2024-11-06T19:00:00	5	Humedad	92
120725	7	Sololá	702	San José Chacayá	5	Chacayá	9	Septiembre	2023-09-21T00:00:00	2024-11-06T19:00:00	6	Velocidad del viento	0
120726	7	Sololá	702	San José Chacayá	5	Chacayá	9	Septiembre	2023-09-21T00:00:00	2024-11-06T19:00:00	7	Dirección del viento	0
120727	7	Sololá	702	San José Chacayá	5	Chacayá	9	Septiembre	2023-09-21T00:00:00	2024-11-06T19:00:00	1	Precipitación	0
120728	7	Sololá	702	San José Chacayá	5	Chacayá	9	Septiembre	2023-09-21T00:00:00	2024-11-06T19:00:00	8	Radiación solar	0
120729	7	Sololá	702	San José Chacayá	5	Chacayá	9	Septiembre	2023-09-21T00:00:00	2024-11-06T20:00:00	2	Temperatura media	16.3
120730	7	Sololá	702	San José Chacayá	5	Chacayá	9	Septiembre	2023-09-21T00:00:00	2024-11-06T20:00:00	4	Temperatura máxima	16.5
120731	7	Sololá	702	San José Chacayá	5	Chacayá	9	Septiembre	2023-09-21T00:00:00	2024-11-06T20:00:00	3	Temperatura mínima	16.1
120732	7	Sololá	702	San José Chacayá	5	Chacayá	9	Septiembre	2023-09-21T00:00:00	2024-11-06T20:00:00	5	Humedad	86
120733	7	Sololá	702	San José Chacayá	5	Chacayá	9	Septiembre	2023-09-21T00:00:00	2024-11-06T20:00:00	6	Velocidad del viento	1.6
120734	7	Sololá	702	San José Chacayá	5	Chacayá	9	Septiembre	2023-09-21T00:00:00	2024-11-06T20:00:00	7	Dirección del viento	0.8
120735	7	Sololá	702	San José Chacayá	5	Chacayá	9	Septiembre	2023-09-21T00:00:00	2024-11-06T20:00:00	1	Precipitación	0
120736	7	Sololá	702	San José Chacayá	5	Chacayá	9	Septiembre	2023-09-21T00:00:00	2024-11-06T20:00:00	8	Radiación solar	0
120737	7	Sololá	702	San José Chacayá	5	Chacayá	9	Septiembre	2023-09-21T00:00:00	2024-11-06T21:00:00	2	Temperatura media	15.8
120738	7	Sololá	702	San José Chacayá	5	Chacayá	9	Septiembre	2023-09-21T00:00:00	2024-11-06T21:00:00	4	Temperatura máxima	15.9
120739	7	Sololá	702	San José Chacayá	5	Chacayá	9	Septiembre	2023-09-21T00:00:00	2024-11-06T21:00:00	3	Temperatura mínima	15.8
120740	7	Sololá	702	San José Chacayá	5	Chacayá	9	Septiembre	2023-09-21T00:00:00	2024-11-06T21:00:00	5	Humedad	93
120741	7	Sololá	702	San José Chacayá	5	Chacayá	9	Septiembre	2023-09-21T00:00:00	2024-11-06T21:00:00	6	Velocidad del viento	0
120742	7	Sololá	702	San José Chacayá	5	Chacayá	9	Septiembre	2023-09-21T00:00:00	2024-11-06T21:00:00	7	Dirección del viento	0
120743	7	Sololá	702	San José Chacayá	5	Chacayá	9	Septiembre	2023-09-21T00:00:00	2024-11-06T21:00:00	1	Precipitación	11.6
120744	7	Sololá	702	San José Chacayá	5	Chacayá	9	Septiembre	2023-09-21T00:00:00	2024-11-06T21:00:00	8	Radiación solar	0
120745	7	Sololá	702	San José Chacayá	5	Chacayá	9	Septiembre	2023-09-21T00:00:00	2024-11-06T22:00:00	2	Temperatura media	15.5
120746	7	Sololá	702	San José Chacayá	5	Chacayá	9	Septiembre	2023-09-21T00:00:00	2024-11-06T22:00:00	4	Temperatura máxima	15.8
120747	7	Sololá	702	San José Chacayá	5	Chacayá	9	Septiembre	2023-09-21T00:00:00	2024-11-06T22:00:00	3	Temperatura mínima	15.4
120748	7	Sololá	702	San José Chacayá	5	Chacayá	9	Septiembre	2023-09-21T00:00:00	2024-11-06T22:00:00	5	Humedad	95
120749	7	Sololá	702	San José Chacayá	5	Chacayá	9	Septiembre	2023-09-21T00:00:00	2024-11-06T22:00:00	6	Velocidad del viento	1.6
120750	7	Sololá	702	San José Chacayá	5	Chacayá	9	Septiembre	2023-09-21T00:00:00	2024-11-06T22:00:00	7	Dirección del viento	0.8
120751	7	Sololá	702	San José Chacayá	5	Chacayá	9	Septiembre	2023-09-21T00:00:00	2024-11-06T22:00:00	1	Precipitación	28
120752	7	Sololá	702	San José Chacayá	5	Chacayá	9	Septiembre	2023-09-21T00:00:00	2024-11-06T22:00:00	8	Radiación solar	0
120753	7	Sololá	702	San José Chacayá	5	Chacayá	9	Septiembre	2023-09-21T00:00:00	2024-11-06T23:00:00	2	Temperatura media	15.2
120754	7	Sololá	702	San José Chacayá	5	Chacayá	9	Septiembre	2023-09-21T00:00:00	2024-11-06T23:00:00	4	Temperatura máxima	15.3
120755	7	Sololá	702	San José Chacayá	5	Chacayá	9	Septiembre	2023-09-21T00:00:00	2024-11-06T23:00:00	3	Temperatura mínima	15.1
120756	7	Sololá	702	San José Chacayá	5	Chacayá	9	Septiembre	2023-09-21T00:00:00	2024-11-06T23:00:00	5	Humedad	95
120757	7	Sololá	702	San José Chacayá	5	Chacayá	9	Septiembre	2023-09-21T00:00:00	2024-11-06T23:00:00	6	Velocidad del viento	1.6
120758	7	Sololá	702	San José Chacayá	5	Chacayá	9	Septiembre	2023-09-21T00:00:00	2024-11-06T23:00:00	7	Dirección del viento	0.8
120759	7	Sololá	702	San José Chacayá	5	Chacayá	9	Septiembre	2023-09-21T00:00:00	2024-11-06T23:00:00	1	Precipitación	0
120760	7	Sololá	702	San José Chacayá	5	Chacayá	9	Septiembre	2023-09-21T00:00:00	2024-11-06T23:00:00	8	Radiación solar	0
120761	7	Sololá	702	San José Chacayá	5	Chacayá	9	Septiembre	2023-09-22T00:00:00	2024-11-06T00:00:00	2	Temperatura media	14.9
120762	7	Sololá	702	San José Chacayá	5	Chacayá	9	Septiembre	2023-09-22T00:00:00	2024-11-06T00:00:00	4	Temperatura máxima	15.2
120763	7	Sololá	702	San José Chacayá	5	Chacayá	9	Septiembre	2023-09-22T00:00:00	2024-11-06T00:00:00	3	Temperatura mínima	14.9
120764	7	Sololá	702	San José Chacayá	5	Chacayá	9	Septiembre	2023-09-22T00:00:00	2024-11-06T00:00:00	5	Humedad	95
120765	7	Sololá	702	San José Chacayá	5	Chacayá	9	Septiembre	2023-09-22T00:00:00	2024-11-06T00:00:00	6	Velocidad del viento	0
120766	7	Sololá	702	San José Chacayá	5	Chacayá	9	Septiembre	2023-09-22T00:00:00	2024-11-06T00:00:00	7	Dirección del viento	0
120767	7	Sololá	702	San José Chacayá	5	Chacayá	9	Septiembre	2023-09-22T00:00:00	2024-11-06T00:00:00	1	Precipitación	0
120768	7	Sololá	702	San José Chacayá	5	Chacayá	9	Septiembre	2023-09-22T00:00:00	2024-11-06T00:00:00	8	Radiación solar	0
120769	7	Sololá	702	San José Chacayá	5	Chacayá	9	Septiembre	2023-09-22T00:00:00	2024-11-06T01:00:00	2	Temperatura media	14.4
120770	7	Sololá	702	San José Chacayá	5	Chacayá	9	Septiembre	2023-09-22T00:00:00	2024-11-06T01:00:00	4	Temperatura máxima	14.6
120771	7	Sololá	702	San José Chacayá	5	Chacayá	9	Septiembre	2023-09-22T00:00:00	2024-11-06T01:00:00	3	Temperatura mínima	14.4
120772	7	Sololá	702	San José Chacayá	5	Chacayá	9	Septiembre	2023-09-22T00:00:00	2024-11-06T01:00:00	5	Humedad	95
120773	7	Sololá	702	San José Chacayá	5	Chacayá	9	Septiembre	2023-09-22T00:00:00	2024-11-06T01:00:00	6	Velocidad del viento	0
120774	7	Sololá	702	San José Chacayá	5	Chacayá	9	Septiembre	2023-09-22T00:00:00	2024-11-06T01:00:00	7	Dirección del viento	0
120775	7	Sololá	702	San José Chacayá	5	Chacayá	9	Septiembre	2023-09-22T00:00:00	2024-11-06T01:00:00	1	Precipitación	0.2
120776	7	Sololá	702	San José Chacayá	5	Chacayá	9	Septiembre	2023-09-22T00:00:00	2024-11-06T01:00:00	8	Radiación solar	0
120777	7	Sololá	702	San José Chacayá	5	Chacayá	9	Septiembre	2023-09-22T00:00:00	2024-11-06T02:00:00	2	Temperatura media	14.3
120778	7	Sololá	702	San José Chacayá	5	Chacayá	9	Septiembre	2023-09-22T00:00:00	2024-11-06T02:00:00	4	Temperatura máxima	14.3
120779	7	Sololá	702	San José Chacayá	5	Chacayá	9	Septiembre	2023-09-22T00:00:00	2024-11-06T02:00:00	3	Temperatura mínima	14.3
120780	7	Sololá	702	San José Chacayá	5	Chacayá	9	Septiembre	2023-09-22T00:00:00	2024-11-06T02:00:00	5	Humedad	95
120781	7	Sololá	702	San José Chacayá	5	Chacayá	9	Septiembre	2023-09-22T00:00:00	2024-11-06T02:00:00	6	Velocidad del viento	0
120782	7	Sololá	702	San José Chacayá	5	Chacayá	9	Septiembre	2023-09-22T00:00:00	2024-11-06T02:00:00	7	Dirección del viento	0
120783	7	Sololá	702	San José Chacayá	5	Chacayá	9	Septiembre	2023-09-22T00:00:00	2024-11-06T02:00:00	1	Precipitación	0
120784	7	Sololá	702	San José Chacayá	5	Chacayá	9	Septiembre	2023-09-22T00:00:00	2024-11-06T02:00:00	8	Radiación solar	0
120785	7	Sololá	702	San José Chacayá	5	Chacayá	9	Septiembre	2023-09-22T00:00:00	2024-11-06T03:00:00	2	Temperatura media	14.1
120786	7	Sololá	702	San José Chacayá	5	Chacayá	9	Septiembre	2023-09-22T00:00:00	2024-11-06T03:00:00	4	Temperatura máxima	14.4
120787	7	Sololá	702	San José Chacayá	5	Chacayá	9	Septiembre	2023-09-22T00:00:00	2024-11-06T03:00:00	3	Temperatura mínima	14
120788	7	Sololá	702	San José Chacayá	5	Chacayá	9	Septiembre	2023-09-22T00:00:00	2024-11-06T03:00:00	5	Humedad	94
120789	7	Sololá	702	San José Chacayá	5	Chacayá	9	Septiembre	2023-09-22T00:00:00	2024-11-06T03:00:00	6	Velocidad del viento	1.6
120790	7	Sololá	702	San José Chacayá	5	Chacayá	9	Septiembre	2023-09-22T00:00:00	2024-11-06T03:00:00	7	Dirección del viento	0.8
120791	7	Sololá	702	San José Chacayá	5	Chacayá	9	Septiembre	2023-09-22T00:00:00	2024-11-06T03:00:00	1	Precipitación	0
120792	7	Sololá	702	San José Chacayá	5	Chacayá	9	Septiembre	2023-09-22T00:00:00	2024-11-06T03:00:00	8	Radiación solar	0
120793	7	Sololá	702	San José Chacayá	5	Chacayá	9	Septiembre	2023-09-22T00:00:00	2024-11-06T04:00:00	2	Temperatura media	13.6
120794	7	Sololá	702	San José Chacayá	5	Chacayá	9	Septiembre	2023-09-22T00:00:00	2024-11-06T04:00:00	4	Temperatura máxima	14.4
120795	7	Sololá	702	San José Chacayá	5	Chacayá	9	Septiembre	2023-09-22T00:00:00	2024-11-06T04:00:00	3	Temperatura mínima	13.6
120796	7	Sololá	702	San José Chacayá	5	Chacayá	9	Septiembre	2023-09-22T00:00:00	2024-11-06T04:00:00	5	Humedad	92
120797	7	Sololá	702	San José Chacayá	5	Chacayá	9	Septiembre	2023-09-22T00:00:00	2024-11-06T04:00:00	6	Velocidad del viento	0
120798	7	Sololá	702	San José Chacayá	5	Chacayá	9	Septiembre	2023-09-22T00:00:00	2024-11-06T04:00:00	7	Dirección del viento	0
120799	7	Sololá	702	San José Chacayá	5	Chacayá	9	Septiembre	2023-09-22T00:00:00	2024-11-06T04:00:00	1	Precipitación	0
120800	7	Sololá	702	San José Chacayá	5	Chacayá	9	Septiembre	2023-09-22T00:00:00	2024-11-06T04:00:00	8	Radiación solar	0
120801	7	Sololá	702	San José Chacayá	5	Chacayá	9	Septiembre	2023-09-22T00:00:00	2024-11-06T05:00:00	2	Temperatura media	12.6
120802	7	Sololá	702	San José Chacayá	5	Chacayá	9	Septiembre	2023-09-22T00:00:00	2024-11-06T05:00:00	4	Temperatura máxima	12.9
120803	7	Sololá	702	San José Chacayá	5	Chacayá	9	Septiembre	2023-09-22T00:00:00	2024-11-06T05:00:00	3	Temperatura mínima	12.6
120804	7	Sololá	702	San José Chacayá	5	Chacayá	9	Septiembre	2023-09-22T00:00:00	2024-11-06T05:00:00	5	Humedad	94
120805	7	Sololá	702	San José Chacayá	5	Chacayá	9	Septiembre	2023-09-22T00:00:00	2024-11-06T05:00:00	6	Velocidad del viento	1.6
120806	7	Sololá	702	San José Chacayá	5	Chacayá	9	Septiembre	2023-09-22T00:00:00	2024-11-06T05:00:00	7	Dirección del viento	0.8
120807	7	Sololá	702	San José Chacayá	5	Chacayá	9	Septiembre	2023-09-22T00:00:00	2024-11-06T05:00:00	1	Precipitación	0
120808	7	Sololá	702	San José Chacayá	5	Chacayá	9	Septiembre	2023-09-22T00:00:00	2024-11-06T05:00:00	8	Radiación solar	0
120809	7	Sololá	702	San José Chacayá	5	Chacayá	9	Septiembre	2023-09-22T00:00:00	2024-11-06T06:00:00	2	Temperatura media	12.1
120810	7	Sololá	702	San José Chacayá	5	Chacayá	9	Septiembre	2023-09-22T00:00:00	2024-11-06T06:00:00	4	Temperatura máxima	12.2
120811	7	Sololá	702	San José Chacayá	5	Chacayá	9	Septiembre	2023-09-22T00:00:00	2024-11-06T06:00:00	3	Temperatura mínima	12.1
120812	7	Sololá	702	San José Chacayá	5	Chacayá	9	Septiembre	2023-09-22T00:00:00	2024-11-06T06:00:00	5	Humedad	95
120813	7	Sololá	702	San José Chacayá	5	Chacayá	9	Septiembre	2023-09-22T00:00:00	2024-11-06T06:00:00	6	Velocidad del viento	0
120814	7	Sololá	702	San José Chacayá	5	Chacayá	9	Septiembre	2023-09-22T00:00:00	2024-11-06T06:00:00	7	Dirección del viento	0
120815	7	Sololá	702	San José Chacayá	5	Chacayá	9	Septiembre	2023-09-22T00:00:00	2024-11-06T06:00:00	1	Precipitación	0
120816	7	Sololá	702	San José Chacayá	5	Chacayá	9	Septiembre	2023-09-22T00:00:00	2024-11-06T06:00:00	8	Radiación solar	1
120817	7	Sololá	702	San José Chacayá	5	Chacayá	9	Septiembre	2023-09-22T00:00:00	2024-11-06T07:00:00	2	Temperatura media	13
120818	7	Sololá	702	San José Chacayá	5	Chacayá	9	Septiembre	2023-09-22T00:00:00	2024-11-06T07:00:00	4	Temperatura máxima	13
120819	7	Sololá	702	San José Chacayá	5	Chacayá	9	Septiembre	2023-09-22T00:00:00	2024-11-06T07:00:00	3	Temperatura mínima	12.2
120820	7	Sololá	702	San José Chacayá	5	Chacayá	9	Septiembre	2023-09-22T00:00:00	2024-11-06T07:00:00	5	Humedad	96
120821	7	Sololá	702	San José Chacayá	5	Chacayá	9	Septiembre	2023-09-22T00:00:00	2024-11-06T07:00:00	6	Velocidad del viento	0
120822	7	Sololá	702	San José Chacayá	5	Chacayá	9	Septiembre	2023-09-22T00:00:00	2024-11-06T07:00:00	7	Dirección del viento	0
120823	7	Sololá	702	San José Chacayá	5	Chacayá	9	Septiembre	2023-09-22T00:00:00	2024-11-06T07:00:00	1	Precipitación	0
120824	7	Sololá	702	San José Chacayá	5	Chacayá	9	Septiembre	2023-09-22T00:00:00	2024-11-06T07:00:00	8	Radiación solar	37
120825	7	Sololá	702	San José Chacayá	5	Chacayá	9	Septiembre	2023-09-22T00:00:00	2024-11-06T08:00:00	2	Temperatura media	16.9
120826	7	Sololá	702	San José Chacayá	5	Chacayá	9	Septiembre	2023-09-22T00:00:00	2024-11-06T08:00:00	4	Temperatura máxima	16.9
120827	7	Sololá	702	San José Chacayá	5	Chacayá	9	Septiembre	2023-09-22T00:00:00	2024-11-06T08:00:00	3	Temperatura mínima	15.6
120828	7	Sololá	702	San José Chacayá	5	Chacayá	9	Septiembre	2023-09-22T00:00:00	2024-11-06T08:00:00	5	Humedad	78
120829	7	Sololá	702	San José Chacayá	5	Chacayá	9	Septiembre	2023-09-22T00:00:00	2024-11-06T08:00:00	6	Velocidad del viento	4.8
120830	7	Sololá	702	San José Chacayá	5	Chacayá	9	Septiembre	2023-09-22T00:00:00	2024-11-06T08:00:00	7	Dirección del viento	2.41
120831	7	Sololá	702	San José Chacayá	5	Chacayá	9	Septiembre	2023-09-22T00:00:00	2024-11-06T08:00:00	1	Precipitación	0
120832	7	Sololá	702	San José Chacayá	5	Chacayá	9	Septiembre	2023-09-22T00:00:00	2024-11-06T08:00:00	8	Radiación solar	240
120833	7	Sololá	702	San José Chacayá	5	Chacayá	9	Septiembre	2023-09-22T00:00:00	2024-11-06T09:00:00	2	Temperatura media	20.6
120834	7	Sololá	702	San José Chacayá	5	Chacayá	9	Septiembre	2023-09-22T00:00:00	2024-11-06T09:00:00	4	Temperatura máxima	20.6
120835	7	Sololá	702	San José Chacayá	5	Chacayá	9	Septiembre	2023-09-22T00:00:00	2024-11-06T09:00:00	3	Temperatura mínima	18.7
120836	7	Sololá	702	San José Chacayá	5	Chacayá	9	Septiembre	2023-09-22T00:00:00	2024-11-06T09:00:00	5	Humedad	67
120837	7	Sololá	702	San José Chacayá	5	Chacayá	9	Septiembre	2023-09-22T00:00:00	2024-11-06T09:00:00	6	Velocidad del viento	4.8
120838	7	Sololá	702	San José Chacayá	5	Chacayá	9	Septiembre	2023-09-22T00:00:00	2024-11-06T09:00:00	7	Dirección del viento	2.41
120839	7	Sololá	702	San José Chacayá	5	Chacayá	9	Septiembre	2023-09-22T00:00:00	2024-11-06T09:00:00	1	Precipitación	0
120840	7	Sololá	702	San José Chacayá	5	Chacayá	9	Septiembre	2023-09-22T00:00:00	2024-11-06T09:00:00	8	Radiación solar	651
120841	7	Sololá	702	San José Chacayá	5	Chacayá	9	Septiembre	2023-09-22T00:00:00	2024-11-06T10:00:00	2	Temperatura media	19.4
120842	7	Sololá	702	San José Chacayá	5	Chacayá	9	Septiembre	2023-09-22T00:00:00	2024-11-06T10:00:00	4	Temperatura máxima	20.7
120843	7	Sololá	702	San José Chacayá	5	Chacayá	9	Septiembre	2023-09-22T00:00:00	2024-11-06T10:00:00	3	Temperatura mínima	19.3
120844	7	Sololá	702	San José Chacayá	5	Chacayá	9	Septiembre	2023-09-22T00:00:00	2024-11-06T10:00:00	5	Humedad	70
120845	7	Sololá	702	San José Chacayá	5	Chacayá	9	Septiembre	2023-09-22T00:00:00	2024-11-06T10:00:00	6	Velocidad del viento	4.8
120846	7	Sololá	702	San José Chacayá	5	Chacayá	9	Septiembre	2023-09-22T00:00:00	2024-11-06T10:00:00	7	Dirección del viento	2.41
120847	7	Sololá	702	San José Chacayá	5	Chacayá	9	Septiembre	2023-09-22T00:00:00	2024-11-06T10:00:00	1	Precipitación	0
120848	7	Sololá	702	San José Chacayá	5	Chacayá	9	Septiembre	2023-09-22T00:00:00	2024-11-06T10:00:00	8	Radiación solar	836
120849	7	Sololá	702	San José Chacayá	5	Chacayá	9	Septiembre	2023-09-22T00:00:00	2024-11-06T11:00:00	2	Temperatura media	22.8
120850	7	Sololá	702	San José Chacayá	5	Chacayá	9	Septiembre	2023-09-22T00:00:00	2024-11-06T11:00:00	4	Temperatura máxima	22.8
120851	7	Sololá	702	San José Chacayá	5	Chacayá	9	Septiembre	2023-09-22T00:00:00	2024-11-06T11:00:00	3	Temperatura mínima	21.3
120852	7	Sololá	702	San José Chacayá	5	Chacayá	9	Septiembre	2023-09-22T00:00:00	2024-11-06T11:00:00	5	Humedad	59
120853	7	Sololá	702	San José Chacayá	5	Chacayá	9	Septiembre	2023-09-22T00:00:00	2024-11-06T11:00:00	6	Velocidad del viento	4.8
120854	7	Sololá	702	San José Chacayá	5	Chacayá	9	Septiembre	2023-09-22T00:00:00	2024-11-06T11:00:00	7	Dirección del viento	2.41
120855	7	Sololá	702	San José Chacayá	5	Chacayá	9	Septiembre	2023-09-22T00:00:00	2024-11-06T11:00:00	1	Precipitación	0
120856	7	Sololá	702	San José Chacayá	5	Chacayá	9	Septiembre	2023-09-22T00:00:00	2024-11-06T11:00:00	8	Radiación solar	440
120857	7	Sololá	702	San José Chacayá	5	Chacayá	9	Septiembre	2023-09-22T00:00:00	2024-11-06T12:00:00	2	Temperatura media	22.7
120858	7	Sololá	702	San José Chacayá	5	Chacayá	9	Septiembre	2023-09-22T00:00:00	2024-11-06T12:00:00	4	Temperatura máxima	22.9
120859	7	Sololá	702	San José Chacayá	5	Chacayá	9	Septiembre	2023-09-22T00:00:00	2024-11-06T12:00:00	3	Temperatura mínima	22.2
120860	7	Sololá	702	San José Chacayá	5	Chacayá	9	Septiembre	2023-09-22T00:00:00	2024-11-06T12:00:00	5	Humedad	59
120861	7	Sololá	702	San José Chacayá	5	Chacayá	9	Septiembre	2023-09-22T00:00:00	2024-11-06T12:00:00	6	Velocidad del viento	3.2
120862	7	Sololá	702	San José Chacayá	5	Chacayá	9	Septiembre	2023-09-22T00:00:00	2024-11-06T12:00:00	7	Dirección del viento	1.61
120863	7	Sololá	702	San José Chacayá	5	Chacayá	9	Septiembre	2023-09-22T00:00:00	2024-11-06T12:00:00	1	Precipitación	0
120864	7	Sololá	702	San José Chacayá	5	Chacayá	9	Septiembre	2023-09-22T00:00:00	2024-11-06T12:00:00	8	Radiación solar	603
120865	7	Sololá	702	San José Chacayá	5	Chacayá	9	Septiembre	2023-09-22T00:00:00	2024-11-06T13:00:00	2	Temperatura media	21.2
120866	7	Sololá	702	San José Chacayá	5	Chacayá	9	Septiembre	2023-09-22T00:00:00	2024-11-06T13:00:00	4	Temperatura máxima	22.7
120867	7	Sololá	702	San José Chacayá	5	Chacayá	9	Septiembre	2023-09-22T00:00:00	2024-11-06T13:00:00	3	Temperatura mínima	21.1
120868	7	Sololá	702	San José Chacayá	5	Chacayá	9	Septiembre	2023-09-22T00:00:00	2024-11-06T13:00:00	5	Humedad	72
120869	7	Sololá	702	San José Chacayá	5	Chacayá	9	Septiembre	2023-09-22T00:00:00	2024-11-06T13:00:00	6	Velocidad del viento	4.8
120870	7	Sololá	702	San José Chacayá	5	Chacayá	9	Septiembre	2023-09-22T00:00:00	2024-11-06T13:00:00	7	Dirección del viento	2.41
120871	7	Sololá	702	San José Chacayá	5	Chacayá	9	Septiembre	2023-09-22T00:00:00	2024-11-06T13:00:00	1	Precipitación	0
120872	7	Sololá	702	San José Chacayá	5	Chacayá	9	Septiembre	2023-09-22T00:00:00	2024-11-06T13:00:00	8	Radiación solar	974
120873	7	Sololá	702	San José Chacayá	5	Chacayá	9	Septiembre	2023-09-22T00:00:00	2024-11-06T14:00:00	2	Temperatura media	23.3
120874	7	Sololá	702	San José Chacayá	5	Chacayá	9	Septiembre	2023-09-22T00:00:00	2024-11-06T14:00:00	4	Temperatura máxima	23.4
120875	7	Sololá	702	San José Chacayá	5	Chacayá	9	Septiembre	2023-09-22T00:00:00	2024-11-06T14:00:00	3	Temperatura mínima	20.8
120876	7	Sololá	702	San José Chacayá	5	Chacayá	9	Septiembre	2023-09-22T00:00:00	2024-11-06T14:00:00	5	Humedad	61
120877	7	Sololá	702	San José Chacayá	5	Chacayá	9	Septiembre	2023-09-22T00:00:00	2024-11-06T14:00:00	6	Velocidad del viento	1.6
120878	7	Sololá	702	San José Chacayá	5	Chacayá	9	Septiembre	2023-09-22T00:00:00	2024-11-06T14:00:00	7	Dirección del viento	0.8
120879	7	Sololá	702	San José Chacayá	5	Chacayá	9	Septiembre	2023-09-22T00:00:00	2024-11-06T14:00:00	1	Precipitación	0
120880	7	Sololá	702	San José Chacayá	5	Chacayá	9	Septiembre	2023-09-22T00:00:00	2024-11-06T14:00:00	8	Radiación solar	818
120881	7	Sololá	702	San José Chacayá	5	Chacayá	9	Septiembre	2023-09-22T00:00:00	2024-11-06T15:00:00	2	Temperatura media	23.4
120882	7	Sololá	702	San José Chacayá	5	Chacayá	9	Septiembre	2023-09-22T00:00:00	2024-11-06T15:00:00	4	Temperatura máxima	23.5
120883	7	Sololá	702	San José Chacayá	5	Chacayá	9	Septiembre	2023-09-22T00:00:00	2024-11-06T15:00:00	3	Temperatura mínima	21.4
120884	7	Sololá	702	San José Chacayá	5	Chacayá	9	Septiembre	2023-09-22T00:00:00	2024-11-06T15:00:00	5	Humedad	61
120885	7	Sololá	702	San José Chacayá	5	Chacayá	9	Septiembre	2023-09-22T00:00:00	2024-11-06T15:00:00	6	Velocidad del viento	4.8
120886	7	Sololá	702	San José Chacayá	5	Chacayá	9	Septiembre	2023-09-22T00:00:00	2024-11-06T15:00:00	7	Dirección del viento	2.41
120887	7	Sololá	702	San José Chacayá	5	Chacayá	9	Septiembre	2023-09-22T00:00:00	2024-11-06T15:00:00	1	Precipitación	0
120888	7	Sololá	702	San José Chacayá	5	Chacayá	9	Septiembre	2023-09-22T00:00:00	2024-11-06T15:00:00	8	Radiación solar	650
120889	7	Sololá	702	San José Chacayá	5	Chacayá	9	Septiembre	2023-09-22T00:00:00	2024-11-06T16:00:00	2	Temperatura media	21.1
120890	7	Sololá	702	San José Chacayá	5	Chacayá	9	Septiembre	2023-09-22T00:00:00	2024-11-06T16:00:00	4	Temperatura máxima	23.3
120891	7	Sololá	702	San José Chacayá	5	Chacayá	9	Septiembre	2023-09-22T00:00:00	2024-11-06T16:00:00	3	Temperatura mínima	21.1
120892	7	Sololá	702	San José Chacayá	5	Chacayá	9	Septiembre	2023-09-22T00:00:00	2024-11-06T16:00:00	5	Humedad	71
120893	7	Sololá	702	San José Chacayá	5	Chacayá	9	Septiembre	2023-09-22T00:00:00	2024-11-06T16:00:00	6	Velocidad del viento	3.2
120894	7	Sololá	702	San José Chacayá	5	Chacayá	9	Septiembre	2023-09-22T00:00:00	2024-11-06T16:00:00	7	Dirección del viento	1.61
120895	7	Sololá	702	San José Chacayá	5	Chacayá	9	Septiembre	2023-09-22T00:00:00	2024-11-06T16:00:00	1	Precipitación	0
120896	7	Sololá	702	San José Chacayá	5	Chacayá	9	Septiembre	2023-09-22T00:00:00	2024-11-06T16:00:00	8	Radiación solar	434
120897	7	Sololá	702	San José Chacayá	5	Chacayá	9	Septiembre	2023-09-22T00:00:00	2024-11-06T17:00:00	2	Temperatura media	19.8
120898	7	Sololá	702	San José Chacayá	5	Chacayá	9	Septiembre	2023-09-22T00:00:00	2024-11-06T17:00:00	4	Temperatura máxima	20.8
120899	7	Sololá	702	San José Chacayá	5	Chacayá	9	Septiembre	2023-09-22T00:00:00	2024-11-06T17:00:00	3	Temperatura mínima	19.8
120900	7	Sololá	702	San José Chacayá	5	Chacayá	9	Septiembre	2023-09-22T00:00:00	2024-11-06T17:00:00	5	Humedad	81
120901	7	Sololá	702	San José Chacayá	5	Chacayá	9	Septiembre	2023-09-22T00:00:00	2024-11-06T17:00:00	6	Velocidad del viento	1.6
120902	7	Sololá	702	San José Chacayá	5	Chacayá	9	Septiembre	2023-09-22T00:00:00	2024-11-06T17:00:00	7	Dirección del viento	0.8
120903	7	Sololá	702	San José Chacayá	5	Chacayá	9	Septiembre	2023-09-22T00:00:00	2024-11-06T17:00:00	1	Precipitación	0
120904	7	Sololá	702	San José Chacayá	5	Chacayá	9	Septiembre	2023-09-22T00:00:00	2024-11-06T17:00:00	8	Radiación solar	104
120905	7	Sololá	702	San José Chacayá	5	Chacayá	9	Septiembre	2023-09-22T00:00:00	2024-11-06T18:00:00	2	Temperatura media	18.4
120906	7	Sololá	702	San José Chacayá	5	Chacayá	9	Septiembre	2023-09-22T00:00:00	2024-11-06T18:00:00	4	Temperatura máxima	18.9
120907	7	Sololá	702	San José Chacayá	5	Chacayá	9	Septiembre	2023-09-22T00:00:00	2024-11-06T18:00:00	3	Temperatura mínima	18.4
120908	7	Sololá	702	San José Chacayá	5	Chacayá	9	Septiembre	2023-09-22T00:00:00	2024-11-06T18:00:00	5	Humedad	86
120909	7	Sololá	702	San José Chacayá	5	Chacayá	9	Septiembre	2023-09-22T00:00:00	2024-11-06T18:00:00	6	Velocidad del viento	1.6
120910	7	Sololá	702	San José Chacayá	5	Chacayá	9	Septiembre	2023-09-22T00:00:00	2024-11-06T18:00:00	7	Dirección del viento	0.8
120911	7	Sololá	702	San José Chacayá	5	Chacayá	9	Septiembre	2023-09-22T00:00:00	2024-11-06T18:00:00	1	Precipitación	0
120912	7	Sololá	702	San José Chacayá	5	Chacayá	9	Septiembre	2023-09-22T00:00:00	2024-11-06T18:00:00	8	Radiación solar	17
120913	7	Sololá	702	San José Chacayá	5	Chacayá	9	Septiembre	2023-09-22T00:00:00	2024-11-06T19:00:00	2	Temperatura media	16.9
120914	7	Sololá	702	San José Chacayá	5	Chacayá	9	Septiembre	2023-09-22T00:00:00	2024-11-06T19:00:00	4	Temperatura máxima	17.4
120915	7	Sololá	702	San José Chacayá	5	Chacayá	9	Septiembre	2023-09-22T00:00:00	2024-11-06T19:00:00	3	Temperatura mínima	16.9
120916	7	Sololá	702	San José Chacayá	5	Chacayá	9	Septiembre	2023-09-22T00:00:00	2024-11-06T19:00:00	5	Humedad	92
120917	7	Sololá	702	San José Chacayá	5	Chacayá	9	Septiembre	2023-09-22T00:00:00	2024-11-06T19:00:00	6	Velocidad del viento	0
120918	7	Sololá	702	San José Chacayá	5	Chacayá	9	Septiembre	2023-09-22T00:00:00	2024-11-06T19:00:00	7	Dirección del viento	0
120919	7	Sololá	702	San José Chacayá	5	Chacayá	9	Septiembre	2023-09-22T00:00:00	2024-11-06T19:00:00	1	Precipitación	0
120920	7	Sololá	702	San José Chacayá	5	Chacayá	9	Septiembre	2023-09-22T00:00:00	2024-11-06T19:00:00	8	Radiación solar	0
120921	7	Sololá	702	San José Chacayá	5	Chacayá	9	Septiembre	2023-09-22T00:00:00	2024-11-06T20:00:00	2	Temperatura media	16.1
120922	7	Sololá	702	San José Chacayá	5	Chacayá	9	Septiembre	2023-09-22T00:00:00	2024-11-06T20:00:00	4	Temperatura máxima	16.8
120923	7	Sololá	702	San José Chacayá	5	Chacayá	9	Septiembre	2023-09-22T00:00:00	2024-11-06T20:00:00	3	Temperatura mínima	16.1
120924	7	Sololá	702	San José Chacayá	5	Chacayá	9	Septiembre	2023-09-22T00:00:00	2024-11-06T20:00:00	5	Humedad	92
120925	7	Sololá	702	San José Chacayá	5	Chacayá	9	Septiembre	2023-09-22T00:00:00	2024-11-06T20:00:00	6	Velocidad del viento	1.6
120926	7	Sololá	702	San José Chacayá	5	Chacayá	9	Septiembre	2023-09-22T00:00:00	2024-11-06T20:00:00	7	Dirección del viento	0.8
120927	7	Sololá	702	San José Chacayá	5	Chacayá	9	Septiembre	2023-09-22T00:00:00	2024-11-06T20:00:00	1	Precipitación	4.2
120928	7	Sololá	702	San José Chacayá	5	Chacayá	9	Septiembre	2023-09-22T00:00:00	2024-11-06T20:00:00	8	Radiación solar	0
120929	7	Sololá	702	San José Chacayá	5	Chacayá	9	Septiembre	2023-09-22T00:00:00	2024-11-06T21:00:00	2	Temperatura media	15.6
120930	7	Sololá	702	San José Chacayá	5	Chacayá	9	Septiembre	2023-09-22T00:00:00	2024-11-06T21:00:00	4	Temperatura máxima	15.7
120931	7	Sololá	702	San José Chacayá	5	Chacayá	9	Septiembre	2023-09-22T00:00:00	2024-11-06T21:00:00	3	Temperatura mínima	15.5
120932	7	Sololá	702	San José Chacayá	5	Chacayá	9	Septiembre	2023-09-22T00:00:00	2024-11-06T21:00:00	5	Humedad	93
120933	7	Sololá	702	San José Chacayá	5	Chacayá	9	Septiembre	2023-09-22T00:00:00	2024-11-06T21:00:00	6	Velocidad del viento	0
120934	7	Sololá	702	San José Chacayá	5	Chacayá	9	Septiembre	2023-09-22T00:00:00	2024-11-06T21:00:00	7	Dirección del viento	0
120935	7	Sololá	702	San José Chacayá	5	Chacayá	9	Septiembre	2023-09-22T00:00:00	2024-11-06T21:00:00	1	Precipitación	0
120936	7	Sololá	702	San José Chacayá	5	Chacayá	9	Septiembre	2023-09-22T00:00:00	2024-11-06T21:00:00	8	Radiación solar	0
120937	7	Sololá	702	San José Chacayá	5	Chacayá	9	Septiembre	2023-09-22T00:00:00	2024-11-06T22:00:00	2	Temperatura media	14.9
120938	7	Sololá	702	San José Chacayá	5	Chacayá	9	Septiembre	2023-09-22T00:00:00	2024-11-06T22:00:00	4	Temperatura máxima	15.4
120939	7	Sololá	702	San José Chacayá	5	Chacayá	9	Septiembre	2023-09-22T00:00:00	2024-11-06T22:00:00	3	Temperatura mínima	14.9
120940	7	Sololá	702	San José Chacayá	5	Chacayá	9	Septiembre	2023-09-22T00:00:00	2024-11-06T22:00:00	5	Humedad	92
120941	7	Sololá	702	San José Chacayá	5	Chacayá	9	Septiembre	2023-09-22T00:00:00	2024-11-06T22:00:00	6	Velocidad del viento	0
120942	7	Sololá	702	San José Chacayá	5	Chacayá	9	Septiembre	2023-09-22T00:00:00	2024-11-06T22:00:00	7	Dirección del viento	0
120943	7	Sololá	702	San José Chacayá	5	Chacayá	9	Septiembre	2023-09-22T00:00:00	2024-11-06T22:00:00	1	Precipitación	0
120944	7	Sololá	702	San José Chacayá	5	Chacayá	9	Septiembre	2023-09-22T00:00:00	2024-11-06T22:00:00	8	Radiación solar	0
120945	7	Sololá	702	San José Chacayá	5	Chacayá	9	Septiembre	2023-09-22T00:00:00	2024-11-06T23:00:00	2	Temperatura media	14.1
120946	7	Sololá	702	San José Chacayá	5	Chacayá	9	Septiembre	2023-09-22T00:00:00	2024-11-06T23:00:00	4	Temperatura máxima	14.6
120947	7	Sololá	702	San José Chacayá	5	Chacayá	9	Septiembre	2023-09-22T00:00:00	2024-11-06T23:00:00	3	Temperatura mínima	14.1
120948	7	Sololá	702	San José Chacayá	5	Chacayá	9	Septiembre	2023-09-22T00:00:00	2024-11-06T23:00:00	5	Humedad	92
120949	7	Sololá	702	San José Chacayá	5	Chacayá	9	Septiembre	2023-09-22T00:00:00	2024-11-06T23:00:00	6	Velocidad del viento	0
120950	7	Sololá	702	San José Chacayá	5	Chacayá	9	Septiembre	2023-09-22T00:00:00	2024-11-06T23:00:00	7	Dirección del viento	0
120951	7	Sololá	702	San José Chacayá	5	Chacayá	9	Septiembre	2023-09-22T00:00:00	2024-11-06T23:00:00	1	Precipitación	0
120952	7	Sololá	702	San José Chacayá	5	Chacayá	9	Septiembre	2023-09-22T00:00:00	2024-11-06T23:00:00	8	Radiación solar	0
120953	7	Sololá	702	San José Chacayá	5	Chacayá	9	Septiembre	2023-09-23T00:00:00	2024-11-06T00:00:00	2	Temperatura media	12.9
120954	7	Sololá	702	San José Chacayá	5	Chacayá	9	Septiembre	2023-09-23T00:00:00	2024-11-06T00:00:00	4	Temperatura máxima	13.6
120955	7	Sololá	702	San José Chacayá	5	Chacayá	9	Septiembre	2023-09-23T00:00:00	2024-11-06T00:00:00	3	Temperatura mínima	12.9
120956	7	Sololá	702	San José Chacayá	5	Chacayá	9	Septiembre	2023-09-23T00:00:00	2024-11-06T00:00:00	5	Humedad	93
120957	7	Sololá	702	San José Chacayá	5	Chacayá	9	Septiembre	2023-09-23T00:00:00	2024-11-06T00:00:00	6	Velocidad del viento	0
120958	7	Sololá	702	San José Chacayá	5	Chacayá	9	Septiembre	2023-09-23T00:00:00	2024-11-06T00:00:00	7	Dirección del viento	0
120959	7	Sololá	702	San José Chacayá	5	Chacayá	9	Septiembre	2023-09-23T00:00:00	2024-11-06T00:00:00	1	Precipitación	0
120960	7	Sololá	702	San José Chacayá	5	Chacayá	9	Septiembre	2023-09-23T00:00:00	2024-11-06T00:00:00	8	Radiación solar	0
120961	7	Sololá	702	San José Chacayá	5	Chacayá	9	Septiembre	2023-09-23T00:00:00	2024-11-06T01:00:00	2	Temperatura media	12
120962	7	Sololá	702	San José Chacayá	5	Chacayá	9	Septiembre	2023-09-23T00:00:00	2024-11-06T01:00:00	4	Temperatura máxima	12.4
120963	7	Sololá	702	San José Chacayá	5	Chacayá	9	Septiembre	2023-09-23T00:00:00	2024-11-06T01:00:00	3	Temperatura mínima	12
120964	7	Sololá	702	San José Chacayá	5	Chacayá	9	Septiembre	2023-09-23T00:00:00	2024-11-06T01:00:00	5	Humedad	94
120965	7	Sololá	702	San José Chacayá	5	Chacayá	9	Septiembre	2023-09-23T00:00:00	2024-11-06T01:00:00	6	Velocidad del viento	0
120966	7	Sololá	702	San José Chacayá	5	Chacayá	9	Septiembre	2023-09-23T00:00:00	2024-11-06T01:00:00	7	Dirección del viento	0
120967	7	Sololá	702	San José Chacayá	5	Chacayá	9	Septiembre	2023-09-23T00:00:00	2024-11-06T01:00:00	1	Precipitación	0
120968	7	Sololá	702	San José Chacayá	5	Chacayá	9	Septiembre	2023-09-23T00:00:00	2024-11-06T01:00:00	8	Radiación solar	0
120969	7	Sololá	702	San José Chacayá	5	Chacayá	9	Septiembre	2023-09-23T00:00:00	2024-11-06T02:00:00	2	Temperatura media	11.7
120970	7	Sololá	702	San José Chacayá	5	Chacayá	9	Septiembre	2023-09-23T00:00:00	2024-11-06T02:00:00	4	Temperatura máxima	11.8
120971	7	Sololá	702	San José Chacayá	5	Chacayá	9	Septiembre	2023-09-23T00:00:00	2024-11-06T02:00:00	3	Temperatura mínima	11.7
120972	7	Sololá	702	San José Chacayá	5	Chacayá	9	Septiembre	2023-09-23T00:00:00	2024-11-06T02:00:00	5	Humedad	94
120973	7	Sololá	702	San José Chacayá	5	Chacayá	9	Septiembre	2023-09-23T00:00:00	2024-11-06T02:00:00	6	Velocidad del viento	1.6
120974	7	Sololá	702	San José Chacayá	5	Chacayá	9	Septiembre	2023-09-23T00:00:00	2024-11-06T02:00:00	7	Dirección del viento	0.8
120975	7	Sololá	702	San José Chacayá	5	Chacayá	9	Septiembre	2023-09-23T00:00:00	2024-11-06T02:00:00	1	Precipitación	0
120976	7	Sololá	702	San José Chacayá	5	Chacayá	9	Septiembre	2023-09-23T00:00:00	2024-11-06T02:00:00	8	Radiación solar	0
120977	7	Sololá	702	San José Chacayá	5	Chacayá	9	Septiembre	2023-09-23T00:00:00	2024-11-06T03:00:00	2	Temperatura media	11.1
120978	7	Sololá	702	San José Chacayá	5	Chacayá	9	Septiembre	2023-09-23T00:00:00	2024-11-06T03:00:00	4	Temperatura máxima	11.4
120979	7	Sololá	702	San José Chacayá	5	Chacayá	9	Septiembre	2023-09-23T00:00:00	2024-11-06T03:00:00	3	Temperatura mínima	11.1
120980	7	Sololá	702	San José Chacayá	5	Chacayá	9	Septiembre	2023-09-23T00:00:00	2024-11-06T03:00:00	5	Humedad	93
120981	7	Sololá	702	San José Chacayá	5	Chacayá	9	Septiembre	2023-09-23T00:00:00	2024-11-06T03:00:00	6	Velocidad del viento	1.6
120982	7	Sololá	702	San José Chacayá	5	Chacayá	9	Septiembre	2023-09-23T00:00:00	2024-11-06T03:00:00	7	Dirección del viento	0.8
120983	7	Sololá	702	San José Chacayá	5	Chacayá	9	Septiembre	2023-09-23T00:00:00	2024-11-06T03:00:00	1	Precipitación	0
120984	7	Sololá	702	San José Chacayá	5	Chacayá	9	Septiembre	2023-09-23T00:00:00	2024-11-06T03:00:00	8	Radiación solar	0
120985	7	Sololá	702	San José Chacayá	5	Chacayá	9	Septiembre	2023-09-23T00:00:00	2024-11-06T04:00:00	2	Temperatura media	10.7
120986	7	Sololá	702	San José Chacayá	5	Chacayá	9	Septiembre	2023-09-23T00:00:00	2024-11-06T04:00:00	4	Temperatura máxima	10.9
120987	7	Sololá	702	San José Chacayá	5	Chacayá	9	Septiembre	2023-09-23T00:00:00	2024-11-06T04:00:00	3	Temperatura mínima	10.7
120988	7	Sololá	702	San José Chacayá	5	Chacayá	9	Septiembre	2023-09-23T00:00:00	2024-11-06T04:00:00	5	Humedad	93
120989	7	Sololá	702	San José Chacayá	5	Chacayá	9	Septiembre	2023-09-23T00:00:00	2024-11-06T04:00:00	6	Velocidad del viento	1.6
120990	7	Sololá	702	San José Chacayá	5	Chacayá	9	Septiembre	2023-09-23T00:00:00	2024-11-06T04:00:00	7	Dirección del viento	0.8
120991	7	Sololá	702	San José Chacayá	5	Chacayá	9	Septiembre	2023-09-23T00:00:00	2024-11-06T04:00:00	1	Precipitación	0
120992	7	Sololá	702	San José Chacayá	5	Chacayá	9	Septiembre	2023-09-23T00:00:00	2024-11-06T04:00:00	8	Radiación solar	0
120993	7	Sololá	702	San José Chacayá	5	Chacayá	9	Septiembre	2023-09-23T00:00:00	2024-11-06T05:00:00	2	Temperatura media	10.3
120994	7	Sololá	702	San José Chacayá	5	Chacayá	9	Septiembre	2023-09-23T00:00:00	2024-11-06T05:00:00	4	Temperatura máxima	10.6
120995	7	Sololá	702	San José Chacayá	5	Chacayá	9	Septiembre	2023-09-23T00:00:00	2024-11-06T05:00:00	3	Temperatura mínima	10.3
120996	7	Sololá	702	San José Chacayá	5	Chacayá	9	Septiembre	2023-09-23T00:00:00	2024-11-06T05:00:00	5	Humedad	93
120997	7	Sololá	702	San José Chacayá	5	Chacayá	9	Septiembre	2023-09-23T00:00:00	2024-11-06T05:00:00	6	Velocidad del viento	0
120998	7	Sololá	702	San José Chacayá	5	Chacayá	9	Septiembre	2023-09-23T00:00:00	2024-11-06T05:00:00	7	Dirección del viento	0
120999	7	Sololá	702	San José Chacayá	5	Chacayá	9	Septiembre	2023-09-23T00:00:00	2024-11-06T05:00:00	1	Precipitación	0
121000	7	Sololá	702	San José Chacayá	5	Chacayá	9	Septiembre	2023-09-23T00:00:00	2024-11-06T05:00:00	8	Radiación solar	0
121001	7	Sololá	702	San José Chacayá	5	Chacayá	9	Septiembre	2023-09-23T00:00:00	2024-11-06T06:00:00	2	Temperatura media	10.1
121002	7	Sololá	702	San José Chacayá	5	Chacayá	9	Septiembre	2023-09-23T00:00:00	2024-11-06T06:00:00	4	Temperatura máxima	10.2
121003	7	Sololá	702	San José Chacayá	5	Chacayá	9	Septiembre	2023-09-23T00:00:00	2024-11-06T06:00:00	3	Temperatura mínima	10.1
121004	7	Sololá	702	San José Chacayá	5	Chacayá	9	Septiembre	2023-09-23T00:00:00	2024-11-06T06:00:00	5	Humedad	92
121005	7	Sololá	702	San José Chacayá	5	Chacayá	9	Septiembre	2023-09-23T00:00:00	2024-11-06T06:00:00	6	Velocidad del viento	1.6
121006	7	Sololá	702	San José Chacayá	5	Chacayá	9	Septiembre	2023-09-23T00:00:00	2024-11-06T06:00:00	7	Dirección del viento	0.8
121007	7	Sololá	702	San José Chacayá	5	Chacayá	9	Septiembre	2023-09-23T00:00:00	2024-11-06T06:00:00	1	Precipitación	0
121008	7	Sololá	702	San José Chacayá	5	Chacayá	9	Septiembre	2023-09-23T00:00:00	2024-11-06T06:00:00	8	Radiación solar	1
121009	7	Sololá	702	San José Chacayá	5	Chacayá	9	Septiembre	2023-09-23T00:00:00	2024-11-06T07:00:00	2	Temperatura media	11.2
121010	7	Sololá	702	San José Chacayá	5	Chacayá	9	Septiembre	2023-09-23T00:00:00	2024-11-06T07:00:00	4	Temperatura máxima	11.2
121011	7	Sololá	702	San José Chacayá	5	Chacayá	9	Septiembre	2023-09-23T00:00:00	2024-11-06T07:00:00	3	Temperatura mínima	10.2
121012	7	Sololá	702	San José Chacayá	5	Chacayá	9	Septiembre	2023-09-23T00:00:00	2024-11-06T07:00:00	5	Humedad	93
121013	7	Sololá	702	San José Chacayá	5	Chacayá	9	Septiembre	2023-09-23T00:00:00	2024-11-06T07:00:00	6	Velocidad del viento	1.6
121014	7	Sololá	702	San José Chacayá	5	Chacayá	9	Septiembre	2023-09-23T00:00:00	2024-11-06T07:00:00	7	Dirección del viento	0.8
121015	7	Sololá	702	San José Chacayá	5	Chacayá	9	Septiembre	2023-09-23T00:00:00	2024-11-06T07:00:00	1	Precipitación	0
121016	7	Sololá	702	San José Chacayá	5	Chacayá	9	Septiembre	2023-09-23T00:00:00	2024-11-06T07:00:00	8	Radiación solar	45
121017	7	Sololá	702	San José Chacayá	5	Chacayá	9	Septiembre	2023-09-23T00:00:00	2024-11-06T08:00:00	2	Temperatura media	15.9
121018	7	Sololá	702	San José Chacayá	5	Chacayá	9	Septiembre	2023-09-23T00:00:00	2024-11-06T08:00:00	4	Temperatura máxima	15.9
121019	7	Sololá	702	San José Chacayá	5	Chacayá	9	Septiembre	2023-09-23T00:00:00	2024-11-06T08:00:00	3	Temperatura mínima	13.3
121020	7	Sololá	702	San José Chacayá	5	Chacayá	9	Septiembre	2023-09-23T00:00:00	2024-11-06T08:00:00	5	Humedad	77
121021	7	Sololá	702	San José Chacayá	5	Chacayá	9	Septiembre	2023-09-23T00:00:00	2024-11-06T08:00:00	6	Velocidad del viento	1.6
121022	7	Sololá	702	San José Chacayá	5	Chacayá	9	Septiembre	2023-09-23T00:00:00	2024-11-06T08:00:00	7	Dirección del viento	0.8
121023	7	Sololá	702	San José Chacayá	5	Chacayá	9	Septiembre	2023-09-23T00:00:00	2024-11-06T08:00:00	1	Precipitación	0
121024	7	Sololá	702	San José Chacayá	5	Chacayá	9	Septiembre	2023-09-23T00:00:00	2024-11-06T08:00:00	8	Radiación solar	198
121025	7	Sololá	702	San José Chacayá	5	Chacayá	9	Septiembre	2023-09-23T00:00:00	2024-11-06T09:00:00	2	Temperatura media	20.7
121026	7	Sololá	702	San José Chacayá	5	Chacayá	9	Septiembre	2023-09-23T00:00:00	2024-11-06T09:00:00	4	Temperatura máxima	20.7
121027	7	Sololá	702	San José Chacayá	5	Chacayá	9	Septiembre	2023-09-23T00:00:00	2024-11-06T09:00:00	3	Temperatura mínima	18.9
121028	7	Sololá	702	San José Chacayá	5	Chacayá	9	Septiembre	2023-09-23T00:00:00	2024-11-06T09:00:00	5	Humedad	61
121029	7	Sololá	702	San José Chacayá	5	Chacayá	9	Septiembre	2023-09-23T00:00:00	2024-11-06T09:00:00	6	Velocidad del viento	4.8
121030	7	Sololá	702	San José Chacayá	5	Chacayá	9	Septiembre	2023-09-23T00:00:00	2024-11-06T09:00:00	7	Dirección del viento	2.41
121031	7	Sololá	702	San José Chacayá	5	Chacayá	9	Septiembre	2023-09-23T00:00:00	2024-11-06T09:00:00	1	Precipitación	0
121032	7	Sololá	702	San José Chacayá	5	Chacayá	9	Septiembre	2023-09-23T00:00:00	2024-11-06T09:00:00	8	Radiación solar	454
121033	7	Sololá	702	San José Chacayá	5	Chacayá	9	Septiembre	2023-09-23T00:00:00	2024-11-06T10:00:00	2	Temperatura media	21.6
121034	7	Sololá	702	San José Chacayá	5	Chacayá	9	Septiembre	2023-09-23T00:00:00	2024-11-06T10:00:00	4	Temperatura máxima	22.7
121035	7	Sololá	702	San José Chacayá	5	Chacayá	9	Septiembre	2023-09-23T00:00:00	2024-11-06T10:00:00	3	Temperatura mínima	21.6
121036	7	Sololá	702	San José Chacayá	5	Chacayá	9	Septiembre	2023-09-23T00:00:00	2024-11-06T10:00:00	5	Humedad	54
121037	7	Sololá	702	San José Chacayá	5	Chacayá	9	Septiembre	2023-09-23T00:00:00	2024-11-06T10:00:00	6	Velocidad del viento	4.8
121038	7	Sololá	702	San José Chacayá	5	Chacayá	9	Septiembre	2023-09-23T00:00:00	2024-11-06T10:00:00	7	Dirección del viento	2.41
121039	7	Sololá	702	San José Chacayá	5	Chacayá	9	Septiembre	2023-09-23T00:00:00	2024-11-06T10:00:00	1	Precipitación	0
121040	7	Sololá	702	San José Chacayá	5	Chacayá	9	Septiembre	2023-09-23T00:00:00	2024-11-06T10:00:00	8	Radiación solar	687
121041	7	Sololá	702	San José Chacayá	5	Chacayá	9	Septiembre	2023-09-23T00:00:00	2024-11-06T11:00:00	2	Temperatura media	22.7
121042	7	Sololá	702	San José Chacayá	5	Chacayá	9	Septiembre	2023-09-23T00:00:00	2024-11-06T11:00:00	4	Temperatura máxima	22.7
121043	7	Sololá	702	San José Chacayá	5	Chacayá	9	Septiembre	2023-09-23T00:00:00	2024-11-06T11:00:00	3	Temperatura mínima	21.9
121044	7	Sololá	702	San José Chacayá	5	Chacayá	9	Septiembre	2023-09-23T00:00:00	2024-11-06T11:00:00	5	Humedad	53
121045	7	Sololá	702	San José Chacayá	5	Chacayá	9	Septiembre	2023-09-23T00:00:00	2024-11-06T11:00:00	6	Velocidad del viento	6.4
121046	7	Sololá	702	San José Chacayá	5	Chacayá	9	Septiembre	2023-09-23T00:00:00	2024-11-06T11:00:00	7	Dirección del viento	3.22
121047	7	Sololá	702	San José Chacayá	5	Chacayá	9	Septiembre	2023-09-23T00:00:00	2024-11-06T11:00:00	1	Precipitación	0
121048	7	Sololá	702	San José Chacayá	5	Chacayá	9	Septiembre	2023-09-23T00:00:00	2024-11-06T11:00:00	8	Radiación solar	875
121049	7	Sololá	702	San José Chacayá	5	Chacayá	9	Septiembre	2023-09-23T00:00:00	2024-11-06T12:00:00	2	Temperatura media	23.6
121050	7	Sololá	702	San José Chacayá	5	Chacayá	9	Septiembre	2023-09-23T00:00:00	2024-11-06T12:00:00	4	Temperatura máxima	23.6
121051	7	Sololá	702	San José Chacayá	5	Chacayá	9	Septiembre	2023-09-23T00:00:00	2024-11-06T12:00:00	3	Temperatura mínima	23.1
121052	7	Sololá	702	San José Chacayá	5	Chacayá	9	Septiembre	2023-09-23T00:00:00	2024-11-06T12:00:00	5	Humedad	52
121053	7	Sololá	702	San José Chacayá	5	Chacayá	9	Septiembre	2023-09-23T00:00:00	2024-11-06T12:00:00	6	Velocidad del viento	4.8
121054	7	Sololá	702	San José Chacayá	5	Chacayá	9	Septiembre	2023-09-23T00:00:00	2024-11-06T12:00:00	7	Dirección del viento	2.41
121055	7	Sololá	702	San José Chacayá	5	Chacayá	9	Septiembre	2023-09-23T00:00:00	2024-11-06T12:00:00	1	Precipitación	0
121056	7	Sololá	702	San José Chacayá	5	Chacayá	9	Septiembre	2023-09-23T00:00:00	2024-11-06T12:00:00	8	Radiación solar	939
121057	7	Sololá	702	San José Chacayá	5	Chacayá	9	Septiembre	2023-09-23T00:00:00	2024-11-06T13:00:00	2	Temperatura media	24.4
121058	7	Sololá	702	San José Chacayá	5	Chacayá	9	Septiembre	2023-09-23T00:00:00	2024-11-06T13:00:00	4	Temperatura máxima	25
121059	7	Sololá	702	San José Chacayá	5	Chacayá	9	Septiembre	2023-09-23T00:00:00	2024-11-06T13:00:00	3	Temperatura mínima	23.5
121060	7	Sololá	702	San José Chacayá	5	Chacayá	9	Septiembre	2023-09-23T00:00:00	2024-11-06T13:00:00	5	Humedad	56
121061	7	Sololá	702	San José Chacayá	5	Chacayá	9	Septiembre	2023-09-23T00:00:00	2024-11-06T13:00:00	6	Velocidad del viento	4.8
121062	7	Sololá	702	San José Chacayá	5	Chacayá	9	Septiembre	2023-09-23T00:00:00	2024-11-06T13:00:00	7	Dirección del viento	2.41
121063	7	Sololá	702	San José Chacayá	5	Chacayá	9	Septiembre	2023-09-23T00:00:00	2024-11-06T13:00:00	1	Precipitación	0
121064	7	Sololá	702	San José Chacayá	5	Chacayá	9	Septiembre	2023-09-23T00:00:00	2024-11-06T13:00:00	8	Radiación solar	875
121065	7	Sololá	702	San José Chacayá	5	Chacayá	9	Septiembre	2023-09-23T00:00:00	2024-11-06T14:00:00	2	Temperatura media	24.8
121066	7	Sololá	702	San José Chacayá	5	Chacayá	9	Septiembre	2023-09-23T00:00:00	2024-11-06T14:00:00	4	Temperatura máxima	25.1
121067	7	Sololá	702	San José Chacayá	5	Chacayá	9	Septiembre	2023-09-23T00:00:00	2024-11-06T14:00:00	3	Temperatura mínima	24
121068	7	Sololá	702	San José Chacayá	5	Chacayá	9	Septiembre	2023-09-23T00:00:00	2024-11-06T14:00:00	5	Humedad	60
121069	7	Sololá	702	San José Chacayá	5	Chacayá	9	Septiembre	2023-09-23T00:00:00	2024-11-06T14:00:00	6	Velocidad del viento	4.8
121070	7	Sololá	702	San José Chacayá	5	Chacayá	9	Septiembre	2023-09-23T00:00:00	2024-11-06T14:00:00	7	Dirección del viento	2.41
121071	7	Sololá	702	San José Chacayá	5	Chacayá	9	Septiembre	2023-09-23T00:00:00	2024-11-06T14:00:00	1	Precipitación	0
121072	7	Sololá	702	San José Chacayá	5	Chacayá	9	Septiembre	2023-09-23T00:00:00	2024-11-06T14:00:00	8	Radiación solar	871
121073	7	Sololá	702	San José Chacayá	5	Chacayá	9	Septiembre	2023-09-23T00:00:00	2024-11-06T15:00:00	2	Temperatura media	21.7
121074	7	Sololá	702	San José Chacayá	5	Chacayá	9	Septiembre	2023-09-23T00:00:00	2024-11-06T15:00:00	4	Temperatura máxima	24.4
121075	7	Sololá	702	San José Chacayá	5	Chacayá	9	Septiembre	2023-09-23T00:00:00	2024-11-06T15:00:00	3	Temperatura mínima	21.7
121076	7	Sololá	702	San José Chacayá	5	Chacayá	9	Septiembre	2023-09-23T00:00:00	2024-11-06T15:00:00	5	Humedad	74
121077	7	Sololá	702	San José Chacayá	5	Chacayá	9	Septiembre	2023-09-23T00:00:00	2024-11-06T15:00:00	6	Velocidad del viento	6.4
121078	7	Sololá	702	San José Chacayá	5	Chacayá	9	Septiembre	2023-09-23T00:00:00	2024-11-06T15:00:00	7	Dirección del viento	3.22
121079	7	Sololá	702	San José Chacayá	5	Chacayá	9	Septiembre	2023-09-23T00:00:00	2024-11-06T15:00:00	1	Precipitación	0
121080	7	Sololá	702	San José Chacayá	5	Chacayá	9	Septiembre	2023-09-23T00:00:00	2024-11-06T15:00:00	8	Radiación solar	557
121081	7	Sololá	702	San José Chacayá	5	Chacayá	9	Septiembre	2023-09-23T00:00:00	2024-11-06T16:00:00	2	Temperatura media	20.9
121082	7	Sololá	702	San José Chacayá	5	Chacayá	9	Septiembre	2023-09-23T00:00:00	2024-11-06T16:00:00	4	Temperatura máxima	21.3
121083	7	Sololá	702	San José Chacayá	5	Chacayá	9	Septiembre	2023-09-23T00:00:00	2024-11-06T16:00:00	3	Temperatura mínima	20.4
121084	7	Sololá	702	San José Chacayá	5	Chacayá	9	Septiembre	2023-09-23T00:00:00	2024-11-06T16:00:00	5	Humedad	75
121085	7	Sololá	702	San José Chacayá	5	Chacayá	9	Septiembre	2023-09-23T00:00:00	2024-11-06T16:00:00	6	Velocidad del viento	4.8
121086	7	Sololá	702	San José Chacayá	5	Chacayá	9	Septiembre	2023-09-23T00:00:00	2024-11-06T16:00:00	7	Dirección del viento	2.41
121087	7	Sololá	702	San José Chacayá	5	Chacayá	9	Septiembre	2023-09-23T00:00:00	2024-11-06T16:00:00	1	Precipitación	0
121088	7	Sololá	702	San José Chacayá	5	Chacayá	9	Septiembre	2023-09-23T00:00:00	2024-11-06T16:00:00	8	Radiación solar	474
121089	7	Sololá	702	San José Chacayá	5	Chacayá	9	Septiembre	2023-09-23T00:00:00	2024-11-06T17:00:00	2	Temperatura media	19.4
121090	7	Sololá	702	San José Chacayá	5	Chacayá	9	Septiembre	2023-09-23T00:00:00	2024-11-06T17:00:00	4	Temperatura máxima	20.1
121091	7	Sololá	702	San José Chacayá	5	Chacayá	9	Septiembre	2023-09-23T00:00:00	2024-11-06T17:00:00	3	Temperatura mínima	19.4
121092	7	Sololá	702	San José Chacayá	5	Chacayá	9	Septiembre	2023-09-23T00:00:00	2024-11-06T17:00:00	5	Humedad	82
121093	7	Sololá	702	San José Chacayá	5	Chacayá	9	Septiembre	2023-09-23T00:00:00	2024-11-06T17:00:00	6	Velocidad del viento	1.6
121094	7	Sololá	702	San José Chacayá	5	Chacayá	9	Septiembre	2023-09-23T00:00:00	2024-11-06T17:00:00	7	Dirección del viento	0.8
121095	7	Sololá	702	San José Chacayá	5	Chacayá	9	Septiembre	2023-09-23T00:00:00	2024-11-06T17:00:00	1	Precipitación	0
121096	7	Sololá	702	San José Chacayá	5	Chacayá	9	Septiembre	2023-09-23T00:00:00	2024-11-06T17:00:00	8	Radiación solar	213
121097	7	Sololá	702	San José Chacayá	5	Chacayá	9	Septiembre	2023-09-23T00:00:00	2024-11-06T18:00:00	2	Temperatura media	17.7
121098	7	Sololá	702	San José Chacayá	5	Chacayá	9	Septiembre	2023-09-23T00:00:00	2024-11-06T18:00:00	4	Temperatura máxima	18.8
121099	7	Sololá	702	San José Chacayá	5	Chacayá	9	Septiembre	2023-09-23T00:00:00	2024-11-06T18:00:00	3	Temperatura mínima	17.7
121100	7	Sololá	702	San José Chacayá	5	Chacayá	9	Septiembre	2023-09-23T00:00:00	2024-11-06T18:00:00	5	Humedad	88
121101	7	Sololá	702	San José Chacayá	5	Chacayá	9	Septiembre	2023-09-23T00:00:00	2024-11-06T18:00:00	6	Velocidad del viento	0
121102	7	Sololá	702	San José Chacayá	5	Chacayá	9	Septiembre	2023-09-23T00:00:00	2024-11-06T18:00:00	7	Dirección del viento	0
121103	7	Sololá	702	San José Chacayá	5	Chacayá	9	Septiembre	2023-09-23T00:00:00	2024-11-06T18:00:00	1	Precipitación	0
121104	7	Sololá	702	San José Chacayá	5	Chacayá	9	Septiembre	2023-09-23T00:00:00	2024-11-06T18:00:00	8	Radiación solar	45
121105	7	Sololá	702	San José Chacayá	5	Chacayá	9	Septiembre	2023-09-23T00:00:00	2024-11-06T19:00:00	2	Temperatura media	16.5
121106	7	Sololá	702	San José Chacayá	5	Chacayá	9	Septiembre	2023-09-23T00:00:00	2024-11-06T19:00:00	4	Temperatura máxima	16.9
121107	7	Sololá	702	San José Chacayá	5	Chacayá	9	Septiembre	2023-09-23T00:00:00	2024-11-06T19:00:00	3	Temperatura mínima	16.5
121108	7	Sololá	702	San José Chacayá	5	Chacayá	9	Septiembre	2023-09-23T00:00:00	2024-11-06T19:00:00	5	Humedad	91
121109	7	Sololá	702	San José Chacayá	5	Chacayá	9	Septiembre	2023-09-23T00:00:00	2024-11-06T19:00:00	6	Velocidad del viento	0
121110	7	Sololá	702	San José Chacayá	5	Chacayá	9	Septiembre	2023-09-23T00:00:00	2024-11-06T19:00:00	7	Dirección del viento	0
121111	7	Sololá	702	San José Chacayá	5	Chacayá	9	Septiembre	2023-09-23T00:00:00	2024-11-06T19:00:00	1	Precipitación	0
121112	7	Sololá	702	San José Chacayá	5	Chacayá	9	Septiembre	2023-09-23T00:00:00	2024-11-06T19:00:00	8	Radiación solar	0
121113	7	Sololá	702	San José Chacayá	5	Chacayá	9	Septiembre	2023-09-23T00:00:00	2024-11-06T20:00:00	2	Temperatura media	16.2
121114	7	Sololá	702	San José Chacayá	5	Chacayá	9	Septiembre	2023-09-23T00:00:00	2024-11-06T20:00:00	4	Temperatura máxima	16.2
121115	7	Sololá	702	San José Chacayá	5	Chacayá	9	Septiembre	2023-09-23T00:00:00	2024-11-06T20:00:00	3	Temperatura mínima	16.1
121116	7	Sololá	702	San José Chacayá	5	Chacayá	9	Septiembre	2023-09-23T00:00:00	2024-11-06T20:00:00	5	Humedad	91
121117	7	Sololá	702	San José Chacayá	5	Chacayá	9	Septiembre	2023-09-23T00:00:00	2024-11-06T20:00:00	6	Velocidad del viento	0
121118	7	Sololá	702	San José Chacayá	5	Chacayá	9	Septiembre	2023-09-23T00:00:00	2024-11-06T20:00:00	7	Dirección del viento	0
121119	7	Sololá	702	San José Chacayá	5	Chacayá	9	Septiembre	2023-09-23T00:00:00	2024-11-06T20:00:00	1	Precipitación	0.4
121120	7	Sololá	702	San José Chacayá	5	Chacayá	9	Septiembre	2023-09-23T00:00:00	2024-11-06T20:00:00	8	Radiación solar	0
121121	7	Sololá	702	San José Chacayá	5	Chacayá	9	Septiembre	2023-09-23T00:00:00	2024-11-06T21:00:00	2	Temperatura media	15.6
121122	7	Sololá	702	San José Chacayá	5	Chacayá	9	Septiembre	2023-09-23T00:00:00	2024-11-06T21:00:00	4	Temperatura máxima	15.9
121123	7	Sololá	702	San José Chacayá	5	Chacayá	9	Septiembre	2023-09-23T00:00:00	2024-11-06T21:00:00	3	Temperatura mínima	15.6
121124	7	Sololá	702	San José Chacayá	5	Chacayá	9	Septiembre	2023-09-23T00:00:00	2024-11-06T21:00:00	5	Humedad	92
121125	7	Sololá	702	San José Chacayá	5	Chacayá	9	Septiembre	2023-09-23T00:00:00	2024-11-06T21:00:00	6	Velocidad del viento	0
121126	7	Sololá	702	San José Chacayá	5	Chacayá	9	Septiembre	2023-09-23T00:00:00	2024-11-06T21:00:00	7	Dirección del viento	0
121127	7	Sololá	702	San José Chacayá	5	Chacayá	9	Septiembre	2023-09-23T00:00:00	2024-11-06T21:00:00	1	Precipitación	0
121128	7	Sololá	702	San José Chacayá	5	Chacayá	9	Septiembre	2023-09-23T00:00:00	2024-11-06T21:00:00	8	Radiación solar	0
121129	7	Sololá	702	San José Chacayá	5	Chacayá	9	Septiembre	2023-09-23T00:00:00	2024-11-06T22:00:00	2	Temperatura media	14.4
121130	7	Sololá	702	San José Chacayá	5	Chacayá	9	Septiembre	2023-09-23T00:00:00	2024-11-06T22:00:00	4	Temperatura máxima	14.9
121131	7	Sololá	702	San José Chacayá	5	Chacayá	9	Septiembre	2023-09-23T00:00:00	2024-11-06T22:00:00	3	Temperatura mínima	14.4
121132	7	Sololá	702	San José Chacayá	5	Chacayá	9	Septiembre	2023-09-23T00:00:00	2024-11-06T22:00:00	5	Humedad	92
121133	7	Sololá	702	San José Chacayá	5	Chacayá	9	Septiembre	2023-09-23T00:00:00	2024-11-06T22:00:00	6	Velocidad del viento	0
121134	7	Sololá	702	San José Chacayá	5	Chacayá	9	Septiembre	2023-09-23T00:00:00	2024-11-06T22:00:00	7	Dirección del viento	0
121135	7	Sololá	702	San José Chacayá	5	Chacayá	9	Septiembre	2023-09-23T00:00:00	2024-11-06T22:00:00	1	Precipitación	0
121136	7	Sololá	702	San José Chacayá	5	Chacayá	9	Septiembre	2023-09-23T00:00:00	2024-11-06T22:00:00	8	Radiación solar	0
121137	7	Sololá	702	San José Chacayá	5	Chacayá	9	Septiembre	2023-09-23T00:00:00	2024-11-06T23:00:00	2	Temperatura media	14.2
121138	7	Sololá	702	San José Chacayá	5	Chacayá	9	Septiembre	2023-09-23T00:00:00	2024-11-06T23:00:00	4	Temperatura máxima	14.3
121139	7	Sololá	702	San José Chacayá	5	Chacayá	9	Septiembre	2023-09-23T00:00:00	2024-11-06T23:00:00	3	Temperatura mínima	14.1
121140	7	Sololá	702	San José Chacayá	5	Chacayá	9	Septiembre	2023-09-23T00:00:00	2024-11-06T23:00:00	5	Humedad	94
121141	7	Sololá	702	San José Chacayá	5	Chacayá	9	Septiembre	2023-09-23T00:00:00	2024-11-06T23:00:00	6	Velocidad del viento	0
121142	7	Sololá	702	San José Chacayá	5	Chacayá	9	Septiembre	2023-09-23T00:00:00	2024-11-06T23:00:00	7	Dirección del viento	0
121143	7	Sololá	702	San José Chacayá	5	Chacayá	9	Septiembre	2023-09-23T00:00:00	2024-11-06T23:00:00	1	Precipitación	0
121144	7	Sololá	702	San José Chacayá	5	Chacayá	9	Septiembre	2023-09-23T00:00:00	2024-11-06T23:00:00	8	Radiación solar	0
121145	7	Sololá	702	San José Chacayá	5	Chacayá	9	Septiembre	2023-09-24T00:00:00	2024-11-06T00:00:00	2	Temperatura media	13.3
121146	7	Sololá	702	San José Chacayá	5	Chacayá	9	Septiembre	2023-09-24T00:00:00	2024-11-06T00:00:00	4	Temperatura máxima	13.8
121147	7	Sololá	702	San José Chacayá	5	Chacayá	9	Septiembre	2023-09-24T00:00:00	2024-11-06T00:00:00	3	Temperatura mínima	13.3
121148	7	Sololá	702	San José Chacayá	5	Chacayá	9	Septiembre	2023-09-24T00:00:00	2024-11-06T00:00:00	5	Humedad	93
121149	7	Sololá	702	San José Chacayá	5	Chacayá	9	Septiembre	2023-09-24T00:00:00	2024-11-06T00:00:00	6	Velocidad del viento	0
121150	7	Sololá	702	San José Chacayá	5	Chacayá	9	Septiembre	2023-09-24T00:00:00	2024-11-06T00:00:00	7	Dirección del viento	0
121151	7	Sololá	702	San José Chacayá	5	Chacayá	9	Septiembre	2023-09-24T00:00:00	2024-11-06T00:00:00	1	Precipitación	0.2
121152	7	Sololá	702	San José Chacayá	5	Chacayá	9	Septiembre	2023-09-24T00:00:00	2024-11-06T00:00:00	8	Radiación solar	0
121153	7	Sololá	702	San José Chacayá	5	Chacayá	9	Septiembre	2023-09-24T00:00:00	2024-11-06T01:00:00	2	Temperatura media	12.4
121154	7	Sololá	702	San José Chacayá	5	Chacayá	9	Septiembre	2023-09-24T00:00:00	2024-11-06T01:00:00	4	Temperatura máxima	12.7
121155	7	Sololá	702	San José Chacayá	5	Chacayá	9	Septiembre	2023-09-24T00:00:00	2024-11-06T01:00:00	3	Temperatura mínima	12.4
121156	7	Sololá	702	San José Chacayá	5	Chacayá	9	Septiembre	2023-09-24T00:00:00	2024-11-06T01:00:00	5	Humedad	94
121157	7	Sololá	702	San José Chacayá	5	Chacayá	9	Septiembre	2023-09-24T00:00:00	2024-11-06T01:00:00	6	Velocidad del viento	0
121158	7	Sololá	702	San José Chacayá	5	Chacayá	9	Septiembre	2023-09-24T00:00:00	2024-11-06T01:00:00	7	Dirección del viento	0
121159	7	Sololá	702	San José Chacayá	5	Chacayá	9	Septiembre	2023-09-24T00:00:00	2024-11-06T01:00:00	1	Precipitación	0
121160	7	Sololá	702	San José Chacayá	5	Chacayá	9	Septiembre	2023-09-24T00:00:00	2024-11-06T01:00:00	8	Radiación solar	0
121161	7	Sololá	702	San José Chacayá	5	Chacayá	9	Septiembre	2023-09-24T00:00:00	2024-11-06T02:00:00	2	Temperatura media	11.8
121162	7	Sololá	702	San José Chacayá	5	Chacayá	9	Septiembre	2023-09-24T00:00:00	2024-11-06T02:00:00	4	Temperatura máxima	11.9
121163	7	Sololá	702	San José Chacayá	5	Chacayá	9	Septiembre	2023-09-24T00:00:00	2024-11-06T02:00:00	3	Temperatura mínima	11.8
121164	7	Sololá	702	San José Chacayá	5	Chacayá	9	Septiembre	2023-09-24T00:00:00	2024-11-06T02:00:00	5	Humedad	93
121165	7	Sololá	702	San José Chacayá	5	Chacayá	9	Septiembre	2023-09-24T00:00:00	2024-11-06T02:00:00	6	Velocidad del viento	0
121166	7	Sololá	702	San José Chacayá	5	Chacayá	9	Septiembre	2023-09-24T00:00:00	2024-11-06T02:00:00	7	Dirección del viento	0
121167	7	Sololá	702	San José Chacayá	5	Chacayá	9	Septiembre	2023-09-24T00:00:00	2024-11-06T02:00:00	1	Precipitación	0
121168	7	Sololá	702	San José Chacayá	5	Chacayá	9	Septiembre	2023-09-24T00:00:00	2024-11-06T02:00:00	8	Radiación solar	0
121169	7	Sololá	702	San José Chacayá	5	Chacayá	9	Septiembre	2023-09-24T00:00:00	2024-11-06T03:00:00	2	Temperatura media	11.3
121170	7	Sololá	702	San José Chacayá	5	Chacayá	9	Septiembre	2023-09-24T00:00:00	2024-11-06T03:00:00	4	Temperatura máxima	11.5
121171	7	Sololá	702	San José Chacayá	5	Chacayá	9	Septiembre	2023-09-24T00:00:00	2024-11-06T03:00:00	3	Temperatura mínima	11.3
121172	7	Sololá	702	San José Chacayá	5	Chacayá	9	Septiembre	2023-09-24T00:00:00	2024-11-06T03:00:00	5	Humedad	94
121173	7	Sololá	702	San José Chacayá	5	Chacayá	9	Septiembre	2023-09-24T00:00:00	2024-11-06T03:00:00	6	Velocidad del viento	1.6
121174	7	Sololá	702	San José Chacayá	5	Chacayá	9	Septiembre	2023-09-24T00:00:00	2024-11-06T03:00:00	7	Dirección del viento	0.8
121175	7	Sololá	702	San José Chacayá	5	Chacayá	9	Septiembre	2023-09-24T00:00:00	2024-11-06T03:00:00	1	Precipitación	0
121176	7	Sololá	702	San José Chacayá	5	Chacayá	9	Septiembre	2023-09-24T00:00:00	2024-11-06T03:00:00	8	Radiación solar	0
121177	7	Sololá	702	San José Chacayá	5	Chacayá	9	Septiembre	2023-09-24T00:00:00	2024-11-06T04:00:00	2	Temperatura media	10.9
121178	7	Sololá	702	San José Chacayá	5	Chacayá	9	Septiembre	2023-09-24T00:00:00	2024-11-06T04:00:00	4	Temperatura máxima	11.1
121179	7	Sololá	702	San José Chacayá	5	Chacayá	9	Septiembre	2023-09-24T00:00:00	2024-11-06T04:00:00	3	Temperatura mínima	10.9
121180	7	Sololá	702	San José Chacayá	5	Chacayá	9	Septiembre	2023-09-24T00:00:00	2024-11-06T04:00:00	5	Humedad	94
121181	7	Sololá	702	San José Chacayá	5	Chacayá	9	Septiembre	2023-09-24T00:00:00	2024-11-06T04:00:00	6	Velocidad del viento	1.6
121182	7	Sololá	702	San José Chacayá	5	Chacayá	9	Septiembre	2023-09-24T00:00:00	2024-11-06T04:00:00	7	Dirección del viento	0.8
121183	7	Sololá	702	San José Chacayá	5	Chacayá	9	Septiembre	2023-09-24T00:00:00	2024-11-06T04:00:00	1	Precipitación	0
121184	7	Sololá	702	San José Chacayá	5	Chacayá	9	Septiembre	2023-09-24T00:00:00	2024-11-06T04:00:00	8	Radiación solar	0
121185	7	Sololá	702	San José Chacayá	5	Chacayá	9	Septiembre	2023-09-24T00:00:00	2024-11-06T05:00:00	2	Temperatura media	10.6
121186	7	Sololá	702	San José Chacayá	5	Chacayá	9	Septiembre	2023-09-24T00:00:00	2024-11-06T05:00:00	4	Temperatura máxima	10.7
121187	7	Sololá	702	San José Chacayá	5	Chacayá	9	Septiembre	2023-09-24T00:00:00	2024-11-06T05:00:00	3	Temperatura mínima	10.6
121188	7	Sololá	702	San José Chacayá	5	Chacayá	9	Septiembre	2023-09-24T00:00:00	2024-11-06T05:00:00	5	Humedad	94
121189	7	Sololá	702	San José Chacayá	5	Chacayá	9	Septiembre	2023-09-24T00:00:00	2024-11-06T05:00:00	6	Velocidad del viento	0
121190	7	Sololá	702	San José Chacayá	5	Chacayá	9	Septiembre	2023-09-24T00:00:00	2024-11-06T05:00:00	7	Dirección del viento	0
121191	7	Sololá	702	San José Chacayá	5	Chacayá	9	Septiembre	2023-09-24T00:00:00	2024-11-06T05:00:00	1	Precipitación	0
121192	7	Sololá	702	San José Chacayá	5	Chacayá	9	Septiembre	2023-09-24T00:00:00	2024-11-06T05:00:00	8	Radiación solar	0
121193	7	Sololá	702	San José Chacayá	5	Chacayá	9	Septiembre	2023-09-24T00:00:00	2024-11-06T06:00:00	2	Temperatura media	10.6
121194	7	Sololá	702	San José Chacayá	5	Chacayá	9	Septiembre	2023-09-24T00:00:00	2024-11-06T06:00:00	4	Temperatura máxima	10.7
121195	7	Sololá	702	San José Chacayá	5	Chacayá	9	Septiembre	2023-09-24T00:00:00	2024-11-06T06:00:00	3	Temperatura mínima	10.6
121196	7	Sololá	702	San José Chacayá	5	Chacayá	9	Septiembre	2023-09-24T00:00:00	2024-11-06T06:00:00	5	Humedad	93
121197	7	Sololá	702	San José Chacayá	5	Chacayá	9	Septiembre	2023-09-24T00:00:00	2024-11-06T06:00:00	6	Velocidad del viento	1.6
121198	7	Sololá	702	San José Chacayá	5	Chacayá	9	Septiembre	2023-09-24T00:00:00	2024-11-06T06:00:00	7	Dirección del viento	0.8
121199	7	Sololá	702	San José Chacayá	5	Chacayá	9	Septiembre	2023-09-24T00:00:00	2024-11-06T06:00:00	1	Precipitación	0
121200	7	Sololá	702	San José Chacayá	5	Chacayá	9	Septiembre	2023-09-24T00:00:00	2024-11-06T06:00:00	8	Radiación solar	1
121201	7	Sololá	702	San José Chacayá	5	Chacayá	9	Septiembre	2023-09-24T00:00:00	2024-11-06T07:00:00	2	Temperatura media	12.2
121202	7	Sololá	702	San José Chacayá	5	Chacayá	9	Septiembre	2023-09-24T00:00:00	2024-11-06T07:00:00	4	Temperatura máxima	12.2
121203	7	Sololá	702	San José Chacayá	5	Chacayá	9	Septiembre	2023-09-24T00:00:00	2024-11-06T07:00:00	3	Temperatura mínima	11.1
121204	7	Sololá	702	San José Chacayá	5	Chacayá	9	Septiembre	2023-09-24T00:00:00	2024-11-06T07:00:00	5	Humedad	94
121205	7	Sololá	702	San José Chacayá	5	Chacayá	9	Septiembre	2023-09-24T00:00:00	2024-11-06T07:00:00	6	Velocidad del viento	1.6
121206	7	Sololá	702	San José Chacayá	5	Chacayá	9	Septiembre	2023-09-24T00:00:00	2024-11-06T07:00:00	7	Dirección del viento	0.8
121207	7	Sololá	702	San José Chacayá	5	Chacayá	9	Septiembre	2023-09-24T00:00:00	2024-11-06T07:00:00	1	Precipitación	0
121208	7	Sololá	702	San José Chacayá	5	Chacayá	9	Septiembre	2023-09-24T00:00:00	2024-11-06T07:00:00	8	Radiación solar	60
121209	7	Sololá	702	San José Chacayá	5	Chacayá	9	Septiembre	2023-09-24T00:00:00	2024-11-06T08:00:00	2	Temperatura media	14.7
121210	7	Sololá	702	San José Chacayá	5	Chacayá	9	Septiembre	2023-09-24T00:00:00	2024-11-06T08:00:00	4	Temperatura máxima	14.7
121211	7	Sololá	702	San José Chacayá	5	Chacayá	9	Septiembre	2023-09-24T00:00:00	2024-11-06T08:00:00	3	Temperatura mínima	13.9
121212	7	Sololá	702	San José Chacayá	5	Chacayá	9	Septiembre	2023-09-24T00:00:00	2024-11-06T08:00:00	5	Humedad	90
121213	7	Sololá	702	San José Chacayá	5	Chacayá	9	Septiembre	2023-09-24T00:00:00	2024-11-06T08:00:00	6	Velocidad del viento	1.6
121214	7	Sololá	702	San José Chacayá	5	Chacayá	9	Septiembre	2023-09-24T00:00:00	2024-11-06T08:00:00	7	Dirección del viento	0.8
121215	7	Sololá	702	San José Chacayá	5	Chacayá	9	Septiembre	2023-09-24T00:00:00	2024-11-06T08:00:00	1	Precipitación	0
121216	7	Sololá	702	San José Chacayá	5	Chacayá	9	Septiembre	2023-09-24T00:00:00	2024-11-06T08:00:00	8	Radiación solar	192
121217	7	Sololá	702	San José Chacayá	5	Chacayá	9	Septiembre	2023-09-24T00:00:00	2024-11-06T09:00:00	2	Temperatura media	17.3
121218	7	Sololá	702	San José Chacayá	5	Chacayá	9	Septiembre	2023-09-24T00:00:00	2024-11-06T09:00:00	4	Temperatura máxima	17.3
121219	7	Sololá	702	San José Chacayá	5	Chacayá	9	Septiembre	2023-09-24T00:00:00	2024-11-06T09:00:00	3	Temperatura mínima	15.9
121220	7	Sololá	702	San José Chacayá	5	Chacayá	9	Septiembre	2023-09-24T00:00:00	2024-11-06T09:00:00	5	Humedad	78
121221	7	Sololá	702	San José Chacayá	5	Chacayá	9	Septiembre	2023-09-24T00:00:00	2024-11-06T09:00:00	6	Velocidad del viento	0
121222	7	Sololá	702	San José Chacayá	5	Chacayá	9	Septiembre	2023-09-24T00:00:00	2024-11-06T09:00:00	7	Dirección del viento	0
121223	7	Sololá	702	San José Chacayá	5	Chacayá	9	Septiembre	2023-09-24T00:00:00	2024-11-06T09:00:00	1	Precipitación	0
121224	7	Sololá	702	San José Chacayá	5	Chacayá	9	Septiembre	2023-09-24T00:00:00	2024-11-06T09:00:00	8	Radiación solar	554
121225	7	Sololá	702	San José Chacayá	5	Chacayá	9	Septiembre	2023-09-24T00:00:00	2024-11-06T10:00:00	2	Temperatura media	21.8
121226	7	Sololá	702	San José Chacayá	5	Chacayá	9	Septiembre	2023-09-24T00:00:00	2024-11-06T10:00:00	4	Temperatura máxima	21.9
121227	7	Sololá	702	San José Chacayá	5	Chacayá	9	Septiembre	2023-09-24T00:00:00	2024-11-06T10:00:00	3	Temperatura mínima	19
121228	7	Sololá	702	San José Chacayá	5	Chacayá	9	Septiembre	2023-09-24T00:00:00	2024-11-06T10:00:00	5	Humedad	56
121229	7	Sololá	702	San José Chacayá	5	Chacayá	9	Septiembre	2023-09-24T00:00:00	2024-11-06T10:00:00	6	Velocidad del viento	1.6
121230	7	Sololá	702	San José Chacayá	5	Chacayá	9	Septiembre	2023-09-24T00:00:00	2024-11-06T10:00:00	7	Dirección del viento	0.8
121231	7	Sololá	702	San José Chacayá	5	Chacayá	9	Septiembre	2023-09-24T00:00:00	2024-11-06T10:00:00	1	Precipitación	0
121232	7	Sololá	702	San José Chacayá	5	Chacayá	9	Septiembre	2023-09-24T00:00:00	2024-11-06T10:00:00	8	Radiación solar	807
121233	7	Sololá	702	San José Chacayá	5	Chacayá	9	Septiembre	2023-09-24T00:00:00	2024-11-06T11:00:00	2	Temperatura media	20.9
121234	7	Sololá	702	San José Chacayá	5	Chacayá	9	Septiembre	2023-09-24T00:00:00	2024-11-06T11:00:00	4	Temperatura máxima	22.5
121235	7	Sololá	702	San José Chacayá	5	Chacayá	9	Septiembre	2023-09-24T00:00:00	2024-11-06T11:00:00	3	Temperatura mínima	20.9
121236	7	Sololá	702	San José Chacayá	5	Chacayá	9	Septiembre	2023-09-24T00:00:00	2024-11-06T11:00:00	5	Humedad	65
121237	7	Sololá	702	San José Chacayá	5	Chacayá	9	Septiembre	2023-09-24T00:00:00	2024-11-06T11:00:00	6	Velocidad del viento	6.4
121238	7	Sololá	702	San José Chacayá	5	Chacayá	9	Septiembre	2023-09-24T00:00:00	2024-11-06T11:00:00	7	Dirección del viento	3.22
121239	7	Sololá	702	San José Chacayá	5	Chacayá	9	Septiembre	2023-09-24T00:00:00	2024-11-06T11:00:00	1	Precipitación	0
121240	7	Sololá	702	San José Chacayá	5	Chacayá	9	Septiembre	2023-09-24T00:00:00	2024-11-06T11:00:00	8	Radiación solar	957
121241	7	Sololá	702	San José Chacayá	5	Chacayá	9	Septiembre	2023-09-24T00:00:00	2024-11-06T12:00:00	2	Temperatura media	20.8
121242	7	Sololá	702	San José Chacayá	5	Chacayá	9	Septiembre	2023-09-24T00:00:00	2024-11-06T12:00:00	4	Temperatura máxima	21.6
121243	7	Sololá	702	San José Chacayá	5	Chacayá	9	Septiembre	2023-09-24T00:00:00	2024-11-06T12:00:00	3	Temperatura mínima	20.7
121244	7	Sololá	702	San José Chacayá	5	Chacayá	9	Septiembre	2023-09-24T00:00:00	2024-11-06T12:00:00	5	Humedad	72
121245	7	Sololá	702	San José Chacayá	5	Chacayá	9	Septiembre	2023-09-24T00:00:00	2024-11-06T12:00:00	6	Velocidad del viento	8
121246	7	Sololá	702	San José Chacayá	5	Chacayá	9	Septiembre	2023-09-24T00:00:00	2024-11-06T12:00:00	7	Dirección del viento	4.02
121247	7	Sololá	702	San José Chacayá	5	Chacayá	9	Septiembre	2023-09-24T00:00:00	2024-11-06T12:00:00	1	Precipitación	0
121248	7	Sololá	702	San José Chacayá	5	Chacayá	9	Septiembre	2023-09-24T00:00:00	2024-11-06T12:00:00	8	Radiación solar	990
121249	7	Sololá	702	San José Chacayá	5	Chacayá	9	Septiembre	2023-09-24T00:00:00	2024-11-06T13:00:00	2	Temperatura media	18.8
121250	7	Sololá	702	San José Chacayá	5	Chacayá	9	Septiembre	2023-09-24T00:00:00	2024-11-06T13:00:00	4	Temperatura máxima	20.1
121251	7	Sololá	702	San José Chacayá	5	Chacayá	9	Septiembre	2023-09-24T00:00:00	2024-11-06T13:00:00	3	Temperatura mínima	18.8
121252	7	Sololá	702	San José Chacayá	5	Chacayá	9	Septiembre	2023-09-24T00:00:00	2024-11-06T13:00:00	5	Humedad	83
121253	7	Sololá	702	San José Chacayá	5	Chacayá	9	Septiembre	2023-09-24T00:00:00	2024-11-06T13:00:00	6	Velocidad del viento	3.2
121254	7	Sololá	702	San José Chacayá	5	Chacayá	9	Septiembre	2023-09-24T00:00:00	2024-11-06T13:00:00	7	Dirección del viento	1.61
121255	7	Sololá	702	San José Chacayá	5	Chacayá	9	Septiembre	2023-09-24T00:00:00	2024-11-06T13:00:00	1	Precipitación	0
121256	7	Sololá	702	San José Chacayá	5	Chacayá	9	Septiembre	2023-09-24T00:00:00	2024-11-06T13:00:00	8	Radiación solar	298
121257	7	Sololá	702	San José Chacayá	5	Chacayá	9	Septiembre	2023-09-24T00:00:00	2024-11-06T14:00:00	2	Temperatura media	17.2
121258	7	Sololá	702	San José Chacayá	5	Chacayá	9	Septiembre	2023-09-24T00:00:00	2024-11-06T14:00:00	4	Temperatura máxima	17.9
121259	7	Sololá	702	San José Chacayá	5	Chacayá	9	Septiembre	2023-09-24T00:00:00	2024-11-06T14:00:00	3	Temperatura mínima	17.2
121260	7	Sololá	702	San José Chacayá	5	Chacayá	9	Septiembre	2023-09-24T00:00:00	2024-11-06T14:00:00	5	Humedad	88
121261	7	Sololá	702	San José Chacayá	5	Chacayá	9	Septiembre	2023-09-24T00:00:00	2024-11-06T14:00:00	6	Velocidad del viento	1.6
121262	7	Sololá	702	San José Chacayá	5	Chacayá	9	Septiembre	2023-09-24T00:00:00	2024-11-06T14:00:00	7	Dirección del viento	0.8
121263	7	Sololá	702	San José Chacayá	5	Chacayá	9	Septiembre	2023-09-24T00:00:00	2024-11-06T14:00:00	1	Precipitación	2.4
121264	7	Sololá	702	San José Chacayá	5	Chacayá	9	Septiembre	2023-09-24T00:00:00	2024-11-06T14:00:00	8	Radiación solar	348
121265	7	Sololá	702	San José Chacayá	5	Chacayá	9	Septiembre	2023-09-24T00:00:00	2024-11-06T15:00:00	2	Temperatura media	16.8
121266	7	Sololá	702	San José Chacayá	5	Chacayá	9	Septiembre	2023-09-24T00:00:00	2024-11-06T15:00:00	4	Temperatura máxima	17.1
121267	7	Sololá	702	San José Chacayá	5	Chacayá	9	Septiembre	2023-09-24T00:00:00	2024-11-06T15:00:00	3	Temperatura mínima	16.6
121268	7	Sololá	702	San José Chacayá	5	Chacayá	9	Septiembre	2023-09-24T00:00:00	2024-11-06T15:00:00	5	Humedad	92
121269	7	Sololá	702	San José Chacayá	5	Chacayá	9	Septiembre	2023-09-24T00:00:00	2024-11-06T15:00:00	6	Velocidad del viento	1.6
121270	7	Sololá	702	San José Chacayá	5	Chacayá	9	Septiembre	2023-09-24T00:00:00	2024-11-06T15:00:00	7	Dirección del viento	0.8
121271	7	Sololá	702	San José Chacayá	5	Chacayá	9	Septiembre	2023-09-24T00:00:00	2024-11-06T15:00:00	1	Precipitación	0
121272	7	Sololá	702	San José Chacayá	5	Chacayá	9	Septiembre	2023-09-24T00:00:00	2024-11-06T15:00:00	8	Radiación solar	49
121273	7	Sololá	702	San José Chacayá	5	Chacayá	9	Septiembre	2023-09-24T00:00:00	2024-11-06T16:00:00	2	Temperatura media	17.4
121274	7	Sololá	702	San José Chacayá	5	Chacayá	9	Septiembre	2023-09-24T00:00:00	2024-11-06T16:00:00	4	Temperatura máxima	17.9
121275	7	Sololá	702	San José Chacayá	5	Chacayá	9	Septiembre	2023-09-24T00:00:00	2024-11-06T16:00:00	3	Temperatura mínima	17.4
121276	7	Sololá	702	San José Chacayá	5	Chacayá	9	Septiembre	2023-09-24T00:00:00	2024-11-06T16:00:00	5	Humedad	84
121277	7	Sololá	702	San José Chacayá	5	Chacayá	9	Septiembre	2023-09-24T00:00:00	2024-11-06T16:00:00	6	Velocidad del viento	0
121278	7	Sololá	702	San José Chacayá	5	Chacayá	9	Septiembre	2023-09-24T00:00:00	2024-11-06T16:00:00	7	Dirección del viento	0
121279	7	Sololá	702	San José Chacayá	5	Chacayá	9	Septiembre	2023-09-24T00:00:00	2024-11-06T16:00:00	1	Precipitación	0
121280	7	Sololá	702	San José Chacayá	5	Chacayá	9	Septiembre	2023-09-24T00:00:00	2024-11-06T16:00:00	8	Radiación solar	60
121281	7	Sololá	702	San José Chacayá	5	Chacayá	9	Septiembre	2023-09-24T00:00:00	2024-11-06T17:00:00	2	Temperatura media	16.3
121282	7	Sololá	702	San José Chacayá	5	Chacayá	9	Septiembre	2023-09-24T00:00:00	2024-11-06T17:00:00	4	Temperatura máxima	16.8
121283	7	Sololá	702	San José Chacayá	5	Chacayá	9	Septiembre	2023-09-24T00:00:00	2024-11-06T17:00:00	3	Temperatura mínima	16.3
121284	7	Sololá	702	San José Chacayá	5	Chacayá	9	Septiembre	2023-09-24T00:00:00	2024-11-06T17:00:00	5	Humedad	91
121285	7	Sololá	702	San José Chacayá	5	Chacayá	9	Septiembre	2023-09-24T00:00:00	2024-11-06T17:00:00	6	Velocidad del viento	0
121286	7	Sololá	702	San José Chacayá	5	Chacayá	9	Septiembre	2023-09-24T00:00:00	2024-11-06T17:00:00	7	Dirección del viento	0
121287	7	Sololá	702	San José Chacayá	5	Chacayá	9	Septiembre	2023-09-24T00:00:00	2024-11-06T17:00:00	1	Precipitación	0
121288	7	Sololá	702	San José Chacayá	5	Chacayá	9	Septiembre	2023-09-24T00:00:00	2024-11-06T17:00:00	8	Radiación solar	46
121289	7	Sololá	702	San José Chacayá	5	Chacayá	9	Septiembre	2023-09-24T00:00:00	2024-11-06T18:00:00	2	Temperatura media	15.8
121290	7	Sololá	702	San José Chacayá	5	Chacayá	9	Septiembre	2023-09-24T00:00:00	2024-11-06T18:00:00	4	Temperatura máxima	16
121291	7	Sololá	702	San José Chacayá	5	Chacayá	9	Septiembre	2023-09-24T00:00:00	2024-11-06T18:00:00	3	Temperatura mínima	15.8
121292	7	Sololá	702	San José Chacayá	5	Chacayá	9	Septiembre	2023-09-24T00:00:00	2024-11-06T18:00:00	5	Humedad	93
121293	7	Sololá	702	San José Chacayá	5	Chacayá	9	Septiembre	2023-09-24T00:00:00	2024-11-06T18:00:00	6	Velocidad del viento	0
121294	7	Sololá	702	San José Chacayá	5	Chacayá	9	Septiembre	2023-09-24T00:00:00	2024-11-06T18:00:00	7	Dirección del viento	0
121295	7	Sololá	702	San José Chacayá	5	Chacayá	9	Septiembre	2023-09-24T00:00:00	2024-11-06T18:00:00	1	Precipitación	0.2
121296	7	Sololá	702	San José Chacayá	5	Chacayá	9	Septiembre	2023-09-24T00:00:00	2024-11-06T18:00:00	8	Radiación solar	9
121297	7	Sololá	702	San José Chacayá	5	Chacayá	9	Septiembre	2023-09-24T00:00:00	2024-11-06T19:00:00	2	Temperatura media	15.3
121298	7	Sololá	702	San José Chacayá	5	Chacayá	9	Septiembre	2023-09-24T00:00:00	2024-11-06T19:00:00	4	Temperatura máxima	15.4
121299	7	Sololá	702	San José Chacayá	5	Chacayá	9	Septiembre	2023-09-24T00:00:00	2024-11-06T19:00:00	3	Temperatura mínima	15.3
121300	7	Sololá	702	San José Chacayá	5	Chacayá	9	Septiembre	2023-09-24T00:00:00	2024-11-06T19:00:00	5	Humedad	94
121301	7	Sololá	702	San José Chacayá	5	Chacayá	9	Septiembre	2023-09-24T00:00:00	2024-11-06T19:00:00	6	Velocidad del viento	0
121302	7	Sololá	702	San José Chacayá	5	Chacayá	9	Septiembre	2023-09-24T00:00:00	2024-11-06T19:00:00	7	Dirección del viento	0
121303	7	Sololá	702	San José Chacayá	5	Chacayá	9	Septiembre	2023-09-24T00:00:00	2024-11-06T19:00:00	1	Precipitación	0
121304	7	Sololá	702	San José Chacayá	5	Chacayá	9	Septiembre	2023-09-24T00:00:00	2024-11-06T19:00:00	8	Radiación solar	0
121305	7	Sololá	702	San José Chacayá	5	Chacayá	9	Septiembre	2023-09-24T00:00:00	2024-11-06T20:00:00	2	Temperatura media	15.2
121306	7	Sololá	702	San José Chacayá	5	Chacayá	9	Septiembre	2023-09-24T00:00:00	2024-11-06T20:00:00	4	Temperatura máxima	15.3
121307	7	Sololá	702	San José Chacayá	5	Chacayá	9	Septiembre	2023-09-24T00:00:00	2024-11-06T20:00:00	3	Temperatura mínima	15.2
121308	7	Sololá	702	San José Chacayá	5	Chacayá	9	Septiembre	2023-09-24T00:00:00	2024-11-06T20:00:00	5	Humedad	94
121309	7	Sololá	702	San José Chacayá	5	Chacayá	9	Septiembre	2023-09-24T00:00:00	2024-11-06T20:00:00	6	Velocidad del viento	1.6
121310	7	Sololá	702	San José Chacayá	5	Chacayá	9	Septiembre	2023-09-24T00:00:00	2024-11-06T20:00:00	7	Dirección del viento	0.8
121311	7	Sololá	702	San José Chacayá	5	Chacayá	9	Septiembre	2023-09-24T00:00:00	2024-11-06T20:00:00	1	Precipitación	9.4
121312	7	Sololá	702	San José Chacayá	5	Chacayá	9	Septiembre	2023-09-24T00:00:00	2024-11-06T20:00:00	8	Radiación solar	0
121313	7	Sololá	702	San José Chacayá	5	Chacayá	9	Septiembre	2023-09-24T00:00:00	2024-11-06T21:00:00	2	Temperatura media	14.9
121314	7	Sololá	702	San José Chacayá	5	Chacayá	9	Septiembre	2023-09-24T00:00:00	2024-11-06T21:00:00	4	Temperatura máxima	15.1
121315	7	Sololá	702	San José Chacayá	5	Chacayá	9	Septiembre	2023-09-24T00:00:00	2024-11-06T21:00:00	3	Temperatura mínima	14.9
121316	7	Sololá	702	San José Chacayá	5	Chacayá	9	Septiembre	2023-09-24T00:00:00	2024-11-06T21:00:00	5	Humedad	94
121317	7	Sololá	702	San José Chacayá	5	Chacayá	9	Septiembre	2023-09-24T00:00:00	2024-11-06T21:00:00	6	Velocidad del viento	0
121318	7	Sololá	702	San José Chacayá	5	Chacayá	9	Septiembre	2023-09-24T00:00:00	2024-11-06T21:00:00	7	Dirección del viento	0
121319	7	Sololá	702	San José Chacayá	5	Chacayá	9	Septiembre	2023-09-24T00:00:00	2024-11-06T21:00:00	1	Precipitación	2.6
121320	7	Sololá	702	San José Chacayá	5	Chacayá	9	Septiembre	2023-09-24T00:00:00	2024-11-06T21:00:00	8	Radiación solar	0
121321	7	Sololá	702	San José Chacayá	5	Chacayá	9	Septiembre	2023-09-24T00:00:00	2024-11-06T22:00:00	2	Temperatura media	14.7
121322	7	Sololá	702	San José Chacayá	5	Chacayá	9	Septiembre	2023-09-24T00:00:00	2024-11-06T22:00:00	4	Temperatura máxima	14.8
121323	7	Sololá	702	San José Chacayá	5	Chacayá	9	Septiembre	2023-09-24T00:00:00	2024-11-06T22:00:00	3	Temperatura mínima	14.6
121324	7	Sololá	702	San José Chacayá	5	Chacayá	9	Septiembre	2023-09-24T00:00:00	2024-11-06T22:00:00	5	Humedad	95
121325	7	Sololá	702	San José Chacayá	5	Chacayá	9	Septiembre	2023-09-24T00:00:00	2024-11-06T22:00:00	6	Velocidad del viento	0
121326	7	Sololá	702	San José Chacayá	5	Chacayá	9	Septiembre	2023-09-24T00:00:00	2024-11-06T22:00:00	7	Dirección del viento	0
121327	7	Sololá	702	San José Chacayá	5	Chacayá	9	Septiembre	2023-09-24T00:00:00	2024-11-06T22:00:00	1	Precipitación	0.2
121328	7	Sololá	702	San José Chacayá	5	Chacayá	9	Septiembre	2023-09-24T00:00:00	2024-11-06T22:00:00	8	Radiación solar	0
121329	7	Sololá	702	San José Chacayá	5	Chacayá	9	Septiembre	2023-09-24T00:00:00	2024-11-06T23:00:00	2	Temperatura media	14.4
121330	7	Sololá	702	San José Chacayá	5	Chacayá	9	Septiembre	2023-09-24T00:00:00	2024-11-06T23:00:00	4	Temperatura máxima	14.7
121331	7	Sololá	702	San José Chacayá	5	Chacayá	9	Septiembre	2023-09-24T00:00:00	2024-11-06T23:00:00	3	Temperatura mínima	14.4
121332	7	Sololá	702	San José Chacayá	5	Chacayá	9	Septiembre	2023-09-24T00:00:00	2024-11-06T23:00:00	5	Humedad	95
121333	7	Sololá	702	San José Chacayá	5	Chacayá	9	Septiembre	2023-09-24T00:00:00	2024-11-06T23:00:00	6	Velocidad del viento	0
121334	7	Sololá	702	San José Chacayá	5	Chacayá	9	Septiembre	2023-09-24T00:00:00	2024-11-06T23:00:00	7	Dirección del viento	0
121335	7	Sololá	702	San José Chacayá	5	Chacayá	9	Septiembre	2023-09-24T00:00:00	2024-11-06T23:00:00	1	Precipitación	4.6
121336	7	Sololá	702	San José Chacayá	5	Chacayá	9	Septiembre	2023-09-24T00:00:00	2024-11-06T23:00:00	8	Radiación solar	0
121337	7	Sololá	702	San José Chacayá	5	Chacayá	9	Septiembre	2023-09-25T00:00:00	2024-11-06T00:00:00	2	Temperatura media	14.4
121338	7	Sololá	702	San José Chacayá	5	Chacayá	9	Septiembre	2023-09-25T00:00:00	2024-11-06T00:00:00	4	Temperatura máxima	14.5
121339	7	Sololá	702	San José Chacayá	5	Chacayá	9	Septiembre	2023-09-25T00:00:00	2024-11-06T00:00:00	3	Temperatura mínima	14.4
121340	7	Sololá	702	San José Chacayá	5	Chacayá	9	Septiembre	2023-09-25T00:00:00	2024-11-06T00:00:00	5	Humedad	95
121341	7	Sololá	702	San José Chacayá	5	Chacayá	9	Septiembre	2023-09-25T00:00:00	2024-11-06T00:00:00	6	Velocidad del viento	0
121342	7	Sololá	702	San José Chacayá	5	Chacayá	9	Septiembre	2023-09-25T00:00:00	2024-11-06T00:00:00	7	Dirección del viento	0
121343	7	Sololá	702	San José Chacayá	5	Chacayá	9	Septiembre	2023-09-25T00:00:00	2024-11-06T00:00:00	1	Precipitación	2.4
121344	7	Sololá	702	San José Chacayá	5	Chacayá	9	Septiembre	2023-09-25T00:00:00	2024-11-06T00:00:00	8	Radiación solar	0
121345	7	Sololá	702	San José Chacayá	5	Chacayá	9	Septiembre	2023-09-25T00:00:00	2024-11-06T01:00:00	2	Temperatura media	14.1
121346	7	Sololá	702	San José Chacayá	5	Chacayá	9	Septiembre	2023-09-25T00:00:00	2024-11-06T01:00:00	4	Temperatura máxima	14.4
121347	7	Sololá	702	San José Chacayá	5	Chacayá	9	Septiembre	2023-09-25T00:00:00	2024-11-06T01:00:00	3	Temperatura mínima	14.1
121348	7	Sololá	702	San José Chacayá	5	Chacayá	9	Septiembre	2023-09-25T00:00:00	2024-11-06T01:00:00	5	Humedad	95
121349	7	Sololá	702	San José Chacayá	5	Chacayá	9	Septiembre	2023-09-25T00:00:00	2024-11-06T01:00:00	6	Velocidad del viento	0
121350	7	Sololá	702	San José Chacayá	5	Chacayá	9	Septiembre	2023-09-25T00:00:00	2024-11-06T01:00:00	7	Dirección del viento	0
121351	7	Sololá	702	San José Chacayá	5	Chacayá	9	Septiembre	2023-09-25T00:00:00	2024-11-06T01:00:00	1	Precipitación	4.4
121352	7	Sololá	702	San José Chacayá	5	Chacayá	9	Septiembre	2023-09-25T00:00:00	2024-11-06T01:00:00	8	Radiación solar	0
121353	7	Sololá	702	San José Chacayá	5	Chacayá	9	Septiembre	2023-09-25T00:00:00	2024-11-06T02:00:00	2	Temperatura media	13.8
121354	7	Sololá	702	San José Chacayá	5	Chacayá	9	Septiembre	2023-09-25T00:00:00	2024-11-06T02:00:00	4	Temperatura máxima	13.8
121355	7	Sololá	702	San José Chacayá	5	Chacayá	9	Septiembre	2023-09-25T00:00:00	2024-11-06T02:00:00	3	Temperatura mínima	13.7
121356	7	Sololá	702	San José Chacayá	5	Chacayá	9	Septiembre	2023-09-25T00:00:00	2024-11-06T02:00:00	5	Humedad	95
121357	7	Sololá	702	San José Chacayá	5	Chacayá	9	Septiembre	2023-09-25T00:00:00	2024-11-06T02:00:00	6	Velocidad del viento	0
121358	7	Sololá	702	San José Chacayá	5	Chacayá	9	Septiembre	2023-09-25T00:00:00	2024-11-06T02:00:00	7	Dirección del viento	0
121359	7	Sololá	702	San José Chacayá	5	Chacayá	9	Septiembre	2023-09-25T00:00:00	2024-11-06T02:00:00	1	Precipitación	0
121360	7	Sololá	702	San José Chacayá	5	Chacayá	9	Septiembre	2023-09-25T00:00:00	2024-11-06T02:00:00	8	Radiación solar	0
121361	7	Sololá	702	San José Chacayá	5	Chacayá	9	Septiembre	2023-09-25T00:00:00	2024-11-06T03:00:00	2	Temperatura media	13.8
121362	7	Sololá	702	San José Chacayá	5	Chacayá	9	Septiembre	2023-09-25T00:00:00	2024-11-06T03:00:00	4	Temperatura máxima	13.8
121363	7	Sololá	702	San José Chacayá	5	Chacayá	9	Septiembre	2023-09-25T00:00:00	2024-11-06T03:00:00	3	Temperatura mínima	13.7
121364	7	Sololá	702	San José Chacayá	5	Chacayá	9	Septiembre	2023-09-25T00:00:00	2024-11-06T03:00:00	5	Humedad	96
121365	7	Sololá	702	San José Chacayá	5	Chacayá	9	Septiembre	2023-09-25T00:00:00	2024-11-06T03:00:00	6	Velocidad del viento	0
121366	7	Sololá	702	San José Chacayá	5	Chacayá	9	Septiembre	2023-09-25T00:00:00	2024-11-06T03:00:00	7	Dirección del viento	0
121367	7	Sololá	702	San José Chacayá	5	Chacayá	9	Septiembre	2023-09-25T00:00:00	2024-11-06T03:00:00	1	Precipitación	0.2
121368	7	Sololá	702	San José Chacayá	5	Chacayá	9	Septiembre	2023-09-25T00:00:00	2024-11-06T03:00:00	8	Radiación solar	0
121369	7	Sololá	702	San José Chacayá	5	Chacayá	9	Septiembre	2023-09-25T00:00:00	2024-11-06T04:00:00	2	Temperatura media	13.5
121370	7	Sololá	702	San José Chacayá	5	Chacayá	9	Septiembre	2023-09-25T00:00:00	2024-11-06T04:00:00	4	Temperatura máxima	13.7
121371	7	Sololá	702	San José Chacayá	5	Chacayá	9	Septiembre	2023-09-25T00:00:00	2024-11-06T04:00:00	3	Temperatura mínima	13.5
121372	7	Sololá	702	San José Chacayá	5	Chacayá	9	Septiembre	2023-09-25T00:00:00	2024-11-06T04:00:00	5	Humedad	95
121373	7	Sololá	702	San José Chacayá	5	Chacayá	9	Septiembre	2023-09-25T00:00:00	2024-11-06T04:00:00	6	Velocidad del viento	0
121374	7	Sololá	702	San José Chacayá	5	Chacayá	9	Septiembre	2023-09-25T00:00:00	2024-11-06T04:00:00	7	Dirección del viento	0
121375	7	Sololá	702	San José Chacayá	5	Chacayá	9	Septiembre	2023-09-25T00:00:00	2024-11-06T04:00:00	1	Precipitación	0
121376	7	Sololá	702	San José Chacayá	5	Chacayá	9	Septiembre	2023-09-25T00:00:00	2024-11-06T04:00:00	8	Radiación solar	0
121377	7	Sololá	702	San José Chacayá	5	Chacayá	9	Septiembre	2023-09-25T00:00:00	2024-11-06T05:00:00	2	Temperatura media	13.3
121378	7	Sololá	702	San José Chacayá	5	Chacayá	9	Septiembre	2023-09-25T00:00:00	2024-11-06T05:00:00	4	Temperatura máxima	13.4
121379	7	Sololá	702	San José Chacayá	5	Chacayá	9	Septiembre	2023-09-25T00:00:00	2024-11-06T05:00:00	3	Temperatura mínima	13.3
121380	7	Sololá	702	San José Chacayá	5	Chacayá	9	Septiembre	2023-09-25T00:00:00	2024-11-06T05:00:00	5	Humedad	96
121381	7	Sololá	702	San José Chacayá	5	Chacayá	9	Septiembre	2023-09-25T00:00:00	2024-11-06T05:00:00	6	Velocidad del viento	0
121382	7	Sololá	702	San José Chacayá	5	Chacayá	9	Septiembre	2023-09-25T00:00:00	2024-11-06T05:00:00	7	Dirección del viento	0
121383	7	Sololá	702	San José Chacayá	5	Chacayá	9	Septiembre	2023-09-25T00:00:00	2024-11-06T05:00:00	1	Precipitación	0
121384	7	Sololá	702	San José Chacayá	5	Chacayá	9	Septiembre	2023-09-25T00:00:00	2024-11-06T05:00:00	8	Radiación solar	0
121385	7	Sololá	702	San José Chacayá	5	Chacayá	9	Septiembre	2023-09-25T00:00:00	2024-11-06T06:00:00	2	Temperatura media	13.3
121386	7	Sololá	702	San José Chacayá	5	Chacayá	9	Septiembre	2023-09-25T00:00:00	2024-11-06T06:00:00	4	Temperatura máxima	13.4
121387	7	Sololá	702	San José Chacayá	5	Chacayá	9	Septiembre	2023-09-25T00:00:00	2024-11-06T06:00:00	3	Temperatura mínima	13.2
121388	7	Sololá	702	San José Chacayá	5	Chacayá	9	Septiembre	2023-09-25T00:00:00	2024-11-06T06:00:00	5	Humedad	96
121389	7	Sololá	702	San José Chacayá	5	Chacayá	9	Septiembre	2023-09-25T00:00:00	2024-11-06T06:00:00	6	Velocidad del viento	0
121390	7	Sololá	702	San José Chacayá	5	Chacayá	9	Septiembre	2023-09-25T00:00:00	2024-11-06T06:00:00	7	Dirección del viento	0
121391	7	Sololá	702	San José Chacayá	5	Chacayá	9	Septiembre	2023-09-25T00:00:00	2024-11-06T06:00:00	1	Precipitación	0
121392	7	Sololá	702	San José Chacayá	5	Chacayá	9	Septiembre	2023-09-25T00:00:00	2024-11-06T06:00:00	8	Radiación solar	1
121393	7	Sololá	702	San José Chacayá	5	Chacayá	9	Septiembre	2023-09-25T00:00:00	2024-11-06T07:00:00	2	Temperatura media	13.5
121394	7	Sololá	702	San José Chacayá	5	Chacayá	9	Septiembre	2023-09-25T00:00:00	2024-11-06T07:00:00	4	Temperatura máxima	13.6
121395	7	Sololá	702	San José Chacayá	5	Chacayá	9	Septiembre	2023-09-25T00:00:00	2024-11-06T07:00:00	3	Temperatura mínima	13.3
121396	7	Sololá	702	San José Chacayá	5	Chacayá	9	Septiembre	2023-09-25T00:00:00	2024-11-06T07:00:00	5	Humedad	96
121397	7	Sololá	702	San José Chacayá	5	Chacayá	9	Septiembre	2023-09-25T00:00:00	2024-11-06T07:00:00	6	Velocidad del viento	0
121398	7	Sololá	702	San José Chacayá	5	Chacayá	9	Septiembre	2023-09-25T00:00:00	2024-11-06T07:00:00	7	Dirección del viento	0
121399	7	Sololá	702	San José Chacayá	5	Chacayá	9	Septiembre	2023-09-25T00:00:00	2024-11-06T07:00:00	1	Precipitación	0
121400	7	Sololá	702	San José Chacayá	5	Chacayá	9	Septiembre	2023-09-25T00:00:00	2024-11-06T07:00:00	8	Radiación solar	51
121401	7	Sololá	702	San José Chacayá	5	Chacayá	9	Septiembre	2023-09-25T00:00:00	2024-11-06T08:00:00	2	Temperatura media	15.9
121402	7	Sololá	702	San José Chacayá	5	Chacayá	9	Septiembre	2023-09-25T00:00:00	2024-11-06T08:00:00	4	Temperatura máxima	15.9
121403	7	Sololá	702	San José Chacayá	5	Chacayá	9	Septiembre	2023-09-25T00:00:00	2024-11-06T08:00:00	3	Temperatura mínima	14.1
121404	7	Sololá	702	San José Chacayá	5	Chacayá	9	Septiembre	2023-09-25T00:00:00	2024-11-06T08:00:00	5	Humedad	84
121405	7	Sololá	702	San José Chacayá	5	Chacayá	9	Septiembre	2023-09-25T00:00:00	2024-11-06T08:00:00	6	Velocidad del viento	1.6
121406	7	Sololá	702	San José Chacayá	5	Chacayá	9	Septiembre	2023-09-25T00:00:00	2024-11-06T08:00:00	7	Dirección del viento	0.8
121407	7	Sololá	702	San José Chacayá	5	Chacayá	9	Septiembre	2023-09-25T00:00:00	2024-11-06T08:00:00	1	Precipitación	0
121408	7	Sololá	702	San José Chacayá	5	Chacayá	9	Septiembre	2023-09-25T00:00:00	2024-11-06T08:00:00	8	Radiación solar	160
121409	7	Sololá	702	San José Chacayá	5	Chacayá	9	Septiembre	2023-09-25T00:00:00	2024-11-06T09:00:00	2	Temperatura media	19.7
121410	7	Sololá	702	San José Chacayá	5	Chacayá	9	Septiembre	2023-09-25T00:00:00	2024-11-06T09:00:00	4	Temperatura máxima	19.7
121411	7	Sololá	702	San José Chacayá	5	Chacayá	9	Septiembre	2023-09-25T00:00:00	2024-11-06T09:00:00	3	Temperatura mínima	18
121412	7	Sololá	702	San José Chacayá	5	Chacayá	9	Septiembre	2023-09-25T00:00:00	2024-11-06T09:00:00	5	Humedad	72
121413	7	Sololá	702	San José Chacayá	5	Chacayá	9	Septiembre	2023-09-25T00:00:00	2024-11-06T09:00:00	6	Velocidad del viento	3.2
121414	7	Sololá	702	San José Chacayá	5	Chacayá	9	Septiembre	2023-09-25T00:00:00	2024-11-06T09:00:00	7	Dirección del viento	1.61
121415	7	Sololá	702	San José Chacayá	5	Chacayá	9	Septiembre	2023-09-25T00:00:00	2024-11-06T09:00:00	1	Precipitación	0
121416	7	Sololá	702	San José Chacayá	5	Chacayá	9	Septiembre	2023-09-25T00:00:00	2024-11-06T09:00:00	8	Radiación solar	565
121417	7	Sololá	702	San José Chacayá	5	Chacayá	9	Septiembre	2023-09-25T00:00:00	2024-11-06T10:00:00	2	Temperatura media	22.6
121418	7	Sololá	702	San José Chacayá	5	Chacayá	9	Septiembre	2023-09-25T00:00:00	2024-11-06T10:00:00	4	Temperatura máxima	22.7
121419	7	Sololá	702	San José Chacayá	5	Chacayá	9	Septiembre	2023-09-25T00:00:00	2024-11-06T10:00:00	3	Temperatura mínima	21.2
121420	7	Sololá	702	San José Chacayá	5	Chacayá	9	Septiembre	2023-09-25T00:00:00	2024-11-06T10:00:00	5	Humedad	57
121421	7	Sololá	702	San José Chacayá	5	Chacayá	9	Septiembre	2023-09-25T00:00:00	2024-11-06T10:00:00	6	Velocidad del viento	3.2
121422	7	Sololá	702	San José Chacayá	5	Chacayá	9	Septiembre	2023-09-25T00:00:00	2024-11-06T10:00:00	7	Dirección del viento	1.61
121423	7	Sololá	702	San José Chacayá	5	Chacayá	9	Septiembre	2023-09-25T00:00:00	2024-11-06T10:00:00	1	Precipitación	0
121424	7	Sololá	702	San José Chacayá	5	Chacayá	9	Septiembre	2023-09-25T00:00:00	2024-11-06T10:00:00	8	Radiación solar	755
121425	7	Sololá	702	San José Chacayá	5	Chacayá	9	Septiembre	2023-09-25T00:00:00	2024-11-06T11:00:00	2	Temperatura media	21.1
121426	7	Sololá	702	San José Chacayá	5	Chacayá	9	Septiembre	2023-09-25T00:00:00	2024-11-06T11:00:00	4	Temperatura máxima	22.3
121427	7	Sololá	702	San José Chacayá	5	Chacayá	9	Septiembre	2023-09-25T00:00:00	2024-11-06T11:00:00	3	Temperatura mínima	21.1
121428	7	Sololá	702	San José Chacayá	5	Chacayá	9	Septiembre	2023-09-25T00:00:00	2024-11-06T11:00:00	5	Humedad	61
121429	7	Sololá	702	San José Chacayá	5	Chacayá	9	Septiembre	2023-09-25T00:00:00	2024-11-06T11:00:00	6	Velocidad del viento	3.2
121430	7	Sololá	702	San José Chacayá	5	Chacayá	9	Septiembre	2023-09-25T00:00:00	2024-11-06T11:00:00	7	Dirección del viento	1.61
121431	7	Sololá	702	San José Chacayá	5	Chacayá	9	Septiembre	2023-09-25T00:00:00	2024-11-06T11:00:00	1	Precipitación	0
121432	7	Sololá	702	San José Chacayá	5	Chacayá	9	Septiembre	2023-09-25T00:00:00	2024-11-06T11:00:00	8	Radiación solar	478
121433	7	Sololá	702	San José Chacayá	5	Chacayá	9	Septiembre	2023-09-25T00:00:00	2024-11-06T12:00:00	2	Temperatura media	19.6
121434	7	Sololá	702	San José Chacayá	5	Chacayá	9	Septiembre	2023-09-25T00:00:00	2024-11-06T12:00:00	4	Temperatura máxima	21
121435	7	Sololá	702	San José Chacayá	5	Chacayá	9	Septiembre	2023-09-25T00:00:00	2024-11-06T12:00:00	3	Temperatura mínima	19.4
121436	7	Sololá	702	San José Chacayá	5	Chacayá	9	Septiembre	2023-09-25T00:00:00	2024-11-06T12:00:00	5	Humedad	71
121437	7	Sololá	702	San José Chacayá	5	Chacayá	9	Septiembre	2023-09-25T00:00:00	2024-11-06T12:00:00	6	Velocidad del viento	8
121438	7	Sololá	702	San José Chacayá	5	Chacayá	9	Septiembre	2023-09-25T00:00:00	2024-11-06T12:00:00	7	Dirección del viento	4.02
121439	7	Sololá	702	San José Chacayá	5	Chacayá	9	Septiembre	2023-09-25T00:00:00	2024-11-06T12:00:00	1	Precipitación	0
121440	7	Sololá	702	San José Chacayá	5	Chacayá	9	Septiembre	2023-09-25T00:00:00	2024-11-06T12:00:00	8	Radiación solar	861
121441	7	Sololá	702	San José Chacayá	5	Chacayá	9	Septiembre	2023-09-25T00:00:00	2024-11-06T13:00:00	2	Temperatura media	17.5
121442	7	Sololá	702	San José Chacayá	5	Chacayá	9	Septiembre	2023-09-25T00:00:00	2024-11-06T13:00:00	4	Temperatura máxima	18.1
121443	7	Sololá	702	San José Chacayá	5	Chacayá	9	Septiembre	2023-09-25T00:00:00	2024-11-06T13:00:00	3	Temperatura mínima	17.5
121444	7	Sololá	702	San José Chacayá	5	Chacayá	9	Septiembre	2023-09-25T00:00:00	2024-11-06T13:00:00	5	Humedad	77
121445	7	Sololá	702	San José Chacayá	5	Chacayá	9	Septiembre	2023-09-25T00:00:00	2024-11-06T13:00:00	6	Velocidad del viento	4.8
121446	7	Sololá	702	San José Chacayá	5	Chacayá	9	Septiembre	2023-09-25T00:00:00	2024-11-06T13:00:00	7	Dirección del viento	2.41
121447	7	Sololá	702	San José Chacayá	5	Chacayá	9	Septiembre	2023-09-25T00:00:00	2024-11-06T13:00:00	1	Precipitación	0
121448	7	Sololá	702	San José Chacayá	5	Chacayá	9	Septiembre	2023-09-25T00:00:00	2024-11-06T13:00:00	8	Radiación solar	209
121449	7	Sololá	702	San José Chacayá	5	Chacayá	9	Septiembre	2023-09-25T00:00:00	2024-11-06T14:00:00	2	Temperatura media	16.4
121450	7	Sololá	702	San José Chacayá	5	Chacayá	9	Septiembre	2023-09-25T00:00:00	2024-11-06T14:00:00	4	Temperatura máxima	17.3
121451	7	Sololá	702	San José Chacayá	5	Chacayá	9	Septiembre	2023-09-25T00:00:00	2024-11-06T14:00:00	3	Temperatura mínima	16.4
121452	7	Sololá	702	San José Chacayá	5	Chacayá	9	Septiembre	2023-09-25T00:00:00	2024-11-06T14:00:00	5	Humedad	67
121453	7	Sololá	702	San José Chacayá	5	Chacayá	9	Septiembre	2023-09-25T00:00:00	2024-11-06T14:00:00	6	Velocidad del viento	1.6
121454	7	Sololá	702	San José Chacayá	5	Chacayá	9	Septiembre	2023-09-25T00:00:00	2024-11-06T14:00:00	7	Dirección del viento	0.8
121455	7	Sololá	702	San José Chacayá	5	Chacayá	9	Septiembre	2023-09-25T00:00:00	2024-11-06T14:00:00	1	Precipitación	0
121456	7	Sololá	702	San José Chacayá	5	Chacayá	9	Septiembre	2023-09-25T00:00:00	2024-11-06T14:00:00	8	Radiación solar	51
121457	7	Sololá	702	San José Chacayá	5	Chacayá	9	Septiembre	2023-09-25T00:00:00	2024-11-06T15:00:00	2	Temperatura media	16.2
121458	7	Sololá	702	San José Chacayá	5	Chacayá	9	Septiembre	2023-09-25T00:00:00	2024-11-06T15:00:00	4	Temperatura máxima	16.3
121459	7	Sololá	702	San José Chacayá	5	Chacayá	9	Septiembre	2023-09-25T00:00:00	2024-11-06T15:00:00	3	Temperatura mínima	16.1
121460	7	Sololá	702	San José Chacayá	5	Chacayá	9	Septiembre	2023-09-25T00:00:00	2024-11-06T15:00:00	5	Humedad	62
121461	7	Sololá	702	San José Chacayá	5	Chacayá	9	Septiembre	2023-09-25T00:00:00	2024-11-06T15:00:00	6	Velocidad del viento	0
121462	7	Sololá	702	San José Chacayá	5	Chacayá	9	Septiembre	2023-09-25T00:00:00	2024-11-06T15:00:00	7	Dirección del viento	0
121463	7	Sololá	702	San José Chacayá	5	Chacayá	9	Septiembre	2023-09-25T00:00:00	2024-11-06T15:00:00	1	Precipitación	0
121464	7	Sololá	702	San José Chacayá	5	Chacayá	9	Septiembre	2023-09-25T00:00:00	2024-11-06T15:00:00	8	Radiación solar	61
121465	7	Sololá	702	San José Chacayá	5	Chacayá	9	Septiembre	2023-09-25T00:00:00	2024-11-06T16:00:00	2	Temperatura media	16.1
121466	7	Sololá	702	San José Chacayá	5	Chacayá	9	Septiembre	2023-09-25T00:00:00	2024-11-06T16:00:00	4	Temperatura máxima	16.3
121467	7	Sololá	702	San José Chacayá	5	Chacayá	9	Septiembre	2023-09-25T00:00:00	2024-11-06T16:00:00	3	Temperatura mínima	16.1
121468	7	Sololá	702	San José Chacayá	5	Chacayá	9	Septiembre	2023-09-25T00:00:00	2024-11-06T16:00:00	5	Humedad	50
121469	7	Sololá	702	San José Chacayá	5	Chacayá	9	Septiembre	2023-09-25T00:00:00	2024-11-06T16:00:00	6	Velocidad del viento	0
121470	7	Sololá	702	San José Chacayá	5	Chacayá	9	Septiembre	2023-09-25T00:00:00	2024-11-06T16:00:00	7	Dirección del viento	0
121471	7	Sololá	702	San José Chacayá	5	Chacayá	9	Septiembre	2023-09-25T00:00:00	2024-11-06T16:00:00	1	Precipitación	0
121472	7	Sololá	702	San José Chacayá	5	Chacayá	9	Septiembre	2023-09-25T00:00:00	2024-11-06T16:00:00	8	Radiación solar	33
121473	7	Sololá	702	San José Chacayá	5	Chacayá	9	Septiembre	2023-09-25T00:00:00	2024-11-06T17:00:00	2	Temperatura media	15.8
121474	7	Sololá	702	San José Chacayá	5	Chacayá	9	Septiembre	2023-09-25T00:00:00	2024-11-06T17:00:00	4	Temperatura máxima	15.9
121475	7	Sololá	702	San José Chacayá	5	Chacayá	9	Septiembre	2023-09-25T00:00:00	2024-11-06T17:00:00	3	Temperatura mínima	15.8
121476	7	Sololá	702	San José Chacayá	5	Chacayá	9	Septiembre	2023-09-25T00:00:00	2024-11-06T17:00:00	5	Humedad	56
121477	7	Sololá	702	San José Chacayá	5	Chacayá	9	Septiembre	2023-09-25T00:00:00	2024-11-06T17:00:00	6	Velocidad del viento	0
121478	7	Sololá	702	San José Chacayá	5	Chacayá	9	Septiembre	2023-09-25T00:00:00	2024-11-06T17:00:00	7	Dirección del viento	0
121479	7	Sololá	702	San José Chacayá	5	Chacayá	9	Septiembre	2023-09-25T00:00:00	2024-11-06T17:00:00	1	Precipitación	0
121480	7	Sololá	702	San José Chacayá	5	Chacayá	9	Septiembre	2023-09-25T00:00:00	2024-11-06T17:00:00	8	Radiación solar	65
121481	7	Sololá	702	San José Chacayá	5	Chacayá	9	Septiembre	2023-09-25T00:00:00	2024-11-06T18:00:00	2	Temperatura media	15.5
121482	7	Sololá	702	San José Chacayá	5	Chacayá	9	Septiembre	2023-09-25T00:00:00	2024-11-06T18:00:00	4	Temperatura máxima	16
121483	7	Sololá	702	San José Chacayá	5	Chacayá	9	Septiembre	2023-09-25T00:00:00	2024-11-06T18:00:00	3	Temperatura mínima	15.5
121484	7	Sololá	702	San José Chacayá	5	Chacayá	9	Septiembre	2023-09-25T00:00:00	2024-11-06T18:00:00	5	Humedad	45
121485	7	Sololá	702	San José Chacayá	5	Chacayá	9	Septiembre	2023-09-25T00:00:00	2024-11-06T18:00:00	6	Velocidad del viento	0
121486	7	Sololá	702	San José Chacayá	5	Chacayá	9	Septiembre	2023-09-25T00:00:00	2024-11-06T18:00:00	7	Dirección del viento	0
121487	7	Sololá	702	San José Chacayá	5	Chacayá	9	Septiembre	2023-09-25T00:00:00	2024-11-06T18:00:00	1	Precipitación	2.2
121488	7	Sololá	702	San José Chacayá	5	Chacayá	9	Septiembre	2023-09-25T00:00:00	2024-11-06T18:00:00	8	Radiación solar	6
121489	7	Sololá	702	San José Chacayá	5	Chacayá	9	Septiembre	2023-09-25T00:00:00	2024-11-06T19:00:00	2	Temperatura media	15.3
121490	7	Sololá	702	San José Chacayá	5	Chacayá	9	Septiembre	2023-09-25T00:00:00	2024-11-06T19:00:00	4	Temperatura máxima	15.4
121491	7	Sololá	702	San José Chacayá	5	Chacayá	9	Septiembre	2023-09-25T00:00:00	2024-11-06T19:00:00	3	Temperatura mínima	15.3
121492	7	Sololá	702	San José Chacayá	5	Chacayá	9	Septiembre	2023-09-25T00:00:00	2024-11-06T19:00:00	5	Humedad	27
121493	7	Sololá	702	San José Chacayá	5	Chacayá	9	Septiembre	2023-09-25T00:00:00	2024-11-06T19:00:00	6	Velocidad del viento	0
121494	7	Sololá	702	San José Chacayá	5	Chacayá	9	Septiembre	2023-09-25T00:00:00	2024-11-06T19:00:00	7	Dirección del viento	0
121495	7	Sololá	702	San José Chacayá	5	Chacayá	9	Septiembre	2023-09-25T00:00:00	2024-11-06T19:00:00	1	Precipitación	0.2
121496	7	Sololá	702	San José Chacayá	5	Chacayá	9	Septiembre	2023-09-25T00:00:00	2024-11-06T19:00:00	8	Radiación solar	0
121497	7	Sololá	702	San José Chacayá	5	Chacayá	9	Septiembre	2023-09-25T00:00:00	2024-11-06T20:00:00	2	Temperatura media	14.6
121498	7	Sololá	702	San José Chacayá	5	Chacayá	9	Septiembre	2023-09-25T00:00:00	2024-11-06T20:00:00	4	Temperatura máxima	14.9
121499	7	Sololá	702	San José Chacayá	5	Chacayá	9	Septiembre	2023-09-25T00:00:00	2024-11-06T20:00:00	3	Temperatura mínima	14.6
121500	7	Sololá	702	San José Chacayá	5	Chacayá	9	Septiembre	2023-09-25T00:00:00	2024-11-06T20:00:00	5	Humedad	26
121501	7	Sololá	702	San José Chacayá	5	Chacayá	9	Septiembre	2023-09-25T00:00:00	2024-11-06T20:00:00	6	Velocidad del viento	0
121502	7	Sololá	702	San José Chacayá	5	Chacayá	9	Septiembre	2023-09-25T00:00:00	2024-11-06T20:00:00	7	Dirección del viento	0
121503	7	Sololá	702	San José Chacayá	5	Chacayá	9	Septiembre	2023-09-25T00:00:00	2024-11-06T20:00:00	1	Precipitación	0
121504	7	Sololá	702	San José Chacayá	5	Chacayá	9	Septiembre	2023-09-25T00:00:00	2024-11-06T20:00:00	8	Radiación solar	0
121505	7	Sololá	702	San José Chacayá	5	Chacayá	9	Septiembre	2023-09-25T00:00:00	2024-11-06T21:00:00	2	Temperatura media	14.2
121506	7	Sololá	702	San José Chacayá	5	Chacayá	9	Septiembre	2023-09-25T00:00:00	2024-11-06T21:00:00	4	Temperatura máxima	14.3
121507	7	Sololá	702	San José Chacayá	5	Chacayá	9	Septiembre	2023-09-25T00:00:00	2024-11-06T21:00:00	3	Temperatura mínima	14.2
121508	7	Sololá	702	San José Chacayá	5	Chacayá	9	Septiembre	2023-09-25T00:00:00	2024-11-06T21:00:00	5	Humedad	26
121509	7	Sololá	702	San José Chacayá	5	Chacayá	9	Septiembre	2023-09-25T00:00:00	2024-11-06T21:00:00	6	Velocidad del viento	3.2
121510	7	Sololá	702	San José Chacayá	5	Chacayá	9	Septiembre	2023-09-25T00:00:00	2024-11-06T21:00:00	7	Dirección del viento	1.61
121511	7	Sololá	702	San José Chacayá	5	Chacayá	9	Septiembre	2023-09-25T00:00:00	2024-11-06T21:00:00	1	Precipitación	0
121512	7	Sololá	702	San José Chacayá	5	Chacayá	9	Septiembre	2023-09-25T00:00:00	2024-11-06T21:00:00	8	Radiación solar	0
121513	7	Sololá	702	San José Chacayá	5	Chacayá	9	Septiembre	2023-09-25T00:00:00	2024-11-06T22:00:00	2	Temperatura media	14.1
121514	7	Sololá	702	San José Chacayá	5	Chacayá	9	Septiembre	2023-09-25T00:00:00	2024-11-06T22:00:00	4	Temperatura máxima	14.2
121515	7	Sololá	702	San José Chacayá	5	Chacayá	9	Septiembre	2023-09-25T00:00:00	2024-11-06T22:00:00	3	Temperatura mínima	14.1
121516	7	Sololá	702	San José Chacayá	5	Chacayá	9	Septiembre	2023-09-25T00:00:00	2024-11-06T22:00:00	5	Humedad	21
121517	7	Sololá	702	San José Chacayá	5	Chacayá	9	Septiembre	2023-09-25T00:00:00	2024-11-06T22:00:00	6	Velocidad del viento	0
121518	7	Sololá	702	San José Chacayá	5	Chacayá	9	Septiembre	2023-09-25T00:00:00	2024-11-06T22:00:00	7	Dirección del viento	0
121519	7	Sololá	702	San José Chacayá	5	Chacayá	9	Septiembre	2023-09-25T00:00:00	2024-11-06T22:00:00	1	Precipitación	0
121520	7	Sololá	702	San José Chacayá	5	Chacayá	9	Septiembre	2023-09-25T00:00:00	2024-11-06T22:00:00	8	Radiación solar	0
121521	7	Sololá	702	San José Chacayá	5	Chacayá	9	Septiembre	2023-09-25T00:00:00	2024-11-06T23:00:00	2	Temperatura media	14.2
121522	7	Sololá	702	San José Chacayá	5	Chacayá	9	Septiembre	2023-09-25T00:00:00	2024-11-06T23:00:00	4	Temperatura máxima	14.2
121523	7	Sololá	702	San José Chacayá	5	Chacayá	9	Septiembre	2023-09-25T00:00:00	2024-11-06T23:00:00	3	Temperatura mínima	14.1
121524	7	Sololá	702	San José Chacayá	5	Chacayá	9	Septiembre	2023-09-25T00:00:00	2024-11-06T23:00:00	5	Humedad	18
121525	7	Sololá	702	San José Chacayá	5	Chacayá	9	Septiembre	2023-09-25T00:00:00	2024-11-06T23:00:00	6	Velocidad del viento	0
121526	7	Sololá	702	San José Chacayá	5	Chacayá	9	Septiembre	2023-09-25T00:00:00	2024-11-06T23:00:00	7	Dirección del viento	0
121527	7	Sololá	702	San José Chacayá	5	Chacayá	9	Septiembre	2023-09-25T00:00:00	2024-11-06T23:00:00	1	Precipitación	0
121528	7	Sololá	702	San José Chacayá	5	Chacayá	9	Septiembre	2023-09-25T00:00:00	2024-11-06T23:00:00	8	Radiación solar	0
121529	7	Sololá	702	San José Chacayá	5	Chacayá	9	Septiembre	2023-09-26T00:00:00	2024-11-06T00:00:00	2	Temperatura media	14.2
121530	7	Sololá	702	San José Chacayá	5	Chacayá	9	Septiembre	2023-09-26T00:00:00	2024-11-06T00:00:00	4	Temperatura máxima	14.3
121531	7	Sololá	702	San José Chacayá	5	Chacayá	9	Septiembre	2023-09-26T00:00:00	2024-11-06T00:00:00	3	Temperatura mínima	14.2
121532	7	Sololá	702	San José Chacayá	5	Chacayá	9	Septiembre	2023-09-26T00:00:00	2024-11-06T00:00:00	5	Humedad	24
121533	7	Sololá	702	San José Chacayá	5	Chacayá	9	Septiembre	2023-09-26T00:00:00	2024-11-06T00:00:00	6	Velocidad del viento	1.6
121534	7	Sololá	702	San José Chacayá	5	Chacayá	9	Septiembre	2023-09-26T00:00:00	2024-11-06T00:00:00	7	Dirección del viento	0.8
121535	7	Sololá	702	San José Chacayá	5	Chacayá	9	Septiembre	2023-09-26T00:00:00	2024-11-06T00:00:00	1	Precipitación	0
121536	7	Sololá	702	San José Chacayá	5	Chacayá	9	Septiembre	2023-09-26T00:00:00	2024-11-06T00:00:00	8	Radiación solar	0
121537	7	Sololá	702	San José Chacayá	5	Chacayá	9	Septiembre	2023-09-26T00:00:00	2024-11-06T01:00:00	2	Temperatura media	14.3
121538	7	Sololá	702	San José Chacayá	5	Chacayá	9	Septiembre	2023-09-26T00:00:00	2024-11-06T01:00:00	4	Temperatura máxima	14.3
121539	7	Sololá	702	San José Chacayá	5	Chacayá	9	Septiembre	2023-09-26T00:00:00	2024-11-06T01:00:00	3	Temperatura mínima	14.2
121540	7	Sololá	702	San José Chacayá	5	Chacayá	9	Septiembre	2023-09-26T00:00:00	2024-11-06T01:00:00	5	Humedad	19
121541	7	Sololá	702	San José Chacayá	5	Chacayá	9	Septiembre	2023-09-26T00:00:00	2024-11-06T01:00:00	6	Velocidad del viento	0
121542	7	Sololá	702	San José Chacayá	5	Chacayá	9	Septiembre	2023-09-26T00:00:00	2024-11-06T01:00:00	7	Dirección del viento	0
121543	7	Sololá	702	San José Chacayá	5	Chacayá	9	Septiembre	2023-09-26T00:00:00	2024-11-06T01:00:00	1	Precipitación	8.4
121544	7	Sololá	702	San José Chacayá	5	Chacayá	9	Septiembre	2023-09-26T00:00:00	2024-11-06T01:00:00	8	Radiación solar	0
121545	7	Sololá	702	San José Chacayá	5	Chacayá	9	Septiembre	2023-09-26T00:00:00	2024-11-06T02:00:00	2	Temperatura media	13.3
121546	7	Sololá	702	San José Chacayá	5	Chacayá	9	Septiembre	2023-09-26T00:00:00	2024-11-06T02:00:00	4	Temperatura máxima	13.5
121547	7	Sololá	702	San José Chacayá	5	Chacayá	9	Septiembre	2023-09-26T00:00:00	2024-11-06T02:00:00	3	Temperatura mínima	13.3
121548	7	Sololá	702	San José Chacayá	5	Chacayá	9	Septiembre	2023-09-26T00:00:00	2024-11-06T02:00:00	5	Humedad	36
121549	7	Sololá	702	San José Chacayá	5	Chacayá	9	Septiembre	2023-09-26T00:00:00	2024-11-06T02:00:00	6	Velocidad del viento	0
121550	7	Sololá	702	San José Chacayá	5	Chacayá	9	Septiembre	2023-09-26T00:00:00	2024-11-06T02:00:00	7	Dirección del viento	0
121551	7	Sololá	702	San José Chacayá	5	Chacayá	9	Septiembre	2023-09-26T00:00:00	2024-11-06T02:00:00	1	Precipitación	4
121552	7	Sololá	702	San José Chacayá	5	Chacayá	9	Septiembre	2023-09-26T00:00:00	2024-11-06T02:00:00	8	Radiación solar	0
121553	7	Sololá	702	San José Chacayá	5	Chacayá	9	Septiembre	2023-09-26T00:00:00	2024-11-06T03:00:00	2	Temperatura media	13.1
121554	7	Sololá	702	San José Chacayá	5	Chacayá	9	Septiembre	2023-09-26T00:00:00	2024-11-06T03:00:00	4	Temperatura máxima	13.2
121555	7	Sololá	702	San José Chacayá	5	Chacayá	9	Septiembre	2023-09-26T00:00:00	2024-11-06T03:00:00	3	Temperatura mínima	13.1
121556	7	Sololá	702	San José Chacayá	5	Chacayá	9	Septiembre	2023-09-26T00:00:00	2024-11-06T03:00:00	5	Humedad	28
121557	7	Sololá	702	San José Chacayá	5	Chacayá	9	Septiembre	2023-09-26T00:00:00	2024-11-06T03:00:00	6	Velocidad del viento	3.2
121558	7	Sololá	702	San José Chacayá	5	Chacayá	9	Septiembre	2023-09-26T00:00:00	2024-11-06T03:00:00	7	Dirección del viento	1.61
121559	7	Sololá	702	San José Chacayá	5	Chacayá	9	Septiembre	2023-09-26T00:00:00	2024-11-06T03:00:00	1	Precipitación	0.2
121560	7	Sololá	702	San José Chacayá	5	Chacayá	9	Septiembre	2023-09-26T00:00:00	2024-11-06T03:00:00	8	Radiación solar	0
121561	7	Sololá	702	San José Chacayá	5	Chacayá	9	Septiembre	2023-09-26T00:00:00	2024-11-06T04:00:00	2	Temperatura media	13.2
121562	7	Sololá	702	San José Chacayá	5	Chacayá	9	Septiembre	2023-09-26T00:00:00	2024-11-06T04:00:00	4	Temperatura máxima	13.2
121563	7	Sololá	702	San José Chacayá	5	Chacayá	9	Septiembre	2023-09-26T00:00:00	2024-11-06T04:00:00	3	Temperatura mínima	13.2
121564	7	Sololá	702	San José Chacayá	5	Chacayá	9	Septiembre	2023-09-26T00:00:00	2024-11-06T04:00:00	5	Humedad	33
121565	7	Sololá	702	San José Chacayá	5	Chacayá	9	Septiembre	2023-09-26T00:00:00	2024-11-06T04:00:00	6	Velocidad del viento	0
121566	7	Sololá	702	San José Chacayá	5	Chacayá	9	Septiembre	2023-09-26T00:00:00	2024-11-06T04:00:00	7	Dirección del viento	0
121567	7	Sololá	702	San José Chacayá	5	Chacayá	9	Septiembre	2023-09-26T00:00:00	2024-11-06T04:00:00	1	Precipitación	0
121568	7	Sololá	702	San José Chacayá	5	Chacayá	9	Septiembre	2023-09-26T00:00:00	2024-11-06T04:00:00	8	Radiación solar	0
121569	7	Sololá	702	San José Chacayá	5	Chacayá	9	Septiembre	2023-09-26T00:00:00	2024-11-06T05:00:00	2	Temperatura media	12.4
121570	7	Sololá	702	San José Chacayá	5	Chacayá	9	Septiembre	2023-09-26T00:00:00	2024-11-06T05:00:00	4	Temperatura máxima	12.9
121571	7	Sololá	702	San José Chacayá	5	Chacayá	9	Septiembre	2023-09-26T00:00:00	2024-11-06T05:00:00	3	Temperatura mínima	12.4
121572	7	Sololá	702	San José Chacayá	5	Chacayá	9	Septiembre	2023-09-26T00:00:00	2024-11-06T05:00:00	5	Humedad	33
121573	7	Sololá	702	San José Chacayá	5	Chacayá	9	Septiembre	2023-09-26T00:00:00	2024-11-06T05:00:00	6	Velocidad del viento	1.6
121574	7	Sololá	702	San José Chacayá	5	Chacayá	9	Septiembre	2023-09-26T00:00:00	2024-11-06T05:00:00	7	Dirección del viento	0.8
121575	7	Sololá	702	San José Chacayá	5	Chacayá	9	Septiembre	2023-09-26T00:00:00	2024-11-06T05:00:00	1	Precipitación	0
121576	7	Sololá	702	San José Chacayá	5	Chacayá	9	Septiembre	2023-09-26T00:00:00	2024-11-06T05:00:00	8	Radiación solar	0
121577	7	Sololá	702	San José Chacayá	5	Chacayá	9	Septiembre	2023-09-26T00:00:00	2024-11-06T06:00:00	2	Temperatura media	11.5
121578	7	Sololá	702	San José Chacayá	5	Chacayá	9	Septiembre	2023-09-26T00:00:00	2024-11-06T06:00:00	4	Temperatura máxima	11.9
121579	7	Sololá	702	San José Chacayá	5	Chacayá	9	Septiembre	2023-09-26T00:00:00	2024-11-06T06:00:00	3	Temperatura mínima	11.5
121580	7	Sololá	702	San José Chacayá	5	Chacayá	9	Septiembre	2023-09-26T00:00:00	2024-11-06T06:00:00	5	Humedad	43
121581	7	Sololá	702	San José Chacayá	5	Chacayá	9	Septiembre	2023-09-26T00:00:00	2024-11-06T06:00:00	6	Velocidad del viento	3.2
121582	7	Sololá	702	San José Chacayá	5	Chacayá	9	Septiembre	2023-09-26T00:00:00	2024-11-06T06:00:00	7	Dirección del viento	1.61
121583	7	Sololá	702	San José Chacayá	5	Chacayá	9	Septiembre	2023-09-26T00:00:00	2024-11-06T06:00:00	1	Precipitación	0
121584	7	Sololá	702	San José Chacayá	5	Chacayá	9	Septiembre	2023-09-26T00:00:00	2024-11-06T06:00:00	8	Radiación solar	1
121585	7	Sololá	702	San José Chacayá	5	Chacayá	9	Septiembre	2023-09-26T00:00:00	2024-11-06T07:00:00	2	Temperatura media	12.8
121586	7	Sololá	702	San José Chacayá	5	Chacayá	9	Septiembre	2023-09-26T00:00:00	2024-11-06T07:00:00	4	Temperatura máxima	12.8
121587	7	Sololá	702	San José Chacayá	5	Chacayá	9	Septiembre	2023-09-26T00:00:00	2024-11-06T07:00:00	3	Temperatura mínima	11.7
121588	7	Sololá	702	San José Chacayá	5	Chacayá	9	Septiembre	2023-09-26T00:00:00	2024-11-06T07:00:00	5	Humedad	57
121589	7	Sololá	702	San José Chacayá	5	Chacayá	9	Septiembre	2023-09-26T00:00:00	2024-11-06T07:00:00	6	Velocidad del viento	3.2
121590	7	Sololá	702	San José Chacayá	5	Chacayá	9	Septiembre	2023-09-26T00:00:00	2024-11-06T07:00:00	7	Dirección del viento	1.61
121591	7	Sololá	702	San José Chacayá	5	Chacayá	9	Septiembre	2023-09-26T00:00:00	2024-11-06T07:00:00	1	Precipitación	0
121592	7	Sololá	702	San José Chacayá	5	Chacayá	9	Septiembre	2023-09-26T00:00:00	2024-11-06T07:00:00	8	Radiación solar	86
121593	7	Sololá	702	San José Chacayá	5	Chacayá	9	Septiembre	2023-09-26T00:00:00	2024-11-06T08:00:00	2	Temperatura media	16.5
121594	7	Sololá	702	San José Chacayá	5	Chacayá	9	Septiembre	2023-09-26T00:00:00	2024-11-06T08:00:00	4	Temperatura máxima	16.5
121595	7	Sololá	702	San José Chacayá	5	Chacayá	9	Septiembre	2023-09-26T00:00:00	2024-11-06T08:00:00	3	Temperatura mínima	14.2
121596	7	Sololá	702	San José Chacayá	5	Chacayá	9	Septiembre	2023-09-26T00:00:00	2024-11-06T08:00:00	5	Humedad	81
121597	7	Sololá	702	San José Chacayá	5	Chacayá	9	Septiembre	2023-09-26T00:00:00	2024-11-06T08:00:00	6	Velocidad del viento	0
121598	7	Sololá	702	San José Chacayá	5	Chacayá	9	Septiembre	2023-09-26T00:00:00	2024-11-06T08:00:00	7	Dirección del viento	0
121599	7	Sololá	702	San José Chacayá	5	Chacayá	9	Septiembre	2023-09-26T00:00:00	2024-11-06T08:00:00	1	Precipitación	0
121600	7	Sololá	702	San José Chacayá	5	Chacayá	9	Septiembre	2023-09-26T00:00:00	2024-11-06T08:00:00	8	Radiación solar	295
121601	7	Sololá	702	San José Chacayá	5	Chacayá	9	Septiembre	2023-09-26T00:00:00	2024-11-06T09:00:00	2	Temperatura media	19.8
121602	7	Sololá	702	San José Chacayá	5	Chacayá	9	Septiembre	2023-09-26T00:00:00	2024-11-06T09:00:00	4	Temperatura máxima	19.8
121603	7	Sololá	702	San José Chacayá	5	Chacayá	9	Septiembre	2023-09-26T00:00:00	2024-11-06T09:00:00	3	Temperatura mínima	18.8
121604	7	Sololá	702	San José Chacayá	5	Chacayá	9	Septiembre	2023-09-26T00:00:00	2024-11-06T09:00:00	5	Humedad	75
121605	7	Sololá	702	San José Chacayá	5	Chacayá	9	Septiembre	2023-09-26T00:00:00	2024-11-06T09:00:00	6	Velocidad del viento	3.2
121606	7	Sololá	702	San José Chacayá	5	Chacayá	9	Septiembre	2023-09-26T00:00:00	2024-11-06T09:00:00	7	Dirección del viento	1.61
121607	7	Sololá	702	San José Chacayá	5	Chacayá	9	Septiembre	2023-09-26T00:00:00	2024-11-06T09:00:00	1	Precipitación	0
121608	7	Sololá	702	San José Chacayá	5	Chacayá	9	Septiembre	2023-09-26T00:00:00	2024-11-06T09:00:00	8	Radiación solar	601
121609	7	Sololá	702	San José Chacayá	5	Chacayá	9	Septiembre	2023-09-26T00:00:00	2024-11-06T10:00:00	2	Temperatura media	21.1
121610	7	Sololá	702	San José Chacayá	5	Chacayá	9	Septiembre	2023-09-26T00:00:00	2024-11-06T10:00:00	4	Temperatura máxima	21.1
121611	7	Sololá	702	San José Chacayá	5	Chacayá	9	Septiembre	2023-09-26T00:00:00	2024-11-06T10:00:00	3	Temperatura mínima	20.6
121612	7	Sololá	702	San José Chacayá	5	Chacayá	9	Septiembre	2023-09-26T00:00:00	2024-11-06T10:00:00	5	Humedad	69
121613	7	Sololá	702	San José Chacayá	5	Chacayá	9	Septiembre	2023-09-26T00:00:00	2024-11-06T10:00:00	6	Velocidad del viento	6.4
121614	7	Sololá	702	San José Chacayá	5	Chacayá	9	Septiembre	2023-09-26T00:00:00	2024-11-06T10:00:00	7	Dirección del viento	3.22
121615	7	Sololá	702	San José Chacayá	5	Chacayá	9	Septiembre	2023-09-26T00:00:00	2024-11-06T10:00:00	1	Precipitación	0
121616	7	Sololá	702	San José Chacayá	5	Chacayá	9	Septiembre	2023-09-26T00:00:00	2024-11-06T10:00:00	8	Radiación solar	796
121617	7	Sololá	702	San José Chacayá	5	Chacayá	9	Septiembre	2023-09-26T00:00:00	2024-11-06T11:00:00	2	Temperatura media	22.7
121618	7	Sololá	702	San José Chacayá	5	Chacayá	9	Septiembre	2023-09-26T00:00:00	2024-11-06T11:00:00	4	Temperatura máxima	23.1
121619	7	Sololá	702	San José Chacayá	5	Chacayá	9	Septiembre	2023-09-26T00:00:00	2024-11-06T11:00:00	3	Temperatura mínima	22.6
121620	7	Sololá	702	San José Chacayá	5	Chacayá	9	Septiembre	2023-09-26T00:00:00	2024-11-06T11:00:00	5	Humedad	65
121621	7	Sololá	702	San José Chacayá	5	Chacayá	9	Septiembre	2023-09-26T00:00:00	2024-11-06T11:00:00	6	Velocidad del viento	8
121622	7	Sololá	702	San José Chacayá	5	Chacayá	9	Septiembre	2023-09-26T00:00:00	2024-11-06T11:00:00	7	Dirección del viento	4.02
121623	7	Sololá	702	San José Chacayá	5	Chacayá	9	Septiembre	2023-09-26T00:00:00	2024-11-06T11:00:00	1	Precipitación	0
121624	7	Sololá	702	San José Chacayá	5	Chacayá	9	Septiembre	2023-09-26T00:00:00	2024-11-06T11:00:00	8	Radiación solar	859
121625	7	Sololá	702	San José Chacayá	5	Chacayá	9	Septiembre	2023-09-26T00:00:00	2024-11-06T12:00:00	2	Temperatura media	23.4
121626	7	Sololá	702	San José Chacayá	5	Chacayá	9	Septiembre	2023-09-26T00:00:00	2024-11-06T12:00:00	4	Temperatura máxima	23.4
121627	7	Sololá	702	San José Chacayá	5	Chacayá	9	Septiembre	2023-09-26T00:00:00	2024-11-06T12:00:00	3	Temperatura mínima	22.8
121628	7	Sololá	702	San José Chacayá	5	Chacayá	9	Septiembre	2023-09-26T00:00:00	2024-11-06T12:00:00	5	Humedad	65
121629	7	Sololá	702	San José Chacayá	5	Chacayá	9	Septiembre	2023-09-26T00:00:00	2024-11-06T12:00:00	6	Velocidad del viento	6.4
121630	7	Sololá	702	San José Chacayá	5	Chacayá	9	Septiembre	2023-09-26T00:00:00	2024-11-06T12:00:00	7	Dirección del viento	3.22
121631	7	Sololá	702	San José Chacayá	5	Chacayá	9	Septiembre	2023-09-26T00:00:00	2024-11-06T12:00:00	1	Precipitación	0
121632	7	Sololá	702	San José Chacayá	5	Chacayá	9	Septiembre	2023-09-26T00:00:00	2024-11-06T12:00:00	8	Radiación solar	998
121633	7	Sololá	702	San José Chacayá	5	Chacayá	9	Septiembre	2023-09-26T00:00:00	2024-11-06T13:00:00	2	Temperatura media	22.9
121634	7	Sololá	702	San José Chacayá	5	Chacayá	9	Septiembre	2023-09-26T00:00:00	2024-11-06T13:00:00	4	Temperatura máxima	23.2
121635	7	Sololá	702	San José Chacayá	5	Chacayá	9	Septiembre	2023-09-26T00:00:00	2024-11-06T13:00:00	3	Temperatura mínima	22.2
121636	7	Sololá	702	San José Chacayá	5	Chacayá	9	Septiembre	2023-09-26T00:00:00	2024-11-06T13:00:00	5	Humedad	70
121637	7	Sololá	702	San José Chacayá	5	Chacayá	9	Septiembre	2023-09-26T00:00:00	2024-11-06T13:00:00	6	Velocidad del viento	6.4
121638	7	Sololá	702	San José Chacayá	5	Chacayá	9	Septiembre	2023-09-26T00:00:00	2024-11-06T13:00:00	7	Dirección del viento	3.22
121639	7	Sololá	702	San José Chacayá	5	Chacayá	9	Septiembre	2023-09-26T00:00:00	2024-11-06T13:00:00	1	Precipitación	0
121640	7	Sololá	702	San José Chacayá	5	Chacayá	9	Septiembre	2023-09-26T00:00:00	2024-11-06T13:00:00	8	Radiación solar	1033
121641	7	Sololá	702	San José Chacayá	5	Chacayá	9	Septiembre	2023-09-26T00:00:00	2024-11-06T14:00:00	2	Temperatura media	21.3
121642	7	Sololá	702	San José Chacayá	5	Chacayá	9	Septiembre	2023-09-26T00:00:00	2024-11-06T14:00:00	4	Temperatura máxima	21.3
121643	7	Sololá	702	San José Chacayá	5	Chacayá	9	Septiembre	2023-09-26T00:00:00	2024-11-06T14:00:00	3	Temperatura mínima	20.2
121644	7	Sololá	702	San José Chacayá	5	Chacayá	9	Septiembre	2023-09-26T00:00:00	2024-11-06T14:00:00	5	Humedad	76
121645	7	Sololá	702	San José Chacayá	5	Chacayá	9	Septiembre	2023-09-26T00:00:00	2024-11-06T14:00:00	6	Velocidad del viento	6.4
121646	7	Sololá	702	San José Chacayá	5	Chacayá	9	Septiembre	2023-09-26T00:00:00	2024-11-06T14:00:00	7	Dirección del viento	3.22
121647	7	Sololá	702	San José Chacayá	5	Chacayá	9	Septiembre	2023-09-26T00:00:00	2024-11-06T14:00:00	1	Precipitación	0
121648	7	Sololá	702	San José Chacayá	5	Chacayá	9	Septiembre	2023-09-26T00:00:00	2024-11-06T14:00:00	8	Radiación solar	503
121649	7	Sololá	702	San José Chacayá	5	Chacayá	9	Septiembre	2023-09-26T00:00:00	2024-11-06T15:00:00	2	Temperatura media	18.7
121650	7	Sololá	702	San José Chacayá	5	Chacayá	9	Septiembre	2023-09-26T00:00:00	2024-11-06T15:00:00	4	Temperatura máxima	19.8
121651	7	Sololá	702	San José Chacayá	5	Chacayá	9	Septiembre	2023-09-26T00:00:00	2024-11-06T15:00:00	3	Temperatura mínima	18.7
121652	7	Sololá	702	San José Chacayá	5	Chacayá	9	Septiembre	2023-09-26T00:00:00	2024-11-06T15:00:00	5	Humedad	79
121653	7	Sololá	702	San José Chacayá	5	Chacayá	9	Septiembre	2023-09-26T00:00:00	2024-11-06T15:00:00	6	Velocidad del viento	1.6
121654	7	Sololá	702	San José Chacayá	5	Chacayá	9	Septiembre	2023-09-26T00:00:00	2024-11-06T15:00:00	7	Dirección del viento	0.8
121655	7	Sololá	702	San José Chacayá	5	Chacayá	9	Septiembre	2023-09-26T00:00:00	2024-11-06T15:00:00	1	Precipitación	2
121656	7	Sololá	702	San José Chacayá	5	Chacayá	9	Septiembre	2023-09-26T00:00:00	2024-11-06T15:00:00	8	Radiación solar	88
121657	7	Sololá	702	San José Chacayá	5	Chacayá	9	Septiembre	2023-09-26T00:00:00	2024-11-06T16:00:00	2	Temperatura media	17.7
121658	7	Sololá	702	San José Chacayá	5	Chacayá	9	Septiembre	2023-09-26T00:00:00	2024-11-06T16:00:00	4	Temperatura máxima	18.2
121659	7	Sololá	702	San José Chacayá	5	Chacayá	9	Septiembre	2023-09-26T00:00:00	2024-11-06T16:00:00	3	Temperatura mínima	17.7
121660	7	Sololá	702	San José Chacayá	5	Chacayá	9	Septiembre	2023-09-26T00:00:00	2024-11-06T16:00:00	5	Humedad	49
121661	7	Sololá	702	San José Chacayá	5	Chacayá	9	Septiembre	2023-09-26T00:00:00	2024-11-06T16:00:00	6	Velocidad del viento	0
121662	7	Sololá	702	San José Chacayá	5	Chacayá	9	Septiembre	2023-09-26T00:00:00	2024-11-06T16:00:00	7	Dirección del viento	0
121663	7	Sololá	702	San José Chacayá	5	Chacayá	9	Septiembre	2023-09-26T00:00:00	2024-11-06T16:00:00	1	Precipitación	6.8
121664	7	Sololá	702	San José Chacayá	5	Chacayá	9	Septiembre	2023-09-26T00:00:00	2024-11-06T16:00:00	8	Radiación solar	62
121665	7	Sololá	702	San José Chacayá	5	Chacayá	9	Septiembre	2023-09-26T00:00:00	2024-11-06T17:00:00	2	Temperatura media	15.6
121666	7	Sololá	702	San José Chacayá	5	Chacayá	9	Septiembre	2023-09-26T00:00:00	2024-11-06T17:00:00	4	Temperatura máxima	16.1
121667	7	Sololá	702	San José Chacayá	5	Chacayá	9	Septiembre	2023-09-26T00:00:00	2024-11-06T17:00:00	3	Temperatura mínima	15.6
121668	7	Sololá	702	San José Chacayá	5	Chacayá	9	Septiembre	2023-09-26T00:00:00	2024-11-06T17:00:00	5	Humedad	51
121669	7	Sololá	702	San José Chacayá	5	Chacayá	9	Septiembre	2023-09-26T00:00:00	2024-11-06T17:00:00	6	Velocidad del viento	0
121670	7	Sololá	702	San José Chacayá	5	Chacayá	9	Septiembre	2023-09-26T00:00:00	2024-11-06T17:00:00	7	Dirección del viento	0
121671	7	Sololá	702	San José Chacayá	5	Chacayá	9	Septiembre	2023-09-26T00:00:00	2024-11-06T17:00:00	1	Precipitación	2.8
121672	7	Sololá	702	San José Chacayá	5	Chacayá	9	Septiembre	2023-09-26T00:00:00	2024-11-06T17:00:00	8	Radiación solar	1
121673	7	Sololá	702	San José Chacayá	5	Chacayá	9	Septiembre	2023-09-26T00:00:00	2024-11-06T18:00:00	2	Temperatura media	15.1
121674	7	Sololá	702	San José Chacayá	5	Chacayá	9	Septiembre	2023-09-26T00:00:00	2024-11-06T18:00:00	4	Temperatura máxima	15.3
121675	7	Sololá	702	San José Chacayá	5	Chacayá	9	Septiembre	2023-09-26T00:00:00	2024-11-06T18:00:00	3	Temperatura mínima	15.1
121676	7	Sololá	702	San José Chacayá	5	Chacayá	9	Septiembre	2023-09-26T00:00:00	2024-11-06T18:00:00	5	Humedad	32
121677	7	Sololá	702	San José Chacayá	5	Chacayá	9	Septiembre	2023-09-26T00:00:00	2024-11-06T18:00:00	6	Velocidad del viento	0
121678	7	Sololá	702	San José Chacayá	5	Chacayá	9	Septiembre	2023-09-26T00:00:00	2024-11-06T18:00:00	7	Dirección del viento	0
121679	7	Sololá	702	San José Chacayá	5	Chacayá	9	Septiembre	2023-09-26T00:00:00	2024-11-06T18:00:00	1	Precipitación	0.4
121680	7	Sololá	702	San José Chacayá	5	Chacayá	9	Septiembre	2023-09-26T00:00:00	2024-11-06T18:00:00	8	Radiación solar	0
121681	7	Sololá	702	San José Chacayá	5	Chacayá	9	Septiembre	2023-09-26T00:00:00	2024-11-06T19:00:00	2	Temperatura media	15
121682	7	Sololá	702	San José Chacayá	5	Chacayá	9	Septiembre	2023-09-26T00:00:00	2024-11-06T19:00:00	4	Temperatura máxima	15.2
121683	7	Sololá	702	San José Chacayá	5	Chacayá	9	Septiembre	2023-09-26T00:00:00	2024-11-06T19:00:00	3	Temperatura mínima	15
121684	7	Sololá	702	San José Chacayá	5	Chacayá	9	Septiembre	2023-09-26T00:00:00	2024-11-06T19:00:00	5	Humedad	26
121685	7	Sololá	702	San José Chacayá	5	Chacayá	9	Septiembre	2023-09-26T00:00:00	2024-11-06T19:00:00	6	Velocidad del viento	0
121686	7	Sololá	702	San José Chacayá	5	Chacayá	9	Septiembre	2023-09-26T00:00:00	2024-11-06T19:00:00	7	Dirección del viento	0
121687	7	Sololá	702	San José Chacayá	5	Chacayá	9	Septiembre	2023-09-26T00:00:00	2024-11-06T19:00:00	1	Precipitación	0.8
121688	7	Sololá	702	San José Chacayá	5	Chacayá	9	Septiembre	2023-09-26T00:00:00	2024-11-06T19:00:00	8	Radiación solar	0
121689	7	Sololá	702	San José Chacayá	5	Chacayá	9	Septiembre	2023-09-26T00:00:00	2024-11-06T20:00:00	2	Temperatura media	14.9
121690	7	Sololá	702	San José Chacayá	5	Chacayá	9	Septiembre	2023-09-26T00:00:00	2024-11-06T20:00:00	4	Temperatura máxima	15
121691	7	Sololá	702	San José Chacayá	5	Chacayá	9	Septiembre	2023-09-26T00:00:00	2024-11-06T20:00:00	3	Temperatura mínima	14.9
121692	7	Sololá	702	San José Chacayá	5	Chacayá	9	Septiembre	2023-09-26T00:00:00	2024-11-06T20:00:00	5	Humedad	18
121693	7	Sololá	702	San José Chacayá	5	Chacayá	9	Septiembre	2023-09-26T00:00:00	2024-11-06T20:00:00	6	Velocidad del viento	0
121694	7	Sololá	702	San José Chacayá	5	Chacayá	9	Septiembre	2023-09-26T00:00:00	2024-11-06T20:00:00	7	Dirección del viento	0
121695	7	Sololá	702	San José Chacayá	5	Chacayá	9	Septiembre	2023-09-26T00:00:00	2024-11-06T20:00:00	1	Precipitación	0.4
121696	7	Sololá	702	San José Chacayá	5	Chacayá	9	Septiembre	2023-09-26T00:00:00	2024-11-06T20:00:00	8	Radiación solar	0
121697	7	Sololá	702	San José Chacayá	5	Chacayá	9	Septiembre	2023-09-26T00:00:00	2024-11-06T21:00:00	2	Temperatura media	14.9
121698	7	Sololá	702	San José Chacayá	5	Chacayá	9	Septiembre	2023-09-26T00:00:00	2024-11-06T21:00:00	4	Temperatura máxima	14.9
121699	7	Sololá	702	San José Chacayá	5	Chacayá	9	Septiembre	2023-09-26T00:00:00	2024-11-06T21:00:00	3	Temperatura mínima	14.9
121700	7	Sololá	702	San José Chacayá	5	Chacayá	9	Septiembre	2023-09-26T00:00:00	2024-11-06T21:00:00	5	Humedad	11
121701	7	Sololá	702	San José Chacayá	5	Chacayá	9	Septiembre	2023-09-26T00:00:00	2024-11-06T21:00:00	6	Velocidad del viento	0
121702	7	Sololá	702	San José Chacayá	5	Chacayá	9	Septiembre	2023-09-26T00:00:00	2024-11-06T21:00:00	7	Dirección del viento	0
121703	7	Sololá	702	San José Chacayá	5	Chacayá	9	Septiembre	2023-09-26T00:00:00	2024-11-06T21:00:00	1	Precipitación	0
121704	7	Sololá	702	San José Chacayá	5	Chacayá	9	Septiembre	2023-09-26T00:00:00	2024-11-06T21:00:00	8	Radiación solar	0
121705	7	Sololá	702	San José Chacayá	5	Chacayá	9	Septiembre	2023-09-26T00:00:00	2024-11-06T22:00:00	2	Temperatura media	14.4
121706	7	Sololá	702	San José Chacayá	5	Chacayá	9	Septiembre	2023-09-26T00:00:00	2024-11-06T22:00:00	4	Temperatura máxima	14.8
121707	7	Sololá	702	San José Chacayá	5	Chacayá	9	Septiembre	2023-09-26T00:00:00	2024-11-06T22:00:00	3	Temperatura mínima	14.4
121708	7	Sololá	702	San José Chacayá	5	Chacayá	9	Septiembre	2023-09-26T00:00:00	2024-11-06T22:00:00	5	Humedad	19
121709	7	Sololá	702	San José Chacayá	5	Chacayá	9	Septiembre	2023-09-26T00:00:00	2024-11-06T22:00:00	6	Velocidad del viento	0
121710	7	Sololá	702	San José Chacayá	5	Chacayá	9	Septiembre	2023-09-26T00:00:00	2024-11-06T22:00:00	7	Dirección del viento	0
121711	7	Sololá	702	San José Chacayá	5	Chacayá	9	Septiembre	2023-09-26T00:00:00	2024-11-06T22:00:00	1	Precipitación	0
121712	7	Sololá	702	San José Chacayá	5	Chacayá	9	Septiembre	2023-09-26T00:00:00	2024-11-06T22:00:00	8	Radiación solar	0
121713	7	Sololá	702	San José Chacayá	5	Chacayá	9	Septiembre	2023-09-26T00:00:00	2024-11-06T23:00:00	2	Temperatura media	13.8
121714	7	Sololá	702	San José Chacayá	5	Chacayá	9	Septiembre	2023-09-26T00:00:00	2024-11-06T23:00:00	4	Temperatura máxima	14.3
121715	7	Sololá	702	San José Chacayá	5	Chacayá	9	Septiembre	2023-09-26T00:00:00	2024-11-06T23:00:00	3	Temperatura mínima	13.8
121716	7	Sololá	702	San José Chacayá	5	Chacayá	9	Septiembre	2023-09-26T00:00:00	2024-11-06T23:00:00	5	Humedad	26
121717	7	Sololá	702	San José Chacayá	5	Chacayá	9	Septiembre	2023-09-26T00:00:00	2024-11-06T23:00:00	6	Velocidad del viento	0
121718	7	Sololá	702	San José Chacayá	5	Chacayá	9	Septiembre	2023-09-26T00:00:00	2024-11-06T23:00:00	7	Dirección del viento	0
121719	7	Sololá	702	San José Chacayá	5	Chacayá	9	Septiembre	2023-09-26T00:00:00	2024-11-06T23:00:00	1	Precipitación	0
121720	7	Sololá	702	San José Chacayá	5	Chacayá	9	Septiembre	2023-09-26T00:00:00	2024-11-06T23:00:00	8	Radiación solar	0
121721	7	Sololá	702	San José Chacayá	5	Chacayá	9	Septiembre	2023-09-27T00:00:00	2024-11-06T00:00:00	2	Temperatura media	13.5
121722	7	Sololá	702	San José Chacayá	5	Chacayá	9	Septiembre	2023-09-27T00:00:00	2024-11-06T00:00:00	4	Temperatura máxima	13.6
121723	7	Sololá	702	San José Chacayá	5	Chacayá	9	Septiembre	2023-09-27T00:00:00	2024-11-06T00:00:00	3	Temperatura mínima	13.5
121724	7	Sololá	702	San José Chacayá	5	Chacayá	9	Septiembre	2023-09-27T00:00:00	2024-11-06T00:00:00	5	Humedad	18
121725	7	Sololá	702	San José Chacayá	5	Chacayá	9	Septiembre	2023-09-27T00:00:00	2024-11-06T00:00:00	6	Velocidad del viento	1.6
121726	7	Sololá	702	San José Chacayá	5	Chacayá	9	Septiembre	2023-09-27T00:00:00	2024-11-06T00:00:00	7	Dirección del viento	0.8
121727	7	Sololá	702	San José Chacayá	5	Chacayá	9	Septiembre	2023-09-27T00:00:00	2024-11-06T00:00:00	1	Precipitación	0
121728	7	Sololá	702	San José Chacayá	5	Chacayá	9	Septiembre	2023-09-27T00:00:00	2024-11-06T00:00:00	8	Radiación solar	0
121729	7	Sololá	702	San José Chacayá	5	Chacayá	9	Septiembre	2023-09-27T00:00:00	2024-11-06T01:00:00	2	Temperatura media	13.4
121730	7	Sololá	702	San José Chacayá	5	Chacayá	9	Septiembre	2023-09-27T00:00:00	2024-11-06T01:00:00	4	Temperatura máxima	13.4
121731	7	Sololá	702	San José Chacayá	5	Chacayá	9	Septiembre	2023-09-27T00:00:00	2024-11-06T01:00:00	3	Temperatura mínima	13.3
121732	7	Sololá	702	San José Chacayá	5	Chacayá	9	Septiembre	2023-09-27T00:00:00	2024-11-06T01:00:00	5	Humedad	15
121733	7	Sololá	702	San José Chacayá	5	Chacayá	9	Septiembre	2023-09-27T00:00:00	2024-11-06T01:00:00	6	Velocidad del viento	1.6
121734	7	Sololá	702	San José Chacayá	5	Chacayá	9	Septiembre	2023-09-27T00:00:00	2024-11-06T01:00:00	7	Dirección del viento	0.8
121735	7	Sololá	702	San José Chacayá	5	Chacayá	9	Septiembre	2023-09-27T00:00:00	2024-11-06T01:00:00	1	Precipitación	0
121736	7	Sololá	702	San José Chacayá	5	Chacayá	9	Septiembre	2023-09-27T00:00:00	2024-11-06T01:00:00	8	Radiación solar	0
121737	7	Sololá	702	San José Chacayá	5	Chacayá	9	Septiembre	2023-09-27T00:00:00	2024-11-06T02:00:00	2	Temperatura media	13.3
121738	7	Sololá	702	San José Chacayá	5	Chacayá	9	Septiembre	2023-09-27T00:00:00	2024-11-06T02:00:00	4	Temperatura máxima	13.4
121739	7	Sololá	702	San José Chacayá	5	Chacayá	9	Septiembre	2023-09-27T00:00:00	2024-11-06T02:00:00	3	Temperatura mínima	13.3
121740	7	Sololá	702	San José Chacayá	5	Chacayá	9	Septiembre	2023-09-27T00:00:00	2024-11-06T02:00:00	5	Humedad	20
121741	7	Sololá	702	San José Chacayá	5	Chacayá	9	Septiembre	2023-09-27T00:00:00	2024-11-06T02:00:00	6	Velocidad del viento	1.6
121742	7	Sololá	702	San José Chacayá	5	Chacayá	9	Septiembre	2023-09-27T00:00:00	2024-11-06T02:00:00	7	Dirección del viento	0.8
121743	7	Sololá	702	San José Chacayá	5	Chacayá	9	Septiembre	2023-09-27T00:00:00	2024-11-06T02:00:00	1	Precipitación	0
121744	7	Sololá	702	San José Chacayá	5	Chacayá	9	Septiembre	2023-09-27T00:00:00	2024-11-06T02:00:00	8	Radiación solar	0
121745	7	Sololá	702	San José Chacayá	5	Chacayá	9	Septiembre	2023-09-27T00:00:00	2024-11-06T03:00:00	2	Temperatura media	12.9
121746	7	Sololá	702	San José Chacayá	5	Chacayá	9	Septiembre	2023-09-27T00:00:00	2024-11-06T03:00:00	4	Temperatura máxima	13.3
121747	7	Sololá	702	San José Chacayá	5	Chacayá	9	Septiembre	2023-09-27T00:00:00	2024-11-06T03:00:00	3	Temperatura mínima	12.9
121748	7	Sololá	702	San José Chacayá	5	Chacayá	9	Septiembre	2023-09-27T00:00:00	2024-11-06T03:00:00	5	Humedad	34
121749	7	Sololá	702	San José Chacayá	5	Chacayá	9	Septiembre	2023-09-27T00:00:00	2024-11-06T03:00:00	6	Velocidad del viento	1.6
121750	7	Sololá	702	San José Chacayá	5	Chacayá	9	Septiembre	2023-09-27T00:00:00	2024-11-06T03:00:00	7	Dirección del viento	0.8
121751	7	Sololá	702	San José Chacayá	5	Chacayá	9	Septiembre	2023-09-27T00:00:00	2024-11-06T03:00:00	1	Precipitación	0
121752	7	Sololá	702	San José Chacayá	5	Chacayá	9	Septiembre	2023-09-27T00:00:00	2024-11-06T03:00:00	8	Radiación solar	0
121753	7	Sololá	702	San José Chacayá	5	Chacayá	9	Septiembre	2023-09-27T00:00:00	2024-11-06T04:00:00	2	Temperatura media	12.9
121754	7	Sololá	702	San José Chacayá	5	Chacayá	9	Septiembre	2023-09-27T00:00:00	2024-11-06T04:00:00	4	Temperatura máxima	12.9
121755	7	Sololá	702	San José Chacayá	5	Chacayá	9	Septiembre	2023-09-27T00:00:00	2024-11-06T04:00:00	3	Temperatura mínima	12.8
121756	7	Sololá	702	San José Chacayá	5	Chacayá	9	Septiembre	2023-09-27T00:00:00	2024-11-06T04:00:00	5	Humedad	28
121757	7	Sololá	702	San José Chacayá	5	Chacayá	9	Septiembre	2023-09-27T00:00:00	2024-11-06T04:00:00	6	Velocidad del viento	1.6
121758	7	Sololá	702	San José Chacayá	5	Chacayá	9	Septiembre	2023-09-27T00:00:00	2024-11-06T04:00:00	7	Dirección del viento	0.8
121759	7	Sololá	702	San José Chacayá	5	Chacayá	9	Septiembre	2023-09-27T00:00:00	2024-11-06T04:00:00	1	Precipitación	0
121760	7	Sololá	702	San José Chacayá	5	Chacayá	9	Septiembre	2023-09-27T00:00:00	2024-11-06T04:00:00	8	Radiación solar	0
121761	7	Sololá	702	San José Chacayá	5	Chacayá	9	Septiembre	2023-09-27T00:00:00	2024-11-06T05:00:00	2	Temperatura media	12.4
121762	7	Sololá	702	San José Chacayá	5	Chacayá	9	Septiembre	2023-09-27T00:00:00	2024-11-06T05:00:00	4	Temperatura máxima	12.7
121763	7	Sololá	702	San José Chacayá	5	Chacayá	9	Septiembre	2023-09-27T00:00:00	2024-11-06T05:00:00	3	Temperatura mínima	12.4
121764	7	Sololá	702	San José Chacayá	5	Chacayá	9	Septiembre	2023-09-27T00:00:00	2024-11-06T05:00:00	5	Humedad	36
121765	7	Sololá	702	San José Chacayá	5	Chacayá	9	Septiembre	2023-09-27T00:00:00	2024-11-06T05:00:00	6	Velocidad del viento	3.2
121766	7	Sololá	702	San José Chacayá	5	Chacayá	9	Septiembre	2023-09-27T00:00:00	2024-11-06T05:00:00	7	Dirección del viento	1.61
121767	7	Sololá	702	San José Chacayá	5	Chacayá	9	Septiembre	2023-09-27T00:00:00	2024-11-06T05:00:00	1	Precipitación	0
121768	7	Sololá	702	San José Chacayá	5	Chacayá	9	Septiembre	2023-09-27T00:00:00	2024-11-06T05:00:00	8	Radiación solar	0
121769	7	Sololá	702	San José Chacayá	5	Chacayá	9	Septiembre	2023-09-27T00:00:00	2024-11-06T06:00:00	2	Temperatura media	12.1
121770	7	Sololá	702	San José Chacayá	5	Chacayá	9	Septiembre	2023-09-27T00:00:00	2024-11-06T06:00:00	4	Temperatura máxima	12.2
121771	7	Sololá	702	San José Chacayá	5	Chacayá	9	Septiembre	2023-09-27T00:00:00	2024-11-06T06:00:00	3	Temperatura mínima	12.1
121772	7	Sololá	702	San José Chacayá	5	Chacayá	9	Septiembre	2023-09-27T00:00:00	2024-11-06T06:00:00	5	Humedad	42
121773	7	Sololá	702	San José Chacayá	5	Chacayá	9	Septiembre	2023-09-27T00:00:00	2024-11-06T06:00:00	6	Velocidad del viento	3.2
121774	7	Sololá	702	San José Chacayá	5	Chacayá	9	Septiembre	2023-09-27T00:00:00	2024-11-06T06:00:00	7	Dirección del viento	1.61
121775	7	Sololá	702	San José Chacayá	5	Chacayá	9	Septiembre	2023-09-27T00:00:00	2024-11-06T06:00:00	1	Precipitación	0
121776	7	Sololá	702	San José Chacayá	5	Chacayá	9	Septiembre	2023-09-27T00:00:00	2024-11-06T06:00:00	8	Radiación solar	1
121777	7	Sololá	702	San José Chacayá	5	Chacayá	9	Septiembre	2023-09-27T00:00:00	2024-11-06T07:00:00	2	Temperatura media	13.2
121778	7	Sololá	702	San José Chacayá	5	Chacayá	9	Septiembre	2023-09-27T00:00:00	2024-11-06T07:00:00	4	Temperatura máxima	13.2
121779	7	Sololá	702	San José Chacayá	5	Chacayá	9	Septiembre	2023-09-27T00:00:00	2024-11-06T07:00:00	3	Temperatura mínima	12.3
121780	7	Sololá	702	San José Chacayá	5	Chacayá	9	Septiembre	2023-09-27T00:00:00	2024-11-06T07:00:00	5	Humedad	56
121781	7	Sololá	702	San José Chacayá	5	Chacayá	9	Septiembre	2023-09-27T00:00:00	2024-11-06T07:00:00	6	Velocidad del viento	4.8
121782	7	Sololá	702	San José Chacayá	5	Chacayá	9	Septiembre	2023-09-27T00:00:00	2024-11-06T07:00:00	7	Dirección del viento	2.41
121783	7	Sololá	702	San José Chacayá	5	Chacayá	9	Septiembre	2023-09-27T00:00:00	2024-11-06T07:00:00	1	Precipitación	0
121784	7	Sololá	702	San José Chacayá	5	Chacayá	9	Septiembre	2023-09-27T00:00:00	2024-11-06T07:00:00	8	Radiación solar	69
121785	7	Sololá	702	San José Chacayá	5	Chacayá	9	Septiembre	2023-09-27T00:00:00	2024-11-06T08:00:00	2	Temperatura media	17.3
121786	7	Sololá	702	San José Chacayá	5	Chacayá	9	Septiembre	2023-09-27T00:00:00	2024-11-06T08:00:00	4	Temperatura máxima	17.3
121787	7	Sololá	702	San José Chacayá	5	Chacayá	9	Septiembre	2023-09-27T00:00:00	2024-11-06T08:00:00	3	Temperatura mínima	14.7
121788	7	Sololá	702	San José Chacayá	5	Chacayá	9	Septiembre	2023-09-27T00:00:00	2024-11-06T08:00:00	5	Humedad	82
121789	7	Sololá	702	San José Chacayá	5	Chacayá	9	Septiembre	2023-09-27T00:00:00	2024-11-06T08:00:00	6	Velocidad del viento	0
121790	7	Sololá	702	San José Chacayá	5	Chacayá	9	Septiembre	2023-09-27T00:00:00	2024-11-06T08:00:00	7	Dirección del viento	0
121791	7	Sololá	702	San José Chacayá	5	Chacayá	9	Septiembre	2023-09-27T00:00:00	2024-11-06T08:00:00	1	Precipitación	0
121792	7	Sololá	702	San José Chacayá	5	Chacayá	9	Septiembre	2023-09-27T00:00:00	2024-11-06T08:00:00	8	Radiación solar	314
121793	7	Sololá	702	San José Chacayá	5	Chacayá	9	Septiembre	2023-09-27T00:00:00	2024-11-06T09:00:00	2	Temperatura media	19.6
121794	7	Sololá	702	San José Chacayá	5	Chacayá	9	Septiembre	2023-09-27T00:00:00	2024-11-06T09:00:00	4	Temperatura máxima	19.6
121795	7	Sololá	702	San José Chacayá	5	Chacayá	9	Septiembre	2023-09-27T00:00:00	2024-11-06T09:00:00	3	Temperatura mínima	18.5
121796	7	Sololá	702	San José Chacayá	5	Chacayá	9	Septiembre	2023-09-27T00:00:00	2024-11-06T09:00:00	5	Humedad	76
121797	7	Sololá	702	San José Chacayá	5	Chacayá	9	Septiembre	2023-09-27T00:00:00	2024-11-06T09:00:00	6	Velocidad del viento	3.2
121798	7	Sololá	702	San José Chacayá	5	Chacayá	9	Septiembre	2023-09-27T00:00:00	2024-11-06T09:00:00	7	Dirección del viento	1.61
121799	7	Sololá	702	San José Chacayá	5	Chacayá	9	Septiembre	2023-09-27T00:00:00	2024-11-06T09:00:00	1	Precipitación	0
121800	7	Sololá	702	San José Chacayá	5	Chacayá	9	Septiembre	2023-09-27T00:00:00	2024-11-06T09:00:00	8	Radiación solar	616
121801	7	Sololá	702	San José Chacayá	5	Chacayá	9	Septiembre	2023-09-27T00:00:00	2024-11-06T10:00:00	2	Temperatura media	21.3
121802	7	Sololá	702	San José Chacayá	5	Chacayá	9	Septiembre	2023-09-27T00:00:00	2024-11-06T10:00:00	4	Temperatura máxima	21.4
121803	7	Sololá	702	San José Chacayá	5	Chacayá	9	Septiembre	2023-09-27T00:00:00	2024-11-06T10:00:00	3	Temperatura mínima	20.8
121804	7	Sololá	702	San José Chacayá	5	Chacayá	9	Septiembre	2023-09-27T00:00:00	2024-11-06T10:00:00	5	Humedad	71
121805	7	Sololá	702	San José Chacayá	5	Chacayá	9	Septiembre	2023-09-27T00:00:00	2024-11-06T10:00:00	6	Velocidad del viento	4.8
121806	7	Sololá	702	San José Chacayá	5	Chacayá	9	Septiembre	2023-09-27T00:00:00	2024-11-06T10:00:00	7	Dirección del viento	2.41
121807	7	Sololá	702	San José Chacayá	5	Chacayá	9	Septiembre	2023-09-27T00:00:00	2024-11-06T10:00:00	1	Precipitación	0
121808	7	Sololá	702	San José Chacayá	5	Chacayá	9	Septiembre	2023-09-27T00:00:00	2024-11-06T10:00:00	8	Radiación solar	698
121809	7	Sololá	702	San José Chacayá	5	Chacayá	9	Septiembre	2023-09-27T00:00:00	2024-11-06T11:00:00	2	Temperatura media	22.3
121810	7	Sololá	702	San José Chacayá	5	Chacayá	9	Septiembre	2023-09-27T00:00:00	2024-11-06T11:00:00	4	Temperatura máxima	22.3
121811	7	Sololá	702	San José Chacayá	5	Chacayá	9	Septiembre	2023-09-27T00:00:00	2024-11-06T11:00:00	3	Temperatura mínima	21.6
121812	7	Sololá	702	San José Chacayá	5	Chacayá	9	Septiembre	2023-09-27T00:00:00	2024-11-06T11:00:00	5	Humedad	67
121813	7	Sololá	702	San José Chacayá	5	Chacayá	9	Septiembre	2023-09-27T00:00:00	2024-11-06T11:00:00	6	Velocidad del viento	4.8
121814	7	Sololá	702	San José Chacayá	5	Chacayá	9	Septiembre	2023-09-27T00:00:00	2024-11-06T11:00:00	7	Dirección del viento	2.41
121815	7	Sololá	702	San José Chacayá	5	Chacayá	9	Septiembre	2023-09-27T00:00:00	2024-11-06T11:00:00	1	Precipitación	0
121816	7	Sololá	702	San José Chacayá	5	Chacayá	9	Septiembre	2023-09-27T00:00:00	2024-11-06T11:00:00	8	Radiación solar	851
121817	7	Sololá	702	San José Chacayá	5	Chacayá	9	Septiembre	2023-09-27T00:00:00	2024-11-06T12:00:00	2	Temperatura media	22.9
121818	7	Sololá	702	San José Chacayá	5	Chacayá	9	Septiembre	2023-09-27T00:00:00	2024-11-06T12:00:00	4	Temperatura máxima	22.9
121819	7	Sololá	702	San José Chacayá	5	Chacayá	9	Septiembre	2023-09-27T00:00:00	2024-11-06T12:00:00	3	Temperatura mínima	22.3
121820	7	Sololá	702	San José Chacayá	5	Chacayá	9	Septiembre	2023-09-27T00:00:00	2024-11-06T12:00:00	5	Humedad	65
121821	7	Sololá	702	San José Chacayá	5	Chacayá	9	Septiembre	2023-09-27T00:00:00	2024-11-06T12:00:00	6	Velocidad del viento	6.4
121822	7	Sololá	702	San José Chacayá	5	Chacayá	9	Septiembre	2023-09-27T00:00:00	2024-11-06T12:00:00	7	Dirección del viento	3.22
121823	7	Sololá	702	San José Chacayá	5	Chacayá	9	Septiembre	2023-09-27T00:00:00	2024-11-06T12:00:00	1	Precipitación	0
121824	7	Sololá	702	San José Chacayá	5	Chacayá	9	Septiembre	2023-09-27T00:00:00	2024-11-06T12:00:00	8	Radiación solar	964
121825	7	Sololá	702	San José Chacayá	5	Chacayá	9	Septiembre	2023-09-27T00:00:00	2024-11-06T13:00:00	2	Temperatura media	22.2
121826	7	Sololá	702	San José Chacayá	5	Chacayá	9	Septiembre	2023-09-27T00:00:00	2024-11-06T13:00:00	4	Temperatura máxima	23.1
121827	7	Sololá	702	San José Chacayá	5	Chacayá	9	Septiembre	2023-09-27T00:00:00	2024-11-06T13:00:00	3	Temperatura mínima	22.2
121828	7	Sololá	702	San José Chacayá	5	Chacayá	9	Septiembre	2023-09-27T00:00:00	2024-11-06T13:00:00	5	Humedad	74
121829	7	Sololá	702	San José Chacayá	5	Chacayá	9	Septiembre	2023-09-27T00:00:00	2024-11-06T13:00:00	6	Velocidad del viento	8
121830	7	Sololá	702	San José Chacayá	5	Chacayá	9	Septiembre	2023-09-27T00:00:00	2024-11-06T13:00:00	7	Dirección del viento	4.02
121831	7	Sololá	702	San José Chacayá	5	Chacayá	9	Septiembre	2023-09-27T00:00:00	2024-11-06T13:00:00	1	Precipitación	0
121832	7	Sololá	702	San José Chacayá	5	Chacayá	9	Septiembre	2023-09-27T00:00:00	2024-11-06T13:00:00	8	Radiación solar	1015
121833	7	Sololá	702	San José Chacayá	5	Chacayá	9	Septiembre	2023-09-27T00:00:00	2024-11-06T14:00:00	2	Temperatura media	20.4
121834	7	Sololá	702	San José Chacayá	5	Chacayá	9	Septiembre	2023-09-27T00:00:00	2024-11-06T14:00:00	4	Temperatura máxima	22.3
121835	7	Sololá	702	San José Chacayá	5	Chacayá	9	Septiembre	2023-09-27T00:00:00	2024-11-06T14:00:00	3	Temperatura mínima	20.4
121836	7	Sololá	702	San José Chacayá	5	Chacayá	9	Septiembre	2023-09-27T00:00:00	2024-11-06T14:00:00	5	Humedad	78
121837	7	Sololá	702	San José Chacayá	5	Chacayá	9	Septiembre	2023-09-27T00:00:00	2024-11-06T14:00:00	6	Velocidad del viento	8
121838	7	Sololá	702	San José Chacayá	5	Chacayá	9	Septiembre	2023-09-27T00:00:00	2024-11-06T14:00:00	7	Dirección del viento	4.02
121839	7	Sololá	702	San José Chacayá	5	Chacayá	9	Septiembre	2023-09-27T00:00:00	2024-11-06T14:00:00	1	Precipitación	0.4
121840	7	Sololá	702	San José Chacayá	5	Chacayá	9	Septiembre	2023-09-27T00:00:00	2024-11-06T14:00:00	8	Radiación solar	752
121841	7	Sololá	702	San José Chacayá	5	Chacayá	9	Septiembre	2023-09-27T00:00:00	2024-11-06T15:00:00	2	Temperatura media	16.2
121842	7	Sololá	702	San José Chacayá	5	Chacayá	9	Septiembre	2023-09-27T00:00:00	2024-11-06T15:00:00	4	Temperatura máxima	18.2
121843	7	Sololá	702	San José Chacayá	5	Chacayá	9	Septiembre	2023-09-27T00:00:00	2024-11-06T15:00:00	3	Temperatura mínima	16.2
121844	7	Sololá	702	San José Chacayá	5	Chacayá	9	Septiembre	2023-09-27T00:00:00	2024-11-06T15:00:00	5	Humedad	71
121845	7	Sololá	702	San José Chacayá	5	Chacayá	9	Septiembre	2023-09-27T00:00:00	2024-11-06T15:00:00	6	Velocidad del viento	4.8
121846	7	Sololá	702	San José Chacayá	5	Chacayá	9	Septiembre	2023-09-27T00:00:00	2024-11-06T15:00:00	7	Dirección del viento	2.41
121847	7	Sololá	702	San José Chacayá	5	Chacayá	9	Septiembre	2023-09-27T00:00:00	2024-11-06T15:00:00	1	Precipitación	6.8
121848	7	Sololá	702	San José Chacayá	5	Chacayá	9	Septiembre	2023-09-27T00:00:00	2024-11-06T15:00:00	8	Radiación solar	2
121849	7	Sololá	702	San José Chacayá	5	Chacayá	9	Septiembre	2023-09-27T00:00:00	2024-11-06T16:00:00	2	Temperatura media	15.7
121850	7	Sololá	702	San José Chacayá	5	Chacayá	9	Septiembre	2023-09-27T00:00:00	2024-11-06T16:00:00	4	Temperatura máxima	15.8
121851	7	Sololá	702	San José Chacayá	5	Chacayá	9	Septiembre	2023-09-27T00:00:00	2024-11-06T16:00:00	3	Temperatura mínima	15.6
121852	7	Sololá	702	San José Chacayá	5	Chacayá	9	Septiembre	2023-09-27T00:00:00	2024-11-06T16:00:00	5	Humedad	42
121853	7	Sololá	702	San José Chacayá	5	Chacayá	9	Septiembre	2023-09-27T00:00:00	2024-11-06T16:00:00	6	Velocidad del viento	1.6
121854	7	Sololá	702	San José Chacayá	5	Chacayá	9	Septiembre	2023-09-27T00:00:00	2024-11-06T16:00:00	7	Dirección del viento	0.8
121855	7	Sololá	702	San José Chacayá	5	Chacayá	9	Septiembre	2023-09-27T00:00:00	2024-11-06T16:00:00	1	Precipitación	1.4
121856	7	Sololá	702	San José Chacayá	5	Chacayá	9	Septiembre	2023-09-27T00:00:00	2024-11-06T16:00:00	8	Radiación solar	10
121857	7	Sololá	702	San José Chacayá	5	Chacayá	9	Septiembre	2023-09-27T00:00:00	2024-11-06T17:00:00	2	Temperatura media	15.8
121858	7	Sololá	702	San José Chacayá	5	Chacayá	9	Septiembre	2023-09-27T00:00:00	2024-11-06T17:00:00	4	Temperatura máxima	15.8
121859	7	Sololá	702	San José Chacayá	5	Chacayá	9	Septiembre	2023-09-27T00:00:00	2024-11-06T17:00:00	3	Temperatura mínima	15.7
121860	7	Sololá	702	San José Chacayá	5	Chacayá	9	Septiembre	2023-09-27T00:00:00	2024-11-06T17:00:00	5	Humedad	26
121861	7	Sololá	702	San José Chacayá	5	Chacayá	9	Septiembre	2023-09-27T00:00:00	2024-11-06T17:00:00	6	Velocidad del viento	0
121862	7	Sololá	702	San José Chacayá	5	Chacayá	9	Septiembre	2023-09-27T00:00:00	2024-11-06T17:00:00	7	Dirección del viento	0
121863	7	Sololá	702	San José Chacayá	5	Chacayá	9	Septiembre	2023-09-27T00:00:00	2024-11-06T17:00:00	1	Precipitación	0.8
121864	7	Sololá	702	San José Chacayá	5	Chacayá	9	Septiembre	2023-09-27T00:00:00	2024-11-06T17:00:00	8	Radiación solar	16
121865	7	Sololá	702	San José Chacayá	5	Chacayá	9	Septiembre	2023-09-27T00:00:00	2024-11-06T18:00:00	2	Temperatura media	15.7
121866	7	Sololá	702	San José Chacayá	5	Chacayá	9	Septiembre	2023-09-27T00:00:00	2024-11-06T18:00:00	4	Temperatura máxima	15.8
121867	7	Sololá	702	San José Chacayá	5	Chacayá	9	Septiembre	2023-09-27T00:00:00	2024-11-06T18:00:00	3	Temperatura mínima	15.6
121868	7	Sololá	702	San José Chacayá	5	Chacayá	9	Septiembre	2023-09-27T00:00:00	2024-11-06T18:00:00	5	Humedad	26
121869	7	Sololá	702	San José Chacayá	5	Chacayá	9	Septiembre	2023-09-27T00:00:00	2024-11-06T18:00:00	6	Velocidad del viento	0
121870	7	Sololá	702	San José Chacayá	5	Chacayá	9	Septiembre	2023-09-27T00:00:00	2024-11-06T18:00:00	7	Dirección del viento	0
121871	7	Sololá	702	San José Chacayá	5	Chacayá	9	Septiembre	2023-09-27T00:00:00	2024-11-06T18:00:00	1	Precipitación	0.2
121872	7	Sololá	702	San José Chacayá	5	Chacayá	9	Septiembre	2023-09-27T00:00:00	2024-11-06T18:00:00	8	Radiación solar	0
121873	7	Sololá	702	San José Chacayá	5	Chacayá	9	Septiembre	2023-09-27T00:00:00	2024-11-06T19:00:00	2	Temperatura media	15.7
121874	7	Sololá	702	San José Chacayá	5	Chacayá	9	Septiembre	2023-09-27T00:00:00	2024-11-06T19:00:00	4	Temperatura máxima	15.8
121875	7	Sololá	702	San José Chacayá	5	Chacayá	9	Septiembre	2023-09-27T00:00:00	2024-11-06T19:00:00	3	Temperatura mínima	15.6
121876	7	Sololá	702	San José Chacayá	5	Chacayá	9	Septiembre	2023-09-27T00:00:00	2024-11-06T19:00:00	5	Humedad	32
121877	7	Sololá	702	San José Chacayá	5	Chacayá	9	Septiembre	2023-09-27T00:00:00	2024-11-06T19:00:00	6	Velocidad del viento	1.6
121878	7	Sololá	702	San José Chacayá	5	Chacayá	9	Septiembre	2023-09-27T00:00:00	2024-11-06T19:00:00	7	Dirección del viento	0.8
121879	7	Sololá	702	San José Chacayá	5	Chacayá	9	Septiembre	2023-09-27T00:00:00	2024-11-06T19:00:00	1	Precipitación	0.4
121880	7	Sololá	702	San José Chacayá	5	Chacayá	9	Septiembre	2023-09-27T00:00:00	2024-11-06T19:00:00	8	Radiación solar	0
121881	7	Sololá	702	San José Chacayá	5	Chacayá	9	Septiembre	2023-09-27T00:00:00	2024-11-06T20:00:00	2	Temperatura media	15.2
121882	7	Sololá	702	San José Chacayá	5	Chacayá	9	Septiembre	2023-09-27T00:00:00	2024-11-06T20:00:00	4	Temperatura máxima	15.7
121883	7	Sololá	702	San José Chacayá	5	Chacayá	9	Septiembre	2023-09-27T00:00:00	2024-11-06T20:00:00	3	Temperatura mínima	15.2
121884	7	Sololá	702	San José Chacayá	5	Chacayá	9	Septiembre	2023-09-27T00:00:00	2024-11-06T20:00:00	5	Humedad	28
121885	7	Sololá	702	San José Chacayá	5	Chacayá	9	Septiembre	2023-09-27T00:00:00	2024-11-06T20:00:00	6	Velocidad del viento	1.6
121886	7	Sololá	702	San José Chacayá	5	Chacayá	9	Septiembre	2023-09-27T00:00:00	2024-11-06T20:00:00	7	Dirección del viento	0.8
121887	7	Sololá	702	San José Chacayá	5	Chacayá	9	Septiembre	2023-09-27T00:00:00	2024-11-06T20:00:00	1	Precipitación	0.8
121888	7	Sololá	702	San José Chacayá	5	Chacayá	9	Septiembre	2023-09-27T00:00:00	2024-11-06T20:00:00	8	Radiación solar	0
121889	7	Sololá	702	San José Chacayá	5	Chacayá	9	Septiembre	2023-09-27T00:00:00	2024-11-06T21:00:00	2	Temperatura media	14.8
121890	7	Sololá	702	San José Chacayá	5	Chacayá	9	Septiembre	2023-09-27T00:00:00	2024-11-06T21:00:00	4	Temperatura máxima	14.9
121891	7	Sololá	702	San José Chacayá	5	Chacayá	9	Septiembre	2023-09-27T00:00:00	2024-11-06T21:00:00	3	Temperatura mínima	14.8
121892	7	Sololá	702	San José Chacayá	5	Chacayá	9	Septiembre	2023-09-27T00:00:00	2024-11-06T21:00:00	5	Humedad	53
121893	7	Sololá	702	San José Chacayá	5	Chacayá	9	Septiembre	2023-09-27T00:00:00	2024-11-06T21:00:00	6	Velocidad del viento	1.6
121894	7	Sololá	702	San José Chacayá	5	Chacayá	9	Septiembre	2023-09-27T00:00:00	2024-11-06T21:00:00	7	Dirección del viento	0.8
121895	7	Sololá	702	San José Chacayá	5	Chacayá	9	Septiembre	2023-09-27T00:00:00	2024-11-06T21:00:00	1	Precipitación	0
121896	7	Sololá	702	San José Chacayá	5	Chacayá	9	Septiembre	2023-09-27T00:00:00	2024-11-06T21:00:00	8	Radiación solar	0
121897	7	Sololá	702	San José Chacayá	5	Chacayá	9	Septiembre	2023-09-27T00:00:00	2024-11-06T22:00:00	2	Temperatura media	14.4
121898	7	Sololá	702	San José Chacayá	5	Chacayá	9	Septiembre	2023-09-27T00:00:00	2024-11-06T22:00:00	4	Temperatura máxima	14.7
121899	7	Sololá	702	San José Chacayá	5	Chacayá	9	Septiembre	2023-09-27T00:00:00	2024-11-06T22:00:00	3	Temperatura mínima	14.4
121900	7	Sololá	702	San José Chacayá	5	Chacayá	9	Septiembre	2023-09-27T00:00:00	2024-11-06T22:00:00	5	Humedad	35
121901	7	Sololá	702	San José Chacayá	5	Chacayá	9	Septiembre	2023-09-27T00:00:00	2024-11-06T22:00:00	6	Velocidad del viento	0
121902	7	Sololá	702	San José Chacayá	5	Chacayá	9	Septiembre	2023-09-27T00:00:00	2024-11-06T22:00:00	7	Dirección del viento	0
121903	7	Sololá	702	San José Chacayá	5	Chacayá	9	Septiembre	2023-09-27T00:00:00	2024-11-06T22:00:00	1	Precipitación	0.2
121904	7	Sololá	702	San José Chacayá	5	Chacayá	9	Septiembre	2023-09-27T00:00:00	2024-11-06T22:00:00	8	Radiación solar	0
121905	7	Sololá	702	San José Chacayá	5	Chacayá	9	Septiembre	2023-09-27T00:00:00	2024-11-06T23:00:00	2	Temperatura media	14.3
121906	7	Sololá	702	San José Chacayá	5	Chacayá	9	Septiembre	2023-09-27T00:00:00	2024-11-06T23:00:00	4	Temperatura máxima	14.3
121907	7	Sololá	702	San José Chacayá	5	Chacayá	9	Septiembre	2023-09-27T00:00:00	2024-11-06T23:00:00	3	Temperatura mínima	14.3
121908	7	Sololá	702	San José Chacayá	5	Chacayá	9	Septiembre	2023-09-27T00:00:00	2024-11-06T23:00:00	5	Humedad	24
121909	7	Sololá	702	San José Chacayá	5	Chacayá	9	Septiembre	2023-09-27T00:00:00	2024-11-06T23:00:00	6	Velocidad del viento	0
121910	7	Sololá	702	San José Chacayá	5	Chacayá	9	Septiembre	2023-09-27T00:00:00	2024-11-06T23:00:00	7	Dirección del viento	0
121911	7	Sololá	702	San José Chacayá	5	Chacayá	9	Septiembre	2023-09-27T00:00:00	2024-11-06T23:00:00	1	Precipitación	0
121912	7	Sololá	702	San José Chacayá	5	Chacayá	9	Septiembre	2023-09-27T00:00:00	2024-11-06T23:00:00	8	Radiación solar	0
121913	7	Sololá	702	San José Chacayá	5	Chacayá	9	Septiembre	2023-09-28T00:00:00	2024-11-06T00:00:00	2	Temperatura media	14.2
121914	7	Sololá	702	San José Chacayá	5	Chacayá	9	Septiembre	2023-09-28T00:00:00	2024-11-06T00:00:00	4	Temperatura máxima	14.2
121915	7	Sololá	702	San José Chacayá	5	Chacayá	9	Septiembre	2023-09-28T00:00:00	2024-11-06T00:00:00	3	Temperatura mínima	14.2
121916	7	Sololá	702	San José Chacayá	5	Chacayá	9	Septiembre	2023-09-28T00:00:00	2024-11-06T00:00:00	5	Humedad	22
121917	7	Sololá	702	San José Chacayá	5	Chacayá	9	Septiembre	2023-09-28T00:00:00	2024-11-06T00:00:00	6	Velocidad del viento	1.6
121918	7	Sololá	702	San José Chacayá	5	Chacayá	9	Septiembre	2023-09-28T00:00:00	2024-11-06T00:00:00	7	Dirección del viento	0.8
121919	7	Sololá	702	San José Chacayá	5	Chacayá	9	Septiembre	2023-09-28T00:00:00	2024-11-06T00:00:00	1	Precipitación	0.2
121920	7	Sololá	702	San José Chacayá	5	Chacayá	9	Septiembre	2023-09-28T00:00:00	2024-11-06T00:00:00	8	Radiación solar	0
121921	7	Sololá	702	San José Chacayá	5	Chacayá	9	Septiembre	2023-09-28T00:00:00	2024-11-06T01:00:00	2	Temperatura media	13.9
121922	7	Sololá	702	San José Chacayá	5	Chacayá	9	Septiembre	2023-09-28T00:00:00	2024-11-06T01:00:00	4	Temperatura máxima	14.1
121923	7	Sololá	702	San José Chacayá	5	Chacayá	9	Septiembre	2023-09-28T00:00:00	2024-11-06T01:00:00	3	Temperatura mínima	13.9
121924	7	Sololá	702	San José Chacayá	5	Chacayá	9	Septiembre	2023-09-28T00:00:00	2024-11-06T01:00:00	5	Humedad	25
121925	7	Sololá	702	San José Chacayá	5	Chacayá	9	Septiembre	2023-09-28T00:00:00	2024-11-06T01:00:00	6	Velocidad del viento	1.6
121926	7	Sololá	702	San José Chacayá	5	Chacayá	9	Septiembre	2023-09-28T00:00:00	2024-11-06T01:00:00	7	Dirección del viento	0.8
121927	7	Sololá	702	San José Chacayá	5	Chacayá	9	Septiembre	2023-09-28T00:00:00	2024-11-06T01:00:00	1	Precipitación	0
121928	7	Sololá	702	San José Chacayá	5	Chacayá	9	Septiembre	2023-09-28T00:00:00	2024-11-06T01:00:00	8	Radiación solar	0
121929	7	Sololá	702	San José Chacayá	5	Chacayá	9	Septiembre	2023-09-28T00:00:00	2024-11-06T02:00:00	2	Temperatura media	13.4
121930	7	Sololá	702	San José Chacayá	5	Chacayá	9	Septiembre	2023-09-28T00:00:00	2024-11-06T02:00:00	4	Temperatura máxima	13.7
121931	7	Sololá	702	San José Chacayá	5	Chacayá	9	Septiembre	2023-09-28T00:00:00	2024-11-06T02:00:00	3	Temperatura mínima	13.4
121932	7	Sololá	702	San José Chacayá	5	Chacayá	9	Septiembre	2023-09-28T00:00:00	2024-11-06T02:00:00	5	Humedad	26
121933	7	Sololá	702	San José Chacayá	5	Chacayá	9	Septiembre	2023-09-28T00:00:00	2024-11-06T02:00:00	6	Velocidad del viento	0
121934	7	Sololá	702	San José Chacayá	5	Chacayá	9	Septiembre	2023-09-28T00:00:00	2024-11-06T02:00:00	7	Dirección del viento	0
121935	7	Sololá	702	San José Chacayá	5	Chacayá	9	Septiembre	2023-09-28T00:00:00	2024-11-06T02:00:00	1	Precipitación	0
121936	7	Sololá	702	San José Chacayá	5	Chacayá	9	Septiembre	2023-09-28T00:00:00	2024-11-06T02:00:00	8	Radiación solar	0
121937	7	Sololá	702	San José Chacayá	5	Chacayá	9	Septiembre	2023-09-28T00:00:00	2024-11-06T03:00:00	2	Temperatura media	13.4
121938	7	Sololá	702	San José Chacayá	5	Chacayá	9	Septiembre	2023-09-28T00:00:00	2024-11-06T03:00:00	4	Temperatura máxima	13.4
121939	7	Sololá	702	San José Chacayá	5	Chacayá	9	Septiembre	2023-09-28T00:00:00	2024-11-06T03:00:00	3	Temperatura mínima	13.3
121940	7	Sololá	702	San José Chacayá	5	Chacayá	9	Septiembre	2023-09-28T00:00:00	2024-11-06T03:00:00	5	Humedad	16
121941	7	Sololá	702	San José Chacayá	5	Chacayá	9	Septiembre	2023-09-28T00:00:00	2024-11-06T03:00:00	6	Velocidad del viento	1.6
121942	7	Sololá	702	San José Chacayá	5	Chacayá	9	Septiembre	2023-09-28T00:00:00	2024-11-06T03:00:00	7	Dirección del viento	0.8
121943	7	Sololá	702	San José Chacayá	5	Chacayá	9	Septiembre	2023-09-28T00:00:00	2024-11-06T03:00:00	1	Precipitación	0
121944	7	Sololá	702	San José Chacayá	5	Chacayá	9	Septiembre	2023-09-28T00:00:00	2024-11-06T03:00:00	8	Radiación solar	0
121945	7	Sololá	702	San José Chacayá	5	Chacayá	9	Septiembre	2023-09-28T00:00:00	2024-11-06T04:00:00	2	Temperatura media	13.2
121946	7	Sololá	702	San José Chacayá	5	Chacayá	9	Septiembre	2023-09-28T00:00:00	2024-11-06T04:00:00	4	Temperatura máxima	13.4
121947	7	Sololá	702	San José Chacayá	5	Chacayá	9	Septiembre	2023-09-28T00:00:00	2024-11-06T04:00:00	3	Temperatura mínima	13.2
121948	7	Sololá	702	San José Chacayá	5	Chacayá	9	Septiembre	2023-09-28T00:00:00	2024-11-06T04:00:00	5	Humedad	21
121949	7	Sololá	702	San José Chacayá	5	Chacayá	9	Septiembre	2023-09-28T00:00:00	2024-11-06T04:00:00	6	Velocidad del viento	1.6
121950	7	Sololá	702	San José Chacayá	5	Chacayá	9	Septiembre	2023-09-28T00:00:00	2024-11-06T04:00:00	7	Dirección del viento	0.8
121951	7	Sololá	702	San José Chacayá	5	Chacayá	9	Septiembre	2023-09-28T00:00:00	2024-11-06T04:00:00	1	Precipitación	0
121952	7	Sololá	702	San José Chacayá	5	Chacayá	9	Septiembre	2023-09-28T00:00:00	2024-11-06T04:00:00	8	Radiación solar	0
121953	7	Sololá	702	San José Chacayá	5	Chacayá	9	Septiembre	2023-09-28T00:00:00	2024-11-06T05:00:00	2	Temperatura media	12.8
121954	7	Sololá	702	San José Chacayá	5	Chacayá	9	Septiembre	2023-09-28T00:00:00	2024-11-06T05:00:00	4	Temperatura máxima	12.9
121955	7	Sololá	702	San José Chacayá	5	Chacayá	9	Septiembre	2023-09-28T00:00:00	2024-11-06T05:00:00	3	Temperatura mínima	12.8
121956	7	Sololá	702	San José Chacayá	5	Chacayá	9	Septiembre	2023-09-28T00:00:00	2024-11-06T05:00:00	5	Humedad	36
121957	7	Sololá	702	San José Chacayá	5	Chacayá	9	Septiembre	2023-09-28T00:00:00	2024-11-06T05:00:00	6	Velocidad del viento	3.2
121958	7	Sololá	702	San José Chacayá	5	Chacayá	9	Septiembre	2023-09-28T00:00:00	2024-11-06T05:00:00	7	Dirección del viento	1.61
121959	7	Sololá	702	San José Chacayá	5	Chacayá	9	Septiembre	2023-09-28T00:00:00	2024-11-06T05:00:00	1	Precipitación	0
121960	7	Sololá	702	San José Chacayá	5	Chacayá	9	Septiembre	2023-09-28T00:00:00	2024-11-06T05:00:00	8	Radiación solar	0
121961	7	Sololá	702	San José Chacayá	5	Chacayá	9	Septiembre	2023-09-28T00:00:00	2024-11-06T06:00:00	2	Temperatura media	12.5
121962	7	Sololá	702	San José Chacayá	5	Chacayá	9	Septiembre	2023-09-28T00:00:00	2024-11-06T06:00:00	4	Temperatura máxima	12.7
121963	7	Sololá	702	San José Chacayá	5	Chacayá	9	Septiembre	2023-09-28T00:00:00	2024-11-06T06:00:00	3	Temperatura mínima	12.5
121964	7	Sololá	702	San José Chacayá	5	Chacayá	9	Septiembre	2023-09-28T00:00:00	2024-11-06T06:00:00	5	Humedad	43
121965	7	Sololá	702	San José Chacayá	5	Chacayá	9	Septiembre	2023-09-28T00:00:00	2024-11-06T06:00:00	6	Velocidad del viento	3.2
121966	7	Sololá	702	San José Chacayá	5	Chacayá	9	Septiembre	2023-09-28T00:00:00	2024-11-06T06:00:00	7	Dirección del viento	1.61
121967	7	Sololá	702	San José Chacayá	5	Chacayá	9	Septiembre	2023-09-28T00:00:00	2024-11-06T06:00:00	1	Precipitación	0
121968	7	Sololá	702	San José Chacayá	5	Chacayá	9	Septiembre	2023-09-28T00:00:00	2024-11-06T06:00:00	8	Radiación solar	1
121969	7	Sololá	702	San José Chacayá	5	Chacayá	9	Septiembre	2023-09-28T00:00:00	2024-11-06T07:00:00	2	Temperatura media	13.7
121970	7	Sololá	702	San José Chacayá	5	Chacayá	9	Septiembre	2023-09-28T00:00:00	2024-11-06T07:00:00	4	Temperatura máxima	13.7
121971	7	Sololá	702	San José Chacayá	5	Chacayá	9	Septiembre	2023-09-28T00:00:00	2024-11-06T07:00:00	3	Temperatura mínima	12.8
121972	7	Sololá	702	San José Chacayá	5	Chacayá	9	Septiembre	2023-09-28T00:00:00	2024-11-06T07:00:00	5	Humedad	59
121973	7	Sololá	702	San José Chacayá	5	Chacayá	9	Septiembre	2023-09-28T00:00:00	2024-11-06T07:00:00	6	Velocidad del viento	3.2
121974	7	Sololá	702	San José Chacayá	5	Chacayá	9	Septiembre	2023-09-28T00:00:00	2024-11-06T07:00:00	7	Dirección del viento	1.61
121975	7	Sololá	702	San José Chacayá	5	Chacayá	9	Septiembre	2023-09-28T00:00:00	2024-11-06T07:00:00	1	Precipitación	0
121976	7	Sololá	702	San José Chacayá	5	Chacayá	9	Septiembre	2023-09-28T00:00:00	2024-11-06T07:00:00	8	Radiación solar	84
121977	7	Sololá	702	San José Chacayá	5	Chacayá	9	Septiembre	2023-09-28T00:00:00	2024-11-06T08:00:00	2	Temperatura media	17.9
121978	7	Sololá	702	San José Chacayá	5	Chacayá	9	Septiembre	2023-09-28T00:00:00	2024-11-06T08:00:00	4	Temperatura máxima	17.9
121979	7	Sololá	702	San José Chacayá	5	Chacayá	9	Septiembre	2023-09-28T00:00:00	2024-11-06T08:00:00	3	Temperatura mínima	15.4
121980	7	Sololá	702	San José Chacayá	5	Chacayá	9	Septiembre	2023-09-28T00:00:00	2024-11-06T08:00:00	5	Humedad	82
121981	7	Sololá	702	San José Chacayá	5	Chacayá	9	Septiembre	2023-09-28T00:00:00	2024-11-06T08:00:00	6	Velocidad del viento	0
121982	7	Sololá	702	San José Chacayá	5	Chacayá	9	Septiembre	2023-09-28T00:00:00	2024-11-06T08:00:00	7	Dirección del viento	0
121983	7	Sololá	702	San José Chacayá	5	Chacayá	9	Septiembre	2023-09-28T00:00:00	2024-11-06T08:00:00	1	Precipitación	0
121984	7	Sololá	702	San José Chacayá	5	Chacayá	9	Septiembre	2023-09-28T00:00:00	2024-11-06T08:00:00	8	Radiación solar	328
121985	7	Sololá	702	San José Chacayá	5	Chacayá	9	Septiembre	2023-09-28T00:00:00	2024-11-06T09:00:00	2	Temperatura media	20.2
121986	7	Sololá	702	San José Chacayá	5	Chacayá	9	Septiembre	2023-09-28T00:00:00	2024-11-06T09:00:00	4	Temperatura máxima	20.2
121987	7	Sololá	702	San José Chacayá	5	Chacayá	9	Septiembre	2023-09-28T00:00:00	2024-11-06T09:00:00	3	Temperatura mínima	19.5
121988	7	Sololá	702	San José Chacayá	5	Chacayá	9	Septiembre	2023-09-28T00:00:00	2024-11-06T09:00:00	5	Humedad	71
121989	7	Sololá	702	San José Chacayá	5	Chacayá	9	Septiembre	2023-09-28T00:00:00	2024-11-06T09:00:00	6	Velocidad del viento	3.2
121990	7	Sololá	702	San José Chacayá	5	Chacayá	9	Septiembre	2023-09-28T00:00:00	2024-11-06T09:00:00	7	Dirección del viento	1.61
121991	7	Sololá	702	San José Chacayá	5	Chacayá	9	Septiembre	2023-09-28T00:00:00	2024-11-06T09:00:00	1	Precipitación	0
121992	7	Sololá	702	San José Chacayá	5	Chacayá	9	Septiembre	2023-09-28T00:00:00	2024-11-06T09:00:00	8	Radiación solar	583
121993	7	Sololá	702	San José Chacayá	5	Chacayá	9	Septiembre	2023-09-28T00:00:00	2024-11-06T10:00:00	2	Temperatura media	21.8
121994	7	Sololá	702	San José Chacayá	5	Chacayá	9	Septiembre	2023-09-28T00:00:00	2024-11-06T10:00:00	4	Temperatura máxima	21.8
121995	7	Sololá	702	San José Chacayá	5	Chacayá	9	Septiembre	2023-09-28T00:00:00	2024-11-06T10:00:00	3	Temperatura mínima	20.4
121996	7	Sololá	702	San José Chacayá	5	Chacayá	9	Septiembre	2023-09-28T00:00:00	2024-11-06T10:00:00	5	Humedad	64
121997	7	Sololá	702	San José Chacayá	5	Chacayá	9	Septiembre	2023-09-28T00:00:00	2024-11-06T10:00:00	6	Velocidad del viento	4.8
121998	7	Sololá	702	San José Chacayá	5	Chacayá	9	Septiembre	2023-09-28T00:00:00	2024-11-06T10:00:00	7	Dirección del viento	2.41
121999	7	Sololá	702	San José Chacayá	5	Chacayá	9	Septiembre	2023-09-28T00:00:00	2024-11-06T10:00:00	1	Precipitación	0
122000	7	Sololá	702	San José Chacayá	5	Chacayá	9	Septiembre	2023-09-28T00:00:00	2024-11-06T10:00:00	8	Radiación solar	800
122001	7	Sololá	702	San José Chacayá	5	Chacayá	9	Septiembre	2023-09-28T00:00:00	2024-11-06T11:00:00	2	Temperatura media	22.2
122002	7	Sololá	702	San José Chacayá	5	Chacayá	9	Septiembre	2023-09-28T00:00:00	2024-11-06T11:00:00	4	Temperatura máxima	22.7
122003	7	Sololá	702	San José Chacayá	5	Chacayá	9	Septiembre	2023-09-28T00:00:00	2024-11-06T11:00:00	3	Temperatura mínima	22.2
122004	7	Sololá	702	San José Chacayá	5	Chacayá	9	Septiembre	2023-09-28T00:00:00	2024-11-06T11:00:00	5	Humedad	68
122005	7	Sololá	702	San José Chacayá	5	Chacayá	9	Septiembre	2023-09-28T00:00:00	2024-11-06T11:00:00	6	Velocidad del viento	8
122006	7	Sololá	702	San José Chacayá	5	Chacayá	9	Septiembre	2023-09-28T00:00:00	2024-11-06T11:00:00	7	Dirección del viento	4.02
122007	7	Sololá	702	San José Chacayá	5	Chacayá	9	Septiembre	2023-09-28T00:00:00	2024-11-06T11:00:00	1	Precipitación	0
122008	7	Sololá	702	San José Chacayá	5	Chacayá	9	Septiembre	2023-09-28T00:00:00	2024-11-06T11:00:00	8	Radiación solar	846
122009	7	Sololá	702	San José Chacayá	5	Chacayá	9	Septiembre	2023-09-28T00:00:00	2024-11-06T12:00:00	2	Temperatura media	22.6
122010	7	Sololá	702	San José Chacayá	5	Chacayá	9	Septiembre	2023-09-28T00:00:00	2024-11-06T12:00:00	4	Temperatura máxima	22.7
122011	7	Sololá	702	San José Chacayá	5	Chacayá	9	Septiembre	2023-09-28T00:00:00	2024-11-06T12:00:00	3	Temperatura mínima	22.2
122012	7	Sololá	702	San José Chacayá	5	Chacayá	9	Septiembre	2023-09-28T00:00:00	2024-11-06T12:00:00	5	Humedad	72
122013	7	Sololá	702	San José Chacayá	5	Chacayá	9	Septiembre	2023-09-28T00:00:00	2024-11-06T12:00:00	6	Velocidad del viento	8
122014	7	Sololá	702	San José Chacayá	5	Chacayá	9	Septiembre	2023-09-28T00:00:00	2024-11-06T12:00:00	7	Dirección del viento	4.02
122015	7	Sololá	702	San José Chacayá	5	Chacayá	9	Septiembre	2023-09-28T00:00:00	2024-11-06T12:00:00	1	Precipitación	0
122016	7	Sololá	702	San José Chacayá	5	Chacayá	9	Septiembre	2023-09-28T00:00:00	2024-11-06T12:00:00	8	Radiación solar	1007
122017	7	Sololá	702	San José Chacayá	5	Chacayá	9	Septiembre	2023-09-28T00:00:00	2024-11-06T13:00:00	2	Temperatura media	21.1
122018	7	Sololá	702	San José Chacayá	5	Chacayá	9	Septiembre	2023-09-28T00:00:00	2024-11-06T13:00:00	4	Temperatura máxima	22.4
122019	7	Sololá	702	San José Chacayá	5	Chacayá	9	Septiembre	2023-09-28T00:00:00	2024-11-06T13:00:00	3	Temperatura mínima	21.1
122020	7	Sololá	702	San José Chacayá	5	Chacayá	9	Septiembre	2023-09-28T00:00:00	2024-11-06T13:00:00	5	Humedad	76
122021	7	Sololá	702	San José Chacayá	5	Chacayá	9	Septiembre	2023-09-28T00:00:00	2024-11-06T13:00:00	6	Velocidad del viento	8
122022	7	Sololá	702	San José Chacayá	5	Chacayá	9	Septiembre	2023-09-28T00:00:00	2024-11-06T13:00:00	7	Dirección del viento	4.02
122023	7	Sololá	702	San José Chacayá	5	Chacayá	9	Septiembre	2023-09-28T00:00:00	2024-11-06T13:00:00	1	Precipitación	0
122024	7	Sololá	702	San José Chacayá	5	Chacayá	9	Septiembre	2023-09-28T00:00:00	2024-11-06T13:00:00	8	Radiación solar	434
122025	7	Sololá	702	San José Chacayá	5	Chacayá	9	Septiembre	2023-09-28T00:00:00	2024-11-06T14:00:00	2	Temperatura media	21.4
122026	7	Sololá	702	San José Chacayá	5	Chacayá	9	Septiembre	2023-09-28T00:00:00	2024-11-06T14:00:00	4	Temperatura máxima	21.5
122027	7	Sololá	702	San José Chacayá	5	Chacayá	9	Septiembre	2023-09-28T00:00:00	2024-11-06T14:00:00	3	Temperatura mínima	20.7
122028	7	Sololá	702	San José Chacayá	5	Chacayá	9	Septiembre	2023-09-28T00:00:00	2024-11-06T14:00:00	5	Humedad	76
122029	7	Sololá	702	San José Chacayá	5	Chacayá	9	Septiembre	2023-09-28T00:00:00	2024-11-06T14:00:00	6	Velocidad del viento	6.4
122030	7	Sololá	702	San José Chacayá	5	Chacayá	9	Septiembre	2023-09-28T00:00:00	2024-11-06T14:00:00	7	Dirección del viento	3.22
122031	7	Sololá	702	San José Chacayá	5	Chacayá	9	Septiembre	2023-09-28T00:00:00	2024-11-06T14:00:00	1	Precipitación	0
122032	7	Sololá	702	San José Chacayá	5	Chacayá	9	Septiembre	2023-09-28T00:00:00	2024-11-06T14:00:00	8	Radiación solar	327
122033	7	Sololá	702	San José Chacayá	5	Chacayá	9	Septiembre	2023-09-28T00:00:00	2024-11-06T15:00:00	2	Temperatura media	17.9
122034	7	Sololá	702	San José Chacayá	5	Chacayá	9	Septiembre	2023-09-28T00:00:00	2024-11-06T15:00:00	4	Temperatura máxima	20.9
122035	7	Sololá	702	San José Chacayá	5	Chacayá	9	Septiembre	2023-09-28T00:00:00	2024-11-06T15:00:00	3	Temperatura mínima	17.9
122036	7	Sololá	702	San José Chacayá	5	Chacayá	9	Septiembre	2023-09-28T00:00:00	2024-11-06T15:00:00	5	Humedad	74
122037	7	Sololá	702	San José Chacayá	5	Chacayá	9	Septiembre	2023-09-28T00:00:00	2024-11-06T15:00:00	6	Velocidad del viento	8
122038	7	Sololá	702	San José Chacayá	5	Chacayá	9	Septiembre	2023-09-28T00:00:00	2024-11-06T15:00:00	7	Dirección del viento	4.02
122039	7	Sololá	702	San José Chacayá	5	Chacayá	9	Septiembre	2023-09-28T00:00:00	2024-11-06T15:00:00	1	Precipitación	6.6
122040	7	Sololá	702	San José Chacayá	5	Chacayá	9	Septiembre	2023-09-28T00:00:00	2024-11-06T15:00:00	8	Radiación solar	90
122041	7	Sololá	702	San José Chacayá	5	Chacayá	9	Septiembre	2023-09-28T00:00:00	2024-11-06T16:00:00	2	Temperatura media	16.3
122042	7	Sololá	702	San José Chacayá	5	Chacayá	9	Septiembre	2023-09-28T00:00:00	2024-11-06T16:00:00	4	Temperatura máxima	16.7
122043	7	Sololá	702	San José Chacayá	5	Chacayá	9	Septiembre	2023-09-28T00:00:00	2024-11-06T16:00:00	3	Temperatura mínima	16.2
122044	7	Sololá	702	San José Chacayá	5	Chacayá	9	Septiembre	2023-09-28T00:00:00	2024-11-06T16:00:00	5	Humedad	38
122045	7	Sololá	702	San José Chacayá	5	Chacayá	9	Septiembre	2023-09-28T00:00:00	2024-11-06T16:00:00	6	Velocidad del viento	1.6
122046	7	Sololá	702	San José Chacayá	5	Chacayá	9	Septiembre	2023-09-28T00:00:00	2024-11-06T16:00:00	7	Dirección del viento	0.8
122047	7	Sololá	702	San José Chacayá	5	Chacayá	9	Septiembre	2023-09-28T00:00:00	2024-11-06T16:00:00	1	Precipitación	1
122048	7	Sololá	702	San José Chacayá	5	Chacayá	9	Septiembre	2023-09-28T00:00:00	2024-11-06T16:00:00	8	Radiación solar	12
122049	7	Sololá	702	San José Chacayá	5	Chacayá	9	Septiembre	2023-09-28T00:00:00	2024-11-06T17:00:00	2	Temperatura media	16.4
122050	7	Sololá	702	San José Chacayá	5	Chacayá	9	Septiembre	2023-09-28T00:00:00	2024-11-06T17:00:00	4	Temperatura máxima	16.4
122051	7	Sololá	702	San José Chacayá	5	Chacayá	9	Septiembre	2023-09-28T00:00:00	2024-11-06T17:00:00	3	Temperatura mínima	16.3
122052	7	Sololá	702	San José Chacayá	5	Chacayá	9	Septiembre	2023-09-28T00:00:00	2024-11-06T17:00:00	5	Humedad	19
122053	7	Sololá	702	San José Chacayá	5	Chacayá	9	Septiembre	2023-09-28T00:00:00	2024-11-06T17:00:00	6	Velocidad del viento	0
122054	7	Sololá	702	San José Chacayá	5	Chacayá	9	Septiembre	2023-09-28T00:00:00	2024-11-06T17:00:00	7	Dirección del viento	0
122055	7	Sololá	702	San José Chacayá	5	Chacayá	9	Septiembre	2023-09-28T00:00:00	2024-11-06T17:00:00	1	Precipitación	0.2
122056	7	Sololá	702	San José Chacayá	5	Chacayá	9	Septiembre	2023-09-28T00:00:00	2024-11-06T17:00:00	8	Radiación solar	18
122057	7	Sololá	702	San José Chacayá	5	Chacayá	9	Septiembre	2023-09-28T00:00:00	2024-11-06T18:00:00	2	Temperatura media	16.3
122058	7	Sololá	702	San José Chacayá	5	Chacayá	9	Septiembre	2023-09-28T00:00:00	2024-11-06T18:00:00	4	Temperatura máxima	16.4
122059	7	Sololá	702	San José Chacayá	5	Chacayá	9	Septiembre	2023-09-28T00:00:00	2024-11-06T18:00:00	3	Temperatura mínima	16.3
122060	7	Sololá	702	San José Chacayá	5	Chacayá	9	Septiembre	2023-09-28T00:00:00	2024-11-06T18:00:00	5	Humedad	13
122061	7	Sololá	702	San José Chacayá	5	Chacayá	9	Septiembre	2023-09-28T00:00:00	2024-11-06T18:00:00	6	Velocidad del viento	0
122062	7	Sololá	702	San José Chacayá	5	Chacayá	9	Septiembre	2023-09-28T00:00:00	2024-11-06T18:00:00	7	Dirección del viento	0
122063	7	Sololá	702	San José Chacayá	5	Chacayá	9	Septiembre	2023-09-28T00:00:00	2024-11-06T18:00:00	1	Precipitación	0
122064	7	Sololá	702	San José Chacayá	5	Chacayá	9	Septiembre	2023-09-28T00:00:00	2024-11-06T18:00:00	8	Radiación solar	0
122065	7	Sololá	702	San José Chacayá	5	Chacayá	9	Septiembre	2023-09-28T00:00:00	2024-11-06T19:00:00	2	Temperatura media	16.1
122066	7	Sololá	702	San José Chacayá	5	Chacayá	9	Septiembre	2023-09-28T00:00:00	2024-11-06T19:00:00	4	Temperatura máxima	16.2
122067	7	Sololá	702	San José Chacayá	5	Chacayá	9	Septiembre	2023-09-28T00:00:00	2024-11-06T19:00:00	3	Temperatura mínima	16.1
122068	7	Sololá	702	San José Chacayá	5	Chacayá	9	Septiembre	2023-09-28T00:00:00	2024-11-06T19:00:00	5	Humedad	8
122069	7	Sololá	702	San José Chacayá	5	Chacayá	9	Septiembre	2023-09-28T00:00:00	2024-11-06T19:00:00	6	Velocidad del viento	0
122070	7	Sololá	702	San José Chacayá	5	Chacayá	9	Septiembre	2023-09-28T00:00:00	2024-11-06T19:00:00	7	Dirección del viento	0
122071	7	Sololá	702	San José Chacayá	5	Chacayá	9	Septiembre	2023-09-28T00:00:00	2024-11-06T19:00:00	1	Precipitación	0.2
122072	7	Sololá	702	San José Chacayá	5	Chacayá	9	Septiembre	2023-09-28T00:00:00	2024-11-06T19:00:00	8	Radiación solar	0
122073	7	Sololá	702	San José Chacayá	5	Chacayá	9	Septiembre	2023-09-28T00:00:00	2024-11-06T20:00:00	2	Temperatura media	16.1
122074	7	Sololá	702	San José Chacayá	5	Chacayá	9	Septiembre	2023-09-28T00:00:00	2024-11-06T20:00:00	4	Temperatura máxima	16.2
122075	7	Sololá	702	San José Chacayá	5	Chacayá	9	Septiembre	2023-09-28T00:00:00	2024-11-06T20:00:00	3	Temperatura mínima	16
122076	7	Sololá	702	San José Chacayá	5	Chacayá	9	Septiembre	2023-09-28T00:00:00	2024-11-06T20:00:00	5	Humedad	6
122077	7	Sololá	702	San José Chacayá	5	Chacayá	9	Septiembre	2023-09-28T00:00:00	2024-11-06T20:00:00	6	Velocidad del viento	0
122078	7	Sololá	702	San José Chacayá	5	Chacayá	9	Septiembre	2023-09-28T00:00:00	2024-11-06T20:00:00	7	Dirección del viento	0
122079	7	Sololá	702	San José Chacayá	5	Chacayá	9	Septiembre	2023-09-28T00:00:00	2024-11-06T20:00:00	1	Precipitación	0
122080	7	Sololá	702	San José Chacayá	5	Chacayá	9	Septiembre	2023-09-28T00:00:00	2024-11-06T20:00:00	8	Radiación solar	0
122081	7	Sololá	702	San José Chacayá	5	Chacayá	9	Septiembre	2023-09-28T00:00:00	2024-11-06T21:00:00	2	Temperatura media	15.8
122082	7	Sololá	702	San José Chacayá	5	Chacayá	9	Septiembre	2023-09-28T00:00:00	2024-11-06T21:00:00	4	Temperatura máxima	15.9
122083	7	Sololá	702	San José Chacayá	5	Chacayá	9	Septiembre	2023-09-28T00:00:00	2024-11-06T21:00:00	3	Temperatura mínima	15.8
122084	7	Sololá	702	San José Chacayá	5	Chacayá	9	Septiembre	2023-09-28T00:00:00	2024-11-06T21:00:00	5	Humedad	7
122085	7	Sololá	702	San José Chacayá	5	Chacayá	9	Septiembre	2023-09-28T00:00:00	2024-11-06T21:00:00	6	Velocidad del viento	0
122086	7	Sololá	702	San José Chacayá	5	Chacayá	9	Septiembre	2023-09-28T00:00:00	2024-11-06T21:00:00	7	Dirección del viento	0
122087	7	Sololá	702	San José Chacayá	5	Chacayá	9	Septiembre	2023-09-28T00:00:00	2024-11-06T21:00:00	1	Precipitación	0
122088	7	Sololá	702	San José Chacayá	5	Chacayá	9	Septiembre	2023-09-28T00:00:00	2024-11-06T21:00:00	8	Radiación solar	0
122089	7	Sololá	702	San José Chacayá	5	Chacayá	9	Septiembre	2023-09-28T00:00:00	2024-11-06T22:00:00	2	Temperatura media	15.9
122090	7	Sololá	702	San José Chacayá	5	Chacayá	9	Septiembre	2023-09-28T00:00:00	2024-11-06T22:00:00	4	Temperatura máxima	15.9
122091	7	Sololá	702	San José Chacayá	5	Chacayá	9	Septiembre	2023-09-28T00:00:00	2024-11-06T22:00:00	3	Temperatura mínima	15.8
122092	7	Sololá	702	San José Chacayá	5	Chacayá	9	Septiembre	2023-09-28T00:00:00	2024-11-06T22:00:00	5	Humedad	5
122093	7	Sololá	702	San José Chacayá	5	Chacayá	9	Septiembre	2023-09-28T00:00:00	2024-11-06T22:00:00	6	Velocidad del viento	0
122094	7	Sololá	702	San José Chacayá	5	Chacayá	9	Septiembre	2023-09-28T00:00:00	2024-11-06T22:00:00	7	Dirección del viento	0
122095	7	Sololá	702	San José Chacayá	5	Chacayá	9	Septiembre	2023-09-28T00:00:00	2024-11-06T22:00:00	1	Precipitación	0
122096	7	Sololá	702	San José Chacayá	5	Chacayá	9	Septiembre	2023-09-28T00:00:00	2024-11-06T22:00:00	8	Radiación solar	0
122097	7	Sololá	702	San José Chacayá	5	Chacayá	9	Septiembre	2023-09-28T00:00:00	2024-11-06T23:00:00	2	Temperatura media	15.5
122098	7	Sololá	702	San José Chacayá	5	Chacayá	9	Septiembre	2023-09-28T00:00:00	2024-11-06T23:00:00	4	Temperatura máxima	15.7
122099	7	Sololá	702	San José Chacayá	5	Chacayá	9	Septiembre	2023-09-28T00:00:00	2024-11-06T23:00:00	3	Temperatura mínima	15.5
122100	7	Sololá	702	San José Chacayá	5	Chacayá	9	Septiembre	2023-09-28T00:00:00	2024-11-06T23:00:00	5	Humedad	6
122101	7	Sololá	702	San José Chacayá	5	Chacayá	9	Septiembre	2023-09-28T00:00:00	2024-11-06T23:00:00	6	Velocidad del viento	0
122102	7	Sololá	702	San José Chacayá	5	Chacayá	9	Septiembre	2023-09-28T00:00:00	2024-11-06T23:00:00	7	Dirección del viento	0
122103	7	Sololá	702	San José Chacayá	5	Chacayá	9	Septiembre	2023-09-28T00:00:00	2024-11-06T23:00:00	1	Precipitación	0.2
122104	7	Sololá	702	San José Chacayá	5	Chacayá	9	Septiembre	2023-09-28T00:00:00	2024-11-06T23:00:00	8	Radiación solar	0
122105	7	Sololá	702	San José Chacayá	5	Chacayá	9	Septiembre	2023-09-29T00:00:00	2024-11-06T00:00:00	2	Temperatura media	15.1
122106	7	Sololá	702	San José Chacayá	5	Chacayá	9	Septiembre	2023-09-29T00:00:00	2024-11-06T00:00:00	4	Temperatura máxima	15.3
122107	7	Sololá	702	San José Chacayá	5	Chacayá	9	Septiembre	2023-09-29T00:00:00	2024-11-06T00:00:00	3	Temperatura mínima	15.1
122108	7	Sololá	702	San José Chacayá	5	Chacayá	9	Septiembre	2023-09-29T00:00:00	2024-11-06T00:00:00	5	Humedad	8
122109	7	Sololá	702	San José Chacayá	5	Chacayá	9	Septiembre	2023-09-29T00:00:00	2024-11-06T00:00:00	6	Velocidad del viento	0
122110	7	Sololá	702	San José Chacayá	5	Chacayá	9	Septiembre	2023-09-29T00:00:00	2024-11-06T00:00:00	7	Dirección del viento	0
122111	7	Sololá	702	San José Chacayá	5	Chacayá	9	Septiembre	2023-09-29T00:00:00	2024-11-06T00:00:00	1	Precipitación	0
122112	7	Sololá	702	San José Chacayá	5	Chacayá	9	Septiembre	2023-09-29T00:00:00	2024-11-06T00:00:00	8	Radiación solar	0
122113	7	Sololá	702	San José Chacayá	5	Chacayá	9	Septiembre	2023-09-29T00:00:00	2024-11-06T01:00:00	2	Temperatura media	14.6
122114	7	Sololá	702	San José Chacayá	5	Chacayá	9	Septiembre	2023-09-29T00:00:00	2024-11-06T01:00:00	4	Temperatura máxima	14.8
122115	7	Sololá	702	San José Chacayá	5	Chacayá	9	Septiembre	2023-09-29T00:00:00	2024-11-06T01:00:00	3	Temperatura mínima	14.6
122116	7	Sololá	702	San José Chacayá	5	Chacayá	9	Septiembre	2023-09-29T00:00:00	2024-11-06T01:00:00	5	Humedad	12
122117	7	Sololá	702	San José Chacayá	5	Chacayá	9	Septiembre	2023-09-29T00:00:00	2024-11-06T01:00:00	6	Velocidad del viento	1.6
122118	7	Sololá	702	San José Chacayá	5	Chacayá	9	Septiembre	2023-09-29T00:00:00	2024-11-06T01:00:00	7	Dirección del viento	0.8
122119	7	Sololá	702	San José Chacayá	5	Chacayá	9	Septiembre	2023-09-29T00:00:00	2024-11-06T01:00:00	1	Precipitación	0
122120	7	Sololá	702	San José Chacayá	5	Chacayá	9	Septiembre	2023-09-29T00:00:00	2024-11-06T01:00:00	8	Radiación solar	0
122121	7	Sololá	702	San José Chacayá	5	Chacayá	9	Septiembre	2023-09-29T00:00:00	2024-11-06T02:00:00	2	Temperatura media	14.2
122122	7	Sololá	702	San José Chacayá	5	Chacayá	9	Septiembre	2023-09-29T00:00:00	2024-11-06T02:00:00	4	Temperatura máxima	14.4
122123	7	Sololá	702	San José Chacayá	5	Chacayá	9	Septiembre	2023-09-29T00:00:00	2024-11-06T02:00:00	3	Temperatura mínima	14.2
122124	7	Sololá	702	San José Chacayá	5	Chacayá	9	Septiembre	2023-09-29T00:00:00	2024-11-06T02:00:00	5	Humedad	14
122125	7	Sololá	702	San José Chacayá	5	Chacayá	9	Septiembre	2023-09-29T00:00:00	2024-11-06T02:00:00	6	Velocidad del viento	0
122126	7	Sololá	702	San José Chacayá	5	Chacayá	9	Septiembre	2023-09-29T00:00:00	2024-11-06T02:00:00	7	Dirección del viento	0
122127	7	Sololá	702	San José Chacayá	5	Chacayá	9	Septiembre	2023-09-29T00:00:00	2024-11-06T02:00:00	1	Precipitación	0
122128	7	Sololá	702	San José Chacayá	5	Chacayá	9	Septiembre	2023-09-29T00:00:00	2024-11-06T02:00:00	8	Radiación solar	0
122129	7	Sololá	702	San José Chacayá	5	Chacayá	9	Septiembre	2023-09-29T00:00:00	2024-11-06T03:00:00	2	Temperatura media	14
122130	7	Sololá	702	San José Chacayá	5	Chacayá	9	Septiembre	2023-09-29T00:00:00	2024-11-06T03:00:00	4	Temperatura máxima	14.1
122131	7	Sololá	702	San José Chacayá	5	Chacayá	9	Septiembre	2023-09-29T00:00:00	2024-11-06T03:00:00	3	Temperatura mínima	14
122132	7	Sololá	702	San José Chacayá	5	Chacayá	9	Septiembre	2023-09-29T00:00:00	2024-11-06T03:00:00	5	Humedad	16
122133	7	Sololá	702	San José Chacayá	5	Chacayá	9	Septiembre	2023-09-29T00:00:00	2024-11-06T03:00:00	6	Velocidad del viento	1.6
122134	7	Sololá	702	San José Chacayá	5	Chacayá	9	Septiembre	2023-09-29T00:00:00	2024-11-06T03:00:00	7	Dirección del viento	0.8
122135	7	Sololá	702	San José Chacayá	5	Chacayá	9	Septiembre	2023-09-29T00:00:00	2024-11-06T03:00:00	1	Precipitación	0
122136	7	Sololá	702	San José Chacayá	5	Chacayá	9	Septiembre	2023-09-29T00:00:00	2024-11-06T03:00:00	8	Radiación solar	0
122137	7	Sololá	702	San José Chacayá	5	Chacayá	9	Septiembre	2023-09-29T00:00:00	2024-11-06T04:00:00	2	Temperatura media	13.8
122138	7	Sololá	702	San José Chacayá	5	Chacayá	9	Septiembre	2023-09-29T00:00:00	2024-11-06T04:00:00	4	Temperatura máxima	13.9
122139	7	Sololá	702	San José Chacayá	5	Chacayá	9	Septiembre	2023-09-29T00:00:00	2024-11-06T04:00:00	3	Temperatura mínima	13.8
122140	7	Sololá	702	San José Chacayá	5	Chacayá	9	Septiembre	2023-09-29T00:00:00	2024-11-06T04:00:00	5	Humedad	18
122141	7	Sololá	702	San José Chacayá	5	Chacayá	9	Septiembre	2023-09-29T00:00:00	2024-11-06T04:00:00	6	Velocidad del viento	1.6
122142	7	Sololá	702	San José Chacayá	5	Chacayá	9	Septiembre	2023-09-29T00:00:00	2024-11-06T04:00:00	7	Dirección del viento	0.8
122143	7	Sololá	702	San José Chacayá	5	Chacayá	9	Septiembre	2023-09-29T00:00:00	2024-11-06T04:00:00	1	Precipitación	0
122144	7	Sololá	702	San José Chacayá	5	Chacayá	9	Septiembre	2023-09-29T00:00:00	2024-11-06T04:00:00	8	Radiación solar	0
122145	7	Sololá	702	San José Chacayá	5	Chacayá	9	Septiembre	2023-09-29T00:00:00	2024-11-06T05:00:00	2	Temperatura media	13.4
122146	7	Sololá	702	San José Chacayá	5	Chacayá	9	Septiembre	2023-09-29T00:00:00	2024-11-06T05:00:00	4	Temperatura máxima	13.6
122147	7	Sololá	702	San José Chacayá	5	Chacayá	9	Septiembre	2023-09-29T00:00:00	2024-11-06T05:00:00	3	Temperatura mínima	13.4
122148	7	Sololá	702	San José Chacayá	5	Chacayá	9	Septiembre	2023-09-29T00:00:00	2024-11-06T05:00:00	5	Humedad	21
122149	7	Sololá	702	San José Chacayá	5	Chacayá	9	Septiembre	2023-09-29T00:00:00	2024-11-06T05:00:00	6	Velocidad del viento	1.6
122150	7	Sololá	702	San José Chacayá	5	Chacayá	9	Septiembre	2023-09-29T00:00:00	2024-11-06T05:00:00	7	Dirección del viento	0.8
122151	7	Sololá	702	San José Chacayá	5	Chacayá	9	Septiembre	2023-09-29T00:00:00	2024-11-06T05:00:00	1	Precipitación	0.2
122152	7	Sololá	702	San José Chacayá	5	Chacayá	9	Septiembre	2023-09-29T00:00:00	2024-11-06T05:00:00	8	Radiación solar	0
122153	7	Sololá	702	San José Chacayá	5	Chacayá	9	Septiembre	2023-09-29T00:00:00	2024-11-06T06:00:00	2	Temperatura media	13.1
122154	7	Sololá	702	San José Chacayá	5	Chacayá	9	Septiembre	2023-09-29T00:00:00	2024-11-06T06:00:00	4	Temperatura máxima	13.2
122155	7	Sololá	702	San José Chacayá	5	Chacayá	9	Septiembre	2023-09-29T00:00:00	2024-11-06T06:00:00	3	Temperatura mínima	13.1
122156	7	Sololá	702	San José Chacayá	5	Chacayá	9	Septiembre	2023-09-29T00:00:00	2024-11-06T06:00:00	5	Humedad	22
122157	7	Sololá	702	San José Chacayá	5	Chacayá	9	Septiembre	2023-09-29T00:00:00	2024-11-06T06:00:00	6	Velocidad del viento	1.6
122158	7	Sololá	702	San José Chacayá	5	Chacayá	9	Septiembre	2023-09-29T00:00:00	2024-11-06T06:00:00	7	Dirección del viento	0.8
122159	7	Sololá	702	San José Chacayá	5	Chacayá	9	Septiembre	2023-09-29T00:00:00	2024-11-06T06:00:00	1	Precipitación	0
122160	7	Sololá	702	San José Chacayá	5	Chacayá	9	Septiembre	2023-09-29T00:00:00	2024-11-06T06:00:00	8	Radiación solar	0
122161	7	Sololá	702	San José Chacayá	5	Chacayá	9	Septiembre	2023-09-29T00:00:00	2024-11-06T07:00:00	2	Temperatura media	13.9
122162	7	Sololá	702	San José Chacayá	5	Chacayá	9	Septiembre	2023-09-29T00:00:00	2024-11-06T07:00:00	4	Temperatura máxima	13.9
122163	7	Sololá	702	San José Chacayá	5	Chacayá	9	Septiembre	2023-09-29T00:00:00	2024-11-06T07:00:00	3	Temperatura mínima	13.3
122164	7	Sololá	702	San José Chacayá	5	Chacayá	9	Septiembre	2023-09-29T00:00:00	2024-11-06T07:00:00	5	Humedad	12
122165	7	Sololá	702	San José Chacayá	5	Chacayá	9	Septiembre	2023-09-29T00:00:00	2024-11-06T07:00:00	6	Velocidad del viento	1.6
122166	7	Sololá	702	San José Chacayá	5	Chacayá	9	Septiembre	2023-09-29T00:00:00	2024-11-06T07:00:00	7	Dirección del viento	0.8
122167	7	Sololá	702	San José Chacayá	5	Chacayá	9	Septiembre	2023-09-29T00:00:00	2024-11-06T07:00:00	1	Precipitación	0
122168	7	Sololá	702	San José Chacayá	5	Chacayá	9	Septiembre	2023-09-29T00:00:00	2024-11-06T07:00:00	8	Radiación solar	46
122169	7	Sololá	702	San José Chacayá	5	Chacayá	9	Septiembre	2023-09-29T00:00:00	2024-11-06T08:00:00	2	Temperatura media	15.4
122170	7	Sololá	702	San José Chacayá	5	Chacayá	9	Septiembre	2023-09-29T00:00:00	2024-11-06T08:00:00	4	Temperatura máxima	15.4
122171	7	Sololá	702	San José Chacayá	5	Chacayá	9	Septiembre	2023-09-29T00:00:00	2024-11-06T08:00:00	3	Temperatura mínima	14.6
122172	7	Sololá	702	San José Chacayá	5	Chacayá	9	Septiembre	2023-09-29T00:00:00	2024-11-06T08:00:00	5	Humedad	31
122173	7	Sololá	702	San José Chacayá	5	Chacayá	9	Septiembre	2023-09-29T00:00:00	2024-11-06T08:00:00	6	Velocidad del viento	0
122174	7	Sololá	702	San José Chacayá	5	Chacayá	9	Septiembre	2023-09-29T00:00:00	2024-11-06T08:00:00	7	Dirección del viento	0
122175	7	Sololá	702	San José Chacayá	5	Chacayá	9	Septiembre	2023-09-29T00:00:00	2024-11-06T08:00:00	1	Precipitación	0
122176	7	Sololá	702	San José Chacayá	5	Chacayá	9	Septiembre	2023-09-29T00:00:00	2024-11-06T08:00:00	8	Radiación solar	135
122177	7	Sololá	702	San José Chacayá	5	Chacayá	9	Septiembre	2023-09-29T00:00:00	2024-11-06T09:00:00	2	Temperatura media	17.4
122178	7	Sololá	702	San José Chacayá	5	Chacayá	9	Septiembre	2023-09-29T00:00:00	2024-11-06T09:00:00	4	Temperatura máxima	17.4
122179	7	Sololá	702	San José Chacayá	5	Chacayá	9	Septiembre	2023-09-29T00:00:00	2024-11-06T09:00:00	3	Temperatura mínima	16.2
122180	7	Sololá	702	San José Chacayá	5	Chacayá	9	Septiembre	2023-09-29T00:00:00	2024-11-06T09:00:00	5	Humedad	82
122181	7	Sololá	702	San José Chacayá	5	Chacayá	9	Septiembre	2023-09-29T00:00:00	2024-11-06T09:00:00	6	Velocidad del viento	1.6
122182	7	Sololá	702	San José Chacayá	5	Chacayá	9	Septiembre	2023-09-29T00:00:00	2024-11-06T09:00:00	7	Dirección del viento	0.8
122183	7	Sololá	702	San José Chacayá	5	Chacayá	9	Septiembre	2023-09-29T00:00:00	2024-11-06T09:00:00	1	Precipitación	0
122184	7	Sololá	702	San José Chacayá	5	Chacayá	9	Septiembre	2023-09-29T00:00:00	2024-11-06T09:00:00	8	Radiación solar	269
122185	7	Sololá	702	San José Chacayá	5	Chacayá	9	Septiembre	2023-09-29T00:00:00	2024-11-06T10:00:00	2	Temperatura media	19.9
122186	7	Sololá	702	San José Chacayá	5	Chacayá	9	Septiembre	2023-09-29T00:00:00	2024-11-06T10:00:00	4	Temperatura máxima	19.9
122187	7	Sololá	702	San José Chacayá	5	Chacayá	9	Septiembre	2023-09-29T00:00:00	2024-11-06T10:00:00	3	Temperatura mínima	18.2
122188	7	Sololá	702	San José Chacayá	5	Chacayá	9	Septiembre	2023-09-29T00:00:00	2024-11-06T10:00:00	5	Humedad	75
122189	7	Sololá	702	San José Chacayá	5	Chacayá	9	Septiembre	2023-09-29T00:00:00	2024-11-06T10:00:00	6	Velocidad del viento	0
122190	7	Sololá	702	San José Chacayá	5	Chacayá	9	Septiembre	2023-09-29T00:00:00	2024-11-06T10:00:00	7	Dirección del viento	0
122191	7	Sololá	702	San José Chacayá	5	Chacayá	9	Septiembre	2023-09-29T00:00:00	2024-11-06T10:00:00	1	Precipitación	0
122192	7	Sololá	702	San José Chacayá	5	Chacayá	9	Septiembre	2023-09-29T00:00:00	2024-11-06T10:00:00	8	Radiación solar	509
122193	7	Sololá	702	San José Chacayá	5	Chacayá	9	Septiembre	2023-09-29T00:00:00	2024-11-06T11:00:00	2	Temperatura media	21.8
122194	7	Sololá	702	San José Chacayá	5	Chacayá	9	Septiembre	2023-09-29T00:00:00	2024-11-06T11:00:00	4	Temperatura máxima	22.8
122195	7	Sololá	702	San José Chacayá	5	Chacayá	9	Septiembre	2023-09-29T00:00:00	2024-11-06T11:00:00	3	Temperatura mínima	21.8
122196	7	Sololá	702	San José Chacayá	5	Chacayá	9	Septiembre	2023-09-29T00:00:00	2024-11-06T11:00:00	5	Humedad	65
122197	7	Sololá	702	San José Chacayá	5	Chacayá	9	Septiembre	2023-09-29T00:00:00	2024-11-06T11:00:00	6	Velocidad del viento	6.4
122198	7	Sololá	702	San José Chacayá	5	Chacayá	9	Septiembre	2023-09-29T00:00:00	2024-11-06T11:00:00	7	Dirección del viento	3.22
122199	7	Sololá	702	San José Chacayá	5	Chacayá	9	Septiembre	2023-09-29T00:00:00	2024-11-06T11:00:00	1	Precipitación	0
122200	7	Sololá	702	San José Chacayá	5	Chacayá	9	Septiembre	2023-09-29T00:00:00	2024-11-06T11:00:00	8	Radiación solar	713
122201	7	Sololá	702	San José Chacayá	5	Chacayá	9	Septiembre	2023-09-29T00:00:00	2024-11-06T12:00:00	2	Temperatura media	21.2
122202	7	Sololá	702	San José Chacayá	5	Chacayá	9	Septiembre	2023-09-29T00:00:00	2024-11-06T12:00:00	4	Temperatura máxima	22.4
122203	7	Sololá	702	San José Chacayá	5	Chacayá	9	Septiembre	2023-09-29T00:00:00	2024-11-06T12:00:00	3	Temperatura mínima	21.2
122204	7	Sololá	702	San José Chacayá	5	Chacayá	9	Septiembre	2023-09-29T00:00:00	2024-11-06T12:00:00	5	Humedad	70
122205	7	Sololá	702	San José Chacayá	5	Chacayá	9	Septiembre	2023-09-29T00:00:00	2024-11-06T12:00:00	6	Velocidad del viento	4.8
122206	7	Sololá	702	San José Chacayá	5	Chacayá	9	Septiembre	2023-09-29T00:00:00	2024-11-06T12:00:00	7	Dirección del viento	2.41
122207	7	Sololá	702	San José Chacayá	5	Chacayá	9	Septiembre	2023-09-29T00:00:00	2024-11-06T12:00:00	1	Precipitación	0
122208	7	Sololá	702	San José Chacayá	5	Chacayá	9	Septiembre	2023-09-29T00:00:00	2024-11-06T12:00:00	8	Radiación solar	405
122209	7	Sololá	702	San José Chacayá	5	Chacayá	9	Septiembre	2023-09-29T00:00:00	2024-11-06T13:00:00	2	Temperatura media	18.3
122210	7	Sololá	702	San José Chacayá	5	Chacayá	9	Septiembre	2023-09-29T00:00:00	2024-11-06T13:00:00	4	Temperatura máxima	19.2
122211	7	Sololá	702	San José Chacayá	5	Chacayá	9	Septiembre	2023-09-29T00:00:00	2024-11-06T13:00:00	3	Temperatura mínima	18.3
122212	7	Sololá	702	San José Chacayá	5	Chacayá	9	Septiembre	2023-09-29T00:00:00	2024-11-06T13:00:00	5	Humedad	78
122213	7	Sololá	702	San José Chacayá	5	Chacayá	9	Septiembre	2023-09-29T00:00:00	2024-11-06T13:00:00	6	Velocidad del viento	0
122214	7	Sololá	702	San José Chacayá	5	Chacayá	9	Septiembre	2023-09-29T00:00:00	2024-11-06T13:00:00	7	Dirección del viento	0
122215	7	Sololá	702	San José Chacayá	5	Chacayá	9	Septiembre	2023-09-29T00:00:00	2024-11-06T13:00:00	1	Precipitación	3.6
122216	7	Sololá	702	San José Chacayá	5	Chacayá	9	Septiembre	2023-09-29T00:00:00	2024-11-06T13:00:00	8	Radiación solar	193
122217	7	Sololá	702	San José Chacayá	5	Chacayá	9	Septiembre	2023-09-29T00:00:00	2024-11-06T14:00:00	2	Temperatura media	15.8
122218	7	Sololá	702	San José Chacayá	5	Chacayá	9	Septiembre	2023-09-29T00:00:00	2024-11-06T14:00:00	4	Temperatura máxima	17.8
122219	7	Sololá	702	San José Chacayá	5	Chacayá	9	Septiembre	2023-09-29T00:00:00	2024-11-06T14:00:00	3	Temperatura mínima	15.8
122220	7	Sololá	702	San José Chacayá	5	Chacayá	9	Septiembre	2023-09-29T00:00:00	2024-11-06T14:00:00	5	Humedad	60
122221	7	Sololá	702	San José Chacayá	5	Chacayá	9	Septiembre	2023-09-29T00:00:00	2024-11-06T14:00:00	6	Velocidad del viento	3.2
122222	7	Sololá	702	San José Chacayá	5	Chacayá	9	Septiembre	2023-09-29T00:00:00	2024-11-06T14:00:00	7	Dirección del viento	1.61
122223	7	Sololá	702	San José Chacayá	5	Chacayá	9	Septiembre	2023-09-29T00:00:00	2024-11-06T14:00:00	1	Precipitación	24
122224	7	Sololá	702	San José Chacayá	5	Chacayá	9	Septiembre	2023-09-29T00:00:00	2024-11-06T14:00:00	8	Radiación solar	41
122225	7	Sololá	702	San José Chacayá	5	Chacayá	9	Septiembre	2023-09-29T00:00:00	2024-11-06T15:00:00	2	Temperatura media	16.8
122226	7	Sololá	702	San José Chacayá	5	Chacayá	9	Septiembre	2023-09-29T00:00:00	2024-11-06T15:00:00	4	Temperatura máxima	16.8
122227	7	Sololá	702	San José Chacayá	5	Chacayá	9	Septiembre	2023-09-29T00:00:00	2024-11-06T15:00:00	3	Temperatura mínima	15.8
122228	7	Sololá	702	San José Chacayá	5	Chacayá	9	Septiembre	2023-09-29T00:00:00	2024-11-06T15:00:00	5	Humedad	17
122229	7	Sololá	702	San José Chacayá	5	Chacayá	9	Septiembre	2023-09-29T00:00:00	2024-11-06T15:00:00	6	Velocidad del viento	1.6
122230	7	Sololá	702	San José Chacayá	5	Chacayá	9	Septiembre	2023-09-29T00:00:00	2024-11-06T15:00:00	7	Dirección del viento	0.8
122231	7	Sololá	702	San José Chacayá	5	Chacayá	9	Septiembre	2023-09-29T00:00:00	2024-11-06T15:00:00	1	Precipitación	0
122232	7	Sololá	702	San José Chacayá	5	Chacayá	9	Septiembre	2023-09-29T00:00:00	2024-11-06T15:00:00	8	Radiación solar	146
122233	7	Sololá	702	San José Chacayá	5	Chacayá	9	Septiembre	2023-09-29T00:00:00	2024-11-06T16:00:00	2	Temperatura media	16.7
122234	7	Sololá	702	San José Chacayá	5	Chacayá	9	Septiembre	2023-09-29T00:00:00	2024-11-06T16:00:00	4	Temperatura máxima	16.7
122235	7	Sololá	702	San José Chacayá	5	Chacayá	9	Septiembre	2023-09-29T00:00:00	2024-11-06T16:00:00	3	Temperatura mínima	16.7
122236	7	Sololá	702	San José Chacayá	5	Chacayá	9	Septiembre	2023-09-29T00:00:00	2024-11-06T16:00:00	5	Humedad	20
122237	7	Sololá	702	San José Chacayá	5	Chacayá	9	Septiembre	2023-09-29T00:00:00	2024-11-06T16:00:00	6	Velocidad del viento	1.6
122238	7	Sololá	702	San José Chacayá	5	Chacayá	9	Septiembre	2023-09-29T00:00:00	2024-11-06T16:00:00	7	Dirección del viento	0.8
122239	7	Sololá	702	San José Chacayá	5	Chacayá	9	Septiembre	2023-09-29T00:00:00	2024-11-06T16:00:00	1	Precipitación	12.4
122240	7	Sololá	702	San José Chacayá	5	Chacayá	9	Septiembre	2023-09-29T00:00:00	2024-11-06T16:00:00	8	Radiación solar	48
122241	7	Sololá	702	San José Chacayá	5	Chacayá	9	Septiembre	2023-09-29T00:00:00	2024-11-06T17:00:00	2	Temperatura media	15.8
122242	7	Sololá	702	San José Chacayá	5	Chacayá	9	Septiembre	2023-09-29T00:00:00	2024-11-06T17:00:00	4	Temperatura máxima	16.3
122243	7	Sololá	702	San José Chacayá	5	Chacayá	9	Septiembre	2023-09-29T00:00:00	2024-11-06T17:00:00	3	Temperatura mínima	15.8
122244	7	Sololá	702	San José Chacayá	5	Chacayá	9	Septiembre	2023-09-29T00:00:00	2024-11-06T17:00:00	5	Humedad	22
122245	7	Sololá	702	San José Chacayá	5	Chacayá	9	Septiembre	2023-09-29T00:00:00	2024-11-06T17:00:00	6	Velocidad del viento	1.6
122246	7	Sololá	702	San José Chacayá	5	Chacayá	9	Septiembre	2023-09-29T00:00:00	2024-11-06T17:00:00	7	Dirección del viento	0.8
122247	7	Sololá	702	San José Chacayá	5	Chacayá	9	Septiembre	2023-09-29T00:00:00	2024-11-06T17:00:00	1	Precipitación	24.6
122248	7	Sololá	702	San José Chacayá	5	Chacayá	9	Septiembre	2023-09-29T00:00:00	2024-11-06T17:00:00	8	Radiación solar	0
122249	7	Sololá	702	San José Chacayá	5	Chacayá	9	Septiembre	2023-09-29T00:00:00	2024-11-06T18:00:00	2	Temperatura media	15.4
122250	7	Sololá	702	San José Chacayá	5	Chacayá	9	Septiembre	2023-09-29T00:00:00	2024-11-06T18:00:00	4	Temperatura máxima	15.5
122251	7	Sololá	702	San José Chacayá	5	Chacayá	9	Septiembre	2023-09-29T00:00:00	2024-11-06T18:00:00	3	Temperatura mínima	15.3
122252	7	Sololá	702	San José Chacayá	5	Chacayá	9	Septiembre	2023-09-29T00:00:00	2024-11-06T18:00:00	5	Humedad	20
122253	7	Sololá	702	San José Chacayá	5	Chacayá	9	Septiembre	2023-09-29T00:00:00	2024-11-06T18:00:00	6	Velocidad del viento	0
122254	7	Sololá	702	San José Chacayá	5	Chacayá	9	Septiembre	2023-09-29T00:00:00	2024-11-06T18:00:00	7	Dirección del viento	0
122255	7	Sololá	702	San José Chacayá	5	Chacayá	9	Septiembre	2023-09-29T00:00:00	2024-11-06T18:00:00	1	Precipitación	5.6
122256	7	Sololá	702	San José Chacayá	5	Chacayá	9	Septiembre	2023-09-29T00:00:00	2024-11-06T18:00:00	8	Radiación solar	0
122257	7	Sololá	702	San José Chacayá	5	Chacayá	9	Septiembre	2023-09-29T00:00:00	2024-11-06T19:00:00	2	Temperatura media	15.2
122258	7	Sololá	702	San José Chacayá	5	Chacayá	9	Septiembre	2023-09-29T00:00:00	2024-11-06T19:00:00	4	Temperatura máxima	15.3
122259	7	Sololá	702	San José Chacayá	5	Chacayá	9	Septiembre	2023-09-29T00:00:00	2024-11-06T19:00:00	3	Temperatura mínima	15.2
122260	7	Sololá	702	San José Chacayá	5	Chacayá	9	Septiembre	2023-09-29T00:00:00	2024-11-06T19:00:00	5	Humedad	13
122261	7	Sololá	702	San José Chacayá	5	Chacayá	9	Septiembre	2023-09-29T00:00:00	2024-11-06T19:00:00	6	Velocidad del viento	0
122262	7	Sololá	702	San José Chacayá	5	Chacayá	9	Septiembre	2023-09-29T00:00:00	2024-11-06T19:00:00	7	Dirección del viento	0
122263	7	Sololá	702	San José Chacayá	5	Chacayá	9	Septiembre	2023-09-29T00:00:00	2024-11-06T19:00:00	1	Precipitación	0.4
122264	7	Sololá	702	San José Chacayá	5	Chacayá	9	Septiembre	2023-09-29T00:00:00	2024-11-06T19:00:00	8	Radiación solar	0
122265	7	Sololá	702	San José Chacayá	5	Chacayá	9	Septiembre	2023-09-29T00:00:00	2024-11-06T20:00:00	2	Temperatura media	15
122266	7	Sololá	702	San José Chacayá	5	Chacayá	9	Septiembre	2023-09-29T00:00:00	2024-11-06T20:00:00	4	Temperatura máxima	15.1
122267	7	Sololá	702	San José Chacayá	5	Chacayá	9	Septiembre	2023-09-29T00:00:00	2024-11-06T20:00:00	3	Temperatura mínima	14.9
122268	7	Sololá	702	San José Chacayá	5	Chacayá	9	Septiembre	2023-09-29T00:00:00	2024-11-06T20:00:00	5	Humedad	11
122269	7	Sololá	702	San José Chacayá	5	Chacayá	9	Septiembre	2023-09-29T00:00:00	2024-11-06T20:00:00	6	Velocidad del viento	1.6
122270	7	Sololá	702	San José Chacayá	5	Chacayá	9	Septiembre	2023-09-29T00:00:00	2024-11-06T20:00:00	7	Dirección del viento	0.8
122271	7	Sololá	702	San José Chacayá	5	Chacayá	9	Septiembre	2023-09-29T00:00:00	2024-11-06T20:00:00	1	Precipitación	0.6
122272	7	Sololá	702	San José Chacayá	5	Chacayá	9	Septiembre	2023-09-29T00:00:00	2024-11-06T20:00:00	8	Radiación solar	0
122273	7	Sololá	702	San José Chacayá	5	Chacayá	9	Septiembre	2023-09-29T00:00:00	2024-11-06T21:00:00	2	Temperatura media	15
122274	7	Sololá	702	San José Chacayá	5	Chacayá	9	Septiembre	2023-09-29T00:00:00	2024-11-06T21:00:00	4	Temperatura máxima	15
122275	7	Sololá	702	San José Chacayá	5	Chacayá	9	Septiembre	2023-09-29T00:00:00	2024-11-06T21:00:00	3	Temperatura mínima	14.9
122276	7	Sololá	702	San José Chacayá	5	Chacayá	9	Septiembre	2023-09-29T00:00:00	2024-11-06T21:00:00	5	Humedad	10
122277	7	Sololá	702	San José Chacayá	5	Chacayá	9	Septiembre	2023-09-29T00:00:00	2024-11-06T21:00:00	6	Velocidad del viento	1.6
122278	7	Sololá	702	San José Chacayá	5	Chacayá	9	Septiembre	2023-09-29T00:00:00	2024-11-06T21:00:00	7	Dirección del viento	0.8
122279	7	Sololá	702	San José Chacayá	5	Chacayá	9	Septiembre	2023-09-29T00:00:00	2024-11-06T21:00:00	1	Precipitación	0.2
122280	7	Sololá	702	San José Chacayá	5	Chacayá	9	Septiembre	2023-09-29T00:00:00	2024-11-06T21:00:00	8	Radiación solar	0
122281	7	Sololá	702	San José Chacayá	5	Chacayá	9	Septiembre	2023-09-29T00:00:00	2024-11-06T22:00:00	2	Temperatura media	14.9
122282	7	Sololá	702	San José Chacayá	5	Chacayá	9	Septiembre	2023-09-29T00:00:00	2024-11-06T22:00:00	4	Temperatura máxima	15
122283	7	Sololá	702	San José Chacayá	5	Chacayá	9	Septiembre	2023-09-29T00:00:00	2024-11-06T22:00:00	3	Temperatura mínima	14.9
122284	7	Sololá	702	San José Chacayá	5	Chacayá	9	Septiembre	2023-09-29T00:00:00	2024-11-06T22:00:00	5	Humedad	8
122285	7	Sololá	702	San José Chacayá	5	Chacayá	9	Septiembre	2023-09-29T00:00:00	2024-11-06T22:00:00	6	Velocidad del viento	1.6
122286	7	Sololá	702	San José Chacayá	5	Chacayá	9	Septiembre	2023-09-29T00:00:00	2024-11-06T22:00:00	7	Dirección del viento	0.8
122287	7	Sololá	702	San José Chacayá	5	Chacayá	9	Septiembre	2023-09-29T00:00:00	2024-11-06T22:00:00	1	Precipitación	0.2
122288	7	Sololá	702	San José Chacayá	5	Chacayá	9	Septiembre	2023-09-29T00:00:00	2024-11-06T22:00:00	8	Radiación solar	0
122289	7	Sololá	702	San José Chacayá	5	Chacayá	9	Septiembre	2023-09-29T00:00:00	2024-11-06T23:00:00	2	Temperatura media	14.8
122290	7	Sololá	702	San José Chacayá	5	Chacayá	9	Septiembre	2023-09-29T00:00:00	2024-11-06T23:00:00	4	Temperatura máxima	14.9
122291	7	Sololá	702	San José Chacayá	5	Chacayá	9	Septiembre	2023-09-29T00:00:00	2024-11-06T23:00:00	3	Temperatura mínima	14.8
122292	7	Sololá	702	San José Chacayá	5	Chacayá	9	Septiembre	2023-09-29T00:00:00	2024-11-06T23:00:00	5	Humedad	8
122293	7	Sololá	702	San José Chacayá	5	Chacayá	9	Septiembre	2023-09-29T00:00:00	2024-11-06T23:00:00	6	Velocidad del viento	1.6
122294	7	Sololá	702	San José Chacayá	5	Chacayá	9	Septiembre	2023-09-29T00:00:00	2024-11-06T23:00:00	7	Dirección del viento	0.8
122295	7	Sololá	702	San José Chacayá	5	Chacayá	9	Septiembre	2023-09-29T00:00:00	2024-11-06T23:00:00	1	Precipitación	0
122296	7	Sololá	702	San José Chacayá	5	Chacayá	9	Septiembre	2023-09-29T00:00:00	2024-11-06T23:00:00	8	Radiación solar	0
122297	7	Sololá	702	San José Chacayá	5	Chacayá	9	Septiembre	2023-09-30T00:00:00	2024-11-06T00:00:00	2	Temperatura media	14.7
122298	7	Sololá	702	San José Chacayá	5	Chacayá	9	Septiembre	2023-09-30T00:00:00	2024-11-06T00:00:00	4	Temperatura máxima	14.8
122299	7	Sololá	702	San José Chacayá	5	Chacayá	9	Septiembre	2023-09-30T00:00:00	2024-11-06T00:00:00	3	Temperatura mínima	14.7
122300	7	Sololá	702	San José Chacayá	5	Chacayá	9	Septiembre	2023-09-30T00:00:00	2024-11-06T00:00:00	5	Humedad	8
122301	7	Sololá	702	San José Chacayá	5	Chacayá	9	Septiembre	2023-09-30T00:00:00	2024-11-06T00:00:00	6	Velocidad del viento	0
122302	7	Sololá	702	San José Chacayá	5	Chacayá	9	Septiembre	2023-09-30T00:00:00	2024-11-06T00:00:00	7	Dirección del viento	0
122303	7	Sololá	702	San José Chacayá	5	Chacayá	9	Septiembre	2023-09-30T00:00:00	2024-11-06T00:00:00	1	Precipitación	0
122304	7	Sololá	702	San José Chacayá	5	Chacayá	9	Septiembre	2023-09-30T00:00:00	2024-11-06T00:00:00	8	Radiación solar	0
122305	7	Sololá	702	San José Chacayá	5	Chacayá	9	Septiembre	2023-09-30T00:00:00	2024-11-06T01:00:00	2	Temperatura media	14.5
122306	7	Sololá	702	San José Chacayá	5	Chacayá	9	Septiembre	2023-09-30T00:00:00	2024-11-06T01:00:00	4	Temperatura máxima	14.6
122307	7	Sololá	702	San José Chacayá	5	Chacayá	9	Septiembre	2023-09-30T00:00:00	2024-11-06T01:00:00	3	Temperatura mínima	14.5
122308	7	Sololá	702	San José Chacayá	5	Chacayá	9	Septiembre	2023-09-30T00:00:00	2024-11-06T01:00:00	5	Humedad	9
122309	7	Sololá	702	San José Chacayá	5	Chacayá	9	Septiembre	2023-09-30T00:00:00	2024-11-06T01:00:00	6	Velocidad del viento	1.6
122310	7	Sololá	702	San José Chacayá	5	Chacayá	9	Septiembre	2023-09-30T00:00:00	2024-11-06T01:00:00	7	Dirección del viento	0.8
122311	7	Sololá	702	San José Chacayá	5	Chacayá	9	Septiembre	2023-09-30T00:00:00	2024-11-06T01:00:00	1	Precipitación	0
122312	7	Sololá	702	San José Chacayá	5	Chacayá	9	Septiembre	2023-09-30T00:00:00	2024-11-06T01:00:00	8	Radiación solar	0
122313	7	Sololá	702	San José Chacayá	5	Chacayá	9	Septiembre	2023-09-30T00:00:00	2024-11-06T02:00:00	2	Temperatura media	14.4
122314	7	Sololá	702	San José Chacayá	5	Chacayá	9	Septiembre	2023-09-30T00:00:00	2024-11-06T02:00:00	4	Temperatura máxima	14.5
122315	7	Sololá	702	San José Chacayá	5	Chacayá	9	Septiembre	2023-09-30T00:00:00	2024-11-06T02:00:00	3	Temperatura mínima	14.4
122316	7	Sololá	702	San José Chacayá	5	Chacayá	9	Septiembre	2023-09-30T00:00:00	2024-11-06T02:00:00	5	Humedad	11
122317	7	Sololá	702	San José Chacayá	5	Chacayá	9	Septiembre	2023-09-30T00:00:00	2024-11-06T02:00:00	6	Velocidad del viento	1.6
122318	7	Sololá	702	San José Chacayá	5	Chacayá	9	Septiembre	2023-09-30T00:00:00	2024-11-06T02:00:00	7	Dirección del viento	0.8
122319	7	Sololá	702	San José Chacayá	5	Chacayá	9	Septiembre	2023-09-30T00:00:00	2024-11-06T02:00:00	1	Precipitación	0
122320	7	Sololá	702	San José Chacayá	5	Chacayá	9	Septiembre	2023-09-30T00:00:00	2024-11-06T02:00:00	8	Radiación solar	0
122321	7	Sololá	702	San José Chacayá	5	Chacayá	9	Septiembre	2023-09-30T00:00:00	2024-11-06T03:00:00	2	Temperatura media	13.9
122322	7	Sololá	702	San José Chacayá	5	Chacayá	9	Septiembre	2023-09-30T00:00:00	2024-11-06T03:00:00	4	Temperatura máxima	14.2
122323	7	Sololá	702	San José Chacayá	5	Chacayá	9	Septiembre	2023-09-30T00:00:00	2024-11-06T03:00:00	3	Temperatura mínima	13.9
122324	7	Sololá	702	San José Chacayá	5	Chacayá	9	Septiembre	2023-09-30T00:00:00	2024-11-06T03:00:00	5	Humedad	20
122325	7	Sololá	702	San José Chacayá	5	Chacayá	9	Septiembre	2023-09-30T00:00:00	2024-11-06T03:00:00	6	Velocidad del viento	3.2
122326	7	Sololá	702	San José Chacayá	5	Chacayá	9	Septiembre	2023-09-30T00:00:00	2024-11-06T03:00:00	7	Dirección del viento	1.61
122327	7	Sololá	702	San José Chacayá	5	Chacayá	9	Septiembre	2023-09-30T00:00:00	2024-11-06T03:00:00	1	Precipitación	0
122328	7	Sololá	702	San José Chacayá	5	Chacayá	9	Septiembre	2023-09-30T00:00:00	2024-11-06T03:00:00	8	Radiación solar	0
122329	7	Sololá	702	San José Chacayá	5	Chacayá	9	Septiembre	2023-09-30T00:00:00	2024-11-06T04:00:00	2	Temperatura media	13.3
122330	7	Sololá	702	San José Chacayá	5	Chacayá	9	Septiembre	2023-09-30T00:00:00	2024-11-06T04:00:00	4	Temperatura máxima	13.7
122331	7	Sololá	702	San José Chacayá	5	Chacayá	9	Septiembre	2023-09-30T00:00:00	2024-11-06T04:00:00	3	Temperatura mínima	13.3
122332	7	Sololá	702	San José Chacayá	5	Chacayá	9	Septiembre	2023-09-30T00:00:00	2024-11-06T04:00:00	5	Humedad	30
122333	7	Sololá	702	San José Chacayá	5	Chacayá	9	Septiembre	2023-09-30T00:00:00	2024-11-06T04:00:00	6	Velocidad del viento	3.2
122334	7	Sololá	702	San José Chacayá	5	Chacayá	9	Septiembre	2023-09-30T00:00:00	2024-11-06T04:00:00	7	Dirección del viento	1.61
122335	7	Sololá	702	San José Chacayá	5	Chacayá	9	Septiembre	2023-09-30T00:00:00	2024-11-06T04:00:00	1	Precipitación	0
122336	7	Sololá	702	San José Chacayá	5	Chacayá	9	Septiembre	2023-09-30T00:00:00	2024-11-06T04:00:00	8	Radiación solar	0
122337	7	Sololá	702	San José Chacayá	5	Chacayá	9	Septiembre	2023-09-30T00:00:00	2024-11-06T05:00:00	2	Temperatura media	12.8
122338	7	Sololá	702	San José Chacayá	5	Chacayá	9	Septiembre	2023-09-30T00:00:00	2024-11-06T05:00:00	4	Temperatura máxima	13.1
122339	7	Sololá	702	San José Chacayá	5	Chacayá	9	Septiembre	2023-09-30T00:00:00	2024-11-06T05:00:00	3	Temperatura mínima	12.8
122340	7	Sololá	702	San José Chacayá	5	Chacayá	9	Septiembre	2023-09-30T00:00:00	2024-11-06T05:00:00	5	Humedad	31
122341	7	Sololá	702	San José Chacayá	5	Chacayá	9	Septiembre	2023-09-30T00:00:00	2024-11-06T05:00:00	6	Velocidad del viento	3.2
122342	7	Sololá	702	San José Chacayá	5	Chacayá	9	Septiembre	2023-09-30T00:00:00	2024-11-06T05:00:00	7	Dirección del viento	1.61
122343	7	Sololá	702	San José Chacayá	5	Chacayá	9	Septiembre	2023-09-30T00:00:00	2024-11-06T05:00:00	1	Precipitación	0
122344	7	Sololá	702	San José Chacayá	5	Chacayá	9	Septiembre	2023-09-30T00:00:00	2024-11-06T05:00:00	8	Radiación solar	0
122345	7	Sololá	702	San José Chacayá	5	Chacayá	9	Septiembre	2023-09-30T00:00:00	2024-11-06T06:00:00	2	Temperatura media	12.7
122346	7	Sololá	702	San José Chacayá	5	Chacayá	9	Septiembre	2023-09-30T00:00:00	2024-11-06T06:00:00	4	Temperatura máxima	12.7
122347	7	Sololá	702	San José Chacayá	5	Chacayá	9	Septiembre	2023-09-30T00:00:00	2024-11-06T06:00:00	3	Temperatura mínima	12.6
122348	7	Sololá	702	San José Chacayá	5	Chacayá	9	Septiembre	2023-09-30T00:00:00	2024-11-06T06:00:00	5	Humedad	30
122349	7	Sololá	702	San José Chacayá	5	Chacayá	9	Septiembre	2023-09-30T00:00:00	2024-11-06T06:00:00	6	Velocidad del viento	3.2
122350	7	Sololá	702	San José Chacayá	5	Chacayá	9	Septiembre	2023-09-30T00:00:00	2024-11-06T06:00:00	7	Dirección del viento	1.61
122351	7	Sololá	702	San José Chacayá	5	Chacayá	9	Septiembre	2023-09-30T00:00:00	2024-11-06T06:00:00	1	Precipitación	0
122352	7	Sololá	702	San José Chacayá	5	Chacayá	9	Septiembre	2023-09-30T00:00:00	2024-11-06T06:00:00	8	Radiación solar	0
122353	7	Sololá	702	San José Chacayá	5	Chacayá	9	Septiembre	2023-09-30T00:00:00	2024-11-06T07:00:00	2	Temperatura media	14.1
122354	7	Sololá	702	San José Chacayá	5	Chacayá	9	Septiembre	2023-09-30T00:00:00	2024-11-06T07:00:00	4	Temperatura máxima	14.1
122355	7	Sololá	702	San José Chacayá	5	Chacayá	9	Septiembre	2023-09-30T00:00:00	2024-11-06T07:00:00	3	Temperatura mínima	12.9
122356	7	Sololá	702	San José Chacayá	5	Chacayá	9	Septiembre	2023-09-30T00:00:00	2024-11-06T07:00:00	5	Humedad	23
122357	7	Sololá	702	San José Chacayá	5	Chacayá	9	Septiembre	2023-09-30T00:00:00	2024-11-06T07:00:00	6	Velocidad del viento	1.6
122358	7	Sololá	702	San José Chacayá	5	Chacayá	9	Septiembre	2023-09-30T00:00:00	2024-11-06T07:00:00	7	Dirección del viento	0.8
122359	7	Sololá	702	San José Chacayá	5	Chacayá	9	Septiembre	2023-09-30T00:00:00	2024-11-06T07:00:00	1	Precipitación	0
122360	7	Sololá	702	San José Chacayá	5	Chacayá	9	Septiembre	2023-09-30T00:00:00	2024-11-06T07:00:00	8	Radiación solar	97
122361	7	Sololá	702	San José Chacayá	5	Chacayá	9	Septiembre	2023-09-30T00:00:00	2024-11-06T08:00:00	2	Temperatura media	17.3
122362	7	Sololá	702	San José Chacayá	5	Chacayá	9	Septiembre	2023-09-30T00:00:00	2024-11-06T08:00:00	4	Temperatura máxima	17.3
122363	7	Sololá	702	San José Chacayá	5	Chacayá	9	Septiembre	2023-09-30T00:00:00	2024-11-06T08:00:00	3	Temperatura mínima	15.7
122364	7	Sololá	702	San José Chacayá	5	Chacayá	9	Septiembre	2023-09-30T00:00:00	2024-11-06T08:00:00	5	Humedad	83
122365	7	Sololá	702	San José Chacayá	5	Chacayá	9	Septiembre	2023-09-30T00:00:00	2024-11-06T08:00:00	6	Velocidad del viento	1.6
122366	7	Sololá	702	San José Chacayá	5	Chacayá	9	Septiembre	2023-09-30T00:00:00	2024-11-06T08:00:00	7	Dirección del viento	0.8
122367	7	Sololá	702	San José Chacayá	5	Chacayá	9	Septiembre	2023-09-30T00:00:00	2024-11-06T08:00:00	1	Precipitación	0
122368	7	Sololá	702	San José Chacayá	5	Chacayá	9	Septiembre	2023-09-30T00:00:00	2024-11-06T08:00:00	8	Radiación solar	302
122369	7	Sololá	702	San José Chacayá	5	Chacayá	9	Septiembre	2023-09-30T00:00:00	2024-11-06T09:00:00	2	Temperatura media	19.1
122370	7	Sololá	702	San José Chacayá	5	Chacayá	9	Septiembre	2023-09-30T00:00:00	2024-11-06T09:00:00	4	Temperatura máxima	19.3
122371	7	Sololá	702	San José Chacayá	5	Chacayá	9	Septiembre	2023-09-30T00:00:00	2024-11-06T09:00:00	3	Temperatura mínima	18.9
122372	7	Sololá	702	San José Chacayá	5	Chacayá	9	Septiembre	2023-09-30T00:00:00	2024-11-06T09:00:00	5	Humedad	80
122373	7	Sololá	702	San José Chacayá	5	Chacayá	9	Septiembre	2023-09-30T00:00:00	2024-11-06T09:00:00	6	Velocidad del viento	4.8
122374	7	Sololá	702	San José Chacayá	5	Chacayá	9	Septiembre	2023-09-30T00:00:00	2024-11-06T09:00:00	7	Dirección del viento	2.41
122375	7	Sololá	702	San José Chacayá	5	Chacayá	9	Septiembre	2023-09-30T00:00:00	2024-11-06T09:00:00	1	Precipitación	0
122376	7	Sololá	702	San José Chacayá	5	Chacayá	9	Septiembre	2023-09-30T00:00:00	2024-11-06T09:00:00	8	Radiación solar	423
122377	7	Sololá	702	San José Chacayá	5	Chacayá	9	Septiembre	2023-09-30T00:00:00	2024-11-06T10:00:00	2	Temperatura media	21
122378	7	Sololá	702	San José Chacayá	5	Chacayá	9	Septiembre	2023-09-30T00:00:00	2024-11-06T10:00:00	4	Temperatura máxima	21.1
122379	7	Sololá	702	San José Chacayá	5	Chacayá	9	Septiembre	2023-09-30T00:00:00	2024-11-06T10:00:00	3	Temperatura mínima	20.4
122380	7	Sololá	702	San José Chacayá	5	Chacayá	9	Septiembre	2023-09-30T00:00:00	2024-11-06T10:00:00	5	Humedad	74
122381	7	Sololá	702	San José Chacayá	5	Chacayá	9	Septiembre	2023-09-30T00:00:00	2024-11-06T10:00:00	6	Velocidad del viento	4.8
122382	7	Sololá	702	San José Chacayá	5	Chacayá	9	Septiembre	2023-09-30T00:00:00	2024-11-06T10:00:00	7	Dirección del viento	2.41
122383	7	Sololá	702	San José Chacayá	5	Chacayá	9	Septiembre	2023-09-30T00:00:00	2024-11-06T10:00:00	1	Precipitación	0
122384	7	Sololá	702	San José Chacayá	5	Chacayá	9	Septiembre	2023-09-30T00:00:00	2024-11-06T10:00:00	8	Radiación solar	756
122385	7	Sololá	702	San José Chacayá	5	Chacayá	9	Septiembre	2023-09-30T00:00:00	2024-11-06T11:00:00	2	Temperatura media	19.9
122386	7	Sololá	702	San José Chacayá	5	Chacayá	9	Septiembre	2023-09-30T00:00:00	2024-11-06T11:00:00	4	Temperatura máxima	21.3
122387	7	Sololá	702	San José Chacayá	5	Chacayá	9	Septiembre	2023-09-30T00:00:00	2024-11-06T11:00:00	3	Temperatura mínima	19.9
122388	7	Sololá	702	San José Chacayá	5	Chacayá	9	Septiembre	2023-09-30T00:00:00	2024-11-06T11:00:00	5	Humedad	79
122389	7	Sololá	702	San José Chacayá	5	Chacayá	9	Septiembre	2023-09-30T00:00:00	2024-11-06T11:00:00	6	Velocidad del viento	8
122390	7	Sololá	702	San José Chacayá	5	Chacayá	9	Septiembre	2023-09-30T00:00:00	2024-11-06T11:00:00	7	Dirección del viento	4.02
122391	7	Sololá	702	San José Chacayá	5	Chacayá	9	Septiembre	2023-09-30T00:00:00	2024-11-06T11:00:00	1	Precipitación	0
122392	7	Sololá	702	San José Chacayá	5	Chacayá	9	Septiembre	2023-09-30T00:00:00	2024-11-06T11:00:00	8	Radiación solar	314
122393	7	Sololá	702	San José Chacayá	5	Chacayá	9	Septiembre	2023-09-30T00:00:00	2024-11-06T12:00:00	2	Temperatura media	21.7
122394	7	Sololá	702	San José Chacayá	5	Chacayá	9	Septiembre	2023-09-30T00:00:00	2024-11-06T12:00:00	4	Temperatura máxima	22.6
122395	7	Sololá	702	San José Chacayá	5	Chacayá	9	Septiembre	2023-09-30T00:00:00	2024-11-06T12:00:00	3	Temperatura mínima	21.6
122396	7	Sololá	702	San José Chacayá	5	Chacayá	9	Septiembre	2023-09-30T00:00:00	2024-11-06T12:00:00	5	Humedad	73
122397	7	Sololá	702	San José Chacayá	5	Chacayá	9	Septiembre	2023-09-30T00:00:00	2024-11-06T12:00:00	6	Velocidad del viento	4.8
122398	7	Sololá	702	San José Chacayá	5	Chacayá	9	Septiembre	2023-09-30T00:00:00	2024-11-06T12:00:00	7	Dirección del viento	2.41
122399	7	Sololá	702	San José Chacayá	5	Chacayá	9	Septiembre	2023-09-30T00:00:00	2024-11-06T12:00:00	1	Precipitación	0
122400	7	Sololá	702	San José Chacayá	5	Chacayá	9	Septiembre	2023-09-30T00:00:00	2024-11-06T12:00:00	8	Radiación solar	525
122401	7	Sololá	702	San José Chacayá	5	Chacayá	9	Septiembre	2023-09-30T00:00:00	2024-11-06T13:00:00	2	Temperatura media	21.2
122402	7	Sololá	702	San José Chacayá	5	Chacayá	9	Septiembre	2023-09-30T00:00:00	2024-11-06T13:00:00	4	Temperatura máxima	21.8
122403	7	Sololá	702	San José Chacayá	5	Chacayá	9	Septiembre	2023-09-30T00:00:00	2024-11-06T13:00:00	3	Temperatura mínima	20.9
122404	7	Sololá	702	San José Chacayá	5	Chacayá	9	Septiembre	2023-09-30T00:00:00	2024-11-06T13:00:00	5	Humedad	79
122405	7	Sololá	702	San José Chacayá	5	Chacayá	9	Septiembre	2023-09-30T00:00:00	2024-11-06T13:00:00	6	Velocidad del viento	6.4
122406	7	Sololá	702	San José Chacayá	5	Chacayá	9	Septiembre	2023-09-30T00:00:00	2024-11-06T13:00:00	7	Dirección del viento	3.22
122407	7	Sololá	702	San José Chacayá	5	Chacayá	9	Septiembre	2023-09-30T00:00:00	2024-11-06T13:00:00	1	Precipitación	0
122408	7	Sololá	702	San José Chacayá	5	Chacayá	9	Septiembre	2023-09-30T00:00:00	2024-11-06T13:00:00	8	Radiación solar	544
122409	7	Sololá	702	San José Chacayá	5	Chacayá	9	Septiembre	2023-09-30T00:00:00	2024-11-06T14:00:00	2	Temperatura media	17.3
122410	7	Sololá	702	San José Chacayá	5	Chacayá	9	Septiembre	2023-09-30T00:00:00	2024-11-06T14:00:00	4	Temperatura máxima	22.1
122411	7	Sololá	702	San José Chacayá	5	Chacayá	9	Septiembre	2023-09-30T00:00:00	2024-11-06T14:00:00	3	Temperatura mínima	17.3
122412	7	Sololá	702	San José Chacayá	5	Chacayá	9	Septiembre	2023-09-30T00:00:00	2024-11-06T14:00:00	5	Humedad	83
122413	7	Sololá	702	San José Chacayá	5	Chacayá	9	Septiembre	2023-09-30T00:00:00	2024-11-06T14:00:00	6	Velocidad del viento	4.8
122414	7	Sololá	702	San José Chacayá	5	Chacayá	9	Septiembre	2023-09-30T00:00:00	2024-11-06T14:00:00	7	Dirección del viento	2.41
122415	7	Sololá	702	San José Chacayá	5	Chacayá	9	Septiembre	2023-09-30T00:00:00	2024-11-06T14:00:00	1	Precipitación	24.4
122416	7	Sololá	702	San José Chacayá	5	Chacayá	9	Septiembre	2023-09-30T00:00:00	2024-11-06T14:00:00	8	Radiación solar	167
122417	7	Sololá	702	San José Chacayá	5	Chacayá	9	Septiembre	2023-09-30T00:00:00	2024-11-06T15:00:00	2	Temperatura media	15.7
122418	7	Sololá	702	San José Chacayá	5	Chacayá	9	Septiembre	2023-09-30T00:00:00	2024-11-06T15:00:00	4	Temperatura máxima	15.8
122419	7	Sololá	702	San José Chacayá	5	Chacayá	9	Septiembre	2023-09-30T00:00:00	2024-11-06T15:00:00	3	Temperatura mínima	15.6
122420	7	Sololá	702	San José Chacayá	5	Chacayá	9	Septiembre	2023-09-30T00:00:00	2024-11-06T15:00:00	5	Humedad	94
122421	7	Sololá	702	San José Chacayá	5	Chacayá	9	Septiembre	2023-09-30T00:00:00	2024-11-06T15:00:00	6	Velocidad del viento	0
122422	7	Sololá	702	San José Chacayá	5	Chacayá	9	Septiembre	2023-09-30T00:00:00	2024-11-06T15:00:00	7	Dirección del viento	0
122423	7	Sololá	702	San José Chacayá	5	Chacayá	9	Septiembre	2023-09-30T00:00:00	2024-11-06T15:00:00	1	Precipitación	12
122424	7	Sololá	702	San José Chacayá	5	Chacayá	9	Septiembre	2023-09-30T00:00:00	2024-11-06T15:00:00	8	Radiación solar	29
122425	7	Sololá	702	San José Chacayá	5	Chacayá	9	Septiembre	2023-09-30T00:00:00	2024-11-06T16:00:00	2	Temperatura media	16.8
122426	7	Sololá	702	San José Chacayá	5	Chacayá	9	Septiembre	2023-09-30T00:00:00	2024-11-06T16:00:00	4	Temperatura máxima	16.8
122427	7	Sololá	702	San José Chacayá	5	Chacayá	9	Septiembre	2023-09-30T00:00:00	2024-11-06T16:00:00	3	Temperatura mínima	16.2
122428	7	Sololá	702	San José Chacayá	5	Chacayá	9	Septiembre	2023-09-30T00:00:00	2024-11-06T16:00:00	5	Humedad	28
122429	7	Sololá	702	San José Chacayá	5	Chacayá	9	Septiembre	2023-09-30T00:00:00	2024-11-06T16:00:00	6	Velocidad del viento	0
122430	7	Sololá	702	San José Chacayá	5	Chacayá	9	Septiembre	2023-09-30T00:00:00	2024-11-06T16:00:00	7	Dirección del viento	0
122431	7	Sololá	702	San José Chacayá	5	Chacayá	9	Septiembre	2023-09-30T00:00:00	2024-11-06T16:00:00	1	Precipitación	0
122432	7	Sololá	702	San José Chacayá	5	Chacayá	9	Septiembre	2023-09-30T00:00:00	2024-11-06T16:00:00	8	Radiación solar	144
122433	7	Sololá	702	San José Chacayá	5	Chacayá	9	Septiembre	2023-09-30T00:00:00	2024-11-06T17:00:00	2	Temperatura media	17.4
122434	7	Sololá	702	San José Chacayá	5	Chacayá	9	Septiembre	2023-09-30T00:00:00	2024-11-06T17:00:00	4	Temperatura máxima	17.4
122435	7	Sololá	702	San José Chacayá	5	Chacayá	9	Septiembre	2023-09-30T00:00:00	2024-11-06T17:00:00	3	Temperatura mínima	17.2
122436	7	Sololá	702	San José Chacayá	5	Chacayá	9	Septiembre	2023-09-30T00:00:00	2024-11-06T17:00:00	5	Humedad	32
122437	7	Sololá	702	San José Chacayá	5	Chacayá	9	Septiembre	2023-09-30T00:00:00	2024-11-06T17:00:00	6	Velocidad del viento	0
122438	7	Sololá	702	San José Chacayá	5	Chacayá	9	Septiembre	2023-09-30T00:00:00	2024-11-06T17:00:00	7	Dirección del viento	0
122439	7	Sololá	702	San José Chacayá	5	Chacayá	9	Septiembre	2023-09-30T00:00:00	2024-11-06T17:00:00	1	Precipitación	0
122440	7	Sololá	702	San José Chacayá	5	Chacayá	9	Septiembre	2023-09-30T00:00:00	2024-11-06T17:00:00	8	Radiación solar	83
122441	7	Sololá	702	San José Chacayá	5	Chacayá	9	Septiembre	2023-09-30T00:00:00	2024-11-06T18:00:00	2	Temperatura media	16.7
122442	7	Sololá	702	San José Chacayá	5	Chacayá	9	Septiembre	2023-09-30T00:00:00	2024-11-06T18:00:00	4	Temperatura máxima	17
122443	7	Sololá	702	San José Chacayá	5	Chacayá	9	Septiembre	2023-09-30T00:00:00	2024-11-06T18:00:00	3	Temperatura mínima	16.7
122444	7	Sololá	702	San José Chacayá	5	Chacayá	9	Septiembre	2023-09-30T00:00:00	2024-11-06T18:00:00	5	Humedad	37
122445	7	Sololá	702	San José Chacayá	5	Chacayá	9	Septiembre	2023-09-30T00:00:00	2024-11-06T18:00:00	6	Velocidad del viento	0
122446	7	Sololá	702	San José Chacayá	5	Chacayá	9	Septiembre	2023-09-30T00:00:00	2024-11-06T18:00:00	7	Dirección del viento	0
122447	7	Sololá	702	San José Chacayá	5	Chacayá	9	Septiembre	2023-09-30T00:00:00	2024-11-06T18:00:00	1	Precipitación	0
122448	7	Sololá	702	San José Chacayá	5	Chacayá	9	Septiembre	2023-09-30T00:00:00	2024-11-06T18:00:00	8	Radiación solar	5
122449	7	Sololá	702	San José Chacayá	5	Chacayá	9	Septiembre	2023-09-30T00:00:00	2024-11-06T19:00:00	2	Temperatura media	16.4
122450	7	Sololá	702	San José Chacayá	5	Chacayá	9	Septiembre	2023-09-30T00:00:00	2024-11-06T19:00:00	4	Temperatura máxima	16.6
122451	7	Sololá	702	San José Chacayá	5	Chacayá	9	Septiembre	2023-09-30T00:00:00	2024-11-06T19:00:00	3	Temperatura mínima	16.4
122452	7	Sololá	702	San José Chacayá	5	Chacayá	9	Septiembre	2023-09-30T00:00:00	2024-11-06T19:00:00	5	Humedad	25
122453	7	Sololá	702	San José Chacayá	5	Chacayá	9	Septiembre	2023-09-30T00:00:00	2024-11-06T19:00:00	6	Velocidad del viento	0
122454	7	Sololá	702	San José Chacayá	5	Chacayá	9	Septiembre	2023-09-30T00:00:00	2024-11-06T19:00:00	7	Dirección del viento	0
122455	7	Sololá	702	San José Chacayá	5	Chacayá	9	Septiembre	2023-09-30T00:00:00	2024-11-06T19:00:00	1	Precipitación	0
122456	7	Sololá	702	San José Chacayá	5	Chacayá	9	Septiembre	2023-09-30T00:00:00	2024-11-06T19:00:00	8	Radiación solar	0
122457	7	Sololá	702	San José Chacayá	5	Chacayá	9	Septiembre	2023-09-30T00:00:00	2024-11-06T20:00:00	2	Temperatura media	16.7
122458	7	Sololá	702	San José Chacayá	5	Chacayá	9	Septiembre	2023-09-30T00:00:00	2024-11-06T20:00:00	4	Temperatura máxima	16.7
122459	7	Sololá	702	San José Chacayá	5	Chacayá	9	Septiembre	2023-09-30T00:00:00	2024-11-06T20:00:00	3	Temperatura mínima	16.6
122460	7	Sololá	702	San José Chacayá	5	Chacayá	9	Septiembre	2023-09-30T00:00:00	2024-11-06T20:00:00	5	Humedad	15
122461	7	Sololá	702	San José Chacayá	5	Chacayá	9	Septiembre	2023-09-30T00:00:00	2024-11-06T20:00:00	6	Velocidad del viento	1.6
122462	7	Sololá	702	San José Chacayá	5	Chacayá	9	Septiembre	2023-09-30T00:00:00	2024-11-06T20:00:00	7	Dirección del viento	0.8
122463	7	Sololá	702	San José Chacayá	5	Chacayá	9	Septiembre	2023-09-30T00:00:00	2024-11-06T20:00:00	1	Precipitación	11.4
122464	7	Sololá	702	San José Chacayá	5	Chacayá	9	Septiembre	2023-09-30T00:00:00	2024-11-06T20:00:00	8	Radiación solar	0
122465	7	Sololá	702	San José Chacayá	5	Chacayá	9	Septiembre	2023-09-30T00:00:00	2024-11-06T21:00:00	2	Temperatura media	14.9
122466	7	Sololá	702	San José Chacayá	5	Chacayá	9	Septiembre	2023-09-30T00:00:00	2024-11-06T21:00:00	4	Temperatura máxima	15.4
122467	7	Sololá	702	San José Chacayá	5	Chacayá	9	Septiembre	2023-09-30T00:00:00	2024-11-06T21:00:00	3	Temperatura mínima	14.9
122468	7	Sololá	702	San José Chacayá	5	Chacayá	9	Septiembre	2023-09-30T00:00:00	2024-11-06T21:00:00	5	Humedad	39
122469	7	Sololá	702	San José Chacayá	5	Chacayá	9	Septiembre	2023-09-30T00:00:00	2024-11-06T21:00:00	6	Velocidad del viento	0
122470	7	Sololá	702	San José Chacayá	5	Chacayá	9	Septiembre	2023-09-30T00:00:00	2024-11-06T21:00:00	7	Dirección del viento	0
122471	7	Sololá	702	San José Chacayá	5	Chacayá	9	Septiembre	2023-09-30T00:00:00	2024-11-06T21:00:00	1	Precipitación	1
122472	7	Sololá	702	San José Chacayá	5	Chacayá	9	Septiembre	2023-09-30T00:00:00	2024-11-06T21:00:00	8	Radiación solar	0
122473	7	Sololá	702	San José Chacayá	5	Chacayá	9	Septiembre	2023-09-30T00:00:00	2024-11-06T22:00:00	2	Temperatura media	15
122474	7	Sololá	702	San José Chacayá	5	Chacayá	9	Septiembre	2023-09-30T00:00:00	2024-11-06T22:00:00	4	Temperatura máxima	15.1
122475	7	Sololá	702	San José Chacayá	5	Chacayá	9	Septiembre	2023-09-30T00:00:00	2024-11-06T22:00:00	3	Temperatura mínima	15
122476	7	Sololá	702	San José Chacayá	5	Chacayá	9	Septiembre	2023-09-30T00:00:00	2024-11-06T22:00:00	5	Humedad	25
122477	7	Sololá	702	San José Chacayá	5	Chacayá	9	Septiembre	2023-09-30T00:00:00	2024-11-06T22:00:00	6	Velocidad del viento	0
122478	7	Sololá	702	San José Chacayá	5	Chacayá	9	Septiembre	2023-09-30T00:00:00	2024-11-06T22:00:00	7	Dirección del viento	0
122479	7	Sololá	702	San José Chacayá	5	Chacayá	9	Septiembre	2023-09-30T00:00:00	2024-11-06T22:00:00	1	Precipitación	0.6
122480	7	Sololá	702	San José Chacayá	5	Chacayá	9	Septiembre	2023-09-30T00:00:00	2024-11-06T22:00:00	8	Radiación solar	0
122481	7	Sololá	702	San José Chacayá	5	Chacayá	9	Septiembre	2023-09-30T00:00:00	2024-11-06T23:00:00	2	Temperatura media	14.7
122482	7	Sololá	702	San José Chacayá	5	Chacayá	9	Septiembre	2023-09-30T00:00:00	2024-11-06T23:00:00	4	Temperatura máxima	14.8
122483	7	Sololá	702	San José Chacayá	5	Chacayá	9	Septiembre	2023-09-30T00:00:00	2024-11-06T23:00:00	3	Temperatura mínima	14.7
122484	7	Sololá	702	San José Chacayá	5	Chacayá	9	Septiembre	2023-09-30T00:00:00	2024-11-06T23:00:00	5	Humedad	28
122485	7	Sololá	702	San José Chacayá	5	Chacayá	9	Septiembre	2023-09-30T00:00:00	2024-11-06T23:00:00	6	Velocidad del viento	1.6
122486	7	Sololá	702	San José Chacayá	5	Chacayá	9	Septiembre	2023-09-30T00:00:00	2024-11-06T23:00:00	7	Dirección del viento	0.8
122487	7	Sololá	702	San José Chacayá	5	Chacayá	9	Septiembre	2023-09-30T00:00:00	2024-11-06T23:00:00	1	Precipitación	0
122488	7	Sololá	702	San José Chacayá	5	Chacayá	9	Septiembre	2023-09-30T00:00:00	2024-11-06T23:00:00	8	Radiación solar	0
122489	7	Sololá	702	San José Chacayá	5	Chacayá	10	Octubre	2023-01-10T00:00:00	2024-11-06T00:00:00	2	Temperatura media	14.3
122490	7	Sololá	702	San José Chacayá	5	Chacayá	10	Octubre	2023-01-10T00:00:00	2024-11-06T00:00:00	4	Temperatura máxima	14.5
122491	7	Sololá	702	San José Chacayá	5	Chacayá	10	Octubre	2023-01-10T00:00:00	2024-11-06T00:00:00	3	Temperatura mínima	14.3
122492	7	Sololá	702	San José Chacayá	5	Chacayá	10	Octubre	2023-01-10T00:00:00	2024-11-06T00:00:00	5	Humedad	27
122493	7	Sololá	702	San José Chacayá	5	Chacayá	10	Octubre	2023-01-10T00:00:00	2024-11-06T00:00:00	6	Velocidad del viento	1.6
122494	7	Sololá	702	San José Chacayá	5	Chacayá	10	Octubre	2023-01-10T00:00:00	2024-11-06T00:00:00	7	Dirección del viento	0.8
122495	7	Sololá	702	San José Chacayá	5	Chacayá	10	Octubre	2023-01-10T00:00:00	2024-11-06T00:00:00	1	Precipitación	0
122496	7	Sololá	702	San José Chacayá	5	Chacayá	10	Octubre	2023-01-10T00:00:00	2024-11-06T00:00:00	8	Radiación solar	0
122497	7	Sololá	702	San José Chacayá	5	Chacayá	10	Octubre	2023-01-10T00:00:00	2024-11-06T01:00:00	2	Temperatura media	13.9
122498	7	Sololá	702	San José Chacayá	5	Chacayá	10	Octubre	2023-01-10T00:00:00	2024-11-06T01:00:00	4	Temperatura máxima	14.2
122499	7	Sololá	702	San José Chacayá	5	Chacayá	10	Octubre	2023-01-10T00:00:00	2024-11-06T01:00:00	3	Temperatura mínima	13.9
122500	7	Sololá	702	San José Chacayá	5	Chacayá	10	Octubre	2023-01-10T00:00:00	2024-11-06T01:00:00	5	Humedad	96
122501	7	Sololá	702	San José Chacayá	5	Chacayá	10	Octubre	2023-01-10T00:00:00	2024-11-06T01:00:00	6	Velocidad del viento	0
122502	7	Sololá	702	San José Chacayá	5	Chacayá	10	Octubre	2023-01-10T00:00:00	2024-11-06T01:00:00	7	Dirección del viento	0
122503	7	Sololá	702	San José Chacayá	5	Chacayá	10	Octubre	2023-01-10T00:00:00	2024-11-06T01:00:00	1	Precipitación	0
122504	7	Sololá	702	San José Chacayá	5	Chacayá	10	Octubre	2023-01-10T00:00:00	2024-11-06T01:00:00	8	Radiación solar	0
122505	7	Sololá	702	San José Chacayá	5	Chacayá	10	Octubre	2023-01-10T00:00:00	2024-11-06T02:00:00	2	Temperatura media	13.5
122506	7	Sololá	702	San José Chacayá	5	Chacayá	10	Octubre	2023-01-10T00:00:00	2024-11-06T02:00:00	4	Temperatura máxima	13.9
122507	7	Sololá	702	San José Chacayá	5	Chacayá	10	Octubre	2023-01-10T00:00:00	2024-11-06T02:00:00	3	Temperatura mínima	13.5
122508	7	Sololá	702	San José Chacayá	5	Chacayá	10	Octubre	2023-01-10T00:00:00	2024-11-06T02:00:00	5	Humedad	96
122509	7	Sololá	702	San José Chacayá	5	Chacayá	10	Octubre	2023-01-10T00:00:00	2024-11-06T02:00:00	6	Velocidad del viento	0
122510	7	Sololá	702	San José Chacayá	5	Chacayá	10	Octubre	2023-01-10T00:00:00	2024-11-06T02:00:00	7	Dirección del viento	0
122511	7	Sololá	702	San José Chacayá	5	Chacayá	10	Octubre	2023-01-10T00:00:00	2024-11-06T02:00:00	1	Precipitación	0
122512	7	Sololá	702	San José Chacayá	5	Chacayá	10	Octubre	2023-01-10T00:00:00	2024-11-06T02:00:00	8	Radiación solar	0
122513	7	Sololá	702	San José Chacayá	5	Chacayá	10	Octubre	2023-01-10T00:00:00	2024-11-06T03:00:00	2	Temperatura media	12.6
122514	7	Sololá	702	San José Chacayá	5	Chacayá	10	Octubre	2023-01-10T00:00:00	2024-11-06T03:00:00	4	Temperatura máxima	13.5
122515	7	Sololá	702	San José Chacayá	5	Chacayá	10	Octubre	2023-01-10T00:00:00	2024-11-06T03:00:00	3	Temperatura mínima	12.6
122516	7	Sololá	702	San José Chacayá	5	Chacayá	10	Octubre	2023-01-10T00:00:00	2024-11-06T03:00:00	5	Humedad	95
122517	7	Sololá	702	San José Chacayá	5	Chacayá	10	Octubre	2023-01-10T00:00:00	2024-11-06T03:00:00	6	Velocidad del viento	0
122518	7	Sololá	702	San José Chacayá	5	Chacayá	10	Octubre	2023-01-10T00:00:00	2024-11-06T03:00:00	7	Dirección del viento	0
122519	7	Sololá	702	San José Chacayá	5	Chacayá	10	Octubre	2023-01-10T00:00:00	2024-11-06T03:00:00	1	Precipitación	0
122520	7	Sololá	702	San José Chacayá	5	Chacayá	10	Octubre	2023-01-10T00:00:00	2024-11-06T03:00:00	8	Radiación solar	0
122521	7	Sololá	702	San José Chacayá	5	Chacayá	10	Octubre	2023-01-10T00:00:00	2024-11-06T04:00:00	2	Temperatura media	11.9
122522	7	Sololá	702	San José Chacayá	5	Chacayá	10	Octubre	2023-01-10T00:00:00	2024-11-06T04:00:00	4	Temperatura máxima	12.7
122523	7	Sololá	702	San José Chacayá	5	Chacayá	10	Octubre	2023-01-10T00:00:00	2024-11-06T04:00:00	3	Temperatura mínima	11.9
122524	7	Sololá	702	San José Chacayá	5	Chacayá	10	Octubre	2023-01-10T00:00:00	2024-11-06T04:00:00	5	Humedad	95
122525	7	Sololá	702	San José Chacayá	5	Chacayá	10	Octubre	2023-01-10T00:00:00	2024-11-06T04:00:00	6	Velocidad del viento	0
122526	7	Sololá	702	San José Chacayá	5	Chacayá	10	Octubre	2023-01-10T00:00:00	2024-11-06T04:00:00	7	Dirección del viento	0
122527	7	Sololá	702	San José Chacayá	5	Chacayá	10	Octubre	2023-01-10T00:00:00	2024-11-06T04:00:00	1	Precipitación	0
122528	7	Sololá	702	San José Chacayá	5	Chacayá	10	Octubre	2023-01-10T00:00:00	2024-11-06T04:00:00	8	Radiación solar	0
122529	7	Sololá	702	San José Chacayá	5	Chacayá	10	Octubre	2023-01-10T00:00:00	2024-11-06T05:00:00	2	Temperatura media	11.2
122530	7	Sololá	702	San José Chacayá	5	Chacayá	10	Octubre	2023-01-10T00:00:00	2024-11-06T05:00:00	4	Temperatura máxima	11.9
122531	7	Sololá	702	San José Chacayá	5	Chacayá	10	Octubre	2023-01-10T00:00:00	2024-11-06T05:00:00	3	Temperatura mínima	11.2
122532	7	Sololá	702	San José Chacayá	5	Chacayá	10	Octubre	2023-01-10T00:00:00	2024-11-06T05:00:00	5	Humedad	96
122533	7	Sololá	702	San José Chacayá	5	Chacayá	10	Octubre	2023-01-10T00:00:00	2024-11-06T05:00:00	6	Velocidad del viento	0
122534	7	Sololá	702	San José Chacayá	5	Chacayá	10	Octubre	2023-01-10T00:00:00	2024-11-06T05:00:00	7	Dirección del viento	0
122535	7	Sololá	702	San José Chacayá	5	Chacayá	10	Octubre	2023-01-10T00:00:00	2024-11-06T05:00:00	1	Precipitación	0
122536	7	Sololá	702	San José Chacayá	5	Chacayá	10	Octubre	2023-01-10T00:00:00	2024-11-06T05:00:00	8	Radiación solar	0
122537	7	Sololá	702	San José Chacayá	5	Chacayá	10	Octubre	2023-01-10T00:00:00	2024-11-06T06:00:00	2	Temperatura media	10.8
122538	7	Sololá	702	San José Chacayá	5	Chacayá	10	Octubre	2023-01-10T00:00:00	2024-11-06T06:00:00	4	Temperatura máxima	11.2
122539	7	Sololá	702	San José Chacayá	5	Chacayá	10	Octubre	2023-01-10T00:00:00	2024-11-06T06:00:00	3	Temperatura mínima	10.8
122540	7	Sololá	702	San José Chacayá	5	Chacayá	10	Octubre	2023-01-10T00:00:00	2024-11-06T06:00:00	5	Humedad	96
122541	7	Sololá	702	San José Chacayá	5	Chacayá	10	Octubre	2023-01-10T00:00:00	2024-11-06T06:00:00	6	Velocidad del viento	1.6
122542	7	Sololá	702	San José Chacayá	5	Chacayá	10	Octubre	2023-01-10T00:00:00	2024-11-06T06:00:00	7	Dirección del viento	1.61
122543	7	Sololá	702	San José Chacayá	5	Chacayá	10	Octubre	2023-01-10T00:00:00	2024-11-06T06:00:00	1	Precipitación	0.2
122544	7	Sololá	702	San José Chacayá	5	Chacayá	10	Octubre	2023-01-10T00:00:00	2024-11-06T06:00:00	8	Radiación solar	1
122545	7	Sololá	702	San José Chacayá	5	Chacayá	10	Octubre	2023-01-10T00:00:00	2024-11-06T07:00:00	2	Temperatura media	10.4
122546	7	Sololá	702	San José Chacayá	5	Chacayá	10	Octubre	2023-01-10T00:00:00	2024-11-06T07:00:00	4	Temperatura máxima	10.9
122547	7	Sololá	702	San José Chacayá	5	Chacayá	10	Octubre	2023-01-10T00:00:00	2024-11-06T07:00:00	3	Temperatura mínima	10.4
122548	7	Sololá	702	San José Chacayá	5	Chacayá	10	Octubre	2023-01-10T00:00:00	2024-11-06T07:00:00	5	Humedad	96
122549	7	Sololá	702	San José Chacayá	5	Chacayá	10	Octubre	2023-01-10T00:00:00	2024-11-06T07:00:00	6	Velocidad del viento	0
122550	7	Sololá	702	San José Chacayá	5	Chacayá	10	Octubre	2023-01-10T00:00:00	2024-11-06T07:00:00	7	Dirección del viento	0
122551	7	Sololá	702	San José Chacayá	5	Chacayá	10	Octubre	2023-01-10T00:00:00	2024-11-06T07:00:00	1	Precipitación	0
122552	7	Sololá	702	San José Chacayá	5	Chacayá	10	Octubre	2023-01-10T00:00:00	2024-11-06T07:00:00	8	Radiación solar	118
122553	7	Sololá	702	San José Chacayá	5	Chacayá	10	Octubre	2023-01-10T00:00:00	2024-11-06T08:00:00	2	Temperatura media	11.8
122554	7	Sololá	702	San José Chacayá	5	Chacayá	10	Octubre	2023-01-10T00:00:00	2024-11-06T08:00:00	4	Temperatura máxima	11.8
122555	7	Sololá	702	San José Chacayá	5	Chacayá	10	Octubre	2023-01-10T00:00:00	2024-11-06T08:00:00	3	Temperatura mínima	10.4
122556	7	Sololá	702	San José Chacayá	5	Chacayá	10	Octubre	2023-01-10T00:00:00	2024-11-06T08:00:00	5	Humedad	97
122557	7	Sololá	702	San José Chacayá	5	Chacayá	10	Octubre	2023-01-10T00:00:00	2024-11-06T08:00:00	6	Velocidad del viento	1.6
122558	7	Sololá	702	San José Chacayá	5	Chacayá	10	Octubre	2023-01-10T00:00:00	2024-11-06T08:00:00	7	Dirección del viento	1.61
122559	7	Sololá	702	San José Chacayá	5	Chacayá	10	Octubre	2023-01-10T00:00:00	2024-11-06T08:00:00	1	Precipitación	0
122560	7	Sololá	702	San José Chacayá	5	Chacayá	10	Octubre	2023-01-10T00:00:00	2024-11-06T08:00:00	8	Radiación solar	302
122561	7	Sololá	702	San José Chacayá	5	Chacayá	10	Octubre	2023-01-10T00:00:00	2024-11-06T09:00:00	2	Temperatura media	15.1
122562	7	Sololá	702	San José Chacayá	5	Chacayá	10	Octubre	2023-01-10T00:00:00	2024-11-06T09:00:00	4	Temperatura máxima	15.1
122563	7	Sololá	702	San José Chacayá	5	Chacayá	10	Octubre	2023-01-10T00:00:00	2024-11-06T09:00:00	3	Temperatura mínima	11.8
122564	7	Sololá	702	San José Chacayá	5	Chacayá	10	Octubre	2023-01-10T00:00:00	2024-11-06T09:00:00	5	Humedad	89
122565	7	Sololá	702	San José Chacayá	5	Chacayá	10	Octubre	2023-01-10T00:00:00	2024-11-06T09:00:00	6	Velocidad del viento	0
122566	7	Sololá	702	San José Chacayá	5	Chacayá	10	Octubre	2023-01-10T00:00:00	2024-11-06T09:00:00	7	Dirección del viento	0
122567	7	Sololá	702	San José Chacayá	5	Chacayá	10	Octubre	2023-01-10T00:00:00	2024-11-06T09:00:00	1	Precipitación	0
122568	7	Sololá	702	San José Chacayá	5	Chacayá	10	Octubre	2023-01-10T00:00:00	2024-11-06T09:00:00	8	Radiación solar	610
122569	7	Sololá	702	San José Chacayá	5	Chacayá	10	Octubre	2023-01-10T00:00:00	2024-11-06T10:00:00	2	Temperatura media	19.9
122570	7	Sololá	702	San José Chacayá	5	Chacayá	10	Octubre	2023-01-10T00:00:00	2024-11-06T10:00:00	4	Temperatura máxima	19.9
122571	7	Sololá	702	San José Chacayá	5	Chacayá	10	Octubre	2023-01-10T00:00:00	2024-11-06T10:00:00	3	Temperatura mínima	15.1
122572	7	Sololá	702	San José Chacayá	5	Chacayá	10	Octubre	2023-01-10T00:00:00	2024-11-06T10:00:00	5	Humedad	74
122573	7	Sololá	702	San José Chacayá	5	Chacayá	10	Octubre	2023-01-10T00:00:00	2024-11-06T10:00:00	6	Velocidad del viento	1.6
122574	7	Sololá	702	San José Chacayá	5	Chacayá	10	Octubre	2023-01-10T00:00:00	2024-11-06T10:00:00	7	Dirección del viento	1.61
122575	7	Sololá	702	San José Chacayá	5	Chacayá	10	Octubre	2023-01-10T00:00:00	2024-11-06T10:00:00	1	Precipitación	0
122576	7	Sololá	702	San José Chacayá	5	Chacayá	10	Octubre	2023-01-10T00:00:00	2024-11-06T10:00:00	8	Radiación solar	793
122577	7	Sololá	702	San José Chacayá	5	Chacayá	10	Octubre	2023-01-10T00:00:00	2024-11-06T11:00:00	2	Temperatura media	23.2
122578	7	Sololá	702	San José Chacayá	5	Chacayá	10	Octubre	2023-01-10T00:00:00	2024-11-06T11:00:00	4	Temperatura máxima	23.2
122579	7	Sololá	702	San José Chacayá	5	Chacayá	10	Octubre	2023-01-10T00:00:00	2024-11-06T11:00:00	3	Temperatura mínima	19.9
122580	7	Sololá	702	San José Chacayá	5	Chacayá	10	Octubre	2023-01-10T00:00:00	2024-11-06T11:00:00	5	Humedad	61
122581	7	Sololá	702	San José Chacayá	5	Chacayá	10	Octubre	2023-01-10T00:00:00	2024-11-06T11:00:00	6	Velocidad del viento	3.2
122582	7	Sololá	702	San José Chacayá	5	Chacayá	10	Octubre	2023-01-10T00:00:00	2024-11-06T11:00:00	7	Dirección del viento	3.22
122583	7	Sololá	702	San José Chacayá	5	Chacayá	10	Octubre	2023-01-10T00:00:00	2024-11-06T11:00:00	1	Precipitación	0
122584	7	Sololá	702	San José Chacayá	5	Chacayá	10	Octubre	2023-01-10T00:00:00	2024-11-06T11:00:00	8	Radiación solar	834
122585	7	Sololá	702	San José Chacayá	5	Chacayá	10	Octubre	2023-01-10T00:00:00	2024-11-06T12:00:00	2	Temperatura media	23.9
122586	7	Sololá	702	San José Chacayá	5	Chacayá	10	Octubre	2023-01-10T00:00:00	2024-11-06T12:00:00	4	Temperatura máxima	24.1
122587	7	Sololá	702	San José Chacayá	5	Chacayá	10	Octubre	2023-01-10T00:00:00	2024-11-06T12:00:00	3	Temperatura mínima	23.2
122588	7	Sololá	702	San José Chacayá	5	Chacayá	10	Octubre	2023-01-10T00:00:00	2024-11-06T12:00:00	5	Humedad	60
122589	7	Sololá	702	San José Chacayá	5	Chacayá	10	Octubre	2023-01-10T00:00:00	2024-11-06T12:00:00	6	Velocidad del viento	3.2
122590	7	Sololá	702	San José Chacayá	5	Chacayá	10	Octubre	2023-01-10T00:00:00	2024-11-06T12:00:00	7	Dirección del viento	3.22
122591	7	Sololá	702	San José Chacayá	5	Chacayá	10	Octubre	2023-01-10T00:00:00	2024-11-06T12:00:00	1	Precipitación	0
122592	7	Sololá	702	San José Chacayá	5	Chacayá	10	Octubre	2023-01-10T00:00:00	2024-11-06T12:00:00	8	Radiación solar	727
122593	7	Sololá	702	San José Chacayá	5	Chacayá	10	Octubre	2023-01-10T00:00:00	2024-11-06T13:00:00	2	Temperatura media	22.7
122594	7	Sololá	702	San José Chacayá	5	Chacayá	10	Octubre	2023-01-10T00:00:00	2024-11-06T13:00:00	4	Temperatura máxima	24.1
122595	7	Sololá	702	San José Chacayá	5	Chacayá	10	Octubre	2023-01-10T00:00:00	2024-11-06T13:00:00	3	Temperatura mínima	22.4
122596	7	Sololá	702	San José Chacayá	5	Chacayá	10	Octubre	2023-01-10T00:00:00	2024-11-06T13:00:00	5	Humedad	73
122597	7	Sololá	702	San José Chacayá	5	Chacayá	10	Octubre	2023-01-10T00:00:00	2024-11-06T13:00:00	6	Velocidad del viento	3.2
122598	7	Sololá	702	San José Chacayá	5	Chacayá	10	Octubre	2023-01-10T00:00:00	2024-11-06T13:00:00	7	Dirección del viento	3.22
122599	7	Sololá	702	San José Chacayá	5	Chacayá	10	Octubre	2023-01-10T00:00:00	2024-11-06T13:00:00	1	Precipitación	0
122600	7	Sololá	702	San José Chacayá	5	Chacayá	10	Octubre	2023-01-10T00:00:00	2024-11-06T13:00:00	8	Radiación solar	826
122601	7	Sololá	702	San José Chacayá	5	Chacayá	10	Octubre	2023-01-10T00:00:00	2024-11-06T14:00:00	2	Temperatura media	23.5
122602	7	Sololá	702	San José Chacayá	5	Chacayá	10	Octubre	2023-01-10T00:00:00	2024-11-06T14:00:00	4	Temperatura máxima	23.5
122603	7	Sololá	702	San José Chacayá	5	Chacayá	10	Octubre	2023-01-10T00:00:00	2024-11-06T14:00:00	3	Temperatura mínima	22.2
122604	7	Sololá	702	San José Chacayá	5	Chacayá	10	Octubre	2023-01-10T00:00:00	2024-11-06T14:00:00	5	Humedad	71
122605	7	Sololá	702	San José Chacayá	5	Chacayá	10	Octubre	2023-01-10T00:00:00	2024-11-06T14:00:00	6	Velocidad del viento	3.2
122606	7	Sololá	702	San José Chacayá	5	Chacayá	10	Octubre	2023-01-10T00:00:00	2024-11-06T14:00:00	7	Dirección del viento	3.22
122607	7	Sololá	702	San José Chacayá	5	Chacayá	10	Octubre	2023-01-10T00:00:00	2024-11-06T14:00:00	1	Precipitación	0
122608	7	Sololá	702	San José Chacayá	5	Chacayá	10	Octubre	2023-01-10T00:00:00	2024-11-06T14:00:00	8	Radiación solar	536
122609	7	Sololá	702	San José Chacayá	5	Chacayá	10	Octubre	2023-01-10T00:00:00	2024-11-06T15:00:00	2	Temperatura media	21.4
122610	7	Sololá	702	San José Chacayá	5	Chacayá	10	Octubre	2023-01-10T00:00:00	2024-11-06T15:00:00	4	Temperatura máxima	23.5
122611	7	Sololá	702	San José Chacayá	5	Chacayá	10	Octubre	2023-01-10T00:00:00	2024-11-06T15:00:00	3	Temperatura mínima	21.4
122612	7	Sololá	702	San José Chacayá	5	Chacayá	10	Octubre	2023-01-10T00:00:00	2024-11-06T15:00:00	5	Humedad	74
122613	7	Sololá	702	San José Chacayá	5	Chacayá	10	Octubre	2023-01-10T00:00:00	2024-11-06T15:00:00	6	Velocidad del viento	4.8
122614	7	Sololá	702	San José Chacayá	5	Chacayá	10	Octubre	2023-01-10T00:00:00	2024-11-06T15:00:00	7	Dirección del viento	4.83
122615	7	Sololá	702	San José Chacayá	5	Chacayá	10	Octubre	2023-01-10T00:00:00	2024-11-06T15:00:00	1	Precipitación	0
122616	7	Sololá	702	San José Chacayá	5	Chacayá	10	Octubre	2023-01-10T00:00:00	2024-11-06T15:00:00	8	Radiación solar	290
122617	7	Sololá	702	San José Chacayá	5	Chacayá	10	Octubre	2023-01-10T00:00:00	2024-11-06T16:00:00	2	Temperatura media	20.1
122618	7	Sololá	702	San José Chacayá	5	Chacayá	10	Octubre	2023-01-10T00:00:00	2024-11-06T16:00:00	4	Temperatura máxima	21.4
122619	7	Sololá	702	San José Chacayá	5	Chacayá	10	Octubre	2023-01-10T00:00:00	2024-11-06T16:00:00	3	Temperatura mínima	20.1
122620	7	Sololá	702	San José Chacayá	5	Chacayá	10	Octubre	2023-01-10T00:00:00	2024-11-06T16:00:00	5	Humedad	81
122621	7	Sololá	702	San José Chacayá	5	Chacayá	10	Octubre	2023-01-10T00:00:00	2024-11-06T16:00:00	6	Velocidad del viento	4.8
122622	7	Sololá	702	San José Chacayá	5	Chacayá	10	Octubre	2023-01-10T00:00:00	2024-11-06T16:00:00	7	Dirección del viento	4.83
122623	7	Sololá	702	San José Chacayá	5	Chacayá	10	Octubre	2023-01-10T00:00:00	2024-11-06T16:00:00	1	Precipitación	0
122624	7	Sololá	702	San José Chacayá	5	Chacayá	10	Octubre	2023-01-10T00:00:00	2024-11-06T16:00:00	8	Radiación solar	109
122625	7	Sololá	702	San José Chacayá	5	Chacayá	10	Octubre	2023-01-10T00:00:00	2024-11-06T17:00:00	2	Temperatura media	18.9
122626	7	Sololá	702	San José Chacayá	5	Chacayá	10	Octubre	2023-01-10T00:00:00	2024-11-06T17:00:00	4	Temperatura máxima	20.1
122627	7	Sololá	702	San José Chacayá	5	Chacayá	10	Octubre	2023-01-10T00:00:00	2024-11-06T17:00:00	3	Temperatura mínima	18.9
122628	7	Sololá	702	San José Chacayá	5	Chacayá	10	Octubre	2023-01-10T00:00:00	2024-11-06T17:00:00	5	Humedad	86
122629	7	Sololá	702	San José Chacayá	5	Chacayá	10	Octubre	2023-01-10T00:00:00	2024-11-06T17:00:00	6	Velocidad del viento	3.2
122630	7	Sololá	702	San José Chacayá	5	Chacayá	10	Octubre	2023-01-10T00:00:00	2024-11-06T17:00:00	7	Dirección del viento	3.22
122631	7	Sololá	702	San José Chacayá	5	Chacayá	10	Octubre	2023-01-10T00:00:00	2024-11-06T17:00:00	1	Precipitación	0
122632	7	Sololá	702	San José Chacayá	5	Chacayá	10	Octubre	2023-01-10T00:00:00	2024-11-06T17:00:00	8	Radiación solar	62
122633	7	Sololá	702	San José Chacayá	5	Chacayá	10	Octubre	2023-01-10T00:00:00	2024-11-06T18:00:00	2	Temperatura media	17.9
122634	7	Sololá	702	San José Chacayá	5	Chacayá	10	Octubre	2023-01-10T00:00:00	2024-11-06T18:00:00	4	Temperatura máxima	18.9
122635	7	Sololá	702	San José Chacayá	5	Chacayá	10	Octubre	2023-01-10T00:00:00	2024-11-06T18:00:00	3	Temperatura mínima	17.9
122636	7	Sololá	702	San José Chacayá	5	Chacayá	10	Octubre	2023-01-10T00:00:00	2024-11-06T18:00:00	5	Humedad	90
122637	7	Sololá	702	San José Chacayá	5	Chacayá	10	Octubre	2023-01-10T00:00:00	2024-11-06T18:00:00	6	Velocidad del viento	0
122638	7	Sololá	702	San José Chacayá	5	Chacayá	10	Octubre	2023-01-10T00:00:00	2024-11-06T18:00:00	7	Dirección del viento	0
122639	7	Sololá	702	San José Chacayá	5	Chacayá	10	Octubre	2023-01-10T00:00:00	2024-11-06T18:00:00	1	Precipitación	0
122640	7	Sololá	702	San José Chacayá	5	Chacayá	10	Octubre	2023-01-10T00:00:00	2024-11-06T18:00:00	8	Radiación solar	5
122641	7	Sololá	702	San José Chacayá	5	Chacayá	10	Octubre	2023-01-10T00:00:00	2024-11-06T19:00:00	2	Temperatura media	17.1
122642	7	Sololá	702	San José Chacayá	5	Chacayá	10	Octubre	2023-01-10T00:00:00	2024-11-06T19:00:00	4	Temperatura máxima	17.9
122643	7	Sololá	702	San José Chacayá	5	Chacayá	10	Octubre	2023-01-10T00:00:00	2024-11-06T19:00:00	3	Temperatura mínima	17
122644	7	Sololá	702	San José Chacayá	5	Chacayá	10	Octubre	2023-01-10T00:00:00	2024-11-06T19:00:00	5	Humedad	92
122645	7	Sololá	702	San José Chacayá	5	Chacayá	10	Octubre	2023-01-10T00:00:00	2024-11-06T19:00:00	6	Velocidad del viento	1.6
122646	7	Sololá	702	San José Chacayá	5	Chacayá	10	Octubre	2023-01-10T00:00:00	2024-11-06T19:00:00	7	Dirección del viento	1.61
122647	7	Sololá	702	San José Chacayá	5	Chacayá	10	Octubre	2023-01-10T00:00:00	2024-11-06T19:00:00	1	Precipitación	0
122648	7	Sololá	702	San José Chacayá	5	Chacayá	10	Octubre	2023-01-10T00:00:00	2024-11-06T19:00:00	8	Radiación solar	0
122649	7	Sololá	702	San José Chacayá	5	Chacayá	10	Octubre	2023-01-10T00:00:00	2024-11-06T20:00:00	2	Temperatura media	15.8
122650	7	Sololá	702	San José Chacayá	5	Chacayá	10	Octubre	2023-01-10T00:00:00	2024-11-06T20:00:00	4	Temperatura máxima	17.1
122651	7	Sololá	702	San José Chacayá	5	Chacayá	10	Octubre	2023-01-10T00:00:00	2024-11-06T20:00:00	3	Temperatura mínima	15.8
122652	7	Sololá	702	San José Chacayá	5	Chacayá	10	Octubre	2023-01-10T00:00:00	2024-11-06T20:00:00	5	Humedad	94
122653	7	Sololá	702	San José Chacayá	5	Chacayá	10	Octubre	2023-01-10T00:00:00	2024-11-06T20:00:00	6	Velocidad del viento	1.6
122654	7	Sololá	702	San José Chacayá	5	Chacayá	10	Octubre	2023-01-10T00:00:00	2024-11-06T20:00:00	7	Dirección del viento	1.61
122655	7	Sololá	702	San José Chacayá	5	Chacayá	10	Octubre	2023-01-10T00:00:00	2024-11-06T20:00:00	1	Precipitación	4.2
122656	7	Sololá	702	San José Chacayá	5	Chacayá	10	Octubre	2023-01-10T00:00:00	2024-11-06T20:00:00	8	Radiación solar	0
122657	7	Sololá	702	San José Chacayá	5	Chacayá	10	Octubre	2023-01-10T00:00:00	2024-11-06T21:00:00	2	Temperatura media	15.4
122658	7	Sololá	702	San José Chacayá	5	Chacayá	10	Octubre	2023-01-10T00:00:00	2024-11-06T21:00:00	4	Temperatura máxima	15.8
122659	7	Sololá	702	San José Chacayá	5	Chacayá	10	Octubre	2023-01-10T00:00:00	2024-11-06T21:00:00	3	Temperatura mínima	15.4
122660	7	Sololá	702	San José Chacayá	5	Chacayá	10	Octubre	2023-01-10T00:00:00	2024-11-06T21:00:00	5	Humedad	95
122661	7	Sololá	702	San José Chacayá	5	Chacayá	10	Octubre	2023-01-10T00:00:00	2024-11-06T21:00:00	6	Velocidad del viento	0
122662	7	Sololá	702	San José Chacayá	5	Chacayá	10	Octubre	2023-01-10T00:00:00	2024-11-06T21:00:00	7	Dirección del viento	0
122663	7	Sololá	702	San José Chacayá	5	Chacayá	10	Octubre	2023-01-10T00:00:00	2024-11-06T21:00:00	1	Precipitación	0
122664	7	Sololá	702	San José Chacayá	5	Chacayá	10	Octubre	2023-01-10T00:00:00	2024-11-06T21:00:00	8	Radiación solar	0
122665	7	Sololá	702	San José Chacayá	5	Chacayá	10	Octubre	2023-01-10T00:00:00	2024-11-06T22:00:00	2	Temperatura media	15.4
122666	7	Sololá	702	San José Chacayá	5	Chacayá	10	Octubre	2023-01-10T00:00:00	2024-11-06T22:00:00	4	Temperatura máxima	15.5
122667	7	Sololá	702	San José Chacayá	5	Chacayá	10	Octubre	2023-01-10T00:00:00	2024-11-06T22:00:00	3	Temperatura mínima	15.3
122668	7	Sololá	702	San José Chacayá	5	Chacayá	10	Octubre	2023-01-10T00:00:00	2024-11-06T22:00:00	5	Humedad	96
122669	7	Sololá	702	San José Chacayá	5	Chacayá	10	Octubre	2023-01-10T00:00:00	2024-11-06T22:00:00	6	Velocidad del viento	0
122670	7	Sololá	702	San José Chacayá	5	Chacayá	10	Octubre	2023-01-10T00:00:00	2024-11-06T22:00:00	7	Dirección del viento	0
122671	7	Sololá	702	San José Chacayá	5	Chacayá	10	Octubre	2023-01-10T00:00:00	2024-11-06T22:00:00	1	Precipitación	6.6
122672	7	Sololá	702	San José Chacayá	5	Chacayá	10	Octubre	2023-01-10T00:00:00	2024-11-06T22:00:00	8	Radiación solar	0
122673	7	Sololá	702	San José Chacayá	5	Chacayá	10	Octubre	2023-01-10T00:00:00	2024-11-06T23:00:00	2	Temperatura media	15.3
122674	7	Sololá	702	San José Chacayá	5	Chacayá	10	Octubre	2023-01-10T00:00:00	2024-11-06T23:00:00	4	Temperatura máxima	15.5
122675	7	Sololá	702	San José Chacayá	5	Chacayá	10	Octubre	2023-01-10T00:00:00	2024-11-06T23:00:00	3	Temperatura mínima	15.3
122676	7	Sololá	702	San José Chacayá	5	Chacayá	10	Octubre	2023-01-10T00:00:00	2024-11-06T23:00:00	5	Humedad	96
122677	7	Sololá	702	San José Chacayá	5	Chacayá	10	Octubre	2023-01-10T00:00:00	2024-11-06T23:00:00	6	Velocidad del viento	0
122678	7	Sololá	702	San José Chacayá	5	Chacayá	10	Octubre	2023-01-10T00:00:00	2024-11-06T23:00:00	7	Dirección del viento	0
122679	7	Sololá	702	San José Chacayá	5	Chacayá	10	Octubre	2023-01-10T00:00:00	2024-11-06T23:00:00	1	Precipitación	0.6
122680	7	Sololá	702	San José Chacayá	5	Chacayá	10	Octubre	2023-01-10T00:00:00	2024-11-06T23:00:00	8	Radiación solar	0
122681	7	Sololá	702	San José Chacayá	5	Chacayá	10	Octubre	2023-02-10T00:00:00	2024-11-06T00:00:00	2	Temperatura media	14.9
122682	7	Sololá	702	San José Chacayá	5	Chacayá	10	Octubre	2023-02-10T00:00:00	2024-11-06T00:00:00	4	Temperatura máxima	15.3
122683	7	Sololá	702	San José Chacayá	5	Chacayá	10	Octubre	2023-02-10T00:00:00	2024-11-06T00:00:00	3	Temperatura mínima	14.9
122684	7	Sololá	702	San José Chacayá	5	Chacayá	10	Octubre	2023-02-10T00:00:00	2024-11-06T00:00:00	5	Humedad	95
122685	7	Sololá	702	San José Chacayá	5	Chacayá	10	Octubre	2023-02-10T00:00:00	2024-11-06T00:00:00	6	Velocidad del viento	0
122686	7	Sololá	702	San José Chacayá	5	Chacayá	10	Octubre	2023-02-10T00:00:00	2024-11-06T00:00:00	7	Dirección del viento	0
122687	7	Sololá	702	San José Chacayá	5	Chacayá	10	Octubre	2023-02-10T00:00:00	2024-11-06T00:00:00	1	Precipitación	0
122688	7	Sololá	702	San José Chacayá	5	Chacayá	10	Octubre	2023-02-10T00:00:00	2024-11-06T00:00:00	8	Radiación solar	0
122689	7	Sololá	702	San José Chacayá	5	Chacayá	10	Octubre	2023-02-10T00:00:00	2024-11-06T01:00:00	2	Temperatura media	14.8
122690	7	Sololá	702	San José Chacayá	5	Chacayá	10	Octubre	2023-02-10T00:00:00	2024-11-06T01:00:00	4	Temperatura máxima	14.9
122691	7	Sololá	702	San José Chacayá	5	Chacayá	10	Octubre	2023-02-10T00:00:00	2024-11-06T01:00:00	3	Temperatura mínima	14.8
122692	7	Sololá	702	San José Chacayá	5	Chacayá	10	Octubre	2023-02-10T00:00:00	2024-11-06T01:00:00	5	Humedad	95
122693	7	Sololá	702	San José Chacayá	5	Chacayá	10	Octubre	2023-02-10T00:00:00	2024-11-06T01:00:00	6	Velocidad del viento	0
122694	7	Sololá	702	San José Chacayá	5	Chacayá	10	Octubre	2023-02-10T00:00:00	2024-11-06T01:00:00	7	Dirección del viento	0
122695	7	Sololá	702	San José Chacayá	5	Chacayá	10	Octubre	2023-02-10T00:00:00	2024-11-06T01:00:00	1	Precipitación	0.2
122696	7	Sololá	702	San José Chacayá	5	Chacayá	10	Octubre	2023-02-10T00:00:00	2024-11-06T01:00:00	8	Radiación solar	0
122697	7	Sololá	702	San José Chacayá	5	Chacayá	10	Octubre	2023-02-10T00:00:00	2024-11-06T02:00:00	2	Temperatura media	14.6
122698	7	Sololá	702	San José Chacayá	5	Chacayá	10	Octubre	2023-02-10T00:00:00	2024-11-06T02:00:00	4	Temperatura máxima	14.8
122699	7	Sololá	702	San José Chacayá	5	Chacayá	10	Octubre	2023-02-10T00:00:00	2024-11-06T02:00:00	3	Temperatura mínima	14.6
122700	7	Sololá	702	San José Chacayá	5	Chacayá	10	Octubre	2023-02-10T00:00:00	2024-11-06T02:00:00	5	Humedad	96
122701	7	Sololá	702	San José Chacayá	5	Chacayá	10	Octubre	2023-02-10T00:00:00	2024-11-06T02:00:00	6	Velocidad del viento	0
122702	7	Sololá	702	San José Chacayá	5	Chacayá	10	Octubre	2023-02-10T00:00:00	2024-11-06T02:00:00	7	Dirección del viento	0
122703	7	Sololá	702	San José Chacayá	5	Chacayá	10	Octubre	2023-02-10T00:00:00	2024-11-06T02:00:00	1	Precipitación	0
122704	7	Sololá	702	San José Chacayá	5	Chacayá	10	Octubre	2023-02-10T00:00:00	2024-11-06T02:00:00	8	Radiación solar	0
122705	7	Sololá	702	San José Chacayá	5	Chacayá	10	Octubre	2023-02-10T00:00:00	2024-11-06T03:00:00	2	Temperatura media	14.2
122706	7	Sololá	702	San José Chacayá	5	Chacayá	10	Octubre	2023-02-10T00:00:00	2024-11-06T03:00:00	4	Temperatura máxima	14.7
122707	7	Sololá	702	San José Chacayá	5	Chacayá	10	Octubre	2023-02-10T00:00:00	2024-11-06T03:00:00	3	Temperatura mínima	14.2
122708	7	Sololá	702	San José Chacayá	5	Chacayá	10	Octubre	2023-02-10T00:00:00	2024-11-06T03:00:00	5	Humedad	95
122709	7	Sololá	702	San José Chacayá	5	Chacayá	10	Octubre	2023-02-10T00:00:00	2024-11-06T03:00:00	6	Velocidad del viento	0
122710	7	Sololá	702	San José Chacayá	5	Chacayá	10	Octubre	2023-02-10T00:00:00	2024-11-06T03:00:00	7	Dirección del viento	0
122711	7	Sololá	702	San José Chacayá	5	Chacayá	10	Octubre	2023-02-10T00:00:00	2024-11-06T03:00:00	1	Precipitación	0
122712	7	Sololá	702	San José Chacayá	5	Chacayá	10	Octubre	2023-02-10T00:00:00	2024-11-06T03:00:00	8	Radiación solar	0
122713	7	Sololá	702	San José Chacayá	5	Chacayá	10	Octubre	2023-02-10T00:00:00	2024-11-06T04:00:00	2	Temperatura media	14.1
122714	7	Sololá	702	San José Chacayá	5	Chacayá	10	Octubre	2023-02-10T00:00:00	2024-11-06T04:00:00	4	Temperatura máxima	14.2
122715	7	Sololá	702	San José Chacayá	5	Chacayá	10	Octubre	2023-02-10T00:00:00	2024-11-06T04:00:00	3	Temperatura mínima	14.1
122716	7	Sololá	702	San José Chacayá	5	Chacayá	10	Octubre	2023-02-10T00:00:00	2024-11-06T04:00:00	5	Humedad	96
122717	7	Sololá	702	San José Chacayá	5	Chacayá	10	Octubre	2023-02-10T00:00:00	2024-11-06T04:00:00	6	Velocidad del viento	0
122718	7	Sololá	702	San José Chacayá	5	Chacayá	10	Octubre	2023-02-10T00:00:00	2024-11-06T04:00:00	7	Dirección del viento	0
122719	7	Sololá	702	San José Chacayá	5	Chacayá	10	Octubre	2023-02-10T00:00:00	2024-11-06T04:00:00	1	Precipitación	0
122720	7	Sololá	702	San José Chacayá	5	Chacayá	10	Octubre	2023-02-10T00:00:00	2024-11-06T04:00:00	8	Radiación solar	0
122721	7	Sololá	702	San José Chacayá	5	Chacayá	10	Octubre	2023-02-10T00:00:00	2024-11-06T05:00:00	2	Temperatura media	13.3
122722	7	Sololá	702	San José Chacayá	5	Chacayá	10	Octubre	2023-02-10T00:00:00	2024-11-06T05:00:00	4	Temperatura máxima	14.1
122723	7	Sololá	702	San José Chacayá	5	Chacayá	10	Octubre	2023-02-10T00:00:00	2024-11-06T05:00:00	3	Temperatura mínima	13.3
122724	7	Sololá	702	San José Chacayá	5	Chacayá	10	Octubre	2023-02-10T00:00:00	2024-11-06T05:00:00	5	Humedad	95
122725	7	Sololá	702	San José Chacayá	5	Chacayá	10	Octubre	2023-02-10T00:00:00	2024-11-06T05:00:00	6	Velocidad del viento	0
122726	7	Sololá	702	San José Chacayá	5	Chacayá	10	Octubre	2023-02-10T00:00:00	2024-11-06T05:00:00	7	Dirección del viento	0
122727	7	Sololá	702	San José Chacayá	5	Chacayá	10	Octubre	2023-02-10T00:00:00	2024-11-06T05:00:00	1	Precipitación	0
122728	7	Sololá	702	San José Chacayá	5	Chacayá	10	Octubre	2023-02-10T00:00:00	2024-11-06T05:00:00	8	Radiación solar	0
122729	7	Sololá	702	San José Chacayá	5	Chacayá	10	Octubre	2023-02-10T00:00:00	2024-11-06T06:00:00	2	Temperatura media	12.4
122730	7	Sololá	702	San José Chacayá	5	Chacayá	10	Octubre	2023-02-10T00:00:00	2024-11-06T06:00:00	4	Temperatura máxima	13.3
122731	7	Sololá	702	San José Chacayá	5	Chacayá	10	Octubre	2023-02-10T00:00:00	2024-11-06T06:00:00	3	Temperatura mínima	12.4
122732	7	Sololá	702	San José Chacayá	5	Chacayá	10	Octubre	2023-02-10T00:00:00	2024-11-06T06:00:00	5	Humedad	95
122733	7	Sololá	702	San José Chacayá	5	Chacayá	10	Octubre	2023-02-10T00:00:00	2024-11-06T06:00:00	6	Velocidad del viento	0
122734	7	Sololá	702	San José Chacayá	5	Chacayá	10	Octubre	2023-02-10T00:00:00	2024-11-06T06:00:00	7	Dirección del viento	0
122735	7	Sololá	702	San José Chacayá	5	Chacayá	10	Octubre	2023-02-10T00:00:00	2024-11-06T06:00:00	1	Precipitación	0
122736	7	Sololá	702	San José Chacayá	5	Chacayá	10	Octubre	2023-02-10T00:00:00	2024-11-06T06:00:00	8	Radiación solar	1
122737	7	Sololá	702	San José Chacayá	5	Chacayá	10	Octubre	2023-02-10T00:00:00	2024-11-06T07:00:00	2	Temperatura media	11.9
122738	7	Sololá	702	San José Chacayá	5	Chacayá	10	Octubre	2023-02-10T00:00:00	2024-11-06T07:00:00	4	Temperatura máxima	12.4
122739	7	Sololá	702	San José Chacayá	5	Chacayá	10	Octubre	2023-02-10T00:00:00	2024-11-06T07:00:00	3	Temperatura mínima	11.9
122740	7	Sololá	702	San José Chacayá	5	Chacayá	10	Octubre	2023-02-10T00:00:00	2024-11-06T07:00:00	5	Humedad	96
122741	7	Sololá	702	San José Chacayá	5	Chacayá	10	Octubre	2023-02-10T00:00:00	2024-11-06T07:00:00	6	Velocidad del viento	0
122742	7	Sololá	702	San José Chacayá	5	Chacayá	10	Octubre	2023-02-10T00:00:00	2024-11-06T07:00:00	7	Dirección del viento	0
122743	7	Sololá	702	San José Chacayá	5	Chacayá	10	Octubre	2023-02-10T00:00:00	2024-11-06T07:00:00	1	Precipitación	0
122744	7	Sololá	702	San José Chacayá	5	Chacayá	10	Octubre	2023-02-10T00:00:00	2024-11-06T07:00:00	8	Radiación solar	93
122745	7	Sololá	702	San José Chacayá	5	Chacayá	10	Octubre	2023-02-10T00:00:00	2024-11-06T08:00:00	2	Temperatura media	12.9
122746	7	Sololá	702	San José Chacayá	5	Chacayá	10	Octubre	2023-02-10T00:00:00	2024-11-06T08:00:00	4	Temperatura máxima	12.9
122747	7	Sololá	702	San José Chacayá	5	Chacayá	10	Octubre	2023-02-10T00:00:00	2024-11-06T08:00:00	3	Temperatura mínima	11.9
122748	7	Sololá	702	San José Chacayá	5	Chacayá	10	Octubre	2023-02-10T00:00:00	2024-11-06T08:00:00	5	Humedad	97
122749	7	Sololá	702	San José Chacayá	5	Chacayá	10	Octubre	2023-02-10T00:00:00	2024-11-06T08:00:00	6	Velocidad del viento	0
122750	7	Sololá	702	San José Chacayá	5	Chacayá	10	Octubre	2023-02-10T00:00:00	2024-11-06T08:00:00	7	Dirección del viento	0
122751	7	Sololá	702	San José Chacayá	5	Chacayá	10	Octubre	2023-02-10T00:00:00	2024-11-06T08:00:00	1	Precipitación	0
122752	7	Sololá	702	San José Chacayá	5	Chacayá	10	Octubre	2023-02-10T00:00:00	2024-11-06T08:00:00	8	Radiación solar	193
122753	7	Sololá	702	San José Chacayá	5	Chacayá	10	Octubre	2023-02-10T00:00:00	2024-11-06T09:00:00	2	Temperatura media	14.6
122754	7	Sololá	702	San José Chacayá	5	Chacayá	10	Octubre	2023-02-10T00:00:00	2024-11-06T09:00:00	4	Temperatura máxima	14.6
122755	7	Sololá	702	San José Chacayá	5	Chacayá	10	Octubre	2023-02-10T00:00:00	2024-11-06T09:00:00	3	Temperatura mínima	12.9
122756	7	Sololá	702	San José Chacayá	5	Chacayá	10	Octubre	2023-02-10T00:00:00	2024-11-06T09:00:00	5	Humedad	95
122757	7	Sololá	702	San José Chacayá	5	Chacayá	10	Octubre	2023-02-10T00:00:00	2024-11-06T09:00:00	6	Velocidad del viento	0
122758	7	Sololá	702	San José Chacayá	5	Chacayá	10	Octubre	2023-02-10T00:00:00	2024-11-06T09:00:00	7	Dirección del viento	0
122759	7	Sololá	702	San José Chacayá	5	Chacayá	10	Octubre	2023-02-10T00:00:00	2024-11-06T09:00:00	1	Precipitación	0
122760	7	Sololá	702	San José Chacayá	5	Chacayá	10	Octubre	2023-02-10T00:00:00	2024-11-06T09:00:00	8	Radiación solar	567
122761	7	Sololá	702	San José Chacayá	5	Chacayá	10	Octubre	2023-02-10T00:00:00	2024-11-06T10:00:00	2	Temperatura media	19.6
122762	7	Sololá	702	San José Chacayá	5	Chacayá	10	Octubre	2023-02-10T00:00:00	2024-11-06T10:00:00	4	Temperatura máxima	19.6
122763	7	Sololá	702	San José Chacayá	5	Chacayá	10	Octubre	2023-02-10T00:00:00	2024-11-06T10:00:00	3	Temperatura mínima	14.6
122764	7	Sololá	702	San José Chacayá	5	Chacayá	10	Octubre	2023-02-10T00:00:00	2024-11-06T10:00:00	5	Humedad	76
122765	7	Sololá	702	San José Chacayá	5	Chacayá	10	Octubre	2023-02-10T00:00:00	2024-11-06T10:00:00	6	Velocidad del viento	1.6
122766	7	Sololá	702	San José Chacayá	5	Chacayá	10	Octubre	2023-02-10T00:00:00	2024-11-06T10:00:00	7	Dirección del viento	1.61
122767	7	Sololá	702	San José Chacayá	5	Chacayá	10	Octubre	2023-02-10T00:00:00	2024-11-06T10:00:00	1	Precipitación	0
122768	7	Sololá	702	San José Chacayá	5	Chacayá	10	Octubre	2023-02-10T00:00:00	2024-11-06T10:00:00	8	Radiación solar	755
122769	7	Sololá	702	San José Chacayá	5	Chacayá	10	Octubre	2023-02-10T00:00:00	2024-11-06T11:00:00	2	Temperatura media	21.9
122770	7	Sololá	702	San José Chacayá	5	Chacayá	10	Octubre	2023-02-10T00:00:00	2024-11-06T11:00:00	4	Temperatura máxima	22.3
122771	7	Sololá	702	San José Chacayá	5	Chacayá	10	Octubre	2023-02-10T00:00:00	2024-11-06T11:00:00	3	Temperatura mínima	19.7
122772	7	Sololá	702	San José Chacayá	5	Chacayá	10	Octubre	2023-02-10T00:00:00	2024-11-06T11:00:00	5	Humedad	60
122773	7	Sololá	702	San José Chacayá	5	Chacayá	10	Octubre	2023-02-10T00:00:00	2024-11-06T11:00:00	6	Velocidad del viento	3.2
122774	7	Sololá	702	San José Chacayá	5	Chacayá	10	Octubre	2023-02-10T00:00:00	2024-11-06T11:00:00	7	Dirección del viento	3.22
122775	7	Sololá	702	San José Chacayá	5	Chacayá	10	Octubre	2023-02-10T00:00:00	2024-11-06T11:00:00	1	Precipitación	0
122776	7	Sololá	702	San José Chacayá	5	Chacayá	10	Octubre	2023-02-10T00:00:00	2024-11-06T11:00:00	8	Radiación solar	890
122777	7	Sololá	702	San José Chacayá	5	Chacayá	10	Octubre	2023-02-10T00:00:00	2024-11-06T12:00:00	2	Temperatura media	23.3
122778	7	Sololá	702	San José Chacayá	5	Chacayá	10	Octubre	2023-02-10T00:00:00	2024-11-06T12:00:00	4	Temperatura máxima	23.5
122779	7	Sololá	702	San José Chacayá	5	Chacayá	10	Octubre	2023-02-10T00:00:00	2024-11-06T12:00:00	3	Temperatura mínima	21.8
122780	7	Sololá	702	San José Chacayá	5	Chacayá	10	Octubre	2023-02-10T00:00:00	2024-11-06T12:00:00	5	Humedad	59
122781	7	Sololá	702	San José Chacayá	5	Chacayá	10	Octubre	2023-02-10T00:00:00	2024-11-06T12:00:00	6	Velocidad del viento	3.2
122782	7	Sololá	702	San José Chacayá	5	Chacayá	10	Octubre	2023-02-10T00:00:00	2024-11-06T12:00:00	7	Dirección del viento	3.22
122783	7	Sololá	702	San José Chacayá	5	Chacayá	10	Octubre	2023-02-10T00:00:00	2024-11-06T12:00:00	1	Precipitación	0
122784	7	Sololá	702	San José Chacayá	5	Chacayá	10	Octubre	2023-02-10T00:00:00	2024-11-06T12:00:00	8	Radiación solar	913
122785	7	Sololá	702	San José Chacayá	5	Chacayá	10	Octubre	2023-02-10T00:00:00	2024-11-06T13:00:00	2	Temperatura media	23.4
122786	7	Sololá	702	San José Chacayá	5	Chacayá	10	Octubre	2023-02-10T00:00:00	2024-11-06T13:00:00	4	Temperatura máxima	24.5
122787	7	Sololá	702	San José Chacayá	5	Chacayá	10	Octubre	2023-02-10T00:00:00	2024-11-06T13:00:00	3	Temperatura mínima	23.3
122788	7	Sololá	702	San José Chacayá	5	Chacayá	10	Octubre	2023-02-10T00:00:00	2024-11-06T13:00:00	5	Humedad	57
122789	7	Sololá	702	San José Chacayá	5	Chacayá	10	Octubre	2023-02-10T00:00:00	2024-11-06T13:00:00	6	Velocidad del viento	4.8
122790	7	Sololá	702	San José Chacayá	5	Chacayá	10	Octubre	2023-02-10T00:00:00	2024-11-06T13:00:00	7	Dirección del viento	4.83
122791	7	Sololá	702	San José Chacayá	5	Chacayá	10	Octubre	2023-02-10T00:00:00	2024-11-06T13:00:00	1	Precipitación	0
122792	7	Sololá	702	San José Chacayá	5	Chacayá	10	Octubre	2023-02-10T00:00:00	2024-11-06T13:00:00	8	Radiación solar	910
122793	7	Sololá	702	San José Chacayá	5	Chacayá	10	Octubre	2023-02-10T00:00:00	2024-11-06T14:00:00	2	Temperatura media	24.6
122794	7	Sololá	702	San José Chacayá	5	Chacayá	10	Octubre	2023-02-10T00:00:00	2024-11-06T14:00:00	4	Temperatura máxima	24.7
122795	7	Sololá	702	San José Chacayá	5	Chacayá	10	Octubre	2023-02-10T00:00:00	2024-11-06T14:00:00	3	Temperatura mínima	23.4
122796	7	Sololá	702	San José Chacayá	5	Chacayá	10	Octubre	2023-02-10T00:00:00	2024-11-06T14:00:00	5	Humedad	60
122797	7	Sololá	702	San José Chacayá	5	Chacayá	10	Octubre	2023-02-10T00:00:00	2024-11-06T14:00:00	6	Velocidad del viento	4.8
122798	7	Sololá	702	San José Chacayá	5	Chacayá	10	Octubre	2023-02-10T00:00:00	2024-11-06T14:00:00	7	Dirección del viento	4.83
122799	7	Sololá	702	San José Chacayá	5	Chacayá	10	Octubre	2023-02-10T00:00:00	2024-11-06T14:00:00	1	Precipitación	0
122800	7	Sololá	702	San José Chacayá	5	Chacayá	10	Octubre	2023-02-10T00:00:00	2024-11-06T14:00:00	8	Radiación solar	909
122801	7	Sololá	702	San José Chacayá	5	Chacayá	10	Octubre	2023-02-10T00:00:00	2024-11-06T15:00:00	2	Temperatura media	21.8
122802	7	Sololá	702	San José Chacayá	5	Chacayá	10	Octubre	2023-02-10T00:00:00	2024-11-06T15:00:00	4	Temperatura máxima	24.6
122803	7	Sololá	702	San José Chacayá	5	Chacayá	10	Octubre	2023-02-10T00:00:00	2024-11-06T15:00:00	3	Temperatura mínima	21.8
122804	7	Sololá	702	San José Chacayá	5	Chacayá	10	Octubre	2023-02-10T00:00:00	2024-11-06T15:00:00	5	Humedad	77
122805	7	Sololá	702	San José Chacayá	5	Chacayá	10	Octubre	2023-02-10T00:00:00	2024-11-06T15:00:00	6	Velocidad del viento	3.2
122806	7	Sololá	702	San José Chacayá	5	Chacayá	10	Octubre	2023-02-10T00:00:00	2024-11-06T15:00:00	7	Dirección del viento	3.22
122807	7	Sololá	702	San José Chacayá	5	Chacayá	10	Octubre	2023-02-10T00:00:00	2024-11-06T15:00:00	1	Precipitación	0
122808	7	Sololá	702	San José Chacayá	5	Chacayá	10	Octubre	2023-02-10T00:00:00	2024-11-06T15:00:00	8	Radiación solar	671
122809	7	Sololá	702	San José Chacayá	5	Chacayá	10	Octubre	2023-02-10T00:00:00	2024-11-06T16:00:00	2	Temperatura media	20
122810	7	Sololá	702	San José Chacayá	5	Chacayá	10	Octubre	2023-02-10T00:00:00	2024-11-06T16:00:00	4	Temperatura máxima	21.7
122811	7	Sololá	702	San José Chacayá	5	Chacayá	10	Octubre	2023-02-10T00:00:00	2024-11-06T16:00:00	3	Temperatura mínima	19.6
122812	7	Sololá	702	San José Chacayá	5	Chacayá	10	Octubre	2023-02-10T00:00:00	2024-11-06T16:00:00	5	Humedad	82
122813	7	Sololá	702	San José Chacayá	5	Chacayá	10	Octubre	2023-02-10T00:00:00	2024-11-06T16:00:00	6	Velocidad del viento	1.6
122814	7	Sololá	702	San José Chacayá	5	Chacayá	10	Octubre	2023-02-10T00:00:00	2024-11-06T16:00:00	7	Dirección del viento	1.61
122815	7	Sololá	702	San José Chacayá	5	Chacayá	10	Octubre	2023-02-10T00:00:00	2024-11-06T16:00:00	1	Precipitación	0
122816	7	Sololá	702	San José Chacayá	5	Chacayá	10	Octubre	2023-02-10T00:00:00	2024-11-06T16:00:00	8	Radiación solar	476
122817	7	Sololá	702	San José Chacayá	5	Chacayá	10	Octubre	2023-02-10T00:00:00	2024-11-06T17:00:00	2	Temperatura media	19.6
122818	7	Sololá	702	San José Chacayá	5	Chacayá	10	Octubre	2023-02-10T00:00:00	2024-11-06T17:00:00	4	Temperatura máxima	20.7
122819	7	Sololá	702	San José Chacayá	5	Chacayá	10	Octubre	2023-02-10T00:00:00	2024-11-06T17:00:00	3	Temperatura mínima	19.6
122820	7	Sololá	702	San José Chacayá	5	Chacayá	10	Octubre	2023-02-10T00:00:00	2024-11-06T17:00:00	5	Humedad	83
122821	7	Sololá	702	San José Chacayá	5	Chacayá	10	Octubre	2023-02-10T00:00:00	2024-11-06T17:00:00	6	Velocidad del viento	3.2
122822	7	Sololá	702	San José Chacayá	5	Chacayá	10	Octubre	2023-02-10T00:00:00	2024-11-06T17:00:00	7	Dirección del viento	3.22
122823	7	Sololá	702	San José Chacayá	5	Chacayá	10	Octubre	2023-02-10T00:00:00	2024-11-06T17:00:00	1	Precipitación	0
122824	7	Sololá	702	San José Chacayá	5	Chacayá	10	Octubre	2023-02-10T00:00:00	2024-11-06T17:00:00	8	Radiación solar	166
122825	7	Sololá	702	San José Chacayá	5	Chacayá	10	Octubre	2023-02-10T00:00:00	2024-11-06T18:00:00	2	Temperatura media	17.1
122826	7	Sololá	702	San José Chacayá	5	Chacayá	10	Octubre	2023-02-10T00:00:00	2024-11-06T18:00:00	4	Temperatura máxima	19.6
122827	7	Sololá	702	San José Chacayá	5	Chacayá	10	Octubre	2023-02-10T00:00:00	2024-11-06T18:00:00	3	Temperatura mínima	17.1
122828	7	Sololá	702	San José Chacayá	5	Chacayá	10	Octubre	2023-02-10T00:00:00	2024-11-06T18:00:00	5	Humedad	91
122829	7	Sololá	702	San José Chacayá	5	Chacayá	10	Octubre	2023-02-10T00:00:00	2024-11-06T18:00:00	6	Velocidad del viento	4.8
122830	7	Sololá	702	San José Chacayá	5	Chacayá	10	Octubre	2023-02-10T00:00:00	2024-11-06T18:00:00	7	Dirección del viento	4.83
122831	7	Sololá	702	San José Chacayá	5	Chacayá	10	Octubre	2023-02-10T00:00:00	2024-11-06T18:00:00	1	Precipitación	0
122832	7	Sololá	702	San José Chacayá	5	Chacayá	10	Octubre	2023-02-10T00:00:00	2024-11-06T18:00:00	8	Radiación solar	23
122833	7	Sololá	702	San José Chacayá	5	Chacayá	10	Octubre	2023-02-10T00:00:00	2024-11-06T19:00:00	2	Temperatura media	16.1
122834	7	Sololá	702	San José Chacayá	5	Chacayá	10	Octubre	2023-02-10T00:00:00	2024-11-06T19:00:00	4	Temperatura máxima	17.1
122835	7	Sololá	702	San José Chacayá	5	Chacayá	10	Octubre	2023-02-10T00:00:00	2024-11-06T19:00:00	3	Temperatura mínima	16.1
122836	7	Sololá	702	San José Chacayá	5	Chacayá	10	Octubre	2023-02-10T00:00:00	2024-11-06T19:00:00	5	Humedad	93
122837	7	Sololá	702	San José Chacayá	5	Chacayá	10	Octubre	2023-02-10T00:00:00	2024-11-06T19:00:00	6	Velocidad del viento	4.8
122838	7	Sololá	702	San José Chacayá	5	Chacayá	10	Octubre	2023-02-10T00:00:00	2024-11-06T19:00:00	7	Dirección del viento	4.83
122839	7	Sololá	702	San José Chacayá	5	Chacayá	10	Octubre	2023-02-10T00:00:00	2024-11-06T19:00:00	1	Precipitación	2.2
122840	7	Sololá	702	San José Chacayá	5	Chacayá	10	Octubre	2023-02-10T00:00:00	2024-11-06T19:00:00	8	Radiación solar	0
122841	7	Sololá	702	San José Chacayá	5	Chacayá	10	Octubre	2023-02-10T00:00:00	2024-11-06T20:00:00	2	Temperatura media	14.7
122842	7	Sololá	702	San José Chacayá	5	Chacayá	10	Octubre	2023-02-10T00:00:00	2024-11-06T20:00:00	4	Temperatura máxima	16.1
122843	7	Sololá	702	San José Chacayá	5	Chacayá	10	Octubre	2023-02-10T00:00:00	2024-11-06T20:00:00	3	Temperatura mínima	14.7
122844	7	Sololá	702	San José Chacayá	5	Chacayá	10	Octubre	2023-02-10T00:00:00	2024-11-06T20:00:00	5	Humedad	94
122845	7	Sololá	702	San José Chacayá	5	Chacayá	10	Octubre	2023-02-10T00:00:00	2024-11-06T20:00:00	6	Velocidad del viento	4.8
122846	7	Sololá	702	San José Chacayá	5	Chacayá	10	Octubre	2023-02-10T00:00:00	2024-11-06T20:00:00	7	Dirección del viento	4.83
122847	7	Sololá	702	San José Chacayá	5	Chacayá	10	Octubre	2023-02-10T00:00:00	2024-11-06T20:00:00	1	Precipitación	11.4
122848	7	Sololá	702	San José Chacayá	5	Chacayá	10	Octubre	2023-02-10T00:00:00	2024-11-06T20:00:00	8	Radiación solar	0
122849	7	Sololá	702	San José Chacayá	5	Chacayá	10	Octubre	2023-02-10T00:00:00	2024-11-06T21:00:00	2	Temperatura media	14.8
122850	7	Sololá	702	San José Chacayá	5	Chacayá	10	Octubre	2023-02-10T00:00:00	2024-11-06T21:00:00	4	Temperatura máxima	14.9
122851	7	Sololá	702	San José Chacayá	5	Chacayá	10	Octubre	2023-02-10T00:00:00	2024-11-06T21:00:00	3	Temperatura mínima	14.7
122852	7	Sololá	702	San José Chacayá	5	Chacayá	10	Octubre	2023-02-10T00:00:00	2024-11-06T21:00:00	5	Humedad	94
122853	7	Sololá	702	San José Chacayá	5	Chacayá	10	Octubre	2023-02-10T00:00:00	2024-11-06T21:00:00	6	Velocidad del viento	1.6
122854	7	Sololá	702	San José Chacayá	5	Chacayá	10	Octubre	2023-02-10T00:00:00	2024-11-06T21:00:00	7	Dirección del viento	1.61
122855	7	Sololá	702	San José Chacayá	5	Chacayá	10	Octubre	2023-02-10T00:00:00	2024-11-06T21:00:00	1	Precipitación	2.4
122856	7	Sololá	702	San José Chacayá	5	Chacayá	10	Octubre	2023-02-10T00:00:00	2024-11-06T21:00:00	8	Radiación solar	0
122857	7	Sololá	702	San José Chacayá	5	Chacayá	10	Octubre	2023-02-10T00:00:00	2024-11-06T22:00:00	2	Temperatura media	14.4
122858	7	Sololá	702	San José Chacayá	5	Chacayá	10	Octubre	2023-02-10T00:00:00	2024-11-06T22:00:00	4	Temperatura máxima	14.8
122859	7	Sololá	702	San José Chacayá	5	Chacayá	10	Octubre	2023-02-10T00:00:00	2024-11-06T22:00:00	3	Temperatura mínima	14.4
122860	7	Sololá	702	San José Chacayá	5	Chacayá	10	Octubre	2023-02-10T00:00:00	2024-11-06T22:00:00	5	Humedad	94
122861	7	Sololá	702	San José Chacayá	5	Chacayá	10	Octubre	2023-02-10T00:00:00	2024-11-06T22:00:00	6	Velocidad del viento	0
122862	7	Sololá	702	San José Chacayá	5	Chacayá	10	Octubre	2023-02-10T00:00:00	2024-11-06T22:00:00	7	Dirección del viento	0
122863	7	Sololá	702	San José Chacayá	5	Chacayá	10	Octubre	2023-02-10T00:00:00	2024-11-06T22:00:00	1	Precipitación	1.6
122864	7	Sololá	702	San José Chacayá	5	Chacayá	10	Octubre	2023-02-10T00:00:00	2024-11-06T22:00:00	8	Radiación solar	0
122865	7	Sololá	702	San José Chacayá	5	Chacayá	10	Octubre	2023-02-10T00:00:00	2024-11-06T23:00:00	2	Temperatura media	14.4
122866	7	Sololá	702	San José Chacayá	5	Chacayá	10	Octubre	2023-02-10T00:00:00	2024-11-06T23:00:00	4	Temperatura máxima	14.4
122867	7	Sololá	702	San José Chacayá	5	Chacayá	10	Octubre	2023-02-10T00:00:00	2024-11-06T23:00:00	3	Temperatura mínima	14.3
122868	7	Sololá	702	San José Chacayá	5	Chacayá	10	Octubre	2023-02-10T00:00:00	2024-11-06T23:00:00	5	Humedad	95
122869	7	Sololá	702	San José Chacayá	5	Chacayá	10	Octubre	2023-02-10T00:00:00	2024-11-06T23:00:00	6	Velocidad del viento	0
122870	7	Sololá	702	San José Chacayá	5	Chacayá	10	Octubre	2023-02-10T00:00:00	2024-11-06T23:00:00	7	Dirección del viento	0
122871	7	Sololá	702	San José Chacayá	5	Chacayá	10	Octubre	2023-02-10T00:00:00	2024-11-06T23:00:00	1	Precipitación	0.2
122872	7	Sololá	702	San José Chacayá	5	Chacayá	10	Octubre	2023-02-10T00:00:00	2024-11-06T23:00:00	8	Radiación solar	0
122873	7	Sololá	702	San José Chacayá	5	Chacayá	10	Octubre	2023-03-10T00:00:00	2024-11-06T00:00:00	2	Temperatura media	14.2
122874	7	Sololá	702	San José Chacayá	5	Chacayá	10	Octubre	2023-03-10T00:00:00	2024-11-06T00:00:00	4	Temperatura máxima	14.4
122875	7	Sololá	702	San José Chacayá	5	Chacayá	10	Octubre	2023-03-10T00:00:00	2024-11-06T00:00:00	3	Temperatura mínima	14.2
122876	7	Sololá	702	San José Chacayá	5	Chacayá	10	Octubre	2023-03-10T00:00:00	2024-11-06T00:00:00	5	Humedad	95
122877	7	Sololá	702	San José Chacayá	5	Chacayá	10	Octubre	2023-03-10T00:00:00	2024-11-06T00:00:00	6	Velocidad del viento	0
122878	7	Sololá	702	San José Chacayá	5	Chacayá	10	Octubre	2023-03-10T00:00:00	2024-11-06T00:00:00	7	Dirección del viento	0
122879	7	Sololá	702	San José Chacayá	5	Chacayá	10	Octubre	2023-03-10T00:00:00	2024-11-06T00:00:00	1	Precipitación	0
122880	7	Sololá	702	San José Chacayá	5	Chacayá	10	Octubre	2023-03-10T00:00:00	2024-11-06T00:00:00	8	Radiación solar	0
122881	7	Sololá	702	San José Chacayá	5	Chacayá	10	Octubre	2023-03-10T00:00:00	2024-11-06T01:00:00	2	Temperatura media	14.1
122882	7	Sololá	702	San José Chacayá	5	Chacayá	10	Octubre	2023-03-10T00:00:00	2024-11-06T01:00:00	4	Temperatura máxima	14.3
122883	7	Sololá	702	San José Chacayá	5	Chacayá	10	Octubre	2023-03-10T00:00:00	2024-11-06T01:00:00	3	Temperatura mínima	14.1
122884	7	Sololá	702	San José Chacayá	5	Chacayá	10	Octubre	2023-03-10T00:00:00	2024-11-06T01:00:00	5	Humedad	95
122885	7	Sololá	702	San José Chacayá	5	Chacayá	10	Octubre	2023-03-10T00:00:00	2024-11-06T01:00:00	6	Velocidad del viento	0
122886	7	Sololá	702	San José Chacayá	5	Chacayá	10	Octubre	2023-03-10T00:00:00	2024-11-06T01:00:00	7	Dirección del viento	0
122887	7	Sololá	702	San José Chacayá	5	Chacayá	10	Octubre	2023-03-10T00:00:00	2024-11-06T01:00:00	1	Precipitación	0
122888	7	Sololá	702	San José Chacayá	5	Chacayá	10	Octubre	2023-03-10T00:00:00	2024-11-06T01:00:00	8	Radiación solar	0
122889	7	Sololá	702	San José Chacayá	5	Chacayá	10	Octubre	2023-03-10T00:00:00	2024-11-06T02:00:00	2	Temperatura media	13.2
122890	7	Sololá	702	San José Chacayá	5	Chacayá	10	Octubre	2023-03-10T00:00:00	2024-11-06T02:00:00	4	Temperatura máxima	14.2
122891	7	Sololá	702	San José Chacayá	5	Chacayá	10	Octubre	2023-03-10T00:00:00	2024-11-06T02:00:00	3	Temperatura mínima	13.2
122892	7	Sololá	702	San José Chacayá	5	Chacayá	10	Octubre	2023-03-10T00:00:00	2024-11-06T02:00:00	5	Humedad	94
122893	7	Sololá	702	San José Chacayá	5	Chacayá	10	Octubre	2023-03-10T00:00:00	2024-11-06T02:00:00	6	Velocidad del viento	0
122894	7	Sololá	702	San José Chacayá	5	Chacayá	10	Octubre	2023-03-10T00:00:00	2024-11-06T02:00:00	7	Dirección del viento	0
122895	7	Sololá	702	San José Chacayá	5	Chacayá	10	Octubre	2023-03-10T00:00:00	2024-11-06T02:00:00	1	Precipitación	0
122896	7	Sololá	702	San José Chacayá	5	Chacayá	10	Octubre	2023-03-10T00:00:00	2024-11-06T02:00:00	8	Radiación solar	0
122897	7	Sololá	702	San José Chacayá	5	Chacayá	10	Octubre	2023-03-10T00:00:00	2024-11-06T03:00:00	2	Temperatura media	12.6
122898	7	Sololá	702	San José Chacayá	5	Chacayá	10	Octubre	2023-03-10T00:00:00	2024-11-06T03:00:00	4	Temperatura máxima	13.2
122899	7	Sololá	702	San José Chacayá	5	Chacayá	10	Octubre	2023-03-10T00:00:00	2024-11-06T03:00:00	3	Temperatura mínima	12.6
122900	7	Sololá	702	San José Chacayá	5	Chacayá	10	Octubre	2023-03-10T00:00:00	2024-11-06T03:00:00	5	Humedad	95
122901	7	Sololá	702	San José Chacayá	5	Chacayá	10	Octubre	2023-03-10T00:00:00	2024-11-06T03:00:00	6	Velocidad del viento	0
122902	7	Sololá	702	San José Chacayá	5	Chacayá	10	Octubre	2023-03-10T00:00:00	2024-11-06T03:00:00	7	Dirección del viento	0
122903	7	Sololá	702	San José Chacayá	5	Chacayá	10	Octubre	2023-03-10T00:00:00	2024-11-06T03:00:00	1	Precipitación	0
122904	7	Sololá	702	San José Chacayá	5	Chacayá	10	Octubre	2023-03-10T00:00:00	2024-11-06T03:00:00	8	Radiación solar	0
122905	7	Sololá	702	San José Chacayá	5	Chacayá	10	Octubre	2023-03-10T00:00:00	2024-11-06T04:00:00	2	Temperatura media	12.1
122906	7	Sololá	702	San José Chacayá	5	Chacayá	10	Octubre	2023-03-10T00:00:00	2024-11-06T04:00:00	4	Temperatura máxima	12.6
122907	7	Sololá	702	San José Chacayá	5	Chacayá	10	Octubre	2023-03-10T00:00:00	2024-11-06T04:00:00	3	Temperatura mínima	12.1
122908	7	Sololá	702	San José Chacayá	5	Chacayá	10	Octubre	2023-03-10T00:00:00	2024-11-06T04:00:00	5	Humedad	95
122909	7	Sololá	702	San José Chacayá	5	Chacayá	10	Octubre	2023-03-10T00:00:00	2024-11-06T04:00:00	6	Velocidad del viento	0
122910	7	Sololá	702	San José Chacayá	5	Chacayá	10	Octubre	2023-03-10T00:00:00	2024-11-06T04:00:00	7	Dirección del viento	0
122911	7	Sololá	702	San José Chacayá	5	Chacayá	10	Octubre	2023-03-10T00:00:00	2024-11-06T04:00:00	1	Precipitación	0
122912	7	Sololá	702	San José Chacayá	5	Chacayá	10	Octubre	2023-03-10T00:00:00	2024-11-06T04:00:00	8	Radiación solar	0
122913	7	Sololá	702	San José Chacayá	5	Chacayá	10	Octubre	2023-03-10T00:00:00	2024-11-06T05:00:00	2	Temperatura media	11.6
122914	7	Sololá	702	San José Chacayá	5	Chacayá	10	Octubre	2023-03-10T00:00:00	2024-11-06T05:00:00	4	Temperatura máxima	12.1
122915	7	Sololá	702	San José Chacayá	5	Chacayá	10	Octubre	2023-03-10T00:00:00	2024-11-06T05:00:00	3	Temperatura mínima	11.6
122916	7	Sololá	702	San José Chacayá	5	Chacayá	10	Octubre	2023-03-10T00:00:00	2024-11-06T05:00:00	5	Humedad	95
122917	7	Sololá	702	San José Chacayá	5	Chacayá	10	Octubre	2023-03-10T00:00:00	2024-11-06T05:00:00	6	Velocidad del viento	0
122918	7	Sololá	702	San José Chacayá	5	Chacayá	10	Octubre	2023-03-10T00:00:00	2024-11-06T05:00:00	7	Dirección del viento	0
122919	7	Sololá	702	San José Chacayá	5	Chacayá	10	Octubre	2023-03-10T00:00:00	2024-11-06T05:00:00	1	Precipitación	0
122920	7	Sololá	702	San José Chacayá	5	Chacayá	10	Octubre	2023-03-10T00:00:00	2024-11-06T05:00:00	8	Radiación solar	0
122921	7	Sololá	702	San José Chacayá	5	Chacayá	10	Octubre	2023-03-10T00:00:00	2024-11-06T06:00:00	2	Temperatura media	11.3
122922	7	Sololá	702	San José Chacayá	5	Chacayá	10	Octubre	2023-03-10T00:00:00	2024-11-06T06:00:00	4	Temperatura máxima	11.7
122923	7	Sololá	702	San José Chacayá	5	Chacayá	10	Octubre	2023-03-10T00:00:00	2024-11-06T06:00:00	3	Temperatura mínima	11.3
122924	7	Sololá	702	San José Chacayá	5	Chacayá	10	Octubre	2023-03-10T00:00:00	2024-11-06T06:00:00	5	Humedad	95
122925	7	Sololá	702	San José Chacayá	5	Chacayá	10	Octubre	2023-03-10T00:00:00	2024-11-06T06:00:00	6	Velocidad del viento	0
122926	7	Sololá	702	San José Chacayá	5	Chacayá	10	Octubre	2023-03-10T00:00:00	2024-11-06T06:00:00	7	Dirección del viento	0
122927	7	Sololá	702	San José Chacayá	5	Chacayá	10	Octubre	2023-03-10T00:00:00	2024-11-06T06:00:00	1	Precipitación	0
122928	7	Sololá	702	San José Chacayá	5	Chacayá	10	Octubre	2023-03-10T00:00:00	2024-11-06T06:00:00	8	Radiación solar	2
122929	7	Sololá	702	San José Chacayá	5	Chacayá	10	Octubre	2023-03-10T00:00:00	2024-11-06T07:00:00	2	Temperatura media	11.1
122930	7	Sololá	702	San José Chacayá	5	Chacayá	10	Octubre	2023-03-10T00:00:00	2024-11-06T07:00:00	4	Temperatura máxima	11.3
122931	7	Sololá	702	San José Chacayá	5	Chacayá	10	Octubre	2023-03-10T00:00:00	2024-11-06T07:00:00	3	Temperatura mínima	11.1
122932	7	Sololá	702	San José Chacayá	5	Chacayá	10	Octubre	2023-03-10T00:00:00	2024-11-06T07:00:00	5	Humedad	96
122933	7	Sololá	702	San José Chacayá	5	Chacayá	10	Octubre	2023-03-10T00:00:00	2024-11-06T07:00:00	6	Velocidad del viento	0
122934	7	Sololá	702	San José Chacayá	5	Chacayá	10	Octubre	2023-03-10T00:00:00	2024-11-06T07:00:00	7	Dirección del viento	0
122935	7	Sololá	702	San José Chacayá	5	Chacayá	10	Octubre	2023-03-10T00:00:00	2024-11-06T07:00:00	1	Precipitación	0
122936	7	Sololá	702	San José Chacayá	5	Chacayá	10	Octubre	2023-03-10T00:00:00	2024-11-06T07:00:00	8	Radiación solar	105
122937	7	Sololá	702	San José Chacayá	5	Chacayá	10	Octubre	2023-03-10T00:00:00	2024-11-06T08:00:00	2	Temperatura media	12.9
122938	7	Sololá	702	San José Chacayá	5	Chacayá	10	Octubre	2023-03-10T00:00:00	2024-11-06T08:00:00	4	Temperatura máxima	12.9
122939	7	Sololá	702	San José Chacayá	5	Chacayá	10	Octubre	2023-03-10T00:00:00	2024-11-06T08:00:00	3	Temperatura mínima	11.1
122940	7	Sololá	702	San José Chacayá	5	Chacayá	10	Octubre	2023-03-10T00:00:00	2024-11-06T08:00:00	5	Humedad	98
122941	7	Sololá	702	San José Chacayá	5	Chacayá	10	Octubre	2023-03-10T00:00:00	2024-11-06T08:00:00	6	Velocidad del viento	0
122942	7	Sololá	702	San José Chacayá	5	Chacayá	10	Octubre	2023-03-10T00:00:00	2024-11-06T08:00:00	7	Dirección del viento	0
122943	7	Sololá	702	San José Chacayá	5	Chacayá	10	Octubre	2023-03-10T00:00:00	2024-11-06T08:00:00	1	Precipitación	0.2
122944	7	Sololá	702	San José Chacayá	5	Chacayá	10	Octubre	2023-03-10T00:00:00	2024-11-06T08:00:00	8	Radiación solar	302
122945	7	Sololá	702	San José Chacayá	5	Chacayá	10	Octubre	2023-03-10T00:00:00	2024-11-06T09:00:00	2	Temperatura media	16.3
122946	7	Sololá	702	San José Chacayá	5	Chacayá	10	Octubre	2023-03-10T00:00:00	2024-11-06T09:00:00	4	Temperatura máxima	16.3
122947	7	Sololá	702	San José Chacayá	5	Chacayá	10	Octubre	2023-03-10T00:00:00	2024-11-06T09:00:00	3	Temperatura mínima	12.9
122948	7	Sololá	702	San José Chacayá	5	Chacayá	10	Octubre	2023-03-10T00:00:00	2024-11-06T09:00:00	5	Humedad	85
122949	7	Sololá	702	San José Chacayá	5	Chacayá	10	Octubre	2023-03-10T00:00:00	2024-11-06T09:00:00	6	Velocidad del viento	0
122950	7	Sololá	702	San José Chacayá	5	Chacayá	10	Octubre	2023-03-10T00:00:00	2024-11-06T09:00:00	7	Dirección del viento	0
122951	7	Sololá	702	San José Chacayá	5	Chacayá	10	Octubre	2023-03-10T00:00:00	2024-11-06T09:00:00	1	Precipitación	0
122952	7	Sololá	702	San José Chacayá	5	Chacayá	10	Octubre	2023-03-10T00:00:00	2024-11-06T09:00:00	8	Radiación solar	556
122953	7	Sololá	702	San José Chacayá	5	Chacayá	10	Octubre	2023-03-10T00:00:00	2024-11-06T10:00:00	2	Temperatura media	19.4
122954	7	Sololá	702	San José Chacayá	5	Chacayá	10	Octubre	2023-03-10T00:00:00	2024-11-06T10:00:00	4	Temperatura máxima	19.6
122955	7	Sololá	702	San José Chacayá	5	Chacayá	10	Octubre	2023-03-10T00:00:00	2024-11-06T10:00:00	3	Temperatura mínima	16.3
122956	7	Sololá	702	San José Chacayá	5	Chacayá	10	Octubre	2023-03-10T00:00:00	2024-11-06T10:00:00	5	Humedad	76
122957	7	Sololá	702	San José Chacayá	5	Chacayá	10	Octubre	2023-03-10T00:00:00	2024-11-06T10:00:00	6	Velocidad del viento	1.6
122958	7	Sololá	702	San José Chacayá	5	Chacayá	10	Octubre	2023-03-10T00:00:00	2024-11-06T10:00:00	7	Dirección del viento	1.61
122959	7	Sololá	702	San José Chacayá	5	Chacayá	10	Octubre	2023-03-10T00:00:00	2024-11-06T10:00:00	1	Precipitación	0
122960	7	Sololá	702	San José Chacayá	5	Chacayá	10	Octubre	2023-03-10T00:00:00	2024-11-06T10:00:00	8	Radiación solar	751
122961	7	Sololá	702	San José Chacayá	5	Chacayá	10	Octubre	2023-03-10T00:00:00	2024-11-06T11:00:00	2	Temperatura media	19.2
122962	7	Sololá	702	San José Chacayá	5	Chacayá	10	Octubre	2023-03-10T00:00:00	2024-11-06T11:00:00	4	Temperatura máxima	19.9
122963	7	Sololá	702	San José Chacayá	5	Chacayá	10	Octubre	2023-03-10T00:00:00	2024-11-06T11:00:00	3	Temperatura mínima	19.2
122964	7	Sololá	702	San José Chacayá	5	Chacayá	10	Octubre	2023-03-10T00:00:00	2024-11-06T11:00:00	5	Humedad	76
122965	7	Sololá	702	San José Chacayá	5	Chacayá	10	Octubre	2023-03-10T00:00:00	2024-11-06T11:00:00	6	Velocidad del viento	1.6
122966	7	Sololá	702	San José Chacayá	5	Chacayá	10	Octubre	2023-03-10T00:00:00	2024-11-06T11:00:00	7	Dirección del viento	1.61
122967	7	Sololá	702	San José Chacayá	5	Chacayá	10	Octubre	2023-03-10T00:00:00	2024-11-06T11:00:00	1	Precipitación	0
122968	7	Sololá	702	San José Chacayá	5	Chacayá	10	Octubre	2023-03-10T00:00:00	2024-11-06T11:00:00	8	Radiación solar	895
122969	7	Sololá	702	San José Chacayá	5	Chacayá	10	Octubre	2023-03-10T00:00:00	2024-11-06T12:00:00	2	Temperatura media	21.5
122970	7	Sololá	702	San José Chacayá	5	Chacayá	10	Octubre	2023-03-10T00:00:00	2024-11-06T12:00:00	4	Temperatura máxima	21.6
122971	7	Sololá	702	San José Chacayá	5	Chacayá	10	Octubre	2023-03-10T00:00:00	2024-11-06T12:00:00	3	Temperatura mínima	19.1
122972	7	Sololá	702	San José Chacayá	5	Chacayá	10	Octubre	2023-03-10T00:00:00	2024-11-06T12:00:00	5	Humedad	70
122973	7	Sololá	702	San José Chacayá	5	Chacayá	10	Octubre	2023-03-10T00:00:00	2024-11-06T12:00:00	6	Velocidad del viento	3.2
122974	7	Sololá	702	San José Chacayá	5	Chacayá	10	Octubre	2023-03-10T00:00:00	2024-11-06T12:00:00	7	Dirección del viento	3.22
122975	7	Sololá	702	San José Chacayá	5	Chacayá	10	Octubre	2023-03-10T00:00:00	2024-11-06T12:00:00	1	Precipitación	0
122976	7	Sololá	702	San José Chacayá	5	Chacayá	10	Octubre	2023-03-10T00:00:00	2024-11-06T12:00:00	8	Radiación solar	962
122977	7	Sololá	702	San José Chacayá	5	Chacayá	10	Octubre	2023-03-10T00:00:00	2024-11-06T13:00:00	2	Temperatura media	20.6
122978	7	Sololá	702	San José Chacayá	5	Chacayá	10	Octubre	2023-03-10T00:00:00	2024-11-06T13:00:00	4	Temperatura máxima	21.5
122979	7	Sololá	702	San José Chacayá	5	Chacayá	10	Octubre	2023-03-10T00:00:00	2024-11-06T13:00:00	3	Temperatura mínima	20.6
122980	7	Sololá	702	San José Chacayá	5	Chacayá	10	Octubre	2023-03-10T00:00:00	2024-11-06T13:00:00	5	Humedad	75
122981	7	Sololá	702	San José Chacayá	5	Chacayá	10	Octubre	2023-03-10T00:00:00	2024-11-06T13:00:00	6	Velocidad del viento	3.2
122982	7	Sololá	702	San José Chacayá	5	Chacayá	10	Octubre	2023-03-10T00:00:00	2024-11-06T13:00:00	7	Dirección del viento	3.22
122983	7	Sololá	702	San José Chacayá	5	Chacayá	10	Octubre	2023-03-10T00:00:00	2024-11-06T13:00:00	1	Precipitación	0
122984	7	Sololá	702	San José Chacayá	5	Chacayá	10	Octubre	2023-03-10T00:00:00	2024-11-06T13:00:00	8	Radiación solar	956
122985	7	Sololá	702	San José Chacayá	5	Chacayá	10	Octubre	2023-03-10T00:00:00	2024-11-06T14:00:00	2	Temperatura media	22.4
122986	7	Sololá	702	San José Chacayá	5	Chacayá	10	Octubre	2023-03-10T00:00:00	2024-11-06T14:00:00	4	Temperatura máxima	22.4
122987	7	Sololá	702	San José Chacayá	5	Chacayá	10	Octubre	2023-03-10T00:00:00	2024-11-06T14:00:00	3	Temperatura mínima	20.6
122988	7	Sololá	702	San José Chacayá	5	Chacayá	10	Octubre	2023-03-10T00:00:00	2024-11-06T14:00:00	5	Humedad	75
122989	7	Sololá	702	San José Chacayá	5	Chacayá	10	Octubre	2023-03-10T00:00:00	2024-11-06T14:00:00	6	Velocidad del viento	1.6
122990	7	Sololá	702	San José Chacayá	5	Chacayá	10	Octubre	2023-03-10T00:00:00	2024-11-06T14:00:00	7	Dirección del viento	1.61
122991	7	Sololá	702	San José Chacayá	5	Chacayá	10	Octubre	2023-03-10T00:00:00	2024-11-06T14:00:00	1	Precipitación	0
122992	7	Sololá	702	San José Chacayá	5	Chacayá	10	Octubre	2023-03-10T00:00:00	2024-11-06T14:00:00	8	Radiación solar	889
122993	7	Sololá	702	San José Chacayá	5	Chacayá	10	Octubre	2023-03-10T00:00:00	2024-11-06T15:00:00	2	Temperatura media	21.3
122994	7	Sololá	702	San José Chacayá	5	Chacayá	10	Octubre	2023-03-10T00:00:00	2024-11-06T15:00:00	4	Temperatura máxima	23.2
122995	7	Sololá	702	San José Chacayá	5	Chacayá	10	Octubre	2023-03-10T00:00:00	2024-11-06T15:00:00	3	Temperatura mínima	21.1
122996	7	Sololá	702	San José Chacayá	5	Chacayá	10	Octubre	2023-03-10T00:00:00	2024-11-06T15:00:00	5	Humedad	74
122997	7	Sololá	702	San José Chacayá	5	Chacayá	10	Octubre	2023-03-10T00:00:00	2024-11-06T15:00:00	6	Velocidad del viento	4.8
122998	7	Sololá	702	San José Chacayá	5	Chacayá	10	Octubre	2023-03-10T00:00:00	2024-11-06T15:00:00	7	Dirección del viento	4.83
122999	7	Sololá	702	San José Chacayá	5	Chacayá	10	Octubre	2023-03-10T00:00:00	2024-11-06T15:00:00	1	Precipitación	0
123000	7	Sololá	702	San José Chacayá	5	Chacayá	10	Octubre	2023-03-10T00:00:00	2024-11-06T15:00:00	8	Radiación solar	770
123001	7	Sololá	702	San José Chacayá	5	Chacayá	10	Octubre	2023-03-10T00:00:00	2024-11-06T16:00:00	2	Temperatura media	18.9
123002	7	Sololá	702	San José Chacayá	5	Chacayá	10	Octubre	2023-03-10T00:00:00	2024-11-06T16:00:00	4	Temperatura máxima	21.8
123003	7	Sololá	702	San José Chacayá	5	Chacayá	10	Octubre	2023-03-10T00:00:00	2024-11-06T16:00:00	3	Temperatura mínima	18.8
123004	7	Sololá	702	San José Chacayá	5	Chacayá	10	Octubre	2023-03-10T00:00:00	2024-11-06T16:00:00	5	Humedad	82
123005	7	Sololá	702	San José Chacayá	5	Chacayá	10	Octubre	2023-03-10T00:00:00	2024-11-06T16:00:00	6	Velocidad del viento	6.4
123006	7	Sololá	702	San José Chacayá	5	Chacayá	10	Octubre	2023-03-10T00:00:00	2024-11-06T16:00:00	7	Dirección del viento	6.44
123007	7	Sololá	702	San José Chacayá	5	Chacayá	10	Octubre	2023-03-10T00:00:00	2024-11-06T16:00:00	1	Precipitación	0
123008	7	Sololá	702	San José Chacayá	5	Chacayá	10	Octubre	2023-03-10T00:00:00	2024-11-06T16:00:00	8	Radiación solar	389
123009	7	Sololá	702	San José Chacayá	5	Chacayá	10	Octubre	2023-03-10T00:00:00	2024-11-06T17:00:00	2	Temperatura media	17.3
123010	7	Sololá	702	San José Chacayá	5	Chacayá	10	Octubre	2023-03-10T00:00:00	2024-11-06T17:00:00	4	Temperatura máxima	19.9
123011	7	Sololá	702	San José Chacayá	5	Chacayá	10	Octubre	2023-03-10T00:00:00	2024-11-06T17:00:00	3	Temperatura mínima	17.2
123012	7	Sololá	702	San José Chacayá	5	Chacayá	10	Octubre	2023-03-10T00:00:00	2024-11-06T17:00:00	5	Humedad	89
123013	7	Sololá	702	San José Chacayá	5	Chacayá	10	Octubre	2023-03-10T00:00:00	2024-11-06T17:00:00	6	Velocidad del viento	6.4
123014	7	Sololá	702	San José Chacayá	5	Chacayá	10	Octubre	2023-03-10T00:00:00	2024-11-06T17:00:00	7	Dirección del viento	6.44
123015	7	Sololá	702	San José Chacayá	5	Chacayá	10	Octubre	2023-03-10T00:00:00	2024-11-06T17:00:00	1	Precipitación	0
123016	7	Sololá	702	San José Chacayá	5	Chacayá	10	Octubre	2023-03-10T00:00:00	2024-11-06T17:00:00	8	Radiación solar	159
123017	7	Sololá	702	San José Chacayá	5	Chacayá	10	Octubre	2023-03-10T00:00:00	2024-11-06T18:00:00	2	Temperatura media	16.1
123018	7	Sololá	702	San José Chacayá	5	Chacayá	10	Octubre	2023-03-10T00:00:00	2024-11-06T18:00:00	4	Temperatura máxima	17.3
123019	7	Sololá	702	San José Chacayá	5	Chacayá	10	Octubre	2023-03-10T00:00:00	2024-11-06T18:00:00	3	Temperatura mínima	16.1
123020	7	Sololá	702	San José Chacayá	5	Chacayá	10	Octubre	2023-03-10T00:00:00	2024-11-06T18:00:00	5	Humedad	94
123021	7	Sololá	702	San José Chacayá	5	Chacayá	10	Octubre	2023-03-10T00:00:00	2024-11-06T18:00:00	6	Velocidad del viento	3.2
123022	7	Sololá	702	San José Chacayá	5	Chacayá	10	Octubre	2023-03-10T00:00:00	2024-11-06T18:00:00	7	Dirección del viento	3.22
123023	7	Sololá	702	San José Chacayá	5	Chacayá	10	Octubre	2023-03-10T00:00:00	2024-11-06T18:00:00	1	Precipitación	0.2
123024	7	Sololá	702	San José Chacayá	5	Chacayá	10	Octubre	2023-03-10T00:00:00	2024-11-06T18:00:00	8	Radiación solar	14
123025	7	Sololá	702	San José Chacayá	5	Chacayá	10	Octubre	2023-03-10T00:00:00	2024-11-06T19:00:00	2	Temperatura media	15.8
123026	7	Sololá	702	San José Chacayá	5	Chacayá	10	Octubre	2023-03-10T00:00:00	2024-11-06T19:00:00	4	Temperatura máxima	16.1
123027	7	Sololá	702	San José Chacayá	5	Chacayá	10	Octubre	2023-03-10T00:00:00	2024-11-06T19:00:00	3	Temperatura mínima	15.8
123028	7	Sololá	702	San José Chacayá	5	Chacayá	10	Octubre	2023-03-10T00:00:00	2024-11-06T19:00:00	5	Humedad	94
123029	7	Sololá	702	San José Chacayá	5	Chacayá	10	Octubre	2023-03-10T00:00:00	2024-11-06T19:00:00	6	Velocidad del viento	0
123030	7	Sololá	702	San José Chacayá	5	Chacayá	10	Octubre	2023-03-10T00:00:00	2024-11-06T19:00:00	7	Dirección del viento	0
123031	7	Sololá	702	San José Chacayá	5	Chacayá	10	Octubre	2023-03-10T00:00:00	2024-11-06T19:00:00	1	Precipitación	0
123032	7	Sololá	702	San José Chacayá	5	Chacayá	10	Octubre	2023-03-10T00:00:00	2024-11-06T19:00:00	8	Radiación solar	0
123033	7	Sololá	702	San José Chacayá	5	Chacayá	10	Octubre	2023-03-10T00:00:00	2024-11-06T20:00:00	2	Temperatura media	15.3
123034	7	Sololá	702	San José Chacayá	5	Chacayá	10	Octubre	2023-03-10T00:00:00	2024-11-06T20:00:00	4	Temperatura máxima	15.8
123035	7	Sololá	702	San José Chacayá	5	Chacayá	10	Octubre	2023-03-10T00:00:00	2024-11-06T20:00:00	3	Temperatura mínima	15.3
123036	7	Sololá	702	San José Chacayá	5	Chacayá	10	Octubre	2023-03-10T00:00:00	2024-11-06T20:00:00	5	Humedad	94
123037	7	Sololá	702	San José Chacayá	5	Chacayá	10	Octubre	2023-03-10T00:00:00	2024-11-06T20:00:00	6	Velocidad del viento	0
123038	7	Sololá	702	San José Chacayá	5	Chacayá	10	Octubre	2023-03-10T00:00:00	2024-11-06T20:00:00	7	Dirección del viento	0
123039	7	Sololá	702	San José Chacayá	5	Chacayá	10	Octubre	2023-03-10T00:00:00	2024-11-06T20:00:00	1	Precipitación	0
123040	7	Sololá	702	San José Chacayá	5	Chacayá	10	Octubre	2023-03-10T00:00:00	2024-11-06T20:00:00	8	Radiación solar	0
123041	7	Sololá	702	San José Chacayá	5	Chacayá	10	Octubre	2023-03-10T00:00:00	2024-11-06T21:00:00	2	Temperatura media	14.9
123042	7	Sololá	702	San José Chacayá	5	Chacayá	10	Octubre	2023-03-10T00:00:00	2024-11-06T21:00:00	4	Temperatura máxima	15.3
123043	7	Sololá	702	San José Chacayá	5	Chacayá	10	Octubre	2023-03-10T00:00:00	2024-11-06T21:00:00	3	Temperatura mínima	14.8
123044	7	Sololá	702	San José Chacayá	5	Chacayá	10	Octubre	2023-03-10T00:00:00	2024-11-06T21:00:00	5	Humedad	95
123045	7	Sololá	702	San José Chacayá	5	Chacayá	10	Octubre	2023-03-10T00:00:00	2024-11-06T21:00:00	6	Velocidad del viento	0
123046	7	Sololá	702	San José Chacayá	5	Chacayá	10	Octubre	2023-03-10T00:00:00	2024-11-06T21:00:00	7	Dirección del viento	0
123047	7	Sololá	702	San José Chacayá	5	Chacayá	10	Octubre	2023-03-10T00:00:00	2024-11-06T21:00:00	1	Precipitación	0
123048	7	Sololá	702	San José Chacayá	5	Chacayá	10	Octubre	2023-03-10T00:00:00	2024-11-06T21:00:00	8	Radiación solar	0
123049	7	Sololá	702	San José Chacayá	5	Chacayá	10	Octubre	2023-03-10T00:00:00	2024-11-06T22:00:00	2	Temperatura media	15.2
123050	7	Sololá	702	San José Chacayá	5	Chacayá	10	Octubre	2023-03-10T00:00:00	2024-11-06T22:00:00	4	Temperatura máxima	15.2
123051	7	Sololá	702	San José Chacayá	5	Chacayá	10	Octubre	2023-03-10T00:00:00	2024-11-06T22:00:00	3	Temperatura mínima	14.9
123052	7	Sololá	702	San José Chacayá	5	Chacayá	10	Octubre	2023-03-10T00:00:00	2024-11-06T22:00:00	5	Humedad	95
123053	7	Sololá	702	San José Chacayá	5	Chacayá	10	Octubre	2023-03-10T00:00:00	2024-11-06T22:00:00	6	Velocidad del viento	0
123054	7	Sololá	702	San José Chacayá	5	Chacayá	10	Octubre	2023-03-10T00:00:00	2024-11-06T22:00:00	7	Dirección del viento	0
123055	7	Sololá	702	San José Chacayá	5	Chacayá	10	Octubre	2023-03-10T00:00:00	2024-11-06T22:00:00	1	Precipitación	0.8
123056	7	Sololá	702	San José Chacayá	5	Chacayá	10	Octubre	2023-03-10T00:00:00	2024-11-06T22:00:00	8	Radiación solar	0
123057	7	Sololá	702	San José Chacayá	5	Chacayá	10	Octubre	2023-03-10T00:00:00	2024-11-06T23:00:00	2	Temperatura media	15
123058	7	Sololá	702	San José Chacayá	5	Chacayá	10	Octubre	2023-03-10T00:00:00	2024-11-06T23:00:00	4	Temperatura máxima	15.3
123059	7	Sololá	702	San José Chacayá	5	Chacayá	10	Octubre	2023-03-10T00:00:00	2024-11-06T23:00:00	3	Temperatura mínima	14.9
123060	7	Sololá	702	San José Chacayá	5	Chacayá	10	Octubre	2023-03-10T00:00:00	2024-11-06T23:00:00	5	Humedad	95
123061	7	Sololá	702	San José Chacayá	5	Chacayá	10	Octubre	2023-03-10T00:00:00	2024-11-06T23:00:00	6	Velocidad del viento	0
123062	7	Sololá	702	San José Chacayá	5	Chacayá	10	Octubre	2023-03-10T00:00:00	2024-11-06T23:00:00	7	Dirección del viento	0
123063	7	Sololá	702	San José Chacayá	5	Chacayá	10	Octubre	2023-03-10T00:00:00	2024-11-06T23:00:00	1	Precipitación	2
123064	7	Sololá	702	San José Chacayá	5	Chacayá	10	Octubre	2023-03-10T00:00:00	2024-11-06T23:00:00	8	Radiación solar	0
123065	7	Sololá	702	San José Chacayá	5	Chacayá	10	Octubre	2023-04-10T00:00:00	2024-11-06T00:00:00	2	Temperatura media	14.6
123066	7	Sololá	702	San José Chacayá	5	Chacayá	10	Octubre	2023-04-10T00:00:00	2024-11-06T00:00:00	4	Temperatura máxima	15
123067	7	Sololá	702	San José Chacayá	5	Chacayá	10	Octubre	2023-04-10T00:00:00	2024-11-06T00:00:00	3	Temperatura mínima	14.6
123068	7	Sololá	702	San José Chacayá	5	Chacayá	10	Octubre	2023-04-10T00:00:00	2024-11-06T00:00:00	5	Humedad	95
123069	7	Sololá	702	San José Chacayá	5	Chacayá	10	Octubre	2023-04-10T00:00:00	2024-11-06T00:00:00	6	Velocidad del viento	0
123070	7	Sololá	702	San José Chacayá	5	Chacayá	10	Octubre	2023-04-10T00:00:00	2024-11-06T00:00:00	7	Dirección del viento	0
123071	7	Sololá	702	San José Chacayá	5	Chacayá	10	Octubre	2023-04-10T00:00:00	2024-11-06T00:00:00	1	Precipitación	1.8
123072	7	Sololá	702	San José Chacayá	5	Chacayá	10	Octubre	2023-04-10T00:00:00	2024-11-06T00:00:00	8	Radiación solar	0
123073	7	Sololá	702	San José Chacayá	5	Chacayá	10	Octubre	2023-04-10T00:00:00	2024-11-06T01:00:00	2	Temperatura media	13.9
123074	7	Sololá	702	San José Chacayá	5	Chacayá	10	Octubre	2023-04-10T00:00:00	2024-11-06T01:00:00	4	Temperatura máxima	14.6
123075	7	Sololá	702	San José Chacayá	5	Chacayá	10	Octubre	2023-04-10T00:00:00	2024-11-06T01:00:00	3	Temperatura mínima	13.9
123076	7	Sololá	702	San José Chacayá	5	Chacayá	10	Octubre	2023-04-10T00:00:00	2024-11-06T01:00:00	5	Humedad	95
123077	7	Sololá	702	San José Chacayá	5	Chacayá	10	Octubre	2023-04-10T00:00:00	2024-11-06T01:00:00	6	Velocidad del viento	0
123078	7	Sololá	702	San José Chacayá	5	Chacayá	10	Octubre	2023-04-10T00:00:00	2024-11-06T01:00:00	7	Dirección del viento	0
123079	7	Sololá	702	San José Chacayá	5	Chacayá	10	Octubre	2023-04-10T00:00:00	2024-11-06T01:00:00	1	Precipitación	0.2
123080	7	Sololá	702	San José Chacayá	5	Chacayá	10	Octubre	2023-04-10T00:00:00	2024-11-06T01:00:00	8	Radiación solar	0
123081	7	Sololá	702	San José Chacayá	5	Chacayá	10	Octubre	2023-04-10T00:00:00	2024-11-06T02:00:00	2	Temperatura media	13.1
123082	7	Sololá	702	San José Chacayá	5	Chacayá	10	Octubre	2023-04-10T00:00:00	2024-11-06T02:00:00	4	Temperatura máxima	13.9
123083	7	Sololá	702	San José Chacayá	5	Chacayá	10	Octubre	2023-04-10T00:00:00	2024-11-06T02:00:00	3	Temperatura mínima	13.1
123084	7	Sololá	702	San José Chacayá	5	Chacayá	10	Octubre	2023-04-10T00:00:00	2024-11-06T02:00:00	5	Humedad	95
123085	7	Sololá	702	San José Chacayá	5	Chacayá	10	Octubre	2023-04-10T00:00:00	2024-11-06T02:00:00	6	Velocidad del viento	0
123086	7	Sololá	702	San José Chacayá	5	Chacayá	10	Octubre	2023-04-10T00:00:00	2024-11-06T02:00:00	7	Dirección del viento	0
123087	7	Sololá	702	San José Chacayá	5	Chacayá	10	Octubre	2023-04-10T00:00:00	2024-11-06T02:00:00	1	Precipitación	0
123088	7	Sololá	702	San José Chacayá	5	Chacayá	10	Octubre	2023-04-10T00:00:00	2024-11-06T02:00:00	8	Radiación solar	0
123089	7	Sololá	702	San José Chacayá	5	Chacayá	10	Octubre	2023-04-10T00:00:00	2024-11-06T03:00:00	2	Temperatura media	12.8
123090	7	Sololá	702	San José Chacayá	5	Chacayá	10	Octubre	2023-04-10T00:00:00	2024-11-06T03:00:00	4	Temperatura máxima	13.1
123091	7	Sololá	702	San José Chacayá	5	Chacayá	10	Octubre	2023-04-10T00:00:00	2024-11-06T03:00:00	3	Temperatura mínima	12.8
123092	7	Sololá	702	San José Chacayá	5	Chacayá	10	Octubre	2023-04-10T00:00:00	2024-11-06T03:00:00	5	Humedad	95
123093	7	Sololá	702	San José Chacayá	5	Chacayá	10	Octubre	2023-04-10T00:00:00	2024-11-06T03:00:00	6	Velocidad del viento	0
123094	7	Sololá	702	San José Chacayá	5	Chacayá	10	Octubre	2023-04-10T00:00:00	2024-11-06T03:00:00	7	Dirección del viento	0
123095	7	Sololá	702	San José Chacayá	5	Chacayá	10	Octubre	2023-04-10T00:00:00	2024-11-06T03:00:00	1	Precipitación	0
123096	7	Sololá	702	San José Chacayá	5	Chacayá	10	Octubre	2023-04-10T00:00:00	2024-11-06T03:00:00	8	Radiación solar	0
123097	7	Sololá	702	San José Chacayá	5	Chacayá	10	Octubre	2023-04-10T00:00:00	2024-11-06T04:00:00	2	Temperatura media	12.3
123098	7	Sololá	702	San José Chacayá	5	Chacayá	10	Octubre	2023-04-10T00:00:00	2024-11-06T04:00:00	4	Temperatura máxima	12.8
123099	7	Sololá	702	San José Chacayá	5	Chacayá	10	Octubre	2023-04-10T00:00:00	2024-11-06T04:00:00	3	Temperatura mínima	12.3
123100	7	Sololá	702	San José Chacayá	5	Chacayá	10	Octubre	2023-04-10T00:00:00	2024-11-06T04:00:00	5	Humedad	95
123101	7	Sololá	702	San José Chacayá	5	Chacayá	10	Octubre	2023-04-10T00:00:00	2024-11-06T04:00:00	6	Velocidad del viento	0
123102	7	Sololá	702	San José Chacayá	5	Chacayá	10	Octubre	2023-04-10T00:00:00	2024-11-06T04:00:00	7	Dirección del viento	0
123103	7	Sololá	702	San José Chacayá	5	Chacayá	10	Octubre	2023-04-10T00:00:00	2024-11-06T04:00:00	1	Precipitación	0
123104	7	Sololá	702	San José Chacayá	5	Chacayá	10	Octubre	2023-04-10T00:00:00	2024-11-06T04:00:00	8	Radiación solar	0
123105	7	Sololá	702	San José Chacayá	5	Chacayá	10	Octubre	2023-04-10T00:00:00	2024-11-06T05:00:00	2	Temperatura media	11.8
123106	7	Sololá	702	San José Chacayá	5	Chacayá	10	Octubre	2023-04-10T00:00:00	2024-11-06T05:00:00	4	Temperatura máxima	12.3
123107	7	Sololá	702	San José Chacayá	5	Chacayá	10	Octubre	2023-04-10T00:00:00	2024-11-06T05:00:00	3	Temperatura mínima	11.8
123108	7	Sololá	702	San José Chacayá	5	Chacayá	10	Octubre	2023-04-10T00:00:00	2024-11-06T05:00:00	5	Humedad	95
123109	7	Sololá	702	San José Chacayá	5	Chacayá	10	Octubre	2023-04-10T00:00:00	2024-11-06T05:00:00	6	Velocidad del viento	0
123110	7	Sololá	702	San José Chacayá	5	Chacayá	10	Octubre	2023-04-10T00:00:00	2024-11-06T05:00:00	7	Dirección del viento	0
123111	7	Sololá	702	San José Chacayá	5	Chacayá	10	Octubre	2023-04-10T00:00:00	2024-11-06T05:00:00	1	Precipitación	0
123112	7	Sololá	702	San José Chacayá	5	Chacayá	10	Octubre	2023-04-10T00:00:00	2024-11-06T05:00:00	8	Radiación solar	0
123113	7	Sololá	702	San José Chacayá	5	Chacayá	10	Octubre	2023-04-10T00:00:00	2024-11-06T06:00:00	2	Temperatura media	12.2
123114	7	Sololá	702	San José Chacayá	5	Chacayá	10	Octubre	2023-04-10T00:00:00	2024-11-06T06:00:00	4	Temperatura máxima	12.2
123115	7	Sololá	702	San José Chacayá	5	Chacayá	10	Octubre	2023-04-10T00:00:00	2024-11-06T06:00:00	3	Temperatura mínima	11.8
123116	7	Sololá	702	San José Chacayá	5	Chacayá	10	Octubre	2023-04-10T00:00:00	2024-11-06T06:00:00	5	Humedad	96
123117	7	Sololá	702	San José Chacayá	5	Chacayá	10	Octubre	2023-04-10T00:00:00	2024-11-06T06:00:00	6	Velocidad del viento	0
123118	7	Sololá	702	San José Chacayá	5	Chacayá	10	Octubre	2023-04-10T00:00:00	2024-11-06T06:00:00	7	Dirección del viento	0
123119	7	Sololá	702	San José Chacayá	5	Chacayá	10	Octubre	2023-04-10T00:00:00	2024-11-06T06:00:00	1	Precipitación	0
123120	7	Sololá	702	San José Chacayá	5	Chacayá	10	Octubre	2023-04-10T00:00:00	2024-11-06T06:00:00	8	Radiación solar	1
123121	7	Sololá	702	San José Chacayá	5	Chacayá	10	Octubre	2023-04-10T00:00:00	2024-11-06T07:00:00	2	Temperatura media	12.1
123122	7	Sololá	702	San José Chacayá	5	Chacayá	10	Octubre	2023-04-10T00:00:00	2024-11-06T07:00:00	4	Temperatura máxima	12.4
123123	7	Sololá	702	San José Chacayá	5	Chacayá	10	Octubre	2023-04-10T00:00:00	2024-11-06T07:00:00	3	Temperatura mínima	12.1
123124	7	Sololá	702	San José Chacayá	5	Chacayá	10	Octubre	2023-04-10T00:00:00	2024-11-06T07:00:00	5	Humedad	95
123125	7	Sololá	702	San José Chacayá	5	Chacayá	10	Octubre	2023-04-10T00:00:00	2024-11-06T07:00:00	6	Velocidad del viento	0
123126	7	Sololá	702	San José Chacayá	5	Chacayá	10	Octubre	2023-04-10T00:00:00	2024-11-06T07:00:00	7	Dirección del viento	0
123127	7	Sololá	702	San José Chacayá	5	Chacayá	10	Octubre	2023-04-10T00:00:00	2024-11-06T07:00:00	1	Precipitación	0
123128	7	Sololá	702	San José Chacayá	5	Chacayá	10	Octubre	2023-04-10T00:00:00	2024-11-06T07:00:00	8	Radiación solar	84
123129	7	Sololá	702	San José Chacayá	5	Chacayá	10	Octubre	2023-04-10T00:00:00	2024-11-06T08:00:00	2	Temperatura media	13.3
123130	7	Sololá	702	San José Chacayá	5	Chacayá	10	Octubre	2023-04-10T00:00:00	2024-11-06T08:00:00	4	Temperatura máxima	13.3
123131	7	Sololá	702	San José Chacayá	5	Chacayá	10	Octubre	2023-04-10T00:00:00	2024-11-06T08:00:00	3	Temperatura mínima	12
123132	7	Sololá	702	San José Chacayá	5	Chacayá	10	Octubre	2023-04-10T00:00:00	2024-11-06T08:00:00	5	Humedad	95
123133	7	Sololá	702	San José Chacayá	5	Chacayá	10	Octubre	2023-04-10T00:00:00	2024-11-06T08:00:00	6	Velocidad del viento	0
123134	7	Sololá	702	San José Chacayá	5	Chacayá	10	Octubre	2023-04-10T00:00:00	2024-11-06T08:00:00	7	Dirección del viento	0
123135	7	Sololá	702	San José Chacayá	5	Chacayá	10	Octubre	2023-04-10T00:00:00	2024-11-06T08:00:00	1	Precipitación	0
123136	7	Sololá	702	San José Chacayá	5	Chacayá	10	Octubre	2023-04-10T00:00:00	2024-11-06T08:00:00	8	Radiación solar	322
123137	7	Sololá	702	San José Chacayá	5	Chacayá	10	Octubre	2023-04-10T00:00:00	2024-11-06T09:00:00	2	Temperatura media	16.7
123138	7	Sololá	702	San José Chacayá	5	Chacayá	10	Octubre	2023-04-10T00:00:00	2024-11-06T09:00:00	4	Temperatura máxima	16.7
123139	7	Sololá	702	San José Chacayá	5	Chacayá	10	Octubre	2023-04-10T00:00:00	2024-11-06T09:00:00	3	Temperatura mínima	13.3
123140	7	Sololá	702	San José Chacayá	5	Chacayá	10	Octubre	2023-04-10T00:00:00	2024-11-06T09:00:00	5	Humedad	85
123141	7	Sololá	702	San José Chacayá	5	Chacayá	10	Octubre	2023-04-10T00:00:00	2024-11-06T09:00:00	6	Velocidad del viento	1.6
123142	7	Sololá	702	San José Chacayá	5	Chacayá	10	Octubre	2023-04-10T00:00:00	2024-11-06T09:00:00	7	Dirección del viento	1.61
123143	7	Sololá	702	San José Chacayá	5	Chacayá	10	Octubre	2023-04-10T00:00:00	2024-11-06T09:00:00	1	Precipitación	0
123144	7	Sololá	702	San José Chacayá	5	Chacayá	10	Octubre	2023-04-10T00:00:00	2024-11-06T09:00:00	8	Radiación solar	532
123145	7	Sololá	702	San José Chacayá	5	Chacayá	10	Octubre	2023-04-10T00:00:00	2024-11-06T10:00:00	2	Temperatura media	19.7
123146	7	Sololá	702	San José Chacayá	5	Chacayá	10	Octubre	2023-04-10T00:00:00	2024-11-06T10:00:00	4	Temperatura máxima	20.3
123147	7	Sololá	702	San José Chacayá	5	Chacayá	10	Octubre	2023-04-10T00:00:00	2024-11-06T10:00:00	3	Temperatura mínima	16.7
123148	7	Sololá	702	San José Chacayá	5	Chacayá	10	Octubre	2023-04-10T00:00:00	2024-11-06T10:00:00	5	Humedad	74
123149	7	Sololá	702	San José Chacayá	5	Chacayá	10	Octubre	2023-04-10T00:00:00	2024-11-06T10:00:00	6	Velocidad del viento	3.2
123150	7	Sololá	702	San José Chacayá	5	Chacayá	10	Octubre	2023-04-10T00:00:00	2024-11-06T10:00:00	7	Dirección del viento	3.22
123151	7	Sololá	702	San José Chacayá	5	Chacayá	10	Octubre	2023-04-10T00:00:00	2024-11-06T10:00:00	1	Precipitación	0
123152	7	Sololá	702	San José Chacayá	5	Chacayá	10	Octubre	2023-04-10T00:00:00	2024-11-06T10:00:00	8	Radiación solar	763
123153	7	Sololá	702	San José Chacayá	5	Chacayá	10	Octubre	2023-04-10T00:00:00	2024-11-06T11:00:00	2	Temperatura media	22
123154	7	Sololá	702	San José Chacayá	5	Chacayá	10	Octubre	2023-04-10T00:00:00	2024-11-06T11:00:00	4	Temperatura máxima	22
123155	7	Sololá	702	San José Chacayá	5	Chacayá	10	Octubre	2023-04-10T00:00:00	2024-11-06T11:00:00	3	Temperatura mínima	19.2
123156	7	Sololá	702	San José Chacayá	5	Chacayá	10	Octubre	2023-04-10T00:00:00	2024-11-06T11:00:00	5	Humedad	64
123157	7	Sololá	702	San José Chacayá	5	Chacayá	10	Octubre	2023-04-10T00:00:00	2024-11-06T11:00:00	6	Velocidad del viento	4.8
123158	7	Sololá	702	San José Chacayá	5	Chacayá	10	Octubre	2023-04-10T00:00:00	2024-11-06T11:00:00	7	Dirección del viento	4.83
123159	7	Sololá	702	San José Chacayá	5	Chacayá	10	Octubre	2023-04-10T00:00:00	2024-11-06T11:00:00	1	Precipitación	0
123160	7	Sololá	702	San José Chacayá	5	Chacayá	10	Octubre	2023-04-10T00:00:00	2024-11-06T11:00:00	8	Radiación solar	918
123161	7	Sololá	702	San José Chacayá	5	Chacayá	10	Octubre	2023-04-10T00:00:00	2024-11-06T12:00:00	2	Temperatura media	24.2
123162	7	Sololá	702	San José Chacayá	5	Chacayá	10	Octubre	2023-04-10T00:00:00	2024-11-06T12:00:00	4	Temperatura máxima	24.2
123163	7	Sololá	702	San José Chacayá	5	Chacayá	10	Octubre	2023-04-10T00:00:00	2024-11-06T12:00:00	3	Temperatura mínima	22
123164	7	Sololá	702	San José Chacayá	5	Chacayá	10	Octubre	2023-04-10T00:00:00	2024-11-06T12:00:00	5	Humedad	59
123165	7	Sololá	702	San José Chacayá	5	Chacayá	10	Octubre	2023-04-10T00:00:00	2024-11-06T12:00:00	6	Velocidad del viento	3.2
123166	7	Sololá	702	San José Chacayá	5	Chacayá	10	Octubre	2023-04-10T00:00:00	2024-11-06T12:00:00	7	Dirección del viento	3.22
123167	7	Sololá	702	San José Chacayá	5	Chacayá	10	Octubre	2023-04-10T00:00:00	2024-11-06T12:00:00	1	Precipitación	0
123168	7	Sololá	702	San José Chacayá	5	Chacayá	10	Octubre	2023-04-10T00:00:00	2024-11-06T12:00:00	8	Radiación solar	806
123169	7	Sololá	702	San José Chacayá	5	Chacayá	10	Octubre	2023-04-10T00:00:00	2024-11-06T13:00:00	2	Temperatura media	22.5
123170	7	Sololá	702	San José Chacayá	5	Chacayá	10	Octubre	2023-04-10T00:00:00	2024-11-06T13:00:00	4	Temperatura máxima	24.4
123171	7	Sololá	702	San José Chacayá	5	Chacayá	10	Octubre	2023-04-10T00:00:00	2024-11-06T13:00:00	3	Temperatura mínima	22.5
123172	7	Sololá	702	San José Chacayá	5	Chacayá	10	Octubre	2023-04-10T00:00:00	2024-11-06T13:00:00	5	Humedad	69
123173	7	Sololá	702	San José Chacayá	5	Chacayá	10	Octubre	2023-04-10T00:00:00	2024-11-06T13:00:00	6	Velocidad del viento	6.4
123174	7	Sololá	702	San José Chacayá	5	Chacayá	10	Octubre	2023-04-10T00:00:00	2024-11-06T13:00:00	7	Dirección del viento	6.44
123175	7	Sololá	702	San José Chacayá	5	Chacayá	10	Octubre	2023-04-10T00:00:00	2024-11-06T13:00:00	1	Precipitación	0
123176	7	Sololá	702	San José Chacayá	5	Chacayá	10	Octubre	2023-04-10T00:00:00	2024-11-06T13:00:00	8	Radiación solar	932
123177	7	Sololá	702	San José Chacayá	5	Chacayá	10	Octubre	2023-04-10T00:00:00	2024-11-06T14:00:00	2	Temperatura media	22.7
123178	7	Sololá	702	San José Chacayá	5	Chacayá	10	Octubre	2023-04-10T00:00:00	2024-11-06T14:00:00	4	Temperatura máxima	22.7
123179	7	Sololá	702	San José Chacayá	5	Chacayá	10	Octubre	2023-04-10T00:00:00	2024-11-06T14:00:00	3	Temperatura mínima	21.6
123180	7	Sololá	702	San José Chacayá	5	Chacayá	10	Octubre	2023-04-10T00:00:00	2024-11-06T14:00:00	5	Humedad	71
123181	7	Sololá	702	San José Chacayá	5	Chacayá	10	Octubre	2023-04-10T00:00:00	2024-11-06T14:00:00	6	Velocidad del viento	6.4
123182	7	Sololá	702	San José Chacayá	5	Chacayá	10	Octubre	2023-04-10T00:00:00	2024-11-06T14:00:00	7	Dirección del viento	6.44
123183	7	Sololá	702	San José Chacayá	5	Chacayá	10	Octubre	2023-04-10T00:00:00	2024-11-06T14:00:00	1	Precipitación	0
123184	7	Sololá	702	San José Chacayá	5	Chacayá	10	Octubre	2023-04-10T00:00:00	2024-11-06T14:00:00	8	Radiación solar	506
123185	7	Sololá	702	San José Chacayá	5	Chacayá	10	Octubre	2023-04-10T00:00:00	2024-11-06T15:00:00	2	Temperatura media	18
123186	7	Sololá	702	San José Chacayá	5	Chacayá	10	Octubre	2023-04-10T00:00:00	2024-11-06T15:00:00	4	Temperatura máxima	22.9
123187	7	Sololá	702	San José Chacayá	5	Chacayá	10	Octubre	2023-04-10T00:00:00	2024-11-06T15:00:00	3	Temperatura mínima	18
123188	7	Sololá	702	San José Chacayá	5	Chacayá	10	Octubre	2023-04-10T00:00:00	2024-11-06T15:00:00	5	Humedad	90
123189	7	Sololá	702	San José Chacayá	5	Chacayá	10	Octubre	2023-04-10T00:00:00	2024-11-06T15:00:00	6	Velocidad del viento	3.2
123190	7	Sololá	702	San José Chacayá	5	Chacayá	10	Octubre	2023-04-10T00:00:00	2024-11-06T15:00:00	7	Dirección del viento	3.22
123191	7	Sololá	702	San José Chacayá	5	Chacayá	10	Octubre	2023-04-10T00:00:00	2024-11-06T15:00:00	1	Precipitación	1.2
123192	7	Sololá	702	San José Chacayá	5	Chacayá	10	Octubre	2023-04-10T00:00:00	2024-11-06T15:00:00	8	Radiación solar	262
123193	7	Sololá	702	San José Chacayá	5	Chacayá	10	Octubre	2023-04-10T00:00:00	2024-11-06T16:00:00	2	Temperatura media	17.6
123194	7	Sololá	702	San José Chacayá	5	Chacayá	10	Octubre	2023-04-10T00:00:00	2024-11-06T16:00:00	4	Temperatura máxima	18.2
123195	7	Sololá	702	San José Chacayá	5	Chacayá	10	Octubre	2023-04-10T00:00:00	2024-11-06T16:00:00	3	Temperatura mínima	17.6
123196	7	Sololá	702	San José Chacayá	5	Chacayá	10	Octubre	2023-04-10T00:00:00	2024-11-06T16:00:00	5	Humedad	92
123197	7	Sololá	702	San José Chacayá	5	Chacayá	10	Octubre	2023-04-10T00:00:00	2024-11-06T16:00:00	6	Velocidad del viento	1.6
123198	7	Sololá	702	San José Chacayá	5	Chacayá	10	Octubre	2023-04-10T00:00:00	2024-11-06T16:00:00	7	Dirección del viento	1.61
123199	7	Sololá	702	San José Chacayá	5	Chacayá	10	Octubre	2023-04-10T00:00:00	2024-11-06T16:00:00	1	Precipitación	2.6
123200	7	Sololá	702	San José Chacayá	5	Chacayá	10	Octubre	2023-04-10T00:00:00	2024-11-06T16:00:00	8	Radiación solar	563
123201	7	Sololá	702	San José Chacayá	5	Chacayá	10	Octubre	2023-04-10T00:00:00	2024-11-06T17:00:00	2	Temperatura media	16.4
123202	7	Sololá	702	San José Chacayá	5	Chacayá	10	Octubre	2023-04-10T00:00:00	2024-11-06T17:00:00	4	Temperatura máxima	17.7
123203	7	Sololá	702	San José Chacayá	5	Chacayá	10	Octubre	2023-04-10T00:00:00	2024-11-06T17:00:00	3	Temperatura mínima	16.4
123204	7	Sololá	702	San José Chacayá	5	Chacayá	10	Octubre	2023-04-10T00:00:00	2024-11-06T17:00:00	5	Humedad	93
123205	7	Sololá	702	San José Chacayá	5	Chacayá	10	Octubre	2023-04-10T00:00:00	2024-11-06T17:00:00	6	Velocidad del viento	1.6
123206	7	Sololá	702	San José Chacayá	5	Chacayá	10	Octubre	2023-04-10T00:00:00	2024-11-06T17:00:00	7	Dirección del viento	1.61
123207	7	Sololá	702	San José Chacayá	5	Chacayá	10	Octubre	2023-04-10T00:00:00	2024-11-06T17:00:00	1	Precipitación	13.8
123208	7	Sololá	702	San José Chacayá	5	Chacayá	10	Octubre	2023-04-10T00:00:00	2024-11-06T17:00:00	8	Radiación solar	251
123209	7	Sololá	702	San José Chacayá	5	Chacayá	10	Octubre	2023-04-10T00:00:00	2024-11-06T18:00:00	2	Temperatura media	15.7
123210	7	Sololá	702	San José Chacayá	5	Chacayá	10	Octubre	2023-04-10T00:00:00	2024-11-06T18:00:00	4	Temperatura máxima	16.4
123211	7	Sololá	702	San José Chacayá	5	Chacayá	10	Octubre	2023-04-10T00:00:00	2024-11-06T18:00:00	3	Temperatura mínima	15.7
123212	7	Sololá	702	San José Chacayá	5	Chacayá	10	Octubre	2023-04-10T00:00:00	2024-11-06T18:00:00	5	Humedad	95
123213	7	Sololá	702	San José Chacayá	5	Chacayá	10	Octubre	2023-04-10T00:00:00	2024-11-06T18:00:00	6	Velocidad del viento	1.6
123214	7	Sololá	702	San José Chacayá	5	Chacayá	10	Octubre	2023-04-10T00:00:00	2024-11-06T18:00:00	7	Dirección del viento	1.61
123215	7	Sololá	702	San José Chacayá	5	Chacayá	10	Octubre	2023-04-10T00:00:00	2024-11-06T18:00:00	1	Precipitación	10
123216	7	Sololá	702	San José Chacayá	5	Chacayá	10	Octubre	2023-04-10T00:00:00	2024-11-06T18:00:00	8	Radiación solar	20
123217	7	Sololá	702	San José Chacayá	5	Chacayá	10	Octubre	2023-04-10T00:00:00	2024-11-06T19:00:00	2	Temperatura media	15.7
123218	7	Sololá	702	San José Chacayá	5	Chacayá	10	Octubre	2023-04-10T00:00:00	2024-11-06T19:00:00	4	Temperatura máxima	15.8
123219	7	Sololá	702	San José Chacayá	5	Chacayá	10	Octubre	2023-04-10T00:00:00	2024-11-06T19:00:00	3	Temperatura mínima	15.7
123220	7	Sololá	702	San José Chacayá	5	Chacayá	10	Octubre	2023-04-10T00:00:00	2024-11-06T19:00:00	5	Humedad	95
123221	7	Sololá	702	San José Chacayá	5	Chacayá	10	Octubre	2023-04-10T00:00:00	2024-11-06T19:00:00	6	Velocidad del viento	0
123222	7	Sololá	702	San José Chacayá	5	Chacayá	10	Octubre	2023-04-10T00:00:00	2024-11-06T19:00:00	7	Dirección del viento	0
123223	7	Sololá	702	San José Chacayá	5	Chacayá	10	Octubre	2023-04-10T00:00:00	2024-11-06T19:00:00	1	Precipitación	0.2
123224	7	Sololá	702	San José Chacayá	5	Chacayá	10	Octubre	2023-04-10T00:00:00	2024-11-06T19:00:00	8	Radiación solar	0
123225	7	Sololá	702	San José Chacayá	5	Chacayá	10	Octubre	2023-04-10T00:00:00	2024-11-06T20:00:00	2	Temperatura media	14.9
123226	7	Sololá	702	San José Chacayá	5	Chacayá	10	Octubre	2023-04-10T00:00:00	2024-11-06T20:00:00	4	Temperatura máxima	15.7
123227	7	Sololá	702	San José Chacayá	5	Chacayá	10	Octubre	2023-04-10T00:00:00	2024-11-06T20:00:00	3	Temperatura mínima	14.9
123228	7	Sololá	702	San José Chacayá	5	Chacayá	10	Octubre	2023-04-10T00:00:00	2024-11-06T20:00:00	5	Humedad	95
123229	7	Sololá	702	San José Chacayá	5	Chacayá	10	Octubre	2023-04-10T00:00:00	2024-11-06T20:00:00	6	Velocidad del viento	0
123230	7	Sololá	702	San José Chacayá	5	Chacayá	10	Octubre	2023-04-10T00:00:00	2024-11-06T20:00:00	7	Dirección del viento	0
123231	7	Sololá	702	San José Chacayá	5	Chacayá	10	Octubre	2023-04-10T00:00:00	2024-11-06T20:00:00	1	Precipitación	0
123232	7	Sololá	702	San José Chacayá	5	Chacayá	10	Octubre	2023-04-10T00:00:00	2024-11-06T20:00:00	8	Radiación solar	0
123233	7	Sololá	702	San José Chacayá	5	Chacayá	10	Octubre	2023-04-10T00:00:00	2024-11-06T21:00:00	2	Temperatura media	14.2
123234	7	Sololá	702	San José Chacayá	5	Chacayá	10	Octubre	2023-04-10T00:00:00	2024-11-06T21:00:00	4	Temperatura máxima	14.9
123235	7	Sololá	702	San José Chacayá	5	Chacayá	10	Octubre	2023-04-10T00:00:00	2024-11-06T21:00:00	3	Temperatura mínima	14.2
123236	7	Sololá	702	San José Chacayá	5	Chacayá	10	Octubre	2023-04-10T00:00:00	2024-11-06T21:00:00	5	Humedad	95
123237	7	Sololá	702	San José Chacayá	5	Chacayá	10	Octubre	2023-04-10T00:00:00	2024-11-06T21:00:00	6	Velocidad del viento	0
123238	7	Sololá	702	San José Chacayá	5	Chacayá	10	Octubre	2023-04-10T00:00:00	2024-11-06T21:00:00	7	Dirección del viento	0
123239	7	Sololá	702	San José Chacayá	5	Chacayá	10	Octubre	2023-04-10T00:00:00	2024-11-06T21:00:00	1	Precipitación	0
123240	7	Sololá	702	San José Chacayá	5	Chacayá	10	Octubre	2023-04-10T00:00:00	2024-11-06T21:00:00	8	Radiación solar	0
123241	7	Sololá	702	San José Chacayá	5	Chacayá	10	Octubre	2023-04-10T00:00:00	2024-11-06T22:00:00	2	Temperatura media	13.9
123242	7	Sololá	702	San José Chacayá	5	Chacayá	10	Octubre	2023-04-10T00:00:00	2024-11-06T22:00:00	4	Temperatura máxima	14.2
123243	7	Sololá	702	San José Chacayá	5	Chacayá	10	Octubre	2023-04-10T00:00:00	2024-11-06T22:00:00	3	Temperatura mínima	13.9
123244	7	Sololá	702	San José Chacayá	5	Chacayá	10	Octubre	2023-04-10T00:00:00	2024-11-06T22:00:00	5	Humedad	96
123245	7	Sololá	702	San José Chacayá	5	Chacayá	10	Octubre	2023-04-10T00:00:00	2024-11-06T22:00:00	6	Velocidad del viento	0
123246	7	Sololá	702	San José Chacayá	5	Chacayá	10	Octubre	2023-04-10T00:00:00	2024-11-06T22:00:00	7	Dirección del viento	0
123247	7	Sololá	702	San José Chacayá	5	Chacayá	10	Octubre	2023-04-10T00:00:00	2024-11-06T22:00:00	1	Precipitación	0
123248	7	Sololá	702	San José Chacayá	5	Chacayá	10	Octubre	2023-04-10T00:00:00	2024-11-06T22:00:00	8	Radiación solar	0
123249	7	Sololá	702	San José Chacayá	5	Chacayá	10	Octubre	2023-04-10T00:00:00	2024-11-06T23:00:00	2	Temperatura media	14.3
123250	7	Sololá	702	San José Chacayá	5	Chacayá	10	Octubre	2023-04-10T00:00:00	2024-11-06T23:00:00	4	Temperatura máxima	14.3
123251	7	Sololá	702	San José Chacayá	5	Chacayá	10	Octubre	2023-04-10T00:00:00	2024-11-06T23:00:00	3	Temperatura mínima	13.9
123252	7	Sololá	702	San José Chacayá	5	Chacayá	10	Octubre	2023-04-10T00:00:00	2024-11-06T23:00:00	5	Humedad	97
123253	7	Sololá	702	San José Chacayá	5	Chacayá	10	Octubre	2023-04-10T00:00:00	2024-11-06T23:00:00	6	Velocidad del viento	0
123254	7	Sololá	702	San José Chacayá	5	Chacayá	10	Octubre	2023-04-10T00:00:00	2024-11-06T23:00:00	7	Dirección del viento	0
123255	7	Sololá	702	San José Chacayá	5	Chacayá	10	Octubre	2023-04-10T00:00:00	2024-11-06T23:00:00	1	Precipitación	0
123256	7	Sololá	702	San José Chacayá	5	Chacayá	10	Octubre	2023-04-10T00:00:00	2024-11-06T23:00:00	8	Radiación solar	0
123257	7	Sololá	702	San José Chacayá	5	Chacayá	10	Octubre	2023-05-10T00:00:00	2024-11-06T00:00:00	2	Temperatura media	14.3
123258	7	Sololá	702	San José Chacayá	5	Chacayá	10	Octubre	2023-05-10T00:00:00	2024-11-06T00:00:00	4	Temperatura máxima	14.4
123259	7	Sololá	702	San José Chacayá	5	Chacayá	10	Octubre	2023-05-10T00:00:00	2024-11-06T00:00:00	3	Temperatura mínima	14.3
123260	7	Sololá	702	San José Chacayá	5	Chacayá	10	Octubre	2023-05-10T00:00:00	2024-11-06T00:00:00	5	Humedad	96
123261	7	Sololá	702	San José Chacayá	5	Chacayá	10	Octubre	2023-05-10T00:00:00	2024-11-06T00:00:00	6	Velocidad del viento	0
123262	7	Sololá	702	San José Chacayá	5	Chacayá	10	Octubre	2023-05-10T00:00:00	2024-11-06T00:00:00	7	Dirección del viento	0
123263	7	Sololá	702	San José Chacayá	5	Chacayá	10	Octubre	2023-05-10T00:00:00	2024-11-06T00:00:00	1	Precipitación	0
123264	7	Sololá	702	San José Chacayá	5	Chacayá	10	Octubre	2023-05-10T00:00:00	2024-11-06T00:00:00	8	Radiación solar	0
123265	7	Sololá	702	San José Chacayá	5	Chacayá	10	Octubre	2023-05-10T00:00:00	2024-11-06T01:00:00	2	Temperatura media	13.8
123266	7	Sololá	702	San José Chacayá	5	Chacayá	10	Octubre	2023-05-10T00:00:00	2024-11-06T01:00:00	4	Temperatura máxima	14.3
123267	7	Sololá	702	San José Chacayá	5	Chacayá	10	Octubre	2023-05-10T00:00:00	2024-11-06T01:00:00	3	Temperatura mínima	13.8
123268	7	Sololá	702	San José Chacayá	5	Chacayá	10	Octubre	2023-05-10T00:00:00	2024-11-06T01:00:00	5	Humedad	95
123269	7	Sololá	702	San José Chacayá	5	Chacayá	10	Octubre	2023-05-10T00:00:00	2024-11-06T01:00:00	6	Velocidad del viento	0
123270	7	Sololá	702	San José Chacayá	5	Chacayá	10	Octubre	2023-05-10T00:00:00	2024-11-06T01:00:00	7	Dirección del viento	0
123271	7	Sololá	702	San José Chacayá	5	Chacayá	10	Octubre	2023-05-10T00:00:00	2024-11-06T01:00:00	1	Precipitación	0
123272	7	Sololá	702	San José Chacayá	5	Chacayá	10	Octubre	2023-05-10T00:00:00	2024-11-06T01:00:00	8	Radiación solar	0
123273	7	Sololá	702	San José Chacayá	5	Chacayá	10	Octubre	2023-05-10T00:00:00	2024-11-06T02:00:00	2	Temperatura media	13.3
123274	7	Sololá	702	San José Chacayá	5	Chacayá	10	Octubre	2023-05-10T00:00:00	2024-11-06T02:00:00	4	Temperatura máxima	13.8
123275	7	Sololá	702	San José Chacayá	5	Chacayá	10	Octubre	2023-05-10T00:00:00	2024-11-06T02:00:00	3	Temperatura mínima	13.3
123276	7	Sololá	702	San José Chacayá	5	Chacayá	10	Octubre	2023-05-10T00:00:00	2024-11-06T02:00:00	5	Humedad	95
123277	7	Sololá	702	San José Chacayá	5	Chacayá	10	Octubre	2023-05-10T00:00:00	2024-11-06T02:00:00	6	Velocidad del viento	0
123278	7	Sololá	702	San José Chacayá	5	Chacayá	10	Octubre	2023-05-10T00:00:00	2024-11-06T02:00:00	7	Dirección del viento	0
123279	7	Sololá	702	San José Chacayá	5	Chacayá	10	Octubre	2023-05-10T00:00:00	2024-11-06T02:00:00	1	Precipitación	0
123280	7	Sololá	702	San José Chacayá	5	Chacayá	10	Octubre	2023-05-10T00:00:00	2024-11-06T02:00:00	8	Radiación solar	0
123281	7	Sololá	702	San José Chacayá	5	Chacayá	10	Octubre	2023-05-10T00:00:00	2024-11-06T03:00:00	2	Temperatura media	12.9
123282	7	Sololá	702	San José Chacayá	5	Chacayá	10	Octubre	2023-05-10T00:00:00	2024-11-06T03:00:00	4	Temperatura máxima	13.3
123283	7	Sololá	702	San José Chacayá	5	Chacayá	10	Octubre	2023-05-10T00:00:00	2024-11-06T03:00:00	3	Temperatura mínima	12.8
123284	7	Sololá	702	San José Chacayá	5	Chacayá	10	Octubre	2023-05-10T00:00:00	2024-11-06T03:00:00	5	Humedad	96
123285	7	Sololá	702	San José Chacayá	5	Chacayá	10	Octubre	2023-05-10T00:00:00	2024-11-06T03:00:00	6	Velocidad del viento	0
123286	7	Sololá	702	San José Chacayá	5	Chacayá	10	Octubre	2023-05-10T00:00:00	2024-11-06T03:00:00	7	Dirección del viento	0
123287	7	Sololá	702	San José Chacayá	5	Chacayá	10	Octubre	2023-05-10T00:00:00	2024-11-06T03:00:00	1	Precipitación	0
123288	7	Sololá	702	San José Chacayá	5	Chacayá	10	Octubre	2023-05-10T00:00:00	2024-11-06T03:00:00	8	Radiación solar	0
123289	7	Sololá	702	San José Chacayá	5	Chacayá	10	Octubre	2023-05-10T00:00:00	2024-11-06T04:00:00	2	Temperatura media	12.2
123290	7	Sololá	702	San José Chacayá	5	Chacayá	10	Octubre	2023-05-10T00:00:00	2024-11-06T04:00:00	4	Temperatura máxima	12.9
123291	7	Sololá	702	San José Chacayá	5	Chacayá	10	Octubre	2023-05-10T00:00:00	2024-11-06T04:00:00	3	Temperatura mínima	12.2
123292	7	Sololá	702	San José Chacayá	5	Chacayá	10	Octubre	2023-05-10T00:00:00	2024-11-06T04:00:00	5	Humedad	96
123293	7	Sololá	702	San José Chacayá	5	Chacayá	10	Octubre	2023-05-10T00:00:00	2024-11-06T04:00:00	6	Velocidad del viento	0
123294	7	Sololá	702	San José Chacayá	5	Chacayá	10	Octubre	2023-05-10T00:00:00	2024-11-06T04:00:00	7	Dirección del viento	0
123295	7	Sololá	702	San José Chacayá	5	Chacayá	10	Octubre	2023-05-10T00:00:00	2024-11-06T04:00:00	1	Precipitación	0
123296	7	Sololá	702	San José Chacayá	5	Chacayá	10	Octubre	2023-05-10T00:00:00	2024-11-06T04:00:00	8	Radiación solar	0
123297	7	Sololá	702	San José Chacayá	5	Chacayá	10	Octubre	2023-05-10T00:00:00	2024-11-06T05:00:00	2	Temperatura media	11.7
123298	7	Sololá	702	San José Chacayá	5	Chacayá	10	Octubre	2023-05-10T00:00:00	2024-11-06T05:00:00	4	Temperatura máxima	12.3
123299	7	Sololá	702	San José Chacayá	5	Chacayá	10	Octubre	2023-05-10T00:00:00	2024-11-06T05:00:00	3	Temperatura mínima	11.7
123300	7	Sololá	702	San José Chacayá	5	Chacayá	10	Octubre	2023-05-10T00:00:00	2024-11-06T05:00:00	5	Humedad	96
123301	7	Sololá	702	San José Chacayá	5	Chacayá	10	Octubre	2023-05-10T00:00:00	2024-11-06T05:00:00	6	Velocidad del viento	0
123302	7	Sololá	702	San José Chacayá	5	Chacayá	10	Octubre	2023-05-10T00:00:00	2024-11-06T05:00:00	7	Dirección del viento	0
123303	7	Sololá	702	San José Chacayá	5	Chacayá	10	Octubre	2023-05-10T00:00:00	2024-11-06T05:00:00	1	Precipitación	0.2
123304	7	Sololá	702	San José Chacayá	5	Chacayá	10	Octubre	2023-05-10T00:00:00	2024-11-06T05:00:00	8	Radiación solar	0
123305	7	Sololá	702	San José Chacayá	5	Chacayá	10	Octubre	2023-05-10T00:00:00	2024-11-06T06:00:00	2	Temperatura media	11.4
123306	7	Sololá	702	San José Chacayá	5	Chacayá	10	Octubre	2023-05-10T00:00:00	2024-11-06T06:00:00	4	Temperatura máxima	11.7
123307	7	Sololá	702	San José Chacayá	5	Chacayá	10	Octubre	2023-05-10T00:00:00	2024-11-06T06:00:00	3	Temperatura mínima	11.4
123308	7	Sololá	702	San José Chacayá	5	Chacayá	10	Octubre	2023-05-10T00:00:00	2024-11-06T06:00:00	5	Humedad	96
123309	7	Sololá	702	San José Chacayá	5	Chacayá	10	Octubre	2023-05-10T00:00:00	2024-11-06T06:00:00	6	Velocidad del viento	0
123310	7	Sololá	702	San José Chacayá	5	Chacayá	10	Octubre	2023-05-10T00:00:00	2024-11-06T06:00:00	7	Dirección del viento	0
123311	7	Sololá	702	San José Chacayá	5	Chacayá	10	Octubre	2023-05-10T00:00:00	2024-11-06T06:00:00	1	Precipitación	0
123312	7	Sololá	702	San José Chacayá	5	Chacayá	10	Octubre	2023-05-10T00:00:00	2024-11-06T06:00:00	8	Radiación solar	1
123313	7	Sololá	702	San José Chacayá	5	Chacayá	10	Octubre	2023-05-10T00:00:00	2024-11-06T07:00:00	2	Temperatura media	11
123314	7	Sololá	702	San José Chacayá	5	Chacayá	10	Octubre	2023-05-10T00:00:00	2024-11-06T07:00:00	4	Temperatura máxima	11.4
123315	7	Sololá	702	San José Chacayá	5	Chacayá	10	Octubre	2023-05-10T00:00:00	2024-11-06T07:00:00	3	Temperatura mínima	11
123316	7	Sololá	702	San José Chacayá	5	Chacayá	10	Octubre	2023-05-10T00:00:00	2024-11-06T07:00:00	5	Humedad	95
123317	7	Sololá	702	San José Chacayá	5	Chacayá	10	Octubre	2023-05-10T00:00:00	2024-11-06T07:00:00	6	Velocidad del viento	1.6
123318	7	Sololá	702	San José Chacayá	5	Chacayá	10	Octubre	2023-05-10T00:00:00	2024-11-06T07:00:00	7	Dirección del viento	1.61
123319	7	Sololá	702	San José Chacayá	5	Chacayá	10	Octubre	2023-05-10T00:00:00	2024-11-06T07:00:00	1	Precipitación	0
123320	7	Sololá	702	San José Chacayá	5	Chacayá	10	Octubre	2023-05-10T00:00:00	2024-11-06T07:00:00	8	Radiación solar	92
123321	7	Sololá	702	San José Chacayá	5	Chacayá	10	Octubre	2023-05-10T00:00:00	2024-11-06T08:00:00	2	Temperatura media	12.6
123322	7	Sololá	702	San José Chacayá	5	Chacayá	10	Octubre	2023-05-10T00:00:00	2024-11-06T08:00:00	4	Temperatura máxima	12.6
123323	7	Sololá	702	San José Chacayá	5	Chacayá	10	Octubre	2023-05-10T00:00:00	2024-11-06T08:00:00	3	Temperatura mínima	11
123324	7	Sololá	702	San José Chacayá	5	Chacayá	10	Octubre	2023-05-10T00:00:00	2024-11-06T08:00:00	5	Humedad	96
123325	7	Sololá	702	San José Chacayá	5	Chacayá	10	Octubre	2023-05-10T00:00:00	2024-11-06T08:00:00	6	Velocidad del viento	0
123326	7	Sololá	702	San José Chacayá	5	Chacayá	10	Octubre	2023-05-10T00:00:00	2024-11-06T08:00:00	7	Dirección del viento	0
123327	7	Sololá	702	San José Chacayá	5	Chacayá	10	Octubre	2023-05-10T00:00:00	2024-11-06T08:00:00	1	Precipitación	0
123328	7	Sololá	702	San José Chacayá	5	Chacayá	10	Octubre	2023-05-10T00:00:00	2024-11-06T08:00:00	8	Radiación solar	293
123329	7	Sololá	702	San José Chacayá	5	Chacayá	10	Octubre	2023-05-10T00:00:00	2024-11-06T09:00:00	2	Temperatura media	16.6
123330	7	Sololá	702	San José Chacayá	5	Chacayá	10	Octubre	2023-05-10T00:00:00	2024-11-06T09:00:00	4	Temperatura máxima	16.6
123331	7	Sololá	702	San José Chacayá	5	Chacayá	10	Octubre	2023-05-10T00:00:00	2024-11-06T09:00:00	3	Temperatura mínima	12.6
123332	7	Sololá	702	San José Chacayá	5	Chacayá	10	Octubre	2023-05-10T00:00:00	2024-11-06T09:00:00	5	Humedad	85
123333	7	Sololá	702	San José Chacayá	5	Chacayá	10	Octubre	2023-05-10T00:00:00	2024-11-06T09:00:00	6	Velocidad del viento	1.6
123334	7	Sololá	702	San José Chacayá	5	Chacayá	10	Octubre	2023-05-10T00:00:00	2024-11-06T09:00:00	7	Dirección del viento	1.61
123335	7	Sololá	702	San José Chacayá	5	Chacayá	10	Octubre	2023-05-10T00:00:00	2024-11-06T09:00:00	1	Precipitación	0
123336	7	Sololá	702	San José Chacayá	5	Chacayá	10	Octubre	2023-05-10T00:00:00	2024-11-06T09:00:00	8	Radiación solar	556
123337	7	Sololá	702	San José Chacayá	5	Chacayá	10	Octubre	2023-05-10T00:00:00	2024-11-06T10:00:00	2	Temperatura media	21.6
123338	7	Sololá	702	San José Chacayá	5	Chacayá	10	Octubre	2023-05-10T00:00:00	2024-11-06T10:00:00	4	Temperatura máxima	21.6
123339	7	Sololá	702	San José Chacayá	5	Chacayá	10	Octubre	2023-05-10T00:00:00	2024-11-06T10:00:00	3	Temperatura mínima	16.6
123340	7	Sololá	702	San José Chacayá	5	Chacayá	10	Octubre	2023-05-10T00:00:00	2024-11-06T10:00:00	5	Humedad	70
123341	7	Sololá	702	San José Chacayá	5	Chacayá	10	Octubre	2023-05-10T00:00:00	2024-11-06T10:00:00	6	Velocidad del viento	1.6
123342	7	Sololá	702	San José Chacayá	5	Chacayá	10	Octubre	2023-05-10T00:00:00	2024-11-06T10:00:00	7	Dirección del viento	1.61
123343	7	Sololá	702	San José Chacayá	5	Chacayá	10	Octubre	2023-05-10T00:00:00	2024-11-06T10:00:00	1	Precipitación	0
123344	7	Sololá	702	San José Chacayá	5	Chacayá	10	Octubre	2023-05-10T00:00:00	2024-11-06T10:00:00	8	Radiación solar	757
123345	7	Sololá	702	San José Chacayá	5	Chacayá	10	Octubre	2023-05-10T00:00:00	2024-11-06T11:00:00	2	Temperatura media	22.7
123346	7	Sololá	702	San José Chacayá	5	Chacayá	10	Octubre	2023-05-10T00:00:00	2024-11-06T11:00:00	4	Temperatura máxima	23.1
123347	7	Sololá	702	San José Chacayá	5	Chacayá	10	Octubre	2023-05-10T00:00:00	2024-11-06T11:00:00	3	Temperatura mínima	21.6
123348	7	Sololá	702	San José Chacayá	5	Chacayá	10	Octubre	2023-05-10T00:00:00	2024-11-06T11:00:00	5	Humedad	66
123349	7	Sololá	702	San José Chacayá	5	Chacayá	10	Octubre	2023-05-10T00:00:00	2024-11-06T11:00:00	6	Velocidad del viento	3.2
123350	7	Sololá	702	San José Chacayá	5	Chacayá	10	Octubre	2023-05-10T00:00:00	2024-11-06T11:00:00	7	Dirección del viento	3.22
123351	7	Sololá	702	San José Chacayá	5	Chacayá	10	Octubre	2023-05-10T00:00:00	2024-11-06T11:00:00	1	Precipitación	0
123352	7	Sololá	702	San José Chacayá	5	Chacayá	10	Octubre	2023-05-10T00:00:00	2024-11-06T11:00:00	8	Radiación solar	711
123353	7	Sololá	702	San José Chacayá	5	Chacayá	10	Octubre	2023-05-10T00:00:00	2024-11-06T12:00:00	2	Temperatura media	22.8
123354	7	Sololá	702	San José Chacayá	5	Chacayá	10	Octubre	2023-05-10T00:00:00	2024-11-06T12:00:00	4	Temperatura máxima	23.3
123355	7	Sololá	702	San José Chacayá	5	Chacayá	10	Octubre	2023-05-10T00:00:00	2024-11-06T12:00:00	3	Temperatura mínima	22.6
123356	7	Sololá	702	San José Chacayá	5	Chacayá	10	Octubre	2023-05-10T00:00:00	2024-11-06T12:00:00	5	Humedad	65
123357	7	Sololá	702	San José Chacayá	5	Chacayá	10	Octubre	2023-05-10T00:00:00	2024-11-06T12:00:00	6	Velocidad del viento	4.8
123358	7	Sololá	702	San José Chacayá	5	Chacayá	10	Octubre	2023-05-10T00:00:00	2024-11-06T12:00:00	7	Dirección del viento	4.83
123359	7	Sololá	702	San José Chacayá	5	Chacayá	10	Octubre	2023-05-10T00:00:00	2024-11-06T12:00:00	1	Precipitación	0
123360	7	Sololá	702	San José Chacayá	5	Chacayá	10	Octubre	2023-05-10T00:00:00	2024-11-06T12:00:00	8	Radiación solar	1062
123361	7	Sololá	702	San José Chacayá	5	Chacayá	10	Octubre	2023-05-10T00:00:00	2024-11-06T13:00:00	2	Temperatura media	22.2
123362	7	Sololá	702	San José Chacayá	5	Chacayá	10	Octubre	2023-05-10T00:00:00	2024-11-06T13:00:00	4	Temperatura máxima	23.6
123363	7	Sololá	702	San José Chacayá	5	Chacayá	10	Octubre	2023-05-10T00:00:00	2024-11-06T13:00:00	3	Temperatura mínima	22.1
123364	7	Sololá	702	San José Chacayá	5	Chacayá	10	Octubre	2023-05-10T00:00:00	2024-11-06T13:00:00	5	Humedad	71
123365	7	Sololá	702	San José Chacayá	5	Chacayá	10	Octubre	2023-05-10T00:00:00	2024-11-06T13:00:00	6	Velocidad del viento	4.8
123366	7	Sololá	702	San José Chacayá	5	Chacayá	10	Octubre	2023-05-10T00:00:00	2024-11-06T13:00:00	7	Dirección del viento	4.83
123367	7	Sololá	702	San José Chacayá	5	Chacayá	10	Octubre	2023-05-10T00:00:00	2024-11-06T13:00:00	1	Precipitación	0
123368	7	Sololá	702	San José Chacayá	5	Chacayá	10	Octubre	2023-05-10T00:00:00	2024-11-06T13:00:00	8	Radiación solar	649
123369	7	Sololá	702	San José Chacayá	5	Chacayá	10	Octubre	2023-05-10T00:00:00	2024-11-06T14:00:00	2	Temperatura media	21.6
123370	7	Sololá	702	San José Chacayá	5	Chacayá	10	Octubre	2023-05-10T00:00:00	2024-11-06T14:00:00	4	Temperatura máxima	22.6
123371	7	Sololá	702	San José Chacayá	5	Chacayá	10	Octubre	2023-05-10T00:00:00	2024-11-06T14:00:00	3	Temperatura mínima	21.6
123372	7	Sololá	702	San José Chacayá	5	Chacayá	10	Octubre	2023-05-10T00:00:00	2024-11-06T14:00:00	5	Humedad	77
123373	7	Sololá	702	San José Chacayá	5	Chacayá	10	Octubre	2023-05-10T00:00:00	2024-11-06T14:00:00	6	Velocidad del viento	4.8
123374	7	Sololá	702	San José Chacayá	5	Chacayá	10	Octubre	2023-05-10T00:00:00	2024-11-06T14:00:00	7	Dirección del viento	4.83
123375	7	Sololá	702	San José Chacayá	5	Chacayá	10	Octubre	2023-05-10T00:00:00	2024-11-06T14:00:00	1	Precipitación	0
123376	7	Sololá	702	San José Chacayá	5	Chacayá	10	Octubre	2023-05-10T00:00:00	2024-11-06T14:00:00	8	Radiación solar	620
123377	7	Sololá	702	San José Chacayá	5	Chacayá	10	Octubre	2023-05-10T00:00:00	2024-11-06T15:00:00	2	Temperatura media	20.9
123378	7	Sololá	702	San José Chacayá	5	Chacayá	10	Octubre	2023-05-10T00:00:00	2024-11-06T15:00:00	4	Temperatura máxima	21.6
123379	7	Sololá	702	San José Chacayá	5	Chacayá	10	Octubre	2023-05-10T00:00:00	2024-11-06T15:00:00	3	Temperatura mínima	20.3
123380	7	Sololá	702	San José Chacayá	5	Chacayá	10	Octubre	2023-05-10T00:00:00	2024-11-06T15:00:00	5	Humedad	78
123381	7	Sololá	702	San José Chacayá	5	Chacayá	10	Octubre	2023-05-10T00:00:00	2024-11-06T15:00:00	6	Velocidad del viento	3.2
123382	7	Sololá	702	San José Chacayá	5	Chacayá	10	Octubre	2023-05-10T00:00:00	2024-11-06T15:00:00	7	Dirección del viento	3.22
123383	7	Sololá	702	San José Chacayá	5	Chacayá	10	Octubre	2023-05-10T00:00:00	2024-11-06T15:00:00	1	Precipitación	0
123384	7	Sololá	702	San José Chacayá	5	Chacayá	10	Octubre	2023-05-10T00:00:00	2024-11-06T15:00:00	8	Radiación solar	453
123385	7	Sololá	702	San José Chacayá	5	Chacayá	10	Octubre	2023-05-10T00:00:00	2024-11-06T16:00:00	2	Temperatura media	19.8
123386	7	Sololá	702	San José Chacayá	5	Chacayá	10	Octubre	2023-05-10T00:00:00	2024-11-06T16:00:00	4	Temperatura máxima	21
123387	7	Sololá	702	San José Chacayá	5	Chacayá	10	Octubre	2023-05-10T00:00:00	2024-11-06T16:00:00	3	Temperatura mínima	18.9
123388	7	Sololá	702	San José Chacayá	5	Chacayá	10	Octubre	2023-05-10T00:00:00	2024-11-06T16:00:00	5	Humedad	83
123389	7	Sololá	702	San José Chacayá	5	Chacayá	10	Octubre	2023-05-10T00:00:00	2024-11-06T16:00:00	6	Velocidad del viento	3.2
123390	7	Sololá	702	San José Chacayá	5	Chacayá	10	Octubre	2023-05-10T00:00:00	2024-11-06T16:00:00	7	Dirección del viento	3.22
123391	7	Sololá	702	San José Chacayá	5	Chacayá	10	Octubre	2023-05-10T00:00:00	2024-11-06T16:00:00	1	Precipitación	0
123392	7	Sololá	702	San José Chacayá	5	Chacayá	10	Octubre	2023-05-10T00:00:00	2024-11-06T16:00:00	8	Radiación solar	409
123393	7	Sololá	702	San José Chacayá	5	Chacayá	10	Octubre	2023-05-10T00:00:00	2024-11-06T17:00:00	2	Temperatura media	18.4
123394	7	Sololá	702	San José Chacayá	5	Chacayá	10	Octubre	2023-05-10T00:00:00	2024-11-06T17:00:00	4	Temperatura máxima	19.9
123395	7	Sololá	702	San José Chacayá	5	Chacayá	10	Octubre	2023-05-10T00:00:00	2024-11-06T17:00:00	3	Temperatura mínima	18.3
123396	7	Sololá	702	San José Chacayá	5	Chacayá	10	Octubre	2023-05-10T00:00:00	2024-11-06T17:00:00	5	Humedad	85
123397	7	Sololá	702	San José Chacayá	5	Chacayá	10	Octubre	2023-05-10T00:00:00	2024-11-06T17:00:00	6	Velocidad del viento	3.2
123398	7	Sololá	702	San José Chacayá	5	Chacayá	10	Octubre	2023-05-10T00:00:00	2024-11-06T17:00:00	7	Dirección del viento	3.22
123399	7	Sololá	702	San José Chacayá	5	Chacayá	10	Octubre	2023-05-10T00:00:00	2024-11-06T17:00:00	1	Precipitación	0
123400	7	Sololá	702	San José Chacayá	5	Chacayá	10	Octubre	2023-05-10T00:00:00	2024-11-06T17:00:00	8	Radiación solar	107
123401	7	Sololá	702	San José Chacayá	5	Chacayá	10	Octubre	2023-05-10T00:00:00	2024-11-06T18:00:00	2	Temperatura media	17.3
123402	7	Sololá	702	San José Chacayá	5	Chacayá	10	Octubre	2023-05-10T00:00:00	2024-11-06T18:00:00	4	Temperatura máxima	18.4
123403	7	Sololá	702	San José Chacayá	5	Chacayá	10	Octubre	2023-05-10T00:00:00	2024-11-06T18:00:00	3	Temperatura mínima	17.3
123404	7	Sololá	702	San José Chacayá	5	Chacayá	10	Octubre	2023-05-10T00:00:00	2024-11-06T18:00:00	5	Humedad	91
123405	7	Sololá	702	San José Chacayá	5	Chacayá	10	Octubre	2023-05-10T00:00:00	2024-11-06T18:00:00	6	Velocidad del viento	1.6
123406	7	Sololá	702	San José Chacayá	5	Chacayá	10	Octubre	2023-05-10T00:00:00	2024-11-06T18:00:00	7	Dirección del viento	1.61
123407	7	Sololá	702	San José Chacayá	5	Chacayá	10	Octubre	2023-05-10T00:00:00	2024-11-06T18:00:00	1	Precipitación	0
123408	7	Sololá	702	San José Chacayá	5	Chacayá	10	Octubre	2023-05-10T00:00:00	2024-11-06T18:00:00	8	Radiación solar	18
123409	7	Sololá	702	San José Chacayá	5	Chacayá	10	Octubre	2023-05-10T00:00:00	2024-11-06T19:00:00	2	Temperatura media	16.8
123410	7	Sololá	702	San José Chacayá	5	Chacayá	10	Octubre	2023-05-10T00:00:00	2024-11-06T19:00:00	4	Temperatura máxima	17.3
123411	7	Sololá	702	San José Chacayá	5	Chacayá	10	Octubre	2023-05-10T00:00:00	2024-11-06T19:00:00	3	Temperatura mínima	16.8
123412	7	Sololá	702	San José Chacayá	5	Chacayá	10	Octubre	2023-05-10T00:00:00	2024-11-06T19:00:00	5	Humedad	92
123413	7	Sololá	702	San José Chacayá	5	Chacayá	10	Octubre	2023-05-10T00:00:00	2024-11-06T19:00:00	6	Velocidad del viento	1.6
123414	7	Sololá	702	San José Chacayá	5	Chacayá	10	Octubre	2023-05-10T00:00:00	2024-11-06T19:00:00	7	Dirección del viento	1.61
123415	7	Sololá	702	San José Chacayá	5	Chacayá	10	Octubre	2023-05-10T00:00:00	2024-11-06T19:00:00	1	Precipitación	0
123416	7	Sololá	702	San José Chacayá	5	Chacayá	10	Octubre	2023-05-10T00:00:00	2024-11-06T19:00:00	8	Radiación solar	0
123417	7	Sololá	702	San José Chacayá	5	Chacayá	10	Octubre	2023-05-10T00:00:00	2024-11-06T20:00:00	2	Temperatura media	15.6
123418	7	Sololá	702	San José Chacayá	5	Chacayá	10	Octubre	2023-05-10T00:00:00	2024-11-06T20:00:00	4	Temperatura máxima	16.8
123419	7	Sololá	702	San José Chacayá	5	Chacayá	10	Octubre	2023-05-10T00:00:00	2024-11-06T20:00:00	3	Temperatura mínima	15.6
123420	7	Sololá	702	San José Chacayá	5	Chacayá	10	Octubre	2023-05-10T00:00:00	2024-11-06T20:00:00	5	Humedad	94
123421	7	Sololá	702	San José Chacayá	5	Chacayá	10	Octubre	2023-05-10T00:00:00	2024-11-06T20:00:00	6	Velocidad del viento	1.6
123422	7	Sololá	702	San José Chacayá	5	Chacayá	10	Octubre	2023-05-10T00:00:00	2024-11-06T20:00:00	7	Dirección del viento	1.61
123423	7	Sololá	702	San José Chacayá	5	Chacayá	10	Octubre	2023-05-10T00:00:00	2024-11-06T20:00:00	1	Precipitación	0
123424	7	Sololá	702	San José Chacayá	5	Chacayá	10	Octubre	2023-05-10T00:00:00	2024-11-06T20:00:00	8	Radiación solar	0
123425	7	Sololá	702	San José Chacayá	5	Chacayá	10	Octubre	2023-05-10T00:00:00	2024-11-06T21:00:00	2	Temperatura media	15
123426	7	Sololá	702	San José Chacayá	5	Chacayá	10	Octubre	2023-05-10T00:00:00	2024-11-06T21:00:00	4	Temperatura máxima	15.6
123427	7	Sololá	702	San José Chacayá	5	Chacayá	10	Octubre	2023-05-10T00:00:00	2024-11-06T21:00:00	3	Temperatura mínima	15
123428	7	Sololá	702	San José Chacayá	5	Chacayá	10	Octubre	2023-05-10T00:00:00	2024-11-06T21:00:00	5	Humedad	92
123429	7	Sololá	702	San José Chacayá	5	Chacayá	10	Octubre	2023-05-10T00:00:00	2024-11-06T21:00:00	6	Velocidad del viento	1.6
123430	7	Sololá	702	San José Chacayá	5	Chacayá	10	Octubre	2023-05-10T00:00:00	2024-11-06T21:00:00	7	Dirección del viento	1.61
123431	7	Sololá	702	San José Chacayá	5	Chacayá	10	Octubre	2023-05-10T00:00:00	2024-11-06T21:00:00	1	Precipitación	0
123432	7	Sololá	702	San José Chacayá	5	Chacayá	10	Octubre	2023-05-10T00:00:00	2024-11-06T21:00:00	8	Radiación solar	0
123433	7	Sololá	702	San José Chacayá	5	Chacayá	10	Octubre	2023-05-10T00:00:00	2024-11-06T22:00:00	2	Temperatura media	14.4
123434	7	Sololá	702	San José Chacayá	5	Chacayá	10	Octubre	2023-05-10T00:00:00	2024-11-06T22:00:00	4	Temperatura máxima	15.1
123435	7	Sololá	702	San José Chacayá	5	Chacayá	10	Octubre	2023-05-10T00:00:00	2024-11-06T22:00:00	3	Temperatura mínima	14.3
123436	7	Sololá	702	San José Chacayá	5	Chacayá	10	Octubre	2023-05-10T00:00:00	2024-11-06T22:00:00	5	Humedad	92
123437	7	Sololá	702	San José Chacayá	5	Chacayá	10	Octubre	2023-05-10T00:00:00	2024-11-06T22:00:00	6	Velocidad del viento	0
123438	7	Sololá	702	San José Chacayá	5	Chacayá	10	Octubre	2023-05-10T00:00:00	2024-11-06T22:00:00	7	Dirección del viento	0
123439	7	Sololá	702	San José Chacayá	5	Chacayá	10	Octubre	2023-05-10T00:00:00	2024-11-06T22:00:00	1	Precipitación	0
123440	7	Sololá	702	San José Chacayá	5	Chacayá	10	Octubre	2023-05-10T00:00:00	2024-11-06T22:00:00	8	Radiación solar	0
123441	7	Sololá	702	San José Chacayá	5	Chacayá	10	Octubre	2023-05-10T00:00:00	2024-11-06T23:00:00	2	Temperatura media	13.9
123442	7	Sololá	702	San José Chacayá	5	Chacayá	10	Octubre	2023-05-10T00:00:00	2024-11-06T23:00:00	4	Temperatura máxima	14.3
123443	7	Sololá	702	San José Chacayá	5	Chacayá	10	Octubre	2023-05-10T00:00:00	2024-11-06T23:00:00	3	Temperatura mínima	13.9
123444	7	Sololá	702	San José Chacayá	5	Chacayá	10	Octubre	2023-05-10T00:00:00	2024-11-06T23:00:00	5	Humedad	92
123445	7	Sololá	702	San José Chacayá	5	Chacayá	10	Octubre	2023-05-10T00:00:00	2024-11-06T23:00:00	6	Velocidad del viento	0
123446	7	Sololá	702	San José Chacayá	5	Chacayá	10	Octubre	2023-05-10T00:00:00	2024-11-06T23:00:00	7	Dirección del viento	0
123447	7	Sololá	702	San José Chacayá	5	Chacayá	10	Octubre	2023-05-10T00:00:00	2024-11-06T23:00:00	1	Precipitación	0
123448	7	Sololá	702	San José Chacayá	5	Chacayá	10	Octubre	2023-05-10T00:00:00	2024-11-06T23:00:00	8	Radiación solar	0
123449	7	Sololá	702	San José Chacayá	5	Chacayá	10	Octubre	2023-06-10T00:00:00	2024-11-06T00:00:00	2	Temperatura media	13.8
123450	7	Sololá	702	San José Chacayá	5	Chacayá	10	Octubre	2023-06-10T00:00:00	2024-11-06T00:00:00	4	Temperatura máxima	14
123451	7	Sololá	702	San José Chacayá	5	Chacayá	10	Octubre	2023-06-10T00:00:00	2024-11-06T00:00:00	3	Temperatura mínima	13.8
123452	7	Sololá	702	San José Chacayá	5	Chacayá	10	Octubre	2023-06-10T00:00:00	2024-11-06T00:00:00	5	Humedad	93
123453	7	Sololá	702	San José Chacayá	5	Chacayá	10	Octubre	2023-06-10T00:00:00	2024-11-06T00:00:00	6	Velocidad del viento	0
123454	7	Sololá	702	San José Chacayá	5	Chacayá	10	Octubre	2023-06-10T00:00:00	2024-11-06T00:00:00	7	Dirección del viento	0
123455	7	Sololá	702	San José Chacayá	5	Chacayá	10	Octubre	2023-06-10T00:00:00	2024-11-06T00:00:00	1	Precipitación	0
123456	7	Sololá	702	San José Chacayá	5	Chacayá	10	Octubre	2023-06-10T00:00:00	2024-11-06T00:00:00	8	Radiación solar	0
123457	7	Sololá	702	San José Chacayá	5	Chacayá	10	Octubre	2023-06-10T00:00:00	2024-11-06T01:00:00	2	Temperatura media	13.9
123458	7	Sololá	702	San José Chacayá	5	Chacayá	10	Octubre	2023-06-10T00:00:00	2024-11-06T01:00:00	4	Temperatura máxima	13.9
123459	7	Sololá	702	San José Chacayá	5	Chacayá	10	Octubre	2023-06-10T00:00:00	2024-11-06T01:00:00	3	Temperatura mínima	13.7
123460	7	Sololá	702	San José Chacayá	5	Chacayá	10	Octubre	2023-06-10T00:00:00	2024-11-06T01:00:00	5	Humedad	92
123461	7	Sololá	702	San José Chacayá	5	Chacayá	10	Octubre	2023-06-10T00:00:00	2024-11-06T01:00:00	6	Velocidad del viento	0
123462	7	Sololá	702	San José Chacayá	5	Chacayá	10	Octubre	2023-06-10T00:00:00	2024-11-06T01:00:00	7	Dirección del viento	0
123463	7	Sololá	702	San José Chacayá	5	Chacayá	10	Octubre	2023-06-10T00:00:00	2024-11-06T01:00:00	1	Precipitación	0
123464	7	Sololá	702	San José Chacayá	5	Chacayá	10	Octubre	2023-06-10T00:00:00	2024-11-06T01:00:00	8	Radiación solar	0
123465	7	Sololá	702	San José Chacayá	5	Chacayá	10	Octubre	2023-06-10T00:00:00	2024-11-06T02:00:00	2	Temperatura media	13.3
123466	7	Sololá	702	San José Chacayá	5	Chacayá	10	Octubre	2023-06-10T00:00:00	2024-11-06T02:00:00	4	Temperatura máxima	13.9
123467	7	Sololá	702	San José Chacayá	5	Chacayá	10	Octubre	2023-06-10T00:00:00	2024-11-06T02:00:00	3	Temperatura mínima	13.3
123468	7	Sololá	702	San José Chacayá	5	Chacayá	10	Octubre	2023-06-10T00:00:00	2024-11-06T02:00:00	5	Humedad	92
123469	7	Sololá	702	San José Chacayá	5	Chacayá	10	Octubre	2023-06-10T00:00:00	2024-11-06T02:00:00	6	Velocidad del viento	0
123470	7	Sololá	702	San José Chacayá	5	Chacayá	10	Octubre	2023-06-10T00:00:00	2024-11-06T02:00:00	7	Dirección del viento	0
123471	7	Sololá	702	San José Chacayá	5	Chacayá	10	Octubre	2023-06-10T00:00:00	2024-11-06T02:00:00	1	Precipitación	0
123472	7	Sololá	702	San José Chacayá	5	Chacayá	10	Octubre	2023-06-10T00:00:00	2024-11-06T02:00:00	8	Radiación solar	0
123473	7	Sololá	702	San José Chacayá	5	Chacayá	10	Octubre	2023-06-10T00:00:00	2024-11-06T03:00:00	2	Temperatura media	12.3
123474	7	Sololá	702	San José Chacayá	5	Chacayá	10	Octubre	2023-06-10T00:00:00	2024-11-06T03:00:00	4	Temperatura máxima	13.3
123475	7	Sololá	702	San José Chacayá	5	Chacayá	10	Octubre	2023-06-10T00:00:00	2024-11-06T03:00:00	3	Temperatura mínima	12.3
123476	7	Sololá	702	San José Chacayá	5	Chacayá	10	Octubre	2023-06-10T00:00:00	2024-11-06T03:00:00	5	Humedad	93
123477	7	Sololá	702	San José Chacayá	5	Chacayá	10	Octubre	2023-06-10T00:00:00	2024-11-06T03:00:00	6	Velocidad del viento	0
123478	7	Sololá	702	San José Chacayá	5	Chacayá	10	Octubre	2023-06-10T00:00:00	2024-11-06T03:00:00	7	Dirección del viento	0
123479	7	Sololá	702	San José Chacayá	5	Chacayá	10	Octubre	2023-06-10T00:00:00	2024-11-06T03:00:00	1	Precipitación	0
123480	7	Sololá	702	San José Chacayá	5	Chacayá	10	Octubre	2023-06-10T00:00:00	2024-11-06T03:00:00	8	Radiación solar	0
123481	7	Sololá	702	San José Chacayá	5	Chacayá	10	Octubre	2023-06-10T00:00:00	2024-11-06T04:00:00	2	Temperatura media	11.6
123482	7	Sololá	702	San José Chacayá	5	Chacayá	10	Octubre	2023-06-10T00:00:00	2024-11-06T04:00:00	4	Temperatura máxima	12.3
123483	7	Sololá	702	San José Chacayá	5	Chacayá	10	Octubre	2023-06-10T00:00:00	2024-11-06T04:00:00	3	Temperatura mínima	11.6
123484	7	Sololá	702	San José Chacayá	5	Chacayá	10	Octubre	2023-06-10T00:00:00	2024-11-06T04:00:00	5	Humedad	94
123485	7	Sololá	702	San José Chacayá	5	Chacayá	10	Octubre	2023-06-10T00:00:00	2024-11-06T04:00:00	6	Velocidad del viento	0
123486	7	Sololá	702	San José Chacayá	5	Chacayá	10	Octubre	2023-06-10T00:00:00	2024-11-06T04:00:00	7	Dirección del viento	0
123487	7	Sololá	702	San José Chacayá	5	Chacayá	10	Octubre	2023-06-10T00:00:00	2024-11-06T04:00:00	1	Precipitación	0
123488	7	Sololá	702	San José Chacayá	5	Chacayá	10	Octubre	2023-06-10T00:00:00	2024-11-06T04:00:00	8	Radiación solar	0
123489	7	Sololá	702	San José Chacayá	5	Chacayá	10	Octubre	2023-06-10T00:00:00	2024-11-06T05:00:00	2	Temperatura media	11.3
123490	7	Sololá	702	San José Chacayá	5	Chacayá	10	Octubre	2023-06-10T00:00:00	2024-11-06T05:00:00	4	Temperatura máxima	11.7
123491	7	Sololá	702	San José Chacayá	5	Chacayá	10	Octubre	2023-06-10T00:00:00	2024-11-06T05:00:00	3	Temperatura mínima	11.3
123492	7	Sololá	702	San José Chacayá	5	Chacayá	10	Octubre	2023-06-10T00:00:00	2024-11-06T05:00:00	5	Humedad	94
123493	7	Sololá	702	San José Chacayá	5	Chacayá	10	Octubre	2023-06-10T00:00:00	2024-11-06T05:00:00	6	Velocidad del viento	0
123494	7	Sololá	702	San José Chacayá	5	Chacayá	10	Octubre	2023-06-10T00:00:00	2024-11-06T05:00:00	7	Dirección del viento	0
123495	7	Sololá	702	San José Chacayá	5	Chacayá	10	Octubre	2023-06-10T00:00:00	2024-11-06T05:00:00	1	Precipitación	0
123496	7	Sololá	702	San José Chacayá	5	Chacayá	10	Octubre	2023-06-10T00:00:00	2024-11-06T05:00:00	8	Radiación solar	0
123497	7	Sololá	702	San José Chacayá	5	Chacayá	10	Octubre	2023-06-10T00:00:00	2024-11-06T06:00:00	2	Temperatura media	11
123498	7	Sololá	702	San José Chacayá	5	Chacayá	10	Octubre	2023-06-10T00:00:00	2024-11-06T06:00:00	4	Temperatura máxima	11.4
123499	7	Sololá	702	San José Chacayá	5	Chacayá	10	Octubre	2023-06-10T00:00:00	2024-11-06T06:00:00	3	Temperatura mínima	10.9
123500	7	Sololá	702	San José Chacayá	5	Chacayá	10	Octubre	2023-06-10T00:00:00	2024-11-06T06:00:00	5	Humedad	95
123501	7	Sololá	702	San José Chacayá	5	Chacayá	10	Octubre	2023-06-10T00:00:00	2024-11-06T06:00:00	6	Velocidad del viento	0
123502	7	Sololá	702	San José Chacayá	5	Chacayá	10	Octubre	2023-06-10T00:00:00	2024-11-06T06:00:00	7	Dirección del viento	0
123503	7	Sololá	702	San José Chacayá	5	Chacayá	10	Octubre	2023-06-10T00:00:00	2024-11-06T06:00:00	1	Precipitación	0
123504	7	Sololá	702	San José Chacayá	5	Chacayá	10	Octubre	2023-06-10T00:00:00	2024-11-06T06:00:00	8	Radiación solar	0
123505	7	Sololá	702	San José Chacayá	5	Chacayá	10	Octubre	2023-06-10T00:00:00	2024-11-06T07:00:00	2	Temperatura media	10.8
123506	7	Sololá	702	San José Chacayá	5	Chacayá	10	Octubre	2023-06-10T00:00:00	2024-11-06T07:00:00	4	Temperatura máxima	11.2
123507	7	Sololá	702	San José Chacayá	5	Chacayá	10	Octubre	2023-06-10T00:00:00	2024-11-06T07:00:00	3	Temperatura mínima	10.8
123508	7	Sololá	702	San José Chacayá	5	Chacayá	10	Octubre	2023-06-10T00:00:00	2024-11-06T07:00:00	5	Humedad	95
123509	7	Sololá	702	San José Chacayá	5	Chacayá	10	Octubre	2023-06-10T00:00:00	2024-11-06T07:00:00	6	Velocidad del viento	0
123510	7	Sololá	702	San José Chacayá	5	Chacayá	10	Octubre	2023-06-10T00:00:00	2024-11-06T07:00:00	7	Dirección del viento	0
123511	7	Sololá	702	San José Chacayá	5	Chacayá	10	Octubre	2023-06-10T00:00:00	2024-11-06T07:00:00	1	Precipitación	0
123512	7	Sololá	702	San José Chacayá	5	Chacayá	10	Octubre	2023-06-10T00:00:00	2024-11-06T07:00:00	8	Radiación solar	31
123513	7	Sololá	702	San José Chacayá	5	Chacayá	10	Octubre	2023-06-10T00:00:00	2024-11-06T08:00:00	2	Temperatura media	12.6
123514	7	Sololá	702	San José Chacayá	5	Chacayá	10	Octubre	2023-06-10T00:00:00	2024-11-06T08:00:00	4	Temperatura máxima	12.6
123515	7	Sololá	702	San José Chacayá	5	Chacayá	10	Octubre	2023-06-10T00:00:00	2024-11-06T08:00:00	3	Temperatura mínima	10.8
123516	7	Sololá	702	San José Chacayá	5	Chacayá	10	Octubre	2023-06-10T00:00:00	2024-11-06T08:00:00	5	Humedad	97
123517	7	Sololá	702	San José Chacayá	5	Chacayá	10	Octubre	2023-06-10T00:00:00	2024-11-06T08:00:00	6	Velocidad del viento	0
123518	7	Sololá	702	San José Chacayá	5	Chacayá	10	Octubre	2023-06-10T00:00:00	2024-11-06T08:00:00	7	Dirección del viento	0
123519	7	Sololá	702	San José Chacayá	5	Chacayá	10	Octubre	2023-06-10T00:00:00	2024-11-06T08:00:00	1	Precipitación	0
123520	7	Sololá	702	San José Chacayá	5	Chacayá	10	Octubre	2023-06-10T00:00:00	2024-11-06T08:00:00	8	Radiación solar	156
123521	7	Sololá	702	San José Chacayá	5	Chacayá	10	Octubre	2023-06-10T00:00:00	2024-11-06T09:00:00	2	Temperatura media	17.3
123522	7	Sololá	702	San José Chacayá	5	Chacayá	10	Octubre	2023-06-10T00:00:00	2024-11-06T09:00:00	4	Temperatura máxima	17.3
123523	7	Sololá	702	San José Chacayá	5	Chacayá	10	Octubre	2023-06-10T00:00:00	2024-11-06T09:00:00	3	Temperatura mínima	12.6
123524	7	Sololá	702	San José Chacayá	5	Chacayá	10	Octubre	2023-06-10T00:00:00	2024-11-06T09:00:00	5	Humedad	79
123525	7	Sololá	702	San José Chacayá	5	Chacayá	10	Octubre	2023-06-10T00:00:00	2024-11-06T09:00:00	6	Velocidad del viento	0
123526	7	Sololá	702	San José Chacayá	5	Chacayá	10	Octubre	2023-06-10T00:00:00	2024-11-06T09:00:00	7	Dirección del viento	0
123527	7	Sololá	702	San José Chacayá	5	Chacayá	10	Octubre	2023-06-10T00:00:00	2024-11-06T09:00:00	1	Precipitación	0
123528	7	Sololá	702	San José Chacayá	5	Chacayá	10	Octubre	2023-06-10T00:00:00	2024-11-06T09:00:00	8	Radiación solar	285
123529	7	Sololá	702	San José Chacayá	5	Chacayá	10	Octubre	2023-06-10T00:00:00	2024-11-06T10:00:00	2	Temperatura media	21.7
123530	7	Sololá	702	San José Chacayá	5	Chacayá	10	Octubre	2023-06-10T00:00:00	2024-11-06T10:00:00	4	Temperatura máxima	21.8
123531	7	Sololá	702	San José Chacayá	5	Chacayá	10	Octubre	2023-06-10T00:00:00	2024-11-06T10:00:00	3	Temperatura mínima	17.3
123532	7	Sololá	702	San José Chacayá	5	Chacayá	10	Octubre	2023-06-10T00:00:00	2024-11-06T10:00:00	5	Humedad	67
123533	7	Sololá	702	San José Chacayá	5	Chacayá	10	Octubre	2023-06-10T00:00:00	2024-11-06T10:00:00	6	Velocidad del viento	3.2
123534	7	Sololá	702	San José Chacayá	5	Chacayá	10	Octubre	2023-06-10T00:00:00	2024-11-06T10:00:00	7	Dirección del viento	3.22
123535	7	Sololá	702	San José Chacayá	5	Chacayá	10	Octubre	2023-06-10T00:00:00	2024-11-06T10:00:00	1	Precipitación	0
123536	7	Sololá	702	San José Chacayá	5	Chacayá	10	Octubre	2023-06-10T00:00:00	2024-11-06T10:00:00	8	Radiación solar	462
123537	7	Sololá	702	San José Chacayá	5	Chacayá	10	Octubre	2023-06-10T00:00:00	2024-11-06T11:00:00	2	Temperatura media	22.7
123538	7	Sololá	702	San José Chacayá	5	Chacayá	10	Octubre	2023-06-10T00:00:00	2024-11-06T11:00:00	4	Temperatura máxima	22.8
123539	7	Sololá	702	San José Chacayá	5	Chacayá	10	Octubre	2023-06-10T00:00:00	2024-11-06T11:00:00	3	Temperatura mínima	21.7
123540	7	Sololá	702	San José Chacayá	5	Chacayá	10	Octubre	2023-06-10T00:00:00	2024-11-06T11:00:00	5	Humedad	70
123541	7	Sololá	702	San José Chacayá	5	Chacayá	10	Octubre	2023-06-10T00:00:00	2024-11-06T11:00:00	6	Velocidad del viento	4.8
123542	7	Sololá	702	San José Chacayá	5	Chacayá	10	Octubre	2023-06-10T00:00:00	2024-11-06T11:00:00	7	Dirección del viento	4.83
123543	7	Sololá	702	San José Chacayá	5	Chacayá	10	Octubre	2023-06-10T00:00:00	2024-11-06T11:00:00	1	Precipitación	0
123544	7	Sololá	702	San José Chacayá	5	Chacayá	10	Octubre	2023-06-10T00:00:00	2024-11-06T11:00:00	8	Radiación solar	848
123545	7	Sololá	702	San José Chacayá	5	Chacayá	10	Octubre	2023-06-10T00:00:00	2024-11-06T12:00:00	2	Temperatura media	21.6
123546	7	Sololá	702	San José Chacayá	5	Chacayá	10	Octubre	2023-06-10T00:00:00	2024-11-06T12:00:00	4	Temperatura máxima	22.8
123547	7	Sololá	702	San José Chacayá	5	Chacayá	10	Octubre	2023-06-10T00:00:00	2024-11-06T12:00:00	3	Temperatura mínima	20.4
123548	7	Sololá	702	San José Chacayá	5	Chacayá	10	Octubre	2023-06-10T00:00:00	2024-11-06T12:00:00	5	Humedad	72
123549	7	Sololá	702	San José Chacayá	5	Chacayá	10	Octubre	2023-06-10T00:00:00	2024-11-06T12:00:00	6	Velocidad del viento	4.8
123550	7	Sololá	702	San José Chacayá	5	Chacayá	10	Octubre	2023-06-10T00:00:00	2024-11-06T12:00:00	7	Dirección del viento	4.83
123551	7	Sololá	702	San José Chacayá	5	Chacayá	10	Octubre	2023-06-10T00:00:00	2024-11-06T12:00:00	1	Precipitación	0
123552	7	Sololá	702	San José Chacayá	5	Chacayá	10	Octubre	2023-06-10T00:00:00	2024-11-06T12:00:00	8	Radiación solar	753
123553	7	Sololá	702	San José Chacayá	5	Chacayá	10	Octubre	2023-06-10T00:00:00	2024-11-06T13:00:00	2	Temperatura media	23.1
123554	7	Sololá	702	San José Chacayá	5	Chacayá	10	Octubre	2023-06-10T00:00:00	2024-11-06T13:00:00	4	Temperatura máxima	23.3
123555	7	Sololá	702	San José Chacayá	5	Chacayá	10	Octubre	2023-06-10T00:00:00	2024-11-06T13:00:00	3	Temperatura mínima	21.6
123556	7	Sololá	702	San José Chacayá	5	Chacayá	10	Octubre	2023-06-10T00:00:00	2024-11-06T13:00:00	5	Humedad	67
123557	7	Sololá	702	San José Chacayá	5	Chacayá	10	Octubre	2023-06-10T00:00:00	2024-11-06T13:00:00	6	Velocidad del viento	4.8
123558	7	Sololá	702	San José Chacayá	5	Chacayá	10	Octubre	2023-06-10T00:00:00	2024-11-06T13:00:00	7	Dirección del viento	4.83
123559	7	Sololá	702	San José Chacayá	5	Chacayá	10	Octubre	2023-06-10T00:00:00	2024-11-06T13:00:00	1	Precipitación	0
123560	7	Sololá	702	San José Chacayá	5	Chacayá	10	Octubre	2023-06-10T00:00:00	2024-11-06T13:00:00	8	Radiación solar	524
123561	7	Sololá	702	San José Chacayá	5	Chacayá	10	Octubre	2023-06-10T00:00:00	2024-11-06T14:00:00	2	Temperatura media	20.7
123562	7	Sololá	702	San José Chacayá	5	Chacayá	10	Octubre	2023-06-10T00:00:00	2024-11-06T14:00:00	4	Temperatura máxima	23.1
123563	7	Sololá	702	San José Chacayá	5	Chacayá	10	Octubre	2023-06-10T00:00:00	2024-11-06T14:00:00	3	Temperatura mínima	20.7
123564	7	Sololá	702	San José Chacayá	5	Chacayá	10	Octubre	2023-06-10T00:00:00	2024-11-06T14:00:00	5	Humedad	79
123565	7	Sololá	702	San José Chacayá	5	Chacayá	10	Octubre	2023-06-10T00:00:00	2024-11-06T14:00:00	6	Velocidad del viento	4.8
123566	7	Sololá	702	San José Chacayá	5	Chacayá	10	Octubre	2023-06-10T00:00:00	2024-11-06T14:00:00	7	Dirección del viento	4.83
123567	7	Sololá	702	San José Chacayá	5	Chacayá	10	Octubre	2023-06-10T00:00:00	2024-11-06T14:00:00	1	Precipitación	0
123568	7	Sololá	702	San José Chacayá	5	Chacayá	10	Octubre	2023-06-10T00:00:00	2024-11-06T14:00:00	8	Radiación solar	487
123569	7	Sololá	702	San José Chacayá	5	Chacayá	10	Octubre	2023-06-10T00:00:00	2024-11-06T15:00:00	2	Temperatura media	19.8
123570	7	Sololá	702	San José Chacayá	5	Chacayá	10	Octubre	2023-06-10T00:00:00	2024-11-06T15:00:00	4	Temperatura máxima	22.1
123571	7	Sololá	702	San José Chacayá	5	Chacayá	10	Octubre	2023-06-10T00:00:00	2024-11-06T15:00:00	3	Temperatura mínima	19.7
123572	7	Sololá	702	San José Chacayá	5	Chacayá	10	Octubre	2023-06-10T00:00:00	2024-11-06T15:00:00	5	Humedad	83
123573	7	Sololá	702	San José Chacayá	5	Chacayá	10	Octubre	2023-06-10T00:00:00	2024-11-06T15:00:00	6	Velocidad del viento	4.8
123574	7	Sololá	702	San José Chacayá	5	Chacayá	10	Octubre	2023-06-10T00:00:00	2024-11-06T15:00:00	7	Dirección del viento	4.83
123575	7	Sololá	702	San José Chacayá	5	Chacayá	10	Octubre	2023-06-10T00:00:00	2024-11-06T15:00:00	1	Precipitación	0
123576	7	Sololá	702	San José Chacayá	5	Chacayá	10	Octubre	2023-06-10T00:00:00	2024-11-06T15:00:00	8	Radiación solar	348
123577	7	Sololá	702	San José Chacayá	5	Chacayá	10	Octubre	2023-06-10T00:00:00	2024-11-06T16:00:00	2	Temperatura media	20.7
123578	7	Sololá	702	San José Chacayá	5	Chacayá	10	Octubre	2023-06-10T00:00:00	2024-11-06T16:00:00	4	Temperatura máxima	21.4
123579	7	Sololá	702	San José Chacayá	5	Chacayá	10	Octubre	2023-06-10T00:00:00	2024-11-06T16:00:00	3	Temperatura mínima	19.8
123580	7	Sololá	702	San José Chacayá	5	Chacayá	10	Octubre	2023-06-10T00:00:00	2024-11-06T16:00:00	5	Humedad	80
123581	7	Sololá	702	San José Chacayá	5	Chacayá	10	Octubre	2023-06-10T00:00:00	2024-11-06T16:00:00	6	Velocidad del viento	3.2
123582	7	Sololá	702	San José Chacayá	5	Chacayá	10	Octubre	2023-06-10T00:00:00	2024-11-06T16:00:00	7	Dirección del viento	3.22
123583	7	Sololá	702	San José Chacayá	5	Chacayá	10	Octubre	2023-06-10T00:00:00	2024-11-06T16:00:00	1	Precipitación	0
123584	7	Sololá	702	San José Chacayá	5	Chacayá	10	Octubre	2023-06-10T00:00:00	2024-11-06T16:00:00	8	Radiación solar	548
123585	7	Sololá	702	San José Chacayá	5	Chacayá	10	Octubre	2023-06-10T00:00:00	2024-11-06T17:00:00	2	Temperatura media	19.8
123586	7	Sololá	702	San José Chacayá	5	Chacayá	10	Octubre	2023-06-10T00:00:00	2024-11-06T17:00:00	4	Temperatura máxima	20.8
123587	7	Sololá	702	San José Chacayá	5	Chacayá	10	Octubre	2023-06-10T00:00:00	2024-11-06T17:00:00	3	Temperatura mínima	19.8
123588	7	Sololá	702	San José Chacayá	5	Chacayá	10	Octubre	2023-06-10T00:00:00	2024-11-06T17:00:00	5	Humedad	84
123589	7	Sololá	702	San José Chacayá	5	Chacayá	10	Octubre	2023-06-10T00:00:00	2024-11-06T17:00:00	6	Velocidad del viento	3.2
123590	7	Sololá	702	San José Chacayá	5	Chacayá	10	Octubre	2023-06-10T00:00:00	2024-11-06T17:00:00	7	Dirección del viento	3.22
123591	7	Sololá	702	San José Chacayá	5	Chacayá	10	Octubre	2023-06-10T00:00:00	2024-11-06T17:00:00	1	Precipitación	0
123592	7	Sololá	702	San José Chacayá	5	Chacayá	10	Octubre	2023-06-10T00:00:00	2024-11-06T17:00:00	8	Radiación solar	159
123593	7	Sololá	702	San José Chacayá	5	Chacayá	10	Octubre	2023-06-10T00:00:00	2024-11-06T18:00:00	2	Temperatura media	18.5
123594	7	Sololá	702	San José Chacayá	5	Chacayá	10	Octubre	2023-06-10T00:00:00	2024-11-06T18:00:00	4	Temperatura máxima	19.8
123595	7	Sololá	702	San José Chacayá	5	Chacayá	10	Octubre	2023-06-10T00:00:00	2024-11-06T18:00:00	3	Temperatura mínima	18.5
123596	7	Sololá	702	San José Chacayá	5	Chacayá	10	Octubre	2023-06-10T00:00:00	2024-11-06T18:00:00	5	Humedad	89
123597	7	Sololá	702	San José Chacayá	5	Chacayá	10	Octubre	2023-06-10T00:00:00	2024-11-06T18:00:00	6	Velocidad del viento	1.6
123598	7	Sololá	702	San José Chacayá	5	Chacayá	10	Octubre	2023-06-10T00:00:00	2024-11-06T18:00:00	7	Dirección del viento	1.61
123599	7	Sololá	702	San José Chacayá	5	Chacayá	10	Octubre	2023-06-10T00:00:00	2024-11-06T18:00:00	1	Precipitación	0
123600	7	Sololá	702	San José Chacayá	5	Chacayá	10	Octubre	2023-06-10T00:00:00	2024-11-06T18:00:00	8	Radiación solar	26
123601	7	Sololá	702	San José Chacayá	5	Chacayá	10	Octubre	2023-06-10T00:00:00	2024-11-06T19:00:00	2	Temperatura media	17.5
123602	7	Sololá	702	San José Chacayá	5	Chacayá	10	Octubre	2023-06-10T00:00:00	2024-11-06T19:00:00	4	Temperatura máxima	18.5
123603	7	Sololá	702	San José Chacayá	5	Chacayá	10	Octubre	2023-06-10T00:00:00	2024-11-06T19:00:00	3	Temperatura mínima	17.4
123604	7	Sololá	702	San José Chacayá	5	Chacayá	10	Octubre	2023-06-10T00:00:00	2024-11-06T19:00:00	5	Humedad	92
123605	7	Sololá	702	San José Chacayá	5	Chacayá	10	Octubre	2023-06-10T00:00:00	2024-11-06T19:00:00	6	Velocidad del viento	0
123606	7	Sololá	702	San José Chacayá	5	Chacayá	10	Octubre	2023-06-10T00:00:00	2024-11-06T19:00:00	7	Dirección del viento	0
123607	7	Sololá	702	San José Chacayá	5	Chacayá	10	Octubre	2023-06-10T00:00:00	2024-11-06T19:00:00	1	Precipitación	0
123608	7	Sololá	702	San José Chacayá	5	Chacayá	10	Octubre	2023-06-10T00:00:00	2024-11-06T19:00:00	8	Radiación solar	0
123609	7	Sololá	702	San José Chacayá	5	Chacayá	10	Octubre	2023-06-10T00:00:00	2024-11-06T20:00:00	2	Temperatura media	16.7
123610	7	Sololá	702	San José Chacayá	5	Chacayá	10	Octubre	2023-06-10T00:00:00	2024-11-06T20:00:00	4	Temperatura máxima	17.5
123611	7	Sololá	702	San José Chacayá	5	Chacayá	10	Octubre	2023-06-10T00:00:00	2024-11-06T20:00:00	3	Temperatura mínima	16.7
123612	7	Sololá	702	San José Chacayá	5	Chacayá	10	Octubre	2023-06-10T00:00:00	2024-11-06T20:00:00	5	Humedad	93
123613	7	Sololá	702	San José Chacayá	5	Chacayá	10	Octubre	2023-06-10T00:00:00	2024-11-06T20:00:00	6	Velocidad del viento	1.6
123614	7	Sololá	702	San José Chacayá	5	Chacayá	10	Octubre	2023-06-10T00:00:00	2024-11-06T20:00:00	7	Dirección del viento	1.61
123615	7	Sololá	702	San José Chacayá	5	Chacayá	10	Octubre	2023-06-10T00:00:00	2024-11-06T20:00:00	1	Precipitación	1
123616	7	Sololá	702	San José Chacayá	5	Chacayá	10	Octubre	2023-06-10T00:00:00	2024-11-06T20:00:00	8	Radiación solar	0
123617	7	Sololá	702	San José Chacayá	5	Chacayá	10	Octubre	2023-06-10T00:00:00	2024-11-06T21:00:00	2	Temperatura media	15.9
123618	7	Sololá	702	San José Chacayá	5	Chacayá	10	Octubre	2023-06-10T00:00:00	2024-11-06T21:00:00	4	Temperatura máxima	16.8
123619	7	Sololá	702	San José Chacayá	5	Chacayá	10	Octubre	2023-06-10T00:00:00	2024-11-06T21:00:00	3	Temperatura mínima	15.9
123620	7	Sololá	702	San José Chacayá	5	Chacayá	10	Octubre	2023-06-10T00:00:00	2024-11-06T21:00:00	5	Humedad	94
123621	7	Sololá	702	San José Chacayá	5	Chacayá	10	Octubre	2023-06-10T00:00:00	2024-11-06T21:00:00	6	Velocidad del viento	1.6
123622	7	Sololá	702	San José Chacayá	5	Chacayá	10	Octubre	2023-06-10T00:00:00	2024-11-06T21:00:00	7	Dirección del viento	1.61
123623	7	Sololá	702	San José Chacayá	5	Chacayá	10	Octubre	2023-06-10T00:00:00	2024-11-06T21:00:00	1	Precipitación	1.8
123624	7	Sololá	702	San José Chacayá	5	Chacayá	10	Octubre	2023-06-10T00:00:00	2024-11-06T21:00:00	8	Radiación solar	0
123625	7	Sololá	702	San José Chacayá	5	Chacayá	10	Octubre	2023-06-10T00:00:00	2024-11-06T22:00:00	2	Temperatura media	15.7
123626	7	Sololá	702	San José Chacayá	5	Chacayá	10	Octubre	2023-06-10T00:00:00	2024-11-06T22:00:00	4	Temperatura máxima	15.9
123627	7	Sololá	702	San José Chacayá	5	Chacayá	10	Octubre	2023-06-10T00:00:00	2024-11-06T22:00:00	3	Temperatura mínima	15.6
123628	7	Sololá	702	San José Chacayá	5	Chacayá	10	Octubre	2023-06-10T00:00:00	2024-11-06T22:00:00	5	Humedad	95
123629	7	Sololá	702	San José Chacayá	5	Chacayá	10	Octubre	2023-06-10T00:00:00	2024-11-06T22:00:00	6	Velocidad del viento	0
123630	7	Sololá	702	San José Chacayá	5	Chacayá	10	Octubre	2023-06-10T00:00:00	2024-11-06T22:00:00	7	Dirección del viento	0
123631	7	Sololá	702	San José Chacayá	5	Chacayá	10	Octubre	2023-06-10T00:00:00	2024-11-06T22:00:00	1	Precipitación	0.2
123632	7	Sololá	702	San José Chacayá	5	Chacayá	10	Octubre	2023-06-10T00:00:00	2024-11-06T22:00:00	8	Radiación solar	0
123633	7	Sololá	702	San José Chacayá	5	Chacayá	10	Octubre	2023-06-10T00:00:00	2024-11-06T23:00:00	2	Temperatura media	15.3
123634	7	Sololá	702	San José Chacayá	5	Chacayá	10	Octubre	2023-06-10T00:00:00	2024-11-06T23:00:00	4	Temperatura máxima	15.7
123635	7	Sololá	702	San José Chacayá	5	Chacayá	10	Octubre	2023-06-10T00:00:00	2024-11-06T23:00:00	3	Temperatura mínima	15.3
123636	7	Sololá	702	San José Chacayá	5	Chacayá	10	Octubre	2023-06-10T00:00:00	2024-11-06T23:00:00	5	Humedad	95
123637	7	Sololá	702	San José Chacayá	5	Chacayá	10	Octubre	2023-06-10T00:00:00	2024-11-06T23:00:00	6	Velocidad del viento	0
123638	7	Sololá	702	San José Chacayá	5	Chacayá	10	Octubre	2023-06-10T00:00:00	2024-11-06T23:00:00	7	Dirección del viento	0
123639	7	Sololá	702	San José Chacayá	5	Chacayá	10	Octubre	2023-06-10T00:00:00	2024-11-06T23:00:00	1	Precipitación	0
123640	7	Sololá	702	San José Chacayá	5	Chacayá	10	Octubre	2023-06-10T00:00:00	2024-11-06T23:00:00	8	Radiación solar	0
123641	7	Sololá	702	San José Chacayá	5	Chacayá	10	Octubre	2023-07-10T00:00:00	2024-11-06T00:00:00	2	Temperatura media	15.4
123642	7	Sololá	702	San José Chacayá	5	Chacayá	10	Octubre	2023-07-10T00:00:00	2024-11-06T00:00:00	4	Temperatura máxima	15.4
123643	7	Sololá	702	San José Chacayá	5	Chacayá	10	Octubre	2023-07-10T00:00:00	2024-11-06T00:00:00	3	Temperatura mínima	15.3
123644	7	Sololá	702	San José Chacayá	5	Chacayá	10	Octubre	2023-07-10T00:00:00	2024-11-06T00:00:00	5	Humedad	95
123645	7	Sololá	702	San José Chacayá	5	Chacayá	10	Octubre	2023-07-10T00:00:00	2024-11-06T00:00:00	6	Velocidad del viento	0
123646	7	Sololá	702	San José Chacayá	5	Chacayá	10	Octubre	2023-07-10T00:00:00	2024-11-06T00:00:00	7	Dirección del viento	0
123647	7	Sololá	702	San José Chacayá	5	Chacayá	10	Octubre	2023-07-10T00:00:00	2024-11-06T00:00:00	1	Precipitación	0.8
123648	7	Sololá	702	San José Chacayá	5	Chacayá	10	Octubre	2023-07-10T00:00:00	2024-11-06T00:00:00	8	Radiación solar	0
123649	7	Sololá	702	San José Chacayá	5	Chacayá	10	Octubre	2023-07-10T00:00:00	2024-11-06T01:00:00	2	Temperatura media	15.3
123650	7	Sololá	702	San José Chacayá	5	Chacayá	10	Octubre	2023-07-10T00:00:00	2024-11-06T01:00:00	4	Temperatura máxima	15.4
123651	7	Sololá	702	San José Chacayá	5	Chacayá	10	Octubre	2023-07-10T00:00:00	2024-11-06T01:00:00	3	Temperatura mínima	15.3
123652	7	Sololá	702	San José Chacayá	5	Chacayá	10	Octubre	2023-07-10T00:00:00	2024-11-06T01:00:00	5	Humedad	95
123653	7	Sololá	702	San José Chacayá	5	Chacayá	10	Octubre	2023-07-10T00:00:00	2024-11-06T01:00:00	6	Velocidad del viento	0
123654	7	Sololá	702	San José Chacayá	5	Chacayá	10	Octubre	2023-07-10T00:00:00	2024-11-06T01:00:00	7	Dirección del viento	0
123655	7	Sololá	702	San José Chacayá	5	Chacayá	10	Octubre	2023-07-10T00:00:00	2024-11-06T01:00:00	1	Precipitación	0.6
123656	7	Sololá	702	San José Chacayá	5	Chacayá	10	Octubre	2023-07-10T00:00:00	2024-11-06T01:00:00	8	Radiación solar	0
123657	7	Sololá	702	San José Chacayá	5	Chacayá	10	Octubre	2023-07-10T00:00:00	2024-11-06T02:00:00	2	Temperatura media	14.8
123658	7	Sololá	702	San José Chacayá	5	Chacayá	10	Octubre	2023-07-10T00:00:00	2024-11-06T02:00:00	4	Temperatura máxima	15.3
123659	7	Sololá	702	San José Chacayá	5	Chacayá	10	Octubre	2023-07-10T00:00:00	2024-11-06T02:00:00	3	Temperatura mínima	14.8
123660	7	Sololá	702	San José Chacayá	5	Chacayá	10	Octubre	2023-07-10T00:00:00	2024-11-06T02:00:00	5	Humedad	95
123661	7	Sololá	702	San José Chacayá	5	Chacayá	10	Octubre	2023-07-10T00:00:00	2024-11-06T02:00:00	6	Velocidad del viento	0
123662	7	Sololá	702	San José Chacayá	5	Chacayá	10	Octubre	2023-07-10T00:00:00	2024-11-06T02:00:00	7	Dirección del viento	0
123663	7	Sololá	702	San José Chacayá	5	Chacayá	10	Octubre	2023-07-10T00:00:00	2024-11-06T02:00:00	1	Precipitación	0
123664	7	Sololá	702	San José Chacayá	5	Chacayá	10	Octubre	2023-07-10T00:00:00	2024-11-06T02:00:00	8	Radiación solar	0
123665	7	Sololá	702	San José Chacayá	5	Chacayá	10	Octubre	2023-07-10T00:00:00	2024-11-06T03:00:00	2	Temperatura media	14.4
123666	7	Sololá	702	San José Chacayá	5	Chacayá	10	Octubre	2023-07-10T00:00:00	2024-11-06T03:00:00	4	Temperatura máxima	14.8
123667	7	Sololá	702	San José Chacayá	5	Chacayá	10	Octubre	2023-07-10T00:00:00	2024-11-06T03:00:00	3	Temperatura mínima	14.4
123668	7	Sololá	702	San José Chacayá	5	Chacayá	10	Octubre	2023-07-10T00:00:00	2024-11-06T03:00:00	5	Humedad	95
123669	7	Sololá	702	San José Chacayá	5	Chacayá	10	Octubre	2023-07-10T00:00:00	2024-11-06T03:00:00	6	Velocidad del viento	0
123670	7	Sololá	702	San José Chacayá	5	Chacayá	10	Octubre	2023-07-10T00:00:00	2024-11-06T03:00:00	7	Dirección del viento	0
123671	7	Sololá	702	San José Chacayá	5	Chacayá	10	Octubre	2023-07-10T00:00:00	2024-11-06T03:00:00	1	Precipitación	0
123672	7	Sololá	702	San José Chacayá	5	Chacayá	10	Octubre	2023-07-10T00:00:00	2024-11-06T03:00:00	8	Radiación solar	0
123673	7	Sololá	702	San José Chacayá	5	Chacayá	10	Octubre	2023-07-10T00:00:00	2024-11-06T04:00:00	2	Temperatura media	14.1
123674	7	Sololá	702	San José Chacayá	5	Chacayá	10	Octubre	2023-07-10T00:00:00	2024-11-06T04:00:00	4	Temperatura máxima	14.5
123675	7	Sololá	702	San José Chacayá	5	Chacayá	10	Octubre	2023-07-10T00:00:00	2024-11-06T04:00:00	3	Temperatura mínima	14.1
123676	7	Sololá	702	San José Chacayá	5	Chacayá	10	Octubre	2023-07-10T00:00:00	2024-11-06T04:00:00	5	Humedad	95
123677	7	Sololá	702	San José Chacayá	5	Chacayá	10	Octubre	2023-07-10T00:00:00	2024-11-06T04:00:00	6	Velocidad del viento	0
123678	7	Sololá	702	San José Chacayá	5	Chacayá	10	Octubre	2023-07-10T00:00:00	2024-11-06T04:00:00	7	Dirección del viento	0
123679	7	Sololá	702	San José Chacayá	5	Chacayá	10	Octubre	2023-07-10T00:00:00	2024-11-06T04:00:00	1	Precipitación	0
123680	7	Sololá	702	San José Chacayá	5	Chacayá	10	Octubre	2023-07-10T00:00:00	2024-11-06T04:00:00	8	Radiación solar	0
123681	7	Sololá	702	San José Chacayá	5	Chacayá	10	Octubre	2023-07-10T00:00:00	2024-11-06T05:00:00	2	Temperatura media	13.9
123682	7	Sololá	702	San José Chacayá	5	Chacayá	10	Octubre	2023-07-10T00:00:00	2024-11-06T05:00:00	4	Temperatura máxima	14.1
123683	7	Sololá	702	San José Chacayá	5	Chacayá	10	Octubre	2023-07-10T00:00:00	2024-11-06T05:00:00	3	Temperatura mínima	13.8
123684	7	Sololá	702	San José Chacayá	5	Chacayá	10	Octubre	2023-07-10T00:00:00	2024-11-06T05:00:00	5	Humedad	95
123685	7	Sololá	702	San José Chacayá	5	Chacayá	10	Octubre	2023-07-10T00:00:00	2024-11-06T05:00:00	6	Velocidad del viento	0
123686	7	Sololá	702	San José Chacayá	5	Chacayá	10	Octubre	2023-07-10T00:00:00	2024-11-06T05:00:00	7	Dirección del viento	0
123687	7	Sololá	702	San José Chacayá	5	Chacayá	10	Octubre	2023-07-10T00:00:00	2024-11-06T05:00:00	1	Precipitación	0
123688	7	Sololá	702	San José Chacayá	5	Chacayá	10	Octubre	2023-07-10T00:00:00	2024-11-06T05:00:00	8	Radiación solar	0
123689	7	Sololá	702	San José Chacayá	5	Chacayá	10	Octubre	2023-07-10T00:00:00	2024-11-06T06:00:00	2	Temperatura media	13.7
123690	7	Sololá	702	San José Chacayá	5	Chacayá	10	Octubre	2023-07-10T00:00:00	2024-11-06T06:00:00	4	Temperatura máxima	13.9
123691	7	Sololá	702	San José Chacayá	5	Chacayá	10	Octubre	2023-07-10T00:00:00	2024-11-06T06:00:00	3	Temperatura mínima	13.7
123692	7	Sololá	702	San José Chacayá	5	Chacayá	10	Octubre	2023-07-10T00:00:00	2024-11-06T06:00:00	5	Humedad	95
123693	7	Sololá	702	San José Chacayá	5	Chacayá	10	Octubre	2023-07-10T00:00:00	2024-11-06T06:00:00	6	Velocidad del viento	0
123694	7	Sololá	702	San José Chacayá	5	Chacayá	10	Octubre	2023-07-10T00:00:00	2024-11-06T06:00:00	7	Dirección del viento	0
123695	7	Sololá	702	San José Chacayá	5	Chacayá	10	Octubre	2023-07-10T00:00:00	2024-11-06T06:00:00	1	Precipitación	0
123696	7	Sololá	702	San José Chacayá	5	Chacayá	10	Octubre	2023-07-10T00:00:00	2024-11-06T06:00:00	8	Radiación solar	0
123697	7	Sololá	702	San José Chacayá	5	Chacayá	10	Octubre	2023-07-10T00:00:00	2024-11-06T07:00:00	2	Temperatura media	13.6
123698	7	Sololá	702	San José Chacayá	5	Chacayá	10	Octubre	2023-07-10T00:00:00	2024-11-06T07:00:00	4	Temperatura máxima	13.7
123699	7	Sololá	702	San José Chacayá	5	Chacayá	10	Octubre	2023-07-10T00:00:00	2024-11-06T07:00:00	3	Temperatura mínima	13.6
123700	7	Sololá	702	San José Chacayá	5	Chacayá	10	Octubre	2023-07-10T00:00:00	2024-11-06T07:00:00	5	Humedad	96
123701	7	Sololá	702	San José Chacayá	5	Chacayá	10	Octubre	2023-07-10T00:00:00	2024-11-06T07:00:00	6	Velocidad del viento	0
123702	7	Sololá	702	San José Chacayá	5	Chacayá	10	Octubre	2023-07-10T00:00:00	2024-11-06T07:00:00	7	Dirección del viento	0
123703	7	Sololá	702	San José Chacayá	5	Chacayá	10	Octubre	2023-07-10T00:00:00	2024-11-06T07:00:00	1	Precipitación	0
123704	7	Sololá	702	San José Chacayá	5	Chacayá	10	Octubre	2023-07-10T00:00:00	2024-11-06T07:00:00	8	Radiación solar	0
123705	7	Sololá	702	San José Chacayá	5	Chacayá	10	Octubre	2023-07-10T00:00:00	2024-11-06T08:00:00	2	Temperatura media	14.5
123706	7	Sololá	702	San José Chacayá	5	Chacayá	10	Octubre	2023-07-10T00:00:00	2024-11-06T08:00:00	4	Temperatura máxima	14.5
123707	7	Sololá	702	San José Chacayá	5	Chacayá	10	Octubre	2023-07-10T00:00:00	2024-11-06T08:00:00	3	Temperatura mínima	13.6
123708	7	Sololá	702	San José Chacayá	5	Chacayá	10	Octubre	2023-07-10T00:00:00	2024-11-06T08:00:00	5	Humedad	97
123709	7	Sololá	702	San José Chacayá	5	Chacayá	10	Octubre	2023-07-10T00:00:00	2024-11-06T08:00:00	6	Velocidad del viento	0
123710	7	Sololá	702	San José Chacayá	5	Chacayá	10	Octubre	2023-07-10T00:00:00	2024-11-06T08:00:00	7	Dirección del viento	0
123711	7	Sololá	702	San José Chacayá	5	Chacayá	10	Octubre	2023-07-10T00:00:00	2024-11-06T08:00:00	1	Precipitación	0
123712	7	Sololá	702	San José Chacayá	5	Chacayá	10	Octubre	2023-07-10T00:00:00	2024-11-06T08:00:00	8	Radiación solar	145
123713	7	Sololá	702	San José Chacayá	5	Chacayá	10	Octubre	2023-07-10T00:00:00	2024-11-06T09:00:00	2	Temperatura media	15.8
123714	7	Sololá	702	San José Chacayá	5	Chacayá	10	Octubre	2023-07-10T00:00:00	2024-11-06T09:00:00	4	Temperatura máxima	15.8
123715	7	Sololá	702	San José Chacayá	5	Chacayá	10	Octubre	2023-07-10T00:00:00	2024-11-06T09:00:00	3	Temperatura mínima	14.5
123716	7	Sololá	702	San José Chacayá	5	Chacayá	10	Octubre	2023-07-10T00:00:00	2024-11-06T09:00:00	5	Humedad	94
123717	7	Sololá	702	San José Chacayá	5	Chacayá	10	Octubre	2023-07-10T00:00:00	2024-11-06T09:00:00	6	Velocidad del viento	0
123718	7	Sololá	702	San José Chacayá	5	Chacayá	10	Octubre	2023-07-10T00:00:00	2024-11-06T09:00:00	7	Dirección del viento	0
123719	7	Sololá	702	San José Chacayá	5	Chacayá	10	Octubre	2023-07-10T00:00:00	2024-11-06T09:00:00	1	Precipitación	0
123720	7	Sololá	702	San José Chacayá	5	Chacayá	10	Octubre	2023-07-10T00:00:00	2024-11-06T09:00:00	8	Radiación solar	367
123721	7	Sololá	702	San José Chacayá	5	Chacayá	10	Octubre	2023-07-10T00:00:00	2024-11-06T10:00:00	2	Temperatura media	19.3
123722	7	Sololá	702	San José Chacayá	5	Chacayá	10	Octubre	2023-07-10T00:00:00	2024-11-06T10:00:00	4	Temperatura máxima	19.3
123723	7	Sololá	702	San José Chacayá	5	Chacayá	10	Octubre	2023-07-10T00:00:00	2024-11-06T10:00:00	3	Temperatura mínima	15.8
123724	7	Sololá	702	San José Chacayá	5	Chacayá	10	Octubre	2023-07-10T00:00:00	2024-11-06T10:00:00	5	Humedad	84
123725	7	Sololá	702	San José Chacayá	5	Chacayá	10	Octubre	2023-07-10T00:00:00	2024-11-06T10:00:00	6	Velocidad del viento	1.6
123726	7	Sololá	702	San José Chacayá	5	Chacayá	10	Octubre	2023-07-10T00:00:00	2024-11-06T10:00:00	7	Dirección del viento	1.61
123727	7	Sololá	702	San José Chacayá	5	Chacayá	10	Octubre	2023-07-10T00:00:00	2024-11-06T10:00:00	1	Precipitación	0
123728	7	Sololá	702	San José Chacayá	5	Chacayá	10	Octubre	2023-07-10T00:00:00	2024-11-06T10:00:00	8	Radiación solar	775
123729	7	Sololá	702	San José Chacayá	5	Chacayá	10	Octubre	2023-07-10T00:00:00	2024-11-06T11:00:00	2	Temperatura media	22.4
123730	7	Sololá	702	San José Chacayá	5	Chacayá	10	Octubre	2023-07-10T00:00:00	2024-11-06T11:00:00	4	Temperatura máxima	22.4
123731	7	Sololá	702	San José Chacayá	5	Chacayá	10	Octubre	2023-07-10T00:00:00	2024-11-06T11:00:00	3	Temperatura mínima	19.2
123732	7	Sololá	702	San José Chacayá	5	Chacayá	10	Octubre	2023-07-10T00:00:00	2024-11-06T11:00:00	5	Humedad	68
123733	7	Sololá	702	San José Chacayá	5	Chacayá	10	Octubre	2023-07-10T00:00:00	2024-11-06T11:00:00	6	Velocidad del viento	1.6
123734	7	Sololá	702	San José Chacayá	5	Chacayá	10	Octubre	2023-07-10T00:00:00	2024-11-06T11:00:00	7	Dirección del viento	1.61
123735	7	Sololá	702	San José Chacayá	5	Chacayá	10	Octubre	2023-07-10T00:00:00	2024-11-06T11:00:00	1	Precipitación	0
123736	7	Sololá	702	San José Chacayá	5	Chacayá	10	Octubre	2023-07-10T00:00:00	2024-11-06T11:00:00	8	Radiación solar	844
123737	7	Sololá	702	San José Chacayá	5	Chacayá	10	Octubre	2023-07-10T00:00:00	2024-11-06T12:00:00	2	Temperatura media	24.7
123738	7	Sololá	702	San José Chacayá	5	Chacayá	10	Octubre	2023-07-10T00:00:00	2024-11-06T12:00:00	4	Temperatura máxima	24.7
123739	7	Sololá	702	San José Chacayá	5	Chacayá	10	Octubre	2023-07-10T00:00:00	2024-11-06T12:00:00	3	Temperatura mínima	22.4
123740	7	Sololá	702	San José Chacayá	5	Chacayá	10	Octubre	2023-07-10T00:00:00	2024-11-06T12:00:00	5	Humedad	64
123741	7	Sololá	702	San José Chacayá	5	Chacayá	10	Octubre	2023-07-10T00:00:00	2024-11-06T12:00:00	6	Velocidad del viento	3.2
123742	7	Sololá	702	San José Chacayá	5	Chacayá	10	Octubre	2023-07-10T00:00:00	2024-11-06T12:00:00	7	Dirección del viento	3.22
123743	7	Sololá	702	San José Chacayá	5	Chacayá	10	Octubre	2023-07-10T00:00:00	2024-11-06T12:00:00	1	Precipitación	0
123744	7	Sololá	702	San José Chacayá	5	Chacayá	10	Octubre	2023-07-10T00:00:00	2024-11-06T12:00:00	8	Radiación solar	940
123745	7	Sololá	702	San José Chacayá	5	Chacayá	10	Octubre	2023-07-10T00:00:00	2024-11-06T13:00:00	2	Temperatura media	24.6
123746	7	Sololá	702	San José Chacayá	5	Chacayá	10	Octubre	2023-07-10T00:00:00	2024-11-06T13:00:00	4	Temperatura máxima	25.1
123747	7	Sololá	702	San José Chacayá	5	Chacayá	10	Octubre	2023-07-10T00:00:00	2024-11-06T13:00:00	3	Temperatura mínima	24.2
123748	7	Sololá	702	San José Chacayá	5	Chacayá	10	Octubre	2023-07-10T00:00:00	2024-11-06T13:00:00	5	Humedad	62
123749	7	Sololá	702	San José Chacayá	5	Chacayá	10	Octubre	2023-07-10T00:00:00	2024-11-06T13:00:00	6	Velocidad del viento	4.8
123750	7	Sololá	702	San José Chacayá	5	Chacayá	10	Octubre	2023-07-10T00:00:00	2024-11-06T13:00:00	7	Dirección del viento	4.83
123751	7	Sololá	702	San José Chacayá	5	Chacayá	10	Octubre	2023-07-10T00:00:00	2024-11-06T13:00:00	1	Precipitación	0
123752	7	Sololá	702	San José Chacayá	5	Chacayá	10	Octubre	2023-07-10T00:00:00	2024-11-06T13:00:00	8	Radiación solar	1003
123753	7	Sololá	702	San José Chacayá	5	Chacayá	10	Octubre	2023-07-10T00:00:00	2024-11-06T14:00:00	2	Temperatura media	24.3
123754	7	Sololá	702	San José Chacayá	5	Chacayá	10	Octubre	2023-07-10T00:00:00	2024-11-06T14:00:00	4	Temperatura máxima	24.6
123755	7	Sololá	702	San José Chacayá	5	Chacayá	10	Octubre	2023-07-10T00:00:00	2024-11-06T14:00:00	3	Temperatura mínima	23.9
123756	7	Sololá	702	San José Chacayá	5	Chacayá	10	Octubre	2023-07-10T00:00:00	2024-11-06T14:00:00	5	Humedad	68
123757	7	Sololá	702	San José Chacayá	5	Chacayá	10	Octubre	2023-07-10T00:00:00	2024-11-06T14:00:00	6	Velocidad del viento	4.8
123758	7	Sololá	702	San José Chacayá	5	Chacayá	10	Octubre	2023-07-10T00:00:00	2024-11-06T14:00:00	7	Dirección del viento	4.83
123759	7	Sololá	702	San José Chacayá	5	Chacayá	10	Octubre	2023-07-10T00:00:00	2024-11-06T14:00:00	1	Precipitación	0
123760	7	Sololá	702	San José Chacayá	5	Chacayá	10	Octubre	2023-07-10T00:00:00	2024-11-06T14:00:00	8	Radiación solar	425
123761	7	Sololá	702	San José Chacayá	5	Chacayá	10	Octubre	2023-07-10T00:00:00	2024-11-06T15:00:00	2	Temperatura media	23.2
123762	7	Sololá	702	San José Chacayá	5	Chacayá	10	Octubre	2023-07-10T00:00:00	2024-11-06T15:00:00	4	Temperatura máxima	24.3
123763	7	Sololá	702	San José Chacayá	5	Chacayá	10	Octubre	2023-07-10T00:00:00	2024-11-06T15:00:00	3	Temperatura mínima	23.1
123764	7	Sololá	702	San José Chacayá	5	Chacayá	10	Octubre	2023-07-10T00:00:00	2024-11-06T15:00:00	5	Humedad	73
123765	7	Sololá	702	San José Chacayá	5	Chacayá	10	Octubre	2023-07-10T00:00:00	2024-11-06T15:00:00	6	Velocidad del viento	3.2
123766	7	Sololá	702	San José Chacayá	5	Chacayá	10	Octubre	2023-07-10T00:00:00	2024-11-06T15:00:00	7	Dirección del viento	3.22
123767	7	Sololá	702	San José Chacayá	5	Chacayá	10	Octubre	2023-07-10T00:00:00	2024-11-06T15:00:00	1	Precipitación	0
123768	7	Sololá	702	San José Chacayá	5	Chacayá	10	Octubre	2023-07-10T00:00:00	2024-11-06T15:00:00	8	Radiación solar	317
123769	7	Sololá	702	San José Chacayá	5	Chacayá	10	Octubre	2023-07-10T00:00:00	2024-11-06T16:00:00	2	Temperatura media	20.4
123770	7	Sololá	702	San José Chacayá	5	Chacayá	10	Octubre	2023-07-10T00:00:00	2024-11-06T16:00:00	4	Temperatura máxima	23.4
123771	7	Sololá	702	San José Chacayá	5	Chacayá	10	Octubre	2023-07-10T00:00:00	2024-11-06T16:00:00	3	Temperatura mínima	20.4
123772	7	Sololá	702	San José Chacayá	5	Chacayá	10	Octubre	2023-07-10T00:00:00	2024-11-06T16:00:00	5	Humedad	81
123773	7	Sololá	702	San José Chacayá	5	Chacayá	10	Octubre	2023-07-10T00:00:00	2024-11-06T16:00:00	6	Velocidad del viento	4.8
123774	7	Sololá	702	San José Chacayá	5	Chacayá	10	Octubre	2023-07-10T00:00:00	2024-11-06T16:00:00	7	Dirección del viento	4.83
123775	7	Sololá	702	San José Chacayá	5	Chacayá	10	Octubre	2023-07-10T00:00:00	2024-11-06T16:00:00	1	Precipitación	0
123776	7	Sololá	702	San José Chacayá	5	Chacayá	10	Octubre	2023-07-10T00:00:00	2024-11-06T16:00:00	8	Radiación solar	35
123777	7	Sololá	702	San José Chacayá	5	Chacayá	10	Octubre	2023-07-10T00:00:00	2024-11-06T17:00:00	2	Temperatura media	17.4
123778	7	Sololá	702	San José Chacayá	5	Chacayá	10	Octubre	2023-07-10T00:00:00	2024-11-06T17:00:00	4	Temperatura máxima	20.4
123779	7	Sololá	702	San José Chacayá	5	Chacayá	10	Octubre	2023-07-10T00:00:00	2024-11-06T17:00:00	3	Temperatura mínima	17.4
123780	7	Sololá	702	San José Chacayá	5	Chacayá	10	Octubre	2023-07-10T00:00:00	2024-11-06T17:00:00	5	Humedad	92
123781	7	Sololá	702	San José Chacayá	5	Chacayá	10	Octubre	2023-07-10T00:00:00	2024-11-06T17:00:00	6	Velocidad del viento	1.6
123782	7	Sololá	702	San José Chacayá	5	Chacayá	10	Octubre	2023-07-10T00:00:00	2024-11-06T17:00:00	7	Dirección del viento	1.61
123783	7	Sololá	702	San José Chacayá	5	Chacayá	10	Octubre	2023-07-10T00:00:00	2024-11-06T17:00:00	1	Precipitación	8.6
123784	7	Sololá	702	San José Chacayá	5	Chacayá	10	Octubre	2023-07-10T00:00:00	2024-11-06T17:00:00	8	Radiación solar	15
123785	7	Sololá	702	San José Chacayá	5	Chacayá	10	Octubre	2023-07-10T00:00:00	2024-11-06T18:00:00	2	Temperatura media	17
123786	7	Sololá	702	San José Chacayá	5	Chacayá	10	Octubre	2023-07-10T00:00:00	2024-11-06T18:00:00	4	Temperatura máxima	17.5
123787	7	Sololá	702	San José Chacayá	5	Chacayá	10	Octubre	2023-07-10T00:00:00	2024-11-06T18:00:00	3	Temperatura mínima	16.9
123788	7	Sololá	702	San José Chacayá	5	Chacayá	10	Octubre	2023-07-10T00:00:00	2024-11-06T18:00:00	5	Humedad	93
123789	7	Sololá	702	San José Chacayá	5	Chacayá	10	Octubre	2023-07-10T00:00:00	2024-11-06T18:00:00	6	Velocidad del viento	0
123790	7	Sololá	702	San José Chacayá	5	Chacayá	10	Octubre	2023-07-10T00:00:00	2024-11-06T18:00:00	7	Dirección del viento	0
123791	7	Sololá	702	San José Chacayá	5	Chacayá	10	Octubre	2023-07-10T00:00:00	2024-11-06T18:00:00	1	Precipitación	1
123792	7	Sololá	702	San José Chacayá	5	Chacayá	10	Octubre	2023-07-10T00:00:00	2024-11-06T18:00:00	8	Radiación solar	0
123793	7	Sololá	702	San José Chacayá	5	Chacayá	10	Octubre	2023-07-10T00:00:00	2024-11-06T19:00:00	2	Temperatura media	16.7
123794	7	Sololá	702	San José Chacayá	5	Chacayá	10	Octubre	2023-07-10T00:00:00	2024-11-06T19:00:00	4	Temperatura máxima	17
123795	7	Sololá	702	San José Chacayá	5	Chacayá	10	Octubre	2023-07-10T00:00:00	2024-11-06T19:00:00	3	Temperatura mínima	16.6
123796	7	Sololá	702	San José Chacayá	5	Chacayá	10	Octubre	2023-07-10T00:00:00	2024-11-06T19:00:00	5	Humedad	94
123797	7	Sololá	702	San José Chacayá	5	Chacayá	10	Octubre	2023-07-10T00:00:00	2024-11-06T19:00:00	6	Velocidad del viento	0
123798	7	Sololá	702	San José Chacayá	5	Chacayá	10	Octubre	2023-07-10T00:00:00	2024-11-06T19:00:00	7	Dirección del viento	0
123799	7	Sololá	702	San José Chacayá	5	Chacayá	10	Octubre	2023-07-10T00:00:00	2024-11-06T19:00:00	1	Precipitación	0
123800	7	Sololá	702	San José Chacayá	5	Chacayá	10	Octubre	2023-07-10T00:00:00	2024-11-06T19:00:00	8	Radiación solar	0
123801	7	Sololá	702	San José Chacayá	5	Chacayá	10	Octubre	2023-07-10T00:00:00	2024-11-06T20:00:00	2	Temperatura media	16.3
123802	7	Sololá	702	San José Chacayá	5	Chacayá	10	Octubre	2023-07-10T00:00:00	2024-11-06T20:00:00	4	Temperatura máxima	16.7
123803	7	Sololá	702	San José Chacayá	5	Chacayá	10	Octubre	2023-07-10T00:00:00	2024-11-06T20:00:00	3	Temperatura mínima	16.3
123804	7	Sololá	702	San José Chacayá	5	Chacayá	10	Octubre	2023-07-10T00:00:00	2024-11-06T20:00:00	5	Humedad	95
123805	7	Sololá	702	San José Chacayá	5	Chacayá	10	Octubre	2023-07-10T00:00:00	2024-11-06T20:00:00	6	Velocidad del viento	0
123806	7	Sololá	702	San José Chacayá	5	Chacayá	10	Octubre	2023-07-10T00:00:00	2024-11-06T20:00:00	7	Dirección del viento	0
123807	7	Sololá	702	San José Chacayá	5	Chacayá	10	Octubre	2023-07-10T00:00:00	2024-11-06T20:00:00	1	Precipitación	0.2
123808	7	Sololá	702	San José Chacayá	5	Chacayá	10	Octubre	2023-07-10T00:00:00	2024-11-06T20:00:00	8	Radiación solar	0
123809	7	Sololá	702	San José Chacayá	5	Chacayá	10	Octubre	2023-07-10T00:00:00	2024-11-06T21:00:00	2	Temperatura media	15.7
123810	7	Sololá	702	San José Chacayá	5	Chacayá	10	Octubre	2023-07-10T00:00:00	2024-11-06T21:00:00	4	Temperatura máxima	16.3
123811	7	Sololá	702	San José Chacayá	5	Chacayá	10	Octubre	2023-07-10T00:00:00	2024-11-06T21:00:00	3	Temperatura mínima	15.6
123812	7	Sololá	702	San José Chacayá	5	Chacayá	10	Octubre	2023-07-10T00:00:00	2024-11-06T21:00:00	5	Humedad	95
123813	7	Sololá	702	San José Chacayá	5	Chacayá	10	Octubre	2023-07-10T00:00:00	2024-11-06T21:00:00	6	Velocidad del viento	0
123814	7	Sololá	702	San José Chacayá	5	Chacayá	10	Octubre	2023-07-10T00:00:00	2024-11-06T21:00:00	7	Dirección del viento	0
123815	7	Sololá	702	San José Chacayá	5	Chacayá	10	Octubre	2023-07-10T00:00:00	2024-11-06T21:00:00	1	Precipitación	7.4
123816	7	Sololá	702	San José Chacayá	5	Chacayá	10	Octubre	2023-07-10T00:00:00	2024-11-06T21:00:00	8	Radiación solar	0
123817	7	Sololá	702	San José Chacayá	5	Chacayá	10	Octubre	2023-07-10T00:00:00	2024-11-06T22:00:00	2	Temperatura media	15.3
123818	7	Sololá	702	San José Chacayá	5	Chacayá	10	Octubre	2023-07-10T00:00:00	2024-11-06T22:00:00	4	Temperatura máxima	15.7
123819	7	Sololá	702	San José Chacayá	5	Chacayá	10	Octubre	2023-07-10T00:00:00	2024-11-06T22:00:00	3	Temperatura mínima	15.2
123820	7	Sololá	702	San José Chacayá	5	Chacayá	10	Octubre	2023-07-10T00:00:00	2024-11-06T22:00:00	5	Humedad	95
123821	7	Sololá	702	San José Chacayá	5	Chacayá	10	Octubre	2023-07-10T00:00:00	2024-11-06T22:00:00	6	Velocidad del viento	0
123822	7	Sololá	702	San José Chacayá	5	Chacayá	10	Octubre	2023-07-10T00:00:00	2024-11-06T22:00:00	7	Dirección del viento	0
123823	7	Sololá	702	San José Chacayá	5	Chacayá	10	Octubre	2023-07-10T00:00:00	2024-11-06T22:00:00	1	Precipitación	6.4
123824	7	Sololá	702	San José Chacayá	5	Chacayá	10	Octubre	2023-07-10T00:00:00	2024-11-06T22:00:00	8	Radiación solar	0
123825	7	Sololá	702	San José Chacayá	5	Chacayá	10	Octubre	2023-07-10T00:00:00	2024-11-06T23:00:00	2	Temperatura media	14.9
123826	7	Sololá	702	San José Chacayá	5	Chacayá	10	Octubre	2023-07-10T00:00:00	2024-11-06T23:00:00	4	Temperatura máxima	15.3
123827	7	Sololá	702	San José Chacayá	5	Chacayá	10	Octubre	2023-07-10T00:00:00	2024-11-06T23:00:00	3	Temperatura mínima	14.9
123828	7	Sololá	702	San José Chacayá	5	Chacayá	10	Octubre	2023-07-10T00:00:00	2024-11-06T23:00:00	5	Humedad	95
123829	7	Sololá	702	San José Chacayá	5	Chacayá	10	Octubre	2023-07-10T00:00:00	2024-11-06T23:00:00	6	Velocidad del viento	0
123830	7	Sololá	702	San José Chacayá	5	Chacayá	10	Octubre	2023-07-10T00:00:00	2024-11-06T23:00:00	7	Dirección del viento	0
123831	7	Sololá	702	San José Chacayá	5	Chacayá	10	Octubre	2023-07-10T00:00:00	2024-11-06T23:00:00	1	Precipitación	5.4
123832	7	Sololá	702	San José Chacayá	5	Chacayá	10	Octubre	2023-07-10T00:00:00	2024-11-06T23:00:00	8	Radiación solar	0
123833	7	Sololá	702	San José Chacayá	5	Chacayá	10	Octubre	2023-08-10T00:00:00	2024-11-06T00:00:00	2	Temperatura media	14.4
123834	7	Sololá	702	San José Chacayá	5	Chacayá	10	Octubre	2023-08-10T00:00:00	2024-11-06T00:00:00	4	Temperatura máxima	14.9
123835	7	Sololá	702	San José Chacayá	5	Chacayá	10	Octubre	2023-08-10T00:00:00	2024-11-06T00:00:00	3	Temperatura mínima	14.4
123836	7	Sololá	702	San José Chacayá	5	Chacayá	10	Octubre	2023-08-10T00:00:00	2024-11-06T00:00:00	5	Humedad	95
123837	7	Sololá	702	San José Chacayá	5	Chacayá	10	Octubre	2023-08-10T00:00:00	2024-11-06T00:00:00	6	Velocidad del viento	0
123838	7	Sololá	702	San José Chacayá	5	Chacayá	10	Octubre	2023-08-10T00:00:00	2024-11-06T00:00:00	7	Dirección del viento	0
123839	7	Sololá	702	San José Chacayá	5	Chacayá	10	Octubre	2023-08-10T00:00:00	2024-11-06T00:00:00	1	Precipitación	1.2
123840	7	Sololá	702	San José Chacayá	5	Chacayá	10	Octubre	2023-08-10T00:00:00	2024-11-06T00:00:00	8	Radiación solar	0
123841	7	Sololá	702	San José Chacayá	5	Chacayá	10	Octubre	2023-08-10T00:00:00	2024-11-06T01:00:00	2	Temperatura media	13.9
123842	7	Sololá	702	San José Chacayá	5	Chacayá	10	Octubre	2023-08-10T00:00:00	2024-11-06T01:00:00	4	Temperatura máxima	14.4
123843	7	Sololá	702	San José Chacayá	5	Chacayá	10	Octubre	2023-08-10T00:00:00	2024-11-06T01:00:00	3	Temperatura mínima	13.9
123844	7	Sololá	702	San José Chacayá	5	Chacayá	10	Octubre	2023-08-10T00:00:00	2024-11-06T01:00:00	5	Humedad	95
123845	7	Sololá	702	San José Chacayá	5	Chacayá	10	Octubre	2023-08-10T00:00:00	2024-11-06T01:00:00	6	Velocidad del viento	0
123846	7	Sololá	702	San José Chacayá	5	Chacayá	10	Octubre	2023-08-10T00:00:00	2024-11-06T01:00:00	7	Dirección del viento	0
123847	7	Sololá	702	San José Chacayá	5	Chacayá	10	Octubre	2023-08-10T00:00:00	2024-11-06T01:00:00	1	Precipitación	1.6
123848	7	Sololá	702	San José Chacayá	5	Chacayá	10	Octubre	2023-08-10T00:00:00	2024-11-06T01:00:00	8	Radiación solar	0
123849	7	Sololá	702	San José Chacayá	5	Chacayá	10	Octubre	2023-08-10T00:00:00	2024-11-06T02:00:00	2	Temperatura media	13.7
123850	7	Sololá	702	San José Chacayá	5	Chacayá	10	Octubre	2023-08-10T00:00:00	2024-11-06T02:00:00	4	Temperatura máxima	13.9
123851	7	Sololá	702	San José Chacayá	5	Chacayá	10	Octubre	2023-08-10T00:00:00	2024-11-06T02:00:00	3	Temperatura mínima	13.7
123852	7	Sololá	702	San José Chacayá	5	Chacayá	10	Octubre	2023-08-10T00:00:00	2024-11-06T02:00:00	5	Humedad	95
123853	7	Sololá	702	San José Chacayá	5	Chacayá	10	Octubre	2023-08-10T00:00:00	2024-11-06T02:00:00	6	Velocidad del viento	0
123854	7	Sololá	702	San José Chacayá	5	Chacayá	10	Octubre	2023-08-10T00:00:00	2024-11-06T02:00:00	7	Dirección del viento	0
123855	7	Sololá	702	San José Chacayá	5	Chacayá	10	Octubre	2023-08-10T00:00:00	2024-11-06T02:00:00	1	Precipitación	0.6
123856	7	Sololá	702	San José Chacayá	5	Chacayá	10	Octubre	2023-08-10T00:00:00	2024-11-06T02:00:00	8	Radiación solar	0
123857	7	Sololá	702	San José Chacayá	5	Chacayá	10	Octubre	2023-08-10T00:00:00	2024-11-06T03:00:00	2	Temperatura media	13.5
123858	7	Sololá	702	San José Chacayá	5	Chacayá	10	Octubre	2023-08-10T00:00:00	2024-11-06T03:00:00	4	Temperatura máxima	13.7
123859	7	Sololá	702	San José Chacayá	5	Chacayá	10	Octubre	2023-08-10T00:00:00	2024-11-06T03:00:00	3	Temperatura mínima	13.5
123860	7	Sololá	702	San José Chacayá	5	Chacayá	10	Octubre	2023-08-10T00:00:00	2024-11-06T03:00:00	5	Humedad	95
123861	7	Sololá	702	San José Chacayá	5	Chacayá	10	Octubre	2023-08-10T00:00:00	2024-11-06T03:00:00	6	Velocidad del viento	0
123862	7	Sololá	702	San José Chacayá	5	Chacayá	10	Octubre	2023-08-10T00:00:00	2024-11-06T03:00:00	7	Dirección del viento	0
123863	7	Sololá	702	San José Chacayá	5	Chacayá	10	Octubre	2023-08-10T00:00:00	2024-11-06T03:00:00	1	Precipitación	0.2
123864	7	Sololá	702	San José Chacayá	5	Chacayá	10	Octubre	2023-08-10T00:00:00	2024-11-06T03:00:00	8	Radiación solar	0
123865	7	Sololá	702	San José Chacayá	5	Chacayá	10	Octubre	2023-08-10T00:00:00	2024-11-06T04:00:00	2	Temperatura media	13.2
123866	7	Sololá	702	San José Chacayá	5	Chacayá	10	Octubre	2023-08-10T00:00:00	2024-11-06T04:00:00	4	Temperatura máxima	13.5
123867	7	Sololá	702	San José Chacayá	5	Chacayá	10	Octubre	2023-08-10T00:00:00	2024-11-06T04:00:00	3	Temperatura mínima	13.2
123868	7	Sololá	702	San José Chacayá	5	Chacayá	10	Octubre	2023-08-10T00:00:00	2024-11-06T04:00:00	5	Humedad	95
123869	7	Sololá	702	San José Chacayá	5	Chacayá	10	Octubre	2023-08-10T00:00:00	2024-11-06T04:00:00	6	Velocidad del viento	0
123870	7	Sololá	702	San José Chacayá	5	Chacayá	10	Octubre	2023-08-10T00:00:00	2024-11-06T04:00:00	7	Dirección del viento	0
123871	7	Sololá	702	San José Chacayá	5	Chacayá	10	Octubre	2023-08-10T00:00:00	2024-11-06T04:00:00	1	Precipitación	0
123872	7	Sololá	702	San José Chacayá	5	Chacayá	10	Octubre	2023-08-10T00:00:00	2024-11-06T04:00:00	8	Radiación solar	0
123873	7	Sololá	702	San José Chacayá	5	Chacayá	10	Octubre	2023-08-10T00:00:00	2024-11-06T05:00:00	2	Temperatura media	12.7
123874	7	Sololá	702	San José Chacayá	5	Chacayá	10	Octubre	2023-08-10T00:00:00	2024-11-06T05:00:00	4	Temperatura máxima	13.2
123875	7	Sololá	702	San José Chacayá	5	Chacayá	10	Octubre	2023-08-10T00:00:00	2024-11-06T05:00:00	3	Temperatura mínima	12.7
123876	7	Sololá	702	San José Chacayá	5	Chacayá	10	Octubre	2023-08-10T00:00:00	2024-11-06T05:00:00	5	Humedad	95
123877	7	Sololá	702	San José Chacayá	5	Chacayá	10	Octubre	2023-08-10T00:00:00	2024-11-06T05:00:00	6	Velocidad del viento	0
123878	7	Sololá	702	San José Chacayá	5	Chacayá	10	Octubre	2023-08-10T00:00:00	2024-11-06T05:00:00	7	Dirección del viento	0
123879	7	Sololá	702	San José Chacayá	5	Chacayá	10	Octubre	2023-08-10T00:00:00	2024-11-06T05:00:00	1	Precipitación	0
123880	7	Sololá	702	San José Chacayá	5	Chacayá	10	Octubre	2023-08-10T00:00:00	2024-11-06T05:00:00	8	Radiación solar	0
123881	7	Sololá	702	San José Chacayá	5	Chacayá	10	Octubre	2023-08-10T00:00:00	2024-11-06T06:00:00	2	Temperatura media	12.8
123882	7	Sololá	702	San José Chacayá	5	Chacayá	10	Octubre	2023-08-10T00:00:00	2024-11-06T06:00:00	4	Temperatura máxima	12.8
123883	7	Sololá	702	San José Chacayá	5	Chacayá	10	Octubre	2023-08-10T00:00:00	2024-11-06T06:00:00	3	Temperatura mínima	12.6
123884	7	Sololá	702	San José Chacayá	5	Chacayá	10	Octubre	2023-08-10T00:00:00	2024-11-06T06:00:00	5	Humedad	95
123885	7	Sololá	702	San José Chacayá	5	Chacayá	10	Octubre	2023-08-10T00:00:00	2024-11-06T06:00:00	6	Velocidad del viento	0
123886	7	Sololá	702	San José Chacayá	5	Chacayá	10	Octubre	2023-08-10T00:00:00	2024-11-06T06:00:00	7	Dirección del viento	0
123887	7	Sololá	702	San José Chacayá	5	Chacayá	10	Octubre	2023-08-10T00:00:00	2024-11-06T06:00:00	1	Precipitación	0
123888	7	Sololá	702	San José Chacayá	5	Chacayá	10	Octubre	2023-08-10T00:00:00	2024-11-06T06:00:00	8	Radiación solar	0
123889	7	Sololá	702	San José Chacayá	5	Chacayá	10	Octubre	2023-08-10T00:00:00	2024-11-06T07:00:00	2	Temperatura media	13.1
123890	7	Sololá	702	San José Chacayá	5	Chacayá	10	Octubre	2023-08-10T00:00:00	2024-11-06T07:00:00	4	Temperatura máxima	13.1
123891	7	Sololá	702	San José Chacayá	5	Chacayá	10	Octubre	2023-08-10T00:00:00	2024-11-06T07:00:00	3	Temperatura mínima	12.8
123892	7	Sololá	702	San José Chacayá	5	Chacayá	10	Octubre	2023-08-10T00:00:00	2024-11-06T07:00:00	5	Humedad	96
123893	7	Sololá	702	San José Chacayá	5	Chacayá	10	Octubre	2023-08-10T00:00:00	2024-11-06T07:00:00	6	Velocidad del viento	0
123894	7	Sololá	702	San José Chacayá	5	Chacayá	10	Octubre	2023-08-10T00:00:00	2024-11-06T07:00:00	7	Dirección del viento	0
123895	7	Sololá	702	San José Chacayá	5	Chacayá	10	Octubre	2023-08-10T00:00:00	2024-11-06T07:00:00	1	Precipitación	0
123896	7	Sololá	702	San José Chacayá	5	Chacayá	10	Octubre	2023-08-10T00:00:00	2024-11-06T07:00:00	8	Radiación solar	34
123897	7	Sololá	702	San José Chacayá	5	Chacayá	10	Octubre	2023-08-10T00:00:00	2024-11-06T08:00:00	2	Temperatura media	13.5
123898	7	Sololá	702	San José Chacayá	5	Chacayá	10	Octubre	2023-08-10T00:00:00	2024-11-06T08:00:00	4	Temperatura máxima	13.5
123899	7	Sololá	702	San José Chacayá	5	Chacayá	10	Octubre	2023-08-10T00:00:00	2024-11-06T08:00:00	3	Temperatura mínima	13.1
123900	7	Sololá	702	San José Chacayá	5	Chacayá	10	Octubre	2023-08-10T00:00:00	2024-11-06T08:00:00	5	Humedad	97
123901	7	Sololá	702	San José Chacayá	5	Chacayá	10	Octubre	2023-08-10T00:00:00	2024-11-06T08:00:00	6	Velocidad del viento	0
123902	7	Sololá	702	San José Chacayá	5	Chacayá	10	Octubre	2023-08-10T00:00:00	2024-11-06T08:00:00	7	Dirección del viento	0
123903	7	Sololá	702	San José Chacayá	5	Chacayá	10	Octubre	2023-08-10T00:00:00	2024-11-06T08:00:00	1	Precipitación	0
123904	7	Sololá	702	San José Chacayá	5	Chacayá	10	Octubre	2023-08-10T00:00:00	2024-11-06T08:00:00	8	Radiación solar	286
123905	7	Sololá	702	San José Chacayá	5	Chacayá	10	Octubre	2023-08-10T00:00:00	2024-11-06T09:00:00	2	Temperatura media	15.8
123906	7	Sololá	702	San José Chacayá	5	Chacayá	10	Octubre	2023-08-10T00:00:00	2024-11-06T09:00:00	4	Temperatura máxima	15.8
123907	7	Sololá	702	San José Chacayá	5	Chacayá	10	Octubre	2023-08-10T00:00:00	2024-11-06T09:00:00	3	Temperatura mínima	13.5
123908	7	Sololá	702	San José Chacayá	5	Chacayá	10	Octubre	2023-08-10T00:00:00	2024-11-06T09:00:00	5	Humedad	92
123909	7	Sololá	702	San José Chacayá	5	Chacayá	10	Octubre	2023-08-10T00:00:00	2024-11-06T09:00:00	6	Velocidad del viento	0
123910	7	Sololá	702	San José Chacayá	5	Chacayá	10	Octubre	2023-08-10T00:00:00	2024-11-06T09:00:00	7	Dirección del viento	0
123911	7	Sololá	702	San José Chacayá	5	Chacayá	10	Octubre	2023-08-10T00:00:00	2024-11-06T09:00:00	1	Precipitación	0
123912	7	Sololá	702	San José Chacayá	5	Chacayá	10	Octubre	2023-08-10T00:00:00	2024-11-06T09:00:00	8	Radiación solar	310
123913	7	Sololá	702	San José Chacayá	5	Chacayá	10	Octubre	2023-08-10T00:00:00	2024-11-06T10:00:00	2	Temperatura media	18.4
123914	7	Sololá	702	San José Chacayá	5	Chacayá	10	Octubre	2023-08-10T00:00:00	2024-11-06T10:00:00	4	Temperatura máxima	18.4
123915	7	Sololá	702	San José Chacayá	5	Chacayá	10	Octubre	2023-08-10T00:00:00	2024-11-06T10:00:00	3	Temperatura mínima	15.8
123916	7	Sololá	702	San José Chacayá	5	Chacayá	10	Octubre	2023-08-10T00:00:00	2024-11-06T10:00:00	5	Humedad	79
123917	7	Sololá	702	San José Chacayá	5	Chacayá	10	Octubre	2023-08-10T00:00:00	2024-11-06T10:00:00	6	Velocidad del viento	1.6
123918	7	Sololá	702	San José Chacayá	5	Chacayá	10	Octubre	2023-08-10T00:00:00	2024-11-06T10:00:00	7	Dirección del viento	1.61
123919	7	Sololá	702	San José Chacayá	5	Chacayá	10	Octubre	2023-08-10T00:00:00	2024-11-06T10:00:00	1	Precipitación	0
123920	7	Sololá	702	San José Chacayá	5	Chacayá	10	Octubre	2023-08-10T00:00:00	2024-11-06T10:00:00	8	Radiación solar	498
123921	7	Sololá	702	San José Chacayá	5	Chacayá	10	Octubre	2023-08-10T00:00:00	2024-11-06T11:00:00	2	Temperatura media	20.5
123922	7	Sololá	702	San José Chacayá	5	Chacayá	10	Octubre	2023-08-10T00:00:00	2024-11-06T11:00:00	4	Temperatura máxima	20.5
123923	7	Sololá	702	San José Chacayá	5	Chacayá	10	Octubre	2023-08-10T00:00:00	2024-11-06T11:00:00	3	Temperatura mínima	18.4
123924	7	Sololá	702	San José Chacayá	5	Chacayá	10	Octubre	2023-08-10T00:00:00	2024-11-06T11:00:00	5	Humedad	77
123925	7	Sololá	702	San José Chacayá	5	Chacayá	10	Octubre	2023-08-10T00:00:00	2024-11-06T11:00:00	6	Velocidad del viento	1.6
123926	7	Sololá	702	San José Chacayá	5	Chacayá	10	Octubre	2023-08-10T00:00:00	2024-11-06T11:00:00	7	Dirección del viento	1.61
123927	7	Sololá	702	San José Chacayá	5	Chacayá	10	Octubre	2023-08-10T00:00:00	2024-11-06T11:00:00	1	Precipitación	0
123928	7	Sololá	702	San José Chacayá	5	Chacayá	10	Octubre	2023-08-10T00:00:00	2024-11-06T11:00:00	8	Radiación solar	482
123929	7	Sololá	702	San José Chacayá	5	Chacayá	10	Octubre	2023-08-10T00:00:00	2024-11-06T12:00:00	2	Temperatura media	20.7
123930	7	Sololá	702	San José Chacayá	5	Chacayá	10	Octubre	2023-08-10T00:00:00	2024-11-06T12:00:00	4	Temperatura máxima	20.9
123931	7	Sololá	702	San José Chacayá	5	Chacayá	10	Octubre	2023-08-10T00:00:00	2024-11-06T12:00:00	3	Temperatura mínima	20.2
123932	7	Sololá	702	San José Chacayá	5	Chacayá	10	Octubre	2023-08-10T00:00:00	2024-11-06T12:00:00	5	Humedad	75
123933	7	Sololá	702	San José Chacayá	5	Chacayá	10	Octubre	2023-08-10T00:00:00	2024-11-06T12:00:00	6	Velocidad del viento	3.2
123934	7	Sololá	702	San José Chacayá	5	Chacayá	10	Octubre	2023-08-10T00:00:00	2024-11-06T12:00:00	7	Dirección del viento	3.22
123935	7	Sololá	702	San José Chacayá	5	Chacayá	10	Octubre	2023-08-10T00:00:00	2024-11-06T12:00:00	1	Precipitación	0
123936	7	Sololá	702	San José Chacayá	5	Chacayá	10	Octubre	2023-08-10T00:00:00	2024-11-06T12:00:00	8	Radiación solar	722
123937	7	Sololá	702	San José Chacayá	5	Chacayá	10	Octubre	2023-08-10T00:00:00	2024-11-06T13:00:00	2	Temperatura media	22
123938	7	Sololá	702	San José Chacayá	5	Chacayá	10	Octubre	2023-08-10T00:00:00	2024-11-06T13:00:00	4	Temperatura máxima	22
123939	7	Sololá	702	San José Chacayá	5	Chacayá	10	Octubre	2023-08-10T00:00:00	2024-11-06T13:00:00	3	Temperatura mínima	20.4
123940	7	Sololá	702	San José Chacayá	5	Chacayá	10	Octubre	2023-08-10T00:00:00	2024-11-06T13:00:00	5	Humedad	74
123941	7	Sololá	702	San José Chacayá	5	Chacayá	10	Octubre	2023-08-10T00:00:00	2024-11-06T13:00:00	6	Velocidad del viento	3.2
123942	7	Sololá	702	San José Chacayá	5	Chacayá	10	Octubre	2023-08-10T00:00:00	2024-11-06T13:00:00	7	Dirección del viento	3.22
123943	7	Sololá	702	San José Chacayá	5	Chacayá	10	Octubre	2023-08-10T00:00:00	2024-11-06T13:00:00	1	Precipitación	0
123944	7	Sololá	702	San José Chacayá	5	Chacayá	10	Octubre	2023-08-10T00:00:00	2024-11-06T13:00:00	8	Radiación solar	1012
123945	7	Sololá	702	San José Chacayá	5	Chacayá	10	Octubre	2023-08-10T00:00:00	2024-11-06T14:00:00	2	Temperatura media	23.3
123946	7	Sololá	702	San José Chacayá	5	Chacayá	10	Octubre	2023-08-10T00:00:00	2024-11-06T14:00:00	4	Temperatura máxima	23.8
123947	7	Sololá	702	San José Chacayá	5	Chacayá	10	Octubre	2023-08-10T00:00:00	2024-11-06T14:00:00	3	Temperatura mínima	21.7
123948	7	Sololá	702	San José Chacayá	5	Chacayá	10	Octubre	2023-08-10T00:00:00	2024-11-06T14:00:00	5	Humedad	66
123949	7	Sololá	702	San José Chacayá	5	Chacayá	10	Octubre	2023-08-10T00:00:00	2024-11-06T14:00:00	6	Velocidad del viento	4.8
123950	7	Sololá	702	San José Chacayá	5	Chacayá	10	Octubre	2023-08-10T00:00:00	2024-11-06T14:00:00	7	Dirección del viento	4.83
123951	7	Sololá	702	San José Chacayá	5	Chacayá	10	Octubre	2023-08-10T00:00:00	2024-11-06T14:00:00	1	Precipitación	0
123952	7	Sololá	702	San José Chacayá	5	Chacayá	10	Octubre	2023-08-10T00:00:00	2024-11-06T14:00:00	8	Radiación solar	764
123953	7	Sololá	702	San José Chacayá	5	Chacayá	10	Octubre	2023-08-10T00:00:00	2024-11-06T15:00:00	2	Temperatura media	23.9
123954	7	Sololá	702	San José Chacayá	5	Chacayá	10	Octubre	2023-08-10T00:00:00	2024-11-06T15:00:00	4	Temperatura máxima	24.1
123955	7	Sololá	702	San José Chacayá	5	Chacayá	10	Octubre	2023-08-10T00:00:00	2024-11-06T15:00:00	3	Temperatura mínima	23.2
123956	7	Sololá	702	San José Chacayá	5	Chacayá	10	Octubre	2023-08-10T00:00:00	2024-11-06T15:00:00	5	Humedad	66
123957	7	Sololá	702	San José Chacayá	5	Chacayá	10	Octubre	2023-08-10T00:00:00	2024-11-06T15:00:00	6	Velocidad del viento	4.8
123958	7	Sololá	702	San José Chacayá	5	Chacayá	10	Octubre	2023-08-10T00:00:00	2024-11-06T15:00:00	7	Dirección del viento	4.83
123959	7	Sololá	702	San José Chacayá	5	Chacayá	10	Octubre	2023-08-10T00:00:00	2024-11-06T15:00:00	1	Precipitación	0
123960	7	Sololá	702	San José Chacayá	5	Chacayá	10	Octubre	2023-08-10T00:00:00	2024-11-06T15:00:00	8	Radiación solar	616
123961	7	Sololá	702	San José Chacayá	5	Chacayá	10	Octubre	2023-08-10T00:00:00	2024-11-06T16:00:00	2	Temperatura media	23
123962	7	Sololá	702	San José Chacayá	5	Chacayá	10	Octubre	2023-08-10T00:00:00	2024-11-06T16:00:00	4	Temperatura máxima	24.6
123963	7	Sololá	702	San José Chacayá	5	Chacayá	10	Octubre	2023-08-10T00:00:00	2024-11-06T16:00:00	3	Temperatura mínima	22.9
123964	7	Sololá	702	San José Chacayá	5	Chacayá	10	Octubre	2023-08-10T00:00:00	2024-11-06T16:00:00	5	Humedad	68
123965	7	Sololá	702	San José Chacayá	5	Chacayá	10	Octubre	2023-08-10T00:00:00	2024-11-06T16:00:00	6	Velocidad del viento	3.2
123966	7	Sololá	702	San José Chacayá	5	Chacayá	10	Octubre	2023-08-10T00:00:00	2024-11-06T16:00:00	7	Dirección del viento	3.22
123967	7	Sololá	702	San José Chacayá	5	Chacayá	10	Octubre	2023-08-10T00:00:00	2024-11-06T16:00:00	1	Precipitación	0
123968	7	Sololá	702	San José Chacayá	5	Chacayá	10	Octubre	2023-08-10T00:00:00	2024-11-06T16:00:00	8	Radiación solar	203
123969	7	Sololá	702	San José Chacayá	5	Chacayá	10	Octubre	2023-08-10T00:00:00	2024-11-06T17:00:00	2	Temperatura media	19.7
123970	7	Sololá	702	San José Chacayá	5	Chacayá	10	Octubre	2023-08-10T00:00:00	2024-11-06T17:00:00	4	Temperatura máxima	24.1
123971	7	Sololá	702	San José Chacayá	5	Chacayá	10	Octubre	2023-08-10T00:00:00	2024-11-06T17:00:00	3	Temperatura mínima	19.7
123972	7	Sololá	702	San José Chacayá	5	Chacayá	10	Octubre	2023-08-10T00:00:00	2024-11-06T17:00:00	5	Humedad	86
123973	7	Sololá	702	San José Chacayá	5	Chacayá	10	Octubre	2023-08-10T00:00:00	2024-11-06T17:00:00	6	Velocidad del viento	3.2
123974	7	Sololá	702	San José Chacayá	5	Chacayá	10	Octubre	2023-08-10T00:00:00	2024-11-06T17:00:00	7	Dirección del viento	3.22
123975	7	Sololá	702	San José Chacayá	5	Chacayá	10	Octubre	2023-08-10T00:00:00	2024-11-06T17:00:00	1	Precipitación	0
123976	7	Sololá	702	San José Chacayá	5	Chacayá	10	Octubre	2023-08-10T00:00:00	2024-11-06T17:00:00	8	Radiación solar	9
123977	7	Sololá	702	San José Chacayá	5	Chacayá	10	Octubre	2023-08-10T00:00:00	2024-11-06T18:00:00	2	Temperatura media	15.4
123978	7	Sololá	702	San José Chacayá	5	Chacayá	10	Octubre	2023-08-10T00:00:00	2024-11-06T18:00:00	4	Temperatura máxima	19.7
123979	7	Sololá	702	San José Chacayá	5	Chacayá	10	Octubre	2023-08-10T00:00:00	2024-11-06T18:00:00	3	Temperatura mínima	15.4
123980	7	Sololá	702	San José Chacayá	5	Chacayá	10	Octubre	2023-08-10T00:00:00	2024-11-06T18:00:00	5	Humedad	93
123981	7	Sololá	702	San José Chacayá	5	Chacayá	10	Octubre	2023-08-10T00:00:00	2024-11-06T18:00:00	6	Velocidad del viento	3.2
123982	7	Sololá	702	San José Chacayá	5	Chacayá	10	Octubre	2023-08-10T00:00:00	2024-11-06T18:00:00	7	Dirección del viento	3.22
123983	7	Sololá	702	San José Chacayá	5	Chacayá	10	Octubre	2023-08-10T00:00:00	2024-11-06T18:00:00	1	Precipitación	11
123984	7	Sololá	702	San José Chacayá	5	Chacayá	10	Octubre	2023-08-10T00:00:00	2024-11-06T18:00:00	8	Radiación solar	1
123985	7	Sololá	702	San José Chacayá	5	Chacayá	10	Octubre	2023-08-10T00:00:00	2024-11-06T19:00:00	2	Temperatura media	15.5
123986	7	Sololá	702	San José Chacayá	5	Chacayá	10	Octubre	2023-08-10T00:00:00	2024-11-06T19:00:00	4	Temperatura máxima	15.6
123987	7	Sololá	702	San José Chacayá	5	Chacayá	10	Octubre	2023-08-10T00:00:00	2024-11-06T19:00:00	3	Temperatura mínima	15.4
123988	7	Sololá	702	San José Chacayá	5	Chacayá	10	Octubre	2023-08-10T00:00:00	2024-11-06T19:00:00	5	Humedad	94
123989	7	Sololá	702	San José Chacayá	5	Chacayá	10	Octubre	2023-08-10T00:00:00	2024-11-06T19:00:00	6	Velocidad del viento	0
123990	7	Sololá	702	San José Chacayá	5	Chacayá	10	Octubre	2023-08-10T00:00:00	2024-11-06T19:00:00	7	Dirección del viento	0
123991	7	Sololá	702	San José Chacayá	5	Chacayá	10	Octubre	2023-08-10T00:00:00	2024-11-06T19:00:00	1	Precipitación	0.4
123992	7	Sololá	702	San José Chacayá	5	Chacayá	10	Octubre	2023-08-10T00:00:00	2024-11-06T19:00:00	8	Radiación solar	0
123993	7	Sololá	702	San José Chacayá	5	Chacayá	10	Octubre	2023-08-10T00:00:00	2024-11-06T20:00:00	2	Temperatura media	14.8
123994	7	Sololá	702	San José Chacayá	5	Chacayá	10	Octubre	2023-08-10T00:00:00	2024-11-06T20:00:00	4	Temperatura máxima	15.5
123995	7	Sololá	702	San José Chacayá	5	Chacayá	10	Octubre	2023-08-10T00:00:00	2024-11-06T20:00:00	3	Temperatura mínima	14.8
123996	7	Sololá	702	San José Chacayá	5	Chacayá	10	Octubre	2023-08-10T00:00:00	2024-11-06T20:00:00	5	Humedad	95
123997	7	Sololá	702	San José Chacayá	5	Chacayá	10	Octubre	2023-08-10T00:00:00	2024-11-06T20:00:00	6	Velocidad del viento	0
123998	7	Sololá	702	San José Chacayá	5	Chacayá	10	Octubre	2023-08-10T00:00:00	2024-11-06T20:00:00	7	Dirección del viento	0
123999	7	Sololá	702	San José Chacayá	5	Chacayá	10	Octubre	2023-08-10T00:00:00	2024-11-06T20:00:00	1	Precipitación	0
124000	7	Sololá	702	San José Chacayá	5	Chacayá	10	Octubre	2023-08-10T00:00:00	2024-11-06T20:00:00	8	Radiación solar	0
124001	7	Sololá	702	San José Chacayá	5	Chacayá	10	Octubre	2023-08-10T00:00:00	2024-11-06T21:00:00	2	Temperatura media	14.8
124002	7	Sololá	702	San José Chacayá	5	Chacayá	10	Octubre	2023-08-10T00:00:00	2024-11-06T21:00:00	4	Temperatura máxima	14.9
124003	7	Sololá	702	San José Chacayá	5	Chacayá	10	Octubre	2023-08-10T00:00:00	2024-11-06T21:00:00	3	Temperatura mínima	14.7
124004	7	Sololá	702	San José Chacayá	5	Chacayá	10	Octubre	2023-08-10T00:00:00	2024-11-06T21:00:00	5	Humedad	95
124005	7	Sololá	702	San José Chacayá	5	Chacayá	10	Octubre	2023-08-10T00:00:00	2024-11-06T21:00:00	6	Velocidad del viento	0
124006	7	Sololá	702	San José Chacayá	5	Chacayá	10	Octubre	2023-08-10T00:00:00	2024-11-06T21:00:00	7	Dirección del viento	0
124007	7	Sololá	702	San José Chacayá	5	Chacayá	10	Octubre	2023-08-10T00:00:00	2024-11-06T21:00:00	1	Precipitación	0
124008	7	Sololá	702	San José Chacayá	5	Chacayá	10	Octubre	2023-08-10T00:00:00	2024-11-06T21:00:00	8	Radiación solar	0
124009	7	Sololá	702	San José Chacayá	5	Chacayá	10	Octubre	2023-08-10T00:00:00	2024-11-06T22:00:00	2	Temperatura media	14.7
124010	7	Sololá	702	San José Chacayá	5	Chacayá	10	Octubre	2023-08-10T00:00:00	2024-11-06T22:00:00	4	Temperatura máxima	14.9
124011	7	Sololá	702	San José Chacayá	5	Chacayá	10	Octubre	2023-08-10T00:00:00	2024-11-06T22:00:00	3	Temperatura mínima	14.7
124012	7	Sololá	702	San José Chacayá	5	Chacayá	10	Octubre	2023-08-10T00:00:00	2024-11-06T22:00:00	5	Humedad	95
124013	7	Sololá	702	San José Chacayá	5	Chacayá	10	Octubre	2023-08-10T00:00:00	2024-11-06T22:00:00	6	Velocidad del viento	0
124014	7	Sololá	702	San José Chacayá	5	Chacayá	10	Octubre	2023-08-10T00:00:00	2024-11-06T22:00:00	7	Dirección del viento	0
124015	7	Sololá	702	San José Chacayá	5	Chacayá	10	Octubre	2023-08-10T00:00:00	2024-11-06T22:00:00	1	Precipitación	0
124016	7	Sololá	702	San José Chacayá	5	Chacayá	10	Octubre	2023-08-10T00:00:00	2024-11-06T22:00:00	8	Radiación solar	0
124017	7	Sololá	702	San José Chacayá	5	Chacayá	10	Octubre	2023-08-10T00:00:00	2024-11-06T23:00:00	2	Temperatura media	14.9
124018	7	Sololá	702	San José Chacayá	5	Chacayá	10	Octubre	2023-08-10T00:00:00	2024-11-06T23:00:00	4	Temperatura máxima	14.9
124019	7	Sololá	702	San José Chacayá	5	Chacayá	10	Octubre	2023-08-10T00:00:00	2024-11-06T23:00:00	3	Temperatura mínima	14.7
124020	7	Sololá	702	San José Chacayá	5	Chacayá	10	Octubre	2023-08-10T00:00:00	2024-11-06T23:00:00	5	Humedad	96
124021	7	Sololá	702	San José Chacayá	5	Chacayá	10	Octubre	2023-08-10T00:00:00	2024-11-06T23:00:00	6	Velocidad del viento	0
124022	7	Sololá	702	San José Chacayá	5	Chacayá	10	Octubre	2023-08-10T00:00:00	2024-11-06T23:00:00	7	Dirección del viento	0
124023	7	Sololá	702	San José Chacayá	5	Chacayá	10	Octubre	2023-08-10T00:00:00	2024-11-06T23:00:00	1	Precipitación	0.2
124024	7	Sololá	702	San José Chacayá	5	Chacayá	10	Octubre	2023-08-10T00:00:00	2024-11-06T23:00:00	8	Radiación solar	0
124025	7	Sololá	702	San José Chacayá	5	Chacayá	10	Octubre	2023-09-10T00:00:00	2024-11-06T00:00:00	2	Temperatura media	15
124026	7	Sololá	702	San José Chacayá	5	Chacayá	10	Octubre	2023-09-10T00:00:00	2024-11-06T00:00:00	4	Temperatura máxima	15
124027	7	Sololá	702	San José Chacayá	5	Chacayá	10	Octubre	2023-09-10T00:00:00	2024-11-06T00:00:00	3	Temperatura mínima	14.9
124028	7	Sololá	702	San José Chacayá	5	Chacayá	10	Octubre	2023-09-10T00:00:00	2024-11-06T00:00:00	5	Humedad	96
124029	7	Sololá	702	San José Chacayá	5	Chacayá	10	Octubre	2023-09-10T00:00:00	2024-11-06T00:00:00	6	Velocidad del viento	0
124030	7	Sololá	702	San José Chacayá	5	Chacayá	10	Octubre	2023-09-10T00:00:00	2024-11-06T00:00:00	7	Dirección del viento	0
124031	7	Sololá	702	San José Chacayá	5	Chacayá	10	Octubre	2023-09-10T00:00:00	2024-11-06T00:00:00	1	Precipitación	1.4
124032	7	Sololá	702	San José Chacayá	5	Chacayá	10	Octubre	2023-09-10T00:00:00	2024-11-06T00:00:00	8	Radiación solar	0
124033	7	Sololá	702	San José Chacayá	5	Chacayá	10	Octubre	2023-09-10T00:00:00	2024-11-06T01:00:00	2	Temperatura media	15
124034	7	Sololá	702	San José Chacayá	5	Chacayá	10	Octubre	2023-09-10T00:00:00	2024-11-06T01:00:00	4	Temperatura máxima	15.1
124035	7	Sololá	702	San José Chacayá	5	Chacayá	10	Octubre	2023-09-10T00:00:00	2024-11-06T01:00:00	3	Temperatura mínima	14.9
124036	7	Sololá	702	San José Chacayá	5	Chacayá	10	Octubre	2023-09-10T00:00:00	2024-11-06T01:00:00	5	Humedad	96
124037	7	Sololá	702	San José Chacayá	5	Chacayá	10	Octubre	2023-09-10T00:00:00	2024-11-06T01:00:00	6	Velocidad del viento	0
124038	7	Sololá	702	San José Chacayá	5	Chacayá	10	Octubre	2023-09-10T00:00:00	2024-11-06T01:00:00	7	Dirección del viento	0
124039	7	Sololá	702	San José Chacayá	5	Chacayá	10	Octubre	2023-09-10T00:00:00	2024-11-06T01:00:00	1	Precipitación	7.8
124040	7	Sololá	702	San José Chacayá	5	Chacayá	10	Octubre	2023-09-10T00:00:00	2024-11-06T01:00:00	8	Radiación solar	0
124041	7	Sololá	702	San José Chacayá	5	Chacayá	10	Octubre	2023-09-10T00:00:00	2024-11-06T02:00:00	2	Temperatura media	14.5
124042	7	Sololá	702	San José Chacayá	5	Chacayá	10	Octubre	2023-09-10T00:00:00	2024-11-06T02:00:00	4	Temperatura máxima	15
124043	7	Sololá	702	San José Chacayá	5	Chacayá	10	Octubre	2023-09-10T00:00:00	2024-11-06T02:00:00	3	Temperatura mínima	14.5
124044	7	Sololá	702	San José Chacayá	5	Chacayá	10	Octubre	2023-09-10T00:00:00	2024-11-06T02:00:00	5	Humedad	96
124045	7	Sololá	702	San José Chacayá	5	Chacayá	10	Octubre	2023-09-10T00:00:00	2024-11-06T02:00:00	6	Velocidad del viento	0
124046	7	Sololá	702	San José Chacayá	5	Chacayá	10	Octubre	2023-09-10T00:00:00	2024-11-06T02:00:00	7	Dirección del viento	0
124047	7	Sololá	702	San José Chacayá	5	Chacayá	10	Octubre	2023-09-10T00:00:00	2024-11-06T02:00:00	1	Precipitación	1
124048	7	Sololá	702	San José Chacayá	5	Chacayá	10	Octubre	2023-09-10T00:00:00	2024-11-06T02:00:00	8	Radiación solar	0
124049	7	Sololá	702	San José Chacayá	5	Chacayá	10	Octubre	2023-09-10T00:00:00	2024-11-06T03:00:00	2	Temperatura media	14.2
124050	7	Sololá	702	San José Chacayá	5	Chacayá	10	Octubre	2023-09-10T00:00:00	2024-11-06T03:00:00	4	Temperatura máxima	14.6
124051	7	Sololá	702	San José Chacayá	5	Chacayá	10	Octubre	2023-09-10T00:00:00	2024-11-06T03:00:00	3	Temperatura mínima	14.2
124052	7	Sololá	702	San José Chacayá	5	Chacayá	10	Octubre	2023-09-10T00:00:00	2024-11-06T03:00:00	5	Humedad	96
124053	7	Sololá	702	San José Chacayá	5	Chacayá	10	Octubre	2023-09-10T00:00:00	2024-11-06T03:00:00	6	Velocidad del viento	0
124054	7	Sololá	702	San José Chacayá	5	Chacayá	10	Octubre	2023-09-10T00:00:00	2024-11-06T03:00:00	7	Dirección del viento	0
124055	7	Sololá	702	San José Chacayá	5	Chacayá	10	Octubre	2023-09-10T00:00:00	2024-11-06T03:00:00	1	Precipitación	0.2
124056	7	Sololá	702	San José Chacayá	5	Chacayá	10	Octubre	2023-09-10T00:00:00	2024-11-06T03:00:00	8	Radiación solar	0
124057	7	Sololá	702	San José Chacayá	5	Chacayá	10	Octubre	2023-09-10T00:00:00	2024-11-06T04:00:00	2	Temperatura media	13.8
124058	7	Sololá	702	San José Chacayá	5	Chacayá	10	Octubre	2023-09-10T00:00:00	2024-11-06T04:00:00	4	Temperatura máxima	14.2
124059	7	Sololá	702	San José Chacayá	5	Chacayá	10	Octubre	2023-09-10T00:00:00	2024-11-06T04:00:00	3	Temperatura mínima	13.8
124060	7	Sololá	702	San José Chacayá	5	Chacayá	10	Octubre	2023-09-10T00:00:00	2024-11-06T04:00:00	5	Humedad	95
124061	7	Sololá	702	San José Chacayá	5	Chacayá	10	Octubre	2023-09-10T00:00:00	2024-11-06T04:00:00	6	Velocidad del viento	0
124062	7	Sololá	702	San José Chacayá	5	Chacayá	10	Octubre	2023-09-10T00:00:00	2024-11-06T04:00:00	7	Dirección del viento	0
124063	7	Sololá	702	San José Chacayá	5	Chacayá	10	Octubre	2023-09-10T00:00:00	2024-11-06T04:00:00	1	Precipitación	0
124064	7	Sololá	702	San José Chacayá	5	Chacayá	10	Octubre	2023-09-10T00:00:00	2024-11-06T04:00:00	8	Radiación solar	0
124065	7	Sololá	702	San José Chacayá	5	Chacayá	10	Octubre	2023-09-10T00:00:00	2024-11-06T05:00:00	2	Temperatura media	13.1
124066	7	Sololá	702	San José Chacayá	5	Chacayá	10	Octubre	2023-09-10T00:00:00	2024-11-06T05:00:00	4	Temperatura máxima	13.9
124067	7	Sololá	702	San José Chacayá	5	Chacayá	10	Octubre	2023-09-10T00:00:00	2024-11-06T05:00:00	3	Temperatura mínima	13.1
124068	7	Sololá	702	San José Chacayá	5	Chacayá	10	Octubre	2023-09-10T00:00:00	2024-11-06T05:00:00	5	Humedad	95
124069	7	Sololá	702	San José Chacayá	5	Chacayá	10	Octubre	2023-09-10T00:00:00	2024-11-06T05:00:00	6	Velocidad del viento	0
124070	7	Sololá	702	San José Chacayá	5	Chacayá	10	Octubre	2023-09-10T00:00:00	2024-11-06T05:00:00	7	Dirección del viento	0
124071	7	Sololá	702	San José Chacayá	5	Chacayá	10	Octubre	2023-09-10T00:00:00	2024-11-06T05:00:00	1	Precipitación	0
124072	7	Sololá	702	San José Chacayá	5	Chacayá	10	Octubre	2023-09-10T00:00:00	2024-11-06T05:00:00	8	Radiación solar	0
124073	7	Sololá	702	San José Chacayá	5	Chacayá	10	Octubre	2023-09-10T00:00:00	2024-11-06T06:00:00	2	Temperatura media	12.9
124074	7	Sololá	702	San José Chacayá	5	Chacayá	10	Octubre	2023-09-10T00:00:00	2024-11-06T06:00:00	4	Temperatura máxima	13.1
124075	7	Sololá	702	San José Chacayá	5	Chacayá	10	Octubre	2023-09-10T00:00:00	2024-11-06T06:00:00	3	Temperatura mínima	12.7
124076	7	Sololá	702	San José Chacayá	5	Chacayá	10	Octubre	2023-09-10T00:00:00	2024-11-06T06:00:00	5	Humedad	96
124077	7	Sololá	702	San José Chacayá	5	Chacayá	10	Octubre	2023-09-10T00:00:00	2024-11-06T06:00:00	6	Velocidad del viento	0
124078	7	Sololá	702	San José Chacayá	5	Chacayá	10	Octubre	2023-09-10T00:00:00	2024-11-06T06:00:00	7	Dirección del viento	0
124079	7	Sololá	702	San José Chacayá	5	Chacayá	10	Octubre	2023-09-10T00:00:00	2024-11-06T06:00:00	1	Precipitación	0
124080	7	Sololá	702	San José Chacayá	5	Chacayá	10	Octubre	2023-09-10T00:00:00	2024-11-06T06:00:00	8	Radiación solar	0
124081	7	Sololá	702	San José Chacayá	5	Chacayá	10	Octubre	2023-09-10T00:00:00	2024-11-06T07:00:00	2	Temperatura media	13.2
124082	7	Sololá	702	San José Chacayá	5	Chacayá	10	Octubre	2023-09-10T00:00:00	2024-11-06T07:00:00	4	Temperatura máxima	13.2
124083	7	Sololá	702	San José Chacayá	5	Chacayá	10	Octubre	2023-09-10T00:00:00	2024-11-06T07:00:00	3	Temperatura mínima	12.9
124084	7	Sololá	702	San José Chacayá	5	Chacayá	10	Octubre	2023-09-10T00:00:00	2024-11-06T07:00:00	5	Humedad	96
124085	7	Sololá	702	San José Chacayá	5	Chacayá	10	Octubre	2023-09-10T00:00:00	2024-11-06T07:00:00	6	Velocidad del viento	0
124086	7	Sololá	702	San José Chacayá	5	Chacayá	10	Octubre	2023-09-10T00:00:00	2024-11-06T07:00:00	7	Dirección del viento	0
124087	7	Sololá	702	San José Chacayá	5	Chacayá	10	Octubre	2023-09-10T00:00:00	2024-11-06T07:00:00	1	Precipitación	0
124088	7	Sololá	702	San José Chacayá	5	Chacayá	10	Octubre	2023-09-10T00:00:00	2024-11-06T07:00:00	8	Radiación solar	25
124089	7	Sololá	702	San José Chacayá	5	Chacayá	10	Octubre	2023-09-10T00:00:00	2024-11-06T08:00:00	2	Temperatura media	13.5
124090	7	Sololá	702	San José Chacayá	5	Chacayá	10	Octubre	2023-09-10T00:00:00	2024-11-06T08:00:00	4	Temperatura máxima	13.5
124091	7	Sololá	702	San José Chacayá	5	Chacayá	10	Octubre	2023-09-10T00:00:00	2024-11-06T08:00:00	3	Temperatura mínima	13.2
124092	7	Sololá	702	San José Chacayá	5	Chacayá	10	Octubre	2023-09-10T00:00:00	2024-11-06T08:00:00	5	Humedad	97
124093	7	Sololá	702	San José Chacayá	5	Chacayá	10	Octubre	2023-09-10T00:00:00	2024-11-06T08:00:00	6	Velocidad del viento	0
124094	7	Sololá	702	San José Chacayá	5	Chacayá	10	Octubre	2023-09-10T00:00:00	2024-11-06T08:00:00	7	Dirección del viento	0
124095	7	Sololá	702	San José Chacayá	5	Chacayá	10	Octubre	2023-09-10T00:00:00	2024-11-06T08:00:00	1	Precipitación	0
124096	7	Sololá	702	San José Chacayá	5	Chacayá	10	Octubre	2023-09-10T00:00:00	2024-11-06T08:00:00	8	Radiación solar	89
124097	7	Sololá	702	San José Chacayá	5	Chacayá	10	Octubre	2023-09-10T00:00:00	2024-11-06T09:00:00	2	Temperatura media	14.6
124098	7	Sololá	702	San José Chacayá	5	Chacayá	10	Octubre	2023-09-10T00:00:00	2024-11-06T09:00:00	4	Temperatura máxima	14.7
124099	7	Sololá	702	San José Chacayá	5	Chacayá	10	Octubre	2023-09-10T00:00:00	2024-11-06T09:00:00	3	Temperatura mínima	13.5
124100	7	Sololá	702	San José Chacayá	5	Chacayá	10	Octubre	2023-09-10T00:00:00	2024-11-06T09:00:00	5	Humedad	97
124101	7	Sololá	702	San José Chacayá	5	Chacayá	10	Octubre	2023-09-10T00:00:00	2024-11-06T09:00:00	6	Velocidad del viento	0
124102	7	Sololá	702	San José Chacayá	5	Chacayá	10	Octubre	2023-09-10T00:00:00	2024-11-06T09:00:00	7	Dirección del viento	0
124103	7	Sololá	702	San José Chacayá	5	Chacayá	10	Octubre	2023-09-10T00:00:00	2024-11-06T09:00:00	1	Precipitación	0
124104	7	Sololá	702	San José Chacayá	5	Chacayá	10	Octubre	2023-09-10T00:00:00	2024-11-06T09:00:00	8	Radiación solar	478
124105	7	Sololá	702	San José Chacayá	5	Chacayá	10	Octubre	2023-09-10T00:00:00	2024-11-06T10:00:00	2	Temperatura media	17.9
124106	7	Sololá	702	San José Chacayá	5	Chacayá	10	Octubre	2023-09-10T00:00:00	2024-11-06T10:00:00	4	Temperatura máxima	17.9
124107	7	Sololá	702	San José Chacayá	5	Chacayá	10	Octubre	2023-09-10T00:00:00	2024-11-06T10:00:00	3	Temperatura mínima	14.6
124108	7	Sololá	702	San José Chacayá	5	Chacayá	10	Octubre	2023-09-10T00:00:00	2024-11-06T10:00:00	5	Humedad	83
124109	7	Sololá	702	San José Chacayá	5	Chacayá	10	Octubre	2023-09-10T00:00:00	2024-11-06T10:00:00	6	Velocidad del viento	0
124110	7	Sololá	702	San José Chacayá	5	Chacayá	10	Octubre	2023-09-10T00:00:00	2024-11-06T10:00:00	7	Dirección del viento	0
124111	7	Sololá	702	San José Chacayá	5	Chacayá	10	Octubre	2023-09-10T00:00:00	2024-11-06T10:00:00	1	Precipitación	0
124112	7	Sololá	702	San José Chacayá	5	Chacayá	10	Octubre	2023-09-10T00:00:00	2024-11-06T10:00:00	8	Radiación solar	462
124113	7	Sololá	702	San José Chacayá	5	Chacayá	10	Octubre	2023-09-10T00:00:00	2024-11-06T11:00:00	2	Temperatura media	19.9
124114	7	Sololá	702	San José Chacayá	5	Chacayá	10	Octubre	2023-09-10T00:00:00	2024-11-06T11:00:00	4	Temperatura máxima	19.9
124115	7	Sololá	702	San José Chacayá	5	Chacayá	10	Octubre	2023-09-10T00:00:00	2024-11-06T11:00:00	3	Temperatura mínima	17.9
124116	7	Sololá	702	San José Chacayá	5	Chacayá	10	Octubre	2023-09-10T00:00:00	2024-11-06T11:00:00	5	Humedad	76
124117	7	Sololá	702	San José Chacayá	5	Chacayá	10	Octubre	2023-09-10T00:00:00	2024-11-06T11:00:00	6	Velocidad del viento	1.6
124118	7	Sololá	702	San José Chacayá	5	Chacayá	10	Octubre	2023-09-10T00:00:00	2024-11-06T11:00:00	7	Dirección del viento	1.61
124119	7	Sololá	702	San José Chacayá	5	Chacayá	10	Octubre	2023-09-10T00:00:00	2024-11-06T11:00:00	1	Precipitación	0
124120	7	Sololá	702	San José Chacayá	5	Chacayá	10	Octubre	2023-09-10T00:00:00	2024-11-06T11:00:00	8	Radiación solar	620
124121	7	Sololá	702	San José Chacayá	5	Chacayá	10	Octubre	2023-09-10T00:00:00	2024-11-06T12:00:00	2	Temperatura media	23.3
124122	7	Sololá	702	San José Chacayá	5	Chacayá	10	Octubre	2023-09-10T00:00:00	2024-11-06T12:00:00	4	Temperatura máxima	23.3
124123	7	Sololá	702	San José Chacayá	5	Chacayá	10	Octubre	2023-09-10T00:00:00	2024-11-06T12:00:00	3	Temperatura mínima	19.9
124124	7	Sololá	702	San José Chacayá	5	Chacayá	10	Octubre	2023-09-10T00:00:00	2024-11-06T12:00:00	5	Humedad	64
124125	7	Sololá	702	San José Chacayá	5	Chacayá	10	Octubre	2023-09-10T00:00:00	2024-11-06T12:00:00	6	Velocidad del viento	1.6
124126	7	Sololá	702	San José Chacayá	5	Chacayá	10	Octubre	2023-09-10T00:00:00	2024-11-06T12:00:00	7	Dirección del viento	1.61
124127	7	Sololá	702	San José Chacayá	5	Chacayá	10	Octubre	2023-09-10T00:00:00	2024-11-06T12:00:00	1	Precipitación	0
124128	7	Sololá	702	San José Chacayá	5	Chacayá	10	Octubre	2023-09-10T00:00:00	2024-11-06T12:00:00	8	Radiación solar	971
124129	7	Sololá	702	San José Chacayá	5	Chacayá	10	Octubre	2023-09-10T00:00:00	2024-11-06T13:00:00	2	Temperatura media	23
124130	7	Sololá	702	San José Chacayá	5	Chacayá	10	Octubre	2023-09-10T00:00:00	2024-11-06T13:00:00	4	Temperatura máxima	24.6
124131	7	Sololá	702	San José Chacayá	5	Chacayá	10	Octubre	2023-09-10T00:00:00	2024-11-06T13:00:00	3	Temperatura mínima	23
124132	7	Sololá	702	San José Chacayá	5	Chacayá	10	Octubre	2023-09-10T00:00:00	2024-11-06T13:00:00	5	Humedad	70
124133	7	Sololá	702	San José Chacayá	5	Chacayá	10	Octubre	2023-09-10T00:00:00	2024-11-06T13:00:00	6	Velocidad del viento	4.8
124134	7	Sololá	702	San José Chacayá	5	Chacayá	10	Octubre	2023-09-10T00:00:00	2024-11-06T13:00:00	7	Dirección del viento	4.83
124135	7	Sololá	702	San José Chacayá	5	Chacayá	10	Octubre	2023-09-10T00:00:00	2024-11-06T13:00:00	1	Precipitación	0
124136	7	Sololá	702	San José Chacayá	5	Chacayá	10	Octubre	2023-09-10T00:00:00	2024-11-06T13:00:00	8	Radiación solar	345
124137	7	Sololá	702	San José Chacayá	5	Chacayá	10	Octubre	2023-09-10T00:00:00	2024-11-06T14:00:00	2	Temperatura media	20.1
124138	7	Sololá	702	San José Chacayá	5	Chacayá	10	Octubre	2023-09-10T00:00:00	2024-11-06T14:00:00	4	Temperatura máxima	23
124139	7	Sololá	702	San José Chacayá	5	Chacayá	10	Octubre	2023-09-10T00:00:00	2024-11-06T14:00:00	3	Temperatura mínima	20.1
124140	7	Sololá	702	San José Chacayá	5	Chacayá	10	Octubre	2023-09-10T00:00:00	2024-11-06T14:00:00	5	Humedad	80
124141	7	Sololá	702	San José Chacayá	5	Chacayá	10	Octubre	2023-09-10T00:00:00	2024-11-06T14:00:00	6	Velocidad del viento	4.8
124142	7	Sololá	702	San José Chacayá	5	Chacayá	10	Octubre	2023-09-10T00:00:00	2024-11-06T14:00:00	7	Dirección del viento	4.83
124143	7	Sololá	702	San José Chacayá	5	Chacayá	10	Octubre	2023-09-10T00:00:00	2024-11-06T14:00:00	1	Precipitación	0
124144	7	Sololá	702	San José Chacayá	5	Chacayá	10	Octubre	2023-09-10T00:00:00	2024-11-06T14:00:00	8	Radiación solar	8
124145	7	Sololá	702	San José Chacayá	5	Chacayá	10	Octubre	2023-09-10T00:00:00	2024-11-06T15:00:00	2	Temperatura media	16.8
124146	7	Sololá	702	San José Chacayá	5	Chacayá	10	Octubre	2023-09-10T00:00:00	2024-11-06T15:00:00	4	Temperatura máxima	20.1
124147	7	Sololá	702	San José Chacayá	5	Chacayá	10	Octubre	2023-09-10T00:00:00	2024-11-06T15:00:00	3	Temperatura mínima	16.8
124148	7	Sololá	702	San José Chacayá	5	Chacayá	10	Octubre	2023-09-10T00:00:00	2024-11-06T15:00:00	5	Humedad	93
124149	7	Sololá	702	San José Chacayá	5	Chacayá	10	Octubre	2023-09-10T00:00:00	2024-11-06T15:00:00	6	Velocidad del viento	3.2
124150	7	Sololá	702	San José Chacayá	5	Chacayá	10	Octubre	2023-09-10T00:00:00	2024-11-06T15:00:00	7	Dirección del viento	3.22
124151	7	Sololá	702	San José Chacayá	5	Chacayá	10	Octubre	2023-09-10T00:00:00	2024-11-06T15:00:00	1	Precipitación	3.6
124152	7	Sololá	702	San José Chacayá	5	Chacayá	10	Octubre	2023-09-10T00:00:00	2024-11-06T15:00:00	8	Radiación solar	14
124153	7	Sololá	702	San José Chacayá	5	Chacayá	10	Octubre	2023-09-10T00:00:00	2024-11-06T16:00:00	2	Temperatura media	16.2
124154	7	Sololá	702	San José Chacayá	5	Chacayá	10	Octubre	2023-09-10T00:00:00	2024-11-06T16:00:00	4	Temperatura máxima	16.8
124155	7	Sololá	702	San José Chacayá	5	Chacayá	10	Octubre	2023-09-10T00:00:00	2024-11-06T16:00:00	3	Temperatura mínima	16.2
124156	7	Sololá	702	San José Chacayá	5	Chacayá	10	Octubre	2023-09-10T00:00:00	2024-11-06T16:00:00	5	Humedad	95
124157	7	Sololá	702	San José Chacayá	5	Chacayá	10	Octubre	2023-09-10T00:00:00	2024-11-06T16:00:00	6	Velocidad del viento	1.6
124158	7	Sololá	702	San José Chacayá	5	Chacayá	10	Octubre	2023-09-10T00:00:00	2024-11-06T16:00:00	7	Dirección del viento	1.61
124159	7	Sololá	702	San José Chacayá	5	Chacayá	10	Octubre	2023-09-10T00:00:00	2024-11-06T16:00:00	1	Precipitación	1.8
124160	7	Sololá	702	San José Chacayá	5	Chacayá	10	Octubre	2023-09-10T00:00:00	2024-11-06T16:00:00	8	Radiación solar	15
124161	7	Sololá	702	San José Chacayá	5	Chacayá	10	Octubre	2023-09-10T00:00:00	2024-11-06T17:00:00	2	Temperatura media	15.7
124162	7	Sololá	702	San José Chacayá	5	Chacayá	10	Octubre	2023-09-10T00:00:00	2024-11-06T17:00:00	4	Temperatura máxima	16.3
124163	7	Sololá	702	San José Chacayá	5	Chacayá	10	Octubre	2023-09-10T00:00:00	2024-11-06T17:00:00	3	Temperatura mínima	15.6
124164	7	Sololá	702	San José Chacayá	5	Chacayá	10	Octubre	2023-09-10T00:00:00	2024-11-06T17:00:00	5	Humedad	95
124165	7	Sololá	702	San José Chacayá	5	Chacayá	10	Octubre	2023-09-10T00:00:00	2024-11-06T17:00:00	6	Velocidad del viento	3.2
124166	7	Sololá	702	San José Chacayá	5	Chacayá	10	Octubre	2023-09-10T00:00:00	2024-11-06T17:00:00	7	Dirección del viento	3.22
124167	7	Sololá	702	San José Chacayá	5	Chacayá	10	Octubre	2023-09-10T00:00:00	2024-11-06T17:00:00	1	Precipitación	0.6
124168	7	Sololá	702	San José Chacayá	5	Chacayá	10	Octubre	2023-09-10T00:00:00	2024-11-06T17:00:00	8	Radiación solar	31
124169	7	Sololá	702	San José Chacayá	5	Chacayá	10	Octubre	2023-09-10T00:00:00	2024-11-06T18:00:00	2	Temperatura media	15.8
124170	7	Sololá	702	San José Chacayá	5	Chacayá	10	Octubre	2023-09-10T00:00:00	2024-11-06T18:00:00	4	Temperatura máxima	15.9
124171	7	Sololá	702	San José Chacayá	5	Chacayá	10	Octubre	2023-09-10T00:00:00	2024-11-06T18:00:00	3	Temperatura mínima	15.7
124172	7	Sololá	702	San José Chacayá	5	Chacayá	10	Octubre	2023-09-10T00:00:00	2024-11-06T18:00:00	5	Humedad	95
124173	7	Sololá	702	San José Chacayá	5	Chacayá	10	Octubre	2023-09-10T00:00:00	2024-11-06T18:00:00	6	Velocidad del viento	0
124174	7	Sololá	702	San José Chacayá	5	Chacayá	10	Octubre	2023-09-10T00:00:00	2024-11-06T18:00:00	7	Dirección del viento	0
124175	7	Sololá	702	San José Chacayá	5	Chacayá	10	Octubre	2023-09-10T00:00:00	2024-11-06T18:00:00	1	Precipitación	0.8
124176	7	Sololá	702	San José Chacayá	5	Chacayá	10	Octubre	2023-09-10T00:00:00	2024-11-06T18:00:00	8	Radiación solar	0
124177	7	Sololá	702	San José Chacayá	5	Chacayá	10	Octubre	2023-09-10T00:00:00	2024-11-06T19:00:00	2	Temperatura media	15.6
124178	7	Sololá	702	San José Chacayá	5	Chacayá	10	Octubre	2023-09-10T00:00:00	2024-11-06T19:00:00	4	Temperatura máxima	15.8
124179	7	Sololá	702	San José Chacayá	5	Chacayá	10	Octubre	2023-09-10T00:00:00	2024-11-06T19:00:00	3	Temperatura mínima	15.6
124180	7	Sololá	702	San José Chacayá	5	Chacayá	10	Octubre	2023-09-10T00:00:00	2024-11-06T19:00:00	5	Humedad	95
124181	7	Sololá	702	San José Chacayá	5	Chacayá	10	Octubre	2023-09-10T00:00:00	2024-11-06T19:00:00	6	Velocidad del viento	0
124182	7	Sololá	702	San José Chacayá	5	Chacayá	10	Octubre	2023-09-10T00:00:00	2024-11-06T19:00:00	7	Dirección del viento	0
124183	7	Sololá	702	San José Chacayá	5	Chacayá	10	Octubre	2023-09-10T00:00:00	2024-11-06T19:00:00	1	Precipitación	1.4
124184	7	Sololá	702	San José Chacayá	5	Chacayá	10	Octubre	2023-09-10T00:00:00	2024-11-06T19:00:00	8	Radiación solar	0
124185	7	Sololá	702	San José Chacayá	5	Chacayá	10	Octubre	2023-09-10T00:00:00	2024-11-06T20:00:00	2	Temperatura media	15.6
124186	7	Sololá	702	San José Chacayá	5	Chacayá	10	Octubre	2023-09-10T00:00:00	2024-11-06T20:00:00	4	Temperatura máxima	15.7
124187	7	Sololá	702	San José Chacayá	5	Chacayá	10	Octubre	2023-09-10T00:00:00	2024-11-06T20:00:00	3	Temperatura mínima	15.5
124188	7	Sololá	702	San José Chacayá	5	Chacayá	10	Octubre	2023-09-10T00:00:00	2024-11-06T20:00:00	5	Humedad	96
124189	7	Sololá	702	San José Chacayá	5	Chacayá	10	Octubre	2023-09-10T00:00:00	2024-11-06T20:00:00	6	Velocidad del viento	0
124190	7	Sololá	702	San José Chacayá	5	Chacayá	10	Octubre	2023-09-10T00:00:00	2024-11-06T20:00:00	7	Dirección del viento	0
124191	7	Sololá	702	San José Chacayá	5	Chacayá	10	Octubre	2023-09-10T00:00:00	2024-11-06T20:00:00	1	Precipitación	0
124192	7	Sololá	702	San José Chacayá	5	Chacayá	10	Octubre	2023-09-10T00:00:00	2024-11-06T20:00:00	8	Radiación solar	0
124193	7	Sololá	702	San José Chacayá	5	Chacayá	10	Octubre	2023-09-10T00:00:00	2024-11-06T21:00:00	2	Temperatura media	15.4
124194	7	Sololá	702	San José Chacayá	5	Chacayá	10	Octubre	2023-09-10T00:00:00	2024-11-06T21:00:00	4	Temperatura máxima	15.6
124195	7	Sololá	702	San José Chacayá	5	Chacayá	10	Octubre	2023-09-10T00:00:00	2024-11-06T21:00:00	3	Temperatura mínima	15.3
124196	7	Sololá	702	San José Chacayá	5	Chacayá	10	Octubre	2023-09-10T00:00:00	2024-11-06T21:00:00	5	Humedad	96
124197	7	Sololá	702	San José Chacayá	5	Chacayá	10	Octubre	2023-09-10T00:00:00	2024-11-06T21:00:00	6	Velocidad del viento	0
124198	7	Sololá	702	San José Chacayá	5	Chacayá	10	Octubre	2023-09-10T00:00:00	2024-11-06T21:00:00	7	Dirección del viento	0
124199	7	Sololá	702	San José Chacayá	5	Chacayá	10	Octubre	2023-09-10T00:00:00	2024-11-06T21:00:00	1	Precipitación	0
124200	7	Sololá	702	San José Chacayá	5	Chacayá	10	Octubre	2023-09-10T00:00:00	2024-11-06T21:00:00	8	Radiación solar	0
124201	7	Sololá	702	San José Chacayá	5	Chacayá	10	Octubre	2023-09-10T00:00:00	2024-11-06T22:00:00	2	Temperatura media	14.4
124202	7	Sololá	702	San José Chacayá	5	Chacayá	10	Octubre	2023-09-10T00:00:00	2024-11-06T22:00:00	4	Temperatura máxima	15.4
124203	7	Sololá	702	San José Chacayá	5	Chacayá	10	Octubre	2023-09-10T00:00:00	2024-11-06T22:00:00	3	Temperatura mínima	14.4
124204	7	Sololá	702	San José Chacayá	5	Chacayá	10	Octubre	2023-09-10T00:00:00	2024-11-06T22:00:00	5	Humedad	95
124205	7	Sololá	702	San José Chacayá	5	Chacayá	10	Octubre	2023-09-10T00:00:00	2024-11-06T22:00:00	6	Velocidad del viento	0
124206	7	Sololá	702	San José Chacayá	5	Chacayá	10	Octubre	2023-09-10T00:00:00	2024-11-06T22:00:00	7	Dirección del viento	0
124207	7	Sololá	702	San José Chacayá	5	Chacayá	10	Octubre	2023-09-10T00:00:00	2024-11-06T22:00:00	1	Precipitación	0
124208	7	Sololá	702	San José Chacayá	5	Chacayá	10	Octubre	2023-09-10T00:00:00	2024-11-06T22:00:00	8	Radiación solar	0
124209	7	Sololá	702	San José Chacayá	5	Chacayá	10	Octubre	2023-09-10T00:00:00	2024-11-06T23:00:00	2	Temperatura media	13.9
124210	7	Sololá	702	San José Chacayá	5	Chacayá	10	Octubre	2023-09-10T00:00:00	2024-11-06T23:00:00	4	Temperatura máxima	14.4
124211	7	Sololá	702	San José Chacayá	5	Chacayá	10	Octubre	2023-09-10T00:00:00	2024-11-06T23:00:00	3	Temperatura mínima	13.8
124212	7	Sololá	702	San José Chacayá	5	Chacayá	10	Octubre	2023-09-10T00:00:00	2024-11-06T23:00:00	5	Humedad	95
124213	7	Sololá	702	San José Chacayá	5	Chacayá	10	Octubre	2023-09-10T00:00:00	2024-11-06T23:00:00	6	Velocidad del viento	0
124214	7	Sololá	702	San José Chacayá	5	Chacayá	10	Octubre	2023-09-10T00:00:00	2024-11-06T23:00:00	7	Dirección del viento	0
124215	7	Sololá	702	San José Chacayá	5	Chacayá	10	Octubre	2023-09-10T00:00:00	2024-11-06T23:00:00	1	Precipitación	0
124216	7	Sololá	702	San José Chacayá	5	Chacayá	10	Octubre	2023-09-10T00:00:00	2024-11-06T23:00:00	8	Radiación solar	0
124217	7	Sololá	702	San José Chacayá	5	Chacayá	10	Octubre	2023-10-10T00:00:00	2024-11-06T00:00:00	2	Temperatura media	13.8
124218	7	Sololá	702	San José Chacayá	5	Chacayá	10	Octubre	2023-10-10T00:00:00	2024-11-06T00:00:00	4	Temperatura máxima	13.9
124219	7	Sololá	702	San José Chacayá	5	Chacayá	10	Octubre	2023-10-10T00:00:00	2024-11-06T00:00:00	3	Temperatura mínima	13.8
124220	7	Sololá	702	San José Chacayá	5	Chacayá	10	Octubre	2023-10-10T00:00:00	2024-11-06T00:00:00	5	Humedad	96
124221	7	Sololá	702	San José Chacayá	5	Chacayá	10	Octubre	2023-10-10T00:00:00	2024-11-06T00:00:00	6	Velocidad del viento	0
124222	7	Sololá	702	San José Chacayá	5	Chacayá	10	Octubre	2023-10-10T00:00:00	2024-11-06T00:00:00	7	Dirección del viento	0
124223	7	Sololá	702	San José Chacayá	5	Chacayá	10	Octubre	2023-10-10T00:00:00	2024-11-06T00:00:00	1	Precipitación	2
124224	7	Sololá	702	San José Chacayá	5	Chacayá	10	Octubre	2023-10-10T00:00:00	2024-11-06T00:00:00	8	Radiación solar	0
124225	7	Sololá	702	San José Chacayá	5	Chacayá	10	Octubre	2023-10-10T00:00:00	2024-11-06T01:00:00	2	Temperatura media	14.1
124226	7	Sololá	702	San José Chacayá	5	Chacayá	10	Octubre	2023-10-10T00:00:00	2024-11-06T01:00:00	4	Temperatura máxima	14.1
124227	7	Sololá	702	San José Chacayá	5	Chacayá	10	Octubre	2023-10-10T00:00:00	2024-11-06T01:00:00	3	Temperatura mínima	13.8
124228	7	Sololá	702	San José Chacayá	5	Chacayá	10	Octubre	2023-10-10T00:00:00	2024-11-06T01:00:00	5	Humedad	96
124229	7	Sololá	702	San José Chacayá	5	Chacayá	10	Octubre	2023-10-10T00:00:00	2024-11-06T01:00:00	6	Velocidad del viento	0
124230	7	Sololá	702	San José Chacayá	5	Chacayá	10	Octubre	2023-10-10T00:00:00	2024-11-06T01:00:00	7	Dirección del viento	0
124231	7	Sololá	702	San José Chacayá	5	Chacayá	10	Octubre	2023-10-10T00:00:00	2024-11-06T01:00:00	1	Precipitación	1.6
124232	7	Sololá	702	San José Chacayá	5	Chacayá	10	Octubre	2023-10-10T00:00:00	2024-11-06T01:00:00	8	Radiación solar	0
124233	7	Sololá	702	San José Chacayá	5	Chacayá	10	Octubre	2023-10-10T00:00:00	2024-11-06T02:00:00	2	Temperatura media	13.8
124234	7	Sololá	702	San José Chacayá	5	Chacayá	10	Octubre	2023-10-10T00:00:00	2024-11-06T02:00:00	4	Temperatura máxima	14.1
124235	7	Sololá	702	San José Chacayá	5	Chacayá	10	Octubre	2023-10-10T00:00:00	2024-11-06T02:00:00	3	Temperatura mínima	13.8
124236	7	Sololá	702	San José Chacayá	5	Chacayá	10	Octubre	2023-10-10T00:00:00	2024-11-06T02:00:00	5	Humedad	95
124237	7	Sololá	702	San José Chacayá	5	Chacayá	10	Octubre	2023-10-10T00:00:00	2024-11-06T02:00:00	6	Velocidad del viento	0
124238	7	Sololá	702	San José Chacayá	5	Chacayá	10	Octubre	2023-10-10T00:00:00	2024-11-06T02:00:00	7	Dirección del viento	0
124239	7	Sololá	702	San José Chacayá	5	Chacayá	10	Octubre	2023-10-10T00:00:00	2024-11-06T02:00:00	1	Precipitación	0
124240	7	Sololá	702	San José Chacayá	5	Chacayá	10	Octubre	2023-10-10T00:00:00	2024-11-06T02:00:00	8	Radiación solar	0
124241	7	Sololá	702	San José Chacayá	5	Chacayá	10	Octubre	2023-10-10T00:00:00	2024-11-06T03:00:00	2	Temperatura media	13.5
124242	7	Sololá	702	San José Chacayá	5	Chacayá	10	Octubre	2023-10-10T00:00:00	2024-11-06T03:00:00	4	Temperatura máxima	13.8
124243	7	Sololá	702	San José Chacayá	5	Chacayá	10	Octubre	2023-10-10T00:00:00	2024-11-06T03:00:00	3	Temperatura mínima	13.5
124244	7	Sololá	702	San José Chacayá	5	Chacayá	10	Octubre	2023-10-10T00:00:00	2024-11-06T03:00:00	5	Humedad	96
124245	7	Sololá	702	San José Chacayá	5	Chacayá	10	Octubre	2023-10-10T00:00:00	2024-11-06T03:00:00	6	Velocidad del viento	0
124246	7	Sololá	702	San José Chacayá	5	Chacayá	10	Octubre	2023-10-10T00:00:00	2024-11-06T03:00:00	7	Dirección del viento	0
124247	7	Sololá	702	San José Chacayá	5	Chacayá	10	Octubre	2023-10-10T00:00:00	2024-11-06T03:00:00	1	Precipitación	0
124248	7	Sololá	702	San José Chacayá	5	Chacayá	10	Octubre	2023-10-10T00:00:00	2024-11-06T03:00:00	8	Radiación solar	0
124249	7	Sololá	702	San José Chacayá	5	Chacayá	10	Octubre	2023-10-10T00:00:00	2024-11-06T04:00:00	2	Temperatura media	12.9
124250	7	Sololá	702	San José Chacayá	5	Chacayá	10	Octubre	2023-10-10T00:00:00	2024-11-06T04:00:00	4	Temperatura máxima	13.5
124251	7	Sololá	702	San José Chacayá	5	Chacayá	10	Octubre	2023-10-10T00:00:00	2024-11-06T04:00:00	3	Temperatura mínima	12.9
124252	7	Sololá	702	San José Chacayá	5	Chacayá	10	Octubre	2023-10-10T00:00:00	2024-11-06T04:00:00	5	Humedad	95
124253	7	Sololá	702	San José Chacayá	5	Chacayá	10	Octubre	2023-10-10T00:00:00	2024-11-06T04:00:00	6	Velocidad del viento	0
124254	7	Sololá	702	San José Chacayá	5	Chacayá	10	Octubre	2023-10-10T00:00:00	2024-11-06T04:00:00	7	Dirección del viento	0
124255	7	Sololá	702	San José Chacayá	5	Chacayá	10	Octubre	2023-10-10T00:00:00	2024-11-06T04:00:00	1	Precipitación	0
124256	7	Sololá	702	San José Chacayá	5	Chacayá	10	Octubre	2023-10-10T00:00:00	2024-11-06T04:00:00	8	Radiación solar	0
124257	7	Sololá	702	San José Chacayá	5	Chacayá	10	Octubre	2023-10-10T00:00:00	2024-11-06T05:00:00	2	Temperatura media	12.3
124258	7	Sololá	702	San José Chacayá	5	Chacayá	10	Octubre	2023-10-10T00:00:00	2024-11-06T05:00:00	4	Temperatura máxima	12.9
124259	7	Sololá	702	San José Chacayá	5	Chacayá	10	Octubre	2023-10-10T00:00:00	2024-11-06T05:00:00	3	Temperatura mínima	12.3
124260	7	Sololá	702	San José Chacayá	5	Chacayá	10	Octubre	2023-10-10T00:00:00	2024-11-06T05:00:00	5	Humedad	95
124261	7	Sololá	702	San José Chacayá	5	Chacayá	10	Octubre	2023-10-10T00:00:00	2024-11-06T05:00:00	6	Velocidad del viento	0
124262	7	Sololá	702	San José Chacayá	5	Chacayá	10	Octubre	2023-10-10T00:00:00	2024-11-06T05:00:00	7	Dirección del viento	0
124263	7	Sololá	702	San José Chacayá	5	Chacayá	10	Octubre	2023-10-10T00:00:00	2024-11-06T05:00:00	1	Precipitación	0
124264	7	Sololá	702	San José Chacayá	5	Chacayá	10	Octubre	2023-10-10T00:00:00	2024-11-06T05:00:00	8	Radiación solar	0
124265	7	Sololá	702	San José Chacayá	5	Chacayá	10	Octubre	2023-10-10T00:00:00	2024-11-06T06:00:00	2	Temperatura media	11.8
124266	7	Sololá	702	San José Chacayá	5	Chacayá	10	Octubre	2023-10-10T00:00:00	2024-11-06T06:00:00	4	Temperatura máxima	12.3
124267	7	Sololá	702	San José Chacayá	5	Chacayá	10	Octubre	2023-10-10T00:00:00	2024-11-06T06:00:00	3	Temperatura mínima	11.8
124268	7	Sololá	702	San José Chacayá	5	Chacayá	10	Octubre	2023-10-10T00:00:00	2024-11-06T06:00:00	5	Humedad	95
124269	7	Sololá	702	San José Chacayá	5	Chacayá	10	Octubre	2023-10-10T00:00:00	2024-11-06T06:00:00	6	Velocidad del viento	0
124270	7	Sololá	702	San José Chacayá	5	Chacayá	10	Octubre	2023-10-10T00:00:00	2024-11-06T06:00:00	7	Dirección del viento	0
124271	7	Sololá	702	San José Chacayá	5	Chacayá	10	Octubre	2023-10-10T00:00:00	2024-11-06T06:00:00	1	Precipitación	0
124272	7	Sololá	702	San José Chacayá	5	Chacayá	10	Octubre	2023-10-10T00:00:00	2024-11-06T06:00:00	8	Radiación solar	1
124273	7	Sololá	702	San José Chacayá	5	Chacayá	10	Octubre	2023-10-10T00:00:00	2024-11-06T07:00:00	2	Temperatura media	11.7
124274	7	Sololá	702	San José Chacayá	5	Chacayá	10	Octubre	2023-10-10T00:00:00	2024-11-06T07:00:00	4	Temperatura máxima	11.9
124275	7	Sololá	702	San José Chacayá	5	Chacayá	10	Octubre	2023-10-10T00:00:00	2024-11-06T07:00:00	3	Temperatura mínima	11.6
124276	7	Sololá	702	San José Chacayá	5	Chacayá	10	Octubre	2023-10-10T00:00:00	2024-11-06T07:00:00	5	Humedad	96
124277	7	Sololá	702	San José Chacayá	5	Chacayá	10	Octubre	2023-10-10T00:00:00	2024-11-06T07:00:00	6	Velocidad del viento	0
124278	7	Sololá	702	San José Chacayá	5	Chacayá	10	Octubre	2023-10-10T00:00:00	2024-11-06T07:00:00	7	Dirección del viento	0
124279	7	Sololá	702	San José Chacayá	5	Chacayá	10	Octubre	2023-10-10T00:00:00	2024-11-06T07:00:00	1	Precipitación	0
124280	7	Sololá	702	San José Chacayá	5	Chacayá	10	Octubre	2023-10-10T00:00:00	2024-11-06T07:00:00	8	Radiación solar	59
124281	7	Sololá	702	San José Chacayá	5	Chacayá	10	Octubre	2023-10-10T00:00:00	2024-11-06T08:00:00	2	Temperatura media	12.5
124282	7	Sololá	702	San José Chacayá	5	Chacayá	10	Octubre	2023-10-10T00:00:00	2024-11-06T08:00:00	4	Temperatura máxima	12.5
124283	7	Sololá	702	San José Chacayá	5	Chacayá	10	Octubre	2023-10-10T00:00:00	2024-11-06T08:00:00	3	Temperatura mínima	11.6
124284	7	Sololá	702	San José Chacayá	5	Chacayá	10	Octubre	2023-10-10T00:00:00	2024-11-06T08:00:00	5	Humedad	98
124285	7	Sololá	702	San José Chacayá	5	Chacayá	10	Octubre	2023-10-10T00:00:00	2024-11-06T08:00:00	6	Velocidad del viento	0
124286	7	Sololá	702	San José Chacayá	5	Chacayá	10	Octubre	2023-10-10T00:00:00	2024-11-06T08:00:00	7	Dirección del viento	0
124287	7	Sololá	702	San José Chacayá	5	Chacayá	10	Octubre	2023-10-10T00:00:00	2024-11-06T08:00:00	1	Precipitación	0
124288	7	Sololá	702	San José Chacayá	5	Chacayá	10	Octubre	2023-10-10T00:00:00	2024-11-06T08:00:00	8	Radiación solar	263
124289	7	Sololá	702	San José Chacayá	5	Chacayá	10	Octubre	2023-10-10T00:00:00	2024-11-06T09:00:00	2	Temperatura media	15.3
124290	7	Sololá	702	San José Chacayá	5	Chacayá	10	Octubre	2023-10-10T00:00:00	2024-11-06T09:00:00	4	Temperatura máxima	15.3
124291	7	Sololá	702	San José Chacayá	5	Chacayá	10	Octubre	2023-10-10T00:00:00	2024-11-06T09:00:00	3	Temperatura mínima	12.4
124292	7	Sololá	702	San José Chacayá	5	Chacayá	10	Octubre	2023-10-10T00:00:00	2024-11-06T09:00:00	5	Humedad	98
124293	7	Sololá	702	San José Chacayá	5	Chacayá	10	Octubre	2023-10-10T00:00:00	2024-11-06T09:00:00	6	Velocidad del viento	0
124294	7	Sololá	702	San José Chacayá	5	Chacayá	10	Octubre	2023-10-10T00:00:00	2024-11-06T09:00:00	7	Dirección del viento	0
124295	7	Sololá	702	San José Chacayá	5	Chacayá	10	Octubre	2023-10-10T00:00:00	2024-11-06T09:00:00	1	Precipitación	0
124296	7	Sololá	702	San José Chacayá	5	Chacayá	10	Octubre	2023-10-10T00:00:00	2024-11-06T09:00:00	8	Radiación solar	610
124297	7	Sololá	702	San José Chacayá	5	Chacayá	10	Octubre	2023-10-10T00:00:00	2024-11-06T10:00:00	2	Temperatura media	19.9
124298	7	Sololá	702	San José Chacayá	5	Chacayá	10	Octubre	2023-10-10T00:00:00	2024-11-06T10:00:00	4	Temperatura máxima	19.9
124299	7	Sololá	702	San José Chacayá	5	Chacayá	10	Octubre	2023-10-10T00:00:00	2024-11-06T10:00:00	3	Temperatura mínima	15.3
124300	7	Sololá	702	San José Chacayá	5	Chacayá	10	Octubre	2023-10-10T00:00:00	2024-11-06T10:00:00	5	Humedad	78
124301	7	Sololá	702	San José Chacayá	5	Chacayá	10	Octubre	2023-10-10T00:00:00	2024-11-06T10:00:00	6	Velocidad del viento	1.6
124302	7	Sololá	702	San José Chacayá	5	Chacayá	10	Octubre	2023-10-10T00:00:00	2024-11-06T10:00:00	7	Dirección del viento	1.61
124303	7	Sololá	702	San José Chacayá	5	Chacayá	10	Octubre	2023-10-10T00:00:00	2024-11-06T10:00:00	1	Precipitación	0
124304	7	Sololá	702	San José Chacayá	5	Chacayá	10	Octubre	2023-10-10T00:00:00	2024-11-06T10:00:00	8	Radiación solar	751
124305	7	Sololá	702	San José Chacayá	5	Chacayá	10	Octubre	2023-10-10T00:00:00	2024-11-06T11:00:00	2	Temperatura media	21.4
124306	7	Sololá	702	San José Chacayá	5	Chacayá	10	Octubre	2023-10-10T00:00:00	2024-11-06T11:00:00	4	Temperatura máxima	22.4
124307	7	Sololá	702	San José Chacayá	5	Chacayá	10	Octubre	2023-10-10T00:00:00	2024-11-06T11:00:00	3	Temperatura mínima	19.9
124308	7	Sololá	702	San José Chacayá	5	Chacayá	10	Octubre	2023-10-10T00:00:00	2024-11-06T11:00:00	5	Humedad	73
124309	7	Sololá	702	San José Chacayá	5	Chacayá	10	Octubre	2023-10-10T00:00:00	2024-11-06T11:00:00	6	Velocidad del viento	3.2
124310	7	Sololá	702	San José Chacayá	5	Chacayá	10	Octubre	2023-10-10T00:00:00	2024-11-06T11:00:00	7	Dirección del viento	3.22
124311	7	Sololá	702	San José Chacayá	5	Chacayá	10	Octubre	2023-10-10T00:00:00	2024-11-06T11:00:00	1	Precipitación	0
124312	7	Sololá	702	San José Chacayá	5	Chacayá	10	Octubre	2023-10-10T00:00:00	2024-11-06T11:00:00	8	Radiación solar	879
124313	7	Sololá	702	San José Chacayá	5	Chacayá	10	Octubre	2023-10-10T00:00:00	2024-11-06T12:00:00	2	Temperatura media	22.5
124314	7	Sololá	702	San José Chacayá	5	Chacayá	10	Octubre	2023-10-10T00:00:00	2024-11-06T12:00:00	4	Temperatura máxima	23
124315	7	Sololá	702	San José Chacayá	5	Chacayá	10	Octubre	2023-10-10T00:00:00	2024-11-06T12:00:00	3	Temperatura mínima	21.3
124316	7	Sololá	702	San José Chacayá	5	Chacayá	10	Octubre	2023-10-10T00:00:00	2024-11-06T12:00:00	5	Humedad	67
124317	7	Sololá	702	San José Chacayá	5	Chacayá	10	Octubre	2023-10-10T00:00:00	2024-11-06T12:00:00	6	Velocidad del viento	3.2
124318	7	Sololá	702	San José Chacayá	5	Chacayá	10	Octubre	2023-10-10T00:00:00	2024-11-06T12:00:00	7	Dirección del viento	3.22
124319	7	Sololá	702	San José Chacayá	5	Chacayá	10	Octubre	2023-10-10T00:00:00	2024-11-06T12:00:00	1	Precipitación	0
124320	7	Sololá	702	San José Chacayá	5	Chacayá	10	Octubre	2023-10-10T00:00:00	2024-11-06T12:00:00	8	Radiación solar	1036
124321	7	Sololá	702	San José Chacayá	5	Chacayá	10	Octubre	2023-10-10T00:00:00	2024-11-06T13:00:00	2	Temperatura media	21.7
124322	7	Sololá	702	San José Chacayá	5	Chacayá	10	Octubre	2023-10-10T00:00:00	2024-11-06T13:00:00	4	Temperatura máxima	22.5
124323	7	Sololá	702	San José Chacayá	5	Chacayá	10	Octubre	2023-10-10T00:00:00	2024-11-06T13:00:00	3	Temperatura mínima	21.7
124324	7	Sololá	702	San José Chacayá	5	Chacayá	10	Octubre	2023-10-10T00:00:00	2024-11-06T13:00:00	5	Humedad	71
124325	7	Sololá	702	San José Chacayá	5	Chacayá	10	Octubre	2023-10-10T00:00:00	2024-11-06T13:00:00	6	Velocidad del viento	6.4
124326	7	Sololá	702	San José Chacayá	5	Chacayá	10	Octubre	2023-10-10T00:00:00	2024-11-06T13:00:00	7	Dirección del viento	6.44
124327	7	Sololá	702	San José Chacayá	5	Chacayá	10	Octubre	2023-10-10T00:00:00	2024-11-06T13:00:00	1	Precipitación	0
124328	7	Sololá	702	San José Chacayá	5	Chacayá	10	Octubre	2023-10-10T00:00:00	2024-11-06T13:00:00	8	Radiación solar	295
124329	7	Sololá	702	San José Chacayá	5	Chacayá	10	Octubre	2023-10-10T00:00:00	2024-11-06T14:00:00	2	Temperatura media	19.5
124330	7	Sololá	702	San José Chacayá	5	Chacayá	10	Octubre	2023-10-10T00:00:00	2024-11-06T14:00:00	4	Temperatura máxima	21.7
124331	7	Sololá	702	San José Chacayá	5	Chacayá	10	Octubre	2023-10-10T00:00:00	2024-11-06T14:00:00	3	Temperatura mínima	19.5
124332	7	Sololá	702	San José Chacayá	5	Chacayá	10	Octubre	2023-10-10T00:00:00	2024-11-06T14:00:00	5	Humedad	81
124333	7	Sololá	702	San José Chacayá	5	Chacayá	10	Octubre	2023-10-10T00:00:00	2024-11-06T14:00:00	6	Velocidad del viento	4.8
124334	7	Sololá	702	San José Chacayá	5	Chacayá	10	Octubre	2023-10-10T00:00:00	2024-11-06T14:00:00	7	Dirección del viento	4.83
124335	7	Sololá	702	San José Chacayá	5	Chacayá	10	Octubre	2023-10-10T00:00:00	2024-11-06T14:00:00	1	Precipitación	0
124336	7	Sololá	702	San José Chacayá	5	Chacayá	10	Octubre	2023-10-10T00:00:00	2024-11-06T14:00:00	8	Radiación solar	231
124337	7	Sololá	702	San José Chacayá	5	Chacayá	10	Octubre	2023-10-10T00:00:00	2024-11-06T15:00:00	2	Temperatura media	19.1
124338	7	Sololá	702	San José Chacayá	5	Chacayá	10	Octubre	2023-10-10T00:00:00	2024-11-06T15:00:00	4	Temperatura máxima	19.7
124339	7	Sololá	702	San José Chacayá	5	Chacayá	10	Octubre	2023-10-10T00:00:00	2024-11-06T15:00:00	3	Temperatura mínima	18.6
124340	7	Sololá	702	San José Chacayá	5	Chacayá	10	Octubre	2023-10-10T00:00:00	2024-11-06T15:00:00	5	Humedad	83
124341	7	Sololá	702	San José Chacayá	5	Chacayá	10	Octubre	2023-10-10T00:00:00	2024-11-06T15:00:00	6	Velocidad del viento	3.2
124342	7	Sololá	702	San José Chacayá	5	Chacayá	10	Octubre	2023-10-10T00:00:00	2024-11-06T15:00:00	7	Dirección del viento	3.22
124343	7	Sololá	702	San José Chacayá	5	Chacayá	10	Octubre	2023-10-10T00:00:00	2024-11-06T15:00:00	1	Precipitación	0
124344	7	Sololá	702	San José Chacayá	5	Chacayá	10	Octubre	2023-10-10T00:00:00	2024-11-06T15:00:00	8	Radiación solar	175
124345	7	Sololá	702	San José Chacayá	5	Chacayá	10	Octubre	2023-10-10T00:00:00	2024-11-06T16:00:00	2	Temperatura media	18.7
124346	7	Sololá	702	San José Chacayá	5	Chacayá	10	Octubre	2023-10-10T00:00:00	2024-11-06T16:00:00	4	Temperatura máxima	20.2
124347	7	Sololá	702	San José Chacayá	5	Chacayá	10	Octubre	2023-10-10T00:00:00	2024-11-06T16:00:00	3	Temperatura mínima	18.7
124348	7	Sololá	702	San José Chacayá	5	Chacayá	10	Octubre	2023-10-10T00:00:00	2024-11-06T16:00:00	5	Humedad	86
124349	7	Sololá	702	San José Chacayá	5	Chacayá	10	Octubre	2023-10-10T00:00:00	2024-11-06T16:00:00	6	Velocidad del viento	3.2
124350	7	Sololá	702	San José Chacayá	5	Chacayá	10	Octubre	2023-10-10T00:00:00	2024-11-06T16:00:00	7	Dirección del viento	3.22
124351	7	Sololá	702	San José Chacayá	5	Chacayá	10	Octubre	2023-10-10T00:00:00	2024-11-06T16:00:00	1	Precipitación	0
124352	7	Sololá	702	San José Chacayá	5	Chacayá	10	Octubre	2023-10-10T00:00:00	2024-11-06T16:00:00	8	Radiación solar	60
124353	7	Sololá	702	San José Chacayá	5	Chacayá	10	Octubre	2023-10-10T00:00:00	2024-11-06T17:00:00	2	Temperatura media	17.4
124354	7	Sololá	702	San José Chacayá	5	Chacayá	10	Octubre	2023-10-10T00:00:00	2024-11-06T17:00:00	4	Temperatura máxima	18.7
124355	7	Sololá	702	San José Chacayá	5	Chacayá	10	Octubre	2023-10-10T00:00:00	2024-11-06T17:00:00	3	Temperatura mínima	17.4
124356	7	Sololá	702	San José Chacayá	5	Chacayá	10	Octubre	2023-10-10T00:00:00	2024-11-06T17:00:00	5	Humedad	91
124357	7	Sololá	702	San José Chacayá	5	Chacayá	10	Octubre	2023-10-10T00:00:00	2024-11-06T17:00:00	6	Velocidad del viento	1.6
124358	7	Sololá	702	San José Chacayá	5	Chacayá	10	Octubre	2023-10-10T00:00:00	2024-11-06T17:00:00	7	Dirección del viento	1.61
124359	7	Sololá	702	San José Chacayá	5	Chacayá	10	Octubre	2023-10-10T00:00:00	2024-11-06T17:00:00	1	Precipitación	0.6
124360	7	Sololá	702	San José Chacayá	5	Chacayá	10	Octubre	2023-10-10T00:00:00	2024-11-06T17:00:00	8	Radiación solar	24
124361	7	Sololá	702	San José Chacayá	5	Chacayá	10	Octubre	2023-10-10T00:00:00	2024-11-06T18:00:00	2	Temperatura media	16.7
124362	7	Sololá	702	San José Chacayá	5	Chacayá	10	Octubre	2023-10-10T00:00:00	2024-11-06T18:00:00	4	Temperatura máxima	17.4
124363	7	Sololá	702	San José Chacayá	5	Chacayá	10	Octubre	2023-10-10T00:00:00	2024-11-06T18:00:00	3	Temperatura mínima	16.7
124364	7	Sololá	702	San José Chacayá	5	Chacayá	10	Octubre	2023-10-10T00:00:00	2024-11-06T18:00:00	5	Humedad	94
124365	7	Sololá	702	San José Chacayá	5	Chacayá	10	Octubre	2023-10-10T00:00:00	2024-11-06T18:00:00	6	Velocidad del viento	0
124366	7	Sololá	702	San José Chacayá	5	Chacayá	10	Octubre	2023-10-10T00:00:00	2024-11-06T18:00:00	7	Dirección del viento	0
124367	7	Sololá	702	San José Chacayá	5	Chacayá	10	Octubre	2023-10-10T00:00:00	2024-11-06T18:00:00	1	Precipitación	0
124368	7	Sololá	702	San José Chacayá	5	Chacayá	10	Octubre	2023-10-10T00:00:00	2024-11-06T18:00:00	8	Radiación solar	0
124369	7	Sololá	702	San José Chacayá	5	Chacayá	10	Octubre	2023-10-10T00:00:00	2024-11-06T19:00:00	2	Temperatura media	16
124370	7	Sololá	702	San José Chacayá	5	Chacayá	10	Octubre	2023-10-10T00:00:00	2024-11-06T19:00:00	4	Temperatura máxima	16.7
124371	7	Sololá	702	San José Chacayá	5	Chacayá	10	Octubre	2023-10-10T00:00:00	2024-11-06T19:00:00	3	Temperatura mínima	16
124372	7	Sololá	702	San José Chacayá	5	Chacayá	10	Octubre	2023-10-10T00:00:00	2024-11-06T19:00:00	5	Humedad	94
124373	7	Sololá	702	San José Chacayá	5	Chacayá	10	Octubre	2023-10-10T00:00:00	2024-11-06T19:00:00	6	Velocidad del viento	1.6
124374	7	Sololá	702	San José Chacayá	5	Chacayá	10	Octubre	2023-10-10T00:00:00	2024-11-06T19:00:00	7	Dirección del viento	1.61
124375	7	Sololá	702	San José Chacayá	5	Chacayá	10	Octubre	2023-10-10T00:00:00	2024-11-06T19:00:00	1	Precipitación	9.2
124376	7	Sololá	702	San José Chacayá	5	Chacayá	10	Octubre	2023-10-10T00:00:00	2024-11-06T19:00:00	8	Radiación solar	0
124377	7	Sololá	702	San José Chacayá	5	Chacayá	10	Octubre	2023-10-10T00:00:00	2024-11-06T20:00:00	2	Temperatura media	15.7
124378	7	Sololá	702	San José Chacayá	5	Chacayá	10	Octubre	2023-10-10T00:00:00	2024-11-06T20:00:00	4	Temperatura máxima	16.1
124379	7	Sololá	702	San José Chacayá	5	Chacayá	10	Octubre	2023-10-10T00:00:00	2024-11-06T20:00:00	3	Temperatura mínima	15.7
124380	7	Sololá	702	San José Chacayá	5	Chacayá	10	Octubre	2023-10-10T00:00:00	2024-11-06T20:00:00	5	Humedad	95
124381	7	Sololá	702	San José Chacayá	5	Chacayá	10	Octubre	2023-10-10T00:00:00	2024-11-06T20:00:00	6	Velocidad del viento	1.6
124382	7	Sololá	702	San José Chacayá	5	Chacayá	10	Octubre	2023-10-10T00:00:00	2024-11-06T20:00:00	7	Dirección del viento	1.61
124383	7	Sololá	702	San José Chacayá	5	Chacayá	10	Octubre	2023-10-10T00:00:00	2024-11-06T20:00:00	1	Precipitación	11.4
124384	7	Sololá	702	San José Chacayá	5	Chacayá	10	Octubre	2023-10-10T00:00:00	2024-11-06T20:00:00	8	Radiación solar	0
124385	7	Sololá	702	San José Chacayá	5	Chacayá	10	Octubre	2023-10-10T00:00:00	2024-11-06T21:00:00	2	Temperatura media	15.6
124386	7	Sololá	702	San José Chacayá	5	Chacayá	10	Octubre	2023-10-10T00:00:00	2024-11-06T21:00:00	4	Temperatura máxima	15.7
124387	7	Sololá	702	San José Chacayá	5	Chacayá	10	Octubre	2023-10-10T00:00:00	2024-11-06T21:00:00	3	Temperatura mínima	15.6
124388	7	Sololá	702	San José Chacayá	5	Chacayá	10	Octubre	2023-10-10T00:00:00	2024-11-06T21:00:00	5	Humedad	96
124389	7	Sololá	702	San José Chacayá	5	Chacayá	10	Octubre	2023-10-10T00:00:00	2024-11-06T21:00:00	6	Velocidad del viento	0
124390	7	Sololá	702	San José Chacayá	5	Chacayá	10	Octubre	2023-10-10T00:00:00	2024-11-06T21:00:00	7	Dirección del viento	0
124391	7	Sololá	702	San José Chacayá	5	Chacayá	10	Octubre	2023-10-10T00:00:00	2024-11-06T21:00:00	1	Precipitación	0.2
124392	7	Sololá	702	San José Chacayá	5	Chacayá	10	Octubre	2023-10-10T00:00:00	2024-11-06T21:00:00	8	Radiación solar	0
124393	7	Sololá	702	San José Chacayá	5	Chacayá	10	Octubre	2023-10-10T00:00:00	2024-11-06T22:00:00	2	Temperatura media	15.4
124394	7	Sololá	702	San José Chacayá	5	Chacayá	10	Octubre	2023-10-10T00:00:00	2024-11-06T22:00:00	4	Temperatura máxima	15.6
124395	7	Sololá	702	San José Chacayá	5	Chacayá	10	Octubre	2023-10-10T00:00:00	2024-11-06T22:00:00	3	Temperatura mínima	15.4
124396	7	Sololá	702	San José Chacayá	5	Chacayá	10	Octubre	2023-10-10T00:00:00	2024-11-06T22:00:00	5	Humedad	96
124397	7	Sololá	702	San José Chacayá	5	Chacayá	10	Octubre	2023-10-10T00:00:00	2024-11-06T22:00:00	6	Velocidad del viento	0
124398	7	Sololá	702	San José Chacayá	5	Chacayá	10	Octubre	2023-10-10T00:00:00	2024-11-06T22:00:00	7	Dirección del viento	0
124399	7	Sololá	702	San José Chacayá	5	Chacayá	10	Octubre	2023-10-10T00:00:00	2024-11-06T22:00:00	1	Precipitación	0
124400	7	Sololá	702	San José Chacayá	5	Chacayá	10	Octubre	2023-10-10T00:00:00	2024-11-06T22:00:00	8	Radiación solar	0
124401	7	Sololá	702	San José Chacayá	5	Chacayá	10	Octubre	2023-10-10T00:00:00	2024-11-06T23:00:00	2	Temperatura media	14.9
124402	7	Sololá	702	San José Chacayá	5	Chacayá	10	Octubre	2023-10-10T00:00:00	2024-11-06T23:00:00	4	Temperatura máxima	15.5
124403	7	Sololá	702	San José Chacayá	5	Chacayá	10	Octubre	2023-10-10T00:00:00	2024-11-06T23:00:00	3	Temperatura mínima	14.9
124404	7	Sololá	702	San José Chacayá	5	Chacayá	10	Octubre	2023-10-10T00:00:00	2024-11-06T23:00:00	5	Humedad	96
124405	7	Sololá	702	San José Chacayá	5	Chacayá	10	Octubre	2023-10-10T00:00:00	2024-11-06T23:00:00	6	Velocidad del viento	0
124406	7	Sololá	702	San José Chacayá	5	Chacayá	10	Octubre	2023-10-10T00:00:00	2024-11-06T23:00:00	7	Dirección del viento	0
124407	7	Sololá	702	San José Chacayá	5	Chacayá	10	Octubre	2023-10-10T00:00:00	2024-11-06T23:00:00	1	Precipitación	11.6
124408	7	Sololá	702	San José Chacayá	5	Chacayá	10	Octubre	2023-10-10T00:00:00	2024-11-06T23:00:00	8	Radiación solar	0
124409	7	Sololá	702	San José Chacayá	5	Chacayá	10	Octubre	2023-11-10T00:00:00	2024-11-06T00:00:00	2	Temperatura media	14.7
124410	7	Sololá	702	San José Chacayá	5	Chacayá	10	Octubre	2023-11-10T00:00:00	2024-11-06T00:00:00	4	Temperatura máxima	14.9
124411	7	Sololá	702	San José Chacayá	5	Chacayá	10	Octubre	2023-11-10T00:00:00	2024-11-06T00:00:00	3	Temperatura mínima	14.7
124412	7	Sololá	702	San José Chacayá	5	Chacayá	10	Octubre	2023-11-10T00:00:00	2024-11-06T00:00:00	5	Humedad	96
124413	7	Sololá	702	San José Chacayá	5	Chacayá	10	Octubre	2023-11-10T00:00:00	2024-11-06T00:00:00	6	Velocidad del viento	0
124414	7	Sololá	702	San José Chacayá	5	Chacayá	10	Octubre	2023-11-10T00:00:00	2024-11-06T00:00:00	7	Dirección del viento	0
124415	7	Sololá	702	San José Chacayá	5	Chacayá	10	Octubre	2023-11-10T00:00:00	2024-11-06T00:00:00	1	Precipitación	25
124416	7	Sololá	702	San José Chacayá	5	Chacayá	10	Octubre	2023-11-10T00:00:00	2024-11-06T00:00:00	8	Radiación solar	0
124417	7	Sololá	702	San José Chacayá	5	Chacayá	10	Octubre	2023-11-10T00:00:00	2024-11-06T01:00:00	2	Temperatura media	14.7
124418	7	Sololá	702	San José Chacayá	5	Chacayá	10	Octubre	2023-11-10T00:00:00	2024-11-06T01:00:00	4	Temperatura máxima	14.7
124419	7	Sololá	702	San José Chacayá	5	Chacayá	10	Octubre	2023-11-10T00:00:00	2024-11-06T01:00:00	3	Temperatura mínima	14.7
124420	7	Sololá	702	San José Chacayá	5	Chacayá	10	Octubre	2023-11-10T00:00:00	2024-11-06T01:00:00	5	Humedad	96
124421	7	Sololá	702	San José Chacayá	5	Chacayá	10	Octubre	2023-11-10T00:00:00	2024-11-06T01:00:00	6	Velocidad del viento	0
124422	7	Sololá	702	San José Chacayá	5	Chacayá	10	Octubre	2023-11-10T00:00:00	2024-11-06T01:00:00	7	Dirección del viento	0
124423	7	Sololá	702	San José Chacayá	5	Chacayá	10	Octubre	2023-11-10T00:00:00	2024-11-06T01:00:00	1	Precipitación	1.2
124424	7	Sololá	702	San José Chacayá	5	Chacayá	10	Octubre	2023-11-10T00:00:00	2024-11-06T01:00:00	8	Radiación solar	0
124425	7	Sololá	702	San José Chacayá	5	Chacayá	10	Octubre	2023-11-10T00:00:00	2024-11-06T02:00:00	2	Temperatura media	14.6
124426	7	Sololá	702	San José Chacayá	5	Chacayá	10	Octubre	2023-11-10T00:00:00	2024-11-06T02:00:00	4	Temperatura máxima	14.7
124427	7	Sololá	702	San José Chacayá	5	Chacayá	10	Octubre	2023-11-10T00:00:00	2024-11-06T02:00:00	3	Temperatura mínima	14.5
124428	7	Sololá	702	San José Chacayá	5	Chacayá	10	Octubre	2023-11-10T00:00:00	2024-11-06T02:00:00	5	Humedad	96
124429	7	Sololá	702	San José Chacayá	5	Chacayá	10	Octubre	2023-11-10T00:00:00	2024-11-06T02:00:00	6	Velocidad del viento	0
124430	7	Sololá	702	San José Chacayá	5	Chacayá	10	Octubre	2023-11-10T00:00:00	2024-11-06T02:00:00	7	Dirección del viento	0
124431	7	Sololá	702	San José Chacayá	5	Chacayá	10	Octubre	2023-11-10T00:00:00	2024-11-06T02:00:00	1	Precipitación	0
124432	7	Sololá	702	San José Chacayá	5	Chacayá	10	Octubre	2023-11-10T00:00:00	2024-11-06T02:00:00	8	Radiación solar	0
124433	7	Sololá	702	San José Chacayá	5	Chacayá	10	Octubre	2023-11-10T00:00:00	2024-11-06T03:00:00	2	Temperatura media	14.3
124434	7	Sololá	702	San José Chacayá	5	Chacayá	10	Octubre	2023-11-10T00:00:00	2024-11-06T03:00:00	4	Temperatura máxima	14.6
124435	7	Sololá	702	San José Chacayá	5	Chacayá	10	Octubre	2023-11-10T00:00:00	2024-11-06T03:00:00	3	Temperatura mínima	14.3
124436	7	Sololá	702	San José Chacayá	5	Chacayá	10	Octubre	2023-11-10T00:00:00	2024-11-06T03:00:00	5	Humedad	96
124437	7	Sololá	702	San José Chacayá	5	Chacayá	10	Octubre	2023-11-10T00:00:00	2024-11-06T03:00:00	6	Velocidad del viento	0
124438	7	Sololá	702	San José Chacayá	5	Chacayá	10	Octubre	2023-11-10T00:00:00	2024-11-06T03:00:00	7	Dirección del viento	0
124439	7	Sololá	702	San José Chacayá	5	Chacayá	10	Octubre	2023-11-10T00:00:00	2024-11-06T03:00:00	1	Precipitación	0
124440	7	Sololá	702	San José Chacayá	5	Chacayá	10	Octubre	2023-11-10T00:00:00	2024-11-06T03:00:00	8	Radiación solar	0
124441	7	Sololá	702	San José Chacayá	5	Chacayá	10	Octubre	2023-11-10T00:00:00	2024-11-06T04:00:00	2	Temperatura media	14.6
124442	7	Sololá	702	San José Chacayá	5	Chacayá	10	Octubre	2023-11-10T00:00:00	2024-11-06T04:00:00	4	Temperatura máxima	14.6
124443	7	Sololá	702	San José Chacayá	5	Chacayá	10	Octubre	2023-11-10T00:00:00	2024-11-06T04:00:00	3	Temperatura mínima	14.3
124444	7	Sololá	702	San José Chacayá	5	Chacayá	10	Octubre	2023-11-10T00:00:00	2024-11-06T04:00:00	5	Humedad	97
124445	7	Sololá	702	San José Chacayá	5	Chacayá	10	Octubre	2023-11-10T00:00:00	2024-11-06T04:00:00	6	Velocidad del viento	0
124446	7	Sololá	702	San José Chacayá	5	Chacayá	10	Octubre	2023-11-10T00:00:00	2024-11-06T04:00:00	7	Dirección del viento	0
124447	7	Sololá	702	San José Chacayá	5	Chacayá	10	Octubre	2023-11-10T00:00:00	2024-11-06T04:00:00	1	Precipitación	0
124448	7	Sololá	702	San José Chacayá	5	Chacayá	10	Octubre	2023-11-10T00:00:00	2024-11-06T04:00:00	8	Radiación solar	0
124449	7	Sololá	702	San José Chacayá	5	Chacayá	10	Octubre	2023-11-10T00:00:00	2024-11-06T05:00:00	2	Temperatura media	14
124450	7	Sololá	702	San José Chacayá	5	Chacayá	10	Octubre	2023-11-10T00:00:00	2024-11-06T05:00:00	4	Temperatura máxima	14.6
124451	7	Sololá	702	San José Chacayá	5	Chacayá	10	Octubre	2023-11-10T00:00:00	2024-11-06T05:00:00	3	Temperatura mínima	14
124452	7	Sololá	702	San José Chacayá	5	Chacayá	10	Octubre	2023-11-10T00:00:00	2024-11-06T05:00:00	5	Humedad	96
124453	7	Sololá	702	San José Chacayá	5	Chacayá	10	Octubre	2023-11-10T00:00:00	2024-11-06T05:00:00	6	Velocidad del viento	0
124454	7	Sololá	702	San José Chacayá	5	Chacayá	10	Octubre	2023-11-10T00:00:00	2024-11-06T05:00:00	7	Dirección del viento	0
124455	7	Sololá	702	San José Chacayá	5	Chacayá	10	Octubre	2023-11-10T00:00:00	2024-11-06T05:00:00	1	Precipitación	0
124456	7	Sololá	702	San José Chacayá	5	Chacayá	10	Octubre	2023-11-10T00:00:00	2024-11-06T05:00:00	8	Radiación solar	0
124457	7	Sololá	702	San José Chacayá	5	Chacayá	10	Octubre	2023-11-10T00:00:00	2024-11-06T06:00:00	2	Temperatura media	13.8
124458	7	Sololá	702	San José Chacayá	5	Chacayá	10	Octubre	2023-11-10T00:00:00	2024-11-06T06:00:00	4	Temperatura máxima	14.1
124459	7	Sololá	702	San José Chacayá	5	Chacayá	10	Octubre	2023-11-10T00:00:00	2024-11-06T06:00:00	3	Temperatura mínima	13.8
124460	7	Sololá	702	San José Chacayá	5	Chacayá	10	Octubre	2023-11-10T00:00:00	2024-11-06T06:00:00	5	Humedad	96
124461	7	Sololá	702	San José Chacayá	5	Chacayá	10	Octubre	2023-11-10T00:00:00	2024-11-06T06:00:00	6	Velocidad del viento	0
124462	7	Sololá	702	San José Chacayá	5	Chacayá	10	Octubre	2023-11-10T00:00:00	2024-11-06T06:00:00	7	Dirección del viento	0
124463	7	Sololá	702	San José Chacayá	5	Chacayá	10	Octubre	2023-11-10T00:00:00	2024-11-06T06:00:00	1	Precipitación	0
124464	7	Sololá	702	San José Chacayá	5	Chacayá	10	Octubre	2023-11-10T00:00:00	2024-11-06T06:00:00	8	Radiación solar	1
124465	7	Sololá	702	San José Chacayá	5	Chacayá	10	Octubre	2023-11-10T00:00:00	2024-11-06T07:00:00	2	Temperatura media	13.8
124466	7	Sololá	702	San José Chacayá	5	Chacayá	10	Octubre	2023-11-10T00:00:00	2024-11-06T07:00:00	4	Temperatura máxima	13.9
124467	7	Sololá	702	San José Chacayá	5	Chacayá	10	Octubre	2023-11-10T00:00:00	2024-11-06T07:00:00	3	Temperatura mínima	13.8
124468	7	Sololá	702	San José Chacayá	5	Chacayá	10	Octubre	2023-11-10T00:00:00	2024-11-06T07:00:00	5	Humedad	96
124469	7	Sololá	702	San José Chacayá	5	Chacayá	10	Octubre	2023-11-10T00:00:00	2024-11-06T07:00:00	6	Velocidad del viento	0
124470	7	Sololá	702	San José Chacayá	5	Chacayá	10	Octubre	2023-11-10T00:00:00	2024-11-06T07:00:00	7	Dirección del viento	0
124471	7	Sololá	702	San José Chacayá	5	Chacayá	10	Octubre	2023-11-10T00:00:00	2024-11-06T07:00:00	1	Precipitación	0
124472	7	Sololá	702	San José Chacayá	5	Chacayá	10	Octubre	2023-11-10T00:00:00	2024-11-06T07:00:00	8	Radiación solar	100
124473	7	Sololá	702	San José Chacayá	5	Chacayá	10	Octubre	2023-11-10T00:00:00	2024-11-06T08:00:00	2	Temperatura media	14.6
124474	7	Sololá	702	San José Chacayá	5	Chacayá	10	Octubre	2023-11-10T00:00:00	2024-11-06T08:00:00	4	Temperatura máxima	14.6
124475	7	Sololá	702	San José Chacayá	5	Chacayá	10	Octubre	2023-11-10T00:00:00	2024-11-06T08:00:00	3	Temperatura mínima	13.6
124476	7	Sololá	702	San José Chacayá	5	Chacayá	10	Octubre	2023-11-10T00:00:00	2024-11-06T08:00:00	5	Humedad	97
124477	7	Sololá	702	San José Chacayá	5	Chacayá	10	Octubre	2023-11-10T00:00:00	2024-11-06T08:00:00	6	Velocidad del viento	0
124478	7	Sololá	702	San José Chacayá	5	Chacayá	10	Octubre	2023-11-10T00:00:00	2024-11-06T08:00:00	7	Dirección del viento	0
124479	7	Sololá	702	San José Chacayá	5	Chacayá	10	Octubre	2023-11-10T00:00:00	2024-11-06T08:00:00	1	Precipitación	0
124480	7	Sololá	702	San José Chacayá	5	Chacayá	10	Octubre	2023-11-10T00:00:00	2024-11-06T08:00:00	8	Radiación solar	288
124481	7	Sololá	702	San José Chacayá	5	Chacayá	10	Octubre	2023-11-10T00:00:00	2024-11-06T09:00:00	2	Temperatura media	16.4
124482	7	Sololá	702	San José Chacayá	5	Chacayá	10	Octubre	2023-11-10T00:00:00	2024-11-06T09:00:00	4	Temperatura máxima	16.4
124483	7	Sololá	702	San José Chacayá	5	Chacayá	10	Octubre	2023-11-10T00:00:00	2024-11-06T09:00:00	3	Temperatura mínima	14.6
124484	7	Sololá	702	San José Chacayá	5	Chacayá	10	Octubre	2023-11-10T00:00:00	2024-11-06T09:00:00	5	Humedad	92
124485	7	Sololá	702	San José Chacayá	5	Chacayá	10	Octubre	2023-11-10T00:00:00	2024-11-06T09:00:00	6	Velocidad del viento	0
124486	7	Sololá	702	San José Chacayá	5	Chacayá	10	Octubre	2023-11-10T00:00:00	2024-11-06T09:00:00	7	Dirección del viento	0
124487	7	Sololá	702	San José Chacayá	5	Chacayá	10	Octubre	2023-11-10T00:00:00	2024-11-06T09:00:00	1	Precipitación	0
124488	7	Sololá	702	San José Chacayá	5	Chacayá	10	Octubre	2023-11-10T00:00:00	2024-11-06T09:00:00	8	Radiación solar	308
124489	7	Sololá	702	San José Chacayá	5	Chacayá	10	Octubre	2023-11-10T00:00:00	2024-11-06T10:00:00	2	Temperatura media	18.1
124490	7	Sololá	702	San José Chacayá	5	Chacayá	10	Octubre	2023-11-10T00:00:00	2024-11-06T10:00:00	4	Temperatura máxima	18.1
124491	7	Sololá	702	San José Chacayá	5	Chacayá	10	Octubre	2023-11-10T00:00:00	2024-11-06T10:00:00	3	Temperatura mínima	16.4
124492	7	Sololá	702	San José Chacayá	5	Chacayá	10	Octubre	2023-11-10T00:00:00	2024-11-06T10:00:00	5	Humedad	89
124493	7	Sololá	702	San José Chacayá	5	Chacayá	10	Octubre	2023-11-10T00:00:00	2024-11-06T10:00:00	6	Velocidad del viento	1.6
124494	7	Sololá	702	San José Chacayá	5	Chacayá	10	Octubre	2023-11-10T00:00:00	2024-11-06T10:00:00	7	Dirección del viento	1.61
124495	7	Sololá	702	San José Chacayá	5	Chacayá	10	Octubre	2023-11-10T00:00:00	2024-11-06T10:00:00	1	Precipitación	0
124496	7	Sololá	702	San José Chacayá	5	Chacayá	10	Octubre	2023-11-10T00:00:00	2024-11-06T10:00:00	8	Radiación solar	498
124497	7	Sololá	702	San José Chacayá	5	Chacayá	10	Octubre	2023-11-10T00:00:00	2024-11-06T11:00:00	2	Temperatura media	19.3
124498	7	Sololá	702	San José Chacayá	5	Chacayá	10	Octubre	2023-11-10T00:00:00	2024-11-06T11:00:00	4	Temperatura máxima	19.7
124499	7	Sololá	702	San José Chacayá	5	Chacayá	10	Octubre	2023-11-10T00:00:00	2024-11-06T11:00:00	3	Temperatura mínima	18.1
124500	7	Sololá	702	San José Chacayá	5	Chacayá	10	Octubre	2023-11-10T00:00:00	2024-11-06T11:00:00	5	Humedad	81
124501	7	Sololá	702	San José Chacayá	5	Chacayá	10	Octubre	2023-11-10T00:00:00	2024-11-06T11:00:00	6	Velocidad del viento	3.2
124502	7	Sololá	702	San José Chacayá	5	Chacayá	10	Octubre	2023-11-10T00:00:00	2024-11-06T11:00:00	7	Dirección del viento	3.22
124503	7	Sololá	702	San José Chacayá	5	Chacayá	10	Octubre	2023-11-10T00:00:00	2024-11-06T11:00:00	1	Precipitación	0
124504	7	Sololá	702	San José Chacayá	5	Chacayá	10	Octubre	2023-11-10T00:00:00	2024-11-06T11:00:00	8	Radiación solar	217
124505	7	Sololá	702	San José Chacayá	5	Chacayá	10	Octubre	2023-11-10T00:00:00	2024-11-06T12:00:00	2	Temperatura media	17.7
124506	7	Sololá	702	San José Chacayá	5	Chacayá	10	Octubre	2023-11-10T00:00:00	2024-11-06T12:00:00	4	Temperatura máxima	19.3
124507	7	Sololá	702	San José Chacayá	5	Chacayá	10	Octubre	2023-11-10T00:00:00	2024-11-06T12:00:00	3	Temperatura mínima	17.7
124508	7	Sololá	702	San José Chacayá	5	Chacayá	10	Octubre	2023-11-10T00:00:00	2024-11-06T12:00:00	5	Humedad	86
124509	7	Sololá	702	San José Chacayá	5	Chacayá	10	Octubre	2023-11-10T00:00:00	2024-11-06T12:00:00	6	Velocidad del viento	3.2
124510	7	Sololá	702	San José Chacayá	5	Chacayá	10	Octubre	2023-11-10T00:00:00	2024-11-06T12:00:00	7	Dirección del viento	3.22
124511	7	Sololá	702	San José Chacayá	5	Chacayá	10	Octubre	2023-11-10T00:00:00	2024-11-06T12:00:00	1	Precipitación	0
124512	7	Sololá	702	San José Chacayá	5	Chacayá	10	Octubre	2023-11-10T00:00:00	2024-11-06T12:00:00	8	Radiación solar	345
124513	7	Sololá	702	San José Chacayá	5	Chacayá	10	Octubre	2023-11-10T00:00:00	2024-11-06T13:00:00	2	Temperatura media	18.7
124514	7	Sololá	702	San José Chacayá	5	Chacayá	10	Octubre	2023-11-10T00:00:00	2024-11-06T13:00:00	4	Temperatura máxima	18.7
124515	7	Sololá	702	San José Chacayá	5	Chacayá	10	Octubre	2023-11-10T00:00:00	2024-11-06T13:00:00	3	Temperatura mínima	17.2
124516	7	Sololá	702	San José Chacayá	5	Chacayá	10	Octubre	2023-11-10T00:00:00	2024-11-06T13:00:00	5	Humedad	84
124517	7	Sololá	702	San José Chacayá	5	Chacayá	10	Octubre	2023-11-10T00:00:00	2024-11-06T13:00:00	6	Velocidad del viento	3.2
124518	7	Sololá	702	San José Chacayá	5	Chacayá	10	Octubre	2023-11-10T00:00:00	2024-11-06T13:00:00	7	Dirección del viento	3.22
124519	7	Sololá	702	San José Chacayá	5	Chacayá	10	Octubre	2023-11-10T00:00:00	2024-11-06T13:00:00	1	Precipitación	0
124520	7	Sololá	702	San José Chacayá	5	Chacayá	10	Octubre	2023-11-10T00:00:00	2024-11-06T13:00:00	8	Radiación solar	254
124521	7	Sololá	702	San José Chacayá	5	Chacayá	10	Octubre	2023-11-10T00:00:00	2024-11-06T14:00:00	2	Temperatura media	18.5
124522	7	Sololá	702	San José Chacayá	5	Chacayá	10	Octubre	2023-11-10T00:00:00	2024-11-06T14:00:00	4	Temperatura máxima	19.3
124523	7	Sololá	702	San José Chacayá	5	Chacayá	10	Octubre	2023-11-10T00:00:00	2024-11-06T14:00:00	3	Temperatura mínima	18.5
124524	7	Sololá	702	San José Chacayá	5	Chacayá	10	Octubre	2023-11-10T00:00:00	2024-11-06T14:00:00	5	Humedad	84
124525	7	Sololá	702	San José Chacayá	5	Chacayá	10	Octubre	2023-11-10T00:00:00	2024-11-06T14:00:00	6	Velocidad del viento	3.2
124526	7	Sololá	702	San José Chacayá	5	Chacayá	10	Octubre	2023-11-10T00:00:00	2024-11-06T14:00:00	7	Dirección del viento	3.22
124527	7	Sololá	702	San José Chacayá	5	Chacayá	10	Octubre	2023-11-10T00:00:00	2024-11-06T14:00:00	1	Precipitación	0
124528	7	Sololá	702	San José Chacayá	5	Chacayá	10	Octubre	2023-11-10T00:00:00	2024-11-06T14:00:00	8	Radiación solar	151
124529	7	Sololá	702	San José Chacayá	5	Chacayá	10	Octubre	2023-11-10T00:00:00	2024-11-06T15:00:00	2	Temperatura media	17.7
124530	7	Sololá	702	San José Chacayá	5	Chacayá	10	Octubre	2023-11-10T00:00:00	2024-11-06T15:00:00	4	Temperatura máxima	18.8
124531	7	Sololá	702	San José Chacayá	5	Chacayá	10	Octubre	2023-11-10T00:00:00	2024-11-06T15:00:00	3	Temperatura mínima	17.7
124532	7	Sololá	702	San José Chacayá	5	Chacayá	10	Octubre	2023-11-10T00:00:00	2024-11-06T15:00:00	5	Humedad	87
124533	7	Sololá	702	San José Chacayá	5	Chacayá	10	Octubre	2023-11-10T00:00:00	2024-11-06T15:00:00	6	Velocidad del viento	1.6
124534	7	Sololá	702	San José Chacayá	5	Chacayá	10	Octubre	2023-11-10T00:00:00	2024-11-06T15:00:00	7	Dirección del viento	1.61
124535	7	Sololá	702	San José Chacayá	5	Chacayá	10	Octubre	2023-11-10T00:00:00	2024-11-06T15:00:00	1	Precipitación	0
124536	7	Sololá	702	San José Chacayá	5	Chacayá	10	Octubre	2023-11-10T00:00:00	2024-11-06T15:00:00	8	Radiación solar	258
124537	7	Sololá	702	San José Chacayá	5	Chacayá	10	Octubre	2023-11-10T00:00:00	2024-11-06T16:00:00	2	Temperatura media	18.1
124538	7	Sololá	702	San José Chacayá	5	Chacayá	10	Octubre	2023-11-10T00:00:00	2024-11-06T16:00:00	4	Temperatura máxima	18.1
124539	7	Sololá	702	San José Chacayá	5	Chacayá	10	Octubre	2023-11-10T00:00:00	2024-11-06T16:00:00	3	Temperatura mínima	17.5
124540	7	Sololá	702	San José Chacayá	5	Chacayá	10	Octubre	2023-11-10T00:00:00	2024-11-06T16:00:00	5	Humedad	89
124541	7	Sololá	702	San José Chacayá	5	Chacayá	10	Octubre	2023-11-10T00:00:00	2024-11-06T16:00:00	6	Velocidad del viento	1.6
124542	7	Sololá	702	San José Chacayá	5	Chacayá	10	Octubre	2023-11-10T00:00:00	2024-11-06T16:00:00	7	Dirección del viento	1.61
124543	7	Sololá	702	San José Chacayá	5	Chacayá	10	Octubre	2023-11-10T00:00:00	2024-11-06T16:00:00	1	Precipitación	0
124544	7	Sololá	702	San José Chacayá	5	Chacayá	10	Octubre	2023-11-10T00:00:00	2024-11-06T16:00:00	8	Radiación solar	43
124545	7	Sololá	702	San José Chacayá	5	Chacayá	10	Octubre	2023-11-10T00:00:00	2024-11-06T17:00:00	2	Temperatura media	16.9
124546	7	Sololá	702	San José Chacayá	5	Chacayá	10	Octubre	2023-11-10T00:00:00	2024-11-06T17:00:00	4	Temperatura máxima	18.1
124547	7	Sololá	702	San José Chacayá	5	Chacayá	10	Octubre	2023-11-10T00:00:00	2024-11-06T17:00:00	3	Temperatura mínima	16.9
124548	7	Sololá	702	San José Chacayá	5	Chacayá	10	Octubre	2023-11-10T00:00:00	2024-11-06T17:00:00	5	Humedad	88
124549	7	Sololá	702	San José Chacayá	5	Chacayá	10	Octubre	2023-11-10T00:00:00	2024-11-06T17:00:00	6	Velocidad del viento	1.6
124550	7	Sololá	702	San José Chacayá	5	Chacayá	10	Octubre	2023-11-10T00:00:00	2024-11-06T17:00:00	7	Dirección del viento	1.61
124551	7	Sololá	702	San José Chacayá	5	Chacayá	10	Octubre	2023-11-10T00:00:00	2024-11-06T17:00:00	1	Precipitación	0
124552	7	Sololá	702	San José Chacayá	5	Chacayá	10	Octubre	2023-11-10T00:00:00	2024-11-06T17:00:00	8	Radiación solar	15
124553	7	Sololá	702	San José Chacayá	5	Chacayá	10	Octubre	2023-11-10T00:00:00	2024-11-06T18:00:00	2	Temperatura media	16.4
124554	7	Sololá	702	San José Chacayá	5	Chacayá	10	Octubre	2023-11-10T00:00:00	2024-11-06T18:00:00	4	Temperatura máxima	16.9
124555	7	Sololá	702	San José Chacayá	5	Chacayá	10	Octubre	2023-11-10T00:00:00	2024-11-06T18:00:00	3	Temperatura mínima	16.4
124556	7	Sololá	702	San José Chacayá	5	Chacayá	10	Octubre	2023-11-10T00:00:00	2024-11-06T18:00:00	5	Humedad	91
124557	7	Sololá	702	San José Chacayá	5	Chacayá	10	Octubre	2023-11-10T00:00:00	2024-11-06T18:00:00	6	Velocidad del viento	0
124558	7	Sololá	702	San José Chacayá	5	Chacayá	10	Octubre	2023-11-10T00:00:00	2024-11-06T18:00:00	7	Dirección del viento	0
124559	7	Sololá	702	San José Chacayá	5	Chacayá	10	Octubre	2023-11-10T00:00:00	2024-11-06T18:00:00	1	Precipitación	0
124560	7	Sololá	702	San José Chacayá	5	Chacayá	10	Octubre	2023-11-10T00:00:00	2024-11-06T18:00:00	8	Radiación solar	0
124561	7	Sololá	702	San José Chacayá	5	Chacayá	10	Octubre	2023-11-10T00:00:00	2024-11-06T19:00:00	2	Temperatura media	16
124562	7	Sololá	702	San José Chacayá	5	Chacayá	10	Octubre	2023-11-10T00:00:00	2024-11-06T19:00:00	4	Temperatura máxima	16.5
124563	7	Sololá	702	San José Chacayá	5	Chacayá	10	Octubre	2023-11-10T00:00:00	2024-11-06T19:00:00	3	Temperatura mínima	16
124564	7	Sololá	702	San José Chacayá	5	Chacayá	10	Octubre	2023-11-10T00:00:00	2024-11-06T19:00:00	5	Humedad	94
124565	7	Sololá	702	San José Chacayá	5	Chacayá	10	Octubre	2023-11-10T00:00:00	2024-11-06T19:00:00	6	Velocidad del viento	3.2
124566	7	Sololá	702	San José Chacayá	5	Chacayá	10	Octubre	2023-11-10T00:00:00	2024-11-06T19:00:00	7	Dirección del viento	3.22
124567	7	Sololá	702	San José Chacayá	5	Chacayá	10	Octubre	2023-11-10T00:00:00	2024-11-06T19:00:00	1	Precipitación	0.4
124568	7	Sololá	702	San José Chacayá	5	Chacayá	10	Octubre	2023-11-10T00:00:00	2024-11-06T19:00:00	8	Radiación solar	0
124569	7	Sololá	702	San José Chacayá	5	Chacayá	10	Octubre	2023-11-10T00:00:00	2024-11-06T20:00:00	2	Temperatura media	15.7
124570	7	Sololá	702	San José Chacayá	5	Chacayá	10	Octubre	2023-11-10T00:00:00	2024-11-06T20:00:00	4	Temperatura máxima	16
124571	7	Sololá	702	San José Chacayá	5	Chacayá	10	Octubre	2023-11-10T00:00:00	2024-11-06T20:00:00	3	Temperatura mínima	15.6
124572	7	Sololá	702	San José Chacayá	5	Chacayá	10	Octubre	2023-11-10T00:00:00	2024-11-06T20:00:00	5	Humedad	95
124573	7	Sololá	702	San José Chacayá	5	Chacayá	10	Octubre	2023-11-10T00:00:00	2024-11-06T20:00:00	6	Velocidad del viento	0
124574	7	Sololá	702	San José Chacayá	5	Chacayá	10	Octubre	2023-11-10T00:00:00	2024-11-06T20:00:00	7	Dirección del viento	0
124575	7	Sololá	702	San José Chacayá	5	Chacayá	10	Octubre	2023-11-10T00:00:00	2024-11-06T20:00:00	1	Precipitación	0.2
124576	7	Sololá	702	San José Chacayá	5	Chacayá	10	Octubre	2023-11-10T00:00:00	2024-11-06T20:00:00	8	Radiación solar	0
124577	7	Sololá	702	San José Chacayá	5	Chacayá	10	Octubre	2023-11-10T00:00:00	2024-11-06T21:00:00	2	Temperatura media	15.4
124578	7	Sololá	702	San José Chacayá	5	Chacayá	10	Octubre	2023-11-10T00:00:00	2024-11-06T21:00:00	4	Temperatura máxima	15.7
124579	7	Sololá	702	San José Chacayá	5	Chacayá	10	Octubre	2023-11-10T00:00:00	2024-11-06T21:00:00	3	Temperatura mínima	15.4
124580	7	Sololá	702	San José Chacayá	5	Chacayá	10	Octubre	2023-11-10T00:00:00	2024-11-06T21:00:00	5	Humedad	96
124581	7	Sololá	702	San José Chacayá	5	Chacayá	10	Octubre	2023-11-10T00:00:00	2024-11-06T21:00:00	6	Velocidad del viento	1.6
124582	7	Sololá	702	San José Chacayá	5	Chacayá	10	Octubre	2023-11-10T00:00:00	2024-11-06T21:00:00	7	Dirección del viento	1.61
124583	7	Sololá	702	San José Chacayá	5	Chacayá	10	Octubre	2023-11-10T00:00:00	2024-11-06T21:00:00	1	Precipitación	0
124584	7	Sololá	702	San José Chacayá	5	Chacayá	10	Octubre	2023-11-10T00:00:00	2024-11-06T21:00:00	8	Radiación solar	0
124585	7	Sololá	702	San José Chacayá	5	Chacayá	10	Octubre	2023-11-10T00:00:00	2024-11-06T22:00:00	2	Temperatura media	15.4
124586	7	Sololá	702	San José Chacayá	5	Chacayá	10	Octubre	2023-11-10T00:00:00	2024-11-06T22:00:00	4	Temperatura máxima	15.5
124587	7	Sololá	702	San José Chacayá	5	Chacayá	10	Octubre	2023-11-10T00:00:00	2024-11-06T22:00:00	3	Temperatura mínima	15.4
124588	7	Sololá	702	San José Chacayá	5	Chacayá	10	Octubre	2023-11-10T00:00:00	2024-11-06T22:00:00	5	Humedad	96
124589	7	Sololá	702	San José Chacayá	5	Chacayá	10	Octubre	2023-11-10T00:00:00	2024-11-06T22:00:00	6	Velocidad del viento	0
124590	7	Sololá	702	San José Chacayá	5	Chacayá	10	Octubre	2023-11-10T00:00:00	2024-11-06T22:00:00	7	Dirección del viento	0
124591	7	Sololá	702	San José Chacayá	5	Chacayá	10	Octubre	2023-11-10T00:00:00	2024-11-06T22:00:00	1	Precipitación	2.6
124592	7	Sololá	702	San José Chacayá	5	Chacayá	10	Octubre	2023-11-10T00:00:00	2024-11-06T22:00:00	8	Radiación solar	0
124593	7	Sololá	702	San José Chacayá	5	Chacayá	10	Octubre	2023-11-10T00:00:00	2024-11-06T23:00:00	2	Temperatura media	15.5
124594	7	Sololá	702	San José Chacayá	5	Chacayá	10	Octubre	2023-11-10T00:00:00	2024-11-06T23:00:00	4	Temperatura máxima	15.5
124595	7	Sololá	702	San José Chacayá	5	Chacayá	10	Octubre	2023-11-10T00:00:00	2024-11-06T23:00:00	3	Temperatura mínima	15.4
124596	7	Sololá	702	San José Chacayá	5	Chacayá	10	Octubre	2023-11-10T00:00:00	2024-11-06T23:00:00	5	Humedad	96
124597	7	Sololá	702	San José Chacayá	5	Chacayá	10	Octubre	2023-11-10T00:00:00	2024-11-06T23:00:00	6	Velocidad del viento	0
124598	7	Sololá	702	San José Chacayá	5	Chacayá	10	Octubre	2023-11-10T00:00:00	2024-11-06T23:00:00	7	Dirección del viento	0
124599	7	Sololá	702	San José Chacayá	5	Chacayá	10	Octubre	2023-11-10T00:00:00	2024-11-06T23:00:00	1	Precipitación	0.2
124600	7	Sololá	702	San José Chacayá	5	Chacayá	10	Octubre	2023-11-10T00:00:00	2024-11-06T23:00:00	8	Radiación solar	0
124601	7	Sololá	702	San José Chacayá	5	Chacayá	10	Octubre	2023-12-10T00:00:00	2024-11-06T00:00:00	2	Temperatura media	15.4
124602	7	Sololá	702	San José Chacayá	5	Chacayá	10	Octubre	2023-12-10T00:00:00	2024-11-06T00:00:00	4	Temperatura máxima	15.6
124603	7	Sololá	702	San José Chacayá	5	Chacayá	10	Octubre	2023-12-10T00:00:00	2024-11-06T00:00:00	3	Temperatura mínima	15.4
124604	7	Sololá	702	San José Chacayá	5	Chacayá	10	Octubre	2023-12-10T00:00:00	2024-11-06T00:00:00	5	Humedad	96
124605	7	Sololá	702	San José Chacayá	5	Chacayá	10	Octubre	2023-12-10T00:00:00	2024-11-06T00:00:00	6	Velocidad del viento	0
124606	7	Sololá	702	San José Chacayá	5	Chacayá	10	Octubre	2023-12-10T00:00:00	2024-11-06T00:00:00	7	Dirección del viento	0
124607	7	Sololá	702	San José Chacayá	5	Chacayá	10	Octubre	2023-12-10T00:00:00	2024-11-06T00:00:00	1	Precipitación	0
124608	7	Sololá	702	San José Chacayá	5	Chacayá	10	Octubre	2023-12-10T00:00:00	2024-11-06T00:00:00	8	Radiación solar	0
124609	7	Sololá	702	San José Chacayá	5	Chacayá	10	Octubre	2023-12-10T00:00:00	2024-11-06T01:00:00	2	Temperatura media	15.5
124610	7	Sololá	702	San José Chacayá	5	Chacayá	10	Octubre	2023-12-10T00:00:00	2024-11-06T01:00:00	4	Temperatura máxima	15.6
124611	7	Sololá	702	San José Chacayá	5	Chacayá	10	Octubre	2023-12-10T00:00:00	2024-11-06T01:00:00	3	Temperatura mínima	15.4
124612	7	Sololá	702	San José Chacayá	5	Chacayá	10	Octubre	2023-12-10T00:00:00	2024-11-06T01:00:00	5	Humedad	96
124613	7	Sololá	702	San José Chacayá	5	Chacayá	10	Octubre	2023-12-10T00:00:00	2024-11-06T01:00:00	6	Velocidad del viento	0
124614	7	Sololá	702	San José Chacayá	5	Chacayá	10	Octubre	2023-12-10T00:00:00	2024-11-06T01:00:00	7	Dirección del viento	0
124615	7	Sololá	702	San José Chacayá	5	Chacayá	10	Octubre	2023-12-10T00:00:00	2024-11-06T01:00:00	1	Precipitación	0
124616	7	Sololá	702	San José Chacayá	5	Chacayá	10	Octubre	2023-12-10T00:00:00	2024-11-06T01:00:00	8	Radiación solar	0
124617	7	Sololá	702	San José Chacayá	5	Chacayá	10	Octubre	2023-12-10T00:00:00	2024-11-06T02:00:00	2	Temperatura media	15.2
124618	7	Sololá	702	San José Chacayá	5	Chacayá	10	Octubre	2023-12-10T00:00:00	2024-11-06T02:00:00	4	Temperatura máxima	15.5
124619	7	Sololá	702	San José Chacayá	5	Chacayá	10	Octubre	2023-12-10T00:00:00	2024-11-06T02:00:00	3	Temperatura mínima	15.2
124620	7	Sololá	702	San José Chacayá	5	Chacayá	10	Octubre	2023-12-10T00:00:00	2024-11-06T02:00:00	5	Humedad	97
124621	7	Sololá	702	San José Chacayá	5	Chacayá	10	Octubre	2023-12-10T00:00:00	2024-11-06T02:00:00	6	Velocidad del viento	1.6
124622	7	Sololá	702	San José Chacayá	5	Chacayá	10	Octubre	2023-12-10T00:00:00	2024-11-06T02:00:00	7	Dirección del viento	1.61
124623	7	Sololá	702	San José Chacayá	5	Chacayá	10	Octubre	2023-12-10T00:00:00	2024-11-06T02:00:00	1	Precipitación	0
124624	7	Sololá	702	San José Chacayá	5	Chacayá	10	Octubre	2023-12-10T00:00:00	2024-11-06T02:00:00	8	Radiación solar	0
124625	7	Sololá	702	San José Chacayá	5	Chacayá	10	Octubre	2023-12-10T00:00:00	2024-11-06T03:00:00	2	Temperatura media	14.9
124626	7	Sololá	702	San José Chacayá	5	Chacayá	10	Octubre	2023-12-10T00:00:00	2024-11-06T03:00:00	4	Temperatura máxima	15.3
124627	7	Sololá	702	San José Chacayá	5	Chacayá	10	Octubre	2023-12-10T00:00:00	2024-11-06T03:00:00	3	Temperatura mínima	14.9
124628	7	Sololá	702	San José Chacayá	5	Chacayá	10	Octubre	2023-12-10T00:00:00	2024-11-06T03:00:00	5	Humedad	96
124629	7	Sololá	702	San José Chacayá	5	Chacayá	10	Octubre	2023-12-10T00:00:00	2024-11-06T03:00:00	6	Velocidad del viento	0
124630	7	Sololá	702	San José Chacayá	5	Chacayá	10	Octubre	2023-12-10T00:00:00	2024-11-06T03:00:00	7	Dirección del viento	0
124631	7	Sololá	702	San José Chacayá	5	Chacayá	10	Octubre	2023-12-10T00:00:00	2024-11-06T03:00:00	1	Precipitación	0
124632	7	Sololá	702	San José Chacayá	5	Chacayá	10	Octubre	2023-12-10T00:00:00	2024-11-06T03:00:00	8	Radiación solar	0
124633	7	Sololá	702	San José Chacayá	5	Chacayá	10	Octubre	2023-12-10T00:00:00	2024-11-06T04:00:00	2	Temperatura media	14.9
124634	7	Sololá	702	San José Chacayá	5	Chacayá	10	Octubre	2023-12-10T00:00:00	2024-11-06T04:00:00	4	Temperatura máxima	15
124635	7	Sololá	702	San José Chacayá	5	Chacayá	10	Octubre	2023-12-10T00:00:00	2024-11-06T04:00:00	3	Temperatura mínima	14.8
124636	7	Sololá	702	San José Chacayá	5	Chacayá	10	Octubre	2023-12-10T00:00:00	2024-11-06T04:00:00	5	Humedad	97
124637	7	Sololá	702	San José Chacayá	5	Chacayá	10	Octubre	2023-12-10T00:00:00	2024-11-06T04:00:00	6	Velocidad del viento	0
124638	7	Sololá	702	San José Chacayá	5	Chacayá	10	Octubre	2023-12-10T00:00:00	2024-11-06T04:00:00	7	Dirección del viento	0
124639	7	Sololá	702	San José Chacayá	5	Chacayá	10	Octubre	2023-12-10T00:00:00	2024-11-06T04:00:00	1	Precipitación	0.2
124640	7	Sololá	702	San José Chacayá	5	Chacayá	10	Octubre	2023-12-10T00:00:00	2024-11-06T04:00:00	8	Radiación solar	0
124641	7	Sololá	702	San José Chacayá	5	Chacayá	10	Octubre	2023-12-10T00:00:00	2024-11-06T05:00:00	2	Temperatura media	14.9
124642	7	Sololá	702	San José Chacayá	5	Chacayá	10	Octubre	2023-12-10T00:00:00	2024-11-06T05:00:00	4	Temperatura máxima	15.1
124643	7	Sololá	702	San José Chacayá	5	Chacayá	10	Octubre	2023-12-10T00:00:00	2024-11-06T05:00:00	3	Temperatura mínima	14.9
124644	7	Sololá	702	San José Chacayá	5	Chacayá	10	Octubre	2023-12-10T00:00:00	2024-11-06T05:00:00	5	Humedad	96
124645	7	Sololá	702	San José Chacayá	5	Chacayá	10	Octubre	2023-12-10T00:00:00	2024-11-06T05:00:00	6	Velocidad del viento	0
124646	7	Sololá	702	San José Chacayá	5	Chacayá	10	Octubre	2023-12-10T00:00:00	2024-11-06T05:00:00	7	Dirección del viento	0
124647	7	Sololá	702	San José Chacayá	5	Chacayá	10	Octubre	2023-12-10T00:00:00	2024-11-06T05:00:00	1	Precipitación	0
124648	7	Sololá	702	San José Chacayá	5	Chacayá	10	Octubre	2023-12-10T00:00:00	2024-11-06T05:00:00	8	Radiación solar	0
124649	7	Sololá	702	San José Chacayá	5	Chacayá	10	Octubre	2023-12-10T00:00:00	2024-11-06T06:00:00	2	Temperatura media	14.5
124650	7	Sololá	702	San José Chacayá	5	Chacayá	10	Octubre	2023-12-10T00:00:00	2024-11-06T06:00:00	4	Temperatura máxima	15
124651	7	Sololá	702	San José Chacayá	5	Chacayá	10	Octubre	2023-12-10T00:00:00	2024-11-06T06:00:00	3	Temperatura mínima	14.4
124652	7	Sololá	702	San José Chacayá	5	Chacayá	10	Octubre	2023-12-10T00:00:00	2024-11-06T06:00:00	5	Humedad	96
124653	7	Sololá	702	San José Chacayá	5	Chacayá	10	Octubre	2023-12-10T00:00:00	2024-11-06T06:00:00	6	Velocidad del viento	0
124654	7	Sololá	702	San José Chacayá	5	Chacayá	10	Octubre	2023-12-10T00:00:00	2024-11-06T06:00:00	7	Dirección del viento	0
124655	7	Sololá	702	San José Chacayá	5	Chacayá	10	Octubre	2023-12-10T00:00:00	2024-11-06T06:00:00	1	Precipitación	0
124656	7	Sololá	702	San José Chacayá	5	Chacayá	10	Octubre	2023-12-10T00:00:00	2024-11-06T06:00:00	8	Radiación solar	1
124657	7	Sololá	702	San José Chacayá	5	Chacayá	10	Octubre	2023-12-10T00:00:00	2024-11-06T07:00:00	2	Temperatura media	13.8
124658	7	Sololá	702	San José Chacayá	5	Chacayá	10	Octubre	2023-12-10T00:00:00	2024-11-06T07:00:00	4	Temperatura máxima	14.5
124659	7	Sololá	702	San José Chacayá	5	Chacayá	10	Octubre	2023-12-10T00:00:00	2024-11-06T07:00:00	3	Temperatura mínima	13.8
124660	7	Sololá	702	San José Chacayá	5	Chacayá	10	Octubre	2023-12-10T00:00:00	2024-11-06T07:00:00	5	Humedad	96
124661	7	Sololá	702	San José Chacayá	5	Chacayá	10	Octubre	2023-12-10T00:00:00	2024-11-06T07:00:00	6	Velocidad del viento	0
124662	7	Sololá	702	San José Chacayá	5	Chacayá	10	Octubre	2023-12-10T00:00:00	2024-11-06T07:00:00	7	Dirección del viento	0
124663	7	Sololá	702	San José Chacayá	5	Chacayá	10	Octubre	2023-12-10T00:00:00	2024-11-06T07:00:00	1	Precipitación	0
124664	7	Sololá	702	San José Chacayá	5	Chacayá	10	Octubre	2023-12-10T00:00:00	2024-11-06T07:00:00	8	Radiación solar	109
124665	7	Sololá	702	San José Chacayá	5	Chacayá	10	Octubre	2023-12-10T00:00:00	2024-11-06T08:00:00	2	Temperatura media	14.4
124666	7	Sololá	702	San José Chacayá	5	Chacayá	10	Octubre	2023-12-10T00:00:00	2024-11-06T08:00:00	4	Temperatura máxima	14.4
124667	7	Sololá	702	San José Chacayá	5	Chacayá	10	Octubre	2023-12-10T00:00:00	2024-11-06T08:00:00	3	Temperatura mínima	13.6
124668	7	Sololá	702	San José Chacayá	5	Chacayá	10	Octubre	2023-12-10T00:00:00	2024-11-06T08:00:00	5	Humedad	96
124669	7	Sololá	702	San José Chacayá	5	Chacayá	10	Octubre	2023-12-10T00:00:00	2024-11-06T08:00:00	6	Velocidad del viento	0
124670	7	Sololá	702	San José Chacayá	5	Chacayá	10	Octubre	2023-12-10T00:00:00	2024-11-06T08:00:00	7	Dirección del viento	0
124671	7	Sololá	702	San José Chacayá	5	Chacayá	10	Octubre	2023-12-10T00:00:00	2024-11-06T08:00:00	1	Precipitación	0
124672	7	Sololá	702	San José Chacayá	5	Chacayá	10	Octubre	2023-12-10T00:00:00	2024-11-06T08:00:00	8	Radiación solar	375
124673	7	Sololá	702	San José Chacayá	5	Chacayá	10	Octubre	2023-12-10T00:00:00	2024-11-06T09:00:00	2	Temperatura media	18.5
124674	7	Sololá	702	San José Chacayá	5	Chacayá	10	Octubre	2023-12-10T00:00:00	2024-11-06T09:00:00	4	Temperatura máxima	18.5
124675	7	Sololá	702	San José Chacayá	5	Chacayá	10	Octubre	2023-12-10T00:00:00	2024-11-06T09:00:00	3	Temperatura mínima	14.4
124676	7	Sololá	702	San José Chacayá	5	Chacayá	10	Octubre	2023-12-10T00:00:00	2024-11-06T09:00:00	5	Humedad	84
124677	7	Sololá	702	San José Chacayá	5	Chacayá	10	Octubre	2023-12-10T00:00:00	2024-11-06T09:00:00	6	Velocidad del viento	1.6
124678	7	Sololá	702	San José Chacayá	5	Chacayá	10	Octubre	2023-12-10T00:00:00	2024-11-06T09:00:00	7	Dirección del viento	1.61
124679	7	Sololá	702	San José Chacayá	5	Chacayá	10	Octubre	2023-12-10T00:00:00	2024-11-06T09:00:00	1	Precipitación	0
124680	7	Sololá	702	San José Chacayá	5	Chacayá	10	Octubre	2023-12-10T00:00:00	2024-11-06T09:00:00	8	Radiación solar	369
124681	7	Sololá	702	San José Chacayá	5	Chacayá	10	Octubre	2023-12-10T00:00:00	2024-11-06T10:00:00	2	Temperatura media	18.6
124682	7	Sololá	702	San José Chacayá	5	Chacayá	10	Octubre	2023-12-10T00:00:00	2024-11-06T10:00:00	4	Temperatura máxima	19.4
124683	7	Sololá	702	San José Chacayá	5	Chacayá	10	Octubre	2023-12-10T00:00:00	2024-11-06T10:00:00	3	Temperatura mínima	18.4
124684	7	Sololá	702	San José Chacayá	5	Chacayá	10	Octubre	2023-12-10T00:00:00	2024-11-06T10:00:00	5	Humedad	88
124685	7	Sololá	702	San José Chacayá	5	Chacayá	10	Octubre	2023-12-10T00:00:00	2024-11-06T10:00:00	6	Velocidad del viento	1.6
124686	7	Sololá	702	San José Chacayá	5	Chacayá	10	Octubre	2023-12-10T00:00:00	2024-11-06T10:00:00	7	Dirección del viento	1.61
124687	7	Sololá	702	San José Chacayá	5	Chacayá	10	Octubre	2023-12-10T00:00:00	2024-11-06T10:00:00	1	Precipitación	0
124688	7	Sololá	702	San José Chacayá	5	Chacayá	10	Octubre	2023-12-10T00:00:00	2024-11-06T10:00:00	8	Radiación solar	338
124689	7	Sololá	702	San José Chacayá	5	Chacayá	10	Octubre	2023-12-10T00:00:00	2024-11-06T11:00:00	2	Temperatura media	18.4
124690	7	Sololá	702	San José Chacayá	5	Chacayá	10	Octubre	2023-12-10T00:00:00	2024-11-06T11:00:00	4	Temperatura máxima	19.4
124691	7	Sololá	702	San José Chacayá	5	Chacayá	10	Octubre	2023-12-10T00:00:00	2024-11-06T11:00:00	3	Temperatura mínima	18.1
124692	7	Sololá	702	San José Chacayá	5	Chacayá	10	Octubre	2023-12-10T00:00:00	2024-11-06T11:00:00	5	Humedad	84
124693	7	Sololá	702	San José Chacayá	5	Chacayá	10	Octubre	2023-12-10T00:00:00	2024-11-06T11:00:00	6	Velocidad del viento	1.6
124694	7	Sololá	702	San José Chacayá	5	Chacayá	10	Octubre	2023-12-10T00:00:00	2024-11-06T11:00:00	7	Dirección del viento	1.61
124695	7	Sololá	702	San José Chacayá	5	Chacayá	10	Octubre	2023-12-10T00:00:00	2024-11-06T11:00:00	1	Precipitación	0
124696	7	Sololá	702	San José Chacayá	5	Chacayá	10	Octubre	2023-12-10T00:00:00	2024-11-06T11:00:00	8	Radiación solar	775
124697	7	Sololá	702	San José Chacayá	5	Chacayá	10	Octubre	2023-12-10T00:00:00	2024-11-06T12:00:00	2	Temperatura media	22.2
124698	7	Sololá	702	San José Chacayá	5	Chacayá	10	Octubre	2023-12-10T00:00:00	2024-11-06T12:00:00	4	Temperatura máxima	22.2
124699	7	Sololá	702	San José Chacayá	5	Chacayá	10	Octubre	2023-12-10T00:00:00	2024-11-06T12:00:00	3	Temperatura mínima	18.4
124700	7	Sololá	702	San José Chacayá	5	Chacayá	10	Octubre	2023-12-10T00:00:00	2024-11-06T12:00:00	5	Humedad	77
124701	7	Sololá	702	San José Chacayá	5	Chacayá	10	Octubre	2023-12-10T00:00:00	2024-11-06T12:00:00	6	Velocidad del viento	1.6
124702	7	Sololá	702	San José Chacayá	5	Chacayá	10	Octubre	2023-12-10T00:00:00	2024-11-06T12:00:00	7	Dirección del viento	1.61
124703	7	Sololá	702	San José Chacayá	5	Chacayá	10	Octubre	2023-12-10T00:00:00	2024-11-06T12:00:00	1	Precipitación	0
124704	7	Sololá	702	San José Chacayá	5	Chacayá	10	Octubre	2023-12-10T00:00:00	2024-11-06T12:00:00	8	Radiación solar	572
124705	7	Sololá	702	San José Chacayá	5	Chacayá	10	Octubre	2023-12-10T00:00:00	2024-11-06T13:00:00	2	Temperatura media	21.1
124706	7	Sololá	702	San José Chacayá	5	Chacayá	10	Octubre	2023-12-10T00:00:00	2024-11-06T13:00:00	4	Temperatura máxima	22.2
124707	7	Sololá	702	San José Chacayá	5	Chacayá	10	Octubre	2023-12-10T00:00:00	2024-11-06T13:00:00	3	Temperatura mínima	20.7
124708	7	Sololá	702	San José Chacayá	5	Chacayá	10	Octubre	2023-12-10T00:00:00	2024-11-06T13:00:00	5	Humedad	76
124709	7	Sololá	702	San José Chacayá	5	Chacayá	10	Octubre	2023-12-10T00:00:00	2024-11-06T13:00:00	6	Velocidad del viento	3.2
124710	7	Sololá	702	San José Chacayá	5	Chacayá	10	Octubre	2023-12-10T00:00:00	2024-11-06T13:00:00	7	Dirección del viento	3.22
124711	7	Sololá	702	San José Chacayá	5	Chacayá	10	Octubre	2023-12-10T00:00:00	2024-11-06T13:00:00	1	Precipitación	0
124712	7	Sololá	702	San José Chacayá	5	Chacayá	10	Octubre	2023-12-10T00:00:00	2024-11-06T13:00:00	8	Radiación solar	696
124713	7	Sololá	702	San José Chacayá	5	Chacayá	10	Octubre	2023-12-10T00:00:00	2024-11-06T14:00:00	2	Temperatura media	22.1
124714	7	Sololá	702	San José Chacayá	5	Chacayá	10	Octubre	2023-12-10T00:00:00	2024-11-06T14:00:00	4	Temperatura máxima	22.1
124715	7	Sololá	702	San José Chacayá	5	Chacayá	10	Octubre	2023-12-10T00:00:00	2024-11-06T14:00:00	3	Temperatura mínima	20.7
124716	7	Sololá	702	San José Chacayá	5	Chacayá	10	Octubre	2023-12-10T00:00:00	2024-11-06T14:00:00	5	Humedad	76
124717	7	Sololá	702	San José Chacayá	5	Chacayá	10	Octubre	2023-12-10T00:00:00	2024-11-06T14:00:00	6	Velocidad del viento	1.6
124718	7	Sololá	702	San José Chacayá	5	Chacayá	10	Octubre	2023-12-10T00:00:00	2024-11-06T14:00:00	7	Dirección del viento	1.61
124719	7	Sololá	702	San José Chacayá	5	Chacayá	10	Octubre	2023-12-10T00:00:00	2024-11-06T14:00:00	1	Precipitación	0
124720	7	Sololá	702	San José Chacayá	5	Chacayá	10	Octubre	2023-12-10T00:00:00	2024-11-06T14:00:00	8	Radiación solar	500
124721	7	Sololá	702	San José Chacayá	5	Chacayá	10	Octubre	2023-12-10T00:00:00	2024-11-06T15:00:00	2	Temperatura media	21.2
124722	7	Sololá	702	San José Chacayá	5	Chacayá	10	Octubre	2023-12-10T00:00:00	2024-11-06T15:00:00	4	Temperatura máxima	22.7
124723	7	Sololá	702	San José Chacayá	5	Chacayá	10	Octubre	2023-12-10T00:00:00	2024-11-06T15:00:00	3	Temperatura mínima	21.2
124724	7	Sololá	702	San José Chacayá	5	Chacayá	10	Octubre	2023-12-10T00:00:00	2024-11-06T15:00:00	5	Humedad	79
124725	7	Sololá	702	San José Chacayá	5	Chacayá	10	Octubre	2023-12-10T00:00:00	2024-11-06T15:00:00	6	Velocidad del viento	3.2
124726	7	Sololá	702	San José Chacayá	5	Chacayá	10	Octubre	2023-12-10T00:00:00	2024-11-06T15:00:00	7	Dirección del viento	3.22
124727	7	Sololá	702	San José Chacayá	5	Chacayá	10	Octubre	2023-12-10T00:00:00	2024-11-06T15:00:00	1	Precipitación	0
124728	7	Sololá	702	San José Chacayá	5	Chacayá	10	Octubre	2023-12-10T00:00:00	2024-11-06T15:00:00	8	Radiación solar	39
124729	7	Sololá	702	San José Chacayá	5	Chacayá	10	Octubre	2023-12-10T00:00:00	2024-11-06T16:00:00	2	Temperatura media	17.5
124730	7	Sololá	702	San José Chacayá	5	Chacayá	10	Octubre	2023-12-10T00:00:00	2024-11-06T16:00:00	4	Temperatura máxima	21.2
124731	7	Sololá	702	San José Chacayá	5	Chacayá	10	Octubre	2023-12-10T00:00:00	2024-11-06T16:00:00	3	Temperatura mínima	17.5
124732	7	Sololá	702	San José Chacayá	5	Chacayá	10	Octubre	2023-12-10T00:00:00	2024-11-06T16:00:00	5	Humedad	90
124733	7	Sololá	702	San José Chacayá	5	Chacayá	10	Octubre	2023-12-10T00:00:00	2024-11-06T16:00:00	6	Velocidad del viento	3.2
124734	7	Sololá	702	San José Chacayá	5	Chacayá	10	Octubre	2023-12-10T00:00:00	2024-11-06T16:00:00	7	Dirección del viento	3.22
124735	7	Sololá	702	San José Chacayá	5	Chacayá	10	Octubre	2023-12-10T00:00:00	2024-11-06T16:00:00	1	Precipitación	0
124736	7	Sololá	702	San José Chacayá	5	Chacayá	10	Octubre	2023-12-10T00:00:00	2024-11-06T16:00:00	8	Radiación solar	75
124737	7	Sololá	702	San José Chacayá	5	Chacayá	10	Octubre	2023-12-10T00:00:00	2024-11-06T17:00:00	2	Temperatura media	16.8
124738	7	Sololá	702	San José Chacayá	5	Chacayá	10	Octubre	2023-12-10T00:00:00	2024-11-06T17:00:00	4	Temperatura máxima	17.5
124739	7	Sololá	702	San José Chacayá	5	Chacayá	10	Octubre	2023-12-10T00:00:00	2024-11-06T17:00:00	3	Temperatura mínima	16.6
124740	7	Sololá	702	San José Chacayá	5	Chacayá	10	Octubre	2023-12-10T00:00:00	2024-11-06T17:00:00	5	Humedad	95
124741	7	Sololá	702	San José Chacayá	5	Chacayá	10	Octubre	2023-12-10T00:00:00	2024-11-06T17:00:00	6	Velocidad del viento	1.6
124742	7	Sololá	702	San José Chacayá	5	Chacayá	10	Octubre	2023-12-10T00:00:00	2024-11-06T17:00:00	7	Dirección del viento	1.61
124743	7	Sololá	702	San José Chacayá	5	Chacayá	10	Octubre	2023-12-10T00:00:00	2024-11-06T17:00:00	1	Precipitación	0
124744	7	Sololá	702	San José Chacayá	5	Chacayá	10	Octubre	2023-12-10T00:00:00	2024-11-06T17:00:00	8	Radiación solar	12
124745	7	Sololá	702	San José Chacayá	5	Chacayá	10	Octubre	2023-12-10T00:00:00	2024-11-06T18:00:00	2	Temperatura media	16.8
124746	7	Sololá	702	San José Chacayá	5	Chacayá	10	Octubre	2023-12-10T00:00:00	2024-11-06T18:00:00	4	Temperatura máxima	17.1
124747	7	Sololá	702	San José Chacayá	5	Chacayá	10	Octubre	2023-12-10T00:00:00	2024-11-06T18:00:00	3	Temperatura mínima	16.8
124748	7	Sololá	702	San José Chacayá	5	Chacayá	10	Octubre	2023-12-10T00:00:00	2024-11-06T18:00:00	5	Humedad	93
124749	7	Sololá	702	San José Chacayá	5	Chacayá	10	Octubre	2023-12-10T00:00:00	2024-11-06T18:00:00	6	Velocidad del viento	1.6
124750	7	Sololá	702	San José Chacayá	5	Chacayá	10	Octubre	2023-12-10T00:00:00	2024-11-06T18:00:00	7	Dirección del viento	1.61
124751	7	Sololá	702	San José Chacayá	5	Chacayá	10	Octubre	2023-12-10T00:00:00	2024-11-06T18:00:00	1	Precipitación	0
124752	7	Sololá	702	San José Chacayá	5	Chacayá	10	Octubre	2023-12-10T00:00:00	2024-11-06T18:00:00	8	Radiación solar	0
124753	7	Sololá	702	San José Chacayá	5	Chacayá	10	Octubre	2023-12-10T00:00:00	2024-11-06T19:00:00	2	Temperatura media	16.7
124754	7	Sololá	702	San José Chacayá	5	Chacayá	10	Octubre	2023-12-10T00:00:00	2024-11-06T19:00:00	4	Temperatura máxima	16.9
124755	7	Sololá	702	San José Chacayá	5	Chacayá	10	Octubre	2023-12-10T00:00:00	2024-11-06T19:00:00	3	Temperatura mínima	16.7
124756	7	Sololá	702	San José Chacayá	5	Chacayá	10	Octubre	2023-12-10T00:00:00	2024-11-06T19:00:00	5	Humedad	94
124757	7	Sololá	702	San José Chacayá	5	Chacayá	10	Octubre	2023-12-10T00:00:00	2024-11-06T19:00:00	6	Velocidad del viento	0
124758	7	Sololá	702	San José Chacayá	5	Chacayá	10	Octubre	2023-12-10T00:00:00	2024-11-06T19:00:00	7	Dirección del viento	0
124759	7	Sololá	702	San José Chacayá	5	Chacayá	10	Octubre	2023-12-10T00:00:00	2024-11-06T19:00:00	1	Precipitación	0
124760	7	Sololá	702	San José Chacayá	5	Chacayá	10	Octubre	2023-12-10T00:00:00	2024-11-06T19:00:00	8	Radiación solar	0
124761	7	Sololá	702	San José Chacayá	5	Chacayá	10	Octubre	2023-12-10T00:00:00	2024-11-06T20:00:00	2	Temperatura media	16.6
124762	7	Sololá	702	San José Chacayá	5	Chacayá	10	Octubre	2023-12-10T00:00:00	2024-11-06T20:00:00	4	Temperatura máxima	16.7
124763	7	Sololá	702	San José Chacayá	5	Chacayá	10	Octubre	2023-12-10T00:00:00	2024-11-06T20:00:00	3	Temperatura mínima	16.4
124764	7	Sololá	702	San José Chacayá	5	Chacayá	10	Octubre	2023-12-10T00:00:00	2024-11-06T20:00:00	5	Humedad	95
124765	7	Sololá	702	San José Chacayá	5	Chacayá	10	Octubre	2023-12-10T00:00:00	2024-11-06T20:00:00	6	Velocidad del viento	0
124766	7	Sololá	702	San José Chacayá	5	Chacayá	10	Octubre	2023-12-10T00:00:00	2024-11-06T20:00:00	7	Dirección del viento	0
124767	7	Sololá	702	San José Chacayá	5	Chacayá	10	Octubre	2023-12-10T00:00:00	2024-11-06T20:00:00	1	Precipitación	0
124768	7	Sololá	702	San José Chacayá	5	Chacayá	10	Octubre	2023-12-10T00:00:00	2024-11-06T20:00:00	8	Radiación solar	0
124769	7	Sololá	702	San José Chacayá	5	Chacayá	10	Octubre	2023-12-10T00:00:00	2024-11-06T21:00:00	2	Temperatura media	16.3
124770	7	Sololá	702	San José Chacayá	5	Chacayá	10	Octubre	2023-12-10T00:00:00	2024-11-06T21:00:00	4	Temperatura máxima	16.6
124771	7	Sololá	702	San José Chacayá	5	Chacayá	10	Octubre	2023-12-10T00:00:00	2024-11-06T21:00:00	3	Temperatura mínima	16.3
124772	7	Sololá	702	San José Chacayá	5	Chacayá	10	Octubre	2023-12-10T00:00:00	2024-11-06T21:00:00	5	Humedad	95
124773	7	Sololá	702	San José Chacayá	5	Chacayá	10	Octubre	2023-12-10T00:00:00	2024-11-06T21:00:00	6	Velocidad del viento	0
124774	7	Sololá	702	San José Chacayá	5	Chacayá	10	Octubre	2023-12-10T00:00:00	2024-11-06T21:00:00	7	Dirección del viento	0
124775	7	Sololá	702	San José Chacayá	5	Chacayá	10	Octubre	2023-12-10T00:00:00	2024-11-06T21:00:00	1	Precipitación	0
124776	7	Sololá	702	San José Chacayá	5	Chacayá	10	Octubre	2023-12-10T00:00:00	2024-11-06T21:00:00	8	Radiación solar	0
124777	7	Sololá	702	San José Chacayá	5	Chacayá	10	Octubre	2023-12-10T00:00:00	2024-11-06T22:00:00	2	Temperatura media	16.2
124778	7	Sololá	702	San José Chacayá	5	Chacayá	10	Octubre	2023-12-10T00:00:00	2024-11-06T22:00:00	4	Temperatura máxima	16.3
124779	7	Sololá	702	San José Chacayá	5	Chacayá	10	Octubre	2023-12-10T00:00:00	2024-11-06T22:00:00	3	Temperatura mínima	16.1
124780	7	Sololá	702	San José Chacayá	5	Chacayá	10	Octubre	2023-12-10T00:00:00	2024-11-06T22:00:00	5	Humedad	95
124781	7	Sololá	702	San José Chacayá	5	Chacayá	10	Octubre	2023-12-10T00:00:00	2024-11-06T22:00:00	6	Velocidad del viento	0
124782	7	Sololá	702	San José Chacayá	5	Chacayá	10	Octubre	2023-12-10T00:00:00	2024-11-06T22:00:00	7	Dirección del viento	0
124783	7	Sololá	702	San José Chacayá	5	Chacayá	10	Octubre	2023-12-10T00:00:00	2024-11-06T22:00:00	1	Precipitación	0
124784	7	Sololá	702	San José Chacayá	5	Chacayá	10	Octubre	2023-12-10T00:00:00	2024-11-06T22:00:00	8	Radiación solar	0
124785	7	Sololá	702	San José Chacayá	5	Chacayá	10	Octubre	2023-12-10T00:00:00	2024-11-06T23:00:00	2	Temperatura media	15.9
124786	7	Sololá	702	San José Chacayá	5	Chacayá	10	Octubre	2023-12-10T00:00:00	2024-11-06T23:00:00	4	Temperatura máxima	16.2
124787	7	Sololá	702	San José Chacayá	5	Chacayá	10	Octubre	2023-12-10T00:00:00	2024-11-06T23:00:00	3	Temperatura mínima	15.9
124788	7	Sololá	702	San José Chacayá	5	Chacayá	10	Octubre	2023-12-10T00:00:00	2024-11-06T23:00:00	5	Humedad	95
124789	7	Sololá	702	San José Chacayá	5	Chacayá	10	Octubre	2023-12-10T00:00:00	2024-11-06T23:00:00	6	Velocidad del viento	0
124790	7	Sololá	702	San José Chacayá	5	Chacayá	10	Octubre	2023-12-10T00:00:00	2024-11-06T23:00:00	7	Dirección del viento	0
124791	7	Sololá	702	San José Chacayá	5	Chacayá	10	Octubre	2023-12-10T00:00:00	2024-11-06T23:00:00	1	Precipitación	0
124792	7	Sololá	702	San José Chacayá	5	Chacayá	10	Octubre	2023-12-10T00:00:00	2024-11-06T23:00:00	8	Radiación solar	0
124793	7	Sololá	702	San José Chacayá	5	Chacayá	10	Octubre	2023-10-13T00:00:00	2024-11-06T00:00:00	2	Temperatura media	14.8
124794	7	Sololá	702	San José Chacayá	5	Chacayá	10	Octubre	2023-10-13T00:00:00	2024-11-06T00:00:00	4	Temperatura máxima	15.9
124795	7	Sololá	702	San José Chacayá	5	Chacayá	10	Octubre	2023-10-13T00:00:00	2024-11-06T00:00:00	3	Temperatura mínima	14.8
124796	7	Sololá	702	San José Chacayá	5	Chacayá	10	Octubre	2023-10-13T00:00:00	2024-11-06T00:00:00	5	Humedad	95
124797	7	Sololá	702	San José Chacayá	5	Chacayá	10	Octubre	2023-10-13T00:00:00	2024-11-06T00:00:00	6	Velocidad del viento	0
124798	7	Sololá	702	San José Chacayá	5	Chacayá	10	Octubre	2023-10-13T00:00:00	2024-11-06T00:00:00	7	Dirección del viento	0
124799	7	Sololá	702	San José Chacayá	5	Chacayá	10	Octubre	2023-10-13T00:00:00	2024-11-06T00:00:00	1	Precipitación	0
124800	7	Sololá	702	San José Chacayá	5	Chacayá	10	Octubre	2023-10-13T00:00:00	2024-11-06T00:00:00	8	Radiación solar	0
124801	7	Sololá	702	San José Chacayá	5	Chacayá	10	Octubre	2023-10-13T00:00:00	2024-11-06T01:00:00	2	Temperatura media	14.4
124802	7	Sololá	702	San José Chacayá	5	Chacayá	10	Octubre	2023-10-13T00:00:00	2024-11-06T01:00:00	4	Temperatura máxima	14.9
124803	7	Sololá	702	San José Chacayá	5	Chacayá	10	Octubre	2023-10-13T00:00:00	2024-11-06T01:00:00	3	Temperatura mínima	14.3
124804	7	Sololá	702	San José Chacayá	5	Chacayá	10	Octubre	2023-10-13T00:00:00	2024-11-06T01:00:00	5	Humedad	96
124805	7	Sololá	702	San José Chacayá	5	Chacayá	10	Octubre	2023-10-13T00:00:00	2024-11-06T01:00:00	6	Velocidad del viento	0
124806	7	Sololá	702	San José Chacayá	5	Chacayá	10	Octubre	2023-10-13T00:00:00	2024-11-06T01:00:00	7	Dirección del viento	0
124807	7	Sololá	702	San José Chacayá	5	Chacayá	10	Octubre	2023-10-13T00:00:00	2024-11-06T01:00:00	1	Precipitación	0
124808	7	Sololá	702	San José Chacayá	5	Chacayá	10	Octubre	2023-10-13T00:00:00	2024-11-06T01:00:00	8	Radiación solar	0
124809	7	Sololá	702	San José Chacayá	5	Chacayá	10	Octubre	2023-10-13T00:00:00	2024-11-06T02:00:00	2	Temperatura media	14.9
124810	7	Sololá	702	San José Chacayá	5	Chacayá	10	Octubre	2023-10-13T00:00:00	2024-11-06T02:00:00	4	Temperatura máxima	15
124811	7	Sololá	702	San José Chacayá	5	Chacayá	10	Octubre	2023-10-13T00:00:00	2024-11-06T02:00:00	3	Temperatura mínima	14.4
124812	7	Sololá	702	San José Chacayá	5	Chacayá	10	Octubre	2023-10-13T00:00:00	2024-11-06T02:00:00	5	Humedad	96
124813	7	Sololá	702	San José Chacayá	5	Chacayá	10	Octubre	2023-10-13T00:00:00	2024-11-06T02:00:00	6	Velocidad del viento	0
124814	7	Sololá	702	San José Chacayá	5	Chacayá	10	Octubre	2023-10-13T00:00:00	2024-11-06T02:00:00	7	Dirección del viento	0
124815	7	Sololá	702	San José Chacayá	5	Chacayá	10	Octubre	2023-10-13T00:00:00	2024-11-06T02:00:00	1	Precipitación	0
124816	7	Sololá	702	San José Chacayá	5	Chacayá	10	Octubre	2023-10-13T00:00:00	2024-11-06T02:00:00	8	Radiación solar	0
124817	7	Sololá	702	San José Chacayá	5	Chacayá	10	Octubre	2023-10-13T00:00:00	2024-11-06T03:00:00	2	Temperatura media	14.1
124818	7	Sololá	702	San José Chacayá	5	Chacayá	10	Octubre	2023-10-13T00:00:00	2024-11-06T03:00:00	4	Temperatura máxima	14.9
124819	7	Sololá	702	San José Chacayá	5	Chacayá	10	Octubre	2023-10-13T00:00:00	2024-11-06T03:00:00	3	Temperatura mínima	14.1
124820	7	Sololá	702	San José Chacayá	5	Chacayá	10	Octubre	2023-10-13T00:00:00	2024-11-06T03:00:00	5	Humedad	94
124821	7	Sololá	702	San José Chacayá	5	Chacayá	10	Octubre	2023-10-13T00:00:00	2024-11-06T03:00:00	6	Velocidad del viento	0
124822	7	Sololá	702	San José Chacayá	5	Chacayá	10	Octubre	2023-10-13T00:00:00	2024-11-06T03:00:00	7	Dirección del viento	0
124823	7	Sololá	702	San José Chacayá	5	Chacayá	10	Octubre	2023-10-13T00:00:00	2024-11-06T03:00:00	1	Precipitación	0
124824	7	Sololá	702	San José Chacayá	5	Chacayá	10	Octubre	2023-10-13T00:00:00	2024-11-06T03:00:00	8	Radiación solar	0
124825	7	Sololá	702	San José Chacayá	5	Chacayá	10	Octubre	2023-10-13T00:00:00	2024-11-06T04:00:00	2	Temperatura media	13.4
124826	7	Sololá	702	San José Chacayá	5	Chacayá	10	Octubre	2023-10-13T00:00:00	2024-11-06T04:00:00	4	Temperatura máxima	14.1
124827	7	Sololá	702	San José Chacayá	5	Chacayá	10	Octubre	2023-10-13T00:00:00	2024-11-06T04:00:00	3	Temperatura mínima	13.4
124828	7	Sololá	702	San José Chacayá	5	Chacayá	10	Octubre	2023-10-13T00:00:00	2024-11-06T04:00:00	5	Humedad	95
124829	7	Sololá	702	San José Chacayá	5	Chacayá	10	Octubre	2023-10-13T00:00:00	2024-11-06T04:00:00	6	Velocidad del viento	0
124830	7	Sololá	702	San José Chacayá	5	Chacayá	10	Octubre	2023-10-13T00:00:00	2024-11-06T04:00:00	7	Dirección del viento	0
124831	7	Sololá	702	San José Chacayá	5	Chacayá	10	Octubre	2023-10-13T00:00:00	2024-11-06T04:00:00	1	Precipitación	0
124832	7	Sololá	702	San José Chacayá	5	Chacayá	10	Octubre	2023-10-13T00:00:00	2024-11-06T04:00:00	8	Radiación solar	0
124833	7	Sololá	702	San José Chacayá	5	Chacayá	10	Octubre	2023-10-13T00:00:00	2024-11-06T05:00:00	2	Temperatura media	12.7
124834	7	Sololá	702	San José Chacayá	5	Chacayá	10	Octubre	2023-10-13T00:00:00	2024-11-06T05:00:00	4	Temperatura máxima	13.4
124835	7	Sololá	702	San José Chacayá	5	Chacayá	10	Octubre	2023-10-13T00:00:00	2024-11-06T05:00:00	3	Temperatura mínima	12.7
124836	7	Sololá	702	San José Chacayá	5	Chacayá	10	Octubre	2023-10-13T00:00:00	2024-11-06T05:00:00	5	Humedad	95
124837	7	Sololá	702	San José Chacayá	5	Chacayá	10	Octubre	2023-10-13T00:00:00	2024-11-06T05:00:00	6	Velocidad del viento	1.6
124838	7	Sololá	702	San José Chacayá	5	Chacayá	10	Octubre	2023-10-13T00:00:00	2024-11-06T05:00:00	7	Dirección del viento	1.61
124839	7	Sololá	702	San José Chacayá	5	Chacayá	10	Octubre	2023-10-13T00:00:00	2024-11-06T05:00:00	1	Precipitación	0
124840	7	Sololá	702	San José Chacayá	5	Chacayá	10	Octubre	2023-10-13T00:00:00	2024-11-06T05:00:00	8	Radiación solar	0
124841	7	Sololá	702	San José Chacayá	5	Chacayá	10	Octubre	2023-10-13T00:00:00	2024-11-06T06:00:00	2	Temperatura media	12.1
124842	7	Sololá	702	San José Chacayá	5	Chacayá	10	Octubre	2023-10-13T00:00:00	2024-11-06T06:00:00	4	Temperatura máxima	12.7
124843	7	Sololá	702	San José Chacayá	5	Chacayá	10	Octubre	2023-10-13T00:00:00	2024-11-06T06:00:00	3	Temperatura mínima	12.1
124844	7	Sololá	702	San José Chacayá	5	Chacayá	10	Octubre	2023-10-13T00:00:00	2024-11-06T06:00:00	5	Humedad	95
124845	7	Sololá	702	San José Chacayá	5	Chacayá	10	Octubre	2023-10-13T00:00:00	2024-11-06T06:00:00	6	Velocidad del viento	0
124846	7	Sololá	702	San José Chacayá	5	Chacayá	10	Octubre	2023-10-13T00:00:00	2024-11-06T06:00:00	7	Dirección del viento	0
124847	7	Sololá	702	San José Chacayá	5	Chacayá	10	Octubre	2023-10-13T00:00:00	2024-11-06T06:00:00	1	Precipitación	0
124848	7	Sololá	702	San José Chacayá	5	Chacayá	10	Octubre	2023-10-13T00:00:00	2024-11-06T06:00:00	8	Radiación solar	2
124849	7	Sololá	702	San José Chacayá	5	Chacayá	10	Octubre	2023-10-13T00:00:00	2024-11-06T07:00:00	2	Temperatura media	12.1
124850	7	Sololá	702	San José Chacayá	5	Chacayá	10	Octubre	2023-10-13T00:00:00	2024-11-06T07:00:00	4	Temperatura máxima	12.2
124851	7	Sololá	702	San José Chacayá	5	Chacayá	10	Octubre	2023-10-13T00:00:00	2024-11-06T07:00:00	3	Temperatura mínima	11.9
124852	7	Sololá	702	San José Chacayá	5	Chacayá	10	Octubre	2023-10-13T00:00:00	2024-11-06T07:00:00	5	Humedad	96
124853	7	Sololá	702	San José Chacayá	5	Chacayá	10	Octubre	2023-10-13T00:00:00	2024-11-06T07:00:00	6	Velocidad del viento	0
124854	7	Sololá	702	San José Chacayá	5	Chacayá	10	Octubre	2023-10-13T00:00:00	2024-11-06T07:00:00	7	Dirección del viento	0
124855	7	Sololá	702	San José Chacayá	5	Chacayá	10	Octubre	2023-10-13T00:00:00	2024-11-06T07:00:00	1	Precipitación	0
124856	7	Sololá	702	San José Chacayá	5	Chacayá	10	Octubre	2023-10-13T00:00:00	2024-11-06T07:00:00	8	Radiación solar	90
124857	7	Sololá	702	San José Chacayá	5	Chacayá	10	Octubre	2023-10-13T00:00:00	2024-11-06T08:00:00	2	Temperatura media	14.3
124858	7	Sololá	702	San José Chacayá	5	Chacayá	10	Octubre	2023-10-13T00:00:00	2024-11-06T08:00:00	4	Temperatura máxima	14.3
124859	7	Sololá	702	San José Chacayá	5	Chacayá	10	Octubre	2023-10-13T00:00:00	2024-11-06T08:00:00	3	Temperatura mínima	12.1
124860	7	Sololá	702	San José Chacayá	5	Chacayá	10	Octubre	2023-10-13T00:00:00	2024-11-06T08:00:00	5	Humedad	94
124861	7	Sololá	702	San José Chacayá	5	Chacayá	10	Octubre	2023-10-13T00:00:00	2024-11-06T08:00:00	6	Velocidad del viento	0
124862	7	Sololá	702	San José Chacayá	5	Chacayá	10	Octubre	2023-10-13T00:00:00	2024-11-06T08:00:00	7	Dirección del viento	0
124863	7	Sololá	702	San José Chacayá	5	Chacayá	10	Octubre	2023-10-13T00:00:00	2024-11-06T08:00:00	1	Precipitación	0
124864	7	Sololá	702	San José Chacayá	5	Chacayá	10	Octubre	2023-10-13T00:00:00	2024-11-06T08:00:00	8	Radiación solar	354
124865	7	Sololá	702	San José Chacayá	5	Chacayá	10	Octubre	2023-10-13T00:00:00	2024-11-06T09:00:00	2	Temperatura media	18.6
124866	7	Sololá	702	San José Chacayá	5	Chacayá	10	Octubre	2023-10-13T00:00:00	2024-11-06T09:00:00	4	Temperatura máxima	18.6
124867	7	Sololá	702	San José Chacayá	5	Chacayá	10	Octubre	2023-10-13T00:00:00	2024-11-06T09:00:00	3	Temperatura mínima	14.3
124868	7	Sololá	702	San José Chacayá	5	Chacayá	10	Octubre	2023-10-13T00:00:00	2024-11-06T09:00:00	5	Humedad	80
124869	7	Sololá	702	San José Chacayá	5	Chacayá	10	Octubre	2023-10-13T00:00:00	2024-11-06T09:00:00	6	Velocidad del viento	1.6
124870	7	Sololá	702	San José Chacayá	5	Chacayá	10	Octubre	2023-10-13T00:00:00	2024-11-06T09:00:00	7	Dirección del viento	1.61
124871	7	Sololá	702	San José Chacayá	5	Chacayá	10	Octubre	2023-10-13T00:00:00	2024-11-06T09:00:00	1	Precipitación	0
124872	7	Sololá	702	San José Chacayá	5	Chacayá	10	Octubre	2023-10-13T00:00:00	2024-11-06T09:00:00	8	Radiación solar	600
124873	7	Sololá	702	San José Chacayá	5	Chacayá	10	Octubre	2023-10-13T00:00:00	2024-11-06T10:00:00	2	Temperatura media	22.1
124874	7	Sololá	702	San José Chacayá	5	Chacayá	10	Octubre	2023-10-13T00:00:00	2024-11-06T10:00:00	4	Temperatura máxima	22.7
124875	7	Sololá	702	San José Chacayá	5	Chacayá	10	Octubre	2023-10-13T00:00:00	2024-11-06T10:00:00	3	Temperatura mínima	18.6
124876	7	Sololá	702	San José Chacayá	5	Chacayá	10	Octubre	2023-10-13T00:00:00	2024-11-06T10:00:00	5	Humedad	76
124877	7	Sololá	702	San José Chacayá	5	Chacayá	10	Octubre	2023-10-13T00:00:00	2024-11-06T10:00:00	6	Velocidad del viento	1.6
124878	7	Sololá	702	San José Chacayá	5	Chacayá	10	Octubre	2023-10-13T00:00:00	2024-11-06T10:00:00	7	Dirección del viento	1.61
124879	7	Sololá	702	San José Chacayá	5	Chacayá	10	Octubre	2023-10-13T00:00:00	2024-11-06T10:00:00	1	Precipitación	0
124880	7	Sololá	702	San José Chacayá	5	Chacayá	10	Octubre	2023-10-13T00:00:00	2024-11-06T10:00:00	8	Radiación solar	418
124881	7	Sololá	702	San José Chacayá	5	Chacayá	10	Octubre	2023-10-13T00:00:00	2024-11-06T11:00:00	2	Temperatura media	22.1
124882	7	Sololá	702	San José Chacayá	5	Chacayá	10	Octubre	2023-10-13T00:00:00	2024-11-06T11:00:00	4	Temperatura máxima	23.4
124883	7	Sololá	702	San José Chacayá	5	Chacayá	10	Octubre	2023-10-13T00:00:00	2024-11-06T11:00:00	3	Temperatura mínima	20.9
124884	7	Sololá	702	San José Chacayá	5	Chacayá	10	Octubre	2023-10-13T00:00:00	2024-11-06T11:00:00	5	Humedad	78
124885	7	Sololá	702	San José Chacayá	5	Chacayá	10	Octubre	2023-10-13T00:00:00	2024-11-06T11:00:00	6	Velocidad del viento	1.6
124886	7	Sololá	702	San José Chacayá	5	Chacayá	10	Octubre	2023-10-13T00:00:00	2024-11-06T11:00:00	7	Dirección del viento	1.61
124887	7	Sololá	702	San José Chacayá	5	Chacayá	10	Octubre	2023-10-13T00:00:00	2024-11-06T11:00:00	1	Precipitación	0
124888	7	Sololá	702	San José Chacayá	5	Chacayá	10	Octubre	2023-10-13T00:00:00	2024-11-06T11:00:00	8	Radiación solar	755
124889	7	Sololá	702	San José Chacayá	5	Chacayá	10	Octubre	2023-10-13T00:00:00	2024-11-06T12:00:00	2	Temperatura media	22.2
124890	7	Sololá	702	San José Chacayá	5	Chacayá	10	Octubre	2023-10-13T00:00:00	2024-11-06T12:00:00	4	Temperatura máxima	22.9
124891	7	Sololá	702	San José Chacayá	5	Chacayá	10	Octubre	2023-10-13T00:00:00	2024-11-06T12:00:00	3	Temperatura mínima	21.4
124892	7	Sololá	702	San José Chacayá	5	Chacayá	10	Octubre	2023-10-13T00:00:00	2024-11-06T12:00:00	5	Humedad	79
124893	7	Sololá	702	San José Chacayá	5	Chacayá	10	Octubre	2023-10-13T00:00:00	2024-11-06T12:00:00	6	Velocidad del viento	3.2
124894	7	Sololá	702	San José Chacayá	5	Chacayá	10	Octubre	2023-10-13T00:00:00	2024-11-06T12:00:00	7	Dirección del viento	3.22
124895	7	Sololá	702	San José Chacayá	5	Chacayá	10	Octubre	2023-10-13T00:00:00	2024-11-06T12:00:00	1	Precipitación	0
124896	7	Sololá	702	San José Chacayá	5	Chacayá	10	Octubre	2023-10-13T00:00:00	2024-11-06T12:00:00	8	Radiación solar	214
124897	7	Sololá	702	San José Chacayá	5	Chacayá	10	Octubre	2023-10-13T00:00:00	2024-11-06T13:00:00	2	Temperatura media	18.8
124898	7	Sololá	702	San José Chacayá	5	Chacayá	10	Octubre	2023-10-13T00:00:00	2024-11-06T13:00:00	4	Temperatura máxima	23.7
124899	7	Sololá	702	San José Chacayá	5	Chacayá	10	Octubre	2023-10-13T00:00:00	2024-11-06T13:00:00	3	Temperatura mínima	18.8
124900	7	Sololá	702	San José Chacayá	5	Chacayá	10	Octubre	2023-10-13T00:00:00	2024-11-06T13:00:00	5	Humedad	86
124901	7	Sololá	702	San José Chacayá	5	Chacayá	10	Octubre	2023-10-13T00:00:00	2024-11-06T13:00:00	6	Velocidad del viento	3.2
124902	7	Sololá	702	San José Chacayá	5	Chacayá	10	Octubre	2023-10-13T00:00:00	2024-11-06T13:00:00	7	Dirección del viento	3.22
124903	7	Sololá	702	San José Chacayá	5	Chacayá	10	Octubre	2023-10-13T00:00:00	2024-11-06T13:00:00	1	Precipitación	0
124904	7	Sololá	702	San José Chacayá	5	Chacayá	10	Octubre	2023-10-13T00:00:00	2024-11-06T13:00:00	8	Radiación solar	235
124905	7	Sololá	702	San José Chacayá	5	Chacayá	10	Octubre	2023-10-13T00:00:00	2024-11-06T14:00:00	2	Temperatura media	18.8
124906	7	Sololá	702	San José Chacayá	5	Chacayá	10	Octubre	2023-10-13T00:00:00	2024-11-06T14:00:00	4	Temperatura máxima	18.8
124907	7	Sololá	702	San José Chacayá	5	Chacayá	10	Octubre	2023-10-13T00:00:00	2024-11-06T14:00:00	3	Temperatura mínima	18.2
124908	7	Sololá	702	San José Chacayá	5	Chacayá	10	Octubre	2023-10-13T00:00:00	2024-11-06T14:00:00	5	Humedad	86
124909	7	Sololá	702	San José Chacayá	5	Chacayá	10	Octubre	2023-10-13T00:00:00	2024-11-06T14:00:00	6	Velocidad del viento	1.6
124910	7	Sololá	702	San José Chacayá	5	Chacayá	10	Octubre	2023-10-13T00:00:00	2024-11-06T14:00:00	7	Dirección del viento	1.61
124911	7	Sololá	702	San José Chacayá	5	Chacayá	10	Octubre	2023-10-13T00:00:00	2024-11-06T14:00:00	1	Precipitación	0
124912	7	Sololá	702	San José Chacayá	5	Chacayá	10	Octubre	2023-10-13T00:00:00	2024-11-06T14:00:00	8	Radiación solar	82
124913	7	Sololá	702	San José Chacayá	5	Chacayá	10	Octubre	2023-10-13T00:00:00	2024-11-06T15:00:00	2	Temperatura media	17.9
124914	7	Sololá	702	San José Chacayá	5	Chacayá	10	Octubre	2023-10-13T00:00:00	2024-11-06T15:00:00	4	Temperatura máxima	19.3
124915	7	Sololá	702	San José Chacayá	5	Chacayá	10	Octubre	2023-10-13T00:00:00	2024-11-06T15:00:00	3	Temperatura mínima	17.9
124916	7	Sololá	702	San José Chacayá	5	Chacayá	10	Octubre	2023-10-13T00:00:00	2024-11-06T15:00:00	5	Humedad	90
124917	7	Sololá	702	San José Chacayá	5	Chacayá	10	Octubre	2023-10-13T00:00:00	2024-11-06T15:00:00	6	Velocidad del viento	1.6
124918	7	Sololá	702	San José Chacayá	5	Chacayá	10	Octubre	2023-10-13T00:00:00	2024-11-06T15:00:00	7	Dirección del viento	1.61
124919	7	Sololá	702	San José Chacayá	5	Chacayá	10	Octubre	2023-10-13T00:00:00	2024-11-06T15:00:00	1	Precipitación	0.2
124920	7	Sololá	702	San José Chacayá	5	Chacayá	10	Octubre	2023-10-13T00:00:00	2024-11-06T15:00:00	8	Radiación solar	25
124921	7	Sololá	702	San José Chacayá	5	Chacayá	10	Octubre	2023-10-13T00:00:00	2024-11-06T16:00:00	2	Temperatura media	17.1
124922	7	Sololá	702	San José Chacayá	5	Chacayá	10	Octubre	2023-10-13T00:00:00	2024-11-06T16:00:00	4	Temperatura máxima	17.9
124923	7	Sololá	702	San José Chacayá	5	Chacayá	10	Octubre	2023-10-13T00:00:00	2024-11-06T16:00:00	3	Temperatura mínima	17.1
124924	7	Sololá	702	San José Chacayá	5	Chacayá	10	Octubre	2023-10-13T00:00:00	2024-11-06T16:00:00	5	Humedad	94
124925	7	Sololá	702	San José Chacayá	5	Chacayá	10	Octubre	2023-10-13T00:00:00	2024-11-06T16:00:00	6	Velocidad del viento	1.6
124926	7	Sololá	702	San José Chacayá	5	Chacayá	10	Octubre	2023-10-13T00:00:00	2024-11-06T16:00:00	7	Dirección del viento	1.61
124927	7	Sololá	702	San José Chacayá	5	Chacayá	10	Octubre	2023-10-13T00:00:00	2024-11-06T16:00:00	1	Precipitación	1.4
124928	7	Sololá	702	San José Chacayá	5	Chacayá	10	Octubre	2023-10-13T00:00:00	2024-11-06T16:00:00	8	Radiación solar	60
124929	7	Sololá	702	San José Chacayá	5	Chacayá	10	Octubre	2023-10-13T00:00:00	2024-11-06T17:00:00	2	Temperatura media	17.1
124930	7	Sololá	702	San José Chacayá	5	Chacayá	10	Octubre	2023-10-13T00:00:00	2024-11-06T17:00:00	4	Temperatura máxima	17.1
124931	7	Sololá	702	San José Chacayá	5	Chacayá	10	Octubre	2023-10-13T00:00:00	2024-11-06T17:00:00	3	Temperatura mínima	16.9
124932	7	Sololá	702	San José Chacayá	5	Chacayá	10	Octubre	2023-10-13T00:00:00	2024-11-06T17:00:00	5	Humedad	94
124933	7	Sololá	702	San José Chacayá	5	Chacayá	10	Octubre	2023-10-13T00:00:00	2024-11-06T17:00:00	6	Velocidad del viento	0
124934	7	Sololá	702	San José Chacayá	5	Chacayá	10	Octubre	2023-10-13T00:00:00	2024-11-06T17:00:00	7	Dirección del viento	0
124935	7	Sololá	702	San José Chacayá	5	Chacayá	10	Octubre	2023-10-13T00:00:00	2024-11-06T17:00:00	1	Precipitación	0
124936	7	Sololá	702	San José Chacayá	5	Chacayá	10	Octubre	2023-10-13T00:00:00	2024-11-06T17:00:00	8	Radiación solar	28
124937	7	Sololá	702	San José Chacayá	5	Chacayá	10	Octubre	2023-10-13T00:00:00	2024-11-06T18:00:00	2	Temperatura media	16.9
124938	7	Sololá	702	San José Chacayá	5	Chacayá	10	Octubre	2023-10-13T00:00:00	2024-11-06T18:00:00	4	Temperatura máxima	17.1
124939	7	Sololá	702	San José Chacayá	5	Chacayá	10	Octubre	2023-10-13T00:00:00	2024-11-06T18:00:00	3	Temperatura mínima	16.9
124940	7	Sololá	702	San José Chacayá	5	Chacayá	10	Octubre	2023-10-13T00:00:00	2024-11-06T18:00:00	5	Humedad	94
124941	7	Sololá	702	San José Chacayá	5	Chacayá	10	Octubre	2023-10-13T00:00:00	2024-11-06T18:00:00	6	Velocidad del viento	0
124942	7	Sololá	702	San José Chacayá	5	Chacayá	10	Octubre	2023-10-13T00:00:00	2024-11-06T18:00:00	7	Dirección del viento	0
124943	7	Sololá	702	San José Chacayá	5	Chacayá	10	Octubre	2023-10-13T00:00:00	2024-11-06T18:00:00	1	Precipitación	0
124944	7	Sololá	702	San José Chacayá	5	Chacayá	10	Octubre	2023-10-13T00:00:00	2024-11-06T18:00:00	8	Radiación solar	0
124945	7	Sololá	702	San José Chacayá	5	Chacayá	10	Octubre	2023-10-13T00:00:00	2024-11-06T19:00:00	2	Temperatura media	16.6
124946	7	Sololá	702	San José Chacayá	5	Chacayá	10	Octubre	2023-10-13T00:00:00	2024-11-06T19:00:00	4	Temperatura máxima	16.9
124947	7	Sololá	702	San José Chacayá	5	Chacayá	10	Octubre	2023-10-13T00:00:00	2024-11-06T19:00:00	3	Temperatura mínima	16.6
124948	7	Sololá	702	San José Chacayá	5	Chacayá	10	Octubre	2023-10-13T00:00:00	2024-11-06T19:00:00	5	Humedad	95
124949	7	Sololá	702	San José Chacayá	5	Chacayá	10	Octubre	2023-10-13T00:00:00	2024-11-06T19:00:00	6	Velocidad del viento	0
124950	7	Sololá	702	San José Chacayá	5	Chacayá	10	Octubre	2023-10-13T00:00:00	2024-11-06T19:00:00	7	Dirección del viento	0
124951	7	Sololá	702	San José Chacayá	5	Chacayá	10	Octubre	2023-10-13T00:00:00	2024-11-06T19:00:00	1	Precipitación	0
124952	7	Sololá	702	San José Chacayá	5	Chacayá	10	Octubre	2023-10-13T00:00:00	2024-11-06T19:00:00	8	Radiación solar	0
124953	7	Sololá	702	San José Chacayá	5	Chacayá	10	Octubre	2023-10-13T00:00:00	2024-11-06T20:00:00	2	Temperatura media	16.4
124954	7	Sololá	702	San José Chacayá	5	Chacayá	10	Octubre	2023-10-13T00:00:00	2024-11-06T20:00:00	4	Temperatura máxima	16.7
124955	7	Sololá	702	San José Chacayá	5	Chacayá	10	Octubre	2023-10-13T00:00:00	2024-11-06T20:00:00	3	Temperatura mínima	16.3
124956	7	Sololá	702	San José Chacayá	5	Chacayá	10	Octubre	2023-10-13T00:00:00	2024-11-06T20:00:00	5	Humedad	95
124957	7	Sololá	702	San José Chacayá	5	Chacayá	10	Octubre	2023-10-13T00:00:00	2024-11-06T20:00:00	6	Velocidad del viento	0
124958	7	Sololá	702	San José Chacayá	5	Chacayá	10	Octubre	2023-10-13T00:00:00	2024-11-06T20:00:00	7	Dirección del viento	0
124959	7	Sololá	702	San José Chacayá	5	Chacayá	10	Octubre	2023-10-13T00:00:00	2024-11-06T20:00:00	1	Precipitación	0
124960	7	Sololá	702	San José Chacayá	5	Chacayá	10	Octubre	2023-10-13T00:00:00	2024-11-06T20:00:00	8	Radiación solar	0
124961	7	Sololá	702	San José Chacayá	5	Chacayá	10	Octubre	2023-10-13T00:00:00	2024-11-06T21:00:00	2	Temperatura media	15.7
124962	7	Sololá	702	San José Chacayá	5	Chacayá	10	Octubre	2023-10-13T00:00:00	2024-11-06T21:00:00	4	Temperatura máxima	16.4
124963	7	Sololá	702	San José Chacayá	5	Chacayá	10	Octubre	2023-10-13T00:00:00	2024-11-06T21:00:00	3	Temperatura mínima	15.7
124964	7	Sololá	702	San José Chacayá	5	Chacayá	10	Octubre	2023-10-13T00:00:00	2024-11-06T21:00:00	5	Humedad	95
124965	7	Sololá	702	San José Chacayá	5	Chacayá	10	Octubre	2023-10-13T00:00:00	2024-11-06T21:00:00	6	Velocidad del viento	0
124966	7	Sololá	702	San José Chacayá	5	Chacayá	10	Octubre	2023-10-13T00:00:00	2024-11-06T21:00:00	7	Dirección del viento	0
124967	7	Sololá	702	San José Chacayá	5	Chacayá	10	Octubre	2023-10-13T00:00:00	2024-11-06T21:00:00	1	Precipitación	0
124968	7	Sololá	702	San José Chacayá	5	Chacayá	10	Octubre	2023-10-13T00:00:00	2024-11-06T21:00:00	8	Radiación solar	0
124969	7	Sololá	702	San José Chacayá	5	Chacayá	10	Octubre	2023-10-13T00:00:00	2024-11-06T22:00:00	2	Temperatura media	15.8
124970	7	Sololá	702	San José Chacayá	5	Chacayá	10	Octubre	2023-10-13T00:00:00	2024-11-06T22:00:00	4	Temperatura máxima	15.8
124971	7	Sololá	702	San José Chacayá	5	Chacayá	10	Octubre	2023-10-13T00:00:00	2024-11-06T22:00:00	3	Temperatura mínima	15.7
124972	7	Sololá	702	San José Chacayá	5	Chacayá	10	Octubre	2023-10-13T00:00:00	2024-11-06T22:00:00	5	Humedad	96
124973	7	Sololá	702	San José Chacayá	5	Chacayá	10	Octubre	2023-10-13T00:00:00	2024-11-06T22:00:00	6	Velocidad del viento	0
124974	7	Sololá	702	San José Chacayá	5	Chacayá	10	Octubre	2023-10-13T00:00:00	2024-11-06T22:00:00	7	Dirección del viento	0
124975	7	Sololá	702	San José Chacayá	5	Chacayá	10	Octubre	2023-10-13T00:00:00	2024-11-06T22:00:00	1	Precipitación	0
124976	7	Sololá	702	San José Chacayá	5	Chacayá	10	Octubre	2023-10-13T00:00:00	2024-11-06T22:00:00	8	Radiación solar	0
124977	7	Sololá	702	San José Chacayá	5	Chacayá	10	Octubre	2023-10-13T00:00:00	2024-11-06T23:00:00	2	Temperatura media	15.3
124978	7	Sololá	702	San José Chacayá	5	Chacayá	10	Octubre	2023-10-13T00:00:00	2024-11-06T23:00:00	4	Temperatura máxima	15.8
124979	7	Sololá	702	San José Chacayá	5	Chacayá	10	Octubre	2023-10-13T00:00:00	2024-11-06T23:00:00	3	Temperatura mínima	15.2
124980	7	Sololá	702	San José Chacayá	5	Chacayá	10	Octubre	2023-10-13T00:00:00	2024-11-06T23:00:00	5	Humedad	95
124981	7	Sololá	702	San José Chacayá	5	Chacayá	10	Octubre	2023-10-13T00:00:00	2024-11-06T23:00:00	6	Velocidad del viento	0
124982	7	Sololá	702	San José Chacayá	5	Chacayá	10	Octubre	2023-10-13T00:00:00	2024-11-06T23:00:00	7	Dirección del viento	0
124983	7	Sololá	702	San José Chacayá	5	Chacayá	10	Octubre	2023-10-13T00:00:00	2024-11-06T23:00:00	1	Precipitación	0
124984	7	Sololá	702	San José Chacayá	5	Chacayá	10	Octubre	2023-10-13T00:00:00	2024-11-06T23:00:00	8	Radiación solar	0
124985	7	Sololá	702	San José Chacayá	5	Chacayá	10	Octubre	2023-10-14T00:00:00	2024-11-06T00:00:00	2	Temperatura media	14.3
124986	7	Sololá	702	San José Chacayá	5	Chacayá	10	Octubre	2023-10-14T00:00:00	2024-11-06T00:00:00	4	Temperatura máxima	15.3
124987	7	Sololá	702	San José Chacayá	5	Chacayá	10	Octubre	2023-10-14T00:00:00	2024-11-06T00:00:00	3	Temperatura mínima	14.2
124988	7	Sololá	702	San José Chacayá	5	Chacayá	10	Octubre	2023-10-14T00:00:00	2024-11-06T00:00:00	5	Humedad	95
124989	7	Sololá	702	San José Chacayá	5	Chacayá	10	Octubre	2023-10-14T00:00:00	2024-11-06T00:00:00	6	Velocidad del viento	0
124990	7	Sololá	702	San José Chacayá	5	Chacayá	10	Octubre	2023-10-14T00:00:00	2024-11-06T00:00:00	7	Dirección del viento	0
124991	7	Sololá	702	San José Chacayá	5	Chacayá	10	Octubre	2023-10-14T00:00:00	2024-11-06T00:00:00	1	Precipitación	0
124992	7	Sololá	702	San José Chacayá	5	Chacayá	10	Octubre	2023-10-14T00:00:00	2024-11-06T00:00:00	8	Radiación solar	0
124993	7	Sololá	702	San José Chacayá	5	Chacayá	10	Octubre	2023-10-14T00:00:00	2024-11-06T01:00:00	2	Temperatura media	13.8
124994	7	Sololá	702	San José Chacayá	5	Chacayá	10	Octubre	2023-10-14T00:00:00	2024-11-06T01:00:00	4	Temperatura máxima	14.3
124995	7	Sololá	702	San José Chacayá	5	Chacayá	10	Octubre	2023-10-14T00:00:00	2024-11-06T01:00:00	3	Temperatura mínima	13.7
124996	7	Sololá	702	San José Chacayá	5	Chacayá	10	Octubre	2023-10-14T00:00:00	2024-11-06T01:00:00	5	Humedad	95
124997	7	Sololá	702	San José Chacayá	5	Chacayá	10	Octubre	2023-10-14T00:00:00	2024-11-06T01:00:00	6	Velocidad del viento	0
124998	7	Sololá	702	San José Chacayá	5	Chacayá	10	Octubre	2023-10-14T00:00:00	2024-11-06T01:00:00	7	Dirección del viento	0
124999	7	Sololá	702	San José Chacayá	5	Chacayá	10	Octubre	2023-10-14T00:00:00	2024-11-06T01:00:00	1	Precipitación	0
125000	7	Sololá	702	San José Chacayá	5	Chacayá	10	Octubre	2023-10-14T00:00:00	2024-11-06T01:00:00	8	Radiación solar	0
125001	7	Sololá	702	San José Chacayá	5	Chacayá	10	Octubre	2023-10-14T00:00:00	2024-11-06T02:00:00	2	Temperatura media	13.1
125002	7	Sololá	702	San José Chacayá	5	Chacayá	10	Octubre	2023-10-14T00:00:00	2024-11-06T02:00:00	4	Temperatura máxima	13.8
125003	7	Sololá	702	San José Chacayá	5	Chacayá	10	Octubre	2023-10-14T00:00:00	2024-11-06T02:00:00	3	Temperatura mínima	13.1
125004	7	Sololá	702	San José Chacayá	5	Chacayá	10	Octubre	2023-10-14T00:00:00	2024-11-06T02:00:00	5	Humedad	95
125005	7	Sololá	702	San José Chacayá	5	Chacayá	10	Octubre	2023-10-14T00:00:00	2024-11-06T02:00:00	6	Velocidad del viento	1.6
125006	7	Sololá	702	San José Chacayá	5	Chacayá	10	Octubre	2023-10-14T00:00:00	2024-11-06T02:00:00	7	Dirección del viento	1.61
125007	7	Sololá	702	San José Chacayá	5	Chacayá	10	Octubre	2023-10-14T00:00:00	2024-11-06T02:00:00	1	Precipitación	0
125008	7	Sololá	702	San José Chacayá	5	Chacayá	10	Octubre	2023-10-14T00:00:00	2024-11-06T02:00:00	8	Radiación solar	0
125009	7	Sololá	702	San José Chacayá	5	Chacayá	10	Octubre	2023-10-14T00:00:00	2024-11-06T03:00:00	2	Temperatura media	12.3
125010	7	Sololá	702	San José Chacayá	5	Chacayá	10	Octubre	2023-10-14T00:00:00	2024-11-06T03:00:00	4	Temperatura máxima	13.2
125011	7	Sololá	702	San José Chacayá	5	Chacayá	10	Octubre	2023-10-14T00:00:00	2024-11-06T03:00:00	3	Temperatura mínima	12.3
125012	7	Sololá	702	San José Chacayá	5	Chacayá	10	Octubre	2023-10-14T00:00:00	2024-11-06T03:00:00	5	Humedad	95
125013	7	Sololá	702	San José Chacayá	5	Chacayá	10	Octubre	2023-10-14T00:00:00	2024-11-06T03:00:00	6	Velocidad del viento	0
125014	7	Sololá	702	San José Chacayá	5	Chacayá	10	Octubre	2023-10-14T00:00:00	2024-11-06T03:00:00	7	Dirección del viento	0
125015	7	Sololá	702	San José Chacayá	5	Chacayá	10	Octubre	2023-10-14T00:00:00	2024-11-06T03:00:00	1	Precipitación	0
125016	7	Sololá	702	San José Chacayá	5	Chacayá	10	Octubre	2023-10-14T00:00:00	2024-11-06T03:00:00	8	Radiación solar	0
125017	7	Sololá	702	San José Chacayá	5	Chacayá	10	Octubre	2023-10-14T00:00:00	2024-11-06T04:00:00	2	Temperatura media	11.8
125018	7	Sololá	702	San José Chacayá	5	Chacayá	10	Octubre	2023-10-14T00:00:00	2024-11-06T04:00:00	4	Temperatura máxima	12.4
125019	7	Sololá	702	San José Chacayá	5	Chacayá	10	Octubre	2023-10-14T00:00:00	2024-11-06T04:00:00	3	Temperatura mínima	11.8
125020	7	Sololá	702	San José Chacayá	5	Chacayá	10	Octubre	2023-10-14T00:00:00	2024-11-06T04:00:00	5	Humedad	95
125021	7	Sololá	702	San José Chacayá	5	Chacayá	10	Octubre	2023-10-14T00:00:00	2024-11-06T04:00:00	6	Velocidad del viento	0
125022	7	Sololá	702	San José Chacayá	5	Chacayá	10	Octubre	2023-10-14T00:00:00	2024-11-06T04:00:00	7	Dirección del viento	0
125023	7	Sololá	702	San José Chacayá	5	Chacayá	10	Octubre	2023-10-14T00:00:00	2024-11-06T04:00:00	1	Precipitación	0
125024	7	Sololá	702	San José Chacayá	5	Chacayá	10	Octubre	2023-10-14T00:00:00	2024-11-06T04:00:00	8	Radiación solar	0
125025	7	Sololá	702	San José Chacayá	5	Chacayá	10	Octubre	2023-10-14T00:00:00	2024-11-06T05:00:00	2	Temperatura media	11.7
125026	7	Sololá	702	San José Chacayá	5	Chacayá	10	Octubre	2023-10-14T00:00:00	2024-11-06T05:00:00	4	Temperatura máxima	11.8
125027	7	Sololá	702	San José Chacayá	5	Chacayá	10	Octubre	2023-10-14T00:00:00	2024-11-06T05:00:00	3	Temperatura mínima	11.5
125028	7	Sololá	702	San José Chacayá	5	Chacayá	10	Octubre	2023-10-14T00:00:00	2024-11-06T05:00:00	5	Humedad	96
125029	7	Sololá	702	San José Chacayá	5	Chacayá	10	Octubre	2023-10-14T00:00:00	2024-11-06T05:00:00	6	Velocidad del viento	0
125030	7	Sololá	702	San José Chacayá	5	Chacayá	10	Octubre	2023-10-14T00:00:00	2024-11-06T05:00:00	7	Dirección del viento	0
125031	7	Sololá	702	San José Chacayá	5	Chacayá	10	Octubre	2023-10-14T00:00:00	2024-11-06T05:00:00	1	Precipitación	0
125032	7	Sololá	702	San José Chacayá	5	Chacayá	10	Octubre	2023-10-14T00:00:00	2024-11-06T05:00:00	8	Radiación solar	0
125033	7	Sololá	702	San José Chacayá	5	Chacayá	10	Octubre	2023-10-14T00:00:00	2024-11-06T06:00:00	2	Temperatura media	11.4
125034	7	Sololá	702	San José Chacayá	5	Chacayá	10	Octubre	2023-10-14T00:00:00	2024-11-06T06:00:00	4	Temperatura máxima	11.7
125035	7	Sololá	702	San José Chacayá	5	Chacayá	10	Octubre	2023-10-14T00:00:00	2024-11-06T06:00:00	3	Temperatura mínima	11.3
125036	7	Sololá	702	San José Chacayá	5	Chacayá	10	Octubre	2023-10-14T00:00:00	2024-11-06T06:00:00	5	Humedad	95
125037	7	Sololá	702	San José Chacayá	5	Chacayá	10	Octubre	2023-10-14T00:00:00	2024-11-06T06:00:00	6	Velocidad del viento	0
125038	7	Sololá	702	San José Chacayá	5	Chacayá	10	Octubre	2023-10-14T00:00:00	2024-11-06T06:00:00	7	Dirección del viento	0
125039	7	Sololá	702	San José Chacayá	5	Chacayá	10	Octubre	2023-10-14T00:00:00	2024-11-06T06:00:00	1	Precipitación	0
125040	7	Sololá	702	San José Chacayá	5	Chacayá	10	Octubre	2023-10-14T00:00:00	2024-11-06T06:00:00	8	Radiación solar	1
125041	7	Sololá	702	San José Chacayá	5	Chacayá	10	Octubre	2023-10-14T00:00:00	2024-11-06T07:00:00	2	Temperatura media	11.2
125042	7	Sololá	702	San José Chacayá	5	Chacayá	10	Octubre	2023-10-14T00:00:00	2024-11-06T07:00:00	4	Temperatura máxima	11.4
125043	7	Sololá	702	San José Chacayá	5	Chacayá	10	Octubre	2023-10-14T00:00:00	2024-11-06T07:00:00	3	Temperatura mínima	11.2
125044	7	Sololá	702	San José Chacayá	5	Chacayá	10	Octubre	2023-10-14T00:00:00	2024-11-06T07:00:00	5	Humedad	95
125045	7	Sololá	702	San José Chacayá	5	Chacayá	10	Octubre	2023-10-14T00:00:00	2024-11-06T07:00:00	6	Velocidad del viento	0
125046	7	Sololá	702	San José Chacayá	5	Chacayá	10	Octubre	2023-10-14T00:00:00	2024-11-06T07:00:00	7	Dirección del viento	0
125047	7	Sololá	702	San José Chacayá	5	Chacayá	10	Octubre	2023-10-14T00:00:00	2024-11-06T07:00:00	1	Precipitación	0
125048	7	Sololá	702	San José Chacayá	5	Chacayá	10	Octubre	2023-10-14T00:00:00	2024-11-06T07:00:00	8	Radiación solar	113
125049	7	Sololá	702	San José Chacayá	5	Chacayá	10	Octubre	2023-10-14T00:00:00	2024-11-06T08:00:00	2	Temperatura media	13.6
125050	7	Sololá	702	San José Chacayá	5	Chacayá	10	Octubre	2023-10-14T00:00:00	2024-11-06T08:00:00	4	Temperatura máxima	13.6
125051	7	Sololá	702	San José Chacayá	5	Chacayá	10	Octubre	2023-10-14T00:00:00	2024-11-06T08:00:00	3	Temperatura mínima	11.1
125052	7	Sololá	702	San José Chacayá	5	Chacayá	10	Octubre	2023-10-14T00:00:00	2024-11-06T08:00:00	5	Humedad	93
125053	7	Sololá	702	San José Chacayá	5	Chacayá	10	Octubre	2023-10-14T00:00:00	2024-11-06T08:00:00	6	Velocidad del viento	0
125054	7	Sololá	702	San José Chacayá	5	Chacayá	10	Octubre	2023-10-14T00:00:00	2024-11-06T08:00:00	7	Dirección del viento	0
125055	7	Sololá	702	San José Chacayá	5	Chacayá	10	Octubre	2023-10-14T00:00:00	2024-11-06T08:00:00	1	Precipitación	0
125056	7	Sololá	702	San José Chacayá	5	Chacayá	10	Octubre	2023-10-14T00:00:00	2024-11-06T08:00:00	8	Radiación solar	341
125057	7	Sololá	702	San José Chacayá	5	Chacayá	10	Octubre	2023-10-14T00:00:00	2024-11-06T09:00:00	2	Temperatura media	18.3
125058	7	Sololá	702	San José Chacayá	5	Chacayá	10	Octubre	2023-10-14T00:00:00	2024-11-06T09:00:00	4	Temperatura máxima	18.3
125059	7	Sololá	702	San José Chacayá	5	Chacayá	10	Octubre	2023-10-14T00:00:00	2024-11-06T09:00:00	3	Temperatura mínima	13.6
125060	7	Sololá	702	San José Chacayá	5	Chacayá	10	Octubre	2023-10-14T00:00:00	2024-11-06T09:00:00	5	Humedad	75
125061	7	Sololá	702	San José Chacayá	5	Chacayá	10	Octubre	2023-10-14T00:00:00	2024-11-06T09:00:00	6	Velocidad del viento	0
125062	7	Sololá	702	San José Chacayá	5	Chacayá	10	Octubre	2023-10-14T00:00:00	2024-11-06T09:00:00	7	Dirección del viento	0
125063	7	Sololá	702	San José Chacayá	5	Chacayá	10	Octubre	2023-10-14T00:00:00	2024-11-06T09:00:00	1	Precipitación	0
125064	7	Sololá	702	San José Chacayá	5	Chacayá	10	Octubre	2023-10-14T00:00:00	2024-11-06T09:00:00	8	Radiación solar	589
125065	7	Sololá	702	San José Chacayá	5	Chacayá	10	Octubre	2023-10-14T00:00:00	2024-11-06T10:00:00	2	Temperatura media	22.7
125066	7	Sololá	702	San José Chacayá	5	Chacayá	10	Octubre	2023-10-14T00:00:00	2024-11-06T10:00:00	4	Temperatura máxima	22.7
125067	7	Sololá	702	San José Chacayá	5	Chacayá	10	Octubre	2023-10-14T00:00:00	2024-11-06T10:00:00	3	Temperatura mínima	18.3
125068	7	Sololá	702	San José Chacayá	5	Chacayá	10	Octubre	2023-10-14T00:00:00	2024-11-06T10:00:00	5	Humedad	64
125069	7	Sololá	702	San José Chacayá	5	Chacayá	10	Octubre	2023-10-14T00:00:00	2024-11-06T10:00:00	6	Velocidad del viento	1.6
125070	7	Sololá	702	San José Chacayá	5	Chacayá	10	Octubre	2023-10-14T00:00:00	2024-11-06T10:00:00	7	Dirección del viento	1.61
125071	7	Sololá	702	San José Chacayá	5	Chacayá	10	Octubre	2023-10-14T00:00:00	2024-11-06T10:00:00	1	Precipitación	0
125072	7	Sololá	702	San José Chacayá	5	Chacayá	10	Octubre	2023-10-14T00:00:00	2024-11-06T10:00:00	8	Radiación solar	655
125073	7	Sololá	702	San José Chacayá	5	Chacayá	10	Octubre	2023-10-14T00:00:00	2024-11-06T11:00:00	2	Temperatura media	23.1
125074	7	Sololá	702	San José Chacayá	5	Chacayá	10	Octubre	2023-10-14T00:00:00	2024-11-06T11:00:00	4	Temperatura máxima	23.8
125075	7	Sololá	702	San José Chacayá	5	Chacayá	10	Octubre	2023-10-14T00:00:00	2024-11-06T11:00:00	3	Temperatura mínima	22.7
125076	7	Sololá	702	San José Chacayá	5	Chacayá	10	Octubre	2023-10-14T00:00:00	2024-11-06T11:00:00	5	Humedad	62
125077	7	Sololá	702	San José Chacayá	5	Chacayá	10	Octubre	2023-10-14T00:00:00	2024-11-06T11:00:00	6	Velocidad del viento	4.8
125078	7	Sololá	702	San José Chacayá	5	Chacayá	10	Octubre	2023-10-14T00:00:00	2024-11-06T11:00:00	7	Dirección del viento	4.83
125079	7	Sololá	702	San José Chacayá	5	Chacayá	10	Octubre	2023-10-14T00:00:00	2024-11-06T11:00:00	1	Precipitación	0
125080	7	Sololá	702	San José Chacayá	5	Chacayá	10	Octubre	2023-10-14T00:00:00	2024-11-06T11:00:00	8	Radiación solar	278
125081	7	Sololá	702	San José Chacayá	5	Chacayá	10	Octubre	2023-10-14T00:00:00	2024-11-06T12:00:00	2	Temperatura media	21.9
125082	7	Sololá	702	San José Chacayá	5	Chacayá	10	Octubre	2023-10-14T00:00:00	2024-11-06T12:00:00	4	Temperatura máxima	24.1
125083	7	Sololá	702	San José Chacayá	5	Chacayá	10	Octubre	2023-10-14T00:00:00	2024-11-06T12:00:00	3	Temperatura mínima	21.9
125084	7	Sololá	702	San José Chacayá	5	Chacayá	10	Octubre	2023-10-14T00:00:00	2024-11-06T12:00:00	5	Humedad	65
125085	7	Sololá	702	San José Chacayá	5	Chacayá	10	Octubre	2023-10-14T00:00:00	2024-11-06T12:00:00	6	Velocidad del viento	3.2
125086	7	Sololá	702	San José Chacayá	5	Chacayá	10	Octubre	2023-10-14T00:00:00	2024-11-06T12:00:00	7	Dirección del viento	3.22
125087	7	Sololá	702	San José Chacayá	5	Chacayá	10	Octubre	2023-10-14T00:00:00	2024-11-06T12:00:00	1	Precipitación	0
125088	7	Sololá	702	San José Chacayá	5	Chacayá	10	Octubre	2023-10-14T00:00:00	2024-11-06T12:00:00	8	Radiación solar	111
125089	7	Sololá	702	San José Chacayá	5	Chacayá	10	Octubre	2023-10-14T00:00:00	2024-11-06T13:00:00	2	Temperatura media	18.9
125090	7	Sololá	702	San José Chacayá	5	Chacayá	10	Octubre	2023-10-14T00:00:00	2024-11-06T13:00:00	4	Temperatura máxima	21.9
125091	7	Sololá	702	San José Chacayá	5	Chacayá	10	Octubre	2023-10-14T00:00:00	2024-11-06T13:00:00	3	Temperatura mínima	18.8
125092	7	Sololá	702	San José Chacayá	5	Chacayá	10	Octubre	2023-10-14T00:00:00	2024-11-06T13:00:00	5	Humedad	83
125093	7	Sololá	702	San José Chacayá	5	Chacayá	10	Octubre	2023-10-14T00:00:00	2024-11-06T13:00:00	6	Velocidad del viento	1.6
125094	7	Sololá	702	San José Chacayá	5	Chacayá	10	Octubre	2023-10-14T00:00:00	2024-11-06T13:00:00	7	Dirección del viento	1.61
125095	7	Sololá	702	San José Chacayá	5	Chacayá	10	Octubre	2023-10-14T00:00:00	2024-11-06T13:00:00	1	Precipitación	0
125096	7	Sololá	702	San José Chacayá	5	Chacayá	10	Octubre	2023-10-14T00:00:00	2024-11-06T13:00:00	8	Radiación solar	747
125097	7	Sololá	702	San José Chacayá	5	Chacayá	10	Octubre	2023-10-14T00:00:00	2024-11-06T14:00:00	2	Temperatura media	21.5
125098	7	Sololá	702	San José Chacayá	5	Chacayá	10	Octubre	2023-10-14T00:00:00	2024-11-06T14:00:00	4	Temperatura máxima	21.5
125099	7	Sololá	702	San José Chacayá	5	Chacayá	10	Octubre	2023-10-14T00:00:00	2024-11-06T14:00:00	3	Temperatura mínima	18.4
125100	7	Sololá	702	San José Chacayá	5	Chacayá	10	Octubre	2023-10-14T00:00:00	2024-11-06T14:00:00	5	Humedad	74
125101	7	Sololá	702	San José Chacayá	5	Chacayá	10	Octubre	2023-10-14T00:00:00	2024-11-06T14:00:00	6	Velocidad del viento	1.6
125102	7	Sololá	702	San José Chacayá	5	Chacayá	10	Octubre	2023-10-14T00:00:00	2024-11-06T14:00:00	7	Dirección del viento	1.61
125103	7	Sololá	702	San José Chacayá	5	Chacayá	10	Octubre	2023-10-14T00:00:00	2024-11-06T14:00:00	1	Precipitación	0
125104	7	Sololá	702	San José Chacayá	5	Chacayá	10	Octubre	2023-10-14T00:00:00	2024-11-06T14:00:00	8	Radiación solar	298
125105	7	Sololá	702	San José Chacayá	5	Chacayá	10	Octubre	2023-10-14T00:00:00	2024-11-06T15:00:00	2	Temperatura media	21.3
125106	7	Sololá	702	San José Chacayá	5	Chacayá	10	Octubre	2023-10-14T00:00:00	2024-11-06T15:00:00	4	Temperatura máxima	22.4
125107	7	Sololá	702	San José Chacayá	5	Chacayá	10	Octubre	2023-10-14T00:00:00	2024-11-06T15:00:00	3	Temperatura mínima	21.3
125108	7	Sololá	702	San José Chacayá	5	Chacayá	10	Octubre	2023-10-14T00:00:00	2024-11-06T15:00:00	5	Humedad	75
125109	7	Sololá	702	San José Chacayá	5	Chacayá	10	Octubre	2023-10-14T00:00:00	2024-11-06T15:00:00	6	Velocidad del viento	3.2
125110	7	Sololá	702	San José Chacayá	5	Chacayá	10	Octubre	2023-10-14T00:00:00	2024-11-06T15:00:00	7	Dirección del viento	3.22
125111	7	Sololá	702	San José Chacayá	5	Chacayá	10	Octubre	2023-10-14T00:00:00	2024-11-06T15:00:00	1	Precipitación	0
125112	7	Sololá	702	San José Chacayá	5	Chacayá	10	Octubre	2023-10-14T00:00:00	2024-11-06T15:00:00	8	Radiación solar	243
125113	7	Sololá	702	San José Chacayá	5	Chacayá	10	Octubre	2023-10-14T00:00:00	2024-11-06T16:00:00	2	Temperatura media	20.6
125114	7	Sololá	702	San José Chacayá	5	Chacayá	10	Octubre	2023-10-14T00:00:00	2024-11-06T16:00:00	4	Temperatura máxima	22.2
125115	7	Sololá	702	San José Chacayá	5	Chacayá	10	Octubre	2023-10-14T00:00:00	2024-11-06T16:00:00	3	Temperatura mínima	20.6
125116	7	Sololá	702	San José Chacayá	5	Chacayá	10	Octubre	2023-10-14T00:00:00	2024-11-06T16:00:00	5	Humedad	83
125117	7	Sololá	702	San José Chacayá	5	Chacayá	10	Octubre	2023-10-14T00:00:00	2024-11-06T16:00:00	6	Velocidad del viento	1.6
125118	7	Sololá	702	San José Chacayá	5	Chacayá	10	Octubre	2023-10-14T00:00:00	2024-11-06T16:00:00	7	Dirección del viento	1.61
125119	7	Sololá	702	San José Chacayá	5	Chacayá	10	Octubre	2023-10-14T00:00:00	2024-11-06T16:00:00	1	Precipitación	0
125120	7	Sololá	702	San José Chacayá	5	Chacayá	10	Octubre	2023-10-14T00:00:00	2024-11-06T16:00:00	8	Radiación solar	252
125121	7	Sololá	702	San José Chacayá	5	Chacayá	10	Octubre	2023-10-14T00:00:00	2024-11-06T17:00:00	2	Temperatura media	19
125122	7	Sololá	702	San José Chacayá	5	Chacayá	10	Octubre	2023-10-14T00:00:00	2024-11-06T17:00:00	4	Temperatura máxima	20.6
125123	7	Sololá	702	San José Chacayá	5	Chacayá	10	Octubre	2023-10-14T00:00:00	2024-11-06T17:00:00	3	Temperatura mínima	18.9
125124	7	Sololá	702	San José Chacayá	5	Chacayá	10	Octubre	2023-10-14T00:00:00	2024-11-06T17:00:00	5	Humedad	83
125125	7	Sololá	702	San José Chacayá	5	Chacayá	10	Octubre	2023-10-14T00:00:00	2024-11-06T17:00:00	6	Velocidad del viento	3.2
125126	7	Sololá	702	San José Chacayá	5	Chacayá	10	Octubre	2023-10-14T00:00:00	2024-11-06T17:00:00	7	Dirección del viento	3.22
125127	7	Sololá	702	San José Chacayá	5	Chacayá	10	Octubre	2023-10-14T00:00:00	2024-11-06T17:00:00	1	Precipitación	0
125128	7	Sololá	702	San José Chacayá	5	Chacayá	10	Octubre	2023-10-14T00:00:00	2024-11-06T17:00:00	8	Radiación solar	55
125129	7	Sololá	702	San José Chacayá	5	Chacayá	10	Octubre	2023-10-14T00:00:00	2024-11-06T18:00:00	2	Temperatura media	18.5
125130	7	Sololá	702	San José Chacayá	5	Chacayá	10	Octubre	2023-10-14T00:00:00	2024-11-06T18:00:00	4	Temperatura máxima	19
125131	7	Sololá	702	San José Chacayá	5	Chacayá	10	Octubre	2023-10-14T00:00:00	2024-11-06T18:00:00	3	Temperatura mínima	18.5
125132	7	Sololá	702	San José Chacayá	5	Chacayá	10	Octubre	2023-10-14T00:00:00	2024-11-06T18:00:00	5	Humedad	81
125133	7	Sololá	702	San José Chacayá	5	Chacayá	10	Octubre	2023-10-14T00:00:00	2024-11-06T18:00:00	6	Velocidad del viento	0
125134	7	Sololá	702	San José Chacayá	5	Chacayá	10	Octubre	2023-10-14T00:00:00	2024-11-06T18:00:00	7	Dirección del viento	0
125135	7	Sololá	702	San José Chacayá	5	Chacayá	10	Octubre	2023-10-14T00:00:00	2024-11-06T18:00:00	1	Precipitación	0
125136	7	Sololá	702	San José Chacayá	5	Chacayá	10	Octubre	2023-10-14T00:00:00	2024-11-06T18:00:00	8	Radiación solar	3
125137	7	Sololá	702	San José Chacayá	5	Chacayá	10	Octubre	2023-10-14T00:00:00	2024-11-06T19:00:00	2	Temperatura media	16.8
125138	7	Sololá	702	San José Chacayá	5	Chacayá	10	Octubre	2023-10-14T00:00:00	2024-11-06T19:00:00	4	Temperatura máxima	18.5
125139	7	Sololá	702	San José Chacayá	5	Chacayá	10	Octubre	2023-10-14T00:00:00	2024-11-06T19:00:00	3	Temperatura mínima	16.8
125140	7	Sololá	702	San José Chacayá	5	Chacayá	10	Octubre	2023-10-14T00:00:00	2024-11-06T19:00:00	5	Humedad	86
125141	7	Sololá	702	San José Chacayá	5	Chacayá	10	Octubre	2023-10-14T00:00:00	2024-11-06T19:00:00	6	Velocidad del viento	0
125142	7	Sololá	702	San José Chacayá	5	Chacayá	10	Octubre	2023-10-14T00:00:00	2024-11-06T19:00:00	7	Dirección del viento	0
125143	7	Sololá	702	San José Chacayá	5	Chacayá	10	Octubre	2023-10-14T00:00:00	2024-11-06T19:00:00	1	Precipitación	0
125144	7	Sololá	702	San José Chacayá	5	Chacayá	10	Octubre	2023-10-14T00:00:00	2024-11-06T19:00:00	8	Radiación solar	0
125145	7	Sololá	702	San José Chacayá	5	Chacayá	10	Octubre	2023-10-14T00:00:00	2024-11-06T20:00:00	2	Temperatura media	16.5
125146	7	Sololá	702	San José Chacayá	5	Chacayá	10	Octubre	2023-10-14T00:00:00	2024-11-06T20:00:00	4	Temperatura máxima	16.8
125147	7	Sololá	702	San José Chacayá	5	Chacayá	10	Octubre	2023-10-14T00:00:00	2024-11-06T20:00:00	3	Temperatura mínima	16.1
125148	7	Sololá	702	San José Chacayá	5	Chacayá	10	Octubre	2023-10-14T00:00:00	2024-11-06T20:00:00	5	Humedad	84
125149	7	Sololá	702	San José Chacayá	5	Chacayá	10	Octubre	2023-10-14T00:00:00	2024-11-06T20:00:00	6	Velocidad del viento	1.6
125150	7	Sololá	702	San José Chacayá	5	Chacayá	10	Octubre	2023-10-14T00:00:00	2024-11-06T20:00:00	7	Dirección del viento	1.61
125151	7	Sololá	702	San José Chacayá	5	Chacayá	10	Octubre	2023-10-14T00:00:00	2024-11-06T20:00:00	1	Precipitación	0
125152	7	Sololá	702	San José Chacayá	5	Chacayá	10	Octubre	2023-10-14T00:00:00	2024-11-06T20:00:00	8	Radiación solar	0
125153	7	Sololá	702	San José Chacayá	5	Chacayá	10	Octubre	2023-10-14T00:00:00	2024-11-06T21:00:00	2	Temperatura media	16.3
125154	7	Sololá	702	San José Chacayá	5	Chacayá	10	Octubre	2023-10-14T00:00:00	2024-11-06T21:00:00	4	Temperatura máxima	16.7
125155	7	Sololá	702	San José Chacayá	5	Chacayá	10	Octubre	2023-10-14T00:00:00	2024-11-06T21:00:00	3	Temperatura mínima	16.3
125156	7	Sololá	702	San José Chacayá	5	Chacayá	10	Octubre	2023-10-14T00:00:00	2024-11-06T21:00:00	5	Humedad	86
125157	7	Sololá	702	San José Chacayá	5	Chacayá	10	Octubre	2023-10-14T00:00:00	2024-11-06T21:00:00	6	Velocidad del viento	1.6
125158	7	Sololá	702	San José Chacayá	5	Chacayá	10	Octubre	2023-10-14T00:00:00	2024-11-06T21:00:00	7	Dirección del viento	1.61
125159	7	Sololá	702	San José Chacayá	5	Chacayá	10	Octubre	2023-10-14T00:00:00	2024-11-06T21:00:00	1	Precipitación	0
125160	7	Sololá	702	San José Chacayá	5	Chacayá	10	Octubre	2023-10-14T00:00:00	2024-11-06T21:00:00	8	Radiación solar	0
125161	7	Sololá	702	San José Chacayá	5	Chacayá	10	Octubre	2023-10-14T00:00:00	2024-11-06T22:00:00	2	Temperatura media	16.4
125162	7	Sololá	702	San José Chacayá	5	Chacayá	10	Octubre	2023-10-14T00:00:00	2024-11-06T22:00:00	4	Temperatura máxima	16.4
125163	7	Sololá	702	San José Chacayá	5	Chacayá	10	Octubre	2023-10-14T00:00:00	2024-11-06T22:00:00	3	Temperatura mínima	15.9
125164	7	Sololá	702	San José Chacayá	5	Chacayá	10	Octubre	2023-10-14T00:00:00	2024-11-06T22:00:00	5	Humedad	85
125165	7	Sololá	702	San José Chacayá	5	Chacayá	10	Octubre	2023-10-14T00:00:00	2024-11-06T22:00:00	6	Velocidad del viento	1.6
125166	7	Sololá	702	San José Chacayá	5	Chacayá	10	Octubre	2023-10-14T00:00:00	2024-11-06T22:00:00	7	Dirección del viento	1.61
125167	7	Sololá	702	San José Chacayá	5	Chacayá	10	Octubre	2023-10-14T00:00:00	2024-11-06T22:00:00	1	Precipitación	0
125168	7	Sololá	702	San José Chacayá	5	Chacayá	10	Octubre	2023-10-14T00:00:00	2024-11-06T22:00:00	8	Radiación solar	0
125169	7	Sololá	702	San José Chacayá	5	Chacayá	10	Octubre	2023-10-14T00:00:00	2024-11-06T23:00:00	2	Temperatura media	15.9
125170	7	Sololá	702	San José Chacayá	5	Chacayá	10	Octubre	2023-10-14T00:00:00	2024-11-06T23:00:00	4	Temperatura máxima	16.6
125171	7	Sololá	702	San José Chacayá	5	Chacayá	10	Octubre	2023-10-14T00:00:00	2024-11-06T23:00:00	3	Temperatura mínima	15.9
125172	7	Sololá	702	San José Chacayá	5	Chacayá	10	Octubre	2023-10-14T00:00:00	2024-11-06T23:00:00	5	Humedad	86
125173	7	Sololá	702	San José Chacayá	5	Chacayá	10	Octubre	2023-10-14T00:00:00	2024-11-06T23:00:00	6	Velocidad del viento	1.6
125174	7	Sololá	702	San José Chacayá	5	Chacayá	10	Octubre	2023-10-14T00:00:00	2024-11-06T23:00:00	7	Dirección del viento	1.61
125175	7	Sololá	702	San José Chacayá	5	Chacayá	10	Octubre	2023-10-14T00:00:00	2024-11-06T23:00:00	1	Precipitación	0
125176	7	Sololá	702	San José Chacayá	5	Chacayá	10	Octubre	2023-10-14T00:00:00	2024-11-06T23:00:00	8	Radiación solar	0
125177	7	Sololá	702	San José Chacayá	5	Chacayá	10	Octubre	2023-10-15T00:00:00	2024-11-06T00:00:00	2	Temperatura media	15
125178	7	Sololá	702	San José Chacayá	5	Chacayá	10	Octubre	2023-10-15T00:00:00	2024-11-06T00:00:00	4	Temperatura máxima	16
125179	7	Sololá	702	San José Chacayá	5	Chacayá	10	Octubre	2023-10-15T00:00:00	2024-11-06T00:00:00	3	Temperatura mínima	14.9
125180	7	Sololá	702	San José Chacayá	5	Chacayá	10	Octubre	2023-10-15T00:00:00	2024-11-06T00:00:00	5	Humedad	88
125181	7	Sololá	702	San José Chacayá	5	Chacayá	10	Octubre	2023-10-15T00:00:00	2024-11-06T00:00:00	6	Velocidad del viento	1.6
125182	7	Sololá	702	San José Chacayá	5	Chacayá	10	Octubre	2023-10-15T00:00:00	2024-11-06T00:00:00	7	Dirección del viento	1.61
125183	7	Sololá	702	San José Chacayá	5	Chacayá	10	Octubre	2023-10-15T00:00:00	2024-11-06T00:00:00	1	Precipitación	0
125184	7	Sololá	702	San José Chacayá	5	Chacayá	10	Octubre	2023-10-15T00:00:00	2024-11-06T00:00:00	8	Radiación solar	0
125185	7	Sololá	702	San José Chacayá	5	Chacayá	10	Octubre	2023-10-15T00:00:00	2024-11-06T01:00:00	2	Temperatura media	13.8
125186	7	Sololá	702	San José Chacayá	5	Chacayá	10	Octubre	2023-10-15T00:00:00	2024-11-06T01:00:00	4	Temperatura máxima	14.9
125187	7	Sololá	702	San José Chacayá	5	Chacayá	10	Octubre	2023-10-15T00:00:00	2024-11-06T01:00:00	3	Temperatura mínima	13.8
125188	7	Sololá	702	San José Chacayá	5	Chacayá	10	Octubre	2023-10-15T00:00:00	2024-11-06T01:00:00	5	Humedad	92
125189	7	Sololá	702	San José Chacayá	5	Chacayá	10	Octubre	2023-10-15T00:00:00	2024-11-06T01:00:00	6	Velocidad del viento	0
125190	7	Sololá	702	San José Chacayá	5	Chacayá	10	Octubre	2023-10-15T00:00:00	2024-11-06T01:00:00	7	Dirección del viento	0
125191	7	Sololá	702	San José Chacayá	5	Chacayá	10	Octubre	2023-10-15T00:00:00	2024-11-06T01:00:00	1	Precipitación	0
125192	7	Sololá	702	San José Chacayá	5	Chacayá	10	Octubre	2023-10-15T00:00:00	2024-11-06T01:00:00	8	Radiación solar	0
125193	7	Sololá	702	San José Chacayá	5	Chacayá	10	Octubre	2023-10-15T00:00:00	2024-11-06T02:00:00	2	Temperatura media	13.1
125194	7	Sololá	702	San José Chacayá	5	Chacayá	10	Octubre	2023-10-15T00:00:00	2024-11-06T02:00:00	4	Temperatura máxima	13.8
125195	7	Sololá	702	San José Chacayá	5	Chacayá	10	Octubre	2023-10-15T00:00:00	2024-11-06T02:00:00	3	Temperatura mínima	13.1
125196	7	Sololá	702	San José Chacayá	5	Chacayá	10	Octubre	2023-10-15T00:00:00	2024-11-06T02:00:00	5	Humedad	92
125197	7	Sololá	702	San José Chacayá	5	Chacayá	10	Octubre	2023-10-15T00:00:00	2024-11-06T02:00:00	6	Velocidad del viento	0
125198	7	Sololá	702	San José Chacayá	5	Chacayá	10	Octubre	2023-10-15T00:00:00	2024-11-06T02:00:00	7	Dirección del viento	0
125199	7	Sololá	702	San José Chacayá	5	Chacayá	10	Octubre	2023-10-15T00:00:00	2024-11-06T02:00:00	1	Precipitación	0
125200	7	Sololá	702	San José Chacayá	5	Chacayá	10	Octubre	2023-10-15T00:00:00	2024-11-06T02:00:00	8	Radiación solar	0
125201	7	Sololá	702	San José Chacayá	5	Chacayá	10	Octubre	2023-10-15T00:00:00	2024-11-06T03:00:00	2	Temperatura media	12.9
125202	7	Sololá	702	San José Chacayá	5	Chacayá	10	Octubre	2023-10-15T00:00:00	2024-11-06T03:00:00	4	Temperatura máxima	13.1
125203	7	Sololá	702	San José Chacayá	5	Chacayá	10	Octubre	2023-10-15T00:00:00	2024-11-06T03:00:00	3	Temperatura mínima	12.7
125204	7	Sololá	702	San José Chacayá	5	Chacayá	10	Octubre	2023-10-15T00:00:00	2024-11-06T03:00:00	5	Humedad	92
125205	7	Sololá	702	San José Chacayá	5	Chacayá	10	Octubre	2023-10-15T00:00:00	2024-11-06T03:00:00	6	Velocidad del viento	0
125206	7	Sololá	702	San José Chacayá	5	Chacayá	10	Octubre	2023-10-15T00:00:00	2024-11-06T03:00:00	7	Dirección del viento	0
125207	7	Sololá	702	San José Chacayá	5	Chacayá	10	Octubre	2023-10-15T00:00:00	2024-11-06T03:00:00	1	Precipitación	0
125208	7	Sololá	702	San José Chacayá	5	Chacayá	10	Octubre	2023-10-15T00:00:00	2024-11-06T03:00:00	8	Radiación solar	0
125209	7	Sololá	702	San José Chacayá	5	Chacayá	10	Octubre	2023-10-15T00:00:00	2024-11-06T04:00:00	2	Temperatura media	14.5
125210	7	Sololá	702	San José Chacayá	5	Chacayá	10	Octubre	2023-10-15T00:00:00	2024-11-06T04:00:00	4	Temperatura máxima	14.6
125211	7	Sololá	702	San José Chacayá	5	Chacayá	10	Octubre	2023-10-15T00:00:00	2024-11-06T04:00:00	3	Temperatura mínima	12.6
125212	7	Sololá	702	San José Chacayá	5	Chacayá	10	Octubre	2023-10-15T00:00:00	2024-11-06T04:00:00	5	Humedad	88
125213	7	Sololá	702	San José Chacayá	5	Chacayá	10	Octubre	2023-10-15T00:00:00	2024-11-06T04:00:00	6	Velocidad del viento	1.6
125214	7	Sololá	702	San José Chacayá	5	Chacayá	10	Octubre	2023-10-15T00:00:00	2024-11-06T04:00:00	7	Dirección del viento	1.61
125215	7	Sololá	702	San José Chacayá	5	Chacayá	10	Octubre	2023-10-15T00:00:00	2024-11-06T04:00:00	1	Precipitación	0
125216	7	Sololá	702	San José Chacayá	5	Chacayá	10	Octubre	2023-10-15T00:00:00	2024-11-06T04:00:00	8	Radiación solar	0
125217	7	Sololá	702	San José Chacayá	5	Chacayá	10	Octubre	2023-10-15T00:00:00	2024-11-06T05:00:00	2	Temperatura media	12.5
125218	7	Sololá	702	San José Chacayá	5	Chacayá	10	Octubre	2023-10-15T00:00:00	2024-11-06T05:00:00	4	Temperatura máxima	14.8
125219	7	Sololá	702	San José Chacayá	5	Chacayá	10	Octubre	2023-10-15T00:00:00	2024-11-06T05:00:00	3	Temperatura mínima	12.5
125220	7	Sololá	702	San José Chacayá	5	Chacayá	10	Octubre	2023-10-15T00:00:00	2024-11-06T05:00:00	5	Humedad	91
125221	7	Sololá	702	San José Chacayá	5	Chacayá	10	Octubre	2023-10-15T00:00:00	2024-11-06T05:00:00	6	Velocidad del viento	0
125222	7	Sololá	702	San José Chacayá	5	Chacayá	10	Octubre	2023-10-15T00:00:00	2024-11-06T05:00:00	7	Dirección del viento	0
125223	7	Sololá	702	San José Chacayá	5	Chacayá	10	Octubre	2023-10-15T00:00:00	2024-11-06T05:00:00	1	Precipitación	0
125224	7	Sololá	702	San José Chacayá	5	Chacayá	10	Octubre	2023-10-15T00:00:00	2024-11-06T05:00:00	8	Radiación solar	0
125225	7	Sololá	702	San José Chacayá	5	Chacayá	10	Octubre	2023-10-15T00:00:00	2024-11-06T06:00:00	2	Temperatura media	11.6
125226	7	Sololá	702	San José Chacayá	5	Chacayá	10	Octubre	2023-10-15T00:00:00	2024-11-06T06:00:00	4	Temperatura máxima	12.5
125227	7	Sololá	702	San José Chacayá	5	Chacayá	10	Octubre	2023-10-15T00:00:00	2024-11-06T06:00:00	3	Temperatura mínima	11.5
125228	7	Sololá	702	San José Chacayá	5	Chacayá	10	Octubre	2023-10-15T00:00:00	2024-11-06T06:00:00	5	Humedad	93
125229	7	Sololá	702	San José Chacayá	5	Chacayá	10	Octubre	2023-10-15T00:00:00	2024-11-06T06:00:00	6	Velocidad del viento	0
125230	7	Sololá	702	San José Chacayá	5	Chacayá	10	Octubre	2023-10-15T00:00:00	2024-11-06T06:00:00	7	Dirección del viento	0
125231	7	Sololá	702	San José Chacayá	5	Chacayá	10	Octubre	2023-10-15T00:00:00	2024-11-06T06:00:00	1	Precipitación	0
125232	7	Sololá	702	San José Chacayá	5	Chacayá	10	Octubre	2023-10-15T00:00:00	2024-11-06T06:00:00	8	Radiación solar	0
125233	7	Sololá	702	San José Chacayá	5	Chacayá	10	Octubre	2023-10-15T00:00:00	2024-11-06T07:00:00	2	Temperatura media	11
125234	7	Sololá	702	San José Chacayá	5	Chacayá	10	Octubre	2023-10-15T00:00:00	2024-11-06T07:00:00	4	Temperatura máxima	11.6
125235	7	Sololá	702	San José Chacayá	5	Chacayá	10	Octubre	2023-10-15T00:00:00	2024-11-06T07:00:00	3	Temperatura mínima	11
125236	7	Sololá	702	San José Chacayá	5	Chacayá	10	Octubre	2023-10-15T00:00:00	2024-11-06T07:00:00	5	Humedad	93
125237	7	Sololá	702	San José Chacayá	5	Chacayá	10	Octubre	2023-10-15T00:00:00	2024-11-06T07:00:00	6	Velocidad del viento	0
125238	7	Sololá	702	San José Chacayá	5	Chacayá	10	Octubre	2023-10-15T00:00:00	2024-11-06T07:00:00	7	Dirección del viento	0
125239	7	Sololá	702	San José Chacayá	5	Chacayá	10	Octubre	2023-10-15T00:00:00	2024-11-06T07:00:00	1	Precipitación	0
125240	7	Sololá	702	San José Chacayá	5	Chacayá	10	Octubre	2023-10-15T00:00:00	2024-11-06T07:00:00	8	Radiación solar	110
125241	7	Sololá	702	San José Chacayá	5	Chacayá	10	Octubre	2023-10-15T00:00:00	2024-11-06T08:00:00	2	Temperatura media	13.8
125242	7	Sololá	702	San José Chacayá	5	Chacayá	10	Octubre	2023-10-15T00:00:00	2024-11-06T08:00:00	4	Temperatura máxima	13.8
125243	7	Sololá	702	San José Chacayá	5	Chacayá	10	Octubre	2023-10-15T00:00:00	2024-11-06T08:00:00	3	Temperatura mínima	10.9
125244	7	Sololá	702	San José Chacayá	5	Chacayá	10	Octubre	2023-10-15T00:00:00	2024-11-06T08:00:00	5	Humedad	89
125245	7	Sololá	702	San José Chacayá	5	Chacayá	10	Octubre	2023-10-15T00:00:00	2024-11-06T08:00:00	6	Velocidad del viento	0
125246	7	Sololá	702	San José Chacayá	5	Chacayá	10	Octubre	2023-10-15T00:00:00	2024-11-06T08:00:00	7	Dirección del viento	0
125247	7	Sololá	702	San José Chacayá	5	Chacayá	10	Octubre	2023-10-15T00:00:00	2024-11-06T08:00:00	1	Precipitación	0
125248	7	Sololá	702	San José Chacayá	5	Chacayá	10	Octubre	2023-10-15T00:00:00	2024-11-06T08:00:00	8	Radiación solar	375
125249	7	Sololá	702	San José Chacayá	5	Chacayá	10	Octubre	2023-10-15T00:00:00	2024-11-06T09:00:00	2	Temperatura media	19.2
125250	7	Sololá	702	San José Chacayá	5	Chacayá	10	Octubre	2023-10-15T00:00:00	2024-11-06T09:00:00	4	Temperatura máxima	19.2
125251	7	Sololá	702	San José Chacayá	5	Chacayá	10	Octubre	2023-10-15T00:00:00	2024-11-06T09:00:00	3	Temperatura mínima	13.8
125252	7	Sololá	702	San José Chacayá	5	Chacayá	10	Octubre	2023-10-15T00:00:00	2024-11-06T09:00:00	5	Humedad	71
125253	7	Sololá	702	San José Chacayá	5	Chacayá	10	Octubre	2023-10-15T00:00:00	2024-11-06T09:00:00	6	Velocidad del viento	1.6
125254	7	Sololá	702	San José Chacayá	5	Chacayá	10	Octubre	2023-10-15T00:00:00	2024-11-06T09:00:00	7	Dirección del viento	1.61
125255	7	Sololá	702	San José Chacayá	5	Chacayá	10	Octubre	2023-10-15T00:00:00	2024-11-06T09:00:00	1	Precipitación	0
125256	7	Sololá	702	San José Chacayá	5	Chacayá	10	Octubre	2023-10-15T00:00:00	2024-11-06T09:00:00	8	Radiación solar	599
125257	7	Sololá	702	San José Chacayá	5	Chacayá	10	Octubre	2023-10-15T00:00:00	2024-11-06T10:00:00	2	Temperatura media	21.2
125258	7	Sololá	702	San José Chacayá	5	Chacayá	10	Octubre	2023-10-15T00:00:00	2024-11-06T10:00:00	4	Temperatura máxima	21.2
125259	7	Sololá	702	San José Chacayá	5	Chacayá	10	Octubre	2023-10-15T00:00:00	2024-11-06T10:00:00	3	Temperatura mínima	19.2
125260	7	Sololá	702	San José Chacayá	5	Chacayá	10	Octubre	2023-10-15T00:00:00	2024-11-06T10:00:00	5	Humedad	69
125261	7	Sololá	702	San José Chacayá	5	Chacayá	10	Octubre	2023-10-15T00:00:00	2024-11-06T10:00:00	6	Velocidad del viento	3.2
125262	7	Sololá	702	San José Chacayá	5	Chacayá	10	Octubre	2023-10-15T00:00:00	2024-11-06T10:00:00	7	Dirección del viento	3.22
125263	7	Sololá	702	San José Chacayá	5	Chacayá	10	Octubre	2023-10-15T00:00:00	2024-11-06T10:00:00	1	Precipitación	0
125264	7	Sololá	702	San José Chacayá	5	Chacayá	10	Octubre	2023-10-15T00:00:00	2024-11-06T10:00:00	8	Radiación solar	729
125265	7	Sololá	702	San José Chacayá	5	Chacayá	10	Octubre	2023-10-15T00:00:00	2024-11-06T11:00:00	2	Temperatura media	21.8
125266	7	Sololá	702	San José Chacayá	5	Chacayá	10	Octubre	2023-10-15T00:00:00	2024-11-06T11:00:00	4	Temperatura máxima	22.7
125267	7	Sololá	702	San José Chacayá	5	Chacayá	10	Octubre	2023-10-15T00:00:00	2024-11-06T11:00:00	3	Temperatura mínima	21.2
125268	7	Sololá	702	San José Chacayá	5	Chacayá	10	Octubre	2023-10-15T00:00:00	2024-11-06T11:00:00	5	Humedad	73
125269	7	Sololá	702	San José Chacayá	5	Chacayá	10	Octubre	2023-10-15T00:00:00	2024-11-06T11:00:00	6	Velocidad del viento	3.2
125270	7	Sololá	702	San José Chacayá	5	Chacayá	10	Octubre	2023-10-15T00:00:00	2024-11-06T11:00:00	7	Dirección del viento	3.22
125271	7	Sololá	702	San José Chacayá	5	Chacayá	10	Octubre	2023-10-15T00:00:00	2024-11-06T11:00:00	1	Precipitación	0
125272	7	Sololá	702	San José Chacayá	5	Chacayá	10	Octubre	2023-10-15T00:00:00	2024-11-06T11:00:00	8	Radiación solar	1001
125273	7	Sololá	702	San José Chacayá	5	Chacayá	10	Octubre	2023-10-15T00:00:00	2024-11-06T12:00:00	2	Temperatura media	23.2
125274	7	Sololá	702	San José Chacayá	5	Chacayá	10	Octubre	2023-10-15T00:00:00	2024-11-06T12:00:00	4	Temperatura máxima	23.2
125275	7	Sololá	702	San José Chacayá	5	Chacayá	10	Octubre	2023-10-15T00:00:00	2024-11-06T12:00:00	3	Temperatura mínima	21.5
125276	7	Sololá	702	San José Chacayá	5	Chacayá	10	Octubre	2023-10-15T00:00:00	2024-11-06T12:00:00	5	Humedad	69
125277	7	Sololá	702	San José Chacayá	5	Chacayá	10	Octubre	2023-10-15T00:00:00	2024-11-06T12:00:00	6	Velocidad del viento	3.2
125278	7	Sololá	702	San José Chacayá	5	Chacayá	10	Octubre	2023-10-15T00:00:00	2024-11-06T12:00:00	7	Dirección del viento	3.22
125279	7	Sololá	702	San José Chacayá	5	Chacayá	10	Octubre	2023-10-15T00:00:00	2024-11-06T12:00:00	1	Precipitación	0
125280	7	Sololá	702	San José Chacayá	5	Chacayá	10	Octubre	2023-10-15T00:00:00	2024-11-06T12:00:00	8	Radiación solar	467
125281	7	Sololá	702	San José Chacayá	5	Chacayá	10	Octubre	2023-10-15T00:00:00	2024-11-06T13:00:00	2	Temperatura media	21.1
125282	7	Sololá	702	San José Chacayá	5	Chacayá	10	Octubre	2023-10-15T00:00:00	2024-11-06T13:00:00	4	Temperatura máxima	23.2
125283	7	Sololá	702	San José Chacayá	5	Chacayá	10	Octubre	2023-10-15T00:00:00	2024-11-06T13:00:00	3	Temperatura mínima	21.1
125284	7	Sololá	702	San José Chacayá	5	Chacayá	10	Octubre	2023-10-15T00:00:00	2024-11-06T13:00:00	5	Humedad	77
125285	7	Sololá	702	San José Chacayá	5	Chacayá	10	Octubre	2023-10-15T00:00:00	2024-11-06T13:00:00	6	Velocidad del viento	4.8
125286	7	Sololá	702	San José Chacayá	5	Chacayá	10	Octubre	2023-10-15T00:00:00	2024-11-06T13:00:00	7	Dirección del viento	4.83
125287	7	Sololá	702	San José Chacayá	5	Chacayá	10	Octubre	2023-10-15T00:00:00	2024-11-06T13:00:00	1	Precipitación	0
125288	7	Sololá	702	San José Chacayá	5	Chacayá	10	Octubre	2023-10-15T00:00:00	2024-11-06T13:00:00	8	Radiación solar	362
125289	7	Sololá	702	San José Chacayá	5	Chacayá	10	Octubre	2023-10-15T00:00:00	2024-11-06T14:00:00	2	Temperatura media	20.4
125290	7	Sololá	702	San José Chacayá	5	Chacayá	10	Octubre	2023-10-15T00:00:00	2024-11-06T14:00:00	4	Temperatura máxima	21.1
125291	7	Sololá	702	San José Chacayá	5	Chacayá	10	Octubre	2023-10-15T00:00:00	2024-11-06T14:00:00	3	Temperatura mínima	20.3
125292	7	Sololá	702	San José Chacayá	5	Chacayá	10	Octubre	2023-10-15T00:00:00	2024-11-06T14:00:00	5	Humedad	79
125293	7	Sololá	702	San José Chacayá	5	Chacayá	10	Octubre	2023-10-15T00:00:00	2024-11-06T14:00:00	6	Velocidad del viento	3.2
125294	7	Sololá	702	San José Chacayá	5	Chacayá	10	Octubre	2023-10-15T00:00:00	2024-11-06T14:00:00	7	Dirección del viento	3.22
125295	7	Sololá	702	San José Chacayá	5	Chacayá	10	Octubre	2023-10-15T00:00:00	2024-11-06T14:00:00	1	Precipitación	0
125296	7	Sololá	702	San José Chacayá	5	Chacayá	10	Octubre	2023-10-15T00:00:00	2024-11-06T14:00:00	8	Radiación solar	385
125297	7	Sololá	702	San José Chacayá	5	Chacayá	10	Octubre	2023-10-15T00:00:00	2024-11-06T15:00:00	2	Temperatura media	20.2
125298	7	Sololá	702	San José Chacayá	5	Chacayá	10	Octubre	2023-10-15T00:00:00	2024-11-06T15:00:00	4	Temperatura máxima	21.2
125299	7	Sololá	702	San José Chacayá	5	Chacayá	10	Octubre	2023-10-15T00:00:00	2024-11-06T15:00:00	3	Temperatura mínima	20.2
125300	7	Sololá	702	San José Chacayá	5	Chacayá	10	Octubre	2023-10-15T00:00:00	2024-11-06T15:00:00	5	Humedad	77
125301	7	Sololá	702	San José Chacayá	5	Chacayá	10	Octubre	2023-10-15T00:00:00	2024-11-06T15:00:00	6	Velocidad del viento	3.2
125302	7	Sololá	702	San José Chacayá	5	Chacayá	10	Octubre	2023-10-15T00:00:00	2024-11-06T15:00:00	7	Dirección del viento	3.22
125303	7	Sololá	702	San José Chacayá	5	Chacayá	10	Octubre	2023-10-15T00:00:00	2024-11-06T15:00:00	1	Precipitación	0
125304	7	Sololá	702	San José Chacayá	5	Chacayá	10	Octubre	2023-10-15T00:00:00	2024-11-06T15:00:00	8	Radiación solar	207
125305	7	Sololá	702	San José Chacayá	5	Chacayá	10	Octubre	2023-10-15T00:00:00	2024-11-06T16:00:00	2	Temperatura media	18.6
125306	7	Sololá	702	San José Chacayá	5	Chacayá	10	Octubre	2023-10-15T00:00:00	2024-11-06T16:00:00	4	Temperatura máxima	20.2
125307	7	Sololá	702	San José Chacayá	5	Chacayá	10	Octubre	2023-10-15T00:00:00	2024-11-06T16:00:00	3	Temperatura mínima	18.4
125308	7	Sololá	702	San José Chacayá	5	Chacayá	10	Octubre	2023-10-15T00:00:00	2024-11-06T16:00:00	5	Humedad	87
125309	7	Sololá	702	San José Chacayá	5	Chacayá	10	Octubre	2023-10-15T00:00:00	2024-11-06T16:00:00	6	Velocidad del viento	4.8
125310	7	Sololá	702	San José Chacayá	5	Chacayá	10	Octubre	2023-10-15T00:00:00	2024-11-06T16:00:00	7	Dirección del viento	4.83
125311	7	Sololá	702	San José Chacayá	5	Chacayá	10	Octubre	2023-10-15T00:00:00	2024-11-06T16:00:00	1	Precipitación	0
125312	7	Sololá	702	San José Chacayá	5	Chacayá	10	Octubre	2023-10-15T00:00:00	2024-11-06T16:00:00	8	Radiación solar	62
125313	7	Sololá	702	San José Chacayá	5	Chacayá	10	Octubre	2023-10-15T00:00:00	2024-11-06T17:00:00	2	Temperatura media	16.9
125314	7	Sololá	702	San José Chacayá	5	Chacayá	10	Octubre	2023-10-15T00:00:00	2024-11-06T17:00:00	4	Temperatura máxima	18.8
125315	7	Sololá	702	San José Chacayá	5	Chacayá	10	Octubre	2023-10-15T00:00:00	2024-11-06T17:00:00	3	Temperatura mínima	16.9
125316	7	Sololá	702	San José Chacayá	5	Chacayá	10	Octubre	2023-10-15T00:00:00	2024-11-06T17:00:00	5	Humedad	93
125317	7	Sololá	702	San José Chacayá	5	Chacayá	10	Octubre	2023-10-15T00:00:00	2024-11-06T17:00:00	6	Velocidad del viento	3.2
125318	7	Sololá	702	San José Chacayá	5	Chacayá	10	Octubre	2023-10-15T00:00:00	2024-11-06T17:00:00	7	Dirección del viento	3.22
125319	7	Sololá	702	San José Chacayá	5	Chacayá	10	Octubre	2023-10-15T00:00:00	2024-11-06T17:00:00	1	Precipitación	2.4
125320	7	Sololá	702	San José Chacayá	5	Chacayá	10	Octubre	2023-10-15T00:00:00	2024-11-06T17:00:00	8	Radiación solar	20
125321	7	Sololá	702	San José Chacayá	5	Chacayá	10	Octubre	2023-10-15T00:00:00	2024-11-06T18:00:00	2	Temperatura media	16.3
125322	7	Sololá	702	San José Chacayá	5	Chacayá	10	Octubre	2023-10-15T00:00:00	2024-11-06T18:00:00	4	Temperatura máxima	16.9
125323	7	Sololá	702	San José Chacayá	5	Chacayá	10	Octubre	2023-10-15T00:00:00	2024-11-06T18:00:00	3	Temperatura mínima	16.3
125324	7	Sololá	702	San José Chacayá	5	Chacayá	10	Octubre	2023-10-15T00:00:00	2024-11-06T18:00:00	5	Humedad	94
125325	7	Sololá	702	San José Chacayá	5	Chacayá	10	Octubre	2023-10-15T00:00:00	2024-11-06T18:00:00	6	Velocidad del viento	1.6
125326	7	Sololá	702	San José Chacayá	5	Chacayá	10	Octubre	2023-10-15T00:00:00	2024-11-06T18:00:00	7	Dirección del viento	1.61
125327	7	Sololá	702	San José Chacayá	5	Chacayá	10	Octubre	2023-10-15T00:00:00	2024-11-06T18:00:00	1	Precipitación	0.2
125328	7	Sololá	702	San José Chacayá	5	Chacayá	10	Octubre	2023-10-15T00:00:00	2024-11-06T18:00:00	8	Radiación solar	0
125329	7	Sololá	702	San José Chacayá	5	Chacayá	10	Octubre	2023-10-15T00:00:00	2024-11-06T19:00:00	2	Temperatura media	16.1
125330	7	Sololá	702	San José Chacayá	5	Chacayá	10	Octubre	2023-10-15T00:00:00	2024-11-06T19:00:00	4	Temperatura máxima	16.4
125331	7	Sololá	702	San José Chacayá	5	Chacayá	10	Octubre	2023-10-15T00:00:00	2024-11-06T19:00:00	3	Temperatura mínima	16.1
125332	7	Sololá	702	San José Chacayá	5	Chacayá	10	Octubre	2023-10-15T00:00:00	2024-11-06T19:00:00	5	Humedad	94
125333	7	Sololá	702	San José Chacayá	5	Chacayá	10	Octubre	2023-10-15T00:00:00	2024-11-06T19:00:00	6	Velocidad del viento	0
125334	7	Sololá	702	San José Chacayá	5	Chacayá	10	Octubre	2023-10-15T00:00:00	2024-11-06T19:00:00	7	Dirección del viento	0
125335	7	Sololá	702	San José Chacayá	5	Chacayá	10	Octubre	2023-10-15T00:00:00	2024-11-06T19:00:00	1	Precipitación	0
125336	7	Sololá	702	San José Chacayá	5	Chacayá	10	Octubre	2023-10-15T00:00:00	2024-11-06T19:00:00	8	Radiación solar	0
125337	7	Sololá	702	San José Chacayá	5	Chacayá	10	Octubre	2023-10-15T00:00:00	2024-11-06T20:00:00	2	Temperatura media	15.9
125338	7	Sololá	702	San José Chacayá	5	Chacayá	10	Octubre	2023-10-15T00:00:00	2024-11-06T20:00:00	4	Temperatura máxima	16.1
125339	7	Sololá	702	San José Chacayá	5	Chacayá	10	Octubre	2023-10-15T00:00:00	2024-11-06T20:00:00	3	Temperatura mínima	15.9
125340	7	Sololá	702	San José Chacayá	5	Chacayá	10	Octubre	2023-10-15T00:00:00	2024-11-06T20:00:00	5	Humedad	95
125341	7	Sololá	702	San José Chacayá	5	Chacayá	10	Octubre	2023-10-15T00:00:00	2024-11-06T20:00:00	6	Velocidad del viento	0
125342	7	Sololá	702	San José Chacayá	5	Chacayá	10	Octubre	2023-10-15T00:00:00	2024-11-06T20:00:00	7	Dirección del viento	0
125343	7	Sololá	702	San José Chacayá	5	Chacayá	10	Octubre	2023-10-15T00:00:00	2024-11-06T20:00:00	1	Precipitación	0.4
125344	7	Sololá	702	San José Chacayá	5	Chacayá	10	Octubre	2023-10-15T00:00:00	2024-11-06T20:00:00	8	Radiación solar	0
125345	7	Sololá	702	San José Chacayá	5	Chacayá	10	Octubre	2023-10-15T00:00:00	2024-11-06T21:00:00	2	Temperatura media	15.7
125346	7	Sololá	702	San José Chacayá	5	Chacayá	10	Octubre	2023-10-15T00:00:00	2024-11-06T21:00:00	4	Temperatura máxima	16
125347	7	Sololá	702	San José Chacayá	5	Chacayá	10	Octubre	2023-10-15T00:00:00	2024-11-06T21:00:00	3	Temperatura mínima	15.6
125348	7	Sololá	702	San José Chacayá	5	Chacayá	10	Octubre	2023-10-15T00:00:00	2024-11-06T21:00:00	5	Humedad	95
125349	7	Sololá	702	San José Chacayá	5	Chacayá	10	Octubre	2023-10-15T00:00:00	2024-11-06T21:00:00	6	Velocidad del viento	0
125350	7	Sololá	702	San José Chacayá	5	Chacayá	10	Octubre	2023-10-15T00:00:00	2024-11-06T21:00:00	7	Dirección del viento	0
125351	7	Sololá	702	San José Chacayá	5	Chacayá	10	Octubre	2023-10-15T00:00:00	2024-11-06T21:00:00	1	Precipitación	0
125352	7	Sololá	702	San José Chacayá	5	Chacayá	10	Octubre	2023-10-15T00:00:00	2024-11-06T21:00:00	8	Radiación solar	0
125353	7	Sololá	702	San José Chacayá	5	Chacayá	10	Octubre	2023-10-15T00:00:00	2024-11-06T22:00:00	2	Temperatura media	15.1
125354	7	Sololá	702	San José Chacayá	5	Chacayá	10	Octubre	2023-10-15T00:00:00	2024-11-06T22:00:00	4	Temperatura máxima	15.7
125355	7	Sololá	702	San José Chacayá	5	Chacayá	10	Octubre	2023-10-15T00:00:00	2024-11-06T22:00:00	3	Temperatura mínima	15.1
125356	7	Sololá	702	San José Chacayá	5	Chacayá	10	Octubre	2023-10-15T00:00:00	2024-11-06T22:00:00	5	Humedad	94
125357	7	Sololá	702	San José Chacayá	5	Chacayá	10	Octubre	2023-10-15T00:00:00	2024-11-06T22:00:00	6	Velocidad del viento	0
125358	7	Sololá	702	San José Chacayá	5	Chacayá	10	Octubre	2023-10-15T00:00:00	2024-11-06T22:00:00	7	Dirección del viento	0
125359	7	Sololá	702	San José Chacayá	5	Chacayá	10	Octubre	2023-10-15T00:00:00	2024-11-06T22:00:00	1	Precipitación	0
125360	7	Sololá	702	San José Chacayá	5	Chacayá	10	Octubre	2023-10-15T00:00:00	2024-11-06T22:00:00	8	Radiación solar	0
125361	7	Sololá	702	San José Chacayá	5	Chacayá	10	Octubre	2023-10-15T00:00:00	2024-11-06T23:00:00	2	Temperatura media	14.8
125362	7	Sololá	702	San José Chacayá	5	Chacayá	10	Octubre	2023-10-15T00:00:00	2024-11-06T23:00:00	4	Temperatura máxima	15.1
125363	7	Sololá	702	San José Chacayá	5	Chacayá	10	Octubre	2023-10-15T00:00:00	2024-11-06T23:00:00	3	Temperatura mínima	14.7
125364	7	Sololá	702	San José Chacayá	5	Chacayá	10	Octubre	2023-10-15T00:00:00	2024-11-06T23:00:00	5	Humedad	95
125365	7	Sololá	702	San José Chacayá	5	Chacayá	10	Octubre	2023-10-15T00:00:00	2024-11-06T23:00:00	6	Velocidad del viento	0
125366	7	Sololá	702	San José Chacayá	5	Chacayá	10	Octubre	2023-10-15T00:00:00	2024-11-06T23:00:00	7	Dirección del viento	0
125367	7	Sololá	702	San José Chacayá	5	Chacayá	10	Octubre	2023-10-15T00:00:00	2024-11-06T23:00:00	1	Precipitación	0
125368	7	Sololá	702	San José Chacayá	5	Chacayá	10	Octubre	2023-10-15T00:00:00	2024-11-06T23:00:00	8	Radiación solar	0
125369	7	Sololá	702	San José Chacayá	5	Chacayá	10	Octubre	2023-10-16T00:00:00	2024-11-06T00:00:00	2	Temperatura media	14.5
125370	7	Sololá	702	San José Chacayá	5	Chacayá	10	Octubre	2023-10-16T00:00:00	2024-11-06T00:00:00	4	Temperatura máxima	14.9
125371	7	Sololá	702	San José Chacayá	5	Chacayá	10	Octubre	2023-10-16T00:00:00	2024-11-06T00:00:00	3	Temperatura mínima	14.4
125372	7	Sololá	702	San José Chacayá	5	Chacayá	10	Octubre	2023-10-16T00:00:00	2024-11-06T00:00:00	5	Humedad	94
125373	7	Sololá	702	San José Chacayá	5	Chacayá	10	Octubre	2023-10-16T00:00:00	2024-11-06T00:00:00	6	Velocidad del viento	0
125374	7	Sololá	702	San José Chacayá	5	Chacayá	10	Octubre	2023-10-16T00:00:00	2024-11-06T00:00:00	7	Dirección del viento	0
125375	7	Sololá	702	San José Chacayá	5	Chacayá	10	Octubre	2023-10-16T00:00:00	2024-11-06T00:00:00	1	Precipitación	3.4
125376	7	Sololá	702	San José Chacayá	5	Chacayá	10	Octubre	2023-10-16T00:00:00	2024-11-06T00:00:00	8	Radiación solar	0
125377	7	Sololá	702	San José Chacayá	5	Chacayá	10	Octubre	2023-10-16T00:00:00	2024-11-06T01:00:00	2	Temperatura media	14.3
125378	7	Sololá	702	San José Chacayá	5	Chacayá	10	Octubre	2023-10-16T00:00:00	2024-11-06T01:00:00	4	Temperatura máxima	14.5
125379	7	Sololá	702	San José Chacayá	5	Chacayá	10	Octubre	2023-10-16T00:00:00	2024-11-06T01:00:00	3	Temperatura mínima	14.2
125380	7	Sololá	702	San José Chacayá	5	Chacayá	10	Octubre	2023-10-16T00:00:00	2024-11-06T01:00:00	5	Humedad	95
125381	7	Sololá	702	San José Chacayá	5	Chacayá	10	Octubre	2023-10-16T00:00:00	2024-11-06T01:00:00	6	Velocidad del viento	0
125382	7	Sololá	702	San José Chacayá	5	Chacayá	10	Octubre	2023-10-16T00:00:00	2024-11-06T01:00:00	7	Dirección del viento	0
125383	7	Sololá	702	San José Chacayá	5	Chacayá	10	Octubre	2023-10-16T00:00:00	2024-11-06T01:00:00	1	Precipitación	1.8
125384	7	Sololá	702	San José Chacayá	5	Chacayá	10	Octubre	2023-10-16T00:00:00	2024-11-06T01:00:00	8	Radiación solar	0
125385	7	Sololá	702	San José Chacayá	5	Chacayá	10	Octubre	2023-10-16T00:00:00	2024-11-06T02:00:00	2	Temperatura media	13.8
125386	7	Sololá	702	San José Chacayá	5	Chacayá	10	Octubre	2023-10-16T00:00:00	2024-11-06T02:00:00	4	Temperatura máxima	14.3
125387	7	Sololá	702	San José Chacayá	5	Chacayá	10	Octubre	2023-10-16T00:00:00	2024-11-06T02:00:00	3	Temperatura mínima	13.8
125388	7	Sololá	702	San José Chacayá	5	Chacayá	10	Octubre	2023-10-16T00:00:00	2024-11-06T02:00:00	5	Humedad	95
125389	7	Sololá	702	San José Chacayá	5	Chacayá	10	Octubre	2023-10-16T00:00:00	2024-11-06T02:00:00	6	Velocidad del viento	0
125390	7	Sololá	702	San José Chacayá	5	Chacayá	10	Octubre	2023-10-16T00:00:00	2024-11-06T02:00:00	7	Dirección del viento	0
125391	7	Sololá	702	San José Chacayá	5	Chacayá	10	Octubre	2023-10-16T00:00:00	2024-11-06T02:00:00	1	Precipitación	0
125392	7	Sololá	702	San José Chacayá	5	Chacayá	10	Octubre	2023-10-16T00:00:00	2024-11-06T02:00:00	8	Radiación solar	0
125393	7	Sololá	702	San José Chacayá	5	Chacayá	10	Octubre	2023-10-16T00:00:00	2024-11-06T03:00:00	2	Temperatura media	13.3
125394	7	Sololá	702	San José Chacayá	5	Chacayá	10	Octubre	2023-10-16T00:00:00	2024-11-06T03:00:00	4	Temperatura máxima	13.9
125395	7	Sololá	702	San José Chacayá	5	Chacayá	10	Octubre	2023-10-16T00:00:00	2024-11-06T03:00:00	3	Temperatura mínima	13.3
125396	7	Sololá	702	San José Chacayá	5	Chacayá	10	Octubre	2023-10-16T00:00:00	2024-11-06T03:00:00	5	Humedad	95
125397	7	Sololá	702	San José Chacayá	5	Chacayá	10	Octubre	2023-10-16T00:00:00	2024-11-06T03:00:00	6	Velocidad del viento	0
125398	7	Sololá	702	San José Chacayá	5	Chacayá	10	Octubre	2023-10-16T00:00:00	2024-11-06T03:00:00	7	Dirección del viento	0
125399	7	Sololá	702	San José Chacayá	5	Chacayá	10	Octubre	2023-10-16T00:00:00	2024-11-06T03:00:00	1	Precipitación	0
125400	7	Sololá	702	San José Chacayá	5	Chacayá	10	Octubre	2023-10-16T00:00:00	2024-11-06T03:00:00	8	Radiación solar	0
125401	7	Sololá	702	San José Chacayá	5	Chacayá	10	Octubre	2023-10-16T00:00:00	2024-11-06T04:00:00	2	Temperatura media	12.6
125402	7	Sololá	702	San José Chacayá	5	Chacayá	10	Octubre	2023-10-16T00:00:00	2024-11-06T04:00:00	4	Temperatura máxima	13.3
125403	7	Sololá	702	San José Chacayá	5	Chacayá	10	Octubre	2023-10-16T00:00:00	2024-11-06T04:00:00	3	Temperatura mínima	12.6
125404	7	Sololá	702	San José Chacayá	5	Chacayá	10	Octubre	2023-10-16T00:00:00	2024-11-06T04:00:00	5	Humedad	95
125405	7	Sololá	702	San José Chacayá	5	Chacayá	10	Octubre	2023-10-16T00:00:00	2024-11-06T04:00:00	6	Velocidad del viento	0
125406	7	Sololá	702	San José Chacayá	5	Chacayá	10	Octubre	2023-10-16T00:00:00	2024-11-06T04:00:00	7	Dirección del viento	0
125407	7	Sololá	702	San José Chacayá	5	Chacayá	10	Octubre	2023-10-16T00:00:00	2024-11-06T04:00:00	1	Precipitación	0
125408	7	Sololá	702	San José Chacayá	5	Chacayá	10	Octubre	2023-10-16T00:00:00	2024-11-06T04:00:00	8	Radiación solar	0
125409	7	Sololá	702	San José Chacayá	5	Chacayá	10	Octubre	2023-10-16T00:00:00	2024-11-06T05:00:00	2	Temperatura media	12.7
125410	7	Sololá	702	San José Chacayá	5	Chacayá	10	Octubre	2023-10-16T00:00:00	2024-11-06T05:00:00	4	Temperatura máxima	12.9
125411	7	Sololá	702	San José Chacayá	5	Chacayá	10	Octubre	2023-10-16T00:00:00	2024-11-06T05:00:00	3	Temperatura mínima	12.1
125412	7	Sololá	702	San José Chacayá	5	Chacayá	10	Octubre	2023-10-16T00:00:00	2024-11-06T05:00:00	5	Humedad	89
125413	7	Sololá	702	San José Chacayá	5	Chacayá	10	Octubre	2023-10-16T00:00:00	2024-11-06T05:00:00	6	Velocidad del viento	1.6
125414	7	Sololá	702	San José Chacayá	5	Chacayá	10	Octubre	2023-10-16T00:00:00	2024-11-06T05:00:00	7	Dirección del viento	1.61
125415	7	Sololá	702	San José Chacayá	5	Chacayá	10	Octubre	2023-10-16T00:00:00	2024-11-06T05:00:00	1	Precipitación	0
125416	7	Sololá	702	San José Chacayá	5	Chacayá	10	Octubre	2023-10-16T00:00:00	2024-11-06T05:00:00	8	Radiación solar	0
125417	7	Sololá	702	San José Chacayá	5	Chacayá	10	Octubre	2023-10-16T00:00:00	2024-11-06T06:00:00	2	Temperatura media	12.3
125418	7	Sololá	702	San José Chacayá	5	Chacayá	10	Octubre	2023-10-16T00:00:00	2024-11-06T06:00:00	4	Temperatura máxima	13.9
125419	7	Sololá	702	San José Chacayá	5	Chacayá	10	Octubre	2023-10-16T00:00:00	2024-11-06T06:00:00	3	Temperatura mínima	12.3
125420	7	Sololá	702	San José Chacayá	5	Chacayá	10	Octubre	2023-10-16T00:00:00	2024-11-06T06:00:00	5	Humedad	89
125421	7	Sololá	702	San José Chacayá	5	Chacayá	10	Octubre	2023-10-16T00:00:00	2024-11-06T06:00:00	6	Velocidad del viento	3.2
125422	7	Sololá	702	San José Chacayá	5	Chacayá	10	Octubre	2023-10-16T00:00:00	2024-11-06T06:00:00	7	Dirección del viento	3.22
125423	7	Sololá	702	San José Chacayá	5	Chacayá	10	Octubre	2023-10-16T00:00:00	2024-11-06T06:00:00	1	Precipitación	0
125424	7	Sololá	702	San José Chacayá	5	Chacayá	10	Octubre	2023-10-16T00:00:00	2024-11-06T06:00:00	8	Radiación solar	0
125425	7	Sololá	702	San José Chacayá	5	Chacayá	10	Octubre	2023-10-16T00:00:00	2024-11-06T07:00:00	2	Temperatura media	14.2
125426	7	Sololá	702	San José Chacayá	5	Chacayá	10	Octubre	2023-10-16T00:00:00	2024-11-06T07:00:00	4	Temperatura máxima	14.2
125427	7	Sololá	702	San José Chacayá	5	Chacayá	10	Octubre	2023-10-16T00:00:00	2024-11-06T07:00:00	3	Temperatura mínima	11.9
125428	7	Sololá	702	San José Chacayá	5	Chacayá	10	Octubre	2023-10-16T00:00:00	2024-11-06T07:00:00	5	Humedad	79
125429	7	Sololá	702	San José Chacayá	5	Chacayá	10	Octubre	2023-10-16T00:00:00	2024-11-06T07:00:00	6	Velocidad del viento	4.8
125430	7	Sololá	702	San José Chacayá	5	Chacayá	10	Octubre	2023-10-16T00:00:00	2024-11-06T07:00:00	7	Dirección del viento	4.83
125431	7	Sololá	702	San José Chacayá	5	Chacayá	10	Octubre	2023-10-16T00:00:00	2024-11-06T07:00:00	1	Precipitación	0
125432	7	Sololá	702	San José Chacayá	5	Chacayá	10	Octubre	2023-10-16T00:00:00	2024-11-06T07:00:00	8	Radiación solar	97
125433	7	Sololá	702	San José Chacayá	5	Chacayá	10	Octubre	2023-10-16T00:00:00	2024-11-06T08:00:00	2	Temperatura media	15.7
125434	7	Sololá	702	San José Chacayá	5	Chacayá	10	Octubre	2023-10-16T00:00:00	2024-11-06T08:00:00	4	Temperatura máxima	15.8
125435	7	Sololá	702	San José Chacayá	5	Chacayá	10	Octubre	2023-10-16T00:00:00	2024-11-06T08:00:00	3	Temperatura mínima	13.1
125436	7	Sololá	702	San José Chacayá	5	Chacayá	10	Octubre	2023-10-16T00:00:00	2024-11-06T08:00:00	5	Humedad	76
125437	7	Sololá	702	San José Chacayá	5	Chacayá	10	Octubre	2023-10-16T00:00:00	2024-11-06T08:00:00	6	Velocidad del viento	4.8
125438	7	Sololá	702	San José Chacayá	5	Chacayá	10	Octubre	2023-10-16T00:00:00	2024-11-06T08:00:00	7	Dirección del viento	4.83
125439	7	Sololá	702	San José Chacayá	5	Chacayá	10	Octubre	2023-10-16T00:00:00	2024-11-06T08:00:00	1	Precipitación	0
125440	7	Sololá	702	San José Chacayá	5	Chacayá	10	Octubre	2023-10-16T00:00:00	2024-11-06T08:00:00	8	Radiación solar	273
125441	7	Sololá	702	San José Chacayá	5	Chacayá	10	Octubre	2023-10-16T00:00:00	2024-11-06T09:00:00	2	Temperatura media	17
125442	7	Sololá	702	San José Chacayá	5	Chacayá	10	Octubre	2023-10-16T00:00:00	2024-11-06T09:00:00	4	Temperatura máxima	17
125443	7	Sololá	702	San José Chacayá	5	Chacayá	10	Octubre	2023-10-16T00:00:00	2024-11-06T09:00:00	3	Temperatura mínima	15.2
125444	7	Sololá	702	San José Chacayá	5	Chacayá	10	Octubre	2023-10-16T00:00:00	2024-11-06T09:00:00	5	Humedad	71
125445	7	Sololá	702	San José Chacayá	5	Chacayá	10	Octubre	2023-10-16T00:00:00	2024-11-06T09:00:00	6	Velocidad del viento	1.6
125446	7	Sololá	702	San José Chacayá	5	Chacayá	10	Octubre	2023-10-16T00:00:00	2024-11-06T09:00:00	7	Dirección del viento	1.61
125447	7	Sololá	702	San José Chacayá	5	Chacayá	10	Octubre	2023-10-16T00:00:00	2024-11-06T09:00:00	1	Precipitación	0
125448	7	Sololá	702	San José Chacayá	5	Chacayá	10	Octubre	2023-10-16T00:00:00	2024-11-06T09:00:00	8	Radiación solar	500
125449	7	Sololá	702	San José Chacayá	5	Chacayá	10	Octubre	2023-10-16T00:00:00	2024-11-06T10:00:00	2	Temperatura media	19.9
125450	7	Sololá	702	San José Chacayá	5	Chacayá	10	Octubre	2023-10-16T00:00:00	2024-11-06T10:00:00	4	Temperatura máxima	19.9
125451	7	Sololá	702	San José Chacayá	5	Chacayá	10	Octubre	2023-10-16T00:00:00	2024-11-06T10:00:00	3	Temperatura mínima	17
125452	7	Sololá	702	San José Chacayá	5	Chacayá	10	Octubre	2023-10-16T00:00:00	2024-11-06T10:00:00	5	Humedad	69
125453	7	Sololá	702	San José Chacayá	5	Chacayá	10	Octubre	2023-10-16T00:00:00	2024-11-06T10:00:00	6	Velocidad del viento	1.6
125454	7	Sololá	702	San José Chacayá	5	Chacayá	10	Octubre	2023-10-16T00:00:00	2024-11-06T10:00:00	7	Dirección del viento	1.61
125455	7	Sololá	702	San José Chacayá	5	Chacayá	10	Octubre	2023-10-16T00:00:00	2024-11-06T10:00:00	1	Precipitación	0
125456	7	Sololá	702	San José Chacayá	5	Chacayá	10	Octubre	2023-10-16T00:00:00	2024-11-06T10:00:00	8	Radiación solar	646
125457	7	Sololá	702	San José Chacayá	5	Chacayá	10	Octubre	2023-10-16T00:00:00	2024-11-06T11:00:00	2	Temperatura media	20.9
125458	7	Sololá	702	San José Chacayá	5	Chacayá	10	Octubre	2023-10-16T00:00:00	2024-11-06T11:00:00	4	Temperatura máxima	21.3
125459	7	Sololá	702	San José Chacayá	5	Chacayá	10	Octubre	2023-10-16T00:00:00	2024-11-06T11:00:00	3	Temperatura mínima	19.9
125460	7	Sololá	702	San José Chacayá	5	Chacayá	10	Octubre	2023-10-16T00:00:00	2024-11-06T11:00:00	5	Humedad	64
125461	7	Sololá	702	San José Chacayá	5	Chacayá	10	Octubre	2023-10-16T00:00:00	2024-11-06T11:00:00	6	Velocidad del viento	4.8
125462	7	Sololá	702	San José Chacayá	5	Chacayá	10	Octubre	2023-10-16T00:00:00	2024-11-06T11:00:00	7	Dirección del viento	4.83
125463	7	Sololá	702	San José Chacayá	5	Chacayá	10	Octubre	2023-10-16T00:00:00	2024-11-06T11:00:00	1	Precipitación	0
125464	7	Sololá	702	San José Chacayá	5	Chacayá	10	Octubre	2023-10-16T00:00:00	2024-11-06T11:00:00	8	Radiación solar	466
125465	7	Sololá	702	San José Chacayá	5	Chacayá	10	Octubre	2023-10-16T00:00:00	2024-11-06T12:00:00	2	Temperatura media	20.8
125466	7	Sololá	702	San José Chacayá	5	Chacayá	10	Octubre	2023-10-16T00:00:00	2024-11-06T12:00:00	4	Temperatura máxima	21.1
125467	7	Sololá	702	San José Chacayá	5	Chacayá	10	Octubre	2023-10-16T00:00:00	2024-11-06T12:00:00	3	Temperatura mínima	19.7
125468	7	Sololá	702	San José Chacayá	5	Chacayá	10	Octubre	2023-10-16T00:00:00	2024-11-06T12:00:00	5	Humedad	62
125469	7	Sololá	702	San José Chacayá	5	Chacayá	10	Octubre	2023-10-16T00:00:00	2024-11-06T12:00:00	6	Velocidad del viento	3.2
125470	7	Sololá	702	San José Chacayá	5	Chacayá	10	Octubre	2023-10-16T00:00:00	2024-11-06T12:00:00	7	Dirección del viento	3.22
125471	7	Sololá	702	San José Chacayá	5	Chacayá	10	Octubre	2023-10-16T00:00:00	2024-11-06T12:00:00	1	Precipitación	0
125472	7	Sololá	702	San José Chacayá	5	Chacayá	10	Octubre	2023-10-16T00:00:00	2024-11-06T12:00:00	8	Radiación solar	489
125473	7	Sololá	702	San José Chacayá	5	Chacayá	10	Octubre	2023-10-16T00:00:00	2024-11-06T13:00:00	2	Temperatura media	20.7
125474	7	Sololá	702	San José Chacayá	5	Chacayá	10	Octubre	2023-10-16T00:00:00	2024-11-06T13:00:00	4	Temperatura máxima	21.6
125475	7	Sololá	702	San José Chacayá	5	Chacayá	10	Octubre	2023-10-16T00:00:00	2024-11-06T13:00:00	3	Temperatura mínima	20.4
125476	7	Sololá	702	San José Chacayá	5	Chacayá	10	Octubre	2023-10-16T00:00:00	2024-11-06T13:00:00	5	Humedad	63
125477	7	Sololá	702	San José Chacayá	5	Chacayá	10	Octubre	2023-10-16T00:00:00	2024-11-06T13:00:00	6	Velocidad del viento	3.2
125478	7	Sololá	702	San José Chacayá	5	Chacayá	10	Octubre	2023-10-16T00:00:00	2024-11-06T13:00:00	7	Dirección del viento	3.22
125479	7	Sololá	702	San José Chacayá	5	Chacayá	10	Octubre	2023-10-16T00:00:00	2024-11-06T13:00:00	1	Precipitación	0
125480	7	Sololá	702	San José Chacayá	5	Chacayá	10	Octubre	2023-10-16T00:00:00	2024-11-06T13:00:00	8	Radiación solar	389
125481	7	Sololá	702	San José Chacayá	5	Chacayá	10	Octubre	2023-10-16T00:00:00	2024-11-06T14:00:00	2	Temperatura media	20.7
125482	7	Sololá	702	San José Chacayá	5	Chacayá	10	Octubre	2023-10-16T00:00:00	2024-11-06T14:00:00	4	Temperatura máxima	20.7
125483	7	Sololá	702	San José Chacayá	5	Chacayá	10	Octubre	2023-10-16T00:00:00	2024-11-06T14:00:00	3	Temperatura mínima	19.6
125484	7	Sololá	702	San José Chacayá	5	Chacayá	10	Octubre	2023-10-16T00:00:00	2024-11-06T14:00:00	5	Humedad	66
125485	7	Sololá	702	San José Chacayá	5	Chacayá	10	Octubre	2023-10-16T00:00:00	2024-11-06T14:00:00	6	Velocidad del viento	4.8
125486	7	Sololá	702	San José Chacayá	5	Chacayá	10	Octubre	2023-10-16T00:00:00	2024-11-06T14:00:00	7	Dirección del viento	4.83
125487	7	Sololá	702	San José Chacayá	5	Chacayá	10	Octubre	2023-10-16T00:00:00	2024-11-06T14:00:00	1	Precipitación	0
125488	7	Sololá	702	San José Chacayá	5	Chacayá	10	Octubre	2023-10-16T00:00:00	2024-11-06T14:00:00	8	Radiación solar	359
125489	7	Sololá	702	San José Chacayá	5	Chacayá	10	Octubre	2023-10-16T00:00:00	2024-11-06T15:00:00	2	Temperatura media	20.5
125490	7	Sololá	702	San José Chacayá	5	Chacayá	10	Octubre	2023-10-16T00:00:00	2024-11-06T15:00:00	4	Temperatura máxima	21.1
125491	7	Sololá	702	San José Chacayá	5	Chacayá	10	Octubre	2023-10-16T00:00:00	2024-11-06T15:00:00	3	Temperatura mínima	20.2
125492	7	Sololá	702	San José Chacayá	5	Chacayá	10	Octubre	2023-10-16T00:00:00	2024-11-06T15:00:00	5	Humedad	62
125493	7	Sololá	702	San José Chacayá	5	Chacayá	10	Octubre	2023-10-16T00:00:00	2024-11-06T15:00:00	6	Velocidad del viento	3.2
125494	7	Sololá	702	San José Chacayá	5	Chacayá	10	Octubre	2023-10-16T00:00:00	2024-11-06T15:00:00	7	Dirección del viento	3.22
125495	7	Sololá	702	San José Chacayá	5	Chacayá	10	Octubre	2023-10-16T00:00:00	2024-11-06T15:00:00	1	Precipitación	0
125496	7	Sololá	702	San José Chacayá	5	Chacayá	10	Octubre	2023-10-16T00:00:00	2024-11-06T15:00:00	8	Radiación solar	259
125497	7	Sololá	702	San José Chacayá	5	Chacayá	10	Octubre	2023-10-16T00:00:00	2024-11-06T16:00:00	2	Temperatura media	19.7
125498	7	Sololá	702	San José Chacayá	5	Chacayá	10	Octubre	2023-10-16T00:00:00	2024-11-06T16:00:00	4	Temperatura máxima	20.5
125499	7	Sololá	702	San José Chacayá	5	Chacayá	10	Octubre	2023-10-16T00:00:00	2024-11-06T16:00:00	3	Temperatura mínima	19.4
125500	7	Sololá	702	San José Chacayá	5	Chacayá	10	Octubre	2023-10-16T00:00:00	2024-11-06T16:00:00	5	Humedad	66
125501	7	Sololá	702	San José Chacayá	5	Chacayá	10	Octubre	2023-10-16T00:00:00	2024-11-06T16:00:00	6	Velocidad del viento	3.2
125502	7	Sololá	702	San José Chacayá	5	Chacayá	10	Octubre	2023-10-16T00:00:00	2024-11-06T16:00:00	7	Dirección del viento	3.22
125503	7	Sololá	702	San José Chacayá	5	Chacayá	10	Octubre	2023-10-16T00:00:00	2024-11-06T16:00:00	1	Precipitación	0
125504	7	Sololá	702	San José Chacayá	5	Chacayá	10	Octubre	2023-10-16T00:00:00	2024-11-06T16:00:00	8	Radiación solar	254
125505	7	Sololá	702	San José Chacayá	5	Chacayá	10	Octubre	2023-10-16T00:00:00	2024-11-06T17:00:00	2	Temperatura media	19.4
125506	7	Sololá	702	San José Chacayá	5	Chacayá	10	Octubre	2023-10-16T00:00:00	2024-11-06T17:00:00	4	Temperatura máxima	20.1
125507	7	Sololá	702	San José Chacayá	5	Chacayá	10	Octubre	2023-10-16T00:00:00	2024-11-06T17:00:00	3	Temperatura mínima	19.2
125508	7	Sololá	702	San José Chacayá	5	Chacayá	10	Octubre	2023-10-16T00:00:00	2024-11-06T17:00:00	5	Humedad	68
125509	7	Sololá	702	San José Chacayá	5	Chacayá	10	Octubre	2023-10-16T00:00:00	2024-11-06T17:00:00	6	Velocidad del viento	1.6
125510	7	Sololá	702	San José Chacayá	5	Chacayá	10	Octubre	2023-10-16T00:00:00	2024-11-06T17:00:00	7	Dirección del viento	1.61
125511	7	Sololá	702	San José Chacayá	5	Chacayá	10	Octubre	2023-10-16T00:00:00	2024-11-06T17:00:00	1	Precipitación	0
125512	7	Sololá	702	San José Chacayá	5	Chacayá	10	Octubre	2023-10-16T00:00:00	2024-11-06T17:00:00	8	Radiación solar	37
125513	7	Sololá	702	San José Chacayá	5	Chacayá	10	Octubre	2023-10-16T00:00:00	2024-11-06T18:00:00	2	Temperatura media	16.9
125514	7	Sololá	702	San José Chacayá	5	Chacayá	10	Octubre	2023-10-16T00:00:00	2024-11-06T18:00:00	4	Temperatura máxima	19.6
125515	7	Sololá	702	San José Chacayá	5	Chacayá	10	Octubre	2023-10-16T00:00:00	2024-11-06T18:00:00	3	Temperatura mínima	16.9
125516	7	Sololá	702	San José Chacayá	5	Chacayá	10	Octubre	2023-10-16T00:00:00	2024-11-06T18:00:00	5	Humedad	74
125517	7	Sololá	702	San José Chacayá	5	Chacayá	10	Octubre	2023-10-16T00:00:00	2024-11-06T18:00:00	6	Velocidad del viento	3.2
125518	7	Sololá	702	San José Chacayá	5	Chacayá	10	Octubre	2023-10-16T00:00:00	2024-11-06T18:00:00	7	Dirección del viento	3.22
125519	7	Sololá	702	San José Chacayá	5	Chacayá	10	Octubre	2023-10-16T00:00:00	2024-11-06T18:00:00	1	Precipitación	0
125520	7	Sololá	702	San José Chacayá	5	Chacayá	10	Octubre	2023-10-16T00:00:00	2024-11-06T18:00:00	8	Radiación solar	3
125521	7	Sololá	702	San José Chacayá	5	Chacayá	10	Octubre	2023-10-16T00:00:00	2024-11-06T19:00:00	2	Temperatura media	16
125522	7	Sololá	702	San José Chacayá	5	Chacayá	10	Octubre	2023-10-16T00:00:00	2024-11-06T19:00:00	4	Temperatura máxima	16.9
125523	7	Sololá	702	San José Chacayá	5	Chacayá	10	Octubre	2023-10-16T00:00:00	2024-11-06T19:00:00	3	Temperatura mínima	16
125524	7	Sololá	702	San José Chacayá	5	Chacayá	10	Octubre	2023-10-16T00:00:00	2024-11-06T19:00:00	5	Humedad	81
125525	7	Sololá	702	San José Chacayá	5	Chacayá	10	Octubre	2023-10-16T00:00:00	2024-11-06T19:00:00	6	Velocidad del viento	1.6
125526	7	Sololá	702	San José Chacayá	5	Chacayá	10	Octubre	2023-10-16T00:00:00	2024-11-06T19:00:00	7	Dirección del viento	1.61
125527	7	Sololá	702	San José Chacayá	5	Chacayá	10	Octubre	2023-10-16T00:00:00	2024-11-06T19:00:00	1	Precipitación	0
125528	7	Sololá	702	San José Chacayá	5	Chacayá	10	Octubre	2023-10-16T00:00:00	2024-11-06T19:00:00	8	Radiación solar	0
125529	7	Sololá	702	San José Chacayá	5	Chacayá	10	Octubre	2023-10-16T00:00:00	2024-11-06T20:00:00	2	Temperatura media	15.9
125530	7	Sololá	702	San José Chacayá	5	Chacayá	10	Octubre	2023-10-16T00:00:00	2024-11-06T20:00:00	4	Temperatura máxima	16.1
125531	7	Sololá	702	San José Chacayá	5	Chacayá	10	Octubre	2023-10-16T00:00:00	2024-11-06T20:00:00	3	Temperatura mínima	15.8
125532	7	Sololá	702	San José Chacayá	5	Chacayá	10	Octubre	2023-10-16T00:00:00	2024-11-06T20:00:00	5	Humedad	75
125533	7	Sololá	702	San José Chacayá	5	Chacayá	10	Octubre	2023-10-16T00:00:00	2024-11-06T20:00:00	6	Velocidad del viento	4.8
125534	7	Sololá	702	San José Chacayá	5	Chacayá	10	Octubre	2023-10-16T00:00:00	2024-11-06T20:00:00	7	Dirección del viento	4.83
125535	7	Sololá	702	San José Chacayá	5	Chacayá	10	Octubre	2023-10-16T00:00:00	2024-11-06T20:00:00	1	Precipitación	0
125536	7	Sololá	702	San José Chacayá	5	Chacayá	10	Octubre	2023-10-16T00:00:00	2024-11-06T20:00:00	8	Radiación solar	0
125537	7	Sololá	702	San José Chacayá	5	Chacayá	10	Octubre	2023-10-16T00:00:00	2024-11-06T21:00:00	2	Temperatura media	15.7
125538	7	Sololá	702	San José Chacayá	5	Chacayá	10	Octubre	2023-10-16T00:00:00	2024-11-06T21:00:00	4	Temperatura máxima	16.2
125539	7	Sololá	702	San José Chacayá	5	Chacayá	10	Octubre	2023-10-16T00:00:00	2024-11-06T21:00:00	3	Temperatura mínima	15.6
125540	7	Sololá	702	San José Chacayá	5	Chacayá	10	Octubre	2023-10-16T00:00:00	2024-11-06T21:00:00	5	Humedad	77
125541	7	Sololá	702	San José Chacayá	5	Chacayá	10	Octubre	2023-10-16T00:00:00	2024-11-06T21:00:00	6	Velocidad del viento	1.6
125542	7	Sololá	702	San José Chacayá	5	Chacayá	10	Octubre	2023-10-16T00:00:00	2024-11-06T21:00:00	7	Dirección del viento	1.61
125543	7	Sololá	702	San José Chacayá	5	Chacayá	10	Octubre	2023-10-16T00:00:00	2024-11-06T21:00:00	1	Precipitación	0
125544	7	Sololá	702	San José Chacayá	5	Chacayá	10	Octubre	2023-10-16T00:00:00	2024-11-06T21:00:00	8	Radiación solar	0
125545	7	Sololá	702	San José Chacayá	5	Chacayá	10	Octubre	2023-10-16T00:00:00	2024-11-06T22:00:00	2	Temperatura media	15.8
125546	7	Sololá	702	San José Chacayá	5	Chacayá	10	Octubre	2023-10-16T00:00:00	2024-11-06T22:00:00	4	Temperatura máxima	15.8
125547	7	Sololá	702	San José Chacayá	5	Chacayá	10	Octubre	2023-10-16T00:00:00	2024-11-06T22:00:00	3	Temperatura mínima	14.9
125548	7	Sololá	702	San José Chacayá	5	Chacayá	10	Octubre	2023-10-16T00:00:00	2024-11-06T22:00:00	5	Humedad	74
125549	7	Sololá	702	San José Chacayá	5	Chacayá	10	Octubre	2023-10-16T00:00:00	2024-11-06T22:00:00	6	Velocidad del viento	3.2
125550	7	Sololá	702	San José Chacayá	5	Chacayá	10	Octubre	2023-10-16T00:00:00	2024-11-06T22:00:00	7	Dirección del viento	3.22
125551	7	Sololá	702	San José Chacayá	5	Chacayá	10	Octubre	2023-10-16T00:00:00	2024-11-06T22:00:00	1	Precipitación	0
125552	7	Sololá	702	San José Chacayá	5	Chacayá	10	Octubre	2023-10-16T00:00:00	2024-11-06T22:00:00	8	Radiación solar	0
125553	7	Sololá	702	San José Chacayá	5	Chacayá	10	Octubre	2023-10-16T00:00:00	2024-11-06T23:00:00	2	Temperatura media	15.4
125554	7	Sololá	702	San José Chacayá	5	Chacayá	10	Octubre	2023-10-16T00:00:00	2024-11-06T23:00:00	4	Temperatura máxima	16
125555	7	Sololá	702	San José Chacayá	5	Chacayá	10	Octubre	2023-10-16T00:00:00	2024-11-06T23:00:00	3	Temperatura mínima	15.3
125556	7	Sololá	702	San José Chacayá	5	Chacayá	10	Octubre	2023-10-16T00:00:00	2024-11-06T23:00:00	5	Humedad	74
125557	7	Sololá	702	San José Chacayá	5	Chacayá	10	Octubre	2023-10-16T00:00:00	2024-11-06T23:00:00	6	Velocidad del viento	6.4
125558	7	Sololá	702	San José Chacayá	5	Chacayá	10	Octubre	2023-10-16T00:00:00	2024-11-06T23:00:00	7	Dirección del viento	6.44
125559	7	Sololá	702	San José Chacayá	5	Chacayá	10	Octubre	2023-10-16T00:00:00	2024-11-06T23:00:00	1	Precipitación	0
125560	7	Sololá	702	San José Chacayá	5	Chacayá	10	Octubre	2023-10-16T00:00:00	2024-11-06T23:00:00	8	Radiación solar	0
125561	7	Sololá	702	San José Chacayá	5	Chacayá	10	Octubre	2023-10-17T00:00:00	2024-11-06T00:00:00	2	Temperatura media	15.2
125562	7	Sololá	702	San José Chacayá	5	Chacayá	10	Octubre	2023-10-17T00:00:00	2024-11-06T00:00:00	4	Temperatura máxima	15.5
125563	7	Sololá	702	San José Chacayá	5	Chacayá	10	Octubre	2023-10-17T00:00:00	2024-11-06T00:00:00	3	Temperatura mínima	15.2
125564	7	Sololá	702	San José Chacayá	5	Chacayá	10	Octubre	2023-10-17T00:00:00	2024-11-06T00:00:00	5	Humedad	75
125565	7	Sololá	702	San José Chacayá	5	Chacayá	10	Octubre	2023-10-17T00:00:00	2024-11-06T00:00:00	6	Velocidad del viento	8
125566	7	Sololá	702	San José Chacayá	5	Chacayá	10	Octubre	2023-10-17T00:00:00	2024-11-06T00:00:00	7	Dirección del viento	8.05
125567	7	Sololá	702	San José Chacayá	5	Chacayá	10	Octubre	2023-10-17T00:00:00	2024-11-06T00:00:00	1	Precipitación	0
125568	7	Sololá	702	San José Chacayá	5	Chacayá	10	Octubre	2023-10-17T00:00:00	2024-11-06T00:00:00	8	Radiación solar	0
125569	7	Sololá	702	San José Chacayá	5	Chacayá	10	Octubre	2023-10-17T00:00:00	2024-11-06T01:00:00	2	Temperatura media	13.8
125570	7	Sololá	702	San José Chacayá	5	Chacayá	10	Octubre	2023-10-17T00:00:00	2024-11-06T01:00:00	4	Temperatura máxima	15.2
125571	7	Sololá	702	San José Chacayá	5	Chacayá	10	Octubre	2023-10-17T00:00:00	2024-11-06T01:00:00	3	Temperatura mínima	13.6
125572	7	Sololá	702	San José Chacayá	5	Chacayá	10	Octubre	2023-10-17T00:00:00	2024-11-06T01:00:00	5	Humedad	82
125573	7	Sololá	702	San José Chacayá	5	Chacayá	10	Octubre	2023-10-17T00:00:00	2024-11-06T01:00:00	6	Velocidad del viento	3.2
125574	7	Sololá	702	San José Chacayá	5	Chacayá	10	Octubre	2023-10-17T00:00:00	2024-11-06T01:00:00	7	Dirección del viento	3.22
125575	7	Sololá	702	San José Chacayá	5	Chacayá	10	Octubre	2023-10-17T00:00:00	2024-11-06T01:00:00	1	Precipitación	0
125576	7	Sololá	702	San José Chacayá	5	Chacayá	10	Octubre	2023-10-17T00:00:00	2024-11-06T01:00:00	8	Radiación solar	0
125577	7	Sololá	702	San José Chacayá	5	Chacayá	10	Octubre	2023-10-17T00:00:00	2024-11-06T02:00:00	2	Temperatura media	12.2
125578	7	Sololá	702	San José Chacayá	5	Chacayá	10	Octubre	2023-10-17T00:00:00	2024-11-06T02:00:00	4	Temperatura máxima	13.8
125579	7	Sololá	702	San José Chacayá	5	Chacayá	10	Octubre	2023-10-17T00:00:00	2024-11-06T02:00:00	3	Temperatura mínima	12.2
125580	7	Sololá	702	San José Chacayá	5	Chacayá	10	Octubre	2023-10-17T00:00:00	2024-11-06T02:00:00	5	Humedad	88
125581	7	Sololá	702	San José Chacayá	5	Chacayá	10	Octubre	2023-10-17T00:00:00	2024-11-06T02:00:00	6	Velocidad del viento	0
125582	7	Sololá	702	San José Chacayá	5	Chacayá	10	Octubre	2023-10-17T00:00:00	2024-11-06T02:00:00	7	Dirección del viento	0
125583	7	Sololá	702	San José Chacayá	5	Chacayá	10	Octubre	2023-10-17T00:00:00	2024-11-06T02:00:00	1	Precipitación	0
125584	7	Sololá	702	San José Chacayá	5	Chacayá	10	Octubre	2023-10-17T00:00:00	2024-11-06T02:00:00	8	Radiación solar	0
125585	7	Sololá	702	San José Chacayá	5	Chacayá	10	Octubre	2023-10-17T00:00:00	2024-11-06T03:00:00	2	Temperatura media	11.6
125586	7	Sololá	702	San José Chacayá	5	Chacayá	10	Octubre	2023-10-17T00:00:00	2024-11-06T03:00:00	4	Temperatura máxima	12.2
125587	7	Sololá	702	San José Chacayá	5	Chacayá	10	Octubre	2023-10-17T00:00:00	2024-11-06T03:00:00	3	Temperatura mínima	11.6
125588	7	Sololá	702	San José Chacayá	5	Chacayá	10	Octubre	2023-10-17T00:00:00	2024-11-06T03:00:00	5	Humedad	90
125589	7	Sololá	702	San José Chacayá	5	Chacayá	10	Octubre	2023-10-17T00:00:00	2024-11-06T03:00:00	6	Velocidad del viento	0
125590	7	Sololá	702	San José Chacayá	5	Chacayá	10	Octubre	2023-10-17T00:00:00	2024-11-06T03:00:00	7	Dirección del viento	0
125591	7	Sololá	702	San José Chacayá	5	Chacayá	10	Octubre	2023-10-17T00:00:00	2024-11-06T03:00:00	1	Precipitación	0
125592	7	Sololá	702	San José Chacayá	5	Chacayá	10	Octubre	2023-10-17T00:00:00	2024-11-06T03:00:00	8	Radiación solar	0
125593	7	Sololá	702	San José Chacayá	5	Chacayá	10	Octubre	2023-10-17T00:00:00	2024-11-06T04:00:00	2	Temperatura media	10.7
125594	7	Sololá	702	San José Chacayá	5	Chacayá	10	Octubre	2023-10-17T00:00:00	2024-11-06T04:00:00	4	Temperatura máxima	11.6
125595	7	Sololá	702	San José Chacayá	5	Chacayá	10	Octubre	2023-10-17T00:00:00	2024-11-06T04:00:00	3	Temperatura mínima	10.7
125596	7	Sololá	702	San José Chacayá	5	Chacayá	10	Octubre	2023-10-17T00:00:00	2024-11-06T04:00:00	5	Humedad	91
125597	7	Sololá	702	San José Chacayá	5	Chacayá	10	Octubre	2023-10-17T00:00:00	2024-11-06T04:00:00	6	Velocidad del viento	0
125598	7	Sololá	702	San José Chacayá	5	Chacayá	10	Octubre	2023-10-17T00:00:00	2024-11-06T04:00:00	7	Dirección del viento	0
125599	7	Sololá	702	San José Chacayá	5	Chacayá	10	Octubre	2023-10-17T00:00:00	2024-11-06T04:00:00	1	Precipitación	0
125600	7	Sololá	702	San José Chacayá	5	Chacayá	10	Octubre	2023-10-17T00:00:00	2024-11-06T04:00:00	8	Radiación solar	0
125601	7	Sololá	702	San José Chacayá	5	Chacayá	10	Octubre	2023-10-17T00:00:00	2024-11-06T05:00:00	2	Temperatura media	10.2
125602	7	Sololá	702	San José Chacayá	5	Chacayá	10	Octubre	2023-10-17T00:00:00	2024-11-06T05:00:00	4	Temperatura máxima	10.7
125603	7	Sololá	702	San José Chacayá	5	Chacayá	10	Octubre	2023-10-17T00:00:00	2024-11-06T05:00:00	3	Temperatura mínima	10.2
125604	7	Sololá	702	San José Chacayá	5	Chacayá	10	Octubre	2023-10-17T00:00:00	2024-11-06T05:00:00	5	Humedad	92
125605	7	Sololá	702	San José Chacayá	5	Chacayá	10	Octubre	2023-10-17T00:00:00	2024-11-06T05:00:00	6	Velocidad del viento	0
125606	7	Sololá	702	San José Chacayá	5	Chacayá	10	Octubre	2023-10-17T00:00:00	2024-11-06T05:00:00	7	Dirección del viento	0
125607	7	Sololá	702	San José Chacayá	5	Chacayá	10	Octubre	2023-10-17T00:00:00	2024-11-06T05:00:00	1	Precipitación	0
125608	7	Sololá	702	San José Chacayá	5	Chacayá	10	Octubre	2023-10-17T00:00:00	2024-11-06T05:00:00	8	Radiación solar	0
125609	7	Sololá	702	San José Chacayá	5	Chacayá	10	Octubre	2023-10-17T00:00:00	2024-11-06T06:00:00	2	Temperatura media	9.9
125610	7	Sololá	702	San José Chacayá	5	Chacayá	10	Octubre	2023-10-17T00:00:00	2024-11-06T06:00:00	4	Temperatura máxima	10.2
125611	7	Sololá	702	San José Chacayá	5	Chacayá	10	Octubre	2023-10-17T00:00:00	2024-11-06T06:00:00	3	Temperatura mínima	9.9
125612	7	Sololá	702	San José Chacayá	5	Chacayá	10	Octubre	2023-10-17T00:00:00	2024-11-06T06:00:00	5	Humedad	93
125613	7	Sololá	702	San José Chacayá	5	Chacayá	10	Octubre	2023-10-17T00:00:00	2024-11-06T06:00:00	6	Velocidad del viento	0
125614	7	Sololá	702	San José Chacayá	5	Chacayá	10	Octubre	2023-10-17T00:00:00	2024-11-06T06:00:00	7	Dirección del viento	0
125615	7	Sololá	702	San José Chacayá	5	Chacayá	10	Octubre	2023-10-17T00:00:00	2024-11-06T06:00:00	1	Precipitación	0
125616	7	Sololá	702	San José Chacayá	5	Chacayá	10	Octubre	2023-10-17T00:00:00	2024-11-06T06:00:00	8	Radiación solar	0
125617	7	Sololá	702	San José Chacayá	5	Chacayá	10	Octubre	2023-10-17T00:00:00	2024-11-06T07:00:00	2	Temperatura media	9.9
125618	7	Sololá	702	San José Chacayá	5	Chacayá	10	Octubre	2023-10-17T00:00:00	2024-11-06T07:00:00	4	Temperatura máxima	10.1
125619	7	Sololá	702	San José Chacayá	5	Chacayá	10	Octubre	2023-10-17T00:00:00	2024-11-06T07:00:00	3	Temperatura mínima	9.8
125620	7	Sololá	702	San José Chacayá	5	Chacayá	10	Octubre	2023-10-17T00:00:00	2024-11-06T07:00:00	5	Humedad	92
125621	7	Sololá	702	San José Chacayá	5	Chacayá	10	Octubre	2023-10-17T00:00:00	2024-11-06T07:00:00	6	Velocidad del viento	0
125622	7	Sololá	702	San José Chacayá	5	Chacayá	10	Octubre	2023-10-17T00:00:00	2024-11-06T07:00:00	7	Dirección del viento	0
125623	7	Sololá	702	San José Chacayá	5	Chacayá	10	Octubre	2023-10-17T00:00:00	2024-11-06T07:00:00	1	Precipitación	0
125624	7	Sololá	702	San José Chacayá	5	Chacayá	10	Octubre	2023-10-17T00:00:00	2024-11-06T07:00:00	8	Radiación solar	103
125625	7	Sololá	702	San José Chacayá	5	Chacayá	10	Octubre	2023-10-17T00:00:00	2024-11-06T08:00:00	2	Temperatura media	12.5
125626	7	Sololá	702	San José Chacayá	5	Chacayá	10	Octubre	2023-10-17T00:00:00	2024-11-06T08:00:00	4	Temperatura máxima	12.5
125627	7	Sololá	702	San José Chacayá	5	Chacayá	10	Octubre	2023-10-17T00:00:00	2024-11-06T08:00:00	3	Temperatura mínima	9.8
125628	7	Sololá	702	San José Chacayá	5	Chacayá	10	Octubre	2023-10-17T00:00:00	2024-11-06T08:00:00	5	Humedad	86
125629	7	Sololá	702	San José Chacayá	5	Chacayá	10	Octubre	2023-10-17T00:00:00	2024-11-06T08:00:00	6	Velocidad del viento	0
125630	7	Sololá	702	San José Chacayá	5	Chacayá	10	Octubre	2023-10-17T00:00:00	2024-11-06T08:00:00	7	Dirección del viento	0
125631	7	Sololá	702	San José Chacayá	5	Chacayá	10	Octubre	2023-10-17T00:00:00	2024-11-06T08:00:00	1	Precipitación	0
125632	7	Sololá	702	San José Chacayá	5	Chacayá	10	Octubre	2023-10-17T00:00:00	2024-11-06T08:00:00	8	Radiación solar	384
125633	7	Sololá	702	San José Chacayá	5	Chacayá	10	Octubre	2023-10-17T00:00:00	2024-11-06T09:00:00	2	Temperatura media	18.3
125634	7	Sololá	702	San José Chacayá	5	Chacayá	10	Octubre	2023-10-17T00:00:00	2024-11-06T09:00:00	4	Temperatura máxima	18.3
125635	7	Sololá	702	San José Chacayá	5	Chacayá	10	Octubre	2023-10-17T00:00:00	2024-11-06T09:00:00	3	Temperatura mínima	12.5
125636	7	Sololá	702	San José Chacayá	5	Chacayá	10	Octubre	2023-10-17T00:00:00	2024-11-06T09:00:00	5	Humedad	65
125637	7	Sololá	702	San José Chacayá	5	Chacayá	10	Octubre	2023-10-17T00:00:00	2024-11-06T09:00:00	6	Velocidad del viento	1.6
125638	7	Sololá	702	San José Chacayá	5	Chacayá	10	Octubre	2023-10-17T00:00:00	2024-11-06T09:00:00	7	Dirección del viento	1.61
125639	7	Sololá	702	San José Chacayá	5	Chacayá	10	Octubre	2023-10-17T00:00:00	2024-11-06T09:00:00	1	Precipitación	0
125640	7	Sololá	702	San José Chacayá	5	Chacayá	10	Octubre	2023-10-17T00:00:00	2024-11-06T09:00:00	8	Radiación solar	420
125641	7	Sololá	702	San José Chacayá	5	Chacayá	10	Octubre	2023-10-17T00:00:00	2024-11-06T10:00:00	2	Temperatura media	18.8
125642	7	Sololá	702	San José Chacayá	5	Chacayá	10	Octubre	2023-10-17T00:00:00	2024-11-06T10:00:00	4	Temperatura máxima	19.9
125643	7	Sololá	702	San José Chacayá	5	Chacayá	10	Octubre	2023-10-17T00:00:00	2024-11-06T10:00:00	3	Temperatura mínima	18.3
125644	7	Sololá	702	San José Chacayá	5	Chacayá	10	Octubre	2023-10-17T00:00:00	2024-11-06T10:00:00	5	Humedad	61
125645	7	Sololá	702	San José Chacayá	5	Chacayá	10	Octubre	2023-10-17T00:00:00	2024-11-06T10:00:00	6	Velocidad del viento	3.2
125646	7	Sololá	702	San José Chacayá	5	Chacayá	10	Octubre	2023-10-17T00:00:00	2024-11-06T10:00:00	7	Dirección del viento	3.22
125647	7	Sololá	702	San José Chacayá	5	Chacayá	10	Octubre	2023-10-17T00:00:00	2024-11-06T10:00:00	1	Precipitación	0
125648	7	Sololá	702	San José Chacayá	5	Chacayá	10	Octubre	2023-10-17T00:00:00	2024-11-06T10:00:00	8	Radiación solar	453
125649	7	Sololá	702	San José Chacayá	5	Chacayá	10	Octubre	2023-10-17T00:00:00	2024-11-06T11:00:00	2	Temperatura media	18.3
125650	7	Sololá	702	San José Chacayá	5	Chacayá	10	Octubre	2023-10-17T00:00:00	2024-11-06T11:00:00	4	Temperatura máxima	19.1
125651	7	Sololá	702	San José Chacayá	5	Chacayá	10	Octubre	2023-10-17T00:00:00	2024-11-06T11:00:00	3	Temperatura mínima	18.1
125652	7	Sololá	702	San José Chacayá	5	Chacayá	10	Octubre	2023-10-17T00:00:00	2024-11-06T11:00:00	5	Humedad	63
125653	7	Sololá	702	San José Chacayá	5	Chacayá	10	Octubre	2023-10-17T00:00:00	2024-11-06T11:00:00	6	Velocidad del viento	6.4
125654	7	Sololá	702	San José Chacayá	5	Chacayá	10	Octubre	2023-10-17T00:00:00	2024-11-06T11:00:00	7	Dirección del viento	6.44
125655	7	Sololá	702	San José Chacayá	5	Chacayá	10	Octubre	2023-10-17T00:00:00	2024-11-06T11:00:00	1	Precipitación	0
125656	7	Sololá	702	San José Chacayá	5	Chacayá	10	Octubre	2023-10-17T00:00:00	2024-11-06T11:00:00	8	Radiación solar	317
125657	7	Sololá	702	San José Chacayá	5	Chacayá	10	Octubre	2023-10-17T00:00:00	2024-11-06T12:00:00	2	Temperatura media	18
125658	7	Sololá	702	San José Chacayá	5	Chacayá	10	Octubre	2023-10-17T00:00:00	2024-11-06T12:00:00	4	Temperatura máxima	19.3
125659	7	Sololá	702	San José Chacayá	5	Chacayá	10	Octubre	2023-10-17T00:00:00	2024-11-06T12:00:00	3	Temperatura mínima	18
125660	7	Sololá	702	San José Chacayá	5	Chacayá	10	Octubre	2023-10-17T00:00:00	2024-11-06T12:00:00	5	Humedad	67
125661	7	Sololá	702	San José Chacayá	5	Chacayá	10	Octubre	2023-10-17T00:00:00	2024-11-06T12:00:00	6	Velocidad del viento	3.2
125662	7	Sololá	702	San José Chacayá	5	Chacayá	10	Octubre	2023-10-17T00:00:00	2024-11-06T12:00:00	7	Dirección del viento	3.22
125663	7	Sololá	702	San José Chacayá	5	Chacayá	10	Octubre	2023-10-17T00:00:00	2024-11-06T12:00:00	1	Precipitación	0
125664	7	Sololá	702	San José Chacayá	5	Chacayá	10	Octubre	2023-10-17T00:00:00	2024-11-06T12:00:00	8	Radiación solar	494
125665	7	Sololá	702	San José Chacayá	5	Chacayá	10	Octubre	2023-10-17T00:00:00	2024-11-06T13:00:00	2	Temperatura media	20
125666	7	Sololá	702	San José Chacayá	5	Chacayá	10	Octubre	2023-10-17T00:00:00	2024-11-06T13:00:00	4	Temperatura máxima	20.5
125667	7	Sololá	702	San José Chacayá	5	Chacayá	10	Octubre	2023-10-17T00:00:00	2024-11-06T13:00:00	3	Temperatura mínima	18
125668	7	Sololá	702	San José Chacayá	5	Chacayá	10	Octubre	2023-10-17T00:00:00	2024-11-06T13:00:00	5	Humedad	62
125669	7	Sololá	702	San José Chacayá	5	Chacayá	10	Octubre	2023-10-17T00:00:00	2024-11-06T13:00:00	6	Velocidad del viento	3.2
125670	7	Sololá	702	San José Chacayá	5	Chacayá	10	Octubre	2023-10-17T00:00:00	2024-11-06T13:00:00	7	Dirección del viento	3.22
125671	7	Sololá	702	San José Chacayá	5	Chacayá	10	Octubre	2023-10-17T00:00:00	2024-11-06T13:00:00	1	Precipitación	0
125672	7	Sololá	702	San José Chacayá	5	Chacayá	10	Octubre	2023-10-17T00:00:00	2024-11-06T13:00:00	8	Radiación solar	382
125673	7	Sololá	702	San José Chacayá	5	Chacayá	10	Octubre	2023-10-17T00:00:00	2024-11-06T14:00:00	2	Temperatura media	19.8
125674	7	Sololá	702	San José Chacayá	5	Chacayá	10	Octubre	2023-10-17T00:00:00	2024-11-06T14:00:00	4	Temperatura máxima	20
125675	7	Sololá	702	San José Chacayá	5	Chacayá	10	Octubre	2023-10-17T00:00:00	2024-11-06T14:00:00	3	Temperatura mínima	19.5
125676	7	Sololá	702	San José Chacayá	5	Chacayá	10	Octubre	2023-10-17T00:00:00	2024-11-06T14:00:00	5	Humedad	61
125677	7	Sololá	702	San José Chacayá	5	Chacayá	10	Octubre	2023-10-17T00:00:00	2024-11-06T14:00:00	6	Velocidad del viento	1.6
125678	7	Sololá	702	San José Chacayá	5	Chacayá	10	Octubre	2023-10-17T00:00:00	2024-11-06T14:00:00	7	Dirección del viento	1.61
125679	7	Sololá	702	San José Chacayá	5	Chacayá	10	Octubre	2023-10-17T00:00:00	2024-11-06T14:00:00	1	Precipitación	0
125680	7	Sololá	702	San José Chacayá	5	Chacayá	10	Octubre	2023-10-17T00:00:00	2024-11-06T14:00:00	8	Radiación solar	486
125681	7	Sololá	702	San José Chacayá	5	Chacayá	10	Octubre	2023-10-17T00:00:00	2024-11-06T15:00:00	2	Temperatura media	19.6
125682	7	Sololá	702	San José Chacayá	5	Chacayá	10	Octubre	2023-10-17T00:00:00	2024-11-06T15:00:00	4	Temperatura máxima	20.6
125683	7	Sololá	702	San José Chacayá	5	Chacayá	10	Octubre	2023-10-17T00:00:00	2024-11-06T15:00:00	3	Temperatura mínima	19.6
125684	7	Sololá	702	San José Chacayá	5	Chacayá	10	Octubre	2023-10-17T00:00:00	2024-11-06T15:00:00	5	Humedad	63
125685	7	Sololá	702	San José Chacayá	5	Chacayá	10	Octubre	2023-10-17T00:00:00	2024-11-06T15:00:00	6	Velocidad del viento	1.6
125686	7	Sololá	702	San José Chacayá	5	Chacayá	10	Octubre	2023-10-17T00:00:00	2024-11-06T15:00:00	7	Dirección del viento	1.61
125687	7	Sololá	702	San José Chacayá	5	Chacayá	10	Octubre	2023-10-17T00:00:00	2024-11-06T15:00:00	1	Precipitación	0
125688	7	Sololá	702	San José Chacayá	5	Chacayá	10	Octubre	2023-10-17T00:00:00	2024-11-06T15:00:00	8	Radiación solar	213
125689	7	Sololá	702	San José Chacayá	5	Chacayá	10	Octubre	2023-10-17T00:00:00	2024-11-06T16:00:00	2	Temperatura media	18.4
125690	7	Sololá	702	San José Chacayá	5	Chacayá	10	Octubre	2023-10-17T00:00:00	2024-11-06T16:00:00	4	Temperatura máxima	19.8
125691	7	Sololá	702	San José Chacayá	5	Chacayá	10	Octubre	2023-10-17T00:00:00	2024-11-06T16:00:00	3	Temperatura mínima	18.2
125692	7	Sololá	702	San José Chacayá	5	Chacayá	10	Octubre	2023-10-17T00:00:00	2024-11-06T16:00:00	5	Humedad	66
125693	7	Sololá	702	San José Chacayá	5	Chacayá	10	Octubre	2023-10-17T00:00:00	2024-11-06T16:00:00	6	Velocidad del viento	3.2
125694	7	Sololá	702	San José Chacayá	5	Chacayá	10	Octubre	2023-10-17T00:00:00	2024-11-06T16:00:00	7	Dirección del viento	3.22
125695	7	Sololá	702	San José Chacayá	5	Chacayá	10	Octubre	2023-10-17T00:00:00	2024-11-06T16:00:00	1	Precipitación	0
125696	7	Sololá	702	San José Chacayá	5	Chacayá	10	Octubre	2023-10-17T00:00:00	2024-11-06T16:00:00	8	Radiación solar	289
125697	7	Sololá	702	San José Chacayá	5	Chacayá	10	Octubre	2023-10-17T00:00:00	2024-11-06T17:00:00	2	Temperatura media	17.9
125698	7	Sololá	702	San José Chacayá	5	Chacayá	10	Octubre	2023-10-17T00:00:00	2024-11-06T17:00:00	4	Temperatura máxima	18.4
125699	7	Sololá	702	San José Chacayá	5	Chacayá	10	Octubre	2023-10-17T00:00:00	2024-11-06T17:00:00	3	Temperatura mínima	17.9
125700	7	Sololá	702	San José Chacayá	5	Chacayá	10	Octubre	2023-10-17T00:00:00	2024-11-06T17:00:00	5	Humedad	69
125701	7	Sololá	702	San José Chacayá	5	Chacayá	10	Octubre	2023-10-17T00:00:00	2024-11-06T17:00:00	6	Velocidad del viento	4.8
125702	7	Sololá	702	San José Chacayá	5	Chacayá	10	Octubre	2023-10-17T00:00:00	2024-11-06T17:00:00	7	Dirección del viento	4.83
125703	7	Sololá	702	San José Chacayá	5	Chacayá	10	Octubre	2023-10-17T00:00:00	2024-11-06T17:00:00	1	Precipitación	0
125704	7	Sololá	702	San José Chacayá	5	Chacayá	10	Octubre	2023-10-17T00:00:00	2024-11-06T17:00:00	8	Radiación solar	107
125705	7	Sololá	702	San José Chacayá	5	Chacayá	10	Octubre	2023-10-17T00:00:00	2024-11-06T18:00:00	2	Temperatura media	17.1
125706	7	Sololá	702	San José Chacayá	5	Chacayá	10	Octubre	2023-10-17T00:00:00	2024-11-06T18:00:00	4	Temperatura máxima	17.9
125707	7	Sololá	702	San José Chacayá	5	Chacayá	10	Octubre	2023-10-17T00:00:00	2024-11-06T18:00:00	3	Temperatura mínima	17.1
125708	7	Sololá	702	San José Chacayá	5	Chacayá	10	Octubre	2023-10-17T00:00:00	2024-11-06T18:00:00	5	Humedad	70
125709	7	Sololá	702	San José Chacayá	5	Chacayá	10	Octubre	2023-10-17T00:00:00	2024-11-06T18:00:00	6	Velocidad del viento	3.2
125710	7	Sololá	702	San José Chacayá	5	Chacayá	10	Octubre	2023-10-17T00:00:00	2024-11-06T18:00:00	7	Dirección del viento	3.22
125711	7	Sololá	702	San José Chacayá	5	Chacayá	10	Octubre	2023-10-17T00:00:00	2024-11-06T18:00:00	1	Precipitación	0
125712	7	Sololá	702	San José Chacayá	5	Chacayá	10	Octubre	2023-10-17T00:00:00	2024-11-06T18:00:00	8	Radiación solar	3
125713	7	Sololá	702	San José Chacayá	5	Chacayá	10	Octubre	2023-10-17T00:00:00	2024-11-06T19:00:00	2	Temperatura media	15.3
125714	7	Sololá	702	San José Chacayá	5	Chacayá	10	Octubre	2023-10-17T00:00:00	2024-11-06T19:00:00	4	Temperatura máxima	17.1
125715	7	Sololá	702	San José Chacayá	5	Chacayá	10	Octubre	2023-10-17T00:00:00	2024-11-06T19:00:00	3	Temperatura mínima	15.3
125716	7	Sololá	702	San José Chacayá	5	Chacayá	10	Octubre	2023-10-17T00:00:00	2024-11-06T19:00:00	5	Humedad	80
125717	7	Sololá	702	San José Chacayá	5	Chacayá	10	Octubre	2023-10-17T00:00:00	2024-11-06T19:00:00	6	Velocidad del viento	0
125718	7	Sololá	702	San José Chacayá	5	Chacayá	10	Octubre	2023-10-17T00:00:00	2024-11-06T19:00:00	7	Dirección del viento	0
125719	7	Sololá	702	San José Chacayá	5	Chacayá	10	Octubre	2023-10-17T00:00:00	2024-11-06T19:00:00	1	Precipitación	0
125720	7	Sololá	702	San José Chacayá	5	Chacayá	10	Octubre	2023-10-17T00:00:00	2024-11-06T19:00:00	8	Radiación solar	0
125721	7	Sololá	702	San José Chacayá	5	Chacayá	10	Octubre	2023-10-17T00:00:00	2024-11-06T20:00:00	2	Temperatura media	13.3
125722	7	Sololá	702	San José Chacayá	5	Chacayá	10	Octubre	2023-10-17T00:00:00	2024-11-06T20:00:00	4	Temperatura máxima	15.3
125723	7	Sololá	702	San José Chacayá	5	Chacayá	10	Octubre	2023-10-17T00:00:00	2024-11-06T20:00:00	3	Temperatura mínima	13.3
125724	7	Sololá	702	San José Chacayá	5	Chacayá	10	Octubre	2023-10-17T00:00:00	2024-11-06T20:00:00	5	Humedad	86
125725	7	Sololá	702	San José Chacayá	5	Chacayá	10	Octubre	2023-10-17T00:00:00	2024-11-06T20:00:00	6	Velocidad del viento	0
125726	7	Sololá	702	San José Chacayá	5	Chacayá	10	Octubre	2023-10-17T00:00:00	2024-11-06T20:00:00	7	Dirección del viento	0
125727	7	Sololá	702	San José Chacayá	5	Chacayá	10	Octubre	2023-10-17T00:00:00	2024-11-06T20:00:00	1	Precipitación	0
125728	7	Sololá	702	San José Chacayá	5	Chacayá	10	Octubre	2023-10-17T00:00:00	2024-11-06T20:00:00	8	Radiación solar	0
125729	7	Sololá	702	San José Chacayá	5	Chacayá	10	Octubre	2023-10-17T00:00:00	2024-11-06T21:00:00	2	Temperatura media	12.6
125730	7	Sololá	702	San José Chacayá	5	Chacayá	10	Octubre	2023-10-17T00:00:00	2024-11-06T21:00:00	4	Temperatura máxima	13.3
125731	7	Sololá	702	San José Chacayá	5	Chacayá	10	Octubre	2023-10-17T00:00:00	2024-11-06T21:00:00	3	Temperatura mínima	12.5
125732	7	Sololá	702	San José Chacayá	5	Chacayá	10	Octubre	2023-10-17T00:00:00	2024-11-06T21:00:00	5	Humedad	88
125733	7	Sololá	702	San José Chacayá	5	Chacayá	10	Octubre	2023-10-17T00:00:00	2024-11-06T21:00:00	6	Velocidad del viento	0
125734	7	Sololá	702	San José Chacayá	5	Chacayá	10	Octubre	2023-10-17T00:00:00	2024-11-06T21:00:00	7	Dirección del viento	0
125735	7	Sololá	702	San José Chacayá	5	Chacayá	10	Octubre	2023-10-17T00:00:00	2024-11-06T21:00:00	1	Precipitación	0
125736	7	Sololá	702	San José Chacayá	5	Chacayá	10	Octubre	2023-10-17T00:00:00	2024-11-06T21:00:00	8	Radiación solar	0
125737	7	Sololá	702	San José Chacayá	5	Chacayá	10	Octubre	2023-10-17T00:00:00	2024-11-06T22:00:00	2	Temperatura media	12
125738	7	Sololá	702	San José Chacayá	5	Chacayá	10	Octubre	2023-10-17T00:00:00	2024-11-06T22:00:00	4	Temperatura máxima	12.6
125739	7	Sololá	702	San José Chacayá	5	Chacayá	10	Octubre	2023-10-17T00:00:00	2024-11-06T22:00:00	3	Temperatura mínima	11.9
125740	7	Sololá	702	San José Chacayá	5	Chacayá	10	Octubre	2023-10-17T00:00:00	2024-11-06T22:00:00	5	Humedad	88
125741	7	Sololá	702	San José Chacayá	5	Chacayá	10	Octubre	2023-10-17T00:00:00	2024-11-06T22:00:00	6	Velocidad del viento	0
125742	7	Sololá	702	San José Chacayá	5	Chacayá	10	Octubre	2023-10-17T00:00:00	2024-11-06T22:00:00	7	Dirección del viento	0
125743	7	Sololá	702	San José Chacayá	5	Chacayá	10	Octubre	2023-10-17T00:00:00	2024-11-06T22:00:00	1	Precipitación	0
125744	7	Sololá	702	San José Chacayá	5	Chacayá	10	Octubre	2023-10-17T00:00:00	2024-11-06T22:00:00	8	Radiación solar	0
125745	7	Sololá	702	San José Chacayá	5	Chacayá	10	Octubre	2023-10-17T00:00:00	2024-11-06T23:00:00	2	Temperatura media	11.8
125746	7	Sololá	702	San José Chacayá	5	Chacayá	10	Octubre	2023-10-17T00:00:00	2024-11-06T23:00:00	4	Temperatura máxima	12
125747	7	Sololá	702	San José Chacayá	5	Chacayá	10	Octubre	2023-10-17T00:00:00	2024-11-06T23:00:00	3	Temperatura mínima	11.8
125748	7	Sololá	702	San José Chacayá	5	Chacayá	10	Octubre	2023-10-17T00:00:00	2024-11-06T23:00:00	5	Humedad	89
125749	7	Sololá	702	San José Chacayá	5	Chacayá	10	Octubre	2023-10-17T00:00:00	2024-11-06T23:00:00	6	Velocidad del viento	0
125750	7	Sololá	702	San José Chacayá	5	Chacayá	10	Octubre	2023-10-17T00:00:00	2024-11-06T23:00:00	7	Dirección del viento	0
125751	7	Sololá	702	San José Chacayá	5	Chacayá	10	Octubre	2023-10-17T00:00:00	2024-11-06T23:00:00	1	Precipitación	0
125752	7	Sololá	702	San José Chacayá	5	Chacayá	10	Octubre	2023-10-17T00:00:00	2024-11-06T23:00:00	8	Radiación solar	0
125753	7	Sololá	702	San José Chacayá	5	Chacayá	10	Octubre	2023-10-18T00:00:00	2024-11-06T00:00:00	2	Temperatura media	11
125754	7	Sololá	702	San José Chacayá	5	Chacayá	10	Octubre	2023-10-18T00:00:00	2024-11-06T00:00:00	4	Temperatura máxima	11.8
125755	7	Sololá	702	San José Chacayá	5	Chacayá	10	Octubre	2023-10-18T00:00:00	2024-11-06T00:00:00	3	Temperatura mínima	11
125756	7	Sololá	702	San José Chacayá	5	Chacayá	10	Octubre	2023-10-18T00:00:00	2024-11-06T00:00:00	5	Humedad	91
125757	7	Sololá	702	San José Chacayá	5	Chacayá	10	Octubre	2023-10-18T00:00:00	2024-11-06T00:00:00	6	Velocidad del viento	0
125758	7	Sololá	702	San José Chacayá	5	Chacayá	10	Octubre	2023-10-18T00:00:00	2024-11-06T00:00:00	7	Dirección del viento	0
125759	7	Sololá	702	San José Chacayá	5	Chacayá	10	Octubre	2023-10-18T00:00:00	2024-11-06T00:00:00	1	Precipitación	0
125760	7	Sololá	702	San José Chacayá	5	Chacayá	10	Octubre	2023-10-18T00:00:00	2024-11-06T00:00:00	8	Radiación solar	0
125761	7	Sololá	702	San José Chacayá	5	Chacayá	10	Octubre	2023-10-18T00:00:00	2024-11-06T01:00:00	2	Temperatura media	10.9
125762	7	Sololá	702	San José Chacayá	5	Chacayá	10	Octubre	2023-10-18T00:00:00	2024-11-06T01:00:00	4	Temperatura máxima	11.1
125763	7	Sololá	702	San José Chacayá	5	Chacayá	10	Octubre	2023-10-18T00:00:00	2024-11-06T01:00:00	3	Temperatura mínima	10.9
125764	7	Sololá	702	San José Chacayá	5	Chacayá	10	Octubre	2023-10-18T00:00:00	2024-11-06T01:00:00	5	Humedad	91
125765	7	Sololá	702	San José Chacayá	5	Chacayá	10	Octubre	2023-10-18T00:00:00	2024-11-06T01:00:00	6	Velocidad del viento	0
125766	7	Sololá	702	San José Chacayá	5	Chacayá	10	Octubre	2023-10-18T00:00:00	2024-11-06T01:00:00	7	Dirección del viento	0
125767	7	Sololá	702	San José Chacayá	5	Chacayá	10	Octubre	2023-10-18T00:00:00	2024-11-06T01:00:00	1	Precipitación	0
125768	7	Sololá	702	San José Chacayá	5	Chacayá	10	Octubre	2023-10-18T00:00:00	2024-11-06T01:00:00	8	Radiación solar	0
125769	7	Sololá	702	San José Chacayá	5	Chacayá	10	Octubre	2023-10-18T00:00:00	2024-11-06T02:00:00	2	Temperatura media	11.5
125770	7	Sololá	702	San José Chacayá	5	Chacayá	10	Octubre	2023-10-18T00:00:00	2024-11-06T02:00:00	4	Temperatura máxima	11.6
125771	7	Sololá	702	San José Chacayá	5	Chacayá	10	Octubre	2023-10-18T00:00:00	2024-11-06T02:00:00	3	Temperatura mínima	10.9
125772	7	Sololá	702	San José Chacayá	5	Chacayá	10	Octubre	2023-10-18T00:00:00	2024-11-06T02:00:00	5	Humedad	90
125773	7	Sololá	702	San José Chacayá	5	Chacayá	10	Octubre	2023-10-18T00:00:00	2024-11-06T02:00:00	6	Velocidad del viento	0
125774	7	Sololá	702	San José Chacayá	5	Chacayá	10	Octubre	2023-10-18T00:00:00	2024-11-06T02:00:00	7	Dirección del viento	0
125775	7	Sololá	702	San José Chacayá	5	Chacayá	10	Octubre	2023-10-18T00:00:00	2024-11-06T02:00:00	1	Precipitación	0
125776	7	Sololá	702	San José Chacayá	5	Chacayá	10	Octubre	2023-10-18T00:00:00	2024-11-06T02:00:00	8	Radiación solar	0
125777	7	Sololá	702	San José Chacayá	5	Chacayá	10	Octubre	2023-10-18T00:00:00	2024-11-06T03:00:00	2	Temperatura media	11.3
125778	7	Sololá	702	San José Chacayá	5	Chacayá	10	Octubre	2023-10-18T00:00:00	2024-11-06T03:00:00	4	Temperatura máxima	11.6
125779	7	Sololá	702	San José Chacayá	5	Chacayá	10	Octubre	2023-10-18T00:00:00	2024-11-06T03:00:00	3	Temperatura mínima	11.3
125780	7	Sololá	702	San José Chacayá	5	Chacayá	10	Octubre	2023-10-18T00:00:00	2024-11-06T03:00:00	5	Humedad	91
125781	7	Sololá	702	San José Chacayá	5	Chacayá	10	Octubre	2023-10-18T00:00:00	2024-11-06T03:00:00	6	Velocidad del viento	0
125782	7	Sololá	702	San José Chacayá	5	Chacayá	10	Octubre	2023-10-18T00:00:00	2024-11-06T03:00:00	7	Dirección del viento	0
125783	7	Sololá	702	San José Chacayá	5	Chacayá	10	Octubre	2023-10-18T00:00:00	2024-11-06T03:00:00	1	Precipitación	0
125784	7	Sololá	702	San José Chacayá	5	Chacayá	10	Octubre	2023-10-18T00:00:00	2024-11-06T03:00:00	8	Radiación solar	0
125785	7	Sololá	702	San José Chacayá	5	Chacayá	10	Octubre	2023-10-18T00:00:00	2024-11-06T04:00:00	2	Temperatura media	10.8
125786	7	Sololá	702	San José Chacayá	5	Chacayá	10	Octubre	2023-10-18T00:00:00	2024-11-06T04:00:00	4	Temperatura máxima	11.3
125787	7	Sololá	702	San José Chacayá	5	Chacayá	10	Octubre	2023-10-18T00:00:00	2024-11-06T04:00:00	3	Temperatura mínima	10.8
125788	7	Sololá	702	San José Chacayá	5	Chacayá	10	Octubre	2023-10-18T00:00:00	2024-11-06T04:00:00	5	Humedad	91
125789	7	Sololá	702	San José Chacayá	5	Chacayá	10	Octubre	2023-10-18T00:00:00	2024-11-06T04:00:00	6	Velocidad del viento	0
125790	7	Sololá	702	San José Chacayá	5	Chacayá	10	Octubre	2023-10-18T00:00:00	2024-11-06T04:00:00	7	Dirección del viento	0
125791	7	Sololá	702	San José Chacayá	5	Chacayá	10	Octubre	2023-10-18T00:00:00	2024-11-06T04:00:00	1	Precipitación	0
125792	7	Sololá	702	San José Chacayá	5	Chacayá	10	Octubre	2023-10-18T00:00:00	2024-11-06T04:00:00	8	Radiación solar	0
125793	7	Sololá	702	San José Chacayá	5	Chacayá	10	Octubre	2023-10-18T00:00:00	2024-11-06T05:00:00	2	Temperatura media	10.2
125794	7	Sololá	702	San José Chacayá	5	Chacayá	10	Octubre	2023-10-18T00:00:00	2024-11-06T05:00:00	4	Temperatura máxima	10.8
125795	7	Sololá	702	San José Chacayá	5	Chacayá	10	Octubre	2023-10-18T00:00:00	2024-11-06T05:00:00	3	Temperatura mínima	10.1
125796	7	Sololá	702	San José Chacayá	5	Chacayá	10	Octubre	2023-10-18T00:00:00	2024-11-06T05:00:00	5	Humedad	91
125797	7	Sololá	702	San José Chacayá	5	Chacayá	10	Octubre	2023-10-18T00:00:00	2024-11-06T05:00:00	6	Velocidad del viento	0
125798	7	Sololá	702	San José Chacayá	5	Chacayá	10	Octubre	2023-10-18T00:00:00	2024-11-06T05:00:00	7	Dirección del viento	0
125799	7	Sololá	702	San José Chacayá	5	Chacayá	10	Octubre	2023-10-18T00:00:00	2024-11-06T05:00:00	1	Precipitación	0
125800	7	Sololá	702	San José Chacayá	5	Chacayá	10	Octubre	2023-10-18T00:00:00	2024-11-06T05:00:00	8	Radiación solar	0
125801	7	Sololá	702	San José Chacayá	5	Chacayá	10	Octubre	2023-10-18T00:00:00	2024-11-06T06:00:00	2	Temperatura media	9.7
125802	7	Sololá	702	San José Chacayá	5	Chacayá	10	Octubre	2023-10-18T00:00:00	2024-11-06T06:00:00	4	Temperatura máxima	10.2
125803	7	Sololá	702	San José Chacayá	5	Chacayá	10	Octubre	2023-10-18T00:00:00	2024-11-06T06:00:00	3	Temperatura mínima	9.7
125804	7	Sololá	702	San José Chacayá	5	Chacayá	10	Octubre	2023-10-18T00:00:00	2024-11-06T06:00:00	5	Humedad	91
125805	7	Sololá	702	San José Chacayá	5	Chacayá	10	Octubre	2023-10-18T00:00:00	2024-11-06T06:00:00	6	Velocidad del viento	0
125806	7	Sololá	702	San José Chacayá	5	Chacayá	10	Octubre	2023-10-18T00:00:00	2024-11-06T06:00:00	7	Dirección del viento	0
125807	7	Sololá	702	San José Chacayá	5	Chacayá	10	Octubre	2023-10-18T00:00:00	2024-11-06T06:00:00	1	Precipitación	0
125808	7	Sololá	702	San José Chacayá	5	Chacayá	10	Octubre	2023-10-18T00:00:00	2024-11-06T06:00:00	8	Radiación solar	0
125809	7	Sololá	702	San José Chacayá	5	Chacayá	10	Octubre	2023-10-18T00:00:00	2024-11-06T07:00:00	2	Temperatura media	9.8
125810	7	Sololá	702	San José Chacayá	5	Chacayá	10	Octubre	2023-10-18T00:00:00	2024-11-06T07:00:00	4	Temperatura máxima	9.9
125811	7	Sololá	702	San José Chacayá	5	Chacayá	10	Octubre	2023-10-18T00:00:00	2024-11-06T07:00:00	3	Temperatura mínima	9.7
125812	7	Sololá	702	San José Chacayá	5	Chacayá	10	Octubre	2023-10-18T00:00:00	2024-11-06T07:00:00	5	Humedad	91
125813	7	Sololá	702	San José Chacayá	5	Chacayá	10	Octubre	2023-10-18T00:00:00	2024-11-06T07:00:00	6	Velocidad del viento	0
125814	7	Sololá	702	San José Chacayá	5	Chacayá	10	Octubre	2023-10-18T00:00:00	2024-11-06T07:00:00	7	Dirección del viento	0
125815	7	Sololá	702	San José Chacayá	5	Chacayá	10	Octubre	2023-10-18T00:00:00	2024-11-06T07:00:00	1	Precipitación	0
125816	7	Sololá	702	San José Chacayá	5	Chacayá	10	Octubre	2023-10-18T00:00:00	2024-11-06T07:00:00	8	Radiación solar	117
125817	7	Sololá	702	San José Chacayá	5	Chacayá	10	Octubre	2023-10-18T00:00:00	2024-11-06T08:00:00	2	Temperatura media	12.5
125818	7	Sololá	702	San José Chacayá	5	Chacayá	10	Octubre	2023-10-18T00:00:00	2024-11-06T08:00:00	4	Temperatura máxima	12.5
125819	7	Sololá	702	San José Chacayá	5	Chacayá	10	Octubre	2023-10-18T00:00:00	2024-11-06T08:00:00	3	Temperatura mínima	9.8
125820	7	Sololá	702	San José Chacayá	5	Chacayá	10	Octubre	2023-10-18T00:00:00	2024-11-06T08:00:00	5	Humedad	87
125821	7	Sololá	702	San José Chacayá	5	Chacayá	10	Octubre	2023-10-18T00:00:00	2024-11-06T08:00:00	6	Velocidad del viento	0
125822	7	Sololá	702	San José Chacayá	5	Chacayá	10	Octubre	2023-10-18T00:00:00	2024-11-06T08:00:00	7	Dirección del viento	0
125823	7	Sololá	702	San José Chacayá	5	Chacayá	10	Octubre	2023-10-18T00:00:00	2024-11-06T08:00:00	1	Precipitación	0
125824	7	Sololá	702	San José Chacayá	5	Chacayá	10	Octubre	2023-10-18T00:00:00	2024-11-06T08:00:00	8	Radiación solar	376
125825	7	Sololá	702	San José Chacayá	5	Chacayá	10	Octubre	2023-10-18T00:00:00	2024-11-06T09:00:00	2	Temperatura media	18.1
125826	7	Sololá	702	San José Chacayá	5	Chacayá	10	Octubre	2023-10-18T00:00:00	2024-11-06T09:00:00	4	Temperatura máxima	18.1
125827	7	Sololá	702	San José Chacayá	5	Chacayá	10	Octubre	2023-10-18T00:00:00	2024-11-06T09:00:00	3	Temperatura mínima	12.5
125828	7	Sololá	702	San José Chacayá	5	Chacayá	10	Octubre	2023-10-18T00:00:00	2024-11-06T09:00:00	5	Humedad	68
125829	7	Sololá	702	San José Chacayá	5	Chacayá	10	Octubre	2023-10-18T00:00:00	2024-11-06T09:00:00	6	Velocidad del viento	1.6
125830	7	Sololá	702	San José Chacayá	5	Chacayá	10	Octubre	2023-10-18T00:00:00	2024-11-06T09:00:00	7	Dirección del viento	1.61
125831	7	Sololá	702	San José Chacayá	5	Chacayá	10	Octubre	2023-10-18T00:00:00	2024-11-06T09:00:00	1	Precipitación	0
125832	7	Sololá	702	San José Chacayá	5	Chacayá	10	Octubre	2023-10-18T00:00:00	2024-11-06T09:00:00	8	Radiación solar	397
125833	7	Sololá	702	San José Chacayá	5	Chacayá	10	Octubre	2023-10-18T00:00:00	2024-11-06T10:00:00	2	Temperatura media	20.1
125834	7	Sololá	702	San José Chacayá	5	Chacayá	10	Octubre	2023-10-18T00:00:00	2024-11-06T10:00:00	4	Temperatura máxima	20.9
125835	7	Sololá	702	San José Chacayá	5	Chacayá	10	Octubre	2023-10-18T00:00:00	2024-11-06T10:00:00	3	Temperatura mínima	18.1
125836	7	Sololá	702	San José Chacayá	5	Chacayá	10	Octubre	2023-10-18T00:00:00	2024-11-06T10:00:00	5	Humedad	63
125837	7	Sololá	702	San José Chacayá	5	Chacayá	10	Octubre	2023-10-18T00:00:00	2024-11-06T10:00:00	6	Velocidad del viento	1.6
125838	7	Sololá	702	San José Chacayá	5	Chacayá	10	Octubre	2023-10-18T00:00:00	2024-11-06T10:00:00	7	Dirección del viento	1.61
125839	7	Sololá	702	San José Chacayá	5	Chacayá	10	Octubre	2023-10-18T00:00:00	2024-11-06T10:00:00	1	Precipitación	0
125840	7	Sololá	702	San José Chacayá	5	Chacayá	10	Octubre	2023-10-18T00:00:00	2024-11-06T10:00:00	8	Radiación solar	572
125841	7	Sololá	702	San José Chacayá	5	Chacayá	10	Octubre	2023-10-18T00:00:00	2024-11-06T11:00:00	2	Temperatura media	21.6
125842	7	Sololá	702	San José Chacayá	5	Chacayá	10	Octubre	2023-10-18T00:00:00	2024-11-06T11:00:00	4	Temperatura máxima	21.6
125843	7	Sololá	702	San José Chacayá	5	Chacayá	10	Octubre	2023-10-18T00:00:00	2024-11-06T11:00:00	3	Temperatura mínima	19.9
125844	7	Sololá	702	San José Chacayá	5	Chacayá	10	Octubre	2023-10-18T00:00:00	2024-11-06T11:00:00	5	Humedad	59
125845	7	Sololá	702	San José Chacayá	5	Chacayá	10	Octubre	2023-10-18T00:00:00	2024-11-06T11:00:00	6	Velocidad del viento	3.2
125846	7	Sololá	702	San José Chacayá	5	Chacayá	10	Octubre	2023-10-18T00:00:00	2024-11-06T11:00:00	7	Dirección del viento	3.22
125847	7	Sololá	702	San José Chacayá	5	Chacayá	10	Octubre	2023-10-18T00:00:00	2024-11-06T11:00:00	1	Precipitación	0
125848	7	Sololá	702	San José Chacayá	5	Chacayá	10	Octubre	2023-10-18T00:00:00	2024-11-06T11:00:00	8	Radiación solar	339
125849	7	Sololá	702	San José Chacayá	5	Chacayá	10	Octubre	2023-10-18T00:00:00	2024-11-06T12:00:00	2	Temperatura media	20.6
125850	7	Sololá	702	San José Chacayá	5	Chacayá	10	Octubre	2023-10-18T00:00:00	2024-11-06T12:00:00	4	Temperatura máxima	22.4
125851	7	Sololá	702	San José Chacayá	5	Chacayá	10	Octubre	2023-10-18T00:00:00	2024-11-06T12:00:00	3	Temperatura mínima	20.6
125852	7	Sololá	702	San José Chacayá	5	Chacayá	10	Octubre	2023-10-18T00:00:00	2024-11-06T12:00:00	5	Humedad	63
125853	7	Sololá	702	San José Chacayá	5	Chacayá	10	Octubre	2023-10-18T00:00:00	2024-11-06T12:00:00	6	Velocidad del viento	3.2
125854	7	Sololá	702	San José Chacayá	5	Chacayá	10	Octubre	2023-10-18T00:00:00	2024-11-06T12:00:00	7	Dirección del viento	3.22
125855	7	Sololá	702	San José Chacayá	5	Chacayá	10	Octubre	2023-10-18T00:00:00	2024-11-06T12:00:00	1	Precipitación	0
125856	7	Sololá	702	San José Chacayá	5	Chacayá	10	Octubre	2023-10-18T00:00:00	2024-11-06T12:00:00	8	Radiación solar	484
125857	7	Sololá	702	San José Chacayá	5	Chacayá	10	Octubre	2023-10-18T00:00:00	2024-11-06T13:00:00	2	Temperatura media	21.1
125858	7	Sololá	702	San José Chacayá	5	Chacayá	10	Octubre	2023-10-18T00:00:00	2024-11-06T13:00:00	4	Temperatura máxima	21.2
125859	7	Sololá	702	San José Chacayá	5	Chacayá	10	Octubre	2023-10-18T00:00:00	2024-11-06T13:00:00	3	Temperatura mínima	19.7
125860	7	Sololá	702	San José Chacayá	5	Chacayá	10	Octubre	2023-10-18T00:00:00	2024-11-06T13:00:00	5	Humedad	60
125861	7	Sololá	702	San José Chacayá	5	Chacayá	10	Octubre	2023-10-18T00:00:00	2024-11-06T13:00:00	6	Velocidad del viento	1.6
125862	7	Sololá	702	San José Chacayá	5	Chacayá	10	Octubre	2023-10-18T00:00:00	2024-11-06T13:00:00	7	Dirección del viento	1.61
125863	7	Sololá	702	San José Chacayá	5	Chacayá	10	Octubre	2023-10-18T00:00:00	2024-11-06T13:00:00	1	Precipitación	0
125864	7	Sololá	702	San José Chacayá	5	Chacayá	10	Octubre	2023-10-18T00:00:00	2024-11-06T13:00:00	8	Radiación solar	567
125865	7	Sololá	702	San José Chacayá	5	Chacayá	10	Octubre	2023-10-18T00:00:00	2024-11-06T14:00:00	2	Temperatura media	21.2
125866	7	Sololá	702	San José Chacayá	5	Chacayá	10	Octubre	2023-10-18T00:00:00	2024-11-06T14:00:00	4	Temperatura máxima	21.3
125867	7	Sololá	702	San José Chacayá	5	Chacayá	10	Octubre	2023-10-18T00:00:00	2024-11-06T14:00:00	3	Temperatura mínima	20.6
125868	7	Sololá	702	San José Chacayá	5	Chacayá	10	Octubre	2023-10-18T00:00:00	2024-11-06T14:00:00	5	Humedad	60
125869	7	Sololá	702	San José Chacayá	5	Chacayá	10	Octubre	2023-10-18T00:00:00	2024-11-06T14:00:00	6	Velocidad del viento	4.8
125870	7	Sololá	702	San José Chacayá	5	Chacayá	10	Octubre	2023-10-18T00:00:00	2024-11-06T14:00:00	7	Dirección del viento	4.83
125871	7	Sololá	702	San José Chacayá	5	Chacayá	10	Octubre	2023-10-18T00:00:00	2024-11-06T14:00:00	1	Precipitación	0
125872	7	Sololá	702	San José Chacayá	5	Chacayá	10	Octubre	2023-10-18T00:00:00	2024-11-06T14:00:00	8	Radiación solar	197
125873	7	Sololá	702	San José Chacayá	5	Chacayá	10	Octubre	2023-10-18T00:00:00	2024-11-06T15:00:00	2	Temperatura media	20
125874	7	Sololá	702	San José Chacayá	5	Chacayá	10	Octubre	2023-10-18T00:00:00	2024-11-06T15:00:00	4	Temperatura máxima	22.6
125875	7	Sololá	702	San José Chacayá	5	Chacayá	10	Octubre	2023-10-18T00:00:00	2024-11-06T15:00:00	3	Temperatura mínima	20
125876	7	Sololá	702	San José Chacayá	5	Chacayá	10	Octubre	2023-10-18T00:00:00	2024-11-06T15:00:00	5	Humedad	68
125877	7	Sololá	702	San José Chacayá	5	Chacayá	10	Octubre	2023-10-18T00:00:00	2024-11-06T15:00:00	6	Velocidad del viento	3.2
125878	7	Sololá	702	San José Chacayá	5	Chacayá	10	Octubre	2023-10-18T00:00:00	2024-11-06T15:00:00	7	Dirección del viento	3.22
125879	7	Sololá	702	San José Chacayá	5	Chacayá	10	Octubre	2023-10-18T00:00:00	2024-11-06T15:00:00	1	Precipitación	0
125880	7	Sololá	702	San José Chacayá	5	Chacayá	10	Octubre	2023-10-18T00:00:00	2024-11-06T15:00:00	8	Radiación solar	155
125881	7	Sololá	702	San José Chacayá	5	Chacayá	10	Octubre	2023-10-18T00:00:00	2024-11-06T16:00:00	2	Temperatura media	19.3
125882	7	Sololá	702	San José Chacayá	5	Chacayá	10	Octubre	2023-10-18T00:00:00	2024-11-06T16:00:00	4	Temperatura máxima	20
125883	7	Sololá	702	San José Chacayá	5	Chacayá	10	Octubre	2023-10-18T00:00:00	2024-11-06T16:00:00	3	Temperatura mínima	19.3
125884	7	Sololá	702	San José Chacayá	5	Chacayá	10	Octubre	2023-10-18T00:00:00	2024-11-06T16:00:00	5	Humedad	76
125885	7	Sololá	702	San José Chacayá	5	Chacayá	10	Octubre	2023-10-18T00:00:00	2024-11-06T16:00:00	6	Velocidad del viento	3.2
125886	7	Sololá	702	San José Chacayá	5	Chacayá	10	Octubre	2023-10-18T00:00:00	2024-11-06T16:00:00	7	Dirección del viento	3.22
125887	7	Sololá	702	San José Chacayá	5	Chacayá	10	Octubre	2023-10-18T00:00:00	2024-11-06T16:00:00	1	Precipitación	0
125888	7	Sololá	702	San José Chacayá	5	Chacayá	10	Octubre	2023-10-18T00:00:00	2024-11-06T16:00:00	8	Radiación solar	136
125889	7	Sololá	702	San José Chacayá	5	Chacayá	10	Octubre	2023-10-18T00:00:00	2024-11-06T17:00:00	2	Temperatura media	19.1
125890	7	Sololá	702	San José Chacayá	5	Chacayá	10	Octubre	2023-10-18T00:00:00	2024-11-06T17:00:00	4	Temperatura máxima	19.5
125891	7	Sololá	702	San José Chacayá	5	Chacayá	10	Octubre	2023-10-18T00:00:00	2024-11-06T17:00:00	3	Temperatura mínima	18.9
125892	7	Sololá	702	San José Chacayá	5	Chacayá	10	Octubre	2023-10-18T00:00:00	2024-11-06T17:00:00	5	Humedad	75
125893	7	Sololá	702	San José Chacayá	5	Chacayá	10	Octubre	2023-10-18T00:00:00	2024-11-06T17:00:00	6	Velocidad del viento	0
125894	7	Sololá	702	San José Chacayá	5	Chacayá	10	Octubre	2023-10-18T00:00:00	2024-11-06T17:00:00	7	Dirección del viento	0
125895	7	Sololá	702	San José Chacayá	5	Chacayá	10	Octubre	2023-10-18T00:00:00	2024-11-06T17:00:00	1	Precipitación	0
125896	7	Sololá	702	San José Chacayá	5	Chacayá	10	Octubre	2023-10-18T00:00:00	2024-11-06T17:00:00	8	Radiación solar	42
125897	7	Sololá	702	San José Chacayá	5	Chacayá	10	Octubre	2023-10-18T00:00:00	2024-11-06T18:00:00	2	Temperatura media	16.7
125898	7	Sololá	702	San José Chacayá	5	Chacayá	10	Octubre	2023-10-18T00:00:00	2024-11-06T18:00:00	4	Temperatura máxima	19.1
125899	7	Sololá	702	San José Chacayá	5	Chacayá	10	Octubre	2023-10-18T00:00:00	2024-11-06T18:00:00	3	Temperatura mínima	16.7
125900	7	Sololá	702	San José Chacayá	5	Chacayá	10	Octubre	2023-10-18T00:00:00	2024-11-06T18:00:00	5	Humedad	78
125901	7	Sololá	702	San José Chacayá	5	Chacayá	10	Octubre	2023-10-18T00:00:00	2024-11-06T18:00:00	6	Velocidad del viento	1.6
125902	7	Sololá	702	San José Chacayá	5	Chacayá	10	Octubre	2023-10-18T00:00:00	2024-11-06T18:00:00	7	Dirección del viento	1.61
125903	7	Sololá	702	San José Chacayá	5	Chacayá	10	Octubre	2023-10-18T00:00:00	2024-11-06T18:00:00	1	Precipitación	0
125904	7	Sololá	702	San José Chacayá	5	Chacayá	10	Octubre	2023-10-18T00:00:00	2024-11-06T18:00:00	8	Radiación solar	4
125905	7	Sololá	702	San José Chacayá	5	Chacayá	10	Octubre	2023-10-18T00:00:00	2024-11-06T19:00:00	2	Temperatura media	15.6
125906	7	Sololá	702	San José Chacayá	5	Chacayá	10	Octubre	2023-10-18T00:00:00	2024-11-06T19:00:00	4	Temperatura máxima	16.7
125907	7	Sololá	702	San José Chacayá	5	Chacayá	10	Octubre	2023-10-18T00:00:00	2024-11-06T19:00:00	3	Temperatura mínima	15.6
125908	7	Sololá	702	San José Chacayá	5	Chacayá	10	Octubre	2023-10-18T00:00:00	2024-11-06T19:00:00	5	Humedad	80
125909	7	Sololá	702	San José Chacayá	5	Chacayá	10	Octubre	2023-10-18T00:00:00	2024-11-06T19:00:00	6	Velocidad del viento	1.6
125910	7	Sololá	702	San José Chacayá	5	Chacayá	10	Octubre	2023-10-18T00:00:00	2024-11-06T19:00:00	7	Dirección del viento	1.61
125911	7	Sololá	702	San José Chacayá	5	Chacayá	10	Octubre	2023-10-18T00:00:00	2024-11-06T19:00:00	1	Precipitación	0
125912	7	Sololá	702	San José Chacayá	5	Chacayá	10	Octubre	2023-10-18T00:00:00	2024-11-06T19:00:00	8	Radiación solar	0
125913	7	Sololá	702	San José Chacayá	5	Chacayá	10	Octubre	2023-10-18T00:00:00	2024-11-06T20:00:00	2	Temperatura media	15.2
125914	7	Sololá	702	San José Chacayá	5	Chacayá	10	Octubre	2023-10-18T00:00:00	2024-11-06T20:00:00	4	Temperatura máxima	15.7
125915	7	Sololá	702	San José Chacayá	5	Chacayá	10	Octubre	2023-10-18T00:00:00	2024-11-06T20:00:00	3	Temperatura mínima	15.1
125916	7	Sololá	702	San José Chacayá	5	Chacayá	10	Octubre	2023-10-18T00:00:00	2024-11-06T20:00:00	5	Humedad	82
125917	7	Sololá	702	San José Chacayá	5	Chacayá	10	Octubre	2023-10-18T00:00:00	2024-11-06T20:00:00	6	Velocidad del viento	1.6
125918	7	Sololá	702	San José Chacayá	5	Chacayá	10	Octubre	2023-10-18T00:00:00	2024-11-06T20:00:00	7	Dirección del viento	1.61
125919	7	Sololá	702	San José Chacayá	5	Chacayá	10	Octubre	2023-10-18T00:00:00	2024-11-06T20:00:00	1	Precipitación	0
125920	7	Sololá	702	San José Chacayá	5	Chacayá	10	Octubre	2023-10-18T00:00:00	2024-11-06T20:00:00	8	Radiación solar	0
125921	7	Sololá	702	San José Chacayá	5	Chacayá	10	Octubre	2023-10-18T00:00:00	2024-11-06T21:00:00	2	Temperatura media	15.1
125922	7	Sololá	702	San José Chacayá	5	Chacayá	10	Octubre	2023-10-18T00:00:00	2024-11-06T21:00:00	4	Temperatura máxima	15.2
125923	7	Sololá	702	San José Chacayá	5	Chacayá	10	Octubre	2023-10-18T00:00:00	2024-11-06T21:00:00	3	Temperatura mínima	15
125924	7	Sololá	702	San José Chacayá	5	Chacayá	10	Octubre	2023-10-18T00:00:00	2024-11-06T21:00:00	5	Humedad	83
125925	7	Sololá	702	San José Chacayá	5	Chacayá	10	Octubre	2023-10-18T00:00:00	2024-11-06T21:00:00	6	Velocidad del viento	1.6
125926	7	Sololá	702	San José Chacayá	5	Chacayá	10	Octubre	2023-10-18T00:00:00	2024-11-06T21:00:00	7	Dirección del viento	1.61
125927	7	Sololá	702	San José Chacayá	5	Chacayá	10	Octubre	2023-10-18T00:00:00	2024-11-06T21:00:00	1	Precipitación	0
125928	7	Sololá	702	San José Chacayá	5	Chacayá	10	Octubre	2023-10-18T00:00:00	2024-11-06T21:00:00	8	Radiación solar	0
125929	7	Sololá	702	San José Chacayá	5	Chacayá	10	Octubre	2023-10-18T00:00:00	2024-11-06T22:00:00	2	Temperatura media	14.6
125930	7	Sololá	702	San José Chacayá	5	Chacayá	10	Octubre	2023-10-18T00:00:00	2024-11-06T22:00:00	4	Temperatura máxima	15.1
125931	7	Sololá	702	San José Chacayá	5	Chacayá	10	Octubre	2023-10-18T00:00:00	2024-11-06T22:00:00	3	Temperatura mínima	14.6
125932	7	Sololá	702	San José Chacayá	5	Chacayá	10	Octubre	2023-10-18T00:00:00	2024-11-06T22:00:00	5	Humedad	84
125933	7	Sololá	702	San José Chacayá	5	Chacayá	10	Octubre	2023-10-18T00:00:00	2024-11-06T22:00:00	6	Velocidad del viento	1.6
125934	7	Sololá	702	San José Chacayá	5	Chacayá	10	Octubre	2023-10-18T00:00:00	2024-11-06T22:00:00	7	Dirección del viento	1.61
125935	7	Sololá	702	San José Chacayá	5	Chacayá	10	Octubre	2023-10-18T00:00:00	2024-11-06T22:00:00	1	Precipitación	0
125936	7	Sololá	702	San José Chacayá	5	Chacayá	10	Octubre	2023-10-18T00:00:00	2024-11-06T22:00:00	8	Radiación solar	0
125937	7	Sololá	702	San José Chacayá	5	Chacayá	10	Octubre	2023-10-18T00:00:00	2024-11-06T23:00:00	2	Temperatura media	13.5
125938	7	Sololá	702	San José Chacayá	5	Chacayá	10	Octubre	2023-10-18T00:00:00	2024-11-06T23:00:00	4	Temperatura máxima	14.6
125939	7	Sololá	702	San José Chacayá	5	Chacayá	10	Octubre	2023-10-18T00:00:00	2024-11-06T23:00:00	3	Temperatura mínima	13.5
125940	7	Sololá	702	San José Chacayá	5	Chacayá	10	Octubre	2023-10-18T00:00:00	2024-11-06T23:00:00	5	Humedad	87
125941	7	Sololá	702	San José Chacayá	5	Chacayá	10	Octubre	2023-10-18T00:00:00	2024-11-06T23:00:00	6	Velocidad del viento	1.6
125942	7	Sololá	702	San José Chacayá	5	Chacayá	10	Octubre	2023-10-18T00:00:00	2024-11-06T23:00:00	7	Dirección del viento	1.61
125943	7	Sololá	702	San José Chacayá	5	Chacayá	10	Octubre	2023-10-18T00:00:00	2024-11-06T23:00:00	1	Precipitación	0
125944	7	Sololá	702	San José Chacayá	5	Chacayá	10	Octubre	2023-10-18T00:00:00	2024-11-06T23:00:00	8	Radiación solar	0
125945	7	Sololá	702	San José Chacayá	5	Chacayá	10	Octubre	2023-10-19T00:00:00	2024-11-06T00:00:00	2	Temperatura media	12.2
125946	7	Sololá	702	San José Chacayá	5	Chacayá	10	Octubre	2023-10-19T00:00:00	2024-11-06T00:00:00	4	Temperatura máxima	13.6
125947	7	Sololá	702	San José Chacayá	5	Chacayá	10	Octubre	2023-10-19T00:00:00	2024-11-06T00:00:00	3	Temperatura mínima	12.2
125948	7	Sololá	702	San José Chacayá	5	Chacayá	10	Octubre	2023-10-19T00:00:00	2024-11-06T00:00:00	5	Humedad	91
125949	7	Sololá	702	San José Chacayá	5	Chacayá	10	Octubre	2023-10-19T00:00:00	2024-11-06T00:00:00	6	Velocidad del viento	0
125950	7	Sololá	702	San José Chacayá	5	Chacayá	10	Octubre	2023-10-19T00:00:00	2024-11-06T00:00:00	7	Dirección del viento	0
125951	7	Sololá	702	San José Chacayá	5	Chacayá	10	Octubre	2023-10-19T00:00:00	2024-11-06T00:00:00	1	Precipitación	0
125952	7	Sololá	702	San José Chacayá	5	Chacayá	10	Octubre	2023-10-19T00:00:00	2024-11-06T00:00:00	8	Radiación solar	0
125953	7	Sololá	702	San José Chacayá	5	Chacayá	10	Octubre	2023-10-19T00:00:00	2024-11-06T01:00:00	2	Temperatura media	11.5
125954	7	Sololá	702	San José Chacayá	5	Chacayá	10	Octubre	2023-10-19T00:00:00	2024-11-06T01:00:00	4	Temperatura máxima	12.2
125955	7	Sololá	702	San José Chacayá	5	Chacayá	10	Octubre	2023-10-19T00:00:00	2024-11-06T01:00:00	3	Temperatura mínima	11.5
125956	7	Sololá	702	San José Chacayá	5	Chacayá	10	Octubre	2023-10-19T00:00:00	2024-11-06T01:00:00	5	Humedad	92
125957	7	Sololá	702	San José Chacayá	5	Chacayá	10	Octubre	2023-10-19T00:00:00	2024-11-06T01:00:00	6	Velocidad del viento	0
125958	7	Sololá	702	San José Chacayá	5	Chacayá	10	Octubre	2023-10-19T00:00:00	2024-11-06T01:00:00	7	Dirección del viento	0
125959	7	Sololá	702	San José Chacayá	5	Chacayá	10	Octubre	2023-10-19T00:00:00	2024-11-06T01:00:00	1	Precipitación	0
125960	7	Sololá	702	San José Chacayá	5	Chacayá	10	Octubre	2023-10-19T00:00:00	2024-11-06T01:00:00	8	Radiación solar	0
125961	7	Sololá	702	San José Chacayá	5	Chacayá	10	Octubre	2023-10-19T00:00:00	2024-11-06T02:00:00	2	Temperatura media	11.3
125962	7	Sololá	702	San José Chacayá	5	Chacayá	10	Octubre	2023-10-19T00:00:00	2024-11-06T02:00:00	4	Temperatura máxima	11.5
125963	7	Sololá	702	San José Chacayá	5	Chacayá	10	Octubre	2023-10-19T00:00:00	2024-11-06T02:00:00	3	Temperatura mínima	11.2
125964	7	Sololá	702	San José Chacayá	5	Chacayá	10	Octubre	2023-10-19T00:00:00	2024-11-06T02:00:00	5	Humedad	93
125965	7	Sololá	702	San José Chacayá	5	Chacayá	10	Octubre	2023-10-19T00:00:00	2024-11-06T02:00:00	6	Velocidad del viento	0
125966	7	Sololá	702	San José Chacayá	5	Chacayá	10	Octubre	2023-10-19T00:00:00	2024-11-06T02:00:00	7	Dirección del viento	0
125967	7	Sololá	702	San José Chacayá	5	Chacayá	10	Octubre	2023-10-19T00:00:00	2024-11-06T02:00:00	1	Precipitación	0
125968	7	Sololá	702	San José Chacayá	5	Chacayá	10	Octubre	2023-10-19T00:00:00	2024-11-06T02:00:00	8	Radiación solar	0
125969	7	Sololá	702	San José Chacayá	5	Chacayá	10	Octubre	2023-10-19T00:00:00	2024-11-06T03:00:00	2	Temperatura media	11.2
125970	7	Sololá	702	San José Chacayá	5	Chacayá	10	Octubre	2023-10-19T00:00:00	2024-11-06T03:00:00	4	Temperatura máxima	11.3
125971	7	Sololá	702	San José Chacayá	5	Chacayá	10	Octubre	2023-10-19T00:00:00	2024-11-06T03:00:00	3	Temperatura mínima	11.2
125972	7	Sololá	702	San José Chacayá	5	Chacayá	10	Octubre	2023-10-19T00:00:00	2024-11-06T03:00:00	5	Humedad	92
125973	7	Sololá	702	San José Chacayá	5	Chacayá	10	Octubre	2023-10-19T00:00:00	2024-11-06T03:00:00	6	Velocidad del viento	0
125974	7	Sololá	702	San José Chacayá	5	Chacayá	10	Octubre	2023-10-19T00:00:00	2024-11-06T03:00:00	7	Dirección del viento	0
125975	7	Sololá	702	San José Chacayá	5	Chacayá	10	Octubre	2023-10-19T00:00:00	2024-11-06T03:00:00	1	Precipitación	0
125976	7	Sololá	702	San José Chacayá	5	Chacayá	10	Octubre	2023-10-19T00:00:00	2024-11-06T03:00:00	8	Radiación solar	0
125977	7	Sololá	702	San José Chacayá	5	Chacayá	10	Octubre	2023-10-19T00:00:00	2024-11-06T04:00:00	2	Temperatura media	10.9
125978	7	Sololá	702	San José Chacayá	5	Chacayá	10	Octubre	2023-10-19T00:00:00	2024-11-06T04:00:00	4	Temperatura máxima	11.2
125979	7	Sololá	702	San José Chacayá	5	Chacayá	10	Octubre	2023-10-19T00:00:00	2024-11-06T04:00:00	3	Temperatura mínima	10.9
125980	7	Sololá	702	San José Chacayá	5	Chacayá	10	Octubre	2023-10-19T00:00:00	2024-11-06T04:00:00	5	Humedad	93
125981	7	Sololá	702	San José Chacayá	5	Chacayá	10	Octubre	2023-10-19T00:00:00	2024-11-06T04:00:00	6	Velocidad del viento	0
125982	7	Sololá	702	San José Chacayá	5	Chacayá	10	Octubre	2023-10-19T00:00:00	2024-11-06T04:00:00	7	Dirección del viento	0
125983	7	Sololá	702	San José Chacayá	5	Chacayá	10	Octubre	2023-10-19T00:00:00	2024-11-06T04:00:00	1	Precipitación	0
125984	7	Sololá	702	San José Chacayá	5	Chacayá	10	Octubre	2023-10-19T00:00:00	2024-11-06T04:00:00	8	Radiación solar	0
125985	7	Sololá	702	San José Chacayá	5	Chacayá	10	Octubre	2023-10-19T00:00:00	2024-11-06T05:00:00	2	Temperatura media	10.7
125986	7	Sololá	702	San José Chacayá	5	Chacayá	10	Octubre	2023-10-19T00:00:00	2024-11-06T05:00:00	4	Temperatura máxima	10.9
125987	7	Sololá	702	San José Chacayá	5	Chacayá	10	Octubre	2023-10-19T00:00:00	2024-11-06T05:00:00	3	Temperatura mínima	10.7
125988	7	Sololá	702	San José Chacayá	5	Chacayá	10	Octubre	2023-10-19T00:00:00	2024-11-06T05:00:00	5	Humedad	93
125989	7	Sololá	702	San José Chacayá	5	Chacayá	10	Octubre	2023-10-19T00:00:00	2024-11-06T05:00:00	6	Velocidad del viento	0
125990	7	Sololá	702	San José Chacayá	5	Chacayá	10	Octubre	2023-10-19T00:00:00	2024-11-06T05:00:00	7	Dirección del viento	0
125991	7	Sololá	702	San José Chacayá	5	Chacayá	10	Octubre	2023-10-19T00:00:00	2024-11-06T05:00:00	1	Precipitación	0
125992	7	Sololá	702	San José Chacayá	5	Chacayá	10	Octubre	2023-10-19T00:00:00	2024-11-06T05:00:00	8	Radiación solar	0
125993	7	Sololá	702	San José Chacayá	5	Chacayá	10	Octubre	2023-10-19T00:00:00	2024-11-06T06:00:00	2	Temperatura media	10.7
125994	7	Sololá	702	San José Chacayá	5	Chacayá	10	Octubre	2023-10-19T00:00:00	2024-11-06T06:00:00	4	Temperatura máxima	10.9
125995	7	Sololá	702	San José Chacayá	5	Chacayá	10	Octubre	2023-10-19T00:00:00	2024-11-06T06:00:00	3	Temperatura mínima	10.7
125996	7	Sololá	702	San José Chacayá	5	Chacayá	10	Octubre	2023-10-19T00:00:00	2024-11-06T06:00:00	5	Humedad	92
125997	7	Sololá	702	San José Chacayá	5	Chacayá	10	Octubre	2023-10-19T00:00:00	2024-11-06T06:00:00	6	Velocidad del viento	0
125998	7	Sololá	702	San José Chacayá	5	Chacayá	10	Octubre	2023-10-19T00:00:00	2024-11-06T06:00:00	7	Dirección del viento	0
125999	7	Sololá	702	San José Chacayá	5	Chacayá	10	Octubre	2023-10-19T00:00:00	2024-11-06T06:00:00	1	Precipitación	0
126000	7	Sololá	702	San José Chacayá	5	Chacayá	10	Octubre	2023-10-19T00:00:00	2024-11-06T06:00:00	8	Radiación solar	2
126001	7	Sololá	702	San José Chacayá	5	Chacayá	10	Octubre	2023-10-19T00:00:00	2024-11-06T07:00:00	2	Temperatura media	10.3
126002	7	Sololá	702	San José Chacayá	5	Chacayá	10	Octubre	2023-10-19T00:00:00	2024-11-06T07:00:00	4	Temperatura máxima	10.7
126003	7	Sololá	702	San José Chacayá	5	Chacayá	10	Octubre	2023-10-19T00:00:00	2024-11-06T07:00:00	3	Temperatura mínima	10.2
126004	7	Sololá	702	San José Chacayá	5	Chacayá	10	Octubre	2023-10-19T00:00:00	2024-11-06T07:00:00	5	Humedad	93
126005	7	Sololá	702	San José Chacayá	5	Chacayá	10	Octubre	2023-10-19T00:00:00	2024-11-06T07:00:00	6	Velocidad del viento	0
126006	7	Sololá	702	San José Chacayá	5	Chacayá	10	Octubre	2023-10-19T00:00:00	2024-11-06T07:00:00	7	Dirección del viento	0
126007	7	Sololá	702	San José Chacayá	5	Chacayá	10	Octubre	2023-10-19T00:00:00	2024-11-06T07:00:00	1	Precipitación	0
126008	7	Sololá	702	San José Chacayá	5	Chacayá	10	Octubre	2023-10-19T00:00:00	2024-11-06T07:00:00	8	Radiación solar	85
126009	7	Sololá	702	San José Chacayá	5	Chacayá	10	Octubre	2023-10-19T00:00:00	2024-11-06T08:00:00	2	Temperatura media	13.4
126010	7	Sololá	702	San José Chacayá	5	Chacayá	10	Octubre	2023-10-19T00:00:00	2024-11-06T08:00:00	4	Temperatura máxima	13.4
126011	7	Sololá	702	San José Chacayá	5	Chacayá	10	Octubre	2023-10-19T00:00:00	2024-11-06T08:00:00	3	Temperatura mínima	10.2
126012	7	Sololá	702	San José Chacayá	5	Chacayá	10	Octubre	2023-10-19T00:00:00	2024-11-06T08:00:00	5	Humedad	89
126013	7	Sololá	702	San José Chacayá	5	Chacayá	10	Octubre	2023-10-19T00:00:00	2024-11-06T08:00:00	6	Velocidad del viento	1.6
126014	7	Sololá	702	San José Chacayá	5	Chacayá	10	Octubre	2023-10-19T00:00:00	2024-11-06T08:00:00	7	Dirección del viento	1.61
126015	7	Sololá	702	San José Chacayá	5	Chacayá	10	Octubre	2023-10-19T00:00:00	2024-11-06T08:00:00	1	Precipitación	0
126016	7	Sololá	702	San José Chacayá	5	Chacayá	10	Octubre	2023-10-19T00:00:00	2024-11-06T08:00:00	8	Radiación solar	372
126017	7	Sololá	702	San José Chacayá	5	Chacayá	10	Octubre	2023-10-19T00:00:00	2024-11-06T09:00:00	2	Temperatura media	19.1
126018	7	Sololá	702	San José Chacayá	5	Chacayá	10	Octubre	2023-10-19T00:00:00	2024-11-06T09:00:00	4	Temperatura máxima	19.1
126019	7	Sololá	702	San José Chacayá	5	Chacayá	10	Octubre	2023-10-19T00:00:00	2024-11-06T09:00:00	3	Temperatura mínima	13.4
126020	7	Sololá	702	San José Chacayá	5	Chacayá	10	Octubre	2023-10-19T00:00:00	2024-11-06T09:00:00	5	Humedad	69
126021	7	Sololá	702	San José Chacayá	5	Chacayá	10	Octubre	2023-10-19T00:00:00	2024-11-06T09:00:00	6	Velocidad del viento	1.6
126022	7	Sololá	702	San José Chacayá	5	Chacayá	10	Octubre	2023-10-19T00:00:00	2024-11-06T09:00:00	7	Dirección del viento	1.61
126023	7	Sololá	702	San José Chacayá	5	Chacayá	10	Octubre	2023-10-19T00:00:00	2024-11-06T09:00:00	1	Precipitación	0
126024	7	Sololá	702	San José Chacayá	5	Chacayá	10	Octubre	2023-10-19T00:00:00	2024-11-06T09:00:00	8	Radiación solar	598
126025	7	Sololá	702	San José Chacayá	5	Chacayá	10	Octubre	2023-10-19T00:00:00	2024-11-06T10:00:00	2	Temperatura media	21.9
126026	7	Sololá	702	San José Chacayá	5	Chacayá	10	Octubre	2023-10-19T00:00:00	2024-11-06T10:00:00	4	Temperatura máxima	21.9
126027	7	Sololá	702	San José Chacayá	5	Chacayá	10	Octubre	2023-10-19T00:00:00	2024-11-06T10:00:00	3	Temperatura mínima	19.2
126028	7	Sololá	702	San José Chacayá	5	Chacayá	10	Octubre	2023-10-19T00:00:00	2024-11-06T10:00:00	5	Humedad	63
126029	7	Sololá	702	San José Chacayá	5	Chacayá	10	Octubre	2023-10-19T00:00:00	2024-11-06T10:00:00	6	Velocidad del viento	3.2
126030	7	Sololá	702	San José Chacayá	5	Chacayá	10	Octubre	2023-10-19T00:00:00	2024-11-06T10:00:00	7	Dirección del viento	3.22
126031	7	Sololá	702	San José Chacayá	5	Chacayá	10	Octubre	2023-10-19T00:00:00	2024-11-06T10:00:00	1	Precipitación	0
126032	7	Sololá	702	San José Chacayá	5	Chacayá	10	Octubre	2023-10-19T00:00:00	2024-11-06T10:00:00	8	Radiación solar	278
126033	7	Sololá	702	San José Chacayá	5	Chacayá	10	Octubre	2023-10-19T00:00:00	2024-11-06T11:00:00	2	Temperatura media	20.8
126034	7	Sololá	702	San José Chacayá	5	Chacayá	10	Octubre	2023-10-19T00:00:00	2024-11-06T11:00:00	4	Temperatura máxima	22.6
126035	7	Sololá	702	San José Chacayá	5	Chacayá	10	Octubre	2023-10-19T00:00:00	2024-11-06T11:00:00	3	Temperatura mínima	20.8
126036	7	Sololá	702	San José Chacayá	5	Chacayá	10	Octubre	2023-10-19T00:00:00	2024-11-06T11:00:00	5	Humedad	66
126037	7	Sololá	702	San José Chacayá	5	Chacayá	10	Octubre	2023-10-19T00:00:00	2024-11-06T11:00:00	6	Velocidad del viento	3.2
126038	7	Sololá	702	San José Chacayá	5	Chacayá	10	Octubre	2023-10-19T00:00:00	2024-11-06T11:00:00	7	Dirección del viento	3.22
126039	7	Sololá	702	San José Chacayá	5	Chacayá	10	Octubre	2023-10-19T00:00:00	2024-11-06T11:00:00	1	Precipitación	0
126040	7	Sololá	702	San José Chacayá	5	Chacayá	10	Octubre	2023-10-19T00:00:00	2024-11-06T11:00:00	8	Radiación solar	281
126041	7	Sololá	702	San José Chacayá	5	Chacayá	10	Octubre	2023-10-19T00:00:00	2024-11-06T12:00:00	2	Temperatura media	19.7
126042	7	Sololá	702	San José Chacayá	5	Chacayá	10	Octubre	2023-10-19T00:00:00	2024-11-06T12:00:00	4	Temperatura máxima	20.8
126043	7	Sololá	702	San José Chacayá	5	Chacayá	10	Octubre	2023-10-19T00:00:00	2024-11-06T12:00:00	3	Temperatura mínima	19.3
126044	7	Sololá	702	San José Chacayá	5	Chacayá	10	Octubre	2023-10-19T00:00:00	2024-11-06T12:00:00	5	Humedad	71
126045	7	Sololá	702	San José Chacayá	5	Chacayá	10	Octubre	2023-10-19T00:00:00	2024-11-06T12:00:00	6	Velocidad del viento	1.6
126046	7	Sololá	702	San José Chacayá	5	Chacayá	10	Octubre	2023-10-19T00:00:00	2024-11-06T12:00:00	7	Dirección del viento	1.61
126047	7	Sololá	702	San José Chacayá	5	Chacayá	10	Octubre	2023-10-19T00:00:00	2024-11-06T12:00:00	1	Precipitación	0
126048	7	Sololá	702	San José Chacayá	5	Chacayá	10	Octubre	2023-10-19T00:00:00	2024-11-06T12:00:00	8	Radiación solar	70
126049	7	Sololá	702	San José Chacayá	5	Chacayá	10	Octubre	2023-10-19T00:00:00	2024-11-06T13:00:00	2	Temperatura media	17.9
126050	7	Sololá	702	San José Chacayá	5	Chacayá	10	Octubre	2023-10-19T00:00:00	2024-11-06T13:00:00	4	Temperatura máxima	19.9
126051	7	Sololá	702	San José Chacayá	5	Chacayá	10	Octubre	2023-10-19T00:00:00	2024-11-06T13:00:00	3	Temperatura mínima	17.9
126052	7	Sololá	702	San José Chacayá	5	Chacayá	10	Octubre	2023-10-19T00:00:00	2024-11-06T13:00:00	5	Humedad	81
126053	7	Sololá	702	San José Chacayá	5	Chacayá	10	Octubre	2023-10-19T00:00:00	2024-11-06T13:00:00	6	Velocidad del viento	1.6
126054	7	Sololá	702	San José Chacayá	5	Chacayá	10	Octubre	2023-10-19T00:00:00	2024-11-06T13:00:00	7	Dirección del viento	1.61
126055	7	Sololá	702	San José Chacayá	5	Chacayá	10	Octubre	2023-10-19T00:00:00	2024-11-06T13:00:00	1	Precipitación	0
126056	7	Sololá	702	San José Chacayá	5	Chacayá	10	Octubre	2023-10-19T00:00:00	2024-11-06T13:00:00	8	Radiación solar	140
126057	7	Sololá	702	San José Chacayá	5	Chacayá	10	Octubre	2023-10-19T00:00:00	2024-11-06T14:00:00	2	Temperatura media	17.8
126058	7	Sololá	702	San José Chacayá	5	Chacayá	10	Octubre	2023-10-19T00:00:00	2024-11-06T14:00:00	4	Temperatura máxima	18.3
126059	7	Sololá	702	San José Chacayá	5	Chacayá	10	Octubre	2023-10-19T00:00:00	2024-11-06T14:00:00	3	Temperatura mínima	17.7
126060	7	Sololá	702	San José Chacayá	5	Chacayá	10	Octubre	2023-10-19T00:00:00	2024-11-06T14:00:00	5	Humedad	85
126061	7	Sololá	702	San José Chacayá	5	Chacayá	10	Octubre	2023-10-19T00:00:00	2024-11-06T14:00:00	6	Velocidad del viento	1.6
126062	7	Sololá	702	San José Chacayá	5	Chacayá	10	Octubre	2023-10-19T00:00:00	2024-11-06T14:00:00	7	Dirección del viento	1.61
126063	7	Sololá	702	San José Chacayá	5	Chacayá	10	Octubre	2023-10-19T00:00:00	2024-11-06T14:00:00	1	Precipitación	0
126064	7	Sololá	702	San José Chacayá	5	Chacayá	10	Octubre	2023-10-19T00:00:00	2024-11-06T14:00:00	8	Radiación solar	171
126065	7	Sololá	702	San José Chacayá	5	Chacayá	10	Octubre	2023-10-19T00:00:00	2024-11-06T15:00:00	2	Temperatura media	17.6
126066	7	Sololá	702	San José Chacayá	5	Chacayá	10	Octubre	2023-10-19T00:00:00	2024-11-06T15:00:00	4	Temperatura máxima	17.8
126067	7	Sololá	702	San José Chacayá	5	Chacayá	10	Octubre	2023-10-19T00:00:00	2024-11-06T15:00:00	3	Temperatura mínima	17.3
126068	7	Sololá	702	San José Chacayá	5	Chacayá	10	Octubre	2023-10-19T00:00:00	2024-11-06T15:00:00	5	Humedad	87
126069	7	Sololá	702	San José Chacayá	5	Chacayá	10	Octubre	2023-10-19T00:00:00	2024-11-06T15:00:00	6	Velocidad del viento	0
126070	7	Sololá	702	San José Chacayá	5	Chacayá	10	Octubre	2023-10-19T00:00:00	2024-11-06T15:00:00	7	Dirección del viento	0
126071	7	Sololá	702	San José Chacayá	5	Chacayá	10	Octubre	2023-10-19T00:00:00	2024-11-06T15:00:00	1	Precipitación	0
126072	7	Sololá	702	San José Chacayá	5	Chacayá	10	Octubre	2023-10-19T00:00:00	2024-11-06T15:00:00	8	Radiación solar	338
126073	7	Sololá	702	San José Chacayá	5	Chacayá	10	Octubre	2023-10-19T00:00:00	2024-11-06T16:00:00	2	Temperatura media	19.1
126074	7	Sololá	702	San José Chacayá	5	Chacayá	10	Octubre	2023-10-19T00:00:00	2024-11-06T16:00:00	4	Temperatura máxima	20.3
126075	7	Sololá	702	San José Chacayá	5	Chacayá	10	Octubre	2023-10-19T00:00:00	2024-11-06T16:00:00	3	Temperatura mínima	17.7
126076	7	Sololá	702	San José Chacayá	5	Chacayá	10	Octubre	2023-10-19T00:00:00	2024-11-06T16:00:00	5	Humedad	79
126077	7	Sololá	702	San José Chacayá	5	Chacayá	10	Octubre	2023-10-19T00:00:00	2024-11-06T16:00:00	6	Velocidad del viento	1.6
126078	7	Sololá	702	San José Chacayá	5	Chacayá	10	Octubre	2023-10-19T00:00:00	2024-11-06T16:00:00	7	Dirección del viento	1.61
126079	7	Sololá	702	San José Chacayá	5	Chacayá	10	Octubre	2023-10-19T00:00:00	2024-11-06T16:00:00	1	Precipitación	0
126080	7	Sololá	702	San José Chacayá	5	Chacayá	10	Octubre	2023-10-19T00:00:00	2024-11-06T16:00:00	8	Radiación solar	26
126081	7	Sololá	702	San José Chacayá	5	Chacayá	10	Octubre	2023-10-19T00:00:00	2024-11-06T17:00:00	2	Temperatura media	16.3
126082	7	Sololá	702	San José Chacayá	5	Chacayá	10	Octubre	2023-10-19T00:00:00	2024-11-06T17:00:00	4	Temperatura máxima	19.1
126083	7	Sololá	702	San José Chacayá	5	Chacayá	10	Octubre	2023-10-19T00:00:00	2024-11-06T17:00:00	3	Temperatura mínima	16.3
126084	7	Sololá	702	San José Chacayá	5	Chacayá	10	Octubre	2023-10-19T00:00:00	2024-11-06T17:00:00	5	Humedad	92
126085	7	Sololá	702	San José Chacayá	5	Chacayá	10	Octubre	2023-10-19T00:00:00	2024-11-06T17:00:00	6	Velocidad del viento	1.6
126086	7	Sololá	702	San José Chacayá	5	Chacayá	10	Octubre	2023-10-19T00:00:00	2024-11-06T17:00:00	7	Dirección del viento	1.61
126087	7	Sololá	702	San José Chacayá	5	Chacayá	10	Octubre	2023-10-19T00:00:00	2024-11-06T17:00:00	1	Precipitación	0
126088	7	Sololá	702	San José Chacayá	5	Chacayá	10	Octubre	2023-10-19T00:00:00	2024-11-06T17:00:00	8	Radiación solar	56
126089	7	Sololá	702	San José Chacayá	5	Chacayá	10	Octubre	2023-10-19T00:00:00	2024-11-06T18:00:00	2	Temperatura media	16.4
126090	7	Sololá	702	San José Chacayá	5	Chacayá	10	Octubre	2023-10-19T00:00:00	2024-11-06T18:00:00	4	Temperatura máxima	16.5
126091	7	Sololá	702	San José Chacayá	5	Chacayá	10	Octubre	2023-10-19T00:00:00	2024-11-06T18:00:00	3	Temperatura mínima	16.2
126092	7	Sololá	702	San José Chacayá	5	Chacayá	10	Octubre	2023-10-19T00:00:00	2024-11-06T18:00:00	5	Humedad	91
126093	7	Sololá	702	San José Chacayá	5	Chacayá	10	Octubre	2023-10-19T00:00:00	2024-11-06T18:00:00	6	Velocidad del viento	0
126094	7	Sololá	702	San José Chacayá	5	Chacayá	10	Octubre	2023-10-19T00:00:00	2024-11-06T18:00:00	7	Dirección del viento	0
126095	7	Sololá	702	San José Chacayá	5	Chacayá	10	Octubre	2023-10-19T00:00:00	2024-11-06T18:00:00	1	Precipitación	0
126096	7	Sololá	702	San José Chacayá	5	Chacayá	10	Octubre	2023-10-19T00:00:00	2024-11-06T18:00:00	8	Radiación solar	0
126097	7	Sololá	702	San José Chacayá	5	Chacayá	10	Octubre	2023-10-19T00:00:00	2024-11-06T19:00:00	2	Temperatura media	15.7
126098	7	Sololá	702	San José Chacayá	5	Chacayá	10	Octubre	2023-10-19T00:00:00	2024-11-06T19:00:00	4	Temperatura máxima	16.4
126099	7	Sololá	702	San José Chacayá	5	Chacayá	10	Octubre	2023-10-19T00:00:00	2024-11-06T19:00:00	3	Temperatura mínima	15.7
126100	7	Sololá	702	San José Chacayá	5	Chacayá	10	Octubre	2023-10-19T00:00:00	2024-11-06T19:00:00	5	Humedad	90
126101	7	Sololá	702	San José Chacayá	5	Chacayá	10	Octubre	2023-10-19T00:00:00	2024-11-06T19:00:00	6	Velocidad del viento	0
126102	7	Sololá	702	San José Chacayá	5	Chacayá	10	Octubre	2023-10-19T00:00:00	2024-11-06T19:00:00	7	Dirección del viento	0
126103	7	Sololá	702	San José Chacayá	5	Chacayá	10	Octubre	2023-10-19T00:00:00	2024-11-06T19:00:00	1	Precipitación	0
126104	7	Sololá	702	San José Chacayá	5	Chacayá	10	Octubre	2023-10-19T00:00:00	2024-11-06T19:00:00	8	Radiación solar	0
126105	7	Sololá	702	San José Chacayá	5	Chacayá	10	Octubre	2023-10-19T00:00:00	2024-11-06T20:00:00	2	Temperatura media	14.4
126106	7	Sololá	702	San José Chacayá	5	Chacayá	10	Octubre	2023-10-19T00:00:00	2024-11-06T20:00:00	4	Temperatura máxima	15.7
126107	7	Sololá	702	San José Chacayá	5	Chacayá	10	Octubre	2023-10-19T00:00:00	2024-11-06T20:00:00	3	Temperatura mínima	14.4
126108	7	Sololá	702	San José Chacayá	5	Chacayá	10	Octubre	2023-10-19T00:00:00	2024-11-06T20:00:00	5	Humedad	92
126109	7	Sololá	702	San José Chacayá	5	Chacayá	10	Octubre	2023-10-19T00:00:00	2024-11-06T20:00:00	6	Velocidad del viento	0
126110	7	Sololá	702	San José Chacayá	5	Chacayá	10	Octubre	2023-10-19T00:00:00	2024-11-06T20:00:00	7	Dirección del viento	0
126111	7	Sololá	702	San José Chacayá	5	Chacayá	10	Octubre	2023-10-19T00:00:00	2024-11-06T20:00:00	1	Precipitación	0
126112	7	Sololá	702	San José Chacayá	5	Chacayá	10	Octubre	2023-10-19T00:00:00	2024-11-06T20:00:00	8	Radiación solar	0
126113	7	Sololá	702	San José Chacayá	5	Chacayá	10	Octubre	2023-10-19T00:00:00	2024-11-06T21:00:00	2	Temperatura media	14.4
126114	7	Sololá	702	San José Chacayá	5	Chacayá	10	Octubre	2023-10-19T00:00:00	2024-11-06T21:00:00	4	Temperatura máxima	14.5
126115	7	Sololá	702	San José Chacayá	5	Chacayá	10	Octubre	2023-10-19T00:00:00	2024-11-06T21:00:00	3	Temperatura mínima	14.3
126116	7	Sololá	702	San José Chacayá	5	Chacayá	10	Octubre	2023-10-19T00:00:00	2024-11-06T21:00:00	5	Humedad	94
126117	7	Sololá	702	San José Chacayá	5	Chacayá	10	Octubre	2023-10-19T00:00:00	2024-11-06T21:00:00	6	Velocidad del viento	0
126118	7	Sololá	702	San José Chacayá	5	Chacayá	10	Octubre	2023-10-19T00:00:00	2024-11-06T21:00:00	7	Dirección del viento	0
126119	7	Sololá	702	San José Chacayá	5	Chacayá	10	Octubre	2023-10-19T00:00:00	2024-11-06T21:00:00	1	Precipitación	0.2
126120	7	Sololá	702	San José Chacayá	5	Chacayá	10	Octubre	2023-10-19T00:00:00	2024-11-06T21:00:00	8	Radiación solar	0
126121	7	Sololá	702	San José Chacayá	5	Chacayá	10	Octubre	2023-10-19T00:00:00	2024-11-06T22:00:00	2	Temperatura media	14.3
126122	7	Sololá	702	San José Chacayá	5	Chacayá	10	Octubre	2023-10-19T00:00:00	2024-11-06T22:00:00	4	Temperatura máxima	14.5
126123	7	Sololá	702	San José Chacayá	5	Chacayá	10	Octubre	2023-10-19T00:00:00	2024-11-06T22:00:00	3	Temperatura mínima	14.3
126124	7	Sololá	702	San José Chacayá	5	Chacayá	10	Octubre	2023-10-19T00:00:00	2024-11-06T22:00:00	5	Humedad	94
126125	7	Sololá	702	San José Chacayá	5	Chacayá	10	Octubre	2023-10-19T00:00:00	2024-11-06T22:00:00	6	Velocidad del viento	0
126126	7	Sololá	702	San José Chacayá	5	Chacayá	10	Octubre	2023-10-19T00:00:00	2024-11-06T22:00:00	7	Dirección del viento	0
126127	7	Sololá	702	San José Chacayá	5	Chacayá	10	Octubre	2023-10-19T00:00:00	2024-11-06T22:00:00	1	Precipitación	0
126128	7	Sololá	702	San José Chacayá	5	Chacayá	10	Octubre	2023-10-19T00:00:00	2024-11-06T22:00:00	8	Radiación solar	0
126129	7	Sololá	702	San José Chacayá	5	Chacayá	10	Octubre	2023-10-19T00:00:00	2024-11-06T23:00:00	2	Temperatura media	14.3
126130	7	Sololá	702	San José Chacayá	5	Chacayá	10	Octubre	2023-10-19T00:00:00	2024-11-06T23:00:00	4	Temperatura máxima	14.3
126131	7	Sololá	702	San José Chacayá	5	Chacayá	10	Octubre	2023-10-19T00:00:00	2024-11-06T23:00:00	3	Temperatura mínima	14.2
126132	7	Sololá	702	San José Chacayá	5	Chacayá	10	Octubre	2023-10-19T00:00:00	2024-11-06T23:00:00	5	Humedad	94
126133	7	Sololá	702	San José Chacayá	5	Chacayá	10	Octubre	2023-10-19T00:00:00	2024-11-06T23:00:00	6	Velocidad del viento	0
126134	7	Sololá	702	San José Chacayá	5	Chacayá	10	Octubre	2023-10-19T00:00:00	2024-11-06T23:00:00	7	Dirección del viento	0
126135	7	Sololá	702	San José Chacayá	5	Chacayá	10	Octubre	2023-10-19T00:00:00	2024-11-06T23:00:00	1	Precipitación	0
126136	7	Sololá	702	San José Chacayá	5	Chacayá	10	Octubre	2023-10-19T00:00:00	2024-11-06T23:00:00	8	Radiación solar	0
126137	7	Sololá	702	San José Chacayá	5	Chacayá	10	Octubre	2023-10-20T00:00:00	2024-11-06T00:00:00	2	Temperatura media	13.7
126138	7	Sololá	702	San José Chacayá	5	Chacayá	10	Octubre	2023-10-20T00:00:00	2024-11-06T00:00:00	4	Temperatura máxima	14.3
126139	7	Sololá	702	San José Chacayá	5	Chacayá	10	Octubre	2023-10-20T00:00:00	2024-11-06T00:00:00	3	Temperatura mínima	13.7
126140	7	Sololá	702	San José Chacayá	5	Chacayá	10	Octubre	2023-10-20T00:00:00	2024-11-06T00:00:00	5	Humedad	94
126141	7	Sololá	702	San José Chacayá	5	Chacayá	10	Octubre	2023-10-20T00:00:00	2024-11-06T00:00:00	6	Velocidad del viento	0
126142	7	Sololá	702	San José Chacayá	5	Chacayá	10	Octubre	2023-10-20T00:00:00	2024-11-06T00:00:00	7	Dirección del viento	0
126143	7	Sololá	702	San José Chacayá	5	Chacayá	10	Octubre	2023-10-20T00:00:00	2024-11-06T00:00:00	1	Precipitación	0
126144	7	Sololá	702	San José Chacayá	5	Chacayá	10	Octubre	2023-10-20T00:00:00	2024-11-06T00:00:00	8	Radiación solar	0
126145	7	Sololá	702	San José Chacayá	5	Chacayá	10	Octubre	2023-10-20T00:00:00	2024-11-06T01:00:00	2	Temperatura media	13.1
126146	7	Sololá	702	San José Chacayá	5	Chacayá	10	Octubre	2023-10-20T00:00:00	2024-11-06T01:00:00	4	Temperatura máxima	13.8
126147	7	Sololá	702	San José Chacayá	5	Chacayá	10	Octubre	2023-10-20T00:00:00	2024-11-06T01:00:00	3	Temperatura mínima	13.1
126148	7	Sololá	702	San José Chacayá	5	Chacayá	10	Octubre	2023-10-20T00:00:00	2024-11-06T01:00:00	5	Humedad	94
126149	7	Sololá	702	San José Chacayá	5	Chacayá	10	Octubre	2023-10-20T00:00:00	2024-11-06T01:00:00	6	Velocidad del viento	0
126150	7	Sololá	702	San José Chacayá	5	Chacayá	10	Octubre	2023-10-20T00:00:00	2024-11-06T01:00:00	7	Dirección del viento	0
126151	7	Sololá	702	San José Chacayá	5	Chacayá	10	Octubre	2023-10-20T00:00:00	2024-11-06T01:00:00	1	Precipitación	0
126152	7	Sololá	702	San José Chacayá	5	Chacayá	10	Octubre	2023-10-20T00:00:00	2024-11-06T01:00:00	8	Radiación solar	0
126153	7	Sololá	702	San José Chacayá	5	Chacayá	10	Octubre	2023-10-20T00:00:00	2024-11-06T02:00:00	2	Temperatura media	12.9
126154	7	Sololá	702	San José Chacayá	5	Chacayá	10	Octubre	2023-10-20T00:00:00	2024-11-06T02:00:00	4	Temperatura máxima	13.2
126155	7	Sololá	702	San José Chacayá	5	Chacayá	10	Octubre	2023-10-20T00:00:00	2024-11-06T02:00:00	3	Temperatura mínima	12.8
126156	7	Sololá	702	San José Chacayá	5	Chacayá	10	Octubre	2023-10-20T00:00:00	2024-11-06T02:00:00	5	Humedad	94
126157	7	Sololá	702	San José Chacayá	5	Chacayá	10	Octubre	2023-10-20T00:00:00	2024-11-06T02:00:00	6	Velocidad del viento	0
126158	7	Sololá	702	San José Chacayá	5	Chacayá	10	Octubre	2023-10-20T00:00:00	2024-11-06T02:00:00	7	Dirección del viento	0
126159	7	Sololá	702	San José Chacayá	5	Chacayá	10	Octubre	2023-10-20T00:00:00	2024-11-06T02:00:00	1	Precipitación	0
126160	7	Sololá	702	San José Chacayá	5	Chacayá	10	Octubre	2023-10-20T00:00:00	2024-11-06T02:00:00	8	Radiación solar	0
126161	7	Sololá	702	San José Chacayá	5	Chacayá	10	Octubre	2023-10-20T00:00:00	2024-11-06T03:00:00	2	Temperatura media	12.1
126162	7	Sololá	702	San José Chacayá	5	Chacayá	10	Octubre	2023-10-20T00:00:00	2024-11-06T03:00:00	4	Temperatura máxima	12.8
126163	7	Sololá	702	San José Chacayá	5	Chacayá	10	Octubre	2023-10-20T00:00:00	2024-11-06T03:00:00	3	Temperatura mínima	12.1
126164	7	Sololá	702	San José Chacayá	5	Chacayá	10	Octubre	2023-10-20T00:00:00	2024-11-06T03:00:00	5	Humedad	94
126165	7	Sololá	702	San José Chacayá	5	Chacayá	10	Octubre	2023-10-20T00:00:00	2024-11-06T03:00:00	6	Velocidad del viento	0
126166	7	Sololá	702	San José Chacayá	5	Chacayá	10	Octubre	2023-10-20T00:00:00	2024-11-06T03:00:00	7	Dirección del viento	0
126167	7	Sololá	702	San José Chacayá	5	Chacayá	10	Octubre	2023-10-20T00:00:00	2024-11-06T03:00:00	1	Precipitación	0
126168	7	Sololá	702	San José Chacayá	5	Chacayá	10	Octubre	2023-10-20T00:00:00	2024-11-06T03:00:00	8	Radiación solar	0
126169	7	Sololá	702	San José Chacayá	5	Chacayá	10	Octubre	2023-10-20T00:00:00	2024-11-06T04:00:00	2	Temperatura media	11.2
126170	7	Sololá	702	San José Chacayá	5	Chacayá	10	Octubre	2023-10-20T00:00:00	2024-11-06T04:00:00	4	Temperatura máxima	12.1
126171	7	Sololá	702	San José Chacayá	5	Chacayá	10	Octubre	2023-10-20T00:00:00	2024-11-06T04:00:00	3	Temperatura mínima	11.1
126172	7	Sololá	702	San José Chacayá	5	Chacayá	10	Octubre	2023-10-20T00:00:00	2024-11-06T04:00:00	5	Humedad	94
126173	7	Sololá	702	San José Chacayá	5	Chacayá	10	Octubre	2023-10-20T00:00:00	2024-11-06T04:00:00	6	Velocidad del viento	0
126174	7	Sololá	702	San José Chacayá	5	Chacayá	10	Octubre	2023-10-20T00:00:00	2024-11-06T04:00:00	7	Dirección del viento	0
126175	7	Sololá	702	San José Chacayá	5	Chacayá	10	Octubre	2023-10-20T00:00:00	2024-11-06T04:00:00	1	Precipitación	0
126176	7	Sololá	702	San José Chacayá	5	Chacayá	10	Octubre	2023-10-20T00:00:00	2024-11-06T04:00:00	8	Radiación solar	0
126177	7	Sololá	702	San José Chacayá	5	Chacayá	10	Octubre	2023-10-20T00:00:00	2024-11-06T05:00:00	2	Temperatura media	10.5
126178	7	Sololá	702	San José Chacayá	5	Chacayá	10	Octubre	2023-10-20T00:00:00	2024-11-06T05:00:00	4	Temperatura máxima	11.2
126179	7	Sololá	702	San José Chacayá	5	Chacayá	10	Octubre	2023-10-20T00:00:00	2024-11-06T05:00:00	3	Temperatura mínima	10.5
126180	7	Sololá	702	San José Chacayá	5	Chacayá	10	Octubre	2023-10-20T00:00:00	2024-11-06T05:00:00	5	Humedad	94
126181	7	Sololá	702	San José Chacayá	5	Chacayá	10	Octubre	2023-10-20T00:00:00	2024-11-06T05:00:00	6	Velocidad del viento	0
126182	7	Sololá	702	San José Chacayá	5	Chacayá	10	Octubre	2023-10-20T00:00:00	2024-11-06T05:00:00	7	Dirección del viento	0
126183	7	Sololá	702	San José Chacayá	5	Chacayá	10	Octubre	2023-10-20T00:00:00	2024-11-06T05:00:00	1	Precipitación	0
126184	7	Sololá	702	San José Chacayá	5	Chacayá	10	Octubre	2023-10-20T00:00:00	2024-11-06T05:00:00	8	Radiación solar	0
126185	7	Sololá	702	San José Chacayá	5	Chacayá	10	Octubre	2023-10-20T00:00:00	2024-11-06T06:00:00	2	Temperatura media	10
126186	7	Sololá	702	San José Chacayá	5	Chacayá	10	Octubre	2023-10-20T00:00:00	2024-11-06T06:00:00	4	Temperatura máxima	10.5
126187	7	Sololá	702	San José Chacayá	5	Chacayá	10	Octubre	2023-10-20T00:00:00	2024-11-06T06:00:00	3	Temperatura mínima	10
126188	7	Sololá	702	San José Chacayá	5	Chacayá	10	Octubre	2023-10-20T00:00:00	2024-11-06T06:00:00	5	Humedad	95
126189	7	Sololá	702	San José Chacayá	5	Chacayá	10	Octubre	2023-10-20T00:00:00	2024-11-06T06:00:00	6	Velocidad del viento	0
126190	7	Sololá	702	San José Chacayá	5	Chacayá	10	Octubre	2023-10-20T00:00:00	2024-11-06T06:00:00	7	Dirección del viento	0
126191	7	Sololá	702	San José Chacayá	5	Chacayá	10	Octubre	2023-10-20T00:00:00	2024-11-06T06:00:00	1	Precipitación	0
126192	7	Sololá	702	San José Chacayá	5	Chacayá	10	Octubre	2023-10-20T00:00:00	2024-11-06T06:00:00	8	Radiación solar	1
126193	7	Sololá	702	San José Chacayá	5	Chacayá	10	Octubre	2023-10-20T00:00:00	2024-11-06T07:00:00	2	Temperatura media	9.8
126194	7	Sololá	702	San José Chacayá	5	Chacayá	10	Octubre	2023-10-20T00:00:00	2024-11-06T07:00:00	4	Temperatura máxima	10
126195	7	Sololá	702	San José Chacayá	5	Chacayá	10	Octubre	2023-10-20T00:00:00	2024-11-06T07:00:00	3	Temperatura mínima	9.8
126196	7	Sololá	702	San José Chacayá	5	Chacayá	10	Octubre	2023-10-20T00:00:00	2024-11-06T07:00:00	5	Humedad	95
126197	7	Sololá	702	San José Chacayá	5	Chacayá	10	Octubre	2023-10-20T00:00:00	2024-11-06T07:00:00	6	Velocidad del viento	0
126198	7	Sololá	702	San José Chacayá	5	Chacayá	10	Octubre	2023-10-20T00:00:00	2024-11-06T07:00:00	7	Dirección del viento	0
126199	7	Sololá	702	San José Chacayá	5	Chacayá	10	Octubre	2023-10-20T00:00:00	2024-11-06T07:00:00	1	Precipitación	0
126200	7	Sololá	702	San José Chacayá	5	Chacayá	10	Octubre	2023-10-20T00:00:00	2024-11-06T07:00:00	8	Radiación solar	102
126201	7	Sololá	702	San José Chacayá	5	Chacayá	10	Octubre	2023-10-20T00:00:00	2024-11-06T08:00:00	2	Temperatura media	11.8
126202	7	Sololá	702	San José Chacayá	5	Chacayá	10	Octubre	2023-10-20T00:00:00	2024-11-06T08:00:00	4	Temperatura máxima	11.8
126203	7	Sololá	702	San José Chacayá	5	Chacayá	10	Octubre	2023-10-20T00:00:00	2024-11-06T08:00:00	3	Temperatura mínima	9.8
126204	7	Sololá	702	San José Chacayá	5	Chacayá	10	Octubre	2023-10-20T00:00:00	2024-11-06T08:00:00	5	Humedad	95
126205	7	Sololá	702	San José Chacayá	5	Chacayá	10	Octubre	2023-10-20T00:00:00	2024-11-06T08:00:00	6	Velocidad del viento	0
126206	7	Sololá	702	San José Chacayá	5	Chacayá	10	Octubre	2023-10-20T00:00:00	2024-11-06T08:00:00	7	Dirección del viento	0
126207	7	Sololá	702	San José Chacayá	5	Chacayá	10	Octubre	2023-10-20T00:00:00	2024-11-06T08:00:00	1	Precipitación	0.2
126208	7	Sololá	702	San José Chacayá	5	Chacayá	10	Octubre	2023-10-20T00:00:00	2024-11-06T08:00:00	8	Radiación solar	326
126209	7	Sololá	702	San José Chacayá	5	Chacayá	10	Octubre	2023-10-20T00:00:00	2024-11-06T09:00:00	2	Temperatura media	16.7
126210	7	Sololá	702	San José Chacayá	5	Chacayá	10	Octubre	2023-10-20T00:00:00	2024-11-06T09:00:00	4	Temperatura máxima	16.7
126211	7	Sololá	702	San José Chacayá	5	Chacayá	10	Octubre	2023-10-20T00:00:00	2024-11-06T09:00:00	3	Temperatura mínima	11.8
126212	7	Sololá	702	San José Chacayá	5	Chacayá	10	Octubre	2023-10-20T00:00:00	2024-11-06T09:00:00	5	Humedad	80
126213	7	Sololá	702	San José Chacayá	5	Chacayá	10	Octubre	2023-10-20T00:00:00	2024-11-06T09:00:00	6	Velocidad del viento	0
126214	7	Sololá	702	San José Chacayá	5	Chacayá	10	Octubre	2023-10-20T00:00:00	2024-11-06T09:00:00	7	Dirección del viento	0
126215	7	Sololá	702	San José Chacayá	5	Chacayá	10	Octubre	2023-10-20T00:00:00	2024-11-06T09:00:00	1	Precipitación	0
126216	7	Sololá	702	San José Chacayá	5	Chacayá	10	Octubre	2023-10-20T00:00:00	2024-11-06T09:00:00	8	Radiación solar	544
126217	7	Sololá	702	San José Chacayá	5	Chacayá	10	Octubre	2023-10-20T00:00:00	2024-11-06T10:00:00	2	Temperatura media	19.3
126218	7	Sololá	702	San José Chacayá	5	Chacayá	10	Octubre	2023-10-20T00:00:00	2024-11-06T10:00:00	4	Temperatura máxima	19.3
126219	7	Sololá	702	San José Chacayá	5	Chacayá	10	Octubre	2023-10-20T00:00:00	2024-11-06T10:00:00	3	Temperatura mínima	16.7
126220	7	Sololá	702	San José Chacayá	5	Chacayá	10	Octubre	2023-10-20T00:00:00	2024-11-06T10:00:00	5	Humedad	72
126221	7	Sololá	702	San José Chacayá	5	Chacayá	10	Octubre	2023-10-20T00:00:00	2024-11-06T10:00:00	6	Velocidad del viento	1.6
126222	7	Sololá	702	San José Chacayá	5	Chacayá	10	Octubre	2023-10-20T00:00:00	2024-11-06T10:00:00	7	Dirección del viento	1.61
126223	7	Sololá	702	San José Chacayá	5	Chacayá	10	Octubre	2023-10-20T00:00:00	2024-11-06T10:00:00	1	Precipitación	0
126224	7	Sololá	702	San José Chacayá	5	Chacayá	10	Octubre	2023-10-20T00:00:00	2024-11-06T10:00:00	8	Radiación solar	654
126225	7	Sololá	702	San José Chacayá	5	Chacayá	10	Octubre	2023-10-20T00:00:00	2024-11-06T11:00:00	2	Temperatura media	21.4
126226	7	Sololá	702	San José Chacayá	5	Chacayá	10	Octubre	2023-10-20T00:00:00	2024-11-06T11:00:00	4	Temperatura máxima	21.4
126227	7	Sololá	702	San José Chacayá	5	Chacayá	10	Octubre	2023-10-20T00:00:00	2024-11-06T11:00:00	3	Temperatura mínima	19.3
126228	7	Sololá	702	San José Chacayá	5	Chacayá	10	Octubre	2023-10-20T00:00:00	2024-11-06T11:00:00	5	Humedad	66
126229	7	Sololá	702	San José Chacayá	5	Chacayá	10	Octubre	2023-10-20T00:00:00	2024-11-06T11:00:00	6	Velocidad del viento	3.2
126230	7	Sololá	702	San José Chacayá	5	Chacayá	10	Octubre	2023-10-20T00:00:00	2024-11-06T11:00:00	7	Dirección del viento	3.22
126231	7	Sololá	702	San José Chacayá	5	Chacayá	10	Octubre	2023-10-20T00:00:00	2024-11-06T11:00:00	1	Precipitación	0
126232	7	Sololá	702	San José Chacayá	5	Chacayá	10	Octubre	2023-10-20T00:00:00	2024-11-06T11:00:00	8	Radiación solar	948
126233	7	Sololá	702	San José Chacayá	5	Chacayá	10	Octubre	2023-10-20T00:00:00	2024-11-06T12:00:00	2	Temperatura media	21.4
126234	7	Sololá	702	San José Chacayá	5	Chacayá	10	Octubre	2023-10-20T00:00:00	2024-11-06T12:00:00	4	Temperatura máxima	21.9
126235	7	Sololá	702	San José Chacayá	5	Chacayá	10	Octubre	2023-10-20T00:00:00	2024-11-06T12:00:00	3	Temperatura mínima	21.1
126236	7	Sololá	702	San José Chacayá	5	Chacayá	10	Octubre	2023-10-20T00:00:00	2024-11-06T12:00:00	5	Humedad	67
126237	7	Sololá	702	San José Chacayá	5	Chacayá	10	Octubre	2023-10-20T00:00:00	2024-11-06T12:00:00	6	Velocidad del viento	4.8
126238	7	Sololá	702	San José Chacayá	5	Chacayá	10	Octubre	2023-10-20T00:00:00	2024-11-06T12:00:00	7	Dirección del viento	4.83
126239	7	Sololá	702	San José Chacayá	5	Chacayá	10	Octubre	2023-10-20T00:00:00	2024-11-06T12:00:00	1	Precipitación	0
126240	7	Sololá	702	San José Chacayá	5	Chacayá	10	Octubre	2023-10-20T00:00:00	2024-11-06T12:00:00	8	Radiación solar	906
126241	7	Sololá	702	San José Chacayá	5	Chacayá	10	Octubre	2023-10-20T00:00:00	2024-11-06T13:00:00	2	Temperatura media	21.4
126242	7	Sololá	702	San José Chacayá	5	Chacayá	10	Octubre	2023-10-20T00:00:00	2024-11-06T13:00:00	4	Temperatura máxima	22.1
126243	7	Sololá	702	San José Chacayá	5	Chacayá	10	Octubre	2023-10-20T00:00:00	2024-11-06T13:00:00	3	Temperatura mínima	20.7
126244	7	Sololá	702	San José Chacayá	5	Chacayá	10	Octubre	2023-10-20T00:00:00	2024-11-06T13:00:00	5	Humedad	67
126245	7	Sololá	702	San José Chacayá	5	Chacayá	10	Octubre	2023-10-20T00:00:00	2024-11-06T13:00:00	6	Velocidad del viento	4.8
126246	7	Sololá	702	San José Chacayá	5	Chacayá	10	Octubre	2023-10-20T00:00:00	2024-11-06T13:00:00	7	Dirección del viento	4.83
126247	7	Sololá	702	San José Chacayá	5	Chacayá	10	Octubre	2023-10-20T00:00:00	2024-11-06T13:00:00	1	Precipitación	0
126248	7	Sololá	702	San José Chacayá	5	Chacayá	10	Octubre	2023-10-20T00:00:00	2024-11-06T13:00:00	8	Radiación solar	279
126249	7	Sololá	702	San José Chacayá	5	Chacayá	10	Octubre	2023-10-20T00:00:00	2024-11-06T14:00:00	2	Temperatura media	19.4
126250	7	Sololá	702	San José Chacayá	5	Chacayá	10	Octubre	2023-10-20T00:00:00	2024-11-06T14:00:00	4	Temperatura máxima	21.7
126251	7	Sololá	702	San José Chacayá	5	Chacayá	10	Octubre	2023-10-20T00:00:00	2024-11-06T14:00:00	3	Temperatura mínima	19.4
126252	7	Sololá	702	San José Chacayá	5	Chacayá	10	Octubre	2023-10-20T00:00:00	2024-11-06T14:00:00	5	Humedad	79
126253	7	Sololá	702	San José Chacayá	5	Chacayá	10	Octubre	2023-10-20T00:00:00	2024-11-06T14:00:00	6	Velocidad del viento	4.8
126254	7	Sololá	702	San José Chacayá	5	Chacayá	10	Octubre	2023-10-20T00:00:00	2024-11-06T14:00:00	7	Dirección del viento	4.83
126255	7	Sololá	702	San José Chacayá	5	Chacayá	10	Octubre	2023-10-20T00:00:00	2024-11-06T14:00:00	1	Precipitación	0
126256	7	Sololá	702	San José Chacayá	5	Chacayá	10	Octubre	2023-10-20T00:00:00	2024-11-06T14:00:00	8	Radiación solar	103
126257	7	Sololá	702	San José Chacayá	5	Chacayá	10	Octubre	2023-10-20T00:00:00	2024-11-06T15:00:00	2	Temperatura media	17.6
126258	7	Sololá	702	San José Chacayá	5	Chacayá	10	Octubre	2023-10-20T00:00:00	2024-11-06T15:00:00	4	Temperatura máxima	19.3
126259	7	Sololá	702	San José Chacayá	5	Chacayá	10	Octubre	2023-10-20T00:00:00	2024-11-06T15:00:00	3	Temperatura mínima	17.6
126260	7	Sololá	702	San José Chacayá	5	Chacayá	10	Octubre	2023-10-20T00:00:00	2024-11-06T15:00:00	5	Humedad	85
126261	7	Sololá	702	San José Chacayá	5	Chacayá	10	Octubre	2023-10-20T00:00:00	2024-11-06T15:00:00	6	Velocidad del viento	3.2
126262	7	Sololá	702	San José Chacayá	5	Chacayá	10	Octubre	2023-10-20T00:00:00	2024-11-06T15:00:00	7	Dirección del viento	3.22
126263	7	Sololá	702	San José Chacayá	5	Chacayá	10	Octubre	2023-10-20T00:00:00	2024-11-06T15:00:00	1	Precipitación	0
126264	7	Sololá	702	San José Chacayá	5	Chacayá	10	Octubre	2023-10-20T00:00:00	2024-11-06T15:00:00	8	Radiación solar	129
126265	7	Sololá	702	San José Chacayá	5	Chacayá	10	Octubre	2023-10-20T00:00:00	2024-11-06T16:00:00	2	Temperatura media	17.4
126266	7	Sololá	702	San José Chacayá	5	Chacayá	10	Octubre	2023-10-20T00:00:00	2024-11-06T16:00:00	4	Temperatura máxima	17.7
126267	7	Sololá	702	San José Chacayá	5	Chacayá	10	Octubre	2023-10-20T00:00:00	2024-11-06T16:00:00	3	Temperatura mínima	17.3
126268	7	Sololá	702	San José Chacayá	5	Chacayá	10	Octubre	2023-10-20T00:00:00	2024-11-06T16:00:00	5	Humedad	87
126269	7	Sololá	702	San José Chacayá	5	Chacayá	10	Octubre	2023-10-20T00:00:00	2024-11-06T16:00:00	6	Velocidad del viento	1.6
126270	7	Sololá	702	San José Chacayá	5	Chacayá	10	Octubre	2023-10-20T00:00:00	2024-11-06T16:00:00	7	Dirección del viento	1.61
126271	7	Sololá	702	San José Chacayá	5	Chacayá	10	Octubre	2023-10-20T00:00:00	2024-11-06T16:00:00	1	Precipitación	0
126272	7	Sololá	702	San José Chacayá	5	Chacayá	10	Octubre	2023-10-20T00:00:00	2024-11-06T16:00:00	8	Radiación solar	175
126273	7	Sololá	702	San José Chacayá	5	Chacayá	10	Octubre	2023-10-20T00:00:00	2024-11-06T17:00:00	2	Temperatura media	18.6
126274	7	Sololá	702	San José Chacayá	5	Chacayá	10	Octubre	2023-10-20T00:00:00	2024-11-06T17:00:00	4	Temperatura máxima	18.6
126275	7	Sololá	702	San José Chacayá	5	Chacayá	10	Octubre	2023-10-20T00:00:00	2024-11-06T17:00:00	3	Temperatura mínima	17.3
126276	7	Sololá	702	San José Chacayá	5	Chacayá	10	Octubre	2023-10-20T00:00:00	2024-11-06T17:00:00	5	Humedad	83
126277	7	Sololá	702	San José Chacayá	5	Chacayá	10	Octubre	2023-10-20T00:00:00	2024-11-06T17:00:00	6	Velocidad del viento	1.6
126278	7	Sololá	702	San José Chacayá	5	Chacayá	10	Octubre	2023-10-20T00:00:00	2024-11-06T17:00:00	7	Dirección del viento	1.61
126279	7	Sololá	702	San José Chacayá	5	Chacayá	10	Octubre	2023-10-20T00:00:00	2024-11-06T17:00:00	1	Precipitación	0
126280	7	Sololá	702	San José Chacayá	5	Chacayá	10	Octubre	2023-10-20T00:00:00	2024-11-06T17:00:00	8	Radiación solar	104
126281	7	Sololá	702	San José Chacayá	5	Chacayá	10	Octubre	2023-10-20T00:00:00	2024-11-06T18:00:00	2	Temperatura media	17.8
126282	7	Sololá	702	San José Chacayá	5	Chacayá	10	Octubre	2023-10-20T00:00:00	2024-11-06T18:00:00	4	Temperatura máxima	18.6
126283	7	Sololá	702	San José Chacayá	5	Chacayá	10	Octubre	2023-10-20T00:00:00	2024-11-06T18:00:00	3	Temperatura mínima	17.7
126284	7	Sololá	702	San José Chacayá	5	Chacayá	10	Octubre	2023-10-20T00:00:00	2024-11-06T18:00:00	5	Humedad	85
126285	7	Sololá	702	San José Chacayá	5	Chacayá	10	Octubre	2023-10-20T00:00:00	2024-11-06T18:00:00	6	Velocidad del viento	1.6
126286	7	Sololá	702	San José Chacayá	5	Chacayá	10	Octubre	2023-10-20T00:00:00	2024-11-06T18:00:00	7	Dirección del viento	1.61
126287	7	Sololá	702	San José Chacayá	5	Chacayá	10	Octubre	2023-10-20T00:00:00	2024-11-06T18:00:00	1	Precipitación	0
126288	7	Sololá	702	San José Chacayá	5	Chacayá	10	Octubre	2023-10-20T00:00:00	2024-11-06T18:00:00	8	Radiación solar	3
126289	7	Sololá	702	San José Chacayá	5	Chacayá	10	Octubre	2023-10-20T00:00:00	2024-11-06T19:00:00	2	Temperatura media	16.1
126290	7	Sololá	702	San José Chacayá	5	Chacayá	10	Octubre	2023-10-20T00:00:00	2024-11-06T19:00:00	4	Temperatura máxima	17.8
126291	7	Sololá	702	San José Chacayá	5	Chacayá	10	Octubre	2023-10-20T00:00:00	2024-11-06T19:00:00	3	Temperatura mínima	16.1
126292	7	Sololá	702	San José Chacayá	5	Chacayá	10	Octubre	2023-10-20T00:00:00	2024-11-06T19:00:00	5	Humedad	89
126293	7	Sololá	702	San José Chacayá	5	Chacayá	10	Octubre	2023-10-20T00:00:00	2024-11-06T19:00:00	6	Velocidad del viento	0
126294	7	Sololá	702	San José Chacayá	5	Chacayá	10	Octubre	2023-10-20T00:00:00	2024-11-06T19:00:00	7	Dirección del viento	0
126295	7	Sololá	702	San José Chacayá	5	Chacayá	10	Octubre	2023-10-20T00:00:00	2024-11-06T19:00:00	1	Precipitación	0
126296	7	Sololá	702	San José Chacayá	5	Chacayá	10	Octubre	2023-10-20T00:00:00	2024-11-06T19:00:00	8	Radiación solar	0
126297	7	Sololá	702	San José Chacayá	5	Chacayá	10	Octubre	2023-10-20T00:00:00	2024-11-06T20:00:00	2	Temperatura media	14.6
126298	7	Sololá	702	San José Chacayá	5	Chacayá	10	Octubre	2023-10-20T00:00:00	2024-11-06T20:00:00	4	Temperatura máxima	16.1
126299	7	Sololá	702	San José Chacayá	5	Chacayá	10	Octubre	2023-10-20T00:00:00	2024-11-06T20:00:00	3	Temperatura mínima	14.5
126300	7	Sololá	702	San José Chacayá	5	Chacayá	10	Octubre	2023-10-20T00:00:00	2024-11-06T20:00:00	5	Humedad	89
126301	7	Sololá	702	San José Chacayá	5	Chacayá	10	Octubre	2023-10-20T00:00:00	2024-11-06T20:00:00	6	Velocidad del viento	0
126302	7	Sololá	702	San José Chacayá	5	Chacayá	10	Octubre	2023-10-20T00:00:00	2024-11-06T20:00:00	7	Dirección del viento	0
126303	7	Sololá	702	San José Chacayá	5	Chacayá	10	Octubre	2023-10-20T00:00:00	2024-11-06T20:00:00	1	Precipitación	0
126304	7	Sololá	702	San José Chacayá	5	Chacayá	10	Octubre	2023-10-20T00:00:00	2024-11-06T20:00:00	8	Radiación solar	0
126305	7	Sololá	702	San José Chacayá	5	Chacayá	10	Octubre	2023-10-20T00:00:00	2024-11-06T21:00:00	2	Temperatura media	13.2
126306	7	Sololá	702	San José Chacayá	5	Chacayá	10	Octubre	2023-10-20T00:00:00	2024-11-06T21:00:00	4	Temperatura máxima	14.5
126307	7	Sololá	702	San José Chacayá	5	Chacayá	10	Octubre	2023-10-20T00:00:00	2024-11-06T21:00:00	3	Temperatura mínima	13.2
126308	7	Sololá	702	San José Chacayá	5	Chacayá	10	Octubre	2023-10-20T00:00:00	2024-11-06T21:00:00	5	Humedad	92
126309	7	Sololá	702	San José Chacayá	5	Chacayá	10	Octubre	2023-10-20T00:00:00	2024-11-06T21:00:00	6	Velocidad del viento	0
126310	7	Sololá	702	San José Chacayá	5	Chacayá	10	Octubre	2023-10-20T00:00:00	2024-11-06T21:00:00	7	Dirección del viento	0
126311	7	Sololá	702	San José Chacayá	5	Chacayá	10	Octubre	2023-10-20T00:00:00	2024-11-06T21:00:00	1	Precipitación	0
126312	7	Sololá	702	San José Chacayá	5	Chacayá	10	Octubre	2023-10-20T00:00:00	2024-11-06T21:00:00	8	Radiación solar	0
126313	7	Sololá	702	San José Chacayá	5	Chacayá	10	Octubre	2023-10-20T00:00:00	2024-11-06T22:00:00	2	Temperatura media	12.7
126314	7	Sololá	702	San José Chacayá	5	Chacayá	10	Octubre	2023-10-20T00:00:00	2024-11-06T22:00:00	4	Temperatura máxima	13.2
126315	7	Sololá	702	San José Chacayá	5	Chacayá	10	Octubre	2023-10-20T00:00:00	2024-11-06T22:00:00	3	Temperatura mínima	12.6
126316	7	Sololá	702	San José Chacayá	5	Chacayá	10	Octubre	2023-10-20T00:00:00	2024-11-06T22:00:00	5	Humedad	93
126317	7	Sololá	702	San José Chacayá	5	Chacayá	10	Octubre	2023-10-20T00:00:00	2024-11-06T22:00:00	6	Velocidad del viento	0
126318	7	Sololá	702	San José Chacayá	5	Chacayá	10	Octubre	2023-10-20T00:00:00	2024-11-06T22:00:00	7	Dirección del viento	0
126319	7	Sololá	702	San José Chacayá	5	Chacayá	10	Octubre	2023-10-20T00:00:00	2024-11-06T22:00:00	1	Precipitación	0
126320	7	Sololá	702	San José Chacayá	5	Chacayá	10	Octubre	2023-10-20T00:00:00	2024-11-06T22:00:00	8	Radiación solar	0
126321	7	Sololá	702	San José Chacayá	5	Chacayá	10	Octubre	2023-10-20T00:00:00	2024-11-06T23:00:00	2	Temperatura media	12
126322	7	Sololá	702	San José Chacayá	5	Chacayá	10	Octubre	2023-10-20T00:00:00	2024-11-06T23:00:00	4	Temperatura máxima	12.7
126323	7	Sololá	702	San José Chacayá	5	Chacayá	10	Octubre	2023-10-20T00:00:00	2024-11-06T23:00:00	3	Temperatura mínima	11.9
126324	7	Sololá	702	San José Chacayá	5	Chacayá	10	Octubre	2023-10-20T00:00:00	2024-11-06T23:00:00	5	Humedad	92
126325	7	Sololá	702	San José Chacayá	5	Chacayá	10	Octubre	2023-10-20T00:00:00	2024-11-06T23:00:00	6	Velocidad del viento	0
126326	7	Sololá	702	San José Chacayá	5	Chacayá	10	Octubre	2023-10-20T00:00:00	2024-11-06T23:00:00	7	Dirección del viento	0
126327	7	Sololá	702	San José Chacayá	5	Chacayá	10	Octubre	2023-10-20T00:00:00	2024-11-06T23:00:00	1	Precipitación	0
126328	7	Sololá	702	San José Chacayá	5	Chacayá	10	Octubre	2023-10-20T00:00:00	2024-11-06T23:00:00	8	Radiación solar	0
126329	7	Sololá	702	San José Chacayá	5	Chacayá	10	Octubre	2023-10-21T00:00:00	2024-11-06T00:00:00	2	Temperatura media	11.2
126330	7	Sololá	702	San José Chacayá	5	Chacayá	10	Octubre	2023-10-21T00:00:00	2024-11-06T00:00:00	4	Temperatura máxima	12
126331	7	Sololá	702	San José Chacayá	5	Chacayá	10	Octubre	2023-10-21T00:00:00	2024-11-06T00:00:00	3	Temperatura mínima	11.2
126332	7	Sololá	702	San José Chacayá	5	Chacayá	10	Octubre	2023-10-21T00:00:00	2024-11-06T00:00:00	5	Humedad	94
126333	7	Sololá	702	San José Chacayá	5	Chacayá	10	Octubre	2023-10-21T00:00:00	2024-11-06T00:00:00	6	Velocidad del viento	0
126334	7	Sololá	702	San José Chacayá	5	Chacayá	10	Octubre	2023-10-21T00:00:00	2024-11-06T00:00:00	7	Dirección del viento	0
126335	7	Sololá	702	San José Chacayá	5	Chacayá	10	Octubre	2023-10-21T00:00:00	2024-11-06T00:00:00	1	Precipitación	0
126336	7	Sololá	702	San José Chacayá	5	Chacayá	10	Octubre	2023-10-21T00:00:00	2024-11-06T00:00:00	8	Radiación solar	0
126337	7	Sololá	702	San José Chacayá	5	Chacayá	10	Octubre	2023-10-21T00:00:00	2024-11-06T01:00:00	2	Temperatura media	10.7
126338	7	Sololá	702	San José Chacayá	5	Chacayá	10	Octubre	2023-10-21T00:00:00	2024-11-06T01:00:00	4	Temperatura máxima	11.2
126339	7	Sololá	702	San José Chacayá	5	Chacayá	10	Octubre	2023-10-21T00:00:00	2024-11-06T01:00:00	3	Temperatura mínima	10.7
126340	7	Sololá	702	San José Chacayá	5	Chacayá	10	Octubre	2023-10-21T00:00:00	2024-11-06T01:00:00	5	Humedad	94
126341	7	Sololá	702	San José Chacayá	5	Chacayá	10	Octubre	2023-10-21T00:00:00	2024-11-06T01:00:00	6	Velocidad del viento	0
126342	7	Sololá	702	San José Chacayá	5	Chacayá	10	Octubre	2023-10-21T00:00:00	2024-11-06T01:00:00	7	Dirección del viento	0
126343	7	Sololá	702	San José Chacayá	5	Chacayá	10	Octubre	2023-10-21T00:00:00	2024-11-06T01:00:00	1	Precipitación	0
126344	7	Sololá	702	San José Chacayá	5	Chacayá	10	Octubre	2023-10-21T00:00:00	2024-11-06T01:00:00	8	Radiación solar	0
126345	7	Sololá	702	San José Chacayá	5	Chacayá	10	Octubre	2023-10-21T00:00:00	2024-11-06T02:00:00	2	Temperatura media	10.4
126346	7	Sololá	702	San José Chacayá	5	Chacayá	10	Octubre	2023-10-21T00:00:00	2024-11-06T02:00:00	4	Temperatura máxima	10.7
126347	7	Sololá	702	San José Chacayá	5	Chacayá	10	Octubre	2023-10-21T00:00:00	2024-11-06T02:00:00	3	Temperatura mínima	10.4
126348	7	Sololá	702	San José Chacayá	5	Chacayá	10	Octubre	2023-10-21T00:00:00	2024-11-06T02:00:00	5	Humedad	94
126349	7	Sololá	702	San José Chacayá	5	Chacayá	10	Octubre	2023-10-21T00:00:00	2024-11-06T02:00:00	6	Velocidad del viento	0
126350	7	Sololá	702	San José Chacayá	5	Chacayá	10	Octubre	2023-10-21T00:00:00	2024-11-06T02:00:00	7	Dirección del viento	0
126351	7	Sololá	702	San José Chacayá	5	Chacayá	10	Octubre	2023-10-21T00:00:00	2024-11-06T02:00:00	1	Precipitación	0
126352	7	Sololá	702	San José Chacayá	5	Chacayá	10	Octubre	2023-10-21T00:00:00	2024-11-06T02:00:00	8	Radiación solar	0
126353	7	Sololá	702	San José Chacayá	5	Chacayá	10	Octubre	2023-10-21T00:00:00	2024-11-06T03:00:00	2	Temperatura media	10.1
126354	7	Sololá	702	San José Chacayá	5	Chacayá	10	Octubre	2023-10-21T00:00:00	2024-11-06T03:00:00	4	Temperatura máxima	10.4
126355	7	Sololá	702	San José Chacayá	5	Chacayá	10	Octubre	2023-10-21T00:00:00	2024-11-06T03:00:00	3	Temperatura mínima	10.1
126356	7	Sololá	702	San José Chacayá	5	Chacayá	10	Octubre	2023-10-21T00:00:00	2024-11-06T03:00:00	5	Humedad	94
126357	7	Sololá	702	San José Chacayá	5	Chacayá	10	Octubre	2023-10-21T00:00:00	2024-11-06T03:00:00	6	Velocidad del viento	0
126358	7	Sololá	702	San José Chacayá	5	Chacayá	10	Octubre	2023-10-21T00:00:00	2024-11-06T03:00:00	7	Dirección del viento	0
126359	7	Sololá	702	San José Chacayá	5	Chacayá	10	Octubre	2023-10-21T00:00:00	2024-11-06T03:00:00	1	Precipitación	0
126360	7	Sololá	702	San José Chacayá	5	Chacayá	10	Octubre	2023-10-21T00:00:00	2024-11-06T03:00:00	8	Radiación solar	0
126361	7	Sololá	702	San José Chacayá	5	Chacayá	10	Octubre	2023-10-21T00:00:00	2024-11-06T04:00:00	2	Temperatura media	9.9
126362	7	Sololá	702	San José Chacayá	5	Chacayá	10	Octubre	2023-10-21T00:00:00	2024-11-06T04:00:00	4	Temperatura máxima	10.1
126363	7	Sololá	702	San José Chacayá	5	Chacayá	10	Octubre	2023-10-21T00:00:00	2024-11-06T04:00:00	3	Temperatura mínima	9.9
126364	7	Sololá	702	San José Chacayá	5	Chacayá	10	Octubre	2023-10-21T00:00:00	2024-11-06T04:00:00	5	Humedad	94
126365	7	Sololá	702	San José Chacayá	5	Chacayá	10	Octubre	2023-10-21T00:00:00	2024-11-06T04:00:00	6	Velocidad del viento	0
126366	7	Sololá	702	San José Chacayá	5	Chacayá	10	Octubre	2023-10-21T00:00:00	2024-11-06T04:00:00	7	Dirección del viento	0
126367	7	Sololá	702	San José Chacayá	5	Chacayá	10	Octubre	2023-10-21T00:00:00	2024-11-06T04:00:00	1	Precipitación	0
126368	7	Sololá	702	San José Chacayá	5	Chacayá	10	Octubre	2023-10-21T00:00:00	2024-11-06T04:00:00	8	Radiación solar	0
126369	7	Sololá	702	San José Chacayá	5	Chacayá	10	Octubre	2023-10-21T00:00:00	2024-11-06T05:00:00	2	Temperatura media	9.7
126370	7	Sololá	702	San José Chacayá	5	Chacayá	10	Octubre	2023-10-21T00:00:00	2024-11-06T05:00:00	4	Temperatura máxima	10
126371	7	Sololá	702	San José Chacayá	5	Chacayá	10	Octubre	2023-10-21T00:00:00	2024-11-06T05:00:00	3	Temperatura mínima	9.7
126372	7	Sololá	702	San José Chacayá	5	Chacayá	10	Octubre	2023-10-21T00:00:00	2024-11-06T05:00:00	5	Humedad	94
126373	7	Sololá	702	San José Chacayá	5	Chacayá	10	Octubre	2023-10-21T00:00:00	2024-11-06T05:00:00	6	Velocidad del viento	0
126374	7	Sololá	702	San José Chacayá	5	Chacayá	10	Octubre	2023-10-21T00:00:00	2024-11-06T05:00:00	7	Dirección del viento	0
126375	7	Sololá	702	San José Chacayá	5	Chacayá	10	Octubre	2023-10-21T00:00:00	2024-11-06T05:00:00	1	Precipitación	0
126376	7	Sololá	702	San José Chacayá	5	Chacayá	10	Octubre	2023-10-21T00:00:00	2024-11-06T05:00:00	8	Radiación solar	0
126377	7	Sololá	702	San José Chacayá	5	Chacayá	10	Octubre	2023-10-21T00:00:00	2024-11-06T06:00:00	2	Temperatura media	9.7
126378	7	Sololá	702	San José Chacayá	5	Chacayá	10	Octubre	2023-10-21T00:00:00	2024-11-06T06:00:00	4	Temperatura máxima	9.9
126379	7	Sololá	702	San José Chacayá	5	Chacayá	10	Octubre	2023-10-21T00:00:00	2024-11-06T06:00:00	3	Temperatura mínima	9.7
126380	7	Sololá	702	San José Chacayá	5	Chacayá	10	Octubre	2023-10-21T00:00:00	2024-11-06T06:00:00	5	Humedad	94
126381	7	Sololá	702	San José Chacayá	5	Chacayá	10	Octubre	2023-10-21T00:00:00	2024-11-06T06:00:00	6	Velocidad del viento	0
126382	7	Sololá	702	San José Chacayá	5	Chacayá	10	Octubre	2023-10-21T00:00:00	2024-11-06T06:00:00	7	Dirección del viento	0
126383	7	Sololá	702	San José Chacayá	5	Chacayá	10	Octubre	2023-10-21T00:00:00	2024-11-06T06:00:00	1	Precipitación	0
126384	7	Sololá	702	San José Chacayá	5	Chacayá	10	Octubre	2023-10-21T00:00:00	2024-11-06T06:00:00	8	Radiación solar	2
126385	7	Sololá	702	San José Chacayá	5	Chacayá	10	Octubre	2023-10-21T00:00:00	2024-11-06T07:00:00	2	Temperatura media	9.6
126386	7	Sololá	702	San José Chacayá	5	Chacayá	10	Octubre	2023-10-21T00:00:00	2024-11-06T07:00:00	4	Temperatura máxima	9.8
126387	7	Sololá	702	San José Chacayá	5	Chacayá	10	Octubre	2023-10-21T00:00:00	2024-11-06T07:00:00	3	Temperatura mínima	9.6
126388	7	Sololá	702	San José Chacayá	5	Chacayá	10	Octubre	2023-10-21T00:00:00	2024-11-06T07:00:00	5	Humedad	93
126389	7	Sololá	702	San José Chacayá	5	Chacayá	10	Octubre	2023-10-21T00:00:00	2024-11-06T07:00:00	6	Velocidad del viento	0
126390	7	Sololá	702	San José Chacayá	5	Chacayá	10	Octubre	2023-10-21T00:00:00	2024-11-06T07:00:00	7	Dirección del viento	0
126391	7	Sololá	702	San José Chacayá	5	Chacayá	10	Octubre	2023-10-21T00:00:00	2024-11-06T07:00:00	1	Precipitación	0
126392	7	Sololá	702	San José Chacayá	5	Chacayá	10	Octubre	2023-10-21T00:00:00	2024-11-06T07:00:00	8	Radiación solar	60
126393	7	Sololá	702	San José Chacayá	5	Chacayá	10	Octubre	2023-10-21T00:00:00	2024-11-06T08:00:00	2	Temperatura media	11.8
126394	7	Sololá	702	San José Chacayá	5	Chacayá	10	Octubre	2023-10-21T00:00:00	2024-11-06T08:00:00	4	Temperatura máxima	11.8
126395	7	Sololá	702	San José Chacayá	5	Chacayá	10	Octubre	2023-10-21T00:00:00	2024-11-06T08:00:00	3	Temperatura mínima	9.5
126396	7	Sololá	702	San José Chacayá	5	Chacayá	10	Octubre	2023-10-21T00:00:00	2024-11-06T08:00:00	5	Humedad	91
126397	7	Sololá	702	San José Chacayá	5	Chacayá	10	Octubre	2023-10-21T00:00:00	2024-11-06T08:00:00	6	Velocidad del viento	0
126398	7	Sololá	702	San José Chacayá	5	Chacayá	10	Octubre	2023-10-21T00:00:00	2024-11-06T08:00:00	7	Dirección del viento	0
126399	7	Sololá	702	San José Chacayá	5	Chacayá	10	Octubre	2023-10-21T00:00:00	2024-11-06T08:00:00	1	Precipitación	0
126400	7	Sololá	702	San José Chacayá	5	Chacayá	10	Octubre	2023-10-21T00:00:00	2024-11-06T08:00:00	8	Radiación solar	138
126401	7	Sololá	702	San José Chacayá	5	Chacayá	10	Octubre	2023-10-21T00:00:00	2024-11-06T09:00:00	2	Temperatura media	15.6
126402	7	Sololá	702	San José Chacayá	5	Chacayá	10	Octubre	2023-10-21T00:00:00	2024-11-06T09:00:00	4	Temperatura máxima	15.7
126403	7	Sololá	702	San José Chacayá	5	Chacayá	10	Octubre	2023-10-21T00:00:00	2024-11-06T09:00:00	3	Temperatura mínima	11.8
126404	7	Sololá	702	San José Chacayá	5	Chacayá	10	Octubre	2023-10-21T00:00:00	2024-11-06T09:00:00	5	Humedad	80
126405	7	Sololá	702	San José Chacayá	5	Chacayá	10	Octubre	2023-10-21T00:00:00	2024-11-06T09:00:00	6	Velocidad del viento	1.6
126406	7	Sololá	702	San José Chacayá	5	Chacayá	10	Octubre	2023-10-21T00:00:00	2024-11-06T09:00:00	7	Dirección del viento	1.61
126407	7	Sololá	702	San José Chacayá	5	Chacayá	10	Octubre	2023-10-21T00:00:00	2024-11-06T09:00:00	1	Precipitación	0
126408	7	Sololá	702	San José Chacayá	5	Chacayá	10	Octubre	2023-10-21T00:00:00	2024-11-06T09:00:00	8	Radiación solar	97
126409	7	Sololá	702	San José Chacayá	5	Chacayá	10	Octubre	2023-10-21T00:00:00	2024-11-06T10:00:00	2	Temperatura media	16.9
126410	7	Sololá	702	San José Chacayá	5	Chacayá	10	Octubre	2023-10-21T00:00:00	2024-11-06T10:00:00	4	Temperatura máxima	16.9
126411	7	Sololá	702	San José Chacayá	5	Chacayá	10	Octubre	2023-10-21T00:00:00	2024-11-06T10:00:00	3	Temperatura mínima	15.7
126412	7	Sololá	702	San José Chacayá	5	Chacayá	10	Octubre	2023-10-21T00:00:00	2024-11-06T10:00:00	5	Humedad	77
126413	7	Sololá	702	San José Chacayá	5	Chacayá	10	Octubre	2023-10-21T00:00:00	2024-11-06T10:00:00	6	Velocidad del viento	1.6
126414	7	Sololá	702	San José Chacayá	5	Chacayá	10	Octubre	2023-10-21T00:00:00	2024-11-06T10:00:00	7	Dirección del viento	1.61
126415	7	Sololá	702	San José Chacayá	5	Chacayá	10	Octubre	2023-10-21T00:00:00	2024-11-06T10:00:00	1	Precipitación	0
126416	7	Sololá	702	San José Chacayá	5	Chacayá	10	Octubre	2023-10-21T00:00:00	2024-11-06T10:00:00	8	Radiación solar	250
126417	7	Sololá	702	San José Chacayá	5	Chacayá	10	Octubre	2023-10-21T00:00:00	2024-11-06T11:00:00	2	Temperatura media	19
126418	7	Sololá	702	San José Chacayá	5	Chacayá	10	Octubre	2023-10-21T00:00:00	2024-11-06T11:00:00	4	Temperatura máxima	19
126419	7	Sololá	702	San José Chacayá	5	Chacayá	10	Octubre	2023-10-21T00:00:00	2024-11-06T11:00:00	3	Temperatura mínima	16.9
126420	7	Sololá	702	San José Chacayá	5	Chacayá	10	Octubre	2023-10-21T00:00:00	2024-11-06T11:00:00	5	Humedad	70
126421	7	Sololá	702	San José Chacayá	5	Chacayá	10	Octubre	2023-10-21T00:00:00	2024-11-06T11:00:00	6	Velocidad del viento	1.6
126422	7	Sololá	702	San José Chacayá	5	Chacayá	10	Octubre	2023-10-21T00:00:00	2024-11-06T11:00:00	7	Dirección del viento	1.61
126423	7	Sololá	702	San José Chacayá	5	Chacayá	10	Octubre	2023-10-21T00:00:00	2024-11-06T11:00:00	1	Precipitación	0
126424	7	Sololá	702	San José Chacayá	5	Chacayá	10	Octubre	2023-10-21T00:00:00	2024-11-06T11:00:00	8	Radiación solar	515
126425	7	Sololá	702	San José Chacayá	5	Chacayá	10	Octubre	2023-10-21T00:00:00	2024-11-06T12:00:00	2	Temperatura media	20.5
126426	7	Sololá	702	San José Chacayá	5	Chacayá	10	Octubre	2023-10-21T00:00:00	2024-11-06T12:00:00	4	Temperatura máxima	20.8
126427	7	Sololá	702	San José Chacayá	5	Chacayá	10	Octubre	2023-10-21T00:00:00	2024-11-06T12:00:00	3	Temperatura mínima	19
126428	7	Sololá	702	San José Chacayá	5	Chacayá	10	Octubre	2023-10-21T00:00:00	2024-11-06T12:00:00	5	Humedad	70
126429	7	Sololá	702	San José Chacayá	5	Chacayá	10	Octubre	2023-10-21T00:00:00	2024-11-06T12:00:00	6	Velocidad del viento	3.2
126430	7	Sololá	702	San José Chacayá	5	Chacayá	10	Octubre	2023-10-21T00:00:00	2024-11-06T12:00:00	7	Dirección del viento	3.22
126431	7	Sololá	702	San José Chacayá	5	Chacayá	10	Octubre	2023-10-21T00:00:00	2024-11-06T12:00:00	1	Precipitación	0
126432	7	Sololá	702	San José Chacayá	5	Chacayá	10	Octubre	2023-10-21T00:00:00	2024-11-06T12:00:00	8	Radiación solar	466
126433	7	Sololá	702	San José Chacayá	5	Chacayá	10	Octubre	2023-10-21T00:00:00	2024-11-06T13:00:00	2	Temperatura media	20.8
126434	7	Sololá	702	San José Chacayá	5	Chacayá	10	Octubre	2023-10-21T00:00:00	2024-11-06T13:00:00	4	Temperatura máxima	21.4
126435	7	Sololá	702	San José Chacayá	5	Chacayá	10	Octubre	2023-10-21T00:00:00	2024-11-06T13:00:00	3	Temperatura mínima	20.4
126436	7	Sololá	702	San José Chacayá	5	Chacayá	10	Octubre	2023-10-21T00:00:00	2024-11-06T13:00:00	5	Humedad	66
126437	7	Sololá	702	San José Chacayá	5	Chacayá	10	Octubre	2023-10-21T00:00:00	2024-11-06T13:00:00	6	Velocidad del viento	4.8
126438	7	Sololá	702	San José Chacayá	5	Chacayá	10	Octubre	2023-10-21T00:00:00	2024-11-06T13:00:00	7	Dirección del viento	4.83
126439	7	Sololá	702	San José Chacayá	5	Chacayá	10	Octubre	2023-10-21T00:00:00	2024-11-06T13:00:00	1	Precipitación	0
126440	7	Sololá	702	San José Chacayá	5	Chacayá	10	Octubre	2023-10-21T00:00:00	2024-11-06T13:00:00	8	Radiación solar	436
126441	7	Sololá	702	San José Chacayá	5	Chacayá	10	Octubre	2023-10-21T00:00:00	2024-11-06T14:00:00	2	Temperatura media	21.6
126442	7	Sololá	702	San José Chacayá	5	Chacayá	10	Octubre	2023-10-21T00:00:00	2024-11-06T14:00:00	4	Temperatura máxima	21.6
126443	7	Sololá	702	San José Chacayá	5	Chacayá	10	Octubre	2023-10-21T00:00:00	2024-11-06T14:00:00	3	Temperatura mínima	20.8
126444	7	Sololá	702	San José Chacayá	5	Chacayá	10	Octubre	2023-10-21T00:00:00	2024-11-06T14:00:00	5	Humedad	65
126445	7	Sololá	702	San José Chacayá	5	Chacayá	10	Octubre	2023-10-21T00:00:00	2024-11-06T14:00:00	6	Velocidad del viento	4.8
126446	7	Sololá	702	San José Chacayá	5	Chacayá	10	Octubre	2023-10-21T00:00:00	2024-11-06T14:00:00	7	Dirección del viento	4.83
126447	7	Sololá	702	San José Chacayá	5	Chacayá	10	Octubre	2023-10-21T00:00:00	2024-11-06T14:00:00	1	Precipitación	0
126448	7	Sololá	702	San José Chacayá	5	Chacayá	10	Octubre	2023-10-21T00:00:00	2024-11-06T14:00:00	8	Radiación solar	539
126449	7	Sololá	702	San José Chacayá	5	Chacayá	10	Octubre	2023-10-21T00:00:00	2024-11-06T15:00:00	2	Temperatura media	19.3
126450	7	Sololá	702	San José Chacayá	5	Chacayá	10	Octubre	2023-10-21T00:00:00	2024-11-06T15:00:00	4	Temperatura máxima	21.8
126451	7	Sololá	702	San José Chacayá	5	Chacayá	10	Octubre	2023-10-21T00:00:00	2024-11-06T15:00:00	3	Temperatura mínima	19.2
126452	7	Sololá	702	San José Chacayá	5	Chacayá	10	Octubre	2023-10-21T00:00:00	2024-11-06T15:00:00	5	Humedad	77
126453	7	Sololá	702	San José Chacayá	5	Chacayá	10	Octubre	2023-10-21T00:00:00	2024-11-06T15:00:00	6	Velocidad del viento	3.2
126454	7	Sololá	702	San José Chacayá	5	Chacayá	10	Octubre	2023-10-21T00:00:00	2024-11-06T15:00:00	7	Dirección del viento	3.22
126455	7	Sololá	702	San José Chacayá	5	Chacayá	10	Octubre	2023-10-21T00:00:00	2024-11-06T15:00:00	1	Precipitación	0
126456	7	Sololá	702	San José Chacayá	5	Chacayá	10	Octubre	2023-10-21T00:00:00	2024-11-06T15:00:00	8	Radiación solar	209
126457	7	Sololá	702	San José Chacayá	5	Chacayá	10	Octubre	2023-10-21T00:00:00	2024-11-06T16:00:00	2	Temperatura media	20.6
126458	7	Sololá	702	San José Chacayá	5	Chacayá	10	Octubre	2023-10-21T00:00:00	2024-11-06T16:00:00	4	Temperatura máxima	20.6
126459	7	Sololá	702	San José Chacayá	5	Chacayá	10	Octubre	2023-10-21T00:00:00	2024-11-06T16:00:00	3	Temperatura mínima	18.5
126460	7	Sololá	702	San José Chacayá	5	Chacayá	10	Octubre	2023-10-21T00:00:00	2024-11-06T16:00:00	5	Humedad	68
126461	7	Sololá	702	San José Chacayá	5	Chacayá	10	Octubre	2023-10-21T00:00:00	2024-11-06T16:00:00	6	Velocidad del viento	3.2
126462	7	Sololá	702	San José Chacayá	5	Chacayá	10	Octubre	2023-10-21T00:00:00	2024-11-06T16:00:00	7	Dirección del viento	3.22
126463	7	Sololá	702	San José Chacayá	5	Chacayá	10	Octubre	2023-10-21T00:00:00	2024-11-06T16:00:00	1	Precipitación	0
126464	7	Sololá	702	San José Chacayá	5	Chacayá	10	Octubre	2023-10-21T00:00:00	2024-11-06T16:00:00	8	Radiación solar	195
126465	7	Sololá	702	San José Chacayá	5	Chacayá	10	Octubre	2023-10-21T00:00:00	2024-11-06T17:00:00	2	Temperatura media	17.6
126466	7	Sololá	702	San José Chacayá	5	Chacayá	10	Octubre	2023-10-21T00:00:00	2024-11-06T17:00:00	4	Temperatura máxima	21
126467	7	Sololá	702	San José Chacayá	5	Chacayá	10	Octubre	2023-10-21T00:00:00	2024-11-06T17:00:00	3	Temperatura mínima	17.6
126468	7	Sololá	702	San José Chacayá	5	Chacayá	10	Octubre	2023-10-21T00:00:00	2024-11-06T17:00:00	5	Humedad	84
126469	7	Sololá	702	San José Chacayá	5	Chacayá	10	Octubre	2023-10-21T00:00:00	2024-11-06T17:00:00	6	Velocidad del viento	3.2
126470	7	Sololá	702	San José Chacayá	5	Chacayá	10	Octubre	2023-10-21T00:00:00	2024-11-06T17:00:00	7	Dirección del viento	3.22
126471	7	Sololá	702	San José Chacayá	5	Chacayá	10	Octubre	2023-10-21T00:00:00	2024-11-06T17:00:00	1	Precipitación	0
126472	7	Sololá	702	San José Chacayá	5	Chacayá	10	Octubre	2023-10-21T00:00:00	2024-11-06T17:00:00	8	Radiación solar	69
126473	7	Sololá	702	San José Chacayá	5	Chacayá	10	Octubre	2023-10-21T00:00:00	2024-11-06T18:00:00	2	Temperatura media	16.1
126474	7	Sololá	702	San José Chacayá	5	Chacayá	10	Octubre	2023-10-21T00:00:00	2024-11-06T18:00:00	4	Temperatura máxima	17.6
126475	7	Sololá	702	San José Chacayá	5	Chacayá	10	Octubre	2023-10-21T00:00:00	2024-11-06T18:00:00	3	Temperatura mínima	16.1
126476	7	Sololá	702	San José Chacayá	5	Chacayá	10	Octubre	2023-10-21T00:00:00	2024-11-06T18:00:00	5	Humedad	91
126477	7	Sololá	702	San José Chacayá	5	Chacayá	10	Octubre	2023-10-21T00:00:00	2024-11-06T18:00:00	6	Velocidad del viento	1.6
126478	7	Sololá	702	San José Chacayá	5	Chacayá	10	Octubre	2023-10-21T00:00:00	2024-11-06T18:00:00	7	Dirección del viento	1.61
126479	7	Sololá	702	San José Chacayá	5	Chacayá	10	Octubre	2023-10-21T00:00:00	2024-11-06T18:00:00	1	Precipitación	0.2
126480	7	Sololá	702	San José Chacayá	5	Chacayá	10	Octubre	2023-10-21T00:00:00	2024-11-06T18:00:00	8	Radiación solar	4
126481	7	Sololá	702	San José Chacayá	5	Chacayá	10	Octubre	2023-10-21T00:00:00	2024-11-06T19:00:00	2	Temperatura media	14.4
126482	7	Sololá	702	San José Chacayá	5	Chacayá	10	Octubre	2023-10-21T00:00:00	2024-11-06T19:00:00	4	Temperatura máxima	16.1
126483	7	Sololá	702	San José Chacayá	5	Chacayá	10	Octubre	2023-10-21T00:00:00	2024-11-06T19:00:00	3	Temperatura mínima	14.4
126484	7	Sololá	702	San José Chacayá	5	Chacayá	10	Octubre	2023-10-21T00:00:00	2024-11-06T19:00:00	5	Humedad	91
126485	7	Sololá	702	San José Chacayá	5	Chacayá	10	Octubre	2023-10-21T00:00:00	2024-11-06T19:00:00	6	Velocidad del viento	1.6
126486	7	Sololá	702	San José Chacayá	5	Chacayá	10	Octubre	2023-10-21T00:00:00	2024-11-06T19:00:00	7	Dirección del viento	1.61
126487	7	Sololá	702	San José Chacayá	5	Chacayá	10	Octubre	2023-10-21T00:00:00	2024-11-06T19:00:00	1	Precipitación	3.6
126488	7	Sololá	702	San José Chacayá	5	Chacayá	10	Octubre	2023-10-21T00:00:00	2024-11-06T19:00:00	8	Radiación solar	0
126489	7	Sololá	702	San José Chacayá	5	Chacayá	10	Octubre	2023-10-21T00:00:00	2024-11-06T20:00:00	2	Temperatura media	13.2
126490	7	Sololá	702	San José Chacayá	5	Chacayá	10	Octubre	2023-10-21T00:00:00	2024-11-06T20:00:00	4	Temperatura máxima	14.4
126491	7	Sololá	702	San José Chacayá	5	Chacayá	10	Octubre	2023-10-21T00:00:00	2024-11-06T20:00:00	3	Temperatura mínima	13.1
126492	7	Sololá	702	San José Chacayá	5	Chacayá	10	Octubre	2023-10-21T00:00:00	2024-11-06T20:00:00	5	Humedad	93
126493	7	Sololá	702	San José Chacayá	5	Chacayá	10	Octubre	2023-10-21T00:00:00	2024-11-06T20:00:00	6	Velocidad del viento	0
126494	7	Sololá	702	San José Chacayá	5	Chacayá	10	Octubre	2023-10-21T00:00:00	2024-11-06T20:00:00	7	Dirección del viento	0
126495	7	Sololá	702	San José Chacayá	5	Chacayá	10	Octubre	2023-10-21T00:00:00	2024-11-06T20:00:00	1	Precipitación	1.4
126496	7	Sololá	702	San José Chacayá	5	Chacayá	10	Octubre	2023-10-21T00:00:00	2024-11-06T20:00:00	8	Radiación solar	0
126497	7	Sololá	702	San José Chacayá	5	Chacayá	10	Octubre	2023-10-21T00:00:00	2024-11-06T21:00:00	2	Temperatura media	12.9
126498	7	Sololá	702	San José Chacayá	5	Chacayá	10	Octubre	2023-10-21T00:00:00	2024-11-06T21:00:00	4	Temperatura máxima	13.2
126499	7	Sololá	702	San José Chacayá	5	Chacayá	10	Octubre	2023-10-21T00:00:00	2024-11-06T21:00:00	3	Temperatura mínima	12.9
126500	7	Sololá	702	San José Chacayá	5	Chacayá	10	Octubre	2023-10-21T00:00:00	2024-11-06T21:00:00	5	Humedad	94
126501	7	Sololá	702	San José Chacayá	5	Chacayá	10	Octubre	2023-10-21T00:00:00	2024-11-06T21:00:00	6	Velocidad del viento	0
126502	7	Sololá	702	San José Chacayá	5	Chacayá	10	Octubre	2023-10-21T00:00:00	2024-11-06T21:00:00	7	Dirección del viento	0
126503	7	Sololá	702	San José Chacayá	5	Chacayá	10	Octubre	2023-10-21T00:00:00	2024-11-06T21:00:00	1	Precipitación	0.6
126504	7	Sololá	702	San José Chacayá	5	Chacayá	10	Octubre	2023-10-21T00:00:00	2024-11-06T21:00:00	8	Radiación solar	0
126505	7	Sololá	702	San José Chacayá	5	Chacayá	10	Octubre	2023-10-21T00:00:00	2024-11-06T22:00:00	2	Temperatura media	12.9
126506	7	Sololá	702	San José Chacayá	5	Chacayá	10	Octubre	2023-10-21T00:00:00	2024-11-06T22:00:00	4	Temperatura máxima	13
126507	7	Sololá	702	San José Chacayá	5	Chacayá	10	Octubre	2023-10-21T00:00:00	2024-11-06T22:00:00	3	Temperatura mínima	12.8
126508	7	Sololá	702	San José Chacayá	5	Chacayá	10	Octubre	2023-10-21T00:00:00	2024-11-06T22:00:00	5	Humedad	94
126509	7	Sololá	702	San José Chacayá	5	Chacayá	10	Octubre	2023-10-21T00:00:00	2024-11-06T22:00:00	6	Velocidad del viento	0
126510	7	Sololá	702	San José Chacayá	5	Chacayá	10	Octubre	2023-10-21T00:00:00	2024-11-06T22:00:00	7	Dirección del viento	0
126511	7	Sololá	702	San José Chacayá	5	Chacayá	10	Octubre	2023-10-21T00:00:00	2024-11-06T22:00:00	1	Precipitación	0
126512	7	Sololá	702	San José Chacayá	5	Chacayá	10	Octubre	2023-10-21T00:00:00	2024-11-06T22:00:00	8	Radiación solar	0
126513	7	Sololá	702	San José Chacayá	5	Chacayá	10	Octubre	2023-10-21T00:00:00	2024-11-06T23:00:00	2	Temperatura media	13.2
126514	7	Sololá	702	San José Chacayá	5	Chacayá	10	Octubre	2023-10-21T00:00:00	2024-11-06T23:00:00	4	Temperatura máxima	13.3
126515	7	Sololá	702	San José Chacayá	5	Chacayá	10	Octubre	2023-10-21T00:00:00	2024-11-06T23:00:00	3	Temperatura mínima	12.9
126516	7	Sololá	702	San José Chacayá	5	Chacayá	10	Octubre	2023-10-21T00:00:00	2024-11-06T23:00:00	5	Humedad	95
126517	7	Sololá	702	San José Chacayá	5	Chacayá	10	Octubre	2023-10-21T00:00:00	2024-11-06T23:00:00	6	Velocidad del viento	0
126518	7	Sololá	702	San José Chacayá	5	Chacayá	10	Octubre	2023-10-21T00:00:00	2024-11-06T23:00:00	7	Dirección del viento	0
126519	7	Sololá	702	San José Chacayá	5	Chacayá	10	Octubre	2023-10-21T00:00:00	2024-11-06T23:00:00	1	Precipitación	0
126520	7	Sololá	702	San José Chacayá	5	Chacayá	10	Octubre	2023-10-21T00:00:00	2024-11-06T23:00:00	8	Radiación solar	0
126521	7	Sololá	702	San José Chacayá	5	Chacayá	10	Octubre	2023-10-22T00:00:00	2024-11-06T00:00:00	2	Temperatura media	12.7
126522	7	Sololá	702	San José Chacayá	5	Chacayá	10	Octubre	2023-10-22T00:00:00	2024-11-06T00:00:00	4	Temperatura máxima	13.3
126523	7	Sololá	702	San José Chacayá	5	Chacayá	10	Octubre	2023-10-22T00:00:00	2024-11-06T00:00:00	3	Temperatura mínima	12.6
126524	7	Sololá	702	San José Chacayá	5	Chacayá	10	Octubre	2023-10-22T00:00:00	2024-11-06T00:00:00	5	Humedad	94
126525	7	Sololá	702	San José Chacayá	5	Chacayá	10	Octubre	2023-10-22T00:00:00	2024-11-06T00:00:00	6	Velocidad del viento	0
126526	7	Sololá	702	San José Chacayá	5	Chacayá	10	Octubre	2023-10-22T00:00:00	2024-11-06T00:00:00	7	Dirección del viento	0
126527	7	Sololá	702	San José Chacayá	5	Chacayá	10	Octubre	2023-10-22T00:00:00	2024-11-06T00:00:00	1	Precipitación	0
126528	7	Sololá	702	San José Chacayá	5	Chacayá	10	Octubre	2023-10-22T00:00:00	2024-11-06T00:00:00	8	Radiación solar	0
126529	7	Sololá	702	San José Chacayá	5	Chacayá	10	Octubre	2023-10-22T00:00:00	2024-11-06T01:00:00	2	Temperatura media	12.8
126530	7	Sololá	702	San José Chacayá	5	Chacayá	10	Octubre	2023-10-22T00:00:00	2024-11-06T01:00:00	4	Temperatura máxima	12.8
126531	7	Sololá	702	San José Chacayá	5	Chacayá	10	Octubre	2023-10-22T00:00:00	2024-11-06T01:00:00	3	Temperatura mínima	12.6
126532	7	Sololá	702	San José Chacayá	5	Chacayá	10	Octubre	2023-10-22T00:00:00	2024-11-06T01:00:00	5	Humedad	95
126533	7	Sololá	702	San José Chacayá	5	Chacayá	10	Octubre	2023-10-22T00:00:00	2024-11-06T01:00:00	6	Velocidad del viento	0
126534	7	Sololá	702	San José Chacayá	5	Chacayá	10	Octubre	2023-10-22T00:00:00	2024-11-06T01:00:00	7	Dirección del viento	0
126535	7	Sololá	702	San José Chacayá	5	Chacayá	10	Octubre	2023-10-22T00:00:00	2024-11-06T01:00:00	1	Precipitación	0
126536	7	Sololá	702	San José Chacayá	5	Chacayá	10	Octubre	2023-10-22T00:00:00	2024-11-06T01:00:00	8	Radiación solar	0
126537	7	Sololá	702	San José Chacayá	5	Chacayá	10	Octubre	2023-10-22T00:00:00	2024-11-06T02:00:00	2	Temperatura media	13.1
126538	7	Sololá	702	San José Chacayá	5	Chacayá	10	Octubre	2023-10-22T00:00:00	2024-11-06T02:00:00	4	Temperatura máxima	13.2
126539	7	Sololá	702	San José Chacayá	5	Chacayá	10	Octubre	2023-10-22T00:00:00	2024-11-06T02:00:00	3	Temperatura mínima	12.8
126540	7	Sololá	702	San José Chacayá	5	Chacayá	10	Octubre	2023-10-22T00:00:00	2024-11-06T02:00:00	5	Humedad	95
126541	7	Sololá	702	San José Chacayá	5	Chacayá	10	Octubre	2023-10-22T00:00:00	2024-11-06T02:00:00	6	Velocidad del viento	0
126542	7	Sololá	702	San José Chacayá	5	Chacayá	10	Octubre	2023-10-22T00:00:00	2024-11-06T02:00:00	7	Dirección del viento	0
126543	7	Sololá	702	San José Chacayá	5	Chacayá	10	Octubre	2023-10-22T00:00:00	2024-11-06T02:00:00	1	Precipitación	0
126544	7	Sololá	702	San José Chacayá	5	Chacayá	10	Octubre	2023-10-22T00:00:00	2024-11-06T02:00:00	8	Radiación solar	0
126545	7	Sololá	702	San José Chacayá	5	Chacayá	10	Octubre	2023-10-22T00:00:00	2024-11-06T03:00:00	2	Temperatura media	13.2
126546	7	Sololá	702	San José Chacayá	5	Chacayá	10	Octubre	2023-10-22T00:00:00	2024-11-06T03:00:00	4	Temperatura máxima	13.2
126547	7	Sololá	702	San José Chacayá	5	Chacayá	10	Octubre	2023-10-22T00:00:00	2024-11-06T03:00:00	3	Temperatura mínima	13.1
126548	7	Sololá	702	San José Chacayá	5	Chacayá	10	Octubre	2023-10-22T00:00:00	2024-11-06T03:00:00	5	Humedad	96
126549	7	Sololá	702	San José Chacayá	5	Chacayá	10	Octubre	2023-10-22T00:00:00	2024-11-06T03:00:00	6	Velocidad del viento	0
126550	7	Sololá	702	San José Chacayá	5	Chacayá	10	Octubre	2023-10-22T00:00:00	2024-11-06T03:00:00	7	Dirección del viento	0
126551	7	Sololá	702	San José Chacayá	5	Chacayá	10	Octubre	2023-10-22T00:00:00	2024-11-06T03:00:00	1	Precipitación	0
126552	7	Sololá	702	San José Chacayá	5	Chacayá	10	Octubre	2023-10-22T00:00:00	2024-11-06T03:00:00	8	Radiación solar	0
126553	7	Sololá	702	San José Chacayá	5	Chacayá	10	Octubre	2023-10-22T00:00:00	2024-11-06T04:00:00	2	Temperatura media	13.2
126554	7	Sololá	702	San José Chacayá	5	Chacayá	10	Octubre	2023-10-22T00:00:00	2024-11-06T04:00:00	4	Temperatura máxima	13.2
126555	7	Sololá	702	San José Chacayá	5	Chacayá	10	Octubre	2023-10-22T00:00:00	2024-11-06T04:00:00	3	Temperatura mínima	13.1
126556	7	Sololá	702	San José Chacayá	5	Chacayá	10	Octubre	2023-10-22T00:00:00	2024-11-06T04:00:00	5	Humedad	96
126557	7	Sololá	702	San José Chacayá	5	Chacayá	10	Octubre	2023-10-22T00:00:00	2024-11-06T04:00:00	6	Velocidad del viento	0
126558	7	Sololá	702	San José Chacayá	5	Chacayá	10	Octubre	2023-10-22T00:00:00	2024-11-06T04:00:00	7	Dirección del viento	0
126559	7	Sololá	702	San José Chacayá	5	Chacayá	10	Octubre	2023-10-22T00:00:00	2024-11-06T04:00:00	1	Precipitación	0
126560	7	Sololá	702	San José Chacayá	5	Chacayá	10	Octubre	2023-10-22T00:00:00	2024-11-06T04:00:00	8	Radiación solar	0
126561	7	Sololá	702	San José Chacayá	5	Chacayá	10	Octubre	2023-10-22T00:00:00	2024-11-06T05:00:00	2	Temperatura media	12.6
126562	7	Sololá	702	San José Chacayá	5	Chacayá	10	Octubre	2023-10-22T00:00:00	2024-11-06T05:00:00	4	Temperatura máxima	13.2
126563	7	Sololá	702	San José Chacayá	5	Chacayá	10	Octubre	2023-10-22T00:00:00	2024-11-06T05:00:00	3	Temperatura mínima	12.6
126564	7	Sololá	702	San José Chacayá	5	Chacayá	10	Octubre	2023-10-22T00:00:00	2024-11-06T05:00:00	5	Humedad	94
126565	7	Sololá	702	San José Chacayá	5	Chacayá	10	Octubre	2023-10-22T00:00:00	2024-11-06T05:00:00	6	Velocidad del viento	0
126566	7	Sololá	702	San José Chacayá	5	Chacayá	10	Octubre	2023-10-22T00:00:00	2024-11-06T05:00:00	7	Dirección del viento	0
126567	7	Sololá	702	San José Chacayá	5	Chacayá	10	Octubre	2023-10-22T00:00:00	2024-11-06T05:00:00	1	Precipitación	0
126568	7	Sololá	702	San José Chacayá	5	Chacayá	10	Octubre	2023-10-22T00:00:00	2024-11-06T05:00:00	8	Radiación solar	0
126569	7	Sololá	702	San José Chacayá	5	Chacayá	10	Octubre	2023-10-22T00:00:00	2024-11-06T06:00:00	2	Temperatura media	11.6
126570	7	Sololá	702	San José Chacayá	5	Chacayá	10	Octubre	2023-10-22T00:00:00	2024-11-06T06:00:00	4	Temperatura máxima	12.6
126571	7	Sololá	702	San José Chacayá	5	Chacayá	10	Octubre	2023-10-22T00:00:00	2024-11-06T06:00:00	3	Temperatura mínima	11.6
126572	7	Sololá	702	San José Chacayá	5	Chacayá	10	Octubre	2023-10-22T00:00:00	2024-11-06T06:00:00	5	Humedad	95
126573	7	Sololá	702	San José Chacayá	5	Chacayá	10	Octubre	2023-10-22T00:00:00	2024-11-06T06:00:00	6	Velocidad del viento	0
126574	7	Sololá	702	San José Chacayá	5	Chacayá	10	Octubre	2023-10-22T00:00:00	2024-11-06T06:00:00	7	Dirección del viento	0
126575	7	Sololá	702	San José Chacayá	5	Chacayá	10	Octubre	2023-10-22T00:00:00	2024-11-06T06:00:00	1	Precipitación	0
126576	7	Sololá	702	San José Chacayá	5	Chacayá	10	Octubre	2023-10-22T00:00:00	2024-11-06T06:00:00	8	Radiación solar	0
126577	7	Sololá	702	San José Chacayá	5	Chacayá	10	Octubre	2023-10-22T00:00:00	2024-11-06T07:00:00	2	Temperatura media	11
126578	7	Sololá	702	San José Chacayá	5	Chacayá	10	Octubre	2023-10-22T00:00:00	2024-11-06T07:00:00	4	Temperatura máxima	11.7
126579	7	Sololá	702	San José Chacayá	5	Chacayá	10	Octubre	2023-10-22T00:00:00	2024-11-06T07:00:00	3	Temperatura mínima	10.9
126580	7	Sololá	702	San José Chacayá	5	Chacayá	10	Octubre	2023-10-22T00:00:00	2024-11-06T07:00:00	5	Humedad	95
126581	7	Sololá	702	San José Chacayá	5	Chacayá	10	Octubre	2023-10-22T00:00:00	2024-11-06T07:00:00	6	Velocidad del viento	0
126582	7	Sololá	702	San José Chacayá	5	Chacayá	10	Octubre	2023-10-22T00:00:00	2024-11-06T07:00:00	7	Dirección del viento	0
126583	7	Sololá	702	San José Chacayá	5	Chacayá	10	Octubre	2023-10-22T00:00:00	2024-11-06T07:00:00	1	Precipitación	0
126584	7	Sololá	702	San José Chacayá	5	Chacayá	10	Octubre	2023-10-22T00:00:00	2024-11-06T07:00:00	8	Radiación solar	45
126585	7	Sololá	702	San José Chacayá	5	Chacayá	10	Octubre	2023-10-22T00:00:00	2024-11-06T08:00:00	2	Temperatura media	12.9
126586	7	Sololá	702	San José Chacayá	5	Chacayá	10	Octubre	2023-10-22T00:00:00	2024-11-06T08:00:00	4	Temperatura máxima	12.9
126587	7	Sololá	702	San José Chacayá	5	Chacayá	10	Octubre	2023-10-22T00:00:00	2024-11-06T08:00:00	3	Temperatura mínima	10.8
126588	7	Sololá	702	San José Chacayá	5	Chacayá	10	Octubre	2023-10-22T00:00:00	2024-11-06T08:00:00	5	Humedad	95
126589	7	Sololá	702	San José Chacayá	5	Chacayá	10	Octubre	2023-10-22T00:00:00	2024-11-06T08:00:00	6	Velocidad del viento	0
126590	7	Sololá	702	San José Chacayá	5	Chacayá	10	Octubre	2023-10-22T00:00:00	2024-11-06T08:00:00	7	Dirección del viento	0
126591	7	Sololá	702	San José Chacayá	5	Chacayá	10	Octubre	2023-10-22T00:00:00	2024-11-06T08:00:00	1	Precipitación	0.2
126592	7	Sololá	702	San José Chacayá	5	Chacayá	10	Octubre	2023-10-22T00:00:00	2024-11-06T08:00:00	8	Radiación solar	159
126593	7	Sololá	702	San José Chacayá	5	Chacayá	10	Octubre	2023-10-22T00:00:00	2024-11-06T09:00:00	2	Temperatura media	17.1
126594	7	Sololá	702	San José Chacayá	5	Chacayá	10	Octubre	2023-10-22T00:00:00	2024-11-06T09:00:00	4	Temperatura máxima	17.1
126595	7	Sololá	702	San José Chacayá	5	Chacayá	10	Octubre	2023-10-22T00:00:00	2024-11-06T09:00:00	3	Temperatura mínima	12.9
126596	7	Sololá	702	San José Chacayá	5	Chacayá	10	Octubre	2023-10-22T00:00:00	2024-11-06T09:00:00	5	Humedad	80
126597	7	Sololá	702	San José Chacayá	5	Chacayá	10	Octubre	2023-10-22T00:00:00	2024-11-06T09:00:00	6	Velocidad del viento	1.6
126598	7	Sololá	702	San José Chacayá	5	Chacayá	10	Octubre	2023-10-22T00:00:00	2024-11-06T09:00:00	7	Dirección del viento	1.61
126599	7	Sololá	702	San José Chacayá	5	Chacayá	10	Octubre	2023-10-22T00:00:00	2024-11-06T09:00:00	1	Precipitación	0
126600	7	Sololá	702	San José Chacayá	5	Chacayá	10	Octubre	2023-10-22T00:00:00	2024-11-06T09:00:00	8	Radiación solar	266
126601	7	Sololá	702	San José Chacayá	5	Chacayá	10	Octubre	2023-10-22T00:00:00	2024-11-06T10:00:00	2	Temperatura media	20.8
126602	7	Sololá	702	San José Chacayá	5	Chacayá	10	Octubre	2023-10-22T00:00:00	2024-11-06T10:00:00	4	Temperatura máxima	20.9
126603	7	Sololá	702	San José Chacayá	5	Chacayá	10	Octubre	2023-10-22T00:00:00	2024-11-06T10:00:00	3	Temperatura mínima	17.1
126604	7	Sololá	702	San José Chacayá	5	Chacayá	10	Octubre	2023-10-22T00:00:00	2024-11-06T10:00:00	5	Humedad	63
126605	7	Sololá	702	San José Chacayá	5	Chacayá	10	Octubre	2023-10-22T00:00:00	2024-11-06T10:00:00	6	Velocidad del viento	1.6
126606	7	Sololá	702	San José Chacayá	5	Chacayá	10	Octubre	2023-10-22T00:00:00	2024-11-06T10:00:00	7	Dirección del viento	1.61
126607	7	Sololá	702	San José Chacayá	5	Chacayá	10	Octubre	2023-10-22T00:00:00	2024-11-06T10:00:00	1	Precipitación	0
126608	7	Sololá	702	San José Chacayá	5	Chacayá	10	Octubre	2023-10-22T00:00:00	2024-11-06T10:00:00	8	Radiación solar	802
126609	7	Sololá	702	San José Chacayá	5	Chacayá	10	Octubre	2023-10-22T00:00:00	2024-11-06T11:00:00	2	Temperatura media	22.1
126610	7	Sololá	702	San José Chacayá	5	Chacayá	10	Octubre	2023-10-22T00:00:00	2024-11-06T11:00:00	4	Temperatura máxima	22.4
126611	7	Sololá	702	San José Chacayá	5	Chacayá	10	Octubre	2023-10-22T00:00:00	2024-11-06T11:00:00	3	Temperatura mínima	20.8
126612	7	Sololá	702	San José Chacayá	5	Chacayá	10	Octubre	2023-10-22T00:00:00	2024-11-06T11:00:00	5	Humedad	68
126613	7	Sololá	702	San José Chacayá	5	Chacayá	10	Octubre	2023-10-22T00:00:00	2024-11-06T11:00:00	6	Velocidad del viento	3.2
126614	7	Sololá	702	San José Chacayá	5	Chacayá	10	Octubre	2023-10-22T00:00:00	2024-11-06T11:00:00	7	Dirección del viento	3.22
126615	7	Sololá	702	San José Chacayá	5	Chacayá	10	Octubre	2023-10-22T00:00:00	2024-11-06T11:00:00	1	Precipitación	0
126616	7	Sololá	702	San José Chacayá	5	Chacayá	10	Octubre	2023-10-22T00:00:00	2024-11-06T11:00:00	8	Radiación solar	735
126617	7	Sololá	702	San José Chacayá	5	Chacayá	10	Octubre	2023-10-22T00:00:00	2024-11-06T12:00:00	2	Temperatura media	20.9
126618	7	Sololá	702	San José Chacayá	5	Chacayá	10	Octubre	2023-10-22T00:00:00	2024-11-06T12:00:00	4	Temperatura máxima	22.5
126619	7	Sololá	702	San José Chacayá	5	Chacayá	10	Octubre	2023-10-22T00:00:00	2024-11-06T12:00:00	3	Temperatura mínima	20.9
126620	7	Sololá	702	San José Chacayá	5	Chacayá	10	Octubre	2023-10-22T00:00:00	2024-11-06T12:00:00	5	Humedad	67
126621	7	Sololá	702	San José Chacayá	5	Chacayá	10	Octubre	2023-10-22T00:00:00	2024-11-06T12:00:00	6	Velocidad del viento	6.4
126622	7	Sololá	702	San José Chacayá	5	Chacayá	10	Octubre	2023-10-22T00:00:00	2024-11-06T12:00:00	7	Dirección del viento	6.44
126623	7	Sololá	702	San José Chacayá	5	Chacayá	10	Octubre	2023-10-22T00:00:00	2024-11-06T12:00:00	1	Precipitación	0
126624	7	Sololá	702	San José Chacayá	5	Chacayá	10	Octubre	2023-10-22T00:00:00	2024-11-06T12:00:00	8	Radiación solar	835
126625	7	Sololá	702	San José Chacayá	5	Chacayá	10	Octubre	2023-10-22T00:00:00	2024-11-06T13:00:00	2	Temperatura media	21.6
126626	7	Sololá	702	San José Chacayá	5	Chacayá	10	Octubre	2023-10-22T00:00:00	2024-11-06T13:00:00	4	Temperatura máxima	21.6
126627	7	Sololá	702	San José Chacayá	5	Chacayá	10	Octubre	2023-10-22T00:00:00	2024-11-06T13:00:00	3	Temperatura mínima	20.8
126628	7	Sololá	702	San José Chacayá	5	Chacayá	10	Octubre	2023-10-22T00:00:00	2024-11-06T13:00:00	5	Humedad	67
126629	7	Sololá	702	San José Chacayá	5	Chacayá	10	Octubre	2023-10-22T00:00:00	2024-11-06T13:00:00	6	Velocidad del viento	4.8
126630	7	Sololá	702	San José Chacayá	5	Chacayá	10	Octubre	2023-10-22T00:00:00	2024-11-06T13:00:00	7	Dirección del viento	4.83
126631	7	Sololá	702	San José Chacayá	5	Chacayá	10	Octubre	2023-10-22T00:00:00	2024-11-06T13:00:00	1	Precipitación	0
126632	7	Sololá	702	San José Chacayá	5	Chacayá	10	Octubre	2023-10-22T00:00:00	2024-11-06T13:00:00	8	Radiación solar	83
126633	7	Sololá	702	San José Chacayá	5	Chacayá	10	Octubre	2023-10-22T00:00:00	2024-11-06T14:00:00	2	Temperatura media	21.1
126634	7	Sololá	702	San José Chacayá	5	Chacayá	10	Octubre	2023-10-22T00:00:00	2024-11-06T14:00:00	4	Temperatura máxima	22.1
126635	7	Sololá	702	San José Chacayá	5	Chacayá	10	Octubre	2023-10-22T00:00:00	2024-11-06T14:00:00	3	Temperatura mínima	20.9
126636	7	Sololá	702	San José Chacayá	5	Chacayá	10	Octubre	2023-10-22T00:00:00	2024-11-06T14:00:00	5	Humedad	71
126637	7	Sololá	702	San José Chacayá	5	Chacayá	10	Octubre	2023-10-22T00:00:00	2024-11-06T14:00:00	6	Velocidad del viento	6.4
126638	7	Sololá	702	San José Chacayá	5	Chacayá	10	Octubre	2023-10-22T00:00:00	2024-11-06T14:00:00	7	Dirección del viento	6.44
126639	7	Sololá	702	San José Chacayá	5	Chacayá	10	Octubre	2023-10-22T00:00:00	2024-11-06T14:00:00	1	Precipitación	0
126640	7	Sololá	702	San José Chacayá	5	Chacayá	10	Octubre	2023-10-22T00:00:00	2024-11-06T14:00:00	8	Radiación solar	142
126641	7	Sololá	702	San José Chacayá	5	Chacayá	10	Octubre	2023-10-22T00:00:00	2024-11-06T15:00:00	2	Temperatura media	17.9
126642	7	Sololá	702	San José Chacayá	5	Chacayá	10	Octubre	2023-10-22T00:00:00	2024-11-06T15:00:00	4	Temperatura máxima	21.1
126643	7	Sololá	702	San José Chacayá	5	Chacayá	10	Octubre	2023-10-22T00:00:00	2024-11-06T15:00:00	3	Temperatura mínima	17.9
126644	7	Sololá	702	San José Chacayá	5	Chacayá	10	Octubre	2023-10-22T00:00:00	2024-11-06T15:00:00	5	Humedad	82
126645	7	Sololá	702	San José Chacayá	5	Chacayá	10	Octubre	2023-10-22T00:00:00	2024-11-06T15:00:00	6	Velocidad del viento	4.8
126646	7	Sololá	702	San José Chacayá	5	Chacayá	10	Octubre	2023-10-22T00:00:00	2024-11-06T15:00:00	7	Dirección del viento	4.83
126647	7	Sololá	702	San José Chacayá	5	Chacayá	10	Octubre	2023-10-22T00:00:00	2024-11-06T15:00:00	1	Precipitación	0
126648	7	Sololá	702	San José Chacayá	5	Chacayá	10	Octubre	2023-10-22T00:00:00	2024-11-06T15:00:00	8	Radiación solar	85
126649	7	Sololá	702	San José Chacayá	5	Chacayá	10	Octubre	2023-10-22T00:00:00	2024-11-06T16:00:00	2	Temperatura media	16.6
126650	7	Sololá	702	San José Chacayá	5	Chacayá	10	Octubre	2023-10-22T00:00:00	2024-11-06T16:00:00	4	Temperatura máxima	17.9
126651	7	Sololá	702	San José Chacayá	5	Chacayá	10	Octubre	2023-10-22T00:00:00	2024-11-06T16:00:00	3	Temperatura mínima	16.6
126652	7	Sololá	702	San José Chacayá	5	Chacayá	10	Octubre	2023-10-22T00:00:00	2024-11-06T16:00:00	5	Humedad	88
126653	7	Sololá	702	San José Chacayá	5	Chacayá	10	Octubre	2023-10-22T00:00:00	2024-11-06T16:00:00	6	Velocidad del viento	3.2
126654	7	Sololá	702	San José Chacayá	5	Chacayá	10	Octubre	2023-10-22T00:00:00	2024-11-06T16:00:00	7	Dirección del viento	3.22
126655	7	Sololá	702	San José Chacayá	5	Chacayá	10	Octubre	2023-10-22T00:00:00	2024-11-06T16:00:00	1	Precipitación	0
126656	7	Sololá	702	San José Chacayá	5	Chacayá	10	Octubre	2023-10-22T00:00:00	2024-11-06T16:00:00	8	Radiación solar	21
126657	7	Sololá	702	San José Chacayá	5	Chacayá	10	Octubre	2023-10-22T00:00:00	2024-11-06T17:00:00	2	Temperatura media	17.2
126658	7	Sololá	702	San José Chacayá	5	Chacayá	10	Octubre	2023-10-22T00:00:00	2024-11-06T17:00:00	4	Temperatura máxima	17.4
126659	7	Sololá	702	San José Chacayá	5	Chacayá	10	Octubre	2023-10-22T00:00:00	2024-11-06T17:00:00	3	Temperatura mínima	16.4
126660	7	Sololá	702	San José Chacayá	5	Chacayá	10	Octubre	2023-10-22T00:00:00	2024-11-06T17:00:00	5	Humedad	89
126661	7	Sololá	702	San José Chacayá	5	Chacayá	10	Octubre	2023-10-22T00:00:00	2024-11-06T17:00:00	6	Velocidad del viento	0
126662	7	Sololá	702	San José Chacayá	5	Chacayá	10	Octubre	2023-10-22T00:00:00	2024-11-06T17:00:00	7	Dirección del viento	0
126663	7	Sololá	702	San José Chacayá	5	Chacayá	10	Octubre	2023-10-22T00:00:00	2024-11-06T17:00:00	1	Precipitación	0
126664	7	Sololá	702	San José Chacayá	5	Chacayá	10	Octubre	2023-10-22T00:00:00	2024-11-06T17:00:00	8	Radiación solar	8
126665	7	Sololá	702	San José Chacayá	5	Chacayá	10	Octubre	2023-10-22T00:00:00	2024-11-06T18:00:00	2	Temperatura media	16.3
126666	7	Sololá	702	San José Chacayá	5	Chacayá	10	Octubre	2023-10-22T00:00:00	2024-11-06T18:00:00	4	Temperatura máxima	17.2
126667	7	Sololá	702	San José Chacayá	5	Chacayá	10	Octubre	2023-10-22T00:00:00	2024-11-06T18:00:00	3	Temperatura mínima	16.3
126668	7	Sololá	702	San José Chacayá	5	Chacayá	10	Octubre	2023-10-22T00:00:00	2024-11-06T18:00:00	5	Humedad	90
126669	7	Sololá	702	San José Chacayá	5	Chacayá	10	Octubre	2023-10-22T00:00:00	2024-11-06T18:00:00	6	Velocidad del viento	1.6
126670	7	Sololá	702	San José Chacayá	5	Chacayá	10	Octubre	2023-10-22T00:00:00	2024-11-06T18:00:00	7	Dirección del viento	1.61
126671	7	Sololá	702	San José Chacayá	5	Chacayá	10	Octubre	2023-10-22T00:00:00	2024-11-06T18:00:00	1	Precipitación	0
126672	7	Sololá	702	San José Chacayá	5	Chacayá	10	Octubre	2023-10-22T00:00:00	2024-11-06T18:00:00	8	Radiación solar	0
126673	7	Sololá	702	San José Chacayá	5	Chacayá	10	Octubre	2023-10-22T00:00:00	2024-11-06T19:00:00	2	Temperatura media	15.7
126674	7	Sololá	702	San José Chacayá	5	Chacayá	10	Octubre	2023-10-22T00:00:00	2024-11-06T19:00:00	4	Temperatura máxima	16.3
126675	7	Sololá	702	San José Chacayá	5	Chacayá	10	Octubre	2023-10-22T00:00:00	2024-11-06T19:00:00	3	Temperatura mínima	15.6
126676	7	Sololá	702	San José Chacayá	5	Chacayá	10	Octubre	2023-10-22T00:00:00	2024-11-06T19:00:00	5	Humedad	87
126677	7	Sololá	702	San José Chacayá	5	Chacayá	10	Octubre	2023-10-22T00:00:00	2024-11-06T19:00:00	6	Velocidad del viento	0
126678	7	Sololá	702	San José Chacayá	5	Chacayá	10	Octubre	2023-10-22T00:00:00	2024-11-06T19:00:00	7	Dirección del viento	0
126679	7	Sololá	702	San José Chacayá	5	Chacayá	10	Octubre	2023-10-22T00:00:00	2024-11-06T19:00:00	1	Precipitación	0
126680	7	Sololá	702	San José Chacayá	5	Chacayá	10	Octubre	2023-10-22T00:00:00	2024-11-06T19:00:00	8	Radiación solar	0
126681	7	Sololá	702	San José Chacayá	5	Chacayá	10	Octubre	2023-10-22T00:00:00	2024-11-06T20:00:00	2	Temperatura media	14.9
126682	7	Sololá	702	San José Chacayá	5	Chacayá	10	Octubre	2023-10-22T00:00:00	2024-11-06T20:00:00	4	Temperatura máxima	15.7
126683	7	Sololá	702	San José Chacayá	5	Chacayá	10	Octubre	2023-10-22T00:00:00	2024-11-06T20:00:00	3	Temperatura mínima	14.9
126684	7	Sololá	702	San José Chacayá	5	Chacayá	10	Octubre	2023-10-22T00:00:00	2024-11-06T20:00:00	5	Humedad	93
126685	7	Sololá	702	San José Chacayá	5	Chacayá	10	Octubre	2023-10-22T00:00:00	2024-11-06T20:00:00	6	Velocidad del viento	0
126686	7	Sololá	702	San José Chacayá	5	Chacayá	10	Octubre	2023-10-22T00:00:00	2024-11-06T20:00:00	7	Dirección del viento	0
126687	7	Sololá	702	San José Chacayá	5	Chacayá	10	Octubre	2023-10-22T00:00:00	2024-11-06T20:00:00	1	Precipitación	1
126688	7	Sololá	702	San José Chacayá	5	Chacayá	10	Octubre	2023-10-22T00:00:00	2024-11-06T20:00:00	8	Radiación solar	0
126689	7	Sololá	702	San José Chacayá	5	Chacayá	10	Octubre	2023-10-22T00:00:00	2024-11-06T21:00:00	2	Temperatura media	14.4
126690	7	Sololá	702	San José Chacayá	5	Chacayá	10	Octubre	2023-10-22T00:00:00	2024-11-06T21:00:00	4	Temperatura máxima	14.9
126691	7	Sololá	702	San José Chacayá	5	Chacayá	10	Octubre	2023-10-22T00:00:00	2024-11-06T21:00:00	3	Temperatura mínima	14.4
126692	7	Sololá	702	San José Chacayá	5	Chacayá	10	Octubre	2023-10-22T00:00:00	2024-11-06T21:00:00	5	Humedad	94
126693	7	Sololá	702	San José Chacayá	5	Chacayá	10	Octubre	2023-10-22T00:00:00	2024-11-06T21:00:00	6	Velocidad del viento	0
126694	7	Sololá	702	San José Chacayá	5	Chacayá	10	Octubre	2023-10-22T00:00:00	2024-11-06T21:00:00	7	Dirección del viento	0
126695	7	Sololá	702	San José Chacayá	5	Chacayá	10	Octubre	2023-10-22T00:00:00	2024-11-06T21:00:00	1	Precipitación	0.8
126696	7	Sololá	702	San José Chacayá	5	Chacayá	10	Octubre	2023-10-22T00:00:00	2024-11-06T21:00:00	8	Radiación solar	0
126697	7	Sololá	702	San José Chacayá	5	Chacayá	10	Octubre	2023-10-22T00:00:00	2024-11-06T22:00:00	2	Temperatura media	14.2
126698	7	Sololá	702	San José Chacayá	5	Chacayá	10	Octubre	2023-10-22T00:00:00	2024-11-06T22:00:00	4	Temperatura máxima	14.4
126699	7	Sololá	702	San José Chacayá	5	Chacayá	10	Octubre	2023-10-22T00:00:00	2024-11-06T22:00:00	3	Temperatura mínima	14.2
126700	7	Sololá	702	San José Chacayá	5	Chacayá	10	Octubre	2023-10-22T00:00:00	2024-11-06T22:00:00	5	Humedad	94
126701	7	Sololá	702	San José Chacayá	5	Chacayá	10	Octubre	2023-10-22T00:00:00	2024-11-06T22:00:00	6	Velocidad del viento	0
126702	7	Sololá	702	San José Chacayá	5	Chacayá	10	Octubre	2023-10-22T00:00:00	2024-11-06T22:00:00	7	Dirección del viento	0
126703	7	Sololá	702	San José Chacayá	5	Chacayá	10	Octubre	2023-10-22T00:00:00	2024-11-06T22:00:00	1	Precipitación	0
126704	7	Sololá	702	San José Chacayá	5	Chacayá	10	Octubre	2023-10-22T00:00:00	2024-11-06T22:00:00	8	Radiación solar	0
126705	7	Sololá	702	San José Chacayá	5	Chacayá	10	Octubre	2023-10-22T00:00:00	2024-11-06T23:00:00	2	Temperatura media	14.2
126706	7	Sololá	702	San José Chacayá	5	Chacayá	10	Octubre	2023-10-22T00:00:00	2024-11-06T23:00:00	4	Temperatura máxima	14.3
126707	7	Sololá	702	San José Chacayá	5	Chacayá	10	Octubre	2023-10-22T00:00:00	2024-11-06T23:00:00	3	Temperatura mínima	14.2
126708	7	Sololá	702	San José Chacayá	5	Chacayá	10	Octubre	2023-10-22T00:00:00	2024-11-06T23:00:00	5	Humedad	95
126709	7	Sololá	702	San José Chacayá	5	Chacayá	10	Octubre	2023-10-22T00:00:00	2024-11-06T23:00:00	6	Velocidad del viento	0
126710	7	Sololá	702	San José Chacayá	5	Chacayá	10	Octubre	2023-10-22T00:00:00	2024-11-06T23:00:00	7	Dirección del viento	0
126711	7	Sololá	702	San José Chacayá	5	Chacayá	10	Octubre	2023-10-22T00:00:00	2024-11-06T23:00:00	1	Precipitación	1.4
126712	7	Sololá	702	San José Chacayá	5	Chacayá	10	Octubre	2023-10-22T00:00:00	2024-11-06T23:00:00	8	Radiación solar	0
126713	7	Sololá	702	San José Chacayá	5	Chacayá	10	Octubre	2023-10-23T00:00:00	2024-11-06T00:00:00	2	Temperatura media	13.9
126714	7	Sololá	702	San José Chacayá	5	Chacayá	10	Octubre	2023-10-23T00:00:00	2024-11-06T00:00:00	4	Temperatura máxima	14.2
126715	7	Sololá	702	San José Chacayá	5	Chacayá	10	Octubre	2023-10-23T00:00:00	2024-11-06T00:00:00	3	Temperatura mínima	13.9
126716	7	Sololá	702	San José Chacayá	5	Chacayá	10	Octubre	2023-10-23T00:00:00	2024-11-06T00:00:00	5	Humedad	95
126717	7	Sololá	702	San José Chacayá	5	Chacayá	10	Octubre	2023-10-23T00:00:00	2024-11-06T00:00:00	6	Velocidad del viento	0
126718	7	Sololá	702	San José Chacayá	5	Chacayá	10	Octubre	2023-10-23T00:00:00	2024-11-06T00:00:00	7	Dirección del viento	0
126719	7	Sololá	702	San José Chacayá	5	Chacayá	10	Octubre	2023-10-23T00:00:00	2024-11-06T00:00:00	1	Precipitación	0
126720	7	Sololá	702	San José Chacayá	5	Chacayá	10	Octubre	2023-10-23T00:00:00	2024-11-06T00:00:00	8	Radiación solar	0
126721	7	Sololá	702	San José Chacayá	5	Chacayá	10	Octubre	2023-10-23T00:00:00	2024-11-06T01:00:00	2	Temperatura media	12.8
126722	7	Sololá	702	San José Chacayá	5	Chacayá	10	Octubre	2023-10-23T00:00:00	2024-11-06T01:00:00	4	Temperatura máxima	13.9
126723	7	Sololá	702	San José Chacayá	5	Chacayá	10	Octubre	2023-10-23T00:00:00	2024-11-06T01:00:00	3	Temperatura mínima	12.8
126724	7	Sololá	702	San José Chacayá	5	Chacayá	10	Octubre	2023-10-23T00:00:00	2024-11-06T01:00:00	5	Humedad	94
126725	7	Sololá	702	San José Chacayá	5	Chacayá	10	Octubre	2023-10-23T00:00:00	2024-11-06T01:00:00	6	Velocidad del viento	0
126726	7	Sololá	702	San José Chacayá	5	Chacayá	10	Octubre	2023-10-23T00:00:00	2024-11-06T01:00:00	7	Dirección del viento	0
126727	7	Sololá	702	San José Chacayá	5	Chacayá	10	Octubre	2023-10-23T00:00:00	2024-11-06T01:00:00	1	Precipitación	0
126728	7	Sololá	702	San José Chacayá	5	Chacayá	10	Octubre	2023-10-23T00:00:00	2024-11-06T01:00:00	8	Radiación solar	0
126729	7	Sololá	702	San José Chacayá	5	Chacayá	10	Octubre	2023-10-23T00:00:00	2024-11-06T02:00:00	2	Temperatura media	12
126730	7	Sololá	702	San José Chacayá	5	Chacayá	10	Octubre	2023-10-23T00:00:00	2024-11-06T02:00:00	4	Temperatura máxima	12.8
126731	7	Sololá	702	San José Chacayá	5	Chacayá	10	Octubre	2023-10-23T00:00:00	2024-11-06T02:00:00	3	Temperatura mínima	12
126732	7	Sololá	702	San José Chacayá	5	Chacayá	10	Octubre	2023-10-23T00:00:00	2024-11-06T02:00:00	5	Humedad	95
126733	7	Sololá	702	San José Chacayá	5	Chacayá	10	Octubre	2023-10-23T00:00:00	2024-11-06T02:00:00	6	Velocidad del viento	0
126734	7	Sololá	702	San José Chacayá	5	Chacayá	10	Octubre	2023-10-23T00:00:00	2024-11-06T02:00:00	7	Dirección del viento	0
126735	7	Sololá	702	San José Chacayá	5	Chacayá	10	Octubre	2023-10-23T00:00:00	2024-11-06T02:00:00	1	Precipitación	0
126736	7	Sololá	702	San José Chacayá	5	Chacayá	10	Octubre	2023-10-23T00:00:00	2024-11-06T02:00:00	8	Radiación solar	0
126737	7	Sololá	702	San José Chacayá	5	Chacayá	10	Octubre	2023-10-23T00:00:00	2024-11-06T03:00:00	2	Temperatura media	11.3
126738	7	Sololá	702	San José Chacayá	5	Chacayá	10	Octubre	2023-10-23T00:00:00	2024-11-06T03:00:00	4	Temperatura máxima	12.1
126739	7	Sololá	702	San José Chacayá	5	Chacayá	10	Octubre	2023-10-23T00:00:00	2024-11-06T03:00:00	3	Temperatura mínima	11.2
126740	7	Sololá	702	San José Chacayá	5	Chacayá	10	Octubre	2023-10-23T00:00:00	2024-11-06T03:00:00	5	Humedad	95
126741	7	Sololá	702	San José Chacayá	5	Chacayá	10	Octubre	2023-10-23T00:00:00	2024-11-06T03:00:00	6	Velocidad del viento	0
126742	7	Sololá	702	San José Chacayá	5	Chacayá	10	Octubre	2023-10-23T00:00:00	2024-11-06T03:00:00	7	Dirección del viento	0
126743	7	Sololá	702	San José Chacayá	5	Chacayá	10	Octubre	2023-10-23T00:00:00	2024-11-06T03:00:00	1	Precipitación	0.2
126744	7	Sololá	702	San José Chacayá	5	Chacayá	10	Octubre	2023-10-23T00:00:00	2024-11-06T03:00:00	8	Radiación solar	0
126745	7	Sololá	702	San José Chacayá	5	Chacayá	10	Octubre	2023-10-23T00:00:00	2024-11-06T04:00:00	2	Temperatura media	10.7
126746	7	Sololá	702	San José Chacayá	5	Chacayá	10	Octubre	2023-10-23T00:00:00	2024-11-06T04:00:00	4	Temperatura máxima	11.3
126747	7	Sololá	702	San José Chacayá	5	Chacayá	10	Octubre	2023-10-23T00:00:00	2024-11-06T04:00:00	3	Temperatura mínima	10.7
126748	7	Sololá	702	San José Chacayá	5	Chacayá	10	Octubre	2023-10-23T00:00:00	2024-11-06T04:00:00	5	Humedad	95
126749	7	Sololá	702	San José Chacayá	5	Chacayá	10	Octubre	2023-10-23T00:00:00	2024-11-06T04:00:00	6	Velocidad del viento	0
126750	7	Sololá	702	San José Chacayá	5	Chacayá	10	Octubre	2023-10-23T00:00:00	2024-11-06T04:00:00	7	Dirección del viento	0
126751	7	Sololá	702	San José Chacayá	5	Chacayá	10	Octubre	2023-10-23T00:00:00	2024-11-06T04:00:00	1	Precipitación	0
126752	7	Sololá	702	San José Chacayá	5	Chacayá	10	Octubre	2023-10-23T00:00:00	2024-11-06T04:00:00	8	Radiación solar	0
126753	7	Sololá	702	San José Chacayá	5	Chacayá	10	Octubre	2023-10-23T00:00:00	2024-11-06T05:00:00	2	Temperatura media	10.4
126754	7	Sololá	702	San José Chacayá	5	Chacayá	10	Octubre	2023-10-23T00:00:00	2024-11-06T05:00:00	4	Temperatura máxima	10.7
126755	7	Sololá	702	San José Chacayá	5	Chacayá	10	Octubre	2023-10-23T00:00:00	2024-11-06T05:00:00	3	Temperatura mínima	10.4
126756	7	Sololá	702	San José Chacayá	5	Chacayá	10	Octubre	2023-10-23T00:00:00	2024-11-06T05:00:00	5	Humedad	95
126757	7	Sololá	702	San José Chacayá	5	Chacayá	10	Octubre	2023-10-23T00:00:00	2024-11-06T05:00:00	6	Velocidad del viento	0
126758	7	Sololá	702	San José Chacayá	5	Chacayá	10	Octubre	2023-10-23T00:00:00	2024-11-06T05:00:00	7	Dirección del viento	0
126759	7	Sololá	702	San José Chacayá	5	Chacayá	10	Octubre	2023-10-23T00:00:00	2024-11-06T05:00:00	1	Precipitación	0
126760	7	Sololá	702	San José Chacayá	5	Chacayá	10	Octubre	2023-10-23T00:00:00	2024-11-06T05:00:00	8	Radiación solar	0
126761	7	Sololá	702	San José Chacayá	5	Chacayá	10	Octubre	2023-10-23T00:00:00	2024-11-06T06:00:00	2	Temperatura media	10.4
126762	7	Sololá	702	San José Chacayá	5	Chacayá	10	Octubre	2023-10-23T00:00:00	2024-11-06T06:00:00	4	Temperatura máxima	10.6
126763	7	Sololá	702	San José Chacayá	5	Chacayá	10	Octubre	2023-10-23T00:00:00	2024-11-06T06:00:00	3	Temperatura mínima	10.4
126764	7	Sololá	702	San José Chacayá	5	Chacayá	10	Octubre	2023-10-23T00:00:00	2024-11-06T06:00:00	5	Humedad	95
126765	7	Sololá	702	San José Chacayá	5	Chacayá	10	Octubre	2023-10-23T00:00:00	2024-11-06T06:00:00	6	Velocidad del viento	0
126766	7	Sololá	702	San José Chacayá	5	Chacayá	10	Octubre	2023-10-23T00:00:00	2024-11-06T06:00:00	7	Dirección del viento	0
126767	7	Sololá	702	San José Chacayá	5	Chacayá	10	Octubre	2023-10-23T00:00:00	2024-11-06T06:00:00	1	Precipitación	0
126768	7	Sololá	702	San José Chacayá	5	Chacayá	10	Octubre	2023-10-23T00:00:00	2024-11-06T06:00:00	8	Radiación solar	0
126769	7	Sololá	702	San José Chacayá	5	Chacayá	10	Octubre	2023-10-23T00:00:00	2024-11-06T07:00:00	2	Temperatura media	10.3
126770	7	Sololá	702	San José Chacayá	5	Chacayá	10	Octubre	2023-10-23T00:00:00	2024-11-06T07:00:00	4	Temperatura máxima	10.4
126771	7	Sololá	702	San José Chacayá	5	Chacayá	10	Octubre	2023-10-23T00:00:00	2024-11-06T07:00:00	3	Temperatura mínima	10.2
126772	7	Sololá	702	San José Chacayá	5	Chacayá	10	Octubre	2023-10-23T00:00:00	2024-11-06T07:00:00	5	Humedad	95
126773	7	Sololá	702	San José Chacayá	5	Chacayá	10	Octubre	2023-10-23T00:00:00	2024-11-06T07:00:00	6	Velocidad del viento	0
126774	7	Sololá	702	San José Chacayá	5	Chacayá	10	Octubre	2023-10-23T00:00:00	2024-11-06T07:00:00	7	Dirección del viento	0
126775	7	Sololá	702	San José Chacayá	5	Chacayá	10	Octubre	2023-10-23T00:00:00	2024-11-06T07:00:00	1	Precipitación	0
126776	7	Sololá	702	San José Chacayá	5	Chacayá	10	Octubre	2023-10-23T00:00:00	2024-11-06T07:00:00	8	Radiación solar	57
126777	7	Sololá	702	San José Chacayá	5	Chacayá	10	Octubre	2023-10-23T00:00:00	2024-11-06T08:00:00	2	Temperatura media	12.2
126778	7	Sololá	702	San José Chacayá	5	Chacayá	10	Octubre	2023-10-23T00:00:00	2024-11-06T08:00:00	4	Temperatura máxima	12.2
126779	7	Sololá	702	San José Chacayá	5	Chacayá	10	Octubre	2023-10-23T00:00:00	2024-11-06T08:00:00	3	Temperatura mínima	10.3
126780	7	Sololá	702	San José Chacayá	5	Chacayá	10	Octubre	2023-10-23T00:00:00	2024-11-06T08:00:00	5	Humedad	96
126781	7	Sololá	702	San José Chacayá	5	Chacayá	10	Octubre	2023-10-23T00:00:00	2024-11-06T08:00:00	6	Velocidad del viento	0
126782	7	Sololá	702	San José Chacayá	5	Chacayá	10	Octubre	2023-10-23T00:00:00	2024-11-06T08:00:00	7	Dirección del viento	0
126783	7	Sololá	702	San José Chacayá	5	Chacayá	10	Octubre	2023-10-23T00:00:00	2024-11-06T08:00:00	1	Precipitación	0
126784	7	Sololá	702	San José Chacayá	5	Chacayá	10	Octubre	2023-10-23T00:00:00	2024-11-06T08:00:00	8	Radiación solar	297
126785	7	Sololá	702	San José Chacayá	5	Chacayá	10	Octubre	2023-10-23T00:00:00	2024-11-06T09:00:00	2	Temperatura media	16.8
126786	7	Sololá	702	San José Chacayá	5	Chacayá	10	Octubre	2023-10-23T00:00:00	2024-11-06T09:00:00	4	Temperatura máxima	16.8
126787	7	Sololá	702	San José Chacayá	5	Chacayá	10	Octubre	2023-10-23T00:00:00	2024-11-06T09:00:00	3	Temperatura mínima	12.2
126788	7	Sololá	702	San José Chacayá	5	Chacayá	10	Octubre	2023-10-23T00:00:00	2024-11-06T09:00:00	5	Humedad	83
126789	7	Sololá	702	San José Chacayá	5	Chacayá	10	Octubre	2023-10-23T00:00:00	2024-11-06T09:00:00	6	Velocidad del viento	0
126790	7	Sololá	702	San José Chacayá	5	Chacayá	10	Octubre	2023-10-23T00:00:00	2024-11-06T09:00:00	7	Dirección del viento	0
126791	7	Sololá	702	San José Chacayá	5	Chacayá	10	Octubre	2023-10-23T00:00:00	2024-11-06T09:00:00	1	Precipitación	0
126792	7	Sololá	702	San José Chacayá	5	Chacayá	10	Octubre	2023-10-23T00:00:00	2024-11-06T09:00:00	8	Radiación solar	520
126793	7	Sololá	702	San José Chacayá	5	Chacayá	10	Octubre	2023-10-23T00:00:00	2024-11-06T10:00:00	2	Temperatura media	19.8
126794	7	Sololá	702	San José Chacayá	5	Chacayá	10	Octubre	2023-10-23T00:00:00	2024-11-06T10:00:00	4	Temperatura máxima	19.9
126795	7	Sololá	702	San José Chacayá	5	Chacayá	10	Octubre	2023-10-23T00:00:00	2024-11-06T10:00:00	3	Temperatura mínima	16.7
126796	7	Sololá	702	San José Chacayá	5	Chacayá	10	Octubre	2023-10-23T00:00:00	2024-11-06T10:00:00	5	Humedad	75
126797	7	Sololá	702	San José Chacayá	5	Chacayá	10	Octubre	2023-10-23T00:00:00	2024-11-06T10:00:00	6	Velocidad del viento	1.6
126798	7	Sololá	702	San José Chacayá	5	Chacayá	10	Octubre	2023-10-23T00:00:00	2024-11-06T10:00:00	7	Dirección del viento	1.61
126799	7	Sololá	702	San José Chacayá	5	Chacayá	10	Octubre	2023-10-23T00:00:00	2024-11-06T10:00:00	1	Precipitación	0
126800	7	Sololá	702	San José Chacayá	5	Chacayá	10	Octubre	2023-10-23T00:00:00	2024-11-06T10:00:00	8	Radiación solar	699
126801	7	Sololá	702	San José Chacayá	5	Chacayá	10	Octubre	2023-10-23T00:00:00	2024-11-06T11:00:00	2	Temperatura media	21.1
126802	7	Sololá	702	San José Chacayá	5	Chacayá	10	Octubre	2023-10-23T00:00:00	2024-11-06T11:00:00	4	Temperatura máxima	21.4
126803	7	Sololá	702	San José Chacayá	5	Chacayá	10	Octubre	2023-10-23T00:00:00	2024-11-06T11:00:00	3	Temperatura mínima	19.9
126804	7	Sololá	702	San José Chacayá	5	Chacayá	10	Octubre	2023-10-23T00:00:00	2024-11-06T11:00:00	5	Humedad	71
126805	7	Sololá	702	San José Chacayá	5	Chacayá	10	Octubre	2023-10-23T00:00:00	2024-11-06T11:00:00	6	Velocidad del viento	3.2
126806	7	Sololá	702	San José Chacayá	5	Chacayá	10	Octubre	2023-10-23T00:00:00	2024-11-06T11:00:00	7	Dirección del viento	3.22
126807	7	Sololá	702	San José Chacayá	5	Chacayá	10	Octubre	2023-10-23T00:00:00	2024-11-06T11:00:00	1	Precipitación	0
126808	7	Sololá	702	San José Chacayá	5	Chacayá	10	Octubre	2023-10-23T00:00:00	2024-11-06T11:00:00	8	Radiación solar	851
126809	7	Sololá	702	San José Chacayá	5	Chacayá	10	Octubre	2023-10-23T00:00:00	2024-11-06T12:00:00	2	Temperatura media	22.3
126810	7	Sololá	702	San José Chacayá	5	Chacayá	10	Octubre	2023-10-23T00:00:00	2024-11-06T12:00:00	4	Temperatura máxima	22.3
126811	7	Sololá	702	San José Chacayá	5	Chacayá	10	Octubre	2023-10-23T00:00:00	2024-11-06T12:00:00	3	Temperatura mínima	20.9
126812	7	Sololá	702	San José Chacayá	5	Chacayá	10	Octubre	2023-10-23T00:00:00	2024-11-06T12:00:00	5	Humedad	66
126813	7	Sololá	702	San José Chacayá	5	Chacayá	10	Octubre	2023-10-23T00:00:00	2024-11-06T12:00:00	6	Velocidad del viento	4.8
126814	7	Sololá	702	San José Chacayá	5	Chacayá	10	Octubre	2023-10-23T00:00:00	2024-11-06T12:00:00	7	Dirección del viento	4.83
126815	7	Sololá	702	San José Chacayá	5	Chacayá	10	Octubre	2023-10-23T00:00:00	2024-11-06T12:00:00	1	Precipitación	0
126816	7	Sololá	702	San José Chacayá	5	Chacayá	10	Octubre	2023-10-23T00:00:00	2024-11-06T12:00:00	8	Radiación solar	922
126817	7	Sololá	702	San José Chacayá	5	Chacayá	10	Octubre	2023-10-23T00:00:00	2024-11-06T13:00:00	2	Temperatura media	22.6
126818	7	Sololá	702	San José Chacayá	5	Chacayá	10	Octubre	2023-10-23T00:00:00	2024-11-06T13:00:00	4	Temperatura máxima	22.8
126819	7	Sololá	702	San José Chacayá	5	Chacayá	10	Octubre	2023-10-23T00:00:00	2024-11-06T13:00:00	3	Temperatura mínima	22
126820	7	Sololá	702	San José Chacayá	5	Chacayá	10	Octubre	2023-10-23T00:00:00	2024-11-06T13:00:00	5	Humedad	63
126821	7	Sololá	702	San José Chacayá	5	Chacayá	10	Octubre	2023-10-23T00:00:00	2024-11-06T13:00:00	6	Velocidad del viento	4.8
126822	7	Sololá	702	San José Chacayá	5	Chacayá	10	Octubre	2023-10-23T00:00:00	2024-11-06T13:00:00	7	Dirección del viento	4.83
126823	7	Sololá	702	San José Chacayá	5	Chacayá	10	Octubre	2023-10-23T00:00:00	2024-11-06T13:00:00	1	Precipitación	0
126824	7	Sololá	702	San José Chacayá	5	Chacayá	10	Octubre	2023-10-23T00:00:00	2024-11-06T13:00:00	8	Radiación solar	879
126825	7	Sololá	702	San José Chacayá	5	Chacayá	10	Octubre	2023-10-23T00:00:00	2024-11-06T14:00:00	2	Temperatura media	22.1
126826	7	Sololá	702	San José Chacayá	5	Chacayá	10	Octubre	2023-10-23T00:00:00	2024-11-06T14:00:00	4	Temperatura máxima	22.7
126827	7	Sololá	702	San José Chacayá	5	Chacayá	10	Octubre	2023-10-23T00:00:00	2024-11-06T14:00:00	3	Temperatura mínima	22.1
126828	7	Sololá	702	San José Chacayá	5	Chacayá	10	Octubre	2023-10-23T00:00:00	2024-11-06T14:00:00	5	Humedad	69
126829	7	Sololá	702	San José Chacayá	5	Chacayá	10	Octubre	2023-10-23T00:00:00	2024-11-06T14:00:00	6	Velocidad del viento	4.8
126830	7	Sololá	702	San José Chacayá	5	Chacayá	10	Octubre	2023-10-23T00:00:00	2024-11-06T14:00:00	7	Dirección del viento	4.83
126831	7	Sololá	702	San José Chacayá	5	Chacayá	10	Octubre	2023-10-23T00:00:00	2024-11-06T14:00:00	1	Precipitación	0
126832	7	Sololá	702	San José Chacayá	5	Chacayá	10	Octubre	2023-10-23T00:00:00	2024-11-06T14:00:00	8	Radiación solar	384
126833	7	Sololá	702	San José Chacayá	5	Chacayá	10	Octubre	2023-10-23T00:00:00	2024-11-06T15:00:00	2	Temperatura media	19.4
126834	7	Sololá	702	San José Chacayá	5	Chacayá	10	Octubre	2023-10-23T00:00:00	2024-11-06T15:00:00	4	Temperatura máxima	22.1
126835	7	Sololá	702	San José Chacayá	5	Chacayá	10	Octubre	2023-10-23T00:00:00	2024-11-06T15:00:00	3	Temperatura mínima	19.4
126836	7	Sololá	702	San José Chacayá	5	Chacayá	10	Octubre	2023-10-23T00:00:00	2024-11-06T15:00:00	5	Humedad	76
126837	7	Sololá	702	San José Chacayá	5	Chacayá	10	Octubre	2023-10-23T00:00:00	2024-11-06T15:00:00	6	Velocidad del viento	4.8
126838	7	Sololá	702	San José Chacayá	5	Chacayá	10	Octubre	2023-10-23T00:00:00	2024-11-06T15:00:00	7	Dirección del viento	4.83
126839	7	Sololá	702	San José Chacayá	5	Chacayá	10	Octubre	2023-10-23T00:00:00	2024-11-06T15:00:00	1	Precipitación	0
126840	7	Sololá	702	San José Chacayá	5	Chacayá	10	Octubre	2023-10-23T00:00:00	2024-11-06T15:00:00	8	Radiación solar	133
126841	7	Sololá	702	San José Chacayá	5	Chacayá	10	Octubre	2023-10-23T00:00:00	2024-11-06T16:00:00	2	Temperatura media	19.8
126842	7	Sololá	702	San José Chacayá	5	Chacayá	10	Octubre	2023-10-23T00:00:00	2024-11-06T16:00:00	4	Temperatura máxima	19.9
126843	7	Sololá	702	San José Chacayá	5	Chacayá	10	Octubre	2023-10-23T00:00:00	2024-11-06T16:00:00	3	Temperatura mínima	18.4
126844	7	Sololá	702	San José Chacayá	5	Chacayá	10	Octubre	2023-10-23T00:00:00	2024-11-06T16:00:00	5	Humedad	79
126845	7	Sololá	702	San José Chacayá	5	Chacayá	10	Octubre	2023-10-23T00:00:00	2024-11-06T16:00:00	6	Velocidad del viento	4.8
126846	7	Sololá	702	San José Chacayá	5	Chacayá	10	Octubre	2023-10-23T00:00:00	2024-11-06T16:00:00	7	Dirección del viento	4.83
126847	7	Sololá	702	San José Chacayá	5	Chacayá	10	Octubre	2023-10-23T00:00:00	2024-11-06T16:00:00	1	Precipitación	0
126848	7	Sololá	702	San José Chacayá	5	Chacayá	10	Octubre	2023-10-23T00:00:00	2024-11-06T16:00:00	8	Radiación solar	32
126849	7	Sololá	702	San José Chacayá	5	Chacayá	10	Octubre	2023-10-23T00:00:00	2024-11-06T17:00:00	2	Temperatura media	17.6
126850	7	Sololá	702	San José Chacayá	5	Chacayá	10	Octubre	2023-10-23T00:00:00	2024-11-06T17:00:00	4	Temperatura máxima	19.8
126851	7	Sololá	702	San José Chacayá	5	Chacayá	10	Octubre	2023-10-23T00:00:00	2024-11-06T17:00:00	3	Temperatura mínima	17.6
126852	7	Sololá	702	San José Chacayá	5	Chacayá	10	Octubre	2023-10-23T00:00:00	2024-11-06T17:00:00	5	Humedad	87
126853	7	Sololá	702	San José Chacayá	5	Chacayá	10	Octubre	2023-10-23T00:00:00	2024-11-06T17:00:00	6	Velocidad del viento	3.2
126854	7	Sololá	702	San José Chacayá	5	Chacayá	10	Octubre	2023-10-23T00:00:00	2024-11-06T17:00:00	7	Dirección del viento	3.22
126855	7	Sololá	702	San José Chacayá	5	Chacayá	10	Octubre	2023-10-23T00:00:00	2024-11-06T17:00:00	1	Precipitación	0
126856	7	Sololá	702	San José Chacayá	5	Chacayá	10	Octubre	2023-10-23T00:00:00	2024-11-06T17:00:00	8	Radiación solar	33
126857	7	Sololá	702	San José Chacayá	5	Chacayá	10	Octubre	2023-10-23T00:00:00	2024-11-06T18:00:00	2	Temperatura media	17.4
126858	7	Sololá	702	San José Chacayá	5	Chacayá	10	Octubre	2023-10-23T00:00:00	2024-11-06T18:00:00	4	Temperatura máxima	17.8
126859	7	Sololá	702	San José Chacayá	5	Chacayá	10	Octubre	2023-10-23T00:00:00	2024-11-06T18:00:00	3	Temperatura mínima	17.4
126860	7	Sololá	702	San José Chacayá	5	Chacayá	10	Octubre	2023-10-23T00:00:00	2024-11-06T18:00:00	5	Humedad	85
126861	7	Sololá	702	San José Chacayá	5	Chacayá	10	Octubre	2023-10-23T00:00:00	2024-11-06T18:00:00	6	Velocidad del viento	1.6
126862	7	Sololá	702	San José Chacayá	5	Chacayá	10	Octubre	2023-10-23T00:00:00	2024-11-06T18:00:00	7	Dirección del viento	1.61
126863	7	Sololá	702	San José Chacayá	5	Chacayá	10	Octubre	2023-10-23T00:00:00	2024-11-06T18:00:00	1	Precipitación	0
126864	7	Sololá	702	San José Chacayá	5	Chacayá	10	Octubre	2023-10-23T00:00:00	2024-11-06T18:00:00	8	Radiación solar	7
126865	7	Sololá	702	San José Chacayá	5	Chacayá	10	Octubre	2023-10-23T00:00:00	2024-11-06T19:00:00	2	Temperatura media	15.9
126866	7	Sololá	702	San José Chacayá	5	Chacayá	10	Octubre	2023-10-23T00:00:00	2024-11-06T19:00:00	4	Temperatura máxima	17.4
126867	7	Sololá	702	San José Chacayá	5	Chacayá	10	Octubre	2023-10-23T00:00:00	2024-11-06T19:00:00	3	Temperatura mínima	15.9
126868	7	Sololá	702	San José Chacayá	5	Chacayá	10	Octubre	2023-10-23T00:00:00	2024-11-06T19:00:00	5	Humedad	92
126869	7	Sololá	702	San José Chacayá	5	Chacayá	10	Octubre	2023-10-23T00:00:00	2024-11-06T19:00:00	6	Velocidad del viento	0
126870	7	Sololá	702	San José Chacayá	5	Chacayá	10	Octubre	2023-10-23T00:00:00	2024-11-06T19:00:00	7	Dirección del viento	0
126871	7	Sololá	702	San José Chacayá	5	Chacayá	10	Octubre	2023-10-23T00:00:00	2024-11-06T19:00:00	1	Precipitación	0
126872	7	Sololá	702	San José Chacayá	5	Chacayá	10	Octubre	2023-10-23T00:00:00	2024-11-06T19:00:00	8	Radiación solar	0
126873	7	Sololá	702	San José Chacayá	5	Chacayá	10	Octubre	2023-10-23T00:00:00	2024-11-06T20:00:00	2	Temperatura media	15.4
126874	7	Sololá	702	San José Chacayá	5	Chacayá	10	Octubre	2023-10-23T00:00:00	2024-11-06T20:00:00	4	Temperatura máxima	15.9
126875	7	Sololá	702	San José Chacayá	5	Chacayá	10	Octubre	2023-10-23T00:00:00	2024-11-06T20:00:00	3	Temperatura mínima	15.3
126876	7	Sololá	702	San José Chacayá	5	Chacayá	10	Octubre	2023-10-23T00:00:00	2024-11-06T20:00:00	5	Humedad	93
126877	7	Sololá	702	San José Chacayá	5	Chacayá	10	Octubre	2023-10-23T00:00:00	2024-11-06T20:00:00	6	Velocidad del viento	0
126878	7	Sololá	702	San José Chacayá	5	Chacayá	10	Octubre	2023-10-23T00:00:00	2024-11-06T20:00:00	7	Dirección del viento	0
126879	7	Sololá	702	San José Chacayá	5	Chacayá	10	Octubre	2023-10-23T00:00:00	2024-11-06T20:00:00	1	Precipitación	0
126880	7	Sololá	702	San José Chacayá	5	Chacayá	10	Octubre	2023-10-23T00:00:00	2024-11-06T20:00:00	8	Radiación solar	0
126881	7	Sololá	702	San José Chacayá	5	Chacayá	10	Octubre	2023-10-23T00:00:00	2024-11-06T21:00:00	2	Temperatura media	15.1
126882	7	Sololá	702	San José Chacayá	5	Chacayá	10	Octubre	2023-10-23T00:00:00	2024-11-06T21:00:00	4	Temperatura máxima	15.4
126883	7	Sololá	702	San José Chacayá	5	Chacayá	10	Octubre	2023-10-23T00:00:00	2024-11-06T21:00:00	3	Temperatura mínima	15
126884	7	Sololá	702	San José Chacayá	5	Chacayá	10	Octubre	2023-10-23T00:00:00	2024-11-06T21:00:00	5	Humedad	93
126885	7	Sololá	702	San José Chacayá	5	Chacayá	10	Octubre	2023-10-23T00:00:00	2024-11-06T21:00:00	6	Velocidad del viento	0
126886	7	Sololá	702	San José Chacayá	5	Chacayá	10	Octubre	2023-10-23T00:00:00	2024-11-06T21:00:00	7	Dirección del viento	0
126887	7	Sololá	702	San José Chacayá	5	Chacayá	10	Octubre	2023-10-23T00:00:00	2024-11-06T21:00:00	1	Precipitación	0
126888	7	Sololá	702	San José Chacayá	5	Chacayá	10	Octubre	2023-10-23T00:00:00	2024-11-06T21:00:00	8	Radiación solar	0
126889	7	Sololá	702	San José Chacayá	5	Chacayá	10	Octubre	2023-10-23T00:00:00	2024-11-06T22:00:00	2	Temperatura media	15.1
126890	7	Sololá	702	San José Chacayá	5	Chacayá	10	Octubre	2023-10-23T00:00:00	2024-11-06T22:00:00	4	Temperatura máxima	15.2
126891	7	Sololá	702	San José Chacayá	5	Chacayá	10	Octubre	2023-10-23T00:00:00	2024-11-06T22:00:00	3	Temperatura mínima	14.9
126892	7	Sololá	702	San José Chacayá	5	Chacayá	10	Octubre	2023-10-23T00:00:00	2024-11-06T22:00:00	5	Humedad	94
126893	7	Sololá	702	San José Chacayá	5	Chacayá	10	Octubre	2023-10-23T00:00:00	2024-11-06T22:00:00	6	Velocidad del viento	0
126894	7	Sololá	702	San José Chacayá	5	Chacayá	10	Octubre	2023-10-23T00:00:00	2024-11-06T22:00:00	7	Dirección del viento	0
126895	7	Sololá	702	San José Chacayá	5	Chacayá	10	Octubre	2023-10-23T00:00:00	2024-11-06T22:00:00	1	Precipitación	5.2
126896	7	Sololá	702	San José Chacayá	5	Chacayá	10	Octubre	2023-10-23T00:00:00	2024-11-06T22:00:00	8	Radiación solar	0
126897	7	Sololá	702	San José Chacayá	5	Chacayá	10	Octubre	2023-10-23T00:00:00	2024-11-06T23:00:00	2	Temperatura media	14.8
126898	7	Sololá	702	San José Chacayá	5	Chacayá	10	Octubre	2023-10-23T00:00:00	2024-11-06T23:00:00	4	Temperatura máxima	15.1
126899	7	Sololá	702	San José Chacayá	5	Chacayá	10	Octubre	2023-10-23T00:00:00	2024-11-06T23:00:00	3	Temperatura mínima	14.8
126900	7	Sololá	702	San José Chacayá	5	Chacayá	10	Octubre	2023-10-23T00:00:00	2024-11-06T23:00:00	5	Humedad	94
126901	7	Sololá	702	San José Chacayá	5	Chacayá	10	Octubre	2023-10-23T00:00:00	2024-11-06T23:00:00	6	Velocidad del viento	0
126902	7	Sololá	702	San José Chacayá	5	Chacayá	10	Octubre	2023-10-23T00:00:00	2024-11-06T23:00:00	7	Dirección del viento	0
126903	7	Sololá	702	San José Chacayá	5	Chacayá	10	Octubre	2023-10-23T00:00:00	2024-11-06T23:00:00	1	Precipitación	4.4
126904	7	Sololá	702	San José Chacayá	5	Chacayá	10	Octubre	2023-10-23T00:00:00	2024-11-06T23:00:00	8	Radiación solar	0
126905	7	Sololá	702	San José Chacayá	5	Chacayá	10	Octubre	2023-10-24T00:00:00	2024-11-06T00:00:00	2	Temperatura media	13.9
126906	7	Sololá	702	San José Chacayá	5	Chacayá	10	Octubre	2023-10-24T00:00:00	2024-11-06T00:00:00	4	Temperatura máxima	14.8
126907	7	Sololá	702	San José Chacayá	5	Chacayá	10	Octubre	2023-10-24T00:00:00	2024-11-06T00:00:00	3	Temperatura mínima	13.9
126908	7	Sololá	702	San José Chacayá	5	Chacayá	10	Octubre	2023-10-24T00:00:00	2024-11-06T00:00:00	5	Humedad	95
126909	7	Sololá	702	San José Chacayá	5	Chacayá	10	Octubre	2023-10-24T00:00:00	2024-11-06T00:00:00	6	Velocidad del viento	0
126910	7	Sololá	702	San José Chacayá	5	Chacayá	10	Octubre	2023-10-24T00:00:00	2024-11-06T00:00:00	7	Dirección del viento	0
126911	7	Sololá	702	San José Chacayá	5	Chacayá	10	Octubre	2023-10-24T00:00:00	2024-11-06T00:00:00	1	Precipitación	25
126912	7	Sololá	702	San José Chacayá	5	Chacayá	10	Octubre	2023-10-24T00:00:00	2024-11-06T00:00:00	8	Radiación solar	0
126913	7	Sololá	702	San José Chacayá	5	Chacayá	10	Octubre	2023-10-24T00:00:00	2024-11-06T01:00:00	2	Temperatura media	13.7
126914	7	Sololá	702	San José Chacayá	5	Chacayá	10	Octubre	2023-10-24T00:00:00	2024-11-06T01:00:00	4	Temperatura máxima	14
126915	7	Sololá	702	San José Chacayá	5	Chacayá	10	Octubre	2023-10-24T00:00:00	2024-11-06T01:00:00	3	Temperatura mínima	13.7
126916	7	Sololá	702	San José Chacayá	5	Chacayá	10	Octubre	2023-10-24T00:00:00	2024-11-06T01:00:00	5	Humedad	95
126917	7	Sololá	702	San José Chacayá	5	Chacayá	10	Octubre	2023-10-24T00:00:00	2024-11-06T01:00:00	6	Velocidad del viento	0
126918	7	Sololá	702	San José Chacayá	5	Chacayá	10	Octubre	2023-10-24T00:00:00	2024-11-06T01:00:00	7	Dirección del viento	0
126919	7	Sololá	702	San José Chacayá	5	Chacayá	10	Octubre	2023-10-24T00:00:00	2024-11-06T01:00:00	1	Precipitación	1
126920	7	Sololá	702	San José Chacayá	5	Chacayá	10	Octubre	2023-10-24T00:00:00	2024-11-06T01:00:00	8	Radiación solar	0
126921	7	Sololá	702	San José Chacayá	5	Chacayá	10	Octubre	2023-10-24T00:00:00	2024-11-06T02:00:00	2	Temperatura media	13.8
126922	7	Sololá	702	San José Chacayá	5	Chacayá	10	Octubre	2023-10-24T00:00:00	2024-11-06T02:00:00	4	Temperatura máxima	13.8
126923	7	Sololá	702	San José Chacayá	5	Chacayá	10	Octubre	2023-10-24T00:00:00	2024-11-06T02:00:00	3	Temperatura mínima	13.6
126924	7	Sololá	702	San José Chacayá	5	Chacayá	10	Octubre	2023-10-24T00:00:00	2024-11-06T02:00:00	5	Humedad	96
126925	7	Sololá	702	San José Chacayá	5	Chacayá	10	Octubre	2023-10-24T00:00:00	2024-11-06T02:00:00	6	Velocidad del viento	0
126926	7	Sololá	702	San José Chacayá	5	Chacayá	10	Octubre	2023-10-24T00:00:00	2024-11-06T02:00:00	7	Dirección del viento	0
126927	7	Sololá	702	San José Chacayá	5	Chacayá	10	Octubre	2023-10-24T00:00:00	2024-11-06T02:00:00	1	Precipitación	0
126928	7	Sololá	702	San José Chacayá	5	Chacayá	10	Octubre	2023-10-24T00:00:00	2024-11-06T02:00:00	8	Radiación solar	0
126929	7	Sololá	702	San José Chacayá	5	Chacayá	10	Octubre	2023-10-24T00:00:00	2024-11-06T03:00:00	2	Temperatura media	13.5
126930	7	Sololá	702	San José Chacayá	5	Chacayá	10	Octubre	2023-10-24T00:00:00	2024-11-06T03:00:00	4	Temperatura máxima	13.8
126931	7	Sololá	702	San José Chacayá	5	Chacayá	10	Octubre	2023-10-24T00:00:00	2024-11-06T03:00:00	3	Temperatura mínima	13.5
126932	7	Sololá	702	San José Chacayá	5	Chacayá	10	Octubre	2023-10-24T00:00:00	2024-11-06T03:00:00	5	Humedad	95
126933	7	Sololá	702	San José Chacayá	5	Chacayá	10	Octubre	2023-10-24T00:00:00	2024-11-06T03:00:00	6	Velocidad del viento	0
126934	7	Sololá	702	San José Chacayá	5	Chacayá	10	Octubre	2023-10-24T00:00:00	2024-11-06T03:00:00	7	Dirección del viento	0
126935	7	Sololá	702	San José Chacayá	5	Chacayá	10	Octubre	2023-10-24T00:00:00	2024-11-06T03:00:00	1	Precipitación	0
126936	7	Sololá	702	San José Chacayá	5	Chacayá	10	Octubre	2023-10-24T00:00:00	2024-11-06T03:00:00	8	Radiación solar	0
126937	7	Sololá	702	San José Chacayá	5	Chacayá	10	Octubre	2023-10-24T00:00:00	2024-11-06T04:00:00	2	Temperatura media	13.1
126938	7	Sololá	702	San José Chacayá	5	Chacayá	10	Octubre	2023-10-24T00:00:00	2024-11-06T04:00:00	4	Temperatura máxima	13.6
126939	7	Sololá	702	San José Chacayá	5	Chacayá	10	Octubre	2023-10-24T00:00:00	2024-11-06T04:00:00	3	Temperatura mínima	13.1
126940	7	Sololá	702	San José Chacayá	5	Chacayá	10	Octubre	2023-10-24T00:00:00	2024-11-06T04:00:00	5	Humedad	95
126941	7	Sololá	702	San José Chacayá	5	Chacayá	10	Octubre	2023-10-24T00:00:00	2024-11-06T04:00:00	6	Velocidad del viento	0
126942	7	Sololá	702	San José Chacayá	5	Chacayá	10	Octubre	2023-10-24T00:00:00	2024-11-06T04:00:00	7	Dirección del viento	0
126943	7	Sololá	702	San José Chacayá	5	Chacayá	10	Octubre	2023-10-24T00:00:00	2024-11-06T04:00:00	1	Precipitación	0
126944	7	Sololá	702	San José Chacayá	5	Chacayá	10	Octubre	2023-10-24T00:00:00	2024-11-06T04:00:00	8	Radiación solar	0
126945	7	Sololá	702	San José Chacayá	5	Chacayá	10	Octubre	2023-10-24T00:00:00	2024-11-06T05:00:00	2	Temperatura media	12.6
126946	7	Sololá	702	San José Chacayá	5	Chacayá	10	Octubre	2023-10-24T00:00:00	2024-11-06T05:00:00	4	Temperatura máxima	13.1
126947	7	Sololá	702	San José Chacayá	5	Chacayá	10	Octubre	2023-10-24T00:00:00	2024-11-06T05:00:00	3	Temperatura mínima	12.6
126948	7	Sololá	702	San José Chacayá	5	Chacayá	10	Octubre	2023-10-24T00:00:00	2024-11-06T05:00:00	5	Humedad	95
126949	7	Sololá	702	San José Chacayá	5	Chacayá	10	Octubre	2023-10-24T00:00:00	2024-11-06T05:00:00	6	Velocidad del viento	0
126950	7	Sololá	702	San José Chacayá	5	Chacayá	10	Octubre	2023-10-24T00:00:00	2024-11-06T05:00:00	7	Dirección del viento	0
126951	7	Sololá	702	San José Chacayá	5	Chacayá	10	Octubre	2023-10-24T00:00:00	2024-11-06T05:00:00	1	Precipitación	0
126952	7	Sololá	702	San José Chacayá	5	Chacayá	10	Octubre	2023-10-24T00:00:00	2024-11-06T05:00:00	8	Radiación solar	0
126953	7	Sololá	702	San José Chacayá	5	Chacayá	10	Octubre	2023-10-24T00:00:00	2024-11-06T06:00:00	2	Temperatura media	12.2
126954	7	Sololá	702	San José Chacayá	5	Chacayá	10	Octubre	2023-10-24T00:00:00	2024-11-06T06:00:00	4	Temperatura máxima	12.6
126955	7	Sololá	702	San José Chacayá	5	Chacayá	10	Octubre	2023-10-24T00:00:00	2024-11-06T06:00:00	3	Temperatura mínima	12.1
126956	7	Sololá	702	San José Chacayá	5	Chacayá	10	Octubre	2023-10-24T00:00:00	2024-11-06T06:00:00	5	Humedad	95
126957	7	Sololá	702	San José Chacayá	5	Chacayá	10	Octubre	2023-10-24T00:00:00	2024-11-06T06:00:00	6	Velocidad del viento	0
126958	7	Sololá	702	San José Chacayá	5	Chacayá	10	Octubre	2023-10-24T00:00:00	2024-11-06T06:00:00	7	Dirección del viento	0
126959	7	Sololá	702	San José Chacayá	5	Chacayá	10	Octubre	2023-10-24T00:00:00	2024-11-06T06:00:00	1	Precipitación	0
126960	7	Sololá	702	San José Chacayá	5	Chacayá	10	Octubre	2023-10-24T00:00:00	2024-11-06T06:00:00	8	Radiación solar	0
126961	7	Sololá	702	San José Chacayá	5	Chacayá	10	Octubre	2023-10-24T00:00:00	2024-11-06T07:00:00	2	Temperatura media	12.1
126962	7	Sololá	702	San José Chacayá	5	Chacayá	10	Octubre	2023-10-24T00:00:00	2024-11-06T07:00:00	4	Temperatura máxima	12.2
126963	7	Sololá	702	San José Chacayá	5	Chacayá	10	Octubre	2023-10-24T00:00:00	2024-11-06T07:00:00	3	Temperatura mínima	12.1
126964	7	Sololá	702	San José Chacayá	5	Chacayá	10	Octubre	2023-10-24T00:00:00	2024-11-06T07:00:00	5	Humedad	96
126965	7	Sololá	702	San José Chacayá	5	Chacayá	10	Octubre	2023-10-24T00:00:00	2024-11-06T07:00:00	6	Velocidad del viento	0
126966	7	Sololá	702	San José Chacayá	5	Chacayá	10	Octubre	2023-10-24T00:00:00	2024-11-06T07:00:00	7	Dirección del viento	0
126967	7	Sololá	702	San José Chacayá	5	Chacayá	10	Octubre	2023-10-24T00:00:00	2024-11-06T07:00:00	1	Precipitación	0
126968	7	Sololá	702	San José Chacayá	5	Chacayá	10	Octubre	2023-10-24T00:00:00	2024-11-06T07:00:00	8	Radiación solar	64
126969	7	Sololá	702	San José Chacayá	5	Chacayá	10	Octubre	2023-10-24T00:00:00	2024-11-06T08:00:00	2	Temperatura media	13.9
126970	7	Sololá	702	San José Chacayá	5	Chacayá	10	Octubre	2023-10-24T00:00:00	2024-11-06T08:00:00	4	Temperatura máxima	13.9
126971	7	Sololá	702	San José Chacayá	5	Chacayá	10	Octubre	2023-10-24T00:00:00	2024-11-06T08:00:00	3	Temperatura mínima	12
126972	7	Sololá	702	San José Chacayá	5	Chacayá	10	Octubre	2023-10-24T00:00:00	2024-11-06T08:00:00	5	Humedad	97
126973	7	Sololá	702	San José Chacayá	5	Chacayá	10	Octubre	2023-10-24T00:00:00	2024-11-06T08:00:00	6	Velocidad del viento	0
126974	7	Sololá	702	San José Chacayá	5	Chacayá	10	Octubre	2023-10-24T00:00:00	2024-11-06T08:00:00	7	Dirección del viento	0
126975	7	Sololá	702	San José Chacayá	5	Chacayá	10	Octubre	2023-10-24T00:00:00	2024-11-06T08:00:00	1	Precipitación	0
126976	7	Sololá	702	San José Chacayá	5	Chacayá	10	Octubre	2023-10-24T00:00:00	2024-11-06T08:00:00	8	Radiación solar	311
126977	7	Sololá	702	San José Chacayá	5	Chacayá	10	Octubre	2023-10-24T00:00:00	2024-11-06T09:00:00	2	Temperatura media	17.7
126978	7	Sololá	702	San José Chacayá	5	Chacayá	10	Octubre	2023-10-24T00:00:00	2024-11-06T09:00:00	4	Temperatura máxima	17.9
126979	7	Sololá	702	San José Chacayá	5	Chacayá	10	Octubre	2023-10-24T00:00:00	2024-11-06T09:00:00	3	Temperatura mínima	13.9
126980	7	Sololá	702	San José Chacayá	5	Chacayá	10	Octubre	2023-10-24T00:00:00	2024-11-06T09:00:00	5	Humedad	86
126981	7	Sololá	702	San José Chacayá	5	Chacayá	10	Octubre	2023-10-24T00:00:00	2024-11-06T09:00:00	6	Velocidad del viento	0
126982	7	Sololá	702	San José Chacayá	5	Chacayá	10	Octubre	2023-10-24T00:00:00	2024-11-06T09:00:00	7	Dirección del viento	0
126983	7	Sololá	702	San José Chacayá	5	Chacayá	10	Octubre	2023-10-24T00:00:00	2024-11-06T09:00:00	1	Precipitación	0
126984	7	Sololá	702	San José Chacayá	5	Chacayá	10	Octubre	2023-10-24T00:00:00	2024-11-06T09:00:00	8	Radiación solar	541
126985	7	Sololá	702	San José Chacayá	5	Chacayá	10	Octubre	2023-10-24T00:00:00	2024-11-06T10:00:00	2	Temperatura media	20.7
126986	7	Sololá	702	San José Chacayá	5	Chacayá	10	Octubre	2023-10-24T00:00:00	2024-11-06T10:00:00	4	Temperatura máxima	20.7
126987	7	Sololá	702	San José Chacayá	5	Chacayá	10	Octubre	2023-10-24T00:00:00	2024-11-06T10:00:00	3	Temperatura mínima	17.6
126988	7	Sololá	702	San José Chacayá	5	Chacayá	10	Octubre	2023-10-24T00:00:00	2024-11-06T10:00:00	5	Humedad	74
126989	7	Sololá	702	San José Chacayá	5	Chacayá	10	Octubre	2023-10-24T00:00:00	2024-11-06T10:00:00	6	Velocidad del viento	1.6
126990	7	Sololá	702	San José Chacayá	5	Chacayá	10	Octubre	2023-10-24T00:00:00	2024-11-06T10:00:00	7	Dirección del viento	1.61
126991	7	Sololá	702	San José Chacayá	5	Chacayá	10	Octubre	2023-10-24T00:00:00	2024-11-06T10:00:00	1	Precipitación	0
126992	7	Sololá	702	San José Chacayá	5	Chacayá	10	Octubre	2023-10-24T00:00:00	2024-11-06T10:00:00	8	Radiación solar	742
126993	7	Sololá	702	San José Chacayá	5	Chacayá	10	Octubre	2023-10-24T00:00:00	2024-11-06T11:00:00	2	Temperatura media	21.4
126994	7	Sololá	702	San José Chacayá	5	Chacayá	10	Octubre	2023-10-24T00:00:00	2024-11-06T11:00:00	4	Temperatura máxima	22.4
126995	7	Sololá	702	San José Chacayá	5	Chacayá	10	Octubre	2023-10-24T00:00:00	2024-11-06T11:00:00	3	Temperatura mínima	20.7
126996	7	Sololá	702	San José Chacayá	5	Chacayá	10	Octubre	2023-10-24T00:00:00	2024-11-06T11:00:00	5	Humedad	77
126997	7	Sololá	702	San José Chacayá	5	Chacayá	10	Octubre	2023-10-24T00:00:00	2024-11-06T11:00:00	6	Velocidad del viento	3.2
126998	7	Sololá	702	San José Chacayá	5	Chacayá	10	Octubre	2023-10-24T00:00:00	2024-11-06T11:00:00	7	Dirección del viento	3.22
126999	7	Sololá	702	San José Chacayá	5	Chacayá	10	Octubre	2023-10-24T00:00:00	2024-11-06T11:00:00	1	Precipitación	0
127000	7	Sololá	702	San José Chacayá	5	Chacayá	10	Octubre	2023-10-24T00:00:00	2024-11-06T11:00:00	8	Radiación solar	834
127001	7	Sololá	702	San José Chacayá	5	Chacayá	10	Octubre	2023-10-24T00:00:00	2024-11-06T12:00:00	2	Temperatura media	23.6
127002	7	Sololá	702	San José Chacayá	5	Chacayá	10	Octubre	2023-10-24T00:00:00	2024-11-06T12:00:00	4	Temperatura máxima	23.8
127003	7	Sololá	702	San José Chacayá	5	Chacayá	10	Octubre	2023-10-24T00:00:00	2024-11-06T12:00:00	3	Temperatura mínima	21.2
127004	7	Sololá	702	San José Chacayá	5	Chacayá	10	Octubre	2023-10-24T00:00:00	2024-11-06T12:00:00	5	Humedad	68
127005	7	Sololá	702	San José Chacayá	5	Chacayá	10	Octubre	2023-10-24T00:00:00	2024-11-06T12:00:00	6	Velocidad del viento	3.2
127006	7	Sololá	702	San José Chacayá	5	Chacayá	10	Octubre	2023-10-24T00:00:00	2024-11-06T12:00:00	7	Dirección del viento	3.22
127007	7	Sololá	702	San José Chacayá	5	Chacayá	10	Octubre	2023-10-24T00:00:00	2024-11-06T12:00:00	1	Precipitación	0
127008	7	Sololá	702	San José Chacayá	5	Chacayá	10	Octubre	2023-10-24T00:00:00	2024-11-06T12:00:00	8	Radiación solar	923
127009	7	Sololá	702	San José Chacayá	5	Chacayá	10	Octubre	2023-10-24T00:00:00	2024-11-06T13:00:00	2	Temperatura media	21.5
127010	7	Sololá	702	San José Chacayá	5	Chacayá	10	Octubre	2023-10-24T00:00:00	2024-11-06T13:00:00	4	Temperatura máxima	23.9
127011	7	Sololá	702	San José Chacayá	5	Chacayá	10	Octubre	2023-10-24T00:00:00	2024-11-06T13:00:00	3	Temperatura mínima	21.5
127012	7	Sololá	702	San José Chacayá	5	Chacayá	10	Octubre	2023-10-24T00:00:00	2024-11-06T13:00:00	5	Humedad	75
127013	7	Sololá	702	San José Chacayá	5	Chacayá	10	Octubre	2023-10-24T00:00:00	2024-11-06T13:00:00	6	Velocidad del viento	4.8
127014	7	Sololá	702	San José Chacayá	5	Chacayá	10	Octubre	2023-10-24T00:00:00	2024-11-06T13:00:00	7	Dirección del viento	4.83
127015	7	Sololá	702	San José Chacayá	5	Chacayá	10	Octubre	2023-10-24T00:00:00	2024-11-06T13:00:00	1	Precipitación	0
127016	7	Sololá	702	San José Chacayá	5	Chacayá	10	Octubre	2023-10-24T00:00:00	2024-11-06T13:00:00	8	Radiación solar	895
127017	7	Sololá	702	San José Chacayá	5	Chacayá	10	Octubre	2023-10-24T00:00:00	2024-11-06T14:00:00	2	Temperatura media	17.4
127018	7	Sololá	702	San José Chacayá	5	Chacayá	10	Octubre	2023-10-24T00:00:00	2024-11-06T14:00:00	4	Temperatura máxima	21.5
127019	7	Sololá	702	San José Chacayá	5	Chacayá	10	Octubre	2023-10-24T00:00:00	2024-11-06T14:00:00	3	Temperatura mínima	17.4
127020	7	Sololá	702	San José Chacayá	5	Chacayá	10	Octubre	2023-10-24T00:00:00	2024-11-06T14:00:00	5	Humedad	89
127021	7	Sololá	702	San José Chacayá	5	Chacayá	10	Octubre	2023-10-24T00:00:00	2024-11-06T14:00:00	6	Velocidad del viento	4.8
127022	7	Sololá	702	San José Chacayá	5	Chacayá	10	Octubre	2023-10-24T00:00:00	2024-11-06T14:00:00	7	Dirección del viento	4.83
127023	7	Sololá	702	San José Chacayá	5	Chacayá	10	Octubre	2023-10-24T00:00:00	2024-11-06T14:00:00	1	Precipitación	0
127024	7	Sololá	702	San José Chacayá	5	Chacayá	10	Octubre	2023-10-24T00:00:00	2024-11-06T14:00:00	8	Radiación solar	822
127025	7	Sololá	702	San José Chacayá	5	Chacayá	10	Octubre	2023-10-24T00:00:00	2024-11-06T15:00:00	2	Temperatura media	16
127026	7	Sololá	702	San José Chacayá	5	Chacayá	10	Octubre	2023-10-24T00:00:00	2024-11-06T15:00:00	4	Temperatura máxima	17.4
127027	7	Sololá	702	San José Chacayá	5	Chacayá	10	Octubre	2023-10-24T00:00:00	2024-11-06T15:00:00	3	Temperatura mínima	15.9
127028	7	Sololá	702	San José Chacayá	5	Chacayá	10	Octubre	2023-10-24T00:00:00	2024-11-06T15:00:00	5	Humedad	94
127029	7	Sololá	702	San José Chacayá	5	Chacayá	10	Octubre	2023-10-24T00:00:00	2024-11-06T15:00:00	6	Velocidad del viento	3.2
127030	7	Sololá	702	San José Chacayá	5	Chacayá	10	Octubre	2023-10-24T00:00:00	2024-11-06T15:00:00	7	Dirección del viento	3.22
127031	7	Sololá	702	San José Chacayá	5	Chacayá	10	Octubre	2023-10-24T00:00:00	2024-11-06T15:00:00	1	Precipitación	4.2
127032	7	Sololá	702	San José Chacayá	5	Chacayá	10	Octubre	2023-10-24T00:00:00	2024-11-06T15:00:00	8	Radiación solar	684
127033	7	Sololá	702	San José Chacayá	5	Chacayá	10	Octubre	2023-10-24T00:00:00	2024-11-06T16:00:00	2	Temperatura media	16.1
127034	7	Sololá	702	San José Chacayá	5	Chacayá	10	Octubre	2023-10-24T00:00:00	2024-11-06T16:00:00	4	Temperatura máxima	16.3
127035	7	Sololá	702	San José Chacayá	5	Chacayá	10	Octubre	2023-10-24T00:00:00	2024-11-06T16:00:00	3	Temperatura mínima	15.8
127036	7	Sololá	702	San José Chacayá	5	Chacayá	10	Octubre	2023-10-24T00:00:00	2024-11-06T16:00:00	5	Humedad	95
127037	7	Sololá	702	San José Chacayá	5	Chacayá	10	Octubre	2023-10-24T00:00:00	2024-11-06T16:00:00	6	Velocidad del viento	0
127038	7	Sololá	702	San José Chacayá	5	Chacayá	10	Octubre	2023-10-24T00:00:00	2024-11-06T16:00:00	7	Dirección del viento	0
127039	7	Sololá	702	San José Chacayá	5	Chacayá	10	Octubre	2023-10-24T00:00:00	2024-11-06T16:00:00	1	Precipitación	0
127040	7	Sololá	702	San José Chacayá	5	Chacayá	10	Octubre	2023-10-24T00:00:00	2024-11-06T16:00:00	8	Radiación solar	501
127041	7	Sololá	702	San José Chacayá	5	Chacayá	10	Octubre	2023-10-24T00:00:00	2024-11-06T17:00:00	2	Temperatura media	16.8
127042	7	Sololá	702	San José Chacayá	5	Chacayá	10	Octubre	2023-10-24T00:00:00	2024-11-06T17:00:00	4	Temperatura máxima	16.8
127043	7	Sololá	702	San José Chacayá	5	Chacayá	10	Octubre	2023-10-24T00:00:00	2024-11-06T17:00:00	3	Temperatura mínima	16.1
127044	7	Sololá	702	San José Chacayá	5	Chacayá	10	Octubre	2023-10-24T00:00:00	2024-11-06T17:00:00	5	Humedad	91
127045	7	Sololá	702	San José Chacayá	5	Chacayá	10	Octubre	2023-10-24T00:00:00	2024-11-06T17:00:00	6	Velocidad del viento	0
127046	7	Sololá	702	San José Chacayá	5	Chacayá	10	Octubre	2023-10-24T00:00:00	2024-11-06T17:00:00	7	Dirección del viento	0
127047	7	Sololá	702	San José Chacayá	5	Chacayá	10	Octubre	2023-10-24T00:00:00	2024-11-06T17:00:00	1	Precipitación	0
127048	7	Sololá	702	San José Chacayá	5	Chacayá	10	Octubre	2023-10-24T00:00:00	2024-11-06T17:00:00	8	Radiación solar	234
127049	7	Sololá	702	San José Chacayá	5	Chacayá	10	Octubre	2023-10-24T00:00:00	2024-11-06T18:00:00	2	Temperatura media	16.7
127050	7	Sololá	702	San José Chacayá	5	Chacayá	10	Octubre	2023-10-24T00:00:00	2024-11-06T18:00:00	4	Temperatura máxima	17.1
127051	7	Sololá	702	San José Chacayá	5	Chacayá	10	Octubre	2023-10-24T00:00:00	2024-11-06T18:00:00	3	Temperatura mínima	16.7
127052	7	Sololá	702	San José Chacayá	5	Chacayá	10	Octubre	2023-10-24T00:00:00	2024-11-06T18:00:00	5	Humedad	92
127053	7	Sololá	702	San José Chacayá	5	Chacayá	10	Octubre	2023-10-24T00:00:00	2024-11-06T18:00:00	6	Velocidad del viento	0
127054	7	Sololá	702	San José Chacayá	5	Chacayá	10	Octubre	2023-10-24T00:00:00	2024-11-06T18:00:00	7	Dirección del viento	0
127055	7	Sololá	702	San José Chacayá	5	Chacayá	10	Octubre	2023-10-24T00:00:00	2024-11-06T18:00:00	1	Precipitación	0
127056	7	Sololá	702	San José Chacayá	5	Chacayá	10	Octubre	2023-10-24T00:00:00	2024-11-06T18:00:00	8	Radiación solar	24
127057	7	Sololá	702	San José Chacayá	5	Chacayá	10	Octubre	2023-10-24T00:00:00	2024-11-06T19:00:00	2	Temperatura media	15.7
127058	7	Sololá	702	San José Chacayá	5	Chacayá	10	Octubre	2023-10-24T00:00:00	2024-11-06T19:00:00	4	Temperatura máxima	16.7
127059	7	Sololá	702	San José Chacayá	5	Chacayá	10	Octubre	2023-10-24T00:00:00	2024-11-06T19:00:00	3	Temperatura mínima	15.6
127060	7	Sololá	702	San José Chacayá	5	Chacayá	10	Octubre	2023-10-24T00:00:00	2024-11-06T19:00:00	5	Humedad	93
127061	7	Sololá	702	San José Chacayá	5	Chacayá	10	Octubre	2023-10-24T00:00:00	2024-11-06T19:00:00	6	Velocidad del viento	0
127062	7	Sololá	702	San José Chacayá	5	Chacayá	10	Octubre	2023-10-24T00:00:00	2024-11-06T19:00:00	7	Dirección del viento	0
127063	7	Sololá	702	San José Chacayá	5	Chacayá	10	Octubre	2023-10-24T00:00:00	2024-11-06T19:00:00	1	Precipitación	0
127064	7	Sololá	702	San José Chacayá	5	Chacayá	10	Octubre	2023-10-24T00:00:00	2024-11-06T19:00:00	8	Radiación solar	0
127065	7	Sololá	702	San José Chacayá	5	Chacayá	10	Octubre	2023-10-24T00:00:00	2024-11-06T20:00:00	2	Temperatura media	14.8
127066	7	Sololá	702	San José Chacayá	5	Chacayá	10	Octubre	2023-10-24T00:00:00	2024-11-06T20:00:00	4	Temperatura máxima	15.6
127067	7	Sololá	702	San José Chacayá	5	Chacayá	10	Octubre	2023-10-24T00:00:00	2024-11-06T20:00:00	3	Temperatura mínima	14.8
127068	7	Sololá	702	San José Chacayá	5	Chacayá	10	Octubre	2023-10-24T00:00:00	2024-11-06T20:00:00	5	Humedad	94
127069	7	Sololá	702	San José Chacayá	5	Chacayá	10	Octubre	2023-10-24T00:00:00	2024-11-06T20:00:00	6	Velocidad del viento	0
127070	7	Sololá	702	San José Chacayá	5	Chacayá	10	Octubre	2023-10-24T00:00:00	2024-11-06T20:00:00	7	Dirección del viento	0
127071	7	Sololá	702	San José Chacayá	5	Chacayá	10	Octubre	2023-10-24T00:00:00	2024-11-06T20:00:00	1	Precipitación	0
127072	7	Sololá	702	San José Chacayá	5	Chacayá	10	Octubre	2023-10-24T00:00:00	2024-11-06T20:00:00	8	Radiación solar	0
127073	7	Sololá	702	San José Chacayá	5	Chacayá	10	Octubre	2023-10-24T00:00:00	2024-11-06T21:00:00	2	Temperatura media	14.4
127074	7	Sololá	702	San José Chacayá	5	Chacayá	10	Octubre	2023-10-24T00:00:00	2024-11-06T21:00:00	4	Temperatura máxima	14.8
127075	7	Sololá	702	San José Chacayá	5	Chacayá	10	Octubre	2023-10-24T00:00:00	2024-11-06T21:00:00	3	Temperatura mínima	14.4
127076	7	Sololá	702	San José Chacayá	5	Chacayá	10	Octubre	2023-10-24T00:00:00	2024-11-06T21:00:00	5	Humedad	94
127077	7	Sololá	702	San José Chacayá	5	Chacayá	10	Octubre	2023-10-24T00:00:00	2024-11-06T21:00:00	6	Velocidad del viento	0
127078	7	Sololá	702	San José Chacayá	5	Chacayá	10	Octubre	2023-10-24T00:00:00	2024-11-06T21:00:00	7	Dirección del viento	0
127079	7	Sololá	702	San José Chacayá	5	Chacayá	10	Octubre	2023-10-24T00:00:00	2024-11-06T21:00:00	1	Precipitación	0.6
127080	7	Sololá	702	San José Chacayá	5	Chacayá	10	Octubre	2023-10-24T00:00:00	2024-11-06T21:00:00	8	Radiación solar	0
127081	7	Sololá	702	San José Chacayá	5	Chacayá	10	Octubre	2023-10-24T00:00:00	2024-11-06T22:00:00	2	Temperatura media	13.7
127082	7	Sololá	702	San José Chacayá	5	Chacayá	10	Octubre	2023-10-24T00:00:00	2024-11-06T22:00:00	4	Temperatura máxima	14.4
127083	7	Sololá	702	San José Chacayá	5	Chacayá	10	Octubre	2023-10-24T00:00:00	2024-11-06T22:00:00	3	Temperatura mínima	13.7
127084	7	Sololá	702	San José Chacayá	5	Chacayá	10	Octubre	2023-10-24T00:00:00	2024-11-06T22:00:00	5	Humedad	94
127085	7	Sololá	702	San José Chacayá	5	Chacayá	10	Octubre	2023-10-24T00:00:00	2024-11-06T22:00:00	6	Velocidad del viento	0
127086	7	Sololá	702	San José Chacayá	5	Chacayá	10	Octubre	2023-10-24T00:00:00	2024-11-06T22:00:00	7	Dirección del viento	0
127087	7	Sololá	702	San José Chacayá	5	Chacayá	10	Octubre	2023-10-24T00:00:00	2024-11-06T22:00:00	1	Precipitación	0
127088	7	Sololá	702	San José Chacayá	5	Chacayá	10	Octubre	2023-10-24T00:00:00	2024-11-06T22:00:00	8	Radiación solar	0
127089	7	Sololá	702	San José Chacayá	5	Chacayá	10	Octubre	2023-10-24T00:00:00	2024-11-06T23:00:00	2	Temperatura media	13.6
127090	7	Sololá	702	San José Chacayá	5	Chacayá	10	Octubre	2023-10-24T00:00:00	2024-11-06T23:00:00	4	Temperatura máxima	13.7
127091	7	Sololá	702	San José Chacayá	5	Chacayá	10	Octubre	2023-10-24T00:00:00	2024-11-06T23:00:00	3	Temperatura mínima	13.5
127092	7	Sololá	702	San José Chacayá	5	Chacayá	10	Octubre	2023-10-24T00:00:00	2024-11-06T23:00:00	5	Humedad	95
127093	7	Sololá	702	San José Chacayá	5	Chacayá	10	Octubre	2023-10-24T00:00:00	2024-11-06T23:00:00	6	Velocidad del viento	0
127094	7	Sololá	702	San José Chacayá	5	Chacayá	10	Octubre	2023-10-24T00:00:00	2024-11-06T23:00:00	7	Dirección del viento	0
127095	7	Sololá	702	San José Chacayá	5	Chacayá	10	Octubre	2023-10-24T00:00:00	2024-11-06T23:00:00	1	Precipitación	0.2
127096	7	Sololá	702	San José Chacayá	5	Chacayá	10	Octubre	2023-10-24T00:00:00	2024-11-06T23:00:00	8	Radiación solar	0
127097	7	Sololá	702	San José Chacayá	5	Chacayá	10	Octubre	2023-10-25T00:00:00	2024-11-06T00:00:00	2	Temperatura media	12.9
127098	7	Sololá	702	San José Chacayá	5	Chacayá	10	Octubre	2023-10-25T00:00:00	2024-11-06T00:00:00	4	Temperatura máxima	13.6
127099	7	Sololá	702	San José Chacayá	5	Chacayá	10	Octubre	2023-10-25T00:00:00	2024-11-06T00:00:00	3	Temperatura mínima	12.9
127100	7	Sololá	702	San José Chacayá	5	Chacayá	10	Octubre	2023-10-25T00:00:00	2024-11-06T00:00:00	5	Humedad	95
127101	7	Sololá	702	San José Chacayá	5	Chacayá	10	Octubre	2023-10-25T00:00:00	2024-11-06T00:00:00	6	Velocidad del viento	0
127102	7	Sololá	702	San José Chacayá	5	Chacayá	10	Octubre	2023-10-25T00:00:00	2024-11-06T00:00:00	7	Dirección del viento	0
127103	7	Sololá	702	San José Chacayá	5	Chacayá	10	Octubre	2023-10-25T00:00:00	2024-11-06T00:00:00	1	Precipitación	0
127104	7	Sololá	702	San José Chacayá	5	Chacayá	10	Octubre	2023-10-25T00:00:00	2024-11-06T00:00:00	8	Radiación solar	0
127105	7	Sololá	702	San José Chacayá	5	Chacayá	10	Octubre	2023-10-25T00:00:00	2024-11-06T01:00:00	2	Temperatura media	12.7
127106	7	Sololá	702	San José Chacayá	5	Chacayá	10	Octubre	2023-10-25T00:00:00	2024-11-06T01:00:00	4	Temperatura máxima	12.9
127107	7	Sololá	702	San José Chacayá	5	Chacayá	10	Octubre	2023-10-25T00:00:00	2024-11-06T01:00:00	3	Temperatura mínima	12.6
127108	7	Sololá	702	San José Chacayá	5	Chacayá	10	Octubre	2023-10-25T00:00:00	2024-11-06T01:00:00	5	Humedad	95
127109	7	Sololá	702	San José Chacayá	5	Chacayá	10	Octubre	2023-10-25T00:00:00	2024-11-06T01:00:00	6	Velocidad del viento	0
127110	7	Sololá	702	San José Chacayá	5	Chacayá	10	Octubre	2023-10-25T00:00:00	2024-11-06T01:00:00	7	Dirección del viento	0
127111	7	Sololá	702	San José Chacayá	5	Chacayá	10	Octubre	2023-10-25T00:00:00	2024-11-06T01:00:00	1	Precipitación	0.2
127112	7	Sololá	702	San José Chacayá	5	Chacayá	10	Octubre	2023-10-25T00:00:00	2024-11-06T01:00:00	8	Radiación solar	0
127113	7	Sololá	702	San José Chacayá	5	Chacayá	10	Octubre	2023-10-25T00:00:00	2024-11-06T02:00:00	2	Temperatura media	12.8
127114	7	Sololá	702	San José Chacayá	5	Chacayá	10	Octubre	2023-10-25T00:00:00	2024-11-06T02:00:00	4	Temperatura máxima	12.9
127115	7	Sololá	702	San José Chacayá	5	Chacayá	10	Octubre	2023-10-25T00:00:00	2024-11-06T02:00:00	3	Temperatura mínima	12.7
127116	7	Sololá	702	San José Chacayá	5	Chacayá	10	Octubre	2023-10-25T00:00:00	2024-11-06T02:00:00	5	Humedad	96
127117	7	Sololá	702	San José Chacayá	5	Chacayá	10	Octubre	2023-10-25T00:00:00	2024-11-06T02:00:00	6	Velocidad del viento	0
127118	7	Sololá	702	San José Chacayá	5	Chacayá	10	Octubre	2023-10-25T00:00:00	2024-11-06T02:00:00	7	Dirección del viento	0
127119	7	Sololá	702	San José Chacayá	5	Chacayá	10	Octubre	2023-10-25T00:00:00	2024-11-06T02:00:00	1	Precipitación	0
127120	7	Sololá	702	San José Chacayá	5	Chacayá	10	Octubre	2023-10-25T00:00:00	2024-11-06T02:00:00	8	Radiación solar	0
127121	7	Sololá	702	San José Chacayá	5	Chacayá	10	Octubre	2023-10-25T00:00:00	2024-11-06T03:00:00	2	Temperatura media	12.5
127122	7	Sololá	702	San José Chacayá	5	Chacayá	10	Octubre	2023-10-25T00:00:00	2024-11-06T03:00:00	4	Temperatura máxima	12.9
127123	7	Sololá	702	San José Chacayá	5	Chacayá	10	Octubre	2023-10-25T00:00:00	2024-11-06T03:00:00	3	Temperatura mínima	12.4
127124	7	Sololá	702	San José Chacayá	5	Chacayá	10	Octubre	2023-10-25T00:00:00	2024-11-06T03:00:00	5	Humedad	95
127125	7	Sololá	702	San José Chacayá	5	Chacayá	10	Octubre	2023-10-25T00:00:00	2024-11-06T03:00:00	6	Velocidad del viento	0
127126	7	Sololá	702	San José Chacayá	5	Chacayá	10	Octubre	2023-10-25T00:00:00	2024-11-06T03:00:00	7	Dirección del viento	0
127127	7	Sololá	702	San José Chacayá	5	Chacayá	10	Octubre	2023-10-25T00:00:00	2024-11-06T03:00:00	1	Precipitación	0
127128	7	Sololá	702	San José Chacayá	5	Chacayá	10	Octubre	2023-10-25T00:00:00	2024-11-06T03:00:00	8	Radiación solar	0
127129	7	Sololá	702	San José Chacayá	5	Chacayá	10	Octubre	2023-10-25T00:00:00	2024-11-06T04:00:00	2	Temperatura media	11.9
127130	7	Sololá	702	San José Chacayá	5	Chacayá	10	Octubre	2023-10-25T00:00:00	2024-11-06T04:00:00	4	Temperatura máxima	12.5
127131	7	Sololá	702	San José Chacayá	5	Chacayá	10	Octubre	2023-10-25T00:00:00	2024-11-06T04:00:00	3	Temperatura mínima	11.9
127132	7	Sololá	702	San José Chacayá	5	Chacayá	10	Octubre	2023-10-25T00:00:00	2024-11-06T04:00:00	5	Humedad	95
127133	7	Sololá	702	San José Chacayá	5	Chacayá	10	Octubre	2023-10-25T00:00:00	2024-11-06T04:00:00	6	Velocidad del viento	0
127134	7	Sololá	702	San José Chacayá	5	Chacayá	10	Octubre	2023-10-25T00:00:00	2024-11-06T04:00:00	7	Dirección del viento	0
127135	7	Sololá	702	San José Chacayá	5	Chacayá	10	Octubre	2023-10-25T00:00:00	2024-11-06T04:00:00	1	Precipitación	0
127136	7	Sololá	702	San José Chacayá	5	Chacayá	10	Octubre	2023-10-25T00:00:00	2024-11-06T04:00:00	8	Radiación solar	0
127137	7	Sololá	702	San José Chacayá	5	Chacayá	10	Octubre	2023-10-25T00:00:00	2024-11-06T05:00:00	2	Temperatura media	11.8
127138	7	Sololá	702	San José Chacayá	5	Chacayá	10	Octubre	2023-10-25T00:00:00	2024-11-06T05:00:00	4	Temperatura máxima	11.9
127139	7	Sololá	702	San José Chacayá	5	Chacayá	10	Octubre	2023-10-25T00:00:00	2024-11-06T05:00:00	3	Temperatura mínima	11.7
127140	7	Sololá	702	San José Chacayá	5	Chacayá	10	Octubre	2023-10-25T00:00:00	2024-11-06T05:00:00	5	Humedad	96
127141	7	Sololá	702	San José Chacayá	5	Chacayá	10	Octubre	2023-10-25T00:00:00	2024-11-06T05:00:00	6	Velocidad del viento	0
127142	7	Sololá	702	San José Chacayá	5	Chacayá	10	Octubre	2023-10-25T00:00:00	2024-11-06T05:00:00	7	Dirección del viento	0
127143	7	Sololá	702	San José Chacayá	5	Chacayá	10	Octubre	2023-10-25T00:00:00	2024-11-06T05:00:00	1	Precipitación	0
127144	7	Sololá	702	San José Chacayá	5	Chacayá	10	Octubre	2023-10-25T00:00:00	2024-11-06T05:00:00	8	Radiación solar	0
127145	7	Sololá	702	San José Chacayá	5	Chacayá	10	Octubre	2023-10-25T00:00:00	2024-11-06T06:00:00	2	Temperatura media	11.6
127146	7	Sololá	702	San José Chacayá	5	Chacayá	10	Octubre	2023-10-25T00:00:00	2024-11-06T06:00:00	4	Temperatura máxima	11.8
127147	7	Sololá	702	San José Chacayá	5	Chacayá	10	Octubre	2023-10-25T00:00:00	2024-11-06T06:00:00	3	Temperatura mínima	11.6
127148	7	Sololá	702	San José Chacayá	5	Chacayá	10	Octubre	2023-10-25T00:00:00	2024-11-06T06:00:00	5	Humedad	95
127149	7	Sololá	702	San José Chacayá	5	Chacayá	10	Octubre	2023-10-25T00:00:00	2024-11-06T06:00:00	6	Velocidad del viento	0
127150	7	Sololá	702	San José Chacayá	5	Chacayá	10	Octubre	2023-10-25T00:00:00	2024-11-06T06:00:00	7	Dirección del viento	0
127151	7	Sololá	702	San José Chacayá	5	Chacayá	10	Octubre	2023-10-25T00:00:00	2024-11-06T06:00:00	1	Precipitación	0
127152	7	Sololá	702	San José Chacayá	5	Chacayá	10	Octubre	2023-10-25T00:00:00	2024-11-06T06:00:00	8	Radiación solar	0
127153	7	Sololá	702	San José Chacayá	5	Chacayá	10	Octubre	2023-10-25T00:00:00	2024-11-06T07:00:00	2	Temperatura media	11.6
127154	7	Sololá	702	San José Chacayá	5	Chacayá	10	Octubre	2023-10-25T00:00:00	2024-11-06T07:00:00	4	Temperatura máxima	11.7
127155	7	Sololá	702	San José Chacayá	5	Chacayá	10	Octubre	2023-10-25T00:00:00	2024-11-06T07:00:00	3	Temperatura mínima	11.5
127156	7	Sololá	702	San José Chacayá	5	Chacayá	10	Octubre	2023-10-25T00:00:00	2024-11-06T07:00:00	5	Humedad	95
127157	7	Sololá	702	San José Chacayá	5	Chacayá	10	Octubre	2023-10-25T00:00:00	2024-11-06T07:00:00	6	Velocidad del viento	0
127158	7	Sololá	702	San José Chacayá	5	Chacayá	10	Octubre	2023-10-25T00:00:00	2024-11-06T07:00:00	7	Dirección del viento	0
127159	7	Sololá	702	San José Chacayá	5	Chacayá	10	Octubre	2023-10-25T00:00:00	2024-11-06T07:00:00	1	Precipitación	0
127160	7	Sololá	702	San José Chacayá	5	Chacayá	10	Octubre	2023-10-25T00:00:00	2024-11-06T07:00:00	8	Radiación solar	72
127161	7	Sololá	702	San José Chacayá	5	Chacayá	10	Octubre	2023-10-25T00:00:00	2024-11-06T08:00:00	2	Temperatura media	12.5
127162	7	Sololá	702	San José Chacayá	5	Chacayá	10	Octubre	2023-10-25T00:00:00	2024-11-06T08:00:00	4	Temperatura máxima	12.5
127163	7	Sololá	702	San José Chacayá	5	Chacayá	10	Octubre	2023-10-25T00:00:00	2024-11-06T08:00:00	3	Temperatura mínima	11.6
127164	7	Sololá	702	San José Chacayá	5	Chacayá	10	Octubre	2023-10-25T00:00:00	2024-11-06T08:00:00	5	Humedad	97
127165	7	Sololá	702	San José Chacayá	5	Chacayá	10	Octubre	2023-10-25T00:00:00	2024-11-06T08:00:00	6	Velocidad del viento	0
127166	7	Sololá	702	San José Chacayá	5	Chacayá	10	Octubre	2023-10-25T00:00:00	2024-11-06T08:00:00	7	Dirección del viento	0
127167	7	Sololá	702	San José Chacayá	5	Chacayá	10	Octubre	2023-10-25T00:00:00	2024-11-06T08:00:00	1	Precipitación	0
127168	7	Sololá	702	San José Chacayá	5	Chacayá	10	Octubre	2023-10-25T00:00:00	2024-11-06T08:00:00	8	Radiación solar	68
127169	7	Sololá	702	San José Chacayá	5	Chacayá	10	Octubre	2023-10-25T00:00:00	2024-11-06T09:00:00	2	Temperatura media	17.4
127170	7	Sololá	702	San José Chacayá	5	Chacayá	10	Octubre	2023-10-25T00:00:00	2024-11-06T09:00:00	4	Temperatura máxima	17.4
127171	7	Sololá	702	San José Chacayá	5	Chacayá	10	Octubre	2023-10-25T00:00:00	2024-11-06T09:00:00	3	Temperatura mínima	12.5
127172	7	Sololá	702	San José Chacayá	5	Chacayá	10	Octubre	2023-10-25T00:00:00	2024-11-06T09:00:00	5	Humedad	81
127173	7	Sololá	702	San José Chacayá	5	Chacayá	10	Octubre	2023-10-25T00:00:00	2024-11-06T09:00:00	6	Velocidad del viento	1.6
127174	7	Sololá	702	San José Chacayá	5	Chacayá	10	Octubre	2023-10-25T00:00:00	2024-11-06T09:00:00	7	Dirección del viento	1.61
127175	7	Sololá	702	San José Chacayá	5	Chacayá	10	Octubre	2023-10-25T00:00:00	2024-11-06T09:00:00	1	Precipitación	0
127176	7	Sololá	702	San José Chacayá	5	Chacayá	10	Octubre	2023-10-25T00:00:00	2024-11-06T09:00:00	8	Radiación solar	271
127177	7	Sololá	702	San José Chacayá	5	Chacayá	10	Octubre	2023-10-25T00:00:00	2024-11-06T10:00:00	2	Temperatura media	18.8
127178	7	Sololá	702	San José Chacayá	5	Chacayá	10	Octubre	2023-10-25T00:00:00	2024-11-06T10:00:00	4	Temperatura máxima	18.8
127179	7	Sololá	702	San José Chacayá	5	Chacayá	10	Octubre	2023-10-25T00:00:00	2024-11-06T10:00:00	3	Temperatura mínima	17.4
127180	7	Sololá	702	San José Chacayá	5	Chacayá	10	Octubre	2023-10-25T00:00:00	2024-11-06T10:00:00	5	Humedad	79
127181	7	Sololá	702	San José Chacayá	5	Chacayá	10	Octubre	2023-10-25T00:00:00	2024-11-06T10:00:00	6	Velocidad del viento	3.2
127182	7	Sololá	702	San José Chacayá	5	Chacayá	10	Octubre	2023-10-25T00:00:00	2024-11-06T10:00:00	7	Dirección del viento	3.22
127183	7	Sololá	702	San José Chacayá	5	Chacayá	10	Octubre	2023-10-25T00:00:00	2024-11-06T10:00:00	1	Precipitación	0
127184	7	Sololá	702	San José Chacayá	5	Chacayá	10	Octubre	2023-10-25T00:00:00	2024-11-06T10:00:00	8	Radiación solar	532
127185	7	Sololá	702	San José Chacayá	5	Chacayá	10	Octubre	2023-10-25T00:00:00	2024-11-06T11:00:00	2	Temperatura media	20.3
127186	7	Sololá	702	San José Chacayá	5	Chacayá	10	Octubre	2023-10-25T00:00:00	2024-11-06T11:00:00	4	Temperatura máxima	20.4
127187	7	Sololá	702	San José Chacayá	5	Chacayá	10	Octubre	2023-10-25T00:00:00	2024-11-06T11:00:00	3	Temperatura mínima	18.4
127188	7	Sololá	702	San José Chacayá	5	Chacayá	10	Octubre	2023-10-25T00:00:00	2024-11-06T11:00:00	5	Humedad	69
127189	7	Sololá	702	San José Chacayá	5	Chacayá	10	Octubre	2023-10-25T00:00:00	2024-11-06T11:00:00	6	Velocidad del viento	4.8
127190	7	Sololá	702	San José Chacayá	5	Chacayá	10	Octubre	2023-10-25T00:00:00	2024-11-06T11:00:00	7	Dirección del viento	4.83
127191	7	Sololá	702	San José Chacayá	5	Chacayá	10	Octubre	2023-10-25T00:00:00	2024-11-06T11:00:00	1	Precipitación	0
127192	7	Sololá	702	San José Chacayá	5	Chacayá	10	Octubre	2023-10-25T00:00:00	2024-11-06T11:00:00	8	Radiación solar	668
127193	7	Sololá	702	San José Chacayá	5	Chacayá	10	Octubre	2023-10-25T00:00:00	2024-11-06T12:00:00	2	Temperatura media	18.8
127194	7	Sololá	702	San José Chacayá	5	Chacayá	10	Octubre	2023-10-25T00:00:00	2024-11-06T12:00:00	4	Temperatura máxima	20.3
127195	7	Sololá	702	San José Chacayá	5	Chacayá	10	Octubre	2023-10-25T00:00:00	2024-11-06T12:00:00	3	Temperatura mínima	18.8
127196	7	Sololá	702	San José Chacayá	5	Chacayá	10	Octubre	2023-10-25T00:00:00	2024-11-06T12:00:00	5	Humedad	74
127197	7	Sololá	702	San José Chacayá	5	Chacayá	10	Octubre	2023-10-25T00:00:00	2024-11-06T12:00:00	6	Velocidad del viento	3.2
127198	7	Sololá	702	San José Chacayá	5	Chacayá	10	Octubre	2023-10-25T00:00:00	2024-11-06T12:00:00	7	Dirección del viento	3.22
127199	7	Sololá	702	San José Chacayá	5	Chacayá	10	Octubre	2023-10-25T00:00:00	2024-11-06T12:00:00	1	Precipitación	0
127200	7	Sololá	702	San José Chacayá	5	Chacayá	10	Octubre	2023-10-25T00:00:00	2024-11-06T12:00:00	8	Radiación solar	883
127201	7	Sololá	702	San José Chacayá	5	Chacayá	10	Octubre	2023-10-25T00:00:00	2024-11-06T13:00:00	2	Temperatura media	21.4
127202	7	Sololá	702	San José Chacayá	5	Chacayá	10	Octubre	2023-10-25T00:00:00	2024-11-06T13:00:00	4	Temperatura máxima	21.4
127203	7	Sololá	702	San José Chacayá	5	Chacayá	10	Octubre	2023-10-25T00:00:00	2024-11-06T13:00:00	3	Temperatura mínima	18.6
127204	7	Sololá	702	San José Chacayá	5	Chacayá	10	Octubre	2023-10-25T00:00:00	2024-11-06T13:00:00	5	Humedad	69
127205	7	Sololá	702	San José Chacayá	5	Chacayá	10	Octubre	2023-10-25T00:00:00	2024-11-06T13:00:00	6	Velocidad del viento	3.2
127206	7	Sololá	702	San José Chacayá	5	Chacayá	10	Octubre	2023-10-25T00:00:00	2024-11-06T13:00:00	7	Dirección del viento	3.22
127207	7	Sololá	702	San José Chacayá	5	Chacayá	10	Octubre	2023-10-25T00:00:00	2024-11-06T13:00:00	1	Precipitación	0
127208	7	Sololá	702	San José Chacayá	5	Chacayá	10	Octubre	2023-10-25T00:00:00	2024-11-06T13:00:00	8	Radiación solar	911
127209	7	Sololá	702	San José Chacayá	5	Chacayá	10	Octubre	2023-10-25T00:00:00	2024-11-06T14:00:00	2	Temperatura media	20.9
127210	7	Sololá	702	San José Chacayá	5	Chacayá	10	Octubre	2023-10-25T00:00:00	2024-11-06T14:00:00	4	Temperatura máxima	21.4
127211	7	Sololá	702	San José Chacayá	5	Chacayá	10	Octubre	2023-10-25T00:00:00	2024-11-06T14:00:00	3	Temperatura mínima	20.1
127212	7	Sololá	702	San José Chacayá	5	Chacayá	10	Octubre	2023-10-25T00:00:00	2024-11-06T14:00:00	5	Humedad	68
127213	7	Sololá	702	San José Chacayá	5	Chacayá	10	Octubre	2023-10-25T00:00:00	2024-11-06T14:00:00	6	Velocidad del viento	1.6
127214	7	Sololá	702	San José Chacayá	5	Chacayá	10	Octubre	2023-10-25T00:00:00	2024-11-06T14:00:00	7	Dirección del viento	1.61
127215	7	Sololá	702	San José Chacayá	5	Chacayá	10	Octubre	2023-10-25T00:00:00	2024-11-06T14:00:00	1	Precipitación	0
127216	7	Sololá	702	San José Chacayá	5	Chacayá	10	Octubre	2023-10-25T00:00:00	2024-11-06T14:00:00	8	Radiación solar	425
127217	7	Sololá	702	San José Chacayá	5	Chacayá	10	Octubre	2023-10-25T00:00:00	2024-11-06T15:00:00	2	Temperatura media	21.6
127218	7	Sololá	702	San José Chacayá	5	Chacayá	10	Octubre	2023-10-25T00:00:00	2024-11-06T15:00:00	4	Temperatura máxima	21.6
127219	7	Sololá	702	San José Chacayá	5	Chacayá	10	Octubre	2023-10-25T00:00:00	2024-11-06T15:00:00	3	Temperatura mínima	20.3
127220	7	Sololá	702	San José Chacayá	5	Chacayá	10	Octubre	2023-10-25T00:00:00	2024-11-06T15:00:00	5	Humedad	67
127221	7	Sololá	702	San José Chacayá	5	Chacayá	10	Octubre	2023-10-25T00:00:00	2024-11-06T15:00:00	6	Velocidad del viento	3.2
127222	7	Sololá	702	San José Chacayá	5	Chacayá	10	Octubre	2023-10-25T00:00:00	2024-11-06T15:00:00	7	Dirección del viento	3.22
127223	7	Sololá	702	San José Chacayá	5	Chacayá	10	Octubre	2023-10-25T00:00:00	2024-11-06T15:00:00	1	Precipitación	0
127224	7	Sololá	702	San José Chacayá	5	Chacayá	10	Octubre	2023-10-25T00:00:00	2024-11-06T15:00:00	8	Radiación solar	107
127225	7	Sololá	702	San José Chacayá	5	Chacayá	10	Octubre	2023-10-25T00:00:00	2024-11-06T16:00:00	2	Temperatura media	18.6
127226	7	Sololá	702	San José Chacayá	5	Chacayá	10	Octubre	2023-10-25T00:00:00	2024-11-06T16:00:00	4	Temperatura máxima	21.6
127227	7	Sololá	702	San José Chacayá	5	Chacayá	10	Octubre	2023-10-25T00:00:00	2024-11-06T16:00:00	3	Temperatura mínima	18.5
127228	7	Sololá	702	San José Chacayá	5	Chacayá	10	Octubre	2023-10-25T00:00:00	2024-11-06T16:00:00	5	Humedad	80
127229	7	Sololá	702	San José Chacayá	5	Chacayá	10	Octubre	2023-10-25T00:00:00	2024-11-06T16:00:00	6	Velocidad del viento	1.6
127230	7	Sololá	702	San José Chacayá	5	Chacayá	10	Octubre	2023-10-25T00:00:00	2024-11-06T16:00:00	7	Dirección del viento	1.61
127231	7	Sololá	702	San José Chacayá	5	Chacayá	10	Octubre	2023-10-25T00:00:00	2024-11-06T16:00:00	1	Precipitación	0
127232	7	Sololá	702	San José Chacayá	5	Chacayá	10	Octubre	2023-10-25T00:00:00	2024-11-06T16:00:00	8	Radiación solar	106
127233	7	Sololá	702	San José Chacayá	5	Chacayá	10	Octubre	2023-10-25T00:00:00	2024-11-06T17:00:00	2	Temperatura media	18.8
127234	7	Sololá	702	San José Chacayá	5	Chacayá	10	Octubre	2023-10-25T00:00:00	2024-11-06T17:00:00	4	Temperatura máxima	19.2
127235	7	Sololá	702	San José Chacayá	5	Chacayá	10	Octubre	2023-10-25T00:00:00	2024-11-06T17:00:00	3	Temperatura mínima	18.2
127236	7	Sololá	702	San José Chacayá	5	Chacayá	10	Octubre	2023-10-25T00:00:00	2024-11-06T17:00:00	5	Humedad	82
127237	7	Sololá	702	San José Chacayá	5	Chacayá	10	Octubre	2023-10-25T00:00:00	2024-11-06T17:00:00	6	Velocidad del viento	1.6
127238	7	Sololá	702	San José Chacayá	5	Chacayá	10	Octubre	2023-10-25T00:00:00	2024-11-06T17:00:00	7	Dirección del viento	1.61
127239	7	Sololá	702	San José Chacayá	5	Chacayá	10	Octubre	2023-10-25T00:00:00	2024-11-06T17:00:00	1	Precipitación	0
127240	7	Sololá	702	San José Chacayá	5	Chacayá	10	Octubre	2023-10-25T00:00:00	2024-11-06T17:00:00	8	Radiación solar	6
127241	7	Sololá	702	San José Chacayá	5	Chacayá	10	Octubre	2023-10-25T00:00:00	2024-11-06T18:00:00	2	Temperatura media	17.4
127242	7	Sololá	702	San José Chacayá	5	Chacayá	10	Octubre	2023-10-25T00:00:00	2024-11-06T18:00:00	4	Temperatura máxima	18.8
127243	7	Sololá	702	San José Chacayá	5	Chacayá	10	Octubre	2023-10-25T00:00:00	2024-11-06T18:00:00	3	Temperatura mínima	17.4
127244	7	Sololá	702	San José Chacayá	5	Chacayá	10	Octubre	2023-10-25T00:00:00	2024-11-06T18:00:00	5	Humedad	81
127245	7	Sololá	702	San José Chacayá	5	Chacayá	10	Octubre	2023-10-25T00:00:00	2024-11-06T18:00:00	6	Velocidad del viento	1.6
127246	7	Sololá	702	San José Chacayá	5	Chacayá	10	Octubre	2023-10-25T00:00:00	2024-11-06T18:00:00	7	Dirección del viento	1.61
127247	7	Sololá	702	San José Chacayá	5	Chacayá	10	Octubre	2023-10-25T00:00:00	2024-11-06T18:00:00	1	Precipitación	0
127248	7	Sololá	702	San José Chacayá	5	Chacayá	10	Octubre	2023-10-25T00:00:00	2024-11-06T18:00:00	8	Radiación solar	1
127249	7	Sololá	702	San José Chacayá	5	Chacayá	10	Octubre	2023-10-25T00:00:00	2024-11-06T19:00:00	2	Temperatura media	15.8
127250	7	Sololá	702	San José Chacayá	5	Chacayá	10	Octubre	2023-10-25T00:00:00	2024-11-06T19:00:00	4	Temperatura máxima	17.5
127251	7	Sololá	702	San José Chacayá	5	Chacayá	10	Octubre	2023-10-25T00:00:00	2024-11-06T19:00:00	3	Temperatura mínima	15.8
127252	7	Sololá	702	San José Chacayá	5	Chacayá	10	Octubre	2023-10-25T00:00:00	2024-11-06T19:00:00	5	Humedad	87
127253	7	Sololá	702	San José Chacayá	5	Chacayá	10	Octubre	2023-10-25T00:00:00	2024-11-06T19:00:00	6	Velocidad del viento	0
127254	7	Sololá	702	San José Chacayá	5	Chacayá	10	Octubre	2023-10-25T00:00:00	2024-11-06T19:00:00	7	Dirección del viento	0
127255	7	Sololá	702	San José Chacayá	5	Chacayá	10	Octubre	2023-10-25T00:00:00	2024-11-06T19:00:00	1	Precipitación	0
127256	7	Sololá	702	San José Chacayá	5	Chacayá	10	Octubre	2023-10-25T00:00:00	2024-11-06T19:00:00	8	Radiación solar	0
127257	7	Sololá	702	San José Chacayá	5	Chacayá	10	Octubre	2023-10-25T00:00:00	2024-11-06T20:00:00	2	Temperatura media	15.3
127258	7	Sololá	702	San José Chacayá	5	Chacayá	10	Octubre	2023-10-25T00:00:00	2024-11-06T20:00:00	4	Temperatura máxima	15.8
127259	7	Sololá	702	San José Chacayá	5	Chacayá	10	Octubre	2023-10-25T00:00:00	2024-11-06T20:00:00	3	Temperatura mínima	14.7
127260	7	Sololá	702	San José Chacayá	5	Chacayá	10	Octubre	2023-10-25T00:00:00	2024-11-06T20:00:00	5	Humedad	87
127261	7	Sololá	702	San José Chacayá	5	Chacayá	10	Octubre	2023-10-25T00:00:00	2024-11-06T20:00:00	6	Velocidad del viento	1.6
127262	7	Sololá	702	San José Chacayá	5	Chacayá	10	Octubre	2023-10-25T00:00:00	2024-11-06T20:00:00	7	Dirección del viento	1.61
127263	7	Sololá	702	San José Chacayá	5	Chacayá	10	Octubre	2023-10-25T00:00:00	2024-11-06T20:00:00	1	Precipitación	0
127264	7	Sololá	702	San José Chacayá	5	Chacayá	10	Octubre	2023-10-25T00:00:00	2024-11-06T20:00:00	8	Radiación solar	0
127265	7	Sololá	702	San José Chacayá	5	Chacayá	10	Octubre	2023-10-25T00:00:00	2024-11-06T21:00:00	2	Temperatura media	15.9
127266	7	Sololá	702	San José Chacayá	5	Chacayá	10	Octubre	2023-10-25T00:00:00	2024-11-06T21:00:00	4	Temperatura máxima	16.1
127267	7	Sololá	702	San José Chacayá	5	Chacayá	10	Octubre	2023-10-25T00:00:00	2024-11-06T21:00:00	3	Temperatura mínima	15.2
127268	7	Sololá	702	San José Chacayá	5	Chacayá	10	Octubre	2023-10-25T00:00:00	2024-11-06T21:00:00	5	Humedad	86
127269	7	Sololá	702	San José Chacayá	5	Chacayá	10	Octubre	2023-10-25T00:00:00	2024-11-06T21:00:00	6	Velocidad del viento	1.6
127270	7	Sololá	702	San José Chacayá	5	Chacayá	10	Octubre	2023-10-25T00:00:00	2024-11-06T21:00:00	7	Dirección del viento	1.61
127271	7	Sololá	702	San José Chacayá	5	Chacayá	10	Octubre	2023-10-25T00:00:00	2024-11-06T21:00:00	1	Precipitación	0
127272	7	Sololá	702	San José Chacayá	5	Chacayá	10	Octubre	2023-10-25T00:00:00	2024-11-06T21:00:00	8	Radiación solar	0
127273	7	Sololá	702	San José Chacayá	5	Chacayá	10	Octubre	2023-10-25T00:00:00	2024-11-06T22:00:00	2	Temperatura media	15.3
127274	7	Sololá	702	San José Chacayá	5	Chacayá	10	Octubre	2023-10-25T00:00:00	2024-11-06T22:00:00	4	Temperatura máxima	15.9
127275	7	Sololá	702	San José Chacayá	5	Chacayá	10	Octubre	2023-10-25T00:00:00	2024-11-06T22:00:00	3	Temperatura mínima	15.3
127276	7	Sololá	702	San José Chacayá	5	Chacayá	10	Octubre	2023-10-25T00:00:00	2024-11-06T22:00:00	5	Humedad	89
127277	7	Sololá	702	San José Chacayá	5	Chacayá	10	Octubre	2023-10-25T00:00:00	2024-11-06T22:00:00	6	Velocidad del viento	0
127278	7	Sololá	702	San José Chacayá	5	Chacayá	10	Octubre	2023-10-25T00:00:00	2024-11-06T22:00:00	7	Dirección del viento	0
127279	7	Sololá	702	San José Chacayá	5	Chacayá	10	Octubre	2023-10-25T00:00:00	2024-11-06T22:00:00	1	Precipitación	0
127280	7	Sololá	702	San José Chacayá	5	Chacayá	10	Octubre	2023-10-25T00:00:00	2024-11-06T22:00:00	8	Radiación solar	0
127281	7	Sololá	702	San José Chacayá	5	Chacayá	10	Octubre	2023-10-25T00:00:00	2024-11-06T23:00:00	2	Temperatura media	14.3
127282	7	Sololá	702	San José Chacayá	5	Chacayá	10	Octubre	2023-10-25T00:00:00	2024-11-06T23:00:00	4	Temperatura máxima	15.4
127283	7	Sololá	702	San José Chacayá	5	Chacayá	10	Octubre	2023-10-25T00:00:00	2024-11-06T23:00:00	3	Temperatura mínima	14.3
127284	7	Sololá	702	San José Chacayá	5	Chacayá	10	Octubre	2023-10-25T00:00:00	2024-11-06T23:00:00	5	Humedad	91
127285	7	Sololá	702	San José Chacayá	5	Chacayá	10	Octubre	2023-10-25T00:00:00	2024-11-06T23:00:00	6	Velocidad del viento	0
127286	7	Sololá	702	San José Chacayá	5	Chacayá	10	Octubre	2023-10-25T00:00:00	2024-11-06T23:00:00	7	Dirección del viento	0
127287	7	Sololá	702	San José Chacayá	5	Chacayá	10	Octubre	2023-10-25T00:00:00	2024-11-06T23:00:00	1	Precipitación	0
127288	7	Sololá	702	San José Chacayá	5	Chacayá	10	Octubre	2023-10-25T00:00:00	2024-11-06T23:00:00	8	Radiación solar	0
127289	7	Sololá	702	San José Chacayá	5	Chacayá	10	Octubre	2023-10-26T00:00:00	2024-11-06T00:00:00	2	Temperatura media	14.3
127290	7	Sololá	702	San José Chacayá	5	Chacayá	10	Octubre	2023-10-26T00:00:00	2024-11-06T00:00:00	4	Temperatura máxima	14.6
127291	7	Sololá	702	San José Chacayá	5	Chacayá	10	Octubre	2023-10-26T00:00:00	2024-11-06T00:00:00	3	Temperatura mínima	14.2
127292	7	Sololá	702	San José Chacayá	5	Chacayá	10	Octubre	2023-10-26T00:00:00	2024-11-06T00:00:00	5	Humedad	89
127293	7	Sololá	702	San José Chacayá	5	Chacayá	10	Octubre	2023-10-26T00:00:00	2024-11-06T00:00:00	6	Velocidad del viento	0
127294	7	Sololá	702	San José Chacayá	5	Chacayá	10	Octubre	2023-10-26T00:00:00	2024-11-06T00:00:00	7	Dirección del viento	0
127295	7	Sololá	702	San José Chacayá	5	Chacayá	10	Octubre	2023-10-26T00:00:00	2024-11-06T00:00:00	1	Precipitación	0
127296	7	Sololá	702	San José Chacayá	5	Chacayá	10	Octubre	2023-10-26T00:00:00	2024-11-06T00:00:00	8	Radiación solar	0
127297	7	Sololá	702	San José Chacayá	5	Chacayá	10	Octubre	2023-10-26T00:00:00	2024-11-06T01:00:00	2	Temperatura media	13
127298	7	Sololá	702	San José Chacayá	5	Chacayá	10	Octubre	2023-10-26T00:00:00	2024-11-06T01:00:00	4	Temperatura máxima	14.3
127299	7	Sololá	702	San José Chacayá	5	Chacayá	10	Octubre	2023-10-26T00:00:00	2024-11-06T01:00:00	3	Temperatura mínima	13
127300	7	Sololá	702	San José Chacayá	5	Chacayá	10	Octubre	2023-10-26T00:00:00	2024-11-06T01:00:00	5	Humedad	92
127301	7	Sololá	702	San José Chacayá	5	Chacayá	10	Octubre	2023-10-26T00:00:00	2024-11-06T01:00:00	6	Velocidad del viento	0
127302	7	Sololá	702	San José Chacayá	5	Chacayá	10	Octubre	2023-10-26T00:00:00	2024-11-06T01:00:00	7	Dirección del viento	0
127303	7	Sololá	702	San José Chacayá	5	Chacayá	10	Octubre	2023-10-26T00:00:00	2024-11-06T01:00:00	1	Precipitación	0
127304	7	Sololá	702	San José Chacayá	5	Chacayá	10	Octubre	2023-10-26T00:00:00	2024-11-06T01:00:00	8	Radiación solar	0
127305	7	Sololá	702	San José Chacayá	5	Chacayá	10	Octubre	2023-10-26T00:00:00	2024-11-06T02:00:00	2	Temperatura media	12.3
127306	7	Sololá	702	San José Chacayá	5	Chacayá	10	Octubre	2023-10-26T00:00:00	2024-11-06T02:00:00	4	Temperatura máxima	13
127307	7	Sololá	702	San José Chacayá	5	Chacayá	10	Octubre	2023-10-26T00:00:00	2024-11-06T02:00:00	3	Temperatura mínima	12.3
127308	7	Sololá	702	San José Chacayá	5	Chacayá	10	Octubre	2023-10-26T00:00:00	2024-11-06T02:00:00	5	Humedad	94
127309	7	Sololá	702	San José Chacayá	5	Chacayá	10	Octubre	2023-10-26T00:00:00	2024-11-06T02:00:00	6	Velocidad del viento	0
127310	7	Sololá	702	San José Chacayá	5	Chacayá	10	Octubre	2023-10-26T00:00:00	2024-11-06T02:00:00	7	Dirección del viento	0
127311	7	Sololá	702	San José Chacayá	5	Chacayá	10	Octubre	2023-10-26T00:00:00	2024-11-06T02:00:00	1	Precipitación	0
127312	7	Sololá	702	San José Chacayá	5	Chacayá	10	Octubre	2023-10-26T00:00:00	2024-11-06T02:00:00	8	Radiación solar	0
127313	7	Sololá	702	San José Chacayá	5	Chacayá	10	Octubre	2023-10-26T00:00:00	2024-11-06T03:00:00	2	Temperatura media	12.7
127314	7	Sololá	702	San José Chacayá	5	Chacayá	10	Octubre	2023-10-26T00:00:00	2024-11-06T03:00:00	4	Temperatura máxima	12.7
127315	7	Sololá	702	San José Chacayá	5	Chacayá	10	Octubre	2023-10-26T00:00:00	2024-11-06T03:00:00	3	Temperatura mínima	12.3
127316	7	Sololá	702	San José Chacayá	5	Chacayá	10	Octubre	2023-10-26T00:00:00	2024-11-06T03:00:00	5	Humedad	94
127317	7	Sololá	702	San José Chacayá	5	Chacayá	10	Octubre	2023-10-26T00:00:00	2024-11-06T03:00:00	6	Velocidad del viento	0
127318	7	Sololá	702	San José Chacayá	5	Chacayá	10	Octubre	2023-10-26T00:00:00	2024-11-06T03:00:00	7	Dirección del viento	0
127319	7	Sololá	702	San José Chacayá	5	Chacayá	10	Octubre	2023-10-26T00:00:00	2024-11-06T03:00:00	1	Precipitación	0
127320	7	Sololá	702	San José Chacayá	5	Chacayá	10	Octubre	2023-10-26T00:00:00	2024-11-06T03:00:00	8	Radiación solar	0
127321	7	Sololá	702	San José Chacayá	5	Chacayá	10	Octubre	2023-10-26T00:00:00	2024-11-06T04:00:00	2	Temperatura media	12.3
127322	7	Sololá	702	San José Chacayá	5	Chacayá	10	Octubre	2023-10-26T00:00:00	2024-11-06T04:00:00	4	Temperatura máxima	12.8
127323	7	Sololá	702	San José Chacayá	5	Chacayá	10	Octubre	2023-10-26T00:00:00	2024-11-06T04:00:00	3	Temperatura mínima	12.3
127324	7	Sololá	702	San José Chacayá	5	Chacayá	10	Octubre	2023-10-26T00:00:00	2024-11-06T04:00:00	5	Humedad	93
127325	7	Sololá	702	San José Chacayá	5	Chacayá	10	Octubre	2023-10-26T00:00:00	2024-11-06T04:00:00	6	Velocidad del viento	0
127326	7	Sololá	702	San José Chacayá	5	Chacayá	10	Octubre	2023-10-26T00:00:00	2024-11-06T04:00:00	7	Dirección del viento	0
127327	7	Sololá	702	San José Chacayá	5	Chacayá	10	Octubre	2023-10-26T00:00:00	2024-11-06T04:00:00	1	Precipitación	0
127328	7	Sololá	702	San José Chacayá	5	Chacayá	10	Octubre	2023-10-26T00:00:00	2024-11-06T04:00:00	8	Radiación solar	0
127329	7	Sololá	702	San José Chacayá	5	Chacayá	10	Octubre	2023-10-26T00:00:00	2024-11-06T05:00:00	2	Temperatura media	11.6
127330	7	Sololá	702	San José Chacayá	5	Chacayá	10	Octubre	2023-10-26T00:00:00	2024-11-06T05:00:00	4	Temperatura máxima	12.3
127331	7	Sololá	702	San José Chacayá	5	Chacayá	10	Octubre	2023-10-26T00:00:00	2024-11-06T05:00:00	3	Temperatura mínima	11.6
127332	7	Sololá	702	San José Chacayá	5	Chacayá	10	Octubre	2023-10-26T00:00:00	2024-11-06T05:00:00	5	Humedad	93
127333	7	Sololá	702	San José Chacayá	5	Chacayá	10	Octubre	2023-10-26T00:00:00	2024-11-06T05:00:00	6	Velocidad del viento	0
127334	7	Sololá	702	San José Chacayá	5	Chacayá	10	Octubre	2023-10-26T00:00:00	2024-11-06T05:00:00	7	Dirección del viento	0
127335	7	Sololá	702	San José Chacayá	5	Chacayá	10	Octubre	2023-10-26T00:00:00	2024-11-06T05:00:00	1	Precipitación	0
127336	7	Sololá	702	San José Chacayá	5	Chacayá	10	Octubre	2023-10-26T00:00:00	2024-11-06T05:00:00	8	Radiación solar	0
127337	7	Sololá	702	San José Chacayá	5	Chacayá	10	Octubre	2023-10-26T00:00:00	2024-11-06T06:00:00	2	Temperatura media	11.4
127338	7	Sololá	702	San José Chacayá	5	Chacayá	10	Octubre	2023-10-26T00:00:00	2024-11-06T06:00:00	4	Temperatura máxima	11.6
127339	7	Sololá	702	San José Chacayá	5	Chacayá	10	Octubre	2023-10-26T00:00:00	2024-11-06T06:00:00	3	Temperatura mínima	11.2
127340	7	Sololá	702	San José Chacayá	5	Chacayá	10	Octubre	2023-10-26T00:00:00	2024-11-06T06:00:00	5	Humedad	93
127341	7	Sololá	702	San José Chacayá	5	Chacayá	10	Octubre	2023-10-26T00:00:00	2024-11-06T06:00:00	6	Velocidad del viento	0
127342	7	Sololá	702	San José Chacayá	5	Chacayá	10	Octubre	2023-10-26T00:00:00	2024-11-06T06:00:00	7	Dirección del viento	0
127343	7	Sololá	702	San José Chacayá	5	Chacayá	10	Octubre	2023-10-26T00:00:00	2024-11-06T06:00:00	1	Precipitación	0
127344	7	Sololá	702	San José Chacayá	5	Chacayá	10	Octubre	2023-10-26T00:00:00	2024-11-06T06:00:00	8	Radiación solar	0
127345	7	Sololá	702	San José Chacayá	5	Chacayá	10	Octubre	2023-10-26T00:00:00	2024-11-06T07:00:00	2	Temperatura media	11.6
127346	7	Sololá	702	San José Chacayá	5	Chacayá	10	Octubre	2023-10-26T00:00:00	2024-11-06T07:00:00	4	Temperatura máxima	11.7
127347	7	Sololá	702	San José Chacayá	5	Chacayá	10	Octubre	2023-10-26T00:00:00	2024-11-06T07:00:00	3	Temperatura mínima	11.2
127348	7	Sololá	702	San José Chacayá	5	Chacayá	10	Octubre	2023-10-26T00:00:00	2024-11-06T07:00:00	5	Humedad	93
127349	7	Sololá	702	San José Chacayá	5	Chacayá	10	Octubre	2023-10-26T00:00:00	2024-11-06T07:00:00	6	Velocidad del viento	0
127350	7	Sololá	702	San José Chacayá	5	Chacayá	10	Octubre	2023-10-26T00:00:00	2024-11-06T07:00:00	7	Dirección del viento	0
127351	7	Sololá	702	San José Chacayá	5	Chacayá	10	Octubre	2023-10-26T00:00:00	2024-11-06T07:00:00	1	Precipitación	0
127352	7	Sololá	702	San José Chacayá	5	Chacayá	10	Octubre	2023-10-26T00:00:00	2024-11-06T07:00:00	8	Radiación solar	58
127353	7	Sololá	702	San José Chacayá	5	Chacayá	10	Octubre	2023-10-26T00:00:00	2024-11-06T08:00:00	2	Temperatura media	15.3
127354	7	Sololá	702	San José Chacayá	5	Chacayá	10	Octubre	2023-10-26T00:00:00	2024-11-06T08:00:00	4	Temperatura máxima	15.3
127355	7	Sololá	702	San José Chacayá	5	Chacayá	10	Octubre	2023-10-26T00:00:00	2024-11-06T08:00:00	3	Temperatura mínima	11.6
127356	7	Sololá	702	San José Chacayá	5	Chacayá	10	Octubre	2023-10-26T00:00:00	2024-11-06T08:00:00	5	Humedad	83
127357	7	Sololá	702	San José Chacayá	5	Chacayá	10	Octubre	2023-10-26T00:00:00	2024-11-06T08:00:00	6	Velocidad del viento	1.6
127358	7	Sololá	702	San José Chacayá	5	Chacayá	10	Octubre	2023-10-26T00:00:00	2024-11-06T08:00:00	7	Dirección del viento	1.61
127359	7	Sololá	702	San José Chacayá	5	Chacayá	10	Octubre	2023-10-26T00:00:00	2024-11-06T08:00:00	1	Precipitación	0
127360	7	Sololá	702	San José Chacayá	5	Chacayá	10	Octubre	2023-10-26T00:00:00	2024-11-06T08:00:00	8	Radiación solar	305
127361	7	Sololá	702	San José Chacayá	5	Chacayá	10	Octubre	2023-10-26T00:00:00	2024-11-06T09:00:00	2	Temperatura media	18.1
127362	7	Sololá	702	San José Chacayá	5	Chacayá	10	Octubre	2023-10-26T00:00:00	2024-11-06T09:00:00	4	Temperatura máxima	18.1
127363	7	Sololá	702	San José Chacayá	5	Chacayá	10	Octubre	2023-10-26T00:00:00	2024-11-06T09:00:00	3	Temperatura mínima	15.3
127364	7	Sololá	702	San José Chacayá	5	Chacayá	10	Octubre	2023-10-26T00:00:00	2024-11-06T09:00:00	5	Humedad	74
127365	7	Sololá	702	San José Chacayá	5	Chacayá	10	Octubre	2023-10-26T00:00:00	2024-11-06T09:00:00	6	Velocidad del viento	3.2
127366	7	Sololá	702	San José Chacayá	5	Chacayá	10	Octubre	2023-10-26T00:00:00	2024-11-06T09:00:00	7	Dirección del viento	3.22
127367	7	Sololá	702	San José Chacayá	5	Chacayá	10	Octubre	2023-10-26T00:00:00	2024-11-06T09:00:00	1	Precipitación	0
127368	7	Sololá	702	San José Chacayá	5	Chacayá	10	Octubre	2023-10-26T00:00:00	2024-11-06T09:00:00	8	Radiación solar	523
127369	7	Sololá	702	San José Chacayá	5	Chacayá	10	Octubre	2023-10-26T00:00:00	2024-11-06T10:00:00	2	Temperatura media	19.6
127370	7	Sololá	702	San José Chacayá	5	Chacayá	10	Octubre	2023-10-26T00:00:00	2024-11-06T10:00:00	4	Temperatura máxima	19.8
127371	7	Sololá	702	San José Chacayá	5	Chacayá	10	Octubre	2023-10-26T00:00:00	2024-11-06T10:00:00	3	Temperatura mínima	18.1
127372	7	Sololá	702	San José Chacayá	5	Chacayá	10	Octubre	2023-10-26T00:00:00	2024-11-06T10:00:00	5	Humedad	71
127373	7	Sololá	702	San José Chacayá	5	Chacayá	10	Octubre	2023-10-26T00:00:00	2024-11-06T10:00:00	6	Velocidad del viento	3.2
127374	7	Sololá	702	San José Chacayá	5	Chacayá	10	Octubre	2023-10-26T00:00:00	2024-11-06T10:00:00	7	Dirección del viento	3.22
127375	7	Sololá	702	San José Chacayá	5	Chacayá	10	Octubre	2023-10-26T00:00:00	2024-11-06T10:00:00	1	Precipitación	0
127376	7	Sololá	702	San José Chacayá	5	Chacayá	10	Octubre	2023-10-26T00:00:00	2024-11-06T10:00:00	8	Radiación solar	714
127377	7	Sololá	702	San José Chacayá	5	Chacayá	10	Octubre	2023-10-26T00:00:00	2024-11-06T11:00:00	2	Temperatura media	18.8
127378	7	Sololá	702	San José Chacayá	5	Chacayá	10	Octubre	2023-10-26T00:00:00	2024-11-06T11:00:00	4	Temperatura máxima	19.9
127379	7	Sololá	702	San José Chacayá	5	Chacayá	10	Octubre	2023-10-26T00:00:00	2024-11-06T11:00:00	3	Temperatura mínima	18.8
127380	7	Sololá	702	San José Chacayá	5	Chacayá	10	Octubre	2023-10-26T00:00:00	2024-11-06T11:00:00	5	Humedad	73
127381	7	Sololá	702	San José Chacayá	5	Chacayá	10	Octubre	2023-10-26T00:00:00	2024-11-06T11:00:00	6	Velocidad del viento	3.2
127382	7	Sololá	702	San José Chacayá	5	Chacayá	10	Octubre	2023-10-26T00:00:00	2024-11-06T11:00:00	7	Dirección del viento	3.22
127383	7	Sololá	702	San José Chacayá	5	Chacayá	10	Octubre	2023-10-26T00:00:00	2024-11-06T11:00:00	1	Precipitación	0
127384	7	Sololá	702	San José Chacayá	5	Chacayá	10	Octubre	2023-10-26T00:00:00	2024-11-06T11:00:00	8	Radiación solar	883
127385	7	Sololá	702	San José Chacayá	5	Chacayá	10	Octubre	2023-10-26T00:00:00	2024-11-06T12:00:00	2	Temperatura media	20.3
127386	7	Sololá	702	San José Chacayá	5	Chacayá	10	Octubre	2023-10-26T00:00:00	2024-11-06T12:00:00	4	Temperatura máxima	20.3
127387	7	Sololá	702	San José Chacayá	5	Chacayá	10	Octubre	2023-10-26T00:00:00	2024-11-06T12:00:00	3	Temperatura mínima	18.7
127388	7	Sololá	702	San José Chacayá	5	Chacayá	10	Octubre	2023-10-26T00:00:00	2024-11-06T12:00:00	5	Humedad	71
127389	7	Sololá	702	San José Chacayá	5	Chacayá	10	Octubre	2023-10-26T00:00:00	2024-11-06T12:00:00	6	Velocidad del viento	1.6
127390	7	Sololá	702	San José Chacayá	5	Chacayá	10	Octubre	2023-10-26T00:00:00	2024-11-06T12:00:00	7	Dirección del viento	1.61
127391	7	Sololá	702	San José Chacayá	5	Chacayá	10	Octubre	2023-10-26T00:00:00	2024-11-06T12:00:00	1	Precipitación	0
127392	7	Sololá	702	San José Chacayá	5	Chacayá	10	Octubre	2023-10-26T00:00:00	2024-11-06T12:00:00	8	Radiación solar	862
127393	7	Sololá	702	San José Chacayá	5	Chacayá	10	Octubre	2023-10-26T00:00:00	2024-11-06T13:00:00	2	Temperatura media	20.1
127394	7	Sololá	702	San José Chacayá	5	Chacayá	10	Octubre	2023-10-26T00:00:00	2024-11-06T13:00:00	4	Temperatura máxima	21
127395	7	Sololá	702	San José Chacayá	5	Chacayá	10	Octubre	2023-10-26T00:00:00	2024-11-06T13:00:00	3	Temperatura mínima	20.1
127396	7	Sololá	702	San José Chacayá	5	Chacayá	10	Octubre	2023-10-26T00:00:00	2024-11-06T13:00:00	5	Humedad	69
127397	7	Sololá	702	San José Chacayá	5	Chacayá	10	Octubre	2023-10-26T00:00:00	2024-11-06T13:00:00	6	Velocidad del viento	3.2
127398	7	Sololá	702	San José Chacayá	5	Chacayá	10	Octubre	2023-10-26T00:00:00	2024-11-06T13:00:00	7	Dirección del viento	3.22
127399	7	Sololá	702	San José Chacayá	5	Chacayá	10	Octubre	2023-10-26T00:00:00	2024-11-06T13:00:00	1	Precipitación	0
127400	7	Sololá	702	San José Chacayá	5	Chacayá	10	Octubre	2023-10-26T00:00:00	2024-11-06T13:00:00	8	Radiación solar	703
127401	7	Sololá	702	San José Chacayá	5	Chacayá	10	Octubre	2023-10-26T00:00:00	2024-11-06T14:00:00	2	Temperatura media	20.6
127402	7	Sololá	702	San José Chacayá	5	Chacayá	10	Octubre	2023-10-26T00:00:00	2024-11-06T14:00:00	4	Temperatura máxima	20.6
127403	7	Sololá	702	San José Chacayá	5	Chacayá	10	Octubre	2023-10-26T00:00:00	2024-11-06T14:00:00	3	Temperatura mínima	19.6
127404	7	Sololá	702	San José Chacayá	5	Chacayá	10	Octubre	2023-10-26T00:00:00	2024-11-06T14:00:00	5	Humedad	69
127405	7	Sololá	702	San José Chacayá	5	Chacayá	10	Octubre	2023-10-26T00:00:00	2024-11-06T14:00:00	6	Velocidad del viento	3.2
127406	7	Sololá	702	San José Chacayá	5	Chacayá	10	Octubre	2023-10-26T00:00:00	2024-11-06T14:00:00	7	Dirección del viento	3.22
127407	7	Sololá	702	San José Chacayá	5	Chacayá	10	Octubre	2023-10-26T00:00:00	2024-11-06T14:00:00	1	Precipitación	0
127408	7	Sololá	702	San José Chacayá	5	Chacayá	10	Octubre	2023-10-26T00:00:00	2024-11-06T14:00:00	8	Radiación solar	227
127409	7	Sololá	702	San José Chacayá	5	Chacayá	10	Octubre	2023-10-26T00:00:00	2024-11-06T15:00:00	2	Temperatura media	21.5
127410	7	Sololá	702	San José Chacayá	5	Chacayá	10	Octubre	2023-10-26T00:00:00	2024-11-06T15:00:00	4	Temperatura máxima	21.8
127411	7	Sololá	702	San José Chacayá	5	Chacayá	10	Octubre	2023-10-26T00:00:00	2024-11-06T15:00:00	3	Temperatura mínima	20.6
127412	7	Sololá	702	San José Chacayá	5	Chacayá	10	Octubre	2023-10-26T00:00:00	2024-11-06T15:00:00	5	Humedad	67
127413	7	Sololá	702	San José Chacayá	5	Chacayá	10	Octubre	2023-10-26T00:00:00	2024-11-06T15:00:00	6	Velocidad del viento	1.6
127414	7	Sololá	702	San José Chacayá	5	Chacayá	10	Octubre	2023-10-26T00:00:00	2024-11-06T15:00:00	7	Dirección del viento	1.61
127415	7	Sololá	702	San José Chacayá	5	Chacayá	10	Octubre	2023-10-26T00:00:00	2024-11-06T15:00:00	1	Precipitación	0
127416	7	Sololá	702	San José Chacayá	5	Chacayá	10	Octubre	2023-10-26T00:00:00	2024-11-06T15:00:00	8	Radiación solar	168
127417	7	Sololá	702	San José Chacayá	5	Chacayá	10	Octubre	2023-10-26T00:00:00	2024-11-06T16:00:00	2	Temperatura media	21.3
127418	7	Sololá	702	San José Chacayá	5	Chacayá	10	Octubre	2023-10-26T00:00:00	2024-11-06T16:00:00	4	Temperatura máxima	22
127419	7	Sololá	702	San José Chacayá	5	Chacayá	10	Octubre	2023-10-26T00:00:00	2024-11-06T16:00:00	3	Temperatura mínima	21.3
127420	7	Sololá	702	San José Chacayá	5	Chacayá	10	Octubre	2023-10-26T00:00:00	2024-11-06T16:00:00	5	Humedad	68
127421	7	Sololá	702	San José Chacayá	5	Chacayá	10	Octubre	2023-10-26T00:00:00	2024-11-06T16:00:00	6	Velocidad del viento	4.8
127422	7	Sololá	702	San José Chacayá	5	Chacayá	10	Octubre	2023-10-26T00:00:00	2024-11-06T16:00:00	7	Dirección del viento	4.83
127423	7	Sololá	702	San José Chacayá	5	Chacayá	10	Octubre	2023-10-26T00:00:00	2024-11-06T16:00:00	1	Precipitación	0
127424	7	Sololá	702	San José Chacayá	5	Chacayá	10	Octubre	2023-10-26T00:00:00	2024-11-06T16:00:00	8	Radiación solar	224
127425	7	Sololá	702	San José Chacayá	5	Chacayá	10	Octubre	2023-10-26T00:00:00	2024-11-06T17:00:00	2	Temperatura media	20.5
127426	7	Sololá	702	San José Chacayá	5	Chacayá	10	Octubre	2023-10-26T00:00:00	2024-11-06T17:00:00	4	Temperatura máxima	21.8
127427	7	Sololá	702	San José Chacayá	5	Chacayá	10	Octubre	2023-10-26T00:00:00	2024-11-06T17:00:00	3	Temperatura mínima	19.8
127428	7	Sololá	702	San José Chacayá	5	Chacayá	10	Octubre	2023-10-26T00:00:00	2024-11-06T17:00:00	5	Humedad	73
127429	7	Sololá	702	San José Chacayá	5	Chacayá	10	Octubre	2023-10-26T00:00:00	2024-11-06T17:00:00	6	Velocidad del viento	1.6
127430	7	Sololá	702	San José Chacayá	5	Chacayá	10	Octubre	2023-10-26T00:00:00	2024-11-06T17:00:00	7	Dirección del viento	1.61
127431	7	Sololá	702	San José Chacayá	5	Chacayá	10	Octubre	2023-10-26T00:00:00	2024-11-06T17:00:00	1	Precipitación	0
127432	7	Sololá	702	San José Chacayá	5	Chacayá	10	Octubre	2023-10-26T00:00:00	2024-11-06T17:00:00	8	Radiación solar	118
127433	7	Sololá	702	San José Chacayá	5	Chacayá	10	Octubre	2023-10-26T00:00:00	2024-11-06T18:00:00	2	Temperatura media	17.7
127434	7	Sololá	702	San José Chacayá	5	Chacayá	10	Octubre	2023-10-26T00:00:00	2024-11-06T18:00:00	4	Temperatura máxima	20.6
127435	7	Sololá	702	San José Chacayá	5	Chacayá	10	Octubre	2023-10-26T00:00:00	2024-11-06T18:00:00	3	Temperatura mínima	17.7
127436	7	Sololá	702	San José Chacayá	5	Chacayá	10	Octubre	2023-10-26T00:00:00	2024-11-06T18:00:00	5	Humedad	89
127437	7	Sololá	702	San José Chacayá	5	Chacayá	10	Octubre	2023-10-26T00:00:00	2024-11-06T18:00:00	6	Velocidad del viento	1.6
127438	7	Sololá	702	San José Chacayá	5	Chacayá	10	Octubre	2023-10-26T00:00:00	2024-11-06T18:00:00	7	Dirección del viento	1.61
127439	7	Sololá	702	San José Chacayá	5	Chacayá	10	Octubre	2023-10-26T00:00:00	2024-11-06T18:00:00	1	Precipitación	0
127440	7	Sololá	702	San José Chacayá	5	Chacayá	10	Octubre	2023-10-26T00:00:00	2024-11-06T18:00:00	8	Radiación solar	10
127441	7	Sololá	702	San José Chacayá	5	Chacayá	10	Octubre	2023-10-26T00:00:00	2024-11-06T19:00:00	2	Temperatura media	15.9
127442	7	Sololá	702	San José Chacayá	5	Chacayá	10	Octubre	2023-10-26T00:00:00	2024-11-06T19:00:00	4	Temperatura máxima	17.7
127443	7	Sololá	702	San José Chacayá	5	Chacayá	10	Octubre	2023-10-26T00:00:00	2024-11-06T19:00:00	3	Temperatura mínima	15.9
127444	7	Sololá	702	San José Chacayá	5	Chacayá	10	Octubre	2023-10-26T00:00:00	2024-11-06T19:00:00	5	Humedad	87
127445	7	Sololá	702	San José Chacayá	5	Chacayá	10	Octubre	2023-10-26T00:00:00	2024-11-06T19:00:00	6	Velocidad del viento	0
127446	7	Sololá	702	San José Chacayá	5	Chacayá	10	Octubre	2023-10-26T00:00:00	2024-11-06T19:00:00	7	Dirección del viento	0
127447	7	Sololá	702	San José Chacayá	5	Chacayá	10	Octubre	2023-10-26T00:00:00	2024-11-06T19:00:00	1	Precipitación	0
127448	7	Sololá	702	San José Chacayá	5	Chacayá	10	Octubre	2023-10-26T00:00:00	2024-11-06T19:00:00	8	Radiación solar	0
127449	7	Sololá	702	San José Chacayá	5	Chacayá	10	Octubre	2023-10-26T00:00:00	2024-11-06T20:00:00	2	Temperatura media	14.4
127450	7	Sololá	702	San José Chacayá	5	Chacayá	10	Octubre	2023-10-26T00:00:00	2024-11-06T20:00:00	4	Temperatura máxima	15.9
127451	7	Sololá	702	San José Chacayá	5	Chacayá	10	Octubre	2023-10-26T00:00:00	2024-11-06T20:00:00	3	Temperatura mínima	14.4
127452	7	Sololá	702	San José Chacayá	5	Chacayá	10	Octubre	2023-10-26T00:00:00	2024-11-06T20:00:00	5	Humedad	90
127453	7	Sololá	702	San José Chacayá	5	Chacayá	10	Octubre	2023-10-26T00:00:00	2024-11-06T20:00:00	6	Velocidad del viento	0
127454	7	Sololá	702	San José Chacayá	5	Chacayá	10	Octubre	2023-10-26T00:00:00	2024-11-06T20:00:00	7	Dirección del viento	0
127455	7	Sololá	702	San José Chacayá	5	Chacayá	10	Octubre	2023-10-26T00:00:00	2024-11-06T20:00:00	1	Precipitación	0
127456	7	Sololá	702	San José Chacayá	5	Chacayá	10	Octubre	2023-10-26T00:00:00	2024-11-06T20:00:00	8	Radiación solar	0
127457	7	Sololá	702	San José Chacayá	5	Chacayá	10	Octubre	2023-10-26T00:00:00	2024-11-06T21:00:00	2	Temperatura media	14.1
127458	7	Sololá	702	San José Chacayá	5	Chacayá	10	Octubre	2023-10-26T00:00:00	2024-11-06T21:00:00	4	Temperatura máxima	14.4
127459	7	Sololá	702	San José Chacayá	5	Chacayá	10	Octubre	2023-10-26T00:00:00	2024-11-06T21:00:00	3	Temperatura mínima	14.1
127460	7	Sololá	702	San José Chacayá	5	Chacayá	10	Octubre	2023-10-26T00:00:00	2024-11-06T21:00:00	5	Humedad	89
127461	7	Sololá	702	San José Chacayá	5	Chacayá	10	Octubre	2023-10-26T00:00:00	2024-11-06T21:00:00	6	Velocidad del viento	0
127462	7	Sololá	702	San José Chacayá	5	Chacayá	10	Octubre	2023-10-26T00:00:00	2024-11-06T21:00:00	7	Dirección del viento	0
127463	7	Sololá	702	San José Chacayá	5	Chacayá	10	Octubre	2023-10-26T00:00:00	2024-11-06T21:00:00	1	Precipitación	0
127464	7	Sololá	702	San José Chacayá	5	Chacayá	10	Octubre	2023-10-26T00:00:00	2024-11-06T21:00:00	8	Radiación solar	0
127465	7	Sololá	702	San José Chacayá	5	Chacayá	10	Octubre	2023-10-26T00:00:00	2024-11-06T22:00:00	2	Temperatura media	12.9
127466	7	Sololá	702	San José Chacayá	5	Chacayá	10	Octubre	2023-10-26T00:00:00	2024-11-06T22:00:00	4	Temperatura máxima	14.1
127467	7	Sololá	702	San José Chacayá	5	Chacayá	10	Octubre	2023-10-26T00:00:00	2024-11-06T22:00:00	3	Temperatura mínima	12.9
127468	7	Sololá	702	San José Chacayá	5	Chacayá	10	Octubre	2023-10-26T00:00:00	2024-11-06T22:00:00	5	Humedad	91
127469	7	Sololá	702	San José Chacayá	5	Chacayá	10	Octubre	2023-10-26T00:00:00	2024-11-06T22:00:00	6	Velocidad del viento	0
127470	7	Sololá	702	San José Chacayá	5	Chacayá	10	Octubre	2023-10-26T00:00:00	2024-11-06T22:00:00	7	Dirección del viento	0
127471	7	Sololá	702	San José Chacayá	5	Chacayá	10	Octubre	2023-10-26T00:00:00	2024-11-06T22:00:00	1	Precipitación	0
127472	7	Sololá	702	San José Chacayá	5	Chacayá	10	Octubre	2023-10-26T00:00:00	2024-11-06T22:00:00	8	Radiación solar	0
127473	7	Sololá	702	San José Chacayá	5	Chacayá	10	Octubre	2023-10-26T00:00:00	2024-11-06T23:00:00	2	Temperatura media	12.9
127474	7	Sololá	702	San José Chacayá	5	Chacayá	10	Octubre	2023-10-26T00:00:00	2024-11-06T23:00:00	4	Temperatura máxima	13
127475	7	Sololá	702	San José Chacayá	5	Chacayá	10	Octubre	2023-10-26T00:00:00	2024-11-06T23:00:00	3	Temperatura mínima	12.7
127476	7	Sololá	702	San José Chacayá	5	Chacayá	10	Octubre	2023-10-26T00:00:00	2024-11-06T23:00:00	5	Humedad	93
127477	7	Sololá	702	San José Chacayá	5	Chacayá	10	Octubre	2023-10-26T00:00:00	2024-11-06T23:00:00	6	Velocidad del viento	0
127478	7	Sololá	702	San José Chacayá	5	Chacayá	10	Octubre	2023-10-26T00:00:00	2024-11-06T23:00:00	7	Dirección del viento	0
127479	7	Sololá	702	San José Chacayá	5	Chacayá	10	Octubre	2023-10-26T00:00:00	2024-11-06T23:00:00	1	Precipitación	0
127480	7	Sololá	702	San José Chacayá	5	Chacayá	10	Octubre	2023-10-26T00:00:00	2024-11-06T23:00:00	8	Radiación solar	0
127481	7	Sololá	702	San José Chacayá	5	Chacayá	10	Octubre	2023-10-27T00:00:00	2024-11-06T00:00:00	2	Temperatura media	14.4
127482	7	Sololá	702	San José Chacayá	5	Chacayá	10	Octubre	2023-10-27T00:00:00	2024-11-06T00:00:00	4	Temperatura máxima	14.5
127483	7	Sololá	702	San José Chacayá	5	Chacayá	10	Octubre	2023-10-27T00:00:00	2024-11-06T00:00:00	3	Temperatura mínima	12.7
127484	7	Sololá	702	San José Chacayá	5	Chacayá	10	Octubre	2023-10-27T00:00:00	2024-11-06T00:00:00	5	Humedad	89
127485	7	Sololá	702	San José Chacayá	5	Chacayá	10	Octubre	2023-10-27T00:00:00	2024-11-06T00:00:00	6	Velocidad del viento	1.6
127486	7	Sololá	702	San José Chacayá	5	Chacayá	10	Octubre	2023-10-27T00:00:00	2024-11-06T00:00:00	7	Dirección del viento	1.61
127487	7	Sololá	702	San José Chacayá	5	Chacayá	10	Octubre	2023-10-27T00:00:00	2024-11-06T00:00:00	1	Precipitación	0
127488	7	Sololá	702	San José Chacayá	5	Chacayá	10	Octubre	2023-10-27T00:00:00	2024-11-06T00:00:00	8	Radiación solar	0
127489	7	Sololá	702	San José Chacayá	5	Chacayá	10	Octubre	2023-10-27T00:00:00	2024-11-06T01:00:00	2	Temperatura media	14.7
127490	7	Sololá	702	San José Chacayá	5	Chacayá	10	Octubre	2023-10-27T00:00:00	2024-11-06T01:00:00	4	Temperatura máxima	15
127491	7	Sololá	702	San José Chacayá	5	Chacayá	10	Octubre	2023-10-27T00:00:00	2024-11-06T01:00:00	3	Temperatura mínima	14.5
127492	7	Sololá	702	San José Chacayá	5	Chacayá	10	Octubre	2023-10-27T00:00:00	2024-11-06T01:00:00	5	Humedad	87
127493	7	Sololá	702	San José Chacayá	5	Chacayá	10	Octubre	2023-10-27T00:00:00	2024-11-06T01:00:00	6	Velocidad del viento	1.6
127494	7	Sololá	702	San José Chacayá	5	Chacayá	10	Octubre	2023-10-27T00:00:00	2024-11-06T01:00:00	7	Dirección del viento	1.61
127495	7	Sololá	702	San José Chacayá	5	Chacayá	10	Octubre	2023-10-27T00:00:00	2024-11-06T01:00:00	1	Precipitación	0
127496	7	Sololá	702	San José Chacayá	5	Chacayá	10	Octubre	2023-10-27T00:00:00	2024-11-06T01:00:00	8	Radiación solar	0
127497	7	Sololá	702	San José Chacayá	5	Chacayá	10	Octubre	2023-10-27T00:00:00	2024-11-06T02:00:00	2	Temperatura media	14.1
127498	7	Sololá	702	San José Chacayá	5	Chacayá	10	Octubre	2023-10-27T00:00:00	2024-11-06T02:00:00	4	Temperatura máxima	14.7
127499	7	Sololá	702	San José Chacayá	5	Chacayá	10	Octubre	2023-10-27T00:00:00	2024-11-06T02:00:00	3	Temperatura mínima	13.4
127500	7	Sololá	702	San José Chacayá	5	Chacayá	10	Octubre	2023-10-27T00:00:00	2024-11-06T02:00:00	5	Humedad	90
127501	7	Sololá	702	San José Chacayá	5	Chacayá	10	Octubre	2023-10-27T00:00:00	2024-11-06T02:00:00	6	Velocidad del viento	0
127502	7	Sololá	702	San José Chacayá	5	Chacayá	10	Octubre	2023-10-27T00:00:00	2024-11-06T02:00:00	7	Dirección del viento	0
127503	7	Sololá	702	San José Chacayá	5	Chacayá	10	Octubre	2023-10-27T00:00:00	2024-11-06T02:00:00	1	Precipitación	0
127504	7	Sololá	702	San José Chacayá	5	Chacayá	10	Octubre	2023-10-27T00:00:00	2024-11-06T02:00:00	8	Radiación solar	0
127505	7	Sololá	702	San José Chacayá	5	Chacayá	10	Octubre	2023-10-27T00:00:00	2024-11-06T03:00:00	2	Temperatura media	14.4
127506	7	Sololá	702	San José Chacayá	5	Chacayá	10	Octubre	2023-10-27T00:00:00	2024-11-06T03:00:00	4	Temperatura máxima	14.5
127507	7	Sololá	702	San José Chacayá	5	Chacayá	10	Octubre	2023-10-27T00:00:00	2024-11-06T03:00:00	3	Temperatura mínima	14
127508	7	Sololá	702	San José Chacayá	5	Chacayá	10	Octubre	2023-10-27T00:00:00	2024-11-06T03:00:00	5	Humedad	87
127509	7	Sololá	702	San José Chacayá	5	Chacayá	10	Octubre	2023-10-27T00:00:00	2024-11-06T03:00:00	6	Velocidad del viento	0
127510	7	Sololá	702	San José Chacayá	5	Chacayá	10	Octubre	2023-10-27T00:00:00	2024-11-06T03:00:00	7	Dirección del viento	0
127511	7	Sololá	702	San José Chacayá	5	Chacayá	10	Octubre	2023-10-27T00:00:00	2024-11-06T03:00:00	1	Precipitación	0
127512	7	Sololá	702	San José Chacayá	5	Chacayá	10	Octubre	2023-10-27T00:00:00	2024-11-06T03:00:00	8	Radiación solar	0
127513	7	Sololá	702	San José Chacayá	5	Chacayá	10	Octubre	2023-10-27T00:00:00	2024-11-06T04:00:00	2	Temperatura media	14.5
127514	7	Sololá	702	San José Chacayá	5	Chacayá	10	Octubre	2023-10-27T00:00:00	2024-11-06T04:00:00	4	Temperatura máxima	14.6
127515	7	Sololá	702	San José Chacayá	5	Chacayá	10	Octubre	2023-10-27T00:00:00	2024-11-06T04:00:00	3	Temperatura mínima	14.1
127516	7	Sololá	702	San José Chacayá	5	Chacayá	10	Octubre	2023-10-27T00:00:00	2024-11-06T04:00:00	5	Humedad	86
127517	7	Sololá	702	San José Chacayá	5	Chacayá	10	Octubre	2023-10-27T00:00:00	2024-11-06T04:00:00	6	Velocidad del viento	1.6
127518	7	Sololá	702	San José Chacayá	5	Chacayá	10	Octubre	2023-10-27T00:00:00	2024-11-06T04:00:00	7	Dirección del viento	1.61
127519	7	Sololá	702	San José Chacayá	5	Chacayá	10	Octubre	2023-10-27T00:00:00	2024-11-06T04:00:00	1	Precipitación	0
127520	7	Sololá	702	San José Chacayá	5	Chacayá	10	Octubre	2023-10-27T00:00:00	2024-11-06T04:00:00	8	Radiación solar	0
127521	7	Sololá	702	San José Chacayá	5	Chacayá	10	Octubre	2023-10-27T00:00:00	2024-11-06T05:00:00	2	Temperatura media	13.7
127522	7	Sololá	702	San José Chacayá	5	Chacayá	10	Octubre	2023-10-27T00:00:00	2024-11-06T05:00:00	4	Temperatura máxima	14.6
127523	7	Sololá	702	San José Chacayá	5	Chacayá	10	Octubre	2023-10-27T00:00:00	2024-11-06T05:00:00	3	Temperatura mínima	13.7
127524	7	Sololá	702	San José Chacayá	5	Chacayá	10	Octubre	2023-10-27T00:00:00	2024-11-06T05:00:00	5	Humedad	86
127525	7	Sololá	702	San José Chacayá	5	Chacayá	10	Octubre	2023-10-27T00:00:00	2024-11-06T05:00:00	6	Velocidad del viento	1.6
127526	7	Sololá	702	San José Chacayá	5	Chacayá	10	Octubre	2023-10-27T00:00:00	2024-11-06T05:00:00	7	Dirección del viento	1.61
127527	7	Sololá	702	San José Chacayá	5	Chacayá	10	Octubre	2023-10-27T00:00:00	2024-11-06T05:00:00	1	Precipitación	0
127528	7	Sololá	702	San José Chacayá	5	Chacayá	10	Octubre	2023-10-27T00:00:00	2024-11-06T05:00:00	8	Radiación solar	0
127529	7	Sololá	702	San José Chacayá	5	Chacayá	10	Octubre	2023-10-27T00:00:00	2024-11-06T06:00:00	2	Temperatura media	12.1
127530	7	Sololá	702	San José Chacayá	5	Chacayá	10	Octubre	2023-10-27T00:00:00	2024-11-06T06:00:00	4	Temperatura máxima	13.7
127531	7	Sololá	702	San José Chacayá	5	Chacayá	10	Octubre	2023-10-27T00:00:00	2024-11-06T06:00:00	3	Temperatura mínima	12.1
127532	7	Sololá	702	San José Chacayá	5	Chacayá	10	Octubre	2023-10-27T00:00:00	2024-11-06T06:00:00	5	Humedad	91
127533	7	Sololá	702	San José Chacayá	5	Chacayá	10	Octubre	2023-10-27T00:00:00	2024-11-06T06:00:00	6	Velocidad del viento	0
127534	7	Sololá	702	San José Chacayá	5	Chacayá	10	Octubre	2023-10-27T00:00:00	2024-11-06T06:00:00	7	Dirección del viento	0
127535	7	Sololá	702	San José Chacayá	5	Chacayá	10	Octubre	2023-10-27T00:00:00	2024-11-06T06:00:00	1	Precipitación	0
127536	7	Sololá	702	San José Chacayá	5	Chacayá	10	Octubre	2023-10-27T00:00:00	2024-11-06T06:00:00	8	Radiación solar	1
127537	7	Sololá	702	San José Chacayá	5	Chacayá	10	Octubre	2023-10-27T00:00:00	2024-11-06T07:00:00	2	Temperatura media	11.8
127538	7	Sololá	702	San José Chacayá	5	Chacayá	10	Octubre	2023-10-27T00:00:00	2024-11-06T07:00:00	4	Temperatura máxima	12.2
127539	7	Sololá	702	San José Chacayá	5	Chacayá	10	Octubre	2023-10-27T00:00:00	2024-11-06T07:00:00	3	Temperatura mínima	11.7
127540	7	Sololá	702	San José Chacayá	5	Chacayá	10	Octubre	2023-10-27T00:00:00	2024-11-06T07:00:00	5	Humedad	92
127541	7	Sololá	702	San José Chacayá	5	Chacayá	10	Octubre	2023-10-27T00:00:00	2024-11-06T07:00:00	6	Velocidad del viento	0
127542	7	Sololá	702	San José Chacayá	5	Chacayá	10	Octubre	2023-10-27T00:00:00	2024-11-06T07:00:00	7	Dirección del viento	0
127543	7	Sololá	702	San José Chacayá	5	Chacayá	10	Octubre	2023-10-27T00:00:00	2024-11-06T07:00:00	1	Precipitación	0
127544	7	Sololá	702	San José Chacayá	5	Chacayá	10	Octubre	2023-10-27T00:00:00	2024-11-06T07:00:00	8	Radiación solar	74
127545	7	Sololá	702	San José Chacayá	5	Chacayá	10	Octubre	2023-10-27T00:00:00	2024-11-06T08:00:00	2	Temperatura media	15.3
127546	7	Sololá	702	San José Chacayá	5	Chacayá	10	Octubre	2023-10-27T00:00:00	2024-11-06T08:00:00	4	Temperatura máxima	15.3
127547	7	Sololá	702	San José Chacayá	5	Chacayá	10	Octubre	2023-10-27T00:00:00	2024-11-06T08:00:00	3	Temperatura mínima	11.7
127548	7	Sololá	702	San José Chacayá	5	Chacayá	10	Octubre	2023-10-27T00:00:00	2024-11-06T08:00:00	5	Humedad	88
127549	7	Sololá	702	San José Chacayá	5	Chacayá	10	Octubre	2023-10-27T00:00:00	2024-11-06T08:00:00	6	Velocidad del viento	0
127550	7	Sololá	702	San José Chacayá	5	Chacayá	10	Octubre	2023-10-27T00:00:00	2024-11-06T08:00:00	7	Dirección del viento	0
127551	7	Sololá	702	San José Chacayá	5	Chacayá	10	Octubre	2023-10-27T00:00:00	2024-11-06T08:00:00	1	Precipitación	0
127552	7	Sololá	702	San José Chacayá	5	Chacayá	10	Octubre	2023-10-27T00:00:00	2024-11-06T08:00:00	8	Radiación solar	267
127553	7	Sololá	702	San José Chacayá	5	Chacayá	10	Octubre	2023-10-27T00:00:00	2024-11-06T09:00:00	2	Temperatura media	18.3
127554	7	Sololá	702	San José Chacayá	5	Chacayá	10	Octubre	2023-10-27T00:00:00	2024-11-06T09:00:00	4	Temperatura máxima	18.3
127555	7	Sololá	702	San José Chacayá	5	Chacayá	10	Octubre	2023-10-27T00:00:00	2024-11-06T09:00:00	3	Temperatura mínima	15.4
127556	7	Sololá	702	San José Chacayá	5	Chacayá	10	Octubre	2023-10-27T00:00:00	2024-11-06T09:00:00	5	Humedad	78
127557	7	Sololá	702	San José Chacayá	5	Chacayá	10	Octubre	2023-10-27T00:00:00	2024-11-06T09:00:00	6	Velocidad del viento	3.2
127558	7	Sololá	702	San José Chacayá	5	Chacayá	10	Octubre	2023-10-27T00:00:00	2024-11-06T09:00:00	7	Dirección del viento	3.22
127559	7	Sololá	702	San José Chacayá	5	Chacayá	10	Octubre	2023-10-27T00:00:00	2024-11-06T09:00:00	1	Precipitación	0
127560	7	Sololá	702	San José Chacayá	5	Chacayá	10	Octubre	2023-10-27T00:00:00	2024-11-06T09:00:00	8	Radiación solar	483
127561	7	Sololá	702	San José Chacayá	5	Chacayá	10	Octubre	2023-10-27T00:00:00	2024-11-06T10:00:00	2	Temperatura media	18.6
127562	7	Sololá	702	San José Chacayá	5	Chacayá	10	Octubre	2023-10-27T00:00:00	2024-11-06T10:00:00	4	Temperatura máxima	18.6
127563	7	Sololá	702	San José Chacayá	5	Chacayá	10	Octubre	2023-10-27T00:00:00	2024-11-06T10:00:00	3	Temperatura mínima	17.4
127564	7	Sololá	702	San José Chacayá	5	Chacayá	10	Octubre	2023-10-27T00:00:00	2024-11-06T10:00:00	5	Humedad	78
127565	7	Sololá	702	San José Chacayá	5	Chacayá	10	Octubre	2023-10-27T00:00:00	2024-11-06T10:00:00	6	Velocidad del viento	3.2
127566	7	Sololá	702	San José Chacayá	5	Chacayá	10	Octubre	2023-10-27T00:00:00	2024-11-06T10:00:00	7	Dirección del viento	3.22
127567	7	Sololá	702	San José Chacayá	5	Chacayá	10	Octubre	2023-10-27T00:00:00	2024-11-06T10:00:00	1	Precipitación	0
127568	7	Sololá	702	San José Chacayá	5	Chacayá	10	Octubre	2023-10-27T00:00:00	2024-11-06T10:00:00	8	Radiación solar	687
127569	7	Sololá	702	San José Chacayá	5	Chacayá	10	Octubre	2023-10-27T00:00:00	2024-11-06T11:00:00	2	Temperatura media	18.1
127570	7	Sololá	702	San José Chacayá	5	Chacayá	10	Octubre	2023-10-27T00:00:00	2024-11-06T11:00:00	4	Temperatura máxima	18.8
127571	7	Sololá	702	San José Chacayá	5	Chacayá	10	Octubre	2023-10-27T00:00:00	2024-11-06T11:00:00	3	Temperatura mínima	17.3
127572	7	Sololá	702	San José Chacayá	5	Chacayá	10	Octubre	2023-10-27T00:00:00	2024-11-06T11:00:00	5	Humedad	77
127573	7	Sololá	702	San José Chacayá	5	Chacayá	10	Octubre	2023-10-27T00:00:00	2024-11-06T11:00:00	6	Velocidad del viento	4.8
127574	7	Sololá	702	San José Chacayá	5	Chacayá	10	Octubre	2023-10-27T00:00:00	2024-11-06T11:00:00	7	Dirección del viento	4.83
127575	7	Sololá	702	San José Chacayá	5	Chacayá	10	Octubre	2023-10-27T00:00:00	2024-11-06T11:00:00	1	Precipitación	0
127576	7	Sololá	702	San José Chacayá	5	Chacayá	10	Octubre	2023-10-27T00:00:00	2024-11-06T11:00:00	8	Radiación solar	825
127577	7	Sololá	702	San José Chacayá	5	Chacayá	10	Octubre	2023-10-27T00:00:00	2024-11-06T12:00:00	2	Temperatura media	18.4
127578	7	Sololá	702	San José Chacayá	5	Chacayá	10	Octubre	2023-10-27T00:00:00	2024-11-06T12:00:00	4	Temperatura máxima	18.5
127579	7	Sololá	702	San José Chacayá	5	Chacayá	10	Octubre	2023-10-27T00:00:00	2024-11-06T12:00:00	3	Temperatura mínima	17.9
127580	7	Sololá	702	San José Chacayá	5	Chacayá	10	Octubre	2023-10-27T00:00:00	2024-11-06T12:00:00	5	Humedad	73
127581	7	Sololá	702	San José Chacayá	5	Chacayá	10	Octubre	2023-10-27T00:00:00	2024-11-06T12:00:00	6	Velocidad del viento	4.8
127582	7	Sololá	702	San José Chacayá	5	Chacayá	10	Octubre	2023-10-27T00:00:00	2024-11-06T12:00:00	7	Dirección del viento	4.83
127583	7	Sololá	702	San José Chacayá	5	Chacayá	10	Octubre	2023-10-27T00:00:00	2024-11-06T12:00:00	1	Precipitación	0
127584	7	Sololá	702	San José Chacayá	5	Chacayá	10	Octubre	2023-10-27T00:00:00	2024-11-06T12:00:00	8	Radiación solar	835
127585	7	Sololá	702	San José Chacayá	5	Chacayá	10	Octubre	2023-10-27T00:00:00	2024-11-06T13:00:00	2	Temperatura media	20.2
127586	7	Sololá	702	San José Chacayá	5	Chacayá	10	Octubre	2023-10-27T00:00:00	2024-11-06T13:00:00	4	Temperatura máxima	20.2
127587	7	Sololá	702	San José Chacayá	5	Chacayá	10	Octubre	2023-10-27T00:00:00	2024-11-06T13:00:00	3	Temperatura mínima	18.4
127588	7	Sololá	702	San José Chacayá	5	Chacayá	10	Octubre	2023-10-27T00:00:00	2024-11-06T13:00:00	5	Humedad	65
127589	7	Sololá	702	San José Chacayá	5	Chacayá	10	Octubre	2023-10-27T00:00:00	2024-11-06T13:00:00	6	Velocidad del viento	3.2
127590	7	Sololá	702	San José Chacayá	5	Chacayá	10	Octubre	2023-10-27T00:00:00	2024-11-06T13:00:00	7	Dirección del viento	3.22
127591	7	Sololá	702	San José Chacayá	5	Chacayá	10	Octubre	2023-10-27T00:00:00	2024-11-06T13:00:00	1	Precipitación	0
127592	7	Sololá	702	San José Chacayá	5	Chacayá	10	Octubre	2023-10-27T00:00:00	2024-11-06T13:00:00	8	Radiación solar	304
127593	7	Sololá	702	San José Chacayá	5	Chacayá	10	Octubre	2023-10-27T00:00:00	2024-11-06T14:00:00	2	Temperatura media	20.1
127594	7	Sololá	702	San José Chacayá	5	Chacayá	10	Octubre	2023-10-27T00:00:00	2024-11-06T14:00:00	4	Temperatura máxima	20.3
127595	7	Sololá	702	San José Chacayá	5	Chacayá	10	Octubre	2023-10-27T00:00:00	2024-11-06T14:00:00	3	Temperatura mínima	19.1
127596	7	Sololá	702	San José Chacayá	5	Chacayá	10	Octubre	2023-10-27T00:00:00	2024-11-06T14:00:00	5	Humedad	70
127597	7	Sololá	702	San José Chacayá	5	Chacayá	10	Octubre	2023-10-27T00:00:00	2024-11-06T14:00:00	6	Velocidad del viento	3.2
127598	7	Sololá	702	San José Chacayá	5	Chacayá	10	Octubre	2023-10-27T00:00:00	2024-11-06T14:00:00	7	Dirección del viento	3.22
127599	7	Sololá	702	San José Chacayá	5	Chacayá	10	Octubre	2023-10-27T00:00:00	2024-11-06T14:00:00	1	Precipitación	0
127600	7	Sololá	702	San José Chacayá	5	Chacayá	10	Octubre	2023-10-27T00:00:00	2024-11-06T14:00:00	8	Radiación solar	398
127601	7	Sololá	702	San José Chacayá	5	Chacayá	10	Octubre	2023-10-27T00:00:00	2024-11-06T15:00:00	2	Temperatura media	17.4
127602	7	Sololá	702	San José Chacayá	5	Chacayá	10	Octubre	2023-10-27T00:00:00	2024-11-06T15:00:00	4	Temperatura máxima	20.1
127603	7	Sololá	702	San José Chacayá	5	Chacayá	10	Octubre	2023-10-27T00:00:00	2024-11-06T15:00:00	3	Temperatura mínima	17.3
127604	7	Sololá	702	San José Chacayá	5	Chacayá	10	Octubre	2023-10-27T00:00:00	2024-11-06T15:00:00	5	Humedad	79
127605	7	Sololá	702	San José Chacayá	5	Chacayá	10	Octubre	2023-10-27T00:00:00	2024-11-06T15:00:00	6	Velocidad del viento	1.6
127606	7	Sololá	702	San José Chacayá	5	Chacayá	10	Octubre	2023-10-27T00:00:00	2024-11-06T15:00:00	7	Dirección del viento	1.61
127607	7	Sololá	702	San José Chacayá	5	Chacayá	10	Octubre	2023-10-27T00:00:00	2024-11-06T15:00:00	1	Precipitación	0.2
127608	7	Sololá	702	San José Chacayá	5	Chacayá	10	Octubre	2023-10-27T00:00:00	2024-11-06T15:00:00	8	Radiación solar	180
127609	7	Sololá	702	San José Chacayá	5	Chacayá	10	Octubre	2023-10-27T00:00:00	2024-11-06T16:00:00	2	Temperatura media	18.7
127610	7	Sololá	702	San José Chacayá	5	Chacayá	10	Octubre	2023-10-27T00:00:00	2024-11-06T16:00:00	4	Temperatura máxima	18.7
127611	7	Sololá	702	San José Chacayá	5	Chacayá	10	Octubre	2023-10-27T00:00:00	2024-11-06T16:00:00	3	Temperatura mínima	17.3
127612	7	Sololá	702	San José Chacayá	5	Chacayá	10	Octubre	2023-10-27T00:00:00	2024-11-06T16:00:00	5	Humedad	75
127613	7	Sololá	702	San José Chacayá	5	Chacayá	10	Octubre	2023-10-27T00:00:00	2024-11-06T16:00:00	6	Velocidad del viento	1.6
127614	7	Sololá	702	San José Chacayá	5	Chacayá	10	Octubre	2023-10-27T00:00:00	2024-11-06T16:00:00	7	Dirección del viento	1.61
127615	7	Sololá	702	San José Chacayá	5	Chacayá	10	Octubre	2023-10-27T00:00:00	2024-11-06T16:00:00	1	Precipitación	0
127616	7	Sololá	702	San José Chacayá	5	Chacayá	10	Octubre	2023-10-27T00:00:00	2024-11-06T16:00:00	8	Radiación solar	336
127617	7	Sololá	702	San José Chacayá	5	Chacayá	10	Octubre	2023-10-27T00:00:00	2024-11-06T17:00:00	2	Temperatura media	18.1
127618	7	Sololá	702	San José Chacayá	5	Chacayá	10	Octubre	2023-10-27T00:00:00	2024-11-06T17:00:00	4	Temperatura máxima	18.9
127619	7	Sololá	702	San José Chacayá	5	Chacayá	10	Octubre	2023-10-27T00:00:00	2024-11-06T17:00:00	3	Temperatura mínima	18.1
127620	7	Sololá	702	San José Chacayá	5	Chacayá	10	Octubre	2023-10-27T00:00:00	2024-11-06T17:00:00	5	Humedad	75
127621	7	Sololá	702	San José Chacayá	5	Chacayá	10	Octubre	2023-10-27T00:00:00	2024-11-06T17:00:00	6	Velocidad del viento	0
127622	7	Sololá	702	San José Chacayá	5	Chacayá	10	Octubre	2023-10-27T00:00:00	2024-11-06T17:00:00	7	Dirección del viento	0
127623	7	Sololá	702	San José Chacayá	5	Chacayá	10	Octubre	2023-10-27T00:00:00	2024-11-06T17:00:00	1	Precipitación	0
127624	7	Sololá	702	San José Chacayá	5	Chacayá	10	Octubre	2023-10-27T00:00:00	2024-11-06T17:00:00	8	Radiación solar	139
127625	7	Sololá	702	San José Chacayá	5	Chacayá	10	Octubre	2023-10-27T00:00:00	2024-11-06T18:00:00	2	Temperatura media	16.9
127626	7	Sololá	702	San José Chacayá	5	Chacayá	10	Octubre	2023-10-27T00:00:00	2024-11-06T18:00:00	4	Temperatura máxima	18.2
127627	7	Sololá	702	San José Chacayá	5	Chacayá	10	Octubre	2023-10-27T00:00:00	2024-11-06T18:00:00	3	Temperatura mínima	16.9
127628	7	Sololá	702	San José Chacayá	5	Chacayá	10	Octubre	2023-10-27T00:00:00	2024-11-06T18:00:00	5	Humedad	78
127629	7	Sololá	702	San José Chacayá	5	Chacayá	10	Octubre	2023-10-27T00:00:00	2024-11-06T18:00:00	6	Velocidad del viento	1.6
127630	7	Sololá	702	San José Chacayá	5	Chacayá	10	Octubre	2023-10-27T00:00:00	2024-11-06T18:00:00	7	Dirección del viento	1.61
127631	7	Sololá	702	San José Chacayá	5	Chacayá	10	Octubre	2023-10-27T00:00:00	2024-11-06T18:00:00	1	Precipitación	0
127632	7	Sololá	702	San José Chacayá	5	Chacayá	10	Octubre	2023-10-27T00:00:00	2024-11-06T18:00:00	8	Radiación solar	11
127633	7	Sololá	702	San José Chacayá	5	Chacayá	10	Octubre	2023-10-27T00:00:00	2024-11-06T19:00:00	2	Temperatura media	15
127634	7	Sololá	702	San José Chacayá	5	Chacayá	10	Octubre	2023-10-27T00:00:00	2024-11-06T19:00:00	4	Temperatura máxima	16.9
127635	7	Sololá	702	San José Chacayá	5	Chacayá	10	Octubre	2023-10-27T00:00:00	2024-11-06T19:00:00	3	Temperatura mínima	14.9
127636	7	Sololá	702	San José Chacayá	5	Chacayá	10	Octubre	2023-10-27T00:00:00	2024-11-06T19:00:00	5	Humedad	89
127637	7	Sololá	702	San José Chacayá	5	Chacayá	10	Octubre	2023-10-27T00:00:00	2024-11-06T19:00:00	6	Velocidad del viento	3.2
127638	7	Sololá	702	San José Chacayá	5	Chacayá	10	Octubre	2023-10-27T00:00:00	2024-11-06T19:00:00	7	Dirección del viento	3.22
127639	7	Sololá	702	San José Chacayá	5	Chacayá	10	Octubre	2023-10-27T00:00:00	2024-11-06T19:00:00	1	Precipitación	0.4
127640	7	Sololá	702	San José Chacayá	5	Chacayá	10	Octubre	2023-10-27T00:00:00	2024-11-06T19:00:00	8	Radiación solar	0
127641	7	Sololá	702	San José Chacayá	5	Chacayá	10	Octubre	2023-10-27T00:00:00	2024-11-06T20:00:00	2	Temperatura media	14.8
127642	7	Sololá	702	San José Chacayá	5	Chacayá	10	Octubre	2023-10-27T00:00:00	2024-11-06T20:00:00	4	Temperatura máxima	15.1
127643	7	Sololá	702	San José Chacayá	5	Chacayá	10	Octubre	2023-10-27T00:00:00	2024-11-06T20:00:00	3	Temperatura mínima	14.7
127644	7	Sololá	702	San José Chacayá	5	Chacayá	10	Octubre	2023-10-27T00:00:00	2024-11-06T20:00:00	5	Humedad	92
127645	7	Sololá	702	San José Chacayá	5	Chacayá	10	Octubre	2023-10-27T00:00:00	2024-11-06T20:00:00	6	Velocidad del viento	0
127646	7	Sololá	702	San José Chacayá	5	Chacayá	10	Octubre	2023-10-27T00:00:00	2024-11-06T20:00:00	7	Dirección del viento	0
127647	7	Sololá	702	San José Chacayá	5	Chacayá	10	Octubre	2023-10-27T00:00:00	2024-11-06T20:00:00	1	Precipitación	0
127648	7	Sololá	702	San José Chacayá	5	Chacayá	10	Octubre	2023-10-27T00:00:00	2024-11-06T20:00:00	8	Radiación solar	0
127649	7	Sololá	702	San José Chacayá	5	Chacayá	10	Octubre	2023-10-27T00:00:00	2024-11-06T21:00:00	2	Temperatura media	14.8
127650	7	Sololá	702	San José Chacayá	5	Chacayá	10	Octubre	2023-10-27T00:00:00	2024-11-06T21:00:00	4	Temperatura máxima	14.8
127651	7	Sololá	702	San José Chacayá	5	Chacayá	10	Octubre	2023-10-27T00:00:00	2024-11-06T21:00:00	3	Temperatura mínima	14.6
127652	7	Sololá	702	San José Chacayá	5	Chacayá	10	Octubre	2023-10-27T00:00:00	2024-11-06T21:00:00	5	Humedad	89
127653	7	Sololá	702	San José Chacayá	5	Chacayá	10	Octubre	2023-10-27T00:00:00	2024-11-06T21:00:00	6	Velocidad del viento	1.6
127654	7	Sololá	702	San José Chacayá	5	Chacayá	10	Octubre	2023-10-27T00:00:00	2024-11-06T21:00:00	7	Dirección del viento	1.61
127655	7	Sololá	702	San José Chacayá	5	Chacayá	10	Octubre	2023-10-27T00:00:00	2024-11-06T21:00:00	1	Precipitación	0
127656	7	Sololá	702	San José Chacayá	5	Chacayá	10	Octubre	2023-10-27T00:00:00	2024-11-06T21:00:00	8	Radiación solar	0
127657	7	Sololá	702	San José Chacayá	5	Chacayá	10	Octubre	2023-10-27T00:00:00	2024-11-06T22:00:00	2	Temperatura media	14.5
127658	7	Sololá	702	San José Chacayá	5	Chacayá	10	Octubre	2023-10-27T00:00:00	2024-11-06T22:00:00	4	Temperatura máxima	14.9
127659	7	Sololá	702	San José Chacayá	5	Chacayá	10	Octubre	2023-10-27T00:00:00	2024-11-06T22:00:00	3	Temperatura mínima	14.5
127660	7	Sololá	702	San José Chacayá	5	Chacayá	10	Octubre	2023-10-27T00:00:00	2024-11-06T22:00:00	5	Humedad	89
127661	7	Sololá	702	San José Chacayá	5	Chacayá	10	Octubre	2023-10-27T00:00:00	2024-11-06T22:00:00	6	Velocidad del viento	3.2
127662	7	Sololá	702	San José Chacayá	5	Chacayá	10	Octubre	2023-10-27T00:00:00	2024-11-06T22:00:00	7	Dirección del viento	3.22
127663	7	Sololá	702	San José Chacayá	5	Chacayá	10	Octubre	2023-10-27T00:00:00	2024-11-06T22:00:00	1	Precipitación	0.2
127664	7	Sololá	702	San José Chacayá	5	Chacayá	10	Octubre	2023-10-27T00:00:00	2024-11-06T22:00:00	8	Radiación solar	0
127665	7	Sololá	702	San José Chacayá	5	Chacayá	10	Octubre	2023-10-27T00:00:00	2024-11-06T23:00:00	2	Temperatura media	13.9
127666	7	Sololá	702	San José Chacayá	5	Chacayá	10	Octubre	2023-10-27T00:00:00	2024-11-06T23:00:00	4	Temperatura máxima	14.5
127667	7	Sololá	702	San José Chacayá	5	Chacayá	10	Octubre	2023-10-27T00:00:00	2024-11-06T23:00:00	3	Temperatura mínima	13.9
127668	7	Sololá	702	San José Chacayá	5	Chacayá	10	Octubre	2023-10-27T00:00:00	2024-11-06T23:00:00	5	Humedad	89
127669	7	Sololá	702	San José Chacayá	5	Chacayá	10	Octubre	2023-10-27T00:00:00	2024-11-06T23:00:00	6	Velocidad del viento	0
127670	7	Sololá	702	San José Chacayá	5	Chacayá	10	Octubre	2023-10-27T00:00:00	2024-11-06T23:00:00	7	Dirección del viento	0
127671	7	Sololá	702	San José Chacayá	5	Chacayá	10	Octubre	2023-10-27T00:00:00	2024-11-06T23:00:00	1	Precipitación	0
127672	7	Sololá	702	San José Chacayá	5	Chacayá	10	Octubre	2023-10-27T00:00:00	2024-11-06T23:00:00	8	Radiación solar	0
127673	7	Sololá	702	San José Chacayá	5	Chacayá	10	Octubre	2023-10-28T00:00:00	2024-11-06T00:00:00	2	Temperatura media	13.5
127674	7	Sololá	702	San José Chacayá	5	Chacayá	10	Octubre	2023-10-28T00:00:00	2024-11-06T00:00:00	4	Temperatura máxima	14.1
127675	7	Sololá	702	San José Chacayá	5	Chacayá	10	Octubre	2023-10-28T00:00:00	2024-11-06T00:00:00	3	Temperatura mínima	13.4
127676	7	Sololá	702	San José Chacayá	5	Chacayá	10	Octubre	2023-10-28T00:00:00	2024-11-06T00:00:00	5	Humedad	93
127677	7	Sololá	702	San José Chacayá	5	Chacayá	10	Octubre	2023-10-28T00:00:00	2024-11-06T00:00:00	6	Velocidad del viento	0
127678	7	Sololá	702	San José Chacayá	5	Chacayá	10	Octubre	2023-10-28T00:00:00	2024-11-06T00:00:00	7	Dirección del viento	0
127679	7	Sololá	702	San José Chacayá	5	Chacayá	10	Octubre	2023-10-28T00:00:00	2024-11-06T00:00:00	1	Precipitación	0
127680	7	Sololá	702	San José Chacayá	5	Chacayá	10	Octubre	2023-10-28T00:00:00	2024-11-06T00:00:00	8	Radiación solar	0
127681	7	Sololá	702	San José Chacayá	5	Chacayá	10	Octubre	2023-10-28T00:00:00	2024-11-06T01:00:00	2	Temperatura media	14.1
127682	7	Sololá	702	San José Chacayá	5	Chacayá	10	Octubre	2023-10-28T00:00:00	2024-11-06T01:00:00	4	Temperatura máxima	14.1
127683	7	Sololá	702	San José Chacayá	5	Chacayá	10	Octubre	2023-10-28T00:00:00	2024-11-06T01:00:00	3	Temperatura mínima	13.5
127684	7	Sololá	702	San José Chacayá	5	Chacayá	10	Octubre	2023-10-28T00:00:00	2024-11-06T01:00:00	5	Humedad	91
127685	7	Sololá	702	San José Chacayá	5	Chacayá	10	Octubre	2023-10-28T00:00:00	2024-11-06T01:00:00	6	Velocidad del viento	1.6
127686	7	Sololá	702	San José Chacayá	5	Chacayá	10	Octubre	2023-10-28T00:00:00	2024-11-06T01:00:00	7	Dirección del viento	1.61
127687	7	Sololá	702	San José Chacayá	5	Chacayá	10	Octubre	2023-10-28T00:00:00	2024-11-06T01:00:00	1	Precipitación	0
127688	7	Sololá	702	San José Chacayá	5	Chacayá	10	Octubre	2023-10-28T00:00:00	2024-11-06T01:00:00	8	Radiación solar	0
127689	7	Sololá	702	San José Chacayá	5	Chacayá	10	Octubre	2023-10-28T00:00:00	2024-11-06T02:00:00	2	Temperatura media	14.1
127690	7	Sololá	702	San José Chacayá	5	Chacayá	10	Octubre	2023-10-28T00:00:00	2024-11-06T02:00:00	4	Temperatura máxima	14.2
127691	7	Sololá	702	San José Chacayá	5	Chacayá	10	Octubre	2023-10-28T00:00:00	2024-11-06T02:00:00	3	Temperatura mínima	13.9
127692	7	Sololá	702	San José Chacayá	5	Chacayá	10	Octubre	2023-10-28T00:00:00	2024-11-06T02:00:00	5	Humedad	89
127693	7	Sololá	702	San José Chacayá	5	Chacayá	10	Octubre	2023-10-28T00:00:00	2024-11-06T02:00:00	6	Velocidad del viento	1.6
127694	7	Sololá	702	San José Chacayá	5	Chacayá	10	Octubre	2023-10-28T00:00:00	2024-11-06T02:00:00	7	Dirección del viento	1.61
127695	7	Sololá	702	San José Chacayá	5	Chacayá	10	Octubre	2023-10-28T00:00:00	2024-11-06T02:00:00	1	Precipitación	0
127696	7	Sololá	702	San José Chacayá	5	Chacayá	10	Octubre	2023-10-28T00:00:00	2024-11-06T02:00:00	8	Radiación solar	0
127697	7	Sololá	702	San José Chacayá	5	Chacayá	10	Octubre	2023-10-28T00:00:00	2024-11-06T03:00:00	2	Temperatura media	14.2
127698	7	Sololá	702	San José Chacayá	5	Chacayá	10	Octubre	2023-10-28T00:00:00	2024-11-06T03:00:00	4	Temperatura máxima	14.3
127699	7	Sololá	702	San José Chacayá	5	Chacayá	10	Octubre	2023-10-28T00:00:00	2024-11-06T03:00:00	3	Temperatura mínima	13.9
127700	7	Sololá	702	San José Chacayá	5	Chacayá	10	Octubre	2023-10-28T00:00:00	2024-11-06T03:00:00	5	Humedad	88
127701	7	Sololá	702	San José Chacayá	5	Chacayá	10	Octubre	2023-10-28T00:00:00	2024-11-06T03:00:00	6	Velocidad del viento	3.2
127702	7	Sololá	702	San José Chacayá	5	Chacayá	10	Octubre	2023-10-28T00:00:00	2024-11-06T03:00:00	7	Dirección del viento	3.22
127703	7	Sololá	702	San José Chacayá	5	Chacayá	10	Octubre	2023-10-28T00:00:00	2024-11-06T03:00:00	1	Precipitación	0
127704	7	Sololá	702	San José Chacayá	5	Chacayá	10	Octubre	2023-10-28T00:00:00	2024-11-06T03:00:00	8	Radiación solar	0
127705	7	Sololá	702	San José Chacayá	5	Chacayá	10	Octubre	2023-10-28T00:00:00	2024-11-06T04:00:00	2	Temperatura media	14.4
127706	7	Sololá	702	San José Chacayá	5	Chacayá	10	Octubre	2023-10-28T00:00:00	2024-11-06T04:00:00	4	Temperatura máxima	14.4
127707	7	Sololá	702	San José Chacayá	5	Chacayá	10	Octubre	2023-10-28T00:00:00	2024-11-06T04:00:00	3	Temperatura mínima	13.9
127708	7	Sololá	702	San José Chacayá	5	Chacayá	10	Octubre	2023-10-28T00:00:00	2024-11-06T04:00:00	5	Humedad	85
127709	7	Sololá	702	San José Chacayá	5	Chacayá	10	Octubre	2023-10-28T00:00:00	2024-11-06T04:00:00	6	Velocidad del viento	3.2
127710	7	Sololá	702	San José Chacayá	5	Chacayá	10	Octubre	2023-10-28T00:00:00	2024-11-06T04:00:00	7	Dirección del viento	3.22
127711	7	Sololá	702	San José Chacayá	5	Chacayá	10	Octubre	2023-10-28T00:00:00	2024-11-06T04:00:00	1	Precipitación	0
127712	7	Sololá	702	San José Chacayá	5	Chacayá	10	Octubre	2023-10-28T00:00:00	2024-11-06T04:00:00	8	Radiación solar	0
127713	7	Sololá	702	San José Chacayá	5	Chacayá	10	Octubre	2023-10-28T00:00:00	2024-11-06T05:00:00	2	Temperatura media	13.9
127714	7	Sololá	702	San José Chacayá	5	Chacayá	10	Octubre	2023-10-28T00:00:00	2024-11-06T05:00:00	4	Temperatura máxima	14.4
127715	7	Sololá	702	San José Chacayá	5	Chacayá	10	Octubre	2023-10-28T00:00:00	2024-11-06T05:00:00	3	Temperatura mínima	13.6
127716	7	Sololá	702	San José Chacayá	5	Chacayá	10	Octubre	2023-10-28T00:00:00	2024-11-06T05:00:00	5	Humedad	87
127717	7	Sololá	702	San José Chacayá	5	Chacayá	10	Octubre	2023-10-28T00:00:00	2024-11-06T05:00:00	6	Velocidad del viento	1.6
127718	7	Sololá	702	San José Chacayá	5	Chacayá	10	Octubre	2023-10-28T00:00:00	2024-11-06T05:00:00	7	Dirección del viento	1.61
127719	7	Sololá	702	San José Chacayá	5	Chacayá	10	Octubre	2023-10-28T00:00:00	2024-11-06T05:00:00	1	Precipitación	0
127720	7	Sololá	702	San José Chacayá	5	Chacayá	10	Octubre	2023-10-28T00:00:00	2024-11-06T05:00:00	8	Radiación solar	0
127721	7	Sololá	702	San José Chacayá	5	Chacayá	10	Octubre	2023-10-28T00:00:00	2024-11-06T06:00:00	2	Temperatura media	14.2
127722	7	Sololá	702	San José Chacayá	5	Chacayá	10	Octubre	2023-10-28T00:00:00	2024-11-06T06:00:00	4	Temperatura máxima	14.4
127723	7	Sololá	702	San José Chacayá	5	Chacayá	10	Octubre	2023-10-28T00:00:00	2024-11-06T06:00:00	3	Temperatura mínima	12.7
127724	7	Sololá	702	San José Chacayá	5	Chacayá	10	Octubre	2023-10-28T00:00:00	2024-11-06T06:00:00	5	Humedad	82
127725	7	Sololá	702	San José Chacayá	5	Chacayá	10	Octubre	2023-10-28T00:00:00	2024-11-06T06:00:00	6	Velocidad del viento	1.6
127726	7	Sololá	702	San José Chacayá	5	Chacayá	10	Octubre	2023-10-28T00:00:00	2024-11-06T06:00:00	7	Dirección del viento	1.61
127727	7	Sololá	702	San José Chacayá	5	Chacayá	10	Octubre	2023-10-28T00:00:00	2024-11-06T06:00:00	1	Precipitación	0
127728	7	Sololá	702	San José Chacayá	5	Chacayá	10	Octubre	2023-10-28T00:00:00	2024-11-06T06:00:00	8	Radiación solar	1
127729	7	Sololá	702	San José Chacayá	5	Chacayá	10	Octubre	2023-10-28T00:00:00	2024-11-06T07:00:00	2	Temperatura media	13.3
127730	7	Sololá	702	San José Chacayá	5	Chacayá	10	Octubre	2023-10-28T00:00:00	2024-11-06T07:00:00	4	Temperatura máxima	14.2
127731	7	Sololá	702	San José Chacayá	5	Chacayá	10	Octubre	2023-10-28T00:00:00	2024-11-06T07:00:00	3	Temperatura mínima	13.2
127732	7	Sololá	702	San José Chacayá	5	Chacayá	10	Octubre	2023-10-28T00:00:00	2024-11-06T07:00:00	5	Humedad	80
127733	7	Sololá	702	San José Chacayá	5	Chacayá	10	Octubre	2023-10-28T00:00:00	2024-11-06T07:00:00	6	Velocidad del viento	1.6
127734	7	Sololá	702	San José Chacayá	5	Chacayá	10	Octubre	2023-10-28T00:00:00	2024-11-06T07:00:00	7	Dirección del viento	1.61
127735	7	Sololá	702	San José Chacayá	5	Chacayá	10	Octubre	2023-10-28T00:00:00	2024-11-06T07:00:00	1	Precipitación	0
127736	7	Sololá	702	San José Chacayá	5	Chacayá	10	Octubre	2023-10-28T00:00:00	2024-11-06T07:00:00	8	Radiación solar	65
127737	7	Sololá	702	San José Chacayá	5	Chacayá	10	Octubre	2023-10-28T00:00:00	2024-11-06T08:00:00	2	Temperatura media	15.6
127738	7	Sololá	702	San José Chacayá	5	Chacayá	10	Octubre	2023-10-28T00:00:00	2024-11-06T08:00:00	4	Temperatura máxima	15.6
127739	7	Sololá	702	San José Chacayá	5	Chacayá	10	Octubre	2023-10-28T00:00:00	2024-11-06T08:00:00	3	Temperatura mínima	12.9
127740	7	Sololá	702	San José Chacayá	5	Chacayá	10	Octubre	2023-10-28T00:00:00	2024-11-06T08:00:00	5	Humedad	72
127741	7	Sololá	702	San José Chacayá	5	Chacayá	10	Octubre	2023-10-28T00:00:00	2024-11-06T08:00:00	6	Velocidad del viento	1.6
127742	7	Sololá	702	San José Chacayá	5	Chacayá	10	Octubre	2023-10-28T00:00:00	2024-11-06T08:00:00	7	Dirección del viento	1.61
127743	7	Sololá	702	San José Chacayá	5	Chacayá	10	Octubre	2023-10-28T00:00:00	2024-11-06T08:00:00	1	Precipitación	0
127744	7	Sololá	702	San José Chacayá	5	Chacayá	10	Octubre	2023-10-28T00:00:00	2024-11-06T08:00:00	8	Radiación solar	286
127745	7	Sololá	702	San José Chacayá	5	Chacayá	10	Octubre	2023-10-28T00:00:00	2024-11-06T09:00:00	2	Temperatura media	16.8
127746	7	Sololá	702	San José Chacayá	5	Chacayá	10	Octubre	2023-10-28T00:00:00	2024-11-06T09:00:00	4	Temperatura máxima	16.8
127747	7	Sololá	702	San José Chacayá	5	Chacayá	10	Octubre	2023-10-28T00:00:00	2024-11-06T09:00:00	3	Temperatura mínima	15.6
127748	7	Sololá	702	San José Chacayá	5	Chacayá	10	Octubre	2023-10-28T00:00:00	2024-11-06T09:00:00	5	Humedad	74
127749	7	Sololá	702	San José Chacayá	5	Chacayá	10	Octubre	2023-10-28T00:00:00	2024-11-06T09:00:00	6	Velocidad del viento	4.8
127750	7	Sololá	702	San José Chacayá	5	Chacayá	10	Octubre	2023-10-28T00:00:00	2024-11-06T09:00:00	7	Dirección del viento	4.83
127751	7	Sololá	702	San José Chacayá	5	Chacayá	10	Octubre	2023-10-28T00:00:00	2024-11-06T09:00:00	1	Precipitación	0
127752	7	Sololá	702	San José Chacayá	5	Chacayá	10	Octubre	2023-10-28T00:00:00	2024-11-06T09:00:00	8	Radiación solar	476
127753	7	Sololá	702	San José Chacayá	5	Chacayá	10	Octubre	2023-10-28T00:00:00	2024-11-06T10:00:00	2	Temperatura media	17.4
127754	7	Sololá	702	San José Chacayá	5	Chacayá	10	Octubre	2023-10-28T00:00:00	2024-11-06T10:00:00	4	Temperatura máxima	17.5
127755	7	Sololá	702	San José Chacayá	5	Chacayá	10	Octubre	2023-10-28T00:00:00	2024-11-06T10:00:00	3	Temperatura mínima	16.6
127756	7	Sololá	702	San José Chacayá	5	Chacayá	10	Octubre	2023-10-28T00:00:00	2024-11-06T10:00:00	5	Humedad	75
127757	7	Sololá	702	San José Chacayá	5	Chacayá	10	Octubre	2023-10-28T00:00:00	2024-11-06T10:00:00	6	Velocidad del viento	6.4
127758	7	Sololá	702	San José Chacayá	5	Chacayá	10	Octubre	2023-10-28T00:00:00	2024-11-06T10:00:00	7	Dirección del viento	6.44
127759	7	Sololá	702	San José Chacayá	5	Chacayá	10	Octubre	2023-10-28T00:00:00	2024-11-06T10:00:00	1	Precipitación	0
127760	7	Sololá	702	San José Chacayá	5	Chacayá	10	Octubre	2023-10-28T00:00:00	2024-11-06T10:00:00	8	Radiación solar	793
127761	7	Sololá	702	San José Chacayá	5	Chacayá	10	Octubre	2023-10-28T00:00:00	2024-11-06T11:00:00	2	Temperatura media	20.2
127762	7	Sololá	702	San José Chacayá	5	Chacayá	10	Octubre	2023-10-28T00:00:00	2024-11-06T11:00:00	4	Temperatura máxima	20.3
127763	7	Sololá	702	San José Chacayá	5	Chacayá	10	Octubre	2023-10-28T00:00:00	2024-11-06T11:00:00	3	Temperatura mínima	17.4
127764	7	Sololá	702	San José Chacayá	5	Chacayá	10	Octubre	2023-10-28T00:00:00	2024-11-06T11:00:00	5	Humedad	66
127765	7	Sololá	702	San José Chacayá	5	Chacayá	10	Octubre	2023-10-28T00:00:00	2024-11-06T11:00:00	6	Velocidad del viento	4.8
127766	7	Sololá	702	San José Chacayá	5	Chacayá	10	Octubre	2023-10-28T00:00:00	2024-11-06T11:00:00	7	Dirección del viento	4.83
127767	7	Sololá	702	San José Chacayá	5	Chacayá	10	Octubre	2023-10-28T00:00:00	2024-11-06T11:00:00	1	Precipitación	0
127768	7	Sololá	702	San José Chacayá	5	Chacayá	10	Octubre	2023-10-28T00:00:00	2024-11-06T11:00:00	8	Radiación solar	887
127769	7	Sololá	702	San José Chacayá	5	Chacayá	10	Octubre	2023-10-28T00:00:00	2024-11-06T12:00:00	2	Temperatura media	22
127770	7	Sololá	702	San José Chacayá	5	Chacayá	10	Octubre	2023-10-28T00:00:00	2024-11-06T12:00:00	4	Temperatura máxima	22
127771	7	Sololá	702	San José Chacayá	5	Chacayá	10	Octubre	2023-10-28T00:00:00	2024-11-06T12:00:00	3	Temperatura mínima	20.2
127772	7	Sololá	702	San José Chacayá	5	Chacayá	10	Octubre	2023-10-28T00:00:00	2024-11-06T12:00:00	5	Humedad	64
127773	7	Sololá	702	San José Chacayá	5	Chacayá	10	Octubre	2023-10-28T00:00:00	2024-11-06T12:00:00	6	Velocidad del viento	4.8
127774	7	Sololá	702	San José Chacayá	5	Chacayá	10	Octubre	2023-10-28T00:00:00	2024-11-06T12:00:00	7	Dirección del viento	4.83
127775	7	Sololá	702	San José Chacayá	5	Chacayá	10	Octubre	2023-10-28T00:00:00	2024-11-06T12:00:00	1	Precipitación	0
127776	7	Sololá	702	San José Chacayá	5	Chacayá	10	Octubre	2023-10-28T00:00:00	2024-11-06T12:00:00	8	Radiación solar	955
127777	7	Sololá	702	San José Chacayá	5	Chacayá	10	Octubre	2023-10-28T00:00:00	2024-11-06T13:00:00	2	Temperatura media	21.6
127778	7	Sololá	702	San José Chacayá	5	Chacayá	10	Octubre	2023-10-28T00:00:00	2024-11-06T13:00:00	4	Temperatura máxima	22
127779	7	Sololá	702	San José Chacayá	5	Chacayá	10	Octubre	2023-10-28T00:00:00	2024-11-06T13:00:00	3	Temperatura mínima	21.4
127780	7	Sololá	702	San José Chacayá	5	Chacayá	10	Octubre	2023-10-28T00:00:00	2024-11-06T13:00:00	5	Humedad	62
127781	7	Sololá	702	San José Chacayá	5	Chacayá	10	Octubre	2023-10-28T00:00:00	2024-11-06T13:00:00	6	Velocidad del viento	4.8
127782	7	Sololá	702	San José Chacayá	5	Chacayá	10	Octubre	2023-10-28T00:00:00	2024-11-06T13:00:00	7	Dirección del viento	4.83
127783	7	Sololá	702	San José Chacayá	5	Chacayá	10	Octubre	2023-10-28T00:00:00	2024-11-06T13:00:00	1	Precipitación	0
127784	7	Sololá	702	San José Chacayá	5	Chacayá	10	Octubre	2023-10-28T00:00:00	2024-11-06T13:00:00	8	Radiación solar	532
127785	7	Sololá	702	San José Chacayá	5	Chacayá	10	Octubre	2023-10-28T00:00:00	2024-11-06T14:00:00	2	Temperatura media	21.7
127786	7	Sololá	702	San José Chacayá	5	Chacayá	10	Octubre	2023-10-28T00:00:00	2024-11-06T14:00:00	4	Temperatura máxima	22.4
127787	7	Sololá	702	San José Chacayá	5	Chacayá	10	Octubre	2023-10-28T00:00:00	2024-11-06T14:00:00	3	Temperatura mínima	21.4
127788	7	Sololá	702	San José Chacayá	5	Chacayá	10	Octubre	2023-10-28T00:00:00	2024-11-06T14:00:00	5	Humedad	61
127789	7	Sololá	702	San José Chacayá	5	Chacayá	10	Octubre	2023-10-28T00:00:00	2024-11-06T14:00:00	6	Velocidad del viento	4.8
127790	7	Sololá	702	San José Chacayá	5	Chacayá	10	Octubre	2023-10-28T00:00:00	2024-11-06T14:00:00	7	Dirección del viento	4.83
127791	7	Sololá	702	San José Chacayá	5	Chacayá	10	Octubre	2023-10-28T00:00:00	2024-11-06T14:00:00	1	Precipitación	0
127792	7	Sololá	702	San José Chacayá	5	Chacayá	10	Octubre	2023-10-28T00:00:00	2024-11-06T14:00:00	8	Radiación solar	416
127793	7	Sololá	702	San José Chacayá	5	Chacayá	10	Octubre	2023-10-28T00:00:00	2024-11-06T15:00:00	2	Temperatura media	20.6
127794	7	Sololá	702	San José Chacayá	5	Chacayá	10	Octubre	2023-10-28T00:00:00	2024-11-06T15:00:00	4	Temperatura máxima	21.7
127795	7	Sololá	702	San José Chacayá	5	Chacayá	10	Octubre	2023-10-28T00:00:00	2024-11-06T15:00:00	3	Temperatura mínima	19.4
127796	7	Sololá	702	San José Chacayá	5	Chacayá	10	Octubre	2023-10-28T00:00:00	2024-11-06T15:00:00	5	Humedad	67
127797	7	Sololá	702	San José Chacayá	5	Chacayá	10	Octubre	2023-10-28T00:00:00	2024-11-06T15:00:00	6	Velocidad del viento	3.2
127798	7	Sololá	702	San José Chacayá	5	Chacayá	10	Octubre	2023-10-28T00:00:00	2024-11-06T15:00:00	7	Dirección del viento	3.22
127799	7	Sololá	702	San José Chacayá	5	Chacayá	10	Octubre	2023-10-28T00:00:00	2024-11-06T15:00:00	1	Precipitación	0
127800	7	Sololá	702	San José Chacayá	5	Chacayá	10	Octubre	2023-10-28T00:00:00	2024-11-06T15:00:00	8	Radiación solar	303
127801	7	Sololá	702	San José Chacayá	5	Chacayá	10	Octubre	2023-10-28T00:00:00	2024-11-06T16:00:00	2	Temperatura media	21.1
127802	7	Sololá	702	San José Chacayá	5	Chacayá	10	Octubre	2023-10-28T00:00:00	2024-11-06T16:00:00	4	Temperatura máxima	21.7
127803	7	Sololá	702	San José Chacayá	5	Chacayá	10	Octubre	2023-10-28T00:00:00	2024-11-06T16:00:00	3	Temperatura mínima	20.7
127804	7	Sololá	702	San José Chacayá	5	Chacayá	10	Octubre	2023-10-28T00:00:00	2024-11-06T16:00:00	5	Humedad	67
127805	7	Sololá	702	San José Chacayá	5	Chacayá	10	Octubre	2023-10-28T00:00:00	2024-11-06T16:00:00	6	Velocidad del viento	3.2
127806	7	Sololá	702	San José Chacayá	5	Chacayá	10	Octubre	2023-10-28T00:00:00	2024-11-06T16:00:00	7	Dirección del viento	3.22
127807	7	Sololá	702	San José Chacayá	5	Chacayá	10	Octubre	2023-10-28T00:00:00	2024-11-06T16:00:00	1	Precipitación	0
127808	7	Sololá	702	San José Chacayá	5	Chacayá	10	Octubre	2023-10-28T00:00:00	2024-11-06T16:00:00	8	Radiación solar	216
127809	7	Sololá	702	San José Chacayá	5	Chacayá	10	Octubre	2023-10-28T00:00:00	2024-11-06T17:00:00	2	Temperatura media	19.1
127810	7	Sololá	702	San José Chacayá	5	Chacayá	10	Octubre	2023-10-28T00:00:00	2024-11-06T17:00:00	4	Temperatura máxima	21.2
127811	7	Sololá	702	San José Chacayá	5	Chacayá	10	Octubre	2023-10-28T00:00:00	2024-11-06T17:00:00	3	Temperatura mínima	19.1
127812	7	Sololá	702	San José Chacayá	5	Chacayá	10	Octubre	2023-10-28T00:00:00	2024-11-06T17:00:00	5	Humedad	71
127813	7	Sololá	702	San José Chacayá	5	Chacayá	10	Octubre	2023-10-28T00:00:00	2024-11-06T17:00:00	6	Velocidad del viento	3.2
127814	7	Sololá	702	San José Chacayá	5	Chacayá	10	Octubre	2023-10-28T00:00:00	2024-11-06T17:00:00	7	Dirección del viento	3.22
127815	7	Sololá	702	San José Chacayá	5	Chacayá	10	Octubre	2023-10-28T00:00:00	2024-11-06T17:00:00	1	Precipitación	0
127816	7	Sololá	702	San José Chacayá	5	Chacayá	10	Octubre	2023-10-28T00:00:00	2024-11-06T17:00:00	8	Radiación solar	91
127817	7	Sololá	702	San José Chacayá	5	Chacayá	10	Octubre	2023-10-28T00:00:00	2024-11-06T18:00:00	2	Temperatura media	15.6
127818	7	Sololá	702	San José Chacayá	5	Chacayá	10	Octubre	2023-10-28T00:00:00	2024-11-06T18:00:00	4	Temperatura máxima	19.1
127819	7	Sololá	702	San José Chacayá	5	Chacayá	10	Octubre	2023-10-28T00:00:00	2024-11-06T18:00:00	3	Temperatura mínima	15.6
127820	7	Sololá	702	San José Chacayá	5	Chacayá	10	Octubre	2023-10-28T00:00:00	2024-11-06T18:00:00	5	Humedad	87
127821	7	Sololá	702	San José Chacayá	5	Chacayá	10	Octubre	2023-10-28T00:00:00	2024-11-06T18:00:00	6	Velocidad del viento	3.2
127822	7	Sololá	702	San José Chacayá	5	Chacayá	10	Octubre	2023-10-28T00:00:00	2024-11-06T18:00:00	7	Dirección del viento	3.22
127823	7	Sololá	702	San José Chacayá	5	Chacayá	10	Octubre	2023-10-28T00:00:00	2024-11-06T18:00:00	1	Precipitación	0
127824	7	Sololá	702	San José Chacayá	5	Chacayá	10	Octubre	2023-10-28T00:00:00	2024-11-06T18:00:00	8	Radiación solar	5
127825	7	Sololá	702	San José Chacayá	5	Chacayá	10	Octubre	2023-10-28T00:00:00	2024-11-06T19:00:00	2	Temperatura media	14.7
127826	7	Sololá	702	San José Chacayá	5	Chacayá	10	Octubre	2023-10-28T00:00:00	2024-11-06T19:00:00	4	Temperatura máxima	15.7
127827	7	Sololá	702	San José Chacayá	5	Chacayá	10	Octubre	2023-10-28T00:00:00	2024-11-06T19:00:00	3	Temperatura mínima	14.7
127828	7	Sololá	702	San José Chacayá	5	Chacayá	10	Octubre	2023-10-28T00:00:00	2024-11-06T19:00:00	5	Humedad	89
127829	7	Sololá	702	San José Chacayá	5	Chacayá	10	Octubre	2023-10-28T00:00:00	2024-11-06T19:00:00	6	Velocidad del viento	0
127830	7	Sololá	702	San José Chacayá	5	Chacayá	10	Octubre	2023-10-28T00:00:00	2024-11-06T19:00:00	7	Dirección del viento	0
127831	7	Sololá	702	San José Chacayá	5	Chacayá	10	Octubre	2023-10-28T00:00:00	2024-11-06T19:00:00	1	Precipitación	0
127832	7	Sololá	702	San José Chacayá	5	Chacayá	10	Octubre	2023-10-28T00:00:00	2024-11-06T19:00:00	8	Radiación solar	0
127833	7	Sololá	702	San José Chacayá	5	Chacayá	10	Octubre	2023-10-28T00:00:00	2024-11-06T20:00:00	2	Temperatura media	13.5
127834	7	Sololá	702	San José Chacayá	5	Chacayá	10	Octubre	2023-10-28T00:00:00	2024-11-06T20:00:00	4	Temperatura máxima	14.7
127835	7	Sololá	702	San José Chacayá	5	Chacayá	10	Octubre	2023-10-28T00:00:00	2024-11-06T20:00:00	3	Temperatura mínima	13.5
127836	7	Sololá	702	San José Chacayá	5	Chacayá	10	Octubre	2023-10-28T00:00:00	2024-11-06T20:00:00	5	Humedad	91
127837	7	Sololá	702	San José Chacayá	5	Chacayá	10	Octubre	2023-10-28T00:00:00	2024-11-06T20:00:00	6	Velocidad del viento	0
127838	7	Sololá	702	San José Chacayá	5	Chacayá	10	Octubre	2023-10-28T00:00:00	2024-11-06T20:00:00	7	Dirección del viento	0
127839	7	Sololá	702	San José Chacayá	5	Chacayá	10	Octubre	2023-10-28T00:00:00	2024-11-06T20:00:00	1	Precipitación	0
127840	7	Sololá	702	San José Chacayá	5	Chacayá	10	Octubre	2023-10-28T00:00:00	2024-11-06T20:00:00	8	Radiación solar	0
127841	7	Sololá	702	San José Chacayá	5	Chacayá	10	Octubre	2023-10-28T00:00:00	2024-11-06T21:00:00	2	Temperatura media	14.4
127842	7	Sololá	702	San José Chacayá	5	Chacayá	10	Octubre	2023-10-28T00:00:00	2024-11-06T21:00:00	4	Temperatura máxima	14.4
127843	7	Sololá	702	San José Chacayá	5	Chacayá	10	Octubre	2023-10-28T00:00:00	2024-11-06T21:00:00	3	Temperatura mínima	13.3
127844	7	Sololá	702	San José Chacayá	5	Chacayá	10	Octubre	2023-10-28T00:00:00	2024-11-06T21:00:00	5	Humedad	91
127845	7	Sololá	702	San José Chacayá	5	Chacayá	10	Octubre	2023-10-28T00:00:00	2024-11-06T21:00:00	6	Velocidad del viento	1.6
127846	7	Sololá	702	San José Chacayá	5	Chacayá	10	Octubre	2023-10-28T00:00:00	2024-11-06T21:00:00	7	Dirección del viento	1.61
127847	7	Sololá	702	San José Chacayá	5	Chacayá	10	Octubre	2023-10-28T00:00:00	2024-11-06T21:00:00	1	Precipitación	0
127848	7	Sololá	702	San José Chacayá	5	Chacayá	10	Octubre	2023-10-28T00:00:00	2024-11-06T21:00:00	8	Radiación solar	0
127849	7	Sololá	702	San José Chacayá	5	Chacayá	10	Octubre	2023-10-28T00:00:00	2024-11-06T22:00:00	2	Temperatura media	14.9
127850	7	Sololá	702	San José Chacayá	5	Chacayá	10	Octubre	2023-10-28T00:00:00	2024-11-06T22:00:00	4	Temperatura máxima	14.9
127851	7	Sololá	702	San José Chacayá	5	Chacayá	10	Octubre	2023-10-28T00:00:00	2024-11-06T22:00:00	3	Temperatura mínima	14.3
127852	7	Sololá	702	San José Chacayá	5	Chacayá	10	Octubre	2023-10-28T00:00:00	2024-11-06T22:00:00	5	Humedad	89
127853	7	Sololá	702	San José Chacayá	5	Chacayá	10	Octubre	2023-10-28T00:00:00	2024-11-06T22:00:00	6	Velocidad del viento	0
127854	7	Sololá	702	San José Chacayá	5	Chacayá	10	Octubre	2023-10-28T00:00:00	2024-11-06T22:00:00	7	Dirección del viento	0
127855	7	Sololá	702	San José Chacayá	5	Chacayá	10	Octubre	2023-10-28T00:00:00	2024-11-06T22:00:00	1	Precipitación	0
127856	7	Sololá	702	San José Chacayá	5	Chacayá	10	Octubre	2023-10-28T00:00:00	2024-11-06T22:00:00	8	Radiación solar	0
127857	7	Sololá	702	San José Chacayá	5	Chacayá	10	Octubre	2023-10-28T00:00:00	2024-11-06T23:00:00	2	Temperatura media	15
127858	7	Sololá	702	San José Chacayá	5	Chacayá	10	Octubre	2023-10-28T00:00:00	2024-11-06T23:00:00	4	Temperatura máxima	15.1
127859	7	Sololá	702	San José Chacayá	5	Chacayá	10	Octubre	2023-10-28T00:00:00	2024-11-06T23:00:00	3	Temperatura mínima	14.8
127860	7	Sololá	702	San José Chacayá	5	Chacayá	10	Octubre	2023-10-28T00:00:00	2024-11-06T23:00:00	5	Humedad	86
127861	7	Sololá	702	San José Chacayá	5	Chacayá	10	Octubre	2023-10-28T00:00:00	2024-11-06T23:00:00	6	Velocidad del viento	3.2
127862	7	Sololá	702	San José Chacayá	5	Chacayá	10	Octubre	2023-10-28T00:00:00	2024-11-06T23:00:00	7	Dirección del viento	3.22
127863	7	Sololá	702	San José Chacayá	5	Chacayá	10	Octubre	2023-10-28T00:00:00	2024-11-06T23:00:00	1	Precipitación	0
127864	7	Sololá	702	San José Chacayá	5	Chacayá	10	Octubre	2023-10-28T00:00:00	2024-11-06T23:00:00	8	Radiación solar	0
127865	7	Sololá	702	San José Chacayá	5	Chacayá	10	Octubre	2023-10-29T00:00:00	2024-11-06T00:00:00	2	Temperatura media	15
127866	7	Sololá	702	San José Chacayá	5	Chacayá	10	Octubre	2023-10-29T00:00:00	2024-11-06T00:00:00	4	Temperatura máxima	15.1
127867	7	Sololá	702	San José Chacayá	5	Chacayá	10	Octubre	2023-10-29T00:00:00	2024-11-06T00:00:00	3	Temperatura mínima	14.9
127868	7	Sololá	702	San José Chacayá	5	Chacayá	10	Octubre	2023-10-29T00:00:00	2024-11-06T00:00:00	5	Humedad	84
127869	7	Sololá	702	San José Chacayá	5	Chacayá	10	Octubre	2023-10-29T00:00:00	2024-11-06T00:00:00	6	Velocidad del viento	1.6
127870	7	Sololá	702	San José Chacayá	5	Chacayá	10	Octubre	2023-10-29T00:00:00	2024-11-06T00:00:00	7	Dirección del viento	1.61
127871	7	Sololá	702	San José Chacayá	5	Chacayá	10	Octubre	2023-10-29T00:00:00	2024-11-06T00:00:00	1	Precipitación	0
127872	7	Sololá	702	San José Chacayá	5	Chacayá	10	Octubre	2023-10-29T00:00:00	2024-11-06T00:00:00	8	Radiación solar	0
127873	7	Sololá	702	San José Chacayá	5	Chacayá	10	Octubre	2023-10-29T00:00:00	2024-11-06T01:00:00	2	Temperatura media	14.6
127874	7	Sololá	702	San José Chacayá	5	Chacayá	10	Octubre	2023-10-29T00:00:00	2024-11-06T01:00:00	4	Temperatura máxima	15.1
127875	7	Sololá	702	San José Chacayá	5	Chacayá	10	Octubre	2023-10-29T00:00:00	2024-11-06T01:00:00	3	Temperatura mínima	14.6
127876	7	Sololá	702	San José Chacayá	5	Chacayá	10	Octubre	2023-10-29T00:00:00	2024-11-06T01:00:00	5	Humedad	88
127877	7	Sololá	702	San José Chacayá	5	Chacayá	10	Octubre	2023-10-29T00:00:00	2024-11-06T01:00:00	6	Velocidad del viento	0
127878	7	Sololá	702	San José Chacayá	5	Chacayá	10	Octubre	2023-10-29T00:00:00	2024-11-06T01:00:00	7	Dirección del viento	0
127879	7	Sololá	702	San José Chacayá	5	Chacayá	10	Octubre	2023-10-29T00:00:00	2024-11-06T01:00:00	1	Precipitación	0
127880	7	Sololá	702	San José Chacayá	5	Chacayá	10	Octubre	2023-10-29T00:00:00	2024-11-06T01:00:00	8	Radiación solar	0
127881	7	Sololá	702	San José Chacayá	5	Chacayá	10	Octubre	2023-10-29T00:00:00	2024-11-06T02:00:00	2	Temperatura media	14.1
127882	7	Sololá	702	San José Chacayá	5	Chacayá	10	Octubre	2023-10-29T00:00:00	2024-11-06T02:00:00	4	Temperatura máxima	14.6
127883	7	Sololá	702	San José Chacayá	5	Chacayá	10	Octubre	2023-10-29T00:00:00	2024-11-06T02:00:00	3	Temperatura mínima	13.9
127884	7	Sololá	702	San José Chacayá	5	Chacayá	10	Octubre	2023-10-29T00:00:00	2024-11-06T02:00:00	5	Humedad	88
127885	7	Sololá	702	San José Chacayá	5	Chacayá	10	Octubre	2023-10-29T00:00:00	2024-11-06T02:00:00	6	Velocidad del viento	1.6
127886	7	Sololá	702	San José Chacayá	5	Chacayá	10	Octubre	2023-10-29T00:00:00	2024-11-06T02:00:00	7	Dirección del viento	1.61
127887	7	Sololá	702	San José Chacayá	5	Chacayá	10	Octubre	2023-10-29T00:00:00	2024-11-06T02:00:00	1	Precipitación	0
127888	7	Sololá	702	San José Chacayá	5	Chacayá	10	Octubre	2023-10-29T00:00:00	2024-11-06T02:00:00	8	Radiación solar	0
127889	7	Sololá	702	San José Chacayá	5	Chacayá	10	Octubre	2023-10-29T00:00:00	2024-11-06T03:00:00	2	Temperatura media	13.7
127890	7	Sololá	702	San José Chacayá	5	Chacayá	10	Octubre	2023-10-29T00:00:00	2024-11-06T03:00:00	4	Temperatura máxima	14.1
127891	7	Sololá	702	San José Chacayá	5	Chacayá	10	Octubre	2023-10-29T00:00:00	2024-11-06T03:00:00	3	Temperatura mínima	13.7
127892	7	Sololá	702	San José Chacayá	5	Chacayá	10	Octubre	2023-10-29T00:00:00	2024-11-06T03:00:00	5	Humedad	89
127893	7	Sololá	702	San José Chacayá	5	Chacayá	10	Octubre	2023-10-29T00:00:00	2024-11-06T03:00:00	6	Velocidad del viento	1.6
127894	7	Sololá	702	San José Chacayá	5	Chacayá	10	Octubre	2023-10-29T00:00:00	2024-11-06T03:00:00	7	Dirección del viento	1.61
127895	7	Sololá	702	San José Chacayá	5	Chacayá	10	Octubre	2023-10-29T00:00:00	2024-11-06T03:00:00	1	Precipitación	0
127896	7	Sololá	702	San José Chacayá	5	Chacayá	10	Octubre	2023-10-29T00:00:00	2024-11-06T03:00:00	8	Radiación solar	0
127897	7	Sololá	702	San José Chacayá	5	Chacayá	10	Octubre	2023-10-29T00:00:00	2024-11-06T04:00:00	2	Temperatura media	13.8
127898	7	Sololá	702	San José Chacayá	5	Chacayá	10	Octubre	2023-10-29T00:00:00	2024-11-06T04:00:00	4	Temperatura máxima	14
127899	7	Sololá	702	San José Chacayá	5	Chacayá	10	Octubre	2023-10-29T00:00:00	2024-11-06T04:00:00	3	Temperatura mínima	13.7
127900	7	Sololá	702	San José Chacayá	5	Chacayá	10	Octubre	2023-10-29T00:00:00	2024-11-06T04:00:00	5	Humedad	87
127901	7	Sololá	702	San José Chacayá	5	Chacayá	10	Octubre	2023-10-29T00:00:00	2024-11-06T04:00:00	6	Velocidad del viento	1.6
127902	7	Sololá	702	San José Chacayá	5	Chacayá	10	Octubre	2023-10-29T00:00:00	2024-11-06T04:00:00	7	Dirección del viento	1.61
127903	7	Sololá	702	San José Chacayá	5	Chacayá	10	Octubre	2023-10-29T00:00:00	2024-11-06T04:00:00	1	Precipitación	0
127904	7	Sololá	702	San José Chacayá	5	Chacayá	10	Octubre	2023-10-29T00:00:00	2024-11-06T04:00:00	8	Radiación solar	0
127905	7	Sololá	702	San José Chacayá	5	Chacayá	10	Octubre	2023-10-29T00:00:00	2024-11-06T05:00:00	2	Temperatura media	13.4
127906	7	Sololá	702	San José Chacayá	5	Chacayá	10	Octubre	2023-10-29T00:00:00	2024-11-06T05:00:00	4	Temperatura máxima	13.9
127907	7	Sololá	702	San José Chacayá	5	Chacayá	10	Octubre	2023-10-29T00:00:00	2024-11-06T05:00:00	3	Temperatura mínima	13.1
127908	7	Sololá	702	San José Chacayá	5	Chacayá	10	Octubre	2023-10-29T00:00:00	2024-11-06T05:00:00	5	Humedad	89
127909	7	Sololá	702	San José Chacayá	5	Chacayá	10	Octubre	2023-10-29T00:00:00	2024-11-06T05:00:00	6	Velocidad del viento	1.6
127910	7	Sololá	702	San José Chacayá	5	Chacayá	10	Octubre	2023-10-29T00:00:00	2024-11-06T05:00:00	7	Dirección del viento	1.61
127911	7	Sololá	702	San José Chacayá	5	Chacayá	10	Octubre	2023-10-29T00:00:00	2024-11-06T05:00:00	1	Precipitación	0
127912	7	Sololá	702	San José Chacayá	5	Chacayá	10	Octubre	2023-10-29T00:00:00	2024-11-06T05:00:00	8	Radiación solar	0
127913	7	Sololá	702	San José Chacayá	5	Chacayá	10	Octubre	2023-10-29T00:00:00	2024-11-06T06:00:00	2	Temperatura media	13.3
127914	7	Sololá	702	San José Chacayá	5	Chacayá	10	Octubre	2023-10-29T00:00:00	2024-11-06T06:00:00	4	Temperatura máxima	13.6
127915	7	Sololá	702	San José Chacayá	5	Chacayá	10	Octubre	2023-10-29T00:00:00	2024-11-06T06:00:00	3	Temperatura mínima	13.2
127916	7	Sololá	702	San José Chacayá	5	Chacayá	10	Octubre	2023-10-29T00:00:00	2024-11-06T06:00:00	5	Humedad	89
127917	7	Sololá	702	San José Chacayá	5	Chacayá	10	Octubre	2023-10-29T00:00:00	2024-11-06T06:00:00	6	Velocidad del viento	1.6
127918	7	Sololá	702	San José Chacayá	5	Chacayá	10	Octubre	2023-10-29T00:00:00	2024-11-06T06:00:00	7	Dirección del viento	1.61
127919	7	Sololá	702	San José Chacayá	5	Chacayá	10	Octubre	2023-10-29T00:00:00	2024-11-06T06:00:00	1	Precipitación	0
127920	7	Sololá	702	San José Chacayá	5	Chacayá	10	Octubre	2023-10-29T00:00:00	2024-11-06T06:00:00	8	Radiación solar	0
127921	7	Sololá	702	San José Chacayá	5	Chacayá	10	Octubre	2023-10-29T00:00:00	2024-11-06T07:00:00	2	Temperatura media	13.4
127922	7	Sololá	702	San José Chacayá	5	Chacayá	10	Octubre	2023-10-29T00:00:00	2024-11-06T07:00:00	4	Temperatura máxima	13.4
127923	7	Sololá	702	San José Chacayá	5	Chacayá	10	Octubre	2023-10-29T00:00:00	2024-11-06T07:00:00	3	Temperatura mínima	12.6
127924	7	Sololá	702	San José Chacayá	5	Chacayá	10	Octubre	2023-10-29T00:00:00	2024-11-06T07:00:00	5	Humedad	88
127925	7	Sololá	702	San José Chacayá	5	Chacayá	10	Octubre	2023-10-29T00:00:00	2024-11-06T07:00:00	6	Velocidad del viento	1.6
127926	7	Sololá	702	San José Chacayá	5	Chacayá	10	Octubre	2023-10-29T00:00:00	2024-11-06T07:00:00	7	Dirección del viento	1.61
127927	7	Sololá	702	San José Chacayá	5	Chacayá	10	Octubre	2023-10-29T00:00:00	2024-11-06T07:00:00	1	Precipitación	0
127928	7	Sololá	702	San José Chacayá	5	Chacayá	10	Octubre	2023-10-29T00:00:00	2024-11-06T07:00:00	8	Radiación solar	77
127929	7	Sololá	702	San José Chacayá	5	Chacayá	10	Octubre	2023-10-29T00:00:00	2024-11-06T08:00:00	2	Temperatura media	15.8
127930	7	Sololá	702	San José Chacayá	5	Chacayá	10	Octubre	2023-10-29T00:00:00	2024-11-06T08:00:00	4	Temperatura máxima	15.8
127931	7	Sololá	702	San José Chacayá	5	Chacayá	10	Octubre	2023-10-29T00:00:00	2024-11-06T08:00:00	3	Temperatura mínima	13.4
127932	7	Sololá	702	San José Chacayá	5	Chacayá	10	Octubre	2023-10-29T00:00:00	2024-11-06T08:00:00	5	Humedad	80
127933	7	Sololá	702	San José Chacayá	5	Chacayá	10	Octubre	2023-10-29T00:00:00	2024-11-06T08:00:00	6	Velocidad del viento	3.2
127934	7	Sololá	702	San José Chacayá	5	Chacayá	10	Octubre	2023-10-29T00:00:00	2024-11-06T08:00:00	7	Dirección del viento	3.22
127935	7	Sololá	702	San José Chacayá	5	Chacayá	10	Octubre	2023-10-29T00:00:00	2024-11-06T08:00:00	1	Precipitación	0
127936	7	Sololá	702	San José Chacayá	5	Chacayá	10	Octubre	2023-10-29T00:00:00	2024-11-06T08:00:00	8	Radiación solar	299
127937	7	Sololá	702	San José Chacayá	5	Chacayá	10	Octubre	2023-10-29T00:00:00	2024-11-06T09:00:00	2	Temperatura media	15.6
127938	7	Sololá	702	San José Chacayá	5	Chacayá	10	Octubre	2023-10-29T00:00:00	2024-11-06T09:00:00	4	Temperatura máxima	16.3
127939	7	Sololá	702	San José Chacayá	5	Chacayá	10	Octubre	2023-10-29T00:00:00	2024-11-06T09:00:00	3	Temperatura mínima	15.6
127940	7	Sololá	702	San José Chacayá	5	Chacayá	10	Octubre	2023-10-29T00:00:00	2024-11-06T09:00:00	5	Humedad	81
127941	7	Sololá	702	San José Chacayá	5	Chacayá	10	Octubre	2023-10-29T00:00:00	2024-11-06T09:00:00	6	Velocidad del viento	3.2
127942	7	Sololá	702	San José Chacayá	5	Chacayá	10	Octubre	2023-10-29T00:00:00	2024-11-06T09:00:00	7	Dirección del viento	3.22
127943	7	Sololá	702	San José Chacayá	5	Chacayá	10	Octubre	2023-10-29T00:00:00	2024-11-06T09:00:00	1	Precipitación	0
127944	7	Sololá	702	San José Chacayá	5	Chacayá	10	Octubre	2023-10-29T00:00:00	2024-11-06T09:00:00	8	Radiación solar	517
127945	7	Sololá	702	San José Chacayá	5	Chacayá	10	Octubre	2023-10-29T00:00:00	2024-11-06T10:00:00	2	Temperatura media	18.7
127946	7	Sololá	702	San José Chacayá	5	Chacayá	10	Octubre	2023-10-29T00:00:00	2024-11-06T10:00:00	4	Temperatura máxima	18.7
127947	7	Sololá	702	San José Chacayá	5	Chacayá	10	Octubre	2023-10-29T00:00:00	2024-11-06T10:00:00	3	Temperatura mínima	15.7
127948	7	Sololá	702	San José Chacayá	5	Chacayá	10	Octubre	2023-10-29T00:00:00	2024-11-06T10:00:00	5	Humedad	73
127949	7	Sololá	702	San José Chacayá	5	Chacayá	10	Octubre	2023-10-29T00:00:00	2024-11-06T10:00:00	6	Velocidad del viento	4.8
127950	7	Sololá	702	San José Chacayá	5	Chacayá	10	Octubre	2023-10-29T00:00:00	2024-11-06T10:00:00	7	Dirección del viento	4.83
127951	7	Sololá	702	San José Chacayá	5	Chacayá	10	Octubre	2023-10-29T00:00:00	2024-11-06T10:00:00	1	Precipitación	0
127952	7	Sololá	702	San José Chacayá	5	Chacayá	10	Octubre	2023-10-29T00:00:00	2024-11-06T10:00:00	8	Radiación solar	734
127953	7	Sololá	702	San José Chacayá	5	Chacayá	10	Octubre	2023-10-29T00:00:00	2024-11-06T11:00:00	2	Temperatura media	18.7
127954	7	Sololá	702	San José Chacayá	5	Chacayá	10	Octubre	2023-10-29T00:00:00	2024-11-06T11:00:00	4	Temperatura máxima	19.5
127955	7	Sololá	702	San José Chacayá	5	Chacayá	10	Octubre	2023-10-29T00:00:00	2024-11-06T11:00:00	3	Temperatura mínima	18
127956	7	Sololá	702	San José Chacayá	5	Chacayá	10	Octubre	2023-10-29T00:00:00	2024-11-06T11:00:00	5	Humedad	72
127957	7	Sololá	702	San José Chacayá	5	Chacayá	10	Octubre	2023-10-29T00:00:00	2024-11-06T11:00:00	6	Velocidad del viento	3.2
127958	7	Sololá	702	San José Chacayá	5	Chacayá	10	Octubre	2023-10-29T00:00:00	2024-11-06T11:00:00	7	Dirección del viento	3.22
127959	7	Sololá	702	San José Chacayá	5	Chacayá	10	Octubre	2023-10-29T00:00:00	2024-11-06T11:00:00	1	Precipitación	0
127960	7	Sololá	702	San José Chacayá	5	Chacayá	10	Octubre	2023-10-29T00:00:00	2024-11-06T11:00:00	8	Radiación solar	858
127961	7	Sololá	702	San José Chacayá	5	Chacayá	10	Octubre	2023-10-29T00:00:00	2024-11-06T12:00:00	2	Temperatura media	20.9
127962	7	Sololá	702	San José Chacayá	5	Chacayá	10	Octubre	2023-10-29T00:00:00	2024-11-06T12:00:00	4	Temperatura máxima	21.2
127963	7	Sololá	702	San José Chacayá	5	Chacayá	10	Octubre	2023-10-29T00:00:00	2024-11-06T12:00:00	3	Temperatura mínima	18.7
127964	7	Sololá	702	San José Chacayá	5	Chacayá	10	Octubre	2023-10-29T00:00:00	2024-11-06T12:00:00	5	Humedad	66
127965	7	Sololá	702	San José Chacayá	5	Chacayá	10	Octubre	2023-10-29T00:00:00	2024-11-06T12:00:00	6	Velocidad del viento	3.2
127966	7	Sololá	702	San José Chacayá	5	Chacayá	10	Octubre	2023-10-29T00:00:00	2024-11-06T12:00:00	7	Dirección del viento	3.22
127967	7	Sololá	702	San José Chacayá	5	Chacayá	10	Octubre	2023-10-29T00:00:00	2024-11-06T12:00:00	1	Precipitación	0
127968	7	Sololá	702	San José Chacayá	5	Chacayá	10	Octubre	2023-10-29T00:00:00	2024-11-06T12:00:00	8	Radiación solar	964
127969	7	Sololá	702	San José Chacayá	5	Chacayá	10	Octubre	2023-10-29T00:00:00	2024-11-06T13:00:00	2	Temperatura media	20.7
127970	7	Sololá	702	San José Chacayá	5	Chacayá	10	Octubre	2023-10-29T00:00:00	2024-11-06T13:00:00	4	Temperatura máxima	22.1
127971	7	Sololá	702	San José Chacayá	5	Chacayá	10	Octubre	2023-10-29T00:00:00	2024-11-06T13:00:00	3	Temperatura mínima	20.7
127972	7	Sololá	702	San José Chacayá	5	Chacayá	10	Octubre	2023-10-29T00:00:00	2024-11-06T13:00:00	5	Humedad	64
127973	7	Sololá	702	San José Chacayá	5	Chacayá	10	Octubre	2023-10-29T00:00:00	2024-11-06T13:00:00	6	Velocidad del viento	4.8
127974	7	Sololá	702	San José Chacayá	5	Chacayá	10	Octubre	2023-10-29T00:00:00	2024-11-06T13:00:00	7	Dirección del viento	4.83
127975	7	Sololá	702	San José Chacayá	5	Chacayá	10	Octubre	2023-10-29T00:00:00	2024-11-06T13:00:00	1	Precipitación	0
127976	7	Sololá	702	San José Chacayá	5	Chacayá	10	Octubre	2023-10-29T00:00:00	2024-11-06T13:00:00	8	Radiación solar	570
127977	7	Sololá	702	San José Chacayá	5	Chacayá	10	Octubre	2023-10-29T00:00:00	2024-11-06T14:00:00	2	Temperatura media	22.4
127978	7	Sololá	702	San José Chacayá	5	Chacayá	10	Octubre	2023-10-29T00:00:00	2024-11-06T14:00:00	4	Temperatura máxima	22.5
127979	7	Sololá	702	San José Chacayá	5	Chacayá	10	Octubre	2023-10-29T00:00:00	2024-11-06T14:00:00	3	Temperatura mínima	20.4
127980	7	Sololá	702	San José Chacayá	5	Chacayá	10	Octubre	2023-10-29T00:00:00	2024-11-06T14:00:00	5	Humedad	62
127981	7	Sololá	702	San José Chacayá	5	Chacayá	10	Octubre	2023-10-29T00:00:00	2024-11-06T14:00:00	6	Velocidad del viento	3.2
127982	7	Sololá	702	San José Chacayá	5	Chacayá	10	Octubre	2023-10-29T00:00:00	2024-11-06T14:00:00	7	Dirección del viento	3.22
127983	7	Sololá	702	San José Chacayá	5	Chacayá	10	Octubre	2023-10-29T00:00:00	2024-11-06T14:00:00	1	Precipitación	0
127984	7	Sololá	702	San José Chacayá	5	Chacayá	10	Octubre	2023-10-29T00:00:00	2024-11-06T14:00:00	8	Radiación solar	260
127985	7	Sololá	702	San José Chacayá	5	Chacayá	10	Octubre	2023-10-29T00:00:00	2024-11-06T15:00:00	2	Temperatura media	18.7
127986	7	Sololá	702	San José Chacayá	5	Chacayá	10	Octubre	2023-10-29T00:00:00	2024-11-06T15:00:00	4	Temperatura máxima	22.6
127987	7	Sololá	702	San José Chacayá	5	Chacayá	10	Octubre	2023-10-29T00:00:00	2024-11-06T15:00:00	3	Temperatura mínima	18.7
127988	7	Sololá	702	San José Chacayá	5	Chacayá	10	Octubre	2023-10-29T00:00:00	2024-11-06T15:00:00	5	Humedad	73
127989	7	Sololá	702	San José Chacayá	5	Chacayá	10	Octubre	2023-10-29T00:00:00	2024-11-06T15:00:00	6	Velocidad del viento	4.8
127990	7	Sololá	702	San José Chacayá	5	Chacayá	10	Octubre	2023-10-29T00:00:00	2024-11-06T15:00:00	7	Dirección del viento	4.83
127991	7	Sololá	702	San José Chacayá	5	Chacayá	10	Octubre	2023-10-29T00:00:00	2024-11-06T15:00:00	1	Precipitación	0
127992	7	Sololá	702	San José Chacayá	5	Chacayá	10	Octubre	2023-10-29T00:00:00	2024-11-06T15:00:00	8	Radiación solar	245
127993	7	Sololá	702	San José Chacayá	5	Chacayá	10	Octubre	2023-10-29T00:00:00	2024-11-06T16:00:00	2	Temperatura media	18.2
127994	7	Sololá	702	San José Chacayá	5	Chacayá	10	Octubre	2023-10-29T00:00:00	2024-11-06T16:00:00	4	Temperatura máxima	18.8
127995	7	Sololá	702	San José Chacayá	5	Chacayá	10	Octubre	2023-10-29T00:00:00	2024-11-06T16:00:00	3	Temperatura mínima	17.9
127996	7	Sololá	702	San José Chacayá	5	Chacayá	10	Octubre	2023-10-29T00:00:00	2024-11-06T16:00:00	5	Humedad	75
127997	7	Sololá	702	San José Chacayá	5	Chacayá	10	Octubre	2023-10-29T00:00:00	2024-11-06T16:00:00	6	Velocidad del viento	4.8
127998	7	Sololá	702	San José Chacayá	5	Chacayá	10	Octubre	2023-10-29T00:00:00	2024-11-06T16:00:00	7	Dirección del viento	4.83
127999	7	Sololá	702	San José Chacayá	5	Chacayá	10	Octubre	2023-10-29T00:00:00	2024-11-06T16:00:00	1	Precipitación	0
128000	7	Sololá	702	San José Chacayá	5	Chacayá	10	Octubre	2023-10-29T00:00:00	2024-11-06T16:00:00	8	Radiación solar	68
128001	7	Sololá	702	San José Chacayá	5	Chacayá	10	Octubre	2023-10-29T00:00:00	2024-11-06T17:00:00	2	Temperatura media	16.2
128002	7	Sololá	702	San José Chacayá	5	Chacayá	10	Octubre	2023-10-29T00:00:00	2024-11-06T17:00:00	4	Temperatura máxima	18.4
128003	7	Sololá	702	San José Chacayá	5	Chacayá	10	Octubre	2023-10-29T00:00:00	2024-11-06T17:00:00	3	Temperatura mínima	16.2
128004	7	Sololá	702	San José Chacayá	5	Chacayá	10	Octubre	2023-10-29T00:00:00	2024-11-06T17:00:00	5	Humedad	81
128005	7	Sololá	702	San José Chacayá	5	Chacayá	10	Octubre	2023-10-29T00:00:00	2024-11-06T17:00:00	6	Velocidad del viento	4.8
128006	7	Sololá	702	San José Chacayá	5	Chacayá	10	Octubre	2023-10-29T00:00:00	2024-11-06T17:00:00	7	Dirección del viento	4.83
128007	7	Sololá	702	San José Chacayá	5	Chacayá	10	Octubre	2023-10-29T00:00:00	2024-11-06T17:00:00	1	Precipitación	0
128008	7	Sololá	702	San José Chacayá	5	Chacayá	10	Octubre	2023-10-29T00:00:00	2024-11-06T17:00:00	8	Radiación solar	14
128009	7	Sololá	702	San José Chacayá	5	Chacayá	10	Octubre	2023-10-29T00:00:00	2024-11-06T18:00:00	2	Temperatura media	15.9
128010	7	Sololá	702	San José Chacayá	5	Chacayá	10	Octubre	2023-10-29T00:00:00	2024-11-06T18:00:00	4	Temperatura máxima	16.2
128011	7	Sololá	702	San José Chacayá	5	Chacayá	10	Octubre	2023-10-29T00:00:00	2024-11-06T18:00:00	3	Temperatura mínima	15.8
128012	7	Sololá	702	San José Chacayá	5	Chacayá	10	Octubre	2023-10-29T00:00:00	2024-11-06T18:00:00	5	Humedad	80
128013	7	Sololá	702	San José Chacayá	5	Chacayá	10	Octubre	2023-10-29T00:00:00	2024-11-06T18:00:00	6	Velocidad del viento	1.6
128014	7	Sololá	702	San José Chacayá	5	Chacayá	10	Octubre	2023-10-29T00:00:00	2024-11-06T18:00:00	7	Dirección del viento	1.61
128015	7	Sololá	702	San José Chacayá	5	Chacayá	10	Octubre	2023-10-29T00:00:00	2024-11-06T18:00:00	1	Precipitación	0
128016	7	Sololá	702	San José Chacayá	5	Chacayá	10	Octubre	2023-10-29T00:00:00	2024-11-06T18:00:00	8	Radiación solar	0
128017	7	Sololá	702	San José Chacayá	5	Chacayá	10	Octubre	2023-10-29T00:00:00	2024-11-06T19:00:00	2	Temperatura media	15.9
128018	7	Sololá	702	San José Chacayá	5	Chacayá	10	Octubre	2023-10-29T00:00:00	2024-11-06T19:00:00	4	Temperatura máxima	16.1
128019	7	Sololá	702	San José Chacayá	5	Chacayá	10	Octubre	2023-10-29T00:00:00	2024-11-06T19:00:00	3	Temperatura mínima	15.9
128020	7	Sololá	702	San José Chacayá	5	Chacayá	10	Octubre	2023-10-29T00:00:00	2024-11-06T19:00:00	5	Humedad	79
128021	7	Sololá	702	San José Chacayá	5	Chacayá	10	Octubre	2023-10-29T00:00:00	2024-11-06T19:00:00	6	Velocidad del viento	1.6
128022	7	Sololá	702	San José Chacayá	5	Chacayá	10	Octubre	2023-10-29T00:00:00	2024-11-06T19:00:00	7	Dirección del viento	1.61
128023	7	Sololá	702	San José Chacayá	5	Chacayá	10	Octubre	2023-10-29T00:00:00	2024-11-06T19:00:00	1	Precipitación	0
128024	7	Sololá	702	San José Chacayá	5	Chacayá	10	Octubre	2023-10-29T00:00:00	2024-11-06T19:00:00	8	Radiación solar	0
128025	7	Sololá	702	San José Chacayá	5	Chacayá	10	Octubre	2023-10-29T00:00:00	2024-11-06T20:00:00	2	Temperatura media	15.4
128026	7	Sololá	702	San José Chacayá	5	Chacayá	10	Octubre	2023-10-29T00:00:00	2024-11-06T20:00:00	4	Temperatura máxima	15.9
128027	7	Sololá	702	San José Chacayá	5	Chacayá	10	Octubre	2023-10-29T00:00:00	2024-11-06T20:00:00	3	Temperatura mínima	15.4
128028	7	Sololá	702	San José Chacayá	5	Chacayá	10	Octubre	2023-10-29T00:00:00	2024-11-06T20:00:00	5	Humedad	82
128029	7	Sololá	702	San José Chacayá	5	Chacayá	10	Octubre	2023-10-29T00:00:00	2024-11-06T20:00:00	6	Velocidad del viento	3.2
128030	7	Sololá	702	San José Chacayá	5	Chacayá	10	Octubre	2023-10-29T00:00:00	2024-11-06T20:00:00	7	Dirección del viento	3.22
128031	7	Sololá	702	San José Chacayá	5	Chacayá	10	Octubre	2023-10-29T00:00:00	2024-11-06T20:00:00	1	Precipitación	0
128032	7	Sololá	702	San José Chacayá	5	Chacayá	10	Octubre	2023-10-29T00:00:00	2024-11-06T20:00:00	8	Radiación solar	0
128033	7	Sololá	702	San José Chacayá	5	Chacayá	10	Octubre	2023-10-29T00:00:00	2024-11-06T21:00:00	2	Temperatura media	14.9
128034	7	Sololá	702	San José Chacayá	5	Chacayá	10	Octubre	2023-10-29T00:00:00	2024-11-06T21:00:00	4	Temperatura máxima	15.4
128035	7	Sololá	702	San José Chacayá	5	Chacayá	10	Octubre	2023-10-29T00:00:00	2024-11-06T21:00:00	3	Temperatura mínima	14.9
128036	7	Sololá	702	San José Chacayá	5	Chacayá	10	Octubre	2023-10-29T00:00:00	2024-11-06T21:00:00	5	Humedad	84
128037	7	Sololá	702	San José Chacayá	5	Chacayá	10	Octubre	2023-10-29T00:00:00	2024-11-06T21:00:00	6	Velocidad del viento	1.6
128038	7	Sololá	702	San José Chacayá	5	Chacayá	10	Octubre	2023-10-29T00:00:00	2024-11-06T21:00:00	7	Dirección del viento	1.61
128039	7	Sololá	702	San José Chacayá	5	Chacayá	10	Octubre	2023-10-29T00:00:00	2024-11-06T21:00:00	1	Precipitación	0
128040	7	Sololá	702	San José Chacayá	5	Chacayá	10	Octubre	2023-10-29T00:00:00	2024-11-06T21:00:00	8	Radiación solar	0
128041	7	Sololá	702	San José Chacayá	5	Chacayá	10	Octubre	2023-10-29T00:00:00	2024-11-06T22:00:00	2	Temperatura media	14.9
128042	7	Sololá	702	San José Chacayá	5	Chacayá	10	Octubre	2023-10-29T00:00:00	2024-11-06T22:00:00	4	Temperatura máxima	15.2
128043	7	Sololá	702	San José Chacayá	5	Chacayá	10	Octubre	2023-10-29T00:00:00	2024-11-06T22:00:00	3	Temperatura mínima	14.9
128044	7	Sololá	702	San José Chacayá	5	Chacayá	10	Octubre	2023-10-29T00:00:00	2024-11-06T22:00:00	5	Humedad	84
128045	7	Sololá	702	San José Chacayá	5	Chacayá	10	Octubre	2023-10-29T00:00:00	2024-11-06T22:00:00	6	Velocidad del viento	1.6
128046	7	Sololá	702	San José Chacayá	5	Chacayá	10	Octubre	2023-10-29T00:00:00	2024-11-06T22:00:00	7	Dirección del viento	1.61
128047	7	Sololá	702	San José Chacayá	5	Chacayá	10	Octubre	2023-10-29T00:00:00	2024-11-06T22:00:00	1	Precipitación	0
128048	7	Sololá	702	San José Chacayá	5	Chacayá	10	Octubre	2023-10-29T00:00:00	2024-11-06T22:00:00	8	Radiación solar	0
128049	7	Sololá	702	San José Chacayá	5	Chacayá	10	Octubre	2023-10-29T00:00:00	2024-11-06T23:00:00	2	Temperatura media	14.6
128050	7	Sololá	702	San José Chacayá	5	Chacayá	10	Octubre	2023-10-29T00:00:00	2024-11-06T23:00:00	4	Temperatura máxima	14.9
128051	7	Sololá	702	San José Chacayá	5	Chacayá	10	Octubre	2023-10-29T00:00:00	2024-11-06T23:00:00	3	Temperatura mínima	14.6
128052	7	Sololá	702	San José Chacayá	5	Chacayá	10	Octubre	2023-10-29T00:00:00	2024-11-06T23:00:00	5	Humedad	86
128053	7	Sololá	702	San José Chacayá	5	Chacayá	10	Octubre	2023-10-29T00:00:00	2024-11-06T23:00:00	6	Velocidad del viento	1.6
128054	7	Sololá	702	San José Chacayá	5	Chacayá	10	Octubre	2023-10-29T00:00:00	2024-11-06T23:00:00	7	Dirección del viento	1.61
128055	7	Sololá	702	San José Chacayá	5	Chacayá	10	Octubre	2023-10-29T00:00:00	2024-11-06T23:00:00	1	Precipitación	0
128056	7	Sololá	702	San José Chacayá	5	Chacayá	10	Octubre	2023-10-29T00:00:00	2024-11-06T23:00:00	8	Radiación solar	0
128057	7	Sololá	702	San José Chacayá	5	Chacayá	10	Octubre	2023-10-30T00:00:00	2024-11-06T00:00:00	2	Temperatura media	13.8
128058	7	Sololá	702	San José Chacayá	5	Chacayá	10	Octubre	2023-10-30T00:00:00	2024-11-06T00:00:00	4	Temperatura máxima	14.7
128059	7	Sololá	702	San José Chacayá	5	Chacayá	10	Octubre	2023-10-30T00:00:00	2024-11-06T00:00:00	3	Temperatura mínima	13.8
128060	7	Sololá	702	San José Chacayá	5	Chacayá	10	Octubre	2023-10-30T00:00:00	2024-11-06T00:00:00	5	Humedad	89
128061	7	Sololá	702	San José Chacayá	5	Chacayá	10	Octubre	2023-10-30T00:00:00	2024-11-06T00:00:00	6	Velocidad del viento	0
128062	7	Sololá	702	San José Chacayá	5	Chacayá	10	Octubre	2023-10-30T00:00:00	2024-11-06T00:00:00	7	Dirección del viento	0
128063	7	Sololá	702	San José Chacayá	5	Chacayá	10	Octubre	2023-10-30T00:00:00	2024-11-06T00:00:00	1	Precipitación	0
128064	7	Sololá	702	San José Chacayá	5	Chacayá	10	Octubre	2023-10-30T00:00:00	2024-11-06T00:00:00	8	Radiación solar	0
128065	7	Sololá	702	San José Chacayá	5	Chacayá	10	Octubre	2023-10-30T00:00:00	2024-11-06T01:00:00	2	Temperatura media	14.2
128066	7	Sololá	702	San José Chacayá	5	Chacayá	10	Octubre	2023-10-30T00:00:00	2024-11-06T01:00:00	4	Temperatura máxima	14.6
128067	7	Sololá	702	San José Chacayá	5	Chacayá	10	Octubre	2023-10-30T00:00:00	2024-11-06T01:00:00	3	Temperatura mínima	13.8
128068	7	Sololá	702	San José Chacayá	5	Chacayá	10	Octubre	2023-10-30T00:00:00	2024-11-06T01:00:00	5	Humedad	88
128069	7	Sololá	702	San José Chacayá	5	Chacayá	10	Octubre	2023-10-30T00:00:00	2024-11-06T01:00:00	6	Velocidad del viento	1.6
128070	7	Sololá	702	San José Chacayá	5	Chacayá	10	Octubre	2023-10-30T00:00:00	2024-11-06T01:00:00	7	Dirección del viento	1.61
128071	7	Sololá	702	San José Chacayá	5	Chacayá	10	Octubre	2023-10-30T00:00:00	2024-11-06T01:00:00	1	Precipitación	0
128072	7	Sololá	702	San José Chacayá	5	Chacayá	10	Octubre	2023-10-30T00:00:00	2024-11-06T01:00:00	8	Radiación solar	0
128073	7	Sololá	702	San José Chacayá	5	Chacayá	10	Octubre	2023-10-30T00:00:00	2024-11-06T02:00:00	2	Temperatura media	13.5
128074	7	Sololá	702	San José Chacayá	5	Chacayá	10	Octubre	2023-10-30T00:00:00	2024-11-06T02:00:00	4	Temperatura máxima	14.2
128075	7	Sololá	702	San José Chacayá	5	Chacayá	10	Octubre	2023-10-30T00:00:00	2024-11-06T02:00:00	3	Temperatura mínima	13.4
128076	7	Sololá	702	San José Chacayá	5	Chacayá	10	Octubre	2023-10-30T00:00:00	2024-11-06T02:00:00	5	Humedad	92
128077	7	Sololá	702	San José Chacayá	5	Chacayá	10	Octubre	2023-10-30T00:00:00	2024-11-06T02:00:00	6	Velocidad del viento	0
128078	7	Sololá	702	San José Chacayá	5	Chacayá	10	Octubre	2023-10-30T00:00:00	2024-11-06T02:00:00	7	Dirección del viento	0
128079	7	Sololá	702	San José Chacayá	5	Chacayá	10	Octubre	2023-10-30T00:00:00	2024-11-06T02:00:00	1	Precipitación	0
128080	7	Sololá	702	San José Chacayá	5	Chacayá	10	Octubre	2023-10-30T00:00:00	2024-11-06T02:00:00	8	Radiación solar	0
128081	7	Sololá	702	San José Chacayá	5	Chacayá	10	Octubre	2023-10-30T00:00:00	2024-11-06T03:00:00	2	Temperatura media	13.1
128082	7	Sololá	702	San José Chacayá	5	Chacayá	10	Octubre	2023-10-30T00:00:00	2024-11-06T03:00:00	4	Temperatura máxima	13.5
128083	7	Sololá	702	San José Chacayá	5	Chacayá	10	Octubre	2023-10-30T00:00:00	2024-11-06T03:00:00	3	Temperatura mínima	13.1
128084	7	Sololá	702	San José Chacayá	5	Chacayá	10	Octubre	2023-10-30T00:00:00	2024-11-06T03:00:00	5	Humedad	93
128085	7	Sololá	702	San José Chacayá	5	Chacayá	10	Octubre	2023-10-30T00:00:00	2024-11-06T03:00:00	6	Velocidad del viento	0
128086	7	Sololá	702	San José Chacayá	5	Chacayá	10	Octubre	2023-10-30T00:00:00	2024-11-06T03:00:00	7	Dirección del viento	0
128087	7	Sololá	702	San José Chacayá	5	Chacayá	10	Octubre	2023-10-30T00:00:00	2024-11-06T03:00:00	1	Precipitación	0
128088	7	Sololá	702	San José Chacayá	5	Chacayá	10	Octubre	2023-10-30T00:00:00	2024-11-06T03:00:00	8	Radiación solar	0
128089	7	Sololá	702	San José Chacayá	5	Chacayá	10	Octubre	2023-10-30T00:00:00	2024-11-06T04:00:00	2	Temperatura media	12.4
128090	7	Sololá	702	San José Chacayá	5	Chacayá	10	Octubre	2023-10-30T00:00:00	2024-11-06T04:00:00	4	Temperatura máxima	13.1
128091	7	Sololá	702	San José Chacayá	5	Chacayá	10	Octubre	2023-10-30T00:00:00	2024-11-06T04:00:00	3	Temperatura mínima	12.4
128092	7	Sololá	702	San José Chacayá	5	Chacayá	10	Octubre	2023-10-30T00:00:00	2024-11-06T04:00:00	5	Humedad	93
128093	7	Sololá	702	San José Chacayá	5	Chacayá	10	Octubre	2023-10-30T00:00:00	2024-11-06T04:00:00	6	Velocidad del viento	0
128094	7	Sololá	702	San José Chacayá	5	Chacayá	10	Octubre	2023-10-30T00:00:00	2024-11-06T04:00:00	7	Dirección del viento	0
128095	7	Sololá	702	San José Chacayá	5	Chacayá	10	Octubre	2023-10-30T00:00:00	2024-11-06T04:00:00	1	Precipitación	0
128096	7	Sololá	702	San José Chacayá	5	Chacayá	10	Octubre	2023-10-30T00:00:00	2024-11-06T04:00:00	8	Radiación solar	0
128097	7	Sololá	702	San José Chacayá	5	Chacayá	10	Octubre	2023-10-30T00:00:00	2024-11-06T05:00:00	2	Temperatura media	12.1
128098	7	Sololá	702	San José Chacayá	5	Chacayá	10	Octubre	2023-10-30T00:00:00	2024-11-06T05:00:00	4	Temperatura máxima	12.5
128099	7	Sololá	702	San José Chacayá	5	Chacayá	10	Octubre	2023-10-30T00:00:00	2024-11-06T05:00:00	3	Temperatura mínima	12.1
128100	7	Sololá	702	San José Chacayá	5	Chacayá	10	Octubre	2023-10-30T00:00:00	2024-11-06T05:00:00	5	Humedad	93
128101	7	Sololá	702	San José Chacayá	5	Chacayá	10	Octubre	2023-10-30T00:00:00	2024-11-06T05:00:00	6	Velocidad del viento	0
128102	7	Sololá	702	San José Chacayá	5	Chacayá	10	Octubre	2023-10-30T00:00:00	2024-11-06T05:00:00	7	Dirección del viento	0
128103	7	Sololá	702	San José Chacayá	5	Chacayá	10	Octubre	2023-10-30T00:00:00	2024-11-06T05:00:00	1	Precipitación	0
128104	7	Sololá	702	San José Chacayá	5	Chacayá	10	Octubre	2023-10-30T00:00:00	2024-11-06T05:00:00	8	Radiación solar	0
128105	7	Sololá	702	San José Chacayá	5	Chacayá	10	Octubre	2023-10-30T00:00:00	2024-11-06T06:00:00	2	Temperatura media	11.7
128106	7	Sololá	702	San José Chacayá	5	Chacayá	10	Octubre	2023-10-30T00:00:00	2024-11-06T06:00:00	4	Temperatura máxima	12.1
128107	7	Sololá	702	San José Chacayá	5	Chacayá	10	Octubre	2023-10-30T00:00:00	2024-11-06T06:00:00	3	Temperatura mínima	11.6
128108	7	Sololá	702	San José Chacayá	5	Chacayá	10	Octubre	2023-10-30T00:00:00	2024-11-06T06:00:00	5	Humedad	95
128109	7	Sololá	702	San José Chacayá	5	Chacayá	10	Octubre	2023-10-30T00:00:00	2024-11-06T06:00:00	6	Velocidad del viento	0
128110	7	Sololá	702	San José Chacayá	5	Chacayá	10	Octubre	2023-10-30T00:00:00	2024-11-06T06:00:00	7	Dirección del viento	0
128111	7	Sololá	702	San José Chacayá	5	Chacayá	10	Octubre	2023-10-30T00:00:00	2024-11-06T06:00:00	1	Precipitación	0
128112	7	Sololá	702	San José Chacayá	5	Chacayá	10	Octubre	2023-10-30T00:00:00	2024-11-06T06:00:00	8	Radiación solar	1
128113	7	Sololá	702	San José Chacayá	5	Chacayá	10	Octubre	2023-10-30T00:00:00	2024-11-06T07:00:00	2	Temperatura media	11.8
128114	7	Sololá	702	San José Chacayá	5	Chacayá	10	Octubre	2023-10-30T00:00:00	2024-11-06T07:00:00	4	Temperatura máxima	12.1
128115	7	Sololá	702	San José Chacayá	5	Chacayá	10	Octubre	2023-10-30T00:00:00	2024-11-06T07:00:00	3	Temperatura mínima	11.7
128116	7	Sololá	702	San José Chacayá	5	Chacayá	10	Octubre	2023-10-30T00:00:00	2024-11-06T07:00:00	5	Humedad	93
128117	7	Sololá	702	San José Chacayá	5	Chacayá	10	Octubre	2023-10-30T00:00:00	2024-11-06T07:00:00	6	Velocidad del viento	0
128118	7	Sololá	702	San José Chacayá	5	Chacayá	10	Octubre	2023-10-30T00:00:00	2024-11-06T07:00:00	7	Dirección del viento	0
128119	7	Sololá	702	San José Chacayá	5	Chacayá	10	Octubre	2023-10-30T00:00:00	2024-11-06T07:00:00	1	Precipitación	0
128120	7	Sololá	702	San José Chacayá	5	Chacayá	10	Octubre	2023-10-30T00:00:00	2024-11-06T07:00:00	8	Radiación solar	84
128121	7	Sololá	702	San José Chacayá	5	Chacayá	10	Octubre	2023-10-30T00:00:00	2024-11-06T08:00:00	2	Temperatura media	15.3
128122	7	Sololá	702	San José Chacayá	5	Chacayá	10	Octubre	2023-10-30T00:00:00	2024-11-06T08:00:00	4	Temperatura máxima	15.3
128123	7	Sololá	702	San José Chacayá	5	Chacayá	10	Octubre	2023-10-30T00:00:00	2024-11-06T08:00:00	3	Temperatura mínima	11.7
128124	7	Sololá	702	San José Chacayá	5	Chacayá	10	Octubre	2023-10-30T00:00:00	2024-11-06T08:00:00	5	Humedad	80
128125	7	Sololá	702	San José Chacayá	5	Chacayá	10	Octubre	2023-10-30T00:00:00	2024-11-06T08:00:00	6	Velocidad del viento	1.6
128126	7	Sololá	702	San José Chacayá	5	Chacayá	10	Octubre	2023-10-30T00:00:00	2024-11-06T08:00:00	7	Dirección del viento	1.61
128127	7	Sololá	702	San José Chacayá	5	Chacayá	10	Octubre	2023-10-30T00:00:00	2024-11-06T08:00:00	1	Precipitación	0
128128	7	Sololá	702	San José Chacayá	5	Chacayá	10	Octubre	2023-10-30T00:00:00	2024-11-06T08:00:00	8	Radiación solar	312
128129	7	Sololá	702	San José Chacayá	5	Chacayá	10	Octubre	2023-10-30T00:00:00	2024-11-06T09:00:00	2	Temperatura media	18.9
128130	7	Sololá	702	San José Chacayá	5	Chacayá	10	Octubre	2023-10-30T00:00:00	2024-11-06T09:00:00	4	Temperatura máxima	18.9
128131	7	Sololá	702	San José Chacayá	5	Chacayá	10	Octubre	2023-10-30T00:00:00	2024-11-06T09:00:00	3	Temperatura mínima	15.4
128132	7	Sololá	702	San José Chacayá	5	Chacayá	10	Octubre	2023-10-30T00:00:00	2024-11-06T09:00:00	5	Humedad	69
128133	7	Sololá	702	San José Chacayá	5	Chacayá	10	Octubre	2023-10-30T00:00:00	2024-11-06T09:00:00	6	Velocidad del viento	4.8
128134	7	Sololá	702	San José Chacayá	5	Chacayá	10	Octubre	2023-10-30T00:00:00	2024-11-06T09:00:00	7	Dirección del viento	4.83
128135	7	Sololá	702	San José Chacayá	5	Chacayá	10	Octubre	2023-10-30T00:00:00	2024-11-06T09:00:00	1	Precipitación	0
128136	7	Sololá	702	San José Chacayá	5	Chacayá	10	Octubre	2023-10-30T00:00:00	2024-11-06T09:00:00	8	Radiación solar	525
128137	7	Sololá	702	San José Chacayá	5	Chacayá	10	Octubre	2023-10-30T00:00:00	2024-11-06T10:00:00	2	Temperatura media	19.8
128138	7	Sololá	702	San José Chacayá	5	Chacayá	10	Octubre	2023-10-30T00:00:00	2024-11-06T10:00:00	4	Temperatura máxima	19.8
128139	7	Sololá	702	San José Chacayá	5	Chacayá	10	Octubre	2023-10-30T00:00:00	2024-11-06T10:00:00	3	Temperatura mínima	18.7
128140	7	Sololá	702	San José Chacayá	5	Chacayá	10	Octubre	2023-10-30T00:00:00	2024-11-06T10:00:00	5	Humedad	64
128141	7	Sololá	702	San José Chacayá	5	Chacayá	10	Octubre	2023-10-30T00:00:00	2024-11-06T10:00:00	6	Velocidad del viento	4.8
128142	7	Sololá	702	San José Chacayá	5	Chacayá	10	Octubre	2023-10-30T00:00:00	2024-11-06T10:00:00	7	Dirección del viento	4.83
128143	7	Sololá	702	San José Chacayá	5	Chacayá	10	Octubre	2023-10-30T00:00:00	2024-11-06T10:00:00	1	Precipitación	0
128144	7	Sololá	702	San José Chacayá	5	Chacayá	10	Octubre	2023-10-30T00:00:00	2024-11-06T10:00:00	8	Radiación solar	691
128145	7	Sololá	702	San José Chacayá	5	Chacayá	10	Octubre	2023-10-30T00:00:00	2024-11-06T11:00:00	2	Temperatura media	19.8
128146	7	Sololá	702	San José Chacayá	5	Chacayá	10	Octubre	2023-10-30T00:00:00	2024-11-06T11:00:00	4	Temperatura máxima	21.2
128147	7	Sololá	702	San José Chacayá	5	Chacayá	10	Octubre	2023-10-30T00:00:00	2024-11-06T11:00:00	3	Temperatura mínima	19.7
128148	7	Sololá	702	San José Chacayá	5	Chacayá	10	Octubre	2023-10-30T00:00:00	2024-11-06T11:00:00	5	Humedad	65
128149	7	Sololá	702	San José Chacayá	5	Chacayá	10	Octubre	2023-10-30T00:00:00	2024-11-06T11:00:00	6	Velocidad del viento	3.2
128150	7	Sololá	702	San José Chacayá	5	Chacayá	10	Octubre	2023-10-30T00:00:00	2024-11-06T11:00:00	7	Dirección del viento	3.22
128151	7	Sololá	702	San José Chacayá	5	Chacayá	10	Octubre	2023-10-30T00:00:00	2024-11-06T11:00:00	1	Precipitación	0
128152	7	Sololá	702	San José Chacayá	5	Chacayá	10	Octubre	2023-10-30T00:00:00	2024-11-06T11:00:00	8	Radiación solar	827
128153	7	Sololá	702	San José Chacayá	5	Chacayá	10	Octubre	2023-10-30T00:00:00	2024-11-06T12:00:00	2	Temperatura media	21.6
128154	7	Sololá	702	San José Chacayá	5	Chacayá	10	Octubre	2023-10-30T00:00:00	2024-11-06T12:00:00	4	Temperatura máxima	21.6
128155	7	Sololá	702	San José Chacayá	5	Chacayá	10	Octubre	2023-10-30T00:00:00	2024-11-06T12:00:00	3	Temperatura mínima	19.6
128156	7	Sololá	702	San José Chacayá	5	Chacayá	10	Octubre	2023-10-30T00:00:00	2024-11-06T12:00:00	5	Humedad	62
128157	7	Sololá	702	San José Chacayá	5	Chacayá	10	Octubre	2023-10-30T00:00:00	2024-11-06T12:00:00	6	Velocidad del viento	4.8
128158	7	Sololá	702	San José Chacayá	5	Chacayá	10	Octubre	2023-10-30T00:00:00	2024-11-06T12:00:00	7	Dirección del viento	4.83
128159	7	Sololá	702	San José Chacayá	5	Chacayá	10	Octubre	2023-10-30T00:00:00	2024-11-06T12:00:00	1	Precipitación	0
128160	7	Sololá	702	San José Chacayá	5	Chacayá	10	Octubre	2023-10-30T00:00:00	2024-11-06T12:00:00	8	Radiación solar	887
128161	7	Sololá	702	San José Chacayá	5	Chacayá	10	Octubre	2023-10-30T00:00:00	2024-11-06T13:00:00	2	Temperatura media	20.8
128162	7	Sololá	702	San José Chacayá	5	Chacayá	10	Octubre	2023-10-30T00:00:00	2024-11-06T13:00:00	4	Temperatura máxima	21.9
128163	7	Sololá	702	San José Chacayá	5	Chacayá	10	Octubre	2023-10-30T00:00:00	2024-11-06T13:00:00	3	Temperatura mínima	20.4
128164	7	Sololá	702	San José Chacayá	5	Chacayá	10	Octubre	2023-10-30T00:00:00	2024-11-06T13:00:00	5	Humedad	58
128165	7	Sololá	702	San José Chacayá	5	Chacayá	10	Octubre	2023-10-30T00:00:00	2024-11-06T13:00:00	6	Velocidad del viento	4.8
128166	7	Sololá	702	San José Chacayá	5	Chacayá	10	Octubre	2023-10-30T00:00:00	2024-11-06T13:00:00	7	Dirección del viento	4.83
128167	7	Sololá	702	San José Chacayá	5	Chacayá	10	Octubre	2023-10-30T00:00:00	2024-11-06T13:00:00	1	Precipitación	0
128168	7	Sololá	702	San José Chacayá	5	Chacayá	10	Octubre	2023-10-30T00:00:00	2024-11-06T13:00:00	8	Radiación solar	889
128169	7	Sololá	702	San José Chacayá	5	Chacayá	10	Octubre	2023-10-30T00:00:00	2024-11-06T14:00:00	2	Temperatura media	21.9
128170	7	Sololá	702	San José Chacayá	5	Chacayá	10	Octubre	2023-10-30T00:00:00	2024-11-06T14:00:00	4	Temperatura máxima	22.2
128171	7	Sololá	702	San José Chacayá	5	Chacayá	10	Octubre	2023-10-30T00:00:00	2024-11-06T14:00:00	3	Temperatura mínima	20.7
128172	7	Sololá	702	San José Chacayá	5	Chacayá	10	Octubre	2023-10-30T00:00:00	2024-11-06T14:00:00	5	Humedad	57
128173	7	Sololá	702	San José Chacayá	5	Chacayá	10	Octubre	2023-10-30T00:00:00	2024-11-06T14:00:00	6	Velocidad del viento	4.8
128174	7	Sololá	702	San José Chacayá	5	Chacayá	10	Octubre	2023-10-30T00:00:00	2024-11-06T14:00:00	7	Dirección del viento	4.83
128175	7	Sololá	702	San José Chacayá	5	Chacayá	10	Octubre	2023-10-30T00:00:00	2024-11-06T14:00:00	1	Precipitación	0
128176	7	Sololá	702	San José Chacayá	5	Chacayá	10	Octubre	2023-10-30T00:00:00	2024-11-06T14:00:00	8	Radiación solar	829
128177	7	Sololá	702	San José Chacayá	5	Chacayá	10	Octubre	2023-10-30T00:00:00	2024-11-06T15:00:00	2	Temperatura media	21.9
128178	7	Sololá	702	San José Chacayá	5	Chacayá	10	Octubre	2023-10-30T00:00:00	2024-11-06T15:00:00	4	Temperatura máxima	23.3
128179	7	Sololá	702	San José Chacayá	5	Chacayá	10	Octubre	2023-10-30T00:00:00	2024-11-06T15:00:00	3	Temperatura mínima	21.9
128180	7	Sololá	702	San José Chacayá	5	Chacayá	10	Octubre	2023-10-30T00:00:00	2024-11-06T15:00:00	5	Humedad	52
128181	7	Sololá	702	San José Chacayá	5	Chacayá	10	Octubre	2023-10-30T00:00:00	2024-11-06T15:00:00	6	Velocidad del viento	4.8
128182	7	Sololá	702	San José Chacayá	5	Chacayá	10	Octubre	2023-10-30T00:00:00	2024-11-06T15:00:00	7	Dirección del viento	4.83
128183	7	Sololá	702	San José Chacayá	5	Chacayá	10	Octubre	2023-10-30T00:00:00	2024-11-06T15:00:00	1	Precipitación	0
128184	7	Sololá	702	San José Chacayá	5	Chacayá	10	Octubre	2023-10-30T00:00:00	2024-11-06T15:00:00	8	Radiación solar	482
128185	7	Sololá	702	San José Chacayá	5	Chacayá	10	Octubre	2023-10-30T00:00:00	2024-11-06T16:00:00	2	Temperatura media	19.7
128186	7	Sololá	702	San José Chacayá	5	Chacayá	10	Octubre	2023-10-30T00:00:00	2024-11-06T16:00:00	4	Temperatura máxima	21.9
128187	7	Sololá	702	San José Chacayá	5	Chacayá	10	Octubre	2023-10-30T00:00:00	2024-11-06T16:00:00	3	Temperatura mínima	19.7
128188	7	Sololá	702	San José Chacayá	5	Chacayá	10	Octubre	2023-10-30T00:00:00	2024-11-06T16:00:00	5	Humedad	63
128189	7	Sololá	702	San José Chacayá	5	Chacayá	10	Octubre	2023-10-30T00:00:00	2024-11-06T16:00:00	6	Velocidad del viento	1.6
128190	7	Sololá	702	San José Chacayá	5	Chacayá	10	Octubre	2023-10-30T00:00:00	2024-11-06T16:00:00	7	Dirección del viento	1.61
128191	7	Sololá	702	San José Chacayá	5	Chacayá	10	Octubre	2023-10-30T00:00:00	2024-11-06T16:00:00	1	Precipitación	0
128192	7	Sololá	702	San José Chacayá	5	Chacayá	10	Octubre	2023-10-30T00:00:00	2024-11-06T16:00:00	8	Radiación solar	45
128193	7	Sololá	702	San José Chacayá	5	Chacayá	10	Octubre	2023-10-30T00:00:00	2024-11-06T17:00:00	2	Temperatura media	18.1
128194	7	Sololá	702	San José Chacayá	5	Chacayá	10	Octubre	2023-10-30T00:00:00	2024-11-06T17:00:00	4	Temperatura máxima	19.7
128195	7	Sololá	702	San José Chacayá	5	Chacayá	10	Octubre	2023-10-30T00:00:00	2024-11-06T17:00:00	3	Temperatura mínima	18.1
128196	7	Sololá	702	San José Chacayá	5	Chacayá	10	Octubre	2023-10-30T00:00:00	2024-11-06T17:00:00	5	Humedad	71
128197	7	Sololá	702	San José Chacayá	5	Chacayá	10	Octubre	2023-10-30T00:00:00	2024-11-06T17:00:00	6	Velocidad del viento	1.6
128198	7	Sololá	702	San José Chacayá	5	Chacayá	10	Octubre	2023-10-30T00:00:00	2024-11-06T17:00:00	7	Dirección del viento	1.61
128199	7	Sololá	702	San José Chacayá	5	Chacayá	10	Octubre	2023-10-30T00:00:00	2024-11-06T17:00:00	1	Precipitación	0
128200	7	Sololá	702	San José Chacayá	5	Chacayá	10	Octubre	2023-10-30T00:00:00	2024-11-06T17:00:00	8	Radiación solar	34
128201	7	Sololá	702	San José Chacayá	5	Chacayá	10	Octubre	2023-10-30T00:00:00	2024-11-06T18:00:00	2	Temperatura media	16.3
128202	7	Sololá	702	San José Chacayá	5	Chacayá	10	Octubre	2023-10-30T00:00:00	2024-11-06T18:00:00	4	Temperatura máxima	18.1
128203	7	Sololá	702	San José Chacayá	5	Chacayá	10	Octubre	2023-10-30T00:00:00	2024-11-06T18:00:00	3	Temperatura mínima	16.3
128204	7	Sololá	702	San José Chacayá	5	Chacayá	10	Octubre	2023-10-30T00:00:00	2024-11-06T18:00:00	5	Humedad	74
128205	7	Sololá	702	San José Chacayá	5	Chacayá	10	Octubre	2023-10-30T00:00:00	2024-11-06T18:00:00	6	Velocidad del viento	3.2
128206	7	Sololá	702	San José Chacayá	5	Chacayá	10	Octubre	2023-10-30T00:00:00	2024-11-06T18:00:00	7	Dirección del viento	3.22
128207	7	Sololá	702	San José Chacayá	5	Chacayá	10	Octubre	2023-10-30T00:00:00	2024-11-06T18:00:00	1	Precipitación	0
128208	7	Sololá	702	San José Chacayá	5	Chacayá	10	Octubre	2023-10-30T00:00:00	2024-11-06T18:00:00	8	Radiación solar	1
128209	7	Sololá	702	San José Chacayá	5	Chacayá	10	Octubre	2023-10-30T00:00:00	2024-11-06T19:00:00	2	Temperatura media	15.1
128210	7	Sololá	702	San José Chacayá	5	Chacayá	10	Octubre	2023-10-30T00:00:00	2024-11-06T19:00:00	4	Temperatura máxima	16.3
128211	7	Sololá	702	San José Chacayá	5	Chacayá	10	Octubre	2023-10-30T00:00:00	2024-11-06T19:00:00	3	Temperatura mínima	15.1
128212	7	Sololá	702	San José Chacayá	5	Chacayá	10	Octubre	2023-10-30T00:00:00	2024-11-06T19:00:00	5	Humedad	78
128213	7	Sololá	702	San José Chacayá	5	Chacayá	10	Octubre	2023-10-30T00:00:00	2024-11-06T19:00:00	6	Velocidad del viento	1.6
128214	7	Sololá	702	San José Chacayá	5	Chacayá	10	Octubre	2023-10-30T00:00:00	2024-11-06T19:00:00	7	Dirección del viento	1.61
128215	7	Sololá	702	San José Chacayá	5	Chacayá	10	Octubre	2023-10-30T00:00:00	2024-11-06T19:00:00	1	Precipitación	0
128216	7	Sololá	702	San José Chacayá	5	Chacayá	10	Octubre	2023-10-30T00:00:00	2024-11-06T19:00:00	8	Radiación solar	0
128217	7	Sololá	702	San José Chacayá	5	Chacayá	10	Octubre	2023-10-30T00:00:00	2024-11-06T20:00:00	2	Temperatura media	14.7
128218	7	Sololá	702	San José Chacayá	5	Chacayá	10	Octubre	2023-10-30T00:00:00	2024-11-06T20:00:00	4	Temperatura máxima	15.1
128219	7	Sololá	702	San José Chacayá	5	Chacayá	10	Octubre	2023-10-30T00:00:00	2024-11-06T20:00:00	3	Temperatura mínima	14.6
128220	7	Sololá	702	San José Chacayá	5	Chacayá	10	Octubre	2023-10-30T00:00:00	2024-11-06T20:00:00	5	Humedad	75
128221	7	Sololá	702	San José Chacayá	5	Chacayá	10	Octubre	2023-10-30T00:00:00	2024-11-06T20:00:00	6	Velocidad del viento	1.6
128222	7	Sololá	702	San José Chacayá	5	Chacayá	10	Octubre	2023-10-30T00:00:00	2024-11-06T20:00:00	7	Dirección del viento	1.61
128223	7	Sololá	702	San José Chacayá	5	Chacayá	10	Octubre	2023-10-30T00:00:00	2024-11-06T20:00:00	1	Precipitación	0
128224	7	Sololá	702	San José Chacayá	5	Chacayá	10	Octubre	2023-10-30T00:00:00	2024-11-06T20:00:00	8	Radiación solar	0
128225	7	Sololá	702	San José Chacayá	5	Chacayá	10	Octubre	2023-10-30T00:00:00	2024-11-06T21:00:00	2	Temperatura media	14.4
128226	7	Sololá	702	San José Chacayá	5	Chacayá	10	Octubre	2023-10-30T00:00:00	2024-11-06T21:00:00	4	Temperatura máxima	14.7
128227	7	Sololá	702	San José Chacayá	5	Chacayá	10	Octubre	2023-10-30T00:00:00	2024-11-06T21:00:00	3	Temperatura mínima	14.4
128228	7	Sololá	702	San José Chacayá	5	Chacayá	10	Octubre	2023-10-30T00:00:00	2024-11-06T21:00:00	5	Humedad	77
128229	7	Sololá	702	San José Chacayá	5	Chacayá	10	Octubre	2023-10-30T00:00:00	2024-11-06T21:00:00	6	Velocidad del viento	1.6
128230	7	Sololá	702	San José Chacayá	5	Chacayá	10	Octubre	2023-10-30T00:00:00	2024-11-06T21:00:00	7	Dirección del viento	1.61
128231	7	Sololá	702	San José Chacayá	5	Chacayá	10	Octubre	2023-10-30T00:00:00	2024-11-06T21:00:00	1	Precipitación	0
128232	7	Sololá	702	San José Chacayá	5	Chacayá	10	Octubre	2023-10-30T00:00:00	2024-11-06T21:00:00	8	Radiación solar	0
128233	7	Sololá	702	San José Chacayá	5	Chacayá	10	Octubre	2023-10-30T00:00:00	2024-11-06T22:00:00	2	Temperatura media	14.1
128234	7	Sololá	702	San José Chacayá	5	Chacayá	10	Octubre	2023-10-30T00:00:00	2024-11-06T22:00:00	4	Temperatura máxima	14.7
128235	7	Sololá	702	San José Chacayá	5	Chacayá	10	Octubre	2023-10-30T00:00:00	2024-11-06T22:00:00	3	Temperatura mínima	14.1
128236	7	Sololá	702	San José Chacayá	5	Chacayá	10	Octubre	2023-10-30T00:00:00	2024-11-06T22:00:00	5	Humedad	81
128237	7	Sololá	702	San José Chacayá	5	Chacayá	10	Octubre	2023-10-30T00:00:00	2024-11-06T22:00:00	6	Velocidad del viento	1.6
128238	7	Sololá	702	San José Chacayá	5	Chacayá	10	Octubre	2023-10-30T00:00:00	2024-11-06T22:00:00	7	Dirección del viento	1.61
128239	7	Sololá	702	San José Chacayá	5	Chacayá	10	Octubre	2023-10-30T00:00:00	2024-11-06T22:00:00	1	Precipitación	0
128240	7	Sololá	702	San José Chacayá	5	Chacayá	10	Octubre	2023-10-30T00:00:00	2024-11-06T22:00:00	8	Radiación solar	0
128241	7	Sololá	702	San José Chacayá	5	Chacayá	10	Octubre	2023-10-30T00:00:00	2024-11-06T23:00:00	2	Temperatura media	13.7
128242	7	Sololá	702	San José Chacayá	5	Chacayá	10	Octubre	2023-10-30T00:00:00	2024-11-06T23:00:00	4	Temperatura máxima	14.1
128243	7	Sololá	702	San José Chacayá	5	Chacayá	10	Octubre	2023-10-30T00:00:00	2024-11-06T23:00:00	3	Temperatura mínima	13.4
128244	7	Sololá	702	San José Chacayá	5	Chacayá	10	Octubre	2023-10-30T00:00:00	2024-11-06T23:00:00	5	Humedad	84
128245	7	Sololá	702	San José Chacayá	5	Chacayá	10	Octubre	2023-10-30T00:00:00	2024-11-06T23:00:00	6	Velocidad del viento	0
128246	7	Sololá	702	San José Chacayá	5	Chacayá	10	Octubre	2023-10-30T00:00:00	2024-11-06T23:00:00	7	Dirección del viento	0
128247	7	Sololá	702	San José Chacayá	5	Chacayá	10	Octubre	2023-10-30T00:00:00	2024-11-06T23:00:00	1	Precipitación	0
128248	7	Sololá	702	San José Chacayá	5	Chacayá	10	Octubre	2023-10-30T00:00:00	2024-11-06T23:00:00	8	Radiación solar	0
128249	7	Sololá	702	San José Chacayá	5	Chacayá	10	Octubre	2023-10-31T00:00:00	2024-11-06T00:00:00	2	Temperatura media	13.7
128250	7	Sololá	702	San José Chacayá	5	Chacayá	10	Octubre	2023-10-31T00:00:00	2024-11-06T00:00:00	4	Temperatura máxima	13.9
128251	7	Sololá	702	San José Chacayá	5	Chacayá	10	Octubre	2023-10-31T00:00:00	2024-11-06T00:00:00	3	Temperatura mínima	13.6
128252	7	Sololá	702	San José Chacayá	5	Chacayá	10	Octubre	2023-10-31T00:00:00	2024-11-06T00:00:00	5	Humedad	83
128253	7	Sololá	702	San José Chacayá	5	Chacayá	10	Octubre	2023-10-31T00:00:00	2024-11-06T00:00:00	6	Velocidad del viento	0
128254	7	Sololá	702	San José Chacayá	5	Chacayá	10	Octubre	2023-10-31T00:00:00	2024-11-06T00:00:00	7	Dirección del viento	0
128255	7	Sololá	702	San José Chacayá	5	Chacayá	10	Octubre	2023-10-31T00:00:00	2024-11-06T00:00:00	1	Precipitación	0
128256	7	Sololá	702	San José Chacayá	5	Chacayá	10	Octubre	2023-10-31T00:00:00	2024-11-06T00:00:00	8	Radiación solar	0
128257	7	Sololá	702	San José Chacayá	5	Chacayá	10	Octubre	2023-10-31T00:00:00	2024-11-06T01:00:00	2	Temperatura media	13.6
128258	7	Sololá	702	San José Chacayá	5	Chacayá	10	Octubre	2023-10-31T00:00:00	2024-11-06T01:00:00	4	Temperatura máxima	13.7
128259	7	Sololá	702	San José Chacayá	5	Chacayá	10	Octubre	2023-10-31T00:00:00	2024-11-06T01:00:00	3	Temperatura mínima	13.4
128260	7	Sololá	702	San José Chacayá	5	Chacayá	10	Octubre	2023-10-31T00:00:00	2024-11-06T01:00:00	5	Humedad	83
128261	7	Sololá	702	San José Chacayá	5	Chacayá	10	Octubre	2023-10-31T00:00:00	2024-11-06T01:00:00	6	Velocidad del viento	0
128262	7	Sololá	702	San José Chacayá	5	Chacayá	10	Octubre	2023-10-31T00:00:00	2024-11-06T01:00:00	7	Dirección del viento	0
128263	7	Sololá	702	San José Chacayá	5	Chacayá	10	Octubre	2023-10-31T00:00:00	2024-11-06T01:00:00	1	Precipitación	0
128264	7	Sololá	702	San José Chacayá	5	Chacayá	10	Octubre	2023-10-31T00:00:00	2024-11-06T01:00:00	8	Radiación solar	0
128265	7	Sololá	702	San José Chacayá	5	Chacayá	10	Octubre	2023-10-31T00:00:00	2024-11-06T02:00:00	2	Temperatura media	13.7
128266	7	Sololá	702	San José Chacayá	5	Chacayá	10	Octubre	2023-10-31T00:00:00	2024-11-06T02:00:00	4	Temperatura máxima	13.9
128267	7	Sololá	702	San José Chacayá	5	Chacayá	10	Octubre	2023-10-31T00:00:00	2024-11-06T02:00:00	3	Temperatura mínima	13.4
128268	7	Sololá	702	San José Chacayá	5	Chacayá	10	Octubre	2023-10-31T00:00:00	2024-11-06T02:00:00	5	Humedad	80
128269	7	Sololá	702	San José Chacayá	5	Chacayá	10	Octubre	2023-10-31T00:00:00	2024-11-06T02:00:00	6	Velocidad del viento	1.6
128270	7	Sololá	702	San José Chacayá	5	Chacayá	10	Octubre	2023-10-31T00:00:00	2024-11-06T02:00:00	7	Dirección del viento	1.61
128271	7	Sololá	702	San José Chacayá	5	Chacayá	10	Octubre	2023-10-31T00:00:00	2024-11-06T02:00:00	1	Precipitación	0
128272	7	Sololá	702	San José Chacayá	5	Chacayá	10	Octubre	2023-10-31T00:00:00	2024-11-06T02:00:00	8	Radiación solar	0
128273	7	Sololá	702	San José Chacayá	5	Chacayá	10	Octubre	2023-10-31T00:00:00	2024-11-06T03:00:00	2	Temperatura media	14.1
128274	7	Sololá	702	San José Chacayá	5	Chacayá	10	Octubre	2023-10-31T00:00:00	2024-11-06T03:00:00	4	Temperatura máxima	14.1
128275	7	Sololá	702	San José Chacayá	5	Chacayá	10	Octubre	2023-10-31T00:00:00	2024-11-06T03:00:00	3	Temperatura mínima	13.5
128276	7	Sololá	702	San José Chacayá	5	Chacayá	10	Octubre	2023-10-31T00:00:00	2024-11-06T03:00:00	5	Humedad	77
128277	7	Sololá	702	San José Chacayá	5	Chacayá	10	Octubre	2023-10-31T00:00:00	2024-11-06T03:00:00	6	Velocidad del viento	1.6
128278	7	Sololá	702	San José Chacayá	5	Chacayá	10	Octubre	2023-10-31T00:00:00	2024-11-06T03:00:00	7	Dirección del viento	1.61
128279	7	Sololá	702	San José Chacayá	5	Chacayá	10	Octubre	2023-10-31T00:00:00	2024-11-06T03:00:00	1	Precipitación	0
128280	7	Sololá	702	San José Chacayá	5	Chacayá	10	Octubre	2023-10-31T00:00:00	2024-11-06T03:00:00	8	Radiación solar	0
128281	7	Sololá	702	San José Chacayá	5	Chacayá	10	Octubre	2023-10-31T00:00:00	2024-11-06T04:00:00	2	Temperatura media	13.3
128282	7	Sololá	702	San José Chacayá	5	Chacayá	10	Octubre	2023-10-31T00:00:00	2024-11-06T04:00:00	4	Temperatura máxima	14.2
128283	7	Sololá	702	San José Chacayá	5	Chacayá	10	Octubre	2023-10-31T00:00:00	2024-11-06T04:00:00	3	Temperatura mínima	13.3
128284	7	Sololá	702	San José Chacayá	5	Chacayá	10	Octubre	2023-10-31T00:00:00	2024-11-06T04:00:00	5	Humedad	82
128285	7	Sololá	702	San José Chacayá	5	Chacayá	10	Octubre	2023-10-31T00:00:00	2024-11-06T04:00:00	6	Velocidad del viento	0
128286	7	Sololá	702	San José Chacayá	5	Chacayá	10	Octubre	2023-10-31T00:00:00	2024-11-06T04:00:00	7	Dirección del viento	0
128287	7	Sololá	702	San José Chacayá	5	Chacayá	10	Octubre	2023-10-31T00:00:00	2024-11-06T04:00:00	1	Precipitación	0
128288	7	Sololá	702	San José Chacayá	5	Chacayá	10	Octubre	2023-10-31T00:00:00	2024-11-06T04:00:00	8	Radiación solar	0
128289	7	Sololá	702	San José Chacayá	5	Chacayá	10	Octubre	2023-10-31T00:00:00	2024-11-06T05:00:00	2	Temperatura media	15.7
128290	7	Sololá	702	San José Chacayá	5	Chacayá	10	Octubre	2023-10-31T00:00:00	2024-11-06T05:00:00	4	Temperatura máxima	15.8
128291	7	Sololá	702	San José Chacayá	5	Chacayá	10	Octubre	2023-10-31T00:00:00	2024-11-06T05:00:00	3	Temperatura mínima	13.2
128292	7	Sololá	702	San José Chacayá	5	Chacayá	10	Octubre	2023-10-31T00:00:00	2024-11-06T05:00:00	5	Humedad	61
128293	7	Sololá	702	San José Chacayá	5	Chacayá	10	Octubre	2023-10-31T00:00:00	2024-11-06T05:00:00	6	Velocidad del viento	3.2
128294	7	Sololá	702	San José Chacayá	5	Chacayá	10	Octubre	2023-10-31T00:00:00	2024-11-06T05:00:00	7	Dirección del viento	3.22
128295	7	Sololá	702	San José Chacayá	5	Chacayá	10	Octubre	2023-10-31T00:00:00	2024-11-06T05:00:00	1	Precipitación	0
128296	7	Sololá	702	San José Chacayá	5	Chacayá	10	Octubre	2023-10-31T00:00:00	2024-11-06T05:00:00	8	Radiación solar	0
128297	7	Sololá	702	San José Chacayá	5	Chacayá	10	Octubre	2023-10-31T00:00:00	2024-11-06T06:00:00	2	Temperatura media	16.1
128298	7	Sololá	702	San José Chacayá	5	Chacayá	10	Octubre	2023-10-31T00:00:00	2024-11-06T06:00:00	4	Temperatura máxima	16.2
128299	7	Sololá	702	San José Chacayá	5	Chacayá	10	Octubre	2023-10-31T00:00:00	2024-11-06T06:00:00	3	Temperatura mínima	15.7
128300	7	Sololá	702	San José Chacayá	5	Chacayá	10	Octubre	2023-10-31T00:00:00	2024-11-06T06:00:00	5	Humedad	54
128301	7	Sololá	702	San José Chacayá	5	Chacayá	10	Octubre	2023-10-31T00:00:00	2024-11-06T06:00:00	6	Velocidad del viento	4.8
128302	7	Sololá	702	San José Chacayá	5	Chacayá	10	Octubre	2023-10-31T00:00:00	2024-11-06T06:00:00	7	Dirección del viento	4.83
128303	7	Sololá	702	San José Chacayá	5	Chacayá	10	Octubre	2023-10-31T00:00:00	2024-11-06T06:00:00	1	Precipitación	0
128304	7	Sololá	702	San José Chacayá	5	Chacayá	10	Octubre	2023-10-31T00:00:00	2024-11-06T06:00:00	8	Radiación solar	0
128305	7	Sololá	702	San José Chacayá	5	Chacayá	10	Octubre	2023-10-31T00:00:00	2024-11-06T07:00:00	2	Temperatura media	15.8
128306	7	Sololá	702	San José Chacayá	5	Chacayá	10	Octubre	2023-10-31T00:00:00	2024-11-06T07:00:00	4	Temperatura máxima	16.2
128307	7	Sololá	702	San José Chacayá	5	Chacayá	10	Octubre	2023-10-31T00:00:00	2024-11-06T07:00:00	3	Temperatura mínima	15.5
128308	7	Sololá	702	San José Chacayá	5	Chacayá	10	Octubre	2023-10-31T00:00:00	2024-11-06T07:00:00	5	Humedad	59
128309	7	Sololá	702	San José Chacayá	5	Chacayá	10	Octubre	2023-10-31T00:00:00	2024-11-06T07:00:00	6	Velocidad del viento	3.2
128310	7	Sololá	702	San José Chacayá	5	Chacayá	10	Octubre	2023-10-31T00:00:00	2024-11-06T07:00:00	7	Dirección del viento	3.22
128311	7	Sololá	702	San José Chacayá	5	Chacayá	10	Octubre	2023-10-31T00:00:00	2024-11-06T07:00:00	1	Precipitación	0
128312	7	Sololá	702	San José Chacayá	5	Chacayá	10	Octubre	2023-10-31T00:00:00	2024-11-06T07:00:00	8	Radiación solar	30
128313	7	Sololá	702	San José Chacayá	5	Chacayá	10	Octubre	2023-10-31T00:00:00	2024-11-06T08:00:00	2	Temperatura media	14.4
128314	7	Sololá	702	San José Chacayá	5	Chacayá	10	Octubre	2023-10-31T00:00:00	2024-11-06T08:00:00	4	Temperatura máxima	15.9
128315	7	Sololá	702	San José Chacayá	5	Chacayá	10	Octubre	2023-10-31T00:00:00	2024-11-06T08:00:00	3	Temperatura mínima	14.1
128316	7	Sololá	702	San José Chacayá	5	Chacayá	10	Octubre	2023-10-31T00:00:00	2024-11-06T08:00:00	5	Humedad	70
128317	7	Sololá	702	San José Chacayá	5	Chacayá	10	Octubre	2023-10-31T00:00:00	2024-11-06T08:00:00	6	Velocidad del viento	1.6
128318	7	Sololá	702	San José Chacayá	5	Chacayá	10	Octubre	2023-10-31T00:00:00	2024-11-06T08:00:00	7	Dirección del viento	1.61
128319	7	Sololá	702	San José Chacayá	5	Chacayá	10	Octubre	2023-10-31T00:00:00	2024-11-06T08:00:00	1	Precipitación	0
128320	7	Sololá	702	San José Chacayá	5	Chacayá	10	Octubre	2023-10-31T00:00:00	2024-11-06T08:00:00	8	Radiación solar	117
128321	7	Sololá	702	San José Chacayá	5	Chacayá	10	Octubre	2023-10-31T00:00:00	2024-11-06T09:00:00	2	Temperatura media	15.7
128322	7	Sololá	702	San José Chacayá	5	Chacayá	10	Octubre	2023-10-31T00:00:00	2024-11-06T09:00:00	4	Temperatura máxima	15.7
128323	7	Sololá	702	San José Chacayá	5	Chacayá	10	Octubre	2023-10-31T00:00:00	2024-11-06T09:00:00	3	Temperatura mínima	14.2
128324	7	Sololá	702	San José Chacayá	5	Chacayá	10	Octubre	2023-10-31T00:00:00	2024-11-06T09:00:00	5	Humedad	66
128325	7	Sololá	702	San José Chacayá	5	Chacayá	10	Octubre	2023-10-31T00:00:00	2024-11-06T09:00:00	6	Velocidad del viento	1.6
128326	7	Sololá	702	San José Chacayá	5	Chacayá	10	Octubre	2023-10-31T00:00:00	2024-11-06T09:00:00	7	Dirección del viento	1.61
128327	7	Sololá	702	San José Chacayá	5	Chacayá	10	Octubre	2023-10-31T00:00:00	2024-11-06T09:00:00	1	Precipitación	0
128328	7	Sololá	702	San José Chacayá	5	Chacayá	10	Octubre	2023-10-31T00:00:00	2024-11-06T09:00:00	8	Radiación solar	375
128329	7	Sololá	702	San José Chacayá	5	Chacayá	10	Octubre	2023-10-31T00:00:00	2024-11-06T10:00:00	2	Temperatura media	17.2
128330	7	Sololá	702	San José Chacayá	5	Chacayá	10	Octubre	2023-10-31T00:00:00	2024-11-06T10:00:00	4	Temperatura máxima	17.2
128331	7	Sololá	702	San José Chacayá	5	Chacayá	10	Octubre	2023-10-31T00:00:00	2024-11-06T10:00:00	3	Temperatura mínima	15.7
128332	7	Sololá	702	San José Chacayá	5	Chacayá	10	Octubre	2023-10-31T00:00:00	2024-11-06T10:00:00	5	Humedad	59
128333	7	Sololá	702	San José Chacayá	5	Chacayá	10	Octubre	2023-10-31T00:00:00	2024-11-06T10:00:00	6	Velocidad del viento	3.2
128334	7	Sololá	702	San José Chacayá	5	Chacayá	10	Octubre	2023-10-31T00:00:00	2024-11-06T10:00:00	7	Dirección del viento	3.22
128335	7	Sololá	702	San José Chacayá	5	Chacayá	10	Octubre	2023-10-31T00:00:00	2024-11-06T10:00:00	1	Precipitación	0
128336	7	Sololá	702	San José Chacayá	5	Chacayá	10	Octubre	2023-10-31T00:00:00	2024-11-06T10:00:00	8	Radiación solar	756
128337	7	Sololá	702	San José Chacayá	5	Chacayá	10	Octubre	2023-10-31T00:00:00	2024-11-06T11:00:00	2	Temperatura media	17.4
128338	7	Sololá	702	San José Chacayá	5	Chacayá	10	Octubre	2023-10-31T00:00:00	2024-11-06T11:00:00	4	Temperatura máxima	17.5
128339	7	Sololá	702	San José Chacayá	5	Chacayá	10	Octubre	2023-10-31T00:00:00	2024-11-06T11:00:00	3	Temperatura mínima	17.1
128340	7	Sololá	702	San José Chacayá	5	Chacayá	10	Octubre	2023-10-31T00:00:00	2024-11-06T11:00:00	5	Humedad	61
128341	7	Sololá	702	San José Chacayá	5	Chacayá	10	Octubre	2023-10-31T00:00:00	2024-11-06T11:00:00	6	Velocidad del viento	3.2
128342	7	Sololá	702	San José Chacayá	5	Chacayá	10	Octubre	2023-10-31T00:00:00	2024-11-06T11:00:00	7	Dirección del viento	3.22
128343	7	Sololá	702	San José Chacayá	5	Chacayá	10	Octubre	2023-10-31T00:00:00	2024-11-06T11:00:00	1	Precipitación	0
128344	7	Sololá	702	San José Chacayá	5	Chacayá	10	Octubre	2023-10-31T00:00:00	2024-11-06T11:00:00	8	Radiación solar	728
128345	7	Sololá	702	San José Chacayá	5	Chacayá	10	Octubre	2023-10-31T00:00:00	2024-11-06T12:00:00	2	Temperatura media	17.4
128346	7	Sololá	702	San José Chacayá	5	Chacayá	10	Octubre	2023-10-31T00:00:00	2024-11-06T12:00:00	4	Temperatura máxima	17.4
128347	7	Sololá	702	San José Chacayá	5	Chacayá	10	Octubre	2023-10-31T00:00:00	2024-11-06T12:00:00	3	Temperatura mínima	17
128348	7	Sololá	702	San José Chacayá	5	Chacayá	10	Octubre	2023-10-31T00:00:00	2024-11-06T12:00:00	5	Humedad	64
128349	7	Sololá	702	San José Chacayá	5	Chacayá	10	Octubre	2023-10-31T00:00:00	2024-11-06T12:00:00	6	Velocidad del viento	3.2
128350	7	Sololá	702	San José Chacayá	5	Chacayá	10	Octubre	2023-10-31T00:00:00	2024-11-06T12:00:00	7	Dirección del viento	3.22
128351	7	Sololá	702	San José Chacayá	5	Chacayá	10	Octubre	2023-10-31T00:00:00	2024-11-06T12:00:00	1	Precipitación	0
128352	7	Sololá	702	San José Chacayá	5	Chacayá	10	Octubre	2023-10-31T00:00:00	2024-11-06T12:00:00	8	Radiación solar	586
128353	7	Sololá	702	San José Chacayá	5	Chacayá	10	Octubre	2023-10-31T00:00:00	2024-11-06T13:00:00	2	Temperatura media	16.7
128354	7	Sololá	702	San José Chacayá	5	Chacayá	10	Octubre	2023-10-31T00:00:00	2024-11-06T13:00:00	4	Temperatura máxima	17.7
128355	7	Sololá	702	San José Chacayá	5	Chacayá	10	Octubre	2023-10-31T00:00:00	2024-11-06T13:00:00	3	Temperatura mínima	16.7
128356	7	Sololá	702	San José Chacayá	5	Chacayá	10	Octubre	2023-10-31T00:00:00	2024-11-06T13:00:00	5	Humedad	69
128357	7	Sololá	702	San José Chacayá	5	Chacayá	10	Octubre	2023-10-31T00:00:00	2024-11-06T13:00:00	6	Velocidad del viento	4.8
128358	7	Sololá	702	San José Chacayá	5	Chacayá	10	Octubre	2023-10-31T00:00:00	2024-11-06T13:00:00	7	Dirección del viento	4.83
128359	7	Sololá	702	San José Chacayá	5	Chacayá	10	Octubre	2023-10-31T00:00:00	2024-11-06T13:00:00	1	Precipitación	0
128360	7	Sololá	702	San José Chacayá	5	Chacayá	10	Octubre	2023-10-31T00:00:00	2024-11-06T13:00:00	8	Radiación solar	412
128361	7	Sololá	702	San José Chacayá	5	Chacayá	10	Octubre	2023-10-31T00:00:00	2024-11-06T14:00:00	2	Temperatura media	16.6
128362	7	Sololá	702	San José Chacayá	5	Chacayá	10	Octubre	2023-10-31T00:00:00	2024-11-06T14:00:00	4	Temperatura máxima	16.8
128363	7	Sololá	702	San José Chacayá	5	Chacayá	10	Octubre	2023-10-31T00:00:00	2024-11-06T14:00:00	3	Temperatura mínima	16.6
128364	7	Sololá	702	San José Chacayá	5	Chacayá	10	Octubre	2023-10-31T00:00:00	2024-11-06T14:00:00	5	Humedad	71
128365	7	Sololá	702	San José Chacayá	5	Chacayá	10	Octubre	2023-10-31T00:00:00	2024-11-06T14:00:00	6	Velocidad del viento	4.8
128366	7	Sololá	702	San José Chacayá	5	Chacayá	10	Octubre	2023-10-31T00:00:00	2024-11-06T14:00:00	7	Dirección del viento	4.83
128367	7	Sololá	702	San José Chacayá	5	Chacayá	10	Octubre	2023-10-31T00:00:00	2024-11-06T14:00:00	1	Precipitación	0
128368	7	Sololá	702	San José Chacayá	5	Chacayá	10	Octubre	2023-10-31T00:00:00	2024-11-06T14:00:00	8	Radiación solar	312
128369	7	Sololá	702	San José Chacayá	5	Chacayá	10	Octubre	2023-10-31T00:00:00	2024-11-06T15:00:00	2	Temperatura media	15.4
128370	7	Sololá	702	San José Chacayá	5	Chacayá	10	Octubre	2023-10-31T00:00:00	2024-11-06T15:00:00	4	Temperatura máxima	16.7
128371	7	Sololá	702	San José Chacayá	5	Chacayá	10	Octubre	2023-10-31T00:00:00	2024-11-06T15:00:00	3	Temperatura mínima	15.4
128372	7	Sololá	702	San José Chacayá	5	Chacayá	10	Octubre	2023-10-31T00:00:00	2024-11-06T15:00:00	5	Humedad	78
128373	7	Sololá	702	San José Chacayá	5	Chacayá	10	Octubre	2023-10-31T00:00:00	2024-11-06T15:00:00	6	Velocidad del viento	3.2
128374	7	Sololá	702	San José Chacayá	5	Chacayá	10	Octubre	2023-10-31T00:00:00	2024-11-06T15:00:00	7	Dirección del viento	3.22
128375	7	Sololá	702	San José Chacayá	5	Chacayá	10	Octubre	2023-10-31T00:00:00	2024-11-06T15:00:00	1	Precipitación	0.2
128376	7	Sololá	702	San José Chacayá	5	Chacayá	10	Octubre	2023-10-31T00:00:00	2024-11-06T15:00:00	8	Radiación solar	300
128377	7	Sololá	702	San José Chacayá	5	Chacayá	10	Octubre	2023-10-31T00:00:00	2024-11-06T16:00:00	2	Temperatura media	14.3
128378	7	Sololá	702	San José Chacayá	5	Chacayá	10	Octubre	2023-10-31T00:00:00	2024-11-06T16:00:00	4	Temperatura máxima	15.4
128379	7	Sololá	702	San José Chacayá	5	Chacayá	10	Octubre	2023-10-31T00:00:00	2024-11-06T16:00:00	3	Temperatura mínima	14.3
128380	7	Sololá	702	San José Chacayá	5	Chacayá	10	Octubre	2023-10-31T00:00:00	2024-11-06T16:00:00	5	Humedad	85
128381	7	Sololá	702	San José Chacayá	5	Chacayá	10	Octubre	2023-10-31T00:00:00	2024-11-06T16:00:00	6	Velocidad del viento	1.6
128382	7	Sololá	702	San José Chacayá	5	Chacayá	10	Octubre	2023-10-31T00:00:00	2024-11-06T16:00:00	7	Dirección del viento	1.61
128383	7	Sololá	702	San José Chacayá	5	Chacayá	10	Octubre	2023-10-31T00:00:00	2024-11-06T16:00:00	1	Precipitación	0.6
128384	7	Sololá	702	San José Chacayá	5	Chacayá	10	Octubre	2023-10-31T00:00:00	2024-11-06T16:00:00	8	Radiación solar	93
128385	7	Sololá	702	San José Chacayá	5	Chacayá	10	Octubre	2023-10-31T00:00:00	2024-11-06T17:00:00	2	Temperatura media	13.9
128386	7	Sololá	702	San José Chacayá	5	Chacayá	10	Octubre	2023-10-31T00:00:00	2024-11-06T17:00:00	4	Temperatura máxima	14.3
128387	7	Sololá	702	San José Chacayá	5	Chacayá	10	Octubre	2023-10-31T00:00:00	2024-11-06T17:00:00	3	Temperatura mínima	13.9
128388	7	Sololá	702	San José Chacayá	5	Chacayá	10	Octubre	2023-10-31T00:00:00	2024-11-06T17:00:00	5	Humedad	85
128389	7	Sololá	702	San José Chacayá	5	Chacayá	10	Octubre	2023-10-31T00:00:00	2024-11-06T17:00:00	6	Velocidad del viento	1.6
128390	7	Sololá	702	San José Chacayá	5	Chacayá	10	Octubre	2023-10-31T00:00:00	2024-11-06T17:00:00	7	Dirección del viento	1.61
128391	7	Sololá	702	San José Chacayá	5	Chacayá	10	Octubre	2023-10-31T00:00:00	2024-11-06T17:00:00	1	Precipitación	0.4
128392	7	Sololá	702	San José Chacayá	5	Chacayá	10	Octubre	2023-10-31T00:00:00	2024-11-06T17:00:00	8	Radiación solar	18
128393	7	Sololá	702	San José Chacayá	5	Chacayá	10	Octubre	2023-10-31T00:00:00	2024-11-06T18:00:00	2	Temperatura media	13.6
128394	7	Sololá	702	San José Chacayá	5	Chacayá	10	Octubre	2023-10-31T00:00:00	2024-11-06T18:00:00	4	Temperatura máxima	13.9
128395	7	Sololá	702	San José Chacayá	5	Chacayá	10	Octubre	2023-10-31T00:00:00	2024-11-06T18:00:00	3	Temperatura mínima	13.5
128396	7	Sololá	702	San José Chacayá	5	Chacayá	10	Octubre	2023-10-31T00:00:00	2024-11-06T18:00:00	5	Humedad	84
128397	7	Sololá	702	San José Chacayá	5	Chacayá	10	Octubre	2023-10-31T00:00:00	2024-11-06T18:00:00	6	Velocidad del viento	1.6
128398	7	Sololá	702	San José Chacayá	5	Chacayá	10	Octubre	2023-10-31T00:00:00	2024-11-06T18:00:00	7	Dirección del viento	1.61
128399	7	Sololá	702	San José Chacayá	5	Chacayá	10	Octubre	2023-10-31T00:00:00	2024-11-06T18:00:00	1	Precipitación	0.8
128400	7	Sololá	702	San José Chacayá	5	Chacayá	10	Octubre	2023-10-31T00:00:00	2024-11-06T18:00:00	8	Radiación solar	2
128401	7	Sololá	702	San José Chacayá	5	Chacayá	10	Octubre	2023-10-31T00:00:00	2024-11-06T19:00:00	2	Temperatura media	13.8
128402	7	Sololá	702	San José Chacayá	5	Chacayá	10	Octubre	2023-10-31T00:00:00	2024-11-06T19:00:00	4	Temperatura máxima	13.8
128403	7	Sololá	702	San José Chacayá	5	Chacayá	10	Octubre	2023-10-31T00:00:00	2024-11-06T19:00:00	3	Temperatura mínima	13.3
128404	7	Sololá	702	San José Chacayá	5	Chacayá	10	Octubre	2023-10-31T00:00:00	2024-11-06T19:00:00	5	Humedad	80
128405	7	Sololá	702	San José Chacayá	5	Chacayá	10	Octubre	2023-10-31T00:00:00	2024-11-06T19:00:00	6	Velocidad del viento	4.8
128406	7	Sololá	702	San José Chacayá	5	Chacayá	10	Octubre	2023-10-31T00:00:00	2024-11-06T19:00:00	7	Dirección del viento	4.83
128407	7	Sololá	702	San José Chacayá	5	Chacayá	10	Octubre	2023-10-31T00:00:00	2024-11-06T19:00:00	1	Precipitación	0.2
128408	7	Sololá	702	San José Chacayá	5	Chacayá	10	Octubre	2023-10-31T00:00:00	2024-11-06T19:00:00	8	Radiación solar	0
128409	7	Sololá	702	San José Chacayá	5	Chacayá	10	Octubre	2023-10-31T00:00:00	2024-11-06T20:00:00	2	Temperatura media	14.1
128410	7	Sololá	702	San José Chacayá	5	Chacayá	10	Octubre	2023-10-31T00:00:00	2024-11-06T20:00:00	4	Temperatura máxima	14.1
128411	7	Sololá	702	San José Chacayá	5	Chacayá	10	Octubre	2023-10-31T00:00:00	2024-11-06T20:00:00	3	Temperatura mínima	13.8
128412	7	Sololá	702	San José Chacayá	5	Chacayá	10	Octubre	2023-10-31T00:00:00	2024-11-06T20:00:00	5	Humedad	79
128413	7	Sololá	702	San José Chacayá	5	Chacayá	10	Octubre	2023-10-31T00:00:00	2024-11-06T20:00:00	6	Velocidad del viento	8
128414	7	Sololá	702	San José Chacayá	5	Chacayá	10	Octubre	2023-10-31T00:00:00	2024-11-06T20:00:00	7	Dirección del viento	8.05
128415	7	Sololá	702	San José Chacayá	5	Chacayá	10	Octubre	2023-10-31T00:00:00	2024-11-06T20:00:00	1	Precipitación	0.2
128416	7	Sololá	702	San José Chacayá	5	Chacayá	10	Octubre	2023-10-31T00:00:00	2024-11-06T20:00:00	8	Radiación solar	0
128417	7	Sololá	702	San José Chacayá	5	Chacayá	10	Octubre	2023-10-31T00:00:00	2024-11-06T21:00:00	2	Temperatura media	14.2
128418	7	Sololá	702	San José Chacayá	5	Chacayá	10	Octubre	2023-10-31T00:00:00	2024-11-06T21:00:00	4	Temperatura máxima	14.3
128419	7	Sololá	702	San José Chacayá	5	Chacayá	10	Octubre	2023-10-31T00:00:00	2024-11-06T21:00:00	3	Temperatura mínima	13.9
128420	7	Sololá	702	San José Chacayá	5	Chacayá	10	Octubre	2023-10-31T00:00:00	2024-11-06T21:00:00	5	Humedad	77
128421	7	Sololá	702	San José Chacayá	5	Chacayá	10	Octubre	2023-10-31T00:00:00	2024-11-06T21:00:00	6	Velocidad del viento	6.4
128422	7	Sololá	702	San José Chacayá	5	Chacayá	10	Octubre	2023-10-31T00:00:00	2024-11-06T21:00:00	7	Dirección del viento	6.44
128423	7	Sololá	702	San José Chacayá	5	Chacayá	10	Octubre	2023-10-31T00:00:00	2024-11-06T21:00:00	1	Precipitación	0
128424	7	Sololá	702	San José Chacayá	5	Chacayá	10	Octubre	2023-10-31T00:00:00	2024-11-06T21:00:00	8	Radiación solar	0
128425	7	Sololá	702	San José Chacayá	5	Chacayá	10	Octubre	2023-10-31T00:00:00	2024-11-06T22:00:00	2	Temperatura media	14.1
128426	7	Sololá	702	San José Chacayá	5	Chacayá	10	Octubre	2023-10-31T00:00:00	2024-11-06T22:00:00	4	Temperatura máxima	14.3
128427	7	Sololá	702	San José Chacayá	5	Chacayá	10	Octubre	2023-10-31T00:00:00	2024-11-06T22:00:00	3	Temperatura mínima	13.9
128428	7	Sololá	702	San José Chacayá	5	Chacayá	10	Octubre	2023-10-31T00:00:00	2024-11-06T22:00:00	5	Humedad	79
128429	7	Sololá	702	San José Chacayá	5	Chacayá	10	Octubre	2023-10-31T00:00:00	2024-11-06T22:00:00	6	Velocidad del viento	8
128430	7	Sololá	702	San José Chacayá	5	Chacayá	10	Octubre	2023-10-31T00:00:00	2024-11-06T22:00:00	7	Dirección del viento	8.05
128431	7	Sololá	702	San José Chacayá	5	Chacayá	10	Octubre	2023-10-31T00:00:00	2024-11-06T22:00:00	1	Precipitación	0.2
128432	7	Sololá	702	San José Chacayá	5	Chacayá	10	Octubre	2023-10-31T00:00:00	2024-11-06T22:00:00	8	Radiación solar	0
128433	7	Sololá	702	San José Chacayá	5	Chacayá	10	Octubre	2023-10-31T00:00:00	2024-11-06T23:00:00	2	Temperatura media	14.3
128434	7	Sololá	702	San José Chacayá	5	Chacayá	10	Octubre	2023-10-31T00:00:00	2024-11-06T23:00:00	4	Temperatura máxima	14.3
128435	7	Sololá	702	San José Chacayá	5	Chacayá	10	Octubre	2023-10-31T00:00:00	2024-11-06T23:00:00	3	Temperatura mínima	13.9
128436	7	Sololá	702	San José Chacayá	5	Chacayá	10	Octubre	2023-10-31T00:00:00	2024-11-06T23:00:00	5	Humedad	76
128437	7	Sololá	702	San José Chacayá	5	Chacayá	10	Octubre	2023-10-31T00:00:00	2024-11-06T23:00:00	6	Velocidad del viento	8
128438	7	Sololá	702	San José Chacayá	5	Chacayá	10	Octubre	2023-10-31T00:00:00	2024-11-06T23:00:00	7	Dirección del viento	8.05
128439	7	Sololá	702	San José Chacayá	5	Chacayá	10	Octubre	2023-10-31T00:00:00	2024-11-06T23:00:00	1	Precipitación	0
128440	7	Sololá	702	San José Chacayá	5	Chacayá	10	Octubre	2023-10-31T00:00:00	2024-11-06T23:00:00	8	Radiación solar	0
128441	7	Sololá	701	Sololá	2	El tablón	1	Enero	2023-01-01T00:00:00	2024-11-06T00:00:00	2	Temperatura media	11.6
128442	7	Sololá	701	Sololá	2	El tablón	1	Enero	2023-01-01T00:00:00	2024-11-06T00:00:00	4	Temperatura máxima	12
128443	7	Sololá	701	Sololá	2	El tablón	1	Enero	2023-01-01T00:00:00	2024-11-06T00:00:00	3	Temperatura mínima	11.6
128444	7	Sololá	701	Sololá	2	El tablón	1	Enero	2023-01-01T00:00:00	2024-11-06T00:00:00	5	Humedad	87
128445	7	Sololá	701	Sololá	2	El tablón	1	Enero	2023-01-01T00:00:00	2024-11-06T00:00:00	6	Velocidad del viento	4.8
128446	7	Sololá	701	Sololá	2	El tablón	1	Enero	2023-01-01T00:00:00	2024-11-06T00:00:00	7	Dirección del viento	4.83
128447	7	Sololá	701	Sololá	2	El tablón	1	Enero	2023-01-01T00:00:00	2024-11-06T00:00:00	1	Precipitación	0
128448	7	Sololá	701	Sololá	2	El tablón	1	Enero	2023-01-01T00:00:00	2024-11-06T00:00:00	8	Radiación solar	0
128449	7	Sololá	701	Sololá	2	El tablón	1	Enero	2023-01-01T00:00:00	2024-11-06T01:00:00	2	Temperatura media	11.1
128450	7	Sololá	701	Sololá	2	El tablón	1	Enero	2023-01-01T00:00:00	2024-11-06T01:00:00	4	Temperatura máxima	11.6
128451	7	Sololá	701	Sololá	2	El tablón	1	Enero	2023-01-01T00:00:00	2024-11-06T01:00:00	3	Temperatura mínima	11.1
128452	7	Sololá	701	Sololá	2	El tablón	1	Enero	2023-01-01T00:00:00	2024-11-06T01:00:00	5	Humedad	88
128453	7	Sololá	701	Sololá	2	El tablón	1	Enero	2023-01-01T00:00:00	2024-11-06T01:00:00	6	Velocidad del viento	3.2
128454	7	Sololá	701	Sololá	2	El tablón	1	Enero	2023-01-01T00:00:00	2024-11-06T01:00:00	7	Dirección del viento	3.22
128455	7	Sololá	701	Sololá	2	El tablón	1	Enero	2023-01-01T00:00:00	2024-11-06T01:00:00	1	Precipitación	0
128456	7	Sololá	701	Sololá	2	El tablón	1	Enero	2023-01-01T00:00:00	2024-11-06T01:00:00	8	Radiación solar	0
128457	7	Sololá	701	Sololá	2	El tablón	1	Enero	2023-01-01T00:00:00	2024-11-06T02:00:00	2	Temperatura media	10.8
128458	7	Sololá	701	Sololá	2	El tablón	1	Enero	2023-01-01T00:00:00	2024-11-06T02:00:00	4	Temperatura máxima	11.1
128459	7	Sololá	701	Sololá	2	El tablón	1	Enero	2023-01-01T00:00:00	2024-11-06T02:00:00	3	Temperatura mínima	10.4
128460	7	Sololá	701	Sololá	2	El tablón	1	Enero	2023-01-01T00:00:00	2024-11-06T02:00:00	5	Humedad	88
128461	7	Sololá	701	Sololá	2	El tablón	1	Enero	2023-01-01T00:00:00	2024-11-06T02:00:00	6	Velocidad del viento	4.8
128462	7	Sololá	701	Sololá	2	El tablón	1	Enero	2023-01-01T00:00:00	2024-11-06T02:00:00	7	Dirección del viento	4.83
128463	7	Sololá	701	Sololá	2	El tablón	1	Enero	2023-01-01T00:00:00	2024-11-06T02:00:00	1	Precipitación	0
128464	7	Sololá	701	Sololá	2	El tablón	1	Enero	2023-01-01T00:00:00	2024-11-06T02:00:00	8	Radiación solar	0
128465	7	Sololá	701	Sololá	2	El tablón	1	Enero	2023-01-01T00:00:00	2024-11-06T03:00:00	2	Temperatura media	10.7
128466	7	Sololá	701	Sololá	2	El tablón	1	Enero	2023-01-01T00:00:00	2024-11-06T03:00:00	4	Temperatura máxima	10.8
128467	7	Sololá	701	Sololá	2	El tablón	1	Enero	2023-01-01T00:00:00	2024-11-06T03:00:00	3	Temperatura mínima	10.2
128468	7	Sololá	701	Sololá	2	El tablón	1	Enero	2023-01-01T00:00:00	2024-11-06T03:00:00	5	Humedad	89
128469	7	Sololá	701	Sololá	2	El tablón	1	Enero	2023-01-01T00:00:00	2024-11-06T03:00:00	6	Velocidad del viento	1.6
128470	7	Sololá	701	Sololá	2	El tablón	1	Enero	2023-01-01T00:00:00	2024-11-06T03:00:00	7	Dirección del viento	1.61
128471	7	Sololá	701	Sololá	2	El tablón	1	Enero	2023-01-01T00:00:00	2024-11-06T03:00:00	1	Precipitación	0
128472	7	Sololá	701	Sololá	2	El tablón	1	Enero	2023-01-01T00:00:00	2024-11-06T03:00:00	8	Radiación solar	0
128473	7	Sololá	701	Sololá	2	El tablón	1	Enero	2023-01-01T00:00:00	2024-11-06T04:00:00	2	Temperatura media	11
128474	7	Sololá	701	Sololá	2	El tablón	1	Enero	2023-01-01T00:00:00	2024-11-06T04:00:00	4	Temperatura máxima	11.1
128475	7	Sololá	701	Sololá	2	El tablón	1	Enero	2023-01-01T00:00:00	2024-11-06T04:00:00	3	Temperatura mínima	10.7
128476	7	Sololá	701	Sololá	2	El tablón	1	Enero	2023-01-01T00:00:00	2024-11-06T04:00:00	5	Humedad	89
128477	7	Sololá	701	Sololá	2	El tablón	1	Enero	2023-01-01T00:00:00	2024-11-06T04:00:00	6	Velocidad del viento	4.8
128478	7	Sololá	701	Sololá	2	El tablón	1	Enero	2023-01-01T00:00:00	2024-11-06T04:00:00	7	Dirección del viento	4.83
128479	7	Sololá	701	Sololá	2	El tablón	1	Enero	2023-01-01T00:00:00	2024-11-06T04:00:00	1	Precipitación	0
128480	7	Sololá	701	Sololá	2	El tablón	1	Enero	2023-01-01T00:00:00	2024-11-06T04:00:00	8	Radiación solar	0
128481	7	Sololá	701	Sololá	2	El tablón	1	Enero	2023-01-01T00:00:00	2024-11-06T05:00:00	2	Temperatura media	10.8
128482	7	Sololá	701	Sololá	2	El tablón	1	Enero	2023-01-01T00:00:00	2024-11-06T05:00:00	4	Temperatura máxima	11.4
128483	7	Sololá	701	Sololá	2	El tablón	1	Enero	2023-01-01T00:00:00	2024-11-06T05:00:00	3	Temperatura mínima	10.8
128484	7	Sololá	701	Sololá	2	El tablón	1	Enero	2023-01-01T00:00:00	2024-11-06T05:00:00	5	Humedad	88
128485	7	Sololá	701	Sololá	2	El tablón	1	Enero	2023-01-01T00:00:00	2024-11-06T05:00:00	6	Velocidad del viento	6.4
128486	7	Sololá	701	Sololá	2	El tablón	1	Enero	2023-01-01T00:00:00	2024-11-06T05:00:00	7	Dirección del viento	6.44
128487	7	Sololá	701	Sololá	2	El tablón	1	Enero	2023-01-01T00:00:00	2024-11-06T05:00:00	1	Precipitación	0
128488	7	Sololá	701	Sololá	2	El tablón	1	Enero	2023-01-01T00:00:00	2024-11-06T05:00:00	8	Radiación solar	0
128489	7	Sololá	701	Sololá	2	El tablón	1	Enero	2023-01-01T00:00:00	2024-11-06T06:00:00	2	Temperatura media	10.4
128490	7	Sololá	701	Sololá	2	El tablón	1	Enero	2023-01-01T00:00:00	2024-11-06T06:00:00	4	Temperatura máxima	10.8
128491	7	Sololá	701	Sololá	2	El tablón	1	Enero	2023-01-01T00:00:00	2024-11-06T06:00:00	3	Temperatura mínima	9.8
128492	7	Sololá	701	Sololá	2	El tablón	1	Enero	2023-01-01T00:00:00	2024-11-06T06:00:00	5	Humedad	87
128493	7	Sololá	701	Sololá	2	El tablón	1	Enero	2023-01-01T00:00:00	2024-11-06T06:00:00	6	Velocidad del viento	4.8
128494	7	Sololá	701	Sololá	2	El tablón	1	Enero	2023-01-01T00:00:00	2024-11-06T06:00:00	7	Dirección del viento	4.83
128495	7	Sololá	701	Sololá	2	El tablón	1	Enero	2023-01-01T00:00:00	2024-11-06T06:00:00	1	Precipitación	0
128496	7	Sololá	701	Sololá	2	El tablón	1	Enero	2023-01-01T00:00:00	2024-11-06T06:00:00	8	Radiación solar	0
128497	7	Sololá	701	Sololá	2	El tablón	1	Enero	2023-01-01T00:00:00	2024-11-06T07:00:00	2	Temperatura media	9.6
128498	7	Sololá	701	Sololá	2	El tablón	1	Enero	2023-01-01T00:00:00	2024-11-06T07:00:00	4	Temperatura máxima	11.1
128499	7	Sololá	701	Sololá	2	El tablón	1	Enero	2023-01-01T00:00:00	2024-11-06T07:00:00	3	Temperatura mínima	9.6
128500	7	Sololá	701	Sololá	2	El tablón	1	Enero	2023-01-01T00:00:00	2024-11-06T07:00:00	5	Humedad	86
128501	7	Sololá	701	Sololá	2	El tablón	1	Enero	2023-01-01T00:00:00	2024-11-06T07:00:00	6	Velocidad del viento	3.2
128502	7	Sololá	701	Sololá	2	El tablón	1	Enero	2023-01-01T00:00:00	2024-11-06T07:00:00	7	Dirección del viento	3.22
128503	7	Sololá	701	Sololá	2	El tablón	1	Enero	2023-01-01T00:00:00	2024-11-06T07:00:00	1	Precipitación	0
128504	7	Sololá	701	Sololá	2	El tablón	1	Enero	2023-01-01T00:00:00	2024-11-06T07:00:00	8	Radiación solar	7
128505	7	Sololá	701	Sololá	2	El tablón	1	Enero	2023-01-01T00:00:00	2024-11-06T08:00:00	2	Temperatura media	13.3
128506	7	Sololá	701	Sololá	2	El tablón	1	Enero	2023-01-01T00:00:00	2024-11-06T08:00:00	4	Temperatura máxima	13.4
128507	7	Sololá	701	Sololá	2	El tablón	1	Enero	2023-01-01T00:00:00	2024-11-06T08:00:00	3	Temperatura mínima	9.6
128508	7	Sololá	701	Sololá	2	El tablón	1	Enero	2023-01-01T00:00:00	2024-11-06T08:00:00	5	Humedad	82
128509	7	Sololá	701	Sololá	2	El tablón	1	Enero	2023-01-01T00:00:00	2024-11-06T08:00:00	6	Velocidad del viento	1.6
128510	7	Sololá	701	Sololá	2	El tablón	1	Enero	2023-01-01T00:00:00	2024-11-06T08:00:00	7	Dirección del viento	1.61
128511	7	Sololá	701	Sololá	2	El tablón	1	Enero	2023-01-01T00:00:00	2024-11-06T08:00:00	1	Precipitación	0
128512	7	Sololá	701	Sololá	2	El tablón	1	Enero	2023-01-01T00:00:00	2024-11-06T08:00:00	8	Radiación solar	119
128513	7	Sololá	701	Sololá	2	El tablón	1	Enero	2023-01-01T00:00:00	2024-11-06T09:00:00	2	Temperatura media	16.5
128514	7	Sololá	701	Sololá	2	El tablón	1	Enero	2023-01-01T00:00:00	2024-11-06T09:00:00	4	Temperatura máxima	16.5
128515	7	Sololá	701	Sololá	2	El tablón	1	Enero	2023-01-01T00:00:00	2024-11-06T09:00:00	3	Temperatura mínima	13.3
128516	7	Sololá	701	Sololá	2	El tablón	1	Enero	2023-01-01T00:00:00	2024-11-06T09:00:00	5	Humedad	70
128517	7	Sololá	701	Sololá	2	El tablón	1	Enero	2023-01-01T00:00:00	2024-11-06T09:00:00	6	Velocidad del viento	3.2
128518	7	Sololá	701	Sololá	2	El tablón	1	Enero	2023-01-01T00:00:00	2024-11-06T09:00:00	7	Dirección del viento	3.22
128519	7	Sololá	701	Sololá	2	El tablón	1	Enero	2023-01-01T00:00:00	2024-11-06T09:00:00	1	Precipitación	0
128520	7	Sololá	701	Sololá	2	El tablón	1	Enero	2023-01-01T00:00:00	2024-11-06T09:00:00	8	Radiación solar	316
128521	7	Sololá	701	Sololá	2	El tablón	1	Enero	2023-01-01T00:00:00	2024-11-06T10:00:00	2	Temperatura media	16.5
128522	7	Sololá	701	Sololá	2	El tablón	1	Enero	2023-01-01T00:00:00	2024-11-06T10:00:00	4	Temperatura máxima	17.3
128523	7	Sololá	701	Sololá	2	El tablón	1	Enero	2023-01-01T00:00:00	2024-11-06T10:00:00	3	Temperatura mínima	16.4
128524	7	Sololá	701	Sololá	2	El tablón	1	Enero	2023-01-01T00:00:00	2024-11-06T10:00:00	5	Humedad	70
128525	7	Sololá	701	Sololá	2	El tablón	1	Enero	2023-01-01T00:00:00	2024-11-06T10:00:00	6	Velocidad del viento	4.8
128526	7	Sololá	701	Sololá	2	El tablón	1	Enero	2023-01-01T00:00:00	2024-11-06T10:00:00	7	Dirección del viento	4.83
128527	7	Sololá	701	Sololá	2	El tablón	1	Enero	2023-01-01T00:00:00	2024-11-06T10:00:00	1	Precipitación	0
128528	7	Sololá	701	Sololá	2	El tablón	1	Enero	2023-01-01T00:00:00	2024-11-06T10:00:00	8	Radiación solar	358
128529	7	Sololá	701	Sololá	2	El tablón	1	Enero	2023-01-01T00:00:00	2024-11-06T11:00:00	2	Temperatura media	16.9
128530	7	Sololá	701	Sololá	2	El tablón	1	Enero	2023-01-01T00:00:00	2024-11-06T11:00:00	4	Temperatura máxima	17.4
128531	7	Sololá	701	Sololá	2	El tablón	1	Enero	2023-01-01T00:00:00	2024-11-06T11:00:00	3	Temperatura mínima	16.5
128532	7	Sololá	701	Sololá	2	El tablón	1	Enero	2023-01-01T00:00:00	2024-11-06T11:00:00	5	Humedad	72
128533	7	Sololá	701	Sololá	2	El tablón	1	Enero	2023-01-01T00:00:00	2024-11-06T11:00:00	6	Velocidad del viento	6.4
128534	7	Sololá	701	Sololá	2	El tablón	1	Enero	2023-01-01T00:00:00	2024-11-06T11:00:00	7	Dirección del viento	6.44
128535	7	Sololá	701	Sololá	2	El tablón	1	Enero	2023-01-01T00:00:00	2024-11-06T11:00:00	1	Precipitación	0
128536	7	Sololá	701	Sololá	2	El tablón	1	Enero	2023-01-01T00:00:00	2024-11-06T11:00:00	8	Radiación solar	529
128537	7	Sololá	701	Sololá	2	El tablón	1	Enero	2023-01-01T00:00:00	2024-11-06T12:00:00	2	Temperatura media	17.4
128538	7	Sololá	701	Sololá	2	El tablón	1	Enero	2023-01-01T00:00:00	2024-11-06T12:00:00	4	Temperatura máxima	18.1
128539	7	Sololá	701	Sololá	2	El tablón	1	Enero	2023-01-01T00:00:00	2024-11-06T12:00:00	3	Temperatura mínima	16.7
128540	7	Sololá	701	Sololá	2	El tablón	1	Enero	2023-01-01T00:00:00	2024-11-06T12:00:00	5	Humedad	75
128541	7	Sololá	701	Sololá	2	El tablón	1	Enero	2023-01-01T00:00:00	2024-11-06T12:00:00	6	Velocidad del viento	6.4
128542	7	Sololá	701	Sololá	2	El tablón	1	Enero	2023-01-01T00:00:00	2024-11-06T12:00:00	7	Dirección del viento	6.44
128543	7	Sololá	701	Sololá	2	El tablón	1	Enero	2023-01-01T00:00:00	2024-11-06T12:00:00	1	Precipitación	0
128544	7	Sololá	701	Sololá	2	El tablón	1	Enero	2023-01-01T00:00:00	2024-11-06T12:00:00	8	Radiación solar	400
128545	7	Sololá	701	Sololá	2	El tablón	1	Enero	2023-01-01T00:00:00	2024-11-06T13:00:00	2	Temperatura media	18.7
128546	7	Sololá	701	Sololá	2	El tablón	1	Enero	2023-01-01T00:00:00	2024-11-06T13:00:00	4	Temperatura máxima	18.9
128547	7	Sololá	701	Sololá	2	El tablón	1	Enero	2023-01-01T00:00:00	2024-11-06T13:00:00	3	Temperatura mínima	16.9
128548	7	Sololá	701	Sololá	2	El tablón	1	Enero	2023-01-01T00:00:00	2024-11-06T13:00:00	5	Humedad	67
128549	7	Sololá	701	Sololá	2	El tablón	1	Enero	2023-01-01T00:00:00	2024-11-06T13:00:00	6	Velocidad del viento	6.4
128550	7	Sololá	701	Sololá	2	El tablón	1	Enero	2023-01-01T00:00:00	2024-11-06T13:00:00	7	Dirección del viento	6.44
128551	7	Sololá	701	Sololá	2	El tablón	1	Enero	2023-01-01T00:00:00	2024-11-06T13:00:00	1	Precipitación	0
128552	7	Sololá	701	Sololá	2	El tablón	1	Enero	2023-01-01T00:00:00	2024-11-06T13:00:00	8	Radiación solar	541
128553	7	Sololá	701	Sololá	2	El tablón	1	Enero	2023-01-01T00:00:00	2024-11-06T14:00:00	2	Temperatura media	17.9
128554	7	Sololá	701	Sololá	2	El tablón	1	Enero	2023-01-01T00:00:00	2024-11-06T14:00:00	4	Temperatura máxima	18.7
128555	7	Sololá	701	Sololá	2	El tablón	1	Enero	2023-01-01T00:00:00	2024-11-06T14:00:00	3	Temperatura mínima	17.3
128556	7	Sololá	701	Sololá	2	El tablón	1	Enero	2023-01-01T00:00:00	2024-11-06T14:00:00	5	Humedad	80
128557	7	Sololá	701	Sololá	2	El tablón	1	Enero	2023-01-01T00:00:00	2024-11-06T14:00:00	6	Velocidad del viento	8
128558	7	Sololá	701	Sololá	2	El tablón	1	Enero	2023-01-01T00:00:00	2024-11-06T14:00:00	7	Dirección del viento	8.05
128559	7	Sololá	701	Sololá	2	El tablón	1	Enero	2023-01-01T00:00:00	2024-11-06T14:00:00	1	Precipitación	0
128560	7	Sololá	701	Sololá	2	El tablón	1	Enero	2023-01-01T00:00:00	2024-11-06T14:00:00	8	Radiación solar	572
128561	7	Sololá	701	Sololá	2	El tablón	1	Enero	2023-01-01T00:00:00	2024-11-06T15:00:00	2	Temperatura media	16.7
128562	7	Sololá	701	Sololá	2	El tablón	1	Enero	2023-01-01T00:00:00	2024-11-06T15:00:00	4	Temperatura máxima	17.9
128563	7	Sololá	701	Sololá	2	El tablón	1	Enero	2023-01-01T00:00:00	2024-11-06T15:00:00	3	Temperatura mínima	16.7
128564	7	Sololá	701	Sololá	2	El tablón	1	Enero	2023-01-01T00:00:00	2024-11-06T15:00:00	5	Humedad	85
128565	7	Sololá	701	Sololá	2	El tablón	1	Enero	2023-01-01T00:00:00	2024-11-06T15:00:00	6	Velocidad del viento	9.7
128566	7	Sololá	701	Sololá	2	El tablón	1	Enero	2023-01-01T00:00:00	2024-11-06T15:00:00	7	Dirección del viento	9.66
128567	7	Sololá	701	Sololá	2	El tablón	1	Enero	2023-01-01T00:00:00	2024-11-06T15:00:00	1	Precipitación	0
128568	7	Sololá	701	Sololá	2	El tablón	1	Enero	2023-01-01T00:00:00	2024-11-06T15:00:00	8	Radiación solar	537
128569	7	Sololá	701	Sololá	2	El tablón	1	Enero	2023-01-01T00:00:00	2024-11-06T16:00:00	2	Temperatura media	15.9
128570	7	Sololá	701	Sololá	2	El tablón	1	Enero	2023-01-01T00:00:00	2024-11-06T16:00:00	4	Temperatura máxima	16.8
128571	7	Sololá	701	Sololá	2	El tablón	1	Enero	2023-01-01T00:00:00	2024-11-06T16:00:00	3	Temperatura mínima	15.7
128572	7	Sololá	701	Sololá	2	El tablón	1	Enero	2023-01-01T00:00:00	2024-11-06T16:00:00	5	Humedad	88
128573	7	Sololá	701	Sololá	2	El tablón	1	Enero	2023-01-01T00:00:00	2024-11-06T16:00:00	6	Velocidad del viento	6.4
128574	7	Sololá	701	Sololá	2	El tablón	1	Enero	2023-01-01T00:00:00	2024-11-06T16:00:00	7	Dirección del viento	6.44
128575	7	Sololá	701	Sololá	2	El tablón	1	Enero	2023-01-01T00:00:00	2024-11-06T16:00:00	1	Precipitación	0
128576	7	Sololá	701	Sololá	2	El tablón	1	Enero	2023-01-01T00:00:00	2024-11-06T16:00:00	8	Radiación solar	257
128577	7	Sololá	701	Sololá	2	El tablón	1	Enero	2023-01-01T00:00:00	2024-11-06T17:00:00	2	Temperatura media	15.4
128578	7	Sololá	701	Sololá	2	El tablón	1	Enero	2023-01-01T00:00:00	2024-11-06T17:00:00	4	Temperatura máxima	16.2
128579	7	Sololá	701	Sololá	2	El tablón	1	Enero	2023-01-01T00:00:00	2024-11-06T17:00:00	3	Temperatura mínima	15.3
128580	7	Sololá	701	Sololá	2	El tablón	1	Enero	2023-01-01T00:00:00	2024-11-06T17:00:00	5	Humedad	88
128581	7	Sololá	701	Sololá	2	El tablón	1	Enero	2023-01-01T00:00:00	2024-11-06T17:00:00	6	Velocidad del viento	4.8
128582	7	Sololá	701	Sololá	2	El tablón	1	Enero	2023-01-01T00:00:00	2024-11-06T17:00:00	7	Dirección del viento	4.83
128583	7	Sololá	701	Sololá	2	El tablón	1	Enero	2023-01-01T00:00:00	2024-11-06T17:00:00	1	Precipitación	0
128584	7	Sololá	701	Sololá	2	El tablón	1	Enero	2023-01-01T00:00:00	2024-11-06T17:00:00	8	Radiación solar	130
128585	7	Sololá	701	Sololá	2	El tablón	1	Enero	2023-01-01T00:00:00	2024-11-06T18:00:00	2	Temperatura media	14
128586	7	Sololá	701	Sololá	2	El tablón	1	Enero	2023-01-01T00:00:00	2024-11-06T18:00:00	4	Temperatura máxima	15.4
128587	7	Sololá	701	Sololá	2	El tablón	1	Enero	2023-01-01T00:00:00	2024-11-06T18:00:00	3	Temperatura mínima	14
128588	7	Sololá	701	Sololá	2	El tablón	1	Enero	2023-01-01T00:00:00	2024-11-06T18:00:00	5	Humedad	89
128589	7	Sololá	701	Sololá	2	El tablón	1	Enero	2023-01-01T00:00:00	2024-11-06T18:00:00	6	Velocidad del viento	3.2
128590	7	Sololá	701	Sololá	2	El tablón	1	Enero	2023-01-01T00:00:00	2024-11-06T18:00:00	7	Dirección del viento	3.22
128591	7	Sololá	701	Sololá	2	El tablón	1	Enero	2023-01-01T00:00:00	2024-11-06T18:00:00	1	Precipitación	0
128592	7	Sololá	701	Sololá	2	El tablón	1	Enero	2023-01-01T00:00:00	2024-11-06T18:00:00	8	Radiación solar	15
128593	7	Sololá	701	Sololá	2	El tablón	1	Enero	2023-01-01T00:00:00	2024-11-06T19:00:00	2	Temperatura media	13.3
128594	7	Sololá	701	Sololá	2	El tablón	1	Enero	2023-01-01T00:00:00	2024-11-06T19:00:00	4	Temperatura máxima	14.1
128595	7	Sololá	701	Sololá	2	El tablón	1	Enero	2023-01-01T00:00:00	2024-11-06T19:00:00	3	Temperatura mínima	13.3
128596	7	Sololá	701	Sololá	2	El tablón	1	Enero	2023-01-01T00:00:00	2024-11-06T19:00:00	5	Humedad	87
128597	7	Sololá	701	Sololá	2	El tablón	1	Enero	2023-01-01T00:00:00	2024-11-06T19:00:00	6	Velocidad del viento	3.2
128598	7	Sololá	701	Sololá	2	El tablón	1	Enero	2023-01-01T00:00:00	2024-11-06T19:00:00	7	Dirección del viento	3.22
128599	7	Sololá	701	Sololá	2	El tablón	1	Enero	2023-01-01T00:00:00	2024-11-06T19:00:00	1	Precipitación	0
128600	7	Sololá	701	Sololá	2	El tablón	1	Enero	2023-01-01T00:00:00	2024-11-06T19:00:00	8	Radiación solar	0
128601	7	Sololá	701	Sololá	2	El tablón	1	Enero	2023-01-01T00:00:00	2024-11-06T20:00:00	2	Temperatura media	12.8
128602	7	Sololá	701	Sololá	2	El tablón	1	Enero	2023-01-01T00:00:00	2024-11-06T20:00:00	4	Temperatura máxima	13.4
128603	7	Sololá	701	Sololá	2	El tablón	1	Enero	2023-01-01T00:00:00	2024-11-06T20:00:00	3	Temperatura mínima	12.7
128604	7	Sololá	701	Sololá	2	El tablón	1	Enero	2023-01-01T00:00:00	2024-11-06T20:00:00	5	Humedad	88
128605	7	Sololá	701	Sololá	2	El tablón	1	Enero	2023-01-01T00:00:00	2024-11-06T20:00:00	6	Velocidad del viento	4.8
128606	7	Sololá	701	Sololá	2	El tablón	1	Enero	2023-01-01T00:00:00	2024-11-06T20:00:00	7	Dirección del viento	4.83
128607	7	Sololá	701	Sololá	2	El tablón	1	Enero	2023-01-01T00:00:00	2024-11-06T20:00:00	1	Precipitación	0
128608	7	Sololá	701	Sololá	2	El tablón	1	Enero	2023-01-01T00:00:00	2024-11-06T20:00:00	8	Radiación solar	0
128609	7	Sololá	701	Sololá	2	El tablón	1	Enero	2023-01-01T00:00:00	2024-11-06T21:00:00	2	Temperatura media	12.6
128610	7	Sololá	701	Sololá	2	El tablón	1	Enero	2023-01-01T00:00:00	2024-11-06T21:00:00	4	Temperatura máxima	12.8
128611	7	Sololá	701	Sololá	2	El tablón	1	Enero	2023-01-01T00:00:00	2024-11-06T21:00:00	3	Temperatura mínima	12.6
128612	7	Sololá	701	Sololá	2	El tablón	1	Enero	2023-01-01T00:00:00	2024-11-06T21:00:00	5	Humedad	88
128613	7	Sololá	701	Sololá	2	El tablón	1	Enero	2023-01-01T00:00:00	2024-11-06T21:00:00	6	Velocidad del viento	6.4
128614	7	Sololá	701	Sololá	2	El tablón	1	Enero	2023-01-01T00:00:00	2024-11-06T21:00:00	7	Dirección del viento	6.44
128615	7	Sololá	701	Sololá	2	El tablón	1	Enero	2023-01-01T00:00:00	2024-11-06T21:00:00	1	Precipitación	0
128616	7	Sololá	701	Sololá	2	El tablón	1	Enero	2023-01-01T00:00:00	2024-11-06T21:00:00	8	Radiación solar	0
128617	7	Sololá	701	Sololá	2	El tablón	1	Enero	2023-01-01T00:00:00	2024-11-06T22:00:00	2	Temperatura media	12.2
128618	7	Sololá	701	Sololá	2	El tablón	1	Enero	2023-01-01T00:00:00	2024-11-06T22:00:00	4	Temperatura máxima	12.6
128619	7	Sololá	701	Sololá	2	El tablón	1	Enero	2023-01-01T00:00:00	2024-11-06T22:00:00	3	Temperatura mínima	12.2
128620	7	Sololá	701	Sololá	2	El tablón	1	Enero	2023-01-01T00:00:00	2024-11-06T22:00:00	5	Humedad	88
128621	7	Sololá	701	Sololá	2	El tablón	1	Enero	2023-01-01T00:00:00	2024-11-06T22:00:00	6	Velocidad del viento	4.8
128622	7	Sololá	701	Sololá	2	El tablón	1	Enero	2023-01-01T00:00:00	2024-11-06T22:00:00	7	Dirección del viento	4.83
128623	7	Sololá	701	Sololá	2	El tablón	1	Enero	2023-01-01T00:00:00	2024-11-06T22:00:00	1	Precipitación	0
128624	7	Sololá	701	Sololá	2	El tablón	1	Enero	2023-01-01T00:00:00	2024-11-06T22:00:00	8	Radiación solar	0
128625	7	Sololá	701	Sololá	2	El tablón	1	Enero	2023-01-01T00:00:00	2024-11-06T23:00:00	2	Temperatura media	10.8
128626	7	Sololá	701	Sololá	2	El tablón	1	Enero	2023-01-01T00:00:00	2024-11-06T23:00:00	4	Temperatura máxima	12.2
128627	7	Sololá	701	Sololá	2	El tablón	1	Enero	2023-01-01T00:00:00	2024-11-06T23:00:00	3	Temperatura mínima	10.7
128628	7	Sololá	701	Sololá	2	El tablón	1	Enero	2023-01-01T00:00:00	2024-11-06T23:00:00	5	Humedad	90
128629	7	Sololá	701	Sololá	2	El tablón	1	Enero	2023-01-01T00:00:00	2024-11-06T23:00:00	6	Velocidad del viento	0
128630	7	Sololá	701	Sololá	2	El tablón	1	Enero	2023-01-01T00:00:00	2024-11-06T23:00:00	7	Dirección del viento	0
128631	7	Sololá	701	Sololá	2	El tablón	1	Enero	2023-01-01T00:00:00	2024-11-06T23:00:00	1	Precipitación	0
128632	7	Sololá	701	Sololá	2	El tablón	1	Enero	2023-01-01T00:00:00	2024-11-06T23:00:00	8	Radiación solar	0
128633	7	Sololá	701	Sololá	2	El tablón	1	Enero	2023-02-01T00:00:00	2024-11-06T00:00:00	2	Temperatura media	9.5
128634	7	Sololá	701	Sololá	2	El tablón	1	Enero	2023-02-01T00:00:00	2024-11-06T00:00:00	4	Temperatura máxima	10.8
128635	7	Sololá	701	Sololá	2	El tablón	1	Enero	2023-02-01T00:00:00	2024-11-06T00:00:00	3	Temperatura mínima	9.5
128636	7	Sololá	701	Sololá	2	El tablón	1	Enero	2023-02-01T00:00:00	2024-11-06T00:00:00	5	Humedad	90
128637	7	Sololá	701	Sololá	2	El tablón	1	Enero	2023-02-01T00:00:00	2024-11-06T00:00:00	6	Velocidad del viento	1.6
128638	7	Sololá	701	Sololá	2	El tablón	1	Enero	2023-02-01T00:00:00	2024-11-06T00:00:00	7	Dirección del viento	1.61
128639	7	Sololá	701	Sololá	2	El tablón	1	Enero	2023-02-01T00:00:00	2024-11-06T00:00:00	1	Precipitación	0
128640	7	Sololá	701	Sololá	2	El tablón	1	Enero	2023-02-01T00:00:00	2024-11-06T00:00:00	8	Radiación solar	0
128641	7	Sololá	701	Sololá	2	El tablón	1	Enero	2023-02-01T00:00:00	2024-11-06T01:00:00	2	Temperatura media	9.2
128642	7	Sololá	701	Sololá	2	El tablón	1	Enero	2023-02-01T00:00:00	2024-11-06T01:00:00	4	Temperatura máxima	9.5
128643	7	Sololá	701	Sololá	2	El tablón	1	Enero	2023-02-01T00:00:00	2024-11-06T01:00:00	3	Temperatura mínima	9.2
128644	7	Sololá	701	Sololá	2	El tablón	1	Enero	2023-02-01T00:00:00	2024-11-06T01:00:00	5	Humedad	90
128645	7	Sololá	701	Sololá	2	El tablón	1	Enero	2023-02-01T00:00:00	2024-11-06T01:00:00	6	Velocidad del viento	3.2
128646	7	Sololá	701	Sololá	2	El tablón	1	Enero	2023-02-01T00:00:00	2024-11-06T01:00:00	7	Dirección del viento	3.22
128647	7	Sololá	701	Sololá	2	El tablón	1	Enero	2023-02-01T00:00:00	2024-11-06T01:00:00	1	Precipitación	0
128648	7	Sololá	701	Sololá	2	El tablón	1	Enero	2023-02-01T00:00:00	2024-11-06T01:00:00	8	Radiación solar	0
128649	7	Sololá	701	Sololá	2	El tablón	1	Enero	2023-02-01T00:00:00	2024-11-06T02:00:00	2	Temperatura media	8.8
128650	7	Sololá	701	Sololá	2	El tablón	1	Enero	2023-02-01T00:00:00	2024-11-06T02:00:00	4	Temperatura máxima	9.6
128651	7	Sololá	701	Sololá	2	El tablón	1	Enero	2023-02-01T00:00:00	2024-11-06T02:00:00	3	Temperatura mínima	8.8
128652	7	Sololá	701	Sololá	2	El tablón	1	Enero	2023-02-01T00:00:00	2024-11-06T02:00:00	5	Humedad	90
128653	7	Sololá	701	Sololá	2	El tablón	1	Enero	2023-02-01T00:00:00	2024-11-06T02:00:00	6	Velocidad del viento	4.8
128654	7	Sololá	701	Sololá	2	El tablón	1	Enero	2023-02-01T00:00:00	2024-11-06T02:00:00	7	Dirección del viento	4.83
128655	7	Sololá	701	Sololá	2	El tablón	1	Enero	2023-02-01T00:00:00	2024-11-06T02:00:00	1	Precipitación	0
128656	7	Sololá	701	Sololá	2	El tablón	1	Enero	2023-02-01T00:00:00	2024-11-06T02:00:00	8	Radiación solar	0
128657	7	Sololá	701	Sololá	2	El tablón	1	Enero	2023-02-01T00:00:00	2024-11-06T03:00:00	2	Temperatura media	8.4
128658	7	Sololá	701	Sololá	2	El tablón	1	Enero	2023-02-01T00:00:00	2024-11-06T03:00:00	4	Temperatura máxima	8.8
128659	7	Sololá	701	Sololá	2	El tablón	1	Enero	2023-02-01T00:00:00	2024-11-06T03:00:00	3	Temperatura mínima	8.4
128660	7	Sololá	701	Sololá	2	El tablón	1	Enero	2023-02-01T00:00:00	2024-11-06T03:00:00	5	Humedad	90
128661	7	Sololá	701	Sololá	2	El tablón	1	Enero	2023-02-01T00:00:00	2024-11-06T03:00:00	6	Velocidad del viento	3.2
128662	7	Sololá	701	Sololá	2	El tablón	1	Enero	2023-02-01T00:00:00	2024-11-06T03:00:00	7	Dirección del viento	3.22
128663	7	Sololá	701	Sololá	2	El tablón	1	Enero	2023-02-01T00:00:00	2024-11-06T03:00:00	1	Precipitación	0
128664	7	Sololá	701	Sololá	2	El tablón	1	Enero	2023-02-01T00:00:00	2024-11-06T03:00:00	8	Radiación solar	0
128665	7	Sololá	701	Sololá	2	El tablón	1	Enero	2023-02-01T00:00:00	2024-11-06T04:00:00	2	Temperatura media	8.3
128666	7	Sololá	701	Sololá	2	El tablón	1	Enero	2023-02-01T00:00:00	2024-11-06T04:00:00	4	Temperatura máxima	8.4
128667	7	Sololá	701	Sololá	2	El tablón	1	Enero	2023-02-01T00:00:00	2024-11-06T04:00:00	3	Temperatura mínima	8.3
128668	7	Sololá	701	Sololá	2	El tablón	1	Enero	2023-02-01T00:00:00	2024-11-06T04:00:00	5	Humedad	90
128669	7	Sololá	701	Sololá	2	El tablón	1	Enero	2023-02-01T00:00:00	2024-11-06T04:00:00	6	Velocidad del viento	3.2
128670	7	Sololá	701	Sololá	2	El tablón	1	Enero	2023-02-01T00:00:00	2024-11-06T04:00:00	7	Dirección del viento	3.22
128671	7	Sololá	701	Sololá	2	El tablón	1	Enero	2023-02-01T00:00:00	2024-11-06T04:00:00	1	Precipitación	0
128672	7	Sololá	701	Sololá	2	El tablón	1	Enero	2023-02-01T00:00:00	2024-11-06T04:00:00	8	Radiación solar	0
128673	7	Sololá	701	Sololá	2	El tablón	1	Enero	2023-02-01T00:00:00	2024-11-06T05:00:00	2	Temperatura media	9.1
128674	7	Sololá	701	Sololá	2	El tablón	1	Enero	2023-02-01T00:00:00	2024-11-06T05:00:00	4	Temperatura máxima	9.2
128675	7	Sololá	701	Sololá	2	El tablón	1	Enero	2023-02-01T00:00:00	2024-11-06T05:00:00	3	Temperatura mínima	8.3
128676	7	Sololá	701	Sololá	2	El tablón	1	Enero	2023-02-01T00:00:00	2024-11-06T05:00:00	5	Humedad	89
128677	7	Sololá	701	Sololá	2	El tablón	1	Enero	2023-02-01T00:00:00	2024-11-06T05:00:00	6	Velocidad del viento	4.8
128678	7	Sololá	701	Sololá	2	El tablón	1	Enero	2023-02-01T00:00:00	2024-11-06T05:00:00	7	Dirección del viento	4.83
128679	7	Sololá	701	Sololá	2	El tablón	1	Enero	2023-02-01T00:00:00	2024-11-06T05:00:00	1	Precipitación	0
128680	7	Sololá	701	Sololá	2	El tablón	1	Enero	2023-02-01T00:00:00	2024-11-06T05:00:00	8	Radiación solar	0
128681	7	Sololá	701	Sololá	2	El tablón	1	Enero	2023-02-01T00:00:00	2024-11-06T06:00:00	2	Temperatura media	8.6
128682	7	Sololá	701	Sololá	2	El tablón	1	Enero	2023-02-01T00:00:00	2024-11-06T06:00:00	4	Temperatura máxima	9.2
128683	7	Sololá	701	Sololá	2	El tablón	1	Enero	2023-02-01T00:00:00	2024-11-06T06:00:00	3	Temperatura mínima	8.2
128684	7	Sololá	701	Sololá	2	El tablón	1	Enero	2023-02-01T00:00:00	2024-11-06T06:00:00	5	Humedad	89
128685	7	Sololá	701	Sololá	2	El tablón	1	Enero	2023-02-01T00:00:00	2024-11-06T06:00:00	6	Velocidad del viento	4.8
128686	7	Sololá	701	Sololá	2	El tablón	1	Enero	2023-02-01T00:00:00	2024-11-06T06:00:00	7	Dirección del viento	4.83
128687	7	Sololá	701	Sololá	2	El tablón	1	Enero	2023-02-01T00:00:00	2024-11-06T06:00:00	1	Precipitación	0
128688	7	Sololá	701	Sololá	2	El tablón	1	Enero	2023-02-01T00:00:00	2024-11-06T06:00:00	8	Radiación solar	0
128689	7	Sololá	701	Sololá	2	El tablón	1	Enero	2023-02-01T00:00:00	2024-11-06T07:00:00	2	Temperatura media	8.1
128690	7	Sololá	701	Sololá	2	El tablón	1	Enero	2023-02-01T00:00:00	2024-11-06T07:00:00	4	Temperatura máxima	8.7
128691	7	Sololá	701	Sololá	2	El tablón	1	Enero	2023-02-01T00:00:00	2024-11-06T07:00:00	3	Temperatura mínima	7.9
128692	7	Sololá	701	Sololá	2	El tablón	1	Enero	2023-02-01T00:00:00	2024-11-06T07:00:00	5	Humedad	89
128693	7	Sololá	701	Sololá	2	El tablón	1	Enero	2023-02-01T00:00:00	2024-11-06T07:00:00	6	Velocidad del viento	3.2
128694	7	Sololá	701	Sololá	2	El tablón	1	Enero	2023-02-01T00:00:00	2024-11-06T07:00:00	7	Dirección del viento	3.22
128695	7	Sololá	701	Sololá	2	El tablón	1	Enero	2023-02-01T00:00:00	2024-11-06T07:00:00	1	Precipitación	0
128696	7	Sololá	701	Sololá	2	El tablón	1	Enero	2023-02-01T00:00:00	2024-11-06T07:00:00	8	Radiación solar	7
128697	7	Sololá	701	Sololá	2	El tablón	1	Enero	2023-02-01T00:00:00	2024-11-06T08:00:00	2	Temperatura media	11.8
128698	7	Sololá	701	Sololá	2	El tablón	1	Enero	2023-02-01T00:00:00	2024-11-06T08:00:00	4	Temperatura máxima	11.8
128699	7	Sololá	701	Sololá	2	El tablón	1	Enero	2023-02-01T00:00:00	2024-11-06T08:00:00	3	Temperatura mínima	8.1
128700	7	Sololá	701	Sololá	2	El tablón	1	Enero	2023-02-01T00:00:00	2024-11-06T08:00:00	5	Humedad	84
128701	7	Sololá	701	Sololá	2	El tablón	1	Enero	2023-02-01T00:00:00	2024-11-06T08:00:00	6	Velocidad del viento	3.2
128702	7	Sololá	701	Sololá	2	El tablón	1	Enero	2023-02-01T00:00:00	2024-11-06T08:00:00	7	Dirección del viento	3.22
128703	7	Sololá	701	Sololá	2	El tablón	1	Enero	2023-02-01T00:00:00	2024-11-06T08:00:00	1	Precipitación	0
128704	7	Sololá	701	Sololá	2	El tablón	1	Enero	2023-02-01T00:00:00	2024-11-06T08:00:00	8	Radiación solar	149
128705	7	Sololá	701	Sololá	2	El tablón	1	Enero	2023-02-01T00:00:00	2024-11-06T09:00:00	2	Temperatura media	14.9
128706	7	Sololá	701	Sololá	2	El tablón	1	Enero	2023-02-01T00:00:00	2024-11-06T09:00:00	4	Temperatura máxima	15.3
128707	7	Sololá	701	Sololá	2	El tablón	1	Enero	2023-02-01T00:00:00	2024-11-06T09:00:00	3	Temperatura mínima	11.8
128708	7	Sololá	701	Sololá	2	El tablón	1	Enero	2023-02-01T00:00:00	2024-11-06T09:00:00	5	Humedad	77
128709	7	Sololá	701	Sololá	2	El tablón	1	Enero	2023-02-01T00:00:00	2024-11-06T09:00:00	6	Velocidad del viento	3.2
128710	7	Sololá	701	Sololá	2	El tablón	1	Enero	2023-02-01T00:00:00	2024-11-06T09:00:00	7	Dirección del viento	3.22
128711	7	Sololá	701	Sololá	2	El tablón	1	Enero	2023-02-01T00:00:00	2024-11-06T09:00:00	1	Precipitación	0
128712	7	Sololá	701	Sololá	2	El tablón	1	Enero	2023-02-01T00:00:00	2024-11-06T09:00:00	8	Radiación solar	392
128713	7	Sololá	701	Sololá	2	El tablón	1	Enero	2023-02-01T00:00:00	2024-11-06T10:00:00	2	Temperatura media	15.5
128714	7	Sololá	701	Sololá	2	El tablón	1	Enero	2023-02-01T00:00:00	2024-11-06T10:00:00	4	Temperatura máxima	15.6
128715	7	Sololá	701	Sololá	2	El tablón	1	Enero	2023-02-01T00:00:00	2024-11-06T10:00:00	3	Temperatura mínima	14.9
128716	7	Sololá	701	Sololá	2	El tablón	1	Enero	2023-02-01T00:00:00	2024-11-06T10:00:00	5	Humedad	78
128717	7	Sololá	701	Sololá	2	El tablón	1	Enero	2023-02-01T00:00:00	2024-11-06T10:00:00	6	Velocidad del viento	6.4
128718	7	Sololá	701	Sololá	2	El tablón	1	Enero	2023-02-01T00:00:00	2024-11-06T10:00:00	7	Dirección del viento	6.44
128719	7	Sololá	701	Sololá	2	El tablón	1	Enero	2023-02-01T00:00:00	2024-11-06T10:00:00	1	Precipitación	0
128720	7	Sololá	701	Sololá	2	El tablón	1	Enero	2023-02-01T00:00:00	2024-11-06T10:00:00	8	Radiación solar	537
128721	7	Sololá	701	Sololá	2	El tablón	1	Enero	2023-02-01T00:00:00	2024-11-06T11:00:00	2	Temperatura media	15.8
128722	7	Sololá	701	Sololá	2	El tablón	1	Enero	2023-02-01T00:00:00	2024-11-06T11:00:00	4	Temperatura máxima	15.8
128723	7	Sololá	701	Sololá	2	El tablón	1	Enero	2023-02-01T00:00:00	2024-11-06T11:00:00	3	Temperatura mínima	15.2
128724	7	Sololá	701	Sololá	2	El tablón	1	Enero	2023-02-01T00:00:00	2024-11-06T11:00:00	5	Humedad	72
128725	7	Sololá	701	Sololá	2	El tablón	1	Enero	2023-02-01T00:00:00	2024-11-06T11:00:00	6	Velocidad del viento	4.8
128726	7	Sololá	701	Sololá	2	El tablón	1	Enero	2023-02-01T00:00:00	2024-11-06T11:00:00	7	Dirección del viento	4.83
128727	7	Sololá	701	Sololá	2	El tablón	1	Enero	2023-02-01T00:00:00	2024-11-06T11:00:00	1	Precipitación	0
128728	7	Sololá	701	Sololá	2	El tablón	1	Enero	2023-02-01T00:00:00	2024-11-06T11:00:00	8	Radiación solar	433
128729	7	Sololá	701	Sololá	2	El tablón	1	Enero	2023-02-01T00:00:00	2024-11-06T12:00:00	2	Temperatura media	16.1
128730	7	Sololá	701	Sololá	2	El tablón	1	Enero	2023-02-01T00:00:00	2024-11-06T12:00:00	4	Temperatura máxima	17.3
128731	7	Sololá	701	Sololá	2	El tablón	1	Enero	2023-02-01T00:00:00	2024-11-06T12:00:00	3	Temperatura mínima	15.9
128732	7	Sololá	701	Sololá	2	El tablón	1	Enero	2023-02-01T00:00:00	2024-11-06T12:00:00	5	Humedad	76
128733	7	Sololá	701	Sololá	2	El tablón	1	Enero	2023-02-01T00:00:00	2024-11-06T12:00:00	6	Velocidad del viento	4.8
128734	7	Sololá	701	Sololá	2	El tablón	1	Enero	2023-02-01T00:00:00	2024-11-06T12:00:00	7	Dirección del viento	4.83
128735	7	Sololá	701	Sololá	2	El tablón	1	Enero	2023-02-01T00:00:00	2024-11-06T12:00:00	1	Precipitación	0
128736	7	Sololá	701	Sololá	2	El tablón	1	Enero	2023-02-01T00:00:00	2024-11-06T12:00:00	8	Radiación solar	546
128737	7	Sololá	701	Sololá	2	El tablón	1	Enero	2023-02-01T00:00:00	2024-11-06T13:00:00	2	Temperatura media	16.2
128738	7	Sololá	701	Sololá	2	El tablón	1	Enero	2023-02-01T00:00:00	2024-11-06T13:00:00	4	Temperatura máxima	17.2
128739	7	Sololá	701	Sololá	2	El tablón	1	Enero	2023-02-01T00:00:00	2024-11-06T13:00:00	3	Temperatura mínima	16
128740	7	Sololá	701	Sololá	2	El tablón	1	Enero	2023-02-01T00:00:00	2024-11-06T13:00:00	5	Humedad	79
128741	7	Sololá	701	Sololá	2	El tablón	1	Enero	2023-02-01T00:00:00	2024-11-06T13:00:00	6	Velocidad del viento	8
128742	7	Sololá	701	Sololá	2	El tablón	1	Enero	2023-02-01T00:00:00	2024-11-06T13:00:00	7	Dirección del viento	8.05
128743	7	Sololá	701	Sololá	2	El tablón	1	Enero	2023-02-01T00:00:00	2024-11-06T13:00:00	1	Precipitación	0
128744	7	Sololá	701	Sololá	2	El tablón	1	Enero	2023-02-01T00:00:00	2024-11-06T13:00:00	8	Radiación solar	705
128745	7	Sololá	701	Sololá	2	El tablón	1	Enero	2023-02-01T00:00:00	2024-11-06T14:00:00	2	Temperatura media	16.6
128746	7	Sololá	701	Sololá	2	El tablón	1	Enero	2023-02-01T00:00:00	2024-11-06T14:00:00	4	Temperatura máxima	16.7
128747	7	Sololá	701	Sololá	2	El tablón	1	Enero	2023-02-01T00:00:00	2024-11-06T14:00:00	3	Temperatura mínima	16.2
128748	7	Sololá	701	Sololá	2	El tablón	1	Enero	2023-02-01T00:00:00	2024-11-06T14:00:00	5	Humedad	81
128749	7	Sololá	701	Sololá	2	El tablón	1	Enero	2023-02-01T00:00:00	2024-11-06T14:00:00	6	Velocidad del viento	9.7
128750	7	Sololá	701	Sololá	2	El tablón	1	Enero	2023-02-01T00:00:00	2024-11-06T14:00:00	7	Dirección del viento	9.66
128751	7	Sololá	701	Sololá	2	El tablón	1	Enero	2023-02-01T00:00:00	2024-11-06T14:00:00	1	Precipitación	0
128752	7	Sololá	701	Sololá	2	El tablón	1	Enero	2023-02-01T00:00:00	2024-11-06T14:00:00	8	Radiación solar	700
128753	7	Sololá	701	Sololá	2	El tablón	1	Enero	2023-02-01T00:00:00	2024-11-06T15:00:00	2	Temperatura media	15.9
128754	7	Sololá	701	Sololá	2	El tablón	1	Enero	2023-02-01T00:00:00	2024-11-06T15:00:00	4	Temperatura máxima	16.9
128755	7	Sololá	701	Sololá	2	El tablón	1	Enero	2023-02-01T00:00:00	2024-11-06T15:00:00	3	Temperatura mínima	15.8
128756	7	Sololá	701	Sololá	2	El tablón	1	Enero	2023-02-01T00:00:00	2024-11-06T15:00:00	5	Humedad	82
128757	7	Sololá	701	Sololá	2	El tablón	1	Enero	2023-02-01T00:00:00	2024-11-06T15:00:00	6	Velocidad del viento	8
128758	7	Sololá	701	Sololá	2	El tablón	1	Enero	2023-02-01T00:00:00	2024-11-06T15:00:00	7	Dirección del viento	8.05
128759	7	Sololá	701	Sololá	2	El tablón	1	Enero	2023-02-01T00:00:00	2024-11-06T15:00:00	1	Precipitación	0
128760	7	Sololá	701	Sololá	2	El tablón	1	Enero	2023-02-01T00:00:00	2024-11-06T15:00:00	8	Radiación solar	559
128761	7	Sololá	701	Sololá	2	El tablón	1	Enero	2023-02-01T00:00:00	2024-11-06T16:00:00	2	Temperatura media	14.7
128762	7	Sololá	701	Sololá	2	El tablón	1	Enero	2023-02-01T00:00:00	2024-11-06T16:00:00	4	Temperatura máxima	16
128763	7	Sololá	701	Sololá	2	El tablón	1	Enero	2023-02-01T00:00:00	2024-11-06T16:00:00	3	Temperatura mínima	14.7
128764	7	Sololá	701	Sololá	2	El tablón	1	Enero	2023-02-01T00:00:00	2024-11-06T16:00:00	5	Humedad	88
128765	7	Sololá	701	Sololá	2	El tablón	1	Enero	2023-02-01T00:00:00	2024-11-06T16:00:00	6	Velocidad del viento	8
128766	7	Sololá	701	Sololá	2	El tablón	1	Enero	2023-02-01T00:00:00	2024-11-06T16:00:00	7	Dirección del viento	8.05
128767	7	Sololá	701	Sololá	2	El tablón	1	Enero	2023-02-01T00:00:00	2024-11-06T16:00:00	1	Precipitación	0
128768	7	Sololá	701	Sololá	2	El tablón	1	Enero	2023-02-01T00:00:00	2024-11-06T16:00:00	8	Radiación solar	315
128769	7	Sololá	701	Sololá	2	El tablón	1	Enero	2023-02-01T00:00:00	2024-11-06T17:00:00	2	Temperatura media	13.9
128770	7	Sololá	701	Sololá	2	El tablón	1	Enero	2023-02-01T00:00:00	2024-11-06T17:00:00	4	Temperatura máxima	14.7
128771	7	Sololá	701	Sololá	2	El tablón	1	Enero	2023-02-01T00:00:00	2024-11-06T17:00:00	3	Temperatura mínima	13.9
128772	7	Sololá	701	Sololá	2	El tablón	1	Enero	2023-02-01T00:00:00	2024-11-06T17:00:00	5	Humedad	89
128773	7	Sololá	701	Sololá	2	El tablón	1	Enero	2023-02-01T00:00:00	2024-11-06T17:00:00	6	Velocidad del viento	3.2
128774	7	Sololá	701	Sololá	2	El tablón	1	Enero	2023-02-01T00:00:00	2024-11-06T17:00:00	7	Dirección del viento	3.22
128775	7	Sololá	701	Sololá	2	El tablón	1	Enero	2023-02-01T00:00:00	2024-11-06T17:00:00	1	Precipitación	0
128776	7	Sololá	701	Sololá	2	El tablón	1	Enero	2023-02-01T00:00:00	2024-11-06T17:00:00	8	Radiación solar	53
128777	7	Sololá	701	Sololá	2	El tablón	1	Enero	2023-02-01T00:00:00	2024-11-06T18:00:00	2	Temperatura media	13.4
128778	7	Sololá	701	Sololá	2	El tablón	1	Enero	2023-02-01T00:00:00	2024-11-06T18:00:00	4	Temperatura máxima	13.9
128779	7	Sololá	701	Sololá	2	El tablón	1	Enero	2023-02-01T00:00:00	2024-11-06T18:00:00	3	Temperatura mínima	13.4
128780	7	Sololá	701	Sololá	2	El tablón	1	Enero	2023-02-01T00:00:00	2024-11-06T18:00:00	5	Humedad	90
128781	7	Sololá	701	Sololá	2	El tablón	1	Enero	2023-02-01T00:00:00	2024-11-06T18:00:00	6	Velocidad del viento	1.6
128782	7	Sololá	701	Sololá	2	El tablón	1	Enero	2023-02-01T00:00:00	2024-11-06T18:00:00	7	Dirección del viento	1.61
128783	7	Sololá	701	Sololá	2	El tablón	1	Enero	2023-02-01T00:00:00	2024-11-06T18:00:00	1	Precipitación	0
128784	7	Sololá	701	Sololá	2	El tablón	1	Enero	2023-02-01T00:00:00	2024-11-06T18:00:00	8	Radiación solar	15
128785	7	Sololá	701	Sololá	2	El tablón	1	Enero	2023-02-01T00:00:00	2024-11-06T19:00:00	2	Temperatura media	12.7
128786	7	Sololá	701	Sololá	2	El tablón	1	Enero	2023-02-01T00:00:00	2024-11-06T19:00:00	4	Temperatura máxima	13.4
128787	7	Sololá	701	Sololá	2	El tablón	1	Enero	2023-02-01T00:00:00	2024-11-06T19:00:00	3	Temperatura mínima	12.7
128788	7	Sololá	701	Sololá	2	El tablón	1	Enero	2023-02-01T00:00:00	2024-11-06T19:00:00	5	Humedad	90
128789	7	Sololá	701	Sololá	2	El tablón	1	Enero	2023-02-01T00:00:00	2024-11-06T19:00:00	6	Velocidad del viento	1.6
128790	7	Sololá	701	Sololá	2	El tablón	1	Enero	2023-02-01T00:00:00	2024-11-06T19:00:00	7	Dirección del viento	1.61
128791	7	Sololá	701	Sololá	2	El tablón	1	Enero	2023-02-01T00:00:00	2024-11-06T19:00:00	1	Precipitación	0
128792	7	Sololá	701	Sololá	2	El tablón	1	Enero	2023-02-01T00:00:00	2024-11-06T19:00:00	8	Radiación solar	0
128793	7	Sololá	701	Sololá	2	El tablón	1	Enero	2023-02-01T00:00:00	2024-11-06T20:00:00	2	Temperatura media	10.9
128794	7	Sololá	701	Sololá	2	El tablón	1	Enero	2023-02-01T00:00:00	2024-11-06T20:00:00	4	Temperatura máxima	12.7
128795	7	Sololá	701	Sololá	2	El tablón	1	Enero	2023-02-01T00:00:00	2024-11-06T20:00:00	3	Temperatura mínima	10.9
128796	7	Sololá	701	Sololá	2	El tablón	1	Enero	2023-02-01T00:00:00	2024-11-06T20:00:00	5	Humedad	90
128797	7	Sololá	701	Sololá	2	El tablón	1	Enero	2023-02-01T00:00:00	2024-11-06T20:00:00	6	Velocidad del viento	0
128798	7	Sololá	701	Sololá	2	El tablón	1	Enero	2023-02-01T00:00:00	2024-11-06T20:00:00	7	Dirección del viento	0
128799	7	Sololá	701	Sololá	2	El tablón	1	Enero	2023-02-01T00:00:00	2024-11-06T20:00:00	1	Precipitación	0
128800	7	Sololá	701	Sololá	2	El tablón	1	Enero	2023-02-01T00:00:00	2024-11-06T20:00:00	8	Radiación solar	0
128801	7	Sololá	701	Sololá	2	El tablón	1	Enero	2023-02-01T00:00:00	2024-11-06T21:00:00	2	Temperatura media	10.7
128802	7	Sololá	701	Sololá	2	El tablón	1	Enero	2023-02-01T00:00:00	2024-11-06T21:00:00	4	Temperatura máxima	10.9
128803	7	Sololá	701	Sololá	2	El tablón	1	Enero	2023-02-01T00:00:00	2024-11-06T21:00:00	3	Temperatura mínima	10.7
128804	7	Sololá	701	Sololá	2	El tablón	1	Enero	2023-02-01T00:00:00	2024-11-06T21:00:00	5	Humedad	88
128805	7	Sololá	701	Sololá	2	El tablón	1	Enero	2023-02-01T00:00:00	2024-11-06T21:00:00	6	Velocidad del viento	3.2
128806	7	Sololá	701	Sololá	2	El tablón	1	Enero	2023-02-01T00:00:00	2024-11-06T21:00:00	7	Dirección del viento	3.22
128807	7	Sololá	701	Sololá	2	El tablón	1	Enero	2023-02-01T00:00:00	2024-11-06T21:00:00	1	Precipitación	0
128808	7	Sololá	701	Sololá	2	El tablón	1	Enero	2023-02-01T00:00:00	2024-11-06T21:00:00	8	Radiación solar	0
128809	7	Sololá	701	Sololá	2	El tablón	1	Enero	2023-02-01T00:00:00	2024-11-06T22:00:00	2	Temperatura media	9.7
128810	7	Sololá	701	Sololá	2	El tablón	1	Enero	2023-02-01T00:00:00	2024-11-06T22:00:00	4	Temperatura máxima	10.7
128811	7	Sololá	701	Sololá	2	El tablón	1	Enero	2023-02-01T00:00:00	2024-11-06T22:00:00	3	Temperatura mínima	9.5
128812	7	Sololá	701	Sololá	2	El tablón	1	Enero	2023-02-01T00:00:00	2024-11-06T22:00:00	5	Humedad	85
128813	7	Sololá	701	Sololá	2	El tablón	1	Enero	2023-02-01T00:00:00	2024-11-06T22:00:00	6	Velocidad del viento	4.8
128814	7	Sololá	701	Sololá	2	El tablón	1	Enero	2023-02-01T00:00:00	2024-11-06T22:00:00	7	Dirección del viento	4.83
128815	7	Sololá	701	Sololá	2	El tablón	1	Enero	2023-02-01T00:00:00	2024-11-06T22:00:00	1	Precipitación	0
128816	7	Sololá	701	Sololá	2	El tablón	1	Enero	2023-02-01T00:00:00	2024-11-06T22:00:00	8	Radiación solar	0
128817	7	Sololá	701	Sololá	2	El tablón	1	Enero	2023-02-01T00:00:00	2024-11-06T23:00:00	2	Temperatura media	9.4
128818	7	Sololá	701	Sololá	2	El tablón	1	Enero	2023-02-01T00:00:00	2024-11-06T23:00:00	4	Temperatura máxima	9.9
128819	7	Sololá	701	Sololá	2	El tablón	1	Enero	2023-02-01T00:00:00	2024-11-06T23:00:00	3	Temperatura mínima	9.3
128820	7	Sololá	701	Sololá	2	El tablón	1	Enero	2023-02-01T00:00:00	2024-11-06T23:00:00	5	Humedad	80
128821	7	Sololá	701	Sololá	2	El tablón	1	Enero	2023-02-01T00:00:00	2024-11-06T23:00:00	6	Velocidad del viento	3.2
128822	7	Sololá	701	Sololá	2	El tablón	1	Enero	2023-02-01T00:00:00	2024-11-06T23:00:00	7	Dirección del viento	3.22
128823	7	Sololá	701	Sololá	2	El tablón	1	Enero	2023-02-01T00:00:00	2024-11-06T23:00:00	1	Precipitación	0
128824	7	Sololá	701	Sololá	2	El tablón	1	Enero	2023-02-01T00:00:00	2024-11-06T23:00:00	8	Radiación solar	0
128825	7	Sololá	701	Sololá	2	El tablón	1	Enero	2023-03-01T00:00:00	2024-11-06T00:00:00	2	Temperatura media	8.9
128826	7	Sololá	701	Sololá	2	El tablón	1	Enero	2023-03-01T00:00:00	2024-11-06T00:00:00	4	Temperatura máxima	9.8
128827	7	Sololá	701	Sololá	2	El tablón	1	Enero	2023-03-01T00:00:00	2024-11-06T00:00:00	3	Temperatura mínima	8.6
128828	7	Sololá	701	Sololá	2	El tablón	1	Enero	2023-03-01T00:00:00	2024-11-06T00:00:00	5	Humedad	82
128829	7	Sololá	701	Sololá	2	El tablón	1	Enero	2023-03-01T00:00:00	2024-11-06T00:00:00	6	Velocidad del viento	1.6
128830	7	Sololá	701	Sololá	2	El tablón	1	Enero	2023-03-01T00:00:00	2024-11-06T00:00:00	7	Dirección del viento	1.61
128831	7	Sololá	701	Sololá	2	El tablón	1	Enero	2023-03-01T00:00:00	2024-11-06T00:00:00	1	Precipitación	0
128832	7	Sololá	701	Sololá	2	El tablón	1	Enero	2023-03-01T00:00:00	2024-11-06T00:00:00	8	Radiación solar	0
128833	7	Sololá	701	Sololá	2	El tablón	1	Enero	2023-03-01T00:00:00	2024-11-06T01:00:00	2	Temperatura media	8.9
128834	7	Sololá	701	Sololá	2	El tablón	1	Enero	2023-03-01T00:00:00	2024-11-06T01:00:00	4	Temperatura máxima	9.2
128835	7	Sololá	701	Sololá	2	El tablón	1	Enero	2023-03-01T00:00:00	2024-11-06T01:00:00	3	Temperatura mínima	8.7
128836	7	Sololá	701	Sololá	2	El tablón	1	Enero	2023-03-01T00:00:00	2024-11-06T01:00:00	5	Humedad	84
128837	7	Sololá	701	Sololá	2	El tablón	1	Enero	2023-03-01T00:00:00	2024-11-06T01:00:00	6	Velocidad del viento	3.2
128838	7	Sololá	701	Sololá	2	El tablón	1	Enero	2023-03-01T00:00:00	2024-11-06T01:00:00	7	Dirección del viento	3.22
128839	7	Sololá	701	Sololá	2	El tablón	1	Enero	2023-03-01T00:00:00	2024-11-06T01:00:00	1	Precipitación	0
128840	7	Sololá	701	Sololá	2	El tablón	1	Enero	2023-03-01T00:00:00	2024-11-06T01:00:00	8	Radiación solar	0
128841	7	Sololá	701	Sololá	2	El tablón	1	Enero	2023-03-01T00:00:00	2024-11-06T02:00:00	2	Temperatura media	9.7
128842	7	Sololá	701	Sololá	2	El tablón	1	Enero	2023-03-01T00:00:00	2024-11-06T02:00:00	4	Temperatura máxima	9.7
128843	7	Sololá	701	Sololá	2	El tablón	1	Enero	2023-03-01T00:00:00	2024-11-06T02:00:00	3	Temperatura mínima	8.7
128844	7	Sololá	701	Sololá	2	El tablón	1	Enero	2023-03-01T00:00:00	2024-11-06T02:00:00	5	Humedad	81
128845	7	Sololá	701	Sololá	2	El tablón	1	Enero	2023-03-01T00:00:00	2024-11-06T02:00:00	6	Velocidad del viento	1.6
128846	7	Sololá	701	Sololá	2	El tablón	1	Enero	2023-03-01T00:00:00	2024-11-06T02:00:00	7	Dirección del viento	1.61
128847	7	Sololá	701	Sololá	2	El tablón	1	Enero	2023-03-01T00:00:00	2024-11-06T02:00:00	1	Precipitación	0
128848	7	Sololá	701	Sololá	2	El tablón	1	Enero	2023-03-01T00:00:00	2024-11-06T02:00:00	8	Radiación solar	0
128849	7	Sololá	701	Sololá	2	El tablón	1	Enero	2023-03-01T00:00:00	2024-11-06T03:00:00	2	Temperatura media	8.6
128850	7	Sololá	701	Sololá	2	El tablón	1	Enero	2023-03-01T00:00:00	2024-11-06T03:00:00	4	Temperatura máxima	9.8
128851	7	Sololá	701	Sololá	2	El tablón	1	Enero	2023-03-01T00:00:00	2024-11-06T03:00:00	3	Temperatura mínima	8.3
128852	7	Sololá	701	Sololá	2	El tablón	1	Enero	2023-03-01T00:00:00	2024-11-06T03:00:00	5	Humedad	83
128853	7	Sololá	701	Sololá	2	El tablón	1	Enero	2023-03-01T00:00:00	2024-11-06T03:00:00	6	Velocidad del viento	1.6
128854	7	Sololá	701	Sololá	2	El tablón	1	Enero	2023-03-01T00:00:00	2024-11-06T03:00:00	7	Dirección del viento	1.61
128855	7	Sololá	701	Sololá	2	El tablón	1	Enero	2023-03-01T00:00:00	2024-11-06T03:00:00	1	Precipitación	0
128856	7	Sololá	701	Sololá	2	El tablón	1	Enero	2023-03-01T00:00:00	2024-11-06T03:00:00	8	Radiación solar	0
128857	7	Sololá	701	Sololá	2	El tablón	1	Enero	2023-03-01T00:00:00	2024-11-06T04:00:00	2	Temperatura media	8.7
128858	7	Sololá	701	Sololá	2	El tablón	1	Enero	2023-03-01T00:00:00	2024-11-06T04:00:00	4	Temperatura máxima	9.6
128859	7	Sololá	701	Sololá	2	El tablón	1	Enero	2023-03-01T00:00:00	2024-11-06T04:00:00	3	Temperatura mínima	8.6
128860	7	Sololá	701	Sololá	2	El tablón	1	Enero	2023-03-01T00:00:00	2024-11-06T04:00:00	5	Humedad	81
128861	7	Sololá	701	Sololá	2	El tablón	1	Enero	2023-03-01T00:00:00	2024-11-06T04:00:00	6	Velocidad del viento	1.6
128862	7	Sololá	701	Sololá	2	El tablón	1	Enero	2023-03-01T00:00:00	2024-11-06T04:00:00	7	Dirección del viento	1.61
128863	7	Sololá	701	Sololá	2	El tablón	1	Enero	2023-03-01T00:00:00	2024-11-06T04:00:00	1	Precipitación	0
128864	7	Sololá	701	Sololá	2	El tablón	1	Enero	2023-03-01T00:00:00	2024-11-06T04:00:00	8	Radiación solar	0
128865	7	Sololá	701	Sololá	2	El tablón	1	Enero	2023-03-01T00:00:00	2024-11-06T05:00:00	2	Temperatura media	8.8
128866	7	Sololá	701	Sololá	2	El tablón	1	Enero	2023-03-01T00:00:00	2024-11-06T05:00:00	4	Temperatura máxima	9.3
128867	7	Sololá	701	Sololá	2	El tablón	1	Enero	2023-03-01T00:00:00	2024-11-06T05:00:00	3	Temperatura mínima	8.7
128868	7	Sololá	701	Sololá	2	El tablón	1	Enero	2023-03-01T00:00:00	2024-11-06T05:00:00	5	Humedad	82
128869	7	Sololá	701	Sololá	2	El tablón	1	Enero	2023-03-01T00:00:00	2024-11-06T05:00:00	6	Velocidad del viento	3.2
128870	7	Sololá	701	Sololá	2	El tablón	1	Enero	2023-03-01T00:00:00	2024-11-06T05:00:00	7	Dirección del viento	3.22
128871	7	Sololá	701	Sololá	2	El tablón	1	Enero	2023-03-01T00:00:00	2024-11-06T05:00:00	1	Precipitación	0
128872	7	Sololá	701	Sololá	2	El tablón	1	Enero	2023-03-01T00:00:00	2024-11-06T05:00:00	8	Radiación solar	0
128873	7	Sololá	701	Sololá	2	El tablón	1	Enero	2023-03-01T00:00:00	2024-11-06T06:00:00	2	Temperatura media	7.4
128874	7	Sololá	701	Sololá	2	El tablón	1	Enero	2023-03-01T00:00:00	2024-11-06T06:00:00	4	Temperatura máxima	8.8
128875	7	Sololá	701	Sololá	2	El tablón	1	Enero	2023-03-01T00:00:00	2024-11-06T06:00:00	3	Temperatura mínima	7.1
128876	7	Sololá	701	Sololá	2	El tablón	1	Enero	2023-03-01T00:00:00	2024-11-06T06:00:00	5	Humedad	85
128877	7	Sololá	701	Sololá	2	El tablón	1	Enero	2023-03-01T00:00:00	2024-11-06T06:00:00	6	Velocidad del viento	4.8
128878	7	Sololá	701	Sololá	2	El tablón	1	Enero	2023-03-01T00:00:00	2024-11-06T06:00:00	7	Dirección del viento	4.83
128879	7	Sololá	701	Sololá	2	El tablón	1	Enero	2023-03-01T00:00:00	2024-11-06T06:00:00	1	Precipitación	0
128880	7	Sololá	701	Sololá	2	El tablón	1	Enero	2023-03-01T00:00:00	2024-11-06T06:00:00	8	Radiación solar	0
128881	7	Sololá	701	Sololá	2	El tablón	1	Enero	2023-03-01T00:00:00	2024-11-06T07:00:00	2	Temperatura media	8.4
128882	7	Sololá	701	Sololá	2	El tablón	1	Enero	2023-03-01T00:00:00	2024-11-06T07:00:00	4	Temperatura máxima	8.4
128883	7	Sololá	701	Sololá	2	El tablón	1	Enero	2023-03-01T00:00:00	2024-11-06T07:00:00	3	Temperatura mínima	7.3
128884	7	Sololá	701	Sololá	2	El tablón	1	Enero	2023-03-01T00:00:00	2024-11-06T07:00:00	5	Humedad	82
128885	7	Sololá	701	Sololá	2	El tablón	1	Enero	2023-03-01T00:00:00	2024-11-06T07:00:00	6	Velocidad del viento	1.6
128886	7	Sololá	701	Sololá	2	El tablón	1	Enero	2023-03-01T00:00:00	2024-11-06T07:00:00	7	Dirección del viento	1.61
128887	7	Sololá	701	Sololá	2	El tablón	1	Enero	2023-03-01T00:00:00	2024-11-06T07:00:00	1	Precipitación	0
128888	7	Sololá	701	Sololá	2	El tablón	1	Enero	2023-03-01T00:00:00	2024-11-06T07:00:00	8	Radiación solar	6
128889	7	Sololá	701	Sololá	2	El tablón	1	Enero	2023-03-01T00:00:00	2024-11-06T08:00:00	2	Temperatura media	11.2
128890	7	Sololá	701	Sololá	2	El tablón	1	Enero	2023-03-01T00:00:00	2024-11-06T08:00:00	4	Temperatura máxima	11.2
128891	7	Sololá	701	Sololá	2	El tablón	1	Enero	2023-03-01T00:00:00	2024-11-06T08:00:00	3	Temperatura mínima	8.3
128892	7	Sololá	701	Sololá	2	El tablón	1	Enero	2023-03-01T00:00:00	2024-11-06T08:00:00	5	Humedad	80
128893	7	Sololá	701	Sololá	2	El tablón	1	Enero	2023-03-01T00:00:00	2024-11-06T08:00:00	6	Velocidad del viento	3.2
128894	7	Sololá	701	Sololá	2	El tablón	1	Enero	2023-03-01T00:00:00	2024-11-06T08:00:00	7	Dirección del viento	3.22
128895	7	Sololá	701	Sololá	2	El tablón	1	Enero	2023-03-01T00:00:00	2024-11-06T08:00:00	1	Precipitación	0
128896	7	Sololá	701	Sololá	2	El tablón	1	Enero	2023-03-01T00:00:00	2024-11-06T08:00:00	8	Radiación solar	116
128897	7	Sololá	701	Sololá	2	El tablón	1	Enero	2023-03-01T00:00:00	2024-11-06T09:00:00	2	Temperatura media	14.6
128898	7	Sololá	701	Sololá	2	El tablón	1	Enero	2023-03-01T00:00:00	2024-11-06T09:00:00	4	Temperatura máxima	14.6
128899	7	Sololá	701	Sololá	2	El tablón	1	Enero	2023-03-01T00:00:00	2024-11-06T09:00:00	3	Temperatura mínima	11.2
128900	7	Sololá	701	Sololá	2	El tablón	1	Enero	2023-03-01T00:00:00	2024-11-06T09:00:00	5	Humedad	67
128901	7	Sololá	701	Sololá	2	El tablón	1	Enero	2023-03-01T00:00:00	2024-11-06T09:00:00	6	Velocidad del viento	4.8
128902	7	Sololá	701	Sololá	2	El tablón	1	Enero	2023-03-01T00:00:00	2024-11-06T09:00:00	7	Dirección del viento	4.83
128903	7	Sololá	701	Sololá	2	El tablón	1	Enero	2023-03-01T00:00:00	2024-11-06T09:00:00	1	Precipitación	0
128904	7	Sololá	701	Sololá	2	El tablón	1	Enero	2023-03-01T00:00:00	2024-11-06T09:00:00	8	Radiación solar	221
128905	7	Sololá	701	Sololá	2	El tablón	1	Enero	2023-03-01T00:00:00	2024-11-06T10:00:00	2	Temperatura media	16.8
128906	7	Sololá	701	Sololá	2	El tablón	1	Enero	2023-03-01T00:00:00	2024-11-06T10:00:00	4	Temperatura máxima	17.2
128907	7	Sololá	701	Sololá	2	El tablón	1	Enero	2023-03-01T00:00:00	2024-11-06T10:00:00	3	Temperatura mínima	14.6
128908	7	Sololá	701	Sololá	2	El tablón	1	Enero	2023-03-01T00:00:00	2024-11-06T10:00:00	5	Humedad	65
128909	7	Sololá	701	Sololá	2	El tablón	1	Enero	2023-03-01T00:00:00	2024-11-06T10:00:00	6	Velocidad del viento	4.8
128910	7	Sololá	701	Sololá	2	El tablón	1	Enero	2023-03-01T00:00:00	2024-11-06T10:00:00	7	Dirección del viento	4.83
128911	7	Sololá	701	Sololá	2	El tablón	1	Enero	2023-03-01T00:00:00	2024-11-06T10:00:00	1	Precipitación	0
128912	7	Sololá	701	Sololá	2	El tablón	1	Enero	2023-03-01T00:00:00	2024-11-06T10:00:00	8	Radiación solar	531
128913	7	Sololá	701	Sololá	2	El tablón	1	Enero	2023-03-01T00:00:00	2024-11-06T11:00:00	2	Temperatura media	17.4
128914	7	Sololá	701	Sololá	2	El tablón	1	Enero	2023-03-01T00:00:00	2024-11-06T11:00:00	4	Temperatura máxima	17.8
128915	7	Sololá	701	Sololá	2	El tablón	1	Enero	2023-03-01T00:00:00	2024-11-06T11:00:00	3	Temperatura mínima	16.7
128916	7	Sololá	701	Sololá	2	El tablón	1	Enero	2023-03-01T00:00:00	2024-11-06T11:00:00	5	Humedad	60
128917	7	Sololá	701	Sololá	2	El tablón	1	Enero	2023-03-01T00:00:00	2024-11-06T11:00:00	6	Velocidad del viento	4.8
128918	7	Sololá	701	Sololá	2	El tablón	1	Enero	2023-03-01T00:00:00	2024-11-06T11:00:00	7	Dirección del viento	4.83
128919	7	Sololá	701	Sololá	2	El tablón	1	Enero	2023-03-01T00:00:00	2024-11-06T11:00:00	1	Precipitación	0
128920	7	Sololá	701	Sololá	2	El tablón	1	Enero	2023-03-01T00:00:00	2024-11-06T11:00:00	8	Radiación solar	548
128921	7	Sololá	701	Sololá	2	El tablón	1	Enero	2023-03-01T00:00:00	2024-11-06T12:00:00	2	Temperatura media	17
128922	7	Sololá	701	Sololá	2	El tablón	1	Enero	2023-03-01T00:00:00	2024-11-06T12:00:00	4	Temperatura máxima	17.4
128923	7	Sololá	701	Sololá	2	El tablón	1	Enero	2023-03-01T00:00:00	2024-11-06T12:00:00	3	Temperatura mínima	16.5
128924	7	Sololá	701	Sololá	2	El tablón	1	Enero	2023-03-01T00:00:00	2024-11-06T12:00:00	5	Humedad	58
128925	7	Sololá	701	Sololá	2	El tablón	1	Enero	2023-03-01T00:00:00	2024-11-06T12:00:00	6	Velocidad del viento	6.4
128926	7	Sololá	701	Sololá	2	El tablón	1	Enero	2023-03-01T00:00:00	2024-11-06T12:00:00	7	Dirección del viento	6.44
128927	7	Sololá	701	Sololá	2	El tablón	1	Enero	2023-03-01T00:00:00	2024-11-06T12:00:00	1	Precipitación	0
128928	7	Sololá	701	Sololá	2	El tablón	1	Enero	2023-03-01T00:00:00	2024-11-06T12:00:00	8	Radiación solar	456
128929	7	Sololá	701	Sololá	2	El tablón	1	Enero	2023-03-01T00:00:00	2024-11-06T13:00:00	2	Temperatura media	17.4
128930	7	Sololá	701	Sololá	2	El tablón	1	Enero	2023-03-01T00:00:00	2024-11-06T13:00:00	4	Temperatura máxima	17.4
128931	7	Sololá	701	Sololá	2	El tablón	1	Enero	2023-03-01T00:00:00	2024-11-06T13:00:00	3	Temperatura mínima	16.9
128932	7	Sololá	701	Sololá	2	El tablón	1	Enero	2023-03-01T00:00:00	2024-11-06T13:00:00	5	Humedad	59
128933	7	Sololá	701	Sololá	2	El tablón	1	Enero	2023-03-01T00:00:00	2024-11-06T13:00:00	6	Velocidad del viento	6.4
128934	7	Sololá	701	Sololá	2	El tablón	1	Enero	2023-03-01T00:00:00	2024-11-06T13:00:00	7	Dirección del viento	6.44
128935	7	Sololá	701	Sololá	2	El tablón	1	Enero	2023-03-01T00:00:00	2024-11-06T13:00:00	1	Precipitación	0
128936	7	Sololá	701	Sololá	2	El tablón	1	Enero	2023-03-01T00:00:00	2024-11-06T13:00:00	8	Radiación solar	538
128937	7	Sololá	701	Sololá	2	El tablón	1	Enero	2023-03-01T00:00:00	2024-11-06T14:00:00	2	Temperatura media	18.6
128938	7	Sololá	701	Sololá	2	El tablón	1	Enero	2023-03-01T00:00:00	2024-11-06T14:00:00	4	Temperatura máxima	18.9
128939	7	Sololá	701	Sololá	2	El tablón	1	Enero	2023-03-01T00:00:00	2024-11-06T14:00:00	3	Temperatura mínima	17.4
128940	7	Sololá	701	Sololá	2	El tablón	1	Enero	2023-03-01T00:00:00	2024-11-06T14:00:00	5	Humedad	61
128941	7	Sololá	701	Sololá	2	El tablón	1	Enero	2023-03-01T00:00:00	2024-11-06T14:00:00	6	Velocidad del viento	4.8
128942	7	Sololá	701	Sololá	2	El tablón	1	Enero	2023-03-01T00:00:00	2024-11-06T14:00:00	7	Dirección del viento	4.83
128943	7	Sololá	701	Sololá	2	El tablón	1	Enero	2023-03-01T00:00:00	2024-11-06T14:00:00	1	Precipitación	0
128944	7	Sololá	701	Sololá	2	El tablón	1	Enero	2023-03-01T00:00:00	2024-11-06T14:00:00	8	Radiación solar	657
128945	7	Sololá	701	Sololá	2	El tablón	1	Enero	2023-03-01T00:00:00	2024-11-06T15:00:00	2	Temperatura media	18.3
128946	7	Sololá	701	Sololá	2	El tablón	1	Enero	2023-03-01T00:00:00	2024-11-06T15:00:00	4	Temperatura máxima	19.1
128947	7	Sololá	701	Sololá	2	El tablón	1	Enero	2023-03-01T00:00:00	2024-11-06T15:00:00	3	Temperatura mínima	17.8
128948	7	Sololá	701	Sololá	2	El tablón	1	Enero	2023-03-01T00:00:00	2024-11-06T15:00:00	5	Humedad	64
128949	7	Sololá	701	Sololá	2	El tablón	1	Enero	2023-03-01T00:00:00	2024-11-06T15:00:00	6	Velocidad del viento	8
128950	7	Sololá	701	Sololá	2	El tablón	1	Enero	2023-03-01T00:00:00	2024-11-06T15:00:00	7	Dirección del viento	8.05
128951	7	Sololá	701	Sololá	2	El tablón	1	Enero	2023-03-01T00:00:00	2024-11-06T15:00:00	1	Precipitación	0
128952	7	Sololá	701	Sololá	2	El tablón	1	Enero	2023-03-01T00:00:00	2024-11-06T15:00:00	8	Radiación solar	571
128953	7	Sololá	701	Sololá	2	El tablón	1	Enero	2023-03-01T00:00:00	2024-11-06T16:00:00	2	Temperatura media	16.9
128954	7	Sololá	701	Sololá	2	El tablón	1	Enero	2023-03-01T00:00:00	2024-11-06T16:00:00	4	Temperatura máxima	18.4
128955	7	Sololá	701	Sololá	2	El tablón	1	Enero	2023-03-01T00:00:00	2024-11-06T16:00:00	3	Temperatura mínima	16.9
128956	7	Sololá	701	Sololá	2	El tablón	1	Enero	2023-03-01T00:00:00	2024-11-06T16:00:00	5	Humedad	76
128957	7	Sololá	701	Sololá	2	El tablón	1	Enero	2023-03-01T00:00:00	2024-11-06T16:00:00	6	Velocidad del viento	8
128958	7	Sololá	701	Sololá	2	El tablón	1	Enero	2023-03-01T00:00:00	2024-11-06T16:00:00	7	Dirección del viento	8.05
128959	7	Sololá	701	Sololá	2	El tablón	1	Enero	2023-03-01T00:00:00	2024-11-06T16:00:00	1	Precipitación	0
128960	7	Sololá	701	Sololá	2	El tablón	1	Enero	2023-03-01T00:00:00	2024-11-06T16:00:00	8	Radiación solar	401
128961	7	Sololá	701	Sololá	2	El tablón	1	Enero	2023-03-01T00:00:00	2024-11-06T17:00:00	2	Temperatura media	14.4
128962	7	Sololá	701	Sololá	2	El tablón	1	Enero	2023-03-01T00:00:00	2024-11-06T17:00:00	4	Temperatura máxima	16.9
128963	7	Sololá	701	Sololá	2	El tablón	1	Enero	2023-03-01T00:00:00	2024-11-06T17:00:00	3	Temperatura mínima	14.4
128964	7	Sololá	701	Sololá	2	El tablón	1	Enero	2023-03-01T00:00:00	2024-11-06T17:00:00	5	Humedad	88
128965	7	Sololá	701	Sololá	2	El tablón	1	Enero	2023-03-01T00:00:00	2024-11-06T17:00:00	6	Velocidad del viento	6.4
128966	7	Sololá	701	Sololá	2	El tablón	1	Enero	2023-03-01T00:00:00	2024-11-06T17:00:00	7	Dirección del viento	6.44
128967	7	Sololá	701	Sololá	2	El tablón	1	Enero	2023-03-01T00:00:00	2024-11-06T17:00:00	1	Precipitación	0
128968	7	Sololá	701	Sololá	2	El tablón	1	Enero	2023-03-01T00:00:00	2024-11-06T17:00:00	8	Radiación solar	138
128969	7	Sololá	701	Sololá	2	El tablón	1	Enero	2023-03-01T00:00:00	2024-11-06T18:00:00	2	Temperatura media	14.1
128970	7	Sololá	701	Sololá	2	El tablón	1	Enero	2023-03-01T00:00:00	2024-11-06T18:00:00	4	Temperatura máxima	14.6
128971	7	Sololá	701	Sololá	2	El tablón	1	Enero	2023-03-01T00:00:00	2024-11-06T18:00:00	3	Temperatura mínima	14.1
128972	7	Sololá	701	Sololá	2	El tablón	1	Enero	2023-03-01T00:00:00	2024-11-06T18:00:00	5	Humedad	89
128973	7	Sololá	701	Sololá	2	El tablón	1	Enero	2023-03-01T00:00:00	2024-11-06T18:00:00	6	Velocidad del viento	1.6
128974	7	Sololá	701	Sololá	2	El tablón	1	Enero	2023-03-01T00:00:00	2024-11-06T18:00:00	7	Dirección del viento	1.61
128975	7	Sololá	701	Sololá	2	El tablón	1	Enero	2023-03-01T00:00:00	2024-11-06T18:00:00	1	Precipitación	0
128976	7	Sololá	701	Sololá	2	El tablón	1	Enero	2023-03-01T00:00:00	2024-11-06T18:00:00	8	Radiación solar	29
128977	7	Sololá	701	Sololá	2	El tablón	1	Enero	2023-03-01T00:00:00	2024-11-06T19:00:00	2	Temperatura media	13.3
128978	7	Sololá	701	Sololá	2	El tablón	1	Enero	2023-03-01T00:00:00	2024-11-06T19:00:00	4	Temperatura máxima	14
128979	7	Sololá	701	Sololá	2	El tablón	1	Enero	2023-03-01T00:00:00	2024-11-06T19:00:00	3	Temperatura mínima	13.3
128980	7	Sololá	701	Sololá	2	El tablón	1	Enero	2023-03-01T00:00:00	2024-11-06T19:00:00	5	Humedad	89
128981	7	Sololá	701	Sololá	2	El tablón	1	Enero	2023-03-01T00:00:00	2024-11-06T19:00:00	6	Velocidad del viento	0
128982	7	Sololá	701	Sololá	2	El tablón	1	Enero	2023-03-01T00:00:00	2024-11-06T19:00:00	7	Dirección del viento	0
128983	7	Sololá	701	Sololá	2	El tablón	1	Enero	2023-03-01T00:00:00	2024-11-06T19:00:00	1	Precipitación	0
128984	7	Sololá	701	Sololá	2	El tablón	1	Enero	2023-03-01T00:00:00	2024-11-06T19:00:00	8	Radiación solar	0
128985	7	Sololá	701	Sololá	2	El tablón	1	Enero	2023-03-01T00:00:00	2024-11-06T20:00:00	2	Temperatura media	12.5
128986	7	Sololá	701	Sololá	2	El tablón	1	Enero	2023-03-01T00:00:00	2024-11-06T20:00:00	4	Temperatura máxima	13.3
128987	7	Sololá	701	Sololá	2	El tablón	1	Enero	2023-03-01T00:00:00	2024-11-06T20:00:00	3	Temperatura mínima	12.4
128988	7	Sololá	701	Sololá	2	El tablón	1	Enero	2023-03-01T00:00:00	2024-11-06T20:00:00	5	Humedad	90
128989	7	Sololá	701	Sololá	2	El tablón	1	Enero	2023-03-01T00:00:00	2024-11-06T20:00:00	6	Velocidad del viento	1.6
128990	7	Sololá	701	Sololá	2	El tablón	1	Enero	2023-03-01T00:00:00	2024-11-06T20:00:00	7	Dirección del viento	1.61
128991	7	Sololá	701	Sololá	2	El tablón	1	Enero	2023-03-01T00:00:00	2024-11-06T20:00:00	1	Precipitación	0
128992	7	Sololá	701	Sololá	2	El tablón	1	Enero	2023-03-01T00:00:00	2024-11-06T20:00:00	8	Radiación solar	0
128993	7	Sololá	701	Sololá	2	El tablón	1	Enero	2023-03-01T00:00:00	2024-11-06T21:00:00	2	Temperatura media	12.8
128994	7	Sololá	701	Sololá	2	El tablón	1	Enero	2023-03-01T00:00:00	2024-11-06T21:00:00	4	Temperatura máxima	13.1
128995	7	Sololá	701	Sololá	2	El tablón	1	Enero	2023-03-01T00:00:00	2024-11-06T21:00:00	3	Temperatura mínima	12.5
128996	7	Sololá	701	Sololá	2	El tablón	1	Enero	2023-03-01T00:00:00	2024-11-06T21:00:00	5	Humedad	88
128997	7	Sololá	701	Sololá	2	El tablón	1	Enero	2023-03-01T00:00:00	2024-11-06T21:00:00	6	Velocidad del viento	3.2
128998	7	Sololá	701	Sololá	2	El tablón	1	Enero	2023-03-01T00:00:00	2024-11-06T21:00:00	7	Dirección del viento	3.22
128999	7	Sololá	701	Sololá	2	El tablón	1	Enero	2023-03-01T00:00:00	2024-11-06T21:00:00	1	Precipitación	0
129000	7	Sololá	701	Sololá	2	El tablón	1	Enero	2023-03-01T00:00:00	2024-11-06T21:00:00	8	Radiación solar	0
129001	7	Sololá	701	Sololá	2	El tablón	1	Enero	2023-03-01T00:00:00	2024-11-06T22:00:00	2	Temperatura media	11.7
129002	7	Sololá	701	Sololá	2	El tablón	1	Enero	2023-03-01T00:00:00	2024-11-06T22:00:00	4	Temperatura máxima	12.8
129003	7	Sololá	701	Sololá	2	El tablón	1	Enero	2023-03-01T00:00:00	2024-11-06T22:00:00	3	Temperatura mínima	11.7
129004	7	Sololá	701	Sololá	2	El tablón	1	Enero	2023-03-01T00:00:00	2024-11-06T22:00:00	5	Humedad	89
129005	7	Sololá	701	Sololá	2	El tablón	1	Enero	2023-03-01T00:00:00	2024-11-06T22:00:00	6	Velocidad del viento	4.8
129006	7	Sololá	701	Sololá	2	El tablón	1	Enero	2023-03-01T00:00:00	2024-11-06T22:00:00	7	Dirección del viento	4.83
129007	7	Sololá	701	Sololá	2	El tablón	1	Enero	2023-03-01T00:00:00	2024-11-06T22:00:00	1	Precipitación	0
129008	7	Sololá	701	Sololá	2	El tablón	1	Enero	2023-03-01T00:00:00	2024-11-06T22:00:00	8	Radiación solar	0
129009	7	Sololá	701	Sololá	2	El tablón	1	Enero	2023-03-01T00:00:00	2024-11-06T23:00:00	2	Temperatura media	11.9
129010	7	Sololá	701	Sololá	2	El tablón	1	Enero	2023-03-01T00:00:00	2024-11-06T23:00:00	4	Temperatura máxima	12.1
129011	7	Sololá	701	Sololá	2	El tablón	1	Enero	2023-03-01T00:00:00	2024-11-06T23:00:00	3	Temperatura mínima	11.7
129012	7	Sololá	701	Sololá	2	El tablón	1	Enero	2023-03-01T00:00:00	2024-11-06T23:00:00	5	Humedad	87
129013	7	Sololá	701	Sololá	2	El tablón	1	Enero	2023-03-01T00:00:00	2024-11-06T23:00:00	6	Velocidad del viento	4.8
129014	7	Sololá	701	Sololá	2	El tablón	1	Enero	2023-03-01T00:00:00	2024-11-06T23:00:00	7	Dirección del viento	4.83
129015	7	Sololá	701	Sololá	2	El tablón	1	Enero	2023-03-01T00:00:00	2024-11-06T23:00:00	1	Precipitación	0
129016	7	Sololá	701	Sololá	2	El tablón	1	Enero	2023-03-01T00:00:00	2024-11-06T23:00:00	8	Radiación solar	0
129017	7	Sololá	701	Sololá	2	El tablón	1	Enero	2023-04-01T00:00:00	2024-11-06T00:00:00	2	Temperatura media	11.2
129018	7	Sololá	701	Sololá	2	El tablón	1	Enero	2023-04-01T00:00:00	2024-11-06T00:00:00	4	Temperatura máxima	11.8
129019	7	Sololá	701	Sololá	2	El tablón	1	Enero	2023-04-01T00:00:00	2024-11-06T00:00:00	3	Temperatura mínima	11.2
129020	7	Sololá	701	Sololá	2	El tablón	1	Enero	2023-04-01T00:00:00	2024-11-06T00:00:00	5	Humedad	90
129021	7	Sololá	701	Sololá	2	El tablón	1	Enero	2023-04-01T00:00:00	2024-11-06T00:00:00	6	Velocidad del viento	6.4
129022	7	Sololá	701	Sololá	2	El tablón	1	Enero	2023-04-01T00:00:00	2024-11-06T00:00:00	7	Dirección del viento	6.44
129023	7	Sololá	701	Sololá	2	El tablón	1	Enero	2023-04-01T00:00:00	2024-11-06T00:00:00	1	Precipitación	0
129024	7	Sololá	701	Sololá	2	El tablón	1	Enero	2023-04-01T00:00:00	2024-11-06T00:00:00	8	Radiación solar	0
129025	7	Sololá	701	Sololá	2	El tablón	1	Enero	2023-04-01T00:00:00	2024-11-06T01:00:00	2	Temperatura media	11
129026	7	Sololá	701	Sololá	2	El tablón	1	Enero	2023-04-01T00:00:00	2024-11-06T01:00:00	4	Temperatura máxima	11.2
129027	7	Sololá	701	Sololá	2	El tablón	1	Enero	2023-04-01T00:00:00	2024-11-06T01:00:00	3	Temperatura mínima	11
129028	7	Sololá	701	Sololá	2	El tablón	1	Enero	2023-04-01T00:00:00	2024-11-06T01:00:00	5	Humedad	88
129029	7	Sololá	701	Sololá	2	El tablón	1	Enero	2023-04-01T00:00:00	2024-11-06T01:00:00	6	Velocidad del viento	3.2
129030	7	Sololá	701	Sololá	2	El tablón	1	Enero	2023-04-01T00:00:00	2024-11-06T01:00:00	7	Dirección del viento	3.22
129031	7	Sololá	701	Sololá	2	El tablón	1	Enero	2023-04-01T00:00:00	2024-11-06T01:00:00	1	Precipitación	0
129032	7	Sololá	701	Sololá	2	El tablón	1	Enero	2023-04-01T00:00:00	2024-11-06T01:00:00	8	Radiación solar	0
129033	7	Sololá	701	Sololá	2	El tablón	1	Enero	2023-04-01T00:00:00	2024-11-06T02:00:00	2	Temperatura media	9.4
129034	7	Sololá	701	Sololá	2	El tablón	1	Enero	2023-04-01T00:00:00	2024-11-06T02:00:00	4	Temperatura máxima	11
129035	7	Sololá	701	Sololá	2	El tablón	1	Enero	2023-04-01T00:00:00	2024-11-06T02:00:00	3	Temperatura mínima	9.4
129036	7	Sololá	701	Sololá	2	El tablón	1	Enero	2023-04-01T00:00:00	2024-11-06T02:00:00	5	Humedad	90
129037	7	Sololá	701	Sololá	2	El tablón	1	Enero	2023-04-01T00:00:00	2024-11-06T02:00:00	6	Velocidad del viento	3.2
129038	7	Sololá	701	Sololá	2	El tablón	1	Enero	2023-04-01T00:00:00	2024-11-06T02:00:00	7	Dirección del viento	3.22
129039	7	Sololá	701	Sololá	2	El tablón	1	Enero	2023-04-01T00:00:00	2024-11-06T02:00:00	1	Precipitación	0
129040	7	Sololá	701	Sololá	2	El tablón	1	Enero	2023-04-01T00:00:00	2024-11-06T02:00:00	8	Radiación solar	0
129041	7	Sololá	701	Sololá	2	El tablón	1	Enero	2023-04-01T00:00:00	2024-11-06T03:00:00	2	Temperatura media	8.4
129042	7	Sololá	701	Sololá	2	El tablón	1	Enero	2023-04-01T00:00:00	2024-11-06T03:00:00	4	Temperatura máxima	9.4
129043	7	Sololá	701	Sololá	2	El tablón	1	Enero	2023-04-01T00:00:00	2024-11-06T03:00:00	3	Temperatura mínima	8.4
129044	7	Sololá	701	Sololá	2	El tablón	1	Enero	2023-04-01T00:00:00	2024-11-06T03:00:00	5	Humedad	90
129045	7	Sololá	701	Sololá	2	El tablón	1	Enero	2023-04-01T00:00:00	2024-11-06T03:00:00	6	Velocidad del viento	3.2
129046	7	Sololá	701	Sololá	2	El tablón	1	Enero	2023-04-01T00:00:00	2024-11-06T03:00:00	7	Dirección del viento	3.22
129047	7	Sololá	701	Sololá	2	El tablón	1	Enero	2023-04-01T00:00:00	2024-11-06T03:00:00	1	Precipitación	0
129048	7	Sololá	701	Sololá	2	El tablón	1	Enero	2023-04-01T00:00:00	2024-11-06T03:00:00	8	Radiación solar	0
129049	7	Sololá	701	Sololá	2	El tablón	1	Enero	2023-04-01T00:00:00	2024-11-06T04:00:00	2	Temperatura media	8.5
129050	7	Sololá	701	Sololá	2	El tablón	1	Enero	2023-04-01T00:00:00	2024-11-06T04:00:00	4	Temperatura máxima	8.8
129051	7	Sololá	701	Sololá	2	El tablón	1	Enero	2023-04-01T00:00:00	2024-11-06T04:00:00	3	Temperatura mínima	8.3
129052	7	Sololá	701	Sololá	2	El tablón	1	Enero	2023-04-01T00:00:00	2024-11-06T04:00:00	5	Humedad	88
129053	7	Sololá	701	Sololá	2	El tablón	1	Enero	2023-04-01T00:00:00	2024-11-06T04:00:00	6	Velocidad del viento	3.2
129054	7	Sololá	701	Sololá	2	El tablón	1	Enero	2023-04-01T00:00:00	2024-11-06T04:00:00	7	Dirección del viento	3.22
129055	7	Sololá	701	Sololá	2	El tablón	1	Enero	2023-04-01T00:00:00	2024-11-06T04:00:00	1	Precipitación	0
129056	7	Sololá	701	Sololá	2	El tablón	1	Enero	2023-04-01T00:00:00	2024-11-06T04:00:00	8	Radiación solar	0
129057	7	Sololá	701	Sololá	2	El tablón	1	Enero	2023-04-01T00:00:00	2024-11-06T05:00:00	2	Temperatura media	7.8
129058	7	Sololá	701	Sololá	2	El tablón	1	Enero	2023-04-01T00:00:00	2024-11-06T05:00:00	4	Temperatura máxima	8.5
129059	7	Sololá	701	Sololá	2	El tablón	1	Enero	2023-04-01T00:00:00	2024-11-06T05:00:00	3	Temperatura mínima	7.4
129060	7	Sololá	701	Sololá	2	El tablón	1	Enero	2023-04-01T00:00:00	2024-11-06T05:00:00	5	Humedad	88
129061	7	Sololá	701	Sololá	2	El tablón	1	Enero	2023-04-01T00:00:00	2024-11-06T05:00:00	6	Velocidad del viento	3.2
129062	7	Sololá	701	Sololá	2	El tablón	1	Enero	2023-04-01T00:00:00	2024-11-06T05:00:00	7	Dirección del viento	3.22
129063	7	Sololá	701	Sololá	2	El tablón	1	Enero	2023-04-01T00:00:00	2024-11-06T05:00:00	1	Precipitación	0
129064	7	Sololá	701	Sololá	2	El tablón	1	Enero	2023-04-01T00:00:00	2024-11-06T05:00:00	8	Radiación solar	0
129065	7	Sololá	701	Sololá	2	El tablón	1	Enero	2023-04-01T00:00:00	2024-11-06T06:00:00	2	Temperatura media	7.1
129066	7	Sololá	701	Sololá	2	El tablón	1	Enero	2023-04-01T00:00:00	2024-11-06T06:00:00	4	Temperatura máxima	8.2
129067	7	Sololá	701	Sololá	2	El tablón	1	Enero	2023-04-01T00:00:00	2024-11-06T06:00:00	3	Temperatura mínima	7
129068	7	Sololá	701	Sololá	2	El tablón	1	Enero	2023-04-01T00:00:00	2024-11-06T06:00:00	5	Humedad	87
129069	7	Sololá	701	Sololá	2	El tablón	1	Enero	2023-04-01T00:00:00	2024-11-06T06:00:00	6	Velocidad del viento	3.2
129070	7	Sololá	701	Sololá	2	El tablón	1	Enero	2023-04-01T00:00:00	2024-11-06T06:00:00	7	Dirección del viento	3.22
129071	7	Sololá	701	Sololá	2	El tablón	1	Enero	2023-04-01T00:00:00	2024-11-06T06:00:00	1	Precipitación	0
129072	7	Sololá	701	Sololá	2	El tablón	1	Enero	2023-04-01T00:00:00	2024-11-06T06:00:00	8	Radiación solar	0
129073	7	Sololá	701	Sololá	2	El tablón	1	Enero	2023-04-01T00:00:00	2024-11-06T07:00:00	2	Temperatura media	8.8
129074	7	Sololá	701	Sololá	2	El tablón	1	Enero	2023-04-01T00:00:00	2024-11-06T07:00:00	4	Temperatura máxima	8.8
129075	7	Sololá	701	Sololá	2	El tablón	1	Enero	2023-04-01T00:00:00	2024-11-06T07:00:00	3	Temperatura mínima	6.9
129076	7	Sololá	701	Sololá	2	El tablón	1	Enero	2023-04-01T00:00:00	2024-11-06T07:00:00	5	Humedad	84
129077	7	Sololá	701	Sololá	2	El tablón	1	Enero	2023-04-01T00:00:00	2024-11-06T07:00:00	6	Velocidad del viento	3.2
129078	7	Sololá	701	Sololá	2	El tablón	1	Enero	2023-04-01T00:00:00	2024-11-06T07:00:00	7	Dirección del viento	3.22
129079	7	Sololá	701	Sololá	2	El tablón	1	Enero	2023-04-01T00:00:00	2024-11-06T07:00:00	1	Precipitación	0
129080	7	Sololá	701	Sololá	2	El tablón	1	Enero	2023-04-01T00:00:00	2024-11-06T07:00:00	8	Radiación solar	6
129081	7	Sololá	701	Sololá	2	El tablón	1	Enero	2023-04-01T00:00:00	2024-11-06T08:00:00	2	Temperatura media	12.1
129082	7	Sololá	701	Sololá	2	El tablón	1	Enero	2023-04-01T00:00:00	2024-11-06T08:00:00	4	Temperatura máxima	12.1
129083	7	Sololá	701	Sololá	2	El tablón	1	Enero	2023-04-01T00:00:00	2024-11-06T08:00:00	3	Temperatura mínima	8.8
129084	7	Sololá	701	Sololá	2	El tablón	1	Enero	2023-04-01T00:00:00	2024-11-06T08:00:00	5	Humedad	73
129085	7	Sololá	701	Sololá	2	El tablón	1	Enero	2023-04-01T00:00:00	2024-11-06T08:00:00	6	Velocidad del viento	3.2
129086	7	Sololá	701	Sololá	2	El tablón	1	Enero	2023-04-01T00:00:00	2024-11-06T08:00:00	7	Dirección del viento	3.22
129087	7	Sololá	701	Sololá	2	El tablón	1	Enero	2023-04-01T00:00:00	2024-11-06T08:00:00	1	Precipitación	0
129088	7	Sololá	701	Sololá	2	El tablón	1	Enero	2023-04-01T00:00:00	2024-11-06T08:00:00	8	Radiación solar	130
129089	7	Sololá	701	Sololá	2	El tablón	1	Enero	2023-04-01T00:00:00	2024-11-06T09:00:00	2	Temperatura media	14.9
129090	7	Sololá	701	Sololá	2	El tablón	1	Enero	2023-04-01T00:00:00	2024-11-06T09:00:00	4	Temperatura máxima	14.9
129091	7	Sololá	701	Sololá	2	El tablón	1	Enero	2023-04-01T00:00:00	2024-11-06T09:00:00	3	Temperatura mínima	12.1
129092	7	Sololá	701	Sololá	2	El tablón	1	Enero	2023-04-01T00:00:00	2024-11-06T09:00:00	5	Humedad	67
129093	7	Sololá	701	Sololá	2	El tablón	1	Enero	2023-04-01T00:00:00	2024-11-06T09:00:00	6	Velocidad del viento	6.4
129094	7	Sololá	701	Sololá	2	El tablón	1	Enero	2023-04-01T00:00:00	2024-11-06T09:00:00	7	Dirección del viento	6.44
129095	7	Sololá	701	Sololá	2	El tablón	1	Enero	2023-04-01T00:00:00	2024-11-06T09:00:00	1	Precipitación	0
129096	7	Sololá	701	Sololá	2	El tablón	1	Enero	2023-04-01T00:00:00	2024-11-06T09:00:00	8	Radiación solar	339
129097	7	Sololá	701	Sololá	2	El tablón	1	Enero	2023-04-01T00:00:00	2024-11-06T10:00:00	2	Temperatura media	16.4
129098	7	Sololá	701	Sololá	2	El tablón	1	Enero	2023-04-01T00:00:00	2024-11-06T10:00:00	4	Temperatura máxima	16.4
129099	7	Sololá	701	Sololá	2	El tablón	1	Enero	2023-04-01T00:00:00	2024-11-06T10:00:00	3	Temperatura mínima	14.9
129100	7	Sololá	701	Sololá	2	El tablón	1	Enero	2023-04-01T00:00:00	2024-11-06T10:00:00	5	Humedad	55
129101	7	Sololá	701	Sololá	2	El tablón	1	Enero	2023-04-01T00:00:00	2024-11-06T10:00:00	6	Velocidad del viento	11.3
129102	7	Sololá	701	Sololá	2	El tablón	1	Enero	2023-04-01T00:00:00	2024-11-06T10:00:00	7	Dirección del viento	11.27
129103	7	Sololá	701	Sololá	2	El tablón	1	Enero	2023-04-01T00:00:00	2024-11-06T10:00:00	1	Precipitación	0
129104	7	Sololá	701	Sololá	2	El tablón	1	Enero	2023-04-01T00:00:00	2024-11-06T10:00:00	8	Radiación solar	530
129105	7	Sololá	701	Sololá	2	El tablón	1	Enero	2023-04-01T00:00:00	2024-11-06T11:00:00	2	Temperatura media	17.4
129106	7	Sololá	701	Sololá	2	El tablón	1	Enero	2023-04-01T00:00:00	2024-11-06T11:00:00	4	Temperatura máxima	17.4
129107	7	Sololá	701	Sololá	2	El tablón	1	Enero	2023-04-01T00:00:00	2024-11-06T11:00:00	3	Temperatura mínima	16.4
129108	7	Sololá	701	Sololá	2	El tablón	1	Enero	2023-04-01T00:00:00	2024-11-06T11:00:00	5	Humedad	55
129109	7	Sololá	701	Sololá	2	El tablón	1	Enero	2023-04-01T00:00:00	2024-11-06T11:00:00	6	Velocidad del viento	11.3
129110	7	Sololá	701	Sololá	2	El tablón	1	Enero	2023-04-01T00:00:00	2024-11-06T11:00:00	7	Dirección del viento	11.27
129111	7	Sololá	701	Sololá	2	El tablón	1	Enero	2023-04-01T00:00:00	2024-11-06T11:00:00	1	Precipitación	0
129112	7	Sololá	701	Sololá	2	El tablón	1	Enero	2023-04-01T00:00:00	2024-11-06T11:00:00	8	Radiación solar	659
129113	7	Sololá	701	Sololá	2	El tablón	1	Enero	2023-04-01T00:00:00	2024-11-06T12:00:00	2	Temperatura media	17.9
129114	7	Sololá	701	Sololá	2	El tablón	1	Enero	2023-04-01T00:00:00	2024-11-06T12:00:00	4	Temperatura máxima	18.5
129115	7	Sololá	701	Sololá	2	El tablón	1	Enero	2023-04-01T00:00:00	2024-11-06T12:00:00	3	Temperatura mínima	17.4
129116	7	Sololá	701	Sololá	2	El tablón	1	Enero	2023-04-01T00:00:00	2024-11-06T12:00:00	5	Humedad	48
129117	7	Sololá	701	Sololá	2	El tablón	1	Enero	2023-04-01T00:00:00	2024-11-06T12:00:00	6	Velocidad del viento	9.7
129118	7	Sololá	701	Sololá	2	El tablón	1	Enero	2023-04-01T00:00:00	2024-11-06T12:00:00	7	Dirección del viento	9.66
129119	7	Sololá	701	Sololá	2	El tablón	1	Enero	2023-04-01T00:00:00	2024-11-06T12:00:00	1	Precipitación	0
129120	7	Sololá	701	Sololá	2	El tablón	1	Enero	2023-04-01T00:00:00	2024-11-06T12:00:00	8	Radiación solar	637
129121	7	Sololá	701	Sololá	2	El tablón	1	Enero	2023-04-01T00:00:00	2024-11-06T13:00:00	2	Temperatura media	18.8
129122	7	Sololá	701	Sololá	2	El tablón	1	Enero	2023-04-01T00:00:00	2024-11-06T13:00:00	4	Temperatura máxima	19
129123	7	Sololá	701	Sololá	2	El tablón	1	Enero	2023-04-01T00:00:00	2024-11-06T13:00:00	3	Temperatura mínima	17.8
129124	7	Sololá	701	Sololá	2	El tablón	1	Enero	2023-04-01T00:00:00	2024-11-06T13:00:00	5	Humedad	45
129125	7	Sololá	701	Sololá	2	El tablón	1	Enero	2023-04-01T00:00:00	2024-11-06T13:00:00	6	Velocidad del viento	11.3
129126	7	Sololá	701	Sololá	2	El tablón	1	Enero	2023-04-01T00:00:00	2024-11-06T13:00:00	7	Dirección del viento	11.27
129127	7	Sololá	701	Sololá	2	El tablón	1	Enero	2023-04-01T00:00:00	2024-11-06T13:00:00	1	Precipitación	0
129128	7	Sololá	701	Sololá	2	El tablón	1	Enero	2023-04-01T00:00:00	2024-11-06T13:00:00	8	Radiación solar	718
129129	7	Sololá	701	Sololá	2	El tablón	1	Enero	2023-04-01T00:00:00	2024-11-06T14:00:00	2	Temperatura media	19.2
129130	7	Sololá	701	Sololá	2	El tablón	1	Enero	2023-04-01T00:00:00	2024-11-06T14:00:00	4	Temperatura máxima	19.5
129131	7	Sololá	701	Sololá	2	El tablón	1	Enero	2023-04-01T00:00:00	2024-11-06T14:00:00	3	Temperatura mínima	18.8
129132	7	Sololá	701	Sololá	2	El tablón	1	Enero	2023-04-01T00:00:00	2024-11-06T14:00:00	5	Humedad	41
129133	7	Sololá	701	Sololá	2	El tablón	1	Enero	2023-04-01T00:00:00	2024-11-06T14:00:00	6	Velocidad del viento	9.7
129134	7	Sololá	701	Sololá	2	El tablón	1	Enero	2023-04-01T00:00:00	2024-11-06T14:00:00	7	Dirección del viento	9.66
129135	7	Sololá	701	Sololá	2	El tablón	1	Enero	2023-04-01T00:00:00	2024-11-06T14:00:00	1	Precipitación	0
129136	7	Sololá	701	Sololá	2	El tablón	1	Enero	2023-04-01T00:00:00	2024-11-06T14:00:00	8	Radiación solar	714
129137	7	Sololá	701	Sololá	2	El tablón	1	Enero	2023-04-01T00:00:00	2024-11-06T15:00:00	2	Temperatura media	19.1
129138	7	Sololá	701	Sololá	2	El tablón	1	Enero	2023-04-01T00:00:00	2024-11-06T15:00:00	4	Temperatura máxima	19.4
129139	7	Sololá	701	Sololá	2	El tablón	1	Enero	2023-04-01T00:00:00	2024-11-06T15:00:00	3	Temperatura mínima	19.1
129140	7	Sololá	701	Sololá	2	El tablón	1	Enero	2023-04-01T00:00:00	2024-11-06T15:00:00	5	Humedad	45
129141	7	Sololá	701	Sololá	2	El tablón	1	Enero	2023-04-01T00:00:00	2024-11-06T15:00:00	6	Velocidad del viento	9.7
129142	7	Sololá	701	Sololá	2	El tablón	1	Enero	2023-04-01T00:00:00	2024-11-06T15:00:00	7	Dirección del viento	9.66
129143	7	Sololá	701	Sololá	2	El tablón	1	Enero	2023-04-01T00:00:00	2024-11-06T15:00:00	1	Precipitación	0
129144	7	Sololá	701	Sololá	2	El tablón	1	Enero	2023-04-01T00:00:00	2024-11-06T15:00:00	8	Radiación solar	605
129145	7	Sololá	701	Sololá	2	El tablón	1	Enero	2023-04-01T00:00:00	2024-11-06T16:00:00	2	Temperatura media	18.3
129146	7	Sololá	701	Sololá	2	El tablón	1	Enero	2023-04-01T00:00:00	2024-11-06T16:00:00	4	Temperatura máxima	19.3
129147	7	Sololá	701	Sololá	2	El tablón	1	Enero	2023-04-01T00:00:00	2024-11-06T16:00:00	3	Temperatura mínima	18.3
129148	7	Sololá	701	Sololá	2	El tablón	1	Enero	2023-04-01T00:00:00	2024-11-06T16:00:00	5	Humedad	50
129149	7	Sololá	701	Sololá	2	El tablón	1	Enero	2023-04-01T00:00:00	2024-11-06T16:00:00	6	Velocidad del viento	9.7
129150	7	Sololá	701	Sololá	2	El tablón	1	Enero	2023-04-01T00:00:00	2024-11-06T16:00:00	7	Dirección del viento	9.66
129151	7	Sololá	701	Sololá	2	El tablón	1	Enero	2023-04-01T00:00:00	2024-11-06T16:00:00	1	Precipitación	0
129152	7	Sololá	701	Sololá	2	El tablón	1	Enero	2023-04-01T00:00:00	2024-11-06T16:00:00	8	Radiación solar	437
129153	7	Sololá	701	Sololá	2	El tablón	1	Enero	2023-04-01T00:00:00	2024-11-06T17:00:00	2	Temperatura media	16.8
129154	7	Sololá	701	Sololá	2	El tablón	1	Enero	2023-04-01T00:00:00	2024-11-06T17:00:00	4	Temperatura máxima	18.4
129155	7	Sololá	701	Sololá	2	El tablón	1	Enero	2023-04-01T00:00:00	2024-11-06T17:00:00	3	Temperatura mínima	16.8
129156	7	Sololá	701	Sololá	2	El tablón	1	Enero	2023-04-01T00:00:00	2024-11-06T17:00:00	5	Humedad	55
129157	7	Sololá	701	Sololá	2	El tablón	1	Enero	2023-04-01T00:00:00	2024-11-06T17:00:00	6	Velocidad del viento	11.3
129158	7	Sololá	701	Sololá	2	El tablón	1	Enero	2023-04-01T00:00:00	2024-11-06T17:00:00	7	Dirección del viento	11.27
129159	7	Sololá	701	Sololá	2	El tablón	1	Enero	2023-04-01T00:00:00	2024-11-06T17:00:00	1	Precipitación	0
129160	7	Sololá	701	Sololá	2	El tablón	1	Enero	2023-04-01T00:00:00	2024-11-06T17:00:00	8	Radiación solar	230
129161	7	Sololá	701	Sololá	2	El tablón	1	Enero	2023-04-01T00:00:00	2024-11-06T18:00:00	2	Temperatura media	14.3
129162	7	Sololá	701	Sololá	2	El tablón	1	Enero	2023-04-01T00:00:00	2024-11-06T18:00:00	4	Temperatura máxima	16.8
129163	7	Sololá	701	Sololá	2	El tablón	1	Enero	2023-04-01T00:00:00	2024-11-06T18:00:00	3	Temperatura mínima	14.3
129164	7	Sololá	701	Sololá	2	El tablón	1	Enero	2023-04-01T00:00:00	2024-11-06T18:00:00	5	Humedad	63
129165	7	Sololá	701	Sololá	2	El tablón	1	Enero	2023-04-01T00:00:00	2024-11-06T18:00:00	6	Velocidad del viento	11.3
129166	7	Sololá	701	Sololá	2	El tablón	1	Enero	2023-04-01T00:00:00	2024-11-06T18:00:00	7	Dirección del viento	11.27
129167	7	Sololá	701	Sololá	2	El tablón	1	Enero	2023-04-01T00:00:00	2024-11-06T18:00:00	1	Precipitación	0
129168	7	Sololá	701	Sololá	2	El tablón	1	Enero	2023-04-01T00:00:00	2024-11-06T18:00:00	8	Radiación solar	33
129169	7	Sololá	701	Sololá	2	El tablón	1	Enero	2023-04-01T00:00:00	2024-11-06T19:00:00	2	Temperatura media	12.9
129170	7	Sololá	701	Sololá	2	El tablón	1	Enero	2023-04-01T00:00:00	2024-11-06T19:00:00	4	Temperatura máxima	14.3
129171	7	Sololá	701	Sololá	2	El tablón	1	Enero	2023-04-01T00:00:00	2024-11-06T19:00:00	3	Temperatura mínima	12.9
129172	7	Sololá	701	Sololá	2	El tablón	1	Enero	2023-04-01T00:00:00	2024-11-06T19:00:00	5	Humedad	69
129173	7	Sololá	701	Sololá	2	El tablón	1	Enero	2023-04-01T00:00:00	2024-11-06T19:00:00	6	Velocidad del viento	9.7
129174	7	Sololá	701	Sololá	2	El tablón	1	Enero	2023-04-01T00:00:00	2024-11-06T19:00:00	7	Dirección del viento	9.66
129175	7	Sololá	701	Sololá	2	El tablón	1	Enero	2023-04-01T00:00:00	2024-11-06T19:00:00	1	Precipitación	0
129176	7	Sololá	701	Sololá	2	El tablón	1	Enero	2023-04-01T00:00:00	2024-11-06T19:00:00	8	Radiación solar	0
129177	7	Sololá	701	Sololá	2	El tablón	1	Enero	2023-04-01T00:00:00	2024-11-06T20:00:00	2	Temperatura media	12.1
129178	7	Sololá	701	Sololá	2	El tablón	1	Enero	2023-04-01T00:00:00	2024-11-06T20:00:00	4	Temperatura máxima	12.9
129179	7	Sololá	701	Sololá	2	El tablón	1	Enero	2023-04-01T00:00:00	2024-11-06T20:00:00	3	Temperatura mínima	12.1
129180	7	Sololá	701	Sololá	2	El tablón	1	Enero	2023-04-01T00:00:00	2024-11-06T20:00:00	5	Humedad	69
129181	7	Sololá	701	Sololá	2	El tablón	1	Enero	2023-04-01T00:00:00	2024-11-06T20:00:00	6	Velocidad del viento	11.3
129182	7	Sololá	701	Sololá	2	El tablón	1	Enero	2023-04-01T00:00:00	2024-11-06T20:00:00	7	Dirección del viento	11.27
129183	7	Sololá	701	Sololá	2	El tablón	1	Enero	2023-04-01T00:00:00	2024-11-06T20:00:00	1	Precipitación	0
129184	7	Sololá	701	Sololá	2	El tablón	1	Enero	2023-04-01T00:00:00	2024-11-06T20:00:00	8	Radiación solar	0
129185	7	Sololá	701	Sololá	2	El tablón	1	Enero	2023-04-01T00:00:00	2024-11-06T21:00:00	2	Temperatura media	11.6
129186	7	Sololá	701	Sololá	2	El tablón	1	Enero	2023-04-01T00:00:00	2024-11-06T21:00:00	4	Temperatura máxima	12.1
129187	7	Sololá	701	Sololá	2	El tablón	1	Enero	2023-04-01T00:00:00	2024-11-06T21:00:00	3	Temperatura mínima	11.6
129188	7	Sololá	701	Sololá	2	El tablón	1	Enero	2023-04-01T00:00:00	2024-11-06T21:00:00	5	Humedad	69
129189	7	Sololá	701	Sololá	2	El tablón	1	Enero	2023-04-01T00:00:00	2024-11-06T21:00:00	6	Velocidad del viento	11.3
129190	7	Sololá	701	Sololá	2	El tablón	1	Enero	2023-04-01T00:00:00	2024-11-06T21:00:00	7	Dirección del viento	11.27
129191	7	Sololá	701	Sololá	2	El tablón	1	Enero	2023-04-01T00:00:00	2024-11-06T21:00:00	1	Precipitación	0
129192	7	Sololá	701	Sololá	2	El tablón	1	Enero	2023-04-01T00:00:00	2024-11-06T21:00:00	8	Radiación solar	0
129193	7	Sololá	701	Sololá	2	El tablón	1	Enero	2023-04-01T00:00:00	2024-11-06T22:00:00	2	Temperatura media	11.8
129194	7	Sololá	701	Sololá	2	El tablón	1	Enero	2023-04-01T00:00:00	2024-11-06T22:00:00	4	Temperatura máxima	11.8
129195	7	Sololá	701	Sololá	2	El tablón	1	Enero	2023-04-01T00:00:00	2024-11-06T22:00:00	3	Temperatura mínima	11.6
129196	7	Sololá	701	Sololá	2	El tablón	1	Enero	2023-04-01T00:00:00	2024-11-06T22:00:00	5	Humedad	61
129197	7	Sololá	701	Sololá	2	El tablón	1	Enero	2023-04-01T00:00:00	2024-11-06T22:00:00	6	Velocidad del viento	9.7
129198	7	Sololá	701	Sololá	2	El tablón	1	Enero	2023-04-01T00:00:00	2024-11-06T22:00:00	7	Dirección del viento	9.66
129199	7	Sololá	701	Sololá	2	El tablón	1	Enero	2023-04-01T00:00:00	2024-11-06T22:00:00	1	Precipitación	0
129200	7	Sololá	701	Sololá	2	El tablón	1	Enero	2023-04-01T00:00:00	2024-11-06T22:00:00	8	Radiación solar	0
129201	7	Sololá	701	Sololá	2	El tablón	1	Enero	2023-04-01T00:00:00	2024-11-06T23:00:00	2	Temperatura media	11.2
129202	7	Sololá	701	Sololá	2	El tablón	1	Enero	2023-04-01T00:00:00	2024-11-06T23:00:00	4	Temperatura máxima	12.1
129203	7	Sololá	701	Sololá	2	El tablón	1	Enero	2023-04-01T00:00:00	2024-11-06T23:00:00	3	Temperatura mínima	11.2
129204	7	Sololá	701	Sololá	2	El tablón	1	Enero	2023-04-01T00:00:00	2024-11-06T23:00:00	5	Humedad	65
129205	7	Sololá	701	Sololá	2	El tablón	1	Enero	2023-04-01T00:00:00	2024-11-06T23:00:00	6	Velocidad del viento	4.8
129206	7	Sololá	701	Sololá	2	El tablón	1	Enero	2023-04-01T00:00:00	2024-11-06T23:00:00	7	Dirección del viento	4.83
129207	7	Sololá	701	Sololá	2	El tablón	1	Enero	2023-04-01T00:00:00	2024-11-06T23:00:00	1	Precipitación	0
129208	7	Sololá	701	Sololá	2	El tablón	1	Enero	2023-04-01T00:00:00	2024-11-06T23:00:00	8	Radiación solar	0
129209	7	Sololá	701	Sololá	2	El tablón	1	Enero	2023-05-01T00:00:00	2024-11-06T00:00:00	2	Temperatura media	11.4
129210	7	Sololá	701	Sololá	2	El tablón	1	Enero	2023-05-01T00:00:00	2024-11-06T00:00:00	4	Temperatura máxima	11.4
129211	7	Sololá	701	Sololá	2	El tablón	1	Enero	2023-05-01T00:00:00	2024-11-06T00:00:00	3	Temperatura mínima	11
129212	7	Sololá	701	Sololá	2	El tablón	1	Enero	2023-05-01T00:00:00	2024-11-06T00:00:00	5	Humedad	53
129213	7	Sololá	701	Sololá	2	El tablón	1	Enero	2023-05-01T00:00:00	2024-11-06T00:00:00	6	Velocidad del viento	12.9
129214	7	Sololá	701	Sololá	2	El tablón	1	Enero	2023-05-01T00:00:00	2024-11-06T00:00:00	7	Dirección del viento	12.87
129215	7	Sololá	701	Sololá	2	El tablón	1	Enero	2023-05-01T00:00:00	2024-11-06T00:00:00	1	Precipitación	0
129216	7	Sololá	701	Sololá	2	El tablón	1	Enero	2023-05-01T00:00:00	2024-11-06T00:00:00	8	Radiación solar	0
129217	7	Sololá	701	Sololá	2	El tablón	1	Enero	2023-05-01T00:00:00	2024-11-06T01:00:00	2	Temperatura media	11.7
129218	7	Sololá	701	Sololá	2	El tablón	1	Enero	2023-05-01T00:00:00	2024-11-06T01:00:00	4	Temperatura máxima	11.9
129219	7	Sololá	701	Sololá	2	El tablón	1	Enero	2023-05-01T00:00:00	2024-11-06T01:00:00	3	Temperatura mínima	11.4
129220	7	Sololá	701	Sololá	2	El tablón	1	Enero	2023-05-01T00:00:00	2024-11-06T01:00:00	5	Humedad	58
129221	7	Sololá	701	Sololá	2	El tablón	1	Enero	2023-05-01T00:00:00	2024-11-06T01:00:00	6	Velocidad del viento	14.5
129222	7	Sololá	701	Sololá	2	El tablón	1	Enero	2023-05-01T00:00:00	2024-11-06T01:00:00	7	Dirección del viento	14.48
129223	7	Sololá	701	Sololá	2	El tablón	1	Enero	2023-05-01T00:00:00	2024-11-06T01:00:00	1	Precipitación	0
129224	7	Sololá	701	Sololá	2	El tablón	1	Enero	2023-05-01T00:00:00	2024-11-06T01:00:00	8	Radiación solar	0
129225	7	Sololá	701	Sololá	2	El tablón	1	Enero	2023-05-01T00:00:00	2024-11-06T02:00:00	2	Temperatura media	11.7
129226	7	Sololá	701	Sololá	2	El tablón	1	Enero	2023-05-01T00:00:00	2024-11-06T02:00:00	4	Temperatura máxima	11.9
129227	7	Sololá	701	Sololá	2	El tablón	1	Enero	2023-05-01T00:00:00	2024-11-06T02:00:00	3	Temperatura mínima	11.6
129228	7	Sololá	701	Sololá	2	El tablón	1	Enero	2023-05-01T00:00:00	2024-11-06T02:00:00	5	Humedad	74
129229	7	Sololá	701	Sololá	2	El tablón	1	Enero	2023-05-01T00:00:00	2024-11-06T02:00:00	6	Velocidad del viento	8
129230	7	Sololá	701	Sololá	2	El tablón	1	Enero	2023-05-01T00:00:00	2024-11-06T02:00:00	7	Dirección del viento	8.05
129231	7	Sololá	701	Sololá	2	El tablón	1	Enero	2023-05-01T00:00:00	2024-11-06T02:00:00	1	Precipitación	0
129232	7	Sololá	701	Sololá	2	El tablón	1	Enero	2023-05-01T00:00:00	2024-11-06T02:00:00	8	Radiación solar	0
129233	7	Sololá	701	Sololá	2	El tablón	1	Enero	2023-05-01T00:00:00	2024-11-06T03:00:00	2	Temperatura media	11.7
129234	7	Sololá	701	Sololá	2	El tablón	1	Enero	2023-05-01T00:00:00	2024-11-06T03:00:00	4	Temperatura máxima	12
129235	7	Sololá	701	Sololá	2	El tablón	1	Enero	2023-05-01T00:00:00	2024-11-06T03:00:00	3	Temperatura mínima	11.7
129236	7	Sololá	701	Sololá	2	El tablón	1	Enero	2023-05-01T00:00:00	2024-11-06T03:00:00	5	Humedad	67
129237	7	Sololá	701	Sololá	2	El tablón	1	Enero	2023-05-01T00:00:00	2024-11-06T03:00:00	6	Velocidad del viento	4.8
129238	7	Sololá	701	Sololá	2	El tablón	1	Enero	2023-05-01T00:00:00	2024-11-06T03:00:00	7	Dirección del viento	4.83
129239	7	Sololá	701	Sololá	2	El tablón	1	Enero	2023-05-01T00:00:00	2024-11-06T03:00:00	1	Precipitación	0
129240	7	Sololá	701	Sololá	2	El tablón	1	Enero	2023-05-01T00:00:00	2024-11-06T03:00:00	8	Radiación solar	0
129241	7	Sololá	701	Sololá	2	El tablón	1	Enero	2023-05-01T00:00:00	2024-11-06T04:00:00	2	Temperatura media	11.6
129242	7	Sololá	701	Sololá	2	El tablón	1	Enero	2023-05-01T00:00:00	2024-11-06T04:00:00	4	Temperatura máxima	11.7
129243	7	Sololá	701	Sololá	2	El tablón	1	Enero	2023-05-01T00:00:00	2024-11-06T04:00:00	3	Temperatura mínima	11.3
129244	7	Sololá	701	Sololá	2	El tablón	1	Enero	2023-05-01T00:00:00	2024-11-06T04:00:00	5	Humedad	63
129245	7	Sololá	701	Sololá	2	El tablón	1	Enero	2023-05-01T00:00:00	2024-11-06T04:00:00	6	Velocidad del viento	4.8
129246	7	Sololá	701	Sololá	2	El tablón	1	Enero	2023-05-01T00:00:00	2024-11-06T04:00:00	7	Dirección del viento	4.83
129247	7	Sololá	701	Sololá	2	El tablón	1	Enero	2023-05-01T00:00:00	2024-11-06T04:00:00	1	Precipitación	0
129248	7	Sololá	701	Sololá	2	El tablón	1	Enero	2023-05-01T00:00:00	2024-11-06T04:00:00	8	Radiación solar	0
129249	7	Sololá	701	Sololá	2	El tablón	1	Enero	2023-05-01T00:00:00	2024-11-06T05:00:00	2	Temperatura media	11.8
129250	7	Sololá	701	Sololá	2	El tablón	1	Enero	2023-05-01T00:00:00	2024-11-06T05:00:00	4	Temperatura máxima	11.8
129251	7	Sololá	701	Sololá	2	El tablón	1	Enero	2023-05-01T00:00:00	2024-11-06T05:00:00	3	Temperatura mínima	11.6
129252	7	Sololá	701	Sololá	2	El tablón	1	Enero	2023-05-01T00:00:00	2024-11-06T05:00:00	5	Humedad	73
129253	7	Sololá	701	Sololá	2	El tablón	1	Enero	2023-05-01T00:00:00	2024-11-06T05:00:00	6	Velocidad del viento	3.2
129254	7	Sololá	701	Sololá	2	El tablón	1	Enero	2023-05-01T00:00:00	2024-11-06T05:00:00	7	Dirección del viento	3.22
129255	7	Sololá	701	Sololá	2	El tablón	1	Enero	2023-05-01T00:00:00	2024-11-06T05:00:00	1	Precipitación	0
129256	7	Sololá	701	Sololá	2	El tablón	1	Enero	2023-05-01T00:00:00	2024-11-06T05:00:00	8	Radiación solar	0
129257	7	Sololá	701	Sololá	2	El tablón	1	Enero	2023-05-01T00:00:00	2024-11-06T06:00:00	2	Temperatura media	11.2
129258	7	Sololá	701	Sololá	2	El tablón	1	Enero	2023-05-01T00:00:00	2024-11-06T06:00:00	4	Temperatura máxima	11.8
129259	7	Sololá	701	Sololá	2	El tablón	1	Enero	2023-05-01T00:00:00	2024-11-06T06:00:00	3	Temperatura mínima	11.2
129260	7	Sololá	701	Sololá	2	El tablón	1	Enero	2023-05-01T00:00:00	2024-11-06T06:00:00	5	Humedad	78
129261	7	Sololá	701	Sololá	2	El tablón	1	Enero	2023-05-01T00:00:00	2024-11-06T06:00:00	6	Velocidad del viento	4.8
129262	7	Sololá	701	Sololá	2	El tablón	1	Enero	2023-05-01T00:00:00	2024-11-06T06:00:00	7	Dirección del viento	4.83
129263	7	Sololá	701	Sololá	2	El tablón	1	Enero	2023-05-01T00:00:00	2024-11-06T06:00:00	1	Precipitación	0
129264	7	Sololá	701	Sololá	2	El tablón	1	Enero	2023-05-01T00:00:00	2024-11-06T06:00:00	8	Radiación solar	0
129265	7	Sololá	701	Sololá	2	El tablón	1	Enero	2023-05-01T00:00:00	2024-11-06T07:00:00	2	Temperatura media	10.4
129266	7	Sololá	701	Sololá	2	El tablón	1	Enero	2023-05-01T00:00:00	2024-11-06T07:00:00	4	Temperatura máxima	11.2
129267	7	Sololá	701	Sololá	2	El tablón	1	Enero	2023-05-01T00:00:00	2024-11-06T07:00:00	3	Temperatura mínima	10.2
129268	7	Sololá	701	Sololá	2	El tablón	1	Enero	2023-05-01T00:00:00	2024-11-06T07:00:00	5	Humedad	82
129269	7	Sololá	701	Sololá	2	El tablón	1	Enero	2023-05-01T00:00:00	2024-11-06T07:00:00	6	Velocidad del viento	4.8
129270	7	Sololá	701	Sololá	2	El tablón	1	Enero	2023-05-01T00:00:00	2024-11-06T07:00:00	7	Dirección del viento	4.83
129271	7	Sololá	701	Sololá	2	El tablón	1	Enero	2023-05-01T00:00:00	2024-11-06T07:00:00	1	Precipitación	0
129272	7	Sololá	701	Sololá	2	El tablón	1	Enero	2023-05-01T00:00:00	2024-11-06T07:00:00	8	Radiación solar	4
129273	7	Sololá	701	Sololá	2	El tablón	1	Enero	2023-05-01T00:00:00	2024-11-06T08:00:00	2	Temperatura media	11.1
129274	7	Sololá	701	Sololá	2	El tablón	1	Enero	2023-05-01T00:00:00	2024-11-06T08:00:00	4	Temperatura máxima	11.1
129275	7	Sololá	701	Sololá	2	El tablón	1	Enero	2023-05-01T00:00:00	2024-11-06T08:00:00	3	Temperatura mínima	10.4
129276	7	Sololá	701	Sololá	2	El tablón	1	Enero	2023-05-01T00:00:00	2024-11-06T08:00:00	5	Humedad	87
129277	7	Sololá	701	Sololá	2	El tablón	1	Enero	2023-05-01T00:00:00	2024-11-06T08:00:00	6	Velocidad del viento	4.8
129278	7	Sololá	701	Sololá	2	El tablón	1	Enero	2023-05-01T00:00:00	2024-11-06T08:00:00	7	Dirección del viento	4.83
129279	7	Sololá	701	Sololá	2	El tablón	1	Enero	2023-05-01T00:00:00	2024-11-06T08:00:00	1	Precipitación	0
129280	7	Sololá	701	Sololá	2	El tablón	1	Enero	2023-05-01T00:00:00	2024-11-06T08:00:00	8	Radiación solar	53
129281	7	Sololá	701	Sololá	2	El tablón	1	Enero	2023-05-01T00:00:00	2024-11-06T09:00:00	2	Temperatura media	11.1
129282	7	Sololá	701	Sololá	2	El tablón	1	Enero	2023-05-01T00:00:00	2024-11-06T09:00:00	4	Temperatura máxima	11.2
129283	7	Sololá	701	Sololá	2	El tablón	1	Enero	2023-05-01T00:00:00	2024-11-06T09:00:00	3	Temperatura mínima	10.6
129284	7	Sololá	701	Sololá	2	El tablón	1	Enero	2023-05-01T00:00:00	2024-11-06T09:00:00	5	Humedad	85
129285	7	Sololá	701	Sololá	2	El tablón	1	Enero	2023-05-01T00:00:00	2024-11-06T09:00:00	6	Velocidad del viento	11.3
129286	7	Sololá	701	Sololá	2	El tablón	1	Enero	2023-05-01T00:00:00	2024-11-06T09:00:00	7	Dirección del viento	11.27
129287	7	Sololá	701	Sololá	2	El tablón	1	Enero	2023-05-01T00:00:00	2024-11-06T09:00:00	1	Precipitación	0
129288	7	Sololá	701	Sololá	2	El tablón	1	Enero	2023-05-01T00:00:00	2024-11-06T09:00:00	8	Radiación solar	111
129289	7	Sololá	701	Sololá	2	El tablón	1	Enero	2023-05-01T00:00:00	2024-11-06T10:00:00	2	Temperatura media	12.8
129290	7	Sololá	701	Sololá	2	El tablón	1	Enero	2023-05-01T00:00:00	2024-11-06T10:00:00	4	Temperatura máxima	12.8
129291	7	Sololá	701	Sololá	2	El tablón	1	Enero	2023-05-01T00:00:00	2024-11-06T10:00:00	3	Temperatura mínima	11.1
129292	7	Sololá	701	Sololá	2	El tablón	1	Enero	2023-05-01T00:00:00	2024-11-06T10:00:00	5	Humedad	77
129293	7	Sololá	701	Sololá	2	El tablón	1	Enero	2023-05-01T00:00:00	2024-11-06T10:00:00	6	Velocidad del viento	12.9
129294	7	Sololá	701	Sololá	2	El tablón	1	Enero	2023-05-01T00:00:00	2024-11-06T10:00:00	7	Dirección del viento	12.87
129295	7	Sololá	701	Sololá	2	El tablón	1	Enero	2023-05-01T00:00:00	2024-11-06T10:00:00	1	Precipitación	0
129296	7	Sololá	701	Sololá	2	El tablón	1	Enero	2023-05-01T00:00:00	2024-11-06T10:00:00	8	Radiación solar	427
129297	7	Sololá	701	Sololá	2	El tablón	1	Enero	2023-05-01T00:00:00	2024-11-06T11:00:00	2	Temperatura media	13.8
129298	7	Sololá	701	Sololá	2	El tablón	1	Enero	2023-05-01T00:00:00	2024-11-06T11:00:00	4	Temperatura máxima	14.2
129299	7	Sololá	701	Sololá	2	El tablón	1	Enero	2023-05-01T00:00:00	2024-11-06T11:00:00	3	Temperatura mínima	12.6
129300	7	Sololá	701	Sololá	2	El tablón	1	Enero	2023-05-01T00:00:00	2024-11-06T11:00:00	5	Humedad	68
129301	7	Sololá	701	Sololá	2	El tablón	1	Enero	2023-05-01T00:00:00	2024-11-06T11:00:00	6	Velocidad del viento	14.5
129302	7	Sololá	701	Sololá	2	El tablón	1	Enero	2023-05-01T00:00:00	2024-11-06T11:00:00	7	Dirección del viento	14.48
129303	7	Sololá	701	Sololá	2	El tablón	1	Enero	2023-05-01T00:00:00	2024-11-06T11:00:00	1	Precipitación	0
129304	7	Sololá	701	Sololá	2	El tablón	1	Enero	2023-05-01T00:00:00	2024-11-06T11:00:00	8	Radiación solar	438
129305	7	Sololá	701	Sololá	2	El tablón	1	Enero	2023-05-01T00:00:00	2024-11-06T12:00:00	2	Temperatura media	14.2
129306	7	Sololá	701	Sololá	2	El tablón	1	Enero	2023-05-01T00:00:00	2024-11-06T12:00:00	4	Temperatura máxima	14.4
129307	7	Sololá	701	Sololá	2	El tablón	1	Enero	2023-05-01T00:00:00	2024-11-06T12:00:00	3	Temperatura mínima	13.4
129308	7	Sololá	701	Sololá	2	El tablón	1	Enero	2023-05-01T00:00:00	2024-11-06T12:00:00	5	Humedad	66
129309	7	Sololá	701	Sololá	2	El tablón	1	Enero	2023-05-01T00:00:00	2024-11-06T12:00:00	6	Velocidad del viento	14.5
129310	7	Sololá	701	Sololá	2	El tablón	1	Enero	2023-05-01T00:00:00	2024-11-06T12:00:00	7	Dirección del viento	14.48
129311	7	Sololá	701	Sololá	2	El tablón	1	Enero	2023-05-01T00:00:00	2024-11-06T12:00:00	1	Precipitación	0
129312	7	Sololá	701	Sololá	2	El tablón	1	Enero	2023-05-01T00:00:00	2024-11-06T12:00:00	8	Radiación solar	440
129313	7	Sololá	701	Sololá	2	El tablón	1	Enero	2023-05-01T00:00:00	2024-11-06T13:00:00	2	Temperatura media	13.8
129314	7	Sololá	701	Sololá	2	El tablón	1	Enero	2023-05-01T00:00:00	2024-11-06T13:00:00	4	Temperatura máxima	14.4
129315	7	Sololá	701	Sololá	2	El tablón	1	Enero	2023-05-01T00:00:00	2024-11-06T13:00:00	3	Temperatura mínima	13.8
129316	7	Sololá	701	Sololá	2	El tablón	1	Enero	2023-05-01T00:00:00	2024-11-06T13:00:00	5	Humedad	73
129317	7	Sololá	701	Sololá	2	El tablón	1	Enero	2023-05-01T00:00:00	2024-11-06T13:00:00	6	Velocidad del viento	11.3
129318	7	Sololá	701	Sololá	2	El tablón	1	Enero	2023-05-01T00:00:00	2024-11-06T13:00:00	7	Dirección del viento	11.27
129319	7	Sololá	701	Sololá	2	El tablón	1	Enero	2023-05-01T00:00:00	2024-11-06T13:00:00	1	Precipitación	0
129320	7	Sololá	701	Sololá	2	El tablón	1	Enero	2023-05-01T00:00:00	2024-11-06T13:00:00	8	Radiación solar	280
129321	7	Sololá	701	Sololá	2	El tablón	1	Enero	2023-05-01T00:00:00	2024-11-06T14:00:00	2	Temperatura media	12.9
129322	7	Sololá	701	Sololá	2	El tablón	1	Enero	2023-05-01T00:00:00	2024-11-06T14:00:00	4	Temperatura máxima	14
129323	7	Sololá	701	Sololá	2	El tablón	1	Enero	2023-05-01T00:00:00	2024-11-06T14:00:00	3	Temperatura mínima	12.9
129324	7	Sololá	701	Sololá	2	El tablón	1	Enero	2023-05-01T00:00:00	2024-11-06T14:00:00	5	Humedad	80
129325	7	Sololá	701	Sololá	2	El tablón	1	Enero	2023-05-01T00:00:00	2024-11-06T14:00:00	6	Velocidad del viento	11.3
129326	7	Sololá	701	Sololá	2	El tablón	1	Enero	2023-05-01T00:00:00	2024-11-06T14:00:00	7	Dirección del viento	11.27
129327	7	Sololá	701	Sololá	2	El tablón	1	Enero	2023-05-01T00:00:00	2024-11-06T14:00:00	1	Precipitación	0
129328	7	Sololá	701	Sololá	2	El tablón	1	Enero	2023-05-01T00:00:00	2024-11-06T14:00:00	8	Radiación solar	296
129329	7	Sololá	701	Sololá	2	El tablón	1	Enero	2023-05-01T00:00:00	2024-11-06T15:00:00	2	Temperatura media	13.1
129330	7	Sololá	701	Sololá	2	El tablón	1	Enero	2023-05-01T00:00:00	2024-11-06T15:00:00	4	Temperatura máxima	13.2
129331	7	Sololá	701	Sololá	2	El tablón	1	Enero	2023-05-01T00:00:00	2024-11-06T15:00:00	3	Temperatura mínima	12.6
129332	7	Sololá	701	Sololá	2	El tablón	1	Enero	2023-05-01T00:00:00	2024-11-06T15:00:00	5	Humedad	74
129333	7	Sololá	701	Sololá	2	El tablón	1	Enero	2023-05-01T00:00:00	2024-11-06T15:00:00	6	Velocidad del viento	12.9
129334	7	Sololá	701	Sololá	2	El tablón	1	Enero	2023-05-01T00:00:00	2024-11-06T15:00:00	7	Dirección del viento	12.87
129335	7	Sololá	701	Sololá	2	El tablón	1	Enero	2023-05-01T00:00:00	2024-11-06T15:00:00	1	Precipitación	0
129336	7	Sololá	701	Sololá	2	El tablón	1	Enero	2023-05-01T00:00:00	2024-11-06T15:00:00	8	Radiación solar	305
129337	7	Sololá	701	Sololá	2	El tablón	1	Enero	2023-05-01T00:00:00	2024-11-06T16:00:00	2	Temperatura media	11.4
129338	7	Sololá	701	Sololá	2	El tablón	1	Enero	2023-05-01T00:00:00	2024-11-06T16:00:00	4	Temperatura máxima	13.3
129339	7	Sololá	701	Sololá	2	El tablón	1	Enero	2023-05-01T00:00:00	2024-11-06T16:00:00	3	Temperatura mínima	11.4
129340	7	Sololá	701	Sololá	2	El tablón	1	Enero	2023-05-01T00:00:00	2024-11-06T16:00:00	5	Humedad	86
129341	7	Sololá	701	Sololá	2	El tablón	1	Enero	2023-05-01T00:00:00	2024-11-06T16:00:00	6	Velocidad del viento	11.3
129342	7	Sololá	701	Sololá	2	El tablón	1	Enero	2023-05-01T00:00:00	2024-11-06T16:00:00	7	Dirección del viento	11.27
129343	7	Sololá	701	Sololá	2	El tablón	1	Enero	2023-05-01T00:00:00	2024-11-06T16:00:00	1	Precipitación	0
129344	7	Sololá	701	Sololá	2	El tablón	1	Enero	2023-05-01T00:00:00	2024-11-06T16:00:00	8	Radiación solar	249
129345	7	Sololá	701	Sololá	2	El tablón	1	Enero	2023-05-01T00:00:00	2024-11-06T17:00:00	2	Temperatura media	10.3
129346	7	Sololá	701	Sololá	2	El tablón	1	Enero	2023-05-01T00:00:00	2024-11-06T17:00:00	4	Temperatura máxima	11.4
129347	7	Sololá	701	Sololá	2	El tablón	1	Enero	2023-05-01T00:00:00	2024-11-06T17:00:00	3	Temperatura mínima	10.3
129348	7	Sololá	701	Sololá	2	El tablón	1	Enero	2023-05-01T00:00:00	2024-11-06T17:00:00	5	Humedad	89
129349	7	Sololá	701	Sololá	2	El tablón	1	Enero	2023-05-01T00:00:00	2024-11-06T17:00:00	6	Velocidad del viento	12.9
129350	7	Sololá	701	Sololá	2	El tablón	1	Enero	2023-05-01T00:00:00	2024-11-06T17:00:00	7	Dirección del viento	12.87
129351	7	Sololá	701	Sololá	2	El tablón	1	Enero	2023-05-01T00:00:00	2024-11-06T17:00:00	1	Precipitación	0.2
129352	7	Sololá	701	Sololá	2	El tablón	1	Enero	2023-05-01T00:00:00	2024-11-06T17:00:00	8	Radiación solar	69
129353	7	Sololá	701	Sololá	2	El tablón	1	Enero	2023-05-01T00:00:00	2024-11-06T18:00:00	2	Temperatura media	9.9
129354	7	Sololá	701	Sololá	2	El tablón	1	Enero	2023-05-01T00:00:00	2024-11-06T18:00:00	4	Temperatura máxima	10.2
129355	7	Sololá	701	Sololá	2	El tablón	1	Enero	2023-05-01T00:00:00	2024-11-06T18:00:00	3	Temperatura mínima	9.7
129356	7	Sololá	701	Sololá	2	El tablón	1	Enero	2023-05-01T00:00:00	2024-11-06T18:00:00	5	Humedad	88
129357	7	Sololá	701	Sololá	2	El tablón	1	Enero	2023-05-01T00:00:00	2024-11-06T18:00:00	6	Velocidad del viento	16.1
129358	7	Sololá	701	Sololá	2	El tablón	1	Enero	2023-05-01T00:00:00	2024-11-06T18:00:00	7	Dirección del viento	16.09
129359	7	Sololá	701	Sololá	2	El tablón	1	Enero	2023-05-01T00:00:00	2024-11-06T18:00:00	1	Precipitación	0.2
129360	7	Sololá	701	Sololá	2	El tablón	1	Enero	2023-05-01T00:00:00	2024-11-06T18:00:00	8	Radiación solar	20
129361	7	Sololá	701	Sololá	2	El tablón	1	Enero	2023-05-01T00:00:00	2024-11-06T19:00:00	2	Temperatura media	10
129362	7	Sololá	701	Sololá	2	El tablón	1	Enero	2023-05-01T00:00:00	2024-11-06T19:00:00	4	Temperatura máxima	10.1
129363	7	Sololá	701	Sololá	2	El tablón	1	Enero	2023-05-01T00:00:00	2024-11-06T19:00:00	3	Temperatura mínima	9.9
129364	7	Sololá	701	Sololá	2	El tablón	1	Enero	2023-05-01T00:00:00	2024-11-06T19:00:00	5	Humedad	89
129365	7	Sololá	701	Sololá	2	El tablón	1	Enero	2023-05-01T00:00:00	2024-11-06T19:00:00	6	Velocidad del viento	14.5
129366	7	Sololá	701	Sololá	2	El tablón	1	Enero	2023-05-01T00:00:00	2024-11-06T19:00:00	7	Dirección del viento	14.48
129367	7	Sololá	701	Sololá	2	El tablón	1	Enero	2023-05-01T00:00:00	2024-11-06T19:00:00	1	Precipitación	0
129368	7	Sololá	701	Sololá	2	El tablón	1	Enero	2023-05-01T00:00:00	2024-11-06T19:00:00	8	Radiación solar	0
129369	7	Sololá	701	Sololá	2	El tablón	1	Enero	2023-05-01T00:00:00	2024-11-06T20:00:00	2	Temperatura media	9.7
129370	7	Sololá	701	Sololá	2	El tablón	1	Enero	2023-05-01T00:00:00	2024-11-06T20:00:00	4	Temperatura máxima	10.2
129371	7	Sololá	701	Sololá	2	El tablón	1	Enero	2023-05-01T00:00:00	2024-11-06T20:00:00	3	Temperatura mínima	9.7
129372	7	Sololá	701	Sololá	2	El tablón	1	Enero	2023-05-01T00:00:00	2024-11-06T20:00:00	5	Humedad	89
129373	7	Sololá	701	Sololá	2	El tablón	1	Enero	2023-05-01T00:00:00	2024-11-06T20:00:00	6	Velocidad del viento	12.9
129374	7	Sololá	701	Sololá	2	El tablón	1	Enero	2023-05-01T00:00:00	2024-11-06T20:00:00	7	Dirección del viento	12.87
129375	7	Sololá	701	Sololá	2	El tablón	1	Enero	2023-05-01T00:00:00	2024-11-06T20:00:00	1	Precipitación	0
129376	7	Sololá	701	Sololá	2	El tablón	1	Enero	2023-05-01T00:00:00	2024-11-06T20:00:00	8	Radiación solar	0
129377	7	Sololá	701	Sololá	2	El tablón	1	Enero	2023-05-01T00:00:00	2024-11-06T21:00:00	2	Temperatura media	9.3
129378	7	Sololá	701	Sololá	2	El tablón	1	Enero	2023-05-01T00:00:00	2024-11-06T21:00:00	4	Temperatura máxima	9.7
129379	7	Sololá	701	Sololá	2	El tablón	1	Enero	2023-05-01T00:00:00	2024-11-06T21:00:00	3	Temperatura mínima	9.2
129380	7	Sololá	701	Sololá	2	El tablón	1	Enero	2023-05-01T00:00:00	2024-11-06T21:00:00	5	Humedad	88
129381	7	Sololá	701	Sololá	2	El tablón	1	Enero	2023-05-01T00:00:00	2024-11-06T21:00:00	6	Velocidad del viento	12.9
129382	7	Sololá	701	Sololá	2	El tablón	1	Enero	2023-05-01T00:00:00	2024-11-06T21:00:00	7	Dirección del viento	12.87
129383	7	Sololá	701	Sololá	2	El tablón	1	Enero	2023-05-01T00:00:00	2024-11-06T21:00:00	1	Precipitación	0
129384	7	Sololá	701	Sololá	2	El tablón	1	Enero	2023-05-01T00:00:00	2024-11-06T21:00:00	8	Radiación solar	0
129385	7	Sololá	701	Sololá	2	El tablón	1	Enero	2023-05-01T00:00:00	2024-11-06T22:00:00	2	Temperatura media	9.1
129386	7	Sololá	701	Sololá	2	El tablón	1	Enero	2023-05-01T00:00:00	2024-11-06T22:00:00	4	Temperatura máxima	9.3
129387	7	Sololá	701	Sololá	2	El tablón	1	Enero	2023-05-01T00:00:00	2024-11-06T22:00:00	3	Temperatura mínima	9.1
129388	7	Sololá	701	Sololá	2	El tablón	1	Enero	2023-05-01T00:00:00	2024-11-06T22:00:00	5	Humedad	87
129389	7	Sololá	701	Sololá	2	El tablón	1	Enero	2023-05-01T00:00:00	2024-11-06T22:00:00	6	Velocidad del viento	11.3
129390	7	Sololá	701	Sololá	2	El tablón	1	Enero	2023-05-01T00:00:00	2024-11-06T22:00:00	7	Dirección del viento	11.27
129391	7	Sololá	701	Sololá	2	El tablón	1	Enero	2023-05-01T00:00:00	2024-11-06T22:00:00	1	Precipitación	0
129392	7	Sololá	701	Sololá	2	El tablón	1	Enero	2023-05-01T00:00:00	2024-11-06T22:00:00	8	Radiación solar	0
129393	7	Sololá	701	Sololá	2	El tablón	1	Enero	2023-05-01T00:00:00	2024-11-06T23:00:00	2	Temperatura media	9
129394	7	Sololá	701	Sololá	2	El tablón	1	Enero	2023-05-01T00:00:00	2024-11-06T23:00:00	4	Temperatura máxima	9.1
129395	7	Sololá	701	Sololá	2	El tablón	1	Enero	2023-05-01T00:00:00	2024-11-06T23:00:00	3	Temperatura mínima	9
129396	7	Sololá	701	Sololá	2	El tablón	1	Enero	2023-05-01T00:00:00	2024-11-06T23:00:00	5	Humedad	82
129397	7	Sololá	701	Sololá	2	El tablón	1	Enero	2023-05-01T00:00:00	2024-11-06T23:00:00	6	Velocidad del viento	12.9
129398	7	Sololá	701	Sololá	2	El tablón	1	Enero	2023-05-01T00:00:00	2024-11-06T23:00:00	7	Dirección del viento	12.87
129399	7	Sololá	701	Sololá	2	El tablón	1	Enero	2023-05-01T00:00:00	2024-11-06T23:00:00	1	Precipitación	0
129400	7	Sololá	701	Sololá	2	El tablón	1	Enero	2023-05-01T00:00:00	2024-11-06T23:00:00	8	Radiación solar	0
129401	7	Sololá	701	Sololá	2	El tablón	1	Enero	2023-06-01T00:00:00	2024-11-06T00:00:00	2	Temperatura media	9
129402	7	Sololá	701	Sololá	2	El tablón	1	Enero	2023-06-01T00:00:00	2024-11-06T00:00:00	4	Temperatura máxima	9.1
129403	7	Sololá	701	Sololá	2	El tablón	1	Enero	2023-06-01T00:00:00	2024-11-06T00:00:00	3	Temperatura mínima	8.9
129404	7	Sololá	701	Sololá	2	El tablón	1	Enero	2023-06-01T00:00:00	2024-11-06T00:00:00	5	Humedad	79
129405	7	Sololá	701	Sololá	2	El tablón	1	Enero	2023-06-01T00:00:00	2024-11-06T00:00:00	6	Velocidad del viento	14.5
129406	7	Sololá	701	Sololá	2	El tablón	1	Enero	2023-06-01T00:00:00	2024-11-06T00:00:00	7	Dirección del viento	14.48
129407	7	Sololá	701	Sololá	2	El tablón	1	Enero	2023-06-01T00:00:00	2024-11-06T00:00:00	1	Precipitación	0
129408	7	Sololá	701	Sololá	2	El tablón	1	Enero	2023-06-01T00:00:00	2024-11-06T00:00:00	8	Radiación solar	0
129409	7	Sololá	701	Sololá	2	El tablón	1	Enero	2023-06-01T00:00:00	2024-11-06T01:00:00	2	Temperatura media	8.8
129410	7	Sololá	701	Sololá	2	El tablón	1	Enero	2023-06-01T00:00:00	2024-11-06T01:00:00	4	Temperatura máxima	9
129411	7	Sololá	701	Sololá	2	El tablón	1	Enero	2023-06-01T00:00:00	2024-11-06T01:00:00	3	Temperatura mínima	8.7
129412	7	Sololá	701	Sololá	2	El tablón	1	Enero	2023-06-01T00:00:00	2024-11-06T01:00:00	5	Humedad	75
129413	7	Sololá	701	Sololá	2	El tablón	1	Enero	2023-06-01T00:00:00	2024-11-06T01:00:00	6	Velocidad del viento	17.7
129414	7	Sololá	701	Sololá	2	El tablón	1	Enero	2023-06-01T00:00:00	2024-11-06T01:00:00	7	Dirección del viento	17.7
129415	7	Sololá	701	Sololá	2	El tablón	1	Enero	2023-06-01T00:00:00	2024-11-06T01:00:00	1	Precipitación	0
129416	7	Sololá	701	Sololá	2	El tablón	1	Enero	2023-06-01T00:00:00	2024-11-06T01:00:00	8	Radiación solar	0
129417	7	Sololá	701	Sololá	2	El tablón	1	Enero	2023-06-01T00:00:00	2024-11-06T02:00:00	2	Temperatura media	8.8
129418	7	Sololá	701	Sololá	2	El tablón	1	Enero	2023-06-01T00:00:00	2024-11-06T02:00:00	4	Temperatura máxima	8.9
129419	7	Sololá	701	Sololá	2	El tablón	1	Enero	2023-06-01T00:00:00	2024-11-06T02:00:00	3	Temperatura mínima	8.7
129420	7	Sololá	701	Sololá	2	El tablón	1	Enero	2023-06-01T00:00:00	2024-11-06T02:00:00	5	Humedad	70
129421	7	Sololá	701	Sololá	2	El tablón	1	Enero	2023-06-01T00:00:00	2024-11-06T02:00:00	6	Velocidad del viento	16.1
129422	7	Sololá	701	Sololá	2	El tablón	1	Enero	2023-06-01T00:00:00	2024-11-06T02:00:00	7	Dirección del viento	16.09
129423	7	Sololá	701	Sololá	2	El tablón	1	Enero	2023-06-01T00:00:00	2024-11-06T02:00:00	1	Precipitación	0
129424	7	Sololá	701	Sololá	2	El tablón	1	Enero	2023-06-01T00:00:00	2024-11-06T02:00:00	8	Radiación solar	0
129425	7	Sololá	701	Sololá	2	El tablón	1	Enero	2023-06-01T00:00:00	2024-11-06T03:00:00	2	Temperatura media	8.3
129426	7	Sololá	701	Sololá	2	El tablón	1	Enero	2023-06-01T00:00:00	2024-11-06T03:00:00	4	Temperatura máxima	8.8
129427	7	Sololá	701	Sololá	2	El tablón	1	Enero	2023-06-01T00:00:00	2024-11-06T03:00:00	3	Temperatura mínima	8.2
129428	7	Sololá	701	Sololá	2	El tablón	1	Enero	2023-06-01T00:00:00	2024-11-06T03:00:00	5	Humedad	76
129429	7	Sololá	701	Sololá	2	El tablón	1	Enero	2023-06-01T00:00:00	2024-11-06T03:00:00	6	Velocidad del viento	19.3
129430	7	Sololá	701	Sololá	2	El tablón	1	Enero	2023-06-01T00:00:00	2024-11-06T03:00:00	7	Dirección del viento	19.31
129431	7	Sololá	701	Sololá	2	El tablón	1	Enero	2023-06-01T00:00:00	2024-11-06T03:00:00	1	Precipitación	0
129432	7	Sololá	701	Sololá	2	El tablón	1	Enero	2023-06-01T00:00:00	2024-11-06T03:00:00	8	Radiación solar	0
129433	7	Sololá	701	Sololá	2	El tablón	1	Enero	2023-06-01T00:00:00	2024-11-06T04:00:00	2	Temperatura media	8.5
129434	7	Sololá	701	Sololá	2	El tablón	1	Enero	2023-06-01T00:00:00	2024-11-06T04:00:00	4	Temperatura máxima	8.6
129435	7	Sololá	701	Sololá	2	El tablón	1	Enero	2023-06-01T00:00:00	2024-11-06T04:00:00	3	Temperatura mínima	8.2
129436	7	Sololá	701	Sololá	2	El tablón	1	Enero	2023-06-01T00:00:00	2024-11-06T04:00:00	5	Humedad	69
129437	7	Sololá	701	Sololá	2	El tablón	1	Enero	2023-06-01T00:00:00	2024-11-06T04:00:00	6	Velocidad del viento	16.1
129438	7	Sololá	701	Sololá	2	El tablón	1	Enero	2023-06-01T00:00:00	2024-11-06T04:00:00	7	Dirección del viento	16.09
129439	7	Sololá	701	Sololá	2	El tablón	1	Enero	2023-06-01T00:00:00	2024-11-06T04:00:00	1	Precipitación	0
129440	7	Sololá	701	Sololá	2	El tablón	1	Enero	2023-06-01T00:00:00	2024-11-06T04:00:00	8	Radiación solar	0
129441	7	Sololá	701	Sololá	2	El tablón	1	Enero	2023-06-01T00:00:00	2024-11-06T05:00:00	2	Temperatura media	8.3
129442	7	Sololá	701	Sololá	2	El tablón	1	Enero	2023-06-01T00:00:00	2024-11-06T05:00:00	4	Temperatura máxima	8.6
129443	7	Sololá	701	Sololá	2	El tablón	1	Enero	2023-06-01T00:00:00	2024-11-06T05:00:00	3	Temperatura mínima	8.3
129444	7	Sololá	701	Sololá	2	El tablón	1	Enero	2023-06-01T00:00:00	2024-11-06T05:00:00	5	Humedad	71
129445	7	Sololá	701	Sololá	2	El tablón	1	Enero	2023-06-01T00:00:00	2024-11-06T05:00:00	6	Velocidad del viento	16.1
129446	7	Sololá	701	Sololá	2	El tablón	1	Enero	2023-06-01T00:00:00	2024-11-06T05:00:00	7	Dirección del viento	16.09
129447	7	Sololá	701	Sololá	2	El tablón	1	Enero	2023-06-01T00:00:00	2024-11-06T05:00:00	1	Precipitación	0
129448	7	Sololá	701	Sololá	2	El tablón	1	Enero	2023-06-01T00:00:00	2024-11-06T05:00:00	8	Radiación solar	0
129449	7	Sololá	701	Sololá	2	El tablón	1	Enero	2023-06-01T00:00:00	2024-11-06T06:00:00	2	Temperatura media	8.1
129450	7	Sololá	701	Sololá	2	El tablón	1	Enero	2023-06-01T00:00:00	2024-11-06T06:00:00	4	Temperatura máxima	8.3
129451	7	Sololá	701	Sololá	2	El tablón	1	Enero	2023-06-01T00:00:00	2024-11-06T06:00:00	3	Temperatura mínima	8
129452	7	Sololá	701	Sololá	2	El tablón	1	Enero	2023-06-01T00:00:00	2024-11-06T06:00:00	5	Humedad	73
129453	7	Sololá	701	Sololá	2	El tablón	1	Enero	2023-06-01T00:00:00	2024-11-06T06:00:00	6	Velocidad del viento	17.7
129454	7	Sololá	701	Sololá	2	El tablón	1	Enero	2023-06-01T00:00:00	2024-11-06T06:00:00	7	Dirección del viento	17.7
129455	7	Sololá	701	Sololá	2	El tablón	1	Enero	2023-06-01T00:00:00	2024-11-06T06:00:00	1	Precipitación	0
129456	7	Sololá	701	Sololá	2	El tablón	1	Enero	2023-06-01T00:00:00	2024-11-06T06:00:00	8	Radiación solar	0
129457	7	Sololá	701	Sololá	2	El tablón	1	Enero	2023-06-01T00:00:00	2024-11-06T07:00:00	2	Temperatura media	8.2
129458	7	Sololá	701	Sololá	2	El tablón	1	Enero	2023-06-01T00:00:00	2024-11-06T07:00:00	4	Temperatura máxima	8.2
129459	7	Sololá	701	Sololá	2	El tablón	1	Enero	2023-06-01T00:00:00	2024-11-06T07:00:00	3	Temperatura mínima	7.9
129460	7	Sololá	701	Sololá	2	El tablón	1	Enero	2023-06-01T00:00:00	2024-11-06T07:00:00	5	Humedad	75
129461	7	Sololá	701	Sololá	2	El tablón	1	Enero	2023-06-01T00:00:00	2024-11-06T07:00:00	6	Velocidad del viento	17.7
129462	7	Sololá	701	Sololá	2	El tablón	1	Enero	2023-06-01T00:00:00	2024-11-06T07:00:00	7	Dirección del viento	17.7
129463	7	Sololá	701	Sololá	2	El tablón	1	Enero	2023-06-01T00:00:00	2024-11-06T07:00:00	1	Precipitación	0
129464	7	Sololá	701	Sololá	2	El tablón	1	Enero	2023-06-01T00:00:00	2024-11-06T07:00:00	8	Radiación solar	5
129465	7	Sololá	701	Sololá	2	El tablón	1	Enero	2023-06-01T00:00:00	2024-11-06T08:00:00	2	Temperatura media	9.7
129466	7	Sololá	701	Sololá	2	El tablón	1	Enero	2023-06-01T00:00:00	2024-11-06T08:00:00	4	Temperatura máxima	9.7
129467	7	Sololá	701	Sololá	2	El tablón	1	Enero	2023-06-01T00:00:00	2024-11-06T08:00:00	3	Temperatura mínima	8.2
129468	7	Sololá	701	Sololá	2	El tablón	1	Enero	2023-06-01T00:00:00	2024-11-06T08:00:00	5	Humedad	70
129469	7	Sololá	701	Sololá	2	El tablón	1	Enero	2023-06-01T00:00:00	2024-11-06T08:00:00	6	Velocidad del viento	20.9
129470	7	Sololá	701	Sololá	2	El tablón	1	Enero	2023-06-01T00:00:00	2024-11-06T08:00:00	7	Dirección del viento	20.92
129471	7	Sololá	701	Sololá	2	El tablón	1	Enero	2023-06-01T00:00:00	2024-11-06T08:00:00	1	Precipitación	0
129472	7	Sololá	701	Sololá	2	El tablón	1	Enero	2023-06-01T00:00:00	2024-11-06T08:00:00	8	Radiación solar	130
129473	7	Sololá	701	Sololá	2	El tablón	1	Enero	2023-06-01T00:00:00	2024-11-06T09:00:00	2	Temperatura media	10.9
129474	7	Sololá	701	Sololá	2	El tablón	1	Enero	2023-06-01T00:00:00	2024-11-06T09:00:00	4	Temperatura máxima	10.9
129475	7	Sololá	701	Sololá	2	El tablón	1	Enero	2023-06-01T00:00:00	2024-11-06T09:00:00	3	Temperatura mínima	9.6
129476	7	Sololá	701	Sololá	2	El tablón	1	Enero	2023-06-01T00:00:00	2024-11-06T09:00:00	5	Humedad	68
129477	7	Sololá	701	Sololá	2	El tablón	1	Enero	2023-06-01T00:00:00	2024-11-06T09:00:00	6	Velocidad del viento	20.9
129478	7	Sololá	701	Sololá	2	El tablón	1	Enero	2023-06-01T00:00:00	2024-11-06T09:00:00	7	Dirección del viento	20.92
129479	7	Sololá	701	Sololá	2	El tablón	1	Enero	2023-06-01T00:00:00	2024-11-06T09:00:00	1	Precipitación	0
129480	7	Sololá	701	Sololá	2	El tablón	1	Enero	2023-06-01T00:00:00	2024-11-06T09:00:00	8	Radiación solar	341
129481	7	Sololá	701	Sololá	2	El tablón	1	Enero	2023-06-01T00:00:00	2024-11-06T10:00:00	2	Temperatura media	12.1
129482	7	Sololá	701	Sololá	2	El tablón	1	Enero	2023-06-01T00:00:00	2024-11-06T10:00:00	4	Temperatura máxima	12.1
129483	7	Sololá	701	Sololá	2	El tablón	1	Enero	2023-06-01T00:00:00	2024-11-06T10:00:00	3	Temperatura mínima	10.9
129484	7	Sololá	701	Sololá	2	El tablón	1	Enero	2023-06-01T00:00:00	2024-11-06T10:00:00	5	Humedad	71
129485	7	Sololá	701	Sololá	2	El tablón	1	Enero	2023-06-01T00:00:00	2024-11-06T10:00:00	6	Velocidad del viento	19.3
129486	7	Sololá	701	Sololá	2	El tablón	1	Enero	2023-06-01T00:00:00	2024-11-06T10:00:00	7	Dirección del viento	19.31
129487	7	Sololá	701	Sololá	2	El tablón	1	Enero	2023-06-01T00:00:00	2024-11-06T10:00:00	1	Precipitación	0
129488	7	Sololá	701	Sololá	2	El tablón	1	Enero	2023-06-01T00:00:00	2024-11-06T10:00:00	8	Radiación solar	528
129489	7	Sololá	701	Sololá	2	El tablón	1	Enero	2023-06-01T00:00:00	2024-11-06T11:00:00	2	Temperatura media	13.1
129490	7	Sololá	701	Sololá	2	El tablón	1	Enero	2023-06-01T00:00:00	2024-11-06T11:00:00	4	Temperatura máxima	13.3
129491	7	Sololá	701	Sololá	2	El tablón	1	Enero	2023-06-01T00:00:00	2024-11-06T11:00:00	3	Temperatura mínima	12.1
129492	7	Sololá	701	Sololá	2	El tablón	1	Enero	2023-06-01T00:00:00	2024-11-06T11:00:00	5	Humedad	73
129493	7	Sololá	701	Sololá	2	El tablón	1	Enero	2023-06-01T00:00:00	2024-11-06T11:00:00	6	Velocidad del viento	16.1
129494	7	Sololá	701	Sololá	2	El tablón	1	Enero	2023-06-01T00:00:00	2024-11-06T11:00:00	7	Dirección del viento	16.09
129495	7	Sololá	701	Sololá	2	El tablón	1	Enero	2023-06-01T00:00:00	2024-11-06T11:00:00	1	Precipitación	0
129496	7	Sololá	701	Sololá	2	El tablón	1	Enero	2023-06-01T00:00:00	2024-11-06T11:00:00	8	Radiación solar	667
129497	7	Sololá	701	Sololá	2	El tablón	1	Enero	2023-06-01T00:00:00	2024-11-06T12:00:00	2	Temperatura media	13.7
129498	7	Sololá	701	Sololá	2	El tablón	1	Enero	2023-06-01T00:00:00	2024-11-06T12:00:00	4	Temperatura máxima	13.9
129499	7	Sololá	701	Sololá	2	El tablón	1	Enero	2023-06-01T00:00:00	2024-11-06T12:00:00	3	Temperatura mínima	13.2
129500	7	Sololá	701	Sololá	2	El tablón	1	Enero	2023-06-01T00:00:00	2024-11-06T12:00:00	5	Humedad	70
129501	7	Sololá	701	Sololá	2	El tablón	1	Enero	2023-06-01T00:00:00	2024-11-06T12:00:00	6	Velocidad del viento	16.1
129502	7	Sololá	701	Sololá	2	El tablón	1	Enero	2023-06-01T00:00:00	2024-11-06T12:00:00	7	Dirección del viento	16.09
129503	7	Sololá	701	Sololá	2	El tablón	1	Enero	2023-06-01T00:00:00	2024-11-06T12:00:00	1	Precipitación	0
129504	7	Sololá	701	Sololá	2	El tablón	1	Enero	2023-06-01T00:00:00	2024-11-06T12:00:00	8	Radiación solar	643
129505	7	Sololá	701	Sololá	2	El tablón	1	Enero	2023-06-01T00:00:00	2024-11-06T13:00:00	2	Temperatura media	15.1
129506	7	Sololá	701	Sololá	2	El tablón	1	Enero	2023-06-01T00:00:00	2024-11-06T13:00:00	4	Temperatura máxima	15.1
129507	7	Sololá	701	Sololá	2	El tablón	1	Enero	2023-06-01T00:00:00	2024-11-06T13:00:00	3	Temperatura mínima	13.6
129508	7	Sololá	701	Sololá	2	El tablón	1	Enero	2023-06-01T00:00:00	2024-11-06T13:00:00	5	Humedad	65
129509	7	Sololá	701	Sololá	2	El tablón	1	Enero	2023-06-01T00:00:00	2024-11-06T13:00:00	6	Velocidad del viento	16.1
129510	7	Sololá	701	Sololá	2	El tablón	1	Enero	2023-06-01T00:00:00	2024-11-06T13:00:00	7	Dirección del viento	16.09
129511	7	Sololá	701	Sololá	2	El tablón	1	Enero	2023-06-01T00:00:00	2024-11-06T13:00:00	1	Precipitación	0
129512	7	Sololá	701	Sololá	2	El tablón	1	Enero	2023-06-01T00:00:00	2024-11-06T13:00:00	8	Radiación solar	725
129513	7	Sololá	701	Sololá	2	El tablón	1	Enero	2023-06-01T00:00:00	2024-11-06T14:00:00	2	Temperatura media	15.8
129514	7	Sololá	701	Sololá	2	El tablón	1	Enero	2023-06-01T00:00:00	2024-11-06T14:00:00	4	Temperatura máxima	16
129515	7	Sololá	701	Sololá	2	El tablón	1	Enero	2023-06-01T00:00:00	2024-11-06T14:00:00	3	Temperatura mínima	14.7
129516	7	Sololá	701	Sololá	2	El tablón	1	Enero	2023-06-01T00:00:00	2024-11-06T14:00:00	5	Humedad	61
129517	7	Sololá	701	Sololá	2	El tablón	1	Enero	2023-06-01T00:00:00	2024-11-06T14:00:00	6	Velocidad del viento	14.5
129518	7	Sololá	701	Sololá	2	El tablón	1	Enero	2023-06-01T00:00:00	2024-11-06T14:00:00	7	Dirección del viento	14.48
129519	7	Sololá	701	Sololá	2	El tablón	1	Enero	2023-06-01T00:00:00	2024-11-06T14:00:00	1	Precipitación	0
129520	7	Sololá	701	Sololá	2	El tablón	1	Enero	2023-06-01T00:00:00	2024-11-06T14:00:00	8	Radiación solar	720
129521	7	Sololá	701	Sololá	2	El tablón	1	Enero	2023-06-01T00:00:00	2024-11-06T15:00:00	2	Temperatura media	15.7
129522	7	Sololá	701	Sololá	2	El tablón	1	Enero	2023-06-01T00:00:00	2024-11-06T15:00:00	4	Temperatura máxima	15.8
129523	7	Sololá	701	Sololá	2	El tablón	1	Enero	2023-06-01T00:00:00	2024-11-06T15:00:00	3	Temperatura mínima	15.1
129524	7	Sololá	701	Sololá	2	El tablón	1	Enero	2023-06-01T00:00:00	2024-11-06T15:00:00	5	Humedad	63
129525	7	Sololá	701	Sololá	2	El tablón	1	Enero	2023-06-01T00:00:00	2024-11-06T15:00:00	6	Velocidad del viento	12.9
129526	7	Sololá	701	Sololá	2	El tablón	1	Enero	2023-06-01T00:00:00	2024-11-06T15:00:00	7	Dirección del viento	12.87
129527	7	Sololá	701	Sololá	2	El tablón	1	Enero	2023-06-01T00:00:00	2024-11-06T15:00:00	1	Precipitación	0
129528	7	Sololá	701	Sololá	2	El tablón	1	Enero	2023-06-01T00:00:00	2024-11-06T15:00:00	8	Radiación solar	606
129529	7	Sololá	701	Sololá	2	El tablón	1	Enero	2023-06-01T00:00:00	2024-11-06T16:00:00	2	Temperatura media	14.7
129530	7	Sololá	701	Sololá	2	El tablón	1	Enero	2023-06-01T00:00:00	2024-11-06T16:00:00	4	Temperatura máxima	16
129531	7	Sololá	701	Sololá	2	El tablón	1	Enero	2023-06-01T00:00:00	2024-11-06T16:00:00	3	Temperatura mínima	14.7
129532	7	Sololá	701	Sololá	2	El tablón	1	Enero	2023-06-01T00:00:00	2024-11-06T16:00:00	5	Humedad	70
129533	7	Sololá	701	Sololá	2	El tablón	1	Enero	2023-06-01T00:00:00	2024-11-06T16:00:00	6	Velocidad del viento	11.3
129534	7	Sololá	701	Sololá	2	El tablón	1	Enero	2023-06-01T00:00:00	2024-11-06T16:00:00	7	Dirección del viento	11.27
129535	7	Sololá	701	Sololá	2	El tablón	1	Enero	2023-06-01T00:00:00	2024-11-06T16:00:00	1	Precipitación	0
129536	7	Sololá	701	Sololá	2	El tablón	1	Enero	2023-06-01T00:00:00	2024-11-06T16:00:00	8	Radiación solar	442
129537	7	Sololá	701	Sololá	2	El tablón	1	Enero	2023-06-01T00:00:00	2024-11-06T17:00:00	2	Temperatura media	12.8
129538	7	Sololá	701	Sololá	2	El tablón	1	Enero	2023-06-01T00:00:00	2024-11-06T17:00:00	4	Temperatura máxima	14.8
129539	7	Sololá	701	Sololá	2	El tablón	1	Enero	2023-06-01T00:00:00	2024-11-06T17:00:00	3	Temperatura mínima	12.8
129540	7	Sololá	701	Sololá	2	El tablón	1	Enero	2023-06-01T00:00:00	2024-11-06T17:00:00	5	Humedad	77
129541	7	Sololá	701	Sololá	2	El tablón	1	Enero	2023-06-01T00:00:00	2024-11-06T17:00:00	6	Velocidad del viento	12.9
129542	7	Sololá	701	Sololá	2	El tablón	1	Enero	2023-06-01T00:00:00	2024-11-06T17:00:00	7	Dirección del viento	12.87
129543	7	Sololá	701	Sololá	2	El tablón	1	Enero	2023-06-01T00:00:00	2024-11-06T17:00:00	1	Precipitación	0
129544	7	Sololá	701	Sololá	2	El tablón	1	Enero	2023-06-01T00:00:00	2024-11-06T17:00:00	8	Radiación solar	243
129545	7	Sololá	701	Sololá	2	El tablón	1	Enero	2023-06-01T00:00:00	2024-11-06T18:00:00	2	Temperatura media	10.9
129546	7	Sololá	701	Sololá	2	El tablón	1	Enero	2023-06-01T00:00:00	2024-11-06T18:00:00	4	Temperatura máxima	12.8
129547	7	Sololá	701	Sololá	2	El tablón	1	Enero	2023-06-01T00:00:00	2024-11-06T18:00:00	3	Temperatura mínima	10.9
129548	7	Sololá	701	Sololá	2	El tablón	1	Enero	2023-06-01T00:00:00	2024-11-06T18:00:00	5	Humedad	82
129549	7	Sololá	701	Sololá	2	El tablón	1	Enero	2023-06-01T00:00:00	2024-11-06T18:00:00	6	Velocidad del viento	16.1
129550	7	Sololá	701	Sololá	2	El tablón	1	Enero	2023-06-01T00:00:00	2024-11-06T18:00:00	7	Dirección del viento	16.09
129551	7	Sololá	701	Sololá	2	El tablón	1	Enero	2023-06-01T00:00:00	2024-11-06T18:00:00	1	Precipitación	0
129552	7	Sololá	701	Sololá	2	El tablón	1	Enero	2023-06-01T00:00:00	2024-11-06T18:00:00	8	Radiación solar	28
129553	7	Sololá	701	Sololá	2	El tablón	1	Enero	2023-06-01T00:00:00	2024-11-06T19:00:00	2	Temperatura media	10.7
129554	7	Sololá	701	Sololá	2	El tablón	1	Enero	2023-06-01T00:00:00	2024-11-06T19:00:00	4	Temperatura máxima	10.9
129555	7	Sololá	701	Sololá	2	El tablón	1	Enero	2023-06-01T00:00:00	2024-11-06T19:00:00	3	Temperatura mínima	10.4
129556	7	Sololá	701	Sololá	2	El tablón	1	Enero	2023-06-01T00:00:00	2024-11-06T19:00:00	5	Humedad	83
129557	7	Sololá	701	Sololá	2	El tablón	1	Enero	2023-06-01T00:00:00	2024-11-06T19:00:00	6	Velocidad del viento	14.5
129558	7	Sololá	701	Sololá	2	El tablón	1	Enero	2023-06-01T00:00:00	2024-11-06T19:00:00	7	Dirección del viento	14.48
129559	7	Sololá	701	Sololá	2	El tablón	1	Enero	2023-06-01T00:00:00	2024-11-06T19:00:00	1	Precipitación	0
129560	7	Sololá	701	Sololá	2	El tablón	1	Enero	2023-06-01T00:00:00	2024-11-06T19:00:00	8	Radiación solar	0
129561	7	Sololá	701	Sololá	2	El tablón	1	Enero	2023-06-01T00:00:00	2024-11-06T20:00:00	2	Temperatura media	10.2
129562	7	Sololá	701	Sololá	2	El tablón	1	Enero	2023-06-01T00:00:00	2024-11-06T20:00:00	4	Temperatura máxima	10.7
129563	7	Sololá	701	Sololá	2	El tablón	1	Enero	2023-06-01T00:00:00	2024-11-06T20:00:00	3	Temperatura mínima	10.1
129564	7	Sololá	701	Sololá	2	El tablón	1	Enero	2023-06-01T00:00:00	2024-11-06T20:00:00	5	Humedad	85
129565	7	Sololá	701	Sololá	2	El tablón	1	Enero	2023-06-01T00:00:00	2024-11-06T20:00:00	6	Velocidad del viento	9.7
129566	7	Sololá	701	Sololá	2	El tablón	1	Enero	2023-06-01T00:00:00	2024-11-06T20:00:00	7	Dirección del viento	9.66
129567	7	Sololá	701	Sololá	2	El tablón	1	Enero	2023-06-01T00:00:00	2024-11-06T20:00:00	1	Precipitación	0
129568	7	Sololá	701	Sololá	2	El tablón	1	Enero	2023-06-01T00:00:00	2024-11-06T20:00:00	8	Radiación solar	0
129569	7	Sololá	701	Sololá	2	El tablón	1	Enero	2023-06-01T00:00:00	2024-11-06T21:00:00	2	Temperatura media	10.2
129570	7	Sololá	701	Sololá	2	El tablón	1	Enero	2023-06-01T00:00:00	2024-11-06T21:00:00	4	Temperatura máxima	10.2
129571	7	Sololá	701	Sololá	2	El tablón	1	Enero	2023-06-01T00:00:00	2024-11-06T21:00:00	3	Temperatura mínima	10.2
129572	7	Sololá	701	Sololá	2	El tablón	1	Enero	2023-06-01T00:00:00	2024-11-06T21:00:00	5	Humedad	85
129573	7	Sololá	701	Sololá	2	El tablón	1	Enero	2023-06-01T00:00:00	2024-11-06T21:00:00	6	Velocidad del viento	14.5
129574	7	Sololá	701	Sololá	2	El tablón	1	Enero	2023-06-01T00:00:00	2024-11-06T21:00:00	7	Dirección del viento	14.48
129575	7	Sololá	701	Sololá	2	El tablón	1	Enero	2023-06-01T00:00:00	2024-11-06T21:00:00	1	Precipitación	0
129576	7	Sololá	701	Sololá	2	El tablón	1	Enero	2023-06-01T00:00:00	2024-11-06T21:00:00	8	Radiación solar	0
129577	7	Sololá	701	Sololá	2	El tablón	1	Enero	2023-06-01T00:00:00	2024-11-06T22:00:00	2	Temperatura media	9.9
129578	7	Sololá	701	Sololá	2	El tablón	1	Enero	2023-06-01T00:00:00	2024-11-06T22:00:00	4	Temperatura máxima	10.2
129579	7	Sololá	701	Sololá	2	El tablón	1	Enero	2023-06-01T00:00:00	2024-11-06T22:00:00	3	Temperatura mínima	9.9
129580	7	Sololá	701	Sololá	2	El tablón	1	Enero	2023-06-01T00:00:00	2024-11-06T22:00:00	5	Humedad	87
129581	7	Sololá	701	Sololá	2	El tablón	1	Enero	2023-06-01T00:00:00	2024-11-06T22:00:00	6	Velocidad del viento	19.3
129582	7	Sololá	701	Sololá	2	El tablón	1	Enero	2023-06-01T00:00:00	2024-11-06T22:00:00	7	Dirección del viento	19.31
129583	7	Sololá	701	Sololá	2	El tablón	1	Enero	2023-06-01T00:00:00	2024-11-06T22:00:00	1	Precipitación	0
129584	7	Sololá	701	Sololá	2	El tablón	1	Enero	2023-06-01T00:00:00	2024-11-06T22:00:00	8	Radiación solar	0
129585	7	Sololá	701	Sololá	2	El tablón	1	Enero	2023-06-01T00:00:00	2024-11-06T23:00:00	2	Temperatura media	10.1
129586	7	Sololá	701	Sololá	2	El tablón	1	Enero	2023-06-01T00:00:00	2024-11-06T23:00:00	4	Temperatura máxima	10.2
129587	7	Sololá	701	Sololá	2	El tablón	1	Enero	2023-06-01T00:00:00	2024-11-06T23:00:00	3	Temperatura mínima	9.9
129588	7	Sololá	701	Sololá	2	El tablón	1	Enero	2023-06-01T00:00:00	2024-11-06T23:00:00	5	Humedad	87
129589	7	Sololá	701	Sololá	2	El tablón	1	Enero	2023-06-01T00:00:00	2024-11-06T23:00:00	6	Velocidad del viento	17.7
129590	7	Sololá	701	Sololá	2	El tablón	1	Enero	2023-06-01T00:00:00	2024-11-06T23:00:00	7	Dirección del viento	17.7
129591	7	Sololá	701	Sololá	2	El tablón	1	Enero	2023-06-01T00:00:00	2024-11-06T23:00:00	1	Precipitación	0
129592	7	Sololá	701	Sololá	2	El tablón	1	Enero	2023-06-01T00:00:00	2024-11-06T23:00:00	8	Radiación solar	0
129593	7	Sololá	701	Sololá	2	El tablón	1	Enero	2023-07-01T00:00:00	2024-11-06T00:00:00	2	Temperatura media	9.8
129594	7	Sololá	701	Sololá	2	El tablón	1	Enero	2023-07-01T00:00:00	2024-11-06T00:00:00	4	Temperatura máxima	10.1
129595	7	Sololá	701	Sololá	2	El tablón	1	Enero	2023-07-01T00:00:00	2024-11-06T00:00:00	3	Temperatura mínima	9.7
129596	7	Sololá	701	Sololá	2	El tablón	1	Enero	2023-07-01T00:00:00	2024-11-06T00:00:00	5	Humedad	88
129597	7	Sololá	701	Sololá	2	El tablón	1	Enero	2023-07-01T00:00:00	2024-11-06T00:00:00	6	Velocidad del viento	14.5
129598	7	Sololá	701	Sololá	2	El tablón	1	Enero	2023-07-01T00:00:00	2024-11-06T00:00:00	7	Dirección del viento	14.48
129599	7	Sololá	701	Sololá	2	El tablón	1	Enero	2023-07-01T00:00:00	2024-11-06T00:00:00	1	Precipitación	0
129600	7	Sololá	701	Sololá	2	El tablón	1	Enero	2023-07-01T00:00:00	2024-11-06T00:00:00	8	Radiación solar	0
129601	7	Sololá	701	Sololá	2	El tablón	1	Enero	2023-07-01T00:00:00	2024-11-06T01:00:00	2	Temperatura media	9.8
129602	7	Sololá	701	Sololá	2	El tablón	1	Enero	2023-07-01T00:00:00	2024-11-06T01:00:00	4	Temperatura máxima	10.2
129603	7	Sololá	701	Sololá	2	El tablón	1	Enero	2023-07-01T00:00:00	2024-11-06T01:00:00	3	Temperatura mínima	9.8
129604	7	Sololá	701	Sololá	2	El tablón	1	Enero	2023-07-01T00:00:00	2024-11-06T01:00:00	5	Humedad	88
129605	7	Sololá	701	Sololá	2	El tablón	1	Enero	2023-07-01T00:00:00	2024-11-06T01:00:00	6	Velocidad del viento	16.1
129606	7	Sololá	701	Sololá	2	El tablón	1	Enero	2023-07-01T00:00:00	2024-11-06T01:00:00	7	Dirección del viento	16.09
129607	7	Sololá	701	Sololá	2	El tablón	1	Enero	2023-07-01T00:00:00	2024-11-06T01:00:00	1	Precipitación	0
129608	7	Sololá	701	Sololá	2	El tablón	1	Enero	2023-07-01T00:00:00	2024-11-06T01:00:00	8	Radiación solar	0
129609	7	Sololá	701	Sololá	2	El tablón	1	Enero	2023-07-01T00:00:00	2024-11-06T02:00:00	2	Temperatura media	9.6
129610	7	Sololá	701	Sololá	2	El tablón	1	Enero	2023-07-01T00:00:00	2024-11-06T02:00:00	4	Temperatura máxima	9.9
129611	7	Sololá	701	Sololá	2	El tablón	1	Enero	2023-07-01T00:00:00	2024-11-06T02:00:00	3	Temperatura mínima	9.6
129612	7	Sololá	701	Sololá	2	El tablón	1	Enero	2023-07-01T00:00:00	2024-11-06T02:00:00	5	Humedad	89
129613	7	Sololá	701	Sololá	2	El tablón	1	Enero	2023-07-01T00:00:00	2024-11-06T02:00:00	6	Velocidad del viento	12.9
129614	7	Sololá	701	Sololá	2	El tablón	1	Enero	2023-07-01T00:00:00	2024-11-06T02:00:00	7	Dirección del viento	12.87
129615	7	Sololá	701	Sololá	2	El tablón	1	Enero	2023-07-01T00:00:00	2024-11-06T02:00:00	1	Precipitación	0
129616	7	Sololá	701	Sololá	2	El tablón	1	Enero	2023-07-01T00:00:00	2024-11-06T02:00:00	8	Radiación solar	0
129617	7	Sololá	701	Sololá	2	El tablón	1	Enero	2023-07-01T00:00:00	2024-11-06T03:00:00	2	Temperatura media	9.9
129618	7	Sololá	701	Sololá	2	El tablón	1	Enero	2023-07-01T00:00:00	2024-11-06T03:00:00	4	Temperatura máxima	10.1
129619	7	Sololá	701	Sololá	2	El tablón	1	Enero	2023-07-01T00:00:00	2024-11-06T03:00:00	3	Temperatura mínima	9.6
129620	7	Sololá	701	Sololá	2	El tablón	1	Enero	2023-07-01T00:00:00	2024-11-06T03:00:00	5	Humedad	88
129621	7	Sololá	701	Sololá	2	El tablón	1	Enero	2023-07-01T00:00:00	2024-11-06T03:00:00	6	Velocidad del viento	16.1
129622	7	Sololá	701	Sololá	2	El tablón	1	Enero	2023-07-01T00:00:00	2024-11-06T03:00:00	7	Dirección del viento	16.09
129623	7	Sololá	701	Sololá	2	El tablón	1	Enero	2023-07-01T00:00:00	2024-11-06T03:00:00	1	Precipitación	0
129624	7	Sololá	701	Sololá	2	El tablón	1	Enero	2023-07-01T00:00:00	2024-11-06T03:00:00	8	Radiación solar	0
129625	7	Sololá	701	Sololá	2	El tablón	1	Enero	2023-07-01T00:00:00	2024-11-06T04:00:00	2	Temperatura media	9.7
129626	7	Sololá	701	Sololá	2	El tablón	1	Enero	2023-07-01T00:00:00	2024-11-06T04:00:00	4	Temperatura máxima	10.1
129627	7	Sololá	701	Sololá	2	El tablón	1	Enero	2023-07-01T00:00:00	2024-11-06T04:00:00	3	Temperatura mínima	9.7
129628	7	Sololá	701	Sololá	2	El tablón	1	Enero	2023-07-01T00:00:00	2024-11-06T04:00:00	5	Humedad	89
129629	7	Sololá	701	Sololá	2	El tablón	1	Enero	2023-07-01T00:00:00	2024-11-06T04:00:00	6	Velocidad del viento	14.5
129630	7	Sololá	701	Sololá	2	El tablón	1	Enero	2023-07-01T00:00:00	2024-11-06T04:00:00	7	Dirección del viento	14.48
129631	7	Sololá	701	Sololá	2	El tablón	1	Enero	2023-07-01T00:00:00	2024-11-06T04:00:00	1	Precipitación	0
129632	7	Sololá	701	Sololá	2	El tablón	1	Enero	2023-07-01T00:00:00	2024-11-06T04:00:00	8	Radiación solar	0
129633	7	Sololá	701	Sololá	2	El tablón	1	Enero	2023-07-01T00:00:00	2024-11-06T05:00:00	2	Temperatura media	9.7
129634	7	Sololá	701	Sololá	2	El tablón	1	Enero	2023-07-01T00:00:00	2024-11-06T05:00:00	4	Temperatura máxima	9.8
129635	7	Sololá	701	Sololá	2	El tablón	1	Enero	2023-07-01T00:00:00	2024-11-06T05:00:00	3	Temperatura mínima	9.7
129636	7	Sololá	701	Sololá	2	El tablón	1	Enero	2023-07-01T00:00:00	2024-11-06T05:00:00	5	Humedad	88
129637	7	Sololá	701	Sololá	2	El tablón	1	Enero	2023-07-01T00:00:00	2024-11-06T05:00:00	6	Velocidad del viento	12.9
129638	7	Sololá	701	Sololá	2	El tablón	1	Enero	2023-07-01T00:00:00	2024-11-06T05:00:00	7	Dirección del viento	12.87
129639	7	Sololá	701	Sololá	2	El tablón	1	Enero	2023-07-01T00:00:00	2024-11-06T05:00:00	1	Precipitación	0
129640	7	Sololá	701	Sololá	2	El tablón	1	Enero	2023-07-01T00:00:00	2024-11-06T05:00:00	8	Radiación solar	0
129641	7	Sololá	701	Sololá	2	El tablón	1	Enero	2023-07-01T00:00:00	2024-11-06T06:00:00	2	Temperatura media	9.7
129642	7	Sololá	701	Sololá	2	El tablón	1	Enero	2023-07-01T00:00:00	2024-11-06T06:00:00	4	Temperatura máxima	9.8
129643	7	Sololá	701	Sololá	2	El tablón	1	Enero	2023-07-01T00:00:00	2024-11-06T06:00:00	3	Temperatura mínima	9.6
129644	7	Sololá	701	Sololá	2	El tablón	1	Enero	2023-07-01T00:00:00	2024-11-06T06:00:00	5	Humedad	87
129645	7	Sololá	701	Sololá	2	El tablón	1	Enero	2023-07-01T00:00:00	2024-11-06T06:00:00	6	Velocidad del viento	11.3
129646	7	Sololá	701	Sololá	2	El tablón	1	Enero	2023-07-01T00:00:00	2024-11-06T06:00:00	7	Dirección del viento	11.27
129647	7	Sololá	701	Sololá	2	El tablón	1	Enero	2023-07-01T00:00:00	2024-11-06T06:00:00	1	Precipitación	0
129648	7	Sololá	701	Sololá	2	El tablón	1	Enero	2023-07-01T00:00:00	2024-11-06T06:00:00	8	Radiación solar	0
129649	7	Sololá	701	Sololá	2	El tablón	1	Enero	2023-07-01T00:00:00	2024-11-06T07:00:00	2	Temperatura media	10.1
129650	7	Sololá	701	Sololá	2	El tablón	1	Enero	2023-07-01T00:00:00	2024-11-06T07:00:00	4	Temperatura máxima	10.1
129651	7	Sololá	701	Sololá	2	El tablón	1	Enero	2023-07-01T00:00:00	2024-11-06T07:00:00	3	Temperatura mínima	9.6
129652	7	Sololá	701	Sololá	2	El tablón	1	Enero	2023-07-01T00:00:00	2024-11-06T07:00:00	5	Humedad	86
129653	7	Sololá	701	Sololá	2	El tablón	1	Enero	2023-07-01T00:00:00	2024-11-06T07:00:00	6	Velocidad del viento	8
129654	7	Sololá	701	Sololá	2	El tablón	1	Enero	2023-07-01T00:00:00	2024-11-06T07:00:00	7	Dirección del viento	8.05
129655	7	Sololá	701	Sololá	2	El tablón	1	Enero	2023-07-01T00:00:00	2024-11-06T07:00:00	1	Precipitación	0
129656	7	Sololá	701	Sololá	2	El tablón	1	Enero	2023-07-01T00:00:00	2024-11-06T07:00:00	8	Radiación solar	7
129657	7	Sololá	701	Sololá	2	El tablón	1	Enero	2023-07-01T00:00:00	2024-11-06T08:00:00	2	Temperatura media	11.3
129658	7	Sololá	701	Sololá	2	El tablón	1	Enero	2023-07-01T00:00:00	2024-11-06T08:00:00	4	Temperatura máxima	11.3
129659	7	Sololá	701	Sololá	2	El tablón	1	Enero	2023-07-01T00:00:00	2024-11-06T08:00:00	3	Temperatura mínima	10.1
129660	7	Sololá	701	Sololá	2	El tablón	1	Enero	2023-07-01T00:00:00	2024-11-06T08:00:00	5	Humedad	82
129661	7	Sololá	701	Sololá	2	El tablón	1	Enero	2023-07-01T00:00:00	2024-11-06T08:00:00	6	Velocidad del viento	6.4
129662	7	Sololá	701	Sololá	2	El tablón	1	Enero	2023-07-01T00:00:00	2024-11-06T08:00:00	7	Dirección del viento	6.44
129663	7	Sololá	701	Sololá	2	El tablón	1	Enero	2023-07-01T00:00:00	2024-11-06T08:00:00	1	Precipitación	0
129664	7	Sololá	701	Sololá	2	El tablón	1	Enero	2023-07-01T00:00:00	2024-11-06T08:00:00	8	Radiación solar	134
129665	7	Sololá	701	Sololá	2	El tablón	1	Enero	2023-07-01T00:00:00	2024-11-06T09:00:00	2	Temperatura media	13
129666	7	Sololá	701	Sololá	2	El tablón	1	Enero	2023-07-01T00:00:00	2024-11-06T09:00:00	4	Temperatura máxima	13
129667	7	Sololá	701	Sololá	2	El tablón	1	Enero	2023-07-01T00:00:00	2024-11-06T09:00:00	3	Temperatura mínima	11.3
129668	7	Sololá	701	Sololá	2	El tablón	1	Enero	2023-07-01T00:00:00	2024-11-06T09:00:00	5	Humedad	70
129669	7	Sololá	701	Sololá	2	El tablón	1	Enero	2023-07-01T00:00:00	2024-11-06T09:00:00	6	Velocidad del viento	12.9
129670	7	Sololá	701	Sololá	2	El tablón	1	Enero	2023-07-01T00:00:00	2024-11-06T09:00:00	7	Dirección del viento	12.87
129671	7	Sololá	701	Sololá	2	El tablón	1	Enero	2023-07-01T00:00:00	2024-11-06T09:00:00	1	Precipitación	0
129672	7	Sololá	701	Sololá	2	El tablón	1	Enero	2023-07-01T00:00:00	2024-11-06T09:00:00	8	Radiación solar	318
129673	7	Sololá	701	Sololá	2	El tablón	1	Enero	2023-07-01T00:00:00	2024-11-06T10:00:00	2	Temperatura media	13.2
129674	7	Sololá	701	Sololá	2	El tablón	1	Enero	2023-07-01T00:00:00	2024-11-06T10:00:00	4	Temperatura máxima	13.8
129675	7	Sololá	701	Sololá	2	El tablón	1	Enero	2023-07-01T00:00:00	2024-11-06T10:00:00	3	Temperatura mínima	13
129676	7	Sololá	701	Sololá	2	El tablón	1	Enero	2023-07-01T00:00:00	2024-11-06T10:00:00	5	Humedad	72
129677	7	Sololá	701	Sololá	2	El tablón	1	Enero	2023-07-01T00:00:00	2024-11-06T10:00:00	6	Velocidad del viento	14.5
129678	7	Sololá	701	Sololá	2	El tablón	1	Enero	2023-07-01T00:00:00	2024-11-06T10:00:00	7	Dirección del viento	14.48
129679	7	Sololá	701	Sololá	2	El tablón	1	Enero	2023-07-01T00:00:00	2024-11-06T10:00:00	1	Precipitación	0
129680	7	Sololá	701	Sololá	2	El tablón	1	Enero	2023-07-01T00:00:00	2024-11-06T10:00:00	8	Radiación solar	494
129681	7	Sololá	701	Sololá	2	El tablón	1	Enero	2023-07-01T00:00:00	2024-11-06T11:00:00	2	Temperatura media	14.3
129682	7	Sololá	701	Sololá	2	El tablón	1	Enero	2023-07-01T00:00:00	2024-11-06T11:00:00	4	Temperatura máxima	14.9
129683	7	Sololá	701	Sololá	2	El tablón	1	Enero	2023-07-01T00:00:00	2024-11-06T11:00:00	3	Temperatura mínima	13.3
129684	7	Sololá	701	Sololá	2	El tablón	1	Enero	2023-07-01T00:00:00	2024-11-06T11:00:00	5	Humedad	71
129685	7	Sololá	701	Sololá	2	El tablón	1	Enero	2023-07-01T00:00:00	2024-11-06T11:00:00	6	Velocidad del viento	12.9
129686	7	Sololá	701	Sololá	2	El tablón	1	Enero	2023-07-01T00:00:00	2024-11-06T11:00:00	7	Dirección del viento	12.87
129687	7	Sololá	701	Sololá	2	El tablón	1	Enero	2023-07-01T00:00:00	2024-11-06T11:00:00	1	Precipitación	0
129688	7	Sololá	701	Sololá	2	El tablón	1	Enero	2023-07-01T00:00:00	2024-11-06T11:00:00	8	Radiación solar	593
129689	7	Sololá	701	Sololá	2	El tablón	1	Enero	2023-07-01T00:00:00	2024-11-06T12:00:00	2	Temperatura media	14.5
129690	7	Sololá	701	Sololá	2	El tablón	1	Enero	2023-07-01T00:00:00	2024-11-06T12:00:00	4	Temperatura máxima	14.9
129691	7	Sololá	701	Sololá	2	El tablón	1	Enero	2023-07-01T00:00:00	2024-11-06T12:00:00	3	Temperatura mínima	13.9
129692	7	Sololá	701	Sololá	2	El tablón	1	Enero	2023-07-01T00:00:00	2024-11-06T12:00:00	5	Humedad	70
129693	7	Sololá	701	Sololá	2	El tablón	1	Enero	2023-07-01T00:00:00	2024-11-06T12:00:00	6	Velocidad del viento	12.9
129694	7	Sololá	701	Sololá	2	El tablón	1	Enero	2023-07-01T00:00:00	2024-11-06T12:00:00	7	Dirección del viento	12.87
129695	7	Sololá	701	Sololá	2	El tablón	1	Enero	2023-07-01T00:00:00	2024-11-06T12:00:00	1	Precipitación	0
129696	7	Sololá	701	Sololá	2	El tablón	1	Enero	2023-07-01T00:00:00	2024-11-06T12:00:00	8	Radiación solar	419
129697	7	Sololá	701	Sololá	2	El tablón	1	Enero	2023-07-01T00:00:00	2024-11-06T13:00:00	2	Temperatura media	14.9
129698	7	Sololá	701	Sololá	2	El tablón	1	Enero	2023-07-01T00:00:00	2024-11-06T13:00:00	4	Temperatura máxima	15.7
129699	7	Sololá	701	Sololá	2	El tablón	1	Enero	2023-07-01T00:00:00	2024-11-06T13:00:00	3	Temperatura mínima	14.3
129700	7	Sololá	701	Sololá	2	El tablón	1	Enero	2023-07-01T00:00:00	2024-11-06T13:00:00	5	Humedad	70
129701	7	Sololá	701	Sololá	2	El tablón	1	Enero	2023-07-01T00:00:00	2024-11-06T13:00:00	6	Velocidad del viento	9.7
129702	7	Sololá	701	Sololá	2	El tablón	1	Enero	2023-07-01T00:00:00	2024-11-06T13:00:00	7	Dirección del viento	9.66
129703	7	Sololá	701	Sololá	2	El tablón	1	Enero	2023-07-01T00:00:00	2024-11-06T13:00:00	1	Precipitación	0
129704	7	Sololá	701	Sololá	2	El tablón	1	Enero	2023-07-01T00:00:00	2024-11-06T13:00:00	8	Radiación solar	494
129705	7	Sololá	701	Sololá	2	El tablón	1	Enero	2023-07-01T00:00:00	2024-11-06T14:00:00	2	Temperatura media	14.6
129706	7	Sololá	701	Sololá	2	El tablón	1	Enero	2023-07-01T00:00:00	2024-11-06T14:00:00	4	Temperatura máxima	15
129707	7	Sololá	701	Sololá	2	El tablón	1	Enero	2023-07-01T00:00:00	2024-11-06T14:00:00	3	Temperatura mínima	14.1
129708	7	Sololá	701	Sololá	2	El tablón	1	Enero	2023-07-01T00:00:00	2024-11-06T14:00:00	5	Humedad	73
129709	7	Sololá	701	Sololá	2	El tablón	1	Enero	2023-07-01T00:00:00	2024-11-06T14:00:00	6	Velocidad del viento	9.7
129710	7	Sololá	701	Sololá	2	El tablón	1	Enero	2023-07-01T00:00:00	2024-11-06T14:00:00	7	Dirección del viento	9.66
129711	7	Sololá	701	Sololá	2	El tablón	1	Enero	2023-07-01T00:00:00	2024-11-06T14:00:00	1	Precipitación	0
129712	7	Sololá	701	Sololá	2	El tablón	1	Enero	2023-07-01T00:00:00	2024-11-06T14:00:00	8	Radiación solar	316
129713	7	Sololá	701	Sololá	2	El tablón	1	Enero	2023-07-01T00:00:00	2024-11-06T15:00:00	2	Temperatura media	13.4
129714	7	Sololá	701	Sololá	2	El tablón	1	Enero	2023-07-01T00:00:00	2024-11-06T15:00:00	4	Temperatura máxima	14.8
129715	7	Sololá	701	Sololá	2	El tablón	1	Enero	2023-07-01T00:00:00	2024-11-06T15:00:00	3	Temperatura mínima	13.2
129716	7	Sololá	701	Sololá	2	El tablón	1	Enero	2023-07-01T00:00:00	2024-11-06T15:00:00	5	Humedad	78
129717	7	Sololá	701	Sololá	2	El tablón	1	Enero	2023-07-01T00:00:00	2024-11-06T15:00:00	6	Velocidad del viento	8
129718	7	Sololá	701	Sololá	2	El tablón	1	Enero	2023-07-01T00:00:00	2024-11-06T15:00:00	7	Dirección del viento	8.05
129719	7	Sololá	701	Sololá	2	El tablón	1	Enero	2023-07-01T00:00:00	2024-11-06T15:00:00	1	Precipitación	0
129720	7	Sololá	701	Sololá	2	El tablón	1	Enero	2023-07-01T00:00:00	2024-11-06T15:00:00	8	Radiación solar	244
129721	7	Sololá	701	Sololá	2	El tablón	1	Enero	2023-07-01T00:00:00	2024-11-06T16:00:00	2	Temperatura media	14.4
129722	7	Sololá	701	Sololá	2	El tablón	1	Enero	2023-07-01T00:00:00	2024-11-06T16:00:00	4	Temperatura máxima	14.7
129723	7	Sololá	701	Sololá	2	El tablón	1	Enero	2023-07-01T00:00:00	2024-11-06T16:00:00	3	Temperatura mínima	13.4
129724	7	Sololá	701	Sololá	2	El tablón	1	Enero	2023-07-01T00:00:00	2024-11-06T16:00:00	5	Humedad	73
129725	7	Sololá	701	Sololá	2	El tablón	1	Enero	2023-07-01T00:00:00	2024-11-06T16:00:00	6	Velocidad del viento	12.9
129726	7	Sololá	701	Sololá	2	El tablón	1	Enero	2023-07-01T00:00:00	2024-11-06T16:00:00	7	Dirección del viento	12.87
129727	7	Sololá	701	Sololá	2	El tablón	1	Enero	2023-07-01T00:00:00	2024-11-06T16:00:00	1	Precipitación	0
129728	7	Sololá	701	Sololá	2	El tablón	1	Enero	2023-07-01T00:00:00	2024-11-06T16:00:00	8	Radiación solar	413
129729	7	Sololá	701	Sololá	2	El tablón	1	Enero	2023-07-01T00:00:00	2024-11-06T17:00:00	2	Temperatura media	12.8
129730	7	Sololá	701	Sololá	2	El tablón	1	Enero	2023-07-01T00:00:00	2024-11-06T17:00:00	4	Temperatura máxima	14.5
129731	7	Sololá	701	Sololá	2	El tablón	1	Enero	2023-07-01T00:00:00	2024-11-06T17:00:00	3	Temperatura mínima	12.5
129732	7	Sololá	701	Sololá	2	El tablón	1	Enero	2023-07-01T00:00:00	2024-11-06T17:00:00	5	Humedad	78
129733	7	Sololá	701	Sololá	2	El tablón	1	Enero	2023-07-01T00:00:00	2024-11-06T17:00:00	6	Velocidad del viento	12.9
129734	7	Sololá	701	Sololá	2	El tablón	1	Enero	2023-07-01T00:00:00	2024-11-06T17:00:00	7	Dirección del viento	12.87
129735	7	Sololá	701	Sololá	2	El tablón	1	Enero	2023-07-01T00:00:00	2024-11-06T17:00:00	1	Precipitación	0
129736	7	Sololá	701	Sololá	2	El tablón	1	Enero	2023-07-01T00:00:00	2024-11-06T17:00:00	8	Radiación solar	202
129737	7	Sololá	701	Sololá	2	El tablón	1	Enero	2023-07-01T00:00:00	2024-11-06T18:00:00	2	Temperatura media	12.1
129738	7	Sololá	701	Sololá	2	El tablón	1	Enero	2023-07-01T00:00:00	2024-11-06T18:00:00	4	Temperatura máxima	12.9
129739	7	Sololá	701	Sololá	2	El tablón	1	Enero	2023-07-01T00:00:00	2024-11-06T18:00:00	3	Temperatura mínima	12.1
129740	7	Sololá	701	Sololá	2	El tablón	1	Enero	2023-07-01T00:00:00	2024-11-06T18:00:00	5	Humedad	82
129741	7	Sololá	701	Sololá	2	El tablón	1	Enero	2023-07-01T00:00:00	2024-11-06T18:00:00	6	Velocidad del viento	11.3
129742	7	Sololá	701	Sololá	2	El tablón	1	Enero	2023-07-01T00:00:00	2024-11-06T18:00:00	7	Dirección del viento	11.27
129743	7	Sololá	701	Sololá	2	El tablón	1	Enero	2023-07-01T00:00:00	2024-11-06T18:00:00	1	Precipitación	0
129744	7	Sololá	701	Sololá	2	El tablón	1	Enero	2023-07-01T00:00:00	2024-11-06T18:00:00	8	Radiación solar	38
129745	7	Sololá	701	Sololá	2	El tablón	1	Enero	2023-07-01T00:00:00	2024-11-06T19:00:00	2	Temperatura media	11.5
129746	7	Sololá	701	Sololá	2	El tablón	1	Enero	2023-07-01T00:00:00	2024-11-06T19:00:00	4	Temperatura máxima	12.1
129747	7	Sololá	701	Sololá	2	El tablón	1	Enero	2023-07-01T00:00:00	2024-11-06T19:00:00	3	Temperatura mínima	11.4
129748	7	Sololá	701	Sololá	2	El tablón	1	Enero	2023-07-01T00:00:00	2024-11-06T19:00:00	5	Humedad	85
129749	7	Sololá	701	Sololá	2	El tablón	1	Enero	2023-07-01T00:00:00	2024-11-06T19:00:00	6	Velocidad del viento	8
129750	7	Sololá	701	Sololá	2	El tablón	1	Enero	2023-07-01T00:00:00	2024-11-06T19:00:00	7	Dirección del viento	8.05
129751	7	Sololá	701	Sololá	2	El tablón	1	Enero	2023-07-01T00:00:00	2024-11-06T19:00:00	1	Precipitación	0
129752	7	Sololá	701	Sololá	2	El tablón	1	Enero	2023-07-01T00:00:00	2024-11-06T19:00:00	8	Radiación solar	0
129753	7	Sololá	701	Sololá	2	El tablón	1	Enero	2023-07-01T00:00:00	2024-11-06T20:00:00	2	Temperatura media	11.1
129754	7	Sololá	701	Sololá	2	El tablón	1	Enero	2023-07-01T00:00:00	2024-11-06T20:00:00	4	Temperatura máxima	11.5
129755	7	Sololá	701	Sololá	2	El tablón	1	Enero	2023-07-01T00:00:00	2024-11-06T20:00:00	3	Temperatura mínima	11.1
129756	7	Sololá	701	Sololá	2	El tablón	1	Enero	2023-07-01T00:00:00	2024-11-06T20:00:00	5	Humedad	85
129757	7	Sololá	701	Sololá	2	El tablón	1	Enero	2023-07-01T00:00:00	2024-11-06T20:00:00	6	Velocidad del viento	9.7
129758	7	Sololá	701	Sololá	2	El tablón	1	Enero	2023-07-01T00:00:00	2024-11-06T20:00:00	7	Dirección del viento	9.66
129759	7	Sololá	701	Sololá	2	El tablón	1	Enero	2023-07-01T00:00:00	2024-11-06T20:00:00	1	Precipitación	0
129760	7	Sololá	701	Sololá	2	El tablón	1	Enero	2023-07-01T00:00:00	2024-11-06T20:00:00	8	Radiación solar	0
129761	7	Sololá	701	Sololá	2	El tablón	1	Enero	2023-07-01T00:00:00	2024-11-06T21:00:00	2	Temperatura media	10.7
129762	7	Sololá	701	Sololá	2	El tablón	1	Enero	2023-07-01T00:00:00	2024-11-06T21:00:00	4	Temperatura máxima	11.1
129763	7	Sololá	701	Sololá	2	El tablón	1	Enero	2023-07-01T00:00:00	2024-11-06T21:00:00	3	Temperatura mínima	10.5
129764	7	Sololá	701	Sololá	2	El tablón	1	Enero	2023-07-01T00:00:00	2024-11-06T21:00:00	5	Humedad	86
129765	7	Sololá	701	Sololá	2	El tablón	1	Enero	2023-07-01T00:00:00	2024-11-06T21:00:00	6	Velocidad del viento	8
129766	7	Sololá	701	Sololá	2	El tablón	1	Enero	2023-07-01T00:00:00	2024-11-06T21:00:00	7	Dirección del viento	8.05
129767	7	Sololá	701	Sololá	2	El tablón	1	Enero	2023-07-01T00:00:00	2024-11-06T21:00:00	1	Precipitación	0
129768	7	Sololá	701	Sololá	2	El tablón	1	Enero	2023-07-01T00:00:00	2024-11-06T21:00:00	8	Radiación solar	0
129769	7	Sololá	701	Sololá	2	El tablón	1	Enero	2023-07-01T00:00:00	2024-11-06T22:00:00	2	Temperatura media	10.4
129770	7	Sololá	701	Sololá	2	El tablón	1	Enero	2023-07-01T00:00:00	2024-11-06T22:00:00	4	Temperatura máxima	10.8
129771	7	Sololá	701	Sololá	2	El tablón	1	Enero	2023-07-01T00:00:00	2024-11-06T22:00:00	3	Temperatura mínima	10.4
129772	7	Sololá	701	Sololá	2	El tablón	1	Enero	2023-07-01T00:00:00	2024-11-06T22:00:00	5	Humedad	86
129773	7	Sololá	701	Sololá	2	El tablón	1	Enero	2023-07-01T00:00:00	2024-11-06T22:00:00	6	Velocidad del viento	8
129774	7	Sololá	701	Sololá	2	El tablón	1	Enero	2023-07-01T00:00:00	2024-11-06T22:00:00	7	Dirección del viento	8.05
129775	7	Sololá	701	Sololá	2	El tablón	1	Enero	2023-07-01T00:00:00	2024-11-06T22:00:00	1	Precipitación	0
129776	7	Sololá	701	Sololá	2	El tablón	1	Enero	2023-07-01T00:00:00	2024-11-06T22:00:00	8	Radiación solar	0
129777	7	Sololá	701	Sololá	2	El tablón	1	Enero	2023-07-01T00:00:00	2024-11-06T23:00:00	2	Temperatura media	10.7
129778	7	Sololá	701	Sololá	2	El tablón	1	Enero	2023-07-01T00:00:00	2024-11-06T23:00:00	4	Temperatura máxima	10.7
129779	7	Sololá	701	Sololá	2	El tablón	1	Enero	2023-07-01T00:00:00	2024-11-06T23:00:00	3	Temperatura mínima	10.4
129780	7	Sololá	701	Sololá	2	El tablón	1	Enero	2023-07-01T00:00:00	2024-11-06T23:00:00	5	Humedad	86
129781	7	Sololá	701	Sololá	2	El tablón	1	Enero	2023-07-01T00:00:00	2024-11-06T23:00:00	6	Velocidad del viento	8
129782	7	Sololá	701	Sololá	2	El tablón	1	Enero	2023-07-01T00:00:00	2024-11-06T23:00:00	7	Dirección del viento	8.05
129783	7	Sololá	701	Sololá	2	El tablón	1	Enero	2023-07-01T00:00:00	2024-11-06T23:00:00	1	Precipitación	0
129784	7	Sololá	701	Sololá	2	El tablón	1	Enero	2023-07-01T00:00:00	2024-11-06T23:00:00	8	Radiación solar	0
129785	7	Sololá	701	Sololá	2	El tablón	1	Enero	2023-08-01T00:00:00	2024-11-06T00:00:00	2	Temperatura media	10.9
129786	7	Sololá	701	Sololá	2	El tablón	1	Enero	2023-08-01T00:00:00	2024-11-06T00:00:00	4	Temperatura máxima	11
129787	7	Sololá	701	Sololá	2	El tablón	1	Enero	2023-08-01T00:00:00	2024-11-06T00:00:00	3	Temperatura mínima	10.6
129788	7	Sololá	701	Sololá	2	El tablón	1	Enero	2023-08-01T00:00:00	2024-11-06T00:00:00	5	Humedad	85
129789	7	Sololá	701	Sololá	2	El tablón	1	Enero	2023-08-01T00:00:00	2024-11-06T00:00:00	6	Velocidad del viento	6.4
129790	7	Sololá	701	Sololá	2	El tablón	1	Enero	2023-08-01T00:00:00	2024-11-06T00:00:00	7	Dirección del viento	6.44
129791	7	Sololá	701	Sololá	2	El tablón	1	Enero	2023-08-01T00:00:00	2024-11-06T00:00:00	1	Precipitación	0
129792	7	Sololá	701	Sololá	2	El tablón	1	Enero	2023-08-01T00:00:00	2024-11-06T00:00:00	8	Radiación solar	0
129793	7	Sololá	701	Sololá	2	El tablón	1	Enero	2023-08-01T00:00:00	2024-11-06T01:00:00	2	Temperatura media	10.4
129794	7	Sololá	701	Sololá	2	El tablón	1	Enero	2023-08-01T00:00:00	2024-11-06T01:00:00	4	Temperatura máxima	10.9
129795	7	Sololá	701	Sololá	2	El tablón	1	Enero	2023-08-01T00:00:00	2024-11-06T01:00:00	3	Temperatura mínima	10.3
129796	7	Sololá	701	Sololá	2	El tablón	1	Enero	2023-08-01T00:00:00	2024-11-06T01:00:00	5	Humedad	88
129797	7	Sololá	701	Sololá	2	El tablón	1	Enero	2023-08-01T00:00:00	2024-11-06T01:00:00	6	Velocidad del viento	8
129798	7	Sololá	701	Sololá	2	El tablón	1	Enero	2023-08-01T00:00:00	2024-11-06T01:00:00	7	Dirección del viento	8.05
129799	7	Sololá	701	Sololá	2	El tablón	1	Enero	2023-08-01T00:00:00	2024-11-06T01:00:00	1	Precipitación	0
129800	7	Sololá	701	Sololá	2	El tablón	1	Enero	2023-08-01T00:00:00	2024-11-06T01:00:00	8	Radiación solar	0
129801	7	Sololá	701	Sololá	2	El tablón	1	Enero	2023-08-01T00:00:00	2024-11-06T02:00:00	2	Temperatura media	10.2
129802	7	Sololá	701	Sololá	2	El tablón	1	Enero	2023-08-01T00:00:00	2024-11-06T02:00:00	4	Temperatura máxima	10.7
129803	7	Sololá	701	Sololá	2	El tablón	1	Enero	2023-08-01T00:00:00	2024-11-06T02:00:00	3	Temperatura mínima	10.2
129804	7	Sololá	701	Sololá	2	El tablón	1	Enero	2023-08-01T00:00:00	2024-11-06T02:00:00	5	Humedad	88
129805	7	Sololá	701	Sololá	2	El tablón	1	Enero	2023-08-01T00:00:00	2024-11-06T02:00:00	6	Velocidad del viento	8
129806	7	Sololá	701	Sololá	2	El tablón	1	Enero	2023-08-01T00:00:00	2024-11-06T02:00:00	7	Dirección del viento	8.05
129807	7	Sololá	701	Sololá	2	El tablón	1	Enero	2023-08-01T00:00:00	2024-11-06T02:00:00	1	Precipitación	0
129808	7	Sololá	701	Sololá	2	El tablón	1	Enero	2023-08-01T00:00:00	2024-11-06T02:00:00	8	Radiación solar	0
129809	7	Sololá	701	Sololá	2	El tablón	1	Enero	2023-08-01T00:00:00	2024-11-06T03:00:00	2	Temperatura media	10.1
129810	7	Sololá	701	Sololá	2	El tablón	1	Enero	2023-08-01T00:00:00	2024-11-06T03:00:00	4	Temperatura máxima	10.2
129811	7	Sololá	701	Sololá	2	El tablón	1	Enero	2023-08-01T00:00:00	2024-11-06T03:00:00	3	Temperatura mínima	10
129812	7	Sololá	701	Sololá	2	El tablón	1	Enero	2023-08-01T00:00:00	2024-11-06T03:00:00	5	Humedad	88
129813	7	Sololá	701	Sololá	2	El tablón	1	Enero	2023-08-01T00:00:00	2024-11-06T03:00:00	6	Velocidad del viento	8
129814	7	Sololá	701	Sololá	2	El tablón	1	Enero	2023-08-01T00:00:00	2024-11-06T03:00:00	7	Dirección del viento	8.05
129815	7	Sololá	701	Sololá	2	El tablón	1	Enero	2023-08-01T00:00:00	2024-11-06T03:00:00	1	Precipitación	0
129816	7	Sololá	701	Sololá	2	El tablón	1	Enero	2023-08-01T00:00:00	2024-11-06T03:00:00	8	Radiación solar	0
129817	7	Sololá	701	Sololá	2	El tablón	1	Enero	2023-08-01T00:00:00	2024-11-06T04:00:00	2	Temperatura media	10.3
129818	7	Sololá	701	Sololá	2	El tablón	1	Enero	2023-08-01T00:00:00	2024-11-06T04:00:00	4	Temperatura máxima	10.4
129819	7	Sololá	701	Sololá	2	El tablón	1	Enero	2023-08-01T00:00:00	2024-11-06T04:00:00	3	Temperatura mínima	10.1
129820	7	Sololá	701	Sololá	2	El tablón	1	Enero	2023-08-01T00:00:00	2024-11-06T04:00:00	5	Humedad	86
129821	7	Sololá	701	Sololá	2	El tablón	1	Enero	2023-08-01T00:00:00	2024-11-06T04:00:00	6	Velocidad del viento	9.7
129822	7	Sololá	701	Sololá	2	El tablón	1	Enero	2023-08-01T00:00:00	2024-11-06T04:00:00	7	Dirección del viento	9.66
129823	7	Sololá	701	Sololá	2	El tablón	1	Enero	2023-08-01T00:00:00	2024-11-06T04:00:00	1	Precipitación	0
129824	7	Sololá	701	Sololá	2	El tablón	1	Enero	2023-08-01T00:00:00	2024-11-06T04:00:00	8	Radiación solar	0
129825	7	Sololá	701	Sololá	2	El tablón	1	Enero	2023-08-01T00:00:00	2024-11-06T05:00:00	2	Temperatura media	10.2
129826	7	Sololá	701	Sololá	2	El tablón	1	Enero	2023-08-01T00:00:00	2024-11-06T05:00:00	4	Temperatura máxima	10.3
129827	7	Sololá	701	Sololá	2	El tablón	1	Enero	2023-08-01T00:00:00	2024-11-06T05:00:00	3	Temperatura mínima	10.1
129828	7	Sololá	701	Sololá	2	El tablón	1	Enero	2023-08-01T00:00:00	2024-11-06T05:00:00	5	Humedad	87
129829	7	Sololá	701	Sololá	2	El tablón	1	Enero	2023-08-01T00:00:00	2024-11-06T05:00:00	6	Velocidad del viento	9.7
129830	7	Sololá	701	Sololá	2	El tablón	1	Enero	2023-08-01T00:00:00	2024-11-06T05:00:00	7	Dirección del viento	9.66
129831	7	Sololá	701	Sololá	2	El tablón	1	Enero	2023-08-01T00:00:00	2024-11-06T05:00:00	1	Precipitación	0
129832	7	Sololá	701	Sololá	2	El tablón	1	Enero	2023-08-01T00:00:00	2024-11-06T05:00:00	8	Radiación solar	0
129833	7	Sololá	701	Sololá	2	El tablón	1	Enero	2023-08-01T00:00:00	2024-11-06T06:00:00	2	Temperatura media	10.2
129834	7	Sololá	701	Sololá	2	El tablón	1	Enero	2023-08-01T00:00:00	2024-11-06T06:00:00	4	Temperatura máxima	10.2
129835	7	Sololá	701	Sololá	2	El tablón	1	Enero	2023-08-01T00:00:00	2024-11-06T06:00:00	3	Temperatura mínima	10.1
129836	7	Sololá	701	Sololá	2	El tablón	1	Enero	2023-08-01T00:00:00	2024-11-06T06:00:00	5	Humedad	87
129837	7	Sololá	701	Sololá	2	El tablón	1	Enero	2023-08-01T00:00:00	2024-11-06T06:00:00	6	Velocidad del viento	9.7
129838	7	Sololá	701	Sololá	2	El tablón	1	Enero	2023-08-01T00:00:00	2024-11-06T06:00:00	7	Dirección del viento	9.66
129839	7	Sololá	701	Sololá	2	El tablón	1	Enero	2023-08-01T00:00:00	2024-11-06T06:00:00	1	Precipitación	0
129840	7	Sololá	701	Sololá	2	El tablón	1	Enero	2023-08-01T00:00:00	2024-11-06T06:00:00	8	Radiación solar	0
129841	7	Sololá	701	Sololá	2	El tablón	1	Enero	2023-08-01T00:00:00	2024-11-06T07:00:00	2	Temperatura media	10.4
129842	7	Sololá	701	Sololá	2	El tablón	1	Enero	2023-08-01T00:00:00	2024-11-06T07:00:00	4	Temperatura máxima	10.4
129843	7	Sololá	701	Sololá	2	El tablón	1	Enero	2023-08-01T00:00:00	2024-11-06T07:00:00	3	Temperatura mínima	9.8
129844	7	Sololá	701	Sololá	2	El tablón	1	Enero	2023-08-01T00:00:00	2024-11-06T07:00:00	5	Humedad	88
129845	7	Sololá	701	Sololá	2	El tablón	1	Enero	2023-08-01T00:00:00	2024-11-06T07:00:00	6	Velocidad del viento	8
129846	7	Sololá	701	Sololá	2	El tablón	1	Enero	2023-08-01T00:00:00	2024-11-06T07:00:00	7	Dirección del viento	8.05
129847	7	Sololá	701	Sololá	2	El tablón	1	Enero	2023-08-01T00:00:00	2024-11-06T07:00:00	1	Precipitación	0
129848	7	Sololá	701	Sololá	2	El tablón	1	Enero	2023-08-01T00:00:00	2024-11-06T07:00:00	8	Radiación solar	5
129849	7	Sololá	701	Sololá	2	El tablón	1	Enero	2023-08-01T00:00:00	2024-11-06T08:00:00	2	Temperatura media	11.7
129850	7	Sololá	701	Sololá	2	El tablón	1	Enero	2023-08-01T00:00:00	2024-11-06T08:00:00	4	Temperatura máxima	11.7
129851	7	Sololá	701	Sololá	2	El tablón	1	Enero	2023-08-01T00:00:00	2024-11-06T08:00:00	3	Temperatura mínima	10.4
129852	7	Sololá	701	Sololá	2	El tablón	1	Enero	2023-08-01T00:00:00	2024-11-06T08:00:00	5	Humedad	85
129853	7	Sololá	701	Sololá	2	El tablón	1	Enero	2023-08-01T00:00:00	2024-11-06T08:00:00	6	Velocidad del viento	6.4
129854	7	Sololá	701	Sololá	2	El tablón	1	Enero	2023-08-01T00:00:00	2024-11-06T08:00:00	7	Dirección del viento	6.44
129855	7	Sololá	701	Sololá	2	El tablón	1	Enero	2023-08-01T00:00:00	2024-11-06T08:00:00	1	Precipitación	0
129856	7	Sololá	701	Sololá	2	El tablón	1	Enero	2023-08-01T00:00:00	2024-11-06T08:00:00	8	Radiación solar	123
129857	7	Sololá	701	Sololá	2	El tablón	1	Enero	2023-08-01T00:00:00	2024-11-06T09:00:00	2	Temperatura media	14.3
129858	7	Sololá	701	Sololá	2	El tablón	1	Enero	2023-08-01T00:00:00	2024-11-06T09:00:00	4	Temperatura máxima	14.3
129859	7	Sololá	701	Sololá	2	El tablón	1	Enero	2023-08-01T00:00:00	2024-11-06T09:00:00	3	Temperatura mínima	11.7
129860	7	Sololá	701	Sololá	2	El tablón	1	Enero	2023-08-01T00:00:00	2024-11-06T09:00:00	5	Humedad	78
129861	7	Sololá	701	Sololá	2	El tablón	1	Enero	2023-08-01T00:00:00	2024-11-06T09:00:00	6	Velocidad del viento	6.4
129862	7	Sololá	701	Sololá	2	El tablón	1	Enero	2023-08-01T00:00:00	2024-11-06T09:00:00	7	Dirección del viento	6.44
129863	7	Sololá	701	Sololá	2	El tablón	1	Enero	2023-08-01T00:00:00	2024-11-06T09:00:00	1	Precipitación	0
129864	7	Sololá	701	Sololá	2	El tablón	1	Enero	2023-08-01T00:00:00	2024-11-06T09:00:00	8	Radiación solar	330
129865	7	Sololá	701	Sololá	2	El tablón	1	Enero	2023-08-01T00:00:00	2024-11-06T10:00:00	2	Temperatura media	15.1
129866	7	Sololá	701	Sololá	2	El tablón	1	Enero	2023-08-01T00:00:00	2024-11-06T10:00:00	4	Temperatura máxima	15.1
129867	7	Sololá	701	Sololá	2	El tablón	1	Enero	2023-08-01T00:00:00	2024-11-06T10:00:00	3	Temperatura mínima	14.3
129868	7	Sololá	701	Sololá	2	El tablón	1	Enero	2023-08-01T00:00:00	2024-11-06T10:00:00	5	Humedad	75
129869	7	Sololá	701	Sololá	2	El tablón	1	Enero	2023-08-01T00:00:00	2024-11-06T10:00:00	6	Velocidad del viento	11.3
129870	7	Sololá	701	Sololá	2	El tablón	1	Enero	2023-08-01T00:00:00	2024-11-06T10:00:00	7	Dirección del viento	11.27
129871	7	Sololá	701	Sololá	2	El tablón	1	Enero	2023-08-01T00:00:00	2024-11-06T10:00:00	1	Precipitación	0
129872	7	Sololá	701	Sololá	2	El tablón	1	Enero	2023-08-01T00:00:00	2024-11-06T10:00:00	8	Radiación solar	517
129873	7	Sololá	701	Sololá	2	El tablón	1	Enero	2023-08-01T00:00:00	2024-11-06T11:00:00	2	Temperatura media	16.8
129874	7	Sololá	701	Sololá	2	El tablón	1	Enero	2023-08-01T00:00:00	2024-11-06T11:00:00	4	Temperatura máxima	17.2
129875	7	Sololá	701	Sololá	2	El tablón	1	Enero	2023-08-01T00:00:00	2024-11-06T11:00:00	3	Temperatura mínima	15.1
129876	7	Sololá	701	Sololá	2	El tablón	1	Enero	2023-08-01T00:00:00	2024-11-06T11:00:00	5	Humedad	64
129877	7	Sololá	701	Sololá	2	El tablón	1	Enero	2023-08-01T00:00:00	2024-11-06T11:00:00	6	Velocidad del viento	8
129878	7	Sololá	701	Sololá	2	El tablón	1	Enero	2023-08-01T00:00:00	2024-11-06T11:00:00	7	Dirección del viento	8.05
129879	7	Sololá	701	Sololá	2	El tablón	1	Enero	2023-08-01T00:00:00	2024-11-06T11:00:00	1	Precipitación	0
129880	7	Sololá	701	Sololá	2	El tablón	1	Enero	2023-08-01T00:00:00	2024-11-06T11:00:00	8	Radiación solar	666
129881	7	Sololá	701	Sololá	2	El tablón	1	Enero	2023-08-01T00:00:00	2024-11-06T12:00:00	2	Temperatura media	16.6
129882	7	Sololá	701	Sololá	2	El tablón	1	Enero	2023-08-01T00:00:00	2024-11-06T12:00:00	4	Temperatura máxima	17.8
129883	7	Sololá	701	Sololá	2	El tablón	1	Enero	2023-08-01T00:00:00	2024-11-06T12:00:00	3	Temperatura mínima	16.6
129884	7	Sololá	701	Sololá	2	El tablón	1	Enero	2023-08-01T00:00:00	2024-11-06T12:00:00	5	Humedad	68
129885	7	Sololá	701	Sololá	2	El tablón	1	Enero	2023-08-01T00:00:00	2024-11-06T12:00:00	6	Velocidad del viento	8
129886	7	Sololá	701	Sololá	2	El tablón	1	Enero	2023-08-01T00:00:00	2024-11-06T12:00:00	7	Dirección del viento	8.05
129887	7	Sololá	701	Sololá	2	El tablón	1	Enero	2023-08-01T00:00:00	2024-11-06T12:00:00	1	Precipitación	0
129888	7	Sololá	701	Sololá	2	El tablón	1	Enero	2023-08-01T00:00:00	2024-11-06T12:00:00	8	Radiación solar	574
129889	7	Sololá	701	Sololá	2	El tablón	1	Enero	2023-08-01T00:00:00	2024-11-06T13:00:00	2	Temperatura media	16.4
129890	7	Sololá	701	Sololá	2	El tablón	1	Enero	2023-08-01T00:00:00	2024-11-06T13:00:00	4	Temperatura máxima	17.6
129891	7	Sololá	701	Sololá	2	El tablón	1	Enero	2023-08-01T00:00:00	2024-11-06T13:00:00	3	Temperatura mínima	16.4
129892	7	Sololá	701	Sololá	2	El tablón	1	Enero	2023-08-01T00:00:00	2024-11-06T13:00:00	5	Humedad	67
129893	7	Sololá	701	Sololá	2	El tablón	1	Enero	2023-08-01T00:00:00	2024-11-06T13:00:00	6	Velocidad del viento	6.4
129894	7	Sololá	701	Sololá	2	El tablón	1	Enero	2023-08-01T00:00:00	2024-11-06T13:00:00	7	Dirección del viento	6.44
129895	7	Sololá	701	Sololá	2	El tablón	1	Enero	2023-08-01T00:00:00	2024-11-06T13:00:00	1	Precipitación	0
129896	7	Sololá	701	Sololá	2	El tablón	1	Enero	2023-08-01T00:00:00	2024-11-06T13:00:00	8	Radiación solar	233
129897	7	Sololá	701	Sololá	2	El tablón	1	Enero	2023-08-01T00:00:00	2024-11-06T14:00:00	2	Temperatura media	15.5
129898	7	Sololá	701	Sololá	2	El tablón	1	Enero	2023-08-01T00:00:00	2024-11-06T14:00:00	4	Temperatura máxima	16.4
129899	7	Sololá	701	Sololá	2	El tablón	1	Enero	2023-08-01T00:00:00	2024-11-06T14:00:00	3	Temperatura mínima	15.5
129900	7	Sololá	701	Sololá	2	El tablón	1	Enero	2023-08-01T00:00:00	2024-11-06T14:00:00	5	Humedad	82
129901	7	Sololá	701	Sololá	2	El tablón	1	Enero	2023-08-01T00:00:00	2024-11-06T14:00:00	6	Velocidad del viento	6.4
129902	7	Sololá	701	Sololá	2	El tablón	1	Enero	2023-08-01T00:00:00	2024-11-06T14:00:00	7	Dirección del viento	6.44
129903	7	Sololá	701	Sololá	2	El tablón	1	Enero	2023-08-01T00:00:00	2024-11-06T14:00:00	1	Precipitación	0
129904	7	Sololá	701	Sololá	2	El tablón	1	Enero	2023-08-01T00:00:00	2024-11-06T14:00:00	8	Radiación solar	159
129905	7	Sololá	701	Sololá	2	El tablón	1	Enero	2023-08-01T00:00:00	2024-11-06T15:00:00	2	Temperatura media	17.2
129906	7	Sololá	701	Sololá	2	El tablón	1	Enero	2023-08-01T00:00:00	2024-11-06T15:00:00	4	Temperatura máxima	17.6
129907	7	Sololá	701	Sololá	2	El tablón	1	Enero	2023-08-01T00:00:00	2024-11-06T15:00:00	3	Temperatura mínima	15.5
129908	7	Sololá	701	Sololá	2	El tablón	1	Enero	2023-08-01T00:00:00	2024-11-06T15:00:00	5	Humedad	76
129909	7	Sololá	701	Sololá	2	El tablón	1	Enero	2023-08-01T00:00:00	2024-11-06T15:00:00	6	Velocidad del viento	6.4
129910	7	Sololá	701	Sololá	2	El tablón	1	Enero	2023-08-01T00:00:00	2024-11-06T15:00:00	7	Dirección del viento	6.44
129911	7	Sololá	701	Sololá	2	El tablón	1	Enero	2023-08-01T00:00:00	2024-11-06T15:00:00	1	Precipitación	0
129912	7	Sololá	701	Sololá	2	El tablón	1	Enero	2023-08-01T00:00:00	2024-11-06T15:00:00	8	Radiación solar	613
129913	7	Sololá	701	Sololá	2	El tablón	1	Enero	2023-08-01T00:00:00	2024-11-06T16:00:00	2	Temperatura media	14.3
129914	7	Sololá	701	Sololá	2	El tablón	1	Enero	2023-08-01T00:00:00	2024-11-06T16:00:00	4	Temperatura máxima	17.2
129915	7	Sololá	701	Sololá	2	El tablón	1	Enero	2023-08-01T00:00:00	2024-11-06T16:00:00	3	Temperatura mínima	14.3
129916	7	Sololá	701	Sololá	2	El tablón	1	Enero	2023-08-01T00:00:00	2024-11-06T16:00:00	5	Humedad	89
129917	7	Sololá	701	Sololá	2	El tablón	1	Enero	2023-08-01T00:00:00	2024-11-06T16:00:00	6	Velocidad del viento	4.8
129918	7	Sololá	701	Sololá	2	El tablón	1	Enero	2023-08-01T00:00:00	2024-11-06T16:00:00	7	Dirección del viento	4.83
129919	7	Sololá	701	Sololá	2	El tablón	1	Enero	2023-08-01T00:00:00	2024-11-06T16:00:00	1	Precipitación	0
129920	7	Sololá	701	Sololá	2	El tablón	1	Enero	2023-08-01T00:00:00	2024-11-06T16:00:00	8	Radiación solar	61
129921	7	Sololá	701	Sololá	2	El tablón	1	Enero	2023-08-01T00:00:00	2024-11-06T17:00:00	2	Temperatura media	13.7
129922	7	Sololá	701	Sololá	2	El tablón	1	Enero	2023-08-01T00:00:00	2024-11-06T17:00:00	4	Temperatura máxima	14.3
129923	7	Sololá	701	Sololá	2	El tablón	1	Enero	2023-08-01T00:00:00	2024-11-06T17:00:00	3	Temperatura mínima	13.7
129924	7	Sololá	701	Sololá	2	El tablón	1	Enero	2023-08-01T00:00:00	2024-11-06T17:00:00	5	Humedad	89
129925	7	Sololá	701	Sololá	2	El tablón	1	Enero	2023-08-01T00:00:00	2024-11-06T17:00:00	6	Velocidad del viento	3.2
129926	7	Sololá	701	Sololá	2	El tablón	1	Enero	2023-08-01T00:00:00	2024-11-06T17:00:00	7	Dirección del viento	3.22
129927	7	Sololá	701	Sololá	2	El tablón	1	Enero	2023-08-01T00:00:00	2024-11-06T17:00:00	1	Precipitación	0
129928	7	Sololá	701	Sololá	2	El tablón	1	Enero	2023-08-01T00:00:00	2024-11-06T17:00:00	8	Radiación solar	50
129929	7	Sololá	701	Sololá	2	El tablón	1	Enero	2023-08-01T00:00:00	2024-11-06T18:00:00	2	Temperatura media	13.1
129930	7	Sololá	701	Sololá	2	El tablón	1	Enero	2023-08-01T00:00:00	2024-11-06T18:00:00	4	Temperatura máxima	13.8
129931	7	Sololá	701	Sololá	2	El tablón	1	Enero	2023-08-01T00:00:00	2024-11-06T18:00:00	3	Temperatura mínima	13.1
129932	7	Sololá	701	Sololá	2	El tablón	1	Enero	2023-08-01T00:00:00	2024-11-06T18:00:00	5	Humedad	85
129933	7	Sololá	701	Sololá	2	El tablón	1	Enero	2023-08-01T00:00:00	2024-11-06T18:00:00	6	Velocidad del viento	6.4
129934	7	Sololá	701	Sololá	2	El tablón	1	Enero	2023-08-01T00:00:00	2024-11-06T18:00:00	7	Dirección del viento	6.44
129935	7	Sololá	701	Sololá	2	El tablón	1	Enero	2023-08-01T00:00:00	2024-11-06T18:00:00	1	Precipitación	0
129936	7	Sololá	701	Sololá	2	El tablón	1	Enero	2023-08-01T00:00:00	2024-11-06T18:00:00	8	Radiación solar	9
129937	7	Sololá	701	Sololá	2	El tablón	1	Enero	2023-08-01T00:00:00	2024-11-06T19:00:00	2	Temperatura media	12.3
129938	7	Sololá	701	Sololá	2	El tablón	1	Enero	2023-08-01T00:00:00	2024-11-06T19:00:00	4	Temperatura máxima	13.1
129939	7	Sololá	701	Sololá	2	El tablón	1	Enero	2023-08-01T00:00:00	2024-11-06T19:00:00	3	Temperatura mínima	12.3
129940	7	Sololá	701	Sololá	2	El tablón	1	Enero	2023-08-01T00:00:00	2024-11-06T19:00:00	5	Humedad	87
129941	7	Sololá	701	Sololá	2	El tablón	1	Enero	2023-08-01T00:00:00	2024-11-06T19:00:00	6	Velocidad del viento	3.2
129942	7	Sololá	701	Sololá	2	El tablón	1	Enero	2023-08-01T00:00:00	2024-11-06T19:00:00	7	Dirección del viento	3.22
129943	7	Sololá	701	Sololá	2	El tablón	1	Enero	2023-08-01T00:00:00	2024-11-06T19:00:00	1	Precipitación	0
129944	7	Sololá	701	Sololá	2	El tablón	1	Enero	2023-08-01T00:00:00	2024-11-06T19:00:00	8	Radiación solar	0
129945	7	Sololá	701	Sololá	2	El tablón	1	Enero	2023-08-01T00:00:00	2024-11-06T20:00:00	2	Temperatura media	12.2
129946	7	Sololá	701	Sololá	2	El tablón	1	Enero	2023-08-01T00:00:00	2024-11-06T20:00:00	4	Temperatura máxima	12.3
129947	7	Sololá	701	Sololá	2	El tablón	1	Enero	2023-08-01T00:00:00	2024-11-06T20:00:00	3	Temperatura mínima	12.1
129948	7	Sololá	701	Sololá	2	El tablón	1	Enero	2023-08-01T00:00:00	2024-11-06T20:00:00	5	Humedad	88
129949	7	Sololá	701	Sololá	2	El tablón	1	Enero	2023-08-01T00:00:00	2024-11-06T20:00:00	6	Velocidad del viento	6.4
129950	7	Sololá	701	Sololá	2	El tablón	1	Enero	2023-08-01T00:00:00	2024-11-06T20:00:00	7	Dirección del viento	6.44
129951	7	Sololá	701	Sololá	2	El tablón	1	Enero	2023-08-01T00:00:00	2024-11-06T20:00:00	1	Precipitación	0
129952	7	Sololá	701	Sololá	2	El tablón	1	Enero	2023-08-01T00:00:00	2024-11-06T20:00:00	8	Radiación solar	0
129953	7	Sololá	701	Sololá	2	El tablón	1	Enero	2023-08-01T00:00:00	2024-11-06T21:00:00	2	Temperatura media	11.8
129954	7	Sololá	701	Sololá	2	El tablón	1	Enero	2023-08-01T00:00:00	2024-11-06T21:00:00	4	Temperatura máxima	12.2
129955	7	Sololá	701	Sololá	2	El tablón	1	Enero	2023-08-01T00:00:00	2024-11-06T21:00:00	3	Temperatura mínima	11.8
129956	7	Sololá	701	Sololá	2	El tablón	1	Enero	2023-08-01T00:00:00	2024-11-06T21:00:00	5	Humedad	88
129957	7	Sololá	701	Sololá	2	El tablón	1	Enero	2023-08-01T00:00:00	2024-11-06T21:00:00	6	Velocidad del viento	9.7
129958	7	Sololá	701	Sololá	2	El tablón	1	Enero	2023-08-01T00:00:00	2024-11-06T21:00:00	7	Dirección del viento	9.66
129959	7	Sololá	701	Sololá	2	El tablón	1	Enero	2023-08-01T00:00:00	2024-11-06T21:00:00	1	Precipitación	0
129960	7	Sololá	701	Sololá	2	El tablón	1	Enero	2023-08-01T00:00:00	2024-11-06T21:00:00	8	Radiación solar	0
129961	7	Sololá	701	Sololá	2	El tablón	1	Enero	2023-08-01T00:00:00	2024-11-06T22:00:00	2	Temperatura media	11.3
129962	7	Sololá	701	Sololá	2	El tablón	1	Enero	2023-08-01T00:00:00	2024-11-06T22:00:00	4	Temperatura máxima	11.8
129963	7	Sololá	701	Sololá	2	El tablón	1	Enero	2023-08-01T00:00:00	2024-11-06T22:00:00	3	Temperatura mínima	11.3
129964	7	Sololá	701	Sololá	2	El tablón	1	Enero	2023-08-01T00:00:00	2024-11-06T22:00:00	5	Humedad	89
129965	7	Sololá	701	Sololá	2	El tablón	1	Enero	2023-08-01T00:00:00	2024-11-06T22:00:00	6	Velocidad del viento	9.7
129966	7	Sololá	701	Sololá	2	El tablón	1	Enero	2023-08-01T00:00:00	2024-11-06T22:00:00	7	Dirección del viento	9.66
129967	7	Sololá	701	Sololá	2	El tablón	1	Enero	2023-08-01T00:00:00	2024-11-06T22:00:00	1	Precipitación	0
129968	7	Sololá	701	Sololá	2	El tablón	1	Enero	2023-08-01T00:00:00	2024-11-06T22:00:00	8	Radiación solar	0
129969	7	Sololá	701	Sololá	2	El tablón	1	Enero	2023-08-01T00:00:00	2024-11-06T23:00:00	2	Temperatura media	11.2
129970	7	Sololá	701	Sololá	2	El tablón	1	Enero	2023-08-01T00:00:00	2024-11-06T23:00:00	4	Temperatura máxima	11.4
129971	7	Sololá	701	Sololá	2	El tablón	1	Enero	2023-08-01T00:00:00	2024-11-06T23:00:00	3	Temperatura mínima	11.2
129972	7	Sololá	701	Sololá	2	El tablón	1	Enero	2023-08-01T00:00:00	2024-11-06T23:00:00	5	Humedad	89
129973	7	Sololá	701	Sololá	2	El tablón	1	Enero	2023-08-01T00:00:00	2024-11-06T23:00:00	6	Velocidad del viento	11.3
129974	7	Sololá	701	Sololá	2	El tablón	1	Enero	2023-08-01T00:00:00	2024-11-06T23:00:00	7	Dirección del viento	11.27
129975	7	Sololá	701	Sololá	2	El tablón	1	Enero	2023-08-01T00:00:00	2024-11-06T23:00:00	1	Precipitación	0
129976	7	Sololá	701	Sololá	2	El tablón	1	Enero	2023-08-01T00:00:00	2024-11-06T23:00:00	8	Radiación solar	0
129977	7	Sololá	701	Sololá	2	El tablón	1	Enero	2023-09-01T00:00:00	2024-11-06T00:00:00	2	Temperatura media	10.9
129978	7	Sololá	701	Sololá	2	El tablón	1	Enero	2023-09-01T00:00:00	2024-11-06T00:00:00	4	Temperatura máxima	11.2
129979	7	Sololá	701	Sololá	2	El tablón	1	Enero	2023-09-01T00:00:00	2024-11-06T00:00:00	3	Temperatura mínima	10.8
129980	7	Sololá	701	Sololá	2	El tablón	1	Enero	2023-09-01T00:00:00	2024-11-06T00:00:00	5	Humedad	89
129981	7	Sololá	701	Sololá	2	El tablón	1	Enero	2023-09-01T00:00:00	2024-11-06T00:00:00	6	Velocidad del viento	9.7
129982	7	Sololá	701	Sololá	2	El tablón	1	Enero	2023-09-01T00:00:00	2024-11-06T00:00:00	7	Dirección del viento	9.66
129983	7	Sololá	701	Sololá	2	El tablón	1	Enero	2023-09-01T00:00:00	2024-11-06T00:00:00	1	Precipitación	0
129984	7	Sololá	701	Sololá	2	El tablón	1	Enero	2023-09-01T00:00:00	2024-11-06T00:00:00	8	Radiación solar	0
129985	7	Sololá	701	Sololá	2	El tablón	1	Enero	2023-09-01T00:00:00	2024-11-06T01:00:00	2	Temperatura media	10.7
129986	7	Sololá	701	Sololá	2	El tablón	1	Enero	2023-09-01T00:00:00	2024-11-06T01:00:00	4	Temperatura máxima	10.9
129987	7	Sololá	701	Sololá	2	El tablón	1	Enero	2023-09-01T00:00:00	2024-11-06T01:00:00	3	Temperatura mínima	10.7
129988	7	Sololá	701	Sololá	2	El tablón	1	Enero	2023-09-01T00:00:00	2024-11-06T01:00:00	5	Humedad	88
129989	7	Sololá	701	Sololá	2	El tablón	1	Enero	2023-09-01T00:00:00	2024-11-06T01:00:00	6	Velocidad del viento	8
129990	7	Sololá	701	Sololá	2	El tablón	1	Enero	2023-09-01T00:00:00	2024-11-06T01:00:00	7	Dirección del viento	8.05
129991	7	Sololá	701	Sololá	2	El tablón	1	Enero	2023-09-01T00:00:00	2024-11-06T01:00:00	1	Precipitación	0
129992	7	Sololá	701	Sololá	2	El tablón	1	Enero	2023-09-01T00:00:00	2024-11-06T01:00:00	8	Radiación solar	0
129993	7	Sololá	701	Sololá	2	El tablón	1	Enero	2023-09-01T00:00:00	2024-11-06T02:00:00	2	Temperatura media	10.6
129994	7	Sololá	701	Sololá	2	El tablón	1	Enero	2023-09-01T00:00:00	2024-11-06T02:00:00	4	Temperatura máxima	10.8
129995	7	Sololá	701	Sololá	2	El tablón	1	Enero	2023-09-01T00:00:00	2024-11-06T02:00:00	3	Temperatura mínima	10.4
129996	7	Sololá	701	Sololá	2	El tablón	1	Enero	2023-09-01T00:00:00	2024-11-06T02:00:00	5	Humedad	88
129997	7	Sololá	701	Sololá	2	El tablón	1	Enero	2023-09-01T00:00:00	2024-11-06T02:00:00	6	Velocidad del viento	6.4
129998	7	Sololá	701	Sololá	2	El tablón	1	Enero	2023-09-01T00:00:00	2024-11-06T02:00:00	7	Dirección del viento	6.44
129999	7	Sololá	701	Sololá	2	El tablón	1	Enero	2023-09-01T00:00:00	2024-11-06T02:00:00	1	Precipitación	0
130000	7	Sololá	701	Sololá	2	El tablón	1	Enero	2023-09-01T00:00:00	2024-11-06T02:00:00	8	Radiación solar	0
130001	7	Sololá	701	Sololá	2	El tablón	1	Enero	2023-09-01T00:00:00	2024-11-06T03:00:00	2	Temperatura media	10.6
130002	7	Sololá	701	Sololá	2	El tablón	1	Enero	2023-09-01T00:00:00	2024-11-06T03:00:00	4	Temperatura máxima	10.7
130003	7	Sololá	701	Sololá	2	El tablón	1	Enero	2023-09-01T00:00:00	2024-11-06T03:00:00	3	Temperatura mínima	10.4
130004	7	Sololá	701	Sololá	2	El tablón	1	Enero	2023-09-01T00:00:00	2024-11-06T03:00:00	5	Humedad	87
130005	7	Sololá	701	Sololá	2	El tablón	1	Enero	2023-09-01T00:00:00	2024-11-06T03:00:00	6	Velocidad del viento	8
130006	7	Sololá	701	Sololá	2	El tablón	1	Enero	2023-09-01T00:00:00	2024-11-06T03:00:00	7	Dirección del viento	8.05
130007	7	Sololá	701	Sololá	2	El tablón	1	Enero	2023-09-01T00:00:00	2024-11-06T03:00:00	1	Precipitación	0
130008	7	Sololá	701	Sololá	2	El tablón	1	Enero	2023-09-01T00:00:00	2024-11-06T03:00:00	8	Radiación solar	0
130009	7	Sololá	701	Sololá	2	El tablón	1	Enero	2023-09-01T00:00:00	2024-11-06T04:00:00	2	Temperatura media	10.4
130010	7	Sololá	701	Sololá	2	El tablón	1	Enero	2023-09-01T00:00:00	2024-11-06T04:00:00	4	Temperatura máxima	10.6
130011	7	Sololá	701	Sololá	2	El tablón	1	Enero	2023-09-01T00:00:00	2024-11-06T04:00:00	3	Temperatura mínima	10.4
130012	7	Sololá	701	Sololá	2	El tablón	1	Enero	2023-09-01T00:00:00	2024-11-06T04:00:00	5	Humedad	86
130013	7	Sololá	701	Sololá	2	El tablón	1	Enero	2023-09-01T00:00:00	2024-11-06T04:00:00	6	Velocidad del viento	8
130014	7	Sololá	701	Sololá	2	El tablón	1	Enero	2023-09-01T00:00:00	2024-11-06T04:00:00	7	Dirección del viento	8.05
130015	7	Sololá	701	Sololá	2	El tablón	1	Enero	2023-09-01T00:00:00	2024-11-06T04:00:00	1	Precipitación	0
130016	7	Sololá	701	Sololá	2	El tablón	1	Enero	2023-09-01T00:00:00	2024-11-06T04:00:00	8	Radiación solar	0
130017	7	Sololá	701	Sololá	2	El tablón	1	Enero	2023-09-01T00:00:00	2024-11-06T05:00:00	2	Temperatura media	10.5
130018	7	Sololá	701	Sololá	2	El tablón	1	Enero	2023-09-01T00:00:00	2024-11-06T05:00:00	4	Temperatura máxima	10.6
130019	7	Sololá	701	Sololá	2	El tablón	1	Enero	2023-09-01T00:00:00	2024-11-06T05:00:00	3	Temperatura mínima	10.4
130020	7	Sololá	701	Sololá	2	El tablón	1	Enero	2023-09-01T00:00:00	2024-11-06T05:00:00	5	Humedad	84
130021	7	Sololá	701	Sololá	2	El tablón	1	Enero	2023-09-01T00:00:00	2024-11-06T05:00:00	6	Velocidad del viento	6.4
130022	7	Sololá	701	Sololá	2	El tablón	1	Enero	2023-09-01T00:00:00	2024-11-06T05:00:00	7	Dirección del viento	6.44
130023	7	Sololá	701	Sololá	2	El tablón	1	Enero	2023-09-01T00:00:00	2024-11-06T05:00:00	1	Precipitación	0
130024	7	Sololá	701	Sololá	2	El tablón	1	Enero	2023-09-01T00:00:00	2024-11-06T05:00:00	8	Radiación solar	0
130025	7	Sololá	701	Sololá	2	El tablón	1	Enero	2023-09-01T00:00:00	2024-11-06T06:00:00	2	Temperatura media	10.3
130026	7	Sololá	701	Sololá	2	El tablón	1	Enero	2023-09-01T00:00:00	2024-11-06T06:00:00	4	Temperatura máxima	10.6
130027	7	Sololá	701	Sololá	2	El tablón	1	Enero	2023-09-01T00:00:00	2024-11-06T06:00:00	3	Temperatura mínima	10.2
130028	7	Sololá	701	Sololá	2	El tablón	1	Enero	2023-09-01T00:00:00	2024-11-06T06:00:00	5	Humedad	85
130029	7	Sololá	701	Sololá	2	El tablón	1	Enero	2023-09-01T00:00:00	2024-11-06T06:00:00	6	Velocidad del viento	6.4
130030	7	Sololá	701	Sololá	2	El tablón	1	Enero	2023-09-01T00:00:00	2024-11-06T06:00:00	7	Dirección del viento	6.44
130031	7	Sololá	701	Sololá	2	El tablón	1	Enero	2023-09-01T00:00:00	2024-11-06T06:00:00	1	Precipitación	0
130032	7	Sololá	701	Sololá	2	El tablón	1	Enero	2023-09-01T00:00:00	2024-11-06T06:00:00	8	Radiación solar	0
130033	7	Sololá	701	Sololá	2	El tablón	1	Enero	2023-09-01T00:00:00	2024-11-06T07:00:00	2	Temperatura media	10.7
130034	7	Sololá	701	Sololá	2	El tablón	1	Enero	2023-09-01T00:00:00	2024-11-06T07:00:00	4	Temperatura máxima	10.7
130035	7	Sololá	701	Sololá	2	El tablón	1	Enero	2023-09-01T00:00:00	2024-11-06T07:00:00	3	Temperatura mínima	10.1
130036	7	Sololá	701	Sololá	2	El tablón	1	Enero	2023-09-01T00:00:00	2024-11-06T07:00:00	5	Humedad	84
130037	7	Sololá	701	Sololá	2	El tablón	1	Enero	2023-09-01T00:00:00	2024-11-06T07:00:00	6	Velocidad del viento	8
130038	7	Sololá	701	Sololá	2	El tablón	1	Enero	2023-09-01T00:00:00	2024-11-06T07:00:00	7	Dirección del viento	8.05
130039	7	Sololá	701	Sololá	2	El tablón	1	Enero	2023-09-01T00:00:00	2024-11-06T07:00:00	1	Precipitación	0
130040	7	Sololá	701	Sololá	2	El tablón	1	Enero	2023-09-01T00:00:00	2024-11-06T07:00:00	8	Radiación solar	5
130041	7	Sololá	701	Sololá	2	El tablón	1	Enero	2023-09-01T00:00:00	2024-11-06T08:00:00	2	Temperatura media	12.6
130042	7	Sololá	701	Sololá	2	El tablón	1	Enero	2023-09-01T00:00:00	2024-11-06T08:00:00	4	Temperatura máxima	12.6
130043	7	Sololá	701	Sololá	2	El tablón	1	Enero	2023-09-01T00:00:00	2024-11-06T08:00:00	3	Temperatura mínima	10.7
130044	7	Sololá	701	Sololá	2	El tablón	1	Enero	2023-09-01T00:00:00	2024-11-06T08:00:00	5	Humedad	80
130045	7	Sololá	701	Sololá	2	El tablón	1	Enero	2023-09-01T00:00:00	2024-11-06T08:00:00	6	Velocidad del viento	9.7
130046	7	Sololá	701	Sololá	2	El tablón	1	Enero	2023-09-01T00:00:00	2024-11-06T08:00:00	7	Dirección del viento	9.66
130047	7	Sololá	701	Sololá	2	El tablón	1	Enero	2023-09-01T00:00:00	2024-11-06T08:00:00	1	Precipitación	0
130048	7	Sololá	701	Sololá	2	El tablón	1	Enero	2023-09-01T00:00:00	2024-11-06T08:00:00	8	Radiación solar	120
130049	7	Sololá	701	Sololá	2	El tablón	1	Enero	2023-09-01T00:00:00	2024-11-06T09:00:00	2	Temperatura media	13.8
130050	7	Sololá	701	Sololá	2	El tablón	1	Enero	2023-09-01T00:00:00	2024-11-06T09:00:00	4	Temperatura máxima	14
130051	7	Sololá	701	Sololá	2	El tablón	1	Enero	2023-09-01T00:00:00	2024-11-06T09:00:00	3	Temperatura mínima	12.6
130052	7	Sololá	701	Sololá	2	El tablón	1	Enero	2023-09-01T00:00:00	2024-11-06T09:00:00	5	Humedad	77
130053	7	Sololá	701	Sololá	2	El tablón	1	Enero	2023-09-01T00:00:00	2024-11-06T09:00:00	6	Velocidad del viento	11.3
130054	7	Sololá	701	Sololá	2	El tablón	1	Enero	2023-09-01T00:00:00	2024-11-06T09:00:00	7	Dirección del viento	11.27
130055	7	Sololá	701	Sololá	2	El tablón	1	Enero	2023-09-01T00:00:00	2024-11-06T09:00:00	1	Precipitación	0
130056	7	Sololá	701	Sololá	2	El tablón	1	Enero	2023-09-01T00:00:00	2024-11-06T09:00:00	8	Radiación solar	327
130057	7	Sololá	701	Sololá	2	El tablón	1	Enero	2023-09-01T00:00:00	2024-11-06T10:00:00	2	Temperatura media	15.1
130058	7	Sololá	701	Sololá	2	El tablón	1	Enero	2023-09-01T00:00:00	2024-11-06T10:00:00	4	Temperatura máxima	15.1
130059	7	Sololá	701	Sololá	2	El tablón	1	Enero	2023-09-01T00:00:00	2024-11-06T10:00:00	3	Temperatura mínima	13.8
130060	7	Sololá	701	Sololá	2	El tablón	1	Enero	2023-09-01T00:00:00	2024-11-06T10:00:00	5	Humedad	74
130061	7	Sololá	701	Sololá	2	El tablón	1	Enero	2023-09-01T00:00:00	2024-11-06T10:00:00	6	Velocidad del viento	11.3
130062	7	Sololá	701	Sololá	2	El tablón	1	Enero	2023-09-01T00:00:00	2024-11-06T10:00:00	7	Dirección del viento	11.27
130063	7	Sololá	701	Sololá	2	El tablón	1	Enero	2023-09-01T00:00:00	2024-11-06T10:00:00	1	Precipitación	0
130064	7	Sololá	701	Sololá	2	El tablón	1	Enero	2023-09-01T00:00:00	2024-11-06T10:00:00	8	Radiación solar	513
130065	7	Sololá	701	Sololá	2	El tablón	1	Enero	2023-09-01T00:00:00	2024-11-06T11:00:00	2	Temperatura media	16.5
130066	7	Sololá	701	Sololá	2	El tablón	1	Enero	2023-09-01T00:00:00	2024-11-06T11:00:00	4	Temperatura máxima	16.5
130067	7	Sololá	701	Sololá	2	El tablón	1	Enero	2023-09-01T00:00:00	2024-11-06T11:00:00	3	Temperatura mínima	15
130068	7	Sololá	701	Sololá	2	El tablón	1	Enero	2023-09-01T00:00:00	2024-11-06T11:00:00	5	Humedad	69
130069	7	Sololá	701	Sololá	2	El tablón	1	Enero	2023-09-01T00:00:00	2024-11-06T11:00:00	6	Velocidad del viento	12.9
130070	7	Sololá	701	Sololá	2	El tablón	1	Enero	2023-09-01T00:00:00	2024-11-06T11:00:00	7	Dirección del viento	12.87
130071	7	Sololá	701	Sololá	2	El tablón	1	Enero	2023-09-01T00:00:00	2024-11-06T11:00:00	1	Precipitación	0
130072	7	Sololá	701	Sololá	2	El tablón	1	Enero	2023-09-01T00:00:00	2024-11-06T11:00:00	8	Radiación solar	656
130073	7	Sololá	701	Sololá	2	El tablón	1	Enero	2023-09-01T00:00:00	2024-11-06T12:00:00	2	Temperatura media	17.2
130074	7	Sololá	701	Sololá	2	El tablón	1	Enero	2023-09-01T00:00:00	2024-11-06T12:00:00	4	Temperatura máxima	17.3
130075	7	Sololá	701	Sololá	2	El tablón	1	Enero	2023-09-01T00:00:00	2024-11-06T12:00:00	3	Temperatura mínima	16.4
130076	7	Sololá	701	Sololá	2	El tablón	1	Enero	2023-09-01T00:00:00	2024-11-06T12:00:00	5	Humedad	65
130077	7	Sololá	701	Sololá	2	El tablón	1	Enero	2023-09-01T00:00:00	2024-11-06T12:00:00	6	Velocidad del viento	11.3
130078	7	Sololá	701	Sololá	2	El tablón	1	Enero	2023-09-01T00:00:00	2024-11-06T12:00:00	7	Dirección del viento	11.27
130079	7	Sololá	701	Sololá	2	El tablón	1	Enero	2023-09-01T00:00:00	2024-11-06T12:00:00	1	Precipitación	0
130080	7	Sololá	701	Sololá	2	El tablón	1	Enero	2023-09-01T00:00:00	2024-11-06T12:00:00	8	Radiación solar	641
130081	7	Sololá	701	Sololá	2	El tablón	1	Enero	2023-09-01T00:00:00	2024-11-06T13:00:00	2	Temperatura media	17.7
130082	7	Sololá	701	Sololá	2	El tablón	1	Enero	2023-09-01T00:00:00	2024-11-06T13:00:00	4	Temperatura máxima	17.9
130083	7	Sololá	701	Sololá	2	El tablón	1	Enero	2023-09-01T00:00:00	2024-11-06T13:00:00	3	Temperatura mínima	16.8
130084	7	Sololá	701	Sololá	2	El tablón	1	Enero	2023-09-01T00:00:00	2024-11-06T13:00:00	5	Humedad	63
130085	7	Sololá	701	Sololá	2	El tablón	1	Enero	2023-09-01T00:00:00	2024-11-06T13:00:00	6	Velocidad del viento	11.3
130086	7	Sololá	701	Sololá	2	El tablón	1	Enero	2023-09-01T00:00:00	2024-11-06T13:00:00	7	Dirección del viento	11.27
130087	7	Sololá	701	Sololá	2	El tablón	1	Enero	2023-09-01T00:00:00	2024-11-06T13:00:00	1	Precipitación	0
130088	7	Sololá	701	Sololá	2	El tablón	1	Enero	2023-09-01T00:00:00	2024-11-06T13:00:00	8	Radiación solar	740
130089	7	Sololá	701	Sololá	2	El tablón	1	Enero	2023-09-01T00:00:00	2024-11-06T14:00:00	2	Temperatura media	17.7
130090	7	Sololá	701	Sololá	2	El tablón	1	Enero	2023-09-01T00:00:00	2024-11-06T14:00:00	4	Temperatura máxima	18.1
130091	7	Sololá	701	Sololá	2	El tablón	1	Enero	2023-09-01T00:00:00	2024-11-06T14:00:00	3	Temperatura mínima	17.5
130092	7	Sololá	701	Sololá	2	El tablón	1	Enero	2023-09-01T00:00:00	2024-11-06T14:00:00	5	Humedad	64
130093	7	Sololá	701	Sololá	2	El tablón	1	Enero	2023-09-01T00:00:00	2024-11-06T14:00:00	6	Velocidad del viento	9.7
130094	7	Sololá	701	Sololá	2	El tablón	1	Enero	2023-09-01T00:00:00	2024-11-06T14:00:00	7	Dirección del viento	9.66
130095	7	Sololá	701	Sololá	2	El tablón	1	Enero	2023-09-01T00:00:00	2024-11-06T14:00:00	1	Precipitación	0
130096	7	Sololá	701	Sololá	2	El tablón	1	Enero	2023-09-01T00:00:00	2024-11-06T14:00:00	8	Radiación solar	703
130097	7	Sololá	701	Sololá	2	El tablón	1	Enero	2023-09-01T00:00:00	2024-11-06T15:00:00	2	Temperatura media	17
130098	7	Sololá	701	Sololá	2	El tablón	1	Enero	2023-09-01T00:00:00	2024-11-06T15:00:00	4	Temperatura máxima	17.9
130099	7	Sololá	701	Sololá	2	El tablón	1	Enero	2023-09-01T00:00:00	2024-11-06T15:00:00	3	Temperatura mínima	16.9
130100	7	Sololá	701	Sololá	2	El tablón	1	Enero	2023-09-01T00:00:00	2024-11-06T15:00:00	5	Humedad	66
130101	7	Sololá	701	Sololá	2	El tablón	1	Enero	2023-09-01T00:00:00	2024-11-06T15:00:00	6	Velocidad del viento	8
130102	7	Sololá	701	Sololá	2	El tablón	1	Enero	2023-09-01T00:00:00	2024-11-06T15:00:00	7	Dirección del viento	8.05
130103	7	Sololá	701	Sololá	2	El tablón	1	Enero	2023-09-01T00:00:00	2024-11-06T15:00:00	1	Precipitación	0
130104	7	Sololá	701	Sololá	2	El tablón	1	Enero	2023-09-01T00:00:00	2024-11-06T15:00:00	8	Radiación solar	470
130105	7	Sololá	701	Sololá	2	El tablón	1	Enero	2023-09-01T00:00:00	2024-11-06T16:00:00	2	Temperatura media	16.3
130106	7	Sololá	701	Sololá	2	El tablón	1	Enero	2023-09-01T00:00:00	2024-11-06T16:00:00	4	Temperatura máxima	17.6
130107	7	Sololá	701	Sololá	2	El tablón	1	Enero	2023-09-01T00:00:00	2024-11-06T16:00:00	3	Temperatura mínima	16.2
130108	7	Sololá	701	Sololá	2	El tablón	1	Enero	2023-09-01T00:00:00	2024-11-06T16:00:00	5	Humedad	71
130109	7	Sololá	701	Sololá	2	El tablón	1	Enero	2023-09-01T00:00:00	2024-11-06T16:00:00	6	Velocidad del viento	8
130110	7	Sololá	701	Sololá	2	El tablón	1	Enero	2023-09-01T00:00:00	2024-11-06T16:00:00	7	Dirección del viento	8.05
130111	7	Sololá	701	Sololá	2	El tablón	1	Enero	2023-09-01T00:00:00	2024-11-06T16:00:00	1	Precipitación	0
130112	7	Sololá	701	Sololá	2	El tablón	1	Enero	2023-09-01T00:00:00	2024-11-06T16:00:00	8	Radiación solar	342
130113	7	Sololá	701	Sololá	2	El tablón	1	Enero	2023-09-01T00:00:00	2024-11-06T17:00:00	2	Temperatura media	15.2
130114	7	Sololá	701	Sololá	2	El tablón	1	Enero	2023-09-01T00:00:00	2024-11-06T17:00:00	4	Temperatura máxima	16.3
130115	7	Sololá	701	Sololá	2	El tablón	1	Enero	2023-09-01T00:00:00	2024-11-06T17:00:00	3	Temperatura mínima	15.2
130116	7	Sololá	701	Sololá	2	El tablón	1	Enero	2023-09-01T00:00:00	2024-11-06T17:00:00	5	Humedad	74
130117	7	Sololá	701	Sololá	2	El tablón	1	Enero	2023-09-01T00:00:00	2024-11-06T17:00:00	6	Velocidad del viento	8
130118	7	Sololá	701	Sololá	2	El tablón	1	Enero	2023-09-01T00:00:00	2024-11-06T17:00:00	7	Dirección del viento	8.05
130119	7	Sololá	701	Sololá	2	El tablón	1	Enero	2023-09-01T00:00:00	2024-11-06T17:00:00	1	Precipitación	0
130120	7	Sololá	701	Sololá	2	El tablón	1	Enero	2023-09-01T00:00:00	2024-11-06T17:00:00	8	Radiación solar	157
130121	7	Sololá	701	Sololá	2	El tablón	1	Enero	2023-09-01T00:00:00	2024-11-06T18:00:00	2	Temperatura media	13.3
130122	7	Sololá	701	Sololá	2	El tablón	1	Enero	2023-09-01T00:00:00	2024-11-06T18:00:00	4	Temperatura máxima	15.2
130123	7	Sololá	701	Sololá	2	El tablón	1	Enero	2023-09-01T00:00:00	2024-11-06T18:00:00	3	Temperatura mínima	13.3
130124	7	Sololá	701	Sololá	2	El tablón	1	Enero	2023-09-01T00:00:00	2024-11-06T18:00:00	5	Humedad	82
130125	7	Sololá	701	Sololá	2	El tablón	1	Enero	2023-09-01T00:00:00	2024-11-06T18:00:00	6	Velocidad del viento	6.4
130126	7	Sololá	701	Sololá	2	El tablón	1	Enero	2023-09-01T00:00:00	2024-11-06T18:00:00	7	Dirección del viento	6.44
130127	7	Sololá	701	Sololá	2	El tablón	1	Enero	2023-09-01T00:00:00	2024-11-06T18:00:00	1	Precipitación	0
130128	7	Sololá	701	Sololá	2	El tablón	1	Enero	2023-09-01T00:00:00	2024-11-06T18:00:00	8	Radiación solar	32
130129	7	Sololá	701	Sololá	2	El tablón	1	Enero	2023-09-01T00:00:00	2024-11-06T19:00:00	2	Temperatura media	12.6
130130	7	Sololá	701	Sololá	2	El tablón	1	Enero	2023-09-01T00:00:00	2024-11-06T19:00:00	4	Temperatura máxima	13.3
130131	7	Sololá	701	Sololá	2	El tablón	1	Enero	2023-09-01T00:00:00	2024-11-06T19:00:00	3	Temperatura mínima	12.6
130132	7	Sololá	701	Sololá	2	El tablón	1	Enero	2023-09-01T00:00:00	2024-11-06T19:00:00	5	Humedad	85
130133	7	Sololá	701	Sololá	2	El tablón	1	Enero	2023-09-01T00:00:00	2024-11-06T19:00:00	6	Velocidad del viento	4.8
130134	7	Sololá	701	Sololá	2	El tablón	1	Enero	2023-09-01T00:00:00	2024-11-06T19:00:00	7	Dirección del viento	4.83
130135	7	Sololá	701	Sololá	2	El tablón	1	Enero	2023-09-01T00:00:00	2024-11-06T19:00:00	1	Precipitación	0
130136	7	Sololá	701	Sololá	2	El tablón	1	Enero	2023-09-01T00:00:00	2024-11-06T19:00:00	8	Radiación solar	0
130137	7	Sololá	701	Sololá	2	El tablón	1	Enero	2023-09-01T00:00:00	2024-11-06T20:00:00	2	Temperatura media	11.9
130138	7	Sololá	701	Sololá	2	El tablón	1	Enero	2023-09-01T00:00:00	2024-11-06T20:00:00	4	Temperatura máxima	12.6
130139	7	Sololá	701	Sololá	2	El tablón	1	Enero	2023-09-01T00:00:00	2024-11-06T20:00:00	3	Temperatura mínima	11.9
130140	7	Sololá	701	Sololá	2	El tablón	1	Enero	2023-09-01T00:00:00	2024-11-06T20:00:00	5	Humedad	88
130141	7	Sololá	701	Sololá	2	El tablón	1	Enero	2023-09-01T00:00:00	2024-11-06T20:00:00	6	Velocidad del viento	8
130142	7	Sololá	701	Sololá	2	El tablón	1	Enero	2023-09-01T00:00:00	2024-11-06T20:00:00	7	Dirección del viento	8.05
130143	7	Sololá	701	Sololá	2	El tablón	1	Enero	2023-09-01T00:00:00	2024-11-06T20:00:00	1	Precipitación	0
130144	7	Sololá	701	Sololá	2	El tablón	1	Enero	2023-09-01T00:00:00	2024-11-06T20:00:00	8	Radiación solar	0
130145	7	Sololá	701	Sololá	2	El tablón	1	Enero	2023-09-01T00:00:00	2024-11-06T21:00:00	2	Temperatura media	11.7
130146	7	Sololá	701	Sololá	2	El tablón	1	Enero	2023-09-01T00:00:00	2024-11-06T21:00:00	4	Temperatura máxima	11.9
130147	7	Sololá	701	Sololá	2	El tablón	1	Enero	2023-09-01T00:00:00	2024-11-06T21:00:00	3	Temperatura mínima	11.7
130148	7	Sololá	701	Sololá	2	El tablón	1	Enero	2023-09-01T00:00:00	2024-11-06T21:00:00	5	Humedad	88
130149	7	Sololá	701	Sololá	2	El tablón	1	Enero	2023-09-01T00:00:00	2024-11-06T21:00:00	6	Velocidad del viento	11.3
130150	7	Sololá	701	Sololá	2	El tablón	1	Enero	2023-09-01T00:00:00	2024-11-06T21:00:00	7	Dirección del viento	11.27
130151	7	Sololá	701	Sololá	2	El tablón	1	Enero	2023-09-01T00:00:00	2024-11-06T21:00:00	1	Precipitación	0
130152	7	Sololá	701	Sololá	2	El tablón	1	Enero	2023-09-01T00:00:00	2024-11-06T21:00:00	8	Radiación solar	0
130153	7	Sololá	701	Sololá	2	El tablón	1	Enero	2023-09-01T00:00:00	2024-11-06T22:00:00	2	Temperatura media	11.8
130154	7	Sololá	701	Sololá	2	El tablón	1	Enero	2023-09-01T00:00:00	2024-11-06T22:00:00	4	Temperatura máxima	11.8
130155	7	Sololá	701	Sololá	2	El tablón	1	Enero	2023-09-01T00:00:00	2024-11-06T22:00:00	3	Temperatura mínima	11.7
130156	7	Sololá	701	Sololá	2	El tablón	1	Enero	2023-09-01T00:00:00	2024-11-06T22:00:00	5	Humedad	88
130157	7	Sololá	701	Sololá	2	El tablón	1	Enero	2023-09-01T00:00:00	2024-11-06T22:00:00	6	Velocidad del viento	11.3
130158	7	Sololá	701	Sololá	2	El tablón	1	Enero	2023-09-01T00:00:00	2024-11-06T22:00:00	7	Dirección del viento	11.27
130159	7	Sololá	701	Sololá	2	El tablón	1	Enero	2023-09-01T00:00:00	2024-11-06T22:00:00	1	Precipitación	0
130160	7	Sololá	701	Sololá	2	El tablón	1	Enero	2023-09-01T00:00:00	2024-11-06T22:00:00	8	Radiación solar	0
130161	7	Sololá	701	Sololá	2	El tablón	1	Enero	2023-09-01T00:00:00	2024-11-06T23:00:00	2	Temperatura media	11.1
130162	7	Sololá	701	Sololá	2	El tablón	1	Enero	2023-09-01T00:00:00	2024-11-06T23:00:00	4	Temperatura máxima	11.8
130163	7	Sololá	701	Sololá	2	El tablón	1	Enero	2023-09-01T00:00:00	2024-11-06T23:00:00	3	Temperatura mínima	11.1
130164	7	Sololá	701	Sololá	2	El tablón	1	Enero	2023-09-01T00:00:00	2024-11-06T23:00:00	5	Humedad	90
130165	7	Sololá	701	Sololá	2	El tablón	1	Enero	2023-09-01T00:00:00	2024-11-06T23:00:00	6	Velocidad del viento	12.9
130166	7	Sololá	701	Sololá	2	El tablón	1	Enero	2023-09-01T00:00:00	2024-11-06T23:00:00	7	Dirección del viento	12.87
130167	7	Sololá	701	Sololá	2	El tablón	1	Enero	2023-09-01T00:00:00	2024-11-06T23:00:00	1	Precipitación	0
130168	7	Sololá	701	Sololá	2	El tablón	1	Enero	2023-09-01T00:00:00	2024-11-06T23:00:00	8	Radiación solar	0
130169	7	Sololá	701	Sololá	2	El tablón	1	Enero	2023-10-01T00:00:00	2024-11-06T00:00:00	2	Temperatura media	10.7
130170	7	Sololá	701	Sololá	2	El tablón	1	Enero	2023-10-01T00:00:00	2024-11-06T00:00:00	4	Temperatura máxima	11.1
130171	7	Sololá	701	Sololá	2	El tablón	1	Enero	2023-10-01T00:00:00	2024-11-06T00:00:00	3	Temperatura mínima	10.7
130172	7	Sololá	701	Sololá	2	El tablón	1	Enero	2023-10-01T00:00:00	2024-11-06T00:00:00	5	Humedad	89
130173	7	Sololá	701	Sololá	2	El tablón	1	Enero	2023-10-01T00:00:00	2024-11-06T00:00:00	6	Velocidad del viento	9.7
130174	7	Sololá	701	Sololá	2	El tablón	1	Enero	2023-10-01T00:00:00	2024-11-06T00:00:00	7	Dirección del viento	9.66
130175	7	Sololá	701	Sololá	2	El tablón	1	Enero	2023-10-01T00:00:00	2024-11-06T00:00:00	1	Precipitación	0
130176	7	Sololá	701	Sololá	2	El tablón	1	Enero	2023-10-01T00:00:00	2024-11-06T00:00:00	8	Radiación solar	0
130177	7	Sololá	701	Sololá	2	El tablón	1	Enero	2023-10-01T00:00:00	2024-11-06T01:00:00	2	Temperatura media	10.8
130178	7	Sololá	701	Sololá	2	El tablón	1	Enero	2023-10-01T00:00:00	2024-11-06T01:00:00	4	Temperatura máxima	10.8
130179	7	Sololá	701	Sololá	2	El tablón	1	Enero	2023-10-01T00:00:00	2024-11-06T01:00:00	3	Temperatura mínima	10.6
130180	7	Sololá	701	Sololá	2	El tablón	1	Enero	2023-10-01T00:00:00	2024-11-06T01:00:00	5	Humedad	89
130181	7	Sololá	701	Sololá	2	El tablón	1	Enero	2023-10-01T00:00:00	2024-11-06T01:00:00	6	Velocidad del viento	8
130182	7	Sololá	701	Sololá	2	El tablón	1	Enero	2023-10-01T00:00:00	2024-11-06T01:00:00	7	Dirección del viento	8.05
130183	7	Sololá	701	Sololá	2	El tablón	1	Enero	2023-10-01T00:00:00	2024-11-06T01:00:00	1	Precipitación	0
130184	7	Sololá	701	Sololá	2	El tablón	1	Enero	2023-10-01T00:00:00	2024-11-06T01:00:00	8	Radiación solar	0
130185	7	Sololá	701	Sololá	2	El tablón	1	Enero	2023-10-01T00:00:00	2024-11-06T02:00:00	2	Temperatura media	10.8
130186	7	Sololá	701	Sololá	2	El tablón	1	Enero	2023-10-01T00:00:00	2024-11-06T02:00:00	4	Temperatura máxima	11.2
130187	7	Sololá	701	Sololá	2	El tablón	1	Enero	2023-10-01T00:00:00	2024-11-06T02:00:00	3	Temperatura mínima	10.8
130188	7	Sololá	701	Sololá	2	El tablón	1	Enero	2023-10-01T00:00:00	2024-11-06T02:00:00	5	Humedad	86
130189	7	Sololá	701	Sololá	2	El tablón	1	Enero	2023-10-01T00:00:00	2024-11-06T02:00:00	6	Velocidad del viento	9.7
130190	7	Sololá	701	Sololá	2	El tablón	1	Enero	2023-10-01T00:00:00	2024-11-06T02:00:00	7	Dirección del viento	9.66
130191	7	Sololá	701	Sololá	2	El tablón	1	Enero	2023-10-01T00:00:00	2024-11-06T02:00:00	1	Precipitación	0
130192	7	Sololá	701	Sololá	2	El tablón	1	Enero	2023-10-01T00:00:00	2024-11-06T02:00:00	8	Radiación solar	0
130193	7	Sololá	701	Sololá	2	El tablón	1	Enero	2023-10-01T00:00:00	2024-11-06T03:00:00	2	Temperatura media	10.9
130194	7	Sololá	701	Sololá	2	El tablón	1	Enero	2023-10-01T00:00:00	2024-11-06T03:00:00	4	Temperatura máxima	11.1
130195	7	Sololá	701	Sololá	2	El tablón	1	Enero	2023-10-01T00:00:00	2024-11-06T03:00:00	3	Temperatura mínima	10.7
130196	7	Sololá	701	Sololá	2	El tablón	1	Enero	2023-10-01T00:00:00	2024-11-06T03:00:00	5	Humedad	84
130197	7	Sololá	701	Sololá	2	El tablón	1	Enero	2023-10-01T00:00:00	2024-11-06T03:00:00	6	Velocidad del viento	9.7
130198	7	Sololá	701	Sololá	2	El tablón	1	Enero	2023-10-01T00:00:00	2024-11-06T03:00:00	7	Dirección del viento	9.66
130199	7	Sololá	701	Sololá	2	El tablón	1	Enero	2023-10-01T00:00:00	2024-11-06T03:00:00	1	Precipitación	0
130200	7	Sololá	701	Sololá	2	El tablón	1	Enero	2023-10-01T00:00:00	2024-11-06T03:00:00	8	Radiación solar	0
130201	7	Sololá	701	Sololá	2	El tablón	1	Enero	2023-10-01T00:00:00	2024-11-06T04:00:00	2	Temperatura media	10.6
130202	7	Sololá	701	Sololá	2	El tablón	1	Enero	2023-10-01T00:00:00	2024-11-06T04:00:00	4	Temperatura máxima	11
130203	7	Sololá	701	Sololá	2	El tablón	1	Enero	2023-10-01T00:00:00	2024-11-06T04:00:00	3	Temperatura mínima	10.6
130204	7	Sololá	701	Sololá	2	El tablón	1	Enero	2023-10-01T00:00:00	2024-11-06T04:00:00	5	Humedad	83
130205	7	Sololá	701	Sololá	2	El tablón	1	Enero	2023-10-01T00:00:00	2024-11-06T04:00:00	6	Velocidad del viento	9.7
130206	7	Sololá	701	Sololá	2	El tablón	1	Enero	2023-10-01T00:00:00	2024-11-06T04:00:00	7	Dirección del viento	9.66
130207	7	Sololá	701	Sololá	2	El tablón	1	Enero	2023-10-01T00:00:00	2024-11-06T04:00:00	1	Precipitación	0
130208	7	Sololá	701	Sololá	2	El tablón	1	Enero	2023-10-01T00:00:00	2024-11-06T04:00:00	8	Radiación solar	0
130209	7	Sololá	701	Sololá	2	El tablón	1	Enero	2023-10-01T00:00:00	2024-11-06T05:00:00	2	Temperatura media	10.3
130210	7	Sololá	701	Sololá	2	El tablón	1	Enero	2023-10-01T00:00:00	2024-11-06T05:00:00	4	Temperatura máxima	10.7
130211	7	Sololá	701	Sololá	2	El tablón	1	Enero	2023-10-01T00:00:00	2024-11-06T05:00:00	3	Temperatura mínima	10.3
130212	7	Sololá	701	Sololá	2	El tablón	1	Enero	2023-10-01T00:00:00	2024-11-06T05:00:00	5	Humedad	83
130213	7	Sololá	701	Sololá	2	El tablón	1	Enero	2023-10-01T00:00:00	2024-11-06T05:00:00	6	Velocidad del viento	4.8
130214	7	Sololá	701	Sololá	2	El tablón	1	Enero	2023-10-01T00:00:00	2024-11-06T05:00:00	7	Dirección del viento	4.83
130215	7	Sololá	701	Sololá	2	El tablón	1	Enero	2023-10-01T00:00:00	2024-11-06T05:00:00	1	Precipitación	0
130216	7	Sololá	701	Sololá	2	El tablón	1	Enero	2023-10-01T00:00:00	2024-11-06T05:00:00	8	Radiación solar	0
130217	7	Sololá	701	Sololá	2	El tablón	1	Enero	2023-10-01T00:00:00	2024-11-06T06:00:00	2	Temperatura media	10.7
130218	7	Sololá	701	Sololá	2	El tablón	1	Enero	2023-10-01T00:00:00	2024-11-06T06:00:00	4	Temperatura máxima	10.8
130219	7	Sololá	701	Sololá	2	El tablón	1	Enero	2023-10-01T00:00:00	2024-11-06T06:00:00	3	Temperatura mínima	10.3
130220	7	Sololá	701	Sololá	2	El tablón	1	Enero	2023-10-01T00:00:00	2024-11-06T06:00:00	5	Humedad	82
130221	7	Sololá	701	Sololá	2	El tablón	1	Enero	2023-10-01T00:00:00	2024-11-06T06:00:00	6	Velocidad del viento	3.2
130222	7	Sololá	701	Sololá	2	El tablón	1	Enero	2023-10-01T00:00:00	2024-11-06T06:00:00	7	Dirección del viento	3.22
130223	7	Sololá	701	Sololá	2	El tablón	1	Enero	2023-10-01T00:00:00	2024-11-06T06:00:00	1	Precipitación	0
130224	7	Sololá	701	Sololá	2	El tablón	1	Enero	2023-10-01T00:00:00	2024-11-06T06:00:00	8	Radiación solar	0
130225	7	Sololá	701	Sololá	2	El tablón	1	Enero	2023-10-01T00:00:00	2024-11-06T07:00:00	2	Temperatura media	10.8
130226	7	Sololá	701	Sololá	2	El tablón	1	Enero	2023-10-01T00:00:00	2024-11-06T07:00:00	4	Temperatura máxima	10.8
130227	7	Sololá	701	Sololá	2	El tablón	1	Enero	2023-10-01T00:00:00	2024-11-06T07:00:00	3	Temperatura mínima	10.2
130228	7	Sololá	701	Sololá	2	El tablón	1	Enero	2023-10-01T00:00:00	2024-11-06T07:00:00	5	Humedad	81
130229	7	Sololá	701	Sololá	2	El tablón	1	Enero	2023-10-01T00:00:00	2024-11-06T07:00:00	6	Velocidad del viento	3.2
130230	7	Sololá	701	Sololá	2	El tablón	1	Enero	2023-10-01T00:00:00	2024-11-06T07:00:00	7	Dirección del viento	3.22
130231	7	Sololá	701	Sololá	2	El tablón	1	Enero	2023-10-01T00:00:00	2024-11-06T07:00:00	1	Precipitación	0
130232	7	Sololá	701	Sololá	2	El tablón	1	Enero	2023-10-01T00:00:00	2024-11-06T07:00:00	8	Radiación solar	5
130233	7	Sololá	701	Sololá	2	El tablón	1	Enero	2023-10-01T00:00:00	2024-11-06T08:00:00	2	Temperatura media	13.7
130234	7	Sololá	701	Sololá	2	El tablón	1	Enero	2023-10-01T00:00:00	2024-11-06T08:00:00	4	Temperatura máxima	13.7
130235	7	Sololá	701	Sololá	2	El tablón	1	Enero	2023-10-01T00:00:00	2024-11-06T08:00:00	3	Temperatura mínima	10.8
130236	7	Sololá	701	Sololá	2	El tablón	1	Enero	2023-10-01T00:00:00	2024-11-06T08:00:00	5	Humedad	74
130237	7	Sololá	701	Sololá	2	El tablón	1	Enero	2023-10-01T00:00:00	2024-11-06T08:00:00	6	Velocidad del viento	6.4
130238	7	Sololá	701	Sololá	2	El tablón	1	Enero	2023-10-01T00:00:00	2024-11-06T08:00:00	7	Dirección del viento	6.44
130239	7	Sololá	701	Sololá	2	El tablón	1	Enero	2023-10-01T00:00:00	2024-11-06T08:00:00	1	Precipitación	0
130240	7	Sololá	701	Sololá	2	El tablón	1	Enero	2023-10-01T00:00:00	2024-11-06T08:00:00	8	Radiación solar	114
130241	7	Sololá	701	Sololá	2	El tablón	1	Enero	2023-10-01T00:00:00	2024-11-06T09:00:00	2	Temperatura media	15.3
130242	7	Sololá	701	Sololá	2	El tablón	1	Enero	2023-10-01T00:00:00	2024-11-06T09:00:00	4	Temperatura máxima	15.3
130243	7	Sololá	701	Sololá	2	El tablón	1	Enero	2023-10-01T00:00:00	2024-11-06T09:00:00	3	Temperatura mínima	13.7
130244	7	Sololá	701	Sololá	2	El tablón	1	Enero	2023-10-01T00:00:00	2024-11-06T09:00:00	5	Humedad	71
130245	7	Sololá	701	Sololá	2	El tablón	1	Enero	2023-10-01T00:00:00	2024-11-06T09:00:00	6	Velocidad del viento	6.4
130246	7	Sololá	701	Sololá	2	El tablón	1	Enero	2023-10-01T00:00:00	2024-11-06T09:00:00	7	Dirección del viento	6.44
130247	7	Sololá	701	Sololá	2	El tablón	1	Enero	2023-10-01T00:00:00	2024-11-06T09:00:00	1	Precipitación	0
130248	7	Sololá	701	Sololá	2	El tablón	1	Enero	2023-10-01T00:00:00	2024-11-06T09:00:00	8	Radiación solar	323
130249	7	Sololá	701	Sololá	2	El tablón	1	Enero	2023-10-01T00:00:00	2024-11-06T10:00:00	2	Temperatura media	16.7
130250	7	Sololá	701	Sololá	2	El tablón	1	Enero	2023-10-01T00:00:00	2024-11-06T10:00:00	4	Temperatura máxima	16.7
130251	7	Sololá	701	Sololá	2	El tablón	1	Enero	2023-10-01T00:00:00	2024-11-06T10:00:00	3	Temperatura mínima	15.3
130252	7	Sololá	701	Sololá	2	El tablón	1	Enero	2023-10-01T00:00:00	2024-11-06T10:00:00	5	Humedad	65
130253	7	Sololá	701	Sololá	2	El tablón	1	Enero	2023-10-01T00:00:00	2024-11-06T10:00:00	6	Velocidad del viento	9.7
130254	7	Sololá	701	Sololá	2	El tablón	1	Enero	2023-10-01T00:00:00	2024-11-06T10:00:00	7	Dirección del viento	9.66
130255	7	Sololá	701	Sololá	2	El tablón	1	Enero	2023-10-01T00:00:00	2024-11-06T10:00:00	1	Precipitación	0
130256	7	Sololá	701	Sololá	2	El tablón	1	Enero	2023-10-01T00:00:00	2024-11-06T10:00:00	8	Radiación solar	510
130257	7	Sololá	701	Sololá	2	El tablón	1	Enero	2023-10-01T00:00:00	2024-11-06T11:00:00	2	Temperatura media	17.2
130258	7	Sololá	701	Sololá	2	El tablón	1	Enero	2023-10-01T00:00:00	2024-11-06T11:00:00	4	Temperatura máxima	17.2
130259	7	Sololá	701	Sololá	2	El tablón	1	Enero	2023-10-01T00:00:00	2024-11-06T11:00:00	3	Temperatura mínima	16.6
130260	7	Sololá	701	Sololá	2	El tablón	1	Enero	2023-10-01T00:00:00	2024-11-06T11:00:00	5	Humedad	64
130261	7	Sololá	701	Sololá	2	El tablón	1	Enero	2023-10-01T00:00:00	2024-11-06T11:00:00	6	Velocidad del viento	11.3
130262	7	Sololá	701	Sololá	2	El tablón	1	Enero	2023-10-01T00:00:00	2024-11-06T11:00:00	7	Dirección del viento	11.27
130263	7	Sololá	701	Sololá	2	El tablón	1	Enero	2023-10-01T00:00:00	2024-11-06T11:00:00	1	Precipitación	0
130264	7	Sololá	701	Sololá	2	El tablón	1	Enero	2023-10-01T00:00:00	2024-11-06T11:00:00	8	Radiación solar	652
130265	7	Sololá	701	Sololá	2	El tablón	1	Enero	2023-10-01T00:00:00	2024-11-06T12:00:00	2	Temperatura media	16.8
130266	7	Sololá	701	Sololá	2	El tablón	1	Enero	2023-10-01T00:00:00	2024-11-06T12:00:00	4	Temperatura máxima	17.7
130267	7	Sololá	701	Sololá	2	El tablón	1	Enero	2023-10-01T00:00:00	2024-11-06T12:00:00	3	Temperatura mínima	16.8
130268	7	Sololá	701	Sololá	2	El tablón	1	Enero	2023-10-01T00:00:00	2024-11-06T12:00:00	5	Humedad	66
130269	7	Sololá	701	Sololá	2	El tablón	1	Enero	2023-10-01T00:00:00	2024-11-06T12:00:00	6	Velocidad del viento	12.9
130270	7	Sololá	701	Sololá	2	El tablón	1	Enero	2023-10-01T00:00:00	2024-11-06T12:00:00	7	Dirección del viento	12.87
130271	7	Sololá	701	Sololá	2	El tablón	1	Enero	2023-10-01T00:00:00	2024-11-06T12:00:00	1	Precipitación	0
130272	7	Sololá	701	Sololá	2	El tablón	1	Enero	2023-10-01T00:00:00	2024-11-06T12:00:00	8	Radiación solar	603
130273	7	Sololá	701	Sololá	2	El tablón	1	Enero	2023-10-01T00:00:00	2024-11-06T13:00:00	2	Temperatura media	18.5
130274	7	Sololá	701	Sololá	2	El tablón	1	Enero	2023-10-01T00:00:00	2024-11-06T13:00:00	4	Temperatura máxima	18.6
130275	7	Sololá	701	Sololá	2	El tablón	1	Enero	2023-10-01T00:00:00	2024-11-06T13:00:00	3	Temperatura mínima	16.7
130276	7	Sololá	701	Sololá	2	El tablón	1	Enero	2023-10-01T00:00:00	2024-11-06T13:00:00	5	Humedad	76
130277	7	Sololá	701	Sololá	2	El tablón	1	Enero	2023-10-01T00:00:00	2024-11-06T13:00:00	6	Velocidad del viento	8
130278	7	Sololá	701	Sololá	2	El tablón	1	Enero	2023-10-01T00:00:00	2024-11-06T13:00:00	7	Dirección del viento	8.05
130279	7	Sololá	701	Sololá	2	El tablón	1	Enero	2023-10-01T00:00:00	2024-11-06T13:00:00	1	Precipitación	0
130280	7	Sololá	701	Sololá	2	El tablón	1	Enero	2023-10-01T00:00:00	2024-11-06T13:00:00	8	Radiación solar	509
130281	7	Sololá	701	Sololá	2	El tablón	1	Enero	2023-10-01T00:00:00	2024-11-06T14:00:00	2	Temperatura media	16
130282	7	Sololá	701	Sololá	2	El tablón	1	Enero	2023-10-01T00:00:00	2024-11-06T14:00:00	4	Temperatura máxima	18.7
130283	7	Sololá	701	Sololá	2	El tablón	1	Enero	2023-10-01T00:00:00	2024-11-06T14:00:00	3	Temperatura mínima	16
130284	7	Sololá	701	Sololá	2	El tablón	1	Enero	2023-10-01T00:00:00	2024-11-06T14:00:00	5	Humedad	84
130285	7	Sololá	701	Sololá	2	El tablón	1	Enero	2023-10-01T00:00:00	2024-11-06T14:00:00	6	Velocidad del viento	8
130286	7	Sololá	701	Sololá	2	El tablón	1	Enero	2023-10-01T00:00:00	2024-11-06T14:00:00	7	Dirección del viento	8.05
130287	7	Sololá	701	Sololá	2	El tablón	1	Enero	2023-10-01T00:00:00	2024-11-06T14:00:00	1	Precipitación	0
130288	7	Sololá	701	Sololá	2	El tablón	1	Enero	2023-10-01T00:00:00	2024-11-06T14:00:00	8	Radiación solar	493
130289	7	Sololá	701	Sololá	2	El tablón	1	Enero	2023-10-01T00:00:00	2024-11-06T15:00:00	2	Temperatura media	16.5
130290	7	Sololá	701	Sololá	2	El tablón	1	Enero	2023-10-01T00:00:00	2024-11-06T15:00:00	4	Temperatura máxima	17.1
130291	7	Sololá	701	Sololá	2	El tablón	1	Enero	2023-10-01T00:00:00	2024-11-06T15:00:00	3	Temperatura mínima	15.7
130292	7	Sololá	701	Sololá	2	El tablón	1	Enero	2023-10-01T00:00:00	2024-11-06T15:00:00	5	Humedad	70
130293	7	Sololá	701	Sololá	2	El tablón	1	Enero	2023-10-01T00:00:00	2024-11-06T15:00:00	6	Velocidad del viento	9.7
130294	7	Sololá	701	Sololá	2	El tablón	1	Enero	2023-10-01T00:00:00	2024-11-06T15:00:00	7	Dirección del viento	9.66
130295	7	Sololá	701	Sololá	2	El tablón	1	Enero	2023-10-01T00:00:00	2024-11-06T15:00:00	1	Precipitación	0
130296	7	Sololá	701	Sololá	2	El tablón	1	Enero	2023-10-01T00:00:00	2024-11-06T15:00:00	8	Radiación solar	316
130297	7	Sololá	701	Sololá	2	El tablón	1	Enero	2023-10-01T00:00:00	2024-11-06T16:00:00	2	Temperatura media	15.2
130298	7	Sololá	701	Sololá	2	El tablón	1	Enero	2023-10-01T00:00:00	2024-11-06T16:00:00	4	Temperatura máxima	17.3
130299	7	Sololá	701	Sololá	2	El tablón	1	Enero	2023-10-01T00:00:00	2024-11-06T16:00:00	3	Temperatura mínima	15.2
130300	7	Sololá	701	Sololá	2	El tablón	1	Enero	2023-10-01T00:00:00	2024-11-06T16:00:00	5	Humedad	75
130301	7	Sololá	701	Sololá	2	El tablón	1	Enero	2023-10-01T00:00:00	2024-11-06T16:00:00	6	Velocidad del viento	9.7
130302	7	Sololá	701	Sololá	2	El tablón	1	Enero	2023-10-01T00:00:00	2024-11-06T16:00:00	7	Dirección del viento	9.66
130303	7	Sololá	701	Sololá	2	El tablón	1	Enero	2023-10-01T00:00:00	2024-11-06T16:00:00	1	Precipitación	0
130304	7	Sololá	701	Sololá	2	El tablón	1	Enero	2023-10-01T00:00:00	2024-11-06T16:00:00	8	Radiación solar	177
130305	7	Sololá	701	Sololá	2	El tablón	1	Enero	2023-10-01T00:00:00	2024-11-06T17:00:00	2	Temperatura media	14
130306	7	Sololá	701	Sololá	2	El tablón	1	Enero	2023-10-01T00:00:00	2024-11-06T17:00:00	4	Temperatura máxima	15.7
130307	7	Sololá	701	Sololá	2	El tablón	1	Enero	2023-10-01T00:00:00	2024-11-06T17:00:00	3	Temperatura mínima	13.9
130308	7	Sololá	701	Sololá	2	El tablón	1	Enero	2023-10-01T00:00:00	2024-11-06T17:00:00	5	Humedad	80
130309	7	Sololá	701	Sololá	2	El tablón	1	Enero	2023-10-01T00:00:00	2024-11-06T17:00:00	6	Velocidad del viento	11.3
130310	7	Sololá	701	Sololá	2	El tablón	1	Enero	2023-10-01T00:00:00	2024-11-06T17:00:00	7	Dirección del viento	11.27
130311	7	Sololá	701	Sololá	2	El tablón	1	Enero	2023-10-01T00:00:00	2024-11-06T17:00:00	1	Precipitación	0
130312	7	Sololá	701	Sololá	2	El tablón	1	Enero	2023-10-01T00:00:00	2024-11-06T17:00:00	8	Radiación solar	193
130313	7	Sololá	701	Sololá	2	El tablón	1	Enero	2023-10-01T00:00:00	2024-11-06T18:00:00	2	Temperatura media	12.7
130314	7	Sololá	701	Sololá	2	El tablón	1	Enero	2023-10-01T00:00:00	2024-11-06T18:00:00	4	Temperatura máxima	14.1
130315	7	Sololá	701	Sololá	2	El tablón	1	Enero	2023-10-01T00:00:00	2024-11-06T18:00:00	3	Temperatura mínima	12.7
130316	7	Sololá	701	Sololá	2	El tablón	1	Enero	2023-10-01T00:00:00	2024-11-06T18:00:00	5	Humedad	84
130317	7	Sololá	701	Sololá	2	El tablón	1	Enero	2023-10-01T00:00:00	2024-11-06T18:00:00	6	Velocidad del viento	9.7
130318	7	Sololá	701	Sololá	2	El tablón	1	Enero	2023-10-01T00:00:00	2024-11-06T18:00:00	7	Dirección del viento	9.66
130319	7	Sololá	701	Sololá	2	El tablón	1	Enero	2023-10-01T00:00:00	2024-11-06T18:00:00	1	Precipitación	0
130320	7	Sololá	701	Sololá	2	El tablón	1	Enero	2023-10-01T00:00:00	2024-11-06T18:00:00	8	Radiación solar	19
130321	7	Sololá	701	Sololá	2	El tablón	1	Enero	2023-10-01T00:00:00	2024-11-06T19:00:00	2	Temperatura media	12.1
130322	7	Sololá	701	Sololá	2	El tablón	1	Enero	2023-10-01T00:00:00	2024-11-06T19:00:00	4	Temperatura máxima	12.7
130323	7	Sololá	701	Sololá	2	El tablón	1	Enero	2023-10-01T00:00:00	2024-11-06T19:00:00	3	Temperatura mínima	12.1
130324	7	Sololá	701	Sololá	2	El tablón	1	Enero	2023-10-01T00:00:00	2024-11-06T19:00:00	5	Humedad	86
130325	7	Sololá	701	Sololá	2	El tablón	1	Enero	2023-10-01T00:00:00	2024-11-06T19:00:00	6	Velocidad del viento	9.7
130326	7	Sololá	701	Sololá	2	El tablón	1	Enero	2023-10-01T00:00:00	2024-11-06T19:00:00	7	Dirección del viento	9.66
130327	7	Sololá	701	Sololá	2	El tablón	1	Enero	2023-10-01T00:00:00	2024-11-06T19:00:00	1	Precipitación	0
130328	7	Sololá	701	Sololá	2	El tablón	1	Enero	2023-10-01T00:00:00	2024-11-06T19:00:00	8	Radiación solar	0
130329	7	Sololá	701	Sololá	2	El tablón	1	Enero	2023-10-01T00:00:00	2024-11-06T20:00:00	2	Temperatura media	11.9
130330	7	Sololá	701	Sololá	2	El tablón	1	Enero	2023-10-01T00:00:00	2024-11-06T20:00:00	4	Temperatura máxima	12.1
130331	7	Sololá	701	Sololá	2	El tablón	1	Enero	2023-10-01T00:00:00	2024-11-06T20:00:00	3	Temperatura mínima	11.8
130332	7	Sololá	701	Sololá	2	El tablón	1	Enero	2023-10-01T00:00:00	2024-11-06T20:00:00	5	Humedad	87
130333	7	Sololá	701	Sololá	2	El tablón	1	Enero	2023-10-01T00:00:00	2024-11-06T20:00:00	6	Velocidad del viento	9.7
130334	7	Sololá	701	Sololá	2	El tablón	1	Enero	2023-10-01T00:00:00	2024-11-06T20:00:00	7	Dirección del viento	9.66
130335	7	Sololá	701	Sololá	2	El tablón	1	Enero	2023-10-01T00:00:00	2024-11-06T20:00:00	1	Precipitación	0
130336	7	Sololá	701	Sololá	2	El tablón	1	Enero	2023-10-01T00:00:00	2024-11-06T20:00:00	8	Radiación solar	0
130337	7	Sololá	701	Sololá	2	El tablón	1	Enero	2023-10-01T00:00:00	2024-11-06T21:00:00	2	Temperatura media	11.4
130338	7	Sololá	701	Sololá	2	El tablón	1	Enero	2023-10-01T00:00:00	2024-11-06T21:00:00	4	Temperatura máxima	11.9
130339	7	Sololá	701	Sololá	2	El tablón	1	Enero	2023-10-01T00:00:00	2024-11-06T21:00:00	3	Temperatura mínima	11.3
130340	7	Sololá	701	Sololá	2	El tablón	1	Enero	2023-10-01T00:00:00	2024-11-06T21:00:00	5	Humedad	88
130341	7	Sololá	701	Sololá	2	El tablón	1	Enero	2023-10-01T00:00:00	2024-11-06T21:00:00	6	Velocidad del viento	12.9
130342	7	Sololá	701	Sololá	2	El tablón	1	Enero	2023-10-01T00:00:00	2024-11-06T21:00:00	7	Dirección del viento	12.87
130343	7	Sololá	701	Sololá	2	El tablón	1	Enero	2023-10-01T00:00:00	2024-11-06T21:00:00	1	Precipitación	0
130344	7	Sololá	701	Sololá	2	El tablón	1	Enero	2023-10-01T00:00:00	2024-11-06T21:00:00	8	Radiación solar	0
130345	7	Sololá	701	Sololá	2	El tablón	1	Enero	2023-10-01T00:00:00	2024-11-06T22:00:00	2	Temperatura media	11.2
130346	7	Sololá	701	Sololá	2	El tablón	1	Enero	2023-10-01T00:00:00	2024-11-06T22:00:00	4	Temperatura máxima	11.4
130347	7	Sololá	701	Sololá	2	El tablón	1	Enero	2023-10-01T00:00:00	2024-11-06T22:00:00	3	Temperatura mínima	11.2
130348	7	Sololá	701	Sololá	2	El tablón	1	Enero	2023-10-01T00:00:00	2024-11-06T22:00:00	5	Humedad	88
130349	7	Sololá	701	Sololá	2	El tablón	1	Enero	2023-10-01T00:00:00	2024-11-06T22:00:00	6	Velocidad del viento	16.1
130350	7	Sololá	701	Sololá	2	El tablón	1	Enero	2023-10-01T00:00:00	2024-11-06T22:00:00	7	Dirección del viento	16.09
130351	7	Sololá	701	Sololá	2	El tablón	1	Enero	2023-10-01T00:00:00	2024-11-06T22:00:00	1	Precipitación	0
130352	7	Sololá	701	Sololá	2	El tablón	1	Enero	2023-10-01T00:00:00	2024-11-06T22:00:00	8	Radiación solar	0
130353	7	Sololá	701	Sololá	2	El tablón	1	Enero	2023-10-01T00:00:00	2024-11-06T23:00:00	2	Temperatura media	11.1
130354	7	Sololá	701	Sololá	2	El tablón	1	Enero	2023-10-01T00:00:00	2024-11-06T23:00:00	4	Temperatura máxima	11.2
130355	7	Sololá	701	Sololá	2	El tablón	1	Enero	2023-10-01T00:00:00	2024-11-06T23:00:00	3	Temperatura mínima	10.8
130356	7	Sololá	701	Sololá	2	El tablón	1	Enero	2023-10-01T00:00:00	2024-11-06T23:00:00	5	Humedad	89
130357	7	Sololá	701	Sololá	2	El tablón	1	Enero	2023-10-01T00:00:00	2024-11-06T23:00:00	6	Velocidad del viento	16.1
130358	7	Sololá	701	Sololá	2	El tablón	1	Enero	2023-10-01T00:00:00	2024-11-06T23:00:00	7	Dirección del viento	16.09
130359	7	Sololá	701	Sololá	2	El tablón	1	Enero	2023-10-01T00:00:00	2024-11-06T23:00:00	1	Precipitación	0
130360	7	Sololá	701	Sololá	2	El tablón	1	Enero	2023-10-01T00:00:00	2024-11-06T23:00:00	8	Radiación solar	0
130361	7	Sololá	701	Sololá	2	El tablón	1	Enero	2023-11-01T00:00:00	2024-11-06T00:00:00	2	Temperatura media	10.7
130362	7	Sololá	701	Sololá	2	El tablón	1	Enero	2023-11-01T00:00:00	2024-11-06T00:00:00	4	Temperatura máxima	11.1
130363	7	Sololá	701	Sololá	2	El tablón	1	Enero	2023-11-01T00:00:00	2024-11-06T00:00:00	3	Temperatura mínima	10.7
130364	7	Sololá	701	Sololá	2	El tablón	1	Enero	2023-11-01T00:00:00	2024-11-06T00:00:00	5	Humedad	90
130365	7	Sololá	701	Sololá	2	El tablón	1	Enero	2023-11-01T00:00:00	2024-11-06T00:00:00	6	Velocidad del viento	12.9
130366	7	Sololá	701	Sololá	2	El tablón	1	Enero	2023-11-01T00:00:00	2024-11-06T00:00:00	7	Dirección del viento	12.87
130367	7	Sololá	701	Sololá	2	El tablón	1	Enero	2023-11-01T00:00:00	2024-11-06T00:00:00	1	Precipitación	0
130368	7	Sololá	701	Sololá	2	El tablón	1	Enero	2023-11-01T00:00:00	2024-11-06T00:00:00	8	Radiación solar	0
130369	7	Sololá	701	Sololá	2	El tablón	1	Enero	2023-11-01T00:00:00	2024-11-06T01:00:00	2	Temperatura media	11.3
130370	7	Sololá	701	Sololá	2	El tablón	1	Enero	2023-11-01T00:00:00	2024-11-06T01:00:00	4	Temperatura máxima	11.3
130371	7	Sololá	701	Sololá	2	El tablón	1	Enero	2023-11-01T00:00:00	2024-11-06T01:00:00	3	Temperatura mínima	10.6
130372	7	Sololá	701	Sololá	2	El tablón	1	Enero	2023-11-01T00:00:00	2024-11-06T01:00:00	5	Humedad	87
130373	7	Sololá	701	Sololá	2	El tablón	1	Enero	2023-11-01T00:00:00	2024-11-06T01:00:00	6	Velocidad del viento	9.7
130374	7	Sololá	701	Sololá	2	El tablón	1	Enero	2023-11-01T00:00:00	2024-11-06T01:00:00	7	Dirección del viento	9.66
130375	7	Sololá	701	Sololá	2	El tablón	1	Enero	2023-11-01T00:00:00	2024-11-06T01:00:00	1	Precipitación	0
130376	7	Sololá	701	Sololá	2	El tablón	1	Enero	2023-11-01T00:00:00	2024-11-06T01:00:00	8	Radiación solar	0
130377	7	Sololá	701	Sololá	2	El tablón	1	Enero	2023-11-01T00:00:00	2024-11-06T02:00:00	2	Temperatura media	11.1
130378	7	Sololá	701	Sololá	2	El tablón	1	Enero	2023-11-01T00:00:00	2024-11-06T02:00:00	4	Temperatura máxima	11.3
130379	7	Sololá	701	Sololá	2	El tablón	1	Enero	2023-11-01T00:00:00	2024-11-06T02:00:00	3	Temperatura mínima	10.9
130380	7	Sololá	701	Sololá	2	El tablón	1	Enero	2023-11-01T00:00:00	2024-11-06T02:00:00	5	Humedad	89
130381	7	Sololá	701	Sololá	2	El tablón	1	Enero	2023-11-01T00:00:00	2024-11-06T02:00:00	6	Velocidad del viento	11.3
130382	7	Sololá	701	Sololá	2	El tablón	1	Enero	2023-11-01T00:00:00	2024-11-06T02:00:00	7	Dirección del viento	11.27
130383	7	Sololá	701	Sololá	2	El tablón	1	Enero	2023-11-01T00:00:00	2024-11-06T02:00:00	1	Precipitación	0
130384	7	Sololá	701	Sololá	2	El tablón	1	Enero	2023-11-01T00:00:00	2024-11-06T02:00:00	8	Radiación solar	0
130385	7	Sololá	701	Sololá	2	El tablón	1	Enero	2023-11-01T00:00:00	2024-11-06T03:00:00	2	Temperatura media	10.6
130386	7	Sololá	701	Sololá	2	El tablón	1	Enero	2023-11-01T00:00:00	2024-11-06T03:00:00	4	Temperatura máxima	11.1
130387	7	Sololá	701	Sololá	2	El tablón	1	Enero	2023-11-01T00:00:00	2024-11-06T03:00:00	3	Temperatura mínima	10.6
130388	7	Sololá	701	Sololá	2	El tablón	1	Enero	2023-11-01T00:00:00	2024-11-06T03:00:00	5	Humedad	90
130389	7	Sololá	701	Sololá	2	El tablón	1	Enero	2023-11-01T00:00:00	2024-11-06T03:00:00	6	Velocidad del viento	11.3
130390	7	Sololá	701	Sololá	2	El tablón	1	Enero	2023-11-01T00:00:00	2024-11-06T03:00:00	7	Dirección del viento	11.27
130391	7	Sololá	701	Sololá	2	El tablón	1	Enero	2023-11-01T00:00:00	2024-11-06T03:00:00	1	Precipitación	0
130392	7	Sololá	701	Sololá	2	El tablón	1	Enero	2023-11-01T00:00:00	2024-11-06T03:00:00	8	Radiación solar	0
130393	7	Sololá	701	Sololá	2	El tablón	1	Enero	2023-11-01T00:00:00	2024-11-06T04:00:00	2	Temperatura media	10.4
130394	7	Sololá	701	Sololá	2	El tablón	1	Enero	2023-11-01T00:00:00	2024-11-06T04:00:00	4	Temperatura máxima	10.6
130395	7	Sololá	701	Sololá	2	El tablón	1	Enero	2023-11-01T00:00:00	2024-11-06T04:00:00	3	Temperatura mínima	10.4
130396	7	Sololá	701	Sololá	2	El tablón	1	Enero	2023-11-01T00:00:00	2024-11-06T04:00:00	5	Humedad	90
130397	7	Sololá	701	Sololá	2	El tablón	1	Enero	2023-11-01T00:00:00	2024-11-06T04:00:00	6	Velocidad del viento	11.3
130398	7	Sololá	701	Sololá	2	El tablón	1	Enero	2023-11-01T00:00:00	2024-11-06T04:00:00	7	Dirección del viento	11.27
130399	7	Sololá	701	Sololá	2	El tablón	1	Enero	2023-11-01T00:00:00	2024-11-06T04:00:00	1	Precipitación	0
130400	7	Sololá	701	Sololá	2	El tablón	1	Enero	2023-11-01T00:00:00	2024-11-06T04:00:00	8	Radiación solar	0
130401	7	Sololá	701	Sololá	2	El tablón	1	Enero	2023-11-01T00:00:00	2024-11-06T05:00:00	2	Temperatura media	10.3
130402	7	Sololá	701	Sololá	2	El tablón	1	Enero	2023-11-01T00:00:00	2024-11-06T05:00:00	4	Temperatura máxima	10.5
130403	7	Sololá	701	Sololá	2	El tablón	1	Enero	2023-11-01T00:00:00	2024-11-06T05:00:00	3	Temperatura mínima	10.2
130404	7	Sololá	701	Sololá	2	El tablón	1	Enero	2023-11-01T00:00:00	2024-11-06T05:00:00	5	Humedad	91
130405	7	Sololá	701	Sololá	2	El tablón	1	Enero	2023-11-01T00:00:00	2024-11-06T05:00:00	6	Velocidad del viento	11.3
130406	7	Sololá	701	Sololá	2	El tablón	1	Enero	2023-11-01T00:00:00	2024-11-06T05:00:00	7	Dirección del viento	11.27
130407	7	Sololá	701	Sololá	2	El tablón	1	Enero	2023-11-01T00:00:00	2024-11-06T05:00:00	1	Precipitación	0
130408	7	Sololá	701	Sololá	2	El tablón	1	Enero	2023-11-01T00:00:00	2024-11-06T05:00:00	8	Radiación solar	0
130409	7	Sololá	701	Sololá	2	El tablón	1	Enero	2023-11-01T00:00:00	2024-11-06T06:00:00	2	Temperatura media	10.2
130410	7	Sololá	701	Sololá	2	El tablón	1	Enero	2023-11-01T00:00:00	2024-11-06T06:00:00	4	Temperatura máxima	10.3
130411	7	Sololá	701	Sololá	2	El tablón	1	Enero	2023-11-01T00:00:00	2024-11-06T06:00:00	3	Temperatura mínima	10.1
130412	7	Sololá	701	Sololá	2	El tablón	1	Enero	2023-11-01T00:00:00	2024-11-06T06:00:00	5	Humedad	91
130413	7	Sololá	701	Sololá	2	El tablón	1	Enero	2023-11-01T00:00:00	2024-11-06T06:00:00	6	Velocidad del viento	12.9
130414	7	Sololá	701	Sololá	2	El tablón	1	Enero	2023-11-01T00:00:00	2024-11-06T06:00:00	7	Dirección del viento	12.87
130415	7	Sololá	701	Sololá	2	El tablón	1	Enero	2023-11-01T00:00:00	2024-11-06T06:00:00	1	Precipitación	0
130416	7	Sololá	701	Sololá	2	El tablón	1	Enero	2023-11-01T00:00:00	2024-11-06T06:00:00	8	Radiación solar	0
130417	7	Sololá	701	Sololá	2	El tablón	1	Enero	2023-11-01T00:00:00	2024-11-06T07:00:00	2	Temperatura media	10.4
130418	7	Sololá	701	Sololá	2	El tablón	1	Enero	2023-11-01T00:00:00	2024-11-06T07:00:00	4	Temperatura máxima	10.4
130419	7	Sololá	701	Sololá	2	El tablón	1	Enero	2023-11-01T00:00:00	2024-11-06T07:00:00	3	Temperatura mínima	10.2
130420	7	Sololá	701	Sololá	2	El tablón	1	Enero	2023-11-01T00:00:00	2024-11-06T07:00:00	5	Humedad	90
130421	7	Sololá	701	Sololá	2	El tablón	1	Enero	2023-11-01T00:00:00	2024-11-06T07:00:00	6	Velocidad del viento	9.7
130422	7	Sololá	701	Sololá	2	El tablón	1	Enero	2023-11-01T00:00:00	2024-11-06T07:00:00	7	Dirección del viento	9.66
130423	7	Sololá	701	Sololá	2	El tablón	1	Enero	2023-11-01T00:00:00	2024-11-06T07:00:00	1	Precipitación	0
130424	7	Sololá	701	Sololá	2	El tablón	1	Enero	2023-11-01T00:00:00	2024-11-06T07:00:00	8	Radiación solar	5
130425	7	Sololá	701	Sololá	2	El tablón	1	Enero	2023-11-01T00:00:00	2024-11-06T08:00:00	2	Temperatura media	11
130426	7	Sololá	701	Sololá	2	El tablón	1	Enero	2023-11-01T00:00:00	2024-11-06T08:00:00	4	Temperatura máxima	11
130427	7	Sololá	701	Sololá	2	El tablón	1	Enero	2023-11-01T00:00:00	2024-11-06T08:00:00	3	Temperatura mínima	10.4
130428	7	Sololá	701	Sololá	2	El tablón	1	Enero	2023-11-01T00:00:00	2024-11-06T08:00:00	5	Humedad	89
130429	7	Sololá	701	Sololá	2	El tablón	1	Enero	2023-11-01T00:00:00	2024-11-06T08:00:00	6	Velocidad del viento	12.9
130430	7	Sololá	701	Sololá	2	El tablón	1	Enero	2023-11-01T00:00:00	2024-11-06T08:00:00	7	Dirección del viento	12.87
130431	7	Sololá	701	Sololá	2	El tablón	1	Enero	2023-11-01T00:00:00	2024-11-06T08:00:00	1	Precipitación	0
130432	7	Sololá	701	Sololá	2	El tablón	1	Enero	2023-11-01T00:00:00	2024-11-06T08:00:00	8	Radiación solar	63
130433	7	Sololá	701	Sololá	2	El tablón	1	Enero	2023-11-01T00:00:00	2024-11-06T09:00:00	2	Temperatura media	13.4
130434	7	Sololá	701	Sololá	2	El tablón	1	Enero	2023-11-01T00:00:00	2024-11-06T09:00:00	4	Temperatura máxima	13.4
130435	7	Sololá	701	Sololá	2	El tablón	1	Enero	2023-11-01T00:00:00	2024-11-06T09:00:00	3	Temperatura mínima	11
130436	7	Sololá	701	Sololá	2	El tablón	1	Enero	2023-11-01T00:00:00	2024-11-06T09:00:00	5	Humedad	81
130437	7	Sololá	701	Sololá	2	El tablón	1	Enero	2023-11-01T00:00:00	2024-11-06T09:00:00	6	Velocidad del viento	9.7
130438	7	Sololá	701	Sololá	2	El tablón	1	Enero	2023-11-01T00:00:00	2024-11-06T09:00:00	7	Dirección del viento	9.66
130439	7	Sololá	701	Sololá	2	El tablón	1	Enero	2023-11-01T00:00:00	2024-11-06T09:00:00	1	Precipitación	0
130440	7	Sololá	701	Sololá	2	El tablón	1	Enero	2023-11-01T00:00:00	2024-11-06T09:00:00	8	Radiación solar	272
130441	7	Sololá	701	Sololá	2	El tablón	1	Enero	2023-11-01T00:00:00	2024-11-06T10:00:00	2	Temperatura media	14.4
130442	7	Sololá	701	Sololá	2	El tablón	1	Enero	2023-11-01T00:00:00	2024-11-06T10:00:00	4	Temperatura máxima	14.5
130443	7	Sololá	701	Sololá	2	El tablón	1	Enero	2023-11-01T00:00:00	2024-11-06T10:00:00	3	Temperatura mínima	13.4
130444	7	Sololá	701	Sololá	2	El tablón	1	Enero	2023-11-01T00:00:00	2024-11-06T10:00:00	5	Humedad	76
130445	7	Sololá	701	Sololá	2	El tablón	1	Enero	2023-11-01T00:00:00	2024-11-06T10:00:00	6	Velocidad del viento	9.7
130446	7	Sololá	701	Sololá	2	El tablón	1	Enero	2023-11-01T00:00:00	2024-11-06T10:00:00	7	Dirección del viento	9.66
130447	7	Sololá	701	Sololá	2	El tablón	1	Enero	2023-11-01T00:00:00	2024-11-06T10:00:00	1	Precipitación	0
130448	7	Sololá	701	Sololá	2	El tablón	1	Enero	2023-11-01T00:00:00	2024-11-06T10:00:00	8	Radiación solar	495
130449	7	Sololá	701	Sololá	2	El tablón	1	Enero	2023-11-01T00:00:00	2024-11-06T11:00:00	2	Temperatura media	15.7
130450	7	Sololá	701	Sololá	2	El tablón	1	Enero	2023-11-01T00:00:00	2024-11-06T11:00:00	4	Temperatura máxima	15.9
130451	7	Sololá	701	Sololá	2	El tablón	1	Enero	2023-11-01T00:00:00	2024-11-06T11:00:00	3	Temperatura mínima	14.4
130452	7	Sololá	701	Sololá	2	El tablón	1	Enero	2023-11-01T00:00:00	2024-11-06T11:00:00	5	Humedad	72
130453	7	Sololá	701	Sololá	2	El tablón	1	Enero	2023-11-01T00:00:00	2024-11-06T11:00:00	6	Velocidad del viento	9.7
130454	7	Sololá	701	Sololá	2	El tablón	1	Enero	2023-11-01T00:00:00	2024-11-06T11:00:00	7	Dirección del viento	9.66
130455	7	Sololá	701	Sololá	2	El tablón	1	Enero	2023-11-01T00:00:00	2024-11-06T11:00:00	1	Precipitación	0
130456	7	Sololá	701	Sololá	2	El tablón	1	Enero	2023-11-01T00:00:00	2024-11-06T11:00:00	8	Radiación solar	672
130457	7	Sololá	701	Sololá	2	El tablón	1	Enero	2023-11-01T00:00:00	2024-11-06T12:00:00	2	Temperatura media	16.7
130458	7	Sololá	701	Sololá	2	El tablón	1	Enero	2023-11-01T00:00:00	2024-11-06T12:00:00	4	Temperatura máxima	16.7
130459	7	Sololá	701	Sololá	2	El tablón	1	Enero	2023-11-01T00:00:00	2024-11-06T12:00:00	3	Temperatura mínima	15.2
130460	7	Sololá	701	Sololá	2	El tablón	1	Enero	2023-11-01T00:00:00	2024-11-06T12:00:00	5	Humedad	67
130461	7	Sololá	701	Sololá	2	El tablón	1	Enero	2023-11-01T00:00:00	2024-11-06T12:00:00	6	Velocidad del viento	12.9
130462	7	Sololá	701	Sololá	2	El tablón	1	Enero	2023-11-01T00:00:00	2024-11-06T12:00:00	7	Dirección del viento	12.87
130463	7	Sololá	701	Sololá	2	El tablón	1	Enero	2023-11-01T00:00:00	2024-11-06T12:00:00	1	Precipitación	0
130464	7	Sololá	701	Sololá	2	El tablón	1	Enero	2023-11-01T00:00:00	2024-11-06T12:00:00	8	Radiación solar	652
130465	7	Sololá	701	Sololá	2	El tablón	1	Enero	2023-11-01T00:00:00	2024-11-06T13:00:00	2	Temperatura media	17.1
130466	7	Sololá	701	Sololá	2	El tablón	1	Enero	2023-11-01T00:00:00	2024-11-06T13:00:00	4	Temperatura máxima	17.5
130467	7	Sololá	701	Sololá	2	El tablón	1	Enero	2023-11-01T00:00:00	2024-11-06T13:00:00	3	Temperatura mínima	16.5
130468	7	Sololá	701	Sololá	2	El tablón	1	Enero	2023-11-01T00:00:00	2024-11-06T13:00:00	5	Humedad	64
130469	7	Sololá	701	Sololá	2	El tablón	1	Enero	2023-11-01T00:00:00	2024-11-06T13:00:00	6	Velocidad del viento	11.3
130470	7	Sololá	701	Sololá	2	El tablón	1	Enero	2023-11-01T00:00:00	2024-11-06T13:00:00	7	Dirección del viento	11.27
130471	7	Sololá	701	Sololá	2	El tablón	1	Enero	2023-11-01T00:00:00	2024-11-06T13:00:00	1	Precipitación	0
130472	7	Sololá	701	Sololá	2	El tablón	1	Enero	2023-11-01T00:00:00	2024-11-06T13:00:00	8	Radiación solar	748
130473	7	Sololá	701	Sololá	2	El tablón	1	Enero	2023-11-01T00:00:00	2024-11-06T14:00:00	2	Temperatura media	17.2
130474	7	Sololá	701	Sololá	2	El tablón	1	Enero	2023-11-01T00:00:00	2024-11-06T14:00:00	4	Temperatura máxima	17.4
130475	7	Sololá	701	Sololá	2	El tablón	1	Enero	2023-11-01T00:00:00	2024-11-06T14:00:00	3	Temperatura mínima	16.9
130476	7	Sololá	701	Sololá	2	El tablón	1	Enero	2023-11-01T00:00:00	2024-11-06T14:00:00	5	Humedad	63
130477	7	Sololá	701	Sololá	2	El tablón	1	Enero	2023-11-01T00:00:00	2024-11-06T14:00:00	6	Velocidad del viento	11.3
130478	7	Sololá	701	Sololá	2	El tablón	1	Enero	2023-11-01T00:00:00	2024-11-06T14:00:00	7	Dirección del viento	11.27
130479	7	Sololá	701	Sololá	2	El tablón	1	Enero	2023-11-01T00:00:00	2024-11-06T14:00:00	1	Precipitación	0
130480	7	Sololá	701	Sololá	2	El tablón	1	Enero	2023-11-01T00:00:00	2024-11-06T14:00:00	8	Radiación solar	557
130481	7	Sololá	701	Sololá	2	El tablón	1	Enero	2023-11-01T00:00:00	2024-11-06T15:00:00	2	Temperatura media	16
130482	7	Sololá	701	Sololá	2	El tablón	1	Enero	2023-11-01T00:00:00	2024-11-06T15:00:00	4	Temperatura máxima	17.1
130483	7	Sololá	701	Sololá	2	El tablón	1	Enero	2023-11-01T00:00:00	2024-11-06T15:00:00	3	Temperatura mínima	16
130484	7	Sololá	701	Sololá	2	El tablón	1	Enero	2023-11-01T00:00:00	2024-11-06T15:00:00	5	Humedad	70
130485	7	Sololá	701	Sololá	2	El tablón	1	Enero	2023-11-01T00:00:00	2024-11-06T15:00:00	6	Velocidad del viento	8
130486	7	Sololá	701	Sololá	2	El tablón	1	Enero	2023-11-01T00:00:00	2024-11-06T15:00:00	7	Dirección del viento	8.05
130487	7	Sololá	701	Sololá	2	El tablón	1	Enero	2023-11-01T00:00:00	2024-11-06T15:00:00	1	Precipitación	0
130488	7	Sololá	701	Sololá	2	El tablón	1	Enero	2023-11-01T00:00:00	2024-11-06T15:00:00	8	Radiación solar	220
130489	7	Sololá	701	Sololá	2	El tablón	1	Enero	2023-11-01T00:00:00	2024-11-06T16:00:00	2	Temperatura media	15.6
130490	7	Sololá	701	Sololá	2	El tablón	1	Enero	2023-11-01T00:00:00	2024-11-06T16:00:00	4	Temperatura máxima	16.2
130491	7	Sololá	701	Sololá	2	El tablón	1	Enero	2023-11-01T00:00:00	2024-11-06T16:00:00	3	Temperatura mínima	15.2
130492	7	Sololá	701	Sololá	2	El tablón	1	Enero	2023-11-01T00:00:00	2024-11-06T16:00:00	5	Humedad	73
130493	7	Sololá	701	Sololá	2	El tablón	1	Enero	2023-11-01T00:00:00	2024-11-06T16:00:00	6	Velocidad del viento	8
130494	7	Sololá	701	Sololá	2	El tablón	1	Enero	2023-11-01T00:00:00	2024-11-06T16:00:00	7	Dirección del viento	8.05
130495	7	Sololá	701	Sololá	2	El tablón	1	Enero	2023-11-01T00:00:00	2024-11-06T16:00:00	1	Precipitación	0
130496	7	Sololá	701	Sololá	2	El tablón	1	Enero	2023-11-01T00:00:00	2024-11-06T16:00:00	8	Radiación solar	165
130497	7	Sololá	701	Sololá	2	El tablón	1	Enero	2023-11-01T00:00:00	2024-11-06T17:00:00	2	Temperatura media	14
130498	7	Sololá	701	Sololá	2	El tablón	1	Enero	2023-11-01T00:00:00	2024-11-06T17:00:00	4	Temperatura máxima	15.6
130499	7	Sololá	701	Sololá	2	El tablón	1	Enero	2023-11-01T00:00:00	2024-11-06T17:00:00	3	Temperatura mínima	14
130500	7	Sololá	701	Sololá	2	El tablón	1	Enero	2023-11-01T00:00:00	2024-11-06T17:00:00	5	Humedad	79
130501	7	Sololá	701	Sololá	2	El tablón	1	Enero	2023-11-01T00:00:00	2024-11-06T17:00:00	6	Velocidad del viento	9.7
130502	7	Sololá	701	Sololá	2	El tablón	1	Enero	2023-11-01T00:00:00	2024-11-06T17:00:00	7	Dirección del viento	9.66
130503	7	Sololá	701	Sololá	2	El tablón	1	Enero	2023-11-01T00:00:00	2024-11-06T17:00:00	1	Precipitación	0
130504	7	Sololá	701	Sololá	2	El tablón	1	Enero	2023-11-01T00:00:00	2024-11-06T17:00:00	8	Radiación solar	100
130505	7	Sololá	701	Sololá	2	El tablón	1	Enero	2023-11-01T00:00:00	2024-11-06T18:00:00	2	Temperatura media	12.4
130506	7	Sololá	701	Sololá	2	El tablón	1	Enero	2023-11-01T00:00:00	2024-11-06T18:00:00	4	Temperatura máxima	14
130507	7	Sololá	701	Sololá	2	El tablón	1	Enero	2023-11-01T00:00:00	2024-11-06T18:00:00	3	Temperatura mínima	12.4
130508	7	Sololá	701	Sololá	2	El tablón	1	Enero	2023-11-01T00:00:00	2024-11-06T18:00:00	5	Humedad	84
130509	7	Sololá	701	Sololá	2	El tablón	1	Enero	2023-11-01T00:00:00	2024-11-06T18:00:00	6	Velocidad del viento	8
130510	7	Sololá	701	Sololá	2	El tablón	1	Enero	2023-11-01T00:00:00	2024-11-06T18:00:00	7	Dirección del viento	8.05
130511	7	Sololá	701	Sololá	2	El tablón	1	Enero	2023-11-01T00:00:00	2024-11-06T18:00:00	1	Precipitación	0
130512	7	Sololá	701	Sololá	2	El tablón	1	Enero	2023-11-01T00:00:00	2024-11-06T18:00:00	8	Radiación solar	31
130513	7	Sololá	701	Sololá	2	El tablón	1	Enero	2023-11-01T00:00:00	2024-11-06T19:00:00	2	Temperatura media	11.6
130514	7	Sololá	701	Sololá	2	El tablón	1	Enero	2023-11-01T00:00:00	2024-11-06T19:00:00	4	Temperatura máxima	12.4
130515	7	Sololá	701	Sololá	2	El tablón	1	Enero	2023-11-01T00:00:00	2024-11-06T19:00:00	3	Temperatura mínima	11.6
130516	7	Sololá	701	Sololá	2	El tablón	1	Enero	2023-11-01T00:00:00	2024-11-06T19:00:00	5	Humedad	87
130517	7	Sololá	701	Sololá	2	El tablón	1	Enero	2023-11-01T00:00:00	2024-11-06T19:00:00	6	Velocidad del viento	8
130518	7	Sololá	701	Sololá	2	El tablón	1	Enero	2023-11-01T00:00:00	2024-11-06T19:00:00	7	Dirección del viento	8.05
130519	7	Sololá	701	Sololá	2	El tablón	1	Enero	2023-11-01T00:00:00	2024-11-06T19:00:00	1	Precipitación	0
130520	7	Sololá	701	Sololá	2	El tablón	1	Enero	2023-11-01T00:00:00	2024-11-06T19:00:00	8	Radiación solar	0
130521	7	Sololá	701	Sololá	2	El tablón	1	Enero	2023-11-01T00:00:00	2024-11-06T20:00:00	2	Temperatura media	11.9
130522	7	Sololá	701	Sololá	2	El tablón	1	Enero	2023-11-01T00:00:00	2024-11-06T20:00:00	4	Temperatura máxima	11.9
130523	7	Sololá	701	Sololá	2	El tablón	1	Enero	2023-11-01T00:00:00	2024-11-06T20:00:00	3	Temperatura mínima	11.6
130524	7	Sololá	701	Sololá	2	El tablón	1	Enero	2023-11-01T00:00:00	2024-11-06T20:00:00	5	Humedad	87
130525	7	Sololá	701	Sololá	2	El tablón	1	Enero	2023-11-01T00:00:00	2024-11-06T20:00:00	6	Velocidad del viento	4.8
130526	7	Sololá	701	Sololá	2	El tablón	1	Enero	2023-11-01T00:00:00	2024-11-06T20:00:00	7	Dirección del viento	4.83
130527	7	Sololá	701	Sololá	2	El tablón	1	Enero	2023-11-01T00:00:00	2024-11-06T20:00:00	1	Precipitación	0
130528	7	Sololá	701	Sololá	2	El tablón	1	Enero	2023-11-01T00:00:00	2024-11-06T20:00:00	8	Radiación solar	0
130529	7	Sololá	701	Sololá	2	El tablón	1	Enero	2023-11-01T00:00:00	2024-11-06T21:00:00	2	Temperatura media	11.8
130530	7	Sololá	701	Sololá	2	El tablón	1	Enero	2023-11-01T00:00:00	2024-11-06T21:00:00	4	Temperatura máxima	12
130531	7	Sololá	701	Sololá	2	El tablón	1	Enero	2023-11-01T00:00:00	2024-11-06T21:00:00	3	Temperatura mínima	11.8
130532	7	Sololá	701	Sololá	2	El tablón	1	Enero	2023-11-01T00:00:00	2024-11-06T21:00:00	5	Humedad	88
130533	7	Sololá	701	Sololá	2	El tablón	1	Enero	2023-11-01T00:00:00	2024-11-06T21:00:00	6	Velocidad del viento	8
130534	7	Sololá	701	Sololá	2	El tablón	1	Enero	2023-11-01T00:00:00	2024-11-06T21:00:00	7	Dirección del viento	8.05
130535	7	Sololá	701	Sololá	2	El tablón	1	Enero	2023-11-01T00:00:00	2024-11-06T21:00:00	1	Precipitación	0
130536	7	Sololá	701	Sololá	2	El tablón	1	Enero	2023-11-01T00:00:00	2024-11-06T21:00:00	8	Radiación solar	0
130537	7	Sololá	701	Sololá	2	El tablón	1	Enero	2023-11-01T00:00:00	2024-11-06T22:00:00	2	Temperatura media	11.3
130538	7	Sololá	701	Sololá	2	El tablón	1	Enero	2023-11-01T00:00:00	2024-11-06T22:00:00	4	Temperatura máxima	11.8
130539	7	Sololá	701	Sololá	2	El tablón	1	Enero	2023-11-01T00:00:00	2024-11-06T22:00:00	3	Temperatura mínima	11.3
130540	7	Sololá	701	Sololá	2	El tablón	1	Enero	2023-11-01T00:00:00	2024-11-06T22:00:00	5	Humedad	87
130541	7	Sololá	701	Sololá	2	El tablón	1	Enero	2023-11-01T00:00:00	2024-11-06T22:00:00	6	Velocidad del viento	8
130542	7	Sololá	701	Sololá	2	El tablón	1	Enero	2023-11-01T00:00:00	2024-11-06T22:00:00	7	Dirección del viento	8.05
130543	7	Sololá	701	Sololá	2	El tablón	1	Enero	2023-11-01T00:00:00	2024-11-06T22:00:00	1	Precipitación	0
130544	7	Sololá	701	Sololá	2	El tablón	1	Enero	2023-11-01T00:00:00	2024-11-06T22:00:00	8	Radiación solar	0
130545	7	Sololá	701	Sololá	2	El tablón	1	Enero	2023-11-01T00:00:00	2024-11-06T23:00:00	2	Temperatura media	11.3
130546	7	Sololá	701	Sololá	2	El tablón	1	Enero	2023-11-01T00:00:00	2024-11-06T23:00:00	4	Temperatura máxima	11.4
130547	7	Sololá	701	Sololá	2	El tablón	1	Enero	2023-11-01T00:00:00	2024-11-06T23:00:00	3	Temperatura mínima	11.2
130548	7	Sololá	701	Sololá	2	El tablón	1	Enero	2023-11-01T00:00:00	2024-11-06T23:00:00	5	Humedad	86
130549	7	Sololá	701	Sololá	2	El tablón	1	Enero	2023-11-01T00:00:00	2024-11-06T23:00:00	6	Velocidad del viento	8
130550	7	Sololá	701	Sololá	2	El tablón	1	Enero	2023-11-01T00:00:00	2024-11-06T23:00:00	7	Dirección del viento	8.05
130551	7	Sololá	701	Sololá	2	El tablón	1	Enero	2023-11-01T00:00:00	2024-11-06T23:00:00	1	Precipitación	0
130552	7	Sololá	701	Sololá	2	El tablón	1	Enero	2023-11-01T00:00:00	2024-11-06T23:00:00	8	Radiación solar	0
130553	7	Sololá	701	Sololá	2	El tablón	1	Enero	2023-12-01T00:00:00	2024-11-06T00:00:00	2	Temperatura media	11
130554	7	Sololá	701	Sololá	2	El tablón	1	Enero	2023-12-01T00:00:00	2024-11-06T00:00:00	4	Temperatura máxima	11.3
130555	7	Sololá	701	Sololá	2	El tablón	1	Enero	2023-12-01T00:00:00	2024-11-06T00:00:00	3	Temperatura mínima	10.9
130556	7	Sololá	701	Sololá	2	El tablón	1	Enero	2023-12-01T00:00:00	2024-11-06T00:00:00	5	Humedad	85
130557	7	Sololá	701	Sololá	2	El tablón	1	Enero	2023-12-01T00:00:00	2024-11-06T00:00:00	6	Velocidad del viento	8
130558	7	Sololá	701	Sololá	2	El tablón	1	Enero	2023-12-01T00:00:00	2024-11-06T00:00:00	7	Dirección del viento	8.05
130559	7	Sololá	701	Sololá	2	El tablón	1	Enero	2023-12-01T00:00:00	2024-11-06T00:00:00	1	Precipitación	0
130560	7	Sololá	701	Sololá	2	El tablón	1	Enero	2023-12-01T00:00:00	2024-11-06T00:00:00	8	Radiación solar	0
130561	7	Sololá	701	Sololá	2	El tablón	1	Enero	2023-12-01T00:00:00	2024-11-06T01:00:00	2	Temperatura media	10.8
130562	7	Sololá	701	Sololá	2	El tablón	1	Enero	2023-12-01T00:00:00	2024-11-06T01:00:00	4	Temperatura máxima	11.1
130563	7	Sololá	701	Sololá	2	El tablón	1	Enero	2023-12-01T00:00:00	2024-11-06T01:00:00	3	Temperatura mínima	10.8
130564	7	Sololá	701	Sololá	2	El tablón	1	Enero	2023-12-01T00:00:00	2024-11-06T01:00:00	5	Humedad	86
130565	7	Sololá	701	Sololá	2	El tablón	1	Enero	2023-12-01T00:00:00	2024-11-06T01:00:00	6	Velocidad del viento	6.4
130566	7	Sololá	701	Sololá	2	El tablón	1	Enero	2023-12-01T00:00:00	2024-11-06T01:00:00	7	Dirección del viento	6.44
130567	7	Sololá	701	Sololá	2	El tablón	1	Enero	2023-12-01T00:00:00	2024-11-06T01:00:00	1	Precipitación	0
130568	7	Sololá	701	Sololá	2	El tablón	1	Enero	2023-12-01T00:00:00	2024-11-06T01:00:00	8	Radiación solar	0
130569	7	Sololá	701	Sololá	2	El tablón	1	Enero	2023-12-01T00:00:00	2024-11-06T02:00:00	2	Temperatura media	10.6
130570	7	Sololá	701	Sololá	2	El tablón	1	Enero	2023-12-01T00:00:00	2024-11-06T02:00:00	4	Temperatura máxima	11.2
130571	7	Sololá	701	Sololá	2	El tablón	1	Enero	2023-12-01T00:00:00	2024-11-06T02:00:00	3	Temperatura mínima	10.6
130572	7	Sololá	701	Sololá	2	El tablón	1	Enero	2023-12-01T00:00:00	2024-11-06T02:00:00	5	Humedad	87
130573	7	Sololá	701	Sololá	2	El tablón	1	Enero	2023-12-01T00:00:00	2024-11-06T02:00:00	6	Velocidad del viento	4.8
130574	7	Sololá	701	Sololá	2	El tablón	1	Enero	2023-12-01T00:00:00	2024-11-06T02:00:00	7	Dirección del viento	4.83
130575	7	Sololá	701	Sololá	2	El tablón	1	Enero	2023-12-01T00:00:00	2024-11-06T02:00:00	1	Precipitación	0
130576	7	Sololá	701	Sololá	2	El tablón	1	Enero	2023-12-01T00:00:00	2024-11-06T02:00:00	8	Radiación solar	0
130577	7	Sololá	701	Sololá	2	El tablón	1	Enero	2023-12-01T00:00:00	2024-11-06T03:00:00	2	Temperatura media	9.9
130578	7	Sololá	701	Sololá	2	El tablón	1	Enero	2023-12-01T00:00:00	2024-11-06T03:00:00	4	Temperatura máxima	10.6
130579	7	Sololá	701	Sololá	2	El tablón	1	Enero	2023-12-01T00:00:00	2024-11-06T03:00:00	3	Temperatura mínima	9.8
130580	7	Sololá	701	Sololá	2	El tablón	1	Enero	2023-12-01T00:00:00	2024-11-06T03:00:00	5	Humedad	87
130581	7	Sololá	701	Sololá	2	El tablón	1	Enero	2023-12-01T00:00:00	2024-11-06T03:00:00	6	Velocidad del viento	4.8
130582	7	Sololá	701	Sololá	2	El tablón	1	Enero	2023-12-01T00:00:00	2024-11-06T03:00:00	7	Dirección del viento	4.83
130583	7	Sololá	701	Sololá	2	El tablón	1	Enero	2023-12-01T00:00:00	2024-11-06T03:00:00	1	Precipitación	0
130584	7	Sololá	701	Sololá	2	El tablón	1	Enero	2023-12-01T00:00:00	2024-11-06T03:00:00	8	Radiación solar	0
130585	7	Sololá	701	Sololá	2	El tablón	1	Enero	2023-12-01T00:00:00	2024-11-06T04:00:00	2	Temperatura media	9.9
130586	7	Sololá	701	Sololá	2	El tablón	1	Enero	2023-12-01T00:00:00	2024-11-06T04:00:00	4	Temperatura máxima	10.1
130587	7	Sololá	701	Sololá	2	El tablón	1	Enero	2023-12-01T00:00:00	2024-11-06T04:00:00	3	Temperatura mínima	9.5
130588	7	Sololá	701	Sololá	2	El tablón	1	Enero	2023-12-01T00:00:00	2024-11-06T04:00:00	5	Humedad	86
130589	7	Sololá	701	Sololá	2	El tablón	1	Enero	2023-12-01T00:00:00	2024-11-06T04:00:00	6	Velocidad del viento	3.2
130590	7	Sololá	701	Sololá	2	El tablón	1	Enero	2023-12-01T00:00:00	2024-11-06T04:00:00	7	Dirección del viento	3.22
130591	7	Sololá	701	Sololá	2	El tablón	1	Enero	2023-12-01T00:00:00	2024-11-06T04:00:00	1	Precipitación	0
130592	7	Sololá	701	Sololá	2	El tablón	1	Enero	2023-12-01T00:00:00	2024-11-06T04:00:00	8	Radiación solar	0
130593	7	Sololá	701	Sololá	2	El tablón	1	Enero	2023-12-01T00:00:00	2024-11-06T05:00:00	2	Temperatura media	8.4
130594	7	Sololá	701	Sololá	2	El tablón	1	Enero	2023-12-01T00:00:00	2024-11-06T05:00:00	4	Temperatura máxima	9.9
130595	7	Sololá	701	Sololá	2	El tablón	1	Enero	2023-12-01T00:00:00	2024-11-06T05:00:00	3	Temperatura mínima	8.2
130596	7	Sololá	701	Sololá	2	El tablón	1	Enero	2023-12-01T00:00:00	2024-11-06T05:00:00	5	Humedad	89
130597	7	Sololá	701	Sololá	2	El tablón	1	Enero	2023-12-01T00:00:00	2024-11-06T05:00:00	6	Velocidad del viento	1.6
130598	7	Sololá	701	Sololá	2	El tablón	1	Enero	2023-12-01T00:00:00	2024-11-06T05:00:00	7	Dirección del viento	1.61
130599	7	Sololá	701	Sololá	2	El tablón	1	Enero	2023-12-01T00:00:00	2024-11-06T05:00:00	1	Precipitación	0
130600	7	Sololá	701	Sololá	2	El tablón	1	Enero	2023-12-01T00:00:00	2024-11-06T05:00:00	8	Radiación solar	0
130601	7	Sololá	701	Sololá	2	El tablón	1	Enero	2023-12-01T00:00:00	2024-11-06T06:00:00	2	Temperatura media	8.5
130602	7	Sololá	701	Sololá	2	El tablón	1	Enero	2023-12-01T00:00:00	2024-11-06T06:00:00	4	Temperatura máxima	9.3
130603	7	Sololá	701	Sololá	2	El tablón	1	Enero	2023-12-01T00:00:00	2024-11-06T06:00:00	3	Temperatura mínima	8.4
130604	7	Sololá	701	Sololá	2	El tablón	1	Enero	2023-12-01T00:00:00	2024-11-06T06:00:00	5	Humedad	87
130605	7	Sololá	701	Sololá	2	El tablón	1	Enero	2023-12-01T00:00:00	2024-11-06T06:00:00	6	Velocidad del viento	3.2
130606	7	Sololá	701	Sololá	2	El tablón	1	Enero	2023-12-01T00:00:00	2024-11-06T06:00:00	7	Dirección del viento	3.22
130607	7	Sololá	701	Sololá	2	El tablón	1	Enero	2023-12-01T00:00:00	2024-11-06T06:00:00	1	Precipitación	0
130608	7	Sololá	701	Sololá	2	El tablón	1	Enero	2023-12-01T00:00:00	2024-11-06T06:00:00	8	Radiación solar	0
130609	7	Sololá	701	Sololá	2	El tablón	1	Enero	2023-12-01T00:00:00	2024-11-06T07:00:00	2	Temperatura media	9.1
130610	7	Sololá	701	Sololá	2	El tablón	1	Enero	2023-12-01T00:00:00	2024-11-06T07:00:00	4	Temperatura máxima	9.1
130611	7	Sololá	701	Sololá	2	El tablón	1	Enero	2023-12-01T00:00:00	2024-11-06T07:00:00	3	Temperatura mínima	8.1
130612	7	Sololá	701	Sololá	2	El tablón	1	Enero	2023-12-01T00:00:00	2024-11-06T07:00:00	5	Humedad	86
130613	7	Sololá	701	Sololá	2	El tablón	1	Enero	2023-12-01T00:00:00	2024-11-06T07:00:00	6	Velocidad del viento	3.2
130614	7	Sololá	701	Sololá	2	El tablón	1	Enero	2023-12-01T00:00:00	2024-11-06T07:00:00	7	Dirección del viento	3.22
130615	7	Sololá	701	Sololá	2	El tablón	1	Enero	2023-12-01T00:00:00	2024-11-06T07:00:00	1	Precipitación	0
130616	7	Sololá	701	Sololá	2	El tablón	1	Enero	2023-12-01T00:00:00	2024-11-06T07:00:00	8	Radiación solar	4
130617	7	Sololá	701	Sololá	2	El tablón	1	Enero	2023-12-01T00:00:00	2024-11-06T08:00:00	2	Temperatura media	11.8
130618	7	Sololá	701	Sololá	2	El tablón	1	Enero	2023-12-01T00:00:00	2024-11-06T08:00:00	4	Temperatura máxima	11.8
130619	7	Sololá	701	Sololá	2	El tablón	1	Enero	2023-12-01T00:00:00	2024-11-06T08:00:00	3	Temperatura mínima	9.1
130620	7	Sololá	701	Sololá	2	El tablón	1	Enero	2023-12-01T00:00:00	2024-11-06T08:00:00	5	Humedad	83
130621	7	Sololá	701	Sololá	2	El tablón	1	Enero	2023-12-01T00:00:00	2024-11-06T08:00:00	6	Velocidad del viento	3.2
130622	7	Sololá	701	Sololá	2	El tablón	1	Enero	2023-12-01T00:00:00	2024-11-06T08:00:00	7	Dirección del viento	3.22
130623	7	Sololá	701	Sololá	2	El tablón	1	Enero	2023-12-01T00:00:00	2024-11-06T08:00:00	1	Precipitación	0
130624	7	Sololá	701	Sololá	2	El tablón	1	Enero	2023-12-01T00:00:00	2024-11-06T08:00:00	8	Radiación solar	116
130625	7	Sololá	701	Sololá	2	El tablón	1	Enero	2023-12-01T00:00:00	2024-11-06T09:00:00	2	Temperatura media	15.5
130626	7	Sololá	701	Sololá	2	El tablón	1	Enero	2023-12-01T00:00:00	2024-11-06T09:00:00	4	Temperatura máxima	15.5
130627	7	Sololá	701	Sololá	2	El tablón	1	Enero	2023-12-01T00:00:00	2024-11-06T09:00:00	3	Temperatura mínima	11.8
130628	7	Sololá	701	Sololá	2	El tablón	1	Enero	2023-12-01T00:00:00	2024-11-06T09:00:00	5	Humedad	68
130629	7	Sololá	701	Sololá	2	El tablón	1	Enero	2023-12-01T00:00:00	2024-11-06T09:00:00	6	Velocidad del viento	1.6
130630	7	Sololá	701	Sololá	2	El tablón	1	Enero	2023-12-01T00:00:00	2024-11-06T09:00:00	7	Dirección del viento	1.61
130631	7	Sololá	701	Sololá	2	El tablón	1	Enero	2023-12-01T00:00:00	2024-11-06T09:00:00	1	Precipitación	0
130632	7	Sololá	701	Sololá	2	El tablón	1	Enero	2023-12-01T00:00:00	2024-11-06T09:00:00	8	Radiación solar	325
130633	7	Sololá	701	Sololá	2	El tablón	1	Enero	2023-12-01T00:00:00	2024-11-06T10:00:00	2	Temperatura media	16.7
130634	7	Sololá	701	Sololá	2	El tablón	1	Enero	2023-12-01T00:00:00	2024-11-06T10:00:00	4	Temperatura máxima	16.7
130635	7	Sololá	701	Sololá	2	El tablón	1	Enero	2023-12-01T00:00:00	2024-11-06T10:00:00	3	Temperatura mínima	15.5
130636	7	Sololá	701	Sololá	2	El tablón	1	Enero	2023-12-01T00:00:00	2024-11-06T10:00:00	5	Humedad	63
130637	7	Sololá	701	Sololá	2	El tablón	1	Enero	2023-12-01T00:00:00	2024-11-06T10:00:00	6	Velocidad del viento	4.8
130638	7	Sololá	701	Sololá	2	El tablón	1	Enero	2023-12-01T00:00:00	2024-11-06T10:00:00	7	Dirección del viento	4.83
130639	7	Sololá	701	Sololá	2	El tablón	1	Enero	2023-12-01T00:00:00	2024-11-06T10:00:00	1	Precipitación	0
130640	7	Sololá	701	Sololá	2	El tablón	1	Enero	2023-12-01T00:00:00	2024-11-06T10:00:00	8	Radiación solar	513
130641	7	Sololá	701	Sololá	2	El tablón	1	Enero	2023-12-01T00:00:00	2024-11-06T11:00:00	2	Temperatura media	17.3
130642	7	Sololá	701	Sololá	2	El tablón	1	Enero	2023-12-01T00:00:00	2024-11-06T11:00:00	4	Temperatura máxima	17.7
130643	7	Sololá	701	Sololá	2	El tablón	1	Enero	2023-12-01T00:00:00	2024-11-06T11:00:00	3	Temperatura mínima	16.7
130644	7	Sololá	701	Sololá	2	El tablón	1	Enero	2023-12-01T00:00:00	2024-11-06T11:00:00	5	Humedad	70
130645	7	Sololá	701	Sololá	2	El tablón	1	Enero	2023-12-01T00:00:00	2024-11-06T11:00:00	6	Velocidad del viento	4.8
130646	7	Sololá	701	Sololá	2	El tablón	1	Enero	2023-12-01T00:00:00	2024-11-06T11:00:00	7	Dirección del viento	4.83
130647	7	Sololá	701	Sololá	2	El tablón	1	Enero	2023-12-01T00:00:00	2024-11-06T11:00:00	1	Precipitación	0
130648	7	Sololá	701	Sololá	2	El tablón	1	Enero	2023-12-01T00:00:00	2024-11-06T11:00:00	8	Radiación solar	670
130649	7	Sololá	701	Sololá	2	El tablón	1	Enero	2023-12-01T00:00:00	2024-11-06T12:00:00	2	Temperatura media	17.7
130650	7	Sololá	701	Sololá	2	El tablón	1	Enero	2023-12-01T00:00:00	2024-11-06T12:00:00	4	Temperatura máxima	17.7
130651	7	Sololá	701	Sololá	2	El tablón	1	Enero	2023-12-01T00:00:00	2024-11-06T12:00:00	3	Temperatura mínima	16.8
130652	7	Sololá	701	Sololá	2	El tablón	1	Enero	2023-12-01T00:00:00	2024-11-06T12:00:00	5	Humedad	69
130653	7	Sololá	701	Sololá	2	El tablón	1	Enero	2023-12-01T00:00:00	2024-11-06T12:00:00	6	Velocidad del viento	8
130654	7	Sololá	701	Sololá	2	El tablón	1	Enero	2023-12-01T00:00:00	2024-11-06T12:00:00	7	Dirección del viento	8.05
130655	7	Sololá	701	Sololá	2	El tablón	1	Enero	2023-12-01T00:00:00	2024-11-06T12:00:00	1	Precipitación	0
130656	7	Sololá	701	Sololá	2	El tablón	1	Enero	2023-12-01T00:00:00	2024-11-06T12:00:00	8	Radiación solar	678
130657	7	Sololá	701	Sololá	2	El tablón	1	Enero	2023-12-01T00:00:00	2024-11-06T13:00:00	2	Temperatura media	17.1
130658	7	Sololá	701	Sololá	2	El tablón	1	Enero	2023-12-01T00:00:00	2024-11-06T13:00:00	4	Temperatura máxima	18.5
130659	7	Sololá	701	Sololá	2	El tablón	1	Enero	2023-12-01T00:00:00	2024-11-06T13:00:00	3	Temperatura mínima	17
130660	7	Sololá	701	Sololá	2	El tablón	1	Enero	2023-12-01T00:00:00	2024-11-06T13:00:00	5	Humedad	77
130661	7	Sololá	701	Sololá	2	El tablón	1	Enero	2023-12-01T00:00:00	2024-11-06T13:00:00	6	Velocidad del viento	9.7
130662	7	Sololá	701	Sololá	2	El tablón	1	Enero	2023-12-01T00:00:00	2024-11-06T13:00:00	7	Dirección del viento	9.66
130663	7	Sololá	701	Sololá	2	El tablón	1	Enero	2023-12-01T00:00:00	2024-11-06T13:00:00	1	Precipitación	0
130664	7	Sololá	701	Sololá	2	El tablón	1	Enero	2023-12-01T00:00:00	2024-11-06T13:00:00	8	Radiación solar	786
130665	7	Sololá	701	Sololá	2	El tablón	1	Enero	2023-12-01T00:00:00	2024-11-06T14:00:00	2	Temperatura media	16.3
130666	7	Sololá	701	Sololá	2	El tablón	1	Enero	2023-12-01T00:00:00	2024-11-06T14:00:00	4	Temperatura máxima	17.1
130667	7	Sololá	701	Sololá	2	El tablón	1	Enero	2023-12-01T00:00:00	2024-11-06T14:00:00	3	Temperatura mínima	16.3
130668	7	Sololá	701	Sololá	2	El tablón	1	Enero	2023-12-01T00:00:00	2024-11-06T14:00:00	5	Humedad	82
130669	7	Sololá	701	Sololá	2	El tablón	1	Enero	2023-12-01T00:00:00	2024-11-06T14:00:00	6	Velocidad del viento	9.7
130670	7	Sololá	701	Sololá	2	El tablón	1	Enero	2023-12-01T00:00:00	2024-11-06T14:00:00	7	Dirección del viento	9.66
130671	7	Sololá	701	Sololá	2	El tablón	1	Enero	2023-12-01T00:00:00	2024-11-06T14:00:00	1	Precipitación	0
130672	7	Sololá	701	Sololá	2	El tablón	1	Enero	2023-12-01T00:00:00	2024-11-06T14:00:00	8	Radiación solar	794
130673	7	Sololá	701	Sololá	2	El tablón	1	Enero	2023-12-01T00:00:00	2024-11-06T15:00:00	2	Temperatura media	15.5
130674	7	Sololá	701	Sololá	2	El tablón	1	Enero	2023-12-01T00:00:00	2024-11-06T15:00:00	4	Temperatura máxima	16.6
130675	7	Sololá	701	Sololá	2	El tablón	1	Enero	2023-12-01T00:00:00	2024-11-06T15:00:00	3	Temperatura mínima	15.4
130676	7	Sololá	701	Sololá	2	El tablón	1	Enero	2023-12-01T00:00:00	2024-11-06T15:00:00	5	Humedad	86
130677	7	Sololá	701	Sololá	2	El tablón	1	Enero	2023-12-01T00:00:00	2024-11-06T15:00:00	6	Velocidad del viento	9.7
130678	7	Sololá	701	Sololá	2	El tablón	1	Enero	2023-12-01T00:00:00	2024-11-06T15:00:00	7	Dirección del viento	9.66
130679	7	Sololá	701	Sololá	2	El tablón	1	Enero	2023-12-01T00:00:00	2024-11-06T15:00:00	1	Precipitación	0
130680	7	Sololá	701	Sololá	2	El tablón	1	Enero	2023-12-01T00:00:00	2024-11-06T15:00:00	8	Radiación solar	604
130681	7	Sololá	701	Sololá	2	El tablón	1	Enero	2023-12-01T00:00:00	2024-11-06T16:00:00	2	Temperatura media	14.7
130682	7	Sololá	701	Sololá	2	El tablón	1	Enero	2023-12-01T00:00:00	2024-11-06T16:00:00	4	Temperatura máxima	15.5
130683	7	Sololá	701	Sololá	2	El tablón	1	Enero	2023-12-01T00:00:00	2024-11-06T16:00:00	3	Temperatura mínima	14.7
130684	7	Sololá	701	Sololá	2	El tablón	1	Enero	2023-12-01T00:00:00	2024-11-06T16:00:00	5	Humedad	88
130685	7	Sololá	701	Sololá	2	El tablón	1	Enero	2023-12-01T00:00:00	2024-11-06T16:00:00	6	Velocidad del viento	8
130686	7	Sololá	701	Sololá	2	El tablón	1	Enero	2023-12-01T00:00:00	2024-11-06T16:00:00	7	Dirección del viento	8.05
130687	7	Sololá	701	Sololá	2	El tablón	1	Enero	2023-12-01T00:00:00	2024-11-06T16:00:00	1	Precipitación	0
130688	7	Sololá	701	Sololá	2	El tablón	1	Enero	2023-12-01T00:00:00	2024-11-06T16:00:00	8	Radiación solar	227
130689	7	Sololá	701	Sololá	2	El tablón	1	Enero	2023-12-01T00:00:00	2024-11-06T17:00:00	2	Temperatura media	14.1
130690	7	Sololá	701	Sololá	2	El tablón	1	Enero	2023-12-01T00:00:00	2024-11-06T17:00:00	4	Temperatura máxima	14.7
130691	7	Sololá	701	Sololá	2	El tablón	1	Enero	2023-12-01T00:00:00	2024-11-06T17:00:00	3	Temperatura mínima	14.1
130692	7	Sololá	701	Sololá	2	El tablón	1	Enero	2023-12-01T00:00:00	2024-11-06T17:00:00	5	Humedad	89
130693	7	Sololá	701	Sololá	2	El tablón	1	Enero	2023-12-01T00:00:00	2024-11-06T17:00:00	6	Velocidad del viento	3.2
130694	7	Sololá	701	Sololá	2	El tablón	1	Enero	2023-12-01T00:00:00	2024-11-06T17:00:00	7	Dirección del viento	3.22
130695	7	Sololá	701	Sololá	2	El tablón	1	Enero	2023-12-01T00:00:00	2024-11-06T17:00:00	1	Precipitación	0
130696	7	Sololá	701	Sololá	2	El tablón	1	Enero	2023-12-01T00:00:00	2024-11-06T17:00:00	8	Radiación solar	101
130697	7	Sololá	701	Sololá	2	El tablón	1	Enero	2023-12-01T00:00:00	2024-11-06T18:00:00	2	Temperatura media	13.6
130698	7	Sololá	701	Sololá	2	El tablón	1	Enero	2023-12-01T00:00:00	2024-11-06T18:00:00	4	Temperatura máxima	14.1
130699	7	Sololá	701	Sololá	2	El tablón	1	Enero	2023-12-01T00:00:00	2024-11-06T18:00:00	3	Temperatura mínima	13.6
130700	7	Sololá	701	Sololá	2	El tablón	1	Enero	2023-12-01T00:00:00	2024-11-06T18:00:00	5	Humedad	90
130701	7	Sololá	701	Sololá	2	El tablón	1	Enero	2023-12-01T00:00:00	2024-11-06T18:00:00	6	Velocidad del viento	1.6
130702	7	Sololá	701	Sololá	2	El tablón	1	Enero	2023-12-01T00:00:00	2024-11-06T18:00:00	7	Dirección del viento	1.61
130703	7	Sololá	701	Sololá	2	El tablón	1	Enero	2023-12-01T00:00:00	2024-11-06T18:00:00	1	Precipitación	0
130704	7	Sololá	701	Sololá	2	El tablón	1	Enero	2023-12-01T00:00:00	2024-11-06T18:00:00	8	Radiación solar	22
130705	7	Sololá	701	Sololá	2	El tablón	1	Enero	2023-12-01T00:00:00	2024-11-06T19:00:00	2	Temperatura media	12.4
130706	7	Sololá	701	Sololá	2	El tablón	1	Enero	2023-12-01T00:00:00	2024-11-06T19:00:00	4	Temperatura máxima	13.6
130707	7	Sololá	701	Sololá	2	El tablón	1	Enero	2023-12-01T00:00:00	2024-11-06T19:00:00	3	Temperatura mínima	12.4
130708	7	Sololá	701	Sololá	2	El tablón	1	Enero	2023-12-01T00:00:00	2024-11-06T19:00:00	5	Humedad	90
130709	7	Sololá	701	Sololá	2	El tablón	1	Enero	2023-12-01T00:00:00	2024-11-06T19:00:00	6	Velocidad del viento	1.6
130710	7	Sololá	701	Sololá	2	El tablón	1	Enero	2023-12-01T00:00:00	2024-11-06T19:00:00	7	Dirección del viento	1.61
130711	7	Sololá	701	Sololá	2	El tablón	1	Enero	2023-12-01T00:00:00	2024-11-06T19:00:00	1	Precipitación	0
130712	7	Sololá	701	Sololá	2	El tablón	1	Enero	2023-12-01T00:00:00	2024-11-06T19:00:00	8	Radiación solar	0
130713	7	Sololá	701	Sololá	2	El tablón	1	Enero	2023-12-01T00:00:00	2024-11-06T20:00:00	2	Temperatura media	12.9
130714	7	Sololá	701	Sololá	2	El tablón	1	Enero	2023-12-01T00:00:00	2024-11-06T20:00:00	4	Temperatura máxima	12.9
130715	7	Sololá	701	Sololá	2	El tablón	1	Enero	2023-12-01T00:00:00	2024-11-06T20:00:00	3	Temperatura mínima	12.4
130716	7	Sololá	701	Sololá	2	El tablón	1	Enero	2023-12-01T00:00:00	2024-11-06T20:00:00	5	Humedad	88
130717	7	Sololá	701	Sololá	2	El tablón	1	Enero	2023-12-01T00:00:00	2024-11-06T20:00:00	6	Velocidad del viento	4.8
130718	7	Sololá	701	Sololá	2	El tablón	1	Enero	2023-12-01T00:00:00	2024-11-06T20:00:00	7	Dirección del viento	4.83
130719	7	Sololá	701	Sololá	2	El tablón	1	Enero	2023-12-01T00:00:00	2024-11-06T20:00:00	1	Precipitación	0
130720	7	Sololá	701	Sololá	2	El tablón	1	Enero	2023-12-01T00:00:00	2024-11-06T20:00:00	8	Radiación solar	0
130721	7	Sololá	701	Sololá	2	El tablón	1	Enero	2023-12-01T00:00:00	2024-11-06T21:00:00	2	Temperatura media	12.2
130722	7	Sololá	701	Sololá	2	El tablón	1	Enero	2023-12-01T00:00:00	2024-11-06T21:00:00	4	Temperatura máxima	13
130723	7	Sololá	701	Sololá	2	El tablón	1	Enero	2023-12-01T00:00:00	2024-11-06T21:00:00	3	Temperatura mínima	12.2
130724	7	Sololá	701	Sololá	2	El tablón	1	Enero	2023-12-01T00:00:00	2024-11-06T21:00:00	5	Humedad	88
130725	7	Sololá	701	Sololá	2	El tablón	1	Enero	2023-12-01T00:00:00	2024-11-06T21:00:00	6	Velocidad del viento	9.7
130726	7	Sololá	701	Sololá	2	El tablón	1	Enero	2023-12-01T00:00:00	2024-11-06T21:00:00	7	Dirección del viento	9.66
130727	7	Sololá	701	Sololá	2	El tablón	1	Enero	2023-12-01T00:00:00	2024-11-06T21:00:00	1	Precipitación	0
130728	7	Sololá	701	Sololá	2	El tablón	1	Enero	2023-12-01T00:00:00	2024-11-06T21:00:00	8	Radiación solar	0
130729	7	Sololá	701	Sololá	2	El tablón	1	Enero	2023-12-01T00:00:00	2024-11-06T22:00:00	2	Temperatura media	11.8
130730	7	Sololá	701	Sololá	2	El tablón	1	Enero	2023-12-01T00:00:00	2024-11-06T22:00:00	4	Temperatura máxima	12.2
130731	7	Sololá	701	Sololá	2	El tablón	1	Enero	2023-12-01T00:00:00	2024-11-06T22:00:00	3	Temperatura mínima	11.8
130732	7	Sololá	701	Sololá	2	El tablón	1	Enero	2023-12-01T00:00:00	2024-11-06T22:00:00	5	Humedad	88
130733	7	Sololá	701	Sololá	2	El tablón	1	Enero	2023-12-01T00:00:00	2024-11-06T22:00:00	6	Velocidad del viento	6.4
130734	7	Sololá	701	Sololá	2	El tablón	1	Enero	2023-12-01T00:00:00	2024-11-06T22:00:00	7	Dirección del viento	6.44
130735	7	Sololá	701	Sololá	2	El tablón	1	Enero	2023-12-01T00:00:00	2024-11-06T22:00:00	1	Precipitación	0
130736	7	Sololá	701	Sololá	2	El tablón	1	Enero	2023-12-01T00:00:00	2024-11-06T22:00:00	8	Radiación solar	0
130737	7	Sololá	701	Sololá	2	El tablón	1	Enero	2023-12-01T00:00:00	2024-11-06T23:00:00	2	Temperatura media	11.7
130738	7	Sololá	701	Sololá	2	El tablón	1	Enero	2023-12-01T00:00:00	2024-11-06T23:00:00	4	Temperatura máxima	12
130739	7	Sololá	701	Sololá	2	El tablón	1	Enero	2023-12-01T00:00:00	2024-11-06T23:00:00	3	Temperatura mínima	11.7
130740	7	Sololá	701	Sololá	2	El tablón	1	Enero	2023-12-01T00:00:00	2024-11-06T23:00:00	5	Humedad	88
130741	7	Sololá	701	Sololá	2	El tablón	1	Enero	2023-12-01T00:00:00	2024-11-06T23:00:00	6	Velocidad del viento	8
130742	7	Sololá	701	Sololá	2	El tablón	1	Enero	2023-12-01T00:00:00	2024-11-06T23:00:00	7	Dirección del viento	8.05
130743	7	Sololá	701	Sololá	2	El tablón	1	Enero	2023-12-01T00:00:00	2024-11-06T23:00:00	1	Precipitación	0
130744	7	Sololá	701	Sololá	2	El tablón	1	Enero	2023-12-01T00:00:00	2024-11-06T23:00:00	8	Radiación solar	0
130745	7	Sololá	701	Sololá	2	El tablón	1	Enero	2023-01-13T00:00:00	2024-11-06T00:00:00	2	Temperatura media	11.4
130746	7	Sololá	701	Sololá	2	El tablón	1	Enero	2023-01-13T00:00:00	2024-11-06T00:00:00	4	Temperatura máxima	11.7
130747	7	Sololá	701	Sololá	2	El tablón	1	Enero	2023-01-13T00:00:00	2024-11-06T00:00:00	3	Temperatura mínima	11.4
130748	7	Sololá	701	Sololá	2	El tablón	1	Enero	2023-01-13T00:00:00	2024-11-06T00:00:00	5	Humedad	89
130749	7	Sololá	701	Sololá	2	El tablón	1	Enero	2023-01-13T00:00:00	2024-11-06T00:00:00	6	Velocidad del viento	9.7
130750	7	Sololá	701	Sololá	2	El tablón	1	Enero	2023-01-13T00:00:00	2024-11-06T00:00:00	7	Dirección del viento	9.66
130751	7	Sololá	701	Sololá	2	El tablón	1	Enero	2023-01-13T00:00:00	2024-11-06T00:00:00	1	Precipitación	0
130752	7	Sololá	701	Sololá	2	El tablón	1	Enero	2023-01-13T00:00:00	2024-11-06T00:00:00	8	Radiación solar	0
130753	7	Sololá	701	Sololá	2	El tablón	1	Enero	2023-01-13T00:00:00	2024-11-06T01:00:00	2	Temperatura media	11.3
130754	7	Sololá	701	Sololá	2	El tablón	1	Enero	2023-01-13T00:00:00	2024-11-06T01:00:00	4	Temperatura máxima	11.5
130755	7	Sololá	701	Sololá	2	El tablón	1	Enero	2023-01-13T00:00:00	2024-11-06T01:00:00	3	Temperatura mínima	11.3
130756	7	Sololá	701	Sololá	2	El tablón	1	Enero	2023-01-13T00:00:00	2024-11-06T01:00:00	5	Humedad	87
130757	7	Sololá	701	Sololá	2	El tablón	1	Enero	2023-01-13T00:00:00	2024-11-06T01:00:00	6	Velocidad del viento	9.7
130758	7	Sololá	701	Sololá	2	El tablón	1	Enero	2023-01-13T00:00:00	2024-11-06T01:00:00	7	Dirección del viento	9.66
130759	7	Sololá	701	Sololá	2	El tablón	1	Enero	2023-01-13T00:00:00	2024-11-06T01:00:00	1	Precipitación	0
130760	7	Sololá	701	Sololá	2	El tablón	1	Enero	2023-01-13T00:00:00	2024-11-06T01:00:00	8	Radiación solar	0
130761	7	Sololá	701	Sololá	2	El tablón	1	Enero	2023-01-13T00:00:00	2024-11-06T02:00:00	2	Temperatura media	11
130762	7	Sololá	701	Sololá	2	El tablón	1	Enero	2023-01-13T00:00:00	2024-11-06T02:00:00	4	Temperatura máxima	11.3
130763	7	Sololá	701	Sololá	2	El tablón	1	Enero	2023-01-13T00:00:00	2024-11-06T02:00:00	3	Temperatura mínima	10.9
130764	7	Sololá	701	Sololá	2	El tablón	1	Enero	2023-01-13T00:00:00	2024-11-06T02:00:00	5	Humedad	86
130765	7	Sololá	701	Sololá	2	El tablón	1	Enero	2023-01-13T00:00:00	2024-11-06T02:00:00	6	Velocidad del viento	12.9
130766	7	Sololá	701	Sololá	2	El tablón	1	Enero	2023-01-13T00:00:00	2024-11-06T02:00:00	7	Dirección del viento	12.87
130767	7	Sololá	701	Sololá	2	El tablón	1	Enero	2023-01-13T00:00:00	2024-11-06T02:00:00	1	Precipitación	0
130768	7	Sololá	701	Sololá	2	El tablón	1	Enero	2023-01-13T00:00:00	2024-11-06T02:00:00	8	Radiación solar	0
130769	7	Sololá	701	Sololá	2	El tablón	1	Enero	2023-01-13T00:00:00	2024-11-06T03:00:00	2	Temperatura media	10.8
130770	7	Sololá	701	Sololá	2	El tablón	1	Enero	2023-01-13T00:00:00	2024-11-06T03:00:00	4	Temperatura máxima	11.2
130771	7	Sololá	701	Sololá	2	El tablón	1	Enero	2023-01-13T00:00:00	2024-11-06T03:00:00	3	Temperatura mínima	10.8
130772	7	Sololá	701	Sololá	2	El tablón	1	Enero	2023-01-13T00:00:00	2024-11-06T03:00:00	5	Humedad	83
130773	7	Sololá	701	Sololá	2	El tablón	1	Enero	2023-01-13T00:00:00	2024-11-06T03:00:00	6	Velocidad del viento	12.9
130774	7	Sololá	701	Sololá	2	El tablón	1	Enero	2023-01-13T00:00:00	2024-11-06T03:00:00	7	Dirección del viento	12.87
130775	7	Sololá	701	Sololá	2	El tablón	1	Enero	2023-01-13T00:00:00	2024-11-06T03:00:00	1	Precipitación	0
130776	7	Sololá	701	Sololá	2	El tablón	1	Enero	2023-01-13T00:00:00	2024-11-06T03:00:00	8	Radiación solar	0
130777	7	Sololá	701	Sololá	2	El tablón	1	Enero	2023-01-13T00:00:00	2024-11-06T04:00:00	2	Temperatura media	10.4
130778	7	Sololá	701	Sololá	2	El tablón	1	Enero	2023-01-13T00:00:00	2024-11-06T04:00:00	4	Temperatura máxima	10.9
130779	7	Sololá	701	Sololá	2	El tablón	1	Enero	2023-01-13T00:00:00	2024-11-06T04:00:00	3	Temperatura mínima	10.4
130780	7	Sololá	701	Sololá	2	El tablón	1	Enero	2023-01-13T00:00:00	2024-11-06T04:00:00	5	Humedad	84
130781	7	Sololá	701	Sololá	2	El tablón	1	Enero	2023-01-13T00:00:00	2024-11-06T04:00:00	6	Velocidad del viento	11.3
130782	7	Sololá	701	Sololá	2	El tablón	1	Enero	2023-01-13T00:00:00	2024-11-06T04:00:00	7	Dirección del viento	11.27
130783	7	Sololá	701	Sololá	2	El tablón	1	Enero	2023-01-13T00:00:00	2024-11-06T04:00:00	1	Precipitación	0
130784	7	Sololá	701	Sololá	2	El tablón	1	Enero	2023-01-13T00:00:00	2024-11-06T04:00:00	8	Radiación solar	0
130785	7	Sololá	701	Sololá	2	El tablón	1	Enero	2023-01-13T00:00:00	2024-11-06T05:00:00	2	Temperatura media	10.5
130786	7	Sololá	701	Sololá	2	El tablón	1	Enero	2023-01-13T00:00:00	2024-11-06T05:00:00	4	Temperatura máxima	10.6
130787	7	Sololá	701	Sololá	2	El tablón	1	Enero	2023-01-13T00:00:00	2024-11-06T05:00:00	3	Temperatura mínima	10.3
130788	7	Sololá	701	Sololá	2	El tablón	1	Enero	2023-01-13T00:00:00	2024-11-06T05:00:00	5	Humedad	83
130789	7	Sololá	701	Sololá	2	El tablón	1	Enero	2023-01-13T00:00:00	2024-11-06T05:00:00	6	Velocidad del viento	11.3
130790	7	Sololá	701	Sololá	2	El tablón	1	Enero	2023-01-13T00:00:00	2024-11-06T05:00:00	7	Dirección del viento	11.27
130791	7	Sololá	701	Sololá	2	El tablón	1	Enero	2023-01-13T00:00:00	2024-11-06T05:00:00	1	Precipitación	0
130792	7	Sololá	701	Sololá	2	El tablón	1	Enero	2023-01-13T00:00:00	2024-11-06T05:00:00	8	Radiación solar	0
130793	7	Sololá	701	Sololá	2	El tablón	1	Enero	2023-01-13T00:00:00	2024-11-06T06:00:00	2	Temperatura media	9.8
130794	7	Sololá	701	Sololá	2	El tablón	1	Enero	2023-01-13T00:00:00	2024-11-06T06:00:00	4	Temperatura máxima	10.5
130795	7	Sololá	701	Sololá	2	El tablón	1	Enero	2023-01-13T00:00:00	2024-11-06T06:00:00	3	Temperatura mínima	9.8
130796	7	Sololá	701	Sololá	2	El tablón	1	Enero	2023-01-13T00:00:00	2024-11-06T06:00:00	5	Humedad	86
130797	7	Sololá	701	Sololá	2	El tablón	1	Enero	2023-01-13T00:00:00	2024-11-06T06:00:00	6	Velocidad del viento	9.7
130798	7	Sololá	701	Sololá	2	El tablón	1	Enero	2023-01-13T00:00:00	2024-11-06T06:00:00	7	Dirección del viento	9.66
130799	7	Sololá	701	Sololá	2	El tablón	1	Enero	2023-01-13T00:00:00	2024-11-06T06:00:00	1	Precipitación	0
130800	7	Sololá	701	Sololá	2	El tablón	1	Enero	2023-01-13T00:00:00	2024-11-06T06:00:00	8	Radiación solar	0
130801	7	Sololá	701	Sololá	2	El tablón	1	Enero	2023-01-13T00:00:00	2024-11-06T07:00:00	2	Temperatura media	10.6
130802	7	Sololá	701	Sololá	2	El tablón	1	Enero	2023-01-13T00:00:00	2024-11-06T07:00:00	4	Temperatura máxima	10.6
130803	7	Sololá	701	Sololá	2	El tablón	1	Enero	2023-01-13T00:00:00	2024-11-06T07:00:00	3	Temperatura mínima	9.8
130804	7	Sololá	701	Sololá	2	El tablón	1	Enero	2023-01-13T00:00:00	2024-11-06T07:00:00	5	Humedad	84
130805	7	Sololá	701	Sololá	2	El tablón	1	Enero	2023-01-13T00:00:00	2024-11-06T07:00:00	6	Velocidad del viento	14.5
130806	7	Sololá	701	Sololá	2	El tablón	1	Enero	2023-01-13T00:00:00	2024-11-06T07:00:00	7	Dirección del viento	14.48
130807	7	Sololá	701	Sololá	2	El tablón	1	Enero	2023-01-13T00:00:00	2024-11-06T07:00:00	1	Precipitación	0
130808	7	Sololá	701	Sololá	2	El tablón	1	Enero	2023-01-13T00:00:00	2024-11-06T07:00:00	8	Radiación solar	4
130809	7	Sololá	701	Sololá	2	El tablón	1	Enero	2023-01-13T00:00:00	2024-11-06T08:00:00	2	Temperatura media	11.9
130810	7	Sololá	701	Sololá	2	El tablón	1	Enero	2023-01-13T00:00:00	2024-11-06T08:00:00	4	Temperatura máxima	12
130811	7	Sololá	701	Sololá	2	El tablón	1	Enero	2023-01-13T00:00:00	2024-11-06T08:00:00	3	Temperatura mínima	10.6
130812	7	Sololá	701	Sololá	2	El tablón	1	Enero	2023-01-13T00:00:00	2024-11-06T08:00:00	5	Humedad	81
130813	7	Sololá	701	Sololá	2	El tablón	1	Enero	2023-01-13T00:00:00	2024-11-06T08:00:00	6	Velocidad del viento	14.5
130814	7	Sololá	701	Sololá	2	El tablón	1	Enero	2023-01-13T00:00:00	2024-11-06T08:00:00	7	Dirección del viento	14.48
130815	7	Sololá	701	Sololá	2	El tablón	1	Enero	2023-01-13T00:00:00	2024-11-06T08:00:00	1	Precipitación	0
130816	7	Sololá	701	Sololá	2	El tablón	1	Enero	2023-01-13T00:00:00	2024-11-06T08:00:00	8	Radiación solar	119
130817	7	Sololá	701	Sololá	2	El tablón	1	Enero	2023-01-13T00:00:00	2024-11-06T09:00:00	2	Temperatura media	12.9
130818	7	Sololá	701	Sololá	2	El tablón	1	Enero	2023-01-13T00:00:00	2024-11-06T09:00:00	4	Temperatura máxima	12.9
130819	7	Sololá	701	Sololá	2	El tablón	1	Enero	2023-01-13T00:00:00	2024-11-06T09:00:00	3	Temperatura mínima	11.8
130820	7	Sololá	701	Sololá	2	El tablón	1	Enero	2023-01-13T00:00:00	2024-11-06T09:00:00	5	Humedad	78
130821	7	Sololá	701	Sololá	2	El tablón	1	Enero	2023-01-13T00:00:00	2024-11-06T09:00:00	6	Velocidad del viento	17.7
130822	7	Sololá	701	Sololá	2	El tablón	1	Enero	2023-01-13T00:00:00	2024-11-06T09:00:00	7	Dirección del viento	17.7
130823	7	Sololá	701	Sololá	2	El tablón	1	Enero	2023-01-13T00:00:00	2024-11-06T09:00:00	1	Precipitación	0
130824	7	Sololá	701	Sololá	2	El tablón	1	Enero	2023-01-13T00:00:00	2024-11-06T09:00:00	8	Radiación solar	329
130825	7	Sololá	701	Sololá	2	El tablón	1	Enero	2023-01-13T00:00:00	2024-11-06T10:00:00	2	Temperatura media	12.7
130826	7	Sololá	701	Sololá	2	El tablón	1	Enero	2023-01-13T00:00:00	2024-11-06T10:00:00	4	Temperatura máxima	13.6
130827	7	Sololá	701	Sololá	2	El tablón	1	Enero	2023-01-13T00:00:00	2024-11-06T10:00:00	3	Temperatura mínima	12.7
130828	7	Sololá	701	Sololá	2	El tablón	1	Enero	2023-01-13T00:00:00	2024-11-06T10:00:00	5	Humedad	82
130829	7	Sololá	701	Sololá	2	El tablón	1	Enero	2023-01-13T00:00:00	2024-11-06T10:00:00	6	Velocidad del viento	19.3
130830	7	Sololá	701	Sololá	2	El tablón	1	Enero	2023-01-13T00:00:00	2024-11-06T10:00:00	7	Dirección del viento	19.31
130831	7	Sololá	701	Sololá	2	El tablón	1	Enero	2023-01-13T00:00:00	2024-11-06T10:00:00	1	Precipitación	0
130832	7	Sololá	701	Sololá	2	El tablón	1	Enero	2023-01-13T00:00:00	2024-11-06T10:00:00	8	Radiación solar	492
130833	7	Sololá	701	Sololá	2	El tablón	1	Enero	2023-01-13T00:00:00	2024-11-06T11:00:00	2	Temperatura media	13.1
130834	7	Sololá	701	Sololá	2	El tablón	1	Enero	2023-01-13T00:00:00	2024-11-06T11:00:00	4	Temperatura máxima	13.6
130835	7	Sololá	701	Sololá	2	El tablón	1	Enero	2023-01-13T00:00:00	2024-11-06T11:00:00	3	Temperatura mínima	12.6
130836	7	Sololá	701	Sololá	2	El tablón	1	Enero	2023-01-13T00:00:00	2024-11-06T11:00:00	5	Humedad	83
130837	7	Sololá	701	Sololá	2	El tablón	1	Enero	2023-01-13T00:00:00	2024-11-06T11:00:00	6	Velocidad del viento	22.5
130838	7	Sololá	701	Sololá	2	El tablón	1	Enero	2023-01-13T00:00:00	2024-11-06T11:00:00	7	Dirección del viento	22.53
130839	7	Sololá	701	Sololá	2	El tablón	1	Enero	2023-01-13T00:00:00	2024-11-06T11:00:00	1	Precipitación	0
130840	7	Sololá	701	Sololá	2	El tablón	1	Enero	2023-01-13T00:00:00	2024-11-06T11:00:00	8	Radiación solar	691
130841	7	Sololá	701	Sololá	2	El tablón	1	Enero	2023-01-13T00:00:00	2024-11-06T12:00:00	2	Temperatura media	14.2
130842	7	Sololá	701	Sololá	2	El tablón	1	Enero	2023-01-13T00:00:00	2024-11-06T12:00:00	4	Temperatura máxima	14.2
130843	7	Sololá	701	Sololá	2	El tablón	1	Enero	2023-01-13T00:00:00	2024-11-06T12:00:00	3	Temperatura mínima	12.9
130844	7	Sololá	701	Sololá	2	El tablón	1	Enero	2023-01-13T00:00:00	2024-11-06T12:00:00	5	Humedad	75
130845	7	Sololá	701	Sololá	2	El tablón	1	Enero	2023-01-13T00:00:00	2024-11-06T12:00:00	6	Velocidad del viento	24.1
130846	7	Sololá	701	Sololá	2	El tablón	1	Enero	2023-01-13T00:00:00	2024-11-06T12:00:00	7	Dirección del viento	24.14
130847	7	Sololá	701	Sololá	2	El tablón	1	Enero	2023-01-13T00:00:00	2024-11-06T12:00:00	1	Precipitación	0
130848	7	Sololá	701	Sololá	2	El tablón	1	Enero	2023-01-13T00:00:00	2024-11-06T12:00:00	8	Radiación solar	648
130849	7	Sololá	701	Sololá	2	El tablón	1	Enero	2023-01-13T00:00:00	2024-11-06T13:00:00	2	Temperatura media	15.3
130850	7	Sololá	701	Sololá	2	El tablón	1	Enero	2023-01-13T00:00:00	2024-11-06T13:00:00	4	Temperatura máxima	15.3
130851	7	Sololá	701	Sololá	2	El tablón	1	Enero	2023-01-13T00:00:00	2024-11-06T13:00:00	3	Temperatura mínima	14.2
130852	7	Sololá	701	Sololá	2	El tablón	1	Enero	2023-01-13T00:00:00	2024-11-06T13:00:00	5	Humedad	72
130853	7	Sololá	701	Sololá	2	El tablón	1	Enero	2023-01-13T00:00:00	2024-11-06T13:00:00	6	Velocidad del viento	19.3
130854	7	Sololá	701	Sololá	2	El tablón	1	Enero	2023-01-13T00:00:00	2024-11-06T13:00:00	7	Dirección del viento	19.31
130855	7	Sololá	701	Sololá	2	El tablón	1	Enero	2023-01-13T00:00:00	2024-11-06T13:00:00	1	Precipitación	0
130856	7	Sololá	701	Sololá	2	El tablón	1	Enero	2023-01-13T00:00:00	2024-11-06T13:00:00	8	Radiación solar	768
130857	7	Sololá	701	Sololá	2	El tablón	1	Enero	2023-01-13T00:00:00	2024-11-06T14:00:00	2	Temperatura media	15.7
130858	7	Sololá	701	Sololá	2	El tablón	1	Enero	2023-01-13T00:00:00	2024-11-06T14:00:00	4	Temperatura máxima	15.7
130859	7	Sololá	701	Sololá	2	El tablón	1	Enero	2023-01-13T00:00:00	2024-11-06T14:00:00	3	Temperatura mínima	14.6
130860	7	Sololá	701	Sololá	2	El tablón	1	Enero	2023-01-13T00:00:00	2024-11-06T14:00:00	5	Humedad	69
130861	7	Sololá	701	Sololá	2	El tablón	1	Enero	2023-01-13T00:00:00	2024-11-06T14:00:00	6	Velocidad del viento	17.7
130862	7	Sololá	701	Sololá	2	El tablón	1	Enero	2023-01-13T00:00:00	2024-11-06T14:00:00	7	Dirección del viento	17.7
130863	7	Sololá	701	Sololá	2	El tablón	1	Enero	2023-01-13T00:00:00	2024-11-06T14:00:00	1	Precipitación	0
130864	7	Sololá	701	Sololá	2	El tablón	1	Enero	2023-01-13T00:00:00	2024-11-06T14:00:00	8	Radiación solar	751
130865	7	Sololá	701	Sololá	2	El tablón	1	Enero	2023-01-13T00:00:00	2024-11-06T15:00:00	2	Temperatura media	14.9
130866	7	Sololá	701	Sololá	2	El tablón	1	Enero	2023-01-13T00:00:00	2024-11-06T15:00:00	4	Temperatura máxima	15.7
130867	7	Sololá	701	Sololá	2	El tablón	1	Enero	2023-01-13T00:00:00	2024-11-06T15:00:00	3	Temperatura mínima	14.8
130868	7	Sololá	701	Sololá	2	El tablón	1	Enero	2023-01-13T00:00:00	2024-11-06T15:00:00	5	Humedad	70
130869	7	Sololá	701	Sololá	2	El tablón	1	Enero	2023-01-13T00:00:00	2024-11-06T15:00:00	6	Velocidad del viento	16.1
130870	7	Sololá	701	Sololá	2	El tablón	1	Enero	2023-01-13T00:00:00	2024-11-06T15:00:00	7	Dirección del viento	16.09
130871	7	Sololá	701	Sololá	2	El tablón	1	Enero	2023-01-13T00:00:00	2024-11-06T15:00:00	1	Precipitación	0
130872	7	Sololá	701	Sololá	2	El tablón	1	Enero	2023-01-13T00:00:00	2024-11-06T15:00:00	8	Radiación solar	629
130873	7	Sololá	701	Sololá	2	El tablón	1	Enero	2023-01-13T00:00:00	2024-11-06T16:00:00	2	Temperatura media	14.4
130874	7	Sololá	701	Sololá	2	El tablón	1	Enero	2023-01-13T00:00:00	2024-11-06T16:00:00	4	Temperatura máxima	15.2
130875	7	Sololá	701	Sololá	2	El tablón	1	Enero	2023-01-13T00:00:00	2024-11-06T16:00:00	3	Temperatura mínima	14.2
130876	7	Sololá	701	Sololá	2	El tablón	1	Enero	2023-01-13T00:00:00	2024-11-06T16:00:00	5	Humedad	71
130877	7	Sololá	701	Sololá	2	El tablón	1	Enero	2023-01-13T00:00:00	2024-11-06T16:00:00	6	Velocidad del viento	14.5
130878	7	Sololá	701	Sololá	2	El tablón	1	Enero	2023-01-13T00:00:00	2024-11-06T16:00:00	7	Dirección del viento	14.48
130879	7	Sololá	701	Sololá	2	El tablón	1	Enero	2023-01-13T00:00:00	2024-11-06T16:00:00	1	Precipitación	0
130880	7	Sololá	701	Sololá	2	El tablón	1	Enero	2023-01-13T00:00:00	2024-11-06T16:00:00	8	Radiación solar	397
130881	7	Sololá	701	Sololá	2	El tablón	1	Enero	2023-01-13T00:00:00	2024-11-06T17:00:00	2	Temperatura media	11.3
130882	7	Sololá	701	Sololá	2	El tablón	1	Enero	2023-01-13T00:00:00	2024-11-06T17:00:00	4	Temperatura máxima	14.4
130883	7	Sololá	701	Sololá	2	El tablón	1	Enero	2023-01-13T00:00:00	2024-11-06T17:00:00	3	Temperatura mínima	11.2
130884	7	Sololá	701	Sololá	2	El tablón	1	Enero	2023-01-13T00:00:00	2024-11-06T17:00:00	5	Humedad	88
130885	7	Sololá	701	Sololá	2	El tablón	1	Enero	2023-01-13T00:00:00	2024-11-06T17:00:00	6	Velocidad del viento	14.5
130886	7	Sololá	701	Sololá	2	El tablón	1	Enero	2023-01-13T00:00:00	2024-11-06T17:00:00	7	Dirección del viento	14.48
130887	7	Sololá	701	Sololá	2	El tablón	1	Enero	2023-01-13T00:00:00	2024-11-06T17:00:00	1	Precipitación	0
130888	7	Sololá	701	Sololá	2	El tablón	1	Enero	2023-01-13T00:00:00	2024-11-06T17:00:00	8	Radiación solar	83
130889	7	Sololá	701	Sololá	2	El tablón	1	Enero	2023-01-13T00:00:00	2024-11-06T18:00:00	2	Temperatura media	10.4
130890	7	Sololá	701	Sololá	2	El tablón	1	Enero	2023-01-13T00:00:00	2024-11-06T18:00:00	4	Temperatura máxima	11.3
130891	7	Sololá	701	Sololá	2	El tablón	1	Enero	2023-01-13T00:00:00	2024-11-06T18:00:00	3	Temperatura mínima	10.4
130892	7	Sololá	701	Sololá	2	El tablón	1	Enero	2023-01-13T00:00:00	2024-11-06T18:00:00	5	Humedad	88
130893	7	Sololá	701	Sololá	2	El tablón	1	Enero	2023-01-13T00:00:00	2024-11-06T18:00:00	6	Velocidad del viento	17.7
130894	7	Sololá	701	Sololá	2	El tablón	1	Enero	2023-01-13T00:00:00	2024-11-06T18:00:00	7	Dirección del viento	17.7
130895	7	Sololá	701	Sololá	2	El tablón	1	Enero	2023-01-13T00:00:00	2024-11-06T18:00:00	1	Precipitación	0
130896	7	Sololá	701	Sololá	2	El tablón	1	Enero	2023-01-13T00:00:00	2024-11-06T18:00:00	8	Radiación solar	27
130897	7	Sololá	701	Sololá	2	El tablón	1	Enero	2023-01-13T00:00:00	2024-11-06T19:00:00	2	Temperatura media	10.7
130898	7	Sololá	701	Sololá	2	El tablón	1	Enero	2023-01-13T00:00:00	2024-11-06T19:00:00	4	Temperatura máxima	10.7
130899	7	Sololá	701	Sololá	2	El tablón	1	Enero	2023-01-13T00:00:00	2024-11-06T19:00:00	3	Temperatura mínima	10.3
130900	7	Sololá	701	Sololá	2	El tablón	1	Enero	2023-01-13T00:00:00	2024-11-06T19:00:00	5	Humedad	86
130901	7	Sololá	701	Sololá	2	El tablón	1	Enero	2023-01-13T00:00:00	2024-11-06T19:00:00	6	Velocidad del viento	19.3
130902	7	Sololá	701	Sololá	2	El tablón	1	Enero	2023-01-13T00:00:00	2024-11-06T19:00:00	7	Dirección del viento	19.31
130903	7	Sololá	701	Sololá	2	El tablón	1	Enero	2023-01-13T00:00:00	2024-11-06T19:00:00	1	Precipitación	0
130904	7	Sololá	701	Sololá	2	El tablón	1	Enero	2023-01-13T00:00:00	2024-11-06T19:00:00	8	Radiación solar	0
130905	7	Sololá	701	Sololá	2	El tablón	1	Enero	2023-01-13T00:00:00	2024-11-06T20:00:00	2	Temperatura media	10.6
130906	7	Sololá	701	Sololá	2	El tablón	1	Enero	2023-01-13T00:00:00	2024-11-06T20:00:00	4	Temperatura máxima	10.7
130907	7	Sololá	701	Sololá	2	El tablón	1	Enero	2023-01-13T00:00:00	2024-11-06T20:00:00	3	Temperatura mínima	10.3
130908	7	Sololá	701	Sololá	2	El tablón	1	Enero	2023-01-13T00:00:00	2024-11-06T20:00:00	5	Humedad	86
130909	7	Sololá	701	Sololá	2	El tablón	1	Enero	2023-01-13T00:00:00	2024-11-06T20:00:00	6	Velocidad del viento	20.9
130910	7	Sololá	701	Sololá	2	El tablón	1	Enero	2023-01-13T00:00:00	2024-11-06T20:00:00	7	Dirección del viento	20.92
130911	7	Sololá	701	Sololá	2	El tablón	1	Enero	2023-01-13T00:00:00	2024-11-06T20:00:00	1	Precipitación	0
130912	7	Sololá	701	Sololá	2	El tablón	1	Enero	2023-01-13T00:00:00	2024-11-06T20:00:00	8	Radiación solar	0
130913	7	Sololá	701	Sololá	2	El tablón	1	Enero	2023-01-13T00:00:00	2024-11-06T21:00:00	2	Temperatura media	9.3
130914	7	Sololá	701	Sololá	2	El tablón	1	Enero	2023-01-13T00:00:00	2024-11-06T21:00:00	4	Temperatura máxima	10.6
130915	7	Sololá	701	Sololá	2	El tablón	1	Enero	2023-01-13T00:00:00	2024-11-06T21:00:00	3	Temperatura mínima	9.3
130916	7	Sololá	701	Sololá	2	El tablón	1	Enero	2023-01-13T00:00:00	2024-11-06T21:00:00	5	Humedad	89
130917	7	Sololá	701	Sololá	2	El tablón	1	Enero	2023-01-13T00:00:00	2024-11-06T21:00:00	6	Velocidad del viento	20.9
130918	7	Sololá	701	Sololá	2	El tablón	1	Enero	2023-01-13T00:00:00	2024-11-06T21:00:00	7	Dirección del viento	20.92
130919	7	Sololá	701	Sololá	2	El tablón	1	Enero	2023-01-13T00:00:00	2024-11-06T21:00:00	1	Precipitación	0.2
130920	7	Sololá	701	Sololá	2	El tablón	1	Enero	2023-01-13T00:00:00	2024-11-06T21:00:00	8	Radiación solar	0
130921	7	Sololá	701	Sololá	2	El tablón	1	Enero	2023-01-13T00:00:00	2024-11-06T22:00:00	2	Temperatura media	9.1
130922	7	Sololá	701	Sololá	2	El tablón	1	Enero	2023-01-13T00:00:00	2024-11-06T22:00:00	4	Temperatura máxima	9.3
130923	7	Sololá	701	Sololá	2	El tablón	1	Enero	2023-01-13T00:00:00	2024-11-06T22:00:00	3	Temperatura mínima	8.9
130924	7	Sololá	701	Sololá	2	El tablón	1	Enero	2023-01-13T00:00:00	2024-11-06T22:00:00	5	Humedad	89
130925	7	Sololá	701	Sololá	2	El tablón	1	Enero	2023-01-13T00:00:00	2024-11-06T22:00:00	6	Velocidad del viento	22.5
130926	7	Sololá	701	Sololá	2	El tablón	1	Enero	2023-01-13T00:00:00	2024-11-06T22:00:00	7	Dirección del viento	22.53
130927	7	Sololá	701	Sololá	2	El tablón	1	Enero	2023-01-13T00:00:00	2024-11-06T22:00:00	1	Precipitación	0
130928	7	Sololá	701	Sololá	2	El tablón	1	Enero	2023-01-13T00:00:00	2024-11-06T22:00:00	8	Radiación solar	0
130929	7	Sololá	701	Sololá	2	El tablón	1	Enero	2023-01-13T00:00:00	2024-11-06T23:00:00	2	Temperatura media	9.4
130930	7	Sololá	701	Sololá	2	El tablón	1	Enero	2023-01-13T00:00:00	2024-11-06T23:00:00	4	Temperatura máxima	9.4
130931	7	Sololá	701	Sololá	2	El tablón	1	Enero	2023-01-13T00:00:00	2024-11-06T23:00:00	3	Temperatura mínima	9.1
130932	7	Sololá	701	Sololá	2	El tablón	1	Enero	2023-01-13T00:00:00	2024-11-06T23:00:00	5	Humedad	86
130933	7	Sololá	701	Sololá	2	El tablón	1	Enero	2023-01-13T00:00:00	2024-11-06T23:00:00	6	Velocidad del viento	19.3
130934	7	Sololá	701	Sololá	2	El tablón	1	Enero	2023-01-13T00:00:00	2024-11-06T23:00:00	7	Dirección del viento	19.31
130935	7	Sololá	701	Sololá	2	El tablón	1	Enero	2023-01-13T00:00:00	2024-11-06T23:00:00	1	Precipitación	0
130936	7	Sololá	701	Sololá	2	El tablón	1	Enero	2023-01-13T00:00:00	2024-11-06T23:00:00	8	Radiación solar	0
130937	7	Sololá	701	Sololá	2	El tablón	1	Enero	2023-01-14T00:00:00	2024-11-06T00:00:00	2	Temperatura media	9.6
130938	7	Sololá	701	Sololá	2	El tablón	1	Enero	2023-01-14T00:00:00	2024-11-06T00:00:00	4	Temperatura máxima	9.6
130939	7	Sololá	701	Sololá	2	El tablón	1	Enero	2023-01-14T00:00:00	2024-11-06T00:00:00	3	Temperatura mínima	9.4
130940	7	Sololá	701	Sololá	2	El tablón	1	Enero	2023-01-14T00:00:00	2024-11-06T00:00:00	5	Humedad	85
130941	7	Sololá	701	Sololá	2	El tablón	1	Enero	2023-01-14T00:00:00	2024-11-06T00:00:00	6	Velocidad del viento	17.7
130942	7	Sololá	701	Sololá	2	El tablón	1	Enero	2023-01-14T00:00:00	2024-11-06T00:00:00	7	Dirección del viento	17.7
130943	7	Sololá	701	Sololá	2	El tablón	1	Enero	2023-01-14T00:00:00	2024-11-06T00:00:00	1	Precipitación	0
130944	7	Sololá	701	Sololá	2	El tablón	1	Enero	2023-01-14T00:00:00	2024-11-06T00:00:00	8	Radiación solar	0
130945	7	Sololá	701	Sololá	2	El tablón	1	Enero	2023-01-14T00:00:00	2024-11-06T01:00:00	2	Temperatura media	9.4
130946	7	Sololá	701	Sololá	2	El tablón	1	Enero	2023-01-14T00:00:00	2024-11-06T01:00:00	4	Temperatura máxima	9.6
130947	7	Sololá	701	Sololá	2	El tablón	1	Enero	2023-01-14T00:00:00	2024-11-06T01:00:00	3	Temperatura mínima	9.3
130948	7	Sololá	701	Sololá	2	El tablón	1	Enero	2023-01-14T00:00:00	2024-11-06T01:00:00	5	Humedad	86
130949	7	Sololá	701	Sololá	2	El tablón	1	Enero	2023-01-14T00:00:00	2024-11-06T01:00:00	6	Velocidad del viento	19.3
130950	7	Sololá	701	Sololá	2	El tablón	1	Enero	2023-01-14T00:00:00	2024-11-06T01:00:00	7	Dirección del viento	19.31
130951	7	Sololá	701	Sololá	2	El tablón	1	Enero	2023-01-14T00:00:00	2024-11-06T01:00:00	1	Precipitación	0
130952	7	Sololá	701	Sololá	2	El tablón	1	Enero	2023-01-14T00:00:00	2024-11-06T01:00:00	8	Radiación solar	0
130953	7	Sololá	701	Sololá	2	El tablón	1	Enero	2023-01-14T00:00:00	2024-11-06T02:00:00	2	Temperatura media	8.9
130954	7	Sololá	701	Sololá	2	El tablón	1	Enero	2023-01-14T00:00:00	2024-11-06T02:00:00	4	Temperatura máxima	9.4
130955	7	Sololá	701	Sololá	2	El tablón	1	Enero	2023-01-14T00:00:00	2024-11-06T02:00:00	3	Temperatura mínima	8.9
130956	7	Sololá	701	Sololá	2	El tablón	1	Enero	2023-01-14T00:00:00	2024-11-06T02:00:00	5	Humedad	87
130957	7	Sololá	701	Sololá	2	El tablón	1	Enero	2023-01-14T00:00:00	2024-11-06T02:00:00	6	Velocidad del viento	24.1
130958	7	Sololá	701	Sololá	2	El tablón	1	Enero	2023-01-14T00:00:00	2024-11-06T02:00:00	7	Dirección del viento	24.14
130959	7	Sololá	701	Sololá	2	El tablón	1	Enero	2023-01-14T00:00:00	2024-11-06T02:00:00	1	Precipitación	0
130960	7	Sololá	701	Sololá	2	El tablón	1	Enero	2023-01-14T00:00:00	2024-11-06T02:00:00	8	Radiación solar	0
130961	7	Sololá	701	Sololá	2	El tablón	1	Enero	2023-01-14T00:00:00	2024-11-06T03:00:00	2	Temperatura media	9.1
130962	7	Sololá	701	Sololá	2	El tablón	1	Enero	2023-01-14T00:00:00	2024-11-06T03:00:00	4	Temperatura máxima	9.1
130963	7	Sololá	701	Sololá	2	El tablón	1	Enero	2023-01-14T00:00:00	2024-11-06T03:00:00	3	Temperatura mínima	8.7
130964	7	Sololá	701	Sololá	2	El tablón	1	Enero	2023-01-14T00:00:00	2024-11-06T03:00:00	5	Humedad	84
130965	7	Sololá	701	Sololá	2	El tablón	1	Enero	2023-01-14T00:00:00	2024-11-06T03:00:00	6	Velocidad del viento	20.9
130966	7	Sololá	701	Sololá	2	El tablón	1	Enero	2023-01-14T00:00:00	2024-11-06T03:00:00	7	Dirección del viento	20.92
130967	7	Sololá	701	Sololá	2	El tablón	1	Enero	2023-01-14T00:00:00	2024-11-06T03:00:00	1	Precipitación	0
130968	7	Sololá	701	Sololá	2	El tablón	1	Enero	2023-01-14T00:00:00	2024-11-06T03:00:00	8	Radiación solar	0
130969	7	Sololá	701	Sololá	2	El tablón	1	Enero	2023-01-14T00:00:00	2024-11-06T04:00:00	2	Temperatura media	8.9
130970	7	Sololá	701	Sololá	2	El tablón	1	Enero	2023-01-14T00:00:00	2024-11-06T04:00:00	4	Temperatura máxima	9.1
130971	7	Sololá	701	Sololá	2	El tablón	1	Enero	2023-01-14T00:00:00	2024-11-06T04:00:00	3	Temperatura mínima	8.8
130972	7	Sololá	701	Sololá	2	El tablón	1	Enero	2023-01-14T00:00:00	2024-11-06T04:00:00	5	Humedad	85
130973	7	Sololá	701	Sololá	2	El tablón	1	Enero	2023-01-14T00:00:00	2024-11-06T04:00:00	6	Velocidad del viento	24.1
130974	7	Sololá	701	Sololá	2	El tablón	1	Enero	2023-01-14T00:00:00	2024-11-06T04:00:00	7	Dirección del viento	24.14
130975	7	Sololá	701	Sololá	2	El tablón	1	Enero	2023-01-14T00:00:00	2024-11-06T04:00:00	1	Precipitación	0
130976	7	Sololá	701	Sololá	2	El tablón	1	Enero	2023-01-14T00:00:00	2024-11-06T04:00:00	8	Radiación solar	0
130977	7	Sololá	701	Sololá	2	El tablón	1	Enero	2023-01-14T00:00:00	2024-11-06T05:00:00	2	Temperatura media	9
130978	7	Sololá	701	Sololá	2	El tablón	1	Enero	2023-01-14T00:00:00	2024-11-06T05:00:00	4	Temperatura máxima	9.4
130979	7	Sololá	701	Sololá	2	El tablón	1	Enero	2023-01-14T00:00:00	2024-11-06T05:00:00	3	Temperatura mínima	8.9
130980	7	Sololá	701	Sololá	2	El tablón	1	Enero	2023-01-14T00:00:00	2024-11-06T05:00:00	5	Humedad	86
130981	7	Sololá	701	Sololá	2	El tablón	1	Enero	2023-01-14T00:00:00	2024-11-06T05:00:00	6	Velocidad del viento	22.5
130982	7	Sololá	701	Sololá	2	El tablón	1	Enero	2023-01-14T00:00:00	2024-11-06T05:00:00	7	Dirección del viento	22.53
130983	7	Sololá	701	Sololá	2	El tablón	1	Enero	2023-01-14T00:00:00	2024-11-06T05:00:00	1	Precipitación	0
130984	7	Sololá	701	Sololá	2	El tablón	1	Enero	2023-01-14T00:00:00	2024-11-06T05:00:00	8	Radiación solar	0
130985	7	Sololá	701	Sololá	2	El tablón	1	Enero	2023-01-14T00:00:00	2024-11-06T06:00:00	2	Temperatura media	8.6
130986	7	Sololá	701	Sololá	2	El tablón	1	Enero	2023-01-14T00:00:00	2024-11-06T06:00:00	4	Temperatura máxima	9
130987	7	Sololá	701	Sololá	2	El tablón	1	Enero	2023-01-14T00:00:00	2024-11-06T06:00:00	3	Temperatura mínima	8.6
130988	7	Sololá	701	Sololá	2	El tablón	1	Enero	2023-01-14T00:00:00	2024-11-06T06:00:00	5	Humedad	89
130989	7	Sololá	701	Sololá	2	El tablón	1	Enero	2023-01-14T00:00:00	2024-11-06T06:00:00	6	Velocidad del viento	16.1
130990	7	Sololá	701	Sololá	2	El tablón	1	Enero	2023-01-14T00:00:00	2024-11-06T06:00:00	7	Dirección del viento	16.09
130991	7	Sololá	701	Sololá	2	El tablón	1	Enero	2023-01-14T00:00:00	2024-11-06T06:00:00	1	Precipitación	0
130992	7	Sololá	701	Sololá	2	El tablón	1	Enero	2023-01-14T00:00:00	2024-11-06T06:00:00	8	Radiación solar	0
130993	7	Sololá	701	Sololá	2	El tablón	1	Enero	2023-01-14T00:00:00	2024-11-06T07:00:00	2	Temperatura media	8
130994	7	Sololá	701	Sololá	2	El tablón	1	Enero	2023-01-14T00:00:00	2024-11-06T07:00:00	4	Temperatura máxima	8.6
130995	7	Sololá	701	Sololá	2	El tablón	1	Enero	2023-01-14T00:00:00	2024-11-06T07:00:00	3	Temperatura mínima	7.9
130996	7	Sololá	701	Sololá	2	El tablón	1	Enero	2023-01-14T00:00:00	2024-11-06T07:00:00	5	Humedad	90
130997	7	Sololá	701	Sololá	2	El tablón	1	Enero	2023-01-14T00:00:00	2024-11-06T07:00:00	6	Velocidad del viento	16.1
130998	7	Sololá	701	Sololá	2	El tablón	1	Enero	2023-01-14T00:00:00	2024-11-06T07:00:00	7	Dirección del viento	16.09
130999	7	Sololá	701	Sololá	2	El tablón	1	Enero	2023-01-14T00:00:00	2024-11-06T07:00:00	1	Precipitación	0
131000	7	Sololá	701	Sololá	2	El tablón	1	Enero	2023-01-14T00:00:00	2024-11-06T07:00:00	8	Radiación solar	4
131001	7	Sololá	701	Sololá	2	El tablón	1	Enero	2023-01-14T00:00:00	2024-11-06T08:00:00	2	Temperatura media	9.3
131002	7	Sololá	701	Sololá	2	El tablón	1	Enero	2023-01-14T00:00:00	2024-11-06T08:00:00	4	Temperatura máxima	9.3
131003	7	Sololá	701	Sololá	2	El tablón	1	Enero	2023-01-14T00:00:00	2024-11-06T08:00:00	3	Temperatura mínima	8
131004	7	Sololá	701	Sololá	2	El tablón	1	Enero	2023-01-14T00:00:00	2024-11-06T08:00:00	5	Humedad	86
131005	7	Sololá	701	Sololá	2	El tablón	1	Enero	2023-01-14T00:00:00	2024-11-06T08:00:00	6	Velocidad del viento	17.7
131006	7	Sololá	701	Sololá	2	El tablón	1	Enero	2023-01-14T00:00:00	2024-11-06T08:00:00	7	Dirección del viento	17.7
131007	7	Sololá	701	Sololá	2	El tablón	1	Enero	2023-01-14T00:00:00	2024-11-06T08:00:00	1	Precipitación	0
131008	7	Sololá	701	Sololá	2	El tablón	1	Enero	2023-01-14T00:00:00	2024-11-06T08:00:00	8	Radiación solar	115
131009	7	Sololá	701	Sololá	2	El tablón	1	Enero	2023-01-14T00:00:00	2024-11-06T09:00:00	2	Temperatura media	10.9
131010	7	Sololá	701	Sololá	2	El tablón	1	Enero	2023-01-14T00:00:00	2024-11-06T09:00:00	4	Temperatura máxima	10.9
131011	7	Sololá	701	Sololá	2	El tablón	1	Enero	2023-01-14T00:00:00	2024-11-06T09:00:00	3	Temperatura mínima	9.3
131012	7	Sololá	701	Sololá	2	El tablón	1	Enero	2023-01-14T00:00:00	2024-11-06T09:00:00	5	Humedad	80
131013	7	Sololá	701	Sololá	2	El tablón	1	Enero	2023-01-14T00:00:00	2024-11-06T09:00:00	6	Velocidad del viento	17.7
131014	7	Sololá	701	Sololá	2	El tablón	1	Enero	2023-01-14T00:00:00	2024-11-06T09:00:00	7	Dirección del viento	17.7
131015	7	Sololá	701	Sololá	2	El tablón	1	Enero	2023-01-14T00:00:00	2024-11-06T09:00:00	1	Precipitación	0
131016	7	Sololá	701	Sololá	2	El tablón	1	Enero	2023-01-14T00:00:00	2024-11-06T09:00:00	8	Radiación solar	335
131017	7	Sololá	701	Sololá	2	El tablón	1	Enero	2023-01-14T00:00:00	2024-11-06T10:00:00	2	Temperatura media	12.9
131018	7	Sololá	701	Sololá	2	El tablón	1	Enero	2023-01-14T00:00:00	2024-11-06T10:00:00	4	Temperatura máxima	12.9
131019	7	Sololá	701	Sololá	2	El tablón	1	Enero	2023-01-14T00:00:00	2024-11-06T10:00:00	3	Temperatura mínima	10.9
131020	7	Sololá	701	Sololá	2	El tablón	1	Enero	2023-01-14T00:00:00	2024-11-06T10:00:00	5	Humedad	70
131021	7	Sololá	701	Sololá	2	El tablón	1	Enero	2023-01-14T00:00:00	2024-11-06T10:00:00	6	Velocidad del viento	16.1
131022	7	Sololá	701	Sololá	2	El tablón	1	Enero	2023-01-14T00:00:00	2024-11-06T10:00:00	7	Dirección del viento	16.09
131023	7	Sololá	701	Sololá	2	El tablón	1	Enero	2023-01-14T00:00:00	2024-11-06T10:00:00	1	Precipitación	0
131024	7	Sololá	701	Sololá	2	El tablón	1	Enero	2023-01-14T00:00:00	2024-11-06T10:00:00	8	Radiación solar	527
131025	7	Sololá	701	Sololá	2	El tablón	1	Enero	2023-01-14T00:00:00	2024-11-06T11:00:00	2	Temperatura media	14
131026	7	Sololá	701	Sololá	2	El tablón	1	Enero	2023-01-14T00:00:00	2024-11-06T11:00:00	4	Temperatura máxima	14.1
131027	7	Sololá	701	Sololá	2	El tablón	1	Enero	2023-01-14T00:00:00	2024-11-06T11:00:00	3	Temperatura mínima	12.7
131028	7	Sololá	701	Sololá	2	El tablón	1	Enero	2023-01-14T00:00:00	2024-11-06T11:00:00	5	Humedad	66
131029	7	Sololá	701	Sololá	2	El tablón	1	Enero	2023-01-14T00:00:00	2024-11-06T11:00:00	6	Velocidad del viento	16.1
131030	7	Sololá	701	Sololá	2	El tablón	1	Enero	2023-01-14T00:00:00	2024-11-06T11:00:00	7	Dirección del viento	16.09
131031	7	Sololá	701	Sololá	2	El tablón	1	Enero	2023-01-14T00:00:00	2024-11-06T11:00:00	1	Precipitación	0
131032	7	Sololá	701	Sololá	2	El tablón	1	Enero	2023-01-14T00:00:00	2024-11-06T11:00:00	8	Radiación solar	673
131033	7	Sololá	701	Sololá	2	El tablón	1	Enero	2023-01-14T00:00:00	2024-11-06T12:00:00	2	Temperatura media	15.4
131034	7	Sololá	701	Sololá	2	El tablón	1	Enero	2023-01-14T00:00:00	2024-11-06T12:00:00	4	Temperatura máxima	15.4
131035	7	Sololá	701	Sololá	2	El tablón	1	Enero	2023-01-14T00:00:00	2024-11-06T12:00:00	3	Temperatura mínima	13.9
131036	7	Sololá	701	Sololá	2	El tablón	1	Enero	2023-01-14T00:00:00	2024-11-06T12:00:00	5	Humedad	59
131037	7	Sololá	701	Sololá	2	El tablón	1	Enero	2023-01-14T00:00:00	2024-11-06T12:00:00	6	Velocidad del viento	14.5
131038	7	Sololá	701	Sololá	2	El tablón	1	Enero	2023-01-14T00:00:00	2024-11-06T12:00:00	7	Dirección del viento	14.48
131039	7	Sololá	701	Sololá	2	El tablón	1	Enero	2023-01-14T00:00:00	2024-11-06T12:00:00	1	Precipitación	0
131040	7	Sololá	701	Sololá	2	El tablón	1	Enero	2023-01-14T00:00:00	2024-11-06T12:00:00	8	Radiación solar	657
131041	7	Sololá	701	Sololá	2	El tablón	1	Enero	2023-01-14T00:00:00	2024-11-06T13:00:00	2	Temperatura media	16
131042	7	Sololá	701	Sololá	2	El tablón	1	Enero	2023-01-14T00:00:00	2024-11-06T13:00:00	4	Temperatura máxima	16.3
131043	7	Sololá	701	Sololá	2	El tablón	1	Enero	2023-01-14T00:00:00	2024-11-06T13:00:00	3	Temperatura mínima	15.4
131044	7	Sololá	701	Sololá	2	El tablón	1	Enero	2023-01-14T00:00:00	2024-11-06T13:00:00	5	Humedad	45
131045	7	Sololá	701	Sololá	2	El tablón	1	Enero	2023-01-14T00:00:00	2024-11-06T13:00:00	6	Velocidad del viento	16.1
131046	7	Sololá	701	Sololá	2	El tablón	1	Enero	2023-01-14T00:00:00	2024-11-06T13:00:00	7	Dirección del viento	16.09
131047	7	Sololá	701	Sololá	2	El tablón	1	Enero	2023-01-14T00:00:00	2024-11-06T13:00:00	1	Precipitación	0
131048	7	Sololá	701	Sololá	2	El tablón	1	Enero	2023-01-14T00:00:00	2024-11-06T13:00:00	8	Radiación solar	764
131049	7	Sololá	701	Sololá	2	El tablón	1	Enero	2023-01-14T00:00:00	2024-11-06T14:00:00	2	Temperatura media	16.5
131050	7	Sololá	701	Sololá	2	El tablón	1	Enero	2023-01-14T00:00:00	2024-11-06T14:00:00	4	Temperatura máxima	17.1
131051	7	Sololá	701	Sololá	2	El tablón	1	Enero	2023-01-14T00:00:00	2024-11-06T14:00:00	3	Temperatura mínima	16
131052	7	Sololá	701	Sololá	2	El tablón	1	Enero	2023-01-14T00:00:00	2024-11-06T14:00:00	5	Humedad	41
131053	7	Sololá	701	Sololá	2	El tablón	1	Enero	2023-01-14T00:00:00	2024-11-06T14:00:00	6	Velocidad del viento	12.9
131054	7	Sololá	701	Sololá	2	El tablón	1	Enero	2023-01-14T00:00:00	2024-11-06T14:00:00	7	Dirección del viento	12.87
131055	7	Sololá	701	Sololá	2	El tablón	1	Enero	2023-01-14T00:00:00	2024-11-06T14:00:00	1	Precipitación	0
131056	7	Sololá	701	Sololá	2	El tablón	1	Enero	2023-01-14T00:00:00	2024-11-06T14:00:00	8	Radiación solar	741
131057	7	Sololá	701	Sololá	2	El tablón	1	Enero	2023-01-14T00:00:00	2024-11-06T15:00:00	2	Temperatura media	16.6
131058	7	Sololá	701	Sololá	2	El tablón	1	Enero	2023-01-14T00:00:00	2024-11-06T15:00:00	4	Temperatura máxima	16.9
131059	7	Sololá	701	Sololá	2	El tablón	1	Enero	2023-01-14T00:00:00	2024-11-06T15:00:00	3	Temperatura mínima	16.3
131060	7	Sololá	701	Sololá	2	El tablón	1	Enero	2023-01-14T00:00:00	2024-11-06T15:00:00	5	Humedad	47
131061	7	Sololá	701	Sololá	2	El tablón	1	Enero	2023-01-14T00:00:00	2024-11-06T15:00:00	6	Velocidad del viento	11.3
131062	7	Sololá	701	Sololá	2	El tablón	1	Enero	2023-01-14T00:00:00	2024-11-06T15:00:00	7	Dirección del viento	11.27
131063	7	Sololá	701	Sololá	2	El tablón	1	Enero	2023-01-14T00:00:00	2024-11-06T15:00:00	1	Precipitación	0
131064	7	Sololá	701	Sololá	2	El tablón	1	Enero	2023-01-14T00:00:00	2024-11-06T15:00:00	8	Radiación solar	630
131065	7	Sololá	701	Sololá	2	El tablón	1	Enero	2023-01-14T00:00:00	2024-11-06T16:00:00	2	Temperatura media	16.1
131066	7	Sololá	701	Sololá	2	El tablón	1	Enero	2023-01-14T00:00:00	2024-11-06T16:00:00	4	Temperatura máxima	16.7
131067	7	Sololá	701	Sololá	2	El tablón	1	Enero	2023-01-14T00:00:00	2024-11-06T16:00:00	3	Temperatura mínima	16.1
131068	7	Sololá	701	Sololá	2	El tablón	1	Enero	2023-01-14T00:00:00	2024-11-06T16:00:00	5	Humedad	50
131069	7	Sololá	701	Sololá	2	El tablón	1	Enero	2023-01-14T00:00:00	2024-11-06T16:00:00	6	Velocidad del viento	9.7
131070	7	Sololá	701	Sololá	2	El tablón	1	Enero	2023-01-14T00:00:00	2024-11-06T16:00:00	7	Dirección del viento	9.66
131071	7	Sololá	701	Sololá	2	El tablón	1	Enero	2023-01-14T00:00:00	2024-11-06T16:00:00	1	Precipitación	0
131072	7	Sololá	701	Sololá	2	El tablón	1	Enero	2023-01-14T00:00:00	2024-11-06T16:00:00	8	Radiación solar	462
131073	7	Sololá	701	Sololá	2	El tablón	1	Enero	2023-01-14T00:00:00	2024-11-06T17:00:00	2	Temperatura media	14.7
131074	7	Sololá	701	Sololá	2	El tablón	1	Enero	2023-01-14T00:00:00	2024-11-06T17:00:00	4	Temperatura máxima	16
131075	7	Sololá	701	Sololá	2	El tablón	1	Enero	2023-01-14T00:00:00	2024-11-06T17:00:00	3	Temperatura mínima	14.7
131076	7	Sololá	701	Sololá	2	El tablón	1	Enero	2023-01-14T00:00:00	2024-11-06T17:00:00	5	Humedad	57
131077	7	Sololá	701	Sololá	2	El tablón	1	Enero	2023-01-14T00:00:00	2024-11-06T17:00:00	6	Velocidad del viento	8
131078	7	Sololá	701	Sololá	2	El tablón	1	Enero	2023-01-14T00:00:00	2024-11-06T17:00:00	7	Dirección del viento	8.05
131079	7	Sololá	701	Sololá	2	El tablón	1	Enero	2023-01-14T00:00:00	2024-11-06T17:00:00	1	Precipitación	0
131080	7	Sololá	701	Sololá	2	El tablón	1	Enero	2023-01-14T00:00:00	2024-11-06T17:00:00	8	Radiación solar	260
131081	7	Sololá	701	Sololá	2	El tablón	1	Enero	2023-01-14T00:00:00	2024-11-06T18:00:00	2	Temperatura media	11.7
131082	7	Sololá	701	Sololá	2	El tablón	1	Enero	2023-01-14T00:00:00	2024-11-06T18:00:00	4	Temperatura máxima	14.7
131083	7	Sololá	701	Sololá	2	El tablón	1	Enero	2023-01-14T00:00:00	2024-11-06T18:00:00	3	Temperatura mínima	11.7
131084	7	Sololá	701	Sololá	2	El tablón	1	Enero	2023-01-14T00:00:00	2024-11-06T18:00:00	5	Humedad	74
131085	7	Sololá	701	Sololá	2	El tablón	1	Enero	2023-01-14T00:00:00	2024-11-06T18:00:00	6	Velocidad del viento	8
131086	7	Sololá	701	Sololá	2	El tablón	1	Enero	2023-01-14T00:00:00	2024-11-06T18:00:00	7	Dirección del viento	8.05
131087	7	Sololá	701	Sololá	2	El tablón	1	Enero	2023-01-14T00:00:00	2024-11-06T18:00:00	1	Precipitación	0
131088	7	Sololá	701	Sololá	2	El tablón	1	Enero	2023-01-14T00:00:00	2024-11-06T18:00:00	8	Radiación solar	47
131089	7	Sololá	701	Sololá	2	El tablón	1	Enero	2023-01-14T00:00:00	2024-11-06T19:00:00	2	Temperatura media	10.4
131090	7	Sololá	701	Sololá	2	El tablón	1	Enero	2023-01-14T00:00:00	2024-11-06T19:00:00	4	Temperatura máxima	11.7
131091	7	Sololá	701	Sololá	2	El tablón	1	Enero	2023-01-14T00:00:00	2024-11-06T19:00:00	3	Temperatura mínima	10.4
131092	7	Sololá	701	Sololá	2	El tablón	1	Enero	2023-01-14T00:00:00	2024-11-06T19:00:00	5	Humedad	71
131093	7	Sololá	701	Sololá	2	El tablón	1	Enero	2023-01-14T00:00:00	2024-11-06T19:00:00	6	Velocidad del viento	6.4
131094	7	Sololá	701	Sololá	2	El tablón	1	Enero	2023-01-14T00:00:00	2024-11-06T19:00:00	7	Dirección del viento	6.44
131095	7	Sololá	701	Sololá	2	El tablón	1	Enero	2023-01-14T00:00:00	2024-11-06T19:00:00	1	Precipitación	0
131096	7	Sololá	701	Sololá	2	El tablón	1	Enero	2023-01-14T00:00:00	2024-11-06T19:00:00	8	Radiación solar	0
131097	7	Sololá	701	Sololá	2	El tablón	1	Enero	2023-01-14T00:00:00	2024-11-06T20:00:00	2	Temperatura media	11.2
131098	7	Sololá	701	Sololá	2	El tablón	1	Enero	2023-01-14T00:00:00	2024-11-06T20:00:00	4	Temperatura máxima	11.2
131099	7	Sololá	701	Sololá	2	El tablón	1	Enero	2023-01-14T00:00:00	2024-11-06T20:00:00	3	Temperatura mínima	10.3
131100	7	Sololá	701	Sololá	2	El tablón	1	Enero	2023-01-14T00:00:00	2024-11-06T20:00:00	5	Humedad	39
131101	7	Sololá	701	Sololá	2	El tablón	1	Enero	2023-01-14T00:00:00	2024-11-06T20:00:00	6	Velocidad del viento	8
131102	7	Sololá	701	Sololá	2	El tablón	1	Enero	2023-01-14T00:00:00	2024-11-06T20:00:00	7	Dirección del viento	8.05
131103	7	Sololá	701	Sololá	2	El tablón	1	Enero	2023-01-14T00:00:00	2024-11-06T20:00:00	1	Precipitación	0
131104	7	Sololá	701	Sololá	2	El tablón	1	Enero	2023-01-14T00:00:00	2024-11-06T20:00:00	8	Radiación solar	0
131105	7	Sololá	701	Sololá	2	El tablón	1	Enero	2023-01-14T00:00:00	2024-11-06T21:00:00	2	Temperatura media	11.3
131106	7	Sololá	701	Sololá	2	El tablón	1	Enero	2023-01-14T00:00:00	2024-11-06T21:00:00	4	Temperatura máxima	11.4
131107	7	Sololá	701	Sololá	2	El tablón	1	Enero	2023-01-14T00:00:00	2024-11-06T21:00:00	3	Temperatura mínima	11.1
131108	7	Sololá	701	Sololá	2	El tablón	1	Enero	2023-01-14T00:00:00	2024-11-06T21:00:00	5	Humedad	32
131109	7	Sololá	701	Sololá	2	El tablón	1	Enero	2023-01-14T00:00:00	2024-11-06T21:00:00	6	Velocidad del viento	8
131110	7	Sololá	701	Sololá	2	El tablón	1	Enero	2023-01-14T00:00:00	2024-11-06T21:00:00	7	Dirección del viento	8.05
131111	7	Sololá	701	Sololá	2	El tablón	1	Enero	2023-01-14T00:00:00	2024-11-06T21:00:00	1	Precipitación	0
131112	7	Sololá	701	Sololá	2	El tablón	1	Enero	2023-01-14T00:00:00	2024-11-06T21:00:00	8	Radiación solar	0
131113	7	Sololá	701	Sololá	2	El tablón	1	Enero	2023-01-14T00:00:00	2024-11-06T22:00:00	2	Temperatura media	11.6
131114	7	Sololá	701	Sololá	2	El tablón	1	Enero	2023-01-14T00:00:00	2024-11-06T22:00:00	4	Temperatura máxima	11.6
131115	7	Sololá	701	Sololá	2	El tablón	1	Enero	2023-01-14T00:00:00	2024-11-06T22:00:00	3	Temperatura mínima	11.2
131116	7	Sololá	701	Sololá	2	El tablón	1	Enero	2023-01-14T00:00:00	2024-11-06T22:00:00	5	Humedad	28
131117	7	Sololá	701	Sololá	2	El tablón	1	Enero	2023-01-14T00:00:00	2024-11-06T22:00:00	6	Velocidad del viento	9.7
131118	7	Sololá	701	Sololá	2	El tablón	1	Enero	2023-01-14T00:00:00	2024-11-06T22:00:00	7	Dirección del viento	9.66
131119	7	Sololá	701	Sololá	2	El tablón	1	Enero	2023-01-14T00:00:00	2024-11-06T22:00:00	1	Precipitación	0
131120	7	Sololá	701	Sololá	2	El tablón	1	Enero	2023-01-14T00:00:00	2024-11-06T22:00:00	8	Radiación solar	0
131121	7	Sololá	701	Sololá	2	El tablón	1	Enero	2023-01-14T00:00:00	2024-11-06T23:00:00	2	Temperatura media	10.3
131122	7	Sololá	701	Sololá	2	El tablón	1	Enero	2023-01-14T00:00:00	2024-11-06T23:00:00	4	Temperatura máxima	11.7
131123	7	Sololá	701	Sololá	2	El tablón	1	Enero	2023-01-14T00:00:00	2024-11-06T23:00:00	3	Temperatura mínima	10.3
131124	7	Sololá	701	Sololá	2	El tablón	1	Enero	2023-01-14T00:00:00	2024-11-06T23:00:00	5	Humedad	32
131125	7	Sololá	701	Sololá	2	El tablón	1	Enero	2023-01-14T00:00:00	2024-11-06T23:00:00	6	Velocidad del viento	6.4
131126	7	Sololá	701	Sololá	2	El tablón	1	Enero	2023-01-14T00:00:00	2024-11-06T23:00:00	7	Dirección del viento	6.44
131127	7	Sololá	701	Sololá	2	El tablón	1	Enero	2023-01-14T00:00:00	2024-11-06T23:00:00	1	Precipitación	0
131128	7	Sololá	701	Sololá	2	El tablón	1	Enero	2023-01-14T00:00:00	2024-11-06T23:00:00	8	Radiación solar	0
131129	7	Sololá	701	Sololá	2	El tablón	1	Enero	2023-01-15T00:00:00	2024-11-06T00:00:00	2	Temperatura media	9.3
131130	7	Sololá	701	Sololá	2	El tablón	1	Enero	2023-01-15T00:00:00	2024-11-06T00:00:00	4	Temperatura máxima	10.3
131131	7	Sololá	701	Sololá	2	El tablón	1	Enero	2023-01-15T00:00:00	2024-11-06T00:00:00	3	Temperatura mínima	8.9
131132	7	Sololá	701	Sololá	2	El tablón	1	Enero	2023-01-15T00:00:00	2024-11-06T00:00:00	5	Humedad	33
131133	7	Sololá	701	Sololá	2	El tablón	1	Enero	2023-01-15T00:00:00	2024-11-06T00:00:00	6	Velocidad del viento	4.8
131134	7	Sololá	701	Sololá	2	El tablón	1	Enero	2023-01-15T00:00:00	2024-11-06T00:00:00	7	Dirección del viento	4.83
131135	7	Sololá	701	Sololá	2	El tablón	1	Enero	2023-01-15T00:00:00	2024-11-06T00:00:00	1	Precipitación	0
131136	7	Sololá	701	Sololá	2	El tablón	1	Enero	2023-01-15T00:00:00	2024-11-06T00:00:00	8	Radiación solar	0
131137	7	Sololá	701	Sololá	2	El tablón	1	Enero	2023-01-15T00:00:00	2024-11-06T01:00:00	2	Temperatura media	7.9
131138	7	Sololá	701	Sololá	2	El tablón	1	Enero	2023-01-15T00:00:00	2024-11-06T01:00:00	4	Temperatura máxima	9.7
131139	7	Sololá	701	Sololá	2	El tablón	1	Enero	2023-01-15T00:00:00	2024-11-06T01:00:00	3	Temperatura mínima	7.5
131140	7	Sololá	701	Sololá	2	El tablón	1	Enero	2023-01-15T00:00:00	2024-11-06T01:00:00	5	Humedad	43
131141	7	Sololá	701	Sololá	2	El tablón	1	Enero	2023-01-15T00:00:00	2024-11-06T01:00:00	6	Velocidad del viento	4.8
131142	7	Sololá	701	Sololá	2	El tablón	1	Enero	2023-01-15T00:00:00	2024-11-06T01:00:00	7	Dirección del viento	4.83
131143	7	Sololá	701	Sololá	2	El tablón	1	Enero	2023-01-15T00:00:00	2024-11-06T01:00:00	1	Precipitación	0
131144	7	Sololá	701	Sololá	2	El tablón	1	Enero	2023-01-15T00:00:00	2024-11-06T01:00:00	8	Radiación solar	0
131145	7	Sololá	701	Sololá	2	El tablón	1	Enero	2023-01-15T00:00:00	2024-11-06T02:00:00	2	Temperatura media	7.9
131146	7	Sololá	701	Sololá	2	El tablón	1	Enero	2023-01-15T00:00:00	2024-11-06T02:00:00	4	Temperatura máxima	8.5
131147	7	Sololá	701	Sololá	2	El tablón	1	Enero	2023-01-15T00:00:00	2024-11-06T02:00:00	3	Temperatura mínima	7.7
131148	7	Sololá	701	Sololá	2	El tablón	1	Enero	2023-01-15T00:00:00	2024-11-06T02:00:00	5	Humedad	46
131149	7	Sololá	701	Sololá	2	El tablón	1	Enero	2023-01-15T00:00:00	2024-11-06T02:00:00	6	Velocidad del viento	4.8
131150	7	Sololá	701	Sololá	2	El tablón	1	Enero	2023-01-15T00:00:00	2024-11-06T02:00:00	7	Dirección del viento	4.83
131151	7	Sololá	701	Sololá	2	El tablón	1	Enero	2023-01-15T00:00:00	2024-11-06T02:00:00	1	Precipitación	0
131152	7	Sololá	701	Sololá	2	El tablón	1	Enero	2023-01-15T00:00:00	2024-11-06T02:00:00	8	Radiación solar	0
131153	7	Sololá	701	Sololá	2	El tablón	1	Enero	2023-01-15T00:00:00	2024-11-06T03:00:00	2	Temperatura media	8.3
131154	7	Sololá	701	Sololá	2	El tablón	1	Enero	2023-01-15T00:00:00	2024-11-06T03:00:00	4	Temperatura máxima	8.4
131155	7	Sololá	701	Sololá	2	El tablón	1	Enero	2023-01-15T00:00:00	2024-11-06T03:00:00	3	Temperatura mínima	7.9
131156	7	Sololá	701	Sololá	2	El tablón	1	Enero	2023-01-15T00:00:00	2024-11-06T03:00:00	5	Humedad	53
131157	7	Sololá	701	Sololá	2	El tablón	1	Enero	2023-01-15T00:00:00	2024-11-06T03:00:00	6	Velocidad del viento	3.2
131158	7	Sololá	701	Sololá	2	El tablón	1	Enero	2023-01-15T00:00:00	2024-11-06T03:00:00	7	Dirección del viento	3.22
131159	7	Sololá	701	Sololá	2	El tablón	1	Enero	2023-01-15T00:00:00	2024-11-06T03:00:00	1	Precipitación	0
131160	7	Sololá	701	Sololá	2	El tablón	1	Enero	2023-01-15T00:00:00	2024-11-06T03:00:00	8	Radiación solar	0
131161	7	Sololá	701	Sololá	2	El tablón	1	Enero	2023-01-15T00:00:00	2024-11-06T04:00:00	2	Temperatura media	7.7
131162	7	Sololá	701	Sololá	2	El tablón	1	Enero	2023-01-15T00:00:00	2024-11-06T04:00:00	4	Temperatura máxima	8.9
131163	7	Sololá	701	Sololá	2	El tablón	1	Enero	2023-01-15T00:00:00	2024-11-06T04:00:00	3	Temperatura mínima	6.9
131164	7	Sololá	701	Sololá	2	El tablón	1	Enero	2023-01-15T00:00:00	2024-11-06T04:00:00	5	Humedad	59
131165	7	Sololá	701	Sololá	2	El tablón	1	Enero	2023-01-15T00:00:00	2024-11-06T04:00:00	6	Velocidad del viento	3.2
131166	7	Sololá	701	Sololá	2	El tablón	1	Enero	2023-01-15T00:00:00	2024-11-06T04:00:00	7	Dirección del viento	3.22
131167	7	Sololá	701	Sololá	2	El tablón	1	Enero	2023-01-15T00:00:00	2024-11-06T04:00:00	1	Precipitación	0
131168	7	Sololá	701	Sololá	2	El tablón	1	Enero	2023-01-15T00:00:00	2024-11-06T04:00:00	8	Radiación solar	0
131169	7	Sololá	701	Sololá	2	El tablón	1	Enero	2023-01-15T00:00:00	2024-11-06T05:00:00	2	Temperatura media	6.8
131170	7	Sololá	701	Sololá	2	El tablón	1	Enero	2023-01-15T00:00:00	2024-11-06T05:00:00	4	Temperatura máxima	7.7
131171	7	Sololá	701	Sololá	2	El tablón	1	Enero	2023-01-15T00:00:00	2024-11-06T05:00:00	3	Temperatura mínima	6.8
131172	7	Sololá	701	Sololá	2	El tablón	1	Enero	2023-01-15T00:00:00	2024-11-06T05:00:00	5	Humedad	59
131173	7	Sololá	701	Sololá	2	El tablón	1	Enero	2023-01-15T00:00:00	2024-11-06T05:00:00	6	Velocidad del viento	3.2
131174	7	Sololá	701	Sololá	2	El tablón	1	Enero	2023-01-15T00:00:00	2024-11-06T05:00:00	7	Dirección del viento	3.22
131175	7	Sololá	701	Sololá	2	El tablón	1	Enero	2023-01-15T00:00:00	2024-11-06T05:00:00	1	Precipitación	0
131176	7	Sololá	701	Sololá	2	El tablón	1	Enero	2023-01-15T00:00:00	2024-11-06T05:00:00	8	Radiación solar	0
131177	7	Sololá	701	Sololá	2	El tablón	1	Enero	2023-01-15T00:00:00	2024-11-06T06:00:00	2	Temperatura media	7.9
131178	7	Sololá	701	Sololá	2	El tablón	1	Enero	2023-01-15T00:00:00	2024-11-06T06:00:00	4	Temperatura máxima	8.6
131179	7	Sololá	701	Sololá	2	El tablón	1	Enero	2023-01-15T00:00:00	2024-11-06T06:00:00	3	Temperatura mínima	6
131180	7	Sololá	701	Sololá	2	El tablón	1	Enero	2023-01-15T00:00:00	2024-11-06T06:00:00	5	Humedad	57
131181	7	Sololá	701	Sololá	2	El tablón	1	Enero	2023-01-15T00:00:00	2024-11-06T06:00:00	6	Velocidad del viento	3.2
131182	7	Sololá	701	Sololá	2	El tablón	1	Enero	2023-01-15T00:00:00	2024-11-06T06:00:00	7	Dirección del viento	3.22
131183	7	Sololá	701	Sololá	2	El tablón	1	Enero	2023-01-15T00:00:00	2024-11-06T06:00:00	1	Precipitación	0
131184	7	Sololá	701	Sololá	2	El tablón	1	Enero	2023-01-15T00:00:00	2024-11-06T06:00:00	8	Radiación solar	0
131185	7	Sololá	701	Sololá	2	El tablón	1	Enero	2023-01-15T00:00:00	2024-11-06T07:00:00	2	Temperatura media	6.7
131186	7	Sololá	701	Sololá	2	El tablón	1	Enero	2023-01-15T00:00:00	2024-11-06T07:00:00	4	Temperatura máxima	7.9
131187	7	Sololá	701	Sololá	2	El tablón	1	Enero	2023-01-15T00:00:00	2024-11-06T07:00:00	3	Temperatura mínima	6.1
131188	7	Sololá	701	Sololá	2	El tablón	1	Enero	2023-01-15T00:00:00	2024-11-06T07:00:00	5	Humedad	70
131189	7	Sololá	701	Sololá	2	El tablón	1	Enero	2023-01-15T00:00:00	2024-11-06T07:00:00	6	Velocidad del viento	4.8
131190	7	Sololá	701	Sololá	2	El tablón	1	Enero	2023-01-15T00:00:00	2024-11-06T07:00:00	7	Dirección del viento	4.83
131191	7	Sololá	701	Sololá	2	El tablón	1	Enero	2023-01-15T00:00:00	2024-11-06T07:00:00	1	Precipitación	0
131192	7	Sololá	701	Sololá	2	El tablón	1	Enero	2023-01-15T00:00:00	2024-11-06T07:00:00	8	Radiación solar	4
131193	7	Sololá	701	Sololá	2	El tablón	1	Enero	2023-01-15T00:00:00	2024-11-06T08:00:00	2	Temperatura media	11.8
131194	7	Sololá	701	Sololá	2	El tablón	1	Enero	2023-01-15T00:00:00	2024-11-06T08:00:00	4	Temperatura máxima	11.8
131195	7	Sololá	701	Sololá	2	El tablón	1	Enero	2023-01-15T00:00:00	2024-11-06T08:00:00	3	Temperatura mínima	6.7
131196	7	Sololá	701	Sololá	2	El tablón	1	Enero	2023-01-15T00:00:00	2024-11-06T08:00:00	5	Humedad	59
131197	7	Sololá	701	Sololá	2	El tablón	1	Enero	2023-01-15T00:00:00	2024-11-06T08:00:00	6	Velocidad del viento	4.8
131198	7	Sololá	701	Sololá	2	El tablón	1	Enero	2023-01-15T00:00:00	2024-11-06T08:00:00	7	Dirección del viento	4.83
131199	7	Sololá	701	Sololá	2	El tablón	1	Enero	2023-01-15T00:00:00	2024-11-06T08:00:00	1	Precipitación	0
131200	7	Sololá	701	Sololá	2	El tablón	1	Enero	2023-01-15T00:00:00	2024-11-06T08:00:00	8	Radiación solar	121
131201	7	Sololá	701	Sololá	2	El tablón	1	Enero	2023-01-15T00:00:00	2024-11-06T09:00:00	2	Temperatura media	15.3
131202	7	Sololá	701	Sololá	2	El tablón	1	Enero	2023-01-15T00:00:00	2024-11-06T09:00:00	4	Temperatura máxima	15.3
131203	7	Sololá	701	Sololá	2	El tablón	1	Enero	2023-01-15T00:00:00	2024-11-06T09:00:00	3	Temperatura mínima	11.8
131204	7	Sololá	701	Sololá	2	El tablón	1	Enero	2023-01-15T00:00:00	2024-11-06T09:00:00	5	Humedad	48
131205	7	Sololá	701	Sololá	2	El tablón	1	Enero	2023-01-15T00:00:00	2024-11-06T09:00:00	6	Velocidad del viento	1.6
131206	7	Sololá	701	Sololá	2	El tablón	1	Enero	2023-01-15T00:00:00	2024-11-06T09:00:00	7	Dirección del viento	1.61
131207	7	Sololá	701	Sololá	2	El tablón	1	Enero	2023-01-15T00:00:00	2024-11-06T09:00:00	1	Precipitación	0
131208	7	Sololá	701	Sololá	2	El tablón	1	Enero	2023-01-15T00:00:00	2024-11-06T09:00:00	8	Radiación solar	337
131209	7	Sololá	701	Sololá	2	El tablón	1	Enero	2023-01-15T00:00:00	2024-11-06T10:00:00	2	Temperatura media	17.3
131210	7	Sololá	701	Sololá	2	El tablón	1	Enero	2023-01-15T00:00:00	2024-11-06T10:00:00	4	Temperatura máxima	17.3
131211	7	Sololá	701	Sololá	2	El tablón	1	Enero	2023-01-15T00:00:00	2024-11-06T10:00:00	3	Temperatura mínima	15.2
131212	7	Sololá	701	Sololá	2	El tablón	1	Enero	2023-01-15T00:00:00	2024-11-06T10:00:00	5	Humedad	44
131213	7	Sololá	701	Sololá	2	El tablón	1	Enero	2023-01-15T00:00:00	2024-11-06T10:00:00	6	Velocidad del viento	3.2
131214	7	Sololá	701	Sololá	2	El tablón	1	Enero	2023-01-15T00:00:00	2024-11-06T10:00:00	7	Dirección del viento	3.22
131215	7	Sololá	701	Sololá	2	El tablón	1	Enero	2023-01-15T00:00:00	2024-11-06T10:00:00	1	Precipitación	0
131216	7	Sololá	701	Sololá	2	El tablón	1	Enero	2023-01-15T00:00:00	2024-11-06T10:00:00	8	Radiación solar	528
131217	7	Sololá	701	Sololá	2	El tablón	1	Enero	2023-01-15T00:00:00	2024-11-06T11:00:00	2	Temperatura media	18.1
131218	7	Sololá	701	Sololá	2	El tablón	1	Enero	2023-01-15T00:00:00	2024-11-06T11:00:00	4	Temperatura máxima	18.1
131219	7	Sololá	701	Sololá	2	El tablón	1	Enero	2023-01-15T00:00:00	2024-11-06T11:00:00	3	Temperatura mínima	17.2
131220	7	Sololá	701	Sololá	2	El tablón	1	Enero	2023-01-15T00:00:00	2024-11-06T11:00:00	5	Humedad	35
131221	7	Sololá	701	Sololá	2	El tablón	1	Enero	2023-01-15T00:00:00	2024-11-06T11:00:00	6	Velocidad del viento	6.4
131222	7	Sololá	701	Sololá	2	El tablón	1	Enero	2023-01-15T00:00:00	2024-11-06T11:00:00	7	Dirección del viento	6.44
131223	7	Sololá	701	Sololá	2	El tablón	1	Enero	2023-01-15T00:00:00	2024-11-06T11:00:00	1	Precipitación	0
131224	7	Sololá	701	Sololá	2	El tablón	1	Enero	2023-01-15T00:00:00	2024-11-06T11:00:00	8	Radiación solar	679
131225	7	Sololá	701	Sololá	2	El tablón	1	Enero	2023-01-15T00:00:00	2024-11-06T12:00:00	2	Temperatura media	17.8
131226	7	Sololá	701	Sololá	2	El tablón	1	Enero	2023-01-15T00:00:00	2024-11-06T12:00:00	4	Temperatura máxima	18.3
131227	7	Sololá	701	Sololá	2	El tablón	1	Enero	2023-01-15T00:00:00	2024-11-06T12:00:00	3	Temperatura mínima	17.7
131228	7	Sololá	701	Sololá	2	El tablón	1	Enero	2023-01-15T00:00:00	2024-11-06T12:00:00	5	Humedad	40
131229	7	Sololá	701	Sololá	2	El tablón	1	Enero	2023-01-15T00:00:00	2024-11-06T12:00:00	6	Velocidad del viento	8
131230	7	Sololá	701	Sololá	2	El tablón	1	Enero	2023-01-15T00:00:00	2024-11-06T12:00:00	7	Dirección del viento	8.05
131231	7	Sololá	701	Sololá	2	El tablón	1	Enero	2023-01-15T00:00:00	2024-11-06T12:00:00	1	Precipitación	0
131232	7	Sololá	701	Sololá	2	El tablón	1	Enero	2023-01-15T00:00:00	2024-11-06T12:00:00	8	Radiación solar	667
131233	7	Sololá	701	Sololá	2	El tablón	1	Enero	2023-01-15T00:00:00	2024-11-06T13:00:00	2	Temperatura media	16.2
131234	7	Sololá	701	Sololá	2	El tablón	1	Enero	2023-01-15T00:00:00	2024-11-06T13:00:00	4	Temperatura máxima	17.8
131235	7	Sololá	701	Sololá	2	El tablón	1	Enero	2023-01-15T00:00:00	2024-11-06T13:00:00	3	Temperatura mínima	16.2
131236	7	Sololá	701	Sololá	2	El tablón	1	Enero	2023-01-15T00:00:00	2024-11-06T13:00:00	5	Humedad	60
131237	7	Sololá	701	Sololá	2	El tablón	1	Enero	2023-01-15T00:00:00	2024-11-06T13:00:00	6	Velocidad del viento	9.7
131238	7	Sololá	701	Sololá	2	El tablón	1	Enero	2023-01-15T00:00:00	2024-11-06T13:00:00	7	Dirección del viento	9.66
131239	7	Sololá	701	Sololá	2	El tablón	1	Enero	2023-01-15T00:00:00	2024-11-06T13:00:00	1	Precipitación	0
131240	7	Sololá	701	Sololá	2	El tablón	1	Enero	2023-01-15T00:00:00	2024-11-06T13:00:00	8	Radiación solar	773
131241	7	Sololá	701	Sololá	2	El tablón	1	Enero	2023-01-15T00:00:00	2024-11-06T14:00:00	2	Temperatura media	16
131242	7	Sololá	701	Sololá	2	El tablón	1	Enero	2023-01-15T00:00:00	2024-11-06T14:00:00	4	Temperatura máxima	16.6
131243	7	Sololá	701	Sololá	2	El tablón	1	Enero	2023-01-15T00:00:00	2024-11-06T14:00:00	3	Temperatura mínima	15.8
131244	7	Sololá	701	Sololá	2	El tablón	1	Enero	2023-01-15T00:00:00	2024-11-06T14:00:00	5	Humedad	73
131245	7	Sololá	701	Sololá	2	El tablón	1	Enero	2023-01-15T00:00:00	2024-11-06T14:00:00	6	Velocidad del viento	9.7
131246	7	Sololá	701	Sololá	2	El tablón	1	Enero	2023-01-15T00:00:00	2024-11-06T14:00:00	7	Dirección del viento	9.66
131247	7	Sololá	701	Sololá	2	El tablón	1	Enero	2023-01-15T00:00:00	2024-11-06T14:00:00	1	Precipitación	0
131248	7	Sololá	701	Sololá	2	El tablón	1	Enero	2023-01-15T00:00:00	2024-11-06T14:00:00	8	Radiación solar	743
131249	7	Sololá	701	Sololá	2	El tablón	1	Enero	2023-01-15T00:00:00	2024-11-06T15:00:00	2	Temperatura media	14.8
131250	7	Sololá	701	Sololá	2	El tablón	1	Enero	2023-01-15T00:00:00	2024-11-06T15:00:00	4	Temperatura máxima	16.1
131251	7	Sololá	701	Sololá	2	El tablón	1	Enero	2023-01-15T00:00:00	2024-11-06T15:00:00	3	Temperatura mínima	14.8
131252	7	Sololá	701	Sololá	2	El tablón	1	Enero	2023-01-15T00:00:00	2024-11-06T15:00:00	5	Humedad	79
131253	7	Sololá	701	Sololá	2	El tablón	1	Enero	2023-01-15T00:00:00	2024-11-06T15:00:00	6	Velocidad del viento	9.7
131254	7	Sololá	701	Sololá	2	El tablón	1	Enero	2023-01-15T00:00:00	2024-11-06T15:00:00	7	Dirección del viento	9.66
131255	7	Sololá	701	Sololá	2	El tablón	1	Enero	2023-01-15T00:00:00	2024-11-06T15:00:00	1	Precipitación	0
131256	7	Sololá	701	Sololá	2	El tablón	1	Enero	2023-01-15T00:00:00	2024-11-06T15:00:00	8	Radiación solar	645
131257	7	Sololá	701	Sololá	2	El tablón	1	Enero	2023-01-15T00:00:00	2024-11-06T16:00:00	2	Temperatura media	14.2
131258	7	Sololá	701	Sololá	2	El tablón	1	Enero	2023-01-15T00:00:00	2024-11-06T16:00:00	4	Temperatura máxima	15.6
131259	7	Sololá	701	Sololá	2	El tablón	1	Enero	2023-01-15T00:00:00	2024-11-06T16:00:00	3	Temperatura mínima	14.2
131260	7	Sololá	701	Sololá	2	El tablón	1	Enero	2023-01-15T00:00:00	2024-11-06T16:00:00	5	Humedad	82
131261	7	Sololá	701	Sololá	2	El tablón	1	Enero	2023-01-15T00:00:00	2024-11-06T16:00:00	6	Velocidad del viento	8
131262	7	Sololá	701	Sololá	2	El tablón	1	Enero	2023-01-15T00:00:00	2024-11-06T16:00:00	7	Dirección del viento	8.05
131263	7	Sololá	701	Sololá	2	El tablón	1	Enero	2023-01-15T00:00:00	2024-11-06T16:00:00	1	Precipitación	0
131264	7	Sololá	701	Sololá	2	El tablón	1	Enero	2023-01-15T00:00:00	2024-11-06T16:00:00	8	Radiación solar	468
131265	7	Sololá	701	Sololá	2	El tablón	1	Enero	2023-01-15T00:00:00	2024-11-06T17:00:00	2	Temperatura media	13.1
131266	7	Sololá	701	Sololá	2	El tablón	1	Enero	2023-01-15T00:00:00	2024-11-06T17:00:00	4	Temperatura máxima	14.2
131267	7	Sololá	701	Sololá	2	El tablón	1	Enero	2023-01-15T00:00:00	2024-11-06T17:00:00	3	Temperatura mínima	13
131268	7	Sololá	701	Sololá	2	El tablón	1	Enero	2023-01-15T00:00:00	2024-11-06T17:00:00	5	Humedad	87
131269	7	Sololá	701	Sololá	2	El tablón	1	Enero	2023-01-15T00:00:00	2024-11-06T17:00:00	6	Velocidad del viento	6.4
131270	7	Sololá	701	Sololá	2	El tablón	1	Enero	2023-01-15T00:00:00	2024-11-06T17:00:00	7	Dirección del viento	6.44
131271	7	Sololá	701	Sololá	2	El tablón	1	Enero	2023-01-15T00:00:00	2024-11-06T17:00:00	1	Precipitación	0
131272	7	Sololá	701	Sololá	2	El tablón	1	Enero	2023-01-15T00:00:00	2024-11-06T17:00:00	8	Radiación solar	133
131273	7	Sololá	701	Sololá	2	El tablón	1	Enero	2023-01-15T00:00:00	2024-11-06T18:00:00	2	Temperatura media	12.5
131274	7	Sololá	701	Sololá	2	El tablón	1	Enero	2023-01-15T00:00:00	2024-11-06T18:00:00	4	Temperatura máxima	13.1
131275	7	Sololá	701	Sololá	2	El tablón	1	Enero	2023-01-15T00:00:00	2024-11-06T18:00:00	3	Temperatura mínima	12.5
131276	7	Sololá	701	Sololá	2	El tablón	1	Enero	2023-01-15T00:00:00	2024-11-06T18:00:00	5	Humedad	89
131277	7	Sololá	701	Sololá	2	El tablón	1	Enero	2023-01-15T00:00:00	2024-11-06T18:00:00	6	Velocidad del viento	1.6
131278	7	Sololá	701	Sololá	2	El tablón	1	Enero	2023-01-15T00:00:00	2024-11-06T18:00:00	7	Dirección del viento	1.61
131279	7	Sololá	701	Sololá	2	El tablón	1	Enero	2023-01-15T00:00:00	2024-11-06T18:00:00	1	Precipitación	0
131280	7	Sololá	701	Sololá	2	El tablón	1	Enero	2023-01-15T00:00:00	2024-11-06T18:00:00	8	Radiación solar	25
131281	7	Sololá	701	Sololá	2	El tablón	1	Enero	2023-01-15T00:00:00	2024-11-06T19:00:00	2	Temperatura media	11.9
131282	7	Sololá	701	Sololá	2	El tablón	1	Enero	2023-01-15T00:00:00	2024-11-06T19:00:00	4	Temperatura máxima	12.5
131283	7	Sololá	701	Sololá	2	El tablón	1	Enero	2023-01-15T00:00:00	2024-11-06T19:00:00	3	Temperatura mínima	11.9
131284	7	Sololá	701	Sololá	2	El tablón	1	Enero	2023-01-15T00:00:00	2024-11-06T19:00:00	5	Humedad	90
131285	7	Sololá	701	Sololá	2	El tablón	1	Enero	2023-01-15T00:00:00	2024-11-06T19:00:00	6	Velocidad del viento	0
131286	7	Sololá	701	Sololá	2	El tablón	1	Enero	2023-01-15T00:00:00	2024-11-06T19:00:00	7	Dirección del viento	0
131287	7	Sololá	701	Sololá	2	El tablón	1	Enero	2023-01-15T00:00:00	2024-11-06T19:00:00	1	Precipitación	0
131288	7	Sololá	701	Sololá	2	El tablón	1	Enero	2023-01-15T00:00:00	2024-11-06T19:00:00	8	Radiación solar	0
131289	7	Sololá	701	Sololá	2	El tablón	1	Enero	2023-01-15T00:00:00	2024-11-06T20:00:00	2	Temperatura media	11.7
131290	7	Sololá	701	Sololá	2	El tablón	1	Enero	2023-01-15T00:00:00	2024-11-06T20:00:00	4	Temperatura máxima	11.9
131291	7	Sololá	701	Sololá	2	El tablón	1	Enero	2023-01-15T00:00:00	2024-11-06T20:00:00	3	Temperatura mínima	11.6
131292	7	Sololá	701	Sololá	2	El tablón	1	Enero	2023-01-15T00:00:00	2024-11-06T20:00:00	5	Humedad	90
131293	7	Sololá	701	Sololá	2	El tablón	1	Enero	2023-01-15T00:00:00	2024-11-06T20:00:00	6	Velocidad del viento	1.6
131294	7	Sololá	701	Sololá	2	El tablón	1	Enero	2023-01-15T00:00:00	2024-11-06T20:00:00	7	Dirección del viento	1.61
131295	7	Sololá	701	Sololá	2	El tablón	1	Enero	2023-01-15T00:00:00	2024-11-06T20:00:00	1	Precipitación	0
131296	7	Sololá	701	Sololá	2	El tablón	1	Enero	2023-01-15T00:00:00	2024-11-06T20:00:00	8	Radiación solar	0
131297	7	Sololá	701	Sololá	2	El tablón	1	Enero	2023-01-15T00:00:00	2024-11-06T21:00:00	2	Temperatura media	10.9
131298	7	Sololá	701	Sololá	2	El tablón	1	Enero	2023-01-15T00:00:00	2024-11-06T21:00:00	4	Temperatura máxima	11.6
131299	7	Sololá	701	Sololá	2	El tablón	1	Enero	2023-01-15T00:00:00	2024-11-06T21:00:00	3	Temperatura mínima	10.9
131300	7	Sololá	701	Sololá	2	El tablón	1	Enero	2023-01-15T00:00:00	2024-11-06T21:00:00	5	Humedad	90
131301	7	Sololá	701	Sololá	2	El tablón	1	Enero	2023-01-15T00:00:00	2024-11-06T21:00:00	6	Velocidad del viento	1.6
131302	7	Sololá	701	Sololá	2	El tablón	1	Enero	2023-01-15T00:00:00	2024-11-06T21:00:00	7	Dirección del viento	1.61
131303	7	Sololá	701	Sololá	2	El tablón	1	Enero	2023-01-15T00:00:00	2024-11-06T21:00:00	1	Precipitación	0
131304	7	Sololá	701	Sololá	2	El tablón	1	Enero	2023-01-15T00:00:00	2024-11-06T21:00:00	8	Radiación solar	0
131305	7	Sololá	701	Sololá	2	El tablón	1	Enero	2023-01-15T00:00:00	2024-11-06T22:00:00	2	Temperatura media	9.8
131306	7	Sololá	701	Sololá	2	El tablón	1	Enero	2023-01-15T00:00:00	2024-11-06T22:00:00	4	Temperatura máxima	10.9
131307	7	Sololá	701	Sololá	2	El tablón	1	Enero	2023-01-15T00:00:00	2024-11-06T22:00:00	3	Temperatura mínima	9.8
131308	7	Sololá	701	Sololá	2	El tablón	1	Enero	2023-01-15T00:00:00	2024-11-06T22:00:00	5	Humedad	90
131309	7	Sololá	701	Sololá	2	El tablón	1	Enero	2023-01-15T00:00:00	2024-11-06T22:00:00	6	Velocidad del viento	1.6
131310	7	Sololá	701	Sololá	2	El tablón	1	Enero	2023-01-15T00:00:00	2024-11-06T22:00:00	7	Dirección del viento	1.61
131311	7	Sololá	701	Sololá	2	El tablón	1	Enero	2023-01-15T00:00:00	2024-11-06T22:00:00	1	Precipitación	0
131312	7	Sololá	701	Sololá	2	El tablón	1	Enero	2023-01-15T00:00:00	2024-11-06T22:00:00	8	Radiación solar	0
131313	7	Sololá	701	Sololá	2	El tablón	1	Enero	2023-01-15T00:00:00	2024-11-06T23:00:00	2	Temperatura media	10.5
131314	7	Sololá	701	Sololá	2	El tablón	1	Enero	2023-01-15T00:00:00	2024-11-06T23:00:00	4	Temperatura máxima	10.5
131315	7	Sololá	701	Sololá	2	El tablón	1	Enero	2023-01-15T00:00:00	2024-11-06T23:00:00	3	Temperatura mínima	9.6
131316	7	Sololá	701	Sololá	2	El tablón	1	Enero	2023-01-15T00:00:00	2024-11-06T23:00:00	5	Humedad	90
131317	7	Sololá	701	Sololá	2	El tablón	1	Enero	2023-01-15T00:00:00	2024-11-06T23:00:00	6	Velocidad del viento	1.6
131318	7	Sololá	701	Sololá	2	El tablón	1	Enero	2023-01-15T00:00:00	2024-11-06T23:00:00	7	Dirección del viento	1.61
131319	7	Sololá	701	Sololá	2	El tablón	1	Enero	2023-01-15T00:00:00	2024-11-06T23:00:00	1	Precipitación	0
131320	7	Sololá	701	Sololá	2	El tablón	1	Enero	2023-01-15T00:00:00	2024-11-06T23:00:00	8	Radiación solar	0
131321	7	Sololá	701	Sololá	2	El tablón	1	Enero	2023-01-16T00:00:00	2024-11-06T00:00:00	2	Temperatura media	10.2
131322	7	Sololá	701	Sololá	2	El tablón	1	Enero	2023-01-16T00:00:00	2024-11-06T00:00:00	4	Temperatura máxima	10.6
131323	7	Sololá	701	Sololá	2	El tablón	1	Enero	2023-01-16T00:00:00	2024-11-06T00:00:00	3	Temperatura mínima	10.2
131324	7	Sololá	701	Sololá	2	El tablón	1	Enero	2023-01-16T00:00:00	2024-11-06T00:00:00	5	Humedad	89
131325	7	Sololá	701	Sololá	2	El tablón	1	Enero	2023-01-16T00:00:00	2024-11-06T00:00:00	6	Velocidad del viento	1.6
131326	7	Sololá	701	Sololá	2	El tablón	1	Enero	2023-01-16T00:00:00	2024-11-06T00:00:00	7	Dirección del viento	1.61
131327	7	Sololá	701	Sololá	2	El tablón	1	Enero	2023-01-16T00:00:00	2024-11-06T00:00:00	1	Precipitación	0
131328	7	Sololá	701	Sololá	2	El tablón	1	Enero	2023-01-16T00:00:00	2024-11-06T00:00:00	8	Radiación solar	0
131329	7	Sololá	701	Sololá	2	El tablón	1	Enero	2023-01-16T00:00:00	2024-11-06T01:00:00	2	Temperatura media	9.9
131330	7	Sololá	701	Sololá	2	El tablón	1	Enero	2023-01-16T00:00:00	2024-11-06T01:00:00	4	Temperatura máxima	10.4
131331	7	Sololá	701	Sololá	2	El tablón	1	Enero	2023-01-16T00:00:00	2024-11-06T01:00:00	3	Temperatura mínima	9.9
131332	7	Sololá	701	Sololá	2	El tablón	1	Enero	2023-01-16T00:00:00	2024-11-06T01:00:00	5	Humedad	89
131333	7	Sololá	701	Sololá	2	El tablón	1	Enero	2023-01-16T00:00:00	2024-11-06T01:00:00	6	Velocidad del viento	1.6
131334	7	Sololá	701	Sololá	2	El tablón	1	Enero	2023-01-16T00:00:00	2024-11-06T01:00:00	7	Dirección del viento	1.61
131335	7	Sololá	701	Sololá	2	El tablón	1	Enero	2023-01-16T00:00:00	2024-11-06T01:00:00	1	Precipitación	0
131336	7	Sololá	701	Sololá	2	El tablón	1	Enero	2023-01-16T00:00:00	2024-11-06T01:00:00	8	Radiación solar	0
131337	7	Sololá	701	Sololá	2	El tablón	1	Enero	2023-01-16T00:00:00	2024-11-06T02:00:00	2	Temperatura media	9.3
131338	7	Sololá	701	Sololá	2	El tablón	1	Enero	2023-01-16T00:00:00	2024-11-06T02:00:00	4	Temperatura máxima	9.9
131339	7	Sololá	701	Sololá	2	El tablón	1	Enero	2023-01-16T00:00:00	2024-11-06T02:00:00	3	Temperatura mínima	9.3
131340	7	Sololá	701	Sololá	2	El tablón	1	Enero	2023-01-16T00:00:00	2024-11-06T02:00:00	5	Humedad	90
131341	7	Sololá	701	Sololá	2	El tablón	1	Enero	2023-01-16T00:00:00	2024-11-06T02:00:00	6	Velocidad del viento	0
131342	7	Sololá	701	Sololá	2	El tablón	1	Enero	2023-01-16T00:00:00	2024-11-06T02:00:00	7	Dirección del viento	0
131343	7	Sololá	701	Sololá	2	El tablón	1	Enero	2023-01-16T00:00:00	2024-11-06T02:00:00	1	Precipitación	0
131344	7	Sololá	701	Sololá	2	El tablón	1	Enero	2023-01-16T00:00:00	2024-11-06T02:00:00	8	Radiación solar	0
131345	7	Sololá	701	Sololá	2	El tablón	1	Enero	2023-01-16T00:00:00	2024-11-06T03:00:00	2	Temperatura media	8.3
131346	7	Sololá	701	Sololá	2	El tablón	1	Enero	2023-01-16T00:00:00	2024-11-06T03:00:00	4	Temperatura máxima	9.3
131347	7	Sololá	701	Sololá	2	El tablón	1	Enero	2023-01-16T00:00:00	2024-11-06T03:00:00	3	Temperatura mínima	8.2
131348	7	Sololá	701	Sololá	2	El tablón	1	Enero	2023-01-16T00:00:00	2024-11-06T03:00:00	5	Humedad	90
131349	7	Sololá	701	Sololá	2	El tablón	1	Enero	2023-01-16T00:00:00	2024-11-06T03:00:00	6	Velocidad del viento	1.6
131350	7	Sololá	701	Sololá	2	El tablón	1	Enero	2023-01-16T00:00:00	2024-11-06T03:00:00	7	Dirección del viento	1.61
131351	7	Sololá	701	Sololá	2	El tablón	1	Enero	2023-01-16T00:00:00	2024-11-06T03:00:00	1	Precipitación	0
131352	7	Sololá	701	Sololá	2	El tablón	1	Enero	2023-01-16T00:00:00	2024-11-06T03:00:00	8	Radiación solar	0
131353	7	Sololá	701	Sololá	2	El tablón	1	Enero	2023-01-16T00:00:00	2024-11-06T04:00:00	2	Temperatura media	8.1
131354	7	Sololá	701	Sololá	2	El tablón	1	Enero	2023-01-16T00:00:00	2024-11-06T04:00:00	4	Temperatura máxima	8.6
131355	7	Sololá	701	Sololá	2	El tablón	1	Enero	2023-01-16T00:00:00	2024-11-06T04:00:00	3	Temperatura mínima	8
131356	7	Sololá	701	Sololá	2	El tablón	1	Enero	2023-01-16T00:00:00	2024-11-06T04:00:00	5	Humedad	90
131357	7	Sololá	701	Sololá	2	El tablón	1	Enero	2023-01-16T00:00:00	2024-11-06T04:00:00	6	Velocidad del viento	3.2
131358	7	Sololá	701	Sololá	2	El tablón	1	Enero	2023-01-16T00:00:00	2024-11-06T04:00:00	7	Dirección del viento	3.22
131359	7	Sololá	701	Sololá	2	El tablón	1	Enero	2023-01-16T00:00:00	2024-11-06T04:00:00	1	Precipitación	0
131360	7	Sololá	701	Sololá	2	El tablón	1	Enero	2023-01-16T00:00:00	2024-11-06T04:00:00	8	Radiación solar	0
131361	7	Sololá	701	Sololá	2	El tablón	1	Enero	2023-01-16T00:00:00	2024-11-06T05:00:00	2	Temperatura media	7.7
131362	7	Sololá	701	Sololá	2	El tablón	1	Enero	2023-01-16T00:00:00	2024-11-06T05:00:00	4	Temperatura máxima	8.2
131363	7	Sololá	701	Sololá	2	El tablón	1	Enero	2023-01-16T00:00:00	2024-11-06T05:00:00	3	Temperatura mínima	7.6
131364	7	Sololá	701	Sololá	2	El tablón	1	Enero	2023-01-16T00:00:00	2024-11-06T05:00:00	5	Humedad	90
131365	7	Sololá	701	Sololá	2	El tablón	1	Enero	2023-01-16T00:00:00	2024-11-06T05:00:00	6	Velocidad del viento	3.2
131366	7	Sololá	701	Sololá	2	El tablón	1	Enero	2023-01-16T00:00:00	2024-11-06T05:00:00	7	Dirección del viento	3.22
131367	7	Sololá	701	Sololá	2	El tablón	1	Enero	2023-01-16T00:00:00	2024-11-06T05:00:00	1	Precipitación	0
131368	7	Sololá	701	Sololá	2	El tablón	1	Enero	2023-01-16T00:00:00	2024-11-06T05:00:00	8	Radiación solar	0
131369	7	Sololá	701	Sololá	2	El tablón	1	Enero	2023-01-16T00:00:00	2024-11-06T06:00:00	2	Temperatura media	8.2
131370	7	Sololá	701	Sololá	2	El tablón	1	Enero	2023-01-16T00:00:00	2024-11-06T06:00:00	4	Temperatura máxima	8.4
131371	7	Sololá	701	Sololá	2	El tablón	1	Enero	2023-01-16T00:00:00	2024-11-06T06:00:00	3	Temperatura mínima	7.6
131372	7	Sololá	701	Sololá	2	El tablón	1	Enero	2023-01-16T00:00:00	2024-11-06T06:00:00	5	Humedad	88
131373	7	Sololá	701	Sololá	2	El tablón	1	Enero	2023-01-16T00:00:00	2024-11-06T06:00:00	6	Velocidad del viento	1.6
131374	7	Sololá	701	Sololá	2	El tablón	1	Enero	2023-01-16T00:00:00	2024-11-06T06:00:00	7	Dirección del viento	1.61
131375	7	Sololá	701	Sololá	2	El tablón	1	Enero	2023-01-16T00:00:00	2024-11-06T06:00:00	1	Precipitación	0
131376	7	Sololá	701	Sololá	2	El tablón	1	Enero	2023-01-16T00:00:00	2024-11-06T06:00:00	8	Radiación solar	0
131377	7	Sololá	701	Sololá	2	El tablón	1	Enero	2023-01-16T00:00:00	2024-11-06T07:00:00	2	Temperatura media	7.9
131378	7	Sololá	701	Sololá	2	El tablón	1	Enero	2023-01-16T00:00:00	2024-11-06T07:00:00	4	Temperatura máxima	8.2
131379	7	Sololá	701	Sololá	2	El tablón	1	Enero	2023-01-16T00:00:00	2024-11-06T07:00:00	3	Temperatura mínima	6.3
131380	7	Sololá	701	Sololá	2	El tablón	1	Enero	2023-01-16T00:00:00	2024-11-06T07:00:00	5	Humedad	89
131381	7	Sololá	701	Sololá	2	El tablón	1	Enero	2023-01-16T00:00:00	2024-11-06T07:00:00	6	Velocidad del viento	3.2
131382	7	Sololá	701	Sololá	2	El tablón	1	Enero	2023-01-16T00:00:00	2024-11-06T07:00:00	7	Dirección del viento	3.22
131383	7	Sololá	701	Sololá	2	El tablón	1	Enero	2023-01-16T00:00:00	2024-11-06T07:00:00	1	Precipitación	0
131384	7	Sololá	701	Sololá	2	El tablón	1	Enero	2023-01-16T00:00:00	2024-11-06T07:00:00	8	Radiación solar	7
131385	7	Sololá	701	Sololá	2	El tablón	1	Enero	2023-01-16T00:00:00	2024-11-06T08:00:00	2	Temperatura media	10.6
131386	7	Sololá	701	Sololá	2	El tablón	1	Enero	2023-01-16T00:00:00	2024-11-06T08:00:00	4	Temperatura máxima	10.6
131387	7	Sololá	701	Sololá	2	El tablón	1	Enero	2023-01-16T00:00:00	2024-11-06T08:00:00	3	Temperatura mínima	7.9
131388	7	Sololá	701	Sololá	2	El tablón	1	Enero	2023-01-16T00:00:00	2024-11-06T08:00:00	5	Humedad	81
131389	7	Sololá	701	Sololá	2	El tablón	1	Enero	2023-01-16T00:00:00	2024-11-06T08:00:00	6	Velocidad del viento	1.6
131390	7	Sololá	701	Sololá	2	El tablón	1	Enero	2023-01-16T00:00:00	2024-11-06T08:00:00	7	Dirección del viento	1.61
131391	7	Sololá	701	Sololá	2	El tablón	1	Enero	2023-01-16T00:00:00	2024-11-06T08:00:00	1	Precipitación	0
131392	7	Sololá	701	Sololá	2	El tablón	1	Enero	2023-01-16T00:00:00	2024-11-06T08:00:00	8	Radiación solar	123
131393	7	Sololá	701	Sololá	2	El tablón	1	Enero	2023-01-16T00:00:00	2024-11-06T09:00:00	2	Temperatura media	14.2
131394	7	Sololá	701	Sololá	2	El tablón	1	Enero	2023-01-16T00:00:00	2024-11-06T09:00:00	4	Temperatura máxima	14.2
131395	7	Sololá	701	Sololá	2	El tablón	1	Enero	2023-01-16T00:00:00	2024-11-06T09:00:00	3	Temperatura mínima	10.6
131396	7	Sololá	701	Sololá	2	El tablón	1	Enero	2023-01-16T00:00:00	2024-11-06T09:00:00	5	Humedad	70
131397	7	Sololá	701	Sololá	2	El tablón	1	Enero	2023-01-16T00:00:00	2024-11-06T09:00:00	6	Velocidad del viento	1.6
131398	7	Sololá	701	Sololá	2	El tablón	1	Enero	2023-01-16T00:00:00	2024-11-06T09:00:00	7	Dirección del viento	1.61
131399	7	Sololá	701	Sololá	2	El tablón	1	Enero	2023-01-16T00:00:00	2024-11-06T09:00:00	1	Precipitación	0
131400	7	Sololá	701	Sololá	2	El tablón	1	Enero	2023-01-16T00:00:00	2024-11-06T09:00:00	8	Radiación solar	337
131401	7	Sololá	701	Sololá	2	El tablón	1	Enero	2023-01-16T00:00:00	2024-11-06T10:00:00	2	Temperatura media	15.5
131402	7	Sololá	701	Sololá	2	El tablón	1	Enero	2023-01-16T00:00:00	2024-11-06T10:00:00	4	Temperatura máxima	15.8
131403	7	Sololá	701	Sololá	2	El tablón	1	Enero	2023-01-16T00:00:00	2024-11-06T10:00:00	3	Temperatura mínima	14.1
131404	7	Sololá	701	Sololá	2	El tablón	1	Enero	2023-01-16T00:00:00	2024-11-06T10:00:00	5	Humedad	70
131405	7	Sololá	701	Sololá	2	El tablón	1	Enero	2023-01-16T00:00:00	2024-11-06T10:00:00	6	Velocidad del viento	3.2
131406	7	Sololá	701	Sololá	2	El tablón	1	Enero	2023-01-16T00:00:00	2024-11-06T10:00:00	7	Dirección del viento	3.22
131407	7	Sololá	701	Sololá	2	El tablón	1	Enero	2023-01-16T00:00:00	2024-11-06T10:00:00	1	Precipitación	0
131408	7	Sololá	701	Sololá	2	El tablón	1	Enero	2023-01-16T00:00:00	2024-11-06T10:00:00	8	Radiación solar	528
131409	7	Sololá	701	Sololá	2	El tablón	1	Enero	2023-01-16T00:00:00	2024-11-06T11:00:00	2	Temperatura media	17.7
131410	7	Sololá	701	Sololá	2	El tablón	1	Enero	2023-01-16T00:00:00	2024-11-06T11:00:00	4	Temperatura máxima	17.7
131411	7	Sololá	701	Sololá	2	El tablón	1	Enero	2023-01-16T00:00:00	2024-11-06T11:00:00	3	Temperatura mínima	15.4
131412	7	Sololá	701	Sololá	2	El tablón	1	Enero	2023-01-16T00:00:00	2024-11-06T11:00:00	5	Humedad	64
131413	7	Sololá	701	Sololá	2	El tablón	1	Enero	2023-01-16T00:00:00	2024-11-06T11:00:00	6	Velocidad del viento	4.8
131414	7	Sololá	701	Sololá	2	El tablón	1	Enero	2023-01-16T00:00:00	2024-11-06T11:00:00	7	Dirección del viento	4.83
131415	7	Sololá	701	Sololá	2	El tablón	1	Enero	2023-01-16T00:00:00	2024-11-06T11:00:00	1	Precipitación	0
131416	7	Sololá	701	Sololá	2	El tablón	1	Enero	2023-01-16T00:00:00	2024-11-06T11:00:00	8	Radiación solar	669
131417	7	Sololá	701	Sololá	2	El tablón	1	Enero	2023-01-16T00:00:00	2024-11-06T12:00:00	2	Temperatura media	16.7
131418	7	Sololá	701	Sololá	2	El tablón	1	Enero	2023-01-16T00:00:00	2024-11-06T12:00:00	4	Temperatura máxima	17.7
131419	7	Sololá	701	Sololá	2	El tablón	1	Enero	2023-01-16T00:00:00	2024-11-06T12:00:00	3	Temperatura mínima	16.6
131420	7	Sololá	701	Sololá	2	El tablón	1	Enero	2023-01-16T00:00:00	2024-11-06T12:00:00	5	Humedad	64
131421	7	Sololá	701	Sololá	2	El tablón	1	Enero	2023-01-16T00:00:00	2024-11-06T12:00:00	6	Velocidad del viento	9.7
131422	7	Sololá	701	Sololá	2	El tablón	1	Enero	2023-01-16T00:00:00	2024-11-06T12:00:00	7	Dirección del viento	9.66
131423	7	Sololá	701	Sololá	2	El tablón	1	Enero	2023-01-16T00:00:00	2024-11-06T12:00:00	1	Precipitación	0
131424	7	Sololá	701	Sololá	2	El tablón	1	Enero	2023-01-16T00:00:00	2024-11-06T12:00:00	8	Radiación solar	658
131425	7	Sololá	701	Sololá	2	El tablón	1	Enero	2023-01-16T00:00:00	2024-11-06T13:00:00	2	Temperatura media	16.7
131426	7	Sololá	701	Sololá	2	El tablón	1	Enero	2023-01-16T00:00:00	2024-11-06T13:00:00	4	Temperatura máxima	17.1
131427	7	Sololá	701	Sololá	2	El tablón	1	Enero	2023-01-16T00:00:00	2024-11-06T13:00:00	3	Temperatura mínima	16.7
131428	7	Sololá	701	Sololá	2	El tablón	1	Enero	2023-01-16T00:00:00	2024-11-06T13:00:00	5	Humedad	68
131429	7	Sololá	701	Sololá	2	El tablón	1	Enero	2023-01-16T00:00:00	2024-11-06T13:00:00	6	Velocidad del viento	9.7
131430	7	Sololá	701	Sololá	2	El tablón	1	Enero	2023-01-16T00:00:00	2024-11-06T13:00:00	7	Dirección del viento	9.66
131431	7	Sololá	701	Sololá	2	El tablón	1	Enero	2023-01-16T00:00:00	2024-11-06T13:00:00	1	Precipitación	0
131432	7	Sololá	701	Sololá	2	El tablón	1	Enero	2023-01-16T00:00:00	2024-11-06T13:00:00	8	Radiación solar	755
131433	7	Sololá	701	Sololá	2	El tablón	1	Enero	2023-01-16T00:00:00	2024-11-06T14:00:00	2	Temperatura media	16.4
131434	7	Sololá	701	Sololá	2	El tablón	1	Enero	2023-01-16T00:00:00	2024-11-06T14:00:00	4	Temperatura máxima	16.9
131435	7	Sololá	701	Sololá	2	El tablón	1	Enero	2023-01-16T00:00:00	2024-11-06T14:00:00	3	Temperatura mínima	16.4
131436	7	Sololá	701	Sololá	2	El tablón	1	Enero	2023-01-16T00:00:00	2024-11-06T14:00:00	5	Humedad	78
131437	7	Sololá	701	Sololá	2	El tablón	1	Enero	2023-01-16T00:00:00	2024-11-06T14:00:00	6	Velocidad del viento	8
131438	7	Sololá	701	Sololá	2	El tablón	1	Enero	2023-01-16T00:00:00	2024-11-06T14:00:00	7	Dirección del viento	8.05
131439	7	Sololá	701	Sololá	2	El tablón	1	Enero	2023-01-16T00:00:00	2024-11-06T14:00:00	1	Precipitación	0
131440	7	Sololá	701	Sololá	2	El tablón	1	Enero	2023-01-16T00:00:00	2024-11-06T14:00:00	8	Radiación solar	746
131441	7	Sololá	701	Sololá	2	El tablón	1	Enero	2023-01-16T00:00:00	2024-11-06T15:00:00	2	Temperatura media	14.9
131442	7	Sololá	701	Sololá	2	El tablón	1	Enero	2023-01-16T00:00:00	2024-11-06T15:00:00	4	Temperatura máxima	16.4
131443	7	Sololá	701	Sololá	2	El tablón	1	Enero	2023-01-16T00:00:00	2024-11-06T15:00:00	3	Temperatura mínima	14.9
131444	7	Sololá	701	Sololá	2	El tablón	1	Enero	2023-01-16T00:00:00	2024-11-06T15:00:00	5	Humedad	86
131445	7	Sololá	701	Sololá	2	El tablón	1	Enero	2023-01-16T00:00:00	2024-11-06T15:00:00	6	Velocidad del viento	6.4
131446	7	Sololá	701	Sololá	2	El tablón	1	Enero	2023-01-16T00:00:00	2024-11-06T15:00:00	7	Dirección del viento	6.44
131447	7	Sololá	701	Sololá	2	El tablón	1	Enero	2023-01-16T00:00:00	2024-11-06T15:00:00	1	Precipitación	0
131448	7	Sololá	701	Sololá	2	El tablón	1	Enero	2023-01-16T00:00:00	2024-11-06T15:00:00	8	Radiación solar	224
131449	7	Sololá	701	Sololá	2	El tablón	1	Enero	2023-01-16T00:00:00	2024-11-06T16:00:00	2	Temperatura media	14.4
131450	7	Sololá	701	Sololá	2	El tablón	1	Enero	2023-01-16T00:00:00	2024-11-06T16:00:00	4	Temperatura máxima	15.4
131451	7	Sololá	701	Sololá	2	El tablón	1	Enero	2023-01-16T00:00:00	2024-11-06T16:00:00	3	Temperatura mínima	14.4
131452	7	Sololá	701	Sololá	2	El tablón	1	Enero	2023-01-16T00:00:00	2024-11-06T16:00:00	5	Humedad	87
131453	7	Sololá	701	Sololá	2	El tablón	1	Enero	2023-01-16T00:00:00	2024-11-06T16:00:00	6	Velocidad del viento	6.4
131454	7	Sololá	701	Sololá	2	El tablón	1	Enero	2023-01-16T00:00:00	2024-11-06T16:00:00	7	Dirección del viento	6.44
131455	7	Sololá	701	Sololá	2	El tablón	1	Enero	2023-01-16T00:00:00	2024-11-06T16:00:00	1	Precipitación	0
131456	7	Sololá	701	Sololá	2	El tablón	1	Enero	2023-01-16T00:00:00	2024-11-06T16:00:00	8	Radiación solar	249
131457	7	Sololá	701	Sololá	2	El tablón	1	Enero	2023-01-16T00:00:00	2024-11-06T17:00:00	2	Temperatura media	13.5
131458	7	Sololá	701	Sololá	2	El tablón	1	Enero	2023-01-16T00:00:00	2024-11-06T17:00:00	4	Temperatura máxima	14.4
131459	7	Sololá	701	Sololá	2	El tablón	1	Enero	2023-01-16T00:00:00	2024-11-06T17:00:00	3	Temperatura mínima	13.5
131460	7	Sololá	701	Sololá	2	El tablón	1	Enero	2023-01-16T00:00:00	2024-11-06T17:00:00	5	Humedad	90
131461	7	Sololá	701	Sololá	2	El tablón	1	Enero	2023-01-16T00:00:00	2024-11-06T17:00:00	6	Velocidad del viento	3.2
131462	7	Sololá	701	Sololá	2	El tablón	1	Enero	2023-01-16T00:00:00	2024-11-06T17:00:00	7	Dirección del viento	3.22
131463	7	Sololá	701	Sololá	2	El tablón	1	Enero	2023-01-16T00:00:00	2024-11-06T17:00:00	1	Precipitación	0
131464	7	Sololá	701	Sololá	2	El tablón	1	Enero	2023-01-16T00:00:00	2024-11-06T17:00:00	8	Radiación solar	49
131465	7	Sololá	701	Sololá	2	El tablón	1	Enero	2023-01-16T00:00:00	2024-11-06T18:00:00	2	Temperatura media	12.9
131466	7	Sololá	701	Sololá	2	El tablón	1	Enero	2023-01-16T00:00:00	2024-11-06T18:00:00	4	Temperatura máxima	13.5
131467	7	Sololá	701	Sololá	2	El tablón	1	Enero	2023-01-16T00:00:00	2024-11-06T18:00:00	3	Temperatura mínima	12.9
131468	7	Sololá	701	Sololá	2	El tablón	1	Enero	2023-01-16T00:00:00	2024-11-06T18:00:00	5	Humedad	90
131469	7	Sololá	701	Sololá	2	El tablón	1	Enero	2023-01-16T00:00:00	2024-11-06T18:00:00	6	Velocidad del viento	3.2
131470	7	Sololá	701	Sololá	2	El tablón	1	Enero	2023-01-16T00:00:00	2024-11-06T18:00:00	7	Dirección del viento	3.22
131471	7	Sololá	701	Sololá	2	El tablón	1	Enero	2023-01-16T00:00:00	2024-11-06T18:00:00	1	Precipitación	0
131472	7	Sololá	701	Sololá	2	El tablón	1	Enero	2023-01-16T00:00:00	2024-11-06T18:00:00	8	Radiación solar	13
131473	7	Sololá	701	Sololá	2	El tablón	1	Enero	2023-01-16T00:00:00	2024-11-06T19:00:00	2	Temperatura media	12.7
131474	7	Sololá	701	Sololá	2	El tablón	1	Enero	2023-01-16T00:00:00	2024-11-06T19:00:00	4	Temperatura máxima	12.9
131475	7	Sololá	701	Sololá	2	El tablón	1	Enero	2023-01-16T00:00:00	2024-11-06T19:00:00	3	Temperatura mínima	12.6
131476	7	Sololá	701	Sololá	2	El tablón	1	Enero	2023-01-16T00:00:00	2024-11-06T19:00:00	5	Humedad	90
131477	7	Sololá	701	Sololá	2	El tablón	1	Enero	2023-01-16T00:00:00	2024-11-06T19:00:00	6	Velocidad del viento	1.6
131478	7	Sololá	701	Sololá	2	El tablón	1	Enero	2023-01-16T00:00:00	2024-11-06T19:00:00	7	Dirección del viento	1.61
131479	7	Sololá	701	Sololá	2	El tablón	1	Enero	2023-01-16T00:00:00	2024-11-06T19:00:00	1	Precipitación	0
131480	7	Sololá	701	Sololá	2	El tablón	1	Enero	2023-01-16T00:00:00	2024-11-06T19:00:00	8	Radiación solar	0
131481	7	Sololá	701	Sololá	2	El tablón	1	Enero	2023-01-16T00:00:00	2024-11-06T20:00:00	2	Temperatura media	12.5
131482	7	Sololá	701	Sololá	2	El tablón	1	Enero	2023-01-16T00:00:00	2024-11-06T20:00:00	4	Temperatura máxima	12.7
131483	7	Sololá	701	Sololá	2	El tablón	1	Enero	2023-01-16T00:00:00	2024-11-06T20:00:00	3	Temperatura mínima	12.4
131484	7	Sololá	701	Sololá	2	El tablón	1	Enero	2023-01-16T00:00:00	2024-11-06T20:00:00	5	Humedad	90
131485	7	Sololá	701	Sololá	2	El tablón	1	Enero	2023-01-16T00:00:00	2024-11-06T20:00:00	6	Velocidad del viento	1.6
131486	7	Sololá	701	Sololá	2	El tablón	1	Enero	2023-01-16T00:00:00	2024-11-06T20:00:00	7	Dirección del viento	1.61
131487	7	Sololá	701	Sololá	2	El tablón	1	Enero	2023-01-16T00:00:00	2024-11-06T20:00:00	1	Precipitación	0
131488	7	Sololá	701	Sololá	2	El tablón	1	Enero	2023-01-16T00:00:00	2024-11-06T20:00:00	8	Radiación solar	0
131489	7	Sololá	701	Sololá	2	El tablón	1	Enero	2023-01-16T00:00:00	2024-11-06T21:00:00	2	Temperatura media	11.9
131490	7	Sololá	701	Sololá	2	El tablón	1	Enero	2023-01-16T00:00:00	2024-11-06T21:00:00	4	Temperatura máxima	12.5
131491	7	Sololá	701	Sololá	2	El tablón	1	Enero	2023-01-16T00:00:00	2024-11-06T21:00:00	3	Temperatura mínima	11.9
131492	7	Sololá	701	Sololá	2	El tablón	1	Enero	2023-01-16T00:00:00	2024-11-06T21:00:00	5	Humedad	90
131493	7	Sololá	701	Sololá	2	El tablón	1	Enero	2023-01-16T00:00:00	2024-11-06T21:00:00	6	Velocidad del viento	0
131494	7	Sololá	701	Sololá	2	El tablón	1	Enero	2023-01-16T00:00:00	2024-11-06T21:00:00	7	Dirección del viento	0
131495	7	Sololá	701	Sololá	2	El tablón	1	Enero	2023-01-16T00:00:00	2024-11-06T21:00:00	1	Precipitación	0
131496	7	Sololá	701	Sololá	2	El tablón	1	Enero	2023-01-16T00:00:00	2024-11-06T21:00:00	8	Radiación solar	0
131497	7	Sololá	701	Sololá	2	El tablón	1	Enero	2023-01-16T00:00:00	2024-11-06T22:00:00	2	Temperatura media	10.8
131498	7	Sololá	701	Sololá	2	El tablón	1	Enero	2023-01-16T00:00:00	2024-11-06T22:00:00	4	Temperatura máxima	12
131499	7	Sololá	701	Sololá	2	El tablón	1	Enero	2023-01-16T00:00:00	2024-11-06T22:00:00	3	Temperatura mínima	10.8
131500	7	Sololá	701	Sololá	2	El tablón	1	Enero	2023-01-16T00:00:00	2024-11-06T22:00:00	5	Humedad	90
131501	7	Sololá	701	Sololá	2	El tablón	1	Enero	2023-01-16T00:00:00	2024-11-06T22:00:00	6	Velocidad del viento	1.6
131502	7	Sololá	701	Sololá	2	El tablón	1	Enero	2023-01-16T00:00:00	2024-11-06T22:00:00	7	Dirección del viento	1.61
131503	7	Sololá	701	Sololá	2	El tablón	1	Enero	2023-01-16T00:00:00	2024-11-06T22:00:00	1	Precipitación	0
131504	7	Sololá	701	Sololá	2	El tablón	1	Enero	2023-01-16T00:00:00	2024-11-06T22:00:00	8	Radiación solar	0
131505	7	Sololá	701	Sololá	2	El tablón	1	Enero	2023-01-16T00:00:00	2024-11-06T23:00:00	2	Temperatura media	9.9
131506	7	Sololá	701	Sololá	2	El tablón	1	Enero	2023-01-16T00:00:00	2024-11-06T23:00:00	4	Temperatura máxima	10.8
131507	7	Sololá	701	Sololá	2	El tablón	1	Enero	2023-01-16T00:00:00	2024-11-06T23:00:00	3	Temperatura mínima	9.9
131508	7	Sololá	701	Sololá	2	El tablón	1	Enero	2023-01-16T00:00:00	2024-11-06T23:00:00	5	Humedad	90
131509	7	Sololá	701	Sololá	2	El tablón	1	Enero	2023-01-16T00:00:00	2024-11-06T23:00:00	6	Velocidad del viento	1.6
131510	7	Sololá	701	Sololá	2	El tablón	1	Enero	2023-01-16T00:00:00	2024-11-06T23:00:00	7	Dirección del viento	1.61
131511	7	Sololá	701	Sololá	2	El tablón	1	Enero	2023-01-16T00:00:00	2024-11-06T23:00:00	1	Precipitación	0
131512	7	Sololá	701	Sololá	2	El tablón	1	Enero	2023-01-16T00:00:00	2024-11-06T23:00:00	8	Radiación solar	0
131513	7	Sololá	701	Sololá	2	El tablón	1	Enero	2023-01-17T00:00:00	2024-11-06T00:00:00	2	Temperatura media	9.8
131514	7	Sololá	701	Sololá	2	El tablón	1	Enero	2023-01-17T00:00:00	2024-11-06T00:00:00	4	Temperatura máxima	9.9
131515	7	Sololá	701	Sololá	2	El tablón	1	Enero	2023-01-17T00:00:00	2024-11-06T00:00:00	3	Temperatura mínima	9.7
131516	7	Sololá	701	Sololá	2	El tablón	1	Enero	2023-01-17T00:00:00	2024-11-06T00:00:00	5	Humedad	89
131517	7	Sololá	701	Sololá	2	El tablón	1	Enero	2023-01-17T00:00:00	2024-11-06T00:00:00	6	Velocidad del viento	1.6
131518	7	Sololá	701	Sololá	2	El tablón	1	Enero	2023-01-17T00:00:00	2024-11-06T00:00:00	7	Dirección del viento	1.61
131519	7	Sololá	701	Sololá	2	El tablón	1	Enero	2023-01-17T00:00:00	2024-11-06T00:00:00	1	Precipitación	0
131520	7	Sololá	701	Sololá	2	El tablón	1	Enero	2023-01-17T00:00:00	2024-11-06T00:00:00	8	Radiación solar	0
131521	7	Sololá	701	Sololá	2	El tablón	1	Enero	2023-01-17T00:00:00	2024-11-06T01:00:00	2	Temperatura media	10.1
131522	7	Sololá	701	Sololá	2	El tablón	1	Enero	2023-01-17T00:00:00	2024-11-06T01:00:00	4	Temperatura máxima	10.2
131523	7	Sololá	701	Sololá	2	El tablón	1	Enero	2023-01-17T00:00:00	2024-11-06T01:00:00	3	Temperatura mínima	9.8
131524	7	Sololá	701	Sololá	2	El tablón	1	Enero	2023-01-17T00:00:00	2024-11-06T01:00:00	5	Humedad	91
131525	7	Sololá	701	Sololá	2	El tablón	1	Enero	2023-01-17T00:00:00	2024-11-06T01:00:00	6	Velocidad del viento	3.2
131526	7	Sololá	701	Sololá	2	El tablón	1	Enero	2023-01-17T00:00:00	2024-11-06T01:00:00	7	Dirección del viento	3.22
131527	7	Sololá	701	Sololá	2	El tablón	1	Enero	2023-01-17T00:00:00	2024-11-06T01:00:00	1	Precipitación	0
131528	7	Sololá	701	Sololá	2	El tablón	1	Enero	2023-01-17T00:00:00	2024-11-06T01:00:00	8	Radiación solar	0
131529	7	Sololá	701	Sololá	2	El tablón	1	Enero	2023-01-17T00:00:00	2024-11-06T02:00:00	2	Temperatura media	10.3
131530	7	Sololá	701	Sololá	2	El tablón	1	Enero	2023-01-17T00:00:00	2024-11-06T02:00:00	4	Temperatura máxima	10.6
131531	7	Sololá	701	Sololá	2	El tablón	1	Enero	2023-01-17T00:00:00	2024-11-06T02:00:00	3	Temperatura mínima	10.1
131532	7	Sololá	701	Sololá	2	El tablón	1	Enero	2023-01-17T00:00:00	2024-11-06T02:00:00	5	Humedad	91
131533	7	Sololá	701	Sololá	2	El tablón	1	Enero	2023-01-17T00:00:00	2024-11-06T02:00:00	6	Velocidad del viento	1.6
131534	7	Sololá	701	Sololá	2	El tablón	1	Enero	2023-01-17T00:00:00	2024-11-06T02:00:00	7	Dirección del viento	1.61
131535	7	Sololá	701	Sololá	2	El tablón	1	Enero	2023-01-17T00:00:00	2024-11-06T02:00:00	1	Precipitación	0
131536	7	Sololá	701	Sololá	2	El tablón	1	Enero	2023-01-17T00:00:00	2024-11-06T02:00:00	8	Radiación solar	0
131537	7	Sololá	701	Sololá	2	El tablón	1	Enero	2023-01-17T00:00:00	2024-11-06T03:00:00	2	Temperatura media	10.1
131538	7	Sololá	701	Sololá	2	El tablón	1	Enero	2023-01-17T00:00:00	2024-11-06T03:00:00	4	Temperatura máxima	10.3
131539	7	Sololá	701	Sololá	2	El tablón	1	Enero	2023-01-17T00:00:00	2024-11-06T03:00:00	3	Temperatura mínima	10.1
131540	7	Sololá	701	Sololá	2	El tablón	1	Enero	2023-01-17T00:00:00	2024-11-06T03:00:00	5	Humedad	90
131541	7	Sololá	701	Sololá	2	El tablón	1	Enero	2023-01-17T00:00:00	2024-11-06T03:00:00	6	Velocidad del viento	1.6
131542	7	Sololá	701	Sololá	2	El tablón	1	Enero	2023-01-17T00:00:00	2024-11-06T03:00:00	7	Dirección del viento	1.61
131543	7	Sololá	701	Sololá	2	El tablón	1	Enero	2023-01-17T00:00:00	2024-11-06T03:00:00	1	Precipitación	0
131544	7	Sololá	701	Sololá	2	El tablón	1	Enero	2023-01-17T00:00:00	2024-11-06T03:00:00	8	Radiación solar	0
131545	7	Sololá	701	Sololá	2	El tablón	1	Enero	2023-01-17T00:00:00	2024-11-06T04:00:00	2	Temperatura media	8.8
131546	7	Sololá	701	Sololá	2	El tablón	1	Enero	2023-01-17T00:00:00	2024-11-06T04:00:00	4	Temperatura máxima	10.1
131547	7	Sololá	701	Sololá	2	El tablón	1	Enero	2023-01-17T00:00:00	2024-11-06T04:00:00	3	Temperatura mínima	8.8
131548	7	Sololá	701	Sololá	2	El tablón	1	Enero	2023-01-17T00:00:00	2024-11-06T04:00:00	5	Humedad	91
131549	7	Sololá	701	Sololá	2	El tablón	1	Enero	2023-01-17T00:00:00	2024-11-06T04:00:00	6	Velocidad del viento	3.2
131550	7	Sololá	701	Sololá	2	El tablón	1	Enero	2023-01-17T00:00:00	2024-11-06T04:00:00	7	Dirección del viento	3.22
131551	7	Sololá	701	Sololá	2	El tablón	1	Enero	2023-01-17T00:00:00	2024-11-06T04:00:00	1	Precipitación	0
131552	7	Sololá	701	Sololá	2	El tablón	1	Enero	2023-01-17T00:00:00	2024-11-06T04:00:00	8	Radiación solar	0
131553	7	Sololá	701	Sololá	2	El tablón	1	Enero	2023-01-17T00:00:00	2024-11-06T05:00:00	2	Temperatura media	9.5
131554	7	Sololá	701	Sololá	2	El tablón	1	Enero	2023-01-17T00:00:00	2024-11-06T05:00:00	4	Temperatura máxima	9.5
131555	7	Sololá	701	Sololá	2	El tablón	1	Enero	2023-01-17T00:00:00	2024-11-06T05:00:00	3	Temperatura mínima	8.3
131556	7	Sololá	701	Sololá	2	El tablón	1	Enero	2023-01-17T00:00:00	2024-11-06T05:00:00	5	Humedad	89
131557	7	Sololá	701	Sololá	2	El tablón	1	Enero	2023-01-17T00:00:00	2024-11-06T05:00:00	6	Velocidad del viento	4.8
131558	7	Sololá	701	Sololá	2	El tablón	1	Enero	2023-01-17T00:00:00	2024-11-06T05:00:00	7	Dirección del viento	4.83
131559	7	Sololá	701	Sololá	2	El tablón	1	Enero	2023-01-17T00:00:00	2024-11-06T05:00:00	1	Precipitación	0
131560	7	Sololá	701	Sololá	2	El tablón	1	Enero	2023-01-17T00:00:00	2024-11-06T05:00:00	8	Radiación solar	0
131561	7	Sololá	701	Sololá	2	El tablón	1	Enero	2023-01-17T00:00:00	2024-11-06T06:00:00	2	Temperatura media	9.2
131562	7	Sololá	701	Sololá	2	El tablón	1	Enero	2023-01-17T00:00:00	2024-11-06T06:00:00	4	Temperatura máxima	10.6
131563	7	Sololá	701	Sololá	2	El tablón	1	Enero	2023-01-17T00:00:00	2024-11-06T06:00:00	3	Temperatura mínima	9.2
131564	7	Sololá	701	Sololá	2	El tablón	1	Enero	2023-01-17T00:00:00	2024-11-06T06:00:00	5	Humedad	86
131565	7	Sololá	701	Sololá	2	El tablón	1	Enero	2023-01-17T00:00:00	2024-11-06T06:00:00	6	Velocidad del viento	4.8
131566	7	Sololá	701	Sololá	2	El tablón	1	Enero	2023-01-17T00:00:00	2024-11-06T06:00:00	7	Dirección del viento	4.83
131567	7	Sololá	701	Sololá	2	El tablón	1	Enero	2023-01-17T00:00:00	2024-11-06T06:00:00	1	Precipitación	0
131568	7	Sololá	701	Sololá	2	El tablón	1	Enero	2023-01-17T00:00:00	2024-11-06T06:00:00	8	Radiación solar	0
131569	7	Sololá	701	Sololá	2	El tablón	1	Enero	2023-01-17T00:00:00	2024-11-06T07:00:00	2	Temperatura media	8.7
131570	7	Sololá	701	Sololá	2	El tablón	1	Enero	2023-01-17T00:00:00	2024-11-06T07:00:00	4	Temperatura máxima	9.2
131571	7	Sololá	701	Sololá	2	El tablón	1	Enero	2023-01-17T00:00:00	2024-11-06T07:00:00	3	Temperatura mínima	8.1
131572	7	Sololá	701	Sololá	2	El tablón	1	Enero	2023-01-17T00:00:00	2024-11-06T07:00:00	5	Humedad	86
131573	7	Sololá	701	Sololá	2	El tablón	1	Enero	2023-01-17T00:00:00	2024-11-06T07:00:00	6	Velocidad del viento	4.8
131574	7	Sololá	701	Sololá	2	El tablón	1	Enero	2023-01-17T00:00:00	2024-11-06T07:00:00	7	Dirección del viento	4.83
131575	7	Sololá	701	Sololá	2	El tablón	1	Enero	2023-01-17T00:00:00	2024-11-06T07:00:00	1	Precipitación	0
131576	7	Sololá	701	Sololá	2	El tablón	1	Enero	2023-01-17T00:00:00	2024-11-06T07:00:00	8	Radiación solar	6
131577	7	Sololá	701	Sololá	2	El tablón	1	Enero	2023-01-17T00:00:00	2024-11-06T08:00:00	2	Temperatura media	12.1
131578	7	Sololá	701	Sololá	2	El tablón	1	Enero	2023-01-17T00:00:00	2024-11-06T08:00:00	4	Temperatura máxima	12.1
131579	7	Sololá	701	Sololá	2	El tablón	1	Enero	2023-01-17T00:00:00	2024-11-06T08:00:00	3	Temperatura mínima	8.7
131580	7	Sololá	701	Sololá	2	El tablón	1	Enero	2023-01-17T00:00:00	2024-11-06T08:00:00	5	Humedad	79
131581	7	Sololá	701	Sololá	2	El tablón	1	Enero	2023-01-17T00:00:00	2024-11-06T08:00:00	6	Velocidad del viento	3.2
131582	7	Sololá	701	Sololá	2	El tablón	1	Enero	2023-01-17T00:00:00	2024-11-06T08:00:00	7	Dirección del viento	3.22
131583	7	Sololá	701	Sololá	2	El tablón	1	Enero	2023-01-17T00:00:00	2024-11-06T08:00:00	1	Precipitación	0
131584	7	Sololá	701	Sololá	2	El tablón	1	Enero	2023-01-17T00:00:00	2024-11-06T08:00:00	8	Radiación solar	114
131585	7	Sololá	701	Sololá	2	El tablón	1	Enero	2023-01-17T00:00:00	2024-11-06T09:00:00	2	Temperatura media	16.2
131586	7	Sololá	701	Sololá	2	El tablón	1	Enero	2023-01-17T00:00:00	2024-11-06T09:00:00	4	Temperatura máxima	16.2
131587	7	Sololá	701	Sololá	2	El tablón	1	Enero	2023-01-17T00:00:00	2024-11-06T09:00:00	3	Temperatura mínima	12.1
131588	7	Sololá	701	Sololá	2	El tablón	1	Enero	2023-01-17T00:00:00	2024-11-06T09:00:00	5	Humedad	68
131589	7	Sololá	701	Sololá	2	El tablón	1	Enero	2023-01-17T00:00:00	2024-11-06T09:00:00	6	Velocidad del viento	1.6
131590	7	Sololá	701	Sololá	2	El tablón	1	Enero	2023-01-17T00:00:00	2024-11-06T09:00:00	7	Dirección del viento	1.61
131591	7	Sololá	701	Sololá	2	El tablón	1	Enero	2023-01-17T00:00:00	2024-11-06T09:00:00	1	Precipitación	0
131592	7	Sololá	701	Sololá	2	El tablón	1	Enero	2023-01-17T00:00:00	2024-11-06T09:00:00	8	Radiación solar	321
131593	7	Sololá	701	Sololá	2	El tablón	1	Enero	2023-01-17T00:00:00	2024-11-06T10:00:00	2	Temperatura media	16.7
131594	7	Sololá	701	Sololá	2	El tablón	1	Enero	2023-01-17T00:00:00	2024-11-06T10:00:00	4	Temperatura máxima	16.8
131595	7	Sololá	701	Sololá	2	El tablón	1	Enero	2023-01-17T00:00:00	2024-11-06T10:00:00	3	Temperatura mínima	16.2
131596	7	Sololá	701	Sololá	2	El tablón	1	Enero	2023-01-17T00:00:00	2024-11-06T10:00:00	5	Humedad	68
131597	7	Sololá	701	Sololá	2	El tablón	1	Enero	2023-01-17T00:00:00	2024-11-06T10:00:00	6	Velocidad del viento	4.8
131598	7	Sololá	701	Sololá	2	El tablón	1	Enero	2023-01-17T00:00:00	2024-11-06T10:00:00	7	Dirección del viento	4.83
131599	7	Sololá	701	Sololá	2	El tablón	1	Enero	2023-01-17T00:00:00	2024-11-06T10:00:00	1	Precipitación	0
131600	7	Sololá	701	Sololá	2	El tablón	1	Enero	2023-01-17T00:00:00	2024-11-06T10:00:00	8	Radiación solar	510
131601	7	Sololá	701	Sololá	2	El tablón	1	Enero	2023-01-17T00:00:00	2024-11-06T11:00:00	2	Temperatura media	17.1
131602	7	Sololá	701	Sololá	2	El tablón	1	Enero	2023-01-17T00:00:00	2024-11-06T11:00:00	4	Temperatura máxima	17.1
131603	7	Sololá	701	Sololá	2	El tablón	1	Enero	2023-01-17T00:00:00	2024-11-06T11:00:00	3	Temperatura mínima	16.4
131604	7	Sololá	701	Sololá	2	El tablón	1	Enero	2023-01-17T00:00:00	2024-11-06T11:00:00	5	Humedad	67
131605	7	Sololá	701	Sololá	2	El tablón	1	Enero	2023-01-17T00:00:00	2024-11-06T11:00:00	6	Velocidad del viento	6.4
131606	7	Sololá	701	Sololá	2	El tablón	1	Enero	2023-01-17T00:00:00	2024-11-06T11:00:00	7	Dirección del viento	6.44
131607	7	Sololá	701	Sololá	2	El tablón	1	Enero	2023-01-17T00:00:00	2024-11-06T11:00:00	1	Precipitación	0
131608	7	Sololá	701	Sololá	2	El tablón	1	Enero	2023-01-17T00:00:00	2024-11-06T11:00:00	8	Radiación solar	654
131609	7	Sololá	701	Sololá	2	El tablón	1	Enero	2023-01-17T00:00:00	2024-11-06T12:00:00	2	Temperatura media	16.5
131610	7	Sololá	701	Sololá	2	El tablón	1	Enero	2023-01-17T00:00:00	2024-11-06T12:00:00	4	Temperatura máxima	17.3
131611	7	Sololá	701	Sololá	2	El tablón	1	Enero	2023-01-17T00:00:00	2024-11-06T12:00:00	3	Temperatura mínima	16.5
131612	7	Sololá	701	Sololá	2	El tablón	1	Enero	2023-01-17T00:00:00	2024-11-06T12:00:00	5	Humedad	68
131613	7	Sololá	701	Sololá	2	El tablón	1	Enero	2023-01-17T00:00:00	2024-11-06T12:00:00	6	Velocidad del viento	8
131614	7	Sololá	701	Sololá	2	El tablón	1	Enero	2023-01-17T00:00:00	2024-11-06T12:00:00	7	Dirección del viento	8.05
131615	7	Sololá	701	Sololá	2	El tablón	1	Enero	2023-01-17T00:00:00	2024-11-06T12:00:00	1	Precipitación	0
131616	7	Sololá	701	Sololá	2	El tablón	1	Enero	2023-01-17T00:00:00	2024-11-06T12:00:00	8	Radiación solar	654
131617	7	Sololá	701	Sololá	2	El tablón	1	Enero	2023-01-17T00:00:00	2024-11-06T13:00:00	2	Temperatura media	16.6
131618	7	Sololá	701	Sololá	2	El tablón	1	Enero	2023-01-17T00:00:00	2024-11-06T13:00:00	4	Temperatura máxima	16.8
131619	7	Sololá	701	Sololá	2	El tablón	1	Enero	2023-01-17T00:00:00	2024-11-06T13:00:00	3	Temperatura mínima	16.1
131620	7	Sololá	701	Sololá	2	El tablón	1	Enero	2023-01-17T00:00:00	2024-11-06T13:00:00	5	Humedad	78
131621	7	Sololá	701	Sololá	2	El tablón	1	Enero	2023-01-17T00:00:00	2024-11-06T13:00:00	6	Velocidad del viento	8
131622	7	Sololá	701	Sololá	2	El tablón	1	Enero	2023-01-17T00:00:00	2024-11-06T13:00:00	7	Dirección del viento	8.05
131623	7	Sololá	701	Sololá	2	El tablón	1	Enero	2023-01-17T00:00:00	2024-11-06T13:00:00	1	Precipitación	0
131624	7	Sololá	701	Sololá	2	El tablón	1	Enero	2023-01-17T00:00:00	2024-11-06T13:00:00	8	Radiación solar	751
131625	7	Sololá	701	Sololá	2	El tablón	1	Enero	2023-01-17T00:00:00	2024-11-06T14:00:00	2	Temperatura media	14.7
131626	7	Sololá	701	Sololá	2	El tablón	1	Enero	2023-01-17T00:00:00	2024-11-06T14:00:00	4	Temperatura máxima	16.6
131627	7	Sololá	701	Sololá	2	El tablón	1	Enero	2023-01-17T00:00:00	2024-11-06T14:00:00	3	Temperatura mínima	14.7
131628	7	Sololá	701	Sololá	2	El tablón	1	Enero	2023-01-17T00:00:00	2024-11-06T14:00:00	5	Humedad	84
131629	7	Sololá	701	Sololá	2	El tablón	1	Enero	2023-01-17T00:00:00	2024-11-06T14:00:00	6	Velocidad del viento	6.4
131630	7	Sololá	701	Sololá	2	El tablón	1	Enero	2023-01-17T00:00:00	2024-11-06T14:00:00	7	Dirección del viento	6.44
131631	7	Sololá	701	Sololá	2	El tablón	1	Enero	2023-01-17T00:00:00	2024-11-06T14:00:00	1	Precipitación	0
131632	7	Sololá	701	Sololá	2	El tablón	1	Enero	2023-01-17T00:00:00	2024-11-06T14:00:00	8	Radiación solar	323
131633	7	Sololá	701	Sololá	2	El tablón	1	Enero	2023-01-17T00:00:00	2024-11-06T15:00:00	2	Temperatura media	13.4
131634	7	Sololá	701	Sololá	2	El tablón	1	Enero	2023-01-17T00:00:00	2024-11-06T15:00:00	4	Temperatura máxima	14.7
131635	7	Sololá	701	Sololá	2	El tablón	1	Enero	2023-01-17T00:00:00	2024-11-06T15:00:00	3	Temperatura mínima	13.4
131636	7	Sololá	701	Sololá	2	El tablón	1	Enero	2023-01-17T00:00:00	2024-11-06T15:00:00	5	Humedad	89
131637	7	Sololá	701	Sololá	2	El tablón	1	Enero	2023-01-17T00:00:00	2024-11-06T15:00:00	6	Velocidad del viento	6.4
131638	7	Sololá	701	Sololá	2	El tablón	1	Enero	2023-01-17T00:00:00	2024-11-06T15:00:00	7	Dirección del viento	6.44
131639	7	Sololá	701	Sololá	2	El tablón	1	Enero	2023-01-17T00:00:00	2024-11-06T15:00:00	1	Precipitación	0
131640	7	Sololá	701	Sololá	2	El tablón	1	Enero	2023-01-17T00:00:00	2024-11-06T15:00:00	8	Radiación solar	104
131641	7	Sololá	701	Sololá	2	El tablón	1	Enero	2023-01-17T00:00:00	2024-11-06T16:00:00	2	Temperatura media	13.4
131642	7	Sololá	701	Sololá	2	El tablón	1	Enero	2023-01-17T00:00:00	2024-11-06T16:00:00	4	Temperatura máxima	13.6
131643	7	Sololá	701	Sololá	2	El tablón	1	Enero	2023-01-17T00:00:00	2024-11-06T16:00:00	3	Temperatura mínima	13.2
131644	7	Sololá	701	Sololá	2	El tablón	1	Enero	2023-01-17T00:00:00	2024-11-06T16:00:00	5	Humedad	90
131645	7	Sololá	701	Sololá	2	El tablón	1	Enero	2023-01-17T00:00:00	2024-11-06T16:00:00	6	Velocidad del viento	4.8
131646	7	Sololá	701	Sololá	2	El tablón	1	Enero	2023-01-17T00:00:00	2024-11-06T16:00:00	7	Dirección del viento	4.83
131647	7	Sololá	701	Sololá	2	El tablón	1	Enero	2023-01-17T00:00:00	2024-11-06T16:00:00	1	Precipitación	0
131648	7	Sololá	701	Sololá	2	El tablón	1	Enero	2023-01-17T00:00:00	2024-11-06T16:00:00	8	Radiación solar	76
131649	7	Sololá	701	Sololá	2	El tablón	1	Enero	2023-01-17T00:00:00	2024-11-06T17:00:00	2	Temperatura media	12.9
131650	7	Sololá	701	Sololá	2	El tablón	1	Enero	2023-01-17T00:00:00	2024-11-06T17:00:00	4	Temperatura máxima	13.5
131651	7	Sololá	701	Sololá	2	El tablón	1	Enero	2023-01-17T00:00:00	2024-11-06T17:00:00	3	Temperatura mínima	12.9
131652	7	Sololá	701	Sololá	2	El tablón	1	Enero	2023-01-17T00:00:00	2024-11-06T17:00:00	5	Humedad	90
131653	7	Sololá	701	Sololá	2	El tablón	1	Enero	2023-01-17T00:00:00	2024-11-06T17:00:00	6	Velocidad del viento	4.8
131654	7	Sololá	701	Sololá	2	El tablón	1	Enero	2023-01-17T00:00:00	2024-11-06T17:00:00	7	Dirección del viento	4.83
131655	7	Sololá	701	Sololá	2	El tablón	1	Enero	2023-01-17T00:00:00	2024-11-06T17:00:00	1	Precipitación	0
131656	7	Sololá	701	Sololá	2	El tablón	1	Enero	2023-01-17T00:00:00	2024-11-06T17:00:00	8	Radiación solar	70
131657	7	Sololá	701	Sololá	2	El tablón	1	Enero	2023-01-17T00:00:00	2024-11-06T18:00:00	2	Temperatura media	12.3
131658	7	Sololá	701	Sololá	2	El tablón	1	Enero	2023-01-17T00:00:00	2024-11-06T18:00:00	4	Temperatura máxima	12.9
131659	7	Sololá	701	Sololá	2	El tablón	1	Enero	2023-01-17T00:00:00	2024-11-06T18:00:00	3	Temperatura mínima	12.3
131660	7	Sololá	701	Sololá	2	El tablón	1	Enero	2023-01-17T00:00:00	2024-11-06T18:00:00	5	Humedad	90
131661	7	Sololá	701	Sololá	2	El tablón	1	Enero	2023-01-17T00:00:00	2024-11-06T18:00:00	6	Velocidad del viento	3.2
131662	7	Sololá	701	Sololá	2	El tablón	1	Enero	2023-01-17T00:00:00	2024-11-06T18:00:00	7	Dirección del viento	3.22
131663	7	Sololá	701	Sololá	2	El tablón	1	Enero	2023-01-17T00:00:00	2024-11-06T18:00:00	1	Precipitación	0
131664	7	Sololá	701	Sololá	2	El tablón	1	Enero	2023-01-17T00:00:00	2024-11-06T18:00:00	8	Radiación solar	10
131665	7	Sololá	701	Sololá	2	El tablón	1	Enero	2023-01-17T00:00:00	2024-11-06T19:00:00	2	Temperatura media	12.5
131666	7	Sololá	701	Sololá	2	El tablón	1	Enero	2023-01-17T00:00:00	2024-11-06T19:00:00	4	Temperatura máxima	12.6
131667	7	Sololá	701	Sololá	2	El tablón	1	Enero	2023-01-17T00:00:00	2024-11-06T19:00:00	3	Temperatura mínima	12.3
131668	7	Sololá	701	Sololá	2	El tablón	1	Enero	2023-01-17T00:00:00	2024-11-06T19:00:00	5	Humedad	90
131669	7	Sololá	701	Sololá	2	El tablón	1	Enero	2023-01-17T00:00:00	2024-11-06T19:00:00	6	Velocidad del viento	0
131670	7	Sololá	701	Sololá	2	El tablón	1	Enero	2023-01-17T00:00:00	2024-11-06T19:00:00	7	Dirección del viento	0
131671	7	Sololá	701	Sololá	2	El tablón	1	Enero	2023-01-17T00:00:00	2024-11-06T19:00:00	1	Precipitación	0
131672	7	Sololá	701	Sololá	2	El tablón	1	Enero	2023-01-17T00:00:00	2024-11-06T19:00:00	8	Radiación solar	0
131673	7	Sololá	701	Sololá	2	El tablón	1	Enero	2023-01-17T00:00:00	2024-11-06T20:00:00	2	Temperatura media	12.1
131674	7	Sololá	701	Sololá	2	El tablón	1	Enero	2023-01-17T00:00:00	2024-11-06T20:00:00	4	Temperatura máxima	12.6
131675	7	Sololá	701	Sololá	2	El tablón	1	Enero	2023-01-17T00:00:00	2024-11-06T20:00:00	3	Temperatura mínima	12
131676	7	Sololá	701	Sololá	2	El tablón	1	Enero	2023-01-17T00:00:00	2024-11-06T20:00:00	5	Humedad	90
131677	7	Sololá	701	Sololá	2	El tablón	1	Enero	2023-01-17T00:00:00	2024-11-06T20:00:00	6	Velocidad del viento	0
131678	7	Sololá	701	Sololá	2	El tablón	1	Enero	2023-01-17T00:00:00	2024-11-06T20:00:00	7	Dirección del viento	0
131679	7	Sololá	701	Sololá	2	El tablón	1	Enero	2023-01-17T00:00:00	2024-11-06T20:00:00	1	Precipitación	0
131680	7	Sololá	701	Sololá	2	El tablón	1	Enero	2023-01-17T00:00:00	2024-11-06T20:00:00	8	Radiación solar	0
131681	7	Sololá	701	Sololá	2	El tablón	1	Enero	2023-01-17T00:00:00	2024-11-06T21:00:00	2	Temperatura media	10.8
131682	7	Sololá	701	Sololá	2	El tablón	1	Enero	2023-01-17T00:00:00	2024-11-06T21:00:00	4	Temperatura máxima	12.1
131683	7	Sololá	701	Sololá	2	El tablón	1	Enero	2023-01-17T00:00:00	2024-11-06T21:00:00	3	Temperatura mínima	10.8
131684	7	Sololá	701	Sololá	2	El tablón	1	Enero	2023-01-17T00:00:00	2024-11-06T21:00:00	5	Humedad	90
131685	7	Sololá	701	Sololá	2	El tablón	1	Enero	2023-01-17T00:00:00	2024-11-06T21:00:00	6	Velocidad del viento	0
131686	7	Sololá	701	Sololá	2	El tablón	1	Enero	2023-01-17T00:00:00	2024-11-06T21:00:00	7	Dirección del viento	0
131687	7	Sololá	701	Sololá	2	El tablón	1	Enero	2023-01-17T00:00:00	2024-11-06T21:00:00	1	Precipitación	0
131688	7	Sololá	701	Sololá	2	El tablón	1	Enero	2023-01-17T00:00:00	2024-11-06T21:00:00	8	Radiación solar	0
131689	7	Sololá	701	Sololá	2	El tablón	1	Enero	2023-01-17T00:00:00	2024-11-06T22:00:00	2	Temperatura media	10.1
131690	7	Sololá	701	Sololá	2	El tablón	1	Enero	2023-01-17T00:00:00	2024-11-06T22:00:00	4	Temperatura máxima	10.8
131691	7	Sololá	701	Sololá	2	El tablón	1	Enero	2023-01-17T00:00:00	2024-11-06T22:00:00	3	Temperatura mínima	10.1
131692	7	Sololá	701	Sololá	2	El tablón	1	Enero	2023-01-17T00:00:00	2024-11-06T22:00:00	5	Humedad	90
131693	7	Sololá	701	Sololá	2	El tablón	1	Enero	2023-01-17T00:00:00	2024-11-06T22:00:00	6	Velocidad del viento	1.6
131694	7	Sololá	701	Sololá	2	El tablón	1	Enero	2023-01-17T00:00:00	2024-11-06T22:00:00	7	Dirección del viento	1.61
131695	7	Sololá	701	Sololá	2	El tablón	1	Enero	2023-01-17T00:00:00	2024-11-06T22:00:00	1	Precipitación	0
131696	7	Sololá	701	Sololá	2	El tablón	1	Enero	2023-01-17T00:00:00	2024-11-06T22:00:00	8	Radiación solar	0
131697	7	Sololá	701	Sololá	2	El tablón	1	Enero	2023-01-17T00:00:00	2024-11-06T23:00:00	2	Temperatura media	9.5
131698	7	Sololá	701	Sololá	2	El tablón	1	Enero	2023-01-17T00:00:00	2024-11-06T23:00:00	4	Temperatura máxima	10.2
131699	7	Sololá	701	Sololá	2	El tablón	1	Enero	2023-01-17T00:00:00	2024-11-06T23:00:00	3	Temperatura mínima	9.4
131700	7	Sololá	701	Sololá	2	El tablón	1	Enero	2023-01-17T00:00:00	2024-11-06T23:00:00	5	Humedad	89
131701	7	Sololá	701	Sololá	2	El tablón	1	Enero	2023-01-17T00:00:00	2024-11-06T23:00:00	6	Velocidad del viento	0
131702	7	Sololá	701	Sololá	2	El tablón	1	Enero	2023-01-17T00:00:00	2024-11-06T23:00:00	7	Dirección del viento	0
131703	7	Sololá	701	Sololá	2	El tablón	1	Enero	2023-01-17T00:00:00	2024-11-06T23:00:00	1	Precipitación	0
131704	7	Sololá	701	Sololá	2	El tablón	1	Enero	2023-01-17T00:00:00	2024-11-06T23:00:00	8	Radiación solar	0
131705	7	Sololá	701	Sololá	2	El tablón	1	Enero	2023-01-18T00:00:00	2024-11-06T00:00:00	2	Temperatura media	9.6
131706	7	Sololá	701	Sololá	2	El tablón	1	Enero	2023-01-18T00:00:00	2024-11-06T00:00:00	4	Temperatura máxima	9.6
131707	7	Sololá	701	Sololá	2	El tablón	1	Enero	2023-01-18T00:00:00	2024-11-06T00:00:00	3	Temperatura mínima	9.4
131708	7	Sololá	701	Sololá	2	El tablón	1	Enero	2023-01-18T00:00:00	2024-11-06T00:00:00	5	Humedad	89
131709	7	Sololá	701	Sololá	2	El tablón	1	Enero	2023-01-18T00:00:00	2024-11-06T00:00:00	6	Velocidad del viento	3.2
131710	7	Sololá	701	Sololá	2	El tablón	1	Enero	2023-01-18T00:00:00	2024-11-06T00:00:00	7	Dirección del viento	3.22
131711	7	Sololá	701	Sololá	2	El tablón	1	Enero	2023-01-18T00:00:00	2024-11-06T00:00:00	1	Precipitación	0
131712	7	Sololá	701	Sololá	2	El tablón	1	Enero	2023-01-18T00:00:00	2024-11-06T00:00:00	8	Radiación solar	0
131713	7	Sololá	701	Sololá	2	El tablón	1	Enero	2023-01-18T00:00:00	2024-11-06T01:00:00	2	Temperatura media	9.6
131714	7	Sololá	701	Sololá	2	El tablón	1	Enero	2023-01-18T00:00:00	2024-11-06T01:00:00	4	Temperatura máxima	9.6
131715	7	Sololá	701	Sololá	2	El tablón	1	Enero	2023-01-18T00:00:00	2024-11-06T01:00:00	3	Temperatura mínima	9.3
131716	7	Sololá	701	Sololá	2	El tablón	1	Enero	2023-01-18T00:00:00	2024-11-06T01:00:00	5	Humedad	90
131717	7	Sololá	701	Sololá	2	El tablón	1	Enero	2023-01-18T00:00:00	2024-11-06T01:00:00	6	Velocidad del viento	3.2
131718	7	Sololá	701	Sololá	2	El tablón	1	Enero	2023-01-18T00:00:00	2024-11-06T01:00:00	7	Dirección del viento	3.22
131719	7	Sololá	701	Sololá	2	El tablón	1	Enero	2023-01-18T00:00:00	2024-11-06T01:00:00	1	Precipitación	0
131720	7	Sololá	701	Sololá	2	El tablón	1	Enero	2023-01-18T00:00:00	2024-11-06T01:00:00	8	Radiación solar	0
131721	7	Sololá	701	Sololá	2	El tablón	1	Enero	2023-01-18T00:00:00	2024-11-06T02:00:00	2	Temperatura media	9.3
131722	7	Sololá	701	Sololá	2	El tablón	1	Enero	2023-01-18T00:00:00	2024-11-06T02:00:00	4	Temperatura máxima	9.8
131723	7	Sololá	701	Sololá	2	El tablón	1	Enero	2023-01-18T00:00:00	2024-11-06T02:00:00	3	Temperatura mínima	9.3
131724	7	Sololá	701	Sololá	2	El tablón	1	Enero	2023-01-18T00:00:00	2024-11-06T02:00:00	5	Humedad	90
131725	7	Sololá	701	Sololá	2	El tablón	1	Enero	2023-01-18T00:00:00	2024-11-06T02:00:00	6	Velocidad del viento	4.8
131726	7	Sololá	701	Sololá	2	El tablón	1	Enero	2023-01-18T00:00:00	2024-11-06T02:00:00	7	Dirección del viento	4.83
131727	7	Sololá	701	Sololá	2	El tablón	1	Enero	2023-01-18T00:00:00	2024-11-06T02:00:00	1	Precipitación	0
131728	7	Sololá	701	Sololá	2	El tablón	1	Enero	2023-01-18T00:00:00	2024-11-06T02:00:00	8	Radiación solar	0
131729	7	Sololá	701	Sololá	2	El tablón	1	Enero	2023-01-18T00:00:00	2024-11-06T03:00:00	2	Temperatura media	8.4
131730	7	Sololá	701	Sololá	2	El tablón	1	Enero	2023-01-18T00:00:00	2024-11-06T03:00:00	4	Temperatura máxima	9.3
131731	7	Sololá	701	Sololá	2	El tablón	1	Enero	2023-01-18T00:00:00	2024-11-06T03:00:00	3	Temperatura mínima	8.4
131732	7	Sololá	701	Sololá	2	El tablón	1	Enero	2023-01-18T00:00:00	2024-11-06T03:00:00	5	Humedad	90
131733	7	Sololá	701	Sololá	2	El tablón	1	Enero	2023-01-18T00:00:00	2024-11-06T03:00:00	6	Velocidad del viento	1.6
131734	7	Sololá	701	Sololá	2	El tablón	1	Enero	2023-01-18T00:00:00	2024-11-06T03:00:00	7	Dirección del viento	1.61
131735	7	Sololá	701	Sololá	2	El tablón	1	Enero	2023-01-18T00:00:00	2024-11-06T03:00:00	1	Precipitación	0
131736	7	Sololá	701	Sololá	2	El tablón	1	Enero	2023-01-18T00:00:00	2024-11-06T03:00:00	8	Radiación solar	0
131737	7	Sololá	701	Sololá	2	El tablón	1	Enero	2023-01-18T00:00:00	2024-11-06T04:00:00	2	Temperatura media	8.1
131738	7	Sololá	701	Sololá	2	El tablón	1	Enero	2023-01-18T00:00:00	2024-11-06T04:00:00	4	Temperatura máxima	8.4
131739	7	Sololá	701	Sololá	2	El tablón	1	Enero	2023-01-18T00:00:00	2024-11-06T04:00:00	3	Temperatura mínima	8.1
131740	7	Sololá	701	Sololá	2	El tablón	1	Enero	2023-01-18T00:00:00	2024-11-06T04:00:00	5	Humedad	90
131741	7	Sololá	701	Sololá	2	El tablón	1	Enero	2023-01-18T00:00:00	2024-11-06T04:00:00	6	Velocidad del viento	1.6
131742	7	Sololá	701	Sololá	2	El tablón	1	Enero	2023-01-18T00:00:00	2024-11-06T04:00:00	7	Dirección del viento	1.61
131743	7	Sololá	701	Sololá	2	El tablón	1	Enero	2023-01-18T00:00:00	2024-11-06T04:00:00	1	Precipitación	0
131744	7	Sololá	701	Sololá	2	El tablón	1	Enero	2023-01-18T00:00:00	2024-11-06T04:00:00	8	Radiación solar	0
131745	7	Sololá	701	Sololá	2	El tablón	1	Enero	2023-01-18T00:00:00	2024-11-06T05:00:00	2	Temperatura media	7.4
131746	7	Sololá	701	Sololá	2	El tablón	1	Enero	2023-01-18T00:00:00	2024-11-06T05:00:00	4	Temperatura máxima	8.2
131747	7	Sololá	701	Sololá	2	El tablón	1	Enero	2023-01-18T00:00:00	2024-11-06T05:00:00	3	Temperatura mínima	7.2
131748	7	Sololá	701	Sololá	2	El tablón	1	Enero	2023-01-18T00:00:00	2024-11-06T05:00:00	5	Humedad	90
131749	7	Sololá	701	Sololá	2	El tablón	1	Enero	2023-01-18T00:00:00	2024-11-06T05:00:00	6	Velocidad del viento	3.2
131750	7	Sololá	701	Sololá	2	El tablón	1	Enero	2023-01-18T00:00:00	2024-11-06T05:00:00	7	Dirección del viento	3.22
131751	7	Sololá	701	Sololá	2	El tablón	1	Enero	2023-01-18T00:00:00	2024-11-06T05:00:00	1	Precipitación	0
131752	7	Sololá	701	Sololá	2	El tablón	1	Enero	2023-01-18T00:00:00	2024-11-06T05:00:00	8	Radiación solar	0
131753	7	Sololá	701	Sololá	2	El tablón	1	Enero	2023-01-18T00:00:00	2024-11-06T06:00:00	2	Temperatura media	8.1
131754	7	Sololá	701	Sololá	2	El tablón	1	Enero	2023-01-18T00:00:00	2024-11-06T06:00:00	4	Temperatura máxima	8.2
131755	7	Sololá	701	Sololá	2	El tablón	1	Enero	2023-01-18T00:00:00	2024-11-06T06:00:00	3	Temperatura mínima	7.4
131756	7	Sololá	701	Sololá	2	El tablón	1	Enero	2023-01-18T00:00:00	2024-11-06T06:00:00	5	Humedad	85
131757	7	Sololá	701	Sololá	2	El tablón	1	Enero	2023-01-18T00:00:00	2024-11-06T06:00:00	6	Velocidad del viento	3.2
131758	7	Sololá	701	Sololá	2	El tablón	1	Enero	2023-01-18T00:00:00	2024-11-06T06:00:00	7	Dirección del viento	3.22
131759	7	Sololá	701	Sololá	2	El tablón	1	Enero	2023-01-18T00:00:00	2024-11-06T06:00:00	1	Precipitación	0
131760	7	Sololá	701	Sololá	2	El tablón	1	Enero	2023-01-18T00:00:00	2024-11-06T06:00:00	8	Radiación solar	0
131761	7	Sololá	701	Sololá	2	El tablón	1	Enero	2023-01-18T00:00:00	2024-11-06T07:00:00	2	Temperatura media	8.2
131762	7	Sololá	701	Sololá	2	El tablón	1	Enero	2023-01-18T00:00:00	2024-11-06T07:00:00	4	Temperatura máxima	8.7
131763	7	Sololá	701	Sololá	2	El tablón	1	Enero	2023-01-18T00:00:00	2024-11-06T07:00:00	3	Temperatura mínima	8.1
131764	7	Sololá	701	Sololá	2	El tablón	1	Enero	2023-01-18T00:00:00	2024-11-06T07:00:00	5	Humedad	89
131765	7	Sololá	701	Sololá	2	El tablón	1	Enero	2023-01-18T00:00:00	2024-11-06T07:00:00	6	Velocidad del viento	1.6
131766	7	Sololá	701	Sololá	2	El tablón	1	Enero	2023-01-18T00:00:00	2024-11-06T07:00:00	7	Dirección del viento	1.61
131767	7	Sololá	701	Sololá	2	El tablón	1	Enero	2023-01-18T00:00:00	2024-11-06T07:00:00	1	Precipitación	0
131768	7	Sololá	701	Sololá	2	El tablón	1	Enero	2023-01-18T00:00:00	2024-11-06T07:00:00	8	Radiación solar	6
131769	7	Sololá	701	Sololá	2	El tablón	1	Enero	2023-01-18T00:00:00	2024-11-06T08:00:00	2	Temperatura media	10.8
131770	7	Sololá	701	Sololá	2	El tablón	1	Enero	2023-01-18T00:00:00	2024-11-06T08:00:00	4	Temperatura máxima	10.8
131771	7	Sololá	701	Sololá	2	El tablón	1	Enero	2023-01-18T00:00:00	2024-11-06T08:00:00	3	Temperatura mínima	8
131772	7	Sololá	701	Sololá	2	El tablón	1	Enero	2023-01-18T00:00:00	2024-11-06T08:00:00	5	Humedad	86
131773	7	Sololá	701	Sololá	2	El tablón	1	Enero	2023-01-18T00:00:00	2024-11-06T08:00:00	6	Velocidad del viento	1.6
131774	7	Sololá	701	Sololá	2	El tablón	1	Enero	2023-01-18T00:00:00	2024-11-06T08:00:00	7	Dirección del viento	1.61
131775	7	Sololá	701	Sololá	2	El tablón	1	Enero	2023-01-18T00:00:00	2024-11-06T08:00:00	1	Precipitación	0
131776	7	Sololá	701	Sololá	2	El tablón	1	Enero	2023-01-18T00:00:00	2024-11-06T08:00:00	8	Radiación solar	116
131777	7	Sololá	701	Sololá	2	El tablón	1	Enero	2023-01-18T00:00:00	2024-11-06T09:00:00	2	Temperatura media	13.1
131778	7	Sololá	701	Sololá	2	El tablón	1	Enero	2023-01-18T00:00:00	2024-11-06T09:00:00	4	Temperatura máxima	13.1
131779	7	Sololá	701	Sololá	2	El tablón	1	Enero	2023-01-18T00:00:00	2024-11-06T09:00:00	3	Temperatura mínima	10.8
131780	7	Sololá	701	Sololá	2	El tablón	1	Enero	2023-01-18T00:00:00	2024-11-06T09:00:00	5	Humedad	77
131781	7	Sololá	701	Sololá	2	El tablón	1	Enero	2023-01-18T00:00:00	2024-11-06T09:00:00	6	Velocidad del viento	0
131782	7	Sololá	701	Sololá	2	El tablón	1	Enero	2023-01-18T00:00:00	2024-11-06T09:00:00	7	Dirección del viento	0
131783	7	Sololá	701	Sololá	2	El tablón	1	Enero	2023-01-18T00:00:00	2024-11-06T09:00:00	1	Precipitación	0
131784	7	Sololá	701	Sololá	2	El tablón	1	Enero	2023-01-18T00:00:00	2024-11-06T09:00:00	8	Radiación solar	325
131785	7	Sololá	701	Sololá	2	El tablón	1	Enero	2023-01-18T00:00:00	2024-11-06T10:00:00	2	Temperatura media	14.8
131786	7	Sololá	701	Sololá	2	El tablón	1	Enero	2023-01-18T00:00:00	2024-11-06T10:00:00	4	Temperatura máxima	14.8
131787	7	Sololá	701	Sololá	2	El tablón	1	Enero	2023-01-18T00:00:00	2024-11-06T10:00:00	3	Temperatura mínima	13.2
131788	7	Sololá	701	Sololá	2	El tablón	1	Enero	2023-01-18T00:00:00	2024-11-06T10:00:00	5	Humedad	76
131789	7	Sololá	701	Sololá	2	El tablón	1	Enero	2023-01-18T00:00:00	2024-11-06T10:00:00	6	Velocidad del viento	4.8
131790	7	Sololá	701	Sololá	2	El tablón	1	Enero	2023-01-18T00:00:00	2024-11-06T10:00:00	7	Dirección del viento	4.83
131791	7	Sololá	701	Sololá	2	El tablón	1	Enero	2023-01-18T00:00:00	2024-11-06T10:00:00	1	Precipitación	0
131792	7	Sololá	701	Sololá	2	El tablón	1	Enero	2023-01-18T00:00:00	2024-11-06T10:00:00	8	Radiación solar	518
131793	7	Sololá	701	Sololá	2	El tablón	1	Enero	2023-01-18T00:00:00	2024-11-06T11:00:00	2	Temperatura media	15.3
131794	7	Sololá	701	Sololá	2	El tablón	1	Enero	2023-01-18T00:00:00	2024-11-06T11:00:00	4	Temperatura máxima	15.3
131795	7	Sololá	701	Sololá	2	El tablón	1	Enero	2023-01-18T00:00:00	2024-11-06T11:00:00	3	Temperatura mínima	14.8
131796	7	Sololá	701	Sololá	2	El tablón	1	Enero	2023-01-18T00:00:00	2024-11-06T11:00:00	5	Humedad	72
131797	7	Sololá	701	Sololá	2	El tablón	1	Enero	2023-01-18T00:00:00	2024-11-06T11:00:00	6	Velocidad del viento	6.4
131798	7	Sololá	701	Sololá	2	El tablón	1	Enero	2023-01-18T00:00:00	2024-11-06T11:00:00	7	Dirección del viento	6.44
131799	7	Sololá	701	Sololá	2	El tablón	1	Enero	2023-01-18T00:00:00	2024-11-06T11:00:00	1	Precipitación	0
131800	7	Sololá	701	Sololá	2	El tablón	1	Enero	2023-01-18T00:00:00	2024-11-06T11:00:00	8	Radiación solar	669
131801	7	Sololá	701	Sololá	2	El tablón	1	Enero	2023-01-18T00:00:00	2024-11-06T12:00:00	2	Temperatura media	15.4
131802	7	Sololá	701	Sololá	2	El tablón	1	Enero	2023-01-18T00:00:00	2024-11-06T12:00:00	4	Temperatura máxima	15.6
131803	7	Sololá	701	Sololá	2	El tablón	1	Enero	2023-01-18T00:00:00	2024-11-06T12:00:00	3	Temperatura mínima	15
131804	7	Sololá	701	Sololá	2	El tablón	1	Enero	2023-01-18T00:00:00	2024-11-06T12:00:00	5	Humedad	77
131805	7	Sololá	701	Sololá	2	El tablón	1	Enero	2023-01-18T00:00:00	2024-11-06T12:00:00	6	Velocidad del viento	8
131806	7	Sololá	701	Sololá	2	El tablón	1	Enero	2023-01-18T00:00:00	2024-11-06T12:00:00	7	Dirección del viento	8.05
131807	7	Sololá	701	Sololá	2	El tablón	1	Enero	2023-01-18T00:00:00	2024-11-06T12:00:00	1	Precipitación	0
131808	7	Sololá	701	Sololá	2	El tablón	1	Enero	2023-01-18T00:00:00	2024-11-06T12:00:00	8	Radiación solar	658
131809	7	Sololá	701	Sololá	2	El tablón	1	Enero	2023-01-18T00:00:00	2024-11-06T13:00:00	2	Temperatura media	15.4
131810	7	Sololá	701	Sololá	2	El tablón	1	Enero	2023-01-18T00:00:00	2024-11-06T13:00:00	4	Temperatura máxima	15.7
131811	7	Sololá	701	Sololá	2	El tablón	1	Enero	2023-01-18T00:00:00	2024-11-06T13:00:00	3	Temperatura mínima	15
131812	7	Sololá	701	Sololá	2	El tablón	1	Enero	2023-01-18T00:00:00	2024-11-06T13:00:00	5	Humedad	81
131813	7	Sololá	701	Sololá	2	El tablón	1	Enero	2023-01-18T00:00:00	2024-11-06T13:00:00	6	Velocidad del viento	8
131814	7	Sololá	701	Sololá	2	El tablón	1	Enero	2023-01-18T00:00:00	2024-11-06T13:00:00	7	Dirección del viento	8.05
131815	7	Sololá	701	Sololá	2	El tablón	1	Enero	2023-01-18T00:00:00	2024-11-06T13:00:00	1	Precipitación	0
131816	7	Sololá	701	Sololá	2	El tablón	1	Enero	2023-01-18T00:00:00	2024-11-06T13:00:00	8	Radiación solar	755
131817	7	Sololá	701	Sololá	2	El tablón	1	Enero	2023-01-18T00:00:00	2024-11-06T14:00:00	2	Temperatura media	14.8
131818	7	Sololá	701	Sololá	2	El tablón	1	Enero	2023-01-18T00:00:00	2024-11-06T14:00:00	4	Temperatura máxima	15.4
131819	7	Sololá	701	Sololá	2	El tablón	1	Enero	2023-01-18T00:00:00	2024-11-06T14:00:00	3	Temperatura mínima	14.7
131820	7	Sololá	701	Sololá	2	El tablón	1	Enero	2023-01-18T00:00:00	2024-11-06T14:00:00	5	Humedad	85
131821	7	Sololá	701	Sololá	2	El tablón	1	Enero	2023-01-18T00:00:00	2024-11-06T14:00:00	6	Velocidad del viento	6.4
131822	7	Sololá	701	Sololá	2	El tablón	1	Enero	2023-01-18T00:00:00	2024-11-06T14:00:00	7	Dirección del viento	6.44
131823	7	Sololá	701	Sololá	2	El tablón	1	Enero	2023-01-18T00:00:00	2024-11-06T14:00:00	1	Precipitación	0
131824	7	Sololá	701	Sololá	2	El tablón	1	Enero	2023-01-18T00:00:00	2024-11-06T14:00:00	8	Radiación solar	382
131825	7	Sololá	701	Sololá	2	El tablón	1	Enero	2023-01-18T00:00:00	2024-11-06T15:00:00	2	Temperatura media	13.5
131826	7	Sololá	701	Sololá	2	El tablón	1	Enero	2023-01-18T00:00:00	2024-11-06T15:00:00	4	Temperatura máxima	14.8
131827	7	Sololá	701	Sololá	2	El tablón	1	Enero	2023-01-18T00:00:00	2024-11-06T15:00:00	3	Temperatura mínima	13.5
131828	7	Sololá	701	Sololá	2	El tablón	1	Enero	2023-01-18T00:00:00	2024-11-06T15:00:00	5	Humedad	88
131829	7	Sololá	701	Sololá	2	El tablón	1	Enero	2023-01-18T00:00:00	2024-11-06T15:00:00	6	Velocidad del viento	6.4
131830	7	Sololá	701	Sololá	2	El tablón	1	Enero	2023-01-18T00:00:00	2024-11-06T15:00:00	7	Dirección del viento	6.44
131831	7	Sololá	701	Sololá	2	El tablón	1	Enero	2023-01-18T00:00:00	2024-11-06T15:00:00	1	Precipitación	0
131832	7	Sololá	701	Sololá	2	El tablón	1	Enero	2023-01-18T00:00:00	2024-11-06T15:00:00	8	Radiación solar	227
131833	7	Sololá	701	Sololá	2	El tablón	1	Enero	2023-01-18T00:00:00	2024-11-06T16:00:00	2	Temperatura media	13
131834	7	Sololá	701	Sololá	2	El tablón	1	Enero	2023-01-18T00:00:00	2024-11-06T16:00:00	4	Temperatura máxima	13.5
131835	7	Sololá	701	Sololá	2	El tablón	1	Enero	2023-01-18T00:00:00	2024-11-06T16:00:00	3	Temperatura mínima	12.9
131836	7	Sololá	701	Sololá	2	El tablón	1	Enero	2023-01-18T00:00:00	2024-11-06T16:00:00	5	Humedad	90
131837	7	Sololá	701	Sololá	2	El tablón	1	Enero	2023-01-18T00:00:00	2024-11-06T16:00:00	6	Velocidad del viento	6.4
131838	7	Sololá	701	Sololá	2	El tablón	1	Enero	2023-01-18T00:00:00	2024-11-06T16:00:00	7	Dirección del viento	6.44
131839	7	Sololá	701	Sololá	2	El tablón	1	Enero	2023-01-18T00:00:00	2024-11-06T16:00:00	1	Precipitación	0
131840	7	Sololá	701	Sololá	2	El tablón	1	Enero	2023-01-18T00:00:00	2024-11-06T16:00:00	8	Radiación solar	106
131841	7	Sololá	701	Sololá	2	El tablón	1	Enero	2023-01-18T00:00:00	2024-11-06T17:00:00	2	Temperatura media	12.9
131842	7	Sololá	701	Sololá	2	El tablón	1	Enero	2023-01-18T00:00:00	2024-11-06T17:00:00	4	Temperatura máxima	13.2
131843	7	Sololá	701	Sololá	2	El tablón	1	Enero	2023-01-18T00:00:00	2024-11-06T17:00:00	3	Temperatura mínima	12.8
131844	7	Sololá	701	Sololá	2	El tablón	1	Enero	2023-01-18T00:00:00	2024-11-06T17:00:00	5	Humedad	90
131845	7	Sololá	701	Sololá	2	El tablón	1	Enero	2023-01-18T00:00:00	2024-11-06T17:00:00	6	Velocidad del viento	4.8
131846	7	Sololá	701	Sololá	2	El tablón	1	Enero	2023-01-18T00:00:00	2024-11-06T17:00:00	7	Dirección del viento	4.83
131847	7	Sololá	701	Sololá	2	El tablón	1	Enero	2023-01-18T00:00:00	2024-11-06T17:00:00	1	Precipitación	0
131848	7	Sololá	701	Sololá	2	El tablón	1	Enero	2023-01-18T00:00:00	2024-11-06T17:00:00	8	Radiación solar	109
131849	7	Sololá	701	Sololá	2	El tablón	1	Enero	2023-01-18T00:00:00	2024-11-06T18:00:00	2	Temperatura media	12.2
131850	7	Sololá	701	Sololá	2	El tablón	1	Enero	2023-01-18T00:00:00	2024-11-06T18:00:00	4	Temperatura máxima	12.9
131851	7	Sololá	701	Sololá	2	El tablón	1	Enero	2023-01-18T00:00:00	2024-11-06T18:00:00	3	Temperatura mínima	12.2
131852	7	Sololá	701	Sololá	2	El tablón	1	Enero	2023-01-18T00:00:00	2024-11-06T18:00:00	5	Humedad	90
131853	7	Sololá	701	Sololá	2	El tablón	1	Enero	2023-01-18T00:00:00	2024-11-06T18:00:00	6	Velocidad del viento	3.2
131854	7	Sololá	701	Sololá	2	El tablón	1	Enero	2023-01-18T00:00:00	2024-11-06T18:00:00	7	Dirección del viento	3.22
131855	7	Sololá	701	Sololá	2	El tablón	1	Enero	2023-01-18T00:00:00	2024-11-06T18:00:00	1	Precipitación	0
131856	7	Sololá	701	Sololá	2	El tablón	1	Enero	2023-01-18T00:00:00	2024-11-06T18:00:00	8	Radiación solar	9
131857	7	Sololá	701	Sololá	2	El tablón	1	Enero	2023-01-18T00:00:00	2024-11-06T19:00:00	2	Temperatura media	11.9
131858	7	Sololá	701	Sololá	2	El tablón	1	Enero	2023-01-18T00:00:00	2024-11-06T19:00:00	4	Temperatura máxima	12.2
131859	7	Sololá	701	Sololá	2	El tablón	1	Enero	2023-01-18T00:00:00	2024-11-06T19:00:00	3	Temperatura mínima	11.9
131860	7	Sololá	701	Sololá	2	El tablón	1	Enero	2023-01-18T00:00:00	2024-11-06T19:00:00	5	Humedad	90
131861	7	Sololá	701	Sololá	2	El tablón	1	Enero	2023-01-18T00:00:00	2024-11-06T19:00:00	6	Velocidad del viento	1.6
131862	7	Sololá	701	Sololá	2	El tablón	1	Enero	2023-01-18T00:00:00	2024-11-06T19:00:00	7	Dirección del viento	1.61
131863	7	Sololá	701	Sololá	2	El tablón	1	Enero	2023-01-18T00:00:00	2024-11-06T19:00:00	1	Precipitación	0
131864	7	Sololá	701	Sololá	2	El tablón	1	Enero	2023-01-18T00:00:00	2024-11-06T19:00:00	8	Radiación solar	0
131865	7	Sololá	701	Sololá	2	El tablón	1	Enero	2023-01-18T00:00:00	2024-11-06T20:00:00	2	Temperatura media	11.8
131866	7	Sololá	701	Sololá	2	El tablón	1	Enero	2023-01-18T00:00:00	2024-11-06T20:00:00	4	Temperatura máxima	12
131867	7	Sololá	701	Sololá	2	El tablón	1	Enero	2023-01-18T00:00:00	2024-11-06T20:00:00	3	Temperatura mínima	11.8
131868	7	Sololá	701	Sololá	2	El tablón	1	Enero	2023-01-18T00:00:00	2024-11-06T20:00:00	5	Humedad	91
131869	7	Sololá	701	Sololá	2	El tablón	1	Enero	2023-01-18T00:00:00	2024-11-06T20:00:00	6	Velocidad del viento	1.6
131870	7	Sololá	701	Sololá	2	El tablón	1	Enero	2023-01-18T00:00:00	2024-11-06T20:00:00	7	Dirección del viento	1.61
131871	7	Sololá	701	Sololá	2	El tablón	1	Enero	2023-01-18T00:00:00	2024-11-06T20:00:00	1	Precipitación	0
131872	7	Sololá	701	Sololá	2	El tablón	1	Enero	2023-01-18T00:00:00	2024-11-06T20:00:00	8	Radiación solar	0
131873	7	Sololá	701	Sololá	2	El tablón	1	Enero	2023-01-18T00:00:00	2024-11-06T21:00:00	2	Temperatura media	11.4
131874	7	Sololá	701	Sololá	2	El tablón	1	Enero	2023-01-18T00:00:00	2024-11-06T21:00:00	4	Temperatura máxima	11.8
131875	7	Sololá	701	Sololá	2	El tablón	1	Enero	2023-01-18T00:00:00	2024-11-06T21:00:00	3	Temperatura mínima	11.4
131876	7	Sololá	701	Sololá	2	El tablón	1	Enero	2023-01-18T00:00:00	2024-11-06T21:00:00	5	Humedad	91
131877	7	Sololá	701	Sololá	2	El tablón	1	Enero	2023-01-18T00:00:00	2024-11-06T21:00:00	6	Velocidad del viento	0
131878	7	Sololá	701	Sololá	2	El tablón	1	Enero	2023-01-18T00:00:00	2024-11-06T21:00:00	7	Dirección del viento	0
131879	7	Sololá	701	Sololá	2	El tablón	1	Enero	2023-01-18T00:00:00	2024-11-06T21:00:00	1	Precipitación	0
131880	7	Sololá	701	Sololá	2	El tablón	1	Enero	2023-01-18T00:00:00	2024-11-06T21:00:00	8	Radiación solar	0
131881	7	Sololá	701	Sololá	2	El tablón	1	Enero	2023-01-18T00:00:00	2024-11-06T22:00:00	2	Temperatura media	10.7
131882	7	Sololá	701	Sololá	2	El tablón	1	Enero	2023-01-18T00:00:00	2024-11-06T22:00:00	4	Temperatura máxima	11.4
131883	7	Sololá	701	Sololá	2	El tablón	1	Enero	2023-01-18T00:00:00	2024-11-06T22:00:00	3	Temperatura mínima	10.7
131884	7	Sololá	701	Sololá	2	El tablón	1	Enero	2023-01-18T00:00:00	2024-11-06T22:00:00	5	Humedad	91
131885	7	Sololá	701	Sololá	2	El tablón	1	Enero	2023-01-18T00:00:00	2024-11-06T22:00:00	6	Velocidad del viento	0
131886	7	Sololá	701	Sololá	2	El tablón	1	Enero	2023-01-18T00:00:00	2024-11-06T22:00:00	7	Dirección del viento	0
131887	7	Sololá	701	Sololá	2	El tablón	1	Enero	2023-01-18T00:00:00	2024-11-06T22:00:00	1	Precipitación	0
131888	7	Sololá	701	Sololá	2	El tablón	1	Enero	2023-01-18T00:00:00	2024-11-06T22:00:00	8	Radiación solar	0
131889	7	Sololá	701	Sololá	2	El tablón	1	Enero	2023-01-18T00:00:00	2024-11-06T23:00:00	2	Temperatura media	9.3
131890	7	Sololá	701	Sololá	2	El tablón	1	Enero	2023-01-18T00:00:00	2024-11-06T23:00:00	4	Temperatura máxima	10.7
131891	7	Sololá	701	Sololá	2	El tablón	1	Enero	2023-01-18T00:00:00	2024-11-06T23:00:00	3	Temperatura mínima	9.3
131892	7	Sololá	701	Sololá	2	El tablón	1	Enero	2023-01-18T00:00:00	2024-11-06T23:00:00	5	Humedad	90
131893	7	Sololá	701	Sololá	2	El tablón	1	Enero	2023-01-18T00:00:00	2024-11-06T23:00:00	6	Velocidad del viento	1.6
131894	7	Sololá	701	Sololá	2	El tablón	1	Enero	2023-01-18T00:00:00	2024-11-06T23:00:00	7	Dirección del viento	1.61
131895	7	Sololá	701	Sololá	2	El tablón	1	Enero	2023-01-18T00:00:00	2024-11-06T23:00:00	1	Precipitación	0
131896	7	Sololá	701	Sololá	2	El tablón	1	Enero	2023-01-18T00:00:00	2024-11-06T23:00:00	8	Radiación solar	0
131897	7	Sololá	701	Sololá	2	El tablón	1	Enero	2023-01-19T00:00:00	2024-11-06T00:00:00	2	Temperatura media	9.1
131898	7	Sololá	701	Sololá	2	El tablón	1	Enero	2023-01-19T00:00:00	2024-11-06T00:00:00	4	Temperatura máxima	9.3
131899	7	Sololá	701	Sololá	2	El tablón	1	Enero	2023-01-19T00:00:00	2024-11-06T00:00:00	3	Temperatura mínima	9.1
131900	7	Sololá	701	Sololá	2	El tablón	1	Enero	2023-01-19T00:00:00	2024-11-06T00:00:00	5	Humedad	90
131901	7	Sololá	701	Sololá	2	El tablón	1	Enero	2023-01-19T00:00:00	2024-11-06T00:00:00	6	Velocidad del viento	3.2
131902	7	Sololá	701	Sololá	2	El tablón	1	Enero	2023-01-19T00:00:00	2024-11-06T00:00:00	7	Dirección del viento	3.22
131903	7	Sololá	701	Sololá	2	El tablón	1	Enero	2023-01-19T00:00:00	2024-11-06T00:00:00	1	Precipitación	0
131904	7	Sololá	701	Sololá	2	El tablón	1	Enero	2023-01-19T00:00:00	2024-11-06T00:00:00	8	Radiación solar	0
131905	7	Sololá	701	Sololá	2	El tablón	1	Enero	2023-01-19T00:00:00	2024-11-06T01:00:00	2	Temperatura media	8.6
131906	7	Sololá	701	Sololá	2	El tablón	1	Enero	2023-01-19T00:00:00	2024-11-06T01:00:00	4	Temperatura máxima	9.3
131907	7	Sololá	701	Sololá	2	El tablón	1	Enero	2023-01-19T00:00:00	2024-11-06T01:00:00	3	Temperatura mínima	8.5
131908	7	Sololá	701	Sololá	2	El tablón	1	Enero	2023-01-19T00:00:00	2024-11-06T01:00:00	5	Humedad	89
131909	7	Sololá	701	Sololá	2	El tablón	1	Enero	2023-01-19T00:00:00	2024-11-06T01:00:00	6	Velocidad del viento	4.8
131910	7	Sololá	701	Sololá	2	El tablón	1	Enero	2023-01-19T00:00:00	2024-11-06T01:00:00	7	Dirección del viento	4.83
131911	7	Sololá	701	Sololá	2	El tablón	1	Enero	2023-01-19T00:00:00	2024-11-06T01:00:00	1	Precipitación	0
131912	7	Sololá	701	Sololá	2	El tablón	1	Enero	2023-01-19T00:00:00	2024-11-06T01:00:00	8	Radiación solar	0
131913	7	Sololá	701	Sololá	2	El tablón	1	Enero	2023-01-19T00:00:00	2024-11-06T02:00:00	2	Temperatura media	8.2
131914	7	Sololá	701	Sololá	2	El tablón	1	Enero	2023-01-19T00:00:00	2024-11-06T02:00:00	4	Temperatura máxima	8.6
131915	7	Sololá	701	Sololá	2	El tablón	1	Enero	2023-01-19T00:00:00	2024-11-06T02:00:00	3	Temperatura mínima	8.2
131916	7	Sololá	701	Sololá	2	El tablón	1	Enero	2023-01-19T00:00:00	2024-11-06T02:00:00	5	Humedad	86
131917	7	Sololá	701	Sololá	2	El tablón	1	Enero	2023-01-19T00:00:00	2024-11-06T02:00:00	6	Velocidad del viento	3.2
131918	7	Sololá	701	Sololá	2	El tablón	1	Enero	2023-01-19T00:00:00	2024-11-06T02:00:00	7	Dirección del viento	3.22
131919	7	Sololá	701	Sololá	2	El tablón	1	Enero	2023-01-19T00:00:00	2024-11-06T02:00:00	1	Precipitación	0
131920	7	Sololá	701	Sololá	2	El tablón	1	Enero	2023-01-19T00:00:00	2024-11-06T02:00:00	8	Radiación solar	0
131921	7	Sololá	701	Sololá	2	El tablón	1	Enero	2023-01-19T00:00:00	2024-11-06T03:00:00	2	Temperatura media	7.6
131922	7	Sololá	701	Sololá	2	El tablón	1	Enero	2023-01-19T00:00:00	2024-11-06T03:00:00	4	Temperatura máxima	8.2
131923	7	Sololá	701	Sololá	2	El tablón	1	Enero	2023-01-19T00:00:00	2024-11-06T03:00:00	3	Temperatura mínima	7.5
131924	7	Sololá	701	Sololá	2	El tablón	1	Enero	2023-01-19T00:00:00	2024-11-06T03:00:00	5	Humedad	71
131925	7	Sololá	701	Sololá	2	El tablón	1	Enero	2023-01-19T00:00:00	2024-11-06T03:00:00	6	Velocidad del viento	3.2
131926	7	Sololá	701	Sololá	2	El tablón	1	Enero	2023-01-19T00:00:00	2024-11-06T03:00:00	7	Dirección del viento	3.22
131927	7	Sololá	701	Sololá	2	El tablón	1	Enero	2023-01-19T00:00:00	2024-11-06T03:00:00	1	Precipitación	0
131928	7	Sololá	701	Sololá	2	El tablón	1	Enero	2023-01-19T00:00:00	2024-11-06T03:00:00	8	Radiación solar	0
131929	7	Sololá	701	Sololá	2	El tablón	1	Enero	2023-01-19T00:00:00	2024-11-06T04:00:00	2	Temperatura media	7.7
131930	7	Sololá	701	Sololá	2	El tablón	1	Enero	2023-01-19T00:00:00	2024-11-06T04:00:00	4	Temperatura máxima	7.9
131931	7	Sololá	701	Sololá	2	El tablón	1	Enero	2023-01-19T00:00:00	2024-11-06T04:00:00	3	Temperatura mínima	7.5
131932	7	Sololá	701	Sololá	2	El tablón	1	Enero	2023-01-19T00:00:00	2024-11-06T04:00:00	5	Humedad	59
131933	7	Sololá	701	Sololá	2	El tablón	1	Enero	2023-01-19T00:00:00	2024-11-06T04:00:00	6	Velocidad del viento	4.8
131934	7	Sololá	701	Sololá	2	El tablón	1	Enero	2023-01-19T00:00:00	2024-11-06T04:00:00	7	Dirección del viento	4.83
131935	7	Sololá	701	Sololá	2	El tablón	1	Enero	2023-01-19T00:00:00	2024-11-06T04:00:00	1	Precipitación	0
131936	7	Sololá	701	Sololá	2	El tablón	1	Enero	2023-01-19T00:00:00	2024-11-06T04:00:00	8	Radiación solar	0
131937	7	Sololá	701	Sololá	2	El tablón	1	Enero	2023-01-19T00:00:00	2024-11-06T05:00:00	2	Temperatura media	7.3
131938	7	Sololá	701	Sololá	2	El tablón	1	Enero	2023-01-19T00:00:00	2024-11-06T05:00:00	4	Temperatura máxima	7.9
131939	7	Sololá	701	Sololá	2	El tablón	1	Enero	2023-01-19T00:00:00	2024-11-06T05:00:00	3	Temperatura mínima	7.3
131940	7	Sololá	701	Sololá	2	El tablón	1	Enero	2023-01-19T00:00:00	2024-11-06T05:00:00	5	Humedad	49
131941	7	Sololá	701	Sololá	2	El tablón	1	Enero	2023-01-19T00:00:00	2024-11-06T05:00:00	6	Velocidad del viento	6.4
131942	7	Sololá	701	Sololá	2	El tablón	1	Enero	2023-01-19T00:00:00	2024-11-06T05:00:00	7	Dirección del viento	6.44
131943	7	Sololá	701	Sololá	2	El tablón	1	Enero	2023-01-19T00:00:00	2024-11-06T05:00:00	1	Precipitación	0
131944	7	Sololá	701	Sololá	2	El tablón	1	Enero	2023-01-19T00:00:00	2024-11-06T05:00:00	8	Radiación solar	0
131945	7	Sololá	701	Sololá	2	El tablón	1	Enero	2023-01-19T00:00:00	2024-11-06T06:00:00	2	Temperatura media	7.9
131946	7	Sololá	701	Sololá	2	El tablón	1	Enero	2023-01-19T00:00:00	2024-11-06T06:00:00	4	Temperatura máxima	8.5
131947	7	Sololá	701	Sololá	2	El tablón	1	Enero	2023-01-19T00:00:00	2024-11-06T06:00:00	3	Temperatura mínima	7.3
131948	7	Sololá	701	Sololá	2	El tablón	1	Enero	2023-01-19T00:00:00	2024-11-06T06:00:00	5	Humedad	38
131949	7	Sololá	701	Sololá	2	El tablón	1	Enero	2023-01-19T00:00:00	2024-11-06T06:00:00	6	Velocidad del viento	4.8
131950	7	Sololá	701	Sololá	2	El tablón	1	Enero	2023-01-19T00:00:00	2024-11-06T06:00:00	7	Dirección del viento	4.83
131951	7	Sololá	701	Sololá	2	El tablón	1	Enero	2023-01-19T00:00:00	2024-11-06T06:00:00	1	Precipitación	0
131952	7	Sololá	701	Sololá	2	El tablón	1	Enero	2023-01-19T00:00:00	2024-11-06T06:00:00	8	Radiación solar	0
131953	7	Sololá	701	Sololá	2	El tablón	1	Enero	2023-01-19T00:00:00	2024-11-06T07:00:00	2	Temperatura media	7.7
131954	7	Sololá	701	Sololá	2	El tablón	1	Enero	2023-01-19T00:00:00	2024-11-06T07:00:00	4	Temperatura máxima	8.2
131955	7	Sololá	701	Sololá	2	El tablón	1	Enero	2023-01-19T00:00:00	2024-11-06T07:00:00	3	Temperatura mínima	7.3
131956	7	Sololá	701	Sololá	2	El tablón	1	Enero	2023-01-19T00:00:00	2024-11-06T07:00:00	5	Humedad	36
131957	7	Sololá	701	Sololá	2	El tablón	1	Enero	2023-01-19T00:00:00	2024-11-06T07:00:00	6	Velocidad del viento	3.2
131958	7	Sololá	701	Sololá	2	El tablón	1	Enero	2023-01-19T00:00:00	2024-11-06T07:00:00	7	Dirección del viento	3.22
131959	7	Sololá	701	Sololá	2	El tablón	1	Enero	2023-01-19T00:00:00	2024-11-06T07:00:00	1	Precipitación	0
131960	7	Sololá	701	Sololá	2	El tablón	1	Enero	2023-01-19T00:00:00	2024-11-06T07:00:00	8	Radiación solar	5
131961	7	Sololá	701	Sololá	2	El tablón	1	Enero	2023-01-19T00:00:00	2024-11-06T08:00:00	2	Temperatura media	12.3
131962	7	Sololá	701	Sololá	2	El tablón	1	Enero	2023-01-19T00:00:00	2024-11-06T08:00:00	4	Temperatura máxima	12.3
131963	7	Sololá	701	Sololá	2	El tablón	1	Enero	2023-01-19T00:00:00	2024-11-06T08:00:00	3	Temperatura mínima	7.7
131964	7	Sololá	701	Sololá	2	El tablón	1	Enero	2023-01-19T00:00:00	2024-11-06T08:00:00	5	Humedad	35
131965	7	Sololá	701	Sololá	2	El tablón	1	Enero	2023-01-19T00:00:00	2024-11-06T08:00:00	6	Velocidad del viento	3.2
131966	7	Sololá	701	Sololá	2	El tablón	1	Enero	2023-01-19T00:00:00	2024-11-06T08:00:00	7	Dirección del viento	3.22
131967	7	Sololá	701	Sololá	2	El tablón	1	Enero	2023-01-19T00:00:00	2024-11-06T08:00:00	1	Precipitación	0
131968	7	Sololá	701	Sololá	2	El tablón	1	Enero	2023-01-19T00:00:00	2024-11-06T08:00:00	8	Radiación solar	121
131969	7	Sololá	701	Sololá	2	El tablón	1	Enero	2023-01-19T00:00:00	2024-11-06T09:00:00	2	Temperatura media	14.7
131970	7	Sololá	701	Sololá	2	El tablón	1	Enero	2023-01-19T00:00:00	2024-11-06T09:00:00	4	Temperatura máxima	14.7
131971	7	Sololá	701	Sololá	2	El tablón	1	Enero	2023-01-19T00:00:00	2024-11-06T09:00:00	3	Temperatura mínima	12.3
131972	7	Sololá	701	Sololá	2	El tablón	1	Enero	2023-01-19T00:00:00	2024-11-06T09:00:00	5	Humedad	34
131973	7	Sololá	701	Sololá	2	El tablón	1	Enero	2023-01-19T00:00:00	2024-11-06T09:00:00	6	Velocidad del viento	1.6
131974	7	Sololá	701	Sololá	2	El tablón	1	Enero	2023-01-19T00:00:00	2024-11-06T09:00:00	7	Dirección del viento	1.61
131975	7	Sololá	701	Sololá	2	El tablón	1	Enero	2023-01-19T00:00:00	2024-11-06T09:00:00	1	Precipitación	0
131976	7	Sololá	701	Sololá	2	El tablón	1	Enero	2023-01-19T00:00:00	2024-11-06T09:00:00	8	Radiación solar	344
131977	7	Sololá	701	Sololá	2	El tablón	1	Enero	2023-01-19T00:00:00	2024-11-06T10:00:00	2	Temperatura media	15.7
131978	7	Sololá	701	Sololá	2	El tablón	1	Enero	2023-01-19T00:00:00	2024-11-06T10:00:00	4	Temperatura máxima	15.7
131979	7	Sololá	701	Sololá	2	El tablón	1	Enero	2023-01-19T00:00:00	2024-11-06T10:00:00	3	Temperatura mínima	14.7
131980	7	Sololá	701	Sololá	2	El tablón	1	Enero	2023-01-19T00:00:00	2024-11-06T10:00:00	5	Humedad	37
131981	7	Sololá	701	Sololá	2	El tablón	1	Enero	2023-01-19T00:00:00	2024-11-06T10:00:00	6	Velocidad del viento	4.8
131982	7	Sololá	701	Sololá	2	El tablón	1	Enero	2023-01-19T00:00:00	2024-11-06T10:00:00	7	Dirección del viento	4.83
131983	7	Sololá	701	Sololá	2	El tablón	1	Enero	2023-01-19T00:00:00	2024-11-06T10:00:00	1	Precipitación	0
131984	7	Sololá	701	Sololá	2	El tablón	1	Enero	2023-01-19T00:00:00	2024-11-06T10:00:00	8	Radiación solar	539
131985	7	Sololá	701	Sololá	2	El tablón	1	Enero	2023-01-19T00:00:00	2024-11-06T11:00:00	2	Temperatura media	16
131986	7	Sololá	701	Sololá	2	El tablón	1	Enero	2023-01-19T00:00:00	2024-11-06T11:00:00	4	Temperatura máxima	16
131987	7	Sololá	701	Sololá	2	El tablón	1	Enero	2023-01-19T00:00:00	2024-11-06T11:00:00	3	Temperatura mínima	15.5
131988	7	Sololá	701	Sololá	2	El tablón	1	Enero	2023-01-19T00:00:00	2024-11-06T11:00:00	5	Humedad	45
131989	7	Sololá	701	Sololá	2	El tablón	1	Enero	2023-01-19T00:00:00	2024-11-06T11:00:00	6	Velocidad del viento	6.4
131990	7	Sololá	701	Sololá	2	El tablón	1	Enero	2023-01-19T00:00:00	2024-11-06T11:00:00	7	Dirección del viento	6.44
131991	7	Sololá	701	Sololá	2	El tablón	1	Enero	2023-01-19T00:00:00	2024-11-06T11:00:00	1	Precipitación	0
131992	7	Sololá	701	Sololá	2	El tablón	1	Enero	2023-01-19T00:00:00	2024-11-06T11:00:00	8	Radiación solar	686
131993	7	Sololá	701	Sololá	2	El tablón	1	Enero	2023-01-19T00:00:00	2024-11-06T12:00:00	2	Temperatura media	15.9
131994	7	Sololá	701	Sololá	2	El tablón	1	Enero	2023-01-19T00:00:00	2024-11-06T12:00:00	4	Temperatura máxima	16.1
131995	7	Sololá	701	Sololá	2	El tablón	1	Enero	2023-01-19T00:00:00	2024-11-06T12:00:00	3	Temperatura mínima	15.4
131996	7	Sololá	701	Sololá	2	El tablón	1	Enero	2023-01-19T00:00:00	2024-11-06T12:00:00	5	Humedad	53
131997	7	Sololá	701	Sololá	2	El tablón	1	Enero	2023-01-19T00:00:00	2024-11-06T12:00:00	6	Velocidad del viento	9.7
131998	7	Sololá	701	Sololá	2	El tablón	1	Enero	2023-01-19T00:00:00	2024-11-06T12:00:00	7	Dirección del viento	9.66
131999	7	Sololá	701	Sololá	2	El tablón	1	Enero	2023-01-19T00:00:00	2024-11-06T12:00:00	1	Precipitación	0
132000	7	Sololá	701	Sololá	2	El tablón	1	Enero	2023-01-19T00:00:00	2024-11-06T12:00:00	8	Radiación solar	672
132001	7	Sololá	701	Sololá	2	El tablón	1	Enero	2023-01-19T00:00:00	2024-11-06T13:00:00	2	Temperatura media	16.2
132002	7	Sololá	701	Sololá	2	El tablón	1	Enero	2023-01-19T00:00:00	2024-11-06T13:00:00	4	Temperatura máxima	16.6
132003	7	Sololá	701	Sololá	2	El tablón	1	Enero	2023-01-19T00:00:00	2024-11-06T13:00:00	3	Temperatura mínima	15.9
132004	7	Sololá	701	Sololá	2	El tablón	1	Enero	2023-01-19T00:00:00	2024-11-06T13:00:00	5	Humedad	56
132005	7	Sololá	701	Sololá	2	El tablón	1	Enero	2023-01-19T00:00:00	2024-11-06T13:00:00	6	Velocidad del viento	9.7
132006	7	Sololá	701	Sololá	2	El tablón	1	Enero	2023-01-19T00:00:00	2024-11-06T13:00:00	7	Dirección del viento	9.66
132007	7	Sololá	701	Sololá	2	El tablón	1	Enero	2023-01-19T00:00:00	2024-11-06T13:00:00	1	Precipitación	0
132008	7	Sololá	701	Sololá	2	El tablón	1	Enero	2023-01-19T00:00:00	2024-11-06T13:00:00	8	Radiación solar	790
132009	7	Sololá	701	Sololá	2	El tablón	1	Enero	2023-01-19T00:00:00	2024-11-06T14:00:00	2	Temperatura media	15.7
132010	7	Sololá	701	Sololá	2	El tablón	1	Enero	2023-01-19T00:00:00	2024-11-06T14:00:00	4	Temperatura máxima	16.3
132011	7	Sololá	701	Sololá	2	El tablón	1	Enero	2023-01-19T00:00:00	2024-11-06T14:00:00	3	Temperatura mínima	15.5
132012	7	Sololá	701	Sololá	2	El tablón	1	Enero	2023-01-19T00:00:00	2024-11-06T14:00:00	5	Humedad	71
132013	7	Sololá	701	Sololá	2	El tablón	1	Enero	2023-01-19T00:00:00	2024-11-06T14:00:00	6	Velocidad del viento	9.7
132014	7	Sololá	701	Sololá	2	El tablón	1	Enero	2023-01-19T00:00:00	2024-11-06T14:00:00	7	Dirección del viento	9.66
132015	7	Sololá	701	Sololá	2	El tablón	1	Enero	2023-01-19T00:00:00	2024-11-06T14:00:00	1	Precipitación	0
132016	7	Sololá	701	Sololá	2	El tablón	1	Enero	2023-01-19T00:00:00	2024-11-06T14:00:00	8	Radiación solar	746
132017	7	Sololá	701	Sololá	2	El tablón	1	Enero	2023-01-19T00:00:00	2024-11-06T15:00:00	2	Temperatura media	15.1
132018	7	Sololá	701	Sololá	2	El tablón	1	Enero	2023-01-19T00:00:00	2024-11-06T15:00:00	4	Temperatura máxima	15.7
132019	7	Sololá	701	Sololá	2	El tablón	1	Enero	2023-01-19T00:00:00	2024-11-06T15:00:00	3	Temperatura mínima	14.8
132020	7	Sololá	701	Sololá	2	El tablón	1	Enero	2023-01-19T00:00:00	2024-11-06T15:00:00	5	Humedad	79
132021	7	Sololá	701	Sololá	2	El tablón	1	Enero	2023-01-19T00:00:00	2024-11-06T15:00:00	6	Velocidad del viento	9.7
132022	7	Sololá	701	Sololá	2	El tablón	1	Enero	2023-01-19T00:00:00	2024-11-06T15:00:00	7	Dirección del viento	9.66
132023	7	Sololá	701	Sololá	2	El tablón	1	Enero	2023-01-19T00:00:00	2024-11-06T15:00:00	1	Precipitación	0
132024	7	Sololá	701	Sololá	2	El tablón	1	Enero	2023-01-19T00:00:00	2024-11-06T15:00:00	8	Radiación solar	629
132025	7	Sololá	701	Sololá	2	El tablón	1	Enero	2023-01-19T00:00:00	2024-11-06T16:00:00	2	Temperatura media	14.8
132026	7	Sololá	701	Sololá	2	El tablón	1	Enero	2023-01-19T00:00:00	2024-11-06T16:00:00	4	Temperatura máxima	15.7
132027	7	Sololá	701	Sololá	2	El tablón	1	Enero	2023-01-19T00:00:00	2024-11-06T16:00:00	3	Temperatura mínima	14.4
132028	7	Sololá	701	Sololá	2	El tablón	1	Enero	2023-01-19T00:00:00	2024-11-06T16:00:00	5	Humedad	82
132029	7	Sololá	701	Sololá	2	El tablón	1	Enero	2023-01-19T00:00:00	2024-11-06T16:00:00	6	Velocidad del viento	6.4
132030	7	Sololá	701	Sololá	2	El tablón	1	Enero	2023-01-19T00:00:00	2024-11-06T16:00:00	7	Dirección del viento	6.44
132031	7	Sololá	701	Sololá	2	El tablón	1	Enero	2023-01-19T00:00:00	2024-11-06T16:00:00	1	Precipitación	0
132032	7	Sololá	701	Sololá	2	El tablón	1	Enero	2023-01-19T00:00:00	2024-11-06T16:00:00	8	Radiación solar	481
132033	7	Sololá	701	Sololá	2	El tablón	1	Enero	2023-01-19T00:00:00	2024-11-06T17:00:00	2	Temperatura media	12.6
132034	7	Sololá	701	Sololá	2	El tablón	1	Enero	2023-01-19T00:00:00	2024-11-06T17:00:00	4	Temperatura máxima	14.8
132035	7	Sololá	701	Sololá	2	El tablón	1	Enero	2023-01-19T00:00:00	2024-11-06T17:00:00	3	Temperatura mínima	12.6
132036	7	Sololá	701	Sololá	2	El tablón	1	Enero	2023-01-19T00:00:00	2024-11-06T17:00:00	5	Humedad	88
132037	7	Sololá	701	Sololá	2	El tablón	1	Enero	2023-01-19T00:00:00	2024-11-06T17:00:00	6	Velocidad del viento	6.4
132038	7	Sololá	701	Sololá	2	El tablón	1	Enero	2023-01-19T00:00:00	2024-11-06T17:00:00	7	Dirección del viento	6.44
132039	7	Sololá	701	Sololá	2	El tablón	1	Enero	2023-01-19T00:00:00	2024-11-06T17:00:00	1	Precipitación	0
132040	7	Sololá	701	Sololá	2	El tablón	1	Enero	2023-01-19T00:00:00	2024-11-06T17:00:00	8	Radiación solar	209
132041	7	Sololá	701	Sololá	2	El tablón	1	Enero	2023-01-19T00:00:00	2024-11-06T18:00:00	2	Temperatura media	11.8
132042	7	Sololá	701	Sololá	2	El tablón	1	Enero	2023-01-19T00:00:00	2024-11-06T18:00:00	4	Temperatura máxima	12.8
132043	7	Sololá	701	Sololá	2	El tablón	1	Enero	2023-01-19T00:00:00	2024-11-06T18:00:00	3	Temperatura mínima	11.8
132044	7	Sololá	701	Sololá	2	El tablón	1	Enero	2023-01-19T00:00:00	2024-11-06T18:00:00	5	Humedad	90
132045	7	Sololá	701	Sololá	2	El tablón	1	Enero	2023-01-19T00:00:00	2024-11-06T18:00:00	6	Velocidad del viento	3.2
132046	7	Sololá	701	Sololá	2	El tablón	1	Enero	2023-01-19T00:00:00	2024-11-06T18:00:00	7	Dirección del viento	3.22
132047	7	Sololá	701	Sololá	2	El tablón	1	Enero	2023-01-19T00:00:00	2024-11-06T18:00:00	1	Precipitación	0
132048	7	Sololá	701	Sololá	2	El tablón	1	Enero	2023-01-19T00:00:00	2024-11-06T18:00:00	8	Radiación solar	54
132049	7	Sololá	701	Sololá	2	El tablón	1	Enero	2023-01-19T00:00:00	2024-11-06T19:00:00	2	Temperatura media	10.2
132050	7	Sololá	701	Sololá	2	El tablón	1	Enero	2023-01-19T00:00:00	2024-11-06T19:00:00	4	Temperatura máxima	11.8
132051	7	Sololá	701	Sololá	2	El tablón	1	Enero	2023-01-19T00:00:00	2024-11-06T19:00:00	3	Temperatura mínima	9.7
132052	7	Sololá	701	Sololá	2	El tablón	1	Enero	2023-01-19T00:00:00	2024-11-06T19:00:00	5	Humedad	80
132053	7	Sololá	701	Sololá	2	El tablón	1	Enero	2023-01-19T00:00:00	2024-11-06T19:00:00	6	Velocidad del viento	3.2
132054	7	Sololá	701	Sololá	2	El tablón	1	Enero	2023-01-19T00:00:00	2024-11-06T19:00:00	7	Dirección del viento	3.22
132055	7	Sololá	701	Sololá	2	El tablón	1	Enero	2023-01-19T00:00:00	2024-11-06T19:00:00	1	Precipitación	0
132056	7	Sololá	701	Sololá	2	El tablón	1	Enero	2023-01-19T00:00:00	2024-11-06T19:00:00	8	Radiación solar	0
132057	7	Sololá	701	Sololá	2	El tablón	1	Enero	2023-01-19T00:00:00	2024-11-06T20:00:00	2	Temperatura media	12.7
132058	7	Sololá	701	Sololá	2	El tablón	1	Enero	2023-01-19T00:00:00	2024-11-06T20:00:00	4	Temperatura máxima	12.8
132059	7	Sololá	701	Sololá	2	El tablón	1	Enero	2023-01-19T00:00:00	2024-11-06T20:00:00	3	Temperatura mínima	10.2
132060	7	Sololá	701	Sololá	2	El tablón	1	Enero	2023-01-19T00:00:00	2024-11-06T20:00:00	5	Humedad	58
132061	7	Sololá	701	Sololá	2	El tablón	1	Enero	2023-01-19T00:00:00	2024-11-06T20:00:00	6	Velocidad del viento	8
132062	7	Sololá	701	Sololá	2	El tablón	1	Enero	2023-01-19T00:00:00	2024-11-06T20:00:00	7	Dirección del viento	8.05
132063	7	Sololá	701	Sololá	2	El tablón	1	Enero	2023-01-19T00:00:00	2024-11-06T20:00:00	1	Precipitación	0
132064	7	Sololá	701	Sololá	2	El tablón	1	Enero	2023-01-19T00:00:00	2024-11-06T20:00:00	8	Radiación solar	0
132065	7	Sololá	701	Sololá	2	El tablón	1	Enero	2023-01-19T00:00:00	2024-11-06T21:00:00	2	Temperatura media	12
132066	7	Sololá	701	Sololá	2	El tablón	1	Enero	2023-01-19T00:00:00	2024-11-06T21:00:00	4	Temperatura máxima	12.7
132067	7	Sololá	701	Sololá	2	El tablón	1	Enero	2023-01-19T00:00:00	2024-11-06T21:00:00	3	Temperatura mínima	12
132068	7	Sololá	701	Sololá	2	El tablón	1	Enero	2023-01-19T00:00:00	2024-11-06T21:00:00	5	Humedad	73
132069	7	Sololá	701	Sololá	2	El tablón	1	Enero	2023-01-19T00:00:00	2024-11-06T21:00:00	6	Velocidad del viento	9.7
132070	7	Sololá	701	Sololá	2	El tablón	1	Enero	2023-01-19T00:00:00	2024-11-06T21:00:00	7	Dirección del viento	9.66
132071	7	Sololá	701	Sololá	2	El tablón	1	Enero	2023-01-19T00:00:00	2024-11-06T21:00:00	1	Precipitación	0
132072	7	Sololá	701	Sololá	2	El tablón	1	Enero	2023-01-19T00:00:00	2024-11-06T21:00:00	8	Radiación solar	0
132073	7	Sololá	701	Sololá	2	El tablón	1	Enero	2023-01-19T00:00:00	2024-11-06T22:00:00	2	Temperatura media	11.6
132074	7	Sololá	701	Sololá	2	El tablón	1	Enero	2023-01-19T00:00:00	2024-11-06T22:00:00	4	Temperatura máxima	12.1
132075	7	Sololá	701	Sololá	2	El tablón	1	Enero	2023-01-19T00:00:00	2024-11-06T22:00:00	3	Temperatura mínima	11.6
132076	7	Sololá	701	Sololá	2	El tablón	1	Enero	2023-01-19T00:00:00	2024-11-06T22:00:00	5	Humedad	73
132077	7	Sololá	701	Sololá	2	El tablón	1	Enero	2023-01-19T00:00:00	2024-11-06T22:00:00	6	Velocidad del viento	9.7
132078	7	Sololá	701	Sololá	2	El tablón	1	Enero	2023-01-19T00:00:00	2024-11-06T22:00:00	7	Dirección del viento	9.66
132079	7	Sololá	701	Sololá	2	El tablón	1	Enero	2023-01-19T00:00:00	2024-11-06T22:00:00	1	Precipitación	0
132080	7	Sololá	701	Sololá	2	El tablón	1	Enero	2023-01-19T00:00:00	2024-11-06T22:00:00	8	Radiación solar	0
132081	7	Sololá	701	Sololá	2	El tablón	1	Enero	2023-01-19T00:00:00	2024-11-06T23:00:00	2	Temperatura media	11.1
132082	7	Sololá	701	Sololá	2	El tablón	1	Enero	2023-01-19T00:00:00	2024-11-06T23:00:00	4	Temperatura máxima	11.6
132083	7	Sololá	701	Sololá	2	El tablón	1	Enero	2023-01-19T00:00:00	2024-11-06T23:00:00	3	Temperatura mínima	11.1
132084	7	Sololá	701	Sololá	2	El tablón	1	Enero	2023-01-19T00:00:00	2024-11-06T23:00:00	5	Humedad	76
132085	7	Sololá	701	Sololá	2	El tablón	1	Enero	2023-01-19T00:00:00	2024-11-06T23:00:00	6	Velocidad del viento	8
132086	7	Sololá	701	Sololá	2	El tablón	1	Enero	2023-01-19T00:00:00	2024-11-06T23:00:00	7	Dirección del viento	8.05
132087	7	Sololá	701	Sololá	2	El tablón	1	Enero	2023-01-19T00:00:00	2024-11-06T23:00:00	1	Precipitación	0
132088	7	Sololá	701	Sololá	2	El tablón	1	Enero	2023-01-19T00:00:00	2024-11-06T23:00:00	8	Radiación solar	0
132089	7	Sololá	701	Sololá	2	El tablón	1	Enero	2023-01-20T00:00:00	2024-11-06T00:00:00	2	Temperatura media	10.4
132090	7	Sololá	701	Sololá	2	El tablón	1	Enero	2023-01-20T00:00:00	2024-11-06T00:00:00	4	Temperatura máxima	11
132091	7	Sololá	701	Sololá	2	El tablón	1	Enero	2023-01-20T00:00:00	2024-11-06T00:00:00	3	Temperatura mínima	10.4
132092	7	Sololá	701	Sololá	2	El tablón	1	Enero	2023-01-20T00:00:00	2024-11-06T00:00:00	5	Humedad	84
132093	7	Sololá	701	Sololá	2	El tablón	1	Enero	2023-01-20T00:00:00	2024-11-06T00:00:00	6	Velocidad del viento	8
132094	7	Sololá	701	Sololá	2	El tablón	1	Enero	2023-01-20T00:00:00	2024-11-06T00:00:00	7	Dirección del viento	8.05
132095	7	Sololá	701	Sololá	2	El tablón	1	Enero	2023-01-20T00:00:00	2024-11-06T00:00:00	1	Precipitación	0
132096	7	Sololá	701	Sololá	2	El tablón	1	Enero	2023-01-20T00:00:00	2024-11-06T00:00:00	8	Radiación solar	0
132097	7	Sololá	701	Sololá	2	El tablón	1	Enero	2023-01-20T00:00:00	2024-11-06T01:00:00	2	Temperatura media	9.8
132098	7	Sololá	701	Sololá	2	El tablón	1	Enero	2023-01-20T00:00:00	2024-11-06T01:00:00	4	Temperatura máxima	10.4
132099	7	Sololá	701	Sololá	2	El tablón	1	Enero	2023-01-20T00:00:00	2024-11-06T01:00:00	3	Temperatura mínima	9.8
132100	7	Sololá	701	Sololá	2	El tablón	1	Enero	2023-01-20T00:00:00	2024-11-06T01:00:00	5	Humedad	83
132101	7	Sololá	701	Sololá	2	El tablón	1	Enero	2023-01-20T00:00:00	2024-11-06T01:00:00	6	Velocidad del viento	4.8
132102	7	Sololá	701	Sololá	2	El tablón	1	Enero	2023-01-20T00:00:00	2024-11-06T01:00:00	7	Dirección del viento	4.83
132103	7	Sololá	701	Sololá	2	El tablón	1	Enero	2023-01-20T00:00:00	2024-11-06T01:00:00	1	Precipitación	0
132104	7	Sololá	701	Sololá	2	El tablón	1	Enero	2023-01-20T00:00:00	2024-11-06T01:00:00	8	Radiación solar	0
132105	7	Sololá	701	Sololá	2	El tablón	1	Enero	2023-01-20T00:00:00	2024-11-06T02:00:00	2	Temperatura media	10.2
132106	7	Sololá	701	Sololá	2	El tablón	1	Enero	2023-01-20T00:00:00	2024-11-06T02:00:00	4	Temperatura máxima	10.2
132107	7	Sololá	701	Sololá	2	El tablón	1	Enero	2023-01-20T00:00:00	2024-11-06T02:00:00	3	Temperatura mínima	9.2
132108	7	Sololá	701	Sololá	2	El tablón	1	Enero	2023-01-20T00:00:00	2024-11-06T02:00:00	5	Humedad	80
132109	7	Sololá	701	Sololá	2	El tablón	1	Enero	2023-01-20T00:00:00	2024-11-06T02:00:00	6	Velocidad del viento	4.8
132110	7	Sololá	701	Sololá	2	El tablón	1	Enero	2023-01-20T00:00:00	2024-11-06T02:00:00	7	Dirección del viento	4.83
132111	7	Sololá	701	Sololá	2	El tablón	1	Enero	2023-01-20T00:00:00	2024-11-06T02:00:00	1	Precipitación	0
132112	7	Sololá	701	Sololá	2	El tablón	1	Enero	2023-01-20T00:00:00	2024-11-06T02:00:00	8	Radiación solar	0
132113	7	Sololá	701	Sololá	2	El tablón	1	Enero	2023-01-20T00:00:00	2024-11-06T03:00:00	2	Temperatura media	8.1
132114	7	Sololá	701	Sololá	2	El tablón	1	Enero	2023-01-20T00:00:00	2024-11-06T03:00:00	4	Temperatura máxima	10.2
132115	7	Sololá	701	Sololá	2	El tablón	1	Enero	2023-01-20T00:00:00	2024-11-06T03:00:00	3	Temperatura mínima	8.1
132116	7	Sololá	701	Sololá	2	El tablón	1	Enero	2023-01-20T00:00:00	2024-11-06T03:00:00	5	Humedad	81
132117	7	Sololá	701	Sololá	2	El tablón	1	Enero	2023-01-20T00:00:00	2024-11-06T03:00:00	6	Velocidad del viento	4.8
132118	7	Sololá	701	Sololá	2	El tablón	1	Enero	2023-01-20T00:00:00	2024-11-06T03:00:00	7	Dirección del viento	4.83
132119	7	Sololá	701	Sololá	2	El tablón	1	Enero	2023-01-20T00:00:00	2024-11-06T03:00:00	1	Precipitación	0
132120	7	Sololá	701	Sololá	2	El tablón	1	Enero	2023-01-20T00:00:00	2024-11-06T03:00:00	8	Radiación solar	0
132121	7	Sololá	701	Sololá	2	El tablón	1	Enero	2023-01-20T00:00:00	2024-11-06T04:00:00	2	Temperatura media	8.6
132122	7	Sololá	701	Sololá	2	El tablón	1	Enero	2023-01-20T00:00:00	2024-11-06T04:00:00	4	Temperatura máxima	8.6
132123	7	Sololá	701	Sololá	2	El tablón	1	Enero	2023-01-20T00:00:00	2024-11-06T04:00:00	3	Temperatura mínima	8.1
132124	7	Sololá	701	Sololá	2	El tablón	1	Enero	2023-01-20T00:00:00	2024-11-06T04:00:00	5	Humedad	73
132125	7	Sololá	701	Sololá	2	El tablón	1	Enero	2023-01-20T00:00:00	2024-11-06T04:00:00	6	Velocidad del viento	4.8
132126	7	Sololá	701	Sololá	2	El tablón	1	Enero	2023-01-20T00:00:00	2024-11-06T04:00:00	7	Dirección del viento	4.83
132127	7	Sololá	701	Sololá	2	El tablón	1	Enero	2023-01-20T00:00:00	2024-11-06T04:00:00	1	Precipitación	0
132128	7	Sololá	701	Sololá	2	El tablón	1	Enero	2023-01-20T00:00:00	2024-11-06T04:00:00	8	Radiación solar	0
132129	7	Sololá	701	Sololá	2	El tablón	1	Enero	2023-01-20T00:00:00	2024-11-06T05:00:00	2	Temperatura media	9.7
132130	7	Sololá	701	Sololá	2	El tablón	1	Enero	2023-01-20T00:00:00	2024-11-06T05:00:00	4	Temperatura máxima	9.7
132131	7	Sololá	701	Sololá	2	El tablón	1	Enero	2023-01-20T00:00:00	2024-11-06T05:00:00	3	Temperatura mínima	7.8
132132	7	Sololá	701	Sololá	2	El tablón	1	Enero	2023-01-20T00:00:00	2024-11-06T05:00:00	5	Humedad	68
132133	7	Sololá	701	Sololá	2	El tablón	1	Enero	2023-01-20T00:00:00	2024-11-06T05:00:00	6	Velocidad del viento	4.8
132134	7	Sololá	701	Sololá	2	El tablón	1	Enero	2023-01-20T00:00:00	2024-11-06T05:00:00	7	Dirección del viento	4.83
132135	7	Sololá	701	Sololá	2	El tablón	1	Enero	2023-01-20T00:00:00	2024-11-06T05:00:00	1	Precipitación	0
132136	7	Sololá	701	Sololá	2	El tablón	1	Enero	2023-01-20T00:00:00	2024-11-06T05:00:00	8	Radiación solar	0
132137	7	Sololá	701	Sololá	2	El tablón	1	Enero	2023-01-20T00:00:00	2024-11-06T06:00:00	2	Temperatura media	10.9
132138	7	Sololá	701	Sololá	2	El tablón	1	Enero	2023-01-20T00:00:00	2024-11-06T06:00:00	4	Temperatura máxima	11.1
132139	7	Sololá	701	Sololá	2	El tablón	1	Enero	2023-01-20T00:00:00	2024-11-06T06:00:00	3	Temperatura mínima	9.7
132140	7	Sololá	701	Sololá	2	El tablón	1	Enero	2023-01-20T00:00:00	2024-11-06T06:00:00	5	Humedad	65
132141	7	Sololá	701	Sololá	2	El tablón	1	Enero	2023-01-20T00:00:00	2024-11-06T06:00:00	6	Velocidad del viento	4.8
132142	7	Sololá	701	Sololá	2	El tablón	1	Enero	2023-01-20T00:00:00	2024-11-06T06:00:00	7	Dirección del viento	4.83
132143	7	Sololá	701	Sololá	2	El tablón	1	Enero	2023-01-20T00:00:00	2024-11-06T06:00:00	1	Precipitación	0
132144	7	Sololá	701	Sololá	2	El tablón	1	Enero	2023-01-20T00:00:00	2024-11-06T06:00:00	8	Radiación solar	0
132145	7	Sololá	701	Sololá	2	El tablón	1	Enero	2023-01-20T00:00:00	2024-11-06T07:00:00	2	Temperatura media	11.7
132146	7	Sololá	701	Sololá	2	El tablón	1	Enero	2023-01-20T00:00:00	2024-11-06T07:00:00	4	Temperatura máxima	11.7
132147	7	Sololá	701	Sololá	2	El tablón	1	Enero	2023-01-20T00:00:00	2024-11-06T07:00:00	3	Temperatura mínima	10.9
132148	7	Sololá	701	Sololá	2	El tablón	1	Enero	2023-01-20T00:00:00	2024-11-06T07:00:00	5	Humedad	66
132149	7	Sololá	701	Sololá	2	El tablón	1	Enero	2023-01-20T00:00:00	2024-11-06T07:00:00	6	Velocidad del viento	6.4
132150	7	Sololá	701	Sololá	2	El tablón	1	Enero	2023-01-20T00:00:00	2024-11-06T07:00:00	7	Dirección del viento	6.44
132151	7	Sololá	701	Sololá	2	El tablón	1	Enero	2023-01-20T00:00:00	2024-11-06T07:00:00	1	Precipitación	0
132152	7	Sololá	701	Sololá	2	El tablón	1	Enero	2023-01-20T00:00:00	2024-11-06T07:00:00	8	Radiación solar	4
132153	7	Sololá	701	Sololá	2	El tablón	1	Enero	2023-01-20T00:00:00	2024-11-06T08:00:00	2	Temperatura media	13.9
132154	7	Sololá	701	Sololá	2	El tablón	1	Enero	2023-01-20T00:00:00	2024-11-06T08:00:00	4	Temperatura máxima	13.9
132155	7	Sololá	701	Sololá	2	El tablón	1	Enero	2023-01-20T00:00:00	2024-11-06T08:00:00	3	Temperatura mínima	11.7
132156	7	Sololá	701	Sololá	2	El tablón	1	Enero	2023-01-20T00:00:00	2024-11-06T08:00:00	5	Humedad	67
132157	7	Sololá	701	Sololá	2	El tablón	1	Enero	2023-01-20T00:00:00	2024-11-06T08:00:00	6	Velocidad del viento	4.8
132158	7	Sololá	701	Sololá	2	El tablón	1	Enero	2023-01-20T00:00:00	2024-11-06T08:00:00	7	Dirección del viento	4.83
132159	7	Sololá	701	Sololá	2	El tablón	1	Enero	2023-01-20T00:00:00	2024-11-06T08:00:00	1	Precipitación	0
132160	7	Sololá	701	Sololá	2	El tablón	1	Enero	2023-01-20T00:00:00	2024-11-06T08:00:00	8	Radiación solar	114
132161	7	Sololá	701	Sololá	2	El tablón	1	Enero	2023-01-20T00:00:00	2024-11-06T09:00:00	2	Temperatura media	14.8
132162	7	Sololá	701	Sololá	2	El tablón	1	Enero	2023-01-20T00:00:00	2024-11-06T09:00:00	4	Temperatura máxima	14.8
132163	7	Sololá	701	Sololá	2	El tablón	1	Enero	2023-01-20T00:00:00	2024-11-06T09:00:00	3	Temperatura mínima	13.9
132164	7	Sololá	701	Sololá	2	El tablón	1	Enero	2023-01-20T00:00:00	2024-11-06T09:00:00	5	Humedad	63
132165	7	Sololá	701	Sololá	2	El tablón	1	Enero	2023-01-20T00:00:00	2024-11-06T09:00:00	6	Velocidad del viento	9.7
132166	7	Sololá	701	Sololá	2	El tablón	1	Enero	2023-01-20T00:00:00	2024-11-06T09:00:00	7	Dirección del viento	9.66
132167	7	Sololá	701	Sololá	2	El tablón	1	Enero	2023-01-20T00:00:00	2024-11-06T09:00:00	1	Precipitación	0
132168	7	Sololá	701	Sololá	2	El tablón	1	Enero	2023-01-20T00:00:00	2024-11-06T09:00:00	8	Radiación solar	334
132169	7	Sololá	701	Sololá	2	El tablón	1	Enero	2023-01-20T00:00:00	2024-11-06T10:00:00	2	Temperatura media	17
132170	7	Sololá	701	Sololá	2	El tablón	1	Enero	2023-01-20T00:00:00	2024-11-06T10:00:00	4	Temperatura máxima	17
132171	7	Sololá	701	Sololá	2	El tablón	1	Enero	2023-01-20T00:00:00	2024-11-06T10:00:00	3	Temperatura mínima	14.8
132172	7	Sololá	701	Sololá	2	El tablón	1	Enero	2023-01-20T00:00:00	2024-11-06T10:00:00	5	Humedad	58
132173	7	Sololá	701	Sololá	2	El tablón	1	Enero	2023-01-20T00:00:00	2024-11-06T10:00:00	6	Velocidad del viento	8
132174	7	Sololá	701	Sololá	2	El tablón	1	Enero	2023-01-20T00:00:00	2024-11-06T10:00:00	7	Dirección del viento	8.05
132175	7	Sololá	701	Sololá	2	El tablón	1	Enero	2023-01-20T00:00:00	2024-11-06T10:00:00	1	Precipitación	0
132176	7	Sololá	701	Sololá	2	El tablón	1	Enero	2023-01-20T00:00:00	2024-11-06T10:00:00	8	Radiación solar	523
132177	7	Sololá	701	Sololá	2	El tablón	1	Enero	2023-01-20T00:00:00	2024-11-06T11:00:00	2	Temperatura media	17.3
132178	7	Sololá	701	Sololá	2	El tablón	1	Enero	2023-01-20T00:00:00	2024-11-06T11:00:00	4	Temperatura máxima	17.3
132179	7	Sololá	701	Sololá	2	El tablón	1	Enero	2023-01-20T00:00:00	2024-11-06T11:00:00	3	Temperatura mínima	16.7
132180	7	Sololá	701	Sololá	2	El tablón	1	Enero	2023-01-20T00:00:00	2024-11-06T11:00:00	5	Humedad	52
132181	7	Sololá	701	Sololá	2	El tablón	1	Enero	2023-01-20T00:00:00	2024-11-06T11:00:00	6	Velocidad del viento	9.7
132182	7	Sololá	701	Sololá	2	El tablón	1	Enero	2023-01-20T00:00:00	2024-11-06T11:00:00	7	Dirección del viento	9.66
132183	7	Sololá	701	Sololá	2	El tablón	1	Enero	2023-01-20T00:00:00	2024-11-06T11:00:00	1	Precipitación	0
132184	7	Sololá	701	Sololá	2	El tablón	1	Enero	2023-01-20T00:00:00	2024-11-06T11:00:00	8	Radiación solar	669
132185	7	Sololá	701	Sololá	2	El tablón	1	Enero	2023-01-20T00:00:00	2024-11-06T12:00:00	2	Temperatura media	18.3
132186	7	Sololá	701	Sololá	2	El tablón	1	Enero	2023-01-20T00:00:00	2024-11-06T12:00:00	4	Temperatura máxima	18.4
132187	7	Sololá	701	Sololá	2	El tablón	1	Enero	2023-01-20T00:00:00	2024-11-06T12:00:00	3	Temperatura mínima	17.3
132188	7	Sololá	701	Sololá	2	El tablón	1	Enero	2023-01-20T00:00:00	2024-11-06T12:00:00	5	Humedad	47
132189	7	Sololá	701	Sololá	2	El tablón	1	Enero	2023-01-20T00:00:00	2024-11-06T12:00:00	6	Velocidad del viento	9.7
132190	7	Sololá	701	Sololá	2	El tablón	1	Enero	2023-01-20T00:00:00	2024-11-06T12:00:00	7	Dirección del viento	9.66
132191	7	Sololá	701	Sololá	2	El tablón	1	Enero	2023-01-20T00:00:00	2024-11-06T12:00:00	1	Precipitación	0
132192	7	Sololá	701	Sololá	2	El tablón	1	Enero	2023-01-20T00:00:00	2024-11-06T12:00:00	8	Radiación solar	660
132193	7	Sololá	701	Sololá	2	El tablón	1	Enero	2023-01-20T00:00:00	2024-11-06T13:00:00	2	Temperatura media	18.6
132194	7	Sololá	701	Sololá	2	El tablón	1	Enero	2023-01-20T00:00:00	2024-11-06T13:00:00	4	Temperatura máxima	18.7
132195	7	Sololá	701	Sololá	2	El tablón	1	Enero	2023-01-20T00:00:00	2024-11-06T13:00:00	3	Temperatura mínima	18.1
132196	7	Sololá	701	Sololá	2	El tablón	1	Enero	2023-01-20T00:00:00	2024-11-06T13:00:00	5	Humedad	44
132197	7	Sololá	701	Sololá	2	El tablón	1	Enero	2023-01-20T00:00:00	2024-11-06T13:00:00	6	Velocidad del viento	11.3
132198	7	Sololá	701	Sololá	2	El tablón	1	Enero	2023-01-20T00:00:00	2024-11-06T13:00:00	7	Dirección del viento	11.27
132199	7	Sololá	701	Sololá	2	El tablón	1	Enero	2023-01-20T00:00:00	2024-11-06T13:00:00	1	Precipitación	0
132200	7	Sololá	701	Sololá	2	El tablón	1	Enero	2023-01-20T00:00:00	2024-11-06T13:00:00	8	Radiación solar	779
132201	7	Sololá	701	Sololá	2	El tablón	1	Enero	2023-01-20T00:00:00	2024-11-06T14:00:00	2	Temperatura media	17.8
132202	7	Sololá	701	Sololá	2	El tablón	1	Enero	2023-01-20T00:00:00	2024-11-06T14:00:00	4	Temperatura máxima	19.1
132203	7	Sololá	701	Sololá	2	El tablón	1	Enero	2023-01-20T00:00:00	2024-11-06T14:00:00	3	Temperatura mínima	17.8
132204	7	Sololá	701	Sololá	2	El tablón	1	Enero	2023-01-20T00:00:00	2024-11-06T14:00:00	5	Humedad	69
132205	7	Sololá	701	Sololá	2	El tablón	1	Enero	2023-01-20T00:00:00	2024-11-06T14:00:00	6	Velocidad del viento	9.7
132206	7	Sololá	701	Sololá	2	El tablón	1	Enero	2023-01-20T00:00:00	2024-11-06T14:00:00	7	Dirección del viento	9.66
132207	7	Sololá	701	Sololá	2	El tablón	1	Enero	2023-01-20T00:00:00	2024-11-06T14:00:00	1	Precipitación	0
132208	7	Sololá	701	Sololá	2	El tablón	1	Enero	2023-01-20T00:00:00	2024-11-06T14:00:00	8	Radiación solar	742
132209	7	Sololá	701	Sololá	2	El tablón	1	Enero	2023-01-20T00:00:00	2024-11-06T15:00:00	2	Temperatura media	16.3
132210	7	Sololá	701	Sololá	2	El tablón	1	Enero	2023-01-20T00:00:00	2024-11-06T15:00:00	4	Temperatura máxima	17.8
132211	7	Sololá	701	Sololá	2	El tablón	1	Enero	2023-01-20T00:00:00	2024-11-06T15:00:00	3	Temperatura mínima	16.3
132212	7	Sololá	701	Sololá	2	El tablón	1	Enero	2023-01-20T00:00:00	2024-11-06T15:00:00	5	Humedad	78
132213	7	Sololá	701	Sololá	2	El tablón	1	Enero	2023-01-20T00:00:00	2024-11-06T15:00:00	6	Velocidad del viento	9.7
132214	7	Sololá	701	Sololá	2	El tablón	1	Enero	2023-01-20T00:00:00	2024-11-06T15:00:00	7	Dirección del viento	9.66
132215	7	Sololá	701	Sololá	2	El tablón	1	Enero	2023-01-20T00:00:00	2024-11-06T15:00:00	1	Precipitación	0
132216	7	Sololá	701	Sololá	2	El tablón	1	Enero	2023-01-20T00:00:00	2024-11-06T15:00:00	8	Radiación solar	651
132217	7	Sololá	701	Sololá	2	El tablón	1	Enero	2023-01-20T00:00:00	2024-11-06T16:00:00	2	Temperatura media	16.8
132218	7	Sololá	701	Sololá	2	El tablón	1	Enero	2023-01-20T00:00:00	2024-11-06T16:00:00	4	Temperatura máxima	17.2
132219	7	Sololá	701	Sololá	2	El tablón	1	Enero	2023-01-20T00:00:00	2024-11-06T16:00:00	3	Temperatura mínima	16.3
132220	7	Sololá	701	Sololá	2	El tablón	1	Enero	2023-01-20T00:00:00	2024-11-06T16:00:00	5	Humedad	78
132221	7	Sololá	701	Sololá	2	El tablón	1	Enero	2023-01-20T00:00:00	2024-11-06T16:00:00	6	Velocidad del viento	6.4
132222	7	Sololá	701	Sololá	2	El tablón	1	Enero	2023-01-20T00:00:00	2024-11-06T16:00:00	7	Dirección del viento	6.44
132223	7	Sololá	701	Sololá	2	El tablón	1	Enero	2023-01-20T00:00:00	2024-11-06T16:00:00	1	Precipitación	0
132224	7	Sololá	701	Sololá	2	El tablón	1	Enero	2023-01-20T00:00:00	2024-11-06T16:00:00	8	Radiación solar	468
132225	7	Sololá	701	Sololá	2	El tablón	1	Enero	2023-01-20T00:00:00	2024-11-06T17:00:00	2	Temperatura media	14.6
132226	7	Sololá	701	Sololá	2	El tablón	1	Enero	2023-01-20T00:00:00	2024-11-06T17:00:00	4	Temperatura máxima	17.1
132227	7	Sololá	701	Sololá	2	El tablón	1	Enero	2023-01-20T00:00:00	2024-11-06T17:00:00	3	Temperatura mínima	14.3
132228	7	Sololá	701	Sololá	2	El tablón	1	Enero	2023-01-20T00:00:00	2024-11-06T17:00:00	5	Humedad	87
132229	7	Sololá	701	Sololá	2	El tablón	1	Enero	2023-01-20T00:00:00	2024-11-06T17:00:00	6	Velocidad del viento	6.4
132230	7	Sololá	701	Sololá	2	El tablón	1	Enero	2023-01-20T00:00:00	2024-11-06T17:00:00	7	Dirección del viento	6.44
132231	7	Sololá	701	Sololá	2	El tablón	1	Enero	2023-01-20T00:00:00	2024-11-06T17:00:00	1	Precipitación	0
132232	7	Sololá	701	Sololá	2	El tablón	1	Enero	2023-01-20T00:00:00	2024-11-06T17:00:00	8	Radiación solar	216
132233	7	Sololá	701	Sololá	2	El tablón	1	Enero	2023-01-20T00:00:00	2024-11-06T18:00:00	2	Temperatura media	13.8
132234	7	Sololá	701	Sololá	2	El tablón	1	Enero	2023-01-20T00:00:00	2024-11-06T18:00:00	4	Temperatura máxima	14.8
132235	7	Sololá	701	Sololá	2	El tablón	1	Enero	2023-01-20T00:00:00	2024-11-06T18:00:00	3	Temperatura mínima	13.8
132236	7	Sololá	701	Sololá	2	El tablón	1	Enero	2023-01-20T00:00:00	2024-11-06T18:00:00	5	Humedad	68
132237	7	Sololá	701	Sololá	2	El tablón	1	Enero	2023-01-20T00:00:00	2024-11-06T18:00:00	6	Velocidad del viento	4.8
132238	7	Sololá	701	Sololá	2	El tablón	1	Enero	2023-01-20T00:00:00	2024-11-06T18:00:00	7	Dirección del viento	4.83
132239	7	Sololá	701	Sololá	2	El tablón	1	Enero	2023-01-20T00:00:00	2024-11-06T18:00:00	1	Precipitación	0
132240	7	Sololá	701	Sololá	2	El tablón	1	Enero	2023-01-20T00:00:00	2024-11-06T18:00:00	8	Radiación solar	56
132241	7	Sololá	701	Sololá	2	El tablón	1	Enero	2023-01-20T00:00:00	2024-11-06T19:00:00	2	Temperatura media	13.1
132242	7	Sololá	701	Sololá	2	El tablón	1	Enero	2023-01-20T00:00:00	2024-11-06T19:00:00	4	Temperatura máxima	13.8
132243	7	Sololá	701	Sololá	2	El tablón	1	Enero	2023-01-20T00:00:00	2024-11-06T19:00:00	3	Temperatura mínima	13.1
132244	7	Sololá	701	Sololá	2	El tablón	1	Enero	2023-01-20T00:00:00	2024-11-06T19:00:00	5	Humedad	75
132245	7	Sololá	701	Sololá	2	El tablón	1	Enero	2023-01-20T00:00:00	2024-11-06T19:00:00	6	Velocidad del viento	8
132246	7	Sololá	701	Sololá	2	El tablón	1	Enero	2023-01-20T00:00:00	2024-11-06T19:00:00	7	Dirección del viento	8.05
132247	7	Sololá	701	Sololá	2	El tablón	1	Enero	2023-01-20T00:00:00	2024-11-06T19:00:00	1	Precipitación	0
132248	7	Sololá	701	Sololá	2	El tablón	1	Enero	2023-01-20T00:00:00	2024-11-06T19:00:00	8	Radiación solar	0
132249	7	Sololá	701	Sololá	2	El tablón	1	Enero	2023-01-20T00:00:00	2024-11-06T20:00:00	2	Temperatura media	12.3
132250	7	Sololá	701	Sololá	2	El tablón	1	Enero	2023-01-20T00:00:00	2024-11-06T20:00:00	4	Temperatura máxima	13.1
132251	7	Sololá	701	Sololá	2	El tablón	1	Enero	2023-01-20T00:00:00	2024-11-06T20:00:00	3	Temperatura mínima	12.3
132252	7	Sololá	701	Sololá	2	El tablón	1	Enero	2023-01-20T00:00:00	2024-11-06T20:00:00	5	Humedad	82
132253	7	Sololá	701	Sololá	2	El tablón	1	Enero	2023-01-20T00:00:00	2024-11-06T20:00:00	6	Velocidad del viento	8
132254	7	Sololá	701	Sololá	2	El tablón	1	Enero	2023-01-20T00:00:00	2024-11-06T20:00:00	7	Dirección del viento	8.05
132255	7	Sololá	701	Sololá	2	El tablón	1	Enero	2023-01-20T00:00:00	2024-11-06T20:00:00	1	Precipitación	0
132256	7	Sololá	701	Sololá	2	El tablón	1	Enero	2023-01-20T00:00:00	2024-11-06T20:00:00	8	Radiación solar	0
132257	7	Sololá	701	Sololá	2	El tablón	1	Enero	2023-01-20T00:00:00	2024-11-06T21:00:00	2	Temperatura media	12.1
132258	7	Sololá	701	Sololá	2	El tablón	1	Enero	2023-01-20T00:00:00	2024-11-06T21:00:00	4	Temperatura máxima	12.3
132259	7	Sololá	701	Sololá	2	El tablón	1	Enero	2023-01-20T00:00:00	2024-11-06T21:00:00	3	Temperatura mínima	12.1
132260	7	Sololá	701	Sololá	2	El tablón	1	Enero	2023-01-20T00:00:00	2024-11-06T21:00:00	5	Humedad	87
132261	7	Sololá	701	Sololá	2	El tablón	1	Enero	2023-01-20T00:00:00	2024-11-06T21:00:00	6	Velocidad del viento	11.3
132262	7	Sololá	701	Sololá	2	El tablón	1	Enero	2023-01-20T00:00:00	2024-11-06T21:00:00	7	Dirección del viento	11.27
132263	7	Sololá	701	Sololá	2	El tablón	1	Enero	2023-01-20T00:00:00	2024-11-06T21:00:00	1	Precipitación	0
132264	7	Sololá	701	Sololá	2	El tablón	1	Enero	2023-01-20T00:00:00	2024-11-06T21:00:00	8	Radiación solar	0
132265	7	Sololá	701	Sololá	2	El tablón	1	Enero	2023-01-20T00:00:00	2024-11-06T22:00:00	2	Temperatura media	11.9
132266	7	Sololá	701	Sololá	2	El tablón	1	Enero	2023-01-20T00:00:00	2024-11-06T22:00:00	4	Temperatura máxima	12.1
132267	7	Sololá	701	Sololá	2	El tablón	1	Enero	2023-01-20T00:00:00	2024-11-06T22:00:00	3	Temperatura mínima	11.9
132268	7	Sololá	701	Sololá	2	El tablón	1	Enero	2023-01-20T00:00:00	2024-11-06T22:00:00	5	Humedad	87
132269	7	Sololá	701	Sololá	2	El tablón	1	Enero	2023-01-20T00:00:00	2024-11-06T22:00:00	6	Velocidad del viento	11.3
132270	7	Sololá	701	Sololá	2	El tablón	1	Enero	2023-01-20T00:00:00	2024-11-06T22:00:00	7	Dirección del viento	11.27
132271	7	Sololá	701	Sololá	2	El tablón	1	Enero	2023-01-20T00:00:00	2024-11-06T22:00:00	1	Precipitación	0
132272	7	Sololá	701	Sololá	2	El tablón	1	Enero	2023-01-20T00:00:00	2024-11-06T22:00:00	8	Radiación solar	0
132273	7	Sololá	701	Sololá	2	El tablón	1	Enero	2023-01-20T00:00:00	2024-11-06T23:00:00	2	Temperatura media	11.8
132274	7	Sololá	701	Sololá	2	El tablón	1	Enero	2023-01-20T00:00:00	2024-11-06T23:00:00	4	Temperatura máxima	11.9
132275	7	Sololá	701	Sololá	2	El tablón	1	Enero	2023-01-20T00:00:00	2024-11-06T23:00:00	3	Temperatura mínima	11.8
132276	7	Sololá	701	Sololá	2	El tablón	1	Enero	2023-01-20T00:00:00	2024-11-06T23:00:00	5	Humedad	86
132277	7	Sololá	701	Sololá	2	El tablón	1	Enero	2023-01-20T00:00:00	2024-11-06T23:00:00	6	Velocidad del viento	11.3
132278	7	Sololá	701	Sololá	2	El tablón	1	Enero	2023-01-20T00:00:00	2024-11-06T23:00:00	7	Dirección del viento	11.27
132279	7	Sololá	701	Sololá	2	El tablón	1	Enero	2023-01-20T00:00:00	2024-11-06T23:00:00	1	Precipitación	0
132280	7	Sololá	701	Sololá	2	El tablón	1	Enero	2023-01-20T00:00:00	2024-11-06T23:00:00	8	Radiación solar	0
132281	7	Sololá	701	Sololá	2	El tablón	1	Enero	2023-01-21T00:00:00	2024-11-06T00:00:00	2	Temperatura media	11.7
132282	7	Sololá	701	Sololá	2	El tablón	1	Enero	2023-01-21T00:00:00	2024-11-06T00:00:00	4	Temperatura máxima	11.8
132283	7	Sololá	701	Sololá	2	El tablón	1	Enero	2023-01-21T00:00:00	2024-11-06T00:00:00	3	Temperatura mínima	11.6
132284	7	Sololá	701	Sololá	2	El tablón	1	Enero	2023-01-21T00:00:00	2024-11-06T00:00:00	5	Humedad	84
132285	7	Sololá	701	Sololá	2	El tablón	1	Enero	2023-01-21T00:00:00	2024-11-06T00:00:00	6	Velocidad del viento	9.7
132286	7	Sololá	701	Sololá	2	El tablón	1	Enero	2023-01-21T00:00:00	2024-11-06T00:00:00	7	Dirección del viento	9.66
132287	7	Sololá	701	Sololá	2	El tablón	1	Enero	2023-01-21T00:00:00	2024-11-06T00:00:00	1	Precipitación	0
132288	7	Sololá	701	Sololá	2	El tablón	1	Enero	2023-01-21T00:00:00	2024-11-06T00:00:00	8	Radiación solar	0
132289	7	Sololá	701	Sololá	2	El tablón	1	Enero	2023-01-21T00:00:00	2024-11-06T01:00:00	2	Temperatura media	11.6
132290	7	Sololá	701	Sololá	2	El tablón	1	Enero	2023-01-21T00:00:00	2024-11-06T01:00:00	4	Temperatura máxima	11.8
132291	7	Sololá	701	Sololá	2	El tablón	1	Enero	2023-01-21T00:00:00	2024-11-06T01:00:00	3	Temperatura mínima	11.6
132292	7	Sololá	701	Sololá	2	El tablón	1	Enero	2023-01-21T00:00:00	2024-11-06T01:00:00	5	Humedad	83
132293	7	Sololá	701	Sololá	2	El tablón	1	Enero	2023-01-21T00:00:00	2024-11-06T01:00:00	6	Velocidad del viento	8
132294	7	Sololá	701	Sololá	2	El tablón	1	Enero	2023-01-21T00:00:00	2024-11-06T01:00:00	7	Dirección del viento	8.05
132295	7	Sololá	701	Sololá	2	El tablón	1	Enero	2023-01-21T00:00:00	2024-11-06T01:00:00	1	Precipitación	0
132296	7	Sololá	701	Sololá	2	El tablón	1	Enero	2023-01-21T00:00:00	2024-11-06T01:00:00	8	Radiación solar	0
132297	7	Sololá	701	Sololá	2	El tablón	1	Enero	2023-01-21T00:00:00	2024-11-06T02:00:00	2	Temperatura media	11.2
132298	7	Sololá	701	Sololá	2	El tablón	1	Enero	2023-01-21T00:00:00	2024-11-06T02:00:00	4	Temperatura máxima	11.6
132299	7	Sololá	701	Sololá	2	El tablón	1	Enero	2023-01-21T00:00:00	2024-11-06T02:00:00	3	Temperatura mínima	11.2
132300	7	Sololá	701	Sololá	2	El tablón	1	Enero	2023-01-21T00:00:00	2024-11-06T02:00:00	5	Humedad	84
132301	7	Sololá	701	Sololá	2	El tablón	1	Enero	2023-01-21T00:00:00	2024-11-06T02:00:00	6	Velocidad del viento	8
132302	7	Sololá	701	Sololá	2	El tablón	1	Enero	2023-01-21T00:00:00	2024-11-06T02:00:00	7	Dirección del viento	8.05
132303	7	Sololá	701	Sololá	2	El tablón	1	Enero	2023-01-21T00:00:00	2024-11-06T02:00:00	1	Precipitación	0
132304	7	Sololá	701	Sololá	2	El tablón	1	Enero	2023-01-21T00:00:00	2024-11-06T02:00:00	8	Radiación solar	0
132305	7	Sololá	701	Sololá	2	El tablón	1	Enero	2023-01-21T00:00:00	2024-11-06T03:00:00	2	Temperatura media	10.8
132306	7	Sololá	701	Sololá	2	El tablón	1	Enero	2023-01-21T00:00:00	2024-11-06T03:00:00	4	Temperatura máxima	11.2
132307	7	Sololá	701	Sololá	2	El tablón	1	Enero	2023-01-21T00:00:00	2024-11-06T03:00:00	3	Temperatura mínima	10.8
132308	7	Sololá	701	Sololá	2	El tablón	1	Enero	2023-01-21T00:00:00	2024-11-06T03:00:00	5	Humedad	86
132309	7	Sololá	701	Sololá	2	El tablón	1	Enero	2023-01-21T00:00:00	2024-11-06T03:00:00	6	Velocidad del viento	8
132310	7	Sololá	701	Sololá	2	El tablón	1	Enero	2023-01-21T00:00:00	2024-11-06T03:00:00	7	Dirección del viento	8.05
132311	7	Sololá	701	Sololá	2	El tablón	1	Enero	2023-01-21T00:00:00	2024-11-06T03:00:00	1	Precipitación	0
132312	7	Sololá	701	Sololá	2	El tablón	1	Enero	2023-01-21T00:00:00	2024-11-06T03:00:00	8	Radiación solar	0
132313	7	Sololá	701	Sololá	2	El tablón	1	Enero	2023-01-21T00:00:00	2024-11-06T04:00:00	2	Temperatura media	10.9
132314	7	Sololá	701	Sololá	2	El tablón	1	Enero	2023-01-21T00:00:00	2024-11-06T04:00:00	4	Temperatura máxima	11
132315	7	Sololá	701	Sololá	2	El tablón	1	Enero	2023-01-21T00:00:00	2024-11-06T04:00:00	3	Temperatura mínima	10.7
132316	7	Sololá	701	Sololá	2	El tablón	1	Enero	2023-01-21T00:00:00	2024-11-06T04:00:00	5	Humedad	83
132317	7	Sololá	701	Sololá	2	El tablón	1	Enero	2023-01-21T00:00:00	2024-11-06T04:00:00	6	Velocidad del viento	8
132318	7	Sololá	701	Sololá	2	El tablón	1	Enero	2023-01-21T00:00:00	2024-11-06T04:00:00	7	Dirección del viento	8.05
132319	7	Sololá	701	Sololá	2	El tablón	1	Enero	2023-01-21T00:00:00	2024-11-06T04:00:00	1	Precipitación	0
132320	7	Sololá	701	Sololá	2	El tablón	1	Enero	2023-01-21T00:00:00	2024-11-06T04:00:00	8	Radiación solar	0
132321	7	Sololá	701	Sololá	2	El tablón	1	Enero	2023-01-21T00:00:00	2024-11-06T05:00:00	2	Temperatura media	10.4
132322	7	Sololá	701	Sololá	2	El tablón	1	Enero	2023-01-21T00:00:00	2024-11-06T05:00:00	4	Temperatura máxima	11.2
132323	7	Sololá	701	Sololá	2	El tablón	1	Enero	2023-01-21T00:00:00	2024-11-06T05:00:00	3	Temperatura mínima	10.4
132324	7	Sololá	701	Sololá	2	El tablón	1	Enero	2023-01-21T00:00:00	2024-11-06T05:00:00	5	Humedad	84
132325	7	Sololá	701	Sololá	2	El tablón	1	Enero	2023-01-21T00:00:00	2024-11-06T05:00:00	6	Velocidad del viento	4.8
132326	7	Sololá	701	Sololá	2	El tablón	1	Enero	2023-01-21T00:00:00	2024-11-06T05:00:00	7	Dirección del viento	4.83
132327	7	Sololá	701	Sololá	2	El tablón	1	Enero	2023-01-21T00:00:00	2024-11-06T05:00:00	1	Precipitación	0
132328	7	Sololá	701	Sololá	2	El tablón	1	Enero	2023-01-21T00:00:00	2024-11-06T05:00:00	8	Radiación solar	0
132329	7	Sololá	701	Sololá	2	El tablón	1	Enero	2023-01-21T00:00:00	2024-11-06T06:00:00	2	Temperatura media	10
132330	7	Sololá	701	Sololá	2	El tablón	1	Enero	2023-01-21T00:00:00	2024-11-06T06:00:00	4	Temperatura máxima	10.4
132331	7	Sololá	701	Sololá	2	El tablón	1	Enero	2023-01-21T00:00:00	2024-11-06T06:00:00	3	Temperatura mínima	10
132332	7	Sololá	701	Sololá	2	El tablón	1	Enero	2023-01-21T00:00:00	2024-11-06T06:00:00	5	Humedad	85
132333	7	Sololá	701	Sololá	2	El tablón	1	Enero	2023-01-21T00:00:00	2024-11-06T06:00:00	6	Velocidad del viento	3.2
132334	7	Sololá	701	Sololá	2	El tablón	1	Enero	2023-01-21T00:00:00	2024-11-06T06:00:00	7	Dirección del viento	3.22
132335	7	Sololá	701	Sololá	2	El tablón	1	Enero	2023-01-21T00:00:00	2024-11-06T06:00:00	1	Precipitación	0
132336	7	Sololá	701	Sololá	2	El tablón	1	Enero	2023-01-21T00:00:00	2024-11-06T06:00:00	8	Radiación solar	0
132337	7	Sololá	701	Sololá	2	El tablón	1	Enero	2023-01-21T00:00:00	2024-11-06T07:00:00	2	Temperatura media	9.4
132338	7	Sololá	701	Sololá	2	El tablón	1	Enero	2023-01-21T00:00:00	2024-11-06T07:00:00	4	Temperatura máxima	10
132339	7	Sololá	701	Sololá	2	El tablón	1	Enero	2023-01-21T00:00:00	2024-11-06T07:00:00	3	Temperatura mínima	8.8
132340	7	Sololá	701	Sololá	2	El tablón	1	Enero	2023-01-21T00:00:00	2024-11-06T07:00:00	5	Humedad	87
132341	7	Sololá	701	Sololá	2	El tablón	1	Enero	2023-01-21T00:00:00	2024-11-06T07:00:00	6	Velocidad del viento	3.2
132342	7	Sololá	701	Sololá	2	El tablón	1	Enero	2023-01-21T00:00:00	2024-11-06T07:00:00	7	Dirección del viento	3.22
132343	7	Sololá	701	Sololá	2	El tablón	1	Enero	2023-01-21T00:00:00	2024-11-06T07:00:00	1	Precipitación	0
132344	7	Sololá	701	Sololá	2	El tablón	1	Enero	2023-01-21T00:00:00	2024-11-06T07:00:00	8	Radiación solar	4
132345	7	Sololá	701	Sololá	2	El tablón	1	Enero	2023-01-21T00:00:00	2024-11-06T08:00:00	2	Temperatura media	12.6
132346	7	Sololá	701	Sololá	2	El tablón	1	Enero	2023-01-21T00:00:00	2024-11-06T08:00:00	4	Temperatura máxima	12.6
132347	7	Sololá	701	Sololá	2	El tablón	1	Enero	2023-01-21T00:00:00	2024-11-06T08:00:00	3	Temperatura mínima	9.4
132348	7	Sololá	701	Sololá	2	El tablón	1	Enero	2023-01-21T00:00:00	2024-11-06T08:00:00	5	Humedad	80
132349	7	Sololá	701	Sololá	2	El tablón	1	Enero	2023-01-21T00:00:00	2024-11-06T08:00:00	6	Velocidad del viento	4.8
132350	7	Sololá	701	Sololá	2	El tablón	1	Enero	2023-01-21T00:00:00	2024-11-06T08:00:00	7	Dirección del viento	4.83
132351	7	Sololá	701	Sololá	2	El tablón	1	Enero	2023-01-21T00:00:00	2024-11-06T08:00:00	1	Precipitación	0
132352	7	Sololá	701	Sololá	2	El tablón	1	Enero	2023-01-21T00:00:00	2024-11-06T08:00:00	8	Radiación solar	113
132353	7	Sololá	701	Sololá	2	El tablón	1	Enero	2023-01-21T00:00:00	2024-11-06T09:00:00	2	Temperatura media	15.1
132354	7	Sololá	701	Sololá	2	El tablón	1	Enero	2023-01-21T00:00:00	2024-11-06T09:00:00	4	Temperatura máxima	15.1
132355	7	Sololá	701	Sololá	2	El tablón	1	Enero	2023-01-21T00:00:00	2024-11-06T09:00:00	3	Temperatura mínima	12.6
132356	7	Sololá	701	Sololá	2	El tablón	1	Enero	2023-01-21T00:00:00	2024-11-06T09:00:00	5	Humedad	73
132357	7	Sololá	701	Sololá	2	El tablón	1	Enero	2023-01-21T00:00:00	2024-11-06T09:00:00	6	Velocidad del viento	4.8
132358	7	Sololá	701	Sololá	2	El tablón	1	Enero	2023-01-21T00:00:00	2024-11-06T09:00:00	7	Dirección del viento	4.83
132359	7	Sololá	701	Sololá	2	El tablón	1	Enero	2023-01-21T00:00:00	2024-11-06T09:00:00	1	Precipitación	0
132360	7	Sololá	701	Sololá	2	El tablón	1	Enero	2023-01-21T00:00:00	2024-11-06T09:00:00	8	Radiación solar	328
132361	7	Sololá	701	Sololá	2	El tablón	1	Enero	2023-01-21T00:00:00	2024-11-06T10:00:00	2	Temperatura media	16.9
132362	7	Sololá	701	Sololá	2	El tablón	1	Enero	2023-01-21T00:00:00	2024-11-06T10:00:00	4	Temperatura máxima	16.9
132363	7	Sololá	701	Sololá	2	El tablón	1	Enero	2023-01-21T00:00:00	2024-11-06T10:00:00	3	Temperatura mínima	15.1
132364	7	Sololá	701	Sololá	2	El tablón	1	Enero	2023-01-21T00:00:00	2024-11-06T10:00:00	5	Humedad	61
132365	7	Sololá	701	Sololá	2	El tablón	1	Enero	2023-01-21T00:00:00	2024-11-06T10:00:00	6	Velocidad del viento	4.8
132366	7	Sololá	701	Sololá	2	El tablón	1	Enero	2023-01-21T00:00:00	2024-11-06T10:00:00	7	Dirección del viento	4.83
132367	7	Sololá	701	Sololá	2	El tablón	1	Enero	2023-01-21T00:00:00	2024-11-06T10:00:00	1	Precipitación	0
132368	7	Sololá	701	Sololá	2	El tablón	1	Enero	2023-01-21T00:00:00	2024-11-06T10:00:00	8	Radiación solar	529
132369	7	Sololá	701	Sololá	2	El tablón	1	Enero	2023-01-21T00:00:00	2024-11-06T11:00:00	2	Temperatura media	17.3
132370	7	Sololá	701	Sololá	2	El tablón	1	Enero	2023-01-21T00:00:00	2024-11-06T11:00:00	4	Temperatura máxima	17.8
132371	7	Sololá	701	Sololá	2	El tablón	1	Enero	2023-01-21T00:00:00	2024-11-06T11:00:00	3	Temperatura mínima	16.8
132372	7	Sololá	701	Sololá	2	El tablón	1	Enero	2023-01-21T00:00:00	2024-11-06T11:00:00	5	Humedad	67
132373	7	Sololá	701	Sololá	2	El tablón	1	Enero	2023-01-21T00:00:00	2024-11-06T11:00:00	6	Velocidad del viento	6.4
132374	7	Sololá	701	Sololá	2	El tablón	1	Enero	2023-01-21T00:00:00	2024-11-06T11:00:00	7	Dirección del viento	6.44
132375	7	Sololá	701	Sololá	2	El tablón	1	Enero	2023-01-21T00:00:00	2024-11-06T11:00:00	1	Precipitación	0
132376	7	Sololá	701	Sololá	2	El tablón	1	Enero	2023-01-21T00:00:00	2024-11-06T11:00:00	8	Radiación solar	671
132377	7	Sololá	701	Sololá	2	El tablón	1	Enero	2023-01-21T00:00:00	2024-11-06T12:00:00	2	Temperatura media	17.9
132378	7	Sololá	701	Sololá	2	El tablón	1	Enero	2023-01-21T00:00:00	2024-11-06T12:00:00	4	Temperatura máxima	17.9
132379	7	Sololá	701	Sololá	2	El tablón	1	Enero	2023-01-21T00:00:00	2024-11-06T12:00:00	3	Temperatura mínima	17.2
132380	7	Sololá	701	Sololá	2	El tablón	1	Enero	2023-01-21T00:00:00	2024-11-06T12:00:00	5	Humedad	66
132381	7	Sololá	701	Sololá	2	El tablón	1	Enero	2023-01-21T00:00:00	2024-11-06T12:00:00	6	Velocidad del viento	8
132382	7	Sololá	701	Sololá	2	El tablón	1	Enero	2023-01-21T00:00:00	2024-11-06T12:00:00	7	Dirección del viento	8.05
132383	7	Sololá	701	Sololá	2	El tablón	1	Enero	2023-01-21T00:00:00	2024-11-06T12:00:00	1	Precipitación	0
132384	7	Sololá	701	Sololá	2	El tablón	1	Enero	2023-01-21T00:00:00	2024-11-06T12:00:00	8	Radiación solar	667
132385	7	Sololá	701	Sololá	2	El tablón	1	Enero	2023-01-21T00:00:00	2024-11-06T13:00:00	2	Temperatura media	16.9
132386	7	Sololá	701	Sololá	2	El tablón	1	Enero	2023-01-21T00:00:00	2024-11-06T13:00:00	4	Temperatura máxima	17.9
132387	7	Sololá	701	Sololá	2	El tablón	1	Enero	2023-01-21T00:00:00	2024-11-06T13:00:00	3	Temperatura mínima	16.6
132388	7	Sololá	701	Sololá	2	El tablón	1	Enero	2023-01-21T00:00:00	2024-11-06T13:00:00	5	Humedad	78
132389	7	Sololá	701	Sololá	2	El tablón	1	Enero	2023-01-21T00:00:00	2024-11-06T13:00:00	6	Velocidad del viento	8
132390	7	Sololá	701	Sololá	2	El tablón	1	Enero	2023-01-21T00:00:00	2024-11-06T13:00:00	7	Dirección del viento	8.05
132391	7	Sololá	701	Sololá	2	El tablón	1	Enero	2023-01-21T00:00:00	2024-11-06T13:00:00	1	Precipitación	0
132392	7	Sololá	701	Sololá	2	El tablón	1	Enero	2023-01-21T00:00:00	2024-11-06T13:00:00	8	Radiación solar	772
132393	7	Sololá	701	Sololá	2	El tablón	1	Enero	2023-01-21T00:00:00	2024-11-06T14:00:00	2	Temperatura media	15.9
132394	7	Sololá	701	Sololá	2	El tablón	1	Enero	2023-01-21T00:00:00	2024-11-06T14:00:00	4	Temperatura máxima	17
132395	7	Sololá	701	Sololá	2	El tablón	1	Enero	2023-01-21T00:00:00	2024-11-06T14:00:00	3	Temperatura mínima	15.6
132396	7	Sololá	701	Sololá	2	El tablón	1	Enero	2023-01-21T00:00:00	2024-11-06T14:00:00	5	Humedad	81
132397	7	Sololá	701	Sololá	2	El tablón	1	Enero	2023-01-21T00:00:00	2024-11-06T14:00:00	6	Velocidad del viento	9.7
132398	7	Sololá	701	Sololá	2	El tablón	1	Enero	2023-01-21T00:00:00	2024-11-06T14:00:00	7	Dirección del viento	9.66
132399	7	Sololá	701	Sololá	2	El tablón	1	Enero	2023-01-21T00:00:00	2024-11-06T14:00:00	1	Precipitación	0
132400	7	Sololá	701	Sololá	2	El tablón	1	Enero	2023-01-21T00:00:00	2024-11-06T14:00:00	8	Radiación solar	693
132401	7	Sololá	701	Sololá	2	El tablón	1	Enero	2023-01-21T00:00:00	2024-11-06T15:00:00	2	Temperatura media	15.8
132402	7	Sololá	701	Sololá	2	El tablón	1	Enero	2023-01-21T00:00:00	2024-11-06T15:00:00	4	Temperatura máxima	16.4
132403	7	Sololá	701	Sololá	2	El tablón	1	Enero	2023-01-21T00:00:00	2024-11-06T15:00:00	3	Temperatura mínima	15.5
132404	7	Sololá	701	Sololá	2	El tablón	1	Enero	2023-01-21T00:00:00	2024-11-06T15:00:00	5	Humedad	81
132405	7	Sololá	701	Sololá	2	El tablón	1	Enero	2023-01-21T00:00:00	2024-11-06T15:00:00	6	Velocidad del viento	8
132406	7	Sololá	701	Sololá	2	El tablón	1	Enero	2023-01-21T00:00:00	2024-11-06T15:00:00	7	Dirección del viento	8.05
132407	7	Sololá	701	Sololá	2	El tablón	1	Enero	2023-01-21T00:00:00	2024-11-06T15:00:00	1	Precipitación	0
132408	7	Sololá	701	Sololá	2	El tablón	1	Enero	2023-01-21T00:00:00	2024-11-06T15:00:00	8	Radiación solar	453
132409	7	Sololá	701	Sololá	2	El tablón	1	Enero	2023-01-21T00:00:00	2024-11-06T16:00:00	2	Temperatura media	14.9
132410	7	Sololá	701	Sololá	2	El tablón	1	Enero	2023-01-21T00:00:00	2024-11-06T16:00:00	4	Temperatura máxima	15.8
132411	7	Sololá	701	Sololá	2	El tablón	1	Enero	2023-01-21T00:00:00	2024-11-06T16:00:00	3	Temperatura mínima	14.5
132412	7	Sololá	701	Sololá	2	El tablón	1	Enero	2023-01-21T00:00:00	2024-11-06T16:00:00	5	Humedad	86
132413	7	Sololá	701	Sololá	2	El tablón	1	Enero	2023-01-21T00:00:00	2024-11-06T16:00:00	6	Velocidad del viento	4.8
132414	7	Sololá	701	Sololá	2	El tablón	1	Enero	2023-01-21T00:00:00	2024-11-06T16:00:00	7	Dirección del viento	4.83
132415	7	Sololá	701	Sololá	2	El tablón	1	Enero	2023-01-21T00:00:00	2024-11-06T16:00:00	1	Precipitación	0
132416	7	Sololá	701	Sololá	2	El tablón	1	Enero	2023-01-21T00:00:00	2024-11-06T16:00:00	8	Radiación solar	201
132417	7	Sololá	701	Sololá	2	El tablón	1	Enero	2023-01-21T00:00:00	2024-11-06T17:00:00	2	Temperatura media	13.8
132418	7	Sololá	701	Sololá	2	El tablón	1	Enero	2023-01-21T00:00:00	2024-11-06T17:00:00	4	Temperatura máxima	15.1
132419	7	Sololá	701	Sololá	2	El tablón	1	Enero	2023-01-21T00:00:00	2024-11-06T17:00:00	3	Temperatura mínima	13.8
132420	7	Sololá	701	Sololá	2	El tablón	1	Enero	2023-01-21T00:00:00	2024-11-06T17:00:00	5	Humedad	89
132421	7	Sololá	701	Sololá	2	El tablón	1	Enero	2023-01-21T00:00:00	2024-11-06T17:00:00	6	Velocidad del viento	4.8
132422	7	Sololá	701	Sololá	2	El tablón	1	Enero	2023-01-21T00:00:00	2024-11-06T17:00:00	7	Dirección del viento	4.83
132423	7	Sololá	701	Sololá	2	El tablón	1	Enero	2023-01-21T00:00:00	2024-11-06T17:00:00	1	Precipitación	0
132424	7	Sololá	701	Sololá	2	El tablón	1	Enero	2023-01-21T00:00:00	2024-11-06T17:00:00	8	Radiación solar	130
132425	7	Sololá	701	Sololá	2	El tablón	1	Enero	2023-01-21T00:00:00	2024-11-06T18:00:00	2	Temperatura media	13.1
132426	7	Sololá	701	Sololá	2	El tablón	1	Enero	2023-01-21T00:00:00	2024-11-06T18:00:00	4	Temperatura máxima	13.8
132427	7	Sololá	701	Sololá	2	El tablón	1	Enero	2023-01-21T00:00:00	2024-11-06T18:00:00	3	Temperatura mínima	13.1
132428	7	Sololá	701	Sololá	2	El tablón	1	Enero	2023-01-21T00:00:00	2024-11-06T18:00:00	5	Humedad	90
132429	7	Sololá	701	Sololá	2	El tablón	1	Enero	2023-01-21T00:00:00	2024-11-06T18:00:00	6	Velocidad del viento	3.2
132430	7	Sololá	701	Sololá	2	El tablón	1	Enero	2023-01-21T00:00:00	2024-11-06T18:00:00	7	Dirección del viento	3.22
132431	7	Sololá	701	Sololá	2	El tablón	1	Enero	2023-01-21T00:00:00	2024-11-06T18:00:00	1	Precipitación	0
132432	7	Sololá	701	Sololá	2	El tablón	1	Enero	2023-01-21T00:00:00	2024-11-06T18:00:00	8	Radiación solar	23
132433	7	Sololá	701	Sololá	2	El tablón	1	Enero	2023-01-21T00:00:00	2024-11-06T19:00:00	2	Temperatura media	12.4
132434	7	Sololá	701	Sololá	2	El tablón	1	Enero	2023-01-21T00:00:00	2024-11-06T19:00:00	4	Temperatura máxima	13.1
132435	7	Sololá	701	Sololá	2	El tablón	1	Enero	2023-01-21T00:00:00	2024-11-06T19:00:00	3	Temperatura mínima	12.4
132436	7	Sololá	701	Sololá	2	El tablón	1	Enero	2023-01-21T00:00:00	2024-11-06T19:00:00	5	Humedad	90
132437	7	Sololá	701	Sololá	2	El tablón	1	Enero	2023-01-21T00:00:00	2024-11-06T19:00:00	6	Velocidad del viento	3.2
132438	7	Sololá	701	Sololá	2	El tablón	1	Enero	2023-01-21T00:00:00	2024-11-06T19:00:00	7	Dirección del viento	3.22
132439	7	Sololá	701	Sololá	2	El tablón	1	Enero	2023-01-21T00:00:00	2024-11-06T19:00:00	1	Precipitación	0
132440	7	Sololá	701	Sololá	2	El tablón	1	Enero	2023-01-21T00:00:00	2024-11-06T19:00:00	8	Radiación solar	0
132441	7	Sololá	701	Sololá	2	El tablón	1	Enero	2023-01-21T00:00:00	2024-11-06T20:00:00	2	Temperatura media	11.7
132442	7	Sololá	701	Sololá	2	El tablón	1	Enero	2023-01-21T00:00:00	2024-11-06T20:00:00	4	Temperatura máxima	12.4
132443	7	Sololá	701	Sololá	2	El tablón	1	Enero	2023-01-21T00:00:00	2024-11-06T20:00:00	3	Temperatura mínima	11.7
132444	7	Sololá	701	Sololá	2	El tablón	1	Enero	2023-01-21T00:00:00	2024-11-06T20:00:00	5	Humedad	90
132445	7	Sololá	701	Sololá	2	El tablón	1	Enero	2023-01-21T00:00:00	2024-11-06T20:00:00	6	Velocidad del viento	1.6
132446	7	Sololá	701	Sololá	2	El tablón	1	Enero	2023-01-21T00:00:00	2024-11-06T20:00:00	7	Dirección del viento	1.61
132447	7	Sololá	701	Sololá	2	El tablón	1	Enero	2023-01-21T00:00:00	2024-11-06T20:00:00	1	Precipitación	0
132448	7	Sololá	701	Sololá	2	El tablón	1	Enero	2023-01-21T00:00:00	2024-11-06T20:00:00	8	Radiación solar	0
132449	7	Sololá	701	Sololá	2	El tablón	1	Enero	2023-01-21T00:00:00	2024-11-06T21:00:00	2	Temperatura media	10.2
132450	7	Sololá	701	Sololá	2	El tablón	1	Enero	2023-01-21T00:00:00	2024-11-06T21:00:00	4	Temperatura máxima	11.7
132451	7	Sololá	701	Sololá	2	El tablón	1	Enero	2023-01-21T00:00:00	2024-11-06T21:00:00	3	Temperatura mínima	10.2
132452	7	Sololá	701	Sololá	2	El tablón	1	Enero	2023-01-21T00:00:00	2024-11-06T21:00:00	5	Humedad	90
132453	7	Sololá	701	Sololá	2	El tablón	1	Enero	2023-01-21T00:00:00	2024-11-06T21:00:00	6	Velocidad del viento	1.6
132454	7	Sololá	701	Sololá	2	El tablón	1	Enero	2023-01-21T00:00:00	2024-11-06T21:00:00	7	Dirección del viento	1.61
132455	7	Sololá	701	Sololá	2	El tablón	1	Enero	2023-01-21T00:00:00	2024-11-06T21:00:00	1	Precipitación	0
132456	7	Sololá	701	Sololá	2	El tablón	1	Enero	2023-01-21T00:00:00	2024-11-06T21:00:00	8	Radiación solar	0
132457	7	Sololá	701	Sololá	2	El tablón	1	Enero	2023-01-21T00:00:00	2024-11-06T22:00:00	2	Temperatura media	10.6
132458	7	Sololá	701	Sololá	2	El tablón	1	Enero	2023-01-21T00:00:00	2024-11-06T22:00:00	4	Temperatura máxima	10.6
132459	7	Sololá	701	Sololá	2	El tablón	1	Enero	2023-01-21T00:00:00	2024-11-06T22:00:00	3	Temperatura mínima	9.9
132460	7	Sololá	701	Sololá	2	El tablón	1	Enero	2023-01-21T00:00:00	2024-11-06T22:00:00	5	Humedad	89
132461	7	Sololá	701	Sololá	2	El tablón	1	Enero	2023-01-21T00:00:00	2024-11-06T22:00:00	6	Velocidad del viento	4.8
132462	7	Sololá	701	Sololá	2	El tablón	1	Enero	2023-01-21T00:00:00	2024-11-06T22:00:00	7	Dirección del viento	4.83
132463	7	Sololá	701	Sololá	2	El tablón	1	Enero	2023-01-21T00:00:00	2024-11-06T22:00:00	1	Precipitación	0
132464	7	Sololá	701	Sololá	2	El tablón	1	Enero	2023-01-21T00:00:00	2024-11-06T22:00:00	8	Radiación solar	0
132465	7	Sololá	701	Sololá	2	El tablón	1	Enero	2023-01-21T00:00:00	2024-11-06T23:00:00	2	Temperatura media	9.6
132466	7	Sololá	701	Sololá	2	El tablón	1	Enero	2023-01-21T00:00:00	2024-11-06T23:00:00	4	Temperatura máxima	10.6
132467	7	Sololá	701	Sololá	2	El tablón	1	Enero	2023-01-21T00:00:00	2024-11-06T23:00:00	3	Temperatura mínima	9.6
132468	7	Sololá	701	Sololá	2	El tablón	1	Enero	2023-01-21T00:00:00	2024-11-06T23:00:00	5	Humedad	84
132469	7	Sololá	701	Sololá	2	El tablón	1	Enero	2023-01-21T00:00:00	2024-11-06T23:00:00	6	Velocidad del viento	4.8
132470	7	Sololá	701	Sololá	2	El tablón	1	Enero	2023-01-21T00:00:00	2024-11-06T23:00:00	7	Dirección del viento	4.83
132471	7	Sololá	701	Sololá	2	El tablón	1	Enero	2023-01-21T00:00:00	2024-11-06T23:00:00	1	Precipitación	0
132472	7	Sololá	701	Sololá	2	El tablón	1	Enero	2023-01-21T00:00:00	2024-11-06T23:00:00	8	Radiación solar	0
132473	7	Sololá	701	Sololá	2	El tablón	1	Enero	2023-01-22T00:00:00	2024-11-06T00:00:00	2	Temperatura media	8.3
132474	7	Sololá	701	Sololá	2	El tablón	1	Enero	2023-01-22T00:00:00	2024-11-06T00:00:00	4	Temperatura máxima	9.6
132475	7	Sololá	701	Sololá	2	El tablón	1	Enero	2023-01-22T00:00:00	2024-11-06T00:00:00	3	Temperatura mínima	8.3
132476	7	Sololá	701	Sololá	2	El tablón	1	Enero	2023-01-22T00:00:00	2024-11-06T00:00:00	5	Humedad	84
132477	7	Sololá	701	Sololá	2	El tablón	1	Enero	2023-01-22T00:00:00	2024-11-06T00:00:00	6	Velocidad del viento	3.2
132478	7	Sololá	701	Sololá	2	El tablón	1	Enero	2023-01-22T00:00:00	2024-11-06T00:00:00	7	Dirección del viento	3.22
132479	7	Sololá	701	Sololá	2	El tablón	1	Enero	2023-01-22T00:00:00	2024-11-06T00:00:00	1	Precipitación	0
132480	7	Sololá	701	Sololá	2	El tablón	1	Enero	2023-01-22T00:00:00	2024-11-06T00:00:00	8	Radiación solar	0
132481	7	Sololá	701	Sololá	2	El tablón	1	Enero	2023-01-22T00:00:00	2024-11-06T01:00:00	2	Temperatura media	8.6
132482	7	Sololá	701	Sololá	2	El tablón	1	Enero	2023-01-22T00:00:00	2024-11-06T01:00:00	4	Temperatura máxima	9.2
132483	7	Sololá	701	Sololá	2	El tablón	1	Enero	2023-01-22T00:00:00	2024-11-06T01:00:00	3	Temperatura mínima	8.2
132484	7	Sololá	701	Sololá	2	El tablón	1	Enero	2023-01-22T00:00:00	2024-11-06T01:00:00	5	Humedad	83
132485	7	Sololá	701	Sololá	2	El tablón	1	Enero	2023-01-22T00:00:00	2024-11-06T01:00:00	6	Velocidad del viento	3.2
132486	7	Sololá	701	Sololá	2	El tablón	1	Enero	2023-01-22T00:00:00	2024-11-06T01:00:00	7	Dirección del viento	3.22
132487	7	Sololá	701	Sololá	2	El tablón	1	Enero	2023-01-22T00:00:00	2024-11-06T01:00:00	1	Precipitación	0
132488	7	Sololá	701	Sololá	2	El tablón	1	Enero	2023-01-22T00:00:00	2024-11-06T01:00:00	8	Radiación solar	0
132489	7	Sololá	701	Sololá	2	El tablón	1	Enero	2023-01-22T00:00:00	2024-11-06T02:00:00	2	Temperatura media	8
132490	7	Sololá	701	Sololá	2	El tablón	1	Enero	2023-01-22T00:00:00	2024-11-06T02:00:00	4	Temperatura máxima	9
132491	7	Sololá	701	Sololá	2	El tablón	1	Enero	2023-01-22T00:00:00	2024-11-06T02:00:00	3	Temperatura mínima	7.9
132492	7	Sololá	701	Sololá	2	El tablón	1	Enero	2023-01-22T00:00:00	2024-11-06T02:00:00	5	Humedad	85
132493	7	Sololá	701	Sololá	2	El tablón	1	Enero	2023-01-22T00:00:00	2024-11-06T02:00:00	6	Velocidad del viento	3.2
132494	7	Sololá	701	Sololá	2	El tablón	1	Enero	2023-01-22T00:00:00	2024-11-06T02:00:00	7	Dirección del viento	3.22
132495	7	Sololá	701	Sololá	2	El tablón	1	Enero	2023-01-22T00:00:00	2024-11-06T02:00:00	1	Precipitación	0
132496	7	Sololá	701	Sololá	2	El tablón	1	Enero	2023-01-22T00:00:00	2024-11-06T02:00:00	8	Radiación solar	0
132497	7	Sololá	701	Sololá	2	El tablón	1	Enero	2023-01-22T00:00:00	2024-11-06T03:00:00	2	Temperatura media	7.2
132498	7	Sololá	701	Sololá	2	El tablón	1	Enero	2023-01-22T00:00:00	2024-11-06T03:00:00	4	Temperatura máxima	8.2
132499	7	Sololá	701	Sololá	2	El tablón	1	Enero	2023-01-22T00:00:00	2024-11-06T03:00:00	3	Temperatura mínima	7.2
132500	7	Sololá	701	Sololá	2	El tablón	1	Enero	2023-01-22T00:00:00	2024-11-06T03:00:00	5	Humedad	87
132501	7	Sololá	701	Sololá	2	El tablón	1	Enero	2023-01-22T00:00:00	2024-11-06T03:00:00	6	Velocidad del viento	3.2
132502	7	Sololá	701	Sololá	2	El tablón	1	Enero	2023-01-22T00:00:00	2024-11-06T03:00:00	7	Dirección del viento	3.22
132503	7	Sololá	701	Sololá	2	El tablón	1	Enero	2023-01-22T00:00:00	2024-11-06T03:00:00	1	Precipitación	0
132504	7	Sololá	701	Sololá	2	El tablón	1	Enero	2023-01-22T00:00:00	2024-11-06T03:00:00	8	Radiación solar	0
132505	7	Sololá	701	Sololá	2	El tablón	1	Enero	2023-01-22T00:00:00	2024-11-06T04:00:00	2	Temperatura media	6.7
132506	7	Sololá	701	Sololá	2	El tablón	1	Enero	2023-01-22T00:00:00	2024-11-06T04:00:00	4	Temperatura máxima	7.2
132507	7	Sololá	701	Sololá	2	El tablón	1	Enero	2023-01-22T00:00:00	2024-11-06T04:00:00	3	Temperatura mínima	6.7
132508	7	Sololá	701	Sololá	2	El tablón	1	Enero	2023-01-22T00:00:00	2024-11-06T04:00:00	5	Humedad	87
132509	7	Sololá	701	Sololá	2	El tablón	1	Enero	2023-01-22T00:00:00	2024-11-06T04:00:00	6	Velocidad del viento	3.2
132510	7	Sololá	701	Sololá	2	El tablón	1	Enero	2023-01-22T00:00:00	2024-11-06T04:00:00	7	Dirección del viento	3.22
132511	7	Sololá	701	Sololá	2	El tablón	1	Enero	2023-01-22T00:00:00	2024-11-06T04:00:00	1	Precipitación	0
132512	7	Sololá	701	Sololá	2	El tablón	1	Enero	2023-01-22T00:00:00	2024-11-06T04:00:00	8	Radiación solar	0
132513	7	Sololá	701	Sololá	2	El tablón	1	Enero	2023-01-22T00:00:00	2024-11-06T05:00:00	2	Temperatura media	6.4
132514	7	Sololá	701	Sololá	2	El tablón	1	Enero	2023-01-22T00:00:00	2024-11-06T05:00:00	4	Temperatura máxima	6.7
132515	7	Sololá	701	Sololá	2	El tablón	1	Enero	2023-01-22T00:00:00	2024-11-06T05:00:00	3	Temperatura mínima	6.1
132516	7	Sololá	701	Sololá	2	El tablón	1	Enero	2023-01-22T00:00:00	2024-11-06T05:00:00	5	Humedad	90
132517	7	Sololá	701	Sololá	2	El tablón	1	Enero	2023-01-22T00:00:00	2024-11-06T05:00:00	6	Velocidad del viento	3.2
132518	7	Sololá	701	Sololá	2	El tablón	1	Enero	2023-01-22T00:00:00	2024-11-06T05:00:00	7	Dirección del viento	3.22
132519	7	Sololá	701	Sololá	2	El tablón	1	Enero	2023-01-22T00:00:00	2024-11-06T05:00:00	1	Precipitación	0
132520	7	Sololá	701	Sololá	2	El tablón	1	Enero	2023-01-22T00:00:00	2024-11-06T05:00:00	8	Radiación solar	0
132521	7	Sololá	701	Sololá	2	El tablón	1	Enero	2023-01-22T00:00:00	2024-11-06T06:00:00	2	Temperatura media	7.1
132522	7	Sololá	701	Sololá	2	El tablón	1	Enero	2023-01-22T00:00:00	2024-11-06T06:00:00	4	Temperatura máxima	7.1
132523	7	Sololá	701	Sololá	2	El tablón	1	Enero	2023-01-22T00:00:00	2024-11-06T06:00:00	3	Temperatura mínima	5.8
132524	7	Sololá	701	Sololá	2	El tablón	1	Enero	2023-01-22T00:00:00	2024-11-06T06:00:00	5	Humedad	85
132525	7	Sololá	701	Sololá	2	El tablón	1	Enero	2023-01-22T00:00:00	2024-11-06T06:00:00	6	Velocidad del viento	1.6
132526	7	Sololá	701	Sololá	2	El tablón	1	Enero	2023-01-22T00:00:00	2024-11-06T06:00:00	7	Dirección del viento	1.61
132527	7	Sololá	701	Sololá	2	El tablón	1	Enero	2023-01-22T00:00:00	2024-11-06T06:00:00	1	Precipitación	0
132528	7	Sololá	701	Sololá	2	El tablón	1	Enero	2023-01-22T00:00:00	2024-11-06T06:00:00	8	Radiación solar	0
132529	7	Sololá	701	Sololá	2	El tablón	1	Enero	2023-01-22T00:00:00	2024-11-06T07:00:00	2	Temperatura media	6.7
132530	7	Sololá	701	Sololá	2	El tablón	1	Enero	2023-01-22T00:00:00	2024-11-06T07:00:00	4	Temperatura máxima	7.4
132531	7	Sololá	701	Sololá	2	El tablón	1	Enero	2023-01-22T00:00:00	2024-11-06T07:00:00	3	Temperatura mínima	6.4
132532	7	Sololá	701	Sololá	2	El tablón	1	Enero	2023-01-22T00:00:00	2024-11-06T07:00:00	5	Humedad	86
132533	7	Sololá	701	Sololá	2	El tablón	1	Enero	2023-01-22T00:00:00	2024-11-06T07:00:00	6	Velocidad del viento	3.2
132534	7	Sololá	701	Sololá	2	El tablón	1	Enero	2023-01-22T00:00:00	2024-11-06T07:00:00	7	Dirección del viento	3.22
132535	7	Sololá	701	Sololá	2	El tablón	1	Enero	2023-01-22T00:00:00	2024-11-06T07:00:00	1	Precipitación	0
132536	7	Sololá	701	Sololá	2	El tablón	1	Enero	2023-01-22T00:00:00	2024-11-06T07:00:00	8	Radiación solar	5
132537	7	Sololá	701	Sololá	2	El tablón	1	Enero	2023-01-22T00:00:00	2024-11-06T08:00:00	2	Temperatura media	9.3
132538	7	Sololá	701	Sololá	2	El tablón	1	Enero	2023-01-22T00:00:00	2024-11-06T08:00:00	4	Temperatura máxima	9.3
132539	7	Sololá	701	Sololá	2	El tablón	1	Enero	2023-01-22T00:00:00	2024-11-06T08:00:00	3	Temperatura mínima	6.5
132540	7	Sololá	701	Sololá	2	El tablón	1	Enero	2023-01-22T00:00:00	2024-11-06T08:00:00	5	Humedad	84
132541	7	Sololá	701	Sololá	2	El tablón	1	Enero	2023-01-22T00:00:00	2024-11-06T08:00:00	6	Velocidad del viento	3.2
132542	7	Sololá	701	Sololá	2	El tablón	1	Enero	2023-01-22T00:00:00	2024-11-06T08:00:00	7	Dirección del viento	3.22
132543	7	Sololá	701	Sololá	2	El tablón	1	Enero	2023-01-22T00:00:00	2024-11-06T08:00:00	1	Precipitación	0
132544	7	Sololá	701	Sololá	2	El tablón	1	Enero	2023-01-22T00:00:00	2024-11-06T08:00:00	8	Radiación solar	116
132545	7	Sololá	701	Sololá	2	El tablón	1	Enero	2023-01-22T00:00:00	2024-11-06T09:00:00	2	Temperatura media	12.9
132546	7	Sololá	701	Sololá	2	El tablón	1	Enero	2023-01-22T00:00:00	2024-11-06T09:00:00	4	Temperatura máxima	12.9
132547	7	Sololá	701	Sololá	2	El tablón	1	Enero	2023-01-22T00:00:00	2024-11-06T09:00:00	3	Temperatura mínima	9.3
132548	7	Sololá	701	Sololá	2	El tablón	1	Enero	2023-01-22T00:00:00	2024-11-06T09:00:00	5	Humedad	62
132549	7	Sololá	701	Sololá	2	El tablón	1	Enero	2023-01-22T00:00:00	2024-11-06T09:00:00	6	Velocidad del viento	3.2
132550	7	Sololá	701	Sololá	2	El tablón	1	Enero	2023-01-22T00:00:00	2024-11-06T09:00:00	7	Dirección del viento	3.22
132551	7	Sololá	701	Sololá	2	El tablón	1	Enero	2023-01-22T00:00:00	2024-11-06T09:00:00	1	Precipitación	0
132552	7	Sololá	701	Sololá	2	El tablón	1	Enero	2023-01-22T00:00:00	2024-11-06T09:00:00	8	Radiación solar	346
132553	7	Sololá	701	Sololá	2	El tablón	1	Enero	2023-01-22T00:00:00	2024-11-06T10:00:00	2	Temperatura media	15.1
132554	7	Sololá	701	Sololá	2	El tablón	1	Enero	2023-01-22T00:00:00	2024-11-06T10:00:00	4	Temperatura máxima	15.2
132555	7	Sololá	701	Sololá	2	El tablón	1	Enero	2023-01-22T00:00:00	2024-11-06T10:00:00	3	Temperatura mínima	13
132556	7	Sololá	701	Sololá	2	El tablón	1	Enero	2023-01-22T00:00:00	2024-11-06T10:00:00	5	Humedad	43
132557	7	Sololá	701	Sololá	2	El tablón	1	Enero	2023-01-22T00:00:00	2024-11-06T10:00:00	6	Velocidad del viento	4.8
132558	7	Sololá	701	Sololá	2	El tablón	1	Enero	2023-01-22T00:00:00	2024-11-06T10:00:00	7	Dirección del viento	4.83
132559	7	Sololá	701	Sololá	2	El tablón	1	Enero	2023-01-22T00:00:00	2024-11-06T10:00:00	1	Precipitación	0
132560	7	Sololá	701	Sololá	2	El tablón	1	Enero	2023-01-22T00:00:00	2024-11-06T10:00:00	8	Radiación solar	540
132561	7	Sololá	701	Sololá	2	El tablón	1	Enero	2023-01-22T00:00:00	2024-11-06T11:00:00	2	Temperatura media	15.5
132562	7	Sololá	701	Sololá	2	El tablón	1	Enero	2023-01-22T00:00:00	2024-11-06T11:00:00	4	Temperatura máxima	15.7
132563	7	Sololá	701	Sololá	2	El tablón	1	Enero	2023-01-22T00:00:00	2024-11-06T11:00:00	3	Temperatura mínima	14.9
132564	7	Sololá	701	Sololá	2	El tablón	1	Enero	2023-01-22T00:00:00	2024-11-06T11:00:00	5	Humedad	39
132565	7	Sololá	701	Sololá	2	El tablón	1	Enero	2023-01-22T00:00:00	2024-11-06T11:00:00	6	Velocidad del viento	6.4
132566	7	Sololá	701	Sololá	2	El tablón	1	Enero	2023-01-22T00:00:00	2024-11-06T11:00:00	7	Dirección del viento	6.44
132567	7	Sololá	701	Sololá	2	El tablón	1	Enero	2023-01-22T00:00:00	2024-11-06T11:00:00	1	Precipitación	0
132568	7	Sololá	701	Sololá	2	El tablón	1	Enero	2023-01-22T00:00:00	2024-11-06T11:00:00	8	Radiación solar	694
132569	7	Sololá	701	Sololá	2	El tablón	1	Enero	2023-01-22T00:00:00	2024-11-06T12:00:00	2	Temperatura media	16.7
132570	7	Sololá	701	Sololá	2	El tablón	1	Enero	2023-01-22T00:00:00	2024-11-06T12:00:00	4	Temperatura máxima	16.7
132571	7	Sololá	701	Sololá	2	El tablón	1	Enero	2023-01-22T00:00:00	2024-11-06T12:00:00	3	Temperatura mínima	15.5
132572	7	Sololá	701	Sololá	2	El tablón	1	Enero	2023-01-22T00:00:00	2024-11-06T12:00:00	5	Humedad	37
132573	7	Sololá	701	Sololá	2	El tablón	1	Enero	2023-01-22T00:00:00	2024-11-06T12:00:00	6	Velocidad del viento	8
132574	7	Sololá	701	Sololá	2	El tablón	1	Enero	2023-01-22T00:00:00	2024-11-06T12:00:00	7	Dirección del viento	8.05
132575	7	Sololá	701	Sololá	2	El tablón	1	Enero	2023-01-22T00:00:00	2024-11-06T12:00:00	1	Precipitación	0
132576	7	Sololá	701	Sololá	2	El tablón	1	Enero	2023-01-22T00:00:00	2024-11-06T12:00:00	8	Radiación solar	687
132577	7	Sololá	701	Sololá	2	El tablón	1	Enero	2023-01-22T00:00:00	2024-11-06T13:00:00	2	Temperatura media	16.3
132578	7	Sololá	701	Sololá	2	El tablón	1	Enero	2023-01-22T00:00:00	2024-11-06T13:00:00	4	Temperatura máxima	16.8
132579	7	Sololá	701	Sololá	2	El tablón	1	Enero	2023-01-22T00:00:00	2024-11-06T13:00:00	3	Temperatura mínima	16.2
132580	7	Sololá	701	Sololá	2	El tablón	1	Enero	2023-01-22T00:00:00	2024-11-06T13:00:00	5	Humedad	40
132581	7	Sololá	701	Sololá	2	El tablón	1	Enero	2023-01-22T00:00:00	2024-11-06T13:00:00	6	Velocidad del viento	9.7
132582	7	Sololá	701	Sololá	2	El tablón	1	Enero	2023-01-22T00:00:00	2024-11-06T13:00:00	7	Dirección del viento	9.66
132583	7	Sololá	701	Sololá	2	El tablón	1	Enero	2023-01-22T00:00:00	2024-11-06T13:00:00	1	Precipitación	0
132584	7	Sololá	701	Sololá	2	El tablón	1	Enero	2023-01-22T00:00:00	2024-11-06T13:00:00	8	Radiación solar	805
132585	7	Sololá	701	Sololá	2	El tablón	1	Enero	2023-01-22T00:00:00	2024-11-06T14:00:00	2	Temperatura media	15.8
132586	7	Sololá	701	Sololá	2	El tablón	1	Enero	2023-01-22T00:00:00	2024-11-06T14:00:00	4	Temperatura máxima	16.6
132587	7	Sololá	701	Sololá	2	El tablón	1	Enero	2023-01-22T00:00:00	2024-11-06T14:00:00	3	Temperatura mínima	15.7
132588	7	Sololá	701	Sololá	2	El tablón	1	Enero	2023-01-22T00:00:00	2024-11-06T14:00:00	5	Humedad	70
132589	7	Sololá	701	Sololá	2	El tablón	1	Enero	2023-01-22T00:00:00	2024-11-06T14:00:00	6	Velocidad del viento	9.7
132590	7	Sololá	701	Sololá	2	El tablón	1	Enero	2023-01-22T00:00:00	2024-11-06T14:00:00	7	Dirección del viento	9.66
132591	7	Sololá	701	Sololá	2	El tablón	1	Enero	2023-01-22T00:00:00	2024-11-06T14:00:00	1	Precipitación	0
132592	7	Sololá	701	Sololá	2	El tablón	1	Enero	2023-01-22T00:00:00	2024-11-06T14:00:00	8	Radiación solar	752
132593	7	Sololá	701	Sololá	2	El tablón	1	Enero	2023-01-22T00:00:00	2024-11-06T15:00:00	2	Temperatura media	15.5
132594	7	Sololá	701	Sololá	2	El tablón	1	Enero	2023-01-22T00:00:00	2024-11-06T15:00:00	4	Temperatura máxima	16.4
132595	7	Sololá	701	Sololá	2	El tablón	1	Enero	2023-01-22T00:00:00	2024-11-06T15:00:00	3	Temperatura mínima	15.5
132596	7	Sololá	701	Sololá	2	El tablón	1	Enero	2023-01-22T00:00:00	2024-11-06T15:00:00	5	Humedad	77
132597	7	Sololá	701	Sololá	2	El tablón	1	Enero	2023-01-22T00:00:00	2024-11-06T15:00:00	6	Velocidad del viento	9.7
132598	7	Sololá	701	Sololá	2	El tablón	1	Enero	2023-01-22T00:00:00	2024-11-06T15:00:00	7	Dirección del viento	9.66
132599	7	Sololá	701	Sololá	2	El tablón	1	Enero	2023-01-22T00:00:00	2024-11-06T15:00:00	1	Precipitación	0
132600	7	Sololá	701	Sololá	2	El tablón	1	Enero	2023-01-22T00:00:00	2024-11-06T15:00:00	8	Radiación solar	672
132601	7	Sololá	701	Sololá	2	El tablón	1	Enero	2023-01-22T00:00:00	2024-11-06T16:00:00	2	Temperatura media	14.4
132602	7	Sololá	701	Sololá	2	El tablón	1	Enero	2023-01-22T00:00:00	2024-11-06T16:00:00	4	Temperatura máxima	15.8
132603	7	Sololá	701	Sololá	2	El tablón	1	Enero	2023-01-22T00:00:00	2024-11-06T16:00:00	3	Temperatura mínima	14.4
132604	7	Sololá	701	Sololá	2	El tablón	1	Enero	2023-01-22T00:00:00	2024-11-06T16:00:00	5	Humedad	83
132605	7	Sololá	701	Sololá	2	El tablón	1	Enero	2023-01-22T00:00:00	2024-11-06T16:00:00	6	Velocidad del viento	9.7
132606	7	Sololá	701	Sololá	2	El tablón	1	Enero	2023-01-22T00:00:00	2024-11-06T16:00:00	7	Dirección del viento	9.66
132607	7	Sololá	701	Sololá	2	El tablón	1	Enero	2023-01-22T00:00:00	2024-11-06T16:00:00	1	Precipitación	0
132608	7	Sololá	701	Sololá	2	El tablón	1	Enero	2023-01-22T00:00:00	2024-11-06T16:00:00	8	Radiación solar	491
132609	7	Sololá	701	Sololá	2	El tablón	1	Enero	2023-01-22T00:00:00	2024-11-06T17:00:00	2	Temperatura media	13.5
132610	7	Sololá	701	Sololá	2	El tablón	1	Enero	2023-01-22T00:00:00	2024-11-06T17:00:00	4	Temperatura máxima	15
132611	7	Sololá	701	Sololá	2	El tablón	1	Enero	2023-01-22T00:00:00	2024-11-06T17:00:00	3	Temperatura mínima	13.5
132612	7	Sololá	701	Sololá	2	El tablón	1	Enero	2023-01-22T00:00:00	2024-11-06T17:00:00	5	Humedad	88
132613	7	Sololá	701	Sololá	2	El tablón	1	Enero	2023-01-22T00:00:00	2024-11-06T17:00:00	6	Velocidad del viento	6.4
132614	7	Sololá	701	Sololá	2	El tablón	1	Enero	2023-01-22T00:00:00	2024-11-06T17:00:00	7	Dirección del viento	6.44
132615	7	Sololá	701	Sololá	2	El tablón	1	Enero	2023-01-22T00:00:00	2024-11-06T17:00:00	1	Precipitación	0
132616	7	Sololá	701	Sololá	2	El tablón	1	Enero	2023-01-22T00:00:00	2024-11-06T17:00:00	8	Radiación solar	184
132617	7	Sololá	701	Sololá	2	El tablón	1	Enero	2023-01-22T00:00:00	2024-11-06T18:00:00	2	Temperatura media	12.8
132618	7	Sololá	701	Sololá	2	El tablón	1	Enero	2023-01-22T00:00:00	2024-11-06T18:00:00	4	Temperatura máxima	13.5
132619	7	Sololá	701	Sololá	2	El tablón	1	Enero	2023-01-22T00:00:00	2024-11-06T18:00:00	3	Temperatura mínima	12.7
132620	7	Sololá	701	Sololá	2	El tablón	1	Enero	2023-01-22T00:00:00	2024-11-06T18:00:00	5	Humedad	89
132621	7	Sololá	701	Sololá	2	El tablón	1	Enero	2023-01-22T00:00:00	2024-11-06T18:00:00	6	Velocidad del viento	3.2
132622	7	Sololá	701	Sololá	2	El tablón	1	Enero	2023-01-22T00:00:00	2024-11-06T18:00:00	7	Dirección del viento	3.22
132623	7	Sololá	701	Sololá	2	El tablón	1	Enero	2023-01-22T00:00:00	2024-11-06T18:00:00	1	Precipitación	0
132624	7	Sololá	701	Sololá	2	El tablón	1	Enero	2023-01-22T00:00:00	2024-11-06T18:00:00	8	Radiación solar	10
132625	7	Sololá	701	Sololá	2	El tablón	1	Enero	2023-01-22T00:00:00	2024-11-06T19:00:00	2	Temperatura media	11.9
132626	7	Sololá	701	Sololá	2	El tablón	1	Enero	2023-01-22T00:00:00	2024-11-06T19:00:00	4	Temperatura máxima	12.8
132627	7	Sololá	701	Sololá	2	El tablón	1	Enero	2023-01-22T00:00:00	2024-11-06T19:00:00	3	Temperatura mínima	11.9
132628	7	Sololá	701	Sololá	2	El tablón	1	Enero	2023-01-22T00:00:00	2024-11-06T19:00:00	5	Humedad	90
132629	7	Sololá	701	Sololá	2	El tablón	1	Enero	2023-01-22T00:00:00	2024-11-06T19:00:00	6	Velocidad del viento	1.6
132630	7	Sololá	701	Sololá	2	El tablón	1	Enero	2023-01-22T00:00:00	2024-11-06T19:00:00	7	Dirección del viento	1.61
132631	7	Sololá	701	Sololá	2	El tablón	1	Enero	2023-01-22T00:00:00	2024-11-06T19:00:00	1	Precipitación	0
132632	7	Sololá	701	Sololá	2	El tablón	1	Enero	2023-01-22T00:00:00	2024-11-06T19:00:00	8	Radiación solar	0
132633	7	Sololá	701	Sololá	2	El tablón	1	Enero	2023-01-22T00:00:00	2024-11-06T20:00:00	2	Temperatura media	11.1
132634	7	Sololá	701	Sololá	2	El tablón	1	Enero	2023-01-22T00:00:00	2024-11-06T20:00:00	4	Temperatura máxima	11.9
132635	7	Sololá	701	Sololá	2	El tablón	1	Enero	2023-01-22T00:00:00	2024-11-06T20:00:00	3	Temperatura mínima	10.9
132636	7	Sololá	701	Sololá	2	El tablón	1	Enero	2023-01-22T00:00:00	2024-11-06T20:00:00	5	Humedad	89
132637	7	Sololá	701	Sololá	2	El tablón	1	Enero	2023-01-22T00:00:00	2024-11-06T20:00:00	6	Velocidad del viento	3.2
132638	7	Sololá	701	Sololá	2	El tablón	1	Enero	2023-01-22T00:00:00	2024-11-06T20:00:00	7	Dirección del viento	3.22
132639	7	Sololá	701	Sololá	2	El tablón	1	Enero	2023-01-22T00:00:00	2024-11-06T20:00:00	1	Precipitación	0
132640	7	Sololá	701	Sololá	2	El tablón	1	Enero	2023-01-22T00:00:00	2024-11-06T20:00:00	8	Radiación solar	0
132641	7	Sololá	701	Sololá	2	El tablón	1	Enero	2023-01-22T00:00:00	2024-11-06T21:00:00	2	Temperatura media	11.5
132642	7	Sololá	701	Sololá	2	El tablón	1	Enero	2023-01-22T00:00:00	2024-11-06T21:00:00	4	Temperatura máxima	11.7
132643	7	Sololá	701	Sololá	2	El tablón	1	Enero	2023-01-22T00:00:00	2024-11-06T21:00:00	3	Temperatura mínima	11.2
132644	7	Sololá	701	Sololá	2	El tablón	1	Enero	2023-01-22T00:00:00	2024-11-06T21:00:00	5	Humedad	86
132645	7	Sololá	701	Sololá	2	El tablón	1	Enero	2023-01-22T00:00:00	2024-11-06T21:00:00	6	Velocidad del viento	3.2
132646	7	Sololá	701	Sololá	2	El tablón	1	Enero	2023-01-22T00:00:00	2024-11-06T21:00:00	7	Dirección del viento	3.22
132647	7	Sololá	701	Sololá	2	El tablón	1	Enero	2023-01-22T00:00:00	2024-11-06T21:00:00	1	Precipitación	0
132648	7	Sololá	701	Sololá	2	El tablón	1	Enero	2023-01-22T00:00:00	2024-11-06T21:00:00	8	Radiación solar	0
132649	7	Sololá	701	Sololá	2	El tablón	1	Enero	2023-01-22T00:00:00	2024-11-06T22:00:00	2	Temperatura media	11.2
132650	7	Sololá	701	Sololá	2	El tablón	1	Enero	2023-01-22T00:00:00	2024-11-06T22:00:00	4	Temperatura máxima	11.6
132651	7	Sololá	701	Sololá	2	El tablón	1	Enero	2023-01-22T00:00:00	2024-11-06T22:00:00	3	Temperatura mínima	11.2
132652	7	Sololá	701	Sololá	2	El tablón	1	Enero	2023-01-22T00:00:00	2024-11-06T22:00:00	5	Humedad	83
132653	7	Sololá	701	Sololá	2	El tablón	1	Enero	2023-01-22T00:00:00	2024-11-06T22:00:00	6	Velocidad del viento	4.8
132654	7	Sololá	701	Sololá	2	El tablón	1	Enero	2023-01-22T00:00:00	2024-11-06T22:00:00	7	Dirección del viento	4.83
132655	7	Sololá	701	Sololá	2	El tablón	1	Enero	2023-01-22T00:00:00	2024-11-06T22:00:00	1	Precipitación	0
132656	7	Sololá	701	Sololá	2	El tablón	1	Enero	2023-01-22T00:00:00	2024-11-06T22:00:00	8	Radiación solar	0
132657	7	Sololá	701	Sololá	2	El tablón	1	Enero	2023-01-22T00:00:00	2024-11-06T23:00:00	2	Temperatura media	10.8
132658	7	Sololá	701	Sololá	2	El tablón	1	Enero	2023-01-22T00:00:00	2024-11-06T23:00:00	4	Temperatura máxima	11.2
132659	7	Sololá	701	Sololá	2	El tablón	1	Enero	2023-01-22T00:00:00	2024-11-06T23:00:00	3	Temperatura mínima	10.8
132660	7	Sololá	701	Sololá	2	El tablón	1	Enero	2023-01-22T00:00:00	2024-11-06T23:00:00	5	Humedad	86
132661	7	Sololá	701	Sololá	2	El tablón	1	Enero	2023-01-22T00:00:00	2024-11-06T23:00:00	6	Velocidad del viento	6.4
132662	7	Sololá	701	Sololá	2	El tablón	1	Enero	2023-01-22T00:00:00	2024-11-06T23:00:00	7	Dirección del viento	6.44
132663	7	Sololá	701	Sololá	2	El tablón	1	Enero	2023-01-22T00:00:00	2024-11-06T23:00:00	1	Precipitación	0
132664	7	Sololá	701	Sololá	2	El tablón	1	Enero	2023-01-22T00:00:00	2024-11-06T23:00:00	8	Radiación solar	0
132665	7	Sololá	701	Sololá	2	El tablón	1	Enero	2023-01-23T00:00:00	2024-11-06T00:00:00	2	Temperatura media	10.7
132666	7	Sololá	701	Sololá	2	El tablón	1	Enero	2023-01-23T00:00:00	2024-11-06T00:00:00	4	Temperatura máxima	10.9
132667	7	Sololá	701	Sololá	2	El tablón	1	Enero	2023-01-23T00:00:00	2024-11-06T00:00:00	3	Temperatura mínima	10.7
132668	7	Sololá	701	Sololá	2	El tablón	1	Enero	2023-01-23T00:00:00	2024-11-06T00:00:00	5	Humedad	87
132669	7	Sololá	701	Sololá	2	El tablón	1	Enero	2023-01-23T00:00:00	2024-11-06T00:00:00	6	Velocidad del viento	6.4
132670	7	Sololá	701	Sololá	2	El tablón	1	Enero	2023-01-23T00:00:00	2024-11-06T00:00:00	7	Dirección del viento	6.44
132671	7	Sololá	701	Sololá	2	El tablón	1	Enero	2023-01-23T00:00:00	2024-11-06T00:00:00	1	Precipitación	0
132672	7	Sololá	701	Sololá	2	El tablón	1	Enero	2023-01-23T00:00:00	2024-11-06T00:00:00	8	Radiación solar	0
132673	7	Sololá	701	Sololá	2	El tablón	1	Enero	2023-01-23T00:00:00	2024-11-06T01:00:00	2	Temperatura media	10.4
132674	7	Sololá	701	Sololá	2	El tablón	1	Enero	2023-01-23T00:00:00	2024-11-06T01:00:00	4	Temperatura máxima	10.8
132675	7	Sololá	701	Sololá	2	El tablón	1	Enero	2023-01-23T00:00:00	2024-11-06T01:00:00	3	Temperatura mínima	10.4
132676	7	Sololá	701	Sololá	2	El tablón	1	Enero	2023-01-23T00:00:00	2024-11-06T01:00:00	5	Humedad	88
132677	7	Sololá	701	Sololá	2	El tablón	1	Enero	2023-01-23T00:00:00	2024-11-06T01:00:00	6	Velocidad del viento	6.4
132678	7	Sololá	701	Sololá	2	El tablón	1	Enero	2023-01-23T00:00:00	2024-11-06T01:00:00	7	Dirección del viento	6.44
132679	7	Sololá	701	Sololá	2	El tablón	1	Enero	2023-01-23T00:00:00	2024-11-06T01:00:00	1	Precipitación	0
132680	7	Sololá	701	Sololá	2	El tablón	1	Enero	2023-01-23T00:00:00	2024-11-06T01:00:00	8	Radiación solar	0
132681	7	Sololá	701	Sololá	2	El tablón	1	Enero	2023-01-23T00:00:00	2024-11-06T02:00:00	2	Temperatura media	10.1
132682	7	Sololá	701	Sololá	2	El tablón	1	Enero	2023-01-23T00:00:00	2024-11-06T02:00:00	4	Temperatura máxima	10.4
132683	7	Sololá	701	Sololá	2	El tablón	1	Enero	2023-01-23T00:00:00	2024-11-06T02:00:00	3	Temperatura mínima	10.1
132684	7	Sololá	701	Sololá	2	El tablón	1	Enero	2023-01-23T00:00:00	2024-11-06T02:00:00	5	Humedad	87
132685	7	Sololá	701	Sololá	2	El tablón	1	Enero	2023-01-23T00:00:00	2024-11-06T02:00:00	6	Velocidad del viento	6.4
132686	7	Sololá	701	Sololá	2	El tablón	1	Enero	2023-01-23T00:00:00	2024-11-06T02:00:00	7	Dirección del viento	6.44
132687	7	Sololá	701	Sololá	2	El tablón	1	Enero	2023-01-23T00:00:00	2024-11-06T02:00:00	1	Precipitación	0
132688	7	Sololá	701	Sololá	2	El tablón	1	Enero	2023-01-23T00:00:00	2024-11-06T02:00:00	8	Radiación solar	0
132689	7	Sololá	701	Sololá	2	El tablón	1	Enero	2023-01-23T00:00:00	2024-11-06T03:00:00	2	Temperatura media	9.9
132690	7	Sololá	701	Sololá	2	El tablón	1	Enero	2023-01-23T00:00:00	2024-11-06T03:00:00	4	Temperatura máxima	10.1
132691	7	Sololá	701	Sololá	2	El tablón	1	Enero	2023-01-23T00:00:00	2024-11-06T03:00:00	3	Temperatura mínima	9.8
132692	7	Sololá	701	Sololá	2	El tablón	1	Enero	2023-01-23T00:00:00	2024-11-06T03:00:00	5	Humedad	87
132693	7	Sololá	701	Sololá	2	El tablón	1	Enero	2023-01-23T00:00:00	2024-11-06T03:00:00	6	Velocidad del viento	6.4
132694	7	Sololá	701	Sololá	2	El tablón	1	Enero	2023-01-23T00:00:00	2024-11-06T03:00:00	7	Dirección del viento	6.44
132695	7	Sololá	701	Sololá	2	El tablón	1	Enero	2023-01-23T00:00:00	2024-11-06T03:00:00	1	Precipitación	0
132696	7	Sololá	701	Sololá	2	El tablón	1	Enero	2023-01-23T00:00:00	2024-11-06T03:00:00	8	Radiación solar	0
132697	7	Sololá	701	Sololá	2	El tablón	1	Enero	2023-01-23T00:00:00	2024-11-06T04:00:00	2	Temperatura media	9.7
132698	7	Sololá	701	Sololá	2	El tablón	1	Enero	2023-01-23T00:00:00	2024-11-06T04:00:00	4	Temperatura máxima	9.9
132699	7	Sololá	701	Sololá	2	El tablón	1	Enero	2023-01-23T00:00:00	2024-11-06T04:00:00	3	Temperatura mínima	9.7
132700	7	Sololá	701	Sololá	2	El tablón	1	Enero	2023-01-23T00:00:00	2024-11-06T04:00:00	5	Humedad	87
132701	7	Sololá	701	Sololá	2	El tablón	1	Enero	2023-01-23T00:00:00	2024-11-06T04:00:00	6	Velocidad del viento	8
132702	7	Sololá	701	Sololá	2	El tablón	1	Enero	2023-01-23T00:00:00	2024-11-06T04:00:00	7	Dirección del viento	8.05
132703	7	Sololá	701	Sololá	2	El tablón	1	Enero	2023-01-23T00:00:00	2024-11-06T04:00:00	1	Precipitación	0
132704	7	Sololá	701	Sololá	2	El tablón	1	Enero	2023-01-23T00:00:00	2024-11-06T04:00:00	8	Radiación solar	0
132705	7	Sololá	701	Sololá	2	El tablón	1	Enero	2023-01-23T00:00:00	2024-11-06T05:00:00	2	Temperatura media	9.6
132706	7	Sololá	701	Sololá	2	El tablón	1	Enero	2023-01-23T00:00:00	2024-11-06T05:00:00	4	Temperatura máxima	9.8
132707	7	Sololá	701	Sololá	2	El tablón	1	Enero	2023-01-23T00:00:00	2024-11-06T05:00:00	3	Temperatura mínima	9.6
132708	7	Sololá	701	Sololá	2	El tablón	1	Enero	2023-01-23T00:00:00	2024-11-06T05:00:00	5	Humedad	82
132709	7	Sololá	701	Sololá	2	El tablón	1	Enero	2023-01-23T00:00:00	2024-11-06T05:00:00	6	Velocidad del viento	8
132710	7	Sololá	701	Sololá	2	El tablón	1	Enero	2023-01-23T00:00:00	2024-11-06T05:00:00	7	Dirección del viento	8.05
132711	7	Sololá	701	Sololá	2	El tablón	1	Enero	2023-01-23T00:00:00	2024-11-06T05:00:00	1	Precipitación	0
132712	7	Sololá	701	Sololá	2	El tablón	1	Enero	2023-01-23T00:00:00	2024-11-06T05:00:00	8	Radiación solar	0
132713	7	Sololá	701	Sololá	2	El tablón	1	Enero	2023-01-23T00:00:00	2024-11-06T06:00:00	2	Temperatura media	9.2
132714	7	Sololá	701	Sololá	2	El tablón	1	Enero	2023-01-23T00:00:00	2024-11-06T06:00:00	4	Temperatura máxima	9.7
132715	7	Sololá	701	Sololá	2	El tablón	1	Enero	2023-01-23T00:00:00	2024-11-06T06:00:00	3	Temperatura mínima	9.2
132716	7	Sololá	701	Sololá	2	El tablón	1	Enero	2023-01-23T00:00:00	2024-11-06T06:00:00	5	Humedad	87
132717	7	Sololá	701	Sololá	2	El tablón	1	Enero	2023-01-23T00:00:00	2024-11-06T06:00:00	6	Velocidad del viento	9.7
132718	7	Sololá	701	Sololá	2	El tablón	1	Enero	2023-01-23T00:00:00	2024-11-06T06:00:00	7	Dirección del viento	9.66
132719	7	Sololá	701	Sololá	2	El tablón	1	Enero	2023-01-23T00:00:00	2024-11-06T06:00:00	1	Precipitación	0
132720	7	Sololá	701	Sololá	2	El tablón	1	Enero	2023-01-23T00:00:00	2024-11-06T06:00:00	8	Radiación solar	0
132721	7	Sololá	701	Sololá	2	El tablón	1	Enero	2023-01-23T00:00:00	2024-11-06T07:00:00	2	Temperatura media	9.6
132722	7	Sololá	701	Sololá	2	El tablón	1	Enero	2023-01-23T00:00:00	2024-11-06T07:00:00	4	Temperatura máxima	9.6
132723	7	Sololá	701	Sololá	2	El tablón	1	Enero	2023-01-23T00:00:00	2024-11-06T07:00:00	3	Temperatura mínima	8.9
132724	7	Sololá	701	Sololá	2	El tablón	1	Enero	2023-01-23T00:00:00	2024-11-06T07:00:00	5	Humedad	82
132725	7	Sololá	701	Sololá	2	El tablón	1	Enero	2023-01-23T00:00:00	2024-11-06T07:00:00	6	Velocidad del viento	8
132726	7	Sololá	701	Sololá	2	El tablón	1	Enero	2023-01-23T00:00:00	2024-11-06T07:00:00	7	Dirección del viento	8.05
132727	7	Sololá	701	Sololá	2	El tablón	1	Enero	2023-01-23T00:00:00	2024-11-06T07:00:00	1	Precipitación	0
132728	7	Sololá	701	Sololá	2	El tablón	1	Enero	2023-01-23T00:00:00	2024-11-06T07:00:00	8	Radiación solar	4
132729	7	Sololá	701	Sololá	2	El tablón	1	Enero	2023-01-23T00:00:00	2024-11-06T08:00:00	2	Temperatura media	11.8
132730	7	Sololá	701	Sololá	2	El tablón	1	Enero	2023-01-23T00:00:00	2024-11-06T08:00:00	4	Temperatura máxima	11.9
132731	7	Sololá	701	Sololá	2	El tablón	1	Enero	2023-01-23T00:00:00	2024-11-06T08:00:00	3	Temperatura mínima	9.6
132732	7	Sololá	701	Sololá	2	El tablón	1	Enero	2023-01-23T00:00:00	2024-11-06T08:00:00	5	Humedad	74
132733	7	Sololá	701	Sololá	2	El tablón	1	Enero	2023-01-23T00:00:00	2024-11-06T08:00:00	6	Velocidad del viento	9.7
132734	7	Sololá	701	Sololá	2	El tablón	1	Enero	2023-01-23T00:00:00	2024-11-06T08:00:00	7	Dirección del viento	9.66
132735	7	Sololá	701	Sololá	2	El tablón	1	Enero	2023-01-23T00:00:00	2024-11-06T08:00:00	1	Precipitación	0
132736	7	Sololá	701	Sololá	2	El tablón	1	Enero	2023-01-23T00:00:00	2024-11-06T08:00:00	8	Radiación solar	113
132737	7	Sololá	701	Sololá	2	El tablón	1	Enero	2023-01-23T00:00:00	2024-11-06T09:00:00	2	Temperatura media	13.6
132738	7	Sololá	701	Sololá	2	El tablón	1	Enero	2023-01-23T00:00:00	2024-11-06T09:00:00	4	Temperatura máxima	13.6
132739	7	Sololá	701	Sololá	2	El tablón	1	Enero	2023-01-23T00:00:00	2024-11-06T09:00:00	3	Temperatura mínima	11.8
132740	7	Sololá	701	Sololá	2	El tablón	1	Enero	2023-01-23T00:00:00	2024-11-06T09:00:00	5	Humedad	69
132741	7	Sololá	701	Sololá	2	El tablón	1	Enero	2023-01-23T00:00:00	2024-11-06T09:00:00	6	Velocidad del viento	9.7
132742	7	Sololá	701	Sololá	2	El tablón	1	Enero	2023-01-23T00:00:00	2024-11-06T09:00:00	7	Dirección del viento	9.66
132743	7	Sololá	701	Sololá	2	El tablón	1	Enero	2023-01-23T00:00:00	2024-11-06T09:00:00	1	Precipitación	0
132744	7	Sololá	701	Sololá	2	El tablón	1	Enero	2023-01-23T00:00:00	2024-11-06T09:00:00	8	Radiación solar	341
132745	7	Sololá	701	Sololá	2	El tablón	1	Enero	2023-01-23T00:00:00	2024-11-06T10:00:00	2	Temperatura media	15.1
132746	7	Sololá	701	Sololá	2	El tablón	1	Enero	2023-01-23T00:00:00	2024-11-06T10:00:00	4	Temperatura máxima	15.2
132747	7	Sololá	701	Sololá	2	El tablón	1	Enero	2023-01-23T00:00:00	2024-11-06T10:00:00	3	Temperatura mínima	13.6
132748	7	Sololá	701	Sololá	2	El tablón	1	Enero	2023-01-23T00:00:00	2024-11-06T10:00:00	5	Humedad	57
132749	7	Sololá	701	Sololá	2	El tablón	1	Enero	2023-01-23T00:00:00	2024-11-06T10:00:00	6	Velocidad del viento	12.9
132750	7	Sololá	701	Sololá	2	El tablón	1	Enero	2023-01-23T00:00:00	2024-11-06T10:00:00	7	Dirección del viento	12.87
132751	7	Sololá	701	Sololá	2	El tablón	1	Enero	2023-01-23T00:00:00	2024-11-06T10:00:00	1	Precipitación	0
132752	7	Sololá	701	Sololá	2	El tablón	1	Enero	2023-01-23T00:00:00	2024-11-06T10:00:00	8	Radiación solar	536
132753	7	Sololá	701	Sololá	2	El tablón	1	Enero	2023-01-23T00:00:00	2024-11-06T11:00:00	2	Temperatura media	15.8
132754	7	Sololá	701	Sololá	2	El tablón	1	Enero	2023-01-23T00:00:00	2024-11-06T11:00:00	4	Temperatura máxima	15.9
132755	7	Sololá	701	Sololá	2	El tablón	1	Enero	2023-01-23T00:00:00	2024-11-06T11:00:00	3	Temperatura mínima	15.1
132756	7	Sololá	701	Sololá	2	El tablón	1	Enero	2023-01-23T00:00:00	2024-11-06T11:00:00	5	Humedad	55
132757	7	Sololá	701	Sololá	2	El tablón	1	Enero	2023-01-23T00:00:00	2024-11-06T11:00:00	6	Velocidad del viento	12.9
132758	7	Sololá	701	Sololá	2	El tablón	1	Enero	2023-01-23T00:00:00	2024-11-06T11:00:00	7	Dirección del viento	12.87
132759	7	Sololá	701	Sololá	2	El tablón	1	Enero	2023-01-23T00:00:00	2024-11-06T11:00:00	1	Precipitación	0
132760	7	Sololá	701	Sololá	2	El tablón	1	Enero	2023-01-23T00:00:00	2024-11-06T11:00:00	8	Radiación solar	682
132761	7	Sololá	701	Sololá	2	El tablón	1	Enero	2023-01-23T00:00:00	2024-11-06T12:00:00	2	Temperatura media	16.8
132762	7	Sololá	701	Sololá	2	El tablón	1	Enero	2023-01-23T00:00:00	2024-11-06T12:00:00	4	Temperatura máxima	17.2
132763	7	Sololá	701	Sololá	2	El tablón	1	Enero	2023-01-23T00:00:00	2024-11-06T12:00:00	3	Temperatura mínima	15.7
132764	7	Sololá	701	Sololá	2	El tablón	1	Enero	2023-01-23T00:00:00	2024-11-06T12:00:00	5	Humedad	51
132765	7	Sololá	701	Sololá	2	El tablón	1	Enero	2023-01-23T00:00:00	2024-11-06T12:00:00	6	Velocidad del viento	11.3
132766	7	Sololá	701	Sololá	2	El tablón	1	Enero	2023-01-23T00:00:00	2024-11-06T12:00:00	7	Dirección del viento	11.27
132767	7	Sololá	701	Sololá	2	El tablón	1	Enero	2023-01-23T00:00:00	2024-11-06T12:00:00	1	Precipitación	0
132768	7	Sololá	701	Sololá	2	El tablón	1	Enero	2023-01-23T00:00:00	2024-11-06T12:00:00	8	Radiación solar	672
132769	7	Sololá	701	Sololá	2	El tablón	1	Enero	2023-01-23T00:00:00	2024-11-06T13:00:00	2	Temperatura media	17.4
132770	7	Sololá	701	Sololá	2	El tablón	1	Enero	2023-01-23T00:00:00	2024-11-06T13:00:00	4	Temperatura máxima	17.7
132771	7	Sololá	701	Sololá	2	El tablón	1	Enero	2023-01-23T00:00:00	2024-11-06T13:00:00	3	Temperatura mínima	16.8
132772	7	Sololá	701	Sololá	2	El tablón	1	Enero	2023-01-23T00:00:00	2024-11-06T13:00:00	5	Humedad	51
132773	7	Sololá	701	Sololá	2	El tablón	1	Enero	2023-01-23T00:00:00	2024-11-06T13:00:00	6	Velocidad del viento	12.9
132774	7	Sololá	701	Sololá	2	El tablón	1	Enero	2023-01-23T00:00:00	2024-11-06T13:00:00	7	Dirección del viento	12.87
132775	7	Sololá	701	Sololá	2	El tablón	1	Enero	2023-01-23T00:00:00	2024-11-06T13:00:00	1	Precipitación	0
132776	7	Sololá	701	Sololá	2	El tablón	1	Enero	2023-01-23T00:00:00	2024-11-06T13:00:00	8	Radiación solar	792
132777	7	Sololá	701	Sololá	2	El tablón	1	Enero	2023-01-23T00:00:00	2024-11-06T14:00:00	2	Temperatura media	17.8
132778	7	Sololá	701	Sololá	2	El tablón	1	Enero	2023-01-23T00:00:00	2024-11-06T14:00:00	4	Temperatura máxima	17.9
132779	7	Sololá	701	Sololá	2	El tablón	1	Enero	2023-01-23T00:00:00	2024-11-06T14:00:00	3	Temperatura mínima	17.3
132780	7	Sololá	701	Sololá	2	El tablón	1	Enero	2023-01-23T00:00:00	2024-11-06T14:00:00	5	Humedad	50
132781	7	Sololá	701	Sololá	2	El tablón	1	Enero	2023-01-23T00:00:00	2024-11-06T14:00:00	6	Velocidad del viento	11.3
132782	7	Sololá	701	Sololá	2	El tablón	1	Enero	2023-01-23T00:00:00	2024-11-06T14:00:00	7	Dirección del viento	11.27
132783	7	Sololá	701	Sololá	2	El tablón	1	Enero	2023-01-23T00:00:00	2024-11-06T14:00:00	1	Precipitación	0
132784	7	Sololá	701	Sololá	2	El tablón	1	Enero	2023-01-23T00:00:00	2024-11-06T14:00:00	8	Radiación solar	757
132785	7	Sololá	701	Sololá	2	El tablón	1	Enero	2023-01-23T00:00:00	2024-11-06T15:00:00	2	Temperatura media	17.1
132786	7	Sololá	701	Sololá	2	El tablón	1	Enero	2023-01-23T00:00:00	2024-11-06T15:00:00	4	Temperatura máxima	18.2
132787	7	Sololá	701	Sololá	2	El tablón	1	Enero	2023-01-23T00:00:00	2024-11-06T15:00:00	3	Temperatura mínima	16.8
132788	7	Sololá	701	Sololá	2	El tablón	1	Enero	2023-01-23T00:00:00	2024-11-06T15:00:00	5	Humedad	54
132789	7	Sololá	701	Sololá	2	El tablón	1	Enero	2023-01-23T00:00:00	2024-11-06T15:00:00	6	Velocidad del viento	12.9
132790	7	Sololá	701	Sololá	2	El tablón	1	Enero	2023-01-23T00:00:00	2024-11-06T15:00:00	7	Dirección del viento	12.87
132791	7	Sololá	701	Sololá	2	El tablón	1	Enero	2023-01-23T00:00:00	2024-11-06T15:00:00	1	Precipitación	0
132792	7	Sololá	701	Sololá	2	El tablón	1	Enero	2023-01-23T00:00:00	2024-11-06T15:00:00	8	Radiación solar	603
132793	7	Sololá	701	Sololá	2	El tablón	1	Enero	2023-01-23T00:00:00	2024-11-06T16:00:00	2	Temperatura media	17
132794	7	Sololá	701	Sololá	2	El tablón	1	Enero	2023-01-23T00:00:00	2024-11-06T16:00:00	4	Temperatura máxima	17.7
132795	7	Sololá	701	Sololá	2	El tablón	1	Enero	2023-01-23T00:00:00	2024-11-06T16:00:00	3	Temperatura mínima	16.8
132796	7	Sololá	701	Sololá	2	El tablón	1	Enero	2023-01-23T00:00:00	2024-11-06T16:00:00	5	Humedad	52
132797	7	Sololá	701	Sololá	2	El tablón	1	Enero	2023-01-23T00:00:00	2024-11-06T16:00:00	6	Velocidad del viento	11.3
132798	7	Sololá	701	Sololá	2	El tablón	1	Enero	2023-01-23T00:00:00	2024-11-06T16:00:00	7	Dirección del viento	11.27
132799	7	Sololá	701	Sololá	2	El tablón	1	Enero	2023-01-23T00:00:00	2024-11-06T16:00:00	1	Precipitación	0
132800	7	Sololá	701	Sololá	2	El tablón	1	Enero	2023-01-23T00:00:00	2024-11-06T16:00:00	8	Radiación solar	489
132801	7	Sololá	701	Sololá	2	El tablón	1	Enero	2023-01-23T00:00:00	2024-11-06T17:00:00	2	Temperatura media	15.9
132802	7	Sololá	701	Sololá	2	El tablón	1	Enero	2023-01-23T00:00:00	2024-11-06T17:00:00	4	Temperatura máxima	17.1
132803	7	Sololá	701	Sololá	2	El tablón	1	Enero	2023-01-23T00:00:00	2024-11-06T17:00:00	3	Temperatura mínima	15.9
132804	7	Sololá	701	Sololá	2	El tablón	1	Enero	2023-01-23T00:00:00	2024-11-06T17:00:00	5	Humedad	64
132805	7	Sololá	701	Sololá	2	El tablón	1	Enero	2023-01-23T00:00:00	2024-11-06T17:00:00	6	Velocidad del viento	11.3
132806	7	Sololá	701	Sololá	2	El tablón	1	Enero	2023-01-23T00:00:00	2024-11-06T17:00:00	7	Dirección del viento	11.27
132807	7	Sololá	701	Sololá	2	El tablón	1	Enero	2023-01-23T00:00:00	2024-11-06T17:00:00	1	Precipitación	0
132808	7	Sololá	701	Sololá	2	El tablón	1	Enero	2023-01-23T00:00:00	2024-11-06T17:00:00	8	Radiación solar	278
132809	7	Sololá	701	Sololá	2	El tablón	1	Enero	2023-01-23T00:00:00	2024-11-06T18:00:00	2	Temperatura media	13.8
132810	7	Sololá	701	Sololá	2	El tablón	1	Enero	2023-01-23T00:00:00	2024-11-06T18:00:00	4	Temperatura máxima	15.9
132811	7	Sololá	701	Sololá	2	El tablón	1	Enero	2023-01-23T00:00:00	2024-11-06T18:00:00	3	Temperatura mínima	13.8
132812	7	Sololá	701	Sololá	2	El tablón	1	Enero	2023-01-23T00:00:00	2024-11-06T18:00:00	5	Humedad	74
132813	7	Sololá	701	Sololá	2	El tablón	1	Enero	2023-01-23T00:00:00	2024-11-06T18:00:00	6	Velocidad del viento	8
132814	7	Sololá	701	Sololá	2	El tablón	1	Enero	2023-01-23T00:00:00	2024-11-06T18:00:00	7	Dirección del viento	8.05
132815	7	Sololá	701	Sololá	2	El tablón	1	Enero	2023-01-23T00:00:00	2024-11-06T18:00:00	1	Precipitación	0
132816	7	Sololá	701	Sololá	2	El tablón	1	Enero	2023-01-23T00:00:00	2024-11-06T18:00:00	8	Radiación solar	51
132817	7	Sololá	701	Sololá	2	El tablón	1	Enero	2023-01-23T00:00:00	2024-11-06T19:00:00	2	Temperatura media	12.5
132818	7	Sololá	701	Sololá	2	El tablón	1	Enero	2023-01-23T00:00:00	2024-11-06T19:00:00	4	Temperatura máxima	13.7
132819	7	Sololá	701	Sololá	2	El tablón	1	Enero	2023-01-23T00:00:00	2024-11-06T19:00:00	3	Temperatura mínima	12.5
132820	7	Sololá	701	Sololá	2	El tablón	1	Enero	2023-01-23T00:00:00	2024-11-06T19:00:00	5	Humedad	80
132821	7	Sololá	701	Sololá	2	El tablón	1	Enero	2023-01-23T00:00:00	2024-11-06T19:00:00	6	Velocidad del viento	6.4
132822	7	Sololá	701	Sololá	2	El tablón	1	Enero	2023-01-23T00:00:00	2024-11-06T19:00:00	7	Dirección del viento	6.44
132823	7	Sololá	701	Sololá	2	El tablón	1	Enero	2023-01-23T00:00:00	2024-11-06T19:00:00	1	Precipitación	0
132824	7	Sololá	701	Sololá	2	El tablón	1	Enero	2023-01-23T00:00:00	2024-11-06T19:00:00	8	Radiación solar	0
132825	7	Sololá	701	Sololá	2	El tablón	1	Enero	2023-01-23T00:00:00	2024-11-06T20:00:00	2	Temperatura media	11.7
132826	7	Sololá	701	Sololá	2	El tablón	1	Enero	2023-01-23T00:00:00	2024-11-06T20:00:00	4	Temperatura máxima	12.5
132827	7	Sololá	701	Sololá	2	El tablón	1	Enero	2023-01-23T00:00:00	2024-11-06T20:00:00	3	Temperatura mínima	11.7
132828	7	Sololá	701	Sololá	2	El tablón	1	Enero	2023-01-23T00:00:00	2024-11-06T20:00:00	5	Humedad	83
132829	7	Sololá	701	Sololá	2	El tablón	1	Enero	2023-01-23T00:00:00	2024-11-06T20:00:00	6	Velocidad del viento	9.7
132830	7	Sololá	701	Sololá	2	El tablón	1	Enero	2023-01-23T00:00:00	2024-11-06T20:00:00	7	Dirección del viento	9.66
132831	7	Sololá	701	Sololá	2	El tablón	1	Enero	2023-01-23T00:00:00	2024-11-06T20:00:00	1	Precipitación	0
132832	7	Sololá	701	Sololá	2	El tablón	1	Enero	2023-01-23T00:00:00	2024-11-06T20:00:00	8	Radiación solar	0
132833	7	Sololá	701	Sololá	2	El tablón	1	Enero	2023-01-23T00:00:00	2024-11-06T21:00:00	2	Temperatura media	11.1
132834	7	Sololá	701	Sololá	2	El tablón	1	Enero	2023-01-23T00:00:00	2024-11-06T21:00:00	4	Temperatura máxima	11.7
132835	7	Sololá	701	Sololá	2	El tablón	1	Enero	2023-01-23T00:00:00	2024-11-06T21:00:00	3	Temperatura mínima	11.1
132836	7	Sololá	701	Sololá	2	El tablón	1	Enero	2023-01-23T00:00:00	2024-11-06T21:00:00	5	Humedad	86
132837	7	Sololá	701	Sololá	2	El tablón	1	Enero	2023-01-23T00:00:00	2024-11-06T21:00:00	6	Velocidad del viento	12.9
132838	7	Sololá	701	Sololá	2	El tablón	1	Enero	2023-01-23T00:00:00	2024-11-06T21:00:00	7	Dirección del viento	12.87
132839	7	Sololá	701	Sololá	2	El tablón	1	Enero	2023-01-23T00:00:00	2024-11-06T21:00:00	1	Precipitación	0
132840	7	Sololá	701	Sololá	2	El tablón	1	Enero	2023-01-23T00:00:00	2024-11-06T21:00:00	8	Radiación solar	0
132841	7	Sololá	701	Sololá	2	El tablón	1	Enero	2023-01-23T00:00:00	2024-11-06T22:00:00	2	Temperatura media	10.7
132842	7	Sololá	701	Sololá	2	El tablón	1	Enero	2023-01-23T00:00:00	2024-11-06T22:00:00	4	Temperatura máxima	11.1
132843	7	Sololá	701	Sololá	2	El tablón	1	Enero	2023-01-23T00:00:00	2024-11-06T22:00:00	3	Temperatura mínima	10.7
132844	7	Sololá	701	Sololá	2	El tablón	1	Enero	2023-01-23T00:00:00	2024-11-06T22:00:00	5	Humedad	86
132845	7	Sololá	701	Sololá	2	El tablón	1	Enero	2023-01-23T00:00:00	2024-11-06T22:00:00	6	Velocidad del viento	11.3
132846	7	Sololá	701	Sololá	2	El tablón	1	Enero	2023-01-23T00:00:00	2024-11-06T22:00:00	7	Dirección del viento	11.27
132847	7	Sololá	701	Sololá	2	El tablón	1	Enero	2023-01-23T00:00:00	2024-11-06T22:00:00	1	Precipitación	0
132848	7	Sololá	701	Sololá	2	El tablón	1	Enero	2023-01-23T00:00:00	2024-11-06T22:00:00	8	Radiación solar	0
132849	7	Sololá	701	Sololá	2	El tablón	1	Enero	2023-01-23T00:00:00	2024-11-06T23:00:00	2	Temperatura media	10.4
132850	7	Sololá	701	Sololá	2	El tablón	1	Enero	2023-01-23T00:00:00	2024-11-06T23:00:00	4	Temperatura máxima	10.7
132851	7	Sololá	701	Sololá	2	El tablón	1	Enero	2023-01-23T00:00:00	2024-11-06T23:00:00	3	Temperatura mínima	10.3
132852	7	Sololá	701	Sololá	2	El tablón	1	Enero	2023-01-23T00:00:00	2024-11-06T23:00:00	5	Humedad	79
132853	7	Sololá	701	Sololá	2	El tablón	1	Enero	2023-01-23T00:00:00	2024-11-06T23:00:00	6	Velocidad del viento	12.9
132854	7	Sololá	701	Sololá	2	El tablón	1	Enero	2023-01-23T00:00:00	2024-11-06T23:00:00	7	Dirección del viento	12.87
132855	7	Sololá	701	Sololá	2	El tablón	1	Enero	2023-01-23T00:00:00	2024-11-06T23:00:00	1	Precipitación	0
132856	7	Sololá	701	Sololá	2	El tablón	1	Enero	2023-01-23T00:00:00	2024-11-06T23:00:00	8	Radiación solar	0
132857	7	Sololá	701	Sololá	2	El tablón	1	Enero	2023-01-24T00:00:00	2024-11-06T00:00:00	2	Temperatura media	10.5
132858	7	Sololá	701	Sololá	2	El tablón	1	Enero	2023-01-24T00:00:00	2024-11-06T00:00:00	4	Temperatura máxima	10.6
132859	7	Sololá	701	Sololá	2	El tablón	1	Enero	2023-01-24T00:00:00	2024-11-06T00:00:00	3	Temperatura mínima	10.3
132860	7	Sololá	701	Sololá	2	El tablón	1	Enero	2023-01-24T00:00:00	2024-11-06T00:00:00	5	Humedad	70
132861	7	Sololá	701	Sololá	2	El tablón	1	Enero	2023-01-24T00:00:00	2024-11-06T00:00:00	6	Velocidad del viento	12.9
132862	7	Sololá	701	Sololá	2	El tablón	1	Enero	2023-01-24T00:00:00	2024-11-06T00:00:00	7	Dirección del viento	12.87
132863	7	Sololá	701	Sololá	2	El tablón	1	Enero	2023-01-24T00:00:00	2024-11-06T00:00:00	1	Precipitación	0
132864	7	Sololá	701	Sololá	2	El tablón	1	Enero	2023-01-24T00:00:00	2024-11-06T00:00:00	8	Radiación solar	0
132865	7	Sololá	701	Sololá	2	El tablón	1	Enero	2023-01-24T00:00:00	2024-11-06T01:00:00	2	Temperatura media	10.2
132866	7	Sololá	701	Sololá	2	El tablón	1	Enero	2023-01-24T00:00:00	2024-11-06T01:00:00	4	Temperatura máxima	10.5
132867	7	Sololá	701	Sololá	2	El tablón	1	Enero	2023-01-24T00:00:00	2024-11-06T01:00:00	3	Temperatura mínima	10.2
132868	7	Sololá	701	Sololá	2	El tablón	1	Enero	2023-01-24T00:00:00	2024-11-06T01:00:00	5	Humedad	54
132869	7	Sololá	701	Sololá	2	El tablón	1	Enero	2023-01-24T00:00:00	2024-11-06T01:00:00	6	Velocidad del viento	12.9
132870	7	Sololá	701	Sololá	2	El tablón	1	Enero	2023-01-24T00:00:00	2024-11-06T01:00:00	7	Dirección del viento	12.87
132871	7	Sololá	701	Sololá	2	El tablón	1	Enero	2023-01-24T00:00:00	2024-11-06T01:00:00	1	Precipitación	0
132872	7	Sololá	701	Sololá	2	El tablón	1	Enero	2023-01-24T00:00:00	2024-11-06T01:00:00	8	Radiación solar	0
132873	7	Sololá	701	Sololá	2	El tablón	1	Enero	2023-01-24T00:00:00	2024-11-06T02:00:00	2	Temperatura media	10.2
132874	7	Sololá	701	Sololá	2	El tablón	1	Enero	2023-01-24T00:00:00	2024-11-06T02:00:00	4	Temperatura máxima	10.3
132875	7	Sololá	701	Sololá	2	El tablón	1	Enero	2023-01-24T00:00:00	2024-11-06T02:00:00	3	Temperatura mínima	10
132876	7	Sololá	701	Sololá	2	El tablón	1	Enero	2023-01-24T00:00:00	2024-11-06T02:00:00	5	Humedad	51
132877	7	Sololá	701	Sololá	2	El tablón	1	Enero	2023-01-24T00:00:00	2024-11-06T02:00:00	6	Velocidad del viento	12.9
132878	7	Sololá	701	Sololá	2	El tablón	1	Enero	2023-01-24T00:00:00	2024-11-06T02:00:00	7	Dirección del viento	12.87
132879	7	Sololá	701	Sololá	2	El tablón	1	Enero	2023-01-24T00:00:00	2024-11-06T02:00:00	1	Precipitación	0
132880	7	Sololá	701	Sololá	2	El tablón	1	Enero	2023-01-24T00:00:00	2024-11-06T02:00:00	8	Radiación solar	0
132881	7	Sololá	701	Sololá	2	El tablón	1	Enero	2023-01-24T00:00:00	2024-11-06T03:00:00	2	Temperatura media	10.3
132882	7	Sololá	701	Sololá	2	El tablón	1	Enero	2023-01-24T00:00:00	2024-11-06T03:00:00	4	Temperatura máxima	10.4
132883	7	Sololá	701	Sololá	2	El tablón	1	Enero	2023-01-24T00:00:00	2024-11-06T03:00:00	3	Temperatura mínima	10.2
132884	7	Sololá	701	Sololá	2	El tablón	1	Enero	2023-01-24T00:00:00	2024-11-06T03:00:00	5	Humedad	53
132885	7	Sololá	701	Sololá	2	El tablón	1	Enero	2023-01-24T00:00:00	2024-11-06T03:00:00	6	Velocidad del viento	11.3
132886	7	Sololá	701	Sololá	2	El tablón	1	Enero	2023-01-24T00:00:00	2024-11-06T03:00:00	7	Dirección del viento	11.27
132887	7	Sololá	701	Sololá	2	El tablón	1	Enero	2023-01-24T00:00:00	2024-11-06T03:00:00	1	Precipitación	0
132888	7	Sololá	701	Sololá	2	El tablón	1	Enero	2023-01-24T00:00:00	2024-11-06T03:00:00	8	Radiación solar	0
132889	7	Sololá	701	Sololá	2	El tablón	1	Enero	2023-01-24T00:00:00	2024-11-06T04:00:00	2	Temperatura media	10.3
132890	7	Sololá	701	Sololá	2	El tablón	1	Enero	2023-01-24T00:00:00	2024-11-06T04:00:00	4	Temperatura máxima	10.3
132891	7	Sololá	701	Sololá	2	El tablón	1	Enero	2023-01-24T00:00:00	2024-11-06T04:00:00	3	Temperatura mínima	10.2
132892	7	Sololá	701	Sololá	2	El tablón	1	Enero	2023-01-24T00:00:00	2024-11-06T04:00:00	5	Humedad	50
132893	7	Sololá	701	Sololá	2	El tablón	1	Enero	2023-01-24T00:00:00	2024-11-06T04:00:00	6	Velocidad del viento	9.7
132894	7	Sololá	701	Sololá	2	El tablón	1	Enero	2023-01-24T00:00:00	2024-11-06T04:00:00	7	Dirección del viento	9.66
132895	7	Sololá	701	Sololá	2	El tablón	1	Enero	2023-01-24T00:00:00	2024-11-06T04:00:00	1	Precipitación	0
132896	7	Sololá	701	Sololá	2	El tablón	1	Enero	2023-01-24T00:00:00	2024-11-06T04:00:00	8	Radiación solar	0
132897	7	Sololá	701	Sololá	2	El tablón	1	Enero	2023-01-24T00:00:00	2024-11-06T05:00:00	2	Temperatura media	10.1
132898	7	Sololá	701	Sololá	2	El tablón	1	Enero	2023-01-24T00:00:00	2024-11-06T05:00:00	4	Temperatura máxima	10.3
132899	7	Sololá	701	Sololá	2	El tablón	1	Enero	2023-01-24T00:00:00	2024-11-06T05:00:00	3	Temperatura mínima	9.8
132900	7	Sololá	701	Sololá	2	El tablón	1	Enero	2023-01-24T00:00:00	2024-11-06T05:00:00	5	Humedad	50
132901	7	Sololá	701	Sololá	2	El tablón	1	Enero	2023-01-24T00:00:00	2024-11-06T05:00:00	6	Velocidad del viento	8
132902	7	Sololá	701	Sololá	2	El tablón	1	Enero	2023-01-24T00:00:00	2024-11-06T05:00:00	7	Dirección del viento	8.05
132903	7	Sololá	701	Sololá	2	El tablón	1	Enero	2023-01-24T00:00:00	2024-11-06T05:00:00	1	Precipitación	0
132904	7	Sololá	701	Sololá	2	El tablón	1	Enero	2023-01-24T00:00:00	2024-11-06T05:00:00	8	Radiación solar	0
132905	7	Sololá	701	Sololá	2	El tablón	1	Enero	2023-01-24T00:00:00	2024-11-06T06:00:00	2	Temperatura media	9.7
132906	7	Sololá	701	Sololá	2	El tablón	1	Enero	2023-01-24T00:00:00	2024-11-06T06:00:00	4	Temperatura máxima	10.1
132907	7	Sololá	701	Sololá	2	El tablón	1	Enero	2023-01-24T00:00:00	2024-11-06T06:00:00	3	Temperatura mínima	9.7
132908	7	Sololá	701	Sololá	2	El tablón	1	Enero	2023-01-24T00:00:00	2024-11-06T06:00:00	5	Humedad	51
132909	7	Sololá	701	Sololá	2	El tablón	1	Enero	2023-01-24T00:00:00	2024-11-06T06:00:00	6	Velocidad del viento	6.4
132910	7	Sololá	701	Sololá	2	El tablón	1	Enero	2023-01-24T00:00:00	2024-11-06T06:00:00	7	Dirección del viento	6.44
132911	7	Sololá	701	Sololá	2	El tablón	1	Enero	2023-01-24T00:00:00	2024-11-06T06:00:00	1	Precipitación	0
132912	7	Sololá	701	Sololá	2	El tablón	1	Enero	2023-01-24T00:00:00	2024-11-06T06:00:00	8	Radiación solar	0
132913	7	Sololá	701	Sololá	2	El tablón	1	Enero	2023-01-24T00:00:00	2024-11-06T07:00:00	2	Temperatura media	10.3
132914	7	Sololá	701	Sololá	2	El tablón	1	Enero	2023-01-24T00:00:00	2024-11-06T07:00:00	4	Temperatura máxima	10.3
132915	7	Sololá	701	Sololá	2	El tablón	1	Enero	2023-01-24T00:00:00	2024-11-06T07:00:00	3	Temperatura mínima	9.7
132916	7	Sololá	701	Sololá	2	El tablón	1	Enero	2023-01-24T00:00:00	2024-11-06T07:00:00	5	Humedad	53
132917	7	Sololá	701	Sololá	2	El tablón	1	Enero	2023-01-24T00:00:00	2024-11-06T07:00:00	6	Velocidad del viento	8
132918	7	Sololá	701	Sololá	2	El tablón	1	Enero	2023-01-24T00:00:00	2024-11-06T07:00:00	7	Dirección del viento	8.05
132919	7	Sololá	701	Sololá	2	El tablón	1	Enero	2023-01-24T00:00:00	2024-11-06T07:00:00	1	Precipitación	0
132920	7	Sololá	701	Sololá	2	El tablón	1	Enero	2023-01-24T00:00:00	2024-11-06T07:00:00	8	Radiación solar	4
132921	7	Sololá	701	Sololá	2	El tablón	1	Enero	2023-01-24T00:00:00	2024-11-06T08:00:00	2	Temperatura media	12.7
132922	7	Sololá	701	Sololá	2	El tablón	1	Enero	2023-01-24T00:00:00	2024-11-06T08:00:00	4	Temperatura máxima	12.7
132923	7	Sololá	701	Sololá	2	El tablón	1	Enero	2023-01-24T00:00:00	2024-11-06T08:00:00	3	Temperatura mínima	10.4
132924	7	Sololá	701	Sololá	2	El tablón	1	Enero	2023-01-24T00:00:00	2024-11-06T08:00:00	5	Humedad	44
132925	7	Sololá	701	Sololá	2	El tablón	1	Enero	2023-01-24T00:00:00	2024-11-06T08:00:00	6	Velocidad del viento	9.7
132926	7	Sololá	701	Sololá	2	El tablón	1	Enero	2023-01-24T00:00:00	2024-11-06T08:00:00	7	Dirección del viento	9.66
132927	7	Sololá	701	Sololá	2	El tablón	1	Enero	2023-01-24T00:00:00	2024-11-06T08:00:00	1	Precipitación	0
132928	7	Sololá	701	Sololá	2	El tablón	1	Enero	2023-01-24T00:00:00	2024-11-06T08:00:00	8	Radiación solar	115
132929	7	Sololá	701	Sololá	2	El tablón	1	Enero	2023-01-24T00:00:00	2024-11-06T09:00:00	2	Temperatura media	15.1
132930	7	Sololá	701	Sololá	2	El tablón	1	Enero	2023-01-24T00:00:00	2024-11-06T09:00:00	4	Temperatura máxima	15.1
132931	7	Sololá	701	Sololá	2	El tablón	1	Enero	2023-01-24T00:00:00	2024-11-06T09:00:00	3	Temperatura mínima	12.7
132932	7	Sololá	701	Sololá	2	El tablón	1	Enero	2023-01-24T00:00:00	2024-11-06T09:00:00	5	Humedad	40
132933	7	Sololá	701	Sololá	2	El tablón	1	Enero	2023-01-24T00:00:00	2024-11-06T09:00:00	6	Velocidad del viento	9.7
132934	7	Sololá	701	Sololá	2	El tablón	1	Enero	2023-01-24T00:00:00	2024-11-06T09:00:00	7	Dirección del viento	9.66
132935	7	Sololá	701	Sololá	2	El tablón	1	Enero	2023-01-24T00:00:00	2024-11-06T09:00:00	1	Precipitación	0
132936	7	Sololá	701	Sololá	2	El tablón	1	Enero	2023-01-24T00:00:00	2024-11-06T09:00:00	8	Radiación solar	347
132937	7	Sololá	701	Sololá	2	El tablón	1	Enero	2023-01-24T00:00:00	2024-11-06T10:00:00	2	Temperatura media	16.7
132938	7	Sololá	701	Sololá	2	El tablón	1	Enero	2023-01-24T00:00:00	2024-11-06T10:00:00	4	Temperatura máxima	16.8
132939	7	Sololá	701	Sololá	2	El tablón	1	Enero	2023-01-24T00:00:00	2024-11-06T10:00:00	3	Temperatura mínima	15
132940	7	Sololá	701	Sololá	2	El tablón	1	Enero	2023-01-24T00:00:00	2024-11-06T10:00:00	5	Humedad	29
132941	7	Sololá	701	Sololá	2	El tablón	1	Enero	2023-01-24T00:00:00	2024-11-06T10:00:00	6	Velocidad del viento	8
132942	7	Sololá	701	Sololá	2	El tablón	1	Enero	2023-01-24T00:00:00	2024-11-06T10:00:00	7	Dirección del viento	8.05
132943	7	Sololá	701	Sololá	2	El tablón	1	Enero	2023-01-24T00:00:00	2024-11-06T10:00:00	1	Precipitación	0
132944	7	Sololá	701	Sololá	2	El tablón	1	Enero	2023-01-24T00:00:00	2024-11-06T10:00:00	8	Radiación solar	544
132945	7	Sololá	701	Sololá	2	El tablón	1	Enero	2023-01-24T00:00:00	2024-11-06T11:00:00	2	Temperatura media	18.3
132946	7	Sololá	701	Sololá	2	El tablón	1	Enero	2023-01-24T00:00:00	2024-11-06T11:00:00	4	Temperatura máxima	18.6
132947	7	Sololá	701	Sololá	2	El tablón	1	Enero	2023-01-24T00:00:00	2024-11-06T11:00:00	3	Temperatura mínima	16.7
132948	7	Sololá	701	Sololá	2	El tablón	1	Enero	2023-01-24T00:00:00	2024-11-06T11:00:00	5	Humedad	41
132949	7	Sololá	701	Sololá	2	El tablón	1	Enero	2023-01-24T00:00:00	2024-11-06T11:00:00	6	Velocidad del viento	4.8
132950	7	Sololá	701	Sololá	2	El tablón	1	Enero	2023-01-24T00:00:00	2024-11-06T11:00:00	7	Dirección del viento	4.83
132951	7	Sololá	701	Sololá	2	El tablón	1	Enero	2023-01-24T00:00:00	2024-11-06T11:00:00	1	Precipitación	0
132952	7	Sololá	701	Sololá	2	El tablón	1	Enero	2023-01-24T00:00:00	2024-11-06T11:00:00	8	Radiación solar	691
132953	7	Sololá	701	Sololá	2	El tablón	1	Enero	2023-01-24T00:00:00	2024-11-06T12:00:00	2	Temperatura media	18.2
132954	7	Sololá	701	Sololá	2	El tablón	1	Enero	2023-01-24T00:00:00	2024-11-06T12:00:00	4	Temperatura máxima	18.3
132955	7	Sololá	701	Sololá	2	El tablón	1	Enero	2023-01-24T00:00:00	2024-11-06T12:00:00	3	Temperatura mínima	17.9
132956	7	Sololá	701	Sololá	2	El tablón	1	Enero	2023-01-24T00:00:00	2024-11-06T12:00:00	5	Humedad	44
132957	7	Sololá	701	Sololá	2	El tablón	1	Enero	2023-01-24T00:00:00	2024-11-06T12:00:00	6	Velocidad del viento	8
132958	7	Sololá	701	Sololá	2	El tablón	1	Enero	2023-01-24T00:00:00	2024-11-06T12:00:00	7	Dirección del viento	8.05
132959	7	Sololá	701	Sololá	2	El tablón	1	Enero	2023-01-24T00:00:00	2024-11-06T12:00:00	1	Precipitación	0
132960	7	Sololá	701	Sololá	2	El tablón	1	Enero	2023-01-24T00:00:00	2024-11-06T12:00:00	8	Radiación solar	678
132961	7	Sololá	701	Sololá	2	El tablón	1	Enero	2023-01-24T00:00:00	2024-11-06T13:00:00	2	Temperatura media	18.8
132962	7	Sololá	701	Sololá	2	El tablón	1	Enero	2023-01-24T00:00:00	2024-11-06T13:00:00	4	Temperatura máxima	18.8
132963	7	Sololá	701	Sololá	2	El tablón	1	Enero	2023-01-24T00:00:00	2024-11-06T13:00:00	3	Temperatura mínima	18.1
132964	7	Sololá	701	Sololá	2	El tablón	1	Enero	2023-01-24T00:00:00	2024-11-06T13:00:00	5	Humedad	44
132965	7	Sololá	701	Sololá	2	El tablón	1	Enero	2023-01-24T00:00:00	2024-11-06T13:00:00	6	Velocidad del viento	8
132966	7	Sololá	701	Sololá	2	El tablón	1	Enero	2023-01-24T00:00:00	2024-11-06T13:00:00	7	Dirección del viento	8.05
132967	7	Sololá	701	Sololá	2	El tablón	1	Enero	2023-01-24T00:00:00	2024-11-06T13:00:00	1	Precipitación	0
132968	7	Sololá	701	Sololá	2	El tablón	1	Enero	2023-01-24T00:00:00	2024-11-06T13:00:00	8	Radiación solar	797
132969	7	Sololá	701	Sololá	2	El tablón	1	Enero	2023-01-24T00:00:00	2024-11-06T14:00:00	2	Temperatura media	17.7
132970	7	Sololá	701	Sololá	2	El tablón	1	Enero	2023-01-24T00:00:00	2024-11-06T14:00:00	4	Temperatura máxima	19.1
132971	7	Sololá	701	Sololá	2	El tablón	1	Enero	2023-01-24T00:00:00	2024-11-06T14:00:00	3	Temperatura mínima	17.7
132972	7	Sololá	701	Sololá	2	El tablón	1	Enero	2023-01-24T00:00:00	2024-11-06T14:00:00	5	Humedad	64
132973	7	Sololá	701	Sololá	2	El tablón	1	Enero	2023-01-24T00:00:00	2024-11-06T14:00:00	6	Velocidad del viento	9.7
132974	7	Sololá	701	Sololá	2	El tablón	1	Enero	2023-01-24T00:00:00	2024-11-06T14:00:00	7	Dirección del viento	9.66
132975	7	Sololá	701	Sololá	2	El tablón	1	Enero	2023-01-24T00:00:00	2024-11-06T14:00:00	1	Precipitación	0
132976	7	Sololá	701	Sololá	2	El tablón	1	Enero	2023-01-24T00:00:00	2024-11-06T14:00:00	8	Radiación solar	761
132977	7	Sololá	701	Sololá	2	El tablón	1	Enero	2023-01-24T00:00:00	2024-11-06T15:00:00	2	Temperatura media	16
132978	7	Sololá	701	Sololá	2	El tablón	1	Enero	2023-01-24T00:00:00	2024-11-06T15:00:00	4	Temperatura máxima	17.7
132979	7	Sololá	701	Sololá	2	El tablón	1	Enero	2023-01-24T00:00:00	2024-11-06T15:00:00	3	Temperatura mínima	16
132980	7	Sololá	701	Sololá	2	El tablón	1	Enero	2023-01-24T00:00:00	2024-11-06T15:00:00	5	Humedad	78
132981	7	Sololá	701	Sololá	2	El tablón	1	Enero	2023-01-24T00:00:00	2024-11-06T15:00:00	6	Velocidad del viento	11.3
132982	7	Sololá	701	Sololá	2	El tablón	1	Enero	2023-01-24T00:00:00	2024-11-06T15:00:00	7	Dirección del viento	11.27
132983	7	Sololá	701	Sololá	2	El tablón	1	Enero	2023-01-24T00:00:00	2024-11-06T15:00:00	1	Precipitación	0
132984	7	Sololá	701	Sololá	2	El tablón	1	Enero	2023-01-24T00:00:00	2024-11-06T15:00:00	8	Radiación solar	651
132985	7	Sololá	701	Sololá	2	El tablón	1	Enero	2023-01-24T00:00:00	2024-11-06T16:00:00	2	Temperatura media	14.6
132986	7	Sololá	701	Sololá	2	El tablón	1	Enero	2023-01-24T00:00:00	2024-11-06T16:00:00	4	Temperatura máxima	16.3
132987	7	Sololá	701	Sololá	2	El tablón	1	Enero	2023-01-24T00:00:00	2024-11-06T16:00:00	3	Temperatura mínima	14.6
132988	7	Sololá	701	Sololá	2	El tablón	1	Enero	2023-01-24T00:00:00	2024-11-06T16:00:00	5	Humedad	85
132989	7	Sololá	701	Sololá	2	El tablón	1	Enero	2023-01-24T00:00:00	2024-11-06T16:00:00	6	Velocidad del viento	9.7
132990	7	Sololá	701	Sololá	2	El tablón	1	Enero	2023-01-24T00:00:00	2024-11-06T16:00:00	7	Dirección del viento	9.66
132991	7	Sololá	701	Sololá	2	El tablón	1	Enero	2023-01-24T00:00:00	2024-11-06T16:00:00	1	Precipitación	0
132992	7	Sololá	701	Sololá	2	El tablón	1	Enero	2023-01-24T00:00:00	2024-11-06T16:00:00	8	Radiación solar	379
132993	7	Sololá	701	Sololá	2	El tablón	1	Enero	2023-01-24T00:00:00	2024-11-06T17:00:00	2	Temperatura media	13.5
132994	7	Sololá	701	Sololá	2	El tablón	1	Enero	2023-01-24T00:00:00	2024-11-06T17:00:00	4	Temperatura máxima	14.5
132995	7	Sololá	701	Sololá	2	El tablón	1	Enero	2023-01-24T00:00:00	2024-11-06T17:00:00	3	Temperatura mínima	13.4
132996	7	Sololá	701	Sololá	2	El tablón	1	Enero	2023-01-24T00:00:00	2024-11-06T17:00:00	5	Humedad	88
132997	7	Sololá	701	Sololá	2	El tablón	1	Enero	2023-01-24T00:00:00	2024-11-06T17:00:00	6	Velocidad del viento	6.4
132998	7	Sololá	701	Sololá	2	El tablón	1	Enero	2023-01-24T00:00:00	2024-11-06T17:00:00	7	Dirección del viento	6.44
132999	7	Sololá	701	Sololá	2	El tablón	1	Enero	2023-01-24T00:00:00	2024-11-06T17:00:00	1	Precipitación	0
133000	7	Sololá	701	Sololá	2	El tablón	1	Enero	2023-01-24T00:00:00	2024-11-06T17:00:00	8	Radiación solar	129
133001	7	Sololá	701	Sololá	2	El tablón	1	Enero	2023-01-24T00:00:00	2024-11-06T18:00:00	2	Temperatura media	12.9
133002	7	Sololá	701	Sololá	2	El tablón	1	Enero	2023-01-24T00:00:00	2024-11-06T18:00:00	4	Temperatura máxima	13.6
133003	7	Sololá	701	Sololá	2	El tablón	1	Enero	2023-01-24T00:00:00	2024-11-06T18:00:00	3	Temperatura mínima	12.8
133004	7	Sololá	701	Sololá	2	El tablón	1	Enero	2023-01-24T00:00:00	2024-11-06T18:00:00	5	Humedad	89
133005	7	Sololá	701	Sololá	2	El tablón	1	Enero	2023-01-24T00:00:00	2024-11-06T18:00:00	6	Velocidad del viento	3.2
133006	7	Sololá	701	Sololá	2	El tablón	1	Enero	2023-01-24T00:00:00	2024-11-06T18:00:00	7	Dirección del viento	3.22
133007	7	Sololá	701	Sololá	2	El tablón	1	Enero	2023-01-24T00:00:00	2024-11-06T18:00:00	1	Precipitación	0
133008	7	Sololá	701	Sololá	2	El tablón	1	Enero	2023-01-24T00:00:00	2024-11-06T18:00:00	8	Radiación solar	28
133009	7	Sololá	701	Sololá	2	El tablón	1	Enero	2023-01-24T00:00:00	2024-11-06T19:00:00	2	Temperatura media	12.3
133010	7	Sololá	701	Sololá	2	El tablón	1	Enero	2023-01-24T00:00:00	2024-11-06T19:00:00	4	Temperatura máxima	12.9
133011	7	Sololá	701	Sololá	2	El tablón	1	Enero	2023-01-24T00:00:00	2024-11-06T19:00:00	3	Temperatura mínima	12.2
133012	7	Sololá	701	Sololá	2	El tablón	1	Enero	2023-01-24T00:00:00	2024-11-06T19:00:00	5	Humedad	90
133013	7	Sololá	701	Sololá	2	El tablón	1	Enero	2023-01-24T00:00:00	2024-11-06T19:00:00	6	Velocidad del viento	0
133014	7	Sololá	701	Sololá	2	El tablón	1	Enero	2023-01-24T00:00:00	2024-11-06T19:00:00	7	Dirección del viento	0
133015	7	Sololá	701	Sololá	2	El tablón	1	Enero	2023-01-24T00:00:00	2024-11-06T19:00:00	1	Precipitación	0
133016	7	Sololá	701	Sololá	2	El tablón	1	Enero	2023-01-24T00:00:00	2024-11-06T19:00:00	8	Radiación solar	0
133017	7	Sololá	701	Sololá	2	El tablón	1	Enero	2023-01-24T00:00:00	2024-11-06T20:00:00	2	Temperatura media	11.4
133018	7	Sololá	701	Sololá	2	El tablón	1	Enero	2023-01-24T00:00:00	2024-11-06T20:00:00	4	Temperatura máxima	12.3
133019	7	Sololá	701	Sololá	2	El tablón	1	Enero	2023-01-24T00:00:00	2024-11-06T20:00:00	3	Temperatura mínima	11.4
133020	7	Sololá	701	Sololá	2	El tablón	1	Enero	2023-01-24T00:00:00	2024-11-06T20:00:00	5	Humedad	90
133021	7	Sololá	701	Sololá	2	El tablón	1	Enero	2023-01-24T00:00:00	2024-11-06T20:00:00	6	Velocidad del viento	0
133022	7	Sololá	701	Sololá	2	El tablón	1	Enero	2023-01-24T00:00:00	2024-11-06T20:00:00	7	Dirección del viento	0
133023	7	Sololá	701	Sololá	2	El tablón	1	Enero	2023-01-24T00:00:00	2024-11-06T20:00:00	1	Precipitación	0
133024	7	Sololá	701	Sololá	2	El tablón	1	Enero	2023-01-24T00:00:00	2024-11-06T20:00:00	8	Radiación solar	0
133025	7	Sololá	701	Sololá	2	El tablón	1	Enero	2023-01-24T00:00:00	2024-11-06T21:00:00	2	Temperatura media	9.4
133026	7	Sololá	701	Sololá	2	El tablón	1	Enero	2023-01-24T00:00:00	2024-11-06T21:00:00	4	Temperatura máxima	11.4
133027	7	Sololá	701	Sololá	2	El tablón	1	Enero	2023-01-24T00:00:00	2024-11-06T21:00:00	3	Temperatura mínima	9.3
133028	7	Sololá	701	Sololá	2	El tablón	1	Enero	2023-01-24T00:00:00	2024-11-06T21:00:00	5	Humedad	88
133029	7	Sololá	701	Sololá	2	El tablón	1	Enero	2023-01-24T00:00:00	2024-11-06T21:00:00	6	Velocidad del viento	3.2
133030	7	Sololá	701	Sololá	2	El tablón	1	Enero	2023-01-24T00:00:00	2024-11-06T21:00:00	7	Dirección del viento	3.22
133031	7	Sololá	701	Sololá	2	El tablón	1	Enero	2023-01-24T00:00:00	2024-11-06T21:00:00	1	Precipitación	0
133032	7	Sololá	701	Sololá	2	El tablón	1	Enero	2023-01-24T00:00:00	2024-11-06T21:00:00	8	Radiación solar	0
133033	7	Sololá	701	Sololá	2	El tablón	1	Enero	2023-01-24T00:00:00	2024-11-06T22:00:00	2	Temperatura media	9.7
133034	7	Sololá	701	Sololá	2	El tablón	1	Enero	2023-01-24T00:00:00	2024-11-06T22:00:00	4	Temperatura máxima	9.7
133035	7	Sololá	701	Sololá	2	El tablón	1	Enero	2023-01-24T00:00:00	2024-11-06T22:00:00	3	Temperatura mínima	9.1
133036	7	Sololá	701	Sololá	2	El tablón	1	Enero	2023-01-24T00:00:00	2024-11-06T22:00:00	5	Humedad	73
133037	7	Sololá	701	Sololá	2	El tablón	1	Enero	2023-01-24T00:00:00	2024-11-06T22:00:00	6	Velocidad del viento	3.2
133038	7	Sololá	701	Sololá	2	El tablón	1	Enero	2023-01-24T00:00:00	2024-11-06T22:00:00	7	Dirección del viento	3.22
133039	7	Sololá	701	Sololá	2	El tablón	1	Enero	2023-01-24T00:00:00	2024-11-06T22:00:00	1	Precipitación	0
133040	7	Sololá	701	Sololá	2	El tablón	1	Enero	2023-01-24T00:00:00	2024-11-06T22:00:00	8	Radiación solar	0
133041	7	Sololá	701	Sololá	2	El tablón	1	Enero	2023-01-24T00:00:00	2024-11-06T23:00:00	2	Temperatura media	9.1
133042	7	Sololá	701	Sololá	2	El tablón	1	Enero	2023-01-24T00:00:00	2024-11-06T23:00:00	4	Temperatura máxima	10.1
133043	7	Sololá	701	Sololá	2	El tablón	1	Enero	2023-01-24T00:00:00	2024-11-06T23:00:00	3	Temperatura mínima	9.1
133044	7	Sololá	701	Sololá	2	El tablón	1	Enero	2023-01-24T00:00:00	2024-11-06T23:00:00	5	Humedad	73
133045	7	Sololá	701	Sololá	2	El tablón	1	Enero	2023-01-24T00:00:00	2024-11-06T23:00:00	6	Velocidad del viento	3.2
133046	7	Sololá	701	Sololá	2	El tablón	1	Enero	2023-01-24T00:00:00	2024-11-06T23:00:00	7	Dirección del viento	3.22
133047	7	Sololá	701	Sololá	2	El tablón	1	Enero	2023-01-24T00:00:00	2024-11-06T23:00:00	1	Precipitación	0
133048	7	Sololá	701	Sololá	2	El tablón	1	Enero	2023-01-24T00:00:00	2024-11-06T23:00:00	8	Radiación solar	0
133049	7	Sololá	701	Sololá	2	El tablón	1	Enero	2023-01-25T00:00:00	2024-11-06T00:00:00	2	Temperatura media	9
133050	7	Sololá	701	Sololá	2	El tablón	1	Enero	2023-01-25T00:00:00	2024-11-06T00:00:00	4	Temperatura máxima	9.1
133051	7	Sololá	701	Sololá	2	El tablón	1	Enero	2023-01-25T00:00:00	2024-11-06T00:00:00	3	Temperatura mínima	8.8
133052	7	Sololá	701	Sololá	2	El tablón	1	Enero	2023-01-25T00:00:00	2024-11-06T00:00:00	5	Humedad	83
133053	7	Sololá	701	Sololá	2	El tablón	1	Enero	2023-01-25T00:00:00	2024-11-06T00:00:00	6	Velocidad del viento	3.2
133054	7	Sololá	701	Sololá	2	El tablón	1	Enero	2023-01-25T00:00:00	2024-11-06T00:00:00	7	Dirección del viento	3.22
133055	7	Sololá	701	Sololá	2	El tablón	1	Enero	2023-01-25T00:00:00	2024-11-06T00:00:00	1	Precipitación	0
133056	7	Sololá	701	Sololá	2	El tablón	1	Enero	2023-01-25T00:00:00	2024-11-06T00:00:00	8	Radiación solar	0
133057	7	Sololá	701	Sololá	2	El tablón	1	Enero	2023-01-25T00:00:00	2024-11-06T01:00:00	2	Temperatura media	8.8
133058	7	Sololá	701	Sololá	2	El tablón	1	Enero	2023-01-25T00:00:00	2024-11-06T01:00:00	4	Temperatura máxima	9
133059	7	Sololá	701	Sololá	2	El tablón	1	Enero	2023-01-25T00:00:00	2024-11-06T01:00:00	3	Temperatura mínima	8.3
133060	7	Sololá	701	Sololá	2	El tablón	1	Enero	2023-01-25T00:00:00	2024-11-06T01:00:00	5	Humedad	89
133061	7	Sololá	701	Sololá	2	El tablón	1	Enero	2023-01-25T00:00:00	2024-11-06T01:00:00	6	Velocidad del viento	3.2
133062	7	Sololá	701	Sololá	2	El tablón	1	Enero	2023-01-25T00:00:00	2024-11-06T01:00:00	7	Dirección del viento	3.22
133063	7	Sololá	701	Sololá	2	El tablón	1	Enero	2023-01-25T00:00:00	2024-11-06T01:00:00	1	Precipitación	0
133064	7	Sololá	701	Sololá	2	El tablón	1	Enero	2023-01-25T00:00:00	2024-11-06T01:00:00	8	Radiación solar	0
133065	7	Sololá	701	Sololá	2	El tablón	1	Enero	2023-01-25T00:00:00	2024-11-06T02:00:00	2	Temperatura media	8.7
133066	7	Sololá	701	Sololá	2	El tablón	1	Enero	2023-01-25T00:00:00	2024-11-06T02:00:00	4	Temperatura máxima	8.8
133067	7	Sololá	701	Sololá	2	El tablón	1	Enero	2023-01-25T00:00:00	2024-11-06T02:00:00	3	Temperatura mínima	8
133068	7	Sololá	701	Sololá	2	El tablón	1	Enero	2023-01-25T00:00:00	2024-11-06T02:00:00	5	Humedad	89
133069	7	Sololá	701	Sololá	2	El tablón	1	Enero	2023-01-25T00:00:00	2024-11-06T02:00:00	6	Velocidad del viento	3.2
133070	7	Sololá	701	Sololá	2	El tablón	1	Enero	2023-01-25T00:00:00	2024-11-06T02:00:00	7	Dirección del viento	3.22
133071	7	Sololá	701	Sololá	2	El tablón	1	Enero	2023-01-25T00:00:00	2024-11-06T02:00:00	1	Precipitación	0
133072	7	Sololá	701	Sololá	2	El tablón	1	Enero	2023-01-25T00:00:00	2024-11-06T02:00:00	8	Radiación solar	0
133073	7	Sololá	701	Sololá	2	El tablón	1	Enero	2023-01-25T00:00:00	2024-11-06T03:00:00	2	Temperatura media	8.3
133074	7	Sololá	701	Sololá	2	El tablón	1	Enero	2023-01-25T00:00:00	2024-11-06T03:00:00	4	Temperatura máxima	8.9
133075	7	Sololá	701	Sololá	2	El tablón	1	Enero	2023-01-25T00:00:00	2024-11-06T03:00:00	3	Temperatura mínima	8.3
133076	7	Sololá	701	Sololá	2	El tablón	1	Enero	2023-01-25T00:00:00	2024-11-06T03:00:00	5	Humedad	87
133077	7	Sololá	701	Sololá	2	El tablón	1	Enero	2023-01-25T00:00:00	2024-11-06T03:00:00	6	Velocidad del viento	1.6
133078	7	Sololá	701	Sololá	2	El tablón	1	Enero	2023-01-25T00:00:00	2024-11-06T03:00:00	7	Dirección del viento	1.61
133079	7	Sololá	701	Sololá	2	El tablón	1	Enero	2023-01-25T00:00:00	2024-11-06T03:00:00	1	Precipitación	0
133080	7	Sololá	701	Sololá	2	El tablón	1	Enero	2023-01-25T00:00:00	2024-11-06T03:00:00	8	Radiación solar	0
133081	7	Sololá	701	Sololá	2	El tablón	1	Enero	2023-01-25T00:00:00	2024-11-06T04:00:00	2	Temperatura media	8.2
133082	7	Sololá	701	Sololá	2	El tablón	1	Enero	2023-01-25T00:00:00	2024-11-06T04:00:00	4	Temperatura máxima	8.4
133083	7	Sololá	701	Sololá	2	El tablón	1	Enero	2023-01-25T00:00:00	2024-11-06T04:00:00	3	Temperatura mínima	7.6
133084	7	Sololá	701	Sololá	2	El tablón	1	Enero	2023-01-25T00:00:00	2024-11-06T04:00:00	5	Humedad	89
133085	7	Sololá	701	Sololá	2	El tablón	1	Enero	2023-01-25T00:00:00	2024-11-06T04:00:00	6	Velocidad del viento	3.2
133086	7	Sololá	701	Sololá	2	El tablón	1	Enero	2023-01-25T00:00:00	2024-11-06T04:00:00	7	Dirección del viento	3.22
133087	7	Sololá	701	Sololá	2	El tablón	1	Enero	2023-01-25T00:00:00	2024-11-06T04:00:00	1	Precipitación	0
133088	7	Sololá	701	Sololá	2	El tablón	1	Enero	2023-01-25T00:00:00	2024-11-06T04:00:00	8	Radiación solar	0
133089	7	Sololá	701	Sololá	2	El tablón	1	Enero	2023-01-25T00:00:00	2024-11-06T05:00:00	2	Temperatura media	8.2
133090	7	Sololá	701	Sololá	2	El tablón	1	Enero	2023-01-25T00:00:00	2024-11-06T05:00:00	4	Temperatura máxima	8.7
133091	7	Sololá	701	Sololá	2	El tablón	1	Enero	2023-01-25T00:00:00	2024-11-06T05:00:00	3	Temperatura mínima	7.7
133092	7	Sololá	701	Sololá	2	El tablón	1	Enero	2023-01-25T00:00:00	2024-11-06T05:00:00	5	Humedad	84
133093	7	Sololá	701	Sololá	2	El tablón	1	Enero	2023-01-25T00:00:00	2024-11-06T05:00:00	6	Velocidad del viento	3.2
133094	7	Sololá	701	Sololá	2	El tablón	1	Enero	2023-01-25T00:00:00	2024-11-06T05:00:00	7	Dirección del viento	3.22
133095	7	Sololá	701	Sololá	2	El tablón	1	Enero	2023-01-25T00:00:00	2024-11-06T05:00:00	1	Precipitación	0
133096	7	Sololá	701	Sololá	2	El tablón	1	Enero	2023-01-25T00:00:00	2024-11-06T05:00:00	8	Radiación solar	0
133097	7	Sololá	701	Sololá	2	El tablón	1	Enero	2023-01-25T00:00:00	2024-11-06T06:00:00	2	Temperatura media	7.7
133098	7	Sololá	701	Sololá	2	El tablón	1	Enero	2023-01-25T00:00:00	2024-11-06T06:00:00	4	Temperatura máxima	8.3
133099	7	Sololá	701	Sololá	2	El tablón	1	Enero	2023-01-25T00:00:00	2024-11-06T06:00:00	3	Temperatura mínima	7.7
133100	7	Sololá	701	Sololá	2	El tablón	1	Enero	2023-01-25T00:00:00	2024-11-06T06:00:00	5	Humedad	83
133101	7	Sololá	701	Sololá	2	El tablón	1	Enero	2023-01-25T00:00:00	2024-11-06T06:00:00	6	Velocidad del viento	1.6
133102	7	Sololá	701	Sololá	2	El tablón	1	Enero	2023-01-25T00:00:00	2024-11-06T06:00:00	7	Dirección del viento	1.61
133103	7	Sololá	701	Sololá	2	El tablón	1	Enero	2023-01-25T00:00:00	2024-11-06T06:00:00	1	Precipitación	0
133104	7	Sololá	701	Sololá	2	El tablón	1	Enero	2023-01-25T00:00:00	2024-11-06T06:00:00	8	Radiación solar	0
133105	7	Sololá	701	Sololá	2	El tablón	1	Enero	2023-01-25T00:00:00	2024-11-06T07:00:00	2	Temperatura media	7.8
133106	7	Sololá	701	Sololá	2	El tablón	1	Enero	2023-01-25T00:00:00	2024-11-06T07:00:00	4	Temperatura máxima	7.8
133107	7	Sololá	701	Sololá	2	El tablón	1	Enero	2023-01-25T00:00:00	2024-11-06T07:00:00	3	Temperatura mínima	7.2
133108	7	Sololá	701	Sololá	2	El tablón	1	Enero	2023-01-25T00:00:00	2024-11-06T07:00:00	5	Humedad	82
133109	7	Sololá	701	Sololá	2	El tablón	1	Enero	2023-01-25T00:00:00	2024-11-06T07:00:00	6	Velocidad del viento	3.2
133110	7	Sololá	701	Sololá	2	El tablón	1	Enero	2023-01-25T00:00:00	2024-11-06T07:00:00	7	Dirección del viento	3.22
133111	7	Sololá	701	Sololá	2	El tablón	1	Enero	2023-01-25T00:00:00	2024-11-06T07:00:00	1	Precipitación	0
133112	7	Sololá	701	Sololá	2	El tablón	1	Enero	2023-01-25T00:00:00	2024-11-06T07:00:00	8	Radiación solar	4
133113	7	Sololá	701	Sololá	2	El tablón	1	Enero	2023-01-25T00:00:00	2024-11-06T08:00:00	2	Temperatura media	11.5
133114	7	Sololá	701	Sololá	2	El tablón	1	Enero	2023-01-25T00:00:00	2024-11-06T08:00:00	4	Temperatura máxima	11.5
133115	7	Sololá	701	Sololá	2	El tablón	1	Enero	2023-01-25T00:00:00	2024-11-06T08:00:00	3	Temperatura mínima	7.8
133116	7	Sololá	701	Sololá	2	El tablón	1	Enero	2023-01-25T00:00:00	2024-11-06T08:00:00	5	Humedad	76
133117	7	Sololá	701	Sololá	2	El tablón	1	Enero	2023-01-25T00:00:00	2024-11-06T08:00:00	6	Velocidad del viento	3.2
133118	7	Sololá	701	Sololá	2	El tablón	1	Enero	2023-01-25T00:00:00	2024-11-06T08:00:00	7	Dirección del viento	3.22
133119	7	Sololá	701	Sololá	2	El tablón	1	Enero	2023-01-25T00:00:00	2024-11-06T08:00:00	1	Precipitación	0
133120	7	Sololá	701	Sololá	2	El tablón	1	Enero	2023-01-25T00:00:00	2024-11-06T08:00:00	8	Radiación solar	111
133121	7	Sololá	701	Sololá	2	El tablón	1	Enero	2023-01-25T00:00:00	2024-11-06T09:00:00	2	Temperatura media	15.3
133122	7	Sololá	701	Sololá	2	El tablón	1	Enero	2023-01-25T00:00:00	2024-11-06T09:00:00	4	Temperatura máxima	15.3
133123	7	Sololá	701	Sololá	2	El tablón	1	Enero	2023-01-25T00:00:00	2024-11-06T09:00:00	3	Temperatura mínima	11.5
133124	7	Sololá	701	Sololá	2	El tablón	1	Enero	2023-01-25T00:00:00	2024-11-06T09:00:00	5	Humedad	66
133125	7	Sololá	701	Sololá	2	El tablón	1	Enero	2023-01-25T00:00:00	2024-11-06T09:00:00	6	Velocidad del viento	1.6
133126	7	Sololá	701	Sololá	2	El tablón	1	Enero	2023-01-25T00:00:00	2024-11-06T09:00:00	7	Dirección del viento	1.61
133127	7	Sololá	701	Sololá	2	El tablón	1	Enero	2023-01-25T00:00:00	2024-11-06T09:00:00	1	Precipitación	0
133128	7	Sololá	701	Sololá	2	El tablón	1	Enero	2023-01-25T00:00:00	2024-11-06T09:00:00	8	Radiación solar	336
133129	7	Sololá	701	Sololá	2	El tablón	1	Enero	2023-01-25T00:00:00	2024-11-06T10:00:00	2	Temperatura media	16.3
133130	7	Sololá	701	Sololá	2	El tablón	1	Enero	2023-01-25T00:00:00	2024-11-06T10:00:00	4	Temperatura máxima	16.3
133131	7	Sololá	701	Sololá	2	El tablón	1	Enero	2023-01-25T00:00:00	2024-11-06T10:00:00	3	Temperatura mínima	15.2
133132	7	Sololá	701	Sololá	2	El tablón	1	Enero	2023-01-25T00:00:00	2024-11-06T10:00:00	5	Humedad	64
133133	7	Sololá	701	Sololá	2	El tablón	1	Enero	2023-01-25T00:00:00	2024-11-06T10:00:00	6	Velocidad del viento	4.8
133134	7	Sololá	701	Sololá	2	El tablón	1	Enero	2023-01-25T00:00:00	2024-11-06T10:00:00	7	Dirección del viento	4.83
133135	7	Sololá	701	Sololá	2	El tablón	1	Enero	2023-01-25T00:00:00	2024-11-06T10:00:00	1	Precipitación	0
133136	7	Sololá	701	Sololá	2	El tablón	1	Enero	2023-01-25T00:00:00	2024-11-06T10:00:00	8	Radiación solar	531
133137	7	Sololá	701	Sololá	2	El tablón	1	Enero	2023-01-25T00:00:00	2024-11-06T11:00:00	2	Temperatura media	16.8
133138	7	Sololá	701	Sololá	2	El tablón	1	Enero	2023-01-25T00:00:00	2024-11-06T11:00:00	4	Temperatura máxima	16.8
133139	7	Sololá	701	Sololá	2	El tablón	1	Enero	2023-01-25T00:00:00	2024-11-06T11:00:00	3	Temperatura mínima	16.3
133140	7	Sololá	701	Sololá	2	El tablón	1	Enero	2023-01-25T00:00:00	2024-11-06T11:00:00	5	Humedad	61
133141	7	Sololá	701	Sololá	2	El tablón	1	Enero	2023-01-25T00:00:00	2024-11-06T11:00:00	6	Velocidad del viento	6.4
133142	7	Sololá	701	Sololá	2	El tablón	1	Enero	2023-01-25T00:00:00	2024-11-06T11:00:00	7	Dirección del viento	6.44
133143	7	Sololá	701	Sololá	2	El tablón	1	Enero	2023-01-25T00:00:00	2024-11-06T11:00:00	1	Precipitación	0
133144	7	Sololá	701	Sololá	2	El tablón	1	Enero	2023-01-25T00:00:00	2024-11-06T11:00:00	8	Radiación solar	680
133145	7	Sololá	701	Sololá	2	El tablón	1	Enero	2023-01-25T00:00:00	2024-11-06T12:00:00	2	Temperatura media	17.2
133146	7	Sololá	701	Sololá	2	El tablón	1	Enero	2023-01-25T00:00:00	2024-11-06T12:00:00	4	Temperatura máxima	17.4
133147	7	Sololá	701	Sololá	2	El tablón	1	Enero	2023-01-25T00:00:00	2024-11-06T12:00:00	3	Temperatura mínima	16.7
133148	7	Sololá	701	Sololá	2	El tablón	1	Enero	2023-01-25T00:00:00	2024-11-06T12:00:00	5	Humedad	58
133149	7	Sololá	701	Sololá	2	El tablón	1	Enero	2023-01-25T00:00:00	2024-11-06T12:00:00	6	Velocidad del viento	8
133150	7	Sololá	701	Sololá	2	El tablón	1	Enero	2023-01-25T00:00:00	2024-11-06T12:00:00	7	Dirección del viento	8.05
133151	7	Sololá	701	Sololá	2	El tablón	1	Enero	2023-01-25T00:00:00	2024-11-06T12:00:00	1	Precipitación	0
133152	7	Sololá	701	Sololá	2	El tablón	1	Enero	2023-01-25T00:00:00	2024-11-06T12:00:00	8	Radiación solar	666
133153	7	Sololá	701	Sololá	2	El tablón	1	Enero	2023-01-25T00:00:00	2024-11-06T13:00:00	2	Temperatura media	17.2
133154	7	Sololá	701	Sololá	2	El tablón	1	Enero	2023-01-25T00:00:00	2024-11-06T13:00:00	4	Temperatura máxima	17.5
133155	7	Sololá	701	Sololá	2	El tablón	1	Enero	2023-01-25T00:00:00	2024-11-06T13:00:00	3	Temperatura mínima	17
133156	7	Sololá	701	Sololá	2	El tablón	1	Enero	2023-01-25T00:00:00	2024-11-06T13:00:00	5	Humedad	71
133157	7	Sololá	701	Sololá	2	El tablón	1	Enero	2023-01-25T00:00:00	2024-11-06T13:00:00	6	Velocidad del viento	8
133158	7	Sololá	701	Sololá	2	El tablón	1	Enero	2023-01-25T00:00:00	2024-11-06T13:00:00	7	Dirección del viento	8.05
133159	7	Sololá	701	Sololá	2	El tablón	1	Enero	2023-01-25T00:00:00	2024-11-06T13:00:00	1	Precipitación	0
133160	7	Sololá	701	Sololá	2	El tablón	1	Enero	2023-01-25T00:00:00	2024-11-06T13:00:00	8	Radiación solar	777
133161	7	Sololá	701	Sololá	2	El tablón	1	Enero	2023-01-25T00:00:00	2024-11-06T14:00:00	2	Temperatura media	17.6
133162	7	Sololá	701	Sololá	2	El tablón	1	Enero	2023-01-25T00:00:00	2024-11-06T14:00:00	4	Temperatura máxima	17.8
133163	7	Sololá	701	Sololá	2	El tablón	1	Enero	2023-01-25T00:00:00	2024-11-06T14:00:00	3	Temperatura mínima	17.1
133164	7	Sololá	701	Sololá	2	El tablón	1	Enero	2023-01-25T00:00:00	2024-11-06T14:00:00	5	Humedad	73
133165	7	Sololá	701	Sololá	2	El tablón	1	Enero	2023-01-25T00:00:00	2024-11-06T14:00:00	6	Velocidad del viento	8
133166	7	Sololá	701	Sololá	2	El tablón	1	Enero	2023-01-25T00:00:00	2024-11-06T14:00:00	7	Dirección del viento	8.05
133167	7	Sololá	701	Sololá	2	El tablón	1	Enero	2023-01-25T00:00:00	2024-11-06T14:00:00	1	Precipitación	0
133168	7	Sololá	701	Sololá	2	El tablón	1	Enero	2023-01-25T00:00:00	2024-11-06T14:00:00	8	Radiación solar	755
133169	7	Sololá	701	Sololá	2	El tablón	1	Enero	2023-01-25T00:00:00	2024-11-06T15:00:00	2	Temperatura media	17.7
133170	7	Sololá	701	Sololá	2	El tablón	1	Enero	2023-01-25T00:00:00	2024-11-06T15:00:00	4	Temperatura máxima	18.1
133171	7	Sololá	701	Sololá	2	El tablón	1	Enero	2023-01-25T00:00:00	2024-11-06T15:00:00	3	Temperatura mínima	17.6
133172	7	Sololá	701	Sololá	2	El tablón	1	Enero	2023-01-25T00:00:00	2024-11-06T15:00:00	5	Humedad	74
133173	7	Sololá	701	Sololá	2	El tablón	1	Enero	2023-01-25T00:00:00	2024-11-06T15:00:00	6	Velocidad del viento	8
133174	7	Sololá	701	Sololá	2	El tablón	1	Enero	2023-01-25T00:00:00	2024-11-06T15:00:00	7	Dirección del viento	8.05
133175	7	Sololá	701	Sololá	2	El tablón	1	Enero	2023-01-25T00:00:00	2024-11-06T15:00:00	1	Precipitación	0
133176	7	Sololá	701	Sololá	2	El tablón	1	Enero	2023-01-25T00:00:00	2024-11-06T15:00:00	8	Radiación solar	662
133177	7	Sololá	701	Sololá	2	El tablón	1	Enero	2023-01-25T00:00:00	2024-11-06T16:00:00	2	Temperatura media	17.1
133178	7	Sololá	701	Sololá	2	El tablón	1	Enero	2023-01-25T00:00:00	2024-11-06T16:00:00	4	Temperatura máxima	18.1
133179	7	Sololá	701	Sololá	2	El tablón	1	Enero	2023-01-25T00:00:00	2024-11-06T16:00:00	3	Temperatura mínima	17
133180	7	Sololá	701	Sololá	2	El tablón	1	Enero	2023-01-25T00:00:00	2024-11-06T16:00:00	5	Humedad	82
133181	7	Sololá	701	Sololá	2	El tablón	1	Enero	2023-01-25T00:00:00	2024-11-06T16:00:00	6	Velocidad del viento	6.4
133182	7	Sololá	701	Sololá	2	El tablón	1	Enero	2023-01-25T00:00:00	2024-11-06T16:00:00	7	Dirección del viento	6.44
133183	7	Sololá	701	Sololá	2	El tablón	1	Enero	2023-01-25T00:00:00	2024-11-06T16:00:00	1	Precipitación	0
133184	7	Sololá	701	Sololá	2	El tablón	1	Enero	2023-01-25T00:00:00	2024-11-06T16:00:00	8	Radiación solar	550
133185	7	Sololá	701	Sololá	2	El tablón	1	Enero	2023-01-25T00:00:00	2024-11-06T17:00:00	2	Temperatura media	15.8
133186	7	Sololá	701	Sololá	2	El tablón	1	Enero	2023-01-25T00:00:00	2024-11-06T17:00:00	4	Temperatura máxima	17.2
133187	7	Sololá	701	Sololá	2	El tablón	1	Enero	2023-01-25T00:00:00	2024-11-06T17:00:00	3	Temperatura mínima	15.8
133188	7	Sololá	701	Sololá	2	El tablón	1	Enero	2023-01-25T00:00:00	2024-11-06T17:00:00	5	Humedad	86
133189	7	Sololá	701	Sololá	2	El tablón	1	Enero	2023-01-25T00:00:00	2024-11-06T17:00:00	6	Velocidad del viento	4.8
133190	7	Sololá	701	Sololá	2	El tablón	1	Enero	2023-01-25T00:00:00	2024-11-06T17:00:00	7	Dirección del viento	4.83
133191	7	Sololá	701	Sololá	2	El tablón	1	Enero	2023-01-25T00:00:00	2024-11-06T17:00:00	1	Precipitación	0
133192	7	Sololá	701	Sololá	2	El tablón	1	Enero	2023-01-25T00:00:00	2024-11-06T17:00:00	8	Radiación solar	176
133193	7	Sololá	701	Sololá	2	El tablón	1	Enero	2023-01-25T00:00:00	2024-11-06T18:00:00	2	Temperatura media	14.8
133194	7	Sololá	701	Sololá	2	El tablón	1	Enero	2023-01-25T00:00:00	2024-11-06T18:00:00	4	Temperatura máxima	15.8
133195	7	Sololá	701	Sololá	2	El tablón	1	Enero	2023-01-25T00:00:00	2024-11-06T18:00:00	3	Temperatura mínima	14.8
133196	7	Sololá	701	Sololá	2	El tablón	1	Enero	2023-01-25T00:00:00	2024-11-06T18:00:00	5	Humedad	68
133197	7	Sololá	701	Sololá	2	El tablón	1	Enero	2023-01-25T00:00:00	2024-11-06T18:00:00	6	Velocidad del viento	3.2
133198	7	Sololá	701	Sololá	2	El tablón	1	Enero	2023-01-25T00:00:00	2024-11-06T18:00:00	7	Dirección del viento	3.22
133199	7	Sololá	701	Sololá	2	El tablón	1	Enero	2023-01-25T00:00:00	2024-11-06T18:00:00	1	Precipitación	0
133200	7	Sololá	701	Sololá	2	El tablón	1	Enero	2023-01-25T00:00:00	2024-11-06T18:00:00	8	Radiación solar	52
133201	7	Sololá	701	Sololá	2	El tablón	1	Enero	2023-01-25T00:00:00	2024-11-06T19:00:00	2	Temperatura media	13.8
133202	7	Sololá	701	Sololá	2	El tablón	1	Enero	2023-01-25T00:00:00	2024-11-06T19:00:00	4	Temperatura máxima	14.9
133203	7	Sololá	701	Sololá	2	El tablón	1	Enero	2023-01-25T00:00:00	2024-11-06T19:00:00	3	Temperatura mínima	13.8
133204	7	Sololá	701	Sololá	2	El tablón	1	Enero	2023-01-25T00:00:00	2024-11-06T19:00:00	5	Humedad	55
133205	7	Sololá	701	Sololá	2	El tablón	1	Enero	2023-01-25T00:00:00	2024-11-06T19:00:00	6	Velocidad del viento	8
133206	7	Sololá	701	Sololá	2	El tablón	1	Enero	2023-01-25T00:00:00	2024-11-06T19:00:00	7	Dirección del viento	8.05
133207	7	Sololá	701	Sololá	2	El tablón	1	Enero	2023-01-25T00:00:00	2024-11-06T19:00:00	1	Precipitación	0
133208	7	Sololá	701	Sololá	2	El tablón	1	Enero	2023-01-25T00:00:00	2024-11-06T19:00:00	8	Radiación solar	0
133209	7	Sololá	701	Sololá	2	El tablón	1	Enero	2023-01-25T00:00:00	2024-11-06T20:00:00	2	Temperatura media	12.8
133210	7	Sololá	701	Sololá	2	El tablón	1	Enero	2023-01-25T00:00:00	2024-11-06T20:00:00	4	Temperatura máxima	13.8
133211	7	Sololá	701	Sololá	2	El tablón	1	Enero	2023-01-25T00:00:00	2024-11-06T20:00:00	3	Temperatura mínima	12.8
133212	7	Sololá	701	Sololá	2	El tablón	1	Enero	2023-01-25T00:00:00	2024-11-06T20:00:00	5	Humedad	60
133213	7	Sololá	701	Sololá	2	El tablón	1	Enero	2023-01-25T00:00:00	2024-11-06T20:00:00	6	Velocidad del viento	9.7
133214	7	Sololá	701	Sololá	2	El tablón	1	Enero	2023-01-25T00:00:00	2024-11-06T20:00:00	7	Dirección del viento	9.66
133215	7	Sololá	701	Sololá	2	El tablón	1	Enero	2023-01-25T00:00:00	2024-11-06T20:00:00	1	Precipitación	0
133216	7	Sololá	701	Sololá	2	El tablón	1	Enero	2023-01-25T00:00:00	2024-11-06T20:00:00	8	Radiación solar	0
133217	7	Sololá	701	Sololá	2	El tablón	1	Enero	2023-01-25T00:00:00	2024-11-06T21:00:00	2	Temperatura media	12.1
133218	7	Sololá	701	Sololá	2	El tablón	1	Enero	2023-01-25T00:00:00	2024-11-06T21:00:00	4	Temperatura máxima	12.8
133219	7	Sololá	701	Sololá	2	El tablón	1	Enero	2023-01-25T00:00:00	2024-11-06T21:00:00	3	Temperatura mínima	12.1
133220	7	Sololá	701	Sololá	2	El tablón	1	Enero	2023-01-25T00:00:00	2024-11-06T21:00:00	5	Humedad	65
133221	7	Sololá	701	Sololá	2	El tablón	1	Enero	2023-01-25T00:00:00	2024-11-06T21:00:00	6	Velocidad del viento	14.5
133222	7	Sololá	701	Sololá	2	El tablón	1	Enero	2023-01-25T00:00:00	2024-11-06T21:00:00	7	Dirección del viento	14.48
133223	7	Sololá	701	Sololá	2	El tablón	1	Enero	2023-01-25T00:00:00	2024-11-06T21:00:00	1	Precipitación	0
133224	7	Sololá	701	Sololá	2	El tablón	1	Enero	2023-01-25T00:00:00	2024-11-06T21:00:00	8	Radiación solar	0
133225	7	Sololá	701	Sololá	2	El tablón	1	Enero	2023-01-25T00:00:00	2024-11-06T22:00:00	2	Temperatura media	11.7
133226	7	Sololá	701	Sololá	2	El tablón	1	Enero	2023-01-25T00:00:00	2024-11-06T22:00:00	4	Temperatura máxima	12.1
133227	7	Sololá	701	Sololá	2	El tablón	1	Enero	2023-01-25T00:00:00	2024-11-06T22:00:00	3	Temperatura mínima	11.7
133228	7	Sololá	701	Sololá	2	El tablón	1	Enero	2023-01-25T00:00:00	2024-11-06T22:00:00	5	Humedad	69
133229	7	Sololá	701	Sololá	2	El tablón	1	Enero	2023-01-25T00:00:00	2024-11-06T22:00:00	6	Velocidad del viento	11.3
133230	7	Sololá	701	Sololá	2	El tablón	1	Enero	2023-01-25T00:00:00	2024-11-06T22:00:00	7	Dirección del viento	11.27
133231	7	Sololá	701	Sololá	2	El tablón	1	Enero	2023-01-25T00:00:00	2024-11-06T22:00:00	1	Precipitación	0
133232	7	Sololá	701	Sololá	2	El tablón	1	Enero	2023-01-25T00:00:00	2024-11-06T22:00:00	8	Radiación solar	0
133233	7	Sololá	701	Sololá	2	El tablón	1	Enero	2023-01-25T00:00:00	2024-11-06T23:00:00	2	Temperatura media	10.9
133234	7	Sololá	701	Sololá	2	El tablón	1	Enero	2023-01-25T00:00:00	2024-11-06T23:00:00	4	Temperatura máxima	11.7
133235	7	Sololá	701	Sololá	2	El tablón	1	Enero	2023-01-25T00:00:00	2024-11-06T23:00:00	3	Temperatura mínima	10.9
133236	7	Sololá	701	Sololá	2	El tablón	1	Enero	2023-01-25T00:00:00	2024-11-06T23:00:00	5	Humedad	81
133237	7	Sololá	701	Sololá	2	El tablón	1	Enero	2023-01-25T00:00:00	2024-11-06T23:00:00	6	Velocidad del viento	11.3
133238	7	Sololá	701	Sololá	2	El tablón	1	Enero	2023-01-25T00:00:00	2024-11-06T23:00:00	7	Dirección del viento	11.27
133239	7	Sololá	701	Sololá	2	El tablón	1	Enero	2023-01-25T00:00:00	2024-11-06T23:00:00	1	Precipitación	0
133240	7	Sololá	701	Sololá	2	El tablón	1	Enero	2023-01-25T00:00:00	2024-11-06T23:00:00	8	Radiación solar	0
133241	7	Sololá	701	Sololá	2	El tablón	1	Enero	2023-01-26T00:00:00	2024-11-06T00:00:00	2	Temperatura media	10.7
133242	7	Sololá	701	Sololá	2	El tablón	1	Enero	2023-01-26T00:00:00	2024-11-06T00:00:00	4	Temperatura máxima	10.9
133243	7	Sololá	701	Sololá	2	El tablón	1	Enero	2023-01-26T00:00:00	2024-11-06T00:00:00	3	Temperatura mínima	10.7
133244	7	Sololá	701	Sololá	2	El tablón	1	Enero	2023-01-26T00:00:00	2024-11-06T00:00:00	5	Humedad	86
133245	7	Sololá	701	Sololá	2	El tablón	1	Enero	2023-01-26T00:00:00	2024-11-06T00:00:00	6	Velocidad del viento	11.3
133246	7	Sololá	701	Sololá	2	El tablón	1	Enero	2023-01-26T00:00:00	2024-11-06T00:00:00	7	Dirección del viento	11.27
133247	7	Sololá	701	Sololá	2	El tablón	1	Enero	2023-01-26T00:00:00	2024-11-06T00:00:00	1	Precipitación	0
133248	7	Sololá	701	Sololá	2	El tablón	1	Enero	2023-01-26T00:00:00	2024-11-06T00:00:00	8	Radiación solar	0
133249	7	Sololá	701	Sololá	2	El tablón	1	Enero	2023-01-26T00:00:00	2024-11-06T01:00:00	2	Temperatura media	10.7
133250	7	Sololá	701	Sololá	2	El tablón	1	Enero	2023-01-26T00:00:00	2024-11-06T01:00:00	4	Temperatura máxima	10.8
133251	7	Sololá	701	Sololá	2	El tablón	1	Enero	2023-01-26T00:00:00	2024-11-06T01:00:00	3	Temperatura mínima	10.7
133252	7	Sololá	701	Sololá	2	El tablón	1	Enero	2023-01-26T00:00:00	2024-11-06T01:00:00	5	Humedad	86
133253	7	Sololá	701	Sololá	2	El tablón	1	Enero	2023-01-26T00:00:00	2024-11-06T01:00:00	6	Velocidad del viento	12.9
133254	7	Sololá	701	Sololá	2	El tablón	1	Enero	2023-01-26T00:00:00	2024-11-06T01:00:00	7	Dirección del viento	12.87
133255	7	Sololá	701	Sololá	2	El tablón	1	Enero	2023-01-26T00:00:00	2024-11-06T01:00:00	1	Precipitación	0
133256	7	Sololá	701	Sololá	2	El tablón	1	Enero	2023-01-26T00:00:00	2024-11-06T01:00:00	8	Radiación solar	0
133257	7	Sololá	701	Sololá	2	El tablón	1	Enero	2023-01-26T00:00:00	2024-11-06T02:00:00	2	Temperatura media	10.6
133258	7	Sololá	701	Sololá	2	El tablón	1	Enero	2023-01-26T00:00:00	2024-11-06T02:00:00	4	Temperatura máxima	10.7
133259	7	Sololá	701	Sololá	2	El tablón	1	Enero	2023-01-26T00:00:00	2024-11-06T02:00:00	3	Temperatura mínima	10.6
133260	7	Sololá	701	Sololá	2	El tablón	1	Enero	2023-01-26T00:00:00	2024-11-06T02:00:00	5	Humedad	87
133261	7	Sololá	701	Sololá	2	El tablón	1	Enero	2023-01-26T00:00:00	2024-11-06T02:00:00	6	Velocidad del viento	12.9
133262	7	Sololá	701	Sololá	2	El tablón	1	Enero	2023-01-26T00:00:00	2024-11-06T02:00:00	7	Dirección del viento	12.87
133263	7	Sololá	701	Sololá	2	El tablón	1	Enero	2023-01-26T00:00:00	2024-11-06T02:00:00	1	Precipitación	0
133264	7	Sololá	701	Sololá	2	El tablón	1	Enero	2023-01-26T00:00:00	2024-11-06T02:00:00	8	Radiación solar	0
133265	7	Sololá	701	Sololá	2	El tablón	1	Enero	2023-01-26T00:00:00	2024-11-06T03:00:00	2	Temperatura media	10.7
133266	7	Sololá	701	Sololá	2	El tablón	1	Enero	2023-01-26T00:00:00	2024-11-06T03:00:00	4	Temperatura máxima	10.7
133267	7	Sololá	701	Sololá	2	El tablón	1	Enero	2023-01-26T00:00:00	2024-11-06T03:00:00	3	Temperatura mínima	10.6
133268	7	Sololá	701	Sololá	2	El tablón	1	Enero	2023-01-26T00:00:00	2024-11-06T03:00:00	5	Humedad	85
133269	7	Sololá	701	Sololá	2	El tablón	1	Enero	2023-01-26T00:00:00	2024-11-06T03:00:00	6	Velocidad del viento	14.5
133270	7	Sololá	701	Sololá	2	El tablón	1	Enero	2023-01-26T00:00:00	2024-11-06T03:00:00	7	Dirección del viento	14.48
133271	7	Sololá	701	Sololá	2	El tablón	1	Enero	2023-01-26T00:00:00	2024-11-06T03:00:00	1	Precipitación	0
133272	7	Sololá	701	Sololá	2	El tablón	1	Enero	2023-01-26T00:00:00	2024-11-06T03:00:00	8	Radiación solar	0
133273	7	Sololá	701	Sololá	2	El tablón	1	Enero	2023-01-26T00:00:00	2024-11-06T04:00:00	2	Temperatura media	10.7
133274	7	Sololá	701	Sololá	2	El tablón	1	Enero	2023-01-26T00:00:00	2024-11-06T04:00:00	4	Temperatura máxima	10.8
133275	7	Sololá	701	Sololá	2	El tablón	1	Enero	2023-01-26T00:00:00	2024-11-06T04:00:00	3	Temperatura mínima	10.7
133276	7	Sololá	701	Sololá	2	El tablón	1	Enero	2023-01-26T00:00:00	2024-11-06T04:00:00	5	Humedad	85
133277	7	Sololá	701	Sololá	2	El tablón	1	Enero	2023-01-26T00:00:00	2024-11-06T04:00:00	6	Velocidad del viento	14.5
133278	7	Sololá	701	Sololá	2	El tablón	1	Enero	2023-01-26T00:00:00	2024-11-06T04:00:00	7	Dirección del viento	14.48
133279	7	Sololá	701	Sololá	2	El tablón	1	Enero	2023-01-26T00:00:00	2024-11-06T04:00:00	1	Precipitación	0
133280	7	Sololá	701	Sololá	2	El tablón	1	Enero	2023-01-26T00:00:00	2024-11-06T04:00:00	8	Radiación solar	0
133281	7	Sololá	701	Sololá	2	El tablón	1	Enero	2023-01-26T00:00:00	2024-11-06T05:00:00	2	Temperatura media	10.8
133282	7	Sololá	701	Sololá	2	El tablón	1	Enero	2023-01-26T00:00:00	2024-11-06T05:00:00	4	Temperatura máxima	10.9
133283	7	Sololá	701	Sololá	2	El tablón	1	Enero	2023-01-26T00:00:00	2024-11-06T05:00:00	3	Temperatura mínima	10.7
133284	7	Sololá	701	Sololá	2	El tablón	1	Enero	2023-01-26T00:00:00	2024-11-06T05:00:00	5	Humedad	85
133285	7	Sololá	701	Sololá	2	El tablón	1	Enero	2023-01-26T00:00:00	2024-11-06T05:00:00	6	Velocidad del viento	16.1
133286	7	Sololá	701	Sololá	2	El tablón	1	Enero	2023-01-26T00:00:00	2024-11-06T05:00:00	7	Dirección del viento	16.09
133287	7	Sololá	701	Sololá	2	El tablón	1	Enero	2023-01-26T00:00:00	2024-11-06T05:00:00	1	Precipitación	0
133288	7	Sololá	701	Sololá	2	El tablón	1	Enero	2023-01-26T00:00:00	2024-11-06T05:00:00	8	Radiación solar	0
133289	7	Sololá	701	Sololá	2	El tablón	1	Enero	2023-01-26T00:00:00	2024-11-06T06:00:00	2	Temperatura media	11.1
133290	7	Sololá	701	Sololá	2	El tablón	1	Enero	2023-01-26T00:00:00	2024-11-06T06:00:00	4	Temperatura máxima	11.2
133291	7	Sololá	701	Sololá	2	El tablón	1	Enero	2023-01-26T00:00:00	2024-11-06T06:00:00	3	Temperatura mínima	10.8
133292	7	Sololá	701	Sololá	2	El tablón	1	Enero	2023-01-26T00:00:00	2024-11-06T06:00:00	5	Humedad	83
133293	7	Sololá	701	Sololá	2	El tablón	1	Enero	2023-01-26T00:00:00	2024-11-06T06:00:00	6	Velocidad del viento	17.7
133294	7	Sololá	701	Sololá	2	El tablón	1	Enero	2023-01-26T00:00:00	2024-11-06T06:00:00	7	Dirección del viento	17.7
133295	7	Sololá	701	Sololá	2	El tablón	1	Enero	2023-01-26T00:00:00	2024-11-06T06:00:00	1	Precipitación	0
133296	7	Sololá	701	Sololá	2	El tablón	1	Enero	2023-01-26T00:00:00	2024-11-06T06:00:00	8	Radiación solar	0
133297	7	Sololá	701	Sololá	2	El tablón	1	Enero	2023-01-26T00:00:00	2024-11-06T07:00:00	2	Temperatura media	11.6
133298	7	Sololá	701	Sololá	2	El tablón	1	Enero	2023-01-26T00:00:00	2024-11-06T07:00:00	4	Temperatura máxima	11.6
133299	7	Sololá	701	Sololá	2	El tablón	1	Enero	2023-01-26T00:00:00	2024-11-06T07:00:00	3	Temperatura mínima	11.1
133300	7	Sololá	701	Sololá	2	El tablón	1	Enero	2023-01-26T00:00:00	2024-11-06T07:00:00	5	Humedad	82
133301	7	Sololá	701	Sololá	2	El tablón	1	Enero	2023-01-26T00:00:00	2024-11-06T07:00:00	6	Velocidad del viento	14.5
133302	7	Sololá	701	Sololá	2	El tablón	1	Enero	2023-01-26T00:00:00	2024-11-06T07:00:00	7	Dirección del viento	14.48
133303	7	Sololá	701	Sololá	2	El tablón	1	Enero	2023-01-26T00:00:00	2024-11-06T07:00:00	1	Precipitación	0
133304	7	Sololá	701	Sololá	2	El tablón	1	Enero	2023-01-26T00:00:00	2024-11-06T07:00:00	8	Radiación solar	5
133305	7	Sololá	701	Sololá	2	El tablón	1	Enero	2023-01-26T00:00:00	2024-11-06T08:00:00	2	Temperatura media	12.8
133306	7	Sololá	701	Sololá	2	El tablón	1	Enero	2023-01-26T00:00:00	2024-11-06T08:00:00	4	Temperatura máxima	12.8
133307	7	Sololá	701	Sololá	2	El tablón	1	Enero	2023-01-26T00:00:00	2024-11-06T08:00:00	3	Temperatura mínima	11.6
133308	7	Sololá	701	Sololá	2	El tablón	1	Enero	2023-01-26T00:00:00	2024-11-06T08:00:00	5	Humedad	80
133309	7	Sololá	701	Sololá	2	El tablón	1	Enero	2023-01-26T00:00:00	2024-11-06T08:00:00	6	Velocidad del viento	12.9
133310	7	Sololá	701	Sololá	2	El tablón	1	Enero	2023-01-26T00:00:00	2024-11-06T08:00:00	7	Dirección del viento	12.87
133311	7	Sololá	701	Sololá	2	El tablón	1	Enero	2023-01-26T00:00:00	2024-11-06T08:00:00	1	Precipitación	0
133312	7	Sololá	701	Sololá	2	El tablón	1	Enero	2023-01-26T00:00:00	2024-11-06T08:00:00	8	Radiación solar	110
133313	7	Sololá	701	Sololá	2	El tablón	1	Enero	2023-01-26T00:00:00	2024-11-06T09:00:00	2	Temperatura media	13.8
133314	7	Sololá	701	Sololá	2	El tablón	1	Enero	2023-01-26T00:00:00	2024-11-06T09:00:00	4	Temperatura máxima	13.8
133315	7	Sololá	701	Sololá	2	El tablón	1	Enero	2023-01-26T00:00:00	2024-11-06T09:00:00	3	Temperatura mínima	12.8
133316	7	Sololá	701	Sololá	2	El tablón	1	Enero	2023-01-26T00:00:00	2024-11-06T09:00:00	5	Humedad	79
133317	7	Sololá	701	Sololá	2	El tablón	1	Enero	2023-01-26T00:00:00	2024-11-06T09:00:00	6	Velocidad del viento	16.1
133318	7	Sololá	701	Sololá	2	El tablón	1	Enero	2023-01-26T00:00:00	2024-11-06T09:00:00	7	Dirección del viento	16.09
133319	7	Sololá	701	Sololá	2	El tablón	1	Enero	2023-01-26T00:00:00	2024-11-06T09:00:00	1	Precipitación	0
133320	7	Sololá	701	Sololá	2	El tablón	1	Enero	2023-01-26T00:00:00	2024-11-06T09:00:00	8	Radiación solar	329
133321	7	Sololá	701	Sololá	2	El tablón	1	Enero	2023-01-26T00:00:00	2024-11-06T10:00:00	2	Temperatura media	15.1
133322	7	Sololá	701	Sololá	2	El tablón	1	Enero	2023-01-26T00:00:00	2024-11-06T10:00:00	4	Temperatura máxima	15.1
133323	7	Sololá	701	Sololá	2	El tablón	1	Enero	2023-01-26T00:00:00	2024-11-06T10:00:00	3	Temperatura mínima	13.7
133324	7	Sololá	701	Sololá	2	El tablón	1	Enero	2023-01-26T00:00:00	2024-11-06T10:00:00	5	Humedad	72
133325	7	Sololá	701	Sololá	2	El tablón	1	Enero	2023-01-26T00:00:00	2024-11-06T10:00:00	6	Velocidad del viento	16.1
133326	7	Sololá	701	Sololá	2	El tablón	1	Enero	2023-01-26T00:00:00	2024-11-06T10:00:00	7	Dirección del viento	16.09
133327	7	Sololá	701	Sololá	2	El tablón	1	Enero	2023-01-26T00:00:00	2024-11-06T10:00:00	1	Precipitación	0
133328	7	Sololá	701	Sololá	2	El tablón	1	Enero	2023-01-26T00:00:00	2024-11-06T10:00:00	8	Radiación solar	525
133329	7	Sololá	701	Sololá	2	El tablón	1	Enero	2023-01-26T00:00:00	2024-11-06T11:00:00	2	Temperatura media	15.7
133330	7	Sololá	701	Sololá	2	El tablón	1	Enero	2023-01-26T00:00:00	2024-11-06T11:00:00	4	Temperatura máxima	16
133331	7	Sololá	701	Sololá	2	El tablón	1	Enero	2023-01-26T00:00:00	2024-11-06T11:00:00	3	Temperatura mínima	14.9
133332	7	Sololá	701	Sololá	2	El tablón	1	Enero	2023-01-26T00:00:00	2024-11-06T11:00:00	5	Humedad	67
133333	7	Sololá	701	Sololá	2	El tablón	1	Enero	2023-01-26T00:00:00	2024-11-06T11:00:00	6	Velocidad del viento	17.7
133334	7	Sololá	701	Sololá	2	El tablón	1	Enero	2023-01-26T00:00:00	2024-11-06T11:00:00	7	Dirección del viento	17.7
133335	7	Sololá	701	Sololá	2	El tablón	1	Enero	2023-01-26T00:00:00	2024-11-06T11:00:00	1	Precipitación	0
133336	7	Sololá	701	Sololá	2	El tablón	1	Enero	2023-01-26T00:00:00	2024-11-06T11:00:00	8	Radiación solar	679
133337	7	Sololá	701	Sololá	2	El tablón	1	Enero	2023-01-26T00:00:00	2024-11-06T12:00:00	2	Temperatura media	16.5
133338	7	Sololá	701	Sololá	2	El tablón	1	Enero	2023-01-26T00:00:00	2024-11-06T12:00:00	4	Temperatura máxima	16.6
133339	7	Sololá	701	Sololá	2	El tablón	1	Enero	2023-01-26T00:00:00	2024-11-06T12:00:00	3	Temperatura mínima	15.5
133340	7	Sololá	701	Sololá	2	El tablón	1	Enero	2023-01-26T00:00:00	2024-11-06T12:00:00	5	Humedad	66
133341	7	Sololá	701	Sololá	2	El tablón	1	Enero	2023-01-26T00:00:00	2024-11-06T12:00:00	6	Velocidad del viento	17.7
133342	7	Sololá	701	Sololá	2	El tablón	1	Enero	2023-01-26T00:00:00	2024-11-06T12:00:00	7	Dirección del viento	17.7
133343	7	Sololá	701	Sololá	2	El tablón	1	Enero	2023-01-26T00:00:00	2024-11-06T12:00:00	1	Precipitación	0
133344	7	Sololá	701	Sololá	2	El tablón	1	Enero	2023-01-26T00:00:00	2024-11-06T12:00:00	8	Radiación solar	672
133345	7	Sololá	701	Sololá	2	El tablón	1	Enero	2023-01-26T00:00:00	2024-11-06T13:00:00	2	Temperatura media	16.7
133346	7	Sololá	701	Sololá	2	El tablón	1	Enero	2023-01-26T00:00:00	2024-11-06T13:00:00	4	Temperatura máxima	17.2
133347	7	Sololá	701	Sololá	2	El tablón	1	Enero	2023-01-26T00:00:00	2024-11-06T13:00:00	3	Temperatura mínima	16.3
133348	7	Sololá	701	Sololá	2	El tablón	1	Enero	2023-01-26T00:00:00	2024-11-06T13:00:00	5	Humedad	63
133349	7	Sololá	701	Sololá	2	El tablón	1	Enero	2023-01-26T00:00:00	2024-11-06T13:00:00	6	Velocidad del viento	16.1
133350	7	Sololá	701	Sololá	2	El tablón	1	Enero	2023-01-26T00:00:00	2024-11-06T13:00:00	7	Dirección del viento	16.09
133351	7	Sololá	701	Sololá	2	El tablón	1	Enero	2023-01-26T00:00:00	2024-11-06T13:00:00	1	Precipitación	0
133352	7	Sololá	701	Sololá	2	El tablón	1	Enero	2023-01-26T00:00:00	2024-11-06T13:00:00	8	Radiación solar	785
133353	7	Sololá	701	Sololá	2	El tablón	1	Enero	2023-01-26T00:00:00	2024-11-06T14:00:00	2	Temperatura media	16.5
133354	7	Sololá	701	Sololá	2	El tablón	1	Enero	2023-01-26T00:00:00	2024-11-06T14:00:00	4	Temperatura máxima	17.4
133355	7	Sololá	701	Sololá	2	El tablón	1	Enero	2023-01-26T00:00:00	2024-11-06T14:00:00	3	Temperatura mínima	16.5
133356	7	Sololá	701	Sololá	2	El tablón	1	Enero	2023-01-26T00:00:00	2024-11-06T14:00:00	5	Humedad	63
133357	7	Sololá	701	Sololá	2	El tablón	1	Enero	2023-01-26T00:00:00	2024-11-06T14:00:00	6	Velocidad del viento	16.1
133358	7	Sololá	701	Sololá	2	El tablón	1	Enero	2023-01-26T00:00:00	2024-11-06T14:00:00	7	Dirección del viento	16.09
133359	7	Sololá	701	Sololá	2	El tablón	1	Enero	2023-01-26T00:00:00	2024-11-06T14:00:00	1	Precipitación	0
133360	7	Sololá	701	Sololá	2	El tablón	1	Enero	2023-01-26T00:00:00	2024-11-06T14:00:00	8	Radiación solar	745
133361	7	Sololá	701	Sololá	2	El tablón	1	Enero	2023-01-26T00:00:00	2024-11-06T15:00:00	2	Temperatura media	17.5
133362	7	Sololá	701	Sololá	2	El tablón	1	Enero	2023-01-26T00:00:00	2024-11-06T15:00:00	4	Temperatura máxima	17.5
133363	7	Sololá	701	Sololá	2	El tablón	1	Enero	2023-01-26T00:00:00	2024-11-06T15:00:00	3	Temperatura mínima	16.4
133364	7	Sololá	701	Sololá	2	El tablón	1	Enero	2023-01-26T00:00:00	2024-11-06T15:00:00	5	Humedad	58
133365	7	Sololá	701	Sololá	2	El tablón	1	Enero	2023-01-26T00:00:00	2024-11-06T15:00:00	6	Velocidad del viento	14.5
133366	7	Sololá	701	Sololá	2	El tablón	1	Enero	2023-01-26T00:00:00	2024-11-06T15:00:00	7	Dirección del viento	14.48
133367	7	Sololá	701	Sololá	2	El tablón	1	Enero	2023-01-26T00:00:00	2024-11-06T15:00:00	1	Precipitación	0
133368	7	Sololá	701	Sololá	2	El tablón	1	Enero	2023-01-26T00:00:00	2024-11-06T15:00:00	8	Radiación solar	638
133369	7	Sololá	701	Sololá	2	El tablón	1	Enero	2023-01-26T00:00:00	2024-11-06T16:00:00	2	Temperatura media	16.1
133370	7	Sololá	701	Sololá	2	El tablón	1	Enero	2023-01-26T00:00:00	2024-11-06T16:00:00	4	Temperatura máxima	17.5
133371	7	Sololá	701	Sololá	2	El tablón	1	Enero	2023-01-26T00:00:00	2024-11-06T16:00:00	3	Temperatura mínima	15.6
133372	7	Sololá	701	Sololá	2	El tablón	1	Enero	2023-01-26T00:00:00	2024-11-06T16:00:00	5	Humedad	68
133373	7	Sololá	701	Sololá	2	El tablón	1	Enero	2023-01-26T00:00:00	2024-11-06T16:00:00	6	Velocidad del viento	14.5
133374	7	Sololá	701	Sololá	2	El tablón	1	Enero	2023-01-26T00:00:00	2024-11-06T16:00:00	7	Dirección del viento	14.48
133375	7	Sololá	701	Sololá	2	El tablón	1	Enero	2023-01-26T00:00:00	2024-11-06T16:00:00	1	Precipitación	0
133376	7	Sololá	701	Sololá	2	El tablón	1	Enero	2023-01-26T00:00:00	2024-11-06T16:00:00	8	Radiación solar	473
133377	7	Sololá	701	Sololá	2	El tablón	1	Enero	2023-01-26T00:00:00	2024-11-06T17:00:00	2	Temperatura media	14.6
133378	7	Sololá	701	Sololá	2	El tablón	1	Enero	2023-01-26T00:00:00	2024-11-06T17:00:00	4	Temperatura máxima	16.2
133379	7	Sololá	701	Sololá	2	El tablón	1	Enero	2023-01-26T00:00:00	2024-11-06T17:00:00	3	Temperatura mínima	14.2
133380	7	Sololá	701	Sololá	2	El tablón	1	Enero	2023-01-26T00:00:00	2024-11-06T17:00:00	5	Humedad	72
133381	7	Sololá	701	Sololá	2	El tablón	1	Enero	2023-01-26T00:00:00	2024-11-06T17:00:00	6	Velocidad del viento	14.5
133382	7	Sololá	701	Sololá	2	El tablón	1	Enero	2023-01-26T00:00:00	2024-11-06T17:00:00	7	Dirección del viento	14.48
133383	7	Sololá	701	Sololá	2	El tablón	1	Enero	2023-01-26T00:00:00	2024-11-06T17:00:00	1	Precipitación	0
133384	7	Sololá	701	Sololá	2	El tablón	1	Enero	2023-01-26T00:00:00	2024-11-06T17:00:00	8	Radiación solar	255
133385	7	Sololá	701	Sololá	2	El tablón	1	Enero	2023-01-26T00:00:00	2024-11-06T18:00:00	2	Temperatura media	11.8
133386	7	Sololá	701	Sololá	2	El tablón	1	Enero	2023-01-26T00:00:00	2024-11-06T18:00:00	4	Temperatura máxima	14.6
133387	7	Sololá	701	Sololá	2	El tablón	1	Enero	2023-01-26T00:00:00	2024-11-06T18:00:00	3	Temperatura mínima	11.8
133388	7	Sololá	701	Sololá	2	El tablón	1	Enero	2023-01-26T00:00:00	2024-11-06T18:00:00	5	Humedad	82
133389	7	Sololá	701	Sololá	2	El tablón	1	Enero	2023-01-26T00:00:00	2024-11-06T18:00:00	6	Velocidad del viento	17.7
133390	7	Sololá	701	Sololá	2	El tablón	1	Enero	2023-01-26T00:00:00	2024-11-06T18:00:00	7	Dirección del viento	17.7
133391	7	Sololá	701	Sololá	2	El tablón	1	Enero	2023-01-26T00:00:00	2024-11-06T18:00:00	1	Precipitación	0
133392	7	Sololá	701	Sololá	2	El tablón	1	Enero	2023-01-26T00:00:00	2024-11-06T18:00:00	8	Radiación solar	29
133393	7	Sololá	701	Sololá	2	El tablón	1	Enero	2023-01-26T00:00:00	2024-11-06T19:00:00	2	Temperatura media	11.2
133394	7	Sololá	701	Sololá	2	El tablón	1	Enero	2023-01-26T00:00:00	2024-11-06T19:00:00	4	Temperatura máxima	11.8
133395	7	Sololá	701	Sololá	2	El tablón	1	Enero	2023-01-26T00:00:00	2024-11-06T19:00:00	3	Temperatura mínima	11.2
133396	7	Sololá	701	Sololá	2	El tablón	1	Enero	2023-01-26T00:00:00	2024-11-06T19:00:00	5	Humedad	83
133397	7	Sololá	701	Sololá	2	El tablón	1	Enero	2023-01-26T00:00:00	2024-11-06T19:00:00	6	Velocidad del viento	17.7
133398	7	Sololá	701	Sololá	2	El tablón	1	Enero	2023-01-26T00:00:00	2024-11-06T19:00:00	7	Dirección del viento	17.7
133399	7	Sololá	701	Sololá	2	El tablón	1	Enero	2023-01-26T00:00:00	2024-11-06T19:00:00	1	Precipitación	0
133400	7	Sololá	701	Sololá	2	El tablón	1	Enero	2023-01-26T00:00:00	2024-11-06T19:00:00	8	Radiación solar	0
133401	7	Sololá	701	Sololá	2	El tablón	1	Enero	2023-01-26T00:00:00	2024-11-06T20:00:00	2	Temperatura media	11.1
133402	7	Sololá	701	Sololá	2	El tablón	1	Enero	2023-01-26T00:00:00	2024-11-06T20:00:00	4	Temperatura máxima	11.3
133403	7	Sololá	701	Sololá	2	El tablón	1	Enero	2023-01-26T00:00:00	2024-11-06T20:00:00	3	Temperatura mínima	11.1
133404	7	Sololá	701	Sololá	2	El tablón	1	Enero	2023-01-26T00:00:00	2024-11-06T20:00:00	5	Humedad	81
133405	7	Sololá	701	Sololá	2	El tablón	1	Enero	2023-01-26T00:00:00	2024-11-06T20:00:00	6	Velocidad del viento	19.3
133406	7	Sololá	701	Sololá	2	El tablón	1	Enero	2023-01-26T00:00:00	2024-11-06T20:00:00	7	Dirección del viento	19.31
133407	7	Sololá	701	Sololá	2	El tablón	1	Enero	2023-01-26T00:00:00	2024-11-06T20:00:00	1	Precipitación	0
133408	7	Sololá	701	Sololá	2	El tablón	1	Enero	2023-01-26T00:00:00	2024-11-06T20:00:00	8	Radiación solar	0
133409	7	Sololá	701	Sololá	2	El tablón	1	Enero	2023-01-26T00:00:00	2024-11-06T21:00:00	2	Temperatura media	10.7
133410	7	Sololá	701	Sololá	2	El tablón	1	Enero	2023-01-26T00:00:00	2024-11-06T21:00:00	4	Temperatura máxima	11.2
133411	7	Sololá	701	Sololá	2	El tablón	1	Enero	2023-01-26T00:00:00	2024-11-06T21:00:00	3	Temperatura mínima	10.7
133412	7	Sololá	701	Sololá	2	El tablón	1	Enero	2023-01-26T00:00:00	2024-11-06T21:00:00	5	Humedad	84
133413	7	Sololá	701	Sololá	2	El tablón	1	Enero	2023-01-26T00:00:00	2024-11-06T21:00:00	6	Velocidad del viento	20.9
133414	7	Sololá	701	Sololá	2	El tablón	1	Enero	2023-01-26T00:00:00	2024-11-06T21:00:00	7	Dirección del viento	20.92
133415	7	Sololá	701	Sololá	2	El tablón	1	Enero	2023-01-26T00:00:00	2024-11-06T21:00:00	1	Precipitación	0
133416	7	Sololá	701	Sololá	2	El tablón	1	Enero	2023-01-26T00:00:00	2024-11-06T21:00:00	8	Radiación solar	0
133417	7	Sololá	701	Sololá	2	El tablón	1	Enero	2023-01-26T00:00:00	2024-11-06T22:00:00	2	Temperatura media	10.5
133418	7	Sololá	701	Sololá	2	El tablón	1	Enero	2023-01-26T00:00:00	2024-11-06T22:00:00	4	Temperatura máxima	10.7
133419	7	Sololá	701	Sololá	2	El tablón	1	Enero	2023-01-26T00:00:00	2024-11-06T22:00:00	3	Temperatura mínima	10.4
133420	7	Sololá	701	Sololá	2	El tablón	1	Enero	2023-01-26T00:00:00	2024-11-06T22:00:00	5	Humedad	85
133421	7	Sololá	701	Sololá	2	El tablón	1	Enero	2023-01-26T00:00:00	2024-11-06T22:00:00	6	Velocidad del viento	24.1
133422	7	Sololá	701	Sololá	2	El tablón	1	Enero	2023-01-26T00:00:00	2024-11-06T22:00:00	7	Dirección del viento	24.14
133423	7	Sololá	701	Sololá	2	El tablón	1	Enero	2023-01-26T00:00:00	2024-11-06T22:00:00	1	Precipitación	0
133424	7	Sololá	701	Sololá	2	El tablón	1	Enero	2023-01-26T00:00:00	2024-11-06T22:00:00	8	Radiación solar	0
133425	7	Sololá	701	Sololá	2	El tablón	1	Enero	2023-01-26T00:00:00	2024-11-06T23:00:00	2	Temperatura media	10.6
133426	7	Sololá	701	Sololá	2	El tablón	1	Enero	2023-01-26T00:00:00	2024-11-06T23:00:00	4	Temperatura máxima	10.6
133427	7	Sololá	701	Sololá	2	El tablón	1	Enero	2023-01-26T00:00:00	2024-11-06T23:00:00	3	Temperatura mínima	10.3
133428	7	Sololá	701	Sololá	2	El tablón	1	Enero	2023-01-26T00:00:00	2024-11-06T23:00:00	5	Humedad	84
133429	7	Sololá	701	Sololá	2	El tablón	1	Enero	2023-01-26T00:00:00	2024-11-06T23:00:00	6	Velocidad del viento	24.1
133430	7	Sololá	701	Sololá	2	El tablón	1	Enero	2023-01-26T00:00:00	2024-11-06T23:00:00	7	Dirección del viento	24.14
133431	7	Sololá	701	Sololá	2	El tablón	1	Enero	2023-01-26T00:00:00	2024-11-06T23:00:00	1	Precipitación	0
133432	7	Sololá	701	Sololá	2	El tablón	1	Enero	2023-01-26T00:00:00	2024-11-06T23:00:00	8	Radiación solar	0
133433	7	Sololá	701	Sololá	2	El tablón	1	Enero	2023-01-27T00:00:00	2024-11-06T00:00:00	2	Temperatura media	10.5
133434	7	Sololá	701	Sololá	2	El tablón	1	Enero	2023-01-27T00:00:00	2024-11-06T00:00:00	4	Temperatura máxima	10.9
133435	7	Sololá	701	Sololá	2	El tablón	1	Enero	2023-01-27T00:00:00	2024-11-06T00:00:00	3	Temperatura mínima	10.4
133436	7	Sololá	701	Sololá	2	El tablón	1	Enero	2023-01-27T00:00:00	2024-11-06T00:00:00	5	Humedad	85
133437	7	Sololá	701	Sololá	2	El tablón	1	Enero	2023-01-27T00:00:00	2024-11-06T00:00:00	6	Velocidad del viento	25.7
133438	7	Sololá	701	Sololá	2	El tablón	1	Enero	2023-01-27T00:00:00	2024-11-06T00:00:00	7	Dirección del viento	25.75
133439	7	Sololá	701	Sololá	2	El tablón	1	Enero	2023-01-27T00:00:00	2024-11-06T00:00:00	1	Precipitación	0
133440	7	Sololá	701	Sololá	2	El tablón	1	Enero	2023-01-27T00:00:00	2024-11-06T00:00:00	8	Radiación solar	0
133441	7	Sololá	701	Sololá	2	El tablón	1	Enero	2023-01-27T00:00:00	2024-11-06T01:00:00	2	Temperatura media	10.8
133442	7	Sololá	701	Sololá	2	El tablón	1	Enero	2023-01-27T00:00:00	2024-11-06T01:00:00	4	Temperatura máxima	10.8
133443	7	Sololá	701	Sololá	2	El tablón	1	Enero	2023-01-27T00:00:00	2024-11-06T01:00:00	3	Temperatura mínima	10.4
133444	7	Sololá	701	Sololá	2	El tablón	1	Enero	2023-01-27T00:00:00	2024-11-06T01:00:00	5	Humedad	84
133445	7	Sololá	701	Sololá	2	El tablón	1	Enero	2023-01-27T00:00:00	2024-11-06T01:00:00	6	Velocidad del viento	24.1
133446	7	Sololá	701	Sololá	2	El tablón	1	Enero	2023-01-27T00:00:00	2024-11-06T01:00:00	7	Dirección del viento	24.14
133447	7	Sololá	701	Sololá	2	El tablón	1	Enero	2023-01-27T00:00:00	2024-11-06T01:00:00	1	Precipitación	0
133448	7	Sololá	701	Sololá	2	El tablón	1	Enero	2023-01-27T00:00:00	2024-11-06T01:00:00	8	Radiación solar	0
133449	7	Sololá	701	Sololá	2	El tablón	1	Enero	2023-01-27T00:00:00	2024-11-06T02:00:00	2	Temperatura media	11.1
133450	7	Sololá	701	Sololá	2	El tablón	1	Enero	2023-01-27T00:00:00	2024-11-06T02:00:00	4	Temperatura máxima	11.1
133451	7	Sololá	701	Sololá	2	El tablón	1	Enero	2023-01-27T00:00:00	2024-11-06T02:00:00	3	Temperatura mínima	10.7
133452	7	Sololá	701	Sololá	2	El tablón	1	Enero	2023-01-27T00:00:00	2024-11-06T02:00:00	5	Humedad	87
133453	7	Sololá	701	Sololá	2	El tablón	1	Enero	2023-01-27T00:00:00	2024-11-06T02:00:00	6	Velocidad del viento	25.7
133454	7	Sololá	701	Sololá	2	El tablón	1	Enero	2023-01-27T00:00:00	2024-11-06T02:00:00	7	Dirección del viento	25.75
133455	7	Sololá	701	Sololá	2	El tablón	1	Enero	2023-01-27T00:00:00	2024-11-06T02:00:00	1	Precipitación	0
133456	7	Sololá	701	Sololá	2	El tablón	1	Enero	2023-01-27T00:00:00	2024-11-06T02:00:00	8	Radiación solar	0
133457	7	Sololá	701	Sololá	2	El tablón	1	Enero	2023-01-27T00:00:00	2024-11-06T03:00:00	2	Temperatura media	11
133458	7	Sololá	701	Sololá	2	El tablón	1	Enero	2023-01-27T00:00:00	2024-11-06T03:00:00	4	Temperatura máxima	11.1
133459	7	Sololá	701	Sololá	2	El tablón	1	Enero	2023-01-27T00:00:00	2024-11-06T03:00:00	3	Temperatura mínima	10.9
133460	7	Sololá	701	Sololá	2	El tablón	1	Enero	2023-01-27T00:00:00	2024-11-06T03:00:00	5	Humedad	87
133461	7	Sololá	701	Sololá	2	El tablón	1	Enero	2023-01-27T00:00:00	2024-11-06T03:00:00	6	Velocidad del viento	24.1
133462	7	Sololá	701	Sololá	2	El tablón	1	Enero	2023-01-27T00:00:00	2024-11-06T03:00:00	7	Dirección del viento	24.14
133463	7	Sololá	701	Sololá	2	El tablón	1	Enero	2023-01-27T00:00:00	2024-11-06T03:00:00	1	Precipitación	0
133464	7	Sololá	701	Sololá	2	El tablón	1	Enero	2023-01-27T00:00:00	2024-11-06T03:00:00	8	Radiación solar	0
133465	7	Sololá	701	Sololá	2	El tablón	1	Enero	2023-01-27T00:00:00	2024-11-06T04:00:00	2	Temperatura media	10.9
133466	7	Sololá	701	Sololá	2	El tablón	1	Enero	2023-01-27T00:00:00	2024-11-06T04:00:00	4	Temperatura máxima	11.1
133467	7	Sololá	701	Sololá	2	El tablón	1	Enero	2023-01-27T00:00:00	2024-11-06T04:00:00	3	Temperatura mínima	10.9
133468	7	Sololá	701	Sololá	2	El tablón	1	Enero	2023-01-27T00:00:00	2024-11-06T04:00:00	5	Humedad	88
133469	7	Sololá	701	Sololá	2	El tablón	1	Enero	2023-01-27T00:00:00	2024-11-06T04:00:00	6	Velocidad del viento	24.1
133470	7	Sololá	701	Sololá	2	El tablón	1	Enero	2023-01-27T00:00:00	2024-11-06T04:00:00	7	Dirección del viento	24.14
133471	7	Sololá	701	Sololá	2	El tablón	1	Enero	2023-01-27T00:00:00	2024-11-06T04:00:00	1	Precipitación	0
133472	7	Sololá	701	Sololá	2	El tablón	1	Enero	2023-01-27T00:00:00	2024-11-06T04:00:00	8	Radiación solar	0
133473	7	Sololá	701	Sololá	2	El tablón	1	Enero	2023-01-27T00:00:00	2024-11-06T05:00:00	2	Temperatura media	10.4
133474	7	Sololá	701	Sololá	2	El tablón	1	Enero	2023-01-27T00:00:00	2024-11-06T05:00:00	4	Temperatura máxima	10.9
133475	7	Sololá	701	Sololá	2	El tablón	1	Enero	2023-01-27T00:00:00	2024-11-06T05:00:00	3	Temperatura mínima	10.3
133476	7	Sololá	701	Sololá	2	El tablón	1	Enero	2023-01-27T00:00:00	2024-11-06T05:00:00	5	Humedad	90
133477	7	Sololá	701	Sololá	2	El tablón	1	Enero	2023-01-27T00:00:00	2024-11-06T05:00:00	6	Velocidad del viento	22.5
133478	7	Sololá	701	Sololá	2	El tablón	1	Enero	2023-01-27T00:00:00	2024-11-06T05:00:00	7	Dirección del viento	22.53
133479	7	Sololá	701	Sololá	2	El tablón	1	Enero	2023-01-27T00:00:00	2024-11-06T05:00:00	1	Precipitación	0
133480	7	Sololá	701	Sololá	2	El tablón	1	Enero	2023-01-27T00:00:00	2024-11-06T05:00:00	8	Radiación solar	0
133481	7	Sololá	701	Sololá	2	El tablón	1	Enero	2023-01-27T00:00:00	2024-11-06T06:00:00	2	Temperatura media	10.7
133482	7	Sololá	701	Sololá	2	El tablón	1	Enero	2023-01-27T00:00:00	2024-11-06T06:00:00	4	Temperatura máxima	10.8
133483	7	Sololá	701	Sololá	2	El tablón	1	Enero	2023-01-27T00:00:00	2024-11-06T06:00:00	3	Temperatura mínima	10.4
133484	7	Sololá	701	Sololá	2	El tablón	1	Enero	2023-01-27T00:00:00	2024-11-06T06:00:00	5	Humedad	88
133485	7	Sololá	701	Sololá	2	El tablón	1	Enero	2023-01-27T00:00:00	2024-11-06T06:00:00	6	Velocidad del viento	20.9
133486	7	Sololá	701	Sololá	2	El tablón	1	Enero	2023-01-27T00:00:00	2024-11-06T06:00:00	7	Dirección del viento	20.92
133487	7	Sololá	701	Sololá	2	El tablón	1	Enero	2023-01-27T00:00:00	2024-11-06T06:00:00	1	Precipitación	0
133488	7	Sololá	701	Sololá	2	El tablón	1	Enero	2023-01-27T00:00:00	2024-11-06T06:00:00	8	Radiación solar	0
133489	7	Sololá	701	Sololá	2	El tablón	1	Enero	2023-01-27T00:00:00	2024-11-06T07:00:00	2	Temperatura media	11.3
133490	7	Sololá	701	Sololá	2	El tablón	1	Enero	2023-01-27T00:00:00	2024-11-06T07:00:00	4	Temperatura máxima	11.3
133491	7	Sololá	701	Sololá	2	El tablón	1	Enero	2023-01-27T00:00:00	2024-11-06T07:00:00	3	Temperatura mínima	10.7
133492	7	Sololá	701	Sololá	2	El tablón	1	Enero	2023-01-27T00:00:00	2024-11-06T07:00:00	5	Humedad	84
133493	7	Sololá	701	Sololá	2	El tablón	1	Enero	2023-01-27T00:00:00	2024-11-06T07:00:00	6	Velocidad del viento	24.1
133494	7	Sololá	701	Sololá	2	El tablón	1	Enero	2023-01-27T00:00:00	2024-11-06T07:00:00	7	Dirección del viento	24.14
133495	7	Sololá	701	Sololá	2	El tablón	1	Enero	2023-01-27T00:00:00	2024-11-06T07:00:00	1	Precipitación	0
133496	7	Sololá	701	Sololá	2	El tablón	1	Enero	2023-01-27T00:00:00	2024-11-06T07:00:00	8	Radiación solar	7
133497	7	Sololá	701	Sololá	2	El tablón	1	Enero	2023-01-27T00:00:00	2024-11-06T08:00:00	2	Temperatura media	11.9
133498	7	Sololá	701	Sololá	2	El tablón	1	Enero	2023-01-27T00:00:00	2024-11-06T08:00:00	4	Temperatura máxima	11.9
133499	7	Sololá	701	Sololá	2	El tablón	1	Enero	2023-01-27T00:00:00	2024-11-06T08:00:00	3	Temperatura mínima	11.3
133500	7	Sololá	701	Sololá	2	El tablón	1	Enero	2023-01-27T00:00:00	2024-11-06T08:00:00	5	Humedad	82
133501	7	Sololá	701	Sololá	2	El tablón	1	Enero	2023-01-27T00:00:00	2024-11-06T08:00:00	6	Velocidad del viento	24.1
133502	7	Sololá	701	Sololá	2	El tablón	1	Enero	2023-01-27T00:00:00	2024-11-06T08:00:00	7	Dirección del viento	24.14
133503	7	Sololá	701	Sololá	2	El tablón	1	Enero	2023-01-27T00:00:00	2024-11-06T08:00:00	1	Precipitación	0
133504	7	Sololá	701	Sololá	2	El tablón	1	Enero	2023-01-27T00:00:00	2024-11-06T08:00:00	8	Radiación solar	98
133505	7	Sololá	701	Sololá	2	El tablón	1	Enero	2023-01-27T00:00:00	2024-11-06T09:00:00	2	Temperatura media	12.8
133506	7	Sololá	701	Sololá	2	El tablón	1	Enero	2023-01-27T00:00:00	2024-11-06T09:00:00	4	Temperatura máxima	12.8
133507	7	Sololá	701	Sololá	2	El tablón	1	Enero	2023-01-27T00:00:00	2024-11-06T09:00:00	3	Temperatura mínima	11.9
133508	7	Sololá	701	Sololá	2	El tablón	1	Enero	2023-01-27T00:00:00	2024-11-06T09:00:00	5	Humedad	81
133509	7	Sololá	701	Sololá	2	El tablón	1	Enero	2023-01-27T00:00:00	2024-11-06T09:00:00	6	Velocidad del viento	22.5
133510	7	Sololá	701	Sololá	2	El tablón	1	Enero	2023-01-27T00:00:00	2024-11-06T09:00:00	7	Dirección del viento	22.53
133511	7	Sololá	701	Sololá	2	El tablón	1	Enero	2023-01-27T00:00:00	2024-11-06T09:00:00	1	Precipitación	0
133512	7	Sololá	701	Sololá	2	El tablón	1	Enero	2023-01-27T00:00:00	2024-11-06T09:00:00	8	Radiación solar	338
133513	7	Sololá	701	Sololá	2	El tablón	1	Enero	2023-01-27T00:00:00	2024-11-06T10:00:00	2	Temperatura media	13.1
133514	7	Sololá	701	Sololá	2	El tablón	1	Enero	2023-01-27T00:00:00	2024-11-06T10:00:00	4	Temperatura máxima	13.3
133515	7	Sololá	701	Sololá	2	El tablón	1	Enero	2023-01-27T00:00:00	2024-11-06T10:00:00	3	Temperatura mínima	12.8
133516	7	Sololá	701	Sololá	2	El tablón	1	Enero	2023-01-27T00:00:00	2024-11-06T10:00:00	5	Humedad	81
133517	7	Sololá	701	Sololá	2	El tablón	1	Enero	2023-01-27T00:00:00	2024-11-06T10:00:00	6	Velocidad del viento	24.1
133518	7	Sololá	701	Sololá	2	El tablón	1	Enero	2023-01-27T00:00:00	2024-11-06T10:00:00	7	Dirección del viento	24.14
133519	7	Sololá	701	Sololá	2	El tablón	1	Enero	2023-01-27T00:00:00	2024-11-06T10:00:00	1	Precipitación	0
133520	7	Sololá	701	Sololá	2	El tablón	1	Enero	2023-01-27T00:00:00	2024-11-06T10:00:00	8	Radiación solar	513
133521	7	Sololá	701	Sololá	2	El tablón	1	Enero	2023-01-27T00:00:00	2024-11-06T11:00:00	2	Temperatura media	13.6
133522	7	Sololá	701	Sololá	2	El tablón	1	Enero	2023-01-27T00:00:00	2024-11-06T11:00:00	4	Temperatura máxima	14.1
133523	7	Sololá	701	Sololá	2	El tablón	1	Enero	2023-01-27T00:00:00	2024-11-06T11:00:00	3	Temperatura mínima	13.1
133524	7	Sololá	701	Sololá	2	El tablón	1	Enero	2023-01-27T00:00:00	2024-11-06T11:00:00	5	Humedad	80
133525	7	Sololá	701	Sololá	2	El tablón	1	Enero	2023-01-27T00:00:00	2024-11-06T11:00:00	6	Velocidad del viento	22.5
133526	7	Sololá	701	Sololá	2	El tablón	1	Enero	2023-01-27T00:00:00	2024-11-06T11:00:00	7	Dirección del viento	22.53
133527	7	Sololá	701	Sololá	2	El tablón	1	Enero	2023-01-27T00:00:00	2024-11-06T11:00:00	1	Precipitación	0
133528	7	Sololá	701	Sololá	2	El tablón	1	Enero	2023-01-27T00:00:00	2024-11-06T11:00:00	8	Radiación solar	637
133529	7	Sololá	701	Sololá	2	El tablón	1	Enero	2023-01-27T00:00:00	2024-11-06T12:00:00	2	Temperatura media	13.7
133530	7	Sololá	701	Sololá	2	El tablón	1	Enero	2023-01-27T00:00:00	2024-11-06T12:00:00	4	Temperatura máxima	14.9
133531	7	Sololá	701	Sololá	2	El tablón	1	Enero	2023-01-27T00:00:00	2024-11-06T12:00:00	3	Temperatura mínima	13.3
133532	7	Sololá	701	Sololá	2	El tablón	1	Enero	2023-01-27T00:00:00	2024-11-06T12:00:00	5	Humedad	79
133533	7	Sololá	701	Sololá	2	El tablón	1	Enero	2023-01-27T00:00:00	2024-11-06T12:00:00	6	Velocidad del viento	17.7
133534	7	Sololá	701	Sololá	2	El tablón	1	Enero	2023-01-27T00:00:00	2024-11-06T12:00:00	7	Dirección del viento	17.7
133535	7	Sololá	701	Sololá	2	El tablón	1	Enero	2023-01-27T00:00:00	2024-11-06T12:00:00	1	Precipitación	0
133536	7	Sololá	701	Sololá	2	El tablón	1	Enero	2023-01-27T00:00:00	2024-11-06T12:00:00	8	Radiación solar	461
133537	7	Sololá	701	Sololá	2	El tablón	1	Enero	2023-01-27T00:00:00	2024-11-06T13:00:00	2	Temperatura media	14.3
133538	7	Sololá	701	Sololá	2	El tablón	1	Enero	2023-01-27T00:00:00	2024-11-06T13:00:00	4	Temperatura máxima	14.4
133539	7	Sololá	701	Sololá	2	El tablón	1	Enero	2023-01-27T00:00:00	2024-11-06T13:00:00	3	Temperatura mínima	13.4
133540	7	Sololá	701	Sololá	2	El tablón	1	Enero	2023-01-27T00:00:00	2024-11-06T13:00:00	5	Humedad	78
133541	7	Sololá	701	Sololá	2	El tablón	1	Enero	2023-01-27T00:00:00	2024-11-06T13:00:00	6	Velocidad del viento	16.1
133542	7	Sololá	701	Sololá	2	El tablón	1	Enero	2023-01-27T00:00:00	2024-11-06T13:00:00	7	Dirección del viento	16.09
133543	7	Sololá	701	Sololá	2	El tablón	1	Enero	2023-01-27T00:00:00	2024-11-06T13:00:00	1	Precipitación	0
133544	7	Sololá	701	Sololá	2	El tablón	1	Enero	2023-01-27T00:00:00	2024-11-06T13:00:00	8	Radiación solar	321
133545	7	Sololá	701	Sololá	2	El tablón	1	Enero	2023-01-27T00:00:00	2024-11-06T14:00:00	2	Temperatura media	15.1
133546	7	Sololá	701	Sololá	2	El tablón	1	Enero	2023-01-27T00:00:00	2024-11-06T14:00:00	4	Temperatura máxima	15.1
133547	7	Sololá	701	Sololá	2	El tablón	1	Enero	2023-01-27T00:00:00	2024-11-06T14:00:00	3	Temperatura mínima	13.9
133548	7	Sololá	701	Sololá	2	El tablón	1	Enero	2023-01-27T00:00:00	2024-11-06T14:00:00	5	Humedad	76
133549	7	Sololá	701	Sololá	2	El tablón	1	Enero	2023-01-27T00:00:00	2024-11-06T14:00:00	6	Velocidad del viento	16.1
133550	7	Sololá	701	Sololá	2	El tablón	1	Enero	2023-01-27T00:00:00	2024-11-06T14:00:00	7	Dirección del viento	16.09
133551	7	Sololá	701	Sololá	2	El tablón	1	Enero	2023-01-27T00:00:00	2024-11-06T14:00:00	1	Precipitación	0
133552	7	Sololá	701	Sololá	2	El tablón	1	Enero	2023-01-27T00:00:00	2024-11-06T14:00:00	8	Radiación solar	640
133553	7	Sololá	701	Sololá	2	El tablón	1	Enero	2023-01-27T00:00:00	2024-11-06T15:00:00	2	Temperatura media	14.1
133554	7	Sololá	701	Sololá	2	El tablón	1	Enero	2023-01-27T00:00:00	2024-11-06T15:00:00	4	Temperatura máxima	15.1
133555	7	Sololá	701	Sololá	2	El tablón	1	Enero	2023-01-27T00:00:00	2024-11-06T15:00:00	3	Temperatura mínima	13.9
133556	7	Sololá	701	Sololá	2	El tablón	1	Enero	2023-01-27T00:00:00	2024-11-06T15:00:00	5	Humedad	80
133557	7	Sololá	701	Sololá	2	El tablón	1	Enero	2023-01-27T00:00:00	2024-11-06T15:00:00	6	Velocidad del viento	16.1
133558	7	Sololá	701	Sololá	2	El tablón	1	Enero	2023-01-27T00:00:00	2024-11-06T15:00:00	7	Dirección del viento	16.09
133559	7	Sololá	701	Sololá	2	El tablón	1	Enero	2023-01-27T00:00:00	2024-11-06T15:00:00	1	Precipitación	0
133560	7	Sololá	701	Sololá	2	El tablón	1	Enero	2023-01-27T00:00:00	2024-11-06T15:00:00	8	Radiación solar	362
133561	7	Sololá	701	Sololá	2	El tablón	1	Enero	2023-01-27T00:00:00	2024-11-06T16:00:00	2	Temperatura media	13.4
133562	7	Sololá	701	Sololá	2	El tablón	1	Enero	2023-01-27T00:00:00	2024-11-06T16:00:00	4	Temperatura máxima	14.3
133563	7	Sololá	701	Sololá	2	El tablón	1	Enero	2023-01-27T00:00:00	2024-11-06T16:00:00	3	Temperatura mínima	13.3
133564	7	Sololá	701	Sololá	2	El tablón	1	Enero	2023-01-27T00:00:00	2024-11-06T16:00:00	5	Humedad	81
133565	7	Sololá	701	Sololá	2	El tablón	1	Enero	2023-01-27T00:00:00	2024-11-06T16:00:00	6	Velocidad del viento	16.1
133566	7	Sololá	701	Sololá	2	El tablón	1	Enero	2023-01-27T00:00:00	2024-11-06T16:00:00	7	Dirección del viento	16.09
133567	7	Sololá	701	Sololá	2	El tablón	1	Enero	2023-01-27T00:00:00	2024-11-06T16:00:00	1	Precipitación	0
133568	7	Sololá	701	Sololá	2	El tablón	1	Enero	2023-01-27T00:00:00	2024-11-06T16:00:00	8	Radiación solar	190
133569	7	Sololá	701	Sololá	2	El tablón	1	Enero	2023-01-27T00:00:00	2024-11-06T17:00:00	2	Temperatura media	12.9
133570	7	Sololá	701	Sololá	2	El tablón	1	Enero	2023-01-27T00:00:00	2024-11-06T17:00:00	4	Temperatura máxima	13.6
133571	7	Sololá	701	Sololá	2	El tablón	1	Enero	2023-01-27T00:00:00	2024-11-06T17:00:00	3	Temperatura mínima	12.9
133572	7	Sololá	701	Sololá	2	El tablón	1	Enero	2023-01-27T00:00:00	2024-11-06T17:00:00	5	Humedad	85
133573	7	Sololá	701	Sololá	2	El tablón	1	Enero	2023-01-27T00:00:00	2024-11-06T17:00:00	6	Velocidad del viento	9.7
133574	7	Sololá	701	Sololá	2	El tablón	1	Enero	2023-01-27T00:00:00	2024-11-06T17:00:00	7	Dirección del viento	9.66
133575	7	Sololá	701	Sololá	2	El tablón	1	Enero	2023-01-27T00:00:00	2024-11-06T17:00:00	1	Precipitación	0
133576	7	Sololá	701	Sololá	2	El tablón	1	Enero	2023-01-27T00:00:00	2024-11-06T17:00:00	8	Radiación solar	104
133577	7	Sololá	701	Sololá	2	El tablón	1	Enero	2023-01-27T00:00:00	2024-11-06T18:00:00	2	Temperatura media	11.8
133578	7	Sololá	701	Sololá	2	El tablón	1	Enero	2023-01-27T00:00:00	2024-11-06T18:00:00	4	Temperatura máxima	12.9
133579	7	Sololá	701	Sololá	2	El tablón	1	Enero	2023-01-27T00:00:00	2024-11-06T18:00:00	3	Temperatura mínima	11.8
133580	7	Sololá	701	Sololá	2	El tablón	1	Enero	2023-01-27T00:00:00	2024-11-06T18:00:00	5	Humedad	88
133581	7	Sololá	701	Sololá	2	El tablón	1	Enero	2023-01-27T00:00:00	2024-11-06T18:00:00	6	Velocidad del viento	9.7
133582	7	Sololá	701	Sololá	2	El tablón	1	Enero	2023-01-27T00:00:00	2024-11-06T18:00:00	7	Dirección del viento	9.66
133583	7	Sololá	701	Sololá	2	El tablón	1	Enero	2023-01-27T00:00:00	2024-11-06T18:00:00	1	Precipitación	0
133584	7	Sololá	701	Sololá	2	El tablón	1	Enero	2023-01-27T00:00:00	2024-11-06T18:00:00	8	Radiación solar	29
133585	7	Sololá	701	Sololá	2	El tablón	1	Enero	2023-01-27T00:00:00	2024-11-06T19:00:00	2	Temperatura media	11.1
133586	7	Sololá	701	Sololá	2	El tablón	1	Enero	2023-01-27T00:00:00	2024-11-06T19:00:00	4	Temperatura máxima	11.8
133587	7	Sololá	701	Sololá	2	El tablón	1	Enero	2023-01-27T00:00:00	2024-11-06T19:00:00	3	Temperatura mínima	11
133588	7	Sololá	701	Sololá	2	El tablón	1	Enero	2023-01-27T00:00:00	2024-11-06T19:00:00	5	Humedad	90
133589	7	Sololá	701	Sololá	2	El tablón	1	Enero	2023-01-27T00:00:00	2024-11-06T19:00:00	6	Velocidad del viento	14.5
133590	7	Sololá	701	Sololá	2	El tablón	1	Enero	2023-01-27T00:00:00	2024-11-06T19:00:00	7	Dirección del viento	14.48
133591	7	Sololá	701	Sololá	2	El tablón	1	Enero	2023-01-27T00:00:00	2024-11-06T19:00:00	1	Precipitación	0
133592	7	Sololá	701	Sololá	2	El tablón	1	Enero	2023-01-27T00:00:00	2024-11-06T19:00:00	8	Radiación solar	0
133593	7	Sololá	701	Sololá	2	El tablón	1	Enero	2023-01-27T00:00:00	2024-11-06T20:00:00	2	Temperatura media	10.8
133594	7	Sololá	701	Sololá	2	El tablón	1	Enero	2023-01-27T00:00:00	2024-11-06T20:00:00	4	Temperatura máxima	11.1
133595	7	Sololá	701	Sololá	2	El tablón	1	Enero	2023-01-27T00:00:00	2024-11-06T20:00:00	3	Temperatura mínima	10.8
133596	7	Sololá	701	Sololá	2	El tablón	1	Enero	2023-01-27T00:00:00	2024-11-06T20:00:00	5	Humedad	90
133597	7	Sololá	701	Sololá	2	El tablón	1	Enero	2023-01-27T00:00:00	2024-11-06T20:00:00	6	Velocidad del viento	11.3
133598	7	Sololá	701	Sololá	2	El tablón	1	Enero	2023-01-27T00:00:00	2024-11-06T20:00:00	7	Dirección del viento	11.27
133599	7	Sololá	701	Sololá	2	El tablón	1	Enero	2023-01-27T00:00:00	2024-11-06T20:00:00	1	Precipitación	0.2
133600	7	Sololá	701	Sololá	2	El tablón	1	Enero	2023-01-27T00:00:00	2024-11-06T20:00:00	8	Radiación solar	0
133601	7	Sololá	701	Sololá	2	El tablón	1	Enero	2023-01-27T00:00:00	2024-11-06T21:00:00	2	Temperatura media	10.4
133602	7	Sololá	701	Sololá	2	El tablón	1	Enero	2023-01-27T00:00:00	2024-11-06T21:00:00	4	Temperatura máxima	10.8
133603	7	Sololá	701	Sololá	2	El tablón	1	Enero	2023-01-27T00:00:00	2024-11-06T21:00:00	3	Temperatura mínima	10.4
133604	7	Sololá	701	Sololá	2	El tablón	1	Enero	2023-01-27T00:00:00	2024-11-06T21:00:00	5	Humedad	90
133605	7	Sololá	701	Sololá	2	El tablón	1	Enero	2023-01-27T00:00:00	2024-11-06T21:00:00	6	Velocidad del viento	16.1
133606	7	Sololá	701	Sololá	2	El tablón	1	Enero	2023-01-27T00:00:00	2024-11-06T21:00:00	7	Dirección del viento	16.09
133607	7	Sololá	701	Sololá	2	El tablón	1	Enero	2023-01-27T00:00:00	2024-11-06T21:00:00	1	Precipitación	0
133608	7	Sololá	701	Sololá	2	El tablón	1	Enero	2023-01-27T00:00:00	2024-11-06T21:00:00	8	Radiación solar	0
133609	7	Sololá	701	Sololá	2	El tablón	1	Enero	2023-01-27T00:00:00	2024-11-06T22:00:00	2	Temperatura media	9.8
133610	7	Sololá	701	Sololá	2	El tablón	1	Enero	2023-01-27T00:00:00	2024-11-06T22:00:00	4	Temperatura máxima	10.6
133611	7	Sololá	701	Sololá	2	El tablón	1	Enero	2023-01-27T00:00:00	2024-11-06T22:00:00	3	Temperatura mínima	9.8
133612	7	Sololá	701	Sololá	2	El tablón	1	Enero	2023-01-27T00:00:00	2024-11-06T22:00:00	5	Humedad	85
133613	7	Sololá	701	Sololá	2	El tablón	1	Enero	2023-01-27T00:00:00	2024-11-06T22:00:00	6	Velocidad del viento	20.9
133614	7	Sololá	701	Sololá	2	El tablón	1	Enero	2023-01-27T00:00:00	2024-11-06T22:00:00	7	Dirección del viento	20.92
133615	7	Sololá	701	Sololá	2	El tablón	1	Enero	2023-01-27T00:00:00	2024-11-06T22:00:00	1	Precipitación	0
133616	7	Sololá	701	Sololá	2	El tablón	1	Enero	2023-01-27T00:00:00	2024-11-06T22:00:00	8	Radiación solar	0
133617	7	Sololá	701	Sololá	2	El tablón	1	Enero	2023-01-27T00:00:00	2024-11-06T23:00:00	2	Temperatura media	10.2
133618	7	Sololá	701	Sololá	2	El tablón	1	Enero	2023-01-27T00:00:00	2024-11-06T23:00:00	4	Temperatura máxima	10.2
133619	7	Sololá	701	Sololá	2	El tablón	1	Enero	2023-01-27T00:00:00	2024-11-06T23:00:00	3	Temperatura mínima	9.8
133620	7	Sololá	701	Sololá	2	El tablón	1	Enero	2023-01-27T00:00:00	2024-11-06T23:00:00	5	Humedad	55
133621	7	Sololá	701	Sololá	2	El tablón	1	Enero	2023-01-27T00:00:00	2024-11-06T23:00:00	6	Velocidad del viento	20.9
133622	7	Sololá	701	Sololá	2	El tablón	1	Enero	2023-01-27T00:00:00	2024-11-06T23:00:00	7	Dirección del viento	20.92
133623	7	Sololá	701	Sololá	2	El tablón	1	Enero	2023-01-27T00:00:00	2024-11-06T23:00:00	1	Precipitación	0
133624	7	Sololá	701	Sololá	2	El tablón	1	Enero	2023-01-27T00:00:00	2024-11-06T23:00:00	8	Radiación solar	0
133625	7	Sololá	701	Sololá	2	El tablón	1	Enero	2023-01-28T00:00:00	2024-11-06T00:00:00	2	Temperatura media	9.7
133626	7	Sololá	701	Sololá	2	El tablón	1	Enero	2023-01-28T00:00:00	2024-11-06T00:00:00	4	Temperatura máxima	10.3
133627	7	Sololá	701	Sololá	2	El tablón	1	Enero	2023-01-28T00:00:00	2024-11-06T00:00:00	3	Temperatura mínima	9.7
133628	7	Sololá	701	Sololá	2	El tablón	1	Enero	2023-01-28T00:00:00	2024-11-06T00:00:00	5	Humedad	52
133629	7	Sololá	701	Sololá	2	El tablón	1	Enero	2023-01-28T00:00:00	2024-11-06T00:00:00	6	Velocidad del viento	22.5
133630	7	Sololá	701	Sololá	2	El tablón	1	Enero	2023-01-28T00:00:00	2024-11-06T00:00:00	7	Dirección del viento	22.53
133631	7	Sololá	701	Sololá	2	El tablón	1	Enero	2023-01-28T00:00:00	2024-11-06T00:00:00	1	Precipitación	0
133632	7	Sololá	701	Sololá	2	El tablón	1	Enero	2023-01-28T00:00:00	2024-11-06T00:00:00	8	Radiación solar	0
133633	7	Sololá	701	Sololá	2	El tablón	1	Enero	2023-01-28T00:00:00	2024-11-06T01:00:00	2	Temperatura media	9.3
133634	7	Sololá	701	Sololá	2	El tablón	1	Enero	2023-01-28T00:00:00	2024-11-06T01:00:00	4	Temperatura máxima	9.7
133635	7	Sololá	701	Sololá	2	El tablón	1	Enero	2023-01-28T00:00:00	2024-11-06T01:00:00	3	Temperatura mínima	9.2
133636	7	Sololá	701	Sololá	2	El tablón	1	Enero	2023-01-28T00:00:00	2024-11-06T01:00:00	5	Humedad	54
133637	7	Sololá	701	Sololá	2	El tablón	1	Enero	2023-01-28T00:00:00	2024-11-06T01:00:00	6	Velocidad del viento	19.3
133638	7	Sololá	701	Sololá	2	El tablón	1	Enero	2023-01-28T00:00:00	2024-11-06T01:00:00	7	Dirección del viento	19.31
133639	7	Sololá	701	Sololá	2	El tablón	1	Enero	2023-01-28T00:00:00	2024-11-06T01:00:00	1	Precipitación	0
133640	7	Sololá	701	Sololá	2	El tablón	1	Enero	2023-01-28T00:00:00	2024-11-06T01:00:00	8	Radiación solar	0
133641	7	Sololá	701	Sololá	2	El tablón	1	Enero	2023-01-28T00:00:00	2024-11-06T02:00:00	2	Temperatura media	10.3
133642	7	Sololá	701	Sololá	2	El tablón	1	Enero	2023-01-28T00:00:00	2024-11-06T02:00:00	4	Temperatura máxima	10.3
133643	7	Sololá	701	Sololá	2	El tablón	1	Enero	2023-01-28T00:00:00	2024-11-06T02:00:00	3	Temperatura mínima	8.9
133644	7	Sololá	701	Sololá	2	El tablón	1	Enero	2023-01-28T00:00:00	2024-11-06T02:00:00	5	Humedad	63
133645	7	Sololá	701	Sololá	2	El tablón	1	Enero	2023-01-28T00:00:00	2024-11-06T02:00:00	6	Velocidad del viento	19.3
133646	7	Sololá	701	Sololá	2	El tablón	1	Enero	2023-01-28T00:00:00	2024-11-06T02:00:00	7	Dirección del viento	19.31
133647	7	Sololá	701	Sololá	2	El tablón	1	Enero	2023-01-28T00:00:00	2024-11-06T02:00:00	1	Precipitación	0
133648	7	Sololá	701	Sololá	2	El tablón	1	Enero	2023-01-28T00:00:00	2024-11-06T02:00:00	8	Radiación solar	0
133649	7	Sololá	701	Sololá	2	El tablón	1	Enero	2023-01-28T00:00:00	2024-11-06T03:00:00	2	Temperatura media	8.9
133650	7	Sololá	701	Sololá	2	El tablón	1	Enero	2023-01-28T00:00:00	2024-11-06T03:00:00	4	Temperatura máxima	10.4
133651	7	Sololá	701	Sololá	2	El tablón	1	Enero	2023-01-28T00:00:00	2024-11-06T03:00:00	3	Temperatura mínima	8.9
133652	7	Sololá	701	Sololá	2	El tablón	1	Enero	2023-01-28T00:00:00	2024-11-06T03:00:00	5	Humedad	81
133653	7	Sololá	701	Sololá	2	El tablón	1	Enero	2023-01-28T00:00:00	2024-11-06T03:00:00	6	Velocidad del viento	14.5
133654	7	Sololá	701	Sololá	2	El tablón	1	Enero	2023-01-28T00:00:00	2024-11-06T03:00:00	7	Dirección del viento	14.48
133655	7	Sololá	701	Sololá	2	El tablón	1	Enero	2023-01-28T00:00:00	2024-11-06T03:00:00	1	Precipitación	0
133656	7	Sololá	701	Sololá	2	El tablón	1	Enero	2023-01-28T00:00:00	2024-11-06T03:00:00	8	Radiación solar	0
133657	7	Sololá	701	Sololá	2	El tablón	1	Enero	2023-01-28T00:00:00	2024-11-06T04:00:00	2	Temperatura media	9.3
133658	7	Sololá	701	Sololá	2	El tablón	1	Enero	2023-01-28T00:00:00	2024-11-06T04:00:00	4	Temperatura máxima	9.6
133659	7	Sololá	701	Sololá	2	El tablón	1	Enero	2023-01-28T00:00:00	2024-11-06T04:00:00	3	Temperatura mínima	8.8
133660	7	Sololá	701	Sololá	2	El tablón	1	Enero	2023-01-28T00:00:00	2024-11-06T04:00:00	5	Humedad	85
133661	7	Sololá	701	Sololá	2	El tablón	1	Enero	2023-01-28T00:00:00	2024-11-06T04:00:00	6	Velocidad del viento	16.1
133662	7	Sololá	701	Sololá	2	El tablón	1	Enero	2023-01-28T00:00:00	2024-11-06T04:00:00	7	Dirección del viento	16.09
133663	7	Sololá	701	Sololá	2	El tablón	1	Enero	2023-01-28T00:00:00	2024-11-06T04:00:00	1	Precipitación	0
133664	7	Sololá	701	Sololá	2	El tablón	1	Enero	2023-01-28T00:00:00	2024-11-06T04:00:00	8	Radiación solar	0
133665	7	Sololá	701	Sololá	2	El tablón	1	Enero	2023-01-28T00:00:00	2024-11-06T05:00:00	2	Temperatura media	9.6
133666	7	Sololá	701	Sololá	2	El tablón	1	Enero	2023-01-28T00:00:00	2024-11-06T05:00:00	4	Temperatura máxima	9.6
133667	7	Sololá	701	Sololá	2	El tablón	1	Enero	2023-01-28T00:00:00	2024-11-06T05:00:00	3	Temperatura mínima	9.3
133668	7	Sololá	701	Sololá	2	El tablón	1	Enero	2023-01-28T00:00:00	2024-11-06T05:00:00	5	Humedad	88
133669	7	Sololá	701	Sololá	2	El tablón	1	Enero	2023-01-28T00:00:00	2024-11-06T05:00:00	6	Velocidad del viento	17.7
133670	7	Sololá	701	Sololá	2	El tablón	1	Enero	2023-01-28T00:00:00	2024-11-06T05:00:00	7	Dirección del viento	17.7
133671	7	Sololá	701	Sololá	2	El tablón	1	Enero	2023-01-28T00:00:00	2024-11-06T05:00:00	1	Precipitación	0
133672	7	Sololá	701	Sololá	2	El tablón	1	Enero	2023-01-28T00:00:00	2024-11-06T05:00:00	8	Radiación solar	0
133673	7	Sololá	701	Sololá	2	El tablón	1	Enero	2023-01-28T00:00:00	2024-11-06T06:00:00	2	Temperatura media	9.9
133674	7	Sololá	701	Sololá	2	El tablón	1	Enero	2023-01-28T00:00:00	2024-11-06T06:00:00	4	Temperatura máxima	9.9
133675	7	Sololá	701	Sololá	2	El tablón	1	Enero	2023-01-28T00:00:00	2024-11-06T06:00:00	3	Temperatura mínima	9.6
133676	7	Sololá	701	Sololá	2	El tablón	1	Enero	2023-01-28T00:00:00	2024-11-06T06:00:00	5	Humedad	88
133677	7	Sololá	701	Sololá	2	El tablón	1	Enero	2023-01-28T00:00:00	2024-11-06T06:00:00	6	Velocidad del viento	19.3
133678	7	Sololá	701	Sololá	2	El tablón	1	Enero	2023-01-28T00:00:00	2024-11-06T06:00:00	7	Dirección del viento	19.31
133679	7	Sololá	701	Sololá	2	El tablón	1	Enero	2023-01-28T00:00:00	2024-11-06T06:00:00	1	Precipitación	0
133680	7	Sololá	701	Sololá	2	El tablón	1	Enero	2023-01-28T00:00:00	2024-11-06T06:00:00	8	Radiación solar	0
133681	7	Sololá	701	Sololá	2	El tablón	1	Enero	2023-01-28T00:00:00	2024-11-06T07:00:00	2	Temperatura media	10.4
133682	7	Sololá	701	Sololá	2	El tablón	1	Enero	2023-01-28T00:00:00	2024-11-06T07:00:00	4	Temperatura máxima	10.4
133683	7	Sololá	701	Sololá	2	El tablón	1	Enero	2023-01-28T00:00:00	2024-11-06T07:00:00	3	Temperatura mínima	9.8
133684	7	Sololá	701	Sololá	2	El tablón	1	Enero	2023-01-28T00:00:00	2024-11-06T07:00:00	5	Humedad	87
133685	7	Sololá	701	Sololá	2	El tablón	1	Enero	2023-01-28T00:00:00	2024-11-06T07:00:00	6	Velocidad del viento	16.1
133686	7	Sololá	701	Sololá	2	El tablón	1	Enero	2023-01-28T00:00:00	2024-11-06T07:00:00	7	Dirección del viento	16.09
133687	7	Sololá	701	Sololá	2	El tablón	1	Enero	2023-01-28T00:00:00	2024-11-06T07:00:00	1	Precipitación	0
133688	7	Sololá	701	Sololá	2	El tablón	1	Enero	2023-01-28T00:00:00	2024-11-06T07:00:00	8	Radiación solar	4
133689	7	Sololá	701	Sololá	2	El tablón	1	Enero	2023-01-28T00:00:00	2024-11-06T08:00:00	2	Temperatura media	12.1
133690	7	Sololá	701	Sololá	2	El tablón	1	Enero	2023-01-28T00:00:00	2024-11-06T08:00:00	4	Temperatura máxima	12.1
133691	7	Sololá	701	Sololá	2	El tablón	1	Enero	2023-01-28T00:00:00	2024-11-06T08:00:00	3	Temperatura mínima	10.4
133692	7	Sololá	701	Sololá	2	El tablón	1	Enero	2023-01-28T00:00:00	2024-11-06T08:00:00	5	Humedad	84
133693	7	Sololá	701	Sololá	2	El tablón	1	Enero	2023-01-28T00:00:00	2024-11-06T08:00:00	6	Velocidad del viento	17.7
133694	7	Sololá	701	Sololá	2	El tablón	1	Enero	2023-01-28T00:00:00	2024-11-06T08:00:00	7	Dirección del viento	17.7
133695	7	Sololá	701	Sololá	2	El tablón	1	Enero	2023-01-28T00:00:00	2024-11-06T08:00:00	1	Precipitación	0
133696	7	Sololá	701	Sololá	2	El tablón	1	Enero	2023-01-28T00:00:00	2024-11-06T08:00:00	8	Radiación solar	111
133697	7	Sololá	701	Sololá	2	El tablón	1	Enero	2023-01-28T00:00:00	2024-11-06T09:00:00	2	Temperatura media	12.5
133698	7	Sololá	701	Sololá	2	El tablón	1	Enero	2023-01-28T00:00:00	2024-11-06T09:00:00	4	Temperatura máxima	12.6
133699	7	Sololá	701	Sololá	2	El tablón	1	Enero	2023-01-28T00:00:00	2024-11-06T09:00:00	3	Temperatura mínima	12
133700	7	Sololá	701	Sololá	2	El tablón	1	Enero	2023-01-28T00:00:00	2024-11-06T09:00:00	5	Humedad	81
133701	7	Sololá	701	Sololá	2	El tablón	1	Enero	2023-01-28T00:00:00	2024-11-06T09:00:00	6	Velocidad del viento	19.3
133702	7	Sololá	701	Sololá	2	El tablón	1	Enero	2023-01-28T00:00:00	2024-11-06T09:00:00	7	Dirección del viento	19.31
133703	7	Sololá	701	Sololá	2	El tablón	1	Enero	2023-01-28T00:00:00	2024-11-06T09:00:00	1	Precipitación	0
133704	7	Sololá	701	Sololá	2	El tablón	1	Enero	2023-01-28T00:00:00	2024-11-06T09:00:00	8	Radiación solar	351
133705	7	Sololá	701	Sololá	2	El tablón	1	Enero	2023-01-28T00:00:00	2024-11-06T10:00:00	2	Temperatura media	14.2
133706	7	Sololá	701	Sololá	2	El tablón	1	Enero	2023-01-28T00:00:00	2024-11-06T10:00:00	4	Temperatura máxima	14.3
133707	7	Sololá	701	Sololá	2	El tablón	1	Enero	2023-01-28T00:00:00	2024-11-06T10:00:00	3	Temperatura mínima	12.5
133708	7	Sololá	701	Sololá	2	El tablón	1	Enero	2023-01-28T00:00:00	2024-11-06T10:00:00	5	Humedad	59
133709	7	Sololá	701	Sololá	2	El tablón	1	Enero	2023-01-28T00:00:00	2024-11-06T10:00:00	6	Velocidad del viento	17.7
133710	7	Sololá	701	Sololá	2	El tablón	1	Enero	2023-01-28T00:00:00	2024-11-06T10:00:00	7	Dirección del viento	17.7
133711	7	Sololá	701	Sololá	2	El tablón	1	Enero	2023-01-28T00:00:00	2024-11-06T10:00:00	1	Precipitación	0
133712	7	Sololá	701	Sololá	2	El tablón	1	Enero	2023-01-28T00:00:00	2024-11-06T10:00:00	8	Radiación solar	549
133713	7	Sololá	701	Sololá	2	El tablón	1	Enero	2023-01-28T00:00:00	2024-11-06T11:00:00	2	Temperatura media	15.7
133714	7	Sololá	701	Sololá	2	El tablón	1	Enero	2023-01-28T00:00:00	2024-11-06T11:00:00	4	Temperatura máxima	15.8
133715	7	Sololá	701	Sololá	2	El tablón	1	Enero	2023-01-28T00:00:00	2024-11-06T11:00:00	3	Temperatura mínima	14.1
133716	7	Sololá	701	Sololá	2	El tablón	1	Enero	2023-01-28T00:00:00	2024-11-06T11:00:00	5	Humedad	45
133717	7	Sololá	701	Sololá	2	El tablón	1	Enero	2023-01-28T00:00:00	2024-11-06T11:00:00	6	Velocidad del viento	14.5
133718	7	Sololá	701	Sololá	2	El tablón	1	Enero	2023-01-28T00:00:00	2024-11-06T11:00:00	7	Dirección del viento	14.48
133719	7	Sololá	701	Sololá	2	El tablón	1	Enero	2023-01-28T00:00:00	2024-11-06T11:00:00	1	Precipitación	0
133720	7	Sololá	701	Sololá	2	El tablón	1	Enero	2023-01-28T00:00:00	2024-11-06T11:00:00	8	Radiación solar	703
133721	7	Sololá	701	Sololá	2	El tablón	1	Enero	2023-01-28T00:00:00	2024-11-06T12:00:00	2	Temperatura media	16.7
133722	7	Sololá	701	Sololá	2	El tablón	1	Enero	2023-01-28T00:00:00	2024-11-06T12:00:00	4	Temperatura máxima	16.7
133723	7	Sololá	701	Sololá	2	El tablón	1	Enero	2023-01-28T00:00:00	2024-11-06T12:00:00	3	Temperatura mínima	15.7
133724	7	Sololá	701	Sololá	2	El tablón	1	Enero	2023-01-28T00:00:00	2024-11-06T12:00:00	5	Humedad	45
133725	7	Sololá	701	Sololá	2	El tablón	1	Enero	2023-01-28T00:00:00	2024-11-06T12:00:00	6	Velocidad del viento	14.5
133726	7	Sololá	701	Sololá	2	El tablón	1	Enero	2023-01-28T00:00:00	2024-11-06T12:00:00	7	Dirección del viento	14.48
133727	7	Sololá	701	Sololá	2	El tablón	1	Enero	2023-01-28T00:00:00	2024-11-06T12:00:00	1	Precipitación	0
133728	7	Sololá	701	Sololá	2	El tablón	1	Enero	2023-01-28T00:00:00	2024-11-06T12:00:00	8	Radiación solar	697
133729	7	Sololá	701	Sololá	2	El tablón	1	Enero	2023-01-28T00:00:00	2024-11-06T13:00:00	2	Temperatura media	17.2
133730	7	Sololá	701	Sololá	2	El tablón	1	Enero	2023-01-28T00:00:00	2024-11-06T13:00:00	4	Temperatura máxima	17.8
133731	7	Sololá	701	Sololá	2	El tablón	1	Enero	2023-01-28T00:00:00	2024-11-06T13:00:00	3	Temperatura mínima	16.7
133732	7	Sololá	701	Sololá	2	El tablón	1	Enero	2023-01-28T00:00:00	2024-11-06T13:00:00	5	Humedad	44
133733	7	Sololá	701	Sololá	2	El tablón	1	Enero	2023-01-28T00:00:00	2024-11-06T13:00:00	6	Velocidad del viento	12.9
133734	7	Sololá	701	Sololá	2	El tablón	1	Enero	2023-01-28T00:00:00	2024-11-06T13:00:00	7	Dirección del viento	12.87
133735	7	Sololá	701	Sololá	2	El tablón	1	Enero	2023-01-28T00:00:00	2024-11-06T13:00:00	1	Precipitación	0
133736	7	Sololá	701	Sololá	2	El tablón	1	Enero	2023-01-28T00:00:00	2024-11-06T13:00:00	8	Radiación solar	813
133737	7	Sololá	701	Sololá	2	El tablón	1	Enero	2023-01-28T00:00:00	2024-11-06T14:00:00	2	Temperatura media	18.3
133738	7	Sololá	701	Sololá	2	El tablón	1	Enero	2023-01-28T00:00:00	2024-11-06T14:00:00	4	Temperatura máxima	18.3
133739	7	Sololá	701	Sololá	2	El tablón	1	Enero	2023-01-28T00:00:00	2024-11-06T14:00:00	3	Temperatura mínima	17.2
133740	7	Sololá	701	Sololá	2	El tablón	1	Enero	2023-01-28T00:00:00	2024-11-06T14:00:00	5	Humedad	43
133741	7	Sololá	701	Sololá	2	El tablón	1	Enero	2023-01-28T00:00:00	2024-11-06T14:00:00	6	Velocidad del viento	9.7
133742	7	Sololá	701	Sololá	2	El tablón	1	Enero	2023-01-28T00:00:00	2024-11-06T14:00:00	7	Dirección del viento	9.66
133743	7	Sololá	701	Sololá	2	El tablón	1	Enero	2023-01-28T00:00:00	2024-11-06T14:00:00	1	Precipitación	0
133744	7	Sololá	701	Sololá	2	El tablón	1	Enero	2023-01-28T00:00:00	2024-11-06T14:00:00	8	Radiación solar	769
133745	7	Sololá	701	Sololá	2	El tablón	1	Enero	2023-01-28T00:00:00	2024-11-06T15:00:00	2	Temperatura media	18.1
133746	7	Sololá	701	Sololá	2	El tablón	1	Enero	2023-01-28T00:00:00	2024-11-06T15:00:00	4	Temperatura máxima	18.6
133747	7	Sololá	701	Sololá	2	El tablón	1	Enero	2023-01-28T00:00:00	2024-11-06T15:00:00	3	Temperatura mínima	18.1
133748	7	Sololá	701	Sololá	2	El tablón	1	Enero	2023-01-28T00:00:00	2024-11-06T15:00:00	5	Humedad	44
133749	7	Sololá	701	Sololá	2	El tablón	1	Enero	2023-01-28T00:00:00	2024-11-06T15:00:00	6	Velocidad del viento	9.7
133750	7	Sololá	701	Sololá	2	El tablón	1	Enero	2023-01-28T00:00:00	2024-11-06T15:00:00	7	Dirección del viento	9.66
133751	7	Sololá	701	Sololá	2	El tablón	1	Enero	2023-01-28T00:00:00	2024-11-06T15:00:00	1	Precipitación	0
133752	7	Sololá	701	Sololá	2	El tablón	1	Enero	2023-01-28T00:00:00	2024-11-06T15:00:00	8	Radiación solar	662
133753	7	Sololá	701	Sololá	2	El tablón	1	Enero	2023-01-28T00:00:00	2024-11-06T16:00:00	2	Temperatura media	17.2
133754	7	Sololá	701	Sololá	2	El tablón	1	Enero	2023-01-28T00:00:00	2024-11-06T16:00:00	4	Temperatura máxima	18.3
133755	7	Sololá	701	Sololá	2	El tablón	1	Enero	2023-01-28T00:00:00	2024-11-06T16:00:00	3	Temperatura mínima	17.2
133756	7	Sololá	701	Sololá	2	El tablón	1	Enero	2023-01-28T00:00:00	2024-11-06T16:00:00	5	Humedad	47
133757	7	Sololá	701	Sololá	2	El tablón	1	Enero	2023-01-28T00:00:00	2024-11-06T16:00:00	6	Velocidad del viento	9.7
133758	7	Sololá	701	Sololá	2	El tablón	1	Enero	2023-01-28T00:00:00	2024-11-06T16:00:00	7	Dirección del viento	9.66
133759	7	Sololá	701	Sololá	2	El tablón	1	Enero	2023-01-28T00:00:00	2024-11-06T16:00:00	1	Precipitación	0
133760	7	Sololá	701	Sololá	2	El tablón	1	Enero	2023-01-28T00:00:00	2024-11-06T16:00:00	8	Radiación solar	499
133761	7	Sololá	701	Sololá	2	El tablón	1	Enero	2023-01-28T00:00:00	2024-11-06T17:00:00	2	Temperatura media	15.9
133762	7	Sololá	701	Sololá	2	El tablón	1	Enero	2023-01-28T00:00:00	2024-11-06T17:00:00	4	Temperatura máxima	17.2
133763	7	Sololá	701	Sololá	2	El tablón	1	Enero	2023-01-28T00:00:00	2024-11-06T17:00:00	3	Temperatura mínima	15.8
133764	7	Sololá	701	Sololá	2	El tablón	1	Enero	2023-01-28T00:00:00	2024-11-06T17:00:00	5	Humedad	54
133765	7	Sololá	701	Sololá	2	El tablón	1	Enero	2023-01-28T00:00:00	2024-11-06T17:00:00	6	Velocidad del viento	9.7
133766	7	Sololá	701	Sololá	2	El tablón	1	Enero	2023-01-28T00:00:00	2024-11-06T17:00:00	7	Dirección del viento	9.66
133767	7	Sololá	701	Sololá	2	El tablón	1	Enero	2023-01-28T00:00:00	2024-11-06T17:00:00	1	Precipitación	0
133768	7	Sololá	701	Sololá	2	El tablón	1	Enero	2023-01-28T00:00:00	2024-11-06T17:00:00	8	Radiación solar	299
133769	7	Sololá	701	Sololá	2	El tablón	1	Enero	2023-01-28T00:00:00	2024-11-06T18:00:00	2	Temperatura media	13.3
133770	7	Sololá	701	Sololá	2	El tablón	1	Enero	2023-01-28T00:00:00	2024-11-06T18:00:00	4	Temperatura máxima	15.9
133771	7	Sololá	701	Sololá	2	El tablón	1	Enero	2023-01-28T00:00:00	2024-11-06T18:00:00	3	Temperatura mínima	13.3
133772	7	Sololá	701	Sololá	2	El tablón	1	Enero	2023-01-28T00:00:00	2024-11-06T18:00:00	5	Humedad	57
133773	7	Sololá	701	Sololá	2	El tablón	1	Enero	2023-01-28T00:00:00	2024-11-06T18:00:00	6	Velocidad del viento	14.5
133774	7	Sololá	701	Sololá	2	El tablón	1	Enero	2023-01-28T00:00:00	2024-11-06T18:00:00	7	Dirección del viento	14.48
133775	7	Sololá	701	Sololá	2	El tablón	1	Enero	2023-01-28T00:00:00	2024-11-06T18:00:00	1	Precipitación	0
133776	7	Sololá	701	Sololá	2	El tablón	1	Enero	2023-01-28T00:00:00	2024-11-06T18:00:00	8	Radiación solar	73
133777	7	Sololá	701	Sololá	2	El tablón	1	Enero	2023-01-28T00:00:00	2024-11-06T19:00:00	2	Temperatura media	11.7
133778	7	Sololá	701	Sololá	2	El tablón	1	Enero	2023-01-28T00:00:00	2024-11-06T19:00:00	4	Temperatura máxima	13.3
133779	7	Sololá	701	Sololá	2	El tablón	1	Enero	2023-01-28T00:00:00	2024-11-06T19:00:00	3	Temperatura mínima	11.7
133780	7	Sololá	701	Sololá	2	El tablón	1	Enero	2023-01-28T00:00:00	2024-11-06T19:00:00	5	Humedad	72
133781	7	Sololá	701	Sololá	2	El tablón	1	Enero	2023-01-28T00:00:00	2024-11-06T19:00:00	6	Velocidad del viento	19.3
133782	7	Sololá	701	Sololá	2	El tablón	1	Enero	2023-01-28T00:00:00	2024-11-06T19:00:00	7	Dirección del viento	19.31
133783	7	Sololá	701	Sololá	2	El tablón	1	Enero	2023-01-28T00:00:00	2024-11-06T19:00:00	1	Precipitación	0
133784	7	Sololá	701	Sololá	2	El tablón	1	Enero	2023-01-28T00:00:00	2024-11-06T19:00:00	8	Radiación solar	0
133785	7	Sololá	701	Sololá	2	El tablón	1	Enero	2023-01-28T00:00:00	2024-11-06T20:00:00	2	Temperatura media	10.9
133786	7	Sololá	701	Sololá	2	El tablón	1	Enero	2023-01-28T00:00:00	2024-11-06T20:00:00	4	Temperatura máxima	11.7
133787	7	Sololá	701	Sololá	2	El tablón	1	Enero	2023-01-28T00:00:00	2024-11-06T20:00:00	3	Temperatura mínima	10.9
133788	7	Sololá	701	Sololá	2	El tablón	1	Enero	2023-01-28T00:00:00	2024-11-06T20:00:00	5	Humedad	82
133789	7	Sololá	701	Sololá	2	El tablón	1	Enero	2023-01-28T00:00:00	2024-11-06T20:00:00	6	Velocidad del viento	22.5
133790	7	Sololá	701	Sololá	2	El tablón	1	Enero	2023-01-28T00:00:00	2024-11-06T20:00:00	7	Dirección del viento	22.53
133791	7	Sololá	701	Sololá	2	El tablón	1	Enero	2023-01-28T00:00:00	2024-11-06T20:00:00	1	Precipitación	0
133792	7	Sololá	701	Sololá	2	El tablón	1	Enero	2023-01-28T00:00:00	2024-11-06T20:00:00	8	Radiación solar	0
133793	7	Sololá	701	Sololá	2	El tablón	1	Enero	2023-01-28T00:00:00	2024-11-06T21:00:00	2	Temperatura media	10.6
133794	7	Sololá	701	Sololá	2	El tablón	1	Enero	2023-01-28T00:00:00	2024-11-06T21:00:00	4	Temperatura máxima	10.9
133795	7	Sololá	701	Sololá	2	El tablón	1	Enero	2023-01-28T00:00:00	2024-11-06T21:00:00	3	Temperatura mínima	10.6
133796	7	Sololá	701	Sololá	2	El tablón	1	Enero	2023-01-28T00:00:00	2024-11-06T21:00:00	5	Humedad	82
133797	7	Sololá	701	Sololá	2	El tablón	1	Enero	2023-01-28T00:00:00	2024-11-06T21:00:00	6	Velocidad del viento	17.7
133798	7	Sololá	701	Sololá	2	El tablón	1	Enero	2023-01-28T00:00:00	2024-11-06T21:00:00	7	Dirección del viento	17.7
133799	7	Sololá	701	Sololá	2	El tablón	1	Enero	2023-01-28T00:00:00	2024-11-06T21:00:00	1	Precipitación	0
133800	7	Sololá	701	Sololá	2	El tablón	1	Enero	2023-01-28T00:00:00	2024-11-06T21:00:00	8	Radiación solar	0
133801	7	Sololá	701	Sololá	2	El tablón	1	Enero	2023-01-28T00:00:00	2024-11-06T22:00:00	2	Temperatura media	10.3
133802	7	Sololá	701	Sololá	2	El tablón	1	Enero	2023-01-28T00:00:00	2024-11-06T22:00:00	4	Temperatura máxima	10.7
133803	7	Sololá	701	Sololá	2	El tablón	1	Enero	2023-01-28T00:00:00	2024-11-06T22:00:00	3	Temperatura mínima	10.2
133804	7	Sololá	701	Sololá	2	El tablón	1	Enero	2023-01-28T00:00:00	2024-11-06T22:00:00	5	Humedad	83
133805	7	Sololá	701	Sololá	2	El tablón	1	Enero	2023-01-28T00:00:00	2024-11-06T22:00:00	6	Velocidad del viento	16.1
133806	7	Sololá	701	Sololá	2	El tablón	1	Enero	2023-01-28T00:00:00	2024-11-06T22:00:00	7	Dirección del viento	16.09
133807	7	Sololá	701	Sololá	2	El tablón	1	Enero	2023-01-28T00:00:00	2024-11-06T22:00:00	1	Precipitación	0
133808	7	Sololá	701	Sololá	2	El tablón	1	Enero	2023-01-28T00:00:00	2024-11-06T22:00:00	8	Radiación solar	0
133809	7	Sololá	701	Sololá	2	El tablón	1	Enero	2023-01-28T00:00:00	2024-11-06T23:00:00	2	Temperatura media	9.9
133810	7	Sololá	701	Sololá	2	El tablón	1	Enero	2023-01-28T00:00:00	2024-11-06T23:00:00	4	Temperatura máxima	10.3
133811	7	Sololá	701	Sololá	2	El tablón	1	Enero	2023-01-28T00:00:00	2024-11-06T23:00:00	3	Temperatura mínima	9.9
133812	7	Sololá	701	Sololá	2	El tablón	1	Enero	2023-01-28T00:00:00	2024-11-06T23:00:00	5	Humedad	75
133813	7	Sololá	701	Sololá	2	El tablón	1	Enero	2023-01-28T00:00:00	2024-11-06T23:00:00	6	Velocidad del viento	14.5
133814	7	Sololá	701	Sololá	2	El tablón	1	Enero	2023-01-28T00:00:00	2024-11-06T23:00:00	7	Dirección del viento	14.48
133815	7	Sololá	701	Sololá	2	El tablón	1	Enero	2023-01-28T00:00:00	2024-11-06T23:00:00	1	Precipitación	0
133816	7	Sololá	701	Sololá	2	El tablón	1	Enero	2023-01-28T00:00:00	2024-11-06T23:00:00	8	Radiación solar	0
133817	7	Sololá	701	Sololá	2	El tablón	1	Enero	2023-01-29T00:00:00	2024-11-06T00:00:00	2	Temperatura media	10.6
133818	7	Sololá	701	Sololá	2	El tablón	1	Enero	2023-01-29T00:00:00	2024-11-06T00:00:00	4	Temperatura máxima	10.6
133819	7	Sololá	701	Sololá	2	El tablón	1	Enero	2023-01-29T00:00:00	2024-11-06T00:00:00	3	Temperatura mínima	9.9
133820	7	Sololá	701	Sololá	2	El tablón	1	Enero	2023-01-29T00:00:00	2024-11-06T00:00:00	5	Humedad	41
133821	7	Sololá	701	Sololá	2	El tablón	1	Enero	2023-01-29T00:00:00	2024-11-06T00:00:00	6	Velocidad del viento	16.1
133822	7	Sololá	701	Sololá	2	El tablón	1	Enero	2023-01-29T00:00:00	2024-11-06T00:00:00	7	Dirección del viento	16.09
133823	7	Sololá	701	Sololá	2	El tablón	1	Enero	2023-01-29T00:00:00	2024-11-06T00:00:00	1	Precipitación	0
133824	7	Sololá	701	Sololá	2	El tablón	1	Enero	2023-01-29T00:00:00	2024-11-06T00:00:00	8	Radiación solar	0
133825	7	Sololá	701	Sololá	2	El tablón	1	Enero	2023-01-29T00:00:00	2024-11-06T01:00:00	2	Temperatura media	11.4
133826	7	Sololá	701	Sololá	2	El tablón	1	Enero	2023-01-29T00:00:00	2024-11-06T01:00:00	4	Temperatura máxima	11.4
133827	7	Sololá	701	Sololá	2	El tablón	1	Enero	2023-01-29T00:00:00	2024-11-06T01:00:00	3	Temperatura mínima	10.6
133828	7	Sololá	701	Sololá	2	El tablón	1	Enero	2023-01-29T00:00:00	2024-11-06T01:00:00	5	Humedad	25
133829	7	Sololá	701	Sololá	2	El tablón	1	Enero	2023-01-29T00:00:00	2024-11-06T01:00:00	6	Velocidad del viento	14.5
133830	7	Sololá	701	Sololá	2	El tablón	1	Enero	2023-01-29T00:00:00	2024-11-06T01:00:00	7	Dirección del viento	14.48
133831	7	Sololá	701	Sololá	2	El tablón	1	Enero	2023-01-29T00:00:00	2024-11-06T01:00:00	1	Precipitación	0
133832	7	Sololá	701	Sololá	2	El tablón	1	Enero	2023-01-29T00:00:00	2024-11-06T01:00:00	8	Radiación solar	0
133833	7	Sololá	701	Sololá	2	El tablón	1	Enero	2023-01-29T00:00:00	2024-11-06T02:00:00	2	Temperatura media	10.6
133834	7	Sololá	701	Sololá	2	El tablón	1	Enero	2023-01-29T00:00:00	2024-11-06T02:00:00	4	Temperatura máxima	11.4
133835	7	Sololá	701	Sololá	2	El tablón	1	Enero	2023-01-29T00:00:00	2024-11-06T02:00:00	3	Temperatura mínima	10.6
133836	7	Sololá	701	Sololá	2	El tablón	1	Enero	2023-01-29T00:00:00	2024-11-06T02:00:00	5	Humedad	32
133837	7	Sololá	701	Sololá	2	El tablón	1	Enero	2023-01-29T00:00:00	2024-11-06T02:00:00	6	Velocidad del viento	11.3
133838	7	Sololá	701	Sololá	2	El tablón	1	Enero	2023-01-29T00:00:00	2024-11-06T02:00:00	7	Dirección del viento	11.27
133839	7	Sololá	701	Sololá	2	El tablón	1	Enero	2023-01-29T00:00:00	2024-11-06T02:00:00	1	Precipitación	0
133840	7	Sololá	701	Sololá	2	El tablón	1	Enero	2023-01-29T00:00:00	2024-11-06T02:00:00	8	Radiación solar	0
133841	7	Sololá	701	Sololá	2	El tablón	1	Enero	2023-01-29T00:00:00	2024-11-06T03:00:00	2	Temperatura media	9.3
133842	7	Sololá	701	Sololá	2	El tablón	1	Enero	2023-01-29T00:00:00	2024-11-06T03:00:00	4	Temperatura máxima	10.7
133843	7	Sololá	701	Sololá	2	El tablón	1	Enero	2023-01-29T00:00:00	2024-11-06T03:00:00	3	Temperatura mínima	9.2
133844	7	Sololá	701	Sololá	2	El tablón	1	Enero	2023-01-29T00:00:00	2024-11-06T03:00:00	5	Humedad	43
133845	7	Sololá	701	Sololá	2	El tablón	1	Enero	2023-01-29T00:00:00	2024-11-06T03:00:00	6	Velocidad del viento	9.7
133846	7	Sololá	701	Sololá	2	El tablón	1	Enero	2023-01-29T00:00:00	2024-11-06T03:00:00	7	Dirección del viento	9.66
133847	7	Sololá	701	Sololá	2	El tablón	1	Enero	2023-01-29T00:00:00	2024-11-06T03:00:00	1	Precipitación	0
133848	7	Sololá	701	Sololá	2	El tablón	1	Enero	2023-01-29T00:00:00	2024-11-06T03:00:00	8	Radiación solar	0
133849	7	Sololá	701	Sololá	2	El tablón	1	Enero	2023-01-29T00:00:00	2024-11-06T04:00:00	2	Temperatura media	9.1
133850	7	Sololá	701	Sololá	2	El tablón	1	Enero	2023-01-29T00:00:00	2024-11-06T04:00:00	4	Temperatura máxima	9.4
133851	7	Sololá	701	Sololá	2	El tablón	1	Enero	2023-01-29T00:00:00	2024-11-06T04:00:00	3	Temperatura mínima	9
133852	7	Sololá	701	Sololá	2	El tablón	1	Enero	2023-01-29T00:00:00	2024-11-06T04:00:00	5	Humedad	50
133853	7	Sololá	701	Sololá	2	El tablón	1	Enero	2023-01-29T00:00:00	2024-11-06T04:00:00	6	Velocidad del viento	9.7
133854	7	Sololá	701	Sololá	2	El tablón	1	Enero	2023-01-29T00:00:00	2024-11-06T04:00:00	7	Dirección del viento	9.66
133855	7	Sololá	701	Sololá	2	El tablón	1	Enero	2023-01-29T00:00:00	2024-11-06T04:00:00	1	Precipitación	0
133856	7	Sololá	701	Sololá	2	El tablón	1	Enero	2023-01-29T00:00:00	2024-11-06T04:00:00	8	Radiación solar	0
133857	7	Sololá	701	Sololá	2	El tablón	1	Enero	2023-01-29T00:00:00	2024-11-06T05:00:00	2	Temperatura media	9.3
133858	7	Sololá	701	Sololá	2	El tablón	1	Enero	2023-01-29T00:00:00	2024-11-06T05:00:00	4	Temperatura máxima	9.3
133859	7	Sololá	701	Sololá	2	El tablón	1	Enero	2023-01-29T00:00:00	2024-11-06T05:00:00	3	Temperatura mínima	9.1
133860	7	Sololá	701	Sololá	2	El tablón	1	Enero	2023-01-29T00:00:00	2024-11-06T05:00:00	5	Humedad	44
133861	7	Sololá	701	Sololá	2	El tablón	1	Enero	2023-01-29T00:00:00	2024-11-06T05:00:00	6	Velocidad del viento	9.7
133862	7	Sololá	701	Sololá	2	El tablón	1	Enero	2023-01-29T00:00:00	2024-11-06T05:00:00	7	Dirección del viento	9.66
133863	7	Sololá	701	Sololá	2	El tablón	1	Enero	2023-01-29T00:00:00	2024-11-06T05:00:00	1	Precipitación	0
133864	7	Sololá	701	Sololá	2	El tablón	1	Enero	2023-01-29T00:00:00	2024-11-06T05:00:00	8	Radiación solar	0
133865	7	Sololá	701	Sololá	2	El tablón	1	Enero	2023-01-29T00:00:00	2024-11-06T06:00:00	2	Temperatura media	9.5
133866	7	Sololá	701	Sololá	2	El tablón	1	Enero	2023-01-29T00:00:00	2024-11-06T06:00:00	4	Temperatura máxima	9.5
133867	7	Sololá	701	Sololá	2	El tablón	1	Enero	2023-01-29T00:00:00	2024-11-06T06:00:00	3	Temperatura mínima	9.3
133868	7	Sololá	701	Sololá	2	El tablón	1	Enero	2023-01-29T00:00:00	2024-11-06T06:00:00	5	Humedad	39
133869	7	Sololá	701	Sololá	2	El tablón	1	Enero	2023-01-29T00:00:00	2024-11-06T06:00:00	6	Velocidad del viento	6.4
133870	7	Sololá	701	Sololá	2	El tablón	1	Enero	2023-01-29T00:00:00	2024-11-06T06:00:00	7	Dirección del viento	6.44
133871	7	Sololá	701	Sololá	2	El tablón	1	Enero	2023-01-29T00:00:00	2024-11-06T06:00:00	1	Precipitación	0
133872	7	Sololá	701	Sololá	2	El tablón	1	Enero	2023-01-29T00:00:00	2024-11-06T06:00:00	8	Radiación solar	0
133873	7	Sololá	701	Sololá	2	El tablón	1	Enero	2023-01-29T00:00:00	2024-11-06T07:00:00	2	Temperatura media	11.2
133874	7	Sololá	701	Sololá	2	El tablón	1	Enero	2023-01-29T00:00:00	2024-11-06T07:00:00	4	Temperatura máxima	11.2
133875	7	Sololá	701	Sololá	2	El tablón	1	Enero	2023-01-29T00:00:00	2024-11-06T07:00:00	3	Temperatura mínima	9.3
133876	7	Sololá	701	Sololá	2	El tablón	1	Enero	2023-01-29T00:00:00	2024-11-06T07:00:00	5	Humedad	31
133877	7	Sololá	701	Sololá	2	El tablón	1	Enero	2023-01-29T00:00:00	2024-11-06T07:00:00	6	Velocidad del viento	6.4
133878	7	Sololá	701	Sololá	2	El tablón	1	Enero	2023-01-29T00:00:00	2024-11-06T07:00:00	7	Dirección del viento	6.44
133879	7	Sololá	701	Sololá	2	El tablón	1	Enero	2023-01-29T00:00:00	2024-11-06T07:00:00	1	Precipitación	0
133880	7	Sololá	701	Sololá	2	El tablón	1	Enero	2023-01-29T00:00:00	2024-11-06T07:00:00	8	Radiación solar	4
133881	7	Sololá	701	Sololá	2	El tablón	1	Enero	2023-01-29T00:00:00	2024-11-06T08:00:00	2	Temperatura media	13.2
133882	7	Sololá	701	Sololá	2	El tablón	1	Enero	2023-01-29T00:00:00	2024-11-06T08:00:00	4	Temperatura máxima	13.2
133883	7	Sololá	701	Sololá	2	El tablón	1	Enero	2023-01-29T00:00:00	2024-11-06T08:00:00	3	Temperatura mínima	11.2
133884	7	Sololá	701	Sololá	2	El tablón	1	Enero	2023-01-29T00:00:00	2024-11-06T08:00:00	5	Humedad	33
133885	7	Sololá	701	Sololá	2	El tablón	1	Enero	2023-01-29T00:00:00	2024-11-06T08:00:00	6	Velocidad del viento	9.7
133886	7	Sololá	701	Sololá	2	El tablón	1	Enero	2023-01-29T00:00:00	2024-11-06T08:00:00	7	Dirección del viento	9.66
133887	7	Sololá	701	Sololá	2	El tablón	1	Enero	2023-01-29T00:00:00	2024-11-06T08:00:00	1	Precipitación	0
133888	7	Sololá	701	Sololá	2	El tablón	1	Enero	2023-01-29T00:00:00	2024-11-06T08:00:00	8	Radiación solar	122
133889	7	Sololá	701	Sololá	2	El tablón	1	Enero	2023-01-29T00:00:00	2024-11-06T09:00:00	2	Temperatura media	14.4
133890	7	Sololá	701	Sololá	2	El tablón	1	Enero	2023-01-29T00:00:00	2024-11-06T09:00:00	4	Temperatura máxima	14.6
133891	7	Sololá	701	Sololá	2	El tablón	1	Enero	2023-01-29T00:00:00	2024-11-06T09:00:00	3	Temperatura mínima	12.9
133892	7	Sololá	701	Sololá	2	El tablón	1	Enero	2023-01-29T00:00:00	2024-11-06T09:00:00	5	Humedad	38
133893	7	Sololá	701	Sololá	2	El tablón	1	Enero	2023-01-29T00:00:00	2024-11-06T09:00:00	6	Velocidad del viento	12.9
133894	7	Sololá	701	Sololá	2	El tablón	1	Enero	2023-01-29T00:00:00	2024-11-06T09:00:00	7	Dirección del viento	12.87
133895	7	Sololá	701	Sololá	2	El tablón	1	Enero	2023-01-29T00:00:00	2024-11-06T09:00:00	1	Precipitación	0
133896	7	Sololá	701	Sololá	2	El tablón	1	Enero	2023-01-29T00:00:00	2024-11-06T09:00:00	8	Radiación solar	357
133897	7	Sololá	701	Sololá	2	El tablón	1	Enero	2023-01-29T00:00:00	2024-11-06T10:00:00	2	Temperatura media	15.8
133898	7	Sololá	701	Sololá	2	El tablón	1	Enero	2023-01-29T00:00:00	2024-11-06T10:00:00	4	Temperatura máxima	16
133899	7	Sololá	701	Sololá	2	El tablón	1	Enero	2023-01-29T00:00:00	2024-11-06T10:00:00	3	Temperatura mínima	14.4
133900	7	Sololá	701	Sololá	2	El tablón	1	Enero	2023-01-29T00:00:00	2024-11-06T10:00:00	5	Humedad	39
133901	7	Sololá	701	Sololá	2	El tablón	1	Enero	2023-01-29T00:00:00	2024-11-06T10:00:00	6	Velocidad del viento	12.9
133902	7	Sololá	701	Sololá	2	El tablón	1	Enero	2023-01-29T00:00:00	2024-11-06T10:00:00	7	Dirección del viento	12.87
133903	7	Sololá	701	Sololá	2	El tablón	1	Enero	2023-01-29T00:00:00	2024-11-06T10:00:00	1	Precipitación	0
133904	7	Sololá	701	Sololá	2	El tablón	1	Enero	2023-01-29T00:00:00	2024-11-06T10:00:00	8	Radiación solar	558
133905	7	Sololá	701	Sololá	2	El tablón	1	Enero	2023-01-29T00:00:00	2024-11-06T11:00:00	2	Temperatura media	16.4
133906	7	Sololá	701	Sololá	2	El tablón	1	Enero	2023-01-29T00:00:00	2024-11-06T11:00:00	4	Temperatura máxima	16.4
133907	7	Sololá	701	Sololá	2	El tablón	1	Enero	2023-01-29T00:00:00	2024-11-06T11:00:00	3	Temperatura mínima	15.8
133908	7	Sololá	701	Sololá	2	El tablón	1	Enero	2023-01-29T00:00:00	2024-11-06T11:00:00	5	Humedad	34
133909	7	Sololá	701	Sololá	2	El tablón	1	Enero	2023-01-29T00:00:00	2024-11-06T11:00:00	6	Velocidad del viento	12.9
133910	7	Sololá	701	Sololá	2	El tablón	1	Enero	2023-01-29T00:00:00	2024-11-06T11:00:00	7	Dirección del viento	12.87
133911	7	Sololá	701	Sololá	2	El tablón	1	Enero	2023-01-29T00:00:00	2024-11-06T11:00:00	1	Precipitación	0
133912	7	Sololá	701	Sololá	2	El tablón	1	Enero	2023-01-29T00:00:00	2024-11-06T11:00:00	8	Radiación solar	711
133913	7	Sololá	701	Sololá	2	El tablón	1	Enero	2023-01-29T00:00:00	2024-11-06T12:00:00	2	Temperatura media	17.7
133914	7	Sololá	701	Sololá	2	El tablón	1	Enero	2023-01-29T00:00:00	2024-11-06T12:00:00	4	Temperatura máxima	17.9
133915	7	Sololá	701	Sololá	2	El tablón	1	Enero	2023-01-29T00:00:00	2024-11-06T12:00:00	3	Temperatura mínima	16.4
133916	7	Sololá	701	Sololá	2	El tablón	1	Enero	2023-01-29T00:00:00	2024-11-06T12:00:00	5	Humedad	38
133917	7	Sololá	701	Sololá	2	El tablón	1	Enero	2023-01-29T00:00:00	2024-11-06T12:00:00	6	Velocidad del viento	11.3
133918	7	Sololá	701	Sololá	2	El tablón	1	Enero	2023-01-29T00:00:00	2024-11-06T12:00:00	7	Dirección del viento	11.27
133919	7	Sololá	701	Sololá	2	El tablón	1	Enero	2023-01-29T00:00:00	2024-11-06T12:00:00	1	Precipitación	0
133920	7	Sololá	701	Sololá	2	El tablón	1	Enero	2023-01-29T00:00:00	2024-11-06T12:00:00	8	Radiación solar	705
133921	7	Sololá	701	Sololá	2	El tablón	1	Enero	2023-01-29T00:00:00	2024-11-06T13:00:00	2	Temperatura media	18.6
133922	7	Sololá	701	Sololá	2	El tablón	1	Enero	2023-01-29T00:00:00	2024-11-06T13:00:00	4	Temperatura máxima	18.8
133923	7	Sololá	701	Sololá	2	El tablón	1	Enero	2023-01-29T00:00:00	2024-11-06T13:00:00	3	Temperatura mínima	17.7
133924	7	Sololá	701	Sololá	2	El tablón	1	Enero	2023-01-29T00:00:00	2024-11-06T13:00:00	5	Humedad	36
133925	7	Sololá	701	Sololá	2	El tablón	1	Enero	2023-01-29T00:00:00	2024-11-06T13:00:00	6	Velocidad del viento	9.7
133926	7	Sololá	701	Sololá	2	El tablón	1	Enero	2023-01-29T00:00:00	2024-11-06T13:00:00	7	Dirección del viento	9.66
133927	7	Sololá	701	Sololá	2	El tablón	1	Enero	2023-01-29T00:00:00	2024-11-06T13:00:00	1	Precipitación	0
133928	7	Sololá	701	Sololá	2	El tablón	1	Enero	2023-01-29T00:00:00	2024-11-06T13:00:00	8	Radiación solar	822
133929	7	Sololá	701	Sololá	2	El tablón	1	Enero	2023-01-29T00:00:00	2024-11-06T14:00:00	2	Temperatura media	19.4
133930	7	Sololá	701	Sololá	2	El tablón	1	Enero	2023-01-29T00:00:00	2024-11-06T14:00:00	4	Temperatura máxima	20.2
133931	7	Sololá	701	Sololá	2	El tablón	1	Enero	2023-01-29T00:00:00	2024-11-06T14:00:00	3	Temperatura mínima	18.5
133932	7	Sololá	701	Sololá	2	El tablón	1	Enero	2023-01-29T00:00:00	2024-11-06T14:00:00	5	Humedad	48
133933	7	Sololá	701	Sololá	2	El tablón	1	Enero	2023-01-29T00:00:00	2024-11-06T14:00:00	6	Velocidad del viento	6.4
133934	7	Sololá	701	Sololá	2	El tablón	1	Enero	2023-01-29T00:00:00	2024-11-06T14:00:00	7	Dirección del viento	6.44
133935	7	Sololá	701	Sololá	2	El tablón	1	Enero	2023-01-29T00:00:00	2024-11-06T14:00:00	1	Precipitación	0
133936	7	Sololá	701	Sololá	2	El tablón	1	Enero	2023-01-29T00:00:00	2024-11-06T14:00:00	8	Radiación solar	779
133937	7	Sololá	701	Sololá	2	El tablón	1	Enero	2023-01-29T00:00:00	2024-11-06T15:00:00	2	Temperatura media	17.3
133938	7	Sololá	701	Sololá	2	El tablón	1	Enero	2023-01-29T00:00:00	2024-11-06T15:00:00	4	Temperatura máxima	19.6
133939	7	Sololá	701	Sololá	2	El tablón	1	Enero	2023-01-29T00:00:00	2024-11-06T15:00:00	3	Temperatura mínima	17.3
133940	7	Sololá	701	Sololá	2	El tablón	1	Enero	2023-01-29T00:00:00	2024-11-06T15:00:00	5	Humedad	65
133941	7	Sololá	701	Sololá	2	El tablón	1	Enero	2023-01-29T00:00:00	2024-11-06T15:00:00	6	Velocidad del viento	9.7
133942	7	Sololá	701	Sololá	2	El tablón	1	Enero	2023-01-29T00:00:00	2024-11-06T15:00:00	7	Dirección del viento	9.66
133943	7	Sololá	701	Sololá	2	El tablón	1	Enero	2023-01-29T00:00:00	2024-11-06T15:00:00	1	Precipitación	0
133944	7	Sololá	701	Sololá	2	El tablón	1	Enero	2023-01-29T00:00:00	2024-11-06T15:00:00	8	Radiación solar	661
133945	7	Sololá	701	Sololá	2	El tablón	1	Enero	2023-01-29T00:00:00	2024-11-06T16:00:00	2	Temperatura media	17.3
133946	7	Sololá	701	Sololá	2	El tablón	1	Enero	2023-01-29T00:00:00	2024-11-06T16:00:00	4	Temperatura máxima	17.9
133947	7	Sololá	701	Sololá	2	El tablón	1	Enero	2023-01-29T00:00:00	2024-11-06T16:00:00	3	Temperatura mínima	17
133948	7	Sololá	701	Sololá	2	El tablón	1	Enero	2023-01-29T00:00:00	2024-11-06T16:00:00	5	Humedad	66
133949	7	Sololá	701	Sololá	2	El tablón	1	Enero	2023-01-29T00:00:00	2024-11-06T16:00:00	6	Velocidad del viento	8
133950	7	Sololá	701	Sololá	2	El tablón	1	Enero	2023-01-29T00:00:00	2024-11-06T16:00:00	7	Dirección del viento	8.05
133951	7	Sololá	701	Sololá	2	El tablón	1	Enero	2023-01-29T00:00:00	2024-11-06T16:00:00	1	Precipitación	0
133952	7	Sololá	701	Sololá	2	El tablón	1	Enero	2023-01-29T00:00:00	2024-11-06T16:00:00	8	Radiación solar	493
133953	7	Sololá	701	Sololá	2	El tablón	1	Enero	2023-01-29T00:00:00	2024-11-06T17:00:00	2	Temperatura media	16.3
133954	7	Sololá	701	Sololá	2	El tablón	1	Enero	2023-01-29T00:00:00	2024-11-06T17:00:00	4	Temperatura máxima	17.3
133955	7	Sololá	701	Sololá	2	El tablón	1	Enero	2023-01-29T00:00:00	2024-11-06T17:00:00	3	Temperatura mínima	16.3
133956	7	Sololá	701	Sololá	2	El tablón	1	Enero	2023-01-29T00:00:00	2024-11-06T17:00:00	5	Humedad	67
133957	7	Sololá	701	Sololá	2	El tablón	1	Enero	2023-01-29T00:00:00	2024-11-06T17:00:00	6	Velocidad del viento	6.4
133958	7	Sololá	701	Sololá	2	El tablón	1	Enero	2023-01-29T00:00:00	2024-11-06T17:00:00	7	Dirección del viento	6.44
133959	7	Sololá	701	Sololá	2	El tablón	1	Enero	2023-01-29T00:00:00	2024-11-06T17:00:00	1	Precipitación	0
133960	7	Sololá	701	Sololá	2	El tablón	1	Enero	2023-01-29T00:00:00	2024-11-06T17:00:00	8	Radiación solar	288
133961	7	Sololá	701	Sololá	2	El tablón	1	Enero	2023-01-29T00:00:00	2024-11-06T18:00:00	2	Temperatura media	14.4
133962	7	Sololá	701	Sololá	2	El tablón	1	Enero	2023-01-29T00:00:00	2024-11-06T18:00:00	4	Temperatura máxima	16.3
133963	7	Sololá	701	Sololá	2	El tablón	1	Enero	2023-01-29T00:00:00	2024-11-06T18:00:00	3	Temperatura mínima	14.4
133964	7	Sololá	701	Sololá	2	El tablón	1	Enero	2023-01-29T00:00:00	2024-11-06T18:00:00	5	Humedad	64
133965	7	Sololá	701	Sololá	2	El tablón	1	Enero	2023-01-29T00:00:00	2024-11-06T18:00:00	6	Velocidad del viento	6.4
133966	7	Sololá	701	Sololá	2	El tablón	1	Enero	2023-01-29T00:00:00	2024-11-06T18:00:00	7	Dirección del viento	6.44
133967	7	Sololá	701	Sololá	2	El tablón	1	Enero	2023-01-29T00:00:00	2024-11-06T18:00:00	1	Precipitación	0
133968	7	Sololá	701	Sololá	2	El tablón	1	Enero	2023-01-29T00:00:00	2024-11-06T18:00:00	8	Radiación solar	68
133969	7	Sololá	701	Sololá	2	El tablón	1	Enero	2023-01-29T00:00:00	2024-11-06T19:00:00	2	Temperatura media	12.4
133970	7	Sololá	701	Sololá	2	El tablón	1	Enero	2023-01-29T00:00:00	2024-11-06T19:00:00	4	Temperatura máxima	14.4
133971	7	Sololá	701	Sololá	2	El tablón	1	Enero	2023-01-29T00:00:00	2024-11-06T19:00:00	3	Temperatura mínima	12.4
133972	7	Sololá	701	Sololá	2	El tablón	1	Enero	2023-01-29T00:00:00	2024-11-06T19:00:00	5	Humedad	77
133973	7	Sololá	701	Sololá	2	El tablón	1	Enero	2023-01-29T00:00:00	2024-11-06T19:00:00	6	Velocidad del viento	6.4
133974	7	Sololá	701	Sololá	2	El tablón	1	Enero	2023-01-29T00:00:00	2024-11-06T19:00:00	7	Dirección del viento	6.44
133975	7	Sololá	701	Sololá	2	El tablón	1	Enero	2023-01-29T00:00:00	2024-11-06T19:00:00	1	Precipitación	0
133976	7	Sololá	701	Sololá	2	El tablón	1	Enero	2023-01-29T00:00:00	2024-11-06T19:00:00	8	Radiación solar	0
133977	7	Sololá	701	Sololá	2	El tablón	1	Enero	2023-01-29T00:00:00	2024-11-06T20:00:00	2	Temperatura media	11.4
133978	7	Sololá	701	Sololá	2	El tablón	1	Enero	2023-01-29T00:00:00	2024-11-06T20:00:00	4	Temperatura máxima	12.4
133979	7	Sololá	701	Sololá	2	El tablón	1	Enero	2023-01-29T00:00:00	2024-11-06T20:00:00	3	Temperatura mínima	11.4
133980	7	Sololá	701	Sololá	2	El tablón	1	Enero	2023-01-29T00:00:00	2024-11-06T20:00:00	5	Humedad	83
133981	7	Sololá	701	Sololá	2	El tablón	1	Enero	2023-01-29T00:00:00	2024-11-06T20:00:00	6	Velocidad del viento	11.3
133982	7	Sololá	701	Sololá	2	El tablón	1	Enero	2023-01-29T00:00:00	2024-11-06T20:00:00	7	Dirección del viento	11.27
133983	7	Sololá	701	Sololá	2	El tablón	1	Enero	2023-01-29T00:00:00	2024-11-06T20:00:00	1	Precipitación	0
133984	7	Sololá	701	Sololá	2	El tablón	1	Enero	2023-01-29T00:00:00	2024-11-06T20:00:00	8	Radiación solar	0
133985	7	Sololá	701	Sololá	2	El tablón	1	Enero	2023-01-29T00:00:00	2024-11-06T21:00:00	2	Temperatura media	10.8
133986	7	Sololá	701	Sololá	2	El tablón	1	Enero	2023-01-29T00:00:00	2024-11-06T21:00:00	4	Temperatura máxima	11.4
133987	7	Sololá	701	Sololá	2	El tablón	1	Enero	2023-01-29T00:00:00	2024-11-06T21:00:00	3	Temperatura mínima	10.8
133988	7	Sololá	701	Sololá	2	El tablón	1	Enero	2023-01-29T00:00:00	2024-11-06T21:00:00	5	Humedad	82
133989	7	Sololá	701	Sololá	2	El tablón	1	Enero	2023-01-29T00:00:00	2024-11-06T21:00:00	6	Velocidad del viento	9.7
133990	7	Sololá	701	Sololá	2	El tablón	1	Enero	2023-01-29T00:00:00	2024-11-06T21:00:00	7	Dirección del viento	9.66
133991	7	Sololá	701	Sololá	2	El tablón	1	Enero	2023-01-29T00:00:00	2024-11-06T21:00:00	1	Precipitación	0
133992	7	Sololá	701	Sololá	2	El tablón	1	Enero	2023-01-29T00:00:00	2024-11-06T21:00:00	8	Radiación solar	0
133993	7	Sololá	701	Sololá	2	El tablón	1	Enero	2023-01-29T00:00:00	2024-11-06T22:00:00	2	Temperatura media	10.5
133994	7	Sololá	701	Sololá	2	El tablón	1	Enero	2023-01-29T00:00:00	2024-11-06T22:00:00	4	Temperatura máxima	10.8
133995	7	Sololá	701	Sololá	2	El tablón	1	Enero	2023-01-29T00:00:00	2024-11-06T22:00:00	3	Temperatura mínima	10.4
133996	7	Sololá	701	Sololá	2	El tablón	1	Enero	2023-01-29T00:00:00	2024-11-06T22:00:00	5	Humedad	82
133997	7	Sololá	701	Sololá	2	El tablón	1	Enero	2023-01-29T00:00:00	2024-11-06T22:00:00	6	Velocidad del viento	8
133998	7	Sololá	701	Sololá	2	El tablón	1	Enero	2023-01-29T00:00:00	2024-11-06T22:00:00	7	Dirección del viento	8.05
133999	7	Sololá	701	Sololá	2	El tablón	1	Enero	2023-01-29T00:00:00	2024-11-06T22:00:00	1	Precipitación	0
134000	7	Sololá	701	Sololá	2	El tablón	1	Enero	2023-01-29T00:00:00	2024-11-06T22:00:00	8	Radiación solar	0
134001	7	Sololá	701	Sololá	2	El tablón	1	Enero	2023-01-29T00:00:00	2024-11-06T23:00:00	2	Temperatura media	9.5
134002	7	Sololá	701	Sololá	2	El tablón	1	Enero	2023-01-29T00:00:00	2024-11-06T23:00:00	4	Temperatura máxima	10.5
134003	7	Sololá	701	Sololá	2	El tablón	1	Enero	2023-01-29T00:00:00	2024-11-06T23:00:00	3	Temperatura mínima	9.5
134004	7	Sololá	701	Sololá	2	El tablón	1	Enero	2023-01-29T00:00:00	2024-11-06T23:00:00	5	Humedad	83
134005	7	Sololá	701	Sololá	2	El tablón	1	Enero	2023-01-29T00:00:00	2024-11-06T23:00:00	6	Velocidad del viento	4.8
134006	7	Sololá	701	Sololá	2	El tablón	1	Enero	2023-01-29T00:00:00	2024-11-06T23:00:00	7	Dirección del viento	4.83
134007	7	Sololá	701	Sololá	2	El tablón	1	Enero	2023-01-29T00:00:00	2024-11-06T23:00:00	1	Precipitación	0
134008	7	Sololá	701	Sololá	2	El tablón	1	Enero	2023-01-29T00:00:00	2024-11-06T23:00:00	8	Radiación solar	0
134009	7	Sololá	701	Sololá	2	El tablón	1	Enero	2023-01-30T00:00:00	2024-11-06T00:00:00	2	Temperatura media	9.1
134010	7	Sololá	701	Sololá	2	El tablón	1	Enero	2023-01-30T00:00:00	2024-11-06T00:00:00	4	Temperatura máxima	9.5
134011	7	Sololá	701	Sololá	2	El tablón	1	Enero	2023-01-30T00:00:00	2024-11-06T00:00:00	3	Temperatura mínima	9
134012	7	Sololá	701	Sololá	2	El tablón	1	Enero	2023-01-30T00:00:00	2024-11-06T00:00:00	5	Humedad	83
134013	7	Sololá	701	Sololá	2	El tablón	1	Enero	2023-01-30T00:00:00	2024-11-06T00:00:00	6	Velocidad del viento	6.4
134014	7	Sololá	701	Sololá	2	El tablón	1	Enero	2023-01-30T00:00:00	2024-11-06T00:00:00	7	Dirección del viento	6.44
134015	7	Sololá	701	Sololá	2	El tablón	1	Enero	2023-01-30T00:00:00	2024-11-06T00:00:00	1	Precipitación	0
134016	7	Sololá	701	Sololá	2	El tablón	1	Enero	2023-01-30T00:00:00	2024-11-06T00:00:00	8	Radiación solar	0
134017	7	Sololá	701	Sololá	2	El tablón	1	Enero	2023-01-30T00:00:00	2024-11-06T01:00:00	2	Temperatura media	8.3
134018	7	Sololá	701	Sololá	2	El tablón	1	Enero	2023-01-30T00:00:00	2024-11-06T01:00:00	4	Temperatura máxima	9.1
134019	7	Sololá	701	Sololá	2	El tablón	1	Enero	2023-01-30T00:00:00	2024-11-06T01:00:00	3	Temperatura mínima	8.3
134020	7	Sololá	701	Sololá	2	El tablón	1	Enero	2023-01-30T00:00:00	2024-11-06T01:00:00	5	Humedad	86
134021	7	Sololá	701	Sololá	2	El tablón	1	Enero	2023-01-30T00:00:00	2024-11-06T01:00:00	6	Velocidad del viento	6.4
134022	7	Sololá	701	Sololá	2	El tablón	1	Enero	2023-01-30T00:00:00	2024-11-06T01:00:00	7	Dirección del viento	6.44
134023	7	Sololá	701	Sololá	2	El tablón	1	Enero	2023-01-30T00:00:00	2024-11-06T01:00:00	1	Precipitación	0
134024	7	Sololá	701	Sololá	2	El tablón	1	Enero	2023-01-30T00:00:00	2024-11-06T01:00:00	8	Radiación solar	0
134025	7	Sololá	701	Sololá	2	El tablón	1	Enero	2023-01-30T00:00:00	2024-11-06T02:00:00	2	Temperatura media	7.8
134026	7	Sololá	701	Sololá	2	El tablón	1	Enero	2023-01-30T00:00:00	2024-11-06T02:00:00	4	Temperatura máxima	8.3
134027	7	Sololá	701	Sololá	2	El tablón	1	Enero	2023-01-30T00:00:00	2024-11-06T02:00:00	3	Temperatura mínima	7.2
134028	7	Sololá	701	Sololá	2	El tablón	1	Enero	2023-01-30T00:00:00	2024-11-06T02:00:00	5	Humedad	78
134029	7	Sololá	701	Sololá	2	El tablón	1	Enero	2023-01-30T00:00:00	2024-11-06T02:00:00	6	Velocidad del viento	4.8
134030	7	Sololá	701	Sololá	2	El tablón	1	Enero	2023-01-30T00:00:00	2024-11-06T02:00:00	7	Dirección del viento	4.83
134031	7	Sololá	701	Sololá	2	El tablón	1	Enero	2023-01-30T00:00:00	2024-11-06T02:00:00	1	Precipitación	0
134032	7	Sololá	701	Sololá	2	El tablón	1	Enero	2023-01-30T00:00:00	2024-11-06T02:00:00	8	Radiación solar	0
134033	7	Sololá	701	Sololá	2	El tablón	1	Enero	2023-01-30T00:00:00	2024-11-06T03:00:00	2	Temperatura media	8.3
134034	7	Sololá	701	Sololá	2	El tablón	1	Enero	2023-01-30T00:00:00	2024-11-06T03:00:00	4	Temperatura máxima	9.3
134035	7	Sololá	701	Sololá	2	El tablón	1	Enero	2023-01-30T00:00:00	2024-11-06T03:00:00	3	Temperatura mínima	7.8
134036	7	Sololá	701	Sololá	2	El tablón	1	Enero	2023-01-30T00:00:00	2024-11-06T03:00:00	5	Humedad	70
134037	7	Sololá	701	Sololá	2	El tablón	1	Enero	2023-01-30T00:00:00	2024-11-06T03:00:00	6	Velocidad del viento	4.8
134038	7	Sololá	701	Sololá	2	El tablón	1	Enero	2023-01-30T00:00:00	2024-11-06T03:00:00	7	Dirección del viento	4.83
134039	7	Sololá	701	Sololá	2	El tablón	1	Enero	2023-01-30T00:00:00	2024-11-06T03:00:00	1	Precipitación	0
134040	7	Sololá	701	Sololá	2	El tablón	1	Enero	2023-01-30T00:00:00	2024-11-06T03:00:00	8	Radiación solar	0
134041	7	Sololá	701	Sololá	2	El tablón	1	Enero	2023-01-30T00:00:00	2024-11-06T04:00:00	2	Temperatura media	7.3
134042	7	Sololá	701	Sololá	2	El tablón	1	Enero	2023-01-30T00:00:00	2024-11-06T04:00:00	4	Temperatura máxima	8.8
134043	7	Sololá	701	Sololá	2	El tablón	1	Enero	2023-01-30T00:00:00	2024-11-06T04:00:00	3	Temperatura mínima	7.2
134044	7	Sololá	701	Sololá	2	El tablón	1	Enero	2023-01-30T00:00:00	2024-11-06T04:00:00	5	Humedad	70
134045	7	Sololá	701	Sololá	2	El tablón	1	Enero	2023-01-30T00:00:00	2024-11-06T04:00:00	6	Velocidad del viento	3.2
134046	7	Sololá	701	Sololá	2	El tablón	1	Enero	2023-01-30T00:00:00	2024-11-06T04:00:00	7	Dirección del viento	3.22
134047	7	Sololá	701	Sololá	2	El tablón	1	Enero	2023-01-30T00:00:00	2024-11-06T04:00:00	1	Precipitación	0
134048	7	Sololá	701	Sololá	2	El tablón	1	Enero	2023-01-30T00:00:00	2024-11-06T04:00:00	8	Radiación solar	0
134049	7	Sololá	701	Sololá	2	El tablón	1	Enero	2023-01-30T00:00:00	2024-11-06T05:00:00	2	Temperatura media	8.6
134050	7	Sololá	701	Sololá	2	El tablón	1	Enero	2023-01-30T00:00:00	2024-11-06T05:00:00	4	Temperatura máxima	8.6
134051	7	Sololá	701	Sololá	2	El tablón	1	Enero	2023-01-30T00:00:00	2024-11-06T05:00:00	3	Temperatura mínima	7.3
134052	7	Sololá	701	Sololá	2	El tablón	1	Enero	2023-01-30T00:00:00	2024-11-06T05:00:00	5	Humedad	63
134053	7	Sololá	701	Sololá	2	El tablón	1	Enero	2023-01-30T00:00:00	2024-11-06T05:00:00	6	Velocidad del viento	4.8
134054	7	Sololá	701	Sololá	2	El tablón	1	Enero	2023-01-30T00:00:00	2024-11-06T05:00:00	7	Dirección del viento	4.83
134055	7	Sololá	701	Sololá	2	El tablón	1	Enero	2023-01-30T00:00:00	2024-11-06T05:00:00	1	Precipitación	0
134056	7	Sololá	701	Sololá	2	El tablón	1	Enero	2023-01-30T00:00:00	2024-11-06T05:00:00	8	Radiación solar	0
134057	7	Sololá	701	Sololá	2	El tablón	1	Enero	2023-01-30T00:00:00	2024-11-06T06:00:00	2	Temperatura media	8.7
134058	7	Sololá	701	Sololá	2	El tablón	1	Enero	2023-01-30T00:00:00	2024-11-06T06:00:00	4	Temperatura máxima	9.2
134059	7	Sololá	701	Sololá	2	El tablón	1	Enero	2023-01-30T00:00:00	2024-11-06T06:00:00	3	Temperatura mínima	8.6
134060	7	Sololá	701	Sololá	2	El tablón	1	Enero	2023-01-30T00:00:00	2024-11-06T06:00:00	5	Humedad	63
134061	7	Sololá	701	Sololá	2	El tablón	1	Enero	2023-01-30T00:00:00	2024-11-06T06:00:00	6	Velocidad del viento	4.8
134062	7	Sololá	701	Sololá	2	El tablón	1	Enero	2023-01-30T00:00:00	2024-11-06T06:00:00	7	Dirección del viento	4.83
134063	7	Sololá	701	Sololá	2	El tablón	1	Enero	2023-01-30T00:00:00	2024-11-06T06:00:00	1	Precipitación	0
134064	7	Sololá	701	Sololá	2	El tablón	1	Enero	2023-01-30T00:00:00	2024-11-06T06:00:00	8	Radiación solar	0
134065	7	Sololá	701	Sololá	2	El tablón	1	Enero	2023-01-30T00:00:00	2024-11-06T07:00:00	2	Temperatura media	8.9
134066	7	Sololá	701	Sololá	2	El tablón	1	Enero	2023-01-30T00:00:00	2024-11-06T07:00:00	4	Temperatura máxima	8.9
134067	7	Sololá	701	Sololá	2	El tablón	1	Enero	2023-01-30T00:00:00	2024-11-06T07:00:00	3	Temperatura mínima	8.2
134068	7	Sololá	701	Sololá	2	El tablón	1	Enero	2023-01-30T00:00:00	2024-11-06T07:00:00	5	Humedad	65
134069	7	Sololá	701	Sololá	2	El tablón	1	Enero	2023-01-30T00:00:00	2024-11-06T07:00:00	6	Velocidad del viento	4.8
134070	7	Sololá	701	Sololá	2	El tablón	1	Enero	2023-01-30T00:00:00	2024-11-06T07:00:00	7	Dirección del viento	4.83
134071	7	Sololá	701	Sololá	2	El tablón	1	Enero	2023-01-30T00:00:00	2024-11-06T07:00:00	1	Precipitación	0
134072	7	Sololá	701	Sololá	2	El tablón	1	Enero	2023-01-30T00:00:00	2024-11-06T07:00:00	8	Radiación solar	5
134073	7	Sololá	701	Sololá	2	El tablón	1	Enero	2023-01-30T00:00:00	2024-11-06T08:00:00	2	Temperatura media	11.6
134074	7	Sololá	701	Sololá	2	El tablón	1	Enero	2023-01-30T00:00:00	2024-11-06T08:00:00	4	Temperatura máxima	11.6
134075	7	Sololá	701	Sololá	2	El tablón	1	Enero	2023-01-30T00:00:00	2024-11-06T08:00:00	3	Temperatura mínima	8.9
134076	7	Sololá	701	Sololá	2	El tablón	1	Enero	2023-01-30T00:00:00	2024-11-06T08:00:00	5	Humedad	62
134077	7	Sololá	701	Sololá	2	El tablón	1	Enero	2023-01-30T00:00:00	2024-11-06T08:00:00	6	Velocidad del viento	1.6
134078	7	Sololá	701	Sololá	2	El tablón	1	Enero	2023-01-30T00:00:00	2024-11-06T08:00:00	7	Dirección del viento	1.61
134079	7	Sololá	701	Sololá	2	El tablón	1	Enero	2023-01-30T00:00:00	2024-11-06T08:00:00	1	Precipitación	0
134080	7	Sololá	701	Sololá	2	El tablón	1	Enero	2023-01-30T00:00:00	2024-11-06T08:00:00	8	Radiación solar	120
134081	7	Sololá	701	Sololá	2	El tablón	1	Enero	2023-01-30T00:00:00	2024-11-06T09:00:00	2	Temperatura media	15.1
134082	7	Sololá	701	Sololá	2	El tablón	1	Enero	2023-01-30T00:00:00	2024-11-06T09:00:00	4	Temperatura máxima	15.1
134083	7	Sololá	701	Sololá	2	El tablón	1	Enero	2023-01-30T00:00:00	2024-11-06T09:00:00	3	Temperatura mínima	11.6
134084	7	Sololá	701	Sololá	2	El tablón	1	Enero	2023-01-30T00:00:00	2024-11-06T09:00:00	5	Humedad	53
134085	7	Sololá	701	Sololá	2	El tablón	1	Enero	2023-01-30T00:00:00	2024-11-06T09:00:00	6	Velocidad del viento	1.6
134086	7	Sololá	701	Sololá	2	El tablón	1	Enero	2023-01-30T00:00:00	2024-11-06T09:00:00	7	Dirección del viento	1.61
134087	7	Sololá	701	Sololá	2	El tablón	1	Enero	2023-01-30T00:00:00	2024-11-06T09:00:00	1	Precipitación	0
134088	7	Sololá	701	Sololá	2	El tablón	1	Enero	2023-01-30T00:00:00	2024-11-06T09:00:00	8	Radiación solar	344
134089	7	Sololá	701	Sololá	2	El tablón	1	Enero	2023-01-30T00:00:00	2024-11-06T10:00:00	2	Temperatura media	17.8
134090	7	Sololá	701	Sololá	2	El tablón	1	Enero	2023-01-30T00:00:00	2024-11-06T10:00:00	4	Temperatura máxima	17.8
134091	7	Sololá	701	Sololá	2	El tablón	1	Enero	2023-01-30T00:00:00	2024-11-06T10:00:00	3	Temperatura mínima	15.1
134092	7	Sololá	701	Sololá	2	El tablón	1	Enero	2023-01-30T00:00:00	2024-11-06T10:00:00	5	Humedad	45
134093	7	Sololá	701	Sololá	2	El tablón	1	Enero	2023-01-30T00:00:00	2024-11-06T10:00:00	6	Velocidad del viento	3.2
134094	7	Sololá	701	Sololá	2	El tablón	1	Enero	2023-01-30T00:00:00	2024-11-06T10:00:00	7	Dirección del viento	3.22
134095	7	Sololá	701	Sololá	2	El tablón	1	Enero	2023-01-30T00:00:00	2024-11-06T10:00:00	1	Precipitación	0
134096	7	Sololá	701	Sololá	2	El tablón	1	Enero	2023-01-30T00:00:00	2024-11-06T10:00:00	8	Radiación solar	549
134097	7	Sololá	701	Sololá	2	El tablón	1	Enero	2023-01-30T00:00:00	2024-11-06T11:00:00	2	Temperatura media	19.2
134098	7	Sololá	701	Sololá	2	El tablón	1	Enero	2023-01-30T00:00:00	2024-11-06T11:00:00	4	Temperatura máxima	19.2
134099	7	Sololá	701	Sololá	2	El tablón	1	Enero	2023-01-30T00:00:00	2024-11-06T11:00:00	3	Temperatura mínima	17.4
134100	7	Sololá	701	Sololá	2	El tablón	1	Enero	2023-01-30T00:00:00	2024-11-06T11:00:00	5	Humedad	33
134101	7	Sololá	701	Sololá	2	El tablón	1	Enero	2023-01-30T00:00:00	2024-11-06T11:00:00	6	Velocidad del viento	9.7
134102	7	Sololá	701	Sololá	2	El tablón	1	Enero	2023-01-30T00:00:00	2024-11-06T11:00:00	7	Dirección del viento	9.66
134103	7	Sololá	701	Sololá	2	El tablón	1	Enero	2023-01-30T00:00:00	2024-11-06T11:00:00	1	Precipitación	0
134104	7	Sololá	701	Sololá	2	El tablón	1	Enero	2023-01-30T00:00:00	2024-11-06T11:00:00	8	Radiación solar	709
134105	7	Sololá	701	Sololá	2	El tablón	1	Enero	2023-01-30T00:00:00	2024-11-06T12:00:00	2	Temperatura media	19.8
134106	7	Sololá	701	Sololá	2	El tablón	1	Enero	2023-01-30T00:00:00	2024-11-06T12:00:00	4	Temperatura máxima	19.9
134107	7	Sololá	701	Sololá	2	El tablón	1	Enero	2023-01-30T00:00:00	2024-11-06T12:00:00	3	Temperatura mínima	18.8
134108	7	Sololá	701	Sololá	2	El tablón	1	Enero	2023-01-30T00:00:00	2024-11-06T12:00:00	5	Humedad	26
134109	7	Sololá	701	Sololá	2	El tablón	1	Enero	2023-01-30T00:00:00	2024-11-06T12:00:00	6	Velocidad del viento	12.9
134110	7	Sololá	701	Sololá	2	El tablón	1	Enero	2023-01-30T00:00:00	2024-11-06T12:00:00	7	Dirección del viento	12.87
134111	7	Sololá	701	Sololá	2	El tablón	1	Enero	2023-01-30T00:00:00	2024-11-06T12:00:00	1	Precipitación	0
134112	7	Sololá	701	Sololá	2	El tablón	1	Enero	2023-01-30T00:00:00	2024-11-06T12:00:00	8	Radiación solar	709
134113	7	Sololá	701	Sololá	2	El tablón	1	Enero	2023-01-30T00:00:00	2024-11-06T13:00:00	2	Temperatura media	20.6
134114	7	Sololá	701	Sololá	2	El tablón	1	Enero	2023-01-30T00:00:00	2024-11-06T13:00:00	4	Temperatura máxima	20.6
134115	7	Sololá	701	Sololá	2	El tablón	1	Enero	2023-01-30T00:00:00	2024-11-06T13:00:00	3	Temperatura mínima	19.5
134116	7	Sololá	701	Sololá	2	El tablón	1	Enero	2023-01-30T00:00:00	2024-11-06T13:00:00	5	Humedad	26
134117	7	Sololá	701	Sololá	2	El tablón	1	Enero	2023-01-30T00:00:00	2024-11-06T13:00:00	6	Velocidad del viento	11.3
134118	7	Sololá	701	Sololá	2	El tablón	1	Enero	2023-01-30T00:00:00	2024-11-06T13:00:00	7	Dirección del viento	11.27
134119	7	Sololá	701	Sololá	2	El tablón	1	Enero	2023-01-30T00:00:00	2024-11-06T13:00:00	1	Precipitación	0
134120	7	Sololá	701	Sololá	2	El tablón	1	Enero	2023-01-30T00:00:00	2024-11-06T13:00:00	8	Radiación solar	824
134121	7	Sololá	701	Sololá	2	El tablón	1	Enero	2023-01-30T00:00:00	2024-11-06T14:00:00	2	Temperatura media	19.9
134122	7	Sololá	701	Sololá	2	El tablón	1	Enero	2023-01-30T00:00:00	2024-11-06T14:00:00	4	Temperatura máxima	21.1
134123	7	Sololá	701	Sololá	2	El tablón	1	Enero	2023-01-30T00:00:00	2024-11-06T14:00:00	3	Temperatura mínima	19.3
134124	7	Sololá	701	Sololá	2	El tablón	1	Enero	2023-01-30T00:00:00	2024-11-06T14:00:00	5	Humedad	47
134125	7	Sololá	701	Sololá	2	El tablón	1	Enero	2023-01-30T00:00:00	2024-11-06T14:00:00	6	Velocidad del viento	8
134126	7	Sololá	701	Sololá	2	El tablón	1	Enero	2023-01-30T00:00:00	2024-11-06T14:00:00	7	Dirección del viento	8.05
134127	7	Sololá	701	Sololá	2	El tablón	1	Enero	2023-01-30T00:00:00	2024-11-06T14:00:00	1	Precipitación	0
134128	7	Sololá	701	Sololá	2	El tablón	1	Enero	2023-01-30T00:00:00	2024-11-06T14:00:00	8	Radiación solar	786
134129	7	Sololá	701	Sololá	2	El tablón	1	Enero	2023-01-30T00:00:00	2024-11-06T15:00:00	2	Temperatura media	17.8
134130	7	Sololá	701	Sololá	2	El tablón	1	Enero	2023-01-30T00:00:00	2024-11-06T15:00:00	4	Temperatura máxima	20.2
134131	7	Sololá	701	Sololá	2	El tablón	1	Enero	2023-01-30T00:00:00	2024-11-06T15:00:00	3	Temperatura mínima	17.8
134132	7	Sololá	701	Sololá	2	El tablón	1	Enero	2023-01-30T00:00:00	2024-11-06T15:00:00	5	Humedad	68
134133	7	Sololá	701	Sololá	2	El tablón	1	Enero	2023-01-30T00:00:00	2024-11-06T15:00:00	6	Velocidad del viento	9.7
134134	7	Sololá	701	Sololá	2	El tablón	1	Enero	2023-01-30T00:00:00	2024-11-06T15:00:00	7	Dirección del viento	9.66
134135	7	Sololá	701	Sololá	2	El tablón	1	Enero	2023-01-30T00:00:00	2024-11-06T15:00:00	1	Precipitación	0
134136	7	Sololá	701	Sololá	2	El tablón	1	Enero	2023-01-30T00:00:00	2024-11-06T15:00:00	8	Radiación solar	667
134137	7	Sololá	701	Sololá	2	El tablón	1	Enero	2023-01-30T00:00:00	2024-11-06T16:00:00	2	Temperatura media	17.1
134138	7	Sololá	701	Sololá	2	El tablón	1	Enero	2023-01-30T00:00:00	2024-11-06T16:00:00	4	Temperatura máxima	18
134139	7	Sololá	701	Sololá	2	El tablón	1	Enero	2023-01-30T00:00:00	2024-11-06T16:00:00	3	Temperatura mínima	16.8
134140	7	Sololá	701	Sololá	2	El tablón	1	Enero	2023-01-30T00:00:00	2024-11-06T16:00:00	5	Humedad	73
134141	7	Sololá	701	Sololá	2	El tablón	1	Enero	2023-01-30T00:00:00	2024-11-06T16:00:00	6	Velocidad del viento	9.7
134142	7	Sololá	701	Sololá	2	El tablón	1	Enero	2023-01-30T00:00:00	2024-11-06T16:00:00	7	Dirección del viento	9.66
134143	7	Sololá	701	Sololá	2	El tablón	1	Enero	2023-01-30T00:00:00	2024-11-06T16:00:00	1	Precipitación	0
134144	7	Sololá	701	Sololá	2	El tablón	1	Enero	2023-01-30T00:00:00	2024-11-06T16:00:00	8	Radiación solar	501
134145	7	Sololá	701	Sololá	2	El tablón	1	Enero	2023-01-30T00:00:00	2024-11-06T17:00:00	2	Temperatura media	16.6
134146	7	Sololá	701	Sololá	2	El tablón	1	Enero	2023-01-30T00:00:00	2024-11-06T17:00:00	4	Temperatura máxima	17.1
134147	7	Sololá	701	Sololá	2	El tablón	1	Enero	2023-01-30T00:00:00	2024-11-06T17:00:00	3	Temperatura mínima	16.5
134148	7	Sololá	701	Sololá	2	El tablón	1	Enero	2023-01-30T00:00:00	2024-11-06T17:00:00	5	Humedad	74
134149	7	Sololá	701	Sololá	2	El tablón	1	Enero	2023-01-30T00:00:00	2024-11-06T17:00:00	6	Velocidad del viento	6.4
134150	7	Sololá	701	Sololá	2	El tablón	1	Enero	2023-01-30T00:00:00	2024-11-06T17:00:00	7	Dirección del viento	6.44
134151	7	Sololá	701	Sololá	2	El tablón	1	Enero	2023-01-30T00:00:00	2024-11-06T17:00:00	1	Precipitación	0
134152	7	Sololá	701	Sololá	2	El tablón	1	Enero	2023-01-30T00:00:00	2024-11-06T17:00:00	8	Radiación solar	291
134153	7	Sololá	701	Sololá	2	El tablón	1	Enero	2023-01-30T00:00:00	2024-11-06T18:00:00	2	Temperatura media	14.7
134154	7	Sololá	701	Sololá	2	El tablón	1	Enero	2023-01-30T00:00:00	2024-11-06T18:00:00	4	Temperatura máxima	16.6
134155	7	Sololá	701	Sololá	2	El tablón	1	Enero	2023-01-30T00:00:00	2024-11-06T18:00:00	3	Temperatura mínima	14.7
134156	7	Sololá	701	Sololá	2	El tablón	1	Enero	2023-01-30T00:00:00	2024-11-06T18:00:00	5	Humedad	74
134157	7	Sololá	701	Sololá	2	El tablón	1	Enero	2023-01-30T00:00:00	2024-11-06T18:00:00	6	Velocidad del viento	4.8
134158	7	Sololá	701	Sololá	2	El tablón	1	Enero	2023-01-30T00:00:00	2024-11-06T18:00:00	7	Dirección del viento	4.83
134159	7	Sololá	701	Sololá	2	El tablón	1	Enero	2023-01-30T00:00:00	2024-11-06T18:00:00	1	Precipitación	0
134160	7	Sololá	701	Sololá	2	El tablón	1	Enero	2023-01-30T00:00:00	2024-11-06T18:00:00	8	Radiación solar	70
134161	7	Sololá	701	Sololá	2	El tablón	1	Enero	2023-01-30T00:00:00	2024-11-06T19:00:00	2	Temperatura media	13.7
134162	7	Sololá	701	Sololá	2	El tablón	1	Enero	2023-01-30T00:00:00	2024-11-06T19:00:00	4	Temperatura máxima	14.7
134163	7	Sololá	701	Sololá	2	El tablón	1	Enero	2023-01-30T00:00:00	2024-11-06T19:00:00	3	Temperatura mínima	13.7
134164	7	Sololá	701	Sololá	2	El tablón	1	Enero	2023-01-30T00:00:00	2024-11-06T19:00:00	5	Humedad	69
134165	7	Sololá	701	Sololá	2	El tablón	1	Enero	2023-01-30T00:00:00	2024-11-06T19:00:00	6	Velocidad del viento	3.2
134166	7	Sololá	701	Sololá	2	El tablón	1	Enero	2023-01-30T00:00:00	2024-11-06T19:00:00	7	Dirección del viento	3.22
134167	7	Sololá	701	Sololá	2	El tablón	1	Enero	2023-01-30T00:00:00	2024-11-06T19:00:00	1	Precipitación	0
134168	7	Sololá	701	Sololá	2	El tablón	1	Enero	2023-01-30T00:00:00	2024-11-06T19:00:00	8	Radiación solar	0
134169	7	Sololá	701	Sololá	2	El tablón	1	Enero	2023-01-30T00:00:00	2024-11-06T20:00:00	2	Temperatura media	12.3
134170	7	Sololá	701	Sololá	2	El tablón	1	Enero	2023-01-30T00:00:00	2024-11-06T20:00:00	4	Temperatura máxima	13.7
134171	7	Sololá	701	Sololá	2	El tablón	1	Enero	2023-01-30T00:00:00	2024-11-06T20:00:00	3	Temperatura mínima	12.3
134172	7	Sololá	701	Sololá	2	El tablón	1	Enero	2023-01-30T00:00:00	2024-11-06T20:00:00	5	Humedad	82
134173	7	Sololá	701	Sololá	2	El tablón	1	Enero	2023-01-30T00:00:00	2024-11-06T20:00:00	6	Velocidad del viento	4.8
134174	7	Sololá	701	Sololá	2	El tablón	1	Enero	2023-01-30T00:00:00	2024-11-06T20:00:00	7	Dirección del viento	4.83
134175	7	Sololá	701	Sololá	2	El tablón	1	Enero	2023-01-30T00:00:00	2024-11-06T20:00:00	1	Precipitación	0
134176	7	Sololá	701	Sololá	2	El tablón	1	Enero	2023-01-30T00:00:00	2024-11-06T20:00:00	8	Radiación solar	0
134177	7	Sololá	701	Sololá	2	El tablón	1	Enero	2023-01-30T00:00:00	2024-11-06T21:00:00	2	Temperatura media	11.9
134178	7	Sololá	701	Sololá	2	El tablón	1	Enero	2023-01-30T00:00:00	2024-11-06T21:00:00	4	Temperatura máxima	12.3
134179	7	Sololá	701	Sololá	2	El tablón	1	Enero	2023-01-30T00:00:00	2024-11-06T21:00:00	3	Temperatura mínima	11.9
134180	7	Sololá	701	Sololá	2	El tablón	1	Enero	2023-01-30T00:00:00	2024-11-06T21:00:00	5	Humedad	85
134181	7	Sololá	701	Sololá	2	El tablón	1	Enero	2023-01-30T00:00:00	2024-11-06T21:00:00	6	Velocidad del viento	12.9
134182	7	Sololá	701	Sololá	2	El tablón	1	Enero	2023-01-30T00:00:00	2024-11-06T21:00:00	7	Dirección del viento	12.87
134183	7	Sololá	701	Sololá	2	El tablón	1	Enero	2023-01-30T00:00:00	2024-11-06T21:00:00	1	Precipitación	0
134184	7	Sololá	701	Sololá	2	El tablón	1	Enero	2023-01-30T00:00:00	2024-11-06T21:00:00	8	Radiación solar	0
134185	7	Sololá	701	Sololá	2	El tablón	1	Enero	2023-01-30T00:00:00	2024-11-06T22:00:00	2	Temperatura media	11.6
134186	7	Sololá	701	Sololá	2	El tablón	1	Enero	2023-01-30T00:00:00	2024-11-06T22:00:00	4	Temperatura máxima	11.9
134187	7	Sololá	701	Sololá	2	El tablón	1	Enero	2023-01-30T00:00:00	2024-11-06T22:00:00	3	Temperatura mínima	11.6
134188	7	Sololá	701	Sololá	2	El tablón	1	Enero	2023-01-30T00:00:00	2024-11-06T22:00:00	5	Humedad	81
134189	7	Sololá	701	Sololá	2	El tablón	1	Enero	2023-01-30T00:00:00	2024-11-06T22:00:00	6	Velocidad del viento	11.3
134190	7	Sololá	701	Sololá	2	El tablón	1	Enero	2023-01-30T00:00:00	2024-11-06T22:00:00	7	Dirección del viento	11.27
134191	7	Sololá	701	Sololá	2	El tablón	1	Enero	2023-01-30T00:00:00	2024-11-06T22:00:00	1	Precipitación	0
134192	7	Sololá	701	Sololá	2	El tablón	1	Enero	2023-01-30T00:00:00	2024-11-06T22:00:00	8	Radiación solar	0
134193	7	Sololá	701	Sololá	2	El tablón	1	Enero	2023-01-30T00:00:00	2024-11-06T23:00:00	2	Temperatura media	10.8
134194	7	Sololá	701	Sololá	2	El tablón	1	Enero	2023-01-30T00:00:00	2024-11-06T23:00:00	4	Temperatura máxima	11.6
134195	7	Sololá	701	Sololá	2	El tablón	1	Enero	2023-01-30T00:00:00	2024-11-06T23:00:00	3	Temperatura mínima	10.7
134196	7	Sololá	701	Sololá	2	El tablón	1	Enero	2023-01-30T00:00:00	2024-11-06T23:00:00	5	Humedad	84
134197	7	Sololá	701	Sololá	2	El tablón	1	Enero	2023-01-30T00:00:00	2024-11-06T23:00:00	6	Velocidad del viento	12.9
134198	7	Sololá	701	Sololá	2	El tablón	1	Enero	2023-01-30T00:00:00	2024-11-06T23:00:00	7	Dirección del viento	12.87
134199	7	Sololá	701	Sololá	2	El tablón	1	Enero	2023-01-30T00:00:00	2024-11-06T23:00:00	1	Precipitación	0
134200	7	Sololá	701	Sololá	2	El tablón	1	Enero	2023-01-30T00:00:00	2024-11-06T23:00:00	8	Radiación solar	0
134201	7	Sololá	701	Sololá	2	El tablón	1	Enero	2023-01-31T00:00:00	2024-11-06T00:00:00	2	Temperatura media	10.2
134202	7	Sololá	701	Sololá	2	El tablón	1	Enero	2023-01-31T00:00:00	2024-11-06T00:00:00	4	Temperatura máxima	10.8
134203	7	Sololá	701	Sololá	2	El tablón	1	Enero	2023-01-31T00:00:00	2024-11-06T00:00:00	3	Temperatura mínima	10.2
134204	7	Sololá	701	Sololá	2	El tablón	1	Enero	2023-01-31T00:00:00	2024-11-06T00:00:00	5	Humedad	83
134205	7	Sololá	701	Sololá	2	El tablón	1	Enero	2023-01-31T00:00:00	2024-11-06T00:00:00	6	Velocidad del viento	12.9
134206	7	Sololá	701	Sololá	2	El tablón	1	Enero	2023-01-31T00:00:00	2024-11-06T00:00:00	7	Dirección del viento	12.87
134207	7	Sololá	701	Sololá	2	El tablón	1	Enero	2023-01-31T00:00:00	2024-11-06T00:00:00	1	Precipitación	0
134208	7	Sololá	701	Sololá	2	El tablón	1	Enero	2023-01-31T00:00:00	2024-11-06T00:00:00	8	Radiación solar	0
134209	7	Sololá	701	Sololá	2	El tablón	1	Enero	2023-01-31T00:00:00	2024-11-06T01:00:00	2	Temperatura media	9.6
134210	7	Sololá	701	Sololá	2	El tablón	1	Enero	2023-01-31T00:00:00	2024-11-06T01:00:00	4	Temperatura máxima	10.2
134211	7	Sololá	701	Sololá	2	El tablón	1	Enero	2023-01-31T00:00:00	2024-11-06T01:00:00	3	Temperatura mínima	9.5
134212	7	Sololá	701	Sololá	2	El tablón	1	Enero	2023-01-31T00:00:00	2024-11-06T01:00:00	5	Humedad	85
134213	7	Sololá	701	Sololá	2	El tablón	1	Enero	2023-01-31T00:00:00	2024-11-06T01:00:00	6	Velocidad del viento	11.3
134214	7	Sololá	701	Sololá	2	El tablón	1	Enero	2023-01-31T00:00:00	2024-11-06T01:00:00	7	Dirección del viento	11.27
134215	7	Sololá	701	Sololá	2	El tablón	1	Enero	2023-01-31T00:00:00	2024-11-06T01:00:00	1	Precipitación	0
134216	7	Sololá	701	Sololá	2	El tablón	1	Enero	2023-01-31T00:00:00	2024-11-06T01:00:00	8	Radiación solar	0
134217	7	Sololá	701	Sololá	2	El tablón	1	Enero	2023-01-31T00:00:00	2024-11-06T02:00:00	2	Temperatura media	9
134218	7	Sololá	701	Sololá	2	El tablón	1	Enero	2023-01-31T00:00:00	2024-11-06T02:00:00	4	Temperatura máxima	9.6
134219	7	Sololá	701	Sololá	2	El tablón	1	Enero	2023-01-31T00:00:00	2024-11-06T02:00:00	3	Temperatura mínima	9
134220	7	Sololá	701	Sololá	2	El tablón	1	Enero	2023-01-31T00:00:00	2024-11-06T02:00:00	5	Humedad	81
134221	7	Sololá	701	Sololá	2	El tablón	1	Enero	2023-01-31T00:00:00	2024-11-06T02:00:00	6	Velocidad del viento	6.4
134222	7	Sololá	701	Sololá	2	El tablón	1	Enero	2023-01-31T00:00:00	2024-11-06T02:00:00	7	Dirección del viento	6.44
134223	7	Sololá	701	Sololá	2	El tablón	1	Enero	2023-01-31T00:00:00	2024-11-06T02:00:00	1	Precipitación	0
134224	7	Sololá	701	Sololá	2	El tablón	1	Enero	2023-01-31T00:00:00	2024-11-06T02:00:00	8	Radiación solar	0
134225	7	Sololá	701	Sololá	2	El tablón	1	Enero	2023-01-31T00:00:00	2024-11-06T03:00:00	2	Temperatura media	9.9
134226	7	Sololá	701	Sololá	2	El tablón	1	Enero	2023-01-31T00:00:00	2024-11-06T03:00:00	4	Temperatura máxima	9.9
134227	7	Sololá	701	Sololá	2	El tablón	1	Enero	2023-01-31T00:00:00	2024-11-06T03:00:00	3	Temperatura mínima	9
134228	7	Sololá	701	Sololá	2	El tablón	1	Enero	2023-01-31T00:00:00	2024-11-06T03:00:00	5	Humedad	77
134229	7	Sololá	701	Sololá	2	El tablón	1	Enero	2023-01-31T00:00:00	2024-11-06T03:00:00	6	Velocidad del viento	6.4
134230	7	Sololá	701	Sololá	2	El tablón	1	Enero	2023-01-31T00:00:00	2024-11-06T03:00:00	7	Dirección del viento	6.44
134231	7	Sololá	701	Sololá	2	El tablón	1	Enero	2023-01-31T00:00:00	2024-11-06T03:00:00	1	Precipitación	0
134232	7	Sololá	701	Sololá	2	El tablón	1	Enero	2023-01-31T00:00:00	2024-11-06T03:00:00	8	Radiación solar	0
134233	7	Sololá	701	Sololá	2	El tablón	1	Enero	2023-01-31T00:00:00	2024-11-06T04:00:00	2	Temperatura media	9.6
134234	7	Sololá	701	Sololá	2	El tablón	1	Enero	2023-01-31T00:00:00	2024-11-06T04:00:00	4	Temperatura máxima	9.9
134235	7	Sololá	701	Sololá	2	El tablón	1	Enero	2023-01-31T00:00:00	2024-11-06T04:00:00	3	Temperatura mínima	9.6
134236	7	Sololá	701	Sololá	2	El tablón	1	Enero	2023-01-31T00:00:00	2024-11-06T04:00:00	5	Humedad	81
134237	7	Sololá	701	Sololá	2	El tablón	1	Enero	2023-01-31T00:00:00	2024-11-06T04:00:00	6	Velocidad del viento	4.8
134238	7	Sololá	701	Sololá	2	El tablón	1	Enero	2023-01-31T00:00:00	2024-11-06T04:00:00	7	Dirección del viento	4.83
134239	7	Sololá	701	Sololá	2	El tablón	1	Enero	2023-01-31T00:00:00	2024-11-06T04:00:00	1	Precipitación	0
134240	7	Sololá	701	Sololá	2	El tablón	1	Enero	2023-01-31T00:00:00	2024-11-06T04:00:00	8	Radiación solar	0
134241	7	Sololá	701	Sololá	2	El tablón	1	Enero	2023-01-31T00:00:00	2024-11-06T05:00:00	2	Temperatura media	9.4
134242	7	Sololá	701	Sololá	2	El tablón	1	Enero	2023-01-31T00:00:00	2024-11-06T05:00:00	4	Temperatura máxima	9.6
134243	7	Sololá	701	Sololá	2	El tablón	1	Enero	2023-01-31T00:00:00	2024-11-06T05:00:00	3	Temperatura mínima	9.4
134244	7	Sololá	701	Sololá	2	El tablón	1	Enero	2023-01-31T00:00:00	2024-11-06T05:00:00	5	Humedad	84
134245	7	Sololá	701	Sololá	2	El tablón	1	Enero	2023-01-31T00:00:00	2024-11-06T05:00:00	6	Velocidad del viento	4.8
134246	7	Sololá	701	Sololá	2	El tablón	1	Enero	2023-01-31T00:00:00	2024-11-06T05:00:00	7	Dirección del viento	4.83
134247	7	Sololá	701	Sololá	2	El tablón	1	Enero	2023-01-31T00:00:00	2024-11-06T05:00:00	1	Precipitación	0
134248	7	Sololá	701	Sololá	2	El tablón	1	Enero	2023-01-31T00:00:00	2024-11-06T05:00:00	8	Radiación solar	0
134249	7	Sololá	701	Sololá	2	El tablón	1	Enero	2023-01-31T00:00:00	2024-11-06T06:00:00	2	Temperatura media	8.7
134250	7	Sololá	701	Sololá	2	El tablón	1	Enero	2023-01-31T00:00:00	2024-11-06T06:00:00	4	Temperatura máxima	9.6
134251	7	Sololá	701	Sololá	2	El tablón	1	Enero	2023-01-31T00:00:00	2024-11-06T06:00:00	3	Temperatura mínima	8.7
134252	7	Sololá	701	Sololá	2	El tablón	1	Enero	2023-01-31T00:00:00	2024-11-06T06:00:00	5	Humedad	85
134253	7	Sololá	701	Sololá	2	El tablón	1	Enero	2023-01-31T00:00:00	2024-11-06T06:00:00	6	Velocidad del viento	4.8
134254	7	Sololá	701	Sololá	2	El tablón	1	Enero	2023-01-31T00:00:00	2024-11-06T06:00:00	7	Dirección del viento	4.83
134255	7	Sololá	701	Sololá	2	El tablón	1	Enero	2023-01-31T00:00:00	2024-11-06T06:00:00	1	Precipitación	0
134256	7	Sololá	701	Sololá	2	El tablón	1	Enero	2023-01-31T00:00:00	2024-11-06T06:00:00	8	Radiación solar	0
134257	7	Sololá	701	Sololá	2	El tablón	1	Enero	2023-01-31T00:00:00	2024-11-06T07:00:00	2	Temperatura media	9.3
134258	7	Sololá	701	Sololá	2	El tablón	1	Enero	2023-01-31T00:00:00	2024-11-06T07:00:00	4	Temperatura máxima	9.3
134259	7	Sololá	701	Sololá	2	El tablón	1	Enero	2023-01-31T00:00:00	2024-11-06T07:00:00	3	Temperatura mínima	8.6
134260	7	Sololá	701	Sololá	2	El tablón	1	Enero	2023-01-31T00:00:00	2024-11-06T07:00:00	5	Humedad	84
134261	7	Sololá	701	Sololá	2	El tablón	1	Enero	2023-01-31T00:00:00	2024-11-06T07:00:00	6	Velocidad del viento	3.2
134262	7	Sololá	701	Sololá	2	El tablón	1	Enero	2023-01-31T00:00:00	2024-11-06T07:00:00	7	Dirección del viento	3.22
134263	7	Sololá	701	Sololá	2	El tablón	1	Enero	2023-01-31T00:00:00	2024-11-06T07:00:00	1	Precipitación	0
134264	7	Sololá	701	Sololá	2	El tablón	1	Enero	2023-01-31T00:00:00	2024-11-06T07:00:00	8	Radiación solar	5
134265	7	Sololá	701	Sololá	2	El tablón	1	Enero	2023-01-31T00:00:00	2024-11-06T08:00:00	2	Temperatura media	11.2
134266	7	Sololá	701	Sololá	2	El tablón	1	Enero	2023-01-31T00:00:00	2024-11-06T08:00:00	4	Temperatura máxima	11.3
134267	7	Sololá	701	Sololá	2	El tablón	1	Enero	2023-01-31T00:00:00	2024-11-06T08:00:00	3	Temperatura mínima	9.4
134268	7	Sololá	701	Sololá	2	El tablón	1	Enero	2023-01-31T00:00:00	2024-11-06T08:00:00	5	Humedad	79
134269	7	Sololá	701	Sololá	2	El tablón	1	Enero	2023-01-31T00:00:00	2024-11-06T08:00:00	6	Velocidad del viento	6.4
134270	7	Sololá	701	Sololá	2	El tablón	1	Enero	2023-01-31T00:00:00	2024-11-06T08:00:00	7	Dirección del viento	6.44
134271	7	Sololá	701	Sololá	2	El tablón	1	Enero	2023-01-31T00:00:00	2024-11-06T08:00:00	1	Precipitación	0
134272	7	Sololá	701	Sololá	2	El tablón	1	Enero	2023-01-31T00:00:00	2024-11-06T08:00:00	8	Radiación solar	124
134273	7	Sololá	701	Sololá	2	El tablón	1	Enero	2023-01-31T00:00:00	2024-11-06T09:00:00	2	Temperatura media	13.4
134274	7	Sololá	701	Sololá	2	El tablón	1	Enero	2023-01-31T00:00:00	2024-11-06T09:00:00	4	Temperatura máxima	13.4
134275	7	Sololá	701	Sololá	2	El tablón	1	Enero	2023-01-31T00:00:00	2024-11-06T09:00:00	3	Temperatura mínima	11.2
134276	7	Sololá	701	Sololá	2	El tablón	1	Enero	2023-01-31T00:00:00	2024-11-06T09:00:00	5	Humedad	61
134277	7	Sololá	701	Sololá	2	El tablón	1	Enero	2023-01-31T00:00:00	2024-11-06T09:00:00	6	Velocidad del viento	8
134278	7	Sololá	701	Sololá	2	El tablón	1	Enero	2023-01-31T00:00:00	2024-11-06T09:00:00	7	Dirección del viento	8.05
134279	7	Sololá	701	Sololá	2	El tablón	1	Enero	2023-01-31T00:00:00	2024-11-06T09:00:00	1	Precipitación	0
134280	7	Sololá	701	Sololá	2	El tablón	1	Enero	2023-01-31T00:00:00	2024-11-06T09:00:00	8	Radiación solar	347
134281	7	Sololá	701	Sololá	2	El tablón	1	Enero	2023-01-31T00:00:00	2024-11-06T10:00:00	2	Temperatura media	15.3
134282	7	Sololá	701	Sololá	2	El tablón	1	Enero	2023-01-31T00:00:00	2024-11-06T10:00:00	4	Temperatura máxima	15.3
134283	7	Sololá	701	Sololá	2	El tablón	1	Enero	2023-01-31T00:00:00	2024-11-06T10:00:00	3	Temperatura mínima	13.5
134284	7	Sololá	701	Sololá	2	El tablón	1	Enero	2023-01-31T00:00:00	2024-11-06T10:00:00	5	Humedad	55
134285	7	Sololá	701	Sololá	2	El tablón	1	Enero	2023-01-31T00:00:00	2024-11-06T10:00:00	6	Velocidad del viento	11.3
134286	7	Sololá	701	Sololá	2	El tablón	1	Enero	2023-01-31T00:00:00	2024-11-06T10:00:00	7	Dirección del viento	11.27
134287	7	Sololá	701	Sololá	2	El tablón	1	Enero	2023-01-31T00:00:00	2024-11-06T10:00:00	1	Precipitación	0
134288	7	Sololá	701	Sololá	2	El tablón	1	Enero	2023-01-31T00:00:00	2024-11-06T10:00:00	8	Radiación solar	555
134289	7	Sololá	701	Sololá	2	El tablón	1	Enero	2023-01-31T00:00:00	2024-11-06T11:00:00	2	Temperatura media	17.4
134290	7	Sololá	701	Sololá	2	El tablón	1	Enero	2023-01-31T00:00:00	2024-11-06T11:00:00	4	Temperatura máxima	17.4
134291	7	Sololá	701	Sololá	2	El tablón	1	Enero	2023-01-31T00:00:00	2024-11-06T11:00:00	3	Temperatura mínima	15.3
134292	7	Sololá	701	Sololá	2	El tablón	1	Enero	2023-01-31T00:00:00	2024-11-06T11:00:00	5	Humedad	47
134293	7	Sololá	701	Sololá	2	El tablón	1	Enero	2023-01-31T00:00:00	2024-11-06T11:00:00	6	Velocidad del viento	9.7
134294	7	Sololá	701	Sololá	2	El tablón	1	Enero	2023-01-31T00:00:00	2024-11-06T11:00:00	7	Dirección del viento	9.66
134295	7	Sololá	701	Sololá	2	El tablón	1	Enero	2023-01-31T00:00:00	2024-11-06T11:00:00	1	Precipitación	0
134296	7	Sololá	701	Sololá	2	El tablón	1	Enero	2023-01-31T00:00:00	2024-11-06T11:00:00	8	Radiación solar	702
134297	7	Sololá	701	Sololá	2	El tablón	1	Enero	2023-01-31T00:00:00	2024-11-06T12:00:00	2	Temperatura media	19.6
134298	7	Sololá	701	Sololá	2	El tablón	1	Enero	2023-01-31T00:00:00	2024-11-06T12:00:00	4	Temperatura máxima	19.6
134299	7	Sololá	701	Sololá	2	El tablón	1	Enero	2023-01-31T00:00:00	2024-11-06T12:00:00	3	Temperatura mínima	17.4
134300	7	Sololá	701	Sololá	2	El tablón	1	Enero	2023-01-31T00:00:00	2024-11-06T12:00:00	5	Humedad	35
134301	7	Sololá	701	Sololá	2	El tablón	1	Enero	2023-01-31T00:00:00	2024-11-06T12:00:00	6	Velocidad del viento	9.7
134302	7	Sololá	701	Sololá	2	El tablón	1	Enero	2023-01-31T00:00:00	2024-11-06T12:00:00	7	Dirección del viento	9.66
134303	7	Sololá	701	Sololá	2	El tablón	1	Enero	2023-01-31T00:00:00	2024-11-06T12:00:00	1	Precipitación	0
134304	7	Sololá	701	Sololá	2	El tablón	1	Enero	2023-01-31T00:00:00	2024-11-06T12:00:00	8	Radiación solar	703
134305	7	Sololá	701	Sololá	2	El tablón	1	Enero	2023-01-31T00:00:00	2024-11-06T13:00:00	2	Temperatura media	20.3
134306	7	Sololá	701	Sololá	2	El tablón	1	Enero	2023-01-31T00:00:00	2024-11-06T13:00:00	4	Temperatura máxima	20.6
134307	7	Sololá	701	Sololá	2	El tablón	1	Enero	2023-01-31T00:00:00	2024-11-06T13:00:00	3	Temperatura mínima	19.5
134308	7	Sololá	701	Sololá	2	El tablón	1	Enero	2023-01-31T00:00:00	2024-11-06T13:00:00	5	Humedad	39
134309	7	Sololá	701	Sololá	2	El tablón	1	Enero	2023-01-31T00:00:00	2024-11-06T13:00:00	6	Velocidad del viento	9.7
134310	7	Sololá	701	Sololá	2	El tablón	1	Enero	2023-01-31T00:00:00	2024-11-06T13:00:00	7	Dirección del viento	9.66
134311	7	Sololá	701	Sololá	2	El tablón	1	Enero	2023-01-31T00:00:00	2024-11-06T13:00:00	1	Precipitación	0
134312	7	Sololá	701	Sololá	2	El tablón	1	Enero	2023-01-31T00:00:00	2024-11-06T13:00:00	8	Radiación solar	819
134313	7	Sololá	701	Sololá	2	El tablón	1	Enero	2023-01-31T00:00:00	2024-11-06T14:00:00	2	Temperatura media	20.1
134314	7	Sololá	701	Sololá	2	El tablón	1	Enero	2023-01-31T00:00:00	2024-11-06T14:00:00	4	Temperatura máxima	20.3
134315	7	Sololá	701	Sololá	2	El tablón	1	Enero	2023-01-31T00:00:00	2024-11-06T14:00:00	3	Temperatura mínima	19.8
134316	7	Sololá	701	Sololá	2	El tablón	1	Enero	2023-01-31T00:00:00	2024-11-06T14:00:00	5	Humedad	39
134317	7	Sololá	701	Sololá	2	El tablón	1	Enero	2023-01-31T00:00:00	2024-11-06T14:00:00	6	Velocidad del viento	9.7
134318	7	Sololá	701	Sololá	2	El tablón	1	Enero	2023-01-31T00:00:00	2024-11-06T14:00:00	7	Dirección del viento	9.66
134319	7	Sololá	701	Sololá	2	El tablón	1	Enero	2023-01-31T00:00:00	2024-11-06T14:00:00	1	Precipitación	0
134320	7	Sololá	701	Sololá	2	El tablón	1	Enero	2023-01-31T00:00:00	2024-11-06T14:00:00	8	Radiación solar	790
134321	7	Sololá	701	Sololá	2	El tablón	1	Enero	2023-01-31T00:00:00	2024-11-06T15:00:00	2	Temperatura media	19.8
134322	7	Sololá	701	Sololá	2	El tablón	1	Enero	2023-01-31T00:00:00	2024-11-06T15:00:00	4	Temperatura máxima	20.6
134323	7	Sololá	701	Sololá	2	El tablón	1	Enero	2023-01-31T00:00:00	2024-11-06T15:00:00	3	Temperatura mínima	19.8
134324	7	Sololá	701	Sololá	2	El tablón	1	Enero	2023-01-31T00:00:00	2024-11-06T15:00:00	5	Humedad	44
134325	7	Sololá	701	Sololá	2	El tablón	1	Enero	2023-01-31T00:00:00	2024-11-06T15:00:00	6	Velocidad del viento	8
134326	7	Sololá	701	Sololá	2	El tablón	1	Enero	2023-01-31T00:00:00	2024-11-06T15:00:00	7	Dirección del viento	8.05
134327	7	Sololá	701	Sololá	2	El tablón	1	Enero	2023-01-31T00:00:00	2024-11-06T15:00:00	1	Precipitación	0
134328	7	Sololá	701	Sololá	2	El tablón	1	Enero	2023-01-31T00:00:00	2024-11-06T15:00:00	8	Radiación solar	683
134329	7	Sololá	701	Sololá	2	El tablón	1	Enero	2023-01-31T00:00:00	2024-11-06T16:00:00	2	Temperatura media	17.8
134330	7	Sololá	701	Sololá	2	El tablón	1	Enero	2023-01-31T00:00:00	2024-11-06T16:00:00	4	Temperatura máxima	19.8
134331	7	Sololá	701	Sololá	2	El tablón	1	Enero	2023-01-31T00:00:00	2024-11-06T16:00:00	3	Temperatura mínima	17.7
134332	7	Sololá	701	Sololá	2	El tablón	1	Enero	2023-01-31T00:00:00	2024-11-06T16:00:00	5	Humedad	66
134333	7	Sololá	701	Sololá	2	El tablón	1	Enero	2023-01-31T00:00:00	2024-11-06T16:00:00	6	Velocidad del viento	9.7
134334	7	Sololá	701	Sololá	2	El tablón	1	Enero	2023-01-31T00:00:00	2024-11-06T16:00:00	7	Dirección del viento	9.66
134335	7	Sololá	701	Sololá	2	El tablón	1	Enero	2023-01-31T00:00:00	2024-11-06T16:00:00	1	Precipitación	0
134336	7	Sololá	701	Sololá	2	El tablón	1	Enero	2023-01-31T00:00:00	2024-11-06T16:00:00	8	Radiación solar	505
134337	7	Sololá	701	Sololá	2	El tablón	1	Enero	2023-01-31T00:00:00	2024-11-06T17:00:00	2	Temperatura media	17.7
134338	7	Sololá	701	Sololá	2	El tablón	1	Enero	2023-01-31T00:00:00	2024-11-06T17:00:00	4	Temperatura máxima	18.3
134339	7	Sololá	701	Sololá	2	El tablón	1	Enero	2023-01-31T00:00:00	2024-11-06T17:00:00	3	Temperatura mínima	17.6
134340	7	Sololá	701	Sololá	2	El tablón	1	Enero	2023-01-31T00:00:00	2024-11-06T17:00:00	5	Humedad	41
134341	7	Sololá	701	Sololá	2	El tablón	1	Enero	2023-01-31T00:00:00	2024-11-06T17:00:00	6	Velocidad del viento	6.4
134342	7	Sololá	701	Sololá	2	El tablón	1	Enero	2023-01-31T00:00:00	2024-11-06T17:00:00	7	Dirección del viento	6.44
134343	7	Sololá	701	Sololá	2	El tablón	1	Enero	2023-01-31T00:00:00	2024-11-06T17:00:00	1	Precipitación	0
134344	7	Sololá	701	Sololá	2	El tablón	1	Enero	2023-01-31T00:00:00	2024-11-06T17:00:00	8	Radiación solar	291
134345	7	Sololá	701	Sololá	2	El tablón	1	Enero	2023-01-31T00:00:00	2024-11-06T18:00:00	2	Temperatura media	14.8
134346	7	Sololá	701	Sololá	2	El tablón	1	Enero	2023-01-31T00:00:00	2024-11-06T18:00:00	4	Temperatura máxima	17.7
134347	7	Sololá	701	Sololá	2	El tablón	1	Enero	2023-01-31T00:00:00	2024-11-06T18:00:00	3	Temperatura mínima	14.8
134348	7	Sololá	701	Sololá	2	El tablón	1	Enero	2023-01-31T00:00:00	2024-11-06T18:00:00	5	Humedad	55
134349	7	Sololá	701	Sololá	2	El tablón	1	Enero	2023-01-31T00:00:00	2024-11-06T18:00:00	6	Velocidad del viento	9.7
134350	7	Sololá	701	Sololá	2	El tablón	1	Enero	2023-01-31T00:00:00	2024-11-06T18:00:00	7	Dirección del viento	9.66
134351	7	Sololá	701	Sololá	2	El tablón	1	Enero	2023-01-31T00:00:00	2024-11-06T18:00:00	1	Precipitación	0
134352	7	Sololá	701	Sololá	2	El tablón	1	Enero	2023-01-31T00:00:00	2024-11-06T18:00:00	8	Radiación solar	73
134353	7	Sololá	701	Sololá	2	El tablón	1	Enero	2023-01-31T00:00:00	2024-11-06T19:00:00	2	Temperatura media	13.8
134354	7	Sololá	701	Sololá	2	El tablón	1	Enero	2023-01-31T00:00:00	2024-11-06T19:00:00	4	Temperatura máxima	14.8
134355	7	Sololá	701	Sololá	2	El tablón	1	Enero	2023-01-31T00:00:00	2024-11-06T19:00:00	3	Temperatura mínima	13.7
134356	7	Sololá	701	Sololá	2	El tablón	1	Enero	2023-01-31T00:00:00	2024-11-06T19:00:00	5	Humedad	70
134357	7	Sololá	701	Sololá	2	El tablón	1	Enero	2023-01-31T00:00:00	2024-11-06T19:00:00	6	Velocidad del viento	8
134358	7	Sololá	701	Sololá	2	El tablón	1	Enero	2023-01-31T00:00:00	2024-11-06T19:00:00	7	Dirección del viento	8.05
134359	7	Sololá	701	Sololá	2	El tablón	1	Enero	2023-01-31T00:00:00	2024-11-06T19:00:00	1	Precipitación	0
134360	7	Sololá	701	Sololá	2	El tablón	1	Enero	2023-01-31T00:00:00	2024-11-06T19:00:00	8	Radiación solar	0
134361	7	Sololá	701	Sololá	2	El tablón	1	Enero	2023-01-31T00:00:00	2024-11-06T20:00:00	2	Temperatura media	12.9
134362	7	Sololá	701	Sololá	2	El tablón	1	Enero	2023-01-31T00:00:00	2024-11-06T20:00:00	4	Temperatura máxima	13.8
134363	7	Sololá	701	Sololá	2	El tablón	1	Enero	2023-01-31T00:00:00	2024-11-06T20:00:00	3	Temperatura mínima	12.9
134364	7	Sololá	701	Sololá	2	El tablón	1	Enero	2023-01-31T00:00:00	2024-11-06T20:00:00	5	Humedad	76
134365	7	Sololá	701	Sololá	2	El tablón	1	Enero	2023-01-31T00:00:00	2024-11-06T20:00:00	6	Velocidad del viento	9.7
134366	7	Sololá	701	Sololá	2	El tablón	1	Enero	2023-01-31T00:00:00	2024-11-06T20:00:00	7	Dirección del viento	9.66
134367	7	Sololá	701	Sololá	2	El tablón	1	Enero	2023-01-31T00:00:00	2024-11-06T20:00:00	1	Precipitación	0
134368	7	Sololá	701	Sololá	2	El tablón	1	Enero	2023-01-31T00:00:00	2024-11-06T20:00:00	8	Radiación solar	0
134369	7	Sololá	701	Sololá	2	El tablón	1	Enero	2023-01-31T00:00:00	2024-11-06T21:00:00	2	Temperatura media	12.2
134370	7	Sololá	701	Sololá	2	El tablón	1	Enero	2023-01-31T00:00:00	2024-11-06T21:00:00	4	Temperatura máxima	12.9
134371	7	Sololá	701	Sololá	2	El tablón	1	Enero	2023-01-31T00:00:00	2024-11-06T21:00:00	3	Temperatura mínima	12.2
134372	7	Sololá	701	Sololá	2	El tablón	1	Enero	2023-01-31T00:00:00	2024-11-06T21:00:00	5	Humedad	80
134373	7	Sololá	701	Sololá	2	El tablón	1	Enero	2023-01-31T00:00:00	2024-11-06T21:00:00	6	Velocidad del viento	12.9
134374	7	Sololá	701	Sololá	2	El tablón	1	Enero	2023-01-31T00:00:00	2024-11-06T21:00:00	7	Dirección del viento	12.87
134375	7	Sololá	701	Sololá	2	El tablón	1	Enero	2023-01-31T00:00:00	2024-11-06T21:00:00	1	Precipitación	0
134376	7	Sololá	701	Sololá	2	El tablón	1	Enero	2023-01-31T00:00:00	2024-11-06T21:00:00	8	Radiación solar	0
134377	7	Sololá	701	Sololá	2	El tablón	1	Enero	2023-01-31T00:00:00	2024-11-06T22:00:00	2	Temperatura media	11.7
134378	7	Sololá	701	Sololá	2	El tablón	1	Enero	2023-01-31T00:00:00	2024-11-06T22:00:00	4	Temperatura máxima	12.3
134379	7	Sololá	701	Sololá	2	El tablón	1	Enero	2023-01-31T00:00:00	2024-11-06T22:00:00	3	Temperatura mínima	11.7
134380	7	Sololá	701	Sololá	2	El tablón	1	Enero	2023-01-31T00:00:00	2024-11-06T22:00:00	5	Humedad	81
134381	7	Sololá	701	Sololá	2	El tablón	1	Enero	2023-01-31T00:00:00	2024-11-06T22:00:00	6	Velocidad del viento	12.9
134382	7	Sololá	701	Sololá	2	El tablón	1	Enero	2023-01-31T00:00:00	2024-11-06T22:00:00	7	Dirección del viento	12.87
134383	7	Sololá	701	Sololá	2	El tablón	1	Enero	2023-01-31T00:00:00	2024-11-06T22:00:00	1	Precipitación	0
134384	7	Sololá	701	Sololá	2	El tablón	1	Enero	2023-01-31T00:00:00	2024-11-06T22:00:00	8	Radiación solar	0
134385	7	Sololá	701	Sololá	2	El tablón	1	Enero	2023-01-31T00:00:00	2024-11-06T23:00:00	2	Temperatura media	11.2
134386	7	Sololá	701	Sololá	2	El tablón	1	Enero	2023-01-31T00:00:00	2024-11-06T23:00:00	4	Temperatura máxima	11.7
134387	7	Sololá	701	Sololá	2	El tablón	1	Enero	2023-01-31T00:00:00	2024-11-06T23:00:00	3	Temperatura mínima	11.2
134388	7	Sololá	701	Sololá	2	El tablón	1	Enero	2023-01-31T00:00:00	2024-11-06T23:00:00	5	Humedad	81
134389	7	Sololá	701	Sololá	2	El tablón	1	Enero	2023-01-31T00:00:00	2024-11-06T23:00:00	6	Velocidad del viento	12.9
134390	7	Sololá	701	Sololá	2	El tablón	1	Enero	2023-01-31T00:00:00	2024-11-06T23:00:00	7	Dirección del viento	12.87
134391	7	Sololá	701	Sololá	2	El tablón	1	Enero	2023-01-31T00:00:00	2024-11-06T23:00:00	1	Precipitación	0
134392	7	Sololá	701	Sololá	2	El tablón	1	Enero	2023-01-31T00:00:00	2024-11-06T23:00:00	8	Radiación solar	0
134393	7	Sololá	701	Sololá	2	El tablón	2	Febrero	2023-01-02T00:00:00	2024-11-06T00:00:00	2	Temperatura media	10.7
134394	7	Sololá	701	Sololá	2	El tablón	2	Febrero	2023-01-02T00:00:00	2024-11-06T00:00:00	4	Temperatura máxima	11.2
134395	7	Sololá	701	Sololá	2	El tablón	2	Febrero	2023-01-02T00:00:00	2024-11-06T00:00:00	3	Temperatura mínima	10.7
134396	7	Sololá	701	Sololá	2	El tablón	2	Febrero	2023-01-02T00:00:00	2024-11-06T00:00:00	5	Humedad	83
134397	7	Sololá	701	Sololá	2	El tablón	2	Febrero	2023-01-02T00:00:00	2024-11-06T00:00:00	6	Velocidad del viento	11.3
134398	7	Sololá	701	Sololá	2	El tablón	2	Febrero	2023-01-02T00:00:00	2024-11-06T00:00:00	7	Dirección del viento	11.27
134399	7	Sololá	701	Sololá	2	El tablón	2	Febrero	2023-01-02T00:00:00	2024-11-06T00:00:00	1	Precipitación	0
134400	7	Sololá	701	Sololá	2	El tablón	2	Febrero	2023-01-02T00:00:00	2024-11-06T00:00:00	8	Radiación solar	0
134401	7	Sololá	701	Sololá	2	El tablón	2	Febrero	2023-01-02T00:00:00	2024-11-06T01:00:00	2	Temperatura media	10.2
134402	7	Sololá	701	Sololá	2	El tablón	2	Febrero	2023-01-02T00:00:00	2024-11-06T01:00:00	4	Temperatura máxima	10.7
134403	7	Sololá	701	Sololá	2	El tablón	2	Febrero	2023-01-02T00:00:00	2024-11-06T01:00:00	3	Temperatura mínima	10.2
134404	7	Sololá	701	Sololá	2	El tablón	2	Febrero	2023-01-02T00:00:00	2024-11-06T01:00:00	5	Humedad	85
134405	7	Sololá	701	Sololá	2	El tablón	2	Febrero	2023-01-02T00:00:00	2024-11-06T01:00:00	6	Velocidad del viento	11.3
134406	7	Sololá	701	Sololá	2	El tablón	2	Febrero	2023-01-02T00:00:00	2024-11-06T01:00:00	7	Dirección del viento	11.27
134407	7	Sololá	701	Sololá	2	El tablón	2	Febrero	2023-01-02T00:00:00	2024-11-06T01:00:00	1	Precipitación	0
134408	7	Sololá	701	Sololá	2	El tablón	2	Febrero	2023-01-02T00:00:00	2024-11-06T01:00:00	8	Radiación solar	0
134409	7	Sololá	701	Sololá	2	El tablón	2	Febrero	2023-01-02T00:00:00	2024-11-06T02:00:00	2	Temperatura media	9.9
134410	7	Sololá	701	Sololá	2	El tablón	2	Febrero	2023-01-02T00:00:00	2024-11-06T02:00:00	4	Temperatura máxima	10.2
134411	7	Sololá	701	Sololá	2	El tablón	2	Febrero	2023-01-02T00:00:00	2024-11-06T02:00:00	3	Temperatura mínima	9.8
134412	7	Sololá	701	Sololá	2	El tablón	2	Febrero	2023-01-02T00:00:00	2024-11-06T02:00:00	5	Humedad	85
134413	7	Sololá	701	Sololá	2	El tablón	2	Febrero	2023-01-02T00:00:00	2024-11-06T02:00:00	6	Velocidad del viento	11.3
134414	7	Sololá	701	Sololá	2	El tablón	2	Febrero	2023-01-02T00:00:00	2024-11-06T02:00:00	7	Dirección del viento	11.27
134415	7	Sololá	701	Sololá	2	El tablón	2	Febrero	2023-01-02T00:00:00	2024-11-06T02:00:00	1	Precipitación	0
134416	7	Sololá	701	Sololá	2	El tablón	2	Febrero	2023-01-02T00:00:00	2024-11-06T02:00:00	8	Radiación solar	0
134417	7	Sololá	701	Sololá	2	El tablón	2	Febrero	2023-01-02T00:00:00	2024-11-06T03:00:00	2	Temperatura media	9.5
134418	7	Sololá	701	Sololá	2	El tablón	2	Febrero	2023-01-02T00:00:00	2024-11-06T03:00:00	4	Temperatura máxima	9.9
134419	7	Sololá	701	Sololá	2	El tablón	2	Febrero	2023-01-02T00:00:00	2024-11-06T03:00:00	3	Temperatura mínima	9.5
134420	7	Sololá	701	Sololá	2	El tablón	2	Febrero	2023-01-02T00:00:00	2024-11-06T03:00:00	5	Humedad	85
134421	7	Sololá	701	Sololá	2	El tablón	2	Febrero	2023-01-02T00:00:00	2024-11-06T03:00:00	6	Velocidad del viento	11.3
134422	7	Sololá	701	Sololá	2	El tablón	2	Febrero	2023-01-02T00:00:00	2024-11-06T03:00:00	7	Dirección del viento	11.27
134423	7	Sololá	701	Sololá	2	El tablón	2	Febrero	2023-01-02T00:00:00	2024-11-06T03:00:00	1	Precipitación	0
134424	7	Sololá	701	Sololá	2	El tablón	2	Febrero	2023-01-02T00:00:00	2024-11-06T03:00:00	8	Radiación solar	0
134425	7	Sololá	701	Sololá	2	El tablón	2	Febrero	2023-01-02T00:00:00	2024-11-06T04:00:00	2	Temperatura media	9.4
134426	7	Sololá	701	Sololá	2	El tablón	2	Febrero	2023-01-02T00:00:00	2024-11-06T04:00:00	4	Temperatura máxima	9.6
134427	7	Sololá	701	Sololá	2	El tablón	2	Febrero	2023-01-02T00:00:00	2024-11-06T04:00:00	3	Temperatura mínima	9.4
134428	7	Sololá	701	Sololá	2	El tablón	2	Febrero	2023-01-02T00:00:00	2024-11-06T04:00:00	5	Humedad	84
134429	7	Sololá	701	Sololá	2	El tablón	2	Febrero	2023-01-02T00:00:00	2024-11-06T04:00:00	6	Velocidad del viento	11.3
134430	7	Sololá	701	Sololá	2	El tablón	2	Febrero	2023-01-02T00:00:00	2024-11-06T04:00:00	7	Dirección del viento	11.27
134431	7	Sololá	701	Sololá	2	El tablón	2	Febrero	2023-01-02T00:00:00	2024-11-06T04:00:00	1	Precipitación	0
134432	7	Sololá	701	Sololá	2	El tablón	2	Febrero	2023-01-02T00:00:00	2024-11-06T04:00:00	8	Radiación solar	0
134433	7	Sololá	701	Sololá	2	El tablón	2	Febrero	2023-01-02T00:00:00	2024-11-06T05:00:00	2	Temperatura media	9.4
134434	7	Sololá	701	Sololá	2	El tablón	2	Febrero	2023-01-02T00:00:00	2024-11-06T05:00:00	4	Temperatura máxima	9.4
134435	7	Sololá	701	Sololá	2	El tablón	2	Febrero	2023-01-02T00:00:00	2024-11-06T05:00:00	3	Temperatura mínima	9.3
134436	7	Sololá	701	Sololá	2	El tablón	2	Febrero	2023-01-02T00:00:00	2024-11-06T05:00:00	5	Humedad	86
134437	7	Sololá	701	Sololá	2	El tablón	2	Febrero	2023-01-02T00:00:00	2024-11-06T05:00:00	6	Velocidad del viento	11.3
134438	7	Sololá	701	Sololá	2	El tablón	2	Febrero	2023-01-02T00:00:00	2024-11-06T05:00:00	7	Dirección del viento	11.27
134439	7	Sololá	701	Sololá	2	El tablón	2	Febrero	2023-01-02T00:00:00	2024-11-06T05:00:00	1	Precipitación	0
134440	7	Sololá	701	Sololá	2	El tablón	2	Febrero	2023-01-02T00:00:00	2024-11-06T05:00:00	8	Radiación solar	0
134441	7	Sololá	701	Sololá	2	El tablón	2	Febrero	2023-01-02T00:00:00	2024-11-06T06:00:00	2	Temperatura media	9.7
134442	7	Sololá	701	Sololá	2	El tablón	2	Febrero	2023-01-02T00:00:00	2024-11-06T06:00:00	4	Temperatura máxima	9.7
134443	7	Sololá	701	Sololá	2	El tablón	2	Febrero	2023-01-02T00:00:00	2024-11-06T06:00:00	3	Temperatura mínima	9.4
134444	7	Sololá	701	Sololá	2	El tablón	2	Febrero	2023-01-02T00:00:00	2024-11-06T06:00:00	5	Humedad	85
134445	7	Sololá	701	Sololá	2	El tablón	2	Febrero	2023-01-02T00:00:00	2024-11-06T06:00:00	6	Velocidad del viento	9.7
134446	7	Sololá	701	Sololá	2	El tablón	2	Febrero	2023-01-02T00:00:00	2024-11-06T06:00:00	7	Dirección del viento	9.66
134447	7	Sololá	701	Sololá	2	El tablón	2	Febrero	2023-01-02T00:00:00	2024-11-06T06:00:00	1	Precipitación	0
134448	7	Sololá	701	Sololá	2	El tablón	2	Febrero	2023-01-02T00:00:00	2024-11-06T06:00:00	8	Radiación solar	0
134449	7	Sololá	701	Sololá	2	El tablón	2	Febrero	2023-01-02T00:00:00	2024-11-06T07:00:00	2	Temperatura media	10
134450	7	Sololá	701	Sololá	2	El tablón	2	Febrero	2023-01-02T00:00:00	2024-11-06T07:00:00	4	Temperatura máxima	10
134451	7	Sololá	701	Sololá	2	El tablón	2	Febrero	2023-01-02T00:00:00	2024-11-06T07:00:00	3	Temperatura mínima	9.6
134452	7	Sololá	701	Sololá	2	El tablón	2	Febrero	2023-01-02T00:00:00	2024-11-06T07:00:00	5	Humedad	85
134453	7	Sololá	701	Sololá	2	El tablón	2	Febrero	2023-01-02T00:00:00	2024-11-06T07:00:00	6	Velocidad del viento	9.7
134454	7	Sololá	701	Sololá	2	El tablón	2	Febrero	2023-01-02T00:00:00	2024-11-06T07:00:00	7	Dirección del viento	9.66
134455	7	Sololá	701	Sololá	2	El tablón	2	Febrero	2023-01-02T00:00:00	2024-11-06T07:00:00	1	Precipitación	0
134456	7	Sololá	701	Sololá	2	El tablón	2	Febrero	2023-01-02T00:00:00	2024-11-06T07:00:00	8	Radiación solar	5
134457	7	Sololá	701	Sololá	2	El tablón	2	Febrero	2023-01-02T00:00:00	2024-11-06T08:00:00	2	Temperatura media	11.6
134458	7	Sololá	701	Sololá	2	El tablón	2	Febrero	2023-01-02T00:00:00	2024-11-06T08:00:00	4	Temperatura máxima	11.6
134459	7	Sololá	701	Sololá	2	El tablón	2	Febrero	2023-01-02T00:00:00	2024-11-06T08:00:00	3	Temperatura mínima	10
134460	7	Sololá	701	Sololá	2	El tablón	2	Febrero	2023-01-02T00:00:00	2024-11-06T08:00:00	5	Humedad	81
134461	7	Sololá	701	Sololá	2	El tablón	2	Febrero	2023-01-02T00:00:00	2024-11-06T08:00:00	6	Velocidad del viento	9.7
134462	7	Sololá	701	Sololá	2	El tablón	2	Febrero	2023-01-02T00:00:00	2024-11-06T08:00:00	7	Dirección del viento	9.66
134463	7	Sololá	701	Sololá	2	El tablón	2	Febrero	2023-01-02T00:00:00	2024-11-06T08:00:00	1	Precipitación	0
134464	7	Sololá	701	Sololá	2	El tablón	2	Febrero	2023-01-02T00:00:00	2024-11-06T08:00:00	8	Radiación solar	123
134465	7	Sololá	701	Sololá	2	El tablón	2	Febrero	2023-01-02T00:00:00	2024-11-06T09:00:00	2	Temperatura media	15
134466	7	Sololá	701	Sololá	2	El tablón	2	Febrero	2023-01-02T00:00:00	2024-11-06T09:00:00	4	Temperatura máxima	15
134467	7	Sololá	701	Sololá	2	El tablón	2	Febrero	2023-01-02T00:00:00	2024-11-06T09:00:00	3	Temperatura mínima	11.5
134468	7	Sololá	701	Sololá	2	El tablón	2	Febrero	2023-01-02T00:00:00	2024-11-06T09:00:00	5	Humedad	64
134469	7	Sololá	701	Sololá	2	El tablón	2	Febrero	2023-01-02T00:00:00	2024-11-06T09:00:00	6	Velocidad del viento	8
134470	7	Sololá	701	Sololá	2	El tablón	2	Febrero	2023-01-02T00:00:00	2024-11-06T09:00:00	7	Dirección del viento	8.05
134471	7	Sololá	701	Sololá	2	El tablón	2	Febrero	2023-01-02T00:00:00	2024-11-06T09:00:00	1	Precipitación	0
134472	7	Sololá	701	Sololá	2	El tablón	2	Febrero	2023-01-02T00:00:00	2024-11-06T09:00:00	8	Radiación solar	341
134473	7	Sololá	701	Sololá	2	El tablón	2	Febrero	2023-01-02T00:00:00	2024-11-06T10:00:00	2	Temperatura media	16
134474	7	Sololá	701	Sololá	2	El tablón	2	Febrero	2023-01-02T00:00:00	2024-11-06T10:00:00	4	Temperatura máxima	16
134475	7	Sololá	701	Sololá	2	El tablón	2	Febrero	2023-01-02T00:00:00	2024-11-06T10:00:00	3	Temperatura mínima	14.9
134476	7	Sololá	701	Sololá	2	El tablón	2	Febrero	2023-01-02T00:00:00	2024-11-06T10:00:00	5	Humedad	60
134477	7	Sololá	701	Sololá	2	El tablón	2	Febrero	2023-01-02T00:00:00	2024-11-06T10:00:00	6	Velocidad del viento	9.7
134478	7	Sololá	701	Sololá	2	El tablón	2	Febrero	2023-01-02T00:00:00	2024-11-06T10:00:00	7	Dirección del viento	9.66
134479	7	Sololá	701	Sololá	2	El tablón	2	Febrero	2023-01-02T00:00:00	2024-11-06T10:00:00	1	Precipitación	0
134480	7	Sololá	701	Sololá	2	El tablón	2	Febrero	2023-01-02T00:00:00	2024-11-06T10:00:00	8	Radiación solar	549
134481	7	Sololá	701	Sololá	2	El tablón	2	Febrero	2023-01-02T00:00:00	2024-11-06T11:00:00	2	Temperatura media	17.5
134482	7	Sololá	701	Sololá	2	El tablón	2	Febrero	2023-01-02T00:00:00	2024-11-06T11:00:00	4	Temperatura máxima	17.5
134483	7	Sololá	701	Sololá	2	El tablón	2	Febrero	2023-01-02T00:00:00	2024-11-06T11:00:00	3	Temperatura mínima	16
134484	7	Sololá	701	Sololá	2	El tablón	2	Febrero	2023-01-02T00:00:00	2024-11-06T11:00:00	5	Humedad	56
134485	7	Sololá	701	Sololá	2	El tablón	2	Febrero	2023-01-02T00:00:00	2024-11-06T11:00:00	6	Velocidad del viento	9.7
134486	7	Sololá	701	Sololá	2	El tablón	2	Febrero	2023-01-02T00:00:00	2024-11-06T11:00:00	7	Dirección del viento	9.66
134487	7	Sololá	701	Sololá	2	El tablón	2	Febrero	2023-01-02T00:00:00	2024-11-06T11:00:00	1	Precipitación	0
134488	7	Sololá	701	Sololá	2	El tablón	2	Febrero	2023-01-02T00:00:00	2024-11-06T11:00:00	8	Radiación solar	700
134489	7	Sololá	701	Sololá	2	El tablón	2	Febrero	2023-01-02T00:00:00	2024-11-06T12:00:00	2	Temperatura media	18.6
134490	7	Sololá	701	Sololá	2	El tablón	2	Febrero	2023-01-02T00:00:00	2024-11-06T12:00:00	4	Temperatura máxima	18.6
134491	7	Sololá	701	Sololá	2	El tablón	2	Febrero	2023-01-02T00:00:00	2024-11-06T12:00:00	3	Temperatura mínima	17.5
134492	7	Sololá	701	Sololá	2	El tablón	2	Febrero	2023-01-02T00:00:00	2024-11-06T12:00:00	5	Humedad	48
134493	7	Sololá	701	Sololá	2	El tablón	2	Febrero	2023-01-02T00:00:00	2024-11-06T12:00:00	6	Velocidad del viento	11.3
134494	7	Sololá	701	Sololá	2	El tablón	2	Febrero	2023-01-02T00:00:00	2024-11-06T12:00:00	7	Dirección del viento	11.27
134495	7	Sololá	701	Sololá	2	El tablón	2	Febrero	2023-01-02T00:00:00	2024-11-06T12:00:00	1	Precipitación	0
134496	7	Sololá	701	Sololá	2	El tablón	2	Febrero	2023-01-02T00:00:00	2024-11-06T12:00:00	8	Radiación solar	699
134497	7	Sololá	701	Sololá	2	El tablón	2	Febrero	2023-01-02T00:00:00	2024-11-06T13:00:00	2	Temperatura media	19.6
134498	7	Sololá	701	Sololá	2	El tablón	2	Febrero	2023-01-02T00:00:00	2024-11-06T13:00:00	4	Temperatura máxima	19.6
134499	7	Sololá	701	Sololá	2	El tablón	2	Febrero	2023-01-02T00:00:00	2024-11-06T13:00:00	3	Temperatura mínima	18.4
134500	7	Sololá	701	Sololá	2	El tablón	2	Febrero	2023-01-02T00:00:00	2024-11-06T13:00:00	5	Humedad	45
134501	7	Sololá	701	Sololá	2	El tablón	2	Febrero	2023-01-02T00:00:00	2024-11-06T13:00:00	6	Velocidad del viento	11.3
134502	7	Sololá	701	Sololá	2	El tablón	2	Febrero	2023-01-02T00:00:00	2024-11-06T13:00:00	7	Dirección del viento	11.27
134503	7	Sololá	701	Sololá	2	El tablón	2	Febrero	2023-01-02T00:00:00	2024-11-06T13:00:00	1	Precipitación	0
134504	7	Sololá	701	Sololá	2	El tablón	2	Febrero	2023-01-02T00:00:00	2024-11-06T13:00:00	8	Radiación solar	818
134505	7	Sololá	701	Sololá	2	El tablón	2	Febrero	2023-01-02T00:00:00	2024-11-06T14:00:00	2	Temperatura media	19.5
134506	7	Sololá	701	Sololá	2	El tablón	2	Febrero	2023-01-02T00:00:00	2024-11-06T14:00:00	4	Temperatura máxima	19.8
134507	7	Sololá	701	Sololá	2	El tablón	2	Febrero	2023-01-02T00:00:00	2024-11-06T14:00:00	3	Temperatura mínima	18.9
134508	7	Sololá	701	Sololá	2	El tablón	2	Febrero	2023-01-02T00:00:00	2024-11-06T14:00:00	5	Humedad	43
134509	7	Sololá	701	Sololá	2	El tablón	2	Febrero	2023-01-02T00:00:00	2024-11-06T14:00:00	6	Velocidad del viento	11.3
134510	7	Sololá	701	Sololá	2	El tablón	2	Febrero	2023-01-02T00:00:00	2024-11-06T14:00:00	7	Dirección del viento	11.27
134511	7	Sololá	701	Sololá	2	El tablón	2	Febrero	2023-01-02T00:00:00	2024-11-06T14:00:00	1	Precipitación	0
134512	7	Sololá	701	Sololá	2	El tablón	2	Febrero	2023-01-02T00:00:00	2024-11-06T14:00:00	8	Radiación solar	789
134513	7	Sololá	701	Sololá	2	El tablón	2	Febrero	2023-01-02T00:00:00	2024-11-06T15:00:00	2	Temperatura media	19.3
134514	7	Sololá	701	Sololá	2	El tablón	2	Febrero	2023-01-02T00:00:00	2024-11-06T15:00:00	4	Temperatura máxima	19.8
134515	7	Sololá	701	Sololá	2	El tablón	2	Febrero	2023-01-02T00:00:00	2024-11-06T15:00:00	3	Temperatura mínima	18.8
134516	7	Sololá	701	Sololá	2	El tablón	2	Febrero	2023-01-02T00:00:00	2024-11-06T15:00:00	5	Humedad	65
134517	7	Sololá	701	Sololá	2	El tablón	2	Febrero	2023-01-02T00:00:00	2024-11-06T15:00:00	6	Velocidad del viento	9.7
134518	7	Sololá	701	Sololá	2	El tablón	2	Febrero	2023-01-02T00:00:00	2024-11-06T15:00:00	7	Dirección del viento	9.66
134519	7	Sololá	701	Sololá	2	El tablón	2	Febrero	2023-01-02T00:00:00	2024-11-06T15:00:00	1	Precipitación	0
134520	7	Sololá	701	Sololá	2	El tablón	2	Febrero	2023-01-02T00:00:00	2024-11-06T15:00:00	8	Radiación solar	641
134521	7	Sololá	701	Sololá	2	El tablón	2	Febrero	2023-01-02T00:00:00	2024-11-06T16:00:00	2	Temperatura media	17.9
134522	7	Sololá	701	Sololá	2	El tablón	2	Febrero	2023-01-02T00:00:00	2024-11-06T16:00:00	4	Temperatura máxima	19.3
134523	7	Sololá	701	Sololá	2	El tablón	2	Febrero	2023-01-02T00:00:00	2024-11-06T16:00:00	3	Temperatura mínima	17.3
134524	7	Sololá	701	Sololá	2	El tablón	2	Febrero	2023-01-02T00:00:00	2024-11-06T16:00:00	5	Humedad	73
134525	7	Sololá	701	Sololá	2	El tablón	2	Febrero	2023-01-02T00:00:00	2024-11-06T16:00:00	6	Velocidad del viento	6.4
134526	7	Sololá	701	Sololá	2	El tablón	2	Febrero	2023-01-02T00:00:00	2024-11-06T16:00:00	7	Dirección del viento	6.44
134527	7	Sololá	701	Sololá	2	El tablón	2	Febrero	2023-01-02T00:00:00	2024-11-06T16:00:00	1	Precipitación	0
134528	7	Sololá	701	Sololá	2	El tablón	2	Febrero	2023-01-02T00:00:00	2024-11-06T16:00:00	8	Radiación solar	434
134529	7	Sololá	701	Sololá	2	El tablón	2	Febrero	2023-01-02T00:00:00	2024-11-06T17:00:00	2	Temperatura media	16.2
134530	7	Sololá	701	Sololá	2	El tablón	2	Febrero	2023-01-02T00:00:00	2024-11-06T17:00:00	4	Temperatura máxima	18.1
134531	7	Sololá	701	Sololá	2	El tablón	2	Febrero	2023-01-02T00:00:00	2024-11-06T17:00:00	3	Temperatura mínima	16.2
134532	7	Sololá	701	Sololá	2	El tablón	2	Febrero	2023-01-02T00:00:00	2024-11-06T17:00:00	5	Humedad	81
134533	7	Sololá	701	Sololá	2	El tablón	2	Febrero	2023-01-02T00:00:00	2024-11-06T17:00:00	6	Velocidad del viento	4.8
134534	7	Sololá	701	Sololá	2	El tablón	2	Febrero	2023-01-02T00:00:00	2024-11-06T17:00:00	7	Dirección del viento	4.83
134535	7	Sololá	701	Sololá	2	El tablón	2	Febrero	2023-01-02T00:00:00	2024-11-06T17:00:00	1	Precipitación	0
134536	7	Sololá	701	Sololá	2	El tablón	2	Febrero	2023-01-02T00:00:00	2024-11-06T17:00:00	8	Radiación solar	86
134537	7	Sololá	701	Sololá	2	El tablón	2	Febrero	2023-01-02T00:00:00	2024-11-06T18:00:00	2	Temperatura media	15.1
134538	7	Sololá	701	Sololá	2	El tablón	2	Febrero	2023-01-02T00:00:00	2024-11-06T18:00:00	4	Temperatura máxima	16.2
134539	7	Sololá	701	Sololá	2	El tablón	2	Febrero	2023-01-02T00:00:00	2024-11-06T18:00:00	3	Temperatura mínima	15.1
134540	7	Sololá	701	Sololá	2	El tablón	2	Febrero	2023-01-02T00:00:00	2024-11-06T18:00:00	5	Humedad	73
134541	7	Sololá	701	Sololá	2	El tablón	2	Febrero	2023-01-02T00:00:00	2024-11-06T18:00:00	6	Velocidad del viento	4.8
134542	7	Sololá	701	Sololá	2	El tablón	2	Febrero	2023-01-02T00:00:00	2024-11-06T18:00:00	7	Dirección del viento	4.83
134543	7	Sololá	701	Sololá	2	El tablón	2	Febrero	2023-01-02T00:00:00	2024-11-06T18:00:00	1	Precipitación	0
134544	7	Sololá	701	Sololá	2	El tablón	2	Febrero	2023-01-02T00:00:00	2024-11-06T18:00:00	8	Radiación solar	51
134545	7	Sololá	701	Sololá	2	El tablón	2	Febrero	2023-01-02T00:00:00	2024-11-06T19:00:00	2	Temperatura media	13
134546	7	Sololá	701	Sololá	2	El tablón	2	Febrero	2023-01-02T00:00:00	2024-11-06T19:00:00	4	Temperatura máxima	15.1
134547	7	Sololá	701	Sololá	2	El tablón	2	Febrero	2023-01-02T00:00:00	2024-11-06T19:00:00	3	Temperatura mínima	13
134548	7	Sololá	701	Sololá	2	El tablón	2	Febrero	2023-01-02T00:00:00	2024-11-06T19:00:00	5	Humedad	81
134549	7	Sololá	701	Sololá	2	El tablón	2	Febrero	2023-01-02T00:00:00	2024-11-06T19:00:00	6	Velocidad del viento	8
134550	7	Sololá	701	Sololá	2	El tablón	2	Febrero	2023-01-02T00:00:00	2024-11-06T19:00:00	7	Dirección del viento	8.05
134551	7	Sololá	701	Sololá	2	El tablón	2	Febrero	2023-01-02T00:00:00	2024-11-06T19:00:00	1	Precipitación	0
134552	7	Sololá	701	Sololá	2	El tablón	2	Febrero	2023-01-02T00:00:00	2024-11-06T19:00:00	8	Radiación solar	0
134553	7	Sololá	701	Sololá	2	El tablón	2	Febrero	2023-01-02T00:00:00	2024-11-06T20:00:00	2	Temperatura media	12.2
134554	7	Sololá	701	Sololá	2	El tablón	2	Febrero	2023-01-02T00:00:00	2024-11-06T20:00:00	4	Temperatura máxima	13
134555	7	Sololá	701	Sololá	2	El tablón	2	Febrero	2023-01-02T00:00:00	2024-11-06T20:00:00	3	Temperatura mínima	12.2
134556	7	Sololá	701	Sololá	2	El tablón	2	Febrero	2023-01-02T00:00:00	2024-11-06T20:00:00	5	Humedad	85
134557	7	Sololá	701	Sololá	2	El tablón	2	Febrero	2023-01-02T00:00:00	2024-11-06T20:00:00	6	Velocidad del viento	12.9
134558	7	Sololá	701	Sololá	2	El tablón	2	Febrero	2023-01-02T00:00:00	2024-11-06T20:00:00	7	Dirección del viento	12.87
134559	7	Sololá	701	Sololá	2	El tablón	2	Febrero	2023-01-02T00:00:00	2024-11-06T20:00:00	1	Precipitación	0
134560	7	Sololá	701	Sololá	2	El tablón	2	Febrero	2023-01-02T00:00:00	2024-11-06T20:00:00	8	Radiación solar	0
134561	7	Sololá	701	Sololá	2	El tablón	2	Febrero	2023-01-02T00:00:00	2024-11-06T21:00:00	2	Temperatura media	11.6
134562	7	Sololá	701	Sololá	2	El tablón	2	Febrero	2023-01-02T00:00:00	2024-11-06T21:00:00	4	Temperatura máxima	12.2
134563	7	Sololá	701	Sololá	2	El tablón	2	Febrero	2023-01-02T00:00:00	2024-11-06T21:00:00	3	Temperatura mínima	11.6
134564	7	Sololá	701	Sololá	2	El tablón	2	Febrero	2023-01-02T00:00:00	2024-11-06T21:00:00	5	Humedad	85
134565	7	Sololá	701	Sololá	2	El tablón	2	Febrero	2023-01-02T00:00:00	2024-11-06T21:00:00	6	Velocidad del viento	12.9
134566	7	Sololá	701	Sololá	2	El tablón	2	Febrero	2023-01-02T00:00:00	2024-11-06T21:00:00	7	Dirección del viento	12.87
134567	7	Sololá	701	Sololá	2	El tablón	2	Febrero	2023-01-02T00:00:00	2024-11-06T21:00:00	1	Precipitación	0
134568	7	Sololá	701	Sololá	2	El tablón	2	Febrero	2023-01-02T00:00:00	2024-11-06T21:00:00	8	Radiación solar	0
134569	7	Sololá	701	Sololá	2	El tablón	2	Febrero	2023-01-02T00:00:00	2024-11-06T22:00:00	2	Temperatura media	11.3
134570	7	Sololá	701	Sololá	2	El tablón	2	Febrero	2023-01-02T00:00:00	2024-11-06T22:00:00	4	Temperatura máxima	11.7
134571	7	Sololá	701	Sololá	2	El tablón	2	Febrero	2023-01-02T00:00:00	2024-11-06T22:00:00	3	Temperatura mínima	11.3
134572	7	Sololá	701	Sololá	2	El tablón	2	Febrero	2023-01-02T00:00:00	2024-11-06T22:00:00	5	Humedad	83
134573	7	Sololá	701	Sololá	2	El tablón	2	Febrero	2023-01-02T00:00:00	2024-11-06T22:00:00	6	Velocidad del viento	12.9
134574	7	Sololá	701	Sololá	2	El tablón	2	Febrero	2023-01-02T00:00:00	2024-11-06T22:00:00	7	Dirección del viento	12.87
134575	7	Sololá	701	Sololá	2	El tablón	2	Febrero	2023-01-02T00:00:00	2024-11-06T22:00:00	1	Precipitación	0
134576	7	Sololá	701	Sololá	2	El tablón	2	Febrero	2023-01-02T00:00:00	2024-11-06T22:00:00	8	Radiación solar	0
134577	7	Sololá	701	Sololá	2	El tablón	2	Febrero	2023-01-02T00:00:00	2024-11-06T23:00:00	2	Temperatura media	10.8
134578	7	Sololá	701	Sololá	2	El tablón	2	Febrero	2023-01-02T00:00:00	2024-11-06T23:00:00	4	Temperatura máxima	11.3
134579	7	Sololá	701	Sololá	2	El tablón	2	Febrero	2023-01-02T00:00:00	2024-11-06T23:00:00	3	Temperatura mínima	10.8
134580	7	Sololá	701	Sololá	2	El tablón	2	Febrero	2023-01-02T00:00:00	2024-11-06T23:00:00	5	Humedad	84
134581	7	Sololá	701	Sololá	2	El tablón	2	Febrero	2023-01-02T00:00:00	2024-11-06T23:00:00	6	Velocidad del viento	12.9
134582	7	Sololá	701	Sololá	2	El tablón	2	Febrero	2023-01-02T00:00:00	2024-11-06T23:00:00	7	Dirección del viento	12.87
134583	7	Sololá	701	Sololá	2	El tablón	2	Febrero	2023-01-02T00:00:00	2024-11-06T23:00:00	1	Precipitación	0
134584	7	Sololá	701	Sololá	2	El tablón	2	Febrero	2023-01-02T00:00:00	2024-11-06T23:00:00	8	Radiación solar	0
134585	7	Sololá	701	Sololá	2	El tablón	2	Febrero	2023-02-02T00:00:00	2024-11-06T00:00:00	2	Temperatura media	10.4
134586	7	Sololá	701	Sololá	2	El tablón	2	Febrero	2023-02-02T00:00:00	2024-11-06T00:00:00	4	Temperatura máxima	10.8
134587	7	Sololá	701	Sololá	2	El tablón	2	Febrero	2023-02-02T00:00:00	2024-11-06T00:00:00	3	Temperatura mínima	10.4
134588	7	Sololá	701	Sololá	2	El tablón	2	Febrero	2023-02-02T00:00:00	2024-11-06T00:00:00	5	Humedad	84
134589	7	Sololá	701	Sololá	2	El tablón	2	Febrero	2023-02-02T00:00:00	2024-11-06T00:00:00	6	Velocidad del viento	12.9
134590	7	Sololá	701	Sololá	2	El tablón	2	Febrero	2023-02-02T00:00:00	2024-11-06T00:00:00	7	Dirección del viento	12.87
134591	7	Sololá	701	Sololá	2	El tablón	2	Febrero	2023-02-02T00:00:00	2024-11-06T00:00:00	1	Precipitación	0
134592	7	Sololá	701	Sololá	2	El tablón	2	Febrero	2023-02-02T00:00:00	2024-11-06T00:00:00	8	Radiación solar	0
134593	7	Sololá	701	Sololá	2	El tablón	2	Febrero	2023-02-02T00:00:00	2024-11-06T01:00:00	2	Temperatura media	9.8
134594	7	Sololá	701	Sololá	2	El tablón	2	Febrero	2023-02-02T00:00:00	2024-11-06T01:00:00	4	Temperatura máxima	10.4
134595	7	Sololá	701	Sololá	2	El tablón	2	Febrero	2023-02-02T00:00:00	2024-11-06T01:00:00	3	Temperatura mínima	9.8
134596	7	Sololá	701	Sololá	2	El tablón	2	Febrero	2023-02-02T00:00:00	2024-11-06T01:00:00	5	Humedad	85
134597	7	Sololá	701	Sololá	2	El tablón	2	Febrero	2023-02-02T00:00:00	2024-11-06T01:00:00	6	Velocidad del viento	12.9
134598	7	Sololá	701	Sololá	2	El tablón	2	Febrero	2023-02-02T00:00:00	2024-11-06T01:00:00	7	Dirección del viento	12.87
134599	7	Sololá	701	Sololá	2	El tablón	2	Febrero	2023-02-02T00:00:00	2024-11-06T01:00:00	1	Precipitación	0
134600	7	Sololá	701	Sololá	2	El tablón	2	Febrero	2023-02-02T00:00:00	2024-11-06T01:00:00	8	Radiación solar	0
134601	7	Sololá	701	Sololá	2	El tablón	2	Febrero	2023-02-02T00:00:00	2024-11-06T02:00:00	2	Temperatura media	9.4
134602	7	Sololá	701	Sololá	2	El tablón	2	Febrero	2023-02-02T00:00:00	2024-11-06T02:00:00	4	Temperatura máxima	9.8
134603	7	Sololá	701	Sololá	2	El tablón	2	Febrero	2023-02-02T00:00:00	2024-11-06T02:00:00	3	Temperatura mínima	9.4
134604	7	Sololá	701	Sololá	2	El tablón	2	Febrero	2023-02-02T00:00:00	2024-11-06T02:00:00	5	Humedad	86
134605	7	Sololá	701	Sololá	2	El tablón	2	Febrero	2023-02-02T00:00:00	2024-11-06T02:00:00	6	Velocidad del viento	14.5
134606	7	Sololá	701	Sololá	2	El tablón	2	Febrero	2023-02-02T00:00:00	2024-11-06T02:00:00	7	Dirección del viento	14.48
134607	7	Sololá	701	Sololá	2	El tablón	2	Febrero	2023-02-02T00:00:00	2024-11-06T02:00:00	1	Precipitación	0
134608	7	Sololá	701	Sololá	2	El tablón	2	Febrero	2023-02-02T00:00:00	2024-11-06T02:00:00	8	Radiación solar	0
134609	7	Sololá	701	Sololá	2	El tablón	2	Febrero	2023-02-02T00:00:00	2024-11-06T03:00:00	2	Temperatura media	9.1
134610	7	Sololá	701	Sololá	2	El tablón	2	Febrero	2023-02-02T00:00:00	2024-11-06T03:00:00	4	Temperatura máxima	9.4
134611	7	Sololá	701	Sololá	2	El tablón	2	Febrero	2023-02-02T00:00:00	2024-11-06T03:00:00	3	Temperatura mínima	9.1
134612	7	Sololá	701	Sololá	2	El tablón	2	Febrero	2023-02-02T00:00:00	2024-11-06T03:00:00	5	Humedad	87
134613	7	Sololá	701	Sololá	2	El tablón	2	Febrero	2023-02-02T00:00:00	2024-11-06T03:00:00	6	Velocidad del viento	16.1
134614	7	Sololá	701	Sololá	2	El tablón	2	Febrero	2023-02-02T00:00:00	2024-11-06T03:00:00	7	Dirección del viento	16.09
134615	7	Sololá	701	Sololá	2	El tablón	2	Febrero	2023-02-02T00:00:00	2024-11-06T03:00:00	1	Precipitación	0
134616	7	Sololá	701	Sololá	2	El tablón	2	Febrero	2023-02-02T00:00:00	2024-11-06T03:00:00	8	Radiación solar	0
134617	7	Sololá	701	Sololá	2	El tablón	2	Febrero	2023-02-02T00:00:00	2024-11-06T04:00:00	2	Temperatura media	9.2
134618	7	Sololá	701	Sololá	2	El tablón	2	Febrero	2023-02-02T00:00:00	2024-11-06T04:00:00	4	Temperatura máxima	9.4
134619	7	Sololá	701	Sololá	2	El tablón	2	Febrero	2023-02-02T00:00:00	2024-11-06T04:00:00	3	Temperatura mínima	9.1
134620	7	Sololá	701	Sololá	2	El tablón	2	Febrero	2023-02-02T00:00:00	2024-11-06T04:00:00	5	Humedad	84
134621	7	Sololá	701	Sololá	2	El tablón	2	Febrero	2023-02-02T00:00:00	2024-11-06T04:00:00	6	Velocidad del viento	16.1
134622	7	Sololá	701	Sololá	2	El tablón	2	Febrero	2023-02-02T00:00:00	2024-11-06T04:00:00	7	Dirección del viento	16.09
134623	7	Sololá	701	Sololá	2	El tablón	2	Febrero	2023-02-02T00:00:00	2024-11-06T04:00:00	1	Precipitación	0
134624	7	Sololá	701	Sololá	2	El tablón	2	Febrero	2023-02-02T00:00:00	2024-11-06T04:00:00	8	Radiación solar	0
134625	7	Sololá	701	Sololá	2	El tablón	2	Febrero	2023-02-02T00:00:00	2024-11-06T05:00:00	2	Temperatura media	9.1
134626	7	Sololá	701	Sololá	2	El tablón	2	Febrero	2023-02-02T00:00:00	2024-11-06T05:00:00	4	Temperatura máxima	9.4
134627	7	Sololá	701	Sololá	2	El tablón	2	Febrero	2023-02-02T00:00:00	2024-11-06T05:00:00	3	Temperatura mínima	9.1
134628	7	Sololá	701	Sololá	2	El tablón	2	Febrero	2023-02-02T00:00:00	2024-11-06T05:00:00	5	Humedad	84
134629	7	Sololá	701	Sololá	2	El tablón	2	Febrero	2023-02-02T00:00:00	2024-11-06T05:00:00	6	Velocidad del viento	14.5
134630	7	Sololá	701	Sololá	2	El tablón	2	Febrero	2023-02-02T00:00:00	2024-11-06T05:00:00	7	Dirección del viento	14.48
134631	7	Sololá	701	Sololá	2	El tablón	2	Febrero	2023-02-02T00:00:00	2024-11-06T05:00:00	1	Precipitación	0
134632	7	Sololá	701	Sololá	2	El tablón	2	Febrero	2023-02-02T00:00:00	2024-11-06T05:00:00	8	Radiación solar	0
134633	7	Sololá	701	Sololá	2	El tablón	2	Febrero	2023-02-02T00:00:00	2024-11-06T06:00:00	2	Temperatura media	9.3
134634	7	Sololá	701	Sololá	2	El tablón	2	Febrero	2023-02-02T00:00:00	2024-11-06T06:00:00	4	Temperatura máxima	9.6
134635	7	Sololá	701	Sololá	2	El tablón	2	Febrero	2023-02-02T00:00:00	2024-11-06T06:00:00	3	Temperatura mínima	9.1
134636	7	Sololá	701	Sololá	2	El tablón	2	Febrero	2023-02-02T00:00:00	2024-11-06T06:00:00	5	Humedad	75
134637	7	Sololá	701	Sololá	2	El tablón	2	Febrero	2023-02-02T00:00:00	2024-11-06T06:00:00	6	Velocidad del viento	12.9
134638	7	Sololá	701	Sololá	2	El tablón	2	Febrero	2023-02-02T00:00:00	2024-11-06T06:00:00	7	Dirección del viento	12.87
134639	7	Sololá	701	Sololá	2	El tablón	2	Febrero	2023-02-02T00:00:00	2024-11-06T06:00:00	1	Precipitación	0
134640	7	Sololá	701	Sololá	2	El tablón	2	Febrero	2023-02-02T00:00:00	2024-11-06T06:00:00	8	Radiación solar	0
134641	7	Sololá	701	Sololá	2	El tablón	2	Febrero	2023-02-02T00:00:00	2024-11-06T07:00:00	2	Temperatura media	9.3
134642	7	Sololá	701	Sololá	2	El tablón	2	Febrero	2023-02-02T00:00:00	2024-11-06T07:00:00	4	Temperatura máxima	9.3
134643	7	Sololá	701	Sololá	2	El tablón	2	Febrero	2023-02-02T00:00:00	2024-11-06T07:00:00	3	Temperatura mínima	9.1
134644	7	Sololá	701	Sololá	2	El tablón	2	Febrero	2023-02-02T00:00:00	2024-11-06T07:00:00	5	Humedad	76
134645	7	Sololá	701	Sololá	2	El tablón	2	Febrero	2023-02-02T00:00:00	2024-11-06T07:00:00	6	Velocidad del viento	11.3
134646	7	Sololá	701	Sololá	2	El tablón	2	Febrero	2023-02-02T00:00:00	2024-11-06T07:00:00	7	Dirección del viento	11.27
134647	7	Sololá	701	Sololá	2	El tablón	2	Febrero	2023-02-02T00:00:00	2024-11-06T07:00:00	1	Precipitación	0
134648	7	Sololá	701	Sololá	2	El tablón	2	Febrero	2023-02-02T00:00:00	2024-11-06T07:00:00	8	Radiación solar	5
134649	7	Sololá	701	Sololá	2	El tablón	2	Febrero	2023-02-02T00:00:00	2024-11-06T08:00:00	2	Temperatura media	11.1
134650	7	Sololá	701	Sololá	2	El tablón	2	Febrero	2023-02-02T00:00:00	2024-11-06T08:00:00	4	Temperatura máxima	11.1
134651	7	Sololá	701	Sololá	2	El tablón	2	Febrero	2023-02-02T00:00:00	2024-11-06T08:00:00	3	Temperatura mínima	9.3
134652	7	Sololá	701	Sololá	2	El tablón	2	Febrero	2023-02-02T00:00:00	2024-11-06T08:00:00	5	Humedad	72
134653	7	Sololá	701	Sololá	2	El tablón	2	Febrero	2023-02-02T00:00:00	2024-11-06T08:00:00	6	Velocidad del viento	9.7
134654	7	Sololá	701	Sololá	2	El tablón	2	Febrero	2023-02-02T00:00:00	2024-11-06T08:00:00	7	Dirección del viento	9.66
134655	7	Sololá	701	Sololá	2	El tablón	2	Febrero	2023-02-02T00:00:00	2024-11-06T08:00:00	1	Precipitación	0
134656	7	Sololá	701	Sololá	2	El tablón	2	Febrero	2023-02-02T00:00:00	2024-11-06T08:00:00	8	Radiación solar	131
134657	7	Sololá	701	Sololá	2	El tablón	2	Febrero	2023-02-02T00:00:00	2024-11-06T09:00:00	2	Temperatura media	14.5
134658	7	Sololá	701	Sololá	2	El tablón	2	Febrero	2023-02-02T00:00:00	2024-11-06T09:00:00	4	Temperatura máxima	14.5
134659	7	Sololá	701	Sololá	2	El tablón	2	Febrero	2023-02-02T00:00:00	2024-11-06T09:00:00	3	Temperatura mínima	11.1
134660	7	Sololá	701	Sololá	2	El tablón	2	Febrero	2023-02-02T00:00:00	2024-11-06T09:00:00	5	Humedad	57
134661	7	Sololá	701	Sololá	2	El tablón	2	Febrero	2023-02-02T00:00:00	2024-11-06T09:00:00	6	Velocidad del viento	6.4
134662	7	Sololá	701	Sololá	2	El tablón	2	Febrero	2023-02-02T00:00:00	2024-11-06T09:00:00	7	Dirección del viento	6.44
134663	7	Sololá	701	Sololá	2	El tablón	2	Febrero	2023-02-02T00:00:00	2024-11-06T09:00:00	1	Precipitación	0
134664	7	Sololá	701	Sololá	2	El tablón	2	Febrero	2023-02-02T00:00:00	2024-11-06T09:00:00	8	Radiación solar	345
134665	7	Sololá	701	Sololá	2	El tablón	2	Febrero	2023-02-02T00:00:00	2024-11-06T10:00:00	2	Temperatura media	15.8
134666	7	Sololá	701	Sololá	2	El tablón	2	Febrero	2023-02-02T00:00:00	2024-11-06T10:00:00	4	Temperatura máxima	15.8
134667	7	Sololá	701	Sololá	2	El tablón	2	Febrero	2023-02-02T00:00:00	2024-11-06T10:00:00	3	Temperatura mínima	14.5
134668	7	Sololá	701	Sololá	2	El tablón	2	Febrero	2023-02-02T00:00:00	2024-11-06T10:00:00	5	Humedad	51
134669	7	Sololá	701	Sololá	2	El tablón	2	Febrero	2023-02-02T00:00:00	2024-11-06T10:00:00	6	Velocidad del viento	8
134670	7	Sololá	701	Sololá	2	El tablón	2	Febrero	2023-02-02T00:00:00	2024-11-06T10:00:00	7	Dirección del viento	8.05
134671	7	Sololá	701	Sololá	2	El tablón	2	Febrero	2023-02-02T00:00:00	2024-11-06T10:00:00	1	Precipitación	0
134672	7	Sololá	701	Sololá	2	El tablón	2	Febrero	2023-02-02T00:00:00	2024-11-06T10:00:00	8	Radiación solar	555
134673	7	Sololá	701	Sololá	2	El tablón	2	Febrero	2023-02-02T00:00:00	2024-11-06T11:00:00	2	Temperatura media	17.9
134674	7	Sololá	701	Sololá	2	El tablón	2	Febrero	2023-02-02T00:00:00	2024-11-06T11:00:00	4	Temperatura máxima	17.9
134675	7	Sololá	701	Sololá	2	El tablón	2	Febrero	2023-02-02T00:00:00	2024-11-06T11:00:00	3	Temperatura mínima	15.8
134676	7	Sololá	701	Sololá	2	El tablón	2	Febrero	2023-02-02T00:00:00	2024-11-06T11:00:00	5	Humedad	43
134677	7	Sololá	701	Sololá	2	El tablón	2	Febrero	2023-02-02T00:00:00	2024-11-06T11:00:00	6	Velocidad del viento	6.4
134678	7	Sololá	701	Sololá	2	El tablón	2	Febrero	2023-02-02T00:00:00	2024-11-06T11:00:00	7	Dirección del viento	6.44
134679	7	Sololá	701	Sololá	2	El tablón	2	Febrero	2023-02-02T00:00:00	2024-11-06T11:00:00	1	Precipitación	0
134680	7	Sololá	701	Sololá	2	El tablón	2	Febrero	2023-02-02T00:00:00	2024-11-06T11:00:00	8	Radiación solar	712
134681	7	Sololá	701	Sololá	2	El tablón	2	Febrero	2023-02-02T00:00:00	2024-11-06T12:00:00	2	Temperatura media	17.8
134682	7	Sololá	701	Sololá	2	El tablón	2	Febrero	2023-02-02T00:00:00	2024-11-06T12:00:00	4	Temperatura máxima	18.1
134683	7	Sololá	701	Sololá	2	El tablón	2	Febrero	2023-02-02T00:00:00	2024-11-06T12:00:00	3	Temperatura mínima	17.6
134684	7	Sololá	701	Sololá	2	El tablón	2	Febrero	2023-02-02T00:00:00	2024-11-06T12:00:00	5	Humedad	40
134685	7	Sololá	701	Sololá	2	El tablón	2	Febrero	2023-02-02T00:00:00	2024-11-06T12:00:00	6	Velocidad del viento	6.4
134686	7	Sololá	701	Sololá	2	El tablón	2	Febrero	2023-02-02T00:00:00	2024-11-06T12:00:00	7	Dirección del viento	6.44
134687	7	Sololá	701	Sololá	2	El tablón	2	Febrero	2023-02-02T00:00:00	2024-11-06T12:00:00	1	Precipitación	0
134688	7	Sololá	701	Sololá	2	El tablón	2	Febrero	2023-02-02T00:00:00	2024-11-06T12:00:00	8	Radiación solar	702
134689	7	Sololá	701	Sololá	2	El tablón	2	Febrero	2023-02-02T00:00:00	2024-11-06T13:00:00	2	Temperatura media	18.6
134690	7	Sololá	701	Sololá	2	El tablón	2	Febrero	2023-02-02T00:00:00	2024-11-06T13:00:00	4	Temperatura máxima	19.2
134691	7	Sololá	701	Sololá	2	El tablón	2	Febrero	2023-02-02T00:00:00	2024-11-06T13:00:00	3	Temperatura mínima	17.7
134692	7	Sololá	701	Sololá	2	El tablón	2	Febrero	2023-02-02T00:00:00	2024-11-06T13:00:00	5	Humedad	42
134693	7	Sololá	701	Sololá	2	El tablón	2	Febrero	2023-02-02T00:00:00	2024-11-06T13:00:00	6	Velocidad del viento	6.4
134694	7	Sololá	701	Sololá	2	El tablón	2	Febrero	2023-02-02T00:00:00	2024-11-06T13:00:00	7	Dirección del viento	6.44
134695	7	Sololá	701	Sololá	2	El tablón	2	Febrero	2023-02-02T00:00:00	2024-11-06T13:00:00	1	Precipitación	0
134696	7	Sololá	701	Sololá	2	El tablón	2	Febrero	2023-02-02T00:00:00	2024-11-06T13:00:00	8	Radiación solar	817
134697	7	Sololá	701	Sololá	2	El tablón	2	Febrero	2023-02-02T00:00:00	2024-11-06T14:00:00	2	Temperatura media	19
134698	7	Sololá	701	Sololá	2	El tablón	2	Febrero	2023-02-02T00:00:00	2024-11-06T14:00:00	4	Temperatura máxima	19.4
134699	7	Sololá	701	Sololá	2	El tablón	2	Febrero	2023-02-02T00:00:00	2024-11-06T14:00:00	3	Temperatura mínima	18.6
134700	7	Sololá	701	Sololá	2	El tablón	2	Febrero	2023-02-02T00:00:00	2024-11-06T14:00:00	5	Humedad	50
134701	7	Sololá	701	Sololá	2	El tablón	2	Febrero	2023-02-02T00:00:00	2024-11-06T14:00:00	6	Velocidad del viento	9.7
134702	7	Sololá	701	Sololá	2	El tablón	2	Febrero	2023-02-02T00:00:00	2024-11-06T14:00:00	7	Dirección del viento	9.66
134703	7	Sololá	701	Sololá	2	El tablón	2	Febrero	2023-02-02T00:00:00	2024-11-06T14:00:00	1	Precipitación	0
134704	7	Sololá	701	Sololá	2	El tablón	2	Febrero	2023-02-02T00:00:00	2024-11-06T14:00:00	8	Radiación solar	781
134705	7	Sololá	701	Sololá	2	El tablón	2	Febrero	2023-02-02T00:00:00	2024-11-06T15:00:00	2	Temperatura media	18.1
134706	7	Sololá	701	Sololá	2	El tablón	2	Febrero	2023-02-02T00:00:00	2024-11-06T15:00:00	4	Temperatura máxima	19
134707	7	Sololá	701	Sololá	2	El tablón	2	Febrero	2023-02-02T00:00:00	2024-11-06T15:00:00	3	Temperatura mínima	18.1
134708	7	Sololá	701	Sololá	2	El tablón	2	Febrero	2023-02-02T00:00:00	2024-11-06T15:00:00	5	Humedad	61
134709	7	Sololá	701	Sololá	2	El tablón	2	Febrero	2023-02-02T00:00:00	2024-11-06T15:00:00	6	Velocidad del viento	11.3
134710	7	Sololá	701	Sololá	2	El tablón	2	Febrero	2023-02-02T00:00:00	2024-11-06T15:00:00	7	Dirección del viento	11.27
134711	7	Sololá	701	Sololá	2	El tablón	2	Febrero	2023-02-02T00:00:00	2024-11-06T15:00:00	1	Precipitación	0
134712	7	Sololá	701	Sololá	2	El tablón	2	Febrero	2023-02-02T00:00:00	2024-11-06T15:00:00	8	Radiación solar	665
134713	7	Sololá	701	Sololá	2	El tablón	2	Febrero	2023-02-02T00:00:00	2024-11-06T16:00:00	2	Temperatura media	17.6
134714	7	Sololá	701	Sololá	2	El tablón	2	Febrero	2023-02-02T00:00:00	2024-11-06T16:00:00	4	Temperatura máxima	18.3
134715	7	Sololá	701	Sololá	2	El tablón	2	Febrero	2023-02-02T00:00:00	2024-11-06T16:00:00	3	Temperatura mínima	17.5
134716	7	Sololá	701	Sololá	2	El tablón	2	Febrero	2023-02-02T00:00:00	2024-11-06T16:00:00	5	Humedad	70
134717	7	Sololá	701	Sololá	2	El tablón	2	Febrero	2023-02-02T00:00:00	2024-11-06T16:00:00	6	Velocidad del viento	11.3
134718	7	Sololá	701	Sololá	2	El tablón	2	Febrero	2023-02-02T00:00:00	2024-11-06T16:00:00	7	Dirección del viento	11.27
134719	7	Sololá	701	Sololá	2	El tablón	2	Febrero	2023-02-02T00:00:00	2024-11-06T16:00:00	1	Precipitación	0
134720	7	Sololá	701	Sololá	2	El tablón	2	Febrero	2023-02-02T00:00:00	2024-11-06T16:00:00	8	Radiación solar	510
134721	7	Sololá	701	Sololá	2	El tablón	2	Febrero	2023-02-02T00:00:00	2024-11-06T17:00:00	2	Temperatura media	17.7
134722	7	Sololá	701	Sololá	2	El tablón	2	Febrero	2023-02-02T00:00:00	2024-11-06T17:00:00	4	Temperatura máxima	17.8
134723	7	Sololá	701	Sololá	2	El tablón	2	Febrero	2023-02-02T00:00:00	2024-11-06T17:00:00	3	Temperatura mínima	17.1
134724	7	Sololá	701	Sololá	2	El tablón	2	Febrero	2023-02-02T00:00:00	2024-11-06T17:00:00	5	Humedad	31
134725	7	Sololá	701	Sololá	2	El tablón	2	Febrero	2023-02-02T00:00:00	2024-11-06T17:00:00	6	Velocidad del viento	6.4
134726	7	Sololá	701	Sololá	2	El tablón	2	Febrero	2023-02-02T00:00:00	2024-11-06T17:00:00	7	Dirección del viento	6.44
134727	7	Sololá	701	Sololá	2	El tablón	2	Febrero	2023-02-02T00:00:00	2024-11-06T17:00:00	1	Precipitación	0
134728	7	Sololá	701	Sololá	2	El tablón	2	Febrero	2023-02-02T00:00:00	2024-11-06T17:00:00	8	Radiación solar	302
134729	7	Sololá	701	Sololá	2	El tablón	2	Febrero	2023-02-02T00:00:00	2024-11-06T18:00:00	2	Temperatura media	15.2
134730	7	Sololá	701	Sololá	2	El tablón	2	Febrero	2023-02-02T00:00:00	2024-11-06T18:00:00	4	Temperatura máxima	17.8
134731	7	Sololá	701	Sololá	2	El tablón	2	Febrero	2023-02-02T00:00:00	2024-11-06T18:00:00	3	Temperatura mínima	15.2
134732	7	Sololá	701	Sololá	2	El tablón	2	Febrero	2023-02-02T00:00:00	2024-11-06T18:00:00	5	Humedad	46
134733	7	Sololá	701	Sololá	2	El tablón	2	Febrero	2023-02-02T00:00:00	2024-11-06T18:00:00	6	Velocidad del viento	8
134734	7	Sololá	701	Sololá	2	El tablón	2	Febrero	2023-02-02T00:00:00	2024-11-06T18:00:00	7	Dirección del viento	8.05
134735	7	Sololá	701	Sololá	2	El tablón	2	Febrero	2023-02-02T00:00:00	2024-11-06T18:00:00	1	Precipitación	0
134736	7	Sololá	701	Sololá	2	El tablón	2	Febrero	2023-02-02T00:00:00	2024-11-06T18:00:00	8	Radiación solar	83
134737	7	Sololá	701	Sololá	2	El tablón	2	Febrero	2023-02-02T00:00:00	2024-11-06T19:00:00	2	Temperatura media	13.4
134738	7	Sololá	701	Sololá	2	El tablón	2	Febrero	2023-02-02T00:00:00	2024-11-06T19:00:00	4	Temperatura máxima	15.2
134739	7	Sololá	701	Sololá	2	El tablón	2	Febrero	2023-02-02T00:00:00	2024-11-06T19:00:00	3	Temperatura mínima	13.3
134740	7	Sololá	701	Sololá	2	El tablón	2	Febrero	2023-02-02T00:00:00	2024-11-06T19:00:00	5	Humedad	72
134741	7	Sololá	701	Sololá	2	El tablón	2	Febrero	2023-02-02T00:00:00	2024-11-06T19:00:00	6	Velocidad del viento	6.4
134742	7	Sololá	701	Sololá	2	El tablón	2	Febrero	2023-02-02T00:00:00	2024-11-06T19:00:00	7	Dirección del viento	6.44
134743	7	Sololá	701	Sololá	2	El tablón	2	Febrero	2023-02-02T00:00:00	2024-11-06T19:00:00	1	Precipitación	0
134744	7	Sololá	701	Sololá	2	El tablón	2	Febrero	2023-02-02T00:00:00	2024-11-06T19:00:00	8	Radiación solar	0
134745	7	Sololá	701	Sololá	2	El tablón	2	Febrero	2023-02-02T00:00:00	2024-11-06T20:00:00	2	Temperatura media	12
134746	7	Sololá	701	Sololá	2	El tablón	2	Febrero	2023-02-02T00:00:00	2024-11-06T20:00:00	4	Temperatura máxima	13.4
134747	7	Sololá	701	Sololá	2	El tablón	2	Febrero	2023-02-02T00:00:00	2024-11-06T20:00:00	3	Temperatura mínima	12
134748	7	Sololá	701	Sololá	2	El tablón	2	Febrero	2023-02-02T00:00:00	2024-11-06T20:00:00	5	Humedad	81
134749	7	Sololá	701	Sololá	2	El tablón	2	Febrero	2023-02-02T00:00:00	2024-11-06T20:00:00	6	Velocidad del viento	8
134750	7	Sololá	701	Sololá	2	El tablón	2	Febrero	2023-02-02T00:00:00	2024-11-06T20:00:00	7	Dirección del viento	8.05
134751	7	Sololá	701	Sololá	2	El tablón	2	Febrero	2023-02-02T00:00:00	2024-11-06T20:00:00	1	Precipitación	0
134752	7	Sololá	701	Sololá	2	El tablón	2	Febrero	2023-02-02T00:00:00	2024-11-06T20:00:00	8	Radiación solar	0
134753	7	Sololá	701	Sololá	2	El tablón	2	Febrero	2023-02-02T00:00:00	2024-11-06T21:00:00	2	Temperatura media	11.5
134754	7	Sololá	701	Sololá	2	El tablón	2	Febrero	2023-02-02T00:00:00	2024-11-06T21:00:00	4	Temperatura máxima	12.1
134755	7	Sololá	701	Sololá	2	El tablón	2	Febrero	2023-02-02T00:00:00	2024-11-06T21:00:00	3	Temperatura mínima	11.4
134756	7	Sololá	701	Sololá	2	El tablón	2	Febrero	2023-02-02T00:00:00	2024-11-06T21:00:00	5	Humedad	82
134757	7	Sololá	701	Sololá	2	El tablón	2	Febrero	2023-02-02T00:00:00	2024-11-06T21:00:00	6	Velocidad del viento	12.9
134758	7	Sololá	701	Sololá	2	El tablón	2	Febrero	2023-02-02T00:00:00	2024-11-06T21:00:00	7	Dirección del viento	12.87
134759	7	Sololá	701	Sololá	2	El tablón	2	Febrero	2023-02-02T00:00:00	2024-11-06T21:00:00	1	Precipitación	0
134760	7	Sololá	701	Sololá	2	El tablón	2	Febrero	2023-02-02T00:00:00	2024-11-06T21:00:00	8	Radiación solar	0
134761	7	Sololá	701	Sololá	2	El tablón	2	Febrero	2023-02-02T00:00:00	2024-11-06T22:00:00	2	Temperatura media	10.7
134762	7	Sololá	701	Sololá	2	El tablón	2	Febrero	2023-02-02T00:00:00	2024-11-06T22:00:00	4	Temperatura máxima	11.6
134763	7	Sololá	701	Sololá	2	El tablón	2	Febrero	2023-02-02T00:00:00	2024-11-06T22:00:00	3	Temperatura mínima	10.7
134764	7	Sololá	701	Sololá	2	El tablón	2	Febrero	2023-02-02T00:00:00	2024-11-06T22:00:00	5	Humedad	84
134765	7	Sololá	701	Sololá	2	El tablón	2	Febrero	2023-02-02T00:00:00	2024-11-06T22:00:00	6	Velocidad del viento	12.9
134766	7	Sololá	701	Sololá	2	El tablón	2	Febrero	2023-02-02T00:00:00	2024-11-06T22:00:00	7	Dirección del viento	12.87
134767	7	Sololá	701	Sololá	2	El tablón	2	Febrero	2023-02-02T00:00:00	2024-11-06T22:00:00	1	Precipitación	0
134768	7	Sololá	701	Sololá	2	El tablón	2	Febrero	2023-02-02T00:00:00	2024-11-06T22:00:00	8	Radiación solar	0
134769	7	Sololá	701	Sololá	2	El tablón	2	Febrero	2023-02-02T00:00:00	2024-11-06T23:00:00	2	Temperatura media	10.1
134770	7	Sololá	701	Sololá	2	El tablón	2	Febrero	2023-02-02T00:00:00	2024-11-06T23:00:00	4	Temperatura máxima	10.7
134771	7	Sololá	701	Sololá	2	El tablón	2	Febrero	2023-02-02T00:00:00	2024-11-06T23:00:00	3	Temperatura mínima	10.1
134772	7	Sololá	701	Sololá	2	El tablón	2	Febrero	2023-02-02T00:00:00	2024-11-06T23:00:00	5	Humedad	87
134773	7	Sololá	701	Sololá	2	El tablón	2	Febrero	2023-02-02T00:00:00	2024-11-06T23:00:00	6	Velocidad del viento	14.5
134774	7	Sololá	701	Sololá	2	El tablón	2	Febrero	2023-02-02T00:00:00	2024-11-06T23:00:00	7	Dirección del viento	14.48
134775	7	Sololá	701	Sololá	2	El tablón	2	Febrero	2023-02-02T00:00:00	2024-11-06T23:00:00	1	Precipitación	0
134776	7	Sololá	701	Sololá	2	El tablón	2	Febrero	2023-02-02T00:00:00	2024-11-06T23:00:00	8	Radiación solar	0
134777	7	Sololá	701	Sololá	2	El tablón	2	Febrero	2023-03-02T00:00:00	2024-11-06T00:00:00	2	Temperatura media	9.5
134778	7	Sololá	701	Sololá	2	El tablón	2	Febrero	2023-03-02T00:00:00	2024-11-06T00:00:00	4	Temperatura máxima	10.1
134779	7	Sololá	701	Sololá	2	El tablón	2	Febrero	2023-03-02T00:00:00	2024-11-06T00:00:00	3	Temperatura mínima	9.5
134780	7	Sololá	701	Sololá	2	El tablón	2	Febrero	2023-03-02T00:00:00	2024-11-06T00:00:00	5	Humedad	88
134781	7	Sololá	701	Sololá	2	El tablón	2	Febrero	2023-03-02T00:00:00	2024-11-06T00:00:00	6	Velocidad del viento	14.5
134782	7	Sololá	701	Sololá	2	El tablón	2	Febrero	2023-03-02T00:00:00	2024-11-06T00:00:00	7	Dirección del viento	14.48
134783	7	Sololá	701	Sololá	2	El tablón	2	Febrero	2023-03-02T00:00:00	2024-11-06T00:00:00	1	Precipitación	0
134784	7	Sololá	701	Sololá	2	El tablón	2	Febrero	2023-03-02T00:00:00	2024-11-06T00:00:00	8	Radiación solar	0
134785	7	Sololá	701	Sololá	2	El tablón	2	Febrero	2023-03-02T00:00:00	2024-11-06T01:00:00	2	Temperatura media	8.9
134786	7	Sololá	701	Sololá	2	El tablón	2	Febrero	2023-03-02T00:00:00	2024-11-06T01:00:00	4	Temperatura máxima	9.5
134787	7	Sololá	701	Sololá	2	El tablón	2	Febrero	2023-03-02T00:00:00	2024-11-06T01:00:00	3	Temperatura mínima	8.9
134788	7	Sololá	701	Sololá	2	El tablón	2	Febrero	2023-03-02T00:00:00	2024-11-06T01:00:00	5	Humedad	89
134789	7	Sololá	701	Sololá	2	El tablón	2	Febrero	2023-03-02T00:00:00	2024-11-06T01:00:00	6	Velocidad del viento	12.9
134790	7	Sololá	701	Sololá	2	El tablón	2	Febrero	2023-03-02T00:00:00	2024-11-06T01:00:00	7	Dirección del viento	12.87
134791	7	Sololá	701	Sololá	2	El tablón	2	Febrero	2023-03-02T00:00:00	2024-11-06T01:00:00	1	Precipitación	0
134792	7	Sololá	701	Sololá	2	El tablón	2	Febrero	2023-03-02T00:00:00	2024-11-06T01:00:00	8	Radiación solar	0
134793	7	Sololá	701	Sololá	2	El tablón	2	Febrero	2023-03-02T00:00:00	2024-11-06T02:00:00	2	Temperatura media	9.1
134794	7	Sololá	701	Sololá	2	El tablón	2	Febrero	2023-03-02T00:00:00	2024-11-06T02:00:00	4	Temperatura máxima	9.1
134795	7	Sololá	701	Sololá	2	El tablón	2	Febrero	2023-03-02T00:00:00	2024-11-06T02:00:00	3	Temperatura mínima	8.9
134796	7	Sololá	701	Sololá	2	El tablón	2	Febrero	2023-03-02T00:00:00	2024-11-06T02:00:00	5	Humedad	84
134797	7	Sololá	701	Sololá	2	El tablón	2	Febrero	2023-03-02T00:00:00	2024-11-06T02:00:00	6	Velocidad del viento	17.7
134798	7	Sololá	701	Sololá	2	El tablón	2	Febrero	2023-03-02T00:00:00	2024-11-06T02:00:00	7	Dirección del viento	17.7
134799	7	Sololá	701	Sololá	2	El tablón	2	Febrero	2023-03-02T00:00:00	2024-11-06T02:00:00	1	Precipitación	0
134800	7	Sololá	701	Sololá	2	El tablón	2	Febrero	2023-03-02T00:00:00	2024-11-06T02:00:00	8	Radiación solar	0
134801	7	Sololá	701	Sololá	2	El tablón	2	Febrero	2023-03-02T00:00:00	2024-11-06T03:00:00	2	Temperatura media	9.1
134802	7	Sololá	701	Sololá	2	El tablón	2	Febrero	2023-03-02T00:00:00	2024-11-06T03:00:00	4	Temperatura máxima	9.2
134803	7	Sololá	701	Sololá	2	El tablón	2	Febrero	2023-03-02T00:00:00	2024-11-06T03:00:00	3	Temperatura mínima	8.8
134804	7	Sololá	701	Sololá	2	El tablón	2	Febrero	2023-03-02T00:00:00	2024-11-06T03:00:00	5	Humedad	78
134805	7	Sololá	701	Sololá	2	El tablón	2	Febrero	2023-03-02T00:00:00	2024-11-06T03:00:00	6	Velocidad del viento	11.3
134806	7	Sololá	701	Sololá	2	El tablón	2	Febrero	2023-03-02T00:00:00	2024-11-06T03:00:00	7	Dirección del viento	11.27
134807	7	Sololá	701	Sololá	2	El tablón	2	Febrero	2023-03-02T00:00:00	2024-11-06T03:00:00	1	Precipitación	0
134808	7	Sololá	701	Sololá	2	El tablón	2	Febrero	2023-03-02T00:00:00	2024-11-06T03:00:00	8	Radiación solar	0
134809	7	Sololá	701	Sololá	2	El tablón	2	Febrero	2023-03-02T00:00:00	2024-11-06T04:00:00	2	Temperatura media	8.8
134810	7	Sololá	701	Sololá	2	El tablón	2	Febrero	2023-03-02T00:00:00	2024-11-06T04:00:00	4	Temperatura máxima	9.3
134811	7	Sololá	701	Sololá	2	El tablón	2	Febrero	2023-03-02T00:00:00	2024-11-06T04:00:00	3	Temperatura mínima	8.8
134812	7	Sololá	701	Sololá	2	El tablón	2	Febrero	2023-03-02T00:00:00	2024-11-06T04:00:00	5	Humedad	81
134813	7	Sololá	701	Sololá	2	El tablón	2	Febrero	2023-03-02T00:00:00	2024-11-06T04:00:00	6	Velocidad del viento	16.1
134814	7	Sololá	701	Sololá	2	El tablón	2	Febrero	2023-03-02T00:00:00	2024-11-06T04:00:00	7	Dirección del viento	16.09
134815	7	Sololá	701	Sololá	2	El tablón	2	Febrero	2023-03-02T00:00:00	2024-11-06T04:00:00	1	Precipitación	0
134816	7	Sololá	701	Sololá	2	El tablón	2	Febrero	2023-03-02T00:00:00	2024-11-06T04:00:00	8	Radiación solar	0
134817	7	Sololá	701	Sololá	2	El tablón	2	Febrero	2023-03-02T00:00:00	2024-11-06T05:00:00	2	Temperatura media	8.8
134818	7	Sololá	701	Sololá	2	El tablón	2	Febrero	2023-03-02T00:00:00	2024-11-06T05:00:00	4	Temperatura máxima	8.9
134819	7	Sololá	701	Sololá	2	El tablón	2	Febrero	2023-03-02T00:00:00	2024-11-06T05:00:00	3	Temperatura mínima	8.8
134820	7	Sololá	701	Sololá	2	El tablón	2	Febrero	2023-03-02T00:00:00	2024-11-06T05:00:00	5	Humedad	81
134821	7	Sololá	701	Sololá	2	El tablón	2	Febrero	2023-03-02T00:00:00	2024-11-06T05:00:00	6	Velocidad del viento	17.7
134822	7	Sololá	701	Sololá	2	El tablón	2	Febrero	2023-03-02T00:00:00	2024-11-06T05:00:00	7	Dirección del viento	17.7
134823	7	Sololá	701	Sololá	2	El tablón	2	Febrero	2023-03-02T00:00:00	2024-11-06T05:00:00	1	Precipitación	0
134824	7	Sololá	701	Sololá	2	El tablón	2	Febrero	2023-03-02T00:00:00	2024-11-06T05:00:00	8	Radiación solar	0
134825	7	Sololá	701	Sololá	2	El tablón	2	Febrero	2023-03-02T00:00:00	2024-11-06T06:00:00	2	Temperatura media	9.5
134826	7	Sololá	701	Sololá	2	El tablón	2	Febrero	2023-03-02T00:00:00	2024-11-06T06:00:00	4	Temperatura máxima	9.6
134827	7	Sololá	701	Sololá	2	El tablón	2	Febrero	2023-03-02T00:00:00	2024-11-06T06:00:00	3	Temperatura mínima	8.8
134828	7	Sololá	701	Sololá	2	El tablón	2	Febrero	2023-03-02T00:00:00	2024-11-06T06:00:00	5	Humedad	82
134829	7	Sololá	701	Sololá	2	El tablón	2	Febrero	2023-03-02T00:00:00	2024-11-06T06:00:00	6	Velocidad del viento	17.7
134830	7	Sololá	701	Sololá	2	El tablón	2	Febrero	2023-03-02T00:00:00	2024-11-06T06:00:00	7	Dirección del viento	17.7
134831	7	Sololá	701	Sololá	2	El tablón	2	Febrero	2023-03-02T00:00:00	2024-11-06T06:00:00	1	Precipitación	0
134832	7	Sololá	701	Sololá	2	El tablón	2	Febrero	2023-03-02T00:00:00	2024-11-06T06:00:00	8	Radiación solar	0
134833	7	Sololá	701	Sololá	2	El tablón	2	Febrero	2023-03-02T00:00:00	2024-11-06T07:00:00	2	Temperatura media	9.5
134834	7	Sololá	701	Sololá	2	El tablón	2	Febrero	2023-03-02T00:00:00	2024-11-06T07:00:00	4	Temperatura máxima	9.6
134835	7	Sololá	701	Sololá	2	El tablón	2	Febrero	2023-03-02T00:00:00	2024-11-06T07:00:00	3	Temperatura mínima	9.3
134836	7	Sololá	701	Sololá	2	El tablón	2	Febrero	2023-03-02T00:00:00	2024-11-06T07:00:00	5	Humedad	81
134837	7	Sololá	701	Sololá	2	El tablón	2	Febrero	2023-03-02T00:00:00	2024-11-06T07:00:00	6	Velocidad del viento	16.1
134838	7	Sololá	701	Sololá	2	El tablón	2	Febrero	2023-03-02T00:00:00	2024-11-06T07:00:00	7	Dirección del viento	16.09
134839	7	Sololá	701	Sololá	2	El tablón	2	Febrero	2023-03-02T00:00:00	2024-11-06T07:00:00	1	Precipitación	0
134840	7	Sololá	701	Sololá	2	El tablón	2	Febrero	2023-03-02T00:00:00	2024-11-06T07:00:00	8	Radiación solar	5
134841	7	Sololá	701	Sololá	2	El tablón	2	Febrero	2023-03-02T00:00:00	2024-11-06T08:00:00	2	Temperatura media	11.6
134842	7	Sololá	701	Sololá	2	El tablón	2	Febrero	2023-03-02T00:00:00	2024-11-06T08:00:00	4	Temperatura máxima	11.6
134843	7	Sololá	701	Sololá	2	El tablón	2	Febrero	2023-03-02T00:00:00	2024-11-06T08:00:00	3	Temperatura mínima	9.5
134844	7	Sololá	701	Sololá	2	El tablón	2	Febrero	2023-03-02T00:00:00	2024-11-06T08:00:00	5	Humedad	70
134845	7	Sololá	701	Sololá	2	El tablón	2	Febrero	2023-03-02T00:00:00	2024-11-06T08:00:00	6	Velocidad del viento	19.3
134846	7	Sololá	701	Sololá	2	El tablón	2	Febrero	2023-03-02T00:00:00	2024-11-06T08:00:00	7	Dirección del viento	19.31
134847	7	Sololá	701	Sololá	2	El tablón	2	Febrero	2023-03-02T00:00:00	2024-11-06T08:00:00	1	Precipitación	0
134848	7	Sololá	701	Sololá	2	El tablón	2	Febrero	2023-03-02T00:00:00	2024-11-06T08:00:00	8	Radiación solar	130
134849	7	Sololá	701	Sololá	2	El tablón	2	Febrero	2023-03-02T00:00:00	2024-11-06T09:00:00	2	Temperatura media	12.6
134850	7	Sololá	701	Sololá	2	El tablón	2	Febrero	2023-03-02T00:00:00	2024-11-06T09:00:00	4	Temperatura máxima	12.7
134851	7	Sololá	701	Sololá	2	El tablón	2	Febrero	2023-03-02T00:00:00	2024-11-06T09:00:00	3	Temperatura mínima	11.6
134852	7	Sololá	701	Sololá	2	El tablón	2	Febrero	2023-03-02T00:00:00	2024-11-06T09:00:00	5	Humedad	72
134853	7	Sololá	701	Sololá	2	El tablón	2	Febrero	2023-03-02T00:00:00	2024-11-06T09:00:00	6	Velocidad del viento	22.5
134854	7	Sololá	701	Sololá	2	El tablón	2	Febrero	2023-03-02T00:00:00	2024-11-06T09:00:00	7	Dirección del viento	22.53
134855	7	Sololá	701	Sololá	2	El tablón	2	Febrero	2023-03-02T00:00:00	2024-11-06T09:00:00	1	Precipitación	0
134856	7	Sololá	701	Sololá	2	El tablón	2	Febrero	2023-03-02T00:00:00	2024-11-06T09:00:00	8	Radiación solar	341
134857	7	Sololá	701	Sololá	2	El tablón	2	Febrero	2023-03-02T00:00:00	2024-11-06T10:00:00	2	Temperatura media	13.8
134858	7	Sololá	701	Sololá	2	El tablón	2	Febrero	2023-03-02T00:00:00	2024-11-06T10:00:00	4	Temperatura máxima	13.8
134859	7	Sololá	701	Sololá	2	El tablón	2	Febrero	2023-03-02T00:00:00	2024-11-06T10:00:00	3	Temperatura mínima	12.6
134860	7	Sololá	701	Sololá	2	El tablón	2	Febrero	2023-03-02T00:00:00	2024-11-06T10:00:00	5	Humedad	68
134861	7	Sololá	701	Sololá	2	El tablón	2	Febrero	2023-03-02T00:00:00	2024-11-06T10:00:00	6	Velocidad del viento	22.5
134862	7	Sololá	701	Sololá	2	El tablón	2	Febrero	2023-03-02T00:00:00	2024-11-06T10:00:00	7	Dirección del viento	22.53
134863	7	Sololá	701	Sololá	2	El tablón	2	Febrero	2023-03-02T00:00:00	2024-11-06T10:00:00	1	Precipitación	0
134864	7	Sololá	701	Sololá	2	El tablón	2	Febrero	2023-03-02T00:00:00	2024-11-06T10:00:00	8	Radiación solar	551
134865	7	Sololá	701	Sololá	2	El tablón	2	Febrero	2023-03-02T00:00:00	2024-11-06T11:00:00	2	Temperatura media	13.9
134866	7	Sololá	701	Sololá	2	El tablón	2	Febrero	2023-03-02T00:00:00	2024-11-06T11:00:00	4	Temperatura máxima	14.1
134867	7	Sololá	701	Sololá	2	El tablón	2	Febrero	2023-03-02T00:00:00	2024-11-06T11:00:00	3	Temperatura mínima	13.8
134868	7	Sololá	701	Sololá	2	El tablón	2	Febrero	2023-03-02T00:00:00	2024-11-06T11:00:00	5	Humedad	73
134869	7	Sololá	701	Sololá	2	El tablón	2	Febrero	2023-03-02T00:00:00	2024-11-06T11:00:00	6	Velocidad del viento	20.9
134870	7	Sololá	701	Sololá	2	El tablón	2	Febrero	2023-03-02T00:00:00	2024-11-06T11:00:00	7	Dirección del viento	20.92
134871	7	Sololá	701	Sololá	2	El tablón	2	Febrero	2023-03-02T00:00:00	2024-11-06T11:00:00	1	Precipitación	0
134872	7	Sololá	701	Sololá	2	El tablón	2	Febrero	2023-03-02T00:00:00	2024-11-06T11:00:00	8	Radiación solar	702
134873	7	Sololá	701	Sololá	2	El tablón	2	Febrero	2023-03-02T00:00:00	2024-11-06T12:00:00	2	Temperatura media	14.3
134874	7	Sololá	701	Sololá	2	El tablón	2	Febrero	2023-03-02T00:00:00	2024-11-06T12:00:00	4	Temperatura máxima	14.3
134875	7	Sololá	701	Sololá	2	El tablón	2	Febrero	2023-03-02T00:00:00	2024-11-06T12:00:00	3	Temperatura mínima	13.6
134876	7	Sololá	701	Sololá	2	El tablón	2	Febrero	2023-03-02T00:00:00	2024-11-06T12:00:00	5	Humedad	74
134877	7	Sololá	701	Sololá	2	El tablón	2	Febrero	2023-03-02T00:00:00	2024-11-06T12:00:00	6	Velocidad del viento	19.3
134878	7	Sololá	701	Sololá	2	El tablón	2	Febrero	2023-03-02T00:00:00	2024-11-06T12:00:00	7	Dirección del viento	19.31
134879	7	Sololá	701	Sololá	2	El tablón	2	Febrero	2023-03-02T00:00:00	2024-11-06T12:00:00	1	Precipitación	0
134880	7	Sololá	701	Sololá	2	El tablón	2	Febrero	2023-03-02T00:00:00	2024-11-06T12:00:00	8	Radiación solar	707
134881	7	Sololá	701	Sololá	2	El tablón	2	Febrero	2023-03-02T00:00:00	2024-11-06T13:00:00	2	Temperatura media	13.3
134882	7	Sololá	701	Sololá	2	El tablón	2	Febrero	2023-03-02T00:00:00	2024-11-06T13:00:00	4	Temperatura máxima	14.3
134883	7	Sololá	701	Sololá	2	El tablón	2	Febrero	2023-03-02T00:00:00	2024-11-06T13:00:00	3	Temperatura mínima	12.2
134884	7	Sololá	701	Sololá	2	El tablón	2	Febrero	2023-03-02T00:00:00	2024-11-06T13:00:00	5	Humedad	78
134885	7	Sololá	701	Sololá	2	El tablón	2	Febrero	2023-03-02T00:00:00	2024-11-06T13:00:00	6	Velocidad del viento	20.9
134886	7	Sololá	701	Sololá	2	El tablón	2	Febrero	2023-03-02T00:00:00	2024-11-06T13:00:00	7	Dirección del viento	20.92
134887	7	Sololá	701	Sololá	2	El tablón	2	Febrero	2023-03-02T00:00:00	2024-11-06T13:00:00	1	Precipitación	0
134888	7	Sololá	701	Sololá	2	El tablón	2	Febrero	2023-03-02T00:00:00	2024-11-06T13:00:00	8	Radiación solar	491
134889	7	Sololá	701	Sololá	2	El tablón	2	Febrero	2023-03-02T00:00:00	2024-11-06T14:00:00	2	Temperatura media	10.7
134890	7	Sololá	701	Sololá	2	El tablón	2	Febrero	2023-03-02T00:00:00	2024-11-06T14:00:00	4	Temperatura máxima	13.3
134891	7	Sololá	701	Sololá	2	El tablón	2	Febrero	2023-03-02T00:00:00	2024-11-06T14:00:00	3	Temperatura mínima	10.7
134892	7	Sololá	701	Sololá	2	El tablón	2	Febrero	2023-03-02T00:00:00	2024-11-06T14:00:00	5	Humedad	87
134893	7	Sololá	701	Sololá	2	El tablón	2	Febrero	2023-03-02T00:00:00	2024-11-06T14:00:00	6	Velocidad del viento	16.1
134894	7	Sololá	701	Sololá	2	El tablón	2	Febrero	2023-03-02T00:00:00	2024-11-06T14:00:00	7	Dirección del viento	16.09
134895	7	Sololá	701	Sololá	2	El tablón	2	Febrero	2023-03-02T00:00:00	2024-11-06T14:00:00	1	Precipitación	0
134896	7	Sololá	701	Sololá	2	El tablón	2	Febrero	2023-03-02T00:00:00	2024-11-06T14:00:00	8	Radiación solar	157
134897	7	Sololá	701	Sololá	2	El tablón	2	Febrero	2023-03-02T00:00:00	2024-11-06T15:00:00	2	Temperatura media	10.6
134898	7	Sololá	701	Sololá	2	El tablón	2	Febrero	2023-03-02T00:00:00	2024-11-06T15:00:00	4	Temperatura máxima	10.7
134899	7	Sololá	701	Sololá	2	El tablón	2	Febrero	2023-03-02T00:00:00	2024-11-06T15:00:00	3	Temperatura mínima	10.2
134900	7	Sololá	701	Sololá	2	El tablón	2	Febrero	2023-03-02T00:00:00	2024-11-06T15:00:00	5	Humedad	86
134901	7	Sololá	701	Sololá	2	El tablón	2	Febrero	2023-03-02T00:00:00	2024-11-06T15:00:00	6	Velocidad del viento	16.1
134902	7	Sololá	701	Sololá	2	El tablón	2	Febrero	2023-03-02T00:00:00	2024-11-06T15:00:00	7	Dirección del viento	16.09
134903	7	Sololá	701	Sololá	2	El tablón	2	Febrero	2023-03-02T00:00:00	2024-11-06T15:00:00	1	Precipitación	0
134904	7	Sololá	701	Sololá	2	El tablón	2	Febrero	2023-03-02T00:00:00	2024-11-06T15:00:00	8	Radiación solar	86
134905	7	Sololá	701	Sololá	2	El tablón	2	Febrero	2023-03-02T00:00:00	2024-11-06T16:00:00	2	Temperatura media	10.2
134906	7	Sololá	701	Sololá	2	El tablón	2	Febrero	2023-03-02T00:00:00	2024-11-06T16:00:00	4	Temperatura máxima	10.6
134907	7	Sololá	701	Sololá	2	El tablón	2	Febrero	2023-03-02T00:00:00	2024-11-06T16:00:00	3	Temperatura mínima	10.2
134908	7	Sololá	701	Sololá	2	El tablón	2	Febrero	2023-03-02T00:00:00	2024-11-06T16:00:00	5	Humedad	87
134909	7	Sololá	701	Sololá	2	El tablón	2	Febrero	2023-03-02T00:00:00	2024-11-06T16:00:00	6	Velocidad del viento	19.3
134910	7	Sololá	701	Sololá	2	El tablón	2	Febrero	2023-03-02T00:00:00	2024-11-06T16:00:00	7	Dirección del viento	19.31
134911	7	Sololá	701	Sololá	2	El tablón	2	Febrero	2023-03-02T00:00:00	2024-11-06T16:00:00	1	Precipitación	0
134912	7	Sololá	701	Sololá	2	El tablón	2	Febrero	2023-03-02T00:00:00	2024-11-06T16:00:00	8	Radiación solar	156
134913	7	Sololá	701	Sololá	2	El tablón	2	Febrero	2023-03-02T00:00:00	2024-11-06T17:00:00	2	Temperatura media	10.8
134914	7	Sololá	701	Sololá	2	El tablón	2	Febrero	2023-03-02T00:00:00	2024-11-06T17:00:00	4	Temperatura máxima	11.1
134915	7	Sololá	701	Sololá	2	El tablón	2	Febrero	2023-03-02T00:00:00	2024-11-06T17:00:00	3	Temperatura mínima	10.1
134916	7	Sololá	701	Sololá	2	El tablón	2	Febrero	2023-03-02T00:00:00	2024-11-06T17:00:00	5	Humedad	81
134917	7	Sololá	701	Sololá	2	El tablón	2	Febrero	2023-03-02T00:00:00	2024-11-06T17:00:00	6	Velocidad del viento	20.9
134918	7	Sololá	701	Sololá	2	El tablón	2	Febrero	2023-03-02T00:00:00	2024-11-06T17:00:00	7	Dirección del viento	20.92
134919	7	Sololá	701	Sololá	2	El tablón	2	Febrero	2023-03-02T00:00:00	2024-11-06T17:00:00	1	Precipitación	0
134920	7	Sololá	701	Sololá	2	El tablón	2	Febrero	2023-03-02T00:00:00	2024-11-06T17:00:00	8	Radiación solar	134
134921	7	Sololá	701	Sololá	2	El tablón	2	Febrero	2023-03-02T00:00:00	2024-11-06T18:00:00	2	Temperatura media	10
134922	7	Sololá	701	Sololá	2	El tablón	2	Febrero	2023-03-02T00:00:00	2024-11-06T18:00:00	4	Temperatura máxima	10.8
134923	7	Sololá	701	Sololá	2	El tablón	2	Febrero	2023-03-02T00:00:00	2024-11-06T18:00:00	3	Temperatura mínima	10
134924	7	Sololá	701	Sololá	2	El tablón	2	Febrero	2023-03-02T00:00:00	2024-11-06T18:00:00	5	Humedad	86
134925	7	Sololá	701	Sololá	2	El tablón	2	Febrero	2023-03-02T00:00:00	2024-11-06T18:00:00	6	Velocidad del viento	22.5
134926	7	Sololá	701	Sololá	2	El tablón	2	Febrero	2023-03-02T00:00:00	2024-11-06T18:00:00	7	Dirección del viento	22.53
134927	7	Sololá	701	Sololá	2	El tablón	2	Febrero	2023-03-02T00:00:00	2024-11-06T18:00:00	1	Precipitación	0
134928	7	Sololá	701	Sololá	2	El tablón	2	Febrero	2023-03-02T00:00:00	2024-11-06T18:00:00	8	Radiación solar	33
134929	7	Sololá	701	Sololá	2	El tablón	2	Febrero	2023-03-02T00:00:00	2024-11-06T19:00:00	2	Temperatura media	9.9
134930	7	Sololá	701	Sololá	2	El tablón	2	Febrero	2023-03-02T00:00:00	2024-11-06T19:00:00	4	Temperatura máxima	10.1
134931	7	Sololá	701	Sololá	2	El tablón	2	Febrero	2023-03-02T00:00:00	2024-11-06T19:00:00	3	Temperatura mínima	9.7
134932	7	Sololá	701	Sololá	2	El tablón	2	Febrero	2023-03-02T00:00:00	2024-11-06T19:00:00	5	Humedad	85
134933	7	Sololá	701	Sololá	2	El tablón	2	Febrero	2023-03-02T00:00:00	2024-11-06T19:00:00	6	Velocidad del viento	24.1
134934	7	Sololá	701	Sololá	2	El tablón	2	Febrero	2023-03-02T00:00:00	2024-11-06T19:00:00	7	Dirección del viento	24.14
134935	7	Sololá	701	Sololá	2	El tablón	2	Febrero	2023-03-02T00:00:00	2024-11-06T19:00:00	1	Precipitación	0
134936	7	Sololá	701	Sololá	2	El tablón	2	Febrero	2023-03-02T00:00:00	2024-11-06T19:00:00	8	Radiación solar	0
134937	7	Sololá	701	Sololá	2	El tablón	2	Febrero	2023-03-02T00:00:00	2024-11-06T20:00:00	2	Temperatura media	9.9
134938	7	Sololá	701	Sololá	2	El tablón	2	Febrero	2023-03-02T00:00:00	2024-11-06T20:00:00	4	Temperatura máxima	10
134939	7	Sololá	701	Sololá	2	El tablón	2	Febrero	2023-03-02T00:00:00	2024-11-06T20:00:00	3	Temperatura mínima	9.8
134940	7	Sololá	701	Sololá	2	El tablón	2	Febrero	2023-03-02T00:00:00	2024-11-06T20:00:00	5	Humedad	85
134941	7	Sololá	701	Sololá	2	El tablón	2	Febrero	2023-03-02T00:00:00	2024-11-06T20:00:00	6	Velocidad del viento	24.1
134942	7	Sololá	701	Sololá	2	El tablón	2	Febrero	2023-03-02T00:00:00	2024-11-06T20:00:00	7	Dirección del viento	24.14
134943	7	Sololá	701	Sololá	2	El tablón	2	Febrero	2023-03-02T00:00:00	2024-11-06T20:00:00	1	Precipitación	0
134944	7	Sololá	701	Sololá	2	El tablón	2	Febrero	2023-03-02T00:00:00	2024-11-06T20:00:00	8	Radiación solar	0
134945	7	Sololá	701	Sololá	2	El tablón	2	Febrero	2023-03-02T00:00:00	2024-11-06T21:00:00	2	Temperatura media	10.1
134946	7	Sololá	701	Sololá	2	El tablón	2	Febrero	2023-03-02T00:00:00	2024-11-06T21:00:00	4	Temperatura máxima	10.2
134947	7	Sololá	701	Sololá	2	El tablón	2	Febrero	2023-03-02T00:00:00	2024-11-06T21:00:00	3	Temperatura mínima	9.9
134948	7	Sololá	701	Sololá	2	El tablón	2	Febrero	2023-03-02T00:00:00	2024-11-06T21:00:00	5	Humedad	83
134949	7	Sololá	701	Sololá	2	El tablón	2	Febrero	2023-03-02T00:00:00	2024-11-06T21:00:00	6	Velocidad del viento	24.1
134950	7	Sololá	701	Sololá	2	El tablón	2	Febrero	2023-03-02T00:00:00	2024-11-06T21:00:00	7	Dirección del viento	24.14
134951	7	Sololá	701	Sololá	2	El tablón	2	Febrero	2023-03-02T00:00:00	2024-11-06T21:00:00	1	Precipitación	0
134952	7	Sololá	701	Sololá	2	El tablón	2	Febrero	2023-03-02T00:00:00	2024-11-06T21:00:00	8	Radiación solar	0
134953	7	Sololá	701	Sololá	2	El tablón	2	Febrero	2023-03-02T00:00:00	2024-11-06T22:00:00	2	Temperatura media	9.4
134954	7	Sololá	701	Sololá	2	El tablón	2	Febrero	2023-03-02T00:00:00	2024-11-06T22:00:00	4	Temperatura máxima	10.2
134955	7	Sololá	701	Sololá	2	El tablón	2	Febrero	2023-03-02T00:00:00	2024-11-06T22:00:00	3	Temperatura mínima	9.3
134956	7	Sololá	701	Sololá	2	El tablón	2	Febrero	2023-03-02T00:00:00	2024-11-06T22:00:00	5	Humedad	88
134957	7	Sololá	701	Sololá	2	El tablón	2	Febrero	2023-03-02T00:00:00	2024-11-06T22:00:00	6	Velocidad del viento	24.1
134958	7	Sololá	701	Sololá	2	El tablón	2	Febrero	2023-03-02T00:00:00	2024-11-06T22:00:00	7	Dirección del viento	24.14
134959	7	Sololá	701	Sololá	2	El tablón	2	Febrero	2023-03-02T00:00:00	2024-11-06T22:00:00	1	Precipitación	0
134960	7	Sololá	701	Sololá	2	El tablón	2	Febrero	2023-03-02T00:00:00	2024-11-06T22:00:00	8	Radiación solar	0
134961	7	Sololá	701	Sololá	2	El tablón	2	Febrero	2023-03-02T00:00:00	2024-11-06T23:00:00	2	Temperatura media	9.2
134962	7	Sololá	701	Sololá	2	El tablón	2	Febrero	2023-03-02T00:00:00	2024-11-06T23:00:00	4	Temperatura máxima	9.4
134963	7	Sololá	701	Sololá	2	El tablón	2	Febrero	2023-03-02T00:00:00	2024-11-06T23:00:00	3	Temperatura mínima	9.2
134964	7	Sololá	701	Sololá	2	El tablón	2	Febrero	2023-03-02T00:00:00	2024-11-06T23:00:00	5	Humedad	90
134965	7	Sololá	701	Sololá	2	El tablón	2	Febrero	2023-03-02T00:00:00	2024-11-06T23:00:00	6	Velocidad del viento	24.1
134966	7	Sololá	701	Sololá	2	El tablón	2	Febrero	2023-03-02T00:00:00	2024-11-06T23:00:00	7	Dirección del viento	24.14
134967	7	Sololá	701	Sololá	2	El tablón	2	Febrero	2023-03-02T00:00:00	2024-11-06T23:00:00	1	Precipitación	0
134968	7	Sololá	701	Sololá	2	El tablón	2	Febrero	2023-03-02T00:00:00	2024-11-06T23:00:00	8	Radiación solar	0
134969	7	Sololá	701	Sololá	2	El tablón	2	Febrero	2023-04-02T00:00:00	2024-11-06T00:00:00	2	Temperatura media	9.6
134970	7	Sololá	701	Sololá	2	El tablón	2	Febrero	2023-04-02T00:00:00	2024-11-06T00:00:00	4	Temperatura máxima	9.6
134971	7	Sololá	701	Sololá	2	El tablón	2	Febrero	2023-04-02T00:00:00	2024-11-06T00:00:00	3	Temperatura mínima	9.2
134972	7	Sololá	701	Sololá	2	El tablón	2	Febrero	2023-04-02T00:00:00	2024-11-06T00:00:00	5	Humedad	90
134973	7	Sololá	701	Sololá	2	El tablón	2	Febrero	2023-04-02T00:00:00	2024-11-06T00:00:00	6	Velocidad del viento	14.5
134974	7	Sololá	701	Sololá	2	El tablón	2	Febrero	2023-04-02T00:00:00	2024-11-06T00:00:00	7	Dirección del viento	14.48
134975	7	Sololá	701	Sololá	2	El tablón	2	Febrero	2023-04-02T00:00:00	2024-11-06T00:00:00	1	Precipitación	0.4
134976	7	Sololá	701	Sololá	2	El tablón	2	Febrero	2023-04-02T00:00:00	2024-11-06T00:00:00	8	Radiación solar	0
134977	7	Sololá	701	Sololá	2	El tablón	2	Febrero	2023-04-02T00:00:00	2024-11-06T01:00:00	2	Temperatura media	9.7
134978	7	Sololá	701	Sololá	2	El tablón	2	Febrero	2023-04-02T00:00:00	2024-11-06T01:00:00	4	Temperatura máxima	9.7
134979	7	Sololá	701	Sololá	2	El tablón	2	Febrero	2023-04-02T00:00:00	2024-11-06T01:00:00	3	Temperatura mínima	9.6
134980	7	Sololá	701	Sololá	2	El tablón	2	Febrero	2023-04-02T00:00:00	2024-11-06T01:00:00	5	Humedad	90
134981	7	Sololá	701	Sololá	2	El tablón	2	Febrero	2023-04-02T00:00:00	2024-11-06T01:00:00	6	Velocidad del viento	20.9
134982	7	Sololá	701	Sololá	2	El tablón	2	Febrero	2023-04-02T00:00:00	2024-11-06T01:00:00	7	Dirección del viento	20.92
134983	7	Sololá	701	Sololá	2	El tablón	2	Febrero	2023-04-02T00:00:00	2024-11-06T01:00:00	1	Precipitación	0.2
134984	7	Sololá	701	Sololá	2	El tablón	2	Febrero	2023-04-02T00:00:00	2024-11-06T01:00:00	8	Radiación solar	0
134985	7	Sololá	701	Sololá	2	El tablón	2	Febrero	2023-04-02T00:00:00	2024-11-06T02:00:00	2	Temperatura media	9.6
134986	7	Sololá	701	Sololá	2	El tablón	2	Febrero	2023-04-02T00:00:00	2024-11-06T02:00:00	4	Temperatura máxima	9.8
134987	7	Sololá	701	Sololá	2	El tablón	2	Febrero	2023-04-02T00:00:00	2024-11-06T02:00:00	3	Temperatura mínima	9.5
134988	7	Sololá	701	Sololá	2	El tablón	2	Febrero	2023-04-02T00:00:00	2024-11-06T02:00:00	5	Humedad	90
134989	7	Sololá	701	Sololá	2	El tablón	2	Febrero	2023-04-02T00:00:00	2024-11-06T02:00:00	6	Velocidad del viento	22.5
134990	7	Sololá	701	Sololá	2	El tablón	2	Febrero	2023-04-02T00:00:00	2024-11-06T02:00:00	7	Dirección del viento	22.53
134991	7	Sololá	701	Sololá	2	El tablón	2	Febrero	2023-04-02T00:00:00	2024-11-06T02:00:00	1	Precipitación	0.2
134992	7	Sololá	701	Sololá	2	El tablón	2	Febrero	2023-04-02T00:00:00	2024-11-06T02:00:00	8	Radiación solar	0
134993	7	Sololá	701	Sololá	2	El tablón	2	Febrero	2023-04-02T00:00:00	2024-11-06T03:00:00	2	Temperatura media	9.6
134994	7	Sololá	701	Sololá	2	El tablón	2	Febrero	2023-04-02T00:00:00	2024-11-06T03:00:00	4	Temperatura máxima	9.7
134995	7	Sololá	701	Sololá	2	El tablón	2	Febrero	2023-04-02T00:00:00	2024-11-06T03:00:00	3	Temperatura mínima	9.6
134996	7	Sololá	701	Sololá	2	El tablón	2	Febrero	2023-04-02T00:00:00	2024-11-06T03:00:00	5	Humedad	90
134997	7	Sololá	701	Sololá	2	El tablón	2	Febrero	2023-04-02T00:00:00	2024-11-06T03:00:00	6	Velocidad del viento	22.5
134998	7	Sololá	701	Sololá	2	El tablón	2	Febrero	2023-04-02T00:00:00	2024-11-06T03:00:00	7	Dirección del viento	22.53
134999	7	Sololá	701	Sololá	2	El tablón	2	Febrero	2023-04-02T00:00:00	2024-11-06T03:00:00	1	Precipitación	0.2
135000	7	Sololá	701	Sololá	2	El tablón	2	Febrero	2023-04-02T00:00:00	2024-11-06T03:00:00	8	Radiación solar	0
135001	7	Sololá	701	Sololá	2	El tablón	2	Febrero	2023-04-02T00:00:00	2024-11-06T04:00:00	2	Temperatura media	9.6
135002	7	Sololá	701	Sololá	2	El tablón	2	Febrero	2023-04-02T00:00:00	2024-11-06T04:00:00	4	Temperatura máxima	9.8
135003	7	Sololá	701	Sololá	2	El tablón	2	Febrero	2023-04-02T00:00:00	2024-11-06T04:00:00	3	Temperatura mínima	9.6
135004	7	Sololá	701	Sololá	2	El tablón	2	Febrero	2023-04-02T00:00:00	2024-11-06T04:00:00	5	Humedad	90
135005	7	Sololá	701	Sololá	2	El tablón	2	Febrero	2023-04-02T00:00:00	2024-11-06T04:00:00	6	Velocidad del viento	25.7
135006	7	Sololá	701	Sololá	2	El tablón	2	Febrero	2023-04-02T00:00:00	2024-11-06T04:00:00	7	Dirección del viento	25.75
135007	7	Sololá	701	Sololá	2	El tablón	2	Febrero	2023-04-02T00:00:00	2024-11-06T04:00:00	1	Precipitación	0
135008	7	Sololá	701	Sololá	2	El tablón	2	Febrero	2023-04-02T00:00:00	2024-11-06T04:00:00	8	Radiación solar	0
135009	7	Sololá	701	Sololá	2	El tablón	2	Febrero	2023-04-02T00:00:00	2024-11-06T05:00:00	2	Temperatura media	9.3
135010	7	Sololá	701	Sololá	2	El tablón	2	Febrero	2023-04-02T00:00:00	2024-11-06T05:00:00	4	Temperatura máxima	9.7
135011	7	Sololá	701	Sololá	2	El tablón	2	Febrero	2023-04-02T00:00:00	2024-11-06T05:00:00	3	Temperatura mínima	9.3
135012	7	Sololá	701	Sololá	2	El tablón	2	Febrero	2023-04-02T00:00:00	2024-11-06T05:00:00	5	Humedad	90
135013	7	Sololá	701	Sololá	2	El tablón	2	Febrero	2023-04-02T00:00:00	2024-11-06T05:00:00	6	Velocidad del viento	24.1
135014	7	Sololá	701	Sololá	2	El tablón	2	Febrero	2023-04-02T00:00:00	2024-11-06T05:00:00	7	Dirección del viento	24.14
135015	7	Sololá	701	Sololá	2	El tablón	2	Febrero	2023-04-02T00:00:00	2024-11-06T05:00:00	1	Precipitación	0.4
135016	7	Sololá	701	Sololá	2	El tablón	2	Febrero	2023-04-02T00:00:00	2024-11-06T05:00:00	8	Radiación solar	0
135017	7	Sololá	701	Sololá	2	El tablón	2	Febrero	2023-04-02T00:00:00	2024-11-06T06:00:00	2	Temperatura media	9.3
135018	7	Sololá	701	Sololá	2	El tablón	2	Febrero	2023-04-02T00:00:00	2024-11-06T06:00:00	4	Temperatura máxima	9.4
135019	7	Sololá	701	Sololá	2	El tablón	2	Febrero	2023-04-02T00:00:00	2024-11-06T06:00:00	3	Temperatura mínima	9.2
135020	7	Sololá	701	Sololá	2	El tablón	2	Febrero	2023-04-02T00:00:00	2024-11-06T06:00:00	5	Humedad	90
135021	7	Sololá	701	Sololá	2	El tablón	2	Febrero	2023-04-02T00:00:00	2024-11-06T06:00:00	6	Velocidad del viento	25.7
135022	7	Sololá	701	Sololá	2	El tablón	2	Febrero	2023-04-02T00:00:00	2024-11-06T06:00:00	7	Dirección del viento	25.75
135023	7	Sololá	701	Sololá	2	El tablón	2	Febrero	2023-04-02T00:00:00	2024-11-06T06:00:00	1	Precipitación	0.2
135024	7	Sololá	701	Sololá	2	El tablón	2	Febrero	2023-04-02T00:00:00	2024-11-06T06:00:00	8	Radiación solar	0
135025	7	Sololá	701	Sololá	2	El tablón	2	Febrero	2023-04-02T00:00:00	2024-11-06T07:00:00	2	Temperatura media	9.3
135026	7	Sololá	701	Sololá	2	El tablón	2	Febrero	2023-04-02T00:00:00	2024-11-06T07:00:00	4	Temperatura máxima	9.3
135027	7	Sololá	701	Sololá	2	El tablón	2	Febrero	2023-04-02T00:00:00	2024-11-06T07:00:00	3	Temperatura mínima	9.2
135028	7	Sololá	701	Sololá	2	El tablón	2	Febrero	2023-04-02T00:00:00	2024-11-06T07:00:00	5	Humedad	90
135029	7	Sololá	701	Sololá	2	El tablón	2	Febrero	2023-04-02T00:00:00	2024-11-06T07:00:00	6	Velocidad del viento	22.5
135030	7	Sololá	701	Sololá	2	El tablón	2	Febrero	2023-04-02T00:00:00	2024-11-06T07:00:00	7	Dirección del viento	22.53
135031	7	Sololá	701	Sololá	2	El tablón	2	Febrero	2023-04-02T00:00:00	2024-11-06T07:00:00	1	Precipitación	0
135032	7	Sololá	701	Sololá	2	El tablón	2	Febrero	2023-04-02T00:00:00	2024-11-06T07:00:00	8	Radiación solar	5
135033	7	Sololá	701	Sololá	2	El tablón	2	Febrero	2023-04-02T00:00:00	2024-11-06T08:00:00	2	Temperatura media	9.7
135034	7	Sololá	701	Sololá	2	El tablón	2	Febrero	2023-04-02T00:00:00	2024-11-06T08:00:00	4	Temperatura máxima	9.7
135035	7	Sololá	701	Sololá	2	El tablón	2	Febrero	2023-04-02T00:00:00	2024-11-06T08:00:00	3	Temperatura mínima	9.1
135036	7	Sololá	701	Sololá	2	El tablón	2	Febrero	2023-04-02T00:00:00	2024-11-06T08:00:00	5	Humedad	87
135037	7	Sololá	701	Sololá	2	El tablón	2	Febrero	2023-04-02T00:00:00	2024-11-06T08:00:00	6	Velocidad del viento	27.4
135038	7	Sololá	701	Sololá	2	El tablón	2	Febrero	2023-04-02T00:00:00	2024-11-06T08:00:00	7	Dirección del viento	27.36
135039	7	Sololá	701	Sololá	2	El tablón	2	Febrero	2023-04-02T00:00:00	2024-11-06T08:00:00	1	Precipitación	0
135040	7	Sololá	701	Sololá	2	El tablón	2	Febrero	2023-04-02T00:00:00	2024-11-06T08:00:00	8	Radiación solar	137
135041	7	Sololá	701	Sololá	2	El tablón	2	Febrero	2023-04-02T00:00:00	2024-11-06T09:00:00	2	Temperatura media	10.5
135042	7	Sololá	701	Sololá	2	El tablón	2	Febrero	2023-04-02T00:00:00	2024-11-06T09:00:00	4	Temperatura máxima	10.5
135043	7	Sololá	701	Sololá	2	El tablón	2	Febrero	2023-04-02T00:00:00	2024-11-06T09:00:00	3	Temperatura mínima	9.7
135044	7	Sololá	701	Sololá	2	El tablón	2	Febrero	2023-04-02T00:00:00	2024-11-06T09:00:00	5	Humedad	82
135045	7	Sololá	701	Sololá	2	El tablón	2	Febrero	2023-04-02T00:00:00	2024-11-06T09:00:00	6	Velocidad del viento	29
135046	7	Sololá	701	Sololá	2	El tablón	2	Febrero	2023-04-02T00:00:00	2024-11-06T09:00:00	7	Dirección del viento	28.97
135047	7	Sololá	701	Sololá	2	El tablón	2	Febrero	2023-04-02T00:00:00	2024-11-06T09:00:00	1	Precipitación	0
135048	7	Sololá	701	Sololá	2	El tablón	2	Febrero	2023-04-02T00:00:00	2024-11-06T09:00:00	8	Radiación solar	339
135049	7	Sololá	701	Sololá	2	El tablón	2	Febrero	2023-04-02T00:00:00	2024-11-06T10:00:00	2	Temperatura media	11.7
135050	7	Sololá	701	Sololá	2	El tablón	2	Febrero	2023-04-02T00:00:00	2024-11-06T10:00:00	4	Temperatura máxima	11.7
135051	7	Sololá	701	Sololá	2	El tablón	2	Febrero	2023-04-02T00:00:00	2024-11-06T10:00:00	3	Temperatura mínima	10.5
135052	7	Sololá	701	Sololá	2	El tablón	2	Febrero	2023-04-02T00:00:00	2024-11-06T10:00:00	5	Humedad	82
135053	7	Sololá	701	Sololá	2	El tablón	2	Febrero	2023-04-02T00:00:00	2024-11-06T10:00:00	6	Velocidad del viento	29
135054	7	Sololá	701	Sololá	2	El tablón	2	Febrero	2023-04-02T00:00:00	2024-11-06T10:00:00	7	Dirección del viento	28.97
135055	7	Sololá	701	Sololá	2	El tablón	2	Febrero	2023-04-02T00:00:00	2024-11-06T10:00:00	1	Precipitación	0
135056	7	Sololá	701	Sololá	2	El tablón	2	Febrero	2023-04-02T00:00:00	2024-11-06T10:00:00	8	Radiación solar	567
135057	7	Sololá	701	Sololá	2	El tablón	2	Febrero	2023-04-02T00:00:00	2024-11-06T11:00:00	2	Temperatura media	13.3
135058	7	Sololá	701	Sololá	2	El tablón	2	Febrero	2023-04-02T00:00:00	2024-11-06T11:00:00	4	Temperatura máxima	13.3
135059	7	Sololá	701	Sololá	2	El tablón	2	Febrero	2023-04-02T00:00:00	2024-11-06T11:00:00	3	Temperatura mínima	11.7
135060	7	Sololá	701	Sololá	2	El tablón	2	Febrero	2023-04-02T00:00:00	2024-11-06T11:00:00	5	Humedad	76
135061	7	Sololá	701	Sololá	2	El tablón	2	Febrero	2023-04-02T00:00:00	2024-11-06T11:00:00	6	Velocidad del viento	27.4
135062	7	Sololá	701	Sololá	2	El tablón	2	Febrero	2023-04-02T00:00:00	2024-11-06T11:00:00	7	Dirección del viento	27.36
135063	7	Sololá	701	Sololá	2	El tablón	2	Febrero	2023-04-02T00:00:00	2024-11-06T11:00:00	1	Precipitación	0
135064	7	Sololá	701	Sololá	2	El tablón	2	Febrero	2023-04-02T00:00:00	2024-11-06T11:00:00	8	Radiación solar	714
135065	7	Sololá	701	Sololá	2	El tablón	2	Febrero	2023-04-02T00:00:00	2024-11-06T12:00:00	2	Temperatura media	14.1
135066	7	Sololá	701	Sololá	2	El tablón	2	Febrero	2023-04-02T00:00:00	2024-11-06T12:00:00	4	Temperatura máxima	14.2
135067	7	Sololá	701	Sololá	2	El tablón	2	Febrero	2023-04-02T00:00:00	2024-11-06T12:00:00	3	Temperatura mínima	13.3
135068	7	Sololá	701	Sololá	2	El tablón	2	Febrero	2023-04-02T00:00:00	2024-11-06T12:00:00	5	Humedad	76
135069	7	Sololá	701	Sololá	2	El tablón	2	Febrero	2023-04-02T00:00:00	2024-11-06T12:00:00	6	Velocidad del viento	24.1
135070	7	Sololá	701	Sololá	2	El tablón	2	Febrero	2023-04-02T00:00:00	2024-11-06T12:00:00	7	Dirección del viento	24.14
135071	7	Sololá	701	Sololá	2	El tablón	2	Febrero	2023-04-02T00:00:00	2024-11-06T12:00:00	1	Precipitación	0
135072	7	Sololá	701	Sololá	2	El tablón	2	Febrero	2023-04-02T00:00:00	2024-11-06T12:00:00	8	Radiación solar	742
135073	7	Sololá	701	Sololá	2	El tablón	2	Febrero	2023-04-02T00:00:00	2024-11-06T13:00:00	2	Temperatura media	14.8
135074	7	Sololá	701	Sololá	2	El tablón	2	Febrero	2023-04-02T00:00:00	2024-11-06T13:00:00	4	Temperatura máxima	14.8
135075	7	Sololá	701	Sololá	2	El tablón	2	Febrero	2023-04-02T00:00:00	2024-11-06T13:00:00	3	Temperatura mínima	13.7
135076	7	Sololá	701	Sololá	2	El tablón	2	Febrero	2023-04-02T00:00:00	2024-11-06T13:00:00	5	Humedad	75
135077	7	Sololá	701	Sololá	2	El tablón	2	Febrero	2023-04-02T00:00:00	2024-11-06T13:00:00	6	Velocidad del viento	22.5
135078	7	Sololá	701	Sololá	2	El tablón	2	Febrero	2023-04-02T00:00:00	2024-11-06T13:00:00	7	Dirección del viento	22.53
135079	7	Sololá	701	Sololá	2	El tablón	2	Febrero	2023-04-02T00:00:00	2024-11-06T13:00:00	1	Precipitación	0
135080	7	Sololá	701	Sololá	2	El tablón	2	Febrero	2023-04-02T00:00:00	2024-11-06T13:00:00	8	Radiación solar	839
135081	7	Sololá	701	Sololá	2	El tablón	2	Febrero	2023-04-02T00:00:00	2024-11-06T14:00:00	2	Temperatura media	15
135082	7	Sololá	701	Sololá	2	El tablón	2	Febrero	2023-04-02T00:00:00	2024-11-06T14:00:00	4	Temperatura máxima	15.7
135083	7	Sololá	701	Sololá	2	El tablón	2	Febrero	2023-04-02T00:00:00	2024-11-06T14:00:00	3	Temperatura mínima	14.7
135084	7	Sololá	701	Sololá	2	El tablón	2	Febrero	2023-04-02T00:00:00	2024-11-06T14:00:00	5	Humedad	74
135085	7	Sololá	701	Sololá	2	El tablón	2	Febrero	2023-04-02T00:00:00	2024-11-06T14:00:00	6	Velocidad del viento	20.9
135086	7	Sololá	701	Sololá	2	El tablón	2	Febrero	2023-04-02T00:00:00	2024-11-06T14:00:00	7	Dirección del viento	20.92
135087	7	Sololá	701	Sololá	2	El tablón	2	Febrero	2023-04-02T00:00:00	2024-11-06T14:00:00	1	Precipitación	0
135088	7	Sololá	701	Sololá	2	El tablón	2	Febrero	2023-04-02T00:00:00	2024-11-06T14:00:00	8	Radiación solar	797
135089	7	Sololá	701	Sololá	2	El tablón	2	Febrero	2023-04-02T00:00:00	2024-11-06T15:00:00	2	Temperatura media	15.4
135090	7	Sololá	701	Sololá	2	El tablón	2	Febrero	2023-04-02T00:00:00	2024-11-06T15:00:00	4	Temperatura máxima	16
135091	7	Sololá	701	Sololá	2	El tablón	2	Febrero	2023-04-02T00:00:00	2024-11-06T15:00:00	3	Temperatura mínima	14.9
135092	7	Sololá	701	Sololá	2	El tablón	2	Febrero	2023-04-02T00:00:00	2024-11-06T15:00:00	5	Humedad	72
135093	7	Sololá	701	Sololá	2	El tablón	2	Febrero	2023-04-02T00:00:00	2024-11-06T15:00:00	6	Velocidad del viento	19.3
135094	7	Sololá	701	Sololá	2	El tablón	2	Febrero	2023-04-02T00:00:00	2024-11-06T15:00:00	7	Dirección del viento	19.31
135095	7	Sololá	701	Sololá	2	El tablón	2	Febrero	2023-04-02T00:00:00	2024-11-06T15:00:00	1	Precipitación	0
135096	7	Sololá	701	Sololá	2	El tablón	2	Febrero	2023-04-02T00:00:00	2024-11-06T15:00:00	8	Radiación solar	690
135097	7	Sololá	701	Sololá	2	El tablón	2	Febrero	2023-04-02T00:00:00	2024-11-06T16:00:00	2	Temperatura media	15.5
135098	7	Sololá	701	Sololá	2	El tablón	2	Febrero	2023-04-02T00:00:00	2024-11-06T16:00:00	4	Temperatura máxima	15.9
135099	7	Sololá	701	Sololá	2	El tablón	2	Febrero	2023-04-02T00:00:00	2024-11-06T16:00:00	3	Temperatura mínima	15.3
135100	7	Sololá	701	Sololá	2	El tablón	2	Febrero	2023-04-02T00:00:00	2024-11-06T16:00:00	5	Humedad	73
135101	7	Sololá	701	Sololá	2	El tablón	2	Febrero	2023-04-02T00:00:00	2024-11-06T16:00:00	6	Velocidad del viento	17.7
135102	7	Sololá	701	Sololá	2	El tablón	2	Febrero	2023-04-02T00:00:00	2024-11-06T16:00:00	7	Dirección del viento	17.7
135103	7	Sololá	701	Sololá	2	El tablón	2	Febrero	2023-04-02T00:00:00	2024-11-06T16:00:00	1	Precipitación	0
135104	7	Sololá	701	Sololá	2	El tablón	2	Febrero	2023-04-02T00:00:00	2024-11-06T16:00:00	8	Radiación solar	526
135105	7	Sololá	701	Sololá	2	El tablón	2	Febrero	2023-04-02T00:00:00	2024-11-06T17:00:00	2	Temperatura media	14.2
135106	7	Sololá	701	Sololá	2	El tablón	2	Febrero	2023-04-02T00:00:00	2024-11-06T17:00:00	4	Temperatura máxima	15.4
135107	7	Sololá	701	Sololá	2	El tablón	2	Febrero	2023-04-02T00:00:00	2024-11-06T17:00:00	3	Temperatura mínima	14.2
135108	7	Sololá	701	Sololá	2	El tablón	2	Febrero	2023-04-02T00:00:00	2024-11-06T17:00:00	5	Humedad	76
135109	7	Sololá	701	Sololá	2	El tablón	2	Febrero	2023-04-02T00:00:00	2024-11-06T17:00:00	6	Velocidad del viento	16.1
135110	7	Sololá	701	Sololá	2	El tablón	2	Febrero	2023-04-02T00:00:00	2024-11-06T17:00:00	7	Dirección del viento	16.09
135111	7	Sololá	701	Sololá	2	El tablón	2	Febrero	2023-04-02T00:00:00	2024-11-06T17:00:00	1	Precipitación	0
135112	7	Sololá	701	Sololá	2	El tablón	2	Febrero	2023-04-02T00:00:00	2024-11-06T17:00:00	8	Radiación solar	322
135113	7	Sololá	701	Sololá	2	El tablón	2	Febrero	2023-04-02T00:00:00	2024-11-06T18:00:00	2	Temperatura media	12.2
135114	7	Sololá	701	Sololá	2	El tablón	2	Febrero	2023-04-02T00:00:00	2024-11-06T18:00:00	4	Temperatura máxima	14.2
135115	7	Sololá	701	Sololá	2	El tablón	2	Febrero	2023-04-02T00:00:00	2024-11-06T18:00:00	3	Temperatura mínima	12.2
135116	7	Sololá	701	Sololá	2	El tablón	2	Febrero	2023-04-02T00:00:00	2024-11-06T18:00:00	5	Humedad	84
135117	7	Sololá	701	Sololá	2	El tablón	2	Febrero	2023-04-02T00:00:00	2024-11-06T18:00:00	6	Velocidad del viento	17.7
135118	7	Sololá	701	Sololá	2	El tablón	2	Febrero	2023-04-02T00:00:00	2024-11-06T18:00:00	7	Dirección del viento	17.7
135119	7	Sololá	701	Sololá	2	El tablón	2	Febrero	2023-04-02T00:00:00	2024-11-06T18:00:00	1	Precipitación	0
135120	7	Sololá	701	Sololá	2	El tablón	2	Febrero	2023-04-02T00:00:00	2024-11-06T18:00:00	8	Radiación solar	88
135121	7	Sololá	701	Sololá	2	El tablón	2	Febrero	2023-04-02T00:00:00	2024-11-06T19:00:00	2	Temperatura media	11.2
135122	7	Sololá	701	Sololá	2	El tablón	2	Febrero	2023-04-02T00:00:00	2024-11-06T19:00:00	4	Temperatura máxima	12.2
135123	7	Sololá	701	Sololá	2	El tablón	2	Febrero	2023-04-02T00:00:00	2024-11-06T19:00:00	3	Temperatura mínima	11.2
135124	7	Sololá	701	Sololá	2	El tablón	2	Febrero	2023-04-02T00:00:00	2024-11-06T19:00:00	5	Humedad	88
135125	7	Sololá	701	Sololá	2	El tablón	2	Febrero	2023-04-02T00:00:00	2024-11-06T19:00:00	6	Velocidad del viento	17.7
135126	7	Sololá	701	Sololá	2	El tablón	2	Febrero	2023-04-02T00:00:00	2024-11-06T19:00:00	7	Dirección del viento	17.7
135127	7	Sololá	701	Sololá	2	El tablón	2	Febrero	2023-04-02T00:00:00	2024-11-06T19:00:00	1	Precipitación	0
135128	7	Sololá	701	Sololá	2	El tablón	2	Febrero	2023-04-02T00:00:00	2024-11-06T19:00:00	8	Radiación solar	0
135129	7	Sololá	701	Sololá	2	El tablón	2	Febrero	2023-04-02T00:00:00	2024-11-06T20:00:00	2	Temperatura media	10.8
135130	7	Sololá	701	Sololá	2	El tablón	2	Febrero	2023-04-02T00:00:00	2024-11-06T20:00:00	4	Temperatura máxima	11.2
135131	7	Sololá	701	Sololá	2	El tablón	2	Febrero	2023-04-02T00:00:00	2024-11-06T20:00:00	3	Temperatura mínima	10.8
135132	7	Sololá	701	Sololá	2	El tablón	2	Febrero	2023-04-02T00:00:00	2024-11-06T20:00:00	5	Humedad	89
135133	7	Sololá	701	Sololá	2	El tablón	2	Febrero	2023-04-02T00:00:00	2024-11-06T20:00:00	6	Velocidad del viento	12.9
135134	7	Sololá	701	Sololá	2	El tablón	2	Febrero	2023-04-02T00:00:00	2024-11-06T20:00:00	7	Dirección del viento	12.87
135135	7	Sololá	701	Sololá	2	El tablón	2	Febrero	2023-04-02T00:00:00	2024-11-06T20:00:00	1	Precipitación	0
135136	7	Sololá	701	Sololá	2	El tablón	2	Febrero	2023-04-02T00:00:00	2024-11-06T20:00:00	8	Radiación solar	0
135137	7	Sololá	701	Sololá	2	El tablón	2	Febrero	2023-04-02T00:00:00	2024-11-06T21:00:00	2	Temperatura media	10.8
135138	7	Sololá	701	Sololá	2	El tablón	2	Febrero	2023-04-02T00:00:00	2024-11-06T21:00:00	4	Temperatura máxima	10.9
135139	7	Sololá	701	Sololá	2	El tablón	2	Febrero	2023-04-02T00:00:00	2024-11-06T21:00:00	3	Temperatura mínima	10.7
135140	7	Sololá	701	Sololá	2	El tablón	2	Febrero	2023-04-02T00:00:00	2024-11-06T21:00:00	5	Humedad	87
135141	7	Sololá	701	Sololá	2	El tablón	2	Febrero	2023-04-02T00:00:00	2024-11-06T21:00:00	6	Velocidad del viento	16.1
135142	7	Sololá	701	Sololá	2	El tablón	2	Febrero	2023-04-02T00:00:00	2024-11-06T21:00:00	7	Dirección del viento	16.09
135143	7	Sololá	701	Sololá	2	El tablón	2	Febrero	2023-04-02T00:00:00	2024-11-06T21:00:00	1	Precipitación	0
135144	7	Sololá	701	Sololá	2	El tablón	2	Febrero	2023-04-02T00:00:00	2024-11-06T21:00:00	8	Radiación solar	0
135145	7	Sololá	701	Sololá	2	El tablón	2	Febrero	2023-04-02T00:00:00	2024-11-06T22:00:00	2	Temperatura media	10.8
135146	7	Sololá	701	Sololá	2	El tablón	2	Febrero	2023-04-02T00:00:00	2024-11-06T22:00:00	4	Temperatura máxima	10.8
135147	7	Sololá	701	Sololá	2	El tablón	2	Febrero	2023-04-02T00:00:00	2024-11-06T22:00:00	3	Temperatura mínima	10.6
135148	7	Sololá	701	Sololá	2	El tablón	2	Febrero	2023-04-02T00:00:00	2024-11-06T22:00:00	5	Humedad	87
135149	7	Sololá	701	Sololá	2	El tablón	2	Febrero	2023-04-02T00:00:00	2024-11-06T22:00:00	6	Velocidad del viento	16.1
135150	7	Sololá	701	Sololá	2	El tablón	2	Febrero	2023-04-02T00:00:00	2024-11-06T22:00:00	7	Dirección del viento	16.09
135151	7	Sololá	701	Sololá	2	El tablón	2	Febrero	2023-04-02T00:00:00	2024-11-06T22:00:00	1	Precipitación	0
135152	7	Sololá	701	Sololá	2	El tablón	2	Febrero	2023-04-02T00:00:00	2024-11-06T22:00:00	8	Radiación solar	0
135153	7	Sololá	701	Sololá	2	El tablón	2	Febrero	2023-04-02T00:00:00	2024-11-06T23:00:00	2	Temperatura media	10.5
135154	7	Sololá	701	Sololá	2	El tablón	2	Febrero	2023-04-02T00:00:00	2024-11-06T23:00:00	4	Temperatura máxima	10.9
135155	7	Sololá	701	Sololá	2	El tablón	2	Febrero	2023-04-02T00:00:00	2024-11-06T23:00:00	3	Temperatura mínima	10.4
135156	7	Sololá	701	Sololá	2	El tablón	2	Febrero	2023-04-02T00:00:00	2024-11-06T23:00:00	5	Humedad	87
135157	7	Sololá	701	Sololá	2	El tablón	2	Febrero	2023-04-02T00:00:00	2024-11-06T23:00:00	6	Velocidad del viento	19.3
135158	7	Sololá	701	Sololá	2	El tablón	2	Febrero	2023-04-02T00:00:00	2024-11-06T23:00:00	7	Dirección del viento	19.31
135159	7	Sololá	701	Sololá	2	El tablón	2	Febrero	2023-04-02T00:00:00	2024-11-06T23:00:00	1	Precipitación	0
135160	7	Sololá	701	Sololá	2	El tablón	2	Febrero	2023-04-02T00:00:00	2024-11-06T23:00:00	8	Radiación solar	0
135161	7	Sololá	701	Sololá	2	El tablón	2	Febrero	2023-05-02T00:00:00	2024-11-06T00:00:00	2	Temperatura media	10.4
135162	7	Sololá	701	Sololá	2	El tablón	2	Febrero	2023-05-02T00:00:00	2024-11-06T00:00:00	4	Temperatura máxima	10.5
135163	7	Sololá	701	Sololá	2	El tablón	2	Febrero	2023-05-02T00:00:00	2024-11-06T00:00:00	3	Temperatura mínima	10.3
135164	7	Sololá	701	Sololá	2	El tablón	2	Febrero	2023-05-02T00:00:00	2024-11-06T00:00:00	5	Humedad	88
135165	7	Sololá	701	Sololá	2	El tablón	2	Febrero	2023-05-02T00:00:00	2024-11-06T00:00:00	6	Velocidad del viento	19.3
135166	7	Sololá	701	Sololá	2	El tablón	2	Febrero	2023-05-02T00:00:00	2024-11-06T00:00:00	7	Dirección del viento	19.31
135167	7	Sololá	701	Sololá	2	El tablón	2	Febrero	2023-05-02T00:00:00	2024-11-06T00:00:00	1	Precipitación	0
135168	7	Sololá	701	Sololá	2	El tablón	2	Febrero	2023-05-02T00:00:00	2024-11-06T00:00:00	8	Radiación solar	0
135169	7	Sololá	701	Sololá	2	El tablón	2	Febrero	2023-05-02T00:00:00	2024-11-06T01:00:00	2	Temperatura media	10.5
135170	7	Sololá	701	Sololá	2	El tablón	2	Febrero	2023-05-02T00:00:00	2024-11-06T01:00:00	4	Temperatura máxima	10.6
135171	7	Sololá	701	Sololá	2	El tablón	2	Febrero	2023-05-02T00:00:00	2024-11-06T01:00:00	3	Temperatura mínima	10.3
135172	7	Sololá	701	Sololá	2	El tablón	2	Febrero	2023-05-02T00:00:00	2024-11-06T01:00:00	5	Humedad	88
135173	7	Sololá	701	Sololá	2	El tablón	2	Febrero	2023-05-02T00:00:00	2024-11-06T01:00:00	6	Velocidad del viento	19.3
135174	7	Sololá	701	Sololá	2	El tablón	2	Febrero	2023-05-02T00:00:00	2024-11-06T01:00:00	7	Dirección del viento	19.31
135175	7	Sololá	701	Sololá	2	El tablón	2	Febrero	2023-05-02T00:00:00	2024-11-06T01:00:00	1	Precipitación	0
135176	7	Sololá	701	Sololá	2	El tablón	2	Febrero	2023-05-02T00:00:00	2024-11-06T01:00:00	8	Radiación solar	0
135177	7	Sololá	701	Sololá	2	El tablón	2	Febrero	2023-05-02T00:00:00	2024-11-06T02:00:00	2	Temperatura media	10.6
135178	7	Sololá	701	Sololá	2	El tablón	2	Febrero	2023-05-02T00:00:00	2024-11-06T02:00:00	4	Temperatura máxima	10.6
135179	7	Sololá	701	Sololá	2	El tablón	2	Febrero	2023-05-02T00:00:00	2024-11-06T02:00:00	3	Temperatura mínima	10.3
135180	7	Sololá	701	Sololá	2	El tablón	2	Febrero	2023-05-02T00:00:00	2024-11-06T02:00:00	5	Humedad	88
135181	7	Sololá	701	Sololá	2	El tablón	2	Febrero	2023-05-02T00:00:00	2024-11-06T02:00:00	6	Velocidad del viento	17.7
135182	7	Sololá	701	Sololá	2	El tablón	2	Febrero	2023-05-02T00:00:00	2024-11-06T02:00:00	7	Dirección del viento	17.7
135183	7	Sololá	701	Sololá	2	El tablón	2	Febrero	2023-05-02T00:00:00	2024-11-06T02:00:00	1	Precipitación	0
135184	7	Sololá	701	Sololá	2	El tablón	2	Febrero	2023-05-02T00:00:00	2024-11-06T02:00:00	8	Radiación solar	0
135185	7	Sololá	701	Sololá	2	El tablón	2	Febrero	2023-05-02T00:00:00	2024-11-06T03:00:00	2	Temperatura media	10.4
135186	7	Sololá	701	Sololá	2	El tablón	2	Febrero	2023-05-02T00:00:00	2024-11-06T03:00:00	4	Temperatura máxima	10.7
135187	7	Sololá	701	Sololá	2	El tablón	2	Febrero	2023-05-02T00:00:00	2024-11-06T03:00:00	3	Temperatura mínima	10.3
135188	7	Sololá	701	Sololá	2	El tablón	2	Febrero	2023-05-02T00:00:00	2024-11-06T03:00:00	5	Humedad	89
135189	7	Sololá	701	Sololá	2	El tablón	2	Febrero	2023-05-02T00:00:00	2024-11-06T03:00:00	6	Velocidad del viento	17.7
135190	7	Sololá	701	Sololá	2	El tablón	2	Febrero	2023-05-02T00:00:00	2024-11-06T03:00:00	7	Dirección del viento	17.7
135191	7	Sololá	701	Sololá	2	El tablón	2	Febrero	2023-05-02T00:00:00	2024-11-06T03:00:00	1	Precipitación	0
135192	7	Sololá	701	Sololá	2	El tablón	2	Febrero	2023-05-02T00:00:00	2024-11-06T03:00:00	8	Radiación solar	0
135193	7	Sololá	701	Sololá	2	El tablón	2	Febrero	2023-05-02T00:00:00	2024-11-06T04:00:00	2	Temperatura media	10.4
135194	7	Sololá	701	Sololá	2	El tablón	2	Febrero	2023-05-02T00:00:00	2024-11-06T04:00:00	4	Temperatura máxima	10.5
135195	7	Sololá	701	Sololá	2	El tablón	2	Febrero	2023-05-02T00:00:00	2024-11-06T04:00:00	3	Temperatura mínima	10.4
135196	7	Sololá	701	Sololá	2	El tablón	2	Febrero	2023-05-02T00:00:00	2024-11-06T04:00:00	5	Humedad	89
135197	7	Sololá	701	Sololá	2	El tablón	2	Febrero	2023-05-02T00:00:00	2024-11-06T04:00:00	6	Velocidad del viento	17.7
135198	7	Sololá	701	Sololá	2	El tablón	2	Febrero	2023-05-02T00:00:00	2024-11-06T04:00:00	7	Dirección del viento	17.7
135199	7	Sololá	701	Sololá	2	El tablón	2	Febrero	2023-05-02T00:00:00	2024-11-06T04:00:00	1	Precipitación	0
135200	7	Sololá	701	Sololá	2	El tablón	2	Febrero	2023-05-02T00:00:00	2024-11-06T04:00:00	8	Radiación solar	0
135201	7	Sololá	701	Sololá	2	El tablón	2	Febrero	2023-05-02T00:00:00	2024-11-06T05:00:00	2	Temperatura media	10.2
135202	7	Sololá	701	Sololá	2	El tablón	2	Febrero	2023-05-02T00:00:00	2024-11-06T05:00:00	4	Temperatura máxima	10.4
135203	7	Sololá	701	Sololá	2	El tablón	2	Febrero	2023-05-02T00:00:00	2024-11-06T05:00:00	3	Temperatura mínima	10.1
135204	7	Sololá	701	Sololá	2	El tablón	2	Febrero	2023-05-02T00:00:00	2024-11-06T05:00:00	5	Humedad	88
135205	7	Sololá	701	Sololá	2	El tablón	2	Febrero	2023-05-02T00:00:00	2024-11-06T05:00:00	6	Velocidad del viento	19.3
135206	7	Sololá	701	Sololá	2	El tablón	2	Febrero	2023-05-02T00:00:00	2024-11-06T05:00:00	7	Dirección del viento	19.31
135207	7	Sololá	701	Sololá	2	El tablón	2	Febrero	2023-05-02T00:00:00	2024-11-06T05:00:00	1	Precipitación	0
135208	7	Sololá	701	Sololá	2	El tablón	2	Febrero	2023-05-02T00:00:00	2024-11-06T05:00:00	8	Radiación solar	0
135209	7	Sololá	701	Sololá	2	El tablón	2	Febrero	2023-05-02T00:00:00	2024-11-06T06:00:00	2	Temperatura media	9.6
135210	7	Sololá	701	Sololá	2	El tablón	2	Febrero	2023-05-02T00:00:00	2024-11-06T06:00:00	4	Temperatura máxima	10.2
135211	7	Sololá	701	Sololá	2	El tablón	2	Febrero	2023-05-02T00:00:00	2024-11-06T06:00:00	3	Temperatura mínima	9.6
135212	7	Sololá	701	Sololá	2	El tablón	2	Febrero	2023-05-02T00:00:00	2024-11-06T06:00:00	5	Humedad	89
135213	7	Sololá	701	Sololá	2	El tablón	2	Febrero	2023-05-02T00:00:00	2024-11-06T06:00:00	6	Velocidad del viento	19.3
135214	7	Sololá	701	Sololá	2	El tablón	2	Febrero	2023-05-02T00:00:00	2024-11-06T06:00:00	7	Dirección del viento	19.31
135215	7	Sololá	701	Sololá	2	El tablón	2	Febrero	2023-05-02T00:00:00	2024-11-06T06:00:00	1	Precipitación	0
135216	7	Sololá	701	Sololá	2	El tablón	2	Febrero	2023-05-02T00:00:00	2024-11-06T06:00:00	8	Radiación solar	0
135217	7	Sololá	701	Sololá	2	El tablón	2	Febrero	2023-05-02T00:00:00	2024-11-06T07:00:00	2	Temperatura media	9.6
135218	7	Sololá	701	Sololá	2	El tablón	2	Febrero	2023-05-02T00:00:00	2024-11-06T07:00:00	4	Temperatura máxima	9.7
135219	7	Sololá	701	Sololá	2	El tablón	2	Febrero	2023-05-02T00:00:00	2024-11-06T07:00:00	3	Temperatura mínima	9.3
135220	7	Sololá	701	Sololá	2	El tablón	2	Febrero	2023-05-02T00:00:00	2024-11-06T07:00:00	5	Humedad	89
135221	7	Sololá	701	Sololá	2	El tablón	2	Febrero	2023-05-02T00:00:00	2024-11-06T07:00:00	6	Velocidad del viento	19.3
135222	7	Sololá	701	Sololá	2	El tablón	2	Febrero	2023-05-02T00:00:00	2024-11-06T07:00:00	7	Dirección del viento	19.31
135223	7	Sololá	701	Sololá	2	El tablón	2	Febrero	2023-05-02T00:00:00	2024-11-06T07:00:00	1	Precipitación	0
135224	7	Sololá	701	Sololá	2	El tablón	2	Febrero	2023-05-02T00:00:00	2024-11-06T07:00:00	8	Radiación solar	6
135225	7	Sololá	701	Sololá	2	El tablón	2	Febrero	2023-05-02T00:00:00	2024-11-06T08:00:00	2	Temperatura media	10.8
135226	7	Sololá	701	Sololá	2	El tablón	2	Febrero	2023-05-02T00:00:00	2024-11-06T08:00:00	4	Temperatura máxima	10.8
135227	7	Sololá	701	Sololá	2	El tablón	2	Febrero	2023-05-02T00:00:00	2024-11-06T08:00:00	3	Temperatura mínima	9.6
135228	7	Sololá	701	Sololá	2	El tablón	2	Febrero	2023-05-02T00:00:00	2024-11-06T08:00:00	5	Humedad	87
135229	7	Sololá	701	Sololá	2	El tablón	2	Febrero	2023-05-02T00:00:00	2024-11-06T08:00:00	6	Velocidad del viento	16.1
135230	7	Sololá	701	Sololá	2	El tablón	2	Febrero	2023-05-02T00:00:00	2024-11-06T08:00:00	7	Dirección del viento	16.09
135231	7	Sololá	701	Sololá	2	El tablón	2	Febrero	2023-05-02T00:00:00	2024-11-06T08:00:00	1	Precipitación	0
135232	7	Sololá	701	Sololá	2	El tablón	2	Febrero	2023-05-02T00:00:00	2024-11-06T08:00:00	8	Radiación solar	122
135233	7	Sololá	701	Sololá	2	El tablón	2	Febrero	2023-05-02T00:00:00	2024-11-06T09:00:00	2	Temperatura media	11.8
135234	7	Sololá	701	Sololá	2	El tablón	2	Febrero	2023-05-02T00:00:00	2024-11-06T09:00:00	4	Temperatura máxima	11.9
135235	7	Sololá	701	Sololá	2	El tablón	2	Febrero	2023-05-02T00:00:00	2024-11-06T09:00:00	3	Temperatura mínima	10.8
135236	7	Sololá	701	Sololá	2	El tablón	2	Febrero	2023-05-02T00:00:00	2024-11-06T09:00:00	5	Humedad	81
135237	7	Sololá	701	Sololá	2	El tablón	2	Febrero	2023-05-02T00:00:00	2024-11-06T09:00:00	6	Velocidad del viento	16.1
135238	7	Sololá	701	Sololá	2	El tablón	2	Febrero	2023-05-02T00:00:00	2024-11-06T09:00:00	7	Dirección del viento	16.09
135239	7	Sololá	701	Sololá	2	El tablón	2	Febrero	2023-05-02T00:00:00	2024-11-06T09:00:00	1	Precipitación	0
135240	7	Sololá	701	Sololá	2	El tablón	2	Febrero	2023-05-02T00:00:00	2024-11-06T09:00:00	8	Radiación solar	341
135241	7	Sololá	701	Sololá	2	El tablón	2	Febrero	2023-05-02T00:00:00	2024-11-06T10:00:00	2	Temperatura media	13.6
135242	7	Sololá	701	Sololá	2	El tablón	2	Febrero	2023-05-02T00:00:00	2024-11-06T10:00:00	4	Temperatura máxima	13.6
135243	7	Sololá	701	Sololá	2	El tablón	2	Febrero	2023-05-02T00:00:00	2024-11-06T10:00:00	3	Temperatura mínima	11.8
135244	7	Sololá	701	Sololá	2	El tablón	2	Febrero	2023-05-02T00:00:00	2024-11-06T10:00:00	5	Humedad	75
135245	7	Sololá	701	Sololá	2	El tablón	2	Febrero	2023-05-02T00:00:00	2024-11-06T10:00:00	6	Velocidad del viento	16.1
135246	7	Sololá	701	Sololá	2	El tablón	2	Febrero	2023-05-02T00:00:00	2024-11-06T10:00:00	7	Dirección del viento	16.09
135247	7	Sololá	701	Sololá	2	El tablón	2	Febrero	2023-05-02T00:00:00	2024-11-06T10:00:00	1	Precipitación	0
135248	7	Sololá	701	Sololá	2	El tablón	2	Febrero	2023-05-02T00:00:00	2024-11-06T10:00:00	8	Radiación solar	556
135249	7	Sololá	701	Sololá	2	El tablón	2	Febrero	2023-05-02T00:00:00	2024-11-06T11:00:00	2	Temperatura media	14.9
135250	7	Sololá	701	Sololá	2	El tablón	2	Febrero	2023-05-02T00:00:00	2024-11-06T11:00:00	4	Temperatura máxima	14.9
135251	7	Sololá	701	Sololá	2	El tablón	2	Febrero	2023-05-02T00:00:00	2024-11-06T11:00:00	3	Temperatura mínima	13.3
135252	7	Sololá	701	Sololá	2	El tablón	2	Febrero	2023-05-02T00:00:00	2024-11-06T11:00:00	5	Humedad	67
135253	7	Sololá	701	Sololá	2	El tablón	2	Febrero	2023-05-02T00:00:00	2024-11-06T11:00:00	6	Velocidad del viento	16.1
135254	7	Sololá	701	Sololá	2	El tablón	2	Febrero	2023-05-02T00:00:00	2024-11-06T11:00:00	7	Dirección del viento	16.09
135255	7	Sololá	701	Sololá	2	El tablón	2	Febrero	2023-05-02T00:00:00	2024-11-06T11:00:00	1	Precipitación	0
135256	7	Sololá	701	Sololá	2	El tablón	2	Febrero	2023-05-02T00:00:00	2024-11-06T11:00:00	8	Radiación solar	710
135257	7	Sololá	701	Sololá	2	El tablón	2	Febrero	2023-05-02T00:00:00	2024-11-06T12:00:00	2	Temperatura media	16.3
135258	7	Sololá	701	Sololá	2	El tablón	2	Febrero	2023-05-02T00:00:00	2024-11-06T12:00:00	4	Temperatura máxima	16.4
135259	7	Sololá	701	Sololá	2	El tablón	2	Febrero	2023-05-02T00:00:00	2024-11-06T12:00:00	3	Temperatura mínima	14.9
135260	7	Sololá	701	Sololá	2	El tablón	2	Febrero	2023-05-02T00:00:00	2024-11-06T12:00:00	5	Humedad	58
135261	7	Sololá	701	Sololá	2	El tablón	2	Febrero	2023-05-02T00:00:00	2024-11-06T12:00:00	6	Velocidad del viento	12.9
135262	7	Sololá	701	Sololá	2	El tablón	2	Febrero	2023-05-02T00:00:00	2024-11-06T12:00:00	7	Dirección del viento	12.87
135263	7	Sololá	701	Sololá	2	El tablón	2	Febrero	2023-05-02T00:00:00	2024-11-06T12:00:00	1	Precipitación	0
135264	7	Sololá	701	Sololá	2	El tablón	2	Febrero	2023-05-02T00:00:00	2024-11-06T12:00:00	8	Radiación solar	717
135265	7	Sololá	701	Sololá	2	El tablón	2	Febrero	2023-05-02T00:00:00	2024-11-06T13:00:00	2	Temperatura media	17.2
135266	7	Sololá	701	Sololá	2	El tablón	2	Febrero	2023-05-02T00:00:00	2024-11-06T13:00:00	4	Temperatura máxima	17.2
135267	7	Sololá	701	Sololá	2	El tablón	2	Febrero	2023-05-02T00:00:00	2024-11-06T13:00:00	3	Temperatura mínima	16.3
135268	7	Sololá	701	Sololá	2	El tablón	2	Febrero	2023-05-02T00:00:00	2024-11-06T13:00:00	5	Humedad	50
135269	7	Sololá	701	Sololá	2	El tablón	2	Febrero	2023-05-02T00:00:00	2024-11-06T13:00:00	6	Velocidad del viento	12.9
135270	7	Sololá	701	Sololá	2	El tablón	2	Febrero	2023-05-02T00:00:00	2024-11-06T13:00:00	7	Dirección del viento	12.87
135271	7	Sololá	701	Sololá	2	El tablón	2	Febrero	2023-05-02T00:00:00	2024-11-06T13:00:00	1	Precipitación	0
135272	7	Sololá	701	Sololá	2	El tablón	2	Febrero	2023-05-02T00:00:00	2024-11-06T13:00:00	8	Radiación solar	827
135273	7	Sololá	701	Sololá	2	El tablón	2	Febrero	2023-05-02T00:00:00	2024-11-06T14:00:00	2	Temperatura media	17.2
135274	7	Sololá	701	Sololá	2	El tablón	2	Febrero	2023-05-02T00:00:00	2024-11-06T14:00:00	4	Temperatura máxima	18
135275	7	Sololá	701	Sololá	2	El tablón	2	Febrero	2023-05-02T00:00:00	2024-11-06T14:00:00	3	Temperatura mínima	17.1
135276	7	Sololá	701	Sololá	2	El tablón	2	Febrero	2023-05-02T00:00:00	2024-11-06T14:00:00	5	Humedad	50
135277	7	Sololá	701	Sololá	2	El tablón	2	Febrero	2023-05-02T00:00:00	2024-11-06T14:00:00	6	Velocidad del viento	12.9
135278	7	Sololá	701	Sololá	2	El tablón	2	Febrero	2023-05-02T00:00:00	2024-11-06T14:00:00	7	Dirección del viento	12.87
135279	7	Sololá	701	Sololá	2	El tablón	2	Febrero	2023-05-02T00:00:00	2024-11-06T14:00:00	1	Precipitación	0
135280	7	Sololá	701	Sololá	2	El tablón	2	Febrero	2023-05-02T00:00:00	2024-11-06T14:00:00	8	Radiación solar	796
135281	7	Sololá	701	Sololá	2	El tablón	2	Febrero	2023-05-02T00:00:00	2024-11-06T15:00:00	2	Temperatura media	16.9
135282	7	Sololá	701	Sololá	2	El tablón	2	Febrero	2023-05-02T00:00:00	2024-11-06T15:00:00	4	Temperatura máxima	17.5
135283	7	Sololá	701	Sololá	2	El tablón	2	Febrero	2023-05-02T00:00:00	2024-11-06T15:00:00	3	Temperatura mínima	16.7
135284	7	Sololá	701	Sololá	2	El tablón	2	Febrero	2023-05-02T00:00:00	2024-11-06T15:00:00	5	Humedad	49
135285	7	Sololá	701	Sololá	2	El tablón	2	Febrero	2023-05-02T00:00:00	2024-11-06T15:00:00	6	Velocidad del viento	12.9
135286	7	Sololá	701	Sololá	2	El tablón	2	Febrero	2023-05-02T00:00:00	2024-11-06T15:00:00	7	Dirección del viento	12.87
135287	7	Sololá	701	Sololá	2	El tablón	2	Febrero	2023-05-02T00:00:00	2024-11-06T15:00:00	1	Precipitación	0
135288	7	Sololá	701	Sololá	2	El tablón	2	Febrero	2023-05-02T00:00:00	2024-11-06T15:00:00	8	Radiación solar	684
135289	7	Sololá	701	Sololá	2	El tablón	2	Febrero	2023-05-02T00:00:00	2024-11-06T16:00:00	2	Temperatura media	16.3
135290	7	Sololá	701	Sololá	2	El tablón	2	Febrero	2023-05-02T00:00:00	2024-11-06T16:00:00	4	Temperatura máxima	17.2
135291	7	Sololá	701	Sololá	2	El tablón	2	Febrero	2023-05-02T00:00:00	2024-11-06T16:00:00	3	Temperatura mínima	16.3
135292	7	Sololá	701	Sololá	2	El tablón	2	Febrero	2023-05-02T00:00:00	2024-11-06T16:00:00	5	Humedad	54
135293	7	Sololá	701	Sololá	2	El tablón	2	Febrero	2023-05-02T00:00:00	2024-11-06T16:00:00	6	Velocidad del viento	12.9
135294	7	Sololá	701	Sololá	2	El tablón	2	Febrero	2023-05-02T00:00:00	2024-11-06T16:00:00	7	Dirección del viento	12.87
135295	7	Sololá	701	Sololá	2	El tablón	2	Febrero	2023-05-02T00:00:00	2024-11-06T16:00:00	1	Precipitación	0
135296	7	Sololá	701	Sololá	2	El tablón	2	Febrero	2023-05-02T00:00:00	2024-11-06T16:00:00	8	Radiación solar	520
135297	7	Sololá	701	Sololá	2	El tablón	2	Febrero	2023-05-02T00:00:00	2024-11-06T17:00:00	2	Temperatura media	15.1
135298	7	Sololá	701	Sololá	2	El tablón	2	Febrero	2023-05-02T00:00:00	2024-11-06T17:00:00	4	Temperatura máxima	16.3
135299	7	Sololá	701	Sololá	2	El tablón	2	Febrero	2023-05-02T00:00:00	2024-11-06T17:00:00	3	Temperatura mínima	15.1
135300	7	Sololá	701	Sololá	2	El tablón	2	Febrero	2023-05-02T00:00:00	2024-11-06T17:00:00	5	Humedad	65
135301	7	Sololá	701	Sololá	2	El tablón	2	Febrero	2023-05-02T00:00:00	2024-11-06T17:00:00	6	Velocidad del viento	12.9
135302	7	Sololá	701	Sololá	2	El tablón	2	Febrero	2023-05-02T00:00:00	2024-11-06T17:00:00	7	Dirección del viento	12.87
135303	7	Sololá	701	Sololá	2	El tablón	2	Febrero	2023-05-02T00:00:00	2024-11-06T17:00:00	1	Precipitación	0
135304	7	Sololá	701	Sololá	2	El tablón	2	Febrero	2023-05-02T00:00:00	2024-11-06T17:00:00	8	Radiación solar	310
135305	7	Sololá	701	Sololá	2	El tablón	2	Febrero	2023-05-02T00:00:00	2024-11-06T18:00:00	2	Temperatura media	12.7
135306	7	Sololá	701	Sololá	2	El tablón	2	Febrero	2023-05-02T00:00:00	2024-11-06T18:00:00	4	Temperatura máxima	15.2
135307	7	Sololá	701	Sololá	2	El tablón	2	Febrero	2023-05-02T00:00:00	2024-11-06T18:00:00	3	Temperatura mínima	12.7
135308	7	Sololá	701	Sololá	2	El tablón	2	Febrero	2023-05-02T00:00:00	2024-11-06T18:00:00	5	Humedad	80
135309	7	Sololá	701	Sololá	2	El tablón	2	Febrero	2023-05-02T00:00:00	2024-11-06T18:00:00	6	Velocidad del viento	12.9
135310	7	Sololá	701	Sololá	2	El tablón	2	Febrero	2023-05-02T00:00:00	2024-11-06T18:00:00	7	Dirección del viento	12.87
135311	7	Sololá	701	Sololá	2	El tablón	2	Febrero	2023-05-02T00:00:00	2024-11-06T18:00:00	1	Precipitación	0
135312	7	Sololá	701	Sololá	2	El tablón	2	Febrero	2023-05-02T00:00:00	2024-11-06T18:00:00	8	Radiación solar	83
135313	7	Sololá	701	Sololá	2	El tablón	2	Febrero	2023-05-02T00:00:00	2024-11-06T19:00:00	2	Temperatura media	10.9
135314	7	Sololá	701	Sololá	2	El tablón	2	Febrero	2023-05-02T00:00:00	2024-11-06T19:00:00	4	Temperatura máxima	12.7
135315	7	Sololá	701	Sololá	2	El tablón	2	Febrero	2023-05-02T00:00:00	2024-11-06T19:00:00	3	Temperatura mínima	10.9
135316	7	Sololá	701	Sololá	2	El tablón	2	Febrero	2023-05-02T00:00:00	2024-11-06T19:00:00	5	Humedad	85
135317	7	Sololá	701	Sololá	2	El tablón	2	Febrero	2023-05-02T00:00:00	2024-11-06T19:00:00	6	Velocidad del viento	12.9
135318	7	Sololá	701	Sololá	2	El tablón	2	Febrero	2023-05-02T00:00:00	2024-11-06T19:00:00	7	Dirección del viento	12.87
135319	7	Sololá	701	Sololá	2	El tablón	2	Febrero	2023-05-02T00:00:00	2024-11-06T19:00:00	1	Precipitación	0
135320	7	Sololá	701	Sololá	2	El tablón	2	Febrero	2023-05-02T00:00:00	2024-11-06T19:00:00	8	Radiación solar	0
135321	7	Sololá	701	Sololá	2	El tablón	2	Febrero	2023-05-02T00:00:00	2024-11-06T20:00:00	2	Temperatura media	10.4
135322	7	Sololá	701	Sololá	2	El tablón	2	Febrero	2023-05-02T00:00:00	2024-11-06T20:00:00	4	Temperatura máxima	10.9
135323	7	Sololá	701	Sololá	2	El tablón	2	Febrero	2023-05-02T00:00:00	2024-11-06T20:00:00	3	Temperatura mínima	10.4
135324	7	Sololá	701	Sololá	2	El tablón	2	Febrero	2023-05-02T00:00:00	2024-11-06T20:00:00	5	Humedad	86
135325	7	Sololá	701	Sololá	2	El tablón	2	Febrero	2023-05-02T00:00:00	2024-11-06T20:00:00	6	Velocidad del viento	11.3
135326	7	Sololá	701	Sololá	2	El tablón	2	Febrero	2023-05-02T00:00:00	2024-11-06T20:00:00	7	Dirección del viento	11.27
135327	7	Sololá	701	Sololá	2	El tablón	2	Febrero	2023-05-02T00:00:00	2024-11-06T20:00:00	1	Precipitación	0
135328	7	Sololá	701	Sololá	2	El tablón	2	Febrero	2023-05-02T00:00:00	2024-11-06T20:00:00	8	Radiación solar	0
135329	7	Sololá	701	Sololá	2	El tablón	2	Febrero	2023-05-02T00:00:00	2024-11-06T21:00:00	2	Temperatura media	10.2
135330	7	Sololá	701	Sololá	2	El tablón	2	Febrero	2023-05-02T00:00:00	2024-11-06T21:00:00	4	Temperatura máxima	10.4
135331	7	Sololá	701	Sololá	2	El tablón	2	Febrero	2023-05-02T00:00:00	2024-11-06T21:00:00	3	Temperatura mínima	10.1
135332	7	Sololá	701	Sololá	2	El tablón	2	Febrero	2023-05-02T00:00:00	2024-11-06T21:00:00	5	Humedad	83
135333	7	Sololá	701	Sololá	2	El tablón	2	Febrero	2023-05-02T00:00:00	2024-11-06T21:00:00	6	Velocidad del viento	12.9
135334	7	Sololá	701	Sololá	2	El tablón	2	Febrero	2023-05-02T00:00:00	2024-11-06T21:00:00	7	Dirección del viento	12.87
135335	7	Sololá	701	Sololá	2	El tablón	2	Febrero	2023-05-02T00:00:00	2024-11-06T21:00:00	1	Precipitación	0
135336	7	Sololá	701	Sololá	2	El tablón	2	Febrero	2023-05-02T00:00:00	2024-11-06T21:00:00	8	Radiación solar	0
135337	7	Sololá	701	Sololá	2	El tablón	2	Febrero	2023-05-02T00:00:00	2024-11-06T22:00:00	2	Temperatura media	9.7
135338	7	Sololá	701	Sololá	2	El tablón	2	Febrero	2023-05-02T00:00:00	2024-11-06T22:00:00	4	Temperatura máxima	10.3
135339	7	Sololá	701	Sololá	2	El tablón	2	Febrero	2023-05-02T00:00:00	2024-11-06T22:00:00	3	Temperatura mínima	9.7
135340	7	Sololá	701	Sololá	2	El tablón	2	Febrero	2023-05-02T00:00:00	2024-11-06T22:00:00	5	Humedad	85
135341	7	Sololá	701	Sololá	2	El tablón	2	Febrero	2023-05-02T00:00:00	2024-11-06T22:00:00	6	Velocidad del viento	14.5
135342	7	Sololá	701	Sololá	2	El tablón	2	Febrero	2023-05-02T00:00:00	2024-11-06T22:00:00	7	Dirección del viento	14.48
135343	7	Sololá	701	Sololá	2	El tablón	2	Febrero	2023-05-02T00:00:00	2024-11-06T22:00:00	1	Precipitación	0
135344	7	Sololá	701	Sololá	2	El tablón	2	Febrero	2023-05-02T00:00:00	2024-11-06T22:00:00	8	Radiación solar	0
135345	7	Sololá	701	Sololá	2	El tablón	2	Febrero	2023-05-02T00:00:00	2024-11-06T23:00:00	2	Temperatura media	9.2
135346	7	Sololá	701	Sololá	2	El tablón	2	Febrero	2023-05-02T00:00:00	2024-11-06T23:00:00	4	Temperatura máxima	9.7
135347	7	Sololá	701	Sololá	2	El tablón	2	Febrero	2023-05-02T00:00:00	2024-11-06T23:00:00	3	Temperatura mínima	9.2
135348	7	Sololá	701	Sololá	2	El tablón	2	Febrero	2023-05-02T00:00:00	2024-11-06T23:00:00	5	Humedad	86
135349	7	Sololá	701	Sololá	2	El tablón	2	Febrero	2023-05-02T00:00:00	2024-11-06T23:00:00	6	Velocidad del viento	16.1
135350	7	Sololá	701	Sololá	2	El tablón	2	Febrero	2023-05-02T00:00:00	2024-11-06T23:00:00	7	Dirección del viento	16.09
135351	7	Sololá	701	Sololá	2	El tablón	2	Febrero	2023-05-02T00:00:00	2024-11-06T23:00:00	1	Precipitación	0
135352	7	Sololá	701	Sololá	2	El tablón	2	Febrero	2023-05-02T00:00:00	2024-11-06T23:00:00	8	Radiación solar	0
135353	7	Sololá	701	Sololá	2	El tablón	2	Febrero	2023-06-02T00:00:00	2024-11-06T00:00:00	2	Temperatura media	9.3
135354	7	Sololá	701	Sololá	2	El tablón	2	Febrero	2023-06-02T00:00:00	2024-11-06T00:00:00	4	Temperatura máxima	9.4
135355	7	Sololá	701	Sololá	2	El tablón	2	Febrero	2023-06-02T00:00:00	2024-11-06T00:00:00	3	Temperatura mínima	9.2
135356	7	Sololá	701	Sololá	2	El tablón	2	Febrero	2023-06-02T00:00:00	2024-11-06T00:00:00	5	Humedad	85
135357	7	Sololá	701	Sololá	2	El tablón	2	Febrero	2023-06-02T00:00:00	2024-11-06T00:00:00	6	Velocidad del viento	19.3
135358	7	Sololá	701	Sololá	2	El tablón	2	Febrero	2023-06-02T00:00:00	2024-11-06T00:00:00	7	Dirección del viento	19.31
135359	7	Sololá	701	Sololá	2	El tablón	2	Febrero	2023-06-02T00:00:00	2024-11-06T00:00:00	1	Precipitación	0
135360	7	Sololá	701	Sololá	2	El tablón	2	Febrero	2023-06-02T00:00:00	2024-11-06T00:00:00	8	Radiación solar	0
135361	7	Sololá	701	Sololá	2	El tablón	2	Febrero	2023-06-02T00:00:00	2024-11-06T01:00:00	2	Temperatura media	9.1
135362	7	Sololá	701	Sololá	2	El tablón	2	Febrero	2023-06-02T00:00:00	2024-11-06T01:00:00	4	Temperatura máxima	9.3
135363	7	Sololá	701	Sololá	2	El tablón	2	Febrero	2023-06-02T00:00:00	2024-11-06T01:00:00	3	Temperatura mínima	9.1
135364	7	Sololá	701	Sololá	2	El tablón	2	Febrero	2023-06-02T00:00:00	2024-11-06T01:00:00	5	Humedad	86
135365	7	Sololá	701	Sololá	2	El tablón	2	Febrero	2023-06-02T00:00:00	2024-11-06T01:00:00	6	Velocidad del viento	17.7
135366	7	Sololá	701	Sololá	2	El tablón	2	Febrero	2023-06-02T00:00:00	2024-11-06T01:00:00	7	Dirección del viento	17.7
135367	7	Sololá	701	Sololá	2	El tablón	2	Febrero	2023-06-02T00:00:00	2024-11-06T01:00:00	1	Precipitación	0
135368	7	Sololá	701	Sololá	2	El tablón	2	Febrero	2023-06-02T00:00:00	2024-11-06T01:00:00	8	Radiación solar	0
135369	7	Sololá	701	Sololá	2	El tablón	2	Febrero	2023-06-02T00:00:00	2024-11-06T02:00:00	2	Temperatura media	8.8
135370	7	Sololá	701	Sololá	2	El tablón	2	Febrero	2023-06-02T00:00:00	2024-11-06T02:00:00	4	Temperatura máxima	9.1
135371	7	Sololá	701	Sololá	2	El tablón	2	Febrero	2023-06-02T00:00:00	2024-11-06T02:00:00	3	Temperatura mínima	8.8
135372	7	Sololá	701	Sololá	2	El tablón	2	Febrero	2023-06-02T00:00:00	2024-11-06T02:00:00	5	Humedad	86
135373	7	Sololá	701	Sololá	2	El tablón	2	Febrero	2023-06-02T00:00:00	2024-11-06T02:00:00	6	Velocidad del viento	14.5
135374	7	Sololá	701	Sololá	2	El tablón	2	Febrero	2023-06-02T00:00:00	2024-11-06T02:00:00	7	Dirección del viento	14.48
135375	7	Sololá	701	Sololá	2	El tablón	2	Febrero	2023-06-02T00:00:00	2024-11-06T02:00:00	1	Precipitación	0
135376	7	Sololá	701	Sololá	2	El tablón	2	Febrero	2023-06-02T00:00:00	2024-11-06T02:00:00	8	Radiación solar	0
135377	7	Sololá	701	Sololá	2	El tablón	2	Febrero	2023-06-02T00:00:00	2024-11-06T03:00:00	2	Temperatura media	8.6
135378	7	Sololá	701	Sololá	2	El tablón	2	Febrero	2023-06-02T00:00:00	2024-11-06T03:00:00	4	Temperatura máxima	8.9
135379	7	Sololá	701	Sololá	2	El tablón	2	Febrero	2023-06-02T00:00:00	2024-11-06T03:00:00	3	Temperatura mínima	8.5
135380	7	Sololá	701	Sololá	2	El tablón	2	Febrero	2023-06-02T00:00:00	2024-11-06T03:00:00	5	Humedad	83
135381	7	Sololá	701	Sololá	2	El tablón	2	Febrero	2023-06-02T00:00:00	2024-11-06T03:00:00	6	Velocidad del viento	14.5
135382	7	Sololá	701	Sololá	2	El tablón	2	Febrero	2023-06-02T00:00:00	2024-11-06T03:00:00	7	Dirección del viento	14.48
135383	7	Sololá	701	Sololá	2	El tablón	2	Febrero	2023-06-02T00:00:00	2024-11-06T03:00:00	1	Precipitación	0
135384	7	Sololá	701	Sololá	2	El tablón	2	Febrero	2023-06-02T00:00:00	2024-11-06T03:00:00	8	Radiación solar	0
135385	7	Sololá	701	Sololá	2	El tablón	2	Febrero	2023-06-02T00:00:00	2024-11-06T04:00:00	2	Temperatura media	8.8
135386	7	Sololá	701	Sololá	2	El tablón	2	Febrero	2023-06-02T00:00:00	2024-11-06T04:00:00	4	Temperatura máxima	8.8
135387	7	Sololá	701	Sololá	2	El tablón	2	Febrero	2023-06-02T00:00:00	2024-11-06T04:00:00	3	Temperatura mínima	8.4
135388	7	Sololá	701	Sololá	2	El tablón	2	Febrero	2023-06-02T00:00:00	2024-11-06T04:00:00	5	Humedad	82
135389	7	Sololá	701	Sololá	2	El tablón	2	Febrero	2023-06-02T00:00:00	2024-11-06T04:00:00	6	Velocidad del viento	14.5
135390	7	Sololá	701	Sololá	2	El tablón	2	Febrero	2023-06-02T00:00:00	2024-11-06T04:00:00	7	Dirección del viento	14.48
135391	7	Sololá	701	Sololá	2	El tablón	2	Febrero	2023-06-02T00:00:00	2024-11-06T04:00:00	1	Precipitación	0
135392	7	Sololá	701	Sololá	2	El tablón	2	Febrero	2023-06-02T00:00:00	2024-11-06T04:00:00	8	Radiación solar	0
135393	7	Sololá	701	Sololá	2	El tablón	2	Febrero	2023-06-02T00:00:00	2024-11-06T05:00:00	2	Temperatura media	8.8
135394	7	Sololá	701	Sololá	2	El tablón	2	Febrero	2023-06-02T00:00:00	2024-11-06T05:00:00	4	Temperatura máxima	9.1
135395	7	Sololá	701	Sololá	2	El tablón	2	Febrero	2023-06-02T00:00:00	2024-11-06T05:00:00	3	Temperatura mínima	8.8
135396	7	Sololá	701	Sololá	2	El tablón	2	Febrero	2023-06-02T00:00:00	2024-11-06T05:00:00	5	Humedad	81
135397	7	Sololá	701	Sololá	2	El tablón	2	Febrero	2023-06-02T00:00:00	2024-11-06T05:00:00	6	Velocidad del viento	16.1
135398	7	Sololá	701	Sololá	2	El tablón	2	Febrero	2023-06-02T00:00:00	2024-11-06T05:00:00	7	Dirección del viento	16.09
135399	7	Sololá	701	Sololá	2	El tablón	2	Febrero	2023-06-02T00:00:00	2024-11-06T05:00:00	1	Precipitación	0
135400	7	Sololá	701	Sololá	2	El tablón	2	Febrero	2023-06-02T00:00:00	2024-11-06T05:00:00	8	Radiación solar	0
135401	7	Sololá	701	Sololá	2	El tablón	2	Febrero	2023-06-02T00:00:00	2024-11-06T06:00:00	2	Temperatura media	8.6
135402	7	Sololá	701	Sololá	2	El tablón	2	Febrero	2023-06-02T00:00:00	2024-11-06T06:00:00	4	Temperatura máxima	9
135403	7	Sololá	701	Sololá	2	El tablón	2	Febrero	2023-06-02T00:00:00	2024-11-06T06:00:00	3	Temperatura mínima	8.4
135404	7	Sololá	701	Sololá	2	El tablón	2	Febrero	2023-06-02T00:00:00	2024-11-06T06:00:00	5	Humedad	70
135405	7	Sololá	701	Sololá	2	El tablón	2	Febrero	2023-06-02T00:00:00	2024-11-06T06:00:00	6	Velocidad del viento	19.3
135406	7	Sololá	701	Sololá	2	El tablón	2	Febrero	2023-06-02T00:00:00	2024-11-06T06:00:00	7	Dirección del viento	19.31
135407	7	Sololá	701	Sololá	2	El tablón	2	Febrero	2023-06-02T00:00:00	2024-11-06T06:00:00	1	Precipitación	0
135408	7	Sololá	701	Sololá	2	El tablón	2	Febrero	2023-06-02T00:00:00	2024-11-06T06:00:00	8	Radiación solar	0
135409	7	Sololá	701	Sololá	2	El tablón	2	Febrero	2023-06-02T00:00:00	2024-11-06T07:00:00	2	Temperatura media	8.6
135410	7	Sololá	701	Sololá	2	El tablón	2	Febrero	2023-06-02T00:00:00	2024-11-06T07:00:00	4	Temperatura máxima	8.6
135411	7	Sololá	701	Sololá	2	El tablón	2	Febrero	2023-06-02T00:00:00	2024-11-06T07:00:00	3	Temperatura mínima	8.2
135412	7	Sololá	701	Sololá	2	El tablón	2	Febrero	2023-06-02T00:00:00	2024-11-06T07:00:00	5	Humedad	77
135413	7	Sololá	701	Sololá	2	El tablón	2	Febrero	2023-06-02T00:00:00	2024-11-06T07:00:00	6	Velocidad del viento	17.7
135414	7	Sololá	701	Sololá	2	El tablón	2	Febrero	2023-06-02T00:00:00	2024-11-06T07:00:00	7	Dirección del viento	17.7
135415	7	Sololá	701	Sololá	2	El tablón	2	Febrero	2023-06-02T00:00:00	2024-11-06T07:00:00	1	Precipitación	0
135416	7	Sololá	701	Sololá	2	El tablón	2	Febrero	2023-06-02T00:00:00	2024-11-06T07:00:00	8	Radiación solar	5
135417	7	Sololá	701	Sololá	2	El tablón	2	Febrero	2023-06-02T00:00:00	2024-11-06T08:00:00	2	Temperatura media	10
135418	7	Sololá	701	Sololá	2	El tablón	2	Febrero	2023-06-02T00:00:00	2024-11-06T08:00:00	4	Temperatura máxima	10
135419	7	Sololá	701	Sololá	2	El tablón	2	Febrero	2023-06-02T00:00:00	2024-11-06T08:00:00	3	Temperatura mínima	8.6
135420	7	Sololá	701	Sololá	2	El tablón	2	Febrero	2023-06-02T00:00:00	2024-11-06T08:00:00	5	Humedad	79
135421	7	Sololá	701	Sololá	2	El tablón	2	Febrero	2023-06-02T00:00:00	2024-11-06T08:00:00	6	Velocidad del viento	16.1
135422	7	Sololá	701	Sololá	2	El tablón	2	Febrero	2023-06-02T00:00:00	2024-11-06T08:00:00	7	Dirección del viento	16.09
135423	7	Sololá	701	Sololá	2	El tablón	2	Febrero	2023-06-02T00:00:00	2024-11-06T08:00:00	1	Precipitación	0
135424	7	Sololá	701	Sololá	2	El tablón	2	Febrero	2023-06-02T00:00:00	2024-11-06T08:00:00	8	Radiación solar	136
135425	7	Sololá	701	Sololá	2	El tablón	2	Febrero	2023-06-02T00:00:00	2024-11-06T09:00:00	2	Temperatura media	11.9
135426	7	Sololá	701	Sololá	2	El tablón	2	Febrero	2023-06-02T00:00:00	2024-11-06T09:00:00	4	Temperatura máxima	11.9
135427	7	Sololá	701	Sololá	2	El tablón	2	Febrero	2023-06-02T00:00:00	2024-11-06T09:00:00	3	Temperatura mínima	10.1
135428	7	Sololá	701	Sololá	2	El tablón	2	Febrero	2023-06-02T00:00:00	2024-11-06T09:00:00	5	Humedad	73
135429	7	Sololá	701	Sololá	2	El tablón	2	Febrero	2023-06-02T00:00:00	2024-11-06T09:00:00	6	Velocidad del viento	16.1
135430	7	Sololá	701	Sololá	2	El tablón	2	Febrero	2023-06-02T00:00:00	2024-11-06T09:00:00	7	Dirección del viento	16.09
135431	7	Sololá	701	Sololá	2	El tablón	2	Febrero	2023-06-02T00:00:00	2024-11-06T09:00:00	1	Precipitación	0
135432	7	Sololá	701	Sololá	2	El tablón	2	Febrero	2023-06-02T00:00:00	2024-11-06T09:00:00	8	Radiación solar	337
135433	7	Sololá	701	Sololá	2	El tablón	2	Febrero	2023-06-02T00:00:00	2024-11-06T10:00:00	2	Temperatura media	13
135434	7	Sololá	701	Sololá	2	El tablón	2	Febrero	2023-06-02T00:00:00	2024-11-06T10:00:00	4	Temperatura máxima	13.3
135435	7	Sololá	701	Sololá	2	El tablón	2	Febrero	2023-06-02T00:00:00	2024-11-06T10:00:00	3	Temperatura mínima	11.9
135436	7	Sololá	701	Sololá	2	El tablón	2	Febrero	2023-06-02T00:00:00	2024-11-06T10:00:00	5	Humedad	69
135437	7	Sololá	701	Sololá	2	El tablón	2	Febrero	2023-06-02T00:00:00	2024-11-06T10:00:00	6	Velocidad del viento	17.7
135438	7	Sololá	701	Sololá	2	El tablón	2	Febrero	2023-06-02T00:00:00	2024-11-06T10:00:00	7	Dirección del viento	17.7
135439	7	Sololá	701	Sololá	2	El tablón	2	Febrero	2023-06-02T00:00:00	2024-11-06T10:00:00	1	Precipitación	0
135440	7	Sololá	701	Sololá	2	El tablón	2	Febrero	2023-06-02T00:00:00	2024-11-06T10:00:00	8	Radiación solar	554
135441	7	Sololá	701	Sololá	2	El tablón	2	Febrero	2023-06-02T00:00:00	2024-11-06T11:00:00	2	Temperatura media	14.8
135442	7	Sololá	701	Sololá	2	El tablón	2	Febrero	2023-06-02T00:00:00	2024-11-06T11:00:00	4	Temperatura máxima	14.9
135443	7	Sololá	701	Sololá	2	El tablón	2	Febrero	2023-06-02T00:00:00	2024-11-06T11:00:00	3	Temperatura mínima	13.1
135444	7	Sololá	701	Sololá	2	El tablón	2	Febrero	2023-06-02T00:00:00	2024-11-06T11:00:00	5	Humedad	63
135445	7	Sololá	701	Sololá	2	El tablón	2	Febrero	2023-06-02T00:00:00	2024-11-06T11:00:00	6	Velocidad del viento	14.5
135446	7	Sololá	701	Sololá	2	El tablón	2	Febrero	2023-06-02T00:00:00	2024-11-06T11:00:00	7	Dirección del viento	14.48
135447	7	Sololá	701	Sololá	2	El tablón	2	Febrero	2023-06-02T00:00:00	2024-11-06T11:00:00	1	Precipitación	0
135448	7	Sololá	701	Sololá	2	El tablón	2	Febrero	2023-06-02T00:00:00	2024-11-06T11:00:00	8	Radiación solar	713
135449	7	Sololá	701	Sololá	2	El tablón	2	Febrero	2023-06-02T00:00:00	2024-11-06T12:00:00	2	Temperatura media	16.3
135450	7	Sololá	701	Sololá	2	El tablón	2	Febrero	2023-06-02T00:00:00	2024-11-06T12:00:00	4	Temperatura máxima	16.4
135451	7	Sololá	701	Sololá	2	El tablón	2	Febrero	2023-06-02T00:00:00	2024-11-06T12:00:00	3	Temperatura mínima	14.7
135452	7	Sololá	701	Sololá	2	El tablón	2	Febrero	2023-06-02T00:00:00	2024-11-06T12:00:00	5	Humedad	54
135453	7	Sololá	701	Sololá	2	El tablón	2	Febrero	2023-06-02T00:00:00	2024-11-06T12:00:00	6	Velocidad del viento	16.1
135454	7	Sololá	701	Sololá	2	El tablón	2	Febrero	2023-06-02T00:00:00	2024-11-06T12:00:00	7	Dirección del viento	16.09
135455	7	Sololá	701	Sololá	2	El tablón	2	Febrero	2023-06-02T00:00:00	2024-11-06T12:00:00	1	Precipitación	0
135456	7	Sololá	701	Sololá	2	El tablón	2	Febrero	2023-06-02T00:00:00	2024-11-06T12:00:00	8	Radiación solar	720
135457	7	Sololá	701	Sololá	2	El tablón	2	Febrero	2023-06-02T00:00:00	2024-11-06T13:00:00	2	Temperatura media	16.2
135458	7	Sololá	701	Sololá	2	El tablón	2	Febrero	2023-06-02T00:00:00	2024-11-06T13:00:00	4	Temperatura máxima	16.3
135459	7	Sololá	701	Sololá	2	El tablón	2	Febrero	2023-06-02T00:00:00	2024-11-06T13:00:00	3	Temperatura mínima	16
135460	7	Sololá	701	Sololá	2	El tablón	2	Febrero	2023-06-02T00:00:00	2024-11-06T13:00:00	5	Humedad	55
135461	7	Sololá	701	Sololá	2	El tablón	2	Febrero	2023-06-02T00:00:00	2024-11-06T13:00:00	6	Velocidad del viento	12.9
135462	7	Sololá	701	Sololá	2	El tablón	2	Febrero	2023-06-02T00:00:00	2024-11-06T13:00:00	7	Dirección del viento	12.87
135463	7	Sololá	701	Sololá	2	El tablón	2	Febrero	2023-06-02T00:00:00	2024-11-06T13:00:00	1	Precipitación	0
135464	7	Sololá	701	Sololá	2	El tablón	2	Febrero	2023-06-02T00:00:00	2024-11-06T13:00:00	8	Radiación solar	827
135465	7	Sololá	701	Sololá	2	El tablón	2	Febrero	2023-06-02T00:00:00	2024-11-06T14:00:00	2	Temperatura media	17
135466	7	Sololá	701	Sololá	2	El tablón	2	Febrero	2023-06-02T00:00:00	2024-11-06T14:00:00	4	Temperatura máxima	17.1
135467	7	Sololá	701	Sololá	2	El tablón	2	Febrero	2023-06-02T00:00:00	2024-11-06T14:00:00	3	Temperatura mínima	16.1
135468	7	Sololá	701	Sololá	2	El tablón	2	Febrero	2023-06-02T00:00:00	2024-11-06T14:00:00	5	Humedad	58
135469	7	Sololá	701	Sololá	2	El tablón	2	Febrero	2023-06-02T00:00:00	2024-11-06T14:00:00	6	Velocidad del viento	9.7
135470	7	Sololá	701	Sololá	2	El tablón	2	Febrero	2023-06-02T00:00:00	2024-11-06T14:00:00	7	Dirección del viento	9.66
135471	7	Sololá	701	Sololá	2	El tablón	2	Febrero	2023-06-02T00:00:00	2024-11-06T14:00:00	1	Precipitación	0
135472	7	Sololá	701	Sololá	2	El tablón	2	Febrero	2023-06-02T00:00:00	2024-11-06T14:00:00	8	Radiación solar	791
135473	7	Sololá	701	Sololá	2	El tablón	2	Febrero	2023-06-02T00:00:00	2024-11-06T15:00:00	2	Temperatura media	16.1
135474	7	Sololá	701	Sololá	2	El tablón	2	Febrero	2023-06-02T00:00:00	2024-11-06T15:00:00	4	Temperatura máxima	17.3
135475	7	Sololá	701	Sololá	2	El tablón	2	Febrero	2023-06-02T00:00:00	2024-11-06T15:00:00	3	Temperatura mínima	15.7
135476	7	Sololá	701	Sololá	2	El tablón	2	Febrero	2023-06-02T00:00:00	2024-11-06T15:00:00	5	Humedad	60
135477	7	Sololá	701	Sololá	2	El tablón	2	Febrero	2023-06-02T00:00:00	2024-11-06T15:00:00	6	Velocidad del viento	11.3
135478	7	Sololá	701	Sololá	2	El tablón	2	Febrero	2023-06-02T00:00:00	2024-11-06T15:00:00	7	Dirección del viento	11.27
135479	7	Sololá	701	Sololá	2	El tablón	2	Febrero	2023-06-02T00:00:00	2024-11-06T15:00:00	1	Precipitación	0
135480	7	Sololá	701	Sololá	2	El tablón	2	Febrero	2023-06-02T00:00:00	2024-11-06T15:00:00	8	Radiación solar	503
135481	7	Sololá	701	Sololá	2	El tablón	2	Febrero	2023-06-02T00:00:00	2024-11-06T16:00:00	2	Temperatura media	15.7
135482	7	Sololá	701	Sololá	2	El tablón	2	Febrero	2023-06-02T00:00:00	2024-11-06T16:00:00	4	Temperatura máxima	16.5
135483	7	Sololá	701	Sololá	2	El tablón	2	Febrero	2023-06-02T00:00:00	2024-11-06T16:00:00	3	Temperatura mínima	15.6
135484	7	Sololá	701	Sololá	2	El tablón	2	Febrero	2023-06-02T00:00:00	2024-11-06T16:00:00	5	Humedad	62
135485	7	Sololá	701	Sololá	2	El tablón	2	Febrero	2023-06-02T00:00:00	2024-11-06T16:00:00	6	Velocidad del viento	9.7
135486	7	Sololá	701	Sololá	2	El tablón	2	Febrero	2023-06-02T00:00:00	2024-11-06T16:00:00	7	Dirección del viento	9.66
135487	7	Sololá	701	Sololá	2	El tablón	2	Febrero	2023-06-02T00:00:00	2024-11-06T16:00:00	1	Precipitación	0
135488	7	Sololá	701	Sololá	2	El tablón	2	Febrero	2023-06-02T00:00:00	2024-11-06T16:00:00	8	Radiación solar	310
135489	7	Sololá	701	Sololá	2	El tablón	2	Febrero	2023-06-02T00:00:00	2024-11-06T17:00:00	2	Temperatura media	14.8
135490	7	Sololá	701	Sololá	2	El tablón	2	Febrero	2023-06-02T00:00:00	2024-11-06T17:00:00	4	Temperatura máxima	15.7
135491	7	Sololá	701	Sololá	2	El tablón	2	Febrero	2023-06-02T00:00:00	2024-11-06T17:00:00	3	Temperatura mínima	14.8
135492	7	Sololá	701	Sololá	2	El tablón	2	Febrero	2023-06-02T00:00:00	2024-11-06T17:00:00	5	Humedad	68
135493	7	Sololá	701	Sololá	2	El tablón	2	Febrero	2023-06-02T00:00:00	2024-11-06T17:00:00	6	Velocidad del viento	9.7
135494	7	Sololá	701	Sololá	2	El tablón	2	Febrero	2023-06-02T00:00:00	2024-11-06T17:00:00	7	Dirección del viento	9.66
135495	7	Sololá	701	Sololá	2	El tablón	2	Febrero	2023-06-02T00:00:00	2024-11-06T17:00:00	1	Precipitación	0
135496	7	Sololá	701	Sololá	2	El tablón	2	Febrero	2023-06-02T00:00:00	2024-11-06T17:00:00	8	Radiación solar	285
135497	7	Sololá	701	Sololá	2	El tablón	2	Febrero	2023-06-02T00:00:00	2024-11-06T18:00:00	2	Temperatura media	11.7
135498	7	Sololá	701	Sololá	2	El tablón	2	Febrero	2023-06-02T00:00:00	2024-11-06T18:00:00	4	Temperatura máxima	14.8
135499	7	Sololá	701	Sololá	2	El tablón	2	Febrero	2023-06-02T00:00:00	2024-11-06T18:00:00	3	Temperatura mínima	11.7
135500	7	Sololá	701	Sololá	2	El tablón	2	Febrero	2023-06-02T00:00:00	2024-11-06T18:00:00	5	Humedad	80
135501	7	Sololá	701	Sololá	2	El tablón	2	Febrero	2023-06-02T00:00:00	2024-11-06T18:00:00	6	Velocidad del viento	11.3
135502	7	Sololá	701	Sololá	2	El tablón	2	Febrero	2023-06-02T00:00:00	2024-11-06T18:00:00	7	Dirección del viento	11.27
135503	7	Sololá	701	Sololá	2	El tablón	2	Febrero	2023-06-02T00:00:00	2024-11-06T18:00:00	1	Precipitación	0
135504	7	Sololá	701	Sololá	2	El tablón	2	Febrero	2023-06-02T00:00:00	2024-11-06T18:00:00	8	Radiación solar	70
135505	7	Sololá	701	Sololá	2	El tablón	2	Febrero	2023-06-02T00:00:00	2024-11-06T19:00:00	2	Temperatura media	10.3
135506	7	Sololá	701	Sololá	2	El tablón	2	Febrero	2023-06-02T00:00:00	2024-11-06T19:00:00	4	Temperatura máxima	11.7
135507	7	Sololá	701	Sololá	2	El tablón	2	Febrero	2023-06-02T00:00:00	2024-11-06T19:00:00	3	Temperatura mínima	10.3
135508	7	Sololá	701	Sololá	2	El tablón	2	Febrero	2023-06-02T00:00:00	2024-11-06T19:00:00	5	Humedad	84
135509	7	Sololá	701	Sololá	2	El tablón	2	Febrero	2023-06-02T00:00:00	2024-11-06T19:00:00	6	Velocidad del viento	11.3
135510	7	Sololá	701	Sololá	2	El tablón	2	Febrero	2023-06-02T00:00:00	2024-11-06T19:00:00	7	Dirección del viento	11.27
135511	7	Sololá	701	Sololá	2	El tablón	2	Febrero	2023-06-02T00:00:00	2024-11-06T19:00:00	1	Precipitación	0
135512	7	Sololá	701	Sololá	2	El tablón	2	Febrero	2023-06-02T00:00:00	2024-11-06T19:00:00	8	Radiación solar	0
135513	7	Sololá	701	Sololá	2	El tablón	2	Febrero	2023-06-02T00:00:00	2024-11-06T20:00:00	2	Temperatura media	9.7
135514	7	Sololá	701	Sololá	2	El tablón	2	Febrero	2023-06-02T00:00:00	2024-11-06T20:00:00	4	Temperatura máxima	10.3
135515	7	Sololá	701	Sololá	2	El tablón	2	Febrero	2023-06-02T00:00:00	2024-11-06T20:00:00	3	Temperatura mínima	9.7
135516	7	Sololá	701	Sololá	2	El tablón	2	Febrero	2023-06-02T00:00:00	2024-11-06T20:00:00	5	Humedad	86
135517	7	Sololá	701	Sololá	2	El tablón	2	Febrero	2023-06-02T00:00:00	2024-11-06T20:00:00	6	Velocidad del viento	11.3
135518	7	Sololá	701	Sololá	2	El tablón	2	Febrero	2023-06-02T00:00:00	2024-11-06T20:00:00	7	Dirección del viento	11.27
135519	7	Sololá	701	Sololá	2	El tablón	2	Febrero	2023-06-02T00:00:00	2024-11-06T20:00:00	1	Precipitación	0
135520	7	Sololá	701	Sololá	2	El tablón	2	Febrero	2023-06-02T00:00:00	2024-11-06T20:00:00	8	Radiación solar	0
135521	7	Sololá	701	Sololá	2	El tablón	2	Febrero	2023-06-02T00:00:00	2024-11-06T21:00:00	2	Temperatura media	9.6
135522	7	Sololá	701	Sololá	2	El tablón	2	Febrero	2023-06-02T00:00:00	2024-11-06T21:00:00	4	Temperatura máxima	9.7
135523	7	Sololá	701	Sololá	2	El tablón	2	Febrero	2023-06-02T00:00:00	2024-11-06T21:00:00	3	Temperatura mínima	9.5
135524	7	Sololá	701	Sololá	2	El tablón	2	Febrero	2023-06-02T00:00:00	2024-11-06T21:00:00	5	Humedad	84
135525	7	Sololá	701	Sololá	2	El tablón	2	Febrero	2023-06-02T00:00:00	2024-11-06T21:00:00	6	Velocidad del viento	12.9
135526	7	Sololá	701	Sololá	2	El tablón	2	Febrero	2023-06-02T00:00:00	2024-11-06T21:00:00	7	Dirección del viento	12.87
135527	7	Sololá	701	Sololá	2	El tablón	2	Febrero	2023-06-02T00:00:00	2024-11-06T21:00:00	1	Precipitación	0
135528	7	Sololá	701	Sololá	2	El tablón	2	Febrero	2023-06-02T00:00:00	2024-11-06T21:00:00	8	Radiación solar	0
135529	7	Sololá	701	Sololá	2	El tablón	2	Febrero	2023-06-02T00:00:00	2024-11-06T22:00:00	2	Temperatura media	9.4
135530	7	Sololá	701	Sololá	2	El tablón	2	Febrero	2023-06-02T00:00:00	2024-11-06T22:00:00	4	Temperatura máxima	9.6
135531	7	Sololá	701	Sololá	2	El tablón	2	Febrero	2023-06-02T00:00:00	2024-11-06T22:00:00	3	Temperatura mínima	9.4
135532	7	Sololá	701	Sololá	2	El tablón	2	Febrero	2023-06-02T00:00:00	2024-11-06T22:00:00	5	Humedad	81
135533	7	Sololá	701	Sololá	2	El tablón	2	Febrero	2023-06-02T00:00:00	2024-11-06T22:00:00	6	Velocidad del viento	14.5
135534	7	Sololá	701	Sololá	2	El tablón	2	Febrero	2023-06-02T00:00:00	2024-11-06T22:00:00	7	Dirección del viento	14.48
135535	7	Sololá	701	Sololá	2	El tablón	2	Febrero	2023-06-02T00:00:00	2024-11-06T22:00:00	1	Precipitación	0
135536	7	Sololá	701	Sololá	2	El tablón	2	Febrero	2023-06-02T00:00:00	2024-11-06T22:00:00	8	Radiación solar	0
135537	7	Sololá	701	Sololá	2	El tablón	2	Febrero	2023-06-02T00:00:00	2024-11-06T23:00:00	2	Temperatura media	9
135538	7	Sololá	701	Sololá	2	El tablón	2	Febrero	2023-06-02T00:00:00	2024-11-06T23:00:00	4	Temperatura máxima	9.4
135539	7	Sololá	701	Sololá	2	El tablón	2	Febrero	2023-06-02T00:00:00	2024-11-06T23:00:00	3	Temperatura mínima	9
135540	7	Sololá	701	Sololá	2	El tablón	2	Febrero	2023-06-02T00:00:00	2024-11-06T23:00:00	5	Humedad	82
135541	7	Sololá	701	Sololá	2	El tablón	2	Febrero	2023-06-02T00:00:00	2024-11-06T23:00:00	6	Velocidad del viento	14.5
135542	7	Sololá	701	Sololá	2	El tablón	2	Febrero	2023-06-02T00:00:00	2024-11-06T23:00:00	7	Dirección del viento	14.48
135543	7	Sololá	701	Sololá	2	El tablón	2	Febrero	2023-06-02T00:00:00	2024-11-06T23:00:00	1	Precipitación	0
135544	7	Sololá	701	Sololá	2	El tablón	2	Febrero	2023-06-02T00:00:00	2024-11-06T23:00:00	8	Radiación solar	0
135545	7	Sololá	701	Sololá	2	El tablón	2	Febrero	2023-07-02T00:00:00	2024-11-06T00:00:00	2	Temperatura media	8.8
135546	7	Sololá	701	Sololá	2	El tablón	2	Febrero	2023-07-02T00:00:00	2024-11-06T00:00:00	4	Temperatura máxima	9.1
135547	7	Sololá	701	Sololá	2	El tablón	2	Febrero	2023-07-02T00:00:00	2024-11-06T00:00:00	3	Temperatura mínima	8.8
135548	7	Sololá	701	Sololá	2	El tablón	2	Febrero	2023-07-02T00:00:00	2024-11-06T00:00:00	5	Humedad	80
135549	7	Sololá	701	Sololá	2	El tablón	2	Febrero	2023-07-02T00:00:00	2024-11-06T00:00:00	6	Velocidad del viento	16.1
135550	7	Sololá	701	Sololá	2	El tablón	2	Febrero	2023-07-02T00:00:00	2024-11-06T00:00:00	7	Dirección del viento	16.09
135551	7	Sololá	701	Sololá	2	El tablón	2	Febrero	2023-07-02T00:00:00	2024-11-06T00:00:00	1	Precipitación	0
135552	7	Sololá	701	Sololá	2	El tablón	2	Febrero	2023-07-02T00:00:00	2024-11-06T00:00:00	8	Radiación solar	0
135553	7	Sololá	701	Sololá	2	El tablón	2	Febrero	2023-07-02T00:00:00	2024-11-06T01:00:00	2	Temperatura media	8.6
135554	7	Sololá	701	Sololá	2	El tablón	2	Febrero	2023-07-02T00:00:00	2024-11-06T01:00:00	4	Temperatura máxima	8.8
135555	7	Sololá	701	Sololá	2	El tablón	2	Febrero	2023-07-02T00:00:00	2024-11-06T01:00:00	3	Temperatura mínima	8.4
135556	7	Sololá	701	Sololá	2	El tablón	2	Febrero	2023-07-02T00:00:00	2024-11-06T01:00:00	5	Humedad	82
135557	7	Sololá	701	Sololá	2	El tablón	2	Febrero	2023-07-02T00:00:00	2024-11-06T01:00:00	6	Velocidad del viento	14.5
135558	7	Sololá	701	Sololá	2	El tablón	2	Febrero	2023-07-02T00:00:00	2024-11-06T01:00:00	7	Dirección del viento	14.48
135559	7	Sololá	701	Sololá	2	El tablón	2	Febrero	2023-07-02T00:00:00	2024-11-06T01:00:00	1	Precipitación	0
135560	7	Sololá	701	Sololá	2	El tablón	2	Febrero	2023-07-02T00:00:00	2024-11-06T01:00:00	8	Radiación solar	0
135561	7	Sololá	701	Sololá	2	El tablón	2	Febrero	2023-07-02T00:00:00	2024-11-06T02:00:00	2	Temperatura media	8.3
135562	7	Sololá	701	Sololá	2	El tablón	2	Febrero	2023-07-02T00:00:00	2024-11-06T02:00:00	4	Temperatura máxima	8.6
135563	7	Sololá	701	Sololá	2	El tablón	2	Febrero	2023-07-02T00:00:00	2024-11-06T02:00:00	3	Temperatura mínima	8.3
135564	7	Sololá	701	Sololá	2	El tablón	2	Febrero	2023-07-02T00:00:00	2024-11-06T02:00:00	5	Humedad	81
135565	7	Sololá	701	Sololá	2	El tablón	2	Febrero	2023-07-02T00:00:00	2024-11-06T02:00:00	6	Velocidad del viento	12.9
135566	7	Sololá	701	Sololá	2	El tablón	2	Febrero	2023-07-02T00:00:00	2024-11-06T02:00:00	7	Dirección del viento	12.87
135567	7	Sololá	701	Sololá	2	El tablón	2	Febrero	2023-07-02T00:00:00	2024-11-06T02:00:00	1	Precipitación	0
135568	7	Sololá	701	Sololá	2	El tablón	2	Febrero	2023-07-02T00:00:00	2024-11-06T02:00:00	8	Radiación solar	0
135569	7	Sololá	701	Sololá	2	El tablón	2	Febrero	2023-07-02T00:00:00	2024-11-06T03:00:00	2	Temperatura media	7.9
135570	7	Sololá	701	Sololá	2	El tablón	2	Febrero	2023-07-02T00:00:00	2024-11-06T03:00:00	4	Temperatura máxima	8.3
135571	7	Sololá	701	Sololá	2	El tablón	2	Febrero	2023-07-02T00:00:00	2024-11-06T03:00:00	3	Temperatura mínima	7.9
135572	7	Sololá	701	Sololá	2	El tablón	2	Febrero	2023-07-02T00:00:00	2024-11-06T03:00:00	5	Humedad	83
135573	7	Sololá	701	Sololá	2	El tablón	2	Febrero	2023-07-02T00:00:00	2024-11-06T03:00:00	6	Velocidad del viento	11.3
135574	7	Sololá	701	Sololá	2	El tablón	2	Febrero	2023-07-02T00:00:00	2024-11-06T03:00:00	7	Dirección del viento	11.27
135575	7	Sololá	701	Sololá	2	El tablón	2	Febrero	2023-07-02T00:00:00	2024-11-06T03:00:00	1	Precipitación	0
135576	7	Sololá	701	Sololá	2	El tablón	2	Febrero	2023-07-02T00:00:00	2024-11-06T03:00:00	8	Radiación solar	0
135577	7	Sololá	701	Sololá	2	El tablón	2	Febrero	2023-07-02T00:00:00	2024-11-06T04:00:00	2	Temperatura media	7.6
135578	7	Sololá	701	Sololá	2	El tablón	2	Febrero	2023-07-02T00:00:00	2024-11-06T04:00:00	4	Temperatura máxima	8.1
135579	7	Sololá	701	Sololá	2	El tablón	2	Febrero	2023-07-02T00:00:00	2024-11-06T04:00:00	3	Temperatura mínima	7.6
135580	7	Sololá	701	Sololá	2	El tablón	2	Febrero	2023-07-02T00:00:00	2024-11-06T04:00:00	5	Humedad	84
135581	7	Sololá	701	Sololá	2	El tablón	2	Febrero	2023-07-02T00:00:00	2024-11-06T04:00:00	6	Velocidad del viento	12.9
135582	7	Sololá	701	Sololá	2	El tablón	2	Febrero	2023-07-02T00:00:00	2024-11-06T04:00:00	7	Dirección del viento	12.87
135583	7	Sololá	701	Sololá	2	El tablón	2	Febrero	2023-07-02T00:00:00	2024-11-06T04:00:00	1	Precipitación	0
135584	7	Sololá	701	Sololá	2	El tablón	2	Febrero	2023-07-02T00:00:00	2024-11-06T04:00:00	8	Radiación solar	0
135585	7	Sololá	701	Sololá	2	El tablón	2	Febrero	2023-07-02T00:00:00	2024-11-06T05:00:00	2	Temperatura media	7.3
135586	7	Sololá	701	Sololá	2	El tablón	2	Febrero	2023-07-02T00:00:00	2024-11-06T05:00:00	4	Temperatura máxima	7.6
135587	7	Sololá	701	Sololá	2	El tablón	2	Febrero	2023-07-02T00:00:00	2024-11-06T05:00:00	3	Temperatura mínima	7.3
135588	7	Sololá	701	Sololá	2	El tablón	2	Febrero	2023-07-02T00:00:00	2024-11-06T05:00:00	5	Humedad	84
135589	7	Sololá	701	Sololá	2	El tablón	2	Febrero	2023-07-02T00:00:00	2024-11-06T05:00:00	6	Velocidad del viento	14.5
135590	7	Sololá	701	Sololá	2	El tablón	2	Febrero	2023-07-02T00:00:00	2024-11-06T05:00:00	7	Dirección del viento	14.48
135591	7	Sololá	701	Sololá	2	El tablón	2	Febrero	2023-07-02T00:00:00	2024-11-06T05:00:00	1	Precipitación	0
135592	7	Sololá	701	Sololá	2	El tablón	2	Febrero	2023-07-02T00:00:00	2024-11-06T05:00:00	8	Radiación solar	0
135593	7	Sololá	701	Sololá	2	El tablón	2	Febrero	2023-07-02T00:00:00	2024-11-06T06:00:00	2	Temperatura media	6.9
135594	7	Sololá	701	Sololá	2	El tablón	2	Febrero	2023-07-02T00:00:00	2024-11-06T06:00:00	4	Temperatura máxima	7.3
135595	7	Sololá	701	Sololá	2	El tablón	2	Febrero	2023-07-02T00:00:00	2024-11-06T06:00:00	3	Temperatura mínima	6.7
135596	7	Sololá	701	Sololá	2	El tablón	2	Febrero	2023-07-02T00:00:00	2024-11-06T06:00:00	5	Humedad	83
135597	7	Sololá	701	Sololá	2	El tablón	2	Febrero	2023-07-02T00:00:00	2024-11-06T06:00:00	6	Velocidad del viento	9.7
135598	7	Sololá	701	Sololá	2	El tablón	2	Febrero	2023-07-02T00:00:00	2024-11-06T06:00:00	7	Dirección del viento	9.66
135599	7	Sololá	701	Sololá	2	El tablón	2	Febrero	2023-07-02T00:00:00	2024-11-06T06:00:00	1	Precipitación	0
135600	7	Sololá	701	Sololá	2	El tablón	2	Febrero	2023-07-02T00:00:00	2024-11-06T06:00:00	8	Radiación solar	0
135601	7	Sololá	701	Sololá	2	El tablón	2	Febrero	2023-07-02T00:00:00	2024-11-06T07:00:00	2	Temperatura media	8.8
135602	7	Sololá	701	Sololá	2	El tablón	2	Febrero	2023-07-02T00:00:00	2024-11-06T07:00:00	4	Temperatura máxima	8.8
135603	7	Sololá	701	Sololá	2	El tablón	2	Febrero	2023-07-02T00:00:00	2024-11-06T07:00:00	3	Temperatura mínima	6.9
135604	7	Sololá	701	Sololá	2	El tablón	2	Febrero	2023-07-02T00:00:00	2024-11-06T07:00:00	5	Humedad	73
135605	7	Sololá	701	Sololá	2	El tablón	2	Febrero	2023-07-02T00:00:00	2024-11-06T07:00:00	6	Velocidad del viento	8
135606	7	Sololá	701	Sololá	2	El tablón	2	Febrero	2023-07-02T00:00:00	2024-11-06T07:00:00	7	Dirección del viento	8.05
135607	7	Sololá	701	Sololá	2	El tablón	2	Febrero	2023-07-02T00:00:00	2024-11-06T07:00:00	1	Precipitación	0
135608	7	Sololá	701	Sololá	2	El tablón	2	Febrero	2023-07-02T00:00:00	2024-11-06T07:00:00	8	Radiación solar	5
135609	7	Sololá	701	Sololá	2	El tablón	2	Febrero	2023-07-02T00:00:00	2024-11-06T08:00:00	2	Temperatura media	11.1
135610	7	Sololá	701	Sololá	2	El tablón	2	Febrero	2023-07-02T00:00:00	2024-11-06T08:00:00	4	Temperatura máxima	11.1
135611	7	Sololá	701	Sololá	2	El tablón	2	Febrero	2023-07-02T00:00:00	2024-11-06T08:00:00	3	Temperatura mínima	8.8
135612	7	Sololá	701	Sololá	2	El tablón	2	Febrero	2023-07-02T00:00:00	2024-11-06T08:00:00	5	Humedad	70
135613	7	Sololá	701	Sololá	2	El tablón	2	Febrero	2023-07-02T00:00:00	2024-11-06T08:00:00	6	Velocidad del viento	9.7
135614	7	Sololá	701	Sololá	2	El tablón	2	Febrero	2023-07-02T00:00:00	2024-11-06T08:00:00	7	Dirección del viento	9.66
135615	7	Sololá	701	Sololá	2	El tablón	2	Febrero	2023-07-02T00:00:00	2024-11-06T08:00:00	1	Precipitación	0
135616	7	Sololá	701	Sololá	2	El tablón	2	Febrero	2023-07-02T00:00:00	2024-11-06T08:00:00	8	Radiación solar	140
135617	7	Sololá	701	Sololá	2	El tablón	2	Febrero	2023-07-02T00:00:00	2024-11-06T09:00:00	2	Temperatura media	14.3
135618	7	Sololá	701	Sololá	2	El tablón	2	Febrero	2023-07-02T00:00:00	2024-11-06T09:00:00	4	Temperatura máxima	14.3
135619	7	Sololá	701	Sololá	2	El tablón	2	Febrero	2023-07-02T00:00:00	2024-11-06T09:00:00	3	Temperatura mínima	11.1
135620	7	Sololá	701	Sololá	2	El tablón	2	Febrero	2023-07-02T00:00:00	2024-11-06T09:00:00	5	Humedad	56
135621	7	Sololá	701	Sololá	2	El tablón	2	Febrero	2023-07-02T00:00:00	2024-11-06T09:00:00	6	Velocidad del viento	9.7
135622	7	Sololá	701	Sololá	2	El tablón	2	Febrero	2023-07-02T00:00:00	2024-11-06T09:00:00	7	Dirección del viento	9.66
135623	7	Sololá	701	Sololá	2	El tablón	2	Febrero	2023-07-02T00:00:00	2024-11-06T09:00:00	1	Precipitación	0
135624	7	Sololá	701	Sololá	2	El tablón	2	Febrero	2023-07-02T00:00:00	2024-11-06T09:00:00	8	Radiación solar	344
135625	7	Sololá	701	Sololá	2	El tablón	2	Febrero	2023-07-02T00:00:00	2024-11-06T10:00:00	2	Temperatura media	16.9
135626	7	Sololá	701	Sololá	2	El tablón	2	Febrero	2023-07-02T00:00:00	2024-11-06T10:00:00	4	Temperatura máxima	16.9
135627	7	Sololá	701	Sololá	2	El tablón	2	Febrero	2023-07-02T00:00:00	2024-11-06T10:00:00	3	Temperatura mínima	14.3
135628	7	Sololá	701	Sololá	2	El tablón	2	Febrero	2023-07-02T00:00:00	2024-11-06T10:00:00	5	Humedad	40
135629	7	Sololá	701	Sololá	2	El tablón	2	Febrero	2023-07-02T00:00:00	2024-11-06T10:00:00	6	Velocidad del viento	8
135630	7	Sololá	701	Sololá	2	El tablón	2	Febrero	2023-07-02T00:00:00	2024-11-06T10:00:00	7	Dirección del viento	8.05
135631	7	Sololá	701	Sololá	2	El tablón	2	Febrero	2023-07-02T00:00:00	2024-11-06T10:00:00	1	Precipitación	0
135632	7	Sololá	701	Sololá	2	El tablón	2	Febrero	2023-07-02T00:00:00	2024-11-06T10:00:00	8	Radiación solar	564
135633	7	Sololá	701	Sololá	2	El tablón	2	Febrero	2023-07-02T00:00:00	2024-11-06T11:00:00	2	Temperatura media	17.6
135634	7	Sololá	701	Sololá	2	El tablón	2	Febrero	2023-07-02T00:00:00	2024-11-06T11:00:00	4	Temperatura máxima	18.1
135635	7	Sololá	701	Sololá	2	El tablón	2	Febrero	2023-07-02T00:00:00	2024-11-06T11:00:00	3	Temperatura mínima	16.8
135636	7	Sololá	701	Sololá	2	El tablón	2	Febrero	2023-07-02T00:00:00	2024-11-06T11:00:00	5	Humedad	53
135637	7	Sololá	701	Sololá	2	El tablón	2	Febrero	2023-07-02T00:00:00	2024-11-06T11:00:00	6	Velocidad del viento	6.4
135638	7	Sololá	701	Sololá	2	El tablón	2	Febrero	2023-07-02T00:00:00	2024-11-06T11:00:00	7	Dirección del viento	6.44
135639	7	Sololá	701	Sololá	2	El tablón	2	Febrero	2023-07-02T00:00:00	2024-11-06T11:00:00	1	Precipitación	0
135640	7	Sololá	701	Sololá	2	El tablón	2	Febrero	2023-07-02T00:00:00	2024-11-06T11:00:00	8	Radiación solar	712
135641	7	Sololá	701	Sololá	2	El tablón	2	Febrero	2023-07-02T00:00:00	2024-11-06T12:00:00	2	Temperatura media	17.8
135642	7	Sololá	701	Sololá	2	El tablón	2	Febrero	2023-07-02T00:00:00	2024-11-06T12:00:00	4	Temperatura máxima	18.1
135643	7	Sololá	701	Sololá	2	El tablón	2	Febrero	2023-07-02T00:00:00	2024-11-06T12:00:00	3	Temperatura mínima	17.1
135644	7	Sololá	701	Sololá	2	El tablón	2	Febrero	2023-07-02T00:00:00	2024-11-06T12:00:00	5	Humedad	49
135645	7	Sololá	701	Sololá	2	El tablón	2	Febrero	2023-07-02T00:00:00	2024-11-06T12:00:00	6	Velocidad del viento	8
135646	7	Sololá	701	Sololá	2	El tablón	2	Febrero	2023-07-02T00:00:00	2024-11-06T12:00:00	7	Dirección del viento	8.05
135647	7	Sololá	701	Sololá	2	El tablón	2	Febrero	2023-07-02T00:00:00	2024-11-06T12:00:00	1	Precipitación	0
135648	7	Sololá	701	Sololá	2	El tablón	2	Febrero	2023-07-02T00:00:00	2024-11-06T12:00:00	8	Radiación solar	726
135649	7	Sololá	701	Sololá	2	El tablón	2	Febrero	2023-07-02T00:00:00	2024-11-06T13:00:00	2	Temperatura media	18.2
135650	7	Sololá	701	Sololá	2	El tablón	2	Febrero	2023-07-02T00:00:00	2024-11-06T13:00:00	4	Temperatura máxima	18.3
135651	7	Sololá	701	Sololá	2	El tablón	2	Febrero	2023-07-02T00:00:00	2024-11-06T13:00:00	3	Temperatura mínima	17.8
135652	7	Sololá	701	Sololá	2	El tablón	2	Febrero	2023-07-02T00:00:00	2024-11-06T13:00:00	5	Humedad	53
135653	7	Sololá	701	Sololá	2	El tablón	2	Febrero	2023-07-02T00:00:00	2024-11-06T13:00:00	6	Velocidad del viento	8
135654	7	Sololá	701	Sololá	2	El tablón	2	Febrero	2023-07-02T00:00:00	2024-11-06T13:00:00	7	Dirección del viento	8.05
135655	7	Sololá	701	Sololá	2	El tablón	2	Febrero	2023-07-02T00:00:00	2024-11-06T13:00:00	1	Precipitación	0
135656	7	Sololá	701	Sololá	2	El tablón	2	Febrero	2023-07-02T00:00:00	2024-11-06T13:00:00	8	Radiación solar	830
135657	7	Sololá	701	Sololá	2	El tablón	2	Febrero	2023-07-02T00:00:00	2024-11-06T14:00:00	2	Temperatura media	17.5
135658	7	Sololá	701	Sololá	2	El tablón	2	Febrero	2023-07-02T00:00:00	2024-11-06T14:00:00	4	Temperatura máxima	18.7
135659	7	Sololá	701	Sololá	2	El tablón	2	Febrero	2023-07-02T00:00:00	2024-11-06T14:00:00	3	Temperatura mínima	17.4
135660	7	Sololá	701	Sololá	2	El tablón	2	Febrero	2023-07-02T00:00:00	2024-11-06T14:00:00	5	Humedad	60
135661	7	Sololá	701	Sololá	2	El tablón	2	Febrero	2023-07-02T00:00:00	2024-11-06T14:00:00	6	Velocidad del viento	11.3
135662	7	Sololá	701	Sololá	2	El tablón	2	Febrero	2023-07-02T00:00:00	2024-11-06T14:00:00	7	Dirección del viento	11.27
135663	7	Sololá	701	Sololá	2	El tablón	2	Febrero	2023-07-02T00:00:00	2024-11-06T14:00:00	1	Precipitación	0
135664	7	Sololá	701	Sololá	2	El tablón	2	Febrero	2023-07-02T00:00:00	2024-11-06T14:00:00	8	Radiación solar	798
135665	7	Sololá	701	Sololá	2	El tablón	2	Febrero	2023-07-02T00:00:00	2024-11-06T15:00:00	2	Temperatura media	17
135666	7	Sololá	701	Sololá	2	El tablón	2	Febrero	2023-07-02T00:00:00	2024-11-06T15:00:00	4	Temperatura máxima	17.8
135667	7	Sololá	701	Sololá	2	El tablón	2	Febrero	2023-07-02T00:00:00	2024-11-06T15:00:00	3	Temperatura mínima	16.4
135668	7	Sololá	701	Sololá	2	El tablón	2	Febrero	2023-07-02T00:00:00	2024-11-06T15:00:00	5	Humedad	69
135669	7	Sololá	701	Sololá	2	El tablón	2	Febrero	2023-07-02T00:00:00	2024-11-06T15:00:00	6	Velocidad del viento	11.3
135670	7	Sololá	701	Sololá	2	El tablón	2	Febrero	2023-07-02T00:00:00	2024-11-06T15:00:00	7	Dirección del viento	11.27
135671	7	Sololá	701	Sololá	2	El tablón	2	Febrero	2023-07-02T00:00:00	2024-11-06T15:00:00	1	Precipitación	0
135672	7	Sololá	701	Sololá	2	El tablón	2	Febrero	2023-07-02T00:00:00	2024-11-06T15:00:00	8	Radiación solar	684
135673	7	Sololá	701	Sololá	2	El tablón	2	Febrero	2023-07-02T00:00:00	2024-11-06T16:00:00	2	Temperatura media	16.3
135674	7	Sololá	701	Sololá	2	El tablón	2	Febrero	2023-07-02T00:00:00	2024-11-06T16:00:00	4	Temperatura máxima	17
135675	7	Sololá	701	Sololá	2	El tablón	2	Febrero	2023-07-02T00:00:00	2024-11-06T16:00:00	3	Temperatura mínima	16.3
135676	7	Sololá	701	Sololá	2	El tablón	2	Febrero	2023-07-02T00:00:00	2024-11-06T16:00:00	5	Humedad	73
135677	7	Sololá	701	Sololá	2	El tablón	2	Febrero	2023-07-02T00:00:00	2024-11-06T16:00:00	6	Velocidad del viento	8
135678	7	Sololá	701	Sololá	2	El tablón	2	Febrero	2023-07-02T00:00:00	2024-11-06T16:00:00	7	Dirección del viento	8.05
135679	7	Sololá	701	Sololá	2	El tablón	2	Febrero	2023-07-02T00:00:00	2024-11-06T16:00:00	1	Precipitación	0
135680	7	Sololá	701	Sololá	2	El tablón	2	Febrero	2023-07-02T00:00:00	2024-11-06T16:00:00	8	Radiación solar	526
135681	7	Sololá	701	Sololá	2	El tablón	2	Febrero	2023-07-02T00:00:00	2024-11-06T17:00:00	2	Temperatura media	15.3
135682	7	Sololá	701	Sololá	2	El tablón	2	Febrero	2023-07-02T00:00:00	2024-11-06T17:00:00	4	Temperatura máxima	16.4
135683	7	Sololá	701	Sololá	2	El tablón	2	Febrero	2023-07-02T00:00:00	2024-11-06T17:00:00	3	Temperatura mínima	15.3
135684	7	Sololá	701	Sololá	2	El tablón	2	Febrero	2023-07-02T00:00:00	2024-11-06T17:00:00	5	Humedad	77
135685	7	Sololá	701	Sololá	2	El tablón	2	Febrero	2023-07-02T00:00:00	2024-11-06T17:00:00	6	Velocidad del viento	8
135686	7	Sololá	701	Sololá	2	El tablón	2	Febrero	2023-07-02T00:00:00	2024-11-06T17:00:00	7	Dirección del viento	8.05
135687	7	Sololá	701	Sololá	2	El tablón	2	Febrero	2023-07-02T00:00:00	2024-11-06T17:00:00	1	Precipitación	0
135688	7	Sololá	701	Sololá	2	El tablón	2	Febrero	2023-07-02T00:00:00	2024-11-06T17:00:00	8	Radiación solar	317
135689	7	Sololá	701	Sololá	2	El tablón	2	Febrero	2023-07-02T00:00:00	2024-11-06T18:00:00	2	Temperatura media	13.6
135690	7	Sololá	701	Sololá	2	El tablón	2	Febrero	2023-07-02T00:00:00	2024-11-06T18:00:00	4	Temperatura máxima	15.3
135691	7	Sololá	701	Sololá	2	El tablón	2	Febrero	2023-07-02T00:00:00	2024-11-06T18:00:00	3	Temperatura mínima	13.6
135692	7	Sololá	701	Sololá	2	El tablón	2	Febrero	2023-07-02T00:00:00	2024-11-06T18:00:00	5	Humedad	87
135693	7	Sololá	701	Sololá	2	El tablón	2	Febrero	2023-07-02T00:00:00	2024-11-06T18:00:00	6	Velocidad del viento	4.8
135694	7	Sololá	701	Sololá	2	El tablón	2	Febrero	2023-07-02T00:00:00	2024-11-06T18:00:00	7	Dirección del viento	4.83
135695	7	Sololá	701	Sololá	2	El tablón	2	Febrero	2023-07-02T00:00:00	2024-11-06T18:00:00	1	Precipitación	0
135696	7	Sololá	701	Sololá	2	El tablón	2	Febrero	2023-07-02T00:00:00	2024-11-06T18:00:00	8	Radiación solar	52
135697	7	Sololá	701	Sololá	2	El tablón	2	Febrero	2023-07-02T00:00:00	2024-11-06T19:00:00	2	Temperatura media	12.7
135698	7	Sololá	701	Sololá	2	El tablón	2	Febrero	2023-07-02T00:00:00	2024-11-06T19:00:00	4	Temperatura máxima	13.6
135699	7	Sololá	701	Sololá	2	El tablón	2	Febrero	2023-07-02T00:00:00	2024-11-06T19:00:00	3	Temperatura mínima	12.7
135700	7	Sololá	701	Sololá	2	El tablón	2	Febrero	2023-07-02T00:00:00	2024-11-06T19:00:00	5	Humedad	89
135701	7	Sololá	701	Sololá	2	El tablón	2	Febrero	2023-07-02T00:00:00	2024-11-06T19:00:00	6	Velocidad del viento	1.6
135702	7	Sololá	701	Sololá	2	El tablón	2	Febrero	2023-07-02T00:00:00	2024-11-06T19:00:00	7	Dirección del viento	1.61
135703	7	Sololá	701	Sololá	2	El tablón	2	Febrero	2023-07-02T00:00:00	2024-11-06T19:00:00	1	Precipitación	0
135704	7	Sololá	701	Sololá	2	El tablón	2	Febrero	2023-07-02T00:00:00	2024-11-06T19:00:00	8	Radiación solar	0
135705	7	Sololá	701	Sololá	2	El tablón	2	Febrero	2023-07-02T00:00:00	2024-11-06T20:00:00	2	Temperatura media	11.4
135706	7	Sololá	701	Sololá	2	El tablón	2	Febrero	2023-07-02T00:00:00	2024-11-06T20:00:00	4	Temperatura máxima	12.8
135707	7	Sololá	701	Sololá	2	El tablón	2	Febrero	2023-07-02T00:00:00	2024-11-06T20:00:00	3	Temperatura mínima	11.4
135708	7	Sololá	701	Sololá	2	El tablón	2	Febrero	2023-07-02T00:00:00	2024-11-06T20:00:00	5	Humedad	90
135709	7	Sololá	701	Sololá	2	El tablón	2	Febrero	2023-07-02T00:00:00	2024-11-06T20:00:00	6	Velocidad del viento	1.6
135710	7	Sololá	701	Sololá	2	El tablón	2	Febrero	2023-07-02T00:00:00	2024-11-06T20:00:00	7	Dirección del viento	1.61
135711	7	Sololá	701	Sololá	2	El tablón	2	Febrero	2023-07-02T00:00:00	2024-11-06T20:00:00	1	Precipitación	0
135712	7	Sololá	701	Sololá	2	El tablón	2	Febrero	2023-07-02T00:00:00	2024-11-06T20:00:00	8	Radiación solar	0
135713	7	Sololá	701	Sololá	2	El tablón	2	Febrero	2023-07-02T00:00:00	2024-11-06T21:00:00	2	Temperatura media	11.8
135714	7	Sololá	701	Sololá	2	El tablón	2	Febrero	2023-07-02T00:00:00	2024-11-06T21:00:00	4	Temperatura máxima	11.8
135715	7	Sololá	701	Sololá	2	El tablón	2	Febrero	2023-07-02T00:00:00	2024-11-06T21:00:00	3	Temperatura mínima	11.1
135716	7	Sololá	701	Sololá	2	El tablón	2	Febrero	2023-07-02T00:00:00	2024-11-06T21:00:00	5	Humedad	86
135717	7	Sololá	701	Sololá	2	El tablón	2	Febrero	2023-07-02T00:00:00	2024-11-06T21:00:00	6	Velocidad del viento	4.8
135718	7	Sololá	701	Sololá	2	El tablón	2	Febrero	2023-07-02T00:00:00	2024-11-06T21:00:00	7	Dirección del viento	4.83
135719	7	Sololá	701	Sololá	2	El tablón	2	Febrero	2023-07-02T00:00:00	2024-11-06T21:00:00	1	Precipitación	0
135720	7	Sololá	701	Sololá	2	El tablón	2	Febrero	2023-07-02T00:00:00	2024-11-06T21:00:00	8	Radiación solar	0
135721	7	Sololá	701	Sololá	2	El tablón	2	Febrero	2023-07-02T00:00:00	2024-11-06T22:00:00	2	Temperatura media	11.6
135722	7	Sololá	701	Sololá	2	El tablón	2	Febrero	2023-07-02T00:00:00	2024-11-06T22:00:00	4	Temperatura máxima	11.8
135723	7	Sololá	701	Sololá	2	El tablón	2	Febrero	2023-07-02T00:00:00	2024-11-06T22:00:00	3	Temperatura mínima	11.6
135724	7	Sololá	701	Sololá	2	El tablón	2	Febrero	2023-07-02T00:00:00	2024-11-06T22:00:00	5	Humedad	86
135725	7	Sololá	701	Sololá	2	El tablón	2	Febrero	2023-07-02T00:00:00	2024-11-06T22:00:00	6	Velocidad del viento	6.4
135726	7	Sololá	701	Sololá	2	El tablón	2	Febrero	2023-07-02T00:00:00	2024-11-06T22:00:00	7	Dirección del viento	6.44
135727	7	Sololá	701	Sololá	2	El tablón	2	Febrero	2023-07-02T00:00:00	2024-11-06T22:00:00	1	Precipitación	0
135728	7	Sololá	701	Sololá	2	El tablón	2	Febrero	2023-07-02T00:00:00	2024-11-06T22:00:00	8	Radiación solar	0
135729	7	Sololá	701	Sololá	2	El tablón	2	Febrero	2023-07-02T00:00:00	2024-11-06T23:00:00	2	Temperatura media	11.4
135730	7	Sololá	701	Sololá	2	El tablón	2	Febrero	2023-07-02T00:00:00	2024-11-06T23:00:00	4	Temperatura máxima	11.6
135731	7	Sololá	701	Sololá	2	El tablón	2	Febrero	2023-07-02T00:00:00	2024-11-06T23:00:00	3	Temperatura mínima	11.3
135732	7	Sololá	701	Sololá	2	El tablón	2	Febrero	2023-07-02T00:00:00	2024-11-06T23:00:00	5	Humedad	85
135733	7	Sololá	701	Sololá	2	El tablón	2	Febrero	2023-07-02T00:00:00	2024-11-06T23:00:00	6	Velocidad del viento	6.4
135734	7	Sololá	701	Sololá	2	El tablón	2	Febrero	2023-07-02T00:00:00	2024-11-06T23:00:00	7	Dirección del viento	6.44
135735	7	Sololá	701	Sololá	2	El tablón	2	Febrero	2023-07-02T00:00:00	2024-11-06T23:00:00	1	Precipitación	0
135736	7	Sololá	701	Sololá	2	El tablón	2	Febrero	2023-07-02T00:00:00	2024-11-06T23:00:00	8	Radiación solar	0
135737	7	Sololá	701	Sololá	2	El tablón	2	Febrero	2023-08-02T00:00:00	2024-11-06T00:00:00	2	Temperatura media	10.3
135738	7	Sololá	701	Sololá	2	El tablón	2	Febrero	2023-08-02T00:00:00	2024-11-06T00:00:00	4	Temperatura máxima	11.4
135739	7	Sololá	701	Sololá	2	El tablón	2	Febrero	2023-08-02T00:00:00	2024-11-06T00:00:00	3	Temperatura mínima	10.3
135740	7	Sololá	701	Sololá	2	El tablón	2	Febrero	2023-08-02T00:00:00	2024-11-06T00:00:00	5	Humedad	88
135741	7	Sololá	701	Sololá	2	El tablón	2	Febrero	2023-08-02T00:00:00	2024-11-06T00:00:00	6	Velocidad del viento	4.8
135742	7	Sololá	701	Sololá	2	El tablón	2	Febrero	2023-08-02T00:00:00	2024-11-06T00:00:00	7	Dirección del viento	4.83
135743	7	Sololá	701	Sololá	2	El tablón	2	Febrero	2023-08-02T00:00:00	2024-11-06T00:00:00	1	Precipitación	0
135744	7	Sololá	701	Sololá	2	El tablón	2	Febrero	2023-08-02T00:00:00	2024-11-06T00:00:00	8	Radiación solar	0
135745	7	Sololá	701	Sololá	2	El tablón	2	Febrero	2023-08-02T00:00:00	2024-11-06T01:00:00	2	Temperatura media	10.2
135746	7	Sololá	701	Sololá	2	El tablón	2	Febrero	2023-08-02T00:00:00	2024-11-06T01:00:00	4	Temperatura máxima	10.3
135747	7	Sololá	701	Sololá	2	El tablón	2	Febrero	2023-08-02T00:00:00	2024-11-06T01:00:00	3	Temperatura mínima	10.2
135748	7	Sololá	701	Sololá	2	El tablón	2	Febrero	2023-08-02T00:00:00	2024-11-06T01:00:00	5	Humedad	87
135749	7	Sololá	701	Sololá	2	El tablón	2	Febrero	2023-08-02T00:00:00	2024-11-06T01:00:00	6	Velocidad del viento	6.4
135750	7	Sololá	701	Sololá	2	El tablón	2	Febrero	2023-08-02T00:00:00	2024-11-06T01:00:00	7	Dirección del viento	6.44
135751	7	Sololá	701	Sololá	2	El tablón	2	Febrero	2023-08-02T00:00:00	2024-11-06T01:00:00	1	Precipitación	0
135752	7	Sololá	701	Sololá	2	El tablón	2	Febrero	2023-08-02T00:00:00	2024-11-06T01:00:00	8	Radiación solar	0
135753	7	Sololá	701	Sololá	2	El tablón	2	Febrero	2023-08-02T00:00:00	2024-11-06T02:00:00	2	Temperatura media	9.5
135754	7	Sololá	701	Sololá	2	El tablón	2	Febrero	2023-08-02T00:00:00	2024-11-06T02:00:00	4	Temperatura máxima	10.2
135755	7	Sololá	701	Sololá	2	El tablón	2	Febrero	2023-08-02T00:00:00	2024-11-06T02:00:00	3	Temperatura mínima	9.5
135756	7	Sololá	701	Sololá	2	El tablón	2	Febrero	2023-08-02T00:00:00	2024-11-06T02:00:00	5	Humedad	88
135757	7	Sololá	701	Sololá	2	El tablón	2	Febrero	2023-08-02T00:00:00	2024-11-06T02:00:00	6	Velocidad del viento	4.8
135758	7	Sololá	701	Sololá	2	El tablón	2	Febrero	2023-08-02T00:00:00	2024-11-06T02:00:00	7	Dirección del viento	4.83
135759	7	Sololá	701	Sololá	2	El tablón	2	Febrero	2023-08-02T00:00:00	2024-11-06T02:00:00	1	Precipitación	0
135760	7	Sololá	701	Sololá	2	El tablón	2	Febrero	2023-08-02T00:00:00	2024-11-06T02:00:00	8	Radiación solar	0
135761	7	Sololá	701	Sololá	2	El tablón	2	Febrero	2023-08-02T00:00:00	2024-11-06T03:00:00	2	Temperatura media	9.3
135762	7	Sololá	701	Sololá	2	El tablón	2	Febrero	2023-08-02T00:00:00	2024-11-06T03:00:00	4	Temperatura máxima	9.6
135763	7	Sololá	701	Sololá	2	El tablón	2	Febrero	2023-08-02T00:00:00	2024-11-06T03:00:00	3	Temperatura mínima	9.3
135764	7	Sololá	701	Sololá	2	El tablón	2	Febrero	2023-08-02T00:00:00	2024-11-06T03:00:00	5	Humedad	88
135765	7	Sololá	701	Sololá	2	El tablón	2	Febrero	2023-08-02T00:00:00	2024-11-06T03:00:00	6	Velocidad del viento	4.8
135766	7	Sololá	701	Sololá	2	El tablón	2	Febrero	2023-08-02T00:00:00	2024-11-06T03:00:00	7	Dirección del viento	4.83
135767	7	Sololá	701	Sololá	2	El tablón	2	Febrero	2023-08-02T00:00:00	2024-11-06T03:00:00	1	Precipitación	0
135768	7	Sololá	701	Sololá	2	El tablón	2	Febrero	2023-08-02T00:00:00	2024-11-06T03:00:00	8	Radiación solar	0
135769	7	Sololá	701	Sololá	2	El tablón	2	Febrero	2023-08-02T00:00:00	2024-11-06T04:00:00	2	Temperatura media	9.1
135770	7	Sololá	701	Sololá	2	El tablón	2	Febrero	2023-08-02T00:00:00	2024-11-06T04:00:00	4	Temperatura máxima	9.3
135771	7	Sololá	701	Sololá	2	El tablón	2	Febrero	2023-08-02T00:00:00	2024-11-06T04:00:00	3	Temperatura mínima	8.7
135772	7	Sololá	701	Sololá	2	El tablón	2	Febrero	2023-08-02T00:00:00	2024-11-06T04:00:00	5	Humedad	89
135773	7	Sololá	701	Sololá	2	El tablón	2	Febrero	2023-08-02T00:00:00	2024-11-06T04:00:00	6	Velocidad del viento	4.8
135774	7	Sololá	701	Sololá	2	El tablón	2	Febrero	2023-08-02T00:00:00	2024-11-06T04:00:00	7	Dirección del viento	4.83
135775	7	Sololá	701	Sololá	2	El tablón	2	Febrero	2023-08-02T00:00:00	2024-11-06T04:00:00	1	Precipitación	0
135776	7	Sololá	701	Sololá	2	El tablón	2	Febrero	2023-08-02T00:00:00	2024-11-06T04:00:00	8	Radiación solar	0
135777	7	Sololá	701	Sololá	2	El tablón	2	Febrero	2023-08-02T00:00:00	2024-11-06T05:00:00	2	Temperatura media	8.9
135778	7	Sololá	701	Sololá	2	El tablón	2	Febrero	2023-08-02T00:00:00	2024-11-06T05:00:00	4	Temperatura máxima	9.1
135779	7	Sololá	701	Sololá	2	El tablón	2	Febrero	2023-08-02T00:00:00	2024-11-06T05:00:00	3	Temperatura mínima	8.8
135780	7	Sololá	701	Sololá	2	El tablón	2	Febrero	2023-08-02T00:00:00	2024-11-06T05:00:00	5	Humedad	88
135781	7	Sololá	701	Sololá	2	El tablón	2	Febrero	2023-08-02T00:00:00	2024-11-06T05:00:00	6	Velocidad del viento	6.4
135782	7	Sololá	701	Sololá	2	El tablón	2	Febrero	2023-08-02T00:00:00	2024-11-06T05:00:00	7	Dirección del viento	6.44
135783	7	Sololá	701	Sololá	2	El tablón	2	Febrero	2023-08-02T00:00:00	2024-11-06T05:00:00	1	Precipitación	0
135784	7	Sololá	701	Sololá	2	El tablón	2	Febrero	2023-08-02T00:00:00	2024-11-06T05:00:00	8	Radiación solar	0
135785	7	Sololá	701	Sololá	2	El tablón	2	Febrero	2023-08-02T00:00:00	2024-11-06T06:00:00	2	Temperatura media	8.7
135786	7	Sololá	701	Sololá	2	El tablón	2	Febrero	2023-08-02T00:00:00	2024-11-06T06:00:00	4	Temperatura máxima	8.9
135787	7	Sololá	701	Sololá	2	El tablón	2	Febrero	2023-08-02T00:00:00	2024-11-06T06:00:00	3	Temperatura mínima	8.7
135788	7	Sololá	701	Sololá	2	El tablón	2	Febrero	2023-08-02T00:00:00	2024-11-06T06:00:00	5	Humedad	89
135789	7	Sololá	701	Sololá	2	El tablón	2	Febrero	2023-08-02T00:00:00	2024-11-06T06:00:00	6	Velocidad del viento	8
135790	7	Sololá	701	Sololá	2	El tablón	2	Febrero	2023-08-02T00:00:00	2024-11-06T06:00:00	7	Dirección del viento	8.05
135791	7	Sololá	701	Sololá	2	El tablón	2	Febrero	2023-08-02T00:00:00	2024-11-06T06:00:00	1	Precipitación	0
135792	7	Sololá	701	Sololá	2	El tablón	2	Febrero	2023-08-02T00:00:00	2024-11-06T06:00:00	8	Radiación solar	0
135793	7	Sololá	701	Sololá	2	El tablón	2	Febrero	2023-08-02T00:00:00	2024-11-06T07:00:00	2	Temperatura media	9.3
135794	7	Sololá	701	Sololá	2	El tablón	2	Febrero	2023-08-02T00:00:00	2024-11-06T07:00:00	4	Temperatura máxima	9.3
135795	7	Sololá	701	Sololá	2	El tablón	2	Febrero	2023-08-02T00:00:00	2024-11-06T07:00:00	3	Temperatura mínima	8.7
135796	7	Sololá	701	Sololá	2	El tablón	2	Febrero	2023-08-02T00:00:00	2024-11-06T07:00:00	5	Humedad	84
135797	7	Sololá	701	Sololá	2	El tablón	2	Febrero	2023-08-02T00:00:00	2024-11-06T07:00:00	6	Velocidad del viento	8
135798	7	Sololá	701	Sololá	2	El tablón	2	Febrero	2023-08-02T00:00:00	2024-11-06T07:00:00	7	Dirección del viento	8.05
135799	7	Sololá	701	Sololá	2	El tablón	2	Febrero	2023-08-02T00:00:00	2024-11-06T07:00:00	1	Precipitación	0
135800	7	Sololá	701	Sololá	2	El tablón	2	Febrero	2023-08-02T00:00:00	2024-11-06T07:00:00	8	Radiación solar	5
135801	7	Sololá	701	Sololá	2	El tablón	2	Febrero	2023-08-02T00:00:00	2024-11-06T08:00:00	2	Temperatura media	14.1
135802	7	Sololá	701	Sololá	2	El tablón	2	Febrero	2023-08-02T00:00:00	2024-11-06T08:00:00	4	Temperatura máxima	14.1
135803	7	Sololá	701	Sololá	2	El tablón	2	Febrero	2023-08-02T00:00:00	2024-11-06T08:00:00	3	Temperatura mínima	9.3
135804	7	Sololá	701	Sololá	2	El tablón	2	Febrero	2023-08-02T00:00:00	2024-11-06T08:00:00	5	Humedad	62
135805	7	Sololá	701	Sololá	2	El tablón	2	Febrero	2023-08-02T00:00:00	2024-11-06T08:00:00	6	Velocidad del viento	3.2
135806	7	Sololá	701	Sololá	2	El tablón	2	Febrero	2023-08-02T00:00:00	2024-11-06T08:00:00	7	Dirección del viento	3.22
135807	7	Sololá	701	Sololá	2	El tablón	2	Febrero	2023-08-02T00:00:00	2024-11-06T08:00:00	1	Precipitación	0
135808	7	Sololá	701	Sololá	2	El tablón	2	Febrero	2023-08-02T00:00:00	2024-11-06T08:00:00	8	Radiación solar	140
135809	7	Sololá	701	Sololá	2	El tablón	2	Febrero	2023-08-02T00:00:00	2024-11-06T09:00:00	2	Temperatura media	15.5
135810	7	Sololá	701	Sololá	2	El tablón	2	Febrero	2023-08-02T00:00:00	2024-11-06T09:00:00	4	Temperatura máxima	15.5
135811	7	Sololá	701	Sololá	2	El tablón	2	Febrero	2023-08-02T00:00:00	2024-11-06T09:00:00	3	Temperatura mínima	14.1
135812	7	Sololá	701	Sololá	2	El tablón	2	Febrero	2023-08-02T00:00:00	2024-11-06T09:00:00	5	Humedad	60
135813	7	Sololá	701	Sololá	2	El tablón	2	Febrero	2023-08-02T00:00:00	2024-11-06T09:00:00	6	Velocidad del viento	6.4
135814	7	Sololá	701	Sololá	2	El tablón	2	Febrero	2023-08-02T00:00:00	2024-11-06T09:00:00	7	Dirección del viento	6.44
135815	7	Sololá	701	Sololá	2	El tablón	2	Febrero	2023-08-02T00:00:00	2024-11-06T09:00:00	1	Precipitación	0
135816	7	Sololá	701	Sololá	2	El tablón	2	Febrero	2023-08-02T00:00:00	2024-11-06T09:00:00	8	Radiación solar	336
135817	7	Sololá	701	Sololá	2	El tablón	2	Febrero	2023-08-02T00:00:00	2024-11-06T10:00:00	2	Temperatura media	18.7
135818	7	Sololá	701	Sololá	2	El tablón	2	Febrero	2023-08-02T00:00:00	2024-11-06T10:00:00	4	Temperatura máxima	19
135819	7	Sololá	701	Sololá	2	El tablón	2	Febrero	2023-08-02T00:00:00	2024-11-06T10:00:00	3	Temperatura mínima	15.6
135820	7	Sololá	701	Sololá	2	El tablón	2	Febrero	2023-08-02T00:00:00	2024-11-06T10:00:00	5	Humedad	58
135821	7	Sololá	701	Sololá	2	El tablón	2	Febrero	2023-08-02T00:00:00	2024-11-06T10:00:00	6	Velocidad del viento	4.8
135822	7	Sololá	701	Sololá	2	El tablón	2	Febrero	2023-08-02T00:00:00	2024-11-06T10:00:00	7	Dirección del viento	4.83
135823	7	Sololá	701	Sololá	2	El tablón	2	Febrero	2023-08-02T00:00:00	2024-11-06T10:00:00	1	Precipitación	0
135824	7	Sololá	701	Sololá	2	El tablón	2	Febrero	2023-08-02T00:00:00	2024-11-06T10:00:00	8	Radiación solar	553
135825	7	Sololá	701	Sololá	2	El tablón	2	Febrero	2023-08-02T00:00:00	2024-11-06T11:00:00	2	Temperatura media	18.9
135826	7	Sololá	701	Sololá	2	El tablón	2	Febrero	2023-08-02T00:00:00	2024-11-06T11:00:00	4	Temperatura máxima	22.8
135827	7	Sololá	701	Sololá	2	El tablón	2	Febrero	2023-08-02T00:00:00	2024-11-06T11:00:00	3	Temperatura mínima	18
135828	7	Sololá	701	Sololá	2	El tablón	2	Febrero	2023-08-02T00:00:00	2024-11-06T11:00:00	5	Humedad	54
135829	7	Sololá	701	Sololá	2	El tablón	2	Febrero	2023-08-02T00:00:00	2024-11-06T11:00:00	6	Velocidad del viento	4.8
135830	7	Sololá	701	Sololá	2	El tablón	2	Febrero	2023-08-02T00:00:00	2024-11-06T11:00:00	7	Dirección del viento	4.83
135831	7	Sololá	701	Sololá	2	El tablón	2	Febrero	2023-08-02T00:00:00	2024-11-06T11:00:00	1	Precipitación	0.4
135832	7	Sololá	701	Sololá	2	El tablón	2	Febrero	2023-08-02T00:00:00	2024-11-06T11:00:00	8	Radiación solar	730
135833	7	Sololá	701	Sololá	2	El tablón	2	Febrero	2023-08-02T00:00:00	2024-11-06T12:00:00	2	Temperatura media	17.7
135834	7	Sololá	701	Sololá	2	El tablón	2	Febrero	2023-08-02T00:00:00	2024-11-06T12:00:00	4	Temperatura máxima	18.9
135835	7	Sololá	701	Sololá	2	El tablón	2	Febrero	2023-08-02T00:00:00	2024-11-06T12:00:00	3	Temperatura mínima	17.6
135836	7	Sololá	701	Sololá	2	El tablón	2	Febrero	2023-08-02T00:00:00	2024-11-06T12:00:00	5	Humedad	60
135837	7	Sololá	701	Sololá	2	El tablón	2	Febrero	2023-08-02T00:00:00	2024-11-06T12:00:00	6	Velocidad del viento	9.7
135838	7	Sololá	701	Sololá	2	El tablón	2	Febrero	2023-08-02T00:00:00	2024-11-06T12:00:00	7	Dirección del viento	9.66
135839	7	Sololá	701	Sololá	2	El tablón	2	Febrero	2023-08-02T00:00:00	2024-11-06T12:00:00	1	Precipitación	0
135840	7	Sololá	701	Sololá	2	El tablón	2	Febrero	2023-08-02T00:00:00	2024-11-06T12:00:00	8	Radiación solar	764
135841	7	Sololá	701	Sololá	2	El tablón	2	Febrero	2023-08-02T00:00:00	2024-11-06T13:00:00	2	Temperatura media	18.7
135842	7	Sololá	701	Sololá	2	El tablón	2	Febrero	2023-08-02T00:00:00	2024-11-06T13:00:00	4	Temperatura máxima	18.7
135843	7	Sololá	701	Sololá	2	El tablón	2	Febrero	2023-08-02T00:00:00	2024-11-06T13:00:00	3	Temperatura mínima	17.7
135844	7	Sololá	701	Sololá	2	El tablón	2	Febrero	2023-08-02T00:00:00	2024-11-06T13:00:00	5	Humedad	60
135845	7	Sololá	701	Sololá	2	El tablón	2	Febrero	2023-08-02T00:00:00	2024-11-06T13:00:00	6	Velocidad del viento	8
135846	7	Sololá	701	Sololá	2	El tablón	2	Febrero	2023-08-02T00:00:00	2024-11-06T13:00:00	7	Dirección del viento	8.05
135847	7	Sololá	701	Sololá	2	El tablón	2	Febrero	2023-08-02T00:00:00	2024-11-06T13:00:00	1	Precipitación	0
135848	7	Sololá	701	Sololá	2	El tablón	2	Febrero	2023-08-02T00:00:00	2024-11-06T13:00:00	8	Radiación solar	863
135849	7	Sololá	701	Sololá	2	El tablón	2	Febrero	2023-08-02T00:00:00	2024-11-06T14:00:00	2	Temperatura media	18.5
135850	7	Sololá	701	Sololá	2	El tablón	2	Febrero	2023-08-02T00:00:00	2024-11-06T14:00:00	4	Temperatura máxima	19.2
135851	7	Sololá	701	Sololá	2	El tablón	2	Febrero	2023-08-02T00:00:00	2024-11-06T14:00:00	3	Temperatura mínima	18.3
135852	7	Sololá	701	Sololá	2	El tablón	2	Febrero	2023-08-02T00:00:00	2024-11-06T14:00:00	5	Humedad	65
135853	7	Sololá	701	Sololá	2	El tablón	2	Febrero	2023-08-02T00:00:00	2024-11-06T14:00:00	6	Velocidad del viento	8
135854	7	Sololá	701	Sololá	2	El tablón	2	Febrero	2023-08-02T00:00:00	2024-11-06T14:00:00	7	Dirección del viento	8.05
135855	7	Sololá	701	Sololá	2	El tablón	2	Febrero	2023-08-02T00:00:00	2024-11-06T14:00:00	1	Precipitación	0
135856	7	Sololá	701	Sololá	2	El tablón	2	Febrero	2023-08-02T00:00:00	2024-11-06T14:00:00	8	Radiación solar	833
135857	7	Sololá	701	Sololá	2	El tablón	2	Febrero	2023-08-02T00:00:00	2024-11-06T15:00:00	2	Temperatura media	17.4
135858	7	Sololá	701	Sololá	2	El tablón	2	Febrero	2023-08-02T00:00:00	2024-11-06T15:00:00	4	Temperatura máxima	18.8
135859	7	Sololá	701	Sololá	2	El tablón	2	Febrero	2023-08-02T00:00:00	2024-11-06T15:00:00	3	Temperatura mínima	17.3
135860	7	Sololá	701	Sololá	2	El tablón	2	Febrero	2023-08-02T00:00:00	2024-11-06T15:00:00	5	Humedad	75
135861	7	Sololá	701	Sololá	2	El tablón	2	Febrero	2023-08-02T00:00:00	2024-11-06T15:00:00	6	Velocidad del viento	9.7
135862	7	Sololá	701	Sololá	2	El tablón	2	Febrero	2023-08-02T00:00:00	2024-11-06T15:00:00	7	Dirección del viento	9.66
135863	7	Sololá	701	Sololá	2	El tablón	2	Febrero	2023-08-02T00:00:00	2024-11-06T15:00:00	1	Precipitación	0
135864	7	Sololá	701	Sololá	2	El tablón	2	Febrero	2023-08-02T00:00:00	2024-11-06T15:00:00	8	Radiación solar	745
135865	7	Sololá	701	Sololá	2	El tablón	2	Febrero	2023-08-02T00:00:00	2024-11-06T16:00:00	2	Temperatura media	16.9
135866	7	Sololá	701	Sololá	2	El tablón	2	Febrero	2023-08-02T00:00:00	2024-11-06T16:00:00	4	Temperatura máxima	18.1
135867	7	Sololá	701	Sololá	2	El tablón	2	Febrero	2023-08-02T00:00:00	2024-11-06T16:00:00	3	Temperatura mínima	16.9
135868	7	Sololá	701	Sololá	2	El tablón	2	Febrero	2023-08-02T00:00:00	2024-11-06T16:00:00	5	Humedad	80
135869	7	Sololá	701	Sololá	2	El tablón	2	Febrero	2023-08-02T00:00:00	2024-11-06T16:00:00	6	Velocidad del viento	6.4
135870	7	Sololá	701	Sololá	2	El tablón	2	Febrero	2023-08-02T00:00:00	2024-11-06T16:00:00	7	Dirección del viento	6.44
135871	7	Sololá	701	Sololá	2	El tablón	2	Febrero	2023-08-02T00:00:00	2024-11-06T16:00:00	1	Precipitación	0
135872	7	Sololá	701	Sololá	2	El tablón	2	Febrero	2023-08-02T00:00:00	2024-11-06T16:00:00	8	Radiación solar	344
135873	7	Sololá	701	Sololá	2	El tablón	2	Febrero	2023-08-02T00:00:00	2024-11-06T17:00:00	2	Temperatura media	16.6
135874	7	Sololá	701	Sololá	2	El tablón	2	Febrero	2023-08-02T00:00:00	2024-11-06T17:00:00	4	Temperatura máxima	16.9
135875	7	Sololá	701	Sololá	2	El tablón	2	Febrero	2023-08-02T00:00:00	2024-11-06T17:00:00	3	Temperatura mínima	16.1
135876	7	Sololá	701	Sololá	2	El tablón	2	Febrero	2023-08-02T00:00:00	2024-11-06T17:00:00	5	Humedad	81
135877	7	Sololá	701	Sololá	2	El tablón	2	Febrero	2023-08-02T00:00:00	2024-11-06T17:00:00	6	Velocidad del viento	4.8
135878	7	Sololá	701	Sololá	2	El tablón	2	Febrero	2023-08-02T00:00:00	2024-11-06T17:00:00	7	Dirección del viento	4.83
135879	7	Sololá	701	Sololá	2	El tablón	2	Febrero	2023-08-02T00:00:00	2024-11-06T17:00:00	1	Precipitación	0
135880	7	Sololá	701	Sololá	2	El tablón	2	Febrero	2023-08-02T00:00:00	2024-11-06T17:00:00	8	Radiación solar	216
135881	7	Sololá	701	Sololá	2	El tablón	2	Febrero	2023-08-02T00:00:00	2024-11-06T18:00:00	2	Temperatura media	15.5
135882	7	Sololá	701	Sololá	2	El tablón	2	Febrero	2023-08-02T00:00:00	2024-11-06T18:00:00	4	Temperatura máxima	16.7
135883	7	Sololá	701	Sololá	2	El tablón	2	Febrero	2023-08-02T00:00:00	2024-11-06T18:00:00	3	Temperatura mínima	15.5
135884	7	Sololá	701	Sololá	2	El tablón	2	Febrero	2023-08-02T00:00:00	2024-11-06T18:00:00	5	Humedad	82
135885	7	Sololá	701	Sololá	2	El tablón	2	Febrero	2023-08-02T00:00:00	2024-11-06T18:00:00	6	Velocidad del viento	3.2
135886	7	Sololá	701	Sololá	2	El tablón	2	Febrero	2023-08-02T00:00:00	2024-11-06T18:00:00	7	Dirección del viento	3.22
135887	7	Sololá	701	Sololá	2	El tablón	2	Febrero	2023-08-02T00:00:00	2024-11-06T18:00:00	1	Precipitación	0
135888	7	Sololá	701	Sololá	2	El tablón	2	Febrero	2023-08-02T00:00:00	2024-11-06T18:00:00	8	Radiación solar	59
135889	7	Sololá	701	Sololá	2	El tablón	2	Febrero	2023-08-02T00:00:00	2024-11-06T19:00:00	2	Temperatura media	14.3
135890	7	Sololá	701	Sololá	2	El tablón	2	Febrero	2023-08-02T00:00:00	2024-11-06T19:00:00	4	Temperatura máxima	15.4
135891	7	Sololá	701	Sololá	2	El tablón	2	Febrero	2023-08-02T00:00:00	2024-11-06T19:00:00	3	Temperatura mínima	14.3
135892	7	Sololá	701	Sololá	2	El tablón	2	Febrero	2023-08-02T00:00:00	2024-11-06T19:00:00	5	Humedad	73
135893	7	Sololá	701	Sololá	2	El tablón	2	Febrero	2023-08-02T00:00:00	2024-11-06T19:00:00	6	Velocidad del viento	1.6
135894	7	Sololá	701	Sololá	2	El tablón	2	Febrero	2023-08-02T00:00:00	2024-11-06T19:00:00	7	Dirección del viento	1.61
135895	7	Sololá	701	Sololá	2	El tablón	2	Febrero	2023-08-02T00:00:00	2024-11-06T19:00:00	1	Precipitación	0
135896	7	Sololá	701	Sololá	2	El tablón	2	Febrero	2023-08-02T00:00:00	2024-11-06T19:00:00	8	Radiación solar	0
135897	7	Sololá	701	Sololá	2	El tablón	2	Febrero	2023-08-02T00:00:00	2024-11-06T20:00:00	2	Temperatura media	13.5
135898	7	Sololá	701	Sololá	2	El tablón	2	Febrero	2023-08-02T00:00:00	2024-11-06T20:00:00	4	Temperatura máxima	14.3
135899	7	Sololá	701	Sololá	2	El tablón	2	Febrero	2023-08-02T00:00:00	2024-11-06T20:00:00	3	Temperatura mínima	13.4
135900	7	Sololá	701	Sololá	2	El tablón	2	Febrero	2023-08-02T00:00:00	2024-11-06T20:00:00	5	Humedad	83
135901	7	Sololá	701	Sololá	2	El tablón	2	Febrero	2023-08-02T00:00:00	2024-11-06T20:00:00	6	Velocidad del viento	4.8
135902	7	Sololá	701	Sololá	2	El tablón	2	Febrero	2023-08-02T00:00:00	2024-11-06T20:00:00	7	Dirección del viento	4.83
135903	7	Sololá	701	Sololá	2	El tablón	2	Febrero	2023-08-02T00:00:00	2024-11-06T20:00:00	1	Precipitación	0
135904	7	Sololá	701	Sololá	2	El tablón	2	Febrero	2023-08-02T00:00:00	2024-11-06T20:00:00	8	Radiación solar	0
135905	7	Sololá	701	Sololá	2	El tablón	2	Febrero	2023-08-02T00:00:00	2024-11-06T21:00:00	2	Temperatura media	13.3
135906	7	Sololá	701	Sololá	2	El tablón	2	Febrero	2023-08-02T00:00:00	2024-11-06T21:00:00	4	Temperatura máxima	13.5
135907	7	Sololá	701	Sololá	2	El tablón	2	Febrero	2023-08-02T00:00:00	2024-11-06T21:00:00	3	Temperatura mínima	13.3
135908	7	Sololá	701	Sololá	2	El tablón	2	Febrero	2023-08-02T00:00:00	2024-11-06T21:00:00	5	Humedad	85
135909	7	Sololá	701	Sololá	2	El tablón	2	Febrero	2023-08-02T00:00:00	2024-11-06T21:00:00	6	Velocidad del viento	4.8
135910	7	Sololá	701	Sololá	2	El tablón	2	Febrero	2023-08-02T00:00:00	2024-11-06T21:00:00	7	Dirección del viento	4.83
135911	7	Sololá	701	Sololá	2	El tablón	2	Febrero	2023-08-02T00:00:00	2024-11-06T21:00:00	1	Precipitación	0
135912	7	Sololá	701	Sololá	2	El tablón	2	Febrero	2023-08-02T00:00:00	2024-11-06T21:00:00	8	Radiación solar	0
135913	7	Sololá	701	Sololá	2	El tablón	2	Febrero	2023-08-02T00:00:00	2024-11-06T22:00:00	2	Temperatura media	12.9
135914	7	Sololá	701	Sololá	2	El tablón	2	Febrero	2023-08-02T00:00:00	2024-11-06T22:00:00	4	Temperatura máxima	13.3
135915	7	Sololá	701	Sololá	2	El tablón	2	Febrero	2023-08-02T00:00:00	2024-11-06T22:00:00	3	Temperatura mínima	12.9
135916	7	Sololá	701	Sololá	2	El tablón	2	Febrero	2023-08-02T00:00:00	2024-11-06T22:00:00	5	Humedad	86
135917	7	Sololá	701	Sololá	2	El tablón	2	Febrero	2023-08-02T00:00:00	2024-11-06T22:00:00	6	Velocidad del viento	6.4
135918	7	Sololá	701	Sololá	2	El tablón	2	Febrero	2023-08-02T00:00:00	2024-11-06T22:00:00	7	Dirección del viento	6.44
135919	7	Sololá	701	Sololá	2	El tablón	2	Febrero	2023-08-02T00:00:00	2024-11-06T22:00:00	1	Precipitación	0
135920	7	Sololá	701	Sololá	2	El tablón	2	Febrero	2023-08-02T00:00:00	2024-11-06T22:00:00	8	Radiación solar	0
135921	7	Sololá	701	Sololá	2	El tablón	2	Febrero	2023-08-02T00:00:00	2024-11-06T23:00:00	2	Temperatura media	12.3
135922	7	Sololá	701	Sololá	2	El tablón	2	Febrero	2023-08-02T00:00:00	2024-11-06T23:00:00	4	Temperatura máxima	12.9
135923	7	Sololá	701	Sololá	2	El tablón	2	Febrero	2023-08-02T00:00:00	2024-11-06T23:00:00	3	Temperatura mínima	12.3
135924	7	Sololá	701	Sololá	2	El tablón	2	Febrero	2023-08-02T00:00:00	2024-11-06T23:00:00	5	Humedad	88
135925	7	Sololá	701	Sololá	2	El tablón	2	Febrero	2023-08-02T00:00:00	2024-11-06T23:00:00	6	Velocidad del viento	9.7
135926	7	Sololá	701	Sololá	2	El tablón	2	Febrero	2023-08-02T00:00:00	2024-11-06T23:00:00	7	Dirección del viento	9.66
135927	7	Sololá	701	Sololá	2	El tablón	2	Febrero	2023-08-02T00:00:00	2024-11-06T23:00:00	1	Precipitación	0
135928	7	Sololá	701	Sololá	2	El tablón	2	Febrero	2023-08-02T00:00:00	2024-11-06T23:00:00	8	Radiación solar	0
135929	7	Sololá	701	Sololá	2	El tablón	2	Febrero	2023-09-02T00:00:00	2024-11-06T00:00:00	2	Temperatura media	12.2
135930	7	Sololá	701	Sololá	2	El tablón	2	Febrero	2023-09-02T00:00:00	2024-11-06T00:00:00	4	Temperatura máxima	12.3
135931	7	Sololá	701	Sololá	2	El tablón	2	Febrero	2023-09-02T00:00:00	2024-11-06T00:00:00	3	Temperatura mínima	12.2
135932	7	Sololá	701	Sololá	2	El tablón	2	Febrero	2023-09-02T00:00:00	2024-11-06T00:00:00	5	Humedad	86
135933	7	Sololá	701	Sololá	2	El tablón	2	Febrero	2023-09-02T00:00:00	2024-11-06T00:00:00	6	Velocidad del viento	6.4
135934	7	Sololá	701	Sololá	2	El tablón	2	Febrero	2023-09-02T00:00:00	2024-11-06T00:00:00	7	Dirección del viento	6.44
135935	7	Sololá	701	Sololá	2	El tablón	2	Febrero	2023-09-02T00:00:00	2024-11-06T00:00:00	1	Precipitación	0
135936	7	Sololá	701	Sololá	2	El tablón	2	Febrero	2023-09-02T00:00:00	2024-11-06T00:00:00	8	Radiación solar	0
135937	7	Sololá	701	Sololá	2	El tablón	2	Febrero	2023-09-02T00:00:00	2024-11-06T01:00:00	2	Temperatura media	11.9
135938	7	Sololá	701	Sololá	2	El tablón	2	Febrero	2023-09-02T00:00:00	2024-11-06T01:00:00	4	Temperatura máxima	12.2
135939	7	Sololá	701	Sololá	2	El tablón	2	Febrero	2023-09-02T00:00:00	2024-11-06T01:00:00	3	Temperatura mínima	11.9
135940	7	Sololá	701	Sololá	2	El tablón	2	Febrero	2023-09-02T00:00:00	2024-11-06T01:00:00	5	Humedad	84
135941	7	Sololá	701	Sololá	2	El tablón	2	Febrero	2023-09-02T00:00:00	2024-11-06T01:00:00	6	Velocidad del viento	8
135942	7	Sololá	701	Sololá	2	El tablón	2	Febrero	2023-09-02T00:00:00	2024-11-06T01:00:00	7	Dirección del viento	8.05
135943	7	Sololá	701	Sololá	2	El tablón	2	Febrero	2023-09-02T00:00:00	2024-11-06T01:00:00	1	Precipitación	0
135944	7	Sololá	701	Sololá	2	El tablón	2	Febrero	2023-09-02T00:00:00	2024-11-06T01:00:00	8	Radiación solar	0
135945	7	Sololá	701	Sololá	2	El tablón	2	Febrero	2023-09-02T00:00:00	2024-11-06T02:00:00	2	Temperatura media	11.9
135946	7	Sololá	701	Sololá	2	El tablón	2	Febrero	2023-09-02T00:00:00	2024-11-06T02:00:00	4	Temperatura máxima	12
135947	7	Sololá	701	Sololá	2	El tablón	2	Febrero	2023-09-02T00:00:00	2024-11-06T02:00:00	3	Temperatura mínima	11.9
135948	7	Sololá	701	Sololá	2	El tablón	2	Febrero	2023-09-02T00:00:00	2024-11-06T02:00:00	5	Humedad	81
135949	7	Sololá	701	Sololá	2	El tablón	2	Febrero	2023-09-02T00:00:00	2024-11-06T02:00:00	6	Velocidad del viento	8
135950	7	Sololá	701	Sololá	2	El tablón	2	Febrero	2023-09-02T00:00:00	2024-11-06T02:00:00	7	Dirección del viento	8.05
135951	7	Sololá	701	Sololá	2	El tablón	2	Febrero	2023-09-02T00:00:00	2024-11-06T02:00:00	1	Precipitación	0
135952	7	Sololá	701	Sololá	2	El tablón	2	Febrero	2023-09-02T00:00:00	2024-11-06T02:00:00	8	Radiación solar	0
135953	7	Sololá	701	Sololá	2	El tablón	2	Febrero	2023-09-02T00:00:00	2024-11-06T03:00:00	2	Temperatura media	11.8
135954	7	Sololá	701	Sololá	2	El tablón	2	Febrero	2023-09-02T00:00:00	2024-11-06T03:00:00	4	Temperatura máxima	12.2
135955	7	Sololá	701	Sololá	2	El tablón	2	Febrero	2023-09-02T00:00:00	2024-11-06T03:00:00	3	Temperatura mínima	11.8
135956	7	Sololá	701	Sololá	2	El tablón	2	Febrero	2023-09-02T00:00:00	2024-11-06T03:00:00	5	Humedad	75
135957	7	Sololá	701	Sololá	2	El tablón	2	Febrero	2023-09-02T00:00:00	2024-11-06T03:00:00	6	Velocidad del viento	6.4
135958	7	Sololá	701	Sololá	2	El tablón	2	Febrero	2023-09-02T00:00:00	2024-11-06T03:00:00	7	Dirección del viento	6.44
135959	7	Sololá	701	Sololá	2	El tablón	2	Febrero	2023-09-02T00:00:00	2024-11-06T03:00:00	1	Precipitación	0
135960	7	Sololá	701	Sololá	2	El tablón	2	Febrero	2023-09-02T00:00:00	2024-11-06T03:00:00	8	Radiación solar	0
135961	7	Sololá	701	Sololá	2	El tablón	2	Febrero	2023-09-02T00:00:00	2024-11-06T04:00:00	2	Temperatura media	11.9
135962	7	Sololá	701	Sololá	2	El tablón	2	Febrero	2023-09-02T00:00:00	2024-11-06T04:00:00	4	Temperatura máxima	12
135963	7	Sololá	701	Sololá	2	El tablón	2	Febrero	2023-09-02T00:00:00	2024-11-06T04:00:00	3	Temperatura mínima	11.6
135964	7	Sololá	701	Sololá	2	El tablón	2	Febrero	2023-09-02T00:00:00	2024-11-06T04:00:00	5	Humedad	71
135965	7	Sololá	701	Sololá	2	El tablón	2	Febrero	2023-09-02T00:00:00	2024-11-06T04:00:00	6	Velocidad del viento	6.4
135966	7	Sololá	701	Sololá	2	El tablón	2	Febrero	2023-09-02T00:00:00	2024-11-06T04:00:00	7	Dirección del viento	6.44
135967	7	Sololá	701	Sololá	2	El tablón	2	Febrero	2023-09-02T00:00:00	2024-11-06T04:00:00	1	Precipitación	0
135968	7	Sololá	701	Sololá	2	El tablón	2	Febrero	2023-09-02T00:00:00	2024-11-06T04:00:00	8	Radiación solar	0
135969	7	Sololá	701	Sololá	2	El tablón	2	Febrero	2023-09-02T00:00:00	2024-11-06T05:00:00	2	Temperatura media	11.2
135970	7	Sololá	701	Sololá	2	El tablón	2	Febrero	2023-09-02T00:00:00	2024-11-06T05:00:00	4	Temperatura máxima	12
135971	7	Sololá	701	Sololá	2	El tablón	2	Febrero	2023-09-02T00:00:00	2024-11-06T05:00:00	3	Temperatura mínima	11.2
135972	7	Sololá	701	Sololá	2	El tablón	2	Febrero	2023-09-02T00:00:00	2024-11-06T05:00:00	5	Humedad	68
135973	7	Sololá	701	Sololá	2	El tablón	2	Febrero	2023-09-02T00:00:00	2024-11-06T05:00:00	6	Velocidad del viento	6.4
135974	7	Sololá	701	Sololá	2	El tablón	2	Febrero	2023-09-02T00:00:00	2024-11-06T05:00:00	7	Dirección del viento	6.44
135975	7	Sololá	701	Sololá	2	El tablón	2	Febrero	2023-09-02T00:00:00	2024-11-06T05:00:00	1	Precipitación	0
135976	7	Sololá	701	Sololá	2	El tablón	2	Febrero	2023-09-02T00:00:00	2024-11-06T05:00:00	8	Radiación solar	0
135977	7	Sololá	701	Sololá	2	El tablón	2	Febrero	2023-09-02T00:00:00	2024-11-06T06:00:00	2	Temperatura media	10.1
135978	7	Sololá	701	Sololá	2	El tablón	2	Febrero	2023-09-02T00:00:00	2024-11-06T06:00:00	4	Temperatura máxima	11.2
135979	7	Sololá	701	Sololá	2	El tablón	2	Febrero	2023-09-02T00:00:00	2024-11-06T06:00:00	3	Temperatura mínima	9.9
135980	7	Sololá	701	Sololá	2	El tablón	2	Febrero	2023-09-02T00:00:00	2024-11-06T06:00:00	5	Humedad	72
135981	7	Sololá	701	Sololá	2	El tablón	2	Febrero	2023-09-02T00:00:00	2024-11-06T06:00:00	6	Velocidad del viento	1.6
135982	7	Sololá	701	Sololá	2	El tablón	2	Febrero	2023-09-02T00:00:00	2024-11-06T06:00:00	7	Dirección del viento	1.61
135983	7	Sololá	701	Sololá	2	El tablón	2	Febrero	2023-09-02T00:00:00	2024-11-06T06:00:00	1	Precipitación	0
135984	7	Sololá	701	Sololá	2	El tablón	2	Febrero	2023-09-02T00:00:00	2024-11-06T06:00:00	8	Radiación solar	0
135985	7	Sololá	701	Sololá	2	El tablón	2	Febrero	2023-09-02T00:00:00	2024-11-06T07:00:00	2	Temperatura media	10.2
135986	7	Sololá	701	Sololá	2	El tablón	2	Febrero	2023-09-02T00:00:00	2024-11-06T07:00:00	4	Temperatura máxima	10.2
135987	7	Sololá	701	Sololá	2	El tablón	2	Febrero	2023-09-02T00:00:00	2024-11-06T07:00:00	3	Temperatura mínima	9.2
135988	7	Sololá	701	Sololá	2	El tablón	2	Febrero	2023-09-02T00:00:00	2024-11-06T07:00:00	5	Humedad	68
135989	7	Sololá	701	Sololá	2	El tablón	2	Febrero	2023-09-02T00:00:00	2024-11-06T07:00:00	6	Velocidad del viento	0
135990	7	Sololá	701	Sololá	2	El tablón	2	Febrero	2023-09-02T00:00:00	2024-11-06T07:00:00	7	Dirección del viento	0
135991	7	Sololá	701	Sololá	2	El tablón	2	Febrero	2023-09-02T00:00:00	2024-11-06T07:00:00	1	Precipitación	0
135992	7	Sololá	701	Sololá	2	El tablón	2	Febrero	2023-09-02T00:00:00	2024-11-06T07:00:00	8	Radiación solar	7
135993	7	Sololá	701	Sololá	2	El tablón	2	Febrero	2023-09-02T00:00:00	2024-11-06T08:00:00	2	Temperatura media	14.3
135994	7	Sololá	701	Sololá	2	El tablón	2	Febrero	2023-09-02T00:00:00	2024-11-06T08:00:00	4	Temperatura máxima	14.3
135995	7	Sololá	701	Sololá	2	El tablón	2	Febrero	2023-09-02T00:00:00	2024-11-06T08:00:00	3	Temperatura mínima	10.2
135996	7	Sololá	701	Sololá	2	El tablón	2	Febrero	2023-09-02T00:00:00	2024-11-06T08:00:00	5	Humedad	51
135997	7	Sololá	701	Sololá	2	El tablón	2	Febrero	2023-09-02T00:00:00	2024-11-06T08:00:00	6	Velocidad del viento	1.6
135998	7	Sololá	701	Sololá	2	El tablón	2	Febrero	2023-09-02T00:00:00	2024-11-06T08:00:00	7	Dirección del viento	1.61
135999	7	Sololá	701	Sololá	2	El tablón	2	Febrero	2023-09-02T00:00:00	2024-11-06T08:00:00	1	Precipitación	0
136000	7	Sololá	701	Sololá	2	El tablón	2	Febrero	2023-09-02T00:00:00	2024-11-06T08:00:00	8	Radiación solar	147
136001	7	Sololá	701	Sololá	2	El tablón	2	Febrero	2023-09-02T00:00:00	2024-11-06T09:00:00	2	Temperatura media	16.8
136002	7	Sololá	701	Sololá	2	El tablón	2	Febrero	2023-09-02T00:00:00	2024-11-06T09:00:00	4	Temperatura máxima	16.8
136003	7	Sololá	701	Sololá	2	El tablón	2	Febrero	2023-09-02T00:00:00	2024-11-06T09:00:00	3	Temperatura mínima	14.3
136004	7	Sololá	701	Sololá	2	El tablón	2	Febrero	2023-09-02T00:00:00	2024-11-06T09:00:00	5	Humedad	41
136005	7	Sololá	701	Sololá	2	El tablón	2	Febrero	2023-09-02T00:00:00	2024-11-06T09:00:00	6	Velocidad del viento	8
136006	7	Sololá	701	Sololá	2	El tablón	2	Febrero	2023-09-02T00:00:00	2024-11-06T09:00:00	7	Dirección del viento	8.05
136007	7	Sololá	701	Sololá	2	El tablón	2	Febrero	2023-09-02T00:00:00	2024-11-06T09:00:00	1	Precipitación	0
136008	7	Sololá	701	Sololá	2	El tablón	2	Febrero	2023-09-02T00:00:00	2024-11-06T09:00:00	8	Radiación solar	365
136009	7	Sololá	701	Sololá	2	El tablón	2	Febrero	2023-09-02T00:00:00	2024-11-06T10:00:00	2	Temperatura media	17.4
136010	7	Sololá	701	Sololá	2	El tablón	2	Febrero	2023-09-02T00:00:00	2024-11-06T10:00:00	4	Temperatura máxima	17.6
136011	7	Sololá	701	Sololá	2	El tablón	2	Febrero	2023-09-02T00:00:00	2024-11-06T10:00:00	3	Temperatura mínima	16.6
136012	7	Sololá	701	Sololá	2	El tablón	2	Febrero	2023-09-02T00:00:00	2024-11-06T10:00:00	5	Humedad	37
136013	7	Sololá	701	Sololá	2	El tablón	2	Febrero	2023-09-02T00:00:00	2024-11-06T10:00:00	6	Velocidad del viento	9.7
136014	7	Sololá	701	Sololá	2	El tablón	2	Febrero	2023-09-02T00:00:00	2024-11-06T10:00:00	7	Dirección del viento	9.66
136015	7	Sololá	701	Sololá	2	El tablón	2	Febrero	2023-09-02T00:00:00	2024-11-06T10:00:00	1	Precipitación	0
136016	7	Sololá	701	Sololá	2	El tablón	2	Febrero	2023-09-02T00:00:00	2024-11-06T10:00:00	8	Radiación solar	588
136017	7	Sololá	701	Sololá	2	El tablón	2	Febrero	2023-09-02T00:00:00	2024-11-06T11:00:00	2	Temperatura media	17.9
136018	7	Sololá	701	Sololá	2	El tablón	2	Febrero	2023-09-02T00:00:00	2024-11-06T11:00:00	4	Temperatura máxima	17.9
136019	7	Sololá	701	Sololá	2	El tablón	2	Febrero	2023-09-02T00:00:00	2024-11-06T11:00:00	3	Temperatura mínima	17.3
136020	7	Sololá	701	Sololá	2	El tablón	2	Febrero	2023-09-02T00:00:00	2024-11-06T11:00:00	5	Humedad	48
136021	7	Sololá	701	Sololá	2	El tablón	2	Febrero	2023-09-02T00:00:00	2024-11-06T11:00:00	6	Velocidad del viento	12.9
136022	7	Sololá	701	Sololá	2	El tablón	2	Febrero	2023-09-02T00:00:00	2024-11-06T11:00:00	7	Dirección del viento	12.87
136023	7	Sololá	701	Sololá	2	El tablón	2	Febrero	2023-09-02T00:00:00	2024-11-06T11:00:00	1	Precipitación	0
136024	7	Sololá	701	Sololá	2	El tablón	2	Febrero	2023-09-02T00:00:00	2024-11-06T11:00:00	8	Radiación solar	741
136025	7	Sololá	701	Sololá	2	El tablón	2	Febrero	2023-09-02T00:00:00	2024-11-06T12:00:00	2	Temperatura media	18.9
136026	7	Sololá	701	Sololá	2	El tablón	2	Febrero	2023-09-02T00:00:00	2024-11-06T12:00:00	4	Temperatura máxima	18.9
136027	7	Sololá	701	Sololá	2	El tablón	2	Febrero	2023-09-02T00:00:00	2024-11-06T12:00:00	3	Temperatura mínima	17.8
136028	7	Sololá	701	Sololá	2	El tablón	2	Febrero	2023-09-02T00:00:00	2024-11-06T12:00:00	5	Humedad	40
136029	7	Sololá	701	Sololá	2	El tablón	2	Febrero	2023-09-02T00:00:00	2024-11-06T12:00:00	6	Velocidad del viento	14.5
136030	7	Sololá	701	Sololá	2	El tablón	2	Febrero	2023-09-02T00:00:00	2024-11-06T12:00:00	7	Dirección del viento	14.48
136031	7	Sololá	701	Sololá	2	El tablón	2	Febrero	2023-09-02T00:00:00	2024-11-06T12:00:00	1	Precipitación	0
136032	7	Sololá	701	Sololá	2	El tablón	2	Febrero	2023-09-02T00:00:00	2024-11-06T12:00:00	8	Radiación solar	753
136033	7	Sololá	701	Sololá	2	El tablón	2	Febrero	2023-09-02T00:00:00	2024-11-06T13:00:00	2	Temperatura media	19.5
136034	7	Sololá	701	Sololá	2	El tablón	2	Febrero	2023-09-02T00:00:00	2024-11-06T13:00:00	4	Temperatura máxima	19.5
136035	7	Sololá	701	Sololá	2	El tablón	2	Febrero	2023-09-02T00:00:00	2024-11-06T13:00:00	3	Temperatura mínima	18.9
136036	7	Sololá	701	Sololá	2	El tablón	2	Febrero	2023-09-02T00:00:00	2024-11-06T13:00:00	5	Humedad	37
136037	7	Sololá	701	Sololá	2	El tablón	2	Febrero	2023-09-02T00:00:00	2024-11-06T13:00:00	6	Velocidad del viento	14.5
136038	7	Sololá	701	Sololá	2	El tablón	2	Febrero	2023-09-02T00:00:00	2024-11-06T13:00:00	7	Dirección del viento	14.48
136039	7	Sololá	701	Sololá	2	El tablón	2	Febrero	2023-09-02T00:00:00	2024-11-06T13:00:00	1	Precipitación	0
136040	7	Sololá	701	Sololá	2	El tablón	2	Febrero	2023-09-02T00:00:00	2024-11-06T13:00:00	8	Radiación solar	862
136041	7	Sololá	701	Sololá	2	El tablón	2	Febrero	2023-09-02T00:00:00	2024-11-06T14:00:00	2	Temperatura media	19.8
136042	7	Sololá	701	Sololá	2	El tablón	2	Febrero	2023-09-02T00:00:00	2024-11-06T14:00:00	4	Temperatura máxima	20.2
136043	7	Sololá	701	Sololá	2	El tablón	2	Febrero	2023-09-02T00:00:00	2024-11-06T14:00:00	3	Temperatura mínima	19.1
136044	7	Sololá	701	Sololá	2	El tablón	2	Febrero	2023-09-02T00:00:00	2024-11-06T14:00:00	5	Humedad	42
136045	7	Sololá	701	Sololá	2	El tablón	2	Febrero	2023-09-02T00:00:00	2024-11-06T14:00:00	6	Velocidad del viento	12.9
136046	7	Sololá	701	Sololá	2	El tablón	2	Febrero	2023-09-02T00:00:00	2024-11-06T14:00:00	7	Dirección del viento	12.87
136047	7	Sololá	701	Sololá	2	El tablón	2	Febrero	2023-09-02T00:00:00	2024-11-06T14:00:00	1	Precipitación	0
136048	7	Sololá	701	Sololá	2	El tablón	2	Febrero	2023-09-02T00:00:00	2024-11-06T14:00:00	8	Radiación solar	829
136049	7	Sololá	701	Sololá	2	El tablón	2	Febrero	2023-09-02T00:00:00	2024-11-06T15:00:00	2	Temperatura media	19.6
136050	7	Sololá	701	Sololá	2	El tablón	2	Febrero	2023-09-02T00:00:00	2024-11-06T15:00:00	4	Temperatura máxima	20
136051	7	Sololá	701	Sololá	2	El tablón	2	Febrero	2023-09-02T00:00:00	2024-11-06T15:00:00	3	Temperatura mínima	19.1
136052	7	Sololá	701	Sololá	2	El tablón	2	Febrero	2023-09-02T00:00:00	2024-11-06T15:00:00	5	Humedad	48
136053	7	Sololá	701	Sololá	2	El tablón	2	Febrero	2023-09-02T00:00:00	2024-11-06T15:00:00	6	Velocidad del viento	11.3
136054	7	Sololá	701	Sololá	2	El tablón	2	Febrero	2023-09-02T00:00:00	2024-11-06T15:00:00	7	Dirección del viento	11.27
136055	7	Sololá	701	Sololá	2	El tablón	2	Febrero	2023-09-02T00:00:00	2024-11-06T15:00:00	1	Precipitación	0
136056	7	Sololá	701	Sololá	2	El tablón	2	Febrero	2023-09-02T00:00:00	2024-11-06T15:00:00	8	Radiación solar	753
136057	7	Sololá	701	Sololá	2	El tablón	2	Febrero	2023-09-02T00:00:00	2024-11-06T16:00:00	2	Temperatura media	18.3
136058	7	Sololá	701	Sololá	2	El tablón	2	Febrero	2023-09-02T00:00:00	2024-11-06T16:00:00	4	Temperatura máxima	19.6
136059	7	Sololá	701	Sololá	2	El tablón	2	Febrero	2023-09-02T00:00:00	2024-11-06T16:00:00	3	Temperatura mínima	17.5
136060	7	Sololá	701	Sololá	2	El tablón	2	Febrero	2023-09-02T00:00:00	2024-11-06T16:00:00	5	Humedad	50
136061	7	Sololá	701	Sololá	2	El tablón	2	Febrero	2023-09-02T00:00:00	2024-11-06T16:00:00	6	Velocidad del viento	12.9
136062	7	Sololá	701	Sololá	2	El tablón	2	Febrero	2023-09-02T00:00:00	2024-11-06T16:00:00	7	Dirección del viento	12.87
136063	7	Sololá	701	Sololá	2	El tablón	2	Febrero	2023-09-02T00:00:00	2024-11-06T16:00:00	1	Precipitación	0
136064	7	Sololá	701	Sololá	2	El tablón	2	Febrero	2023-09-02T00:00:00	2024-11-06T16:00:00	8	Radiación solar	457
136065	7	Sololá	701	Sololá	2	El tablón	2	Febrero	2023-09-02T00:00:00	2024-11-06T17:00:00	2	Temperatura media	16.7
136066	7	Sololá	701	Sololá	2	El tablón	2	Febrero	2023-09-02T00:00:00	2024-11-06T17:00:00	4	Temperatura máxima	18.3
136067	7	Sololá	701	Sololá	2	El tablón	2	Febrero	2023-09-02T00:00:00	2024-11-06T17:00:00	3	Temperatura mínima	16.7
136068	7	Sololá	701	Sololá	2	El tablón	2	Febrero	2023-09-02T00:00:00	2024-11-06T17:00:00	5	Humedad	56
136069	7	Sololá	701	Sololá	2	El tablón	2	Febrero	2023-09-02T00:00:00	2024-11-06T17:00:00	6	Velocidad del viento	12.9
136070	7	Sololá	701	Sololá	2	El tablón	2	Febrero	2023-09-02T00:00:00	2024-11-06T17:00:00	7	Dirección del viento	12.87
136071	7	Sololá	701	Sololá	2	El tablón	2	Febrero	2023-09-02T00:00:00	2024-11-06T17:00:00	1	Precipitación	0
136072	7	Sololá	701	Sololá	2	El tablón	2	Febrero	2023-09-02T00:00:00	2024-11-06T17:00:00	8	Radiación solar	285
136073	7	Sololá	701	Sololá	2	El tablón	2	Febrero	2023-09-02T00:00:00	2024-11-06T18:00:00	2	Temperatura media	14.8
136074	7	Sololá	701	Sololá	2	El tablón	2	Febrero	2023-09-02T00:00:00	2024-11-06T18:00:00	4	Temperatura máxima	16.7
136075	7	Sololá	701	Sololá	2	El tablón	2	Febrero	2023-09-02T00:00:00	2024-11-06T18:00:00	3	Temperatura mínima	14.8
136076	7	Sololá	701	Sololá	2	El tablón	2	Febrero	2023-09-02T00:00:00	2024-11-06T18:00:00	5	Humedad	59
136077	7	Sololá	701	Sololá	2	El tablón	2	Febrero	2023-09-02T00:00:00	2024-11-06T18:00:00	6	Velocidad del viento	11.3
136078	7	Sololá	701	Sololá	2	El tablón	2	Febrero	2023-09-02T00:00:00	2024-11-06T18:00:00	7	Dirección del viento	11.27
136079	7	Sololá	701	Sololá	2	El tablón	2	Febrero	2023-09-02T00:00:00	2024-11-06T18:00:00	1	Precipitación	0
136080	7	Sololá	701	Sololá	2	El tablón	2	Febrero	2023-09-02T00:00:00	2024-11-06T18:00:00	8	Radiación solar	97
136081	7	Sololá	701	Sololá	2	El tablón	2	Febrero	2023-09-02T00:00:00	2024-11-06T19:00:00	2	Temperatura media	13.1
136082	7	Sololá	701	Sololá	2	El tablón	2	Febrero	2023-09-02T00:00:00	2024-11-06T19:00:00	4	Temperatura máxima	14.8
136083	7	Sololá	701	Sololá	2	El tablón	2	Febrero	2023-09-02T00:00:00	2024-11-06T19:00:00	3	Temperatura mínima	13.1
136084	7	Sololá	701	Sololá	2	El tablón	2	Febrero	2023-09-02T00:00:00	2024-11-06T19:00:00	5	Humedad	70
136085	7	Sololá	701	Sololá	2	El tablón	2	Febrero	2023-09-02T00:00:00	2024-11-06T19:00:00	6	Velocidad del viento	8
136086	7	Sololá	701	Sololá	2	El tablón	2	Febrero	2023-09-02T00:00:00	2024-11-06T19:00:00	7	Dirección del viento	8.05
136087	7	Sololá	701	Sololá	2	El tablón	2	Febrero	2023-09-02T00:00:00	2024-11-06T19:00:00	1	Precipitación	0
136088	7	Sololá	701	Sololá	2	El tablón	2	Febrero	2023-09-02T00:00:00	2024-11-06T19:00:00	8	Radiación solar	0
136089	7	Sololá	701	Sololá	2	El tablón	2	Febrero	2023-09-02T00:00:00	2024-11-06T20:00:00	2	Temperatura media	11.9
136090	7	Sololá	701	Sololá	2	El tablón	2	Febrero	2023-09-02T00:00:00	2024-11-06T20:00:00	4	Temperatura máxima	13.1
136091	7	Sololá	701	Sololá	2	El tablón	2	Febrero	2023-09-02T00:00:00	2024-11-06T20:00:00	3	Temperatura mínima	11.9
136092	7	Sololá	701	Sololá	2	El tablón	2	Febrero	2023-09-02T00:00:00	2024-11-06T20:00:00	5	Humedad	81
136093	7	Sololá	701	Sololá	2	El tablón	2	Febrero	2023-09-02T00:00:00	2024-11-06T20:00:00	6	Velocidad del viento	8
136094	7	Sololá	701	Sololá	2	El tablón	2	Febrero	2023-09-02T00:00:00	2024-11-06T20:00:00	7	Dirección del viento	8.05
136095	7	Sololá	701	Sololá	2	El tablón	2	Febrero	2023-09-02T00:00:00	2024-11-06T20:00:00	1	Precipitación	0
136096	7	Sololá	701	Sololá	2	El tablón	2	Febrero	2023-09-02T00:00:00	2024-11-06T20:00:00	8	Radiación solar	0
136097	7	Sololá	701	Sololá	2	El tablón	2	Febrero	2023-09-02T00:00:00	2024-11-06T21:00:00	2	Temperatura media	11.4
136098	7	Sololá	701	Sololá	2	El tablón	2	Febrero	2023-09-02T00:00:00	2024-11-06T21:00:00	4	Temperatura máxima	11.9
136099	7	Sololá	701	Sololá	2	El tablón	2	Febrero	2023-09-02T00:00:00	2024-11-06T21:00:00	3	Temperatura mínima	11.4
136100	7	Sololá	701	Sololá	2	El tablón	2	Febrero	2023-09-02T00:00:00	2024-11-06T21:00:00	5	Humedad	85
136101	7	Sololá	701	Sololá	2	El tablón	2	Febrero	2023-09-02T00:00:00	2024-11-06T21:00:00	6	Velocidad del viento	11.3
136102	7	Sololá	701	Sololá	2	El tablón	2	Febrero	2023-09-02T00:00:00	2024-11-06T21:00:00	7	Dirección del viento	11.27
136103	7	Sololá	701	Sololá	2	El tablón	2	Febrero	2023-09-02T00:00:00	2024-11-06T21:00:00	1	Precipitación	0
136104	7	Sololá	701	Sololá	2	El tablón	2	Febrero	2023-09-02T00:00:00	2024-11-06T21:00:00	8	Radiación solar	0
136105	7	Sololá	701	Sololá	2	El tablón	2	Febrero	2023-09-02T00:00:00	2024-11-06T22:00:00	2	Temperatura media	11.1
136106	7	Sololá	701	Sololá	2	El tablón	2	Febrero	2023-09-02T00:00:00	2024-11-06T22:00:00	4	Temperatura máxima	11.4
136107	7	Sololá	701	Sololá	2	El tablón	2	Febrero	2023-09-02T00:00:00	2024-11-06T22:00:00	3	Temperatura mínima	11.1
136108	7	Sololá	701	Sololá	2	El tablón	2	Febrero	2023-09-02T00:00:00	2024-11-06T22:00:00	5	Humedad	85
136109	7	Sololá	701	Sololá	2	El tablón	2	Febrero	2023-09-02T00:00:00	2024-11-06T22:00:00	6	Velocidad del viento	11.3
136110	7	Sololá	701	Sololá	2	El tablón	2	Febrero	2023-09-02T00:00:00	2024-11-06T22:00:00	7	Dirección del viento	11.27
136111	7	Sololá	701	Sololá	2	El tablón	2	Febrero	2023-09-02T00:00:00	2024-11-06T22:00:00	1	Precipitación	0
136112	7	Sololá	701	Sololá	2	El tablón	2	Febrero	2023-09-02T00:00:00	2024-11-06T22:00:00	8	Radiación solar	0
136113	7	Sololá	701	Sololá	2	El tablón	2	Febrero	2023-09-02T00:00:00	2024-11-06T23:00:00	2	Temperatura media	10.8
136114	7	Sololá	701	Sololá	2	El tablón	2	Febrero	2023-09-02T00:00:00	2024-11-06T23:00:00	4	Temperatura máxima	11.1
136115	7	Sololá	701	Sololá	2	El tablón	2	Febrero	2023-09-02T00:00:00	2024-11-06T23:00:00	3	Temperatura mínima	10.8
136116	7	Sololá	701	Sololá	2	El tablón	2	Febrero	2023-09-02T00:00:00	2024-11-06T23:00:00	5	Humedad	87
136117	7	Sololá	701	Sololá	2	El tablón	2	Febrero	2023-09-02T00:00:00	2024-11-06T23:00:00	6	Velocidad del viento	14.5
136118	7	Sololá	701	Sololá	2	El tablón	2	Febrero	2023-09-02T00:00:00	2024-11-06T23:00:00	7	Dirección del viento	14.48
136119	7	Sololá	701	Sololá	2	El tablón	2	Febrero	2023-09-02T00:00:00	2024-11-06T23:00:00	1	Precipitación	0
136120	7	Sololá	701	Sololá	2	El tablón	2	Febrero	2023-09-02T00:00:00	2024-11-06T23:00:00	8	Radiación solar	0
136121	7	Sololá	701	Sololá	2	El tablón	2	Febrero	2023-10-02T00:00:00	2024-11-06T00:00:00	2	Temperatura media	10.9
136122	7	Sololá	701	Sololá	2	El tablón	2	Febrero	2023-10-02T00:00:00	2024-11-06T00:00:00	4	Temperatura máxima	11.1
136123	7	Sololá	701	Sololá	2	El tablón	2	Febrero	2023-10-02T00:00:00	2024-11-06T00:00:00	3	Temperatura mínima	10.8
136124	7	Sololá	701	Sololá	2	El tablón	2	Febrero	2023-10-02T00:00:00	2024-11-06T00:00:00	5	Humedad	87
136125	7	Sololá	701	Sololá	2	El tablón	2	Febrero	2023-10-02T00:00:00	2024-11-06T00:00:00	6	Velocidad del viento	12.9
136126	7	Sololá	701	Sololá	2	El tablón	2	Febrero	2023-10-02T00:00:00	2024-11-06T00:00:00	7	Dirección del viento	12.87
136127	7	Sololá	701	Sololá	2	El tablón	2	Febrero	2023-10-02T00:00:00	2024-11-06T00:00:00	1	Precipitación	0
136128	7	Sololá	701	Sololá	2	El tablón	2	Febrero	2023-10-02T00:00:00	2024-11-06T00:00:00	8	Radiación solar	0
136129	7	Sololá	701	Sololá	2	El tablón	2	Febrero	2023-10-02T00:00:00	2024-11-06T01:00:00	2	Temperatura media	10.7
136130	7	Sololá	701	Sololá	2	El tablón	2	Febrero	2023-10-02T00:00:00	2024-11-06T01:00:00	4	Temperatura máxima	11
136131	7	Sololá	701	Sololá	2	El tablón	2	Febrero	2023-10-02T00:00:00	2024-11-06T01:00:00	3	Temperatura mínima	10.6
136132	7	Sololá	701	Sololá	2	El tablón	2	Febrero	2023-10-02T00:00:00	2024-11-06T01:00:00	5	Humedad	87
136133	7	Sololá	701	Sololá	2	El tablón	2	Febrero	2023-10-02T00:00:00	2024-11-06T01:00:00	6	Velocidad del viento	11.3
136134	7	Sololá	701	Sololá	2	El tablón	2	Febrero	2023-10-02T00:00:00	2024-11-06T01:00:00	7	Dirección del viento	11.27
136135	7	Sololá	701	Sololá	2	El tablón	2	Febrero	2023-10-02T00:00:00	2024-11-06T01:00:00	1	Precipitación	0
136136	7	Sololá	701	Sololá	2	El tablón	2	Febrero	2023-10-02T00:00:00	2024-11-06T01:00:00	8	Radiación solar	0
136137	7	Sololá	701	Sololá	2	El tablón	2	Febrero	2023-10-02T00:00:00	2024-11-06T02:00:00	2	Temperatura media	10.9
136138	7	Sololá	701	Sololá	2	El tablón	2	Febrero	2023-10-02T00:00:00	2024-11-06T02:00:00	4	Temperatura máxima	10.9
136139	7	Sololá	701	Sololá	2	El tablón	2	Febrero	2023-10-02T00:00:00	2024-11-06T02:00:00	3	Temperatura mínima	10.7
136140	7	Sololá	701	Sololá	2	El tablón	2	Febrero	2023-10-02T00:00:00	2024-11-06T02:00:00	5	Humedad	85
136141	7	Sololá	701	Sololá	2	El tablón	2	Febrero	2023-10-02T00:00:00	2024-11-06T02:00:00	6	Velocidad del viento	8
136142	7	Sololá	701	Sololá	2	El tablón	2	Febrero	2023-10-02T00:00:00	2024-11-06T02:00:00	7	Dirección del viento	8.05
136143	7	Sololá	701	Sololá	2	El tablón	2	Febrero	2023-10-02T00:00:00	2024-11-06T02:00:00	1	Precipitación	0
136144	7	Sololá	701	Sololá	2	El tablón	2	Febrero	2023-10-02T00:00:00	2024-11-06T02:00:00	8	Radiación solar	0
136145	7	Sololá	701	Sololá	2	El tablón	2	Febrero	2023-10-02T00:00:00	2024-11-06T03:00:00	2	Temperatura media	10.6
136146	7	Sololá	701	Sololá	2	El tablón	2	Febrero	2023-10-02T00:00:00	2024-11-06T03:00:00	4	Temperatura máxima	10.9
136147	7	Sololá	701	Sololá	2	El tablón	2	Febrero	2023-10-02T00:00:00	2024-11-06T03:00:00	3	Temperatura mínima	10.5
136148	7	Sololá	701	Sololá	2	El tablón	2	Febrero	2023-10-02T00:00:00	2024-11-06T03:00:00	5	Humedad	85
136149	7	Sololá	701	Sololá	2	El tablón	2	Febrero	2023-10-02T00:00:00	2024-11-06T03:00:00	6	Velocidad del viento	4.8
136150	7	Sololá	701	Sololá	2	El tablón	2	Febrero	2023-10-02T00:00:00	2024-11-06T03:00:00	7	Dirección del viento	4.83
136151	7	Sololá	701	Sololá	2	El tablón	2	Febrero	2023-10-02T00:00:00	2024-11-06T03:00:00	1	Precipitación	0
136152	7	Sololá	701	Sololá	2	El tablón	2	Febrero	2023-10-02T00:00:00	2024-11-06T03:00:00	8	Radiación solar	0
136153	7	Sololá	701	Sololá	2	El tablón	2	Febrero	2023-10-02T00:00:00	2024-11-06T04:00:00	2	Temperatura media	10.5
136154	7	Sololá	701	Sololá	2	El tablón	2	Febrero	2023-10-02T00:00:00	2024-11-06T04:00:00	4	Temperatura máxima	10.6
136155	7	Sololá	701	Sololá	2	El tablón	2	Febrero	2023-10-02T00:00:00	2024-11-06T04:00:00	3	Temperatura mínima	10.3
136156	7	Sololá	701	Sololá	2	El tablón	2	Febrero	2023-10-02T00:00:00	2024-11-06T04:00:00	5	Humedad	82
136157	7	Sololá	701	Sololá	2	El tablón	2	Febrero	2023-10-02T00:00:00	2024-11-06T04:00:00	6	Velocidad del viento	4.8
136158	7	Sololá	701	Sololá	2	El tablón	2	Febrero	2023-10-02T00:00:00	2024-11-06T04:00:00	7	Dirección del viento	4.83
136159	7	Sololá	701	Sololá	2	El tablón	2	Febrero	2023-10-02T00:00:00	2024-11-06T04:00:00	1	Precipitación	0
136160	7	Sololá	701	Sololá	2	El tablón	2	Febrero	2023-10-02T00:00:00	2024-11-06T04:00:00	8	Radiación solar	0
136161	7	Sololá	701	Sololá	2	El tablón	2	Febrero	2023-10-02T00:00:00	2024-11-06T05:00:00	2	Temperatura media	10.4
136162	7	Sololá	701	Sololá	2	El tablón	2	Febrero	2023-10-02T00:00:00	2024-11-06T05:00:00	4	Temperatura máxima	10.5
136163	7	Sololá	701	Sololá	2	El tablón	2	Febrero	2023-10-02T00:00:00	2024-11-06T05:00:00	3	Temperatura mínima	10.2
136164	7	Sololá	701	Sololá	2	El tablón	2	Febrero	2023-10-02T00:00:00	2024-11-06T05:00:00	5	Humedad	82
136165	7	Sololá	701	Sololá	2	El tablón	2	Febrero	2023-10-02T00:00:00	2024-11-06T05:00:00	6	Velocidad del viento	4.8
136166	7	Sololá	701	Sololá	2	El tablón	2	Febrero	2023-10-02T00:00:00	2024-11-06T05:00:00	7	Dirección del viento	4.83
136167	7	Sololá	701	Sololá	2	El tablón	2	Febrero	2023-10-02T00:00:00	2024-11-06T05:00:00	1	Precipitación	0
136168	7	Sololá	701	Sololá	2	El tablón	2	Febrero	2023-10-02T00:00:00	2024-11-06T05:00:00	8	Radiación solar	0
136169	7	Sololá	701	Sololá	2	El tablón	2	Febrero	2023-10-02T00:00:00	2024-11-06T06:00:00	2	Temperatura media	9.8
136170	7	Sololá	701	Sololá	2	El tablón	2	Febrero	2023-10-02T00:00:00	2024-11-06T06:00:00	4	Temperatura máxima	10.4
136171	7	Sololá	701	Sololá	2	El tablón	2	Febrero	2023-10-02T00:00:00	2024-11-06T06:00:00	3	Temperatura mínima	9.4
136172	7	Sololá	701	Sololá	2	El tablón	2	Febrero	2023-10-02T00:00:00	2024-11-06T06:00:00	5	Humedad	83
136173	7	Sololá	701	Sololá	2	El tablón	2	Febrero	2023-10-02T00:00:00	2024-11-06T06:00:00	6	Velocidad del viento	4.8
136174	7	Sololá	701	Sololá	2	El tablón	2	Febrero	2023-10-02T00:00:00	2024-11-06T06:00:00	7	Dirección del viento	4.83
136175	7	Sololá	701	Sololá	2	El tablón	2	Febrero	2023-10-02T00:00:00	2024-11-06T06:00:00	1	Precipitación	0
136176	7	Sololá	701	Sololá	2	El tablón	2	Febrero	2023-10-02T00:00:00	2024-11-06T06:00:00	8	Radiación solar	0
136177	7	Sololá	701	Sololá	2	El tablón	2	Febrero	2023-10-02T00:00:00	2024-11-06T07:00:00	2	Temperatura media	10.4
136178	7	Sololá	701	Sololá	2	El tablón	2	Febrero	2023-10-02T00:00:00	2024-11-06T07:00:00	4	Temperatura máxima	10.4
136179	7	Sololá	701	Sololá	2	El tablón	2	Febrero	2023-10-02T00:00:00	2024-11-06T07:00:00	3	Temperatura mínima	9.8
136180	7	Sololá	701	Sololá	2	El tablón	2	Febrero	2023-10-02T00:00:00	2024-11-06T07:00:00	5	Humedad	78
136181	7	Sololá	701	Sololá	2	El tablón	2	Febrero	2023-10-02T00:00:00	2024-11-06T07:00:00	6	Velocidad del viento	6.4
136182	7	Sololá	701	Sololá	2	El tablón	2	Febrero	2023-10-02T00:00:00	2024-11-06T07:00:00	7	Dirección del viento	6.44
136183	7	Sololá	701	Sololá	2	El tablón	2	Febrero	2023-10-02T00:00:00	2024-11-06T07:00:00	1	Precipitación	0
136184	7	Sololá	701	Sololá	2	El tablón	2	Febrero	2023-10-02T00:00:00	2024-11-06T07:00:00	8	Radiación solar	7
136185	7	Sololá	701	Sololá	2	El tablón	2	Febrero	2023-10-02T00:00:00	2024-11-06T08:00:00	2	Temperatura media	12.9
136186	7	Sololá	701	Sololá	2	El tablón	2	Febrero	2023-10-02T00:00:00	2024-11-06T08:00:00	4	Temperatura máxima	12.9
136187	7	Sololá	701	Sololá	2	El tablón	2	Febrero	2023-10-02T00:00:00	2024-11-06T08:00:00	3	Temperatura mínima	10.4
136188	7	Sololá	701	Sololá	2	El tablón	2	Febrero	2023-10-02T00:00:00	2024-11-06T08:00:00	5	Humedad	65
136189	7	Sololá	701	Sololá	2	El tablón	2	Febrero	2023-10-02T00:00:00	2024-11-06T08:00:00	6	Velocidad del viento	8
136190	7	Sololá	701	Sololá	2	El tablón	2	Febrero	2023-10-02T00:00:00	2024-11-06T08:00:00	7	Dirección del viento	8.05
136191	7	Sololá	701	Sololá	2	El tablón	2	Febrero	2023-10-02T00:00:00	2024-11-06T08:00:00	1	Precipitación	0
136192	7	Sololá	701	Sololá	2	El tablón	2	Febrero	2023-10-02T00:00:00	2024-11-06T08:00:00	8	Radiación solar	157
136193	7	Sololá	701	Sololá	2	El tablón	2	Febrero	2023-10-02T00:00:00	2024-11-06T09:00:00	2	Temperatura media	14.8
136194	7	Sololá	701	Sololá	2	El tablón	2	Febrero	2023-10-02T00:00:00	2024-11-06T09:00:00	4	Temperatura máxima	14.8
136195	7	Sololá	701	Sololá	2	El tablón	2	Febrero	2023-10-02T00:00:00	2024-11-06T09:00:00	3	Temperatura mínima	12.9
136196	7	Sololá	701	Sololá	2	El tablón	2	Febrero	2023-10-02T00:00:00	2024-11-06T09:00:00	5	Humedad	59
136197	7	Sololá	701	Sololá	2	El tablón	2	Febrero	2023-10-02T00:00:00	2024-11-06T09:00:00	6	Velocidad del viento	11.3
136198	7	Sololá	701	Sololá	2	El tablón	2	Febrero	2023-10-02T00:00:00	2024-11-06T09:00:00	7	Dirección del viento	11.27
136199	7	Sololá	701	Sololá	2	El tablón	2	Febrero	2023-10-02T00:00:00	2024-11-06T09:00:00	1	Precipitación	0
136200	7	Sololá	701	Sololá	2	El tablón	2	Febrero	2023-10-02T00:00:00	2024-11-06T09:00:00	8	Radiación solar	371
136201	7	Sololá	701	Sololá	2	El tablón	2	Febrero	2023-10-02T00:00:00	2024-11-06T10:00:00	2	Temperatura media	16.5
136202	7	Sololá	701	Sololá	2	El tablón	2	Febrero	2023-10-02T00:00:00	2024-11-06T10:00:00	4	Temperatura máxima	16.5
136203	7	Sololá	701	Sololá	2	El tablón	2	Febrero	2023-10-02T00:00:00	2024-11-06T10:00:00	3	Temperatura mínima	14.8
136204	7	Sololá	701	Sololá	2	El tablón	2	Febrero	2023-10-02T00:00:00	2024-11-06T10:00:00	5	Humedad	48
136205	7	Sololá	701	Sololá	2	El tablón	2	Febrero	2023-10-02T00:00:00	2024-11-06T10:00:00	6	Velocidad del viento	12.9
136206	7	Sololá	701	Sololá	2	El tablón	2	Febrero	2023-10-02T00:00:00	2024-11-06T10:00:00	7	Dirección del viento	12.87
136207	7	Sololá	701	Sololá	2	El tablón	2	Febrero	2023-10-02T00:00:00	2024-11-06T10:00:00	1	Precipitación	0
136208	7	Sololá	701	Sololá	2	El tablón	2	Febrero	2023-10-02T00:00:00	2024-11-06T10:00:00	8	Radiación solar	595
136209	7	Sololá	701	Sololá	2	El tablón	2	Febrero	2023-10-02T00:00:00	2024-11-06T11:00:00	2	Temperatura media	17.8
136210	7	Sololá	701	Sololá	2	El tablón	2	Febrero	2023-10-02T00:00:00	2024-11-06T11:00:00	4	Temperatura máxima	18
136211	7	Sololá	701	Sololá	2	El tablón	2	Febrero	2023-10-02T00:00:00	2024-11-06T11:00:00	3	Temperatura mínima	16.5
136212	7	Sololá	701	Sololá	2	El tablón	2	Febrero	2023-10-02T00:00:00	2024-11-06T11:00:00	5	Humedad	48
136213	7	Sololá	701	Sololá	2	El tablón	2	Febrero	2023-10-02T00:00:00	2024-11-06T11:00:00	6	Velocidad del viento	11.3
136214	7	Sololá	701	Sololá	2	El tablón	2	Febrero	2023-10-02T00:00:00	2024-11-06T11:00:00	7	Dirección del viento	11.27
136215	7	Sololá	701	Sololá	2	El tablón	2	Febrero	2023-10-02T00:00:00	2024-11-06T11:00:00	1	Precipitación	0
136216	7	Sololá	701	Sololá	2	El tablón	2	Febrero	2023-10-02T00:00:00	2024-11-06T11:00:00	8	Radiación solar	751
136217	7	Sololá	701	Sololá	2	El tablón	2	Febrero	2023-10-02T00:00:00	2024-11-06T12:00:00	2	Temperatura media	18.6
136218	7	Sololá	701	Sololá	2	El tablón	2	Febrero	2023-10-02T00:00:00	2024-11-06T12:00:00	4	Temperatura máxima	18.7
136219	7	Sololá	701	Sololá	2	El tablón	2	Febrero	2023-10-02T00:00:00	2024-11-06T12:00:00	3	Temperatura mínima	17.8
136220	7	Sololá	701	Sololá	2	El tablón	2	Febrero	2023-10-02T00:00:00	2024-11-06T12:00:00	5	Humedad	47
136221	7	Sololá	701	Sololá	2	El tablón	2	Febrero	2023-10-02T00:00:00	2024-11-06T12:00:00	6	Velocidad del viento	11.3
136222	7	Sololá	701	Sololá	2	El tablón	2	Febrero	2023-10-02T00:00:00	2024-11-06T12:00:00	7	Dirección del viento	11.27
136223	7	Sololá	701	Sololá	2	El tablón	2	Febrero	2023-10-02T00:00:00	2024-11-06T12:00:00	1	Precipitación	0
136224	7	Sololá	701	Sololá	2	El tablón	2	Febrero	2023-10-02T00:00:00	2024-11-06T12:00:00	8	Radiación solar	764
136225	7	Sololá	701	Sololá	2	El tablón	2	Febrero	2023-10-02T00:00:00	2024-11-06T13:00:00	2	Temperatura media	18.9
136226	7	Sololá	701	Sololá	2	El tablón	2	Febrero	2023-10-02T00:00:00	2024-11-06T13:00:00	4	Temperatura máxima	19.4
136227	7	Sololá	701	Sololá	2	El tablón	2	Febrero	2023-10-02T00:00:00	2024-11-06T13:00:00	3	Temperatura mínima	18.6
136228	7	Sololá	701	Sololá	2	El tablón	2	Febrero	2023-10-02T00:00:00	2024-11-06T13:00:00	5	Humedad	63
136229	7	Sololá	701	Sololá	2	El tablón	2	Febrero	2023-10-02T00:00:00	2024-11-06T13:00:00	6	Velocidad del viento	8
136230	7	Sololá	701	Sololá	2	El tablón	2	Febrero	2023-10-02T00:00:00	2024-11-06T13:00:00	7	Dirección del viento	8.05
136231	7	Sololá	701	Sololá	2	El tablón	2	Febrero	2023-10-02T00:00:00	2024-11-06T13:00:00	1	Precipitación	0
136232	7	Sololá	701	Sololá	2	El tablón	2	Febrero	2023-10-02T00:00:00	2024-11-06T13:00:00	8	Radiación solar	865
136233	7	Sololá	701	Sololá	2	El tablón	2	Febrero	2023-10-02T00:00:00	2024-11-06T14:00:00	2	Temperatura media	17.3
136234	7	Sololá	701	Sololá	2	El tablón	2	Febrero	2023-10-02T00:00:00	2024-11-06T14:00:00	4	Temperatura máxima	19
136235	7	Sololá	701	Sololá	2	El tablón	2	Febrero	2023-10-02T00:00:00	2024-11-06T14:00:00	3	Temperatura mínima	17.2
136236	7	Sololá	701	Sololá	2	El tablón	2	Febrero	2023-10-02T00:00:00	2024-11-06T14:00:00	5	Humedad	75
136237	7	Sololá	701	Sololá	2	El tablón	2	Febrero	2023-10-02T00:00:00	2024-11-06T14:00:00	6	Velocidad del viento	8
136238	7	Sololá	701	Sololá	2	El tablón	2	Febrero	2023-10-02T00:00:00	2024-11-06T14:00:00	7	Dirección del viento	8.05
136239	7	Sololá	701	Sololá	2	El tablón	2	Febrero	2023-10-02T00:00:00	2024-11-06T14:00:00	1	Precipitación	0
136240	7	Sololá	701	Sololá	2	El tablón	2	Febrero	2023-10-02T00:00:00	2024-11-06T14:00:00	8	Radiación solar	664
136241	7	Sololá	701	Sololá	2	El tablón	2	Febrero	2023-10-02T00:00:00	2024-11-06T15:00:00	2	Temperatura media	17.3
136242	7	Sololá	701	Sololá	2	El tablón	2	Febrero	2023-10-02T00:00:00	2024-11-06T15:00:00	4	Temperatura máxima	17.7
136243	7	Sololá	701	Sololá	2	El tablón	2	Febrero	2023-10-02T00:00:00	2024-11-06T15:00:00	3	Temperatura mínima	16.8
136244	7	Sololá	701	Sololá	2	El tablón	2	Febrero	2023-10-02T00:00:00	2024-11-06T15:00:00	5	Humedad	76
136245	7	Sololá	701	Sololá	2	El tablón	2	Febrero	2023-10-02T00:00:00	2024-11-06T15:00:00	6	Velocidad del viento	11.3
136246	7	Sololá	701	Sololá	2	El tablón	2	Febrero	2023-10-02T00:00:00	2024-11-06T15:00:00	7	Dirección del viento	11.27
136247	7	Sololá	701	Sololá	2	El tablón	2	Febrero	2023-10-02T00:00:00	2024-11-06T15:00:00	1	Precipitación	0
136248	7	Sololá	701	Sololá	2	El tablón	2	Febrero	2023-10-02T00:00:00	2024-11-06T15:00:00	8	Radiación solar	737
136249	7	Sololá	701	Sololá	2	El tablón	2	Febrero	2023-10-02T00:00:00	2024-11-06T16:00:00	2	Temperatura media	17.6
136250	7	Sololá	701	Sololá	2	El tablón	2	Febrero	2023-10-02T00:00:00	2024-11-06T16:00:00	4	Temperatura máxima	18.2
136251	7	Sololá	701	Sololá	2	El tablón	2	Febrero	2023-10-02T00:00:00	2024-11-06T16:00:00	3	Temperatura mínima	17.3
136252	7	Sololá	701	Sololá	2	El tablón	2	Febrero	2023-10-02T00:00:00	2024-11-06T16:00:00	5	Humedad	61
136253	7	Sololá	701	Sololá	2	El tablón	2	Febrero	2023-10-02T00:00:00	2024-11-06T16:00:00	6	Velocidad del viento	6.4
136254	7	Sololá	701	Sololá	2	El tablón	2	Febrero	2023-10-02T00:00:00	2024-11-06T16:00:00	7	Dirección del viento	6.44
136255	7	Sololá	701	Sololá	2	El tablón	2	Febrero	2023-10-02T00:00:00	2024-11-06T16:00:00	1	Precipitación	0
136256	7	Sololá	701	Sololá	2	El tablón	2	Febrero	2023-10-02T00:00:00	2024-11-06T16:00:00	8	Radiación solar	331
136257	7	Sololá	701	Sololá	2	El tablón	2	Febrero	2023-10-02T00:00:00	2024-11-06T17:00:00	2	Temperatura media	16.4
136258	7	Sololá	701	Sololá	2	El tablón	2	Febrero	2023-10-02T00:00:00	2024-11-06T17:00:00	4	Temperatura máxima	18.2
136259	7	Sololá	701	Sololá	2	El tablón	2	Febrero	2023-10-02T00:00:00	2024-11-06T17:00:00	3	Temperatura mínima	16.3
136260	7	Sololá	701	Sololá	2	El tablón	2	Febrero	2023-10-02T00:00:00	2024-11-06T17:00:00	5	Humedad	61
136261	7	Sololá	701	Sololá	2	El tablón	2	Febrero	2023-10-02T00:00:00	2024-11-06T17:00:00	6	Velocidad del viento	9.7
136262	7	Sololá	701	Sololá	2	El tablón	2	Febrero	2023-10-02T00:00:00	2024-11-06T17:00:00	7	Dirección del viento	9.66
136263	7	Sololá	701	Sololá	2	El tablón	2	Febrero	2023-10-02T00:00:00	2024-11-06T17:00:00	1	Precipitación	0
136264	7	Sololá	701	Sololá	2	El tablón	2	Febrero	2023-10-02T00:00:00	2024-11-06T17:00:00	8	Radiación solar	272
136265	7	Sololá	701	Sololá	2	El tablón	2	Febrero	2023-10-02T00:00:00	2024-11-06T18:00:00	2	Temperatura media	15
136266	7	Sololá	701	Sololá	2	El tablón	2	Febrero	2023-10-02T00:00:00	2024-11-06T18:00:00	4	Temperatura máxima	16.7
136267	7	Sololá	701	Sololá	2	El tablón	2	Febrero	2023-10-02T00:00:00	2024-11-06T18:00:00	3	Temperatura mínima	15
136268	7	Sololá	701	Sololá	2	El tablón	2	Febrero	2023-10-02T00:00:00	2024-11-06T18:00:00	5	Humedad	71
136269	7	Sololá	701	Sololá	2	El tablón	2	Febrero	2023-10-02T00:00:00	2024-11-06T18:00:00	6	Velocidad del viento	9.7
136270	7	Sololá	701	Sololá	2	El tablón	2	Febrero	2023-10-02T00:00:00	2024-11-06T18:00:00	7	Dirección del viento	9.66
136271	7	Sololá	701	Sololá	2	El tablón	2	Febrero	2023-10-02T00:00:00	2024-11-06T18:00:00	1	Precipitación	0
136272	7	Sololá	701	Sololá	2	El tablón	2	Febrero	2023-10-02T00:00:00	2024-11-06T18:00:00	8	Radiación solar	89
136273	7	Sololá	701	Sololá	2	El tablón	2	Febrero	2023-10-02T00:00:00	2024-11-06T19:00:00	2	Temperatura media	13.4
136274	7	Sololá	701	Sololá	2	El tablón	2	Febrero	2023-10-02T00:00:00	2024-11-06T19:00:00	4	Temperatura máxima	14.9
136275	7	Sololá	701	Sololá	2	El tablón	2	Febrero	2023-10-02T00:00:00	2024-11-06T19:00:00	3	Temperatura mínima	13.4
136276	7	Sololá	701	Sololá	2	El tablón	2	Febrero	2023-10-02T00:00:00	2024-11-06T19:00:00	5	Humedad	84
136277	7	Sololá	701	Sololá	2	El tablón	2	Febrero	2023-10-02T00:00:00	2024-11-06T19:00:00	6	Velocidad del viento	8
136278	7	Sololá	701	Sololá	2	El tablón	2	Febrero	2023-10-02T00:00:00	2024-11-06T19:00:00	7	Dirección del viento	8.05
136279	7	Sololá	701	Sololá	2	El tablón	2	Febrero	2023-10-02T00:00:00	2024-11-06T19:00:00	1	Precipitación	0
136280	7	Sololá	701	Sololá	2	El tablón	2	Febrero	2023-10-02T00:00:00	2024-11-06T19:00:00	8	Radiación solar	0
136281	7	Sololá	701	Sololá	2	El tablón	2	Febrero	2023-10-02T00:00:00	2024-11-06T20:00:00	2	Temperatura media	12.8
136282	7	Sololá	701	Sololá	2	El tablón	2	Febrero	2023-10-02T00:00:00	2024-11-06T20:00:00	4	Temperatura máxima	13.4
136283	7	Sololá	701	Sololá	2	El tablón	2	Febrero	2023-10-02T00:00:00	2024-11-06T20:00:00	3	Temperatura mínima	12.7
136284	7	Sololá	701	Sololá	2	El tablón	2	Febrero	2023-10-02T00:00:00	2024-11-06T20:00:00	5	Humedad	85
136285	7	Sololá	701	Sololá	2	El tablón	2	Febrero	2023-10-02T00:00:00	2024-11-06T20:00:00	6	Velocidad del viento	9.7
136286	7	Sololá	701	Sololá	2	El tablón	2	Febrero	2023-10-02T00:00:00	2024-11-06T20:00:00	7	Dirección del viento	9.66
136287	7	Sololá	701	Sololá	2	El tablón	2	Febrero	2023-10-02T00:00:00	2024-11-06T20:00:00	1	Precipitación	0
136288	7	Sololá	701	Sololá	2	El tablón	2	Febrero	2023-10-02T00:00:00	2024-11-06T20:00:00	8	Radiación solar	0
136289	7	Sololá	701	Sololá	2	El tablón	2	Febrero	2023-10-02T00:00:00	2024-11-06T21:00:00	2	Temperatura media	12.1
136290	7	Sololá	701	Sololá	2	El tablón	2	Febrero	2023-10-02T00:00:00	2024-11-06T21:00:00	4	Temperatura máxima	12.9
136291	7	Sololá	701	Sololá	2	El tablón	2	Febrero	2023-10-02T00:00:00	2024-11-06T21:00:00	3	Temperatura mínima	12.1
136292	7	Sololá	701	Sololá	2	El tablón	2	Febrero	2023-10-02T00:00:00	2024-11-06T21:00:00	5	Humedad	86
136293	7	Sololá	701	Sololá	2	El tablón	2	Febrero	2023-10-02T00:00:00	2024-11-06T21:00:00	6	Velocidad del viento	11.3
136294	7	Sololá	701	Sololá	2	El tablón	2	Febrero	2023-10-02T00:00:00	2024-11-06T21:00:00	7	Dirección del viento	11.27
136295	7	Sololá	701	Sololá	2	El tablón	2	Febrero	2023-10-02T00:00:00	2024-11-06T21:00:00	1	Precipitación	0
136296	7	Sololá	701	Sololá	2	El tablón	2	Febrero	2023-10-02T00:00:00	2024-11-06T21:00:00	8	Radiación solar	0
136297	7	Sololá	701	Sololá	2	El tablón	2	Febrero	2023-10-02T00:00:00	2024-11-06T22:00:00	2	Temperatura media	11.4
136298	7	Sololá	701	Sololá	2	El tablón	2	Febrero	2023-10-02T00:00:00	2024-11-06T22:00:00	4	Temperatura máxima	12.1
136299	7	Sololá	701	Sololá	2	El tablón	2	Febrero	2023-10-02T00:00:00	2024-11-06T22:00:00	3	Temperatura mínima	11.4
136300	7	Sololá	701	Sololá	2	El tablón	2	Febrero	2023-10-02T00:00:00	2024-11-06T22:00:00	5	Humedad	85
136301	7	Sololá	701	Sololá	2	El tablón	2	Febrero	2023-10-02T00:00:00	2024-11-06T22:00:00	6	Velocidad del viento	12.9
136302	7	Sololá	701	Sololá	2	El tablón	2	Febrero	2023-10-02T00:00:00	2024-11-06T22:00:00	7	Dirección del viento	12.87
136303	7	Sololá	701	Sololá	2	El tablón	2	Febrero	2023-10-02T00:00:00	2024-11-06T22:00:00	1	Precipitación	0
136304	7	Sololá	701	Sololá	2	El tablón	2	Febrero	2023-10-02T00:00:00	2024-11-06T22:00:00	8	Radiación solar	0
136305	7	Sololá	701	Sololá	2	El tablón	2	Febrero	2023-10-02T00:00:00	2024-11-06T23:00:00	2	Temperatura media	11.2
136306	7	Sololá	701	Sololá	2	El tablón	2	Febrero	2023-10-02T00:00:00	2024-11-06T23:00:00	4	Temperatura máxima	11.4
136307	7	Sololá	701	Sololá	2	El tablón	2	Febrero	2023-10-02T00:00:00	2024-11-06T23:00:00	3	Temperatura mínima	11.1
136308	7	Sololá	701	Sololá	2	El tablón	2	Febrero	2023-10-02T00:00:00	2024-11-06T23:00:00	5	Humedad	85
136309	7	Sololá	701	Sololá	2	El tablón	2	Febrero	2023-10-02T00:00:00	2024-11-06T23:00:00	6	Velocidad del viento	11.3
136310	7	Sololá	701	Sololá	2	El tablón	2	Febrero	2023-10-02T00:00:00	2024-11-06T23:00:00	7	Dirección del viento	11.27
136311	7	Sololá	701	Sololá	2	El tablón	2	Febrero	2023-10-02T00:00:00	2024-11-06T23:00:00	1	Precipitación	0
136312	7	Sololá	701	Sololá	2	El tablón	2	Febrero	2023-10-02T00:00:00	2024-11-06T23:00:00	8	Radiación solar	0
136313	7	Sololá	701	Sololá	2	El tablón	2	Febrero	2023-11-02T00:00:00	2024-11-06T00:00:00	2	Temperatura media	11.2
136314	7	Sololá	701	Sololá	2	El tablón	2	Febrero	2023-11-02T00:00:00	2024-11-06T00:00:00	4	Temperatura máxima	11.2
136315	7	Sololá	701	Sololá	2	El tablón	2	Febrero	2023-11-02T00:00:00	2024-11-06T00:00:00	3	Temperatura mínima	11
136316	7	Sololá	701	Sololá	2	El tablón	2	Febrero	2023-11-02T00:00:00	2024-11-06T00:00:00	5	Humedad	83
136317	7	Sololá	701	Sololá	2	El tablón	2	Febrero	2023-11-02T00:00:00	2024-11-06T00:00:00	6	Velocidad del viento	11.3
136318	7	Sololá	701	Sololá	2	El tablón	2	Febrero	2023-11-02T00:00:00	2024-11-06T00:00:00	7	Dirección del viento	11.27
136319	7	Sololá	701	Sololá	2	El tablón	2	Febrero	2023-11-02T00:00:00	2024-11-06T00:00:00	1	Precipitación	0
136320	7	Sololá	701	Sololá	2	El tablón	2	Febrero	2023-11-02T00:00:00	2024-11-06T00:00:00	8	Radiación solar	0
136321	7	Sololá	701	Sololá	2	El tablón	2	Febrero	2023-11-02T00:00:00	2024-11-06T01:00:00	2	Temperatura media	11.2
136322	7	Sololá	701	Sololá	2	El tablón	2	Febrero	2023-11-02T00:00:00	2024-11-06T01:00:00	4	Temperatura máxima	11.2
136323	7	Sololá	701	Sololá	2	El tablón	2	Febrero	2023-11-02T00:00:00	2024-11-06T01:00:00	3	Temperatura mínima	10.9
136324	7	Sololá	701	Sololá	2	El tablón	2	Febrero	2023-11-02T00:00:00	2024-11-06T01:00:00	5	Humedad	82
136325	7	Sololá	701	Sololá	2	El tablón	2	Febrero	2023-11-02T00:00:00	2024-11-06T01:00:00	6	Velocidad del viento	11.3
136326	7	Sololá	701	Sololá	2	El tablón	2	Febrero	2023-11-02T00:00:00	2024-11-06T01:00:00	7	Dirección del viento	11.27
136327	7	Sololá	701	Sololá	2	El tablón	2	Febrero	2023-11-02T00:00:00	2024-11-06T01:00:00	1	Precipitación	0
136328	7	Sololá	701	Sololá	2	El tablón	2	Febrero	2023-11-02T00:00:00	2024-11-06T01:00:00	8	Radiación solar	0
136329	7	Sololá	701	Sololá	2	El tablón	2	Febrero	2023-11-02T00:00:00	2024-11-06T02:00:00	2	Temperatura media	10.8
136330	7	Sololá	701	Sololá	2	El tablón	2	Febrero	2023-11-02T00:00:00	2024-11-06T02:00:00	4	Temperatura máxima	11.3
136331	7	Sololá	701	Sololá	2	El tablón	2	Febrero	2023-11-02T00:00:00	2024-11-06T02:00:00	3	Temperatura mínima	10.8
136332	7	Sololá	701	Sololá	2	El tablón	2	Febrero	2023-11-02T00:00:00	2024-11-06T02:00:00	5	Humedad	82
136333	7	Sololá	701	Sololá	2	El tablón	2	Febrero	2023-11-02T00:00:00	2024-11-06T02:00:00	6	Velocidad del viento	9.7
136334	7	Sololá	701	Sololá	2	El tablón	2	Febrero	2023-11-02T00:00:00	2024-11-06T02:00:00	7	Dirección del viento	9.66
136335	7	Sololá	701	Sololá	2	El tablón	2	Febrero	2023-11-02T00:00:00	2024-11-06T02:00:00	1	Precipitación	0
136336	7	Sololá	701	Sololá	2	El tablón	2	Febrero	2023-11-02T00:00:00	2024-11-06T02:00:00	8	Radiación solar	0
136337	7	Sololá	701	Sololá	2	El tablón	2	Febrero	2023-11-02T00:00:00	2024-11-06T03:00:00	2	Temperatura media	11
136338	7	Sololá	701	Sololá	2	El tablón	2	Febrero	2023-11-02T00:00:00	2024-11-06T03:00:00	4	Temperatura máxima	11
136339	7	Sololá	701	Sololá	2	El tablón	2	Febrero	2023-11-02T00:00:00	2024-11-06T03:00:00	3	Temperatura mínima	10.7
136340	7	Sololá	701	Sololá	2	El tablón	2	Febrero	2023-11-02T00:00:00	2024-11-06T03:00:00	5	Humedad	78
136341	7	Sololá	701	Sololá	2	El tablón	2	Febrero	2023-11-02T00:00:00	2024-11-06T03:00:00	6	Velocidad del viento	9.7
136342	7	Sololá	701	Sololá	2	El tablón	2	Febrero	2023-11-02T00:00:00	2024-11-06T03:00:00	7	Dirección del viento	9.66
136343	7	Sololá	701	Sololá	2	El tablón	2	Febrero	2023-11-02T00:00:00	2024-11-06T03:00:00	1	Precipitación	0
136344	7	Sololá	701	Sololá	2	El tablón	2	Febrero	2023-11-02T00:00:00	2024-11-06T03:00:00	8	Radiación solar	0
136345	7	Sololá	701	Sololá	2	El tablón	2	Febrero	2023-11-02T00:00:00	2024-11-06T04:00:00	2	Temperatura media	10.9
136346	7	Sololá	701	Sololá	2	El tablón	2	Febrero	2023-11-02T00:00:00	2024-11-06T04:00:00	4	Temperatura máxima	11.2
136347	7	Sololá	701	Sololá	2	El tablón	2	Febrero	2023-11-02T00:00:00	2024-11-06T04:00:00	3	Temperatura mínima	10.9
136348	7	Sololá	701	Sololá	2	El tablón	2	Febrero	2023-11-02T00:00:00	2024-11-06T04:00:00	5	Humedad	74
136349	7	Sololá	701	Sololá	2	El tablón	2	Febrero	2023-11-02T00:00:00	2024-11-06T04:00:00	6	Velocidad del viento	11.3
136350	7	Sololá	701	Sololá	2	El tablón	2	Febrero	2023-11-02T00:00:00	2024-11-06T04:00:00	7	Dirección del viento	11.27
136351	7	Sololá	701	Sololá	2	El tablón	2	Febrero	2023-11-02T00:00:00	2024-11-06T04:00:00	1	Precipitación	0
136352	7	Sololá	701	Sololá	2	El tablón	2	Febrero	2023-11-02T00:00:00	2024-11-06T04:00:00	8	Radiación solar	0
136353	7	Sololá	701	Sololá	2	El tablón	2	Febrero	2023-11-02T00:00:00	2024-11-06T05:00:00	2	Temperatura media	11.2
136354	7	Sololá	701	Sololá	2	El tablón	2	Febrero	2023-11-02T00:00:00	2024-11-06T05:00:00	4	Temperatura máxima	11.2
136355	7	Sololá	701	Sololá	2	El tablón	2	Febrero	2023-11-02T00:00:00	2024-11-06T05:00:00	3	Temperatura mínima	10.8
136356	7	Sololá	701	Sololá	2	El tablón	2	Febrero	2023-11-02T00:00:00	2024-11-06T05:00:00	5	Humedad	63
136357	7	Sololá	701	Sololá	2	El tablón	2	Febrero	2023-11-02T00:00:00	2024-11-06T05:00:00	6	Velocidad del viento	12.9
136358	7	Sololá	701	Sololá	2	El tablón	2	Febrero	2023-11-02T00:00:00	2024-11-06T05:00:00	7	Dirección del viento	12.87
136359	7	Sololá	701	Sololá	2	El tablón	2	Febrero	2023-11-02T00:00:00	2024-11-06T05:00:00	1	Precipitación	0
136360	7	Sololá	701	Sololá	2	El tablón	2	Febrero	2023-11-02T00:00:00	2024-11-06T05:00:00	8	Radiación solar	0
136361	7	Sololá	701	Sololá	2	El tablón	2	Febrero	2023-11-02T00:00:00	2024-11-06T06:00:00	2	Temperatura media	11.7
136362	7	Sololá	701	Sololá	2	El tablón	2	Febrero	2023-11-02T00:00:00	2024-11-06T06:00:00	4	Temperatura máxima	11.7
136363	7	Sololá	701	Sololá	2	El tablón	2	Febrero	2023-11-02T00:00:00	2024-11-06T06:00:00	3	Temperatura mínima	11.2
136364	7	Sololá	701	Sololá	2	El tablón	2	Febrero	2023-11-02T00:00:00	2024-11-06T06:00:00	5	Humedad	58
136365	7	Sololá	701	Sololá	2	El tablón	2	Febrero	2023-11-02T00:00:00	2024-11-06T06:00:00	6	Velocidad del viento	16.1
136366	7	Sololá	701	Sololá	2	El tablón	2	Febrero	2023-11-02T00:00:00	2024-11-06T06:00:00	7	Dirección del viento	16.09
136367	7	Sololá	701	Sololá	2	El tablón	2	Febrero	2023-11-02T00:00:00	2024-11-06T06:00:00	1	Precipitación	0
136368	7	Sololá	701	Sololá	2	El tablón	2	Febrero	2023-11-02T00:00:00	2024-11-06T06:00:00	8	Radiación solar	0
136369	7	Sololá	701	Sololá	2	El tablón	2	Febrero	2023-11-02T00:00:00	2024-11-06T07:00:00	2	Temperatura media	11.9
136370	7	Sololá	701	Sololá	2	El tablón	2	Febrero	2023-11-02T00:00:00	2024-11-06T07:00:00	4	Temperatura máxima	11.9
136371	7	Sololá	701	Sololá	2	El tablón	2	Febrero	2023-11-02T00:00:00	2024-11-06T07:00:00	3	Temperatura mínima	11.3
136372	7	Sololá	701	Sololá	2	El tablón	2	Febrero	2023-11-02T00:00:00	2024-11-06T07:00:00	5	Humedad	52
136373	7	Sololá	701	Sololá	2	El tablón	2	Febrero	2023-11-02T00:00:00	2024-11-06T07:00:00	6	Velocidad del viento	19.3
136374	7	Sololá	701	Sololá	2	El tablón	2	Febrero	2023-11-02T00:00:00	2024-11-06T07:00:00	7	Dirección del viento	19.31
136375	7	Sololá	701	Sololá	2	El tablón	2	Febrero	2023-11-02T00:00:00	2024-11-06T07:00:00	1	Precipitación	0
136376	7	Sololá	701	Sololá	2	El tablón	2	Febrero	2023-11-02T00:00:00	2024-11-06T07:00:00	8	Radiación solar	6
136377	7	Sololá	701	Sololá	2	El tablón	2	Febrero	2023-11-02T00:00:00	2024-11-06T08:00:00	2	Temperatura media	12.7
136378	7	Sololá	701	Sololá	2	El tablón	2	Febrero	2023-11-02T00:00:00	2024-11-06T08:00:00	4	Temperatura máxima	12.8
136379	7	Sololá	701	Sololá	2	El tablón	2	Febrero	2023-11-02T00:00:00	2024-11-06T08:00:00	3	Temperatura mínima	11.9
136380	7	Sololá	701	Sololá	2	El tablón	2	Febrero	2023-11-02T00:00:00	2024-11-06T08:00:00	5	Humedad	52
136381	7	Sololá	701	Sololá	2	El tablón	2	Febrero	2023-11-02T00:00:00	2024-11-06T08:00:00	6	Velocidad del viento	19.3
136382	7	Sololá	701	Sololá	2	El tablón	2	Febrero	2023-11-02T00:00:00	2024-11-06T08:00:00	7	Dirección del viento	19.31
136383	7	Sololá	701	Sololá	2	El tablón	2	Febrero	2023-11-02T00:00:00	2024-11-06T08:00:00	1	Precipitación	0
136384	7	Sololá	701	Sololá	2	El tablón	2	Febrero	2023-11-02T00:00:00	2024-11-06T08:00:00	8	Radiación solar	159
136385	7	Sololá	701	Sololá	2	El tablón	2	Febrero	2023-11-02T00:00:00	2024-11-06T09:00:00	2	Temperatura media	13.8
136386	7	Sololá	701	Sololá	2	El tablón	2	Febrero	2023-11-02T00:00:00	2024-11-06T09:00:00	4	Temperatura máxima	13.9
136387	7	Sololá	701	Sololá	2	El tablón	2	Febrero	2023-11-02T00:00:00	2024-11-06T09:00:00	3	Temperatura mínima	12.7
136388	7	Sololá	701	Sololá	2	El tablón	2	Febrero	2023-11-02T00:00:00	2024-11-06T09:00:00	5	Humedad	47
136389	7	Sololá	701	Sololá	2	El tablón	2	Febrero	2023-11-02T00:00:00	2024-11-06T09:00:00	6	Velocidad del viento	20.9
136390	7	Sololá	701	Sololá	2	El tablón	2	Febrero	2023-11-02T00:00:00	2024-11-06T09:00:00	7	Dirección del viento	20.92
136391	7	Sololá	701	Sololá	2	El tablón	2	Febrero	2023-11-02T00:00:00	2024-11-06T09:00:00	1	Precipitación	0
136392	7	Sololá	701	Sololá	2	El tablón	2	Febrero	2023-11-02T00:00:00	2024-11-06T09:00:00	8	Radiación solar	389
136393	7	Sololá	701	Sololá	2	El tablón	2	Febrero	2023-11-02T00:00:00	2024-11-06T10:00:00	2	Temperatura media	15.6
136394	7	Sololá	701	Sololá	2	El tablón	2	Febrero	2023-11-02T00:00:00	2024-11-06T10:00:00	4	Temperatura máxima	15.6
136395	7	Sololá	701	Sololá	2	El tablón	2	Febrero	2023-11-02T00:00:00	2024-11-06T10:00:00	3	Temperatura mínima	13.8
136396	7	Sololá	701	Sololá	2	El tablón	2	Febrero	2023-11-02T00:00:00	2024-11-06T10:00:00	5	Humedad	42
136397	7	Sololá	701	Sololá	2	El tablón	2	Febrero	2023-11-02T00:00:00	2024-11-06T10:00:00	6	Velocidad del viento	19.3
136398	7	Sololá	701	Sololá	2	El tablón	2	Febrero	2023-11-02T00:00:00	2024-11-06T10:00:00	7	Dirección del viento	19.31
136399	7	Sololá	701	Sololá	2	El tablón	2	Febrero	2023-11-02T00:00:00	2024-11-06T10:00:00	1	Precipitación	0
136400	7	Sololá	701	Sololá	2	El tablón	2	Febrero	2023-11-02T00:00:00	2024-11-06T10:00:00	8	Radiación solar	601
136401	7	Sololá	701	Sololá	2	El tablón	2	Febrero	2023-11-02T00:00:00	2024-11-06T11:00:00	2	Temperatura media	15.7
136402	7	Sololá	701	Sololá	2	El tablón	2	Febrero	2023-11-02T00:00:00	2024-11-06T11:00:00	4	Temperatura máxima	15.9
136403	7	Sololá	701	Sololá	2	El tablón	2	Febrero	2023-11-02T00:00:00	2024-11-06T11:00:00	3	Temperatura mínima	15.2
136404	7	Sololá	701	Sololá	2	El tablón	2	Febrero	2023-11-02T00:00:00	2024-11-06T11:00:00	5	Humedad	53
136405	7	Sololá	701	Sololá	2	El tablón	2	Febrero	2023-11-02T00:00:00	2024-11-06T11:00:00	6	Velocidad del viento	20.9
136406	7	Sololá	701	Sololá	2	El tablón	2	Febrero	2023-11-02T00:00:00	2024-11-06T11:00:00	7	Dirección del viento	20.92
136407	7	Sololá	701	Sololá	2	El tablón	2	Febrero	2023-11-02T00:00:00	2024-11-06T11:00:00	1	Precipitación	0
136408	7	Sololá	701	Sololá	2	El tablón	2	Febrero	2023-11-02T00:00:00	2024-11-06T11:00:00	8	Radiación solar	756
136409	7	Sololá	701	Sololá	2	El tablón	2	Febrero	2023-11-02T00:00:00	2024-11-06T12:00:00	2	Temperatura media	16.7
136410	7	Sololá	701	Sololá	2	El tablón	2	Febrero	2023-11-02T00:00:00	2024-11-06T12:00:00	4	Temperatura máxima	16.7
136411	7	Sololá	701	Sololá	2	El tablón	2	Febrero	2023-11-02T00:00:00	2024-11-06T12:00:00	3	Temperatura mínima	15.7
136412	7	Sololá	701	Sololá	2	El tablón	2	Febrero	2023-11-02T00:00:00	2024-11-06T12:00:00	5	Humedad	52
136413	7	Sololá	701	Sololá	2	El tablón	2	Febrero	2023-11-02T00:00:00	2024-11-06T12:00:00	6	Velocidad del viento	19.3
136414	7	Sololá	701	Sololá	2	El tablón	2	Febrero	2023-11-02T00:00:00	2024-11-06T12:00:00	7	Dirección del viento	19.31
136415	7	Sololá	701	Sololá	2	El tablón	2	Febrero	2023-11-02T00:00:00	2024-11-06T12:00:00	1	Precipitación	0
136416	7	Sololá	701	Sololá	2	El tablón	2	Febrero	2023-11-02T00:00:00	2024-11-06T12:00:00	8	Radiación solar	770
136417	7	Sololá	701	Sololá	2	El tablón	2	Febrero	2023-11-02T00:00:00	2024-11-06T13:00:00	2	Temperatura media	17.3
136418	7	Sololá	701	Sololá	2	El tablón	2	Febrero	2023-11-02T00:00:00	2024-11-06T13:00:00	4	Temperatura máxima	17.4
136419	7	Sololá	701	Sololá	2	El tablón	2	Febrero	2023-11-02T00:00:00	2024-11-06T13:00:00	3	Temperatura mínima	16.7
136420	7	Sololá	701	Sololá	2	El tablón	2	Febrero	2023-11-02T00:00:00	2024-11-06T13:00:00	5	Humedad	54
136421	7	Sololá	701	Sololá	2	El tablón	2	Febrero	2023-11-02T00:00:00	2024-11-06T13:00:00	6	Velocidad del viento	19.3
136422	7	Sololá	701	Sololá	2	El tablón	2	Febrero	2023-11-02T00:00:00	2024-11-06T13:00:00	7	Dirección del viento	19.31
136423	7	Sololá	701	Sololá	2	El tablón	2	Febrero	2023-11-02T00:00:00	2024-11-06T13:00:00	1	Precipitación	0
136424	7	Sololá	701	Sololá	2	El tablón	2	Febrero	2023-11-02T00:00:00	2024-11-06T13:00:00	8	Radiación solar	865
136425	7	Sololá	701	Sololá	2	El tablón	2	Febrero	2023-11-02T00:00:00	2024-11-06T14:00:00	2	Temperatura media	17.2
136426	7	Sololá	701	Sololá	2	El tablón	2	Febrero	2023-11-02T00:00:00	2024-11-06T14:00:00	4	Temperatura máxima	17.6
136427	7	Sololá	701	Sololá	2	El tablón	2	Febrero	2023-11-02T00:00:00	2024-11-06T14:00:00	3	Temperatura mínima	16.8
136428	7	Sololá	701	Sololá	2	El tablón	2	Febrero	2023-11-02T00:00:00	2024-11-06T14:00:00	5	Humedad	51
136429	7	Sololá	701	Sololá	2	El tablón	2	Febrero	2023-11-02T00:00:00	2024-11-06T14:00:00	6	Velocidad del viento	19.3
136430	7	Sololá	701	Sololá	2	El tablón	2	Febrero	2023-11-02T00:00:00	2024-11-06T14:00:00	7	Dirección del viento	19.31
136431	7	Sololá	701	Sololá	2	El tablón	2	Febrero	2023-11-02T00:00:00	2024-11-06T14:00:00	1	Precipitación	0
136432	7	Sololá	701	Sololá	2	El tablón	2	Febrero	2023-11-02T00:00:00	2024-11-06T14:00:00	8	Radiación solar	836
136433	7	Sololá	701	Sololá	2	El tablón	2	Febrero	2023-11-02T00:00:00	2024-11-06T15:00:00	2	Temperatura media	17.3
136434	7	Sololá	701	Sololá	2	El tablón	2	Febrero	2023-11-02T00:00:00	2024-11-06T15:00:00	4	Temperatura máxima	17.5
136435	7	Sololá	701	Sololá	2	El tablón	2	Febrero	2023-11-02T00:00:00	2024-11-06T15:00:00	3	Temperatura mínima	17.1
136436	7	Sololá	701	Sololá	2	El tablón	2	Febrero	2023-11-02T00:00:00	2024-11-06T15:00:00	5	Humedad	51
136437	7	Sololá	701	Sololá	2	El tablón	2	Febrero	2023-11-02T00:00:00	2024-11-06T15:00:00	6	Velocidad del viento	17.7
136438	7	Sololá	701	Sololá	2	El tablón	2	Febrero	2023-11-02T00:00:00	2024-11-06T15:00:00	7	Dirección del viento	17.7
136439	7	Sololá	701	Sololá	2	El tablón	2	Febrero	2023-11-02T00:00:00	2024-11-06T15:00:00	1	Precipitación	0
136440	7	Sololá	701	Sololá	2	El tablón	2	Febrero	2023-11-02T00:00:00	2024-11-06T15:00:00	8	Radiación solar	726
136441	7	Sololá	701	Sololá	2	El tablón	2	Febrero	2023-11-02T00:00:00	2024-11-06T16:00:00	2	Temperatura media	16.1
136442	7	Sololá	701	Sololá	2	El tablón	2	Febrero	2023-11-02T00:00:00	2024-11-06T16:00:00	4	Temperatura máxima	17.3
136443	7	Sololá	701	Sololá	2	El tablón	2	Febrero	2023-11-02T00:00:00	2024-11-06T16:00:00	3	Temperatura mínima	16.1
136444	7	Sololá	701	Sololá	2	El tablón	2	Febrero	2023-11-02T00:00:00	2024-11-06T16:00:00	5	Humedad	52
136445	7	Sololá	701	Sololá	2	El tablón	2	Febrero	2023-11-02T00:00:00	2024-11-06T16:00:00	6	Velocidad del viento	17.7
136446	7	Sololá	701	Sololá	2	El tablón	2	Febrero	2023-11-02T00:00:00	2024-11-06T16:00:00	7	Dirección del viento	17.7
136447	7	Sololá	701	Sololá	2	El tablón	2	Febrero	2023-11-02T00:00:00	2024-11-06T16:00:00	1	Precipitación	0
136448	7	Sololá	701	Sololá	2	El tablón	2	Febrero	2023-11-02T00:00:00	2024-11-06T16:00:00	8	Radiación solar	561
136449	7	Sololá	701	Sololá	2	El tablón	2	Febrero	2023-11-02T00:00:00	2024-11-06T17:00:00	2	Temperatura media	14.7
136450	7	Sololá	701	Sololá	2	El tablón	2	Febrero	2023-11-02T00:00:00	2024-11-06T17:00:00	4	Temperatura máxima	16.3
136451	7	Sololá	701	Sololá	2	El tablón	2	Febrero	2023-11-02T00:00:00	2024-11-06T17:00:00	3	Temperatura mínima	14.7
136452	7	Sololá	701	Sololá	2	El tablón	2	Febrero	2023-11-02T00:00:00	2024-11-06T17:00:00	5	Humedad	67
136453	7	Sololá	701	Sololá	2	El tablón	2	Febrero	2023-11-02T00:00:00	2024-11-06T17:00:00	6	Velocidad del viento	16.1
136454	7	Sololá	701	Sololá	2	El tablón	2	Febrero	2023-11-02T00:00:00	2024-11-06T17:00:00	7	Dirección del viento	16.09
136455	7	Sololá	701	Sololá	2	El tablón	2	Febrero	2023-11-02T00:00:00	2024-11-06T17:00:00	1	Precipitación	0
136456	7	Sololá	701	Sololá	2	El tablón	2	Febrero	2023-11-02T00:00:00	2024-11-06T17:00:00	8	Radiación solar	386
136457	7	Sololá	701	Sololá	2	El tablón	2	Febrero	2023-11-02T00:00:00	2024-11-06T18:00:00	2	Temperatura media	12.9
136458	7	Sololá	701	Sololá	2	El tablón	2	Febrero	2023-11-02T00:00:00	2024-11-06T18:00:00	4	Temperatura máxima	14.7
136459	7	Sololá	701	Sololá	2	El tablón	2	Febrero	2023-11-02T00:00:00	2024-11-06T18:00:00	3	Temperatura mínima	12.9
136460	7	Sololá	701	Sololá	2	El tablón	2	Febrero	2023-11-02T00:00:00	2024-11-06T18:00:00	5	Humedad	74
136461	7	Sololá	701	Sololá	2	El tablón	2	Febrero	2023-11-02T00:00:00	2024-11-06T18:00:00	6	Velocidad del viento	12.9
136462	7	Sololá	701	Sololá	2	El tablón	2	Febrero	2023-11-02T00:00:00	2024-11-06T18:00:00	7	Dirección del viento	12.87
136463	7	Sololá	701	Sololá	2	El tablón	2	Febrero	2023-11-02T00:00:00	2024-11-06T18:00:00	1	Precipitación	0
136464	7	Sololá	701	Sololá	2	El tablón	2	Febrero	2023-11-02T00:00:00	2024-11-06T18:00:00	8	Radiación solar	95
136465	7	Sololá	701	Sololá	2	El tablón	2	Febrero	2023-11-02T00:00:00	2024-11-06T19:00:00	2	Temperatura media	11.3
136466	7	Sololá	701	Sololá	2	El tablón	2	Febrero	2023-11-02T00:00:00	2024-11-06T19:00:00	4	Temperatura máxima	12.9
136467	7	Sololá	701	Sololá	2	El tablón	2	Febrero	2023-11-02T00:00:00	2024-11-06T19:00:00	3	Temperatura mínima	11.3
136468	7	Sololá	701	Sololá	2	El tablón	2	Febrero	2023-11-02T00:00:00	2024-11-06T19:00:00	5	Humedad	87
136469	7	Sololá	701	Sololá	2	El tablón	2	Febrero	2023-11-02T00:00:00	2024-11-06T19:00:00	6	Velocidad del viento	17.7
136470	7	Sololá	701	Sololá	2	El tablón	2	Febrero	2023-11-02T00:00:00	2024-11-06T19:00:00	7	Dirección del viento	17.7
136471	7	Sololá	701	Sololá	2	El tablón	2	Febrero	2023-11-02T00:00:00	2024-11-06T19:00:00	1	Precipitación	0
136472	7	Sololá	701	Sololá	2	El tablón	2	Febrero	2023-11-02T00:00:00	2024-11-06T19:00:00	8	Radiación solar	0
136473	7	Sololá	701	Sololá	2	El tablón	2	Febrero	2023-11-02T00:00:00	2024-11-06T20:00:00	2	Temperatura media	11.1
136474	7	Sololá	701	Sololá	2	El tablón	2	Febrero	2023-11-02T00:00:00	2024-11-06T20:00:00	4	Temperatura máxima	11.2
136475	7	Sololá	701	Sololá	2	El tablón	2	Febrero	2023-11-02T00:00:00	2024-11-06T20:00:00	3	Temperatura mínima	10.9
136476	7	Sololá	701	Sololá	2	El tablón	2	Febrero	2023-11-02T00:00:00	2024-11-06T20:00:00	5	Humedad	89
136477	7	Sololá	701	Sololá	2	El tablón	2	Febrero	2023-11-02T00:00:00	2024-11-06T20:00:00	6	Velocidad del viento	24.1
136478	7	Sololá	701	Sololá	2	El tablón	2	Febrero	2023-11-02T00:00:00	2024-11-06T20:00:00	7	Dirección del viento	24.14
136479	7	Sololá	701	Sololá	2	El tablón	2	Febrero	2023-11-02T00:00:00	2024-11-06T20:00:00	1	Precipitación	0.4
136480	7	Sololá	701	Sololá	2	El tablón	2	Febrero	2023-11-02T00:00:00	2024-11-06T20:00:00	8	Radiación solar	0
136481	7	Sololá	701	Sololá	2	El tablón	2	Febrero	2023-11-02T00:00:00	2024-11-06T21:00:00	2	Temperatura media	10.9
136482	7	Sololá	701	Sololá	2	El tablón	2	Febrero	2023-11-02T00:00:00	2024-11-06T21:00:00	4	Temperatura máxima	11.2
136483	7	Sololá	701	Sololá	2	El tablón	2	Febrero	2023-11-02T00:00:00	2024-11-06T21:00:00	3	Temperatura mínima	10.8
136484	7	Sololá	701	Sololá	2	El tablón	2	Febrero	2023-11-02T00:00:00	2024-11-06T21:00:00	5	Humedad	89
136485	7	Sololá	701	Sololá	2	El tablón	2	Febrero	2023-11-02T00:00:00	2024-11-06T21:00:00	6	Velocidad del viento	25.7
136486	7	Sololá	701	Sololá	2	El tablón	2	Febrero	2023-11-02T00:00:00	2024-11-06T21:00:00	7	Dirección del viento	25.75
136487	7	Sololá	701	Sololá	2	El tablón	2	Febrero	2023-11-02T00:00:00	2024-11-06T21:00:00	1	Precipitación	0
136488	7	Sololá	701	Sololá	2	El tablón	2	Febrero	2023-11-02T00:00:00	2024-11-06T21:00:00	8	Radiación solar	0
136489	7	Sololá	701	Sololá	2	El tablón	2	Febrero	2023-11-02T00:00:00	2024-11-06T22:00:00	2	Temperatura media	10.9
136490	7	Sololá	701	Sololá	2	El tablón	2	Febrero	2023-11-02T00:00:00	2024-11-06T22:00:00	4	Temperatura máxima	11
136491	7	Sololá	701	Sololá	2	El tablón	2	Febrero	2023-11-02T00:00:00	2024-11-06T22:00:00	3	Temperatura mínima	10.7
136492	7	Sololá	701	Sololá	2	El tablón	2	Febrero	2023-11-02T00:00:00	2024-11-06T22:00:00	5	Humedad	89
136493	7	Sololá	701	Sololá	2	El tablón	2	Febrero	2023-11-02T00:00:00	2024-11-06T22:00:00	6	Velocidad del viento	25.7
136494	7	Sololá	701	Sololá	2	El tablón	2	Febrero	2023-11-02T00:00:00	2024-11-06T22:00:00	7	Dirección del viento	25.75
136495	7	Sololá	701	Sololá	2	El tablón	2	Febrero	2023-11-02T00:00:00	2024-11-06T22:00:00	1	Precipitación	0.2
136496	7	Sololá	701	Sololá	2	El tablón	2	Febrero	2023-11-02T00:00:00	2024-11-06T22:00:00	8	Radiación solar	0
136497	7	Sololá	701	Sololá	2	El tablón	2	Febrero	2023-11-02T00:00:00	2024-11-06T23:00:00	2	Temperatura media	10.7
136498	7	Sololá	701	Sololá	2	El tablón	2	Febrero	2023-11-02T00:00:00	2024-11-06T23:00:00	4	Temperatura máxima	11.1
136499	7	Sololá	701	Sololá	2	El tablón	2	Febrero	2023-11-02T00:00:00	2024-11-06T23:00:00	3	Temperatura mínima	10.7
136500	7	Sololá	701	Sololá	2	El tablón	2	Febrero	2023-11-02T00:00:00	2024-11-06T23:00:00	5	Humedad	89
136501	7	Sololá	701	Sololá	2	El tablón	2	Febrero	2023-11-02T00:00:00	2024-11-06T23:00:00	6	Velocidad del viento	25.7
136502	7	Sololá	701	Sololá	2	El tablón	2	Febrero	2023-11-02T00:00:00	2024-11-06T23:00:00	7	Dirección del viento	25.75
136503	7	Sololá	701	Sololá	2	El tablón	2	Febrero	2023-11-02T00:00:00	2024-11-06T23:00:00	1	Precipitación	0
136504	7	Sololá	701	Sololá	2	El tablón	2	Febrero	2023-11-02T00:00:00	2024-11-06T23:00:00	8	Radiación solar	0
136505	7	Sololá	701	Sololá	2	El tablón	2	Febrero	2023-12-02T00:00:00	2024-11-06T00:00:00	2	Temperatura media	10.3
136506	7	Sololá	701	Sololá	2	El tablón	2	Febrero	2023-12-02T00:00:00	2024-11-06T00:00:00	4	Temperatura máxima	10.7
136507	7	Sololá	701	Sololá	2	El tablón	2	Febrero	2023-12-02T00:00:00	2024-11-06T00:00:00	3	Temperatura mínima	10.3
136508	7	Sololá	701	Sololá	2	El tablón	2	Febrero	2023-12-02T00:00:00	2024-11-06T00:00:00	5	Humedad	89
136509	7	Sololá	701	Sololá	2	El tablón	2	Febrero	2023-12-02T00:00:00	2024-11-06T00:00:00	6	Velocidad del viento	29
136510	7	Sololá	701	Sololá	2	El tablón	2	Febrero	2023-12-02T00:00:00	2024-11-06T00:00:00	7	Dirección del viento	28.97
136511	7	Sololá	701	Sololá	2	El tablón	2	Febrero	2023-12-02T00:00:00	2024-11-06T00:00:00	1	Precipitación	0
136512	7	Sololá	701	Sololá	2	El tablón	2	Febrero	2023-12-02T00:00:00	2024-11-06T00:00:00	8	Radiación solar	0
136513	7	Sololá	701	Sololá	2	El tablón	2	Febrero	2023-12-02T00:00:00	2024-11-06T01:00:00	2	Temperatura media	9.8
136514	7	Sololá	701	Sololá	2	El tablón	2	Febrero	2023-12-02T00:00:00	2024-11-06T01:00:00	4	Temperatura máxima	10.4
136515	7	Sololá	701	Sololá	2	El tablón	2	Febrero	2023-12-02T00:00:00	2024-11-06T01:00:00	3	Temperatura mínima	9.8
136516	7	Sololá	701	Sololá	2	El tablón	2	Febrero	2023-12-02T00:00:00	2024-11-06T01:00:00	5	Humedad	90
136517	7	Sololá	701	Sololá	2	El tablón	2	Febrero	2023-12-02T00:00:00	2024-11-06T01:00:00	6	Velocidad del viento	24.1
136518	7	Sololá	701	Sololá	2	El tablón	2	Febrero	2023-12-02T00:00:00	2024-11-06T01:00:00	7	Dirección del viento	24.14
136519	7	Sololá	701	Sololá	2	El tablón	2	Febrero	2023-12-02T00:00:00	2024-11-06T01:00:00	1	Precipitación	0
136520	7	Sololá	701	Sololá	2	El tablón	2	Febrero	2023-12-02T00:00:00	2024-11-06T01:00:00	8	Radiación solar	0
136521	7	Sololá	701	Sololá	2	El tablón	2	Febrero	2023-12-02T00:00:00	2024-11-06T02:00:00	2	Temperatura media	9.3
136522	7	Sololá	701	Sololá	2	El tablón	2	Febrero	2023-12-02T00:00:00	2024-11-06T02:00:00	4	Temperatura máxima	9.8
136523	7	Sololá	701	Sololá	2	El tablón	2	Febrero	2023-12-02T00:00:00	2024-11-06T02:00:00	3	Temperatura mínima	9.3
136524	7	Sololá	701	Sololá	2	El tablón	2	Febrero	2023-12-02T00:00:00	2024-11-06T02:00:00	5	Humedad	90
136525	7	Sololá	701	Sololá	2	El tablón	2	Febrero	2023-12-02T00:00:00	2024-11-06T02:00:00	6	Velocidad del viento	22.5
136526	7	Sololá	701	Sololá	2	El tablón	2	Febrero	2023-12-02T00:00:00	2024-11-06T02:00:00	7	Dirección del viento	22.53
136527	7	Sololá	701	Sololá	2	El tablón	2	Febrero	2023-12-02T00:00:00	2024-11-06T02:00:00	1	Precipitación	0
136528	7	Sololá	701	Sololá	2	El tablón	2	Febrero	2023-12-02T00:00:00	2024-11-06T02:00:00	8	Radiación solar	0
136529	7	Sololá	701	Sololá	2	El tablón	2	Febrero	2023-12-02T00:00:00	2024-11-06T03:00:00	2	Temperatura media	8.9
136530	7	Sololá	701	Sololá	2	El tablón	2	Febrero	2023-12-02T00:00:00	2024-11-06T03:00:00	4	Temperatura máxima	9.4
136531	7	Sololá	701	Sololá	2	El tablón	2	Febrero	2023-12-02T00:00:00	2024-11-06T03:00:00	3	Temperatura mínima	8.9
136532	7	Sololá	701	Sololá	2	El tablón	2	Febrero	2023-12-02T00:00:00	2024-11-06T03:00:00	5	Humedad	90
136533	7	Sololá	701	Sololá	2	El tablón	2	Febrero	2023-12-02T00:00:00	2024-11-06T03:00:00	6	Velocidad del viento	20.9
136534	7	Sololá	701	Sololá	2	El tablón	2	Febrero	2023-12-02T00:00:00	2024-11-06T03:00:00	7	Dirección del viento	20.92
136535	7	Sololá	701	Sololá	2	El tablón	2	Febrero	2023-12-02T00:00:00	2024-11-06T03:00:00	1	Precipitación	0
136536	7	Sololá	701	Sololá	2	El tablón	2	Febrero	2023-12-02T00:00:00	2024-11-06T03:00:00	8	Radiación solar	0
136537	7	Sololá	701	Sololá	2	El tablón	2	Febrero	2023-12-02T00:00:00	2024-11-06T04:00:00	2	Temperatura media	8.8
136538	7	Sololá	701	Sololá	2	El tablón	2	Febrero	2023-12-02T00:00:00	2024-11-06T04:00:00	4	Temperatura máxima	9
136539	7	Sololá	701	Sololá	2	El tablón	2	Febrero	2023-12-02T00:00:00	2024-11-06T04:00:00	3	Temperatura mínima	8.6
136540	7	Sololá	701	Sololá	2	El tablón	2	Febrero	2023-12-02T00:00:00	2024-11-06T04:00:00	5	Humedad	90
136541	7	Sololá	701	Sololá	2	El tablón	2	Febrero	2023-12-02T00:00:00	2024-11-06T04:00:00	6	Velocidad del viento	20.9
136542	7	Sololá	701	Sololá	2	El tablón	2	Febrero	2023-12-02T00:00:00	2024-11-06T04:00:00	7	Dirección del viento	20.92
136543	7	Sololá	701	Sololá	2	El tablón	2	Febrero	2023-12-02T00:00:00	2024-11-06T04:00:00	1	Precipitación	0
136544	7	Sololá	701	Sololá	2	El tablón	2	Febrero	2023-12-02T00:00:00	2024-11-06T04:00:00	8	Radiación solar	0
136545	7	Sololá	701	Sololá	2	El tablón	2	Febrero	2023-12-02T00:00:00	2024-11-06T05:00:00	2	Temperatura media	9.3
136546	7	Sololá	701	Sololá	2	El tablón	2	Febrero	2023-12-02T00:00:00	2024-11-06T05:00:00	4	Temperatura máxima	9.5
136547	7	Sololá	701	Sololá	2	El tablón	2	Febrero	2023-12-02T00:00:00	2024-11-06T05:00:00	3	Temperatura mínima	8.8
136548	7	Sololá	701	Sololá	2	El tablón	2	Febrero	2023-12-02T00:00:00	2024-11-06T05:00:00	5	Humedad	86
136549	7	Sololá	701	Sololá	2	El tablón	2	Febrero	2023-12-02T00:00:00	2024-11-06T05:00:00	6	Velocidad del viento	20.9
136550	7	Sololá	701	Sololá	2	El tablón	2	Febrero	2023-12-02T00:00:00	2024-11-06T05:00:00	7	Dirección del viento	20.92
136551	7	Sololá	701	Sololá	2	El tablón	2	Febrero	2023-12-02T00:00:00	2024-11-06T05:00:00	1	Precipitación	0
136552	7	Sololá	701	Sololá	2	El tablón	2	Febrero	2023-12-02T00:00:00	2024-11-06T05:00:00	8	Radiación solar	0
136553	7	Sololá	701	Sololá	2	El tablón	2	Febrero	2023-12-02T00:00:00	2024-11-06T06:00:00	2	Temperatura media	9.6
136554	7	Sololá	701	Sololá	2	El tablón	2	Febrero	2023-12-02T00:00:00	2024-11-06T06:00:00	4	Temperatura máxima	9.6
136555	7	Sololá	701	Sololá	2	El tablón	2	Febrero	2023-12-02T00:00:00	2024-11-06T06:00:00	3	Temperatura mínima	9.3
136556	7	Sololá	701	Sololá	2	El tablón	2	Febrero	2023-12-02T00:00:00	2024-11-06T06:00:00	5	Humedad	83
136557	7	Sololá	701	Sololá	2	El tablón	2	Febrero	2023-12-02T00:00:00	2024-11-06T06:00:00	6	Velocidad del viento	17.7
136558	7	Sololá	701	Sololá	2	El tablón	2	Febrero	2023-12-02T00:00:00	2024-11-06T06:00:00	7	Dirección del viento	17.7
136559	7	Sololá	701	Sololá	2	El tablón	2	Febrero	2023-12-02T00:00:00	2024-11-06T06:00:00	1	Precipitación	0
136560	7	Sololá	701	Sololá	2	El tablón	2	Febrero	2023-12-02T00:00:00	2024-11-06T06:00:00	8	Radiación solar	0
136561	7	Sololá	701	Sololá	2	El tablón	2	Febrero	2023-12-02T00:00:00	2024-11-06T07:00:00	2	Temperatura media	9.5
136562	7	Sololá	701	Sololá	2	El tablón	2	Febrero	2023-12-02T00:00:00	2024-11-06T07:00:00	4	Temperatura máxima	9.6
136563	7	Sololá	701	Sololá	2	El tablón	2	Febrero	2023-12-02T00:00:00	2024-11-06T07:00:00	3	Temperatura mínima	9.2
136564	7	Sololá	701	Sololá	2	El tablón	2	Febrero	2023-12-02T00:00:00	2024-11-06T07:00:00	5	Humedad	82
136565	7	Sololá	701	Sololá	2	El tablón	2	Febrero	2023-12-02T00:00:00	2024-11-06T07:00:00	6	Velocidad del viento	17.7
136566	7	Sololá	701	Sololá	2	El tablón	2	Febrero	2023-12-02T00:00:00	2024-11-06T07:00:00	7	Dirección del viento	17.7
136567	7	Sololá	701	Sololá	2	El tablón	2	Febrero	2023-12-02T00:00:00	2024-11-06T07:00:00	1	Precipitación	0
136568	7	Sololá	701	Sololá	2	El tablón	2	Febrero	2023-12-02T00:00:00	2024-11-06T07:00:00	8	Radiación solar	6
136569	7	Sololá	701	Sololá	2	El tablón	2	Febrero	2023-12-02T00:00:00	2024-11-06T08:00:00	2	Temperatura media	11.4
136570	7	Sololá	701	Sololá	2	El tablón	2	Febrero	2023-12-02T00:00:00	2024-11-06T08:00:00	4	Temperatura máxima	11.4
136571	7	Sololá	701	Sololá	2	El tablón	2	Febrero	2023-12-02T00:00:00	2024-11-06T08:00:00	3	Temperatura mínima	9.5
136572	7	Sololá	701	Sololá	2	El tablón	2	Febrero	2023-12-02T00:00:00	2024-11-06T08:00:00	5	Humedad	76
136573	7	Sololá	701	Sololá	2	El tablón	2	Febrero	2023-12-02T00:00:00	2024-11-06T08:00:00	6	Velocidad del viento	14.5
136574	7	Sololá	701	Sololá	2	El tablón	2	Febrero	2023-12-02T00:00:00	2024-11-06T08:00:00	7	Dirección del viento	14.48
136575	7	Sololá	701	Sololá	2	El tablón	2	Febrero	2023-12-02T00:00:00	2024-11-06T08:00:00	1	Precipitación	0
136576	7	Sololá	701	Sololá	2	El tablón	2	Febrero	2023-12-02T00:00:00	2024-11-06T08:00:00	8	Radiación solar	152
136577	7	Sololá	701	Sololá	2	El tablón	2	Febrero	2023-12-02T00:00:00	2024-11-06T09:00:00	2	Temperatura media	12.4
136578	7	Sololá	701	Sololá	2	El tablón	2	Febrero	2023-12-02T00:00:00	2024-11-06T09:00:00	4	Temperatura máxima	12.5
136579	7	Sololá	701	Sololá	2	El tablón	2	Febrero	2023-12-02T00:00:00	2024-11-06T09:00:00	3	Temperatura mínima	11.4
136580	7	Sololá	701	Sololá	2	El tablón	2	Febrero	2023-12-02T00:00:00	2024-11-06T09:00:00	5	Humedad	75
136581	7	Sololá	701	Sololá	2	El tablón	2	Febrero	2023-12-02T00:00:00	2024-11-06T09:00:00	6	Velocidad del viento	16.1
136582	7	Sololá	701	Sololá	2	El tablón	2	Febrero	2023-12-02T00:00:00	2024-11-06T09:00:00	7	Dirección del viento	16.09
136583	7	Sololá	701	Sololá	2	El tablón	2	Febrero	2023-12-02T00:00:00	2024-11-06T09:00:00	1	Precipitación	0
136584	7	Sololá	701	Sololá	2	El tablón	2	Febrero	2023-12-02T00:00:00	2024-11-06T09:00:00	8	Radiación solar	378
136585	7	Sololá	701	Sololá	2	El tablón	2	Febrero	2023-12-02T00:00:00	2024-11-06T10:00:00	2	Temperatura media	13.8
136586	7	Sololá	701	Sololá	2	El tablón	2	Febrero	2023-12-02T00:00:00	2024-11-06T10:00:00	4	Temperatura máxima	13.8
136587	7	Sololá	701	Sololá	2	El tablón	2	Febrero	2023-12-02T00:00:00	2024-11-06T10:00:00	3	Temperatura mínima	12.3
136588	7	Sololá	701	Sololá	2	El tablón	2	Febrero	2023-12-02T00:00:00	2024-11-06T10:00:00	5	Humedad	71
136589	7	Sololá	701	Sololá	2	El tablón	2	Febrero	2023-12-02T00:00:00	2024-11-06T10:00:00	6	Velocidad del viento	17.7
136590	7	Sololá	701	Sololá	2	El tablón	2	Febrero	2023-12-02T00:00:00	2024-11-06T10:00:00	7	Dirección del viento	17.7
136591	7	Sololá	701	Sololá	2	El tablón	2	Febrero	2023-12-02T00:00:00	2024-11-06T10:00:00	1	Precipitación	0
136592	7	Sololá	701	Sololá	2	El tablón	2	Febrero	2023-12-02T00:00:00	2024-11-06T10:00:00	8	Radiación solar	587
136593	7	Sololá	701	Sololá	2	El tablón	2	Febrero	2023-12-02T00:00:00	2024-11-06T11:00:00	2	Temperatura media	14.8
136594	7	Sololá	701	Sololá	2	El tablón	2	Febrero	2023-12-02T00:00:00	2024-11-06T11:00:00	4	Temperatura máxima	14.8
136595	7	Sololá	701	Sololá	2	El tablón	2	Febrero	2023-12-02T00:00:00	2024-11-06T11:00:00	3	Temperatura mínima	13.8
136596	7	Sololá	701	Sololá	2	El tablón	2	Febrero	2023-12-02T00:00:00	2024-11-06T11:00:00	5	Humedad	68
136597	7	Sololá	701	Sololá	2	El tablón	2	Febrero	2023-12-02T00:00:00	2024-11-06T11:00:00	6	Velocidad del viento	17.7
136598	7	Sololá	701	Sololá	2	El tablón	2	Febrero	2023-12-02T00:00:00	2024-11-06T11:00:00	7	Dirección del viento	17.7
136599	7	Sololá	701	Sololá	2	El tablón	2	Febrero	2023-12-02T00:00:00	2024-11-06T11:00:00	1	Precipitación	0
136600	7	Sololá	701	Sololá	2	El tablón	2	Febrero	2023-12-02T00:00:00	2024-11-06T11:00:00	8	Radiación solar	745
136601	7	Sololá	701	Sololá	2	El tablón	2	Febrero	2023-12-02T00:00:00	2024-11-06T12:00:00	2	Temperatura media	16.2
136602	7	Sololá	701	Sololá	2	El tablón	2	Febrero	2023-12-02T00:00:00	2024-11-06T12:00:00	4	Temperatura máxima	16.4
136603	7	Sololá	701	Sololá	2	El tablón	2	Febrero	2023-12-02T00:00:00	2024-11-06T12:00:00	3	Temperatura mínima	14.8
136604	7	Sololá	701	Sololá	2	El tablón	2	Febrero	2023-12-02T00:00:00	2024-11-06T12:00:00	5	Humedad	61
136605	7	Sololá	701	Sololá	2	El tablón	2	Febrero	2023-12-02T00:00:00	2024-11-06T12:00:00	6	Velocidad del viento	17.7
136606	7	Sololá	701	Sololá	2	El tablón	2	Febrero	2023-12-02T00:00:00	2024-11-06T12:00:00	7	Dirección del viento	17.7
136607	7	Sololá	701	Sololá	2	El tablón	2	Febrero	2023-12-02T00:00:00	2024-11-06T12:00:00	1	Precipitación	0
136608	7	Sololá	701	Sololá	2	El tablón	2	Febrero	2023-12-02T00:00:00	2024-11-06T12:00:00	8	Radiación solar	765
136609	7	Sololá	701	Sololá	2	El tablón	2	Febrero	2023-12-02T00:00:00	2024-11-06T13:00:00	2	Temperatura media	17.2
136610	7	Sololá	701	Sololá	2	El tablón	2	Febrero	2023-12-02T00:00:00	2024-11-06T13:00:00	4	Temperatura máxima	17.3
136611	7	Sololá	701	Sololá	2	El tablón	2	Febrero	2023-12-02T00:00:00	2024-11-06T13:00:00	3	Temperatura mínima	16.1
136612	7	Sololá	701	Sololá	2	El tablón	2	Febrero	2023-12-02T00:00:00	2024-11-06T13:00:00	5	Humedad	60
136613	7	Sololá	701	Sololá	2	El tablón	2	Febrero	2023-12-02T00:00:00	2024-11-06T13:00:00	6	Velocidad del viento	16.1
136614	7	Sololá	701	Sololá	2	El tablón	2	Febrero	2023-12-02T00:00:00	2024-11-06T13:00:00	7	Dirección del viento	16.09
136615	7	Sololá	701	Sololá	2	El tablón	2	Febrero	2023-12-02T00:00:00	2024-11-06T13:00:00	1	Precipitación	0
136616	7	Sololá	701	Sololá	2	El tablón	2	Febrero	2023-12-02T00:00:00	2024-11-06T13:00:00	8	Radiación solar	856
136617	7	Sololá	701	Sololá	2	El tablón	2	Febrero	2023-12-02T00:00:00	2024-11-06T14:00:00	2	Temperatura media	17.9
136618	7	Sololá	701	Sololá	2	El tablón	2	Febrero	2023-12-02T00:00:00	2024-11-06T14:00:00	4	Temperatura máxima	18.1
136619	7	Sololá	701	Sololá	2	El tablón	2	Febrero	2023-12-02T00:00:00	2024-11-06T14:00:00	3	Temperatura mínima	17.1
136620	7	Sololá	701	Sololá	2	El tablón	2	Febrero	2023-12-02T00:00:00	2024-11-06T14:00:00	5	Humedad	56
136621	7	Sololá	701	Sololá	2	El tablón	2	Febrero	2023-12-02T00:00:00	2024-11-06T14:00:00	6	Velocidad del viento	16.1
136622	7	Sololá	701	Sololá	2	El tablón	2	Febrero	2023-12-02T00:00:00	2024-11-06T14:00:00	7	Dirección del viento	16.09
136623	7	Sololá	701	Sololá	2	El tablón	2	Febrero	2023-12-02T00:00:00	2024-11-06T14:00:00	1	Precipitación	0
136624	7	Sololá	701	Sololá	2	El tablón	2	Febrero	2023-12-02T00:00:00	2024-11-06T14:00:00	8	Radiación solar	832
136625	7	Sololá	701	Sololá	2	El tablón	2	Febrero	2023-12-02T00:00:00	2024-11-06T15:00:00	2	Temperatura media	17.6
136626	7	Sololá	701	Sololá	2	El tablón	2	Febrero	2023-12-02T00:00:00	2024-11-06T15:00:00	4	Temperatura máxima	18.1
136627	7	Sololá	701	Sololá	2	El tablón	2	Febrero	2023-12-02T00:00:00	2024-11-06T15:00:00	3	Temperatura mínima	17.5
136628	7	Sololá	701	Sololá	2	El tablón	2	Febrero	2023-12-02T00:00:00	2024-11-06T15:00:00	5	Humedad	58
136629	7	Sololá	701	Sololá	2	El tablón	2	Febrero	2023-12-02T00:00:00	2024-11-06T15:00:00	6	Velocidad del viento	14.5
136630	7	Sololá	701	Sololá	2	El tablón	2	Febrero	2023-12-02T00:00:00	2024-11-06T15:00:00	7	Dirección del viento	14.48
136631	7	Sololá	701	Sololá	2	El tablón	2	Febrero	2023-12-02T00:00:00	2024-11-06T15:00:00	1	Precipitación	0
136632	7	Sololá	701	Sololá	2	El tablón	2	Febrero	2023-12-02T00:00:00	2024-11-06T15:00:00	8	Radiación solar	725
136633	7	Sololá	701	Sololá	2	El tablón	2	Febrero	2023-12-02T00:00:00	2024-11-06T16:00:00	2	Temperatura media	17.4
136634	7	Sololá	701	Sololá	2	El tablón	2	Febrero	2023-12-02T00:00:00	2024-11-06T16:00:00	4	Temperatura máxima	17.7
136635	7	Sololá	701	Sololá	2	El tablón	2	Febrero	2023-12-02T00:00:00	2024-11-06T16:00:00	3	Temperatura mínima	17.1
136636	7	Sololá	701	Sololá	2	El tablón	2	Febrero	2023-12-02T00:00:00	2024-11-06T16:00:00	5	Humedad	60
136637	7	Sololá	701	Sololá	2	El tablón	2	Febrero	2023-12-02T00:00:00	2024-11-06T16:00:00	6	Velocidad del viento	14.5
136638	7	Sololá	701	Sololá	2	El tablón	2	Febrero	2023-12-02T00:00:00	2024-11-06T16:00:00	7	Dirección del viento	14.48
136639	7	Sololá	701	Sololá	2	El tablón	2	Febrero	2023-12-02T00:00:00	2024-11-06T16:00:00	1	Precipitación	0
136640	7	Sololá	701	Sololá	2	El tablón	2	Febrero	2023-12-02T00:00:00	2024-11-06T16:00:00	8	Radiación solar	558
136641	7	Sololá	701	Sololá	2	El tablón	2	Febrero	2023-12-02T00:00:00	2024-11-06T17:00:00	2	Temperatura media	15.8
136642	7	Sololá	701	Sololá	2	El tablón	2	Febrero	2023-12-02T00:00:00	2024-11-06T17:00:00	4	Temperatura máxima	17.4
136643	7	Sololá	701	Sololá	2	El tablón	2	Febrero	2023-12-02T00:00:00	2024-11-06T17:00:00	3	Temperatura mínima	15.6
136644	7	Sololá	701	Sololá	2	El tablón	2	Febrero	2023-12-02T00:00:00	2024-11-06T17:00:00	5	Humedad	66
136645	7	Sololá	701	Sololá	2	El tablón	2	Febrero	2023-12-02T00:00:00	2024-11-06T17:00:00	6	Velocidad del viento	11.3
136646	7	Sololá	701	Sololá	2	El tablón	2	Febrero	2023-12-02T00:00:00	2024-11-06T17:00:00	7	Dirección del viento	11.27
136647	7	Sololá	701	Sololá	2	El tablón	2	Febrero	2023-12-02T00:00:00	2024-11-06T17:00:00	1	Precipitación	0
136648	7	Sololá	701	Sololá	2	El tablón	2	Febrero	2023-12-02T00:00:00	2024-11-06T17:00:00	8	Radiación solar	343
136649	7	Sololá	701	Sololá	2	El tablón	2	Febrero	2023-12-02T00:00:00	2024-11-06T18:00:00	2	Temperatura media	13.4
136650	7	Sololá	701	Sololá	2	El tablón	2	Febrero	2023-12-02T00:00:00	2024-11-06T18:00:00	4	Temperatura máxima	15.8
136651	7	Sololá	701	Sololá	2	El tablón	2	Febrero	2023-12-02T00:00:00	2024-11-06T18:00:00	3	Temperatura mínima	13.4
136652	7	Sololá	701	Sololá	2	El tablón	2	Febrero	2023-12-02T00:00:00	2024-11-06T18:00:00	5	Humedad	74
136653	7	Sololá	701	Sololá	2	El tablón	2	Febrero	2023-12-02T00:00:00	2024-11-06T18:00:00	6	Velocidad del viento	12.9
136654	7	Sololá	701	Sololá	2	El tablón	2	Febrero	2023-12-02T00:00:00	2024-11-06T18:00:00	7	Dirección del viento	12.87
136655	7	Sololá	701	Sololá	2	El tablón	2	Febrero	2023-12-02T00:00:00	2024-11-06T18:00:00	1	Precipitación	0
136656	7	Sololá	701	Sololá	2	El tablón	2	Febrero	2023-12-02T00:00:00	2024-11-06T18:00:00	8	Radiación solar	99
136657	7	Sololá	701	Sololá	2	El tablón	2	Febrero	2023-12-02T00:00:00	2024-11-06T19:00:00	2	Temperatura media	11.4
136658	7	Sololá	701	Sololá	2	El tablón	2	Febrero	2023-12-02T00:00:00	2024-11-06T19:00:00	4	Temperatura máxima	13.4
136659	7	Sololá	701	Sololá	2	El tablón	2	Febrero	2023-12-02T00:00:00	2024-11-06T19:00:00	3	Temperatura mínima	11.4
136660	7	Sololá	701	Sololá	2	El tablón	2	Febrero	2023-12-02T00:00:00	2024-11-06T19:00:00	5	Humedad	81
136661	7	Sololá	701	Sololá	2	El tablón	2	Febrero	2023-12-02T00:00:00	2024-11-06T19:00:00	6	Velocidad del viento	17.7
136662	7	Sololá	701	Sololá	2	El tablón	2	Febrero	2023-12-02T00:00:00	2024-11-06T19:00:00	7	Dirección del viento	17.7
136663	7	Sololá	701	Sololá	2	El tablón	2	Febrero	2023-12-02T00:00:00	2024-11-06T19:00:00	1	Precipitación	0
136664	7	Sololá	701	Sololá	2	El tablón	2	Febrero	2023-12-02T00:00:00	2024-11-06T19:00:00	8	Radiación solar	0
136665	7	Sololá	701	Sololá	2	El tablón	2	Febrero	2023-12-02T00:00:00	2024-11-06T20:00:00	2	Temperatura media	10.2
136666	7	Sololá	701	Sololá	2	El tablón	2	Febrero	2023-12-02T00:00:00	2024-11-06T20:00:00	4	Temperatura máxima	11.4
136667	7	Sololá	701	Sololá	2	El tablón	2	Febrero	2023-12-02T00:00:00	2024-11-06T20:00:00	3	Temperatura mínima	10.2
136668	7	Sololá	701	Sololá	2	El tablón	2	Febrero	2023-12-02T00:00:00	2024-11-06T20:00:00	5	Humedad	85
136669	7	Sololá	701	Sololá	2	El tablón	2	Febrero	2023-12-02T00:00:00	2024-11-06T20:00:00	6	Velocidad del viento	19.3
136670	7	Sololá	701	Sololá	2	El tablón	2	Febrero	2023-12-02T00:00:00	2024-11-06T20:00:00	7	Dirección del viento	19.31
136671	7	Sololá	701	Sololá	2	El tablón	2	Febrero	2023-12-02T00:00:00	2024-11-06T20:00:00	1	Precipitación	0
136672	7	Sololá	701	Sololá	2	El tablón	2	Febrero	2023-12-02T00:00:00	2024-11-06T20:00:00	8	Radiación solar	0
136673	7	Sololá	701	Sololá	2	El tablón	2	Febrero	2023-12-02T00:00:00	2024-11-06T21:00:00	2	Temperatura media	10.6
136674	7	Sololá	701	Sololá	2	El tablón	2	Febrero	2023-12-02T00:00:00	2024-11-06T21:00:00	4	Temperatura máxima	10.6
136675	7	Sololá	701	Sololá	2	El tablón	2	Febrero	2023-12-02T00:00:00	2024-11-06T21:00:00	3	Temperatura mínima	9.7
136676	7	Sololá	701	Sololá	2	El tablón	2	Febrero	2023-12-02T00:00:00	2024-11-06T21:00:00	5	Humedad	80
136677	7	Sololá	701	Sololá	2	El tablón	2	Febrero	2023-12-02T00:00:00	2024-11-06T21:00:00	6	Velocidad del viento	24.1
136678	7	Sololá	701	Sololá	2	El tablón	2	Febrero	2023-12-02T00:00:00	2024-11-06T21:00:00	7	Dirección del viento	24.14
136679	7	Sololá	701	Sololá	2	El tablón	2	Febrero	2023-12-02T00:00:00	2024-11-06T21:00:00	1	Precipitación	0
136680	7	Sololá	701	Sololá	2	El tablón	2	Febrero	2023-12-02T00:00:00	2024-11-06T21:00:00	8	Radiación solar	0
136681	7	Sololá	701	Sololá	2	El tablón	2	Febrero	2023-12-02T00:00:00	2024-11-06T22:00:00	2	Temperatura media	9.9
136682	7	Sololá	701	Sololá	2	El tablón	2	Febrero	2023-12-02T00:00:00	2024-11-06T22:00:00	4	Temperatura máxima	10.7
136683	7	Sololá	701	Sololá	2	El tablón	2	Febrero	2023-12-02T00:00:00	2024-11-06T22:00:00	3	Temperatura mínima	9.9
136684	7	Sololá	701	Sololá	2	El tablón	2	Febrero	2023-12-02T00:00:00	2024-11-06T22:00:00	5	Humedad	84
136685	7	Sololá	701	Sololá	2	El tablón	2	Febrero	2023-12-02T00:00:00	2024-11-06T22:00:00	6	Velocidad del viento	17.7
136686	7	Sololá	701	Sololá	2	El tablón	2	Febrero	2023-12-02T00:00:00	2024-11-06T22:00:00	7	Dirección del viento	17.7
136687	7	Sololá	701	Sololá	2	El tablón	2	Febrero	2023-12-02T00:00:00	2024-11-06T22:00:00	1	Precipitación	0
136688	7	Sololá	701	Sololá	2	El tablón	2	Febrero	2023-12-02T00:00:00	2024-11-06T22:00:00	8	Radiación solar	0
136689	7	Sololá	701	Sololá	2	El tablón	2	Febrero	2023-12-02T00:00:00	2024-11-06T23:00:00	2	Temperatura media	8.9
136690	7	Sololá	701	Sololá	2	El tablón	2	Febrero	2023-12-02T00:00:00	2024-11-06T23:00:00	4	Temperatura máxima	9.9
136691	7	Sololá	701	Sololá	2	El tablón	2	Febrero	2023-12-02T00:00:00	2024-11-06T23:00:00	3	Temperatura mínima	8.8
136692	7	Sololá	701	Sololá	2	El tablón	2	Febrero	2023-12-02T00:00:00	2024-11-06T23:00:00	5	Humedad	89
136693	7	Sololá	701	Sololá	2	El tablón	2	Febrero	2023-12-02T00:00:00	2024-11-06T23:00:00	6	Velocidad del viento	16.1
136694	7	Sololá	701	Sololá	2	El tablón	2	Febrero	2023-12-02T00:00:00	2024-11-06T23:00:00	7	Dirección del viento	16.09
136695	7	Sololá	701	Sololá	2	El tablón	2	Febrero	2023-12-02T00:00:00	2024-11-06T23:00:00	1	Precipitación	0
136696	7	Sololá	701	Sololá	2	El tablón	2	Febrero	2023-12-02T00:00:00	2024-11-06T23:00:00	8	Radiación solar	0
136697	7	Sololá	701	Sololá	2	El tablón	2	Febrero	2023-02-13T00:00:00	2024-11-06T00:00:00	2	Temperatura media	8.9
136698	7	Sololá	701	Sololá	2	El tablón	2	Febrero	2023-02-13T00:00:00	2024-11-06T00:00:00	4	Temperatura máxima	9.1
136699	7	Sololá	701	Sololá	2	El tablón	2	Febrero	2023-02-13T00:00:00	2024-11-06T00:00:00	3	Temperatura mínima	8.8
136700	7	Sololá	701	Sololá	2	El tablón	2	Febrero	2023-02-13T00:00:00	2024-11-06T00:00:00	5	Humedad	89
136701	7	Sololá	701	Sololá	2	El tablón	2	Febrero	2023-02-13T00:00:00	2024-11-06T00:00:00	6	Velocidad del viento	16.1
136702	7	Sololá	701	Sololá	2	El tablón	2	Febrero	2023-02-13T00:00:00	2024-11-06T00:00:00	7	Dirección del viento	16.09
136703	7	Sololá	701	Sololá	2	El tablón	2	Febrero	2023-02-13T00:00:00	2024-11-06T00:00:00	1	Precipitación	0
136704	7	Sololá	701	Sololá	2	El tablón	2	Febrero	2023-02-13T00:00:00	2024-11-06T00:00:00	8	Radiación solar	0
136705	7	Sololá	701	Sololá	2	El tablón	2	Febrero	2023-02-13T00:00:00	2024-11-06T01:00:00	2	Temperatura media	9.3
136706	7	Sololá	701	Sololá	2	El tablón	2	Febrero	2023-02-13T00:00:00	2024-11-06T01:00:00	4	Temperatura máxima	9.3
136707	7	Sololá	701	Sololá	2	El tablón	2	Febrero	2023-02-13T00:00:00	2024-11-06T01:00:00	3	Temperatura mínima	8.9
136708	7	Sololá	701	Sololá	2	El tablón	2	Febrero	2023-02-13T00:00:00	2024-11-06T01:00:00	5	Humedad	89
136709	7	Sololá	701	Sololá	2	El tablón	2	Febrero	2023-02-13T00:00:00	2024-11-06T01:00:00	6	Velocidad del viento	11.3
136710	7	Sololá	701	Sololá	2	El tablón	2	Febrero	2023-02-13T00:00:00	2024-11-06T01:00:00	7	Dirección del viento	11.27
136711	7	Sololá	701	Sololá	2	El tablón	2	Febrero	2023-02-13T00:00:00	2024-11-06T01:00:00	1	Precipitación	0
136712	7	Sololá	701	Sololá	2	El tablón	2	Febrero	2023-02-13T00:00:00	2024-11-06T01:00:00	8	Radiación solar	0
136713	7	Sololá	701	Sololá	2	El tablón	2	Febrero	2023-02-13T00:00:00	2024-11-06T02:00:00	2	Temperatura media	9.6
136714	7	Sololá	701	Sololá	2	El tablón	2	Febrero	2023-02-13T00:00:00	2024-11-06T02:00:00	4	Temperatura máxima	9.7
136715	7	Sololá	701	Sololá	2	El tablón	2	Febrero	2023-02-13T00:00:00	2024-11-06T02:00:00	3	Temperatura mínima	9.3
136716	7	Sololá	701	Sololá	2	El tablón	2	Febrero	2023-02-13T00:00:00	2024-11-06T02:00:00	5	Humedad	88
136717	7	Sololá	701	Sololá	2	El tablón	2	Febrero	2023-02-13T00:00:00	2024-11-06T02:00:00	6	Velocidad del viento	8
136718	7	Sololá	701	Sololá	2	El tablón	2	Febrero	2023-02-13T00:00:00	2024-11-06T02:00:00	7	Dirección del viento	8.05
136719	7	Sololá	701	Sololá	2	El tablón	2	Febrero	2023-02-13T00:00:00	2024-11-06T02:00:00	1	Precipitación	0
136720	7	Sololá	701	Sololá	2	El tablón	2	Febrero	2023-02-13T00:00:00	2024-11-06T02:00:00	8	Radiación solar	0
136721	7	Sololá	701	Sololá	2	El tablón	2	Febrero	2023-02-13T00:00:00	2024-11-06T03:00:00	2	Temperatura media	9.6
136722	7	Sololá	701	Sololá	2	El tablón	2	Febrero	2023-02-13T00:00:00	2024-11-06T03:00:00	4	Temperatura máxima	9.7
136723	7	Sololá	701	Sololá	2	El tablón	2	Febrero	2023-02-13T00:00:00	2024-11-06T03:00:00	3	Temperatura mínima	9.6
136724	7	Sololá	701	Sololá	2	El tablón	2	Febrero	2023-02-13T00:00:00	2024-11-06T03:00:00	5	Humedad	88
136725	7	Sololá	701	Sololá	2	El tablón	2	Febrero	2023-02-13T00:00:00	2024-11-06T03:00:00	6	Velocidad del viento	14.5
136726	7	Sololá	701	Sololá	2	El tablón	2	Febrero	2023-02-13T00:00:00	2024-11-06T03:00:00	7	Dirección del viento	14.48
136727	7	Sololá	701	Sololá	2	El tablón	2	Febrero	2023-02-13T00:00:00	2024-11-06T03:00:00	1	Precipitación	0
136728	7	Sololá	701	Sololá	2	El tablón	2	Febrero	2023-02-13T00:00:00	2024-11-06T03:00:00	8	Radiación solar	0
136729	7	Sololá	701	Sololá	2	El tablón	2	Febrero	2023-02-13T00:00:00	2024-11-06T04:00:00	2	Temperatura media	9.3
136730	7	Sololá	701	Sololá	2	El tablón	2	Febrero	2023-02-13T00:00:00	2024-11-06T04:00:00	4	Temperatura máxima	9.6
136731	7	Sololá	701	Sololá	2	El tablón	2	Febrero	2023-02-13T00:00:00	2024-11-06T04:00:00	3	Temperatura mínima	9.3
136732	7	Sololá	701	Sololá	2	El tablón	2	Febrero	2023-02-13T00:00:00	2024-11-06T04:00:00	5	Humedad	88
136733	7	Sololá	701	Sololá	2	El tablón	2	Febrero	2023-02-13T00:00:00	2024-11-06T04:00:00	6	Velocidad del viento	14.5
136734	7	Sololá	701	Sololá	2	El tablón	2	Febrero	2023-02-13T00:00:00	2024-11-06T04:00:00	7	Dirección del viento	14.48
136735	7	Sololá	701	Sololá	2	El tablón	2	Febrero	2023-02-13T00:00:00	2024-11-06T04:00:00	1	Precipitación	0
136736	7	Sololá	701	Sololá	2	El tablón	2	Febrero	2023-02-13T00:00:00	2024-11-06T04:00:00	8	Radiación solar	0
136737	7	Sololá	701	Sololá	2	El tablón	2	Febrero	2023-02-13T00:00:00	2024-11-06T05:00:00	2	Temperatura media	9.4
136738	7	Sololá	701	Sololá	2	El tablón	2	Febrero	2023-02-13T00:00:00	2024-11-06T05:00:00	4	Temperatura máxima	9.6
136739	7	Sololá	701	Sololá	2	El tablón	2	Febrero	2023-02-13T00:00:00	2024-11-06T05:00:00	3	Temperatura mínima	9.2
136740	7	Sololá	701	Sololá	2	El tablón	2	Febrero	2023-02-13T00:00:00	2024-11-06T05:00:00	5	Humedad	88
136741	7	Sololá	701	Sololá	2	El tablón	2	Febrero	2023-02-13T00:00:00	2024-11-06T05:00:00	6	Velocidad del viento	12.9
136742	7	Sololá	701	Sololá	2	El tablón	2	Febrero	2023-02-13T00:00:00	2024-11-06T05:00:00	7	Dirección del viento	12.87
136743	7	Sololá	701	Sololá	2	El tablón	2	Febrero	2023-02-13T00:00:00	2024-11-06T05:00:00	1	Precipitación	0
136744	7	Sololá	701	Sololá	2	El tablón	2	Febrero	2023-02-13T00:00:00	2024-11-06T05:00:00	8	Radiación solar	0
136745	7	Sololá	701	Sololá	2	El tablón	2	Febrero	2023-02-13T00:00:00	2024-11-06T06:00:00	2	Temperatura media	9.2
136746	7	Sololá	701	Sololá	2	El tablón	2	Febrero	2023-02-13T00:00:00	2024-11-06T06:00:00	4	Temperatura máxima	9.4
136747	7	Sololá	701	Sololá	2	El tablón	2	Febrero	2023-02-13T00:00:00	2024-11-06T06:00:00	3	Temperatura mínima	9.2
136748	7	Sololá	701	Sololá	2	El tablón	2	Febrero	2023-02-13T00:00:00	2024-11-06T06:00:00	5	Humedad	89
136749	7	Sololá	701	Sololá	2	El tablón	2	Febrero	2023-02-13T00:00:00	2024-11-06T06:00:00	6	Velocidad del viento	11.3
136750	7	Sololá	701	Sololá	2	El tablón	2	Febrero	2023-02-13T00:00:00	2024-11-06T06:00:00	7	Dirección del viento	11.27
136751	7	Sololá	701	Sololá	2	El tablón	2	Febrero	2023-02-13T00:00:00	2024-11-06T06:00:00	1	Precipitación	0
136752	7	Sololá	701	Sololá	2	El tablón	2	Febrero	2023-02-13T00:00:00	2024-11-06T06:00:00	8	Radiación solar	0
136753	7	Sololá	701	Sololá	2	El tablón	2	Febrero	2023-02-13T00:00:00	2024-11-06T07:00:00	2	Temperatura media	9.3
136754	7	Sololá	701	Sololá	2	El tablón	2	Febrero	2023-02-13T00:00:00	2024-11-06T07:00:00	4	Temperatura máxima	9.3
136755	7	Sololá	701	Sololá	2	El tablón	2	Febrero	2023-02-13T00:00:00	2024-11-06T07:00:00	3	Temperatura mínima	9
136756	7	Sololá	701	Sololá	2	El tablón	2	Febrero	2023-02-13T00:00:00	2024-11-06T07:00:00	5	Humedad	89
136757	7	Sololá	701	Sololá	2	El tablón	2	Febrero	2023-02-13T00:00:00	2024-11-06T07:00:00	6	Velocidad del viento	9.7
136758	7	Sololá	701	Sololá	2	El tablón	2	Febrero	2023-02-13T00:00:00	2024-11-06T07:00:00	7	Dirección del viento	9.66
136759	7	Sololá	701	Sololá	2	El tablón	2	Febrero	2023-02-13T00:00:00	2024-11-06T07:00:00	1	Precipitación	0
136760	7	Sololá	701	Sololá	2	El tablón	2	Febrero	2023-02-13T00:00:00	2024-11-06T07:00:00	8	Radiación solar	8
136761	7	Sololá	701	Sololá	2	El tablón	2	Febrero	2023-02-13T00:00:00	2024-11-06T08:00:00	2	Temperatura media	10.3
136762	7	Sololá	701	Sololá	2	El tablón	2	Febrero	2023-02-13T00:00:00	2024-11-06T08:00:00	4	Temperatura máxima	10.3
136763	7	Sololá	701	Sololá	2	El tablón	2	Febrero	2023-02-13T00:00:00	2024-11-06T08:00:00	3	Temperatura mínima	9.3
136764	7	Sololá	701	Sololá	2	El tablón	2	Febrero	2023-02-13T00:00:00	2024-11-06T08:00:00	5	Humedad	87
136765	7	Sololá	701	Sololá	2	El tablón	2	Febrero	2023-02-13T00:00:00	2024-11-06T08:00:00	6	Velocidad del viento	12.9
136766	7	Sololá	701	Sololá	2	El tablón	2	Febrero	2023-02-13T00:00:00	2024-11-06T08:00:00	7	Dirección del viento	12.87
136767	7	Sololá	701	Sololá	2	El tablón	2	Febrero	2023-02-13T00:00:00	2024-11-06T08:00:00	1	Precipitación	0
136768	7	Sololá	701	Sololá	2	El tablón	2	Febrero	2023-02-13T00:00:00	2024-11-06T08:00:00	8	Radiación solar	134
136769	7	Sololá	701	Sololá	2	El tablón	2	Febrero	2023-02-13T00:00:00	2024-11-06T09:00:00	2	Temperatura media	12
136770	7	Sololá	701	Sololá	2	El tablón	2	Febrero	2023-02-13T00:00:00	2024-11-06T09:00:00	4	Temperatura máxima	12
136771	7	Sololá	701	Sololá	2	El tablón	2	Febrero	2023-02-13T00:00:00	2024-11-06T09:00:00	3	Temperatura mínima	10.3
136772	7	Sololá	701	Sololá	2	El tablón	2	Febrero	2023-02-13T00:00:00	2024-11-06T09:00:00	5	Humedad	82
136773	7	Sololá	701	Sololá	2	El tablón	2	Febrero	2023-02-13T00:00:00	2024-11-06T09:00:00	6	Velocidad del viento	14.5
136774	7	Sololá	701	Sololá	2	El tablón	2	Febrero	2023-02-13T00:00:00	2024-11-06T09:00:00	7	Dirección del viento	14.48
136775	7	Sololá	701	Sololá	2	El tablón	2	Febrero	2023-02-13T00:00:00	2024-11-06T09:00:00	1	Precipitación	0
136776	7	Sololá	701	Sololá	2	El tablón	2	Febrero	2023-02-13T00:00:00	2024-11-06T09:00:00	8	Radiación solar	392
136777	7	Sololá	701	Sololá	2	El tablón	2	Febrero	2023-02-13T00:00:00	2024-11-06T10:00:00	2	Temperatura media	13.7
136778	7	Sololá	701	Sololá	2	El tablón	2	Febrero	2023-02-13T00:00:00	2024-11-06T10:00:00	4	Temperatura máxima	13.7
136779	7	Sololá	701	Sololá	2	El tablón	2	Febrero	2023-02-13T00:00:00	2024-11-06T10:00:00	3	Temperatura mínima	12
136780	7	Sololá	701	Sololá	2	El tablón	2	Febrero	2023-02-13T00:00:00	2024-11-06T10:00:00	5	Humedad	75
136781	7	Sololá	701	Sololá	2	El tablón	2	Febrero	2023-02-13T00:00:00	2024-11-06T10:00:00	6	Velocidad del viento	14.5
136782	7	Sololá	701	Sololá	2	El tablón	2	Febrero	2023-02-13T00:00:00	2024-11-06T10:00:00	7	Dirección del viento	14.48
136783	7	Sololá	701	Sololá	2	El tablón	2	Febrero	2023-02-13T00:00:00	2024-11-06T10:00:00	1	Precipitación	0
136784	7	Sololá	701	Sololá	2	El tablón	2	Febrero	2023-02-13T00:00:00	2024-11-06T10:00:00	8	Radiación solar	611
136785	7	Sololá	701	Sololá	2	El tablón	2	Febrero	2023-02-13T00:00:00	2024-11-06T11:00:00	2	Temperatura media	15.3
136786	7	Sololá	701	Sololá	2	El tablón	2	Febrero	2023-02-13T00:00:00	2024-11-06T11:00:00	4	Temperatura máxima	15.3
136787	7	Sololá	701	Sololá	2	El tablón	2	Febrero	2023-02-13T00:00:00	2024-11-06T11:00:00	3	Temperatura mínima	13.7
136788	7	Sololá	701	Sololá	2	El tablón	2	Febrero	2023-02-13T00:00:00	2024-11-06T11:00:00	5	Humedad	69
136789	7	Sololá	701	Sololá	2	El tablón	2	Febrero	2023-02-13T00:00:00	2024-11-06T11:00:00	6	Velocidad del viento	12.9
136790	7	Sololá	701	Sololá	2	El tablón	2	Febrero	2023-02-13T00:00:00	2024-11-06T11:00:00	7	Dirección del viento	12.87
136791	7	Sololá	701	Sololá	2	El tablón	2	Febrero	2023-02-13T00:00:00	2024-11-06T11:00:00	1	Precipitación	0
136792	7	Sololá	701	Sololá	2	El tablón	2	Febrero	2023-02-13T00:00:00	2024-11-06T11:00:00	8	Radiación solar	757
136793	7	Sololá	701	Sololá	2	El tablón	2	Febrero	2023-02-13T00:00:00	2024-11-06T12:00:00	2	Temperatura media	16.9
136794	7	Sololá	701	Sololá	2	El tablón	2	Febrero	2023-02-13T00:00:00	2024-11-06T12:00:00	4	Temperatura máxima	17.1
136795	7	Sololá	701	Sololá	2	El tablón	2	Febrero	2023-02-13T00:00:00	2024-11-06T12:00:00	3	Temperatura mínima	15.1
136796	7	Sololá	701	Sololá	2	El tablón	2	Febrero	2023-02-13T00:00:00	2024-11-06T12:00:00	5	Humedad	62
136797	7	Sololá	701	Sololá	2	El tablón	2	Febrero	2023-02-13T00:00:00	2024-11-06T12:00:00	6	Velocidad del viento	12.9
136798	7	Sololá	701	Sololá	2	El tablón	2	Febrero	2023-02-13T00:00:00	2024-11-06T12:00:00	7	Dirección del viento	12.87
136799	7	Sololá	701	Sololá	2	El tablón	2	Febrero	2023-02-13T00:00:00	2024-11-06T12:00:00	1	Precipitación	0
136800	7	Sololá	701	Sololá	2	El tablón	2	Febrero	2023-02-13T00:00:00	2024-11-06T12:00:00	8	Radiación solar	801
136801	7	Sololá	701	Sololá	2	El tablón	2	Febrero	2023-02-13T00:00:00	2024-11-06T13:00:00	2	Temperatura media	17.3
136802	7	Sololá	701	Sololá	2	El tablón	2	Febrero	2023-02-13T00:00:00	2024-11-06T13:00:00	4	Temperatura máxima	17.3
136803	7	Sololá	701	Sololá	2	El tablón	2	Febrero	2023-02-13T00:00:00	2024-11-06T13:00:00	3	Temperatura mínima	16.6
136804	7	Sololá	701	Sololá	2	El tablón	2	Febrero	2023-02-13T00:00:00	2024-11-06T13:00:00	5	Humedad	60
136805	7	Sololá	701	Sololá	2	El tablón	2	Febrero	2023-02-13T00:00:00	2024-11-06T13:00:00	6	Velocidad del viento	11.3
136806	7	Sololá	701	Sololá	2	El tablón	2	Febrero	2023-02-13T00:00:00	2024-11-06T13:00:00	7	Dirección del viento	11.27
136807	7	Sololá	701	Sololá	2	El tablón	2	Febrero	2023-02-13T00:00:00	2024-11-06T13:00:00	1	Precipitación	0
136808	7	Sololá	701	Sololá	2	El tablón	2	Febrero	2023-02-13T00:00:00	2024-11-06T13:00:00	8	Radiación solar	895
136809	7	Sololá	701	Sololá	2	El tablón	2	Febrero	2023-02-13T00:00:00	2024-11-06T14:00:00	2	Temperatura media	18.2
136810	7	Sololá	701	Sololá	2	El tablón	2	Febrero	2023-02-13T00:00:00	2024-11-06T14:00:00	4	Temperatura máxima	18.3
136811	7	Sololá	701	Sololá	2	El tablón	2	Febrero	2023-02-13T00:00:00	2024-11-06T14:00:00	3	Temperatura mínima	17.3
136812	7	Sololá	701	Sololá	2	El tablón	2	Febrero	2023-02-13T00:00:00	2024-11-06T14:00:00	5	Humedad	53
136813	7	Sololá	701	Sololá	2	El tablón	2	Febrero	2023-02-13T00:00:00	2024-11-06T14:00:00	6	Velocidad del viento	11.3
136814	7	Sololá	701	Sololá	2	El tablón	2	Febrero	2023-02-13T00:00:00	2024-11-06T14:00:00	7	Dirección del viento	11.27
136815	7	Sololá	701	Sololá	2	El tablón	2	Febrero	2023-02-13T00:00:00	2024-11-06T14:00:00	1	Precipitación	0
136816	7	Sololá	701	Sololá	2	El tablón	2	Febrero	2023-02-13T00:00:00	2024-11-06T14:00:00	8	Radiación solar	890
136817	7	Sololá	701	Sololá	2	El tablón	2	Febrero	2023-02-13T00:00:00	2024-11-06T15:00:00	2	Temperatura media	18.2
136818	7	Sololá	701	Sololá	2	El tablón	2	Febrero	2023-02-13T00:00:00	2024-11-06T15:00:00	4	Temperatura máxima	18.4
136819	7	Sololá	701	Sololá	2	El tablón	2	Febrero	2023-02-13T00:00:00	2024-11-06T15:00:00	3	Temperatura mínima	17.9
136820	7	Sololá	701	Sololá	2	El tablón	2	Febrero	2023-02-13T00:00:00	2024-11-06T15:00:00	5	Humedad	51
136821	7	Sololá	701	Sololá	2	El tablón	2	Febrero	2023-02-13T00:00:00	2024-11-06T15:00:00	6	Velocidad del viento	9.7
136822	7	Sololá	701	Sololá	2	El tablón	2	Febrero	2023-02-13T00:00:00	2024-11-06T15:00:00	7	Dirección del viento	9.66
136823	7	Sololá	701	Sololá	2	El tablón	2	Febrero	2023-02-13T00:00:00	2024-11-06T15:00:00	1	Precipitación	0
136824	7	Sololá	701	Sololá	2	El tablón	2	Febrero	2023-02-13T00:00:00	2024-11-06T15:00:00	8	Radiación solar	764
136825	7	Sololá	701	Sololá	2	El tablón	2	Febrero	2023-02-13T00:00:00	2024-11-06T16:00:00	2	Temperatura media	17.4
136826	7	Sololá	701	Sololá	2	El tablón	2	Febrero	2023-02-13T00:00:00	2024-11-06T16:00:00	4	Temperatura máxima	18.4
136827	7	Sololá	701	Sololá	2	El tablón	2	Febrero	2023-02-13T00:00:00	2024-11-06T16:00:00	3	Temperatura mínima	17.3
136828	7	Sololá	701	Sololá	2	El tablón	2	Febrero	2023-02-13T00:00:00	2024-11-06T16:00:00	5	Humedad	50
136829	7	Sololá	701	Sololá	2	El tablón	2	Febrero	2023-02-13T00:00:00	2024-11-06T16:00:00	6	Velocidad del viento	9.7
136830	7	Sololá	701	Sololá	2	El tablón	2	Febrero	2023-02-13T00:00:00	2024-11-06T16:00:00	7	Dirección del viento	9.66
136831	7	Sololá	701	Sololá	2	El tablón	2	Febrero	2023-02-13T00:00:00	2024-11-06T16:00:00	1	Precipitación	0
136832	7	Sololá	701	Sololá	2	El tablón	2	Febrero	2023-02-13T00:00:00	2024-11-06T16:00:00	8	Radiación solar	535
136833	7	Sololá	701	Sololá	2	El tablón	2	Febrero	2023-02-13T00:00:00	2024-11-06T17:00:00	2	Temperatura media	16.6
136834	7	Sololá	701	Sololá	2	El tablón	2	Febrero	2023-02-13T00:00:00	2024-11-06T17:00:00	4	Temperatura máxima	17.6
136835	7	Sololá	701	Sololá	2	El tablón	2	Febrero	2023-02-13T00:00:00	2024-11-06T17:00:00	3	Temperatura mínima	16.4
136836	7	Sololá	701	Sololá	2	El tablón	2	Febrero	2023-02-13T00:00:00	2024-11-06T17:00:00	5	Humedad	59
136837	7	Sololá	701	Sololá	2	El tablón	2	Febrero	2023-02-13T00:00:00	2024-11-06T17:00:00	6	Velocidad del viento	9.7
136838	7	Sololá	701	Sololá	2	El tablón	2	Febrero	2023-02-13T00:00:00	2024-11-06T17:00:00	7	Dirección del viento	9.66
136839	7	Sololá	701	Sololá	2	El tablón	2	Febrero	2023-02-13T00:00:00	2024-11-06T17:00:00	1	Precipitación	0
136840	7	Sololá	701	Sololá	2	El tablón	2	Febrero	2023-02-13T00:00:00	2024-11-06T17:00:00	8	Radiación solar	339
136841	7	Sololá	701	Sololá	2	El tablón	2	Febrero	2023-02-13T00:00:00	2024-11-06T18:00:00	2	Temperatura media	14.2
136842	7	Sololá	701	Sololá	2	El tablón	2	Febrero	2023-02-13T00:00:00	2024-11-06T18:00:00	4	Temperatura máxima	16.6
136843	7	Sololá	701	Sololá	2	El tablón	2	Febrero	2023-02-13T00:00:00	2024-11-06T18:00:00	3	Temperatura mínima	14.2
136844	7	Sololá	701	Sololá	2	El tablón	2	Febrero	2023-02-13T00:00:00	2024-11-06T18:00:00	5	Humedad	70
136845	7	Sololá	701	Sololá	2	El tablón	2	Febrero	2023-02-13T00:00:00	2024-11-06T18:00:00	6	Velocidad del viento	8
136846	7	Sololá	701	Sololá	2	El tablón	2	Febrero	2023-02-13T00:00:00	2024-11-06T18:00:00	7	Dirección del viento	8.05
136847	7	Sololá	701	Sololá	2	El tablón	2	Febrero	2023-02-13T00:00:00	2024-11-06T18:00:00	1	Precipitación	0
136848	7	Sololá	701	Sololá	2	El tablón	2	Febrero	2023-02-13T00:00:00	2024-11-06T18:00:00	8	Radiación solar	102
136849	7	Sololá	701	Sololá	2	El tablón	2	Febrero	2023-02-13T00:00:00	2024-11-06T19:00:00	2	Temperatura media	12.7
136850	7	Sololá	701	Sololá	2	El tablón	2	Febrero	2023-02-13T00:00:00	2024-11-06T19:00:00	4	Temperatura máxima	14.2
136851	7	Sololá	701	Sololá	2	El tablón	2	Febrero	2023-02-13T00:00:00	2024-11-06T19:00:00	3	Temperatura mínima	12.7
136852	7	Sololá	701	Sololá	2	El tablón	2	Febrero	2023-02-13T00:00:00	2024-11-06T19:00:00	5	Humedad	79
136853	7	Sololá	701	Sololá	2	El tablón	2	Febrero	2023-02-13T00:00:00	2024-11-06T19:00:00	6	Velocidad del viento	3.2
136854	7	Sololá	701	Sololá	2	El tablón	2	Febrero	2023-02-13T00:00:00	2024-11-06T19:00:00	7	Dirección del viento	3.22
136855	7	Sololá	701	Sololá	2	El tablón	2	Febrero	2023-02-13T00:00:00	2024-11-06T19:00:00	1	Precipitación	0
136856	7	Sololá	701	Sololá	2	El tablón	2	Febrero	2023-02-13T00:00:00	2024-11-06T19:00:00	8	Radiación solar	0
136857	7	Sololá	701	Sololá	2	El tablón	2	Febrero	2023-02-13T00:00:00	2024-11-06T20:00:00	2	Temperatura media	12
136858	7	Sololá	701	Sololá	2	El tablón	2	Febrero	2023-02-13T00:00:00	2024-11-06T20:00:00	4	Temperatura máxima	12.7
136859	7	Sololá	701	Sololá	2	El tablón	2	Febrero	2023-02-13T00:00:00	2024-11-06T20:00:00	3	Temperatura mínima	11.9
136860	7	Sololá	701	Sololá	2	El tablón	2	Febrero	2023-02-13T00:00:00	2024-11-06T20:00:00	5	Humedad	82
136861	7	Sololá	701	Sololá	2	El tablón	2	Febrero	2023-02-13T00:00:00	2024-11-06T20:00:00	6	Velocidad del viento	1.6
136862	7	Sololá	701	Sololá	2	El tablón	2	Febrero	2023-02-13T00:00:00	2024-11-06T20:00:00	7	Dirección del viento	1.61
136863	7	Sololá	701	Sololá	2	El tablón	2	Febrero	2023-02-13T00:00:00	2024-11-06T20:00:00	1	Precipitación	0
136864	7	Sololá	701	Sololá	2	El tablón	2	Febrero	2023-02-13T00:00:00	2024-11-06T20:00:00	8	Radiación solar	0
136865	7	Sololá	701	Sololá	2	El tablón	2	Febrero	2023-02-13T00:00:00	2024-11-06T21:00:00	2	Temperatura media	11.6
136866	7	Sololá	701	Sololá	2	El tablón	2	Febrero	2023-02-13T00:00:00	2024-11-06T21:00:00	4	Temperatura máxima	11.9
136867	7	Sololá	701	Sololá	2	El tablón	2	Febrero	2023-02-13T00:00:00	2024-11-06T21:00:00	3	Temperatura mínima	11.6
136868	7	Sololá	701	Sololá	2	El tablón	2	Febrero	2023-02-13T00:00:00	2024-11-06T21:00:00	5	Humedad	82
136869	7	Sololá	701	Sololá	2	El tablón	2	Febrero	2023-02-13T00:00:00	2024-11-06T21:00:00	6	Velocidad del viento	6.4
136870	7	Sololá	701	Sololá	2	El tablón	2	Febrero	2023-02-13T00:00:00	2024-11-06T21:00:00	7	Dirección del viento	6.44
136871	7	Sololá	701	Sololá	2	El tablón	2	Febrero	2023-02-13T00:00:00	2024-11-06T21:00:00	1	Precipitación	0
136872	7	Sololá	701	Sololá	2	El tablón	2	Febrero	2023-02-13T00:00:00	2024-11-06T21:00:00	8	Radiación solar	0
136873	7	Sololá	701	Sololá	2	El tablón	2	Febrero	2023-02-13T00:00:00	2024-11-06T22:00:00	2	Temperatura media	10.8
136874	7	Sololá	701	Sololá	2	El tablón	2	Febrero	2023-02-13T00:00:00	2024-11-06T22:00:00	4	Temperatura máxima	11.6
136875	7	Sololá	701	Sololá	2	El tablón	2	Febrero	2023-02-13T00:00:00	2024-11-06T22:00:00	3	Temperatura mínima	10.8
136876	7	Sololá	701	Sololá	2	El tablón	2	Febrero	2023-02-13T00:00:00	2024-11-06T22:00:00	5	Humedad	85
136877	7	Sololá	701	Sololá	2	El tablón	2	Febrero	2023-02-13T00:00:00	2024-11-06T22:00:00	6	Velocidad del viento	4.8
136878	7	Sololá	701	Sololá	2	El tablón	2	Febrero	2023-02-13T00:00:00	2024-11-06T22:00:00	7	Dirección del viento	4.83
136879	7	Sololá	701	Sololá	2	El tablón	2	Febrero	2023-02-13T00:00:00	2024-11-06T22:00:00	1	Precipitación	0
136880	7	Sololá	701	Sololá	2	El tablón	2	Febrero	2023-02-13T00:00:00	2024-11-06T22:00:00	8	Radiación solar	0
136881	7	Sololá	701	Sololá	2	El tablón	2	Febrero	2023-02-13T00:00:00	2024-11-06T23:00:00	2	Temperatura media	9.9
136882	7	Sololá	701	Sololá	2	El tablón	2	Febrero	2023-02-13T00:00:00	2024-11-06T23:00:00	4	Temperatura máxima	10.8
136883	7	Sololá	701	Sololá	2	El tablón	2	Febrero	2023-02-13T00:00:00	2024-11-06T23:00:00	3	Temperatura mínima	9.9
136884	7	Sololá	701	Sololá	2	El tablón	2	Febrero	2023-02-13T00:00:00	2024-11-06T23:00:00	5	Humedad	86
136885	7	Sololá	701	Sololá	2	El tablón	2	Febrero	2023-02-13T00:00:00	2024-11-06T23:00:00	6	Velocidad del viento	4.8
136886	7	Sololá	701	Sololá	2	El tablón	2	Febrero	2023-02-13T00:00:00	2024-11-06T23:00:00	7	Dirección del viento	4.83
136887	7	Sololá	701	Sololá	2	El tablón	2	Febrero	2023-02-13T00:00:00	2024-11-06T23:00:00	1	Precipitación	0
136888	7	Sololá	701	Sololá	2	El tablón	2	Febrero	2023-02-13T00:00:00	2024-11-06T23:00:00	8	Radiación solar	0
136889	7	Sololá	701	Sololá	2	El tablón	2	Febrero	2023-02-14T00:00:00	2024-11-06T00:00:00	2	Temperatura media	8.7
136890	7	Sololá	701	Sololá	2	El tablón	2	Febrero	2023-02-14T00:00:00	2024-11-06T00:00:00	4	Temperatura máxima	9.9
136891	7	Sololá	701	Sololá	2	El tablón	2	Febrero	2023-02-14T00:00:00	2024-11-06T00:00:00	3	Temperatura mínima	8.7
136892	7	Sololá	701	Sololá	2	El tablón	2	Febrero	2023-02-14T00:00:00	2024-11-06T00:00:00	5	Humedad	87
136893	7	Sololá	701	Sololá	2	El tablón	2	Febrero	2023-02-14T00:00:00	2024-11-06T00:00:00	6	Velocidad del viento	4.8
136894	7	Sololá	701	Sololá	2	El tablón	2	Febrero	2023-02-14T00:00:00	2024-11-06T00:00:00	7	Dirección del viento	4.83
136895	7	Sololá	701	Sololá	2	El tablón	2	Febrero	2023-02-14T00:00:00	2024-11-06T00:00:00	1	Precipitación	0
136896	7	Sololá	701	Sololá	2	El tablón	2	Febrero	2023-02-14T00:00:00	2024-11-06T00:00:00	8	Radiación solar	0
136897	7	Sololá	701	Sololá	2	El tablón	2	Febrero	2023-02-14T00:00:00	2024-11-06T01:00:00	2	Temperatura media	8.6
136898	7	Sololá	701	Sololá	2	El tablón	2	Febrero	2023-02-14T00:00:00	2024-11-06T01:00:00	4	Temperatura máxima	8.8
136899	7	Sololá	701	Sololá	2	El tablón	2	Febrero	2023-02-14T00:00:00	2024-11-06T01:00:00	3	Temperatura mínima	8.1
136900	7	Sololá	701	Sololá	2	El tablón	2	Febrero	2023-02-14T00:00:00	2024-11-06T01:00:00	5	Humedad	81
136901	7	Sololá	701	Sololá	2	El tablón	2	Febrero	2023-02-14T00:00:00	2024-11-06T01:00:00	6	Velocidad del viento	3.2
136902	7	Sololá	701	Sololá	2	El tablón	2	Febrero	2023-02-14T00:00:00	2024-11-06T01:00:00	7	Dirección del viento	3.22
136903	7	Sololá	701	Sololá	2	El tablón	2	Febrero	2023-02-14T00:00:00	2024-11-06T01:00:00	1	Precipitación	0
136904	7	Sololá	701	Sololá	2	El tablón	2	Febrero	2023-02-14T00:00:00	2024-11-06T01:00:00	8	Radiación solar	0
136905	7	Sololá	701	Sololá	2	El tablón	2	Febrero	2023-02-14T00:00:00	2024-11-06T02:00:00	2	Temperatura media	8.8
136906	7	Sololá	701	Sololá	2	El tablón	2	Febrero	2023-02-14T00:00:00	2024-11-06T02:00:00	4	Temperatura máxima	9.1
136907	7	Sololá	701	Sololá	2	El tablón	2	Febrero	2023-02-14T00:00:00	2024-11-06T02:00:00	3	Temperatura mínima	8.5
136908	7	Sololá	701	Sololá	2	El tablón	2	Febrero	2023-02-14T00:00:00	2024-11-06T02:00:00	5	Humedad	76
136909	7	Sololá	701	Sololá	2	El tablón	2	Febrero	2023-02-14T00:00:00	2024-11-06T02:00:00	6	Velocidad del viento	3.2
136910	7	Sololá	701	Sololá	2	El tablón	2	Febrero	2023-02-14T00:00:00	2024-11-06T02:00:00	7	Dirección del viento	3.22
136911	7	Sololá	701	Sololá	2	El tablón	2	Febrero	2023-02-14T00:00:00	2024-11-06T02:00:00	1	Precipitación	0
136912	7	Sololá	701	Sololá	2	El tablón	2	Febrero	2023-02-14T00:00:00	2024-11-06T02:00:00	8	Radiación solar	0
136913	7	Sololá	701	Sololá	2	El tablón	2	Febrero	2023-02-14T00:00:00	2024-11-06T03:00:00	2	Temperatura media	8.8
136914	7	Sololá	701	Sololá	2	El tablón	2	Febrero	2023-02-14T00:00:00	2024-11-06T03:00:00	4	Temperatura máxima	9.2
136915	7	Sololá	701	Sololá	2	El tablón	2	Febrero	2023-02-14T00:00:00	2024-11-06T03:00:00	3	Temperatura mínima	8.5
136916	7	Sololá	701	Sololá	2	El tablón	2	Febrero	2023-02-14T00:00:00	2024-11-06T03:00:00	5	Humedad	77
136917	7	Sololá	701	Sololá	2	El tablón	2	Febrero	2023-02-14T00:00:00	2024-11-06T03:00:00	6	Velocidad del viento	1.6
136918	7	Sololá	701	Sololá	2	El tablón	2	Febrero	2023-02-14T00:00:00	2024-11-06T03:00:00	7	Dirección del viento	1.61
136919	7	Sololá	701	Sololá	2	El tablón	2	Febrero	2023-02-14T00:00:00	2024-11-06T03:00:00	1	Precipitación	0
136920	7	Sololá	701	Sololá	2	El tablón	2	Febrero	2023-02-14T00:00:00	2024-11-06T03:00:00	8	Radiación solar	0
136921	7	Sololá	701	Sololá	2	El tablón	2	Febrero	2023-02-14T00:00:00	2024-11-06T04:00:00	2	Temperatura media	8.8
136922	7	Sololá	701	Sololá	2	El tablón	2	Febrero	2023-02-14T00:00:00	2024-11-06T04:00:00	4	Temperatura máxima	9.1
136923	7	Sololá	701	Sololá	2	El tablón	2	Febrero	2023-02-14T00:00:00	2024-11-06T04:00:00	3	Temperatura mínima	8.7
136924	7	Sololá	701	Sololá	2	El tablón	2	Febrero	2023-02-14T00:00:00	2024-11-06T04:00:00	5	Humedad	79
136925	7	Sololá	701	Sololá	2	El tablón	2	Febrero	2023-02-14T00:00:00	2024-11-06T04:00:00	6	Velocidad del viento	1.6
136926	7	Sololá	701	Sololá	2	El tablón	2	Febrero	2023-02-14T00:00:00	2024-11-06T04:00:00	7	Dirección del viento	1.61
136927	7	Sololá	701	Sololá	2	El tablón	2	Febrero	2023-02-14T00:00:00	2024-11-06T04:00:00	1	Precipitación	0
136928	7	Sololá	701	Sololá	2	El tablón	2	Febrero	2023-02-14T00:00:00	2024-11-06T04:00:00	8	Radiación solar	0
136929	7	Sololá	701	Sololá	2	El tablón	2	Febrero	2023-02-14T00:00:00	2024-11-06T05:00:00	2	Temperatura media	8.2
136930	7	Sololá	701	Sololá	2	El tablón	2	Febrero	2023-02-14T00:00:00	2024-11-06T05:00:00	4	Temperatura máxima	9
136931	7	Sololá	701	Sololá	2	El tablón	2	Febrero	2023-02-14T00:00:00	2024-11-06T05:00:00	3	Temperatura mínima	8.2
136932	7	Sololá	701	Sololá	2	El tablón	2	Febrero	2023-02-14T00:00:00	2024-11-06T05:00:00	5	Humedad	82
136933	7	Sololá	701	Sololá	2	El tablón	2	Febrero	2023-02-14T00:00:00	2024-11-06T05:00:00	6	Velocidad del viento	3.2
136934	7	Sololá	701	Sololá	2	El tablón	2	Febrero	2023-02-14T00:00:00	2024-11-06T05:00:00	7	Dirección del viento	3.22
136935	7	Sololá	701	Sololá	2	El tablón	2	Febrero	2023-02-14T00:00:00	2024-11-06T05:00:00	1	Precipitación	0
136936	7	Sololá	701	Sololá	2	El tablón	2	Febrero	2023-02-14T00:00:00	2024-11-06T05:00:00	8	Radiación solar	0
136937	7	Sololá	701	Sololá	2	El tablón	2	Febrero	2023-02-14T00:00:00	2024-11-06T06:00:00	2	Temperatura media	8.4
136938	7	Sololá	701	Sololá	2	El tablón	2	Febrero	2023-02-14T00:00:00	2024-11-06T06:00:00	4	Temperatura máxima	8.4
136939	7	Sololá	701	Sololá	2	El tablón	2	Febrero	2023-02-14T00:00:00	2024-11-06T06:00:00	3	Temperatura mínima	8.1
136940	7	Sololá	701	Sololá	2	El tablón	2	Febrero	2023-02-14T00:00:00	2024-11-06T06:00:00	5	Humedad	81
136941	7	Sololá	701	Sololá	2	El tablón	2	Febrero	2023-02-14T00:00:00	2024-11-06T06:00:00	6	Velocidad del viento	4.8
136942	7	Sololá	701	Sololá	2	El tablón	2	Febrero	2023-02-14T00:00:00	2024-11-06T06:00:00	7	Dirección del viento	4.83
136943	7	Sololá	701	Sololá	2	El tablón	2	Febrero	2023-02-14T00:00:00	2024-11-06T06:00:00	1	Precipitación	0
136944	7	Sololá	701	Sololá	2	El tablón	2	Febrero	2023-02-14T00:00:00	2024-11-06T06:00:00	8	Radiación solar	0
136945	7	Sololá	701	Sololá	2	El tablón	2	Febrero	2023-02-14T00:00:00	2024-11-06T07:00:00	2	Temperatura media	8.8
136946	7	Sololá	701	Sololá	2	El tablón	2	Febrero	2023-02-14T00:00:00	2024-11-06T07:00:00	4	Temperatura máxima	8.9
136947	7	Sololá	701	Sololá	2	El tablón	2	Febrero	2023-02-14T00:00:00	2024-11-06T07:00:00	3	Temperatura mínima	8.3
136948	7	Sololá	701	Sololá	2	El tablón	2	Febrero	2023-02-14T00:00:00	2024-11-06T07:00:00	5	Humedad	80
136949	7	Sololá	701	Sololá	2	El tablón	2	Febrero	2023-02-14T00:00:00	2024-11-06T07:00:00	6	Velocidad del viento	3.2
136950	7	Sololá	701	Sololá	2	El tablón	2	Febrero	2023-02-14T00:00:00	2024-11-06T07:00:00	7	Dirección del viento	3.22
136951	7	Sololá	701	Sololá	2	El tablón	2	Febrero	2023-02-14T00:00:00	2024-11-06T07:00:00	1	Precipitación	0
136952	7	Sololá	701	Sololá	2	El tablón	2	Febrero	2023-02-14T00:00:00	2024-11-06T07:00:00	8	Radiación solar	7
136953	7	Sololá	701	Sololá	2	El tablón	2	Febrero	2023-02-14T00:00:00	2024-11-06T08:00:00	2	Temperatura media	12.7
136954	7	Sololá	701	Sololá	2	El tablón	2	Febrero	2023-02-14T00:00:00	2024-11-06T08:00:00	4	Temperatura máxima	12.7
136955	7	Sololá	701	Sololá	2	El tablón	2	Febrero	2023-02-14T00:00:00	2024-11-06T08:00:00	3	Temperatura mínima	8.8
136956	7	Sololá	701	Sololá	2	El tablón	2	Febrero	2023-02-14T00:00:00	2024-11-06T08:00:00	5	Humedad	69
136957	7	Sololá	701	Sololá	2	El tablón	2	Febrero	2023-02-14T00:00:00	2024-11-06T08:00:00	6	Velocidad del viento	1.6
136958	7	Sololá	701	Sololá	2	El tablón	2	Febrero	2023-02-14T00:00:00	2024-11-06T08:00:00	7	Dirección del viento	1.61
136959	7	Sololá	701	Sololá	2	El tablón	2	Febrero	2023-02-14T00:00:00	2024-11-06T08:00:00	1	Precipitación	0
136960	7	Sololá	701	Sololá	2	El tablón	2	Febrero	2023-02-14T00:00:00	2024-11-06T08:00:00	8	Radiación solar	157
136961	7	Sololá	701	Sololá	2	El tablón	2	Febrero	2023-02-14T00:00:00	2024-11-06T09:00:00	2	Temperatura media	14.7
136962	7	Sololá	701	Sololá	2	El tablón	2	Febrero	2023-02-14T00:00:00	2024-11-06T09:00:00	4	Temperatura máxima	14.7
136963	7	Sololá	701	Sololá	2	El tablón	2	Febrero	2023-02-14T00:00:00	2024-11-06T09:00:00	3	Temperatura mínima	12.7
136964	7	Sololá	701	Sololá	2	El tablón	2	Febrero	2023-02-14T00:00:00	2024-11-06T09:00:00	5	Humedad	68
136965	7	Sololá	701	Sololá	2	El tablón	2	Febrero	2023-02-14T00:00:00	2024-11-06T09:00:00	6	Velocidad del viento	4.8
136966	7	Sololá	701	Sololá	2	El tablón	2	Febrero	2023-02-14T00:00:00	2024-11-06T09:00:00	7	Dirección del viento	4.83
136967	7	Sololá	701	Sololá	2	El tablón	2	Febrero	2023-02-14T00:00:00	2024-11-06T09:00:00	1	Precipitación	0
136968	7	Sololá	701	Sololá	2	El tablón	2	Febrero	2023-02-14T00:00:00	2024-11-06T09:00:00	8	Radiación solar	391
136969	7	Sololá	701	Sololá	2	El tablón	2	Febrero	2023-02-14T00:00:00	2024-11-06T10:00:00	2	Temperatura media	15.7
136970	7	Sololá	701	Sololá	2	El tablón	2	Febrero	2023-02-14T00:00:00	2024-11-06T10:00:00	4	Temperatura máxima	15.7
136971	7	Sololá	701	Sololá	2	El tablón	2	Febrero	2023-02-14T00:00:00	2024-11-06T10:00:00	3	Temperatura mínima	14.7
136972	7	Sololá	701	Sololá	2	El tablón	2	Febrero	2023-02-14T00:00:00	2024-11-06T10:00:00	5	Humedad	68
136973	7	Sololá	701	Sololá	2	El tablón	2	Febrero	2023-02-14T00:00:00	2024-11-06T10:00:00	6	Velocidad del viento	6.4
136974	7	Sololá	701	Sololá	2	El tablón	2	Febrero	2023-02-14T00:00:00	2024-11-06T10:00:00	7	Dirección del viento	6.44
136975	7	Sololá	701	Sololá	2	El tablón	2	Febrero	2023-02-14T00:00:00	2024-11-06T10:00:00	1	Precipitación	0
136976	7	Sololá	701	Sololá	2	El tablón	2	Febrero	2023-02-14T00:00:00	2024-11-06T10:00:00	8	Radiación solar	599
136977	7	Sololá	701	Sololá	2	El tablón	2	Febrero	2023-02-14T00:00:00	2024-11-06T11:00:00	2	Temperatura media	16.7
136978	7	Sololá	701	Sololá	2	El tablón	2	Febrero	2023-02-14T00:00:00	2024-11-06T11:00:00	4	Temperatura máxima	16.8
136979	7	Sololá	701	Sololá	2	El tablón	2	Febrero	2023-02-14T00:00:00	2024-11-06T11:00:00	3	Temperatura mínima	15.7
136980	7	Sololá	701	Sololá	2	El tablón	2	Febrero	2023-02-14T00:00:00	2024-11-06T11:00:00	5	Humedad	60
136981	7	Sololá	701	Sololá	2	El tablón	2	Febrero	2023-02-14T00:00:00	2024-11-06T11:00:00	6	Velocidad del viento	8
136982	7	Sololá	701	Sololá	2	El tablón	2	Febrero	2023-02-14T00:00:00	2024-11-06T11:00:00	7	Dirección del viento	8.05
136983	7	Sololá	701	Sololá	2	El tablón	2	Febrero	2023-02-14T00:00:00	2024-11-06T11:00:00	1	Precipitación	0
136984	7	Sololá	701	Sololá	2	El tablón	2	Febrero	2023-02-14T00:00:00	2024-11-06T11:00:00	8	Radiación solar	759
136985	7	Sololá	701	Sololá	2	El tablón	2	Febrero	2023-02-14T00:00:00	2024-11-06T12:00:00	2	Temperatura media	17.2
136986	7	Sololá	701	Sololá	2	El tablón	2	Febrero	2023-02-14T00:00:00	2024-11-06T12:00:00	4	Temperatura máxima	17.2
136987	7	Sololá	701	Sololá	2	El tablón	2	Febrero	2023-02-14T00:00:00	2024-11-06T12:00:00	3	Temperatura mínima	16.4
136988	7	Sololá	701	Sololá	2	El tablón	2	Febrero	2023-02-14T00:00:00	2024-11-06T12:00:00	5	Humedad	61
136989	7	Sololá	701	Sololá	2	El tablón	2	Febrero	2023-02-14T00:00:00	2024-11-06T12:00:00	6	Velocidad del viento	9.7
136990	7	Sololá	701	Sololá	2	El tablón	2	Febrero	2023-02-14T00:00:00	2024-11-06T12:00:00	7	Dirección del viento	9.66
136991	7	Sololá	701	Sololá	2	El tablón	2	Febrero	2023-02-14T00:00:00	2024-11-06T12:00:00	1	Precipitación	0
136992	7	Sololá	701	Sololá	2	El tablón	2	Febrero	2023-02-14T00:00:00	2024-11-06T12:00:00	8	Radiación solar	783
136993	7	Sololá	701	Sololá	2	El tablón	2	Febrero	2023-02-14T00:00:00	2024-11-06T13:00:00	2	Temperatura media	17.1
136994	7	Sololá	701	Sololá	2	El tablón	2	Febrero	2023-02-14T00:00:00	2024-11-06T13:00:00	4	Temperatura máxima	17.5
136995	7	Sololá	701	Sololá	2	El tablón	2	Febrero	2023-02-14T00:00:00	2024-11-06T13:00:00	3	Temperatura mínima	16.9
136996	7	Sololá	701	Sololá	2	El tablón	2	Febrero	2023-02-14T00:00:00	2024-11-06T13:00:00	5	Humedad	67
136997	7	Sololá	701	Sololá	2	El tablón	2	Febrero	2023-02-14T00:00:00	2024-11-06T13:00:00	6	Velocidad del viento	9.7
136998	7	Sololá	701	Sololá	2	El tablón	2	Febrero	2023-02-14T00:00:00	2024-11-06T13:00:00	7	Dirección del viento	9.66
136999	7	Sololá	701	Sololá	2	El tablón	2	Febrero	2023-02-14T00:00:00	2024-11-06T13:00:00	1	Precipitación	0
137000	7	Sololá	701	Sololá	2	El tablón	2	Febrero	2023-02-14T00:00:00	2024-11-06T13:00:00	8	Radiación solar	864
137001	7	Sololá	701	Sololá	2	El tablón	2	Febrero	2023-02-14T00:00:00	2024-11-06T14:00:00	2	Temperatura media	17.9
137002	7	Sololá	701	Sololá	2	El tablón	2	Febrero	2023-02-14T00:00:00	2024-11-06T14:00:00	4	Temperatura máxima	18
137003	7	Sololá	701	Sololá	2	El tablón	2	Febrero	2023-02-14T00:00:00	2024-11-06T14:00:00	3	Temperatura mínima	17.1
137004	7	Sololá	701	Sololá	2	El tablón	2	Febrero	2023-02-14T00:00:00	2024-11-06T14:00:00	5	Humedad	70
137005	7	Sololá	701	Sololá	2	El tablón	2	Febrero	2023-02-14T00:00:00	2024-11-06T14:00:00	6	Velocidad del viento	8
137006	7	Sololá	701	Sololá	2	El tablón	2	Febrero	2023-02-14T00:00:00	2024-11-06T14:00:00	7	Dirección del viento	8.05
137007	7	Sololá	701	Sololá	2	El tablón	2	Febrero	2023-02-14T00:00:00	2024-11-06T14:00:00	1	Precipitación	0
137008	7	Sololá	701	Sololá	2	El tablón	2	Febrero	2023-02-14T00:00:00	2024-11-06T14:00:00	8	Radiación solar	836
137009	7	Sololá	701	Sololá	2	El tablón	2	Febrero	2023-02-14T00:00:00	2024-11-06T15:00:00	2	Temperatura media	17
137010	7	Sololá	701	Sololá	2	El tablón	2	Febrero	2023-02-14T00:00:00	2024-11-06T15:00:00	4	Temperatura máxima	17.9
137011	7	Sololá	701	Sololá	2	El tablón	2	Febrero	2023-02-14T00:00:00	2024-11-06T15:00:00	3	Temperatura mínima	16.9
137012	7	Sololá	701	Sololá	2	El tablón	2	Febrero	2023-02-14T00:00:00	2024-11-06T15:00:00	5	Humedad	76
137013	7	Sololá	701	Sololá	2	El tablón	2	Febrero	2023-02-14T00:00:00	2024-11-06T15:00:00	6	Velocidad del viento	9.7
137014	7	Sololá	701	Sololá	2	El tablón	2	Febrero	2023-02-14T00:00:00	2024-11-06T15:00:00	7	Dirección del viento	9.66
137015	7	Sololá	701	Sololá	2	El tablón	2	Febrero	2023-02-14T00:00:00	2024-11-06T15:00:00	1	Precipitación	0
137016	7	Sololá	701	Sololá	2	El tablón	2	Febrero	2023-02-14T00:00:00	2024-11-06T15:00:00	8	Radiación solar	723
137017	7	Sololá	701	Sololá	2	El tablón	2	Febrero	2023-02-14T00:00:00	2024-11-06T16:00:00	2	Temperatura media	16.7
137018	7	Sololá	701	Sololá	2	El tablón	2	Febrero	2023-02-14T00:00:00	2024-11-06T16:00:00	4	Temperatura máxima	17.3
137019	7	Sololá	701	Sololá	2	El tablón	2	Febrero	2023-02-14T00:00:00	2024-11-06T16:00:00	3	Temperatura mínima	16.7
137020	7	Sololá	701	Sololá	2	El tablón	2	Febrero	2023-02-14T00:00:00	2024-11-06T16:00:00	5	Humedad	80
137021	7	Sololá	701	Sololá	2	El tablón	2	Febrero	2023-02-14T00:00:00	2024-11-06T16:00:00	6	Velocidad del viento	8
137022	7	Sololá	701	Sololá	2	El tablón	2	Febrero	2023-02-14T00:00:00	2024-11-06T16:00:00	7	Dirección del viento	8.05
137023	7	Sololá	701	Sololá	2	El tablón	2	Febrero	2023-02-14T00:00:00	2024-11-06T16:00:00	1	Precipitación	0
137024	7	Sololá	701	Sololá	2	El tablón	2	Febrero	2023-02-14T00:00:00	2024-11-06T16:00:00	8	Radiación solar	562
137025	7	Sololá	701	Sololá	2	El tablón	2	Febrero	2023-02-14T00:00:00	2024-11-06T17:00:00	2	Temperatura media	14.6
137026	7	Sololá	701	Sololá	2	El tablón	2	Febrero	2023-02-14T00:00:00	2024-11-06T17:00:00	4	Temperatura máxima	16.7
137027	7	Sololá	701	Sololá	2	El tablón	2	Febrero	2023-02-14T00:00:00	2024-11-06T17:00:00	3	Temperatura mínima	14.6
137028	7	Sololá	701	Sololá	2	El tablón	2	Febrero	2023-02-14T00:00:00	2024-11-06T17:00:00	5	Humedad	87
137029	7	Sololá	701	Sololá	2	El tablón	2	Febrero	2023-02-14T00:00:00	2024-11-06T17:00:00	6	Velocidad del viento	4.8
137030	7	Sololá	701	Sololá	2	El tablón	2	Febrero	2023-02-14T00:00:00	2024-11-06T17:00:00	7	Dirección del viento	4.83
137031	7	Sololá	701	Sololá	2	El tablón	2	Febrero	2023-02-14T00:00:00	2024-11-06T17:00:00	1	Precipitación	0
137032	7	Sololá	701	Sololá	2	El tablón	2	Febrero	2023-02-14T00:00:00	2024-11-06T17:00:00	8	Radiación solar	148
137033	7	Sololá	701	Sololá	2	El tablón	2	Febrero	2023-02-14T00:00:00	2024-11-06T18:00:00	2	Temperatura media	14.1
137034	7	Sololá	701	Sololá	2	El tablón	2	Febrero	2023-02-14T00:00:00	2024-11-06T18:00:00	4	Temperatura máxima	14.6
137035	7	Sololá	701	Sololá	2	El tablón	2	Febrero	2023-02-14T00:00:00	2024-11-06T18:00:00	3	Temperatura mínima	14.1
137036	7	Sololá	701	Sololá	2	El tablón	2	Febrero	2023-02-14T00:00:00	2024-11-06T18:00:00	5	Humedad	88
137037	7	Sololá	701	Sololá	2	El tablón	2	Febrero	2023-02-14T00:00:00	2024-11-06T18:00:00	6	Velocidad del viento	1.6
137038	7	Sololá	701	Sololá	2	El tablón	2	Febrero	2023-02-14T00:00:00	2024-11-06T18:00:00	7	Dirección del viento	1.61
137039	7	Sololá	701	Sololá	2	El tablón	2	Febrero	2023-02-14T00:00:00	2024-11-06T18:00:00	1	Precipitación	0
137040	7	Sololá	701	Sololá	2	El tablón	2	Febrero	2023-02-14T00:00:00	2024-11-06T18:00:00	8	Radiación solar	34
137041	7	Sololá	701	Sololá	2	El tablón	2	Febrero	2023-02-14T00:00:00	2024-11-06T19:00:00	2	Temperatura media	13.1
137042	7	Sololá	701	Sololá	2	El tablón	2	Febrero	2023-02-14T00:00:00	2024-11-06T19:00:00	4	Temperatura máxima	14.1
137043	7	Sololá	701	Sololá	2	El tablón	2	Febrero	2023-02-14T00:00:00	2024-11-06T19:00:00	3	Temperatura mínima	13.1
137044	7	Sololá	701	Sololá	2	El tablón	2	Febrero	2023-02-14T00:00:00	2024-11-06T19:00:00	5	Humedad	89
137045	7	Sololá	701	Sololá	2	El tablón	2	Febrero	2023-02-14T00:00:00	2024-11-06T19:00:00	6	Velocidad del viento	0
137046	7	Sololá	701	Sololá	2	El tablón	2	Febrero	2023-02-14T00:00:00	2024-11-06T19:00:00	7	Dirección del viento	0
137047	7	Sololá	701	Sololá	2	El tablón	2	Febrero	2023-02-14T00:00:00	2024-11-06T19:00:00	1	Precipitación	0
137048	7	Sololá	701	Sololá	2	El tablón	2	Febrero	2023-02-14T00:00:00	2024-11-06T19:00:00	8	Radiación solar	0
137049	7	Sololá	701	Sololá	2	El tablón	2	Febrero	2023-02-14T00:00:00	2024-11-06T20:00:00	2	Temperatura media	11.7
137050	7	Sololá	701	Sololá	2	El tablón	2	Febrero	2023-02-14T00:00:00	2024-11-06T20:00:00	4	Temperatura máxima	13.1
137051	7	Sololá	701	Sololá	2	El tablón	2	Febrero	2023-02-14T00:00:00	2024-11-06T20:00:00	3	Temperatura mínima	11.7
137052	7	Sololá	701	Sololá	2	El tablón	2	Febrero	2023-02-14T00:00:00	2024-11-06T20:00:00	5	Humedad	89
137053	7	Sololá	701	Sololá	2	El tablón	2	Febrero	2023-02-14T00:00:00	2024-11-06T20:00:00	6	Velocidad del viento	3.2
137054	7	Sololá	701	Sololá	2	El tablón	2	Febrero	2023-02-14T00:00:00	2024-11-06T20:00:00	7	Dirección del viento	3.22
137055	7	Sololá	701	Sololá	2	El tablón	2	Febrero	2023-02-14T00:00:00	2024-11-06T20:00:00	1	Precipitación	0
137056	7	Sololá	701	Sololá	2	El tablón	2	Febrero	2023-02-14T00:00:00	2024-11-06T20:00:00	8	Radiación solar	0
137057	7	Sololá	701	Sololá	2	El tablón	2	Febrero	2023-02-14T00:00:00	2024-11-06T21:00:00	2	Temperatura media	11.2
137058	7	Sololá	701	Sololá	2	El tablón	2	Febrero	2023-02-14T00:00:00	2024-11-06T21:00:00	4	Temperatura máxima	11.7
137059	7	Sololá	701	Sololá	2	El tablón	2	Febrero	2023-02-14T00:00:00	2024-11-06T21:00:00	3	Temperatura mínima	10.8
137060	7	Sololá	701	Sololá	2	El tablón	2	Febrero	2023-02-14T00:00:00	2024-11-06T21:00:00	5	Humedad	87
137061	7	Sololá	701	Sololá	2	El tablón	2	Febrero	2023-02-14T00:00:00	2024-11-06T21:00:00	6	Velocidad del viento	3.2
137062	7	Sololá	701	Sololá	2	El tablón	2	Febrero	2023-02-14T00:00:00	2024-11-06T21:00:00	7	Dirección del viento	3.22
137063	7	Sololá	701	Sololá	2	El tablón	2	Febrero	2023-02-14T00:00:00	2024-11-06T21:00:00	1	Precipitación	0
137064	7	Sololá	701	Sololá	2	El tablón	2	Febrero	2023-02-14T00:00:00	2024-11-06T21:00:00	8	Radiación solar	0
137065	7	Sololá	701	Sololá	2	El tablón	2	Febrero	2023-02-14T00:00:00	2024-11-06T22:00:00	2	Temperatura media	10.8
137066	7	Sololá	701	Sololá	2	El tablón	2	Febrero	2023-02-14T00:00:00	2024-11-06T22:00:00	4	Temperatura máxima	11.2
137067	7	Sololá	701	Sololá	2	El tablón	2	Febrero	2023-02-14T00:00:00	2024-11-06T22:00:00	3	Temperatura mínima	10.6
137068	7	Sololá	701	Sololá	2	El tablón	2	Febrero	2023-02-14T00:00:00	2024-11-06T22:00:00	5	Humedad	80
137069	7	Sololá	701	Sololá	2	El tablón	2	Febrero	2023-02-14T00:00:00	2024-11-06T22:00:00	6	Velocidad del viento	4.8
137070	7	Sololá	701	Sololá	2	El tablón	2	Febrero	2023-02-14T00:00:00	2024-11-06T22:00:00	7	Dirección del viento	4.83
137071	7	Sololá	701	Sololá	2	El tablón	2	Febrero	2023-02-14T00:00:00	2024-11-06T22:00:00	1	Precipitación	0
137072	7	Sololá	701	Sololá	2	El tablón	2	Febrero	2023-02-14T00:00:00	2024-11-06T22:00:00	8	Radiación solar	0
137073	7	Sololá	701	Sololá	2	El tablón	2	Febrero	2023-02-14T00:00:00	2024-11-06T23:00:00	2	Temperatura media	10.2
137074	7	Sololá	701	Sololá	2	El tablón	2	Febrero	2023-02-14T00:00:00	2024-11-06T23:00:00	4	Temperatura máxima	10.8
137075	7	Sololá	701	Sololá	2	El tablón	2	Febrero	2023-02-14T00:00:00	2024-11-06T23:00:00	3	Temperatura mínima	10.2
137076	7	Sololá	701	Sololá	2	El tablón	2	Febrero	2023-02-14T00:00:00	2024-11-06T23:00:00	5	Humedad	82
137077	7	Sololá	701	Sololá	2	El tablón	2	Febrero	2023-02-14T00:00:00	2024-11-06T23:00:00	6	Velocidad del viento	3.2
137078	7	Sololá	701	Sololá	2	El tablón	2	Febrero	2023-02-14T00:00:00	2024-11-06T23:00:00	7	Dirección del viento	3.22
137079	7	Sololá	701	Sololá	2	El tablón	2	Febrero	2023-02-14T00:00:00	2024-11-06T23:00:00	1	Precipitación	0
137080	7	Sololá	701	Sololá	2	El tablón	2	Febrero	2023-02-14T00:00:00	2024-11-06T23:00:00	8	Radiación solar	0
137081	7	Sololá	701	Sololá	2	El tablón	2	Febrero	2023-02-15T00:00:00	2024-11-06T00:00:00	2	Temperatura media	9.6
137082	7	Sololá	701	Sololá	2	El tablón	2	Febrero	2023-02-15T00:00:00	2024-11-06T00:00:00	4	Temperatura máxima	10.4
137083	7	Sololá	701	Sololá	2	El tablón	2	Febrero	2023-02-15T00:00:00	2024-11-06T00:00:00	3	Temperatura mínima	9.6
137084	7	Sololá	701	Sololá	2	El tablón	2	Febrero	2023-02-15T00:00:00	2024-11-06T00:00:00	5	Humedad	82
137085	7	Sololá	701	Sololá	2	El tablón	2	Febrero	2023-02-15T00:00:00	2024-11-06T00:00:00	6	Velocidad del viento	4.8
137086	7	Sololá	701	Sololá	2	El tablón	2	Febrero	2023-02-15T00:00:00	2024-11-06T00:00:00	7	Dirección del viento	4.83
137087	7	Sololá	701	Sololá	2	El tablón	2	Febrero	2023-02-15T00:00:00	2024-11-06T00:00:00	1	Precipitación	0
137088	7	Sololá	701	Sololá	2	El tablón	2	Febrero	2023-02-15T00:00:00	2024-11-06T00:00:00	8	Radiación solar	0
137089	7	Sololá	701	Sololá	2	El tablón	2	Febrero	2023-02-15T00:00:00	2024-11-06T01:00:00	2	Temperatura media	9
137090	7	Sololá	701	Sololá	2	El tablón	2	Febrero	2023-02-15T00:00:00	2024-11-06T01:00:00	4	Temperatura máxima	9.9
137091	7	Sololá	701	Sololá	2	El tablón	2	Febrero	2023-02-15T00:00:00	2024-11-06T01:00:00	3	Temperatura mínima	9
137092	7	Sololá	701	Sololá	2	El tablón	2	Febrero	2023-02-15T00:00:00	2024-11-06T01:00:00	5	Humedad	87
137093	7	Sololá	701	Sololá	2	El tablón	2	Febrero	2023-02-15T00:00:00	2024-11-06T01:00:00	6	Velocidad del viento	3.2
137094	7	Sololá	701	Sololá	2	El tablón	2	Febrero	2023-02-15T00:00:00	2024-11-06T01:00:00	7	Dirección del viento	3.22
137095	7	Sololá	701	Sololá	2	El tablón	2	Febrero	2023-02-15T00:00:00	2024-11-06T01:00:00	1	Precipitación	0
137096	7	Sololá	701	Sololá	2	El tablón	2	Febrero	2023-02-15T00:00:00	2024-11-06T01:00:00	8	Radiación solar	0
137097	7	Sololá	701	Sololá	2	El tablón	2	Febrero	2023-02-15T00:00:00	2024-11-06T02:00:00	2	Temperatura media	9.1
137098	7	Sololá	701	Sololá	2	El tablón	2	Febrero	2023-02-15T00:00:00	2024-11-06T02:00:00	4	Temperatura máxima	9.5
137099	7	Sololá	701	Sololá	2	El tablón	2	Febrero	2023-02-15T00:00:00	2024-11-06T02:00:00	3	Temperatura mínima	8.7
137100	7	Sololá	701	Sololá	2	El tablón	2	Febrero	2023-02-15T00:00:00	2024-11-06T02:00:00	5	Humedad	80
137101	7	Sololá	701	Sololá	2	El tablón	2	Febrero	2023-02-15T00:00:00	2024-11-06T02:00:00	6	Velocidad del viento	1.6
137102	7	Sololá	701	Sololá	2	El tablón	2	Febrero	2023-02-15T00:00:00	2024-11-06T02:00:00	7	Dirección del viento	1.61
137103	7	Sololá	701	Sololá	2	El tablón	2	Febrero	2023-02-15T00:00:00	2024-11-06T02:00:00	1	Precipitación	0
137104	7	Sololá	701	Sololá	2	El tablón	2	Febrero	2023-02-15T00:00:00	2024-11-06T02:00:00	8	Radiación solar	0
137105	7	Sololá	701	Sololá	2	El tablón	2	Febrero	2023-02-15T00:00:00	2024-11-06T03:00:00	2	Temperatura media	9
137106	7	Sololá	701	Sololá	2	El tablón	2	Febrero	2023-02-15T00:00:00	2024-11-06T03:00:00	4	Temperatura máxima	9.1
137107	7	Sololá	701	Sololá	2	El tablón	2	Febrero	2023-02-15T00:00:00	2024-11-06T03:00:00	3	Temperatura mínima	8.1
137108	7	Sololá	701	Sololá	2	El tablón	2	Febrero	2023-02-15T00:00:00	2024-11-06T03:00:00	5	Humedad	67
137109	7	Sololá	701	Sololá	2	El tablón	2	Febrero	2023-02-15T00:00:00	2024-11-06T03:00:00	6	Velocidad del viento	3.2
137110	7	Sololá	701	Sololá	2	El tablón	2	Febrero	2023-02-15T00:00:00	2024-11-06T03:00:00	7	Dirección del viento	3.22
137111	7	Sololá	701	Sololá	2	El tablón	2	Febrero	2023-02-15T00:00:00	2024-11-06T03:00:00	1	Precipitación	0
137112	7	Sololá	701	Sololá	2	El tablón	2	Febrero	2023-02-15T00:00:00	2024-11-06T03:00:00	8	Radiación solar	0
137113	7	Sololá	701	Sololá	2	El tablón	2	Febrero	2023-02-15T00:00:00	2024-11-06T04:00:00	2	Temperatura media	8.6
137114	7	Sololá	701	Sololá	2	El tablón	2	Febrero	2023-02-15T00:00:00	2024-11-06T04:00:00	4	Temperatura máxima	9.2
137115	7	Sololá	701	Sololá	2	El tablón	2	Febrero	2023-02-15T00:00:00	2024-11-06T04:00:00	3	Temperatura mínima	8.2
137116	7	Sololá	701	Sololá	2	El tablón	2	Febrero	2023-02-15T00:00:00	2024-11-06T04:00:00	5	Humedad	65
137117	7	Sololá	701	Sololá	2	El tablón	2	Febrero	2023-02-15T00:00:00	2024-11-06T04:00:00	6	Velocidad del viento	1.6
137118	7	Sololá	701	Sololá	2	El tablón	2	Febrero	2023-02-15T00:00:00	2024-11-06T04:00:00	7	Dirección del viento	1.61
137119	7	Sololá	701	Sololá	2	El tablón	2	Febrero	2023-02-15T00:00:00	2024-11-06T04:00:00	1	Precipitación	0
137120	7	Sololá	701	Sololá	2	El tablón	2	Febrero	2023-02-15T00:00:00	2024-11-06T04:00:00	8	Radiación solar	0
137121	7	Sololá	701	Sololá	2	El tablón	2	Febrero	2023-02-15T00:00:00	2024-11-06T05:00:00	2	Temperatura media	9.1
137122	7	Sololá	701	Sololá	2	El tablón	2	Febrero	2023-02-15T00:00:00	2024-11-06T05:00:00	4	Temperatura máxima	9.2
137123	7	Sololá	701	Sololá	2	El tablón	2	Febrero	2023-02-15T00:00:00	2024-11-06T05:00:00	3	Temperatura mínima	8.6
137124	7	Sololá	701	Sololá	2	El tablón	2	Febrero	2023-02-15T00:00:00	2024-11-06T05:00:00	5	Humedad	69
137125	7	Sololá	701	Sololá	2	El tablón	2	Febrero	2023-02-15T00:00:00	2024-11-06T05:00:00	6	Velocidad del viento	3.2
137126	7	Sololá	701	Sololá	2	El tablón	2	Febrero	2023-02-15T00:00:00	2024-11-06T05:00:00	7	Dirección del viento	3.22
137127	7	Sololá	701	Sololá	2	El tablón	2	Febrero	2023-02-15T00:00:00	2024-11-06T05:00:00	1	Precipitación	0
137128	7	Sololá	701	Sololá	2	El tablón	2	Febrero	2023-02-15T00:00:00	2024-11-06T05:00:00	8	Radiación solar	0
137129	7	Sololá	701	Sololá	2	El tablón	2	Febrero	2023-02-15T00:00:00	2024-11-06T06:00:00	2	Temperatura media	8.1
137130	7	Sololá	701	Sololá	2	El tablón	2	Febrero	2023-02-15T00:00:00	2024-11-06T06:00:00	4	Temperatura máxima	9.4
137131	7	Sololá	701	Sololá	2	El tablón	2	Febrero	2023-02-15T00:00:00	2024-11-06T06:00:00	3	Temperatura mínima	8.1
137132	7	Sololá	701	Sololá	2	El tablón	2	Febrero	2023-02-15T00:00:00	2024-11-06T06:00:00	5	Humedad	74
137133	7	Sololá	701	Sololá	2	El tablón	2	Febrero	2023-02-15T00:00:00	2024-11-06T06:00:00	6	Velocidad del viento	3.2
137134	7	Sololá	701	Sololá	2	El tablón	2	Febrero	2023-02-15T00:00:00	2024-11-06T06:00:00	7	Dirección del viento	3.22
137135	7	Sololá	701	Sololá	2	El tablón	2	Febrero	2023-02-15T00:00:00	2024-11-06T06:00:00	1	Precipitación	0
137136	7	Sololá	701	Sololá	2	El tablón	2	Febrero	2023-02-15T00:00:00	2024-11-06T06:00:00	8	Radiación solar	0
137137	7	Sololá	701	Sololá	2	El tablón	2	Febrero	2023-02-15T00:00:00	2024-11-06T07:00:00	2	Temperatura media	9
137138	7	Sololá	701	Sololá	2	El tablón	2	Febrero	2023-02-15T00:00:00	2024-11-06T07:00:00	4	Temperatura máxima	9
137139	7	Sololá	701	Sololá	2	El tablón	2	Febrero	2023-02-15T00:00:00	2024-11-06T07:00:00	3	Temperatura mínima	7.9
137140	7	Sololá	701	Sololá	2	El tablón	2	Febrero	2023-02-15T00:00:00	2024-11-06T07:00:00	5	Humedad	75
137141	7	Sololá	701	Sololá	2	El tablón	2	Febrero	2023-02-15T00:00:00	2024-11-06T07:00:00	6	Velocidad del viento	3.2
137142	7	Sololá	701	Sololá	2	El tablón	2	Febrero	2023-02-15T00:00:00	2024-11-06T07:00:00	7	Dirección del viento	3.22
137143	7	Sololá	701	Sololá	2	El tablón	2	Febrero	2023-02-15T00:00:00	2024-11-06T07:00:00	1	Precipitación	0
137144	7	Sololá	701	Sololá	2	El tablón	2	Febrero	2023-02-15T00:00:00	2024-11-06T07:00:00	8	Radiación solar	9
137145	7	Sololá	701	Sololá	2	El tablón	2	Febrero	2023-02-15T00:00:00	2024-11-06T08:00:00	2	Temperatura media	13.7
137146	7	Sololá	701	Sololá	2	El tablón	2	Febrero	2023-02-15T00:00:00	2024-11-06T08:00:00	4	Temperatura máxima	13.7
137147	7	Sololá	701	Sololá	2	El tablón	2	Febrero	2023-02-15T00:00:00	2024-11-06T08:00:00	3	Temperatura mínima	9
137148	7	Sololá	701	Sololá	2	El tablón	2	Febrero	2023-02-15T00:00:00	2024-11-06T08:00:00	5	Humedad	76
137149	7	Sololá	701	Sololá	2	El tablón	2	Febrero	2023-02-15T00:00:00	2024-11-06T08:00:00	6	Velocidad del viento	1.6
137150	7	Sololá	701	Sololá	2	El tablón	2	Febrero	2023-02-15T00:00:00	2024-11-06T08:00:00	7	Dirección del viento	1.61
137151	7	Sololá	701	Sololá	2	El tablón	2	Febrero	2023-02-15T00:00:00	2024-11-06T08:00:00	1	Precipitación	0
137152	7	Sololá	701	Sololá	2	El tablón	2	Febrero	2023-02-15T00:00:00	2024-11-06T08:00:00	8	Radiación solar	158
137153	7	Sololá	701	Sololá	2	El tablón	2	Febrero	2023-02-15T00:00:00	2024-11-06T09:00:00	2	Temperatura media	16.7
137154	7	Sololá	701	Sololá	2	El tablón	2	Febrero	2023-02-15T00:00:00	2024-11-06T09:00:00	4	Temperatura máxima	16.8
137155	7	Sololá	701	Sololá	2	El tablón	2	Febrero	2023-02-15T00:00:00	2024-11-06T09:00:00	3	Temperatura mínima	13.7
137156	7	Sololá	701	Sololá	2	El tablón	2	Febrero	2023-02-15T00:00:00	2024-11-06T09:00:00	5	Humedad	58
137157	7	Sololá	701	Sololá	2	El tablón	2	Febrero	2023-02-15T00:00:00	2024-11-06T09:00:00	6	Velocidad del viento	1.6
137158	7	Sololá	701	Sololá	2	El tablón	2	Febrero	2023-02-15T00:00:00	2024-11-06T09:00:00	7	Dirección del viento	1.61
137159	7	Sololá	701	Sololá	2	El tablón	2	Febrero	2023-02-15T00:00:00	2024-11-06T09:00:00	1	Precipitación	0
137160	7	Sololá	701	Sololá	2	El tablón	2	Febrero	2023-02-15T00:00:00	2024-11-06T09:00:00	8	Radiación solar	396
137161	7	Sololá	701	Sololá	2	El tablón	2	Febrero	2023-02-15T00:00:00	2024-11-06T10:00:00	2	Temperatura media	17.1
137162	7	Sololá	701	Sololá	2	El tablón	2	Febrero	2023-02-15T00:00:00	2024-11-06T10:00:00	4	Temperatura máxima	17.1
137163	7	Sololá	701	Sololá	2	El tablón	2	Febrero	2023-02-15T00:00:00	2024-11-06T10:00:00	3	Temperatura mínima	16.4
137164	7	Sololá	701	Sololá	2	El tablón	2	Febrero	2023-02-15T00:00:00	2024-11-06T10:00:00	5	Humedad	69
137165	7	Sololá	701	Sololá	2	El tablón	2	Febrero	2023-02-15T00:00:00	2024-11-06T10:00:00	6	Velocidad del viento	4.8
137166	7	Sololá	701	Sololá	2	El tablón	2	Febrero	2023-02-15T00:00:00	2024-11-06T10:00:00	7	Dirección del viento	4.83
137167	7	Sololá	701	Sololá	2	El tablón	2	Febrero	2023-02-15T00:00:00	2024-11-06T10:00:00	1	Precipitación	0
137168	7	Sololá	701	Sololá	2	El tablón	2	Febrero	2023-02-15T00:00:00	2024-11-06T10:00:00	8	Radiación solar	606
137169	7	Sololá	701	Sololá	2	El tablón	2	Febrero	2023-02-15T00:00:00	2024-11-06T11:00:00	2	Temperatura media	17.7
137170	7	Sololá	701	Sololá	2	El tablón	2	Febrero	2023-02-15T00:00:00	2024-11-06T11:00:00	4	Temperatura máxima	18.2
137171	7	Sololá	701	Sololá	2	El tablón	2	Febrero	2023-02-15T00:00:00	2024-11-06T11:00:00	3	Temperatura mínima	17.1
137172	7	Sololá	701	Sololá	2	El tablón	2	Febrero	2023-02-15T00:00:00	2024-11-06T11:00:00	5	Humedad	65
137173	7	Sololá	701	Sololá	2	El tablón	2	Febrero	2023-02-15T00:00:00	2024-11-06T11:00:00	6	Velocidad del viento	6.4
137174	7	Sololá	701	Sololá	2	El tablón	2	Febrero	2023-02-15T00:00:00	2024-11-06T11:00:00	7	Dirección del viento	6.44
137175	7	Sololá	701	Sololá	2	El tablón	2	Febrero	2023-02-15T00:00:00	2024-11-06T11:00:00	1	Precipitación	0
137176	7	Sololá	701	Sololá	2	El tablón	2	Febrero	2023-02-15T00:00:00	2024-11-06T11:00:00	8	Radiación solar	767
137177	7	Sololá	701	Sololá	2	El tablón	2	Febrero	2023-02-15T00:00:00	2024-11-06T12:00:00	2	Temperatura media	18.5
137178	7	Sololá	701	Sololá	2	El tablón	2	Febrero	2023-02-15T00:00:00	2024-11-06T12:00:00	4	Temperatura máxima	18.5
137179	7	Sololá	701	Sololá	2	El tablón	2	Febrero	2023-02-15T00:00:00	2024-11-06T12:00:00	3	Temperatura mínima	17.7
137180	7	Sololá	701	Sololá	2	El tablón	2	Febrero	2023-02-15T00:00:00	2024-11-06T12:00:00	5	Humedad	67
137181	7	Sololá	701	Sololá	2	El tablón	2	Febrero	2023-02-15T00:00:00	2024-11-06T12:00:00	6	Velocidad del viento	8
137182	7	Sololá	701	Sololá	2	El tablón	2	Febrero	2023-02-15T00:00:00	2024-11-06T12:00:00	7	Dirección del viento	8.05
137183	7	Sololá	701	Sololá	2	El tablón	2	Febrero	2023-02-15T00:00:00	2024-11-06T12:00:00	1	Precipitación	0
137184	7	Sololá	701	Sololá	2	El tablón	2	Febrero	2023-02-15T00:00:00	2024-11-06T12:00:00	8	Radiación solar	792
137185	7	Sololá	701	Sololá	2	El tablón	2	Febrero	2023-02-15T00:00:00	2024-11-06T13:00:00	2	Temperatura media	17.4
137186	7	Sololá	701	Sololá	2	El tablón	2	Febrero	2023-02-15T00:00:00	2024-11-06T13:00:00	4	Temperatura máxima	18.6
137187	7	Sololá	701	Sololá	2	El tablón	2	Febrero	2023-02-15T00:00:00	2024-11-06T13:00:00	3	Temperatura mínima	17.2
137188	7	Sololá	701	Sololá	2	El tablón	2	Febrero	2023-02-15T00:00:00	2024-11-06T13:00:00	5	Humedad	75
137189	7	Sololá	701	Sololá	2	El tablón	2	Febrero	2023-02-15T00:00:00	2024-11-06T13:00:00	6	Velocidad del viento	8
137190	7	Sololá	701	Sololá	2	El tablón	2	Febrero	2023-02-15T00:00:00	2024-11-06T13:00:00	7	Dirección del viento	8.05
137191	7	Sololá	701	Sololá	2	El tablón	2	Febrero	2023-02-15T00:00:00	2024-11-06T13:00:00	1	Precipitación	0
137192	7	Sololá	701	Sololá	2	El tablón	2	Febrero	2023-02-15T00:00:00	2024-11-06T13:00:00	8	Radiación solar	875
137193	7	Sololá	701	Sololá	2	El tablón	2	Febrero	2023-02-15T00:00:00	2024-11-06T14:00:00	2	Temperatura media	16.5
137194	7	Sololá	701	Sololá	2	El tablón	2	Febrero	2023-02-15T00:00:00	2024-11-06T14:00:00	4	Temperatura máxima	17.6
137195	7	Sololá	701	Sololá	2	El tablón	2	Febrero	2023-02-15T00:00:00	2024-11-06T14:00:00	3	Temperatura mínima	16.5
137196	7	Sololá	701	Sololá	2	El tablón	2	Febrero	2023-02-15T00:00:00	2024-11-06T14:00:00	5	Humedad	82
137197	7	Sololá	701	Sololá	2	El tablón	2	Febrero	2023-02-15T00:00:00	2024-11-06T14:00:00	6	Velocidad del viento	8
137198	7	Sololá	701	Sololá	2	El tablón	2	Febrero	2023-02-15T00:00:00	2024-11-06T14:00:00	7	Dirección del viento	8.05
137199	7	Sololá	701	Sololá	2	El tablón	2	Febrero	2023-02-15T00:00:00	2024-11-06T14:00:00	1	Precipitación	0
137200	7	Sololá	701	Sololá	2	El tablón	2	Febrero	2023-02-15T00:00:00	2024-11-06T14:00:00	8	Radiación solar	863
137201	7	Sololá	701	Sololá	2	El tablón	2	Febrero	2023-02-15T00:00:00	2024-11-06T15:00:00	2	Temperatura media	15.8
137202	7	Sololá	701	Sololá	2	El tablón	2	Febrero	2023-02-15T00:00:00	2024-11-06T15:00:00	4	Temperatura máxima	16.6
137203	7	Sololá	701	Sololá	2	El tablón	2	Febrero	2023-02-15T00:00:00	2024-11-06T15:00:00	3	Temperatura mínima	15.8
137204	7	Sololá	701	Sololá	2	El tablón	2	Febrero	2023-02-15T00:00:00	2024-11-06T15:00:00	5	Humedad	85
137205	7	Sololá	701	Sololá	2	El tablón	2	Febrero	2023-02-15T00:00:00	2024-11-06T15:00:00	6	Velocidad del viento	6.4
137206	7	Sololá	701	Sololá	2	El tablón	2	Febrero	2023-02-15T00:00:00	2024-11-06T15:00:00	7	Dirección del viento	6.44
137207	7	Sololá	701	Sololá	2	El tablón	2	Febrero	2023-02-15T00:00:00	2024-11-06T15:00:00	1	Precipitación	0
137208	7	Sololá	701	Sololá	2	El tablón	2	Febrero	2023-02-15T00:00:00	2024-11-06T15:00:00	8	Radiación solar	437
137209	7	Sololá	701	Sololá	2	El tablón	2	Febrero	2023-02-15T00:00:00	2024-11-06T16:00:00	2	Temperatura media	16.7
137210	7	Sololá	701	Sololá	2	El tablón	2	Febrero	2023-02-15T00:00:00	2024-11-06T16:00:00	4	Temperatura máxima	16.7
137211	7	Sololá	701	Sololá	2	El tablón	2	Febrero	2023-02-15T00:00:00	2024-11-06T16:00:00	3	Temperatura mínima	15.3
137212	7	Sololá	701	Sololá	2	El tablón	2	Febrero	2023-02-15T00:00:00	2024-11-06T16:00:00	5	Humedad	83
137213	7	Sololá	701	Sololá	2	El tablón	2	Febrero	2023-02-15T00:00:00	2024-11-06T16:00:00	6	Velocidad del viento	4.8
137214	7	Sololá	701	Sololá	2	El tablón	2	Febrero	2023-02-15T00:00:00	2024-11-06T16:00:00	7	Dirección del viento	4.83
137215	7	Sololá	701	Sololá	2	El tablón	2	Febrero	2023-02-15T00:00:00	2024-11-06T16:00:00	1	Precipitación	0
137216	7	Sololá	701	Sololá	2	El tablón	2	Febrero	2023-02-15T00:00:00	2024-11-06T16:00:00	8	Radiación solar	324
137217	7	Sololá	701	Sololá	2	El tablón	2	Febrero	2023-02-15T00:00:00	2024-11-06T17:00:00	2	Temperatura media	15.8
137218	7	Sololá	701	Sololá	2	El tablón	2	Febrero	2023-02-15T00:00:00	2024-11-06T17:00:00	4	Temperatura máxima	17
137219	7	Sololá	701	Sololá	2	El tablón	2	Febrero	2023-02-15T00:00:00	2024-11-06T17:00:00	3	Temperatura mínima	15.8
137220	7	Sololá	701	Sololá	2	El tablón	2	Febrero	2023-02-15T00:00:00	2024-11-06T17:00:00	5	Humedad	85
137221	7	Sololá	701	Sololá	2	El tablón	2	Febrero	2023-02-15T00:00:00	2024-11-06T17:00:00	6	Velocidad del viento	4.8
137222	7	Sololá	701	Sololá	2	El tablón	2	Febrero	2023-02-15T00:00:00	2024-11-06T17:00:00	7	Dirección del viento	4.83
137223	7	Sololá	701	Sololá	2	El tablón	2	Febrero	2023-02-15T00:00:00	2024-11-06T17:00:00	1	Precipitación	0
137224	7	Sololá	701	Sololá	2	El tablón	2	Febrero	2023-02-15T00:00:00	2024-11-06T17:00:00	8	Radiación solar	339
137225	7	Sololá	701	Sololá	2	El tablón	2	Febrero	2023-02-15T00:00:00	2024-11-06T18:00:00	2	Temperatura media	14.8
137226	7	Sololá	701	Sololá	2	El tablón	2	Febrero	2023-02-15T00:00:00	2024-11-06T18:00:00	4	Temperatura máxima	15.8
137227	7	Sololá	701	Sololá	2	El tablón	2	Febrero	2023-02-15T00:00:00	2024-11-06T18:00:00	3	Temperatura mínima	14.8
137228	7	Sololá	701	Sololá	2	El tablón	2	Febrero	2023-02-15T00:00:00	2024-11-06T18:00:00	5	Humedad	88
137229	7	Sololá	701	Sololá	2	El tablón	2	Febrero	2023-02-15T00:00:00	2024-11-06T18:00:00	6	Velocidad del viento	1.6
137230	7	Sololá	701	Sololá	2	El tablón	2	Febrero	2023-02-15T00:00:00	2024-11-06T18:00:00	7	Dirección del viento	1.61
137231	7	Sololá	701	Sololá	2	El tablón	2	Febrero	2023-02-15T00:00:00	2024-11-06T18:00:00	1	Precipitación	0
137232	7	Sololá	701	Sololá	2	El tablón	2	Febrero	2023-02-15T00:00:00	2024-11-06T18:00:00	8	Radiación solar	68
137233	7	Sololá	701	Sololá	2	El tablón	2	Febrero	2023-02-15T00:00:00	2024-11-06T19:00:00	2	Temperatura media	14.1
137234	7	Sololá	701	Sololá	2	El tablón	2	Febrero	2023-02-15T00:00:00	2024-11-06T19:00:00	4	Temperatura máxima	14.8
137235	7	Sololá	701	Sololá	2	El tablón	2	Febrero	2023-02-15T00:00:00	2024-11-06T19:00:00	3	Temperatura mínima	14.1
137236	7	Sololá	701	Sololá	2	El tablón	2	Febrero	2023-02-15T00:00:00	2024-11-06T19:00:00	5	Humedad	89
137237	7	Sololá	701	Sololá	2	El tablón	2	Febrero	2023-02-15T00:00:00	2024-11-06T19:00:00	6	Velocidad del viento	0
137238	7	Sololá	701	Sololá	2	El tablón	2	Febrero	2023-02-15T00:00:00	2024-11-06T19:00:00	7	Dirección del viento	0
137239	7	Sololá	701	Sololá	2	El tablón	2	Febrero	2023-02-15T00:00:00	2024-11-06T19:00:00	1	Precipitación	0
137240	7	Sololá	701	Sololá	2	El tablón	2	Febrero	2023-02-15T00:00:00	2024-11-06T19:00:00	8	Radiación solar	0
137241	7	Sololá	701	Sololá	2	El tablón	2	Febrero	2023-02-15T00:00:00	2024-11-06T20:00:00	2	Temperatura media	13.3
137242	7	Sololá	701	Sololá	2	El tablón	2	Febrero	2023-02-15T00:00:00	2024-11-06T20:00:00	4	Temperatura máxima	14.1
137243	7	Sololá	701	Sololá	2	El tablón	2	Febrero	2023-02-15T00:00:00	2024-11-06T20:00:00	3	Temperatura mínima	13.3
137244	7	Sololá	701	Sololá	2	El tablón	2	Febrero	2023-02-15T00:00:00	2024-11-06T20:00:00	5	Humedad	89
137245	7	Sololá	701	Sololá	2	El tablón	2	Febrero	2023-02-15T00:00:00	2024-11-06T20:00:00	6	Velocidad del viento	0
137246	7	Sololá	701	Sololá	2	El tablón	2	Febrero	2023-02-15T00:00:00	2024-11-06T20:00:00	7	Dirección del viento	0
137247	7	Sololá	701	Sololá	2	El tablón	2	Febrero	2023-02-15T00:00:00	2024-11-06T20:00:00	1	Precipitación	0
137248	7	Sololá	701	Sololá	2	El tablón	2	Febrero	2023-02-15T00:00:00	2024-11-06T20:00:00	8	Radiación solar	0
137249	7	Sololá	701	Sololá	2	El tablón	2	Febrero	2023-02-15T00:00:00	2024-11-06T21:00:00	2	Temperatura media	11.7
137250	7	Sololá	701	Sololá	2	El tablón	2	Febrero	2023-02-15T00:00:00	2024-11-06T21:00:00	4	Temperatura máxima	13.3
137251	7	Sololá	701	Sololá	2	El tablón	2	Febrero	2023-02-15T00:00:00	2024-11-06T21:00:00	3	Temperatura mínima	11.5
137252	7	Sololá	701	Sololá	2	El tablón	2	Febrero	2023-02-15T00:00:00	2024-11-06T21:00:00	5	Humedad	89
137253	7	Sololá	701	Sololá	2	El tablón	2	Febrero	2023-02-15T00:00:00	2024-11-06T21:00:00	6	Velocidad del viento	3.2
137254	7	Sololá	701	Sololá	2	El tablón	2	Febrero	2023-02-15T00:00:00	2024-11-06T21:00:00	7	Dirección del viento	3.22
137255	7	Sololá	701	Sololá	2	El tablón	2	Febrero	2023-02-15T00:00:00	2024-11-06T21:00:00	1	Precipitación	0
137256	7	Sololá	701	Sololá	2	El tablón	2	Febrero	2023-02-15T00:00:00	2024-11-06T21:00:00	8	Radiación solar	0
137257	7	Sololá	701	Sololá	2	El tablón	2	Febrero	2023-02-15T00:00:00	2024-11-06T22:00:00	2	Temperatura media	12.2
137258	7	Sololá	701	Sololá	2	El tablón	2	Febrero	2023-02-15T00:00:00	2024-11-06T22:00:00	4	Temperatura máxima	13.2
137259	7	Sololá	701	Sololá	2	El tablón	2	Febrero	2023-02-15T00:00:00	2024-11-06T22:00:00	3	Temperatura mínima	11.5
137260	7	Sololá	701	Sololá	2	El tablón	2	Febrero	2023-02-15T00:00:00	2024-11-06T22:00:00	5	Humedad	87
137261	7	Sololá	701	Sololá	2	El tablón	2	Febrero	2023-02-15T00:00:00	2024-11-06T22:00:00	6	Velocidad del viento	4.8
137262	7	Sololá	701	Sololá	2	El tablón	2	Febrero	2023-02-15T00:00:00	2024-11-06T22:00:00	7	Dirección del viento	4.83
137263	7	Sololá	701	Sololá	2	El tablón	2	Febrero	2023-02-15T00:00:00	2024-11-06T22:00:00	1	Precipitación	0
137264	7	Sololá	701	Sololá	2	El tablón	2	Febrero	2023-02-15T00:00:00	2024-11-06T22:00:00	8	Radiación solar	0
137265	7	Sololá	701	Sololá	2	El tablón	2	Febrero	2023-02-15T00:00:00	2024-11-06T23:00:00	2	Temperatura media	11.3
137266	7	Sololá	701	Sololá	2	El tablón	2	Febrero	2023-02-15T00:00:00	2024-11-06T23:00:00	4	Temperatura máxima	12.2
137267	7	Sololá	701	Sololá	2	El tablón	2	Febrero	2023-02-15T00:00:00	2024-11-06T23:00:00	3	Temperatura mínima	11.2
137268	7	Sololá	701	Sololá	2	El tablón	2	Febrero	2023-02-15T00:00:00	2024-11-06T23:00:00	5	Humedad	84
137269	7	Sololá	701	Sololá	2	El tablón	2	Febrero	2023-02-15T00:00:00	2024-11-06T23:00:00	6	Velocidad del viento	4.8
137270	7	Sololá	701	Sololá	2	El tablón	2	Febrero	2023-02-15T00:00:00	2024-11-06T23:00:00	7	Dirección del viento	4.83
137271	7	Sololá	701	Sololá	2	El tablón	2	Febrero	2023-02-15T00:00:00	2024-11-06T23:00:00	1	Precipitación	0
137272	7	Sololá	701	Sololá	2	El tablón	2	Febrero	2023-02-15T00:00:00	2024-11-06T23:00:00	8	Radiación solar	0
137273	7	Sololá	701	Sololá	2	El tablón	2	Febrero	2023-02-16T00:00:00	2024-11-06T00:00:00	2	Temperatura media	11.2
137274	7	Sololá	701	Sololá	2	El tablón	2	Febrero	2023-02-16T00:00:00	2024-11-06T00:00:00	4	Temperatura máxima	11.3
137275	7	Sololá	701	Sololá	2	El tablón	2	Febrero	2023-02-16T00:00:00	2024-11-06T00:00:00	3	Temperatura mínima	10.6
137276	7	Sololá	701	Sololá	2	El tablón	2	Febrero	2023-02-16T00:00:00	2024-11-06T00:00:00	5	Humedad	66
137277	7	Sololá	701	Sololá	2	El tablón	2	Febrero	2023-02-16T00:00:00	2024-11-06T00:00:00	6	Velocidad del viento	4.8
137278	7	Sololá	701	Sololá	2	El tablón	2	Febrero	2023-02-16T00:00:00	2024-11-06T00:00:00	7	Dirección del viento	4.83
137279	7	Sololá	701	Sololá	2	El tablón	2	Febrero	2023-02-16T00:00:00	2024-11-06T00:00:00	1	Precipitación	0
137280	7	Sololá	701	Sololá	2	El tablón	2	Febrero	2023-02-16T00:00:00	2024-11-06T00:00:00	8	Radiación solar	0
137281	7	Sololá	701	Sololá	2	El tablón	2	Febrero	2023-02-16T00:00:00	2024-11-06T01:00:00	2	Temperatura media	10.1
137282	7	Sololá	701	Sololá	2	El tablón	2	Febrero	2023-02-16T00:00:00	2024-11-06T01:00:00	4	Temperatura máxima	11.4
137283	7	Sololá	701	Sololá	2	El tablón	2	Febrero	2023-02-16T00:00:00	2024-11-06T01:00:00	3	Temperatura mínima	10.1
137284	7	Sololá	701	Sololá	2	El tablón	2	Febrero	2023-02-16T00:00:00	2024-11-06T01:00:00	5	Humedad	47
137285	7	Sololá	701	Sololá	2	El tablón	2	Febrero	2023-02-16T00:00:00	2024-11-06T01:00:00	6	Velocidad del viento	3.2
137286	7	Sololá	701	Sololá	2	El tablón	2	Febrero	2023-02-16T00:00:00	2024-11-06T01:00:00	7	Dirección del viento	3.22
137287	7	Sololá	701	Sololá	2	El tablón	2	Febrero	2023-02-16T00:00:00	2024-11-06T01:00:00	1	Precipitación	0
137288	7	Sololá	701	Sololá	2	El tablón	2	Febrero	2023-02-16T00:00:00	2024-11-06T01:00:00	8	Radiación solar	0
137289	7	Sololá	701	Sololá	2	El tablón	2	Febrero	2023-02-16T00:00:00	2024-11-06T02:00:00	2	Temperatura media	9.7
137290	7	Sololá	701	Sololá	2	El tablón	2	Febrero	2023-02-16T00:00:00	2024-11-06T02:00:00	4	Temperatura máxima	10.9
137291	7	Sololá	701	Sololá	2	El tablón	2	Febrero	2023-02-16T00:00:00	2024-11-06T02:00:00	3	Temperatura mínima	9.7
137292	7	Sololá	701	Sololá	2	El tablón	2	Febrero	2023-02-16T00:00:00	2024-11-06T02:00:00	5	Humedad	57
137293	7	Sololá	701	Sololá	2	El tablón	2	Febrero	2023-02-16T00:00:00	2024-11-06T02:00:00	6	Velocidad del viento	1.6
137294	7	Sololá	701	Sololá	2	El tablón	2	Febrero	2023-02-16T00:00:00	2024-11-06T02:00:00	7	Dirección del viento	1.61
137295	7	Sololá	701	Sololá	2	El tablón	2	Febrero	2023-02-16T00:00:00	2024-11-06T02:00:00	1	Precipitación	0
137296	7	Sololá	701	Sololá	2	El tablón	2	Febrero	2023-02-16T00:00:00	2024-11-06T02:00:00	8	Radiación solar	0
137297	7	Sololá	701	Sololá	2	El tablón	2	Febrero	2023-02-16T00:00:00	2024-11-06T03:00:00	2	Temperatura media	10.2
137298	7	Sololá	701	Sololá	2	El tablón	2	Febrero	2023-02-16T00:00:00	2024-11-06T03:00:00	4	Temperatura máxima	10.2
137299	7	Sololá	701	Sololá	2	El tablón	2	Febrero	2023-02-16T00:00:00	2024-11-06T03:00:00	3	Temperatura mínima	9.1
137300	7	Sololá	701	Sololá	2	El tablón	2	Febrero	2023-02-16T00:00:00	2024-11-06T03:00:00	5	Humedad	40
137301	7	Sololá	701	Sololá	2	El tablón	2	Febrero	2023-02-16T00:00:00	2024-11-06T03:00:00	6	Velocidad del viento	3.2
137302	7	Sololá	701	Sololá	2	El tablón	2	Febrero	2023-02-16T00:00:00	2024-11-06T03:00:00	7	Dirección del viento	3.22
137303	7	Sololá	701	Sololá	2	El tablón	2	Febrero	2023-02-16T00:00:00	2024-11-06T03:00:00	1	Precipitación	0
137304	7	Sololá	701	Sololá	2	El tablón	2	Febrero	2023-02-16T00:00:00	2024-11-06T03:00:00	8	Radiación solar	0
137305	7	Sololá	701	Sololá	2	El tablón	2	Febrero	2023-02-16T00:00:00	2024-11-06T04:00:00	2	Temperatura media	8.8
137306	7	Sololá	701	Sololá	2	El tablón	2	Febrero	2023-02-16T00:00:00	2024-11-06T04:00:00	4	Temperatura máxima	10.4
137307	7	Sololá	701	Sololá	2	El tablón	2	Febrero	2023-02-16T00:00:00	2024-11-06T04:00:00	3	Temperatura mínima	8.8
137308	7	Sololá	701	Sololá	2	El tablón	2	Febrero	2023-02-16T00:00:00	2024-11-06T04:00:00	5	Humedad	66
137309	7	Sololá	701	Sololá	2	El tablón	2	Febrero	2023-02-16T00:00:00	2024-11-06T04:00:00	6	Velocidad del viento	1.6
137310	7	Sololá	701	Sololá	2	El tablón	2	Febrero	2023-02-16T00:00:00	2024-11-06T04:00:00	7	Dirección del viento	1.61
137311	7	Sololá	701	Sololá	2	El tablón	2	Febrero	2023-02-16T00:00:00	2024-11-06T04:00:00	1	Precipitación	0
137312	7	Sololá	701	Sololá	2	El tablón	2	Febrero	2023-02-16T00:00:00	2024-11-06T04:00:00	8	Radiación solar	0
137313	7	Sololá	701	Sololá	2	El tablón	2	Febrero	2023-02-16T00:00:00	2024-11-06T05:00:00	2	Temperatura media	9.3
137314	7	Sololá	701	Sololá	2	El tablón	2	Febrero	2023-02-16T00:00:00	2024-11-06T05:00:00	4	Temperatura máxima	9.7
137315	7	Sololá	701	Sololá	2	El tablón	2	Febrero	2023-02-16T00:00:00	2024-11-06T05:00:00	3	Temperatura mínima	8.8
137316	7	Sololá	701	Sololá	2	El tablón	2	Febrero	2023-02-16T00:00:00	2024-11-06T05:00:00	5	Humedad	63
137317	7	Sololá	701	Sololá	2	El tablón	2	Febrero	2023-02-16T00:00:00	2024-11-06T05:00:00	6	Velocidad del viento	0
137318	7	Sololá	701	Sololá	2	El tablón	2	Febrero	2023-02-16T00:00:00	2024-11-06T05:00:00	7	Dirección del viento	0
137319	7	Sololá	701	Sololá	2	El tablón	2	Febrero	2023-02-16T00:00:00	2024-11-06T05:00:00	1	Precipitación	0
137320	7	Sololá	701	Sololá	2	El tablón	2	Febrero	2023-02-16T00:00:00	2024-11-06T05:00:00	8	Radiación solar	0
137321	7	Sololá	701	Sololá	2	El tablón	2	Febrero	2023-02-16T00:00:00	2024-11-06T06:00:00	2	Temperatura media	8.1
137322	7	Sololá	701	Sololá	2	El tablón	2	Febrero	2023-02-16T00:00:00	2024-11-06T06:00:00	4	Temperatura máxima	9.3
137323	7	Sololá	701	Sololá	2	El tablón	2	Febrero	2023-02-16T00:00:00	2024-11-06T06:00:00	3	Temperatura mínima	8.1
137324	7	Sololá	701	Sololá	2	El tablón	2	Febrero	2023-02-16T00:00:00	2024-11-06T06:00:00	5	Humedad	36
137325	7	Sololá	701	Sololá	2	El tablón	2	Febrero	2023-02-16T00:00:00	2024-11-06T06:00:00	6	Velocidad del viento	1.6
137326	7	Sololá	701	Sololá	2	El tablón	2	Febrero	2023-02-16T00:00:00	2024-11-06T06:00:00	7	Dirección del viento	1.61
137327	7	Sololá	701	Sololá	2	El tablón	2	Febrero	2023-02-16T00:00:00	2024-11-06T06:00:00	1	Precipitación	0
137328	7	Sololá	701	Sololá	2	El tablón	2	Febrero	2023-02-16T00:00:00	2024-11-06T06:00:00	8	Radiación solar	0
137329	7	Sololá	701	Sololá	2	El tablón	2	Febrero	2023-02-16T00:00:00	2024-11-06T07:00:00	2	Temperatura media	11.4
137330	7	Sololá	701	Sololá	2	El tablón	2	Febrero	2023-02-16T00:00:00	2024-11-06T07:00:00	4	Temperatura máxima	11.4
137331	7	Sololá	701	Sololá	2	El tablón	2	Febrero	2023-02-16T00:00:00	2024-11-06T07:00:00	3	Temperatura mínima	8.1
137332	7	Sololá	701	Sololá	2	El tablón	2	Febrero	2023-02-16T00:00:00	2024-11-06T07:00:00	5	Humedad	24
137333	7	Sololá	701	Sololá	2	El tablón	2	Febrero	2023-02-16T00:00:00	2024-11-06T07:00:00	6	Velocidad del viento	6.4
137334	7	Sololá	701	Sololá	2	El tablón	2	Febrero	2023-02-16T00:00:00	2024-11-06T07:00:00	7	Dirección del viento	6.44
137335	7	Sololá	701	Sololá	2	El tablón	2	Febrero	2023-02-16T00:00:00	2024-11-06T07:00:00	1	Precipitación	0
137336	7	Sololá	701	Sololá	2	El tablón	2	Febrero	2023-02-16T00:00:00	2024-11-06T07:00:00	8	Radiación solar	7
137337	7	Sololá	701	Sololá	2	El tablón	2	Febrero	2023-02-16T00:00:00	2024-11-06T08:00:00	2	Temperatura media	14.3
137338	7	Sololá	701	Sololá	2	El tablón	2	Febrero	2023-02-16T00:00:00	2024-11-06T08:00:00	4	Temperatura máxima	14.3
137339	7	Sololá	701	Sololá	2	El tablón	2	Febrero	2023-02-16T00:00:00	2024-11-06T08:00:00	3	Temperatura mínima	11.4
137340	7	Sololá	701	Sololá	2	El tablón	2	Febrero	2023-02-16T00:00:00	2024-11-06T08:00:00	5	Humedad	31
137341	7	Sololá	701	Sololá	2	El tablón	2	Febrero	2023-02-16T00:00:00	2024-11-06T08:00:00	6	Velocidad del viento	4.8
137342	7	Sololá	701	Sololá	2	El tablón	2	Febrero	2023-02-16T00:00:00	2024-11-06T08:00:00	7	Dirección del viento	4.83
137343	7	Sololá	701	Sololá	2	El tablón	2	Febrero	2023-02-16T00:00:00	2024-11-06T08:00:00	1	Precipitación	0
137344	7	Sololá	701	Sololá	2	El tablón	2	Febrero	2023-02-16T00:00:00	2024-11-06T08:00:00	8	Radiación solar	165
137345	7	Sololá	701	Sololá	2	El tablón	2	Febrero	2023-02-16T00:00:00	2024-11-06T09:00:00	2	Temperatura media	14.8
137346	7	Sololá	701	Sololá	2	El tablón	2	Febrero	2023-02-16T00:00:00	2024-11-06T09:00:00	4	Temperatura máxima	16.1
137347	7	Sololá	701	Sololá	2	El tablón	2	Febrero	2023-02-16T00:00:00	2024-11-06T09:00:00	3	Temperatura mínima	14.4
137348	7	Sololá	701	Sololá	2	El tablón	2	Febrero	2023-02-16T00:00:00	2024-11-06T09:00:00	5	Humedad	72
137349	7	Sololá	701	Sololá	2	El tablón	2	Febrero	2023-02-16T00:00:00	2024-11-06T09:00:00	6	Velocidad del viento	3.2
137350	7	Sololá	701	Sololá	2	El tablón	2	Febrero	2023-02-16T00:00:00	2024-11-06T09:00:00	7	Dirección del viento	3.22
137351	7	Sololá	701	Sololá	2	El tablón	2	Febrero	2023-02-16T00:00:00	2024-11-06T09:00:00	1	Precipitación	0
137352	7	Sololá	701	Sololá	2	El tablón	2	Febrero	2023-02-16T00:00:00	2024-11-06T09:00:00	8	Radiación solar	405
137353	7	Sololá	701	Sololá	2	El tablón	2	Febrero	2023-02-16T00:00:00	2024-11-06T10:00:00	2	Temperatura media	18.4
137354	7	Sololá	701	Sololá	2	El tablón	2	Febrero	2023-02-16T00:00:00	2024-11-06T10:00:00	4	Temperatura máxima	18.4
137355	7	Sololá	701	Sololá	2	El tablón	2	Febrero	2023-02-16T00:00:00	2024-11-06T10:00:00	3	Temperatura mínima	14.8
137356	7	Sololá	701	Sololá	2	El tablón	2	Febrero	2023-02-16T00:00:00	2024-11-06T10:00:00	5	Humedad	63
137357	7	Sololá	701	Sololá	2	El tablón	2	Febrero	2023-02-16T00:00:00	2024-11-06T10:00:00	6	Velocidad del viento	3.2
137358	7	Sololá	701	Sololá	2	El tablón	2	Febrero	2023-02-16T00:00:00	2024-11-06T10:00:00	7	Dirección del viento	3.22
137359	7	Sololá	701	Sololá	2	El tablón	2	Febrero	2023-02-16T00:00:00	2024-11-06T10:00:00	1	Precipitación	0
137360	7	Sololá	701	Sololá	2	El tablón	2	Febrero	2023-02-16T00:00:00	2024-11-06T10:00:00	8	Radiación solar	610
137361	7	Sololá	701	Sololá	2	El tablón	2	Febrero	2023-02-16T00:00:00	2024-11-06T11:00:00	2	Temperatura media	19.8
137362	7	Sololá	701	Sololá	2	El tablón	2	Febrero	2023-02-16T00:00:00	2024-11-06T11:00:00	4	Temperatura máxima	19.8
137363	7	Sololá	701	Sololá	2	El tablón	2	Febrero	2023-02-16T00:00:00	2024-11-06T11:00:00	3	Temperatura mínima	18.4
137364	7	Sololá	701	Sololá	2	El tablón	2	Febrero	2023-02-16T00:00:00	2024-11-06T11:00:00	5	Humedad	56
137365	7	Sololá	701	Sololá	2	El tablón	2	Febrero	2023-02-16T00:00:00	2024-11-06T11:00:00	6	Velocidad del viento	4.8
137366	7	Sololá	701	Sololá	2	El tablón	2	Febrero	2023-02-16T00:00:00	2024-11-06T11:00:00	7	Dirección del viento	4.83
137367	7	Sololá	701	Sololá	2	El tablón	2	Febrero	2023-02-16T00:00:00	2024-11-06T11:00:00	1	Precipitación	0
137368	7	Sololá	701	Sololá	2	El tablón	2	Febrero	2023-02-16T00:00:00	2024-11-06T11:00:00	8	Radiación solar	769
137369	7	Sololá	701	Sololá	2	El tablón	2	Febrero	2023-02-16T00:00:00	2024-11-06T12:00:00	2	Temperatura media	18.6
137370	7	Sololá	701	Sololá	2	El tablón	2	Febrero	2023-02-16T00:00:00	2024-11-06T12:00:00	4	Temperatura máxima	19.9
137371	7	Sololá	701	Sololá	2	El tablón	2	Febrero	2023-02-16T00:00:00	2024-11-06T12:00:00	3	Temperatura mínima	18.6
137372	7	Sololá	701	Sololá	2	El tablón	2	Febrero	2023-02-16T00:00:00	2024-11-06T12:00:00	5	Humedad	62
137373	7	Sololá	701	Sololá	2	El tablón	2	Febrero	2023-02-16T00:00:00	2024-11-06T12:00:00	6	Velocidad del viento	8
137374	7	Sololá	701	Sololá	2	El tablón	2	Febrero	2023-02-16T00:00:00	2024-11-06T12:00:00	7	Dirección del viento	8.05
137375	7	Sololá	701	Sololá	2	El tablón	2	Febrero	2023-02-16T00:00:00	2024-11-06T12:00:00	1	Precipitación	0
137376	7	Sololá	701	Sololá	2	El tablón	2	Febrero	2023-02-16T00:00:00	2024-11-06T12:00:00	8	Radiación solar	789
137377	7	Sololá	701	Sololá	2	El tablón	2	Febrero	2023-02-16T00:00:00	2024-11-06T13:00:00	2	Temperatura media	18.6
137378	7	Sololá	701	Sololá	2	El tablón	2	Febrero	2023-02-16T00:00:00	2024-11-06T13:00:00	4	Temperatura máxima	18.9
137379	7	Sololá	701	Sololá	2	El tablón	2	Febrero	2023-02-16T00:00:00	2024-11-06T13:00:00	3	Temperatura mínima	18.3
137380	7	Sololá	701	Sololá	2	El tablón	2	Febrero	2023-02-16T00:00:00	2024-11-06T13:00:00	5	Humedad	70
137381	7	Sololá	701	Sololá	2	El tablón	2	Febrero	2023-02-16T00:00:00	2024-11-06T13:00:00	6	Velocidad del viento	8
137382	7	Sololá	701	Sololá	2	El tablón	2	Febrero	2023-02-16T00:00:00	2024-11-06T13:00:00	7	Dirección del viento	8.05
137383	7	Sololá	701	Sololá	2	El tablón	2	Febrero	2023-02-16T00:00:00	2024-11-06T13:00:00	1	Precipitación	0
137384	7	Sololá	701	Sololá	2	El tablón	2	Febrero	2023-02-16T00:00:00	2024-11-06T13:00:00	8	Radiación solar	859
137385	7	Sololá	701	Sololá	2	El tablón	2	Febrero	2023-02-16T00:00:00	2024-11-06T14:00:00	2	Temperatura media	17
137386	7	Sololá	701	Sololá	2	El tablón	2	Febrero	2023-02-16T00:00:00	2024-11-06T14:00:00	4	Temperatura máxima	18.6
137387	7	Sololá	701	Sololá	2	El tablón	2	Febrero	2023-02-16T00:00:00	2024-11-06T14:00:00	3	Temperatura mínima	16.6
137388	7	Sololá	701	Sololá	2	El tablón	2	Febrero	2023-02-16T00:00:00	2024-11-06T14:00:00	5	Humedad	80
137389	7	Sololá	701	Sololá	2	El tablón	2	Febrero	2023-02-16T00:00:00	2024-11-06T14:00:00	6	Velocidad del viento	8
137390	7	Sololá	701	Sololá	2	El tablón	2	Febrero	2023-02-16T00:00:00	2024-11-06T14:00:00	7	Dirección del viento	8.05
137391	7	Sololá	701	Sololá	2	El tablón	2	Febrero	2023-02-16T00:00:00	2024-11-06T14:00:00	1	Precipitación	0
137392	7	Sololá	701	Sololá	2	El tablón	2	Febrero	2023-02-16T00:00:00	2024-11-06T14:00:00	8	Radiación solar	839
137393	7	Sololá	701	Sololá	2	El tablón	2	Febrero	2023-02-16T00:00:00	2024-11-06T15:00:00	2	Temperatura media	17.7
137394	7	Sololá	701	Sololá	2	El tablón	2	Febrero	2023-02-16T00:00:00	2024-11-06T15:00:00	4	Temperatura máxima	17.7
137395	7	Sololá	701	Sololá	2	El tablón	2	Febrero	2023-02-16T00:00:00	2024-11-06T15:00:00	3	Temperatura mínima	16.8
137396	7	Sololá	701	Sololá	2	El tablón	2	Febrero	2023-02-16T00:00:00	2024-11-06T15:00:00	5	Humedad	76
137397	7	Sololá	701	Sololá	2	El tablón	2	Febrero	2023-02-16T00:00:00	2024-11-06T15:00:00	6	Velocidad del viento	6.4
137398	7	Sololá	701	Sololá	2	El tablón	2	Febrero	2023-02-16T00:00:00	2024-11-06T15:00:00	7	Dirección del viento	6.44
137399	7	Sololá	701	Sololá	2	El tablón	2	Febrero	2023-02-16T00:00:00	2024-11-06T15:00:00	1	Precipitación	0
137400	7	Sololá	701	Sololá	2	El tablón	2	Febrero	2023-02-16T00:00:00	2024-11-06T15:00:00	8	Radiación solar	722
137401	7	Sololá	701	Sololá	2	El tablón	2	Febrero	2023-02-16T00:00:00	2024-11-06T16:00:00	2	Temperatura media	15.8
137402	7	Sololá	701	Sololá	2	El tablón	2	Febrero	2023-02-16T00:00:00	2024-11-06T16:00:00	4	Temperatura máxima	18.1
137403	7	Sololá	701	Sololá	2	El tablón	2	Febrero	2023-02-16T00:00:00	2024-11-06T16:00:00	3	Temperatura mínima	15.8
137404	7	Sololá	701	Sololá	2	El tablón	2	Febrero	2023-02-16T00:00:00	2024-11-06T16:00:00	5	Humedad	84
137405	7	Sololá	701	Sololá	2	El tablón	2	Febrero	2023-02-16T00:00:00	2024-11-06T16:00:00	6	Velocidad del viento	6.4
137406	7	Sololá	701	Sololá	2	El tablón	2	Febrero	2023-02-16T00:00:00	2024-11-06T16:00:00	7	Dirección del viento	6.44
137407	7	Sololá	701	Sololá	2	El tablón	2	Febrero	2023-02-16T00:00:00	2024-11-06T16:00:00	1	Precipitación	0
137408	7	Sololá	701	Sololá	2	El tablón	2	Febrero	2023-02-16T00:00:00	2024-11-06T16:00:00	8	Radiación solar	543
137409	7	Sololá	701	Sololá	2	El tablón	2	Febrero	2023-02-16T00:00:00	2024-11-06T17:00:00	2	Temperatura media	14
137410	7	Sololá	701	Sololá	2	El tablón	2	Febrero	2023-02-16T00:00:00	2024-11-06T17:00:00	4	Temperatura máxima	15.8
137411	7	Sololá	701	Sololá	2	El tablón	2	Febrero	2023-02-16T00:00:00	2024-11-06T17:00:00	3	Temperatura mínima	14
137412	7	Sololá	701	Sololá	2	El tablón	2	Febrero	2023-02-16T00:00:00	2024-11-06T17:00:00	5	Humedad	88
137413	7	Sololá	701	Sololá	2	El tablón	2	Febrero	2023-02-16T00:00:00	2024-11-06T17:00:00	6	Velocidad del viento	4.8
137414	7	Sololá	701	Sololá	2	El tablón	2	Febrero	2023-02-16T00:00:00	2024-11-06T17:00:00	7	Dirección del viento	4.83
137415	7	Sololá	701	Sololá	2	El tablón	2	Febrero	2023-02-16T00:00:00	2024-11-06T17:00:00	1	Precipitación	0
137416	7	Sololá	701	Sololá	2	El tablón	2	Febrero	2023-02-16T00:00:00	2024-11-06T17:00:00	8	Radiación solar	122
137417	7	Sololá	701	Sololá	2	El tablón	2	Febrero	2023-02-16T00:00:00	2024-11-06T18:00:00	2	Temperatura media	13.9
137418	7	Sololá	701	Sololá	2	El tablón	2	Febrero	2023-02-16T00:00:00	2024-11-06T18:00:00	4	Temperatura máxima	14.2
137419	7	Sololá	701	Sololá	2	El tablón	2	Febrero	2023-02-16T00:00:00	2024-11-06T18:00:00	3	Temperatura mínima	13.9
137420	7	Sololá	701	Sololá	2	El tablón	2	Febrero	2023-02-16T00:00:00	2024-11-06T18:00:00	5	Humedad	88
137421	7	Sololá	701	Sololá	2	El tablón	2	Febrero	2023-02-16T00:00:00	2024-11-06T18:00:00	6	Velocidad del viento	0
137422	7	Sololá	701	Sololá	2	El tablón	2	Febrero	2023-02-16T00:00:00	2024-11-06T18:00:00	7	Dirección del viento	0
137423	7	Sololá	701	Sololá	2	El tablón	2	Febrero	2023-02-16T00:00:00	2024-11-06T18:00:00	1	Precipitación	0
137424	7	Sololá	701	Sololá	2	El tablón	2	Febrero	2023-02-16T00:00:00	2024-11-06T18:00:00	8	Radiación solar	43
137425	7	Sololá	701	Sololá	2	El tablón	2	Febrero	2023-02-16T00:00:00	2024-11-06T19:00:00	2	Temperatura media	12.3
137426	7	Sololá	701	Sololá	2	El tablón	2	Febrero	2023-02-16T00:00:00	2024-11-06T19:00:00	4	Temperatura máxima	13.9
137427	7	Sololá	701	Sololá	2	El tablón	2	Febrero	2023-02-16T00:00:00	2024-11-06T19:00:00	3	Temperatura mínima	12.3
137428	7	Sololá	701	Sololá	2	El tablón	2	Febrero	2023-02-16T00:00:00	2024-11-06T19:00:00	5	Humedad	90
137429	7	Sololá	701	Sololá	2	El tablón	2	Febrero	2023-02-16T00:00:00	2024-11-06T19:00:00	6	Velocidad del viento	0
137430	7	Sololá	701	Sololá	2	El tablón	2	Febrero	2023-02-16T00:00:00	2024-11-06T19:00:00	7	Dirección del viento	0
137431	7	Sololá	701	Sololá	2	El tablón	2	Febrero	2023-02-16T00:00:00	2024-11-06T19:00:00	1	Precipitación	0
137432	7	Sololá	701	Sololá	2	El tablón	2	Febrero	2023-02-16T00:00:00	2024-11-06T19:00:00	8	Radiación solar	0
137433	7	Sololá	701	Sololá	2	El tablón	2	Febrero	2023-02-16T00:00:00	2024-11-06T20:00:00	2	Temperatura media	14.3
137434	7	Sololá	701	Sololá	2	El tablón	2	Febrero	2023-02-16T00:00:00	2024-11-06T20:00:00	4	Temperatura máxima	14.7
137435	7	Sololá	701	Sololá	2	El tablón	2	Febrero	2023-02-16T00:00:00	2024-11-06T20:00:00	3	Temperatura mínima	11.7
137436	7	Sololá	701	Sololá	2	El tablón	2	Febrero	2023-02-16T00:00:00	2024-11-06T20:00:00	5	Humedad	62
137437	7	Sololá	701	Sololá	2	El tablón	2	Febrero	2023-02-16T00:00:00	2024-11-06T20:00:00	6	Velocidad del viento	3.2
137438	7	Sololá	701	Sololá	2	El tablón	2	Febrero	2023-02-16T00:00:00	2024-11-06T20:00:00	7	Dirección del viento	3.22
137439	7	Sololá	701	Sololá	2	El tablón	2	Febrero	2023-02-16T00:00:00	2024-11-06T20:00:00	1	Precipitación	0
137440	7	Sololá	701	Sololá	2	El tablón	2	Febrero	2023-02-16T00:00:00	2024-11-06T20:00:00	8	Radiación solar	0
137441	7	Sololá	701	Sololá	2	El tablón	2	Febrero	2023-02-16T00:00:00	2024-11-06T21:00:00	2	Temperatura media	14
137442	7	Sololá	701	Sololá	2	El tablón	2	Febrero	2023-02-16T00:00:00	2024-11-06T21:00:00	4	Temperatura máxima	14.3
137443	7	Sololá	701	Sololá	2	El tablón	2	Febrero	2023-02-16T00:00:00	2024-11-06T21:00:00	3	Temperatura mínima	13.8
137444	7	Sololá	701	Sololá	2	El tablón	2	Febrero	2023-02-16T00:00:00	2024-11-06T21:00:00	5	Humedad	78
137445	7	Sololá	701	Sololá	2	El tablón	2	Febrero	2023-02-16T00:00:00	2024-11-06T21:00:00	6	Velocidad del viento	8
137446	7	Sololá	701	Sololá	2	El tablón	2	Febrero	2023-02-16T00:00:00	2024-11-06T21:00:00	7	Dirección del viento	8.05
137447	7	Sololá	701	Sololá	2	El tablón	2	Febrero	2023-02-16T00:00:00	2024-11-06T21:00:00	1	Precipitación	0
137448	7	Sololá	701	Sololá	2	El tablón	2	Febrero	2023-02-16T00:00:00	2024-11-06T21:00:00	8	Radiación solar	0
137449	7	Sololá	701	Sololá	2	El tablón	2	Febrero	2023-02-16T00:00:00	2024-11-06T22:00:00	2	Temperatura media	13.5
137450	7	Sololá	701	Sololá	2	El tablón	2	Febrero	2023-02-16T00:00:00	2024-11-06T22:00:00	4	Temperatura máxima	14.1
137451	7	Sololá	701	Sololá	2	El tablón	2	Febrero	2023-02-16T00:00:00	2024-11-06T22:00:00	3	Temperatura mínima	13.4
137452	7	Sololá	701	Sololá	2	El tablón	2	Febrero	2023-02-16T00:00:00	2024-11-06T22:00:00	5	Humedad	81
137453	7	Sololá	701	Sololá	2	El tablón	2	Febrero	2023-02-16T00:00:00	2024-11-06T22:00:00	6	Velocidad del viento	8
137454	7	Sololá	701	Sololá	2	El tablón	2	Febrero	2023-02-16T00:00:00	2024-11-06T22:00:00	7	Dirección del viento	8.05
137455	7	Sololá	701	Sololá	2	El tablón	2	Febrero	2023-02-16T00:00:00	2024-11-06T22:00:00	1	Precipitación	0
137456	7	Sololá	701	Sololá	2	El tablón	2	Febrero	2023-02-16T00:00:00	2024-11-06T22:00:00	8	Radiación solar	0
137457	7	Sololá	701	Sololá	2	El tablón	2	Febrero	2023-02-16T00:00:00	2024-11-06T23:00:00	2	Temperatura media	12.7
137458	7	Sololá	701	Sololá	2	El tablón	2	Febrero	2023-02-16T00:00:00	2024-11-06T23:00:00	4	Temperatura máxima	13.5
137459	7	Sololá	701	Sololá	2	El tablón	2	Febrero	2023-02-16T00:00:00	2024-11-06T23:00:00	3	Temperatura mínima	12.7
137460	7	Sololá	701	Sololá	2	El tablón	2	Febrero	2023-02-16T00:00:00	2024-11-06T23:00:00	5	Humedad	84
137461	7	Sololá	701	Sololá	2	El tablón	2	Febrero	2023-02-16T00:00:00	2024-11-06T23:00:00	6	Velocidad del viento	8
137462	7	Sololá	701	Sololá	2	El tablón	2	Febrero	2023-02-16T00:00:00	2024-11-06T23:00:00	7	Dirección del viento	8.05
137463	7	Sololá	701	Sololá	2	El tablón	2	Febrero	2023-02-16T00:00:00	2024-11-06T23:00:00	1	Precipitación	0
137464	7	Sololá	701	Sololá	2	El tablón	2	Febrero	2023-02-16T00:00:00	2024-11-06T23:00:00	8	Radiación solar	0
137465	7	Sololá	701	Sololá	2	El tablón	2	Febrero	2023-02-17T00:00:00	2024-11-06T00:00:00	2	Temperatura media	12.9
137466	7	Sololá	701	Sololá	2	El tablón	2	Febrero	2023-02-17T00:00:00	2024-11-06T00:00:00	4	Temperatura máxima	13.2
137467	7	Sololá	701	Sololá	2	El tablón	2	Febrero	2023-02-17T00:00:00	2024-11-06T00:00:00	3	Temperatura mínima	12.7
137468	7	Sololá	701	Sololá	2	El tablón	2	Febrero	2023-02-17T00:00:00	2024-11-06T00:00:00	5	Humedad	77
137469	7	Sololá	701	Sololá	2	El tablón	2	Febrero	2023-02-17T00:00:00	2024-11-06T00:00:00	6	Velocidad del viento	4.8
137470	7	Sololá	701	Sololá	2	El tablón	2	Febrero	2023-02-17T00:00:00	2024-11-06T00:00:00	7	Dirección del viento	4.83
137471	7	Sololá	701	Sololá	2	El tablón	2	Febrero	2023-02-17T00:00:00	2024-11-06T00:00:00	1	Precipitación	0
137472	7	Sololá	701	Sololá	2	El tablón	2	Febrero	2023-02-17T00:00:00	2024-11-06T00:00:00	8	Radiación solar	0
137473	7	Sololá	701	Sololá	2	El tablón	2	Febrero	2023-02-17T00:00:00	2024-11-06T01:00:00	2	Temperatura media	10.4
137474	7	Sololá	701	Sololá	2	El tablón	2	Febrero	2023-02-17T00:00:00	2024-11-06T01:00:00	4	Temperatura máxima	12.9
137475	7	Sololá	701	Sololá	2	El tablón	2	Febrero	2023-02-17T00:00:00	2024-11-06T01:00:00	3	Temperatura mínima	10.4
137476	7	Sololá	701	Sololá	2	El tablón	2	Febrero	2023-02-17T00:00:00	2024-11-06T01:00:00	5	Humedad	80
137477	7	Sololá	701	Sololá	2	El tablón	2	Febrero	2023-02-17T00:00:00	2024-11-06T01:00:00	6	Velocidad del viento	1.6
137478	7	Sololá	701	Sololá	2	El tablón	2	Febrero	2023-02-17T00:00:00	2024-11-06T01:00:00	7	Dirección del viento	1.61
137479	7	Sololá	701	Sololá	2	El tablón	2	Febrero	2023-02-17T00:00:00	2024-11-06T01:00:00	1	Precipitación	0
137480	7	Sololá	701	Sololá	2	El tablón	2	Febrero	2023-02-17T00:00:00	2024-11-06T01:00:00	8	Radiación solar	0
137481	7	Sololá	701	Sololá	2	El tablón	2	Febrero	2023-02-17T00:00:00	2024-11-06T02:00:00	2	Temperatura media	9.6
137482	7	Sololá	701	Sololá	2	El tablón	2	Febrero	2023-02-17T00:00:00	2024-11-06T02:00:00	4	Temperatura máxima	10.6
137483	7	Sololá	701	Sololá	2	El tablón	2	Febrero	2023-02-17T00:00:00	2024-11-06T02:00:00	3	Temperatura mínima	9.6
137484	7	Sololá	701	Sololá	2	El tablón	2	Febrero	2023-02-17T00:00:00	2024-11-06T02:00:00	5	Humedad	84
137485	7	Sololá	701	Sololá	2	El tablón	2	Febrero	2023-02-17T00:00:00	2024-11-06T02:00:00	6	Velocidad del viento	1.6
137486	7	Sololá	701	Sololá	2	El tablón	2	Febrero	2023-02-17T00:00:00	2024-11-06T02:00:00	7	Dirección del viento	1.61
137487	7	Sololá	701	Sololá	2	El tablón	2	Febrero	2023-02-17T00:00:00	2024-11-06T02:00:00	1	Precipitación	0
137488	7	Sololá	701	Sololá	2	El tablón	2	Febrero	2023-02-17T00:00:00	2024-11-06T02:00:00	8	Radiación solar	0
137489	7	Sololá	701	Sololá	2	El tablón	2	Febrero	2023-02-17T00:00:00	2024-11-06T03:00:00	2	Temperatura media	8.8
137490	7	Sololá	701	Sololá	2	El tablón	2	Febrero	2023-02-17T00:00:00	2024-11-06T03:00:00	4	Temperatura máxima	9.9
137491	7	Sololá	701	Sololá	2	El tablón	2	Febrero	2023-02-17T00:00:00	2024-11-06T03:00:00	3	Temperatura mínima	8.8
137492	7	Sololá	701	Sololá	2	El tablón	2	Febrero	2023-02-17T00:00:00	2024-11-06T03:00:00	5	Humedad	82
137493	7	Sololá	701	Sololá	2	El tablón	2	Febrero	2023-02-17T00:00:00	2024-11-06T03:00:00	6	Velocidad del viento	1.6
137494	7	Sololá	701	Sololá	2	El tablón	2	Febrero	2023-02-17T00:00:00	2024-11-06T03:00:00	7	Dirección del viento	1.61
137495	7	Sololá	701	Sololá	2	El tablón	2	Febrero	2023-02-17T00:00:00	2024-11-06T03:00:00	1	Precipitación	0
137496	7	Sololá	701	Sololá	2	El tablón	2	Febrero	2023-02-17T00:00:00	2024-11-06T03:00:00	8	Radiación solar	0
137497	7	Sololá	701	Sololá	2	El tablón	2	Febrero	2023-02-17T00:00:00	2024-11-06T04:00:00	2	Temperatura media	9.6
137498	7	Sololá	701	Sololá	2	El tablón	2	Febrero	2023-02-17T00:00:00	2024-11-06T04:00:00	4	Temperatura máxima	9.6
137499	7	Sololá	701	Sololá	2	El tablón	2	Febrero	2023-02-17T00:00:00	2024-11-06T04:00:00	3	Temperatura mínima	8.8
137500	7	Sololá	701	Sololá	2	El tablón	2	Febrero	2023-02-17T00:00:00	2024-11-06T04:00:00	5	Humedad	71
137501	7	Sololá	701	Sololá	2	El tablón	2	Febrero	2023-02-17T00:00:00	2024-11-06T04:00:00	6	Velocidad del viento	1.6
137502	7	Sololá	701	Sololá	2	El tablón	2	Febrero	2023-02-17T00:00:00	2024-11-06T04:00:00	7	Dirección del viento	1.61
137503	7	Sololá	701	Sololá	2	El tablón	2	Febrero	2023-02-17T00:00:00	2024-11-06T04:00:00	1	Precipitación	0
137504	7	Sololá	701	Sololá	2	El tablón	2	Febrero	2023-02-17T00:00:00	2024-11-06T04:00:00	8	Radiación solar	0
137505	7	Sololá	701	Sololá	2	El tablón	2	Febrero	2023-02-17T00:00:00	2024-11-06T05:00:00	2	Temperatura media	10.8
137506	7	Sololá	701	Sololá	2	El tablón	2	Febrero	2023-02-17T00:00:00	2024-11-06T05:00:00	4	Temperatura máxima	10.8
137507	7	Sololá	701	Sololá	2	El tablón	2	Febrero	2023-02-17T00:00:00	2024-11-06T05:00:00	3	Temperatura mínima	9.6
137508	7	Sololá	701	Sololá	2	El tablón	2	Febrero	2023-02-17T00:00:00	2024-11-06T05:00:00	5	Humedad	63
137509	7	Sololá	701	Sololá	2	El tablón	2	Febrero	2023-02-17T00:00:00	2024-11-06T05:00:00	6	Velocidad del viento	1.6
137510	7	Sololá	701	Sololá	2	El tablón	2	Febrero	2023-02-17T00:00:00	2024-11-06T05:00:00	7	Dirección del viento	1.61
137511	7	Sololá	701	Sololá	2	El tablón	2	Febrero	2023-02-17T00:00:00	2024-11-06T05:00:00	1	Precipitación	0
137512	7	Sololá	701	Sololá	2	El tablón	2	Febrero	2023-02-17T00:00:00	2024-11-06T05:00:00	8	Radiación solar	0
137513	7	Sololá	701	Sololá	2	El tablón	2	Febrero	2023-02-17T00:00:00	2024-11-06T06:00:00	2	Temperatura media	12.2
137514	7	Sololá	701	Sololá	2	El tablón	2	Febrero	2023-02-17T00:00:00	2024-11-06T06:00:00	4	Temperatura máxima	12.2
137515	7	Sololá	701	Sololá	2	El tablón	2	Febrero	2023-02-17T00:00:00	2024-11-06T06:00:00	3	Temperatura mínima	8.9
137516	7	Sololá	701	Sololá	2	El tablón	2	Febrero	2023-02-17T00:00:00	2024-11-06T06:00:00	5	Humedad	29
137517	7	Sololá	701	Sololá	2	El tablón	2	Febrero	2023-02-17T00:00:00	2024-11-06T06:00:00	6	Velocidad del viento	1.6
137518	7	Sololá	701	Sololá	2	El tablón	2	Febrero	2023-02-17T00:00:00	2024-11-06T06:00:00	7	Dirección del viento	1.61
137519	7	Sololá	701	Sololá	2	El tablón	2	Febrero	2023-02-17T00:00:00	2024-11-06T06:00:00	1	Precipitación	0
137520	7	Sololá	701	Sololá	2	El tablón	2	Febrero	2023-02-17T00:00:00	2024-11-06T06:00:00	8	Radiación solar	0
137521	7	Sololá	701	Sololá	2	El tablón	2	Febrero	2023-02-17T00:00:00	2024-11-06T07:00:00	2	Temperatura media	12.8
137522	7	Sololá	701	Sololá	2	El tablón	2	Febrero	2023-02-17T00:00:00	2024-11-06T07:00:00	4	Temperatura máxima	13.1
137523	7	Sololá	701	Sololá	2	El tablón	2	Febrero	2023-02-17T00:00:00	2024-11-06T07:00:00	3	Temperatura mínima	12.2
137524	7	Sololá	701	Sololá	2	El tablón	2	Febrero	2023-02-17T00:00:00	2024-11-06T07:00:00	5	Humedad	36
137525	7	Sololá	701	Sololá	2	El tablón	2	Febrero	2023-02-17T00:00:00	2024-11-06T07:00:00	6	Velocidad del viento	3.2
137526	7	Sololá	701	Sololá	2	El tablón	2	Febrero	2023-02-17T00:00:00	2024-11-06T07:00:00	7	Dirección del viento	3.22
137527	7	Sololá	701	Sololá	2	El tablón	2	Febrero	2023-02-17T00:00:00	2024-11-06T07:00:00	1	Precipitación	0
137528	7	Sololá	701	Sololá	2	El tablón	2	Febrero	2023-02-17T00:00:00	2024-11-06T07:00:00	8	Radiación solar	7
137529	7	Sololá	701	Sololá	2	El tablón	2	Febrero	2023-02-17T00:00:00	2024-11-06T08:00:00	2	Temperatura media	14.6
137530	7	Sololá	701	Sololá	2	El tablón	2	Febrero	2023-02-17T00:00:00	2024-11-06T08:00:00	4	Temperatura máxima	14.6
137531	7	Sololá	701	Sololá	2	El tablón	2	Febrero	2023-02-17T00:00:00	2024-11-06T08:00:00	3	Temperatura mínima	12.8
137532	7	Sololá	701	Sololá	2	El tablón	2	Febrero	2023-02-17T00:00:00	2024-11-06T08:00:00	5	Humedad	60
137533	7	Sololá	701	Sololá	2	El tablón	2	Febrero	2023-02-17T00:00:00	2024-11-06T08:00:00	6	Velocidad del viento	3.2
137534	7	Sololá	701	Sololá	2	El tablón	2	Febrero	2023-02-17T00:00:00	2024-11-06T08:00:00	7	Dirección del viento	3.22
137535	7	Sololá	701	Sololá	2	El tablón	2	Febrero	2023-02-17T00:00:00	2024-11-06T08:00:00	1	Precipitación	0
137536	7	Sololá	701	Sololá	2	El tablón	2	Febrero	2023-02-17T00:00:00	2024-11-06T08:00:00	8	Radiación solar	159
137537	7	Sololá	701	Sololá	2	El tablón	2	Febrero	2023-02-17T00:00:00	2024-11-06T09:00:00	2	Temperatura media	16.2
137538	7	Sololá	701	Sololá	2	El tablón	2	Febrero	2023-02-17T00:00:00	2024-11-06T09:00:00	4	Temperatura máxima	16.2
137539	7	Sololá	701	Sololá	2	El tablón	2	Febrero	2023-02-17T00:00:00	2024-11-06T09:00:00	3	Temperatura mínima	14.6
137540	7	Sololá	701	Sololá	2	El tablón	2	Febrero	2023-02-17T00:00:00	2024-11-06T09:00:00	5	Humedad	52
137541	7	Sololá	701	Sololá	2	El tablón	2	Febrero	2023-02-17T00:00:00	2024-11-06T09:00:00	6	Velocidad del viento	4.8
137542	7	Sololá	701	Sololá	2	El tablón	2	Febrero	2023-02-17T00:00:00	2024-11-06T09:00:00	7	Dirección del viento	4.83
137543	7	Sololá	701	Sololá	2	El tablón	2	Febrero	2023-02-17T00:00:00	2024-11-06T09:00:00	1	Precipitación	0
137544	7	Sololá	701	Sololá	2	El tablón	2	Febrero	2023-02-17T00:00:00	2024-11-06T09:00:00	8	Radiación solar	398
137545	7	Sololá	701	Sololá	2	El tablón	2	Febrero	2023-02-17T00:00:00	2024-11-06T10:00:00	2	Temperatura media	16.2
137546	7	Sololá	701	Sololá	2	El tablón	2	Febrero	2023-02-17T00:00:00	2024-11-06T10:00:00	4	Temperatura máxima	16.2
137547	7	Sololá	701	Sololá	2	El tablón	2	Febrero	2023-02-17T00:00:00	2024-11-06T10:00:00	3	Temperatura mínima	15.6
137548	7	Sololá	701	Sololá	2	El tablón	2	Febrero	2023-02-17T00:00:00	2024-11-06T10:00:00	5	Humedad	57
137549	7	Sololá	701	Sololá	2	El tablón	2	Febrero	2023-02-17T00:00:00	2024-11-06T10:00:00	6	Velocidad del viento	11.3
137550	7	Sololá	701	Sololá	2	El tablón	2	Febrero	2023-02-17T00:00:00	2024-11-06T10:00:00	7	Dirección del viento	11.27
137551	7	Sololá	701	Sololá	2	El tablón	2	Febrero	2023-02-17T00:00:00	2024-11-06T10:00:00	1	Precipitación	0
137552	7	Sololá	701	Sololá	2	El tablón	2	Febrero	2023-02-17T00:00:00	2024-11-06T10:00:00	8	Radiación solar	602
137553	7	Sololá	701	Sololá	2	El tablón	2	Febrero	2023-02-17T00:00:00	2024-11-06T11:00:00	2	Temperatura media	16.5
137554	7	Sololá	701	Sololá	2	El tablón	2	Febrero	2023-02-17T00:00:00	2024-11-06T11:00:00	4	Temperatura máxima	16.6
137555	7	Sololá	701	Sololá	2	El tablón	2	Febrero	2023-02-17T00:00:00	2024-11-06T11:00:00	3	Temperatura mínima	15.8
137556	7	Sololá	701	Sololá	2	El tablón	2	Febrero	2023-02-17T00:00:00	2024-11-06T11:00:00	5	Humedad	57
137557	7	Sololá	701	Sololá	2	El tablón	2	Febrero	2023-02-17T00:00:00	2024-11-06T11:00:00	6	Velocidad del viento	16.1
137558	7	Sololá	701	Sololá	2	El tablón	2	Febrero	2023-02-17T00:00:00	2024-11-06T11:00:00	7	Dirección del viento	16.09
137559	7	Sololá	701	Sololá	2	El tablón	2	Febrero	2023-02-17T00:00:00	2024-11-06T11:00:00	1	Precipitación	0
137560	7	Sololá	701	Sololá	2	El tablón	2	Febrero	2023-02-17T00:00:00	2024-11-06T11:00:00	8	Radiación solar	749
137561	7	Sololá	701	Sololá	2	El tablón	2	Febrero	2023-02-17T00:00:00	2024-11-06T12:00:00	2	Temperatura media	18.2
137562	7	Sololá	701	Sololá	2	El tablón	2	Febrero	2023-02-17T00:00:00	2024-11-06T12:00:00	4	Temperatura máxima	18.2
137563	7	Sololá	701	Sololá	2	El tablón	2	Febrero	2023-02-17T00:00:00	2024-11-06T12:00:00	3	Temperatura mínima	16.6
137564	7	Sololá	701	Sololá	2	El tablón	2	Febrero	2023-02-17T00:00:00	2024-11-06T12:00:00	5	Humedad	53
137565	7	Sololá	701	Sololá	2	El tablón	2	Febrero	2023-02-17T00:00:00	2024-11-06T12:00:00	6	Velocidad del viento	14.5
137566	7	Sololá	701	Sololá	2	El tablón	2	Febrero	2023-02-17T00:00:00	2024-11-06T12:00:00	7	Dirección del viento	14.48
137567	7	Sololá	701	Sololá	2	El tablón	2	Febrero	2023-02-17T00:00:00	2024-11-06T12:00:00	1	Precipitación	0
137568	7	Sololá	701	Sololá	2	El tablón	2	Febrero	2023-02-17T00:00:00	2024-11-06T12:00:00	8	Radiación solar	776
137569	7	Sololá	701	Sololá	2	El tablón	2	Febrero	2023-02-17T00:00:00	2024-11-06T13:00:00	2	Temperatura media	18.7
137570	7	Sololá	701	Sololá	2	El tablón	2	Febrero	2023-02-17T00:00:00	2024-11-06T13:00:00	4	Temperatura máxima	18.7
137571	7	Sololá	701	Sololá	2	El tablón	2	Febrero	2023-02-17T00:00:00	2024-11-06T13:00:00	3	Temperatura mínima	18.1
137572	7	Sololá	701	Sololá	2	El tablón	2	Febrero	2023-02-17T00:00:00	2024-11-06T13:00:00	5	Humedad	52
137573	7	Sololá	701	Sololá	2	El tablón	2	Febrero	2023-02-17T00:00:00	2024-11-06T13:00:00	6	Velocidad del viento	17.7
137574	7	Sololá	701	Sololá	2	El tablón	2	Febrero	2023-02-17T00:00:00	2024-11-06T13:00:00	7	Dirección del viento	17.7
137575	7	Sololá	701	Sololá	2	El tablón	2	Febrero	2023-02-17T00:00:00	2024-11-06T13:00:00	1	Precipitación	0
137576	7	Sololá	701	Sololá	2	El tablón	2	Febrero	2023-02-17T00:00:00	2024-11-06T13:00:00	8	Radiación solar	859
137577	7	Sololá	701	Sololá	2	El tablón	2	Febrero	2023-02-17T00:00:00	2024-11-06T14:00:00	2	Temperatura media	17.6
137578	7	Sololá	701	Sololá	2	El tablón	2	Febrero	2023-02-17T00:00:00	2024-11-06T14:00:00	4	Temperatura máxima	18.8
137579	7	Sololá	701	Sololá	2	El tablón	2	Febrero	2023-02-17T00:00:00	2024-11-06T14:00:00	3	Temperatura mínima	17.4
137580	7	Sololá	701	Sololá	2	El tablón	2	Febrero	2023-02-17T00:00:00	2024-11-06T14:00:00	5	Humedad	54
137581	7	Sololá	701	Sololá	2	El tablón	2	Febrero	2023-02-17T00:00:00	2024-11-06T14:00:00	6	Velocidad del viento	17.7
137582	7	Sololá	701	Sololá	2	El tablón	2	Febrero	2023-02-17T00:00:00	2024-11-06T14:00:00	7	Dirección del viento	17.7
137583	7	Sololá	701	Sololá	2	El tablón	2	Febrero	2023-02-17T00:00:00	2024-11-06T14:00:00	1	Precipitación	0
137584	7	Sololá	701	Sololá	2	El tablón	2	Febrero	2023-02-17T00:00:00	2024-11-06T14:00:00	8	Radiación solar	820
137585	7	Sololá	701	Sololá	2	El tablón	2	Febrero	2023-02-17T00:00:00	2024-11-06T15:00:00	2	Temperatura media	17.2
137586	7	Sololá	701	Sololá	2	El tablón	2	Febrero	2023-02-17T00:00:00	2024-11-06T15:00:00	4	Temperatura máxima	17.9
137587	7	Sololá	701	Sololá	2	El tablón	2	Febrero	2023-02-17T00:00:00	2024-11-06T15:00:00	3	Temperatura mínima	17.2
137588	7	Sololá	701	Sololá	2	El tablón	2	Febrero	2023-02-17T00:00:00	2024-11-06T15:00:00	5	Humedad	55
137589	7	Sololá	701	Sololá	2	El tablón	2	Febrero	2023-02-17T00:00:00	2024-11-06T15:00:00	6	Velocidad del viento	17.7
137590	7	Sololá	701	Sololá	2	El tablón	2	Febrero	2023-02-17T00:00:00	2024-11-06T15:00:00	7	Dirección del viento	17.7
137591	7	Sololá	701	Sololá	2	El tablón	2	Febrero	2023-02-17T00:00:00	2024-11-06T15:00:00	1	Precipitación	0
137592	7	Sololá	701	Sololá	2	El tablón	2	Febrero	2023-02-17T00:00:00	2024-11-06T15:00:00	8	Radiación solar	689
137593	7	Sololá	701	Sololá	2	El tablón	2	Febrero	2023-02-17T00:00:00	2024-11-06T16:00:00	2	Temperatura media	15.6
137594	7	Sololá	701	Sololá	2	El tablón	2	Febrero	2023-02-17T00:00:00	2024-11-06T16:00:00	4	Temperatura máxima	17.3
137595	7	Sololá	701	Sololá	2	El tablón	2	Febrero	2023-02-17T00:00:00	2024-11-06T16:00:00	3	Temperatura mínima	15.4
137596	7	Sololá	701	Sololá	2	El tablón	2	Febrero	2023-02-17T00:00:00	2024-11-06T16:00:00	5	Humedad	60
137597	7	Sololá	701	Sololá	2	El tablón	2	Febrero	2023-02-17T00:00:00	2024-11-06T16:00:00	6	Velocidad del viento	19.3
137598	7	Sololá	701	Sololá	2	El tablón	2	Febrero	2023-02-17T00:00:00	2024-11-06T16:00:00	7	Dirección del viento	19.31
137599	7	Sololá	701	Sololá	2	El tablón	2	Febrero	2023-02-17T00:00:00	2024-11-06T16:00:00	1	Precipitación	0
137600	7	Sololá	701	Sololá	2	El tablón	2	Febrero	2023-02-17T00:00:00	2024-11-06T16:00:00	8	Radiación solar	533
137601	7	Sololá	701	Sololá	2	El tablón	2	Febrero	2023-02-17T00:00:00	2024-11-06T17:00:00	2	Temperatura media	14.9
137602	7	Sololá	701	Sololá	2	El tablón	2	Febrero	2023-02-17T00:00:00	2024-11-06T17:00:00	4	Temperatura máxima	15.8
137603	7	Sololá	701	Sololá	2	El tablón	2	Febrero	2023-02-17T00:00:00	2024-11-06T17:00:00	3	Temperatura mínima	14.8
137604	7	Sololá	701	Sololá	2	El tablón	2	Febrero	2023-02-17T00:00:00	2024-11-06T17:00:00	5	Humedad	63
137605	7	Sololá	701	Sololá	2	El tablón	2	Febrero	2023-02-17T00:00:00	2024-11-06T17:00:00	6	Velocidad del viento	19.3
137606	7	Sololá	701	Sololá	2	El tablón	2	Febrero	2023-02-17T00:00:00	2024-11-06T17:00:00	7	Dirección del viento	19.31
137607	7	Sololá	701	Sololá	2	El tablón	2	Febrero	2023-02-17T00:00:00	2024-11-06T17:00:00	1	Precipitación	0
137608	7	Sololá	701	Sololá	2	El tablón	2	Febrero	2023-02-17T00:00:00	2024-11-06T17:00:00	8	Radiación solar	357
137609	7	Sololá	701	Sololá	2	El tablón	2	Febrero	2023-02-17T00:00:00	2024-11-06T18:00:00	2	Temperatura media	12.7
137610	7	Sololá	701	Sololá	2	El tablón	2	Febrero	2023-02-17T00:00:00	2024-11-06T18:00:00	4	Temperatura máxima	14.9
137611	7	Sololá	701	Sololá	2	El tablón	2	Febrero	2023-02-17T00:00:00	2024-11-06T18:00:00	3	Temperatura mínima	12.7
137612	7	Sololá	701	Sololá	2	El tablón	2	Febrero	2023-02-17T00:00:00	2024-11-06T18:00:00	5	Humedad	76
137613	7	Sololá	701	Sololá	2	El tablón	2	Febrero	2023-02-17T00:00:00	2024-11-06T18:00:00	6	Velocidad del viento	20.9
137614	7	Sololá	701	Sololá	2	El tablón	2	Febrero	2023-02-17T00:00:00	2024-11-06T18:00:00	7	Dirección del viento	20.92
137615	7	Sololá	701	Sololá	2	El tablón	2	Febrero	2023-02-17T00:00:00	2024-11-06T18:00:00	1	Precipitación	0
137616	7	Sololá	701	Sololá	2	El tablón	2	Febrero	2023-02-17T00:00:00	2024-11-06T18:00:00	8	Radiación solar	86
137617	7	Sololá	701	Sololá	2	El tablón	2	Febrero	2023-02-17T00:00:00	2024-11-06T19:00:00	2	Temperatura media	11.4
137618	7	Sololá	701	Sololá	2	El tablón	2	Febrero	2023-02-17T00:00:00	2024-11-06T19:00:00	4	Temperatura máxima	12.7
137619	7	Sololá	701	Sololá	2	El tablón	2	Febrero	2023-02-17T00:00:00	2024-11-06T19:00:00	3	Temperatura mínima	11.4
137620	7	Sololá	701	Sololá	2	El tablón	2	Febrero	2023-02-17T00:00:00	2024-11-06T19:00:00	5	Humedad	80
137621	7	Sololá	701	Sololá	2	El tablón	2	Febrero	2023-02-17T00:00:00	2024-11-06T19:00:00	6	Velocidad del viento	24.1
137622	7	Sololá	701	Sololá	2	El tablón	2	Febrero	2023-02-17T00:00:00	2024-11-06T19:00:00	7	Dirección del viento	24.14
137623	7	Sololá	701	Sololá	2	El tablón	2	Febrero	2023-02-17T00:00:00	2024-11-06T19:00:00	1	Precipitación	0
137624	7	Sololá	701	Sololá	2	El tablón	2	Febrero	2023-02-17T00:00:00	2024-11-06T19:00:00	8	Radiación solar	0
137625	7	Sololá	701	Sololá	2	El tablón	2	Febrero	2023-02-17T00:00:00	2024-11-06T20:00:00	2	Temperatura media	11.1
137626	7	Sololá	701	Sololá	2	El tablón	2	Febrero	2023-02-17T00:00:00	2024-11-06T20:00:00	4	Temperatura máxima	11.4
137627	7	Sololá	701	Sololá	2	El tablón	2	Febrero	2023-02-17T00:00:00	2024-11-06T20:00:00	3	Temperatura mínima	11
137628	7	Sololá	701	Sololá	2	El tablón	2	Febrero	2023-02-17T00:00:00	2024-11-06T20:00:00	5	Humedad	85
137629	7	Sololá	701	Sololá	2	El tablón	2	Febrero	2023-02-17T00:00:00	2024-11-06T20:00:00	6	Velocidad del viento	29
137630	7	Sololá	701	Sololá	2	El tablón	2	Febrero	2023-02-17T00:00:00	2024-11-06T20:00:00	7	Dirección del viento	28.97
137631	7	Sololá	701	Sololá	2	El tablón	2	Febrero	2023-02-17T00:00:00	2024-11-06T20:00:00	1	Precipitación	0
137632	7	Sololá	701	Sololá	2	El tablón	2	Febrero	2023-02-17T00:00:00	2024-11-06T20:00:00	8	Radiación solar	0
137633	7	Sololá	701	Sololá	2	El tablón	2	Febrero	2023-02-17T00:00:00	2024-11-06T21:00:00	2	Temperatura media	11.3
137634	7	Sololá	701	Sololá	2	El tablón	2	Febrero	2023-02-17T00:00:00	2024-11-06T21:00:00	4	Temperatura máxima	11.4
137635	7	Sololá	701	Sololá	2	El tablón	2	Febrero	2023-02-17T00:00:00	2024-11-06T21:00:00	3	Temperatura mínima	11.1
137636	7	Sololá	701	Sololá	2	El tablón	2	Febrero	2023-02-17T00:00:00	2024-11-06T21:00:00	5	Humedad	80
137637	7	Sololá	701	Sololá	2	El tablón	2	Febrero	2023-02-17T00:00:00	2024-11-06T21:00:00	6	Velocidad del viento	32.2
137638	7	Sololá	701	Sololá	2	El tablón	2	Febrero	2023-02-17T00:00:00	2024-11-06T21:00:00	7	Dirección del viento	32.19
137639	7	Sololá	701	Sololá	2	El tablón	2	Febrero	2023-02-17T00:00:00	2024-11-06T21:00:00	1	Precipitación	0
137640	7	Sololá	701	Sololá	2	El tablón	2	Febrero	2023-02-17T00:00:00	2024-11-06T21:00:00	8	Radiación solar	0
137641	7	Sololá	701	Sololá	2	El tablón	2	Febrero	2023-02-17T00:00:00	2024-11-06T22:00:00	2	Temperatura media	11.3
137642	7	Sololá	701	Sololá	2	El tablón	2	Febrero	2023-02-17T00:00:00	2024-11-06T22:00:00	4	Temperatura máxima	11.4
137643	7	Sololá	701	Sololá	2	El tablón	2	Febrero	2023-02-17T00:00:00	2024-11-06T22:00:00	3	Temperatura mínima	11.2
137644	7	Sololá	701	Sololá	2	El tablón	2	Febrero	2023-02-17T00:00:00	2024-11-06T22:00:00	5	Humedad	83
137645	7	Sololá	701	Sololá	2	El tablón	2	Febrero	2023-02-17T00:00:00	2024-11-06T22:00:00	6	Velocidad del viento	29
137646	7	Sololá	701	Sololá	2	El tablón	2	Febrero	2023-02-17T00:00:00	2024-11-06T22:00:00	7	Dirección del viento	28.97
137647	7	Sololá	701	Sololá	2	El tablón	2	Febrero	2023-02-17T00:00:00	2024-11-06T22:00:00	1	Precipitación	0
137648	7	Sololá	701	Sololá	2	El tablón	2	Febrero	2023-02-17T00:00:00	2024-11-06T22:00:00	8	Radiación solar	0
137649	7	Sololá	701	Sololá	2	El tablón	2	Febrero	2023-02-17T00:00:00	2024-11-06T23:00:00	2	Temperatura media	11.4
137650	7	Sololá	701	Sololá	2	El tablón	2	Febrero	2023-02-17T00:00:00	2024-11-06T23:00:00	4	Temperatura máxima	11.4
137651	7	Sololá	701	Sololá	2	El tablón	2	Febrero	2023-02-17T00:00:00	2024-11-06T23:00:00	3	Temperatura mínima	11.1
137652	7	Sololá	701	Sololá	2	El tablón	2	Febrero	2023-02-17T00:00:00	2024-11-06T23:00:00	5	Humedad	84
137653	7	Sololá	701	Sololá	2	El tablón	2	Febrero	2023-02-17T00:00:00	2024-11-06T23:00:00	6	Velocidad del viento	27.4
137654	7	Sololá	701	Sololá	2	El tablón	2	Febrero	2023-02-17T00:00:00	2024-11-06T23:00:00	7	Dirección del viento	27.36
137655	7	Sololá	701	Sololá	2	El tablón	2	Febrero	2023-02-17T00:00:00	2024-11-06T23:00:00	1	Precipitación	0
137656	7	Sololá	701	Sololá	2	El tablón	2	Febrero	2023-02-17T00:00:00	2024-11-06T23:00:00	8	Radiación solar	0
137657	7	Sololá	701	Sololá	2	El tablón	2	Febrero	2023-02-18T00:00:00	2024-11-06T00:00:00	2	Temperatura media	11.2
137658	7	Sololá	701	Sololá	2	El tablón	2	Febrero	2023-02-18T00:00:00	2024-11-06T00:00:00	4	Temperatura máxima	11.4
137659	7	Sololá	701	Sololá	2	El tablón	2	Febrero	2023-02-18T00:00:00	2024-11-06T00:00:00	3	Temperatura mínima	11.2
137660	7	Sololá	701	Sololá	2	El tablón	2	Febrero	2023-02-18T00:00:00	2024-11-06T00:00:00	5	Humedad	86
137661	7	Sololá	701	Sololá	2	El tablón	2	Febrero	2023-02-18T00:00:00	2024-11-06T00:00:00	6	Velocidad del viento	25.7
137662	7	Sololá	701	Sololá	2	El tablón	2	Febrero	2023-02-18T00:00:00	2024-11-06T00:00:00	7	Dirección del viento	25.75
137663	7	Sololá	701	Sololá	2	El tablón	2	Febrero	2023-02-18T00:00:00	2024-11-06T00:00:00	1	Precipitación	0
137664	7	Sololá	701	Sololá	2	El tablón	2	Febrero	2023-02-18T00:00:00	2024-11-06T00:00:00	8	Radiación solar	0
137665	7	Sololá	701	Sololá	2	El tablón	2	Febrero	2023-02-18T00:00:00	2024-11-06T01:00:00	2	Temperatura media	11.4
137666	7	Sololá	701	Sololá	2	El tablón	2	Febrero	2023-02-18T00:00:00	2024-11-06T01:00:00	4	Temperatura máxima	11.5
137667	7	Sololá	701	Sololá	2	El tablón	2	Febrero	2023-02-18T00:00:00	2024-11-06T01:00:00	3	Temperatura mínima	11.2
137668	7	Sololá	701	Sololá	2	El tablón	2	Febrero	2023-02-18T00:00:00	2024-11-06T01:00:00	5	Humedad	86
137669	7	Sololá	701	Sololá	2	El tablón	2	Febrero	2023-02-18T00:00:00	2024-11-06T01:00:00	6	Velocidad del viento	27.4
137670	7	Sololá	701	Sololá	2	El tablón	2	Febrero	2023-02-18T00:00:00	2024-11-06T01:00:00	7	Dirección del viento	27.36
137671	7	Sololá	701	Sololá	2	El tablón	2	Febrero	2023-02-18T00:00:00	2024-11-06T01:00:00	1	Precipitación	0
137672	7	Sololá	701	Sololá	2	El tablón	2	Febrero	2023-02-18T00:00:00	2024-11-06T01:00:00	8	Radiación solar	0
137673	7	Sololá	701	Sololá	2	El tablón	2	Febrero	2023-02-18T00:00:00	2024-11-06T02:00:00	2	Temperatura media	11
137674	7	Sololá	701	Sololá	2	El tablón	2	Febrero	2023-02-18T00:00:00	2024-11-06T02:00:00	4	Temperatura máxima	11.4
137675	7	Sololá	701	Sololá	2	El tablón	2	Febrero	2023-02-18T00:00:00	2024-11-06T02:00:00	3	Temperatura mínima	11
137676	7	Sololá	701	Sololá	2	El tablón	2	Febrero	2023-02-18T00:00:00	2024-11-06T02:00:00	5	Humedad	89
137677	7	Sololá	701	Sololá	2	El tablón	2	Febrero	2023-02-18T00:00:00	2024-11-06T02:00:00	6	Velocidad del viento	29
137678	7	Sololá	701	Sololá	2	El tablón	2	Febrero	2023-02-18T00:00:00	2024-11-06T02:00:00	7	Dirección del viento	28.97
137679	7	Sololá	701	Sololá	2	El tablón	2	Febrero	2023-02-18T00:00:00	2024-11-06T02:00:00	1	Precipitación	0.2
137680	7	Sololá	701	Sololá	2	El tablón	2	Febrero	2023-02-18T00:00:00	2024-11-06T02:00:00	8	Radiación solar	0
137681	7	Sololá	701	Sololá	2	El tablón	2	Febrero	2023-02-18T00:00:00	2024-11-06T03:00:00	2	Temperatura media	10
137682	7	Sololá	701	Sololá	2	El tablón	2	Febrero	2023-02-18T00:00:00	2024-11-06T03:00:00	4	Temperatura máxima	11
137683	7	Sololá	701	Sololá	2	El tablón	2	Febrero	2023-02-18T00:00:00	2024-11-06T03:00:00	3	Temperatura mínima	10
137684	7	Sololá	701	Sololá	2	El tablón	2	Febrero	2023-02-18T00:00:00	2024-11-06T03:00:00	5	Humedad	90
137685	7	Sololá	701	Sololá	2	El tablón	2	Febrero	2023-02-18T00:00:00	2024-11-06T03:00:00	6	Velocidad del viento	29
137686	7	Sololá	701	Sololá	2	El tablón	2	Febrero	2023-02-18T00:00:00	2024-11-06T03:00:00	7	Dirección del viento	28.97
137687	7	Sololá	701	Sololá	2	El tablón	2	Febrero	2023-02-18T00:00:00	2024-11-06T03:00:00	1	Precipitación	0.2
137688	7	Sololá	701	Sololá	2	El tablón	2	Febrero	2023-02-18T00:00:00	2024-11-06T03:00:00	8	Radiación solar	0
137689	7	Sololá	701	Sololá	2	El tablón	2	Febrero	2023-02-18T00:00:00	2024-11-06T04:00:00	2	Temperatura media	9.6
137690	7	Sololá	701	Sololá	2	El tablón	2	Febrero	2023-02-18T00:00:00	2024-11-06T04:00:00	4	Temperatura máxima	10
137691	7	Sololá	701	Sololá	2	El tablón	2	Febrero	2023-02-18T00:00:00	2024-11-06T04:00:00	3	Temperatura mínima	9.5
137692	7	Sololá	701	Sololá	2	El tablón	2	Febrero	2023-02-18T00:00:00	2024-11-06T04:00:00	5	Humedad	85
137693	7	Sololá	701	Sololá	2	El tablón	2	Febrero	2023-02-18T00:00:00	2024-11-06T04:00:00	6	Velocidad del viento	30.6
137694	7	Sololá	701	Sololá	2	El tablón	2	Febrero	2023-02-18T00:00:00	2024-11-06T04:00:00	7	Dirección del viento	30.58
137695	7	Sololá	701	Sololá	2	El tablón	2	Febrero	2023-02-18T00:00:00	2024-11-06T04:00:00	1	Precipitación	0
137696	7	Sololá	701	Sololá	2	El tablón	2	Febrero	2023-02-18T00:00:00	2024-11-06T04:00:00	8	Radiación solar	0
137697	7	Sololá	701	Sololá	2	El tablón	2	Febrero	2023-02-18T00:00:00	2024-11-06T05:00:00	2	Temperatura media	9.3
137698	7	Sololá	701	Sololá	2	El tablón	2	Febrero	2023-02-18T00:00:00	2024-11-06T05:00:00	4	Temperatura máxima	9.7
137699	7	Sololá	701	Sololá	2	El tablón	2	Febrero	2023-02-18T00:00:00	2024-11-06T05:00:00	3	Temperatura mínima	9.3
137700	7	Sololá	701	Sololá	2	El tablón	2	Febrero	2023-02-18T00:00:00	2024-11-06T05:00:00	5	Humedad	86
137701	7	Sololá	701	Sololá	2	El tablón	2	Febrero	2023-02-18T00:00:00	2024-11-06T05:00:00	6	Velocidad del viento	30.6
137702	7	Sololá	701	Sololá	2	El tablón	2	Febrero	2023-02-18T00:00:00	2024-11-06T05:00:00	7	Dirección del viento	30.58
137703	7	Sololá	701	Sololá	2	El tablón	2	Febrero	2023-02-18T00:00:00	2024-11-06T05:00:00	1	Precipitación	0
137704	7	Sololá	701	Sololá	2	El tablón	2	Febrero	2023-02-18T00:00:00	2024-11-06T05:00:00	8	Radiación solar	0
137705	7	Sololá	701	Sololá	2	El tablón	2	Febrero	2023-02-18T00:00:00	2024-11-06T06:00:00	2	Temperatura media	9.2
137706	7	Sololá	701	Sololá	2	El tablón	2	Febrero	2023-02-18T00:00:00	2024-11-06T06:00:00	4	Temperatura máxima	9.4
137707	7	Sololá	701	Sololá	2	El tablón	2	Febrero	2023-02-18T00:00:00	2024-11-06T06:00:00	3	Temperatura mínima	9.2
137708	7	Sololá	701	Sololá	2	El tablón	2	Febrero	2023-02-18T00:00:00	2024-11-06T06:00:00	5	Humedad	84
137709	7	Sololá	701	Sololá	2	El tablón	2	Febrero	2023-02-18T00:00:00	2024-11-06T06:00:00	6	Velocidad del viento	32.2
137710	7	Sololá	701	Sololá	2	El tablón	2	Febrero	2023-02-18T00:00:00	2024-11-06T06:00:00	7	Dirección del viento	32.19
137711	7	Sololá	701	Sololá	2	El tablón	2	Febrero	2023-02-18T00:00:00	2024-11-06T06:00:00	1	Precipitación	0
137712	7	Sololá	701	Sololá	2	El tablón	2	Febrero	2023-02-18T00:00:00	2024-11-06T06:00:00	8	Radiación solar	0
137713	7	Sololá	701	Sololá	2	El tablón	2	Febrero	2023-02-18T00:00:00	2024-11-06T07:00:00	2	Temperatura media	9.4
137714	7	Sololá	701	Sololá	2	El tablón	2	Febrero	2023-02-18T00:00:00	2024-11-06T07:00:00	4	Temperatura máxima	9.4
137715	7	Sololá	701	Sololá	2	El tablón	2	Febrero	2023-02-18T00:00:00	2024-11-06T07:00:00	3	Temperatura mínima	9.1
137716	7	Sololá	701	Sololá	2	El tablón	2	Febrero	2023-02-18T00:00:00	2024-11-06T07:00:00	5	Humedad	80
137717	7	Sololá	701	Sololá	2	El tablón	2	Febrero	2023-02-18T00:00:00	2024-11-06T07:00:00	6	Velocidad del viento	32.2
137718	7	Sololá	701	Sololá	2	El tablón	2	Febrero	2023-02-18T00:00:00	2024-11-06T07:00:00	7	Dirección del viento	32.19
137719	7	Sololá	701	Sololá	2	El tablón	2	Febrero	2023-02-18T00:00:00	2024-11-06T07:00:00	1	Precipitación	0
137720	7	Sololá	701	Sololá	2	El tablón	2	Febrero	2023-02-18T00:00:00	2024-11-06T07:00:00	8	Radiación solar	8
137721	7	Sololá	701	Sololá	2	El tablón	2	Febrero	2023-02-18T00:00:00	2024-11-06T08:00:00	2	Temperatura media	10.2
137722	7	Sololá	701	Sololá	2	El tablón	2	Febrero	2023-02-18T00:00:00	2024-11-06T08:00:00	4	Temperatura máxima	10.2
137723	7	Sololá	701	Sololá	2	El tablón	2	Febrero	2023-02-18T00:00:00	2024-11-06T08:00:00	3	Temperatura mínima	9.4
137724	7	Sololá	701	Sololá	2	El tablón	2	Febrero	2023-02-18T00:00:00	2024-11-06T08:00:00	5	Humedad	75
137725	7	Sololá	701	Sololá	2	El tablón	2	Febrero	2023-02-18T00:00:00	2024-11-06T08:00:00	6	Velocidad del viento	32.2
137726	7	Sololá	701	Sololá	2	El tablón	2	Febrero	2023-02-18T00:00:00	2024-11-06T08:00:00	7	Dirección del viento	32.19
137727	7	Sololá	701	Sololá	2	El tablón	2	Febrero	2023-02-18T00:00:00	2024-11-06T08:00:00	1	Precipitación	0
137728	7	Sololá	701	Sololá	2	El tablón	2	Febrero	2023-02-18T00:00:00	2024-11-06T08:00:00	8	Radiación solar	159
137729	7	Sololá	701	Sololá	2	El tablón	2	Febrero	2023-02-18T00:00:00	2024-11-06T09:00:00	2	Temperatura media	11.7
137730	7	Sololá	701	Sololá	2	El tablón	2	Febrero	2023-02-18T00:00:00	2024-11-06T09:00:00	4	Temperatura máxima	11.7
137731	7	Sololá	701	Sololá	2	El tablón	2	Febrero	2023-02-18T00:00:00	2024-11-06T09:00:00	3	Temperatura mínima	10.2
137732	7	Sololá	701	Sololá	2	El tablón	2	Febrero	2023-02-18T00:00:00	2024-11-06T09:00:00	5	Humedad	75
137733	7	Sololá	701	Sololá	2	El tablón	2	Febrero	2023-02-18T00:00:00	2024-11-06T09:00:00	6	Velocidad del viento	30.6
137734	7	Sololá	701	Sololá	2	El tablón	2	Febrero	2023-02-18T00:00:00	2024-11-06T09:00:00	7	Dirección del viento	30.58
137735	7	Sololá	701	Sololá	2	El tablón	2	Febrero	2023-02-18T00:00:00	2024-11-06T09:00:00	1	Precipitación	0
137736	7	Sololá	701	Sololá	2	El tablón	2	Febrero	2023-02-18T00:00:00	2024-11-06T09:00:00	8	Radiación solar	403
137737	7	Sololá	701	Sololá	2	El tablón	2	Febrero	2023-02-18T00:00:00	2024-11-06T10:00:00	2	Temperatura media	12.6
137738	7	Sololá	701	Sololá	2	El tablón	2	Febrero	2023-02-18T00:00:00	2024-11-06T10:00:00	4	Temperatura máxima	12.6
137739	7	Sololá	701	Sololá	2	El tablón	2	Febrero	2023-02-18T00:00:00	2024-11-06T10:00:00	3	Temperatura mínima	11.7
137740	7	Sololá	701	Sololá	2	El tablón	2	Febrero	2023-02-18T00:00:00	2024-11-06T10:00:00	5	Humedad	78
137741	7	Sololá	701	Sololá	2	El tablón	2	Febrero	2023-02-18T00:00:00	2024-11-06T10:00:00	6	Velocidad del viento	27.4
137742	7	Sololá	701	Sololá	2	El tablón	2	Febrero	2023-02-18T00:00:00	2024-11-06T10:00:00	7	Dirección del viento	27.36
137743	7	Sololá	701	Sololá	2	El tablón	2	Febrero	2023-02-18T00:00:00	2024-11-06T10:00:00	1	Precipitación	0
137744	7	Sololá	701	Sololá	2	El tablón	2	Febrero	2023-02-18T00:00:00	2024-11-06T10:00:00	8	Radiación solar	589
137745	7	Sololá	701	Sololá	2	El tablón	2	Febrero	2023-02-18T00:00:00	2024-11-06T11:00:00	2	Temperatura media	13.1
137746	7	Sololá	701	Sololá	2	El tablón	2	Febrero	2023-02-18T00:00:00	2024-11-06T11:00:00	4	Temperatura máxima	13.3
137747	7	Sololá	701	Sololá	2	El tablón	2	Febrero	2023-02-18T00:00:00	2024-11-06T11:00:00	3	Temperatura mínima	12.3
137748	7	Sololá	701	Sololá	2	El tablón	2	Febrero	2023-02-18T00:00:00	2024-11-06T11:00:00	5	Humedad	77
137749	7	Sololá	701	Sololá	2	El tablón	2	Febrero	2023-02-18T00:00:00	2024-11-06T11:00:00	6	Velocidad del viento	27.4
137750	7	Sololá	701	Sololá	2	El tablón	2	Febrero	2023-02-18T00:00:00	2024-11-06T11:00:00	7	Dirección del viento	27.36
137751	7	Sololá	701	Sololá	2	El tablón	2	Febrero	2023-02-18T00:00:00	2024-11-06T11:00:00	1	Precipitación	0
137752	7	Sololá	701	Sololá	2	El tablón	2	Febrero	2023-02-18T00:00:00	2024-11-06T11:00:00	8	Radiación solar	789
137753	7	Sololá	701	Sololá	2	El tablón	2	Febrero	2023-02-18T00:00:00	2024-11-06T12:00:00	2	Temperatura media	13.9
137754	7	Sololá	701	Sololá	2	El tablón	2	Febrero	2023-02-18T00:00:00	2024-11-06T12:00:00	4	Temperatura máxima	14
137755	7	Sololá	701	Sololá	2	El tablón	2	Febrero	2023-02-18T00:00:00	2024-11-06T12:00:00	3	Temperatura mínima	12.9
137756	7	Sololá	701	Sololá	2	El tablón	2	Febrero	2023-02-18T00:00:00	2024-11-06T12:00:00	5	Humedad	76
137757	7	Sololá	701	Sololá	2	El tablón	2	Febrero	2023-02-18T00:00:00	2024-11-06T12:00:00	6	Velocidad del viento	27.4
137758	7	Sololá	701	Sololá	2	El tablón	2	Febrero	2023-02-18T00:00:00	2024-11-06T12:00:00	7	Dirección del viento	27.36
137759	7	Sololá	701	Sololá	2	El tablón	2	Febrero	2023-02-18T00:00:00	2024-11-06T12:00:00	1	Precipitación	0
137760	7	Sololá	701	Sololá	2	El tablón	2	Febrero	2023-02-18T00:00:00	2024-11-06T12:00:00	8	Radiación solar	822
137761	7	Sololá	701	Sololá	2	El tablón	2	Febrero	2023-02-18T00:00:00	2024-11-06T13:00:00	2	Temperatura media	13.6
137762	7	Sololá	701	Sololá	2	El tablón	2	Febrero	2023-02-18T00:00:00	2024-11-06T13:00:00	4	Temperatura máxima	14.1
137763	7	Sololá	701	Sololá	2	El tablón	2	Febrero	2023-02-18T00:00:00	2024-11-06T13:00:00	3	Temperatura mínima	13.4
137764	7	Sololá	701	Sololá	2	El tablón	2	Febrero	2023-02-18T00:00:00	2024-11-06T13:00:00	5	Humedad	78
137765	7	Sololá	701	Sololá	2	El tablón	2	Febrero	2023-02-18T00:00:00	2024-11-06T13:00:00	6	Velocidad del viento	27.4
137766	7	Sololá	701	Sololá	2	El tablón	2	Febrero	2023-02-18T00:00:00	2024-11-06T13:00:00	7	Dirección del viento	27.36
137767	7	Sololá	701	Sololá	2	El tablón	2	Febrero	2023-02-18T00:00:00	2024-11-06T13:00:00	1	Precipitación	0
137768	7	Sololá	701	Sololá	2	El tablón	2	Febrero	2023-02-18T00:00:00	2024-11-06T13:00:00	8	Radiación solar	880
137769	7	Sololá	701	Sololá	2	El tablón	2	Febrero	2023-02-18T00:00:00	2024-11-06T14:00:00	2	Temperatura media	12.8
137770	7	Sololá	701	Sololá	2	El tablón	2	Febrero	2023-02-18T00:00:00	2024-11-06T14:00:00	4	Temperatura máxima	13.8
137771	7	Sololá	701	Sololá	2	El tablón	2	Febrero	2023-02-18T00:00:00	2024-11-06T14:00:00	3	Temperatura mínima	12.7
137772	7	Sololá	701	Sololá	2	El tablón	2	Febrero	2023-02-18T00:00:00	2024-11-06T14:00:00	5	Humedad	81
137773	7	Sololá	701	Sololá	2	El tablón	2	Febrero	2023-02-18T00:00:00	2024-11-06T14:00:00	6	Velocidad del viento	24.1
137774	7	Sololá	701	Sololá	2	El tablón	2	Febrero	2023-02-18T00:00:00	2024-11-06T14:00:00	7	Dirección del viento	24.14
137775	7	Sololá	701	Sololá	2	El tablón	2	Febrero	2023-02-18T00:00:00	2024-11-06T14:00:00	1	Precipitación	0
137776	7	Sololá	701	Sololá	2	El tablón	2	Febrero	2023-02-18T00:00:00	2024-11-06T14:00:00	8	Radiación solar	615
137777	7	Sololá	701	Sololá	2	El tablón	2	Febrero	2023-02-18T00:00:00	2024-11-06T15:00:00	2	Temperatura media	13.2
137778	7	Sololá	701	Sololá	2	El tablón	2	Febrero	2023-02-18T00:00:00	2024-11-06T15:00:00	4	Temperatura máxima	13.2
137779	7	Sololá	701	Sololá	2	El tablón	2	Febrero	2023-02-18T00:00:00	2024-11-06T15:00:00	3	Temperatura mínima	12.5
137780	7	Sololá	701	Sololá	2	El tablón	2	Febrero	2023-02-18T00:00:00	2024-11-06T15:00:00	5	Humedad	81
137781	7	Sololá	701	Sololá	2	El tablón	2	Febrero	2023-02-18T00:00:00	2024-11-06T15:00:00	6	Velocidad del viento	19.3
137782	7	Sololá	701	Sololá	2	El tablón	2	Febrero	2023-02-18T00:00:00	2024-11-06T15:00:00	7	Dirección del viento	19.31
137783	7	Sololá	701	Sololá	2	El tablón	2	Febrero	2023-02-18T00:00:00	2024-11-06T15:00:00	1	Precipitación	0
137784	7	Sololá	701	Sololá	2	El tablón	2	Febrero	2023-02-18T00:00:00	2024-11-06T15:00:00	8	Radiación solar	334
137785	7	Sololá	701	Sololá	2	El tablón	2	Febrero	2023-02-18T00:00:00	2024-11-06T16:00:00	2	Temperatura media	12.2
137786	7	Sololá	701	Sololá	2	El tablón	2	Febrero	2023-02-18T00:00:00	2024-11-06T16:00:00	4	Temperatura máxima	13.7
137787	7	Sololá	701	Sololá	2	El tablón	2	Febrero	2023-02-18T00:00:00	2024-11-06T16:00:00	3	Temperatura mínima	12.2
137788	7	Sololá	701	Sololá	2	El tablón	2	Febrero	2023-02-18T00:00:00	2024-11-06T16:00:00	5	Humedad	83
137789	7	Sololá	701	Sololá	2	El tablón	2	Febrero	2023-02-18T00:00:00	2024-11-06T16:00:00	6	Velocidad del viento	19.3
137790	7	Sololá	701	Sololá	2	El tablón	2	Febrero	2023-02-18T00:00:00	2024-11-06T16:00:00	7	Dirección del viento	19.31
137791	7	Sololá	701	Sololá	2	El tablón	2	Febrero	2023-02-18T00:00:00	2024-11-06T16:00:00	1	Precipitación	0
137792	7	Sololá	701	Sololá	2	El tablón	2	Febrero	2023-02-18T00:00:00	2024-11-06T16:00:00	8	Radiación solar	367
137793	7	Sololá	701	Sololá	2	El tablón	2	Febrero	2023-02-18T00:00:00	2024-11-06T17:00:00	2	Temperatura media	12
137794	7	Sololá	701	Sololá	2	El tablón	2	Febrero	2023-02-18T00:00:00	2024-11-06T17:00:00	4	Temperatura máxima	12.2
137795	7	Sololá	701	Sololá	2	El tablón	2	Febrero	2023-02-18T00:00:00	2024-11-06T17:00:00	3	Temperatura mínima	11.6
137796	7	Sololá	701	Sololá	2	El tablón	2	Febrero	2023-02-18T00:00:00	2024-11-06T17:00:00	5	Humedad	81
137797	7	Sololá	701	Sololá	2	El tablón	2	Febrero	2023-02-18T00:00:00	2024-11-06T17:00:00	6	Velocidad del viento	16.1
137798	7	Sololá	701	Sololá	2	El tablón	2	Febrero	2023-02-18T00:00:00	2024-11-06T17:00:00	7	Dirección del viento	16.09
137799	7	Sololá	701	Sololá	2	El tablón	2	Febrero	2023-02-18T00:00:00	2024-11-06T17:00:00	1	Precipitación	0
137800	7	Sololá	701	Sololá	2	El tablón	2	Febrero	2023-02-18T00:00:00	2024-11-06T17:00:00	8	Radiación solar	173
137801	7	Sololá	701	Sololá	2	El tablón	2	Febrero	2023-02-18T00:00:00	2024-11-06T18:00:00	2	Temperatura media	11
137802	7	Sololá	701	Sololá	2	El tablón	2	Febrero	2023-02-18T00:00:00	2024-11-06T18:00:00	4	Temperatura máxima	11.9
137803	7	Sololá	701	Sololá	2	El tablón	2	Febrero	2023-02-18T00:00:00	2024-11-06T18:00:00	3	Temperatura mínima	11
137804	7	Sololá	701	Sololá	2	El tablón	2	Febrero	2023-02-18T00:00:00	2024-11-06T18:00:00	5	Humedad	83
137805	7	Sololá	701	Sololá	2	El tablón	2	Febrero	2023-02-18T00:00:00	2024-11-06T18:00:00	6	Velocidad del viento	22.5
137806	7	Sololá	701	Sololá	2	El tablón	2	Febrero	2023-02-18T00:00:00	2024-11-06T18:00:00	7	Dirección del viento	22.53
137807	7	Sololá	701	Sololá	2	El tablón	2	Febrero	2023-02-18T00:00:00	2024-11-06T18:00:00	1	Precipitación	0
137808	7	Sololá	701	Sololá	2	El tablón	2	Febrero	2023-02-18T00:00:00	2024-11-06T18:00:00	8	Radiación solar	114
137809	7	Sololá	701	Sololá	2	El tablón	2	Febrero	2023-02-18T00:00:00	2024-11-06T19:00:00	2	Temperatura media	10.2
137810	7	Sololá	701	Sololá	2	El tablón	2	Febrero	2023-02-18T00:00:00	2024-11-06T19:00:00	4	Temperatura máxima	11
137811	7	Sololá	701	Sololá	2	El tablón	2	Febrero	2023-02-18T00:00:00	2024-11-06T19:00:00	3	Temperatura mínima	10.1
137812	7	Sololá	701	Sololá	2	El tablón	2	Febrero	2023-02-18T00:00:00	2024-11-06T19:00:00	5	Humedad	76
137813	7	Sololá	701	Sololá	2	El tablón	2	Febrero	2023-02-18T00:00:00	2024-11-06T19:00:00	6	Velocidad del viento	19.3
137814	7	Sololá	701	Sololá	2	El tablón	2	Febrero	2023-02-18T00:00:00	2024-11-06T19:00:00	7	Dirección del viento	19.31
137815	7	Sololá	701	Sololá	2	El tablón	2	Febrero	2023-02-18T00:00:00	2024-11-06T19:00:00	1	Precipitación	0
137816	7	Sololá	701	Sololá	2	El tablón	2	Febrero	2023-02-18T00:00:00	2024-11-06T19:00:00	8	Radiación solar	0
137817	7	Sololá	701	Sololá	2	El tablón	2	Febrero	2023-02-18T00:00:00	2024-11-06T20:00:00	2	Temperatura media	9.8
137818	7	Sololá	701	Sololá	2	El tablón	2	Febrero	2023-02-18T00:00:00	2024-11-06T20:00:00	4	Temperatura máxima	10.2
137819	7	Sololá	701	Sololá	2	El tablón	2	Febrero	2023-02-18T00:00:00	2024-11-06T20:00:00	3	Temperatura mínima	9.8
137820	7	Sololá	701	Sololá	2	El tablón	2	Febrero	2023-02-18T00:00:00	2024-11-06T20:00:00	5	Humedad	84
137821	7	Sololá	701	Sololá	2	El tablón	2	Febrero	2023-02-18T00:00:00	2024-11-06T20:00:00	6	Velocidad del viento	17.7
137822	7	Sololá	701	Sololá	2	El tablón	2	Febrero	2023-02-18T00:00:00	2024-11-06T20:00:00	7	Dirección del viento	17.7
137823	7	Sololá	701	Sololá	2	El tablón	2	Febrero	2023-02-18T00:00:00	2024-11-06T20:00:00	1	Precipitación	0
137824	7	Sololá	701	Sololá	2	El tablón	2	Febrero	2023-02-18T00:00:00	2024-11-06T20:00:00	8	Radiación solar	0
137825	7	Sololá	701	Sololá	2	El tablón	2	Febrero	2023-02-18T00:00:00	2024-11-06T21:00:00	2	Temperatura media	10.2
137826	7	Sololá	701	Sololá	2	El tablón	2	Febrero	2023-02-18T00:00:00	2024-11-06T21:00:00	4	Temperatura máxima	10.2
137827	7	Sololá	701	Sololá	2	El tablón	2	Febrero	2023-02-18T00:00:00	2024-11-06T21:00:00	3	Temperatura mínima	9.8
137828	7	Sololá	701	Sololá	2	El tablón	2	Febrero	2023-02-18T00:00:00	2024-11-06T21:00:00	5	Humedad	85
137829	7	Sololá	701	Sololá	2	El tablón	2	Febrero	2023-02-18T00:00:00	2024-11-06T21:00:00	6	Velocidad del viento	19.3
137830	7	Sololá	701	Sololá	2	El tablón	2	Febrero	2023-02-18T00:00:00	2024-11-06T21:00:00	7	Dirección del viento	19.31
137831	7	Sololá	701	Sololá	2	El tablón	2	Febrero	2023-02-18T00:00:00	2024-11-06T21:00:00	1	Precipitación	0
137832	7	Sololá	701	Sololá	2	El tablón	2	Febrero	2023-02-18T00:00:00	2024-11-06T21:00:00	8	Radiación solar	0
137833	7	Sololá	701	Sololá	2	El tablón	2	Febrero	2023-02-18T00:00:00	2024-11-06T22:00:00	2	Temperatura media	9.5
137834	7	Sololá	701	Sololá	2	El tablón	2	Febrero	2023-02-18T00:00:00	2024-11-06T22:00:00	4	Temperatura máxima	10.2
137835	7	Sololá	701	Sololá	2	El tablón	2	Febrero	2023-02-18T00:00:00	2024-11-06T22:00:00	3	Temperatura mínima	9.5
137836	7	Sololá	701	Sololá	2	El tablón	2	Febrero	2023-02-18T00:00:00	2024-11-06T22:00:00	5	Humedad	89
137837	7	Sololá	701	Sololá	2	El tablón	2	Febrero	2023-02-18T00:00:00	2024-11-06T22:00:00	6	Velocidad del viento	24.1
137838	7	Sololá	701	Sololá	2	El tablón	2	Febrero	2023-02-18T00:00:00	2024-11-06T22:00:00	7	Dirección del viento	24.14
137839	7	Sololá	701	Sololá	2	El tablón	2	Febrero	2023-02-18T00:00:00	2024-11-06T22:00:00	1	Precipitación	0
137840	7	Sololá	701	Sololá	2	El tablón	2	Febrero	2023-02-18T00:00:00	2024-11-06T22:00:00	8	Radiación solar	0
137841	7	Sololá	701	Sololá	2	El tablón	2	Febrero	2023-02-18T00:00:00	2024-11-06T23:00:00	2	Temperatura media	9.6
137842	7	Sololá	701	Sololá	2	El tablón	2	Febrero	2023-02-18T00:00:00	2024-11-06T23:00:00	4	Temperatura máxima	9.8
137843	7	Sololá	701	Sololá	2	El tablón	2	Febrero	2023-02-18T00:00:00	2024-11-06T23:00:00	3	Temperatura mínima	9.5
137844	7	Sololá	701	Sololá	2	El tablón	2	Febrero	2023-02-18T00:00:00	2024-11-06T23:00:00	5	Humedad	89
137845	7	Sololá	701	Sololá	2	El tablón	2	Febrero	2023-02-18T00:00:00	2024-11-06T23:00:00	6	Velocidad del viento	27.4
137846	7	Sololá	701	Sololá	2	El tablón	2	Febrero	2023-02-18T00:00:00	2024-11-06T23:00:00	7	Dirección del viento	27.36
137847	7	Sololá	701	Sololá	2	El tablón	2	Febrero	2023-02-18T00:00:00	2024-11-06T23:00:00	1	Precipitación	0
137848	7	Sololá	701	Sololá	2	El tablón	2	Febrero	2023-02-18T00:00:00	2024-11-06T23:00:00	8	Radiación solar	0
137849	7	Sololá	701	Sololá	2	El tablón	2	Febrero	2023-02-19T00:00:00	2024-11-06T00:00:00	2	Temperatura media	9.9
137850	7	Sololá	701	Sololá	2	El tablón	2	Febrero	2023-02-19T00:00:00	2024-11-06T00:00:00	4	Temperatura máxima	9.9
137851	7	Sololá	701	Sololá	2	El tablón	2	Febrero	2023-02-19T00:00:00	2024-11-06T00:00:00	3	Temperatura mínima	9.5
137852	7	Sololá	701	Sololá	2	El tablón	2	Febrero	2023-02-19T00:00:00	2024-11-06T00:00:00	5	Humedad	89
137853	7	Sololá	701	Sololá	2	El tablón	2	Febrero	2023-02-19T00:00:00	2024-11-06T00:00:00	6	Velocidad del viento	25.7
137854	7	Sololá	701	Sololá	2	El tablón	2	Febrero	2023-02-19T00:00:00	2024-11-06T00:00:00	7	Dirección del viento	25.75
137855	7	Sololá	701	Sololá	2	El tablón	2	Febrero	2023-02-19T00:00:00	2024-11-06T00:00:00	1	Precipitación	0
137856	7	Sololá	701	Sololá	2	El tablón	2	Febrero	2023-02-19T00:00:00	2024-11-06T00:00:00	8	Radiación solar	0
137857	7	Sololá	701	Sololá	2	El tablón	2	Febrero	2023-02-19T00:00:00	2024-11-06T01:00:00	2	Temperatura media	9.3
137858	7	Sololá	701	Sololá	2	El tablón	2	Febrero	2023-02-19T00:00:00	2024-11-06T01:00:00	4	Temperatura máxima	9.9
137859	7	Sololá	701	Sololá	2	El tablón	2	Febrero	2023-02-19T00:00:00	2024-11-06T01:00:00	3	Temperatura mínima	9.3
137860	7	Sololá	701	Sololá	2	El tablón	2	Febrero	2023-02-19T00:00:00	2024-11-06T01:00:00	5	Humedad	90
137861	7	Sololá	701	Sololá	2	El tablón	2	Febrero	2023-02-19T00:00:00	2024-11-06T01:00:00	6	Velocidad del viento	22.5
137862	7	Sololá	701	Sololá	2	El tablón	2	Febrero	2023-02-19T00:00:00	2024-11-06T01:00:00	7	Dirección del viento	22.53
137863	7	Sololá	701	Sololá	2	El tablón	2	Febrero	2023-02-19T00:00:00	2024-11-06T01:00:00	1	Precipitación	0
137864	7	Sololá	701	Sololá	2	El tablón	2	Febrero	2023-02-19T00:00:00	2024-11-06T01:00:00	8	Radiación solar	0
137865	7	Sololá	701	Sololá	2	El tablón	2	Febrero	2023-02-19T00:00:00	2024-11-06T02:00:00	2	Temperatura media	9.3
137866	7	Sololá	701	Sololá	2	El tablón	2	Febrero	2023-02-19T00:00:00	2024-11-06T02:00:00	4	Temperatura máxima	9.4
137867	7	Sololá	701	Sololá	2	El tablón	2	Febrero	2023-02-19T00:00:00	2024-11-06T02:00:00	3	Temperatura mínima	9.3
137868	7	Sololá	701	Sololá	2	El tablón	2	Febrero	2023-02-19T00:00:00	2024-11-06T02:00:00	5	Humedad	90
137869	7	Sololá	701	Sololá	2	El tablón	2	Febrero	2023-02-19T00:00:00	2024-11-06T02:00:00	6	Velocidad del viento	24.1
137870	7	Sololá	701	Sololá	2	El tablón	2	Febrero	2023-02-19T00:00:00	2024-11-06T02:00:00	7	Dirección del viento	24.14
137871	7	Sololá	701	Sololá	2	El tablón	2	Febrero	2023-02-19T00:00:00	2024-11-06T02:00:00	1	Precipitación	0
137872	7	Sololá	701	Sololá	2	El tablón	2	Febrero	2023-02-19T00:00:00	2024-11-06T02:00:00	8	Radiación solar	0
137873	7	Sololá	701	Sololá	2	El tablón	2	Febrero	2023-02-19T00:00:00	2024-11-06T03:00:00	2	Temperatura media	9.2
137874	7	Sololá	701	Sololá	2	El tablón	2	Febrero	2023-02-19T00:00:00	2024-11-06T03:00:00	4	Temperatura máxima	9.4
137875	7	Sololá	701	Sololá	2	El tablón	2	Febrero	2023-02-19T00:00:00	2024-11-06T03:00:00	3	Temperatura mínima	9.2
137876	7	Sololá	701	Sololá	2	El tablón	2	Febrero	2023-02-19T00:00:00	2024-11-06T03:00:00	5	Humedad	90
137877	7	Sololá	701	Sololá	2	El tablón	2	Febrero	2023-02-19T00:00:00	2024-11-06T03:00:00	6	Velocidad del viento	22.5
137878	7	Sololá	701	Sololá	2	El tablón	2	Febrero	2023-02-19T00:00:00	2024-11-06T03:00:00	7	Dirección del viento	22.53
137879	7	Sololá	701	Sololá	2	El tablón	2	Febrero	2023-02-19T00:00:00	2024-11-06T03:00:00	1	Precipitación	0
137880	7	Sololá	701	Sololá	2	El tablón	2	Febrero	2023-02-19T00:00:00	2024-11-06T03:00:00	8	Radiación solar	0
137881	7	Sololá	701	Sololá	2	El tablón	2	Febrero	2023-02-19T00:00:00	2024-11-06T04:00:00	2	Temperatura media	8.8
137882	7	Sololá	701	Sololá	2	El tablón	2	Febrero	2023-02-19T00:00:00	2024-11-06T04:00:00	4	Temperatura máxima	9.2
137883	7	Sololá	701	Sololá	2	El tablón	2	Febrero	2023-02-19T00:00:00	2024-11-06T04:00:00	3	Temperatura mínima	8.8
137884	7	Sololá	701	Sololá	2	El tablón	2	Febrero	2023-02-19T00:00:00	2024-11-06T04:00:00	5	Humedad	90
137885	7	Sololá	701	Sololá	2	El tablón	2	Febrero	2023-02-19T00:00:00	2024-11-06T04:00:00	6	Velocidad del viento	22.5
137886	7	Sololá	701	Sololá	2	El tablón	2	Febrero	2023-02-19T00:00:00	2024-11-06T04:00:00	7	Dirección del viento	22.53
137887	7	Sololá	701	Sololá	2	El tablón	2	Febrero	2023-02-19T00:00:00	2024-11-06T04:00:00	1	Precipitación	0
137888	7	Sololá	701	Sololá	2	El tablón	2	Febrero	2023-02-19T00:00:00	2024-11-06T04:00:00	8	Radiación solar	0
137889	7	Sololá	701	Sololá	2	El tablón	2	Febrero	2023-02-19T00:00:00	2024-11-06T05:00:00	2	Temperatura media	8.9
137890	7	Sololá	701	Sololá	2	El tablón	2	Febrero	2023-02-19T00:00:00	2024-11-06T05:00:00	4	Temperatura máxima	8.9
137891	7	Sololá	701	Sololá	2	El tablón	2	Febrero	2023-02-19T00:00:00	2024-11-06T05:00:00	3	Temperatura mínima	8.7
137892	7	Sololá	701	Sololá	2	El tablón	2	Febrero	2023-02-19T00:00:00	2024-11-06T05:00:00	5	Humedad	90
137893	7	Sololá	701	Sololá	2	El tablón	2	Febrero	2023-02-19T00:00:00	2024-11-06T05:00:00	6	Velocidad del viento	22.5
137894	7	Sololá	701	Sololá	2	El tablón	2	Febrero	2023-02-19T00:00:00	2024-11-06T05:00:00	7	Dirección del viento	22.53
137895	7	Sololá	701	Sololá	2	El tablón	2	Febrero	2023-02-19T00:00:00	2024-11-06T05:00:00	1	Precipitación	0
137896	7	Sololá	701	Sololá	2	El tablón	2	Febrero	2023-02-19T00:00:00	2024-11-06T05:00:00	8	Radiación solar	0
137897	7	Sololá	701	Sololá	2	El tablón	2	Febrero	2023-02-19T00:00:00	2024-11-06T06:00:00	2	Temperatura media	8.8
137898	7	Sololá	701	Sololá	2	El tablón	2	Febrero	2023-02-19T00:00:00	2024-11-06T06:00:00	4	Temperatura máxima	9.2
137899	7	Sololá	701	Sololá	2	El tablón	2	Febrero	2023-02-19T00:00:00	2024-11-06T06:00:00	3	Temperatura mínima	8.8
137900	7	Sololá	701	Sololá	2	El tablón	2	Febrero	2023-02-19T00:00:00	2024-11-06T06:00:00	5	Humedad	90
137901	7	Sololá	701	Sololá	2	El tablón	2	Febrero	2023-02-19T00:00:00	2024-11-06T06:00:00	6	Velocidad del viento	20.9
137902	7	Sololá	701	Sololá	2	El tablón	2	Febrero	2023-02-19T00:00:00	2024-11-06T06:00:00	7	Dirección del viento	20.92
137903	7	Sololá	701	Sololá	2	El tablón	2	Febrero	2023-02-19T00:00:00	2024-11-06T06:00:00	1	Precipitación	0
137904	7	Sololá	701	Sololá	2	El tablón	2	Febrero	2023-02-19T00:00:00	2024-11-06T06:00:00	8	Radiación solar	0
137905	7	Sololá	701	Sololá	2	El tablón	2	Febrero	2023-02-19T00:00:00	2024-11-06T07:00:00	2	Temperatura media	9
137906	7	Sololá	701	Sololá	2	El tablón	2	Febrero	2023-02-19T00:00:00	2024-11-06T07:00:00	4	Temperatura máxima	9.2
137907	7	Sololá	701	Sololá	2	El tablón	2	Febrero	2023-02-19T00:00:00	2024-11-06T07:00:00	3	Temperatura mínima	8.8
137908	7	Sololá	701	Sololá	2	El tablón	2	Febrero	2023-02-19T00:00:00	2024-11-06T07:00:00	5	Humedad	90
137909	7	Sololá	701	Sololá	2	El tablón	2	Febrero	2023-02-19T00:00:00	2024-11-06T07:00:00	6	Velocidad del viento	19.3
137910	7	Sololá	701	Sololá	2	El tablón	2	Febrero	2023-02-19T00:00:00	2024-11-06T07:00:00	7	Dirección del viento	19.31
137911	7	Sololá	701	Sololá	2	El tablón	2	Febrero	2023-02-19T00:00:00	2024-11-06T07:00:00	1	Precipitación	0.2
137912	7	Sololá	701	Sololá	2	El tablón	2	Febrero	2023-02-19T00:00:00	2024-11-06T07:00:00	8	Radiación solar	7
137913	7	Sololá	701	Sololá	2	El tablón	2	Febrero	2023-02-19T00:00:00	2024-11-06T08:00:00	2	Temperatura media	9.8
137914	7	Sololá	701	Sololá	2	El tablón	2	Febrero	2023-02-19T00:00:00	2024-11-06T08:00:00	4	Temperatura máxima	9.8
137915	7	Sololá	701	Sololá	2	El tablón	2	Febrero	2023-02-19T00:00:00	2024-11-06T08:00:00	3	Temperatura mínima	8.9
137916	7	Sololá	701	Sololá	2	El tablón	2	Febrero	2023-02-19T00:00:00	2024-11-06T08:00:00	5	Humedad	89
137917	7	Sololá	701	Sololá	2	El tablón	2	Febrero	2023-02-19T00:00:00	2024-11-06T08:00:00	6	Velocidad del viento	20.9
137918	7	Sololá	701	Sololá	2	El tablón	2	Febrero	2023-02-19T00:00:00	2024-11-06T08:00:00	7	Dirección del viento	20.92
137919	7	Sololá	701	Sololá	2	El tablón	2	Febrero	2023-02-19T00:00:00	2024-11-06T08:00:00	1	Precipitación	0
137920	7	Sololá	701	Sololá	2	El tablón	2	Febrero	2023-02-19T00:00:00	2024-11-06T08:00:00	8	Radiación solar	101
137921	7	Sololá	701	Sololá	2	El tablón	2	Febrero	2023-02-19T00:00:00	2024-11-06T09:00:00	2	Temperatura media	10
137922	7	Sololá	701	Sololá	2	El tablón	2	Febrero	2023-02-19T00:00:00	2024-11-06T09:00:00	4	Temperatura máxima	10.6
137923	7	Sololá	701	Sololá	2	El tablón	2	Febrero	2023-02-19T00:00:00	2024-11-06T09:00:00	3	Temperatura mínima	9.8
137924	7	Sololá	701	Sololá	2	El tablón	2	Febrero	2023-02-19T00:00:00	2024-11-06T09:00:00	5	Humedad	89
137925	7	Sololá	701	Sololá	2	El tablón	2	Febrero	2023-02-19T00:00:00	2024-11-06T09:00:00	6	Velocidad del viento	22.5
137926	7	Sololá	701	Sololá	2	El tablón	2	Febrero	2023-02-19T00:00:00	2024-11-06T09:00:00	7	Dirección del viento	22.53
137927	7	Sololá	701	Sololá	2	El tablón	2	Febrero	2023-02-19T00:00:00	2024-11-06T09:00:00	1	Precipitación	0
137928	7	Sololá	701	Sololá	2	El tablón	2	Febrero	2023-02-19T00:00:00	2024-11-06T09:00:00	8	Radiación solar	248
137929	7	Sololá	701	Sololá	2	El tablón	2	Febrero	2023-02-19T00:00:00	2024-11-06T10:00:00	2	Temperatura media	10.8
137930	7	Sololá	701	Sololá	2	El tablón	2	Febrero	2023-02-19T00:00:00	2024-11-06T10:00:00	4	Temperatura máxima	10.8
137931	7	Sololá	701	Sololá	2	El tablón	2	Febrero	2023-02-19T00:00:00	2024-11-06T10:00:00	3	Temperatura mínima	9.9
137932	7	Sololá	701	Sololá	2	El tablón	2	Febrero	2023-02-19T00:00:00	2024-11-06T10:00:00	5	Humedad	88
137933	7	Sololá	701	Sololá	2	El tablón	2	Febrero	2023-02-19T00:00:00	2024-11-06T10:00:00	6	Velocidad del viento	22.5
137934	7	Sololá	701	Sololá	2	El tablón	2	Febrero	2023-02-19T00:00:00	2024-11-06T10:00:00	7	Dirección del viento	22.53
137935	7	Sololá	701	Sololá	2	El tablón	2	Febrero	2023-02-19T00:00:00	2024-11-06T10:00:00	1	Precipitación	0
137936	7	Sololá	701	Sololá	2	El tablón	2	Febrero	2023-02-19T00:00:00	2024-11-06T10:00:00	8	Radiación solar	315
137937	7	Sololá	701	Sololá	2	El tablón	2	Febrero	2023-02-19T00:00:00	2024-11-06T11:00:00	2	Temperatura media	11.1
137938	7	Sololá	701	Sololá	2	El tablón	2	Febrero	2023-02-19T00:00:00	2024-11-06T11:00:00	4	Temperatura máxima	11.6
137939	7	Sololá	701	Sololá	2	El tablón	2	Febrero	2023-02-19T00:00:00	2024-11-06T11:00:00	3	Temperatura mínima	10.6
137940	7	Sololá	701	Sololá	2	El tablón	2	Febrero	2023-02-19T00:00:00	2024-11-06T11:00:00	5	Humedad	86
137941	7	Sololá	701	Sololá	2	El tablón	2	Febrero	2023-02-19T00:00:00	2024-11-06T11:00:00	6	Velocidad del viento	25.7
137942	7	Sololá	701	Sololá	2	El tablón	2	Febrero	2023-02-19T00:00:00	2024-11-06T11:00:00	7	Dirección del viento	25.75
137943	7	Sololá	701	Sololá	2	El tablón	2	Febrero	2023-02-19T00:00:00	2024-11-06T11:00:00	1	Precipitación	0
137944	7	Sololá	701	Sololá	2	El tablón	2	Febrero	2023-02-19T00:00:00	2024-11-06T11:00:00	8	Radiación solar	494
137945	7	Sololá	701	Sololá	2	El tablón	2	Febrero	2023-02-19T00:00:00	2024-11-06T12:00:00	2	Temperatura media	11.3
137946	7	Sololá	701	Sololá	2	El tablón	2	Febrero	2023-02-19T00:00:00	2024-11-06T12:00:00	4	Temperatura máxima	11.6
137947	7	Sololá	701	Sololá	2	El tablón	2	Febrero	2023-02-19T00:00:00	2024-11-06T12:00:00	3	Temperatura mínima	10.8
137948	7	Sololá	701	Sololá	2	El tablón	2	Febrero	2023-02-19T00:00:00	2024-11-06T12:00:00	5	Humedad	86
137949	7	Sololá	701	Sololá	2	El tablón	2	Febrero	2023-02-19T00:00:00	2024-11-06T12:00:00	6	Velocidad del viento	17.7
137950	7	Sololá	701	Sololá	2	El tablón	2	Febrero	2023-02-19T00:00:00	2024-11-06T12:00:00	7	Dirección del viento	17.7
137951	7	Sololá	701	Sololá	2	El tablón	2	Febrero	2023-02-19T00:00:00	2024-11-06T12:00:00	1	Precipitación	0
137952	7	Sololá	701	Sololá	2	El tablón	2	Febrero	2023-02-19T00:00:00	2024-11-06T12:00:00	8	Radiación solar	341
137953	7	Sololá	701	Sololá	2	El tablón	2	Febrero	2023-02-19T00:00:00	2024-11-06T13:00:00	2	Temperatura media	12.5
137954	7	Sololá	701	Sololá	2	El tablón	2	Febrero	2023-02-19T00:00:00	2024-11-06T13:00:00	4	Temperatura máxima	12.6
137955	7	Sololá	701	Sololá	2	El tablón	2	Febrero	2023-02-19T00:00:00	2024-11-06T13:00:00	3	Temperatura mínima	11.1
137956	7	Sololá	701	Sololá	2	El tablón	2	Febrero	2023-02-19T00:00:00	2024-11-06T13:00:00	5	Humedad	81
137957	7	Sololá	701	Sololá	2	El tablón	2	Febrero	2023-02-19T00:00:00	2024-11-06T13:00:00	6	Velocidad del viento	20.9
137958	7	Sololá	701	Sololá	2	El tablón	2	Febrero	2023-02-19T00:00:00	2024-11-06T13:00:00	7	Dirección del viento	20.92
137959	7	Sololá	701	Sololá	2	El tablón	2	Febrero	2023-02-19T00:00:00	2024-11-06T13:00:00	1	Precipitación	0
137960	7	Sololá	701	Sololá	2	El tablón	2	Febrero	2023-02-19T00:00:00	2024-11-06T13:00:00	8	Radiación solar	536
137961	7	Sololá	701	Sololá	2	El tablón	2	Febrero	2023-02-19T00:00:00	2024-11-06T14:00:00	2	Temperatura media	12.8
137962	7	Sololá	701	Sololá	2	El tablón	2	Febrero	2023-02-19T00:00:00	2024-11-06T14:00:00	4	Temperatura máxima	13.1
137963	7	Sololá	701	Sololá	2	El tablón	2	Febrero	2023-02-19T00:00:00	2024-11-06T14:00:00	3	Temperatura mínima	12.3
137964	7	Sololá	701	Sololá	2	El tablón	2	Febrero	2023-02-19T00:00:00	2024-11-06T14:00:00	5	Humedad	82
137965	7	Sololá	701	Sololá	2	El tablón	2	Febrero	2023-02-19T00:00:00	2024-11-06T14:00:00	6	Velocidad del viento	24.1
137966	7	Sololá	701	Sololá	2	El tablón	2	Febrero	2023-02-19T00:00:00	2024-11-06T14:00:00	7	Dirección del viento	24.14
137967	7	Sololá	701	Sololá	2	El tablón	2	Febrero	2023-02-19T00:00:00	2024-11-06T14:00:00	1	Precipitación	0
137968	7	Sololá	701	Sololá	2	El tablón	2	Febrero	2023-02-19T00:00:00	2024-11-06T14:00:00	8	Radiación solar	921
137969	7	Sololá	701	Sololá	2	El tablón	2	Febrero	2023-02-19T00:00:00	2024-11-06T15:00:00	2	Temperatura media	13.7
137970	7	Sololá	701	Sololá	2	El tablón	2	Febrero	2023-02-19T00:00:00	2024-11-06T15:00:00	4	Temperatura máxima	13.9
137971	7	Sololá	701	Sololá	2	El tablón	2	Febrero	2023-02-19T00:00:00	2024-11-06T15:00:00	3	Temperatura mínima	12.7
137972	7	Sololá	701	Sololá	2	El tablón	2	Febrero	2023-02-19T00:00:00	2024-11-06T15:00:00	5	Humedad	78
137973	7	Sololá	701	Sololá	2	El tablón	2	Febrero	2023-02-19T00:00:00	2024-11-06T15:00:00	6	Velocidad del viento	22.5
137974	7	Sololá	701	Sololá	2	El tablón	2	Febrero	2023-02-19T00:00:00	2024-11-06T15:00:00	7	Dirección del viento	22.53
137975	7	Sololá	701	Sololá	2	El tablón	2	Febrero	2023-02-19T00:00:00	2024-11-06T15:00:00	1	Precipitación	0
137976	7	Sololá	701	Sololá	2	El tablón	2	Febrero	2023-02-19T00:00:00	2024-11-06T15:00:00	8	Radiación solar	767
137977	7	Sololá	701	Sololá	2	El tablón	2	Febrero	2023-02-19T00:00:00	2024-11-06T16:00:00	2	Temperatura media	14.3
137978	7	Sololá	701	Sololá	2	El tablón	2	Febrero	2023-02-19T00:00:00	2024-11-06T16:00:00	4	Temperatura máxima	14.3
137979	7	Sololá	701	Sololá	2	El tablón	2	Febrero	2023-02-19T00:00:00	2024-11-06T16:00:00	3	Temperatura mínima	13.7
137980	7	Sololá	701	Sololá	2	El tablón	2	Febrero	2023-02-19T00:00:00	2024-11-06T16:00:00	5	Humedad	76
137981	7	Sololá	701	Sololá	2	El tablón	2	Febrero	2023-02-19T00:00:00	2024-11-06T16:00:00	6	Velocidad del viento	20.9
137982	7	Sololá	701	Sololá	2	El tablón	2	Febrero	2023-02-19T00:00:00	2024-11-06T16:00:00	7	Dirección del viento	20.92
137983	7	Sololá	701	Sololá	2	El tablón	2	Febrero	2023-02-19T00:00:00	2024-11-06T16:00:00	1	Precipitación	0
137984	7	Sololá	701	Sololá	2	El tablón	2	Febrero	2023-02-19T00:00:00	2024-11-06T16:00:00	8	Radiación solar	596
137985	7	Sololá	701	Sololá	2	El tablón	2	Febrero	2023-02-19T00:00:00	2024-11-06T17:00:00	2	Temperatura media	13.6
137986	7	Sololá	701	Sololá	2	El tablón	2	Febrero	2023-02-19T00:00:00	2024-11-06T17:00:00	4	Temperatura máxima	14.5
137987	7	Sololá	701	Sololá	2	El tablón	2	Febrero	2023-02-19T00:00:00	2024-11-06T17:00:00	3	Temperatura mínima	13.6
137988	7	Sololá	701	Sololá	2	El tablón	2	Febrero	2023-02-19T00:00:00	2024-11-06T17:00:00	5	Humedad	77
137989	7	Sololá	701	Sololá	2	El tablón	2	Febrero	2023-02-19T00:00:00	2024-11-06T17:00:00	6	Velocidad del viento	20.9
137990	7	Sololá	701	Sololá	2	El tablón	2	Febrero	2023-02-19T00:00:00	2024-11-06T17:00:00	7	Dirección del viento	20.92
137991	7	Sololá	701	Sololá	2	El tablón	2	Febrero	2023-02-19T00:00:00	2024-11-06T17:00:00	1	Precipitación	0
137992	7	Sololá	701	Sololá	2	El tablón	2	Febrero	2023-02-19T00:00:00	2024-11-06T17:00:00	8	Radiación solar	381
137993	7	Sololá	701	Sololá	2	El tablón	2	Febrero	2023-02-19T00:00:00	2024-11-06T18:00:00	2	Temperatura media	11.7
137994	7	Sololá	701	Sololá	2	El tablón	2	Febrero	2023-02-19T00:00:00	2024-11-06T18:00:00	4	Temperatura máxima	13.6
137995	7	Sololá	701	Sololá	2	El tablón	2	Febrero	2023-02-19T00:00:00	2024-11-06T18:00:00	3	Temperatura mínima	11.7
137996	7	Sololá	701	Sololá	2	El tablón	2	Febrero	2023-02-19T00:00:00	2024-11-06T18:00:00	5	Humedad	85
137997	7	Sololá	701	Sololá	2	El tablón	2	Febrero	2023-02-19T00:00:00	2024-11-06T18:00:00	6	Velocidad del viento	17.7
137998	7	Sololá	701	Sololá	2	El tablón	2	Febrero	2023-02-19T00:00:00	2024-11-06T18:00:00	7	Dirección del viento	17.7
137999	7	Sololá	701	Sololá	2	El tablón	2	Febrero	2023-02-19T00:00:00	2024-11-06T18:00:00	1	Precipitación	0
138000	7	Sololá	701	Sololá	2	El tablón	2	Febrero	2023-02-19T00:00:00	2024-11-06T18:00:00	8	Radiación solar	126
138001	7	Sololá	701	Sololá	2	El tablón	2	Febrero	2023-02-19T00:00:00	2024-11-06T19:00:00	2	Temperatura media	10.7
138002	7	Sololá	701	Sololá	2	El tablón	2	Febrero	2023-02-19T00:00:00	2024-11-06T19:00:00	4	Temperatura máxima	11.7
138003	7	Sololá	701	Sololá	2	El tablón	2	Febrero	2023-02-19T00:00:00	2024-11-06T19:00:00	3	Temperatura mínima	10.6
138004	7	Sololá	701	Sololá	2	El tablón	2	Febrero	2023-02-19T00:00:00	2024-11-06T19:00:00	5	Humedad	87
138005	7	Sololá	701	Sololá	2	El tablón	2	Febrero	2023-02-19T00:00:00	2024-11-06T19:00:00	6	Velocidad del viento	19.3
138006	7	Sololá	701	Sololá	2	El tablón	2	Febrero	2023-02-19T00:00:00	2024-11-06T19:00:00	7	Dirección del viento	19.31
138007	7	Sololá	701	Sololá	2	El tablón	2	Febrero	2023-02-19T00:00:00	2024-11-06T19:00:00	1	Precipitación	0
138008	7	Sololá	701	Sololá	2	El tablón	2	Febrero	2023-02-19T00:00:00	2024-11-06T19:00:00	8	Radiación solar	0
138009	7	Sololá	701	Sololá	2	El tablón	2	Febrero	2023-02-19T00:00:00	2024-11-06T20:00:00	2	Temperatura media	10.2
138010	7	Sololá	701	Sololá	2	El tablón	2	Febrero	2023-02-19T00:00:00	2024-11-06T20:00:00	4	Temperatura máxima	10.7
138011	7	Sololá	701	Sololá	2	El tablón	2	Febrero	2023-02-19T00:00:00	2024-11-06T20:00:00	3	Temperatura mínima	10.2
138012	7	Sololá	701	Sololá	2	El tablón	2	Febrero	2023-02-19T00:00:00	2024-11-06T20:00:00	5	Humedad	88
138013	7	Sololá	701	Sololá	2	El tablón	2	Febrero	2023-02-19T00:00:00	2024-11-06T20:00:00	6	Velocidad del viento	19.3
138014	7	Sololá	701	Sololá	2	El tablón	2	Febrero	2023-02-19T00:00:00	2024-11-06T20:00:00	7	Dirección del viento	19.31
138015	7	Sololá	701	Sololá	2	El tablón	2	Febrero	2023-02-19T00:00:00	2024-11-06T20:00:00	1	Precipitación	0
138016	7	Sololá	701	Sololá	2	El tablón	2	Febrero	2023-02-19T00:00:00	2024-11-06T20:00:00	8	Radiación solar	0
138017	7	Sololá	701	Sololá	2	El tablón	2	Febrero	2023-02-19T00:00:00	2024-11-06T21:00:00	2	Temperatura media	10.3
138018	7	Sololá	701	Sololá	2	El tablón	2	Febrero	2023-02-19T00:00:00	2024-11-06T21:00:00	4	Temperatura máxima	10.3
138019	7	Sololá	701	Sololá	2	El tablón	2	Febrero	2023-02-19T00:00:00	2024-11-06T21:00:00	3	Temperatura mínima	10.2
138020	7	Sololá	701	Sololá	2	El tablón	2	Febrero	2023-02-19T00:00:00	2024-11-06T21:00:00	5	Humedad	85
138021	7	Sololá	701	Sololá	2	El tablón	2	Febrero	2023-02-19T00:00:00	2024-11-06T21:00:00	6	Velocidad del viento	16.1
138022	7	Sololá	701	Sololá	2	El tablón	2	Febrero	2023-02-19T00:00:00	2024-11-06T21:00:00	7	Dirección del viento	16.09
138023	7	Sololá	701	Sololá	2	El tablón	2	Febrero	2023-02-19T00:00:00	2024-11-06T21:00:00	1	Precipitación	0
138024	7	Sololá	701	Sololá	2	El tablón	2	Febrero	2023-02-19T00:00:00	2024-11-06T21:00:00	8	Radiación solar	0
138025	7	Sololá	701	Sololá	2	El tablón	2	Febrero	2023-02-19T00:00:00	2024-11-06T22:00:00	2	Temperatura media	9.8
138026	7	Sololá	701	Sololá	2	El tablón	2	Febrero	2023-02-19T00:00:00	2024-11-06T22:00:00	4	Temperatura máxima	10.3
138027	7	Sololá	701	Sololá	2	El tablón	2	Febrero	2023-02-19T00:00:00	2024-11-06T22:00:00	3	Temperatura mínima	9.7
138028	7	Sololá	701	Sololá	2	El tablón	2	Febrero	2023-02-19T00:00:00	2024-11-06T22:00:00	5	Humedad	85
138029	7	Sololá	701	Sololá	2	El tablón	2	Febrero	2023-02-19T00:00:00	2024-11-06T22:00:00	6	Velocidad del viento	12.9
138030	7	Sololá	701	Sololá	2	El tablón	2	Febrero	2023-02-19T00:00:00	2024-11-06T22:00:00	7	Dirección del viento	12.87
138031	7	Sololá	701	Sololá	2	El tablón	2	Febrero	2023-02-19T00:00:00	2024-11-06T22:00:00	1	Precipitación	0
138032	7	Sololá	701	Sololá	2	El tablón	2	Febrero	2023-02-19T00:00:00	2024-11-06T22:00:00	8	Radiación solar	0
138033	7	Sololá	701	Sololá	2	El tablón	2	Febrero	2023-02-19T00:00:00	2024-11-06T23:00:00	2	Temperatura media	9.7
138034	7	Sololá	701	Sololá	2	El tablón	2	Febrero	2023-02-19T00:00:00	2024-11-06T23:00:00	4	Temperatura máxima	9.8
138035	7	Sololá	701	Sololá	2	El tablón	2	Febrero	2023-02-19T00:00:00	2024-11-06T23:00:00	3	Temperatura mínima	9.5
138036	7	Sololá	701	Sololá	2	El tablón	2	Febrero	2023-02-19T00:00:00	2024-11-06T23:00:00	5	Humedad	82
138037	7	Sololá	701	Sololá	2	El tablón	2	Febrero	2023-02-19T00:00:00	2024-11-06T23:00:00	6	Velocidad del viento	12.9
138038	7	Sololá	701	Sololá	2	El tablón	2	Febrero	2023-02-19T00:00:00	2024-11-06T23:00:00	7	Dirección del viento	12.87
138039	7	Sololá	701	Sololá	2	El tablón	2	Febrero	2023-02-19T00:00:00	2024-11-06T23:00:00	1	Precipitación	0
138040	7	Sololá	701	Sololá	2	El tablón	2	Febrero	2023-02-19T00:00:00	2024-11-06T23:00:00	8	Radiación solar	0
138041	7	Sololá	701	Sololá	2	El tablón	2	Febrero	2023-02-20T00:00:00	2024-11-06T00:00:00	2	Temperatura media	9.3
138042	7	Sololá	701	Sololá	2	El tablón	2	Febrero	2023-02-20T00:00:00	2024-11-06T00:00:00	4	Temperatura máxima	9.8
138043	7	Sololá	701	Sololá	2	El tablón	2	Febrero	2023-02-20T00:00:00	2024-11-06T00:00:00	3	Temperatura mínima	9.1
138044	7	Sololá	701	Sololá	2	El tablón	2	Febrero	2023-02-20T00:00:00	2024-11-06T00:00:00	5	Humedad	80
138045	7	Sololá	701	Sololá	2	El tablón	2	Febrero	2023-02-20T00:00:00	2024-11-06T00:00:00	6	Velocidad del viento	14.5
138046	7	Sololá	701	Sololá	2	El tablón	2	Febrero	2023-02-20T00:00:00	2024-11-06T00:00:00	7	Dirección del viento	14.48
138047	7	Sololá	701	Sololá	2	El tablón	2	Febrero	2023-02-20T00:00:00	2024-11-06T00:00:00	1	Precipitación	0
138048	7	Sololá	701	Sololá	2	El tablón	2	Febrero	2023-02-20T00:00:00	2024-11-06T00:00:00	8	Radiación solar	0
138049	7	Sololá	701	Sololá	2	El tablón	2	Febrero	2023-02-20T00:00:00	2024-11-06T01:00:00	2	Temperatura media	8.9
138050	7	Sololá	701	Sololá	2	El tablón	2	Febrero	2023-02-20T00:00:00	2024-11-06T01:00:00	4	Temperatura máxima	9.3
138051	7	Sololá	701	Sololá	2	El tablón	2	Febrero	2023-02-20T00:00:00	2024-11-06T01:00:00	3	Temperatura mínima	8.9
138052	7	Sololá	701	Sololá	2	El tablón	2	Febrero	2023-02-20T00:00:00	2024-11-06T01:00:00	5	Humedad	83
138053	7	Sololá	701	Sololá	2	El tablón	2	Febrero	2023-02-20T00:00:00	2024-11-06T01:00:00	6	Velocidad del viento	16.1
138054	7	Sololá	701	Sololá	2	El tablón	2	Febrero	2023-02-20T00:00:00	2024-11-06T01:00:00	7	Dirección del viento	16.09
138055	7	Sololá	701	Sololá	2	El tablón	2	Febrero	2023-02-20T00:00:00	2024-11-06T01:00:00	1	Precipitación	0
138056	7	Sololá	701	Sololá	2	El tablón	2	Febrero	2023-02-20T00:00:00	2024-11-06T01:00:00	8	Radiación solar	0
138057	7	Sololá	701	Sololá	2	El tablón	2	Febrero	2023-02-20T00:00:00	2024-11-06T02:00:00	2	Temperatura media	8.7
138058	7	Sololá	701	Sololá	2	El tablón	2	Febrero	2023-02-20T00:00:00	2024-11-06T02:00:00	4	Temperatura máxima	8.9
138059	7	Sololá	701	Sololá	2	El tablón	2	Febrero	2023-02-20T00:00:00	2024-11-06T02:00:00	3	Temperatura mínima	8.7
138060	7	Sololá	701	Sololá	2	El tablón	2	Febrero	2023-02-20T00:00:00	2024-11-06T02:00:00	5	Humedad	85
138061	7	Sololá	701	Sololá	2	El tablón	2	Febrero	2023-02-20T00:00:00	2024-11-06T02:00:00	6	Velocidad del viento	17.7
138062	7	Sololá	701	Sololá	2	El tablón	2	Febrero	2023-02-20T00:00:00	2024-11-06T02:00:00	7	Dirección del viento	17.7
138063	7	Sololá	701	Sololá	2	El tablón	2	Febrero	2023-02-20T00:00:00	2024-11-06T02:00:00	1	Precipitación	0
138064	7	Sololá	701	Sololá	2	El tablón	2	Febrero	2023-02-20T00:00:00	2024-11-06T02:00:00	8	Radiación solar	0
138065	7	Sololá	701	Sololá	2	El tablón	2	Febrero	2023-02-20T00:00:00	2024-11-06T03:00:00	2	Temperatura media	8.8
138066	7	Sololá	701	Sololá	2	El tablón	2	Febrero	2023-02-20T00:00:00	2024-11-06T03:00:00	4	Temperatura máxima	8.8
138067	7	Sololá	701	Sololá	2	El tablón	2	Febrero	2023-02-20T00:00:00	2024-11-06T03:00:00	3	Temperatura mínima	8.6
138068	7	Sololá	701	Sololá	2	El tablón	2	Febrero	2023-02-20T00:00:00	2024-11-06T03:00:00	5	Humedad	84
138069	7	Sololá	701	Sololá	2	El tablón	2	Febrero	2023-02-20T00:00:00	2024-11-06T03:00:00	6	Velocidad del viento	22.5
138070	7	Sololá	701	Sololá	2	El tablón	2	Febrero	2023-02-20T00:00:00	2024-11-06T03:00:00	7	Dirección del viento	22.53
138071	7	Sololá	701	Sololá	2	El tablón	2	Febrero	2023-02-20T00:00:00	2024-11-06T03:00:00	1	Precipitación	0
138072	7	Sololá	701	Sololá	2	El tablón	2	Febrero	2023-02-20T00:00:00	2024-11-06T03:00:00	8	Radiación solar	0
138073	7	Sololá	701	Sololá	2	El tablón	2	Febrero	2023-02-20T00:00:00	2024-11-06T04:00:00	2	Temperatura media	8.8
138074	7	Sololá	701	Sololá	2	El tablón	2	Febrero	2023-02-20T00:00:00	2024-11-06T04:00:00	4	Temperatura máxima	9.1
138075	7	Sololá	701	Sololá	2	El tablón	2	Febrero	2023-02-20T00:00:00	2024-11-06T04:00:00	3	Temperatura mínima	8.8
138076	7	Sololá	701	Sololá	2	El tablón	2	Febrero	2023-02-20T00:00:00	2024-11-06T04:00:00	5	Humedad	85
138077	7	Sololá	701	Sololá	2	El tablón	2	Febrero	2023-02-20T00:00:00	2024-11-06T04:00:00	6	Velocidad del viento	22.5
138078	7	Sololá	701	Sololá	2	El tablón	2	Febrero	2023-02-20T00:00:00	2024-11-06T04:00:00	7	Dirección del viento	22.53
138079	7	Sololá	701	Sololá	2	El tablón	2	Febrero	2023-02-20T00:00:00	2024-11-06T04:00:00	1	Precipitación	0
138080	7	Sololá	701	Sololá	2	El tablón	2	Febrero	2023-02-20T00:00:00	2024-11-06T04:00:00	8	Radiación solar	0
138081	7	Sololá	701	Sololá	2	El tablón	2	Febrero	2023-02-20T00:00:00	2024-11-06T05:00:00	2	Temperatura media	8.6
138082	7	Sololá	701	Sololá	2	El tablón	2	Febrero	2023-02-20T00:00:00	2024-11-06T05:00:00	4	Temperatura máxima	8.9
138083	7	Sololá	701	Sololá	2	El tablón	2	Febrero	2023-02-20T00:00:00	2024-11-06T05:00:00	3	Temperatura mínima	8.6
138084	7	Sololá	701	Sololá	2	El tablón	2	Febrero	2023-02-20T00:00:00	2024-11-06T05:00:00	5	Humedad	86
138085	7	Sololá	701	Sololá	2	El tablón	2	Febrero	2023-02-20T00:00:00	2024-11-06T05:00:00	6	Velocidad del viento	19.3
138086	7	Sololá	701	Sololá	2	El tablón	2	Febrero	2023-02-20T00:00:00	2024-11-06T05:00:00	7	Dirección del viento	19.31
138087	7	Sololá	701	Sololá	2	El tablón	2	Febrero	2023-02-20T00:00:00	2024-11-06T05:00:00	1	Precipitación	0
138088	7	Sololá	701	Sololá	2	El tablón	2	Febrero	2023-02-20T00:00:00	2024-11-06T05:00:00	8	Radiación solar	0
138089	7	Sololá	701	Sololá	2	El tablón	2	Febrero	2023-02-20T00:00:00	2024-11-06T06:00:00	2	Temperatura media	8.2
138090	7	Sololá	701	Sololá	2	El tablón	2	Febrero	2023-02-20T00:00:00	2024-11-06T06:00:00	4	Temperatura máxima	8.6
138091	7	Sololá	701	Sololá	2	El tablón	2	Febrero	2023-02-20T00:00:00	2024-11-06T06:00:00	3	Temperatura mínima	8.2
138092	7	Sololá	701	Sololá	2	El tablón	2	Febrero	2023-02-20T00:00:00	2024-11-06T06:00:00	5	Humedad	88
138093	7	Sololá	701	Sololá	2	El tablón	2	Febrero	2023-02-20T00:00:00	2024-11-06T06:00:00	6	Velocidad del viento	17.7
138094	7	Sololá	701	Sololá	2	El tablón	2	Febrero	2023-02-20T00:00:00	2024-11-06T06:00:00	7	Dirección del viento	17.7
138095	7	Sololá	701	Sololá	2	El tablón	2	Febrero	2023-02-20T00:00:00	2024-11-06T06:00:00	1	Precipitación	0
138096	7	Sololá	701	Sololá	2	El tablón	2	Febrero	2023-02-20T00:00:00	2024-11-06T06:00:00	8	Radiación solar	0
138097	7	Sololá	701	Sololá	2	El tablón	2	Febrero	2023-02-20T00:00:00	2024-11-06T07:00:00	2	Temperatura media	9
138098	7	Sololá	701	Sololá	2	El tablón	2	Febrero	2023-02-20T00:00:00	2024-11-06T07:00:00	4	Temperatura máxima	9
138099	7	Sololá	701	Sololá	2	El tablón	2	Febrero	2023-02-20T00:00:00	2024-11-06T07:00:00	3	Temperatura mínima	8.2
138100	7	Sololá	701	Sololá	2	El tablón	2	Febrero	2023-02-20T00:00:00	2024-11-06T07:00:00	5	Humedad	85
138101	7	Sololá	701	Sololá	2	El tablón	2	Febrero	2023-02-20T00:00:00	2024-11-06T07:00:00	6	Velocidad del viento	20.9
138102	7	Sololá	701	Sololá	2	El tablón	2	Febrero	2023-02-20T00:00:00	2024-11-06T07:00:00	7	Dirección del viento	20.92
138103	7	Sololá	701	Sololá	2	El tablón	2	Febrero	2023-02-20T00:00:00	2024-11-06T07:00:00	1	Precipitación	0
138104	7	Sololá	701	Sololá	2	El tablón	2	Febrero	2023-02-20T00:00:00	2024-11-06T07:00:00	8	Radiación solar	9
138105	7	Sololá	701	Sololá	2	El tablón	2	Febrero	2023-02-20T00:00:00	2024-11-06T08:00:00	2	Temperatura media	10.1
138106	7	Sololá	701	Sololá	2	El tablón	2	Febrero	2023-02-20T00:00:00	2024-11-06T08:00:00	4	Temperatura máxima	10.1
138107	7	Sololá	701	Sololá	2	El tablón	2	Febrero	2023-02-20T00:00:00	2024-11-06T08:00:00	3	Temperatura mínima	9
138108	7	Sololá	701	Sololá	2	El tablón	2	Febrero	2023-02-20T00:00:00	2024-11-06T08:00:00	5	Humedad	82
138109	7	Sololá	701	Sololá	2	El tablón	2	Febrero	2023-02-20T00:00:00	2024-11-06T08:00:00	6	Velocidad del viento	22.5
138110	7	Sololá	701	Sololá	2	El tablón	2	Febrero	2023-02-20T00:00:00	2024-11-06T08:00:00	7	Dirección del viento	22.53
138111	7	Sololá	701	Sololá	2	El tablón	2	Febrero	2023-02-20T00:00:00	2024-11-06T08:00:00	1	Precipitación	0
138112	7	Sololá	701	Sololá	2	El tablón	2	Febrero	2023-02-20T00:00:00	2024-11-06T08:00:00	8	Radiación solar	145
138113	7	Sololá	701	Sololá	2	El tablón	2	Febrero	2023-02-20T00:00:00	2024-11-06T09:00:00	2	Temperatura media	11.7
138114	7	Sololá	701	Sololá	2	El tablón	2	Febrero	2023-02-20T00:00:00	2024-11-06T09:00:00	4	Temperatura máxima	11.7
138115	7	Sololá	701	Sololá	2	El tablón	2	Febrero	2023-02-20T00:00:00	2024-11-06T09:00:00	3	Temperatura mínima	10.1
138116	7	Sololá	701	Sololá	2	El tablón	2	Febrero	2023-02-20T00:00:00	2024-11-06T09:00:00	5	Humedad	76
138117	7	Sololá	701	Sololá	2	El tablón	2	Febrero	2023-02-20T00:00:00	2024-11-06T09:00:00	6	Velocidad del viento	20.9
138118	7	Sololá	701	Sololá	2	El tablón	2	Febrero	2023-02-20T00:00:00	2024-11-06T09:00:00	7	Dirección del viento	20.92
138119	7	Sololá	701	Sololá	2	El tablón	2	Febrero	2023-02-20T00:00:00	2024-11-06T09:00:00	1	Precipitación	0
138120	7	Sololá	701	Sololá	2	El tablón	2	Febrero	2023-02-20T00:00:00	2024-11-06T09:00:00	8	Radiación solar	410
138121	7	Sololá	701	Sololá	2	El tablón	2	Febrero	2023-02-20T00:00:00	2024-11-06T10:00:00	2	Temperatura media	13.9
138122	7	Sololá	701	Sololá	2	El tablón	2	Febrero	2023-02-20T00:00:00	2024-11-06T10:00:00	4	Temperatura máxima	14
138123	7	Sololá	701	Sololá	2	El tablón	2	Febrero	2023-02-20T00:00:00	2024-11-06T10:00:00	3	Temperatura mínima	11.7
138124	7	Sololá	701	Sololá	2	El tablón	2	Febrero	2023-02-20T00:00:00	2024-11-06T10:00:00	5	Humedad	67
138125	7	Sololá	701	Sololá	2	El tablón	2	Febrero	2023-02-20T00:00:00	2024-11-06T10:00:00	6	Velocidad del viento	16.1
138126	7	Sololá	701	Sololá	2	El tablón	2	Febrero	2023-02-20T00:00:00	2024-11-06T10:00:00	7	Dirección del viento	16.09
138127	7	Sololá	701	Sololá	2	El tablón	2	Febrero	2023-02-20T00:00:00	2024-11-06T10:00:00	1	Precipitación	0
138128	7	Sololá	701	Sololá	2	El tablón	2	Febrero	2023-02-20T00:00:00	2024-11-06T10:00:00	8	Radiación solar	620
138129	7	Sololá	701	Sololá	2	El tablón	2	Febrero	2023-02-20T00:00:00	2024-11-06T11:00:00	2	Temperatura media	15
138130	7	Sololá	701	Sololá	2	El tablón	2	Febrero	2023-02-20T00:00:00	2024-11-06T11:00:00	4	Temperatura máxima	15
138131	7	Sololá	701	Sololá	2	El tablón	2	Febrero	2023-02-20T00:00:00	2024-11-06T11:00:00	3	Temperatura mínima	13.8
138132	7	Sololá	701	Sololá	2	El tablón	2	Febrero	2023-02-20T00:00:00	2024-11-06T11:00:00	5	Humedad	59
138133	7	Sololá	701	Sololá	2	El tablón	2	Febrero	2023-02-20T00:00:00	2024-11-06T11:00:00	6	Velocidad del viento	17.7
138134	7	Sololá	701	Sololá	2	El tablón	2	Febrero	2023-02-20T00:00:00	2024-11-06T11:00:00	7	Dirección del viento	17.7
138135	7	Sololá	701	Sololá	2	El tablón	2	Febrero	2023-02-20T00:00:00	2024-11-06T11:00:00	1	Precipitación	0
138136	7	Sololá	701	Sololá	2	El tablón	2	Febrero	2023-02-20T00:00:00	2024-11-06T11:00:00	8	Radiación solar	782
138137	7	Sololá	701	Sololá	2	El tablón	2	Febrero	2023-02-20T00:00:00	2024-11-06T12:00:00	2	Temperatura media	16.3
138138	7	Sololá	701	Sololá	2	El tablón	2	Febrero	2023-02-20T00:00:00	2024-11-06T12:00:00	4	Temperatura máxima	16.3
138139	7	Sololá	701	Sololá	2	El tablón	2	Febrero	2023-02-20T00:00:00	2024-11-06T12:00:00	3	Temperatura mínima	15.1
138140	7	Sololá	701	Sololá	2	El tablón	2	Febrero	2023-02-20T00:00:00	2024-11-06T12:00:00	5	Humedad	58
138141	7	Sololá	701	Sololá	2	El tablón	2	Febrero	2023-02-20T00:00:00	2024-11-06T12:00:00	6	Velocidad del viento	16.1
138142	7	Sololá	701	Sololá	2	El tablón	2	Febrero	2023-02-20T00:00:00	2024-11-06T12:00:00	7	Dirección del viento	16.09
138143	7	Sololá	701	Sololá	2	El tablón	2	Febrero	2023-02-20T00:00:00	2024-11-06T12:00:00	1	Precipitación	0
138144	7	Sololá	701	Sololá	2	El tablón	2	Febrero	2023-02-20T00:00:00	2024-11-06T12:00:00	8	Radiación solar	819
138145	7	Sololá	701	Sololá	2	El tablón	2	Febrero	2023-02-20T00:00:00	2024-11-06T13:00:00	2	Temperatura media	16.9
138146	7	Sololá	701	Sololá	2	El tablón	2	Febrero	2023-02-20T00:00:00	2024-11-06T13:00:00	4	Temperatura máxima	17
138147	7	Sololá	701	Sololá	2	El tablón	2	Febrero	2023-02-20T00:00:00	2024-11-06T13:00:00	3	Temperatura mínima	16.2
138148	7	Sololá	701	Sololá	2	El tablón	2	Febrero	2023-02-20T00:00:00	2024-11-06T13:00:00	5	Humedad	59
138149	7	Sololá	701	Sololá	2	El tablón	2	Febrero	2023-02-20T00:00:00	2024-11-06T13:00:00	6	Velocidad del viento	14.5
138150	7	Sololá	701	Sololá	2	El tablón	2	Febrero	2023-02-20T00:00:00	2024-11-06T13:00:00	7	Dirección del viento	14.48
138151	7	Sololá	701	Sololá	2	El tablón	2	Febrero	2023-02-20T00:00:00	2024-11-06T13:00:00	1	Precipitación	0
138152	7	Sololá	701	Sololá	2	El tablón	2	Febrero	2023-02-20T00:00:00	2024-11-06T13:00:00	8	Radiación solar	888
138153	7	Sololá	701	Sololá	2	El tablón	2	Febrero	2023-02-20T00:00:00	2024-11-06T14:00:00	2	Temperatura media	16.9
138154	7	Sololá	701	Sololá	2	El tablón	2	Febrero	2023-02-20T00:00:00	2024-11-06T14:00:00	4	Temperatura máxima	17.3
138155	7	Sololá	701	Sololá	2	El tablón	2	Febrero	2023-02-20T00:00:00	2024-11-06T14:00:00	3	Temperatura mínima	16.6
138156	7	Sololá	701	Sololá	2	El tablón	2	Febrero	2023-02-20T00:00:00	2024-11-06T14:00:00	5	Humedad	52
138157	7	Sololá	701	Sololá	2	El tablón	2	Febrero	2023-02-20T00:00:00	2024-11-06T14:00:00	6	Velocidad del viento	14.5
138158	7	Sololá	701	Sololá	2	El tablón	2	Febrero	2023-02-20T00:00:00	2024-11-06T14:00:00	7	Dirección del viento	14.48
138159	7	Sololá	701	Sololá	2	El tablón	2	Febrero	2023-02-20T00:00:00	2024-11-06T14:00:00	1	Precipitación	0
138160	7	Sololá	701	Sololá	2	El tablón	2	Febrero	2023-02-20T00:00:00	2024-11-06T14:00:00	8	Radiación solar	874
138161	7	Sololá	701	Sololá	2	El tablón	2	Febrero	2023-02-20T00:00:00	2024-11-06T15:00:00	2	Temperatura media	16.7
138162	7	Sololá	701	Sololá	2	El tablón	2	Febrero	2023-02-20T00:00:00	2024-11-06T15:00:00	4	Temperatura máxima	17.2
138163	7	Sololá	701	Sololá	2	El tablón	2	Febrero	2023-02-20T00:00:00	2024-11-06T15:00:00	3	Temperatura mínima	16.4
138164	7	Sololá	701	Sololá	2	El tablón	2	Febrero	2023-02-20T00:00:00	2024-11-06T15:00:00	5	Humedad	52
138165	7	Sololá	701	Sololá	2	El tablón	2	Febrero	2023-02-20T00:00:00	2024-11-06T15:00:00	6	Velocidad del viento	14.5
138166	7	Sololá	701	Sololá	2	El tablón	2	Febrero	2023-02-20T00:00:00	2024-11-06T15:00:00	7	Dirección del viento	14.48
138167	7	Sololá	701	Sololá	2	El tablón	2	Febrero	2023-02-20T00:00:00	2024-11-06T15:00:00	1	Precipitación	0
138168	7	Sololá	701	Sololá	2	El tablón	2	Febrero	2023-02-20T00:00:00	2024-11-06T15:00:00	8	Radiación solar	764
138169	7	Sololá	701	Sololá	2	El tablón	2	Febrero	2023-02-20T00:00:00	2024-11-06T16:00:00	2	Temperatura media	16.2
138170	7	Sololá	701	Sololá	2	El tablón	2	Febrero	2023-02-20T00:00:00	2024-11-06T16:00:00	4	Temperatura máxima	17.1
138171	7	Sololá	701	Sololá	2	El tablón	2	Febrero	2023-02-20T00:00:00	2024-11-06T16:00:00	3	Temperatura mínima	16.1
138172	7	Sololá	701	Sololá	2	El tablón	2	Febrero	2023-02-20T00:00:00	2024-11-06T16:00:00	5	Humedad	55
138173	7	Sololá	701	Sololá	2	El tablón	2	Febrero	2023-02-20T00:00:00	2024-11-06T16:00:00	6	Velocidad del viento	12.9
138174	7	Sololá	701	Sololá	2	El tablón	2	Febrero	2023-02-20T00:00:00	2024-11-06T16:00:00	7	Dirección del viento	12.87
138175	7	Sololá	701	Sololá	2	El tablón	2	Febrero	2023-02-20T00:00:00	2024-11-06T16:00:00	1	Precipitación	0
138176	7	Sololá	701	Sololá	2	El tablón	2	Febrero	2023-02-20T00:00:00	2024-11-06T16:00:00	8	Radiación solar	559
138177	7	Sololá	701	Sololá	2	El tablón	2	Febrero	2023-02-20T00:00:00	2024-11-06T17:00:00	2	Temperatura media	15.3
138178	7	Sololá	701	Sololá	2	El tablón	2	Febrero	2023-02-20T00:00:00	2024-11-06T17:00:00	4	Temperatura máxima	16.3
138179	7	Sololá	701	Sololá	2	El tablón	2	Febrero	2023-02-20T00:00:00	2024-11-06T17:00:00	3	Temperatura mínima	15.3
138180	7	Sololá	701	Sololá	2	El tablón	2	Febrero	2023-02-20T00:00:00	2024-11-06T17:00:00	5	Humedad	62
138181	7	Sololá	701	Sololá	2	El tablón	2	Febrero	2023-02-20T00:00:00	2024-11-06T17:00:00	6	Velocidad del viento	11.3
138182	7	Sololá	701	Sololá	2	El tablón	2	Febrero	2023-02-20T00:00:00	2024-11-06T17:00:00	7	Dirección del viento	11.27
138183	7	Sololá	701	Sololá	2	El tablón	2	Febrero	2023-02-20T00:00:00	2024-11-06T17:00:00	1	Precipitación	0
138184	7	Sololá	701	Sololá	2	El tablón	2	Febrero	2023-02-20T00:00:00	2024-11-06T17:00:00	8	Radiación solar	365
138185	7	Sololá	701	Sololá	2	El tablón	2	Febrero	2023-02-20T00:00:00	2024-11-06T18:00:00	2	Temperatura media	13.1
138186	7	Sololá	701	Sololá	2	El tablón	2	Febrero	2023-02-20T00:00:00	2024-11-06T18:00:00	4	Temperatura máxima	15.4
138187	7	Sololá	701	Sololá	2	El tablón	2	Febrero	2023-02-20T00:00:00	2024-11-06T18:00:00	3	Temperatura mínima	13.1
138188	7	Sololá	701	Sololá	2	El tablón	2	Febrero	2023-02-20T00:00:00	2024-11-06T18:00:00	5	Humedad	71
138189	7	Sololá	701	Sololá	2	El tablón	2	Febrero	2023-02-20T00:00:00	2024-11-06T18:00:00	6	Velocidad del viento	12.9
138190	7	Sololá	701	Sololá	2	El tablón	2	Febrero	2023-02-20T00:00:00	2024-11-06T18:00:00	7	Dirección del viento	12.87
138191	7	Sololá	701	Sololá	2	El tablón	2	Febrero	2023-02-20T00:00:00	2024-11-06T18:00:00	1	Precipitación	0
138192	7	Sololá	701	Sololá	2	El tablón	2	Febrero	2023-02-20T00:00:00	2024-11-06T18:00:00	8	Radiación solar	120
138193	7	Sololá	701	Sololá	2	El tablón	2	Febrero	2023-02-20T00:00:00	2024-11-06T19:00:00	2	Temperatura media	11.3
138194	7	Sololá	701	Sololá	2	El tablón	2	Febrero	2023-02-20T00:00:00	2024-11-06T19:00:00	4	Temperatura máxima	13
138195	7	Sololá	701	Sololá	2	El tablón	2	Febrero	2023-02-20T00:00:00	2024-11-06T19:00:00	3	Temperatura mínima	11.3
138196	7	Sololá	701	Sololá	2	El tablón	2	Febrero	2023-02-20T00:00:00	2024-11-06T19:00:00	5	Humedad	81
138197	7	Sololá	701	Sololá	2	El tablón	2	Febrero	2023-02-20T00:00:00	2024-11-06T19:00:00	6	Velocidad del viento	11.3
138198	7	Sololá	701	Sololá	2	El tablón	2	Febrero	2023-02-20T00:00:00	2024-11-06T19:00:00	7	Dirección del viento	11.27
138199	7	Sololá	701	Sololá	2	El tablón	2	Febrero	2023-02-20T00:00:00	2024-11-06T19:00:00	1	Precipitación	0
138200	7	Sololá	701	Sololá	2	El tablón	2	Febrero	2023-02-20T00:00:00	2024-11-06T19:00:00	8	Radiación solar	0
138201	7	Sololá	701	Sololá	2	El tablón	2	Febrero	2023-02-20T00:00:00	2024-11-06T20:00:00	2	Temperatura media	10.5
138202	7	Sololá	701	Sololá	2	El tablón	2	Febrero	2023-02-20T00:00:00	2024-11-06T20:00:00	4	Temperatura máxima	11.3
138203	7	Sololá	701	Sololá	2	El tablón	2	Febrero	2023-02-20T00:00:00	2024-11-06T20:00:00	3	Temperatura mínima	10.5
138204	7	Sololá	701	Sololá	2	El tablón	2	Febrero	2023-02-20T00:00:00	2024-11-06T20:00:00	5	Humedad	84
138205	7	Sololá	701	Sololá	2	El tablón	2	Febrero	2023-02-20T00:00:00	2024-11-06T20:00:00	6	Velocidad del viento	9.7
138206	7	Sololá	701	Sololá	2	El tablón	2	Febrero	2023-02-20T00:00:00	2024-11-06T20:00:00	7	Dirección del viento	9.66
138207	7	Sololá	701	Sololá	2	El tablón	2	Febrero	2023-02-20T00:00:00	2024-11-06T20:00:00	1	Precipitación	0
138208	7	Sololá	701	Sololá	2	El tablón	2	Febrero	2023-02-20T00:00:00	2024-11-06T20:00:00	8	Radiación solar	0
138209	7	Sololá	701	Sololá	2	El tablón	2	Febrero	2023-02-20T00:00:00	2024-11-06T21:00:00	2	Temperatura media	10.1
138210	7	Sololá	701	Sololá	2	El tablón	2	Febrero	2023-02-20T00:00:00	2024-11-06T21:00:00	4	Temperatura máxima	10.6
138211	7	Sololá	701	Sololá	2	El tablón	2	Febrero	2023-02-20T00:00:00	2024-11-06T21:00:00	3	Temperatura mínima	10.1
138212	7	Sololá	701	Sololá	2	El tablón	2	Febrero	2023-02-20T00:00:00	2024-11-06T21:00:00	5	Humedad	85
138213	7	Sololá	701	Sololá	2	El tablón	2	Febrero	2023-02-20T00:00:00	2024-11-06T21:00:00	6	Velocidad del viento	11.3
138214	7	Sololá	701	Sololá	2	El tablón	2	Febrero	2023-02-20T00:00:00	2024-11-06T21:00:00	7	Dirección del viento	11.27
138215	7	Sololá	701	Sololá	2	El tablón	2	Febrero	2023-02-20T00:00:00	2024-11-06T21:00:00	1	Precipitación	0
138216	7	Sololá	701	Sololá	2	El tablón	2	Febrero	2023-02-20T00:00:00	2024-11-06T21:00:00	8	Radiación solar	0
138217	7	Sololá	701	Sololá	2	El tablón	2	Febrero	2023-02-20T00:00:00	2024-11-06T22:00:00	2	Temperatura media	10.2
138218	7	Sololá	701	Sololá	2	El tablón	2	Febrero	2023-02-20T00:00:00	2024-11-06T22:00:00	4	Temperatura máxima	10.2
138219	7	Sololá	701	Sololá	2	El tablón	2	Febrero	2023-02-20T00:00:00	2024-11-06T22:00:00	3	Temperatura mínima	10.1
138220	7	Sololá	701	Sololá	2	El tablón	2	Febrero	2023-02-20T00:00:00	2024-11-06T22:00:00	5	Humedad	81
138221	7	Sololá	701	Sololá	2	El tablón	2	Febrero	2023-02-20T00:00:00	2024-11-06T22:00:00	6	Velocidad del viento	11.3
138222	7	Sololá	701	Sololá	2	El tablón	2	Febrero	2023-02-20T00:00:00	2024-11-06T22:00:00	7	Dirección del viento	11.27
138223	7	Sololá	701	Sololá	2	El tablón	2	Febrero	2023-02-20T00:00:00	2024-11-06T22:00:00	1	Precipitación	0
138224	7	Sololá	701	Sololá	2	El tablón	2	Febrero	2023-02-20T00:00:00	2024-11-06T22:00:00	8	Radiación solar	0
138225	7	Sololá	701	Sololá	2	El tablón	2	Febrero	2023-02-20T00:00:00	2024-11-06T23:00:00	2	Temperatura media	10.2
138226	7	Sololá	701	Sololá	2	El tablón	2	Febrero	2023-02-20T00:00:00	2024-11-06T23:00:00	4	Temperatura máxima	10.3
138227	7	Sololá	701	Sololá	2	El tablón	2	Febrero	2023-02-20T00:00:00	2024-11-06T23:00:00	3	Temperatura mínima	10.1
138228	7	Sololá	701	Sololá	2	El tablón	2	Febrero	2023-02-20T00:00:00	2024-11-06T23:00:00	5	Humedad	80
138229	7	Sololá	701	Sololá	2	El tablón	2	Febrero	2023-02-20T00:00:00	2024-11-06T23:00:00	6	Velocidad del viento	9.7
138230	7	Sololá	701	Sololá	2	El tablón	2	Febrero	2023-02-20T00:00:00	2024-11-06T23:00:00	7	Dirección del viento	9.66
138231	7	Sololá	701	Sololá	2	El tablón	2	Febrero	2023-02-20T00:00:00	2024-11-06T23:00:00	1	Precipitación	0
138232	7	Sololá	701	Sololá	2	El tablón	2	Febrero	2023-02-20T00:00:00	2024-11-06T23:00:00	8	Radiación solar	0
138233	7	Sololá	701	Sololá	2	El tablón	2	Febrero	2023-02-21T00:00:00	2024-11-06T00:00:00	2	Temperatura media	9.3
138234	7	Sololá	701	Sololá	2	El tablón	2	Febrero	2023-02-21T00:00:00	2024-11-06T00:00:00	4	Temperatura máxima	10.2
138235	7	Sololá	701	Sololá	2	El tablón	2	Febrero	2023-02-21T00:00:00	2024-11-06T00:00:00	3	Temperatura mínima	9.3
138236	7	Sololá	701	Sololá	2	El tablón	2	Febrero	2023-02-21T00:00:00	2024-11-06T00:00:00	5	Humedad	85
138237	7	Sololá	701	Sololá	2	El tablón	2	Febrero	2023-02-21T00:00:00	2024-11-06T00:00:00	6	Velocidad del viento	8
138238	7	Sololá	701	Sololá	2	El tablón	2	Febrero	2023-02-21T00:00:00	2024-11-06T00:00:00	7	Dirección del viento	8.05
138239	7	Sololá	701	Sololá	2	El tablón	2	Febrero	2023-02-21T00:00:00	2024-11-06T00:00:00	1	Precipitación	0
138240	7	Sololá	701	Sololá	2	El tablón	2	Febrero	2023-02-21T00:00:00	2024-11-06T00:00:00	8	Radiación solar	0
138241	7	Sololá	701	Sololá	2	El tablón	2	Febrero	2023-02-21T00:00:00	2024-11-06T01:00:00	2	Temperatura media	8.8
138242	7	Sololá	701	Sololá	2	El tablón	2	Febrero	2023-02-21T00:00:00	2024-11-06T01:00:00	4	Temperatura máxima	9.3
138243	7	Sololá	701	Sololá	2	El tablón	2	Febrero	2023-02-21T00:00:00	2024-11-06T01:00:00	3	Temperatura mínima	8.8
138244	7	Sololá	701	Sololá	2	El tablón	2	Febrero	2023-02-21T00:00:00	2024-11-06T01:00:00	5	Humedad	85
138245	7	Sololá	701	Sololá	2	El tablón	2	Febrero	2023-02-21T00:00:00	2024-11-06T01:00:00	6	Velocidad del viento	6.4
138246	7	Sololá	701	Sololá	2	El tablón	2	Febrero	2023-02-21T00:00:00	2024-11-06T01:00:00	7	Dirección del viento	6.44
138247	7	Sololá	701	Sololá	2	El tablón	2	Febrero	2023-02-21T00:00:00	2024-11-06T01:00:00	1	Precipitación	0
138248	7	Sololá	701	Sololá	2	El tablón	2	Febrero	2023-02-21T00:00:00	2024-11-06T01:00:00	8	Radiación solar	0
138249	7	Sololá	701	Sololá	2	El tablón	2	Febrero	2023-02-21T00:00:00	2024-11-06T02:00:00	2	Temperatura media	9.1
138250	7	Sololá	701	Sololá	2	El tablón	2	Febrero	2023-02-21T00:00:00	2024-11-06T02:00:00	4	Temperatura máxima	9.2
138251	7	Sololá	701	Sololá	2	El tablón	2	Febrero	2023-02-21T00:00:00	2024-11-06T02:00:00	3	Temperatura mínima	8.8
138252	7	Sololá	701	Sololá	2	El tablón	2	Febrero	2023-02-21T00:00:00	2024-11-06T02:00:00	5	Humedad	81
138253	7	Sololá	701	Sololá	2	El tablón	2	Febrero	2023-02-21T00:00:00	2024-11-06T02:00:00	6	Velocidad del viento	4.8
138254	7	Sololá	701	Sololá	2	El tablón	2	Febrero	2023-02-21T00:00:00	2024-11-06T02:00:00	7	Dirección del viento	4.83
138255	7	Sololá	701	Sololá	2	El tablón	2	Febrero	2023-02-21T00:00:00	2024-11-06T02:00:00	1	Precipitación	0
138256	7	Sololá	701	Sololá	2	El tablón	2	Febrero	2023-02-21T00:00:00	2024-11-06T02:00:00	8	Radiación solar	0
138257	7	Sololá	701	Sololá	2	El tablón	2	Febrero	2023-02-21T00:00:00	2024-11-06T03:00:00	2	Temperatura media	8.8
138258	7	Sololá	701	Sololá	2	El tablón	2	Febrero	2023-02-21T00:00:00	2024-11-06T03:00:00	4	Temperatura máxima	9.1
138259	7	Sololá	701	Sololá	2	El tablón	2	Febrero	2023-02-21T00:00:00	2024-11-06T03:00:00	3	Temperatura mínima	8.8
138260	7	Sololá	701	Sololá	2	El tablón	2	Febrero	2023-02-21T00:00:00	2024-11-06T03:00:00	5	Humedad	82
138261	7	Sololá	701	Sololá	2	El tablón	2	Febrero	2023-02-21T00:00:00	2024-11-06T03:00:00	6	Velocidad del viento	4.8
138262	7	Sololá	701	Sololá	2	El tablón	2	Febrero	2023-02-21T00:00:00	2024-11-06T03:00:00	7	Dirección del viento	4.83
138263	7	Sololá	701	Sololá	2	El tablón	2	Febrero	2023-02-21T00:00:00	2024-11-06T03:00:00	1	Precipitación	0
138264	7	Sololá	701	Sololá	2	El tablón	2	Febrero	2023-02-21T00:00:00	2024-11-06T03:00:00	8	Radiación solar	0
138265	7	Sololá	701	Sololá	2	El tablón	2	Febrero	2023-02-21T00:00:00	2024-11-06T04:00:00	2	Temperatura media	8.3
138266	7	Sololá	701	Sololá	2	El tablón	2	Febrero	2023-02-21T00:00:00	2024-11-06T04:00:00	4	Temperatura máxima	8.9
138267	7	Sololá	701	Sololá	2	El tablón	2	Febrero	2023-02-21T00:00:00	2024-11-06T04:00:00	3	Temperatura mínima	8.2
138268	7	Sololá	701	Sololá	2	El tablón	2	Febrero	2023-02-21T00:00:00	2024-11-06T04:00:00	5	Humedad	85
138269	7	Sololá	701	Sololá	2	El tablón	2	Febrero	2023-02-21T00:00:00	2024-11-06T04:00:00	6	Velocidad del viento	3.2
138270	7	Sololá	701	Sololá	2	El tablón	2	Febrero	2023-02-21T00:00:00	2024-11-06T04:00:00	7	Dirección del viento	3.22
138271	7	Sololá	701	Sololá	2	El tablón	2	Febrero	2023-02-21T00:00:00	2024-11-06T04:00:00	1	Precipitación	0
138272	7	Sololá	701	Sololá	2	El tablón	2	Febrero	2023-02-21T00:00:00	2024-11-06T04:00:00	8	Radiación solar	0
138273	7	Sololá	701	Sololá	2	El tablón	2	Febrero	2023-02-21T00:00:00	2024-11-06T05:00:00	2	Temperatura media	8.6
138274	7	Sololá	701	Sololá	2	El tablón	2	Febrero	2023-02-21T00:00:00	2024-11-06T05:00:00	4	Temperatura máxima	9.1
138275	7	Sololá	701	Sololá	2	El tablón	2	Febrero	2023-02-21T00:00:00	2024-11-06T05:00:00	3	Temperatura mínima	8.3
138276	7	Sololá	701	Sololá	2	El tablón	2	Febrero	2023-02-21T00:00:00	2024-11-06T05:00:00	5	Humedad	86
138277	7	Sololá	701	Sololá	2	El tablón	2	Febrero	2023-02-21T00:00:00	2024-11-06T05:00:00	6	Velocidad del viento	4.8
138278	7	Sololá	701	Sololá	2	El tablón	2	Febrero	2023-02-21T00:00:00	2024-11-06T05:00:00	7	Dirección del viento	4.83
138279	7	Sololá	701	Sololá	2	El tablón	2	Febrero	2023-02-21T00:00:00	2024-11-06T05:00:00	1	Precipitación	0
138280	7	Sololá	701	Sololá	2	El tablón	2	Febrero	2023-02-21T00:00:00	2024-11-06T05:00:00	8	Radiación solar	0
138281	7	Sololá	701	Sololá	2	El tablón	2	Febrero	2023-02-21T00:00:00	2024-11-06T06:00:00	2	Temperatura media	9.1
138282	7	Sololá	701	Sololá	2	El tablón	2	Febrero	2023-02-21T00:00:00	2024-11-06T06:00:00	4	Temperatura máxima	9.1
138283	7	Sololá	701	Sololá	2	El tablón	2	Febrero	2023-02-21T00:00:00	2024-11-06T06:00:00	3	Temperatura mínima	8.6
138284	7	Sololá	701	Sololá	2	El tablón	2	Febrero	2023-02-21T00:00:00	2024-11-06T06:00:00	5	Humedad	87
138285	7	Sololá	701	Sololá	2	El tablón	2	Febrero	2023-02-21T00:00:00	2024-11-06T06:00:00	6	Velocidad del viento	3.2
138286	7	Sololá	701	Sololá	2	El tablón	2	Febrero	2023-02-21T00:00:00	2024-11-06T06:00:00	7	Dirección del viento	3.22
138287	7	Sololá	701	Sololá	2	El tablón	2	Febrero	2023-02-21T00:00:00	2024-11-06T06:00:00	1	Precipitación	0
138288	7	Sololá	701	Sololá	2	El tablón	2	Febrero	2023-02-21T00:00:00	2024-11-06T06:00:00	8	Radiación solar	0
138289	7	Sololá	701	Sololá	2	El tablón	2	Febrero	2023-02-21T00:00:00	2024-11-06T07:00:00	2	Temperatura media	9.1
138290	7	Sololá	701	Sololá	2	El tablón	2	Febrero	2023-02-21T00:00:00	2024-11-06T07:00:00	4	Temperatura máxima	9.1
138291	7	Sololá	701	Sololá	2	El tablón	2	Febrero	2023-02-21T00:00:00	2024-11-06T07:00:00	3	Temperatura mínima	8.8
138292	7	Sololá	701	Sololá	2	El tablón	2	Febrero	2023-02-21T00:00:00	2024-11-06T07:00:00	5	Humedad	87
138293	7	Sololá	701	Sololá	2	El tablón	2	Febrero	2023-02-21T00:00:00	2024-11-06T07:00:00	6	Velocidad del viento	3.2
138294	7	Sololá	701	Sololá	2	El tablón	2	Febrero	2023-02-21T00:00:00	2024-11-06T07:00:00	7	Dirección del viento	3.22
138295	7	Sololá	701	Sololá	2	El tablón	2	Febrero	2023-02-21T00:00:00	2024-11-06T07:00:00	1	Precipitación	0
138296	7	Sololá	701	Sololá	2	El tablón	2	Febrero	2023-02-21T00:00:00	2024-11-06T07:00:00	8	Radiación solar	12
138297	7	Sololá	701	Sololá	2	El tablón	2	Febrero	2023-02-21T00:00:00	2024-11-06T08:00:00	2	Temperatura media	13.4
138298	7	Sololá	701	Sololá	2	El tablón	2	Febrero	2023-02-21T00:00:00	2024-11-06T08:00:00	4	Temperatura máxima	13.4
138299	7	Sololá	701	Sololá	2	El tablón	2	Febrero	2023-02-21T00:00:00	2024-11-06T08:00:00	3	Temperatura mínima	9.1
138300	7	Sololá	701	Sololá	2	El tablón	2	Febrero	2023-02-21T00:00:00	2024-11-06T08:00:00	5	Humedad	76
138301	7	Sololá	701	Sololá	2	El tablón	2	Febrero	2023-02-21T00:00:00	2024-11-06T08:00:00	6	Velocidad del viento	1.6
138302	7	Sololá	701	Sololá	2	El tablón	2	Febrero	2023-02-21T00:00:00	2024-11-06T08:00:00	7	Dirección del viento	1.61
138303	7	Sololá	701	Sololá	2	El tablón	2	Febrero	2023-02-21T00:00:00	2024-11-06T08:00:00	1	Precipitación	0
138304	7	Sololá	701	Sololá	2	El tablón	2	Febrero	2023-02-21T00:00:00	2024-11-06T08:00:00	8	Radiación solar	136
138305	7	Sololá	701	Sololá	2	El tablón	2	Febrero	2023-02-21T00:00:00	2024-11-06T09:00:00	2	Temperatura media	16.1
138306	7	Sololá	701	Sololá	2	El tablón	2	Febrero	2023-02-21T00:00:00	2024-11-06T09:00:00	4	Temperatura máxima	16.1
138307	7	Sololá	701	Sololá	2	El tablón	2	Febrero	2023-02-21T00:00:00	2024-11-06T09:00:00	3	Temperatura mínima	13.4
138308	7	Sololá	701	Sololá	2	El tablón	2	Febrero	2023-02-21T00:00:00	2024-11-06T09:00:00	5	Humedad	66
138309	7	Sololá	701	Sololá	2	El tablón	2	Febrero	2023-02-21T00:00:00	2024-11-06T09:00:00	6	Velocidad del viento	1.6
138310	7	Sololá	701	Sololá	2	El tablón	2	Febrero	2023-02-21T00:00:00	2024-11-06T09:00:00	7	Dirección del viento	1.61
138311	7	Sololá	701	Sololá	2	El tablón	2	Febrero	2023-02-21T00:00:00	2024-11-06T09:00:00	1	Precipitación	0
138312	7	Sololá	701	Sololá	2	El tablón	2	Febrero	2023-02-21T00:00:00	2024-11-06T09:00:00	8	Radiación solar	348
138313	7	Sololá	701	Sololá	2	El tablón	2	Febrero	2023-02-21T00:00:00	2024-11-06T10:00:00	2	Temperatura media	16.9
138314	7	Sololá	701	Sololá	2	El tablón	2	Febrero	2023-02-21T00:00:00	2024-11-06T10:00:00	4	Temperatura máxima	16.9
138315	7	Sololá	701	Sololá	2	El tablón	2	Febrero	2023-02-21T00:00:00	2024-11-06T10:00:00	3	Temperatura mínima	16.1
138316	7	Sololá	701	Sololá	2	El tablón	2	Febrero	2023-02-21T00:00:00	2024-11-06T10:00:00	5	Humedad	65
138317	7	Sololá	701	Sololá	2	El tablón	2	Febrero	2023-02-21T00:00:00	2024-11-06T10:00:00	6	Velocidad del viento	4.8
138318	7	Sololá	701	Sololá	2	El tablón	2	Febrero	2023-02-21T00:00:00	2024-11-06T10:00:00	7	Dirección del viento	4.83
138319	7	Sololá	701	Sololá	2	El tablón	2	Febrero	2023-02-21T00:00:00	2024-11-06T10:00:00	1	Precipitación	0
138320	7	Sololá	701	Sololá	2	El tablón	2	Febrero	2023-02-21T00:00:00	2024-11-06T10:00:00	8	Radiación solar	682
138321	7	Sololá	701	Sololá	2	El tablón	2	Febrero	2023-02-21T00:00:00	2024-11-06T11:00:00	2	Temperatura media	16.4
138322	7	Sololá	701	Sololá	2	El tablón	2	Febrero	2023-02-21T00:00:00	2024-11-06T11:00:00	4	Temperatura máxima	17.4
138323	7	Sololá	701	Sololá	2	El tablón	2	Febrero	2023-02-21T00:00:00	2024-11-06T11:00:00	3	Temperatura mínima	16.3
138324	7	Sololá	701	Sololá	2	El tablón	2	Febrero	2023-02-21T00:00:00	2024-11-06T11:00:00	5	Humedad	66
138325	7	Sololá	701	Sololá	2	El tablón	2	Febrero	2023-02-21T00:00:00	2024-11-06T11:00:00	6	Velocidad del viento	4.8
138326	7	Sololá	701	Sololá	2	El tablón	2	Febrero	2023-02-21T00:00:00	2024-11-06T11:00:00	7	Dirección del viento	4.83
138327	7	Sololá	701	Sololá	2	El tablón	2	Febrero	2023-02-21T00:00:00	2024-11-06T11:00:00	1	Precipitación	0
138328	7	Sololá	701	Sololá	2	El tablón	2	Febrero	2023-02-21T00:00:00	2024-11-06T11:00:00	8	Radiación solar	485
138329	7	Sololá	701	Sololá	2	El tablón	2	Febrero	2023-02-21T00:00:00	2024-11-06T12:00:00	2	Temperatura media	18.4
138330	7	Sololá	701	Sololá	2	El tablón	2	Febrero	2023-02-21T00:00:00	2024-11-06T12:00:00	4	Temperatura máxima	18.4
138331	7	Sololá	701	Sololá	2	El tablón	2	Febrero	2023-02-21T00:00:00	2024-11-06T12:00:00	3	Temperatura mínima	16.3
138332	7	Sololá	701	Sololá	2	El tablón	2	Febrero	2023-02-21T00:00:00	2024-11-06T12:00:00	5	Humedad	60
138333	7	Sololá	701	Sololá	2	El tablón	2	Febrero	2023-02-21T00:00:00	2024-11-06T12:00:00	6	Velocidad del viento	8
138334	7	Sololá	701	Sololá	2	El tablón	2	Febrero	2023-02-21T00:00:00	2024-11-06T12:00:00	7	Dirección del viento	8.05
138335	7	Sololá	701	Sololá	2	El tablón	2	Febrero	2023-02-21T00:00:00	2024-11-06T12:00:00	1	Precipitación	0
138336	7	Sololá	701	Sololá	2	El tablón	2	Febrero	2023-02-21T00:00:00	2024-11-06T12:00:00	8	Radiación solar	854
138337	7	Sololá	701	Sololá	2	El tablón	2	Febrero	2023-02-21T00:00:00	2024-11-06T13:00:00	2	Temperatura media	18.9
138338	7	Sololá	701	Sololá	2	El tablón	2	Febrero	2023-02-21T00:00:00	2024-11-06T13:00:00	4	Temperatura máxima	18.9
138339	7	Sololá	701	Sololá	2	El tablón	2	Febrero	2023-02-21T00:00:00	2024-11-06T13:00:00	3	Temperatura mínima	18.2
138340	7	Sololá	701	Sololá	2	El tablón	2	Febrero	2023-02-21T00:00:00	2024-11-06T13:00:00	5	Humedad	58
138341	7	Sololá	701	Sololá	2	El tablón	2	Febrero	2023-02-21T00:00:00	2024-11-06T13:00:00	6	Velocidad del viento	8
138342	7	Sololá	701	Sololá	2	El tablón	2	Febrero	2023-02-21T00:00:00	2024-11-06T13:00:00	7	Dirección del viento	8.05
138343	7	Sololá	701	Sololá	2	El tablón	2	Febrero	2023-02-21T00:00:00	2024-11-06T13:00:00	1	Precipitación	0
138344	7	Sololá	701	Sololá	2	El tablón	2	Febrero	2023-02-21T00:00:00	2024-11-06T13:00:00	8	Radiación solar	936
138345	7	Sololá	701	Sololá	2	El tablón	2	Febrero	2023-02-21T00:00:00	2024-11-06T14:00:00	2	Temperatura media	18.2
138346	7	Sololá	701	Sololá	2	El tablón	2	Febrero	2023-02-21T00:00:00	2024-11-06T14:00:00	4	Temperatura máxima	18.9
138347	7	Sololá	701	Sololá	2	El tablón	2	Febrero	2023-02-21T00:00:00	2024-11-06T14:00:00	3	Temperatura mínima	17.9
138348	7	Sololá	701	Sololá	2	El tablón	2	Febrero	2023-02-21T00:00:00	2024-11-06T14:00:00	5	Humedad	68
138349	7	Sololá	701	Sololá	2	El tablón	2	Febrero	2023-02-21T00:00:00	2024-11-06T14:00:00	6	Velocidad del viento	9.7
138350	7	Sololá	701	Sololá	2	El tablón	2	Febrero	2023-02-21T00:00:00	2024-11-06T14:00:00	7	Dirección del viento	9.66
138351	7	Sololá	701	Sololá	2	El tablón	2	Febrero	2023-02-21T00:00:00	2024-11-06T14:00:00	1	Precipitación	0
138352	7	Sololá	701	Sololá	2	El tablón	2	Febrero	2023-02-21T00:00:00	2024-11-06T14:00:00	8	Radiación solar	860
138353	7	Sololá	701	Sololá	2	El tablón	2	Febrero	2023-02-21T00:00:00	2024-11-06T15:00:00	2	Temperatura media	17.3
138354	7	Sololá	701	Sololá	2	El tablón	2	Febrero	2023-02-21T00:00:00	2024-11-06T15:00:00	4	Temperatura máxima	18.3
138355	7	Sololá	701	Sololá	2	El tablón	2	Febrero	2023-02-21T00:00:00	2024-11-06T15:00:00	3	Temperatura mínima	16.9
138356	7	Sololá	701	Sololá	2	El tablón	2	Febrero	2023-02-21T00:00:00	2024-11-06T15:00:00	5	Humedad	73
138357	7	Sololá	701	Sololá	2	El tablón	2	Febrero	2023-02-21T00:00:00	2024-11-06T15:00:00	6	Velocidad del viento	11.3
138358	7	Sololá	701	Sololá	2	El tablón	2	Febrero	2023-02-21T00:00:00	2024-11-06T15:00:00	7	Dirección del viento	11.27
138359	7	Sololá	701	Sololá	2	El tablón	2	Febrero	2023-02-21T00:00:00	2024-11-06T15:00:00	1	Precipitación	0
138360	7	Sololá	701	Sololá	2	El tablón	2	Febrero	2023-02-21T00:00:00	2024-11-06T15:00:00	8	Radiación solar	764
138361	7	Sololá	701	Sololá	2	El tablón	2	Febrero	2023-02-21T00:00:00	2024-11-06T16:00:00	2	Temperatura media	16.7
138362	7	Sololá	701	Sololá	2	El tablón	2	Febrero	2023-02-21T00:00:00	2024-11-06T16:00:00	4	Temperatura máxima	17.4
138363	7	Sololá	701	Sololá	2	El tablón	2	Febrero	2023-02-21T00:00:00	2024-11-06T16:00:00	3	Temperatura mínima	16.7
138364	7	Sololá	701	Sololá	2	El tablón	2	Febrero	2023-02-21T00:00:00	2024-11-06T16:00:00	5	Humedad	74
138365	7	Sololá	701	Sololá	2	El tablón	2	Febrero	2023-02-21T00:00:00	2024-11-06T16:00:00	6	Velocidad del viento	8
138366	7	Sololá	701	Sololá	2	El tablón	2	Febrero	2023-02-21T00:00:00	2024-11-06T16:00:00	7	Dirección del viento	8.05
138367	7	Sololá	701	Sololá	2	El tablón	2	Febrero	2023-02-21T00:00:00	2024-11-06T16:00:00	1	Precipitación	0
138368	7	Sololá	701	Sololá	2	El tablón	2	Febrero	2023-02-21T00:00:00	2024-11-06T16:00:00	8	Radiación solar	482
138369	7	Sololá	701	Sololá	2	El tablón	2	Febrero	2023-02-21T00:00:00	2024-11-06T17:00:00	2	Temperatura media	16.2
138370	7	Sololá	701	Sololá	2	El tablón	2	Febrero	2023-02-21T00:00:00	2024-11-06T17:00:00	4	Temperatura máxima	16.8
138371	7	Sololá	701	Sololá	2	El tablón	2	Febrero	2023-02-21T00:00:00	2024-11-06T17:00:00	3	Temperatura mínima	16.1
138372	7	Sololá	701	Sololá	2	El tablón	2	Febrero	2023-02-21T00:00:00	2024-11-06T17:00:00	5	Humedad	79
138373	7	Sololá	701	Sololá	2	El tablón	2	Febrero	2023-02-21T00:00:00	2024-11-06T17:00:00	6	Velocidad del viento	6.4
138374	7	Sololá	701	Sololá	2	El tablón	2	Febrero	2023-02-21T00:00:00	2024-11-06T17:00:00	7	Dirección del viento	6.44
138375	7	Sololá	701	Sololá	2	El tablón	2	Febrero	2023-02-21T00:00:00	2024-11-06T17:00:00	1	Precipitación	0
138376	7	Sololá	701	Sololá	2	El tablón	2	Febrero	2023-02-21T00:00:00	2024-11-06T17:00:00	8	Radiación solar	306
138377	7	Sololá	701	Sololá	2	El tablón	2	Febrero	2023-02-21T00:00:00	2024-11-06T18:00:00	2	Temperatura media	14.4
138378	7	Sololá	701	Sololá	2	El tablón	2	Febrero	2023-02-21T00:00:00	2024-11-06T18:00:00	4	Temperatura máxima	16.3
138379	7	Sololá	701	Sololá	2	El tablón	2	Febrero	2023-02-21T00:00:00	2024-11-06T18:00:00	3	Temperatura mínima	14.4
138380	7	Sololá	701	Sololá	2	El tablón	2	Febrero	2023-02-21T00:00:00	2024-11-06T18:00:00	5	Humedad	88
138381	7	Sololá	701	Sololá	2	El tablón	2	Febrero	2023-02-21T00:00:00	2024-11-06T18:00:00	6	Velocidad del viento	4.8
138382	7	Sololá	701	Sololá	2	El tablón	2	Febrero	2023-02-21T00:00:00	2024-11-06T18:00:00	7	Dirección del viento	4.83
138383	7	Sololá	701	Sololá	2	El tablón	2	Febrero	2023-02-21T00:00:00	2024-11-06T18:00:00	1	Precipitación	0
138384	7	Sololá	701	Sololá	2	El tablón	2	Febrero	2023-02-21T00:00:00	2024-11-06T18:00:00	8	Radiación solar	109
138385	7	Sololá	701	Sololá	2	El tablón	2	Febrero	2023-02-21T00:00:00	2024-11-06T19:00:00	2	Temperatura media	13.5
138386	7	Sololá	701	Sololá	2	El tablón	2	Febrero	2023-02-21T00:00:00	2024-11-06T19:00:00	4	Temperatura máxima	14.4
138387	7	Sololá	701	Sololá	2	El tablón	2	Febrero	2023-02-21T00:00:00	2024-11-06T19:00:00	3	Temperatura mínima	13.5
138388	7	Sololá	701	Sololá	2	El tablón	2	Febrero	2023-02-21T00:00:00	2024-11-06T19:00:00	5	Humedad	89
138389	7	Sololá	701	Sololá	2	El tablón	2	Febrero	2023-02-21T00:00:00	2024-11-06T19:00:00	6	Velocidad del viento	1.6
138390	7	Sololá	701	Sololá	2	El tablón	2	Febrero	2023-02-21T00:00:00	2024-11-06T19:00:00	7	Dirección del viento	1.61
138391	7	Sololá	701	Sololá	2	El tablón	2	Febrero	2023-02-21T00:00:00	2024-11-06T19:00:00	1	Precipitación	0
138392	7	Sololá	701	Sololá	2	El tablón	2	Febrero	2023-02-21T00:00:00	2024-11-06T19:00:00	8	Radiación solar	0
138393	7	Sololá	701	Sololá	2	El tablón	2	Febrero	2023-02-21T00:00:00	2024-11-06T20:00:00	2	Temperatura media	12.6
138394	7	Sololá	701	Sololá	2	El tablón	2	Febrero	2023-02-21T00:00:00	2024-11-06T20:00:00	4	Temperatura máxima	13.5
138395	7	Sololá	701	Sololá	2	El tablón	2	Febrero	2023-02-21T00:00:00	2024-11-06T20:00:00	3	Temperatura mínima	12.6
138396	7	Sololá	701	Sololá	2	El tablón	2	Febrero	2023-02-21T00:00:00	2024-11-06T20:00:00	5	Humedad	89
138397	7	Sololá	701	Sololá	2	El tablón	2	Febrero	2023-02-21T00:00:00	2024-11-06T20:00:00	6	Velocidad del viento	0
138398	7	Sololá	701	Sololá	2	El tablón	2	Febrero	2023-02-21T00:00:00	2024-11-06T20:00:00	7	Dirección del viento	0
138399	7	Sololá	701	Sololá	2	El tablón	2	Febrero	2023-02-21T00:00:00	2024-11-06T20:00:00	1	Precipitación	0
138400	7	Sololá	701	Sololá	2	El tablón	2	Febrero	2023-02-21T00:00:00	2024-11-06T20:00:00	8	Radiación solar	0
138401	7	Sololá	701	Sololá	2	El tablón	2	Febrero	2023-02-21T00:00:00	2024-11-06T21:00:00	2	Temperatura media	12.1
138402	7	Sololá	701	Sololá	2	El tablón	2	Febrero	2023-02-21T00:00:00	2024-11-06T21:00:00	4	Temperatura máxima	12.6
138403	7	Sololá	701	Sololá	2	El tablón	2	Febrero	2023-02-21T00:00:00	2024-11-06T21:00:00	3	Temperatura mínima	11.8
138404	7	Sololá	701	Sololá	2	El tablón	2	Febrero	2023-02-21T00:00:00	2024-11-06T21:00:00	5	Humedad	89
138405	7	Sololá	701	Sololá	2	El tablón	2	Febrero	2023-02-21T00:00:00	2024-11-06T21:00:00	6	Velocidad del viento	1.6
138406	7	Sololá	701	Sololá	2	El tablón	2	Febrero	2023-02-21T00:00:00	2024-11-06T21:00:00	7	Dirección del viento	1.61
138407	7	Sololá	701	Sololá	2	El tablón	2	Febrero	2023-02-21T00:00:00	2024-11-06T21:00:00	1	Precipitación	0
138408	7	Sololá	701	Sololá	2	El tablón	2	Febrero	2023-02-21T00:00:00	2024-11-06T21:00:00	8	Radiación solar	0
138409	7	Sololá	701	Sololá	2	El tablón	2	Febrero	2023-02-21T00:00:00	2024-11-06T22:00:00	2	Temperatura media	12.4
138410	7	Sololá	701	Sololá	2	El tablón	2	Febrero	2023-02-21T00:00:00	2024-11-06T22:00:00	4	Temperatura máxima	12.4
138411	7	Sololá	701	Sololá	2	El tablón	2	Febrero	2023-02-21T00:00:00	2024-11-06T22:00:00	3	Temperatura mínima	11.4
138412	7	Sololá	701	Sololá	2	El tablón	2	Febrero	2023-02-21T00:00:00	2024-11-06T22:00:00	5	Humedad	87
138413	7	Sololá	701	Sololá	2	El tablón	2	Febrero	2023-02-21T00:00:00	2024-11-06T22:00:00	6	Velocidad del viento	1.6
138414	7	Sololá	701	Sololá	2	El tablón	2	Febrero	2023-02-21T00:00:00	2024-11-06T22:00:00	7	Dirección del viento	1.61
138415	7	Sololá	701	Sololá	2	El tablón	2	Febrero	2023-02-21T00:00:00	2024-11-06T22:00:00	1	Precipitación	0
138416	7	Sololá	701	Sololá	2	El tablón	2	Febrero	2023-02-21T00:00:00	2024-11-06T22:00:00	8	Radiación solar	0
138417	7	Sololá	701	Sololá	2	El tablón	2	Febrero	2023-02-21T00:00:00	2024-11-06T23:00:00	2	Temperatura media	11.3
138418	7	Sololá	701	Sololá	2	El tablón	2	Febrero	2023-02-21T00:00:00	2024-11-06T23:00:00	4	Temperatura máxima	12.4
138419	7	Sololá	701	Sololá	2	El tablón	2	Febrero	2023-02-21T00:00:00	2024-11-06T23:00:00	3	Temperatura mínima	10.9
138420	7	Sololá	701	Sololá	2	El tablón	2	Febrero	2023-02-21T00:00:00	2024-11-06T23:00:00	5	Humedad	88
138421	7	Sololá	701	Sololá	2	El tablón	2	Febrero	2023-02-21T00:00:00	2024-11-06T23:00:00	6	Velocidad del viento	3.2
138422	7	Sololá	701	Sololá	2	El tablón	2	Febrero	2023-02-21T00:00:00	2024-11-06T23:00:00	7	Dirección del viento	3.22
138423	7	Sololá	701	Sololá	2	El tablón	2	Febrero	2023-02-21T00:00:00	2024-11-06T23:00:00	1	Precipitación	0
138424	7	Sololá	701	Sololá	2	El tablón	2	Febrero	2023-02-21T00:00:00	2024-11-06T23:00:00	8	Radiación solar	0
138425	7	Sololá	701	Sololá	2	El tablón	2	Febrero	2023-02-22T00:00:00	2024-11-06T00:00:00	2	Temperatura media	11.3
138426	7	Sololá	701	Sololá	2	El tablón	2	Febrero	2023-02-22T00:00:00	2024-11-06T00:00:00	4	Temperatura máxima	11.3
138427	7	Sololá	701	Sololá	2	El tablón	2	Febrero	2023-02-22T00:00:00	2024-11-06T00:00:00	3	Temperatura mínima	11
138428	7	Sololá	701	Sololá	2	El tablón	2	Febrero	2023-02-22T00:00:00	2024-11-06T00:00:00	5	Humedad	89
138429	7	Sololá	701	Sololá	2	El tablón	2	Febrero	2023-02-22T00:00:00	2024-11-06T00:00:00	6	Velocidad del viento	1.6
138430	7	Sololá	701	Sololá	2	El tablón	2	Febrero	2023-02-22T00:00:00	2024-11-06T00:00:00	7	Dirección del viento	1.61
138431	7	Sololá	701	Sololá	2	El tablón	2	Febrero	2023-02-22T00:00:00	2024-11-06T00:00:00	1	Precipitación	0
138432	7	Sololá	701	Sololá	2	El tablón	2	Febrero	2023-02-22T00:00:00	2024-11-06T00:00:00	8	Radiación solar	0
138433	7	Sololá	701	Sololá	2	El tablón	2	Febrero	2023-02-22T00:00:00	2024-11-06T01:00:00	2	Temperatura media	11.9
138434	7	Sololá	701	Sololá	2	El tablón	2	Febrero	2023-02-22T00:00:00	2024-11-06T01:00:00	4	Temperatura máxima	11.9
138435	7	Sololá	701	Sololá	2	El tablón	2	Febrero	2023-02-22T00:00:00	2024-11-06T01:00:00	3	Temperatura mínima	11.3
138436	7	Sololá	701	Sololá	2	El tablón	2	Febrero	2023-02-22T00:00:00	2024-11-06T01:00:00	5	Humedad	88
138437	7	Sololá	701	Sololá	2	El tablón	2	Febrero	2023-02-22T00:00:00	2024-11-06T01:00:00	6	Velocidad del viento	0
138438	7	Sololá	701	Sololá	2	El tablón	2	Febrero	2023-02-22T00:00:00	2024-11-06T01:00:00	7	Dirección del viento	0
138439	7	Sololá	701	Sololá	2	El tablón	2	Febrero	2023-02-22T00:00:00	2024-11-06T01:00:00	1	Precipitación	0
138440	7	Sololá	701	Sololá	2	El tablón	2	Febrero	2023-02-22T00:00:00	2024-11-06T01:00:00	8	Radiación solar	0
138441	7	Sololá	701	Sololá	2	El tablón	2	Febrero	2023-02-22T00:00:00	2024-11-06T02:00:00	2	Temperatura media	11.6
138442	7	Sololá	701	Sololá	2	El tablón	2	Febrero	2023-02-22T00:00:00	2024-11-06T02:00:00	4	Temperatura máxima	11.9
138443	7	Sololá	701	Sololá	2	El tablón	2	Febrero	2023-02-22T00:00:00	2024-11-06T02:00:00	3	Temperatura mínima	11.6
138444	7	Sololá	701	Sololá	2	El tablón	2	Febrero	2023-02-22T00:00:00	2024-11-06T02:00:00	5	Humedad	89
138445	7	Sololá	701	Sololá	2	El tablón	2	Febrero	2023-02-22T00:00:00	2024-11-06T02:00:00	6	Velocidad del viento	0
138446	7	Sololá	701	Sololá	2	El tablón	2	Febrero	2023-02-22T00:00:00	2024-11-06T02:00:00	7	Dirección del viento	0
138447	7	Sololá	701	Sololá	2	El tablón	2	Febrero	2023-02-22T00:00:00	2024-11-06T02:00:00	1	Precipitación	0
138448	7	Sololá	701	Sololá	2	El tablón	2	Febrero	2023-02-22T00:00:00	2024-11-06T02:00:00	8	Radiación solar	0
138449	7	Sololá	701	Sololá	2	El tablón	2	Febrero	2023-02-22T00:00:00	2024-11-06T03:00:00	2	Temperatura media	11.4
138450	7	Sololá	701	Sololá	2	El tablón	2	Febrero	2023-02-22T00:00:00	2024-11-06T03:00:00	4	Temperatura máxima	11.6
138451	7	Sololá	701	Sololá	2	El tablón	2	Febrero	2023-02-22T00:00:00	2024-11-06T03:00:00	3	Temperatura mínima	11.3
138452	7	Sololá	701	Sololá	2	El tablón	2	Febrero	2023-02-22T00:00:00	2024-11-06T03:00:00	5	Humedad	90
138453	7	Sololá	701	Sololá	2	El tablón	2	Febrero	2023-02-22T00:00:00	2024-11-06T03:00:00	6	Velocidad del viento	1.6
138454	7	Sololá	701	Sololá	2	El tablón	2	Febrero	2023-02-22T00:00:00	2024-11-06T03:00:00	7	Dirección del viento	1.61
138455	7	Sololá	701	Sololá	2	El tablón	2	Febrero	2023-02-22T00:00:00	2024-11-06T03:00:00	1	Precipitación	0
138456	7	Sololá	701	Sololá	2	El tablón	2	Febrero	2023-02-22T00:00:00	2024-11-06T03:00:00	8	Radiación solar	0
138457	7	Sololá	701	Sololá	2	El tablón	2	Febrero	2023-02-22T00:00:00	2024-11-06T04:00:00	2	Temperatura media	11.5
138458	7	Sololá	701	Sololá	2	El tablón	2	Febrero	2023-02-22T00:00:00	2024-11-06T04:00:00	4	Temperatura máxima	11.7
138459	7	Sololá	701	Sololá	2	El tablón	2	Febrero	2023-02-22T00:00:00	2024-11-06T04:00:00	3	Temperatura mínima	11.4
138460	7	Sololá	701	Sololá	2	El tablón	2	Febrero	2023-02-22T00:00:00	2024-11-06T04:00:00	5	Humedad	90
138461	7	Sololá	701	Sololá	2	El tablón	2	Febrero	2023-02-22T00:00:00	2024-11-06T04:00:00	6	Velocidad del viento	1.6
138462	7	Sololá	701	Sololá	2	El tablón	2	Febrero	2023-02-22T00:00:00	2024-11-06T04:00:00	7	Dirección del viento	1.61
138463	7	Sololá	701	Sololá	2	El tablón	2	Febrero	2023-02-22T00:00:00	2024-11-06T04:00:00	1	Precipitación	0
138464	7	Sololá	701	Sololá	2	El tablón	2	Febrero	2023-02-22T00:00:00	2024-11-06T04:00:00	8	Radiación solar	0
138465	7	Sololá	701	Sololá	2	El tablón	2	Febrero	2023-02-22T00:00:00	2024-11-06T05:00:00	2	Temperatura media	10.8
138466	7	Sololá	701	Sololá	2	El tablón	2	Febrero	2023-02-22T00:00:00	2024-11-06T05:00:00	4	Temperatura máxima	11.5
138467	7	Sololá	701	Sololá	2	El tablón	2	Febrero	2023-02-22T00:00:00	2024-11-06T05:00:00	3	Temperatura mínima	10.8
138468	7	Sololá	701	Sololá	2	El tablón	2	Febrero	2023-02-22T00:00:00	2024-11-06T05:00:00	5	Humedad	90
138469	7	Sololá	701	Sololá	2	El tablón	2	Febrero	2023-02-22T00:00:00	2024-11-06T05:00:00	6	Velocidad del viento	0
138470	7	Sololá	701	Sololá	2	El tablón	2	Febrero	2023-02-22T00:00:00	2024-11-06T05:00:00	7	Dirección del viento	0
138471	7	Sololá	701	Sololá	2	El tablón	2	Febrero	2023-02-22T00:00:00	2024-11-06T05:00:00	1	Precipitación	0
138472	7	Sololá	701	Sololá	2	El tablón	2	Febrero	2023-02-22T00:00:00	2024-11-06T05:00:00	8	Radiación solar	0
138473	7	Sololá	701	Sololá	2	El tablón	2	Febrero	2023-02-22T00:00:00	2024-11-06T06:00:00	2	Temperatura media	10.3
138474	7	Sololá	701	Sololá	2	El tablón	2	Febrero	2023-02-22T00:00:00	2024-11-06T06:00:00	4	Temperatura máxima	10.8
138475	7	Sololá	701	Sololá	2	El tablón	2	Febrero	2023-02-22T00:00:00	2024-11-06T06:00:00	3	Temperatura mínima	10.3
138476	7	Sololá	701	Sololá	2	El tablón	2	Febrero	2023-02-22T00:00:00	2024-11-06T06:00:00	5	Humedad	90
138477	7	Sololá	701	Sololá	2	El tablón	2	Febrero	2023-02-22T00:00:00	2024-11-06T06:00:00	6	Velocidad del viento	0
138478	7	Sololá	701	Sololá	2	El tablón	2	Febrero	2023-02-22T00:00:00	2024-11-06T06:00:00	7	Dirección del viento	0
138479	7	Sololá	701	Sololá	2	El tablón	2	Febrero	2023-02-22T00:00:00	2024-11-06T06:00:00	1	Precipitación	0
138480	7	Sololá	701	Sololá	2	El tablón	2	Febrero	2023-02-22T00:00:00	2024-11-06T06:00:00	8	Radiación solar	0
138481	7	Sololá	701	Sololá	2	El tablón	2	Febrero	2023-02-22T00:00:00	2024-11-06T07:00:00	2	Temperatura media	10.3
138482	7	Sololá	701	Sololá	2	El tablón	2	Febrero	2023-02-22T00:00:00	2024-11-06T07:00:00	4	Temperatura máxima	10.3
138483	7	Sololá	701	Sololá	2	El tablón	2	Febrero	2023-02-22T00:00:00	2024-11-06T07:00:00	3	Temperatura mínima	10.3
138484	7	Sololá	701	Sololá	2	El tablón	2	Febrero	2023-02-22T00:00:00	2024-11-06T07:00:00	5	Humedad	90
138485	7	Sololá	701	Sololá	2	El tablón	2	Febrero	2023-02-22T00:00:00	2024-11-06T07:00:00	6	Velocidad del viento	0
138486	7	Sololá	701	Sololá	2	El tablón	2	Febrero	2023-02-22T00:00:00	2024-11-06T07:00:00	7	Dirección del viento	0
138487	7	Sololá	701	Sololá	2	El tablón	2	Febrero	2023-02-22T00:00:00	2024-11-06T07:00:00	1	Precipitación	0
138488	7	Sololá	701	Sololá	2	El tablón	2	Febrero	2023-02-22T00:00:00	2024-11-06T07:00:00	8	Radiación solar	15
138489	7	Sololá	701	Sololá	2	El tablón	2	Febrero	2023-02-22T00:00:00	2024-11-06T08:00:00	2	Temperatura media	12.1
138490	7	Sololá	701	Sololá	2	El tablón	2	Febrero	2023-02-22T00:00:00	2024-11-06T08:00:00	4	Temperatura máxima	12.1
138491	7	Sololá	701	Sololá	2	El tablón	2	Febrero	2023-02-22T00:00:00	2024-11-06T08:00:00	3	Temperatura mínima	10.3
138492	7	Sololá	701	Sololá	2	El tablón	2	Febrero	2023-02-22T00:00:00	2024-11-06T08:00:00	5	Humedad	90
138493	7	Sololá	701	Sololá	2	El tablón	2	Febrero	2023-02-22T00:00:00	2024-11-06T08:00:00	6	Velocidad del viento	1.6
138494	7	Sololá	701	Sololá	2	El tablón	2	Febrero	2023-02-22T00:00:00	2024-11-06T08:00:00	7	Dirección del viento	1.61
138495	7	Sololá	701	Sololá	2	El tablón	2	Febrero	2023-02-22T00:00:00	2024-11-06T08:00:00	1	Precipitación	0
138496	7	Sololá	701	Sololá	2	El tablón	2	Febrero	2023-02-22T00:00:00	2024-11-06T08:00:00	8	Radiación solar	103
138497	7	Sololá	701	Sololá	2	El tablón	2	Febrero	2023-02-22T00:00:00	2024-11-06T09:00:00	2	Temperatura media	13.8
138498	7	Sololá	701	Sololá	2	El tablón	2	Febrero	2023-02-22T00:00:00	2024-11-06T09:00:00	4	Temperatura máxima	13.9
138499	7	Sololá	701	Sololá	2	El tablón	2	Febrero	2023-02-22T00:00:00	2024-11-06T09:00:00	3	Temperatura mínima	12.1
138500	7	Sololá	701	Sololá	2	El tablón	2	Febrero	2023-02-22T00:00:00	2024-11-06T09:00:00	5	Humedad	84
138501	7	Sololá	701	Sololá	2	El tablón	2	Febrero	2023-02-22T00:00:00	2024-11-06T09:00:00	6	Velocidad del viento	3.2
138502	7	Sololá	701	Sololá	2	El tablón	2	Febrero	2023-02-22T00:00:00	2024-11-06T09:00:00	7	Dirección del viento	3.22
138503	7	Sololá	701	Sololá	2	El tablón	2	Febrero	2023-02-22T00:00:00	2024-11-06T09:00:00	1	Precipitación	0
138504	7	Sololá	701	Sololá	2	El tablón	2	Febrero	2023-02-22T00:00:00	2024-11-06T09:00:00	8	Radiación solar	231
138505	7	Sololá	701	Sololá	2	El tablón	2	Febrero	2023-02-22T00:00:00	2024-11-06T10:00:00	2	Temperatura media	15.3
138506	7	Sololá	701	Sololá	2	El tablón	2	Febrero	2023-02-22T00:00:00	2024-11-06T10:00:00	4	Temperatura máxima	15.8
138507	7	Sololá	701	Sololá	2	El tablón	2	Febrero	2023-02-22T00:00:00	2024-11-06T10:00:00	3	Temperatura mínima	13.6
138508	7	Sololá	701	Sololá	2	El tablón	2	Febrero	2023-02-22T00:00:00	2024-11-06T10:00:00	5	Humedad	77
138509	7	Sololá	701	Sololá	2	El tablón	2	Febrero	2023-02-22T00:00:00	2024-11-06T10:00:00	6	Velocidad del viento	4.8
138510	7	Sololá	701	Sololá	2	El tablón	2	Febrero	2023-02-22T00:00:00	2024-11-06T10:00:00	7	Dirección del viento	4.83
138511	7	Sololá	701	Sololá	2	El tablón	2	Febrero	2023-02-22T00:00:00	2024-11-06T10:00:00	1	Precipitación	0
138512	7	Sololá	701	Sololá	2	El tablón	2	Febrero	2023-02-22T00:00:00	2024-11-06T10:00:00	8	Radiación solar	399
138513	7	Sololá	701	Sololá	2	El tablón	2	Febrero	2023-02-22T00:00:00	2024-11-06T11:00:00	2	Temperatura media	16.6
138514	7	Sololá	701	Sololá	2	El tablón	2	Febrero	2023-02-22T00:00:00	2024-11-06T11:00:00	4	Temperatura máxima	16.9
138515	7	Sololá	701	Sololá	2	El tablón	2	Febrero	2023-02-22T00:00:00	2024-11-06T11:00:00	3	Temperatura mínima	15.2
138516	7	Sololá	701	Sololá	2	El tablón	2	Febrero	2023-02-22T00:00:00	2024-11-06T11:00:00	5	Humedad	63
138517	7	Sololá	701	Sololá	2	El tablón	2	Febrero	2023-02-22T00:00:00	2024-11-06T11:00:00	6	Velocidad del viento	6.4
138518	7	Sololá	701	Sololá	2	El tablón	2	Febrero	2023-02-22T00:00:00	2024-11-06T11:00:00	7	Dirección del viento	6.44
138519	7	Sololá	701	Sololá	2	El tablón	2	Febrero	2023-02-22T00:00:00	2024-11-06T11:00:00	1	Precipitación	0
138520	7	Sololá	701	Sololá	2	El tablón	2	Febrero	2023-02-22T00:00:00	2024-11-06T11:00:00	8	Radiación solar	767
138521	7	Sololá	701	Sololá	2	El tablón	2	Febrero	2023-02-22T00:00:00	2024-11-06T12:00:00	2	Temperatura media	16
138522	7	Sololá	701	Sololá	2	El tablón	2	Febrero	2023-02-22T00:00:00	2024-11-06T12:00:00	4	Temperatura máxima	16.7
138523	7	Sololá	701	Sololá	2	El tablón	2	Febrero	2023-02-22T00:00:00	2024-11-06T12:00:00	3	Temperatura mínima	16
138524	7	Sololá	701	Sololá	2	El tablón	2	Febrero	2023-02-22T00:00:00	2024-11-06T12:00:00	5	Humedad	65
138525	7	Sololá	701	Sololá	2	El tablón	2	Febrero	2023-02-22T00:00:00	2024-11-06T12:00:00	6	Velocidad del viento	8
138526	7	Sololá	701	Sololá	2	El tablón	2	Febrero	2023-02-22T00:00:00	2024-11-06T12:00:00	7	Dirección del viento	8.05
138527	7	Sololá	701	Sololá	2	El tablón	2	Febrero	2023-02-22T00:00:00	2024-11-06T12:00:00	1	Precipitación	0
138528	7	Sololá	701	Sololá	2	El tablón	2	Febrero	2023-02-22T00:00:00	2024-11-06T12:00:00	8	Radiación solar	420
138529	7	Sololá	701	Sololá	2	El tablón	2	Febrero	2023-02-22T00:00:00	2024-11-06T13:00:00	2	Temperatura media	16.8
138530	7	Sololá	701	Sololá	2	El tablón	2	Febrero	2023-02-22T00:00:00	2024-11-06T13:00:00	4	Temperatura máxima	16.8
138531	7	Sololá	701	Sololá	2	El tablón	2	Febrero	2023-02-22T00:00:00	2024-11-06T13:00:00	3	Temperatura mínima	15.8
138532	7	Sololá	701	Sololá	2	El tablón	2	Febrero	2023-02-22T00:00:00	2024-11-06T13:00:00	5	Humedad	72
138533	7	Sololá	701	Sololá	2	El tablón	2	Febrero	2023-02-22T00:00:00	2024-11-06T13:00:00	6	Velocidad del viento	8
138534	7	Sololá	701	Sololá	2	El tablón	2	Febrero	2023-02-22T00:00:00	2024-11-06T13:00:00	7	Dirección del viento	8.05
138535	7	Sololá	701	Sololá	2	El tablón	2	Febrero	2023-02-22T00:00:00	2024-11-06T13:00:00	1	Precipitación	0
138536	7	Sololá	701	Sololá	2	El tablón	2	Febrero	2023-02-22T00:00:00	2024-11-06T13:00:00	8	Radiación solar	517
138537	7	Sololá	701	Sololá	2	El tablón	2	Febrero	2023-02-22T00:00:00	2024-11-06T14:00:00	2	Temperatura media	17.2
138538	7	Sololá	701	Sololá	2	El tablón	2	Febrero	2023-02-22T00:00:00	2024-11-06T14:00:00	4	Temperatura máxima	17.2
138539	7	Sololá	701	Sololá	2	El tablón	2	Febrero	2023-02-22T00:00:00	2024-11-06T14:00:00	3	Temperatura mínima	16.8
138540	7	Sololá	701	Sololá	2	El tablón	2	Febrero	2023-02-22T00:00:00	2024-11-06T14:00:00	5	Humedad	72
138541	7	Sololá	701	Sololá	2	El tablón	2	Febrero	2023-02-22T00:00:00	2024-11-06T14:00:00	6	Velocidad del viento	9.7
138542	7	Sololá	701	Sololá	2	El tablón	2	Febrero	2023-02-22T00:00:00	2024-11-06T14:00:00	7	Dirección del viento	9.66
138543	7	Sololá	701	Sololá	2	El tablón	2	Febrero	2023-02-22T00:00:00	2024-11-06T14:00:00	1	Precipitación	0
138544	7	Sololá	701	Sololá	2	El tablón	2	Febrero	2023-02-22T00:00:00	2024-11-06T14:00:00	8	Radiación solar	883
138545	7	Sololá	701	Sololá	2	El tablón	2	Febrero	2023-02-22T00:00:00	2024-11-06T15:00:00	2	Temperatura media	17.9
138546	7	Sololá	701	Sololá	2	El tablón	2	Febrero	2023-02-22T00:00:00	2024-11-06T15:00:00	4	Temperatura máxima	17.9
138547	7	Sololá	701	Sololá	2	El tablón	2	Febrero	2023-02-22T00:00:00	2024-11-06T15:00:00	3	Temperatura mínima	17.1
138548	7	Sololá	701	Sololá	2	El tablón	2	Febrero	2023-02-22T00:00:00	2024-11-06T15:00:00	5	Humedad	72
138549	7	Sololá	701	Sololá	2	El tablón	2	Febrero	2023-02-22T00:00:00	2024-11-06T15:00:00	6	Velocidad del viento	9.7
138550	7	Sololá	701	Sololá	2	El tablón	2	Febrero	2023-02-22T00:00:00	2024-11-06T15:00:00	7	Dirección del viento	9.66
138551	7	Sololá	701	Sololá	2	El tablón	2	Febrero	2023-02-22T00:00:00	2024-11-06T15:00:00	1	Precipitación	0
138552	7	Sololá	701	Sololá	2	El tablón	2	Febrero	2023-02-22T00:00:00	2024-11-06T15:00:00	8	Radiación solar	831
138553	7	Sololá	701	Sololá	2	El tablón	2	Febrero	2023-02-22T00:00:00	2024-11-06T16:00:00	2	Temperatura media	15.8
138554	7	Sololá	701	Sololá	2	El tablón	2	Febrero	2023-02-22T00:00:00	2024-11-06T16:00:00	4	Temperatura máxima	18
138555	7	Sololá	701	Sololá	2	El tablón	2	Febrero	2023-02-22T00:00:00	2024-11-06T16:00:00	3	Temperatura mínima	15.8
138556	7	Sololá	701	Sololá	2	El tablón	2	Febrero	2023-02-22T00:00:00	2024-11-06T16:00:00	5	Humedad	81
138557	7	Sololá	701	Sololá	2	El tablón	2	Febrero	2023-02-22T00:00:00	2024-11-06T16:00:00	6	Velocidad del viento	11.3
138558	7	Sololá	701	Sololá	2	El tablón	2	Febrero	2023-02-22T00:00:00	2024-11-06T16:00:00	7	Dirección del viento	11.27
138559	7	Sololá	701	Sololá	2	El tablón	2	Febrero	2023-02-22T00:00:00	2024-11-06T16:00:00	1	Precipitación	0
138560	7	Sololá	701	Sololá	2	El tablón	2	Febrero	2023-02-22T00:00:00	2024-11-06T16:00:00	8	Radiación solar	651
138561	7	Sololá	701	Sololá	2	El tablón	2	Febrero	2023-02-22T00:00:00	2024-11-06T17:00:00	2	Temperatura media	14.3
138562	7	Sololá	701	Sololá	2	El tablón	2	Febrero	2023-02-22T00:00:00	2024-11-06T17:00:00	4	Temperatura máxima	16.1
138563	7	Sololá	701	Sololá	2	El tablón	2	Febrero	2023-02-22T00:00:00	2024-11-06T17:00:00	3	Temperatura mínima	14.3
138564	7	Sololá	701	Sololá	2	El tablón	2	Febrero	2023-02-22T00:00:00	2024-11-06T17:00:00	5	Humedad	87
138565	7	Sololá	701	Sololá	2	El tablón	2	Febrero	2023-02-22T00:00:00	2024-11-06T17:00:00	6	Velocidad del viento	8
138566	7	Sololá	701	Sololá	2	El tablón	2	Febrero	2023-02-22T00:00:00	2024-11-06T17:00:00	7	Dirección del viento	8.05
138567	7	Sololá	701	Sololá	2	El tablón	2	Febrero	2023-02-22T00:00:00	2024-11-06T17:00:00	1	Precipitación	0
138568	7	Sololá	701	Sololá	2	El tablón	2	Febrero	2023-02-22T00:00:00	2024-11-06T17:00:00	8	Radiación solar	269
138569	7	Sololá	701	Sololá	2	El tablón	2	Febrero	2023-02-22T00:00:00	2024-11-06T18:00:00	2	Temperatura media	13.8
138570	7	Sololá	701	Sololá	2	El tablón	2	Febrero	2023-02-22T00:00:00	2024-11-06T18:00:00	4	Temperatura máxima	14.3
138571	7	Sololá	701	Sololá	2	El tablón	2	Febrero	2023-02-22T00:00:00	2024-11-06T18:00:00	3	Temperatura mínima	13.7
138572	7	Sololá	701	Sololá	2	El tablón	2	Febrero	2023-02-22T00:00:00	2024-11-06T18:00:00	5	Humedad	88
138573	7	Sololá	701	Sololá	2	El tablón	2	Febrero	2023-02-22T00:00:00	2024-11-06T18:00:00	6	Velocidad del viento	3.2
138574	7	Sololá	701	Sololá	2	El tablón	2	Febrero	2023-02-22T00:00:00	2024-11-06T18:00:00	7	Dirección del viento	3.22
138575	7	Sololá	701	Sololá	2	El tablón	2	Febrero	2023-02-22T00:00:00	2024-11-06T18:00:00	1	Precipitación	0
138576	7	Sololá	701	Sololá	2	El tablón	2	Febrero	2023-02-22T00:00:00	2024-11-06T18:00:00	8	Radiación solar	57
138577	7	Sololá	701	Sololá	2	El tablón	2	Febrero	2023-02-22T00:00:00	2024-11-06T19:00:00	2	Temperatura media	13
138578	7	Sololá	701	Sololá	2	El tablón	2	Febrero	2023-02-22T00:00:00	2024-11-06T19:00:00	4	Temperatura máxima	13.9
138579	7	Sololá	701	Sololá	2	El tablón	2	Febrero	2023-02-22T00:00:00	2024-11-06T19:00:00	3	Temperatura mínima	13
138580	7	Sololá	701	Sololá	2	El tablón	2	Febrero	2023-02-22T00:00:00	2024-11-06T19:00:00	5	Humedad	89
138581	7	Sololá	701	Sololá	2	El tablón	2	Febrero	2023-02-22T00:00:00	2024-11-06T19:00:00	6	Velocidad del viento	1.6
138582	7	Sololá	701	Sololá	2	El tablón	2	Febrero	2023-02-22T00:00:00	2024-11-06T19:00:00	7	Dirección del viento	1.61
138583	7	Sololá	701	Sololá	2	El tablón	2	Febrero	2023-02-22T00:00:00	2024-11-06T19:00:00	1	Precipitación	0
138584	7	Sololá	701	Sololá	2	El tablón	2	Febrero	2023-02-22T00:00:00	2024-11-06T19:00:00	8	Radiación solar	0
138585	7	Sololá	701	Sololá	2	El tablón	2	Febrero	2023-02-22T00:00:00	2024-11-06T20:00:00	2	Temperatura media	12.8
138586	7	Sololá	701	Sololá	2	El tablón	2	Febrero	2023-02-22T00:00:00	2024-11-06T20:00:00	4	Temperatura máxima	13
138587	7	Sololá	701	Sololá	2	El tablón	2	Febrero	2023-02-22T00:00:00	2024-11-06T20:00:00	3	Temperatura mínima	12.5
138588	7	Sololá	701	Sololá	2	El tablón	2	Febrero	2023-02-22T00:00:00	2024-11-06T20:00:00	5	Humedad	90
138589	7	Sololá	701	Sololá	2	El tablón	2	Febrero	2023-02-22T00:00:00	2024-11-06T20:00:00	6	Velocidad del viento	1.6
138590	7	Sololá	701	Sololá	2	El tablón	2	Febrero	2023-02-22T00:00:00	2024-11-06T20:00:00	7	Dirección del viento	1.61
138591	7	Sololá	701	Sololá	2	El tablón	2	Febrero	2023-02-22T00:00:00	2024-11-06T20:00:00	1	Precipitación	0
138592	7	Sololá	701	Sololá	2	El tablón	2	Febrero	2023-02-22T00:00:00	2024-11-06T20:00:00	8	Radiación solar	0
138593	7	Sololá	701	Sololá	2	El tablón	2	Febrero	2023-02-22T00:00:00	2024-11-06T21:00:00	2	Temperatura media	12.2
138594	7	Sololá	701	Sololá	2	El tablón	2	Febrero	2023-02-22T00:00:00	2024-11-06T21:00:00	4	Temperatura máxima	12.8
138595	7	Sololá	701	Sololá	2	El tablón	2	Febrero	2023-02-22T00:00:00	2024-11-06T21:00:00	3	Temperatura mínima	12.2
138596	7	Sololá	701	Sololá	2	El tablón	2	Febrero	2023-02-22T00:00:00	2024-11-06T21:00:00	5	Humedad	90
138597	7	Sololá	701	Sololá	2	El tablón	2	Febrero	2023-02-22T00:00:00	2024-11-06T21:00:00	6	Velocidad del viento	1.6
138598	7	Sololá	701	Sololá	2	El tablón	2	Febrero	2023-02-22T00:00:00	2024-11-06T21:00:00	7	Dirección del viento	1.61
138599	7	Sololá	701	Sololá	2	El tablón	2	Febrero	2023-02-22T00:00:00	2024-11-06T21:00:00	1	Precipitación	0
138600	7	Sololá	701	Sololá	2	El tablón	2	Febrero	2023-02-22T00:00:00	2024-11-06T21:00:00	8	Radiación solar	0
138601	7	Sololá	701	Sololá	2	El tablón	2	Febrero	2023-02-22T00:00:00	2024-11-06T22:00:00	2	Temperatura media	11.5
138602	7	Sololá	701	Sololá	2	El tablón	2	Febrero	2023-02-22T00:00:00	2024-11-06T22:00:00	4	Temperatura máxima	12.2
138603	7	Sololá	701	Sololá	2	El tablón	2	Febrero	2023-02-22T00:00:00	2024-11-06T22:00:00	3	Temperatura mínima	11.5
138604	7	Sololá	701	Sololá	2	El tablón	2	Febrero	2023-02-22T00:00:00	2024-11-06T22:00:00	5	Humedad	89
138605	7	Sololá	701	Sololá	2	El tablón	2	Febrero	2023-02-22T00:00:00	2024-11-06T22:00:00	6	Velocidad del viento	1.6
138606	7	Sololá	701	Sololá	2	El tablón	2	Febrero	2023-02-22T00:00:00	2024-11-06T22:00:00	7	Dirección del viento	1.61
138607	7	Sololá	701	Sololá	2	El tablón	2	Febrero	2023-02-22T00:00:00	2024-11-06T22:00:00	1	Precipitación	0
138608	7	Sololá	701	Sololá	2	El tablón	2	Febrero	2023-02-22T00:00:00	2024-11-06T22:00:00	8	Radiación solar	0
138609	7	Sololá	701	Sololá	2	El tablón	2	Febrero	2023-02-22T00:00:00	2024-11-06T23:00:00	2	Temperatura media	11
138610	7	Sololá	701	Sololá	2	El tablón	2	Febrero	2023-02-22T00:00:00	2024-11-06T23:00:00	4	Temperatura máxima	11.5
138611	7	Sololá	701	Sololá	2	El tablón	2	Febrero	2023-02-22T00:00:00	2024-11-06T23:00:00	3	Temperatura mínima	10.9
138612	7	Sololá	701	Sololá	2	El tablón	2	Febrero	2023-02-22T00:00:00	2024-11-06T23:00:00	5	Humedad	89
138613	7	Sololá	701	Sololá	2	El tablón	2	Febrero	2023-02-22T00:00:00	2024-11-06T23:00:00	6	Velocidad del viento	1.6
138614	7	Sololá	701	Sololá	2	El tablón	2	Febrero	2023-02-22T00:00:00	2024-11-06T23:00:00	7	Dirección del viento	1.61
138615	7	Sololá	701	Sololá	2	El tablón	2	Febrero	2023-02-22T00:00:00	2024-11-06T23:00:00	1	Precipitación	0
138616	7	Sololá	701	Sololá	2	El tablón	2	Febrero	2023-02-22T00:00:00	2024-11-06T23:00:00	8	Radiación solar	0
138617	7	Sololá	701	Sololá	2	El tablón	2	Febrero	2023-02-23T00:00:00	2024-11-06T00:00:00	2	Temperatura media	11.6
138618	7	Sololá	701	Sololá	2	El tablón	2	Febrero	2023-02-23T00:00:00	2024-11-06T00:00:00	4	Temperatura máxima	11.8
138619	7	Sololá	701	Sololá	2	El tablón	2	Febrero	2023-02-23T00:00:00	2024-11-06T00:00:00	3	Temperatura mínima	11
138620	7	Sololá	701	Sololá	2	El tablón	2	Febrero	2023-02-23T00:00:00	2024-11-06T00:00:00	5	Humedad	90
138621	7	Sololá	701	Sololá	2	El tablón	2	Febrero	2023-02-23T00:00:00	2024-11-06T00:00:00	6	Velocidad del viento	1.6
138622	7	Sololá	701	Sololá	2	El tablón	2	Febrero	2023-02-23T00:00:00	2024-11-06T00:00:00	7	Dirección del viento	1.61
138623	7	Sololá	701	Sololá	2	El tablón	2	Febrero	2023-02-23T00:00:00	2024-11-06T00:00:00	1	Precipitación	0
138624	7	Sololá	701	Sololá	2	El tablón	2	Febrero	2023-02-23T00:00:00	2024-11-06T00:00:00	8	Radiación solar	0
138625	7	Sololá	701	Sololá	2	El tablón	2	Febrero	2023-02-23T00:00:00	2024-11-06T01:00:00	2	Temperatura media	11.1
138626	7	Sololá	701	Sololá	2	El tablón	2	Febrero	2023-02-23T00:00:00	2024-11-06T01:00:00	4	Temperatura máxima	11.6
138627	7	Sololá	701	Sololá	2	El tablón	2	Febrero	2023-02-23T00:00:00	2024-11-06T01:00:00	3	Temperatura mínima	11.1
138628	7	Sololá	701	Sololá	2	El tablón	2	Febrero	2023-02-23T00:00:00	2024-11-06T01:00:00	5	Humedad	90
138629	7	Sololá	701	Sololá	2	El tablón	2	Febrero	2023-02-23T00:00:00	2024-11-06T01:00:00	6	Velocidad del viento	0
138630	7	Sololá	701	Sololá	2	El tablón	2	Febrero	2023-02-23T00:00:00	2024-11-06T01:00:00	7	Dirección del viento	0
138631	7	Sololá	701	Sololá	2	El tablón	2	Febrero	2023-02-23T00:00:00	2024-11-06T01:00:00	1	Precipitación	0
138632	7	Sololá	701	Sololá	2	El tablón	2	Febrero	2023-02-23T00:00:00	2024-11-06T01:00:00	8	Radiación solar	0
138633	7	Sololá	701	Sololá	2	El tablón	2	Febrero	2023-02-23T00:00:00	2024-11-06T02:00:00	2	Temperatura media	10.9
138634	7	Sololá	701	Sololá	2	El tablón	2	Febrero	2023-02-23T00:00:00	2024-11-06T02:00:00	4	Temperatura máxima	11.6
138635	7	Sololá	701	Sololá	2	El tablón	2	Febrero	2023-02-23T00:00:00	2024-11-06T02:00:00	3	Temperatura mínima	10.9
138636	7	Sololá	701	Sololá	2	El tablón	2	Febrero	2023-02-23T00:00:00	2024-11-06T02:00:00	5	Humedad	90
138637	7	Sololá	701	Sololá	2	El tablón	2	Febrero	2023-02-23T00:00:00	2024-11-06T02:00:00	6	Velocidad del viento	0
138638	7	Sololá	701	Sololá	2	El tablón	2	Febrero	2023-02-23T00:00:00	2024-11-06T02:00:00	7	Dirección del viento	0
138639	7	Sololá	701	Sololá	2	El tablón	2	Febrero	2023-02-23T00:00:00	2024-11-06T02:00:00	1	Precipitación	0
138640	7	Sololá	701	Sololá	2	El tablón	2	Febrero	2023-02-23T00:00:00	2024-11-06T02:00:00	8	Radiación solar	0
138641	7	Sololá	701	Sololá	2	El tablón	2	Febrero	2023-02-23T00:00:00	2024-11-06T03:00:00	2	Temperatura media	10.5
138642	7	Sololá	701	Sololá	2	El tablón	2	Febrero	2023-02-23T00:00:00	2024-11-06T03:00:00	4	Temperatura máxima	10.9
138643	7	Sololá	701	Sololá	2	El tablón	2	Febrero	2023-02-23T00:00:00	2024-11-06T03:00:00	3	Temperatura mínima	10.4
138644	7	Sololá	701	Sololá	2	El tablón	2	Febrero	2023-02-23T00:00:00	2024-11-06T03:00:00	5	Humedad	90
138645	7	Sololá	701	Sololá	2	El tablón	2	Febrero	2023-02-23T00:00:00	2024-11-06T03:00:00	6	Velocidad del viento	1.6
138646	7	Sololá	701	Sololá	2	El tablón	2	Febrero	2023-02-23T00:00:00	2024-11-06T03:00:00	7	Dirección del viento	1.61
138647	7	Sololá	701	Sololá	2	El tablón	2	Febrero	2023-02-23T00:00:00	2024-11-06T03:00:00	1	Precipitación	0
138648	7	Sololá	701	Sololá	2	El tablón	2	Febrero	2023-02-23T00:00:00	2024-11-06T03:00:00	8	Radiación solar	0
138649	7	Sololá	701	Sololá	2	El tablón	2	Febrero	2023-02-23T00:00:00	2024-11-06T04:00:00	2	Temperatura media	9.6
138650	7	Sololá	701	Sololá	2	El tablón	2	Febrero	2023-02-23T00:00:00	2024-11-06T04:00:00	4	Temperatura máxima	10.7
138651	7	Sololá	701	Sololá	2	El tablón	2	Febrero	2023-02-23T00:00:00	2024-11-06T04:00:00	3	Temperatura mínima	9.6
138652	7	Sololá	701	Sololá	2	El tablón	2	Febrero	2023-02-23T00:00:00	2024-11-06T04:00:00	5	Humedad	90
138653	7	Sololá	701	Sololá	2	El tablón	2	Febrero	2023-02-23T00:00:00	2024-11-06T04:00:00	6	Velocidad del viento	0
138654	7	Sololá	701	Sololá	2	El tablón	2	Febrero	2023-02-23T00:00:00	2024-11-06T04:00:00	7	Dirección del viento	0
138655	7	Sololá	701	Sololá	2	El tablón	2	Febrero	2023-02-23T00:00:00	2024-11-06T04:00:00	1	Precipitación	0
138656	7	Sololá	701	Sololá	2	El tablón	2	Febrero	2023-02-23T00:00:00	2024-11-06T04:00:00	8	Radiación solar	0
138657	7	Sololá	701	Sololá	2	El tablón	2	Febrero	2023-02-23T00:00:00	2024-11-06T05:00:00	2	Temperatura media	8.7
138658	7	Sololá	701	Sololá	2	El tablón	2	Febrero	2023-02-23T00:00:00	2024-11-06T05:00:00	4	Temperatura máxima	9.6
138659	7	Sololá	701	Sololá	2	El tablón	2	Febrero	2023-02-23T00:00:00	2024-11-06T05:00:00	3	Temperatura mínima	8.7
138660	7	Sololá	701	Sololá	2	El tablón	2	Febrero	2023-02-23T00:00:00	2024-11-06T05:00:00	5	Humedad	90
138661	7	Sololá	701	Sololá	2	El tablón	2	Febrero	2023-02-23T00:00:00	2024-11-06T05:00:00	6	Velocidad del viento	1.6
138662	7	Sololá	701	Sololá	2	El tablón	2	Febrero	2023-02-23T00:00:00	2024-11-06T05:00:00	7	Dirección del viento	1.61
138663	7	Sololá	701	Sololá	2	El tablón	2	Febrero	2023-02-23T00:00:00	2024-11-06T05:00:00	1	Precipitación	0
138664	7	Sololá	701	Sololá	2	El tablón	2	Febrero	2023-02-23T00:00:00	2024-11-06T05:00:00	8	Radiación solar	0
138665	7	Sololá	701	Sololá	2	El tablón	2	Febrero	2023-02-23T00:00:00	2024-11-06T06:00:00	2	Temperatura media	8.5
138666	7	Sololá	701	Sololá	2	El tablón	2	Febrero	2023-02-23T00:00:00	2024-11-06T06:00:00	4	Temperatura máxima	8.7
138667	7	Sololá	701	Sololá	2	El tablón	2	Febrero	2023-02-23T00:00:00	2024-11-06T06:00:00	3	Temperatura mínima	8.3
138668	7	Sololá	701	Sololá	2	El tablón	2	Febrero	2023-02-23T00:00:00	2024-11-06T06:00:00	5	Humedad	89
138669	7	Sololá	701	Sololá	2	El tablón	2	Febrero	2023-02-23T00:00:00	2024-11-06T06:00:00	6	Velocidad del viento	1.6
138670	7	Sololá	701	Sololá	2	El tablón	2	Febrero	2023-02-23T00:00:00	2024-11-06T06:00:00	7	Dirección del viento	1.61
138671	7	Sololá	701	Sololá	2	El tablón	2	Febrero	2023-02-23T00:00:00	2024-11-06T06:00:00	1	Precipitación	0
138672	7	Sololá	701	Sololá	2	El tablón	2	Febrero	2023-02-23T00:00:00	2024-11-06T06:00:00	8	Radiación solar	0
138673	7	Sololá	701	Sololá	2	El tablón	2	Febrero	2023-02-23T00:00:00	2024-11-06T07:00:00	2	Temperatura media	8.8
138674	7	Sololá	701	Sololá	2	El tablón	2	Febrero	2023-02-23T00:00:00	2024-11-06T07:00:00	4	Temperatura máxima	8.8
138675	7	Sololá	701	Sololá	2	El tablón	2	Febrero	2023-02-23T00:00:00	2024-11-06T07:00:00	3	Temperatura mínima	8.5
138676	7	Sololá	701	Sololá	2	El tablón	2	Febrero	2023-02-23T00:00:00	2024-11-06T07:00:00	5	Humedad	89
138677	7	Sololá	701	Sololá	2	El tablón	2	Febrero	2023-02-23T00:00:00	2024-11-06T07:00:00	6	Velocidad del viento	0
138678	7	Sololá	701	Sololá	2	El tablón	2	Febrero	2023-02-23T00:00:00	2024-11-06T07:00:00	7	Dirección del viento	0
138679	7	Sololá	701	Sololá	2	El tablón	2	Febrero	2023-02-23T00:00:00	2024-11-06T07:00:00	1	Precipitación	0
138680	7	Sololá	701	Sololá	2	El tablón	2	Febrero	2023-02-23T00:00:00	2024-11-06T07:00:00	8	Radiación solar	9
138681	7	Sololá	701	Sololá	2	El tablón	2	Febrero	2023-02-23T00:00:00	2024-11-06T08:00:00	2	Temperatura media	10.6
138682	7	Sololá	701	Sololá	2	El tablón	2	Febrero	2023-02-23T00:00:00	2024-11-06T08:00:00	4	Temperatura máxima	10.6
138683	7	Sololá	701	Sololá	2	El tablón	2	Febrero	2023-02-23T00:00:00	2024-11-06T08:00:00	3	Temperatura mínima	8.7
138684	7	Sololá	701	Sololá	2	El tablón	2	Febrero	2023-02-23T00:00:00	2024-11-06T08:00:00	5	Humedad	88
138685	7	Sololá	701	Sololá	2	El tablón	2	Febrero	2023-02-23T00:00:00	2024-11-06T08:00:00	6	Velocidad del viento	0
138686	7	Sololá	701	Sololá	2	El tablón	2	Febrero	2023-02-23T00:00:00	2024-11-06T08:00:00	7	Dirección del viento	0
138687	7	Sololá	701	Sololá	2	El tablón	2	Febrero	2023-02-23T00:00:00	2024-11-06T08:00:00	1	Precipitación	0
138688	7	Sololá	701	Sololá	2	El tablón	2	Febrero	2023-02-23T00:00:00	2024-11-06T08:00:00	8	Radiación solar	157
138689	7	Sololá	701	Sololá	2	El tablón	2	Febrero	2023-02-23T00:00:00	2024-11-06T09:00:00	2	Temperatura media	13.9
138690	7	Sololá	701	Sololá	2	El tablón	2	Febrero	2023-02-23T00:00:00	2024-11-06T09:00:00	4	Temperatura máxima	13.9
138691	7	Sololá	701	Sololá	2	El tablón	2	Febrero	2023-02-23T00:00:00	2024-11-06T09:00:00	3	Temperatura mínima	10.6
138692	7	Sololá	701	Sololá	2	El tablón	2	Febrero	2023-02-23T00:00:00	2024-11-06T09:00:00	5	Humedad	80
138693	7	Sololá	701	Sololá	2	El tablón	2	Febrero	2023-02-23T00:00:00	2024-11-06T09:00:00	6	Velocidad del viento	3.2
138694	7	Sololá	701	Sololá	2	El tablón	2	Febrero	2023-02-23T00:00:00	2024-11-06T09:00:00	7	Dirección del viento	3.22
138695	7	Sololá	701	Sololá	2	El tablón	2	Febrero	2023-02-23T00:00:00	2024-11-06T09:00:00	1	Precipitación	0
138696	7	Sololá	701	Sololá	2	El tablón	2	Febrero	2023-02-23T00:00:00	2024-11-06T09:00:00	8	Radiación solar	400
138697	7	Sololá	701	Sololá	2	El tablón	2	Febrero	2023-02-23T00:00:00	2024-11-06T10:00:00	2	Temperatura media	14.6
138698	7	Sololá	701	Sololá	2	El tablón	2	Febrero	2023-02-23T00:00:00	2024-11-06T10:00:00	4	Temperatura máxima	15.3
138699	7	Sololá	701	Sololá	2	El tablón	2	Febrero	2023-02-23T00:00:00	2024-11-06T10:00:00	3	Temperatura mínima	13.9
138700	7	Sololá	701	Sololá	2	El tablón	2	Febrero	2023-02-23T00:00:00	2024-11-06T10:00:00	5	Humedad	70
138701	7	Sololá	701	Sololá	2	El tablón	2	Febrero	2023-02-23T00:00:00	2024-11-06T10:00:00	6	Velocidad del viento	6.4
138702	7	Sololá	701	Sololá	2	El tablón	2	Febrero	2023-02-23T00:00:00	2024-11-06T10:00:00	7	Dirección del viento	6.44
138703	7	Sololá	701	Sololá	2	El tablón	2	Febrero	2023-02-23T00:00:00	2024-11-06T10:00:00	1	Precipitación	0
138704	7	Sololá	701	Sololá	2	El tablón	2	Febrero	2023-02-23T00:00:00	2024-11-06T10:00:00	8	Radiación solar	492
138705	7	Sololá	701	Sololá	2	El tablón	2	Febrero	2023-02-23T00:00:00	2024-11-06T11:00:00	2	Temperatura media	17.7
138706	7	Sololá	701	Sololá	2	El tablón	2	Febrero	2023-02-23T00:00:00	2024-11-06T11:00:00	4	Temperatura máxima	17.7
138707	7	Sololá	701	Sololá	2	El tablón	2	Febrero	2023-02-23T00:00:00	2024-11-06T11:00:00	3	Temperatura mínima	14.5
138708	7	Sololá	701	Sololá	2	El tablón	2	Febrero	2023-02-23T00:00:00	2024-11-06T11:00:00	5	Humedad	52
138709	7	Sololá	701	Sololá	2	El tablón	2	Febrero	2023-02-23T00:00:00	2024-11-06T11:00:00	6	Velocidad del viento	6.4
138710	7	Sololá	701	Sololá	2	El tablón	2	Febrero	2023-02-23T00:00:00	2024-11-06T11:00:00	7	Dirección del viento	6.44
138711	7	Sololá	701	Sololá	2	El tablón	2	Febrero	2023-02-23T00:00:00	2024-11-06T11:00:00	1	Precipitación	0
138712	7	Sololá	701	Sololá	2	El tablón	2	Febrero	2023-02-23T00:00:00	2024-11-06T11:00:00	8	Radiación solar	783
138713	7	Sololá	701	Sololá	2	El tablón	2	Febrero	2023-02-23T00:00:00	2024-11-06T12:00:00	2	Temperatura media	18.1
138714	7	Sololá	701	Sololá	2	El tablón	2	Febrero	2023-02-23T00:00:00	2024-11-06T12:00:00	4	Temperatura máxima	18.5
138715	7	Sololá	701	Sololá	2	El tablón	2	Febrero	2023-02-23T00:00:00	2024-11-06T12:00:00	3	Temperatura mínima	17.6
138716	7	Sololá	701	Sololá	2	El tablón	2	Febrero	2023-02-23T00:00:00	2024-11-06T12:00:00	5	Humedad	50
138717	7	Sololá	701	Sololá	2	El tablón	2	Febrero	2023-02-23T00:00:00	2024-11-06T12:00:00	6	Velocidad del viento	8
138718	7	Sololá	701	Sololá	2	El tablón	2	Febrero	2023-02-23T00:00:00	2024-11-06T12:00:00	7	Dirección del viento	8.05
138719	7	Sololá	701	Sololá	2	El tablón	2	Febrero	2023-02-23T00:00:00	2024-11-06T12:00:00	1	Precipitación	0
138720	7	Sololá	701	Sololá	2	El tablón	2	Febrero	2023-02-23T00:00:00	2024-11-06T12:00:00	8	Radiación solar	817
138721	7	Sololá	701	Sololá	2	El tablón	2	Febrero	2023-02-23T00:00:00	2024-11-06T13:00:00	2	Temperatura media	17.6
138722	7	Sololá	701	Sololá	2	El tablón	2	Febrero	2023-02-23T00:00:00	2024-11-06T13:00:00	4	Temperatura máxima	18.8
138723	7	Sololá	701	Sololá	2	El tablón	2	Febrero	2023-02-23T00:00:00	2024-11-06T13:00:00	3	Temperatura mínima	17.6
138724	7	Sololá	701	Sololá	2	El tablón	2	Febrero	2023-02-23T00:00:00	2024-11-06T13:00:00	5	Humedad	72
138725	7	Sololá	701	Sololá	2	El tablón	2	Febrero	2023-02-23T00:00:00	2024-11-06T13:00:00	6	Velocidad del viento	9.7
138726	7	Sololá	701	Sololá	2	El tablón	2	Febrero	2023-02-23T00:00:00	2024-11-06T13:00:00	7	Dirección del viento	9.66
138727	7	Sololá	701	Sololá	2	El tablón	2	Febrero	2023-02-23T00:00:00	2024-11-06T13:00:00	1	Precipitación	0
138728	7	Sololá	701	Sololá	2	El tablón	2	Febrero	2023-02-23T00:00:00	2024-11-06T13:00:00	8	Radiación solar	870
138729	7	Sololá	701	Sololá	2	El tablón	2	Febrero	2023-02-23T00:00:00	2024-11-06T14:00:00	2	Temperatura media	16.4
138730	7	Sololá	701	Sololá	2	El tablón	2	Febrero	2023-02-23T00:00:00	2024-11-06T14:00:00	4	Temperatura máxima	17.6
138731	7	Sololá	701	Sololá	2	El tablón	2	Febrero	2023-02-23T00:00:00	2024-11-06T14:00:00	3	Temperatura mínima	16.4
138732	7	Sololá	701	Sololá	2	El tablón	2	Febrero	2023-02-23T00:00:00	2024-11-06T14:00:00	5	Humedad	79
138733	7	Sololá	701	Sololá	2	El tablón	2	Febrero	2023-02-23T00:00:00	2024-11-06T14:00:00	6	Velocidad del viento	11.3
138734	7	Sololá	701	Sololá	2	El tablón	2	Febrero	2023-02-23T00:00:00	2024-11-06T14:00:00	7	Dirección del viento	11.27
138735	7	Sololá	701	Sololá	2	El tablón	2	Febrero	2023-02-23T00:00:00	2024-11-06T14:00:00	1	Precipitación	0
138736	7	Sololá	701	Sololá	2	El tablón	2	Febrero	2023-02-23T00:00:00	2024-11-06T14:00:00	8	Radiación solar	867
138737	7	Sololá	701	Sololá	2	El tablón	2	Febrero	2023-02-23T00:00:00	2024-11-06T15:00:00	2	Temperatura media	15.5
138738	7	Sololá	701	Sololá	2	El tablón	2	Febrero	2023-02-23T00:00:00	2024-11-06T15:00:00	4	Temperatura máxima	17.1
138739	7	Sololá	701	Sololá	2	El tablón	2	Febrero	2023-02-23T00:00:00	2024-11-06T15:00:00	3	Temperatura mínima	15.5
138740	7	Sololá	701	Sololá	2	El tablón	2	Febrero	2023-02-23T00:00:00	2024-11-06T15:00:00	5	Humedad	84
138741	7	Sololá	701	Sololá	2	El tablón	2	Febrero	2023-02-23T00:00:00	2024-11-06T15:00:00	6	Velocidad del viento	11.3
138742	7	Sololá	701	Sololá	2	El tablón	2	Febrero	2023-02-23T00:00:00	2024-11-06T15:00:00	7	Dirección del viento	11.27
138743	7	Sololá	701	Sololá	2	El tablón	2	Febrero	2023-02-23T00:00:00	2024-11-06T15:00:00	1	Precipitación	0
138744	7	Sololá	701	Sololá	2	El tablón	2	Febrero	2023-02-23T00:00:00	2024-11-06T15:00:00	8	Radiación solar	754
138745	7	Sololá	701	Sololá	2	El tablón	2	Febrero	2023-02-23T00:00:00	2024-11-06T16:00:00	2	Temperatura media	15.7
138746	7	Sololá	701	Sololá	2	El tablón	2	Febrero	2023-02-23T00:00:00	2024-11-06T16:00:00	4	Temperatura máxima	15.8
138747	7	Sololá	701	Sololá	2	El tablón	2	Febrero	2023-02-23T00:00:00	2024-11-06T16:00:00	3	Temperatura mínima	14.6
138748	7	Sololá	701	Sololá	2	El tablón	2	Febrero	2023-02-23T00:00:00	2024-11-06T16:00:00	5	Humedad	83
138749	7	Sololá	701	Sololá	2	El tablón	2	Febrero	2023-02-23T00:00:00	2024-11-06T16:00:00	6	Velocidad del viento	8
138750	7	Sololá	701	Sololá	2	El tablón	2	Febrero	2023-02-23T00:00:00	2024-11-06T16:00:00	7	Dirección del viento	8.05
138751	7	Sololá	701	Sololá	2	El tablón	2	Febrero	2023-02-23T00:00:00	2024-11-06T16:00:00	1	Precipitación	0
138752	7	Sololá	701	Sololá	2	El tablón	2	Febrero	2023-02-23T00:00:00	2024-11-06T16:00:00	8	Radiación solar	490
138753	7	Sololá	701	Sololá	2	El tablón	2	Febrero	2023-02-23T00:00:00	2024-11-06T17:00:00	2	Temperatura media	14.1
138754	7	Sololá	701	Sololá	2	El tablón	2	Febrero	2023-02-23T00:00:00	2024-11-06T17:00:00	4	Temperatura máxima	15.7
138755	7	Sololá	701	Sololá	2	El tablón	2	Febrero	2023-02-23T00:00:00	2024-11-06T17:00:00	3	Temperatura mínima	14.1
138756	7	Sololá	701	Sololá	2	El tablón	2	Febrero	2023-02-23T00:00:00	2024-11-06T17:00:00	5	Humedad	87
138757	7	Sololá	701	Sololá	2	El tablón	2	Febrero	2023-02-23T00:00:00	2024-11-06T17:00:00	6	Velocidad del viento	6.4
138758	7	Sololá	701	Sololá	2	El tablón	2	Febrero	2023-02-23T00:00:00	2024-11-06T17:00:00	7	Dirección del viento	6.44
138759	7	Sololá	701	Sololá	2	El tablón	2	Febrero	2023-02-23T00:00:00	2024-11-06T17:00:00	1	Precipitación	0
138760	7	Sololá	701	Sololá	2	El tablón	2	Febrero	2023-02-23T00:00:00	2024-11-06T17:00:00	8	Radiación solar	148
138761	7	Sololá	701	Sololá	2	El tablón	2	Febrero	2023-02-23T00:00:00	2024-11-06T18:00:00	2	Temperatura media	12.9
138762	7	Sololá	701	Sololá	2	El tablón	2	Febrero	2023-02-23T00:00:00	2024-11-06T18:00:00	4	Temperatura máxima	14.1
138763	7	Sololá	701	Sololá	2	El tablón	2	Febrero	2023-02-23T00:00:00	2024-11-06T18:00:00	3	Temperatura mínima	12.9
138764	7	Sololá	701	Sololá	2	El tablón	2	Febrero	2023-02-23T00:00:00	2024-11-06T18:00:00	5	Humedad	89
138765	7	Sololá	701	Sololá	2	El tablón	2	Febrero	2023-02-23T00:00:00	2024-11-06T18:00:00	6	Velocidad del viento	3.2
138766	7	Sololá	701	Sololá	2	El tablón	2	Febrero	2023-02-23T00:00:00	2024-11-06T18:00:00	7	Dirección del viento	3.22
138767	7	Sololá	701	Sololá	2	El tablón	2	Febrero	2023-02-23T00:00:00	2024-11-06T18:00:00	1	Precipitación	0
138768	7	Sololá	701	Sololá	2	El tablón	2	Febrero	2023-02-23T00:00:00	2024-11-06T18:00:00	8	Radiación solar	42
138769	7	Sololá	701	Sololá	2	El tablón	2	Febrero	2023-02-23T00:00:00	2024-11-06T19:00:00	2	Temperatura media	12.4
138770	7	Sololá	701	Sololá	2	El tablón	2	Febrero	2023-02-23T00:00:00	2024-11-06T19:00:00	4	Temperatura máxima	12.9
138771	7	Sololá	701	Sololá	2	El tablón	2	Febrero	2023-02-23T00:00:00	2024-11-06T19:00:00	3	Temperatura mínima	12.4
138772	7	Sololá	701	Sololá	2	El tablón	2	Febrero	2023-02-23T00:00:00	2024-11-06T19:00:00	5	Humedad	89
138773	7	Sololá	701	Sololá	2	El tablón	2	Febrero	2023-02-23T00:00:00	2024-11-06T19:00:00	6	Velocidad del viento	0
138774	7	Sololá	701	Sololá	2	El tablón	2	Febrero	2023-02-23T00:00:00	2024-11-06T19:00:00	7	Dirección del viento	0
138775	7	Sololá	701	Sololá	2	El tablón	2	Febrero	2023-02-23T00:00:00	2024-11-06T19:00:00	1	Precipitación	0
138776	7	Sololá	701	Sololá	2	El tablón	2	Febrero	2023-02-23T00:00:00	2024-11-06T19:00:00	8	Radiación solar	0
138777	7	Sololá	701	Sololá	2	El tablón	2	Febrero	2023-02-23T00:00:00	2024-11-06T20:00:00	2	Temperatura media	11.6
138778	7	Sololá	701	Sololá	2	El tablón	2	Febrero	2023-02-23T00:00:00	2024-11-06T20:00:00	4	Temperatura máxima	12.4
138779	7	Sololá	701	Sololá	2	El tablón	2	Febrero	2023-02-23T00:00:00	2024-11-06T20:00:00	3	Temperatura mínima	11
138780	7	Sololá	701	Sololá	2	El tablón	2	Febrero	2023-02-23T00:00:00	2024-11-06T20:00:00	5	Humedad	76
138781	7	Sololá	701	Sololá	2	El tablón	2	Febrero	2023-02-23T00:00:00	2024-11-06T20:00:00	6	Velocidad del viento	3.2
138782	7	Sololá	701	Sololá	2	El tablón	2	Febrero	2023-02-23T00:00:00	2024-11-06T20:00:00	7	Dirección del viento	3.22
138783	7	Sololá	701	Sololá	2	El tablón	2	Febrero	2023-02-23T00:00:00	2024-11-06T20:00:00	1	Precipitación	0
138784	7	Sololá	701	Sololá	2	El tablón	2	Febrero	2023-02-23T00:00:00	2024-11-06T20:00:00	8	Radiación solar	0
138785	7	Sololá	701	Sololá	2	El tablón	2	Febrero	2023-02-23T00:00:00	2024-11-06T21:00:00	2	Temperatura media	11.9
138786	7	Sololá	701	Sololá	2	El tablón	2	Febrero	2023-02-23T00:00:00	2024-11-06T21:00:00	4	Temperatura máxima	12.2
138787	7	Sololá	701	Sololá	2	El tablón	2	Febrero	2023-02-23T00:00:00	2024-11-06T21:00:00	3	Temperatura mínima	11.7
138788	7	Sololá	701	Sololá	2	El tablón	2	Febrero	2023-02-23T00:00:00	2024-11-06T21:00:00	5	Humedad	74
138789	7	Sololá	701	Sololá	2	El tablón	2	Febrero	2023-02-23T00:00:00	2024-11-06T21:00:00	6	Velocidad del viento	3.2
138790	7	Sololá	701	Sololá	2	El tablón	2	Febrero	2023-02-23T00:00:00	2024-11-06T21:00:00	7	Dirección del viento	3.22
138791	7	Sololá	701	Sololá	2	El tablón	2	Febrero	2023-02-23T00:00:00	2024-11-06T21:00:00	1	Precipitación	0
138792	7	Sololá	701	Sololá	2	El tablón	2	Febrero	2023-02-23T00:00:00	2024-11-06T21:00:00	8	Radiación solar	0
138793	7	Sololá	701	Sololá	2	El tablón	2	Febrero	2023-02-23T00:00:00	2024-11-06T22:00:00	2	Temperatura media	11.3
138794	7	Sololá	701	Sololá	2	El tablón	2	Febrero	2023-02-23T00:00:00	2024-11-06T22:00:00	4	Temperatura máxima	11.9
138795	7	Sololá	701	Sololá	2	El tablón	2	Febrero	2023-02-23T00:00:00	2024-11-06T22:00:00	3	Temperatura mínima	11.3
138796	7	Sololá	701	Sololá	2	El tablón	2	Febrero	2023-02-23T00:00:00	2024-11-06T22:00:00	5	Humedad	82
138797	7	Sololá	701	Sololá	2	El tablón	2	Febrero	2023-02-23T00:00:00	2024-11-06T22:00:00	6	Velocidad del viento	6.4
138798	7	Sololá	701	Sololá	2	El tablón	2	Febrero	2023-02-23T00:00:00	2024-11-06T22:00:00	7	Dirección del viento	6.44
138799	7	Sololá	701	Sololá	2	El tablón	2	Febrero	2023-02-23T00:00:00	2024-11-06T22:00:00	1	Precipitación	0
138800	7	Sololá	701	Sololá	2	El tablón	2	Febrero	2023-02-23T00:00:00	2024-11-06T22:00:00	8	Radiación solar	0
138801	7	Sololá	701	Sololá	2	El tablón	2	Febrero	2023-02-23T00:00:00	2024-11-06T23:00:00	2	Temperatura media	10.8
138802	7	Sololá	701	Sololá	2	El tablón	2	Febrero	2023-02-23T00:00:00	2024-11-06T23:00:00	4	Temperatura máxima	11.3
138803	7	Sololá	701	Sololá	2	El tablón	2	Febrero	2023-02-23T00:00:00	2024-11-06T23:00:00	3	Temperatura mínima	10.8
138804	7	Sololá	701	Sololá	2	El tablón	2	Febrero	2023-02-23T00:00:00	2024-11-06T23:00:00	5	Humedad	86
138805	7	Sololá	701	Sololá	2	El tablón	2	Febrero	2023-02-23T00:00:00	2024-11-06T23:00:00	6	Velocidad del viento	3.2
138806	7	Sololá	701	Sololá	2	El tablón	2	Febrero	2023-02-23T00:00:00	2024-11-06T23:00:00	7	Dirección del viento	3.22
138807	7	Sololá	701	Sololá	2	El tablón	2	Febrero	2023-02-23T00:00:00	2024-11-06T23:00:00	1	Precipitación	0
138808	7	Sololá	701	Sololá	2	El tablón	2	Febrero	2023-02-23T00:00:00	2024-11-06T23:00:00	8	Radiación solar	0
138809	7	Sololá	701	Sololá	2	El tablón	2	Febrero	2023-02-24T00:00:00	2024-11-06T00:00:00	2	Temperatura media	10.7
138810	7	Sololá	701	Sololá	2	El tablón	2	Febrero	2023-02-24T00:00:00	2024-11-06T00:00:00	4	Temperatura máxima	10.8
138811	7	Sololá	701	Sololá	2	El tablón	2	Febrero	2023-02-24T00:00:00	2024-11-06T00:00:00	3	Temperatura mínima	10.6
138812	7	Sololá	701	Sololá	2	El tablón	2	Febrero	2023-02-24T00:00:00	2024-11-06T00:00:00	5	Humedad	87
138813	7	Sololá	701	Sololá	2	El tablón	2	Febrero	2023-02-24T00:00:00	2024-11-06T00:00:00	6	Velocidad del viento	3.2
138814	7	Sololá	701	Sololá	2	El tablón	2	Febrero	2023-02-24T00:00:00	2024-11-06T00:00:00	7	Dirección del viento	3.22
138815	7	Sololá	701	Sololá	2	El tablón	2	Febrero	2023-02-24T00:00:00	2024-11-06T00:00:00	1	Precipitación	0
138816	7	Sololá	701	Sololá	2	El tablón	2	Febrero	2023-02-24T00:00:00	2024-11-06T00:00:00	8	Radiación solar	0
138817	7	Sololá	701	Sololá	2	El tablón	2	Febrero	2023-02-24T00:00:00	2024-11-06T01:00:00	2	Temperatura media	10.4
138818	7	Sololá	701	Sololá	2	El tablón	2	Febrero	2023-02-24T00:00:00	2024-11-06T01:00:00	4	Temperatura máxima	10.7
138819	7	Sololá	701	Sololá	2	El tablón	2	Febrero	2023-02-24T00:00:00	2024-11-06T01:00:00	3	Temperatura mínima	10.4
138820	7	Sololá	701	Sololá	2	El tablón	2	Febrero	2023-02-24T00:00:00	2024-11-06T01:00:00	5	Humedad	86
138821	7	Sololá	701	Sololá	2	El tablón	2	Febrero	2023-02-24T00:00:00	2024-11-06T01:00:00	6	Velocidad del viento	6.4
138822	7	Sololá	701	Sololá	2	El tablón	2	Febrero	2023-02-24T00:00:00	2024-11-06T01:00:00	7	Dirección del viento	6.44
138823	7	Sololá	701	Sololá	2	El tablón	2	Febrero	2023-02-24T00:00:00	2024-11-06T01:00:00	1	Precipitación	0
138824	7	Sololá	701	Sololá	2	El tablón	2	Febrero	2023-02-24T00:00:00	2024-11-06T01:00:00	8	Radiación solar	0
138825	7	Sololá	701	Sololá	2	El tablón	2	Febrero	2023-02-24T00:00:00	2024-11-06T02:00:00	2	Temperatura media	10.3
138826	7	Sololá	701	Sololá	2	El tablón	2	Febrero	2023-02-24T00:00:00	2024-11-06T02:00:00	4	Temperatura máxima	10.4
138827	7	Sololá	701	Sololá	2	El tablón	2	Febrero	2023-02-24T00:00:00	2024-11-06T02:00:00	3	Temperatura mínima	9.9
138828	7	Sololá	701	Sololá	2	El tablón	2	Febrero	2023-02-24T00:00:00	2024-11-06T02:00:00	5	Humedad	84
138829	7	Sololá	701	Sololá	2	El tablón	2	Febrero	2023-02-24T00:00:00	2024-11-06T02:00:00	6	Velocidad del viento	6.4
138830	7	Sololá	701	Sololá	2	El tablón	2	Febrero	2023-02-24T00:00:00	2024-11-06T02:00:00	7	Dirección del viento	6.44
138831	7	Sololá	701	Sololá	2	El tablón	2	Febrero	2023-02-24T00:00:00	2024-11-06T02:00:00	1	Precipitación	0
138832	7	Sololá	701	Sololá	2	El tablón	2	Febrero	2023-02-24T00:00:00	2024-11-06T02:00:00	8	Radiación solar	0
138833	7	Sololá	701	Sololá	2	El tablón	2	Febrero	2023-02-24T00:00:00	2024-11-06T03:00:00	2	Temperatura media	10.1
138834	7	Sololá	701	Sololá	2	El tablón	2	Febrero	2023-02-24T00:00:00	2024-11-06T03:00:00	4	Temperatura máxima	10.5
138835	7	Sololá	701	Sololá	2	El tablón	2	Febrero	2023-02-24T00:00:00	2024-11-06T03:00:00	3	Temperatura mínima	10
138836	7	Sololá	701	Sololá	2	El tablón	2	Febrero	2023-02-24T00:00:00	2024-11-06T03:00:00	5	Humedad	84
138837	7	Sololá	701	Sololá	2	El tablón	2	Febrero	2023-02-24T00:00:00	2024-11-06T03:00:00	6	Velocidad del viento	8
138838	7	Sololá	701	Sololá	2	El tablón	2	Febrero	2023-02-24T00:00:00	2024-11-06T03:00:00	7	Dirección del viento	8.05
138839	7	Sololá	701	Sololá	2	El tablón	2	Febrero	2023-02-24T00:00:00	2024-11-06T03:00:00	1	Precipitación	0
138840	7	Sololá	701	Sololá	2	El tablón	2	Febrero	2023-02-24T00:00:00	2024-11-06T03:00:00	8	Radiación solar	0
138841	7	Sololá	701	Sololá	2	El tablón	2	Febrero	2023-02-24T00:00:00	2024-11-06T04:00:00	2	Temperatura media	9.2
138842	7	Sololá	701	Sololá	2	El tablón	2	Febrero	2023-02-24T00:00:00	2024-11-06T04:00:00	4	Temperatura máxima	10.1
138843	7	Sololá	701	Sololá	2	El tablón	2	Febrero	2023-02-24T00:00:00	2024-11-06T04:00:00	3	Temperatura mínima	9.2
138844	7	Sololá	701	Sololá	2	El tablón	2	Febrero	2023-02-24T00:00:00	2024-11-06T04:00:00	5	Humedad	84
138845	7	Sololá	701	Sololá	2	El tablón	2	Febrero	2023-02-24T00:00:00	2024-11-06T04:00:00	6	Velocidad del viento	4.8
138846	7	Sololá	701	Sololá	2	El tablón	2	Febrero	2023-02-24T00:00:00	2024-11-06T04:00:00	7	Dirección del viento	4.83
138847	7	Sololá	701	Sololá	2	El tablón	2	Febrero	2023-02-24T00:00:00	2024-11-06T04:00:00	1	Precipitación	0
138848	7	Sololá	701	Sololá	2	El tablón	2	Febrero	2023-02-24T00:00:00	2024-11-06T04:00:00	8	Radiación solar	0
138849	7	Sololá	701	Sololá	2	El tablón	2	Febrero	2023-02-24T00:00:00	2024-11-06T05:00:00	2	Temperatura media	9.9
138850	7	Sololá	701	Sololá	2	El tablón	2	Febrero	2023-02-24T00:00:00	2024-11-06T05:00:00	4	Temperatura máxima	9.9
138851	7	Sololá	701	Sololá	2	El tablón	2	Febrero	2023-02-24T00:00:00	2024-11-06T05:00:00	3	Temperatura mínima	8.9
138852	7	Sololá	701	Sololá	2	El tablón	2	Febrero	2023-02-24T00:00:00	2024-11-06T05:00:00	5	Humedad	69
138853	7	Sololá	701	Sololá	2	El tablón	2	Febrero	2023-02-24T00:00:00	2024-11-06T05:00:00	6	Velocidad del viento	6.4
138854	7	Sololá	701	Sololá	2	El tablón	2	Febrero	2023-02-24T00:00:00	2024-11-06T05:00:00	7	Dirección del viento	6.44
138855	7	Sololá	701	Sololá	2	El tablón	2	Febrero	2023-02-24T00:00:00	2024-11-06T05:00:00	1	Precipitación	0
138856	7	Sololá	701	Sololá	2	El tablón	2	Febrero	2023-02-24T00:00:00	2024-11-06T05:00:00	8	Radiación solar	0
138857	7	Sololá	701	Sololá	2	El tablón	2	Febrero	2023-02-24T00:00:00	2024-11-06T06:00:00	2	Temperatura media	9.4
138858	7	Sololá	701	Sololá	2	El tablón	2	Febrero	2023-02-24T00:00:00	2024-11-06T06:00:00	4	Temperatura máxima	10.3
138859	7	Sololá	701	Sololá	2	El tablón	2	Febrero	2023-02-24T00:00:00	2024-11-06T06:00:00	3	Temperatura mínima	9.4
138860	7	Sololá	701	Sololá	2	El tablón	2	Febrero	2023-02-24T00:00:00	2024-11-06T06:00:00	5	Humedad	75
138861	7	Sololá	701	Sololá	2	El tablón	2	Febrero	2023-02-24T00:00:00	2024-11-06T06:00:00	6	Velocidad del viento	4.8
138862	7	Sololá	701	Sololá	2	El tablón	2	Febrero	2023-02-24T00:00:00	2024-11-06T06:00:00	7	Dirección del viento	4.83
138863	7	Sololá	701	Sololá	2	El tablón	2	Febrero	2023-02-24T00:00:00	2024-11-06T06:00:00	1	Precipitación	0
138864	7	Sololá	701	Sololá	2	El tablón	2	Febrero	2023-02-24T00:00:00	2024-11-06T06:00:00	8	Radiación solar	0
138865	7	Sololá	701	Sololá	2	El tablón	2	Febrero	2023-02-24T00:00:00	2024-11-06T07:00:00	2	Temperatura media	10.3
138866	7	Sololá	701	Sololá	2	El tablón	2	Febrero	2023-02-24T00:00:00	2024-11-06T07:00:00	4	Temperatura máxima	10.4
138867	7	Sololá	701	Sololá	2	El tablón	2	Febrero	2023-02-24T00:00:00	2024-11-06T07:00:00	3	Temperatura mínima	9.3
138868	7	Sololá	701	Sololá	2	El tablón	2	Febrero	2023-02-24T00:00:00	2024-11-06T07:00:00	5	Humedad	69
138869	7	Sololá	701	Sololá	2	El tablón	2	Febrero	2023-02-24T00:00:00	2024-11-06T07:00:00	6	Velocidad del viento	3.2
138870	7	Sololá	701	Sololá	2	El tablón	2	Febrero	2023-02-24T00:00:00	2024-11-06T07:00:00	7	Dirección del viento	3.22
138871	7	Sololá	701	Sololá	2	El tablón	2	Febrero	2023-02-24T00:00:00	2024-11-06T07:00:00	1	Precipitación	0
138872	7	Sololá	701	Sololá	2	El tablón	2	Febrero	2023-02-24T00:00:00	2024-11-06T07:00:00	8	Radiación solar	10
138873	7	Sololá	701	Sololá	2	El tablón	2	Febrero	2023-02-24T00:00:00	2024-11-06T08:00:00	2	Temperatura media	14.2
138874	7	Sololá	701	Sololá	2	El tablón	2	Febrero	2023-02-24T00:00:00	2024-11-06T08:00:00	4	Temperatura máxima	14.2
138875	7	Sololá	701	Sololá	2	El tablón	2	Febrero	2023-02-24T00:00:00	2024-11-06T08:00:00	3	Temperatura mínima	10.4
138876	7	Sololá	701	Sololá	2	El tablón	2	Febrero	2023-02-24T00:00:00	2024-11-06T08:00:00	5	Humedad	57
138877	7	Sololá	701	Sololá	2	El tablón	2	Febrero	2023-02-24T00:00:00	2024-11-06T08:00:00	6	Velocidad del viento	4.8
138878	7	Sololá	701	Sololá	2	El tablón	2	Febrero	2023-02-24T00:00:00	2024-11-06T08:00:00	7	Dirección del viento	4.83
138879	7	Sololá	701	Sololá	2	El tablón	2	Febrero	2023-02-24T00:00:00	2024-11-06T08:00:00	1	Precipitación	0
138880	7	Sololá	701	Sololá	2	El tablón	2	Febrero	2023-02-24T00:00:00	2024-11-06T08:00:00	8	Radiación solar	152
138881	7	Sololá	701	Sololá	2	El tablón	2	Febrero	2023-02-24T00:00:00	2024-11-06T09:00:00	2	Temperatura media	16.2
138882	7	Sololá	701	Sololá	2	El tablón	2	Febrero	2023-02-24T00:00:00	2024-11-06T09:00:00	4	Temperatura máxima	16.2
138883	7	Sololá	701	Sololá	2	El tablón	2	Febrero	2023-02-24T00:00:00	2024-11-06T09:00:00	3	Temperatura mínima	14.1
138884	7	Sololá	701	Sololá	2	El tablón	2	Febrero	2023-02-24T00:00:00	2024-11-06T09:00:00	5	Humedad	42
138885	7	Sololá	701	Sololá	2	El tablón	2	Febrero	2023-02-24T00:00:00	2024-11-06T09:00:00	6	Velocidad del viento	4.8
138886	7	Sololá	701	Sololá	2	El tablón	2	Febrero	2023-02-24T00:00:00	2024-11-06T09:00:00	7	Dirección del viento	4.83
138887	7	Sololá	701	Sololá	2	El tablón	2	Febrero	2023-02-24T00:00:00	2024-11-06T09:00:00	1	Precipitación	0
138888	7	Sololá	701	Sololá	2	El tablón	2	Febrero	2023-02-24T00:00:00	2024-11-06T09:00:00	8	Radiación solar	417
138889	7	Sololá	701	Sololá	2	El tablón	2	Febrero	2023-02-24T00:00:00	2024-11-06T10:00:00	2	Temperatura media	17.3
138890	7	Sololá	701	Sololá	2	El tablón	2	Febrero	2023-02-24T00:00:00	2024-11-06T10:00:00	4	Temperatura máxima	17.4
138891	7	Sololá	701	Sololá	2	El tablón	2	Febrero	2023-02-24T00:00:00	2024-11-06T10:00:00	3	Temperatura mínima	16.2
138892	7	Sololá	701	Sololá	2	El tablón	2	Febrero	2023-02-24T00:00:00	2024-11-06T10:00:00	5	Humedad	35
138893	7	Sololá	701	Sololá	2	El tablón	2	Febrero	2023-02-24T00:00:00	2024-11-06T10:00:00	6	Velocidad del viento	6.4
138894	7	Sololá	701	Sololá	2	El tablón	2	Febrero	2023-02-24T00:00:00	2024-11-06T10:00:00	7	Dirección del viento	6.44
138895	7	Sololá	701	Sololá	2	El tablón	2	Febrero	2023-02-24T00:00:00	2024-11-06T10:00:00	1	Precipitación	0
138896	7	Sololá	701	Sololá	2	El tablón	2	Febrero	2023-02-24T00:00:00	2024-11-06T10:00:00	8	Radiación solar	627
138897	7	Sololá	701	Sololá	2	El tablón	2	Febrero	2023-02-24T00:00:00	2024-11-06T11:00:00	2	Temperatura media	19.1
138898	7	Sololá	701	Sololá	2	El tablón	2	Febrero	2023-02-24T00:00:00	2024-11-06T11:00:00	4	Temperatura máxima	19.2
138899	7	Sololá	701	Sololá	2	El tablón	2	Febrero	2023-02-24T00:00:00	2024-11-06T11:00:00	3	Temperatura mínima	17.3
138900	7	Sololá	701	Sololá	2	El tablón	2	Febrero	2023-02-24T00:00:00	2024-11-06T11:00:00	5	Humedad	43
138901	7	Sololá	701	Sololá	2	El tablón	2	Febrero	2023-02-24T00:00:00	2024-11-06T11:00:00	6	Velocidad del viento	6.4
138902	7	Sololá	701	Sololá	2	El tablón	2	Febrero	2023-02-24T00:00:00	2024-11-06T11:00:00	7	Dirección del viento	6.44
138903	7	Sololá	701	Sololá	2	El tablón	2	Febrero	2023-02-24T00:00:00	2024-11-06T11:00:00	1	Precipitación	0
138904	7	Sololá	701	Sololá	2	El tablón	2	Febrero	2023-02-24T00:00:00	2024-11-06T11:00:00	8	Radiación solar	780
138905	7	Sololá	701	Sololá	2	El tablón	2	Febrero	2023-02-24T00:00:00	2024-11-06T12:00:00	2	Temperatura media	18.7
138906	7	Sololá	701	Sololá	2	El tablón	2	Febrero	2023-02-24T00:00:00	2024-11-06T12:00:00	4	Temperatura máxima	19.1
138907	7	Sololá	701	Sololá	2	El tablón	2	Febrero	2023-02-24T00:00:00	2024-11-06T12:00:00	3	Temperatura mínima	18
138908	7	Sololá	701	Sololá	2	El tablón	2	Febrero	2023-02-24T00:00:00	2024-11-06T12:00:00	5	Humedad	51
138909	7	Sololá	701	Sololá	2	El tablón	2	Febrero	2023-02-24T00:00:00	2024-11-06T12:00:00	6	Velocidad del viento	9.7
138910	7	Sololá	701	Sololá	2	El tablón	2	Febrero	2023-02-24T00:00:00	2024-11-06T12:00:00	7	Dirección del viento	9.66
138911	7	Sololá	701	Sololá	2	El tablón	2	Febrero	2023-02-24T00:00:00	2024-11-06T12:00:00	1	Precipitación	0
138912	7	Sololá	701	Sololá	2	El tablón	2	Febrero	2023-02-24T00:00:00	2024-11-06T12:00:00	8	Radiación solar	818
138913	7	Sololá	701	Sololá	2	El tablón	2	Febrero	2023-02-24T00:00:00	2024-11-06T13:00:00	2	Temperatura media	18.6
138914	7	Sololá	701	Sololá	2	El tablón	2	Febrero	2023-02-24T00:00:00	2024-11-06T13:00:00	4	Temperatura máxima	18.8
138915	7	Sololá	701	Sololá	2	El tablón	2	Febrero	2023-02-24T00:00:00	2024-11-06T13:00:00	3	Temperatura mínima	17.9
138916	7	Sololá	701	Sololá	2	El tablón	2	Febrero	2023-02-24T00:00:00	2024-11-06T13:00:00	5	Humedad	60
138917	7	Sololá	701	Sololá	2	El tablón	2	Febrero	2023-02-24T00:00:00	2024-11-06T13:00:00	6	Velocidad del viento	11.3
138918	7	Sololá	701	Sololá	2	El tablón	2	Febrero	2023-02-24T00:00:00	2024-11-06T13:00:00	7	Dirección del viento	11.27
138919	7	Sololá	701	Sololá	2	El tablón	2	Febrero	2023-02-24T00:00:00	2024-11-06T13:00:00	1	Precipitación	0
138920	7	Sololá	701	Sololá	2	El tablón	2	Febrero	2023-02-24T00:00:00	2024-11-06T13:00:00	8	Radiación solar	863
138921	7	Sololá	701	Sololá	2	El tablón	2	Febrero	2023-02-24T00:00:00	2024-11-06T14:00:00	2	Temperatura media	17.6
138922	7	Sololá	701	Sololá	2	El tablón	2	Febrero	2023-02-24T00:00:00	2024-11-06T14:00:00	4	Temperatura máxima	18.7
138923	7	Sololá	701	Sololá	2	El tablón	2	Febrero	2023-02-24T00:00:00	2024-11-06T14:00:00	3	Temperatura mínima	17.6
138924	7	Sololá	701	Sololá	2	El tablón	2	Febrero	2023-02-24T00:00:00	2024-11-06T14:00:00	5	Humedad	72
138925	7	Sololá	701	Sololá	2	El tablón	2	Febrero	2023-02-24T00:00:00	2024-11-06T14:00:00	6	Velocidad del viento	11.3
138926	7	Sololá	701	Sololá	2	El tablón	2	Febrero	2023-02-24T00:00:00	2024-11-06T14:00:00	7	Dirección del viento	11.27
138927	7	Sololá	701	Sololá	2	El tablón	2	Febrero	2023-02-24T00:00:00	2024-11-06T14:00:00	1	Precipitación	0
138928	7	Sololá	701	Sololá	2	El tablón	2	Febrero	2023-02-24T00:00:00	2024-11-06T14:00:00	8	Radiación solar	839
138929	7	Sololá	701	Sololá	2	El tablón	2	Febrero	2023-02-24T00:00:00	2024-11-06T15:00:00	2	Temperatura media	17.3
138930	7	Sololá	701	Sololá	2	El tablón	2	Febrero	2023-02-24T00:00:00	2024-11-06T15:00:00	4	Temperatura máxima	17.6
138931	7	Sololá	701	Sololá	2	El tablón	2	Febrero	2023-02-24T00:00:00	2024-11-06T15:00:00	3	Temperatura mínima	17
138932	7	Sololá	701	Sololá	2	El tablón	2	Febrero	2023-02-24T00:00:00	2024-11-06T15:00:00	5	Humedad	77
138933	7	Sololá	701	Sololá	2	El tablón	2	Febrero	2023-02-24T00:00:00	2024-11-06T15:00:00	6	Velocidad del viento	9.7
138934	7	Sololá	701	Sololá	2	El tablón	2	Febrero	2023-02-24T00:00:00	2024-11-06T15:00:00	7	Dirección del viento	9.66
138935	7	Sololá	701	Sololá	2	El tablón	2	Febrero	2023-02-24T00:00:00	2024-11-06T15:00:00	1	Precipitación	0
138936	7	Sololá	701	Sololá	2	El tablón	2	Febrero	2023-02-24T00:00:00	2024-11-06T15:00:00	8	Radiación solar	733
138937	7	Sololá	701	Sololá	2	El tablón	2	Febrero	2023-02-24T00:00:00	2024-11-06T16:00:00	2	Temperatura media	16.6
138938	7	Sololá	701	Sololá	2	El tablón	2	Febrero	2023-02-24T00:00:00	2024-11-06T16:00:00	4	Temperatura máxima	17.7
138939	7	Sololá	701	Sololá	2	El tablón	2	Febrero	2023-02-24T00:00:00	2024-11-06T16:00:00	3	Temperatura mínima	16.6
138940	7	Sololá	701	Sololá	2	El tablón	2	Febrero	2023-02-24T00:00:00	2024-11-06T16:00:00	5	Humedad	81
138941	7	Sololá	701	Sololá	2	El tablón	2	Febrero	2023-02-24T00:00:00	2024-11-06T16:00:00	6	Velocidad del viento	8
138942	7	Sololá	701	Sololá	2	El tablón	2	Febrero	2023-02-24T00:00:00	2024-11-06T16:00:00	7	Dirección del viento	8.05
138943	7	Sololá	701	Sololá	2	El tablón	2	Febrero	2023-02-24T00:00:00	2024-11-06T16:00:00	1	Precipitación	0
138944	7	Sololá	701	Sololá	2	El tablón	2	Febrero	2023-02-24T00:00:00	2024-11-06T16:00:00	8	Radiación solar	566
138945	7	Sololá	701	Sololá	2	El tablón	2	Febrero	2023-02-24T00:00:00	2024-11-06T17:00:00	2	Temperatura media	15.9
138946	7	Sololá	701	Sololá	2	El tablón	2	Febrero	2023-02-24T00:00:00	2024-11-06T17:00:00	4	Temperatura máxima	16.8
138947	7	Sololá	701	Sololá	2	El tablón	2	Febrero	2023-02-24T00:00:00	2024-11-06T17:00:00	3	Temperatura mínima	15.9
138948	7	Sololá	701	Sololá	2	El tablón	2	Febrero	2023-02-24T00:00:00	2024-11-06T17:00:00	5	Humedad	83
138949	7	Sololá	701	Sololá	2	El tablón	2	Febrero	2023-02-24T00:00:00	2024-11-06T17:00:00	6	Velocidad del viento	6.4
138950	7	Sololá	701	Sololá	2	El tablón	2	Febrero	2023-02-24T00:00:00	2024-11-06T17:00:00	7	Dirección del viento	6.44
138951	7	Sololá	701	Sololá	2	El tablón	2	Febrero	2023-02-24T00:00:00	2024-11-06T17:00:00	1	Precipitación	0
138952	7	Sololá	701	Sololá	2	El tablón	2	Febrero	2023-02-24T00:00:00	2024-11-06T17:00:00	8	Radiación solar	290
138953	7	Sololá	701	Sololá	2	El tablón	2	Febrero	2023-02-24T00:00:00	2024-11-06T18:00:00	2	Temperatura media	14.2
138954	7	Sololá	701	Sololá	2	El tablón	2	Febrero	2023-02-24T00:00:00	2024-11-06T18:00:00	4	Temperatura máxima	15.9
138955	7	Sololá	701	Sololá	2	El tablón	2	Febrero	2023-02-24T00:00:00	2024-11-06T18:00:00	3	Temperatura mínima	14.2
138956	7	Sololá	701	Sololá	2	El tablón	2	Febrero	2023-02-24T00:00:00	2024-11-06T18:00:00	5	Humedad	87
138957	7	Sololá	701	Sololá	2	El tablón	2	Febrero	2023-02-24T00:00:00	2024-11-06T18:00:00	6	Velocidad del viento	3.2
138958	7	Sololá	701	Sololá	2	El tablón	2	Febrero	2023-02-24T00:00:00	2024-11-06T18:00:00	7	Dirección del viento	3.22
138959	7	Sololá	701	Sololá	2	El tablón	2	Febrero	2023-02-24T00:00:00	2024-11-06T18:00:00	1	Precipitación	0
138960	7	Sololá	701	Sololá	2	El tablón	2	Febrero	2023-02-24T00:00:00	2024-11-06T18:00:00	8	Radiación solar	43
138961	7	Sololá	701	Sololá	2	El tablón	2	Febrero	2023-02-24T00:00:00	2024-11-06T19:00:00	2	Temperatura media	14.9
138962	7	Sololá	701	Sololá	2	El tablón	2	Febrero	2023-02-24T00:00:00	2024-11-06T19:00:00	4	Temperatura máxima	15.1
138963	7	Sololá	701	Sololá	2	El tablón	2	Febrero	2023-02-24T00:00:00	2024-11-06T19:00:00	3	Temperatura mínima	13.7
138964	7	Sololá	701	Sololá	2	El tablón	2	Febrero	2023-02-24T00:00:00	2024-11-06T19:00:00	5	Humedad	63
138965	7	Sololá	701	Sololá	2	El tablón	2	Febrero	2023-02-24T00:00:00	2024-11-06T19:00:00	6	Velocidad del viento	4.8
138966	7	Sololá	701	Sololá	2	El tablón	2	Febrero	2023-02-24T00:00:00	2024-11-06T19:00:00	7	Dirección del viento	4.83
138967	7	Sololá	701	Sololá	2	El tablón	2	Febrero	2023-02-24T00:00:00	2024-11-06T19:00:00	1	Precipitación	0
138968	7	Sololá	701	Sololá	2	El tablón	2	Febrero	2023-02-24T00:00:00	2024-11-06T19:00:00	8	Radiación solar	0
138969	7	Sololá	701	Sololá	2	El tablón	2	Febrero	2023-02-24T00:00:00	2024-11-06T20:00:00	2	Temperatura media	13.5
138970	7	Sololá	701	Sololá	2	El tablón	2	Febrero	2023-02-24T00:00:00	2024-11-06T20:00:00	4	Temperatura máxima	14.9
138971	7	Sololá	701	Sololá	2	El tablón	2	Febrero	2023-02-24T00:00:00	2024-11-06T20:00:00	3	Temperatura mínima	13.5
138972	7	Sololá	701	Sololá	2	El tablón	2	Febrero	2023-02-24T00:00:00	2024-11-06T20:00:00	5	Humedad	77
138973	7	Sololá	701	Sololá	2	El tablón	2	Febrero	2023-02-24T00:00:00	2024-11-06T20:00:00	6	Velocidad del viento	9.7
138974	7	Sololá	701	Sololá	2	El tablón	2	Febrero	2023-02-24T00:00:00	2024-11-06T20:00:00	7	Dirección del viento	9.66
138975	7	Sololá	701	Sololá	2	El tablón	2	Febrero	2023-02-24T00:00:00	2024-11-06T20:00:00	1	Precipitación	0
138976	7	Sololá	701	Sololá	2	El tablón	2	Febrero	2023-02-24T00:00:00	2024-11-06T20:00:00	8	Radiación solar	0
138977	7	Sololá	701	Sololá	2	El tablón	2	Febrero	2023-02-24T00:00:00	2024-11-06T21:00:00	2	Temperatura media	12.6
138978	7	Sololá	701	Sololá	2	El tablón	2	Febrero	2023-02-24T00:00:00	2024-11-06T21:00:00	4	Temperatura máxima	13.5
138979	7	Sololá	701	Sololá	2	El tablón	2	Febrero	2023-02-24T00:00:00	2024-11-06T21:00:00	3	Temperatura mínima	12.6
138980	7	Sololá	701	Sololá	2	El tablón	2	Febrero	2023-02-24T00:00:00	2024-11-06T21:00:00	5	Humedad	85
138981	7	Sololá	701	Sololá	2	El tablón	2	Febrero	2023-02-24T00:00:00	2024-11-06T21:00:00	6	Velocidad del viento	11.3
138982	7	Sololá	701	Sololá	2	El tablón	2	Febrero	2023-02-24T00:00:00	2024-11-06T21:00:00	7	Dirección del viento	11.27
138983	7	Sololá	701	Sololá	2	El tablón	2	Febrero	2023-02-24T00:00:00	2024-11-06T21:00:00	1	Precipitación	0
138984	7	Sololá	701	Sololá	2	El tablón	2	Febrero	2023-02-24T00:00:00	2024-11-06T21:00:00	8	Radiación solar	0
138985	7	Sololá	701	Sololá	2	El tablón	2	Febrero	2023-02-24T00:00:00	2024-11-06T22:00:00	2	Temperatura media	12.2
138986	7	Sololá	701	Sololá	2	El tablón	2	Febrero	2023-02-24T00:00:00	2024-11-06T22:00:00	4	Temperatura máxima	12.7
138987	7	Sololá	701	Sololá	2	El tablón	2	Febrero	2023-02-24T00:00:00	2024-11-06T22:00:00	3	Temperatura mínima	12.2
138988	7	Sololá	701	Sololá	2	El tablón	2	Febrero	2023-02-24T00:00:00	2024-11-06T22:00:00	5	Humedad	85
138989	7	Sololá	701	Sololá	2	El tablón	2	Febrero	2023-02-24T00:00:00	2024-11-06T22:00:00	6	Velocidad del viento	12.9
138990	7	Sololá	701	Sololá	2	El tablón	2	Febrero	2023-02-24T00:00:00	2024-11-06T22:00:00	7	Dirección del viento	12.87
138991	7	Sololá	701	Sololá	2	El tablón	2	Febrero	2023-02-24T00:00:00	2024-11-06T22:00:00	1	Precipitación	0
138992	7	Sololá	701	Sololá	2	El tablón	2	Febrero	2023-02-24T00:00:00	2024-11-06T22:00:00	8	Radiación solar	0
138993	7	Sololá	701	Sololá	2	El tablón	2	Febrero	2023-02-24T00:00:00	2024-11-06T23:00:00	2	Temperatura media	11.8
138994	7	Sololá	701	Sololá	2	El tablón	2	Febrero	2023-02-24T00:00:00	2024-11-06T23:00:00	4	Temperatura máxima	12.3
138995	7	Sololá	701	Sololá	2	El tablón	2	Febrero	2023-02-24T00:00:00	2024-11-06T23:00:00	3	Temperatura mínima	11.8
138996	7	Sololá	701	Sololá	2	El tablón	2	Febrero	2023-02-24T00:00:00	2024-11-06T23:00:00	5	Humedad	84
138997	7	Sololá	701	Sololá	2	El tablón	2	Febrero	2023-02-24T00:00:00	2024-11-06T23:00:00	6	Velocidad del viento	6.4
138998	7	Sololá	701	Sololá	2	El tablón	2	Febrero	2023-02-24T00:00:00	2024-11-06T23:00:00	7	Dirección del viento	6.44
138999	7	Sololá	701	Sololá	2	El tablón	2	Febrero	2023-02-24T00:00:00	2024-11-06T23:00:00	1	Precipitación	0
139000	7	Sololá	701	Sololá	2	El tablón	2	Febrero	2023-02-24T00:00:00	2024-11-06T23:00:00	8	Radiación solar	0
139001	7	Sololá	701	Sololá	2	El tablón	2	Febrero	2023-02-25T00:00:00	2024-11-06T00:00:00	2	Temperatura media	11.1
139002	7	Sololá	701	Sololá	2	El tablón	2	Febrero	2023-02-25T00:00:00	2024-11-06T00:00:00	4	Temperatura máxima	11.8
139003	7	Sololá	701	Sololá	2	El tablón	2	Febrero	2023-02-25T00:00:00	2024-11-06T00:00:00	3	Temperatura mínima	11.1
139004	7	Sololá	701	Sololá	2	El tablón	2	Febrero	2023-02-25T00:00:00	2024-11-06T00:00:00	5	Humedad	83
139005	7	Sololá	701	Sololá	2	El tablón	2	Febrero	2023-02-25T00:00:00	2024-11-06T00:00:00	6	Velocidad del viento	3.2
139006	7	Sololá	701	Sololá	2	El tablón	2	Febrero	2023-02-25T00:00:00	2024-11-06T00:00:00	7	Dirección del viento	3.22
139007	7	Sololá	701	Sololá	2	El tablón	2	Febrero	2023-02-25T00:00:00	2024-11-06T00:00:00	1	Precipitación	0
139008	7	Sololá	701	Sololá	2	El tablón	2	Febrero	2023-02-25T00:00:00	2024-11-06T00:00:00	8	Radiación solar	0
139009	7	Sololá	701	Sololá	2	El tablón	2	Febrero	2023-02-25T00:00:00	2024-11-06T01:00:00	2	Temperatura media	10.9
139010	7	Sololá	701	Sololá	2	El tablón	2	Febrero	2023-02-25T00:00:00	2024-11-06T01:00:00	4	Temperatura máxima	11.1
139011	7	Sololá	701	Sololá	2	El tablón	2	Febrero	2023-02-25T00:00:00	2024-11-06T01:00:00	3	Temperatura mínima	10.6
139012	7	Sololá	701	Sololá	2	El tablón	2	Febrero	2023-02-25T00:00:00	2024-11-06T01:00:00	5	Humedad	81
139013	7	Sololá	701	Sololá	2	El tablón	2	Febrero	2023-02-25T00:00:00	2024-11-06T01:00:00	6	Velocidad del viento	6.4
139014	7	Sololá	701	Sololá	2	El tablón	2	Febrero	2023-02-25T00:00:00	2024-11-06T01:00:00	7	Dirección del viento	6.44
139015	7	Sololá	701	Sololá	2	El tablón	2	Febrero	2023-02-25T00:00:00	2024-11-06T01:00:00	1	Precipitación	0
139016	7	Sololá	701	Sololá	2	El tablón	2	Febrero	2023-02-25T00:00:00	2024-11-06T01:00:00	8	Radiación solar	0
139017	7	Sololá	701	Sololá	2	El tablón	2	Febrero	2023-02-25T00:00:00	2024-11-06T02:00:00	2	Temperatura media	10.6
139018	7	Sololá	701	Sololá	2	El tablón	2	Febrero	2023-02-25T00:00:00	2024-11-06T02:00:00	4	Temperatura máxima	11.7
139019	7	Sololá	701	Sololá	2	El tablón	2	Febrero	2023-02-25T00:00:00	2024-11-06T02:00:00	3	Temperatura mínima	10.4
139020	7	Sololá	701	Sololá	2	El tablón	2	Febrero	2023-02-25T00:00:00	2024-11-06T02:00:00	5	Humedad	78
139021	7	Sololá	701	Sololá	2	El tablón	2	Febrero	2023-02-25T00:00:00	2024-11-06T02:00:00	6	Velocidad del viento	6.4
139022	7	Sololá	701	Sololá	2	El tablón	2	Febrero	2023-02-25T00:00:00	2024-11-06T02:00:00	7	Dirección del viento	6.44
139023	7	Sololá	701	Sololá	2	El tablón	2	Febrero	2023-02-25T00:00:00	2024-11-06T02:00:00	1	Precipitación	0
139024	7	Sololá	701	Sololá	2	El tablón	2	Febrero	2023-02-25T00:00:00	2024-11-06T02:00:00	8	Radiación solar	0
139025	7	Sololá	701	Sololá	2	El tablón	2	Febrero	2023-02-25T00:00:00	2024-11-06T03:00:00	2	Temperatura media	9.6
139026	7	Sololá	701	Sololá	2	El tablón	2	Febrero	2023-02-25T00:00:00	2024-11-06T03:00:00	4	Temperatura máxima	10.8
139027	7	Sololá	701	Sololá	2	El tablón	2	Febrero	2023-02-25T00:00:00	2024-11-06T03:00:00	3	Temperatura mínima	9.3
139028	7	Sololá	701	Sololá	2	El tablón	2	Febrero	2023-02-25T00:00:00	2024-11-06T03:00:00	5	Humedad	81
139029	7	Sololá	701	Sololá	2	El tablón	2	Febrero	2023-02-25T00:00:00	2024-11-06T03:00:00	6	Velocidad del viento	6.4
139030	7	Sololá	701	Sololá	2	El tablón	2	Febrero	2023-02-25T00:00:00	2024-11-06T03:00:00	7	Dirección del viento	6.44
139031	7	Sololá	701	Sololá	2	El tablón	2	Febrero	2023-02-25T00:00:00	2024-11-06T03:00:00	1	Precipitación	0
139032	7	Sololá	701	Sololá	2	El tablón	2	Febrero	2023-02-25T00:00:00	2024-11-06T03:00:00	8	Radiación solar	0
139033	7	Sololá	701	Sololá	2	El tablón	2	Febrero	2023-02-25T00:00:00	2024-11-06T04:00:00	2	Temperatura media	10.2
139034	7	Sololá	701	Sololá	2	El tablón	2	Febrero	2023-02-25T00:00:00	2024-11-06T04:00:00	4	Temperatura máxima	10.2
139035	7	Sololá	701	Sololá	2	El tablón	2	Febrero	2023-02-25T00:00:00	2024-11-06T04:00:00	3	Temperatura mínima	9.6
139036	7	Sololá	701	Sololá	2	El tablón	2	Febrero	2023-02-25T00:00:00	2024-11-06T04:00:00	5	Humedad	78
139037	7	Sololá	701	Sololá	2	El tablón	2	Febrero	2023-02-25T00:00:00	2024-11-06T04:00:00	6	Velocidad del viento	4.8
139038	7	Sololá	701	Sololá	2	El tablón	2	Febrero	2023-02-25T00:00:00	2024-11-06T04:00:00	7	Dirección del viento	4.83
139039	7	Sololá	701	Sololá	2	El tablón	2	Febrero	2023-02-25T00:00:00	2024-11-06T04:00:00	1	Precipitación	0
139040	7	Sololá	701	Sololá	2	El tablón	2	Febrero	2023-02-25T00:00:00	2024-11-06T04:00:00	8	Radiación solar	0
139041	7	Sololá	701	Sololá	2	El tablón	2	Febrero	2023-02-25T00:00:00	2024-11-06T05:00:00	2	Temperatura media	10.1
139042	7	Sololá	701	Sololá	2	El tablón	2	Febrero	2023-02-25T00:00:00	2024-11-06T05:00:00	4	Temperatura máxima	10.2
139043	7	Sololá	701	Sololá	2	El tablón	2	Febrero	2023-02-25T00:00:00	2024-11-06T05:00:00	3	Temperatura mínima	9.8
139044	7	Sololá	701	Sololá	2	El tablón	2	Febrero	2023-02-25T00:00:00	2024-11-06T05:00:00	5	Humedad	78
139045	7	Sololá	701	Sololá	2	El tablón	2	Febrero	2023-02-25T00:00:00	2024-11-06T05:00:00	6	Velocidad del viento	8
139046	7	Sololá	701	Sololá	2	El tablón	2	Febrero	2023-02-25T00:00:00	2024-11-06T05:00:00	7	Dirección del viento	8.05
139047	7	Sololá	701	Sololá	2	El tablón	2	Febrero	2023-02-25T00:00:00	2024-11-06T05:00:00	1	Precipitación	0
139048	7	Sololá	701	Sololá	2	El tablón	2	Febrero	2023-02-25T00:00:00	2024-11-06T05:00:00	8	Radiación solar	0
139049	7	Sololá	701	Sololá	2	El tablón	2	Febrero	2023-02-25T00:00:00	2024-11-06T06:00:00	2	Temperatura media	9.7
139050	7	Sololá	701	Sololá	2	El tablón	2	Febrero	2023-02-25T00:00:00	2024-11-06T06:00:00	4	Temperatura máxima	10.2
139051	7	Sololá	701	Sololá	2	El tablón	2	Febrero	2023-02-25T00:00:00	2024-11-06T06:00:00	3	Temperatura mínima	9.3
139052	7	Sololá	701	Sololá	2	El tablón	2	Febrero	2023-02-25T00:00:00	2024-11-06T06:00:00	5	Humedad	80
139053	7	Sololá	701	Sololá	2	El tablón	2	Febrero	2023-02-25T00:00:00	2024-11-06T06:00:00	6	Velocidad del viento	9.7
139054	7	Sololá	701	Sololá	2	El tablón	2	Febrero	2023-02-25T00:00:00	2024-11-06T06:00:00	7	Dirección del viento	9.66
139055	7	Sololá	701	Sololá	2	El tablón	2	Febrero	2023-02-25T00:00:00	2024-11-06T06:00:00	1	Precipitación	0
139056	7	Sololá	701	Sololá	2	El tablón	2	Febrero	2023-02-25T00:00:00	2024-11-06T06:00:00	8	Radiación solar	0
139057	7	Sololá	701	Sololá	2	El tablón	2	Febrero	2023-02-25T00:00:00	2024-11-06T07:00:00	2	Temperatura media	10.7
139058	7	Sololá	701	Sololá	2	El tablón	2	Febrero	2023-02-25T00:00:00	2024-11-06T07:00:00	4	Temperatura máxima	10.8
139059	7	Sololá	701	Sololá	2	El tablón	2	Febrero	2023-02-25T00:00:00	2024-11-06T07:00:00	3	Temperatura mínima	9.5
139060	7	Sololá	701	Sololá	2	El tablón	2	Febrero	2023-02-25T00:00:00	2024-11-06T07:00:00	5	Humedad	71
139061	7	Sololá	701	Sololá	2	El tablón	2	Febrero	2023-02-25T00:00:00	2024-11-06T07:00:00	6	Velocidad del viento	4.8
139062	7	Sololá	701	Sololá	2	El tablón	2	Febrero	2023-02-25T00:00:00	2024-11-06T07:00:00	7	Dirección del viento	4.83
139063	7	Sololá	701	Sololá	2	El tablón	2	Febrero	2023-02-25T00:00:00	2024-11-06T07:00:00	1	Precipitación	0
139064	7	Sololá	701	Sololá	2	El tablón	2	Febrero	2023-02-25T00:00:00	2024-11-06T07:00:00	8	Radiación solar	11
139065	7	Sololá	701	Sololá	2	El tablón	2	Febrero	2023-02-25T00:00:00	2024-11-06T08:00:00	2	Temperatura media	16
139066	7	Sololá	701	Sololá	2	El tablón	2	Febrero	2023-02-25T00:00:00	2024-11-06T08:00:00	4	Temperatura máxima	16
139067	7	Sololá	701	Sololá	2	El tablón	2	Febrero	2023-02-25T00:00:00	2024-11-06T08:00:00	3	Temperatura mínima	10.7
139068	7	Sololá	701	Sololá	2	El tablón	2	Febrero	2023-02-25T00:00:00	2024-11-06T08:00:00	5	Humedad	44
139069	7	Sololá	701	Sololá	2	El tablón	2	Febrero	2023-02-25T00:00:00	2024-11-06T08:00:00	6	Velocidad del viento	4.8
139070	7	Sololá	701	Sololá	2	El tablón	2	Febrero	2023-02-25T00:00:00	2024-11-06T08:00:00	7	Dirección del viento	4.83
139071	7	Sololá	701	Sololá	2	El tablón	2	Febrero	2023-02-25T00:00:00	2024-11-06T08:00:00	1	Precipitación	0
139072	7	Sololá	701	Sololá	2	El tablón	2	Febrero	2023-02-25T00:00:00	2024-11-06T08:00:00	8	Radiación solar	150
139073	7	Sololá	701	Sololá	2	El tablón	2	Febrero	2023-02-25T00:00:00	2024-11-06T09:00:00	2	Temperatura media	17.2
139074	7	Sololá	701	Sololá	2	El tablón	2	Febrero	2023-02-25T00:00:00	2024-11-06T09:00:00	4	Temperatura máxima	17.3
139075	7	Sololá	701	Sololá	2	El tablón	2	Febrero	2023-02-25T00:00:00	2024-11-06T09:00:00	3	Temperatura mínima	16
139076	7	Sololá	701	Sololá	2	El tablón	2	Febrero	2023-02-25T00:00:00	2024-11-06T09:00:00	5	Humedad	39
139077	7	Sololá	701	Sololá	2	El tablón	2	Febrero	2023-02-25T00:00:00	2024-11-06T09:00:00	6	Velocidad del viento	6.4
139078	7	Sololá	701	Sololá	2	El tablón	2	Febrero	2023-02-25T00:00:00	2024-11-06T09:00:00	7	Dirección del viento	6.44
139079	7	Sololá	701	Sololá	2	El tablón	2	Febrero	2023-02-25T00:00:00	2024-11-06T09:00:00	1	Precipitación	0
139080	7	Sololá	701	Sololá	2	El tablón	2	Febrero	2023-02-25T00:00:00	2024-11-06T09:00:00	8	Radiación solar	415
139081	7	Sololá	701	Sololá	2	El tablón	2	Febrero	2023-02-25T00:00:00	2024-11-06T10:00:00	2	Temperatura media	18
139082	7	Sololá	701	Sololá	2	El tablón	2	Febrero	2023-02-25T00:00:00	2024-11-06T10:00:00	4	Temperatura máxima	18.2
139083	7	Sololá	701	Sololá	2	El tablón	2	Febrero	2023-02-25T00:00:00	2024-11-06T10:00:00	3	Temperatura mínima	17.3
139084	7	Sololá	701	Sololá	2	El tablón	2	Febrero	2023-02-25T00:00:00	2024-11-06T10:00:00	5	Humedad	37
139085	7	Sololá	701	Sololá	2	El tablón	2	Febrero	2023-02-25T00:00:00	2024-11-06T10:00:00	6	Velocidad del viento	6.4
139086	7	Sololá	701	Sololá	2	El tablón	2	Febrero	2023-02-25T00:00:00	2024-11-06T10:00:00	7	Dirección del viento	6.44
139087	7	Sololá	701	Sololá	2	El tablón	2	Febrero	2023-02-25T00:00:00	2024-11-06T10:00:00	1	Precipitación	0
139088	7	Sololá	701	Sololá	2	El tablón	2	Febrero	2023-02-25T00:00:00	2024-11-06T10:00:00	8	Radiación solar	624
139089	7	Sololá	701	Sololá	2	El tablón	2	Febrero	2023-02-25T00:00:00	2024-11-06T11:00:00	2	Temperatura media	19.6
139090	7	Sololá	701	Sololá	2	El tablón	2	Febrero	2023-02-25T00:00:00	2024-11-06T11:00:00	4	Temperatura máxima	19.7
139091	7	Sololá	701	Sololá	2	El tablón	2	Febrero	2023-02-25T00:00:00	2024-11-06T11:00:00	3	Temperatura mínima	18
139092	7	Sololá	701	Sololá	2	El tablón	2	Febrero	2023-02-25T00:00:00	2024-11-06T11:00:00	5	Humedad	38
139093	7	Sololá	701	Sololá	2	El tablón	2	Febrero	2023-02-25T00:00:00	2024-11-06T11:00:00	6	Velocidad del viento	8
139094	7	Sololá	701	Sololá	2	El tablón	2	Febrero	2023-02-25T00:00:00	2024-11-06T11:00:00	7	Dirección del viento	8.05
139095	7	Sololá	701	Sololá	2	El tablón	2	Febrero	2023-02-25T00:00:00	2024-11-06T11:00:00	1	Precipitación	0
139096	7	Sololá	701	Sololá	2	El tablón	2	Febrero	2023-02-25T00:00:00	2024-11-06T11:00:00	8	Radiación solar	779
139097	7	Sololá	701	Sololá	2	El tablón	2	Febrero	2023-02-25T00:00:00	2024-11-06T12:00:00	2	Temperatura media	20.4
139098	7	Sololá	701	Sololá	2	El tablón	2	Febrero	2023-02-25T00:00:00	2024-11-06T12:00:00	4	Temperatura máxima	20.4
139099	7	Sololá	701	Sololá	2	El tablón	2	Febrero	2023-02-25T00:00:00	2024-11-06T12:00:00	3	Temperatura mínima	19.1
139100	7	Sololá	701	Sololá	2	El tablón	2	Febrero	2023-02-25T00:00:00	2024-11-06T12:00:00	5	Humedad	34
139101	7	Sololá	701	Sololá	2	El tablón	2	Febrero	2023-02-25T00:00:00	2024-11-06T12:00:00	6	Velocidad del viento	9.7
139102	7	Sololá	701	Sololá	2	El tablón	2	Febrero	2023-02-25T00:00:00	2024-11-06T12:00:00	7	Dirección del viento	9.66
139103	7	Sololá	701	Sololá	2	El tablón	2	Febrero	2023-02-25T00:00:00	2024-11-06T12:00:00	1	Precipitación	0
139104	7	Sololá	701	Sololá	2	El tablón	2	Febrero	2023-02-25T00:00:00	2024-11-06T12:00:00	8	Radiación solar	822
139105	7	Sololá	701	Sololá	2	El tablón	2	Febrero	2023-02-25T00:00:00	2024-11-06T13:00:00	2	Temperatura media	21.5
139106	7	Sololá	701	Sololá	2	El tablón	2	Febrero	2023-02-25T00:00:00	2024-11-06T13:00:00	4	Temperatura máxima	21.5
139107	7	Sololá	701	Sololá	2	El tablón	2	Febrero	2023-02-25T00:00:00	2024-11-06T13:00:00	3	Temperatura mínima	20.4
139108	7	Sololá	701	Sololá	2	El tablón	2	Febrero	2023-02-25T00:00:00	2024-11-06T13:00:00	5	Humedad	33
139109	7	Sololá	701	Sololá	2	El tablón	2	Febrero	2023-02-25T00:00:00	2024-11-06T13:00:00	6	Velocidad del viento	8
139110	7	Sololá	701	Sololá	2	El tablón	2	Febrero	2023-02-25T00:00:00	2024-11-06T13:00:00	7	Dirección del viento	8.05
139111	7	Sololá	701	Sololá	2	El tablón	2	Febrero	2023-02-25T00:00:00	2024-11-06T13:00:00	1	Precipitación	0
139112	7	Sololá	701	Sololá	2	El tablón	2	Febrero	2023-02-25T00:00:00	2024-11-06T13:00:00	8	Radiación solar	884
139113	7	Sololá	701	Sololá	2	El tablón	2	Febrero	2023-02-25T00:00:00	2024-11-06T14:00:00	2	Temperatura media	20.4
139114	7	Sololá	701	Sololá	2	El tablón	2	Febrero	2023-02-25T00:00:00	2024-11-06T14:00:00	4	Temperatura máxima	21.7
139115	7	Sololá	701	Sololá	2	El tablón	2	Febrero	2023-02-25T00:00:00	2024-11-06T14:00:00	3	Temperatura mínima	20.4
139116	7	Sololá	701	Sololá	2	El tablón	2	Febrero	2023-02-25T00:00:00	2024-11-06T14:00:00	5	Humedad	60
139117	7	Sololá	701	Sololá	2	El tablón	2	Febrero	2023-02-25T00:00:00	2024-11-06T14:00:00	6	Velocidad del viento	6.4
139118	7	Sololá	701	Sololá	2	El tablón	2	Febrero	2023-02-25T00:00:00	2024-11-06T14:00:00	7	Dirección del viento	6.44
139119	7	Sololá	701	Sololá	2	El tablón	2	Febrero	2023-02-25T00:00:00	2024-11-06T14:00:00	1	Precipitación	0
139120	7	Sololá	701	Sololá	2	El tablón	2	Febrero	2023-02-25T00:00:00	2024-11-06T14:00:00	8	Radiación solar	851
139121	7	Sololá	701	Sololá	2	El tablón	2	Febrero	2023-02-25T00:00:00	2024-11-06T15:00:00	2	Temperatura media	21.2
139122	7	Sololá	701	Sololá	2	El tablón	2	Febrero	2023-02-25T00:00:00	2024-11-06T15:00:00	4	Temperatura máxima	22.3
139123	7	Sololá	701	Sololá	2	El tablón	2	Febrero	2023-02-25T00:00:00	2024-11-06T15:00:00	3	Temperatura mínima	20.4
139124	7	Sololá	701	Sololá	2	El tablón	2	Febrero	2023-02-25T00:00:00	2024-11-06T15:00:00	5	Humedad	61
139125	7	Sololá	701	Sololá	2	El tablón	2	Febrero	2023-02-25T00:00:00	2024-11-06T15:00:00	6	Velocidad del viento	6.4
139126	7	Sololá	701	Sololá	2	El tablón	2	Febrero	2023-02-25T00:00:00	2024-11-06T15:00:00	7	Dirección del viento	6.44
139127	7	Sololá	701	Sololá	2	El tablón	2	Febrero	2023-02-25T00:00:00	2024-11-06T15:00:00	1	Precipitación	0
139128	7	Sololá	701	Sololá	2	El tablón	2	Febrero	2023-02-25T00:00:00	2024-11-06T15:00:00	8	Radiación solar	739
139129	7	Sololá	701	Sololá	2	El tablón	2	Febrero	2023-02-25T00:00:00	2024-11-06T16:00:00	2	Temperatura media	20.4
139130	7	Sololá	701	Sololá	2	El tablón	2	Febrero	2023-02-25T00:00:00	2024-11-06T16:00:00	4	Temperatura máxima	21.2
139131	7	Sololá	701	Sololá	2	El tablón	2	Febrero	2023-02-25T00:00:00	2024-11-06T16:00:00	3	Temperatura mínima	20.2
139132	7	Sololá	701	Sololá	2	El tablón	2	Febrero	2023-02-25T00:00:00	2024-11-06T16:00:00	5	Humedad	41
139133	7	Sololá	701	Sololá	2	El tablón	2	Febrero	2023-02-25T00:00:00	2024-11-06T16:00:00	6	Velocidad del viento	6.4
139134	7	Sololá	701	Sololá	2	El tablón	2	Febrero	2023-02-25T00:00:00	2024-11-06T16:00:00	7	Dirección del viento	6.44
139135	7	Sololá	701	Sololá	2	El tablón	2	Febrero	2023-02-25T00:00:00	2024-11-06T16:00:00	1	Precipitación	0
139136	7	Sololá	701	Sololá	2	El tablón	2	Febrero	2023-02-25T00:00:00	2024-11-06T16:00:00	8	Radiación solar	562
139137	7	Sololá	701	Sololá	2	El tablón	2	Febrero	2023-02-25T00:00:00	2024-11-06T17:00:00	2	Temperatura media	19.2
139138	7	Sololá	701	Sololá	2	El tablón	2	Febrero	2023-02-25T00:00:00	2024-11-06T17:00:00	4	Temperatura máxima	20.6
139139	7	Sololá	701	Sololá	2	El tablón	2	Febrero	2023-02-25T00:00:00	2024-11-06T17:00:00	3	Temperatura mínima	19.2
139140	7	Sololá	701	Sololá	2	El tablón	2	Febrero	2023-02-25T00:00:00	2024-11-06T17:00:00	5	Humedad	43
139141	7	Sololá	701	Sololá	2	El tablón	2	Febrero	2023-02-25T00:00:00	2024-11-06T17:00:00	6	Velocidad del viento	11.3
139142	7	Sololá	701	Sololá	2	El tablón	2	Febrero	2023-02-25T00:00:00	2024-11-06T17:00:00	7	Dirección del viento	11.27
139143	7	Sololá	701	Sololá	2	El tablón	2	Febrero	2023-02-25T00:00:00	2024-11-06T17:00:00	1	Precipitación	0
139144	7	Sololá	701	Sololá	2	El tablón	2	Febrero	2023-02-25T00:00:00	2024-11-06T17:00:00	8	Radiación solar	369
139145	7	Sololá	701	Sololá	2	El tablón	2	Febrero	2023-02-25T00:00:00	2024-11-06T18:00:00	2	Temperatura media	16.6
139146	7	Sololá	701	Sololá	2	El tablón	2	Febrero	2023-02-25T00:00:00	2024-11-06T18:00:00	4	Temperatura máxima	19.2
139147	7	Sololá	701	Sololá	2	El tablón	2	Febrero	2023-02-25T00:00:00	2024-11-06T18:00:00	3	Temperatura mínima	16.6
139148	7	Sololá	701	Sololá	2	El tablón	2	Febrero	2023-02-25T00:00:00	2024-11-06T18:00:00	5	Humedad	65
139149	7	Sololá	701	Sololá	2	El tablón	2	Febrero	2023-02-25T00:00:00	2024-11-06T18:00:00	6	Velocidad del viento	11.3
139150	7	Sololá	701	Sololá	2	El tablón	2	Febrero	2023-02-25T00:00:00	2024-11-06T18:00:00	7	Dirección del viento	11.27
139151	7	Sololá	701	Sololá	2	El tablón	2	Febrero	2023-02-25T00:00:00	2024-11-06T18:00:00	1	Precipitación	0
139152	7	Sololá	701	Sololá	2	El tablón	2	Febrero	2023-02-25T00:00:00	2024-11-06T18:00:00	8	Radiación solar	122
139153	7	Sololá	701	Sololá	2	El tablón	2	Febrero	2023-02-25T00:00:00	2024-11-06T19:00:00	2	Temperatura media	14.1
139154	7	Sololá	701	Sololá	2	El tablón	2	Febrero	2023-02-25T00:00:00	2024-11-06T19:00:00	4	Temperatura máxima	16.6
139155	7	Sololá	701	Sololá	2	El tablón	2	Febrero	2023-02-25T00:00:00	2024-11-06T19:00:00	3	Temperatura mínima	14.1
139156	7	Sololá	701	Sololá	2	El tablón	2	Febrero	2023-02-25T00:00:00	2024-11-06T19:00:00	5	Humedad	79
139157	7	Sololá	701	Sololá	2	El tablón	2	Febrero	2023-02-25T00:00:00	2024-11-06T19:00:00	6	Velocidad del viento	11.3
139158	7	Sololá	701	Sololá	2	El tablón	2	Febrero	2023-02-25T00:00:00	2024-11-06T19:00:00	7	Dirección del viento	11.27
139159	7	Sololá	701	Sololá	2	El tablón	2	Febrero	2023-02-25T00:00:00	2024-11-06T19:00:00	1	Precipitación	0
139160	7	Sololá	701	Sololá	2	El tablón	2	Febrero	2023-02-25T00:00:00	2024-11-06T19:00:00	8	Radiación solar	0
139161	7	Sololá	701	Sololá	2	El tablón	2	Febrero	2023-02-25T00:00:00	2024-11-06T20:00:00	2	Temperatura media	12.8
139162	7	Sololá	701	Sololá	2	El tablón	2	Febrero	2023-02-25T00:00:00	2024-11-06T20:00:00	4	Temperatura máxima	14.1
139163	7	Sololá	701	Sololá	2	El tablón	2	Febrero	2023-02-25T00:00:00	2024-11-06T20:00:00	3	Temperatura mínima	12.8
139164	7	Sololá	701	Sololá	2	El tablón	2	Febrero	2023-02-25T00:00:00	2024-11-06T20:00:00	5	Humedad	82
139165	7	Sololá	701	Sololá	2	El tablón	2	Febrero	2023-02-25T00:00:00	2024-11-06T20:00:00	6	Velocidad del viento	16.1
139166	7	Sololá	701	Sololá	2	El tablón	2	Febrero	2023-02-25T00:00:00	2024-11-06T20:00:00	7	Dirección del viento	16.09
139167	7	Sololá	701	Sololá	2	El tablón	2	Febrero	2023-02-25T00:00:00	2024-11-06T20:00:00	1	Precipitación	0
139168	7	Sololá	701	Sololá	2	El tablón	2	Febrero	2023-02-25T00:00:00	2024-11-06T20:00:00	8	Radiación solar	0
139169	7	Sololá	701	Sololá	2	El tablón	2	Febrero	2023-02-25T00:00:00	2024-11-06T21:00:00	2	Temperatura media	12.1
139170	7	Sololá	701	Sololá	2	El tablón	2	Febrero	2023-02-25T00:00:00	2024-11-06T21:00:00	4	Temperatura máxima	12.8
139171	7	Sololá	701	Sololá	2	El tablón	2	Febrero	2023-02-25T00:00:00	2024-11-06T21:00:00	3	Temperatura mínima	12.1
139172	7	Sololá	701	Sololá	2	El tablón	2	Febrero	2023-02-25T00:00:00	2024-11-06T21:00:00	5	Humedad	84
139173	7	Sololá	701	Sololá	2	El tablón	2	Febrero	2023-02-25T00:00:00	2024-11-06T21:00:00	6	Velocidad del viento	14.5
139174	7	Sololá	701	Sololá	2	El tablón	2	Febrero	2023-02-25T00:00:00	2024-11-06T21:00:00	7	Dirección del viento	14.48
139175	7	Sololá	701	Sololá	2	El tablón	2	Febrero	2023-02-25T00:00:00	2024-11-06T21:00:00	1	Precipitación	0
139176	7	Sololá	701	Sololá	2	El tablón	2	Febrero	2023-02-25T00:00:00	2024-11-06T21:00:00	8	Radiación solar	0
139177	7	Sololá	701	Sololá	2	El tablón	2	Febrero	2023-02-25T00:00:00	2024-11-06T22:00:00	2	Temperatura media	11.3
139178	7	Sololá	701	Sololá	2	El tablón	2	Febrero	2023-02-25T00:00:00	2024-11-06T22:00:00	4	Temperatura máxima	12.1
139179	7	Sololá	701	Sololá	2	El tablón	2	Febrero	2023-02-25T00:00:00	2024-11-06T22:00:00	3	Temperatura mínima	11.2
139180	7	Sololá	701	Sololá	2	El tablón	2	Febrero	2023-02-25T00:00:00	2024-11-06T22:00:00	5	Humedad	82
139181	7	Sololá	701	Sololá	2	El tablón	2	Febrero	2023-02-25T00:00:00	2024-11-06T22:00:00	6	Velocidad del viento	14.5
139182	7	Sololá	701	Sololá	2	El tablón	2	Febrero	2023-02-25T00:00:00	2024-11-06T22:00:00	7	Dirección del viento	14.48
139183	7	Sololá	701	Sololá	2	El tablón	2	Febrero	2023-02-25T00:00:00	2024-11-06T22:00:00	1	Precipitación	0
139184	7	Sololá	701	Sololá	2	El tablón	2	Febrero	2023-02-25T00:00:00	2024-11-06T22:00:00	8	Radiación solar	0
139185	7	Sololá	701	Sololá	2	El tablón	2	Febrero	2023-02-25T00:00:00	2024-11-06T23:00:00	2	Temperatura media	10.9
139186	7	Sololá	701	Sololá	2	El tablón	2	Febrero	2023-02-25T00:00:00	2024-11-06T23:00:00	4	Temperatura máxima	11.4
139187	7	Sololá	701	Sololá	2	El tablón	2	Febrero	2023-02-25T00:00:00	2024-11-06T23:00:00	3	Temperatura mínima	10.9
139188	7	Sololá	701	Sololá	2	El tablón	2	Febrero	2023-02-25T00:00:00	2024-11-06T23:00:00	5	Humedad	83
139189	7	Sololá	701	Sololá	2	El tablón	2	Febrero	2023-02-25T00:00:00	2024-11-06T23:00:00	6	Velocidad del viento	16.1
139190	7	Sololá	701	Sololá	2	El tablón	2	Febrero	2023-02-25T00:00:00	2024-11-06T23:00:00	7	Dirección del viento	16.09
139191	7	Sololá	701	Sololá	2	El tablón	2	Febrero	2023-02-25T00:00:00	2024-11-06T23:00:00	1	Precipitación	0
139192	7	Sololá	701	Sololá	2	El tablón	2	Febrero	2023-02-25T00:00:00	2024-11-06T23:00:00	8	Radiación solar	0
139193	7	Sololá	701	Sololá	2	El tablón	2	Febrero	2023-02-26T00:00:00	2024-11-06T00:00:00	2	Temperatura media	10.2
139194	7	Sololá	701	Sololá	2	El tablón	2	Febrero	2023-02-26T00:00:00	2024-11-06T00:00:00	4	Temperatura máxima	10.9
139195	7	Sololá	701	Sololá	2	El tablón	2	Febrero	2023-02-26T00:00:00	2024-11-06T00:00:00	3	Temperatura mínima	10.2
139196	7	Sololá	701	Sololá	2	El tablón	2	Febrero	2023-02-26T00:00:00	2024-11-06T00:00:00	5	Humedad	85
139197	7	Sololá	701	Sololá	2	El tablón	2	Febrero	2023-02-26T00:00:00	2024-11-06T00:00:00	6	Velocidad del viento	17.7
139198	7	Sololá	701	Sololá	2	El tablón	2	Febrero	2023-02-26T00:00:00	2024-11-06T00:00:00	7	Dirección del viento	17.7
139199	7	Sololá	701	Sololá	2	El tablón	2	Febrero	2023-02-26T00:00:00	2024-11-06T00:00:00	1	Precipitación	0
139200	7	Sololá	701	Sololá	2	El tablón	2	Febrero	2023-02-26T00:00:00	2024-11-06T00:00:00	8	Radiación solar	0
139201	7	Sololá	701	Sololá	2	El tablón	2	Febrero	2023-02-26T00:00:00	2024-11-06T01:00:00	2	Temperatura media	9.9
139202	7	Sololá	701	Sololá	2	El tablón	2	Febrero	2023-02-26T00:00:00	2024-11-06T01:00:00	4	Temperatura máxima	10.2
139203	7	Sololá	701	Sololá	2	El tablón	2	Febrero	2023-02-26T00:00:00	2024-11-06T01:00:00	3	Temperatura mínima	9.9
139204	7	Sololá	701	Sololá	2	El tablón	2	Febrero	2023-02-26T00:00:00	2024-11-06T01:00:00	5	Humedad	84
139205	7	Sololá	701	Sololá	2	El tablón	2	Febrero	2023-02-26T00:00:00	2024-11-06T01:00:00	6	Velocidad del viento	16.1
139206	7	Sololá	701	Sololá	2	El tablón	2	Febrero	2023-02-26T00:00:00	2024-11-06T01:00:00	7	Dirección del viento	16.09
139207	7	Sololá	701	Sololá	2	El tablón	2	Febrero	2023-02-26T00:00:00	2024-11-06T01:00:00	1	Precipitación	0
139208	7	Sololá	701	Sololá	2	El tablón	2	Febrero	2023-02-26T00:00:00	2024-11-06T01:00:00	8	Radiación solar	0
139209	7	Sololá	701	Sololá	2	El tablón	2	Febrero	2023-02-26T00:00:00	2024-11-06T02:00:00	2	Temperatura media	9.6
139210	7	Sololá	701	Sololá	2	El tablón	2	Febrero	2023-02-26T00:00:00	2024-11-06T02:00:00	4	Temperatura máxima	9.9
139211	7	Sololá	701	Sololá	2	El tablón	2	Febrero	2023-02-26T00:00:00	2024-11-06T02:00:00	3	Temperatura mínima	9.6
139212	7	Sololá	701	Sololá	2	El tablón	2	Febrero	2023-02-26T00:00:00	2024-11-06T02:00:00	5	Humedad	83
139213	7	Sololá	701	Sololá	2	El tablón	2	Febrero	2023-02-26T00:00:00	2024-11-06T02:00:00	6	Velocidad del viento	12.9
139214	7	Sololá	701	Sololá	2	El tablón	2	Febrero	2023-02-26T00:00:00	2024-11-06T02:00:00	7	Dirección del viento	12.87
139215	7	Sololá	701	Sololá	2	El tablón	2	Febrero	2023-02-26T00:00:00	2024-11-06T02:00:00	1	Precipitación	0
139216	7	Sololá	701	Sololá	2	El tablón	2	Febrero	2023-02-26T00:00:00	2024-11-06T02:00:00	8	Radiación solar	0
139217	7	Sololá	701	Sololá	2	El tablón	2	Febrero	2023-02-26T00:00:00	2024-11-06T03:00:00	2	Temperatura media	9.1
139218	7	Sololá	701	Sololá	2	El tablón	2	Febrero	2023-02-26T00:00:00	2024-11-06T03:00:00	4	Temperatura máxima	9.6
139219	7	Sololá	701	Sololá	2	El tablón	2	Febrero	2023-02-26T00:00:00	2024-11-06T03:00:00	3	Temperatura mínima	9.1
139220	7	Sololá	701	Sololá	2	El tablón	2	Febrero	2023-02-26T00:00:00	2024-11-06T03:00:00	5	Humedad	84
139221	7	Sololá	701	Sololá	2	El tablón	2	Febrero	2023-02-26T00:00:00	2024-11-06T03:00:00	6	Velocidad del viento	12.9
139222	7	Sololá	701	Sololá	2	El tablón	2	Febrero	2023-02-26T00:00:00	2024-11-06T03:00:00	7	Dirección del viento	12.87
139223	7	Sololá	701	Sololá	2	El tablón	2	Febrero	2023-02-26T00:00:00	2024-11-06T03:00:00	1	Precipitación	0
139224	7	Sololá	701	Sololá	2	El tablón	2	Febrero	2023-02-26T00:00:00	2024-11-06T03:00:00	8	Radiación solar	0
139225	7	Sololá	701	Sololá	2	El tablón	2	Febrero	2023-02-26T00:00:00	2024-11-06T04:00:00	2	Temperatura media	8.8
139226	7	Sololá	701	Sololá	2	El tablón	2	Febrero	2023-02-26T00:00:00	2024-11-06T04:00:00	4	Temperatura máxima	9.1
139227	7	Sololá	701	Sololá	2	El tablón	2	Febrero	2023-02-26T00:00:00	2024-11-06T04:00:00	3	Temperatura mínima	8.8
139228	7	Sololá	701	Sololá	2	El tablón	2	Febrero	2023-02-26T00:00:00	2024-11-06T04:00:00	5	Humedad	86
139229	7	Sololá	701	Sololá	2	El tablón	2	Febrero	2023-02-26T00:00:00	2024-11-06T04:00:00	6	Velocidad del viento	11.3
139230	7	Sololá	701	Sololá	2	El tablón	2	Febrero	2023-02-26T00:00:00	2024-11-06T04:00:00	7	Dirección del viento	11.27
139231	7	Sololá	701	Sololá	2	El tablón	2	Febrero	2023-02-26T00:00:00	2024-11-06T04:00:00	1	Precipitación	0
139232	7	Sololá	701	Sololá	2	El tablón	2	Febrero	2023-02-26T00:00:00	2024-11-06T04:00:00	8	Radiación solar	0
139233	7	Sololá	701	Sololá	2	El tablón	2	Febrero	2023-02-26T00:00:00	2024-11-06T05:00:00	2	Temperatura media	8.3
139234	7	Sololá	701	Sololá	2	El tablón	2	Febrero	2023-02-26T00:00:00	2024-11-06T05:00:00	4	Temperatura máxima	8.8
139235	7	Sololá	701	Sololá	2	El tablón	2	Febrero	2023-02-26T00:00:00	2024-11-06T05:00:00	3	Temperatura mínima	8.3
139236	7	Sololá	701	Sololá	2	El tablón	2	Febrero	2023-02-26T00:00:00	2024-11-06T05:00:00	5	Humedad	87
139237	7	Sololá	701	Sololá	2	El tablón	2	Febrero	2023-02-26T00:00:00	2024-11-06T05:00:00	6	Velocidad del viento	11.3
139238	7	Sololá	701	Sololá	2	El tablón	2	Febrero	2023-02-26T00:00:00	2024-11-06T05:00:00	7	Dirección del viento	11.27
139239	7	Sololá	701	Sololá	2	El tablón	2	Febrero	2023-02-26T00:00:00	2024-11-06T05:00:00	1	Precipitación	0
139240	7	Sololá	701	Sololá	2	El tablón	2	Febrero	2023-02-26T00:00:00	2024-11-06T05:00:00	8	Radiación solar	0
139241	7	Sololá	701	Sololá	2	El tablón	2	Febrero	2023-02-26T00:00:00	2024-11-06T06:00:00	2	Temperatura media	8.4
139242	7	Sololá	701	Sololá	2	El tablón	2	Febrero	2023-02-26T00:00:00	2024-11-06T06:00:00	4	Temperatura máxima	8.4
139243	7	Sololá	701	Sololá	2	El tablón	2	Febrero	2023-02-26T00:00:00	2024-11-06T06:00:00	3	Temperatura mínima	8.2
139244	7	Sololá	701	Sololá	2	El tablón	2	Febrero	2023-02-26T00:00:00	2024-11-06T06:00:00	5	Humedad	84
139245	7	Sololá	701	Sololá	2	El tablón	2	Febrero	2023-02-26T00:00:00	2024-11-06T06:00:00	6	Velocidad del viento	12.9
139246	7	Sololá	701	Sololá	2	El tablón	2	Febrero	2023-02-26T00:00:00	2024-11-06T06:00:00	7	Dirección del viento	12.87
139247	7	Sololá	701	Sololá	2	El tablón	2	Febrero	2023-02-26T00:00:00	2024-11-06T06:00:00	1	Precipitación	0
139248	7	Sololá	701	Sololá	2	El tablón	2	Febrero	2023-02-26T00:00:00	2024-11-06T06:00:00	8	Radiación solar	0
139249	7	Sololá	701	Sololá	2	El tablón	2	Febrero	2023-02-26T00:00:00	2024-11-06T07:00:00	2	Temperatura media	9.4
139250	7	Sololá	701	Sololá	2	El tablón	2	Febrero	2023-02-26T00:00:00	2024-11-06T07:00:00	4	Temperatura máxima	9.4
139251	7	Sololá	701	Sololá	2	El tablón	2	Febrero	2023-02-26T00:00:00	2024-11-06T07:00:00	3	Temperatura mínima	8.4
139252	7	Sololá	701	Sololá	2	El tablón	2	Febrero	2023-02-26T00:00:00	2024-11-06T07:00:00	5	Humedad	80
139253	7	Sololá	701	Sololá	2	El tablón	2	Febrero	2023-02-26T00:00:00	2024-11-06T07:00:00	6	Velocidad del viento	11.3
139254	7	Sololá	701	Sololá	2	El tablón	2	Febrero	2023-02-26T00:00:00	2024-11-06T07:00:00	7	Dirección del viento	11.27
139255	7	Sololá	701	Sololá	2	El tablón	2	Febrero	2023-02-26T00:00:00	2024-11-06T07:00:00	1	Precipitación	0
139256	7	Sololá	701	Sololá	2	El tablón	2	Febrero	2023-02-26T00:00:00	2024-11-06T07:00:00	8	Radiación solar	12
139257	7	Sololá	701	Sololá	2	El tablón	2	Febrero	2023-02-26T00:00:00	2024-11-06T08:00:00	2	Temperatura media	10.7
139258	7	Sololá	701	Sololá	2	El tablón	2	Febrero	2023-02-26T00:00:00	2024-11-06T08:00:00	4	Temperatura máxima	10.7
139259	7	Sololá	701	Sololá	2	El tablón	2	Febrero	2023-02-26T00:00:00	2024-11-06T08:00:00	3	Temperatura mínima	9.4
139260	7	Sololá	701	Sololá	2	El tablón	2	Febrero	2023-02-26T00:00:00	2024-11-06T08:00:00	5	Humedad	77
139261	7	Sololá	701	Sololá	2	El tablón	2	Febrero	2023-02-26T00:00:00	2024-11-06T08:00:00	6	Velocidad del viento	12.9
139262	7	Sololá	701	Sololá	2	El tablón	2	Febrero	2023-02-26T00:00:00	2024-11-06T08:00:00	7	Dirección del viento	12.87
139263	7	Sololá	701	Sololá	2	El tablón	2	Febrero	2023-02-26T00:00:00	2024-11-06T08:00:00	1	Precipitación	0
139264	7	Sololá	701	Sololá	2	El tablón	2	Febrero	2023-02-26T00:00:00	2024-11-06T08:00:00	8	Radiación solar	151
139265	7	Sololá	701	Sololá	2	El tablón	2	Febrero	2023-02-26T00:00:00	2024-11-06T09:00:00	2	Temperatura media	12.8
139266	7	Sololá	701	Sololá	2	El tablón	2	Febrero	2023-02-26T00:00:00	2024-11-06T09:00:00	4	Temperatura máxima	12.8
139267	7	Sololá	701	Sololá	2	El tablón	2	Febrero	2023-02-26T00:00:00	2024-11-06T09:00:00	3	Temperatura mínima	10.7
139268	7	Sololá	701	Sololá	2	El tablón	2	Febrero	2023-02-26T00:00:00	2024-11-06T09:00:00	5	Humedad	69
139269	7	Sololá	701	Sololá	2	El tablón	2	Febrero	2023-02-26T00:00:00	2024-11-06T09:00:00	6	Velocidad del viento	14.5
139270	7	Sololá	701	Sololá	2	El tablón	2	Febrero	2023-02-26T00:00:00	2024-11-06T09:00:00	7	Dirección del viento	14.48
139271	7	Sololá	701	Sololá	2	El tablón	2	Febrero	2023-02-26T00:00:00	2024-11-06T09:00:00	1	Precipitación	0
139272	7	Sololá	701	Sololá	2	El tablón	2	Febrero	2023-02-26T00:00:00	2024-11-06T09:00:00	8	Radiación solar	422
139273	7	Sololá	701	Sololá	2	El tablón	2	Febrero	2023-02-26T00:00:00	2024-11-06T10:00:00	2	Temperatura media	16.2
139274	7	Sololá	701	Sololá	2	El tablón	2	Febrero	2023-02-26T00:00:00	2024-11-06T10:00:00	4	Temperatura máxima	16.3
139275	7	Sololá	701	Sololá	2	El tablón	2	Febrero	2023-02-26T00:00:00	2024-11-06T10:00:00	3	Temperatura mínima	12.8
139276	7	Sololá	701	Sololá	2	El tablón	2	Febrero	2023-02-26T00:00:00	2024-11-06T10:00:00	5	Humedad	51
139277	7	Sololá	701	Sololá	2	El tablón	2	Febrero	2023-02-26T00:00:00	2024-11-06T10:00:00	6	Velocidad del viento	12.9
139278	7	Sololá	701	Sololá	2	El tablón	2	Febrero	2023-02-26T00:00:00	2024-11-06T10:00:00	7	Dirección del viento	12.87
139279	7	Sololá	701	Sololá	2	El tablón	2	Febrero	2023-02-26T00:00:00	2024-11-06T10:00:00	1	Precipitación	0
139280	7	Sololá	701	Sololá	2	El tablón	2	Febrero	2023-02-26T00:00:00	2024-11-06T10:00:00	8	Radiación solar	632
139281	7	Sololá	701	Sololá	2	El tablón	2	Febrero	2023-02-26T00:00:00	2024-11-06T11:00:00	2	Temperatura media	17.6
139282	7	Sololá	701	Sololá	2	El tablón	2	Febrero	2023-02-26T00:00:00	2024-11-06T11:00:00	4	Temperatura máxima	17.6
139283	7	Sololá	701	Sololá	2	El tablón	2	Febrero	2023-02-26T00:00:00	2024-11-06T11:00:00	3	Temperatura mínima	16.1
139284	7	Sololá	701	Sololá	2	El tablón	2	Febrero	2023-02-26T00:00:00	2024-11-06T11:00:00	5	Humedad	44
139285	7	Sololá	701	Sololá	2	El tablón	2	Febrero	2023-02-26T00:00:00	2024-11-06T11:00:00	6	Velocidad del viento	9.7
139286	7	Sololá	701	Sololá	2	El tablón	2	Febrero	2023-02-26T00:00:00	2024-11-06T11:00:00	7	Dirección del viento	9.66
139287	7	Sololá	701	Sololá	2	El tablón	2	Febrero	2023-02-26T00:00:00	2024-11-06T11:00:00	1	Precipitación	0
139288	7	Sololá	701	Sololá	2	El tablón	2	Febrero	2023-02-26T00:00:00	2024-11-06T11:00:00	8	Radiación solar	792
139289	7	Sololá	701	Sololá	2	El tablón	2	Febrero	2023-02-26T00:00:00	2024-11-06T12:00:00	2	Temperatura media	19.6
139290	7	Sololá	701	Sololá	2	El tablón	2	Febrero	2023-02-26T00:00:00	2024-11-06T12:00:00	4	Temperatura máxima	19.6
139291	7	Sololá	701	Sololá	2	El tablón	2	Febrero	2023-02-26T00:00:00	2024-11-06T12:00:00	3	Temperatura mínima	17.6
139292	7	Sololá	701	Sololá	2	El tablón	2	Febrero	2023-02-26T00:00:00	2024-11-06T12:00:00	5	Humedad	36
139293	7	Sololá	701	Sololá	2	El tablón	2	Febrero	2023-02-26T00:00:00	2024-11-06T12:00:00	6	Velocidad del viento	9.7
139294	7	Sololá	701	Sololá	2	El tablón	2	Febrero	2023-02-26T00:00:00	2024-11-06T12:00:00	7	Dirección del viento	9.66
139295	7	Sololá	701	Sololá	2	El tablón	2	Febrero	2023-02-26T00:00:00	2024-11-06T12:00:00	1	Precipitación	0
139296	7	Sololá	701	Sololá	2	El tablón	2	Febrero	2023-02-26T00:00:00	2024-11-06T12:00:00	8	Radiación solar	834
139297	7	Sololá	701	Sololá	2	El tablón	2	Febrero	2023-02-26T00:00:00	2024-11-06T13:00:00	2	Temperatura media	18.8
139298	7	Sololá	701	Sololá	2	El tablón	2	Febrero	2023-02-26T00:00:00	2024-11-06T13:00:00	4	Temperatura máxima	20.2
139299	7	Sololá	701	Sololá	2	El tablón	2	Febrero	2023-02-26T00:00:00	2024-11-06T13:00:00	3	Temperatura mínima	18.7
139300	7	Sololá	701	Sololá	2	El tablón	2	Febrero	2023-02-26T00:00:00	2024-11-06T13:00:00	5	Humedad	55
139301	7	Sololá	701	Sololá	2	El tablón	2	Febrero	2023-02-26T00:00:00	2024-11-06T13:00:00	6	Velocidad del viento	8
139302	7	Sololá	701	Sololá	2	El tablón	2	Febrero	2023-02-26T00:00:00	2024-11-06T13:00:00	7	Dirección del viento	8.05
139303	7	Sololá	701	Sololá	2	El tablón	2	Febrero	2023-02-26T00:00:00	2024-11-06T13:00:00	1	Precipitación	0
139304	7	Sololá	701	Sololá	2	El tablón	2	Febrero	2023-02-26T00:00:00	2024-11-06T13:00:00	8	Radiación solar	877
139305	7	Sololá	701	Sololá	2	El tablón	2	Febrero	2023-02-26T00:00:00	2024-11-06T14:00:00	2	Temperatura media	18.7
139306	7	Sololá	701	Sololá	2	El tablón	2	Febrero	2023-02-26T00:00:00	2024-11-06T14:00:00	4	Temperatura máxima	19.3
139307	7	Sololá	701	Sololá	2	El tablón	2	Febrero	2023-02-26T00:00:00	2024-11-06T14:00:00	3	Temperatura mínima	18.6
139308	7	Sololá	701	Sololá	2	El tablón	2	Febrero	2023-02-26T00:00:00	2024-11-06T14:00:00	5	Humedad	68
139309	7	Sololá	701	Sololá	2	El tablón	2	Febrero	2023-02-26T00:00:00	2024-11-06T14:00:00	6	Velocidad del viento	9.7
139310	7	Sololá	701	Sololá	2	El tablón	2	Febrero	2023-02-26T00:00:00	2024-11-06T14:00:00	7	Dirección del viento	9.66
139311	7	Sololá	701	Sololá	2	El tablón	2	Febrero	2023-02-26T00:00:00	2024-11-06T14:00:00	1	Precipitación	0
139312	7	Sololá	701	Sololá	2	El tablón	2	Febrero	2023-02-26T00:00:00	2024-11-06T14:00:00	8	Radiación solar	858
139313	7	Sololá	701	Sololá	2	El tablón	2	Febrero	2023-02-26T00:00:00	2024-11-06T15:00:00	2	Temperatura media	17.7
139314	7	Sololá	701	Sololá	2	El tablón	2	Febrero	2023-02-26T00:00:00	2024-11-06T15:00:00	4	Temperatura máxima	18.9
139315	7	Sololá	701	Sololá	2	El tablón	2	Febrero	2023-02-26T00:00:00	2024-11-06T15:00:00	3	Temperatura mínima	17.6
139316	7	Sololá	701	Sololá	2	El tablón	2	Febrero	2023-02-26T00:00:00	2024-11-06T15:00:00	5	Humedad	75
139317	7	Sololá	701	Sololá	2	El tablón	2	Febrero	2023-02-26T00:00:00	2024-11-06T15:00:00	6	Velocidad del viento	11.3
139318	7	Sololá	701	Sololá	2	El tablón	2	Febrero	2023-02-26T00:00:00	2024-11-06T15:00:00	7	Dirección del viento	11.27
139319	7	Sololá	701	Sololá	2	El tablón	2	Febrero	2023-02-26T00:00:00	2024-11-06T15:00:00	1	Precipitación	0
139320	7	Sololá	701	Sololá	2	El tablón	2	Febrero	2023-02-26T00:00:00	2024-11-06T15:00:00	8	Radiación solar	752
139321	7	Sololá	701	Sololá	2	El tablón	2	Febrero	2023-02-26T00:00:00	2024-11-06T16:00:00	2	Temperatura media	17
139322	7	Sololá	701	Sololá	2	El tablón	2	Febrero	2023-02-26T00:00:00	2024-11-06T16:00:00	4	Temperatura máxima	18
139323	7	Sololá	701	Sololá	2	El tablón	2	Febrero	2023-02-26T00:00:00	2024-11-06T16:00:00	3	Temperatura mínima	17
139324	7	Sololá	701	Sololá	2	El tablón	2	Febrero	2023-02-26T00:00:00	2024-11-06T16:00:00	5	Humedad	80
139325	7	Sololá	701	Sololá	2	El tablón	2	Febrero	2023-02-26T00:00:00	2024-11-06T16:00:00	6	Velocidad del viento	8
139326	7	Sololá	701	Sololá	2	El tablón	2	Febrero	2023-02-26T00:00:00	2024-11-06T16:00:00	7	Dirección del viento	8.05
139327	7	Sololá	701	Sololá	2	El tablón	2	Febrero	2023-02-26T00:00:00	2024-11-06T16:00:00	1	Precipitación	0
139328	7	Sololá	701	Sololá	2	El tablón	2	Febrero	2023-02-26T00:00:00	2024-11-06T16:00:00	8	Radiación solar	570
139329	7	Sololá	701	Sololá	2	El tablón	2	Febrero	2023-02-26T00:00:00	2024-11-06T17:00:00	2	Temperatura media	14.2
139330	7	Sololá	701	Sololá	2	El tablón	2	Febrero	2023-02-26T00:00:00	2024-11-06T17:00:00	4	Temperatura máxima	17
139331	7	Sololá	701	Sololá	2	El tablón	2	Febrero	2023-02-26T00:00:00	2024-11-06T17:00:00	3	Temperatura mínima	14.2
139332	7	Sololá	701	Sololá	2	El tablón	2	Febrero	2023-02-26T00:00:00	2024-11-06T17:00:00	5	Humedad	87
139333	7	Sololá	701	Sololá	2	El tablón	2	Febrero	2023-02-26T00:00:00	2024-11-06T17:00:00	6	Velocidad del viento	8
139334	7	Sololá	701	Sololá	2	El tablón	2	Febrero	2023-02-26T00:00:00	2024-11-06T17:00:00	7	Dirección del viento	8.05
139335	7	Sololá	701	Sololá	2	El tablón	2	Febrero	2023-02-26T00:00:00	2024-11-06T17:00:00	1	Precipitación	0
139336	7	Sololá	701	Sololá	2	El tablón	2	Febrero	2023-02-26T00:00:00	2024-11-06T17:00:00	8	Radiación solar	166
139337	7	Sololá	701	Sololá	2	El tablón	2	Febrero	2023-02-26T00:00:00	2024-11-06T18:00:00	2	Temperatura media	13.7
139338	7	Sololá	701	Sololá	2	El tablón	2	Febrero	2023-02-26T00:00:00	2024-11-06T18:00:00	4	Temperatura máxima	14.2
139339	7	Sololá	701	Sololá	2	El tablón	2	Febrero	2023-02-26T00:00:00	2024-11-06T18:00:00	3	Temperatura mínima	13.6
139340	7	Sololá	701	Sololá	2	El tablón	2	Febrero	2023-02-26T00:00:00	2024-11-06T18:00:00	5	Humedad	89
139341	7	Sololá	701	Sololá	2	El tablón	2	Febrero	2023-02-26T00:00:00	2024-11-06T18:00:00	6	Velocidad del viento	3.2
139342	7	Sololá	701	Sololá	2	El tablón	2	Febrero	2023-02-26T00:00:00	2024-11-06T18:00:00	7	Dirección del viento	3.22
139343	7	Sololá	701	Sololá	2	El tablón	2	Febrero	2023-02-26T00:00:00	2024-11-06T18:00:00	1	Precipitación	0
139344	7	Sololá	701	Sololá	2	El tablón	2	Febrero	2023-02-26T00:00:00	2024-11-06T18:00:00	8	Radiación solar	40
139345	7	Sololá	701	Sololá	2	El tablón	2	Febrero	2023-02-26T00:00:00	2024-11-06T19:00:00	2	Temperatura media	12.8
139346	7	Sololá	701	Sololá	2	El tablón	2	Febrero	2023-02-26T00:00:00	2024-11-06T19:00:00	4	Temperatura máxima	13.7
139347	7	Sololá	701	Sololá	2	El tablón	2	Febrero	2023-02-26T00:00:00	2024-11-06T19:00:00	3	Temperatura mínima	12.8
139348	7	Sololá	701	Sololá	2	El tablón	2	Febrero	2023-02-26T00:00:00	2024-11-06T19:00:00	5	Humedad	89
139349	7	Sololá	701	Sololá	2	El tablón	2	Febrero	2023-02-26T00:00:00	2024-11-06T19:00:00	6	Velocidad del viento	0
139350	7	Sololá	701	Sololá	2	El tablón	2	Febrero	2023-02-26T00:00:00	2024-11-06T19:00:00	7	Dirección del viento	0
139351	7	Sololá	701	Sololá	2	El tablón	2	Febrero	2023-02-26T00:00:00	2024-11-06T19:00:00	1	Precipitación	0
139352	7	Sololá	701	Sololá	2	El tablón	2	Febrero	2023-02-26T00:00:00	2024-11-06T19:00:00	8	Radiación solar	0
139353	7	Sololá	701	Sololá	2	El tablón	2	Febrero	2023-02-26T00:00:00	2024-11-06T20:00:00	2	Temperatura media	11.9
139354	7	Sololá	701	Sololá	2	El tablón	2	Febrero	2023-02-26T00:00:00	2024-11-06T20:00:00	4	Temperatura máxima	12.8
139355	7	Sololá	701	Sololá	2	El tablón	2	Febrero	2023-02-26T00:00:00	2024-11-06T20:00:00	3	Temperatura mínima	11.8
139356	7	Sololá	701	Sololá	2	El tablón	2	Febrero	2023-02-26T00:00:00	2024-11-06T20:00:00	5	Humedad	81
139357	7	Sololá	701	Sololá	2	El tablón	2	Febrero	2023-02-26T00:00:00	2024-11-06T20:00:00	6	Velocidad del viento	0
139358	7	Sololá	701	Sololá	2	El tablón	2	Febrero	2023-02-26T00:00:00	2024-11-06T20:00:00	7	Dirección del viento	0
139359	7	Sololá	701	Sololá	2	El tablón	2	Febrero	2023-02-26T00:00:00	2024-11-06T20:00:00	1	Precipitación	0
139360	7	Sololá	701	Sololá	2	El tablón	2	Febrero	2023-02-26T00:00:00	2024-11-06T20:00:00	8	Radiación solar	0
139361	7	Sololá	701	Sololá	2	El tablón	2	Febrero	2023-02-26T00:00:00	2024-11-06T21:00:00	2	Temperatura media	11.1
139362	7	Sololá	701	Sololá	2	El tablón	2	Febrero	2023-02-26T00:00:00	2024-11-06T21:00:00	4	Temperatura máxima	11.9
139363	7	Sololá	701	Sololá	2	El tablón	2	Febrero	2023-02-26T00:00:00	2024-11-06T21:00:00	3	Temperatura mínima	11.1
139364	7	Sololá	701	Sololá	2	El tablón	2	Febrero	2023-02-26T00:00:00	2024-11-06T21:00:00	5	Humedad	82
139365	7	Sololá	701	Sololá	2	El tablón	2	Febrero	2023-02-26T00:00:00	2024-11-06T21:00:00	6	Velocidad del viento	1.6
139366	7	Sololá	701	Sololá	2	El tablón	2	Febrero	2023-02-26T00:00:00	2024-11-06T21:00:00	7	Dirección del viento	1.61
139367	7	Sololá	701	Sololá	2	El tablón	2	Febrero	2023-02-26T00:00:00	2024-11-06T21:00:00	1	Precipitación	0
139368	7	Sololá	701	Sololá	2	El tablón	2	Febrero	2023-02-26T00:00:00	2024-11-06T21:00:00	8	Radiación solar	0
139369	7	Sololá	701	Sololá	2	El tablón	2	Febrero	2023-02-26T00:00:00	2024-11-06T22:00:00	2	Temperatura media	10.5
139370	7	Sololá	701	Sololá	2	El tablón	2	Febrero	2023-02-26T00:00:00	2024-11-06T22:00:00	4	Temperatura máxima	11.1
139371	7	Sololá	701	Sololá	2	El tablón	2	Febrero	2023-02-26T00:00:00	2024-11-06T22:00:00	3	Temperatura mínima	10.5
139372	7	Sololá	701	Sololá	2	El tablón	2	Febrero	2023-02-26T00:00:00	2024-11-06T22:00:00	5	Humedad	84
139373	7	Sololá	701	Sololá	2	El tablón	2	Febrero	2023-02-26T00:00:00	2024-11-06T22:00:00	6	Velocidad del viento	3.2
139374	7	Sololá	701	Sololá	2	El tablón	2	Febrero	2023-02-26T00:00:00	2024-11-06T22:00:00	7	Dirección del viento	3.22
139375	7	Sololá	701	Sololá	2	El tablón	2	Febrero	2023-02-26T00:00:00	2024-11-06T22:00:00	1	Precipitación	0
139376	7	Sololá	701	Sololá	2	El tablón	2	Febrero	2023-02-26T00:00:00	2024-11-06T22:00:00	8	Radiación solar	0
139377	7	Sololá	701	Sololá	2	El tablón	2	Febrero	2023-02-26T00:00:00	2024-11-06T23:00:00	2	Temperatura media	9.1
139378	7	Sololá	701	Sololá	2	El tablón	2	Febrero	2023-02-26T00:00:00	2024-11-06T23:00:00	4	Temperatura máxima	10.5
139379	7	Sololá	701	Sololá	2	El tablón	2	Febrero	2023-02-26T00:00:00	2024-11-06T23:00:00	3	Temperatura mínima	8.9
139380	7	Sololá	701	Sololá	2	El tablón	2	Febrero	2023-02-26T00:00:00	2024-11-06T23:00:00	5	Humedad	85
139381	7	Sololá	701	Sololá	2	El tablón	2	Febrero	2023-02-26T00:00:00	2024-11-06T23:00:00	6	Velocidad del viento	1.6
139382	7	Sololá	701	Sololá	2	El tablón	2	Febrero	2023-02-26T00:00:00	2024-11-06T23:00:00	7	Dirección del viento	1.61
139383	7	Sololá	701	Sololá	2	El tablón	2	Febrero	2023-02-26T00:00:00	2024-11-06T23:00:00	1	Precipitación	0
139384	7	Sololá	701	Sololá	2	El tablón	2	Febrero	2023-02-26T00:00:00	2024-11-06T23:00:00	8	Radiación solar	0
139385	7	Sololá	701	Sololá	2	El tablón	2	Febrero	2023-02-27T00:00:00	2024-11-06T00:00:00	2	Temperatura media	8.4
139386	7	Sololá	701	Sololá	2	El tablón	2	Febrero	2023-02-27T00:00:00	2024-11-06T00:00:00	4	Temperatura máxima	9.1
139387	7	Sololá	701	Sololá	2	El tablón	2	Febrero	2023-02-27T00:00:00	2024-11-06T00:00:00	3	Temperatura mínima	8.4
139388	7	Sololá	701	Sololá	2	El tablón	2	Febrero	2023-02-27T00:00:00	2024-11-06T00:00:00	5	Humedad	85
139389	7	Sololá	701	Sololá	2	El tablón	2	Febrero	2023-02-27T00:00:00	2024-11-06T00:00:00	6	Velocidad del viento	1.6
139390	7	Sololá	701	Sololá	2	El tablón	2	Febrero	2023-02-27T00:00:00	2024-11-06T00:00:00	7	Dirección del viento	1.61
139391	7	Sololá	701	Sololá	2	El tablón	2	Febrero	2023-02-27T00:00:00	2024-11-06T00:00:00	1	Precipitación	0
139392	7	Sololá	701	Sololá	2	El tablón	2	Febrero	2023-02-27T00:00:00	2024-11-06T00:00:00	8	Radiación solar	0
139393	7	Sololá	701	Sololá	2	El tablón	2	Febrero	2023-02-27T00:00:00	2024-11-06T01:00:00	2	Temperatura media	7.6
139394	7	Sololá	701	Sololá	2	El tablón	2	Febrero	2023-02-27T00:00:00	2024-11-06T01:00:00	4	Temperatura máxima	8.5
139395	7	Sololá	701	Sololá	2	El tablón	2	Febrero	2023-02-27T00:00:00	2024-11-06T01:00:00	3	Temperatura mínima	7.6
139396	7	Sololá	701	Sololá	2	El tablón	2	Febrero	2023-02-27T00:00:00	2024-11-06T01:00:00	5	Humedad	84
139397	7	Sololá	701	Sololá	2	El tablón	2	Febrero	2023-02-27T00:00:00	2024-11-06T01:00:00	6	Velocidad del viento	3.2
139398	7	Sololá	701	Sololá	2	El tablón	2	Febrero	2023-02-27T00:00:00	2024-11-06T01:00:00	7	Dirección del viento	3.22
139399	7	Sololá	701	Sololá	2	El tablón	2	Febrero	2023-02-27T00:00:00	2024-11-06T01:00:00	1	Precipitación	0
139400	7	Sololá	701	Sololá	2	El tablón	2	Febrero	2023-02-27T00:00:00	2024-11-06T01:00:00	8	Radiación solar	0
139401	7	Sololá	701	Sololá	2	El tablón	2	Febrero	2023-02-27T00:00:00	2024-11-06T02:00:00	2	Temperatura media	7.9
139402	7	Sololá	701	Sololá	2	El tablón	2	Febrero	2023-02-27T00:00:00	2024-11-06T02:00:00	4	Temperatura máxima	8.2
139403	7	Sololá	701	Sololá	2	El tablón	2	Febrero	2023-02-27T00:00:00	2024-11-06T02:00:00	3	Temperatura mínima	7.6
139404	7	Sololá	701	Sololá	2	El tablón	2	Febrero	2023-02-27T00:00:00	2024-11-06T02:00:00	5	Humedad	82
139405	7	Sololá	701	Sololá	2	El tablón	2	Febrero	2023-02-27T00:00:00	2024-11-06T02:00:00	6	Velocidad del viento	4.8
139406	7	Sololá	701	Sololá	2	El tablón	2	Febrero	2023-02-27T00:00:00	2024-11-06T02:00:00	7	Dirección del viento	4.83
139407	7	Sololá	701	Sololá	2	El tablón	2	Febrero	2023-02-27T00:00:00	2024-11-06T02:00:00	1	Precipitación	0
139408	7	Sololá	701	Sololá	2	El tablón	2	Febrero	2023-02-27T00:00:00	2024-11-06T02:00:00	8	Radiación solar	0
139409	7	Sololá	701	Sololá	2	El tablón	2	Febrero	2023-02-27T00:00:00	2024-11-06T03:00:00	2	Temperatura media	7.9
139410	7	Sololá	701	Sololá	2	El tablón	2	Febrero	2023-02-27T00:00:00	2024-11-06T03:00:00	4	Temperatura máxima	8.3
139411	7	Sololá	701	Sololá	2	El tablón	2	Febrero	2023-02-27T00:00:00	2024-11-06T03:00:00	3	Temperatura mínima	7.8
139412	7	Sololá	701	Sololá	2	El tablón	2	Febrero	2023-02-27T00:00:00	2024-11-06T03:00:00	5	Humedad	81
139413	7	Sololá	701	Sololá	2	El tablón	2	Febrero	2023-02-27T00:00:00	2024-11-06T03:00:00	6	Velocidad del viento	3.2
139414	7	Sololá	701	Sololá	2	El tablón	2	Febrero	2023-02-27T00:00:00	2024-11-06T03:00:00	7	Dirección del viento	3.22
139415	7	Sololá	701	Sololá	2	El tablón	2	Febrero	2023-02-27T00:00:00	2024-11-06T03:00:00	1	Precipitación	0
139416	7	Sololá	701	Sololá	2	El tablón	2	Febrero	2023-02-27T00:00:00	2024-11-06T03:00:00	8	Radiación solar	0
139417	7	Sololá	701	Sololá	2	El tablón	2	Febrero	2023-02-27T00:00:00	2024-11-06T04:00:00	2	Temperatura media	7.2
139418	7	Sololá	701	Sololá	2	El tablón	2	Febrero	2023-02-27T00:00:00	2024-11-06T04:00:00	4	Temperatura máxima	8
139419	7	Sololá	701	Sololá	2	El tablón	2	Febrero	2023-02-27T00:00:00	2024-11-06T04:00:00	3	Temperatura mínima	7.2
139420	7	Sololá	701	Sololá	2	El tablón	2	Febrero	2023-02-27T00:00:00	2024-11-06T04:00:00	5	Humedad	83
139421	7	Sololá	701	Sololá	2	El tablón	2	Febrero	2023-02-27T00:00:00	2024-11-06T04:00:00	6	Velocidad del viento	3.2
139422	7	Sololá	701	Sololá	2	El tablón	2	Febrero	2023-02-27T00:00:00	2024-11-06T04:00:00	7	Dirección del viento	3.22
139423	7	Sololá	701	Sololá	2	El tablón	2	Febrero	2023-02-27T00:00:00	2024-11-06T04:00:00	1	Precipitación	0
139424	7	Sololá	701	Sololá	2	El tablón	2	Febrero	2023-02-27T00:00:00	2024-11-06T04:00:00	8	Radiación solar	0
139425	7	Sololá	701	Sololá	2	El tablón	2	Febrero	2023-02-27T00:00:00	2024-11-06T05:00:00	2	Temperatura media	7.4
139426	7	Sololá	701	Sololá	2	El tablón	2	Febrero	2023-02-27T00:00:00	2024-11-06T05:00:00	4	Temperatura máxima	7.7
139427	7	Sololá	701	Sololá	2	El tablón	2	Febrero	2023-02-27T00:00:00	2024-11-06T05:00:00	3	Temperatura mínima	6.9
139428	7	Sololá	701	Sololá	2	El tablón	2	Febrero	2023-02-27T00:00:00	2024-11-06T05:00:00	5	Humedad	82
139429	7	Sololá	701	Sololá	2	El tablón	2	Febrero	2023-02-27T00:00:00	2024-11-06T05:00:00	6	Velocidad del viento	3.2
139430	7	Sololá	701	Sololá	2	El tablón	2	Febrero	2023-02-27T00:00:00	2024-11-06T05:00:00	7	Dirección del viento	3.22
139431	7	Sololá	701	Sololá	2	El tablón	2	Febrero	2023-02-27T00:00:00	2024-11-06T05:00:00	1	Precipitación	0
139432	7	Sololá	701	Sololá	2	El tablón	2	Febrero	2023-02-27T00:00:00	2024-11-06T05:00:00	8	Radiación solar	0
139433	7	Sololá	701	Sololá	2	El tablón	2	Febrero	2023-02-27T00:00:00	2024-11-06T06:00:00	2	Temperatura media	7.6
139434	7	Sololá	701	Sololá	2	El tablón	2	Febrero	2023-02-27T00:00:00	2024-11-06T06:00:00	4	Temperatura máxima	7.6
139435	7	Sololá	701	Sololá	2	El tablón	2	Febrero	2023-02-27T00:00:00	2024-11-06T06:00:00	3	Temperatura mínima	7.3
139436	7	Sololá	701	Sololá	2	El tablón	2	Febrero	2023-02-27T00:00:00	2024-11-06T06:00:00	5	Humedad	83
139437	7	Sololá	701	Sololá	2	El tablón	2	Febrero	2023-02-27T00:00:00	2024-11-06T06:00:00	6	Velocidad del viento	3.2
139438	7	Sololá	701	Sololá	2	El tablón	2	Febrero	2023-02-27T00:00:00	2024-11-06T06:00:00	7	Dirección del viento	3.22
139439	7	Sololá	701	Sololá	2	El tablón	2	Febrero	2023-02-27T00:00:00	2024-11-06T06:00:00	1	Precipitación	0
139440	7	Sololá	701	Sololá	2	El tablón	2	Febrero	2023-02-27T00:00:00	2024-11-06T06:00:00	8	Radiación solar	0
139441	7	Sololá	701	Sololá	2	El tablón	2	Febrero	2023-02-27T00:00:00	2024-11-06T07:00:00	2	Temperatura media	7.9
139442	7	Sololá	701	Sololá	2	El tablón	2	Febrero	2023-02-27T00:00:00	2024-11-06T07:00:00	4	Temperatura máxima	7.9
139443	7	Sololá	701	Sololá	2	El tablón	2	Febrero	2023-02-27T00:00:00	2024-11-06T07:00:00	3	Temperatura mínima	6.2
139444	7	Sololá	701	Sololá	2	El tablón	2	Febrero	2023-02-27T00:00:00	2024-11-06T07:00:00	5	Humedad	82
139445	7	Sololá	701	Sololá	2	El tablón	2	Febrero	2023-02-27T00:00:00	2024-11-06T07:00:00	6	Velocidad del viento	3.2
139446	7	Sololá	701	Sololá	2	El tablón	2	Febrero	2023-02-27T00:00:00	2024-11-06T07:00:00	7	Dirección del viento	3.22
139447	7	Sololá	701	Sololá	2	El tablón	2	Febrero	2023-02-27T00:00:00	2024-11-06T07:00:00	1	Precipitación	0
139448	7	Sololá	701	Sololá	2	El tablón	2	Febrero	2023-02-27T00:00:00	2024-11-06T07:00:00	8	Radiación solar	12
139449	7	Sololá	701	Sololá	2	El tablón	2	Febrero	2023-02-27T00:00:00	2024-11-06T08:00:00	2	Temperatura media	10.8
139450	7	Sololá	701	Sololá	2	El tablón	2	Febrero	2023-02-27T00:00:00	2024-11-06T08:00:00	4	Temperatura máxima	10.8
139451	7	Sololá	701	Sololá	2	El tablón	2	Febrero	2023-02-27T00:00:00	2024-11-06T08:00:00	3	Temperatura mínima	7.9
139452	7	Sololá	701	Sololá	2	El tablón	2	Febrero	2023-02-27T00:00:00	2024-11-06T08:00:00	5	Humedad	79
139453	7	Sololá	701	Sololá	2	El tablón	2	Febrero	2023-02-27T00:00:00	2024-11-06T08:00:00	6	Velocidad del viento	3.2
139454	7	Sololá	701	Sololá	2	El tablón	2	Febrero	2023-02-27T00:00:00	2024-11-06T08:00:00	7	Dirección del viento	3.22
139455	7	Sololá	701	Sololá	2	El tablón	2	Febrero	2023-02-27T00:00:00	2024-11-06T08:00:00	1	Precipitación	0
139456	7	Sololá	701	Sololá	2	El tablón	2	Febrero	2023-02-27T00:00:00	2024-11-06T08:00:00	8	Radiación solar	145
139457	7	Sololá	701	Sololá	2	El tablón	2	Febrero	2023-02-27T00:00:00	2024-11-06T09:00:00	2	Temperatura media	13.9
139458	7	Sololá	701	Sololá	2	El tablón	2	Febrero	2023-02-27T00:00:00	2024-11-06T09:00:00	4	Temperatura máxima	13.9
139459	7	Sololá	701	Sololá	2	El tablón	2	Febrero	2023-02-27T00:00:00	2024-11-06T09:00:00	3	Temperatura mínima	10.7
139460	7	Sololá	701	Sololá	2	El tablón	2	Febrero	2023-02-27T00:00:00	2024-11-06T09:00:00	5	Humedad	71
139461	7	Sololá	701	Sololá	2	El tablón	2	Febrero	2023-02-27T00:00:00	2024-11-06T09:00:00	6	Velocidad del viento	3.2
139462	7	Sololá	701	Sololá	2	El tablón	2	Febrero	2023-02-27T00:00:00	2024-11-06T09:00:00	7	Dirección del viento	3.22
139463	7	Sololá	701	Sololá	2	El tablón	2	Febrero	2023-02-27T00:00:00	2024-11-06T09:00:00	1	Precipitación	0
139464	7	Sololá	701	Sololá	2	El tablón	2	Febrero	2023-02-27T00:00:00	2024-11-06T09:00:00	8	Radiación solar	406
139465	7	Sololá	701	Sololá	2	El tablón	2	Febrero	2023-02-27T00:00:00	2024-11-06T10:00:00	2	Temperatura media	15.8
139466	7	Sololá	701	Sololá	2	El tablón	2	Febrero	2023-02-27T00:00:00	2024-11-06T10:00:00	4	Temperatura máxima	15.8
139467	7	Sololá	701	Sololá	2	El tablón	2	Febrero	2023-02-27T00:00:00	2024-11-06T10:00:00	3	Temperatura mínima	13.9
139468	7	Sololá	701	Sololá	2	El tablón	2	Febrero	2023-02-27T00:00:00	2024-11-06T10:00:00	5	Humedad	70
139469	7	Sololá	701	Sololá	2	El tablón	2	Febrero	2023-02-27T00:00:00	2024-11-06T10:00:00	6	Velocidad del viento	3.2
139470	7	Sololá	701	Sololá	2	El tablón	2	Febrero	2023-02-27T00:00:00	2024-11-06T10:00:00	7	Dirección del viento	3.22
139471	7	Sololá	701	Sololá	2	El tablón	2	Febrero	2023-02-27T00:00:00	2024-11-06T10:00:00	1	Precipitación	0
139472	7	Sololá	701	Sololá	2	El tablón	2	Febrero	2023-02-27T00:00:00	2024-11-06T10:00:00	8	Radiación solar	616
139473	7	Sololá	701	Sololá	2	El tablón	2	Febrero	2023-02-27T00:00:00	2024-11-06T11:00:00	2	Temperatura media	17.5
139474	7	Sololá	701	Sololá	2	El tablón	2	Febrero	2023-02-27T00:00:00	2024-11-06T11:00:00	4	Temperatura máxima	17.6
139475	7	Sololá	701	Sololá	2	El tablón	2	Febrero	2023-02-27T00:00:00	2024-11-06T11:00:00	3	Temperatura mínima	15.8
139476	7	Sololá	701	Sololá	2	El tablón	2	Febrero	2023-02-27T00:00:00	2024-11-06T11:00:00	5	Humedad	49
139477	7	Sololá	701	Sololá	2	El tablón	2	Febrero	2023-02-27T00:00:00	2024-11-06T11:00:00	6	Velocidad del viento	6.4
139478	7	Sololá	701	Sololá	2	El tablón	2	Febrero	2023-02-27T00:00:00	2024-11-06T11:00:00	7	Dirección del viento	6.44
139479	7	Sololá	701	Sololá	2	El tablón	2	Febrero	2023-02-27T00:00:00	2024-11-06T11:00:00	1	Precipitación	0
139480	7	Sololá	701	Sololá	2	El tablón	2	Febrero	2023-02-27T00:00:00	2024-11-06T11:00:00	8	Radiación solar	795
139481	7	Sololá	701	Sololá	2	El tablón	2	Febrero	2023-02-27T00:00:00	2024-11-06T12:00:00	2	Temperatura media	17.6
139482	7	Sololá	701	Sololá	2	El tablón	2	Febrero	2023-02-27T00:00:00	2024-11-06T12:00:00	4	Temperatura máxima	17.8
139483	7	Sololá	701	Sololá	2	El tablón	2	Febrero	2023-02-27T00:00:00	2024-11-06T12:00:00	3	Temperatura mínima	17.1
139484	7	Sololá	701	Sololá	2	El tablón	2	Febrero	2023-02-27T00:00:00	2024-11-06T12:00:00	5	Humedad	53
139485	7	Sololá	701	Sololá	2	El tablón	2	Febrero	2023-02-27T00:00:00	2024-11-06T12:00:00	6	Velocidad del viento	8
139486	7	Sololá	701	Sololá	2	El tablón	2	Febrero	2023-02-27T00:00:00	2024-11-06T12:00:00	7	Dirección del viento	8.05
139487	7	Sololá	701	Sololá	2	El tablón	2	Febrero	2023-02-27T00:00:00	2024-11-06T12:00:00	1	Precipitación	0
139488	7	Sololá	701	Sololá	2	El tablón	2	Febrero	2023-02-27T00:00:00	2024-11-06T12:00:00	8	Radiación solar	843
139489	7	Sololá	701	Sololá	2	El tablón	2	Febrero	2023-02-27T00:00:00	2024-11-06T13:00:00	2	Temperatura media	17.6
139490	7	Sololá	701	Sololá	2	El tablón	2	Febrero	2023-02-27T00:00:00	2024-11-06T13:00:00	4	Temperatura máxima	17.8
139491	7	Sololá	701	Sololá	2	El tablón	2	Febrero	2023-02-27T00:00:00	2024-11-06T13:00:00	3	Temperatura mínima	17
139492	7	Sololá	701	Sololá	2	El tablón	2	Febrero	2023-02-27T00:00:00	2024-11-06T13:00:00	5	Humedad	61
139493	7	Sololá	701	Sololá	2	El tablón	2	Febrero	2023-02-27T00:00:00	2024-11-06T13:00:00	6	Velocidad del viento	8
139494	7	Sololá	701	Sololá	2	El tablón	2	Febrero	2023-02-27T00:00:00	2024-11-06T13:00:00	7	Dirección del viento	8.05
139495	7	Sololá	701	Sololá	2	El tablón	2	Febrero	2023-02-27T00:00:00	2024-11-06T13:00:00	1	Precipitación	0
139496	7	Sololá	701	Sololá	2	El tablón	2	Febrero	2023-02-27T00:00:00	2024-11-06T13:00:00	8	Radiación solar	898
139497	7	Sololá	701	Sololá	2	El tablón	2	Febrero	2023-02-27T00:00:00	2024-11-06T14:00:00	2	Temperatura media	17.1
139498	7	Sololá	701	Sololá	2	El tablón	2	Febrero	2023-02-27T00:00:00	2024-11-06T14:00:00	4	Temperatura máxima	17.7
139499	7	Sololá	701	Sololá	2	El tablón	2	Febrero	2023-02-27T00:00:00	2024-11-06T14:00:00	3	Temperatura mínima	17
139500	7	Sololá	701	Sololá	2	El tablón	2	Febrero	2023-02-27T00:00:00	2024-11-06T14:00:00	5	Humedad	73
139501	7	Sololá	701	Sololá	2	El tablón	2	Febrero	2023-02-27T00:00:00	2024-11-06T14:00:00	6	Velocidad del viento	9.7
139502	7	Sololá	701	Sololá	2	El tablón	2	Febrero	2023-02-27T00:00:00	2024-11-06T14:00:00	7	Dirección del viento	9.66
139503	7	Sololá	701	Sololá	2	El tablón	2	Febrero	2023-02-27T00:00:00	2024-11-06T14:00:00	1	Precipitación	0
139504	7	Sololá	701	Sololá	2	El tablón	2	Febrero	2023-02-27T00:00:00	2024-11-06T14:00:00	8	Radiación solar	871
139505	7	Sololá	701	Sololá	2	El tablón	2	Febrero	2023-02-27T00:00:00	2024-11-06T15:00:00	2	Temperatura media	16.9
139506	7	Sololá	701	Sololá	2	El tablón	2	Febrero	2023-02-27T00:00:00	2024-11-06T15:00:00	4	Temperatura máxima	17.6
139507	7	Sololá	701	Sololá	2	El tablón	2	Febrero	2023-02-27T00:00:00	2024-11-06T15:00:00	3	Temperatura mínima	16.7
139508	7	Sololá	701	Sololá	2	El tablón	2	Febrero	2023-02-27T00:00:00	2024-11-06T15:00:00	5	Humedad	77
139509	7	Sololá	701	Sololá	2	El tablón	2	Febrero	2023-02-27T00:00:00	2024-11-06T15:00:00	6	Velocidad del viento	9.7
139510	7	Sololá	701	Sololá	2	El tablón	2	Febrero	2023-02-27T00:00:00	2024-11-06T15:00:00	7	Dirección del viento	9.66
139511	7	Sololá	701	Sololá	2	El tablón	2	Febrero	2023-02-27T00:00:00	2024-11-06T15:00:00	1	Precipitación	0
139512	7	Sololá	701	Sololá	2	El tablón	2	Febrero	2023-02-27T00:00:00	2024-11-06T15:00:00	8	Radiación solar	763
139513	7	Sololá	701	Sololá	2	El tablón	2	Febrero	2023-02-27T00:00:00	2024-11-06T16:00:00	2	Temperatura media	16.6
139514	7	Sololá	701	Sololá	2	El tablón	2	Febrero	2023-02-27T00:00:00	2024-11-06T16:00:00	4	Temperatura máxima	17.5
139515	7	Sololá	701	Sololá	2	El tablón	2	Febrero	2023-02-27T00:00:00	2024-11-06T16:00:00	3	Temperatura mínima	16.6
139516	7	Sololá	701	Sololá	2	El tablón	2	Febrero	2023-02-27T00:00:00	2024-11-06T16:00:00	5	Humedad	80
139517	7	Sololá	701	Sololá	2	El tablón	2	Febrero	2023-02-27T00:00:00	2024-11-06T16:00:00	6	Velocidad del viento	8
139518	7	Sololá	701	Sololá	2	El tablón	2	Febrero	2023-02-27T00:00:00	2024-11-06T16:00:00	7	Dirección del viento	8.05
139519	7	Sololá	701	Sololá	2	El tablón	2	Febrero	2023-02-27T00:00:00	2024-11-06T16:00:00	1	Precipitación	0
139520	7	Sololá	701	Sololá	2	El tablón	2	Febrero	2023-02-27T00:00:00	2024-11-06T16:00:00	8	Radiación solar	631
139521	7	Sololá	701	Sololá	2	El tablón	2	Febrero	2023-02-27T00:00:00	2024-11-06T17:00:00	2	Temperatura media	14.6
139522	7	Sololá	701	Sololá	2	El tablón	2	Febrero	2023-02-27T00:00:00	2024-11-06T17:00:00	4	Temperatura máxima	16.8
139523	7	Sololá	701	Sololá	2	El tablón	2	Febrero	2023-02-27T00:00:00	2024-11-06T17:00:00	3	Temperatura mínima	14.6
139524	7	Sololá	701	Sololá	2	El tablón	2	Febrero	2023-02-27T00:00:00	2024-11-06T17:00:00	5	Humedad	87
139525	7	Sololá	701	Sololá	2	El tablón	2	Febrero	2023-02-27T00:00:00	2024-11-06T17:00:00	6	Velocidad del viento	8
139526	7	Sololá	701	Sololá	2	El tablón	2	Febrero	2023-02-27T00:00:00	2024-11-06T17:00:00	7	Dirección del viento	8.05
139527	7	Sololá	701	Sololá	2	El tablón	2	Febrero	2023-02-27T00:00:00	2024-11-06T17:00:00	1	Precipitación	0
139528	7	Sololá	701	Sololá	2	El tablón	2	Febrero	2023-02-27T00:00:00	2024-11-06T17:00:00	8	Radiación solar	275
139529	7	Sololá	701	Sololá	2	El tablón	2	Febrero	2023-02-27T00:00:00	2024-11-06T18:00:00	2	Temperatura media	13.7
139530	7	Sololá	701	Sololá	2	El tablón	2	Febrero	2023-02-27T00:00:00	2024-11-06T18:00:00	4	Temperatura máxima	14.5
139531	7	Sololá	701	Sololá	2	El tablón	2	Febrero	2023-02-27T00:00:00	2024-11-06T18:00:00	3	Temperatura mínima	13.7
139532	7	Sololá	701	Sololá	2	El tablón	2	Febrero	2023-02-27T00:00:00	2024-11-06T18:00:00	5	Humedad	88
139533	7	Sololá	701	Sololá	2	El tablón	2	Febrero	2023-02-27T00:00:00	2024-11-06T18:00:00	6	Velocidad del viento	4.8
139534	7	Sololá	701	Sololá	2	El tablón	2	Febrero	2023-02-27T00:00:00	2024-11-06T18:00:00	7	Dirección del viento	4.83
139535	7	Sololá	701	Sololá	2	El tablón	2	Febrero	2023-02-27T00:00:00	2024-11-06T18:00:00	1	Precipitación	0
139536	7	Sololá	701	Sololá	2	El tablón	2	Febrero	2023-02-27T00:00:00	2024-11-06T18:00:00	8	Radiación solar	17
139537	7	Sololá	701	Sololá	2	El tablón	2	Febrero	2023-02-27T00:00:00	2024-11-06T19:00:00	2	Temperatura media	13.7
139538	7	Sololá	701	Sololá	2	El tablón	2	Febrero	2023-02-27T00:00:00	2024-11-06T19:00:00	4	Temperatura máxima	14.2
139539	7	Sololá	701	Sololá	2	El tablón	2	Febrero	2023-02-27T00:00:00	2024-11-06T19:00:00	3	Temperatura mínima	13.7
139540	7	Sololá	701	Sololá	2	El tablón	2	Febrero	2023-02-27T00:00:00	2024-11-06T19:00:00	5	Humedad	87
139541	7	Sololá	701	Sololá	2	El tablón	2	Febrero	2023-02-27T00:00:00	2024-11-06T19:00:00	6	Velocidad del viento	1.6
139542	7	Sololá	701	Sololá	2	El tablón	2	Febrero	2023-02-27T00:00:00	2024-11-06T19:00:00	7	Dirección del viento	1.61
139543	7	Sololá	701	Sololá	2	El tablón	2	Febrero	2023-02-27T00:00:00	2024-11-06T19:00:00	1	Precipitación	0
139544	7	Sololá	701	Sololá	2	El tablón	2	Febrero	2023-02-27T00:00:00	2024-11-06T19:00:00	8	Radiación solar	0
139545	7	Sololá	701	Sololá	2	El tablón	2	Febrero	2023-02-27T00:00:00	2024-11-06T20:00:00	2	Temperatura media	13
139546	7	Sololá	701	Sololá	2	El tablón	2	Febrero	2023-02-27T00:00:00	2024-11-06T20:00:00	4	Temperatura máxima	13.8
139547	7	Sololá	701	Sololá	2	El tablón	2	Febrero	2023-02-27T00:00:00	2024-11-06T20:00:00	3	Temperatura mínima	13
139548	7	Sololá	701	Sololá	2	El tablón	2	Febrero	2023-02-27T00:00:00	2024-11-06T20:00:00	5	Humedad	88
139549	7	Sololá	701	Sololá	2	El tablón	2	Febrero	2023-02-27T00:00:00	2024-11-06T20:00:00	6	Velocidad del viento	0
139550	7	Sololá	701	Sololá	2	El tablón	2	Febrero	2023-02-27T00:00:00	2024-11-06T20:00:00	7	Dirección del viento	0
139551	7	Sololá	701	Sololá	2	El tablón	2	Febrero	2023-02-27T00:00:00	2024-11-06T20:00:00	1	Precipitación	0
139552	7	Sololá	701	Sololá	2	El tablón	2	Febrero	2023-02-27T00:00:00	2024-11-06T20:00:00	8	Radiación solar	0
139553	7	Sololá	701	Sololá	2	El tablón	2	Febrero	2023-02-27T00:00:00	2024-11-06T21:00:00	2	Temperatura media	11.4
139554	7	Sololá	701	Sololá	2	El tablón	2	Febrero	2023-02-27T00:00:00	2024-11-06T21:00:00	4	Temperatura máxima	13
139555	7	Sololá	701	Sololá	2	El tablón	2	Febrero	2023-02-27T00:00:00	2024-11-06T21:00:00	3	Temperatura mínima	11.3
139556	7	Sololá	701	Sololá	2	El tablón	2	Febrero	2023-02-27T00:00:00	2024-11-06T21:00:00	5	Humedad	88
139557	7	Sololá	701	Sololá	2	El tablón	2	Febrero	2023-02-27T00:00:00	2024-11-06T21:00:00	6	Velocidad del viento	1.6
139558	7	Sololá	701	Sololá	2	El tablón	2	Febrero	2023-02-27T00:00:00	2024-11-06T21:00:00	7	Dirección del viento	1.61
139559	7	Sololá	701	Sololá	2	El tablón	2	Febrero	2023-02-27T00:00:00	2024-11-06T21:00:00	1	Precipitación	0
139560	7	Sololá	701	Sololá	2	El tablón	2	Febrero	2023-02-27T00:00:00	2024-11-06T21:00:00	8	Radiación solar	0
139561	7	Sololá	701	Sololá	2	El tablón	2	Febrero	2023-02-27T00:00:00	2024-11-06T22:00:00	2	Temperatura media	13.1
139562	7	Sololá	701	Sololá	2	El tablón	2	Febrero	2023-02-27T00:00:00	2024-11-06T22:00:00	4	Temperatura máxima	13.2
139563	7	Sololá	701	Sololá	2	El tablón	2	Febrero	2023-02-27T00:00:00	2024-11-06T22:00:00	3	Temperatura mínima	11.2
139564	7	Sololá	701	Sololá	2	El tablón	2	Febrero	2023-02-27T00:00:00	2024-11-06T22:00:00	5	Humedad	82
139565	7	Sololá	701	Sololá	2	El tablón	2	Febrero	2023-02-27T00:00:00	2024-11-06T22:00:00	6	Velocidad del viento	3.2
139566	7	Sololá	701	Sololá	2	El tablón	2	Febrero	2023-02-27T00:00:00	2024-11-06T22:00:00	7	Dirección del viento	3.22
139567	7	Sololá	701	Sololá	2	El tablón	2	Febrero	2023-02-27T00:00:00	2024-11-06T22:00:00	1	Precipitación	0
139568	7	Sololá	701	Sololá	2	El tablón	2	Febrero	2023-02-27T00:00:00	2024-11-06T22:00:00	8	Radiación solar	0
139569	7	Sololá	701	Sololá	2	El tablón	2	Febrero	2023-02-27T00:00:00	2024-11-06T23:00:00	2	Temperatura media	12.1
139570	7	Sololá	701	Sololá	2	El tablón	2	Febrero	2023-02-27T00:00:00	2024-11-06T23:00:00	4	Temperatura máxima	13.1
139571	7	Sololá	701	Sololá	2	El tablón	2	Febrero	2023-02-27T00:00:00	2024-11-06T23:00:00	3	Temperatura mínima	12.1
139572	7	Sololá	701	Sololá	2	El tablón	2	Febrero	2023-02-27T00:00:00	2024-11-06T23:00:00	5	Humedad	84
139573	7	Sololá	701	Sololá	2	El tablón	2	Febrero	2023-02-27T00:00:00	2024-11-06T23:00:00	6	Velocidad del viento	3.2
139574	7	Sololá	701	Sololá	2	El tablón	2	Febrero	2023-02-27T00:00:00	2024-11-06T23:00:00	7	Dirección del viento	3.22
139575	7	Sololá	701	Sololá	2	El tablón	2	Febrero	2023-02-27T00:00:00	2024-11-06T23:00:00	1	Precipitación	0
139576	7	Sololá	701	Sololá	2	El tablón	2	Febrero	2023-02-27T00:00:00	2024-11-06T23:00:00	8	Radiación solar	0
139577	7	Sololá	701	Sololá	2	El tablón	2	Febrero	2023-02-28T00:00:00	2024-11-06T00:00:00	2	Temperatura media	9.9
139578	7	Sololá	701	Sololá	2	El tablón	2	Febrero	2023-02-28T00:00:00	2024-11-06T00:00:00	4	Temperatura máxima	12.2
139579	7	Sololá	701	Sololá	2	El tablón	2	Febrero	2023-02-28T00:00:00	2024-11-06T00:00:00	3	Temperatura mínima	9.8
139580	7	Sololá	701	Sololá	2	El tablón	2	Febrero	2023-02-28T00:00:00	2024-11-06T00:00:00	5	Humedad	88
139581	7	Sololá	701	Sololá	2	El tablón	2	Febrero	2023-02-28T00:00:00	2024-11-06T00:00:00	6	Velocidad del viento	3.2
139582	7	Sololá	701	Sololá	2	El tablón	2	Febrero	2023-02-28T00:00:00	2024-11-06T00:00:00	7	Dirección del viento	3.22
139583	7	Sololá	701	Sololá	2	El tablón	2	Febrero	2023-02-28T00:00:00	2024-11-06T00:00:00	1	Precipitación	0
139584	7	Sololá	701	Sololá	2	El tablón	2	Febrero	2023-02-28T00:00:00	2024-11-06T00:00:00	8	Radiación solar	0
139585	7	Sololá	701	Sololá	2	El tablón	2	Febrero	2023-02-28T00:00:00	2024-11-06T01:00:00	2	Temperatura media	10.3
139586	7	Sololá	701	Sololá	2	El tablón	2	Febrero	2023-02-28T00:00:00	2024-11-06T01:00:00	4	Temperatura máxima	10.4
139587	7	Sololá	701	Sololá	2	El tablón	2	Febrero	2023-02-28T00:00:00	2024-11-06T01:00:00	3	Temperatura mínima	9.9
139588	7	Sololá	701	Sololá	2	El tablón	2	Febrero	2023-02-28T00:00:00	2024-11-06T01:00:00	5	Humedad	86
139589	7	Sololá	701	Sololá	2	El tablón	2	Febrero	2023-02-28T00:00:00	2024-11-06T01:00:00	6	Velocidad del viento	3.2
139590	7	Sololá	701	Sololá	2	El tablón	2	Febrero	2023-02-28T00:00:00	2024-11-06T01:00:00	7	Dirección del viento	3.22
139591	7	Sololá	701	Sololá	2	El tablón	2	Febrero	2023-02-28T00:00:00	2024-11-06T01:00:00	1	Precipitación	0
139592	7	Sololá	701	Sololá	2	El tablón	2	Febrero	2023-02-28T00:00:00	2024-11-06T01:00:00	8	Radiación solar	0
139593	7	Sololá	701	Sololá	2	El tablón	2	Febrero	2023-02-28T00:00:00	2024-11-06T02:00:00	2	Temperatura media	10.3
139594	7	Sololá	701	Sololá	2	El tablón	2	Febrero	2023-02-28T00:00:00	2024-11-06T02:00:00	4	Temperatura máxima	10.3
139595	7	Sololá	701	Sololá	2	El tablón	2	Febrero	2023-02-28T00:00:00	2024-11-06T02:00:00	3	Temperatura mínima	9.7
139596	7	Sololá	701	Sololá	2	El tablón	2	Febrero	2023-02-28T00:00:00	2024-11-06T02:00:00	5	Humedad	83
139597	7	Sololá	701	Sololá	2	El tablón	2	Febrero	2023-02-28T00:00:00	2024-11-06T02:00:00	6	Velocidad del viento	3.2
139598	7	Sololá	701	Sololá	2	El tablón	2	Febrero	2023-02-28T00:00:00	2024-11-06T02:00:00	7	Dirección del viento	3.22
139599	7	Sololá	701	Sololá	2	El tablón	2	Febrero	2023-02-28T00:00:00	2024-11-06T02:00:00	1	Precipitación	0
139600	7	Sololá	701	Sololá	2	El tablón	2	Febrero	2023-02-28T00:00:00	2024-11-06T02:00:00	8	Radiación solar	0
139601	7	Sololá	701	Sololá	2	El tablón	2	Febrero	2023-02-28T00:00:00	2024-11-06T03:00:00	2	Temperatura media	9.1
139602	7	Sololá	701	Sololá	2	El tablón	2	Febrero	2023-02-28T00:00:00	2024-11-06T03:00:00	4	Temperatura máxima	10.4
139603	7	Sololá	701	Sololá	2	El tablón	2	Febrero	2023-02-28T00:00:00	2024-11-06T03:00:00	3	Temperatura mínima	9.1
139604	7	Sololá	701	Sololá	2	El tablón	2	Febrero	2023-02-28T00:00:00	2024-11-06T03:00:00	5	Humedad	86
139605	7	Sololá	701	Sololá	2	El tablón	2	Febrero	2023-02-28T00:00:00	2024-11-06T03:00:00	6	Velocidad del viento	3.2
139606	7	Sololá	701	Sololá	2	El tablón	2	Febrero	2023-02-28T00:00:00	2024-11-06T03:00:00	7	Dirección del viento	3.22
139607	7	Sololá	701	Sololá	2	El tablón	2	Febrero	2023-02-28T00:00:00	2024-11-06T03:00:00	1	Precipitación	0
139608	7	Sololá	701	Sololá	2	El tablón	2	Febrero	2023-02-28T00:00:00	2024-11-06T03:00:00	8	Radiación solar	0
139609	7	Sololá	701	Sololá	2	El tablón	2	Febrero	2023-02-28T00:00:00	2024-11-06T04:00:00	2	Temperatura media	8.7
139610	7	Sololá	701	Sololá	2	El tablón	2	Febrero	2023-02-28T00:00:00	2024-11-06T04:00:00	4	Temperatura máxima	9.3
139611	7	Sololá	701	Sololá	2	El tablón	2	Febrero	2023-02-28T00:00:00	2024-11-06T04:00:00	3	Temperatura mínima	8.4
139612	7	Sololá	701	Sololá	2	El tablón	2	Febrero	2023-02-28T00:00:00	2024-11-06T04:00:00	5	Humedad	85
139613	7	Sololá	701	Sololá	2	El tablón	2	Febrero	2023-02-28T00:00:00	2024-11-06T04:00:00	6	Velocidad del viento	3.2
139614	7	Sololá	701	Sololá	2	El tablón	2	Febrero	2023-02-28T00:00:00	2024-11-06T04:00:00	7	Dirección del viento	3.22
139615	7	Sololá	701	Sololá	2	El tablón	2	Febrero	2023-02-28T00:00:00	2024-11-06T04:00:00	1	Precipitación	0
139616	7	Sololá	701	Sololá	2	El tablón	2	Febrero	2023-02-28T00:00:00	2024-11-06T04:00:00	8	Radiación solar	0
139617	7	Sololá	701	Sololá	2	El tablón	2	Febrero	2023-02-28T00:00:00	2024-11-06T05:00:00	2	Temperatura media	8.3
139618	7	Sololá	701	Sololá	2	El tablón	2	Febrero	2023-02-28T00:00:00	2024-11-06T05:00:00	4	Temperatura máxima	9.2
139619	7	Sololá	701	Sololá	2	El tablón	2	Febrero	2023-02-28T00:00:00	2024-11-06T05:00:00	3	Temperatura mínima	8.3
139620	7	Sololá	701	Sololá	2	El tablón	2	Febrero	2023-02-28T00:00:00	2024-11-06T05:00:00	5	Humedad	86
139621	7	Sololá	701	Sololá	2	El tablón	2	Febrero	2023-02-28T00:00:00	2024-11-06T05:00:00	6	Velocidad del viento	3.2
139622	7	Sololá	701	Sololá	2	El tablón	2	Febrero	2023-02-28T00:00:00	2024-11-06T05:00:00	7	Dirección del viento	3.22
139623	7	Sololá	701	Sololá	2	El tablón	2	Febrero	2023-02-28T00:00:00	2024-11-06T05:00:00	1	Precipitación	0
139624	7	Sololá	701	Sololá	2	El tablón	2	Febrero	2023-02-28T00:00:00	2024-11-06T05:00:00	8	Radiación solar	0
139625	7	Sololá	701	Sololá	2	El tablón	2	Febrero	2023-02-28T00:00:00	2024-11-06T06:00:00	2	Temperatura media	7.7
139626	7	Sololá	701	Sololá	2	El tablón	2	Febrero	2023-02-28T00:00:00	2024-11-06T06:00:00	4	Temperatura máxima	8.4
139627	7	Sololá	701	Sololá	2	El tablón	2	Febrero	2023-02-28T00:00:00	2024-11-06T06:00:00	3	Temperatura mínima	7.7
139628	7	Sololá	701	Sololá	2	El tablón	2	Febrero	2023-02-28T00:00:00	2024-11-06T06:00:00	5	Humedad	83
139629	7	Sololá	701	Sololá	2	El tablón	2	Febrero	2023-02-28T00:00:00	2024-11-06T06:00:00	6	Velocidad del viento	1.6
139630	7	Sololá	701	Sololá	2	El tablón	2	Febrero	2023-02-28T00:00:00	2024-11-06T06:00:00	7	Dirección del viento	1.61
139631	7	Sololá	701	Sololá	2	El tablón	2	Febrero	2023-02-28T00:00:00	2024-11-06T06:00:00	1	Precipitación	0
139632	7	Sololá	701	Sololá	2	El tablón	2	Febrero	2023-02-28T00:00:00	2024-11-06T06:00:00	8	Radiación solar	0
139633	7	Sololá	701	Sololá	2	El tablón	2	Febrero	2023-02-28T00:00:00	2024-11-06T07:00:00	2	Temperatura media	9.8
139634	7	Sololá	701	Sololá	2	El tablón	2	Febrero	2023-02-28T00:00:00	2024-11-06T07:00:00	4	Temperatura máxima	9.8
139635	7	Sololá	701	Sololá	2	El tablón	2	Febrero	2023-02-28T00:00:00	2024-11-06T07:00:00	3	Temperatura mínima	7.6
139636	7	Sololá	701	Sololá	2	El tablón	2	Febrero	2023-02-28T00:00:00	2024-11-06T07:00:00	5	Humedad	73
139637	7	Sololá	701	Sololá	2	El tablón	2	Febrero	2023-02-28T00:00:00	2024-11-06T07:00:00	6	Velocidad del viento	1.6
139638	7	Sololá	701	Sololá	2	El tablón	2	Febrero	2023-02-28T00:00:00	2024-11-06T07:00:00	7	Dirección del viento	1.61
139639	7	Sololá	701	Sololá	2	El tablón	2	Febrero	2023-02-28T00:00:00	2024-11-06T07:00:00	1	Precipitación	0
139640	7	Sololá	701	Sololá	2	El tablón	2	Febrero	2023-02-28T00:00:00	2024-11-06T07:00:00	8	Radiación solar	12
139641	7	Sololá	701	Sololá	2	El tablón	2	Febrero	2023-02-28T00:00:00	2024-11-06T08:00:00	2	Temperatura media	12.5
139642	7	Sololá	701	Sololá	2	El tablón	2	Febrero	2023-02-28T00:00:00	2024-11-06T08:00:00	4	Temperatura máxima	12.5
139643	7	Sololá	701	Sololá	2	El tablón	2	Febrero	2023-02-28T00:00:00	2024-11-06T08:00:00	3	Temperatura mínima	9.8
139644	7	Sololá	701	Sololá	2	El tablón	2	Febrero	2023-02-28T00:00:00	2024-11-06T08:00:00	5	Humedad	63
139645	7	Sololá	701	Sololá	2	El tablón	2	Febrero	2023-02-28T00:00:00	2024-11-06T08:00:00	6	Velocidad del viento	0
139646	7	Sololá	701	Sololá	2	El tablón	2	Febrero	2023-02-28T00:00:00	2024-11-06T08:00:00	7	Dirección del viento	0
139647	7	Sololá	701	Sololá	2	El tablón	2	Febrero	2023-02-28T00:00:00	2024-11-06T08:00:00	1	Precipitación	0
139648	7	Sololá	701	Sololá	2	El tablón	2	Febrero	2023-02-28T00:00:00	2024-11-06T08:00:00	8	Radiación solar	146
139649	7	Sololá	701	Sololá	2	El tablón	2	Febrero	2023-02-28T00:00:00	2024-11-06T09:00:00	2	Temperatura media	15.9
139650	7	Sololá	701	Sololá	2	El tablón	2	Febrero	2023-02-28T00:00:00	2024-11-06T09:00:00	4	Temperatura máxima	15.9
139651	7	Sololá	701	Sololá	2	El tablón	2	Febrero	2023-02-28T00:00:00	2024-11-06T09:00:00	3	Temperatura mínima	12.5
139652	7	Sololá	701	Sololá	2	El tablón	2	Febrero	2023-02-28T00:00:00	2024-11-06T09:00:00	5	Humedad	50
139653	7	Sololá	701	Sololá	2	El tablón	2	Febrero	2023-02-28T00:00:00	2024-11-06T09:00:00	6	Velocidad del viento	1.6
139654	7	Sololá	701	Sololá	2	El tablón	2	Febrero	2023-02-28T00:00:00	2024-11-06T09:00:00	7	Dirección del viento	1.61
139655	7	Sololá	701	Sololá	2	El tablón	2	Febrero	2023-02-28T00:00:00	2024-11-06T09:00:00	1	Precipitación	0
139656	7	Sololá	701	Sololá	2	El tablón	2	Febrero	2023-02-28T00:00:00	2024-11-06T09:00:00	8	Radiación solar	417
139657	7	Sololá	701	Sololá	2	El tablón	2	Febrero	2023-02-28T00:00:00	2024-11-06T10:00:00	2	Temperatura media	17
139658	7	Sololá	701	Sololá	2	El tablón	2	Febrero	2023-02-28T00:00:00	2024-11-06T10:00:00	4	Temperatura máxima	17.6
139659	7	Sololá	701	Sololá	2	El tablón	2	Febrero	2023-02-28T00:00:00	2024-11-06T10:00:00	3	Temperatura mínima	15.9
139660	7	Sololá	701	Sololá	2	El tablón	2	Febrero	2023-02-28T00:00:00	2024-11-06T10:00:00	5	Humedad	71
139661	7	Sololá	701	Sololá	2	El tablón	2	Febrero	2023-02-28T00:00:00	2024-11-06T10:00:00	6	Velocidad del viento	3.2
139662	7	Sololá	701	Sololá	2	El tablón	2	Febrero	2023-02-28T00:00:00	2024-11-06T10:00:00	7	Dirección del viento	3.22
139663	7	Sololá	701	Sololá	2	El tablón	2	Febrero	2023-02-28T00:00:00	2024-11-06T10:00:00	1	Precipitación	0
139664	7	Sololá	701	Sololá	2	El tablón	2	Febrero	2023-02-28T00:00:00	2024-11-06T10:00:00	8	Radiación solar	626
139665	7	Sololá	701	Sololá	2	El tablón	2	Febrero	2023-02-28T00:00:00	2024-11-06T11:00:00	2	Temperatura media	17.4
139666	7	Sololá	701	Sololá	2	El tablón	2	Febrero	2023-02-28T00:00:00	2024-11-06T11:00:00	4	Temperatura máxima	17.8
139667	7	Sololá	701	Sololá	2	El tablón	2	Febrero	2023-02-28T00:00:00	2024-11-06T11:00:00	3	Temperatura mínima	16.9
139668	7	Sololá	701	Sololá	2	El tablón	2	Febrero	2023-02-28T00:00:00	2024-11-06T11:00:00	5	Humedad	65
139669	7	Sololá	701	Sololá	2	El tablón	2	Febrero	2023-02-28T00:00:00	2024-11-06T11:00:00	6	Velocidad del viento	8
139670	7	Sololá	701	Sololá	2	El tablón	2	Febrero	2023-02-28T00:00:00	2024-11-06T11:00:00	7	Dirección del viento	8.05
139671	7	Sololá	701	Sololá	2	El tablón	2	Febrero	2023-02-28T00:00:00	2024-11-06T11:00:00	1	Precipitación	0
139672	7	Sololá	701	Sololá	2	El tablón	2	Febrero	2023-02-28T00:00:00	2024-11-06T11:00:00	8	Radiación solar	781
139673	7	Sololá	701	Sololá	2	El tablón	2	Febrero	2023-02-28T00:00:00	2024-11-06T12:00:00	2	Temperatura media	17.9
139674	7	Sololá	701	Sololá	2	El tablón	2	Febrero	2023-02-28T00:00:00	2024-11-06T12:00:00	4	Temperatura máxima	17.9
139675	7	Sololá	701	Sololá	2	El tablón	2	Febrero	2023-02-28T00:00:00	2024-11-06T12:00:00	3	Temperatura mínima	16.9
139676	7	Sololá	701	Sololá	2	El tablón	2	Febrero	2023-02-28T00:00:00	2024-11-06T12:00:00	5	Humedad	68
139677	7	Sololá	701	Sololá	2	El tablón	2	Febrero	2023-02-28T00:00:00	2024-11-06T12:00:00	6	Velocidad del viento	8
139678	7	Sololá	701	Sololá	2	El tablón	2	Febrero	2023-02-28T00:00:00	2024-11-06T12:00:00	7	Dirección del viento	8.05
139679	7	Sololá	701	Sololá	2	El tablón	2	Febrero	2023-02-28T00:00:00	2024-11-06T12:00:00	1	Precipitación	0
139680	7	Sololá	701	Sololá	2	El tablón	2	Febrero	2023-02-28T00:00:00	2024-11-06T12:00:00	8	Radiación solar	817
139681	7	Sololá	701	Sololá	2	El tablón	2	Febrero	2023-02-28T00:00:00	2024-11-06T13:00:00	2	Temperatura media	18.3
139682	7	Sololá	701	Sololá	2	El tablón	2	Febrero	2023-02-28T00:00:00	2024-11-06T13:00:00	4	Temperatura máxima	18.4
139683	7	Sololá	701	Sololá	2	El tablón	2	Febrero	2023-02-28T00:00:00	2024-11-06T13:00:00	3	Temperatura mínima	17.6
139684	7	Sololá	701	Sololá	2	El tablón	2	Febrero	2023-02-28T00:00:00	2024-11-06T13:00:00	5	Humedad	72
139685	7	Sololá	701	Sololá	2	El tablón	2	Febrero	2023-02-28T00:00:00	2024-11-06T13:00:00	6	Velocidad del viento	9.7
139686	7	Sololá	701	Sololá	2	El tablón	2	Febrero	2023-02-28T00:00:00	2024-11-06T13:00:00	7	Dirección del viento	9.66
139687	7	Sololá	701	Sololá	2	El tablón	2	Febrero	2023-02-28T00:00:00	2024-11-06T13:00:00	1	Precipitación	0
139688	7	Sololá	701	Sololá	2	El tablón	2	Febrero	2023-02-28T00:00:00	2024-11-06T13:00:00	8	Radiación solar	862
139689	7	Sololá	701	Sololá	2	El tablón	2	Febrero	2023-02-28T00:00:00	2024-11-06T14:00:00	2	Temperatura media	19
139690	7	Sololá	701	Sololá	2	El tablón	2	Febrero	2023-02-28T00:00:00	2024-11-06T14:00:00	4	Temperatura máxima	19.2
139691	7	Sololá	701	Sololá	2	El tablón	2	Febrero	2023-02-28T00:00:00	2024-11-06T14:00:00	3	Temperatura mínima	18.1
139692	7	Sololá	701	Sololá	2	El tablón	2	Febrero	2023-02-28T00:00:00	2024-11-06T14:00:00	5	Humedad	71
139693	7	Sololá	701	Sololá	2	El tablón	2	Febrero	2023-02-28T00:00:00	2024-11-06T14:00:00	6	Velocidad del viento	8
139694	7	Sololá	701	Sololá	2	El tablón	2	Febrero	2023-02-28T00:00:00	2024-11-06T14:00:00	7	Dirección del viento	8.05
139695	7	Sololá	701	Sololá	2	El tablón	2	Febrero	2023-02-28T00:00:00	2024-11-06T14:00:00	1	Precipitación	0
139696	7	Sololá	701	Sololá	2	El tablón	2	Febrero	2023-02-28T00:00:00	2024-11-06T14:00:00	8	Radiación solar	839
139697	7	Sololá	701	Sololá	2	El tablón	2	Febrero	2023-02-28T00:00:00	2024-11-06T15:00:00	2	Temperatura media	17.9
139698	7	Sololá	701	Sololá	2	El tablón	2	Febrero	2023-02-28T00:00:00	2024-11-06T15:00:00	4	Temperatura máxima	19
139699	7	Sololá	701	Sololá	2	El tablón	2	Febrero	2023-02-28T00:00:00	2024-11-06T15:00:00	3	Temperatura mínima	17.9
139700	7	Sololá	701	Sololá	2	El tablón	2	Febrero	2023-02-28T00:00:00	2024-11-06T15:00:00	5	Humedad	80
139701	7	Sololá	701	Sololá	2	El tablón	2	Febrero	2023-02-28T00:00:00	2024-11-06T15:00:00	6	Velocidad del viento	8
139702	7	Sololá	701	Sololá	2	El tablón	2	Febrero	2023-02-28T00:00:00	2024-11-06T15:00:00	7	Dirección del viento	8.05
139703	7	Sololá	701	Sololá	2	El tablón	2	Febrero	2023-02-28T00:00:00	2024-11-06T15:00:00	1	Precipitación	0
139704	7	Sololá	701	Sololá	2	El tablón	2	Febrero	2023-02-28T00:00:00	2024-11-06T15:00:00	8	Radiación solar	731
139705	7	Sololá	701	Sololá	2	El tablón	2	Febrero	2023-02-28T00:00:00	2024-11-06T16:00:00	2	Temperatura media	15.7
139706	7	Sololá	701	Sololá	2	El tablón	2	Febrero	2023-02-28T00:00:00	2024-11-06T16:00:00	4	Temperatura máxima	18
139707	7	Sololá	701	Sololá	2	El tablón	2	Febrero	2023-02-28T00:00:00	2024-11-06T16:00:00	3	Temperatura mínima	15.7
139708	7	Sololá	701	Sololá	2	El tablón	2	Febrero	2023-02-28T00:00:00	2024-11-06T16:00:00	5	Humedad	88
139709	7	Sololá	701	Sololá	2	El tablón	2	Febrero	2023-02-28T00:00:00	2024-11-06T16:00:00	6	Velocidad del viento	6.4
139710	7	Sololá	701	Sololá	2	El tablón	2	Febrero	2023-02-28T00:00:00	2024-11-06T16:00:00	7	Dirección del viento	6.44
139711	7	Sololá	701	Sololá	2	El tablón	2	Febrero	2023-02-28T00:00:00	2024-11-06T16:00:00	1	Precipitación	0
139712	7	Sololá	701	Sololá	2	El tablón	2	Febrero	2023-02-28T00:00:00	2024-11-06T16:00:00	8	Radiación solar	192
139713	7	Sololá	701	Sololá	2	El tablón	2	Febrero	2023-02-28T00:00:00	2024-11-06T17:00:00	2	Temperatura media	15.7
139714	7	Sololá	701	Sololá	2	El tablón	2	Febrero	2023-02-28T00:00:00	2024-11-06T17:00:00	4	Temperatura máxima	15.8
139715	7	Sololá	701	Sololá	2	El tablón	2	Febrero	2023-02-28T00:00:00	2024-11-06T17:00:00	3	Temperatura mínima	15.4
139716	7	Sololá	701	Sololá	2	El tablón	2	Febrero	2023-02-28T00:00:00	2024-11-06T17:00:00	5	Humedad	88
139717	7	Sololá	701	Sololá	2	El tablón	2	Febrero	2023-02-28T00:00:00	2024-11-06T17:00:00	6	Velocidad del viento	3.2
139718	7	Sololá	701	Sololá	2	El tablón	2	Febrero	2023-02-28T00:00:00	2024-11-06T17:00:00	7	Dirección del viento	3.22
139719	7	Sololá	701	Sololá	2	El tablón	2	Febrero	2023-02-28T00:00:00	2024-11-06T17:00:00	1	Precipitación	0
139720	7	Sololá	701	Sololá	2	El tablón	2	Febrero	2023-02-28T00:00:00	2024-11-06T17:00:00	8	Radiación solar	117
139721	7	Sololá	701	Sololá	2	El tablón	2	Febrero	2023-02-28T00:00:00	2024-11-06T18:00:00	2	Temperatura media	15.3
139722	7	Sololá	701	Sololá	2	El tablón	2	Febrero	2023-02-28T00:00:00	2024-11-06T18:00:00	4	Temperatura máxima	15.7
139723	7	Sololá	701	Sololá	2	El tablón	2	Febrero	2023-02-28T00:00:00	2024-11-06T18:00:00	3	Temperatura mínima	15.2
139724	7	Sololá	701	Sololá	2	El tablón	2	Febrero	2023-02-28T00:00:00	2024-11-06T18:00:00	5	Humedad	89
139725	7	Sololá	701	Sololá	2	El tablón	2	Febrero	2023-02-28T00:00:00	2024-11-06T18:00:00	6	Velocidad del viento	1.6
139726	7	Sololá	701	Sololá	2	El tablón	2	Febrero	2023-02-28T00:00:00	2024-11-06T18:00:00	7	Dirección del viento	1.61
139727	7	Sololá	701	Sololá	2	El tablón	2	Febrero	2023-02-28T00:00:00	2024-11-06T18:00:00	1	Precipitación	0
139728	7	Sololá	701	Sololá	2	El tablón	2	Febrero	2023-02-28T00:00:00	2024-11-06T18:00:00	8	Radiación solar	46
139729	7	Sololá	701	Sololá	2	El tablón	2	Febrero	2023-02-28T00:00:00	2024-11-06T19:00:00	2	Temperatura media	14.9
139730	7	Sololá	701	Sololá	2	El tablón	2	Febrero	2023-02-28T00:00:00	2024-11-06T19:00:00	4	Temperatura máxima	15.3
139731	7	Sololá	701	Sololá	2	El tablón	2	Febrero	2023-02-28T00:00:00	2024-11-06T19:00:00	3	Temperatura mínima	14.9
139732	7	Sololá	701	Sololá	2	El tablón	2	Febrero	2023-02-28T00:00:00	2024-11-06T19:00:00	5	Humedad	89
139733	7	Sololá	701	Sololá	2	El tablón	2	Febrero	2023-02-28T00:00:00	2024-11-06T19:00:00	6	Velocidad del viento	1.6
139734	7	Sololá	701	Sololá	2	El tablón	2	Febrero	2023-02-28T00:00:00	2024-11-06T19:00:00	7	Dirección del viento	1.61
139735	7	Sololá	701	Sololá	2	El tablón	2	Febrero	2023-02-28T00:00:00	2024-11-06T19:00:00	1	Precipitación	0
139736	7	Sololá	701	Sololá	2	El tablón	2	Febrero	2023-02-28T00:00:00	2024-11-06T19:00:00	8	Radiación solar	0
139737	7	Sololá	701	Sololá	2	El tablón	2	Febrero	2023-02-28T00:00:00	2024-11-06T20:00:00	2	Temperatura media	13.1
139738	7	Sololá	701	Sololá	2	El tablón	2	Febrero	2023-02-28T00:00:00	2024-11-06T20:00:00	4	Temperatura máxima	14.9
139739	7	Sololá	701	Sololá	2	El tablón	2	Febrero	2023-02-28T00:00:00	2024-11-06T20:00:00	3	Temperatura mínima	12.9
139740	7	Sololá	701	Sololá	2	El tablón	2	Febrero	2023-02-28T00:00:00	2024-11-06T20:00:00	5	Humedad	80
139741	7	Sololá	701	Sololá	2	El tablón	2	Febrero	2023-02-28T00:00:00	2024-11-06T20:00:00	6	Velocidad del viento	1.6
139742	7	Sololá	701	Sololá	2	El tablón	2	Febrero	2023-02-28T00:00:00	2024-11-06T20:00:00	7	Dirección del viento	1.61
139743	7	Sololá	701	Sololá	2	El tablón	2	Febrero	2023-02-28T00:00:00	2024-11-06T20:00:00	1	Precipitación	0
139744	7	Sololá	701	Sololá	2	El tablón	2	Febrero	2023-02-28T00:00:00	2024-11-06T20:00:00	8	Radiación solar	0
139745	7	Sololá	701	Sololá	2	El tablón	2	Febrero	2023-02-28T00:00:00	2024-11-06T21:00:00	2	Temperatura media	13.7
139746	7	Sololá	701	Sololá	2	El tablón	2	Febrero	2023-02-28T00:00:00	2024-11-06T21:00:00	4	Temperatura máxima	14.6
139747	7	Sololá	701	Sololá	2	El tablón	2	Febrero	2023-02-28T00:00:00	2024-11-06T21:00:00	3	Temperatura mínima	13.1
139748	7	Sololá	701	Sololá	2	El tablón	2	Febrero	2023-02-28T00:00:00	2024-11-06T21:00:00	5	Humedad	76
139749	7	Sololá	701	Sololá	2	El tablón	2	Febrero	2023-02-28T00:00:00	2024-11-06T21:00:00	6	Velocidad del viento	1.6
139750	7	Sololá	701	Sololá	2	El tablón	2	Febrero	2023-02-28T00:00:00	2024-11-06T21:00:00	7	Dirección del viento	1.61
139751	7	Sololá	701	Sololá	2	El tablón	2	Febrero	2023-02-28T00:00:00	2024-11-06T21:00:00	1	Precipitación	0
139752	7	Sololá	701	Sololá	2	El tablón	2	Febrero	2023-02-28T00:00:00	2024-11-06T21:00:00	8	Radiación solar	0
139753	7	Sololá	701	Sololá	2	El tablón	2	Febrero	2023-02-28T00:00:00	2024-11-06T22:00:00	2	Temperatura media	11.8
139754	7	Sololá	701	Sololá	2	El tablón	2	Febrero	2023-02-28T00:00:00	2024-11-06T22:00:00	4	Temperatura máxima	13.7
139755	7	Sololá	701	Sololá	2	El tablón	2	Febrero	2023-02-28T00:00:00	2024-11-06T22:00:00	3	Temperatura mínima	11.3
139756	7	Sololá	701	Sololá	2	El tablón	2	Febrero	2023-02-28T00:00:00	2024-11-06T22:00:00	5	Humedad	79
139757	7	Sololá	701	Sololá	2	El tablón	2	Febrero	2023-02-28T00:00:00	2024-11-06T22:00:00	6	Velocidad del viento	1.6
139758	7	Sololá	701	Sololá	2	El tablón	2	Febrero	2023-02-28T00:00:00	2024-11-06T22:00:00	7	Dirección del viento	1.61
139759	7	Sololá	701	Sololá	2	El tablón	2	Febrero	2023-02-28T00:00:00	2024-11-06T22:00:00	1	Precipitación	0
139760	7	Sololá	701	Sololá	2	El tablón	2	Febrero	2023-02-28T00:00:00	2024-11-06T22:00:00	8	Radiación solar	0
139761	7	Sololá	701	Sololá	2	El tablón	2	Febrero	2023-02-28T00:00:00	2024-11-06T23:00:00	2	Temperatura media	11
139762	7	Sololá	701	Sololá	2	El tablón	2	Febrero	2023-02-28T00:00:00	2024-11-06T23:00:00	4	Temperatura máxima	11.8
139763	7	Sololá	701	Sololá	2	El tablón	2	Febrero	2023-02-28T00:00:00	2024-11-06T23:00:00	3	Temperatura mínima	10.3
139764	7	Sololá	701	Sololá	2	El tablón	2	Febrero	2023-02-28T00:00:00	2024-11-06T23:00:00	5	Humedad	82
139765	7	Sololá	701	Sololá	2	El tablón	2	Febrero	2023-02-28T00:00:00	2024-11-06T23:00:00	6	Velocidad del viento	4.8
139766	7	Sololá	701	Sololá	2	El tablón	2	Febrero	2023-02-28T00:00:00	2024-11-06T23:00:00	7	Dirección del viento	4.83
139767	7	Sololá	701	Sololá	2	El tablón	2	Febrero	2023-02-28T00:00:00	2024-11-06T23:00:00	1	Precipitación	0
139768	7	Sololá	701	Sololá	2	El tablón	2	Febrero	2023-02-28T00:00:00	2024-11-06T23:00:00	8	Radiación solar	0
139769	7	Sololá	701	Sololá	2	El tablón	3	Marzo	2023-01-03T00:00:00	2024-11-06T00:00:00	2	Temperatura media	10
139770	7	Sololá	701	Sololá	2	El tablón	3	Marzo	2023-01-03T00:00:00	2024-11-06T00:00:00	4	Temperatura máxima	11
139771	7	Sololá	701	Sololá	2	El tablón	3	Marzo	2023-01-03T00:00:00	2024-11-06T00:00:00	3	Temperatura mínima	9.9
139772	7	Sololá	701	Sololá	2	El tablón	3	Marzo	2023-01-03T00:00:00	2024-11-06T00:00:00	5	Humedad	82
139773	7	Sololá	701	Sololá	2	El tablón	3	Marzo	2023-01-03T00:00:00	2024-11-06T00:00:00	6	Velocidad del viento	3.2
139774	7	Sololá	701	Sololá	2	El tablón	3	Marzo	2023-01-03T00:00:00	2024-11-06T00:00:00	7	Dirección del viento	3.22
139775	7	Sololá	701	Sololá	2	El tablón	3	Marzo	2023-01-03T00:00:00	2024-11-06T00:00:00	1	Precipitación	0
139776	7	Sololá	701	Sololá	2	El tablón	3	Marzo	2023-01-03T00:00:00	2024-11-06T00:00:00	8	Radiación solar	0
139777	7	Sololá	701	Sololá	2	El tablón	3	Marzo	2023-01-03T00:00:00	2024-11-06T01:00:00	2	Temperatura media	10.2
139778	7	Sololá	701	Sololá	2	El tablón	3	Marzo	2023-01-03T00:00:00	2024-11-06T01:00:00	4	Temperatura máxima	10.7
139779	7	Sololá	701	Sololá	2	El tablón	3	Marzo	2023-01-03T00:00:00	2024-11-06T01:00:00	3	Temperatura mínima	10
139780	7	Sololá	701	Sololá	2	El tablón	3	Marzo	2023-01-03T00:00:00	2024-11-06T01:00:00	5	Humedad	70
139781	7	Sololá	701	Sololá	2	El tablón	3	Marzo	2023-01-03T00:00:00	2024-11-06T01:00:00	6	Velocidad del viento	4.8
139782	7	Sololá	701	Sololá	2	El tablón	3	Marzo	2023-01-03T00:00:00	2024-11-06T01:00:00	7	Dirección del viento	4.83
139783	7	Sololá	701	Sololá	2	El tablón	3	Marzo	2023-01-03T00:00:00	2024-11-06T01:00:00	1	Precipitación	0
139784	7	Sololá	701	Sololá	2	El tablón	3	Marzo	2023-01-03T00:00:00	2024-11-06T01:00:00	8	Radiación solar	0
139785	7	Sololá	701	Sololá	2	El tablón	3	Marzo	2023-01-03T00:00:00	2024-11-06T02:00:00	2	Temperatura media	10.5
139786	7	Sololá	701	Sololá	2	El tablón	3	Marzo	2023-01-03T00:00:00	2024-11-06T02:00:00	4	Temperatura máxima	10.9
139787	7	Sololá	701	Sololá	2	El tablón	3	Marzo	2023-01-03T00:00:00	2024-11-06T02:00:00	3	Temperatura mínima	10.1
139788	7	Sololá	701	Sololá	2	El tablón	3	Marzo	2023-01-03T00:00:00	2024-11-06T02:00:00	5	Humedad	61
139789	7	Sololá	701	Sololá	2	El tablón	3	Marzo	2023-01-03T00:00:00	2024-11-06T02:00:00	6	Velocidad del viento	4.8
139790	7	Sololá	701	Sololá	2	El tablón	3	Marzo	2023-01-03T00:00:00	2024-11-06T02:00:00	7	Dirección del viento	4.83
139791	7	Sololá	701	Sololá	2	El tablón	3	Marzo	2023-01-03T00:00:00	2024-11-06T02:00:00	1	Precipitación	0
139792	7	Sololá	701	Sololá	2	El tablón	3	Marzo	2023-01-03T00:00:00	2024-11-06T02:00:00	8	Radiación solar	0
139793	7	Sololá	701	Sololá	2	El tablón	3	Marzo	2023-01-03T00:00:00	2024-11-06T03:00:00	2	Temperatura media	10
139794	7	Sololá	701	Sololá	2	El tablón	3	Marzo	2023-01-03T00:00:00	2024-11-06T03:00:00	4	Temperatura máxima	10.5
139795	7	Sololá	701	Sololá	2	El tablón	3	Marzo	2023-01-03T00:00:00	2024-11-06T03:00:00	3	Temperatura mínima	10
139796	7	Sololá	701	Sololá	2	El tablón	3	Marzo	2023-01-03T00:00:00	2024-11-06T03:00:00	5	Humedad	68
139797	7	Sololá	701	Sololá	2	El tablón	3	Marzo	2023-01-03T00:00:00	2024-11-06T03:00:00	6	Velocidad del viento	4.8
139798	7	Sololá	701	Sololá	2	El tablón	3	Marzo	2023-01-03T00:00:00	2024-11-06T03:00:00	7	Dirección del viento	4.83
139799	7	Sololá	701	Sololá	2	El tablón	3	Marzo	2023-01-03T00:00:00	2024-11-06T03:00:00	1	Precipitación	0
139800	7	Sololá	701	Sololá	2	El tablón	3	Marzo	2023-01-03T00:00:00	2024-11-06T03:00:00	8	Radiación solar	0
139801	7	Sololá	701	Sololá	2	El tablón	3	Marzo	2023-01-03T00:00:00	2024-11-06T04:00:00	2	Temperatura media	9.8
139802	7	Sololá	701	Sololá	2	El tablón	3	Marzo	2023-01-03T00:00:00	2024-11-06T04:00:00	4	Temperatura máxima	10
139803	7	Sololá	701	Sololá	2	El tablón	3	Marzo	2023-01-03T00:00:00	2024-11-06T04:00:00	3	Temperatura mínima	9.4
139804	7	Sololá	701	Sololá	2	El tablón	3	Marzo	2023-01-03T00:00:00	2024-11-06T04:00:00	5	Humedad	73
139805	7	Sololá	701	Sololá	2	El tablón	3	Marzo	2023-01-03T00:00:00	2024-11-06T04:00:00	6	Velocidad del viento	3.2
139806	7	Sololá	701	Sololá	2	El tablón	3	Marzo	2023-01-03T00:00:00	2024-11-06T04:00:00	7	Dirección del viento	3.22
139807	7	Sololá	701	Sololá	2	El tablón	3	Marzo	2023-01-03T00:00:00	2024-11-06T04:00:00	1	Precipitación	0
139808	7	Sololá	701	Sololá	2	El tablón	3	Marzo	2023-01-03T00:00:00	2024-11-06T04:00:00	8	Radiación solar	0
139809	7	Sololá	701	Sololá	2	El tablón	3	Marzo	2023-01-03T00:00:00	2024-11-06T05:00:00	2	Temperatura media	9.6
139810	7	Sololá	701	Sololá	2	El tablón	3	Marzo	2023-01-03T00:00:00	2024-11-06T05:00:00	4	Temperatura máxima	10.1
139811	7	Sololá	701	Sololá	2	El tablón	3	Marzo	2023-01-03T00:00:00	2024-11-06T05:00:00	3	Temperatura mínima	9.5
139812	7	Sololá	701	Sololá	2	El tablón	3	Marzo	2023-01-03T00:00:00	2024-11-06T05:00:00	5	Humedad	74
139813	7	Sololá	701	Sololá	2	El tablón	3	Marzo	2023-01-03T00:00:00	2024-11-06T05:00:00	6	Velocidad del viento	3.2
139814	7	Sololá	701	Sololá	2	El tablón	3	Marzo	2023-01-03T00:00:00	2024-11-06T05:00:00	7	Dirección del viento	3.22
139815	7	Sololá	701	Sololá	2	El tablón	3	Marzo	2023-01-03T00:00:00	2024-11-06T05:00:00	1	Precipitación	0
139816	7	Sololá	701	Sololá	2	El tablón	3	Marzo	2023-01-03T00:00:00	2024-11-06T05:00:00	8	Radiación solar	0
139817	7	Sololá	701	Sololá	2	El tablón	3	Marzo	2023-01-03T00:00:00	2024-11-06T06:00:00	2	Temperatura media	9.5
139818	7	Sololá	701	Sololá	2	El tablón	3	Marzo	2023-01-03T00:00:00	2024-11-06T06:00:00	4	Temperatura máxima	10.4
139819	7	Sololá	701	Sololá	2	El tablón	3	Marzo	2023-01-03T00:00:00	2024-11-06T06:00:00	3	Temperatura mínima	9.5
139820	7	Sololá	701	Sololá	2	El tablón	3	Marzo	2023-01-03T00:00:00	2024-11-06T06:00:00	5	Humedad	75
139821	7	Sololá	701	Sololá	2	El tablón	3	Marzo	2023-01-03T00:00:00	2024-11-06T06:00:00	6	Velocidad del viento	3.2
139822	7	Sololá	701	Sololá	2	El tablón	3	Marzo	2023-01-03T00:00:00	2024-11-06T06:00:00	7	Dirección del viento	3.22
139823	7	Sololá	701	Sololá	2	El tablón	3	Marzo	2023-01-03T00:00:00	2024-11-06T06:00:00	1	Precipitación	0
139824	7	Sololá	701	Sololá	2	El tablón	3	Marzo	2023-01-03T00:00:00	2024-11-06T06:00:00	8	Radiación solar	0
139825	7	Sololá	701	Sololá	2	El tablón	3	Marzo	2023-01-03T00:00:00	2024-11-06T07:00:00	2	Temperatura media	9.4
139826	7	Sololá	701	Sololá	2	El tablón	3	Marzo	2023-01-03T00:00:00	2024-11-06T07:00:00	4	Temperatura máxima	9.5
139827	7	Sololá	701	Sololá	2	El tablón	3	Marzo	2023-01-03T00:00:00	2024-11-06T07:00:00	3	Temperatura mínima	8.3
139828	7	Sololá	701	Sololá	2	El tablón	3	Marzo	2023-01-03T00:00:00	2024-11-06T07:00:00	5	Humedad	73
139829	7	Sololá	701	Sololá	2	El tablón	3	Marzo	2023-01-03T00:00:00	2024-11-06T07:00:00	6	Velocidad del viento	3.2
139830	7	Sololá	701	Sololá	2	El tablón	3	Marzo	2023-01-03T00:00:00	2024-11-06T07:00:00	7	Dirección del viento	3.22
139831	7	Sololá	701	Sololá	2	El tablón	3	Marzo	2023-01-03T00:00:00	2024-11-06T07:00:00	1	Precipitación	0
139832	7	Sololá	701	Sololá	2	El tablón	3	Marzo	2023-01-03T00:00:00	2024-11-06T07:00:00	8	Radiación solar	12
139833	7	Sololá	701	Sololá	2	El tablón	3	Marzo	2023-01-03T00:00:00	2024-11-06T08:00:00	2	Temperatura media	14
139834	7	Sololá	701	Sololá	2	El tablón	3	Marzo	2023-01-03T00:00:00	2024-11-06T08:00:00	4	Temperatura máxima	14
139835	7	Sololá	701	Sololá	2	El tablón	3	Marzo	2023-01-03T00:00:00	2024-11-06T08:00:00	3	Temperatura mínima	9.4
139836	7	Sololá	701	Sololá	2	El tablón	3	Marzo	2023-01-03T00:00:00	2024-11-06T08:00:00	5	Humedad	44
139837	7	Sololá	701	Sololá	2	El tablón	3	Marzo	2023-01-03T00:00:00	2024-11-06T08:00:00	6	Velocidad del viento	3.2
139838	7	Sololá	701	Sololá	2	El tablón	3	Marzo	2023-01-03T00:00:00	2024-11-06T08:00:00	7	Dirección del viento	3.22
139839	7	Sololá	701	Sololá	2	El tablón	3	Marzo	2023-01-03T00:00:00	2024-11-06T08:00:00	1	Precipitación	0
139840	7	Sololá	701	Sololá	2	El tablón	3	Marzo	2023-01-03T00:00:00	2024-11-06T08:00:00	8	Radiación solar	150
139841	7	Sololá	701	Sololá	2	El tablón	3	Marzo	2023-01-03T00:00:00	2024-11-06T09:00:00	2	Temperatura media	19.5
139842	7	Sololá	701	Sololá	2	El tablón	3	Marzo	2023-01-03T00:00:00	2024-11-06T09:00:00	4	Temperatura máxima	19.5
139843	7	Sololá	701	Sololá	2	El tablón	3	Marzo	2023-01-03T00:00:00	2024-11-06T09:00:00	3	Temperatura mínima	14
139844	7	Sololá	701	Sololá	2	El tablón	3	Marzo	2023-01-03T00:00:00	2024-11-06T09:00:00	5	Humedad	36
139845	7	Sololá	701	Sololá	2	El tablón	3	Marzo	2023-01-03T00:00:00	2024-11-06T09:00:00	6	Velocidad del viento	1.6
139846	7	Sololá	701	Sololá	2	El tablón	3	Marzo	2023-01-03T00:00:00	2024-11-06T09:00:00	7	Dirección del viento	1.61
139847	7	Sololá	701	Sololá	2	El tablón	3	Marzo	2023-01-03T00:00:00	2024-11-06T09:00:00	1	Precipitación	0
139848	7	Sololá	701	Sololá	2	El tablón	3	Marzo	2023-01-03T00:00:00	2024-11-06T09:00:00	8	Radiación solar	423
139849	7	Sololá	701	Sololá	2	El tablón	3	Marzo	2023-01-03T00:00:00	2024-11-06T10:00:00	2	Temperatura media	19.2
139850	7	Sololá	701	Sololá	2	El tablón	3	Marzo	2023-01-03T00:00:00	2024-11-06T10:00:00	4	Temperatura máxima	19.7
139851	7	Sololá	701	Sololá	2	El tablón	3	Marzo	2023-01-03T00:00:00	2024-11-06T10:00:00	3	Temperatura mínima	18.2
139852	7	Sololá	701	Sololá	2	El tablón	3	Marzo	2023-01-03T00:00:00	2024-11-06T10:00:00	5	Humedad	58
139853	7	Sololá	701	Sololá	2	El tablón	3	Marzo	2023-01-03T00:00:00	2024-11-06T10:00:00	6	Velocidad del viento	4.8
139854	7	Sololá	701	Sololá	2	El tablón	3	Marzo	2023-01-03T00:00:00	2024-11-06T10:00:00	7	Dirección del viento	4.83
139855	7	Sololá	701	Sololá	2	El tablón	3	Marzo	2023-01-03T00:00:00	2024-11-06T10:00:00	1	Precipitación	0
139856	7	Sololá	701	Sololá	2	El tablón	3	Marzo	2023-01-03T00:00:00	2024-11-06T10:00:00	8	Radiación solar	638
139857	7	Sololá	701	Sololá	2	El tablón	3	Marzo	2023-01-03T00:00:00	2024-11-06T11:00:00	2	Temperatura media	20.4
139858	7	Sololá	701	Sololá	2	El tablón	3	Marzo	2023-01-03T00:00:00	2024-11-06T11:00:00	4	Temperatura máxima	20.7
139859	7	Sololá	701	Sololá	2	El tablón	3	Marzo	2023-01-03T00:00:00	2024-11-06T11:00:00	3	Temperatura mínima	19.2
139860	7	Sololá	701	Sololá	2	El tablón	3	Marzo	2023-01-03T00:00:00	2024-11-06T11:00:00	5	Humedad	47
139861	7	Sololá	701	Sololá	2	El tablón	3	Marzo	2023-01-03T00:00:00	2024-11-06T11:00:00	6	Velocidad del viento	6.4
139862	7	Sololá	701	Sololá	2	El tablón	3	Marzo	2023-01-03T00:00:00	2024-11-06T11:00:00	7	Dirección del viento	6.44
139863	7	Sololá	701	Sololá	2	El tablón	3	Marzo	2023-01-03T00:00:00	2024-11-06T11:00:00	1	Precipitación	0
139864	7	Sololá	701	Sololá	2	El tablón	3	Marzo	2023-01-03T00:00:00	2024-11-06T11:00:00	8	Radiación solar	790
139865	7	Sololá	701	Sololá	2	El tablón	3	Marzo	2023-01-03T00:00:00	2024-11-06T12:00:00	2	Temperatura media	19.3
139866	7	Sololá	701	Sololá	2	El tablón	3	Marzo	2023-01-03T00:00:00	2024-11-06T12:00:00	4	Temperatura máxima	20.6
139867	7	Sololá	701	Sololá	2	El tablón	3	Marzo	2023-01-03T00:00:00	2024-11-06T12:00:00	3	Temperatura mínima	19.3
139868	7	Sololá	701	Sololá	2	El tablón	3	Marzo	2023-01-03T00:00:00	2024-11-06T12:00:00	5	Humedad	56
139869	7	Sololá	701	Sololá	2	El tablón	3	Marzo	2023-01-03T00:00:00	2024-11-06T12:00:00	6	Velocidad del viento	8
139870	7	Sololá	701	Sololá	2	El tablón	3	Marzo	2023-01-03T00:00:00	2024-11-06T12:00:00	7	Dirección del viento	8.05
139871	7	Sololá	701	Sololá	2	El tablón	3	Marzo	2023-01-03T00:00:00	2024-11-06T12:00:00	1	Precipitación	0
139872	7	Sololá	701	Sololá	2	El tablón	3	Marzo	2023-01-03T00:00:00	2024-11-06T12:00:00	8	Radiación solar	831
139873	7	Sololá	701	Sololá	2	El tablón	3	Marzo	2023-01-03T00:00:00	2024-11-06T13:00:00	2	Temperatura media	18.2
139874	7	Sololá	701	Sololá	2	El tablón	3	Marzo	2023-01-03T00:00:00	2024-11-06T13:00:00	4	Temperatura máxima	19.3
139875	7	Sololá	701	Sololá	2	El tablón	3	Marzo	2023-01-03T00:00:00	2024-11-06T13:00:00	3	Temperatura mínima	18.1
139876	7	Sololá	701	Sololá	2	El tablón	3	Marzo	2023-01-03T00:00:00	2024-11-06T13:00:00	5	Humedad	76
139877	7	Sololá	701	Sololá	2	El tablón	3	Marzo	2023-01-03T00:00:00	2024-11-06T13:00:00	6	Velocidad del viento	9.7
139878	7	Sololá	701	Sololá	2	El tablón	3	Marzo	2023-01-03T00:00:00	2024-11-06T13:00:00	7	Dirección del viento	9.66
139879	7	Sololá	701	Sololá	2	El tablón	3	Marzo	2023-01-03T00:00:00	2024-11-06T13:00:00	1	Precipitación	0
139880	7	Sololá	701	Sololá	2	El tablón	3	Marzo	2023-01-03T00:00:00	2024-11-06T13:00:00	8	Radiación solar	863
139881	7	Sololá	701	Sololá	2	El tablón	3	Marzo	2023-01-03T00:00:00	2024-11-06T14:00:00	2	Temperatura media	17.7
139882	7	Sololá	701	Sololá	2	El tablón	3	Marzo	2023-01-03T00:00:00	2024-11-06T14:00:00	4	Temperatura máxima	18.2
139883	7	Sololá	701	Sololá	2	El tablón	3	Marzo	2023-01-03T00:00:00	2024-11-06T14:00:00	3	Temperatura mínima	17.3
139884	7	Sololá	701	Sololá	2	El tablón	3	Marzo	2023-01-03T00:00:00	2024-11-06T14:00:00	5	Humedad	79
139885	7	Sololá	701	Sololá	2	El tablón	3	Marzo	2023-01-03T00:00:00	2024-11-06T14:00:00	6	Velocidad del viento	9.7
139886	7	Sololá	701	Sololá	2	El tablón	3	Marzo	2023-01-03T00:00:00	2024-11-06T14:00:00	7	Dirección del viento	9.66
139887	7	Sololá	701	Sololá	2	El tablón	3	Marzo	2023-01-03T00:00:00	2024-11-06T14:00:00	1	Precipitación	0
139888	7	Sololá	701	Sololá	2	El tablón	3	Marzo	2023-01-03T00:00:00	2024-11-06T14:00:00	8	Radiación solar	857
139889	7	Sololá	701	Sololá	2	El tablón	3	Marzo	2023-01-03T00:00:00	2024-11-06T15:00:00	2	Temperatura media	18.3
139890	7	Sololá	701	Sololá	2	El tablón	3	Marzo	2023-01-03T00:00:00	2024-11-06T15:00:00	4	Temperatura máxima	18.3
139891	7	Sololá	701	Sololá	2	El tablón	3	Marzo	2023-01-03T00:00:00	2024-11-06T15:00:00	3	Temperatura mínima	17.2
139892	7	Sololá	701	Sololá	2	El tablón	3	Marzo	2023-01-03T00:00:00	2024-11-06T15:00:00	5	Humedad	79
139893	7	Sololá	701	Sololá	2	El tablón	3	Marzo	2023-01-03T00:00:00	2024-11-06T15:00:00	6	Velocidad del viento	6.4
139894	7	Sololá	701	Sololá	2	El tablón	3	Marzo	2023-01-03T00:00:00	2024-11-06T15:00:00	7	Dirección del viento	6.44
139895	7	Sololá	701	Sololá	2	El tablón	3	Marzo	2023-01-03T00:00:00	2024-11-06T15:00:00	1	Precipitación	0
139896	7	Sololá	701	Sololá	2	El tablón	3	Marzo	2023-01-03T00:00:00	2024-11-06T15:00:00	8	Radiación solar	623
139897	7	Sololá	701	Sololá	2	El tablón	3	Marzo	2023-01-03T00:00:00	2024-11-06T16:00:00	2	Temperatura media	16.7
139898	7	Sololá	701	Sololá	2	El tablón	3	Marzo	2023-01-03T00:00:00	2024-11-06T16:00:00	4	Temperatura máxima	18.3
139899	7	Sololá	701	Sololá	2	El tablón	3	Marzo	2023-01-03T00:00:00	2024-11-06T16:00:00	3	Temperatura mínima	16.2
139900	7	Sololá	701	Sololá	2	El tablón	3	Marzo	2023-01-03T00:00:00	2024-11-06T16:00:00	5	Humedad	85
139901	7	Sololá	701	Sololá	2	El tablón	3	Marzo	2023-01-03T00:00:00	2024-11-06T16:00:00	6	Velocidad del viento	6.4
139902	7	Sololá	701	Sololá	2	El tablón	3	Marzo	2023-01-03T00:00:00	2024-11-06T16:00:00	7	Dirección del viento	6.44
139903	7	Sololá	701	Sololá	2	El tablón	3	Marzo	2023-01-03T00:00:00	2024-11-06T16:00:00	1	Precipitación	0
139904	7	Sololá	701	Sololá	2	El tablón	3	Marzo	2023-01-03T00:00:00	2024-11-06T16:00:00	8	Radiación solar	296
139905	7	Sololá	701	Sololá	2	El tablón	3	Marzo	2023-01-03T00:00:00	2024-11-06T17:00:00	2	Temperatura media	15.1
139906	7	Sololá	701	Sololá	2	El tablón	3	Marzo	2023-01-03T00:00:00	2024-11-06T17:00:00	4	Temperatura máxima	16.7
139907	7	Sololá	701	Sololá	2	El tablón	3	Marzo	2023-01-03T00:00:00	2024-11-06T17:00:00	3	Temperatura mínima	15
139908	7	Sololá	701	Sololá	2	El tablón	3	Marzo	2023-01-03T00:00:00	2024-11-06T17:00:00	5	Humedad	89
139909	7	Sololá	701	Sololá	2	El tablón	3	Marzo	2023-01-03T00:00:00	2024-11-06T17:00:00	6	Velocidad del viento	6.4
139910	7	Sololá	701	Sololá	2	El tablón	3	Marzo	2023-01-03T00:00:00	2024-11-06T17:00:00	7	Dirección del viento	6.44
139911	7	Sololá	701	Sololá	2	El tablón	3	Marzo	2023-01-03T00:00:00	2024-11-06T17:00:00	1	Precipitación	0
139912	7	Sololá	701	Sololá	2	El tablón	3	Marzo	2023-01-03T00:00:00	2024-11-06T17:00:00	8	Radiación solar	126
139913	7	Sololá	701	Sololá	2	El tablón	3	Marzo	2023-01-03T00:00:00	2024-11-06T18:00:00	2	Temperatura media	14.4
139914	7	Sololá	701	Sololá	2	El tablón	3	Marzo	2023-01-03T00:00:00	2024-11-06T18:00:00	4	Temperatura máxima	15.1
139915	7	Sololá	701	Sololá	2	El tablón	3	Marzo	2023-01-03T00:00:00	2024-11-06T18:00:00	3	Temperatura mínima	14.4
139916	7	Sololá	701	Sololá	2	El tablón	3	Marzo	2023-01-03T00:00:00	2024-11-06T18:00:00	5	Humedad	88
139917	7	Sololá	701	Sololá	2	El tablón	3	Marzo	2023-01-03T00:00:00	2024-11-06T18:00:00	6	Velocidad del viento	3.2
139918	7	Sololá	701	Sololá	2	El tablón	3	Marzo	2023-01-03T00:00:00	2024-11-06T18:00:00	7	Dirección del viento	3.22
139919	7	Sololá	701	Sololá	2	El tablón	3	Marzo	2023-01-03T00:00:00	2024-11-06T18:00:00	1	Precipitación	0
139920	7	Sololá	701	Sololá	2	El tablón	3	Marzo	2023-01-03T00:00:00	2024-11-06T18:00:00	8	Radiación solar	39
139921	7	Sololá	701	Sololá	2	El tablón	3	Marzo	2023-01-03T00:00:00	2024-11-06T19:00:00	2	Temperatura media	13.5
139922	7	Sololá	701	Sololá	2	El tablón	3	Marzo	2023-01-03T00:00:00	2024-11-06T19:00:00	4	Temperatura máxima	14.4
139923	7	Sololá	701	Sololá	2	El tablón	3	Marzo	2023-01-03T00:00:00	2024-11-06T19:00:00	3	Temperatura mínima	13.5
139924	7	Sololá	701	Sololá	2	El tablón	3	Marzo	2023-01-03T00:00:00	2024-11-06T19:00:00	5	Humedad	89
139925	7	Sololá	701	Sololá	2	El tablón	3	Marzo	2023-01-03T00:00:00	2024-11-06T19:00:00	6	Velocidad del viento	0
139926	7	Sololá	701	Sololá	2	El tablón	3	Marzo	2023-01-03T00:00:00	2024-11-06T19:00:00	7	Dirección del viento	0
139927	7	Sololá	701	Sololá	2	El tablón	3	Marzo	2023-01-03T00:00:00	2024-11-06T19:00:00	1	Precipitación	0
139928	7	Sololá	701	Sololá	2	El tablón	3	Marzo	2023-01-03T00:00:00	2024-11-06T19:00:00	8	Radiación solar	0
139929	7	Sololá	701	Sololá	2	El tablón	3	Marzo	2023-01-03T00:00:00	2024-11-06T20:00:00	2	Temperatura media	12.9
139930	7	Sololá	701	Sololá	2	El tablón	3	Marzo	2023-01-03T00:00:00	2024-11-06T20:00:00	4	Temperatura máxima	13.5
139931	7	Sololá	701	Sololá	2	El tablón	3	Marzo	2023-01-03T00:00:00	2024-11-06T20:00:00	3	Temperatura mínima	12.8
139932	7	Sololá	701	Sololá	2	El tablón	3	Marzo	2023-01-03T00:00:00	2024-11-06T20:00:00	5	Humedad	89
139933	7	Sololá	701	Sololá	2	El tablón	3	Marzo	2023-01-03T00:00:00	2024-11-06T20:00:00	6	Velocidad del viento	0
139934	7	Sololá	701	Sololá	2	El tablón	3	Marzo	2023-01-03T00:00:00	2024-11-06T20:00:00	7	Dirección del viento	0
139935	7	Sololá	701	Sololá	2	El tablón	3	Marzo	2023-01-03T00:00:00	2024-11-06T20:00:00	1	Precipitación	0
139936	7	Sololá	701	Sololá	2	El tablón	3	Marzo	2023-01-03T00:00:00	2024-11-06T20:00:00	8	Radiación solar	0
139937	7	Sololá	701	Sololá	2	El tablón	3	Marzo	2023-01-03T00:00:00	2024-11-06T21:00:00	2	Temperatura media	11.6
139938	7	Sololá	701	Sololá	2	El tablón	3	Marzo	2023-01-03T00:00:00	2024-11-06T21:00:00	4	Temperatura máxima	12.8
139939	7	Sololá	701	Sololá	2	El tablón	3	Marzo	2023-01-03T00:00:00	2024-11-06T21:00:00	3	Temperatura mínima	11.6
139940	7	Sololá	701	Sololá	2	El tablón	3	Marzo	2023-01-03T00:00:00	2024-11-06T21:00:00	5	Humedad	90
139941	7	Sololá	701	Sololá	2	El tablón	3	Marzo	2023-01-03T00:00:00	2024-11-06T21:00:00	6	Velocidad del viento	0
139942	7	Sololá	701	Sololá	2	El tablón	3	Marzo	2023-01-03T00:00:00	2024-11-06T21:00:00	7	Dirección del viento	0
139943	7	Sololá	701	Sololá	2	El tablón	3	Marzo	2023-01-03T00:00:00	2024-11-06T21:00:00	1	Precipitación	0
139944	7	Sololá	701	Sololá	2	El tablón	3	Marzo	2023-01-03T00:00:00	2024-11-06T21:00:00	8	Radiación solar	0
139945	7	Sololá	701	Sololá	2	El tablón	3	Marzo	2023-01-03T00:00:00	2024-11-06T22:00:00	2	Temperatura media	11.8
139946	7	Sololá	701	Sololá	2	El tablón	3	Marzo	2023-01-03T00:00:00	2024-11-06T22:00:00	4	Temperatura máxima	11.9
139947	7	Sololá	701	Sololá	2	El tablón	3	Marzo	2023-01-03T00:00:00	2024-11-06T22:00:00	3	Temperatura mínima	11.2
139948	7	Sololá	701	Sololá	2	El tablón	3	Marzo	2023-01-03T00:00:00	2024-11-06T22:00:00	5	Humedad	85
139949	7	Sololá	701	Sololá	2	El tablón	3	Marzo	2023-01-03T00:00:00	2024-11-06T22:00:00	6	Velocidad del viento	4.8
139950	7	Sololá	701	Sololá	2	El tablón	3	Marzo	2023-01-03T00:00:00	2024-11-06T22:00:00	7	Dirección del viento	4.83
139951	7	Sololá	701	Sololá	2	El tablón	3	Marzo	2023-01-03T00:00:00	2024-11-06T22:00:00	1	Precipitación	0
139952	7	Sololá	701	Sololá	2	El tablón	3	Marzo	2023-01-03T00:00:00	2024-11-06T22:00:00	8	Radiación solar	0
139953	7	Sololá	701	Sololá	2	El tablón	3	Marzo	2023-01-03T00:00:00	2024-11-06T23:00:00	2	Temperatura media	12.8
139954	7	Sololá	701	Sololá	2	El tablón	3	Marzo	2023-01-03T00:00:00	2024-11-06T23:00:00	4	Temperatura máxima	12.8
139955	7	Sololá	701	Sololá	2	El tablón	3	Marzo	2023-01-03T00:00:00	2024-11-06T23:00:00	3	Temperatura mínima	11.8
139956	7	Sololá	701	Sololá	2	El tablón	3	Marzo	2023-01-03T00:00:00	2024-11-06T23:00:00	5	Humedad	76
139957	7	Sololá	701	Sololá	2	El tablón	3	Marzo	2023-01-03T00:00:00	2024-11-06T23:00:00	6	Velocidad del viento	1.6
139958	7	Sololá	701	Sololá	2	El tablón	3	Marzo	2023-01-03T00:00:00	2024-11-06T23:00:00	7	Dirección del viento	1.61
139959	7	Sololá	701	Sololá	2	El tablón	3	Marzo	2023-01-03T00:00:00	2024-11-06T23:00:00	1	Precipitación	0
139960	7	Sololá	701	Sololá	2	El tablón	3	Marzo	2023-01-03T00:00:00	2024-11-06T23:00:00	8	Radiación solar	0
139961	7	Sololá	701	Sololá	2	El tablón	3	Marzo	2023-02-03T00:00:00	2024-11-06T00:00:00	2	Temperatura media	12.8
139962	7	Sololá	701	Sololá	2	El tablón	3	Marzo	2023-02-03T00:00:00	2024-11-06T00:00:00	4	Temperatura máxima	13.1
139963	7	Sololá	701	Sololá	2	El tablón	3	Marzo	2023-02-03T00:00:00	2024-11-06T00:00:00	3	Temperatura mínima	12.4
139964	7	Sololá	701	Sololá	2	El tablón	3	Marzo	2023-02-03T00:00:00	2024-11-06T00:00:00	5	Humedad	76
139965	7	Sololá	701	Sololá	2	El tablón	3	Marzo	2023-02-03T00:00:00	2024-11-06T00:00:00	6	Velocidad del viento	1.6
139966	7	Sololá	701	Sololá	2	El tablón	3	Marzo	2023-02-03T00:00:00	2024-11-06T00:00:00	7	Dirección del viento	1.61
139967	7	Sololá	701	Sololá	2	El tablón	3	Marzo	2023-02-03T00:00:00	2024-11-06T00:00:00	1	Precipitación	0
139968	7	Sololá	701	Sololá	2	El tablón	3	Marzo	2023-02-03T00:00:00	2024-11-06T00:00:00	8	Radiación solar	0
139969	7	Sololá	701	Sololá	2	El tablón	3	Marzo	2023-02-03T00:00:00	2024-11-06T01:00:00	2	Temperatura media	11.8
139970	7	Sololá	701	Sololá	2	El tablón	3	Marzo	2023-02-03T00:00:00	2024-11-06T01:00:00	4	Temperatura máxima	12.9
139971	7	Sololá	701	Sololá	2	El tablón	3	Marzo	2023-02-03T00:00:00	2024-11-06T01:00:00	3	Temperatura mínima	11.8
139972	7	Sololá	701	Sololá	2	El tablón	3	Marzo	2023-02-03T00:00:00	2024-11-06T01:00:00	5	Humedad	89
139973	7	Sololá	701	Sololá	2	El tablón	3	Marzo	2023-02-03T00:00:00	2024-11-06T01:00:00	6	Velocidad del viento	0
139974	7	Sololá	701	Sololá	2	El tablón	3	Marzo	2023-02-03T00:00:00	2024-11-06T01:00:00	7	Dirección del viento	0
139975	7	Sololá	701	Sololá	2	El tablón	3	Marzo	2023-02-03T00:00:00	2024-11-06T01:00:00	1	Precipitación	0
139976	7	Sololá	701	Sololá	2	El tablón	3	Marzo	2023-02-03T00:00:00	2024-11-06T01:00:00	8	Radiación solar	0
139977	7	Sololá	701	Sololá	2	El tablón	3	Marzo	2023-02-03T00:00:00	2024-11-06T02:00:00	2	Temperatura media	9.8
139978	7	Sololá	701	Sololá	2	El tablón	3	Marzo	2023-02-03T00:00:00	2024-11-06T02:00:00	4	Temperatura máxima	11.8
139979	7	Sololá	701	Sololá	2	El tablón	3	Marzo	2023-02-03T00:00:00	2024-11-06T02:00:00	3	Temperatura mínima	9.8
139980	7	Sololá	701	Sololá	2	El tablón	3	Marzo	2023-02-03T00:00:00	2024-11-06T02:00:00	5	Humedad	90
139981	7	Sololá	701	Sololá	2	El tablón	3	Marzo	2023-02-03T00:00:00	2024-11-06T02:00:00	6	Velocidad del viento	1.6
139982	7	Sololá	701	Sololá	2	El tablón	3	Marzo	2023-02-03T00:00:00	2024-11-06T02:00:00	7	Dirección del viento	1.61
139983	7	Sololá	701	Sololá	2	El tablón	3	Marzo	2023-02-03T00:00:00	2024-11-06T02:00:00	1	Precipitación	0
139984	7	Sololá	701	Sololá	2	El tablón	3	Marzo	2023-02-03T00:00:00	2024-11-06T02:00:00	8	Radiación solar	0
139985	7	Sololá	701	Sololá	2	El tablón	3	Marzo	2023-02-03T00:00:00	2024-11-06T03:00:00	2	Temperatura media	10.5
139986	7	Sololá	701	Sololá	2	El tablón	3	Marzo	2023-02-03T00:00:00	2024-11-06T03:00:00	4	Temperatura máxima	10.6
139987	7	Sololá	701	Sololá	2	El tablón	3	Marzo	2023-02-03T00:00:00	2024-11-06T03:00:00	3	Temperatura mínima	9.7
139988	7	Sololá	701	Sololá	2	El tablón	3	Marzo	2023-02-03T00:00:00	2024-11-06T03:00:00	5	Humedad	88
139989	7	Sololá	701	Sololá	2	El tablón	3	Marzo	2023-02-03T00:00:00	2024-11-06T03:00:00	6	Velocidad del viento	3.2
139990	7	Sololá	701	Sololá	2	El tablón	3	Marzo	2023-02-03T00:00:00	2024-11-06T03:00:00	7	Dirección del viento	3.22
139991	7	Sololá	701	Sololá	2	El tablón	3	Marzo	2023-02-03T00:00:00	2024-11-06T03:00:00	1	Precipitación	0
139992	7	Sololá	701	Sololá	2	El tablón	3	Marzo	2023-02-03T00:00:00	2024-11-06T03:00:00	8	Radiación solar	0
139993	7	Sololá	701	Sololá	2	El tablón	3	Marzo	2023-02-03T00:00:00	2024-11-06T04:00:00	2	Temperatura media	10.4
139994	7	Sololá	701	Sololá	2	El tablón	3	Marzo	2023-02-03T00:00:00	2024-11-06T04:00:00	4	Temperatura máxima	10.6
139995	7	Sololá	701	Sololá	2	El tablón	3	Marzo	2023-02-03T00:00:00	2024-11-06T04:00:00	3	Temperatura mínima	10.4
139996	7	Sololá	701	Sololá	2	El tablón	3	Marzo	2023-02-03T00:00:00	2024-11-06T04:00:00	5	Humedad	89
139997	7	Sololá	701	Sololá	2	El tablón	3	Marzo	2023-02-03T00:00:00	2024-11-06T04:00:00	6	Velocidad del viento	3.2
139998	7	Sololá	701	Sololá	2	El tablón	3	Marzo	2023-02-03T00:00:00	2024-11-06T04:00:00	7	Dirección del viento	3.22
139999	7	Sololá	701	Sololá	2	El tablón	3	Marzo	2023-02-03T00:00:00	2024-11-06T04:00:00	1	Precipitación	0
140000	7	Sololá	701	Sololá	2	El tablón	3	Marzo	2023-02-03T00:00:00	2024-11-06T04:00:00	8	Radiación solar	0
140001	7	Sololá	701	Sololá	2	El tablón	3	Marzo	2023-02-03T00:00:00	2024-11-06T05:00:00	2	Temperatura media	9.9
140002	7	Sololá	701	Sololá	2	El tablón	3	Marzo	2023-02-03T00:00:00	2024-11-06T05:00:00	4	Temperatura máxima	10.4
140003	7	Sololá	701	Sololá	2	El tablón	3	Marzo	2023-02-03T00:00:00	2024-11-06T05:00:00	3	Temperatura mínima	9.6
140004	7	Sololá	701	Sololá	2	El tablón	3	Marzo	2023-02-03T00:00:00	2024-11-06T05:00:00	5	Humedad	90
140005	7	Sololá	701	Sololá	2	El tablón	3	Marzo	2023-02-03T00:00:00	2024-11-06T05:00:00	6	Velocidad del viento	1.6
140006	7	Sololá	701	Sololá	2	El tablón	3	Marzo	2023-02-03T00:00:00	2024-11-06T05:00:00	7	Dirección del viento	1.61
140007	7	Sololá	701	Sololá	2	El tablón	3	Marzo	2023-02-03T00:00:00	2024-11-06T05:00:00	1	Precipitación	0
140008	7	Sololá	701	Sololá	2	El tablón	3	Marzo	2023-02-03T00:00:00	2024-11-06T05:00:00	8	Radiación solar	0
140009	7	Sololá	701	Sololá	2	El tablón	3	Marzo	2023-02-03T00:00:00	2024-11-06T06:00:00	2	Temperatura media	8.4
140010	7	Sololá	701	Sololá	2	El tablón	3	Marzo	2023-02-03T00:00:00	2024-11-06T06:00:00	4	Temperatura máxima	9.8
140011	7	Sololá	701	Sololá	2	El tablón	3	Marzo	2023-02-03T00:00:00	2024-11-06T06:00:00	3	Temperatura mínima	8.4
140012	7	Sololá	701	Sololá	2	El tablón	3	Marzo	2023-02-03T00:00:00	2024-11-06T06:00:00	5	Humedad	90
140013	7	Sololá	701	Sololá	2	El tablón	3	Marzo	2023-02-03T00:00:00	2024-11-06T06:00:00	6	Velocidad del viento	1.6
140014	7	Sololá	701	Sololá	2	El tablón	3	Marzo	2023-02-03T00:00:00	2024-11-06T06:00:00	7	Dirección del viento	1.61
140015	7	Sololá	701	Sololá	2	El tablón	3	Marzo	2023-02-03T00:00:00	2024-11-06T06:00:00	1	Precipitación	0
140016	7	Sololá	701	Sololá	2	El tablón	3	Marzo	2023-02-03T00:00:00	2024-11-06T06:00:00	8	Radiación solar	0
140017	7	Sololá	701	Sololá	2	El tablón	3	Marzo	2023-02-03T00:00:00	2024-11-06T07:00:00	2	Temperatura media	7.9
140018	7	Sololá	701	Sololá	2	El tablón	3	Marzo	2023-02-03T00:00:00	2024-11-06T07:00:00	4	Temperatura máxima	8.3
140019	7	Sololá	701	Sololá	2	El tablón	3	Marzo	2023-02-03T00:00:00	2024-11-06T07:00:00	3	Temperatura mínima	7.6
140020	7	Sololá	701	Sololá	2	El tablón	3	Marzo	2023-02-03T00:00:00	2024-11-06T07:00:00	5	Humedad	90
140021	7	Sololá	701	Sololá	2	El tablón	3	Marzo	2023-02-03T00:00:00	2024-11-06T07:00:00	6	Velocidad del viento	1.6
140022	7	Sololá	701	Sololá	2	El tablón	3	Marzo	2023-02-03T00:00:00	2024-11-06T07:00:00	7	Dirección del viento	1.61
140023	7	Sololá	701	Sololá	2	El tablón	3	Marzo	2023-02-03T00:00:00	2024-11-06T07:00:00	1	Precipitación	0
140024	7	Sololá	701	Sololá	2	El tablón	3	Marzo	2023-02-03T00:00:00	2024-11-06T07:00:00	8	Radiación solar	15
140025	7	Sololá	701	Sololá	2	El tablón	3	Marzo	2023-02-03T00:00:00	2024-11-06T08:00:00	2	Temperatura media	11.2
140026	7	Sololá	701	Sololá	2	El tablón	3	Marzo	2023-02-03T00:00:00	2024-11-06T08:00:00	4	Temperatura máxima	11.2
140027	7	Sololá	701	Sololá	2	El tablón	3	Marzo	2023-02-03T00:00:00	2024-11-06T08:00:00	3	Temperatura mínima	7.9
140028	7	Sololá	701	Sololá	2	El tablón	3	Marzo	2023-02-03T00:00:00	2024-11-06T08:00:00	5	Humedad	85
140029	7	Sololá	701	Sololá	2	El tablón	3	Marzo	2023-02-03T00:00:00	2024-11-06T08:00:00	6	Velocidad del viento	1.6
140030	7	Sololá	701	Sololá	2	El tablón	3	Marzo	2023-02-03T00:00:00	2024-11-06T08:00:00	7	Dirección del viento	1.61
140031	7	Sololá	701	Sololá	2	El tablón	3	Marzo	2023-02-03T00:00:00	2024-11-06T08:00:00	1	Precipitación	0
140032	7	Sololá	701	Sololá	2	El tablón	3	Marzo	2023-02-03T00:00:00	2024-11-06T08:00:00	8	Radiación solar	142
140033	7	Sololá	701	Sololá	2	El tablón	3	Marzo	2023-02-03T00:00:00	2024-11-06T09:00:00	2	Temperatura media	15.4
140034	7	Sololá	701	Sololá	2	El tablón	3	Marzo	2023-02-03T00:00:00	2024-11-06T09:00:00	4	Temperatura máxima	15.4
140035	7	Sololá	701	Sololá	2	El tablón	3	Marzo	2023-02-03T00:00:00	2024-11-06T09:00:00	3	Temperatura mínima	11.2
140036	7	Sololá	701	Sololá	2	El tablón	3	Marzo	2023-02-03T00:00:00	2024-11-06T09:00:00	5	Humedad	70
140037	7	Sololá	701	Sololá	2	El tablón	3	Marzo	2023-02-03T00:00:00	2024-11-06T09:00:00	6	Velocidad del viento	1.6
140038	7	Sololá	701	Sololá	2	El tablón	3	Marzo	2023-02-03T00:00:00	2024-11-06T09:00:00	7	Dirección del viento	1.61
140039	7	Sololá	701	Sololá	2	El tablón	3	Marzo	2023-02-03T00:00:00	2024-11-06T09:00:00	1	Precipitación	0
140040	7	Sololá	701	Sololá	2	El tablón	3	Marzo	2023-02-03T00:00:00	2024-11-06T09:00:00	8	Radiación solar	395
140041	7	Sololá	701	Sololá	2	El tablón	3	Marzo	2023-02-03T00:00:00	2024-11-06T10:00:00	2	Temperatura media	16.5
140042	7	Sololá	701	Sololá	2	El tablón	3	Marzo	2023-02-03T00:00:00	2024-11-06T10:00:00	4	Temperatura máxima	16.7
140043	7	Sololá	701	Sololá	2	El tablón	3	Marzo	2023-02-03T00:00:00	2024-11-06T10:00:00	3	Temperatura mínima	15.4
140044	7	Sololá	701	Sololá	2	El tablón	3	Marzo	2023-02-03T00:00:00	2024-11-06T10:00:00	5	Humedad	45
140045	7	Sololá	701	Sololá	2	El tablón	3	Marzo	2023-02-03T00:00:00	2024-11-06T10:00:00	6	Velocidad del viento	4.8
140046	7	Sololá	701	Sololá	2	El tablón	3	Marzo	2023-02-03T00:00:00	2024-11-06T10:00:00	7	Dirección del viento	4.83
140047	7	Sololá	701	Sololá	2	El tablón	3	Marzo	2023-02-03T00:00:00	2024-11-06T10:00:00	1	Precipitación	0
140048	7	Sololá	701	Sololá	2	El tablón	3	Marzo	2023-02-03T00:00:00	2024-11-06T10:00:00	8	Radiación solar	632
140049	7	Sololá	701	Sololá	2	El tablón	3	Marzo	2023-02-03T00:00:00	2024-11-06T11:00:00	2	Temperatura media	17.8
140050	7	Sololá	701	Sololá	2	El tablón	3	Marzo	2023-02-03T00:00:00	2024-11-06T11:00:00	4	Temperatura máxima	17.8
140051	7	Sololá	701	Sololá	2	El tablón	3	Marzo	2023-02-03T00:00:00	2024-11-06T11:00:00	3	Temperatura mínima	16.4
140052	7	Sololá	701	Sololá	2	El tablón	3	Marzo	2023-02-03T00:00:00	2024-11-06T11:00:00	5	Humedad	34
140053	7	Sololá	701	Sololá	2	El tablón	3	Marzo	2023-02-03T00:00:00	2024-11-06T11:00:00	6	Velocidad del viento	6.4
140054	7	Sololá	701	Sololá	2	El tablón	3	Marzo	2023-02-03T00:00:00	2024-11-06T11:00:00	7	Dirección del viento	6.44
140055	7	Sololá	701	Sololá	2	El tablón	3	Marzo	2023-02-03T00:00:00	2024-11-06T11:00:00	1	Precipitación	0
140056	7	Sololá	701	Sololá	2	El tablón	3	Marzo	2023-02-03T00:00:00	2024-11-06T11:00:00	8	Radiación solar	793
140057	7	Sololá	701	Sololá	2	El tablón	3	Marzo	2023-02-03T00:00:00	2024-11-06T12:00:00	2	Temperatura media	18.7
140058	7	Sololá	701	Sololá	2	El tablón	3	Marzo	2023-02-03T00:00:00	2024-11-06T12:00:00	4	Temperatura máxima	19
140059	7	Sololá	701	Sololá	2	El tablón	3	Marzo	2023-02-03T00:00:00	2024-11-06T12:00:00	3	Temperatura mínima	17.7
140060	7	Sololá	701	Sololá	2	El tablón	3	Marzo	2023-02-03T00:00:00	2024-11-06T12:00:00	5	Humedad	48
140061	7	Sololá	701	Sololá	2	El tablón	3	Marzo	2023-02-03T00:00:00	2024-11-06T12:00:00	6	Velocidad del viento	6.4
140062	7	Sololá	701	Sololá	2	El tablón	3	Marzo	2023-02-03T00:00:00	2024-11-06T12:00:00	7	Dirección del viento	6.44
140063	7	Sololá	701	Sololá	2	El tablón	3	Marzo	2023-02-03T00:00:00	2024-11-06T12:00:00	1	Precipitación	0
140064	7	Sololá	701	Sololá	2	El tablón	3	Marzo	2023-02-03T00:00:00	2024-11-06T12:00:00	8	Radiación solar	861
140065	7	Sololá	701	Sololá	2	El tablón	3	Marzo	2023-02-03T00:00:00	2024-11-06T13:00:00	2	Temperatura media	18.5
140066	7	Sololá	701	Sololá	2	El tablón	3	Marzo	2023-02-03T00:00:00	2024-11-06T13:00:00	4	Temperatura máxima	18.9
140067	7	Sololá	701	Sololá	2	El tablón	3	Marzo	2023-02-03T00:00:00	2024-11-06T13:00:00	3	Temperatura mínima	18.4
140068	7	Sololá	701	Sololá	2	El tablón	3	Marzo	2023-02-03T00:00:00	2024-11-06T13:00:00	5	Humedad	44
140069	7	Sololá	701	Sololá	2	El tablón	3	Marzo	2023-02-03T00:00:00	2024-11-06T13:00:00	6	Velocidad del viento	9.7
140070	7	Sololá	701	Sololá	2	El tablón	3	Marzo	2023-02-03T00:00:00	2024-11-06T13:00:00	7	Dirección del viento	9.66
140071	7	Sololá	701	Sololá	2	El tablón	3	Marzo	2023-02-03T00:00:00	2024-11-06T13:00:00	1	Precipitación	0
140072	7	Sololá	701	Sololá	2	El tablón	3	Marzo	2023-02-03T00:00:00	2024-11-06T13:00:00	8	Radiación solar	875
140073	7	Sololá	701	Sololá	2	El tablón	3	Marzo	2023-02-03T00:00:00	2024-11-06T14:00:00	2	Temperatura media	17.5
140074	7	Sololá	701	Sololá	2	El tablón	3	Marzo	2023-02-03T00:00:00	2024-11-06T14:00:00	4	Temperatura máxima	18.7
140075	7	Sololá	701	Sololá	2	El tablón	3	Marzo	2023-02-03T00:00:00	2024-11-06T14:00:00	3	Temperatura mínima	17.5
140076	7	Sololá	701	Sololá	2	El tablón	3	Marzo	2023-02-03T00:00:00	2024-11-06T14:00:00	5	Humedad	70
140077	7	Sololá	701	Sololá	2	El tablón	3	Marzo	2023-02-03T00:00:00	2024-11-06T14:00:00	6	Velocidad del viento	9.7
140078	7	Sololá	701	Sololá	2	El tablón	3	Marzo	2023-02-03T00:00:00	2024-11-06T14:00:00	7	Dirección del viento	9.66
140079	7	Sololá	701	Sololá	2	El tablón	3	Marzo	2023-02-03T00:00:00	2024-11-06T14:00:00	1	Precipitación	0
140080	7	Sololá	701	Sololá	2	El tablón	3	Marzo	2023-02-03T00:00:00	2024-11-06T14:00:00	8	Radiación solar	870
140081	7	Sololá	701	Sololá	2	El tablón	3	Marzo	2023-02-03T00:00:00	2024-11-06T15:00:00	2	Temperatura media	16.6
140082	7	Sololá	701	Sololá	2	El tablón	3	Marzo	2023-02-03T00:00:00	2024-11-06T15:00:00	4	Temperatura máxima	17.5
140083	7	Sololá	701	Sololá	2	El tablón	3	Marzo	2023-02-03T00:00:00	2024-11-06T15:00:00	3	Temperatura mínima	16.6
140084	7	Sololá	701	Sololá	2	El tablón	3	Marzo	2023-02-03T00:00:00	2024-11-06T15:00:00	5	Humedad	79
140085	7	Sololá	701	Sololá	2	El tablón	3	Marzo	2023-02-03T00:00:00	2024-11-06T15:00:00	6	Velocidad del viento	11.3
140086	7	Sololá	701	Sololá	2	El tablón	3	Marzo	2023-02-03T00:00:00	2024-11-06T15:00:00	7	Dirección del viento	11.27
140087	7	Sololá	701	Sololá	2	El tablón	3	Marzo	2023-02-03T00:00:00	2024-11-06T15:00:00	1	Precipitación	0
140088	7	Sololá	701	Sololá	2	El tablón	3	Marzo	2023-02-03T00:00:00	2024-11-06T15:00:00	8	Radiación solar	788
140089	7	Sololá	701	Sololá	2	El tablón	3	Marzo	2023-02-03T00:00:00	2024-11-06T16:00:00	2	Temperatura media	16.4
140090	7	Sololá	701	Sololá	2	El tablón	3	Marzo	2023-02-03T00:00:00	2024-11-06T16:00:00	4	Temperatura máxima	17.1
140091	7	Sololá	701	Sololá	2	El tablón	3	Marzo	2023-02-03T00:00:00	2024-11-06T16:00:00	3	Temperatura mínima	16.3
140092	7	Sololá	701	Sololá	2	El tablón	3	Marzo	2023-02-03T00:00:00	2024-11-06T16:00:00	5	Humedad	81
140093	7	Sololá	701	Sololá	2	El tablón	3	Marzo	2023-02-03T00:00:00	2024-11-06T16:00:00	6	Velocidad del viento	9.7
140094	7	Sololá	701	Sololá	2	El tablón	3	Marzo	2023-02-03T00:00:00	2024-11-06T16:00:00	7	Dirección del viento	9.66
140095	7	Sololá	701	Sololá	2	El tablón	3	Marzo	2023-02-03T00:00:00	2024-11-06T16:00:00	1	Precipitación	0
140096	7	Sololá	701	Sololá	2	El tablón	3	Marzo	2023-02-03T00:00:00	2024-11-06T16:00:00	8	Radiación solar	607
140097	7	Sololá	701	Sololá	2	El tablón	3	Marzo	2023-02-03T00:00:00	2024-11-06T17:00:00	2	Temperatura media	14.4
140098	7	Sololá	701	Sololá	2	El tablón	3	Marzo	2023-02-03T00:00:00	2024-11-06T17:00:00	4	Temperatura máxima	16.4
140099	7	Sololá	701	Sololá	2	El tablón	3	Marzo	2023-02-03T00:00:00	2024-11-06T17:00:00	3	Temperatura mínima	14.4
140100	7	Sololá	701	Sololá	2	El tablón	3	Marzo	2023-02-03T00:00:00	2024-11-06T17:00:00	5	Humedad	88
140101	7	Sololá	701	Sololá	2	El tablón	3	Marzo	2023-02-03T00:00:00	2024-11-06T17:00:00	6	Velocidad del viento	8
140102	7	Sololá	701	Sololá	2	El tablón	3	Marzo	2023-02-03T00:00:00	2024-11-06T17:00:00	7	Dirección del viento	8.05
140103	7	Sololá	701	Sololá	2	El tablón	3	Marzo	2023-02-03T00:00:00	2024-11-06T17:00:00	1	Precipitación	0
140104	7	Sololá	701	Sololá	2	El tablón	3	Marzo	2023-02-03T00:00:00	2024-11-06T17:00:00	8	Radiación solar	172
140105	7	Sololá	701	Sololá	2	El tablón	3	Marzo	2023-02-03T00:00:00	2024-11-06T18:00:00	2	Temperatura media	14.3
140106	7	Sololá	701	Sololá	2	El tablón	3	Marzo	2023-02-03T00:00:00	2024-11-06T18:00:00	4	Temperatura máxima	14.8
140107	7	Sololá	701	Sololá	2	El tablón	3	Marzo	2023-02-03T00:00:00	2024-11-06T18:00:00	3	Temperatura mínima	14.3
140108	7	Sololá	701	Sololá	2	El tablón	3	Marzo	2023-02-03T00:00:00	2024-11-06T18:00:00	5	Humedad	86
140109	7	Sololá	701	Sololá	2	El tablón	3	Marzo	2023-02-03T00:00:00	2024-11-06T18:00:00	6	Velocidad del viento	4.8
140110	7	Sololá	701	Sololá	2	El tablón	3	Marzo	2023-02-03T00:00:00	2024-11-06T18:00:00	7	Dirección del viento	4.83
140111	7	Sololá	701	Sololá	2	El tablón	3	Marzo	2023-02-03T00:00:00	2024-11-06T18:00:00	1	Precipitación	0
140112	7	Sololá	701	Sololá	2	El tablón	3	Marzo	2023-02-03T00:00:00	2024-11-06T18:00:00	8	Radiación solar	93
140113	7	Sololá	701	Sololá	2	El tablón	3	Marzo	2023-02-03T00:00:00	2024-11-06T19:00:00	2	Temperatura media	13.3
140114	7	Sololá	701	Sololá	2	El tablón	3	Marzo	2023-02-03T00:00:00	2024-11-06T19:00:00	4	Temperatura máxima	14.3
140115	7	Sololá	701	Sololá	2	El tablón	3	Marzo	2023-02-03T00:00:00	2024-11-06T19:00:00	3	Temperatura mínima	13.2
140116	7	Sololá	701	Sololá	2	El tablón	3	Marzo	2023-02-03T00:00:00	2024-11-06T19:00:00	5	Humedad	89
140117	7	Sololá	701	Sololá	2	El tablón	3	Marzo	2023-02-03T00:00:00	2024-11-06T19:00:00	6	Velocidad del viento	3.2
140118	7	Sololá	701	Sololá	2	El tablón	3	Marzo	2023-02-03T00:00:00	2024-11-06T19:00:00	7	Dirección del viento	3.22
140119	7	Sololá	701	Sololá	2	El tablón	3	Marzo	2023-02-03T00:00:00	2024-11-06T19:00:00	1	Precipitación	0
140120	7	Sololá	701	Sololá	2	El tablón	3	Marzo	2023-02-03T00:00:00	2024-11-06T19:00:00	8	Radiación solar	0
140121	7	Sololá	701	Sololá	2	El tablón	3	Marzo	2023-02-03T00:00:00	2024-11-06T20:00:00	2	Temperatura media	12.2
140122	7	Sololá	701	Sololá	2	El tablón	3	Marzo	2023-02-03T00:00:00	2024-11-06T20:00:00	4	Temperatura máxima	13.3
140123	7	Sololá	701	Sololá	2	El tablón	3	Marzo	2023-02-03T00:00:00	2024-11-06T20:00:00	3	Temperatura mínima	12.2
140124	7	Sololá	701	Sololá	2	El tablón	3	Marzo	2023-02-03T00:00:00	2024-11-06T20:00:00	5	Humedad	89
140125	7	Sololá	701	Sololá	2	El tablón	3	Marzo	2023-02-03T00:00:00	2024-11-06T20:00:00	6	Velocidad del viento	3.2
140126	7	Sololá	701	Sololá	2	El tablón	3	Marzo	2023-02-03T00:00:00	2024-11-06T20:00:00	7	Dirección del viento	3.22
140127	7	Sololá	701	Sololá	2	El tablón	3	Marzo	2023-02-03T00:00:00	2024-11-06T20:00:00	1	Precipitación	0
140128	7	Sololá	701	Sololá	2	El tablón	3	Marzo	2023-02-03T00:00:00	2024-11-06T20:00:00	8	Radiación solar	0
140129	7	Sololá	701	Sololá	2	El tablón	3	Marzo	2023-02-03T00:00:00	2024-11-06T21:00:00	2	Temperatura media	11.5
140130	7	Sololá	701	Sololá	2	El tablón	3	Marzo	2023-02-03T00:00:00	2024-11-06T21:00:00	4	Temperatura máxima	12.2
140131	7	Sololá	701	Sololá	2	El tablón	3	Marzo	2023-02-03T00:00:00	2024-11-06T21:00:00	3	Temperatura mínima	11.5
140132	7	Sololá	701	Sololá	2	El tablón	3	Marzo	2023-02-03T00:00:00	2024-11-06T21:00:00	5	Humedad	90
140133	7	Sololá	701	Sololá	2	El tablón	3	Marzo	2023-02-03T00:00:00	2024-11-06T21:00:00	6	Velocidad del viento	1.6
140134	7	Sololá	701	Sololá	2	El tablón	3	Marzo	2023-02-03T00:00:00	2024-11-06T21:00:00	7	Dirección del viento	1.61
140135	7	Sololá	701	Sololá	2	El tablón	3	Marzo	2023-02-03T00:00:00	2024-11-06T21:00:00	1	Precipitación	0
140136	7	Sololá	701	Sololá	2	El tablón	3	Marzo	2023-02-03T00:00:00	2024-11-06T21:00:00	8	Radiación solar	0
140137	7	Sololá	701	Sololá	2	El tablón	3	Marzo	2023-02-03T00:00:00	2024-11-06T22:00:00	2	Temperatura media	9.9
140138	7	Sololá	701	Sololá	2	El tablón	3	Marzo	2023-02-03T00:00:00	2024-11-06T22:00:00	4	Temperatura máxima	11.5
140139	7	Sololá	701	Sololá	2	El tablón	3	Marzo	2023-02-03T00:00:00	2024-11-06T22:00:00	3	Temperatura mínima	9.9
140140	7	Sololá	701	Sololá	2	El tablón	3	Marzo	2023-02-03T00:00:00	2024-11-06T22:00:00	5	Humedad	90
140141	7	Sololá	701	Sololá	2	El tablón	3	Marzo	2023-02-03T00:00:00	2024-11-06T22:00:00	6	Velocidad del viento	1.6
140142	7	Sololá	701	Sololá	2	El tablón	3	Marzo	2023-02-03T00:00:00	2024-11-06T22:00:00	7	Dirección del viento	1.61
140143	7	Sololá	701	Sololá	2	El tablón	3	Marzo	2023-02-03T00:00:00	2024-11-06T22:00:00	1	Precipitación	0
140144	7	Sololá	701	Sololá	2	El tablón	3	Marzo	2023-02-03T00:00:00	2024-11-06T22:00:00	8	Radiación solar	0
140145	7	Sololá	701	Sololá	2	El tablón	3	Marzo	2023-02-03T00:00:00	2024-11-06T23:00:00	2	Temperatura media	8.4
140146	7	Sololá	701	Sololá	2	El tablón	3	Marzo	2023-02-03T00:00:00	2024-11-06T23:00:00	4	Temperatura máxima	9.9
140147	7	Sololá	701	Sololá	2	El tablón	3	Marzo	2023-02-03T00:00:00	2024-11-06T23:00:00	3	Temperatura mínima	8.1
140148	7	Sololá	701	Sololá	2	El tablón	3	Marzo	2023-02-03T00:00:00	2024-11-06T23:00:00	5	Humedad	66
140149	7	Sololá	701	Sololá	2	El tablón	3	Marzo	2023-02-03T00:00:00	2024-11-06T23:00:00	6	Velocidad del viento	1.6
140150	7	Sololá	701	Sololá	2	El tablón	3	Marzo	2023-02-03T00:00:00	2024-11-06T23:00:00	7	Dirección del viento	1.61
140151	7	Sololá	701	Sololá	2	El tablón	3	Marzo	2023-02-03T00:00:00	2024-11-06T23:00:00	1	Precipitación	0
140152	7	Sololá	701	Sololá	2	El tablón	3	Marzo	2023-02-03T00:00:00	2024-11-06T23:00:00	8	Radiación solar	0
140153	7	Sololá	701	Sololá	2	El tablón	3	Marzo	2023-03-03T00:00:00	2024-11-06T00:00:00	2	Temperatura media	10.6
140154	7	Sololá	701	Sololá	2	El tablón	3	Marzo	2023-03-03T00:00:00	2024-11-06T00:00:00	4	Temperatura máxima	10.6
140155	7	Sololá	701	Sololá	2	El tablón	3	Marzo	2023-03-03T00:00:00	2024-11-06T00:00:00	3	Temperatura mínima	8.4
140156	7	Sololá	701	Sololá	2	El tablón	3	Marzo	2023-03-03T00:00:00	2024-11-06T00:00:00	5	Humedad	37
140157	7	Sololá	701	Sololá	2	El tablón	3	Marzo	2023-03-03T00:00:00	2024-11-06T00:00:00	6	Velocidad del viento	1.6
140158	7	Sololá	701	Sololá	2	El tablón	3	Marzo	2023-03-03T00:00:00	2024-11-06T00:00:00	7	Dirección del viento	1.61
140159	7	Sololá	701	Sololá	2	El tablón	3	Marzo	2023-03-03T00:00:00	2024-11-06T00:00:00	1	Precipitación	0
140160	7	Sololá	701	Sololá	2	El tablón	3	Marzo	2023-03-03T00:00:00	2024-11-06T00:00:00	8	Radiación solar	0
140161	7	Sololá	701	Sololá	2	El tablón	3	Marzo	2023-03-03T00:00:00	2024-11-06T01:00:00	2	Temperatura media	9.1
140162	7	Sololá	701	Sololá	2	El tablón	3	Marzo	2023-03-03T00:00:00	2024-11-06T01:00:00	4	Temperatura máxima	10.6
140163	7	Sololá	701	Sololá	2	El tablón	3	Marzo	2023-03-03T00:00:00	2024-11-06T01:00:00	3	Temperatura mínima	9.1
140164	7	Sololá	701	Sololá	2	El tablón	3	Marzo	2023-03-03T00:00:00	2024-11-06T01:00:00	5	Humedad	36
140165	7	Sololá	701	Sololá	2	El tablón	3	Marzo	2023-03-03T00:00:00	2024-11-06T01:00:00	6	Velocidad del viento	1.6
140166	7	Sololá	701	Sololá	2	El tablón	3	Marzo	2023-03-03T00:00:00	2024-11-06T01:00:00	7	Dirección del viento	1.61
140167	7	Sololá	701	Sololá	2	El tablón	3	Marzo	2023-03-03T00:00:00	2024-11-06T01:00:00	1	Precipitación	0
140168	7	Sololá	701	Sololá	2	El tablón	3	Marzo	2023-03-03T00:00:00	2024-11-06T01:00:00	8	Radiación solar	0
140169	7	Sololá	701	Sololá	2	El tablón	3	Marzo	2023-03-03T00:00:00	2024-11-06T02:00:00	2	Temperatura media	11
140170	7	Sololá	701	Sololá	2	El tablón	3	Marzo	2023-03-03T00:00:00	2024-11-06T02:00:00	4	Temperatura máxima	11.3
140171	7	Sololá	701	Sololá	2	El tablón	3	Marzo	2023-03-03T00:00:00	2024-11-06T02:00:00	3	Temperatura mínima	9.1
140172	7	Sololá	701	Sololá	2	El tablón	3	Marzo	2023-03-03T00:00:00	2024-11-06T02:00:00	5	Humedad	29
140173	7	Sololá	701	Sololá	2	El tablón	3	Marzo	2023-03-03T00:00:00	2024-11-06T02:00:00	6	Velocidad del viento	6.4
140174	7	Sololá	701	Sololá	2	El tablón	3	Marzo	2023-03-03T00:00:00	2024-11-06T02:00:00	7	Dirección del viento	6.44
140175	7	Sololá	701	Sololá	2	El tablón	3	Marzo	2023-03-03T00:00:00	2024-11-06T02:00:00	1	Precipitación	0
140176	7	Sololá	701	Sololá	2	El tablón	3	Marzo	2023-03-03T00:00:00	2024-11-06T02:00:00	8	Radiación solar	0
140177	7	Sololá	701	Sololá	2	El tablón	3	Marzo	2023-03-03T00:00:00	2024-11-06T03:00:00	2	Temperatura media	12.1
140178	7	Sololá	701	Sololá	2	El tablón	3	Marzo	2023-03-03T00:00:00	2024-11-06T03:00:00	4	Temperatura máxima	12.1
140179	7	Sololá	701	Sololá	2	El tablón	3	Marzo	2023-03-03T00:00:00	2024-11-06T03:00:00	3	Temperatura mínima	11
140180	7	Sololá	701	Sololá	2	El tablón	3	Marzo	2023-03-03T00:00:00	2024-11-06T03:00:00	5	Humedad	35
140181	7	Sololá	701	Sololá	2	El tablón	3	Marzo	2023-03-03T00:00:00	2024-11-06T03:00:00	6	Velocidad del viento	4.8
140182	7	Sololá	701	Sololá	2	El tablón	3	Marzo	2023-03-03T00:00:00	2024-11-06T03:00:00	7	Dirección del viento	4.83
140183	7	Sololá	701	Sololá	2	El tablón	3	Marzo	2023-03-03T00:00:00	2024-11-06T03:00:00	1	Precipitación	0
140184	7	Sololá	701	Sololá	2	El tablón	3	Marzo	2023-03-03T00:00:00	2024-11-06T03:00:00	8	Radiación solar	0
140185	7	Sololá	701	Sololá	2	El tablón	3	Marzo	2023-03-03T00:00:00	2024-11-06T04:00:00	2	Temperatura media	11.9
140186	7	Sololá	701	Sololá	2	El tablón	3	Marzo	2023-03-03T00:00:00	2024-11-06T04:00:00	4	Temperatura máxima	12.1
140187	7	Sololá	701	Sololá	2	El tablón	3	Marzo	2023-03-03T00:00:00	2024-11-06T04:00:00	3	Temperatura mínima	11.7
140188	7	Sololá	701	Sololá	2	El tablón	3	Marzo	2023-03-03T00:00:00	2024-11-06T04:00:00	5	Humedad	40
140189	7	Sololá	701	Sololá	2	El tablón	3	Marzo	2023-03-03T00:00:00	2024-11-06T04:00:00	6	Velocidad del viento	4.8
140190	7	Sololá	701	Sololá	2	El tablón	3	Marzo	2023-03-03T00:00:00	2024-11-06T04:00:00	7	Dirección del viento	4.83
140191	7	Sololá	701	Sololá	2	El tablón	3	Marzo	2023-03-03T00:00:00	2024-11-06T04:00:00	1	Precipitación	0
140192	7	Sololá	701	Sololá	2	El tablón	3	Marzo	2023-03-03T00:00:00	2024-11-06T04:00:00	8	Radiación solar	0
140193	7	Sololá	701	Sololá	2	El tablón	3	Marzo	2023-03-03T00:00:00	2024-11-06T05:00:00	2	Temperatura media	11.6
140194	7	Sololá	701	Sololá	2	El tablón	3	Marzo	2023-03-03T00:00:00	2024-11-06T05:00:00	4	Temperatura máxima	11.9
140195	7	Sololá	701	Sololá	2	El tablón	3	Marzo	2023-03-03T00:00:00	2024-11-06T05:00:00	3	Temperatura mínima	11.6
140196	7	Sololá	701	Sololá	2	El tablón	3	Marzo	2023-03-03T00:00:00	2024-11-06T05:00:00	5	Humedad	40
140197	7	Sololá	701	Sololá	2	El tablón	3	Marzo	2023-03-03T00:00:00	2024-11-06T05:00:00	6	Velocidad del viento	4.8
140198	7	Sololá	701	Sololá	2	El tablón	3	Marzo	2023-03-03T00:00:00	2024-11-06T05:00:00	7	Dirección del viento	4.83
140199	7	Sololá	701	Sololá	2	El tablón	3	Marzo	2023-03-03T00:00:00	2024-11-06T05:00:00	1	Precipitación	0
140200	7	Sololá	701	Sololá	2	El tablón	3	Marzo	2023-03-03T00:00:00	2024-11-06T05:00:00	8	Radiación solar	0
140201	7	Sololá	701	Sololá	2	El tablón	3	Marzo	2023-03-03T00:00:00	2024-11-06T06:00:00	2	Temperatura media	11.6
140202	7	Sololá	701	Sololá	2	El tablón	3	Marzo	2023-03-03T00:00:00	2024-11-06T06:00:00	4	Temperatura máxima	11.8
140203	7	Sololá	701	Sololá	2	El tablón	3	Marzo	2023-03-03T00:00:00	2024-11-06T06:00:00	3	Temperatura mínima	11.4
140204	7	Sololá	701	Sololá	2	El tablón	3	Marzo	2023-03-03T00:00:00	2024-11-06T06:00:00	5	Humedad	47
140205	7	Sololá	701	Sololá	2	El tablón	3	Marzo	2023-03-03T00:00:00	2024-11-06T06:00:00	6	Velocidad del viento	6.4
140206	7	Sololá	701	Sololá	2	El tablón	3	Marzo	2023-03-03T00:00:00	2024-11-06T06:00:00	7	Dirección del viento	6.44
140207	7	Sololá	701	Sololá	2	El tablón	3	Marzo	2023-03-03T00:00:00	2024-11-06T06:00:00	1	Precipitación	0
140208	7	Sololá	701	Sololá	2	El tablón	3	Marzo	2023-03-03T00:00:00	2024-11-06T06:00:00	8	Radiación solar	0
140209	7	Sololá	701	Sololá	2	El tablón	3	Marzo	2023-03-03T00:00:00	2024-11-06T07:00:00	2	Temperatura media	12.4
140210	7	Sololá	701	Sololá	2	El tablón	3	Marzo	2023-03-03T00:00:00	2024-11-06T07:00:00	4	Temperatura máxima	12.4
140211	7	Sololá	701	Sololá	2	El tablón	3	Marzo	2023-03-03T00:00:00	2024-11-06T07:00:00	3	Temperatura mínima	11.5
140212	7	Sololá	701	Sololá	2	El tablón	3	Marzo	2023-03-03T00:00:00	2024-11-06T07:00:00	5	Humedad	50
140213	7	Sololá	701	Sololá	2	El tablón	3	Marzo	2023-03-03T00:00:00	2024-11-06T07:00:00	6	Velocidad del viento	8
140214	7	Sololá	701	Sololá	2	El tablón	3	Marzo	2023-03-03T00:00:00	2024-11-06T07:00:00	7	Dirección del viento	8.05
140215	7	Sololá	701	Sololá	2	El tablón	3	Marzo	2023-03-03T00:00:00	2024-11-06T07:00:00	1	Precipitación	0
140216	7	Sololá	701	Sololá	2	El tablón	3	Marzo	2023-03-03T00:00:00	2024-11-06T07:00:00	8	Radiación solar	13
140217	7	Sololá	701	Sololá	2	El tablón	3	Marzo	2023-03-03T00:00:00	2024-11-06T08:00:00	2	Temperatura media	15.4
140218	7	Sololá	701	Sololá	2	El tablón	3	Marzo	2023-03-03T00:00:00	2024-11-06T08:00:00	4	Temperatura máxima	15.4
140219	7	Sololá	701	Sololá	2	El tablón	3	Marzo	2023-03-03T00:00:00	2024-11-06T08:00:00	3	Temperatura mínima	12.4
140220	7	Sololá	701	Sololá	2	El tablón	3	Marzo	2023-03-03T00:00:00	2024-11-06T08:00:00	5	Humedad	46
140221	7	Sololá	701	Sololá	2	El tablón	3	Marzo	2023-03-03T00:00:00	2024-11-06T08:00:00	6	Velocidad del viento	8
140222	7	Sololá	701	Sololá	2	El tablón	3	Marzo	2023-03-03T00:00:00	2024-11-06T08:00:00	7	Dirección del viento	8.05
140223	7	Sololá	701	Sololá	2	El tablón	3	Marzo	2023-03-03T00:00:00	2024-11-06T08:00:00	1	Precipitación	0
140224	7	Sololá	701	Sololá	2	El tablón	3	Marzo	2023-03-03T00:00:00	2024-11-06T08:00:00	8	Radiación solar	148
140225	7	Sololá	701	Sololá	2	El tablón	3	Marzo	2023-03-03T00:00:00	2024-11-06T09:00:00	2	Temperatura media	17.1
140226	7	Sololá	701	Sololá	2	El tablón	3	Marzo	2023-03-03T00:00:00	2024-11-06T09:00:00	4	Temperatura máxima	17.1
140227	7	Sololá	701	Sololá	2	El tablón	3	Marzo	2023-03-03T00:00:00	2024-11-06T09:00:00	3	Temperatura mínima	15.4
140228	7	Sololá	701	Sololá	2	El tablón	3	Marzo	2023-03-03T00:00:00	2024-11-06T09:00:00	5	Humedad	42
140229	7	Sololá	701	Sololá	2	El tablón	3	Marzo	2023-03-03T00:00:00	2024-11-06T09:00:00	6	Velocidad del viento	8
140230	7	Sololá	701	Sololá	2	El tablón	3	Marzo	2023-03-03T00:00:00	2024-11-06T09:00:00	7	Dirección del viento	8.05
140231	7	Sololá	701	Sololá	2	El tablón	3	Marzo	2023-03-03T00:00:00	2024-11-06T09:00:00	1	Precipitación	0
140232	7	Sololá	701	Sololá	2	El tablón	3	Marzo	2023-03-03T00:00:00	2024-11-06T09:00:00	8	Radiación solar	415
140233	7	Sololá	701	Sololá	2	El tablón	3	Marzo	2023-03-03T00:00:00	2024-11-06T10:00:00	2	Temperatura media	17.8
140234	7	Sololá	701	Sololá	2	El tablón	3	Marzo	2023-03-03T00:00:00	2024-11-06T10:00:00	4	Temperatura máxima	18.1
140235	7	Sololá	701	Sololá	2	El tablón	3	Marzo	2023-03-03T00:00:00	2024-11-06T10:00:00	3	Temperatura mínima	17.1
140236	7	Sololá	701	Sololá	2	El tablón	3	Marzo	2023-03-03T00:00:00	2024-11-06T10:00:00	5	Humedad	42
140237	7	Sololá	701	Sololá	2	El tablón	3	Marzo	2023-03-03T00:00:00	2024-11-06T10:00:00	6	Velocidad del viento	11.3
140238	7	Sololá	701	Sololá	2	El tablón	3	Marzo	2023-03-03T00:00:00	2024-11-06T10:00:00	7	Dirección del viento	11.27
140239	7	Sololá	701	Sololá	2	El tablón	3	Marzo	2023-03-03T00:00:00	2024-11-06T10:00:00	1	Precipitación	0
140240	7	Sololá	701	Sololá	2	El tablón	3	Marzo	2023-03-03T00:00:00	2024-11-06T10:00:00	8	Radiación solar	645
140241	7	Sololá	701	Sololá	2	El tablón	3	Marzo	2023-03-03T00:00:00	2024-11-06T11:00:00	2	Temperatura media	18.7
140242	7	Sololá	701	Sololá	2	El tablón	3	Marzo	2023-03-03T00:00:00	2024-11-06T11:00:00	4	Temperatura máxima	18.7
140243	7	Sololá	701	Sololá	2	El tablón	3	Marzo	2023-03-03T00:00:00	2024-11-06T11:00:00	3	Temperatura mínima	17.8
140244	7	Sololá	701	Sololá	2	El tablón	3	Marzo	2023-03-03T00:00:00	2024-11-06T11:00:00	5	Humedad	42
140245	7	Sololá	701	Sololá	2	El tablón	3	Marzo	2023-03-03T00:00:00	2024-11-06T11:00:00	6	Velocidad del viento	12.9
140246	7	Sololá	701	Sololá	2	El tablón	3	Marzo	2023-03-03T00:00:00	2024-11-06T11:00:00	7	Dirección del viento	12.87
140247	7	Sololá	701	Sololá	2	El tablón	3	Marzo	2023-03-03T00:00:00	2024-11-06T11:00:00	1	Precipitación	0
140248	7	Sololá	701	Sololá	2	El tablón	3	Marzo	2023-03-03T00:00:00	2024-11-06T11:00:00	8	Radiación solar	803
140249	7	Sololá	701	Sololá	2	El tablón	3	Marzo	2023-03-03T00:00:00	2024-11-06T12:00:00	2	Temperatura media	18.7
140250	7	Sololá	701	Sololá	2	El tablón	3	Marzo	2023-03-03T00:00:00	2024-11-06T12:00:00	4	Temperatura máxima	19
140251	7	Sololá	701	Sololá	2	El tablón	3	Marzo	2023-03-03T00:00:00	2024-11-06T12:00:00	3	Temperatura mínima	18.6
140252	7	Sololá	701	Sololá	2	El tablón	3	Marzo	2023-03-03T00:00:00	2024-11-06T12:00:00	5	Humedad	51
140253	7	Sololá	701	Sololá	2	El tablón	3	Marzo	2023-03-03T00:00:00	2024-11-06T12:00:00	6	Velocidad del viento	11.3
140254	7	Sololá	701	Sololá	2	El tablón	3	Marzo	2023-03-03T00:00:00	2024-11-06T12:00:00	7	Dirección del viento	11.27
140255	7	Sololá	701	Sololá	2	El tablón	3	Marzo	2023-03-03T00:00:00	2024-11-06T12:00:00	1	Precipitación	0
140256	7	Sololá	701	Sololá	2	El tablón	3	Marzo	2023-03-03T00:00:00	2024-11-06T12:00:00	8	Radiación solar	851
140257	7	Sololá	701	Sololá	2	El tablón	3	Marzo	2023-03-03T00:00:00	2024-11-06T13:00:00	2	Temperatura media	18.4
140258	7	Sololá	701	Sololá	2	El tablón	3	Marzo	2023-03-03T00:00:00	2024-11-06T13:00:00	4	Temperatura máxima	18.9
140259	7	Sololá	701	Sololá	2	El tablón	3	Marzo	2023-03-03T00:00:00	2024-11-06T13:00:00	3	Temperatura mínima	17.9
140260	7	Sololá	701	Sololá	2	El tablón	3	Marzo	2023-03-03T00:00:00	2024-11-06T13:00:00	5	Humedad	61
140261	7	Sololá	701	Sololá	2	El tablón	3	Marzo	2023-03-03T00:00:00	2024-11-06T13:00:00	6	Velocidad del viento	12.9
140262	7	Sololá	701	Sololá	2	El tablón	3	Marzo	2023-03-03T00:00:00	2024-11-06T13:00:00	7	Dirección del viento	12.87
140263	7	Sololá	701	Sololá	2	El tablón	3	Marzo	2023-03-03T00:00:00	2024-11-06T13:00:00	1	Precipitación	0
140264	7	Sololá	701	Sololá	2	El tablón	3	Marzo	2023-03-03T00:00:00	2024-11-06T13:00:00	8	Radiación solar	890
140265	7	Sololá	701	Sololá	2	El tablón	3	Marzo	2023-03-03T00:00:00	2024-11-06T14:00:00	2	Temperatura media	17.9
140266	7	Sololá	701	Sololá	2	El tablón	3	Marzo	2023-03-03T00:00:00	2024-11-06T14:00:00	4	Temperatura máxima	18.7
140267	7	Sololá	701	Sololá	2	El tablón	3	Marzo	2023-03-03T00:00:00	2024-11-06T14:00:00	3	Temperatura mínima	17.9
140268	7	Sololá	701	Sololá	2	El tablón	3	Marzo	2023-03-03T00:00:00	2024-11-06T14:00:00	5	Humedad	67
140269	7	Sololá	701	Sololá	2	El tablón	3	Marzo	2023-03-03T00:00:00	2024-11-06T14:00:00	6	Velocidad del viento	9.7
140270	7	Sololá	701	Sololá	2	El tablón	3	Marzo	2023-03-03T00:00:00	2024-11-06T14:00:00	7	Dirección del viento	9.66
140271	7	Sololá	701	Sololá	2	El tablón	3	Marzo	2023-03-03T00:00:00	2024-11-06T14:00:00	1	Precipitación	0
140272	7	Sololá	701	Sololá	2	El tablón	3	Marzo	2023-03-03T00:00:00	2024-11-06T14:00:00	8	Radiación solar	865
140273	7	Sololá	701	Sololá	2	El tablón	3	Marzo	2023-03-03T00:00:00	2024-11-06T15:00:00	2	Temperatura media	17.4
140274	7	Sololá	701	Sololá	2	El tablón	3	Marzo	2023-03-03T00:00:00	2024-11-06T15:00:00	4	Temperatura máxima	17.9
140275	7	Sololá	701	Sololá	2	El tablón	3	Marzo	2023-03-03T00:00:00	2024-11-06T15:00:00	3	Temperatura mínima	17.1
140276	7	Sololá	701	Sololá	2	El tablón	3	Marzo	2023-03-03T00:00:00	2024-11-06T15:00:00	5	Humedad	75
140277	7	Sololá	701	Sololá	2	El tablón	3	Marzo	2023-03-03T00:00:00	2024-11-06T15:00:00	6	Velocidad del viento	11.3
140278	7	Sololá	701	Sololá	2	El tablón	3	Marzo	2023-03-03T00:00:00	2024-11-06T15:00:00	7	Dirección del viento	11.27
140279	7	Sololá	701	Sololá	2	El tablón	3	Marzo	2023-03-03T00:00:00	2024-11-06T15:00:00	1	Precipitación	0
140280	7	Sololá	701	Sololá	2	El tablón	3	Marzo	2023-03-03T00:00:00	2024-11-06T15:00:00	8	Radiación solar	754
140281	7	Sololá	701	Sololá	2	El tablón	3	Marzo	2023-03-03T00:00:00	2024-11-06T16:00:00	2	Temperatura media	16.4
140282	7	Sololá	701	Sololá	2	El tablón	3	Marzo	2023-03-03T00:00:00	2024-11-06T16:00:00	4	Temperatura máxima	17.4
140283	7	Sololá	701	Sololá	2	El tablón	3	Marzo	2023-03-03T00:00:00	2024-11-06T16:00:00	3	Temperatura mínima	15.9
140284	7	Sololá	701	Sololá	2	El tablón	3	Marzo	2023-03-03T00:00:00	2024-11-06T16:00:00	5	Humedad	80
140285	7	Sololá	701	Sololá	2	El tablón	3	Marzo	2023-03-03T00:00:00	2024-11-06T16:00:00	6	Velocidad del viento	9.7
140286	7	Sololá	701	Sololá	2	El tablón	3	Marzo	2023-03-03T00:00:00	2024-11-06T16:00:00	7	Dirección del viento	9.66
140287	7	Sololá	701	Sololá	2	El tablón	3	Marzo	2023-03-03T00:00:00	2024-11-06T16:00:00	1	Precipitación	0
140288	7	Sololá	701	Sololá	2	El tablón	3	Marzo	2023-03-03T00:00:00	2024-11-06T16:00:00	8	Radiación solar	445
140289	7	Sololá	701	Sololá	2	El tablón	3	Marzo	2023-03-03T00:00:00	2024-11-06T17:00:00	2	Temperatura media	14.9
140290	7	Sololá	701	Sololá	2	El tablón	3	Marzo	2023-03-03T00:00:00	2024-11-06T17:00:00	4	Temperatura máxima	16.3
140291	7	Sololá	701	Sololá	2	El tablón	3	Marzo	2023-03-03T00:00:00	2024-11-06T17:00:00	3	Temperatura mínima	14.9
140292	7	Sololá	701	Sololá	2	El tablón	3	Marzo	2023-03-03T00:00:00	2024-11-06T17:00:00	5	Humedad	84
140293	7	Sololá	701	Sololá	2	El tablón	3	Marzo	2023-03-03T00:00:00	2024-11-06T17:00:00	6	Velocidad del viento	6.4
140294	7	Sololá	701	Sololá	2	El tablón	3	Marzo	2023-03-03T00:00:00	2024-11-06T17:00:00	7	Dirección del viento	6.44
140295	7	Sololá	701	Sololá	2	El tablón	3	Marzo	2023-03-03T00:00:00	2024-11-06T17:00:00	1	Precipitación	0
140296	7	Sololá	701	Sololá	2	El tablón	3	Marzo	2023-03-03T00:00:00	2024-11-06T17:00:00	8	Radiación solar	197
140297	7	Sololá	701	Sololá	2	El tablón	3	Marzo	2023-03-03T00:00:00	2024-11-06T18:00:00	2	Temperatura media	13.9
140298	7	Sololá	701	Sololá	2	El tablón	3	Marzo	2023-03-03T00:00:00	2024-11-06T18:00:00	4	Temperatura máxima	14.9
140299	7	Sololá	701	Sololá	2	El tablón	3	Marzo	2023-03-03T00:00:00	2024-11-06T18:00:00	3	Temperatura mínima	13.9
140300	7	Sololá	701	Sololá	2	El tablón	3	Marzo	2023-03-03T00:00:00	2024-11-06T18:00:00	5	Humedad	88
140301	7	Sololá	701	Sololá	2	El tablón	3	Marzo	2023-03-03T00:00:00	2024-11-06T18:00:00	6	Velocidad del viento	4.8
140302	7	Sololá	701	Sololá	2	El tablón	3	Marzo	2023-03-03T00:00:00	2024-11-06T18:00:00	7	Dirección del viento	4.83
140303	7	Sololá	701	Sololá	2	El tablón	3	Marzo	2023-03-03T00:00:00	2024-11-06T18:00:00	1	Precipitación	0
140304	7	Sololá	701	Sololá	2	El tablón	3	Marzo	2023-03-03T00:00:00	2024-11-06T18:00:00	8	Radiación solar	53
140305	7	Sololá	701	Sololá	2	El tablón	3	Marzo	2023-03-03T00:00:00	2024-11-06T19:00:00	2	Temperatura media	13.7
140306	7	Sololá	701	Sololá	2	El tablón	3	Marzo	2023-03-03T00:00:00	2024-11-06T19:00:00	4	Temperatura máxima	13.9
140307	7	Sololá	701	Sololá	2	El tablón	3	Marzo	2023-03-03T00:00:00	2024-11-06T19:00:00	3	Temperatura mínima	13.6
140308	7	Sololá	701	Sololá	2	El tablón	3	Marzo	2023-03-03T00:00:00	2024-11-06T19:00:00	5	Humedad	89
140309	7	Sololá	701	Sololá	2	El tablón	3	Marzo	2023-03-03T00:00:00	2024-11-06T19:00:00	6	Velocidad del viento	3.2
140310	7	Sololá	701	Sololá	2	El tablón	3	Marzo	2023-03-03T00:00:00	2024-11-06T19:00:00	7	Dirección del viento	3.22
140311	7	Sololá	701	Sololá	2	El tablón	3	Marzo	2023-03-03T00:00:00	2024-11-06T19:00:00	1	Precipitación	0
140312	7	Sololá	701	Sololá	2	El tablón	3	Marzo	2023-03-03T00:00:00	2024-11-06T19:00:00	8	Radiación solar	0
140313	7	Sololá	701	Sololá	2	El tablón	3	Marzo	2023-03-03T00:00:00	2024-11-06T20:00:00	2	Temperatura media	13.1
140314	7	Sololá	701	Sololá	2	El tablón	3	Marzo	2023-03-03T00:00:00	2024-11-06T20:00:00	4	Temperatura máxima	13.7
140315	7	Sololá	701	Sololá	2	El tablón	3	Marzo	2023-03-03T00:00:00	2024-11-06T20:00:00	3	Temperatura mínima	13.1
140316	7	Sololá	701	Sololá	2	El tablón	3	Marzo	2023-03-03T00:00:00	2024-11-06T20:00:00	5	Humedad	89
140317	7	Sololá	701	Sololá	2	El tablón	3	Marzo	2023-03-03T00:00:00	2024-11-06T20:00:00	6	Velocidad del viento	0
140318	7	Sololá	701	Sololá	2	El tablón	3	Marzo	2023-03-03T00:00:00	2024-11-06T20:00:00	7	Dirección del viento	0
140319	7	Sololá	701	Sololá	2	El tablón	3	Marzo	2023-03-03T00:00:00	2024-11-06T20:00:00	1	Precipitación	0
140320	7	Sololá	701	Sololá	2	El tablón	3	Marzo	2023-03-03T00:00:00	2024-11-06T20:00:00	8	Radiación solar	0
140321	7	Sololá	701	Sololá	2	El tablón	3	Marzo	2023-03-03T00:00:00	2024-11-06T21:00:00	2	Temperatura media	12.8
140322	7	Sololá	701	Sololá	2	El tablón	3	Marzo	2023-03-03T00:00:00	2024-11-06T21:00:00	4	Temperatura máxima	13.1
140323	7	Sololá	701	Sololá	2	El tablón	3	Marzo	2023-03-03T00:00:00	2024-11-06T21:00:00	3	Temperatura mínima	12.8
140324	7	Sololá	701	Sololá	2	El tablón	3	Marzo	2023-03-03T00:00:00	2024-11-06T21:00:00	5	Humedad	89
140325	7	Sololá	701	Sololá	2	El tablón	3	Marzo	2023-03-03T00:00:00	2024-11-06T21:00:00	6	Velocidad del viento	0
140326	7	Sololá	701	Sololá	2	El tablón	3	Marzo	2023-03-03T00:00:00	2024-11-06T21:00:00	7	Dirección del viento	0
140327	7	Sololá	701	Sololá	2	El tablón	3	Marzo	2023-03-03T00:00:00	2024-11-06T21:00:00	1	Precipitación	0
140328	7	Sololá	701	Sololá	2	El tablón	3	Marzo	2023-03-03T00:00:00	2024-11-06T21:00:00	8	Radiación solar	0
140329	7	Sololá	701	Sololá	2	El tablón	3	Marzo	2023-03-03T00:00:00	2024-11-06T22:00:00	2	Temperatura media	11.5
140330	7	Sololá	701	Sololá	2	El tablón	3	Marzo	2023-03-03T00:00:00	2024-11-06T22:00:00	4	Temperatura máxima	12.9
140331	7	Sololá	701	Sololá	2	El tablón	3	Marzo	2023-03-03T00:00:00	2024-11-06T22:00:00	3	Temperatura mínima	11.5
140332	7	Sololá	701	Sololá	2	El tablón	3	Marzo	2023-03-03T00:00:00	2024-11-06T22:00:00	5	Humedad	90
140333	7	Sololá	701	Sololá	2	El tablón	3	Marzo	2023-03-03T00:00:00	2024-11-06T22:00:00	6	Velocidad del viento	0
140334	7	Sololá	701	Sololá	2	El tablón	3	Marzo	2023-03-03T00:00:00	2024-11-06T22:00:00	7	Dirección del viento	0
140335	7	Sololá	701	Sololá	2	El tablón	3	Marzo	2023-03-03T00:00:00	2024-11-06T22:00:00	1	Precipitación	0
140336	7	Sololá	701	Sololá	2	El tablón	3	Marzo	2023-03-03T00:00:00	2024-11-06T22:00:00	8	Radiación solar	0
140337	7	Sololá	701	Sololá	2	El tablón	3	Marzo	2023-03-03T00:00:00	2024-11-06T23:00:00	2	Temperatura media	11.3
140338	7	Sololá	701	Sololá	2	El tablón	3	Marzo	2023-03-03T00:00:00	2024-11-06T23:00:00	4	Temperatura máxima	11.5
140339	7	Sololá	701	Sololá	2	El tablón	3	Marzo	2023-03-03T00:00:00	2024-11-06T23:00:00	3	Temperatura mínima	11.3
140340	7	Sololá	701	Sololá	2	El tablón	3	Marzo	2023-03-03T00:00:00	2024-11-06T23:00:00	5	Humedad	89
140341	7	Sololá	701	Sololá	2	El tablón	3	Marzo	2023-03-03T00:00:00	2024-11-06T23:00:00	6	Velocidad del viento	1.6
140342	7	Sololá	701	Sololá	2	El tablón	3	Marzo	2023-03-03T00:00:00	2024-11-06T23:00:00	7	Dirección del viento	1.61
140343	7	Sololá	701	Sololá	2	El tablón	3	Marzo	2023-03-03T00:00:00	2024-11-06T23:00:00	1	Precipitación	0
140344	7	Sololá	701	Sololá	2	El tablón	3	Marzo	2023-03-03T00:00:00	2024-11-06T23:00:00	8	Radiación solar	0
140345	7	Sololá	701	Sololá	2	El tablón	3	Marzo	2023-04-03T00:00:00	2024-11-06T00:00:00	2	Temperatura media	12.1
140346	7	Sololá	701	Sololá	2	El tablón	3	Marzo	2023-04-03T00:00:00	2024-11-06T00:00:00	4	Temperatura máxima	12.1
140347	7	Sololá	701	Sololá	2	El tablón	3	Marzo	2023-04-03T00:00:00	2024-11-06T00:00:00	3	Temperatura mínima	11.2
140348	7	Sololá	701	Sololá	2	El tablón	3	Marzo	2023-04-03T00:00:00	2024-11-06T00:00:00	5	Humedad	80
140349	7	Sololá	701	Sololá	2	El tablón	3	Marzo	2023-04-03T00:00:00	2024-11-06T00:00:00	6	Velocidad del viento	3.2
140350	7	Sololá	701	Sololá	2	El tablón	3	Marzo	2023-04-03T00:00:00	2024-11-06T00:00:00	7	Dirección del viento	3.22
140351	7	Sololá	701	Sololá	2	El tablón	3	Marzo	2023-04-03T00:00:00	2024-11-06T00:00:00	1	Precipitación	0
140352	7	Sololá	701	Sololá	2	El tablón	3	Marzo	2023-04-03T00:00:00	2024-11-06T00:00:00	8	Radiación solar	0
140353	7	Sololá	701	Sololá	2	El tablón	3	Marzo	2023-04-03T00:00:00	2024-11-06T01:00:00	2	Temperatura media	12.2
140354	7	Sololá	701	Sololá	2	El tablón	3	Marzo	2023-04-03T00:00:00	2024-11-06T01:00:00	4	Temperatura máxima	12.3
140355	7	Sololá	701	Sololá	2	El tablón	3	Marzo	2023-04-03T00:00:00	2024-11-06T01:00:00	3	Temperatura mínima	11.8
140356	7	Sololá	701	Sololá	2	El tablón	3	Marzo	2023-04-03T00:00:00	2024-11-06T01:00:00	5	Humedad	74
140357	7	Sololá	701	Sololá	2	El tablón	3	Marzo	2023-04-03T00:00:00	2024-11-06T01:00:00	6	Velocidad del viento	3.2
140358	7	Sololá	701	Sololá	2	El tablón	3	Marzo	2023-04-03T00:00:00	2024-11-06T01:00:00	7	Dirección del viento	3.22
140359	7	Sololá	701	Sololá	2	El tablón	3	Marzo	2023-04-03T00:00:00	2024-11-06T01:00:00	1	Precipitación	0
140360	7	Sololá	701	Sololá	2	El tablón	3	Marzo	2023-04-03T00:00:00	2024-11-06T01:00:00	8	Radiación solar	0
140361	7	Sololá	701	Sololá	2	El tablón	3	Marzo	2023-04-03T00:00:00	2024-11-06T02:00:00	2	Temperatura media	12.9
140362	7	Sololá	701	Sololá	2	El tablón	3	Marzo	2023-04-03T00:00:00	2024-11-06T02:00:00	4	Temperatura máxima	12.9
140363	7	Sololá	701	Sololá	2	El tablón	3	Marzo	2023-04-03T00:00:00	2024-11-06T02:00:00	3	Temperatura mínima	12.1
140364	7	Sololá	701	Sololá	2	El tablón	3	Marzo	2023-04-03T00:00:00	2024-11-06T02:00:00	5	Humedad	75
140365	7	Sololá	701	Sololá	2	El tablón	3	Marzo	2023-04-03T00:00:00	2024-11-06T02:00:00	6	Velocidad del viento	3.2
140366	7	Sololá	701	Sololá	2	El tablón	3	Marzo	2023-04-03T00:00:00	2024-11-06T02:00:00	7	Dirección del viento	3.22
140367	7	Sololá	701	Sololá	2	El tablón	3	Marzo	2023-04-03T00:00:00	2024-11-06T02:00:00	1	Precipitación	0
140368	7	Sololá	701	Sololá	2	El tablón	3	Marzo	2023-04-03T00:00:00	2024-11-06T02:00:00	8	Radiación solar	0
140369	7	Sololá	701	Sololá	2	El tablón	3	Marzo	2023-04-03T00:00:00	2024-11-06T03:00:00	2	Temperatura media	12
140370	7	Sololá	701	Sololá	2	El tablón	3	Marzo	2023-04-03T00:00:00	2024-11-06T03:00:00	4	Temperatura máxima	13
140371	7	Sololá	701	Sololá	2	El tablón	3	Marzo	2023-04-03T00:00:00	2024-11-06T03:00:00	3	Temperatura mínima	11.9
140372	7	Sololá	701	Sololá	2	El tablón	3	Marzo	2023-04-03T00:00:00	2024-11-06T03:00:00	5	Humedad	78
140373	7	Sololá	701	Sololá	2	El tablón	3	Marzo	2023-04-03T00:00:00	2024-11-06T03:00:00	6	Velocidad del viento	4.8
140374	7	Sololá	701	Sololá	2	El tablón	3	Marzo	2023-04-03T00:00:00	2024-11-06T03:00:00	7	Dirección del viento	4.83
140375	7	Sololá	701	Sololá	2	El tablón	3	Marzo	2023-04-03T00:00:00	2024-11-06T03:00:00	1	Precipitación	0
140376	7	Sololá	701	Sololá	2	El tablón	3	Marzo	2023-04-03T00:00:00	2024-11-06T03:00:00	8	Radiación solar	0
140377	7	Sololá	701	Sololá	2	El tablón	3	Marzo	2023-04-03T00:00:00	2024-11-06T04:00:00	2	Temperatura media	11.9
140378	7	Sololá	701	Sololá	2	El tablón	3	Marzo	2023-04-03T00:00:00	2024-11-06T04:00:00	4	Temperatura máxima	12
140379	7	Sololá	701	Sololá	2	El tablón	3	Marzo	2023-04-03T00:00:00	2024-11-06T04:00:00	3	Temperatura mínima	11.2
140380	7	Sololá	701	Sololá	2	El tablón	3	Marzo	2023-04-03T00:00:00	2024-11-06T04:00:00	5	Humedad	73
140381	7	Sololá	701	Sololá	2	El tablón	3	Marzo	2023-04-03T00:00:00	2024-11-06T04:00:00	6	Velocidad del viento	3.2
140382	7	Sololá	701	Sololá	2	El tablón	3	Marzo	2023-04-03T00:00:00	2024-11-06T04:00:00	7	Dirección del viento	3.22
140383	7	Sololá	701	Sololá	2	El tablón	3	Marzo	2023-04-03T00:00:00	2024-11-06T04:00:00	1	Precipitación	0
140384	7	Sololá	701	Sololá	2	El tablón	3	Marzo	2023-04-03T00:00:00	2024-11-06T04:00:00	8	Radiación solar	0
140385	7	Sololá	701	Sololá	2	El tablón	3	Marzo	2023-04-03T00:00:00	2024-11-06T05:00:00	2	Temperatura media	12.1
140386	7	Sololá	701	Sololá	2	El tablón	3	Marzo	2023-04-03T00:00:00	2024-11-06T05:00:00	4	Temperatura máxima	12.5
140387	7	Sololá	701	Sololá	2	El tablón	3	Marzo	2023-04-03T00:00:00	2024-11-06T05:00:00	3	Temperatura mínima	11.9
140388	7	Sololá	701	Sololá	2	El tablón	3	Marzo	2023-04-03T00:00:00	2024-11-06T05:00:00	5	Humedad	74
140389	7	Sololá	701	Sololá	2	El tablón	3	Marzo	2023-04-03T00:00:00	2024-11-06T05:00:00	6	Velocidad del viento	3.2
140390	7	Sololá	701	Sololá	2	El tablón	3	Marzo	2023-04-03T00:00:00	2024-11-06T05:00:00	7	Dirección del viento	3.22
140391	7	Sololá	701	Sololá	2	El tablón	3	Marzo	2023-04-03T00:00:00	2024-11-06T05:00:00	1	Precipitación	0
140392	7	Sololá	701	Sololá	2	El tablón	3	Marzo	2023-04-03T00:00:00	2024-11-06T05:00:00	8	Radiación solar	0
140393	7	Sololá	701	Sololá	2	El tablón	3	Marzo	2023-04-03T00:00:00	2024-11-06T06:00:00	2	Temperatura media	12.1
140394	7	Sololá	701	Sololá	2	El tablón	3	Marzo	2023-04-03T00:00:00	2024-11-06T06:00:00	4	Temperatura máxima	12.5
140395	7	Sololá	701	Sololá	2	El tablón	3	Marzo	2023-04-03T00:00:00	2024-11-06T06:00:00	3	Temperatura mínima	12
140396	7	Sololá	701	Sololá	2	El tablón	3	Marzo	2023-04-03T00:00:00	2024-11-06T06:00:00	5	Humedad	76
140397	7	Sololá	701	Sololá	2	El tablón	3	Marzo	2023-04-03T00:00:00	2024-11-06T06:00:00	6	Velocidad del viento	4.8
140398	7	Sololá	701	Sololá	2	El tablón	3	Marzo	2023-04-03T00:00:00	2024-11-06T06:00:00	7	Dirección del viento	4.83
140399	7	Sololá	701	Sololá	2	El tablón	3	Marzo	2023-04-03T00:00:00	2024-11-06T06:00:00	1	Precipitación	0
140400	7	Sololá	701	Sololá	2	El tablón	3	Marzo	2023-04-03T00:00:00	2024-11-06T06:00:00	8	Radiación solar	0
140401	7	Sololá	701	Sololá	2	El tablón	3	Marzo	2023-04-03T00:00:00	2024-11-06T07:00:00	2	Temperatura media	12.6
140402	7	Sololá	701	Sololá	2	El tablón	3	Marzo	2023-04-03T00:00:00	2024-11-06T07:00:00	4	Temperatura máxima	12.6
140403	7	Sololá	701	Sololá	2	El tablón	3	Marzo	2023-04-03T00:00:00	2024-11-06T07:00:00	3	Temperatura mínima	12.1
140404	7	Sololá	701	Sololá	2	El tablón	3	Marzo	2023-04-03T00:00:00	2024-11-06T07:00:00	5	Humedad	84
140405	7	Sololá	701	Sololá	2	El tablón	3	Marzo	2023-04-03T00:00:00	2024-11-06T07:00:00	6	Velocidad del viento	6.4
140406	7	Sololá	701	Sololá	2	El tablón	3	Marzo	2023-04-03T00:00:00	2024-11-06T07:00:00	7	Dirección del viento	6.44
140407	7	Sololá	701	Sololá	2	El tablón	3	Marzo	2023-04-03T00:00:00	2024-11-06T07:00:00	1	Precipitación	0
140408	7	Sololá	701	Sololá	2	El tablón	3	Marzo	2023-04-03T00:00:00	2024-11-06T07:00:00	8	Radiación solar	15
140409	7	Sololá	701	Sololá	2	El tablón	3	Marzo	2023-04-03T00:00:00	2024-11-06T08:00:00	2	Temperatura media	15.3
140410	7	Sololá	701	Sololá	2	El tablón	3	Marzo	2023-04-03T00:00:00	2024-11-06T08:00:00	4	Temperatura máxima	15.3
140411	7	Sololá	701	Sololá	2	El tablón	3	Marzo	2023-04-03T00:00:00	2024-11-06T08:00:00	3	Temperatura mínima	12.6
140412	7	Sololá	701	Sololá	2	El tablón	3	Marzo	2023-04-03T00:00:00	2024-11-06T08:00:00	5	Humedad	75
140413	7	Sololá	701	Sololá	2	El tablón	3	Marzo	2023-04-03T00:00:00	2024-11-06T08:00:00	6	Velocidad del viento	4.8
140414	7	Sololá	701	Sololá	2	El tablón	3	Marzo	2023-04-03T00:00:00	2024-11-06T08:00:00	7	Dirección del viento	4.83
140415	7	Sololá	701	Sololá	2	El tablón	3	Marzo	2023-04-03T00:00:00	2024-11-06T08:00:00	1	Precipitación	0
140416	7	Sololá	701	Sololá	2	El tablón	3	Marzo	2023-04-03T00:00:00	2024-11-06T08:00:00	8	Radiación solar	140
140417	7	Sololá	701	Sololá	2	El tablón	3	Marzo	2023-04-03T00:00:00	2024-11-06T09:00:00	2	Temperatura media	18.3
140418	7	Sololá	701	Sololá	2	El tablón	3	Marzo	2023-04-03T00:00:00	2024-11-06T09:00:00	4	Temperatura máxima	18.3
140419	7	Sololá	701	Sololá	2	El tablón	3	Marzo	2023-04-03T00:00:00	2024-11-06T09:00:00	3	Temperatura mínima	15.3
140420	7	Sololá	701	Sololá	2	El tablón	3	Marzo	2023-04-03T00:00:00	2024-11-06T09:00:00	5	Humedad	54
140421	7	Sololá	701	Sololá	2	El tablón	3	Marzo	2023-04-03T00:00:00	2024-11-06T09:00:00	6	Velocidad del viento	4.8
140422	7	Sololá	701	Sololá	2	El tablón	3	Marzo	2023-04-03T00:00:00	2024-11-06T09:00:00	7	Dirección del viento	4.83
140423	7	Sololá	701	Sololá	2	El tablón	3	Marzo	2023-04-03T00:00:00	2024-11-06T09:00:00	1	Precipitación	0
140424	7	Sololá	701	Sololá	2	El tablón	3	Marzo	2023-04-03T00:00:00	2024-11-06T09:00:00	8	Radiación solar	390
140425	7	Sololá	701	Sololá	2	El tablón	3	Marzo	2023-04-03T00:00:00	2024-11-06T10:00:00	2	Temperatura media	19.1
140426	7	Sololá	701	Sololá	2	El tablón	3	Marzo	2023-04-03T00:00:00	2024-11-06T10:00:00	4	Temperatura máxima	19.6
140427	7	Sololá	701	Sololá	2	El tablón	3	Marzo	2023-04-03T00:00:00	2024-11-06T10:00:00	3	Temperatura mínima	18.3
140428	7	Sololá	701	Sololá	2	El tablón	3	Marzo	2023-04-03T00:00:00	2024-11-06T10:00:00	5	Humedad	47
140429	7	Sololá	701	Sololá	2	El tablón	3	Marzo	2023-04-03T00:00:00	2024-11-06T10:00:00	6	Velocidad del viento	4.8
140430	7	Sololá	701	Sololá	2	El tablón	3	Marzo	2023-04-03T00:00:00	2024-11-06T10:00:00	7	Dirección del viento	4.83
140431	7	Sololá	701	Sololá	2	El tablón	3	Marzo	2023-04-03T00:00:00	2024-11-06T10:00:00	1	Precipitación	0
140432	7	Sololá	701	Sololá	2	El tablón	3	Marzo	2023-04-03T00:00:00	2024-11-06T10:00:00	8	Radiación solar	601
140433	7	Sololá	701	Sololá	2	El tablón	3	Marzo	2023-04-03T00:00:00	2024-11-06T11:00:00	2	Temperatura media	20.3
140434	7	Sololá	701	Sololá	2	El tablón	3	Marzo	2023-04-03T00:00:00	2024-11-06T11:00:00	4	Temperatura máxima	20.7
140435	7	Sololá	701	Sololá	2	El tablón	3	Marzo	2023-04-03T00:00:00	2024-11-06T11:00:00	3	Temperatura mínima	19.1
140436	7	Sololá	701	Sololá	2	El tablón	3	Marzo	2023-04-03T00:00:00	2024-11-06T11:00:00	5	Humedad	42
140437	7	Sololá	701	Sololá	2	El tablón	3	Marzo	2023-04-03T00:00:00	2024-11-06T11:00:00	6	Velocidad del viento	6.4
140438	7	Sololá	701	Sololá	2	El tablón	3	Marzo	2023-04-03T00:00:00	2024-11-06T11:00:00	7	Dirección del viento	6.44
140439	7	Sololá	701	Sololá	2	El tablón	3	Marzo	2023-04-03T00:00:00	2024-11-06T11:00:00	1	Precipitación	0
140440	7	Sololá	701	Sololá	2	El tablón	3	Marzo	2023-04-03T00:00:00	2024-11-06T11:00:00	8	Radiación solar	773
140441	7	Sololá	701	Sololá	2	El tablón	3	Marzo	2023-04-03T00:00:00	2024-11-06T12:00:00	2	Temperatura media	19.8
140442	7	Sololá	701	Sololá	2	El tablón	3	Marzo	2023-04-03T00:00:00	2024-11-06T12:00:00	4	Temperatura máxima	20.4
140443	7	Sololá	701	Sololá	2	El tablón	3	Marzo	2023-04-03T00:00:00	2024-11-06T12:00:00	3	Temperatura mínima	19.7
140444	7	Sololá	701	Sololá	2	El tablón	3	Marzo	2023-04-03T00:00:00	2024-11-06T12:00:00	5	Humedad	51
140445	7	Sololá	701	Sololá	2	El tablón	3	Marzo	2023-04-03T00:00:00	2024-11-06T12:00:00	6	Velocidad del viento	11.3
140446	7	Sololá	701	Sololá	2	El tablón	3	Marzo	2023-04-03T00:00:00	2024-11-06T12:00:00	7	Dirección del viento	11.27
140447	7	Sololá	701	Sololá	2	El tablón	3	Marzo	2023-04-03T00:00:00	2024-11-06T12:00:00	1	Precipitación	0
140448	7	Sololá	701	Sololá	2	El tablón	3	Marzo	2023-04-03T00:00:00	2024-11-06T12:00:00	8	Radiación solar	841
140449	7	Sololá	701	Sololá	2	El tablón	3	Marzo	2023-04-03T00:00:00	2024-11-06T13:00:00	2	Temperatura media	19.3
140450	7	Sololá	701	Sololá	2	El tablón	3	Marzo	2023-04-03T00:00:00	2024-11-06T13:00:00	4	Temperatura máxima	20.1
140451	7	Sololá	701	Sololá	2	El tablón	3	Marzo	2023-04-03T00:00:00	2024-11-06T13:00:00	3	Temperatura mínima	19.3
140452	7	Sololá	701	Sololá	2	El tablón	3	Marzo	2023-04-03T00:00:00	2024-11-06T13:00:00	5	Humedad	65
140453	7	Sololá	701	Sololá	2	El tablón	3	Marzo	2023-04-03T00:00:00	2024-11-06T13:00:00	6	Velocidad del viento	9.7
140454	7	Sololá	701	Sololá	2	El tablón	3	Marzo	2023-04-03T00:00:00	2024-11-06T13:00:00	7	Dirección del viento	9.66
140455	7	Sololá	701	Sololá	2	El tablón	3	Marzo	2023-04-03T00:00:00	2024-11-06T13:00:00	1	Precipitación	0
140456	7	Sololá	701	Sololá	2	El tablón	3	Marzo	2023-04-03T00:00:00	2024-11-06T13:00:00	8	Radiación solar	880
140457	7	Sololá	701	Sololá	2	El tablón	3	Marzo	2023-04-03T00:00:00	2024-11-06T14:00:00	2	Temperatura media	18.7
140458	7	Sololá	701	Sololá	2	El tablón	3	Marzo	2023-04-03T00:00:00	2024-11-06T14:00:00	4	Temperatura máxima	19.8
140459	7	Sololá	701	Sololá	2	El tablón	3	Marzo	2023-04-03T00:00:00	2024-11-06T14:00:00	3	Temperatura mínima	18.3
140460	7	Sololá	701	Sololá	2	El tablón	3	Marzo	2023-04-03T00:00:00	2024-11-06T14:00:00	5	Humedad	74
140461	7	Sololá	701	Sololá	2	El tablón	3	Marzo	2023-04-03T00:00:00	2024-11-06T14:00:00	6	Velocidad del viento	8
140462	7	Sololá	701	Sololá	2	El tablón	3	Marzo	2023-04-03T00:00:00	2024-11-06T14:00:00	7	Dirección del viento	8.05
140463	7	Sololá	701	Sololá	2	El tablón	3	Marzo	2023-04-03T00:00:00	2024-11-06T14:00:00	1	Precipitación	0
140464	7	Sololá	701	Sololá	2	El tablón	3	Marzo	2023-04-03T00:00:00	2024-11-06T14:00:00	8	Radiación solar	805
140465	7	Sololá	701	Sololá	2	El tablón	3	Marzo	2023-04-03T00:00:00	2024-11-06T15:00:00	2	Temperatura media	19.2
140466	7	Sololá	701	Sololá	2	El tablón	3	Marzo	2023-04-03T00:00:00	2024-11-06T15:00:00	4	Temperatura máxima	19.2
140467	7	Sololá	701	Sololá	2	El tablón	3	Marzo	2023-04-03T00:00:00	2024-11-06T15:00:00	3	Temperatura mínima	18.6
140468	7	Sololá	701	Sololá	2	El tablón	3	Marzo	2023-04-03T00:00:00	2024-11-06T15:00:00	5	Humedad	72
140469	7	Sololá	701	Sololá	2	El tablón	3	Marzo	2023-04-03T00:00:00	2024-11-06T15:00:00	6	Velocidad del viento	8
140470	7	Sololá	701	Sololá	2	El tablón	3	Marzo	2023-04-03T00:00:00	2024-11-06T15:00:00	7	Dirección del viento	8.05
140471	7	Sololá	701	Sololá	2	El tablón	3	Marzo	2023-04-03T00:00:00	2024-11-06T15:00:00	1	Precipitación	0
140472	7	Sololá	701	Sololá	2	El tablón	3	Marzo	2023-04-03T00:00:00	2024-11-06T15:00:00	8	Radiación solar	689
140473	7	Sololá	701	Sololá	2	El tablón	3	Marzo	2023-04-03T00:00:00	2024-11-06T16:00:00	2	Temperatura media	17.4
140474	7	Sololá	701	Sololá	2	El tablón	3	Marzo	2023-04-03T00:00:00	2024-11-06T16:00:00	4	Temperatura máxima	19.2
140475	7	Sololá	701	Sololá	2	El tablón	3	Marzo	2023-04-03T00:00:00	2024-11-06T16:00:00	3	Temperatura mínima	17.4
140476	7	Sololá	701	Sololá	2	El tablón	3	Marzo	2023-04-03T00:00:00	2024-11-06T16:00:00	5	Humedad	80
140477	7	Sololá	701	Sololá	2	El tablón	3	Marzo	2023-04-03T00:00:00	2024-11-06T16:00:00	6	Velocidad del viento	8
140478	7	Sololá	701	Sololá	2	El tablón	3	Marzo	2023-04-03T00:00:00	2024-11-06T16:00:00	7	Dirección del viento	8.05
140479	7	Sololá	701	Sololá	2	El tablón	3	Marzo	2023-04-03T00:00:00	2024-11-06T16:00:00	1	Precipitación	0
140480	7	Sololá	701	Sololá	2	El tablón	3	Marzo	2023-04-03T00:00:00	2024-11-06T16:00:00	8	Radiación solar	456
140481	7	Sololá	701	Sololá	2	El tablón	3	Marzo	2023-04-03T00:00:00	2024-11-06T17:00:00	2	Temperatura media	16.4
140482	7	Sololá	701	Sololá	2	El tablón	3	Marzo	2023-04-03T00:00:00	2024-11-06T17:00:00	4	Temperatura máxima	17.4
140483	7	Sololá	701	Sololá	2	El tablón	3	Marzo	2023-04-03T00:00:00	2024-11-06T17:00:00	3	Temperatura mínima	16.1
140484	7	Sololá	701	Sololá	2	El tablón	3	Marzo	2023-04-03T00:00:00	2024-11-06T17:00:00	5	Humedad	85
140485	7	Sololá	701	Sololá	2	El tablón	3	Marzo	2023-04-03T00:00:00	2024-11-06T17:00:00	6	Velocidad del viento	4.8
140486	7	Sololá	701	Sololá	2	El tablón	3	Marzo	2023-04-03T00:00:00	2024-11-06T17:00:00	7	Dirección del viento	4.83
140487	7	Sololá	701	Sololá	2	El tablón	3	Marzo	2023-04-03T00:00:00	2024-11-06T17:00:00	1	Precipitación	0
140488	7	Sololá	701	Sololá	2	El tablón	3	Marzo	2023-04-03T00:00:00	2024-11-06T17:00:00	8	Radiación solar	135
140489	7	Sololá	701	Sololá	2	El tablón	3	Marzo	2023-04-03T00:00:00	2024-11-06T18:00:00	2	Temperatura media	15.3
140490	7	Sololá	701	Sololá	2	El tablón	3	Marzo	2023-04-03T00:00:00	2024-11-06T18:00:00	4	Temperatura máxima	16.7
140491	7	Sololá	701	Sololá	2	El tablón	3	Marzo	2023-04-03T00:00:00	2024-11-06T18:00:00	3	Temperatura mínima	15.3
140492	7	Sololá	701	Sololá	2	El tablón	3	Marzo	2023-04-03T00:00:00	2024-11-06T18:00:00	5	Humedad	88
140493	7	Sololá	701	Sololá	2	El tablón	3	Marzo	2023-04-03T00:00:00	2024-11-06T18:00:00	6	Velocidad del viento	3.2
140494	7	Sololá	701	Sololá	2	El tablón	3	Marzo	2023-04-03T00:00:00	2024-11-06T18:00:00	7	Dirección del viento	3.22
140495	7	Sololá	701	Sololá	2	El tablón	3	Marzo	2023-04-03T00:00:00	2024-11-06T18:00:00	1	Precipitación	0
140496	7	Sololá	701	Sololá	2	El tablón	3	Marzo	2023-04-03T00:00:00	2024-11-06T18:00:00	8	Radiación solar	72
140497	7	Sololá	701	Sololá	2	El tablón	3	Marzo	2023-04-03T00:00:00	2024-11-06T19:00:00	2	Temperatura media	14.6
140498	7	Sololá	701	Sololá	2	El tablón	3	Marzo	2023-04-03T00:00:00	2024-11-06T19:00:00	4	Temperatura máxima	15.3
140499	7	Sololá	701	Sololá	2	El tablón	3	Marzo	2023-04-03T00:00:00	2024-11-06T19:00:00	3	Temperatura mínima	14.4
140500	7	Sololá	701	Sololá	2	El tablón	3	Marzo	2023-04-03T00:00:00	2024-11-06T19:00:00	5	Humedad	88
140501	7	Sololá	701	Sololá	2	El tablón	3	Marzo	2023-04-03T00:00:00	2024-11-06T19:00:00	6	Velocidad del viento	1.6
140502	7	Sololá	701	Sololá	2	El tablón	3	Marzo	2023-04-03T00:00:00	2024-11-06T19:00:00	7	Dirección del viento	1.61
140503	7	Sololá	701	Sololá	2	El tablón	3	Marzo	2023-04-03T00:00:00	2024-11-06T19:00:00	1	Precipitación	0
140504	7	Sololá	701	Sololá	2	El tablón	3	Marzo	2023-04-03T00:00:00	2024-11-06T19:00:00	8	Radiación solar	0
140505	7	Sololá	701	Sololá	2	El tablón	3	Marzo	2023-04-03T00:00:00	2024-11-06T20:00:00	2	Temperatura media	15.5
140506	7	Sololá	701	Sololá	2	El tablón	3	Marzo	2023-04-03T00:00:00	2024-11-06T20:00:00	4	Temperatura máxima	15.5
140507	7	Sololá	701	Sololá	2	El tablón	3	Marzo	2023-04-03T00:00:00	2024-11-06T20:00:00	3	Temperatura mínima	14.4
140508	7	Sololá	701	Sololá	2	El tablón	3	Marzo	2023-04-03T00:00:00	2024-11-06T20:00:00	5	Humedad	77
140509	7	Sololá	701	Sololá	2	El tablón	3	Marzo	2023-04-03T00:00:00	2024-11-06T20:00:00	6	Velocidad del viento	3.2
140510	7	Sololá	701	Sololá	2	El tablón	3	Marzo	2023-04-03T00:00:00	2024-11-06T20:00:00	7	Dirección del viento	3.22
140511	7	Sololá	701	Sololá	2	El tablón	3	Marzo	2023-04-03T00:00:00	2024-11-06T20:00:00	1	Precipitación	0
140512	7	Sololá	701	Sololá	2	El tablón	3	Marzo	2023-04-03T00:00:00	2024-11-06T20:00:00	8	Radiación solar	0
140513	7	Sololá	701	Sololá	2	El tablón	3	Marzo	2023-04-03T00:00:00	2024-11-06T21:00:00	2	Temperatura media	15
140514	7	Sololá	701	Sololá	2	El tablón	3	Marzo	2023-04-03T00:00:00	2024-11-06T21:00:00	4	Temperatura máxima	15.6
140515	7	Sololá	701	Sololá	2	El tablón	3	Marzo	2023-04-03T00:00:00	2024-11-06T21:00:00	3	Temperatura mínima	15
140516	7	Sololá	701	Sololá	2	El tablón	3	Marzo	2023-04-03T00:00:00	2024-11-06T21:00:00	5	Humedad	80
140517	7	Sololá	701	Sololá	2	El tablón	3	Marzo	2023-04-03T00:00:00	2024-11-06T21:00:00	6	Velocidad del viento	4.8
140518	7	Sololá	701	Sololá	2	El tablón	3	Marzo	2023-04-03T00:00:00	2024-11-06T21:00:00	7	Dirección del viento	4.83
140519	7	Sololá	701	Sololá	2	El tablón	3	Marzo	2023-04-03T00:00:00	2024-11-06T21:00:00	1	Precipitación	0
140520	7	Sololá	701	Sololá	2	El tablón	3	Marzo	2023-04-03T00:00:00	2024-11-06T21:00:00	8	Radiación solar	0
140521	7	Sololá	701	Sololá	2	El tablón	3	Marzo	2023-04-03T00:00:00	2024-11-06T22:00:00	2	Temperatura media	14.3
140522	7	Sololá	701	Sololá	2	El tablón	3	Marzo	2023-04-03T00:00:00	2024-11-06T22:00:00	4	Temperatura máxima	15
140523	7	Sololá	701	Sololá	2	El tablón	3	Marzo	2023-04-03T00:00:00	2024-11-06T22:00:00	3	Temperatura mínima	14.3
140524	7	Sololá	701	Sololá	2	El tablón	3	Marzo	2023-04-03T00:00:00	2024-11-06T22:00:00	5	Humedad	82
140525	7	Sololá	701	Sololá	2	El tablón	3	Marzo	2023-04-03T00:00:00	2024-11-06T22:00:00	6	Velocidad del viento	4.8
140526	7	Sololá	701	Sololá	2	El tablón	3	Marzo	2023-04-03T00:00:00	2024-11-06T22:00:00	7	Dirección del viento	4.83
140527	7	Sololá	701	Sololá	2	El tablón	3	Marzo	2023-04-03T00:00:00	2024-11-06T22:00:00	1	Precipitación	0
140528	7	Sololá	701	Sololá	2	El tablón	3	Marzo	2023-04-03T00:00:00	2024-11-06T22:00:00	8	Radiación solar	0
140529	7	Sololá	701	Sololá	2	El tablón	3	Marzo	2023-04-03T00:00:00	2024-11-06T23:00:00	2	Temperatura media	13.6
140530	7	Sololá	701	Sololá	2	El tablón	3	Marzo	2023-04-03T00:00:00	2024-11-06T23:00:00	4	Temperatura máxima	14.3
140531	7	Sololá	701	Sololá	2	El tablón	3	Marzo	2023-04-03T00:00:00	2024-11-06T23:00:00	3	Temperatura mínima	13.6
140532	7	Sololá	701	Sololá	2	El tablón	3	Marzo	2023-04-03T00:00:00	2024-11-06T23:00:00	5	Humedad	85
140533	7	Sololá	701	Sololá	2	El tablón	3	Marzo	2023-04-03T00:00:00	2024-11-06T23:00:00	6	Velocidad del viento	4.8
140534	7	Sololá	701	Sololá	2	El tablón	3	Marzo	2023-04-03T00:00:00	2024-11-06T23:00:00	7	Dirección del viento	4.83
140535	7	Sololá	701	Sololá	2	El tablón	3	Marzo	2023-04-03T00:00:00	2024-11-06T23:00:00	1	Precipitación	0
140536	7	Sololá	701	Sololá	2	El tablón	3	Marzo	2023-04-03T00:00:00	2024-11-06T23:00:00	8	Radiación solar	0
140537	7	Sololá	701	Sololá	2	El tablón	3	Marzo	2023-05-03T00:00:00	2024-11-06T00:00:00	2	Temperatura media	13.3
140538	7	Sololá	701	Sololá	2	El tablón	3	Marzo	2023-05-03T00:00:00	2024-11-06T00:00:00	4	Temperatura máxima	13.6
140539	7	Sololá	701	Sololá	2	El tablón	3	Marzo	2023-05-03T00:00:00	2024-11-06T00:00:00	3	Temperatura mínima	13.3
140540	7	Sololá	701	Sololá	2	El tablón	3	Marzo	2023-05-03T00:00:00	2024-11-06T00:00:00	5	Humedad	86
140541	7	Sololá	701	Sololá	2	El tablón	3	Marzo	2023-05-03T00:00:00	2024-11-06T00:00:00	6	Velocidad del viento	4.8
140542	7	Sololá	701	Sololá	2	El tablón	3	Marzo	2023-05-03T00:00:00	2024-11-06T00:00:00	7	Dirección del viento	4.83
140543	7	Sololá	701	Sololá	2	El tablón	3	Marzo	2023-05-03T00:00:00	2024-11-06T00:00:00	1	Precipitación	0
140544	7	Sololá	701	Sololá	2	El tablón	3	Marzo	2023-05-03T00:00:00	2024-11-06T00:00:00	8	Radiación solar	0
140545	7	Sololá	701	Sololá	2	El tablón	3	Marzo	2023-05-03T00:00:00	2024-11-06T01:00:00	2	Temperatura media	12.7
140546	7	Sololá	701	Sololá	2	El tablón	3	Marzo	2023-05-03T00:00:00	2024-11-06T01:00:00	4	Temperatura máxima	13.3
140547	7	Sololá	701	Sololá	2	El tablón	3	Marzo	2023-05-03T00:00:00	2024-11-06T01:00:00	3	Temperatura mínima	12.7
140548	7	Sololá	701	Sololá	2	El tablón	3	Marzo	2023-05-03T00:00:00	2024-11-06T01:00:00	5	Humedad	87
140549	7	Sololá	701	Sololá	2	El tablón	3	Marzo	2023-05-03T00:00:00	2024-11-06T01:00:00	6	Velocidad del viento	4.8
140550	7	Sololá	701	Sololá	2	El tablón	3	Marzo	2023-05-03T00:00:00	2024-11-06T01:00:00	7	Dirección del viento	4.83
140551	7	Sololá	701	Sololá	2	El tablón	3	Marzo	2023-05-03T00:00:00	2024-11-06T01:00:00	1	Precipitación	0
140552	7	Sololá	701	Sololá	2	El tablón	3	Marzo	2023-05-03T00:00:00	2024-11-06T01:00:00	8	Radiación solar	0
140553	7	Sololá	701	Sololá	2	El tablón	3	Marzo	2023-05-03T00:00:00	2024-11-06T02:00:00	2	Temperatura media	12.3
140554	7	Sololá	701	Sololá	2	El tablón	3	Marzo	2023-05-03T00:00:00	2024-11-06T02:00:00	4	Temperatura máxima	12.7
140555	7	Sololá	701	Sololá	2	El tablón	3	Marzo	2023-05-03T00:00:00	2024-11-06T02:00:00	3	Temperatura mínima	12.3
140556	7	Sololá	701	Sololá	2	El tablón	3	Marzo	2023-05-03T00:00:00	2024-11-06T02:00:00	5	Humedad	87
140557	7	Sololá	701	Sololá	2	El tablón	3	Marzo	2023-05-03T00:00:00	2024-11-06T02:00:00	6	Velocidad del viento	8
140558	7	Sololá	701	Sololá	2	El tablón	3	Marzo	2023-05-03T00:00:00	2024-11-06T02:00:00	7	Dirección del viento	8.05
140559	7	Sololá	701	Sololá	2	El tablón	3	Marzo	2023-05-03T00:00:00	2024-11-06T02:00:00	1	Precipitación	0
140560	7	Sololá	701	Sololá	2	El tablón	3	Marzo	2023-05-03T00:00:00	2024-11-06T02:00:00	8	Radiación solar	0
140561	7	Sololá	701	Sololá	2	El tablón	3	Marzo	2023-05-03T00:00:00	2024-11-06T03:00:00	2	Temperatura media	11.8
140562	7	Sololá	701	Sololá	2	El tablón	3	Marzo	2023-05-03T00:00:00	2024-11-06T03:00:00	4	Temperatura máxima	12.3
140563	7	Sololá	701	Sololá	2	El tablón	3	Marzo	2023-05-03T00:00:00	2024-11-06T03:00:00	3	Temperatura mínima	11.8
140564	7	Sololá	701	Sololá	2	El tablón	3	Marzo	2023-05-03T00:00:00	2024-11-06T03:00:00	5	Humedad	87
140565	7	Sololá	701	Sololá	2	El tablón	3	Marzo	2023-05-03T00:00:00	2024-11-06T03:00:00	6	Velocidad del viento	8
140566	7	Sololá	701	Sololá	2	El tablón	3	Marzo	2023-05-03T00:00:00	2024-11-06T03:00:00	7	Dirección del viento	8.05
140567	7	Sololá	701	Sololá	2	El tablón	3	Marzo	2023-05-03T00:00:00	2024-11-06T03:00:00	1	Precipitación	0
140568	7	Sololá	701	Sololá	2	El tablón	3	Marzo	2023-05-03T00:00:00	2024-11-06T03:00:00	8	Radiación solar	0
140569	7	Sololá	701	Sololá	2	El tablón	3	Marzo	2023-05-03T00:00:00	2024-11-06T04:00:00	2	Temperatura media	11.6
140570	7	Sololá	701	Sololá	2	El tablón	3	Marzo	2023-05-03T00:00:00	2024-11-06T04:00:00	4	Temperatura máxima	11.8
140571	7	Sololá	701	Sololá	2	El tablón	3	Marzo	2023-05-03T00:00:00	2024-11-06T04:00:00	3	Temperatura mínima	11.6
140572	7	Sololá	701	Sololá	2	El tablón	3	Marzo	2023-05-03T00:00:00	2024-11-06T04:00:00	5	Humedad	87
140573	7	Sololá	701	Sololá	2	El tablón	3	Marzo	2023-05-03T00:00:00	2024-11-06T04:00:00	6	Velocidad del viento	9.7
140574	7	Sololá	701	Sololá	2	El tablón	3	Marzo	2023-05-03T00:00:00	2024-11-06T04:00:00	7	Dirección del viento	9.66
140575	7	Sololá	701	Sololá	2	El tablón	3	Marzo	2023-05-03T00:00:00	2024-11-06T04:00:00	1	Precipitación	0
140576	7	Sololá	701	Sololá	2	El tablón	3	Marzo	2023-05-03T00:00:00	2024-11-06T04:00:00	8	Radiación solar	0
140577	7	Sololá	701	Sololá	2	El tablón	3	Marzo	2023-05-03T00:00:00	2024-11-06T05:00:00	2	Temperatura media	11.4
140578	7	Sololá	701	Sololá	2	El tablón	3	Marzo	2023-05-03T00:00:00	2024-11-06T05:00:00	4	Temperatura máxima	11.6
140579	7	Sololá	701	Sololá	2	El tablón	3	Marzo	2023-05-03T00:00:00	2024-11-06T05:00:00	3	Temperatura mínima	11.2
140580	7	Sololá	701	Sololá	2	El tablón	3	Marzo	2023-05-03T00:00:00	2024-11-06T05:00:00	5	Humedad	86
140581	7	Sololá	701	Sololá	2	El tablón	3	Marzo	2023-05-03T00:00:00	2024-11-06T05:00:00	6	Velocidad del viento	11.3
140582	7	Sololá	701	Sololá	2	El tablón	3	Marzo	2023-05-03T00:00:00	2024-11-06T05:00:00	7	Dirección del viento	11.27
140583	7	Sololá	701	Sololá	2	El tablón	3	Marzo	2023-05-03T00:00:00	2024-11-06T05:00:00	1	Precipitación	0
140584	7	Sololá	701	Sololá	2	El tablón	3	Marzo	2023-05-03T00:00:00	2024-11-06T05:00:00	8	Radiación solar	0
140585	7	Sololá	701	Sololá	2	El tablón	3	Marzo	2023-05-03T00:00:00	2024-11-06T06:00:00	2	Temperatura media	11.5
140586	7	Sololá	701	Sololá	2	El tablón	3	Marzo	2023-05-03T00:00:00	2024-11-06T06:00:00	4	Temperatura máxima	11.6
140587	7	Sololá	701	Sololá	2	El tablón	3	Marzo	2023-05-03T00:00:00	2024-11-06T06:00:00	3	Temperatura mínima	11.3
140588	7	Sololá	701	Sololá	2	El tablón	3	Marzo	2023-05-03T00:00:00	2024-11-06T06:00:00	5	Humedad	86
140589	7	Sololá	701	Sololá	2	El tablón	3	Marzo	2023-05-03T00:00:00	2024-11-06T06:00:00	6	Velocidad del viento	9.7
140590	7	Sololá	701	Sololá	2	El tablón	3	Marzo	2023-05-03T00:00:00	2024-11-06T06:00:00	7	Dirección del viento	9.66
140591	7	Sololá	701	Sololá	2	El tablón	3	Marzo	2023-05-03T00:00:00	2024-11-06T06:00:00	1	Precipitación	0
140592	7	Sololá	701	Sololá	2	El tablón	3	Marzo	2023-05-03T00:00:00	2024-11-06T06:00:00	8	Radiación solar	0
140593	7	Sololá	701	Sololá	2	El tablón	3	Marzo	2023-05-03T00:00:00	2024-11-06T07:00:00	2	Temperatura media	12.2
140594	7	Sololá	701	Sololá	2	El tablón	3	Marzo	2023-05-03T00:00:00	2024-11-06T07:00:00	4	Temperatura máxima	12.2
140595	7	Sololá	701	Sololá	2	El tablón	3	Marzo	2023-05-03T00:00:00	2024-11-06T07:00:00	3	Temperatura mínima	11.4
140596	7	Sololá	701	Sololá	2	El tablón	3	Marzo	2023-05-03T00:00:00	2024-11-06T07:00:00	5	Humedad	79
140597	7	Sololá	701	Sololá	2	El tablón	3	Marzo	2023-05-03T00:00:00	2024-11-06T07:00:00	6	Velocidad del viento	4.8
140598	7	Sololá	701	Sololá	2	El tablón	3	Marzo	2023-05-03T00:00:00	2024-11-06T07:00:00	7	Dirección del viento	4.83
140599	7	Sololá	701	Sololá	2	El tablón	3	Marzo	2023-05-03T00:00:00	2024-11-06T07:00:00	1	Precipitación	0
140600	7	Sololá	701	Sololá	2	El tablón	3	Marzo	2023-05-03T00:00:00	2024-11-06T07:00:00	8	Radiación solar	17
140601	7	Sololá	701	Sololá	2	El tablón	3	Marzo	2023-05-03T00:00:00	2024-11-06T08:00:00	2	Temperatura media	15.8
140602	7	Sololá	701	Sololá	2	El tablón	3	Marzo	2023-05-03T00:00:00	2024-11-06T08:00:00	4	Temperatura máxima	15.8
140603	7	Sololá	701	Sololá	2	El tablón	3	Marzo	2023-05-03T00:00:00	2024-11-06T08:00:00	3	Temperatura mínima	12.2
140604	7	Sololá	701	Sololá	2	El tablón	3	Marzo	2023-05-03T00:00:00	2024-11-06T08:00:00	5	Humedad	57
140605	7	Sololá	701	Sololá	2	El tablón	3	Marzo	2023-05-03T00:00:00	2024-11-06T08:00:00	6	Velocidad del viento	4.8
140606	7	Sololá	701	Sololá	2	El tablón	3	Marzo	2023-05-03T00:00:00	2024-11-06T08:00:00	7	Dirección del viento	4.83
140607	7	Sololá	701	Sololá	2	El tablón	3	Marzo	2023-05-03T00:00:00	2024-11-06T08:00:00	1	Precipitación	0
140608	7	Sololá	701	Sololá	2	El tablón	3	Marzo	2023-05-03T00:00:00	2024-11-06T08:00:00	8	Radiación solar	151
140609	7	Sololá	701	Sololá	2	El tablón	3	Marzo	2023-05-03T00:00:00	2024-11-06T09:00:00	2	Temperatura media	19.3
140610	7	Sololá	701	Sololá	2	El tablón	3	Marzo	2023-05-03T00:00:00	2024-11-06T09:00:00	4	Temperatura máxima	19.3
140611	7	Sololá	701	Sololá	2	El tablón	3	Marzo	2023-05-03T00:00:00	2024-11-06T09:00:00	3	Temperatura mínima	15.8
140612	7	Sololá	701	Sololá	2	El tablón	3	Marzo	2023-05-03T00:00:00	2024-11-06T09:00:00	5	Humedad	45
140613	7	Sololá	701	Sololá	2	El tablón	3	Marzo	2023-05-03T00:00:00	2024-11-06T09:00:00	6	Velocidad del viento	4.8
140614	7	Sololá	701	Sololá	2	El tablón	3	Marzo	2023-05-03T00:00:00	2024-11-06T09:00:00	7	Dirección del viento	4.83
140615	7	Sololá	701	Sololá	2	El tablón	3	Marzo	2023-05-03T00:00:00	2024-11-06T09:00:00	1	Precipitación	0
140616	7	Sololá	701	Sololá	2	El tablón	3	Marzo	2023-05-03T00:00:00	2024-11-06T09:00:00	8	Radiación solar	406
140617	7	Sololá	701	Sololá	2	El tablón	3	Marzo	2023-05-03T00:00:00	2024-11-06T10:00:00	2	Temperatura media	20.5
140618	7	Sololá	701	Sololá	2	El tablón	3	Marzo	2023-05-03T00:00:00	2024-11-06T10:00:00	4	Temperatura máxima	20.5
140619	7	Sololá	701	Sololá	2	El tablón	3	Marzo	2023-05-03T00:00:00	2024-11-06T10:00:00	3	Temperatura mínima	18.7
140620	7	Sololá	701	Sololá	2	El tablón	3	Marzo	2023-05-03T00:00:00	2024-11-06T10:00:00	5	Humedad	42
140621	7	Sololá	701	Sololá	2	El tablón	3	Marzo	2023-05-03T00:00:00	2024-11-06T10:00:00	6	Velocidad del viento	8
140622	7	Sololá	701	Sololá	2	El tablón	3	Marzo	2023-05-03T00:00:00	2024-11-06T10:00:00	7	Dirección del viento	8.05
140623	7	Sololá	701	Sololá	2	El tablón	3	Marzo	2023-05-03T00:00:00	2024-11-06T10:00:00	1	Precipitación	0
140624	7	Sololá	701	Sololá	2	El tablón	3	Marzo	2023-05-03T00:00:00	2024-11-06T10:00:00	8	Radiación solar	627
140625	7	Sololá	701	Sololá	2	El tablón	3	Marzo	2023-05-03T00:00:00	2024-11-06T11:00:00	2	Temperatura media	20.3
140626	7	Sololá	701	Sololá	2	El tablón	3	Marzo	2023-05-03T00:00:00	2024-11-06T11:00:00	4	Temperatura máxima	20.8
140627	7	Sololá	701	Sololá	2	El tablón	3	Marzo	2023-05-03T00:00:00	2024-11-06T11:00:00	3	Temperatura mínima	20.3
140628	7	Sololá	701	Sololá	2	El tablón	3	Marzo	2023-05-03T00:00:00	2024-11-06T11:00:00	5	Humedad	41
140629	7	Sololá	701	Sololá	2	El tablón	3	Marzo	2023-05-03T00:00:00	2024-11-06T11:00:00	6	Velocidad del viento	8
140630	7	Sololá	701	Sololá	2	El tablón	3	Marzo	2023-05-03T00:00:00	2024-11-06T11:00:00	7	Dirección del viento	8.05
140631	7	Sololá	701	Sololá	2	El tablón	3	Marzo	2023-05-03T00:00:00	2024-11-06T11:00:00	1	Precipitación	0
140632	7	Sololá	701	Sololá	2	El tablón	3	Marzo	2023-05-03T00:00:00	2024-11-06T11:00:00	8	Radiación solar	789
140633	7	Sololá	701	Sololá	2	El tablón	3	Marzo	2023-05-03T00:00:00	2024-11-06T12:00:00	2	Temperatura media	21.6
140634	7	Sololá	701	Sololá	2	El tablón	3	Marzo	2023-05-03T00:00:00	2024-11-06T12:00:00	4	Temperatura máxima	21.6
140635	7	Sololá	701	Sololá	2	El tablón	3	Marzo	2023-05-03T00:00:00	2024-11-06T12:00:00	3	Temperatura mínima	20.3
140636	7	Sololá	701	Sololá	2	El tablón	3	Marzo	2023-05-03T00:00:00	2024-11-06T12:00:00	5	Humedad	39
140637	7	Sololá	701	Sololá	2	El tablón	3	Marzo	2023-05-03T00:00:00	2024-11-06T12:00:00	6	Velocidad del viento	6.4
140638	7	Sololá	701	Sololá	2	El tablón	3	Marzo	2023-05-03T00:00:00	2024-11-06T12:00:00	7	Dirección del viento	6.44
140639	7	Sololá	701	Sololá	2	El tablón	3	Marzo	2023-05-03T00:00:00	2024-11-06T12:00:00	1	Precipitación	0
140640	7	Sololá	701	Sololá	2	El tablón	3	Marzo	2023-05-03T00:00:00	2024-11-06T12:00:00	8	Radiación solar	841
140641	7	Sololá	701	Sololá	2	El tablón	3	Marzo	2023-05-03T00:00:00	2024-11-06T13:00:00	2	Temperatura media	20.1
140642	7	Sololá	701	Sololá	2	El tablón	3	Marzo	2023-05-03T00:00:00	2024-11-06T13:00:00	4	Temperatura máxima	21.9
140643	7	Sololá	701	Sololá	2	El tablón	3	Marzo	2023-05-03T00:00:00	2024-11-06T13:00:00	3	Temperatura mínima	20.1
140644	7	Sololá	701	Sololá	2	El tablón	3	Marzo	2023-05-03T00:00:00	2024-11-06T13:00:00	5	Humedad	70
140645	7	Sololá	701	Sololá	2	El tablón	3	Marzo	2023-05-03T00:00:00	2024-11-06T13:00:00	6	Velocidad del viento	9.7
140646	7	Sololá	701	Sololá	2	El tablón	3	Marzo	2023-05-03T00:00:00	2024-11-06T13:00:00	7	Dirección del viento	9.66
140647	7	Sololá	701	Sololá	2	El tablón	3	Marzo	2023-05-03T00:00:00	2024-11-06T13:00:00	1	Precipitación	0
140648	7	Sololá	701	Sololá	2	El tablón	3	Marzo	2023-05-03T00:00:00	2024-11-06T13:00:00	8	Radiación solar	972
140649	7	Sololá	701	Sololá	2	El tablón	3	Marzo	2023-05-03T00:00:00	2024-11-06T14:00:00	2	Temperatura media	20.1
140650	7	Sololá	701	Sololá	2	El tablón	3	Marzo	2023-05-03T00:00:00	2024-11-06T14:00:00	4	Temperatura máxima	20.8
140651	7	Sololá	701	Sololá	2	El tablón	3	Marzo	2023-05-03T00:00:00	2024-11-06T14:00:00	3	Temperatura mínima	19.8
140652	7	Sololá	701	Sololá	2	El tablón	3	Marzo	2023-05-03T00:00:00	2024-11-06T14:00:00	5	Humedad	69
140653	7	Sololá	701	Sololá	2	El tablón	3	Marzo	2023-05-03T00:00:00	2024-11-06T14:00:00	6	Velocidad del viento	9.7
140654	7	Sololá	701	Sololá	2	El tablón	3	Marzo	2023-05-03T00:00:00	2024-11-06T14:00:00	7	Dirección del viento	9.66
140655	7	Sololá	701	Sololá	2	El tablón	3	Marzo	2023-05-03T00:00:00	2024-11-06T14:00:00	1	Precipitación	0
140656	7	Sololá	701	Sololá	2	El tablón	3	Marzo	2023-05-03T00:00:00	2024-11-06T14:00:00	8	Radiación solar	930
140657	7	Sololá	701	Sololá	2	El tablón	3	Marzo	2023-05-03T00:00:00	2024-11-06T15:00:00	2	Temperatura media	19.1
140658	7	Sololá	701	Sololá	2	El tablón	3	Marzo	2023-05-03T00:00:00	2024-11-06T15:00:00	4	Temperatura máxima	20.3
140659	7	Sololá	701	Sololá	2	El tablón	3	Marzo	2023-05-03T00:00:00	2024-11-06T15:00:00	3	Temperatura mínima	19.1
140660	7	Sololá	701	Sololá	2	El tablón	3	Marzo	2023-05-03T00:00:00	2024-11-06T15:00:00	5	Humedad	77
140661	7	Sololá	701	Sololá	2	El tablón	3	Marzo	2023-05-03T00:00:00	2024-11-06T15:00:00	6	Velocidad del viento	9.7
140662	7	Sololá	701	Sololá	2	El tablón	3	Marzo	2023-05-03T00:00:00	2024-11-06T15:00:00	7	Dirección del viento	9.66
140663	7	Sololá	701	Sololá	2	El tablón	3	Marzo	2023-05-03T00:00:00	2024-11-06T15:00:00	1	Precipitación	0
140664	7	Sololá	701	Sololá	2	El tablón	3	Marzo	2023-05-03T00:00:00	2024-11-06T15:00:00	8	Radiación solar	799
140665	7	Sololá	701	Sololá	2	El tablón	3	Marzo	2023-05-03T00:00:00	2024-11-06T16:00:00	2	Temperatura media	16.3
140666	7	Sololá	701	Sololá	2	El tablón	3	Marzo	2023-05-03T00:00:00	2024-11-06T16:00:00	4	Temperatura máxima	19.2
140667	7	Sololá	701	Sololá	2	El tablón	3	Marzo	2023-05-03T00:00:00	2024-11-06T16:00:00	3	Temperatura mínima	16.3
140668	7	Sololá	701	Sololá	2	El tablón	3	Marzo	2023-05-03T00:00:00	2024-11-06T16:00:00	5	Humedad	87
140669	7	Sololá	701	Sololá	2	El tablón	3	Marzo	2023-05-03T00:00:00	2024-11-06T16:00:00	6	Velocidad del viento	9.7
140670	7	Sololá	701	Sololá	2	El tablón	3	Marzo	2023-05-03T00:00:00	2024-11-06T16:00:00	7	Dirección del viento	9.66
140671	7	Sololá	701	Sololá	2	El tablón	3	Marzo	2023-05-03T00:00:00	2024-11-06T16:00:00	1	Precipitación	0
140672	7	Sololá	701	Sololá	2	El tablón	3	Marzo	2023-05-03T00:00:00	2024-11-06T16:00:00	8	Radiación solar	316
140673	7	Sololá	701	Sololá	2	El tablón	3	Marzo	2023-05-03T00:00:00	2024-11-06T17:00:00	2	Temperatura media	15.8
140674	7	Sololá	701	Sololá	2	El tablón	3	Marzo	2023-05-03T00:00:00	2024-11-06T17:00:00	4	Temperatura máxima	16.7
140675	7	Sololá	701	Sololá	2	El tablón	3	Marzo	2023-05-03T00:00:00	2024-11-06T17:00:00	3	Temperatura mínima	15.8
140676	7	Sololá	701	Sololá	2	El tablón	3	Marzo	2023-05-03T00:00:00	2024-11-06T17:00:00	5	Humedad	88
140677	7	Sololá	701	Sololá	2	El tablón	3	Marzo	2023-05-03T00:00:00	2024-11-06T17:00:00	6	Velocidad del viento	8
140678	7	Sololá	701	Sololá	2	El tablón	3	Marzo	2023-05-03T00:00:00	2024-11-06T17:00:00	7	Dirección del viento	8.05
140679	7	Sololá	701	Sololá	2	El tablón	3	Marzo	2023-05-03T00:00:00	2024-11-06T17:00:00	1	Precipitación	0
140680	7	Sololá	701	Sololá	2	El tablón	3	Marzo	2023-05-03T00:00:00	2024-11-06T17:00:00	8	Radiación solar	146
140681	7	Sololá	701	Sololá	2	El tablón	3	Marzo	2023-05-03T00:00:00	2024-11-06T18:00:00	2	Temperatura media	14.9
140682	7	Sololá	701	Sololá	2	El tablón	3	Marzo	2023-05-03T00:00:00	2024-11-06T18:00:00	4	Temperatura máxima	15.8
140683	7	Sololá	701	Sololá	2	El tablón	3	Marzo	2023-05-03T00:00:00	2024-11-06T18:00:00	3	Temperatura mínima	14.9
140684	7	Sololá	701	Sololá	2	El tablón	3	Marzo	2023-05-03T00:00:00	2024-11-06T18:00:00	5	Humedad	89
140685	7	Sololá	701	Sololá	2	El tablón	3	Marzo	2023-05-03T00:00:00	2024-11-06T18:00:00	6	Velocidad del viento	4.8
140686	7	Sololá	701	Sololá	2	El tablón	3	Marzo	2023-05-03T00:00:00	2024-11-06T18:00:00	7	Dirección del viento	4.83
140687	7	Sololá	701	Sololá	2	El tablón	3	Marzo	2023-05-03T00:00:00	2024-11-06T18:00:00	1	Precipitación	0
140688	7	Sololá	701	Sololá	2	El tablón	3	Marzo	2023-05-03T00:00:00	2024-11-06T18:00:00	8	Radiación solar	52
140689	7	Sololá	701	Sololá	2	El tablón	3	Marzo	2023-05-03T00:00:00	2024-11-06T19:00:00	2	Temperatura media	14.7
140690	7	Sololá	701	Sololá	2	El tablón	3	Marzo	2023-05-03T00:00:00	2024-11-06T19:00:00	4	Temperatura máxima	14.9
140691	7	Sololá	701	Sololá	2	El tablón	3	Marzo	2023-05-03T00:00:00	2024-11-06T19:00:00	3	Temperatura mínima	14.7
140692	7	Sololá	701	Sololá	2	El tablón	3	Marzo	2023-05-03T00:00:00	2024-11-06T19:00:00	5	Humedad	89
140693	7	Sololá	701	Sololá	2	El tablón	3	Marzo	2023-05-03T00:00:00	2024-11-06T19:00:00	6	Velocidad del viento	1.6
140694	7	Sololá	701	Sololá	2	El tablón	3	Marzo	2023-05-03T00:00:00	2024-11-06T19:00:00	7	Dirección del viento	1.61
140695	7	Sololá	701	Sololá	2	El tablón	3	Marzo	2023-05-03T00:00:00	2024-11-06T19:00:00	1	Precipitación	0
140696	7	Sololá	701	Sololá	2	El tablón	3	Marzo	2023-05-03T00:00:00	2024-11-06T19:00:00	8	Radiación solar	0
140697	7	Sololá	701	Sololá	2	El tablón	3	Marzo	2023-05-03T00:00:00	2024-11-06T20:00:00	2	Temperatura media	14.7
140698	7	Sololá	701	Sololá	2	El tablón	3	Marzo	2023-05-03T00:00:00	2024-11-06T20:00:00	4	Temperatura máxima	14.9
140699	7	Sololá	701	Sololá	2	El tablón	3	Marzo	2023-05-03T00:00:00	2024-11-06T20:00:00	3	Temperatura mínima	14.6
140700	7	Sololá	701	Sololá	2	El tablón	3	Marzo	2023-05-03T00:00:00	2024-11-06T20:00:00	5	Humedad	85
140701	7	Sololá	701	Sololá	2	El tablón	3	Marzo	2023-05-03T00:00:00	2024-11-06T20:00:00	6	Velocidad del viento	1.6
140702	7	Sololá	701	Sololá	2	El tablón	3	Marzo	2023-05-03T00:00:00	2024-11-06T20:00:00	7	Dirección del viento	1.61
140703	7	Sololá	701	Sololá	2	El tablón	3	Marzo	2023-05-03T00:00:00	2024-11-06T20:00:00	1	Precipitación	0
140704	7	Sololá	701	Sololá	2	El tablón	3	Marzo	2023-05-03T00:00:00	2024-11-06T20:00:00	8	Radiación solar	0
140705	7	Sololá	701	Sololá	2	El tablón	3	Marzo	2023-05-03T00:00:00	2024-11-06T21:00:00	2	Temperatura media	14.1
140706	7	Sololá	701	Sololá	2	El tablón	3	Marzo	2023-05-03T00:00:00	2024-11-06T21:00:00	4	Temperatura máxima	14.7
140707	7	Sololá	701	Sololá	2	El tablón	3	Marzo	2023-05-03T00:00:00	2024-11-06T21:00:00	3	Temperatura mínima	14.1
140708	7	Sololá	701	Sololá	2	El tablón	3	Marzo	2023-05-03T00:00:00	2024-11-06T21:00:00	5	Humedad	84
140709	7	Sololá	701	Sololá	2	El tablón	3	Marzo	2023-05-03T00:00:00	2024-11-06T21:00:00	6	Velocidad del viento	4.8
140710	7	Sololá	701	Sololá	2	El tablón	3	Marzo	2023-05-03T00:00:00	2024-11-06T21:00:00	7	Dirección del viento	4.83
140711	7	Sololá	701	Sololá	2	El tablón	3	Marzo	2023-05-03T00:00:00	2024-11-06T21:00:00	1	Precipitación	0
140712	7	Sololá	701	Sololá	2	El tablón	3	Marzo	2023-05-03T00:00:00	2024-11-06T21:00:00	8	Radiación solar	0
140713	7	Sololá	701	Sololá	2	El tablón	3	Marzo	2023-05-03T00:00:00	2024-11-06T22:00:00	2	Temperatura media	13.1
140714	7	Sololá	701	Sololá	2	El tablón	3	Marzo	2023-05-03T00:00:00	2024-11-06T22:00:00	4	Temperatura máxima	14.1
140715	7	Sololá	701	Sololá	2	El tablón	3	Marzo	2023-05-03T00:00:00	2024-11-06T22:00:00	3	Temperatura mínima	13.1
140716	7	Sololá	701	Sololá	2	El tablón	3	Marzo	2023-05-03T00:00:00	2024-11-06T22:00:00	5	Humedad	85
140717	7	Sololá	701	Sololá	2	El tablón	3	Marzo	2023-05-03T00:00:00	2024-11-06T22:00:00	6	Velocidad del viento	8
140718	7	Sololá	701	Sololá	2	El tablón	3	Marzo	2023-05-03T00:00:00	2024-11-06T22:00:00	7	Dirección del viento	8.05
140719	7	Sololá	701	Sololá	2	El tablón	3	Marzo	2023-05-03T00:00:00	2024-11-06T22:00:00	1	Precipitación	0
140720	7	Sololá	701	Sololá	2	El tablón	3	Marzo	2023-05-03T00:00:00	2024-11-06T22:00:00	8	Radiación solar	0
140721	7	Sololá	701	Sololá	2	El tablón	3	Marzo	2023-05-03T00:00:00	2024-11-06T23:00:00	2	Temperatura media	12.7
140722	7	Sololá	701	Sololá	2	El tablón	3	Marzo	2023-05-03T00:00:00	2024-11-06T23:00:00	4	Temperatura máxima	13.1
140723	7	Sololá	701	Sololá	2	El tablón	3	Marzo	2023-05-03T00:00:00	2024-11-06T23:00:00	3	Temperatura mínima	12.7
140724	7	Sololá	701	Sololá	2	El tablón	3	Marzo	2023-05-03T00:00:00	2024-11-06T23:00:00	5	Humedad	84
140725	7	Sololá	701	Sololá	2	El tablón	3	Marzo	2023-05-03T00:00:00	2024-11-06T23:00:00	6	Velocidad del viento	8
140726	7	Sololá	701	Sololá	2	El tablón	3	Marzo	2023-05-03T00:00:00	2024-11-06T23:00:00	7	Dirección del viento	8.05
140727	7	Sololá	701	Sololá	2	El tablón	3	Marzo	2023-05-03T00:00:00	2024-11-06T23:00:00	1	Precipitación	0
140728	7	Sololá	701	Sololá	2	El tablón	3	Marzo	2023-05-03T00:00:00	2024-11-06T23:00:00	8	Radiación solar	0
140729	7	Sololá	701	Sololá	2	El tablón	3	Marzo	2023-06-03T00:00:00	2024-11-06T00:00:00	2	Temperatura media	12.3
140730	7	Sololá	701	Sololá	2	El tablón	3	Marzo	2023-06-03T00:00:00	2024-11-06T00:00:00	4	Temperatura máxima	12.7
140731	7	Sololá	701	Sololá	2	El tablón	3	Marzo	2023-06-03T00:00:00	2024-11-06T00:00:00	3	Temperatura mínima	12.3
140732	7	Sololá	701	Sololá	2	El tablón	3	Marzo	2023-06-03T00:00:00	2024-11-06T00:00:00	5	Humedad	85
140733	7	Sololá	701	Sololá	2	El tablón	3	Marzo	2023-06-03T00:00:00	2024-11-06T00:00:00	6	Velocidad del viento	9.7
140734	7	Sololá	701	Sololá	2	El tablón	3	Marzo	2023-06-03T00:00:00	2024-11-06T00:00:00	7	Dirección del viento	9.66
140735	7	Sololá	701	Sololá	2	El tablón	3	Marzo	2023-06-03T00:00:00	2024-11-06T00:00:00	1	Precipitación	0
140736	7	Sololá	701	Sololá	2	El tablón	3	Marzo	2023-06-03T00:00:00	2024-11-06T00:00:00	8	Radiación solar	0
140737	7	Sololá	701	Sololá	2	El tablón	3	Marzo	2023-06-03T00:00:00	2024-11-06T01:00:00	2	Temperatura media	12.1
140738	7	Sololá	701	Sololá	2	El tablón	3	Marzo	2023-06-03T00:00:00	2024-11-06T01:00:00	4	Temperatura máxima	12.3
140739	7	Sololá	701	Sololá	2	El tablón	3	Marzo	2023-06-03T00:00:00	2024-11-06T01:00:00	3	Temperatura mínima	11.8
140740	7	Sololá	701	Sololá	2	El tablón	3	Marzo	2023-06-03T00:00:00	2024-11-06T01:00:00	5	Humedad	82
140741	7	Sololá	701	Sololá	2	El tablón	3	Marzo	2023-06-03T00:00:00	2024-11-06T01:00:00	6	Velocidad del viento	9.7
140742	7	Sololá	701	Sololá	2	El tablón	3	Marzo	2023-06-03T00:00:00	2024-11-06T01:00:00	7	Dirección del viento	9.66
140743	7	Sololá	701	Sololá	2	El tablón	3	Marzo	2023-06-03T00:00:00	2024-11-06T01:00:00	1	Precipitación	0
140744	7	Sololá	701	Sololá	2	El tablón	3	Marzo	2023-06-03T00:00:00	2024-11-06T01:00:00	8	Radiación solar	0
140745	7	Sololá	701	Sololá	2	El tablón	3	Marzo	2023-06-03T00:00:00	2024-11-06T02:00:00	2	Temperatura media	11.9
140746	7	Sololá	701	Sololá	2	El tablón	3	Marzo	2023-06-03T00:00:00	2024-11-06T02:00:00	4	Temperatura máxima	12.3
140747	7	Sololá	701	Sololá	2	El tablón	3	Marzo	2023-06-03T00:00:00	2024-11-06T02:00:00	3	Temperatura mínima	11.9
140748	7	Sololá	701	Sololá	2	El tablón	3	Marzo	2023-06-03T00:00:00	2024-11-06T02:00:00	5	Humedad	82
140749	7	Sololá	701	Sololá	2	El tablón	3	Marzo	2023-06-03T00:00:00	2024-11-06T02:00:00	6	Velocidad del viento	8
140750	7	Sololá	701	Sololá	2	El tablón	3	Marzo	2023-06-03T00:00:00	2024-11-06T02:00:00	7	Dirección del viento	8.05
140751	7	Sololá	701	Sololá	2	El tablón	3	Marzo	2023-06-03T00:00:00	2024-11-06T02:00:00	1	Precipitación	0
140752	7	Sololá	701	Sololá	2	El tablón	3	Marzo	2023-06-03T00:00:00	2024-11-06T02:00:00	8	Radiación solar	0
140753	7	Sololá	701	Sololá	2	El tablón	3	Marzo	2023-06-03T00:00:00	2024-11-06T03:00:00	2	Temperatura media	11.2
140754	7	Sololá	701	Sololá	2	El tablón	3	Marzo	2023-06-03T00:00:00	2024-11-06T03:00:00	4	Temperatura máxima	11.9
140755	7	Sololá	701	Sololá	2	El tablón	3	Marzo	2023-06-03T00:00:00	2024-11-06T03:00:00	3	Temperatura mínima	11.2
140756	7	Sololá	701	Sololá	2	El tablón	3	Marzo	2023-06-03T00:00:00	2024-11-06T03:00:00	5	Humedad	86
140757	7	Sololá	701	Sololá	2	El tablón	3	Marzo	2023-06-03T00:00:00	2024-11-06T03:00:00	6	Velocidad del viento	11.3
140758	7	Sololá	701	Sololá	2	El tablón	3	Marzo	2023-06-03T00:00:00	2024-11-06T03:00:00	7	Dirección del viento	11.27
140759	7	Sololá	701	Sololá	2	El tablón	3	Marzo	2023-06-03T00:00:00	2024-11-06T03:00:00	1	Precipitación	0
140760	7	Sololá	701	Sololá	2	El tablón	3	Marzo	2023-06-03T00:00:00	2024-11-06T03:00:00	8	Radiación solar	0
140761	7	Sololá	701	Sololá	2	El tablón	3	Marzo	2023-06-03T00:00:00	2024-11-06T04:00:00	2	Temperatura media	10.7
140762	7	Sololá	701	Sololá	2	El tablón	3	Marzo	2023-06-03T00:00:00	2024-11-06T04:00:00	4	Temperatura máxima	11.2
140763	7	Sololá	701	Sololá	2	El tablón	3	Marzo	2023-06-03T00:00:00	2024-11-06T04:00:00	3	Temperatura mínima	10.7
140764	7	Sololá	701	Sololá	2	El tablón	3	Marzo	2023-06-03T00:00:00	2024-11-06T04:00:00	5	Humedad	86
140765	7	Sololá	701	Sololá	2	El tablón	3	Marzo	2023-06-03T00:00:00	2024-11-06T04:00:00	6	Velocidad del viento	9.7
140766	7	Sololá	701	Sololá	2	El tablón	3	Marzo	2023-06-03T00:00:00	2024-11-06T04:00:00	7	Dirección del viento	9.66
140767	7	Sololá	701	Sololá	2	El tablón	3	Marzo	2023-06-03T00:00:00	2024-11-06T04:00:00	1	Precipitación	0
140768	7	Sololá	701	Sololá	2	El tablón	3	Marzo	2023-06-03T00:00:00	2024-11-06T04:00:00	8	Radiación solar	0
140769	7	Sololá	701	Sololá	2	El tablón	3	Marzo	2023-06-03T00:00:00	2024-11-06T05:00:00	2	Temperatura media	10.5
140770	7	Sololá	701	Sololá	2	El tablón	3	Marzo	2023-06-03T00:00:00	2024-11-06T05:00:00	4	Temperatura máxima	10.7
140771	7	Sololá	701	Sololá	2	El tablón	3	Marzo	2023-06-03T00:00:00	2024-11-06T05:00:00	3	Temperatura mínima	10.5
140772	7	Sololá	701	Sololá	2	El tablón	3	Marzo	2023-06-03T00:00:00	2024-11-06T05:00:00	5	Humedad	85
140773	7	Sololá	701	Sololá	2	El tablón	3	Marzo	2023-06-03T00:00:00	2024-11-06T05:00:00	6	Velocidad del viento	8
140774	7	Sololá	701	Sololá	2	El tablón	3	Marzo	2023-06-03T00:00:00	2024-11-06T05:00:00	7	Dirección del viento	8.05
140775	7	Sololá	701	Sololá	2	El tablón	3	Marzo	2023-06-03T00:00:00	2024-11-06T05:00:00	1	Precipitación	0
140776	7	Sololá	701	Sololá	2	El tablón	3	Marzo	2023-06-03T00:00:00	2024-11-06T05:00:00	8	Radiación solar	0
140777	7	Sololá	701	Sololá	2	El tablón	3	Marzo	2023-06-03T00:00:00	2024-11-06T06:00:00	2	Temperatura media	10.3
140778	7	Sololá	701	Sololá	2	El tablón	3	Marzo	2023-06-03T00:00:00	2024-11-06T06:00:00	4	Temperatura máxima	10.6
140779	7	Sololá	701	Sololá	2	El tablón	3	Marzo	2023-06-03T00:00:00	2024-11-06T06:00:00	3	Temperatura mínima	10.3
140780	7	Sololá	701	Sololá	2	El tablón	3	Marzo	2023-06-03T00:00:00	2024-11-06T06:00:00	5	Humedad	86
140781	7	Sololá	701	Sololá	2	El tablón	3	Marzo	2023-06-03T00:00:00	2024-11-06T06:00:00	6	Velocidad del viento	8
140782	7	Sololá	701	Sololá	2	El tablón	3	Marzo	2023-06-03T00:00:00	2024-11-06T06:00:00	7	Dirección del viento	8.05
140783	7	Sololá	701	Sololá	2	El tablón	3	Marzo	2023-06-03T00:00:00	2024-11-06T06:00:00	1	Precipitación	0
140784	7	Sololá	701	Sololá	2	El tablón	3	Marzo	2023-06-03T00:00:00	2024-11-06T06:00:00	8	Radiación solar	0
140785	7	Sololá	701	Sololá	2	El tablón	3	Marzo	2023-06-03T00:00:00	2024-11-06T07:00:00	2	Temperatura media	10.6
140786	7	Sololá	701	Sololá	2	El tablón	3	Marzo	2023-06-03T00:00:00	2024-11-06T07:00:00	4	Temperatura máxima	10.6
140787	7	Sololá	701	Sololá	2	El tablón	3	Marzo	2023-06-03T00:00:00	2024-11-06T07:00:00	3	Temperatura mínima	10.2
140788	7	Sololá	701	Sololá	2	El tablón	3	Marzo	2023-06-03T00:00:00	2024-11-06T07:00:00	5	Humedad	85
140789	7	Sololá	701	Sololá	2	El tablón	3	Marzo	2023-06-03T00:00:00	2024-11-06T07:00:00	6	Velocidad del viento	9.7
140790	7	Sololá	701	Sololá	2	El tablón	3	Marzo	2023-06-03T00:00:00	2024-11-06T07:00:00	7	Dirección del viento	9.66
140791	7	Sololá	701	Sololá	2	El tablón	3	Marzo	2023-06-03T00:00:00	2024-11-06T07:00:00	1	Precipitación	0
140792	7	Sololá	701	Sololá	2	El tablón	3	Marzo	2023-06-03T00:00:00	2024-11-06T07:00:00	8	Radiación solar	16
140793	7	Sololá	701	Sololá	2	El tablón	3	Marzo	2023-06-03T00:00:00	2024-11-06T08:00:00	2	Temperatura media	14.2
140794	7	Sololá	701	Sololá	2	El tablón	3	Marzo	2023-06-03T00:00:00	2024-11-06T08:00:00	4	Temperatura máxima	14.2
140795	7	Sololá	701	Sololá	2	El tablón	3	Marzo	2023-06-03T00:00:00	2024-11-06T08:00:00	3	Temperatura mínima	10.6
140796	7	Sololá	701	Sololá	2	El tablón	3	Marzo	2023-06-03T00:00:00	2024-11-06T08:00:00	5	Humedad	71
140797	7	Sololá	701	Sololá	2	El tablón	3	Marzo	2023-06-03T00:00:00	2024-11-06T08:00:00	6	Velocidad del viento	4.8
140798	7	Sololá	701	Sololá	2	El tablón	3	Marzo	2023-06-03T00:00:00	2024-11-06T08:00:00	7	Dirección del viento	4.83
140799	7	Sololá	701	Sololá	2	El tablón	3	Marzo	2023-06-03T00:00:00	2024-11-06T08:00:00	1	Precipitación	0
140800	7	Sololá	701	Sololá	2	El tablón	3	Marzo	2023-06-03T00:00:00	2024-11-06T08:00:00	8	Radiación solar	152
140801	7	Sololá	701	Sololá	2	El tablón	3	Marzo	2023-06-03T00:00:00	2024-11-06T09:00:00	2	Temperatura media	16.7
140802	7	Sololá	701	Sololá	2	El tablón	3	Marzo	2023-06-03T00:00:00	2024-11-06T09:00:00	4	Temperatura máxima	16.7
140803	7	Sololá	701	Sololá	2	El tablón	3	Marzo	2023-06-03T00:00:00	2024-11-06T09:00:00	3	Temperatura mínima	14.2
140804	7	Sololá	701	Sololá	2	El tablón	3	Marzo	2023-06-03T00:00:00	2024-11-06T09:00:00	5	Humedad	61
140805	7	Sololá	701	Sololá	2	El tablón	3	Marzo	2023-06-03T00:00:00	2024-11-06T09:00:00	6	Velocidad del viento	1.6
140806	7	Sololá	701	Sololá	2	El tablón	3	Marzo	2023-06-03T00:00:00	2024-11-06T09:00:00	7	Dirección del viento	1.61
140807	7	Sololá	701	Sololá	2	El tablón	3	Marzo	2023-06-03T00:00:00	2024-11-06T09:00:00	1	Precipitación	0
140808	7	Sololá	701	Sololá	2	El tablón	3	Marzo	2023-06-03T00:00:00	2024-11-06T09:00:00	8	Radiación solar	384
140809	7	Sololá	701	Sololá	2	El tablón	3	Marzo	2023-06-03T00:00:00	2024-11-06T10:00:00	2	Temperatura media	18.3
140810	7	Sololá	701	Sololá	2	El tablón	3	Marzo	2023-06-03T00:00:00	2024-11-06T10:00:00	4	Temperatura máxima	18.3
140811	7	Sololá	701	Sololá	2	El tablón	3	Marzo	2023-06-03T00:00:00	2024-11-06T10:00:00	3	Temperatura mínima	16.7
140812	7	Sololá	701	Sololá	2	El tablón	3	Marzo	2023-06-03T00:00:00	2024-11-06T10:00:00	5	Humedad	59
140813	7	Sololá	701	Sololá	2	El tablón	3	Marzo	2023-06-03T00:00:00	2024-11-06T10:00:00	6	Velocidad del viento	6.4
140814	7	Sololá	701	Sololá	2	El tablón	3	Marzo	2023-06-03T00:00:00	2024-11-06T10:00:00	7	Dirección del viento	6.44
140815	7	Sololá	701	Sololá	2	El tablón	3	Marzo	2023-06-03T00:00:00	2024-11-06T10:00:00	1	Precipitación	0
140816	7	Sololá	701	Sololá	2	El tablón	3	Marzo	2023-06-03T00:00:00	2024-11-06T10:00:00	8	Radiación solar	627
140817	7	Sololá	701	Sololá	2	El tablón	3	Marzo	2023-06-03T00:00:00	2024-11-06T11:00:00	2	Temperatura media	20.2
140818	7	Sololá	701	Sololá	2	El tablón	3	Marzo	2023-06-03T00:00:00	2024-11-06T11:00:00	4	Temperatura máxima	20.2
140819	7	Sololá	701	Sololá	2	El tablón	3	Marzo	2023-06-03T00:00:00	2024-11-06T11:00:00	3	Temperatura mínima	18.3
140820	7	Sololá	701	Sololá	2	El tablón	3	Marzo	2023-06-03T00:00:00	2024-11-06T11:00:00	5	Humedad	43
140821	7	Sololá	701	Sololá	2	El tablón	3	Marzo	2023-06-03T00:00:00	2024-11-06T11:00:00	6	Velocidad del viento	8
140822	7	Sololá	701	Sololá	2	El tablón	3	Marzo	2023-06-03T00:00:00	2024-11-06T11:00:00	7	Dirección del viento	8.05
140823	7	Sololá	701	Sololá	2	El tablón	3	Marzo	2023-06-03T00:00:00	2024-11-06T11:00:00	1	Precipitación	0
140824	7	Sololá	701	Sololá	2	El tablón	3	Marzo	2023-06-03T00:00:00	2024-11-06T11:00:00	8	Radiación solar	788
140825	7	Sololá	701	Sololá	2	El tablón	3	Marzo	2023-06-03T00:00:00	2024-11-06T12:00:00	2	Temperatura media	21
140826	7	Sololá	701	Sololá	2	El tablón	3	Marzo	2023-06-03T00:00:00	2024-11-06T12:00:00	4	Temperatura máxima	21.3
140827	7	Sololá	701	Sololá	2	El tablón	3	Marzo	2023-06-03T00:00:00	2024-11-06T12:00:00	3	Temperatura mínima	20.1
140828	7	Sololá	701	Sololá	2	El tablón	3	Marzo	2023-06-03T00:00:00	2024-11-06T12:00:00	5	Humedad	41
140829	7	Sololá	701	Sololá	2	El tablón	3	Marzo	2023-06-03T00:00:00	2024-11-06T12:00:00	6	Velocidad del viento	9.7
140830	7	Sololá	701	Sololá	2	El tablón	3	Marzo	2023-06-03T00:00:00	2024-11-06T12:00:00	7	Dirección del viento	9.66
140831	7	Sololá	701	Sololá	2	El tablón	3	Marzo	2023-06-03T00:00:00	2024-11-06T12:00:00	1	Precipitación	0
140832	7	Sololá	701	Sololá	2	El tablón	3	Marzo	2023-06-03T00:00:00	2024-11-06T12:00:00	8	Radiación solar	827
140833	7	Sololá	701	Sololá	2	El tablón	3	Marzo	2023-06-03T00:00:00	2024-11-06T13:00:00	2	Temperatura media	19.4
140834	7	Sololá	701	Sololá	2	El tablón	3	Marzo	2023-06-03T00:00:00	2024-11-06T13:00:00	4	Temperatura máxima	21.6
140835	7	Sololá	701	Sololá	2	El tablón	3	Marzo	2023-06-03T00:00:00	2024-11-06T13:00:00	3	Temperatura mínima	19.4
140836	7	Sololá	701	Sololá	2	El tablón	3	Marzo	2023-06-03T00:00:00	2024-11-06T13:00:00	5	Humedad	68
140837	7	Sololá	701	Sololá	2	El tablón	3	Marzo	2023-06-03T00:00:00	2024-11-06T13:00:00	6	Velocidad del viento	8
140838	7	Sololá	701	Sololá	2	El tablón	3	Marzo	2023-06-03T00:00:00	2024-11-06T13:00:00	7	Dirección del viento	8.05
140839	7	Sololá	701	Sololá	2	El tablón	3	Marzo	2023-06-03T00:00:00	2024-11-06T13:00:00	1	Precipitación	0
140840	7	Sololá	701	Sololá	2	El tablón	3	Marzo	2023-06-03T00:00:00	2024-11-06T13:00:00	8	Radiación solar	875
140841	7	Sololá	701	Sololá	2	El tablón	3	Marzo	2023-06-03T00:00:00	2024-11-06T14:00:00	2	Temperatura media	19.6
140842	7	Sololá	701	Sololá	2	El tablón	3	Marzo	2023-06-03T00:00:00	2024-11-06T14:00:00	4	Temperatura máxima	19.8
140843	7	Sololá	701	Sololá	2	El tablón	3	Marzo	2023-06-03T00:00:00	2024-11-06T14:00:00	3	Temperatura mínima	18.9
140844	7	Sololá	701	Sololá	2	El tablón	3	Marzo	2023-06-03T00:00:00	2024-11-06T14:00:00	5	Humedad	70
140845	7	Sololá	701	Sololá	2	El tablón	3	Marzo	2023-06-03T00:00:00	2024-11-06T14:00:00	6	Velocidad del viento	11.3
140846	7	Sololá	701	Sololá	2	El tablón	3	Marzo	2023-06-03T00:00:00	2024-11-06T14:00:00	7	Dirección del viento	11.27
140847	7	Sololá	701	Sololá	2	El tablón	3	Marzo	2023-06-03T00:00:00	2024-11-06T14:00:00	1	Precipitación	0
140848	7	Sololá	701	Sololá	2	El tablón	3	Marzo	2023-06-03T00:00:00	2024-11-06T14:00:00	8	Radiación solar	860
140849	7	Sololá	701	Sololá	2	El tablón	3	Marzo	2023-06-03T00:00:00	2024-11-06T15:00:00	2	Temperatura media	18.1
140850	7	Sololá	701	Sololá	2	El tablón	3	Marzo	2023-06-03T00:00:00	2024-11-06T15:00:00	4	Temperatura máxima	19.6
140851	7	Sololá	701	Sololá	2	El tablón	3	Marzo	2023-06-03T00:00:00	2024-11-06T15:00:00	3	Temperatura mínima	18.1
140852	7	Sololá	701	Sololá	2	El tablón	3	Marzo	2023-06-03T00:00:00	2024-11-06T15:00:00	5	Humedad	78
140853	7	Sololá	701	Sololá	2	El tablón	3	Marzo	2023-06-03T00:00:00	2024-11-06T15:00:00	6	Velocidad del viento	11.3
140854	7	Sololá	701	Sololá	2	El tablón	3	Marzo	2023-06-03T00:00:00	2024-11-06T15:00:00	7	Dirección del viento	11.27
140855	7	Sololá	701	Sololá	2	El tablón	3	Marzo	2023-06-03T00:00:00	2024-11-06T15:00:00	1	Precipitación	0
140856	7	Sololá	701	Sololá	2	El tablón	3	Marzo	2023-06-03T00:00:00	2024-11-06T15:00:00	8	Radiación solar	740
140857	7	Sololá	701	Sololá	2	El tablón	3	Marzo	2023-06-03T00:00:00	2024-11-06T16:00:00	2	Temperatura media	18.3
140858	7	Sololá	701	Sololá	2	El tablón	3	Marzo	2023-06-03T00:00:00	2024-11-06T16:00:00	4	Temperatura máxima	18.3
140859	7	Sololá	701	Sololá	2	El tablón	3	Marzo	2023-06-03T00:00:00	2024-11-06T16:00:00	3	Temperatura mínima	17.7
140860	7	Sololá	701	Sololá	2	El tablón	3	Marzo	2023-06-03T00:00:00	2024-11-06T16:00:00	5	Humedad	78
140861	7	Sololá	701	Sololá	2	El tablón	3	Marzo	2023-06-03T00:00:00	2024-11-06T16:00:00	6	Velocidad del viento	8
140862	7	Sololá	701	Sololá	2	El tablón	3	Marzo	2023-06-03T00:00:00	2024-11-06T16:00:00	7	Dirección del viento	8.05
140863	7	Sololá	701	Sololá	2	El tablón	3	Marzo	2023-06-03T00:00:00	2024-11-06T16:00:00	1	Precipitación	0
140864	7	Sololá	701	Sololá	2	El tablón	3	Marzo	2023-06-03T00:00:00	2024-11-06T16:00:00	8	Radiación solar	562
140865	7	Sololá	701	Sololá	2	El tablón	3	Marzo	2023-06-03T00:00:00	2024-11-06T17:00:00	2	Temperatura media	16
140866	7	Sololá	701	Sololá	2	El tablón	3	Marzo	2023-06-03T00:00:00	2024-11-06T17:00:00	4	Temperatura máxima	18.4
140867	7	Sololá	701	Sololá	2	El tablón	3	Marzo	2023-06-03T00:00:00	2024-11-06T17:00:00	3	Temperatura mínima	16
140868	7	Sololá	701	Sololá	2	El tablón	3	Marzo	2023-06-03T00:00:00	2024-11-06T17:00:00	5	Humedad	85
140869	7	Sololá	701	Sololá	2	El tablón	3	Marzo	2023-06-03T00:00:00	2024-11-06T17:00:00	6	Velocidad del viento	8
140870	7	Sololá	701	Sololá	2	El tablón	3	Marzo	2023-06-03T00:00:00	2024-11-06T17:00:00	7	Dirección del viento	8.05
140871	7	Sololá	701	Sololá	2	El tablón	3	Marzo	2023-06-03T00:00:00	2024-11-06T17:00:00	1	Precipitación	0
140872	7	Sololá	701	Sololá	2	El tablón	3	Marzo	2023-06-03T00:00:00	2024-11-06T17:00:00	8	Radiación solar	291
140873	7	Sololá	701	Sololá	2	El tablón	3	Marzo	2023-06-03T00:00:00	2024-11-06T18:00:00	2	Temperatura media	14.9
140874	7	Sololá	701	Sololá	2	El tablón	3	Marzo	2023-06-03T00:00:00	2024-11-06T18:00:00	4	Temperatura máxima	16
140875	7	Sololá	701	Sololá	2	El tablón	3	Marzo	2023-06-03T00:00:00	2024-11-06T18:00:00	3	Temperatura mínima	14.8
140876	7	Sololá	701	Sololá	2	El tablón	3	Marzo	2023-06-03T00:00:00	2024-11-06T18:00:00	5	Humedad	89
140877	7	Sololá	701	Sololá	2	El tablón	3	Marzo	2023-06-03T00:00:00	2024-11-06T18:00:00	6	Velocidad del viento	4.8
140878	7	Sololá	701	Sololá	2	El tablón	3	Marzo	2023-06-03T00:00:00	2024-11-06T18:00:00	7	Dirección del viento	4.83
140879	7	Sololá	701	Sololá	2	El tablón	3	Marzo	2023-06-03T00:00:00	2024-11-06T18:00:00	1	Precipitación	0
140880	7	Sololá	701	Sololá	2	El tablón	3	Marzo	2023-06-03T00:00:00	2024-11-06T18:00:00	8	Radiación solar	54
140881	7	Sololá	701	Sololá	2	El tablón	3	Marzo	2023-06-03T00:00:00	2024-11-06T19:00:00	2	Temperatura media	14.5
140882	7	Sololá	701	Sololá	2	El tablón	3	Marzo	2023-06-03T00:00:00	2024-11-06T19:00:00	4	Temperatura máxima	14.9
140883	7	Sololá	701	Sololá	2	El tablón	3	Marzo	2023-06-03T00:00:00	2024-11-06T19:00:00	3	Temperatura mínima	14.3
140884	7	Sololá	701	Sololá	2	El tablón	3	Marzo	2023-06-03T00:00:00	2024-11-06T19:00:00	5	Humedad	81
140885	7	Sololá	701	Sololá	2	El tablón	3	Marzo	2023-06-03T00:00:00	2024-11-06T19:00:00	6	Velocidad del viento	1.6
140886	7	Sololá	701	Sololá	2	El tablón	3	Marzo	2023-06-03T00:00:00	2024-11-06T19:00:00	7	Dirección del viento	1.61
140887	7	Sololá	701	Sololá	2	El tablón	3	Marzo	2023-06-03T00:00:00	2024-11-06T19:00:00	1	Precipitación	0
140888	7	Sololá	701	Sololá	2	El tablón	3	Marzo	2023-06-03T00:00:00	2024-11-06T19:00:00	8	Radiación solar	0
140889	7	Sololá	701	Sololá	2	El tablón	3	Marzo	2023-06-03T00:00:00	2024-11-06T20:00:00	2	Temperatura media	13.7
140890	7	Sololá	701	Sololá	2	El tablón	3	Marzo	2023-06-03T00:00:00	2024-11-06T20:00:00	4	Temperatura máxima	14.5
140891	7	Sololá	701	Sololá	2	El tablón	3	Marzo	2023-06-03T00:00:00	2024-11-06T20:00:00	3	Temperatura mínima	13.7
140892	7	Sololá	701	Sololá	2	El tablón	3	Marzo	2023-06-03T00:00:00	2024-11-06T20:00:00	5	Humedad	81
140893	7	Sololá	701	Sololá	2	El tablón	3	Marzo	2023-06-03T00:00:00	2024-11-06T20:00:00	6	Velocidad del viento	4.8
140894	7	Sololá	701	Sololá	2	El tablón	3	Marzo	2023-06-03T00:00:00	2024-11-06T20:00:00	7	Dirección del viento	4.83
140895	7	Sololá	701	Sololá	2	El tablón	3	Marzo	2023-06-03T00:00:00	2024-11-06T20:00:00	1	Precipitación	0
140896	7	Sololá	701	Sololá	2	El tablón	3	Marzo	2023-06-03T00:00:00	2024-11-06T20:00:00	8	Radiación solar	0
140897	7	Sololá	701	Sololá	2	El tablón	3	Marzo	2023-06-03T00:00:00	2024-11-06T21:00:00	2	Temperatura media	12.8
140898	7	Sololá	701	Sololá	2	El tablón	3	Marzo	2023-06-03T00:00:00	2024-11-06T21:00:00	4	Temperatura máxima	13.7
140899	7	Sololá	701	Sololá	2	El tablón	3	Marzo	2023-06-03T00:00:00	2024-11-06T21:00:00	3	Temperatura mínima	12.8
140900	7	Sololá	701	Sololá	2	El tablón	3	Marzo	2023-06-03T00:00:00	2024-11-06T21:00:00	5	Humedad	85
140901	7	Sololá	701	Sololá	2	El tablón	3	Marzo	2023-06-03T00:00:00	2024-11-06T21:00:00	6	Velocidad del viento	9.7
140902	7	Sololá	701	Sololá	2	El tablón	3	Marzo	2023-06-03T00:00:00	2024-11-06T21:00:00	7	Dirección del viento	9.66
140903	7	Sololá	701	Sololá	2	El tablón	3	Marzo	2023-06-03T00:00:00	2024-11-06T21:00:00	1	Precipitación	0
140904	7	Sololá	701	Sololá	2	El tablón	3	Marzo	2023-06-03T00:00:00	2024-11-06T21:00:00	8	Radiación solar	0
140905	7	Sololá	701	Sololá	2	El tablón	3	Marzo	2023-06-03T00:00:00	2024-11-06T22:00:00	2	Temperatura media	12.4
140906	7	Sololá	701	Sololá	2	El tablón	3	Marzo	2023-06-03T00:00:00	2024-11-06T22:00:00	4	Temperatura máxima	12.8
140907	7	Sololá	701	Sololá	2	El tablón	3	Marzo	2023-06-03T00:00:00	2024-11-06T22:00:00	3	Temperatura mínima	12.3
140908	7	Sololá	701	Sololá	2	El tablón	3	Marzo	2023-06-03T00:00:00	2024-11-06T22:00:00	5	Humedad	84
140909	7	Sololá	701	Sololá	2	El tablón	3	Marzo	2023-06-03T00:00:00	2024-11-06T22:00:00	6	Velocidad del viento	11.3
140910	7	Sololá	701	Sololá	2	El tablón	3	Marzo	2023-06-03T00:00:00	2024-11-06T22:00:00	7	Dirección del viento	11.27
140911	7	Sololá	701	Sololá	2	El tablón	3	Marzo	2023-06-03T00:00:00	2024-11-06T22:00:00	1	Precipitación	0
140912	7	Sololá	701	Sololá	2	El tablón	3	Marzo	2023-06-03T00:00:00	2024-11-06T22:00:00	8	Radiación solar	0
140913	7	Sololá	701	Sololá	2	El tablón	3	Marzo	2023-06-03T00:00:00	2024-11-06T23:00:00	2	Temperatura media	12
140914	7	Sololá	701	Sololá	2	El tablón	3	Marzo	2023-06-03T00:00:00	2024-11-06T23:00:00	4	Temperatura máxima	12.6
140915	7	Sololá	701	Sololá	2	El tablón	3	Marzo	2023-06-03T00:00:00	2024-11-06T23:00:00	3	Temperatura mínima	12
140916	7	Sololá	701	Sololá	2	El tablón	3	Marzo	2023-06-03T00:00:00	2024-11-06T23:00:00	5	Humedad	84
140917	7	Sololá	701	Sololá	2	El tablón	3	Marzo	2023-06-03T00:00:00	2024-11-06T23:00:00	6	Velocidad del viento	11.3
140918	7	Sololá	701	Sololá	2	El tablón	3	Marzo	2023-06-03T00:00:00	2024-11-06T23:00:00	7	Dirección del viento	11.27
140919	7	Sololá	701	Sololá	2	El tablón	3	Marzo	2023-06-03T00:00:00	2024-11-06T23:00:00	1	Precipitación	0
140920	7	Sololá	701	Sololá	2	El tablón	3	Marzo	2023-06-03T00:00:00	2024-11-06T23:00:00	8	Radiación solar	0
140921	7	Sololá	701	Sololá	2	El tablón	3	Marzo	2023-07-03T00:00:00	2024-11-06T00:00:00	2	Temperatura media	11.3
140922	7	Sololá	701	Sololá	2	El tablón	3	Marzo	2023-07-03T00:00:00	2024-11-06T00:00:00	4	Temperatura máxima	12
140923	7	Sololá	701	Sololá	2	El tablón	3	Marzo	2023-07-03T00:00:00	2024-11-06T00:00:00	3	Temperatura mínima	11.3
140924	7	Sololá	701	Sololá	2	El tablón	3	Marzo	2023-07-03T00:00:00	2024-11-06T00:00:00	5	Humedad	85
140925	7	Sololá	701	Sololá	2	El tablón	3	Marzo	2023-07-03T00:00:00	2024-11-06T00:00:00	6	Velocidad del viento	11.3
140926	7	Sololá	701	Sololá	2	El tablón	3	Marzo	2023-07-03T00:00:00	2024-11-06T00:00:00	7	Dirección del viento	11.27
140927	7	Sololá	701	Sololá	2	El tablón	3	Marzo	2023-07-03T00:00:00	2024-11-06T00:00:00	1	Precipitación	0
140928	7	Sololá	701	Sololá	2	El tablón	3	Marzo	2023-07-03T00:00:00	2024-11-06T00:00:00	8	Radiación solar	0
140929	7	Sololá	701	Sololá	2	El tablón	3	Marzo	2023-07-03T00:00:00	2024-11-06T01:00:00	2	Temperatura media	10.3
140930	7	Sololá	701	Sololá	2	El tablón	3	Marzo	2023-07-03T00:00:00	2024-11-06T01:00:00	4	Temperatura máxima	11.3
140931	7	Sololá	701	Sololá	2	El tablón	3	Marzo	2023-07-03T00:00:00	2024-11-06T01:00:00	3	Temperatura mínima	10.3
140932	7	Sololá	701	Sololá	2	El tablón	3	Marzo	2023-07-03T00:00:00	2024-11-06T01:00:00	5	Humedad	86
140933	7	Sololá	701	Sololá	2	El tablón	3	Marzo	2023-07-03T00:00:00	2024-11-06T01:00:00	6	Velocidad del viento	4.8
140934	7	Sololá	701	Sololá	2	El tablón	3	Marzo	2023-07-03T00:00:00	2024-11-06T01:00:00	7	Dirección del viento	4.83
140935	7	Sololá	701	Sololá	2	El tablón	3	Marzo	2023-07-03T00:00:00	2024-11-06T01:00:00	1	Precipitación	0
140936	7	Sololá	701	Sololá	2	El tablón	3	Marzo	2023-07-03T00:00:00	2024-11-06T01:00:00	8	Radiación solar	0
140937	7	Sololá	701	Sololá	2	El tablón	3	Marzo	2023-07-03T00:00:00	2024-11-06T02:00:00	2	Temperatura media	8.9
140938	7	Sololá	701	Sololá	2	El tablón	3	Marzo	2023-07-03T00:00:00	2024-11-06T02:00:00	4	Temperatura máxima	10.3
140939	7	Sololá	701	Sololá	2	El tablón	3	Marzo	2023-07-03T00:00:00	2024-11-06T02:00:00	3	Temperatura mínima	8.9
140940	7	Sololá	701	Sololá	2	El tablón	3	Marzo	2023-07-03T00:00:00	2024-11-06T02:00:00	5	Humedad	86
140941	7	Sololá	701	Sololá	2	El tablón	3	Marzo	2023-07-03T00:00:00	2024-11-06T02:00:00	6	Velocidad del viento	3.2
140942	7	Sololá	701	Sololá	2	El tablón	3	Marzo	2023-07-03T00:00:00	2024-11-06T02:00:00	7	Dirección del viento	3.22
140943	7	Sololá	701	Sololá	2	El tablón	3	Marzo	2023-07-03T00:00:00	2024-11-06T02:00:00	1	Precipitación	0
140944	7	Sololá	701	Sololá	2	El tablón	3	Marzo	2023-07-03T00:00:00	2024-11-06T02:00:00	8	Radiación solar	0
140945	7	Sololá	701	Sololá	2	El tablón	3	Marzo	2023-07-03T00:00:00	2024-11-06T03:00:00	2	Temperatura media	7.9
140946	7	Sololá	701	Sololá	2	El tablón	3	Marzo	2023-07-03T00:00:00	2024-11-06T03:00:00	4	Temperatura máxima	8.9
140947	7	Sololá	701	Sololá	2	El tablón	3	Marzo	2023-07-03T00:00:00	2024-11-06T03:00:00	3	Temperatura mínima	7.9
140948	7	Sololá	701	Sololá	2	El tablón	3	Marzo	2023-07-03T00:00:00	2024-11-06T03:00:00	5	Humedad	76
140949	7	Sololá	701	Sololá	2	El tablón	3	Marzo	2023-07-03T00:00:00	2024-11-06T03:00:00	6	Velocidad del viento	3.2
140950	7	Sololá	701	Sololá	2	El tablón	3	Marzo	2023-07-03T00:00:00	2024-11-06T03:00:00	7	Dirección del viento	3.22
140951	7	Sololá	701	Sololá	2	El tablón	3	Marzo	2023-07-03T00:00:00	2024-11-06T03:00:00	1	Precipitación	0
140952	7	Sololá	701	Sololá	2	El tablón	3	Marzo	2023-07-03T00:00:00	2024-11-06T03:00:00	8	Radiación solar	0
140953	7	Sololá	701	Sololá	2	El tablón	3	Marzo	2023-07-03T00:00:00	2024-11-06T04:00:00	2	Temperatura media	7.9
140954	7	Sololá	701	Sololá	2	El tablón	3	Marzo	2023-07-03T00:00:00	2024-11-06T04:00:00	4	Temperatura máxima	8.6
140955	7	Sololá	701	Sololá	2	El tablón	3	Marzo	2023-07-03T00:00:00	2024-11-06T04:00:00	3	Temperatura mínima	7.9
140956	7	Sololá	701	Sololá	2	El tablón	3	Marzo	2023-07-03T00:00:00	2024-11-06T04:00:00	5	Humedad	89
140957	7	Sololá	701	Sololá	2	El tablón	3	Marzo	2023-07-03T00:00:00	2024-11-06T04:00:00	6	Velocidad del viento	3.2
140958	7	Sololá	701	Sololá	2	El tablón	3	Marzo	2023-07-03T00:00:00	2024-11-06T04:00:00	7	Dirección del viento	3.22
140959	7	Sololá	701	Sololá	2	El tablón	3	Marzo	2023-07-03T00:00:00	2024-11-06T04:00:00	1	Precipitación	0
140960	7	Sololá	701	Sololá	2	El tablón	3	Marzo	2023-07-03T00:00:00	2024-11-06T04:00:00	8	Radiación solar	0
140961	7	Sololá	701	Sololá	2	El tablón	3	Marzo	2023-07-03T00:00:00	2024-11-06T05:00:00	2	Temperatura media	8.4
140962	7	Sololá	701	Sololá	2	El tablón	3	Marzo	2023-07-03T00:00:00	2024-11-06T05:00:00	4	Temperatura máxima	8.4
140963	7	Sololá	701	Sololá	2	El tablón	3	Marzo	2023-07-03T00:00:00	2024-11-06T05:00:00	3	Temperatura mínima	7.8
140964	7	Sololá	701	Sololá	2	El tablón	3	Marzo	2023-07-03T00:00:00	2024-11-06T05:00:00	5	Humedad	84
140965	7	Sololá	701	Sololá	2	El tablón	3	Marzo	2023-07-03T00:00:00	2024-11-06T05:00:00	6	Velocidad del viento	3.2
140966	7	Sololá	701	Sololá	2	El tablón	3	Marzo	2023-07-03T00:00:00	2024-11-06T05:00:00	7	Dirección del viento	3.22
140967	7	Sololá	701	Sololá	2	El tablón	3	Marzo	2023-07-03T00:00:00	2024-11-06T05:00:00	1	Precipitación	0
140968	7	Sololá	701	Sololá	2	El tablón	3	Marzo	2023-07-03T00:00:00	2024-11-06T05:00:00	8	Radiación solar	0
140969	7	Sololá	701	Sololá	2	El tablón	3	Marzo	2023-07-03T00:00:00	2024-11-06T06:00:00	2	Temperatura media	8.8
140970	7	Sololá	701	Sololá	2	El tablón	3	Marzo	2023-07-03T00:00:00	2024-11-06T06:00:00	4	Temperatura máxima	8.8
140971	7	Sololá	701	Sololá	2	El tablón	3	Marzo	2023-07-03T00:00:00	2024-11-06T06:00:00	3	Temperatura mínima	7.8
140972	7	Sololá	701	Sololá	2	El tablón	3	Marzo	2023-07-03T00:00:00	2024-11-06T06:00:00	5	Humedad	70
140973	7	Sololá	701	Sololá	2	El tablón	3	Marzo	2023-07-03T00:00:00	2024-11-06T06:00:00	6	Velocidad del viento	1.6
140974	7	Sololá	701	Sololá	2	El tablón	3	Marzo	2023-07-03T00:00:00	2024-11-06T06:00:00	7	Dirección del viento	1.61
140975	7	Sololá	701	Sololá	2	El tablón	3	Marzo	2023-07-03T00:00:00	2024-11-06T06:00:00	1	Precipitación	0
140976	7	Sololá	701	Sololá	2	El tablón	3	Marzo	2023-07-03T00:00:00	2024-11-06T06:00:00	8	Radiación solar	0
140977	7	Sololá	701	Sololá	2	El tablón	3	Marzo	2023-07-03T00:00:00	2024-11-06T07:00:00	2	Temperatura media	9.9
140978	7	Sololá	701	Sololá	2	El tablón	3	Marzo	2023-07-03T00:00:00	2024-11-06T07:00:00	4	Temperatura máxima	9.9
140979	7	Sololá	701	Sololá	2	El tablón	3	Marzo	2023-07-03T00:00:00	2024-11-06T07:00:00	3	Temperatura mínima	8.8
140980	7	Sololá	701	Sololá	2	El tablón	3	Marzo	2023-07-03T00:00:00	2024-11-06T07:00:00	5	Humedad	69
140981	7	Sololá	701	Sololá	2	El tablón	3	Marzo	2023-07-03T00:00:00	2024-11-06T07:00:00	6	Velocidad del viento	3.2
140982	7	Sololá	701	Sololá	2	El tablón	3	Marzo	2023-07-03T00:00:00	2024-11-06T07:00:00	7	Dirección del viento	3.22
140983	7	Sololá	701	Sololá	2	El tablón	3	Marzo	2023-07-03T00:00:00	2024-11-06T07:00:00	1	Precipitación	0
140984	7	Sololá	701	Sololá	2	El tablón	3	Marzo	2023-07-03T00:00:00	2024-11-06T07:00:00	8	Radiación solar	18
140985	7	Sololá	701	Sololá	2	El tablón	3	Marzo	2023-07-03T00:00:00	2024-11-06T08:00:00	2	Temperatura media	11.4
140986	7	Sololá	701	Sololá	2	El tablón	3	Marzo	2023-07-03T00:00:00	2024-11-06T08:00:00	4	Temperatura máxima	11.6
140987	7	Sololá	701	Sololá	2	El tablón	3	Marzo	2023-07-03T00:00:00	2024-11-06T08:00:00	3	Temperatura mínima	9.9
140988	7	Sololá	701	Sololá	2	El tablón	3	Marzo	2023-07-03T00:00:00	2024-11-06T08:00:00	5	Humedad	69
140989	7	Sololá	701	Sololá	2	El tablón	3	Marzo	2023-07-03T00:00:00	2024-11-06T08:00:00	6	Velocidad del viento	1.6
140990	7	Sololá	701	Sololá	2	El tablón	3	Marzo	2023-07-03T00:00:00	2024-11-06T08:00:00	7	Dirección del viento	1.61
140991	7	Sololá	701	Sololá	2	El tablón	3	Marzo	2023-07-03T00:00:00	2024-11-06T08:00:00	1	Precipitación	0
140992	7	Sololá	701	Sololá	2	El tablón	3	Marzo	2023-07-03T00:00:00	2024-11-06T08:00:00	8	Radiación solar	127
140993	7	Sololá	701	Sololá	2	El tablón	3	Marzo	2023-07-03T00:00:00	2024-11-06T09:00:00	2	Temperatura media	13.8
140994	7	Sololá	701	Sololá	2	El tablón	3	Marzo	2023-07-03T00:00:00	2024-11-06T09:00:00	4	Temperatura máxima	13.8
140995	7	Sololá	701	Sololá	2	El tablón	3	Marzo	2023-07-03T00:00:00	2024-11-06T09:00:00	3	Temperatura mínima	11.3
140996	7	Sololá	701	Sololá	2	El tablón	3	Marzo	2023-07-03T00:00:00	2024-11-06T09:00:00	5	Humedad	71
140997	7	Sololá	701	Sololá	2	El tablón	3	Marzo	2023-07-03T00:00:00	2024-11-06T09:00:00	6	Velocidad del viento	3.2
140998	7	Sololá	701	Sololá	2	El tablón	3	Marzo	2023-07-03T00:00:00	2024-11-06T09:00:00	7	Dirección del viento	3.22
140999	7	Sololá	701	Sololá	2	El tablón	3	Marzo	2023-07-03T00:00:00	2024-11-06T09:00:00	1	Precipitación	0
141000	7	Sololá	701	Sololá	2	El tablón	3	Marzo	2023-07-03T00:00:00	2024-11-06T09:00:00	8	Radiación solar	291
141001	7	Sololá	701	Sololá	2	El tablón	3	Marzo	2023-07-03T00:00:00	2024-11-06T10:00:00	2	Temperatura media	15.2
141002	7	Sololá	701	Sololá	2	El tablón	3	Marzo	2023-07-03T00:00:00	2024-11-06T10:00:00	4	Temperatura máxima	15.3
141003	7	Sololá	701	Sololá	2	El tablón	3	Marzo	2023-07-03T00:00:00	2024-11-06T10:00:00	3	Temperatura mínima	13.8
141004	7	Sololá	701	Sololá	2	El tablón	3	Marzo	2023-07-03T00:00:00	2024-11-06T10:00:00	5	Humedad	68
141005	7	Sololá	701	Sololá	2	El tablón	3	Marzo	2023-07-03T00:00:00	2024-11-06T10:00:00	6	Velocidad del viento	4.8
141006	7	Sololá	701	Sololá	2	El tablón	3	Marzo	2023-07-03T00:00:00	2024-11-06T10:00:00	7	Dirección del viento	4.83
141007	7	Sololá	701	Sololá	2	El tablón	3	Marzo	2023-07-03T00:00:00	2024-11-06T10:00:00	1	Precipitación	0
141008	7	Sololá	701	Sololá	2	El tablón	3	Marzo	2023-07-03T00:00:00	2024-11-06T10:00:00	8	Radiación solar	522
141009	7	Sololá	701	Sololá	2	El tablón	3	Marzo	2023-07-03T00:00:00	2024-11-06T11:00:00	2	Temperatura media	16.2
141010	7	Sololá	701	Sololá	2	El tablón	3	Marzo	2023-07-03T00:00:00	2024-11-06T11:00:00	4	Temperatura máxima	16.2
141011	7	Sololá	701	Sololá	2	El tablón	3	Marzo	2023-07-03T00:00:00	2024-11-06T11:00:00	3	Temperatura mínima	14.8
141012	7	Sololá	701	Sololá	2	El tablón	3	Marzo	2023-07-03T00:00:00	2024-11-06T11:00:00	5	Humedad	69
141013	7	Sololá	701	Sololá	2	El tablón	3	Marzo	2023-07-03T00:00:00	2024-11-06T11:00:00	6	Velocidad del viento	4.8
141014	7	Sololá	701	Sololá	2	El tablón	3	Marzo	2023-07-03T00:00:00	2024-11-06T11:00:00	7	Dirección del viento	4.83
141015	7	Sololá	701	Sololá	2	El tablón	3	Marzo	2023-07-03T00:00:00	2024-11-06T11:00:00	1	Precipitación	0
141016	7	Sololá	701	Sololá	2	El tablón	3	Marzo	2023-07-03T00:00:00	2024-11-06T11:00:00	8	Radiación solar	567
141017	7	Sololá	701	Sololá	2	El tablón	3	Marzo	2023-07-03T00:00:00	2024-11-06T12:00:00	2	Temperatura media	16.2
141018	7	Sololá	701	Sololá	2	El tablón	3	Marzo	2023-07-03T00:00:00	2024-11-06T12:00:00	4	Temperatura máxima	16.6
141019	7	Sololá	701	Sololá	2	El tablón	3	Marzo	2023-07-03T00:00:00	2024-11-06T12:00:00	3	Temperatura mínima	15.9
141020	7	Sololá	701	Sololá	2	El tablón	3	Marzo	2023-07-03T00:00:00	2024-11-06T12:00:00	5	Humedad	75
141021	7	Sololá	701	Sololá	2	El tablón	3	Marzo	2023-07-03T00:00:00	2024-11-06T12:00:00	6	Velocidad del viento	11.3
141022	7	Sololá	701	Sololá	2	El tablón	3	Marzo	2023-07-03T00:00:00	2024-11-06T12:00:00	7	Dirección del viento	11.27
141023	7	Sololá	701	Sololá	2	El tablón	3	Marzo	2023-07-03T00:00:00	2024-11-06T12:00:00	1	Precipitación	0
141024	7	Sololá	701	Sololá	2	El tablón	3	Marzo	2023-07-03T00:00:00	2024-11-06T12:00:00	8	Radiación solar	858
141025	7	Sololá	701	Sololá	2	El tablón	3	Marzo	2023-07-03T00:00:00	2024-11-06T13:00:00	2	Temperatura media	16.5
141026	7	Sololá	701	Sololá	2	El tablón	3	Marzo	2023-07-03T00:00:00	2024-11-06T13:00:00	4	Temperatura máxima	16.7
141027	7	Sololá	701	Sololá	2	El tablón	3	Marzo	2023-07-03T00:00:00	2024-11-06T13:00:00	3	Temperatura mínima	16
141028	7	Sololá	701	Sololá	2	El tablón	3	Marzo	2023-07-03T00:00:00	2024-11-06T13:00:00	5	Humedad	78
141029	7	Sololá	701	Sololá	2	El tablón	3	Marzo	2023-07-03T00:00:00	2024-11-06T13:00:00	6	Velocidad del viento	8
141030	7	Sololá	701	Sololá	2	El tablón	3	Marzo	2023-07-03T00:00:00	2024-11-06T13:00:00	7	Dirección del viento	8.05
141031	7	Sololá	701	Sololá	2	El tablón	3	Marzo	2023-07-03T00:00:00	2024-11-06T13:00:00	1	Precipitación	0
141032	7	Sololá	701	Sololá	2	El tablón	3	Marzo	2023-07-03T00:00:00	2024-11-06T13:00:00	8	Radiación solar	749
141033	7	Sololá	701	Sololá	2	El tablón	3	Marzo	2023-07-03T00:00:00	2024-11-06T14:00:00	2	Temperatura media	16.7
141034	7	Sololá	701	Sololá	2	El tablón	3	Marzo	2023-07-03T00:00:00	2024-11-06T14:00:00	4	Temperatura máxima	16.9
141035	7	Sololá	701	Sololá	2	El tablón	3	Marzo	2023-07-03T00:00:00	2024-11-06T14:00:00	3	Temperatura mínima	16.1
141036	7	Sololá	701	Sololá	2	El tablón	3	Marzo	2023-07-03T00:00:00	2024-11-06T14:00:00	5	Humedad	81
141037	7	Sololá	701	Sololá	2	El tablón	3	Marzo	2023-07-03T00:00:00	2024-11-06T14:00:00	6	Velocidad del viento	9.7
141038	7	Sololá	701	Sololá	2	El tablón	3	Marzo	2023-07-03T00:00:00	2024-11-06T14:00:00	7	Dirección del viento	9.66
141039	7	Sololá	701	Sololá	2	El tablón	3	Marzo	2023-07-03T00:00:00	2024-11-06T14:00:00	1	Precipitación	0
141040	7	Sololá	701	Sololá	2	El tablón	3	Marzo	2023-07-03T00:00:00	2024-11-06T14:00:00	8	Radiación solar	733
141041	7	Sololá	701	Sololá	2	El tablón	3	Marzo	2023-07-03T00:00:00	2024-11-06T15:00:00	2	Temperatura media	15.9
141042	7	Sololá	701	Sololá	2	El tablón	3	Marzo	2023-07-03T00:00:00	2024-11-06T15:00:00	4	Temperatura máxima	16.7
141043	7	Sololá	701	Sololá	2	El tablón	3	Marzo	2023-07-03T00:00:00	2024-11-06T15:00:00	3	Temperatura mínima	15.3
141044	7	Sololá	701	Sololá	2	El tablón	3	Marzo	2023-07-03T00:00:00	2024-11-06T15:00:00	5	Humedad	84
141045	7	Sololá	701	Sololá	2	El tablón	3	Marzo	2023-07-03T00:00:00	2024-11-06T15:00:00	6	Velocidad del viento	6.4
141046	7	Sololá	701	Sololá	2	El tablón	3	Marzo	2023-07-03T00:00:00	2024-11-06T15:00:00	7	Dirección del viento	6.44
141047	7	Sololá	701	Sololá	2	El tablón	3	Marzo	2023-07-03T00:00:00	2024-11-06T15:00:00	1	Precipitación	0
141048	7	Sololá	701	Sololá	2	El tablón	3	Marzo	2023-07-03T00:00:00	2024-11-06T15:00:00	8	Radiación solar	379
141049	7	Sololá	701	Sololá	2	El tablón	3	Marzo	2023-07-03T00:00:00	2024-11-06T16:00:00	2	Temperatura media	14.4
141050	7	Sololá	701	Sololá	2	El tablón	3	Marzo	2023-07-03T00:00:00	2024-11-06T16:00:00	4	Temperatura máxima	16.1
141051	7	Sololá	701	Sololá	2	El tablón	3	Marzo	2023-07-03T00:00:00	2024-11-06T16:00:00	3	Temperatura mínima	14.3
141052	7	Sololá	701	Sololá	2	El tablón	3	Marzo	2023-07-03T00:00:00	2024-11-06T16:00:00	5	Humedad	88
141053	7	Sololá	701	Sololá	2	El tablón	3	Marzo	2023-07-03T00:00:00	2024-11-06T16:00:00	6	Velocidad del viento	6.4
141054	7	Sololá	701	Sololá	2	El tablón	3	Marzo	2023-07-03T00:00:00	2024-11-06T16:00:00	7	Dirección del viento	6.44
141055	7	Sololá	701	Sololá	2	El tablón	3	Marzo	2023-07-03T00:00:00	2024-11-06T16:00:00	1	Precipitación	0
141056	7	Sololá	701	Sololá	2	El tablón	3	Marzo	2023-07-03T00:00:00	2024-11-06T16:00:00	8	Radiación solar	168
141057	7	Sololá	701	Sololá	2	El tablón	3	Marzo	2023-07-03T00:00:00	2024-11-06T17:00:00	2	Temperatura media	13.9
141058	7	Sololá	701	Sololá	2	El tablón	3	Marzo	2023-07-03T00:00:00	2024-11-06T17:00:00	4	Temperatura máxima	14.4
141059	7	Sololá	701	Sololá	2	El tablón	3	Marzo	2023-07-03T00:00:00	2024-11-06T17:00:00	3	Temperatura mínima	13.7
141060	7	Sololá	701	Sololá	2	El tablón	3	Marzo	2023-07-03T00:00:00	2024-11-06T17:00:00	5	Humedad	89
141061	7	Sololá	701	Sololá	2	El tablón	3	Marzo	2023-07-03T00:00:00	2024-11-06T17:00:00	6	Velocidad del viento	3.2
141062	7	Sololá	701	Sololá	2	El tablón	3	Marzo	2023-07-03T00:00:00	2024-11-06T17:00:00	7	Dirección del viento	3.22
141063	7	Sololá	701	Sololá	2	El tablón	3	Marzo	2023-07-03T00:00:00	2024-11-06T17:00:00	1	Precipitación	0
141064	7	Sololá	701	Sololá	2	El tablón	3	Marzo	2023-07-03T00:00:00	2024-11-06T17:00:00	8	Radiación solar	64
141065	7	Sololá	701	Sololá	2	El tablón	3	Marzo	2023-07-03T00:00:00	2024-11-06T18:00:00	2	Temperatura media	14
141066	7	Sololá	701	Sololá	2	El tablón	3	Marzo	2023-07-03T00:00:00	2024-11-06T18:00:00	4	Temperatura máxima	14.2
141067	7	Sololá	701	Sololá	2	El tablón	3	Marzo	2023-07-03T00:00:00	2024-11-06T18:00:00	3	Temperatura mínima	13.9
141068	7	Sololá	701	Sololá	2	El tablón	3	Marzo	2023-07-03T00:00:00	2024-11-06T18:00:00	5	Humedad	89
141069	7	Sololá	701	Sololá	2	El tablón	3	Marzo	2023-07-03T00:00:00	2024-11-06T18:00:00	6	Velocidad del viento	3.2
141070	7	Sololá	701	Sololá	2	El tablón	3	Marzo	2023-07-03T00:00:00	2024-11-06T18:00:00	7	Dirección del viento	3.22
141071	7	Sololá	701	Sololá	2	El tablón	3	Marzo	2023-07-03T00:00:00	2024-11-06T18:00:00	1	Precipitación	0
141072	7	Sololá	701	Sololá	2	El tablón	3	Marzo	2023-07-03T00:00:00	2024-11-06T18:00:00	8	Radiación solar	71
141073	7	Sololá	701	Sololá	2	El tablón	3	Marzo	2023-07-03T00:00:00	2024-11-06T19:00:00	2	Temperatura media	13.3
141074	7	Sololá	701	Sololá	2	El tablón	3	Marzo	2023-07-03T00:00:00	2024-11-06T19:00:00	4	Temperatura máxima	14
141075	7	Sololá	701	Sololá	2	El tablón	3	Marzo	2023-07-03T00:00:00	2024-11-06T19:00:00	3	Temperatura mínima	13.3
141076	7	Sololá	701	Sololá	2	El tablón	3	Marzo	2023-07-03T00:00:00	2024-11-06T19:00:00	5	Humedad	89
141077	7	Sololá	701	Sololá	2	El tablón	3	Marzo	2023-07-03T00:00:00	2024-11-06T19:00:00	6	Velocidad del viento	1.6
141078	7	Sololá	701	Sololá	2	El tablón	3	Marzo	2023-07-03T00:00:00	2024-11-06T19:00:00	7	Dirección del viento	1.61
141079	7	Sololá	701	Sololá	2	El tablón	3	Marzo	2023-07-03T00:00:00	2024-11-06T19:00:00	1	Precipitación	0
141080	7	Sololá	701	Sololá	2	El tablón	3	Marzo	2023-07-03T00:00:00	2024-11-06T19:00:00	8	Radiación solar	0
141081	7	Sololá	701	Sololá	2	El tablón	3	Marzo	2023-07-03T00:00:00	2024-11-06T20:00:00	2	Temperatura media	13.1
141082	7	Sololá	701	Sololá	2	El tablón	3	Marzo	2023-07-03T00:00:00	2024-11-06T20:00:00	4	Temperatura máxima	13.3
141083	7	Sololá	701	Sololá	2	El tablón	3	Marzo	2023-07-03T00:00:00	2024-11-06T20:00:00	3	Temperatura mínima	12.8
141084	7	Sololá	701	Sololá	2	El tablón	3	Marzo	2023-07-03T00:00:00	2024-11-06T20:00:00	5	Humedad	83
141085	7	Sololá	701	Sololá	2	El tablón	3	Marzo	2023-07-03T00:00:00	2024-11-06T20:00:00	6	Velocidad del viento	1.6
141086	7	Sololá	701	Sololá	2	El tablón	3	Marzo	2023-07-03T00:00:00	2024-11-06T20:00:00	7	Dirección del viento	1.61
141087	7	Sololá	701	Sololá	2	El tablón	3	Marzo	2023-07-03T00:00:00	2024-11-06T20:00:00	1	Precipitación	0
141088	7	Sololá	701	Sololá	2	El tablón	3	Marzo	2023-07-03T00:00:00	2024-11-06T20:00:00	8	Radiación solar	0
141089	7	Sololá	701	Sololá	2	El tablón	3	Marzo	2023-07-03T00:00:00	2024-11-06T21:00:00	2	Temperatura media	12.6
141090	7	Sololá	701	Sololá	2	El tablón	3	Marzo	2023-07-03T00:00:00	2024-11-06T21:00:00	4	Temperatura máxima	13.2
141091	7	Sololá	701	Sololá	2	El tablón	3	Marzo	2023-07-03T00:00:00	2024-11-06T21:00:00	3	Temperatura mínima	12.6
141092	7	Sololá	701	Sololá	2	El tablón	3	Marzo	2023-07-03T00:00:00	2024-11-06T21:00:00	5	Humedad	84
141093	7	Sololá	701	Sololá	2	El tablón	3	Marzo	2023-07-03T00:00:00	2024-11-06T21:00:00	6	Velocidad del viento	4.8
141094	7	Sololá	701	Sololá	2	El tablón	3	Marzo	2023-07-03T00:00:00	2024-11-06T21:00:00	7	Dirección del viento	4.83
141095	7	Sololá	701	Sololá	2	El tablón	3	Marzo	2023-07-03T00:00:00	2024-11-06T21:00:00	1	Precipitación	0
141096	7	Sololá	701	Sololá	2	El tablón	3	Marzo	2023-07-03T00:00:00	2024-11-06T21:00:00	8	Radiación solar	0
141097	7	Sololá	701	Sololá	2	El tablón	3	Marzo	2023-07-03T00:00:00	2024-11-06T22:00:00	2	Temperatura media	12.5
141098	7	Sololá	701	Sololá	2	El tablón	3	Marzo	2023-07-03T00:00:00	2024-11-06T22:00:00	4	Temperatura máxima	12.6
141099	7	Sololá	701	Sololá	2	El tablón	3	Marzo	2023-07-03T00:00:00	2024-11-06T22:00:00	3	Temperatura mínima	12.4
141100	7	Sololá	701	Sololá	2	El tablón	3	Marzo	2023-07-03T00:00:00	2024-11-06T22:00:00	5	Humedad	87
141101	7	Sololá	701	Sololá	2	El tablón	3	Marzo	2023-07-03T00:00:00	2024-11-06T22:00:00	6	Velocidad del viento	3.2
141102	7	Sololá	701	Sololá	2	El tablón	3	Marzo	2023-07-03T00:00:00	2024-11-06T22:00:00	7	Dirección del viento	3.22
141103	7	Sololá	701	Sololá	2	El tablón	3	Marzo	2023-07-03T00:00:00	2024-11-06T22:00:00	1	Precipitación	0
141104	7	Sololá	701	Sololá	2	El tablón	3	Marzo	2023-07-03T00:00:00	2024-11-06T22:00:00	8	Radiación solar	0
141105	7	Sololá	701	Sololá	2	El tablón	3	Marzo	2023-07-03T00:00:00	2024-11-06T23:00:00	2	Temperatura media	12.1
141106	7	Sololá	701	Sololá	2	El tablón	3	Marzo	2023-07-03T00:00:00	2024-11-06T23:00:00	4	Temperatura máxima	12.5
141107	7	Sololá	701	Sololá	2	El tablón	3	Marzo	2023-07-03T00:00:00	2024-11-06T23:00:00	3	Temperatura mínima	12.1
141108	7	Sololá	701	Sololá	2	El tablón	3	Marzo	2023-07-03T00:00:00	2024-11-06T23:00:00	5	Humedad	86
141109	7	Sololá	701	Sololá	2	El tablón	3	Marzo	2023-07-03T00:00:00	2024-11-06T23:00:00	6	Velocidad del viento	8
141110	7	Sololá	701	Sololá	2	El tablón	3	Marzo	2023-07-03T00:00:00	2024-11-06T23:00:00	7	Dirección del viento	8.05
141111	7	Sololá	701	Sololá	2	El tablón	3	Marzo	2023-07-03T00:00:00	2024-11-06T23:00:00	1	Precipitación	0
141112	7	Sololá	701	Sololá	2	El tablón	3	Marzo	2023-07-03T00:00:00	2024-11-06T23:00:00	8	Radiación solar	0
141113	7	Sololá	701	Sololá	2	El tablón	3	Marzo	2023-08-03T00:00:00	2024-11-06T00:00:00	2	Temperatura media	11.6
141114	7	Sololá	701	Sololá	2	El tablón	3	Marzo	2023-08-03T00:00:00	2024-11-06T00:00:00	4	Temperatura máxima	12.2
141115	7	Sololá	701	Sololá	2	El tablón	3	Marzo	2023-08-03T00:00:00	2024-11-06T00:00:00	3	Temperatura mínima	11.6
141116	7	Sololá	701	Sololá	2	El tablón	3	Marzo	2023-08-03T00:00:00	2024-11-06T00:00:00	5	Humedad	88
141117	7	Sololá	701	Sololá	2	El tablón	3	Marzo	2023-08-03T00:00:00	2024-11-06T00:00:00	6	Velocidad del viento	3.2
141118	7	Sololá	701	Sololá	2	El tablón	3	Marzo	2023-08-03T00:00:00	2024-11-06T00:00:00	7	Dirección del viento	3.22
141119	7	Sololá	701	Sololá	2	El tablón	3	Marzo	2023-08-03T00:00:00	2024-11-06T00:00:00	1	Precipitación	0
141120	7	Sololá	701	Sololá	2	El tablón	3	Marzo	2023-08-03T00:00:00	2024-11-06T00:00:00	8	Radiación solar	0
141121	7	Sololá	701	Sololá	2	El tablón	3	Marzo	2023-08-03T00:00:00	2024-11-06T01:00:00	2	Temperatura media	11.1
141122	7	Sololá	701	Sololá	2	El tablón	3	Marzo	2023-08-03T00:00:00	2024-11-06T01:00:00	4	Temperatura máxima	11.6
141123	7	Sololá	701	Sololá	2	El tablón	3	Marzo	2023-08-03T00:00:00	2024-11-06T01:00:00	3	Temperatura mínima	11.1
141124	7	Sololá	701	Sololá	2	El tablón	3	Marzo	2023-08-03T00:00:00	2024-11-06T01:00:00	5	Humedad	88
141125	7	Sololá	701	Sololá	2	El tablón	3	Marzo	2023-08-03T00:00:00	2024-11-06T01:00:00	6	Velocidad del viento	3.2
141126	7	Sololá	701	Sololá	2	El tablón	3	Marzo	2023-08-03T00:00:00	2024-11-06T01:00:00	7	Dirección del viento	3.22
141127	7	Sololá	701	Sololá	2	El tablón	3	Marzo	2023-08-03T00:00:00	2024-11-06T01:00:00	1	Precipitación	0
141128	7	Sololá	701	Sololá	2	El tablón	3	Marzo	2023-08-03T00:00:00	2024-11-06T01:00:00	8	Radiación solar	0
141129	7	Sololá	701	Sololá	2	El tablón	3	Marzo	2023-08-03T00:00:00	2024-11-06T02:00:00	2	Temperatura media	10.6
141130	7	Sololá	701	Sololá	2	El tablón	3	Marzo	2023-08-03T00:00:00	2024-11-06T02:00:00	4	Temperatura máxima	11.1
141131	7	Sololá	701	Sololá	2	El tablón	3	Marzo	2023-08-03T00:00:00	2024-11-06T02:00:00	3	Temperatura mínima	10.6
141132	7	Sololá	701	Sololá	2	El tablón	3	Marzo	2023-08-03T00:00:00	2024-11-06T02:00:00	5	Humedad	89
141133	7	Sololá	701	Sololá	2	El tablón	3	Marzo	2023-08-03T00:00:00	2024-11-06T02:00:00	6	Velocidad del viento	1.6
141134	7	Sololá	701	Sololá	2	El tablón	3	Marzo	2023-08-03T00:00:00	2024-11-06T02:00:00	7	Dirección del viento	1.61
141135	7	Sololá	701	Sololá	2	El tablón	3	Marzo	2023-08-03T00:00:00	2024-11-06T02:00:00	1	Precipitación	0
141136	7	Sololá	701	Sololá	2	El tablón	3	Marzo	2023-08-03T00:00:00	2024-11-06T02:00:00	8	Radiación solar	0
141137	7	Sololá	701	Sololá	2	El tablón	3	Marzo	2023-08-03T00:00:00	2024-11-06T03:00:00	2	Temperatura media	10.4
141138	7	Sololá	701	Sololá	2	El tablón	3	Marzo	2023-08-03T00:00:00	2024-11-06T03:00:00	4	Temperatura máxima	10.8
141139	7	Sololá	701	Sololá	2	El tablón	3	Marzo	2023-08-03T00:00:00	2024-11-06T03:00:00	3	Temperatura mínima	10.3
141140	7	Sololá	701	Sololá	2	El tablón	3	Marzo	2023-08-03T00:00:00	2024-11-06T03:00:00	5	Humedad	90
141141	7	Sololá	701	Sololá	2	El tablón	3	Marzo	2023-08-03T00:00:00	2024-11-06T03:00:00	6	Velocidad del viento	1.6
141142	7	Sololá	701	Sololá	2	El tablón	3	Marzo	2023-08-03T00:00:00	2024-11-06T03:00:00	7	Dirección del viento	1.61
141143	7	Sololá	701	Sololá	2	El tablón	3	Marzo	2023-08-03T00:00:00	2024-11-06T03:00:00	1	Precipitación	0
141144	7	Sololá	701	Sololá	2	El tablón	3	Marzo	2023-08-03T00:00:00	2024-11-06T03:00:00	8	Radiación solar	0
141145	7	Sololá	701	Sololá	2	El tablón	3	Marzo	2023-08-03T00:00:00	2024-11-06T04:00:00	2	Temperatura media	9.7
141146	7	Sololá	701	Sololá	2	El tablón	3	Marzo	2023-08-03T00:00:00	2024-11-06T04:00:00	4	Temperatura máxima	10.5
141147	7	Sololá	701	Sololá	2	El tablón	3	Marzo	2023-08-03T00:00:00	2024-11-06T04:00:00	3	Temperatura mínima	9.7
141148	7	Sololá	701	Sololá	2	El tablón	3	Marzo	2023-08-03T00:00:00	2024-11-06T04:00:00	5	Humedad	89
141149	7	Sololá	701	Sololá	2	El tablón	3	Marzo	2023-08-03T00:00:00	2024-11-06T04:00:00	6	Velocidad del viento	1.6
141150	7	Sololá	701	Sololá	2	El tablón	3	Marzo	2023-08-03T00:00:00	2024-11-06T04:00:00	7	Dirección del viento	1.61
141151	7	Sololá	701	Sololá	2	El tablón	3	Marzo	2023-08-03T00:00:00	2024-11-06T04:00:00	1	Precipitación	0
141152	7	Sololá	701	Sololá	2	El tablón	3	Marzo	2023-08-03T00:00:00	2024-11-06T04:00:00	8	Radiación solar	0
141153	7	Sololá	701	Sololá	2	El tablón	3	Marzo	2023-08-03T00:00:00	2024-11-06T05:00:00	2	Temperatura media	9
141154	7	Sololá	701	Sololá	2	El tablón	3	Marzo	2023-08-03T00:00:00	2024-11-06T05:00:00	4	Temperatura máxima	9.7
141155	7	Sololá	701	Sololá	2	El tablón	3	Marzo	2023-08-03T00:00:00	2024-11-06T05:00:00	3	Temperatura mínima	9
141156	7	Sololá	701	Sololá	2	El tablón	3	Marzo	2023-08-03T00:00:00	2024-11-06T05:00:00	5	Humedad	88
141157	7	Sololá	701	Sololá	2	El tablón	3	Marzo	2023-08-03T00:00:00	2024-11-06T05:00:00	6	Velocidad del viento	0
141158	7	Sololá	701	Sololá	2	El tablón	3	Marzo	2023-08-03T00:00:00	2024-11-06T05:00:00	7	Dirección del viento	0
141159	7	Sololá	701	Sololá	2	El tablón	3	Marzo	2023-08-03T00:00:00	2024-11-06T05:00:00	1	Precipitación	0
141160	7	Sololá	701	Sololá	2	El tablón	3	Marzo	2023-08-03T00:00:00	2024-11-06T05:00:00	8	Radiación solar	0
141161	7	Sololá	701	Sololá	2	El tablón	3	Marzo	2023-08-03T00:00:00	2024-11-06T06:00:00	2	Temperatura media	8.8
141162	7	Sololá	701	Sololá	2	El tablón	3	Marzo	2023-08-03T00:00:00	2024-11-06T06:00:00	4	Temperatura máxima	9.3
141163	7	Sololá	701	Sololá	2	El tablón	3	Marzo	2023-08-03T00:00:00	2024-11-06T06:00:00	3	Temperatura mínima	8.8
141164	7	Sololá	701	Sololá	2	El tablón	3	Marzo	2023-08-03T00:00:00	2024-11-06T06:00:00	5	Humedad	87
141165	7	Sololá	701	Sololá	2	El tablón	3	Marzo	2023-08-03T00:00:00	2024-11-06T06:00:00	6	Velocidad del viento	1.6
141166	7	Sololá	701	Sololá	2	El tablón	3	Marzo	2023-08-03T00:00:00	2024-11-06T06:00:00	7	Dirección del viento	1.61
141167	7	Sololá	701	Sololá	2	El tablón	3	Marzo	2023-08-03T00:00:00	2024-11-06T06:00:00	1	Precipitación	0
141168	7	Sololá	701	Sololá	2	El tablón	3	Marzo	2023-08-03T00:00:00	2024-11-06T06:00:00	8	Radiación solar	0
141169	7	Sololá	701	Sololá	2	El tablón	3	Marzo	2023-08-03T00:00:00	2024-11-06T07:00:00	2	Temperatura media	8.6
141170	7	Sololá	701	Sololá	2	El tablón	3	Marzo	2023-08-03T00:00:00	2024-11-06T07:00:00	4	Temperatura máxima	8.8
141171	7	Sololá	701	Sololá	2	El tablón	3	Marzo	2023-08-03T00:00:00	2024-11-06T07:00:00	3	Temperatura mínima	8.4
141172	7	Sololá	701	Sololá	2	El tablón	3	Marzo	2023-08-03T00:00:00	2024-11-06T07:00:00	5	Humedad	89
141173	7	Sololá	701	Sololá	2	El tablón	3	Marzo	2023-08-03T00:00:00	2024-11-06T07:00:00	6	Velocidad del viento	0
141174	7	Sololá	701	Sololá	2	El tablón	3	Marzo	2023-08-03T00:00:00	2024-11-06T07:00:00	7	Dirección del viento	0
141175	7	Sololá	701	Sololá	2	El tablón	3	Marzo	2023-08-03T00:00:00	2024-11-06T07:00:00	1	Precipitación	0
141176	7	Sololá	701	Sololá	2	El tablón	3	Marzo	2023-08-03T00:00:00	2024-11-06T07:00:00	8	Radiación solar	9
141177	7	Sololá	701	Sololá	2	El tablón	3	Marzo	2023-08-03T00:00:00	2024-11-06T08:00:00	2	Temperatura media	11.9
141178	7	Sololá	701	Sololá	2	El tablón	3	Marzo	2023-08-03T00:00:00	2024-11-06T08:00:00	4	Temperatura máxima	11.9
141179	7	Sololá	701	Sololá	2	El tablón	3	Marzo	2023-08-03T00:00:00	2024-11-06T08:00:00	3	Temperatura mínima	8.6
141180	7	Sololá	701	Sololá	2	El tablón	3	Marzo	2023-08-03T00:00:00	2024-11-06T08:00:00	5	Humedad	83
141181	7	Sololá	701	Sololá	2	El tablón	3	Marzo	2023-08-03T00:00:00	2024-11-06T08:00:00	6	Velocidad del viento	3.2
141182	7	Sololá	701	Sololá	2	El tablón	3	Marzo	2023-08-03T00:00:00	2024-11-06T08:00:00	7	Dirección del viento	3.22
141183	7	Sololá	701	Sololá	2	El tablón	3	Marzo	2023-08-03T00:00:00	2024-11-06T08:00:00	1	Precipitación	0
141184	7	Sololá	701	Sololá	2	El tablón	3	Marzo	2023-08-03T00:00:00	2024-11-06T08:00:00	8	Radiación solar	176
141185	7	Sololá	701	Sololá	2	El tablón	3	Marzo	2023-08-03T00:00:00	2024-11-06T09:00:00	2	Temperatura media	14
141186	7	Sololá	701	Sololá	2	El tablón	3	Marzo	2023-08-03T00:00:00	2024-11-06T09:00:00	4	Temperatura máxima	14.1
141187	7	Sololá	701	Sololá	2	El tablón	3	Marzo	2023-08-03T00:00:00	2024-11-06T09:00:00	3	Temperatura mínima	11.9
141188	7	Sololá	701	Sololá	2	El tablón	3	Marzo	2023-08-03T00:00:00	2024-11-06T09:00:00	5	Humedad	79
141189	7	Sololá	701	Sololá	2	El tablón	3	Marzo	2023-08-03T00:00:00	2024-11-06T09:00:00	6	Velocidad del viento	3.2
141190	7	Sololá	701	Sololá	2	El tablón	3	Marzo	2023-08-03T00:00:00	2024-11-06T09:00:00	7	Dirección del viento	3.22
141191	7	Sololá	701	Sololá	2	El tablón	3	Marzo	2023-08-03T00:00:00	2024-11-06T09:00:00	1	Precipitación	0
141192	7	Sololá	701	Sololá	2	El tablón	3	Marzo	2023-08-03T00:00:00	2024-11-06T09:00:00	8	Radiación solar	315
141193	7	Sololá	701	Sololá	2	El tablón	3	Marzo	2023-08-03T00:00:00	2024-11-06T10:00:00	2	Temperatura media	15.6
141194	7	Sololá	701	Sololá	2	El tablón	3	Marzo	2023-08-03T00:00:00	2024-11-06T10:00:00	4	Temperatura máxima	15.6
141195	7	Sololá	701	Sololá	2	El tablón	3	Marzo	2023-08-03T00:00:00	2024-11-06T10:00:00	3	Temperatura mínima	13.8
141196	7	Sololá	701	Sololá	2	El tablón	3	Marzo	2023-08-03T00:00:00	2024-11-06T10:00:00	5	Humedad	75
141197	7	Sololá	701	Sololá	2	El tablón	3	Marzo	2023-08-03T00:00:00	2024-11-06T10:00:00	6	Velocidad del viento	4.8
141198	7	Sololá	701	Sololá	2	El tablón	3	Marzo	2023-08-03T00:00:00	2024-11-06T10:00:00	7	Dirección del viento	4.83
141199	7	Sololá	701	Sololá	2	El tablón	3	Marzo	2023-08-03T00:00:00	2024-11-06T10:00:00	1	Precipitación	0
141200	7	Sololá	701	Sololá	2	El tablón	3	Marzo	2023-08-03T00:00:00	2024-11-06T10:00:00	8	Radiación solar	591
141201	7	Sololá	701	Sololá	2	El tablón	3	Marzo	2023-08-03T00:00:00	2024-11-06T11:00:00	2	Temperatura media	15.3
141202	7	Sololá	701	Sololá	2	El tablón	3	Marzo	2023-08-03T00:00:00	2024-11-06T11:00:00	4	Temperatura máxima	15.6
141203	7	Sololá	701	Sololá	2	El tablón	3	Marzo	2023-08-03T00:00:00	2024-11-06T11:00:00	3	Temperatura mínima	14.9
141204	7	Sololá	701	Sololá	2	El tablón	3	Marzo	2023-08-03T00:00:00	2024-11-06T11:00:00	5	Humedad	79
141205	7	Sololá	701	Sololá	2	El tablón	3	Marzo	2023-08-03T00:00:00	2024-11-06T11:00:00	6	Velocidad del viento	8
141206	7	Sololá	701	Sololá	2	El tablón	3	Marzo	2023-08-03T00:00:00	2024-11-06T11:00:00	7	Dirección del viento	8.05
141207	7	Sololá	701	Sololá	2	El tablón	3	Marzo	2023-08-03T00:00:00	2024-11-06T11:00:00	1	Precipitación	0
141208	7	Sololá	701	Sololá	2	El tablón	3	Marzo	2023-08-03T00:00:00	2024-11-06T11:00:00	8	Radiación solar	615
141209	7	Sololá	701	Sololá	2	El tablón	3	Marzo	2023-08-03T00:00:00	2024-11-06T12:00:00	2	Temperatura media	16.4
141210	7	Sololá	701	Sololá	2	El tablón	3	Marzo	2023-08-03T00:00:00	2024-11-06T12:00:00	4	Temperatura máxima	16.6
141211	7	Sololá	701	Sololá	2	El tablón	3	Marzo	2023-08-03T00:00:00	2024-11-06T12:00:00	3	Temperatura mínima	15.3
141212	7	Sololá	701	Sololá	2	El tablón	3	Marzo	2023-08-03T00:00:00	2024-11-06T12:00:00	5	Humedad	78
141213	7	Sololá	701	Sololá	2	El tablón	3	Marzo	2023-08-03T00:00:00	2024-11-06T12:00:00	6	Velocidad del viento	9.7
141214	7	Sololá	701	Sololá	2	El tablón	3	Marzo	2023-08-03T00:00:00	2024-11-06T12:00:00	7	Dirección del viento	9.66
141215	7	Sololá	701	Sololá	2	El tablón	3	Marzo	2023-08-03T00:00:00	2024-11-06T12:00:00	1	Precipitación	0
141216	7	Sololá	701	Sololá	2	El tablón	3	Marzo	2023-08-03T00:00:00	2024-11-06T12:00:00	8	Radiación solar	911
141217	7	Sololá	701	Sololá	2	El tablón	3	Marzo	2023-08-03T00:00:00	2024-11-06T13:00:00	2	Temperatura media	16.4
141218	7	Sololá	701	Sololá	2	El tablón	3	Marzo	2023-08-03T00:00:00	2024-11-06T13:00:00	4	Temperatura máxima	16.8
141219	7	Sololá	701	Sololá	2	El tablón	3	Marzo	2023-08-03T00:00:00	2024-11-06T13:00:00	3	Temperatura mínima	16.1
141220	7	Sololá	701	Sololá	2	El tablón	3	Marzo	2023-08-03T00:00:00	2024-11-06T13:00:00	5	Humedad	79
141221	7	Sololá	701	Sololá	2	El tablón	3	Marzo	2023-08-03T00:00:00	2024-11-06T13:00:00	6	Velocidad del viento	9.7
141222	7	Sololá	701	Sololá	2	El tablón	3	Marzo	2023-08-03T00:00:00	2024-11-06T13:00:00	7	Dirección del viento	9.66
141223	7	Sololá	701	Sololá	2	El tablón	3	Marzo	2023-08-03T00:00:00	2024-11-06T13:00:00	1	Precipitación	0
141224	7	Sololá	701	Sololá	2	El tablón	3	Marzo	2023-08-03T00:00:00	2024-11-06T13:00:00	8	Radiación solar	791
141225	7	Sololá	701	Sololá	2	El tablón	3	Marzo	2023-08-03T00:00:00	2024-11-06T14:00:00	2	Temperatura media	14.8
141226	7	Sololá	701	Sololá	2	El tablón	3	Marzo	2023-08-03T00:00:00	2024-11-06T14:00:00	4	Temperatura máxima	16.4
141227	7	Sololá	701	Sololá	2	El tablón	3	Marzo	2023-08-03T00:00:00	2024-11-06T14:00:00	3	Temperatura mínima	14.8
141228	7	Sololá	701	Sololá	2	El tablón	3	Marzo	2023-08-03T00:00:00	2024-11-06T14:00:00	5	Humedad	86
141229	7	Sololá	701	Sololá	2	El tablón	3	Marzo	2023-08-03T00:00:00	2024-11-06T14:00:00	6	Velocidad del viento	8
141230	7	Sololá	701	Sololá	2	El tablón	3	Marzo	2023-08-03T00:00:00	2024-11-06T14:00:00	7	Dirección del viento	8.05
141231	7	Sololá	701	Sololá	2	El tablón	3	Marzo	2023-08-03T00:00:00	2024-11-06T14:00:00	1	Precipitación	0
141232	7	Sololá	701	Sololá	2	El tablón	3	Marzo	2023-08-03T00:00:00	2024-11-06T14:00:00	8	Radiación solar	362
141233	7	Sololá	701	Sololá	2	El tablón	3	Marzo	2023-08-03T00:00:00	2024-11-06T15:00:00	2	Temperatura media	14.4
141234	7	Sololá	701	Sololá	2	El tablón	3	Marzo	2023-08-03T00:00:00	2024-11-06T15:00:00	4	Temperatura máxima	14.8
141235	7	Sololá	701	Sololá	2	El tablón	3	Marzo	2023-08-03T00:00:00	2024-11-06T15:00:00	3	Temperatura mínima	14.2
141236	7	Sololá	701	Sololá	2	El tablón	3	Marzo	2023-08-03T00:00:00	2024-11-06T15:00:00	5	Humedad	86
141237	7	Sololá	701	Sololá	2	El tablón	3	Marzo	2023-08-03T00:00:00	2024-11-06T15:00:00	6	Velocidad del viento	8
141238	7	Sololá	701	Sololá	2	El tablón	3	Marzo	2023-08-03T00:00:00	2024-11-06T15:00:00	7	Dirección del viento	8.05
141239	7	Sololá	701	Sololá	2	El tablón	3	Marzo	2023-08-03T00:00:00	2024-11-06T15:00:00	1	Precipitación	0
141240	7	Sololá	701	Sololá	2	El tablón	3	Marzo	2023-08-03T00:00:00	2024-11-06T15:00:00	8	Radiación solar	296
141241	7	Sololá	701	Sololá	2	El tablón	3	Marzo	2023-08-03T00:00:00	2024-11-06T16:00:00	2	Temperatura media	14.2
141242	7	Sololá	701	Sololá	2	El tablón	3	Marzo	2023-08-03T00:00:00	2024-11-06T16:00:00	4	Temperatura máxima	14.4
141243	7	Sololá	701	Sololá	2	El tablón	3	Marzo	2023-08-03T00:00:00	2024-11-06T16:00:00	3	Temperatura mínima	13.7
141244	7	Sololá	701	Sololá	2	El tablón	3	Marzo	2023-08-03T00:00:00	2024-11-06T16:00:00	5	Humedad	87
141245	7	Sololá	701	Sololá	2	El tablón	3	Marzo	2023-08-03T00:00:00	2024-11-06T16:00:00	6	Velocidad del viento	4.8
141246	7	Sololá	701	Sololá	2	El tablón	3	Marzo	2023-08-03T00:00:00	2024-11-06T16:00:00	7	Dirección del viento	4.83
141247	7	Sololá	701	Sololá	2	El tablón	3	Marzo	2023-08-03T00:00:00	2024-11-06T16:00:00	1	Precipitación	0
141248	7	Sololá	701	Sololá	2	El tablón	3	Marzo	2023-08-03T00:00:00	2024-11-06T16:00:00	8	Radiación solar	181
141249	7	Sololá	701	Sololá	2	El tablón	3	Marzo	2023-08-03T00:00:00	2024-11-06T17:00:00	2	Temperatura media	13.5
141250	7	Sololá	701	Sololá	2	El tablón	3	Marzo	2023-08-03T00:00:00	2024-11-06T17:00:00	4	Temperatura máxima	14.6
141251	7	Sololá	701	Sololá	2	El tablón	3	Marzo	2023-08-03T00:00:00	2024-11-06T17:00:00	3	Temperatura mínima	13.5
141252	7	Sololá	701	Sololá	2	El tablón	3	Marzo	2023-08-03T00:00:00	2024-11-06T17:00:00	5	Humedad	89
141253	7	Sololá	701	Sololá	2	El tablón	3	Marzo	2023-08-03T00:00:00	2024-11-06T17:00:00	6	Velocidad del viento	3.2
141254	7	Sololá	701	Sololá	2	El tablón	3	Marzo	2023-08-03T00:00:00	2024-11-06T17:00:00	7	Dirección del viento	3.22
141255	7	Sololá	701	Sololá	2	El tablón	3	Marzo	2023-08-03T00:00:00	2024-11-06T17:00:00	1	Precipitación	0
141256	7	Sololá	701	Sololá	2	El tablón	3	Marzo	2023-08-03T00:00:00	2024-11-06T17:00:00	8	Radiación solar	89
141257	7	Sololá	701	Sololá	2	El tablón	3	Marzo	2023-08-03T00:00:00	2024-11-06T18:00:00	2	Temperatura media	13.5
141258	7	Sololá	701	Sololá	2	El tablón	3	Marzo	2023-08-03T00:00:00	2024-11-06T18:00:00	4	Temperatura máxima	13.7
141259	7	Sololá	701	Sololá	2	El tablón	3	Marzo	2023-08-03T00:00:00	2024-11-06T18:00:00	3	Temperatura mínima	13.3
141260	7	Sololá	701	Sololá	2	El tablón	3	Marzo	2023-08-03T00:00:00	2024-11-06T18:00:00	5	Humedad	89
141261	7	Sololá	701	Sololá	2	El tablón	3	Marzo	2023-08-03T00:00:00	2024-11-06T18:00:00	6	Velocidad del viento	1.6
141262	7	Sololá	701	Sololá	2	El tablón	3	Marzo	2023-08-03T00:00:00	2024-11-06T18:00:00	7	Dirección del viento	1.61
141263	7	Sololá	701	Sololá	2	El tablón	3	Marzo	2023-08-03T00:00:00	2024-11-06T18:00:00	1	Precipitación	0
141264	7	Sololá	701	Sololá	2	El tablón	3	Marzo	2023-08-03T00:00:00	2024-11-06T18:00:00	8	Radiación solar	55
141265	7	Sololá	701	Sololá	2	El tablón	3	Marzo	2023-08-03T00:00:00	2024-11-06T19:00:00	2	Temperatura media	12.8
141266	7	Sololá	701	Sololá	2	El tablón	3	Marzo	2023-08-03T00:00:00	2024-11-06T19:00:00	4	Temperatura máxima	13.5
141267	7	Sololá	701	Sololá	2	El tablón	3	Marzo	2023-08-03T00:00:00	2024-11-06T19:00:00	3	Temperatura mínima	12.8
141268	7	Sololá	701	Sololá	2	El tablón	3	Marzo	2023-08-03T00:00:00	2024-11-06T19:00:00	5	Humedad	90
141269	7	Sololá	701	Sololá	2	El tablón	3	Marzo	2023-08-03T00:00:00	2024-11-06T19:00:00	6	Velocidad del viento	1.6
141270	7	Sololá	701	Sololá	2	El tablón	3	Marzo	2023-08-03T00:00:00	2024-11-06T19:00:00	7	Dirección del viento	1.61
141271	7	Sololá	701	Sololá	2	El tablón	3	Marzo	2023-08-03T00:00:00	2024-11-06T19:00:00	1	Precipitación	0
141272	7	Sololá	701	Sololá	2	El tablón	3	Marzo	2023-08-03T00:00:00	2024-11-06T19:00:00	8	Radiación solar	0
141273	7	Sololá	701	Sololá	2	El tablón	3	Marzo	2023-08-03T00:00:00	2024-11-06T20:00:00	2	Temperatura media	12.1
141274	7	Sololá	701	Sololá	2	El tablón	3	Marzo	2023-08-03T00:00:00	2024-11-06T20:00:00	4	Temperatura máxima	13
141275	7	Sololá	701	Sololá	2	El tablón	3	Marzo	2023-08-03T00:00:00	2024-11-06T20:00:00	3	Temperatura mínima	12.1
141276	7	Sololá	701	Sololá	2	El tablón	3	Marzo	2023-08-03T00:00:00	2024-11-06T20:00:00	5	Humedad	90
141277	7	Sololá	701	Sololá	2	El tablón	3	Marzo	2023-08-03T00:00:00	2024-11-06T20:00:00	6	Velocidad del viento	0
141278	7	Sololá	701	Sololá	2	El tablón	3	Marzo	2023-08-03T00:00:00	2024-11-06T20:00:00	7	Dirección del viento	0
141279	7	Sololá	701	Sololá	2	El tablón	3	Marzo	2023-08-03T00:00:00	2024-11-06T20:00:00	1	Precipitación	0
141280	7	Sololá	701	Sololá	2	El tablón	3	Marzo	2023-08-03T00:00:00	2024-11-06T20:00:00	8	Radiación solar	0
141281	7	Sololá	701	Sololá	2	El tablón	3	Marzo	2023-08-03T00:00:00	2024-11-06T21:00:00	2	Temperatura media	12.3
141282	7	Sololá	701	Sololá	2	El tablón	3	Marzo	2023-08-03T00:00:00	2024-11-06T21:00:00	4	Temperatura máxima	12.4
141283	7	Sololá	701	Sololá	2	El tablón	3	Marzo	2023-08-03T00:00:00	2024-11-06T21:00:00	3	Temperatura mínima	11.4
141284	7	Sololá	701	Sololá	2	El tablón	3	Marzo	2023-08-03T00:00:00	2024-11-06T21:00:00	5	Humedad	80
141285	7	Sololá	701	Sololá	2	El tablón	3	Marzo	2023-08-03T00:00:00	2024-11-06T21:00:00	6	Velocidad del viento	3.2
141286	7	Sololá	701	Sololá	2	El tablón	3	Marzo	2023-08-03T00:00:00	2024-11-06T21:00:00	7	Dirección del viento	3.22
141287	7	Sololá	701	Sololá	2	El tablón	3	Marzo	2023-08-03T00:00:00	2024-11-06T21:00:00	1	Precipitación	0
141288	7	Sololá	701	Sololá	2	El tablón	3	Marzo	2023-08-03T00:00:00	2024-11-06T21:00:00	8	Radiación solar	0
141289	7	Sololá	701	Sololá	2	El tablón	3	Marzo	2023-08-03T00:00:00	2024-11-06T22:00:00	2	Temperatura media	11.8
141290	7	Sololá	701	Sololá	2	El tablón	3	Marzo	2023-08-03T00:00:00	2024-11-06T22:00:00	4	Temperatura máxima	12.3
141291	7	Sololá	701	Sololá	2	El tablón	3	Marzo	2023-08-03T00:00:00	2024-11-06T22:00:00	3	Temperatura mínima	11.8
141292	7	Sololá	701	Sololá	2	El tablón	3	Marzo	2023-08-03T00:00:00	2024-11-06T22:00:00	5	Humedad	85
141293	7	Sololá	701	Sololá	2	El tablón	3	Marzo	2023-08-03T00:00:00	2024-11-06T22:00:00	6	Velocidad del viento	1.6
141294	7	Sololá	701	Sololá	2	El tablón	3	Marzo	2023-08-03T00:00:00	2024-11-06T22:00:00	7	Dirección del viento	1.61
141295	7	Sololá	701	Sololá	2	El tablón	3	Marzo	2023-08-03T00:00:00	2024-11-06T22:00:00	1	Precipitación	0
141296	7	Sololá	701	Sololá	2	El tablón	3	Marzo	2023-08-03T00:00:00	2024-11-06T22:00:00	8	Radiación solar	0
141297	7	Sololá	701	Sololá	2	El tablón	3	Marzo	2023-08-03T00:00:00	2024-11-06T23:00:00	2	Temperatura media	11.1
141298	7	Sololá	701	Sololá	2	El tablón	3	Marzo	2023-08-03T00:00:00	2024-11-06T23:00:00	4	Temperatura máxima	11.8
141299	7	Sololá	701	Sololá	2	El tablón	3	Marzo	2023-08-03T00:00:00	2024-11-06T23:00:00	3	Temperatura mínima	11.1
141300	7	Sololá	701	Sololá	2	El tablón	3	Marzo	2023-08-03T00:00:00	2024-11-06T23:00:00	5	Humedad	86
141301	7	Sololá	701	Sololá	2	El tablón	3	Marzo	2023-08-03T00:00:00	2024-11-06T23:00:00	6	Velocidad del viento	1.6
141302	7	Sololá	701	Sololá	2	El tablón	3	Marzo	2023-08-03T00:00:00	2024-11-06T23:00:00	7	Dirección del viento	1.61
141303	7	Sololá	701	Sololá	2	El tablón	3	Marzo	2023-08-03T00:00:00	2024-11-06T23:00:00	1	Precipitación	0
141304	7	Sololá	701	Sololá	2	El tablón	3	Marzo	2023-08-03T00:00:00	2024-11-06T23:00:00	8	Radiación solar	0
141305	7	Sololá	701	Sololá	2	El tablón	3	Marzo	2023-09-03T00:00:00	2024-11-06T00:00:00	2	Temperatura media	10.3
141306	7	Sololá	701	Sololá	2	El tablón	3	Marzo	2023-09-03T00:00:00	2024-11-06T00:00:00	4	Temperatura máxima	11.1
141307	7	Sololá	701	Sololá	2	El tablón	3	Marzo	2023-09-03T00:00:00	2024-11-06T00:00:00	3	Temperatura mínima	10.3
141308	7	Sololá	701	Sololá	2	El tablón	3	Marzo	2023-09-03T00:00:00	2024-11-06T00:00:00	5	Humedad	82
141309	7	Sololá	701	Sololá	2	El tablón	3	Marzo	2023-09-03T00:00:00	2024-11-06T00:00:00	6	Velocidad del viento	1.6
141310	7	Sololá	701	Sololá	2	El tablón	3	Marzo	2023-09-03T00:00:00	2024-11-06T00:00:00	7	Dirección del viento	1.61
141311	7	Sololá	701	Sololá	2	El tablón	3	Marzo	2023-09-03T00:00:00	2024-11-06T00:00:00	1	Precipitación	0
141312	7	Sololá	701	Sololá	2	El tablón	3	Marzo	2023-09-03T00:00:00	2024-11-06T00:00:00	8	Radiación solar	0
141313	7	Sololá	701	Sololá	2	El tablón	3	Marzo	2023-09-03T00:00:00	2024-11-06T01:00:00	2	Temperatura media	8.9
141314	7	Sololá	701	Sololá	2	El tablón	3	Marzo	2023-09-03T00:00:00	2024-11-06T01:00:00	4	Temperatura máxima	10.4
141315	7	Sololá	701	Sololá	2	El tablón	3	Marzo	2023-09-03T00:00:00	2024-11-06T01:00:00	3	Temperatura mínima	8.9
141316	7	Sololá	701	Sololá	2	El tablón	3	Marzo	2023-09-03T00:00:00	2024-11-06T01:00:00	5	Humedad	85
141317	7	Sololá	701	Sololá	2	El tablón	3	Marzo	2023-09-03T00:00:00	2024-11-06T01:00:00	6	Velocidad del viento	3.2
141318	7	Sololá	701	Sololá	2	El tablón	3	Marzo	2023-09-03T00:00:00	2024-11-06T01:00:00	7	Dirección del viento	3.22
141319	7	Sololá	701	Sololá	2	El tablón	3	Marzo	2023-09-03T00:00:00	2024-11-06T01:00:00	1	Precipitación	0
141320	7	Sololá	701	Sololá	2	El tablón	3	Marzo	2023-09-03T00:00:00	2024-11-06T01:00:00	8	Radiación solar	0
141321	7	Sololá	701	Sololá	2	El tablón	3	Marzo	2023-09-03T00:00:00	2024-11-06T02:00:00	2	Temperatura media	9.4
141322	7	Sololá	701	Sololá	2	El tablón	3	Marzo	2023-09-03T00:00:00	2024-11-06T02:00:00	4	Temperatura máxima	9.5
141323	7	Sololá	701	Sololá	2	El tablón	3	Marzo	2023-09-03T00:00:00	2024-11-06T02:00:00	3	Temperatura mínima	8.8
141324	7	Sololá	701	Sololá	2	El tablón	3	Marzo	2023-09-03T00:00:00	2024-11-06T02:00:00	5	Humedad	80
141325	7	Sololá	701	Sololá	2	El tablón	3	Marzo	2023-09-03T00:00:00	2024-11-06T02:00:00	6	Velocidad del viento	3.2
141326	7	Sololá	701	Sololá	2	El tablón	3	Marzo	2023-09-03T00:00:00	2024-11-06T02:00:00	7	Dirección del viento	3.22
141327	7	Sololá	701	Sololá	2	El tablón	3	Marzo	2023-09-03T00:00:00	2024-11-06T02:00:00	1	Precipitación	0
141328	7	Sololá	701	Sololá	2	El tablón	3	Marzo	2023-09-03T00:00:00	2024-11-06T02:00:00	8	Radiación solar	0
141329	7	Sololá	701	Sololá	2	El tablón	3	Marzo	2023-09-03T00:00:00	2024-11-06T03:00:00	2	Temperatura media	9.8
141330	7	Sololá	701	Sololá	2	El tablón	3	Marzo	2023-09-03T00:00:00	2024-11-06T03:00:00	4	Temperatura máxima	9.9
141331	7	Sololá	701	Sololá	2	El tablón	3	Marzo	2023-09-03T00:00:00	2024-11-06T03:00:00	3	Temperatura mínima	9.4
141332	7	Sololá	701	Sololá	2	El tablón	3	Marzo	2023-09-03T00:00:00	2024-11-06T03:00:00	5	Humedad	82
141333	7	Sololá	701	Sololá	2	El tablón	3	Marzo	2023-09-03T00:00:00	2024-11-06T03:00:00	6	Velocidad del viento	1.6
141334	7	Sololá	701	Sololá	2	El tablón	3	Marzo	2023-09-03T00:00:00	2024-11-06T03:00:00	7	Dirección del viento	1.61
141335	7	Sololá	701	Sololá	2	El tablón	3	Marzo	2023-09-03T00:00:00	2024-11-06T03:00:00	1	Precipitación	0
141336	7	Sololá	701	Sololá	2	El tablón	3	Marzo	2023-09-03T00:00:00	2024-11-06T03:00:00	8	Radiación solar	0
141337	7	Sololá	701	Sololá	2	El tablón	3	Marzo	2023-09-03T00:00:00	2024-11-06T04:00:00	2	Temperatura media	9.5
141338	7	Sololá	701	Sololá	2	El tablón	3	Marzo	2023-09-03T00:00:00	2024-11-06T04:00:00	4	Temperatura máxima	9.9
141339	7	Sololá	701	Sololá	2	El tablón	3	Marzo	2023-09-03T00:00:00	2024-11-06T04:00:00	3	Temperatura mínima	9.4
141340	7	Sololá	701	Sololá	2	El tablón	3	Marzo	2023-09-03T00:00:00	2024-11-06T04:00:00	5	Humedad	86
141341	7	Sololá	701	Sololá	2	El tablón	3	Marzo	2023-09-03T00:00:00	2024-11-06T04:00:00	6	Velocidad del viento	0
141342	7	Sololá	701	Sololá	2	El tablón	3	Marzo	2023-09-03T00:00:00	2024-11-06T04:00:00	7	Dirección del viento	0
141343	7	Sololá	701	Sololá	2	El tablón	3	Marzo	2023-09-03T00:00:00	2024-11-06T04:00:00	1	Precipitación	0
141344	7	Sololá	701	Sololá	2	El tablón	3	Marzo	2023-09-03T00:00:00	2024-11-06T04:00:00	8	Radiación solar	0
141345	7	Sololá	701	Sololá	2	El tablón	3	Marzo	2023-09-03T00:00:00	2024-11-06T05:00:00	2	Temperatura media	9.1
141346	7	Sololá	701	Sololá	2	El tablón	3	Marzo	2023-09-03T00:00:00	2024-11-06T05:00:00	4	Temperatura máxima	9.5
141347	7	Sololá	701	Sololá	2	El tablón	3	Marzo	2023-09-03T00:00:00	2024-11-06T05:00:00	3	Temperatura mínima	8.9
141348	7	Sololá	701	Sololá	2	El tablón	3	Marzo	2023-09-03T00:00:00	2024-11-06T05:00:00	5	Humedad	86
141349	7	Sololá	701	Sololá	2	El tablón	3	Marzo	2023-09-03T00:00:00	2024-11-06T05:00:00	6	Velocidad del viento	1.6
141350	7	Sololá	701	Sololá	2	El tablón	3	Marzo	2023-09-03T00:00:00	2024-11-06T05:00:00	7	Dirección del viento	1.61
141351	7	Sololá	701	Sololá	2	El tablón	3	Marzo	2023-09-03T00:00:00	2024-11-06T05:00:00	1	Precipitación	0
141352	7	Sololá	701	Sololá	2	El tablón	3	Marzo	2023-09-03T00:00:00	2024-11-06T05:00:00	8	Radiación solar	0
141353	7	Sololá	701	Sololá	2	El tablón	3	Marzo	2023-09-03T00:00:00	2024-11-06T06:00:00	2	Temperatura media	8.9
141354	7	Sololá	701	Sololá	2	El tablón	3	Marzo	2023-09-03T00:00:00	2024-11-06T06:00:00	4	Temperatura máxima	9.1
141355	7	Sololá	701	Sololá	2	El tablón	3	Marzo	2023-09-03T00:00:00	2024-11-06T06:00:00	3	Temperatura mínima	8.8
141356	7	Sololá	701	Sololá	2	El tablón	3	Marzo	2023-09-03T00:00:00	2024-11-06T06:00:00	5	Humedad	88
141357	7	Sololá	701	Sololá	2	El tablón	3	Marzo	2023-09-03T00:00:00	2024-11-06T06:00:00	6	Velocidad del viento	1.6
141358	7	Sololá	701	Sololá	2	El tablón	3	Marzo	2023-09-03T00:00:00	2024-11-06T06:00:00	7	Dirección del viento	1.61
141359	7	Sololá	701	Sololá	2	El tablón	3	Marzo	2023-09-03T00:00:00	2024-11-06T06:00:00	1	Precipitación	0
141360	7	Sololá	701	Sololá	2	El tablón	3	Marzo	2023-09-03T00:00:00	2024-11-06T06:00:00	8	Radiación solar	0
141361	7	Sololá	701	Sololá	2	El tablón	3	Marzo	2023-09-03T00:00:00	2024-11-06T07:00:00	2	Temperatura media	9.2
141362	7	Sololá	701	Sololá	2	El tablón	3	Marzo	2023-09-03T00:00:00	2024-11-06T07:00:00	4	Temperatura máxima	9.2
141363	7	Sololá	701	Sololá	2	El tablón	3	Marzo	2023-09-03T00:00:00	2024-11-06T07:00:00	3	Temperatura mínima	8.5
141364	7	Sololá	701	Sololá	2	El tablón	3	Marzo	2023-09-03T00:00:00	2024-11-06T07:00:00	5	Humedad	88
141365	7	Sololá	701	Sololá	2	El tablón	3	Marzo	2023-09-03T00:00:00	2024-11-06T07:00:00	6	Velocidad del viento	1.6
141366	7	Sololá	701	Sololá	2	El tablón	3	Marzo	2023-09-03T00:00:00	2024-11-06T07:00:00	7	Dirección del viento	1.61
141367	7	Sololá	701	Sololá	2	El tablón	3	Marzo	2023-09-03T00:00:00	2024-11-06T07:00:00	1	Precipitación	0
141368	7	Sololá	701	Sololá	2	El tablón	3	Marzo	2023-09-03T00:00:00	2024-11-06T07:00:00	8	Radiación solar	25
141369	7	Sololá	701	Sololá	2	El tablón	3	Marzo	2023-09-03T00:00:00	2024-11-06T08:00:00	2	Temperatura media	11.9
141370	7	Sololá	701	Sololá	2	El tablón	3	Marzo	2023-09-03T00:00:00	2024-11-06T08:00:00	4	Temperatura máxima	11.9
141371	7	Sololá	701	Sololá	2	El tablón	3	Marzo	2023-09-03T00:00:00	2024-11-06T08:00:00	3	Temperatura mínima	9.2
141372	7	Sololá	701	Sololá	2	El tablón	3	Marzo	2023-09-03T00:00:00	2024-11-06T08:00:00	5	Humedad	82
141373	7	Sololá	701	Sololá	2	El tablón	3	Marzo	2023-09-03T00:00:00	2024-11-06T08:00:00	6	Velocidad del viento	0
141374	7	Sololá	701	Sololá	2	El tablón	3	Marzo	2023-09-03T00:00:00	2024-11-06T08:00:00	7	Dirección del viento	0
141375	7	Sololá	701	Sololá	2	El tablón	3	Marzo	2023-09-03T00:00:00	2024-11-06T08:00:00	1	Precipitación	0
141376	7	Sololá	701	Sololá	2	El tablón	3	Marzo	2023-09-03T00:00:00	2024-11-06T08:00:00	8	Radiación solar	142
141377	7	Sololá	701	Sololá	2	El tablón	3	Marzo	2023-09-03T00:00:00	2024-11-06T09:00:00	2	Temperatura media	13.3
141378	7	Sololá	701	Sololá	2	El tablón	3	Marzo	2023-09-03T00:00:00	2024-11-06T09:00:00	4	Temperatura máxima	13.3
141379	7	Sololá	701	Sololá	2	El tablón	3	Marzo	2023-09-03T00:00:00	2024-11-06T09:00:00	3	Temperatura mínima	11.9
141380	7	Sololá	701	Sololá	2	El tablón	3	Marzo	2023-09-03T00:00:00	2024-11-06T09:00:00	5	Humedad	80
141381	7	Sololá	701	Sololá	2	El tablón	3	Marzo	2023-09-03T00:00:00	2024-11-06T09:00:00	6	Velocidad del viento	1.6
141382	7	Sololá	701	Sololá	2	El tablón	3	Marzo	2023-09-03T00:00:00	2024-11-06T09:00:00	7	Dirección del viento	1.61
141383	7	Sololá	701	Sololá	2	El tablón	3	Marzo	2023-09-03T00:00:00	2024-11-06T09:00:00	1	Precipitación	0
141384	7	Sololá	701	Sololá	2	El tablón	3	Marzo	2023-09-03T00:00:00	2024-11-06T09:00:00	8	Radiación solar	287
141385	7	Sololá	701	Sololá	2	El tablón	3	Marzo	2023-09-03T00:00:00	2024-11-06T10:00:00	2	Temperatura media	14.8
141386	7	Sololá	701	Sololá	2	El tablón	3	Marzo	2023-09-03T00:00:00	2024-11-06T10:00:00	4	Temperatura máxima	14.8
141387	7	Sololá	701	Sololá	2	El tablón	3	Marzo	2023-09-03T00:00:00	2024-11-06T10:00:00	3	Temperatura mínima	13.1
141388	7	Sololá	701	Sololá	2	El tablón	3	Marzo	2023-09-03T00:00:00	2024-11-06T10:00:00	5	Humedad	79
141389	7	Sololá	701	Sololá	2	El tablón	3	Marzo	2023-09-03T00:00:00	2024-11-06T10:00:00	6	Velocidad del viento	3.2
141390	7	Sololá	701	Sololá	2	El tablón	3	Marzo	2023-09-03T00:00:00	2024-11-06T10:00:00	7	Dirección del viento	3.22
141391	7	Sololá	701	Sololá	2	El tablón	3	Marzo	2023-09-03T00:00:00	2024-11-06T10:00:00	1	Precipitación	0
141392	7	Sololá	701	Sololá	2	El tablón	3	Marzo	2023-09-03T00:00:00	2024-11-06T10:00:00	8	Radiación solar	279
141393	7	Sololá	701	Sololá	2	El tablón	3	Marzo	2023-09-03T00:00:00	2024-11-06T11:00:00	2	Temperatura media	16.6
141394	7	Sololá	701	Sololá	2	El tablón	3	Marzo	2023-09-03T00:00:00	2024-11-06T11:00:00	4	Temperatura máxima	16.6
141395	7	Sololá	701	Sololá	2	El tablón	3	Marzo	2023-09-03T00:00:00	2024-11-06T11:00:00	3	Temperatura mínima	14.7
141396	7	Sololá	701	Sololá	2	El tablón	3	Marzo	2023-09-03T00:00:00	2024-11-06T11:00:00	5	Humedad	73
141397	7	Sololá	701	Sololá	2	El tablón	3	Marzo	2023-09-03T00:00:00	2024-11-06T11:00:00	6	Velocidad del viento	6.4
141398	7	Sololá	701	Sololá	2	El tablón	3	Marzo	2023-09-03T00:00:00	2024-11-06T11:00:00	7	Dirección del viento	6.44
141399	7	Sololá	701	Sololá	2	El tablón	3	Marzo	2023-09-03T00:00:00	2024-11-06T11:00:00	1	Precipitación	0
141400	7	Sololá	701	Sololá	2	El tablón	3	Marzo	2023-09-03T00:00:00	2024-11-06T11:00:00	8	Radiación solar	703
141401	7	Sololá	701	Sololá	2	El tablón	3	Marzo	2023-09-03T00:00:00	2024-11-06T12:00:00	2	Temperatura media	16.9
141402	7	Sololá	701	Sololá	2	El tablón	3	Marzo	2023-09-03T00:00:00	2024-11-06T12:00:00	4	Temperatura máxima	16.9
141403	7	Sololá	701	Sololá	2	El tablón	3	Marzo	2023-09-03T00:00:00	2024-11-06T12:00:00	3	Temperatura mínima	16.4
141404	7	Sololá	701	Sololá	2	El tablón	3	Marzo	2023-09-03T00:00:00	2024-11-06T12:00:00	5	Humedad	73
141405	7	Sololá	701	Sololá	2	El tablón	3	Marzo	2023-09-03T00:00:00	2024-11-06T12:00:00	6	Velocidad del viento	9.7
141406	7	Sololá	701	Sololá	2	El tablón	3	Marzo	2023-09-03T00:00:00	2024-11-06T12:00:00	7	Dirección del viento	9.66
141407	7	Sololá	701	Sololá	2	El tablón	3	Marzo	2023-09-03T00:00:00	2024-11-06T12:00:00	1	Precipitación	0
141408	7	Sololá	701	Sololá	2	El tablón	3	Marzo	2023-09-03T00:00:00	2024-11-06T12:00:00	8	Radiación solar	871
141409	7	Sololá	701	Sololá	2	El tablón	3	Marzo	2023-09-03T00:00:00	2024-11-06T13:00:00	2	Temperatura media	16.5
141410	7	Sololá	701	Sololá	2	El tablón	3	Marzo	2023-09-03T00:00:00	2024-11-06T13:00:00	4	Temperatura máxima	18.1
141411	7	Sololá	701	Sololá	2	El tablón	3	Marzo	2023-09-03T00:00:00	2024-11-06T13:00:00	3	Temperatura mínima	16.5
141412	7	Sololá	701	Sololá	2	El tablón	3	Marzo	2023-09-03T00:00:00	2024-11-06T13:00:00	5	Humedad	79
141413	7	Sololá	701	Sololá	2	El tablón	3	Marzo	2023-09-03T00:00:00	2024-11-06T13:00:00	6	Velocidad del viento	11.3
141414	7	Sololá	701	Sololá	2	El tablón	3	Marzo	2023-09-03T00:00:00	2024-11-06T13:00:00	7	Dirección del viento	11.27
141415	7	Sololá	701	Sololá	2	El tablón	3	Marzo	2023-09-03T00:00:00	2024-11-06T13:00:00	1	Precipitación	0
141416	7	Sololá	701	Sololá	2	El tablón	3	Marzo	2023-09-03T00:00:00	2024-11-06T13:00:00	8	Radiación solar	915
141417	7	Sololá	701	Sololá	2	El tablón	3	Marzo	2023-09-03T00:00:00	2024-11-06T14:00:00	2	Temperatura media	15.4
141418	7	Sololá	701	Sololá	2	El tablón	3	Marzo	2023-09-03T00:00:00	2024-11-06T14:00:00	4	Temperatura máxima	16.4
141419	7	Sololá	701	Sololá	2	El tablón	3	Marzo	2023-09-03T00:00:00	2024-11-06T14:00:00	3	Temperatura mínima	11.7
141420	7	Sololá	701	Sololá	2	El tablón	3	Marzo	2023-09-03T00:00:00	2024-11-06T14:00:00	5	Humedad	85
141421	7	Sololá	701	Sololá	2	El tablón	3	Marzo	2023-09-03T00:00:00	2024-11-06T14:00:00	6	Velocidad del viento	6.4
141422	7	Sololá	701	Sololá	2	El tablón	3	Marzo	2023-09-03T00:00:00	2024-11-06T14:00:00	7	Dirección del viento	6.44
141423	7	Sololá	701	Sololá	2	El tablón	3	Marzo	2023-09-03T00:00:00	2024-11-06T14:00:00	1	Precipitación	0.2
141424	7	Sololá	701	Sololá	2	El tablón	3	Marzo	2023-09-03T00:00:00	2024-11-06T14:00:00	8	Radiación solar	492
141425	7	Sololá	701	Sololá	2	El tablón	3	Marzo	2023-09-03T00:00:00	2024-11-06T15:00:00	2	Temperatura media	16.8
141426	7	Sololá	701	Sololá	2	El tablón	3	Marzo	2023-09-03T00:00:00	2024-11-06T15:00:00	4	Temperatura máxima	16.8
141427	7	Sololá	701	Sololá	2	El tablón	3	Marzo	2023-09-03T00:00:00	2024-11-06T15:00:00	3	Temperatura mínima	15.3
141428	7	Sololá	701	Sololá	2	El tablón	3	Marzo	2023-09-03T00:00:00	2024-11-06T15:00:00	5	Humedad	83
141429	7	Sololá	701	Sololá	2	El tablón	3	Marzo	2023-09-03T00:00:00	2024-11-06T15:00:00	6	Velocidad del viento	8
141430	7	Sololá	701	Sololá	2	El tablón	3	Marzo	2023-09-03T00:00:00	2024-11-06T15:00:00	7	Dirección del viento	8.05
141431	7	Sololá	701	Sololá	2	El tablón	3	Marzo	2023-09-03T00:00:00	2024-11-06T15:00:00	1	Precipitación	0
141432	7	Sololá	701	Sololá	2	El tablón	3	Marzo	2023-09-03T00:00:00	2024-11-06T15:00:00	8	Radiación solar	604
141433	7	Sololá	701	Sololá	2	El tablón	3	Marzo	2023-09-03T00:00:00	2024-11-06T16:00:00	2	Temperatura media	15.1
141434	7	Sololá	701	Sololá	2	El tablón	3	Marzo	2023-09-03T00:00:00	2024-11-06T16:00:00	4	Temperatura máxima	16.8
141435	7	Sololá	701	Sololá	2	El tablón	3	Marzo	2023-09-03T00:00:00	2024-11-06T16:00:00	3	Temperatura mínima	14.9
141436	7	Sololá	701	Sololá	2	El tablón	3	Marzo	2023-09-03T00:00:00	2024-11-06T16:00:00	5	Humedad	87
141437	7	Sololá	701	Sololá	2	El tablón	3	Marzo	2023-09-03T00:00:00	2024-11-06T16:00:00	6	Velocidad del viento	8
141438	7	Sololá	701	Sololá	2	El tablón	3	Marzo	2023-09-03T00:00:00	2024-11-06T16:00:00	7	Dirección del viento	8.05
141439	7	Sololá	701	Sololá	2	El tablón	3	Marzo	2023-09-03T00:00:00	2024-11-06T16:00:00	1	Precipitación	0
141440	7	Sololá	701	Sololá	2	El tablón	3	Marzo	2023-09-03T00:00:00	2024-11-06T16:00:00	8	Radiación solar	310
141441	7	Sololá	701	Sololá	2	El tablón	3	Marzo	2023-09-03T00:00:00	2024-11-06T17:00:00	2	Temperatura media	14.6
141442	7	Sololá	701	Sololá	2	El tablón	3	Marzo	2023-09-03T00:00:00	2024-11-06T17:00:00	4	Temperatura máxima	15.2
141443	7	Sololá	701	Sololá	2	El tablón	3	Marzo	2023-09-03T00:00:00	2024-11-06T17:00:00	3	Temperatura mínima	14.6
141444	7	Sololá	701	Sololá	2	El tablón	3	Marzo	2023-09-03T00:00:00	2024-11-06T17:00:00	5	Humedad	88
141445	7	Sololá	701	Sololá	2	El tablón	3	Marzo	2023-09-03T00:00:00	2024-11-06T17:00:00	6	Velocidad del viento	6.4
141446	7	Sololá	701	Sololá	2	El tablón	3	Marzo	2023-09-03T00:00:00	2024-11-06T17:00:00	7	Dirección del viento	6.44
141447	7	Sololá	701	Sololá	2	El tablón	3	Marzo	2023-09-03T00:00:00	2024-11-06T17:00:00	1	Precipitación	0
141448	7	Sololá	701	Sololá	2	El tablón	3	Marzo	2023-09-03T00:00:00	2024-11-06T17:00:00	8	Radiación solar	173
141449	7	Sololá	701	Sololá	2	El tablón	3	Marzo	2023-09-03T00:00:00	2024-11-06T18:00:00	2	Temperatura media	14.1
141450	7	Sololá	701	Sololá	2	El tablón	3	Marzo	2023-09-03T00:00:00	2024-11-06T18:00:00	4	Temperatura máxima	14.6
141451	7	Sololá	701	Sololá	2	El tablón	3	Marzo	2023-09-03T00:00:00	2024-11-06T18:00:00	3	Temperatura mínima	14.1
141452	7	Sololá	701	Sololá	2	El tablón	3	Marzo	2023-09-03T00:00:00	2024-11-06T18:00:00	5	Humedad	89
141453	7	Sololá	701	Sololá	2	El tablón	3	Marzo	2023-09-03T00:00:00	2024-11-06T18:00:00	6	Velocidad del viento	4.8
141454	7	Sololá	701	Sololá	2	El tablón	3	Marzo	2023-09-03T00:00:00	2024-11-06T18:00:00	7	Dirección del viento	4.83
141455	7	Sololá	701	Sololá	2	El tablón	3	Marzo	2023-09-03T00:00:00	2024-11-06T18:00:00	1	Precipitación	0
141456	7	Sololá	701	Sololá	2	El tablón	3	Marzo	2023-09-03T00:00:00	2024-11-06T18:00:00	8	Radiación solar	80
141457	7	Sololá	701	Sololá	2	El tablón	3	Marzo	2023-09-03T00:00:00	2024-11-06T19:00:00	2	Temperatura media	13.6
141458	7	Sololá	701	Sololá	2	El tablón	3	Marzo	2023-09-03T00:00:00	2024-11-06T19:00:00	4	Temperatura máxima	14.2
141459	7	Sololá	701	Sololá	2	El tablón	3	Marzo	2023-09-03T00:00:00	2024-11-06T19:00:00	3	Temperatura mínima	13.6
141460	7	Sololá	701	Sololá	2	El tablón	3	Marzo	2023-09-03T00:00:00	2024-11-06T19:00:00	5	Humedad	89
141461	7	Sololá	701	Sololá	2	El tablón	3	Marzo	2023-09-03T00:00:00	2024-11-06T19:00:00	6	Velocidad del viento	1.6
141462	7	Sololá	701	Sololá	2	El tablón	3	Marzo	2023-09-03T00:00:00	2024-11-06T19:00:00	7	Dirección del viento	1.61
141463	7	Sololá	701	Sololá	2	El tablón	3	Marzo	2023-09-03T00:00:00	2024-11-06T19:00:00	1	Precipitación	0
141464	7	Sololá	701	Sololá	2	El tablón	3	Marzo	2023-09-03T00:00:00	2024-11-06T19:00:00	8	Radiación solar	0
141465	7	Sololá	701	Sololá	2	El tablón	3	Marzo	2023-09-03T00:00:00	2024-11-06T20:00:00	2	Temperatura media	13.3
141466	7	Sololá	701	Sololá	2	El tablón	3	Marzo	2023-09-03T00:00:00	2024-11-06T20:00:00	4	Temperatura máxima	13.6
141467	7	Sololá	701	Sololá	2	El tablón	3	Marzo	2023-09-03T00:00:00	2024-11-06T20:00:00	3	Temperatura mínima	12.9
141468	7	Sololá	701	Sololá	2	El tablón	3	Marzo	2023-09-03T00:00:00	2024-11-06T20:00:00	5	Humedad	81
141469	7	Sololá	701	Sololá	2	El tablón	3	Marzo	2023-09-03T00:00:00	2024-11-06T20:00:00	6	Velocidad del viento	1.6
141470	7	Sololá	701	Sololá	2	El tablón	3	Marzo	2023-09-03T00:00:00	2024-11-06T20:00:00	7	Dirección del viento	1.61
141471	7	Sololá	701	Sololá	2	El tablón	3	Marzo	2023-09-03T00:00:00	2024-11-06T20:00:00	1	Precipitación	0
141472	7	Sololá	701	Sololá	2	El tablón	3	Marzo	2023-09-03T00:00:00	2024-11-06T20:00:00	8	Radiación solar	0
141473	7	Sololá	701	Sololá	2	El tablón	3	Marzo	2023-09-03T00:00:00	2024-11-06T21:00:00	2	Temperatura media	12.4
141474	7	Sololá	701	Sololá	2	El tablón	3	Marzo	2023-09-03T00:00:00	2024-11-06T21:00:00	4	Temperatura máxima	13.3
141475	7	Sololá	701	Sololá	2	El tablón	3	Marzo	2023-09-03T00:00:00	2024-11-06T21:00:00	3	Temperatura mínima	12.4
141476	7	Sololá	701	Sololá	2	El tablón	3	Marzo	2023-09-03T00:00:00	2024-11-06T21:00:00	5	Humedad	80
141477	7	Sololá	701	Sololá	2	El tablón	3	Marzo	2023-09-03T00:00:00	2024-11-06T21:00:00	6	Velocidad del viento	4.8
141478	7	Sololá	701	Sololá	2	El tablón	3	Marzo	2023-09-03T00:00:00	2024-11-06T21:00:00	7	Dirección del viento	4.83
141479	7	Sololá	701	Sololá	2	El tablón	3	Marzo	2023-09-03T00:00:00	2024-11-06T21:00:00	1	Precipitación	0
141480	7	Sololá	701	Sololá	2	El tablón	3	Marzo	2023-09-03T00:00:00	2024-11-06T21:00:00	8	Radiación solar	0
141481	7	Sololá	701	Sololá	2	El tablón	3	Marzo	2023-09-03T00:00:00	2024-11-06T22:00:00	2	Temperatura media	11.7
141482	7	Sololá	701	Sololá	2	El tablón	3	Marzo	2023-09-03T00:00:00	2024-11-06T22:00:00	4	Temperatura máxima	12.4
141483	7	Sololá	701	Sololá	2	El tablón	3	Marzo	2023-09-03T00:00:00	2024-11-06T22:00:00	3	Temperatura mínima	11.7
141484	7	Sololá	701	Sololá	2	El tablón	3	Marzo	2023-09-03T00:00:00	2024-11-06T22:00:00	5	Humedad	86
141485	7	Sololá	701	Sololá	2	El tablón	3	Marzo	2023-09-03T00:00:00	2024-11-06T22:00:00	6	Velocidad del viento	6.4
141486	7	Sololá	701	Sololá	2	El tablón	3	Marzo	2023-09-03T00:00:00	2024-11-06T22:00:00	7	Dirección del viento	6.44
141487	7	Sololá	701	Sololá	2	El tablón	3	Marzo	2023-09-03T00:00:00	2024-11-06T22:00:00	1	Precipitación	0
141488	7	Sololá	701	Sololá	2	El tablón	3	Marzo	2023-09-03T00:00:00	2024-11-06T22:00:00	8	Radiación solar	0
141489	7	Sololá	701	Sololá	2	El tablón	3	Marzo	2023-09-03T00:00:00	2024-11-06T23:00:00	2	Temperatura media	11.2
141490	7	Sololá	701	Sololá	2	El tablón	3	Marzo	2023-09-03T00:00:00	2024-11-06T23:00:00	4	Temperatura máxima	11.7
141491	7	Sololá	701	Sololá	2	El tablón	3	Marzo	2023-09-03T00:00:00	2024-11-06T23:00:00	3	Temperatura mínima	11.2
141492	7	Sololá	701	Sololá	2	El tablón	3	Marzo	2023-09-03T00:00:00	2024-11-06T23:00:00	5	Humedad	87
141493	7	Sololá	701	Sololá	2	El tablón	3	Marzo	2023-09-03T00:00:00	2024-11-06T23:00:00	6	Velocidad del viento	4.8
141494	7	Sololá	701	Sololá	2	El tablón	3	Marzo	2023-09-03T00:00:00	2024-11-06T23:00:00	7	Dirección del viento	4.83
141495	7	Sololá	701	Sololá	2	El tablón	3	Marzo	2023-09-03T00:00:00	2024-11-06T23:00:00	1	Precipitación	0
141496	7	Sololá	701	Sololá	2	El tablón	3	Marzo	2023-09-03T00:00:00	2024-11-06T23:00:00	8	Radiación solar	0
141497	7	Sololá	701	Sololá	2	El tablón	3	Marzo	2023-10-03T00:00:00	2024-11-06T00:00:00	2	Temperatura media	11.1
141498	7	Sololá	701	Sololá	2	El tablón	3	Marzo	2023-10-03T00:00:00	2024-11-06T00:00:00	4	Temperatura máxima	11.2
141499	7	Sololá	701	Sololá	2	El tablón	3	Marzo	2023-10-03T00:00:00	2024-11-06T00:00:00	3	Temperatura mínima	11
141500	7	Sololá	701	Sololá	2	El tablón	3	Marzo	2023-10-03T00:00:00	2024-11-06T00:00:00	5	Humedad	86
141501	7	Sololá	701	Sololá	2	El tablón	3	Marzo	2023-10-03T00:00:00	2024-11-06T00:00:00	6	Velocidad del viento	4.8
141502	7	Sololá	701	Sololá	2	El tablón	3	Marzo	2023-10-03T00:00:00	2024-11-06T00:00:00	7	Dirección del viento	4.83
141503	7	Sololá	701	Sololá	2	El tablón	3	Marzo	2023-10-03T00:00:00	2024-11-06T00:00:00	1	Precipitación	0
141504	7	Sololá	701	Sololá	2	El tablón	3	Marzo	2023-10-03T00:00:00	2024-11-06T00:00:00	8	Radiación solar	0
141505	7	Sololá	701	Sololá	2	El tablón	3	Marzo	2023-10-03T00:00:00	2024-11-06T01:00:00	2	Temperatura media	10.4
141506	7	Sololá	701	Sololá	2	El tablón	3	Marzo	2023-10-03T00:00:00	2024-11-06T01:00:00	4	Temperatura máxima	11.2
141507	7	Sololá	701	Sololá	2	El tablón	3	Marzo	2023-10-03T00:00:00	2024-11-06T01:00:00	3	Temperatura mínima	10.4
141508	7	Sololá	701	Sololá	2	El tablón	3	Marzo	2023-10-03T00:00:00	2024-11-06T01:00:00	5	Humedad	86
141509	7	Sololá	701	Sololá	2	El tablón	3	Marzo	2023-10-03T00:00:00	2024-11-06T01:00:00	6	Velocidad del viento	4.8
141510	7	Sololá	701	Sololá	2	El tablón	3	Marzo	2023-10-03T00:00:00	2024-11-06T01:00:00	7	Dirección del viento	4.83
141511	7	Sololá	701	Sololá	2	El tablón	3	Marzo	2023-10-03T00:00:00	2024-11-06T01:00:00	1	Precipitación	0
141512	7	Sololá	701	Sololá	2	El tablón	3	Marzo	2023-10-03T00:00:00	2024-11-06T01:00:00	8	Radiación solar	0
141513	7	Sololá	701	Sololá	2	El tablón	3	Marzo	2023-10-03T00:00:00	2024-11-06T02:00:00	2	Temperatura media	10.4
141514	7	Sololá	701	Sololá	2	El tablón	3	Marzo	2023-10-03T00:00:00	2024-11-06T02:00:00	4	Temperatura máxima	10.7
141515	7	Sololá	701	Sololá	2	El tablón	3	Marzo	2023-10-03T00:00:00	2024-11-06T02:00:00	3	Temperatura mínima	10.2
141516	7	Sololá	701	Sololá	2	El tablón	3	Marzo	2023-10-03T00:00:00	2024-11-06T02:00:00	5	Humedad	88
141517	7	Sololá	701	Sololá	2	El tablón	3	Marzo	2023-10-03T00:00:00	2024-11-06T02:00:00	6	Velocidad del viento	4.8
141518	7	Sololá	701	Sololá	2	El tablón	3	Marzo	2023-10-03T00:00:00	2024-11-06T02:00:00	7	Dirección del viento	4.83
141519	7	Sololá	701	Sololá	2	El tablón	3	Marzo	2023-10-03T00:00:00	2024-11-06T02:00:00	1	Precipitación	0
141520	7	Sololá	701	Sololá	2	El tablón	3	Marzo	2023-10-03T00:00:00	2024-11-06T02:00:00	8	Radiación solar	0
141521	7	Sololá	701	Sololá	2	El tablón	3	Marzo	2023-10-03T00:00:00	2024-11-06T03:00:00	2	Temperatura media	9.6
141522	7	Sololá	701	Sololá	2	El tablón	3	Marzo	2023-10-03T00:00:00	2024-11-06T03:00:00	4	Temperatura máxima	10.4
141523	7	Sololá	701	Sololá	2	El tablón	3	Marzo	2023-10-03T00:00:00	2024-11-06T03:00:00	3	Temperatura mínima	9.6
141524	7	Sololá	701	Sololá	2	El tablón	3	Marzo	2023-10-03T00:00:00	2024-11-06T03:00:00	5	Humedad	88
141525	7	Sololá	701	Sololá	2	El tablón	3	Marzo	2023-10-03T00:00:00	2024-11-06T03:00:00	6	Velocidad del viento	3.2
141526	7	Sololá	701	Sololá	2	El tablón	3	Marzo	2023-10-03T00:00:00	2024-11-06T03:00:00	7	Dirección del viento	3.22
141527	7	Sololá	701	Sololá	2	El tablón	3	Marzo	2023-10-03T00:00:00	2024-11-06T03:00:00	1	Precipitación	0
141528	7	Sololá	701	Sololá	2	El tablón	3	Marzo	2023-10-03T00:00:00	2024-11-06T03:00:00	8	Radiación solar	0
141529	7	Sololá	701	Sololá	2	El tablón	3	Marzo	2023-10-03T00:00:00	2024-11-06T04:00:00	2	Temperatura media	8.7
141530	7	Sololá	701	Sololá	2	El tablón	3	Marzo	2023-10-03T00:00:00	2024-11-06T04:00:00	4	Temperatura máxima	9.6
141531	7	Sololá	701	Sololá	2	El tablón	3	Marzo	2023-10-03T00:00:00	2024-11-06T04:00:00	3	Temperatura mínima	8.7
141532	7	Sololá	701	Sololá	2	El tablón	3	Marzo	2023-10-03T00:00:00	2024-11-06T04:00:00	5	Humedad	89
141533	7	Sololá	701	Sololá	2	El tablón	3	Marzo	2023-10-03T00:00:00	2024-11-06T04:00:00	6	Velocidad del viento	3.2
141534	7	Sololá	701	Sololá	2	El tablón	3	Marzo	2023-10-03T00:00:00	2024-11-06T04:00:00	7	Dirección del viento	3.22
141535	7	Sololá	701	Sololá	2	El tablón	3	Marzo	2023-10-03T00:00:00	2024-11-06T04:00:00	1	Precipitación	0
141536	7	Sololá	701	Sololá	2	El tablón	3	Marzo	2023-10-03T00:00:00	2024-11-06T04:00:00	8	Radiación solar	0
141537	7	Sololá	701	Sololá	2	El tablón	3	Marzo	2023-10-03T00:00:00	2024-11-06T05:00:00	2	Temperatura media	8.3
141538	7	Sololá	701	Sololá	2	El tablón	3	Marzo	2023-10-03T00:00:00	2024-11-06T05:00:00	4	Temperatura máxima	8.7
141539	7	Sololá	701	Sololá	2	El tablón	3	Marzo	2023-10-03T00:00:00	2024-11-06T05:00:00	3	Temperatura mínima	8.2
141540	7	Sololá	701	Sololá	2	El tablón	3	Marzo	2023-10-03T00:00:00	2024-11-06T05:00:00	5	Humedad	90
141541	7	Sololá	701	Sololá	2	El tablón	3	Marzo	2023-10-03T00:00:00	2024-11-06T05:00:00	6	Velocidad del viento	3.2
141542	7	Sololá	701	Sololá	2	El tablón	3	Marzo	2023-10-03T00:00:00	2024-11-06T05:00:00	7	Dirección del viento	3.22
141543	7	Sololá	701	Sololá	2	El tablón	3	Marzo	2023-10-03T00:00:00	2024-11-06T05:00:00	1	Precipitación	0
141544	7	Sololá	701	Sololá	2	El tablón	3	Marzo	2023-10-03T00:00:00	2024-11-06T05:00:00	8	Radiación solar	0
141545	7	Sololá	701	Sololá	2	El tablón	3	Marzo	2023-10-03T00:00:00	2024-11-06T06:00:00	2	Temperatura media	9.3
141546	7	Sololá	701	Sololá	2	El tablón	3	Marzo	2023-10-03T00:00:00	2024-11-06T06:00:00	4	Temperatura máxima	9.3
141547	7	Sololá	701	Sololá	2	El tablón	3	Marzo	2023-10-03T00:00:00	2024-11-06T06:00:00	3	Temperatura mínima	8.3
141548	7	Sololá	701	Sololá	2	El tablón	3	Marzo	2023-10-03T00:00:00	2024-11-06T06:00:00	5	Humedad	90
141549	7	Sololá	701	Sololá	2	El tablón	3	Marzo	2023-10-03T00:00:00	2024-11-06T06:00:00	6	Velocidad del viento	1.6
141550	7	Sololá	701	Sololá	2	El tablón	3	Marzo	2023-10-03T00:00:00	2024-11-06T06:00:00	7	Dirección del viento	1.61
141551	7	Sololá	701	Sololá	2	El tablón	3	Marzo	2023-10-03T00:00:00	2024-11-06T06:00:00	1	Precipitación	0
141552	7	Sololá	701	Sololá	2	El tablón	3	Marzo	2023-10-03T00:00:00	2024-11-06T06:00:00	8	Radiación solar	0
141553	7	Sololá	701	Sololá	2	El tablón	3	Marzo	2023-10-03T00:00:00	2024-11-06T07:00:00	2	Temperatura media	9.3
141554	7	Sololá	701	Sololá	2	El tablón	3	Marzo	2023-10-03T00:00:00	2024-11-06T07:00:00	4	Temperatura máxima	9.3
141555	7	Sololá	701	Sololá	2	El tablón	3	Marzo	2023-10-03T00:00:00	2024-11-06T07:00:00	3	Temperatura mínima	8.9
141556	7	Sololá	701	Sololá	2	El tablón	3	Marzo	2023-10-03T00:00:00	2024-11-06T07:00:00	5	Humedad	90
141557	7	Sololá	701	Sololá	2	El tablón	3	Marzo	2023-10-03T00:00:00	2024-11-06T07:00:00	6	Velocidad del viento	3.2
141558	7	Sololá	701	Sololá	2	El tablón	3	Marzo	2023-10-03T00:00:00	2024-11-06T07:00:00	7	Dirección del viento	3.22
141559	7	Sololá	701	Sololá	2	El tablón	3	Marzo	2023-10-03T00:00:00	2024-11-06T07:00:00	1	Precipitación	0
141560	7	Sololá	701	Sololá	2	El tablón	3	Marzo	2023-10-03T00:00:00	2024-11-06T07:00:00	8	Radiación solar	15
141561	7	Sololá	701	Sololá	2	El tablón	3	Marzo	2023-10-03T00:00:00	2024-11-06T08:00:00	2	Temperatura media	11.8
141562	7	Sololá	701	Sololá	2	El tablón	3	Marzo	2023-10-03T00:00:00	2024-11-06T08:00:00	4	Temperatura máxima	11.8
141563	7	Sololá	701	Sololá	2	El tablón	3	Marzo	2023-10-03T00:00:00	2024-11-06T08:00:00	3	Temperatura mínima	9.3
141564	7	Sololá	701	Sololá	2	El tablón	3	Marzo	2023-10-03T00:00:00	2024-11-06T08:00:00	5	Humedad	85
141565	7	Sololá	701	Sololá	2	El tablón	3	Marzo	2023-10-03T00:00:00	2024-11-06T08:00:00	6	Velocidad del viento	3.2
141566	7	Sololá	701	Sololá	2	El tablón	3	Marzo	2023-10-03T00:00:00	2024-11-06T08:00:00	7	Dirección del viento	3.22
141567	7	Sololá	701	Sololá	2	El tablón	3	Marzo	2023-10-03T00:00:00	2024-11-06T08:00:00	1	Precipitación	0
141568	7	Sololá	701	Sololá	2	El tablón	3	Marzo	2023-10-03T00:00:00	2024-11-06T08:00:00	8	Radiación solar	124
141569	7	Sololá	701	Sololá	2	El tablón	3	Marzo	2023-10-03T00:00:00	2024-11-06T09:00:00	2	Temperatura media	13.2
141570	7	Sololá	701	Sololá	2	El tablón	3	Marzo	2023-10-03T00:00:00	2024-11-06T09:00:00	4	Temperatura máxima	13.3
141571	7	Sololá	701	Sololá	2	El tablón	3	Marzo	2023-10-03T00:00:00	2024-11-06T09:00:00	3	Temperatura mínima	11.7
141572	7	Sololá	701	Sololá	2	El tablón	3	Marzo	2023-10-03T00:00:00	2024-11-06T09:00:00	5	Humedad	83
141573	7	Sololá	701	Sololá	2	El tablón	3	Marzo	2023-10-03T00:00:00	2024-11-06T09:00:00	6	Velocidad del viento	4.8
141574	7	Sololá	701	Sololá	2	El tablón	3	Marzo	2023-10-03T00:00:00	2024-11-06T09:00:00	7	Dirección del viento	4.83
141575	7	Sololá	701	Sololá	2	El tablón	3	Marzo	2023-10-03T00:00:00	2024-11-06T09:00:00	1	Precipitación	0
141576	7	Sololá	701	Sololá	2	El tablón	3	Marzo	2023-10-03T00:00:00	2024-11-06T09:00:00	8	Radiación solar	342
141577	7	Sololá	701	Sololá	2	El tablón	3	Marzo	2023-10-03T00:00:00	2024-11-06T10:00:00	2	Temperatura media	12.5
141578	7	Sololá	701	Sololá	2	El tablón	3	Marzo	2023-10-03T00:00:00	2024-11-06T10:00:00	4	Temperatura máxima	13.3
141579	7	Sololá	701	Sololá	2	El tablón	3	Marzo	2023-10-03T00:00:00	2024-11-06T10:00:00	3	Temperatura mínima	12.3
141580	7	Sololá	701	Sololá	2	El tablón	3	Marzo	2023-10-03T00:00:00	2024-11-06T10:00:00	5	Humedad	89
141581	7	Sololá	701	Sololá	2	El tablón	3	Marzo	2023-10-03T00:00:00	2024-11-06T10:00:00	6	Velocidad del viento	6.4
141582	7	Sololá	701	Sololá	2	El tablón	3	Marzo	2023-10-03T00:00:00	2024-11-06T10:00:00	7	Dirección del viento	6.44
141583	7	Sololá	701	Sololá	2	El tablón	3	Marzo	2023-10-03T00:00:00	2024-11-06T10:00:00	1	Precipitación	0
141584	7	Sololá	701	Sololá	2	El tablón	3	Marzo	2023-10-03T00:00:00	2024-11-06T10:00:00	8	Radiación solar	288
141585	7	Sololá	701	Sololá	2	El tablón	3	Marzo	2023-10-03T00:00:00	2024-11-06T11:00:00	2	Temperatura media	13.1
141586	7	Sololá	701	Sololá	2	El tablón	3	Marzo	2023-10-03T00:00:00	2024-11-06T11:00:00	4	Temperatura máxima	13.7
141587	7	Sololá	701	Sololá	2	El tablón	3	Marzo	2023-10-03T00:00:00	2024-11-06T11:00:00	3	Temperatura mínima	12.3
141588	7	Sololá	701	Sololá	2	El tablón	3	Marzo	2023-10-03T00:00:00	2024-11-06T11:00:00	5	Humedad	86
141589	7	Sololá	701	Sololá	2	El tablón	3	Marzo	2023-10-03T00:00:00	2024-11-06T11:00:00	6	Velocidad del viento	4.8
141590	7	Sololá	701	Sololá	2	El tablón	3	Marzo	2023-10-03T00:00:00	2024-11-06T11:00:00	7	Dirección del viento	4.83
141591	7	Sololá	701	Sololá	2	El tablón	3	Marzo	2023-10-03T00:00:00	2024-11-06T11:00:00	1	Precipitación	0
141592	7	Sololá	701	Sololá	2	El tablón	3	Marzo	2023-10-03T00:00:00	2024-11-06T11:00:00	8	Radiación solar	288
141593	7	Sololá	701	Sololá	2	El tablón	3	Marzo	2023-10-03T00:00:00	2024-11-06T12:00:00	2	Temperatura media	12.3
141594	7	Sololá	701	Sololá	2	El tablón	3	Marzo	2023-10-03T00:00:00	2024-11-06T12:00:00	4	Temperatura máxima	13.1
141595	7	Sololá	701	Sololá	2	El tablón	3	Marzo	2023-10-03T00:00:00	2024-11-06T12:00:00	3	Temperatura mínima	12.3
141596	7	Sololá	701	Sololá	2	El tablón	3	Marzo	2023-10-03T00:00:00	2024-11-06T12:00:00	5	Humedad	89
141597	7	Sololá	701	Sololá	2	El tablón	3	Marzo	2023-10-03T00:00:00	2024-11-06T12:00:00	6	Velocidad del viento	6.4
141598	7	Sololá	701	Sololá	2	El tablón	3	Marzo	2023-10-03T00:00:00	2024-11-06T12:00:00	7	Dirección del viento	6.44
141599	7	Sololá	701	Sololá	2	El tablón	3	Marzo	2023-10-03T00:00:00	2024-11-06T12:00:00	1	Precipitación	0
141600	7	Sololá	701	Sololá	2	El tablón	3	Marzo	2023-10-03T00:00:00	2024-11-06T12:00:00	8	Radiación solar	170
141601	7	Sololá	701	Sololá	2	El tablón	3	Marzo	2023-10-03T00:00:00	2024-11-06T13:00:00	2	Temperatura media	13.2
141602	7	Sololá	701	Sololá	2	El tablón	3	Marzo	2023-10-03T00:00:00	2024-11-06T13:00:00	4	Temperatura máxima	13.2
141603	7	Sololá	701	Sololá	2	El tablón	3	Marzo	2023-10-03T00:00:00	2024-11-06T13:00:00	3	Temperatura mínima	12
141604	7	Sololá	701	Sololá	2	El tablón	3	Marzo	2023-10-03T00:00:00	2024-11-06T13:00:00	5	Humedad	88
141605	7	Sololá	701	Sololá	2	El tablón	3	Marzo	2023-10-03T00:00:00	2024-11-06T13:00:00	6	Velocidad del viento	4.8
141606	7	Sololá	701	Sololá	2	El tablón	3	Marzo	2023-10-03T00:00:00	2024-11-06T13:00:00	7	Dirección del viento	4.83
141607	7	Sololá	701	Sololá	2	El tablón	3	Marzo	2023-10-03T00:00:00	2024-11-06T13:00:00	1	Precipitación	0
141608	7	Sololá	701	Sololá	2	El tablón	3	Marzo	2023-10-03T00:00:00	2024-11-06T13:00:00	8	Radiación solar	245
141609	7	Sololá	701	Sololá	2	El tablón	3	Marzo	2023-10-03T00:00:00	2024-11-06T14:00:00	2	Temperatura media	14.4
141610	7	Sololá	701	Sololá	2	El tablón	3	Marzo	2023-10-03T00:00:00	2024-11-06T14:00:00	4	Temperatura máxima	14.4
141611	7	Sololá	701	Sololá	2	El tablón	3	Marzo	2023-10-03T00:00:00	2024-11-06T14:00:00	3	Temperatura mínima	13.1
141612	7	Sololá	701	Sololá	2	El tablón	3	Marzo	2023-10-03T00:00:00	2024-11-06T14:00:00	5	Humedad	85
141613	7	Sololá	701	Sololá	2	El tablón	3	Marzo	2023-10-03T00:00:00	2024-11-06T14:00:00	6	Velocidad del viento	4.8
141614	7	Sololá	701	Sololá	2	El tablón	3	Marzo	2023-10-03T00:00:00	2024-11-06T14:00:00	7	Dirección del viento	4.83
141615	7	Sololá	701	Sololá	2	El tablón	3	Marzo	2023-10-03T00:00:00	2024-11-06T14:00:00	1	Precipitación	0
141616	7	Sololá	701	Sololá	2	El tablón	3	Marzo	2023-10-03T00:00:00	2024-11-06T14:00:00	8	Radiación solar	253
141617	7	Sololá	701	Sololá	2	El tablón	3	Marzo	2023-10-03T00:00:00	2024-11-06T15:00:00	2	Temperatura media	14.2
141618	7	Sololá	701	Sololá	2	El tablón	3	Marzo	2023-10-03T00:00:00	2024-11-06T15:00:00	4	Temperatura máxima	14.9
141619	7	Sololá	701	Sololá	2	El tablón	3	Marzo	2023-10-03T00:00:00	2024-11-06T15:00:00	3	Temperatura mínima	14
141620	7	Sololá	701	Sololá	2	El tablón	3	Marzo	2023-10-03T00:00:00	2024-11-06T15:00:00	5	Humedad	87
141621	7	Sololá	701	Sololá	2	El tablón	3	Marzo	2023-10-03T00:00:00	2024-11-06T15:00:00	6	Velocidad del viento	6.4
141622	7	Sololá	701	Sololá	2	El tablón	3	Marzo	2023-10-03T00:00:00	2024-11-06T15:00:00	7	Dirección del viento	6.44
141623	7	Sololá	701	Sololá	2	El tablón	3	Marzo	2023-10-03T00:00:00	2024-11-06T15:00:00	1	Precipitación	0
141624	7	Sololá	701	Sololá	2	El tablón	3	Marzo	2023-10-03T00:00:00	2024-11-06T15:00:00	8	Radiación solar	266
141625	7	Sololá	701	Sololá	2	El tablón	3	Marzo	2023-10-03T00:00:00	2024-11-06T16:00:00	2	Temperatura media	14.9
141626	7	Sololá	701	Sololá	2	El tablón	3	Marzo	2023-10-03T00:00:00	2024-11-06T16:00:00	4	Temperatura máxima	15.4
141627	7	Sololá	701	Sololá	2	El tablón	3	Marzo	2023-10-03T00:00:00	2024-11-06T16:00:00	3	Temperatura mínima	14.2
141628	7	Sololá	701	Sololá	2	El tablón	3	Marzo	2023-10-03T00:00:00	2024-11-06T16:00:00	5	Humedad	86
141629	7	Sololá	701	Sololá	2	El tablón	3	Marzo	2023-10-03T00:00:00	2024-11-06T16:00:00	6	Velocidad del viento	6.4
141630	7	Sololá	701	Sololá	2	El tablón	3	Marzo	2023-10-03T00:00:00	2024-11-06T16:00:00	7	Dirección del viento	6.44
141631	7	Sololá	701	Sololá	2	El tablón	3	Marzo	2023-10-03T00:00:00	2024-11-06T16:00:00	1	Precipitación	0
141632	7	Sololá	701	Sololá	2	El tablón	3	Marzo	2023-10-03T00:00:00	2024-11-06T16:00:00	8	Radiación solar	402
141633	7	Sololá	701	Sololá	2	El tablón	3	Marzo	2023-10-03T00:00:00	2024-11-06T17:00:00	2	Temperatura media	13.7
141634	7	Sololá	701	Sololá	2	El tablón	3	Marzo	2023-10-03T00:00:00	2024-11-06T17:00:00	4	Temperatura máxima	14.9
141635	7	Sololá	701	Sololá	2	El tablón	3	Marzo	2023-10-03T00:00:00	2024-11-06T17:00:00	3	Temperatura mínima	13.6
141636	7	Sololá	701	Sololá	2	El tablón	3	Marzo	2023-10-03T00:00:00	2024-11-06T17:00:00	5	Humedad	89
141637	7	Sololá	701	Sololá	2	El tablón	3	Marzo	2023-10-03T00:00:00	2024-11-06T17:00:00	6	Velocidad del viento	4.8
141638	7	Sololá	701	Sololá	2	El tablón	3	Marzo	2023-10-03T00:00:00	2024-11-06T17:00:00	7	Dirección del viento	4.83
141639	7	Sololá	701	Sololá	2	El tablón	3	Marzo	2023-10-03T00:00:00	2024-11-06T17:00:00	1	Precipitación	0
141640	7	Sololá	701	Sololá	2	El tablón	3	Marzo	2023-10-03T00:00:00	2024-11-06T17:00:00	8	Radiación solar	106
141641	7	Sololá	701	Sololá	2	El tablón	3	Marzo	2023-10-03T00:00:00	2024-11-06T18:00:00	2	Temperatura media	13.5
141642	7	Sololá	701	Sololá	2	El tablón	3	Marzo	2023-10-03T00:00:00	2024-11-06T18:00:00	4	Temperatura máxima	13.7
141643	7	Sololá	701	Sololá	2	El tablón	3	Marzo	2023-10-03T00:00:00	2024-11-06T18:00:00	3	Temperatura mínima	13.3
141644	7	Sololá	701	Sololá	2	El tablón	3	Marzo	2023-10-03T00:00:00	2024-11-06T18:00:00	5	Humedad	89
141645	7	Sololá	701	Sololá	2	El tablón	3	Marzo	2023-10-03T00:00:00	2024-11-06T18:00:00	6	Velocidad del viento	3.2
141646	7	Sololá	701	Sololá	2	El tablón	3	Marzo	2023-10-03T00:00:00	2024-11-06T18:00:00	7	Dirección del viento	3.22
141647	7	Sololá	701	Sololá	2	El tablón	3	Marzo	2023-10-03T00:00:00	2024-11-06T18:00:00	1	Precipitación	0
141648	7	Sololá	701	Sololá	2	El tablón	3	Marzo	2023-10-03T00:00:00	2024-11-06T18:00:00	8	Radiación solar	46
141649	7	Sololá	701	Sololá	2	El tablón	3	Marzo	2023-10-03T00:00:00	2024-11-06T19:00:00	2	Temperatura media	12.8
141650	7	Sololá	701	Sololá	2	El tablón	3	Marzo	2023-10-03T00:00:00	2024-11-06T19:00:00	4	Temperatura máxima	13.6
141651	7	Sololá	701	Sololá	2	El tablón	3	Marzo	2023-10-03T00:00:00	2024-11-06T19:00:00	3	Temperatura mínima	12.8
141652	7	Sololá	701	Sololá	2	El tablón	3	Marzo	2023-10-03T00:00:00	2024-11-06T19:00:00	5	Humedad	90
141653	7	Sololá	701	Sololá	2	El tablón	3	Marzo	2023-10-03T00:00:00	2024-11-06T19:00:00	6	Velocidad del viento	0
141654	7	Sololá	701	Sololá	2	El tablón	3	Marzo	2023-10-03T00:00:00	2024-11-06T19:00:00	7	Dirección del viento	0
141655	7	Sololá	701	Sololá	2	El tablón	3	Marzo	2023-10-03T00:00:00	2024-11-06T19:00:00	1	Precipitación	0
141656	7	Sololá	701	Sololá	2	El tablón	3	Marzo	2023-10-03T00:00:00	2024-11-06T19:00:00	8	Radiación solar	0
141657	7	Sololá	701	Sololá	2	El tablón	3	Marzo	2023-10-03T00:00:00	2024-11-06T20:00:00	2	Temperatura media	12.8
141658	7	Sololá	701	Sololá	2	El tablón	3	Marzo	2023-10-03T00:00:00	2024-11-06T20:00:00	4	Temperatura máxima	12.9
141659	7	Sololá	701	Sololá	2	El tablón	3	Marzo	2023-10-03T00:00:00	2024-11-06T20:00:00	3	Temperatura mínima	12.8
141660	7	Sololá	701	Sololá	2	El tablón	3	Marzo	2023-10-03T00:00:00	2024-11-06T20:00:00	5	Humedad	90
141661	7	Sololá	701	Sololá	2	El tablón	3	Marzo	2023-10-03T00:00:00	2024-11-06T20:00:00	6	Velocidad del viento	1.6
141662	7	Sololá	701	Sololá	2	El tablón	3	Marzo	2023-10-03T00:00:00	2024-11-06T20:00:00	7	Dirección del viento	1.61
141663	7	Sololá	701	Sololá	2	El tablón	3	Marzo	2023-10-03T00:00:00	2024-11-06T20:00:00	1	Precipitación	0
141664	7	Sololá	701	Sololá	2	El tablón	3	Marzo	2023-10-03T00:00:00	2024-11-06T20:00:00	8	Radiación solar	0
141665	7	Sololá	701	Sololá	2	El tablón	3	Marzo	2023-10-03T00:00:00	2024-11-06T21:00:00	2	Temperatura media	13.1
141666	7	Sololá	701	Sololá	2	El tablón	3	Marzo	2023-10-03T00:00:00	2024-11-06T21:00:00	4	Temperatura máxima	13.2
141667	7	Sololá	701	Sololá	2	El tablón	3	Marzo	2023-10-03T00:00:00	2024-11-06T21:00:00	3	Temperatura mínima	12.6
141668	7	Sololá	701	Sololá	2	El tablón	3	Marzo	2023-10-03T00:00:00	2024-11-06T21:00:00	5	Humedad	85
141669	7	Sololá	701	Sololá	2	El tablón	3	Marzo	2023-10-03T00:00:00	2024-11-06T21:00:00	6	Velocidad del viento	3.2
141670	7	Sololá	701	Sololá	2	El tablón	3	Marzo	2023-10-03T00:00:00	2024-11-06T21:00:00	7	Dirección del viento	3.22
141671	7	Sololá	701	Sololá	2	El tablón	3	Marzo	2023-10-03T00:00:00	2024-11-06T21:00:00	1	Precipitación	0
141672	7	Sololá	701	Sololá	2	El tablón	3	Marzo	2023-10-03T00:00:00	2024-11-06T21:00:00	8	Radiación solar	0
141673	7	Sololá	701	Sololá	2	El tablón	3	Marzo	2023-10-03T00:00:00	2024-11-06T22:00:00	2	Temperatura media	12.4
141674	7	Sololá	701	Sololá	2	El tablón	3	Marzo	2023-10-03T00:00:00	2024-11-06T22:00:00	4	Temperatura máxima	13.1
141675	7	Sololá	701	Sololá	2	El tablón	3	Marzo	2023-10-03T00:00:00	2024-11-06T22:00:00	3	Temperatura mínima	12.4
141676	7	Sololá	701	Sololá	2	El tablón	3	Marzo	2023-10-03T00:00:00	2024-11-06T22:00:00	5	Humedad	87
141677	7	Sololá	701	Sololá	2	El tablón	3	Marzo	2023-10-03T00:00:00	2024-11-06T22:00:00	6	Velocidad del viento	3.2
141678	7	Sololá	701	Sololá	2	El tablón	3	Marzo	2023-10-03T00:00:00	2024-11-06T22:00:00	7	Dirección del viento	3.22
141679	7	Sololá	701	Sololá	2	El tablón	3	Marzo	2023-10-03T00:00:00	2024-11-06T22:00:00	1	Precipitación	0
141680	7	Sololá	701	Sololá	2	El tablón	3	Marzo	2023-10-03T00:00:00	2024-11-06T22:00:00	8	Radiación solar	0
141681	7	Sololá	701	Sololá	2	El tablón	3	Marzo	2023-10-03T00:00:00	2024-11-06T23:00:00	2	Temperatura media	11.9
141682	7	Sololá	701	Sololá	2	El tablón	3	Marzo	2023-10-03T00:00:00	2024-11-06T23:00:00	4	Temperatura máxima	12.4
141683	7	Sololá	701	Sololá	2	El tablón	3	Marzo	2023-10-03T00:00:00	2024-11-06T23:00:00	3	Temperatura mínima	11.9
141684	7	Sololá	701	Sololá	2	El tablón	3	Marzo	2023-10-03T00:00:00	2024-11-06T23:00:00	5	Humedad	88
141685	7	Sololá	701	Sololá	2	El tablón	3	Marzo	2023-10-03T00:00:00	2024-11-06T23:00:00	6	Velocidad del viento	4.8
141686	7	Sololá	701	Sololá	2	El tablón	3	Marzo	2023-10-03T00:00:00	2024-11-06T23:00:00	7	Dirección del viento	4.83
141687	7	Sololá	701	Sololá	2	El tablón	3	Marzo	2023-10-03T00:00:00	2024-11-06T23:00:00	1	Precipitación	0
141688	7	Sololá	701	Sololá	2	El tablón	3	Marzo	2023-10-03T00:00:00	2024-11-06T23:00:00	8	Radiación solar	0
141689	7	Sololá	701	Sololá	2	El tablón	3	Marzo	2023-11-03T00:00:00	2024-11-06T00:00:00	2	Temperatura media	12
141690	7	Sololá	701	Sololá	2	El tablón	3	Marzo	2023-11-03T00:00:00	2024-11-06T00:00:00	4	Temperatura máxima	12.1
141691	7	Sololá	701	Sololá	2	El tablón	3	Marzo	2023-11-03T00:00:00	2024-11-06T00:00:00	3	Temperatura mínima	11.7
141692	7	Sololá	701	Sololá	2	El tablón	3	Marzo	2023-11-03T00:00:00	2024-11-06T00:00:00	5	Humedad	88
141693	7	Sololá	701	Sololá	2	El tablón	3	Marzo	2023-11-03T00:00:00	2024-11-06T00:00:00	6	Velocidad del viento	1.6
141694	7	Sololá	701	Sololá	2	El tablón	3	Marzo	2023-11-03T00:00:00	2024-11-06T00:00:00	7	Dirección del viento	1.61
141695	7	Sololá	701	Sololá	2	El tablón	3	Marzo	2023-11-03T00:00:00	2024-11-06T00:00:00	1	Precipitación	0
141696	7	Sololá	701	Sololá	2	El tablón	3	Marzo	2023-11-03T00:00:00	2024-11-06T00:00:00	8	Radiación solar	0
141697	7	Sololá	701	Sololá	2	El tablón	3	Marzo	2023-11-03T00:00:00	2024-11-06T01:00:00	2	Temperatura media	11.7
141698	7	Sololá	701	Sololá	2	El tablón	3	Marzo	2023-11-03T00:00:00	2024-11-06T01:00:00	4	Temperatura máxima	12.2
141699	7	Sololá	701	Sololá	2	El tablón	3	Marzo	2023-11-03T00:00:00	2024-11-06T01:00:00	3	Temperatura mínima	11.7
141700	7	Sololá	701	Sololá	2	El tablón	3	Marzo	2023-11-03T00:00:00	2024-11-06T01:00:00	5	Humedad	89
141701	7	Sololá	701	Sololá	2	El tablón	3	Marzo	2023-11-03T00:00:00	2024-11-06T01:00:00	6	Velocidad del viento	0
141702	7	Sololá	701	Sololá	2	El tablón	3	Marzo	2023-11-03T00:00:00	2024-11-06T01:00:00	7	Dirección del viento	0
141703	7	Sololá	701	Sololá	2	El tablón	3	Marzo	2023-11-03T00:00:00	2024-11-06T01:00:00	1	Precipitación	0
141704	7	Sololá	701	Sololá	2	El tablón	3	Marzo	2023-11-03T00:00:00	2024-11-06T01:00:00	8	Radiación solar	0
141705	7	Sololá	701	Sololá	2	El tablón	3	Marzo	2023-11-03T00:00:00	2024-11-06T02:00:00	2	Temperatura media	10.3
141706	7	Sololá	701	Sololá	2	El tablón	3	Marzo	2023-11-03T00:00:00	2024-11-06T02:00:00	4	Temperatura máxima	11.7
141707	7	Sololá	701	Sololá	2	El tablón	3	Marzo	2023-11-03T00:00:00	2024-11-06T02:00:00	3	Temperatura mínima	10.3
141708	7	Sololá	701	Sololá	2	El tablón	3	Marzo	2023-11-03T00:00:00	2024-11-06T02:00:00	5	Humedad	90
141709	7	Sololá	701	Sololá	2	El tablón	3	Marzo	2023-11-03T00:00:00	2024-11-06T02:00:00	6	Velocidad del viento	0
141710	7	Sololá	701	Sololá	2	El tablón	3	Marzo	2023-11-03T00:00:00	2024-11-06T02:00:00	7	Dirección del viento	0
141711	7	Sololá	701	Sololá	2	El tablón	3	Marzo	2023-11-03T00:00:00	2024-11-06T02:00:00	1	Precipitación	0
141712	7	Sololá	701	Sololá	2	El tablón	3	Marzo	2023-11-03T00:00:00	2024-11-06T02:00:00	8	Radiación solar	0
141713	7	Sololá	701	Sololá	2	El tablón	3	Marzo	2023-11-03T00:00:00	2024-11-06T03:00:00	2	Temperatura media	10.2
141714	7	Sololá	701	Sololá	2	El tablón	3	Marzo	2023-11-03T00:00:00	2024-11-06T03:00:00	4	Temperatura máxima	10.2
141715	7	Sololá	701	Sololá	2	El tablón	3	Marzo	2023-11-03T00:00:00	2024-11-06T03:00:00	3	Temperatura mínima	9.8
141716	7	Sololá	701	Sololá	2	El tablón	3	Marzo	2023-11-03T00:00:00	2024-11-06T03:00:00	5	Humedad	90
141717	7	Sololá	701	Sololá	2	El tablón	3	Marzo	2023-11-03T00:00:00	2024-11-06T03:00:00	6	Velocidad del viento	3.2
141718	7	Sololá	701	Sololá	2	El tablón	3	Marzo	2023-11-03T00:00:00	2024-11-06T03:00:00	7	Dirección del viento	3.22
141719	7	Sololá	701	Sololá	2	El tablón	3	Marzo	2023-11-03T00:00:00	2024-11-06T03:00:00	1	Precipitación	0
141720	7	Sololá	701	Sololá	2	El tablón	3	Marzo	2023-11-03T00:00:00	2024-11-06T03:00:00	8	Radiación solar	0
141721	7	Sololá	701	Sololá	2	El tablón	3	Marzo	2023-11-03T00:00:00	2024-11-06T04:00:00	2	Temperatura media	9.4
141722	7	Sololá	701	Sololá	2	El tablón	3	Marzo	2023-11-03T00:00:00	2024-11-06T04:00:00	4	Temperatura máxima	10.4
141723	7	Sololá	701	Sololá	2	El tablón	3	Marzo	2023-11-03T00:00:00	2024-11-06T04:00:00	3	Temperatura mínima	9.4
141724	7	Sololá	701	Sololá	2	El tablón	3	Marzo	2023-11-03T00:00:00	2024-11-06T04:00:00	5	Humedad	90
141725	7	Sololá	701	Sololá	2	El tablón	3	Marzo	2023-11-03T00:00:00	2024-11-06T04:00:00	6	Velocidad del viento	1.6
141726	7	Sololá	701	Sololá	2	El tablón	3	Marzo	2023-11-03T00:00:00	2024-11-06T04:00:00	7	Dirección del viento	1.61
141727	7	Sololá	701	Sololá	2	El tablón	3	Marzo	2023-11-03T00:00:00	2024-11-06T04:00:00	1	Precipitación	0
141728	7	Sololá	701	Sololá	2	El tablón	3	Marzo	2023-11-03T00:00:00	2024-11-06T04:00:00	8	Radiación solar	0
141729	7	Sololá	701	Sololá	2	El tablón	3	Marzo	2023-11-03T00:00:00	2024-11-06T05:00:00	2	Temperatura media	9.3
141730	7	Sololá	701	Sololá	2	El tablón	3	Marzo	2023-11-03T00:00:00	2024-11-06T05:00:00	4	Temperatura máxima	9.6
141731	7	Sololá	701	Sololá	2	El tablón	3	Marzo	2023-11-03T00:00:00	2024-11-06T05:00:00	3	Temperatura mínima	9.2
141732	7	Sololá	701	Sololá	2	El tablón	3	Marzo	2023-11-03T00:00:00	2024-11-06T05:00:00	5	Humedad	90
141733	7	Sololá	701	Sololá	2	El tablón	3	Marzo	2023-11-03T00:00:00	2024-11-06T05:00:00	6	Velocidad del viento	1.6
141734	7	Sololá	701	Sololá	2	El tablón	3	Marzo	2023-11-03T00:00:00	2024-11-06T05:00:00	7	Dirección del viento	1.61
141735	7	Sololá	701	Sololá	2	El tablón	3	Marzo	2023-11-03T00:00:00	2024-11-06T05:00:00	1	Precipitación	0
141736	7	Sololá	701	Sololá	2	El tablón	3	Marzo	2023-11-03T00:00:00	2024-11-06T05:00:00	8	Radiación solar	0
141737	7	Sololá	701	Sololá	2	El tablón	3	Marzo	2023-11-03T00:00:00	2024-11-06T06:00:00	2	Temperatura media	8.9
141738	7	Sololá	701	Sololá	2	El tablón	3	Marzo	2023-11-03T00:00:00	2024-11-06T06:00:00	4	Temperatura máxima	9.3
141739	7	Sololá	701	Sololá	2	El tablón	3	Marzo	2023-11-03T00:00:00	2024-11-06T06:00:00	3	Temperatura mínima	8.5
141740	7	Sololá	701	Sololá	2	El tablón	3	Marzo	2023-11-03T00:00:00	2024-11-06T06:00:00	5	Humedad	90
141741	7	Sololá	701	Sololá	2	El tablón	3	Marzo	2023-11-03T00:00:00	2024-11-06T06:00:00	6	Velocidad del viento	1.6
141742	7	Sololá	701	Sololá	2	El tablón	3	Marzo	2023-11-03T00:00:00	2024-11-06T06:00:00	7	Dirección del viento	1.61
141743	7	Sololá	701	Sololá	2	El tablón	3	Marzo	2023-11-03T00:00:00	2024-11-06T06:00:00	1	Precipitación	0
141744	7	Sololá	701	Sololá	2	El tablón	3	Marzo	2023-11-03T00:00:00	2024-11-06T06:00:00	8	Radiación solar	0
141745	7	Sololá	701	Sololá	2	El tablón	3	Marzo	2023-11-03T00:00:00	2024-11-06T07:00:00	2	Temperatura media	9.4
141746	7	Sololá	701	Sololá	2	El tablón	3	Marzo	2023-11-03T00:00:00	2024-11-06T07:00:00	4	Temperatura máxima	9.4
141747	7	Sololá	701	Sololá	2	El tablón	3	Marzo	2023-11-03T00:00:00	2024-11-06T07:00:00	3	Temperatura mínima	8.9
141748	7	Sololá	701	Sololá	2	El tablón	3	Marzo	2023-11-03T00:00:00	2024-11-06T07:00:00	5	Humedad	89
141749	7	Sololá	701	Sololá	2	El tablón	3	Marzo	2023-11-03T00:00:00	2024-11-06T07:00:00	6	Velocidad del viento	1.6
141750	7	Sololá	701	Sololá	2	El tablón	3	Marzo	2023-11-03T00:00:00	2024-11-06T07:00:00	7	Dirección del viento	1.61
141751	7	Sololá	701	Sololá	2	El tablón	3	Marzo	2023-11-03T00:00:00	2024-11-06T07:00:00	1	Precipitación	0
141752	7	Sololá	701	Sololá	2	El tablón	3	Marzo	2023-11-03T00:00:00	2024-11-06T07:00:00	8	Radiación solar	18
141753	7	Sololá	701	Sololá	2	El tablón	3	Marzo	2023-11-03T00:00:00	2024-11-06T08:00:00	2	Temperatura media	11.6
141754	7	Sololá	701	Sololá	2	El tablón	3	Marzo	2023-11-03T00:00:00	2024-11-06T08:00:00	4	Temperatura máxima	11.6
141755	7	Sololá	701	Sololá	2	El tablón	3	Marzo	2023-11-03T00:00:00	2024-11-06T08:00:00	3	Temperatura mínima	9.4
141756	7	Sololá	701	Sololá	2	El tablón	3	Marzo	2023-11-03T00:00:00	2024-11-06T08:00:00	5	Humedad	90
141757	7	Sololá	701	Sololá	2	El tablón	3	Marzo	2023-11-03T00:00:00	2024-11-06T08:00:00	6	Velocidad del viento	0
141758	7	Sololá	701	Sololá	2	El tablón	3	Marzo	2023-11-03T00:00:00	2024-11-06T08:00:00	7	Dirección del viento	0
141759	7	Sololá	701	Sololá	2	El tablón	3	Marzo	2023-11-03T00:00:00	2024-11-06T08:00:00	1	Precipitación	0
141760	7	Sololá	701	Sololá	2	El tablón	3	Marzo	2023-11-03T00:00:00	2024-11-06T08:00:00	8	Radiación solar	111
141761	7	Sololá	701	Sololá	2	El tablón	3	Marzo	2023-11-03T00:00:00	2024-11-06T09:00:00	2	Temperatura media	12.8
141762	7	Sololá	701	Sololá	2	El tablón	3	Marzo	2023-11-03T00:00:00	2024-11-06T09:00:00	4	Temperatura máxima	12.8
141763	7	Sololá	701	Sololá	2	El tablón	3	Marzo	2023-11-03T00:00:00	2024-11-06T09:00:00	3	Temperatura mínima	11.6
141764	7	Sololá	701	Sololá	2	El tablón	3	Marzo	2023-11-03T00:00:00	2024-11-06T09:00:00	5	Humedad	89
141765	7	Sololá	701	Sololá	2	El tablón	3	Marzo	2023-11-03T00:00:00	2024-11-06T09:00:00	6	Velocidad del viento	1.6
141766	7	Sololá	701	Sololá	2	El tablón	3	Marzo	2023-11-03T00:00:00	2024-11-06T09:00:00	7	Dirección del viento	1.61
141767	7	Sololá	701	Sololá	2	El tablón	3	Marzo	2023-11-03T00:00:00	2024-11-06T09:00:00	1	Precipitación	0
141768	7	Sololá	701	Sololá	2	El tablón	3	Marzo	2023-11-03T00:00:00	2024-11-06T09:00:00	8	Radiación solar	191
141769	7	Sololá	701	Sololá	2	El tablón	3	Marzo	2023-11-03T00:00:00	2024-11-06T10:00:00	2	Temperatura media	13.4
141770	7	Sololá	701	Sololá	2	El tablón	3	Marzo	2023-11-03T00:00:00	2024-11-06T10:00:00	4	Temperatura máxima	13.8
141771	7	Sololá	701	Sololá	2	El tablón	3	Marzo	2023-11-03T00:00:00	2024-11-06T10:00:00	3	Temperatura mínima	12.8
141772	7	Sololá	701	Sololá	2	El tablón	3	Marzo	2023-11-03T00:00:00	2024-11-06T10:00:00	5	Humedad	88
141773	7	Sololá	701	Sololá	2	El tablón	3	Marzo	2023-11-03T00:00:00	2024-11-06T10:00:00	6	Velocidad del viento	4.8
141774	7	Sololá	701	Sololá	2	El tablón	3	Marzo	2023-11-03T00:00:00	2024-11-06T10:00:00	7	Dirección del viento	4.83
141775	7	Sololá	701	Sololá	2	El tablón	3	Marzo	2023-11-03T00:00:00	2024-11-06T10:00:00	1	Precipitación	0
141776	7	Sololá	701	Sololá	2	El tablón	3	Marzo	2023-11-03T00:00:00	2024-11-06T10:00:00	8	Radiación solar	324
141777	7	Sololá	701	Sololá	2	El tablón	3	Marzo	2023-11-03T00:00:00	2024-11-06T11:00:00	2	Temperatura media	15.4
141778	7	Sololá	701	Sololá	2	El tablón	3	Marzo	2023-11-03T00:00:00	2024-11-06T11:00:00	4	Temperatura máxima	15.4
141779	7	Sololá	701	Sololá	2	El tablón	3	Marzo	2023-11-03T00:00:00	2024-11-06T11:00:00	3	Temperatura mínima	13.4
141780	7	Sololá	701	Sololá	2	El tablón	3	Marzo	2023-11-03T00:00:00	2024-11-06T11:00:00	5	Humedad	84
141781	7	Sololá	701	Sololá	2	El tablón	3	Marzo	2023-11-03T00:00:00	2024-11-06T11:00:00	6	Velocidad del viento	6.4
141782	7	Sololá	701	Sololá	2	El tablón	3	Marzo	2023-11-03T00:00:00	2024-11-06T11:00:00	7	Dirección del viento	6.44
141783	7	Sololá	701	Sololá	2	El tablón	3	Marzo	2023-11-03T00:00:00	2024-11-06T11:00:00	1	Precipitación	0
141784	7	Sololá	701	Sololá	2	El tablón	3	Marzo	2023-11-03T00:00:00	2024-11-06T11:00:00	8	Radiación solar	542
141785	7	Sololá	701	Sololá	2	El tablón	3	Marzo	2023-11-03T00:00:00	2024-11-06T12:00:00	2	Temperatura media	14.7
141786	7	Sololá	701	Sololá	2	El tablón	3	Marzo	2023-11-03T00:00:00	2024-11-06T12:00:00	4	Temperatura máxima	15.6
141787	7	Sololá	701	Sololá	2	El tablón	3	Marzo	2023-11-03T00:00:00	2024-11-06T12:00:00	3	Temperatura mínima	14.7
141788	7	Sololá	701	Sololá	2	El tablón	3	Marzo	2023-11-03T00:00:00	2024-11-06T12:00:00	5	Humedad	85
141789	7	Sololá	701	Sololá	2	El tablón	3	Marzo	2023-11-03T00:00:00	2024-11-06T12:00:00	6	Velocidad del viento	9.7
141790	7	Sololá	701	Sololá	2	El tablón	3	Marzo	2023-11-03T00:00:00	2024-11-06T12:00:00	7	Dirección del viento	9.66
141791	7	Sololá	701	Sololá	2	El tablón	3	Marzo	2023-11-03T00:00:00	2024-11-06T12:00:00	1	Precipitación	0
141792	7	Sololá	701	Sololá	2	El tablón	3	Marzo	2023-11-03T00:00:00	2024-11-06T12:00:00	8	Radiación solar	493
141793	7	Sololá	701	Sololá	2	El tablón	3	Marzo	2023-11-03T00:00:00	2024-11-06T13:00:00	2	Temperatura media	13.7
141794	7	Sololá	701	Sololá	2	El tablón	3	Marzo	2023-11-03T00:00:00	2024-11-06T13:00:00	4	Temperatura máxima	14.7
141795	7	Sololá	701	Sololá	2	El tablón	3	Marzo	2023-11-03T00:00:00	2024-11-06T13:00:00	3	Temperatura mínima	13.5
141796	7	Sololá	701	Sololá	2	El tablón	3	Marzo	2023-11-03T00:00:00	2024-11-06T13:00:00	5	Humedad	89
141797	7	Sololá	701	Sololá	2	El tablón	3	Marzo	2023-11-03T00:00:00	2024-11-06T13:00:00	6	Velocidad del viento	8
141798	7	Sololá	701	Sololá	2	El tablón	3	Marzo	2023-11-03T00:00:00	2024-11-06T13:00:00	7	Dirección del viento	8.05
141799	7	Sololá	701	Sololá	2	El tablón	3	Marzo	2023-11-03T00:00:00	2024-11-06T13:00:00	1	Precipitación	0
141800	7	Sololá	701	Sololá	2	El tablón	3	Marzo	2023-11-03T00:00:00	2024-11-06T13:00:00	8	Radiación solar	319
141801	7	Sololá	701	Sololá	2	El tablón	3	Marzo	2023-11-03T00:00:00	2024-11-06T14:00:00	2	Temperatura media	14.2
141802	7	Sololá	701	Sololá	2	El tablón	3	Marzo	2023-11-03T00:00:00	2024-11-06T14:00:00	4	Temperatura máxima	15.1
141803	7	Sololá	701	Sololá	2	El tablón	3	Marzo	2023-11-03T00:00:00	2024-11-06T14:00:00	3	Temperatura mínima	13.7
141804	7	Sololá	701	Sololá	2	El tablón	3	Marzo	2023-11-03T00:00:00	2024-11-06T14:00:00	5	Humedad	87
141805	7	Sololá	701	Sololá	2	El tablón	3	Marzo	2023-11-03T00:00:00	2024-11-06T14:00:00	6	Velocidad del viento	8
141806	7	Sololá	701	Sololá	2	El tablón	3	Marzo	2023-11-03T00:00:00	2024-11-06T14:00:00	7	Dirección del viento	8.05
141807	7	Sololá	701	Sololá	2	El tablón	3	Marzo	2023-11-03T00:00:00	2024-11-06T14:00:00	1	Precipitación	0
141808	7	Sololá	701	Sololá	2	El tablón	3	Marzo	2023-11-03T00:00:00	2024-11-06T14:00:00	8	Radiación solar	379
141809	7	Sololá	701	Sololá	2	El tablón	3	Marzo	2023-11-03T00:00:00	2024-11-06T15:00:00	2	Temperatura media	13.8
141810	7	Sololá	701	Sololá	2	El tablón	3	Marzo	2023-11-03T00:00:00	2024-11-06T15:00:00	4	Temperatura máxima	14.7
141811	7	Sololá	701	Sololá	2	El tablón	3	Marzo	2023-11-03T00:00:00	2024-11-06T15:00:00	3	Temperatura mínima	13.8
141812	7	Sololá	701	Sololá	2	El tablón	3	Marzo	2023-11-03T00:00:00	2024-11-06T15:00:00	5	Humedad	89
141813	7	Sololá	701	Sololá	2	El tablón	3	Marzo	2023-11-03T00:00:00	2024-11-06T15:00:00	6	Velocidad del viento	8
141814	7	Sololá	701	Sololá	2	El tablón	3	Marzo	2023-11-03T00:00:00	2024-11-06T15:00:00	7	Dirección del viento	8.05
141815	7	Sololá	701	Sololá	2	El tablón	3	Marzo	2023-11-03T00:00:00	2024-11-06T15:00:00	1	Precipitación	0
141816	7	Sololá	701	Sololá	2	El tablón	3	Marzo	2023-11-03T00:00:00	2024-11-06T15:00:00	8	Radiación solar	287
141817	7	Sololá	701	Sololá	2	El tablón	3	Marzo	2023-11-03T00:00:00	2024-11-06T16:00:00	2	Temperatura media	13.8
141818	7	Sololá	701	Sololá	2	El tablón	3	Marzo	2023-11-03T00:00:00	2024-11-06T16:00:00	4	Temperatura máxima	13.9
141819	7	Sololá	701	Sololá	2	El tablón	3	Marzo	2023-11-03T00:00:00	2024-11-06T16:00:00	3	Temperatura mínima	13.7
141820	7	Sololá	701	Sololá	2	El tablón	3	Marzo	2023-11-03T00:00:00	2024-11-06T16:00:00	5	Humedad	89
141821	7	Sololá	701	Sololá	2	El tablón	3	Marzo	2023-11-03T00:00:00	2024-11-06T16:00:00	6	Velocidad del viento	6.4
141822	7	Sololá	701	Sololá	2	El tablón	3	Marzo	2023-11-03T00:00:00	2024-11-06T16:00:00	7	Dirección del viento	6.44
141823	7	Sololá	701	Sololá	2	El tablón	3	Marzo	2023-11-03T00:00:00	2024-11-06T16:00:00	1	Precipitación	0
141824	7	Sololá	701	Sololá	2	El tablón	3	Marzo	2023-11-03T00:00:00	2024-11-06T16:00:00	8	Radiación solar	173
141825	7	Sololá	701	Sololá	2	El tablón	3	Marzo	2023-11-03T00:00:00	2024-11-06T17:00:00	2	Temperatura media	14.1
141826	7	Sololá	701	Sololá	2	El tablón	3	Marzo	2023-11-03T00:00:00	2024-11-06T17:00:00	4	Temperatura máxima	14.2
141827	7	Sololá	701	Sololá	2	El tablón	3	Marzo	2023-11-03T00:00:00	2024-11-06T17:00:00	3	Temperatura mínima	13.4
141828	7	Sololá	701	Sololá	2	El tablón	3	Marzo	2023-11-03T00:00:00	2024-11-06T17:00:00	5	Humedad	88
141829	7	Sololá	701	Sololá	2	El tablón	3	Marzo	2023-11-03T00:00:00	2024-11-06T17:00:00	6	Velocidad del viento	4.8
141830	7	Sololá	701	Sololá	2	El tablón	3	Marzo	2023-11-03T00:00:00	2024-11-06T17:00:00	7	Dirección del viento	4.83
141831	7	Sololá	701	Sololá	2	El tablón	3	Marzo	2023-11-03T00:00:00	2024-11-06T17:00:00	1	Precipitación	0
141832	7	Sololá	701	Sololá	2	El tablón	3	Marzo	2023-11-03T00:00:00	2024-11-06T17:00:00	8	Radiación solar	137
141833	7	Sololá	701	Sololá	2	El tablón	3	Marzo	2023-11-03T00:00:00	2024-11-06T18:00:00	2	Temperatura media	13.5
141834	7	Sololá	701	Sololá	2	El tablón	3	Marzo	2023-11-03T00:00:00	2024-11-06T18:00:00	4	Temperatura máxima	14.1
141835	7	Sololá	701	Sololá	2	El tablón	3	Marzo	2023-11-03T00:00:00	2024-11-06T18:00:00	3	Temperatura mínima	13.5
141836	7	Sololá	701	Sololá	2	El tablón	3	Marzo	2023-11-03T00:00:00	2024-11-06T18:00:00	5	Humedad	89
141837	7	Sololá	701	Sololá	2	El tablón	3	Marzo	2023-11-03T00:00:00	2024-11-06T18:00:00	6	Velocidad del viento	3.2
141838	7	Sololá	701	Sololá	2	El tablón	3	Marzo	2023-11-03T00:00:00	2024-11-06T18:00:00	7	Dirección del viento	3.22
141839	7	Sololá	701	Sololá	2	El tablón	3	Marzo	2023-11-03T00:00:00	2024-11-06T18:00:00	1	Precipitación	0
141840	7	Sololá	701	Sololá	2	El tablón	3	Marzo	2023-11-03T00:00:00	2024-11-06T18:00:00	8	Radiación solar	45
141841	7	Sololá	701	Sololá	2	El tablón	3	Marzo	2023-11-03T00:00:00	2024-11-06T19:00:00	2	Temperatura media	13
141842	7	Sololá	701	Sololá	2	El tablón	3	Marzo	2023-11-03T00:00:00	2024-11-06T19:00:00	4	Temperatura máxima	13.5
141843	7	Sololá	701	Sololá	2	El tablón	3	Marzo	2023-11-03T00:00:00	2024-11-06T19:00:00	3	Temperatura mínima	13
141844	7	Sololá	701	Sololá	2	El tablón	3	Marzo	2023-11-03T00:00:00	2024-11-06T19:00:00	5	Humedad	90
141845	7	Sololá	701	Sololá	2	El tablón	3	Marzo	2023-11-03T00:00:00	2024-11-06T19:00:00	6	Velocidad del viento	1.6
141846	7	Sololá	701	Sololá	2	El tablón	3	Marzo	2023-11-03T00:00:00	2024-11-06T19:00:00	7	Dirección del viento	1.61
141847	7	Sololá	701	Sololá	2	El tablón	3	Marzo	2023-11-03T00:00:00	2024-11-06T19:00:00	1	Precipitación	0
141848	7	Sololá	701	Sololá	2	El tablón	3	Marzo	2023-11-03T00:00:00	2024-11-06T19:00:00	8	Radiación solar	0
141849	7	Sololá	701	Sololá	2	El tablón	3	Marzo	2023-11-03T00:00:00	2024-11-06T20:00:00	2	Temperatura media	12.6
141850	7	Sololá	701	Sololá	2	El tablón	3	Marzo	2023-11-03T00:00:00	2024-11-06T20:00:00	4	Temperatura máxima	13
141851	7	Sololá	701	Sololá	2	El tablón	3	Marzo	2023-11-03T00:00:00	2024-11-06T20:00:00	3	Temperatura mínima	12.6
141852	7	Sololá	701	Sololá	2	El tablón	3	Marzo	2023-11-03T00:00:00	2024-11-06T20:00:00	5	Humedad	90
141853	7	Sololá	701	Sololá	2	El tablón	3	Marzo	2023-11-03T00:00:00	2024-11-06T20:00:00	6	Velocidad del viento	0
141854	7	Sololá	701	Sololá	2	El tablón	3	Marzo	2023-11-03T00:00:00	2024-11-06T20:00:00	7	Dirección del viento	0
141855	7	Sololá	701	Sololá	2	El tablón	3	Marzo	2023-11-03T00:00:00	2024-11-06T20:00:00	1	Precipitación	0
141856	7	Sololá	701	Sololá	2	El tablón	3	Marzo	2023-11-03T00:00:00	2024-11-06T20:00:00	8	Radiación solar	0
141857	7	Sololá	701	Sololá	2	El tablón	3	Marzo	2023-11-03T00:00:00	2024-11-06T21:00:00	2	Temperatura media	12.6
141858	7	Sololá	701	Sololá	2	El tablón	3	Marzo	2023-11-03T00:00:00	2024-11-06T21:00:00	4	Temperatura máxima	12.8
141859	7	Sololá	701	Sololá	2	El tablón	3	Marzo	2023-11-03T00:00:00	2024-11-06T21:00:00	3	Temperatura mínima	12.6
141860	7	Sololá	701	Sololá	2	El tablón	3	Marzo	2023-11-03T00:00:00	2024-11-06T21:00:00	5	Humedad	90
141861	7	Sololá	701	Sololá	2	El tablón	3	Marzo	2023-11-03T00:00:00	2024-11-06T21:00:00	6	Velocidad del viento	1.6
141862	7	Sololá	701	Sololá	2	El tablón	3	Marzo	2023-11-03T00:00:00	2024-11-06T21:00:00	7	Dirección del viento	1.61
141863	7	Sololá	701	Sololá	2	El tablón	3	Marzo	2023-11-03T00:00:00	2024-11-06T21:00:00	1	Precipitación	0
141864	7	Sololá	701	Sololá	2	El tablón	3	Marzo	2023-11-03T00:00:00	2024-11-06T21:00:00	8	Radiación solar	0
141865	7	Sololá	701	Sololá	2	El tablón	3	Marzo	2023-11-03T00:00:00	2024-11-06T22:00:00	2	Temperatura media	12.3
141866	7	Sololá	701	Sololá	2	El tablón	3	Marzo	2023-11-03T00:00:00	2024-11-06T22:00:00	4	Temperatura máxima	12.8
141867	7	Sololá	701	Sololá	2	El tablón	3	Marzo	2023-11-03T00:00:00	2024-11-06T22:00:00	3	Temperatura mínima	12.3
141868	7	Sololá	701	Sololá	2	El tablón	3	Marzo	2023-11-03T00:00:00	2024-11-06T22:00:00	5	Humedad	90
141869	7	Sololá	701	Sololá	2	El tablón	3	Marzo	2023-11-03T00:00:00	2024-11-06T22:00:00	6	Velocidad del viento	1.6
141870	7	Sololá	701	Sololá	2	El tablón	3	Marzo	2023-11-03T00:00:00	2024-11-06T22:00:00	7	Dirección del viento	1.61
141871	7	Sololá	701	Sololá	2	El tablón	3	Marzo	2023-11-03T00:00:00	2024-11-06T22:00:00	1	Precipitación	0
141872	7	Sololá	701	Sololá	2	El tablón	3	Marzo	2023-11-03T00:00:00	2024-11-06T22:00:00	8	Radiación solar	0
141873	7	Sololá	701	Sololá	2	El tablón	3	Marzo	2023-11-03T00:00:00	2024-11-06T23:00:00	2	Temperatura media	12.1
141874	7	Sololá	701	Sololá	2	El tablón	3	Marzo	2023-11-03T00:00:00	2024-11-06T23:00:00	4	Temperatura máxima	12.3
141875	7	Sololá	701	Sololá	2	El tablón	3	Marzo	2023-11-03T00:00:00	2024-11-06T23:00:00	3	Temperatura mínima	12.1
141876	7	Sololá	701	Sololá	2	El tablón	3	Marzo	2023-11-03T00:00:00	2024-11-06T23:00:00	5	Humedad	89
141877	7	Sololá	701	Sololá	2	El tablón	3	Marzo	2023-11-03T00:00:00	2024-11-06T23:00:00	6	Velocidad del viento	1.6
141878	7	Sololá	701	Sololá	2	El tablón	3	Marzo	2023-11-03T00:00:00	2024-11-06T23:00:00	7	Dirección del viento	1.61
141879	7	Sololá	701	Sololá	2	El tablón	3	Marzo	2023-11-03T00:00:00	2024-11-06T23:00:00	1	Precipitación	0.4
141880	7	Sololá	701	Sololá	2	El tablón	3	Marzo	2023-11-03T00:00:00	2024-11-06T23:00:00	8	Radiación solar	0
141881	7	Sololá	701	Sololá	2	El tablón	3	Marzo	2023-12-03T00:00:00	2024-11-06T00:00:00	2	Temperatura media	11.9
141882	7	Sololá	701	Sololá	2	El tablón	3	Marzo	2023-12-03T00:00:00	2024-11-06T00:00:00	4	Temperatura máxima	12.1
141883	7	Sololá	701	Sololá	2	El tablón	3	Marzo	2023-12-03T00:00:00	2024-11-06T00:00:00	3	Temperatura mínima	11.8
141884	7	Sololá	701	Sololá	2	El tablón	3	Marzo	2023-12-03T00:00:00	2024-11-06T00:00:00	5	Humedad	89
141885	7	Sololá	701	Sololá	2	El tablón	3	Marzo	2023-12-03T00:00:00	2024-11-06T00:00:00	6	Velocidad del viento	0
141886	7	Sololá	701	Sololá	2	El tablón	3	Marzo	2023-12-03T00:00:00	2024-11-06T00:00:00	7	Dirección del viento	0
141887	7	Sololá	701	Sololá	2	El tablón	3	Marzo	2023-12-03T00:00:00	2024-11-06T00:00:00	1	Precipitación	0
141888	7	Sololá	701	Sololá	2	El tablón	3	Marzo	2023-12-03T00:00:00	2024-11-06T00:00:00	8	Radiación solar	0
141889	7	Sololá	701	Sololá	2	El tablón	3	Marzo	2023-12-03T00:00:00	2024-11-06T01:00:00	2	Temperatura media	11.7
141890	7	Sololá	701	Sololá	2	El tablón	3	Marzo	2023-12-03T00:00:00	2024-11-06T01:00:00	4	Temperatura máxima	11.9
141891	7	Sololá	701	Sololá	2	El tablón	3	Marzo	2023-12-03T00:00:00	2024-11-06T01:00:00	3	Temperatura mínima	11.6
141892	7	Sololá	701	Sololá	2	El tablón	3	Marzo	2023-12-03T00:00:00	2024-11-06T01:00:00	5	Humedad	89
141893	7	Sololá	701	Sololá	2	El tablón	3	Marzo	2023-12-03T00:00:00	2024-11-06T01:00:00	6	Velocidad del viento	0
141894	7	Sololá	701	Sololá	2	El tablón	3	Marzo	2023-12-03T00:00:00	2024-11-06T01:00:00	7	Dirección del viento	0
141895	7	Sololá	701	Sololá	2	El tablón	3	Marzo	2023-12-03T00:00:00	2024-11-06T01:00:00	1	Precipitación	0
141896	7	Sololá	701	Sololá	2	El tablón	3	Marzo	2023-12-03T00:00:00	2024-11-06T01:00:00	8	Radiación solar	0
141897	7	Sololá	701	Sololá	2	El tablón	3	Marzo	2023-12-03T00:00:00	2024-11-06T02:00:00	2	Temperatura media	11.6
141898	7	Sololá	701	Sololá	2	El tablón	3	Marzo	2023-12-03T00:00:00	2024-11-06T02:00:00	4	Temperatura máxima	11.7
141899	7	Sololá	701	Sololá	2	El tablón	3	Marzo	2023-12-03T00:00:00	2024-11-06T02:00:00	3	Temperatura mínima	11.5
141900	7	Sololá	701	Sololá	2	El tablón	3	Marzo	2023-12-03T00:00:00	2024-11-06T02:00:00	5	Humedad	88
141901	7	Sololá	701	Sololá	2	El tablón	3	Marzo	2023-12-03T00:00:00	2024-11-06T02:00:00	6	Velocidad del viento	1.6
141902	7	Sololá	701	Sololá	2	El tablón	3	Marzo	2023-12-03T00:00:00	2024-11-06T02:00:00	7	Dirección del viento	1.61
141903	7	Sololá	701	Sololá	2	El tablón	3	Marzo	2023-12-03T00:00:00	2024-11-06T02:00:00	1	Precipitación	0
141904	7	Sololá	701	Sololá	2	El tablón	3	Marzo	2023-12-03T00:00:00	2024-11-06T02:00:00	8	Radiación solar	0
141905	7	Sololá	701	Sololá	2	El tablón	3	Marzo	2023-12-03T00:00:00	2024-11-06T03:00:00	2	Temperatura media	11.4
141906	7	Sololá	701	Sololá	2	El tablón	3	Marzo	2023-12-03T00:00:00	2024-11-06T03:00:00	4	Temperatura máxima	11.6
141907	7	Sololá	701	Sololá	2	El tablón	3	Marzo	2023-12-03T00:00:00	2024-11-06T03:00:00	3	Temperatura mínima	11.4
141908	7	Sololá	701	Sololá	2	El tablón	3	Marzo	2023-12-03T00:00:00	2024-11-06T03:00:00	5	Humedad	88
141909	7	Sololá	701	Sololá	2	El tablón	3	Marzo	2023-12-03T00:00:00	2024-11-06T03:00:00	6	Velocidad del viento	0
141910	7	Sololá	701	Sololá	2	El tablón	3	Marzo	2023-12-03T00:00:00	2024-11-06T03:00:00	7	Dirección del viento	0
141911	7	Sololá	701	Sololá	2	El tablón	3	Marzo	2023-12-03T00:00:00	2024-11-06T03:00:00	1	Precipitación	0
141912	7	Sololá	701	Sololá	2	El tablón	3	Marzo	2023-12-03T00:00:00	2024-11-06T03:00:00	8	Radiación solar	0
141913	7	Sololá	701	Sololá	2	El tablón	3	Marzo	2023-12-03T00:00:00	2024-11-06T04:00:00	2	Temperatura media	11.4
141914	7	Sololá	701	Sololá	2	El tablón	3	Marzo	2023-12-03T00:00:00	2024-11-06T04:00:00	4	Temperatura máxima	11.4
141915	7	Sololá	701	Sololá	2	El tablón	3	Marzo	2023-12-03T00:00:00	2024-11-06T04:00:00	3	Temperatura mínima	11.4
141916	7	Sololá	701	Sololá	2	El tablón	3	Marzo	2023-12-03T00:00:00	2024-11-06T04:00:00	5	Humedad	88
141917	7	Sololá	701	Sololá	2	El tablón	3	Marzo	2023-12-03T00:00:00	2024-11-06T04:00:00	6	Velocidad del viento	0
141918	7	Sololá	701	Sololá	2	El tablón	3	Marzo	2023-12-03T00:00:00	2024-11-06T04:00:00	7	Dirección del viento	0
141919	7	Sololá	701	Sololá	2	El tablón	3	Marzo	2023-12-03T00:00:00	2024-11-06T04:00:00	1	Precipitación	0
141920	7	Sololá	701	Sololá	2	El tablón	3	Marzo	2023-12-03T00:00:00	2024-11-06T04:00:00	8	Radiación solar	0
141921	7	Sololá	701	Sololá	2	El tablón	3	Marzo	2023-12-03T00:00:00	2024-11-06T05:00:00	2	Temperatura media	11.3
141922	7	Sololá	701	Sololá	2	El tablón	3	Marzo	2023-12-03T00:00:00	2024-11-06T05:00:00	4	Temperatura máxima	11.5
141923	7	Sololá	701	Sololá	2	El tablón	3	Marzo	2023-12-03T00:00:00	2024-11-06T05:00:00	3	Temperatura mínima	11.3
141924	7	Sololá	701	Sololá	2	El tablón	3	Marzo	2023-12-03T00:00:00	2024-11-06T05:00:00	5	Humedad	88
141925	7	Sololá	701	Sololá	2	El tablón	3	Marzo	2023-12-03T00:00:00	2024-11-06T05:00:00	6	Velocidad del viento	1.6
141926	7	Sololá	701	Sololá	2	El tablón	3	Marzo	2023-12-03T00:00:00	2024-11-06T05:00:00	7	Dirección del viento	1.61
141927	7	Sololá	701	Sololá	2	El tablón	3	Marzo	2023-12-03T00:00:00	2024-11-06T05:00:00	1	Precipitación	0
141928	7	Sololá	701	Sololá	2	El tablón	3	Marzo	2023-12-03T00:00:00	2024-11-06T05:00:00	8	Radiación solar	0
141929	7	Sololá	701	Sololá	2	El tablón	3	Marzo	2023-12-03T00:00:00	2024-11-06T06:00:00	2	Temperatura media	11.3
141930	7	Sololá	701	Sololá	2	El tablón	3	Marzo	2023-12-03T00:00:00	2024-11-06T06:00:00	4	Temperatura máxima	11.4
141931	7	Sololá	701	Sololá	2	El tablón	3	Marzo	2023-12-03T00:00:00	2024-11-06T06:00:00	3	Temperatura mínima	11.3
141932	7	Sololá	701	Sololá	2	El tablón	3	Marzo	2023-12-03T00:00:00	2024-11-06T06:00:00	5	Humedad	88
141933	7	Sololá	701	Sololá	2	El tablón	3	Marzo	2023-12-03T00:00:00	2024-11-06T06:00:00	6	Velocidad del viento	1.6
141934	7	Sololá	701	Sololá	2	El tablón	3	Marzo	2023-12-03T00:00:00	2024-11-06T06:00:00	7	Dirección del viento	1.61
141935	7	Sololá	701	Sololá	2	El tablón	3	Marzo	2023-12-03T00:00:00	2024-11-06T06:00:00	1	Precipitación	0.4
141936	7	Sololá	701	Sololá	2	El tablón	3	Marzo	2023-12-03T00:00:00	2024-11-06T06:00:00	8	Radiación solar	0
141937	7	Sololá	701	Sololá	2	El tablón	3	Marzo	2023-12-03T00:00:00	2024-11-06T07:00:00	2	Temperatura media	11.2
141938	7	Sololá	701	Sololá	2	El tablón	3	Marzo	2023-12-03T00:00:00	2024-11-06T07:00:00	4	Temperatura máxima	11.3
141939	7	Sololá	701	Sololá	2	El tablón	3	Marzo	2023-12-03T00:00:00	2024-11-06T07:00:00	3	Temperatura mínima	11.2
141940	7	Sololá	701	Sololá	2	El tablón	3	Marzo	2023-12-03T00:00:00	2024-11-06T07:00:00	5	Humedad	87
141941	7	Sololá	701	Sololá	2	El tablón	3	Marzo	2023-12-03T00:00:00	2024-11-06T07:00:00	6	Velocidad del viento	3.2
141942	7	Sololá	701	Sololá	2	El tablón	3	Marzo	2023-12-03T00:00:00	2024-11-06T07:00:00	7	Dirección del viento	3.22
141943	7	Sololá	701	Sololá	2	El tablón	3	Marzo	2023-12-03T00:00:00	2024-11-06T07:00:00	1	Precipitación	1
141944	7	Sololá	701	Sololá	2	El tablón	3	Marzo	2023-12-03T00:00:00	2024-11-06T07:00:00	8	Radiación solar	2
141945	7	Sololá	701	Sololá	2	El tablón	3	Marzo	2023-12-03T00:00:00	2024-11-06T08:00:00	2	Temperatura media	11.2
141946	7	Sololá	701	Sololá	2	El tablón	3	Marzo	2023-12-03T00:00:00	2024-11-06T08:00:00	4	Temperatura máxima	11.3
141947	7	Sololá	701	Sololá	2	El tablón	3	Marzo	2023-12-03T00:00:00	2024-11-06T08:00:00	3	Temperatura mínima	11.1
141948	7	Sololá	701	Sololá	2	El tablón	3	Marzo	2023-12-03T00:00:00	2024-11-06T08:00:00	5	Humedad	87
141949	7	Sololá	701	Sololá	2	El tablón	3	Marzo	2023-12-03T00:00:00	2024-11-06T08:00:00	6	Velocidad del viento	1.6
141950	7	Sololá	701	Sololá	2	El tablón	3	Marzo	2023-12-03T00:00:00	2024-11-06T08:00:00	7	Dirección del viento	1.61
141951	7	Sololá	701	Sololá	2	El tablón	3	Marzo	2023-12-03T00:00:00	2024-11-06T08:00:00	1	Precipitación	0
141952	7	Sololá	701	Sololá	2	El tablón	3	Marzo	2023-12-03T00:00:00	2024-11-06T08:00:00	8	Radiación solar	19
141953	7	Sololá	701	Sololá	2	El tablón	3	Marzo	2023-12-03T00:00:00	2024-11-06T09:00:00	2	Temperatura media	11.3
141954	7	Sololá	701	Sololá	2	El tablón	3	Marzo	2023-12-03T00:00:00	2024-11-06T09:00:00	4	Temperatura máxima	11.3
141955	7	Sololá	701	Sololá	2	El tablón	3	Marzo	2023-12-03T00:00:00	2024-11-06T09:00:00	3	Temperatura mínima	11.1
141956	7	Sololá	701	Sololá	2	El tablón	3	Marzo	2023-12-03T00:00:00	2024-11-06T09:00:00	5	Humedad	87
141957	7	Sololá	701	Sololá	2	El tablón	3	Marzo	2023-12-03T00:00:00	2024-11-06T09:00:00	6	Velocidad del viento	1.6
141958	7	Sololá	701	Sololá	2	El tablón	3	Marzo	2023-12-03T00:00:00	2024-11-06T09:00:00	7	Dirección del viento	1.61
141959	7	Sololá	701	Sololá	2	El tablón	3	Marzo	2023-12-03T00:00:00	2024-11-06T09:00:00	1	Precipitación	0
141960	7	Sololá	701	Sololá	2	El tablón	3	Marzo	2023-12-03T00:00:00	2024-11-06T09:00:00	8	Radiación solar	72
141961	7	Sololá	701	Sololá	2	El tablón	3	Marzo	2023-12-03T00:00:00	2024-11-06T10:00:00	2	Temperatura media	12.2
141962	7	Sololá	701	Sololá	2	El tablón	3	Marzo	2023-12-03T00:00:00	2024-11-06T10:00:00	4	Temperatura máxima	12.2
141963	7	Sololá	701	Sololá	2	El tablón	3	Marzo	2023-12-03T00:00:00	2024-11-06T10:00:00	3	Temperatura mínima	11.2
141964	7	Sololá	701	Sololá	2	El tablón	3	Marzo	2023-12-03T00:00:00	2024-11-06T10:00:00	5	Humedad	86
141965	7	Sololá	701	Sololá	2	El tablón	3	Marzo	2023-12-03T00:00:00	2024-11-06T10:00:00	6	Velocidad del viento	3.2
141966	7	Sololá	701	Sololá	2	El tablón	3	Marzo	2023-12-03T00:00:00	2024-11-06T10:00:00	7	Dirección del viento	3.22
141967	7	Sololá	701	Sololá	2	El tablón	3	Marzo	2023-12-03T00:00:00	2024-11-06T10:00:00	1	Precipitación	0
141968	7	Sololá	701	Sololá	2	El tablón	3	Marzo	2023-12-03T00:00:00	2024-11-06T10:00:00	8	Radiación solar	187
141969	7	Sololá	701	Sololá	2	El tablón	3	Marzo	2023-12-03T00:00:00	2024-11-06T11:00:00	2	Temperatura media	12.9
141970	7	Sololá	701	Sololá	2	El tablón	3	Marzo	2023-12-03T00:00:00	2024-11-06T11:00:00	4	Temperatura máxima	12.9
141971	7	Sololá	701	Sololá	2	El tablón	3	Marzo	2023-12-03T00:00:00	2024-11-06T11:00:00	3	Temperatura mínima	12.1
141972	7	Sololá	701	Sololá	2	El tablón	3	Marzo	2023-12-03T00:00:00	2024-11-06T11:00:00	5	Humedad	88
141973	7	Sololá	701	Sololá	2	El tablón	3	Marzo	2023-12-03T00:00:00	2024-11-06T11:00:00	6	Velocidad del viento	6.4
141974	7	Sololá	701	Sololá	2	El tablón	3	Marzo	2023-12-03T00:00:00	2024-11-06T11:00:00	7	Dirección del viento	6.44
141975	7	Sololá	701	Sololá	2	El tablón	3	Marzo	2023-12-03T00:00:00	2024-11-06T11:00:00	1	Precipitación	0
141976	7	Sololá	701	Sololá	2	El tablón	3	Marzo	2023-12-03T00:00:00	2024-11-06T11:00:00	8	Radiación solar	330
141977	7	Sololá	701	Sololá	2	El tablón	3	Marzo	2023-12-03T00:00:00	2024-11-06T12:00:00	2	Temperatura media	12.5
141978	7	Sololá	701	Sololá	2	El tablón	3	Marzo	2023-12-03T00:00:00	2024-11-06T12:00:00	4	Temperatura máxima	13.2
141979	7	Sololá	701	Sololá	2	El tablón	3	Marzo	2023-12-03T00:00:00	2024-11-06T12:00:00	3	Temperatura mínima	12.4
141980	7	Sololá	701	Sololá	2	El tablón	3	Marzo	2023-12-03T00:00:00	2024-11-06T12:00:00	5	Humedad	90
141981	7	Sololá	701	Sololá	2	El tablón	3	Marzo	2023-12-03T00:00:00	2024-11-06T12:00:00	6	Velocidad del viento	6.4
141982	7	Sololá	701	Sololá	2	El tablón	3	Marzo	2023-12-03T00:00:00	2024-11-06T12:00:00	7	Dirección del viento	6.44
141983	7	Sololá	701	Sololá	2	El tablón	3	Marzo	2023-12-03T00:00:00	2024-11-06T12:00:00	1	Precipitación	0
141984	7	Sololá	701	Sololá	2	El tablón	3	Marzo	2023-12-03T00:00:00	2024-11-06T12:00:00	8	Radiación solar	129
141985	7	Sololá	701	Sololá	2	El tablón	3	Marzo	2023-12-03T00:00:00	2024-11-06T13:00:00	2	Temperatura media	12.3
141986	7	Sololá	701	Sololá	2	El tablón	3	Marzo	2023-12-03T00:00:00	2024-11-06T13:00:00	4	Temperatura máxima	12.6
141987	7	Sololá	701	Sololá	2	El tablón	3	Marzo	2023-12-03T00:00:00	2024-11-06T13:00:00	3	Temperatura mínima	12.2
141988	7	Sololá	701	Sololá	2	El tablón	3	Marzo	2023-12-03T00:00:00	2024-11-06T13:00:00	5	Humedad	90
141989	7	Sololá	701	Sololá	2	El tablón	3	Marzo	2023-12-03T00:00:00	2024-11-06T13:00:00	6	Velocidad del viento	4.8
141990	7	Sololá	701	Sololá	2	El tablón	3	Marzo	2023-12-03T00:00:00	2024-11-06T13:00:00	7	Dirección del viento	4.83
141991	7	Sololá	701	Sololá	2	El tablón	3	Marzo	2023-12-03T00:00:00	2024-11-06T13:00:00	1	Precipitación	0
141992	7	Sololá	701	Sololá	2	El tablón	3	Marzo	2023-12-03T00:00:00	2024-11-06T13:00:00	8	Radiación solar	57
141993	7	Sololá	701	Sololá	2	El tablón	3	Marzo	2023-12-03T00:00:00	2024-11-06T14:00:00	2	Temperatura media	12.5
141994	7	Sololá	701	Sololá	2	El tablón	3	Marzo	2023-12-03T00:00:00	2024-11-06T14:00:00	4	Temperatura máxima	12.5
141995	7	Sololá	701	Sololá	2	El tablón	3	Marzo	2023-12-03T00:00:00	2024-11-06T14:00:00	3	Temperatura mínima	12.3
141996	7	Sololá	701	Sololá	2	El tablón	3	Marzo	2023-12-03T00:00:00	2024-11-06T14:00:00	5	Humedad	89
141997	7	Sololá	701	Sololá	2	El tablón	3	Marzo	2023-12-03T00:00:00	2024-11-06T14:00:00	6	Velocidad del viento	3.2
141998	7	Sololá	701	Sololá	2	El tablón	3	Marzo	2023-12-03T00:00:00	2024-11-06T14:00:00	7	Dirección del viento	3.22
141999	7	Sololá	701	Sololá	2	El tablón	3	Marzo	2023-12-03T00:00:00	2024-11-06T14:00:00	1	Precipitación	0
142000	7	Sololá	701	Sololá	2	El tablón	3	Marzo	2023-12-03T00:00:00	2024-11-06T14:00:00	8	Radiación solar	66
142001	7	Sololá	701	Sololá	2	El tablón	3	Marzo	2023-12-03T00:00:00	2024-11-06T15:00:00	2	Temperatura media	12.9
142002	7	Sololá	701	Sololá	2	El tablón	3	Marzo	2023-12-03T00:00:00	2024-11-06T15:00:00	4	Temperatura máxima	13.1
142003	7	Sololá	701	Sololá	2	El tablón	3	Marzo	2023-12-03T00:00:00	2024-11-06T15:00:00	3	Temperatura mínima	12.5
142004	7	Sololá	701	Sololá	2	El tablón	3	Marzo	2023-12-03T00:00:00	2024-11-06T15:00:00	5	Humedad	90
142005	7	Sololá	701	Sololá	2	El tablón	3	Marzo	2023-12-03T00:00:00	2024-11-06T15:00:00	6	Velocidad del viento	3.2
142006	7	Sololá	701	Sololá	2	El tablón	3	Marzo	2023-12-03T00:00:00	2024-11-06T15:00:00	7	Dirección del viento	3.22
142007	7	Sololá	701	Sololá	2	El tablón	3	Marzo	2023-12-03T00:00:00	2024-11-06T15:00:00	1	Precipitación	0
142008	7	Sololá	701	Sololá	2	El tablón	3	Marzo	2023-12-03T00:00:00	2024-11-06T15:00:00	8	Radiación solar	121
142009	7	Sololá	701	Sololá	2	El tablón	3	Marzo	2023-12-03T00:00:00	2024-11-06T16:00:00	2	Temperatura media	12.5
142010	7	Sololá	701	Sololá	2	El tablón	3	Marzo	2023-12-03T00:00:00	2024-11-06T16:00:00	4	Temperatura máxima	12.9
142011	7	Sololá	701	Sololá	2	El tablón	3	Marzo	2023-12-03T00:00:00	2024-11-06T16:00:00	3	Temperatura mínima	12.5
142012	7	Sololá	701	Sololá	2	El tablón	3	Marzo	2023-12-03T00:00:00	2024-11-06T16:00:00	5	Humedad	89
142013	7	Sololá	701	Sololá	2	El tablón	3	Marzo	2023-12-03T00:00:00	2024-11-06T16:00:00	6	Velocidad del viento	3.2
142014	7	Sololá	701	Sololá	2	El tablón	3	Marzo	2023-12-03T00:00:00	2024-11-06T16:00:00	7	Dirección del viento	3.22
142015	7	Sololá	701	Sololá	2	El tablón	3	Marzo	2023-12-03T00:00:00	2024-11-06T16:00:00	1	Precipitación	0
142016	7	Sololá	701	Sololá	2	El tablón	3	Marzo	2023-12-03T00:00:00	2024-11-06T16:00:00	8	Radiación solar	30
142017	7	Sololá	701	Sololá	2	El tablón	3	Marzo	2023-12-03T00:00:00	2024-11-06T17:00:00	2	Temperatura media	12.2
142018	7	Sololá	701	Sololá	2	El tablón	3	Marzo	2023-12-03T00:00:00	2024-11-06T17:00:00	4	Temperatura máxima	12.6
142019	7	Sololá	701	Sololá	2	El tablón	3	Marzo	2023-12-03T00:00:00	2024-11-06T17:00:00	3	Temperatura mínima	12.2
142020	7	Sololá	701	Sololá	2	El tablón	3	Marzo	2023-12-03T00:00:00	2024-11-06T17:00:00	5	Humedad	88
142021	7	Sololá	701	Sololá	2	El tablón	3	Marzo	2023-12-03T00:00:00	2024-11-06T17:00:00	6	Velocidad del viento	1.6
142022	7	Sololá	701	Sololá	2	El tablón	3	Marzo	2023-12-03T00:00:00	2024-11-06T17:00:00	7	Dirección del viento	1.61
142023	7	Sololá	701	Sololá	2	El tablón	3	Marzo	2023-12-03T00:00:00	2024-11-06T17:00:00	1	Precipitación	0.8
142024	7	Sololá	701	Sololá	2	El tablón	3	Marzo	2023-12-03T00:00:00	2024-11-06T17:00:00	8	Radiación solar	5
142025	7	Sololá	701	Sololá	2	El tablón	3	Marzo	2023-12-03T00:00:00	2024-11-06T18:00:00	2	Temperatura media	12.4
142026	7	Sololá	701	Sololá	2	El tablón	3	Marzo	2023-12-03T00:00:00	2024-11-06T18:00:00	4	Temperatura máxima	12.5
142027	7	Sololá	701	Sololá	2	El tablón	3	Marzo	2023-12-03T00:00:00	2024-11-06T18:00:00	3	Temperatura mínima	12.2
142028	7	Sololá	701	Sololá	2	El tablón	3	Marzo	2023-12-03T00:00:00	2024-11-06T18:00:00	5	Humedad	88
142029	7	Sololá	701	Sololá	2	El tablón	3	Marzo	2023-12-03T00:00:00	2024-11-06T18:00:00	6	Velocidad del viento	0
142030	7	Sololá	701	Sololá	2	El tablón	3	Marzo	2023-12-03T00:00:00	2024-11-06T18:00:00	7	Dirección del viento	0
142031	7	Sololá	701	Sololá	2	El tablón	3	Marzo	2023-12-03T00:00:00	2024-11-06T18:00:00	1	Precipitación	0
142032	7	Sololá	701	Sololá	2	El tablón	3	Marzo	2023-12-03T00:00:00	2024-11-06T18:00:00	8	Radiación solar	29
142033	7	Sololá	701	Sololá	2	El tablón	3	Marzo	2023-12-03T00:00:00	2024-11-06T19:00:00	2	Temperatura media	12.4
142034	7	Sololá	701	Sololá	2	El tablón	3	Marzo	2023-12-03T00:00:00	2024-11-06T19:00:00	4	Temperatura máxima	12.5
142035	7	Sololá	701	Sololá	2	El tablón	3	Marzo	2023-12-03T00:00:00	2024-11-06T19:00:00	3	Temperatura mínima	12.4
142036	7	Sololá	701	Sololá	2	El tablón	3	Marzo	2023-12-03T00:00:00	2024-11-06T19:00:00	5	Humedad	89
142037	7	Sololá	701	Sololá	2	El tablón	3	Marzo	2023-12-03T00:00:00	2024-11-06T19:00:00	6	Velocidad del viento	0
142038	7	Sololá	701	Sololá	2	El tablón	3	Marzo	2023-12-03T00:00:00	2024-11-06T19:00:00	7	Dirección del viento	0
142039	7	Sololá	701	Sololá	2	El tablón	3	Marzo	2023-12-03T00:00:00	2024-11-06T19:00:00	1	Precipitación	0
142040	7	Sololá	701	Sololá	2	El tablón	3	Marzo	2023-12-03T00:00:00	2024-11-06T19:00:00	8	Radiación solar	0
142041	7	Sololá	701	Sololá	2	El tablón	3	Marzo	2023-12-03T00:00:00	2024-11-06T20:00:00	2	Temperatura media	12.3
142042	7	Sololá	701	Sololá	2	El tablón	3	Marzo	2023-12-03T00:00:00	2024-11-06T20:00:00	4	Temperatura máxima	12.4
142043	7	Sololá	701	Sololá	2	El tablón	3	Marzo	2023-12-03T00:00:00	2024-11-06T20:00:00	3	Temperatura mínima	12.3
142044	7	Sololá	701	Sololá	2	El tablón	3	Marzo	2023-12-03T00:00:00	2024-11-06T20:00:00	5	Humedad	88
142045	7	Sololá	701	Sololá	2	El tablón	3	Marzo	2023-12-03T00:00:00	2024-11-06T20:00:00	6	Velocidad del viento	0
142046	7	Sololá	701	Sololá	2	El tablón	3	Marzo	2023-12-03T00:00:00	2024-11-06T20:00:00	7	Dirección del viento	0
142047	7	Sololá	701	Sololá	2	El tablón	3	Marzo	2023-12-03T00:00:00	2024-11-06T20:00:00	1	Precipitación	0
142048	7	Sololá	701	Sololá	2	El tablón	3	Marzo	2023-12-03T00:00:00	2024-11-06T20:00:00	8	Radiación solar	0
142049	7	Sololá	701	Sololá	2	El tablón	3	Marzo	2023-12-03T00:00:00	2024-11-06T21:00:00	2	Temperatura media	12.2
142050	7	Sololá	701	Sololá	2	El tablón	3	Marzo	2023-12-03T00:00:00	2024-11-06T21:00:00	4	Temperatura máxima	12.3
142051	7	Sololá	701	Sololá	2	El tablón	3	Marzo	2023-12-03T00:00:00	2024-11-06T21:00:00	3	Temperatura mínima	12.2
142052	7	Sololá	701	Sololá	2	El tablón	3	Marzo	2023-12-03T00:00:00	2024-11-06T21:00:00	5	Humedad	88
142053	7	Sololá	701	Sololá	2	El tablón	3	Marzo	2023-12-03T00:00:00	2024-11-06T21:00:00	6	Velocidad del viento	1.6
142054	7	Sololá	701	Sololá	2	El tablón	3	Marzo	2023-12-03T00:00:00	2024-11-06T21:00:00	7	Dirección del viento	1.61
142055	7	Sololá	701	Sololá	2	El tablón	3	Marzo	2023-12-03T00:00:00	2024-11-06T21:00:00	1	Precipitación	0
142056	7	Sololá	701	Sololá	2	El tablón	3	Marzo	2023-12-03T00:00:00	2024-11-06T21:00:00	8	Radiación solar	0
142057	7	Sololá	701	Sololá	2	El tablón	3	Marzo	2023-12-03T00:00:00	2024-11-06T22:00:00	2	Temperatura media	12.3
142058	7	Sololá	701	Sololá	2	El tablón	3	Marzo	2023-12-03T00:00:00	2024-11-06T22:00:00	4	Temperatura máxima	12.3
142059	7	Sololá	701	Sololá	2	El tablón	3	Marzo	2023-12-03T00:00:00	2024-11-06T22:00:00	3	Temperatura mínima	12
142060	7	Sololá	701	Sololá	2	El tablón	3	Marzo	2023-12-03T00:00:00	2024-11-06T22:00:00	5	Humedad	87
142061	7	Sololá	701	Sololá	2	El tablón	3	Marzo	2023-12-03T00:00:00	2024-11-06T22:00:00	6	Velocidad del viento	1.6
142062	7	Sololá	701	Sololá	2	El tablón	3	Marzo	2023-12-03T00:00:00	2024-11-06T22:00:00	7	Dirección del viento	1.61
142063	7	Sololá	701	Sololá	2	El tablón	3	Marzo	2023-12-03T00:00:00	2024-11-06T22:00:00	1	Precipitación	0
142064	7	Sololá	701	Sololá	2	El tablón	3	Marzo	2023-12-03T00:00:00	2024-11-06T22:00:00	8	Radiación solar	0
142065	7	Sololá	701	Sololá	2	El tablón	3	Marzo	2023-12-03T00:00:00	2024-11-06T23:00:00	2	Temperatura media	11.8
142066	7	Sololá	701	Sololá	2	El tablón	3	Marzo	2023-12-03T00:00:00	2024-11-06T23:00:00	4	Temperatura máxima	12.3
142067	7	Sololá	701	Sololá	2	El tablón	3	Marzo	2023-12-03T00:00:00	2024-11-06T23:00:00	3	Temperatura mínima	11.8
142068	7	Sololá	701	Sololá	2	El tablón	3	Marzo	2023-12-03T00:00:00	2024-11-06T23:00:00	5	Humedad	88
142069	7	Sololá	701	Sololá	2	El tablón	3	Marzo	2023-12-03T00:00:00	2024-11-06T23:00:00	6	Velocidad del viento	1.6
142070	7	Sololá	701	Sololá	2	El tablón	3	Marzo	2023-12-03T00:00:00	2024-11-06T23:00:00	7	Dirección del viento	1.61
142071	7	Sololá	701	Sololá	2	El tablón	3	Marzo	2023-12-03T00:00:00	2024-11-06T23:00:00	1	Precipitación	0.2
142072	7	Sololá	701	Sololá	2	El tablón	3	Marzo	2023-12-03T00:00:00	2024-11-06T23:00:00	8	Radiación solar	0
142073	7	Sololá	701	Sololá	2	El tablón	3	Marzo	2023-03-13T00:00:00	2024-11-06T00:00:00	2	Temperatura media	11.6
142074	7	Sololá	701	Sololá	2	El tablón	3	Marzo	2023-03-13T00:00:00	2024-11-06T00:00:00	4	Temperatura máxima	11.8
142075	7	Sololá	701	Sololá	2	El tablón	3	Marzo	2023-03-13T00:00:00	2024-11-06T00:00:00	3	Temperatura mínima	11.5
142076	7	Sololá	701	Sololá	2	El tablón	3	Marzo	2023-03-13T00:00:00	2024-11-06T00:00:00	5	Humedad	87
142077	7	Sololá	701	Sololá	2	El tablón	3	Marzo	2023-03-13T00:00:00	2024-11-06T00:00:00	6	Velocidad del viento	1.6
142078	7	Sololá	701	Sololá	2	El tablón	3	Marzo	2023-03-13T00:00:00	2024-11-06T00:00:00	7	Dirección del viento	1.61
142079	7	Sololá	701	Sololá	2	El tablón	3	Marzo	2023-03-13T00:00:00	2024-11-06T00:00:00	1	Precipitación	0
142080	7	Sololá	701	Sololá	2	El tablón	3	Marzo	2023-03-13T00:00:00	2024-11-06T00:00:00	8	Radiación solar	0
142081	7	Sololá	701	Sololá	2	El tablón	3	Marzo	2023-03-13T00:00:00	2024-11-06T01:00:00	2	Temperatura media	11.4
142082	7	Sololá	701	Sololá	2	El tablón	3	Marzo	2023-03-13T00:00:00	2024-11-06T01:00:00	4	Temperatura máxima	11.6
142083	7	Sololá	701	Sololá	2	El tablón	3	Marzo	2023-03-13T00:00:00	2024-11-06T01:00:00	3	Temperatura mínima	11.4
142084	7	Sololá	701	Sololá	2	El tablón	3	Marzo	2023-03-13T00:00:00	2024-11-06T01:00:00	5	Humedad	87
142085	7	Sololá	701	Sololá	2	El tablón	3	Marzo	2023-03-13T00:00:00	2024-11-06T01:00:00	6	Velocidad del viento	0
142086	7	Sololá	701	Sololá	2	El tablón	3	Marzo	2023-03-13T00:00:00	2024-11-06T01:00:00	7	Dirección del viento	0
142087	7	Sololá	701	Sololá	2	El tablón	3	Marzo	2023-03-13T00:00:00	2024-11-06T01:00:00	1	Precipitación	0
142088	7	Sololá	701	Sololá	2	El tablón	3	Marzo	2023-03-13T00:00:00	2024-11-06T01:00:00	8	Radiación solar	0
142089	7	Sololá	701	Sololá	2	El tablón	3	Marzo	2023-03-13T00:00:00	2024-11-06T02:00:00	2	Temperatura media	10.9
142090	7	Sololá	701	Sololá	2	El tablón	3	Marzo	2023-03-13T00:00:00	2024-11-06T02:00:00	4	Temperatura máxima	11.4
142091	7	Sololá	701	Sololá	2	El tablón	3	Marzo	2023-03-13T00:00:00	2024-11-06T02:00:00	3	Temperatura mínima	10.9
142092	7	Sololá	701	Sololá	2	El tablón	3	Marzo	2023-03-13T00:00:00	2024-11-06T02:00:00	5	Humedad	88
142093	7	Sololá	701	Sololá	2	El tablón	3	Marzo	2023-03-13T00:00:00	2024-11-06T02:00:00	6	Velocidad del viento	0
142094	7	Sololá	701	Sololá	2	El tablón	3	Marzo	2023-03-13T00:00:00	2024-11-06T02:00:00	7	Dirección del viento	0
142095	7	Sololá	701	Sololá	2	El tablón	3	Marzo	2023-03-13T00:00:00	2024-11-06T02:00:00	1	Precipitación	0
142096	7	Sololá	701	Sololá	2	El tablón	3	Marzo	2023-03-13T00:00:00	2024-11-06T02:00:00	8	Radiación solar	0
142097	7	Sololá	701	Sololá	2	El tablón	3	Marzo	2023-03-13T00:00:00	2024-11-06T03:00:00	2	Temperatura media	10.1
142098	7	Sololá	701	Sololá	2	El tablón	3	Marzo	2023-03-13T00:00:00	2024-11-06T03:00:00	4	Temperatura máxima	10.9
142099	7	Sololá	701	Sololá	2	El tablón	3	Marzo	2023-03-13T00:00:00	2024-11-06T03:00:00	3	Temperatura mínima	10.1
142100	7	Sololá	701	Sololá	2	El tablón	3	Marzo	2023-03-13T00:00:00	2024-11-06T03:00:00	5	Humedad	88
142101	7	Sololá	701	Sololá	2	El tablón	3	Marzo	2023-03-13T00:00:00	2024-11-06T03:00:00	6	Velocidad del viento	1.6
142102	7	Sololá	701	Sololá	2	El tablón	3	Marzo	2023-03-13T00:00:00	2024-11-06T03:00:00	7	Dirección del viento	1.61
142103	7	Sololá	701	Sololá	2	El tablón	3	Marzo	2023-03-13T00:00:00	2024-11-06T03:00:00	1	Precipitación	0
142104	7	Sololá	701	Sololá	2	El tablón	3	Marzo	2023-03-13T00:00:00	2024-11-06T03:00:00	8	Radiación solar	0
142105	7	Sololá	701	Sololá	2	El tablón	3	Marzo	2023-03-13T00:00:00	2024-11-06T04:00:00	2	Temperatura media	9.2
142106	7	Sololá	701	Sololá	2	El tablón	3	Marzo	2023-03-13T00:00:00	2024-11-06T04:00:00	4	Temperatura máxima	10
142107	7	Sololá	701	Sololá	2	El tablón	3	Marzo	2023-03-13T00:00:00	2024-11-06T04:00:00	3	Temperatura mínima	8.9
142108	7	Sololá	701	Sololá	2	El tablón	3	Marzo	2023-03-13T00:00:00	2024-11-06T04:00:00	5	Humedad	88
142109	7	Sololá	701	Sololá	2	El tablón	3	Marzo	2023-03-13T00:00:00	2024-11-06T04:00:00	6	Velocidad del viento	3.2
142110	7	Sololá	701	Sololá	2	El tablón	3	Marzo	2023-03-13T00:00:00	2024-11-06T04:00:00	7	Dirección del viento	3.22
142111	7	Sololá	701	Sololá	2	El tablón	3	Marzo	2023-03-13T00:00:00	2024-11-06T04:00:00	1	Precipitación	0
142112	7	Sololá	701	Sololá	2	El tablón	3	Marzo	2023-03-13T00:00:00	2024-11-06T04:00:00	8	Radiación solar	0
142113	7	Sololá	701	Sololá	2	El tablón	3	Marzo	2023-03-13T00:00:00	2024-11-06T05:00:00	2	Temperatura media	9
142114	7	Sololá	701	Sololá	2	El tablón	3	Marzo	2023-03-13T00:00:00	2024-11-06T05:00:00	4	Temperatura máxima	9.3
142115	7	Sololá	701	Sololá	2	El tablón	3	Marzo	2023-03-13T00:00:00	2024-11-06T05:00:00	3	Temperatura mínima	8.8
142116	7	Sololá	701	Sololá	2	El tablón	3	Marzo	2023-03-13T00:00:00	2024-11-06T05:00:00	5	Humedad	88
142117	7	Sololá	701	Sololá	2	El tablón	3	Marzo	2023-03-13T00:00:00	2024-11-06T05:00:00	6	Velocidad del viento	3.2
142118	7	Sololá	701	Sololá	2	El tablón	3	Marzo	2023-03-13T00:00:00	2024-11-06T05:00:00	7	Dirección del viento	3.22
142119	7	Sololá	701	Sololá	2	El tablón	3	Marzo	2023-03-13T00:00:00	2024-11-06T05:00:00	1	Precipitación	0
142120	7	Sololá	701	Sololá	2	El tablón	3	Marzo	2023-03-13T00:00:00	2024-11-06T05:00:00	8	Radiación solar	0
142121	7	Sololá	701	Sololá	2	El tablón	3	Marzo	2023-03-13T00:00:00	2024-11-06T06:00:00	2	Temperatura media	9.8
142122	7	Sololá	701	Sololá	2	El tablón	3	Marzo	2023-03-13T00:00:00	2024-11-06T06:00:00	4	Temperatura máxima	10.2
142123	7	Sololá	701	Sololá	2	El tablón	3	Marzo	2023-03-13T00:00:00	2024-11-06T06:00:00	3	Temperatura mínima	9
142124	7	Sololá	701	Sololá	2	El tablón	3	Marzo	2023-03-13T00:00:00	2024-11-06T06:00:00	5	Humedad	88
142125	7	Sololá	701	Sololá	2	El tablón	3	Marzo	2023-03-13T00:00:00	2024-11-06T06:00:00	6	Velocidad del viento	0
142126	7	Sololá	701	Sololá	2	El tablón	3	Marzo	2023-03-13T00:00:00	2024-11-06T06:00:00	7	Dirección del viento	0
142127	7	Sololá	701	Sololá	2	El tablón	3	Marzo	2023-03-13T00:00:00	2024-11-06T06:00:00	1	Precipitación	0.2
142128	7	Sololá	701	Sololá	2	El tablón	3	Marzo	2023-03-13T00:00:00	2024-11-06T06:00:00	8	Radiación solar	0
142129	7	Sololá	701	Sololá	2	El tablón	3	Marzo	2023-03-13T00:00:00	2024-11-06T07:00:00	2	Temperatura media	9.1
142130	7	Sololá	701	Sololá	2	El tablón	3	Marzo	2023-03-13T00:00:00	2024-11-06T07:00:00	4	Temperatura máxima	9.9
142131	7	Sololá	701	Sololá	2	El tablón	3	Marzo	2023-03-13T00:00:00	2024-11-06T07:00:00	3	Temperatura mínima	8.9
142132	7	Sololá	701	Sololá	2	El tablón	3	Marzo	2023-03-13T00:00:00	2024-11-06T07:00:00	5	Humedad	88
142133	7	Sololá	701	Sololá	2	El tablón	3	Marzo	2023-03-13T00:00:00	2024-11-06T07:00:00	6	Velocidad del viento	1.6
142134	7	Sololá	701	Sololá	2	El tablón	3	Marzo	2023-03-13T00:00:00	2024-11-06T07:00:00	7	Dirección del viento	1.61
142135	7	Sololá	701	Sololá	2	El tablón	3	Marzo	2023-03-13T00:00:00	2024-11-06T07:00:00	1	Precipitación	0
142136	7	Sololá	701	Sololá	2	El tablón	3	Marzo	2023-03-13T00:00:00	2024-11-06T07:00:00	8	Radiación solar	23
142137	7	Sololá	701	Sololá	2	El tablón	3	Marzo	2023-03-13T00:00:00	2024-11-06T08:00:00	2	Temperatura media	12.8
142138	7	Sololá	701	Sololá	2	El tablón	3	Marzo	2023-03-13T00:00:00	2024-11-06T08:00:00	4	Temperatura máxima	12.8
142139	7	Sololá	701	Sololá	2	El tablón	3	Marzo	2023-03-13T00:00:00	2024-11-06T08:00:00	3	Temperatura mínima	9.1
142140	7	Sololá	701	Sololá	2	El tablón	3	Marzo	2023-03-13T00:00:00	2024-11-06T08:00:00	5	Humedad	90
142141	7	Sololá	701	Sololá	2	El tablón	3	Marzo	2023-03-13T00:00:00	2024-11-06T08:00:00	6	Velocidad del viento	1.6
142142	7	Sololá	701	Sololá	2	El tablón	3	Marzo	2023-03-13T00:00:00	2024-11-06T08:00:00	7	Dirección del viento	1.61
142143	7	Sololá	701	Sololá	2	El tablón	3	Marzo	2023-03-13T00:00:00	2024-11-06T08:00:00	1	Precipitación	0
142144	7	Sololá	701	Sololá	2	El tablón	3	Marzo	2023-03-13T00:00:00	2024-11-06T08:00:00	8	Radiación solar	158
142145	7	Sololá	701	Sololá	2	El tablón	3	Marzo	2023-03-13T00:00:00	2024-11-06T09:00:00	2	Temperatura media	15
142146	7	Sololá	701	Sololá	2	El tablón	3	Marzo	2023-03-13T00:00:00	2024-11-06T09:00:00	4	Temperatura máxima	15
142147	7	Sololá	701	Sololá	2	El tablón	3	Marzo	2023-03-13T00:00:00	2024-11-06T09:00:00	3	Temperatura mínima	12.8
142148	7	Sololá	701	Sololá	2	El tablón	3	Marzo	2023-03-13T00:00:00	2024-11-06T09:00:00	5	Humedad	86
142149	7	Sololá	701	Sololá	2	El tablón	3	Marzo	2023-03-13T00:00:00	2024-11-06T09:00:00	6	Velocidad del viento	1.6
142150	7	Sololá	701	Sololá	2	El tablón	3	Marzo	2023-03-13T00:00:00	2024-11-06T09:00:00	7	Dirección del viento	1.61
142151	7	Sololá	701	Sololá	2	El tablón	3	Marzo	2023-03-13T00:00:00	2024-11-06T09:00:00	1	Precipitación	0
142152	7	Sololá	701	Sololá	2	El tablón	3	Marzo	2023-03-13T00:00:00	2024-11-06T09:00:00	8	Radiación solar	345
142153	7	Sololá	701	Sololá	2	El tablón	3	Marzo	2023-03-13T00:00:00	2024-11-06T10:00:00	2	Temperatura media	16.1
142154	7	Sololá	701	Sololá	2	El tablón	3	Marzo	2023-03-13T00:00:00	2024-11-06T10:00:00	4	Temperatura máxima	16.1
142155	7	Sololá	701	Sololá	2	El tablón	3	Marzo	2023-03-13T00:00:00	2024-11-06T10:00:00	3	Temperatura mínima	15
142156	7	Sololá	701	Sololá	2	El tablón	3	Marzo	2023-03-13T00:00:00	2024-11-06T10:00:00	5	Humedad	79
142157	7	Sololá	701	Sololá	2	El tablón	3	Marzo	2023-03-13T00:00:00	2024-11-06T10:00:00	6	Velocidad del viento	6.4
142158	7	Sololá	701	Sololá	2	El tablón	3	Marzo	2023-03-13T00:00:00	2024-11-06T10:00:00	7	Dirección del viento	6.44
142159	7	Sololá	701	Sololá	2	El tablón	3	Marzo	2023-03-13T00:00:00	2024-11-06T10:00:00	1	Precipitación	0
142160	7	Sololá	701	Sololá	2	El tablón	3	Marzo	2023-03-13T00:00:00	2024-11-06T10:00:00	8	Radiación solar	622
142161	7	Sololá	701	Sololá	2	El tablón	3	Marzo	2023-03-13T00:00:00	2024-11-06T11:00:00	2	Temperatura media	16.8
142162	7	Sololá	701	Sololá	2	El tablón	3	Marzo	2023-03-13T00:00:00	2024-11-06T11:00:00	4	Temperatura máxima	17.4
142163	7	Sololá	701	Sololá	2	El tablón	3	Marzo	2023-03-13T00:00:00	2024-11-06T11:00:00	3	Temperatura mínima	16.1
142164	7	Sololá	701	Sololá	2	El tablón	3	Marzo	2023-03-13T00:00:00	2024-11-06T11:00:00	5	Humedad	77
142165	7	Sololá	701	Sololá	2	El tablón	3	Marzo	2023-03-13T00:00:00	2024-11-06T11:00:00	6	Velocidad del viento	6.4
142166	7	Sololá	701	Sololá	2	El tablón	3	Marzo	2023-03-13T00:00:00	2024-11-06T11:00:00	7	Dirección del viento	6.44
142167	7	Sololá	701	Sololá	2	El tablón	3	Marzo	2023-03-13T00:00:00	2024-11-06T11:00:00	1	Precipitación	0
142168	7	Sololá	701	Sololá	2	El tablón	3	Marzo	2023-03-13T00:00:00	2024-11-06T11:00:00	8	Radiación solar	794
142169	7	Sololá	701	Sololá	2	El tablón	3	Marzo	2023-03-13T00:00:00	2024-11-06T12:00:00	2	Temperatura media	16.6
142170	7	Sololá	701	Sololá	2	El tablón	3	Marzo	2023-03-13T00:00:00	2024-11-06T12:00:00	4	Temperatura máxima	16.9
142171	7	Sololá	701	Sololá	2	El tablón	3	Marzo	2023-03-13T00:00:00	2024-11-06T12:00:00	3	Temperatura mínima	16.1
142172	7	Sololá	701	Sololá	2	El tablón	3	Marzo	2023-03-13T00:00:00	2024-11-06T12:00:00	5	Humedad	83
142173	7	Sololá	701	Sololá	2	El tablón	3	Marzo	2023-03-13T00:00:00	2024-11-06T12:00:00	6	Velocidad del viento	8
142174	7	Sololá	701	Sololá	2	El tablón	3	Marzo	2023-03-13T00:00:00	2024-11-06T12:00:00	7	Dirección del viento	8.05
142175	7	Sololá	701	Sololá	2	El tablón	3	Marzo	2023-03-13T00:00:00	2024-11-06T12:00:00	1	Precipitación	0
142176	7	Sololá	701	Sololá	2	El tablón	3	Marzo	2023-03-13T00:00:00	2024-11-06T12:00:00	8	Radiación solar	820
142177	7	Sololá	701	Sololá	2	El tablón	3	Marzo	2023-03-13T00:00:00	2024-11-06T13:00:00	2	Temperatura media	16.6
142178	7	Sololá	701	Sololá	2	El tablón	3	Marzo	2023-03-13T00:00:00	2024-11-06T13:00:00	4	Temperatura máxima	16.9
142179	7	Sololá	701	Sololá	2	El tablón	3	Marzo	2023-03-13T00:00:00	2024-11-06T13:00:00	3	Temperatura mínima	16.2
142180	7	Sololá	701	Sololá	2	El tablón	3	Marzo	2023-03-13T00:00:00	2024-11-06T13:00:00	5	Humedad	82
142181	7	Sololá	701	Sololá	2	El tablón	3	Marzo	2023-03-13T00:00:00	2024-11-06T13:00:00	6	Velocidad del viento	8
142182	7	Sololá	701	Sololá	2	El tablón	3	Marzo	2023-03-13T00:00:00	2024-11-06T13:00:00	7	Dirección del viento	8.05
142183	7	Sololá	701	Sololá	2	El tablón	3	Marzo	2023-03-13T00:00:00	2024-11-06T13:00:00	1	Precipitación	0
142184	7	Sololá	701	Sololá	2	El tablón	3	Marzo	2023-03-13T00:00:00	2024-11-06T13:00:00	8	Radiación solar	667
142185	7	Sololá	701	Sololá	2	El tablón	3	Marzo	2023-03-13T00:00:00	2024-11-06T14:00:00	2	Temperatura media	15.8
142186	7	Sololá	701	Sololá	2	El tablón	3	Marzo	2023-03-13T00:00:00	2024-11-06T14:00:00	4	Temperatura máxima	16.6
142187	7	Sololá	701	Sololá	2	El tablón	3	Marzo	2023-03-13T00:00:00	2024-11-06T14:00:00	3	Temperatura mínima	15.3
142188	7	Sololá	701	Sololá	2	El tablón	3	Marzo	2023-03-13T00:00:00	2024-11-06T14:00:00	5	Humedad	86
142189	7	Sololá	701	Sololá	2	El tablón	3	Marzo	2023-03-13T00:00:00	2024-11-06T14:00:00	6	Velocidad del viento	9.7
142190	7	Sololá	701	Sololá	2	El tablón	3	Marzo	2023-03-13T00:00:00	2024-11-06T14:00:00	7	Dirección del viento	9.66
142191	7	Sololá	701	Sololá	2	El tablón	3	Marzo	2023-03-13T00:00:00	2024-11-06T14:00:00	1	Precipitación	0
142192	7	Sololá	701	Sololá	2	El tablón	3	Marzo	2023-03-13T00:00:00	2024-11-06T14:00:00	8	Radiación solar	371
142193	7	Sololá	701	Sololá	2	El tablón	3	Marzo	2023-03-13T00:00:00	2024-11-06T15:00:00	2	Temperatura media	14.2
142194	7	Sololá	701	Sololá	2	El tablón	3	Marzo	2023-03-13T00:00:00	2024-11-06T15:00:00	4	Temperatura máxima	16.2
142195	7	Sololá	701	Sololá	2	El tablón	3	Marzo	2023-03-13T00:00:00	2024-11-06T15:00:00	3	Temperatura mínima	14.2
142196	7	Sololá	701	Sololá	2	El tablón	3	Marzo	2023-03-13T00:00:00	2024-11-06T15:00:00	5	Humedad	89
142197	7	Sololá	701	Sololá	2	El tablón	3	Marzo	2023-03-13T00:00:00	2024-11-06T15:00:00	6	Velocidad del viento	8
142198	7	Sololá	701	Sololá	2	El tablón	3	Marzo	2023-03-13T00:00:00	2024-11-06T15:00:00	7	Dirección del viento	8.05
142199	7	Sololá	701	Sololá	2	El tablón	3	Marzo	2023-03-13T00:00:00	2024-11-06T15:00:00	1	Precipitación	0
142200	7	Sololá	701	Sololá	2	El tablón	3	Marzo	2023-03-13T00:00:00	2024-11-06T15:00:00	8	Radiación solar	194
142201	7	Sololá	701	Sololá	2	El tablón	3	Marzo	2023-03-13T00:00:00	2024-11-06T16:00:00	2	Temperatura media	13.9
142202	7	Sololá	701	Sololá	2	El tablón	3	Marzo	2023-03-13T00:00:00	2024-11-06T16:00:00	4	Temperatura máxima	14.2
142203	7	Sololá	701	Sololá	2	El tablón	3	Marzo	2023-03-13T00:00:00	2024-11-06T16:00:00	3	Temperatura mínima	13.8
142204	7	Sololá	701	Sololá	2	El tablón	3	Marzo	2023-03-13T00:00:00	2024-11-06T16:00:00	5	Humedad	89
142205	7	Sololá	701	Sololá	2	El tablón	3	Marzo	2023-03-13T00:00:00	2024-11-06T16:00:00	6	Velocidad del viento	4.8
142206	7	Sololá	701	Sololá	2	El tablón	3	Marzo	2023-03-13T00:00:00	2024-11-06T16:00:00	7	Dirección del viento	4.83
142207	7	Sololá	701	Sololá	2	El tablón	3	Marzo	2023-03-13T00:00:00	2024-11-06T16:00:00	1	Precipitación	0
142208	7	Sololá	701	Sololá	2	El tablón	3	Marzo	2023-03-13T00:00:00	2024-11-06T16:00:00	8	Radiación solar	53
142209	7	Sololá	701	Sololá	2	El tablón	3	Marzo	2023-03-13T00:00:00	2024-11-06T17:00:00	2	Temperatura media	13.9
142210	7	Sololá	701	Sololá	2	El tablón	3	Marzo	2023-03-13T00:00:00	2024-11-06T17:00:00	4	Temperatura máxima	14
142211	7	Sololá	701	Sololá	2	El tablón	3	Marzo	2023-03-13T00:00:00	2024-11-06T17:00:00	3	Temperatura mínima	13.8
142212	7	Sololá	701	Sololá	2	El tablón	3	Marzo	2023-03-13T00:00:00	2024-11-06T17:00:00	5	Humedad	89
142213	7	Sololá	701	Sololá	2	El tablón	3	Marzo	2023-03-13T00:00:00	2024-11-06T17:00:00	6	Velocidad del viento	3.2
142214	7	Sololá	701	Sololá	2	El tablón	3	Marzo	2023-03-13T00:00:00	2024-11-06T17:00:00	7	Dirección del viento	3.22
142215	7	Sololá	701	Sololá	2	El tablón	3	Marzo	2023-03-13T00:00:00	2024-11-06T17:00:00	1	Precipitación	0
142216	7	Sololá	701	Sololá	2	El tablón	3	Marzo	2023-03-13T00:00:00	2024-11-06T17:00:00	8	Radiación solar	71
142217	7	Sololá	701	Sololá	2	El tablón	3	Marzo	2023-03-13T00:00:00	2024-11-06T18:00:00	2	Temperatura media	13.6
142218	7	Sololá	701	Sololá	2	El tablón	3	Marzo	2023-03-13T00:00:00	2024-11-06T18:00:00	4	Temperatura máxima	13.9
142219	7	Sololá	701	Sololá	2	El tablón	3	Marzo	2023-03-13T00:00:00	2024-11-06T18:00:00	3	Temperatura mínima	13.6
142220	7	Sololá	701	Sololá	2	El tablón	3	Marzo	2023-03-13T00:00:00	2024-11-06T18:00:00	5	Humedad	90
142221	7	Sololá	701	Sololá	2	El tablón	3	Marzo	2023-03-13T00:00:00	2024-11-06T18:00:00	6	Velocidad del viento	3.2
142222	7	Sololá	701	Sololá	2	El tablón	3	Marzo	2023-03-13T00:00:00	2024-11-06T18:00:00	7	Dirección del viento	3.22
142223	7	Sololá	701	Sololá	2	El tablón	3	Marzo	2023-03-13T00:00:00	2024-11-06T18:00:00	1	Precipitación	0
142224	7	Sololá	701	Sololá	2	El tablón	3	Marzo	2023-03-13T00:00:00	2024-11-06T18:00:00	8	Radiación solar	26
142225	7	Sololá	701	Sololá	2	El tablón	3	Marzo	2023-03-13T00:00:00	2024-11-06T19:00:00	2	Temperatura media	13.4
142226	7	Sololá	701	Sololá	2	El tablón	3	Marzo	2023-03-13T00:00:00	2024-11-06T19:00:00	4	Temperatura máxima	13.6
142227	7	Sololá	701	Sololá	2	El tablón	3	Marzo	2023-03-13T00:00:00	2024-11-06T19:00:00	3	Temperatura mínima	13.3
142228	7	Sololá	701	Sololá	2	El tablón	3	Marzo	2023-03-13T00:00:00	2024-11-06T19:00:00	5	Humedad	89
142229	7	Sololá	701	Sololá	2	El tablón	3	Marzo	2023-03-13T00:00:00	2024-11-06T19:00:00	6	Velocidad del viento	1.6
142230	7	Sololá	701	Sololá	2	El tablón	3	Marzo	2023-03-13T00:00:00	2024-11-06T19:00:00	7	Dirección del viento	1.61
142231	7	Sololá	701	Sololá	2	El tablón	3	Marzo	2023-03-13T00:00:00	2024-11-06T19:00:00	1	Precipitación	0
142232	7	Sololá	701	Sololá	2	El tablón	3	Marzo	2023-03-13T00:00:00	2024-11-06T19:00:00	8	Radiación solar	0
142233	7	Sololá	701	Sololá	2	El tablón	3	Marzo	2023-03-13T00:00:00	2024-11-06T20:00:00	2	Temperatura media	13.4
142234	7	Sololá	701	Sololá	2	El tablón	3	Marzo	2023-03-13T00:00:00	2024-11-06T20:00:00	4	Temperatura máxima	13.6
142235	7	Sololá	701	Sololá	2	El tablón	3	Marzo	2023-03-13T00:00:00	2024-11-06T20:00:00	3	Temperatura mínima	13.3
142236	7	Sololá	701	Sololá	2	El tablón	3	Marzo	2023-03-13T00:00:00	2024-11-06T20:00:00	5	Humedad	90
142237	7	Sololá	701	Sololá	2	El tablón	3	Marzo	2023-03-13T00:00:00	2024-11-06T20:00:00	6	Velocidad del viento	1.6
142238	7	Sololá	701	Sololá	2	El tablón	3	Marzo	2023-03-13T00:00:00	2024-11-06T20:00:00	7	Dirección del viento	1.61
142239	7	Sololá	701	Sololá	2	El tablón	3	Marzo	2023-03-13T00:00:00	2024-11-06T20:00:00	1	Precipitación	0
142240	7	Sololá	701	Sololá	2	El tablón	3	Marzo	2023-03-13T00:00:00	2024-11-06T20:00:00	8	Radiación solar	0
142241	7	Sololá	701	Sololá	2	El tablón	3	Marzo	2023-03-13T00:00:00	2024-11-06T21:00:00	2	Temperatura media	13.1
142242	7	Sololá	701	Sololá	2	El tablón	3	Marzo	2023-03-13T00:00:00	2024-11-06T21:00:00	4	Temperatura máxima	13.6
142243	7	Sololá	701	Sololá	2	El tablón	3	Marzo	2023-03-13T00:00:00	2024-11-06T21:00:00	3	Temperatura mínima	13.1
142244	7	Sololá	701	Sololá	2	El tablón	3	Marzo	2023-03-13T00:00:00	2024-11-06T21:00:00	5	Humedad	89
142245	7	Sololá	701	Sololá	2	El tablón	3	Marzo	2023-03-13T00:00:00	2024-11-06T21:00:00	6	Velocidad del viento	1.6
142246	7	Sololá	701	Sololá	2	El tablón	3	Marzo	2023-03-13T00:00:00	2024-11-06T21:00:00	7	Dirección del viento	1.61
142247	7	Sololá	701	Sololá	2	El tablón	3	Marzo	2023-03-13T00:00:00	2024-11-06T21:00:00	1	Precipitación	0.2
142248	7	Sololá	701	Sololá	2	El tablón	3	Marzo	2023-03-13T00:00:00	2024-11-06T21:00:00	8	Radiación solar	0
142249	7	Sololá	701	Sololá	2	El tablón	3	Marzo	2023-03-13T00:00:00	2024-11-06T22:00:00	2	Temperatura media	12.7
142250	7	Sololá	701	Sololá	2	El tablón	3	Marzo	2023-03-13T00:00:00	2024-11-06T22:00:00	4	Temperatura máxima	13.1
142251	7	Sololá	701	Sololá	2	El tablón	3	Marzo	2023-03-13T00:00:00	2024-11-06T22:00:00	3	Temperatura mínima	12.7
142252	7	Sololá	701	Sololá	2	El tablón	3	Marzo	2023-03-13T00:00:00	2024-11-06T22:00:00	5	Humedad	89
142253	7	Sololá	701	Sololá	2	El tablón	3	Marzo	2023-03-13T00:00:00	2024-11-06T22:00:00	6	Velocidad del viento	1.6
142254	7	Sololá	701	Sololá	2	El tablón	3	Marzo	2023-03-13T00:00:00	2024-11-06T22:00:00	7	Dirección del viento	1.61
142255	7	Sololá	701	Sololá	2	El tablón	3	Marzo	2023-03-13T00:00:00	2024-11-06T22:00:00	1	Precipitación	0.2
142256	7	Sololá	701	Sololá	2	El tablón	3	Marzo	2023-03-13T00:00:00	2024-11-06T22:00:00	8	Radiación solar	0
142257	7	Sololá	701	Sololá	2	El tablón	3	Marzo	2023-03-13T00:00:00	2024-11-06T23:00:00	2	Temperatura media	11.6
142258	7	Sololá	701	Sololá	2	El tablón	3	Marzo	2023-03-13T00:00:00	2024-11-06T23:00:00	4	Temperatura máxima	12.7
142259	7	Sololá	701	Sololá	2	El tablón	3	Marzo	2023-03-13T00:00:00	2024-11-06T23:00:00	3	Temperatura mínima	11.6
142260	7	Sololá	701	Sololá	2	El tablón	3	Marzo	2023-03-13T00:00:00	2024-11-06T23:00:00	5	Humedad	90
142261	7	Sololá	701	Sololá	2	El tablón	3	Marzo	2023-03-13T00:00:00	2024-11-06T23:00:00	6	Velocidad del viento	1.6
142262	7	Sololá	701	Sololá	2	El tablón	3	Marzo	2023-03-13T00:00:00	2024-11-06T23:00:00	7	Dirección del viento	1.61
142263	7	Sololá	701	Sololá	2	El tablón	3	Marzo	2023-03-13T00:00:00	2024-11-06T23:00:00	1	Precipitación	0
142264	7	Sololá	701	Sololá	2	El tablón	3	Marzo	2023-03-13T00:00:00	2024-11-06T23:00:00	8	Radiación solar	0
142265	7	Sololá	701	Sololá	2	El tablón	3	Marzo	2023-03-14T00:00:00	2024-11-06T00:00:00	2	Temperatura media	10.4
142266	7	Sololá	701	Sololá	2	El tablón	3	Marzo	2023-03-14T00:00:00	2024-11-06T00:00:00	4	Temperatura máxima	11.6
142267	7	Sololá	701	Sololá	2	El tablón	3	Marzo	2023-03-14T00:00:00	2024-11-06T00:00:00	3	Temperatura mínima	10.4
142268	7	Sololá	701	Sololá	2	El tablón	3	Marzo	2023-03-14T00:00:00	2024-11-06T00:00:00	5	Humedad	90
142269	7	Sololá	701	Sololá	2	El tablón	3	Marzo	2023-03-14T00:00:00	2024-11-06T00:00:00	6	Velocidad del viento	1.6
142270	7	Sololá	701	Sololá	2	El tablón	3	Marzo	2023-03-14T00:00:00	2024-11-06T00:00:00	7	Dirección del viento	1.61
142271	7	Sololá	701	Sololá	2	El tablón	3	Marzo	2023-03-14T00:00:00	2024-11-06T00:00:00	1	Precipitación	0
142272	7	Sololá	701	Sololá	2	El tablón	3	Marzo	2023-03-14T00:00:00	2024-11-06T00:00:00	8	Radiación solar	0
142273	7	Sololá	701	Sololá	2	El tablón	3	Marzo	2023-03-14T00:00:00	2024-11-06T01:00:00	2	Temperatura media	10.9
142274	7	Sololá	701	Sololá	2	El tablón	3	Marzo	2023-03-14T00:00:00	2024-11-06T01:00:00	4	Temperatura máxima	10.9
142275	7	Sololá	701	Sololá	2	El tablón	3	Marzo	2023-03-14T00:00:00	2024-11-06T01:00:00	3	Temperatura mínima	10.4
142276	7	Sololá	701	Sololá	2	El tablón	3	Marzo	2023-03-14T00:00:00	2024-11-06T01:00:00	5	Humedad	89
142277	7	Sololá	701	Sololá	2	El tablón	3	Marzo	2023-03-14T00:00:00	2024-11-06T01:00:00	6	Velocidad del viento	3.2
142278	7	Sololá	701	Sololá	2	El tablón	3	Marzo	2023-03-14T00:00:00	2024-11-06T01:00:00	7	Dirección del viento	3.22
142279	7	Sololá	701	Sololá	2	El tablón	3	Marzo	2023-03-14T00:00:00	2024-11-06T01:00:00	1	Precipitación	0
142280	7	Sololá	701	Sololá	2	El tablón	3	Marzo	2023-03-14T00:00:00	2024-11-06T01:00:00	8	Radiación solar	0
142281	7	Sololá	701	Sololá	2	El tablón	3	Marzo	2023-03-14T00:00:00	2024-11-06T02:00:00	2	Temperatura media	12.5
142282	7	Sololá	701	Sololá	2	El tablón	3	Marzo	2023-03-14T00:00:00	2024-11-06T02:00:00	4	Temperatura máxima	12.5
142283	7	Sololá	701	Sololá	2	El tablón	3	Marzo	2023-03-14T00:00:00	2024-11-06T02:00:00	3	Temperatura mínima	10.9
142284	7	Sololá	701	Sololá	2	El tablón	3	Marzo	2023-03-14T00:00:00	2024-11-06T02:00:00	5	Humedad	82
142285	7	Sololá	701	Sololá	2	El tablón	3	Marzo	2023-03-14T00:00:00	2024-11-06T02:00:00	6	Velocidad del viento	6.4
142286	7	Sololá	701	Sololá	2	El tablón	3	Marzo	2023-03-14T00:00:00	2024-11-06T02:00:00	7	Dirección del viento	6.44
142287	7	Sololá	701	Sololá	2	El tablón	3	Marzo	2023-03-14T00:00:00	2024-11-06T02:00:00	1	Precipitación	0
142288	7	Sololá	701	Sololá	2	El tablón	3	Marzo	2023-03-14T00:00:00	2024-11-06T02:00:00	8	Radiación solar	0
142289	7	Sololá	701	Sololá	2	El tablón	3	Marzo	2023-03-14T00:00:00	2024-11-06T03:00:00	2	Temperatura media	13.4
142290	7	Sololá	701	Sololá	2	El tablón	3	Marzo	2023-03-14T00:00:00	2024-11-06T03:00:00	4	Temperatura máxima	13.4
142291	7	Sololá	701	Sololá	2	El tablón	3	Marzo	2023-03-14T00:00:00	2024-11-06T03:00:00	3	Temperatura mínima	12.4
142292	7	Sololá	701	Sololá	2	El tablón	3	Marzo	2023-03-14T00:00:00	2024-11-06T03:00:00	5	Humedad	79
142293	7	Sololá	701	Sololá	2	El tablón	3	Marzo	2023-03-14T00:00:00	2024-11-06T03:00:00	6	Velocidad del viento	3.2
142294	7	Sololá	701	Sololá	2	El tablón	3	Marzo	2023-03-14T00:00:00	2024-11-06T03:00:00	7	Dirección del viento	3.22
142295	7	Sololá	701	Sololá	2	El tablón	3	Marzo	2023-03-14T00:00:00	2024-11-06T03:00:00	1	Precipitación	0
142296	7	Sololá	701	Sololá	2	El tablón	3	Marzo	2023-03-14T00:00:00	2024-11-06T03:00:00	8	Radiación solar	0
142297	7	Sololá	701	Sololá	2	El tablón	3	Marzo	2023-03-14T00:00:00	2024-11-06T04:00:00	2	Temperatura media	12.9
142298	7	Sololá	701	Sololá	2	El tablón	3	Marzo	2023-03-14T00:00:00	2024-11-06T04:00:00	4	Temperatura máxima	13.4
142299	7	Sololá	701	Sololá	2	El tablón	3	Marzo	2023-03-14T00:00:00	2024-11-06T04:00:00	3	Temperatura mínima	12.9
142300	7	Sololá	701	Sololá	2	El tablón	3	Marzo	2023-03-14T00:00:00	2024-11-06T04:00:00	5	Humedad	80
142301	7	Sololá	701	Sololá	2	El tablón	3	Marzo	2023-03-14T00:00:00	2024-11-06T04:00:00	6	Velocidad del viento	4.8
142302	7	Sololá	701	Sololá	2	El tablón	3	Marzo	2023-03-14T00:00:00	2024-11-06T04:00:00	7	Dirección del viento	4.83
142303	7	Sololá	701	Sololá	2	El tablón	3	Marzo	2023-03-14T00:00:00	2024-11-06T04:00:00	1	Precipitación	0
142304	7	Sololá	701	Sololá	2	El tablón	3	Marzo	2023-03-14T00:00:00	2024-11-06T04:00:00	8	Radiación solar	0
142305	7	Sololá	701	Sololá	2	El tablón	3	Marzo	2023-03-14T00:00:00	2024-11-06T05:00:00	2	Temperatura media	12.7
142306	7	Sololá	701	Sololá	2	El tablón	3	Marzo	2023-03-14T00:00:00	2024-11-06T05:00:00	4	Temperatura máxima	12.9
142307	7	Sololá	701	Sololá	2	El tablón	3	Marzo	2023-03-14T00:00:00	2024-11-06T05:00:00	3	Temperatura mínima	12.7
142308	7	Sololá	701	Sololá	2	El tablón	3	Marzo	2023-03-14T00:00:00	2024-11-06T05:00:00	5	Humedad	83
142309	7	Sololá	701	Sololá	2	El tablón	3	Marzo	2023-03-14T00:00:00	2024-11-06T05:00:00	6	Velocidad del viento	6.4
142310	7	Sololá	701	Sololá	2	El tablón	3	Marzo	2023-03-14T00:00:00	2024-11-06T05:00:00	7	Dirección del viento	6.44
142311	7	Sololá	701	Sololá	2	El tablón	3	Marzo	2023-03-14T00:00:00	2024-11-06T05:00:00	1	Precipitación	0
142312	7	Sololá	701	Sololá	2	El tablón	3	Marzo	2023-03-14T00:00:00	2024-11-06T05:00:00	8	Radiación solar	0
142313	7	Sololá	701	Sololá	2	El tablón	3	Marzo	2023-03-14T00:00:00	2024-11-06T06:00:00	2	Temperatura media	11.8
142314	7	Sololá	701	Sololá	2	El tablón	3	Marzo	2023-03-14T00:00:00	2024-11-06T06:00:00	4	Temperatura máxima	12.7
142315	7	Sololá	701	Sololá	2	El tablón	3	Marzo	2023-03-14T00:00:00	2024-11-06T06:00:00	3	Temperatura mínima	11.8
142316	7	Sololá	701	Sololá	2	El tablón	3	Marzo	2023-03-14T00:00:00	2024-11-06T06:00:00	5	Humedad	87
142317	7	Sololá	701	Sololá	2	El tablón	3	Marzo	2023-03-14T00:00:00	2024-11-06T06:00:00	6	Velocidad del viento	6.4
142318	7	Sololá	701	Sololá	2	El tablón	3	Marzo	2023-03-14T00:00:00	2024-11-06T06:00:00	7	Dirección del viento	6.44
142319	7	Sololá	701	Sololá	2	El tablón	3	Marzo	2023-03-14T00:00:00	2024-11-06T06:00:00	1	Precipitación	0
142320	7	Sololá	701	Sololá	2	El tablón	3	Marzo	2023-03-14T00:00:00	2024-11-06T06:00:00	8	Radiación solar	0
142321	7	Sololá	701	Sololá	2	El tablón	3	Marzo	2023-03-14T00:00:00	2024-11-06T07:00:00	2	Temperatura media	12.9
142322	7	Sololá	701	Sololá	2	El tablón	3	Marzo	2023-03-14T00:00:00	2024-11-06T07:00:00	4	Temperatura máxima	12.9
142323	7	Sololá	701	Sololá	2	El tablón	3	Marzo	2023-03-14T00:00:00	2024-11-06T07:00:00	3	Temperatura mínima	11.8
142324	7	Sololá	701	Sololá	2	El tablón	3	Marzo	2023-03-14T00:00:00	2024-11-06T07:00:00	5	Humedad	84
142325	7	Sololá	701	Sololá	2	El tablón	3	Marzo	2023-03-14T00:00:00	2024-11-06T07:00:00	6	Velocidad del viento	4.8
142326	7	Sololá	701	Sololá	2	El tablón	3	Marzo	2023-03-14T00:00:00	2024-11-06T07:00:00	7	Dirección del viento	4.83
142327	7	Sololá	701	Sololá	2	El tablón	3	Marzo	2023-03-14T00:00:00	2024-11-06T07:00:00	1	Precipitación	0
142328	7	Sololá	701	Sololá	2	El tablón	3	Marzo	2023-03-14T00:00:00	2024-11-06T07:00:00	8	Radiación solar	32
142329	7	Sololá	701	Sololá	2	El tablón	3	Marzo	2023-03-14T00:00:00	2024-11-06T08:00:00	2	Temperatura media	15.1
142330	7	Sololá	701	Sololá	2	El tablón	3	Marzo	2023-03-14T00:00:00	2024-11-06T08:00:00	4	Temperatura máxima	15.1
142331	7	Sololá	701	Sololá	2	El tablón	3	Marzo	2023-03-14T00:00:00	2024-11-06T08:00:00	3	Temperatura mínima	12.9
142332	7	Sololá	701	Sololá	2	El tablón	3	Marzo	2023-03-14T00:00:00	2024-11-06T08:00:00	5	Humedad	79
142333	7	Sololá	701	Sololá	2	El tablón	3	Marzo	2023-03-14T00:00:00	2024-11-06T08:00:00	6	Velocidad del viento	3.2
142334	7	Sololá	701	Sololá	2	El tablón	3	Marzo	2023-03-14T00:00:00	2024-11-06T08:00:00	7	Dirección del viento	3.22
142335	7	Sololá	701	Sololá	2	El tablón	3	Marzo	2023-03-14T00:00:00	2024-11-06T08:00:00	1	Precipitación	0
142336	7	Sololá	701	Sololá	2	El tablón	3	Marzo	2023-03-14T00:00:00	2024-11-06T08:00:00	8	Radiación solar	179
142337	7	Sololá	701	Sololá	2	El tablón	3	Marzo	2023-03-14T00:00:00	2024-11-06T09:00:00	2	Temperatura media	15.6
142338	7	Sololá	701	Sololá	2	El tablón	3	Marzo	2023-03-14T00:00:00	2024-11-06T09:00:00	4	Temperatura máxima	15.9
142339	7	Sololá	701	Sololá	2	El tablón	3	Marzo	2023-03-14T00:00:00	2024-11-06T09:00:00	3	Temperatura mínima	15.2
142340	7	Sololá	701	Sololá	2	El tablón	3	Marzo	2023-03-14T00:00:00	2024-11-06T09:00:00	5	Humedad	78
142341	7	Sololá	701	Sololá	2	El tablón	3	Marzo	2023-03-14T00:00:00	2024-11-06T09:00:00	6	Velocidad del viento	3.2
142342	7	Sololá	701	Sololá	2	El tablón	3	Marzo	2023-03-14T00:00:00	2024-11-06T09:00:00	7	Dirección del viento	3.22
142343	7	Sololá	701	Sololá	2	El tablón	3	Marzo	2023-03-14T00:00:00	2024-11-06T09:00:00	1	Precipitación	0
142344	7	Sololá	701	Sololá	2	El tablón	3	Marzo	2023-03-14T00:00:00	2024-11-06T09:00:00	8	Radiación solar	221
142345	7	Sololá	701	Sololá	2	El tablón	3	Marzo	2023-03-14T00:00:00	2024-11-06T10:00:00	2	Temperatura media	16.9
142346	7	Sololá	701	Sololá	2	El tablón	3	Marzo	2023-03-14T00:00:00	2024-11-06T10:00:00	4	Temperatura máxima	17.5
142347	7	Sololá	701	Sololá	2	El tablón	3	Marzo	2023-03-14T00:00:00	2024-11-06T10:00:00	3	Temperatura mínima	15.5
142348	7	Sololá	701	Sololá	2	El tablón	3	Marzo	2023-03-14T00:00:00	2024-11-06T10:00:00	5	Humedad	75
142349	7	Sololá	701	Sololá	2	El tablón	3	Marzo	2023-03-14T00:00:00	2024-11-06T10:00:00	6	Velocidad del viento	4.8
142350	7	Sololá	701	Sololá	2	El tablón	3	Marzo	2023-03-14T00:00:00	2024-11-06T10:00:00	7	Dirección del viento	4.83
142351	7	Sololá	701	Sololá	2	El tablón	3	Marzo	2023-03-14T00:00:00	2024-11-06T10:00:00	1	Precipitación	0
142352	7	Sololá	701	Sololá	2	El tablón	3	Marzo	2023-03-14T00:00:00	2024-11-06T10:00:00	8	Radiación solar	543
142353	7	Sololá	701	Sololá	2	El tablón	3	Marzo	2023-03-14T00:00:00	2024-11-06T11:00:00	2	Temperatura media	16.6
142354	7	Sololá	701	Sololá	2	El tablón	3	Marzo	2023-03-14T00:00:00	2024-11-06T11:00:00	4	Temperatura máxima	17.3
142355	7	Sololá	701	Sololá	2	El tablón	3	Marzo	2023-03-14T00:00:00	2024-11-06T11:00:00	3	Temperatura mínima	16.6
142356	7	Sololá	701	Sololá	2	El tablón	3	Marzo	2023-03-14T00:00:00	2024-11-06T11:00:00	5	Humedad	75
142357	7	Sololá	701	Sololá	2	El tablón	3	Marzo	2023-03-14T00:00:00	2024-11-06T11:00:00	6	Velocidad del viento	6.4
142358	7	Sololá	701	Sololá	2	El tablón	3	Marzo	2023-03-14T00:00:00	2024-11-06T11:00:00	7	Dirección del viento	6.44
142359	7	Sololá	701	Sololá	2	El tablón	3	Marzo	2023-03-14T00:00:00	2024-11-06T11:00:00	1	Precipitación	0
142360	7	Sololá	701	Sololá	2	El tablón	3	Marzo	2023-03-14T00:00:00	2024-11-06T11:00:00	8	Radiación solar	271
142361	7	Sololá	701	Sololá	2	El tablón	3	Marzo	2023-03-14T00:00:00	2024-11-06T12:00:00	2	Temperatura media	18.6
142362	7	Sololá	701	Sololá	2	El tablón	3	Marzo	2023-03-14T00:00:00	2024-11-06T12:00:00	4	Temperatura máxima	19.1
142363	7	Sololá	701	Sololá	2	El tablón	3	Marzo	2023-03-14T00:00:00	2024-11-06T12:00:00	3	Temperatura mínima	16.6
142364	7	Sololá	701	Sololá	2	El tablón	3	Marzo	2023-03-14T00:00:00	2024-11-06T12:00:00	5	Humedad	69
142365	7	Sololá	701	Sololá	2	El tablón	3	Marzo	2023-03-14T00:00:00	2024-11-06T12:00:00	6	Velocidad del viento	8
142366	7	Sololá	701	Sololá	2	El tablón	3	Marzo	2023-03-14T00:00:00	2024-11-06T12:00:00	7	Dirección del viento	8.05
142367	7	Sololá	701	Sololá	2	El tablón	3	Marzo	2023-03-14T00:00:00	2024-11-06T12:00:00	1	Precipitación	0
142368	7	Sololá	701	Sololá	2	El tablón	3	Marzo	2023-03-14T00:00:00	2024-11-06T12:00:00	8	Radiación solar	864
142369	7	Sololá	701	Sololá	2	El tablón	3	Marzo	2023-03-14T00:00:00	2024-11-06T13:00:00	2	Temperatura media	18.1
142370	7	Sololá	701	Sololá	2	El tablón	3	Marzo	2023-03-14T00:00:00	2024-11-06T13:00:00	4	Temperatura máxima	18.7
142371	7	Sololá	701	Sololá	2	El tablón	3	Marzo	2023-03-14T00:00:00	2024-11-06T13:00:00	3	Temperatura mínima	17.8
142372	7	Sololá	701	Sololá	2	El tablón	3	Marzo	2023-03-14T00:00:00	2024-11-06T13:00:00	5	Humedad	80
142373	7	Sololá	701	Sololá	2	El tablón	3	Marzo	2023-03-14T00:00:00	2024-11-06T13:00:00	6	Velocidad del viento	9.7
142374	7	Sololá	701	Sololá	2	El tablón	3	Marzo	2023-03-14T00:00:00	2024-11-06T13:00:00	7	Dirección del viento	9.66
142375	7	Sololá	701	Sololá	2	El tablón	3	Marzo	2023-03-14T00:00:00	2024-11-06T13:00:00	1	Precipitación	0
142376	7	Sololá	701	Sololá	2	El tablón	3	Marzo	2023-03-14T00:00:00	2024-11-06T13:00:00	8	Radiación solar	988
142377	7	Sololá	701	Sololá	2	El tablón	3	Marzo	2023-03-14T00:00:00	2024-11-06T14:00:00	2	Temperatura media	17.2
142378	7	Sololá	701	Sololá	2	El tablón	3	Marzo	2023-03-14T00:00:00	2024-11-06T14:00:00	4	Temperatura máxima	18.6
142379	7	Sololá	701	Sololá	2	El tablón	3	Marzo	2023-03-14T00:00:00	2024-11-06T14:00:00	3	Temperatura mínima	17.2
142380	7	Sololá	701	Sololá	2	El tablón	3	Marzo	2023-03-14T00:00:00	2024-11-06T14:00:00	5	Humedad	83
142381	7	Sololá	701	Sololá	2	El tablón	3	Marzo	2023-03-14T00:00:00	2024-11-06T14:00:00	6	Velocidad del viento	9.7
142382	7	Sololá	701	Sololá	2	El tablón	3	Marzo	2023-03-14T00:00:00	2024-11-06T14:00:00	7	Dirección del viento	9.66
142383	7	Sololá	701	Sololá	2	El tablón	3	Marzo	2023-03-14T00:00:00	2024-11-06T14:00:00	1	Precipitación	0
142384	7	Sololá	701	Sololá	2	El tablón	3	Marzo	2023-03-14T00:00:00	2024-11-06T14:00:00	8	Radiación solar	486
142385	7	Sololá	701	Sololá	2	El tablón	3	Marzo	2023-03-14T00:00:00	2024-11-06T15:00:00	2	Temperatura media	16.1
142386	7	Sololá	701	Sololá	2	El tablón	3	Marzo	2023-03-14T00:00:00	2024-11-06T15:00:00	4	Temperatura máxima	17.2
142387	7	Sololá	701	Sololá	2	El tablón	3	Marzo	2023-03-14T00:00:00	2024-11-06T15:00:00	3	Temperatura mínima	16.1
142388	7	Sololá	701	Sololá	2	El tablón	3	Marzo	2023-03-14T00:00:00	2024-11-06T15:00:00	5	Humedad	87
142389	7	Sololá	701	Sololá	2	El tablón	3	Marzo	2023-03-14T00:00:00	2024-11-06T15:00:00	6	Velocidad del viento	8
142390	7	Sololá	701	Sololá	2	El tablón	3	Marzo	2023-03-14T00:00:00	2024-11-06T15:00:00	7	Dirección del viento	8.05
142391	7	Sololá	701	Sololá	2	El tablón	3	Marzo	2023-03-14T00:00:00	2024-11-06T15:00:00	1	Precipitación	0
142392	7	Sololá	701	Sololá	2	El tablón	3	Marzo	2023-03-14T00:00:00	2024-11-06T15:00:00	8	Radiación solar	281
142393	7	Sololá	701	Sololá	2	El tablón	3	Marzo	2023-03-14T00:00:00	2024-11-06T16:00:00	2	Temperatura media	14.8
142394	7	Sololá	701	Sololá	2	El tablón	3	Marzo	2023-03-14T00:00:00	2024-11-06T16:00:00	4	Temperatura máxima	16.1
142395	7	Sololá	701	Sololá	2	El tablón	3	Marzo	2023-03-14T00:00:00	2024-11-06T16:00:00	3	Temperatura mínima	14.8
142396	7	Sololá	701	Sololá	2	El tablón	3	Marzo	2023-03-14T00:00:00	2024-11-06T16:00:00	5	Humedad	89
142397	7	Sololá	701	Sololá	2	El tablón	3	Marzo	2023-03-14T00:00:00	2024-11-06T16:00:00	6	Velocidad del viento	6.4
142398	7	Sololá	701	Sololá	2	El tablón	3	Marzo	2023-03-14T00:00:00	2024-11-06T16:00:00	7	Dirección del viento	6.44
142399	7	Sololá	701	Sololá	2	El tablón	3	Marzo	2023-03-14T00:00:00	2024-11-06T16:00:00	1	Precipitación	0
142400	7	Sololá	701	Sololá	2	El tablón	3	Marzo	2023-03-14T00:00:00	2024-11-06T16:00:00	8	Radiación solar	108
142401	7	Sololá	701	Sololá	2	El tablón	3	Marzo	2023-03-14T00:00:00	2024-11-06T17:00:00	2	Temperatura media	14.8
142402	7	Sololá	701	Sololá	2	El tablón	3	Marzo	2023-03-14T00:00:00	2024-11-06T17:00:00	4	Temperatura máxima	15.2
142403	7	Sololá	701	Sololá	2	El tablón	3	Marzo	2023-03-14T00:00:00	2024-11-06T17:00:00	3	Temperatura mínima	14.6
142404	7	Sololá	701	Sololá	2	El tablón	3	Marzo	2023-03-14T00:00:00	2024-11-06T17:00:00	5	Humedad	89
142405	7	Sololá	701	Sololá	2	El tablón	3	Marzo	2023-03-14T00:00:00	2024-11-06T17:00:00	6	Velocidad del viento	3.2
142406	7	Sololá	701	Sololá	2	El tablón	3	Marzo	2023-03-14T00:00:00	2024-11-06T17:00:00	7	Dirección del viento	3.22
142407	7	Sololá	701	Sololá	2	El tablón	3	Marzo	2023-03-14T00:00:00	2024-11-06T17:00:00	1	Precipitación	0
142408	7	Sololá	701	Sololá	2	El tablón	3	Marzo	2023-03-14T00:00:00	2024-11-06T17:00:00	8	Radiación solar	130
142409	7	Sololá	701	Sololá	2	El tablón	3	Marzo	2023-03-14T00:00:00	2024-11-06T18:00:00	2	Temperatura media	14.6
142410	7	Sololá	701	Sololá	2	El tablón	3	Marzo	2023-03-14T00:00:00	2024-11-06T18:00:00	4	Temperatura máxima	14.8
142411	7	Sololá	701	Sololá	2	El tablón	3	Marzo	2023-03-14T00:00:00	2024-11-06T18:00:00	3	Temperatura mínima	14.4
142412	7	Sololá	701	Sololá	2	El tablón	3	Marzo	2023-03-14T00:00:00	2024-11-06T18:00:00	5	Humedad	89
142413	7	Sololá	701	Sololá	2	El tablón	3	Marzo	2023-03-14T00:00:00	2024-11-06T18:00:00	6	Velocidad del viento	1.6
142414	7	Sololá	701	Sololá	2	El tablón	3	Marzo	2023-03-14T00:00:00	2024-11-06T18:00:00	7	Dirección del viento	1.61
142415	7	Sololá	701	Sololá	2	El tablón	3	Marzo	2023-03-14T00:00:00	2024-11-06T18:00:00	1	Precipitación	0
142416	7	Sololá	701	Sololá	2	El tablón	3	Marzo	2023-03-14T00:00:00	2024-11-06T18:00:00	8	Radiación solar	53
142417	7	Sololá	701	Sololá	2	El tablón	3	Marzo	2023-03-14T00:00:00	2024-11-06T19:00:00	2	Temperatura media	13.9
142418	7	Sololá	701	Sololá	2	El tablón	3	Marzo	2023-03-14T00:00:00	2024-11-06T19:00:00	4	Temperatura máxima	14.6
142419	7	Sololá	701	Sololá	2	El tablón	3	Marzo	2023-03-14T00:00:00	2024-11-06T19:00:00	3	Temperatura mínima	13.9
142420	7	Sololá	701	Sololá	2	El tablón	3	Marzo	2023-03-14T00:00:00	2024-11-06T19:00:00	5	Humedad	89
142421	7	Sololá	701	Sololá	2	El tablón	3	Marzo	2023-03-14T00:00:00	2024-11-06T19:00:00	6	Velocidad del viento	0
142422	7	Sololá	701	Sololá	2	El tablón	3	Marzo	2023-03-14T00:00:00	2024-11-06T19:00:00	7	Dirección del viento	0
142423	7	Sololá	701	Sololá	2	El tablón	3	Marzo	2023-03-14T00:00:00	2024-11-06T19:00:00	1	Precipitación	0
142424	7	Sololá	701	Sololá	2	El tablón	3	Marzo	2023-03-14T00:00:00	2024-11-06T19:00:00	8	Radiación solar	0
142425	7	Sololá	701	Sololá	2	El tablón	3	Marzo	2023-03-14T00:00:00	2024-11-06T20:00:00	2	Temperatura media	13.6
142426	7	Sololá	701	Sololá	2	El tablón	3	Marzo	2023-03-14T00:00:00	2024-11-06T20:00:00	4	Temperatura máxima	13.8
142427	7	Sololá	701	Sololá	2	El tablón	3	Marzo	2023-03-14T00:00:00	2024-11-06T20:00:00	3	Temperatura mínima	13.6
142428	7	Sololá	701	Sololá	2	El tablón	3	Marzo	2023-03-14T00:00:00	2024-11-06T20:00:00	5	Humedad	89
142429	7	Sololá	701	Sololá	2	El tablón	3	Marzo	2023-03-14T00:00:00	2024-11-06T20:00:00	6	Velocidad del viento	0
142430	7	Sololá	701	Sololá	2	El tablón	3	Marzo	2023-03-14T00:00:00	2024-11-06T20:00:00	7	Dirección del viento	0
142431	7	Sololá	701	Sololá	2	El tablón	3	Marzo	2023-03-14T00:00:00	2024-11-06T20:00:00	1	Precipitación	0
142432	7	Sololá	701	Sololá	2	El tablón	3	Marzo	2023-03-14T00:00:00	2024-11-06T20:00:00	8	Radiación solar	0
142433	7	Sololá	701	Sololá	2	El tablón	3	Marzo	2023-03-14T00:00:00	2024-11-06T21:00:00	2	Temperatura media	12.4
142434	7	Sololá	701	Sololá	2	El tablón	3	Marzo	2023-03-14T00:00:00	2024-11-06T21:00:00	4	Temperatura máxima	13.6
142435	7	Sololá	701	Sololá	2	El tablón	3	Marzo	2023-03-14T00:00:00	2024-11-06T21:00:00	3	Temperatura mínima	12.4
142436	7	Sololá	701	Sololá	2	El tablón	3	Marzo	2023-03-14T00:00:00	2024-11-06T21:00:00	5	Humedad	89
142437	7	Sololá	701	Sololá	2	El tablón	3	Marzo	2023-03-14T00:00:00	2024-11-06T21:00:00	6	Velocidad del viento	1.6
142438	7	Sololá	701	Sololá	2	El tablón	3	Marzo	2023-03-14T00:00:00	2024-11-06T21:00:00	7	Dirección del viento	1.61
142439	7	Sololá	701	Sololá	2	El tablón	3	Marzo	2023-03-14T00:00:00	2024-11-06T21:00:00	1	Precipitación	0
142440	7	Sololá	701	Sololá	2	El tablón	3	Marzo	2023-03-14T00:00:00	2024-11-06T21:00:00	8	Radiación solar	0
142441	7	Sololá	701	Sololá	2	El tablón	3	Marzo	2023-03-14T00:00:00	2024-11-06T22:00:00	2	Temperatura media	11.5
142442	7	Sololá	701	Sololá	2	El tablón	3	Marzo	2023-03-14T00:00:00	2024-11-06T22:00:00	4	Temperatura máxima	12.4
142443	7	Sololá	701	Sololá	2	El tablón	3	Marzo	2023-03-14T00:00:00	2024-11-06T22:00:00	3	Temperatura mínima	11.5
142444	7	Sololá	701	Sololá	2	El tablón	3	Marzo	2023-03-14T00:00:00	2024-11-06T22:00:00	5	Humedad	87
142445	7	Sololá	701	Sololá	2	El tablón	3	Marzo	2023-03-14T00:00:00	2024-11-06T22:00:00	6	Velocidad del viento	3.2
142446	7	Sololá	701	Sololá	2	El tablón	3	Marzo	2023-03-14T00:00:00	2024-11-06T22:00:00	7	Dirección del viento	3.22
142447	7	Sololá	701	Sololá	2	El tablón	3	Marzo	2023-03-14T00:00:00	2024-11-06T22:00:00	1	Precipitación	0
142448	7	Sololá	701	Sololá	2	El tablón	3	Marzo	2023-03-14T00:00:00	2024-11-06T22:00:00	8	Radiación solar	0
142449	7	Sololá	701	Sololá	2	El tablón	3	Marzo	2023-03-14T00:00:00	2024-11-06T23:00:00	2	Temperatura media	12.4
142450	7	Sololá	701	Sololá	2	El tablón	3	Marzo	2023-03-14T00:00:00	2024-11-06T23:00:00	4	Temperatura máxima	12.5
142451	7	Sololá	701	Sololá	2	El tablón	3	Marzo	2023-03-14T00:00:00	2024-11-06T23:00:00	3	Temperatura mínima	11.4
142452	7	Sololá	701	Sololá	2	El tablón	3	Marzo	2023-03-14T00:00:00	2024-11-06T23:00:00	5	Humedad	84
142453	7	Sololá	701	Sololá	2	El tablón	3	Marzo	2023-03-14T00:00:00	2024-11-06T23:00:00	6	Velocidad del viento	4.8
142454	7	Sololá	701	Sololá	2	El tablón	3	Marzo	2023-03-14T00:00:00	2024-11-06T23:00:00	7	Dirección del viento	4.83
142455	7	Sololá	701	Sololá	2	El tablón	3	Marzo	2023-03-14T00:00:00	2024-11-06T23:00:00	1	Precipitación	0
142456	7	Sololá	701	Sololá	2	El tablón	3	Marzo	2023-03-14T00:00:00	2024-11-06T23:00:00	8	Radiación solar	0
142457	7	Sololá	701	Sololá	2	El tablón	3	Marzo	2023-03-15T00:00:00	2024-11-06T00:00:00	2	Temperatura media	13.1
142458	7	Sololá	701	Sololá	2	El tablón	3	Marzo	2023-03-15T00:00:00	2024-11-06T00:00:00	4	Temperatura máxima	13.1
142459	7	Sololá	701	Sololá	2	El tablón	3	Marzo	2023-03-15T00:00:00	2024-11-06T00:00:00	3	Temperatura mínima	12.4
142460	7	Sololá	701	Sololá	2	El tablón	3	Marzo	2023-03-15T00:00:00	2024-11-06T00:00:00	5	Humedad	75
142461	7	Sololá	701	Sololá	2	El tablón	3	Marzo	2023-03-15T00:00:00	2024-11-06T00:00:00	6	Velocidad del viento	4.8
142462	7	Sololá	701	Sololá	2	El tablón	3	Marzo	2023-03-15T00:00:00	2024-11-06T00:00:00	7	Dirección del viento	4.83
142463	7	Sololá	701	Sololá	2	El tablón	3	Marzo	2023-03-15T00:00:00	2024-11-06T00:00:00	1	Precipitación	0
142464	7	Sololá	701	Sololá	2	El tablón	3	Marzo	2023-03-15T00:00:00	2024-11-06T00:00:00	8	Radiación solar	0
142465	7	Sololá	701	Sololá	2	El tablón	3	Marzo	2023-03-15T00:00:00	2024-11-06T01:00:00	2	Temperatura media	12.7
142466	7	Sololá	701	Sololá	2	El tablón	3	Marzo	2023-03-15T00:00:00	2024-11-06T01:00:00	4	Temperatura máxima	13.2
142467	7	Sololá	701	Sololá	2	El tablón	3	Marzo	2023-03-15T00:00:00	2024-11-06T01:00:00	3	Temperatura mínima	11.5
142468	7	Sololá	701	Sololá	2	El tablón	3	Marzo	2023-03-15T00:00:00	2024-11-06T01:00:00	5	Humedad	78
142469	7	Sololá	701	Sololá	2	El tablón	3	Marzo	2023-03-15T00:00:00	2024-11-06T01:00:00	6	Velocidad del viento	3.2
142470	7	Sololá	701	Sololá	2	El tablón	3	Marzo	2023-03-15T00:00:00	2024-11-06T01:00:00	7	Dirección del viento	3.22
142471	7	Sololá	701	Sololá	2	El tablón	3	Marzo	2023-03-15T00:00:00	2024-11-06T01:00:00	1	Precipitación	0
142472	7	Sololá	701	Sololá	2	El tablón	3	Marzo	2023-03-15T00:00:00	2024-11-06T01:00:00	8	Radiación solar	0
142473	7	Sololá	701	Sololá	2	El tablón	3	Marzo	2023-03-15T00:00:00	2024-11-06T02:00:00	2	Temperatura media	12.4
142474	7	Sololá	701	Sololá	2	El tablón	3	Marzo	2023-03-15T00:00:00	2024-11-06T02:00:00	4	Temperatura máxima	12.8
142475	7	Sololá	701	Sololá	2	El tablón	3	Marzo	2023-03-15T00:00:00	2024-11-06T02:00:00	3	Temperatura mínima	12.4
142476	7	Sololá	701	Sololá	2	El tablón	3	Marzo	2023-03-15T00:00:00	2024-11-06T02:00:00	5	Humedad	86
142477	7	Sololá	701	Sololá	2	El tablón	3	Marzo	2023-03-15T00:00:00	2024-11-06T02:00:00	6	Velocidad del viento	4.8
142478	7	Sololá	701	Sololá	2	El tablón	3	Marzo	2023-03-15T00:00:00	2024-11-06T02:00:00	7	Dirección del viento	4.83
142479	7	Sololá	701	Sololá	2	El tablón	3	Marzo	2023-03-15T00:00:00	2024-11-06T02:00:00	1	Precipitación	0
142480	7	Sololá	701	Sololá	2	El tablón	3	Marzo	2023-03-15T00:00:00	2024-11-06T02:00:00	8	Radiación solar	0
142481	7	Sololá	701	Sololá	2	El tablón	3	Marzo	2023-03-15T00:00:00	2024-11-06T03:00:00	2	Temperatura media	11.7
142482	7	Sololá	701	Sololá	2	El tablón	3	Marzo	2023-03-15T00:00:00	2024-11-06T03:00:00	4	Temperatura máxima	12.4
142483	7	Sololá	701	Sololá	2	El tablón	3	Marzo	2023-03-15T00:00:00	2024-11-06T03:00:00	3	Temperatura mínima	11.7
142484	7	Sololá	701	Sololá	2	El tablón	3	Marzo	2023-03-15T00:00:00	2024-11-06T03:00:00	5	Humedad	88
142485	7	Sololá	701	Sololá	2	El tablón	3	Marzo	2023-03-15T00:00:00	2024-11-06T03:00:00	6	Velocidad del viento	3.2
142486	7	Sololá	701	Sololá	2	El tablón	3	Marzo	2023-03-15T00:00:00	2024-11-06T03:00:00	7	Dirección del viento	3.22
142487	7	Sololá	701	Sololá	2	El tablón	3	Marzo	2023-03-15T00:00:00	2024-11-06T03:00:00	1	Precipitación	0
142488	7	Sololá	701	Sololá	2	El tablón	3	Marzo	2023-03-15T00:00:00	2024-11-06T03:00:00	8	Radiación solar	0
142489	7	Sololá	701	Sololá	2	El tablón	3	Marzo	2023-03-15T00:00:00	2024-11-06T04:00:00	2	Temperatura media	11.3
142490	7	Sololá	701	Sololá	2	El tablón	3	Marzo	2023-03-15T00:00:00	2024-11-06T04:00:00	4	Temperatura máxima	11.8
142491	7	Sololá	701	Sololá	2	El tablón	3	Marzo	2023-03-15T00:00:00	2024-11-06T04:00:00	3	Temperatura mínima	11.3
142492	7	Sololá	701	Sololá	2	El tablón	3	Marzo	2023-03-15T00:00:00	2024-11-06T04:00:00	5	Humedad	87
142493	7	Sololá	701	Sololá	2	El tablón	3	Marzo	2023-03-15T00:00:00	2024-11-06T04:00:00	6	Velocidad del viento	1.6
142494	7	Sololá	701	Sololá	2	El tablón	3	Marzo	2023-03-15T00:00:00	2024-11-06T04:00:00	7	Dirección del viento	1.61
142495	7	Sololá	701	Sololá	2	El tablón	3	Marzo	2023-03-15T00:00:00	2024-11-06T04:00:00	1	Precipitación	0
142496	7	Sololá	701	Sololá	2	El tablón	3	Marzo	2023-03-15T00:00:00	2024-11-06T04:00:00	8	Radiación solar	0
142497	7	Sololá	701	Sololá	2	El tablón	3	Marzo	2023-03-15T00:00:00	2024-11-06T05:00:00	2	Temperatura media	10.6
142498	7	Sololá	701	Sololá	2	El tablón	3	Marzo	2023-03-15T00:00:00	2024-11-06T05:00:00	4	Temperatura máxima	11.3
142499	7	Sololá	701	Sololá	2	El tablón	3	Marzo	2023-03-15T00:00:00	2024-11-06T05:00:00	3	Temperatura mínima	10.6
142500	7	Sololá	701	Sololá	2	El tablón	3	Marzo	2023-03-15T00:00:00	2024-11-06T05:00:00	5	Humedad	88
142501	7	Sololá	701	Sololá	2	El tablón	3	Marzo	2023-03-15T00:00:00	2024-11-06T05:00:00	6	Velocidad del viento	1.6
142502	7	Sololá	701	Sololá	2	El tablón	3	Marzo	2023-03-15T00:00:00	2024-11-06T05:00:00	7	Dirección del viento	1.61
142503	7	Sololá	701	Sololá	2	El tablón	3	Marzo	2023-03-15T00:00:00	2024-11-06T05:00:00	1	Precipitación	0
142504	7	Sololá	701	Sololá	2	El tablón	3	Marzo	2023-03-15T00:00:00	2024-11-06T05:00:00	8	Radiación solar	0
142505	7	Sololá	701	Sololá	2	El tablón	3	Marzo	2023-03-15T00:00:00	2024-11-06T06:00:00	2	Temperatura media	11.8
142506	7	Sololá	701	Sololá	2	El tablón	3	Marzo	2023-03-15T00:00:00	2024-11-06T06:00:00	4	Temperatura máxima	11.9
142507	7	Sololá	701	Sololá	2	El tablón	3	Marzo	2023-03-15T00:00:00	2024-11-06T06:00:00	3	Temperatura mínima	10.5
142508	7	Sololá	701	Sololá	2	El tablón	3	Marzo	2023-03-15T00:00:00	2024-11-06T06:00:00	5	Humedad	85
142509	7	Sololá	701	Sololá	2	El tablón	3	Marzo	2023-03-15T00:00:00	2024-11-06T06:00:00	6	Velocidad del viento	6.4
142510	7	Sololá	701	Sololá	2	El tablón	3	Marzo	2023-03-15T00:00:00	2024-11-06T06:00:00	7	Dirección del viento	6.44
142511	7	Sololá	701	Sololá	2	El tablón	3	Marzo	2023-03-15T00:00:00	2024-11-06T06:00:00	1	Precipitación	0
142512	7	Sololá	701	Sololá	2	El tablón	3	Marzo	2023-03-15T00:00:00	2024-11-06T06:00:00	8	Radiación solar	0
142513	7	Sololá	701	Sololá	2	El tablón	3	Marzo	2023-03-15T00:00:00	2024-11-06T07:00:00	2	Temperatura media	11.9
142514	7	Sololá	701	Sololá	2	El tablón	3	Marzo	2023-03-15T00:00:00	2024-11-06T07:00:00	4	Temperatura máxima	11.9
142515	7	Sololá	701	Sololá	2	El tablón	3	Marzo	2023-03-15T00:00:00	2024-11-06T07:00:00	3	Temperatura mínima	11.5
142516	7	Sololá	701	Sololá	2	El tablón	3	Marzo	2023-03-15T00:00:00	2024-11-06T07:00:00	5	Humedad	86
142517	7	Sololá	701	Sololá	2	El tablón	3	Marzo	2023-03-15T00:00:00	2024-11-06T07:00:00	6	Velocidad del viento	9.7
142518	7	Sololá	701	Sololá	2	El tablón	3	Marzo	2023-03-15T00:00:00	2024-11-06T07:00:00	7	Dirección del viento	9.66
142519	7	Sololá	701	Sololá	2	El tablón	3	Marzo	2023-03-15T00:00:00	2024-11-06T07:00:00	1	Precipitación	0
142520	7	Sololá	701	Sololá	2	El tablón	3	Marzo	2023-03-15T00:00:00	2024-11-06T07:00:00	8	Radiación solar	16
142521	7	Sololá	701	Sololá	2	El tablón	3	Marzo	2023-03-15T00:00:00	2024-11-06T08:00:00	2	Temperatura media	14.7
142522	7	Sololá	701	Sololá	2	El tablón	3	Marzo	2023-03-15T00:00:00	2024-11-06T08:00:00	4	Temperatura máxima	14.7
142523	7	Sololá	701	Sololá	2	El tablón	3	Marzo	2023-03-15T00:00:00	2024-11-06T08:00:00	3	Temperatura mínima	11.9
142524	7	Sololá	701	Sololá	2	El tablón	3	Marzo	2023-03-15T00:00:00	2024-11-06T08:00:00	5	Humedad	77
142525	7	Sololá	701	Sololá	2	El tablón	3	Marzo	2023-03-15T00:00:00	2024-11-06T08:00:00	6	Velocidad del viento	9.7
142526	7	Sololá	701	Sololá	2	El tablón	3	Marzo	2023-03-15T00:00:00	2024-11-06T08:00:00	7	Dirección del viento	9.66
142527	7	Sololá	701	Sololá	2	El tablón	3	Marzo	2023-03-15T00:00:00	2024-11-06T08:00:00	1	Precipitación	0
142528	7	Sololá	701	Sololá	2	El tablón	3	Marzo	2023-03-15T00:00:00	2024-11-06T08:00:00	8	Radiación solar	152
142529	7	Sololá	701	Sololá	2	El tablón	3	Marzo	2023-03-15T00:00:00	2024-11-06T09:00:00	2	Temperatura media	15.9
142530	7	Sololá	701	Sololá	2	El tablón	3	Marzo	2023-03-15T00:00:00	2024-11-06T09:00:00	4	Temperatura máxima	16
142531	7	Sololá	701	Sololá	2	El tablón	3	Marzo	2023-03-15T00:00:00	2024-11-06T09:00:00	3	Temperatura mínima	14.7
142532	7	Sololá	701	Sololá	2	El tablón	3	Marzo	2023-03-15T00:00:00	2024-11-06T09:00:00	5	Humedad	74
142533	7	Sololá	701	Sololá	2	El tablón	3	Marzo	2023-03-15T00:00:00	2024-11-06T09:00:00	6	Velocidad del viento	8
142534	7	Sololá	701	Sololá	2	El tablón	3	Marzo	2023-03-15T00:00:00	2024-11-06T09:00:00	7	Dirección del viento	8.05
142535	7	Sololá	701	Sololá	2	El tablón	3	Marzo	2023-03-15T00:00:00	2024-11-06T09:00:00	1	Precipitación	0
142536	7	Sololá	701	Sololá	2	El tablón	3	Marzo	2023-03-15T00:00:00	2024-11-06T09:00:00	8	Radiación solar	356
142537	7	Sololá	701	Sololá	2	El tablón	3	Marzo	2023-03-15T00:00:00	2024-11-06T10:00:00	2	Temperatura media	16.7
142538	7	Sololá	701	Sololá	2	El tablón	3	Marzo	2023-03-15T00:00:00	2024-11-06T10:00:00	4	Temperatura máxima	17
142539	7	Sololá	701	Sololá	2	El tablón	3	Marzo	2023-03-15T00:00:00	2024-11-06T10:00:00	3	Temperatura mínima	15.5
142540	7	Sololá	701	Sololá	2	El tablón	3	Marzo	2023-03-15T00:00:00	2024-11-06T10:00:00	5	Humedad	70
142541	7	Sololá	701	Sololá	2	El tablón	3	Marzo	2023-03-15T00:00:00	2024-11-06T10:00:00	6	Velocidad del viento	9.7
142542	7	Sololá	701	Sololá	2	El tablón	3	Marzo	2023-03-15T00:00:00	2024-11-06T10:00:00	7	Dirección del viento	9.66
142543	7	Sololá	701	Sololá	2	El tablón	3	Marzo	2023-03-15T00:00:00	2024-11-06T10:00:00	1	Precipitación	0
142544	7	Sololá	701	Sololá	2	El tablón	3	Marzo	2023-03-15T00:00:00	2024-11-06T10:00:00	8	Radiación solar	417
142545	7	Sololá	701	Sololá	2	El tablón	3	Marzo	2023-03-15T00:00:00	2024-11-06T11:00:00	2	Temperatura media	18.2
142546	7	Sololá	701	Sololá	2	El tablón	3	Marzo	2023-03-15T00:00:00	2024-11-06T11:00:00	4	Temperatura máxima	18.3
142547	7	Sololá	701	Sololá	2	El tablón	3	Marzo	2023-03-15T00:00:00	2024-11-06T11:00:00	3	Temperatura mínima	16.5
142548	7	Sololá	701	Sololá	2	El tablón	3	Marzo	2023-03-15T00:00:00	2024-11-06T11:00:00	5	Humedad	62
142549	7	Sololá	701	Sololá	2	El tablón	3	Marzo	2023-03-15T00:00:00	2024-11-06T11:00:00	6	Velocidad del viento	11.3
142550	7	Sololá	701	Sololá	2	El tablón	3	Marzo	2023-03-15T00:00:00	2024-11-06T11:00:00	7	Dirección del viento	11.27
142551	7	Sololá	701	Sololá	2	El tablón	3	Marzo	2023-03-15T00:00:00	2024-11-06T11:00:00	1	Precipitación	0
142552	7	Sololá	701	Sololá	2	El tablón	3	Marzo	2023-03-15T00:00:00	2024-11-06T11:00:00	8	Radiación solar	815
142553	7	Sololá	701	Sololá	2	El tablón	3	Marzo	2023-03-15T00:00:00	2024-11-06T12:00:00	2	Temperatura media	19.6
142554	7	Sololá	701	Sololá	2	El tablón	3	Marzo	2023-03-15T00:00:00	2024-11-06T12:00:00	4	Temperatura máxima	19.6
142555	7	Sololá	701	Sololá	2	El tablón	3	Marzo	2023-03-15T00:00:00	2024-11-06T12:00:00	3	Temperatura mínima	18.1
142556	7	Sololá	701	Sololá	2	El tablón	3	Marzo	2023-03-15T00:00:00	2024-11-06T12:00:00	5	Humedad	58
142557	7	Sololá	701	Sololá	2	El tablón	3	Marzo	2023-03-15T00:00:00	2024-11-06T12:00:00	6	Velocidad del viento	12.9
142558	7	Sololá	701	Sololá	2	El tablón	3	Marzo	2023-03-15T00:00:00	2024-11-06T12:00:00	7	Dirección del viento	12.87
142559	7	Sololá	701	Sololá	2	El tablón	3	Marzo	2023-03-15T00:00:00	2024-11-06T12:00:00	1	Precipitación	0
142560	7	Sololá	701	Sololá	2	El tablón	3	Marzo	2023-03-15T00:00:00	2024-11-06T12:00:00	8	Radiación solar	941
142561	7	Sololá	701	Sololá	2	El tablón	3	Marzo	2023-03-15T00:00:00	2024-11-06T13:00:00	2	Temperatura media	20.1
142562	7	Sololá	701	Sololá	2	El tablón	3	Marzo	2023-03-15T00:00:00	2024-11-06T13:00:00	4	Temperatura máxima	20.8
142563	7	Sololá	701	Sololá	2	El tablón	3	Marzo	2023-03-15T00:00:00	2024-11-06T13:00:00	3	Temperatura mínima	19.2
142564	7	Sololá	701	Sololá	2	El tablón	3	Marzo	2023-03-15T00:00:00	2024-11-06T13:00:00	5	Humedad	47
142565	7	Sololá	701	Sololá	2	El tablón	3	Marzo	2023-03-15T00:00:00	2024-11-06T13:00:00	6	Velocidad del viento	12.9
142566	7	Sololá	701	Sololá	2	El tablón	3	Marzo	2023-03-15T00:00:00	2024-11-06T13:00:00	7	Dirección del viento	12.87
142567	7	Sololá	701	Sololá	2	El tablón	3	Marzo	2023-03-15T00:00:00	2024-11-06T13:00:00	1	Precipitación	0
142568	7	Sololá	701	Sololá	2	El tablón	3	Marzo	2023-03-15T00:00:00	2024-11-06T13:00:00	8	Radiación solar	938
142569	7	Sololá	701	Sololá	2	El tablón	3	Marzo	2023-03-15T00:00:00	2024-11-06T14:00:00	2	Temperatura media	16.3
142570	7	Sololá	701	Sololá	2	El tablón	3	Marzo	2023-03-15T00:00:00	2024-11-06T14:00:00	4	Temperatura máxima	20.1
142571	7	Sololá	701	Sololá	2	El tablón	3	Marzo	2023-03-15T00:00:00	2024-11-06T14:00:00	3	Temperatura mínima	16.3
142572	7	Sololá	701	Sololá	2	El tablón	3	Marzo	2023-03-15T00:00:00	2024-11-06T14:00:00	5	Humedad	85
142573	7	Sololá	701	Sololá	2	El tablón	3	Marzo	2023-03-15T00:00:00	2024-11-06T14:00:00	6	Velocidad del viento	8
142574	7	Sololá	701	Sololá	2	El tablón	3	Marzo	2023-03-15T00:00:00	2024-11-06T14:00:00	7	Dirección del viento	8.05
142575	7	Sololá	701	Sololá	2	El tablón	3	Marzo	2023-03-15T00:00:00	2024-11-06T14:00:00	1	Precipitación	0
142576	7	Sololá	701	Sololá	2	El tablón	3	Marzo	2023-03-15T00:00:00	2024-11-06T14:00:00	8	Radiación solar	211
142577	7	Sololá	701	Sololá	2	El tablón	3	Marzo	2023-03-15T00:00:00	2024-11-06T15:00:00	2	Temperatura media	14.6
142578	7	Sololá	701	Sololá	2	El tablón	3	Marzo	2023-03-15T00:00:00	2024-11-06T15:00:00	4	Temperatura máxima	16.3
142579	7	Sololá	701	Sololá	2	El tablón	3	Marzo	2023-03-15T00:00:00	2024-11-06T15:00:00	3	Temperatura mínima	14.6
142580	7	Sololá	701	Sololá	2	El tablón	3	Marzo	2023-03-15T00:00:00	2024-11-06T15:00:00	5	Humedad	89
142581	7	Sololá	701	Sololá	2	El tablón	3	Marzo	2023-03-15T00:00:00	2024-11-06T15:00:00	6	Velocidad del viento	6.4
142582	7	Sololá	701	Sololá	2	El tablón	3	Marzo	2023-03-15T00:00:00	2024-11-06T15:00:00	7	Dirección del viento	6.44
142583	7	Sololá	701	Sololá	2	El tablón	3	Marzo	2023-03-15T00:00:00	2024-11-06T15:00:00	1	Precipitación	1.8
142584	7	Sololá	701	Sololá	2	El tablón	3	Marzo	2023-03-15T00:00:00	2024-11-06T15:00:00	8	Radiación solar	104
142585	7	Sololá	701	Sololá	2	El tablón	3	Marzo	2023-03-15T00:00:00	2024-11-06T16:00:00	2	Temperatura media	13.9
142586	7	Sololá	701	Sololá	2	El tablón	3	Marzo	2023-03-15T00:00:00	2024-11-06T16:00:00	4	Temperatura máxima	14.6
142587	7	Sololá	701	Sololá	2	El tablón	3	Marzo	2023-03-15T00:00:00	2024-11-06T16:00:00	3	Temperatura mínima	13.5
142588	7	Sololá	701	Sololá	2	El tablón	3	Marzo	2023-03-15T00:00:00	2024-11-06T16:00:00	5	Humedad	89
142589	7	Sololá	701	Sololá	2	El tablón	3	Marzo	2023-03-15T00:00:00	2024-11-06T16:00:00	6	Velocidad del viento	4.8
142590	7	Sololá	701	Sololá	2	El tablón	3	Marzo	2023-03-15T00:00:00	2024-11-06T16:00:00	7	Dirección del viento	4.83
142591	7	Sololá	701	Sololá	2	El tablón	3	Marzo	2023-03-15T00:00:00	2024-11-06T16:00:00	1	Precipitación	8.6
142592	7	Sololá	701	Sololá	2	El tablón	3	Marzo	2023-03-15T00:00:00	2024-11-06T16:00:00	8	Radiación solar	70
142593	7	Sololá	701	Sololá	2	El tablón	3	Marzo	2023-03-15T00:00:00	2024-11-06T17:00:00	2	Temperatura media	13.3
142594	7	Sololá	701	Sololá	2	El tablón	3	Marzo	2023-03-15T00:00:00	2024-11-06T17:00:00	4	Temperatura máxima	14.1
142595	7	Sololá	701	Sololá	2	El tablón	3	Marzo	2023-03-15T00:00:00	2024-11-06T17:00:00	3	Temperatura mínima	13.3
142596	7	Sololá	701	Sololá	2	El tablón	3	Marzo	2023-03-15T00:00:00	2024-11-06T17:00:00	5	Humedad	89
142597	7	Sololá	701	Sololá	2	El tablón	3	Marzo	2023-03-15T00:00:00	2024-11-06T17:00:00	6	Velocidad del viento	4.8
142598	7	Sololá	701	Sololá	2	El tablón	3	Marzo	2023-03-15T00:00:00	2024-11-06T17:00:00	7	Dirección del viento	4.83
142599	7	Sololá	701	Sololá	2	El tablón	3	Marzo	2023-03-15T00:00:00	2024-11-06T17:00:00	1	Precipitación	2.6
142600	7	Sololá	701	Sololá	2	El tablón	3	Marzo	2023-03-15T00:00:00	2024-11-06T17:00:00	8	Radiación solar	23
142601	7	Sololá	701	Sololá	2	El tablón	3	Marzo	2023-03-15T00:00:00	2024-11-06T18:00:00	2	Temperatura media	12.8
142602	7	Sololá	701	Sololá	2	El tablón	3	Marzo	2023-03-15T00:00:00	2024-11-06T18:00:00	4	Temperatura máxima	13.3
142603	7	Sololá	701	Sololá	2	El tablón	3	Marzo	2023-03-15T00:00:00	2024-11-06T18:00:00	3	Temperatura mínima	12.7
142604	7	Sololá	701	Sololá	2	El tablón	3	Marzo	2023-03-15T00:00:00	2024-11-06T18:00:00	5	Humedad	89
142605	7	Sololá	701	Sololá	2	El tablón	3	Marzo	2023-03-15T00:00:00	2024-11-06T18:00:00	6	Velocidad del viento	1.6
142606	7	Sololá	701	Sololá	2	El tablón	3	Marzo	2023-03-15T00:00:00	2024-11-06T18:00:00	7	Dirección del viento	1.61
142607	7	Sololá	701	Sololá	2	El tablón	3	Marzo	2023-03-15T00:00:00	2024-11-06T18:00:00	1	Precipitación	1.8
142608	7	Sololá	701	Sololá	2	El tablón	3	Marzo	2023-03-15T00:00:00	2024-11-06T18:00:00	8	Radiación solar	13
142609	7	Sololá	701	Sololá	2	El tablón	3	Marzo	2023-03-15T00:00:00	2024-11-06T19:00:00	2	Temperatura media	11.9
142610	7	Sololá	701	Sololá	2	El tablón	3	Marzo	2023-03-15T00:00:00	2024-11-06T19:00:00	4	Temperatura máxima	12.8
142611	7	Sololá	701	Sololá	2	El tablón	3	Marzo	2023-03-15T00:00:00	2024-11-06T19:00:00	3	Temperatura mínima	11.9
142612	7	Sololá	701	Sololá	2	El tablón	3	Marzo	2023-03-15T00:00:00	2024-11-06T19:00:00	5	Humedad	89
142613	7	Sololá	701	Sololá	2	El tablón	3	Marzo	2023-03-15T00:00:00	2024-11-06T19:00:00	6	Velocidad del viento	4.8
142614	7	Sololá	701	Sololá	2	El tablón	3	Marzo	2023-03-15T00:00:00	2024-11-06T19:00:00	7	Dirección del viento	4.83
142615	7	Sololá	701	Sololá	2	El tablón	3	Marzo	2023-03-15T00:00:00	2024-11-06T19:00:00	1	Precipitación	0.6
142616	7	Sololá	701	Sololá	2	El tablón	3	Marzo	2023-03-15T00:00:00	2024-11-06T19:00:00	8	Radiación solar	0
142617	7	Sololá	701	Sololá	2	El tablón	3	Marzo	2023-03-15T00:00:00	2024-11-06T20:00:00	2	Temperatura media	11.8
142618	7	Sololá	701	Sololá	2	El tablón	3	Marzo	2023-03-15T00:00:00	2024-11-06T20:00:00	4	Temperatura máxima	12.1
142619	7	Sololá	701	Sololá	2	El tablón	3	Marzo	2023-03-15T00:00:00	2024-11-06T20:00:00	3	Temperatura mínima	11.8
142620	7	Sololá	701	Sololá	2	El tablón	3	Marzo	2023-03-15T00:00:00	2024-11-06T20:00:00	5	Humedad	89
142621	7	Sololá	701	Sololá	2	El tablón	3	Marzo	2023-03-15T00:00:00	2024-11-06T20:00:00	6	Velocidad del viento	8
142622	7	Sololá	701	Sololá	2	El tablón	3	Marzo	2023-03-15T00:00:00	2024-11-06T20:00:00	7	Dirección del viento	8.05
142623	7	Sololá	701	Sololá	2	El tablón	3	Marzo	2023-03-15T00:00:00	2024-11-06T20:00:00	1	Precipitación	0
142624	7	Sololá	701	Sololá	2	El tablón	3	Marzo	2023-03-15T00:00:00	2024-11-06T20:00:00	8	Radiación solar	0
142625	7	Sololá	701	Sololá	2	El tablón	3	Marzo	2023-03-15T00:00:00	2024-11-06T21:00:00	2	Temperatura media	11.6
142626	7	Sololá	701	Sololá	2	El tablón	3	Marzo	2023-03-15T00:00:00	2024-11-06T21:00:00	4	Temperatura máxima	11.8
142627	7	Sololá	701	Sololá	2	El tablón	3	Marzo	2023-03-15T00:00:00	2024-11-06T21:00:00	3	Temperatura mínima	11.6
142628	7	Sololá	701	Sololá	2	El tablón	3	Marzo	2023-03-15T00:00:00	2024-11-06T21:00:00	5	Humedad	89
142629	7	Sololá	701	Sololá	2	El tablón	3	Marzo	2023-03-15T00:00:00	2024-11-06T21:00:00	6	Velocidad del viento	6.4
142630	7	Sololá	701	Sololá	2	El tablón	3	Marzo	2023-03-15T00:00:00	2024-11-06T21:00:00	7	Dirección del viento	6.44
142631	7	Sololá	701	Sololá	2	El tablón	3	Marzo	2023-03-15T00:00:00	2024-11-06T21:00:00	1	Precipitación	0
142632	7	Sololá	701	Sololá	2	El tablón	3	Marzo	2023-03-15T00:00:00	2024-11-06T21:00:00	8	Radiación solar	0
142633	7	Sololá	701	Sololá	2	El tablón	3	Marzo	2023-03-15T00:00:00	2024-11-06T22:00:00	2	Temperatura media	11.4
142634	7	Sololá	701	Sololá	2	El tablón	3	Marzo	2023-03-15T00:00:00	2024-11-06T22:00:00	4	Temperatura máxima	11.6
142635	7	Sololá	701	Sololá	2	El tablón	3	Marzo	2023-03-15T00:00:00	2024-11-06T22:00:00	3	Temperatura mínima	11.4
142636	7	Sololá	701	Sololá	2	El tablón	3	Marzo	2023-03-15T00:00:00	2024-11-06T22:00:00	5	Humedad	89
142637	7	Sololá	701	Sololá	2	El tablón	3	Marzo	2023-03-15T00:00:00	2024-11-06T22:00:00	6	Velocidad del viento	9.7
142638	7	Sololá	701	Sololá	2	El tablón	3	Marzo	2023-03-15T00:00:00	2024-11-06T22:00:00	7	Dirección del viento	9.66
142639	7	Sololá	701	Sololá	2	El tablón	3	Marzo	2023-03-15T00:00:00	2024-11-06T22:00:00	1	Precipitación	0
142640	7	Sololá	701	Sololá	2	El tablón	3	Marzo	2023-03-15T00:00:00	2024-11-06T22:00:00	8	Radiación solar	0
142641	7	Sololá	701	Sololá	2	El tablón	3	Marzo	2023-03-15T00:00:00	2024-11-06T23:00:00	2	Temperatura media	11.3
142642	7	Sololá	701	Sololá	2	El tablón	3	Marzo	2023-03-15T00:00:00	2024-11-06T23:00:00	4	Temperatura máxima	11.4
142643	7	Sololá	701	Sololá	2	El tablón	3	Marzo	2023-03-15T00:00:00	2024-11-06T23:00:00	3	Temperatura mínima	11.3
142644	7	Sololá	701	Sololá	2	El tablón	3	Marzo	2023-03-15T00:00:00	2024-11-06T23:00:00	5	Humedad	88
142645	7	Sololá	701	Sololá	2	El tablón	3	Marzo	2023-03-15T00:00:00	2024-11-06T23:00:00	6	Velocidad del viento	9.7
142646	7	Sololá	701	Sololá	2	El tablón	3	Marzo	2023-03-15T00:00:00	2024-11-06T23:00:00	7	Dirección del viento	9.66
142647	7	Sololá	701	Sololá	2	El tablón	3	Marzo	2023-03-15T00:00:00	2024-11-06T23:00:00	1	Precipitación	0
142648	7	Sololá	701	Sololá	2	El tablón	3	Marzo	2023-03-15T00:00:00	2024-11-06T23:00:00	8	Radiación solar	0
142649	7	Sololá	701	Sololá	2	El tablón	3	Marzo	2023-03-16T00:00:00	2024-11-06T00:00:00	2	Temperatura media	10.9
142650	7	Sololá	701	Sololá	2	El tablón	3	Marzo	2023-03-16T00:00:00	2024-11-06T00:00:00	4	Temperatura máxima	11.4
142651	7	Sololá	701	Sololá	2	El tablón	3	Marzo	2023-03-16T00:00:00	2024-11-06T00:00:00	3	Temperatura mínima	10.9
142652	7	Sololá	701	Sololá	2	El tablón	3	Marzo	2023-03-16T00:00:00	2024-11-06T00:00:00	5	Humedad	89
142653	7	Sololá	701	Sololá	2	El tablón	3	Marzo	2023-03-16T00:00:00	2024-11-06T00:00:00	6	Velocidad del viento	9.7
142654	7	Sololá	701	Sololá	2	El tablón	3	Marzo	2023-03-16T00:00:00	2024-11-06T00:00:00	7	Dirección del viento	9.66
142655	7	Sololá	701	Sololá	2	El tablón	3	Marzo	2023-03-16T00:00:00	2024-11-06T00:00:00	1	Precipitación	0
142656	7	Sololá	701	Sololá	2	El tablón	3	Marzo	2023-03-16T00:00:00	2024-11-06T00:00:00	8	Radiación solar	0
142657	7	Sololá	701	Sololá	2	El tablón	3	Marzo	2023-03-16T00:00:00	2024-11-06T01:00:00	2	Temperatura media	10.7
142658	7	Sololá	701	Sololá	2	El tablón	3	Marzo	2023-03-16T00:00:00	2024-11-06T01:00:00	4	Temperatura máxima	10.9
142659	7	Sololá	701	Sololá	2	El tablón	3	Marzo	2023-03-16T00:00:00	2024-11-06T01:00:00	3	Temperatura mínima	10.7
142660	7	Sololá	701	Sololá	2	El tablón	3	Marzo	2023-03-16T00:00:00	2024-11-06T01:00:00	5	Humedad	89
142661	7	Sololá	701	Sololá	2	El tablón	3	Marzo	2023-03-16T00:00:00	2024-11-06T01:00:00	6	Velocidad del viento	11.3
142662	7	Sololá	701	Sololá	2	El tablón	3	Marzo	2023-03-16T00:00:00	2024-11-06T01:00:00	7	Dirección del viento	11.27
142663	7	Sololá	701	Sololá	2	El tablón	3	Marzo	2023-03-16T00:00:00	2024-11-06T01:00:00	1	Precipitación	0
142664	7	Sololá	701	Sololá	2	El tablón	3	Marzo	2023-03-16T00:00:00	2024-11-06T01:00:00	8	Radiación solar	0
142665	7	Sololá	701	Sololá	2	El tablón	3	Marzo	2023-03-16T00:00:00	2024-11-06T02:00:00	2	Temperatura media	11
142666	7	Sololá	701	Sololá	2	El tablón	3	Marzo	2023-03-16T00:00:00	2024-11-06T02:00:00	4	Temperatura máxima	11
142667	7	Sololá	701	Sololá	2	El tablón	3	Marzo	2023-03-16T00:00:00	2024-11-06T02:00:00	3	Temperatura mínima	10.7
142668	7	Sololá	701	Sololá	2	El tablón	3	Marzo	2023-03-16T00:00:00	2024-11-06T02:00:00	5	Humedad	87
142669	7	Sololá	701	Sololá	2	El tablón	3	Marzo	2023-03-16T00:00:00	2024-11-06T02:00:00	6	Velocidad del viento	11.3
142670	7	Sololá	701	Sololá	2	El tablón	3	Marzo	2023-03-16T00:00:00	2024-11-06T02:00:00	7	Dirección del viento	11.27
142671	7	Sololá	701	Sololá	2	El tablón	3	Marzo	2023-03-16T00:00:00	2024-11-06T02:00:00	1	Precipitación	0
142672	7	Sololá	701	Sololá	2	El tablón	3	Marzo	2023-03-16T00:00:00	2024-11-06T02:00:00	8	Radiación solar	0
142673	7	Sololá	701	Sololá	2	El tablón	3	Marzo	2023-03-16T00:00:00	2024-11-06T03:00:00	2	Temperatura media	11.5
142674	7	Sololá	701	Sololá	2	El tablón	3	Marzo	2023-03-16T00:00:00	2024-11-06T03:00:00	4	Temperatura máxima	11.5
142675	7	Sololá	701	Sololá	2	El tablón	3	Marzo	2023-03-16T00:00:00	2024-11-06T03:00:00	3	Temperatura mínima	11
142676	7	Sololá	701	Sololá	2	El tablón	3	Marzo	2023-03-16T00:00:00	2024-11-06T03:00:00	5	Humedad	85
142677	7	Sololá	701	Sololá	2	El tablón	3	Marzo	2023-03-16T00:00:00	2024-11-06T03:00:00	6	Velocidad del viento	12.9
142678	7	Sololá	701	Sololá	2	El tablón	3	Marzo	2023-03-16T00:00:00	2024-11-06T03:00:00	7	Dirección del viento	12.87
142679	7	Sololá	701	Sololá	2	El tablón	3	Marzo	2023-03-16T00:00:00	2024-11-06T03:00:00	1	Precipitación	0
142680	7	Sololá	701	Sololá	2	El tablón	3	Marzo	2023-03-16T00:00:00	2024-11-06T03:00:00	8	Radiación solar	0
142681	7	Sololá	701	Sololá	2	El tablón	3	Marzo	2023-03-16T00:00:00	2024-11-06T04:00:00	2	Temperatura media	10.9
142682	7	Sololá	701	Sololá	2	El tablón	3	Marzo	2023-03-16T00:00:00	2024-11-06T04:00:00	4	Temperatura máxima	11.5
142683	7	Sololá	701	Sololá	2	El tablón	3	Marzo	2023-03-16T00:00:00	2024-11-06T04:00:00	3	Temperatura mínima	10.9
142684	7	Sololá	701	Sololá	2	El tablón	3	Marzo	2023-03-16T00:00:00	2024-11-06T04:00:00	5	Humedad	85
142685	7	Sololá	701	Sololá	2	El tablón	3	Marzo	2023-03-16T00:00:00	2024-11-06T04:00:00	6	Velocidad del viento	9.7
142686	7	Sololá	701	Sololá	2	El tablón	3	Marzo	2023-03-16T00:00:00	2024-11-06T04:00:00	7	Dirección del viento	9.66
142687	7	Sololá	701	Sololá	2	El tablón	3	Marzo	2023-03-16T00:00:00	2024-11-06T04:00:00	1	Precipitación	0
142688	7	Sololá	701	Sololá	2	El tablón	3	Marzo	2023-03-16T00:00:00	2024-11-06T04:00:00	8	Radiación solar	0
142689	7	Sololá	701	Sololá	2	El tablón	3	Marzo	2023-03-16T00:00:00	2024-11-06T05:00:00	2	Temperatura media	10.8
142690	7	Sololá	701	Sololá	2	El tablón	3	Marzo	2023-03-16T00:00:00	2024-11-06T05:00:00	4	Temperatura máxima	11
142691	7	Sololá	701	Sololá	2	El tablón	3	Marzo	2023-03-16T00:00:00	2024-11-06T05:00:00	3	Temperatura mínima	10.8
142692	7	Sololá	701	Sololá	2	El tablón	3	Marzo	2023-03-16T00:00:00	2024-11-06T05:00:00	5	Humedad	86
142693	7	Sololá	701	Sololá	2	El tablón	3	Marzo	2023-03-16T00:00:00	2024-11-06T05:00:00	6	Velocidad del viento	8
142694	7	Sololá	701	Sololá	2	El tablón	3	Marzo	2023-03-16T00:00:00	2024-11-06T05:00:00	7	Dirección del viento	8.05
142695	7	Sololá	701	Sololá	2	El tablón	3	Marzo	2023-03-16T00:00:00	2024-11-06T05:00:00	1	Precipitación	0
142696	7	Sololá	701	Sololá	2	El tablón	3	Marzo	2023-03-16T00:00:00	2024-11-06T05:00:00	8	Radiación solar	0
142697	7	Sololá	701	Sololá	2	El tablón	3	Marzo	2023-03-16T00:00:00	2024-11-06T06:00:00	2	Temperatura media	10.7
142698	7	Sololá	701	Sololá	2	El tablón	3	Marzo	2023-03-16T00:00:00	2024-11-06T06:00:00	4	Temperatura máxima	10.8
142699	7	Sololá	701	Sololá	2	El tablón	3	Marzo	2023-03-16T00:00:00	2024-11-06T06:00:00	3	Temperatura mínima	10.6
142700	7	Sololá	701	Sololá	2	El tablón	3	Marzo	2023-03-16T00:00:00	2024-11-06T06:00:00	5	Humedad	87
142701	7	Sololá	701	Sololá	2	El tablón	3	Marzo	2023-03-16T00:00:00	2024-11-06T06:00:00	6	Velocidad del viento	6.4
142702	7	Sololá	701	Sololá	2	El tablón	3	Marzo	2023-03-16T00:00:00	2024-11-06T06:00:00	7	Dirección del viento	6.44
142703	7	Sololá	701	Sololá	2	El tablón	3	Marzo	2023-03-16T00:00:00	2024-11-06T06:00:00	1	Precipitación	0
142704	7	Sololá	701	Sololá	2	El tablón	3	Marzo	2023-03-16T00:00:00	2024-11-06T06:00:00	8	Radiación solar	0
142705	7	Sololá	701	Sololá	2	El tablón	3	Marzo	2023-03-16T00:00:00	2024-11-06T07:00:00	2	Temperatura media	11.7
142706	7	Sololá	701	Sololá	2	El tablón	3	Marzo	2023-03-16T00:00:00	2024-11-06T07:00:00	4	Temperatura máxima	11.7
142707	7	Sololá	701	Sololá	2	El tablón	3	Marzo	2023-03-16T00:00:00	2024-11-06T07:00:00	3	Temperatura mínima	10.7
142708	7	Sololá	701	Sololá	2	El tablón	3	Marzo	2023-03-16T00:00:00	2024-11-06T07:00:00	5	Humedad	84
142709	7	Sololá	701	Sololá	2	El tablón	3	Marzo	2023-03-16T00:00:00	2024-11-06T07:00:00	6	Velocidad del viento	6.4
142710	7	Sololá	701	Sololá	2	El tablón	3	Marzo	2023-03-16T00:00:00	2024-11-06T07:00:00	7	Dirección del viento	6.44
142711	7	Sololá	701	Sololá	2	El tablón	3	Marzo	2023-03-16T00:00:00	2024-11-06T07:00:00	1	Precipitación	0
142712	7	Sololá	701	Sololá	2	El tablón	3	Marzo	2023-03-16T00:00:00	2024-11-06T07:00:00	8	Radiación solar	25
142713	7	Sololá	701	Sololá	2	El tablón	3	Marzo	2023-03-16T00:00:00	2024-11-06T08:00:00	2	Temperatura media	13.8
142714	7	Sololá	701	Sololá	2	El tablón	3	Marzo	2023-03-16T00:00:00	2024-11-06T08:00:00	4	Temperatura máxima	13.8
142715	7	Sololá	701	Sololá	2	El tablón	3	Marzo	2023-03-16T00:00:00	2024-11-06T08:00:00	3	Temperatura mínima	11.7
142716	7	Sololá	701	Sololá	2	El tablón	3	Marzo	2023-03-16T00:00:00	2024-11-06T08:00:00	5	Humedad	78
142717	7	Sololá	701	Sololá	2	El tablón	3	Marzo	2023-03-16T00:00:00	2024-11-06T08:00:00	6	Velocidad del viento	9.7
142718	7	Sololá	701	Sololá	2	El tablón	3	Marzo	2023-03-16T00:00:00	2024-11-06T08:00:00	7	Dirección del viento	9.66
142719	7	Sololá	701	Sololá	2	El tablón	3	Marzo	2023-03-16T00:00:00	2024-11-06T08:00:00	1	Precipitación	0
142720	7	Sololá	701	Sololá	2	El tablón	3	Marzo	2023-03-16T00:00:00	2024-11-06T08:00:00	8	Radiación solar	171
142721	7	Sololá	701	Sololá	2	El tablón	3	Marzo	2023-03-16T00:00:00	2024-11-06T09:00:00	2	Temperatura media	15.4
142722	7	Sololá	701	Sololá	2	El tablón	3	Marzo	2023-03-16T00:00:00	2024-11-06T09:00:00	4	Temperatura máxima	15.4
142723	7	Sololá	701	Sololá	2	El tablón	3	Marzo	2023-03-16T00:00:00	2024-11-06T09:00:00	3	Temperatura mínima	13.7
142724	7	Sololá	701	Sololá	2	El tablón	3	Marzo	2023-03-16T00:00:00	2024-11-06T09:00:00	5	Humedad	74
142725	7	Sololá	701	Sololá	2	El tablón	3	Marzo	2023-03-16T00:00:00	2024-11-06T09:00:00	6	Velocidad del viento	9.7
142726	7	Sololá	701	Sololá	2	El tablón	3	Marzo	2023-03-16T00:00:00	2024-11-06T09:00:00	7	Dirección del viento	9.66
142727	7	Sololá	701	Sololá	2	El tablón	3	Marzo	2023-03-16T00:00:00	2024-11-06T09:00:00	1	Precipitación	0
142728	7	Sololá	701	Sololá	2	El tablón	3	Marzo	2023-03-16T00:00:00	2024-11-06T09:00:00	8	Radiación solar	385
142729	7	Sololá	701	Sololá	2	El tablón	3	Marzo	2023-03-16T00:00:00	2024-11-06T10:00:00	2	Temperatura media	17.3
142730	7	Sololá	701	Sololá	2	El tablón	3	Marzo	2023-03-16T00:00:00	2024-11-06T10:00:00	4	Temperatura máxima	17.3
142731	7	Sololá	701	Sololá	2	El tablón	3	Marzo	2023-03-16T00:00:00	2024-11-06T10:00:00	3	Temperatura mínima	15.4
142732	7	Sololá	701	Sololá	2	El tablón	3	Marzo	2023-03-16T00:00:00	2024-11-06T10:00:00	5	Humedad	73
142733	7	Sololá	701	Sololá	2	El tablón	3	Marzo	2023-03-16T00:00:00	2024-11-06T10:00:00	6	Velocidad del viento	4.8
142734	7	Sololá	701	Sololá	2	El tablón	3	Marzo	2023-03-16T00:00:00	2024-11-06T10:00:00	7	Dirección del viento	4.83
142735	7	Sololá	701	Sololá	2	El tablón	3	Marzo	2023-03-16T00:00:00	2024-11-06T10:00:00	1	Precipitación	0
142736	7	Sololá	701	Sololá	2	El tablón	3	Marzo	2023-03-16T00:00:00	2024-11-06T10:00:00	8	Radiación solar	665
142737	7	Sololá	701	Sololá	2	El tablón	3	Marzo	2023-03-16T00:00:00	2024-11-06T11:00:00	2	Temperatura media	16.6
142738	7	Sololá	701	Sololá	2	El tablón	3	Marzo	2023-03-16T00:00:00	2024-11-06T11:00:00	4	Temperatura máxima	17.3
142739	7	Sololá	701	Sololá	2	El tablón	3	Marzo	2023-03-16T00:00:00	2024-11-06T11:00:00	3	Temperatura mínima	15.7
142740	7	Sololá	701	Sololá	2	El tablón	3	Marzo	2023-03-16T00:00:00	2024-11-06T11:00:00	5	Humedad	76
142741	7	Sololá	701	Sololá	2	El tablón	3	Marzo	2023-03-16T00:00:00	2024-11-06T11:00:00	6	Velocidad del viento	8
142742	7	Sololá	701	Sololá	2	El tablón	3	Marzo	2023-03-16T00:00:00	2024-11-06T11:00:00	7	Dirección del viento	8.05
142743	7	Sololá	701	Sololá	2	El tablón	3	Marzo	2023-03-16T00:00:00	2024-11-06T11:00:00	1	Precipitación	0
142744	7	Sololá	701	Sololá	2	El tablón	3	Marzo	2023-03-16T00:00:00	2024-11-06T11:00:00	8	Radiación solar	754
142745	7	Sololá	701	Sololá	2	El tablón	3	Marzo	2023-03-16T00:00:00	2024-11-06T12:00:00	2	Temperatura media	16.8
142746	7	Sololá	701	Sololá	2	El tablón	3	Marzo	2023-03-16T00:00:00	2024-11-06T12:00:00	4	Temperatura máxima	16.8
142747	7	Sololá	701	Sololá	2	El tablón	3	Marzo	2023-03-16T00:00:00	2024-11-06T12:00:00	3	Temperatura mínima	16.2
142748	7	Sololá	701	Sololá	2	El tablón	3	Marzo	2023-03-16T00:00:00	2024-11-06T12:00:00	5	Humedad	80
142749	7	Sololá	701	Sololá	2	El tablón	3	Marzo	2023-03-16T00:00:00	2024-11-06T12:00:00	6	Velocidad del viento	9.7
142750	7	Sololá	701	Sololá	2	El tablón	3	Marzo	2023-03-16T00:00:00	2024-11-06T12:00:00	7	Dirección del viento	9.66
142751	7	Sololá	701	Sololá	2	El tablón	3	Marzo	2023-03-16T00:00:00	2024-11-06T12:00:00	1	Precipitación	0
142752	7	Sololá	701	Sololá	2	El tablón	3	Marzo	2023-03-16T00:00:00	2024-11-06T12:00:00	8	Radiación solar	935
142753	7	Sololá	701	Sololá	2	El tablón	3	Marzo	2023-03-16T00:00:00	2024-11-06T13:00:00	2	Temperatura media	17
142754	7	Sololá	701	Sololá	2	El tablón	3	Marzo	2023-03-16T00:00:00	2024-11-06T13:00:00	4	Temperatura máxima	17.1
142755	7	Sololá	701	Sololá	2	El tablón	3	Marzo	2023-03-16T00:00:00	2024-11-06T13:00:00	3	Temperatura mínima	16.2
142756	7	Sololá	701	Sololá	2	El tablón	3	Marzo	2023-03-16T00:00:00	2024-11-06T13:00:00	5	Humedad	81
142757	7	Sololá	701	Sololá	2	El tablón	3	Marzo	2023-03-16T00:00:00	2024-11-06T13:00:00	6	Velocidad del viento	6.4
142758	7	Sololá	701	Sololá	2	El tablón	3	Marzo	2023-03-16T00:00:00	2024-11-06T13:00:00	7	Dirección del viento	6.44
142759	7	Sololá	701	Sololá	2	El tablón	3	Marzo	2023-03-16T00:00:00	2024-11-06T13:00:00	1	Precipitación	0
142760	7	Sololá	701	Sololá	2	El tablón	3	Marzo	2023-03-16T00:00:00	2024-11-06T13:00:00	8	Radiación solar	814
142761	7	Sololá	701	Sololá	2	El tablón	3	Marzo	2023-03-16T00:00:00	2024-11-06T14:00:00	2	Temperatura media	15.6
142762	7	Sololá	701	Sololá	2	El tablón	3	Marzo	2023-03-16T00:00:00	2024-11-06T14:00:00	4	Temperatura máxima	17.1
142763	7	Sololá	701	Sololá	2	El tablón	3	Marzo	2023-03-16T00:00:00	2024-11-06T14:00:00	3	Temperatura mínima	15.4
142764	7	Sololá	701	Sololá	2	El tablón	3	Marzo	2023-03-16T00:00:00	2024-11-06T14:00:00	5	Humedad	85
142765	7	Sololá	701	Sololá	2	El tablón	3	Marzo	2023-03-16T00:00:00	2024-11-06T14:00:00	6	Velocidad del viento	9.7
142766	7	Sololá	701	Sololá	2	El tablón	3	Marzo	2023-03-16T00:00:00	2024-11-06T14:00:00	7	Dirección del viento	9.66
142767	7	Sololá	701	Sololá	2	El tablón	3	Marzo	2023-03-16T00:00:00	2024-11-06T14:00:00	1	Precipitación	0
142768	7	Sololá	701	Sololá	2	El tablón	3	Marzo	2023-03-16T00:00:00	2024-11-06T14:00:00	8	Radiación solar	589
142769	7	Sololá	701	Sololá	2	El tablón	3	Marzo	2023-03-16T00:00:00	2024-11-06T15:00:00	2	Temperatura media	14.5
142770	7	Sololá	701	Sololá	2	El tablón	3	Marzo	2023-03-16T00:00:00	2024-11-06T15:00:00	4	Temperatura máxima	15.6
142771	7	Sololá	701	Sololá	2	El tablón	3	Marzo	2023-03-16T00:00:00	2024-11-06T15:00:00	3	Temperatura mínima	14.5
142772	7	Sololá	701	Sololá	2	El tablón	3	Marzo	2023-03-16T00:00:00	2024-11-06T15:00:00	5	Humedad	88
142773	7	Sololá	701	Sololá	2	El tablón	3	Marzo	2023-03-16T00:00:00	2024-11-06T15:00:00	6	Velocidad del viento	8
142774	7	Sololá	701	Sololá	2	El tablón	3	Marzo	2023-03-16T00:00:00	2024-11-06T15:00:00	7	Dirección del viento	8.05
142775	7	Sololá	701	Sololá	2	El tablón	3	Marzo	2023-03-16T00:00:00	2024-11-06T15:00:00	1	Precipitación	0
142776	7	Sololá	701	Sololá	2	El tablón	3	Marzo	2023-03-16T00:00:00	2024-11-06T15:00:00	8	Radiación solar	141
142777	7	Sololá	701	Sololá	2	El tablón	3	Marzo	2023-03-16T00:00:00	2024-11-06T16:00:00	2	Temperatura media	13.3
142778	7	Sololá	701	Sololá	2	El tablón	3	Marzo	2023-03-16T00:00:00	2024-11-06T16:00:00	4	Temperatura máxima	14.5
142779	7	Sololá	701	Sololá	2	El tablón	3	Marzo	2023-03-16T00:00:00	2024-11-06T16:00:00	3	Temperatura mínima	13.3
142780	7	Sololá	701	Sololá	2	El tablón	3	Marzo	2023-03-16T00:00:00	2024-11-06T16:00:00	5	Humedad	89
142781	7	Sololá	701	Sololá	2	El tablón	3	Marzo	2023-03-16T00:00:00	2024-11-06T16:00:00	6	Velocidad del viento	4.8
142782	7	Sololá	701	Sololá	2	El tablón	3	Marzo	2023-03-16T00:00:00	2024-11-06T16:00:00	7	Dirección del viento	4.83
142783	7	Sololá	701	Sololá	2	El tablón	3	Marzo	2023-03-16T00:00:00	2024-11-06T16:00:00	1	Precipitación	0.2
142784	7	Sololá	701	Sololá	2	El tablón	3	Marzo	2023-03-16T00:00:00	2024-11-06T16:00:00	8	Radiación solar	68
142785	7	Sololá	701	Sololá	2	El tablón	3	Marzo	2023-03-16T00:00:00	2024-11-06T17:00:00	2	Temperatura media	12.8
142786	7	Sololá	701	Sololá	2	El tablón	3	Marzo	2023-03-16T00:00:00	2024-11-06T17:00:00	4	Temperatura máxima	14
142787	7	Sololá	701	Sololá	2	El tablón	3	Marzo	2023-03-16T00:00:00	2024-11-06T17:00:00	3	Temperatura mínima	12.8
142788	7	Sololá	701	Sololá	2	El tablón	3	Marzo	2023-03-16T00:00:00	2024-11-06T17:00:00	5	Humedad	85
142789	7	Sololá	701	Sololá	2	El tablón	3	Marzo	2023-03-16T00:00:00	2024-11-06T17:00:00	6	Velocidad del viento	3.2
142790	7	Sololá	701	Sololá	2	El tablón	3	Marzo	2023-03-16T00:00:00	2024-11-06T17:00:00	7	Dirección del viento	3.22
142791	7	Sololá	701	Sololá	2	El tablón	3	Marzo	2023-03-16T00:00:00	2024-11-06T17:00:00	1	Precipitación	0
142792	7	Sololá	701	Sololá	2	El tablón	3	Marzo	2023-03-16T00:00:00	2024-11-06T17:00:00	8	Radiación solar	52
142793	7	Sololá	701	Sololá	2	El tablón	3	Marzo	2023-03-16T00:00:00	2024-11-06T18:00:00	2	Temperatura media	13.3
142794	7	Sololá	701	Sololá	2	El tablón	3	Marzo	2023-03-16T00:00:00	2024-11-06T18:00:00	4	Temperatura máxima	13.4
142795	7	Sololá	701	Sololá	2	El tablón	3	Marzo	2023-03-16T00:00:00	2024-11-06T18:00:00	3	Temperatura mínima	12.8
142796	7	Sololá	701	Sololá	2	El tablón	3	Marzo	2023-03-16T00:00:00	2024-11-06T18:00:00	5	Humedad	85
142797	7	Sololá	701	Sololá	2	El tablón	3	Marzo	2023-03-16T00:00:00	2024-11-06T18:00:00	6	Velocidad del viento	1.6
142798	7	Sololá	701	Sololá	2	El tablón	3	Marzo	2023-03-16T00:00:00	2024-11-06T18:00:00	7	Dirección del viento	1.61
142799	7	Sololá	701	Sololá	2	El tablón	3	Marzo	2023-03-16T00:00:00	2024-11-06T18:00:00	1	Precipitación	0
142800	7	Sololá	701	Sololá	2	El tablón	3	Marzo	2023-03-16T00:00:00	2024-11-06T18:00:00	8	Radiación solar	31
142801	7	Sololá	701	Sololá	2	El tablón	3	Marzo	2023-03-16T00:00:00	2024-11-06T19:00:00	2	Temperatura media	12.8
142802	7	Sololá	701	Sololá	2	El tablón	3	Marzo	2023-03-16T00:00:00	2024-11-06T19:00:00	4	Temperatura máxima	13.3
142803	7	Sololá	701	Sololá	2	El tablón	3	Marzo	2023-03-16T00:00:00	2024-11-06T19:00:00	3	Temperatura mínima	12.7
142804	7	Sololá	701	Sololá	2	El tablón	3	Marzo	2023-03-16T00:00:00	2024-11-06T19:00:00	5	Humedad	86
142805	7	Sololá	701	Sololá	2	El tablón	3	Marzo	2023-03-16T00:00:00	2024-11-06T19:00:00	6	Velocidad del viento	1.6
142806	7	Sololá	701	Sololá	2	El tablón	3	Marzo	2023-03-16T00:00:00	2024-11-06T19:00:00	7	Dirección del viento	1.61
142807	7	Sololá	701	Sololá	2	El tablón	3	Marzo	2023-03-16T00:00:00	2024-11-06T19:00:00	1	Precipitación	0
142808	7	Sololá	701	Sololá	2	El tablón	3	Marzo	2023-03-16T00:00:00	2024-11-06T19:00:00	8	Radiación solar	0
142809	7	Sololá	701	Sololá	2	El tablón	3	Marzo	2023-03-16T00:00:00	2024-11-06T20:00:00	2	Temperatura media	11.8
142810	7	Sololá	701	Sololá	2	El tablón	3	Marzo	2023-03-16T00:00:00	2024-11-06T20:00:00	4	Temperatura máxima	12.9
142811	7	Sololá	701	Sololá	2	El tablón	3	Marzo	2023-03-16T00:00:00	2024-11-06T20:00:00	3	Temperatura mínima	11.8
142812	7	Sololá	701	Sololá	2	El tablón	3	Marzo	2023-03-16T00:00:00	2024-11-06T20:00:00	5	Humedad	87
142813	7	Sololá	701	Sololá	2	El tablón	3	Marzo	2023-03-16T00:00:00	2024-11-06T20:00:00	6	Velocidad del viento	1.6
142814	7	Sololá	701	Sololá	2	El tablón	3	Marzo	2023-03-16T00:00:00	2024-11-06T20:00:00	7	Dirección del viento	1.61
142815	7	Sololá	701	Sololá	2	El tablón	3	Marzo	2023-03-16T00:00:00	2024-11-06T20:00:00	1	Precipitación	0
142816	7	Sololá	701	Sololá	2	El tablón	3	Marzo	2023-03-16T00:00:00	2024-11-06T20:00:00	8	Radiación solar	0
142817	7	Sololá	701	Sololá	2	El tablón	3	Marzo	2023-03-16T00:00:00	2024-11-06T21:00:00	2	Temperatura media	11
142818	7	Sololá	701	Sololá	2	El tablón	3	Marzo	2023-03-16T00:00:00	2024-11-06T21:00:00	4	Temperatura máxima	11.8
142819	7	Sololá	701	Sololá	2	El tablón	3	Marzo	2023-03-16T00:00:00	2024-11-06T21:00:00	3	Temperatura mínima	11
142820	7	Sololá	701	Sololá	2	El tablón	3	Marzo	2023-03-16T00:00:00	2024-11-06T21:00:00	5	Humedad	88
142821	7	Sololá	701	Sololá	2	El tablón	3	Marzo	2023-03-16T00:00:00	2024-11-06T21:00:00	6	Velocidad del viento	3.2
142822	7	Sololá	701	Sololá	2	El tablón	3	Marzo	2023-03-16T00:00:00	2024-11-06T21:00:00	7	Dirección del viento	3.22
142823	7	Sololá	701	Sololá	2	El tablón	3	Marzo	2023-03-16T00:00:00	2024-11-06T21:00:00	1	Precipitación	0
142824	7	Sololá	701	Sololá	2	El tablón	3	Marzo	2023-03-16T00:00:00	2024-11-06T21:00:00	8	Radiación solar	0
142825	7	Sololá	701	Sololá	2	El tablón	3	Marzo	2023-03-16T00:00:00	2024-11-06T22:00:00	2	Temperatura media	11.4
142826	7	Sololá	701	Sololá	2	El tablón	3	Marzo	2023-03-16T00:00:00	2024-11-06T22:00:00	4	Temperatura máxima	11.4
142827	7	Sololá	701	Sololá	2	El tablón	3	Marzo	2023-03-16T00:00:00	2024-11-06T22:00:00	3	Temperatura mínima	10.6
142828	7	Sololá	701	Sololá	2	El tablón	3	Marzo	2023-03-16T00:00:00	2024-11-06T22:00:00	5	Humedad	89
142829	7	Sololá	701	Sololá	2	El tablón	3	Marzo	2023-03-16T00:00:00	2024-11-06T22:00:00	6	Velocidad del viento	1.6
142830	7	Sololá	701	Sololá	2	El tablón	3	Marzo	2023-03-16T00:00:00	2024-11-06T22:00:00	7	Dirección del viento	1.61
142831	7	Sololá	701	Sololá	2	El tablón	3	Marzo	2023-03-16T00:00:00	2024-11-06T22:00:00	1	Precipitación	0
142832	7	Sololá	701	Sololá	2	El tablón	3	Marzo	2023-03-16T00:00:00	2024-11-06T22:00:00	8	Radiación solar	0
142833	7	Sololá	701	Sololá	2	El tablón	3	Marzo	2023-03-16T00:00:00	2024-11-06T23:00:00	2	Temperatura media	10.9
142834	7	Sololá	701	Sololá	2	El tablón	3	Marzo	2023-03-16T00:00:00	2024-11-06T23:00:00	4	Temperatura máxima	11.6
142835	7	Sololá	701	Sololá	2	El tablón	3	Marzo	2023-03-16T00:00:00	2024-11-06T23:00:00	3	Temperatura mínima	10.9
142836	7	Sololá	701	Sololá	2	El tablón	3	Marzo	2023-03-16T00:00:00	2024-11-06T23:00:00	5	Humedad	89
142837	7	Sololá	701	Sololá	2	El tablón	3	Marzo	2023-03-16T00:00:00	2024-11-06T23:00:00	6	Velocidad del viento	0
142838	7	Sololá	701	Sololá	2	El tablón	3	Marzo	2023-03-16T00:00:00	2024-11-06T23:00:00	7	Dirección del viento	0
142839	7	Sololá	701	Sololá	2	El tablón	3	Marzo	2023-03-16T00:00:00	2024-11-06T23:00:00	1	Precipitación	0
142840	7	Sololá	701	Sololá	2	El tablón	3	Marzo	2023-03-16T00:00:00	2024-11-06T23:00:00	8	Radiación solar	0
142841	7	Sololá	701	Sololá	2	El tablón	3	Marzo	2023-03-17T00:00:00	2024-11-06T00:00:00	2	Temperatura media	10.9
142842	7	Sololá	701	Sololá	2	El tablón	3	Marzo	2023-03-17T00:00:00	2024-11-06T00:00:00	4	Temperatura máxima	11.1
142843	7	Sololá	701	Sololá	2	El tablón	3	Marzo	2023-03-17T00:00:00	2024-11-06T00:00:00	3	Temperatura mínima	10.6
142844	7	Sololá	701	Sololá	2	El tablón	3	Marzo	2023-03-17T00:00:00	2024-11-06T00:00:00	5	Humedad	89
142845	7	Sololá	701	Sololá	2	El tablón	3	Marzo	2023-03-17T00:00:00	2024-11-06T00:00:00	6	Velocidad del viento	3.2
142846	7	Sololá	701	Sololá	2	El tablón	3	Marzo	2023-03-17T00:00:00	2024-11-06T00:00:00	7	Dirección del viento	3.22
142847	7	Sololá	701	Sololá	2	El tablón	3	Marzo	2023-03-17T00:00:00	2024-11-06T00:00:00	1	Precipitación	0
142848	7	Sololá	701	Sololá	2	El tablón	3	Marzo	2023-03-17T00:00:00	2024-11-06T00:00:00	8	Radiación solar	0
142849	7	Sololá	701	Sololá	2	El tablón	3	Marzo	2023-03-17T00:00:00	2024-11-06T01:00:00	2	Temperatura media	10.8
142850	7	Sololá	701	Sololá	2	El tablón	3	Marzo	2023-03-17T00:00:00	2024-11-06T01:00:00	4	Temperatura máxima	11
142851	7	Sololá	701	Sololá	2	El tablón	3	Marzo	2023-03-17T00:00:00	2024-11-06T01:00:00	3	Temperatura mínima	10.8
142852	7	Sololá	701	Sololá	2	El tablón	3	Marzo	2023-03-17T00:00:00	2024-11-06T01:00:00	5	Humedad	90
142853	7	Sololá	701	Sololá	2	El tablón	3	Marzo	2023-03-17T00:00:00	2024-11-06T01:00:00	6	Velocidad del viento	0
142854	7	Sololá	701	Sololá	2	El tablón	3	Marzo	2023-03-17T00:00:00	2024-11-06T01:00:00	7	Dirección del viento	0
142855	7	Sololá	701	Sololá	2	El tablón	3	Marzo	2023-03-17T00:00:00	2024-11-06T01:00:00	1	Precipitación	0
142856	7	Sololá	701	Sololá	2	El tablón	3	Marzo	2023-03-17T00:00:00	2024-11-06T01:00:00	8	Radiación solar	0
142857	7	Sololá	701	Sololá	2	El tablón	3	Marzo	2023-03-17T00:00:00	2024-11-06T02:00:00	2	Temperatura media	10.5
142858	7	Sololá	701	Sololá	2	El tablón	3	Marzo	2023-03-17T00:00:00	2024-11-06T02:00:00	4	Temperatura máxima	10.9
142859	7	Sololá	701	Sololá	2	El tablón	3	Marzo	2023-03-17T00:00:00	2024-11-06T02:00:00	3	Temperatura mínima	10.4
142860	7	Sololá	701	Sololá	2	El tablón	3	Marzo	2023-03-17T00:00:00	2024-11-06T02:00:00	5	Humedad	90
142861	7	Sololá	701	Sololá	2	El tablón	3	Marzo	2023-03-17T00:00:00	2024-11-06T02:00:00	6	Velocidad del viento	1.6
142862	7	Sololá	701	Sololá	2	El tablón	3	Marzo	2023-03-17T00:00:00	2024-11-06T02:00:00	7	Dirección del viento	1.61
142863	7	Sololá	701	Sololá	2	El tablón	3	Marzo	2023-03-17T00:00:00	2024-11-06T02:00:00	1	Precipitación	0
142864	7	Sololá	701	Sololá	2	El tablón	3	Marzo	2023-03-17T00:00:00	2024-11-06T02:00:00	8	Radiación solar	0
142865	7	Sololá	701	Sololá	2	El tablón	3	Marzo	2023-03-17T00:00:00	2024-11-06T03:00:00	2	Temperatura media	10.2
142866	7	Sololá	701	Sololá	2	El tablón	3	Marzo	2023-03-17T00:00:00	2024-11-06T03:00:00	4	Temperatura máxima	10.7
142867	7	Sololá	701	Sololá	2	El tablón	3	Marzo	2023-03-17T00:00:00	2024-11-06T03:00:00	3	Temperatura mínima	10.2
142868	7	Sololá	701	Sololá	2	El tablón	3	Marzo	2023-03-17T00:00:00	2024-11-06T03:00:00	5	Humedad	89
142869	7	Sololá	701	Sololá	2	El tablón	3	Marzo	2023-03-17T00:00:00	2024-11-06T03:00:00	6	Velocidad del viento	1.6
142870	7	Sololá	701	Sololá	2	El tablón	3	Marzo	2023-03-17T00:00:00	2024-11-06T03:00:00	7	Dirección del viento	1.61
142871	7	Sololá	701	Sololá	2	El tablón	3	Marzo	2023-03-17T00:00:00	2024-11-06T03:00:00	1	Precipitación	0
142872	7	Sololá	701	Sololá	2	El tablón	3	Marzo	2023-03-17T00:00:00	2024-11-06T03:00:00	8	Radiación solar	0
142873	7	Sololá	701	Sololá	2	El tablón	3	Marzo	2023-03-17T00:00:00	2024-11-06T04:00:00	2	Temperatura media	9.6
142874	7	Sololá	701	Sololá	2	El tablón	3	Marzo	2023-03-17T00:00:00	2024-11-06T04:00:00	4	Temperatura máxima	10.2
142875	7	Sololá	701	Sololá	2	El tablón	3	Marzo	2023-03-17T00:00:00	2024-11-06T04:00:00	3	Temperatura mínima	9.4
142876	7	Sololá	701	Sololá	2	El tablón	3	Marzo	2023-03-17T00:00:00	2024-11-06T04:00:00	5	Humedad	89
142877	7	Sololá	701	Sololá	2	El tablón	3	Marzo	2023-03-17T00:00:00	2024-11-06T04:00:00	6	Velocidad del viento	3.2
142878	7	Sololá	701	Sololá	2	El tablón	3	Marzo	2023-03-17T00:00:00	2024-11-06T04:00:00	7	Dirección del viento	3.22
142879	7	Sololá	701	Sololá	2	El tablón	3	Marzo	2023-03-17T00:00:00	2024-11-06T04:00:00	1	Precipitación	0
142880	7	Sololá	701	Sololá	2	El tablón	3	Marzo	2023-03-17T00:00:00	2024-11-06T04:00:00	8	Radiación solar	0
142881	7	Sololá	701	Sololá	2	El tablón	3	Marzo	2023-03-17T00:00:00	2024-11-06T05:00:00	2	Temperatura media	9.5
142882	7	Sololá	701	Sololá	2	El tablón	3	Marzo	2023-03-17T00:00:00	2024-11-06T05:00:00	4	Temperatura máxima	9.8
142883	7	Sololá	701	Sololá	2	El tablón	3	Marzo	2023-03-17T00:00:00	2024-11-06T05:00:00	3	Temperatura mínima	9.5
142884	7	Sololá	701	Sololá	2	El tablón	3	Marzo	2023-03-17T00:00:00	2024-11-06T05:00:00	5	Humedad	89
142885	7	Sololá	701	Sololá	2	El tablón	3	Marzo	2023-03-17T00:00:00	2024-11-06T05:00:00	6	Velocidad del viento	1.6
142886	7	Sololá	701	Sololá	2	El tablón	3	Marzo	2023-03-17T00:00:00	2024-11-06T05:00:00	7	Dirección del viento	1.61
142887	7	Sololá	701	Sololá	2	El tablón	3	Marzo	2023-03-17T00:00:00	2024-11-06T05:00:00	1	Precipitación	0
142888	7	Sololá	701	Sololá	2	El tablón	3	Marzo	2023-03-17T00:00:00	2024-11-06T05:00:00	8	Radiación solar	0
142889	7	Sololá	701	Sololá	2	El tablón	3	Marzo	2023-03-17T00:00:00	2024-11-06T06:00:00	2	Temperatura media	9
142890	7	Sololá	701	Sololá	2	El tablón	3	Marzo	2023-03-17T00:00:00	2024-11-06T06:00:00	4	Temperatura máxima	9.5
142891	7	Sololá	701	Sololá	2	El tablón	3	Marzo	2023-03-17T00:00:00	2024-11-06T06:00:00	3	Temperatura mínima	9
142892	7	Sololá	701	Sololá	2	El tablón	3	Marzo	2023-03-17T00:00:00	2024-11-06T06:00:00	5	Humedad	89
142893	7	Sololá	701	Sololá	2	El tablón	3	Marzo	2023-03-17T00:00:00	2024-11-06T06:00:00	6	Velocidad del viento	1.6
142894	7	Sololá	701	Sololá	2	El tablón	3	Marzo	2023-03-17T00:00:00	2024-11-06T06:00:00	7	Dirección del viento	1.61
142895	7	Sololá	701	Sololá	2	El tablón	3	Marzo	2023-03-17T00:00:00	2024-11-06T06:00:00	1	Precipitación	0
142896	7	Sololá	701	Sololá	2	El tablón	3	Marzo	2023-03-17T00:00:00	2024-11-06T06:00:00	8	Radiación solar	0
142897	7	Sololá	701	Sololá	2	El tablón	3	Marzo	2023-03-17T00:00:00	2024-11-06T07:00:00	2	Temperatura media	8.8
142898	7	Sololá	701	Sololá	2	El tablón	3	Marzo	2023-03-17T00:00:00	2024-11-06T07:00:00	4	Temperatura máxima	9
142899	7	Sololá	701	Sololá	2	El tablón	3	Marzo	2023-03-17T00:00:00	2024-11-06T07:00:00	3	Temperatura mínima	8.6
142900	7	Sololá	701	Sololá	2	El tablón	3	Marzo	2023-03-17T00:00:00	2024-11-06T07:00:00	5	Humedad	90
142901	7	Sololá	701	Sololá	2	El tablón	3	Marzo	2023-03-17T00:00:00	2024-11-06T07:00:00	6	Velocidad del viento	1.6
142902	7	Sololá	701	Sololá	2	El tablón	3	Marzo	2023-03-17T00:00:00	2024-11-06T07:00:00	7	Dirección del viento	1.61
142903	7	Sololá	701	Sololá	2	El tablón	3	Marzo	2023-03-17T00:00:00	2024-11-06T07:00:00	1	Precipitación	0
142904	7	Sololá	701	Sololá	2	El tablón	3	Marzo	2023-03-17T00:00:00	2024-11-06T07:00:00	8	Radiación solar	25
142905	7	Sololá	701	Sololá	2	El tablón	3	Marzo	2023-03-17T00:00:00	2024-11-06T08:00:00	2	Temperatura media	12.2
142906	7	Sololá	701	Sololá	2	El tablón	3	Marzo	2023-03-17T00:00:00	2024-11-06T08:00:00	4	Temperatura máxima	12.2
142907	7	Sololá	701	Sololá	2	El tablón	3	Marzo	2023-03-17T00:00:00	2024-11-06T08:00:00	3	Temperatura mínima	8.8
142908	7	Sololá	701	Sololá	2	El tablón	3	Marzo	2023-03-17T00:00:00	2024-11-06T08:00:00	5	Humedad	82
142909	7	Sololá	701	Sololá	2	El tablón	3	Marzo	2023-03-17T00:00:00	2024-11-06T08:00:00	6	Velocidad del viento	1.6
142910	7	Sololá	701	Sololá	2	El tablón	3	Marzo	2023-03-17T00:00:00	2024-11-06T08:00:00	7	Dirección del viento	1.61
142911	7	Sololá	701	Sololá	2	El tablón	3	Marzo	2023-03-17T00:00:00	2024-11-06T08:00:00	1	Precipitación	0
142912	7	Sololá	701	Sololá	2	El tablón	3	Marzo	2023-03-17T00:00:00	2024-11-06T08:00:00	8	Radiación solar	167
142913	7	Sololá	701	Sololá	2	El tablón	3	Marzo	2023-03-17T00:00:00	2024-11-06T09:00:00	2	Temperatura media	15.3
142914	7	Sololá	701	Sololá	2	El tablón	3	Marzo	2023-03-17T00:00:00	2024-11-06T09:00:00	4	Temperatura máxima	15.3
142915	7	Sololá	701	Sololá	2	El tablón	3	Marzo	2023-03-17T00:00:00	2024-11-06T09:00:00	3	Temperatura mínima	12.2
142916	7	Sololá	701	Sololá	2	El tablón	3	Marzo	2023-03-17T00:00:00	2024-11-06T09:00:00	5	Humedad	75
142917	7	Sololá	701	Sololá	2	El tablón	3	Marzo	2023-03-17T00:00:00	2024-11-06T09:00:00	6	Velocidad del viento	1.6
142918	7	Sololá	701	Sololá	2	El tablón	3	Marzo	2023-03-17T00:00:00	2024-11-06T09:00:00	7	Dirección del viento	1.61
142919	7	Sololá	701	Sololá	2	El tablón	3	Marzo	2023-03-17T00:00:00	2024-11-06T09:00:00	1	Precipitación	0
142920	7	Sololá	701	Sololá	2	El tablón	3	Marzo	2023-03-17T00:00:00	2024-11-06T09:00:00	8	Radiación solar	341
142921	7	Sololá	701	Sololá	2	El tablón	3	Marzo	2023-03-17T00:00:00	2024-11-06T10:00:00	2	Temperatura media	16.1
142922	7	Sololá	701	Sololá	2	El tablón	3	Marzo	2023-03-17T00:00:00	2024-11-06T10:00:00	4	Temperatura máxima	16.4
142923	7	Sololá	701	Sololá	2	El tablón	3	Marzo	2023-03-17T00:00:00	2024-11-06T10:00:00	3	Temperatura mínima	15.3
142924	7	Sololá	701	Sololá	2	El tablón	3	Marzo	2023-03-17T00:00:00	2024-11-06T10:00:00	5	Humedad	81
142925	7	Sololá	701	Sololá	2	El tablón	3	Marzo	2023-03-17T00:00:00	2024-11-06T10:00:00	6	Velocidad del viento	4.8
142926	7	Sololá	701	Sololá	2	El tablón	3	Marzo	2023-03-17T00:00:00	2024-11-06T10:00:00	7	Dirección del viento	4.83
142927	7	Sololá	701	Sololá	2	El tablón	3	Marzo	2023-03-17T00:00:00	2024-11-06T10:00:00	1	Precipitación	0
142928	7	Sololá	701	Sololá	2	El tablón	3	Marzo	2023-03-17T00:00:00	2024-11-06T10:00:00	8	Radiación solar	627
142929	7	Sololá	701	Sololá	2	El tablón	3	Marzo	2023-03-17T00:00:00	2024-11-06T11:00:00	2	Temperatura media	16.1
142930	7	Sololá	701	Sololá	2	El tablón	3	Marzo	2023-03-17T00:00:00	2024-11-06T11:00:00	4	Temperatura máxima	16.6
142931	7	Sololá	701	Sololá	2	El tablón	3	Marzo	2023-03-17T00:00:00	2024-11-06T11:00:00	3	Temperatura mínima	15.3
142932	7	Sololá	701	Sololá	2	El tablón	3	Marzo	2023-03-17T00:00:00	2024-11-06T11:00:00	5	Humedad	81
142933	7	Sololá	701	Sololá	2	El tablón	3	Marzo	2023-03-17T00:00:00	2024-11-06T11:00:00	6	Velocidad del viento	6.4
142934	7	Sololá	701	Sololá	2	El tablón	3	Marzo	2023-03-17T00:00:00	2024-11-06T11:00:00	7	Dirección del viento	6.44
142935	7	Sololá	701	Sololá	2	El tablón	3	Marzo	2023-03-17T00:00:00	2024-11-06T11:00:00	1	Precipitación	0
142936	7	Sololá	701	Sololá	2	El tablón	3	Marzo	2023-03-17T00:00:00	2024-11-06T11:00:00	8	Radiación solar	824
142937	7	Sololá	701	Sololá	2	El tablón	3	Marzo	2023-03-17T00:00:00	2024-11-06T12:00:00	2	Temperatura media	16.6
142938	7	Sololá	701	Sololá	2	El tablón	3	Marzo	2023-03-17T00:00:00	2024-11-06T12:00:00	4	Temperatura máxima	16.8
142939	7	Sololá	701	Sololá	2	El tablón	3	Marzo	2023-03-17T00:00:00	2024-11-06T12:00:00	3	Temperatura mínima	16
142940	7	Sololá	701	Sololá	2	El tablón	3	Marzo	2023-03-17T00:00:00	2024-11-06T12:00:00	5	Humedad	81
142941	7	Sololá	701	Sololá	2	El tablón	3	Marzo	2023-03-17T00:00:00	2024-11-06T12:00:00	6	Velocidad del viento	8
142942	7	Sololá	701	Sololá	2	El tablón	3	Marzo	2023-03-17T00:00:00	2024-11-06T12:00:00	7	Dirección del viento	8.05
142943	7	Sololá	701	Sololá	2	El tablón	3	Marzo	2023-03-17T00:00:00	2024-11-06T12:00:00	1	Precipitación	0
142944	7	Sololá	701	Sololá	2	El tablón	3	Marzo	2023-03-17T00:00:00	2024-11-06T12:00:00	8	Radiación solar	957
142945	7	Sololá	701	Sololá	2	El tablón	3	Marzo	2023-03-17T00:00:00	2024-11-06T13:00:00	2	Temperatura media	16.8
142946	7	Sololá	701	Sololá	2	El tablón	3	Marzo	2023-03-17T00:00:00	2024-11-06T13:00:00	4	Temperatura máxima	17.1
142947	7	Sololá	701	Sololá	2	El tablón	3	Marzo	2023-03-17T00:00:00	2024-11-06T13:00:00	3	Temperatura mínima	16.5
142948	7	Sololá	701	Sololá	2	El tablón	3	Marzo	2023-03-17T00:00:00	2024-11-06T13:00:00	5	Humedad	81
142949	7	Sololá	701	Sololá	2	El tablón	3	Marzo	2023-03-17T00:00:00	2024-11-06T13:00:00	6	Velocidad del viento	9.7
142950	7	Sololá	701	Sololá	2	El tablón	3	Marzo	2023-03-17T00:00:00	2024-11-06T13:00:00	7	Dirección del viento	9.66
142951	7	Sololá	701	Sololá	2	El tablón	3	Marzo	2023-03-17T00:00:00	2024-11-06T13:00:00	1	Precipitación	0
142952	7	Sololá	701	Sololá	2	El tablón	3	Marzo	2023-03-17T00:00:00	2024-11-06T13:00:00	8	Radiación solar	1018
142953	7	Sololá	701	Sololá	2	El tablón	3	Marzo	2023-03-17T00:00:00	2024-11-06T14:00:00	2	Temperatura media	14.6
142954	7	Sololá	701	Sololá	2	El tablón	3	Marzo	2023-03-17T00:00:00	2024-11-06T14:00:00	4	Temperatura máxima	17.1
142955	7	Sololá	701	Sololá	2	El tablón	3	Marzo	2023-03-17T00:00:00	2024-11-06T14:00:00	3	Temperatura mínima	14.6
142956	7	Sololá	701	Sololá	2	El tablón	3	Marzo	2023-03-17T00:00:00	2024-11-06T14:00:00	5	Humedad	88
142957	7	Sololá	701	Sololá	2	El tablón	3	Marzo	2023-03-17T00:00:00	2024-11-06T14:00:00	6	Velocidad del viento	8
142958	7	Sololá	701	Sololá	2	El tablón	3	Marzo	2023-03-17T00:00:00	2024-11-06T14:00:00	7	Dirección del viento	8.05
142959	7	Sololá	701	Sololá	2	El tablón	3	Marzo	2023-03-17T00:00:00	2024-11-06T14:00:00	1	Precipitación	0
142960	7	Sololá	701	Sololá	2	El tablón	3	Marzo	2023-03-17T00:00:00	2024-11-06T14:00:00	8	Radiación solar	299
142961	7	Sololá	701	Sololá	2	El tablón	3	Marzo	2023-03-17T00:00:00	2024-11-06T15:00:00	2	Temperatura media	14.1
142962	7	Sololá	701	Sololá	2	El tablón	3	Marzo	2023-03-17T00:00:00	2024-11-06T15:00:00	4	Temperatura máxima	14.6
142963	7	Sololá	701	Sololá	2	El tablón	3	Marzo	2023-03-17T00:00:00	2024-11-06T15:00:00	3	Temperatura mínima	13.4
142964	7	Sololá	701	Sololá	2	El tablón	3	Marzo	2023-03-17T00:00:00	2024-11-06T15:00:00	5	Humedad	89
142965	7	Sololá	701	Sololá	2	El tablón	3	Marzo	2023-03-17T00:00:00	2024-11-06T15:00:00	6	Velocidad del viento	4.8
142966	7	Sololá	701	Sololá	2	El tablón	3	Marzo	2023-03-17T00:00:00	2024-11-06T15:00:00	7	Dirección del viento	4.83
142967	7	Sololá	701	Sololá	2	El tablón	3	Marzo	2023-03-17T00:00:00	2024-11-06T15:00:00	1	Precipitación	0.8
142968	7	Sololá	701	Sololá	2	El tablón	3	Marzo	2023-03-17T00:00:00	2024-11-06T15:00:00	8	Radiación solar	155
142969	7	Sololá	701	Sololá	2	El tablón	3	Marzo	2023-03-17T00:00:00	2024-11-06T16:00:00	2	Temperatura media	15.2
142970	7	Sololá	701	Sololá	2	El tablón	3	Marzo	2023-03-17T00:00:00	2024-11-06T16:00:00	4	Temperatura máxima	15.2
142971	7	Sololá	701	Sololá	2	El tablón	3	Marzo	2023-03-17T00:00:00	2024-11-06T16:00:00	3	Temperatura mínima	13.9
142972	7	Sololá	701	Sololá	2	El tablón	3	Marzo	2023-03-17T00:00:00	2024-11-06T16:00:00	5	Humedad	83
142973	7	Sololá	701	Sololá	2	El tablón	3	Marzo	2023-03-17T00:00:00	2024-11-06T16:00:00	6	Velocidad del viento	4.8
142974	7	Sololá	701	Sololá	2	El tablón	3	Marzo	2023-03-17T00:00:00	2024-11-06T16:00:00	7	Dirección del viento	4.83
142975	7	Sololá	701	Sololá	2	El tablón	3	Marzo	2023-03-17T00:00:00	2024-11-06T16:00:00	1	Precipitación	0
142976	7	Sololá	701	Sololá	2	El tablón	3	Marzo	2023-03-17T00:00:00	2024-11-06T16:00:00	8	Radiación solar	359
142977	7	Sololá	701	Sololá	2	El tablón	3	Marzo	2023-03-17T00:00:00	2024-11-06T17:00:00	2	Temperatura media	13.2
142978	7	Sololá	701	Sololá	2	El tablón	3	Marzo	2023-03-17T00:00:00	2024-11-06T17:00:00	4	Temperatura máxima	15.3
142979	7	Sololá	701	Sololá	2	El tablón	3	Marzo	2023-03-17T00:00:00	2024-11-06T17:00:00	3	Temperatura mínima	13.2
142980	7	Sololá	701	Sololá	2	El tablón	3	Marzo	2023-03-17T00:00:00	2024-11-06T17:00:00	5	Humedad	88
142981	7	Sololá	701	Sololá	2	El tablón	3	Marzo	2023-03-17T00:00:00	2024-11-06T17:00:00	6	Velocidad del viento	4.8
142982	7	Sololá	701	Sololá	2	El tablón	3	Marzo	2023-03-17T00:00:00	2024-11-06T17:00:00	7	Dirección del viento	4.83
142983	7	Sololá	701	Sololá	2	El tablón	3	Marzo	2023-03-17T00:00:00	2024-11-06T17:00:00	1	Precipitación	0
142984	7	Sololá	701	Sololá	2	El tablón	3	Marzo	2023-03-17T00:00:00	2024-11-06T17:00:00	8	Radiación solar	118
142985	7	Sololá	701	Sololá	2	El tablón	3	Marzo	2023-03-17T00:00:00	2024-11-06T18:00:00	2	Temperatura media	12.8
142986	7	Sololá	701	Sololá	2	El tablón	3	Marzo	2023-03-17T00:00:00	2024-11-06T18:00:00	4	Temperatura máxima	13.2
142987	7	Sololá	701	Sololá	2	El tablón	3	Marzo	2023-03-17T00:00:00	2024-11-06T18:00:00	3	Temperatura mínima	12.7
142988	7	Sololá	701	Sololá	2	El tablón	3	Marzo	2023-03-17T00:00:00	2024-11-06T18:00:00	5	Humedad	89
142989	7	Sololá	701	Sololá	2	El tablón	3	Marzo	2023-03-17T00:00:00	2024-11-06T18:00:00	6	Velocidad del viento	3.2
142990	7	Sololá	701	Sololá	2	El tablón	3	Marzo	2023-03-17T00:00:00	2024-11-06T18:00:00	7	Dirección del viento	3.22
142991	7	Sololá	701	Sololá	2	El tablón	3	Marzo	2023-03-17T00:00:00	2024-11-06T18:00:00	1	Precipitación	0
142992	7	Sololá	701	Sololá	2	El tablón	3	Marzo	2023-03-17T00:00:00	2024-11-06T18:00:00	8	Radiación solar	18
142993	7	Sololá	701	Sololá	2	El tablón	3	Marzo	2023-03-17T00:00:00	2024-11-06T19:00:00	2	Temperatura media	12.5
142994	7	Sololá	701	Sololá	2	El tablón	3	Marzo	2023-03-17T00:00:00	2024-11-06T19:00:00	4	Temperatura máxima	12.8
142995	7	Sololá	701	Sololá	2	El tablón	3	Marzo	2023-03-17T00:00:00	2024-11-06T19:00:00	3	Temperatura mínima	12.5
142996	7	Sololá	701	Sololá	2	El tablón	3	Marzo	2023-03-17T00:00:00	2024-11-06T19:00:00	5	Humedad	89
142997	7	Sololá	701	Sololá	2	El tablón	3	Marzo	2023-03-17T00:00:00	2024-11-06T19:00:00	6	Velocidad del viento	1.6
142998	7	Sololá	701	Sololá	2	El tablón	3	Marzo	2023-03-17T00:00:00	2024-11-06T19:00:00	7	Dirección del viento	1.61
142999	7	Sololá	701	Sololá	2	El tablón	3	Marzo	2023-03-17T00:00:00	2024-11-06T19:00:00	1	Precipitación	0
143000	7	Sololá	701	Sololá	2	El tablón	3	Marzo	2023-03-17T00:00:00	2024-11-06T19:00:00	8	Radiación solar	0
143001	7	Sololá	701	Sololá	2	El tablón	3	Marzo	2023-03-17T00:00:00	2024-11-06T20:00:00	2	Temperatura media	12.3
143002	7	Sololá	701	Sololá	2	El tablón	3	Marzo	2023-03-17T00:00:00	2024-11-06T20:00:00	4	Temperatura máxima	12.6
143003	7	Sololá	701	Sololá	2	El tablón	3	Marzo	2023-03-17T00:00:00	2024-11-06T20:00:00	3	Temperatura mínima	12.3
143004	7	Sololá	701	Sololá	2	El tablón	3	Marzo	2023-03-17T00:00:00	2024-11-06T20:00:00	5	Humedad	89
143005	7	Sololá	701	Sololá	2	El tablón	3	Marzo	2023-03-17T00:00:00	2024-11-06T20:00:00	6	Velocidad del viento	3.2
143006	7	Sololá	701	Sololá	2	El tablón	3	Marzo	2023-03-17T00:00:00	2024-11-06T20:00:00	7	Dirección del viento	3.22
143007	7	Sololá	701	Sololá	2	El tablón	3	Marzo	2023-03-17T00:00:00	2024-11-06T20:00:00	1	Precipitación	0
143008	7	Sololá	701	Sololá	2	El tablón	3	Marzo	2023-03-17T00:00:00	2024-11-06T20:00:00	8	Radiación solar	0
143009	7	Sololá	701	Sololá	2	El tablón	3	Marzo	2023-03-17T00:00:00	2024-11-06T21:00:00	2	Temperatura media	12.3
143010	7	Sololá	701	Sololá	2	El tablón	3	Marzo	2023-03-17T00:00:00	2024-11-06T21:00:00	4	Temperatura máxima	12.3
143011	7	Sololá	701	Sololá	2	El tablón	3	Marzo	2023-03-17T00:00:00	2024-11-06T21:00:00	3	Temperatura mínima	12.1
143012	7	Sololá	701	Sololá	2	El tablón	3	Marzo	2023-03-17T00:00:00	2024-11-06T21:00:00	5	Humedad	89
143013	7	Sololá	701	Sololá	2	El tablón	3	Marzo	2023-03-17T00:00:00	2024-11-06T21:00:00	6	Velocidad del viento	0
143014	7	Sololá	701	Sololá	2	El tablón	3	Marzo	2023-03-17T00:00:00	2024-11-06T21:00:00	7	Dirección del viento	0
143015	7	Sololá	701	Sololá	2	El tablón	3	Marzo	2023-03-17T00:00:00	2024-11-06T21:00:00	1	Precipitación	0
143016	7	Sololá	701	Sololá	2	El tablón	3	Marzo	2023-03-17T00:00:00	2024-11-06T21:00:00	8	Radiación solar	0
143017	7	Sololá	701	Sololá	2	El tablón	3	Marzo	2023-03-17T00:00:00	2024-11-06T22:00:00	2	Temperatura media	11.9
143018	7	Sololá	701	Sololá	2	El tablón	3	Marzo	2023-03-17T00:00:00	2024-11-06T22:00:00	4	Temperatura máxima	12.3
143019	7	Sololá	701	Sololá	2	El tablón	3	Marzo	2023-03-17T00:00:00	2024-11-06T22:00:00	3	Temperatura mínima	11.9
143020	7	Sololá	701	Sololá	2	El tablón	3	Marzo	2023-03-17T00:00:00	2024-11-06T22:00:00	5	Humedad	89
143021	7	Sololá	701	Sololá	2	El tablón	3	Marzo	2023-03-17T00:00:00	2024-11-06T22:00:00	6	Velocidad del viento	0
143022	7	Sololá	701	Sololá	2	El tablón	3	Marzo	2023-03-17T00:00:00	2024-11-06T22:00:00	7	Dirección del viento	0
143023	7	Sololá	701	Sololá	2	El tablón	3	Marzo	2023-03-17T00:00:00	2024-11-06T22:00:00	1	Precipitación	0
143024	7	Sololá	701	Sololá	2	El tablón	3	Marzo	2023-03-17T00:00:00	2024-11-06T22:00:00	8	Radiación solar	0
143025	7	Sololá	701	Sololá	2	El tablón	3	Marzo	2023-03-17T00:00:00	2024-11-06T23:00:00	2	Temperatura media	11.5
143026	7	Sololá	701	Sololá	2	El tablón	3	Marzo	2023-03-17T00:00:00	2024-11-06T23:00:00	4	Temperatura máxima	11.9
143027	7	Sololá	701	Sololá	2	El tablón	3	Marzo	2023-03-17T00:00:00	2024-11-06T23:00:00	3	Temperatura mínima	11.5
143028	7	Sololá	701	Sololá	2	El tablón	3	Marzo	2023-03-17T00:00:00	2024-11-06T23:00:00	5	Humedad	89
143029	7	Sololá	701	Sololá	2	El tablón	3	Marzo	2023-03-17T00:00:00	2024-11-06T23:00:00	6	Velocidad del viento	0
143030	7	Sololá	701	Sololá	2	El tablón	3	Marzo	2023-03-17T00:00:00	2024-11-06T23:00:00	7	Dirección del viento	0
143031	7	Sololá	701	Sololá	2	El tablón	3	Marzo	2023-03-17T00:00:00	2024-11-06T23:00:00	1	Precipitación	0
143032	7	Sololá	701	Sololá	2	El tablón	3	Marzo	2023-03-17T00:00:00	2024-11-06T23:00:00	8	Radiación solar	0
143033	7	Sololá	701	Sololá	2	El tablón	3	Marzo	2023-03-18T00:00:00	2024-11-06T00:00:00	2	Temperatura media	10.2
143034	7	Sololá	701	Sololá	2	El tablón	3	Marzo	2023-03-18T00:00:00	2024-11-06T00:00:00	4	Temperatura máxima	11.5
143035	7	Sololá	701	Sololá	2	El tablón	3	Marzo	2023-03-18T00:00:00	2024-11-06T00:00:00	3	Temperatura mínima	10.2
143036	7	Sololá	701	Sololá	2	El tablón	3	Marzo	2023-03-18T00:00:00	2024-11-06T00:00:00	5	Humedad	90
143037	7	Sololá	701	Sololá	2	El tablón	3	Marzo	2023-03-18T00:00:00	2024-11-06T00:00:00	6	Velocidad del viento	0
143038	7	Sololá	701	Sololá	2	El tablón	3	Marzo	2023-03-18T00:00:00	2024-11-06T00:00:00	7	Dirección del viento	0
143039	7	Sololá	701	Sololá	2	El tablón	3	Marzo	2023-03-18T00:00:00	2024-11-06T00:00:00	1	Precipitación	0
143040	7	Sololá	701	Sololá	2	El tablón	3	Marzo	2023-03-18T00:00:00	2024-11-06T00:00:00	8	Radiación solar	0
143041	7	Sololá	701	Sololá	2	El tablón	3	Marzo	2023-03-18T00:00:00	2024-11-06T01:00:00	2	Temperatura media	9.2
143042	7	Sololá	701	Sololá	2	El tablón	3	Marzo	2023-03-18T00:00:00	2024-11-06T01:00:00	4	Temperatura máxima	10.2
143043	7	Sololá	701	Sololá	2	El tablón	3	Marzo	2023-03-18T00:00:00	2024-11-06T01:00:00	3	Temperatura mínima	9.2
143044	7	Sololá	701	Sololá	2	El tablón	3	Marzo	2023-03-18T00:00:00	2024-11-06T01:00:00	5	Humedad	90
143045	7	Sololá	701	Sololá	2	El tablón	3	Marzo	2023-03-18T00:00:00	2024-11-06T01:00:00	6	Velocidad del viento	0
143046	7	Sololá	701	Sololá	2	El tablón	3	Marzo	2023-03-18T00:00:00	2024-11-06T01:00:00	7	Dirección del viento	0
143047	7	Sololá	701	Sololá	2	El tablón	3	Marzo	2023-03-18T00:00:00	2024-11-06T01:00:00	1	Precipitación	0
143048	7	Sololá	701	Sololá	2	El tablón	3	Marzo	2023-03-18T00:00:00	2024-11-06T01:00:00	8	Radiación solar	0
143049	7	Sololá	701	Sololá	2	El tablón	3	Marzo	2023-03-18T00:00:00	2024-11-06T02:00:00	2	Temperatura media	8.6
143050	7	Sololá	701	Sololá	2	El tablón	3	Marzo	2023-03-18T00:00:00	2024-11-06T02:00:00	4	Temperatura máxima	9.3
143051	7	Sololá	701	Sololá	2	El tablón	3	Marzo	2023-03-18T00:00:00	2024-11-06T02:00:00	3	Temperatura mínima	8.5
143052	7	Sololá	701	Sololá	2	El tablón	3	Marzo	2023-03-18T00:00:00	2024-11-06T02:00:00	5	Humedad	89
143053	7	Sololá	701	Sololá	2	El tablón	3	Marzo	2023-03-18T00:00:00	2024-11-06T02:00:00	6	Velocidad del viento	3.2
143054	7	Sololá	701	Sololá	2	El tablón	3	Marzo	2023-03-18T00:00:00	2024-11-06T02:00:00	7	Dirección del viento	3.22
143055	7	Sololá	701	Sololá	2	El tablón	3	Marzo	2023-03-18T00:00:00	2024-11-06T02:00:00	1	Precipitación	0
143056	7	Sololá	701	Sololá	2	El tablón	3	Marzo	2023-03-18T00:00:00	2024-11-06T02:00:00	8	Radiación solar	0
143057	7	Sololá	701	Sololá	2	El tablón	3	Marzo	2023-03-18T00:00:00	2024-11-06T03:00:00	2	Temperatura media	8.4
143058	7	Sololá	701	Sololá	2	El tablón	3	Marzo	2023-03-18T00:00:00	2024-11-06T03:00:00	4	Temperatura máxima	8.7
143059	7	Sololá	701	Sololá	2	El tablón	3	Marzo	2023-03-18T00:00:00	2024-11-06T03:00:00	3	Temperatura mínima	7.9
143060	7	Sololá	701	Sololá	2	El tablón	3	Marzo	2023-03-18T00:00:00	2024-11-06T03:00:00	5	Humedad	84
143061	7	Sololá	701	Sololá	2	El tablón	3	Marzo	2023-03-18T00:00:00	2024-11-06T03:00:00	6	Velocidad del viento	4.8
143062	7	Sololá	701	Sololá	2	El tablón	3	Marzo	2023-03-18T00:00:00	2024-11-06T03:00:00	7	Dirección del viento	4.83
143063	7	Sololá	701	Sololá	2	El tablón	3	Marzo	2023-03-18T00:00:00	2024-11-06T03:00:00	1	Precipitación	0
143064	7	Sololá	701	Sololá	2	El tablón	3	Marzo	2023-03-18T00:00:00	2024-11-06T03:00:00	8	Radiación solar	0
143065	7	Sololá	701	Sololá	2	El tablón	3	Marzo	2023-03-18T00:00:00	2024-11-06T04:00:00	2	Temperatura media	9.7
143066	7	Sololá	701	Sololá	2	El tablón	3	Marzo	2023-03-18T00:00:00	2024-11-06T04:00:00	4	Temperatura máxima	9.7
143067	7	Sololá	701	Sololá	2	El tablón	3	Marzo	2023-03-18T00:00:00	2024-11-06T04:00:00	3	Temperatura mínima	8.3
143068	7	Sololá	701	Sololá	2	El tablón	3	Marzo	2023-03-18T00:00:00	2024-11-06T04:00:00	5	Humedad	74
143069	7	Sololá	701	Sololá	2	El tablón	3	Marzo	2023-03-18T00:00:00	2024-11-06T04:00:00	6	Velocidad del viento	4.8
143070	7	Sololá	701	Sololá	2	El tablón	3	Marzo	2023-03-18T00:00:00	2024-11-06T04:00:00	7	Dirección del viento	4.83
143071	7	Sololá	701	Sololá	2	El tablón	3	Marzo	2023-03-18T00:00:00	2024-11-06T04:00:00	1	Precipitación	0
143072	7	Sololá	701	Sololá	2	El tablón	3	Marzo	2023-03-18T00:00:00	2024-11-06T04:00:00	8	Radiación solar	0
143073	7	Sololá	701	Sololá	2	El tablón	3	Marzo	2023-03-18T00:00:00	2024-11-06T05:00:00	2	Temperatura media	9.1
143074	7	Sololá	701	Sololá	2	El tablón	3	Marzo	2023-03-18T00:00:00	2024-11-06T05:00:00	4	Temperatura máxima	10.1
143075	7	Sololá	701	Sololá	2	El tablón	3	Marzo	2023-03-18T00:00:00	2024-11-06T05:00:00	3	Temperatura mínima	9
143076	7	Sololá	701	Sololá	2	El tablón	3	Marzo	2023-03-18T00:00:00	2024-11-06T05:00:00	5	Humedad	77
143077	7	Sololá	701	Sololá	2	El tablón	3	Marzo	2023-03-18T00:00:00	2024-11-06T05:00:00	6	Velocidad del viento	1.6
143078	7	Sololá	701	Sololá	2	El tablón	3	Marzo	2023-03-18T00:00:00	2024-11-06T05:00:00	7	Dirección del viento	1.61
143079	7	Sololá	701	Sololá	2	El tablón	3	Marzo	2023-03-18T00:00:00	2024-11-06T05:00:00	1	Precipitación	0
143080	7	Sololá	701	Sololá	2	El tablón	3	Marzo	2023-03-18T00:00:00	2024-11-06T05:00:00	8	Radiación solar	0
143081	7	Sololá	701	Sololá	2	El tablón	3	Marzo	2023-03-18T00:00:00	2024-11-06T06:00:00	2	Temperatura media	9.3
143082	7	Sololá	701	Sololá	2	El tablón	3	Marzo	2023-03-18T00:00:00	2024-11-06T06:00:00	4	Temperatura máxima	9.3
143083	7	Sololá	701	Sololá	2	El tablón	3	Marzo	2023-03-18T00:00:00	2024-11-06T06:00:00	3	Temperatura mínima	8.8
143084	7	Sololá	701	Sololá	2	El tablón	3	Marzo	2023-03-18T00:00:00	2024-11-06T06:00:00	5	Humedad	72
143085	7	Sololá	701	Sololá	2	El tablón	3	Marzo	2023-03-18T00:00:00	2024-11-06T06:00:00	6	Velocidad del viento	4.8
143086	7	Sololá	701	Sololá	2	El tablón	3	Marzo	2023-03-18T00:00:00	2024-11-06T06:00:00	7	Dirección del viento	4.83
143087	7	Sololá	701	Sololá	2	El tablón	3	Marzo	2023-03-18T00:00:00	2024-11-06T06:00:00	1	Precipitación	0
143088	7	Sololá	701	Sololá	2	El tablón	3	Marzo	2023-03-18T00:00:00	2024-11-06T06:00:00	8	Radiación solar	0
143089	7	Sololá	701	Sololá	2	El tablón	3	Marzo	2023-03-18T00:00:00	2024-11-06T07:00:00	2	Temperatura media	12.6
143090	7	Sololá	701	Sololá	2	El tablón	3	Marzo	2023-03-18T00:00:00	2024-11-06T07:00:00	4	Temperatura máxima	12.6
143091	7	Sololá	701	Sololá	2	El tablón	3	Marzo	2023-03-18T00:00:00	2024-11-06T07:00:00	3	Temperatura mínima	9.3
143092	7	Sololá	701	Sololá	2	El tablón	3	Marzo	2023-03-18T00:00:00	2024-11-06T07:00:00	5	Humedad	59
143093	7	Sololá	701	Sololá	2	El tablón	3	Marzo	2023-03-18T00:00:00	2024-11-06T07:00:00	6	Velocidad del viento	1.6
143094	7	Sololá	701	Sololá	2	El tablón	3	Marzo	2023-03-18T00:00:00	2024-11-06T07:00:00	7	Dirección del viento	1.61
143095	7	Sololá	701	Sololá	2	El tablón	3	Marzo	2023-03-18T00:00:00	2024-11-06T07:00:00	1	Precipitación	0
143096	7	Sololá	701	Sololá	2	El tablón	3	Marzo	2023-03-18T00:00:00	2024-11-06T07:00:00	8	Radiación solar	28
143097	7	Sololá	701	Sololá	2	El tablón	3	Marzo	2023-03-18T00:00:00	2024-11-06T08:00:00	2	Temperatura media	15.4
143098	7	Sololá	701	Sololá	2	El tablón	3	Marzo	2023-03-18T00:00:00	2024-11-06T08:00:00	4	Temperatura máxima	15.4
143099	7	Sololá	701	Sololá	2	El tablón	3	Marzo	2023-03-18T00:00:00	2024-11-06T08:00:00	3	Temperatura mínima	12.7
143100	7	Sololá	701	Sololá	2	El tablón	3	Marzo	2023-03-18T00:00:00	2024-11-06T08:00:00	5	Humedad	64
143101	7	Sololá	701	Sololá	2	El tablón	3	Marzo	2023-03-18T00:00:00	2024-11-06T08:00:00	6	Velocidad del viento	4.8
143102	7	Sololá	701	Sololá	2	El tablón	3	Marzo	2023-03-18T00:00:00	2024-11-06T08:00:00	7	Dirección del viento	4.83
143103	7	Sololá	701	Sololá	2	El tablón	3	Marzo	2023-03-18T00:00:00	2024-11-06T08:00:00	1	Precipitación	0
143104	7	Sololá	701	Sololá	2	El tablón	3	Marzo	2023-03-18T00:00:00	2024-11-06T08:00:00	8	Radiación solar	169
143105	7	Sololá	701	Sololá	2	El tablón	3	Marzo	2023-03-18T00:00:00	2024-11-06T09:00:00	2	Temperatura media	16.6
143106	7	Sololá	701	Sololá	2	El tablón	3	Marzo	2023-03-18T00:00:00	2024-11-06T09:00:00	4	Temperatura máxima	16.6
143107	7	Sololá	701	Sololá	2	El tablón	3	Marzo	2023-03-18T00:00:00	2024-11-06T09:00:00	3	Temperatura mínima	15.4
143108	7	Sololá	701	Sololá	2	El tablón	3	Marzo	2023-03-18T00:00:00	2024-11-06T09:00:00	5	Humedad	67
143109	7	Sololá	701	Sololá	2	El tablón	3	Marzo	2023-03-18T00:00:00	2024-11-06T09:00:00	6	Velocidad del viento	6.4
143110	7	Sololá	701	Sololá	2	El tablón	3	Marzo	2023-03-18T00:00:00	2024-11-06T09:00:00	7	Dirección del viento	6.44
143111	7	Sololá	701	Sololá	2	El tablón	3	Marzo	2023-03-18T00:00:00	2024-11-06T09:00:00	1	Precipitación	0
143112	7	Sololá	701	Sololá	2	El tablón	3	Marzo	2023-03-18T00:00:00	2024-11-06T09:00:00	8	Radiación solar	377
143113	7	Sololá	701	Sololá	2	El tablón	3	Marzo	2023-03-18T00:00:00	2024-11-06T10:00:00	2	Temperatura media	17.6
143114	7	Sololá	701	Sololá	2	El tablón	3	Marzo	2023-03-18T00:00:00	2024-11-06T10:00:00	4	Temperatura máxima	17.7
143115	7	Sololá	701	Sololá	2	El tablón	3	Marzo	2023-03-18T00:00:00	2024-11-06T10:00:00	3	Temperatura mínima	16.6
143116	7	Sololá	701	Sololá	2	El tablón	3	Marzo	2023-03-18T00:00:00	2024-11-06T10:00:00	5	Humedad	53
143117	7	Sololá	701	Sololá	2	El tablón	3	Marzo	2023-03-18T00:00:00	2024-11-06T10:00:00	6	Velocidad del viento	8
143118	7	Sololá	701	Sololá	2	El tablón	3	Marzo	2023-03-18T00:00:00	2024-11-06T10:00:00	7	Dirección del viento	8.05
143119	7	Sololá	701	Sololá	2	El tablón	3	Marzo	2023-03-18T00:00:00	2024-11-06T10:00:00	1	Precipitación	0
143120	7	Sololá	701	Sololá	2	El tablón	3	Marzo	2023-03-18T00:00:00	2024-11-06T10:00:00	8	Radiación solar	654
143121	7	Sololá	701	Sololá	2	El tablón	3	Marzo	2023-03-18T00:00:00	2024-11-06T11:00:00	2	Temperatura media	17.1
143122	7	Sololá	701	Sololá	2	El tablón	3	Marzo	2023-03-18T00:00:00	2024-11-06T11:00:00	4	Temperatura máxima	18
143123	7	Sololá	701	Sololá	2	El tablón	3	Marzo	2023-03-18T00:00:00	2024-11-06T11:00:00	3	Temperatura mínima	17
143124	7	Sololá	701	Sololá	2	El tablón	3	Marzo	2023-03-18T00:00:00	2024-11-06T11:00:00	5	Humedad	74
143125	7	Sololá	701	Sololá	2	El tablón	3	Marzo	2023-03-18T00:00:00	2024-11-06T11:00:00	6	Velocidad del viento	6.4
143126	7	Sololá	701	Sololá	2	El tablón	3	Marzo	2023-03-18T00:00:00	2024-11-06T11:00:00	7	Dirección del viento	6.44
143127	7	Sololá	701	Sololá	2	El tablón	3	Marzo	2023-03-18T00:00:00	2024-11-06T11:00:00	1	Precipitación	0
143128	7	Sololá	701	Sololá	2	El tablón	3	Marzo	2023-03-18T00:00:00	2024-11-06T11:00:00	8	Radiación solar	828
143129	7	Sololá	701	Sololá	2	El tablón	3	Marzo	2023-03-18T00:00:00	2024-11-06T12:00:00	2	Temperatura media	17.2
143130	7	Sololá	701	Sololá	2	El tablón	3	Marzo	2023-03-18T00:00:00	2024-11-06T12:00:00	4	Temperatura máxima	17.3
143131	7	Sololá	701	Sololá	2	El tablón	3	Marzo	2023-03-18T00:00:00	2024-11-06T12:00:00	3	Temperatura mínima	16.8
143132	7	Sololá	701	Sololá	2	El tablón	3	Marzo	2023-03-18T00:00:00	2024-11-06T12:00:00	5	Humedad	78
143133	7	Sololá	701	Sololá	2	El tablón	3	Marzo	2023-03-18T00:00:00	2024-11-06T12:00:00	6	Velocidad del viento	9.7
143134	7	Sololá	701	Sololá	2	El tablón	3	Marzo	2023-03-18T00:00:00	2024-11-06T12:00:00	7	Dirección del viento	9.66
143135	7	Sololá	701	Sololá	2	El tablón	3	Marzo	2023-03-18T00:00:00	2024-11-06T12:00:00	1	Precipitación	0
143136	7	Sololá	701	Sololá	2	El tablón	3	Marzo	2023-03-18T00:00:00	2024-11-06T12:00:00	8	Radiación solar	923
143137	7	Sololá	701	Sololá	2	El tablón	3	Marzo	2023-03-18T00:00:00	2024-11-06T13:00:00	2	Temperatura media	17.2
143138	7	Sololá	701	Sololá	2	El tablón	3	Marzo	2023-03-18T00:00:00	2024-11-06T13:00:00	4	Temperatura máxima	17.4
143139	7	Sololá	701	Sololá	2	El tablón	3	Marzo	2023-03-18T00:00:00	2024-11-06T13:00:00	3	Temperatura mínima	16.8
143140	7	Sololá	701	Sololá	2	El tablón	3	Marzo	2023-03-18T00:00:00	2024-11-06T13:00:00	5	Humedad	78
143141	7	Sololá	701	Sololá	2	El tablón	3	Marzo	2023-03-18T00:00:00	2024-11-06T13:00:00	6	Velocidad del viento	9.7
143142	7	Sololá	701	Sololá	2	El tablón	3	Marzo	2023-03-18T00:00:00	2024-11-06T13:00:00	7	Dirección del viento	9.66
143143	7	Sololá	701	Sololá	2	El tablón	3	Marzo	2023-03-18T00:00:00	2024-11-06T13:00:00	1	Precipitación	0
143144	7	Sololá	701	Sololá	2	El tablón	3	Marzo	2023-03-18T00:00:00	2024-11-06T13:00:00	8	Radiación solar	993
143145	7	Sololá	701	Sololá	2	El tablón	3	Marzo	2023-03-18T00:00:00	2024-11-06T14:00:00	2	Temperatura media	16.8
143146	7	Sololá	701	Sololá	2	El tablón	3	Marzo	2023-03-18T00:00:00	2024-11-06T14:00:00	4	Temperatura máxima	17.2
143147	7	Sololá	701	Sololá	2	El tablón	3	Marzo	2023-03-18T00:00:00	2024-11-06T14:00:00	3	Temperatura mínima	16.6
143148	7	Sololá	701	Sololá	2	El tablón	3	Marzo	2023-03-18T00:00:00	2024-11-06T14:00:00	5	Humedad	80
143149	7	Sololá	701	Sololá	2	El tablón	3	Marzo	2023-03-18T00:00:00	2024-11-06T14:00:00	6	Velocidad del viento	9.7
143150	7	Sololá	701	Sololá	2	El tablón	3	Marzo	2023-03-18T00:00:00	2024-11-06T14:00:00	7	Dirección del viento	9.66
143151	7	Sololá	701	Sololá	2	El tablón	3	Marzo	2023-03-18T00:00:00	2024-11-06T14:00:00	1	Precipitación	0
143152	7	Sololá	701	Sololá	2	El tablón	3	Marzo	2023-03-18T00:00:00	2024-11-06T14:00:00	8	Radiación solar	847
143153	7	Sololá	701	Sololá	2	El tablón	3	Marzo	2023-03-18T00:00:00	2024-11-06T15:00:00	2	Temperatura media	15.3
143154	7	Sololá	701	Sololá	2	El tablón	3	Marzo	2023-03-18T00:00:00	2024-11-06T15:00:00	4	Temperatura máxima	16.9
143155	7	Sololá	701	Sololá	2	El tablón	3	Marzo	2023-03-18T00:00:00	2024-11-06T15:00:00	3	Temperatura mínima	15.3
143156	7	Sololá	701	Sololá	2	El tablón	3	Marzo	2023-03-18T00:00:00	2024-11-06T15:00:00	5	Humedad	84
143157	7	Sololá	701	Sololá	2	El tablón	3	Marzo	2023-03-18T00:00:00	2024-11-06T15:00:00	6	Velocidad del viento	8
143158	7	Sololá	701	Sololá	2	El tablón	3	Marzo	2023-03-18T00:00:00	2024-11-06T15:00:00	7	Dirección del viento	8.05
143159	7	Sololá	701	Sololá	2	El tablón	3	Marzo	2023-03-18T00:00:00	2024-11-06T15:00:00	1	Precipitación	0
143160	7	Sololá	701	Sololá	2	El tablón	3	Marzo	2023-03-18T00:00:00	2024-11-06T15:00:00	8	Radiación solar	275
143161	7	Sololá	701	Sololá	2	El tablón	3	Marzo	2023-03-18T00:00:00	2024-11-06T16:00:00	2	Temperatura media	16.2
143162	7	Sololá	701	Sololá	2	El tablón	3	Marzo	2023-03-18T00:00:00	2024-11-06T16:00:00	4	Temperatura máxima	16.4
143163	7	Sololá	701	Sololá	2	El tablón	3	Marzo	2023-03-18T00:00:00	2024-11-06T16:00:00	3	Temperatura mínima	15.1
143164	7	Sololá	701	Sololá	2	El tablón	3	Marzo	2023-03-18T00:00:00	2024-11-06T16:00:00	5	Humedad	81
143165	7	Sololá	701	Sololá	2	El tablón	3	Marzo	2023-03-18T00:00:00	2024-11-06T16:00:00	6	Velocidad del viento	4.8
143166	7	Sololá	701	Sololá	2	El tablón	3	Marzo	2023-03-18T00:00:00	2024-11-06T16:00:00	7	Dirección del viento	4.83
143167	7	Sololá	701	Sololá	2	El tablón	3	Marzo	2023-03-18T00:00:00	2024-11-06T16:00:00	1	Precipitación	0
143168	7	Sololá	701	Sololá	2	El tablón	3	Marzo	2023-03-18T00:00:00	2024-11-06T16:00:00	8	Radiación solar	293
143169	7	Sololá	701	Sololá	2	El tablón	3	Marzo	2023-03-18T00:00:00	2024-11-06T17:00:00	2	Temperatura media	14.5
143170	7	Sololá	701	Sololá	2	El tablón	3	Marzo	2023-03-18T00:00:00	2024-11-06T17:00:00	4	Temperatura máxima	16.1
143171	7	Sololá	701	Sololá	2	El tablón	3	Marzo	2023-03-18T00:00:00	2024-11-06T17:00:00	3	Temperatura mínima	14.5
143172	7	Sololá	701	Sololá	2	El tablón	3	Marzo	2023-03-18T00:00:00	2024-11-06T17:00:00	5	Humedad	87
143173	7	Sololá	701	Sololá	2	El tablón	3	Marzo	2023-03-18T00:00:00	2024-11-06T17:00:00	6	Velocidad del viento	4.8
143174	7	Sololá	701	Sololá	2	El tablón	3	Marzo	2023-03-18T00:00:00	2024-11-06T17:00:00	7	Dirección del viento	4.83
143175	7	Sololá	701	Sololá	2	El tablón	3	Marzo	2023-03-18T00:00:00	2024-11-06T17:00:00	1	Precipitación	0
143176	7	Sololá	701	Sololá	2	El tablón	3	Marzo	2023-03-18T00:00:00	2024-11-06T17:00:00	8	Radiación solar	108
143177	7	Sololá	701	Sololá	2	El tablón	3	Marzo	2023-03-18T00:00:00	2024-11-06T18:00:00	2	Temperatura media	13.9
143178	7	Sololá	701	Sololá	2	El tablón	3	Marzo	2023-03-18T00:00:00	2024-11-06T18:00:00	4	Temperatura máxima	14.5
143179	7	Sololá	701	Sololá	2	El tablón	3	Marzo	2023-03-18T00:00:00	2024-11-06T18:00:00	3	Temperatura mínima	13.9
143180	7	Sololá	701	Sololá	2	El tablón	3	Marzo	2023-03-18T00:00:00	2024-11-06T18:00:00	5	Humedad	88
143181	7	Sololá	701	Sololá	2	El tablón	3	Marzo	2023-03-18T00:00:00	2024-11-06T18:00:00	6	Velocidad del viento	3.2
143182	7	Sololá	701	Sololá	2	El tablón	3	Marzo	2023-03-18T00:00:00	2024-11-06T18:00:00	7	Dirección del viento	3.22
143183	7	Sololá	701	Sololá	2	El tablón	3	Marzo	2023-03-18T00:00:00	2024-11-06T18:00:00	1	Precipitación	0
143184	7	Sololá	701	Sololá	2	El tablón	3	Marzo	2023-03-18T00:00:00	2024-11-06T18:00:00	8	Radiación solar	105
143185	7	Sololá	701	Sololá	2	El tablón	3	Marzo	2023-03-18T00:00:00	2024-11-06T19:00:00	2	Temperatura media	13.4
143186	7	Sololá	701	Sololá	2	El tablón	3	Marzo	2023-03-18T00:00:00	2024-11-06T19:00:00	4	Temperatura máxima	13.9
143187	7	Sololá	701	Sololá	2	El tablón	3	Marzo	2023-03-18T00:00:00	2024-11-06T19:00:00	3	Temperatura mínima	13.4
143188	7	Sololá	701	Sololá	2	El tablón	3	Marzo	2023-03-18T00:00:00	2024-11-06T19:00:00	5	Humedad	89
143189	7	Sololá	701	Sololá	2	El tablón	3	Marzo	2023-03-18T00:00:00	2024-11-06T19:00:00	6	Velocidad del viento	0
143190	7	Sololá	701	Sololá	2	El tablón	3	Marzo	2023-03-18T00:00:00	2024-11-06T19:00:00	7	Dirección del viento	0
143191	7	Sololá	701	Sololá	2	El tablón	3	Marzo	2023-03-18T00:00:00	2024-11-06T19:00:00	1	Precipitación	0
143192	7	Sololá	701	Sololá	2	El tablón	3	Marzo	2023-03-18T00:00:00	2024-11-06T19:00:00	8	Radiación solar	0
143193	7	Sololá	701	Sololá	2	El tablón	3	Marzo	2023-03-18T00:00:00	2024-11-06T20:00:00	2	Temperatura media	12.7
143194	7	Sololá	701	Sololá	2	El tablón	3	Marzo	2023-03-18T00:00:00	2024-11-06T20:00:00	4	Temperatura máxima	13.4
143195	7	Sololá	701	Sololá	2	El tablón	3	Marzo	2023-03-18T00:00:00	2024-11-06T20:00:00	3	Temperatura mínima	12.7
143196	7	Sololá	701	Sololá	2	El tablón	3	Marzo	2023-03-18T00:00:00	2024-11-06T20:00:00	5	Humedad	89
143197	7	Sololá	701	Sololá	2	El tablón	3	Marzo	2023-03-18T00:00:00	2024-11-06T20:00:00	6	Velocidad del viento	1.6
143198	7	Sololá	701	Sololá	2	El tablón	3	Marzo	2023-03-18T00:00:00	2024-11-06T20:00:00	7	Dirección del viento	1.61
143199	7	Sololá	701	Sololá	2	El tablón	3	Marzo	2023-03-18T00:00:00	2024-11-06T20:00:00	1	Precipitación	0
143200	7	Sololá	701	Sololá	2	El tablón	3	Marzo	2023-03-18T00:00:00	2024-11-06T20:00:00	8	Radiación solar	0
143201	7	Sololá	701	Sololá	2	El tablón	3	Marzo	2023-03-18T00:00:00	2024-11-06T21:00:00	2	Temperatura media	12.6
143202	7	Sololá	701	Sololá	2	El tablón	3	Marzo	2023-03-18T00:00:00	2024-11-06T21:00:00	4	Temperatura máxima	12.8
143203	7	Sololá	701	Sololá	2	El tablón	3	Marzo	2023-03-18T00:00:00	2024-11-06T21:00:00	3	Temperatura mínima	12.4
143204	7	Sololá	701	Sololá	2	El tablón	3	Marzo	2023-03-18T00:00:00	2024-11-06T21:00:00	5	Humedad	89
143205	7	Sololá	701	Sololá	2	El tablón	3	Marzo	2023-03-18T00:00:00	2024-11-06T21:00:00	6	Velocidad del viento	1.6
143206	7	Sololá	701	Sololá	2	El tablón	3	Marzo	2023-03-18T00:00:00	2024-11-06T21:00:00	7	Dirección del viento	1.61
143207	7	Sololá	701	Sololá	2	El tablón	3	Marzo	2023-03-18T00:00:00	2024-11-06T21:00:00	1	Precipitación	0
143208	7	Sololá	701	Sololá	2	El tablón	3	Marzo	2023-03-18T00:00:00	2024-11-06T21:00:00	8	Radiación solar	0
143209	7	Sololá	701	Sololá	2	El tablón	3	Marzo	2023-03-18T00:00:00	2024-11-06T22:00:00	2	Temperatura media	12.7
143210	7	Sololá	701	Sololá	2	El tablón	3	Marzo	2023-03-18T00:00:00	2024-11-06T22:00:00	4	Temperatura máxima	12.7
143211	7	Sololá	701	Sololá	2	El tablón	3	Marzo	2023-03-18T00:00:00	2024-11-06T22:00:00	3	Temperatura mínima	12.4
143212	7	Sololá	701	Sololá	2	El tablón	3	Marzo	2023-03-18T00:00:00	2024-11-06T22:00:00	5	Humedad	89
143213	7	Sololá	701	Sololá	2	El tablón	3	Marzo	2023-03-18T00:00:00	2024-11-06T22:00:00	6	Velocidad del viento	1.6
143214	7	Sololá	701	Sololá	2	El tablón	3	Marzo	2023-03-18T00:00:00	2024-11-06T22:00:00	7	Dirección del viento	1.61
143215	7	Sololá	701	Sololá	2	El tablón	3	Marzo	2023-03-18T00:00:00	2024-11-06T22:00:00	1	Precipitación	0
143216	7	Sololá	701	Sololá	2	El tablón	3	Marzo	2023-03-18T00:00:00	2024-11-06T22:00:00	8	Radiación solar	0
143217	7	Sololá	701	Sololá	2	El tablón	3	Marzo	2023-03-18T00:00:00	2024-11-06T23:00:00	2	Temperatura media	13.1
143218	7	Sololá	701	Sololá	2	El tablón	3	Marzo	2023-03-18T00:00:00	2024-11-06T23:00:00	4	Temperatura máxima	13.1
143219	7	Sololá	701	Sololá	2	El tablón	3	Marzo	2023-03-18T00:00:00	2024-11-06T23:00:00	3	Temperatura mínima	12.7
143220	7	Sololá	701	Sololá	2	El tablón	3	Marzo	2023-03-18T00:00:00	2024-11-06T23:00:00	5	Humedad	88
143221	7	Sololá	701	Sololá	2	El tablón	3	Marzo	2023-03-18T00:00:00	2024-11-06T23:00:00	6	Velocidad del viento	1.6
143222	7	Sololá	701	Sololá	2	El tablón	3	Marzo	2023-03-18T00:00:00	2024-11-06T23:00:00	7	Dirección del viento	1.61
143223	7	Sololá	701	Sololá	2	El tablón	3	Marzo	2023-03-18T00:00:00	2024-11-06T23:00:00	1	Precipitación	0
143224	7	Sololá	701	Sololá	2	El tablón	3	Marzo	2023-03-18T00:00:00	2024-11-06T23:00:00	8	Radiación solar	0
143225	7	Sololá	701	Sololá	2	El tablón	3	Marzo	2023-03-19T00:00:00	2024-11-06T00:00:00	2	Temperatura media	12.9
143226	7	Sololá	701	Sololá	2	El tablón	3	Marzo	2023-03-19T00:00:00	2024-11-06T00:00:00	4	Temperatura máxima	13.1
143227	7	Sololá	701	Sololá	2	El tablón	3	Marzo	2023-03-19T00:00:00	2024-11-06T00:00:00	3	Temperatura mínima	12.9
143228	7	Sololá	701	Sololá	2	El tablón	3	Marzo	2023-03-19T00:00:00	2024-11-06T00:00:00	5	Humedad	88
143229	7	Sololá	701	Sololá	2	El tablón	3	Marzo	2023-03-19T00:00:00	2024-11-06T00:00:00	6	Velocidad del viento	3.2
143230	7	Sololá	701	Sololá	2	El tablón	3	Marzo	2023-03-19T00:00:00	2024-11-06T00:00:00	7	Dirección del viento	3.22
143231	7	Sololá	701	Sololá	2	El tablón	3	Marzo	2023-03-19T00:00:00	2024-11-06T00:00:00	1	Precipitación	0
143232	7	Sololá	701	Sololá	2	El tablón	3	Marzo	2023-03-19T00:00:00	2024-11-06T00:00:00	8	Radiación solar	0
143233	7	Sololá	701	Sololá	2	El tablón	3	Marzo	2023-03-19T00:00:00	2024-11-06T01:00:00	2	Temperatura media	12.6
143234	7	Sololá	701	Sololá	2	El tablón	3	Marzo	2023-03-19T00:00:00	2024-11-06T01:00:00	4	Temperatura máxima	12.9
143235	7	Sololá	701	Sololá	2	El tablón	3	Marzo	2023-03-19T00:00:00	2024-11-06T01:00:00	3	Temperatura mínima	12.6
143236	7	Sololá	701	Sololá	2	El tablón	3	Marzo	2023-03-19T00:00:00	2024-11-06T01:00:00	5	Humedad	89
143237	7	Sololá	701	Sololá	2	El tablón	3	Marzo	2023-03-19T00:00:00	2024-11-06T01:00:00	6	Velocidad del viento	4.8
143238	7	Sololá	701	Sololá	2	El tablón	3	Marzo	2023-03-19T00:00:00	2024-11-06T01:00:00	7	Dirección del viento	4.83
143239	7	Sololá	701	Sololá	2	El tablón	3	Marzo	2023-03-19T00:00:00	2024-11-06T01:00:00	1	Precipitación	0
143240	7	Sololá	701	Sololá	2	El tablón	3	Marzo	2023-03-19T00:00:00	2024-11-06T01:00:00	8	Radiación solar	0
143241	7	Sololá	701	Sololá	2	El tablón	3	Marzo	2023-03-19T00:00:00	2024-11-06T02:00:00	2	Temperatura media	12.2
143242	7	Sololá	701	Sololá	2	El tablón	3	Marzo	2023-03-19T00:00:00	2024-11-06T02:00:00	4	Temperatura máxima	12.6
143243	7	Sololá	701	Sololá	2	El tablón	3	Marzo	2023-03-19T00:00:00	2024-11-06T02:00:00	3	Temperatura mínima	12.2
143244	7	Sololá	701	Sololá	2	El tablón	3	Marzo	2023-03-19T00:00:00	2024-11-06T02:00:00	5	Humedad	89
143245	7	Sololá	701	Sololá	2	El tablón	3	Marzo	2023-03-19T00:00:00	2024-11-06T02:00:00	6	Velocidad del viento	0
143246	7	Sololá	701	Sololá	2	El tablón	3	Marzo	2023-03-19T00:00:00	2024-11-06T02:00:00	7	Dirección del viento	0
143247	7	Sololá	701	Sololá	2	El tablón	3	Marzo	2023-03-19T00:00:00	2024-11-06T02:00:00	1	Precipitación	0
143248	7	Sololá	701	Sololá	2	El tablón	3	Marzo	2023-03-19T00:00:00	2024-11-06T02:00:00	8	Radiación solar	0
143249	7	Sololá	701	Sololá	2	El tablón	3	Marzo	2023-03-19T00:00:00	2024-11-06T03:00:00	2	Temperatura media	12.4
143250	7	Sololá	701	Sololá	2	El tablón	3	Marzo	2023-03-19T00:00:00	2024-11-06T03:00:00	4	Temperatura máxima	12.5
143251	7	Sololá	701	Sololá	2	El tablón	3	Marzo	2023-03-19T00:00:00	2024-11-06T03:00:00	3	Temperatura mínima	12.2
143252	7	Sololá	701	Sololá	2	El tablón	3	Marzo	2023-03-19T00:00:00	2024-11-06T03:00:00	5	Humedad	89
143253	7	Sololá	701	Sololá	2	El tablón	3	Marzo	2023-03-19T00:00:00	2024-11-06T03:00:00	6	Velocidad del viento	0
143254	7	Sololá	701	Sololá	2	El tablón	3	Marzo	2023-03-19T00:00:00	2024-11-06T03:00:00	7	Dirección del viento	0
143255	7	Sololá	701	Sololá	2	El tablón	3	Marzo	2023-03-19T00:00:00	2024-11-06T03:00:00	1	Precipitación	0
143256	7	Sololá	701	Sololá	2	El tablón	3	Marzo	2023-03-19T00:00:00	2024-11-06T03:00:00	8	Radiación solar	0
143257	7	Sololá	701	Sololá	2	El tablón	3	Marzo	2023-03-19T00:00:00	2024-11-06T04:00:00	2	Temperatura media	12.2
143258	7	Sololá	701	Sololá	2	El tablón	3	Marzo	2023-03-19T00:00:00	2024-11-06T04:00:00	4	Temperatura máxima	12.5
143259	7	Sololá	701	Sololá	2	El tablón	3	Marzo	2023-03-19T00:00:00	2024-11-06T04:00:00	3	Temperatura mínima	12.1
143260	7	Sololá	701	Sololá	2	El tablón	3	Marzo	2023-03-19T00:00:00	2024-11-06T04:00:00	5	Humedad	88
143261	7	Sololá	701	Sololá	2	El tablón	3	Marzo	2023-03-19T00:00:00	2024-11-06T04:00:00	6	Velocidad del viento	1.6
143262	7	Sololá	701	Sololá	2	El tablón	3	Marzo	2023-03-19T00:00:00	2024-11-06T04:00:00	7	Dirección del viento	1.61
143263	7	Sololá	701	Sololá	2	El tablón	3	Marzo	2023-03-19T00:00:00	2024-11-06T04:00:00	1	Precipitación	0
143264	7	Sololá	701	Sololá	2	El tablón	3	Marzo	2023-03-19T00:00:00	2024-11-06T04:00:00	8	Radiación solar	0
143265	7	Sololá	701	Sololá	2	El tablón	3	Marzo	2023-03-19T00:00:00	2024-11-06T05:00:00	2	Temperatura media	11.9
143266	7	Sololá	701	Sololá	2	El tablón	3	Marzo	2023-03-19T00:00:00	2024-11-06T05:00:00	4	Temperatura máxima	12.2
143267	7	Sololá	701	Sololá	2	El tablón	3	Marzo	2023-03-19T00:00:00	2024-11-06T05:00:00	3	Temperatura mínima	11.9
143268	7	Sololá	701	Sololá	2	El tablón	3	Marzo	2023-03-19T00:00:00	2024-11-06T05:00:00	5	Humedad	88
143269	7	Sololá	701	Sololá	2	El tablón	3	Marzo	2023-03-19T00:00:00	2024-11-06T05:00:00	6	Velocidad del viento	3.2
143270	7	Sololá	701	Sololá	2	El tablón	3	Marzo	2023-03-19T00:00:00	2024-11-06T05:00:00	7	Dirección del viento	3.22
143271	7	Sololá	701	Sololá	2	El tablón	3	Marzo	2023-03-19T00:00:00	2024-11-06T05:00:00	1	Precipitación	0
143272	7	Sololá	701	Sololá	2	El tablón	3	Marzo	2023-03-19T00:00:00	2024-11-06T05:00:00	8	Radiación solar	0
143273	7	Sololá	701	Sololá	2	El tablón	3	Marzo	2023-03-19T00:00:00	2024-11-06T06:00:00	2	Temperatura media	11.2
143274	7	Sololá	701	Sololá	2	El tablón	3	Marzo	2023-03-19T00:00:00	2024-11-06T06:00:00	4	Temperatura máxima	11.9
143275	7	Sololá	701	Sololá	2	El tablón	3	Marzo	2023-03-19T00:00:00	2024-11-06T06:00:00	3	Temperatura mínima	11.2
143276	7	Sololá	701	Sololá	2	El tablón	3	Marzo	2023-03-19T00:00:00	2024-11-06T06:00:00	5	Humedad	89
143277	7	Sololá	701	Sololá	2	El tablón	3	Marzo	2023-03-19T00:00:00	2024-11-06T06:00:00	6	Velocidad del viento	3.2
143278	7	Sololá	701	Sololá	2	El tablón	3	Marzo	2023-03-19T00:00:00	2024-11-06T06:00:00	7	Dirección del viento	3.22
143279	7	Sololá	701	Sololá	2	El tablón	3	Marzo	2023-03-19T00:00:00	2024-11-06T06:00:00	1	Precipitación	0
143280	7	Sololá	701	Sololá	2	El tablón	3	Marzo	2023-03-19T00:00:00	2024-11-06T06:00:00	8	Radiación solar	0
143281	7	Sololá	701	Sololá	2	El tablón	3	Marzo	2023-03-19T00:00:00	2024-11-06T07:00:00	2	Temperatura media	11.2
143282	7	Sololá	701	Sololá	2	El tablón	3	Marzo	2023-03-19T00:00:00	2024-11-06T07:00:00	4	Temperatura máxima	11.2
143283	7	Sololá	701	Sololá	2	El tablón	3	Marzo	2023-03-19T00:00:00	2024-11-06T07:00:00	3	Temperatura mínima	10.8
143284	7	Sololá	701	Sololá	2	El tablón	3	Marzo	2023-03-19T00:00:00	2024-11-06T07:00:00	5	Humedad	89
143285	7	Sololá	701	Sololá	2	El tablón	3	Marzo	2023-03-19T00:00:00	2024-11-06T07:00:00	6	Velocidad del viento	1.6
143286	7	Sololá	701	Sololá	2	El tablón	3	Marzo	2023-03-19T00:00:00	2024-11-06T07:00:00	7	Dirección del viento	1.61
143287	7	Sololá	701	Sololá	2	El tablón	3	Marzo	2023-03-19T00:00:00	2024-11-06T07:00:00	1	Precipitación	0
143288	7	Sololá	701	Sololá	2	El tablón	3	Marzo	2023-03-19T00:00:00	2024-11-06T07:00:00	8	Radiación solar	31
143289	7	Sololá	701	Sololá	2	El tablón	3	Marzo	2023-03-19T00:00:00	2024-11-06T08:00:00	2	Temperatura media	15.2
143290	7	Sololá	701	Sololá	2	El tablón	3	Marzo	2023-03-19T00:00:00	2024-11-06T08:00:00	4	Temperatura máxima	15.2
143291	7	Sololá	701	Sololá	2	El tablón	3	Marzo	2023-03-19T00:00:00	2024-11-06T08:00:00	3	Temperatura mínima	11.2
143292	7	Sololá	701	Sololá	2	El tablón	3	Marzo	2023-03-19T00:00:00	2024-11-06T08:00:00	5	Humedad	75
143293	7	Sololá	701	Sololá	2	El tablón	3	Marzo	2023-03-19T00:00:00	2024-11-06T08:00:00	6	Velocidad del viento	1.6
143294	7	Sololá	701	Sololá	2	El tablón	3	Marzo	2023-03-19T00:00:00	2024-11-06T08:00:00	7	Dirección del viento	1.61
143295	7	Sololá	701	Sololá	2	El tablón	3	Marzo	2023-03-19T00:00:00	2024-11-06T08:00:00	1	Precipitación	0
143296	7	Sololá	701	Sololá	2	El tablón	3	Marzo	2023-03-19T00:00:00	2024-11-06T08:00:00	8	Radiación solar	167
143297	7	Sololá	701	Sololá	2	El tablón	3	Marzo	2023-03-19T00:00:00	2024-11-06T09:00:00	2	Temperatura media	16.4
143298	7	Sololá	701	Sololá	2	El tablón	3	Marzo	2023-03-19T00:00:00	2024-11-06T09:00:00	4	Temperatura máxima	16.4
143299	7	Sololá	701	Sololá	2	El tablón	3	Marzo	2023-03-19T00:00:00	2024-11-06T09:00:00	3	Temperatura mínima	15.2
143300	7	Sololá	701	Sololá	2	El tablón	3	Marzo	2023-03-19T00:00:00	2024-11-06T09:00:00	5	Humedad	75
143301	7	Sololá	701	Sololá	2	El tablón	3	Marzo	2023-03-19T00:00:00	2024-11-06T09:00:00	6	Velocidad del viento	4.8
143302	7	Sololá	701	Sololá	2	El tablón	3	Marzo	2023-03-19T00:00:00	2024-11-06T09:00:00	7	Dirección del viento	4.83
143303	7	Sololá	701	Sololá	2	El tablón	3	Marzo	2023-03-19T00:00:00	2024-11-06T09:00:00	1	Precipitación	0
143304	7	Sololá	701	Sololá	2	El tablón	3	Marzo	2023-03-19T00:00:00	2024-11-06T09:00:00	8	Radiación solar	363
143305	7	Sololá	701	Sololá	2	El tablón	3	Marzo	2023-03-19T00:00:00	2024-11-06T10:00:00	2	Temperatura media	15.7
143306	7	Sololá	701	Sololá	2	El tablón	3	Marzo	2023-03-19T00:00:00	2024-11-06T10:00:00	4	Temperatura máxima	16.4
143307	7	Sololá	701	Sololá	2	El tablón	3	Marzo	2023-03-19T00:00:00	2024-11-06T10:00:00	3	Temperatura mínima	15.4
143308	7	Sololá	701	Sololá	2	El tablón	3	Marzo	2023-03-19T00:00:00	2024-11-06T10:00:00	5	Humedad	78
143309	7	Sololá	701	Sololá	2	El tablón	3	Marzo	2023-03-19T00:00:00	2024-11-06T10:00:00	6	Velocidad del viento	3.2
143310	7	Sololá	701	Sololá	2	El tablón	3	Marzo	2023-03-19T00:00:00	2024-11-06T10:00:00	7	Dirección del viento	3.22
143311	7	Sololá	701	Sololá	2	El tablón	3	Marzo	2023-03-19T00:00:00	2024-11-06T10:00:00	1	Precipitación	0
143312	7	Sololá	701	Sololá	2	El tablón	3	Marzo	2023-03-19T00:00:00	2024-11-06T10:00:00	8	Radiación solar	185
143313	7	Sololá	701	Sololá	2	El tablón	3	Marzo	2023-03-19T00:00:00	2024-11-06T11:00:00	2	Temperatura media	16.3
143314	7	Sololá	701	Sololá	2	El tablón	3	Marzo	2023-03-19T00:00:00	2024-11-06T11:00:00	4	Temperatura máxima	16.3
143315	7	Sololá	701	Sololá	2	El tablón	3	Marzo	2023-03-19T00:00:00	2024-11-06T11:00:00	3	Temperatura mínima	15.3
143316	7	Sololá	701	Sololá	2	El tablón	3	Marzo	2023-03-19T00:00:00	2024-11-06T11:00:00	5	Humedad	77
143317	7	Sololá	701	Sololá	2	El tablón	3	Marzo	2023-03-19T00:00:00	2024-11-06T11:00:00	6	Velocidad del viento	4.8
143318	7	Sololá	701	Sololá	2	El tablón	3	Marzo	2023-03-19T00:00:00	2024-11-06T11:00:00	7	Dirección del viento	4.83
143319	7	Sololá	701	Sololá	2	El tablón	3	Marzo	2023-03-19T00:00:00	2024-11-06T11:00:00	1	Precipitación	0
143320	7	Sololá	701	Sololá	2	El tablón	3	Marzo	2023-03-19T00:00:00	2024-11-06T11:00:00	8	Radiación solar	259
143321	7	Sololá	701	Sololá	2	El tablón	3	Marzo	2023-03-19T00:00:00	2024-11-06T12:00:00	2	Temperatura media	15.3
143322	7	Sololá	701	Sololá	2	El tablón	3	Marzo	2023-03-19T00:00:00	2024-11-06T12:00:00	4	Temperatura máxima	16.8
143323	7	Sololá	701	Sololá	2	El tablón	3	Marzo	2023-03-19T00:00:00	2024-11-06T12:00:00	3	Temperatura mínima	15.3
143324	7	Sololá	701	Sololá	2	El tablón	3	Marzo	2023-03-19T00:00:00	2024-11-06T12:00:00	5	Humedad	86
143325	7	Sololá	701	Sololá	2	El tablón	3	Marzo	2023-03-19T00:00:00	2024-11-06T12:00:00	6	Velocidad del viento	3.2
143326	7	Sololá	701	Sololá	2	El tablón	3	Marzo	2023-03-19T00:00:00	2024-11-06T12:00:00	7	Dirección del viento	3.22
143327	7	Sololá	701	Sololá	2	El tablón	3	Marzo	2023-03-19T00:00:00	2024-11-06T12:00:00	1	Precipitación	0
143328	7	Sololá	701	Sololá	2	El tablón	3	Marzo	2023-03-19T00:00:00	2024-11-06T12:00:00	8	Radiación solar	165
143329	7	Sololá	701	Sololá	2	El tablón	3	Marzo	2023-03-19T00:00:00	2024-11-06T13:00:00	2	Temperatura media	15.8
143330	7	Sololá	701	Sololá	2	El tablón	3	Marzo	2023-03-19T00:00:00	2024-11-06T13:00:00	4	Temperatura máxima	16.7
143331	7	Sololá	701	Sololá	2	El tablón	3	Marzo	2023-03-19T00:00:00	2024-11-06T13:00:00	3	Temperatura mínima	15
143332	7	Sololá	701	Sololá	2	El tablón	3	Marzo	2023-03-19T00:00:00	2024-11-06T13:00:00	5	Humedad	86
143333	7	Sololá	701	Sololá	2	El tablón	3	Marzo	2023-03-19T00:00:00	2024-11-06T13:00:00	6	Velocidad del viento	3.2
143334	7	Sololá	701	Sololá	2	El tablón	3	Marzo	2023-03-19T00:00:00	2024-11-06T13:00:00	7	Dirección del viento	3.22
143335	7	Sololá	701	Sololá	2	El tablón	3	Marzo	2023-03-19T00:00:00	2024-11-06T13:00:00	1	Precipitación	0.2
143336	7	Sololá	701	Sololá	2	El tablón	3	Marzo	2023-03-19T00:00:00	2024-11-06T13:00:00	8	Radiación solar	218
143337	7	Sololá	701	Sololá	2	El tablón	3	Marzo	2023-03-19T00:00:00	2024-11-06T14:00:00	2	Temperatura media	13.9
143338	7	Sololá	701	Sololá	2	El tablón	3	Marzo	2023-03-19T00:00:00	2024-11-06T14:00:00	4	Temperatura máxima	15.8
143339	7	Sololá	701	Sololá	2	El tablón	3	Marzo	2023-03-19T00:00:00	2024-11-06T14:00:00	3	Temperatura mínima	13.8
143340	7	Sololá	701	Sololá	2	El tablón	3	Marzo	2023-03-19T00:00:00	2024-11-06T14:00:00	5	Humedad	89
143341	7	Sololá	701	Sololá	2	El tablón	3	Marzo	2023-03-19T00:00:00	2024-11-06T14:00:00	6	Velocidad del viento	3.2
143342	7	Sololá	701	Sololá	2	El tablón	3	Marzo	2023-03-19T00:00:00	2024-11-06T14:00:00	7	Dirección del viento	3.22
143343	7	Sololá	701	Sololá	2	El tablón	3	Marzo	2023-03-19T00:00:00	2024-11-06T14:00:00	1	Precipitación	7.2
143344	7	Sololá	701	Sololá	2	El tablón	3	Marzo	2023-03-19T00:00:00	2024-11-06T14:00:00	8	Radiación solar	135
143345	7	Sololá	701	Sololá	2	El tablón	3	Marzo	2023-03-19T00:00:00	2024-11-06T15:00:00	2	Temperatura media	14.1
143346	7	Sololá	701	Sololá	2	El tablón	3	Marzo	2023-03-19T00:00:00	2024-11-06T15:00:00	4	Temperatura máxima	14.8
143347	7	Sololá	701	Sololá	2	El tablón	3	Marzo	2023-03-19T00:00:00	2024-11-06T15:00:00	3	Temperatura mínima	13.9
143348	7	Sololá	701	Sololá	2	El tablón	3	Marzo	2023-03-19T00:00:00	2024-11-06T15:00:00	5	Humedad	89
143349	7	Sololá	701	Sololá	2	El tablón	3	Marzo	2023-03-19T00:00:00	2024-11-06T15:00:00	6	Velocidad del viento	3.2
143350	7	Sololá	701	Sololá	2	El tablón	3	Marzo	2023-03-19T00:00:00	2024-11-06T15:00:00	7	Dirección del viento	3.22
143351	7	Sololá	701	Sololá	2	El tablón	3	Marzo	2023-03-19T00:00:00	2024-11-06T15:00:00	1	Precipitación	0
143352	7	Sololá	701	Sololá	2	El tablón	3	Marzo	2023-03-19T00:00:00	2024-11-06T15:00:00	8	Radiación solar	221
143353	7	Sololá	701	Sololá	2	El tablón	3	Marzo	2023-03-19T00:00:00	2024-11-06T16:00:00	2	Temperatura media	13.4
143354	7	Sololá	701	Sololá	2	El tablón	3	Marzo	2023-03-19T00:00:00	2024-11-06T16:00:00	4	Temperatura máxima	14.1
143355	7	Sololá	701	Sololá	2	El tablón	3	Marzo	2023-03-19T00:00:00	2024-11-06T16:00:00	3	Temperatura mínima	13.3
143356	7	Sololá	701	Sololá	2	El tablón	3	Marzo	2023-03-19T00:00:00	2024-11-06T16:00:00	5	Humedad	89
143357	7	Sololá	701	Sololá	2	El tablón	3	Marzo	2023-03-19T00:00:00	2024-11-06T16:00:00	6	Velocidad del viento	1.6
143358	7	Sololá	701	Sololá	2	El tablón	3	Marzo	2023-03-19T00:00:00	2024-11-06T16:00:00	7	Dirección del viento	1.61
143359	7	Sololá	701	Sololá	2	El tablón	3	Marzo	2023-03-19T00:00:00	2024-11-06T16:00:00	1	Precipitación	0.6
143360	7	Sololá	701	Sololá	2	El tablón	3	Marzo	2023-03-19T00:00:00	2024-11-06T16:00:00	8	Radiación solar	44
143361	7	Sololá	701	Sololá	2	El tablón	3	Marzo	2023-03-19T00:00:00	2024-11-06T17:00:00	2	Temperatura media	13.3
143362	7	Sololá	701	Sololá	2	El tablón	3	Marzo	2023-03-19T00:00:00	2024-11-06T17:00:00	4	Temperatura máxima	13.5
143363	7	Sololá	701	Sololá	2	El tablón	3	Marzo	2023-03-19T00:00:00	2024-11-06T17:00:00	3	Temperatura mínima	13.1
143364	7	Sololá	701	Sololá	2	El tablón	3	Marzo	2023-03-19T00:00:00	2024-11-06T17:00:00	5	Humedad	89
143365	7	Sololá	701	Sololá	2	El tablón	3	Marzo	2023-03-19T00:00:00	2024-11-06T17:00:00	6	Velocidad del viento	3.2
143366	7	Sololá	701	Sololá	2	El tablón	3	Marzo	2023-03-19T00:00:00	2024-11-06T17:00:00	7	Dirección del viento	3.22
143367	7	Sololá	701	Sololá	2	El tablón	3	Marzo	2023-03-19T00:00:00	2024-11-06T17:00:00	1	Precipitación	0
143368	7	Sololá	701	Sololá	2	El tablón	3	Marzo	2023-03-19T00:00:00	2024-11-06T17:00:00	8	Radiación solar	39
143369	7	Sololá	701	Sololá	2	El tablón	3	Marzo	2023-03-19T00:00:00	2024-11-06T18:00:00	2	Temperatura media	12.7
143370	7	Sololá	701	Sololá	2	El tablón	3	Marzo	2023-03-19T00:00:00	2024-11-06T18:00:00	4	Temperatura máxima	13.3
143371	7	Sololá	701	Sololá	2	El tablón	3	Marzo	2023-03-19T00:00:00	2024-11-06T18:00:00	3	Temperatura mínima	12.7
143372	7	Sololá	701	Sololá	2	El tablón	3	Marzo	2023-03-19T00:00:00	2024-11-06T18:00:00	5	Humedad	89
143373	7	Sololá	701	Sololá	2	El tablón	3	Marzo	2023-03-19T00:00:00	2024-11-06T18:00:00	6	Velocidad del viento	1.6
143374	7	Sololá	701	Sololá	2	El tablón	3	Marzo	2023-03-19T00:00:00	2024-11-06T18:00:00	7	Dirección del viento	1.61
143375	7	Sololá	701	Sololá	2	El tablón	3	Marzo	2023-03-19T00:00:00	2024-11-06T18:00:00	1	Precipitación	1.6
143376	7	Sololá	701	Sololá	2	El tablón	3	Marzo	2023-03-19T00:00:00	2024-11-06T18:00:00	8	Radiación solar	21
143377	7	Sololá	701	Sololá	2	El tablón	3	Marzo	2023-03-19T00:00:00	2024-11-06T19:00:00	2	Temperatura media	12.6
143378	7	Sololá	701	Sololá	2	El tablón	3	Marzo	2023-03-19T00:00:00	2024-11-06T19:00:00	4	Temperatura máxima	12.7
143379	7	Sololá	701	Sololá	2	El tablón	3	Marzo	2023-03-19T00:00:00	2024-11-06T19:00:00	3	Temperatura mínima	12.5
143380	7	Sololá	701	Sololá	2	El tablón	3	Marzo	2023-03-19T00:00:00	2024-11-06T19:00:00	5	Humedad	89
143381	7	Sololá	701	Sololá	2	El tablón	3	Marzo	2023-03-19T00:00:00	2024-11-06T19:00:00	6	Velocidad del viento	0
143382	7	Sololá	701	Sololá	2	El tablón	3	Marzo	2023-03-19T00:00:00	2024-11-06T19:00:00	7	Dirección del viento	0
143383	7	Sololá	701	Sololá	2	El tablón	3	Marzo	2023-03-19T00:00:00	2024-11-06T19:00:00	1	Precipitación	0.2
143384	7	Sololá	701	Sololá	2	El tablón	3	Marzo	2023-03-19T00:00:00	2024-11-06T19:00:00	8	Radiación solar	0
143385	7	Sololá	701	Sololá	2	El tablón	3	Marzo	2023-03-19T00:00:00	2024-11-06T20:00:00	2	Temperatura media	12.4
143386	7	Sololá	701	Sololá	2	El tablón	3	Marzo	2023-03-19T00:00:00	2024-11-06T20:00:00	4	Temperatura máxima	12.6
143387	7	Sololá	701	Sololá	2	El tablón	3	Marzo	2023-03-19T00:00:00	2024-11-06T20:00:00	3	Temperatura mínima	12.3
143388	7	Sololá	701	Sololá	2	El tablón	3	Marzo	2023-03-19T00:00:00	2024-11-06T20:00:00	5	Humedad	90
143389	7	Sololá	701	Sololá	2	El tablón	3	Marzo	2023-03-19T00:00:00	2024-11-06T20:00:00	6	Velocidad del viento	4.8
143390	7	Sololá	701	Sololá	2	El tablón	3	Marzo	2023-03-19T00:00:00	2024-11-06T20:00:00	7	Dirección del viento	4.83
143391	7	Sololá	701	Sololá	2	El tablón	3	Marzo	2023-03-19T00:00:00	2024-11-06T20:00:00	1	Precipitación	0
143392	7	Sololá	701	Sololá	2	El tablón	3	Marzo	2023-03-19T00:00:00	2024-11-06T20:00:00	8	Radiación solar	0
143393	7	Sololá	701	Sololá	2	El tablón	3	Marzo	2023-03-19T00:00:00	2024-11-06T21:00:00	2	Temperatura media	12.4
143394	7	Sololá	701	Sololá	2	El tablón	3	Marzo	2023-03-19T00:00:00	2024-11-06T21:00:00	4	Temperatura máxima	12.4
143395	7	Sololá	701	Sololá	2	El tablón	3	Marzo	2023-03-19T00:00:00	2024-11-06T21:00:00	3	Temperatura mínima	12.2
143396	7	Sololá	701	Sololá	2	El tablón	3	Marzo	2023-03-19T00:00:00	2024-11-06T21:00:00	5	Humedad	89
143397	7	Sololá	701	Sololá	2	El tablón	3	Marzo	2023-03-19T00:00:00	2024-11-06T21:00:00	6	Velocidad del viento	8
143398	7	Sololá	701	Sololá	2	El tablón	3	Marzo	2023-03-19T00:00:00	2024-11-06T21:00:00	7	Dirección del viento	8.05
143399	7	Sololá	701	Sololá	2	El tablón	3	Marzo	2023-03-19T00:00:00	2024-11-06T21:00:00	1	Precipitación	0
143400	7	Sololá	701	Sololá	2	El tablón	3	Marzo	2023-03-19T00:00:00	2024-11-06T21:00:00	8	Radiación solar	0
143401	7	Sololá	701	Sololá	2	El tablón	3	Marzo	2023-03-19T00:00:00	2024-11-06T22:00:00	2	Temperatura media	12
143402	7	Sololá	701	Sololá	2	El tablón	3	Marzo	2023-03-19T00:00:00	2024-11-06T22:00:00	4	Temperatura máxima	12.4
143403	7	Sololá	701	Sololá	2	El tablón	3	Marzo	2023-03-19T00:00:00	2024-11-06T22:00:00	3	Temperatura mínima	12
143404	7	Sololá	701	Sololá	2	El tablón	3	Marzo	2023-03-19T00:00:00	2024-11-06T22:00:00	5	Humedad	89
143405	7	Sololá	701	Sololá	2	El tablón	3	Marzo	2023-03-19T00:00:00	2024-11-06T22:00:00	6	Velocidad del viento	9.7
143406	7	Sololá	701	Sololá	2	El tablón	3	Marzo	2023-03-19T00:00:00	2024-11-06T22:00:00	7	Dirección del viento	9.66
143407	7	Sololá	701	Sololá	2	El tablón	3	Marzo	2023-03-19T00:00:00	2024-11-06T22:00:00	1	Precipitación	0
143408	7	Sololá	701	Sololá	2	El tablón	3	Marzo	2023-03-19T00:00:00	2024-11-06T22:00:00	8	Radiación solar	0
143409	7	Sololá	701	Sololá	2	El tablón	3	Marzo	2023-03-19T00:00:00	2024-11-06T23:00:00	2	Temperatura media	12.1
143410	7	Sololá	701	Sololá	2	El tablón	3	Marzo	2023-03-19T00:00:00	2024-11-06T23:00:00	4	Temperatura máxima	12.2
143411	7	Sololá	701	Sololá	2	El tablón	3	Marzo	2023-03-19T00:00:00	2024-11-06T23:00:00	3	Temperatura mínima	12
143412	7	Sololá	701	Sololá	2	El tablón	3	Marzo	2023-03-19T00:00:00	2024-11-06T23:00:00	5	Humedad	88
143413	7	Sololá	701	Sololá	2	El tablón	3	Marzo	2023-03-19T00:00:00	2024-11-06T23:00:00	6	Velocidad del viento	11.3
143414	7	Sololá	701	Sololá	2	El tablón	3	Marzo	2023-03-19T00:00:00	2024-11-06T23:00:00	7	Dirección del viento	11.27
143415	7	Sololá	701	Sololá	2	El tablón	3	Marzo	2023-03-19T00:00:00	2024-11-06T23:00:00	1	Precipitación	0
143416	7	Sololá	701	Sololá	2	El tablón	3	Marzo	2023-03-19T00:00:00	2024-11-06T23:00:00	8	Radiación solar	0
143417	7	Sololá	701	Sololá	2	El tablón	3	Marzo	2023-03-20T00:00:00	2024-11-06T00:00:00	2	Temperatura media	11.9
143418	7	Sololá	701	Sololá	2	El tablón	3	Marzo	2023-03-20T00:00:00	2024-11-06T00:00:00	4	Temperatura máxima	12.2
143419	7	Sololá	701	Sololá	2	El tablón	3	Marzo	2023-03-20T00:00:00	2024-11-06T00:00:00	3	Temperatura mínima	11.9
143420	7	Sololá	701	Sololá	2	El tablón	3	Marzo	2023-03-20T00:00:00	2024-11-06T00:00:00	5	Humedad	88
143421	7	Sololá	701	Sololá	2	El tablón	3	Marzo	2023-03-20T00:00:00	2024-11-06T00:00:00	6	Velocidad del viento	11.3
143422	7	Sololá	701	Sololá	2	El tablón	3	Marzo	2023-03-20T00:00:00	2024-11-06T00:00:00	7	Dirección del viento	11.27
143423	7	Sololá	701	Sololá	2	El tablón	3	Marzo	2023-03-20T00:00:00	2024-11-06T00:00:00	1	Precipitación	0
143424	7	Sololá	701	Sololá	2	El tablón	3	Marzo	2023-03-20T00:00:00	2024-11-06T00:00:00	8	Radiación solar	0
143425	7	Sololá	701	Sololá	2	El tablón	3	Marzo	2023-03-20T00:00:00	2024-11-06T01:00:00	2	Temperatura media	12
143426	7	Sololá	701	Sololá	2	El tablón	3	Marzo	2023-03-20T00:00:00	2024-11-06T01:00:00	4	Temperatura máxima	12.1
143427	7	Sololá	701	Sololá	2	El tablón	3	Marzo	2023-03-20T00:00:00	2024-11-06T01:00:00	3	Temperatura mínima	11.8
143428	7	Sololá	701	Sololá	2	El tablón	3	Marzo	2023-03-20T00:00:00	2024-11-06T01:00:00	5	Humedad	87
143429	7	Sololá	701	Sololá	2	El tablón	3	Marzo	2023-03-20T00:00:00	2024-11-06T01:00:00	6	Velocidad del viento	11.3
143430	7	Sololá	701	Sololá	2	El tablón	3	Marzo	2023-03-20T00:00:00	2024-11-06T01:00:00	7	Dirección del viento	11.27
143431	7	Sololá	701	Sololá	2	El tablón	3	Marzo	2023-03-20T00:00:00	2024-11-06T01:00:00	1	Precipitación	0
143432	7	Sololá	701	Sololá	2	El tablón	3	Marzo	2023-03-20T00:00:00	2024-11-06T01:00:00	8	Radiación solar	0
143433	7	Sololá	701	Sololá	2	El tablón	3	Marzo	2023-03-20T00:00:00	2024-11-06T02:00:00	2	Temperatura media	11.8
143434	7	Sololá	701	Sololá	2	El tablón	3	Marzo	2023-03-20T00:00:00	2024-11-06T02:00:00	4	Temperatura máxima	12.2
143435	7	Sololá	701	Sololá	2	El tablón	3	Marzo	2023-03-20T00:00:00	2024-11-06T02:00:00	3	Temperatura mínima	11.8
143436	7	Sololá	701	Sololá	2	El tablón	3	Marzo	2023-03-20T00:00:00	2024-11-06T02:00:00	5	Humedad	89
143437	7	Sololá	701	Sololá	2	El tablón	3	Marzo	2023-03-20T00:00:00	2024-11-06T02:00:00	6	Velocidad del viento	12.9
143438	7	Sololá	701	Sololá	2	El tablón	3	Marzo	2023-03-20T00:00:00	2024-11-06T02:00:00	7	Dirección del viento	12.87
143439	7	Sololá	701	Sololá	2	El tablón	3	Marzo	2023-03-20T00:00:00	2024-11-06T02:00:00	1	Precipitación	0
143440	7	Sololá	701	Sololá	2	El tablón	3	Marzo	2023-03-20T00:00:00	2024-11-06T02:00:00	8	Radiación solar	0
143441	7	Sololá	701	Sololá	2	El tablón	3	Marzo	2023-03-20T00:00:00	2024-11-06T03:00:00	2	Temperatura media	10.9
143442	7	Sololá	701	Sololá	2	El tablón	3	Marzo	2023-03-20T00:00:00	2024-11-06T03:00:00	4	Temperatura máxima	11.8
143443	7	Sololá	701	Sololá	2	El tablón	3	Marzo	2023-03-20T00:00:00	2024-11-06T03:00:00	3	Temperatura mínima	10.9
143444	7	Sololá	701	Sololá	2	El tablón	3	Marzo	2023-03-20T00:00:00	2024-11-06T03:00:00	5	Humedad	89
143445	7	Sololá	701	Sololá	2	El tablón	3	Marzo	2023-03-20T00:00:00	2024-11-06T03:00:00	6	Velocidad del viento	11.3
143446	7	Sololá	701	Sololá	2	El tablón	3	Marzo	2023-03-20T00:00:00	2024-11-06T03:00:00	7	Dirección del viento	11.27
143447	7	Sololá	701	Sololá	2	El tablón	3	Marzo	2023-03-20T00:00:00	2024-11-06T03:00:00	1	Precipitación	0
143448	7	Sololá	701	Sololá	2	El tablón	3	Marzo	2023-03-20T00:00:00	2024-11-06T03:00:00	8	Radiación solar	0
143449	7	Sololá	701	Sololá	2	El tablón	3	Marzo	2023-03-20T00:00:00	2024-11-06T04:00:00	2	Temperatura media	11.3
143450	7	Sololá	701	Sololá	2	El tablón	3	Marzo	2023-03-20T00:00:00	2024-11-06T04:00:00	4	Temperatura máxima	11.4
143451	7	Sololá	701	Sololá	2	El tablón	3	Marzo	2023-03-20T00:00:00	2024-11-06T04:00:00	3	Temperatura mínima	10.9
143452	7	Sololá	701	Sololá	2	El tablón	3	Marzo	2023-03-20T00:00:00	2024-11-06T04:00:00	5	Humedad	87
143453	7	Sololá	701	Sololá	2	El tablón	3	Marzo	2023-03-20T00:00:00	2024-11-06T04:00:00	6	Velocidad del viento	14.5
143454	7	Sololá	701	Sololá	2	El tablón	3	Marzo	2023-03-20T00:00:00	2024-11-06T04:00:00	7	Dirección del viento	14.48
143455	7	Sololá	701	Sololá	2	El tablón	3	Marzo	2023-03-20T00:00:00	2024-11-06T04:00:00	1	Precipitación	0
143456	7	Sololá	701	Sololá	2	El tablón	3	Marzo	2023-03-20T00:00:00	2024-11-06T04:00:00	8	Radiación solar	0
143457	7	Sololá	701	Sololá	2	El tablón	3	Marzo	2023-03-20T00:00:00	2024-11-06T05:00:00	2	Temperatura media	11.5
143458	7	Sololá	701	Sololá	2	El tablón	3	Marzo	2023-03-20T00:00:00	2024-11-06T05:00:00	4	Temperatura máxima	11.6
143459	7	Sololá	701	Sololá	2	El tablón	3	Marzo	2023-03-20T00:00:00	2024-11-06T05:00:00	3	Temperatura mínima	11.3
143460	7	Sololá	701	Sololá	2	El tablón	3	Marzo	2023-03-20T00:00:00	2024-11-06T05:00:00	5	Humedad	85
143461	7	Sololá	701	Sololá	2	El tablón	3	Marzo	2023-03-20T00:00:00	2024-11-06T05:00:00	6	Velocidad del viento	16.1
143462	7	Sololá	701	Sololá	2	El tablón	3	Marzo	2023-03-20T00:00:00	2024-11-06T05:00:00	7	Dirección del viento	16.09
143463	7	Sololá	701	Sololá	2	El tablón	3	Marzo	2023-03-20T00:00:00	2024-11-06T05:00:00	1	Precipitación	0
143464	7	Sololá	701	Sololá	2	El tablón	3	Marzo	2023-03-20T00:00:00	2024-11-06T05:00:00	8	Radiación solar	0
143465	7	Sololá	701	Sololá	2	El tablón	3	Marzo	2023-03-20T00:00:00	2024-11-06T06:00:00	2	Temperatura media	11.4
143466	7	Sololá	701	Sololá	2	El tablón	3	Marzo	2023-03-20T00:00:00	2024-11-06T06:00:00	4	Temperatura máxima	11.6
143467	7	Sololá	701	Sololá	2	El tablón	3	Marzo	2023-03-20T00:00:00	2024-11-06T06:00:00	3	Temperatura mínima	11.4
143468	7	Sololá	701	Sololá	2	El tablón	3	Marzo	2023-03-20T00:00:00	2024-11-06T06:00:00	5	Humedad	86
143469	7	Sololá	701	Sololá	2	El tablón	3	Marzo	2023-03-20T00:00:00	2024-11-06T06:00:00	6	Velocidad del viento	17.7
143470	7	Sololá	701	Sololá	2	El tablón	3	Marzo	2023-03-20T00:00:00	2024-11-06T06:00:00	7	Dirección del viento	17.7
143471	7	Sololá	701	Sololá	2	El tablón	3	Marzo	2023-03-20T00:00:00	2024-11-06T06:00:00	1	Precipitación	0
143472	7	Sololá	701	Sololá	2	El tablón	3	Marzo	2023-03-20T00:00:00	2024-11-06T06:00:00	8	Radiación solar	0
143473	7	Sololá	701	Sololá	2	El tablón	3	Marzo	2023-03-20T00:00:00	2024-11-06T07:00:00	2	Temperatura media	12.1
143474	7	Sololá	701	Sololá	2	El tablón	3	Marzo	2023-03-20T00:00:00	2024-11-06T07:00:00	4	Temperatura máxima	12.1
143475	7	Sololá	701	Sololá	2	El tablón	3	Marzo	2023-03-20T00:00:00	2024-11-06T07:00:00	3	Temperatura mínima	11.3
143476	7	Sololá	701	Sololá	2	El tablón	3	Marzo	2023-03-20T00:00:00	2024-11-06T07:00:00	5	Humedad	84
143477	7	Sololá	701	Sololá	2	El tablón	3	Marzo	2023-03-20T00:00:00	2024-11-06T07:00:00	6	Velocidad del viento	17.7
143478	7	Sololá	701	Sololá	2	El tablón	3	Marzo	2023-03-20T00:00:00	2024-11-06T07:00:00	7	Dirección del viento	17.7
143479	7	Sololá	701	Sololá	2	El tablón	3	Marzo	2023-03-20T00:00:00	2024-11-06T07:00:00	1	Precipitación	0
143480	7	Sololá	701	Sololá	2	El tablón	3	Marzo	2023-03-20T00:00:00	2024-11-06T07:00:00	8	Radiación solar	29
143481	7	Sololá	701	Sololá	2	El tablón	3	Marzo	2023-03-20T00:00:00	2024-11-06T08:00:00	2	Temperatura media	12.7
143482	7	Sololá	701	Sololá	2	El tablón	3	Marzo	2023-03-20T00:00:00	2024-11-06T08:00:00	4	Temperatura máxima	12.8
143483	7	Sololá	701	Sololá	2	El tablón	3	Marzo	2023-03-20T00:00:00	2024-11-06T08:00:00	3	Temperatura mínima	12.1
143484	7	Sololá	701	Sololá	2	El tablón	3	Marzo	2023-03-20T00:00:00	2024-11-06T08:00:00	5	Humedad	84
143485	7	Sololá	701	Sololá	2	El tablón	3	Marzo	2023-03-20T00:00:00	2024-11-06T08:00:00	6	Velocidad del viento	19.3
143486	7	Sololá	701	Sololá	2	El tablón	3	Marzo	2023-03-20T00:00:00	2024-11-06T08:00:00	7	Dirección del viento	19.31
143487	7	Sololá	701	Sololá	2	El tablón	3	Marzo	2023-03-20T00:00:00	2024-11-06T08:00:00	1	Precipitación	0
143488	7	Sololá	701	Sololá	2	El tablón	3	Marzo	2023-03-20T00:00:00	2024-11-06T08:00:00	8	Radiación solar	176
143489	7	Sololá	701	Sololá	2	El tablón	3	Marzo	2023-03-20T00:00:00	2024-11-06T09:00:00	2	Temperatura media	13.9
143490	7	Sololá	701	Sololá	2	El tablón	3	Marzo	2023-03-20T00:00:00	2024-11-06T09:00:00	4	Temperatura máxima	13.9
143491	7	Sololá	701	Sololá	2	El tablón	3	Marzo	2023-03-20T00:00:00	2024-11-06T09:00:00	3	Temperatura mínima	12.7
143492	7	Sololá	701	Sololá	2	El tablón	3	Marzo	2023-03-20T00:00:00	2024-11-06T09:00:00	5	Humedad	82
143493	7	Sololá	701	Sololá	2	El tablón	3	Marzo	2023-03-20T00:00:00	2024-11-06T09:00:00	6	Velocidad del viento	17.7
143494	7	Sololá	701	Sololá	2	El tablón	3	Marzo	2023-03-20T00:00:00	2024-11-06T09:00:00	7	Dirección del viento	17.7
143495	7	Sololá	701	Sololá	2	El tablón	3	Marzo	2023-03-20T00:00:00	2024-11-06T09:00:00	1	Precipitación	0
143496	7	Sololá	701	Sololá	2	El tablón	3	Marzo	2023-03-20T00:00:00	2024-11-06T09:00:00	8	Radiación solar	378
143497	7	Sololá	701	Sololá	2	El tablón	3	Marzo	2023-03-20T00:00:00	2024-11-06T10:00:00	2	Temperatura media	15.1
143498	7	Sololá	701	Sololá	2	El tablón	3	Marzo	2023-03-20T00:00:00	2024-11-06T10:00:00	4	Temperatura máxima	15.3
143499	7	Sololá	701	Sololá	2	El tablón	3	Marzo	2023-03-20T00:00:00	2024-11-06T10:00:00	3	Temperatura mínima	13.9
143500	7	Sololá	701	Sololá	2	El tablón	3	Marzo	2023-03-20T00:00:00	2024-11-06T10:00:00	5	Humedad	78
143501	7	Sololá	701	Sololá	2	El tablón	3	Marzo	2023-03-20T00:00:00	2024-11-06T10:00:00	6	Velocidad del viento	16.1
143502	7	Sololá	701	Sololá	2	El tablón	3	Marzo	2023-03-20T00:00:00	2024-11-06T10:00:00	7	Dirección del viento	16.09
143503	7	Sololá	701	Sololá	2	El tablón	3	Marzo	2023-03-20T00:00:00	2024-11-06T10:00:00	1	Precipitación	0
143504	7	Sololá	701	Sololá	2	El tablón	3	Marzo	2023-03-20T00:00:00	2024-11-06T10:00:00	8	Radiación solar	651
143505	7	Sololá	701	Sololá	2	El tablón	3	Marzo	2023-03-20T00:00:00	2024-11-06T11:00:00	2	Temperatura media	15.8
143506	7	Sololá	701	Sololá	2	El tablón	3	Marzo	2023-03-20T00:00:00	2024-11-06T11:00:00	4	Temperatura máxima	15.9
143507	7	Sololá	701	Sololá	2	El tablón	3	Marzo	2023-03-20T00:00:00	2024-11-06T11:00:00	3	Temperatura mínima	15
143508	7	Sololá	701	Sololá	2	El tablón	3	Marzo	2023-03-20T00:00:00	2024-11-06T11:00:00	5	Humedad	75
143509	7	Sololá	701	Sololá	2	El tablón	3	Marzo	2023-03-20T00:00:00	2024-11-06T11:00:00	6	Velocidad del viento	16.1
143510	7	Sololá	701	Sololá	2	El tablón	3	Marzo	2023-03-20T00:00:00	2024-11-06T11:00:00	7	Dirección del viento	16.09
143511	7	Sololá	701	Sololá	2	El tablón	3	Marzo	2023-03-20T00:00:00	2024-11-06T11:00:00	1	Precipitación	0
143512	7	Sololá	701	Sololá	2	El tablón	3	Marzo	2023-03-20T00:00:00	2024-11-06T11:00:00	8	Radiación solar	843
143513	7	Sololá	701	Sololá	2	El tablón	3	Marzo	2023-03-20T00:00:00	2024-11-06T12:00:00	2	Temperatura media	16.9
143514	7	Sololá	701	Sololá	2	El tablón	3	Marzo	2023-03-20T00:00:00	2024-11-06T12:00:00	4	Temperatura máxima	16.9
143515	7	Sololá	701	Sololá	2	El tablón	3	Marzo	2023-03-20T00:00:00	2024-11-06T12:00:00	3	Temperatura mínima	15.8
143516	7	Sololá	701	Sololá	2	El tablón	3	Marzo	2023-03-20T00:00:00	2024-11-06T12:00:00	5	Humedad	71
143517	7	Sololá	701	Sololá	2	El tablón	3	Marzo	2023-03-20T00:00:00	2024-11-06T12:00:00	6	Velocidad del viento	16.1
143518	7	Sololá	701	Sololá	2	El tablón	3	Marzo	2023-03-20T00:00:00	2024-11-06T12:00:00	7	Dirección del viento	16.09
143519	7	Sololá	701	Sololá	2	El tablón	3	Marzo	2023-03-20T00:00:00	2024-11-06T12:00:00	1	Precipitación	0
143520	7	Sololá	701	Sololá	2	El tablón	3	Marzo	2023-03-20T00:00:00	2024-11-06T12:00:00	8	Radiación solar	930
143521	7	Sololá	701	Sololá	2	El tablón	3	Marzo	2023-03-20T00:00:00	2024-11-06T13:00:00	2	Temperatura media	17.9
143522	7	Sololá	701	Sololá	2	El tablón	3	Marzo	2023-03-20T00:00:00	2024-11-06T13:00:00	4	Temperatura máxima	17.9
143523	7	Sololá	701	Sololá	2	El tablón	3	Marzo	2023-03-20T00:00:00	2024-11-06T13:00:00	3	Temperatura mínima	16.8
143524	7	Sololá	701	Sololá	2	El tablón	3	Marzo	2023-03-20T00:00:00	2024-11-06T13:00:00	5	Humedad	69
143525	7	Sololá	701	Sololá	2	El tablón	3	Marzo	2023-03-20T00:00:00	2024-11-06T13:00:00	6	Velocidad del viento	14.5
143526	7	Sololá	701	Sololá	2	El tablón	3	Marzo	2023-03-20T00:00:00	2024-11-06T13:00:00	7	Dirección del viento	14.48
143527	7	Sololá	701	Sololá	2	El tablón	3	Marzo	2023-03-20T00:00:00	2024-11-06T13:00:00	1	Precipitación	0
143528	7	Sololá	701	Sololá	2	El tablón	3	Marzo	2023-03-20T00:00:00	2024-11-06T13:00:00	8	Radiación solar	966
143529	7	Sololá	701	Sololá	2	El tablón	3	Marzo	2023-03-20T00:00:00	2024-11-06T14:00:00	2	Temperatura media	18.5
143530	7	Sololá	701	Sololá	2	El tablón	3	Marzo	2023-03-20T00:00:00	2024-11-06T14:00:00	4	Temperatura máxima	18.8
143531	7	Sololá	701	Sololá	2	El tablón	3	Marzo	2023-03-20T00:00:00	2024-11-06T14:00:00	3	Temperatura mínima	17.8
143532	7	Sololá	701	Sololá	2	El tablón	3	Marzo	2023-03-20T00:00:00	2024-11-06T14:00:00	5	Humedad	65
143533	7	Sololá	701	Sololá	2	El tablón	3	Marzo	2023-03-20T00:00:00	2024-11-06T14:00:00	6	Velocidad del viento	12.9
143534	7	Sololá	701	Sololá	2	El tablón	3	Marzo	2023-03-20T00:00:00	2024-11-06T14:00:00	7	Dirección del viento	12.87
143535	7	Sololá	701	Sololá	2	El tablón	3	Marzo	2023-03-20T00:00:00	2024-11-06T14:00:00	1	Precipitación	0
143536	7	Sololá	701	Sololá	2	El tablón	3	Marzo	2023-03-20T00:00:00	2024-11-06T14:00:00	8	Radiación solar	910
143537	7	Sololá	701	Sololá	2	El tablón	3	Marzo	2023-03-20T00:00:00	2024-11-06T15:00:00	2	Temperatura media	17.9
143538	7	Sololá	701	Sololá	2	El tablón	3	Marzo	2023-03-20T00:00:00	2024-11-06T15:00:00	4	Temperatura máxima	18.9
143539	7	Sololá	701	Sololá	2	El tablón	3	Marzo	2023-03-20T00:00:00	2024-11-06T15:00:00	3	Temperatura mínima	17.9
143540	7	Sololá	701	Sololá	2	El tablón	3	Marzo	2023-03-20T00:00:00	2024-11-06T15:00:00	5	Humedad	64
143541	7	Sololá	701	Sololá	2	El tablón	3	Marzo	2023-03-20T00:00:00	2024-11-06T15:00:00	6	Velocidad del viento	12.9
143542	7	Sololá	701	Sololá	2	El tablón	3	Marzo	2023-03-20T00:00:00	2024-11-06T15:00:00	7	Dirección del viento	12.87
143543	7	Sololá	701	Sololá	2	El tablón	3	Marzo	2023-03-20T00:00:00	2024-11-06T15:00:00	1	Precipitación	0
143544	7	Sololá	701	Sololá	2	El tablón	3	Marzo	2023-03-20T00:00:00	2024-11-06T15:00:00	8	Radiación solar	819
143545	7	Sololá	701	Sololá	2	El tablón	3	Marzo	2023-03-20T00:00:00	2024-11-06T16:00:00	2	Temperatura media	15.4
143546	7	Sololá	701	Sololá	2	El tablón	3	Marzo	2023-03-20T00:00:00	2024-11-06T16:00:00	4	Temperatura máxima	18.4
143547	7	Sololá	701	Sololá	2	El tablón	3	Marzo	2023-03-20T00:00:00	2024-11-06T16:00:00	3	Temperatura mínima	15.4
143548	7	Sololá	701	Sololá	2	El tablón	3	Marzo	2023-03-20T00:00:00	2024-11-06T16:00:00	5	Humedad	77
143549	7	Sololá	701	Sololá	2	El tablón	3	Marzo	2023-03-20T00:00:00	2024-11-06T16:00:00	6	Velocidad del viento	11.3
143550	7	Sololá	701	Sololá	2	El tablón	3	Marzo	2023-03-20T00:00:00	2024-11-06T16:00:00	7	Dirección del viento	11.27
143551	7	Sololá	701	Sololá	2	El tablón	3	Marzo	2023-03-20T00:00:00	2024-11-06T16:00:00	1	Precipitación	0
143552	7	Sololá	701	Sololá	2	El tablón	3	Marzo	2023-03-20T00:00:00	2024-11-06T16:00:00	8	Radiación solar	215
143553	7	Sololá	701	Sololá	2	El tablón	3	Marzo	2023-03-20T00:00:00	2024-11-06T17:00:00	2	Temperatura media	13.8
143554	7	Sololá	701	Sololá	2	El tablón	3	Marzo	2023-03-20T00:00:00	2024-11-06T17:00:00	4	Temperatura máxima	15.4
143555	7	Sololá	701	Sololá	2	El tablón	3	Marzo	2023-03-20T00:00:00	2024-11-06T17:00:00	3	Temperatura mínima	13.8
143556	7	Sololá	701	Sololá	2	El tablón	3	Marzo	2023-03-20T00:00:00	2024-11-06T17:00:00	5	Humedad	84
143557	7	Sololá	701	Sololá	2	El tablón	3	Marzo	2023-03-20T00:00:00	2024-11-06T17:00:00	6	Velocidad del viento	11.3
143558	7	Sololá	701	Sololá	2	El tablón	3	Marzo	2023-03-20T00:00:00	2024-11-06T17:00:00	7	Dirección del viento	11.27
143559	7	Sololá	701	Sololá	2	El tablón	3	Marzo	2023-03-20T00:00:00	2024-11-06T17:00:00	1	Precipitación	0
143560	7	Sololá	701	Sololá	2	El tablón	3	Marzo	2023-03-20T00:00:00	2024-11-06T17:00:00	8	Radiación solar	22
143561	7	Sololá	701	Sololá	2	El tablón	3	Marzo	2023-03-20T00:00:00	2024-11-06T18:00:00	2	Temperatura media	13.1
143562	7	Sololá	701	Sololá	2	El tablón	3	Marzo	2023-03-20T00:00:00	2024-11-06T18:00:00	4	Temperatura máxima	13.8
143563	7	Sololá	701	Sololá	2	El tablón	3	Marzo	2023-03-20T00:00:00	2024-11-06T18:00:00	3	Temperatura mínima	13.1
143564	7	Sololá	701	Sololá	2	El tablón	3	Marzo	2023-03-20T00:00:00	2024-11-06T18:00:00	5	Humedad	85
143565	7	Sololá	701	Sololá	2	El tablón	3	Marzo	2023-03-20T00:00:00	2024-11-06T18:00:00	6	Velocidad del viento	11.3
143566	7	Sololá	701	Sololá	2	El tablón	3	Marzo	2023-03-20T00:00:00	2024-11-06T18:00:00	7	Dirección del viento	11.27
143567	7	Sololá	701	Sololá	2	El tablón	3	Marzo	2023-03-20T00:00:00	2024-11-06T18:00:00	1	Precipitación	0
143568	7	Sololá	701	Sololá	2	El tablón	3	Marzo	2023-03-20T00:00:00	2024-11-06T18:00:00	8	Radiación solar	10
143569	7	Sololá	701	Sololá	2	El tablón	3	Marzo	2023-03-20T00:00:00	2024-11-06T19:00:00	2	Temperatura media	12.3
143570	7	Sololá	701	Sololá	2	El tablón	3	Marzo	2023-03-20T00:00:00	2024-11-06T19:00:00	4	Temperatura máxima	13.1
143571	7	Sololá	701	Sololá	2	El tablón	3	Marzo	2023-03-20T00:00:00	2024-11-06T19:00:00	3	Temperatura mínima	12.3
143572	7	Sololá	701	Sololá	2	El tablón	3	Marzo	2023-03-20T00:00:00	2024-11-06T19:00:00	5	Humedad	86
143573	7	Sololá	701	Sololá	2	El tablón	3	Marzo	2023-03-20T00:00:00	2024-11-06T19:00:00	6	Velocidad del viento	12.9
143574	7	Sololá	701	Sololá	2	El tablón	3	Marzo	2023-03-20T00:00:00	2024-11-06T19:00:00	7	Dirección del viento	12.87
143575	7	Sololá	701	Sololá	2	El tablón	3	Marzo	2023-03-20T00:00:00	2024-11-06T19:00:00	1	Precipitación	0
143576	7	Sololá	701	Sololá	2	El tablón	3	Marzo	2023-03-20T00:00:00	2024-11-06T19:00:00	8	Radiación solar	0
143577	7	Sololá	701	Sololá	2	El tablón	3	Marzo	2023-03-20T00:00:00	2024-11-06T20:00:00	2	Temperatura media	12.3
143578	7	Sololá	701	Sololá	2	El tablón	3	Marzo	2023-03-20T00:00:00	2024-11-06T20:00:00	4	Temperatura máxima	12.3
143579	7	Sololá	701	Sololá	2	El tablón	3	Marzo	2023-03-20T00:00:00	2024-11-06T20:00:00	3	Temperatura mínima	12.2
143580	7	Sololá	701	Sololá	2	El tablón	3	Marzo	2023-03-20T00:00:00	2024-11-06T20:00:00	5	Humedad	86
143581	7	Sololá	701	Sololá	2	El tablón	3	Marzo	2023-03-20T00:00:00	2024-11-06T20:00:00	6	Velocidad del viento	14.5
143582	7	Sololá	701	Sololá	2	El tablón	3	Marzo	2023-03-20T00:00:00	2024-11-06T20:00:00	7	Dirección del viento	14.48
143583	7	Sololá	701	Sololá	2	El tablón	3	Marzo	2023-03-20T00:00:00	2024-11-06T20:00:00	1	Precipitación	0
143584	7	Sololá	701	Sololá	2	El tablón	3	Marzo	2023-03-20T00:00:00	2024-11-06T20:00:00	8	Radiación solar	0
143585	7	Sololá	701	Sololá	2	El tablón	3	Marzo	2023-03-20T00:00:00	2024-11-06T21:00:00	2	Temperatura media	11.9
143586	7	Sololá	701	Sololá	2	El tablón	3	Marzo	2023-03-20T00:00:00	2024-11-06T21:00:00	4	Temperatura máxima	12.2
143587	7	Sololá	701	Sololá	2	El tablón	3	Marzo	2023-03-20T00:00:00	2024-11-06T21:00:00	3	Temperatura mínima	11.8
143588	7	Sololá	701	Sololá	2	El tablón	3	Marzo	2023-03-20T00:00:00	2024-11-06T21:00:00	5	Humedad	86
143589	7	Sololá	701	Sololá	2	El tablón	3	Marzo	2023-03-20T00:00:00	2024-11-06T21:00:00	6	Velocidad del viento	14.5
143590	7	Sololá	701	Sololá	2	El tablón	3	Marzo	2023-03-20T00:00:00	2024-11-06T21:00:00	7	Dirección del viento	14.48
143591	7	Sololá	701	Sololá	2	El tablón	3	Marzo	2023-03-20T00:00:00	2024-11-06T21:00:00	1	Precipitación	0
143592	7	Sololá	701	Sololá	2	El tablón	3	Marzo	2023-03-20T00:00:00	2024-11-06T21:00:00	8	Radiación solar	0
143593	7	Sololá	701	Sololá	2	El tablón	3	Marzo	2023-03-20T00:00:00	2024-11-06T22:00:00	2	Temperatura media	11.9
143594	7	Sololá	701	Sololá	2	El tablón	3	Marzo	2023-03-20T00:00:00	2024-11-06T22:00:00	4	Temperatura máxima	12.2
143595	7	Sololá	701	Sololá	2	El tablón	3	Marzo	2023-03-20T00:00:00	2024-11-06T22:00:00	3	Temperatura mínima	11.9
143596	7	Sololá	701	Sololá	2	El tablón	3	Marzo	2023-03-20T00:00:00	2024-11-06T22:00:00	5	Humedad	87
143597	7	Sololá	701	Sololá	2	El tablón	3	Marzo	2023-03-20T00:00:00	2024-11-06T22:00:00	6	Velocidad del viento	14.5
143598	7	Sololá	701	Sololá	2	El tablón	3	Marzo	2023-03-20T00:00:00	2024-11-06T22:00:00	7	Dirección del viento	14.48
143599	7	Sololá	701	Sololá	2	El tablón	3	Marzo	2023-03-20T00:00:00	2024-11-06T22:00:00	1	Precipitación	0
143600	7	Sololá	701	Sololá	2	El tablón	3	Marzo	2023-03-20T00:00:00	2024-11-06T22:00:00	8	Radiación solar	0
143601	7	Sololá	701	Sololá	2	El tablón	3	Marzo	2023-03-20T00:00:00	2024-11-06T23:00:00	2	Temperatura media	11.9
143602	7	Sololá	701	Sololá	2	El tablón	3	Marzo	2023-03-20T00:00:00	2024-11-06T23:00:00	4	Temperatura máxima	11.9
143603	7	Sololá	701	Sololá	2	El tablón	3	Marzo	2023-03-20T00:00:00	2024-11-06T23:00:00	3	Temperatura mínima	11.5
143604	7	Sololá	701	Sololá	2	El tablón	3	Marzo	2023-03-20T00:00:00	2024-11-06T23:00:00	5	Humedad	85
143605	7	Sololá	701	Sololá	2	El tablón	3	Marzo	2023-03-20T00:00:00	2024-11-06T23:00:00	6	Velocidad del viento	16.1
143606	7	Sololá	701	Sololá	2	El tablón	3	Marzo	2023-03-20T00:00:00	2024-11-06T23:00:00	7	Dirección del viento	16.09
143607	7	Sololá	701	Sololá	2	El tablón	3	Marzo	2023-03-20T00:00:00	2024-11-06T23:00:00	1	Precipitación	0
143608	7	Sololá	701	Sololá	2	El tablón	3	Marzo	2023-03-20T00:00:00	2024-11-06T23:00:00	8	Radiación solar	0
143609	7	Sololá	701	Sololá	2	El tablón	3	Marzo	2023-03-21T00:00:00	2024-11-06T00:00:00	2	Temperatura media	11.9
143610	7	Sololá	701	Sololá	2	El tablón	3	Marzo	2023-03-21T00:00:00	2024-11-06T00:00:00	4	Temperatura máxima	12.1
143611	7	Sololá	701	Sololá	2	El tablón	3	Marzo	2023-03-21T00:00:00	2024-11-06T00:00:00	3	Temperatura mínima	11.8
143612	7	Sololá	701	Sololá	2	El tablón	3	Marzo	2023-03-21T00:00:00	2024-11-06T00:00:00	5	Humedad	86
143613	7	Sololá	701	Sololá	2	El tablón	3	Marzo	2023-03-21T00:00:00	2024-11-06T00:00:00	6	Velocidad del viento	17.7
143614	7	Sololá	701	Sololá	2	El tablón	3	Marzo	2023-03-21T00:00:00	2024-11-06T00:00:00	7	Dirección del viento	17.7
143615	7	Sololá	701	Sololá	2	El tablón	3	Marzo	2023-03-21T00:00:00	2024-11-06T00:00:00	1	Precipitación	0
143616	7	Sololá	701	Sololá	2	El tablón	3	Marzo	2023-03-21T00:00:00	2024-11-06T00:00:00	8	Radiación solar	0
143617	7	Sololá	701	Sololá	2	El tablón	3	Marzo	2023-03-21T00:00:00	2024-11-06T01:00:00	2	Temperatura media	11.6
143618	7	Sololá	701	Sololá	2	El tablón	3	Marzo	2023-03-21T00:00:00	2024-11-06T01:00:00	4	Temperatura máxima	12
143619	7	Sololá	701	Sololá	2	El tablón	3	Marzo	2023-03-21T00:00:00	2024-11-06T01:00:00	3	Temperatura mínima	11.6
143620	7	Sololá	701	Sololá	2	El tablón	3	Marzo	2023-03-21T00:00:00	2024-11-06T01:00:00	5	Humedad	88
143621	7	Sololá	701	Sololá	2	El tablón	3	Marzo	2023-03-21T00:00:00	2024-11-06T01:00:00	6	Velocidad del viento	17.7
143622	7	Sololá	701	Sololá	2	El tablón	3	Marzo	2023-03-21T00:00:00	2024-11-06T01:00:00	7	Dirección del viento	17.7
143623	7	Sololá	701	Sololá	2	El tablón	3	Marzo	2023-03-21T00:00:00	2024-11-06T01:00:00	1	Precipitación	0
143624	7	Sololá	701	Sololá	2	El tablón	3	Marzo	2023-03-21T00:00:00	2024-11-06T01:00:00	8	Radiación solar	0
143625	7	Sololá	701	Sololá	2	El tablón	3	Marzo	2023-03-21T00:00:00	2024-11-06T02:00:00	2	Temperatura media	11.5
143626	7	Sololá	701	Sololá	2	El tablón	3	Marzo	2023-03-21T00:00:00	2024-11-06T02:00:00	4	Temperatura máxima	11.7
143627	7	Sololá	701	Sololá	2	El tablón	3	Marzo	2023-03-21T00:00:00	2024-11-06T02:00:00	3	Temperatura mínima	11.5
143628	7	Sololá	701	Sololá	2	El tablón	3	Marzo	2023-03-21T00:00:00	2024-11-06T02:00:00	5	Humedad	88
143629	7	Sololá	701	Sololá	2	El tablón	3	Marzo	2023-03-21T00:00:00	2024-11-06T02:00:00	6	Velocidad del viento	16.1
143630	7	Sololá	701	Sololá	2	El tablón	3	Marzo	2023-03-21T00:00:00	2024-11-06T02:00:00	7	Dirección del viento	16.09
143631	7	Sololá	701	Sololá	2	El tablón	3	Marzo	2023-03-21T00:00:00	2024-11-06T02:00:00	1	Precipitación	0
143632	7	Sololá	701	Sololá	2	El tablón	3	Marzo	2023-03-21T00:00:00	2024-11-06T02:00:00	8	Radiación solar	0
143633	7	Sololá	701	Sololá	2	El tablón	3	Marzo	2023-03-21T00:00:00	2024-11-06T03:00:00	2	Temperatura media	11.1
143634	7	Sololá	701	Sololá	2	El tablón	3	Marzo	2023-03-21T00:00:00	2024-11-06T03:00:00	4	Temperatura máxima	11.5
143635	7	Sololá	701	Sololá	2	El tablón	3	Marzo	2023-03-21T00:00:00	2024-11-06T03:00:00	3	Temperatura mínima	11.1
143636	7	Sololá	701	Sololá	2	El tablón	3	Marzo	2023-03-21T00:00:00	2024-11-06T03:00:00	5	Humedad	89
143637	7	Sololá	701	Sololá	2	El tablón	3	Marzo	2023-03-21T00:00:00	2024-11-06T03:00:00	6	Velocidad del viento	17.7
143638	7	Sololá	701	Sololá	2	El tablón	3	Marzo	2023-03-21T00:00:00	2024-11-06T03:00:00	7	Dirección del viento	17.7
143639	7	Sololá	701	Sololá	2	El tablón	3	Marzo	2023-03-21T00:00:00	2024-11-06T03:00:00	1	Precipitación	0
143640	7	Sololá	701	Sololá	2	El tablón	3	Marzo	2023-03-21T00:00:00	2024-11-06T03:00:00	8	Radiación solar	0
143641	7	Sololá	701	Sololá	2	El tablón	3	Marzo	2023-03-21T00:00:00	2024-11-06T04:00:00	2	Temperatura media	11.1
143642	7	Sololá	701	Sololá	2	El tablón	3	Marzo	2023-03-21T00:00:00	2024-11-06T04:00:00	4	Temperatura máxima	11.1
143643	7	Sololá	701	Sololá	2	El tablón	3	Marzo	2023-03-21T00:00:00	2024-11-06T04:00:00	3	Temperatura mínima	10.7
143644	7	Sololá	701	Sololá	2	El tablón	3	Marzo	2023-03-21T00:00:00	2024-11-06T04:00:00	5	Humedad	89
143645	7	Sololá	701	Sololá	2	El tablón	3	Marzo	2023-03-21T00:00:00	2024-11-06T04:00:00	6	Velocidad del viento	16.1
143646	7	Sololá	701	Sololá	2	El tablón	3	Marzo	2023-03-21T00:00:00	2024-11-06T04:00:00	7	Dirección del viento	16.09
143647	7	Sololá	701	Sololá	2	El tablón	3	Marzo	2023-03-21T00:00:00	2024-11-06T04:00:00	1	Precipitación	0
143648	7	Sololá	701	Sololá	2	El tablón	3	Marzo	2023-03-21T00:00:00	2024-11-06T04:00:00	8	Radiación solar	0
143649	7	Sololá	701	Sololá	2	El tablón	3	Marzo	2023-03-21T00:00:00	2024-11-06T05:00:00	2	Temperatura media	11.3
143650	7	Sololá	701	Sololá	2	El tablón	3	Marzo	2023-03-21T00:00:00	2024-11-06T05:00:00	4	Temperatura máxima	11.4
143651	7	Sololá	701	Sololá	2	El tablón	3	Marzo	2023-03-21T00:00:00	2024-11-06T05:00:00	3	Temperatura mínima	11.1
143652	7	Sololá	701	Sololá	2	El tablón	3	Marzo	2023-03-21T00:00:00	2024-11-06T05:00:00	5	Humedad	88
143653	7	Sololá	701	Sololá	2	El tablón	3	Marzo	2023-03-21T00:00:00	2024-11-06T05:00:00	6	Velocidad del viento	14.5
143654	7	Sololá	701	Sololá	2	El tablón	3	Marzo	2023-03-21T00:00:00	2024-11-06T05:00:00	7	Dirección del viento	14.48
143655	7	Sololá	701	Sololá	2	El tablón	3	Marzo	2023-03-21T00:00:00	2024-11-06T05:00:00	1	Precipitación	0
143656	7	Sololá	701	Sololá	2	El tablón	3	Marzo	2023-03-21T00:00:00	2024-11-06T05:00:00	8	Radiación solar	0
143657	7	Sololá	701	Sololá	2	El tablón	3	Marzo	2023-03-21T00:00:00	2024-11-06T06:00:00	2	Temperatura media	11.6
143658	7	Sololá	701	Sololá	2	El tablón	3	Marzo	2023-03-21T00:00:00	2024-11-06T06:00:00	4	Temperatura máxima	11.6
143659	7	Sololá	701	Sololá	2	El tablón	3	Marzo	2023-03-21T00:00:00	2024-11-06T06:00:00	3	Temperatura mínima	11.3
143660	7	Sololá	701	Sololá	2	El tablón	3	Marzo	2023-03-21T00:00:00	2024-11-06T06:00:00	5	Humedad	86
143661	7	Sololá	701	Sololá	2	El tablón	3	Marzo	2023-03-21T00:00:00	2024-11-06T06:00:00	6	Velocidad del viento	14.5
143662	7	Sololá	701	Sololá	2	El tablón	3	Marzo	2023-03-21T00:00:00	2024-11-06T06:00:00	7	Dirección del viento	14.48
143663	7	Sololá	701	Sololá	2	El tablón	3	Marzo	2023-03-21T00:00:00	2024-11-06T06:00:00	1	Precipitación	0
143664	7	Sololá	701	Sololá	2	El tablón	3	Marzo	2023-03-21T00:00:00	2024-11-06T06:00:00	8	Radiación solar	0
143665	7	Sololá	701	Sololá	2	El tablón	3	Marzo	2023-03-21T00:00:00	2024-11-06T07:00:00	2	Temperatura media	12.1
143666	7	Sololá	701	Sololá	2	El tablón	3	Marzo	2023-03-21T00:00:00	2024-11-06T07:00:00	4	Temperatura máxima	12.2
143667	7	Sololá	701	Sololá	2	El tablón	3	Marzo	2023-03-21T00:00:00	2024-11-06T07:00:00	3	Temperatura mínima	11.6
143668	7	Sololá	701	Sololá	2	El tablón	3	Marzo	2023-03-21T00:00:00	2024-11-06T07:00:00	5	Humedad	87
143669	7	Sololá	701	Sololá	2	El tablón	3	Marzo	2023-03-21T00:00:00	2024-11-06T07:00:00	6	Velocidad del viento	16.1
143670	7	Sololá	701	Sololá	2	El tablón	3	Marzo	2023-03-21T00:00:00	2024-11-06T07:00:00	7	Dirección del viento	16.09
143671	7	Sololá	701	Sololá	2	El tablón	3	Marzo	2023-03-21T00:00:00	2024-11-06T07:00:00	1	Precipitación	0
143672	7	Sololá	701	Sololá	2	El tablón	3	Marzo	2023-03-21T00:00:00	2024-11-06T07:00:00	8	Radiación solar	31
143673	7	Sololá	701	Sololá	2	El tablón	3	Marzo	2023-03-21T00:00:00	2024-11-06T08:00:00	2	Temperatura media	13.7
143674	7	Sololá	701	Sololá	2	El tablón	3	Marzo	2023-03-21T00:00:00	2024-11-06T08:00:00	4	Temperatura máxima	13.7
143675	7	Sololá	701	Sololá	2	El tablón	3	Marzo	2023-03-21T00:00:00	2024-11-06T08:00:00	3	Temperatura mínima	12.1
143676	7	Sololá	701	Sololá	2	El tablón	3	Marzo	2023-03-21T00:00:00	2024-11-06T08:00:00	5	Humedad	83
143677	7	Sololá	701	Sololá	2	El tablón	3	Marzo	2023-03-21T00:00:00	2024-11-06T08:00:00	6	Velocidad del viento	16.1
143678	7	Sololá	701	Sololá	2	El tablón	3	Marzo	2023-03-21T00:00:00	2024-11-06T08:00:00	7	Dirección del viento	16.09
143679	7	Sololá	701	Sololá	2	El tablón	3	Marzo	2023-03-21T00:00:00	2024-11-06T08:00:00	1	Precipitación	0
143680	7	Sololá	701	Sololá	2	El tablón	3	Marzo	2023-03-21T00:00:00	2024-11-06T08:00:00	8	Radiación solar	181
143681	7	Sololá	701	Sololá	2	El tablón	3	Marzo	2023-03-21T00:00:00	2024-11-06T09:00:00	2	Temperatura media	14.2
143682	7	Sololá	701	Sololá	2	El tablón	3	Marzo	2023-03-21T00:00:00	2024-11-06T09:00:00	4	Temperatura máxima	14.2
143683	7	Sololá	701	Sololá	2	El tablón	3	Marzo	2023-03-21T00:00:00	2024-11-06T09:00:00	3	Temperatura mínima	13.5
143684	7	Sololá	701	Sololá	2	El tablón	3	Marzo	2023-03-21T00:00:00	2024-11-06T09:00:00	5	Humedad	82
143685	7	Sololá	701	Sololá	2	El tablón	3	Marzo	2023-03-21T00:00:00	2024-11-06T09:00:00	6	Velocidad del viento	16.1
143686	7	Sololá	701	Sololá	2	El tablón	3	Marzo	2023-03-21T00:00:00	2024-11-06T09:00:00	7	Dirección del viento	16.09
143687	7	Sololá	701	Sololá	2	El tablón	3	Marzo	2023-03-21T00:00:00	2024-11-06T09:00:00	1	Precipitación	0
143688	7	Sololá	701	Sololá	2	El tablón	3	Marzo	2023-03-21T00:00:00	2024-11-06T09:00:00	8	Radiación solar	389
143689	7	Sololá	701	Sololá	2	El tablón	3	Marzo	2023-03-21T00:00:00	2024-11-06T10:00:00	2	Temperatura media	15.4
143690	7	Sololá	701	Sololá	2	El tablón	3	Marzo	2023-03-21T00:00:00	2024-11-06T10:00:00	4	Temperatura máxima	15.4
143691	7	Sololá	701	Sololá	2	El tablón	3	Marzo	2023-03-21T00:00:00	2024-11-06T10:00:00	3	Temperatura mínima	14.2
143692	7	Sololá	701	Sololá	2	El tablón	3	Marzo	2023-03-21T00:00:00	2024-11-06T10:00:00	5	Humedad	76
143693	7	Sololá	701	Sololá	2	El tablón	3	Marzo	2023-03-21T00:00:00	2024-11-06T10:00:00	6	Velocidad del viento	17.7
143694	7	Sololá	701	Sololá	2	El tablón	3	Marzo	2023-03-21T00:00:00	2024-11-06T10:00:00	7	Dirección del viento	17.7
143695	7	Sololá	701	Sololá	2	El tablón	3	Marzo	2023-03-21T00:00:00	2024-11-06T10:00:00	1	Precipitación	0
143696	7	Sololá	701	Sololá	2	El tablón	3	Marzo	2023-03-21T00:00:00	2024-11-06T10:00:00	8	Radiación solar	651
143697	7	Sololá	701	Sololá	2	El tablón	3	Marzo	2023-03-21T00:00:00	2024-11-06T11:00:00	2	Temperatura media	16.6
143698	7	Sololá	701	Sololá	2	El tablón	3	Marzo	2023-03-21T00:00:00	2024-11-06T11:00:00	4	Temperatura máxima	16.6
143699	7	Sololá	701	Sololá	2	El tablón	3	Marzo	2023-03-21T00:00:00	2024-11-06T11:00:00	3	Temperatura mínima	15.4
143700	7	Sololá	701	Sololá	2	El tablón	3	Marzo	2023-03-21T00:00:00	2024-11-06T11:00:00	5	Humedad	70
143701	7	Sololá	701	Sololá	2	El tablón	3	Marzo	2023-03-21T00:00:00	2024-11-06T11:00:00	6	Velocidad del viento	16.1
143702	7	Sololá	701	Sololá	2	El tablón	3	Marzo	2023-03-21T00:00:00	2024-11-06T11:00:00	7	Dirección del viento	16.09
143703	7	Sololá	701	Sololá	2	El tablón	3	Marzo	2023-03-21T00:00:00	2024-11-06T11:00:00	1	Precipitación	0
143704	7	Sololá	701	Sololá	2	El tablón	3	Marzo	2023-03-21T00:00:00	2024-11-06T11:00:00	8	Radiación solar	859
143705	7	Sololá	701	Sololá	2	El tablón	3	Marzo	2023-03-21T00:00:00	2024-11-06T12:00:00	2	Temperatura media	17.5
143706	7	Sololá	701	Sololá	2	El tablón	3	Marzo	2023-03-21T00:00:00	2024-11-06T12:00:00	4	Temperatura máxima	17.7
143707	7	Sololá	701	Sololá	2	El tablón	3	Marzo	2023-03-21T00:00:00	2024-11-06T12:00:00	3	Temperatura mínima	16.4
143708	7	Sololá	701	Sololá	2	El tablón	3	Marzo	2023-03-21T00:00:00	2024-11-06T12:00:00	5	Humedad	66
143709	7	Sololá	701	Sololá	2	El tablón	3	Marzo	2023-03-21T00:00:00	2024-11-06T12:00:00	6	Velocidad del viento	16.1
143710	7	Sololá	701	Sololá	2	El tablón	3	Marzo	2023-03-21T00:00:00	2024-11-06T12:00:00	7	Dirección del viento	16.09
143711	7	Sololá	701	Sololá	2	El tablón	3	Marzo	2023-03-21T00:00:00	2024-11-06T12:00:00	1	Precipitación	0
143712	7	Sololá	701	Sololá	2	El tablón	3	Marzo	2023-03-21T00:00:00	2024-11-06T12:00:00	8	Radiación solar	977
143713	7	Sololá	701	Sololá	2	El tablón	3	Marzo	2023-03-21T00:00:00	2024-11-06T13:00:00	2	Temperatura media	17.6
143714	7	Sololá	701	Sololá	2	El tablón	3	Marzo	2023-03-21T00:00:00	2024-11-06T13:00:00	4	Temperatura máxima	18.4
143715	7	Sololá	701	Sololá	2	El tablón	3	Marzo	2023-03-21T00:00:00	2024-11-06T13:00:00	3	Temperatura mínima	17.3
143716	7	Sololá	701	Sololá	2	El tablón	3	Marzo	2023-03-21T00:00:00	2024-11-06T13:00:00	5	Humedad	61
143717	7	Sololá	701	Sololá	2	El tablón	3	Marzo	2023-03-21T00:00:00	2024-11-06T13:00:00	6	Velocidad del viento	16.1
143718	7	Sololá	701	Sololá	2	El tablón	3	Marzo	2023-03-21T00:00:00	2024-11-06T13:00:00	7	Dirección del viento	16.09
143719	7	Sololá	701	Sololá	2	El tablón	3	Marzo	2023-03-21T00:00:00	2024-11-06T13:00:00	1	Precipitación	0
143720	7	Sololá	701	Sololá	2	El tablón	3	Marzo	2023-03-21T00:00:00	2024-11-06T13:00:00	8	Radiación solar	893
143721	7	Sololá	701	Sololá	2	El tablón	3	Marzo	2023-03-21T00:00:00	2024-11-06T14:00:00	2	Temperatura media	16.6
143722	7	Sololá	701	Sololá	2	El tablón	3	Marzo	2023-03-21T00:00:00	2024-11-06T14:00:00	4	Temperatura máxima	18.7
143723	7	Sololá	701	Sololá	2	El tablón	3	Marzo	2023-03-21T00:00:00	2024-11-06T14:00:00	3	Temperatura mínima	16.6
143724	7	Sololá	701	Sololá	2	El tablón	3	Marzo	2023-03-21T00:00:00	2024-11-06T14:00:00	5	Humedad	67
143725	7	Sololá	701	Sololá	2	El tablón	3	Marzo	2023-03-21T00:00:00	2024-11-06T14:00:00	6	Velocidad del viento	16.1
143726	7	Sololá	701	Sololá	2	El tablón	3	Marzo	2023-03-21T00:00:00	2024-11-06T14:00:00	7	Dirección del viento	16.09
143727	7	Sololá	701	Sololá	2	El tablón	3	Marzo	2023-03-21T00:00:00	2024-11-06T14:00:00	1	Precipitación	0
143728	7	Sololá	701	Sololá	2	El tablón	3	Marzo	2023-03-21T00:00:00	2024-11-06T14:00:00	8	Radiación solar	485
143729	7	Sololá	701	Sololá	2	El tablón	3	Marzo	2023-03-21T00:00:00	2024-11-06T15:00:00	2	Temperatura media	17
143730	7	Sololá	701	Sololá	2	El tablón	3	Marzo	2023-03-21T00:00:00	2024-11-06T15:00:00	4	Temperatura máxima	18.3
143731	7	Sololá	701	Sololá	2	El tablón	3	Marzo	2023-03-21T00:00:00	2024-11-06T15:00:00	3	Temperatura mínima	16.6
143732	7	Sololá	701	Sololá	2	El tablón	3	Marzo	2023-03-21T00:00:00	2024-11-06T15:00:00	5	Humedad	67
143733	7	Sololá	701	Sololá	2	El tablón	3	Marzo	2023-03-21T00:00:00	2024-11-06T15:00:00	6	Velocidad del viento	11.3
143734	7	Sololá	701	Sololá	2	El tablón	3	Marzo	2023-03-21T00:00:00	2024-11-06T15:00:00	7	Dirección del viento	11.27
143735	7	Sololá	701	Sololá	2	El tablón	3	Marzo	2023-03-21T00:00:00	2024-11-06T15:00:00	1	Precipitación	0
143736	7	Sololá	701	Sololá	2	El tablón	3	Marzo	2023-03-21T00:00:00	2024-11-06T15:00:00	8	Radiación solar	359
143737	7	Sololá	701	Sololá	2	El tablón	3	Marzo	2023-03-21T00:00:00	2024-11-06T16:00:00	2	Temperatura media	17.7
143738	7	Sololá	701	Sololá	2	El tablón	3	Marzo	2023-03-21T00:00:00	2024-11-06T16:00:00	4	Temperatura máxima	17.7
143739	7	Sololá	701	Sololá	2	El tablón	3	Marzo	2023-03-21T00:00:00	2024-11-06T16:00:00	3	Temperatura mínima	16.7
143740	7	Sololá	701	Sololá	2	El tablón	3	Marzo	2023-03-21T00:00:00	2024-11-06T16:00:00	5	Humedad	66
143741	7	Sololá	701	Sololá	2	El tablón	3	Marzo	2023-03-21T00:00:00	2024-11-06T16:00:00	6	Velocidad del viento	11.3
143742	7	Sololá	701	Sololá	2	El tablón	3	Marzo	2023-03-21T00:00:00	2024-11-06T16:00:00	7	Dirección del viento	11.27
143743	7	Sololá	701	Sololá	2	El tablón	3	Marzo	2023-03-21T00:00:00	2024-11-06T16:00:00	1	Precipitación	0
143744	7	Sololá	701	Sololá	2	El tablón	3	Marzo	2023-03-21T00:00:00	2024-11-06T16:00:00	8	Radiación solar	399
143745	7	Sololá	701	Sololá	2	El tablón	3	Marzo	2023-03-21T00:00:00	2024-11-06T17:00:00	2	Temperatura media	16.6
143746	7	Sololá	701	Sololá	2	El tablón	3	Marzo	2023-03-21T00:00:00	2024-11-06T17:00:00	4	Temperatura máxima	17.7
143747	7	Sololá	701	Sololá	2	El tablón	3	Marzo	2023-03-21T00:00:00	2024-11-06T17:00:00	3	Temperatura mínima	16.5
143748	7	Sololá	701	Sololá	2	El tablón	3	Marzo	2023-03-21T00:00:00	2024-11-06T17:00:00	5	Humedad	71
143749	7	Sololá	701	Sololá	2	El tablón	3	Marzo	2023-03-21T00:00:00	2024-11-06T17:00:00	6	Velocidad del viento	12.9
143750	7	Sololá	701	Sololá	2	El tablón	3	Marzo	2023-03-21T00:00:00	2024-11-06T17:00:00	7	Dirección del viento	12.87
143751	7	Sololá	701	Sololá	2	El tablón	3	Marzo	2023-03-21T00:00:00	2024-11-06T17:00:00	1	Precipitación	0
143752	7	Sololá	701	Sololá	2	El tablón	3	Marzo	2023-03-21T00:00:00	2024-11-06T17:00:00	8	Radiación solar	324
143753	7	Sololá	701	Sololá	2	El tablón	3	Marzo	2023-03-21T00:00:00	2024-11-06T18:00:00	2	Temperatura media	14.7
143754	7	Sololá	701	Sololá	2	El tablón	3	Marzo	2023-03-21T00:00:00	2024-11-06T18:00:00	4	Temperatura máxima	16.6
143755	7	Sololá	701	Sololá	2	El tablón	3	Marzo	2023-03-21T00:00:00	2024-11-06T18:00:00	3	Temperatura mínima	14.7
143756	7	Sololá	701	Sololá	2	El tablón	3	Marzo	2023-03-21T00:00:00	2024-11-06T18:00:00	5	Humedad	79
143757	7	Sololá	701	Sololá	2	El tablón	3	Marzo	2023-03-21T00:00:00	2024-11-06T18:00:00	6	Velocidad del viento	11.3
143758	7	Sololá	701	Sololá	2	El tablón	3	Marzo	2023-03-21T00:00:00	2024-11-06T18:00:00	7	Dirección del viento	11.27
143759	7	Sololá	701	Sololá	2	El tablón	3	Marzo	2023-03-21T00:00:00	2024-11-06T18:00:00	1	Precipitación	0
143760	7	Sololá	701	Sololá	2	El tablón	3	Marzo	2023-03-21T00:00:00	2024-11-06T18:00:00	8	Radiación solar	99
143761	7	Sololá	701	Sololá	2	El tablón	3	Marzo	2023-03-21T00:00:00	2024-11-06T19:00:00	2	Temperatura media	13.4
143762	7	Sololá	701	Sololá	2	El tablón	3	Marzo	2023-03-21T00:00:00	2024-11-06T19:00:00	4	Temperatura máxima	14.7
143763	7	Sololá	701	Sololá	2	El tablón	3	Marzo	2023-03-21T00:00:00	2024-11-06T19:00:00	3	Temperatura mínima	13.4
143764	7	Sololá	701	Sololá	2	El tablón	3	Marzo	2023-03-21T00:00:00	2024-11-06T19:00:00	5	Humedad	86
143765	7	Sololá	701	Sololá	2	El tablón	3	Marzo	2023-03-21T00:00:00	2024-11-06T19:00:00	6	Velocidad del viento	12.9
143766	7	Sololá	701	Sololá	2	El tablón	3	Marzo	2023-03-21T00:00:00	2024-11-06T19:00:00	7	Dirección del viento	12.87
143767	7	Sololá	701	Sololá	2	El tablón	3	Marzo	2023-03-21T00:00:00	2024-11-06T19:00:00	1	Precipitación	0
143768	7	Sololá	701	Sololá	2	El tablón	3	Marzo	2023-03-21T00:00:00	2024-11-06T19:00:00	8	Radiación solar	0
143769	7	Sololá	701	Sololá	2	El tablón	3	Marzo	2023-03-21T00:00:00	2024-11-06T20:00:00	2	Temperatura media	13.2
143770	7	Sololá	701	Sololá	2	El tablón	3	Marzo	2023-03-21T00:00:00	2024-11-06T20:00:00	4	Temperatura máxima	13.6
143771	7	Sololá	701	Sololá	2	El tablón	3	Marzo	2023-03-21T00:00:00	2024-11-06T20:00:00	3	Temperatura mínima	13.2
143772	7	Sololá	701	Sololá	2	El tablón	3	Marzo	2023-03-21T00:00:00	2024-11-06T20:00:00	5	Humedad	88
143773	7	Sololá	701	Sololá	2	El tablón	3	Marzo	2023-03-21T00:00:00	2024-11-06T20:00:00	6	Velocidad del viento	12.9
143774	7	Sololá	701	Sololá	2	El tablón	3	Marzo	2023-03-21T00:00:00	2024-11-06T20:00:00	7	Dirección del viento	12.87
143775	7	Sololá	701	Sololá	2	El tablón	3	Marzo	2023-03-21T00:00:00	2024-11-06T20:00:00	1	Precipitación	0
143776	7	Sololá	701	Sololá	2	El tablón	3	Marzo	2023-03-21T00:00:00	2024-11-06T20:00:00	8	Radiación solar	0
143777	7	Sololá	701	Sololá	2	El tablón	3	Marzo	2023-03-21T00:00:00	2024-11-06T21:00:00	2	Temperatura media	12.9
143778	7	Sololá	701	Sololá	2	El tablón	3	Marzo	2023-03-21T00:00:00	2024-11-06T21:00:00	4	Temperatura máxima	13.2
143779	7	Sololá	701	Sololá	2	El tablón	3	Marzo	2023-03-21T00:00:00	2024-11-06T21:00:00	3	Temperatura mínima	12.8
143780	7	Sololá	701	Sololá	2	El tablón	3	Marzo	2023-03-21T00:00:00	2024-11-06T21:00:00	5	Humedad	87
143781	7	Sololá	701	Sololá	2	El tablón	3	Marzo	2023-03-21T00:00:00	2024-11-06T21:00:00	6	Velocidad del viento	16.1
143782	7	Sololá	701	Sololá	2	El tablón	3	Marzo	2023-03-21T00:00:00	2024-11-06T21:00:00	7	Dirección del viento	16.09
143783	7	Sololá	701	Sololá	2	El tablón	3	Marzo	2023-03-21T00:00:00	2024-11-06T21:00:00	1	Precipitación	0
143784	7	Sololá	701	Sololá	2	El tablón	3	Marzo	2023-03-21T00:00:00	2024-11-06T21:00:00	8	Radiación solar	0
143785	7	Sololá	701	Sololá	2	El tablón	3	Marzo	2023-03-21T00:00:00	2024-11-06T22:00:00	2	Temperatura media	12.6
143786	7	Sololá	701	Sololá	2	El tablón	3	Marzo	2023-03-21T00:00:00	2024-11-06T22:00:00	4	Temperatura máxima	13
143787	7	Sololá	701	Sololá	2	El tablón	3	Marzo	2023-03-21T00:00:00	2024-11-06T22:00:00	3	Temperatura mínima	12.6
143788	7	Sololá	701	Sololá	2	El tablón	3	Marzo	2023-03-21T00:00:00	2024-11-06T22:00:00	5	Humedad	86
143789	7	Sololá	701	Sololá	2	El tablón	3	Marzo	2023-03-21T00:00:00	2024-11-06T22:00:00	6	Velocidad del viento	17.7
143790	7	Sololá	701	Sololá	2	El tablón	3	Marzo	2023-03-21T00:00:00	2024-11-06T22:00:00	7	Dirección del viento	17.7
143791	7	Sololá	701	Sololá	2	El tablón	3	Marzo	2023-03-21T00:00:00	2024-11-06T22:00:00	1	Precipitación	0
143792	7	Sololá	701	Sololá	2	El tablón	3	Marzo	2023-03-21T00:00:00	2024-11-06T22:00:00	8	Radiación solar	0
143793	7	Sololá	701	Sololá	2	El tablón	3	Marzo	2023-03-21T00:00:00	2024-11-06T23:00:00	2	Temperatura media	12.3
143794	7	Sololá	701	Sololá	2	El tablón	3	Marzo	2023-03-21T00:00:00	2024-11-06T23:00:00	4	Temperatura máxima	12.6
143795	7	Sololá	701	Sololá	2	El tablón	3	Marzo	2023-03-21T00:00:00	2024-11-06T23:00:00	3	Temperatura mínima	12.3
143796	7	Sololá	701	Sololá	2	El tablón	3	Marzo	2023-03-21T00:00:00	2024-11-06T23:00:00	5	Humedad	88
143797	7	Sololá	701	Sololá	2	El tablón	3	Marzo	2023-03-21T00:00:00	2024-11-06T23:00:00	6	Velocidad del viento	17.7
143798	7	Sololá	701	Sololá	2	El tablón	3	Marzo	2023-03-21T00:00:00	2024-11-06T23:00:00	7	Dirección del viento	17.7
143799	7	Sololá	701	Sololá	2	El tablón	3	Marzo	2023-03-21T00:00:00	2024-11-06T23:00:00	1	Precipitación	0
143800	7	Sololá	701	Sololá	2	El tablón	3	Marzo	2023-03-21T00:00:00	2024-11-06T23:00:00	8	Radiación solar	0
143801	7	Sololá	701	Sololá	2	El tablón	3	Marzo	2023-03-22T00:00:00	2024-11-06T00:00:00	2	Temperatura media	12.4
143802	7	Sololá	701	Sololá	2	El tablón	3	Marzo	2023-03-22T00:00:00	2024-11-06T00:00:00	4	Temperatura máxima	12.6
143803	7	Sololá	701	Sololá	2	El tablón	3	Marzo	2023-03-22T00:00:00	2024-11-06T00:00:00	3	Temperatura mínima	12.3
143804	7	Sololá	701	Sololá	2	El tablón	3	Marzo	2023-03-22T00:00:00	2024-11-06T00:00:00	5	Humedad	86
143805	7	Sololá	701	Sololá	2	El tablón	3	Marzo	2023-03-22T00:00:00	2024-11-06T00:00:00	6	Velocidad del viento	14.5
143806	7	Sololá	701	Sololá	2	El tablón	3	Marzo	2023-03-22T00:00:00	2024-11-06T00:00:00	7	Dirección del viento	14.48
143807	7	Sololá	701	Sololá	2	El tablón	3	Marzo	2023-03-22T00:00:00	2024-11-06T00:00:00	1	Precipitación	0
143808	7	Sololá	701	Sololá	2	El tablón	3	Marzo	2023-03-22T00:00:00	2024-11-06T00:00:00	8	Radiación solar	0
143809	7	Sololá	701	Sololá	2	El tablón	3	Marzo	2023-03-22T00:00:00	2024-11-06T01:00:00	2	Temperatura media	12.4
143810	7	Sololá	701	Sololá	2	El tablón	3	Marzo	2023-03-22T00:00:00	2024-11-06T01:00:00	4	Temperatura máxima	12.6
143811	7	Sololá	701	Sololá	2	El tablón	3	Marzo	2023-03-22T00:00:00	2024-11-06T01:00:00	3	Temperatura mínima	12.3
143812	7	Sololá	701	Sololá	2	El tablón	3	Marzo	2023-03-22T00:00:00	2024-11-06T01:00:00	5	Humedad	87
143813	7	Sololá	701	Sololá	2	El tablón	3	Marzo	2023-03-22T00:00:00	2024-11-06T01:00:00	6	Velocidad del viento	11.3
143814	7	Sololá	701	Sololá	2	El tablón	3	Marzo	2023-03-22T00:00:00	2024-11-06T01:00:00	7	Dirección del viento	11.27
143815	7	Sololá	701	Sololá	2	El tablón	3	Marzo	2023-03-22T00:00:00	2024-11-06T01:00:00	1	Precipitación	0
143816	7	Sololá	701	Sololá	2	El tablón	3	Marzo	2023-03-22T00:00:00	2024-11-06T01:00:00	8	Radiación solar	0
143817	7	Sololá	701	Sololá	2	El tablón	3	Marzo	2023-03-22T00:00:00	2024-11-06T02:00:00	2	Temperatura media	12.4
143818	7	Sololá	701	Sololá	2	El tablón	3	Marzo	2023-03-22T00:00:00	2024-11-06T02:00:00	4	Temperatura máxima	12.4
143819	7	Sololá	701	Sololá	2	El tablón	3	Marzo	2023-03-22T00:00:00	2024-11-06T02:00:00	3	Temperatura mínima	12.3
143820	7	Sololá	701	Sololá	2	El tablón	3	Marzo	2023-03-22T00:00:00	2024-11-06T02:00:00	5	Humedad	87
143821	7	Sololá	701	Sololá	2	El tablón	3	Marzo	2023-03-22T00:00:00	2024-11-06T02:00:00	6	Velocidad del viento	8
143822	7	Sololá	701	Sololá	2	El tablón	3	Marzo	2023-03-22T00:00:00	2024-11-06T02:00:00	7	Dirección del viento	8.05
143823	7	Sololá	701	Sololá	2	El tablón	3	Marzo	2023-03-22T00:00:00	2024-11-06T02:00:00	1	Precipitación	0
143824	7	Sololá	701	Sololá	2	El tablón	3	Marzo	2023-03-22T00:00:00	2024-11-06T02:00:00	8	Radiación solar	0
143825	7	Sololá	701	Sololá	2	El tablón	3	Marzo	2023-03-22T00:00:00	2024-11-06T03:00:00	2	Temperatura media	11.6
143826	7	Sololá	701	Sololá	2	El tablón	3	Marzo	2023-03-22T00:00:00	2024-11-06T03:00:00	4	Temperatura máxima	12.4
143827	7	Sololá	701	Sololá	2	El tablón	3	Marzo	2023-03-22T00:00:00	2024-11-06T03:00:00	3	Temperatura mínima	11.6
143828	7	Sololá	701	Sololá	2	El tablón	3	Marzo	2023-03-22T00:00:00	2024-11-06T03:00:00	5	Humedad	89
143829	7	Sololá	701	Sololá	2	El tablón	3	Marzo	2023-03-22T00:00:00	2024-11-06T03:00:00	6	Velocidad del viento	6.4
143830	7	Sololá	701	Sololá	2	El tablón	3	Marzo	2023-03-22T00:00:00	2024-11-06T03:00:00	7	Dirección del viento	6.44
143831	7	Sololá	701	Sololá	2	El tablón	3	Marzo	2023-03-22T00:00:00	2024-11-06T03:00:00	1	Precipitación	0
143832	7	Sololá	701	Sololá	2	El tablón	3	Marzo	2023-03-22T00:00:00	2024-11-06T03:00:00	8	Radiación solar	0
143833	7	Sololá	701	Sololá	2	El tablón	3	Marzo	2023-03-22T00:00:00	2024-11-06T04:00:00	2	Temperatura media	11.6
143834	7	Sololá	701	Sololá	2	El tablón	3	Marzo	2023-03-22T00:00:00	2024-11-06T04:00:00	4	Temperatura máxima	11.6
143835	7	Sololá	701	Sololá	2	El tablón	3	Marzo	2023-03-22T00:00:00	2024-11-06T04:00:00	3	Temperatura mínima	11.5
143836	7	Sololá	701	Sololá	2	El tablón	3	Marzo	2023-03-22T00:00:00	2024-11-06T04:00:00	5	Humedad	89
143837	7	Sololá	701	Sololá	2	El tablón	3	Marzo	2023-03-22T00:00:00	2024-11-06T04:00:00	6	Velocidad del viento	8
143838	7	Sololá	701	Sololá	2	El tablón	3	Marzo	2023-03-22T00:00:00	2024-11-06T04:00:00	7	Dirección del viento	8.05
143839	7	Sololá	701	Sololá	2	El tablón	3	Marzo	2023-03-22T00:00:00	2024-11-06T04:00:00	1	Precipitación	0
143840	7	Sololá	701	Sololá	2	El tablón	3	Marzo	2023-03-22T00:00:00	2024-11-06T04:00:00	8	Radiación solar	0
143841	7	Sololá	701	Sololá	2	El tablón	3	Marzo	2023-03-22T00:00:00	2024-11-06T05:00:00	2	Temperatura media	11.9
143842	7	Sololá	701	Sololá	2	El tablón	3	Marzo	2023-03-22T00:00:00	2024-11-06T05:00:00	4	Temperatura máxima	11.9
143843	7	Sololá	701	Sololá	2	El tablón	3	Marzo	2023-03-22T00:00:00	2024-11-06T05:00:00	3	Temperatura mínima	11.6
143844	7	Sololá	701	Sololá	2	El tablón	3	Marzo	2023-03-22T00:00:00	2024-11-06T05:00:00	5	Humedad	89
143845	7	Sololá	701	Sololá	2	El tablón	3	Marzo	2023-03-22T00:00:00	2024-11-06T05:00:00	6	Velocidad del viento	8
143846	7	Sololá	701	Sololá	2	El tablón	3	Marzo	2023-03-22T00:00:00	2024-11-06T05:00:00	7	Dirección del viento	8.05
143847	7	Sololá	701	Sololá	2	El tablón	3	Marzo	2023-03-22T00:00:00	2024-11-06T05:00:00	1	Precipitación	0
143848	7	Sololá	701	Sololá	2	El tablón	3	Marzo	2023-03-22T00:00:00	2024-11-06T05:00:00	8	Radiación solar	0
143849	7	Sololá	701	Sololá	2	El tablón	3	Marzo	2023-03-22T00:00:00	2024-11-06T06:00:00	2	Temperatura media	11.6
143850	7	Sololá	701	Sololá	2	El tablón	3	Marzo	2023-03-22T00:00:00	2024-11-06T06:00:00	4	Temperatura máxima	11.9
143851	7	Sololá	701	Sololá	2	El tablón	3	Marzo	2023-03-22T00:00:00	2024-11-06T06:00:00	3	Temperatura mínima	11.6
143852	7	Sololá	701	Sololá	2	El tablón	3	Marzo	2023-03-22T00:00:00	2024-11-06T06:00:00	5	Humedad	89
143853	7	Sololá	701	Sololá	2	El tablón	3	Marzo	2023-03-22T00:00:00	2024-11-06T06:00:00	6	Velocidad del viento	8
143854	7	Sololá	701	Sololá	2	El tablón	3	Marzo	2023-03-22T00:00:00	2024-11-06T06:00:00	7	Dirección del viento	8.05
143855	7	Sololá	701	Sololá	2	El tablón	3	Marzo	2023-03-22T00:00:00	2024-11-06T06:00:00	1	Precipitación	0
143856	7	Sololá	701	Sololá	2	El tablón	3	Marzo	2023-03-22T00:00:00	2024-11-06T06:00:00	8	Radiación solar	0
143857	7	Sololá	701	Sololá	2	El tablón	3	Marzo	2023-03-22T00:00:00	2024-11-06T07:00:00	2	Temperatura media	11.6
143858	7	Sololá	701	Sololá	2	El tablón	3	Marzo	2023-03-22T00:00:00	2024-11-06T07:00:00	4	Temperatura máxima	11.6
143859	7	Sololá	701	Sololá	2	El tablón	3	Marzo	2023-03-22T00:00:00	2024-11-06T07:00:00	3	Temperatura mínima	11.5
143860	7	Sololá	701	Sololá	2	El tablón	3	Marzo	2023-03-22T00:00:00	2024-11-06T07:00:00	5	Humedad	90
143861	7	Sololá	701	Sololá	2	El tablón	3	Marzo	2023-03-22T00:00:00	2024-11-06T07:00:00	6	Velocidad del viento	8
143862	7	Sololá	701	Sololá	2	El tablón	3	Marzo	2023-03-22T00:00:00	2024-11-06T07:00:00	7	Dirección del viento	8.05
143863	7	Sololá	701	Sololá	2	El tablón	3	Marzo	2023-03-22T00:00:00	2024-11-06T07:00:00	1	Precipitación	0
143864	7	Sololá	701	Sololá	2	El tablón	3	Marzo	2023-03-22T00:00:00	2024-11-06T07:00:00	8	Radiación solar	9
143865	7	Sololá	701	Sololá	2	El tablón	3	Marzo	2023-03-22T00:00:00	2024-11-06T08:00:00	2	Temperatura media	12.1
143866	7	Sololá	701	Sololá	2	El tablón	3	Marzo	2023-03-22T00:00:00	2024-11-06T08:00:00	4	Temperatura máxima	12.1
143867	7	Sololá	701	Sololá	2	El tablón	3	Marzo	2023-03-22T00:00:00	2024-11-06T08:00:00	3	Temperatura mínima	11.6
143868	7	Sololá	701	Sololá	2	El tablón	3	Marzo	2023-03-22T00:00:00	2024-11-06T08:00:00	5	Humedad	89
143869	7	Sololá	701	Sololá	2	El tablón	3	Marzo	2023-03-22T00:00:00	2024-11-06T08:00:00	6	Velocidad del viento	9.7
143870	7	Sololá	701	Sololá	2	El tablón	3	Marzo	2023-03-22T00:00:00	2024-11-06T08:00:00	7	Dirección del viento	9.66
143871	7	Sololá	701	Sololá	2	El tablón	3	Marzo	2023-03-22T00:00:00	2024-11-06T08:00:00	1	Precipitación	0.2
143872	7	Sololá	701	Sololá	2	El tablón	3	Marzo	2023-03-22T00:00:00	2024-11-06T08:00:00	8	Radiación solar	87
143873	7	Sololá	701	Sololá	2	El tablón	3	Marzo	2023-03-22T00:00:00	2024-11-06T09:00:00	2	Temperatura media	12.5
143874	7	Sololá	701	Sololá	2	El tablón	3	Marzo	2023-03-22T00:00:00	2024-11-06T09:00:00	4	Temperatura máxima	12.5
143875	7	Sololá	701	Sololá	2	El tablón	3	Marzo	2023-03-22T00:00:00	2024-11-06T09:00:00	3	Temperatura mínima	11.8
143876	7	Sololá	701	Sololá	2	El tablón	3	Marzo	2023-03-22T00:00:00	2024-11-06T09:00:00	5	Humedad	89
143877	7	Sololá	701	Sololá	2	El tablón	3	Marzo	2023-03-22T00:00:00	2024-11-06T09:00:00	6	Velocidad del viento	11.3
143878	7	Sololá	701	Sololá	2	El tablón	3	Marzo	2023-03-22T00:00:00	2024-11-06T09:00:00	7	Dirección del viento	11.27
143879	7	Sololá	701	Sololá	2	El tablón	3	Marzo	2023-03-22T00:00:00	2024-11-06T09:00:00	1	Precipitación	0
143880	7	Sololá	701	Sololá	2	El tablón	3	Marzo	2023-03-22T00:00:00	2024-11-06T09:00:00	8	Radiación solar	114
143881	7	Sololá	701	Sololá	2	El tablón	3	Marzo	2023-03-22T00:00:00	2024-11-06T10:00:00	2	Temperatura media	14.7
143882	7	Sololá	701	Sololá	2	El tablón	3	Marzo	2023-03-22T00:00:00	2024-11-06T10:00:00	4	Temperatura máxima	14.7
143883	7	Sololá	701	Sololá	2	El tablón	3	Marzo	2023-03-22T00:00:00	2024-11-06T10:00:00	3	Temperatura mínima	12.6
143884	7	Sololá	701	Sololá	2	El tablón	3	Marzo	2023-03-22T00:00:00	2024-11-06T10:00:00	5	Humedad	82
143885	7	Sololá	701	Sololá	2	El tablón	3	Marzo	2023-03-22T00:00:00	2024-11-06T10:00:00	6	Velocidad del viento	11.3
143886	7	Sololá	701	Sololá	2	El tablón	3	Marzo	2023-03-22T00:00:00	2024-11-06T10:00:00	7	Dirección del viento	11.27
143887	7	Sololá	701	Sololá	2	El tablón	3	Marzo	2023-03-22T00:00:00	2024-11-06T10:00:00	1	Precipitación	0
143888	7	Sololá	701	Sololá	2	El tablón	3	Marzo	2023-03-22T00:00:00	2024-11-06T10:00:00	8	Radiación solar	313
143889	7	Sololá	701	Sololá	2	El tablón	3	Marzo	2023-03-22T00:00:00	2024-11-06T11:00:00	2	Temperatura media	15.3
143890	7	Sololá	701	Sololá	2	El tablón	3	Marzo	2023-03-22T00:00:00	2024-11-06T11:00:00	4	Temperatura máxima	15.4
143891	7	Sololá	701	Sololá	2	El tablón	3	Marzo	2023-03-22T00:00:00	2024-11-06T11:00:00	3	Temperatura mínima	14.5
143892	7	Sololá	701	Sololá	2	El tablón	3	Marzo	2023-03-22T00:00:00	2024-11-06T11:00:00	5	Humedad	80
143893	7	Sololá	701	Sololá	2	El tablón	3	Marzo	2023-03-22T00:00:00	2024-11-06T11:00:00	6	Velocidad del viento	11.3
143894	7	Sololá	701	Sololá	2	El tablón	3	Marzo	2023-03-22T00:00:00	2024-11-06T11:00:00	7	Dirección del viento	11.27
143895	7	Sololá	701	Sololá	2	El tablón	3	Marzo	2023-03-22T00:00:00	2024-11-06T11:00:00	1	Precipitación	0
143896	7	Sololá	701	Sololá	2	El tablón	3	Marzo	2023-03-22T00:00:00	2024-11-06T11:00:00	8	Radiación solar	327
143897	7	Sololá	701	Sololá	2	El tablón	3	Marzo	2023-03-22T00:00:00	2024-11-06T12:00:00	2	Temperatura media	16.9
143898	7	Sololá	701	Sololá	2	El tablón	3	Marzo	2023-03-22T00:00:00	2024-11-06T12:00:00	4	Temperatura máxima	16.9
143899	7	Sololá	701	Sololá	2	El tablón	3	Marzo	2023-03-22T00:00:00	2024-11-06T12:00:00	3	Temperatura mínima	15.3
143900	7	Sololá	701	Sololá	2	El tablón	3	Marzo	2023-03-22T00:00:00	2024-11-06T12:00:00	5	Humedad	74
143901	7	Sololá	701	Sololá	2	El tablón	3	Marzo	2023-03-22T00:00:00	2024-11-06T12:00:00	6	Velocidad del viento	11.3
143902	7	Sololá	701	Sololá	2	El tablón	3	Marzo	2023-03-22T00:00:00	2024-11-06T12:00:00	7	Dirección del viento	11.27
143903	7	Sololá	701	Sololá	2	El tablón	3	Marzo	2023-03-22T00:00:00	2024-11-06T12:00:00	1	Precipitación	0
143904	7	Sololá	701	Sololá	2	El tablón	3	Marzo	2023-03-22T00:00:00	2024-11-06T12:00:00	8	Radiación solar	374
143905	7	Sololá	701	Sololá	2	El tablón	3	Marzo	2023-03-22T00:00:00	2024-11-06T13:00:00	2	Temperatura media	17
143906	7	Sololá	701	Sololá	2	El tablón	3	Marzo	2023-03-22T00:00:00	2024-11-06T13:00:00	4	Temperatura máxima	17.3
143907	7	Sololá	701	Sololá	2	El tablón	3	Marzo	2023-03-22T00:00:00	2024-11-06T13:00:00	3	Temperatura mínima	16
143908	7	Sololá	701	Sololá	2	El tablón	3	Marzo	2023-03-22T00:00:00	2024-11-06T13:00:00	5	Humedad	71
143909	7	Sololá	701	Sololá	2	El tablón	3	Marzo	2023-03-22T00:00:00	2024-11-06T13:00:00	6	Velocidad del viento	12.9
143910	7	Sololá	701	Sololá	2	El tablón	3	Marzo	2023-03-22T00:00:00	2024-11-06T13:00:00	7	Dirección del viento	12.87
143911	7	Sololá	701	Sololá	2	El tablón	3	Marzo	2023-03-22T00:00:00	2024-11-06T13:00:00	1	Precipitación	0
143912	7	Sololá	701	Sololá	2	El tablón	3	Marzo	2023-03-22T00:00:00	2024-11-06T13:00:00	8	Radiación solar	501
143913	7	Sololá	701	Sololá	2	El tablón	3	Marzo	2023-03-22T00:00:00	2024-11-06T14:00:00	2	Temperatura media	18.5
143914	7	Sololá	701	Sololá	2	El tablón	3	Marzo	2023-03-22T00:00:00	2024-11-06T14:00:00	4	Temperatura máxima	18.8
143915	7	Sololá	701	Sololá	2	El tablón	3	Marzo	2023-03-22T00:00:00	2024-11-06T14:00:00	3	Temperatura mínima	16.9
143916	7	Sololá	701	Sololá	2	El tablón	3	Marzo	2023-03-22T00:00:00	2024-11-06T14:00:00	5	Humedad	59
143917	7	Sololá	701	Sololá	2	El tablón	3	Marzo	2023-03-22T00:00:00	2024-11-06T14:00:00	6	Velocidad del viento	12.9
143918	7	Sololá	701	Sololá	2	El tablón	3	Marzo	2023-03-22T00:00:00	2024-11-06T14:00:00	7	Dirección del viento	12.87
143919	7	Sololá	701	Sololá	2	El tablón	3	Marzo	2023-03-22T00:00:00	2024-11-06T14:00:00	1	Precipitación	0
143920	7	Sololá	701	Sololá	2	El tablón	3	Marzo	2023-03-22T00:00:00	2024-11-06T14:00:00	8	Radiación solar	950
143921	7	Sololá	701	Sololá	2	El tablón	3	Marzo	2023-03-22T00:00:00	2024-11-06T15:00:00	2	Temperatura media	18.8
143922	7	Sololá	701	Sololá	2	El tablón	3	Marzo	2023-03-22T00:00:00	2024-11-06T15:00:00	4	Temperatura máxima	19.2
143923	7	Sololá	701	Sololá	2	El tablón	3	Marzo	2023-03-22T00:00:00	2024-11-06T15:00:00	3	Temperatura mínima	18.3
143924	7	Sololá	701	Sololá	2	El tablón	3	Marzo	2023-03-22T00:00:00	2024-11-06T15:00:00	5	Humedad	57
143925	7	Sololá	701	Sololá	2	El tablón	3	Marzo	2023-03-22T00:00:00	2024-11-06T15:00:00	6	Velocidad del viento	12.9
143926	7	Sololá	701	Sololá	2	El tablón	3	Marzo	2023-03-22T00:00:00	2024-11-06T15:00:00	7	Dirección del viento	12.87
143927	7	Sololá	701	Sololá	2	El tablón	3	Marzo	2023-03-22T00:00:00	2024-11-06T15:00:00	1	Precipitación	0
143928	7	Sololá	701	Sololá	2	El tablón	3	Marzo	2023-03-22T00:00:00	2024-11-06T15:00:00	8	Radiación solar	825
143929	7	Sololá	701	Sololá	2	El tablón	3	Marzo	2023-03-22T00:00:00	2024-11-06T16:00:00	2	Temperatura media	18.4
143930	7	Sololá	701	Sololá	2	El tablón	3	Marzo	2023-03-22T00:00:00	2024-11-06T16:00:00	4	Temperatura máxima	19.1
143931	7	Sololá	701	Sololá	2	El tablón	3	Marzo	2023-03-22T00:00:00	2024-11-06T16:00:00	3	Temperatura mínima	18.3
143932	7	Sololá	701	Sololá	2	El tablón	3	Marzo	2023-03-22T00:00:00	2024-11-06T16:00:00	5	Humedad	56
143933	7	Sololá	701	Sololá	2	El tablón	3	Marzo	2023-03-22T00:00:00	2024-11-06T16:00:00	6	Velocidad del viento	12.9
143934	7	Sololá	701	Sololá	2	El tablón	3	Marzo	2023-03-22T00:00:00	2024-11-06T16:00:00	7	Dirección del viento	12.87
143935	7	Sololá	701	Sololá	2	El tablón	3	Marzo	2023-03-22T00:00:00	2024-11-06T16:00:00	1	Precipitación	0
143936	7	Sololá	701	Sololá	2	El tablón	3	Marzo	2023-03-22T00:00:00	2024-11-06T16:00:00	8	Radiación solar	628
143937	7	Sololá	701	Sololá	2	El tablón	3	Marzo	2023-03-22T00:00:00	2024-11-06T17:00:00	2	Temperatura media	17.7
143938	7	Sololá	701	Sololá	2	El tablón	3	Marzo	2023-03-22T00:00:00	2024-11-06T17:00:00	4	Temperatura máxima	18.6
143939	7	Sololá	701	Sololá	2	El tablón	3	Marzo	2023-03-22T00:00:00	2024-11-06T17:00:00	3	Temperatura mínima	17.6
143940	7	Sololá	701	Sololá	2	El tablón	3	Marzo	2023-03-22T00:00:00	2024-11-06T17:00:00	5	Humedad	59
143941	7	Sololá	701	Sololá	2	El tablón	3	Marzo	2023-03-22T00:00:00	2024-11-06T17:00:00	6	Velocidad del viento	11.3
143942	7	Sololá	701	Sololá	2	El tablón	3	Marzo	2023-03-22T00:00:00	2024-11-06T17:00:00	7	Dirección del viento	11.27
143943	7	Sololá	701	Sololá	2	El tablón	3	Marzo	2023-03-22T00:00:00	2024-11-06T17:00:00	1	Precipitación	0
143944	7	Sololá	701	Sololá	2	El tablón	3	Marzo	2023-03-22T00:00:00	2024-11-06T17:00:00	8	Radiación solar	372
143945	7	Sololá	701	Sololá	2	El tablón	3	Marzo	2023-03-22T00:00:00	2024-11-06T18:00:00	2	Temperatura media	15.9
143946	7	Sololá	701	Sololá	2	El tablón	3	Marzo	2023-03-22T00:00:00	2024-11-06T18:00:00	4	Temperatura máxima	17.7
143947	7	Sololá	701	Sololá	2	El tablón	3	Marzo	2023-03-22T00:00:00	2024-11-06T18:00:00	3	Temperatura mínima	15.9
143948	7	Sololá	701	Sololá	2	El tablón	3	Marzo	2023-03-22T00:00:00	2024-11-06T18:00:00	5	Humedad	72
143949	7	Sololá	701	Sololá	2	El tablón	3	Marzo	2023-03-22T00:00:00	2024-11-06T18:00:00	6	Velocidad del viento	9.7
143950	7	Sololá	701	Sololá	2	El tablón	3	Marzo	2023-03-22T00:00:00	2024-11-06T18:00:00	7	Dirección del viento	9.66
143951	7	Sololá	701	Sololá	2	El tablón	3	Marzo	2023-03-22T00:00:00	2024-11-06T18:00:00	1	Precipitación	0
143952	7	Sololá	701	Sololá	2	El tablón	3	Marzo	2023-03-22T00:00:00	2024-11-06T18:00:00	8	Radiación solar	141
143953	7	Sololá	701	Sololá	2	El tablón	3	Marzo	2023-03-22T00:00:00	2024-11-06T19:00:00	2	Temperatura media	13.6
143954	7	Sololá	701	Sololá	2	El tablón	3	Marzo	2023-03-22T00:00:00	2024-11-06T19:00:00	4	Temperatura máxima	15.9
143955	7	Sololá	701	Sololá	2	El tablón	3	Marzo	2023-03-22T00:00:00	2024-11-06T19:00:00	3	Temperatura mínima	13.6
143956	7	Sololá	701	Sololá	2	El tablón	3	Marzo	2023-03-22T00:00:00	2024-11-06T19:00:00	5	Humedad	81
143957	7	Sololá	701	Sololá	2	El tablón	3	Marzo	2023-03-22T00:00:00	2024-11-06T19:00:00	6	Velocidad del viento	6.4
143958	7	Sololá	701	Sololá	2	El tablón	3	Marzo	2023-03-22T00:00:00	2024-11-06T19:00:00	7	Dirección del viento	6.44
143959	7	Sololá	701	Sololá	2	El tablón	3	Marzo	2023-03-22T00:00:00	2024-11-06T19:00:00	1	Precipitación	0
143960	7	Sololá	701	Sololá	2	El tablón	3	Marzo	2023-03-22T00:00:00	2024-11-06T19:00:00	8	Radiación solar	0
143961	7	Sololá	701	Sololá	2	El tablón	3	Marzo	2023-03-22T00:00:00	2024-11-06T20:00:00	2	Temperatura media	12.9
143962	7	Sololá	701	Sololá	2	El tablón	3	Marzo	2023-03-22T00:00:00	2024-11-06T20:00:00	4	Temperatura máxima	13.6
143963	7	Sololá	701	Sololá	2	El tablón	3	Marzo	2023-03-22T00:00:00	2024-11-06T20:00:00	3	Temperatura mínima	12.9
143964	7	Sololá	701	Sololá	2	El tablón	3	Marzo	2023-03-22T00:00:00	2024-11-06T20:00:00	5	Humedad	84
143965	7	Sololá	701	Sololá	2	El tablón	3	Marzo	2023-03-22T00:00:00	2024-11-06T20:00:00	6	Velocidad del viento	9.7
143966	7	Sololá	701	Sololá	2	El tablón	3	Marzo	2023-03-22T00:00:00	2024-11-06T20:00:00	7	Dirección del viento	9.66
143967	7	Sololá	701	Sololá	2	El tablón	3	Marzo	2023-03-22T00:00:00	2024-11-06T20:00:00	1	Precipitación	0
143968	7	Sololá	701	Sololá	2	El tablón	3	Marzo	2023-03-22T00:00:00	2024-11-06T20:00:00	8	Radiación solar	0
143969	7	Sololá	701	Sololá	2	El tablón	3	Marzo	2023-03-22T00:00:00	2024-11-06T21:00:00	2	Temperatura media	12.4
143970	7	Sololá	701	Sololá	2	El tablón	3	Marzo	2023-03-22T00:00:00	2024-11-06T21:00:00	4	Temperatura máxima	12.9
143971	7	Sololá	701	Sololá	2	El tablón	3	Marzo	2023-03-22T00:00:00	2024-11-06T21:00:00	3	Temperatura mínima	12.4
143972	7	Sololá	701	Sololá	2	El tablón	3	Marzo	2023-03-22T00:00:00	2024-11-06T21:00:00	5	Humedad	86
143973	7	Sololá	701	Sololá	2	El tablón	3	Marzo	2023-03-22T00:00:00	2024-11-06T21:00:00	6	Velocidad del viento	6.4
143974	7	Sololá	701	Sololá	2	El tablón	3	Marzo	2023-03-22T00:00:00	2024-11-06T21:00:00	7	Dirección del viento	6.44
143975	7	Sololá	701	Sololá	2	El tablón	3	Marzo	2023-03-22T00:00:00	2024-11-06T21:00:00	1	Precipitación	0
143976	7	Sololá	701	Sololá	2	El tablón	3	Marzo	2023-03-22T00:00:00	2024-11-06T21:00:00	8	Radiación solar	0
143977	7	Sololá	701	Sololá	2	El tablón	3	Marzo	2023-03-22T00:00:00	2024-11-06T22:00:00	2	Temperatura media	12.3
143978	7	Sololá	701	Sololá	2	El tablón	3	Marzo	2023-03-22T00:00:00	2024-11-06T22:00:00	4	Temperatura máxima	12.5
143979	7	Sololá	701	Sololá	2	El tablón	3	Marzo	2023-03-22T00:00:00	2024-11-06T22:00:00	3	Temperatura mínima	12.3
143980	7	Sololá	701	Sololá	2	El tablón	3	Marzo	2023-03-22T00:00:00	2024-11-06T22:00:00	5	Humedad	85
143981	7	Sololá	701	Sololá	2	El tablón	3	Marzo	2023-03-22T00:00:00	2024-11-06T22:00:00	6	Velocidad del viento	6.4
143982	7	Sololá	701	Sololá	2	El tablón	3	Marzo	2023-03-22T00:00:00	2024-11-06T22:00:00	7	Dirección del viento	6.44
143983	7	Sololá	701	Sololá	2	El tablón	3	Marzo	2023-03-22T00:00:00	2024-11-06T22:00:00	1	Precipitación	0
143984	7	Sololá	701	Sololá	2	El tablón	3	Marzo	2023-03-22T00:00:00	2024-11-06T22:00:00	8	Radiación solar	0
143985	7	Sololá	701	Sololá	2	El tablón	3	Marzo	2023-03-22T00:00:00	2024-11-06T23:00:00	2	Temperatura media	11.9
143986	7	Sololá	701	Sololá	2	El tablón	3	Marzo	2023-03-22T00:00:00	2024-11-06T23:00:00	4	Temperatura máxima	12.3
143987	7	Sololá	701	Sololá	2	El tablón	3	Marzo	2023-03-22T00:00:00	2024-11-06T23:00:00	3	Temperatura mínima	11.9
143988	7	Sololá	701	Sololá	2	El tablón	3	Marzo	2023-03-22T00:00:00	2024-11-06T23:00:00	5	Humedad	83
143989	7	Sololá	701	Sololá	2	El tablón	3	Marzo	2023-03-22T00:00:00	2024-11-06T23:00:00	6	Velocidad del viento	9.7
143990	7	Sololá	701	Sololá	2	El tablón	3	Marzo	2023-03-22T00:00:00	2024-11-06T23:00:00	7	Dirección del viento	9.66
143991	7	Sololá	701	Sololá	2	El tablón	3	Marzo	2023-03-22T00:00:00	2024-11-06T23:00:00	1	Precipitación	0
143992	7	Sololá	701	Sololá	2	El tablón	3	Marzo	2023-03-22T00:00:00	2024-11-06T23:00:00	8	Radiación solar	0
143993	7	Sololá	701	Sololá	2	El tablón	3	Marzo	2023-03-23T00:00:00	2024-11-06T00:00:00	2	Temperatura media	11.6
143994	7	Sololá	701	Sololá	2	El tablón	3	Marzo	2023-03-23T00:00:00	2024-11-06T00:00:00	4	Temperatura máxima	12
143995	7	Sololá	701	Sololá	2	El tablón	3	Marzo	2023-03-23T00:00:00	2024-11-06T00:00:00	3	Temperatura mínima	11.6
143996	7	Sololá	701	Sololá	2	El tablón	3	Marzo	2023-03-23T00:00:00	2024-11-06T00:00:00	5	Humedad	84
143997	7	Sololá	701	Sololá	2	El tablón	3	Marzo	2023-03-23T00:00:00	2024-11-06T00:00:00	6	Velocidad del viento	11.3
143998	7	Sololá	701	Sololá	2	El tablón	3	Marzo	2023-03-23T00:00:00	2024-11-06T00:00:00	7	Dirección del viento	11.27
143999	7	Sololá	701	Sololá	2	El tablón	3	Marzo	2023-03-23T00:00:00	2024-11-06T00:00:00	1	Precipitación	0
144000	7	Sololá	701	Sololá	2	El tablón	3	Marzo	2023-03-23T00:00:00	2024-11-06T00:00:00	8	Radiación solar	0
144001	7	Sololá	701	Sololá	2	El tablón	3	Marzo	2023-03-23T00:00:00	2024-11-06T01:00:00	2	Temperatura media	11.7
144002	7	Sololá	701	Sololá	2	El tablón	3	Marzo	2023-03-23T00:00:00	2024-11-06T01:00:00	4	Temperatura máxima	11.7
144003	7	Sololá	701	Sololá	2	El tablón	3	Marzo	2023-03-23T00:00:00	2024-11-06T01:00:00	3	Temperatura mínima	11.4
144004	7	Sololá	701	Sololá	2	El tablón	3	Marzo	2023-03-23T00:00:00	2024-11-06T01:00:00	5	Humedad	80
144005	7	Sololá	701	Sololá	2	El tablón	3	Marzo	2023-03-23T00:00:00	2024-11-06T01:00:00	6	Velocidad del viento	8
144006	7	Sololá	701	Sololá	2	El tablón	3	Marzo	2023-03-23T00:00:00	2024-11-06T01:00:00	7	Dirección del viento	8.05
144007	7	Sololá	701	Sololá	2	El tablón	3	Marzo	2023-03-23T00:00:00	2024-11-06T01:00:00	1	Precipitación	0
144008	7	Sololá	701	Sololá	2	El tablón	3	Marzo	2023-03-23T00:00:00	2024-11-06T01:00:00	8	Radiación solar	0
144009	7	Sololá	701	Sololá	2	El tablón	3	Marzo	2023-03-23T00:00:00	2024-11-06T02:00:00	2	Temperatura media	10.9
144010	7	Sololá	701	Sololá	2	El tablón	3	Marzo	2023-03-23T00:00:00	2024-11-06T02:00:00	4	Temperatura máxima	11.8
144011	7	Sololá	701	Sololá	2	El tablón	3	Marzo	2023-03-23T00:00:00	2024-11-06T02:00:00	3	Temperatura mínima	10.9
144012	7	Sololá	701	Sololá	2	El tablón	3	Marzo	2023-03-23T00:00:00	2024-11-06T02:00:00	5	Humedad	84
144013	7	Sololá	701	Sololá	2	El tablón	3	Marzo	2023-03-23T00:00:00	2024-11-06T02:00:00	6	Velocidad del viento	6.4
144014	7	Sololá	701	Sololá	2	El tablón	3	Marzo	2023-03-23T00:00:00	2024-11-06T02:00:00	7	Dirección del viento	6.44
144015	7	Sololá	701	Sololá	2	El tablón	3	Marzo	2023-03-23T00:00:00	2024-11-06T02:00:00	1	Precipitación	0
144016	7	Sololá	701	Sololá	2	El tablón	3	Marzo	2023-03-23T00:00:00	2024-11-06T02:00:00	8	Radiación solar	0
144017	7	Sololá	701	Sololá	2	El tablón	3	Marzo	2023-03-23T00:00:00	2024-11-06T03:00:00	2	Temperatura media	10.7
144018	7	Sololá	701	Sololá	2	El tablón	3	Marzo	2023-03-23T00:00:00	2024-11-06T03:00:00	4	Temperatura máxima	10.9
144019	7	Sololá	701	Sololá	2	El tablón	3	Marzo	2023-03-23T00:00:00	2024-11-06T03:00:00	3	Temperatura mínima	10.7
144020	7	Sololá	701	Sololá	2	El tablón	3	Marzo	2023-03-23T00:00:00	2024-11-06T03:00:00	5	Humedad	84
144021	7	Sololá	701	Sololá	2	El tablón	3	Marzo	2023-03-23T00:00:00	2024-11-06T03:00:00	6	Velocidad del viento	3.2
144022	7	Sololá	701	Sololá	2	El tablón	3	Marzo	2023-03-23T00:00:00	2024-11-06T03:00:00	7	Dirección del viento	3.22
144023	7	Sololá	701	Sololá	2	El tablón	3	Marzo	2023-03-23T00:00:00	2024-11-06T03:00:00	1	Precipitación	0
144024	7	Sololá	701	Sololá	2	El tablón	3	Marzo	2023-03-23T00:00:00	2024-11-06T03:00:00	8	Radiación solar	0
144025	7	Sololá	701	Sololá	2	El tablón	3	Marzo	2023-03-23T00:00:00	2024-11-06T04:00:00	2	Temperatura media	10.2
144026	7	Sololá	701	Sololá	2	El tablón	3	Marzo	2023-03-23T00:00:00	2024-11-06T04:00:00	4	Temperatura máxima	10.7
144027	7	Sololá	701	Sololá	2	El tablón	3	Marzo	2023-03-23T00:00:00	2024-11-06T04:00:00	3	Temperatura mínima	9.5
144028	7	Sololá	701	Sololá	2	El tablón	3	Marzo	2023-03-23T00:00:00	2024-11-06T04:00:00	5	Humedad	87
144029	7	Sololá	701	Sololá	2	El tablón	3	Marzo	2023-03-23T00:00:00	2024-11-06T04:00:00	6	Velocidad del viento	3.2
144030	7	Sololá	701	Sololá	2	El tablón	3	Marzo	2023-03-23T00:00:00	2024-11-06T04:00:00	7	Dirección del viento	3.22
144031	7	Sololá	701	Sololá	2	El tablón	3	Marzo	2023-03-23T00:00:00	2024-11-06T04:00:00	1	Precipitación	0
144032	7	Sololá	701	Sololá	2	El tablón	3	Marzo	2023-03-23T00:00:00	2024-11-06T04:00:00	8	Radiación solar	0
144033	7	Sololá	701	Sololá	2	El tablón	3	Marzo	2023-03-23T00:00:00	2024-11-06T05:00:00	2	Temperatura media	10.6
144034	7	Sololá	701	Sololá	2	El tablón	3	Marzo	2023-03-23T00:00:00	2024-11-06T05:00:00	4	Temperatura máxima	10.6
144035	7	Sololá	701	Sololá	2	El tablón	3	Marzo	2023-03-23T00:00:00	2024-11-06T05:00:00	3	Temperatura mínima	10.2
144036	7	Sololá	701	Sololá	2	El tablón	3	Marzo	2023-03-23T00:00:00	2024-11-06T05:00:00	5	Humedad	87
144037	7	Sololá	701	Sololá	2	El tablón	3	Marzo	2023-03-23T00:00:00	2024-11-06T05:00:00	6	Velocidad del viento	4.8
144038	7	Sololá	701	Sololá	2	El tablón	3	Marzo	2023-03-23T00:00:00	2024-11-06T05:00:00	7	Dirección del viento	4.83
144039	7	Sololá	701	Sololá	2	El tablón	3	Marzo	2023-03-23T00:00:00	2024-11-06T05:00:00	1	Precipitación	0
144040	7	Sololá	701	Sololá	2	El tablón	3	Marzo	2023-03-23T00:00:00	2024-11-06T05:00:00	8	Radiación solar	0
144041	7	Sololá	701	Sololá	2	El tablón	3	Marzo	2023-03-23T00:00:00	2024-11-06T06:00:00	2	Temperatura media	10.9
144042	7	Sololá	701	Sololá	2	El tablón	3	Marzo	2023-03-23T00:00:00	2024-11-06T06:00:00	4	Temperatura máxima	10.9
144043	7	Sololá	701	Sololá	2	El tablón	3	Marzo	2023-03-23T00:00:00	2024-11-06T06:00:00	3	Temperatura mínima	10.4
144044	7	Sololá	701	Sololá	2	El tablón	3	Marzo	2023-03-23T00:00:00	2024-11-06T06:00:00	5	Humedad	86
144045	7	Sololá	701	Sololá	2	El tablón	3	Marzo	2023-03-23T00:00:00	2024-11-06T06:00:00	6	Velocidad del viento	4.8
144046	7	Sololá	701	Sololá	2	El tablón	3	Marzo	2023-03-23T00:00:00	2024-11-06T06:00:00	7	Dirección del viento	4.83
144047	7	Sololá	701	Sololá	2	El tablón	3	Marzo	2023-03-23T00:00:00	2024-11-06T06:00:00	1	Precipitación	0
144048	7	Sololá	701	Sololá	2	El tablón	3	Marzo	2023-03-23T00:00:00	2024-11-06T06:00:00	8	Radiación solar	0
144049	7	Sololá	701	Sololá	2	El tablón	3	Marzo	2023-03-23T00:00:00	2024-11-06T07:00:00	2	Temperatura media	12.6
144050	7	Sololá	701	Sololá	2	El tablón	3	Marzo	2023-03-23T00:00:00	2024-11-06T07:00:00	4	Temperatura máxima	12.6
144051	7	Sololá	701	Sololá	2	El tablón	3	Marzo	2023-03-23T00:00:00	2024-11-06T07:00:00	3	Temperatura mínima	10.7
144052	7	Sololá	701	Sololá	2	El tablón	3	Marzo	2023-03-23T00:00:00	2024-11-06T07:00:00	5	Humedad	82
144053	7	Sololá	701	Sololá	2	El tablón	3	Marzo	2023-03-23T00:00:00	2024-11-06T07:00:00	6	Velocidad del viento	3.2
144054	7	Sololá	701	Sololá	2	El tablón	3	Marzo	2023-03-23T00:00:00	2024-11-06T07:00:00	7	Dirección del viento	3.22
144055	7	Sololá	701	Sololá	2	El tablón	3	Marzo	2023-03-23T00:00:00	2024-11-06T07:00:00	1	Precipitación	0
144056	7	Sololá	701	Sololá	2	El tablón	3	Marzo	2023-03-23T00:00:00	2024-11-06T07:00:00	8	Radiación solar	33
144057	7	Sololá	701	Sololá	2	El tablón	3	Marzo	2023-03-23T00:00:00	2024-11-06T08:00:00	2	Temperatura media	13.8
144058	7	Sololá	701	Sololá	2	El tablón	3	Marzo	2023-03-23T00:00:00	2024-11-06T08:00:00	4	Temperatura máxima	13.9
144059	7	Sololá	701	Sololá	2	El tablón	3	Marzo	2023-03-23T00:00:00	2024-11-06T08:00:00	3	Temperatura mínima	12.6
144060	7	Sololá	701	Sololá	2	El tablón	3	Marzo	2023-03-23T00:00:00	2024-11-06T08:00:00	5	Humedad	79
144061	7	Sololá	701	Sololá	2	El tablón	3	Marzo	2023-03-23T00:00:00	2024-11-06T08:00:00	6	Velocidad del viento	4.8
144062	7	Sololá	701	Sololá	2	El tablón	3	Marzo	2023-03-23T00:00:00	2024-11-06T08:00:00	7	Dirección del viento	4.83
144063	7	Sololá	701	Sololá	2	El tablón	3	Marzo	2023-03-23T00:00:00	2024-11-06T08:00:00	1	Precipitación	0
144064	7	Sololá	701	Sololá	2	El tablón	3	Marzo	2023-03-23T00:00:00	2024-11-06T08:00:00	8	Radiación solar	198
144065	7	Sololá	701	Sololá	2	El tablón	3	Marzo	2023-03-23T00:00:00	2024-11-06T09:00:00	2	Temperatura media	14.9
144066	7	Sololá	701	Sololá	2	El tablón	3	Marzo	2023-03-23T00:00:00	2024-11-06T09:00:00	4	Temperatura máxima	15
144067	7	Sololá	701	Sololá	2	El tablón	3	Marzo	2023-03-23T00:00:00	2024-11-06T09:00:00	3	Temperatura mínima	13.6
144068	7	Sololá	701	Sololá	2	El tablón	3	Marzo	2023-03-23T00:00:00	2024-11-06T09:00:00	5	Humedad	75
144069	7	Sololá	701	Sololá	2	El tablón	3	Marzo	2023-03-23T00:00:00	2024-11-06T09:00:00	6	Velocidad del viento	14.5
144070	7	Sololá	701	Sololá	2	El tablón	3	Marzo	2023-03-23T00:00:00	2024-11-06T09:00:00	7	Dirección del viento	14.48
144071	7	Sololá	701	Sololá	2	El tablón	3	Marzo	2023-03-23T00:00:00	2024-11-06T09:00:00	1	Precipitación	0
144072	7	Sololá	701	Sololá	2	El tablón	3	Marzo	2023-03-23T00:00:00	2024-11-06T09:00:00	8	Radiación solar	380
144073	7	Sololá	701	Sololá	2	El tablón	3	Marzo	2023-03-23T00:00:00	2024-11-06T10:00:00	2	Temperatura media	15.6
144074	7	Sololá	701	Sololá	2	El tablón	3	Marzo	2023-03-23T00:00:00	2024-11-06T10:00:00	4	Temperatura máxima	15.7
144075	7	Sololá	701	Sololá	2	El tablón	3	Marzo	2023-03-23T00:00:00	2024-11-06T10:00:00	3	Temperatura mínima	14.8
144076	7	Sololá	701	Sololá	2	El tablón	3	Marzo	2023-03-23T00:00:00	2024-11-06T10:00:00	5	Humedad	72
144077	7	Sololá	701	Sololá	2	El tablón	3	Marzo	2023-03-23T00:00:00	2024-11-06T10:00:00	6	Velocidad del viento	14.5
144078	7	Sololá	701	Sololá	2	El tablón	3	Marzo	2023-03-23T00:00:00	2024-11-06T10:00:00	7	Dirección del viento	14.48
144079	7	Sololá	701	Sololá	2	El tablón	3	Marzo	2023-03-23T00:00:00	2024-11-06T10:00:00	1	Precipitación	0
144080	7	Sololá	701	Sololá	2	El tablón	3	Marzo	2023-03-23T00:00:00	2024-11-06T10:00:00	8	Radiación solar	600
144081	7	Sololá	701	Sololá	2	El tablón	3	Marzo	2023-03-23T00:00:00	2024-11-06T11:00:00	2	Temperatura media	16.8
144082	7	Sololá	701	Sololá	2	El tablón	3	Marzo	2023-03-23T00:00:00	2024-11-06T11:00:00	4	Temperatura máxima	17.1
144083	7	Sololá	701	Sololá	2	El tablón	3	Marzo	2023-03-23T00:00:00	2024-11-06T11:00:00	3	Temperatura mínima	15.6
144084	7	Sololá	701	Sololá	2	El tablón	3	Marzo	2023-03-23T00:00:00	2024-11-06T11:00:00	5	Humedad	69
144085	7	Sololá	701	Sololá	2	El tablón	3	Marzo	2023-03-23T00:00:00	2024-11-06T11:00:00	6	Velocidad del viento	12.9
144086	7	Sololá	701	Sololá	2	El tablón	3	Marzo	2023-03-23T00:00:00	2024-11-06T11:00:00	7	Dirección del viento	12.87
144087	7	Sololá	701	Sololá	2	El tablón	3	Marzo	2023-03-23T00:00:00	2024-11-06T11:00:00	1	Precipitación	0
144088	7	Sololá	701	Sololá	2	El tablón	3	Marzo	2023-03-23T00:00:00	2024-11-06T11:00:00	8	Radiación solar	888
144089	7	Sololá	701	Sololá	2	El tablón	3	Marzo	2023-03-23T00:00:00	2024-11-06T12:00:00	2	Temperatura media	18.2
144090	7	Sololá	701	Sololá	2	El tablón	3	Marzo	2023-03-23T00:00:00	2024-11-06T12:00:00	4	Temperatura máxima	18.2
144091	7	Sololá	701	Sololá	2	El tablón	3	Marzo	2023-03-23T00:00:00	2024-11-06T12:00:00	3	Temperatura mínima	16.3
144092	7	Sololá	701	Sololá	2	El tablón	3	Marzo	2023-03-23T00:00:00	2024-11-06T12:00:00	5	Humedad	63
144093	7	Sololá	701	Sololá	2	El tablón	3	Marzo	2023-03-23T00:00:00	2024-11-06T12:00:00	6	Velocidad del viento	12.9
144094	7	Sololá	701	Sololá	2	El tablón	3	Marzo	2023-03-23T00:00:00	2024-11-06T12:00:00	7	Dirección del viento	12.87
144095	7	Sololá	701	Sololá	2	El tablón	3	Marzo	2023-03-23T00:00:00	2024-11-06T12:00:00	1	Precipitación	0
144096	7	Sololá	701	Sololá	2	El tablón	3	Marzo	2023-03-23T00:00:00	2024-11-06T12:00:00	8	Radiación solar	961
144097	7	Sololá	701	Sololá	2	El tablón	3	Marzo	2023-03-23T00:00:00	2024-11-06T13:00:00	2	Temperatura media	18.5
144098	7	Sololá	701	Sololá	2	El tablón	3	Marzo	2023-03-23T00:00:00	2024-11-06T13:00:00	4	Temperatura máxima	19.2
144099	7	Sololá	701	Sololá	2	El tablón	3	Marzo	2023-03-23T00:00:00	2024-11-06T13:00:00	3	Temperatura mínima	17.6
144100	7	Sololá	701	Sololá	2	El tablón	3	Marzo	2023-03-23T00:00:00	2024-11-06T13:00:00	5	Humedad	61
144101	7	Sololá	701	Sololá	2	El tablón	3	Marzo	2023-03-23T00:00:00	2024-11-06T13:00:00	6	Velocidad del viento	12.9
144102	7	Sololá	701	Sololá	2	El tablón	3	Marzo	2023-03-23T00:00:00	2024-11-06T13:00:00	7	Dirección del viento	12.87
144103	7	Sololá	701	Sololá	2	El tablón	3	Marzo	2023-03-23T00:00:00	2024-11-06T13:00:00	1	Precipitación	0
144104	7	Sololá	701	Sololá	2	El tablón	3	Marzo	2023-03-23T00:00:00	2024-11-06T13:00:00	8	Radiación solar	876
144105	7	Sololá	701	Sololá	2	El tablón	3	Marzo	2023-03-23T00:00:00	2024-11-06T14:00:00	2	Temperatura media	18.8
144106	7	Sololá	701	Sololá	2	El tablón	3	Marzo	2023-03-23T00:00:00	2024-11-06T14:00:00	4	Temperatura máxima	19
144107	7	Sololá	701	Sololá	2	El tablón	3	Marzo	2023-03-23T00:00:00	2024-11-06T14:00:00	3	Temperatura mínima	17.9
144108	7	Sololá	701	Sololá	2	El tablón	3	Marzo	2023-03-23T00:00:00	2024-11-06T14:00:00	5	Humedad	56
144109	7	Sololá	701	Sololá	2	El tablón	3	Marzo	2023-03-23T00:00:00	2024-11-06T14:00:00	6	Velocidad del viento	14.5
144110	7	Sololá	701	Sololá	2	El tablón	3	Marzo	2023-03-23T00:00:00	2024-11-06T14:00:00	7	Dirección del viento	14.48
144111	7	Sololá	701	Sololá	2	El tablón	3	Marzo	2023-03-23T00:00:00	2024-11-06T14:00:00	1	Precipitación	0
144112	7	Sololá	701	Sololá	2	El tablón	3	Marzo	2023-03-23T00:00:00	2024-11-06T14:00:00	8	Radiación solar	968
144113	7	Sololá	701	Sololá	2	El tablón	3	Marzo	2023-03-23T00:00:00	2024-11-06T15:00:00	2	Temperatura media	18.2
144114	7	Sololá	701	Sololá	2	El tablón	3	Marzo	2023-03-23T00:00:00	2024-11-06T15:00:00	4	Temperatura máxima	19.4
144115	7	Sololá	701	Sololá	2	El tablón	3	Marzo	2023-03-23T00:00:00	2024-11-06T15:00:00	3	Temperatura mínima	18.1
144116	7	Sololá	701	Sololá	2	El tablón	3	Marzo	2023-03-23T00:00:00	2024-11-06T15:00:00	5	Humedad	61
144117	7	Sololá	701	Sololá	2	El tablón	3	Marzo	2023-03-23T00:00:00	2024-11-06T15:00:00	6	Velocidad del viento	14.5
144118	7	Sololá	701	Sololá	2	El tablón	3	Marzo	2023-03-23T00:00:00	2024-11-06T15:00:00	7	Dirección del viento	14.48
144119	7	Sololá	701	Sololá	2	El tablón	3	Marzo	2023-03-23T00:00:00	2024-11-06T15:00:00	1	Precipitación	0
144120	7	Sololá	701	Sololá	2	El tablón	3	Marzo	2023-03-23T00:00:00	2024-11-06T15:00:00	8	Radiación solar	792
144121	7	Sololá	701	Sololá	2	El tablón	3	Marzo	2023-03-23T00:00:00	2024-11-06T16:00:00	2	Temperatura media	17.8
144122	7	Sololá	701	Sololá	2	El tablón	3	Marzo	2023-03-23T00:00:00	2024-11-06T16:00:00	4	Temperatura máxima	19.2
144123	7	Sololá	701	Sololá	2	El tablón	3	Marzo	2023-03-23T00:00:00	2024-11-06T16:00:00	3	Temperatura mínima	17.7
144124	7	Sololá	701	Sololá	2	El tablón	3	Marzo	2023-03-23T00:00:00	2024-11-06T16:00:00	5	Humedad	62
144125	7	Sololá	701	Sololá	2	El tablón	3	Marzo	2023-03-23T00:00:00	2024-11-06T16:00:00	6	Velocidad del viento	11.3
144126	7	Sololá	701	Sololá	2	El tablón	3	Marzo	2023-03-23T00:00:00	2024-11-06T16:00:00	7	Dirección del viento	11.27
144127	7	Sololá	701	Sololá	2	El tablón	3	Marzo	2023-03-23T00:00:00	2024-11-06T16:00:00	1	Precipitación	0
144128	7	Sololá	701	Sololá	2	El tablón	3	Marzo	2023-03-23T00:00:00	2024-11-06T16:00:00	8	Radiación solar	499
144129	7	Sololá	701	Sololá	2	El tablón	3	Marzo	2023-03-23T00:00:00	2024-11-06T17:00:00	2	Temperatura media	17.1
144130	7	Sololá	701	Sololá	2	El tablón	3	Marzo	2023-03-23T00:00:00	2024-11-06T17:00:00	4	Temperatura máxima	18.2
144131	7	Sololá	701	Sololá	2	El tablón	3	Marzo	2023-03-23T00:00:00	2024-11-06T17:00:00	3	Temperatura mínima	17.1
144132	7	Sololá	701	Sololá	2	El tablón	3	Marzo	2023-03-23T00:00:00	2024-11-06T17:00:00	5	Humedad	65
144133	7	Sololá	701	Sololá	2	El tablón	3	Marzo	2023-03-23T00:00:00	2024-11-06T17:00:00	6	Velocidad del viento	12.9
144134	7	Sololá	701	Sololá	2	El tablón	3	Marzo	2023-03-23T00:00:00	2024-11-06T17:00:00	7	Dirección del viento	12.87
144135	7	Sololá	701	Sololá	2	El tablón	3	Marzo	2023-03-23T00:00:00	2024-11-06T17:00:00	1	Precipitación	0
144136	7	Sololá	701	Sololá	2	El tablón	3	Marzo	2023-03-23T00:00:00	2024-11-06T17:00:00	8	Radiación solar	314
144137	7	Sololá	701	Sololá	2	El tablón	3	Marzo	2023-03-23T00:00:00	2024-11-06T18:00:00	2	Temperatura media	15.6
144138	7	Sololá	701	Sololá	2	El tablón	3	Marzo	2023-03-23T00:00:00	2024-11-06T18:00:00	4	Temperatura máxima	17.2
144139	7	Sololá	701	Sololá	2	El tablón	3	Marzo	2023-03-23T00:00:00	2024-11-06T18:00:00	3	Temperatura mínima	15.6
144140	7	Sololá	701	Sololá	2	El tablón	3	Marzo	2023-03-23T00:00:00	2024-11-06T18:00:00	5	Humedad	70
144141	7	Sololá	701	Sololá	2	El tablón	3	Marzo	2023-03-23T00:00:00	2024-11-06T18:00:00	6	Velocidad del viento	9.7
144142	7	Sololá	701	Sololá	2	El tablón	3	Marzo	2023-03-23T00:00:00	2024-11-06T18:00:00	7	Dirección del viento	9.66
144143	7	Sololá	701	Sololá	2	El tablón	3	Marzo	2023-03-23T00:00:00	2024-11-06T18:00:00	1	Precipitación	0
144144	7	Sololá	701	Sololá	2	El tablón	3	Marzo	2023-03-23T00:00:00	2024-11-06T18:00:00	8	Radiación solar	66
144145	7	Sololá	701	Sololá	2	El tablón	3	Marzo	2023-03-23T00:00:00	2024-11-06T19:00:00	2	Temperatura media	14.4
144146	7	Sololá	701	Sololá	2	El tablón	3	Marzo	2023-03-23T00:00:00	2024-11-06T19:00:00	4	Temperatura máxima	15.6
144147	7	Sololá	701	Sololá	2	El tablón	3	Marzo	2023-03-23T00:00:00	2024-11-06T19:00:00	3	Temperatura mínima	14.4
144148	7	Sololá	701	Sololá	2	El tablón	3	Marzo	2023-03-23T00:00:00	2024-11-06T19:00:00	5	Humedad	76
144149	7	Sololá	701	Sololá	2	El tablón	3	Marzo	2023-03-23T00:00:00	2024-11-06T19:00:00	6	Velocidad del viento	9.7
144150	7	Sololá	701	Sololá	2	El tablón	3	Marzo	2023-03-23T00:00:00	2024-11-06T19:00:00	7	Dirección del viento	9.66
144151	7	Sololá	701	Sololá	2	El tablón	3	Marzo	2023-03-23T00:00:00	2024-11-06T19:00:00	1	Precipitación	0
144152	7	Sololá	701	Sololá	2	El tablón	3	Marzo	2023-03-23T00:00:00	2024-11-06T19:00:00	8	Radiación solar	0
144153	7	Sololá	701	Sololá	2	El tablón	3	Marzo	2023-03-23T00:00:00	2024-11-06T20:00:00	2	Temperatura media	13.5
144154	7	Sololá	701	Sololá	2	El tablón	3	Marzo	2023-03-23T00:00:00	2024-11-06T20:00:00	4	Temperatura máxima	14.4
144155	7	Sololá	701	Sololá	2	El tablón	3	Marzo	2023-03-23T00:00:00	2024-11-06T20:00:00	3	Temperatura mínima	13.5
144156	7	Sololá	701	Sololá	2	El tablón	3	Marzo	2023-03-23T00:00:00	2024-11-06T20:00:00	5	Humedad	79
144157	7	Sololá	701	Sololá	2	El tablón	3	Marzo	2023-03-23T00:00:00	2024-11-06T20:00:00	6	Velocidad del viento	8
144158	7	Sololá	701	Sololá	2	El tablón	3	Marzo	2023-03-23T00:00:00	2024-11-06T20:00:00	7	Dirección del viento	8.05
144159	7	Sololá	701	Sololá	2	El tablón	3	Marzo	2023-03-23T00:00:00	2024-11-06T20:00:00	1	Precipitación	0
144160	7	Sololá	701	Sololá	2	El tablón	3	Marzo	2023-03-23T00:00:00	2024-11-06T20:00:00	8	Radiación solar	0
144161	7	Sololá	701	Sololá	2	El tablón	3	Marzo	2023-03-23T00:00:00	2024-11-06T21:00:00	2	Temperatura media	12.8
144162	7	Sololá	701	Sololá	2	El tablón	3	Marzo	2023-03-23T00:00:00	2024-11-06T21:00:00	4	Temperatura máxima	13.5
144163	7	Sololá	701	Sololá	2	El tablón	3	Marzo	2023-03-23T00:00:00	2024-11-06T21:00:00	3	Temperatura mínima	12.8
144164	7	Sololá	701	Sololá	2	El tablón	3	Marzo	2023-03-23T00:00:00	2024-11-06T21:00:00	5	Humedad	83
144165	7	Sololá	701	Sololá	2	El tablón	3	Marzo	2023-03-23T00:00:00	2024-11-06T21:00:00	6	Velocidad del viento	9.7
144166	7	Sololá	701	Sololá	2	El tablón	3	Marzo	2023-03-23T00:00:00	2024-11-06T21:00:00	7	Dirección del viento	9.66
144167	7	Sololá	701	Sololá	2	El tablón	3	Marzo	2023-03-23T00:00:00	2024-11-06T21:00:00	1	Precipitación	0
144168	7	Sololá	701	Sololá	2	El tablón	3	Marzo	2023-03-23T00:00:00	2024-11-06T21:00:00	8	Radiación solar	0
144169	7	Sololá	701	Sololá	2	El tablón	3	Marzo	2023-03-23T00:00:00	2024-11-06T22:00:00	2	Temperatura media	12.4
144170	7	Sololá	701	Sololá	2	El tablón	3	Marzo	2023-03-23T00:00:00	2024-11-06T22:00:00	4	Temperatura máxima	12.8
144171	7	Sololá	701	Sololá	2	El tablón	3	Marzo	2023-03-23T00:00:00	2024-11-06T22:00:00	3	Temperatura mínima	12.4
144172	7	Sololá	701	Sololá	2	El tablón	3	Marzo	2023-03-23T00:00:00	2024-11-06T22:00:00	5	Humedad	84
144173	7	Sololá	701	Sololá	2	El tablón	3	Marzo	2023-03-23T00:00:00	2024-11-06T22:00:00	6	Velocidad del viento	11.3
144174	7	Sololá	701	Sololá	2	El tablón	3	Marzo	2023-03-23T00:00:00	2024-11-06T22:00:00	7	Dirección del viento	11.27
144175	7	Sololá	701	Sololá	2	El tablón	3	Marzo	2023-03-23T00:00:00	2024-11-06T22:00:00	1	Precipitación	0
144176	7	Sololá	701	Sololá	2	El tablón	3	Marzo	2023-03-23T00:00:00	2024-11-06T22:00:00	8	Radiación solar	0
144177	7	Sololá	701	Sololá	2	El tablón	3	Marzo	2023-03-23T00:00:00	2024-11-06T23:00:00	2	Temperatura media	11.8
144178	7	Sololá	701	Sololá	2	El tablón	3	Marzo	2023-03-23T00:00:00	2024-11-06T23:00:00	4	Temperatura máxima	12.4
144179	7	Sololá	701	Sololá	2	El tablón	3	Marzo	2023-03-23T00:00:00	2024-11-06T23:00:00	3	Temperatura mínima	11.8
144180	7	Sololá	701	Sololá	2	El tablón	3	Marzo	2023-03-23T00:00:00	2024-11-06T23:00:00	5	Humedad	85
144181	7	Sololá	701	Sololá	2	El tablón	3	Marzo	2023-03-23T00:00:00	2024-11-06T23:00:00	6	Velocidad del viento	8
144182	7	Sololá	701	Sololá	2	El tablón	3	Marzo	2023-03-23T00:00:00	2024-11-06T23:00:00	7	Dirección del viento	8.05
144183	7	Sololá	701	Sololá	2	El tablón	3	Marzo	2023-03-23T00:00:00	2024-11-06T23:00:00	1	Precipitación	0
144184	7	Sololá	701	Sololá	2	El tablón	3	Marzo	2023-03-23T00:00:00	2024-11-06T23:00:00	8	Radiación solar	0
144185	7	Sololá	701	Sololá	2	El tablón	3	Marzo	2023-03-24T00:00:00	2024-11-06T00:00:00	2	Temperatura media	11.8
144186	7	Sololá	701	Sololá	2	El tablón	3	Marzo	2023-03-24T00:00:00	2024-11-06T00:00:00	4	Temperatura máxima	11.8
144187	7	Sololá	701	Sololá	2	El tablón	3	Marzo	2023-03-24T00:00:00	2024-11-06T00:00:00	3	Temperatura mínima	11.7
144188	7	Sololá	701	Sololá	2	El tablón	3	Marzo	2023-03-24T00:00:00	2024-11-06T00:00:00	5	Humedad	82
144189	7	Sololá	701	Sololá	2	El tablón	3	Marzo	2023-03-24T00:00:00	2024-11-06T00:00:00	6	Velocidad del viento	8
144190	7	Sololá	701	Sololá	2	El tablón	3	Marzo	2023-03-24T00:00:00	2024-11-06T00:00:00	7	Dirección del viento	8.05
144191	7	Sololá	701	Sololá	2	El tablón	3	Marzo	2023-03-24T00:00:00	2024-11-06T00:00:00	1	Precipitación	0
144192	7	Sololá	701	Sololá	2	El tablón	3	Marzo	2023-03-24T00:00:00	2024-11-06T00:00:00	8	Radiación solar	0
144193	7	Sololá	701	Sololá	2	El tablón	3	Marzo	2023-03-24T00:00:00	2024-11-06T01:00:00	2	Temperatura media	12.1
144194	7	Sololá	701	Sololá	2	El tablón	3	Marzo	2023-03-24T00:00:00	2024-11-06T01:00:00	4	Temperatura máxima	12.1
144195	7	Sololá	701	Sololá	2	El tablón	3	Marzo	2023-03-24T00:00:00	2024-11-06T01:00:00	3	Temperatura mínima	11.4
144196	7	Sololá	701	Sololá	2	El tablón	3	Marzo	2023-03-24T00:00:00	2024-11-06T01:00:00	5	Humedad	78
144197	7	Sololá	701	Sololá	2	El tablón	3	Marzo	2023-03-24T00:00:00	2024-11-06T01:00:00	6	Velocidad del viento	8
144198	7	Sololá	701	Sololá	2	El tablón	3	Marzo	2023-03-24T00:00:00	2024-11-06T01:00:00	7	Dirección del viento	8.05
144199	7	Sololá	701	Sololá	2	El tablón	3	Marzo	2023-03-24T00:00:00	2024-11-06T01:00:00	1	Precipitación	0
144200	7	Sololá	701	Sololá	2	El tablón	3	Marzo	2023-03-24T00:00:00	2024-11-06T01:00:00	8	Radiación solar	0
144201	7	Sololá	701	Sololá	2	El tablón	3	Marzo	2023-03-24T00:00:00	2024-11-06T02:00:00	2	Temperatura media	10.1
144202	7	Sololá	701	Sololá	2	El tablón	3	Marzo	2023-03-24T00:00:00	2024-11-06T02:00:00	4	Temperatura máxima	12.2
144203	7	Sololá	701	Sololá	2	El tablón	3	Marzo	2023-03-24T00:00:00	2024-11-06T02:00:00	3	Temperatura mínima	9.5
144204	7	Sololá	701	Sololá	2	El tablón	3	Marzo	2023-03-24T00:00:00	2024-11-06T02:00:00	5	Humedad	83
144205	7	Sololá	701	Sololá	2	El tablón	3	Marzo	2023-03-24T00:00:00	2024-11-06T02:00:00	6	Velocidad del viento	4.8
144206	7	Sololá	701	Sololá	2	El tablón	3	Marzo	2023-03-24T00:00:00	2024-11-06T02:00:00	7	Dirección del viento	4.83
144207	7	Sololá	701	Sololá	2	El tablón	3	Marzo	2023-03-24T00:00:00	2024-11-06T02:00:00	1	Precipitación	0
144208	7	Sololá	701	Sololá	2	El tablón	3	Marzo	2023-03-24T00:00:00	2024-11-06T02:00:00	8	Radiación solar	0
144209	7	Sololá	701	Sololá	2	El tablón	3	Marzo	2023-03-24T00:00:00	2024-11-06T03:00:00	2	Temperatura media	10
144210	7	Sololá	701	Sololá	2	El tablón	3	Marzo	2023-03-24T00:00:00	2024-11-06T03:00:00	4	Temperatura máxima	10.3
144211	7	Sololá	701	Sololá	2	El tablón	3	Marzo	2023-03-24T00:00:00	2024-11-06T03:00:00	3	Temperatura mínima	9.6
144212	7	Sololá	701	Sololá	2	El tablón	3	Marzo	2023-03-24T00:00:00	2024-11-06T03:00:00	5	Humedad	80
144213	7	Sololá	701	Sololá	2	El tablón	3	Marzo	2023-03-24T00:00:00	2024-11-06T03:00:00	6	Velocidad del viento	3.2
144214	7	Sololá	701	Sololá	2	El tablón	3	Marzo	2023-03-24T00:00:00	2024-11-06T03:00:00	7	Dirección del viento	3.22
144215	7	Sololá	701	Sololá	2	El tablón	3	Marzo	2023-03-24T00:00:00	2024-11-06T03:00:00	1	Precipitación	0
144216	7	Sololá	701	Sololá	2	El tablón	3	Marzo	2023-03-24T00:00:00	2024-11-06T03:00:00	8	Radiación solar	0
144217	7	Sololá	701	Sololá	2	El tablón	3	Marzo	2023-03-24T00:00:00	2024-11-06T04:00:00	2	Temperatura media	9.4
144218	7	Sololá	701	Sololá	2	El tablón	3	Marzo	2023-03-24T00:00:00	2024-11-06T04:00:00	4	Temperatura máxima	10
144219	7	Sololá	701	Sololá	2	El tablón	3	Marzo	2023-03-24T00:00:00	2024-11-06T04:00:00	3	Temperatura mínima	9.4
144220	7	Sololá	701	Sololá	2	El tablón	3	Marzo	2023-03-24T00:00:00	2024-11-06T04:00:00	5	Humedad	81
144221	7	Sololá	701	Sololá	2	El tablón	3	Marzo	2023-03-24T00:00:00	2024-11-06T04:00:00	6	Velocidad del viento	3.2
144222	7	Sololá	701	Sololá	2	El tablón	3	Marzo	2023-03-24T00:00:00	2024-11-06T04:00:00	7	Dirección del viento	3.22
144223	7	Sololá	701	Sololá	2	El tablón	3	Marzo	2023-03-24T00:00:00	2024-11-06T04:00:00	1	Precipitación	0
144224	7	Sololá	701	Sololá	2	El tablón	3	Marzo	2023-03-24T00:00:00	2024-11-06T04:00:00	8	Radiación solar	0
144225	7	Sololá	701	Sololá	2	El tablón	3	Marzo	2023-03-24T00:00:00	2024-11-06T05:00:00	2	Temperatura media	9.2
144226	7	Sololá	701	Sololá	2	El tablón	3	Marzo	2023-03-24T00:00:00	2024-11-06T05:00:00	4	Temperatura máxima	9.6
144227	7	Sololá	701	Sololá	2	El tablón	3	Marzo	2023-03-24T00:00:00	2024-11-06T05:00:00	3	Temperatura mínima	9.2
144228	7	Sololá	701	Sololá	2	El tablón	3	Marzo	2023-03-24T00:00:00	2024-11-06T05:00:00	5	Humedad	80
144229	7	Sololá	701	Sololá	2	El tablón	3	Marzo	2023-03-24T00:00:00	2024-11-06T05:00:00	6	Velocidad del viento	1.6
144230	7	Sololá	701	Sololá	2	El tablón	3	Marzo	2023-03-24T00:00:00	2024-11-06T05:00:00	7	Dirección del viento	1.61
144231	7	Sololá	701	Sololá	2	El tablón	3	Marzo	2023-03-24T00:00:00	2024-11-06T05:00:00	1	Precipitación	0
144232	7	Sololá	701	Sololá	2	El tablón	3	Marzo	2023-03-24T00:00:00	2024-11-06T05:00:00	8	Radiación solar	0
144233	7	Sololá	701	Sololá	2	El tablón	3	Marzo	2023-03-24T00:00:00	2024-11-06T06:00:00	2	Temperatura media	9.1
144234	7	Sololá	701	Sololá	2	El tablón	3	Marzo	2023-03-24T00:00:00	2024-11-06T06:00:00	4	Temperatura máxima	9.6
144235	7	Sololá	701	Sololá	2	El tablón	3	Marzo	2023-03-24T00:00:00	2024-11-06T06:00:00	3	Temperatura mínima	9
144236	7	Sololá	701	Sololá	2	El tablón	3	Marzo	2023-03-24T00:00:00	2024-11-06T06:00:00	5	Humedad	81
144237	7	Sololá	701	Sololá	2	El tablón	3	Marzo	2023-03-24T00:00:00	2024-11-06T06:00:00	6	Velocidad del viento	0
144238	7	Sololá	701	Sololá	2	El tablón	3	Marzo	2023-03-24T00:00:00	2024-11-06T06:00:00	7	Dirección del viento	0
144239	7	Sololá	701	Sololá	2	El tablón	3	Marzo	2023-03-24T00:00:00	2024-11-06T06:00:00	1	Precipitación	0
144240	7	Sololá	701	Sololá	2	El tablón	3	Marzo	2023-03-24T00:00:00	2024-11-06T06:00:00	8	Radiación solar	0
144241	7	Sololá	701	Sololá	2	El tablón	3	Marzo	2023-03-24T00:00:00	2024-11-06T07:00:00	2	Temperatura media	9.8
144242	7	Sololá	701	Sololá	2	El tablón	3	Marzo	2023-03-24T00:00:00	2024-11-06T07:00:00	4	Temperatura máxima	9.8
144243	7	Sololá	701	Sololá	2	El tablón	3	Marzo	2023-03-24T00:00:00	2024-11-06T07:00:00	3	Temperatura mínima	8.7
144244	7	Sololá	701	Sololá	2	El tablón	3	Marzo	2023-03-24T00:00:00	2024-11-06T07:00:00	5	Humedad	81
144245	7	Sololá	701	Sololá	2	El tablón	3	Marzo	2023-03-24T00:00:00	2024-11-06T07:00:00	6	Velocidad del viento	3.2
144246	7	Sololá	701	Sololá	2	El tablón	3	Marzo	2023-03-24T00:00:00	2024-11-06T07:00:00	7	Dirección del viento	3.22
144247	7	Sololá	701	Sololá	2	El tablón	3	Marzo	2023-03-24T00:00:00	2024-11-06T07:00:00	1	Precipitación	0
144248	7	Sololá	701	Sololá	2	El tablón	3	Marzo	2023-03-24T00:00:00	2024-11-06T07:00:00	8	Radiación solar	34
144249	7	Sololá	701	Sololá	2	El tablón	3	Marzo	2023-03-24T00:00:00	2024-11-06T08:00:00	2	Temperatura media	13.7
144250	7	Sololá	701	Sololá	2	El tablón	3	Marzo	2023-03-24T00:00:00	2024-11-06T08:00:00	4	Temperatura máxima	13.7
144251	7	Sololá	701	Sololá	2	El tablón	3	Marzo	2023-03-24T00:00:00	2024-11-06T08:00:00	3	Temperatura mínima	9.8
144252	7	Sololá	701	Sololá	2	El tablón	3	Marzo	2023-03-24T00:00:00	2024-11-06T08:00:00	5	Humedad	79
144253	7	Sololá	701	Sololá	2	El tablón	3	Marzo	2023-03-24T00:00:00	2024-11-06T08:00:00	6	Velocidad del viento	1.6
144254	7	Sololá	701	Sololá	2	El tablón	3	Marzo	2023-03-24T00:00:00	2024-11-06T08:00:00	7	Dirección del viento	1.61
144255	7	Sololá	701	Sololá	2	El tablón	3	Marzo	2023-03-24T00:00:00	2024-11-06T08:00:00	1	Precipitación	0
144256	7	Sololá	701	Sololá	2	El tablón	3	Marzo	2023-03-24T00:00:00	2024-11-06T08:00:00	8	Radiación solar	177
144257	7	Sololá	701	Sololá	2	El tablón	3	Marzo	2023-03-24T00:00:00	2024-11-06T09:00:00	2	Temperatura media	15.4
144258	7	Sololá	701	Sololá	2	El tablón	3	Marzo	2023-03-24T00:00:00	2024-11-06T09:00:00	4	Temperatura máxima	15.4
144259	7	Sololá	701	Sololá	2	El tablón	3	Marzo	2023-03-24T00:00:00	2024-11-06T09:00:00	3	Temperatura mínima	13.7
144260	7	Sololá	701	Sololá	2	El tablón	3	Marzo	2023-03-24T00:00:00	2024-11-06T09:00:00	5	Humedad	77
144261	7	Sololá	701	Sololá	2	El tablón	3	Marzo	2023-03-24T00:00:00	2024-11-06T09:00:00	6	Velocidad del viento	1.6
144262	7	Sololá	701	Sololá	2	El tablón	3	Marzo	2023-03-24T00:00:00	2024-11-06T09:00:00	7	Dirección del viento	1.61
144263	7	Sololá	701	Sololá	2	El tablón	3	Marzo	2023-03-24T00:00:00	2024-11-06T09:00:00	1	Precipitación	0
144264	7	Sololá	701	Sololá	2	El tablón	3	Marzo	2023-03-24T00:00:00	2024-11-06T09:00:00	8	Radiación solar	335
144265	7	Sololá	701	Sololá	2	El tablón	3	Marzo	2023-03-24T00:00:00	2024-11-06T10:00:00	2	Temperatura media	16.9
144266	7	Sololá	701	Sololá	2	El tablón	3	Marzo	2023-03-24T00:00:00	2024-11-06T10:00:00	4	Temperatura máxima	17
144267	7	Sololá	701	Sololá	2	El tablón	3	Marzo	2023-03-24T00:00:00	2024-11-06T10:00:00	3	Temperatura mínima	15.4
144268	7	Sololá	701	Sololá	2	El tablón	3	Marzo	2023-03-24T00:00:00	2024-11-06T10:00:00	5	Humedad	75
144269	7	Sololá	701	Sololá	2	El tablón	3	Marzo	2023-03-24T00:00:00	2024-11-06T10:00:00	6	Velocidad del viento	4.8
144270	7	Sololá	701	Sololá	2	El tablón	3	Marzo	2023-03-24T00:00:00	2024-11-06T10:00:00	7	Dirección del viento	4.83
144271	7	Sololá	701	Sololá	2	El tablón	3	Marzo	2023-03-24T00:00:00	2024-11-06T10:00:00	1	Precipitación	0
144272	7	Sololá	701	Sololá	2	El tablón	3	Marzo	2023-03-24T00:00:00	2024-11-06T10:00:00	8	Radiación solar	630
144273	7	Sololá	701	Sololá	2	El tablón	3	Marzo	2023-03-24T00:00:00	2024-11-06T11:00:00	2	Temperatura media	17.2
144274	7	Sololá	701	Sololá	2	El tablón	3	Marzo	2023-03-24T00:00:00	2024-11-06T11:00:00	4	Temperatura máxima	17.2
144275	7	Sololá	701	Sololá	2	El tablón	3	Marzo	2023-03-24T00:00:00	2024-11-06T11:00:00	3	Temperatura mínima	16.6
144276	7	Sololá	701	Sololá	2	El tablón	3	Marzo	2023-03-24T00:00:00	2024-11-06T11:00:00	5	Humedad	64
144277	7	Sololá	701	Sololá	2	El tablón	3	Marzo	2023-03-24T00:00:00	2024-11-06T11:00:00	6	Velocidad del viento	9.7
144278	7	Sololá	701	Sololá	2	El tablón	3	Marzo	2023-03-24T00:00:00	2024-11-06T11:00:00	7	Dirección del viento	9.66
144279	7	Sololá	701	Sololá	2	El tablón	3	Marzo	2023-03-24T00:00:00	2024-11-06T11:00:00	1	Precipitación	0
144280	7	Sololá	701	Sololá	2	El tablón	3	Marzo	2023-03-24T00:00:00	2024-11-06T11:00:00	8	Radiación solar	841
144281	7	Sololá	701	Sololá	2	El tablón	3	Marzo	2023-03-24T00:00:00	2024-11-06T12:00:00	2	Temperatura media	16.9
144282	7	Sololá	701	Sololá	2	El tablón	3	Marzo	2023-03-24T00:00:00	2024-11-06T12:00:00	4	Temperatura máxima	17.2
144283	7	Sololá	701	Sololá	2	El tablón	3	Marzo	2023-03-24T00:00:00	2024-11-06T12:00:00	3	Temperatura mínima	16.6
144284	7	Sololá	701	Sololá	2	El tablón	3	Marzo	2023-03-24T00:00:00	2024-11-06T12:00:00	5	Humedad	78
144285	7	Sololá	701	Sololá	2	El tablón	3	Marzo	2023-03-24T00:00:00	2024-11-06T12:00:00	6	Velocidad del viento	9.7
144286	7	Sololá	701	Sololá	2	El tablón	3	Marzo	2023-03-24T00:00:00	2024-11-06T12:00:00	7	Dirección del viento	9.66
144287	7	Sololá	701	Sololá	2	El tablón	3	Marzo	2023-03-24T00:00:00	2024-11-06T12:00:00	1	Precipitación	0
144288	7	Sololá	701	Sololá	2	El tablón	3	Marzo	2023-03-24T00:00:00	2024-11-06T12:00:00	8	Radiación solar	948
144289	7	Sololá	701	Sololá	2	El tablón	3	Marzo	2023-03-24T00:00:00	2024-11-06T13:00:00	2	Temperatura media	16.8
144290	7	Sololá	701	Sololá	2	El tablón	3	Marzo	2023-03-24T00:00:00	2024-11-06T13:00:00	4	Temperatura máxima	17.1
144291	7	Sololá	701	Sololá	2	El tablón	3	Marzo	2023-03-24T00:00:00	2024-11-06T13:00:00	3	Temperatura mínima	16.6
144292	7	Sololá	701	Sololá	2	El tablón	3	Marzo	2023-03-24T00:00:00	2024-11-06T13:00:00	5	Humedad	79
144293	7	Sololá	701	Sololá	2	El tablón	3	Marzo	2023-03-24T00:00:00	2024-11-06T13:00:00	6	Velocidad del viento	9.7
144294	7	Sololá	701	Sololá	2	El tablón	3	Marzo	2023-03-24T00:00:00	2024-11-06T13:00:00	7	Dirección del viento	9.66
144295	7	Sololá	701	Sololá	2	El tablón	3	Marzo	2023-03-24T00:00:00	2024-11-06T13:00:00	1	Precipitación	0
144296	7	Sololá	701	Sololá	2	El tablón	3	Marzo	2023-03-24T00:00:00	2024-11-06T13:00:00	8	Radiación solar	922
144297	7	Sololá	701	Sololá	2	El tablón	3	Marzo	2023-03-24T00:00:00	2024-11-06T14:00:00	2	Temperatura media	17.8
144298	7	Sololá	701	Sololá	2	El tablón	3	Marzo	2023-03-24T00:00:00	2024-11-06T14:00:00	4	Temperatura máxima	17.9
144299	7	Sololá	701	Sololá	2	El tablón	3	Marzo	2023-03-24T00:00:00	2024-11-06T14:00:00	3	Temperatura mínima	16.8
144300	7	Sololá	701	Sololá	2	El tablón	3	Marzo	2023-03-24T00:00:00	2024-11-06T14:00:00	5	Humedad	74
144301	7	Sololá	701	Sololá	2	El tablón	3	Marzo	2023-03-24T00:00:00	2024-11-06T14:00:00	6	Velocidad del viento	8
144302	7	Sololá	701	Sololá	2	El tablón	3	Marzo	2023-03-24T00:00:00	2024-11-06T14:00:00	7	Dirección del viento	8.05
144303	7	Sololá	701	Sololá	2	El tablón	3	Marzo	2023-03-24T00:00:00	2024-11-06T14:00:00	1	Precipitación	0
144304	7	Sololá	701	Sololá	2	El tablón	3	Marzo	2023-03-24T00:00:00	2024-11-06T14:00:00	8	Radiación solar	959
144305	7	Sololá	701	Sololá	2	El tablón	3	Marzo	2023-03-24T00:00:00	2024-11-06T15:00:00	2	Temperatura media	17.1
144306	7	Sololá	701	Sololá	2	El tablón	3	Marzo	2023-03-24T00:00:00	2024-11-06T15:00:00	4	Temperatura máxima	18.2
144307	7	Sololá	701	Sololá	2	El tablón	3	Marzo	2023-03-24T00:00:00	2024-11-06T15:00:00	3	Temperatura mínima	17
144308	7	Sololá	701	Sololá	2	El tablón	3	Marzo	2023-03-24T00:00:00	2024-11-06T15:00:00	5	Humedad	81
144309	7	Sololá	701	Sololá	2	El tablón	3	Marzo	2023-03-24T00:00:00	2024-11-06T15:00:00	6	Velocidad del viento	11.3
144310	7	Sololá	701	Sololá	2	El tablón	3	Marzo	2023-03-24T00:00:00	2024-11-06T15:00:00	7	Dirección del viento	11.27
144311	7	Sololá	701	Sololá	2	El tablón	3	Marzo	2023-03-24T00:00:00	2024-11-06T15:00:00	1	Precipitación	0
144312	7	Sololá	701	Sololá	2	El tablón	3	Marzo	2023-03-24T00:00:00	2024-11-06T15:00:00	8	Radiación solar	809
144313	7	Sololá	701	Sololá	2	El tablón	3	Marzo	2023-03-24T00:00:00	2024-11-06T16:00:00	2	Temperatura media	16.7
144314	7	Sololá	701	Sololá	2	El tablón	3	Marzo	2023-03-24T00:00:00	2024-11-06T16:00:00	4	Temperatura máxima	17.1
144315	7	Sololá	701	Sololá	2	El tablón	3	Marzo	2023-03-24T00:00:00	2024-11-06T16:00:00	3	Temperatura mínima	15.8
144316	7	Sololá	701	Sololá	2	El tablón	3	Marzo	2023-03-24T00:00:00	2024-11-06T16:00:00	5	Humedad	80
144317	7	Sololá	701	Sololá	2	El tablón	3	Marzo	2023-03-24T00:00:00	2024-11-06T16:00:00	6	Velocidad del viento	8
144318	7	Sololá	701	Sololá	2	El tablón	3	Marzo	2023-03-24T00:00:00	2024-11-06T16:00:00	7	Dirección del viento	8.05
144319	7	Sololá	701	Sololá	2	El tablón	3	Marzo	2023-03-24T00:00:00	2024-11-06T16:00:00	1	Precipitación	0
144320	7	Sololá	701	Sololá	2	El tablón	3	Marzo	2023-03-24T00:00:00	2024-11-06T16:00:00	8	Radiación solar	417
144321	7	Sololá	701	Sololá	2	El tablón	3	Marzo	2023-03-24T00:00:00	2024-11-06T17:00:00	2	Temperatura media	16.8
144322	7	Sololá	701	Sololá	2	El tablón	3	Marzo	2023-03-24T00:00:00	2024-11-06T17:00:00	4	Temperatura máxima	17.3
144323	7	Sololá	701	Sololá	2	El tablón	3	Marzo	2023-03-24T00:00:00	2024-11-06T17:00:00	3	Temperatura mínima	16.2
144324	7	Sololá	701	Sololá	2	El tablón	3	Marzo	2023-03-24T00:00:00	2024-11-06T17:00:00	5	Humedad	81
144325	7	Sololá	701	Sololá	2	El tablón	3	Marzo	2023-03-24T00:00:00	2024-11-06T17:00:00	6	Velocidad del viento	6.4
144326	7	Sololá	701	Sololá	2	El tablón	3	Marzo	2023-03-24T00:00:00	2024-11-06T17:00:00	7	Dirección del viento	6.44
144327	7	Sololá	701	Sololá	2	El tablón	3	Marzo	2023-03-24T00:00:00	2024-11-06T17:00:00	1	Precipitación	0
144328	7	Sololá	701	Sololá	2	El tablón	3	Marzo	2023-03-24T00:00:00	2024-11-06T17:00:00	8	Radiación solar	322
144329	7	Sololá	701	Sololá	2	El tablón	3	Marzo	2023-03-24T00:00:00	2024-11-06T18:00:00	2	Temperatura media	14.3
144330	7	Sololá	701	Sololá	2	El tablón	3	Marzo	2023-03-24T00:00:00	2024-11-06T18:00:00	4	Temperatura máxima	16.8
144331	7	Sololá	701	Sololá	2	El tablón	3	Marzo	2023-03-24T00:00:00	2024-11-06T18:00:00	3	Temperatura mínima	14.3
144332	7	Sololá	701	Sololá	2	El tablón	3	Marzo	2023-03-24T00:00:00	2024-11-06T18:00:00	5	Humedad	88
144333	7	Sololá	701	Sololá	2	El tablón	3	Marzo	2023-03-24T00:00:00	2024-11-06T18:00:00	6	Velocidad del viento	4.8
144334	7	Sololá	701	Sololá	2	El tablón	3	Marzo	2023-03-24T00:00:00	2024-11-06T18:00:00	7	Dirección del viento	4.83
144335	7	Sololá	701	Sololá	2	El tablón	3	Marzo	2023-03-24T00:00:00	2024-11-06T18:00:00	1	Precipitación	0
144336	7	Sololá	701	Sololá	2	El tablón	3	Marzo	2023-03-24T00:00:00	2024-11-06T18:00:00	8	Radiación solar	70
144337	7	Sololá	701	Sololá	2	El tablón	3	Marzo	2023-03-24T00:00:00	2024-11-06T19:00:00	2	Temperatura media	13.8
144338	7	Sololá	701	Sololá	2	El tablón	3	Marzo	2023-03-24T00:00:00	2024-11-06T19:00:00	4	Temperatura máxima	14.3
144339	7	Sololá	701	Sololá	2	El tablón	3	Marzo	2023-03-24T00:00:00	2024-11-06T19:00:00	3	Temperatura mínima	13.8
144340	7	Sololá	701	Sololá	2	El tablón	3	Marzo	2023-03-24T00:00:00	2024-11-06T19:00:00	5	Humedad	89
144341	7	Sololá	701	Sololá	2	El tablón	3	Marzo	2023-03-24T00:00:00	2024-11-06T19:00:00	6	Velocidad del viento	1.6
144342	7	Sololá	701	Sololá	2	El tablón	3	Marzo	2023-03-24T00:00:00	2024-11-06T19:00:00	7	Dirección del viento	1.61
144343	7	Sololá	701	Sololá	2	El tablón	3	Marzo	2023-03-24T00:00:00	2024-11-06T19:00:00	1	Precipitación	0
144344	7	Sololá	701	Sololá	2	El tablón	3	Marzo	2023-03-24T00:00:00	2024-11-06T19:00:00	8	Radiación solar	0
144345	7	Sololá	701	Sololá	2	El tablón	3	Marzo	2023-03-24T00:00:00	2024-11-06T20:00:00	2	Temperatura media	13.7
144346	7	Sololá	701	Sololá	2	El tablón	3	Marzo	2023-03-24T00:00:00	2024-11-06T20:00:00	4	Temperatura máxima	13.8
144347	7	Sololá	701	Sololá	2	El tablón	3	Marzo	2023-03-24T00:00:00	2024-11-06T20:00:00	3	Temperatura mínima	13.6
144348	7	Sololá	701	Sololá	2	El tablón	3	Marzo	2023-03-24T00:00:00	2024-11-06T20:00:00	5	Humedad	89
144349	7	Sololá	701	Sololá	2	El tablón	3	Marzo	2023-03-24T00:00:00	2024-11-06T20:00:00	6	Velocidad del viento	1.6
144350	7	Sololá	701	Sololá	2	El tablón	3	Marzo	2023-03-24T00:00:00	2024-11-06T20:00:00	7	Dirección del viento	1.61
144351	7	Sololá	701	Sololá	2	El tablón	3	Marzo	2023-03-24T00:00:00	2024-11-06T20:00:00	1	Precipitación	0
144352	7	Sololá	701	Sololá	2	El tablón	3	Marzo	2023-03-24T00:00:00	2024-11-06T20:00:00	8	Radiación solar	0
144353	7	Sololá	701	Sololá	2	El tablón	3	Marzo	2023-03-24T00:00:00	2024-11-06T21:00:00	2	Temperatura media	13.6
144354	7	Sololá	701	Sololá	2	El tablón	3	Marzo	2023-03-24T00:00:00	2024-11-06T21:00:00	4	Temperatura máxima	13.7
144355	7	Sololá	701	Sololá	2	El tablón	3	Marzo	2023-03-24T00:00:00	2024-11-06T21:00:00	3	Temperatura mínima	13.6
144356	7	Sololá	701	Sololá	2	El tablón	3	Marzo	2023-03-24T00:00:00	2024-11-06T21:00:00	5	Humedad	89
144357	7	Sololá	701	Sololá	2	El tablón	3	Marzo	2023-03-24T00:00:00	2024-11-06T21:00:00	6	Velocidad del viento	1.6
144358	7	Sololá	701	Sololá	2	El tablón	3	Marzo	2023-03-24T00:00:00	2024-11-06T21:00:00	7	Dirección del viento	1.61
144359	7	Sololá	701	Sololá	2	El tablón	3	Marzo	2023-03-24T00:00:00	2024-11-06T21:00:00	1	Precipitación	0
144360	7	Sololá	701	Sololá	2	El tablón	3	Marzo	2023-03-24T00:00:00	2024-11-06T21:00:00	8	Radiación solar	0
144361	7	Sololá	701	Sololá	2	El tablón	3	Marzo	2023-03-24T00:00:00	2024-11-06T22:00:00	2	Temperatura media	13.4
144362	7	Sololá	701	Sololá	2	El tablón	3	Marzo	2023-03-24T00:00:00	2024-11-06T22:00:00	4	Temperatura máxima	13.7
144363	7	Sololá	701	Sololá	2	El tablón	3	Marzo	2023-03-24T00:00:00	2024-11-06T22:00:00	3	Temperatura mínima	13.4
144364	7	Sololá	701	Sololá	2	El tablón	3	Marzo	2023-03-24T00:00:00	2024-11-06T22:00:00	5	Humedad	89
144365	7	Sololá	701	Sololá	2	El tablón	3	Marzo	2023-03-24T00:00:00	2024-11-06T22:00:00	6	Velocidad del viento	1.6
144366	7	Sololá	701	Sololá	2	El tablón	3	Marzo	2023-03-24T00:00:00	2024-11-06T22:00:00	7	Dirección del viento	1.61
144367	7	Sololá	701	Sololá	2	El tablón	3	Marzo	2023-03-24T00:00:00	2024-11-06T22:00:00	1	Precipitación	0
144368	7	Sololá	701	Sololá	2	El tablón	3	Marzo	2023-03-24T00:00:00	2024-11-06T22:00:00	8	Radiación solar	0
144369	7	Sololá	701	Sololá	2	El tablón	3	Marzo	2023-03-24T00:00:00	2024-11-06T23:00:00	2	Temperatura media	12.6
144370	7	Sololá	701	Sololá	2	El tablón	3	Marzo	2023-03-24T00:00:00	2024-11-06T23:00:00	4	Temperatura máxima	13.4
144371	7	Sololá	701	Sololá	2	El tablón	3	Marzo	2023-03-24T00:00:00	2024-11-06T23:00:00	3	Temperatura mínima	12.6
144372	7	Sololá	701	Sololá	2	El tablón	3	Marzo	2023-03-24T00:00:00	2024-11-06T23:00:00	5	Humedad	89
144373	7	Sololá	701	Sololá	2	El tablón	3	Marzo	2023-03-24T00:00:00	2024-11-06T23:00:00	6	Velocidad del viento	3.2
144374	7	Sololá	701	Sololá	2	El tablón	3	Marzo	2023-03-24T00:00:00	2024-11-06T23:00:00	7	Dirección del viento	3.22
144375	7	Sololá	701	Sololá	2	El tablón	3	Marzo	2023-03-24T00:00:00	2024-11-06T23:00:00	1	Precipitación	0
144376	7	Sololá	701	Sololá	2	El tablón	3	Marzo	2023-03-24T00:00:00	2024-11-06T23:00:00	8	Radiación solar	0
144377	7	Sololá	701	Sololá	2	El tablón	3	Marzo	2023-03-25T00:00:00	2024-11-06T00:00:00	2	Temperatura media	12.3
144378	7	Sololá	701	Sololá	2	El tablón	3	Marzo	2023-03-25T00:00:00	2024-11-06T00:00:00	4	Temperatura máxima	12.6
144379	7	Sololá	701	Sololá	2	El tablón	3	Marzo	2023-03-25T00:00:00	2024-11-06T00:00:00	3	Temperatura mínima	12.2
144380	7	Sololá	701	Sololá	2	El tablón	3	Marzo	2023-03-25T00:00:00	2024-11-06T00:00:00	5	Humedad	83
144381	7	Sololá	701	Sololá	2	El tablón	3	Marzo	2023-03-25T00:00:00	2024-11-06T00:00:00	6	Velocidad del viento	3.2
144382	7	Sololá	701	Sololá	2	El tablón	3	Marzo	2023-03-25T00:00:00	2024-11-06T00:00:00	7	Dirección del viento	3.22
144383	7	Sololá	701	Sololá	2	El tablón	3	Marzo	2023-03-25T00:00:00	2024-11-06T00:00:00	1	Precipitación	0
144384	7	Sololá	701	Sololá	2	El tablón	3	Marzo	2023-03-25T00:00:00	2024-11-06T00:00:00	8	Radiación solar	0
144385	7	Sololá	701	Sololá	2	El tablón	3	Marzo	2023-03-25T00:00:00	2024-11-06T01:00:00	2	Temperatura media	12.4
144386	7	Sololá	701	Sololá	2	El tablón	3	Marzo	2023-03-25T00:00:00	2024-11-06T01:00:00	4	Temperatura máxima	12.6
144387	7	Sololá	701	Sololá	2	El tablón	3	Marzo	2023-03-25T00:00:00	2024-11-06T01:00:00	3	Temperatura mínima	12.3
144388	7	Sololá	701	Sololá	2	El tablón	3	Marzo	2023-03-25T00:00:00	2024-11-06T01:00:00	5	Humedad	86
144389	7	Sololá	701	Sololá	2	El tablón	3	Marzo	2023-03-25T00:00:00	2024-11-06T01:00:00	6	Velocidad del viento	0
144390	7	Sololá	701	Sololá	2	El tablón	3	Marzo	2023-03-25T00:00:00	2024-11-06T01:00:00	7	Dirección del viento	0
144391	7	Sololá	701	Sololá	2	El tablón	3	Marzo	2023-03-25T00:00:00	2024-11-06T01:00:00	1	Precipitación	0
144392	7	Sololá	701	Sololá	2	El tablón	3	Marzo	2023-03-25T00:00:00	2024-11-06T01:00:00	8	Radiación solar	0
144393	7	Sololá	701	Sololá	2	El tablón	3	Marzo	2023-03-25T00:00:00	2024-11-06T02:00:00	2	Temperatura media	12.4
144394	7	Sololá	701	Sololá	2	El tablón	3	Marzo	2023-03-25T00:00:00	2024-11-06T02:00:00	4	Temperatura máxima	12.5
144395	7	Sololá	701	Sololá	2	El tablón	3	Marzo	2023-03-25T00:00:00	2024-11-06T02:00:00	3	Temperatura mínima	12.3
144396	7	Sololá	701	Sololá	2	El tablón	3	Marzo	2023-03-25T00:00:00	2024-11-06T02:00:00	5	Humedad	88
144397	7	Sololá	701	Sololá	2	El tablón	3	Marzo	2023-03-25T00:00:00	2024-11-06T02:00:00	6	Velocidad del viento	0
144398	7	Sololá	701	Sololá	2	El tablón	3	Marzo	2023-03-25T00:00:00	2024-11-06T02:00:00	7	Dirección del viento	0
144399	7	Sololá	701	Sololá	2	El tablón	3	Marzo	2023-03-25T00:00:00	2024-11-06T02:00:00	1	Precipitación	0
144400	7	Sololá	701	Sololá	2	El tablón	3	Marzo	2023-03-25T00:00:00	2024-11-06T02:00:00	8	Radiación solar	0
144401	7	Sololá	701	Sololá	2	El tablón	3	Marzo	2023-03-25T00:00:00	2024-11-06T03:00:00	2	Temperatura media	12.1
144402	7	Sololá	701	Sololá	2	El tablón	3	Marzo	2023-03-25T00:00:00	2024-11-06T03:00:00	4	Temperatura máxima	12.4
144403	7	Sololá	701	Sololá	2	El tablón	3	Marzo	2023-03-25T00:00:00	2024-11-06T03:00:00	3	Temperatura mínima	12
144404	7	Sololá	701	Sololá	2	El tablón	3	Marzo	2023-03-25T00:00:00	2024-11-06T03:00:00	5	Humedad	89
144405	7	Sololá	701	Sololá	2	El tablón	3	Marzo	2023-03-25T00:00:00	2024-11-06T03:00:00	6	Velocidad del viento	1.6
144406	7	Sololá	701	Sololá	2	El tablón	3	Marzo	2023-03-25T00:00:00	2024-11-06T03:00:00	7	Dirección del viento	1.61
144407	7	Sololá	701	Sololá	2	El tablón	3	Marzo	2023-03-25T00:00:00	2024-11-06T03:00:00	1	Precipitación	0
144408	7	Sololá	701	Sololá	2	El tablón	3	Marzo	2023-03-25T00:00:00	2024-11-06T03:00:00	8	Radiación solar	0
144409	7	Sololá	701	Sololá	2	El tablón	3	Marzo	2023-03-25T00:00:00	2024-11-06T04:00:00	2	Temperatura media	11.5
144410	7	Sololá	701	Sololá	2	El tablón	3	Marzo	2023-03-25T00:00:00	2024-11-06T04:00:00	4	Temperatura máxima	12.1
144411	7	Sololá	701	Sololá	2	El tablón	3	Marzo	2023-03-25T00:00:00	2024-11-06T04:00:00	3	Temperatura mínima	11.5
144412	7	Sololá	701	Sololá	2	El tablón	3	Marzo	2023-03-25T00:00:00	2024-11-06T04:00:00	5	Humedad	89
144413	7	Sololá	701	Sololá	2	El tablón	3	Marzo	2023-03-25T00:00:00	2024-11-06T04:00:00	6	Velocidad del viento	1.6
144414	7	Sololá	701	Sololá	2	El tablón	3	Marzo	2023-03-25T00:00:00	2024-11-06T04:00:00	7	Dirección del viento	1.61
144415	7	Sololá	701	Sololá	2	El tablón	3	Marzo	2023-03-25T00:00:00	2024-11-06T04:00:00	1	Precipitación	0
144416	7	Sololá	701	Sololá	2	El tablón	3	Marzo	2023-03-25T00:00:00	2024-11-06T04:00:00	8	Radiación solar	0
144417	7	Sololá	701	Sololá	2	El tablón	3	Marzo	2023-03-25T00:00:00	2024-11-06T05:00:00	2	Temperatura media	11.4
144418	7	Sololá	701	Sololá	2	El tablón	3	Marzo	2023-03-25T00:00:00	2024-11-06T05:00:00	4	Temperatura máxima	11.7
144419	7	Sololá	701	Sololá	2	El tablón	3	Marzo	2023-03-25T00:00:00	2024-11-06T05:00:00	3	Temperatura mínima	11.4
144420	7	Sololá	701	Sololá	2	El tablón	3	Marzo	2023-03-25T00:00:00	2024-11-06T05:00:00	5	Humedad	89
144421	7	Sololá	701	Sololá	2	El tablón	3	Marzo	2023-03-25T00:00:00	2024-11-06T05:00:00	6	Velocidad del viento	1.6
144422	7	Sololá	701	Sololá	2	El tablón	3	Marzo	2023-03-25T00:00:00	2024-11-06T05:00:00	7	Dirección del viento	1.61
144423	7	Sololá	701	Sololá	2	El tablón	3	Marzo	2023-03-25T00:00:00	2024-11-06T05:00:00	1	Precipitación	0
144424	7	Sololá	701	Sololá	2	El tablón	3	Marzo	2023-03-25T00:00:00	2024-11-06T05:00:00	8	Radiación solar	0
144425	7	Sololá	701	Sololá	2	El tablón	3	Marzo	2023-03-25T00:00:00	2024-11-06T06:00:00	2	Temperatura media	11.3
144426	7	Sololá	701	Sololá	2	El tablón	3	Marzo	2023-03-25T00:00:00	2024-11-06T06:00:00	4	Temperatura máxima	11.4
144427	7	Sololá	701	Sololá	2	El tablón	3	Marzo	2023-03-25T00:00:00	2024-11-06T06:00:00	3	Temperatura mínima	11.3
144428	7	Sololá	701	Sololá	2	El tablón	3	Marzo	2023-03-25T00:00:00	2024-11-06T06:00:00	5	Humedad	89
144429	7	Sololá	701	Sololá	2	El tablón	3	Marzo	2023-03-25T00:00:00	2024-11-06T06:00:00	6	Velocidad del viento	1.6
144430	7	Sololá	701	Sololá	2	El tablón	3	Marzo	2023-03-25T00:00:00	2024-11-06T06:00:00	7	Dirección del viento	1.61
144431	7	Sololá	701	Sololá	2	El tablón	3	Marzo	2023-03-25T00:00:00	2024-11-06T06:00:00	1	Precipitación	0
144432	7	Sololá	701	Sololá	2	El tablón	3	Marzo	2023-03-25T00:00:00	2024-11-06T06:00:00	8	Radiación solar	0
144433	7	Sololá	701	Sololá	2	El tablón	3	Marzo	2023-03-25T00:00:00	2024-11-06T07:00:00	2	Temperatura media	11.4
144434	7	Sololá	701	Sololá	2	El tablón	3	Marzo	2023-03-25T00:00:00	2024-11-06T07:00:00	4	Temperatura máxima	11.4
144435	7	Sololá	701	Sololá	2	El tablón	3	Marzo	2023-03-25T00:00:00	2024-11-06T07:00:00	3	Temperatura mínima	11.2
144436	7	Sololá	701	Sololá	2	El tablón	3	Marzo	2023-03-25T00:00:00	2024-11-06T07:00:00	5	Humedad	89
144437	7	Sololá	701	Sololá	2	El tablón	3	Marzo	2023-03-25T00:00:00	2024-11-06T07:00:00	6	Velocidad del viento	1.6
144438	7	Sololá	701	Sololá	2	El tablón	3	Marzo	2023-03-25T00:00:00	2024-11-06T07:00:00	7	Dirección del viento	1.61
144439	7	Sololá	701	Sololá	2	El tablón	3	Marzo	2023-03-25T00:00:00	2024-11-06T07:00:00	1	Precipitación	0
144440	7	Sololá	701	Sololá	2	El tablón	3	Marzo	2023-03-25T00:00:00	2024-11-06T07:00:00	8	Radiación solar	13
144441	7	Sololá	701	Sololá	2	El tablón	3	Marzo	2023-03-25T00:00:00	2024-11-06T08:00:00	2	Temperatura media	12.5
144442	7	Sololá	701	Sololá	2	El tablón	3	Marzo	2023-03-25T00:00:00	2024-11-06T08:00:00	4	Temperatura máxima	12.5
144443	7	Sololá	701	Sololá	2	El tablón	3	Marzo	2023-03-25T00:00:00	2024-11-06T08:00:00	3	Temperatura mínima	11.4
144444	7	Sololá	701	Sololá	2	El tablón	3	Marzo	2023-03-25T00:00:00	2024-11-06T08:00:00	5	Humedad	89
144445	7	Sololá	701	Sololá	2	El tablón	3	Marzo	2023-03-25T00:00:00	2024-11-06T08:00:00	6	Velocidad del viento	1.6
144446	7	Sololá	701	Sololá	2	El tablón	3	Marzo	2023-03-25T00:00:00	2024-11-06T08:00:00	7	Dirección del viento	1.61
144447	7	Sololá	701	Sololá	2	El tablón	3	Marzo	2023-03-25T00:00:00	2024-11-06T08:00:00	1	Precipitación	0
144448	7	Sololá	701	Sololá	2	El tablón	3	Marzo	2023-03-25T00:00:00	2024-11-06T08:00:00	8	Radiación solar	121
144449	7	Sololá	701	Sololá	2	El tablón	3	Marzo	2023-03-25T00:00:00	2024-11-06T09:00:00	2	Temperatura media	13
144450	7	Sololá	701	Sololá	2	El tablón	3	Marzo	2023-03-25T00:00:00	2024-11-06T09:00:00	4	Temperatura máxima	13.2
144451	7	Sololá	701	Sololá	2	El tablón	3	Marzo	2023-03-25T00:00:00	2024-11-06T09:00:00	3	Temperatura mínima	12.5
144452	7	Sololá	701	Sololá	2	El tablón	3	Marzo	2023-03-25T00:00:00	2024-11-06T09:00:00	5	Humedad	89
144453	7	Sololá	701	Sololá	2	El tablón	3	Marzo	2023-03-25T00:00:00	2024-11-06T09:00:00	6	Velocidad del viento	4.8
144454	7	Sololá	701	Sololá	2	El tablón	3	Marzo	2023-03-25T00:00:00	2024-11-06T09:00:00	7	Dirección del viento	4.83
144455	7	Sololá	701	Sololá	2	El tablón	3	Marzo	2023-03-25T00:00:00	2024-11-06T09:00:00	1	Precipitación	0
144456	7	Sololá	701	Sololá	2	El tablón	3	Marzo	2023-03-25T00:00:00	2024-11-06T09:00:00	8	Radiación solar	195
144457	7	Sololá	701	Sololá	2	El tablón	3	Marzo	2023-03-25T00:00:00	2024-11-06T10:00:00	2	Temperatura media	13.9
144458	7	Sololá	701	Sololá	2	El tablón	3	Marzo	2023-03-25T00:00:00	2024-11-06T10:00:00	4	Temperatura máxima	14.3
144459	7	Sololá	701	Sololá	2	El tablón	3	Marzo	2023-03-25T00:00:00	2024-11-06T10:00:00	3	Temperatura mínima	13
144460	7	Sololá	701	Sololá	2	El tablón	3	Marzo	2023-03-25T00:00:00	2024-11-06T10:00:00	5	Humedad	86
144461	7	Sololá	701	Sololá	2	El tablón	3	Marzo	2023-03-25T00:00:00	2024-11-06T10:00:00	6	Velocidad del viento	4.8
144462	7	Sololá	701	Sololá	2	El tablón	3	Marzo	2023-03-25T00:00:00	2024-11-06T10:00:00	7	Dirección del viento	4.83
144463	7	Sololá	701	Sololá	2	El tablón	3	Marzo	2023-03-25T00:00:00	2024-11-06T10:00:00	1	Precipitación	0
144464	7	Sololá	701	Sololá	2	El tablón	3	Marzo	2023-03-25T00:00:00	2024-11-06T10:00:00	8	Radiación solar	322
144465	7	Sololá	701	Sololá	2	El tablón	3	Marzo	2023-03-25T00:00:00	2024-11-06T11:00:00	2	Temperatura media	16.3
144466	7	Sololá	701	Sololá	2	El tablón	3	Marzo	2023-03-25T00:00:00	2024-11-06T11:00:00	4	Temperatura máxima	16.4
144467	7	Sololá	701	Sololá	2	El tablón	3	Marzo	2023-03-25T00:00:00	2024-11-06T11:00:00	3	Temperatura mínima	13.8
144468	7	Sololá	701	Sololá	2	El tablón	3	Marzo	2023-03-25T00:00:00	2024-11-06T11:00:00	5	Humedad	79
144469	7	Sololá	701	Sololá	2	El tablón	3	Marzo	2023-03-25T00:00:00	2024-11-06T11:00:00	6	Velocidad del viento	6.4
144470	7	Sololá	701	Sololá	2	El tablón	3	Marzo	2023-03-25T00:00:00	2024-11-06T11:00:00	7	Dirección del viento	6.44
144471	7	Sololá	701	Sololá	2	El tablón	3	Marzo	2023-03-25T00:00:00	2024-11-06T11:00:00	1	Precipitación	0
144472	7	Sololá	701	Sololá	2	El tablón	3	Marzo	2023-03-25T00:00:00	2024-11-06T11:00:00	8	Radiación solar	761
144473	7	Sololá	701	Sololá	2	El tablón	3	Marzo	2023-03-25T00:00:00	2024-11-06T12:00:00	2	Temperatura media	16.8
144474	7	Sololá	701	Sololá	2	El tablón	3	Marzo	2023-03-25T00:00:00	2024-11-06T12:00:00	4	Temperatura máxima	16.9
144475	7	Sololá	701	Sololá	2	El tablón	3	Marzo	2023-03-25T00:00:00	2024-11-06T12:00:00	3	Temperatura mínima	15.8
144476	7	Sololá	701	Sololá	2	El tablón	3	Marzo	2023-03-25T00:00:00	2024-11-06T12:00:00	5	Humedad	76
144477	7	Sololá	701	Sololá	2	El tablón	3	Marzo	2023-03-25T00:00:00	2024-11-06T12:00:00	6	Velocidad del viento	9.7
144478	7	Sololá	701	Sololá	2	El tablón	3	Marzo	2023-03-25T00:00:00	2024-11-06T12:00:00	7	Dirección del viento	9.66
144479	7	Sololá	701	Sololá	2	El tablón	3	Marzo	2023-03-25T00:00:00	2024-11-06T12:00:00	1	Precipitación	0
144480	7	Sololá	701	Sololá	2	El tablón	3	Marzo	2023-03-25T00:00:00	2024-11-06T12:00:00	8	Radiación solar	971
144481	7	Sololá	701	Sololá	2	El tablón	3	Marzo	2023-03-25T00:00:00	2024-11-06T13:00:00	2	Temperatura media	16.2
144482	7	Sololá	701	Sololá	2	El tablón	3	Marzo	2023-03-25T00:00:00	2024-11-06T13:00:00	4	Temperatura máxima	17.2
144483	7	Sololá	701	Sololá	2	El tablón	3	Marzo	2023-03-25T00:00:00	2024-11-06T13:00:00	3	Temperatura mínima	16.2
144484	7	Sololá	701	Sololá	2	El tablón	3	Marzo	2023-03-25T00:00:00	2024-11-06T13:00:00	5	Humedad	80
144485	7	Sololá	701	Sololá	2	El tablón	3	Marzo	2023-03-25T00:00:00	2024-11-06T13:00:00	6	Velocidad del viento	9.7
144486	7	Sololá	701	Sololá	2	El tablón	3	Marzo	2023-03-25T00:00:00	2024-11-06T13:00:00	7	Dirección del viento	9.66
144487	7	Sololá	701	Sololá	2	El tablón	3	Marzo	2023-03-25T00:00:00	2024-11-06T13:00:00	1	Precipitación	0
144488	7	Sololá	701	Sololá	2	El tablón	3	Marzo	2023-03-25T00:00:00	2024-11-06T13:00:00	8	Radiación solar	831
144489	7	Sololá	701	Sololá	2	El tablón	3	Marzo	2023-03-25T00:00:00	2024-11-06T14:00:00	2	Temperatura media	15.9
144490	7	Sololá	701	Sololá	2	El tablón	3	Marzo	2023-03-25T00:00:00	2024-11-06T14:00:00	4	Temperatura máxima	16.3
144491	7	Sololá	701	Sololá	2	El tablón	3	Marzo	2023-03-25T00:00:00	2024-11-06T14:00:00	3	Temperatura mínima	15.8
144492	7	Sololá	701	Sololá	2	El tablón	3	Marzo	2023-03-25T00:00:00	2024-11-06T14:00:00	5	Humedad	84
144493	7	Sololá	701	Sololá	2	El tablón	3	Marzo	2023-03-25T00:00:00	2024-11-06T14:00:00	6	Velocidad del viento	8
144494	7	Sololá	701	Sololá	2	El tablón	3	Marzo	2023-03-25T00:00:00	2024-11-06T14:00:00	7	Dirección del viento	8.05
144495	7	Sololá	701	Sololá	2	El tablón	3	Marzo	2023-03-25T00:00:00	2024-11-06T14:00:00	1	Precipitación	0
144496	7	Sololá	701	Sololá	2	El tablón	3	Marzo	2023-03-25T00:00:00	2024-11-06T14:00:00	8	Radiación solar	368
144497	7	Sololá	701	Sololá	2	El tablón	3	Marzo	2023-03-25T00:00:00	2024-11-06T15:00:00	2	Temperatura media	14.6
144498	7	Sololá	701	Sololá	2	El tablón	3	Marzo	2023-03-25T00:00:00	2024-11-06T15:00:00	4	Temperatura máxima	16.1
144499	7	Sololá	701	Sololá	2	El tablón	3	Marzo	2023-03-25T00:00:00	2024-11-06T15:00:00	3	Temperatura mínima	14.6
144500	7	Sololá	701	Sololá	2	El tablón	3	Marzo	2023-03-25T00:00:00	2024-11-06T15:00:00	5	Humedad	88
144501	7	Sololá	701	Sololá	2	El tablón	3	Marzo	2023-03-25T00:00:00	2024-11-06T15:00:00	6	Velocidad del viento	9.7
144502	7	Sololá	701	Sololá	2	El tablón	3	Marzo	2023-03-25T00:00:00	2024-11-06T15:00:00	7	Dirección del viento	9.66
144503	7	Sololá	701	Sololá	2	El tablón	3	Marzo	2023-03-25T00:00:00	2024-11-06T15:00:00	1	Precipitación	0
144504	7	Sololá	701	Sololá	2	El tablón	3	Marzo	2023-03-25T00:00:00	2024-11-06T15:00:00	8	Radiación solar	295
144505	7	Sololá	701	Sololá	2	El tablón	3	Marzo	2023-03-25T00:00:00	2024-11-06T16:00:00	2	Temperatura media	14.7
144506	7	Sololá	701	Sololá	2	El tablón	3	Marzo	2023-03-25T00:00:00	2024-11-06T16:00:00	4	Temperatura máxima	14.9
144507	7	Sololá	701	Sololá	2	El tablón	3	Marzo	2023-03-25T00:00:00	2024-11-06T16:00:00	3	Temperatura mínima	14.1
144508	7	Sololá	701	Sololá	2	El tablón	3	Marzo	2023-03-25T00:00:00	2024-11-06T16:00:00	5	Humedad	88
144509	7	Sololá	701	Sololá	2	El tablón	3	Marzo	2023-03-25T00:00:00	2024-11-06T16:00:00	6	Velocidad del viento	8
144510	7	Sololá	701	Sololá	2	El tablón	3	Marzo	2023-03-25T00:00:00	2024-11-06T16:00:00	7	Dirección del viento	8.05
144511	7	Sololá	701	Sololá	2	El tablón	3	Marzo	2023-03-25T00:00:00	2024-11-06T16:00:00	1	Precipitación	0
144512	7	Sololá	701	Sololá	2	El tablón	3	Marzo	2023-03-25T00:00:00	2024-11-06T16:00:00	8	Radiación solar	204
144513	7	Sololá	701	Sololá	2	El tablón	3	Marzo	2023-03-25T00:00:00	2024-11-06T17:00:00	2	Temperatura media	14.2
144514	7	Sololá	701	Sololá	2	El tablón	3	Marzo	2023-03-25T00:00:00	2024-11-06T17:00:00	4	Temperatura máxima	14.8
144515	7	Sololá	701	Sololá	2	El tablón	3	Marzo	2023-03-25T00:00:00	2024-11-06T17:00:00	3	Temperatura mínima	14.2
144516	7	Sololá	701	Sololá	2	El tablón	3	Marzo	2023-03-25T00:00:00	2024-11-06T17:00:00	5	Humedad	89
144517	7	Sololá	701	Sololá	2	El tablón	3	Marzo	2023-03-25T00:00:00	2024-11-06T17:00:00	6	Velocidad del viento	4.8
144518	7	Sololá	701	Sololá	2	El tablón	3	Marzo	2023-03-25T00:00:00	2024-11-06T17:00:00	7	Dirección del viento	4.83
144519	7	Sololá	701	Sololá	2	El tablón	3	Marzo	2023-03-25T00:00:00	2024-11-06T17:00:00	1	Precipitación	0
144520	7	Sololá	701	Sololá	2	El tablón	3	Marzo	2023-03-25T00:00:00	2024-11-06T17:00:00	8	Radiación solar	92
144521	7	Sololá	701	Sololá	2	El tablón	3	Marzo	2023-03-25T00:00:00	2024-11-06T18:00:00	2	Temperatura media	14.2
144522	7	Sololá	701	Sololá	2	El tablón	3	Marzo	2023-03-25T00:00:00	2024-11-06T18:00:00	4	Temperatura máxima	14.6
144523	7	Sololá	701	Sololá	2	El tablón	3	Marzo	2023-03-25T00:00:00	2024-11-06T18:00:00	3	Temperatura mínima	14.2
144524	7	Sololá	701	Sololá	2	El tablón	3	Marzo	2023-03-25T00:00:00	2024-11-06T18:00:00	5	Humedad	88
144525	7	Sololá	701	Sololá	2	El tablón	3	Marzo	2023-03-25T00:00:00	2024-11-06T18:00:00	6	Velocidad del viento	3.2
144526	7	Sololá	701	Sololá	2	El tablón	3	Marzo	2023-03-25T00:00:00	2024-11-06T18:00:00	7	Dirección del viento	3.22
144527	7	Sololá	701	Sololá	2	El tablón	3	Marzo	2023-03-25T00:00:00	2024-11-06T18:00:00	1	Precipitación	0
144528	7	Sololá	701	Sololá	2	El tablón	3	Marzo	2023-03-25T00:00:00	2024-11-06T18:00:00	8	Radiación solar	64
144529	7	Sololá	701	Sololá	2	El tablón	3	Marzo	2023-03-25T00:00:00	2024-11-06T19:00:00	2	Temperatura media	13.3
144530	7	Sololá	701	Sololá	2	El tablón	3	Marzo	2023-03-25T00:00:00	2024-11-06T19:00:00	4	Temperatura máxima	14.2
144531	7	Sololá	701	Sololá	2	El tablón	3	Marzo	2023-03-25T00:00:00	2024-11-06T19:00:00	3	Temperatura mínima	13.3
144532	7	Sololá	701	Sololá	2	El tablón	3	Marzo	2023-03-25T00:00:00	2024-11-06T19:00:00	5	Humedad	89
144533	7	Sololá	701	Sololá	2	El tablón	3	Marzo	2023-03-25T00:00:00	2024-11-06T19:00:00	6	Velocidad del viento	0
144534	7	Sololá	701	Sololá	2	El tablón	3	Marzo	2023-03-25T00:00:00	2024-11-06T19:00:00	7	Dirección del viento	0
144535	7	Sololá	701	Sololá	2	El tablón	3	Marzo	2023-03-25T00:00:00	2024-11-06T19:00:00	1	Precipitación	0
144536	7	Sololá	701	Sololá	2	El tablón	3	Marzo	2023-03-25T00:00:00	2024-11-06T19:00:00	8	Radiación solar	0
144537	7	Sololá	701	Sololá	2	El tablón	3	Marzo	2023-03-25T00:00:00	2024-11-06T20:00:00	2	Temperatura media	12.6
144538	7	Sololá	701	Sololá	2	El tablón	3	Marzo	2023-03-25T00:00:00	2024-11-06T20:00:00	4	Temperatura máxima	13.3
144539	7	Sololá	701	Sololá	2	El tablón	3	Marzo	2023-03-25T00:00:00	2024-11-06T20:00:00	3	Temperatura mínima	12.6
144540	7	Sololá	701	Sololá	2	El tablón	3	Marzo	2023-03-25T00:00:00	2024-11-06T20:00:00	5	Humedad	89
144541	7	Sololá	701	Sololá	2	El tablón	3	Marzo	2023-03-25T00:00:00	2024-11-06T20:00:00	6	Velocidad del viento	0
144542	7	Sololá	701	Sololá	2	El tablón	3	Marzo	2023-03-25T00:00:00	2024-11-06T20:00:00	7	Dirección del viento	0
144543	7	Sololá	701	Sololá	2	El tablón	3	Marzo	2023-03-25T00:00:00	2024-11-06T20:00:00	1	Precipitación	0
144544	7	Sololá	701	Sololá	2	El tablón	3	Marzo	2023-03-25T00:00:00	2024-11-06T20:00:00	8	Radiación solar	0
144545	7	Sololá	701	Sololá	2	El tablón	3	Marzo	2023-03-25T00:00:00	2024-11-06T21:00:00	2	Temperatura media	11.7
144546	7	Sololá	701	Sololá	2	El tablón	3	Marzo	2023-03-25T00:00:00	2024-11-06T21:00:00	4	Temperatura máxima	12.6
144547	7	Sololá	701	Sololá	2	El tablón	3	Marzo	2023-03-25T00:00:00	2024-11-06T21:00:00	3	Temperatura mínima	11.7
144548	7	Sololá	701	Sololá	2	El tablón	3	Marzo	2023-03-25T00:00:00	2024-11-06T21:00:00	5	Humedad	89
144549	7	Sololá	701	Sololá	2	El tablón	3	Marzo	2023-03-25T00:00:00	2024-11-06T21:00:00	6	Velocidad del viento	1.6
144550	7	Sololá	701	Sololá	2	El tablón	3	Marzo	2023-03-25T00:00:00	2024-11-06T21:00:00	7	Dirección del viento	1.61
144551	7	Sololá	701	Sololá	2	El tablón	3	Marzo	2023-03-25T00:00:00	2024-11-06T21:00:00	1	Precipitación	0
144552	7	Sololá	701	Sololá	2	El tablón	3	Marzo	2023-03-25T00:00:00	2024-11-06T21:00:00	8	Radiación solar	0
144553	7	Sololá	701	Sololá	2	El tablón	3	Marzo	2023-03-25T00:00:00	2024-11-06T22:00:00	2	Temperatura media	11.7
144554	7	Sololá	701	Sololá	2	El tablón	3	Marzo	2023-03-25T00:00:00	2024-11-06T22:00:00	4	Temperatura máxima	11.7
144555	7	Sololá	701	Sololá	2	El tablón	3	Marzo	2023-03-25T00:00:00	2024-11-06T22:00:00	3	Temperatura mínima	11.4
144556	7	Sololá	701	Sololá	2	El tablón	3	Marzo	2023-03-25T00:00:00	2024-11-06T22:00:00	5	Humedad	89
144557	7	Sololá	701	Sololá	2	El tablón	3	Marzo	2023-03-25T00:00:00	2024-11-06T22:00:00	6	Velocidad del viento	3.2
144558	7	Sololá	701	Sololá	2	El tablón	3	Marzo	2023-03-25T00:00:00	2024-11-06T22:00:00	7	Dirección del viento	3.22
144559	7	Sololá	701	Sololá	2	El tablón	3	Marzo	2023-03-25T00:00:00	2024-11-06T22:00:00	1	Precipitación	0
144560	7	Sololá	701	Sololá	2	El tablón	3	Marzo	2023-03-25T00:00:00	2024-11-06T22:00:00	8	Radiación solar	0
144561	7	Sololá	701	Sololá	2	El tablón	3	Marzo	2023-03-25T00:00:00	2024-11-06T23:00:00	2	Temperatura media	11.9
144562	7	Sololá	701	Sololá	2	El tablón	3	Marzo	2023-03-25T00:00:00	2024-11-06T23:00:00	4	Temperatura máxima	12
144563	7	Sololá	701	Sololá	2	El tablón	3	Marzo	2023-03-25T00:00:00	2024-11-06T23:00:00	3	Temperatura mínima	11.6
144564	7	Sololá	701	Sololá	2	El tablón	3	Marzo	2023-03-25T00:00:00	2024-11-06T23:00:00	5	Humedad	89
144565	7	Sololá	701	Sololá	2	El tablón	3	Marzo	2023-03-25T00:00:00	2024-11-06T23:00:00	6	Velocidad del viento	1.6
144566	7	Sololá	701	Sololá	2	El tablón	3	Marzo	2023-03-25T00:00:00	2024-11-06T23:00:00	7	Dirección del viento	1.61
144567	7	Sololá	701	Sololá	2	El tablón	3	Marzo	2023-03-25T00:00:00	2024-11-06T23:00:00	1	Precipitación	0
144568	7	Sololá	701	Sololá	2	El tablón	3	Marzo	2023-03-25T00:00:00	2024-11-06T23:00:00	8	Radiación solar	0
144569	7	Sololá	701	Sololá	2	El tablón	3	Marzo	2023-03-26T00:00:00	2024-11-06T00:00:00	2	Temperatura media	12.2
144570	7	Sololá	701	Sololá	2	El tablón	3	Marzo	2023-03-26T00:00:00	2024-11-06T00:00:00	4	Temperatura máxima	12.4
144571	7	Sololá	701	Sololá	2	El tablón	3	Marzo	2023-03-26T00:00:00	2024-11-06T00:00:00	3	Temperatura mínima	11.9
144572	7	Sololá	701	Sololá	2	El tablón	3	Marzo	2023-03-26T00:00:00	2024-11-06T00:00:00	5	Humedad	89
144573	7	Sololá	701	Sololá	2	El tablón	3	Marzo	2023-03-26T00:00:00	2024-11-06T00:00:00	6	Velocidad del viento	0
144574	7	Sololá	701	Sololá	2	El tablón	3	Marzo	2023-03-26T00:00:00	2024-11-06T00:00:00	7	Dirección del viento	0
144575	7	Sololá	701	Sololá	2	El tablón	3	Marzo	2023-03-26T00:00:00	2024-11-06T00:00:00	1	Precipitación	0
144576	7	Sololá	701	Sololá	2	El tablón	3	Marzo	2023-03-26T00:00:00	2024-11-06T00:00:00	8	Radiación solar	0
144577	7	Sololá	701	Sololá	2	El tablón	3	Marzo	2023-03-26T00:00:00	2024-11-06T01:00:00	2	Temperatura media	11.7
144578	7	Sololá	701	Sololá	2	El tablón	3	Marzo	2023-03-26T00:00:00	2024-11-06T01:00:00	4	Temperatura máxima	12.2
144579	7	Sololá	701	Sololá	2	El tablón	3	Marzo	2023-03-26T00:00:00	2024-11-06T01:00:00	3	Temperatura mínima	11.7
144580	7	Sololá	701	Sololá	2	El tablón	3	Marzo	2023-03-26T00:00:00	2024-11-06T01:00:00	5	Humedad	89
144581	7	Sololá	701	Sololá	2	El tablón	3	Marzo	2023-03-26T00:00:00	2024-11-06T01:00:00	6	Velocidad del viento	0
144582	7	Sololá	701	Sololá	2	El tablón	3	Marzo	2023-03-26T00:00:00	2024-11-06T01:00:00	7	Dirección del viento	0
144583	7	Sololá	701	Sololá	2	El tablón	3	Marzo	2023-03-26T00:00:00	2024-11-06T01:00:00	1	Precipitación	0
144584	7	Sololá	701	Sololá	2	El tablón	3	Marzo	2023-03-26T00:00:00	2024-11-06T01:00:00	8	Radiación solar	0
144585	7	Sololá	701	Sololá	2	El tablón	3	Marzo	2023-03-26T00:00:00	2024-11-06T02:00:00	2	Temperatura media	11.5
144586	7	Sololá	701	Sololá	2	El tablón	3	Marzo	2023-03-26T00:00:00	2024-11-06T02:00:00	4	Temperatura máxima	11.8
144587	7	Sololá	701	Sololá	2	El tablón	3	Marzo	2023-03-26T00:00:00	2024-11-06T02:00:00	3	Temperatura mínima	11.3
144588	7	Sololá	701	Sololá	2	El tablón	3	Marzo	2023-03-26T00:00:00	2024-11-06T02:00:00	5	Humedad	89
144589	7	Sololá	701	Sololá	2	El tablón	3	Marzo	2023-03-26T00:00:00	2024-11-06T02:00:00	6	Velocidad del viento	0
144590	7	Sololá	701	Sololá	2	El tablón	3	Marzo	2023-03-26T00:00:00	2024-11-06T02:00:00	7	Dirección del viento	0
144591	7	Sololá	701	Sololá	2	El tablón	3	Marzo	2023-03-26T00:00:00	2024-11-06T02:00:00	1	Precipitación	0
144592	7	Sololá	701	Sololá	2	El tablón	3	Marzo	2023-03-26T00:00:00	2024-11-06T02:00:00	8	Radiación solar	0
144593	7	Sololá	701	Sololá	2	El tablón	3	Marzo	2023-03-26T00:00:00	2024-11-06T03:00:00	2	Temperatura media	12.1
144594	7	Sololá	701	Sololá	2	El tablón	3	Marzo	2023-03-26T00:00:00	2024-11-06T03:00:00	4	Temperatura máxima	12.1
144595	7	Sololá	701	Sololá	2	El tablón	3	Marzo	2023-03-26T00:00:00	2024-11-06T03:00:00	3	Temperatura mínima	11.6
144596	7	Sololá	701	Sololá	2	El tablón	3	Marzo	2023-03-26T00:00:00	2024-11-06T03:00:00	5	Humedad	89
144597	7	Sololá	701	Sololá	2	El tablón	3	Marzo	2023-03-26T00:00:00	2024-11-06T03:00:00	6	Velocidad del viento	0
144598	7	Sololá	701	Sololá	2	El tablón	3	Marzo	2023-03-26T00:00:00	2024-11-06T03:00:00	7	Dirección del viento	0
144599	7	Sololá	701	Sololá	2	El tablón	3	Marzo	2023-03-26T00:00:00	2024-11-06T03:00:00	1	Precipitación	0
144600	7	Sololá	701	Sololá	2	El tablón	3	Marzo	2023-03-26T00:00:00	2024-11-06T03:00:00	8	Radiación solar	0
144601	7	Sololá	701	Sololá	2	El tablón	3	Marzo	2023-03-26T00:00:00	2024-11-06T04:00:00	2	Temperatura media	11.9
144602	7	Sololá	701	Sololá	2	El tablón	3	Marzo	2023-03-26T00:00:00	2024-11-06T04:00:00	4	Temperatura máxima	12.1
144603	7	Sololá	701	Sololá	2	El tablón	3	Marzo	2023-03-26T00:00:00	2024-11-06T04:00:00	3	Temperatura mínima	11.9
144604	7	Sololá	701	Sololá	2	El tablón	3	Marzo	2023-03-26T00:00:00	2024-11-06T04:00:00	5	Humedad	88
144605	7	Sololá	701	Sololá	2	El tablón	3	Marzo	2023-03-26T00:00:00	2024-11-06T04:00:00	6	Velocidad del viento	1.6
144606	7	Sololá	701	Sololá	2	El tablón	3	Marzo	2023-03-26T00:00:00	2024-11-06T04:00:00	7	Dirección del viento	1.61
144607	7	Sololá	701	Sololá	2	El tablón	3	Marzo	2023-03-26T00:00:00	2024-11-06T04:00:00	1	Precipitación	0
144608	7	Sololá	701	Sololá	2	El tablón	3	Marzo	2023-03-26T00:00:00	2024-11-06T04:00:00	8	Radiación solar	0
144609	7	Sololá	701	Sololá	2	El tablón	3	Marzo	2023-03-26T00:00:00	2024-11-06T05:00:00	2	Temperatura media	11.2
144610	7	Sololá	701	Sololá	2	El tablón	3	Marzo	2023-03-26T00:00:00	2024-11-06T05:00:00	4	Temperatura máxima	12
144611	7	Sololá	701	Sololá	2	El tablón	3	Marzo	2023-03-26T00:00:00	2024-11-06T05:00:00	3	Temperatura mínima	11.2
144612	7	Sololá	701	Sololá	2	El tablón	3	Marzo	2023-03-26T00:00:00	2024-11-06T05:00:00	5	Humedad	88
144613	7	Sololá	701	Sololá	2	El tablón	3	Marzo	2023-03-26T00:00:00	2024-11-06T05:00:00	6	Velocidad del viento	3.2
144614	7	Sololá	701	Sololá	2	El tablón	3	Marzo	2023-03-26T00:00:00	2024-11-06T05:00:00	7	Dirección del viento	3.22
144615	7	Sololá	701	Sololá	2	El tablón	3	Marzo	2023-03-26T00:00:00	2024-11-06T05:00:00	1	Precipitación	0
144616	7	Sololá	701	Sololá	2	El tablón	3	Marzo	2023-03-26T00:00:00	2024-11-06T05:00:00	8	Radiación solar	0
144617	7	Sololá	701	Sololá	2	El tablón	3	Marzo	2023-03-26T00:00:00	2024-11-06T06:00:00	2	Temperatura media	10.8
144618	7	Sololá	701	Sololá	2	El tablón	3	Marzo	2023-03-26T00:00:00	2024-11-06T06:00:00	4	Temperatura máxima	11.2
144619	7	Sololá	701	Sololá	2	El tablón	3	Marzo	2023-03-26T00:00:00	2024-11-06T06:00:00	3	Temperatura mínima	10.8
144620	7	Sololá	701	Sololá	2	El tablón	3	Marzo	2023-03-26T00:00:00	2024-11-06T06:00:00	5	Humedad	88
144621	7	Sololá	701	Sololá	2	El tablón	3	Marzo	2023-03-26T00:00:00	2024-11-06T06:00:00	6	Velocidad del viento	3.2
144622	7	Sololá	701	Sololá	2	El tablón	3	Marzo	2023-03-26T00:00:00	2024-11-06T06:00:00	7	Dirección del viento	3.22
144623	7	Sololá	701	Sololá	2	El tablón	3	Marzo	2023-03-26T00:00:00	2024-11-06T06:00:00	1	Precipitación	0
144624	7	Sololá	701	Sololá	2	El tablón	3	Marzo	2023-03-26T00:00:00	2024-11-06T06:00:00	8	Radiación solar	0
144625	7	Sololá	701	Sololá	2	El tablón	3	Marzo	2023-03-26T00:00:00	2024-11-06T07:00:00	2	Temperatura media	10.4
144626	7	Sololá	701	Sololá	2	El tablón	3	Marzo	2023-03-26T00:00:00	2024-11-06T07:00:00	4	Temperatura máxima	10.8
144627	7	Sololá	701	Sololá	2	El tablón	3	Marzo	2023-03-26T00:00:00	2024-11-06T07:00:00	3	Temperatura mínima	10.3
144628	7	Sololá	701	Sololá	2	El tablón	3	Marzo	2023-03-26T00:00:00	2024-11-06T07:00:00	5	Humedad	88
144629	7	Sololá	701	Sololá	2	El tablón	3	Marzo	2023-03-26T00:00:00	2024-11-06T07:00:00	6	Velocidad del viento	1.6
144630	7	Sololá	701	Sololá	2	El tablón	3	Marzo	2023-03-26T00:00:00	2024-11-06T07:00:00	7	Dirección del viento	1.61
144631	7	Sololá	701	Sololá	2	El tablón	3	Marzo	2023-03-26T00:00:00	2024-11-06T07:00:00	1	Precipitación	0
144632	7	Sololá	701	Sololá	2	El tablón	3	Marzo	2023-03-26T00:00:00	2024-11-06T07:00:00	8	Radiación solar	18
144633	7	Sololá	701	Sololá	2	El tablón	3	Marzo	2023-03-26T00:00:00	2024-11-06T08:00:00	2	Temperatura media	11.4
144634	7	Sololá	701	Sololá	2	El tablón	3	Marzo	2023-03-26T00:00:00	2024-11-06T08:00:00	4	Temperatura máxima	11.4
144635	7	Sololá	701	Sololá	2	El tablón	3	Marzo	2023-03-26T00:00:00	2024-11-06T08:00:00	3	Temperatura mínima	10.4
144636	7	Sololá	701	Sololá	2	El tablón	3	Marzo	2023-03-26T00:00:00	2024-11-06T08:00:00	5	Humedad	89
144637	7	Sololá	701	Sololá	2	El tablón	3	Marzo	2023-03-26T00:00:00	2024-11-06T08:00:00	6	Velocidad del viento	0
144638	7	Sololá	701	Sololá	2	El tablón	3	Marzo	2023-03-26T00:00:00	2024-11-06T08:00:00	7	Dirección del viento	0
144639	7	Sololá	701	Sololá	2	El tablón	3	Marzo	2023-03-26T00:00:00	2024-11-06T08:00:00	1	Precipitación	0
144640	7	Sololá	701	Sololá	2	El tablón	3	Marzo	2023-03-26T00:00:00	2024-11-06T08:00:00	8	Radiación solar	120
144641	7	Sololá	701	Sololá	2	El tablón	3	Marzo	2023-03-26T00:00:00	2024-11-06T09:00:00	2	Temperatura media	13.7
144642	7	Sololá	701	Sololá	2	El tablón	3	Marzo	2023-03-26T00:00:00	2024-11-06T09:00:00	4	Temperatura máxima	13.7
144643	7	Sololá	701	Sololá	2	El tablón	3	Marzo	2023-03-26T00:00:00	2024-11-06T09:00:00	3	Temperatura mínima	11.4
144644	7	Sololá	701	Sololá	2	El tablón	3	Marzo	2023-03-26T00:00:00	2024-11-06T09:00:00	5	Humedad	88
144645	7	Sololá	701	Sololá	2	El tablón	3	Marzo	2023-03-26T00:00:00	2024-11-06T09:00:00	6	Velocidad del viento	1.6
144646	7	Sololá	701	Sololá	2	El tablón	3	Marzo	2023-03-26T00:00:00	2024-11-06T09:00:00	7	Dirección del viento	1.61
144647	7	Sololá	701	Sololá	2	El tablón	3	Marzo	2023-03-26T00:00:00	2024-11-06T09:00:00	1	Precipitación	0
144648	7	Sololá	701	Sololá	2	El tablón	3	Marzo	2023-03-26T00:00:00	2024-11-06T09:00:00	8	Radiación solar	238
144649	7	Sololá	701	Sololá	2	El tablón	3	Marzo	2023-03-26T00:00:00	2024-11-06T10:00:00	2	Temperatura media	15.8
144650	7	Sololá	701	Sololá	2	El tablón	3	Marzo	2023-03-26T00:00:00	2024-11-06T10:00:00	4	Temperatura máxima	15.9
144651	7	Sololá	701	Sololá	2	El tablón	3	Marzo	2023-03-26T00:00:00	2024-11-06T10:00:00	3	Temperatura mínima	13.7
144652	7	Sololá	701	Sololá	2	El tablón	3	Marzo	2023-03-26T00:00:00	2024-11-06T10:00:00	5	Humedad	84
144653	7	Sololá	701	Sololá	2	El tablón	3	Marzo	2023-03-26T00:00:00	2024-11-06T10:00:00	6	Velocidad del viento	4.8
144654	7	Sololá	701	Sololá	2	El tablón	3	Marzo	2023-03-26T00:00:00	2024-11-06T10:00:00	7	Dirección del viento	4.83
144655	7	Sololá	701	Sololá	2	El tablón	3	Marzo	2023-03-26T00:00:00	2024-11-06T10:00:00	1	Precipitación	0
144656	7	Sololá	701	Sololá	2	El tablón	3	Marzo	2023-03-26T00:00:00	2024-11-06T10:00:00	8	Radiación solar	598
144657	7	Sololá	701	Sololá	2	El tablón	3	Marzo	2023-03-26T00:00:00	2024-11-06T11:00:00	2	Temperatura media	15.9
144658	7	Sololá	701	Sololá	2	El tablón	3	Marzo	2023-03-26T00:00:00	2024-11-06T11:00:00	4	Temperatura máxima	16
144659	7	Sololá	701	Sololá	2	El tablón	3	Marzo	2023-03-26T00:00:00	2024-11-06T11:00:00	3	Temperatura mínima	15.4
144660	7	Sololá	701	Sololá	2	El tablón	3	Marzo	2023-03-26T00:00:00	2024-11-06T11:00:00	5	Humedad	82
144661	7	Sololá	701	Sololá	2	El tablón	3	Marzo	2023-03-26T00:00:00	2024-11-06T11:00:00	6	Velocidad del viento	9.7
144662	7	Sololá	701	Sololá	2	El tablón	3	Marzo	2023-03-26T00:00:00	2024-11-06T11:00:00	7	Dirección del viento	9.66
144663	7	Sololá	701	Sololá	2	El tablón	3	Marzo	2023-03-26T00:00:00	2024-11-06T11:00:00	1	Precipitación	0
144664	7	Sololá	701	Sololá	2	El tablón	3	Marzo	2023-03-26T00:00:00	2024-11-06T11:00:00	8	Radiación solar	873
144665	7	Sololá	701	Sololá	2	El tablón	3	Marzo	2023-03-26T00:00:00	2024-11-06T12:00:00	2	Temperatura media	15.8
144666	7	Sololá	701	Sololá	2	El tablón	3	Marzo	2023-03-26T00:00:00	2024-11-06T12:00:00	4	Temperatura máxima	16.3
144667	7	Sololá	701	Sololá	2	El tablón	3	Marzo	2023-03-26T00:00:00	2024-11-06T12:00:00	3	Temperatura mínima	15.7
144668	7	Sololá	701	Sololá	2	El tablón	3	Marzo	2023-03-26T00:00:00	2024-11-06T12:00:00	5	Humedad	84
144669	7	Sololá	701	Sololá	2	El tablón	3	Marzo	2023-03-26T00:00:00	2024-11-06T12:00:00	6	Velocidad del viento	11.3
144670	7	Sololá	701	Sololá	2	El tablón	3	Marzo	2023-03-26T00:00:00	2024-11-06T12:00:00	7	Dirección del viento	11.27
144671	7	Sololá	701	Sololá	2	El tablón	3	Marzo	2023-03-26T00:00:00	2024-11-06T12:00:00	1	Precipitación	0
144672	7	Sololá	701	Sololá	2	El tablón	3	Marzo	2023-03-26T00:00:00	2024-11-06T12:00:00	8	Radiación solar	953
144673	7	Sololá	701	Sololá	2	El tablón	3	Marzo	2023-03-26T00:00:00	2024-11-06T13:00:00	2	Temperatura media	16.7
144674	7	Sololá	701	Sololá	2	El tablón	3	Marzo	2023-03-26T00:00:00	2024-11-06T13:00:00	4	Temperatura máxima	16.8
144675	7	Sololá	701	Sololá	2	El tablón	3	Marzo	2023-03-26T00:00:00	2024-11-06T13:00:00	3	Temperatura mínima	15.8
144676	7	Sololá	701	Sololá	2	El tablón	3	Marzo	2023-03-26T00:00:00	2024-11-06T13:00:00	5	Humedad	81
144677	7	Sololá	701	Sololá	2	El tablón	3	Marzo	2023-03-26T00:00:00	2024-11-06T13:00:00	6	Velocidad del viento	9.7
144678	7	Sololá	701	Sololá	2	El tablón	3	Marzo	2023-03-26T00:00:00	2024-11-06T13:00:00	7	Dirección del viento	9.66
144679	7	Sololá	701	Sololá	2	El tablón	3	Marzo	2023-03-26T00:00:00	2024-11-06T13:00:00	1	Precipitación	0
144680	7	Sololá	701	Sololá	2	El tablón	3	Marzo	2023-03-26T00:00:00	2024-11-06T13:00:00	8	Radiación solar	964
144681	7	Sololá	701	Sololá	2	El tablón	3	Marzo	2023-03-26T00:00:00	2024-11-06T14:00:00	2	Temperatura media	16.8
144682	7	Sololá	701	Sololá	2	El tablón	3	Marzo	2023-03-26T00:00:00	2024-11-06T14:00:00	4	Temperatura máxima	17.4
144683	7	Sololá	701	Sololá	2	El tablón	3	Marzo	2023-03-26T00:00:00	2024-11-06T14:00:00	3	Temperatura mínima	16.4
144684	7	Sololá	701	Sololá	2	El tablón	3	Marzo	2023-03-26T00:00:00	2024-11-06T14:00:00	5	Humedad	83
144685	7	Sololá	701	Sololá	2	El tablón	3	Marzo	2023-03-26T00:00:00	2024-11-06T14:00:00	6	Velocidad del viento	9.7
144686	7	Sololá	701	Sololá	2	El tablón	3	Marzo	2023-03-26T00:00:00	2024-11-06T14:00:00	7	Dirección del viento	9.66
144687	7	Sololá	701	Sololá	2	El tablón	3	Marzo	2023-03-26T00:00:00	2024-11-06T14:00:00	1	Precipitación	0
144688	7	Sololá	701	Sololá	2	El tablón	3	Marzo	2023-03-26T00:00:00	2024-11-06T14:00:00	8	Radiación solar	931
144689	7	Sololá	701	Sololá	2	El tablón	3	Marzo	2023-03-26T00:00:00	2024-11-06T15:00:00	2	Temperatura media	15.3
144690	7	Sololá	701	Sololá	2	El tablón	3	Marzo	2023-03-26T00:00:00	2024-11-06T15:00:00	4	Temperatura máxima	16.8
144691	7	Sololá	701	Sololá	2	El tablón	3	Marzo	2023-03-26T00:00:00	2024-11-06T15:00:00	3	Temperatura mínima	15.3
144692	7	Sololá	701	Sololá	2	El tablón	3	Marzo	2023-03-26T00:00:00	2024-11-06T15:00:00	5	Humedad	87
144693	7	Sololá	701	Sololá	2	El tablón	3	Marzo	2023-03-26T00:00:00	2024-11-06T15:00:00	6	Velocidad del viento	8
144694	7	Sololá	701	Sololá	2	El tablón	3	Marzo	2023-03-26T00:00:00	2024-11-06T15:00:00	7	Dirección del viento	8.05
144695	7	Sololá	701	Sololá	2	El tablón	3	Marzo	2023-03-26T00:00:00	2024-11-06T15:00:00	1	Precipitación	0
144696	7	Sololá	701	Sololá	2	El tablón	3	Marzo	2023-03-26T00:00:00	2024-11-06T15:00:00	8	Radiación solar	325
144697	7	Sololá	701	Sololá	2	El tablón	3	Marzo	2023-03-26T00:00:00	2024-11-06T16:00:00	2	Temperatura media	15.8
144698	7	Sololá	701	Sololá	2	El tablón	3	Marzo	2023-03-26T00:00:00	2024-11-06T16:00:00	4	Temperatura máxima	15.8
144699	7	Sololá	701	Sololá	2	El tablón	3	Marzo	2023-03-26T00:00:00	2024-11-06T16:00:00	3	Temperatura mínima	14.8
144700	7	Sololá	701	Sololá	2	El tablón	3	Marzo	2023-03-26T00:00:00	2024-11-06T16:00:00	5	Humedad	87
144701	7	Sololá	701	Sololá	2	El tablón	3	Marzo	2023-03-26T00:00:00	2024-11-06T16:00:00	6	Velocidad del viento	6.4
144702	7	Sololá	701	Sololá	2	El tablón	3	Marzo	2023-03-26T00:00:00	2024-11-06T16:00:00	7	Dirección del viento	6.44
144703	7	Sololá	701	Sololá	2	El tablón	3	Marzo	2023-03-26T00:00:00	2024-11-06T16:00:00	1	Precipitación	0
144704	7	Sololá	701	Sololá	2	El tablón	3	Marzo	2023-03-26T00:00:00	2024-11-06T16:00:00	8	Radiación solar	318
144705	7	Sololá	701	Sololá	2	El tablón	3	Marzo	2023-03-26T00:00:00	2024-11-06T17:00:00	2	Temperatura media	14.9
144706	7	Sololá	701	Sololá	2	El tablón	3	Marzo	2023-03-26T00:00:00	2024-11-06T17:00:00	4	Temperatura máxima	15.9
144707	7	Sololá	701	Sololá	2	El tablón	3	Marzo	2023-03-26T00:00:00	2024-11-06T17:00:00	3	Temperatura mínima	14.9
144708	7	Sololá	701	Sololá	2	El tablón	3	Marzo	2023-03-26T00:00:00	2024-11-06T17:00:00	5	Humedad	87
144709	7	Sololá	701	Sololá	2	El tablón	3	Marzo	2023-03-26T00:00:00	2024-11-06T17:00:00	6	Velocidad del viento	4.8
144710	7	Sololá	701	Sololá	2	El tablón	3	Marzo	2023-03-26T00:00:00	2024-11-06T17:00:00	7	Dirección del viento	4.83
144711	7	Sololá	701	Sololá	2	El tablón	3	Marzo	2023-03-26T00:00:00	2024-11-06T17:00:00	1	Precipitación	0
144712	7	Sololá	701	Sololá	2	El tablón	3	Marzo	2023-03-26T00:00:00	2024-11-06T17:00:00	8	Radiación solar	234
144713	7	Sololá	701	Sololá	2	El tablón	3	Marzo	2023-03-26T00:00:00	2024-11-06T18:00:00	2	Temperatura media	14.1
144714	7	Sololá	701	Sololá	2	El tablón	3	Marzo	2023-03-26T00:00:00	2024-11-06T18:00:00	4	Temperatura máxima	14.9
144715	7	Sololá	701	Sololá	2	El tablón	3	Marzo	2023-03-26T00:00:00	2024-11-06T18:00:00	3	Temperatura mínima	14.1
144716	7	Sololá	701	Sololá	2	El tablón	3	Marzo	2023-03-26T00:00:00	2024-11-06T18:00:00	5	Humedad	89
144717	7	Sololá	701	Sololá	2	El tablón	3	Marzo	2023-03-26T00:00:00	2024-11-06T18:00:00	6	Velocidad del viento	3.2
144718	7	Sololá	701	Sololá	2	El tablón	3	Marzo	2023-03-26T00:00:00	2024-11-06T18:00:00	7	Dirección del viento	3.22
144719	7	Sololá	701	Sololá	2	El tablón	3	Marzo	2023-03-26T00:00:00	2024-11-06T18:00:00	1	Precipitación	0
144720	7	Sololá	701	Sololá	2	El tablón	3	Marzo	2023-03-26T00:00:00	2024-11-06T18:00:00	8	Radiación solar	79
144721	7	Sololá	701	Sololá	2	El tablón	3	Marzo	2023-03-26T00:00:00	2024-11-06T19:00:00	2	Temperatura media	13.3
144722	7	Sololá	701	Sololá	2	El tablón	3	Marzo	2023-03-26T00:00:00	2024-11-06T19:00:00	4	Temperatura máxima	14.1
144723	7	Sololá	701	Sololá	2	El tablón	3	Marzo	2023-03-26T00:00:00	2024-11-06T19:00:00	3	Temperatura mínima	13.3
144724	7	Sololá	701	Sololá	2	El tablón	3	Marzo	2023-03-26T00:00:00	2024-11-06T19:00:00	5	Humedad	89
144725	7	Sololá	701	Sololá	2	El tablón	3	Marzo	2023-03-26T00:00:00	2024-11-06T19:00:00	6	Velocidad del viento	1.6
144726	7	Sololá	701	Sololá	2	El tablón	3	Marzo	2023-03-26T00:00:00	2024-11-06T19:00:00	7	Dirección del viento	1.61
144727	7	Sololá	701	Sololá	2	El tablón	3	Marzo	2023-03-26T00:00:00	2024-11-06T19:00:00	1	Precipitación	0
144728	7	Sololá	701	Sololá	2	El tablón	3	Marzo	2023-03-26T00:00:00	2024-11-06T19:00:00	8	Radiación solar	0
144729	7	Sololá	701	Sololá	2	El tablón	3	Marzo	2023-03-26T00:00:00	2024-11-06T20:00:00	2	Temperatura media	12.3
144730	7	Sololá	701	Sololá	2	El tablón	3	Marzo	2023-03-26T00:00:00	2024-11-06T20:00:00	4	Temperatura máxima	13.4
144731	7	Sololá	701	Sololá	2	El tablón	3	Marzo	2023-03-26T00:00:00	2024-11-06T20:00:00	3	Temperatura mínima	12.3
144732	7	Sololá	701	Sololá	2	El tablón	3	Marzo	2023-03-26T00:00:00	2024-11-06T20:00:00	5	Humedad	89
144733	7	Sololá	701	Sololá	2	El tablón	3	Marzo	2023-03-26T00:00:00	2024-11-06T20:00:00	6	Velocidad del viento	1.6
144734	7	Sololá	701	Sololá	2	El tablón	3	Marzo	2023-03-26T00:00:00	2024-11-06T20:00:00	7	Dirección del viento	1.61
144735	7	Sololá	701	Sololá	2	El tablón	3	Marzo	2023-03-26T00:00:00	2024-11-06T20:00:00	1	Precipitación	0
144736	7	Sololá	701	Sololá	2	El tablón	3	Marzo	2023-03-26T00:00:00	2024-11-06T20:00:00	8	Radiación solar	0
144737	7	Sololá	701	Sololá	2	El tablón	3	Marzo	2023-03-26T00:00:00	2024-11-06T21:00:00	2	Temperatura media	11.6
144738	7	Sololá	701	Sololá	2	El tablón	3	Marzo	2023-03-26T00:00:00	2024-11-06T21:00:00	4	Temperatura máxima	12.3
144739	7	Sololá	701	Sololá	2	El tablón	3	Marzo	2023-03-26T00:00:00	2024-11-06T21:00:00	3	Temperatura mínima	11.6
144740	7	Sololá	701	Sololá	2	El tablón	3	Marzo	2023-03-26T00:00:00	2024-11-06T21:00:00	5	Humedad	89
144741	7	Sololá	701	Sololá	2	El tablón	3	Marzo	2023-03-26T00:00:00	2024-11-06T21:00:00	6	Velocidad del viento	1.6
144742	7	Sololá	701	Sololá	2	El tablón	3	Marzo	2023-03-26T00:00:00	2024-11-06T21:00:00	7	Dirección del viento	1.61
144743	7	Sololá	701	Sololá	2	El tablón	3	Marzo	2023-03-26T00:00:00	2024-11-06T21:00:00	1	Precipitación	0
144744	7	Sololá	701	Sololá	2	El tablón	3	Marzo	2023-03-26T00:00:00	2024-11-06T21:00:00	8	Radiación solar	0
144745	7	Sololá	701	Sololá	2	El tablón	3	Marzo	2023-03-26T00:00:00	2024-11-06T22:00:00	2	Temperatura media	12.8
144746	7	Sololá	701	Sololá	2	El tablón	3	Marzo	2023-03-26T00:00:00	2024-11-06T22:00:00	4	Temperatura máxima	13.1
144747	7	Sololá	701	Sololá	2	El tablón	3	Marzo	2023-03-26T00:00:00	2024-11-06T22:00:00	3	Temperatura mínima	11.5
144748	7	Sololá	701	Sololá	2	El tablón	3	Marzo	2023-03-26T00:00:00	2024-11-06T22:00:00	5	Humedad	84
144749	7	Sololá	701	Sololá	2	El tablón	3	Marzo	2023-03-26T00:00:00	2024-11-06T22:00:00	6	Velocidad del viento	1.6
144750	7	Sololá	701	Sololá	2	El tablón	3	Marzo	2023-03-26T00:00:00	2024-11-06T22:00:00	7	Dirección del viento	1.61
144751	7	Sololá	701	Sololá	2	El tablón	3	Marzo	2023-03-26T00:00:00	2024-11-06T22:00:00	1	Precipitación	0
144752	7	Sololá	701	Sololá	2	El tablón	3	Marzo	2023-03-26T00:00:00	2024-11-06T22:00:00	8	Radiación solar	0
144753	7	Sololá	701	Sololá	2	El tablón	3	Marzo	2023-03-26T00:00:00	2024-11-06T23:00:00	2	Temperatura media	12.4
144754	7	Sololá	701	Sololá	2	El tablón	3	Marzo	2023-03-26T00:00:00	2024-11-06T23:00:00	4	Temperatura máxima	12.8
144755	7	Sololá	701	Sololá	2	El tablón	3	Marzo	2023-03-26T00:00:00	2024-11-06T23:00:00	3	Temperatura mínima	12.2
144756	7	Sololá	701	Sololá	2	El tablón	3	Marzo	2023-03-26T00:00:00	2024-11-06T23:00:00	5	Humedad	86
144757	7	Sololá	701	Sololá	2	El tablón	3	Marzo	2023-03-26T00:00:00	2024-11-06T23:00:00	6	Velocidad del viento	1.6
144758	7	Sololá	701	Sololá	2	El tablón	3	Marzo	2023-03-26T00:00:00	2024-11-06T23:00:00	7	Dirección del viento	1.61
144759	7	Sololá	701	Sololá	2	El tablón	3	Marzo	2023-03-26T00:00:00	2024-11-06T23:00:00	1	Precipitación	0
144760	7	Sololá	701	Sololá	2	El tablón	3	Marzo	2023-03-26T00:00:00	2024-11-06T23:00:00	8	Radiación solar	0
144761	7	Sololá	701	Sololá	2	El tablón	3	Marzo	2023-03-27T00:00:00	2024-11-06T00:00:00	2	Temperatura media	11.5
144762	7	Sololá	701	Sololá	2	El tablón	3	Marzo	2023-03-27T00:00:00	2024-11-06T00:00:00	4	Temperatura máxima	12.7
144763	7	Sololá	701	Sololá	2	El tablón	3	Marzo	2023-03-27T00:00:00	2024-11-06T00:00:00	3	Temperatura mínima	11.5
144764	7	Sololá	701	Sololá	2	El tablón	3	Marzo	2023-03-27T00:00:00	2024-11-06T00:00:00	5	Humedad	88
144765	7	Sololá	701	Sololá	2	El tablón	3	Marzo	2023-03-27T00:00:00	2024-11-06T00:00:00	6	Velocidad del viento	1.6
144766	7	Sololá	701	Sololá	2	El tablón	3	Marzo	2023-03-27T00:00:00	2024-11-06T00:00:00	7	Dirección del viento	1.61
144767	7	Sololá	701	Sololá	2	El tablón	3	Marzo	2023-03-27T00:00:00	2024-11-06T00:00:00	1	Precipitación	0
144768	7	Sololá	701	Sololá	2	El tablón	3	Marzo	2023-03-27T00:00:00	2024-11-06T00:00:00	8	Radiación solar	0
144769	7	Sololá	701	Sololá	2	El tablón	3	Marzo	2023-03-27T00:00:00	2024-11-06T01:00:00	2	Temperatura media	11.1
144770	7	Sololá	701	Sololá	2	El tablón	3	Marzo	2023-03-27T00:00:00	2024-11-06T01:00:00	4	Temperatura máxima	11.6
144771	7	Sololá	701	Sololá	2	El tablón	3	Marzo	2023-03-27T00:00:00	2024-11-06T01:00:00	3	Temperatura mínima	11.1
144772	7	Sololá	701	Sololá	2	El tablón	3	Marzo	2023-03-27T00:00:00	2024-11-06T01:00:00	5	Humedad	87
144773	7	Sololá	701	Sololá	2	El tablón	3	Marzo	2023-03-27T00:00:00	2024-11-06T01:00:00	6	Velocidad del viento	1.6
144774	7	Sololá	701	Sololá	2	El tablón	3	Marzo	2023-03-27T00:00:00	2024-11-06T01:00:00	7	Dirección del viento	1.61
144775	7	Sololá	701	Sololá	2	El tablón	3	Marzo	2023-03-27T00:00:00	2024-11-06T01:00:00	1	Precipitación	0
144776	7	Sololá	701	Sololá	2	El tablón	3	Marzo	2023-03-27T00:00:00	2024-11-06T01:00:00	8	Radiación solar	0
144777	7	Sololá	701	Sololá	2	El tablón	3	Marzo	2023-03-27T00:00:00	2024-11-06T02:00:00	2	Temperatura media	11.4
144778	7	Sololá	701	Sololá	2	El tablón	3	Marzo	2023-03-27T00:00:00	2024-11-06T02:00:00	4	Temperatura máxima	11.4
144779	7	Sololá	701	Sololá	2	El tablón	3	Marzo	2023-03-27T00:00:00	2024-11-06T02:00:00	3	Temperatura mínima	11
144780	7	Sololá	701	Sololá	2	El tablón	3	Marzo	2023-03-27T00:00:00	2024-11-06T02:00:00	5	Humedad	89
144781	7	Sololá	701	Sololá	2	El tablón	3	Marzo	2023-03-27T00:00:00	2024-11-06T02:00:00	6	Velocidad del viento	1.6
144782	7	Sololá	701	Sololá	2	El tablón	3	Marzo	2023-03-27T00:00:00	2024-11-06T02:00:00	7	Dirección del viento	1.61
144783	7	Sololá	701	Sololá	2	El tablón	3	Marzo	2023-03-27T00:00:00	2024-11-06T02:00:00	1	Precipitación	0
144784	7	Sololá	701	Sololá	2	El tablón	3	Marzo	2023-03-27T00:00:00	2024-11-06T02:00:00	8	Radiación solar	0
144785	7	Sololá	701	Sololá	2	El tablón	3	Marzo	2023-03-27T00:00:00	2024-11-06T03:00:00	2	Temperatura media	10.5
144786	7	Sololá	701	Sololá	2	El tablón	3	Marzo	2023-03-27T00:00:00	2024-11-06T03:00:00	4	Temperatura máxima	11.4
144787	7	Sololá	701	Sololá	2	El tablón	3	Marzo	2023-03-27T00:00:00	2024-11-06T03:00:00	3	Temperatura mínima	10.5
144788	7	Sololá	701	Sololá	2	El tablón	3	Marzo	2023-03-27T00:00:00	2024-11-06T03:00:00	5	Humedad	89
144789	7	Sololá	701	Sololá	2	El tablón	3	Marzo	2023-03-27T00:00:00	2024-11-06T03:00:00	6	Velocidad del viento	0
144790	7	Sololá	701	Sololá	2	El tablón	3	Marzo	2023-03-27T00:00:00	2024-11-06T03:00:00	7	Dirección del viento	0
144791	7	Sololá	701	Sololá	2	El tablón	3	Marzo	2023-03-27T00:00:00	2024-11-06T03:00:00	1	Precipitación	0
144792	7	Sololá	701	Sololá	2	El tablón	3	Marzo	2023-03-27T00:00:00	2024-11-06T03:00:00	8	Radiación solar	0
144793	7	Sololá	701	Sololá	2	El tablón	3	Marzo	2023-03-27T00:00:00	2024-11-06T04:00:00	2	Temperatura media	9.9
144794	7	Sololá	701	Sololá	2	El tablón	3	Marzo	2023-03-27T00:00:00	2024-11-06T04:00:00	4	Temperatura máxima	10.6
144795	7	Sololá	701	Sololá	2	El tablón	3	Marzo	2023-03-27T00:00:00	2024-11-06T04:00:00	3	Temperatura mínima	9.9
144796	7	Sololá	701	Sololá	2	El tablón	3	Marzo	2023-03-27T00:00:00	2024-11-06T04:00:00	5	Humedad	90
144797	7	Sololá	701	Sololá	2	El tablón	3	Marzo	2023-03-27T00:00:00	2024-11-06T04:00:00	6	Velocidad del viento	1.6
144798	7	Sololá	701	Sololá	2	El tablón	3	Marzo	2023-03-27T00:00:00	2024-11-06T04:00:00	7	Dirección del viento	1.61
144799	7	Sololá	701	Sololá	2	El tablón	3	Marzo	2023-03-27T00:00:00	2024-11-06T04:00:00	1	Precipitación	0
144800	7	Sololá	701	Sololá	2	El tablón	3	Marzo	2023-03-27T00:00:00	2024-11-06T04:00:00	8	Radiación solar	0
144801	7	Sololá	701	Sololá	2	El tablón	3	Marzo	2023-03-27T00:00:00	2024-11-06T05:00:00	2	Temperatura media	9.7
144802	7	Sololá	701	Sololá	2	El tablón	3	Marzo	2023-03-27T00:00:00	2024-11-06T05:00:00	4	Temperatura máxima	10.3
144803	7	Sololá	701	Sololá	2	El tablón	3	Marzo	2023-03-27T00:00:00	2024-11-06T05:00:00	3	Temperatura mínima	9.7
144804	7	Sololá	701	Sololá	2	El tablón	3	Marzo	2023-03-27T00:00:00	2024-11-06T05:00:00	5	Humedad	90
144805	7	Sololá	701	Sololá	2	El tablón	3	Marzo	2023-03-27T00:00:00	2024-11-06T05:00:00	6	Velocidad del viento	1.6
144806	7	Sololá	701	Sololá	2	El tablón	3	Marzo	2023-03-27T00:00:00	2024-11-06T05:00:00	7	Dirección del viento	1.61
144807	7	Sololá	701	Sololá	2	El tablón	3	Marzo	2023-03-27T00:00:00	2024-11-06T05:00:00	1	Precipitación	0
144808	7	Sololá	701	Sololá	2	El tablón	3	Marzo	2023-03-27T00:00:00	2024-11-06T05:00:00	8	Radiación solar	0
144809	7	Sololá	701	Sololá	2	El tablón	3	Marzo	2023-03-27T00:00:00	2024-11-06T06:00:00	2	Temperatura media	9.8
144810	7	Sololá	701	Sololá	2	El tablón	3	Marzo	2023-03-27T00:00:00	2024-11-06T06:00:00	4	Temperatura máxima	10.1
144811	7	Sololá	701	Sololá	2	El tablón	3	Marzo	2023-03-27T00:00:00	2024-11-06T06:00:00	3	Temperatura mínima	9.6
144812	7	Sololá	701	Sololá	2	El tablón	3	Marzo	2023-03-27T00:00:00	2024-11-06T06:00:00	5	Humedad	90
144813	7	Sololá	701	Sololá	2	El tablón	3	Marzo	2023-03-27T00:00:00	2024-11-06T06:00:00	6	Velocidad del viento	0
144814	7	Sololá	701	Sololá	2	El tablón	3	Marzo	2023-03-27T00:00:00	2024-11-06T06:00:00	7	Dirección del viento	0
144815	7	Sololá	701	Sololá	2	El tablón	3	Marzo	2023-03-27T00:00:00	2024-11-06T06:00:00	1	Precipitación	0
144816	7	Sololá	701	Sololá	2	El tablón	3	Marzo	2023-03-27T00:00:00	2024-11-06T06:00:00	8	Radiación solar	0
144817	7	Sololá	701	Sololá	2	El tablón	3	Marzo	2023-03-27T00:00:00	2024-11-06T07:00:00	2	Temperatura media	9.7
144818	7	Sololá	701	Sololá	2	El tablón	3	Marzo	2023-03-27T00:00:00	2024-11-06T07:00:00	4	Temperatura máxima	9.8
144819	7	Sololá	701	Sololá	2	El tablón	3	Marzo	2023-03-27T00:00:00	2024-11-06T07:00:00	3	Temperatura mínima	9.1
144820	7	Sololá	701	Sololá	2	El tablón	3	Marzo	2023-03-27T00:00:00	2024-11-06T07:00:00	5	Humedad	90
144821	7	Sololá	701	Sololá	2	El tablón	3	Marzo	2023-03-27T00:00:00	2024-11-06T07:00:00	6	Velocidad del viento	1.6
144822	7	Sololá	701	Sololá	2	El tablón	3	Marzo	2023-03-27T00:00:00	2024-11-06T07:00:00	7	Dirección del viento	1.61
144823	7	Sololá	701	Sololá	2	El tablón	3	Marzo	2023-03-27T00:00:00	2024-11-06T07:00:00	1	Precipitación	0
144824	7	Sololá	701	Sololá	2	El tablón	3	Marzo	2023-03-27T00:00:00	2024-11-06T07:00:00	8	Radiación solar	40
144825	7	Sololá	701	Sololá	2	El tablón	3	Marzo	2023-03-27T00:00:00	2024-11-06T08:00:00	2	Temperatura media	13.3
144826	7	Sololá	701	Sololá	2	El tablón	3	Marzo	2023-03-27T00:00:00	2024-11-06T08:00:00	4	Temperatura máxima	13.3
144827	7	Sololá	701	Sololá	2	El tablón	3	Marzo	2023-03-27T00:00:00	2024-11-06T08:00:00	3	Temperatura mínima	9.7
144828	7	Sololá	701	Sololá	2	El tablón	3	Marzo	2023-03-27T00:00:00	2024-11-06T08:00:00	5	Humedad	79
144829	7	Sololá	701	Sololá	2	El tablón	3	Marzo	2023-03-27T00:00:00	2024-11-06T08:00:00	6	Velocidad del viento	0
144830	7	Sololá	701	Sololá	2	El tablón	3	Marzo	2023-03-27T00:00:00	2024-11-06T08:00:00	7	Dirección del viento	0
144831	7	Sololá	701	Sololá	2	El tablón	3	Marzo	2023-03-27T00:00:00	2024-11-06T08:00:00	1	Precipitación	0
144832	7	Sololá	701	Sololá	2	El tablón	3	Marzo	2023-03-27T00:00:00	2024-11-06T08:00:00	8	Radiación solar	216
144833	7	Sololá	701	Sololá	2	El tablón	3	Marzo	2023-03-27T00:00:00	2024-11-06T09:00:00	2	Temperatura media	15
144834	7	Sololá	701	Sololá	2	El tablón	3	Marzo	2023-03-27T00:00:00	2024-11-06T09:00:00	4	Temperatura máxima	15
144835	7	Sololá	701	Sololá	2	El tablón	3	Marzo	2023-03-27T00:00:00	2024-11-06T09:00:00	3	Temperatura mínima	13.3
144836	7	Sololá	701	Sololá	2	El tablón	3	Marzo	2023-03-27T00:00:00	2024-11-06T09:00:00	5	Humedad	79
144837	7	Sololá	701	Sololá	2	El tablón	3	Marzo	2023-03-27T00:00:00	2024-11-06T09:00:00	6	Velocidad del viento	3.2
144838	7	Sololá	701	Sololá	2	El tablón	3	Marzo	2023-03-27T00:00:00	2024-11-06T09:00:00	7	Dirección del viento	3.22
144839	7	Sololá	701	Sololá	2	El tablón	3	Marzo	2023-03-27T00:00:00	2024-11-06T09:00:00	1	Precipitación	0
144840	7	Sololá	701	Sololá	2	El tablón	3	Marzo	2023-03-27T00:00:00	2024-11-06T09:00:00	8	Radiación solar	362
144841	7	Sololá	701	Sololá	2	El tablón	3	Marzo	2023-03-27T00:00:00	2024-11-06T10:00:00	2	Temperatura media	15.8
144842	7	Sololá	701	Sololá	2	El tablón	3	Marzo	2023-03-27T00:00:00	2024-11-06T10:00:00	4	Temperatura máxima	15.9
144843	7	Sololá	701	Sololá	2	El tablón	3	Marzo	2023-03-27T00:00:00	2024-11-06T10:00:00	3	Temperatura mínima	15
144844	7	Sololá	701	Sololá	2	El tablón	3	Marzo	2023-03-27T00:00:00	2024-11-06T10:00:00	5	Humedad	75
144845	7	Sololá	701	Sololá	2	El tablón	3	Marzo	2023-03-27T00:00:00	2024-11-06T10:00:00	6	Velocidad del viento	6.4
144846	7	Sololá	701	Sololá	2	El tablón	3	Marzo	2023-03-27T00:00:00	2024-11-06T10:00:00	7	Dirección del viento	6.44
144847	7	Sololá	701	Sololá	2	El tablón	3	Marzo	2023-03-27T00:00:00	2024-11-06T10:00:00	1	Precipitación	0
144848	7	Sololá	701	Sololá	2	El tablón	3	Marzo	2023-03-27T00:00:00	2024-11-06T10:00:00	8	Radiación solar	559
144849	7	Sololá	701	Sololá	2	El tablón	3	Marzo	2023-03-27T00:00:00	2024-11-06T11:00:00	2	Temperatura media	16.8
144850	7	Sololá	701	Sololá	2	El tablón	3	Marzo	2023-03-27T00:00:00	2024-11-06T11:00:00	4	Temperatura máxima	17.2
144851	7	Sololá	701	Sololá	2	El tablón	3	Marzo	2023-03-27T00:00:00	2024-11-06T11:00:00	3	Temperatura mínima	15.8
144852	7	Sololá	701	Sololá	2	El tablón	3	Marzo	2023-03-27T00:00:00	2024-11-06T11:00:00	5	Humedad	72
144853	7	Sololá	701	Sololá	2	El tablón	3	Marzo	2023-03-27T00:00:00	2024-11-06T11:00:00	6	Velocidad del viento	6.4
144854	7	Sololá	701	Sololá	2	El tablón	3	Marzo	2023-03-27T00:00:00	2024-11-06T11:00:00	7	Dirección del viento	6.44
144855	7	Sololá	701	Sololá	2	El tablón	3	Marzo	2023-03-27T00:00:00	2024-11-06T11:00:00	1	Precipitación	0
144856	7	Sololá	701	Sololá	2	El tablón	3	Marzo	2023-03-27T00:00:00	2024-11-06T11:00:00	8	Radiación solar	716
144857	7	Sololá	701	Sololá	2	El tablón	3	Marzo	2023-03-27T00:00:00	2024-11-06T12:00:00	2	Temperatura media	17.7
144858	7	Sololá	701	Sololá	2	El tablón	3	Marzo	2023-03-27T00:00:00	2024-11-06T12:00:00	4	Temperatura máxima	17.7
144859	7	Sololá	701	Sololá	2	El tablón	3	Marzo	2023-03-27T00:00:00	2024-11-06T12:00:00	3	Temperatura mínima	16.8
144860	7	Sololá	701	Sololá	2	El tablón	3	Marzo	2023-03-27T00:00:00	2024-11-06T12:00:00	5	Humedad	71
144861	7	Sololá	701	Sololá	2	El tablón	3	Marzo	2023-03-27T00:00:00	2024-11-06T12:00:00	6	Velocidad del viento	8
144862	7	Sololá	701	Sololá	2	El tablón	3	Marzo	2023-03-27T00:00:00	2024-11-06T12:00:00	7	Dirección del viento	8.05
144863	7	Sololá	701	Sololá	2	El tablón	3	Marzo	2023-03-27T00:00:00	2024-11-06T12:00:00	1	Precipitación	0
144864	7	Sololá	701	Sololá	2	El tablón	3	Marzo	2023-03-27T00:00:00	2024-11-06T12:00:00	8	Radiación solar	894
144865	7	Sololá	701	Sololá	2	El tablón	3	Marzo	2023-03-27T00:00:00	2024-11-06T13:00:00	2	Temperatura media	18.7
144866	7	Sololá	701	Sololá	2	El tablón	3	Marzo	2023-03-27T00:00:00	2024-11-06T13:00:00	4	Temperatura máxima	18.7
144867	7	Sololá	701	Sololá	2	El tablón	3	Marzo	2023-03-27T00:00:00	2024-11-06T13:00:00	3	Temperatura mínima	17.7
144868	7	Sololá	701	Sololá	2	El tablón	3	Marzo	2023-03-27T00:00:00	2024-11-06T13:00:00	5	Humedad	75
144869	7	Sololá	701	Sololá	2	El tablón	3	Marzo	2023-03-27T00:00:00	2024-11-06T13:00:00	6	Velocidad del viento	9.7
144870	7	Sololá	701	Sololá	2	El tablón	3	Marzo	2023-03-27T00:00:00	2024-11-06T13:00:00	7	Dirección del viento	9.66
144871	7	Sololá	701	Sololá	2	El tablón	3	Marzo	2023-03-27T00:00:00	2024-11-06T13:00:00	1	Precipitación	0
144872	7	Sololá	701	Sololá	2	El tablón	3	Marzo	2023-03-27T00:00:00	2024-11-06T13:00:00	8	Radiación solar	1028
144873	7	Sololá	701	Sololá	2	El tablón	3	Marzo	2023-03-27T00:00:00	2024-11-06T14:00:00	2	Temperatura media	17.5
144874	7	Sololá	701	Sololá	2	El tablón	3	Marzo	2023-03-27T00:00:00	2024-11-06T14:00:00	4	Temperatura máxima	18.7
144875	7	Sololá	701	Sololá	2	El tablón	3	Marzo	2023-03-27T00:00:00	2024-11-06T14:00:00	3	Temperatura mínima	17.2
144876	7	Sololá	701	Sololá	2	El tablón	3	Marzo	2023-03-27T00:00:00	2024-11-06T14:00:00	5	Humedad	80
144877	7	Sololá	701	Sololá	2	El tablón	3	Marzo	2023-03-27T00:00:00	2024-11-06T14:00:00	6	Velocidad del viento	11.3
144878	7	Sololá	701	Sololá	2	El tablón	3	Marzo	2023-03-27T00:00:00	2024-11-06T14:00:00	7	Dirección del viento	11.27
144879	7	Sololá	701	Sololá	2	El tablón	3	Marzo	2023-03-27T00:00:00	2024-11-06T14:00:00	1	Precipitación	0
144880	7	Sololá	701	Sololá	2	El tablón	3	Marzo	2023-03-27T00:00:00	2024-11-06T14:00:00	8	Radiación solar	913
144881	7	Sololá	701	Sololá	2	El tablón	3	Marzo	2023-03-27T00:00:00	2024-11-06T15:00:00	2	Temperatura media	16.9
144882	7	Sololá	701	Sololá	2	El tablón	3	Marzo	2023-03-27T00:00:00	2024-11-06T15:00:00	4	Temperatura máxima	17.8
144883	7	Sololá	701	Sololá	2	El tablón	3	Marzo	2023-03-27T00:00:00	2024-11-06T15:00:00	3	Temperatura mínima	16.7
144884	7	Sololá	701	Sololá	2	El tablón	3	Marzo	2023-03-27T00:00:00	2024-11-06T15:00:00	5	Humedad	83
144885	7	Sololá	701	Sololá	2	El tablón	3	Marzo	2023-03-27T00:00:00	2024-11-06T15:00:00	6	Velocidad del viento	11.3
144886	7	Sololá	701	Sololá	2	El tablón	3	Marzo	2023-03-27T00:00:00	2024-11-06T15:00:00	7	Dirección del viento	11.27
144887	7	Sololá	701	Sololá	2	El tablón	3	Marzo	2023-03-27T00:00:00	2024-11-06T15:00:00	1	Precipitación	0
144888	7	Sololá	701	Sololá	2	El tablón	3	Marzo	2023-03-27T00:00:00	2024-11-06T15:00:00	8	Radiación solar	844
144889	7	Sololá	701	Sololá	2	El tablón	3	Marzo	2023-03-27T00:00:00	2024-11-06T16:00:00	2	Temperatura media	16.5
144890	7	Sololá	701	Sololá	2	El tablón	3	Marzo	2023-03-27T00:00:00	2024-11-06T16:00:00	4	Temperatura máxima	17.2
144891	7	Sololá	701	Sololá	2	El tablón	3	Marzo	2023-03-27T00:00:00	2024-11-06T16:00:00	3	Temperatura mínima	16.2
144892	7	Sololá	701	Sololá	2	El tablón	3	Marzo	2023-03-27T00:00:00	2024-11-06T16:00:00	5	Humedad	85
144893	7	Sololá	701	Sololá	2	El tablón	3	Marzo	2023-03-27T00:00:00	2024-11-06T16:00:00	6	Velocidad del viento	9.7
144894	7	Sololá	701	Sololá	2	El tablón	3	Marzo	2023-03-27T00:00:00	2024-11-06T16:00:00	7	Dirección del viento	9.66
144895	7	Sololá	701	Sololá	2	El tablón	3	Marzo	2023-03-27T00:00:00	2024-11-06T16:00:00	1	Precipitación	0
144896	7	Sololá	701	Sololá	2	El tablón	3	Marzo	2023-03-27T00:00:00	2024-11-06T16:00:00	8	Radiación solar	602
144897	7	Sololá	701	Sololá	2	El tablón	3	Marzo	2023-03-27T00:00:00	2024-11-06T17:00:00	2	Temperatura media	15.3
144898	7	Sololá	701	Sololá	2	El tablón	3	Marzo	2023-03-27T00:00:00	2024-11-06T17:00:00	4	Temperatura máxima	16.6
144899	7	Sololá	701	Sololá	2	El tablón	3	Marzo	2023-03-27T00:00:00	2024-11-06T17:00:00	3	Temperatura mínima	15.2
144900	7	Sololá	701	Sololá	2	El tablón	3	Marzo	2023-03-27T00:00:00	2024-11-06T17:00:00	5	Humedad	88
144901	7	Sololá	701	Sololá	2	El tablón	3	Marzo	2023-03-27T00:00:00	2024-11-06T17:00:00	6	Velocidad del viento	6.4
144902	7	Sololá	701	Sololá	2	El tablón	3	Marzo	2023-03-27T00:00:00	2024-11-06T17:00:00	7	Dirección del viento	6.44
144903	7	Sololá	701	Sololá	2	El tablón	3	Marzo	2023-03-27T00:00:00	2024-11-06T17:00:00	1	Precipitación	0
144904	7	Sololá	701	Sololá	2	El tablón	3	Marzo	2023-03-27T00:00:00	2024-11-06T17:00:00	8	Radiación solar	145
144905	7	Sololá	701	Sololá	2	El tablón	3	Marzo	2023-03-27T00:00:00	2024-11-06T18:00:00	2	Temperatura media	14.6
144906	7	Sololá	701	Sololá	2	El tablón	3	Marzo	2023-03-27T00:00:00	2024-11-06T18:00:00	4	Temperatura máxima	15.3
144907	7	Sololá	701	Sololá	2	El tablón	3	Marzo	2023-03-27T00:00:00	2024-11-06T18:00:00	3	Temperatura mínima	14.6
144908	7	Sololá	701	Sololá	2	El tablón	3	Marzo	2023-03-27T00:00:00	2024-11-06T18:00:00	5	Humedad	89
144909	7	Sololá	701	Sololá	2	El tablón	3	Marzo	2023-03-27T00:00:00	2024-11-06T18:00:00	6	Velocidad del viento	3.2
144910	7	Sololá	701	Sololá	2	El tablón	3	Marzo	2023-03-27T00:00:00	2024-11-06T18:00:00	7	Dirección del viento	3.22
144911	7	Sololá	701	Sololá	2	El tablón	3	Marzo	2023-03-27T00:00:00	2024-11-06T18:00:00	1	Precipitación	0
144912	7	Sololá	701	Sololá	2	El tablón	3	Marzo	2023-03-27T00:00:00	2024-11-06T18:00:00	8	Radiación solar	47
144913	7	Sololá	701	Sololá	2	El tablón	3	Marzo	2023-03-27T00:00:00	2024-11-06T19:00:00	2	Temperatura media	13.8
144914	7	Sololá	701	Sololá	2	El tablón	3	Marzo	2023-03-27T00:00:00	2024-11-06T19:00:00	4	Temperatura máxima	14.6
144915	7	Sololá	701	Sololá	2	El tablón	3	Marzo	2023-03-27T00:00:00	2024-11-06T19:00:00	3	Temperatura mínima	13.8
144916	7	Sololá	701	Sololá	2	El tablón	3	Marzo	2023-03-27T00:00:00	2024-11-06T19:00:00	5	Humedad	89
144917	7	Sololá	701	Sololá	2	El tablón	3	Marzo	2023-03-27T00:00:00	2024-11-06T19:00:00	6	Velocidad del viento	0
144918	7	Sololá	701	Sololá	2	El tablón	3	Marzo	2023-03-27T00:00:00	2024-11-06T19:00:00	7	Dirección del viento	0
144919	7	Sololá	701	Sololá	2	El tablón	3	Marzo	2023-03-27T00:00:00	2024-11-06T19:00:00	1	Precipitación	0
144920	7	Sololá	701	Sololá	2	El tablón	3	Marzo	2023-03-27T00:00:00	2024-11-06T19:00:00	8	Radiación solar	0
144921	7	Sololá	701	Sololá	2	El tablón	3	Marzo	2023-03-27T00:00:00	2024-11-06T20:00:00	2	Temperatura media	13
144922	7	Sololá	701	Sololá	2	El tablón	3	Marzo	2023-03-27T00:00:00	2024-11-06T20:00:00	4	Temperatura máxima	13.8
144923	7	Sololá	701	Sololá	2	El tablón	3	Marzo	2023-03-27T00:00:00	2024-11-06T20:00:00	3	Temperatura mínima	13
144924	7	Sololá	701	Sololá	2	El tablón	3	Marzo	2023-03-27T00:00:00	2024-11-06T20:00:00	5	Humedad	89
144925	7	Sololá	701	Sololá	2	El tablón	3	Marzo	2023-03-27T00:00:00	2024-11-06T20:00:00	6	Velocidad del viento	0
144926	7	Sololá	701	Sololá	2	El tablón	3	Marzo	2023-03-27T00:00:00	2024-11-06T20:00:00	7	Dirección del viento	0
144927	7	Sololá	701	Sololá	2	El tablón	3	Marzo	2023-03-27T00:00:00	2024-11-06T20:00:00	1	Precipitación	0
144928	7	Sololá	701	Sololá	2	El tablón	3	Marzo	2023-03-27T00:00:00	2024-11-06T20:00:00	8	Radiación solar	0
144929	7	Sololá	701	Sololá	2	El tablón	3	Marzo	2023-03-27T00:00:00	2024-11-06T21:00:00	2	Temperatura media	12.6
144930	7	Sololá	701	Sololá	2	El tablón	3	Marzo	2023-03-27T00:00:00	2024-11-06T21:00:00	4	Temperatura máxima	13.1
144931	7	Sololá	701	Sololá	2	El tablón	3	Marzo	2023-03-27T00:00:00	2024-11-06T21:00:00	3	Temperatura mínima	12.3
144932	7	Sololá	701	Sololá	2	El tablón	3	Marzo	2023-03-27T00:00:00	2024-11-06T21:00:00	5	Humedad	88
144933	7	Sololá	701	Sololá	2	El tablón	3	Marzo	2023-03-27T00:00:00	2024-11-06T21:00:00	6	Velocidad del viento	1.6
144934	7	Sololá	701	Sololá	2	El tablón	3	Marzo	2023-03-27T00:00:00	2024-11-06T21:00:00	7	Dirección del viento	1.61
144935	7	Sololá	701	Sololá	2	El tablón	3	Marzo	2023-03-27T00:00:00	2024-11-06T21:00:00	1	Precipitación	0
144936	7	Sololá	701	Sololá	2	El tablón	3	Marzo	2023-03-27T00:00:00	2024-11-06T21:00:00	8	Radiación solar	0
144937	7	Sololá	701	Sololá	2	El tablón	3	Marzo	2023-03-27T00:00:00	2024-11-06T22:00:00	2	Temperatura media	13.3
144938	7	Sololá	701	Sololá	2	El tablón	3	Marzo	2023-03-27T00:00:00	2024-11-06T22:00:00	4	Temperatura máxima	13.4
144939	7	Sololá	701	Sololá	2	El tablón	3	Marzo	2023-03-27T00:00:00	2024-11-06T22:00:00	3	Temperatura mínima	12.6
144940	7	Sololá	701	Sololá	2	El tablón	3	Marzo	2023-03-27T00:00:00	2024-11-06T22:00:00	5	Humedad	84
144941	7	Sololá	701	Sololá	2	El tablón	3	Marzo	2023-03-27T00:00:00	2024-11-06T22:00:00	6	Velocidad del viento	1.6
144942	7	Sololá	701	Sololá	2	El tablón	3	Marzo	2023-03-27T00:00:00	2024-11-06T22:00:00	7	Dirección del viento	1.61
144943	7	Sololá	701	Sololá	2	El tablón	3	Marzo	2023-03-27T00:00:00	2024-11-06T22:00:00	1	Precipitación	0
144944	7	Sololá	701	Sololá	2	El tablón	3	Marzo	2023-03-27T00:00:00	2024-11-06T22:00:00	8	Radiación solar	0
144945	7	Sololá	701	Sololá	2	El tablón	3	Marzo	2023-03-27T00:00:00	2024-11-06T23:00:00	2	Temperatura media	12.6
144946	7	Sololá	701	Sololá	2	El tablón	3	Marzo	2023-03-27T00:00:00	2024-11-06T23:00:00	4	Temperatura máxima	13.3
144947	7	Sololá	701	Sololá	2	El tablón	3	Marzo	2023-03-27T00:00:00	2024-11-06T23:00:00	3	Temperatura mínima	12.6
144948	7	Sololá	701	Sololá	2	El tablón	3	Marzo	2023-03-27T00:00:00	2024-11-06T23:00:00	5	Humedad	85
144949	7	Sololá	701	Sololá	2	El tablón	3	Marzo	2023-03-27T00:00:00	2024-11-06T23:00:00	6	Velocidad del viento	3.2
144950	7	Sololá	701	Sololá	2	El tablón	3	Marzo	2023-03-27T00:00:00	2024-11-06T23:00:00	7	Dirección del viento	3.22
144951	7	Sololá	701	Sololá	2	El tablón	3	Marzo	2023-03-27T00:00:00	2024-11-06T23:00:00	1	Precipitación	0
144952	7	Sololá	701	Sololá	2	El tablón	3	Marzo	2023-03-27T00:00:00	2024-11-06T23:00:00	8	Radiación solar	0
144953	7	Sololá	701	Sololá	2	El tablón	3	Marzo	2023-03-28T00:00:00	2024-11-06T00:00:00	2	Temperatura media	11.8
144954	7	Sololá	701	Sololá	2	El tablón	3	Marzo	2023-03-28T00:00:00	2024-11-06T00:00:00	4	Temperatura máxima	12.6
144955	7	Sololá	701	Sololá	2	El tablón	3	Marzo	2023-03-28T00:00:00	2024-11-06T00:00:00	3	Temperatura mínima	11.8
144956	7	Sololá	701	Sololá	2	El tablón	3	Marzo	2023-03-28T00:00:00	2024-11-06T00:00:00	5	Humedad	87
144957	7	Sololá	701	Sololá	2	El tablón	3	Marzo	2023-03-28T00:00:00	2024-11-06T00:00:00	6	Velocidad del viento	1.6
144958	7	Sololá	701	Sololá	2	El tablón	3	Marzo	2023-03-28T00:00:00	2024-11-06T00:00:00	7	Dirección del viento	1.61
144959	7	Sololá	701	Sololá	2	El tablón	3	Marzo	2023-03-28T00:00:00	2024-11-06T00:00:00	1	Precipitación	0
144960	7	Sololá	701	Sololá	2	El tablón	3	Marzo	2023-03-28T00:00:00	2024-11-06T00:00:00	8	Radiación solar	0
144961	7	Sololá	701	Sololá	2	El tablón	3	Marzo	2023-03-28T00:00:00	2024-11-06T01:00:00	2	Temperatura media	12
144962	7	Sololá	701	Sololá	2	El tablón	3	Marzo	2023-03-28T00:00:00	2024-11-06T01:00:00	4	Temperatura máxima	12
144963	7	Sololá	701	Sololá	2	El tablón	3	Marzo	2023-03-28T00:00:00	2024-11-06T01:00:00	3	Temperatura mínima	11.7
144964	7	Sololá	701	Sololá	2	El tablón	3	Marzo	2023-03-28T00:00:00	2024-11-06T01:00:00	5	Humedad	87
144965	7	Sololá	701	Sololá	2	El tablón	3	Marzo	2023-03-28T00:00:00	2024-11-06T01:00:00	6	Velocidad del viento	3.2
144966	7	Sololá	701	Sololá	2	El tablón	3	Marzo	2023-03-28T00:00:00	2024-11-06T01:00:00	7	Dirección del viento	3.22
144967	7	Sololá	701	Sololá	2	El tablón	3	Marzo	2023-03-28T00:00:00	2024-11-06T01:00:00	1	Precipitación	0
144968	7	Sololá	701	Sololá	2	El tablón	3	Marzo	2023-03-28T00:00:00	2024-11-06T01:00:00	8	Radiación solar	0
144969	7	Sololá	701	Sololá	2	El tablón	3	Marzo	2023-03-28T00:00:00	2024-11-06T02:00:00	2	Temperatura media	11.5
144970	7	Sololá	701	Sololá	2	El tablón	3	Marzo	2023-03-28T00:00:00	2024-11-06T02:00:00	4	Temperatura máxima	12
144971	7	Sololá	701	Sololá	2	El tablón	3	Marzo	2023-03-28T00:00:00	2024-11-06T02:00:00	3	Temperatura mínima	11
144972	7	Sololá	701	Sololá	2	El tablón	3	Marzo	2023-03-28T00:00:00	2024-11-06T02:00:00	5	Humedad	88
144973	7	Sololá	701	Sololá	2	El tablón	3	Marzo	2023-03-28T00:00:00	2024-11-06T02:00:00	6	Velocidad del viento	1.6
144974	7	Sololá	701	Sololá	2	El tablón	3	Marzo	2023-03-28T00:00:00	2024-11-06T02:00:00	7	Dirección del viento	1.61
144975	7	Sololá	701	Sololá	2	El tablón	3	Marzo	2023-03-28T00:00:00	2024-11-06T02:00:00	1	Precipitación	0
144976	7	Sololá	701	Sololá	2	El tablón	3	Marzo	2023-03-28T00:00:00	2024-11-06T02:00:00	8	Radiación solar	0
144977	7	Sololá	701	Sololá	2	El tablón	3	Marzo	2023-03-28T00:00:00	2024-11-06T03:00:00	2	Temperatura media	10.8
144978	7	Sololá	701	Sololá	2	El tablón	3	Marzo	2023-03-28T00:00:00	2024-11-06T03:00:00	4	Temperatura máxima	11.5
144979	7	Sololá	701	Sololá	2	El tablón	3	Marzo	2023-03-28T00:00:00	2024-11-06T03:00:00	3	Temperatura mínima	10.7
144980	7	Sololá	701	Sololá	2	El tablón	3	Marzo	2023-03-28T00:00:00	2024-11-06T03:00:00	5	Humedad	89
144981	7	Sololá	701	Sololá	2	El tablón	3	Marzo	2023-03-28T00:00:00	2024-11-06T03:00:00	6	Velocidad del viento	1.6
144982	7	Sololá	701	Sololá	2	El tablón	3	Marzo	2023-03-28T00:00:00	2024-11-06T03:00:00	7	Dirección del viento	1.61
144983	7	Sololá	701	Sololá	2	El tablón	3	Marzo	2023-03-28T00:00:00	2024-11-06T03:00:00	1	Precipitación	0
144984	7	Sololá	701	Sololá	2	El tablón	3	Marzo	2023-03-28T00:00:00	2024-11-06T03:00:00	8	Radiación solar	0
144985	7	Sololá	701	Sololá	2	El tablón	3	Marzo	2023-03-28T00:00:00	2024-11-06T04:00:00	2	Temperatura media	10.6
144986	7	Sololá	701	Sololá	2	El tablón	3	Marzo	2023-03-28T00:00:00	2024-11-06T04:00:00	4	Temperatura máxima	10.9
144987	7	Sololá	701	Sololá	2	El tablón	3	Marzo	2023-03-28T00:00:00	2024-11-06T04:00:00	3	Temperatura mínima	10.4
144988	7	Sololá	701	Sololá	2	El tablón	3	Marzo	2023-03-28T00:00:00	2024-11-06T04:00:00	5	Humedad	89
144989	7	Sololá	701	Sololá	2	El tablón	3	Marzo	2023-03-28T00:00:00	2024-11-06T04:00:00	6	Velocidad del viento	3.2
144990	7	Sololá	701	Sololá	2	El tablón	3	Marzo	2023-03-28T00:00:00	2024-11-06T04:00:00	7	Dirección del viento	3.22
144991	7	Sololá	701	Sololá	2	El tablón	3	Marzo	2023-03-28T00:00:00	2024-11-06T04:00:00	1	Precipitación	0
144992	7	Sololá	701	Sololá	2	El tablón	3	Marzo	2023-03-28T00:00:00	2024-11-06T04:00:00	8	Radiación solar	0
144993	7	Sololá	701	Sololá	2	El tablón	3	Marzo	2023-03-28T00:00:00	2024-11-06T05:00:00	2	Temperatura media	10.6
144994	7	Sololá	701	Sololá	2	El tablón	3	Marzo	2023-03-28T00:00:00	2024-11-06T05:00:00	4	Temperatura máxima	10.7
144995	7	Sololá	701	Sololá	2	El tablón	3	Marzo	2023-03-28T00:00:00	2024-11-06T05:00:00	3	Temperatura mínima	10.3
144996	7	Sololá	701	Sololá	2	El tablón	3	Marzo	2023-03-28T00:00:00	2024-11-06T05:00:00	5	Humedad	89
144997	7	Sololá	701	Sololá	2	El tablón	3	Marzo	2023-03-28T00:00:00	2024-11-06T05:00:00	6	Velocidad del viento	3.2
144998	7	Sololá	701	Sololá	2	El tablón	3	Marzo	2023-03-28T00:00:00	2024-11-06T05:00:00	7	Dirección del viento	3.22
144999	7	Sololá	701	Sololá	2	El tablón	3	Marzo	2023-03-28T00:00:00	2024-11-06T05:00:00	1	Precipitación	0
145000	7	Sololá	701	Sololá	2	El tablón	3	Marzo	2023-03-28T00:00:00	2024-11-06T05:00:00	8	Radiación solar	0
145001	7	Sololá	701	Sololá	2	El tablón	3	Marzo	2023-03-28T00:00:00	2024-11-06T06:00:00	2	Temperatura media	10.2
145002	7	Sololá	701	Sololá	2	El tablón	3	Marzo	2023-03-28T00:00:00	2024-11-06T06:00:00	4	Temperatura máxima	10.8
145003	7	Sololá	701	Sololá	2	El tablón	3	Marzo	2023-03-28T00:00:00	2024-11-06T06:00:00	3	Temperatura mínima	10.2
145004	7	Sololá	701	Sololá	2	El tablón	3	Marzo	2023-03-28T00:00:00	2024-11-06T06:00:00	5	Humedad	89
145005	7	Sololá	701	Sololá	2	El tablón	3	Marzo	2023-03-28T00:00:00	2024-11-06T06:00:00	6	Velocidad del viento	1.6
145006	7	Sololá	701	Sololá	2	El tablón	3	Marzo	2023-03-28T00:00:00	2024-11-06T06:00:00	7	Dirección del viento	1.61
145007	7	Sololá	701	Sololá	2	El tablón	3	Marzo	2023-03-28T00:00:00	2024-11-06T06:00:00	1	Precipitación	0
145008	7	Sololá	701	Sololá	2	El tablón	3	Marzo	2023-03-28T00:00:00	2024-11-06T06:00:00	8	Radiación solar	0
145009	7	Sololá	701	Sololá	2	El tablón	3	Marzo	2023-03-28T00:00:00	2024-11-06T07:00:00	2	Temperatura media	11.2
145010	7	Sololá	701	Sololá	2	El tablón	3	Marzo	2023-03-28T00:00:00	2024-11-06T07:00:00	4	Temperatura máxima	11.2
145011	7	Sololá	701	Sololá	2	El tablón	3	Marzo	2023-03-28T00:00:00	2024-11-06T07:00:00	3	Temperatura mínima	10.2
145012	7	Sololá	701	Sololá	2	El tablón	3	Marzo	2023-03-28T00:00:00	2024-11-06T07:00:00	5	Humedad	89
145013	7	Sololá	701	Sololá	2	El tablón	3	Marzo	2023-03-28T00:00:00	2024-11-06T07:00:00	6	Velocidad del viento	0
145014	7	Sololá	701	Sololá	2	El tablón	3	Marzo	2023-03-28T00:00:00	2024-11-06T07:00:00	7	Dirección del viento	0
145015	7	Sololá	701	Sololá	2	El tablón	3	Marzo	2023-03-28T00:00:00	2024-11-06T07:00:00	1	Precipitación	0
145016	7	Sololá	701	Sololá	2	El tablón	3	Marzo	2023-03-28T00:00:00	2024-11-06T07:00:00	8	Radiación solar	43
145017	7	Sololá	701	Sololá	2	El tablón	3	Marzo	2023-03-28T00:00:00	2024-11-06T08:00:00	2	Temperatura media	14.3
145018	7	Sololá	701	Sololá	2	El tablón	3	Marzo	2023-03-28T00:00:00	2024-11-06T08:00:00	4	Temperatura máxima	14.3
145019	7	Sololá	701	Sololá	2	El tablón	3	Marzo	2023-03-28T00:00:00	2024-11-06T08:00:00	3	Temperatura mínima	11.2
145020	7	Sololá	701	Sololá	2	El tablón	3	Marzo	2023-03-28T00:00:00	2024-11-06T08:00:00	5	Humedad	79
145021	7	Sololá	701	Sololá	2	El tablón	3	Marzo	2023-03-28T00:00:00	2024-11-06T08:00:00	6	Velocidad del viento	0
145022	7	Sololá	701	Sololá	2	El tablón	3	Marzo	2023-03-28T00:00:00	2024-11-06T08:00:00	7	Dirección del viento	0
145023	7	Sololá	701	Sololá	2	El tablón	3	Marzo	2023-03-28T00:00:00	2024-11-06T08:00:00	1	Precipitación	0
145024	7	Sololá	701	Sololá	2	El tablón	3	Marzo	2023-03-28T00:00:00	2024-11-06T08:00:00	8	Radiación solar	212
145025	7	Sololá	701	Sololá	2	El tablón	3	Marzo	2023-03-28T00:00:00	2024-11-06T09:00:00	2	Temperatura media	16.3
145026	7	Sololá	701	Sololá	2	El tablón	3	Marzo	2023-03-28T00:00:00	2024-11-06T09:00:00	4	Temperatura máxima	16.3
145027	7	Sololá	701	Sololá	2	El tablón	3	Marzo	2023-03-28T00:00:00	2024-11-06T09:00:00	3	Temperatura mínima	14.3
145028	7	Sololá	701	Sololá	2	El tablón	3	Marzo	2023-03-28T00:00:00	2024-11-06T09:00:00	5	Humedad	71
145029	7	Sololá	701	Sololá	2	El tablón	3	Marzo	2023-03-28T00:00:00	2024-11-06T09:00:00	6	Velocidad del viento	1.6
145030	7	Sololá	701	Sololá	2	El tablón	3	Marzo	2023-03-28T00:00:00	2024-11-06T09:00:00	7	Dirección del viento	1.61
145031	7	Sololá	701	Sololá	2	El tablón	3	Marzo	2023-03-28T00:00:00	2024-11-06T09:00:00	1	Precipitación	0
145032	7	Sololá	701	Sololá	2	El tablón	3	Marzo	2023-03-28T00:00:00	2024-11-06T09:00:00	8	Radiación solar	365
145033	7	Sololá	701	Sololá	2	El tablón	3	Marzo	2023-03-28T00:00:00	2024-11-06T10:00:00	2	Temperatura media	17.3
145034	7	Sololá	701	Sololá	2	El tablón	3	Marzo	2023-03-28T00:00:00	2024-11-06T10:00:00	4	Temperatura máxima	17.5
145035	7	Sololá	701	Sololá	2	El tablón	3	Marzo	2023-03-28T00:00:00	2024-11-06T10:00:00	3	Temperatura mínima	16.3
145036	7	Sololá	701	Sololá	2	El tablón	3	Marzo	2023-03-28T00:00:00	2024-11-06T10:00:00	5	Humedad	74
145037	7	Sololá	701	Sololá	2	El tablón	3	Marzo	2023-03-28T00:00:00	2024-11-06T10:00:00	6	Velocidad del viento	4.8
145038	7	Sololá	701	Sololá	2	El tablón	3	Marzo	2023-03-28T00:00:00	2024-11-06T10:00:00	7	Dirección del viento	4.83
145039	7	Sololá	701	Sololá	2	El tablón	3	Marzo	2023-03-28T00:00:00	2024-11-06T10:00:00	1	Precipitación	0
145040	7	Sololá	701	Sololá	2	El tablón	3	Marzo	2023-03-28T00:00:00	2024-11-06T10:00:00	8	Radiación solar	531
145041	7	Sololá	701	Sololá	2	El tablón	3	Marzo	2023-03-28T00:00:00	2024-11-06T11:00:00	2	Temperatura media	16.9
145042	7	Sololá	701	Sololá	2	El tablón	3	Marzo	2023-03-28T00:00:00	2024-11-06T11:00:00	4	Temperatura máxima	17.3
145043	7	Sololá	701	Sololá	2	El tablón	3	Marzo	2023-03-28T00:00:00	2024-11-06T11:00:00	3	Temperatura mínima	16.8
145044	7	Sololá	701	Sololá	2	El tablón	3	Marzo	2023-03-28T00:00:00	2024-11-06T11:00:00	5	Humedad	74
145045	7	Sololá	701	Sololá	2	El tablón	3	Marzo	2023-03-28T00:00:00	2024-11-06T11:00:00	6	Velocidad del viento	3.2
145046	7	Sololá	701	Sololá	2	El tablón	3	Marzo	2023-03-28T00:00:00	2024-11-06T11:00:00	7	Dirección del viento	3.22
145047	7	Sololá	701	Sololá	2	El tablón	3	Marzo	2023-03-28T00:00:00	2024-11-06T11:00:00	1	Precipitación	0
145048	7	Sololá	701	Sololá	2	El tablón	3	Marzo	2023-03-28T00:00:00	2024-11-06T11:00:00	8	Radiación solar	241
145049	7	Sololá	701	Sololá	2	El tablón	3	Marzo	2023-03-28T00:00:00	2024-11-06T12:00:00	2	Temperatura media	18.1
145050	7	Sololá	701	Sololá	2	El tablón	3	Marzo	2023-03-28T00:00:00	2024-11-06T12:00:00	4	Temperatura máxima	18.3
145051	7	Sololá	701	Sololá	2	El tablón	3	Marzo	2023-03-28T00:00:00	2024-11-06T12:00:00	3	Temperatura mínima	16.9
145052	7	Sololá	701	Sololá	2	El tablón	3	Marzo	2023-03-28T00:00:00	2024-11-06T12:00:00	5	Humedad	80
145053	7	Sololá	701	Sololá	2	El tablón	3	Marzo	2023-03-28T00:00:00	2024-11-06T12:00:00	6	Velocidad del viento	8
145054	7	Sololá	701	Sololá	2	El tablón	3	Marzo	2023-03-28T00:00:00	2024-11-06T12:00:00	7	Dirección del viento	8.05
145055	7	Sololá	701	Sololá	2	El tablón	3	Marzo	2023-03-28T00:00:00	2024-11-06T12:00:00	1	Precipitación	0
145056	7	Sololá	701	Sololá	2	El tablón	3	Marzo	2023-03-28T00:00:00	2024-11-06T12:00:00	8	Radiación solar	845
145057	7	Sololá	701	Sololá	2	El tablón	3	Marzo	2023-03-28T00:00:00	2024-11-06T13:00:00	2	Temperatura media	18.5
145058	7	Sololá	701	Sololá	2	El tablón	3	Marzo	2023-03-28T00:00:00	2024-11-06T13:00:00	4	Temperatura máxima	18.5
145059	7	Sololá	701	Sololá	2	El tablón	3	Marzo	2023-03-28T00:00:00	2024-11-06T13:00:00	3	Temperatura mínima	18
145060	7	Sololá	701	Sololá	2	El tablón	3	Marzo	2023-03-28T00:00:00	2024-11-06T13:00:00	5	Humedad	79
145061	7	Sololá	701	Sololá	2	El tablón	3	Marzo	2023-03-28T00:00:00	2024-11-06T13:00:00	6	Velocidad del viento	11.3
145062	7	Sololá	701	Sololá	2	El tablón	3	Marzo	2023-03-28T00:00:00	2024-11-06T13:00:00	7	Dirección del viento	11.27
145063	7	Sololá	701	Sololá	2	El tablón	3	Marzo	2023-03-28T00:00:00	2024-11-06T13:00:00	1	Precipitación	0
145064	7	Sololá	701	Sololá	2	El tablón	3	Marzo	2023-03-28T00:00:00	2024-11-06T13:00:00	8	Radiación solar	1011
145065	7	Sololá	701	Sololá	2	El tablón	3	Marzo	2023-03-28T00:00:00	2024-11-06T14:00:00	2	Temperatura media	17.6
145066	7	Sololá	701	Sololá	2	El tablón	3	Marzo	2023-03-28T00:00:00	2024-11-06T14:00:00	4	Temperatura máxima	18.5
145067	7	Sololá	701	Sololá	2	El tablón	3	Marzo	2023-03-28T00:00:00	2024-11-06T14:00:00	3	Temperatura mínima	17.5
145068	7	Sololá	701	Sololá	2	El tablón	3	Marzo	2023-03-28T00:00:00	2024-11-06T14:00:00	5	Humedad	83
145069	7	Sololá	701	Sololá	2	El tablón	3	Marzo	2023-03-28T00:00:00	2024-11-06T14:00:00	6	Velocidad del viento	9.7
145070	7	Sololá	701	Sololá	2	El tablón	3	Marzo	2023-03-28T00:00:00	2024-11-06T14:00:00	7	Dirección del viento	9.66
145071	7	Sololá	701	Sololá	2	El tablón	3	Marzo	2023-03-28T00:00:00	2024-11-06T14:00:00	1	Precipitación	0
145072	7	Sololá	701	Sololá	2	El tablón	3	Marzo	2023-03-28T00:00:00	2024-11-06T14:00:00	8	Radiación solar	922
145073	7	Sololá	701	Sololá	2	El tablón	3	Marzo	2023-03-28T00:00:00	2024-11-06T15:00:00	2	Temperatura media	18.1
145074	7	Sololá	701	Sololá	2	El tablón	3	Marzo	2023-03-28T00:00:00	2024-11-06T15:00:00	4	Temperatura máxima	18.1
145075	7	Sololá	701	Sololá	2	El tablón	3	Marzo	2023-03-28T00:00:00	2024-11-06T15:00:00	3	Temperatura mínima	16.5
145076	7	Sololá	701	Sololá	2	El tablón	3	Marzo	2023-03-28T00:00:00	2024-11-06T15:00:00	5	Humedad	80
145077	7	Sololá	701	Sololá	2	El tablón	3	Marzo	2023-03-28T00:00:00	2024-11-06T15:00:00	6	Velocidad del viento	8
145078	7	Sololá	701	Sololá	2	El tablón	3	Marzo	2023-03-28T00:00:00	2024-11-06T15:00:00	7	Dirección del viento	8.05
145079	7	Sololá	701	Sololá	2	El tablón	3	Marzo	2023-03-28T00:00:00	2024-11-06T15:00:00	1	Precipitación	0
145080	7	Sololá	701	Sololá	2	El tablón	3	Marzo	2023-03-28T00:00:00	2024-11-06T15:00:00	8	Radiación solar	636
145081	7	Sololá	701	Sololá	2	El tablón	3	Marzo	2023-03-28T00:00:00	2024-11-06T16:00:00	2	Temperatura media	17.8
145082	7	Sololá	701	Sololá	2	El tablón	3	Marzo	2023-03-28T00:00:00	2024-11-06T16:00:00	4	Temperatura máxima	18.3
145083	7	Sololá	701	Sololá	2	El tablón	3	Marzo	2023-03-28T00:00:00	2024-11-06T16:00:00	3	Temperatura mínima	17.5
145084	7	Sololá	701	Sololá	2	El tablón	3	Marzo	2023-03-28T00:00:00	2024-11-06T16:00:00	5	Humedad	82
145085	7	Sololá	701	Sololá	2	El tablón	3	Marzo	2023-03-28T00:00:00	2024-11-06T16:00:00	6	Velocidad del viento	8
145086	7	Sololá	701	Sololá	2	El tablón	3	Marzo	2023-03-28T00:00:00	2024-11-06T16:00:00	7	Dirección del viento	8.05
145087	7	Sololá	701	Sololá	2	El tablón	3	Marzo	2023-03-28T00:00:00	2024-11-06T16:00:00	1	Precipitación	0
145088	7	Sololá	701	Sololá	2	El tablón	3	Marzo	2023-03-28T00:00:00	2024-11-06T16:00:00	8	Radiación solar	536
145089	7	Sololá	701	Sololá	2	El tablón	3	Marzo	2023-03-28T00:00:00	2024-11-06T17:00:00	2	Temperatura media	17.1
145090	7	Sololá	701	Sololá	2	El tablón	3	Marzo	2023-03-28T00:00:00	2024-11-06T17:00:00	4	Temperatura máxima	17.8
145091	7	Sololá	701	Sololá	2	El tablón	3	Marzo	2023-03-28T00:00:00	2024-11-06T17:00:00	3	Temperatura mínima	16.4
145092	7	Sololá	701	Sololá	2	El tablón	3	Marzo	2023-03-28T00:00:00	2024-11-06T17:00:00	5	Humedad	84
145093	7	Sololá	701	Sololá	2	El tablón	3	Marzo	2023-03-28T00:00:00	2024-11-06T17:00:00	6	Velocidad del viento	4.8
145094	7	Sololá	701	Sololá	2	El tablón	3	Marzo	2023-03-28T00:00:00	2024-11-06T17:00:00	7	Dirección del viento	4.83
145095	7	Sololá	701	Sololá	2	El tablón	3	Marzo	2023-03-28T00:00:00	2024-11-06T17:00:00	1	Precipitación	0
145096	7	Sololá	701	Sololá	2	El tablón	3	Marzo	2023-03-28T00:00:00	2024-11-06T17:00:00	8	Radiación solar	252
145097	7	Sololá	701	Sololá	2	El tablón	3	Marzo	2023-03-28T00:00:00	2024-11-06T18:00:00	2	Temperatura media	15.8
145098	7	Sololá	701	Sololá	2	El tablón	3	Marzo	2023-03-28T00:00:00	2024-11-06T18:00:00	4	Temperatura máxima	17.2
145099	7	Sololá	701	Sololá	2	El tablón	3	Marzo	2023-03-28T00:00:00	2024-11-06T18:00:00	3	Temperatura mínima	15.6
145100	7	Sololá	701	Sololá	2	El tablón	3	Marzo	2023-03-28T00:00:00	2024-11-06T18:00:00	5	Humedad	86
145101	7	Sololá	701	Sololá	2	El tablón	3	Marzo	2023-03-28T00:00:00	2024-11-06T18:00:00	6	Velocidad del viento	3.2
145102	7	Sololá	701	Sololá	2	El tablón	3	Marzo	2023-03-28T00:00:00	2024-11-06T18:00:00	7	Dirección del viento	3.22
145103	7	Sololá	701	Sololá	2	El tablón	3	Marzo	2023-03-28T00:00:00	2024-11-06T18:00:00	1	Precipitación	0
145104	7	Sololá	701	Sololá	2	El tablón	3	Marzo	2023-03-28T00:00:00	2024-11-06T18:00:00	8	Radiación solar	82
145105	7	Sololá	701	Sololá	2	El tablón	3	Marzo	2023-03-28T00:00:00	2024-11-06T19:00:00	2	Temperatura media	15.1
145106	7	Sololá	701	Sololá	2	El tablón	3	Marzo	2023-03-28T00:00:00	2024-11-06T19:00:00	4	Temperatura máxima	15.8
145107	7	Sololá	701	Sololá	2	El tablón	3	Marzo	2023-03-28T00:00:00	2024-11-06T19:00:00	3	Temperatura mínima	15.1
145108	7	Sololá	701	Sololá	2	El tablón	3	Marzo	2023-03-28T00:00:00	2024-11-06T19:00:00	5	Humedad	86
145109	7	Sololá	701	Sololá	2	El tablón	3	Marzo	2023-03-28T00:00:00	2024-11-06T19:00:00	6	Velocidad del viento	1.6
145110	7	Sololá	701	Sololá	2	El tablón	3	Marzo	2023-03-28T00:00:00	2024-11-06T19:00:00	7	Dirección del viento	1.61
145111	7	Sololá	701	Sololá	2	El tablón	3	Marzo	2023-03-28T00:00:00	2024-11-06T19:00:00	1	Precipitación	0
145112	7	Sololá	701	Sololá	2	El tablón	3	Marzo	2023-03-28T00:00:00	2024-11-06T19:00:00	8	Radiación solar	0
145113	7	Sololá	701	Sololá	2	El tablón	3	Marzo	2023-03-28T00:00:00	2024-11-06T20:00:00	2	Temperatura media	15.2
145114	7	Sololá	701	Sololá	2	El tablón	3	Marzo	2023-03-28T00:00:00	2024-11-06T20:00:00	4	Temperatura máxima	15.7
145115	7	Sololá	701	Sololá	2	El tablón	3	Marzo	2023-03-28T00:00:00	2024-11-06T20:00:00	3	Temperatura mínima	15
145116	7	Sololá	701	Sololá	2	El tablón	3	Marzo	2023-03-28T00:00:00	2024-11-06T20:00:00	5	Humedad	80
145117	7	Sololá	701	Sololá	2	El tablón	3	Marzo	2023-03-28T00:00:00	2024-11-06T20:00:00	6	Velocidad del viento	4.8
145118	7	Sololá	701	Sololá	2	El tablón	3	Marzo	2023-03-28T00:00:00	2024-11-06T20:00:00	7	Dirección del viento	4.83
145119	7	Sololá	701	Sololá	2	El tablón	3	Marzo	2023-03-28T00:00:00	2024-11-06T20:00:00	1	Precipitación	0
145120	7	Sololá	701	Sololá	2	El tablón	3	Marzo	2023-03-28T00:00:00	2024-11-06T20:00:00	8	Radiación solar	0
145121	7	Sololá	701	Sololá	2	El tablón	3	Marzo	2023-03-28T00:00:00	2024-11-06T21:00:00	2	Temperatura media	14
145122	7	Sololá	701	Sololá	2	El tablón	3	Marzo	2023-03-28T00:00:00	2024-11-06T21:00:00	4	Temperatura máxima	15.2
145123	7	Sololá	701	Sololá	2	El tablón	3	Marzo	2023-03-28T00:00:00	2024-11-06T21:00:00	3	Temperatura mínima	14
145124	7	Sololá	701	Sololá	2	El tablón	3	Marzo	2023-03-28T00:00:00	2024-11-06T21:00:00	5	Humedad	84
145125	7	Sololá	701	Sololá	2	El tablón	3	Marzo	2023-03-28T00:00:00	2024-11-06T21:00:00	6	Velocidad del viento	6.4
145126	7	Sololá	701	Sololá	2	El tablón	3	Marzo	2023-03-28T00:00:00	2024-11-06T21:00:00	7	Dirección del viento	6.44
145127	7	Sololá	701	Sololá	2	El tablón	3	Marzo	2023-03-28T00:00:00	2024-11-06T21:00:00	1	Precipitación	0
145128	7	Sololá	701	Sololá	2	El tablón	3	Marzo	2023-03-28T00:00:00	2024-11-06T21:00:00	8	Radiación solar	0
145129	7	Sololá	701	Sololá	2	El tablón	3	Marzo	2023-03-28T00:00:00	2024-11-06T22:00:00	2	Temperatura media	13.6
145130	7	Sololá	701	Sololá	2	El tablón	3	Marzo	2023-03-28T00:00:00	2024-11-06T22:00:00	4	Temperatura máxima	14
145131	7	Sololá	701	Sololá	2	El tablón	3	Marzo	2023-03-28T00:00:00	2024-11-06T22:00:00	3	Temperatura mínima	13.6
145132	7	Sololá	701	Sololá	2	El tablón	3	Marzo	2023-03-28T00:00:00	2024-11-06T22:00:00	5	Humedad	82
145133	7	Sololá	701	Sololá	2	El tablón	3	Marzo	2023-03-28T00:00:00	2024-11-06T22:00:00	6	Velocidad del viento	9.7
145134	7	Sololá	701	Sololá	2	El tablón	3	Marzo	2023-03-28T00:00:00	2024-11-06T22:00:00	7	Dirección del viento	9.66
145135	7	Sololá	701	Sololá	2	El tablón	3	Marzo	2023-03-28T00:00:00	2024-11-06T22:00:00	1	Precipitación	0
145136	7	Sololá	701	Sololá	2	El tablón	3	Marzo	2023-03-28T00:00:00	2024-11-06T22:00:00	8	Radiación solar	0
145137	7	Sololá	701	Sololá	2	El tablón	3	Marzo	2023-03-28T00:00:00	2024-11-06T23:00:00	2	Temperatura media	13.3
145138	7	Sololá	701	Sololá	2	El tablón	3	Marzo	2023-03-28T00:00:00	2024-11-06T23:00:00	4	Temperatura máxima	13.6
145139	7	Sololá	701	Sololá	2	El tablón	3	Marzo	2023-03-28T00:00:00	2024-11-06T23:00:00	3	Temperatura mínima	13.3
145140	7	Sololá	701	Sololá	2	El tablón	3	Marzo	2023-03-28T00:00:00	2024-11-06T23:00:00	5	Humedad	78
145141	7	Sololá	701	Sololá	2	El tablón	3	Marzo	2023-03-28T00:00:00	2024-11-06T23:00:00	6	Velocidad del viento	9.7
145142	7	Sololá	701	Sololá	2	El tablón	3	Marzo	2023-03-28T00:00:00	2024-11-06T23:00:00	7	Dirección del viento	9.66
145143	7	Sololá	701	Sololá	2	El tablón	3	Marzo	2023-03-28T00:00:00	2024-11-06T23:00:00	1	Precipitación	0
145144	7	Sololá	701	Sololá	2	El tablón	3	Marzo	2023-03-28T00:00:00	2024-11-06T23:00:00	8	Radiación solar	0
145145	7	Sololá	701	Sololá	2	El tablón	3	Marzo	2023-03-29T00:00:00	2024-11-06T00:00:00	2	Temperatura media	13.4
145146	7	Sololá	701	Sololá	2	El tablón	3	Marzo	2023-03-29T00:00:00	2024-11-06T00:00:00	4	Temperatura máxima	13.5
145147	7	Sololá	701	Sololá	2	El tablón	3	Marzo	2023-03-29T00:00:00	2024-11-06T00:00:00	3	Temperatura mínima	13.2
145148	7	Sololá	701	Sololá	2	El tablón	3	Marzo	2023-03-29T00:00:00	2024-11-06T00:00:00	5	Humedad	74
145149	7	Sololá	701	Sololá	2	El tablón	3	Marzo	2023-03-29T00:00:00	2024-11-06T00:00:00	6	Velocidad del viento	12.9
145150	7	Sololá	701	Sololá	2	El tablón	3	Marzo	2023-03-29T00:00:00	2024-11-06T00:00:00	7	Dirección del viento	12.87
145151	7	Sololá	701	Sololá	2	El tablón	3	Marzo	2023-03-29T00:00:00	2024-11-06T00:00:00	1	Precipitación	0
145152	7	Sololá	701	Sololá	2	El tablón	3	Marzo	2023-03-29T00:00:00	2024-11-06T00:00:00	8	Radiación solar	0
145153	7	Sololá	701	Sololá	2	El tablón	3	Marzo	2023-03-29T00:00:00	2024-11-06T01:00:00	2	Temperatura media	13.1
145154	7	Sololá	701	Sololá	2	El tablón	3	Marzo	2023-03-29T00:00:00	2024-11-06T01:00:00	4	Temperatura máxima	13.7
145155	7	Sololá	701	Sololá	2	El tablón	3	Marzo	2023-03-29T00:00:00	2024-11-06T01:00:00	3	Temperatura mínima	13.1
145156	7	Sololá	701	Sololá	2	El tablón	3	Marzo	2023-03-29T00:00:00	2024-11-06T01:00:00	5	Humedad	75
145157	7	Sololá	701	Sololá	2	El tablón	3	Marzo	2023-03-29T00:00:00	2024-11-06T01:00:00	6	Velocidad del viento	16.1
145158	7	Sololá	701	Sololá	2	El tablón	3	Marzo	2023-03-29T00:00:00	2024-11-06T01:00:00	7	Dirección del viento	16.09
145159	7	Sololá	701	Sololá	2	El tablón	3	Marzo	2023-03-29T00:00:00	2024-11-06T01:00:00	1	Precipitación	0
145160	7	Sololá	701	Sololá	2	El tablón	3	Marzo	2023-03-29T00:00:00	2024-11-06T01:00:00	8	Radiación solar	0
145161	7	Sololá	701	Sololá	2	El tablón	3	Marzo	2023-03-29T00:00:00	2024-11-06T02:00:00	2	Temperatura media	12.2
145162	7	Sololá	701	Sololá	2	El tablón	3	Marzo	2023-03-29T00:00:00	2024-11-06T02:00:00	4	Temperatura máxima	13.1
145163	7	Sololá	701	Sololá	2	El tablón	3	Marzo	2023-03-29T00:00:00	2024-11-06T02:00:00	3	Temperatura mínima	12.2
145164	7	Sololá	701	Sololá	2	El tablón	3	Marzo	2023-03-29T00:00:00	2024-11-06T02:00:00	5	Humedad	80
145165	7	Sololá	701	Sololá	2	El tablón	3	Marzo	2023-03-29T00:00:00	2024-11-06T02:00:00	6	Velocidad del viento	14.5
145166	7	Sololá	701	Sololá	2	El tablón	3	Marzo	2023-03-29T00:00:00	2024-11-06T02:00:00	7	Dirección del viento	14.48
145167	7	Sololá	701	Sololá	2	El tablón	3	Marzo	2023-03-29T00:00:00	2024-11-06T02:00:00	1	Precipitación	0
145168	7	Sololá	701	Sololá	2	El tablón	3	Marzo	2023-03-29T00:00:00	2024-11-06T02:00:00	8	Radiación solar	0
145169	7	Sololá	701	Sololá	2	El tablón	3	Marzo	2023-03-29T00:00:00	2024-11-06T03:00:00	2	Temperatura media	11.9
145170	7	Sololá	701	Sololá	2	El tablón	3	Marzo	2023-03-29T00:00:00	2024-11-06T03:00:00	4	Temperatura máxima	12.2
145171	7	Sololá	701	Sololá	2	El tablón	3	Marzo	2023-03-29T00:00:00	2024-11-06T03:00:00	3	Temperatura mínima	11.9
145172	7	Sololá	701	Sololá	2	El tablón	3	Marzo	2023-03-29T00:00:00	2024-11-06T03:00:00	5	Humedad	80
145173	7	Sololá	701	Sololá	2	El tablón	3	Marzo	2023-03-29T00:00:00	2024-11-06T03:00:00	6	Velocidad del viento	12.9
145174	7	Sololá	701	Sololá	2	El tablón	3	Marzo	2023-03-29T00:00:00	2024-11-06T03:00:00	7	Dirección del viento	12.87
145175	7	Sololá	701	Sololá	2	El tablón	3	Marzo	2023-03-29T00:00:00	2024-11-06T03:00:00	1	Precipitación	0
145176	7	Sololá	701	Sololá	2	El tablón	3	Marzo	2023-03-29T00:00:00	2024-11-06T03:00:00	8	Radiación solar	0
145177	7	Sololá	701	Sololá	2	El tablón	3	Marzo	2023-03-29T00:00:00	2024-11-06T04:00:00	2	Temperatura media	12.3
145178	7	Sololá	701	Sololá	2	El tablón	3	Marzo	2023-03-29T00:00:00	2024-11-06T04:00:00	4	Temperatura máxima	12.3
145179	7	Sololá	701	Sololá	2	El tablón	3	Marzo	2023-03-29T00:00:00	2024-11-06T04:00:00	3	Temperatura mínima	11.9
145180	7	Sololá	701	Sololá	2	El tablón	3	Marzo	2023-03-29T00:00:00	2024-11-06T04:00:00	5	Humedad	77
145181	7	Sololá	701	Sololá	2	El tablón	3	Marzo	2023-03-29T00:00:00	2024-11-06T04:00:00	6	Velocidad del viento	12.9
145182	7	Sololá	701	Sololá	2	El tablón	3	Marzo	2023-03-29T00:00:00	2024-11-06T04:00:00	7	Dirección del viento	12.87
145183	7	Sololá	701	Sololá	2	El tablón	3	Marzo	2023-03-29T00:00:00	2024-11-06T04:00:00	1	Precipitación	0
145184	7	Sololá	701	Sololá	2	El tablón	3	Marzo	2023-03-29T00:00:00	2024-11-06T04:00:00	8	Radiación solar	0
145185	7	Sololá	701	Sololá	2	El tablón	3	Marzo	2023-03-29T00:00:00	2024-11-06T05:00:00	2	Temperatura media	12.7
145186	7	Sololá	701	Sololá	2	El tablón	3	Marzo	2023-03-29T00:00:00	2024-11-06T05:00:00	4	Temperatura máxima	12.9
145187	7	Sololá	701	Sololá	2	El tablón	3	Marzo	2023-03-29T00:00:00	2024-11-06T05:00:00	3	Temperatura mínima	12.3
145188	7	Sololá	701	Sololá	2	El tablón	3	Marzo	2023-03-29T00:00:00	2024-11-06T05:00:00	5	Humedad	76
145189	7	Sololá	701	Sololá	2	El tablón	3	Marzo	2023-03-29T00:00:00	2024-11-06T05:00:00	6	Velocidad del viento	12.9
145190	7	Sololá	701	Sololá	2	El tablón	3	Marzo	2023-03-29T00:00:00	2024-11-06T05:00:00	7	Dirección del viento	12.87
145191	7	Sololá	701	Sololá	2	El tablón	3	Marzo	2023-03-29T00:00:00	2024-11-06T05:00:00	1	Precipitación	0
145192	7	Sololá	701	Sololá	2	El tablón	3	Marzo	2023-03-29T00:00:00	2024-11-06T05:00:00	8	Radiación solar	0
145193	7	Sololá	701	Sololá	2	El tablón	3	Marzo	2023-03-29T00:00:00	2024-11-06T06:00:00	2	Temperatura media	11.4
145194	7	Sololá	701	Sololá	2	El tablón	3	Marzo	2023-03-29T00:00:00	2024-11-06T06:00:00	4	Temperatura máxima	12.8
145195	7	Sololá	701	Sololá	2	El tablón	3	Marzo	2023-03-29T00:00:00	2024-11-06T06:00:00	3	Temperatura mínima	11.4
145196	7	Sololá	701	Sololá	2	El tablón	3	Marzo	2023-03-29T00:00:00	2024-11-06T06:00:00	5	Humedad	82
145197	7	Sololá	701	Sololá	2	El tablón	3	Marzo	2023-03-29T00:00:00	2024-11-06T06:00:00	6	Velocidad del viento	11.3
145198	7	Sololá	701	Sololá	2	El tablón	3	Marzo	2023-03-29T00:00:00	2024-11-06T06:00:00	7	Dirección del viento	11.27
145199	7	Sololá	701	Sololá	2	El tablón	3	Marzo	2023-03-29T00:00:00	2024-11-06T06:00:00	1	Precipitación	0
145200	7	Sololá	701	Sololá	2	El tablón	3	Marzo	2023-03-29T00:00:00	2024-11-06T06:00:00	8	Radiación solar	0
145201	7	Sololá	701	Sololá	2	El tablón	3	Marzo	2023-03-29T00:00:00	2024-11-06T07:00:00	2	Temperatura media	12.4
145202	7	Sololá	701	Sololá	2	El tablón	3	Marzo	2023-03-29T00:00:00	2024-11-06T07:00:00	4	Temperatura máxima	12.4
145203	7	Sololá	701	Sololá	2	El tablón	3	Marzo	2023-03-29T00:00:00	2024-11-06T07:00:00	3	Temperatura mínima	11.3
145204	7	Sololá	701	Sololá	2	El tablón	3	Marzo	2023-03-29T00:00:00	2024-11-06T07:00:00	5	Humedad	80
145205	7	Sololá	701	Sololá	2	El tablón	3	Marzo	2023-03-29T00:00:00	2024-11-06T07:00:00	6	Velocidad del viento	11.3
145206	7	Sololá	701	Sololá	2	El tablón	3	Marzo	2023-03-29T00:00:00	2024-11-06T07:00:00	7	Dirección del viento	11.27
145207	7	Sololá	701	Sololá	2	El tablón	3	Marzo	2023-03-29T00:00:00	2024-11-06T07:00:00	1	Precipitación	0
145208	7	Sololá	701	Sololá	2	El tablón	3	Marzo	2023-03-29T00:00:00	2024-11-06T07:00:00	8	Radiación solar	39
145209	7	Sololá	701	Sololá	2	El tablón	3	Marzo	2023-03-29T00:00:00	2024-11-06T08:00:00	2	Temperatura media	13.2
145210	7	Sololá	701	Sololá	2	El tablón	3	Marzo	2023-03-29T00:00:00	2024-11-06T08:00:00	4	Temperatura máxima	13.2
145211	7	Sololá	701	Sololá	2	El tablón	3	Marzo	2023-03-29T00:00:00	2024-11-06T08:00:00	3	Temperatura mínima	12.4
145212	7	Sololá	701	Sololá	2	El tablón	3	Marzo	2023-03-29T00:00:00	2024-11-06T08:00:00	5	Humedad	81
145213	7	Sololá	701	Sololá	2	El tablón	3	Marzo	2023-03-29T00:00:00	2024-11-06T08:00:00	6	Velocidad del viento	12.9
145214	7	Sololá	701	Sololá	2	El tablón	3	Marzo	2023-03-29T00:00:00	2024-11-06T08:00:00	7	Dirección del viento	12.87
145215	7	Sololá	701	Sololá	2	El tablón	3	Marzo	2023-03-29T00:00:00	2024-11-06T08:00:00	1	Precipitación	0
145216	7	Sololá	701	Sololá	2	El tablón	3	Marzo	2023-03-29T00:00:00	2024-11-06T08:00:00	8	Radiación solar	211
145217	7	Sololá	701	Sololá	2	El tablón	3	Marzo	2023-03-29T00:00:00	2024-11-06T09:00:00	2	Temperatura media	14.1
145218	7	Sololá	701	Sololá	2	El tablón	3	Marzo	2023-03-29T00:00:00	2024-11-06T09:00:00	4	Temperatura máxima	14.2
145219	7	Sololá	701	Sololá	2	El tablón	3	Marzo	2023-03-29T00:00:00	2024-11-06T09:00:00	3	Temperatura mínima	13.2
145220	7	Sololá	701	Sololá	2	El tablón	3	Marzo	2023-03-29T00:00:00	2024-11-06T09:00:00	5	Humedad	79
145221	7	Sololá	701	Sololá	2	El tablón	3	Marzo	2023-03-29T00:00:00	2024-11-06T09:00:00	6	Velocidad del viento	14.5
145222	7	Sololá	701	Sololá	2	El tablón	3	Marzo	2023-03-29T00:00:00	2024-11-06T09:00:00	7	Dirección del viento	14.48
145223	7	Sololá	701	Sololá	2	El tablón	3	Marzo	2023-03-29T00:00:00	2024-11-06T09:00:00	1	Precipitación	0
145224	7	Sololá	701	Sololá	2	El tablón	3	Marzo	2023-03-29T00:00:00	2024-11-06T09:00:00	8	Radiación solar	348
145225	7	Sololá	701	Sololá	2	El tablón	3	Marzo	2023-03-29T00:00:00	2024-11-06T10:00:00	2	Temperatura media	16.3
145226	7	Sololá	701	Sololá	2	El tablón	3	Marzo	2023-03-29T00:00:00	2024-11-06T10:00:00	4	Temperatura máxima	16.3
145227	7	Sololá	701	Sololá	2	El tablón	3	Marzo	2023-03-29T00:00:00	2024-11-06T10:00:00	3	Temperatura mínima	13.8
145228	7	Sololá	701	Sololá	2	El tablón	3	Marzo	2023-03-29T00:00:00	2024-11-06T10:00:00	5	Humedad	70
145229	7	Sololá	701	Sololá	2	El tablón	3	Marzo	2023-03-29T00:00:00	2024-11-06T10:00:00	6	Velocidad del viento	12.9
145230	7	Sololá	701	Sololá	2	El tablón	3	Marzo	2023-03-29T00:00:00	2024-11-06T10:00:00	7	Dirección del viento	12.87
145231	7	Sololá	701	Sololá	2	El tablón	3	Marzo	2023-03-29T00:00:00	2024-11-06T10:00:00	1	Precipitación	0
145232	7	Sololá	701	Sololá	2	El tablón	3	Marzo	2023-03-29T00:00:00	2024-11-06T10:00:00	8	Radiación solar	660
145233	7	Sololá	701	Sololá	2	El tablón	3	Marzo	2023-03-29T00:00:00	2024-11-06T11:00:00	2	Temperatura media	17.8
145234	7	Sololá	701	Sololá	2	El tablón	3	Marzo	2023-03-29T00:00:00	2024-11-06T11:00:00	4	Temperatura máxima	17.8
145235	7	Sololá	701	Sololá	2	El tablón	3	Marzo	2023-03-29T00:00:00	2024-11-06T11:00:00	3	Temperatura mínima	16.3
145236	7	Sololá	701	Sololá	2	El tablón	3	Marzo	2023-03-29T00:00:00	2024-11-06T11:00:00	5	Humedad	59
145237	7	Sololá	701	Sololá	2	El tablón	3	Marzo	2023-03-29T00:00:00	2024-11-06T11:00:00	6	Velocidad del viento	12.9
145238	7	Sololá	701	Sololá	2	El tablón	3	Marzo	2023-03-29T00:00:00	2024-11-06T11:00:00	7	Dirección del viento	12.87
145239	7	Sololá	701	Sololá	2	El tablón	3	Marzo	2023-03-29T00:00:00	2024-11-06T11:00:00	1	Precipitación	0
145240	7	Sololá	701	Sololá	2	El tablón	3	Marzo	2023-03-29T00:00:00	2024-11-06T11:00:00	8	Radiación solar	854
145241	7	Sololá	701	Sololá	2	El tablón	3	Marzo	2023-03-29T00:00:00	2024-11-06T12:00:00	2	Temperatura media	18.2
145242	7	Sololá	701	Sololá	2	El tablón	3	Marzo	2023-03-29T00:00:00	2024-11-06T12:00:00	4	Temperatura máxima	18.2
145243	7	Sololá	701	Sololá	2	El tablón	3	Marzo	2023-03-29T00:00:00	2024-11-06T12:00:00	3	Temperatura mínima	17
145244	7	Sololá	701	Sololá	2	El tablón	3	Marzo	2023-03-29T00:00:00	2024-11-06T12:00:00	5	Humedad	54
145245	7	Sololá	701	Sololá	2	El tablón	3	Marzo	2023-03-29T00:00:00	2024-11-06T12:00:00	6	Velocidad del viento	16.1
145246	7	Sololá	701	Sololá	2	El tablón	3	Marzo	2023-03-29T00:00:00	2024-11-06T12:00:00	7	Dirección del viento	16.09
145247	7	Sololá	701	Sololá	2	El tablón	3	Marzo	2023-03-29T00:00:00	2024-11-06T12:00:00	1	Precipitación	0
145248	7	Sololá	701	Sololá	2	El tablón	3	Marzo	2023-03-29T00:00:00	2024-11-06T12:00:00	8	Radiación solar	881
145249	7	Sololá	701	Sololá	2	El tablón	3	Marzo	2023-03-29T00:00:00	2024-11-06T13:00:00	2	Temperatura media	19.1
145250	7	Sololá	701	Sololá	2	El tablón	3	Marzo	2023-03-29T00:00:00	2024-11-06T13:00:00	4	Temperatura máxima	19.1
145251	7	Sololá	701	Sololá	2	El tablón	3	Marzo	2023-03-29T00:00:00	2024-11-06T13:00:00	3	Temperatura mínima	18.2
145252	7	Sololá	701	Sololá	2	El tablón	3	Marzo	2023-03-29T00:00:00	2024-11-06T13:00:00	5	Humedad	52
145253	7	Sololá	701	Sololá	2	El tablón	3	Marzo	2023-03-29T00:00:00	2024-11-06T13:00:00	6	Velocidad del viento	14.5
145254	7	Sololá	701	Sololá	2	El tablón	3	Marzo	2023-03-29T00:00:00	2024-11-06T13:00:00	7	Dirección del viento	14.48
145255	7	Sololá	701	Sololá	2	El tablón	3	Marzo	2023-03-29T00:00:00	2024-11-06T13:00:00	1	Precipitación	0
145256	7	Sololá	701	Sololá	2	El tablón	3	Marzo	2023-03-29T00:00:00	2024-11-06T13:00:00	8	Radiación solar	959
145257	7	Sololá	701	Sololá	2	El tablón	3	Marzo	2023-03-29T00:00:00	2024-11-06T14:00:00	2	Temperatura media	19.4
145258	7	Sololá	701	Sololá	2	El tablón	3	Marzo	2023-03-29T00:00:00	2024-11-06T14:00:00	4	Temperatura máxima	19.8
145259	7	Sololá	701	Sololá	2	El tablón	3	Marzo	2023-03-29T00:00:00	2024-11-06T14:00:00	3	Temperatura mínima	18.9
145260	7	Sololá	701	Sololá	2	El tablón	3	Marzo	2023-03-29T00:00:00	2024-11-06T14:00:00	5	Humedad	50
145261	7	Sololá	701	Sololá	2	El tablón	3	Marzo	2023-03-29T00:00:00	2024-11-06T14:00:00	6	Velocidad del viento	12.9
145262	7	Sololá	701	Sololá	2	El tablón	3	Marzo	2023-03-29T00:00:00	2024-11-06T14:00:00	7	Dirección del viento	12.87
145263	7	Sololá	701	Sololá	2	El tablón	3	Marzo	2023-03-29T00:00:00	2024-11-06T14:00:00	1	Precipitación	0
145264	7	Sololá	701	Sololá	2	El tablón	3	Marzo	2023-03-29T00:00:00	2024-11-06T14:00:00	8	Radiación solar	895
145265	7	Sololá	701	Sololá	2	El tablón	3	Marzo	2023-03-29T00:00:00	2024-11-06T15:00:00	2	Temperatura media	18.9
145266	7	Sololá	701	Sololá	2	El tablón	3	Marzo	2023-03-29T00:00:00	2024-11-06T15:00:00	4	Temperatura máxima	19.8
145267	7	Sololá	701	Sololá	2	El tablón	3	Marzo	2023-03-29T00:00:00	2024-11-06T15:00:00	3	Temperatura mínima	18.9
145268	7	Sololá	701	Sololá	2	El tablón	3	Marzo	2023-03-29T00:00:00	2024-11-06T15:00:00	5	Humedad	51
145269	7	Sololá	701	Sololá	2	El tablón	3	Marzo	2023-03-29T00:00:00	2024-11-06T15:00:00	6	Velocidad del viento	14.5
145270	7	Sololá	701	Sololá	2	El tablón	3	Marzo	2023-03-29T00:00:00	2024-11-06T15:00:00	7	Dirección del viento	14.48
145271	7	Sololá	701	Sololá	2	El tablón	3	Marzo	2023-03-29T00:00:00	2024-11-06T15:00:00	1	Precipitación	0
145272	7	Sololá	701	Sololá	2	El tablón	3	Marzo	2023-03-29T00:00:00	2024-11-06T15:00:00	8	Radiación solar	814
145273	7	Sololá	701	Sololá	2	El tablón	3	Marzo	2023-03-29T00:00:00	2024-11-06T16:00:00	2	Temperatura media	18.6
145274	7	Sololá	701	Sololá	2	El tablón	3	Marzo	2023-03-29T00:00:00	2024-11-06T16:00:00	4	Temperatura máxima	19.1
145275	7	Sololá	701	Sololá	2	El tablón	3	Marzo	2023-03-29T00:00:00	2024-11-06T16:00:00	3	Temperatura mínima	18.5
145276	7	Sololá	701	Sololá	2	El tablón	3	Marzo	2023-03-29T00:00:00	2024-11-06T16:00:00	5	Humedad	49
145277	7	Sololá	701	Sololá	2	El tablón	3	Marzo	2023-03-29T00:00:00	2024-11-06T16:00:00	6	Velocidad del viento	12.9
145278	7	Sololá	701	Sololá	2	El tablón	3	Marzo	2023-03-29T00:00:00	2024-11-06T16:00:00	7	Dirección del viento	12.87
145279	7	Sololá	701	Sololá	2	El tablón	3	Marzo	2023-03-29T00:00:00	2024-11-06T16:00:00	1	Precipitación	0
145280	7	Sololá	701	Sololá	2	El tablón	3	Marzo	2023-03-29T00:00:00	2024-11-06T16:00:00	8	Radiación solar	601
145281	7	Sololá	701	Sololá	2	El tablón	3	Marzo	2023-03-29T00:00:00	2024-11-06T17:00:00	2	Temperatura media	17.7
145282	7	Sololá	701	Sololá	2	El tablón	3	Marzo	2023-03-29T00:00:00	2024-11-06T17:00:00	4	Temperatura máxima	18.8
145283	7	Sololá	701	Sololá	2	El tablón	3	Marzo	2023-03-29T00:00:00	2024-11-06T17:00:00	3	Temperatura mínima	17.6
145284	7	Sololá	701	Sololá	2	El tablón	3	Marzo	2023-03-29T00:00:00	2024-11-06T17:00:00	5	Humedad	56
145285	7	Sololá	701	Sololá	2	El tablón	3	Marzo	2023-03-29T00:00:00	2024-11-06T17:00:00	6	Velocidad del viento	12.9
145286	7	Sololá	701	Sololá	2	El tablón	3	Marzo	2023-03-29T00:00:00	2024-11-06T17:00:00	7	Dirección del viento	12.87
145287	7	Sololá	701	Sololá	2	El tablón	3	Marzo	2023-03-29T00:00:00	2024-11-06T17:00:00	1	Precipitación	0
145288	7	Sololá	701	Sololá	2	El tablón	3	Marzo	2023-03-29T00:00:00	2024-11-06T17:00:00	8	Radiación solar	375
145289	7	Sololá	701	Sololá	2	El tablón	3	Marzo	2023-03-29T00:00:00	2024-11-06T18:00:00	2	Temperatura media	15.8
145290	7	Sololá	701	Sololá	2	El tablón	3	Marzo	2023-03-29T00:00:00	2024-11-06T18:00:00	4	Temperatura máxima	17.7
145291	7	Sololá	701	Sololá	2	El tablón	3	Marzo	2023-03-29T00:00:00	2024-11-06T18:00:00	3	Temperatura mínima	15.8
145292	7	Sololá	701	Sololá	2	El tablón	3	Marzo	2023-03-29T00:00:00	2024-11-06T18:00:00	5	Humedad	62
145293	7	Sololá	701	Sololá	2	El tablón	3	Marzo	2023-03-29T00:00:00	2024-11-06T18:00:00	6	Velocidad del viento	11.3
145294	7	Sololá	701	Sololá	2	El tablón	3	Marzo	2023-03-29T00:00:00	2024-11-06T18:00:00	7	Dirección del viento	11.27
145295	7	Sololá	701	Sololá	2	El tablón	3	Marzo	2023-03-29T00:00:00	2024-11-06T18:00:00	1	Precipitación	0
145296	7	Sololá	701	Sololá	2	El tablón	3	Marzo	2023-03-29T00:00:00	2024-11-06T18:00:00	8	Radiación solar	130
145297	7	Sololá	701	Sololá	2	El tablón	3	Marzo	2023-03-29T00:00:00	2024-11-06T19:00:00	2	Temperatura media	13.6
145298	7	Sololá	701	Sololá	2	El tablón	3	Marzo	2023-03-29T00:00:00	2024-11-06T19:00:00	4	Temperatura máxima	15.8
145299	7	Sololá	701	Sololá	2	El tablón	3	Marzo	2023-03-29T00:00:00	2024-11-06T19:00:00	3	Temperatura mínima	13.6
145300	7	Sololá	701	Sololá	2	El tablón	3	Marzo	2023-03-29T00:00:00	2024-11-06T19:00:00	5	Humedad	73
145301	7	Sololá	701	Sololá	2	El tablón	3	Marzo	2023-03-29T00:00:00	2024-11-06T19:00:00	6	Velocidad del viento	12.9
145302	7	Sololá	701	Sololá	2	El tablón	3	Marzo	2023-03-29T00:00:00	2024-11-06T19:00:00	7	Dirección del viento	12.87
145303	7	Sololá	701	Sololá	2	El tablón	3	Marzo	2023-03-29T00:00:00	2024-11-06T19:00:00	1	Precipitación	0
145304	7	Sololá	701	Sololá	2	El tablón	3	Marzo	2023-03-29T00:00:00	2024-11-06T19:00:00	8	Radiación solar	0
145305	7	Sololá	701	Sololá	2	El tablón	3	Marzo	2023-03-29T00:00:00	2024-11-06T20:00:00	2	Temperatura media	12.2
145306	7	Sololá	701	Sololá	2	El tablón	3	Marzo	2023-03-29T00:00:00	2024-11-06T20:00:00	4	Temperatura máxima	13.6
145307	7	Sololá	701	Sololá	2	El tablón	3	Marzo	2023-03-29T00:00:00	2024-11-06T20:00:00	3	Temperatura mínima	12.2
145308	7	Sololá	701	Sololá	2	El tablón	3	Marzo	2023-03-29T00:00:00	2024-11-06T20:00:00	5	Humedad	81
145309	7	Sololá	701	Sololá	2	El tablón	3	Marzo	2023-03-29T00:00:00	2024-11-06T20:00:00	6	Velocidad del viento	16.1
145310	7	Sololá	701	Sololá	2	El tablón	3	Marzo	2023-03-29T00:00:00	2024-11-06T20:00:00	7	Dirección del viento	16.09
145311	7	Sololá	701	Sololá	2	El tablón	3	Marzo	2023-03-29T00:00:00	2024-11-06T20:00:00	1	Precipitación	0
145312	7	Sololá	701	Sololá	2	El tablón	3	Marzo	2023-03-29T00:00:00	2024-11-06T20:00:00	8	Radiación solar	0
145313	7	Sololá	701	Sololá	2	El tablón	3	Marzo	2023-03-29T00:00:00	2024-11-06T21:00:00	2	Temperatura media	11.6
145314	7	Sololá	701	Sololá	2	El tablón	3	Marzo	2023-03-29T00:00:00	2024-11-06T21:00:00	4	Temperatura máxima	12.2
145315	7	Sololá	701	Sololá	2	El tablón	3	Marzo	2023-03-29T00:00:00	2024-11-06T21:00:00	3	Temperatura mínima	11.5
145316	7	Sololá	701	Sololá	2	El tablón	3	Marzo	2023-03-29T00:00:00	2024-11-06T21:00:00	5	Humedad	79
145317	7	Sololá	701	Sololá	2	El tablón	3	Marzo	2023-03-29T00:00:00	2024-11-06T21:00:00	6	Velocidad del viento	12.9
145318	7	Sololá	701	Sololá	2	El tablón	3	Marzo	2023-03-29T00:00:00	2024-11-06T21:00:00	7	Dirección del viento	12.87
145319	7	Sololá	701	Sololá	2	El tablón	3	Marzo	2023-03-29T00:00:00	2024-11-06T21:00:00	1	Precipitación	0
145320	7	Sololá	701	Sololá	2	El tablón	3	Marzo	2023-03-29T00:00:00	2024-11-06T21:00:00	8	Radiación solar	0
145321	7	Sololá	701	Sololá	2	El tablón	3	Marzo	2023-03-29T00:00:00	2024-11-06T22:00:00	2	Temperatura media	11.2
145322	7	Sololá	701	Sololá	2	El tablón	3	Marzo	2023-03-29T00:00:00	2024-11-06T22:00:00	4	Temperatura máxima	11.6
145323	7	Sololá	701	Sololá	2	El tablón	3	Marzo	2023-03-29T00:00:00	2024-11-06T22:00:00	3	Temperatura mínima	11.1
145324	7	Sololá	701	Sololá	2	El tablón	3	Marzo	2023-03-29T00:00:00	2024-11-06T22:00:00	5	Humedad	78
145325	7	Sololá	701	Sololá	2	El tablón	3	Marzo	2023-03-29T00:00:00	2024-11-06T22:00:00	6	Velocidad del viento	9.7
145326	7	Sololá	701	Sololá	2	El tablón	3	Marzo	2023-03-29T00:00:00	2024-11-06T22:00:00	7	Dirección del viento	9.66
145327	7	Sololá	701	Sololá	2	El tablón	3	Marzo	2023-03-29T00:00:00	2024-11-06T22:00:00	1	Precipitación	0
145328	7	Sololá	701	Sololá	2	El tablón	3	Marzo	2023-03-29T00:00:00	2024-11-06T22:00:00	8	Radiación solar	0
145329	7	Sololá	701	Sololá	2	El tablón	3	Marzo	2023-03-29T00:00:00	2024-11-06T23:00:00	2	Temperatura media	10.8
145330	7	Sololá	701	Sololá	2	El tablón	3	Marzo	2023-03-29T00:00:00	2024-11-06T23:00:00	4	Temperatura máxima	11.3
145331	7	Sololá	701	Sololá	2	El tablón	3	Marzo	2023-03-29T00:00:00	2024-11-06T23:00:00	3	Temperatura mínima	10.8
145332	7	Sololá	701	Sololá	2	El tablón	3	Marzo	2023-03-29T00:00:00	2024-11-06T23:00:00	5	Humedad	80
145333	7	Sololá	701	Sololá	2	El tablón	3	Marzo	2023-03-29T00:00:00	2024-11-06T23:00:00	6	Velocidad del viento	11.3
145334	7	Sololá	701	Sololá	2	El tablón	3	Marzo	2023-03-29T00:00:00	2024-11-06T23:00:00	7	Dirección del viento	11.27
145335	7	Sololá	701	Sololá	2	El tablón	3	Marzo	2023-03-29T00:00:00	2024-11-06T23:00:00	1	Precipitación	0
145336	7	Sololá	701	Sololá	2	El tablón	3	Marzo	2023-03-29T00:00:00	2024-11-06T23:00:00	8	Radiación solar	0
145337	7	Sololá	701	Sololá	2	El tablón	3	Marzo	2023-03-30T00:00:00	2024-11-06T00:00:00	2	Temperatura media	10.6
145338	7	Sololá	701	Sololá	2	El tablón	3	Marzo	2023-03-30T00:00:00	2024-11-06T00:00:00	4	Temperatura máxima	10.9
145339	7	Sololá	701	Sololá	2	El tablón	3	Marzo	2023-03-30T00:00:00	2024-11-06T00:00:00	3	Temperatura mínima	10.6
145340	7	Sololá	701	Sololá	2	El tablón	3	Marzo	2023-03-30T00:00:00	2024-11-06T00:00:00	5	Humedad	83
145341	7	Sololá	701	Sololá	2	El tablón	3	Marzo	2023-03-30T00:00:00	2024-11-06T00:00:00	6	Velocidad del viento	14.5
145342	7	Sololá	701	Sololá	2	El tablón	3	Marzo	2023-03-30T00:00:00	2024-11-06T00:00:00	7	Dirección del viento	14.48
145343	7	Sololá	701	Sololá	2	El tablón	3	Marzo	2023-03-30T00:00:00	2024-11-06T00:00:00	1	Precipitación	0
145344	7	Sololá	701	Sololá	2	El tablón	3	Marzo	2023-03-30T00:00:00	2024-11-06T00:00:00	8	Radiación solar	0
145345	7	Sololá	701	Sololá	2	El tablón	3	Marzo	2023-03-30T00:00:00	2024-11-06T01:00:00	2	Temperatura media	10.4
145346	7	Sololá	701	Sololá	2	El tablón	3	Marzo	2023-03-30T00:00:00	2024-11-06T01:00:00	4	Temperatura máxima	10.8
145347	7	Sololá	701	Sololá	2	El tablón	3	Marzo	2023-03-30T00:00:00	2024-11-06T01:00:00	3	Temperatura mínima	10.3
145348	7	Sololá	701	Sololá	2	El tablón	3	Marzo	2023-03-30T00:00:00	2024-11-06T01:00:00	5	Humedad	82
145349	7	Sololá	701	Sololá	2	El tablón	3	Marzo	2023-03-30T00:00:00	2024-11-06T01:00:00	6	Velocidad del viento	12.9
145350	7	Sololá	701	Sololá	2	El tablón	3	Marzo	2023-03-30T00:00:00	2024-11-06T01:00:00	7	Dirección del viento	12.87
145351	7	Sololá	701	Sololá	2	El tablón	3	Marzo	2023-03-30T00:00:00	2024-11-06T01:00:00	1	Precipitación	0
145352	7	Sololá	701	Sololá	2	El tablón	3	Marzo	2023-03-30T00:00:00	2024-11-06T01:00:00	8	Radiación solar	0
145353	7	Sololá	701	Sololá	2	El tablón	3	Marzo	2023-03-30T00:00:00	2024-11-06T02:00:00	2	Temperatura media	10
145354	7	Sololá	701	Sololá	2	El tablón	3	Marzo	2023-03-30T00:00:00	2024-11-06T02:00:00	4	Temperatura máxima	10.4
145355	7	Sololá	701	Sololá	2	El tablón	3	Marzo	2023-03-30T00:00:00	2024-11-06T02:00:00	3	Temperatura mínima	10
145356	7	Sololá	701	Sololá	2	El tablón	3	Marzo	2023-03-30T00:00:00	2024-11-06T02:00:00	5	Humedad	82
145357	7	Sololá	701	Sololá	2	El tablón	3	Marzo	2023-03-30T00:00:00	2024-11-06T02:00:00	6	Velocidad del viento	8
145358	7	Sololá	701	Sololá	2	El tablón	3	Marzo	2023-03-30T00:00:00	2024-11-06T02:00:00	7	Dirección del viento	8.05
145359	7	Sololá	701	Sololá	2	El tablón	3	Marzo	2023-03-30T00:00:00	2024-11-06T02:00:00	1	Precipitación	0
145360	7	Sololá	701	Sololá	2	El tablón	3	Marzo	2023-03-30T00:00:00	2024-11-06T02:00:00	8	Radiación solar	0
145361	7	Sololá	701	Sololá	2	El tablón	3	Marzo	2023-03-30T00:00:00	2024-11-06T03:00:00	2	Temperatura media	9.4
145362	7	Sololá	701	Sololá	2	El tablón	3	Marzo	2023-03-30T00:00:00	2024-11-06T03:00:00	4	Temperatura máxima	10
145363	7	Sololá	701	Sololá	2	El tablón	3	Marzo	2023-03-30T00:00:00	2024-11-06T03:00:00	3	Temperatura mínima	9.4
145364	7	Sololá	701	Sololá	2	El tablón	3	Marzo	2023-03-30T00:00:00	2024-11-06T03:00:00	5	Humedad	81
145365	7	Sololá	701	Sololá	2	El tablón	3	Marzo	2023-03-30T00:00:00	2024-11-06T03:00:00	6	Velocidad del viento	6.4
145366	7	Sololá	701	Sololá	2	El tablón	3	Marzo	2023-03-30T00:00:00	2024-11-06T03:00:00	7	Dirección del viento	6.44
145367	7	Sololá	701	Sololá	2	El tablón	3	Marzo	2023-03-30T00:00:00	2024-11-06T03:00:00	1	Precipitación	0
145368	7	Sololá	701	Sololá	2	El tablón	3	Marzo	2023-03-30T00:00:00	2024-11-06T03:00:00	8	Radiación solar	0
145369	7	Sololá	701	Sololá	2	El tablón	3	Marzo	2023-03-30T00:00:00	2024-11-06T04:00:00	2	Temperatura media	9.2
145370	7	Sololá	701	Sololá	2	El tablón	3	Marzo	2023-03-30T00:00:00	2024-11-06T04:00:00	4	Temperatura máxima	9.4
145371	7	Sololá	701	Sololá	2	El tablón	3	Marzo	2023-03-30T00:00:00	2024-11-06T04:00:00	3	Temperatura mínima	9.2
145372	7	Sololá	701	Sololá	2	El tablón	3	Marzo	2023-03-30T00:00:00	2024-11-06T04:00:00	5	Humedad	77
145373	7	Sololá	701	Sololá	2	El tablón	3	Marzo	2023-03-30T00:00:00	2024-11-06T04:00:00	6	Velocidad del viento	3.2
145374	7	Sololá	701	Sololá	2	El tablón	3	Marzo	2023-03-30T00:00:00	2024-11-06T04:00:00	7	Dirección del viento	3.22
145375	7	Sololá	701	Sololá	2	El tablón	3	Marzo	2023-03-30T00:00:00	2024-11-06T04:00:00	1	Precipitación	0
145376	7	Sololá	701	Sololá	2	El tablón	3	Marzo	2023-03-30T00:00:00	2024-11-06T04:00:00	8	Radiación solar	0
145377	7	Sololá	701	Sololá	2	El tablón	3	Marzo	2023-03-30T00:00:00	2024-11-06T05:00:00	2	Temperatura media	9.3
145378	7	Sololá	701	Sololá	2	El tablón	3	Marzo	2023-03-30T00:00:00	2024-11-06T05:00:00	4	Temperatura máxima	9.6
145379	7	Sololá	701	Sololá	2	El tablón	3	Marzo	2023-03-30T00:00:00	2024-11-06T05:00:00	3	Temperatura mínima	9
145380	7	Sololá	701	Sololá	2	El tablón	3	Marzo	2023-03-30T00:00:00	2024-11-06T05:00:00	5	Humedad	79
145381	7	Sololá	701	Sololá	2	El tablón	3	Marzo	2023-03-30T00:00:00	2024-11-06T05:00:00	6	Velocidad del viento	4.8
145382	7	Sololá	701	Sololá	2	El tablón	3	Marzo	2023-03-30T00:00:00	2024-11-06T05:00:00	7	Dirección del viento	4.83
145383	7	Sololá	701	Sololá	2	El tablón	3	Marzo	2023-03-30T00:00:00	2024-11-06T05:00:00	1	Precipitación	0
145384	7	Sololá	701	Sololá	2	El tablón	3	Marzo	2023-03-30T00:00:00	2024-11-06T05:00:00	8	Radiación solar	0
145385	7	Sololá	701	Sololá	2	El tablón	3	Marzo	2023-03-30T00:00:00	2024-11-06T06:00:00	2	Temperatura media	9.4
145386	7	Sololá	701	Sololá	2	El tablón	3	Marzo	2023-03-30T00:00:00	2024-11-06T06:00:00	4	Temperatura máxima	9.6
145387	7	Sololá	701	Sololá	2	El tablón	3	Marzo	2023-03-30T00:00:00	2024-11-06T06:00:00	3	Temperatura mínima	9.3
145388	7	Sololá	701	Sololá	2	El tablón	3	Marzo	2023-03-30T00:00:00	2024-11-06T06:00:00	5	Humedad	78
145389	7	Sololá	701	Sololá	2	El tablón	3	Marzo	2023-03-30T00:00:00	2024-11-06T06:00:00	6	Velocidad del viento	6.4
145390	7	Sololá	701	Sololá	2	El tablón	3	Marzo	2023-03-30T00:00:00	2024-11-06T06:00:00	7	Dirección del viento	6.44
145391	7	Sololá	701	Sololá	2	El tablón	3	Marzo	2023-03-30T00:00:00	2024-11-06T06:00:00	1	Precipitación	0
145392	7	Sololá	701	Sololá	2	El tablón	3	Marzo	2023-03-30T00:00:00	2024-11-06T06:00:00	8	Radiación solar	0
145393	7	Sololá	701	Sololá	2	El tablón	3	Marzo	2023-03-30T00:00:00	2024-11-06T07:00:00	2	Temperatura media	10.9
145394	7	Sololá	701	Sololá	2	El tablón	3	Marzo	2023-03-30T00:00:00	2024-11-06T07:00:00	4	Temperatura máxima	10.9
145395	7	Sololá	701	Sololá	2	El tablón	3	Marzo	2023-03-30T00:00:00	2024-11-06T07:00:00	3	Temperatura mínima	9.3
145396	7	Sololá	701	Sololá	2	El tablón	3	Marzo	2023-03-30T00:00:00	2024-11-06T07:00:00	5	Humedad	73
145397	7	Sololá	701	Sololá	2	El tablón	3	Marzo	2023-03-30T00:00:00	2024-11-06T07:00:00	6	Velocidad del viento	9.7
145398	7	Sololá	701	Sololá	2	El tablón	3	Marzo	2023-03-30T00:00:00	2024-11-06T07:00:00	7	Dirección del viento	9.66
145399	7	Sololá	701	Sololá	2	El tablón	3	Marzo	2023-03-30T00:00:00	2024-11-06T07:00:00	1	Precipitación	0
145400	7	Sololá	701	Sololá	2	El tablón	3	Marzo	2023-03-30T00:00:00	2024-11-06T07:00:00	8	Radiación solar	47
145401	7	Sololá	701	Sololá	2	El tablón	3	Marzo	2023-03-30T00:00:00	2024-11-06T08:00:00	2	Temperatura media	12.6
145402	7	Sololá	701	Sololá	2	El tablón	3	Marzo	2023-03-30T00:00:00	2024-11-06T08:00:00	4	Temperatura máxima	12.6
145403	7	Sololá	701	Sololá	2	El tablón	3	Marzo	2023-03-30T00:00:00	2024-11-06T08:00:00	3	Temperatura mínima	10.8
145404	7	Sololá	701	Sololá	2	El tablón	3	Marzo	2023-03-30T00:00:00	2024-11-06T08:00:00	5	Humedad	70
145405	7	Sololá	701	Sololá	2	El tablón	3	Marzo	2023-03-30T00:00:00	2024-11-06T08:00:00	6	Velocidad del viento	12.9
145406	7	Sololá	701	Sololá	2	El tablón	3	Marzo	2023-03-30T00:00:00	2024-11-06T08:00:00	7	Dirección del viento	12.87
145407	7	Sololá	701	Sololá	2	El tablón	3	Marzo	2023-03-30T00:00:00	2024-11-06T08:00:00	1	Precipitación	0
145408	7	Sololá	701	Sololá	2	El tablón	3	Marzo	2023-03-30T00:00:00	2024-11-06T08:00:00	8	Radiación solar	229
145409	7	Sololá	701	Sololá	2	El tablón	3	Marzo	2023-03-30T00:00:00	2024-11-06T09:00:00	2	Temperatura media	14.8
145410	7	Sololá	701	Sololá	2	El tablón	3	Marzo	2023-03-30T00:00:00	2024-11-06T09:00:00	4	Temperatura máxima	14.8
145411	7	Sololá	701	Sololá	2	El tablón	3	Marzo	2023-03-30T00:00:00	2024-11-06T09:00:00	3	Temperatura mínima	12.6
145412	7	Sololá	701	Sololá	2	El tablón	3	Marzo	2023-03-30T00:00:00	2024-11-06T09:00:00	5	Humedad	63
145413	7	Sololá	701	Sololá	2	El tablón	3	Marzo	2023-03-30T00:00:00	2024-11-06T09:00:00	6	Velocidad del viento	11.3
145414	7	Sololá	701	Sololá	2	El tablón	3	Marzo	2023-03-30T00:00:00	2024-11-06T09:00:00	7	Dirección del viento	11.27
145415	7	Sololá	701	Sololá	2	El tablón	3	Marzo	2023-03-30T00:00:00	2024-11-06T09:00:00	1	Precipitación	0
145416	7	Sololá	701	Sololá	2	El tablón	3	Marzo	2023-03-30T00:00:00	2024-11-06T09:00:00	8	Radiación solar	388
145417	7	Sololá	701	Sololá	2	El tablón	3	Marzo	2023-03-30T00:00:00	2024-11-06T10:00:00	2	Temperatura media	15.8
145418	7	Sololá	701	Sololá	2	El tablón	3	Marzo	2023-03-30T00:00:00	2024-11-06T10:00:00	4	Temperatura máxima	15.9
145419	7	Sololá	701	Sololá	2	El tablón	3	Marzo	2023-03-30T00:00:00	2024-11-06T10:00:00	3	Temperatura mínima	14.7
145420	7	Sololá	701	Sololá	2	El tablón	3	Marzo	2023-03-30T00:00:00	2024-11-06T10:00:00	5	Humedad	63
145421	7	Sololá	701	Sololá	2	El tablón	3	Marzo	2023-03-30T00:00:00	2024-11-06T10:00:00	6	Velocidad del viento	11.3
145422	7	Sololá	701	Sololá	2	El tablón	3	Marzo	2023-03-30T00:00:00	2024-11-06T10:00:00	7	Dirección del viento	11.27
145423	7	Sololá	701	Sololá	2	El tablón	3	Marzo	2023-03-30T00:00:00	2024-11-06T10:00:00	1	Precipitación	0
145424	7	Sololá	701	Sololá	2	El tablón	3	Marzo	2023-03-30T00:00:00	2024-11-06T10:00:00	8	Radiación solar	596
145425	7	Sololá	701	Sololá	2	El tablón	3	Marzo	2023-03-30T00:00:00	2024-11-06T11:00:00	2	Temperatura media	16.9
145426	7	Sololá	701	Sololá	2	El tablón	3	Marzo	2023-03-30T00:00:00	2024-11-06T11:00:00	4	Temperatura máxima	17
145427	7	Sololá	701	Sololá	2	El tablón	3	Marzo	2023-03-30T00:00:00	2024-11-06T11:00:00	3	Temperatura mínima	15.7
145428	7	Sololá	701	Sololá	2	El tablón	3	Marzo	2023-03-30T00:00:00	2024-11-06T11:00:00	5	Humedad	61
145429	7	Sololá	701	Sololá	2	El tablón	3	Marzo	2023-03-30T00:00:00	2024-11-06T11:00:00	6	Velocidad del viento	12.9
145430	7	Sololá	701	Sololá	2	El tablón	3	Marzo	2023-03-30T00:00:00	2024-11-06T11:00:00	7	Dirección del viento	12.87
145431	7	Sololá	701	Sololá	2	El tablón	3	Marzo	2023-03-30T00:00:00	2024-11-06T11:00:00	1	Precipitación	0
145432	7	Sololá	701	Sololá	2	El tablón	3	Marzo	2023-03-30T00:00:00	2024-11-06T11:00:00	8	Radiación solar	857
145433	7	Sololá	701	Sololá	2	El tablón	3	Marzo	2023-03-30T00:00:00	2024-11-06T12:00:00	2	Temperatura media	17.9
145434	7	Sololá	701	Sololá	2	El tablón	3	Marzo	2023-03-30T00:00:00	2024-11-06T12:00:00	4	Temperatura máxima	17.9
145435	7	Sololá	701	Sololá	2	El tablón	3	Marzo	2023-03-30T00:00:00	2024-11-06T12:00:00	3	Temperatura mínima	16.7
145436	7	Sololá	701	Sololá	2	El tablón	3	Marzo	2023-03-30T00:00:00	2024-11-06T12:00:00	5	Humedad	56
145437	7	Sololá	701	Sololá	2	El tablón	3	Marzo	2023-03-30T00:00:00	2024-11-06T12:00:00	6	Velocidad del viento	12.9
145438	7	Sololá	701	Sololá	2	El tablón	3	Marzo	2023-03-30T00:00:00	2024-11-06T12:00:00	7	Dirección del viento	12.87
145439	7	Sololá	701	Sololá	2	El tablón	3	Marzo	2023-03-30T00:00:00	2024-11-06T12:00:00	1	Precipitación	0
145440	7	Sololá	701	Sololá	2	El tablón	3	Marzo	2023-03-30T00:00:00	2024-11-06T12:00:00	8	Radiación solar	948
145441	7	Sololá	701	Sololá	2	El tablón	3	Marzo	2023-03-30T00:00:00	2024-11-06T13:00:00	2	Temperatura media	18.8
145442	7	Sololá	701	Sololá	2	El tablón	3	Marzo	2023-03-30T00:00:00	2024-11-06T13:00:00	4	Temperatura máxima	18.9
145443	7	Sololá	701	Sololá	2	El tablón	3	Marzo	2023-03-30T00:00:00	2024-11-06T13:00:00	3	Temperatura mínima	17.7
145444	7	Sololá	701	Sololá	2	El tablón	3	Marzo	2023-03-30T00:00:00	2024-11-06T13:00:00	5	Humedad	50
145445	7	Sololá	701	Sololá	2	El tablón	3	Marzo	2023-03-30T00:00:00	2024-11-06T13:00:00	6	Velocidad del viento	11.3
145446	7	Sololá	701	Sololá	2	El tablón	3	Marzo	2023-03-30T00:00:00	2024-11-06T13:00:00	7	Dirección del viento	11.27
145447	7	Sololá	701	Sololá	2	El tablón	3	Marzo	2023-03-30T00:00:00	2024-11-06T13:00:00	1	Precipitación	0
145448	7	Sololá	701	Sololá	2	El tablón	3	Marzo	2023-03-30T00:00:00	2024-11-06T13:00:00	8	Radiación solar	963
145449	7	Sololá	701	Sololá	2	El tablón	3	Marzo	2023-03-30T00:00:00	2024-11-06T14:00:00	2	Temperatura media	19.7
145450	7	Sololá	701	Sololá	2	El tablón	3	Marzo	2023-03-30T00:00:00	2024-11-06T14:00:00	4	Temperatura máxima	19.7
145451	7	Sololá	701	Sololá	2	El tablón	3	Marzo	2023-03-30T00:00:00	2024-11-06T14:00:00	3	Temperatura mínima	18.4
145452	7	Sololá	701	Sololá	2	El tablón	3	Marzo	2023-03-30T00:00:00	2024-11-06T14:00:00	5	Humedad	44
145453	7	Sololá	701	Sololá	2	El tablón	3	Marzo	2023-03-30T00:00:00	2024-11-06T14:00:00	6	Velocidad del viento	11.3
145454	7	Sololá	701	Sololá	2	El tablón	3	Marzo	2023-03-30T00:00:00	2024-11-06T14:00:00	7	Dirección del viento	11.27
145455	7	Sololá	701	Sololá	2	El tablón	3	Marzo	2023-03-30T00:00:00	2024-11-06T14:00:00	1	Precipitación	0
145456	7	Sololá	701	Sololá	2	El tablón	3	Marzo	2023-03-30T00:00:00	2024-11-06T14:00:00	8	Radiación solar	906
145457	7	Sololá	701	Sololá	2	El tablón	3	Marzo	2023-03-30T00:00:00	2024-11-06T15:00:00	2	Temperatura media	19.4
145458	7	Sololá	701	Sololá	2	El tablón	3	Marzo	2023-03-30T00:00:00	2024-11-06T15:00:00	4	Temperatura máxima	19.9
145459	7	Sololá	701	Sololá	2	El tablón	3	Marzo	2023-03-30T00:00:00	2024-11-06T15:00:00	3	Temperatura mínima	19.4
145460	7	Sololá	701	Sololá	2	El tablón	3	Marzo	2023-03-30T00:00:00	2024-11-06T15:00:00	5	Humedad	45
145461	7	Sololá	701	Sololá	2	El tablón	3	Marzo	2023-03-30T00:00:00	2024-11-06T15:00:00	6	Velocidad del viento	11.3
145462	7	Sololá	701	Sololá	2	El tablón	3	Marzo	2023-03-30T00:00:00	2024-11-06T15:00:00	7	Dirección del viento	11.27
145463	7	Sololá	701	Sololá	2	El tablón	3	Marzo	2023-03-30T00:00:00	2024-11-06T15:00:00	1	Precipitación	0
145464	7	Sololá	701	Sololá	2	El tablón	3	Marzo	2023-03-30T00:00:00	2024-11-06T15:00:00	8	Radiación solar	795
145465	7	Sololá	701	Sololá	2	El tablón	3	Marzo	2023-03-30T00:00:00	2024-11-06T16:00:00	2	Temperatura media	18.8
145466	7	Sololá	701	Sololá	2	El tablón	3	Marzo	2023-03-30T00:00:00	2024-11-06T16:00:00	4	Temperatura máxima	19.4
145467	7	Sololá	701	Sololá	2	El tablón	3	Marzo	2023-03-30T00:00:00	2024-11-06T16:00:00	3	Temperatura mínima	18.8
145468	7	Sololá	701	Sololá	2	El tablón	3	Marzo	2023-03-30T00:00:00	2024-11-06T16:00:00	5	Humedad	43
145469	7	Sololá	701	Sololá	2	El tablón	3	Marzo	2023-03-30T00:00:00	2024-11-06T16:00:00	6	Velocidad del viento	11.3
145470	7	Sololá	701	Sololá	2	El tablón	3	Marzo	2023-03-30T00:00:00	2024-11-06T16:00:00	7	Dirección del viento	11.27
145471	7	Sololá	701	Sololá	2	El tablón	3	Marzo	2023-03-30T00:00:00	2024-11-06T16:00:00	1	Precipitación	0
145472	7	Sololá	701	Sololá	2	El tablón	3	Marzo	2023-03-30T00:00:00	2024-11-06T16:00:00	8	Radiación solar	621
145473	7	Sololá	701	Sololá	2	El tablón	3	Marzo	2023-03-30T00:00:00	2024-11-06T17:00:00	2	Temperatura media	18.1
145474	7	Sololá	701	Sololá	2	El tablón	3	Marzo	2023-03-30T00:00:00	2024-11-06T17:00:00	4	Temperatura máxima	19
145475	7	Sololá	701	Sololá	2	El tablón	3	Marzo	2023-03-30T00:00:00	2024-11-06T17:00:00	3	Temperatura mínima	18.1
145476	7	Sololá	701	Sololá	2	El tablón	3	Marzo	2023-03-30T00:00:00	2024-11-06T17:00:00	5	Humedad	48
145477	7	Sololá	701	Sololá	2	El tablón	3	Marzo	2023-03-30T00:00:00	2024-11-06T17:00:00	6	Velocidad del viento	9.7
145478	7	Sololá	701	Sololá	2	El tablón	3	Marzo	2023-03-30T00:00:00	2024-11-06T17:00:00	7	Dirección del viento	9.66
145479	7	Sololá	701	Sololá	2	El tablón	3	Marzo	2023-03-30T00:00:00	2024-11-06T17:00:00	1	Precipitación	0
145480	7	Sololá	701	Sololá	2	El tablón	3	Marzo	2023-03-30T00:00:00	2024-11-06T17:00:00	8	Radiación solar	372
145481	7	Sololá	701	Sololá	2	El tablón	3	Marzo	2023-03-30T00:00:00	2024-11-06T18:00:00	2	Temperatura media	16.4
145482	7	Sololá	701	Sololá	2	El tablón	3	Marzo	2023-03-30T00:00:00	2024-11-06T18:00:00	4	Temperatura máxima	18.3
145483	7	Sololá	701	Sololá	2	El tablón	3	Marzo	2023-03-30T00:00:00	2024-11-06T18:00:00	3	Temperatura mínima	16.4
145484	7	Sololá	701	Sololá	2	El tablón	3	Marzo	2023-03-30T00:00:00	2024-11-06T18:00:00	5	Humedad	59
145485	7	Sololá	701	Sololá	2	El tablón	3	Marzo	2023-03-30T00:00:00	2024-11-06T18:00:00	6	Velocidad del viento	8
145486	7	Sololá	701	Sololá	2	El tablón	3	Marzo	2023-03-30T00:00:00	2024-11-06T18:00:00	7	Dirección del viento	8.05
145487	7	Sololá	701	Sololá	2	El tablón	3	Marzo	2023-03-30T00:00:00	2024-11-06T18:00:00	1	Precipitación	0
145488	7	Sololá	701	Sololá	2	El tablón	3	Marzo	2023-03-30T00:00:00	2024-11-06T18:00:00	8	Radiación solar	139
145489	7	Sololá	701	Sololá	2	El tablón	3	Marzo	2023-03-30T00:00:00	2024-11-06T19:00:00	2	Temperatura media	14.6
145490	7	Sololá	701	Sololá	2	El tablón	3	Marzo	2023-03-30T00:00:00	2024-11-06T19:00:00	4	Temperatura máxima	16.4
145491	7	Sololá	701	Sololá	2	El tablón	3	Marzo	2023-03-30T00:00:00	2024-11-06T19:00:00	3	Temperatura mínima	14.6
145492	7	Sololá	701	Sololá	2	El tablón	3	Marzo	2023-03-30T00:00:00	2024-11-06T19:00:00	5	Humedad	72
145493	7	Sololá	701	Sololá	2	El tablón	3	Marzo	2023-03-30T00:00:00	2024-11-06T19:00:00	6	Velocidad del viento	6.4
145494	7	Sololá	701	Sololá	2	El tablón	3	Marzo	2023-03-30T00:00:00	2024-11-06T19:00:00	7	Dirección del viento	6.44
145495	7	Sololá	701	Sololá	2	El tablón	3	Marzo	2023-03-30T00:00:00	2024-11-06T19:00:00	1	Precipitación	0
145496	7	Sololá	701	Sololá	2	El tablón	3	Marzo	2023-03-30T00:00:00	2024-11-06T19:00:00	8	Radiación solar	0
145497	7	Sololá	701	Sololá	2	El tablón	3	Marzo	2023-03-30T00:00:00	2024-11-06T20:00:00	2	Temperatura media	13.2
145498	7	Sololá	701	Sololá	2	El tablón	3	Marzo	2023-03-30T00:00:00	2024-11-06T20:00:00	4	Temperatura máxima	14.5
145499	7	Sololá	701	Sololá	2	El tablón	3	Marzo	2023-03-30T00:00:00	2024-11-06T20:00:00	3	Temperatura mínima	13.2
145500	7	Sololá	701	Sololá	2	El tablón	3	Marzo	2023-03-30T00:00:00	2024-11-06T20:00:00	5	Humedad	84
145501	7	Sololá	701	Sololá	2	El tablón	3	Marzo	2023-03-30T00:00:00	2024-11-06T20:00:00	6	Velocidad del viento	6.4
145502	7	Sololá	701	Sololá	2	El tablón	3	Marzo	2023-03-30T00:00:00	2024-11-06T20:00:00	7	Dirección del viento	6.44
145503	7	Sololá	701	Sololá	2	El tablón	3	Marzo	2023-03-30T00:00:00	2024-11-06T20:00:00	1	Precipitación	0
145504	7	Sololá	701	Sololá	2	El tablón	3	Marzo	2023-03-30T00:00:00	2024-11-06T20:00:00	8	Radiación solar	0
145505	7	Sololá	701	Sololá	2	El tablón	3	Marzo	2023-03-30T00:00:00	2024-11-06T21:00:00	2	Temperatura media	12.6
145506	7	Sololá	701	Sololá	2	El tablón	3	Marzo	2023-03-30T00:00:00	2024-11-06T21:00:00	4	Temperatura máxima	13.2
145507	7	Sololá	701	Sololá	2	El tablón	3	Marzo	2023-03-30T00:00:00	2024-11-06T21:00:00	3	Temperatura mínima	12.6
145508	7	Sololá	701	Sololá	2	El tablón	3	Marzo	2023-03-30T00:00:00	2024-11-06T21:00:00	5	Humedad	85
145509	7	Sololá	701	Sololá	2	El tablón	3	Marzo	2023-03-30T00:00:00	2024-11-06T21:00:00	6	Velocidad del viento	8
145510	7	Sololá	701	Sololá	2	El tablón	3	Marzo	2023-03-30T00:00:00	2024-11-06T21:00:00	7	Dirección del viento	8.05
145511	7	Sololá	701	Sololá	2	El tablón	3	Marzo	2023-03-30T00:00:00	2024-11-06T21:00:00	1	Precipitación	0
145512	7	Sololá	701	Sololá	2	El tablón	3	Marzo	2023-03-30T00:00:00	2024-11-06T21:00:00	8	Radiación solar	0
145513	7	Sololá	701	Sololá	2	El tablón	3	Marzo	2023-03-30T00:00:00	2024-11-06T22:00:00	2	Temperatura media	12.3
145514	7	Sololá	701	Sololá	2	El tablón	3	Marzo	2023-03-30T00:00:00	2024-11-06T22:00:00	4	Temperatura máxima	12.6
145515	7	Sololá	701	Sololá	2	El tablón	3	Marzo	2023-03-30T00:00:00	2024-11-06T22:00:00	3	Temperatura mínima	12.3
145516	7	Sololá	701	Sololá	2	El tablón	3	Marzo	2023-03-30T00:00:00	2024-11-06T22:00:00	5	Humedad	83
145517	7	Sololá	701	Sololá	2	El tablón	3	Marzo	2023-03-30T00:00:00	2024-11-06T22:00:00	6	Velocidad del viento	8
145518	7	Sololá	701	Sololá	2	El tablón	3	Marzo	2023-03-30T00:00:00	2024-11-06T22:00:00	7	Dirección del viento	8.05
145519	7	Sololá	701	Sololá	2	El tablón	3	Marzo	2023-03-30T00:00:00	2024-11-06T22:00:00	1	Precipitación	0
145520	7	Sololá	701	Sololá	2	El tablón	3	Marzo	2023-03-30T00:00:00	2024-11-06T22:00:00	8	Radiación solar	0
145521	7	Sololá	701	Sololá	2	El tablón	3	Marzo	2023-03-30T00:00:00	2024-11-06T23:00:00	2	Temperatura media	11.8
145522	7	Sololá	701	Sololá	2	El tablón	3	Marzo	2023-03-30T00:00:00	2024-11-06T23:00:00	4	Temperatura máxima	12.3
145523	7	Sololá	701	Sololá	2	El tablón	3	Marzo	2023-03-30T00:00:00	2024-11-06T23:00:00	3	Temperatura mínima	11.8
145524	7	Sololá	701	Sololá	2	El tablón	3	Marzo	2023-03-30T00:00:00	2024-11-06T23:00:00	5	Humedad	84
145525	7	Sololá	701	Sololá	2	El tablón	3	Marzo	2023-03-30T00:00:00	2024-11-06T23:00:00	6	Velocidad del viento	6.4
145526	7	Sololá	701	Sololá	2	El tablón	3	Marzo	2023-03-30T00:00:00	2024-11-06T23:00:00	7	Dirección del viento	6.44
145527	7	Sololá	701	Sololá	2	El tablón	3	Marzo	2023-03-30T00:00:00	2024-11-06T23:00:00	1	Precipitación	0
145528	7	Sololá	701	Sololá	2	El tablón	3	Marzo	2023-03-30T00:00:00	2024-11-06T23:00:00	8	Radiación solar	0
145529	7	Sololá	701	Sololá	2	El tablón	3	Marzo	2023-03-31T00:00:00	2024-11-06T00:00:00	2	Temperatura media	11
145530	7	Sololá	701	Sololá	2	El tablón	3	Marzo	2023-03-31T00:00:00	2024-11-06T00:00:00	4	Temperatura máxima	11.8
145531	7	Sololá	701	Sololá	2	El tablón	3	Marzo	2023-03-31T00:00:00	2024-11-06T00:00:00	3	Temperatura mínima	10.9
145532	7	Sololá	701	Sololá	2	El tablón	3	Marzo	2023-03-31T00:00:00	2024-11-06T00:00:00	5	Humedad	85
145533	7	Sololá	701	Sololá	2	El tablón	3	Marzo	2023-03-31T00:00:00	2024-11-06T00:00:00	6	Velocidad del viento	6.4
145534	7	Sololá	701	Sololá	2	El tablón	3	Marzo	2023-03-31T00:00:00	2024-11-06T00:00:00	7	Dirección del viento	6.44
145535	7	Sololá	701	Sololá	2	El tablón	3	Marzo	2023-03-31T00:00:00	2024-11-06T00:00:00	1	Precipitación	0
145536	7	Sololá	701	Sololá	2	El tablón	3	Marzo	2023-03-31T00:00:00	2024-11-06T00:00:00	8	Radiación solar	0
145537	7	Sololá	701	Sololá	2	El tablón	3	Marzo	2023-03-31T00:00:00	2024-11-06T01:00:00	2	Temperatura media	9.9
145538	7	Sololá	701	Sololá	2	El tablón	3	Marzo	2023-03-31T00:00:00	2024-11-06T01:00:00	4	Temperatura máxima	11
145539	7	Sololá	701	Sololá	2	El tablón	3	Marzo	2023-03-31T00:00:00	2024-11-06T01:00:00	3	Temperatura mínima	9.9
145540	7	Sololá	701	Sololá	2	El tablón	3	Marzo	2023-03-31T00:00:00	2024-11-06T01:00:00	5	Humedad	87
145541	7	Sololá	701	Sololá	2	El tablón	3	Marzo	2023-03-31T00:00:00	2024-11-06T01:00:00	6	Velocidad del viento	6.4
145542	7	Sololá	701	Sololá	2	El tablón	3	Marzo	2023-03-31T00:00:00	2024-11-06T01:00:00	7	Dirección del viento	6.44
145543	7	Sololá	701	Sololá	2	El tablón	3	Marzo	2023-03-31T00:00:00	2024-11-06T01:00:00	1	Precipitación	0
145544	7	Sololá	701	Sololá	2	El tablón	3	Marzo	2023-03-31T00:00:00	2024-11-06T01:00:00	8	Radiación solar	0
145545	7	Sololá	701	Sololá	2	El tablón	3	Marzo	2023-03-31T00:00:00	2024-11-06T02:00:00	2	Temperatura media	10.6
145546	7	Sololá	701	Sololá	2	El tablón	3	Marzo	2023-03-31T00:00:00	2024-11-06T02:00:00	4	Temperatura máxima	10.6
145547	7	Sololá	701	Sololá	2	El tablón	3	Marzo	2023-03-31T00:00:00	2024-11-06T02:00:00	3	Temperatura mínima	9.8
145548	7	Sololá	701	Sololá	2	El tablón	3	Marzo	2023-03-31T00:00:00	2024-11-06T02:00:00	5	Humedad	79
145549	7	Sololá	701	Sololá	2	El tablón	3	Marzo	2023-03-31T00:00:00	2024-11-06T02:00:00	6	Velocidad del viento	6.4
145550	7	Sololá	701	Sololá	2	El tablón	3	Marzo	2023-03-31T00:00:00	2024-11-06T02:00:00	7	Dirección del viento	6.44
145551	7	Sololá	701	Sololá	2	El tablón	3	Marzo	2023-03-31T00:00:00	2024-11-06T02:00:00	1	Precipitación	0
145552	7	Sololá	701	Sololá	2	El tablón	3	Marzo	2023-03-31T00:00:00	2024-11-06T02:00:00	8	Radiación solar	0
145553	7	Sololá	701	Sololá	2	El tablón	3	Marzo	2023-03-31T00:00:00	2024-11-06T03:00:00	2	Temperatura media	9.9
145554	7	Sololá	701	Sololá	2	El tablón	3	Marzo	2023-03-31T00:00:00	2024-11-06T03:00:00	4	Temperatura máxima	10.7
145555	7	Sololá	701	Sololá	2	El tablón	3	Marzo	2023-03-31T00:00:00	2024-11-06T03:00:00	3	Temperatura mínima	9.9
145556	7	Sololá	701	Sololá	2	El tablón	3	Marzo	2023-03-31T00:00:00	2024-11-06T03:00:00	5	Humedad	84
145557	7	Sololá	701	Sololá	2	El tablón	3	Marzo	2023-03-31T00:00:00	2024-11-06T03:00:00	6	Velocidad del viento	3.2
145558	7	Sololá	701	Sololá	2	El tablón	3	Marzo	2023-03-31T00:00:00	2024-11-06T03:00:00	7	Dirección del viento	3.22
145559	7	Sololá	701	Sololá	2	El tablón	3	Marzo	2023-03-31T00:00:00	2024-11-06T03:00:00	1	Precipitación	0
145560	7	Sololá	701	Sololá	2	El tablón	3	Marzo	2023-03-31T00:00:00	2024-11-06T03:00:00	8	Radiación solar	0
145561	7	Sololá	701	Sololá	2	El tablón	3	Marzo	2023-03-31T00:00:00	2024-11-06T04:00:00	2	Temperatura media	10.5
145562	7	Sololá	701	Sololá	2	El tablón	3	Marzo	2023-03-31T00:00:00	2024-11-06T04:00:00	4	Temperatura máxima	10.5
145563	7	Sololá	701	Sololá	2	El tablón	3	Marzo	2023-03-31T00:00:00	2024-11-06T04:00:00	3	Temperatura mínima	9.7
145564	7	Sololá	701	Sololá	2	El tablón	3	Marzo	2023-03-31T00:00:00	2024-11-06T04:00:00	5	Humedad	82
145565	7	Sololá	701	Sololá	2	El tablón	3	Marzo	2023-03-31T00:00:00	2024-11-06T04:00:00	6	Velocidad del viento	4.8
145566	7	Sololá	701	Sololá	2	El tablón	3	Marzo	2023-03-31T00:00:00	2024-11-06T04:00:00	7	Dirección del viento	4.83
145567	7	Sololá	701	Sololá	2	El tablón	3	Marzo	2023-03-31T00:00:00	2024-11-06T04:00:00	1	Precipitación	0
145568	7	Sololá	701	Sololá	2	El tablón	3	Marzo	2023-03-31T00:00:00	2024-11-06T04:00:00	8	Radiación solar	0
145569	7	Sololá	701	Sololá	2	El tablón	3	Marzo	2023-03-31T00:00:00	2024-11-06T05:00:00	2	Temperatura media	11.3
145570	7	Sololá	701	Sololá	2	El tablón	3	Marzo	2023-03-31T00:00:00	2024-11-06T05:00:00	4	Temperatura máxima	11.3
145571	7	Sololá	701	Sololá	2	El tablón	3	Marzo	2023-03-31T00:00:00	2024-11-06T05:00:00	3	Temperatura mínima	10.5
145572	7	Sololá	701	Sololá	2	El tablón	3	Marzo	2023-03-31T00:00:00	2024-11-06T05:00:00	5	Humedad	78
145573	7	Sololá	701	Sololá	2	El tablón	3	Marzo	2023-03-31T00:00:00	2024-11-06T05:00:00	6	Velocidad del viento	1.6
145574	7	Sololá	701	Sololá	2	El tablón	3	Marzo	2023-03-31T00:00:00	2024-11-06T05:00:00	7	Dirección del viento	1.61
145575	7	Sololá	701	Sololá	2	El tablón	3	Marzo	2023-03-31T00:00:00	2024-11-06T05:00:00	1	Precipitación	0
145576	7	Sololá	701	Sololá	2	El tablón	3	Marzo	2023-03-31T00:00:00	2024-11-06T05:00:00	8	Radiación solar	0
145577	7	Sololá	701	Sololá	2	El tablón	3	Marzo	2023-03-31T00:00:00	2024-11-06T06:00:00	2	Temperatura media	11.2
145578	7	Sololá	701	Sololá	2	El tablón	3	Marzo	2023-03-31T00:00:00	2024-11-06T06:00:00	4	Temperatura máxima	11.4
145579	7	Sololá	701	Sololá	2	El tablón	3	Marzo	2023-03-31T00:00:00	2024-11-06T06:00:00	3	Temperatura mínima	11.2
145580	7	Sololá	701	Sololá	2	El tablón	3	Marzo	2023-03-31T00:00:00	2024-11-06T06:00:00	5	Humedad	79
145581	7	Sololá	701	Sololá	2	El tablón	3	Marzo	2023-03-31T00:00:00	2024-11-06T06:00:00	6	Velocidad del viento	1.6
145582	7	Sololá	701	Sololá	2	El tablón	3	Marzo	2023-03-31T00:00:00	2024-11-06T06:00:00	7	Dirección del viento	1.61
145583	7	Sololá	701	Sololá	2	El tablón	3	Marzo	2023-03-31T00:00:00	2024-11-06T06:00:00	1	Precipitación	0
145584	7	Sololá	701	Sololá	2	El tablón	3	Marzo	2023-03-31T00:00:00	2024-11-06T06:00:00	8	Radiación solar	0
145585	7	Sololá	701	Sololá	2	El tablón	3	Marzo	2023-03-31T00:00:00	2024-11-06T07:00:00	2	Temperatura media	11.9
145586	7	Sololá	701	Sololá	2	El tablón	3	Marzo	2023-03-31T00:00:00	2024-11-06T07:00:00	4	Temperatura máxima	11.9
145587	7	Sololá	701	Sololá	2	El tablón	3	Marzo	2023-03-31T00:00:00	2024-11-06T07:00:00	3	Temperatura mínima	11
145588	7	Sololá	701	Sololá	2	El tablón	3	Marzo	2023-03-31T00:00:00	2024-11-06T07:00:00	5	Humedad	81
145589	7	Sololá	701	Sololá	2	El tablón	3	Marzo	2023-03-31T00:00:00	2024-11-06T07:00:00	6	Velocidad del viento	4.8
145590	7	Sololá	701	Sololá	2	El tablón	3	Marzo	2023-03-31T00:00:00	2024-11-06T07:00:00	7	Dirección del viento	4.83
145591	7	Sololá	701	Sololá	2	El tablón	3	Marzo	2023-03-31T00:00:00	2024-11-06T07:00:00	1	Precipitación	0
145592	7	Sololá	701	Sololá	2	El tablón	3	Marzo	2023-03-31T00:00:00	2024-11-06T07:00:00	8	Radiación solar	36
145593	7	Sololá	701	Sololá	2	El tablón	3	Marzo	2023-03-31T00:00:00	2024-11-06T08:00:00	2	Temperatura media	13.3
145594	7	Sololá	701	Sololá	2	El tablón	3	Marzo	2023-03-31T00:00:00	2024-11-06T08:00:00	4	Temperatura máxima	13.3
145595	7	Sololá	701	Sololá	2	El tablón	3	Marzo	2023-03-31T00:00:00	2024-11-06T08:00:00	3	Temperatura mínima	11.9
145596	7	Sololá	701	Sololá	2	El tablón	3	Marzo	2023-03-31T00:00:00	2024-11-06T08:00:00	5	Humedad	78
145597	7	Sololá	701	Sololá	2	El tablón	3	Marzo	2023-03-31T00:00:00	2024-11-06T08:00:00	6	Velocidad del viento	9.7
145598	7	Sololá	701	Sololá	2	El tablón	3	Marzo	2023-03-31T00:00:00	2024-11-06T08:00:00	7	Dirección del viento	9.66
145599	7	Sololá	701	Sololá	2	El tablón	3	Marzo	2023-03-31T00:00:00	2024-11-06T08:00:00	1	Precipitación	0
145600	7	Sololá	701	Sololá	2	El tablón	3	Marzo	2023-03-31T00:00:00	2024-11-06T08:00:00	8	Radiación solar	228
145601	7	Sololá	701	Sololá	2	El tablón	3	Marzo	2023-03-31T00:00:00	2024-11-06T09:00:00	2	Temperatura media	15.2
145602	7	Sololá	701	Sololá	2	El tablón	3	Marzo	2023-03-31T00:00:00	2024-11-06T09:00:00	4	Temperatura máxima	15.2
145603	7	Sololá	701	Sololá	2	El tablón	3	Marzo	2023-03-31T00:00:00	2024-11-06T09:00:00	3	Temperatura mínima	13.3
145604	7	Sololá	701	Sololá	2	El tablón	3	Marzo	2023-03-31T00:00:00	2024-11-06T09:00:00	5	Humedad	67
145605	7	Sololá	701	Sololá	2	El tablón	3	Marzo	2023-03-31T00:00:00	2024-11-06T09:00:00	6	Velocidad del viento	9.7
145606	7	Sololá	701	Sololá	2	El tablón	3	Marzo	2023-03-31T00:00:00	2024-11-06T09:00:00	7	Dirección del viento	9.66
145607	7	Sololá	701	Sololá	2	El tablón	3	Marzo	2023-03-31T00:00:00	2024-11-06T09:00:00	1	Precipitación	0
145608	7	Sololá	701	Sololá	2	El tablón	3	Marzo	2023-03-31T00:00:00	2024-11-06T09:00:00	8	Radiación solar	408
145609	7	Sololá	701	Sololá	2	El tablón	3	Marzo	2023-03-31T00:00:00	2024-11-06T10:00:00	2	Temperatura media	17.1
145610	7	Sololá	701	Sololá	2	El tablón	3	Marzo	2023-03-31T00:00:00	2024-11-06T10:00:00	4	Temperatura máxima	17.1
145611	7	Sololá	701	Sololá	2	El tablón	3	Marzo	2023-03-31T00:00:00	2024-11-06T10:00:00	3	Temperatura mínima	15.2
145612	7	Sololá	701	Sololá	2	El tablón	3	Marzo	2023-03-31T00:00:00	2024-11-06T10:00:00	5	Humedad	59
145613	7	Sololá	701	Sololá	2	El tablón	3	Marzo	2023-03-31T00:00:00	2024-11-06T10:00:00	6	Velocidad del viento	8
145614	7	Sololá	701	Sololá	2	El tablón	3	Marzo	2023-03-31T00:00:00	2024-11-06T10:00:00	7	Dirección del viento	8.05
145615	7	Sololá	701	Sololá	2	El tablón	3	Marzo	2023-03-31T00:00:00	2024-11-06T10:00:00	1	Precipitación	0
145616	7	Sololá	701	Sololá	2	El tablón	3	Marzo	2023-03-31T00:00:00	2024-11-06T10:00:00	8	Radiación solar	585
145617	7	Sololá	701	Sololá	2	El tablón	3	Marzo	2023-03-31T00:00:00	2024-11-06T11:00:00	2	Temperatura media	18.4
145618	7	Sololá	701	Sololá	2	El tablón	3	Marzo	2023-03-31T00:00:00	2024-11-06T11:00:00	4	Temperatura máxima	18.4
145619	7	Sololá	701	Sololá	2	El tablón	3	Marzo	2023-03-31T00:00:00	2024-11-06T11:00:00	3	Temperatura mínima	17.1
145620	7	Sololá	701	Sololá	2	El tablón	3	Marzo	2023-03-31T00:00:00	2024-11-06T11:00:00	5	Humedad	53
145621	7	Sololá	701	Sololá	2	El tablón	3	Marzo	2023-03-31T00:00:00	2024-11-06T11:00:00	6	Velocidad del viento	8
145622	7	Sololá	701	Sololá	2	El tablón	3	Marzo	2023-03-31T00:00:00	2024-11-06T11:00:00	7	Dirección del viento	8.05
145623	7	Sololá	701	Sololá	2	El tablón	3	Marzo	2023-03-31T00:00:00	2024-11-06T11:00:00	1	Precipitación	0
145624	7	Sololá	701	Sololá	2	El tablón	3	Marzo	2023-03-31T00:00:00	2024-11-06T11:00:00	8	Radiación solar	852
145625	7	Sololá	701	Sololá	2	El tablón	3	Marzo	2023-03-31T00:00:00	2024-11-06T12:00:00	2	Temperatura media	19.2
145626	7	Sololá	701	Sololá	2	El tablón	3	Marzo	2023-03-31T00:00:00	2024-11-06T12:00:00	4	Temperatura máxima	19.8
145627	7	Sololá	701	Sololá	2	El tablón	3	Marzo	2023-03-31T00:00:00	2024-11-06T12:00:00	3	Temperatura mínima	18.4
145628	7	Sololá	701	Sololá	2	El tablón	3	Marzo	2023-03-31T00:00:00	2024-11-06T12:00:00	5	Humedad	56
145629	7	Sololá	701	Sololá	2	El tablón	3	Marzo	2023-03-31T00:00:00	2024-11-06T12:00:00	6	Velocidad del viento	8
145630	7	Sololá	701	Sololá	2	El tablón	3	Marzo	2023-03-31T00:00:00	2024-11-06T12:00:00	7	Dirección del viento	8.05
145631	7	Sololá	701	Sololá	2	El tablón	3	Marzo	2023-03-31T00:00:00	2024-11-06T12:00:00	1	Precipitación	0
145632	7	Sololá	701	Sololá	2	El tablón	3	Marzo	2023-03-31T00:00:00	2024-11-06T12:00:00	8	Radiación solar	939
145633	7	Sololá	701	Sololá	2	El tablón	3	Marzo	2023-03-31T00:00:00	2024-11-06T13:00:00	2	Temperatura media	19.2
145634	7	Sololá	701	Sololá	2	El tablón	3	Marzo	2023-03-31T00:00:00	2024-11-06T13:00:00	4	Temperatura máxima	19.9
145635	7	Sololá	701	Sololá	2	El tablón	3	Marzo	2023-03-31T00:00:00	2024-11-06T13:00:00	3	Temperatura mínima	19.1
145636	7	Sololá	701	Sololá	2	El tablón	3	Marzo	2023-03-31T00:00:00	2024-11-06T13:00:00	5	Humedad	67
145637	7	Sololá	701	Sololá	2	El tablón	3	Marzo	2023-03-31T00:00:00	2024-11-06T13:00:00	6	Velocidad del viento	8
145638	7	Sololá	701	Sololá	2	El tablón	3	Marzo	2023-03-31T00:00:00	2024-11-06T13:00:00	7	Dirección del viento	8.05
145639	7	Sololá	701	Sololá	2	El tablón	3	Marzo	2023-03-31T00:00:00	2024-11-06T13:00:00	1	Precipitación	0
145640	7	Sololá	701	Sololá	2	El tablón	3	Marzo	2023-03-31T00:00:00	2024-11-06T13:00:00	8	Radiación solar	959
145641	7	Sololá	701	Sololá	2	El tablón	3	Marzo	2023-03-31T00:00:00	2024-11-06T14:00:00	2	Temperatura media	18.8
145642	7	Sololá	701	Sololá	2	El tablón	3	Marzo	2023-03-31T00:00:00	2024-11-06T14:00:00	4	Temperatura máxima	20.2
145643	7	Sololá	701	Sololá	2	El tablón	3	Marzo	2023-03-31T00:00:00	2024-11-06T14:00:00	3	Temperatura mínima	18.8
145644	7	Sololá	701	Sololá	2	El tablón	3	Marzo	2023-03-31T00:00:00	2024-11-06T14:00:00	5	Humedad	74
145645	7	Sololá	701	Sololá	2	El tablón	3	Marzo	2023-03-31T00:00:00	2024-11-06T14:00:00	6	Velocidad del viento	9.7
145646	7	Sololá	701	Sololá	2	El tablón	3	Marzo	2023-03-31T00:00:00	2024-11-06T14:00:00	7	Dirección del viento	9.66
145647	7	Sololá	701	Sololá	2	El tablón	3	Marzo	2023-03-31T00:00:00	2024-11-06T14:00:00	1	Precipitación	0
145648	7	Sololá	701	Sololá	2	El tablón	3	Marzo	2023-03-31T00:00:00	2024-11-06T14:00:00	8	Radiación solar	918
145649	7	Sololá	701	Sololá	2	El tablón	3	Marzo	2023-03-31T00:00:00	2024-11-06T15:00:00	2	Temperatura media	17.6
145650	7	Sololá	701	Sololá	2	El tablón	3	Marzo	2023-03-31T00:00:00	2024-11-06T15:00:00	4	Temperatura máxima	18.9
145651	7	Sololá	701	Sololá	2	El tablón	3	Marzo	2023-03-31T00:00:00	2024-11-06T15:00:00	3	Temperatura mínima	17.6
145652	7	Sololá	701	Sololá	2	El tablón	3	Marzo	2023-03-31T00:00:00	2024-11-06T15:00:00	5	Humedad	81
145653	7	Sololá	701	Sololá	2	El tablón	3	Marzo	2023-03-31T00:00:00	2024-11-06T15:00:00	6	Velocidad del viento	9.7
145654	7	Sololá	701	Sololá	2	El tablón	3	Marzo	2023-03-31T00:00:00	2024-11-06T15:00:00	7	Dirección del viento	9.66
145655	7	Sololá	701	Sololá	2	El tablón	3	Marzo	2023-03-31T00:00:00	2024-11-06T15:00:00	1	Precipitación	0
145656	7	Sololá	701	Sololá	2	El tablón	3	Marzo	2023-03-31T00:00:00	2024-11-06T15:00:00	8	Radiación solar	755
145657	7	Sololá	701	Sololá	2	El tablón	3	Marzo	2023-03-31T00:00:00	2024-11-06T16:00:00	2	Temperatura media	16.3
145658	7	Sololá	701	Sololá	2	El tablón	3	Marzo	2023-03-31T00:00:00	2024-11-06T16:00:00	4	Temperatura máxima	17.6
145659	7	Sololá	701	Sololá	2	El tablón	3	Marzo	2023-03-31T00:00:00	2024-11-06T16:00:00	3	Temperatura mínima	16
145660	7	Sololá	701	Sololá	2	El tablón	3	Marzo	2023-03-31T00:00:00	2024-11-06T16:00:00	5	Humedad	85
145661	7	Sololá	701	Sololá	2	El tablón	3	Marzo	2023-03-31T00:00:00	2024-11-06T16:00:00	6	Velocidad del viento	6.4
145662	7	Sololá	701	Sololá	2	El tablón	3	Marzo	2023-03-31T00:00:00	2024-11-06T16:00:00	7	Dirección del viento	6.44
145663	7	Sololá	701	Sololá	2	El tablón	3	Marzo	2023-03-31T00:00:00	2024-11-06T16:00:00	1	Precipitación	0
145664	7	Sololá	701	Sololá	2	El tablón	3	Marzo	2023-03-31T00:00:00	2024-11-06T16:00:00	8	Radiación solar	186
145665	7	Sololá	701	Sololá	2	El tablón	3	Marzo	2023-03-31T00:00:00	2024-11-06T17:00:00	2	Temperatura media	16.8
145666	7	Sololá	701	Sololá	2	El tablón	3	Marzo	2023-03-31T00:00:00	2024-11-06T17:00:00	4	Temperatura máxima	16.9
145667	7	Sololá	701	Sololá	2	El tablón	3	Marzo	2023-03-31T00:00:00	2024-11-06T17:00:00	3	Temperatura mínima	15.7
145668	7	Sololá	701	Sololá	2	El tablón	3	Marzo	2023-03-31T00:00:00	2024-11-06T17:00:00	5	Humedad	83
145669	7	Sololá	701	Sololá	2	El tablón	3	Marzo	2023-03-31T00:00:00	2024-11-06T17:00:00	6	Velocidad del viento	4.8
145670	7	Sololá	701	Sololá	2	El tablón	3	Marzo	2023-03-31T00:00:00	2024-11-06T17:00:00	7	Dirección del viento	4.83
145671	7	Sololá	701	Sololá	2	El tablón	3	Marzo	2023-03-31T00:00:00	2024-11-06T17:00:00	1	Precipitación	0
145672	7	Sololá	701	Sololá	2	El tablón	3	Marzo	2023-03-31T00:00:00	2024-11-06T17:00:00	8	Radiación solar	232
145673	7	Sololá	701	Sololá	2	El tablón	3	Marzo	2023-03-31T00:00:00	2024-11-06T18:00:00	2	Temperatura media	15.4
145674	7	Sololá	701	Sololá	2	El tablón	3	Marzo	2023-03-31T00:00:00	2024-11-06T18:00:00	4	Temperatura máxima	17
145675	7	Sololá	701	Sololá	2	El tablón	3	Marzo	2023-03-31T00:00:00	2024-11-06T18:00:00	3	Temperatura mínima	15.4
145676	7	Sololá	701	Sololá	2	El tablón	3	Marzo	2023-03-31T00:00:00	2024-11-06T18:00:00	5	Humedad	86
145677	7	Sololá	701	Sololá	2	El tablón	3	Marzo	2023-03-31T00:00:00	2024-11-06T18:00:00	6	Velocidad del viento	3.2
145678	7	Sololá	701	Sololá	2	El tablón	3	Marzo	2023-03-31T00:00:00	2024-11-06T18:00:00	7	Dirección del viento	3.22
145679	7	Sololá	701	Sololá	2	El tablón	3	Marzo	2023-03-31T00:00:00	2024-11-06T18:00:00	1	Precipitación	0
145680	7	Sololá	701	Sololá	2	El tablón	3	Marzo	2023-03-31T00:00:00	2024-11-06T18:00:00	8	Radiación solar	130
145681	7	Sololá	701	Sololá	2	El tablón	3	Marzo	2023-03-31T00:00:00	2024-11-06T19:00:00	2	Temperatura media	14
145682	7	Sololá	701	Sololá	2	El tablón	3	Marzo	2023-03-31T00:00:00	2024-11-06T19:00:00	4	Temperatura máxima	15.4
145683	7	Sololá	701	Sololá	2	El tablón	3	Marzo	2023-03-31T00:00:00	2024-11-06T19:00:00	3	Temperatura mínima	14
145684	7	Sololá	701	Sololá	2	El tablón	3	Marzo	2023-03-31T00:00:00	2024-11-06T19:00:00	5	Humedad	89
145685	7	Sololá	701	Sololá	2	El tablón	3	Marzo	2023-03-31T00:00:00	2024-11-06T19:00:00	6	Velocidad del viento	0
145686	7	Sololá	701	Sololá	2	El tablón	3	Marzo	2023-03-31T00:00:00	2024-11-06T19:00:00	7	Dirección del viento	0
145687	7	Sololá	701	Sololá	2	El tablón	3	Marzo	2023-03-31T00:00:00	2024-11-06T19:00:00	1	Precipitación	0
145688	7	Sololá	701	Sololá	2	El tablón	3	Marzo	2023-03-31T00:00:00	2024-11-06T19:00:00	8	Radiación solar	0
145689	7	Sololá	701	Sololá	2	El tablón	3	Marzo	2023-03-31T00:00:00	2024-11-06T20:00:00	2	Temperatura media	13.2
145690	7	Sololá	701	Sololá	2	El tablón	3	Marzo	2023-03-31T00:00:00	2024-11-06T20:00:00	4	Temperatura máxima	14
145691	7	Sololá	701	Sololá	2	El tablón	3	Marzo	2023-03-31T00:00:00	2024-11-06T20:00:00	3	Temperatura mínima	12.7
145692	7	Sololá	701	Sololá	2	El tablón	3	Marzo	2023-03-31T00:00:00	2024-11-06T20:00:00	5	Humedad	88
145693	7	Sololá	701	Sololá	2	El tablón	3	Marzo	2023-03-31T00:00:00	2024-11-06T20:00:00	6	Velocidad del viento	0
145694	7	Sololá	701	Sololá	2	El tablón	3	Marzo	2023-03-31T00:00:00	2024-11-06T20:00:00	7	Dirección del viento	0
145695	7	Sololá	701	Sololá	2	El tablón	3	Marzo	2023-03-31T00:00:00	2024-11-06T20:00:00	1	Precipitación	0
145696	7	Sololá	701	Sololá	2	El tablón	3	Marzo	2023-03-31T00:00:00	2024-11-06T20:00:00	8	Radiación solar	0
145697	7	Sololá	701	Sololá	2	El tablón	3	Marzo	2023-03-31T00:00:00	2024-11-06T21:00:00	2	Temperatura media	13.2
145698	7	Sololá	701	Sololá	2	El tablón	3	Marzo	2023-03-31T00:00:00	2024-11-06T21:00:00	4	Temperatura máxima	13.2
145699	7	Sololá	701	Sololá	2	El tablón	3	Marzo	2023-03-31T00:00:00	2024-11-06T21:00:00	3	Temperatura mínima	12.4
145700	7	Sololá	701	Sololá	2	El tablón	3	Marzo	2023-03-31T00:00:00	2024-11-06T21:00:00	5	Humedad	79
145701	7	Sololá	701	Sololá	2	El tablón	3	Marzo	2023-03-31T00:00:00	2024-11-06T21:00:00	6	Velocidad del viento	1.6
145702	7	Sololá	701	Sololá	2	El tablón	3	Marzo	2023-03-31T00:00:00	2024-11-06T21:00:00	7	Dirección del viento	1.61
145703	7	Sololá	701	Sololá	2	El tablón	3	Marzo	2023-03-31T00:00:00	2024-11-06T21:00:00	1	Precipitación	0
145704	7	Sololá	701	Sololá	2	El tablón	3	Marzo	2023-03-31T00:00:00	2024-11-06T21:00:00	8	Radiación solar	0
145705	7	Sololá	701	Sololá	2	El tablón	3	Marzo	2023-03-31T00:00:00	2024-11-06T22:00:00	2	Temperatura media	12.7
145706	7	Sololá	701	Sololá	2	El tablón	3	Marzo	2023-03-31T00:00:00	2024-11-06T22:00:00	4	Temperatura máxima	13.2
145707	7	Sololá	701	Sololá	2	El tablón	3	Marzo	2023-03-31T00:00:00	2024-11-06T22:00:00	3	Temperatura mínima	12.7
145708	7	Sololá	701	Sololá	2	El tablón	3	Marzo	2023-03-31T00:00:00	2024-11-06T22:00:00	5	Humedad	82
145709	7	Sololá	701	Sololá	2	El tablón	3	Marzo	2023-03-31T00:00:00	2024-11-06T22:00:00	6	Velocidad del viento	3.2
145710	7	Sololá	701	Sololá	2	El tablón	3	Marzo	2023-03-31T00:00:00	2024-11-06T22:00:00	7	Dirección del viento	3.22
145711	7	Sololá	701	Sololá	2	El tablón	3	Marzo	2023-03-31T00:00:00	2024-11-06T22:00:00	1	Precipitación	0
145712	7	Sololá	701	Sololá	2	El tablón	3	Marzo	2023-03-31T00:00:00	2024-11-06T22:00:00	8	Radiación solar	0
145713	7	Sololá	701	Sololá	2	El tablón	3	Marzo	2023-03-31T00:00:00	2024-11-06T23:00:00	2	Temperatura media	11.1
145714	7	Sololá	701	Sololá	2	El tablón	3	Marzo	2023-03-31T00:00:00	2024-11-06T23:00:00	4	Temperatura máxima	12.7
145715	7	Sololá	701	Sololá	2	El tablón	3	Marzo	2023-03-31T00:00:00	2024-11-06T23:00:00	3	Temperatura mínima	11.1
145716	7	Sololá	701	Sololá	2	El tablón	3	Marzo	2023-03-31T00:00:00	2024-11-06T23:00:00	5	Humedad	85
145717	7	Sololá	701	Sololá	2	El tablón	3	Marzo	2023-03-31T00:00:00	2024-11-06T23:00:00	6	Velocidad del viento	1.6
145718	7	Sololá	701	Sololá	2	El tablón	3	Marzo	2023-03-31T00:00:00	2024-11-06T23:00:00	7	Dirección del viento	1.61
145719	7	Sololá	701	Sololá	2	El tablón	3	Marzo	2023-03-31T00:00:00	2024-11-06T23:00:00	1	Precipitación	0
145720	7	Sololá	701	Sololá	2	El tablón	3	Marzo	2023-03-31T00:00:00	2024-11-06T23:00:00	8	Radiación solar	0
145721	7	Sololá	701	Sololá	2	El tablón	4	Abril	2023-01-04T00:00:00	2024-11-06T00:00:00	2	Temperatura media	9.8
145722	7	Sololá	701	Sololá	2	El tablón	4	Abril	2023-01-04T00:00:00	2024-11-06T00:00:00	4	Temperatura máxima	11.2
145723	7	Sololá	701	Sololá	2	El tablón	4	Abril	2023-01-04T00:00:00	2024-11-06T00:00:00	3	Temperatura mínima	9.8
145724	7	Sololá	701	Sololá	2	El tablón	4	Abril	2023-01-04T00:00:00	2024-11-06T00:00:00	5	Humedad	85
145725	7	Sololá	701	Sololá	2	El tablón	4	Abril	2023-01-04T00:00:00	2024-11-06T00:00:00	6	Velocidad del viento	3.2
145726	7	Sololá	701	Sololá	2	El tablón	4	Abril	2023-01-04T00:00:00	2024-11-06T00:00:00	7	Dirección del viento	3.22
145727	7	Sololá	701	Sololá	2	El tablón	4	Abril	2023-01-04T00:00:00	2024-11-06T00:00:00	1	Precipitación	0
145728	7	Sololá	701	Sololá	2	El tablón	4	Abril	2023-01-04T00:00:00	2024-11-06T00:00:00	8	Radiación solar	0
145729	7	Sololá	701	Sololá	2	El tablón	4	Abril	2023-01-04T00:00:00	2024-11-06T01:00:00	2	Temperatura media	10.4
145730	7	Sololá	701	Sololá	2	El tablón	4	Abril	2023-01-04T00:00:00	2024-11-06T01:00:00	4	Temperatura máxima	10.5
145731	7	Sololá	701	Sololá	2	El tablón	4	Abril	2023-01-04T00:00:00	2024-11-06T01:00:00	3	Temperatura mínima	9.9
145732	7	Sololá	701	Sololá	2	El tablón	4	Abril	2023-01-04T00:00:00	2024-11-06T01:00:00	5	Humedad	83
145733	7	Sololá	701	Sololá	2	El tablón	4	Abril	2023-01-04T00:00:00	2024-11-06T01:00:00	6	Velocidad del viento	3.2
145734	7	Sololá	701	Sololá	2	El tablón	4	Abril	2023-01-04T00:00:00	2024-11-06T01:00:00	7	Dirección del viento	3.22
145735	7	Sololá	701	Sololá	2	El tablón	4	Abril	2023-01-04T00:00:00	2024-11-06T01:00:00	1	Precipitación	0
145736	7	Sololá	701	Sololá	2	El tablón	4	Abril	2023-01-04T00:00:00	2024-11-06T01:00:00	8	Radiación solar	0
145737	7	Sololá	701	Sololá	2	El tablón	4	Abril	2023-01-04T00:00:00	2024-11-06T02:00:00	2	Temperatura media	9.4
145738	7	Sololá	701	Sololá	2	El tablón	4	Abril	2023-01-04T00:00:00	2024-11-06T02:00:00	4	Temperatura máxima	10.4
145739	7	Sololá	701	Sololá	2	El tablón	4	Abril	2023-01-04T00:00:00	2024-11-06T02:00:00	3	Temperatura mínima	9.3
145740	7	Sololá	701	Sololá	2	El tablón	4	Abril	2023-01-04T00:00:00	2024-11-06T02:00:00	5	Humedad	85
145741	7	Sololá	701	Sololá	2	El tablón	4	Abril	2023-01-04T00:00:00	2024-11-06T02:00:00	6	Velocidad del viento	3.2
145742	7	Sololá	701	Sololá	2	El tablón	4	Abril	2023-01-04T00:00:00	2024-11-06T02:00:00	7	Dirección del viento	3.22
145743	7	Sololá	701	Sololá	2	El tablón	4	Abril	2023-01-04T00:00:00	2024-11-06T02:00:00	1	Precipitación	0
145744	7	Sololá	701	Sololá	2	El tablón	4	Abril	2023-01-04T00:00:00	2024-11-06T02:00:00	8	Radiación solar	0
145745	7	Sololá	701	Sololá	2	El tablón	4	Abril	2023-01-04T00:00:00	2024-11-06T03:00:00	2	Temperatura media	10.2
145746	7	Sololá	701	Sololá	2	El tablón	4	Abril	2023-01-04T00:00:00	2024-11-06T03:00:00	4	Temperatura máxima	10.3
145747	7	Sololá	701	Sololá	2	El tablón	4	Abril	2023-01-04T00:00:00	2024-11-06T03:00:00	3	Temperatura mínima	9.3
145748	7	Sololá	701	Sololá	2	El tablón	4	Abril	2023-01-04T00:00:00	2024-11-06T03:00:00	5	Humedad	79
145749	7	Sololá	701	Sololá	2	El tablón	4	Abril	2023-01-04T00:00:00	2024-11-06T03:00:00	6	Velocidad del viento	3.2
145750	7	Sololá	701	Sololá	2	El tablón	4	Abril	2023-01-04T00:00:00	2024-11-06T03:00:00	7	Dirección del viento	3.22
145751	7	Sololá	701	Sololá	2	El tablón	4	Abril	2023-01-04T00:00:00	2024-11-06T03:00:00	1	Precipitación	0
145752	7	Sololá	701	Sololá	2	El tablón	4	Abril	2023-01-04T00:00:00	2024-11-06T03:00:00	8	Radiación solar	0
145753	7	Sololá	701	Sololá	2	El tablón	4	Abril	2023-01-04T00:00:00	2024-11-06T04:00:00	2	Temperatura media	9.3
145754	7	Sololá	701	Sololá	2	El tablón	4	Abril	2023-01-04T00:00:00	2024-11-06T04:00:00	4	Temperatura máxima	10.2
145755	7	Sololá	701	Sololá	2	El tablón	4	Abril	2023-01-04T00:00:00	2024-11-06T04:00:00	3	Temperatura mínima	9.3
145756	7	Sololá	701	Sololá	2	El tablón	4	Abril	2023-01-04T00:00:00	2024-11-06T04:00:00	5	Humedad	84
145757	7	Sololá	701	Sololá	2	El tablón	4	Abril	2023-01-04T00:00:00	2024-11-06T04:00:00	6	Velocidad del viento	3.2
145758	7	Sololá	701	Sololá	2	El tablón	4	Abril	2023-01-04T00:00:00	2024-11-06T04:00:00	7	Dirección del viento	3.22
145759	7	Sololá	701	Sololá	2	El tablón	4	Abril	2023-01-04T00:00:00	2024-11-06T04:00:00	1	Precipitación	0
145760	7	Sololá	701	Sololá	2	El tablón	4	Abril	2023-01-04T00:00:00	2024-11-06T04:00:00	8	Radiación solar	0
145761	7	Sololá	701	Sololá	2	El tablón	4	Abril	2023-01-04T00:00:00	2024-11-06T05:00:00	2	Temperatura media	9.1
145762	7	Sololá	701	Sololá	2	El tablón	4	Abril	2023-01-04T00:00:00	2024-11-06T05:00:00	4	Temperatura máxima	9.3
145763	7	Sololá	701	Sololá	2	El tablón	4	Abril	2023-01-04T00:00:00	2024-11-06T05:00:00	3	Temperatura mínima	8.9
145764	7	Sololá	701	Sololá	2	El tablón	4	Abril	2023-01-04T00:00:00	2024-11-06T05:00:00	5	Humedad	85
145765	7	Sololá	701	Sololá	2	El tablón	4	Abril	2023-01-04T00:00:00	2024-11-06T05:00:00	6	Velocidad del viento	3.2
145766	7	Sololá	701	Sololá	2	El tablón	4	Abril	2023-01-04T00:00:00	2024-11-06T05:00:00	7	Dirección del viento	3.22
145767	7	Sololá	701	Sololá	2	El tablón	4	Abril	2023-01-04T00:00:00	2024-11-06T05:00:00	1	Precipitación	0
145768	7	Sololá	701	Sololá	2	El tablón	4	Abril	2023-01-04T00:00:00	2024-11-06T05:00:00	8	Radiación solar	0
145769	7	Sololá	701	Sololá	2	El tablón	4	Abril	2023-01-04T00:00:00	2024-11-06T06:00:00	2	Temperatura media	8.6
145770	7	Sololá	701	Sololá	2	El tablón	4	Abril	2023-01-04T00:00:00	2024-11-06T06:00:00	4	Temperatura máxima	9.1
145771	7	Sololá	701	Sololá	2	El tablón	4	Abril	2023-01-04T00:00:00	2024-11-06T06:00:00	3	Temperatura mínima	8.4
145772	7	Sololá	701	Sololá	2	El tablón	4	Abril	2023-01-04T00:00:00	2024-11-06T06:00:00	5	Humedad	83
145773	7	Sololá	701	Sololá	2	El tablón	4	Abril	2023-01-04T00:00:00	2024-11-06T06:00:00	6	Velocidad del viento	3.2
145774	7	Sololá	701	Sololá	2	El tablón	4	Abril	2023-01-04T00:00:00	2024-11-06T06:00:00	7	Dirección del viento	3.22
145775	7	Sololá	701	Sololá	2	El tablón	4	Abril	2023-01-04T00:00:00	2024-11-06T06:00:00	1	Precipitación	0
145776	7	Sololá	701	Sololá	2	El tablón	4	Abril	2023-01-04T00:00:00	2024-11-06T06:00:00	8	Radiación solar	0
145777	7	Sololá	701	Sololá	2	El tablón	4	Abril	2023-01-04T00:00:00	2024-11-06T07:00:00	2	Temperatura media	10.5
145778	7	Sololá	701	Sololá	2	El tablón	4	Abril	2023-01-04T00:00:00	2024-11-06T07:00:00	4	Temperatura máxima	10.5
145779	7	Sololá	701	Sololá	2	El tablón	4	Abril	2023-01-04T00:00:00	2024-11-06T07:00:00	3	Temperatura mínima	8.4
145780	7	Sololá	701	Sololá	2	El tablón	4	Abril	2023-01-04T00:00:00	2024-11-06T07:00:00	5	Humedad	79
145781	7	Sololá	701	Sololá	2	El tablón	4	Abril	2023-01-04T00:00:00	2024-11-06T07:00:00	6	Velocidad del viento	3.2
145782	7	Sololá	701	Sololá	2	El tablón	4	Abril	2023-01-04T00:00:00	2024-11-06T07:00:00	7	Dirección del viento	3.22
145783	7	Sololá	701	Sololá	2	El tablón	4	Abril	2023-01-04T00:00:00	2024-11-06T07:00:00	1	Precipitación	0
145784	7	Sololá	701	Sololá	2	El tablón	4	Abril	2023-01-04T00:00:00	2024-11-06T07:00:00	8	Radiación solar	50
145785	7	Sololá	701	Sololá	2	El tablón	4	Abril	2023-01-04T00:00:00	2024-11-06T08:00:00	2	Temperatura media	14.2
145786	7	Sololá	701	Sololá	2	El tablón	4	Abril	2023-01-04T00:00:00	2024-11-06T08:00:00	4	Temperatura máxima	14.2
145787	7	Sololá	701	Sololá	2	El tablón	4	Abril	2023-01-04T00:00:00	2024-11-06T08:00:00	3	Temperatura mínima	10.5
145788	7	Sololá	701	Sololá	2	El tablón	4	Abril	2023-01-04T00:00:00	2024-11-06T08:00:00	5	Humedad	74
145789	7	Sololá	701	Sololá	2	El tablón	4	Abril	2023-01-04T00:00:00	2024-11-06T08:00:00	6	Velocidad del viento	1.6
145790	7	Sololá	701	Sololá	2	El tablón	4	Abril	2023-01-04T00:00:00	2024-11-06T08:00:00	7	Dirección del viento	1.61
145791	7	Sololá	701	Sololá	2	El tablón	4	Abril	2023-01-04T00:00:00	2024-11-06T08:00:00	1	Precipitación	0
145792	7	Sololá	701	Sololá	2	El tablón	4	Abril	2023-01-04T00:00:00	2024-11-06T08:00:00	8	Radiación solar	230
145793	7	Sololá	701	Sololá	2	El tablón	4	Abril	2023-01-04T00:00:00	2024-11-06T09:00:00	2	Temperatura media	15.6
145794	7	Sololá	701	Sololá	2	El tablón	4	Abril	2023-01-04T00:00:00	2024-11-06T09:00:00	4	Temperatura máxima	16.1
145795	7	Sololá	701	Sololá	2	El tablón	4	Abril	2023-01-04T00:00:00	2024-11-06T09:00:00	3	Temperatura mínima	14.2
145796	7	Sololá	701	Sololá	2	El tablón	4	Abril	2023-01-04T00:00:00	2024-11-06T09:00:00	5	Humedad	77
145797	7	Sololá	701	Sololá	2	El tablón	4	Abril	2023-01-04T00:00:00	2024-11-06T09:00:00	6	Velocidad del viento	4.8
145798	7	Sololá	701	Sololá	2	El tablón	4	Abril	2023-01-04T00:00:00	2024-11-06T09:00:00	7	Dirección del viento	4.83
145799	7	Sololá	701	Sololá	2	El tablón	4	Abril	2023-01-04T00:00:00	2024-11-06T09:00:00	1	Precipitación	0
145800	7	Sololá	701	Sololá	2	El tablón	4	Abril	2023-01-04T00:00:00	2024-11-06T09:00:00	8	Radiación solar	423
145801	7	Sololá	701	Sololá	2	El tablón	4	Abril	2023-01-04T00:00:00	2024-11-06T10:00:00	2	Temperatura media	18.6
145802	7	Sololá	701	Sololá	2	El tablón	4	Abril	2023-01-04T00:00:00	2024-11-06T10:00:00	4	Temperatura máxima	18.7
145803	7	Sololá	701	Sololá	2	El tablón	4	Abril	2023-01-04T00:00:00	2024-11-06T10:00:00	3	Temperatura mínima	15.6
145804	7	Sololá	701	Sololá	2	El tablón	4	Abril	2023-01-04T00:00:00	2024-11-06T10:00:00	5	Humedad	39
145805	7	Sololá	701	Sololá	2	El tablón	4	Abril	2023-01-04T00:00:00	2024-11-06T10:00:00	6	Velocidad del viento	9.7
145806	7	Sololá	701	Sololá	2	El tablón	4	Abril	2023-01-04T00:00:00	2024-11-06T10:00:00	7	Dirección del viento	9.66
145807	7	Sololá	701	Sololá	2	El tablón	4	Abril	2023-01-04T00:00:00	2024-11-06T10:00:00	1	Precipitación	0
145808	7	Sololá	701	Sololá	2	El tablón	4	Abril	2023-01-04T00:00:00	2024-11-06T10:00:00	8	Radiación solar	579
145809	7	Sololá	701	Sololá	2	El tablón	4	Abril	2023-01-04T00:00:00	2024-11-06T11:00:00	2	Temperatura media	19.8
145810	7	Sololá	701	Sololá	2	El tablón	4	Abril	2023-01-04T00:00:00	2024-11-06T11:00:00	4	Temperatura máxima	19.8
145811	7	Sololá	701	Sololá	2	El tablón	4	Abril	2023-01-04T00:00:00	2024-11-06T11:00:00	3	Temperatura mínima	18.6
145812	7	Sololá	701	Sololá	2	El tablón	4	Abril	2023-01-04T00:00:00	2024-11-06T11:00:00	5	Humedad	39
145813	7	Sololá	701	Sololá	2	El tablón	4	Abril	2023-01-04T00:00:00	2024-11-06T11:00:00	6	Velocidad del viento	11.3
145814	7	Sololá	701	Sololá	2	El tablón	4	Abril	2023-01-04T00:00:00	2024-11-06T11:00:00	7	Dirección del viento	11.27
145815	7	Sololá	701	Sololá	2	El tablón	4	Abril	2023-01-04T00:00:00	2024-11-06T11:00:00	1	Precipitación	0
145816	7	Sololá	701	Sololá	2	El tablón	4	Abril	2023-01-04T00:00:00	2024-11-06T11:00:00	8	Radiación solar	852
145817	7	Sololá	701	Sololá	2	El tablón	4	Abril	2023-01-04T00:00:00	2024-11-06T12:00:00	2	Temperatura media	20.6
145818	7	Sololá	701	Sololá	2	El tablón	4	Abril	2023-01-04T00:00:00	2024-11-06T12:00:00	4	Temperatura máxima	21
145819	7	Sololá	701	Sololá	2	El tablón	4	Abril	2023-01-04T00:00:00	2024-11-06T12:00:00	3	Temperatura mínima	19.8
145820	7	Sololá	701	Sololá	2	El tablón	4	Abril	2023-01-04T00:00:00	2024-11-06T12:00:00	5	Humedad	56
145821	7	Sololá	701	Sololá	2	El tablón	4	Abril	2023-01-04T00:00:00	2024-11-06T12:00:00	6	Velocidad del viento	9.7
145822	7	Sololá	701	Sololá	2	El tablón	4	Abril	2023-01-04T00:00:00	2024-11-06T12:00:00	7	Dirección del viento	9.66
145823	7	Sololá	701	Sololá	2	El tablón	4	Abril	2023-01-04T00:00:00	2024-11-06T12:00:00	1	Precipitación	0
145824	7	Sololá	701	Sololá	2	El tablón	4	Abril	2023-01-04T00:00:00	2024-11-06T12:00:00	8	Radiación solar	936
145825	7	Sololá	701	Sololá	2	El tablón	4	Abril	2023-01-04T00:00:00	2024-11-06T13:00:00	2	Temperatura media	19.2
145826	7	Sololá	701	Sololá	2	El tablón	4	Abril	2023-01-04T00:00:00	2024-11-06T13:00:00	4	Temperatura máxima	20.6
145827	7	Sololá	701	Sololá	2	El tablón	4	Abril	2023-01-04T00:00:00	2024-11-06T13:00:00	3	Temperatura mínima	18.8
145828	7	Sololá	701	Sololá	2	El tablón	4	Abril	2023-01-04T00:00:00	2024-11-06T13:00:00	5	Humedad	75
145829	7	Sololá	701	Sololá	2	El tablón	4	Abril	2023-01-04T00:00:00	2024-11-06T13:00:00	6	Velocidad del viento	9.7
145830	7	Sololá	701	Sololá	2	El tablón	4	Abril	2023-01-04T00:00:00	2024-11-06T13:00:00	7	Dirección del viento	9.66
145831	7	Sololá	701	Sololá	2	El tablón	4	Abril	2023-01-04T00:00:00	2024-11-06T13:00:00	1	Precipitación	0
145832	7	Sololá	701	Sololá	2	El tablón	4	Abril	2023-01-04T00:00:00	2024-11-06T13:00:00	8	Radiación solar	937
145833	7	Sololá	701	Sololá	2	El tablón	4	Abril	2023-01-04T00:00:00	2024-11-06T14:00:00	2	Temperatura media	18.2
145834	7	Sololá	701	Sololá	2	El tablón	4	Abril	2023-01-04T00:00:00	2024-11-06T14:00:00	4	Temperatura máxima	19.5
145835	7	Sololá	701	Sololá	2	El tablón	4	Abril	2023-01-04T00:00:00	2024-11-06T14:00:00	3	Temperatura mínima	17.9
145836	7	Sololá	701	Sololá	2	El tablón	4	Abril	2023-01-04T00:00:00	2024-11-06T14:00:00	5	Humedad	82
145837	7	Sololá	701	Sololá	2	El tablón	4	Abril	2023-01-04T00:00:00	2024-11-06T14:00:00	6	Velocidad del viento	9.7
145838	7	Sololá	701	Sololá	2	El tablón	4	Abril	2023-01-04T00:00:00	2024-11-06T14:00:00	7	Dirección del viento	9.66
145839	7	Sololá	701	Sololá	2	El tablón	4	Abril	2023-01-04T00:00:00	2024-11-06T14:00:00	1	Precipitación	0
145840	7	Sololá	701	Sololá	2	El tablón	4	Abril	2023-01-04T00:00:00	2024-11-06T14:00:00	8	Radiación solar	889
145841	7	Sololá	701	Sololá	2	El tablón	4	Abril	2023-01-04T00:00:00	2024-11-06T15:00:00	2	Temperatura media	16.9
145842	7	Sololá	701	Sololá	2	El tablón	4	Abril	2023-01-04T00:00:00	2024-11-06T15:00:00	4	Temperatura máxima	18.2
145843	7	Sololá	701	Sololá	2	El tablón	4	Abril	2023-01-04T00:00:00	2024-11-06T15:00:00	3	Temperatura mínima	16.9
145844	7	Sololá	701	Sololá	2	El tablón	4	Abril	2023-01-04T00:00:00	2024-11-06T15:00:00	5	Humedad	84
145845	7	Sololá	701	Sololá	2	El tablón	4	Abril	2023-01-04T00:00:00	2024-11-06T15:00:00	6	Velocidad del viento	11.3
145846	7	Sololá	701	Sololá	2	El tablón	4	Abril	2023-01-04T00:00:00	2024-11-06T15:00:00	7	Dirección del viento	11.27
145847	7	Sololá	701	Sololá	2	El tablón	4	Abril	2023-01-04T00:00:00	2024-11-06T15:00:00	1	Precipitación	0
145848	7	Sololá	701	Sololá	2	El tablón	4	Abril	2023-01-04T00:00:00	2024-11-06T15:00:00	8	Radiación solar	739
145849	7	Sololá	701	Sololá	2	El tablón	4	Abril	2023-01-04T00:00:00	2024-11-06T16:00:00	2	Temperatura media	17.3
145850	7	Sololá	701	Sololá	2	El tablón	4	Abril	2023-01-04T00:00:00	2024-11-06T16:00:00	4	Temperatura máxima	17.4
145851	7	Sololá	701	Sololá	2	El tablón	4	Abril	2023-01-04T00:00:00	2024-11-06T16:00:00	3	Temperatura mínima	16.9
145852	7	Sololá	701	Sololá	2	El tablón	4	Abril	2023-01-04T00:00:00	2024-11-06T16:00:00	5	Humedad	84
145853	7	Sololá	701	Sololá	2	El tablón	4	Abril	2023-01-04T00:00:00	2024-11-06T16:00:00	6	Velocidad del viento	8
145854	7	Sololá	701	Sololá	2	El tablón	4	Abril	2023-01-04T00:00:00	2024-11-06T16:00:00	7	Dirección del viento	8.05
145855	7	Sololá	701	Sololá	2	El tablón	4	Abril	2023-01-04T00:00:00	2024-11-06T16:00:00	1	Precipitación	0
145856	7	Sololá	701	Sololá	2	El tablón	4	Abril	2023-01-04T00:00:00	2024-11-06T16:00:00	8	Radiación solar	566
145857	7	Sololá	701	Sololá	2	El tablón	4	Abril	2023-01-04T00:00:00	2024-11-06T17:00:00	2	Temperatura media	16.8
145858	7	Sololá	701	Sololá	2	El tablón	4	Abril	2023-01-04T00:00:00	2024-11-06T17:00:00	4	Temperatura máxima	17.5
145859	7	Sololá	701	Sololá	2	El tablón	4	Abril	2023-01-04T00:00:00	2024-11-06T17:00:00	3	Temperatura mínima	16.8
145860	7	Sololá	701	Sololá	2	El tablón	4	Abril	2023-01-04T00:00:00	2024-11-06T17:00:00	5	Humedad	85
145861	7	Sololá	701	Sololá	2	El tablón	4	Abril	2023-01-04T00:00:00	2024-11-06T17:00:00	6	Velocidad del viento	8
145862	7	Sololá	701	Sololá	2	El tablón	4	Abril	2023-01-04T00:00:00	2024-11-06T17:00:00	7	Dirección del viento	8.05
145863	7	Sololá	701	Sololá	2	El tablón	4	Abril	2023-01-04T00:00:00	2024-11-06T17:00:00	1	Precipitación	0
145864	7	Sololá	701	Sololá	2	El tablón	4	Abril	2023-01-04T00:00:00	2024-11-06T17:00:00	8	Radiación solar	378
145865	7	Sololá	701	Sololá	2	El tablón	4	Abril	2023-01-04T00:00:00	2024-11-06T18:00:00	2	Temperatura media	15.9
145866	7	Sololá	701	Sololá	2	El tablón	4	Abril	2023-01-04T00:00:00	2024-11-06T18:00:00	4	Temperatura máxima	16.8
145867	7	Sololá	701	Sololá	2	El tablón	4	Abril	2023-01-04T00:00:00	2024-11-06T18:00:00	3	Temperatura mínima	15.9
145868	7	Sololá	701	Sololá	2	El tablón	4	Abril	2023-01-04T00:00:00	2024-11-06T18:00:00	5	Humedad	86
145869	7	Sololá	701	Sololá	2	El tablón	4	Abril	2023-01-04T00:00:00	2024-11-06T18:00:00	6	Velocidad del viento	4.8
145870	7	Sololá	701	Sololá	2	El tablón	4	Abril	2023-01-04T00:00:00	2024-11-06T18:00:00	7	Dirección del viento	4.83
145871	7	Sololá	701	Sololá	2	El tablón	4	Abril	2023-01-04T00:00:00	2024-11-06T18:00:00	1	Precipitación	0
145872	7	Sololá	701	Sololá	2	El tablón	4	Abril	2023-01-04T00:00:00	2024-11-06T18:00:00	8	Radiación solar	127
145873	7	Sololá	701	Sololá	2	El tablón	4	Abril	2023-01-04T00:00:00	2024-11-06T19:00:00	2	Temperatura media	14.8
145874	7	Sololá	701	Sololá	2	El tablón	4	Abril	2023-01-04T00:00:00	2024-11-06T19:00:00	4	Temperatura máxima	15.9
145875	7	Sololá	701	Sololá	2	El tablón	4	Abril	2023-01-04T00:00:00	2024-11-06T19:00:00	3	Temperatura mínima	14.8
145876	7	Sololá	701	Sololá	2	El tablón	4	Abril	2023-01-04T00:00:00	2024-11-06T19:00:00	5	Humedad	81
145877	7	Sololá	701	Sololá	2	El tablón	4	Abril	2023-01-04T00:00:00	2024-11-06T19:00:00	6	Velocidad del viento	3.2
145878	7	Sololá	701	Sololá	2	El tablón	4	Abril	2023-01-04T00:00:00	2024-11-06T19:00:00	7	Dirección del viento	3.22
145879	7	Sololá	701	Sololá	2	El tablón	4	Abril	2023-01-04T00:00:00	2024-11-06T19:00:00	1	Precipitación	0
145880	7	Sololá	701	Sololá	2	El tablón	4	Abril	2023-01-04T00:00:00	2024-11-06T19:00:00	8	Radiación solar	0
145881	7	Sololá	701	Sololá	2	El tablón	4	Abril	2023-01-04T00:00:00	2024-11-06T20:00:00	2	Temperatura media	14
145882	7	Sololá	701	Sololá	2	El tablón	4	Abril	2023-01-04T00:00:00	2024-11-06T20:00:00	4	Temperatura máxima	14.9
145883	7	Sololá	701	Sololá	2	El tablón	4	Abril	2023-01-04T00:00:00	2024-11-06T20:00:00	3	Temperatura mínima	14
145884	7	Sololá	701	Sololá	2	El tablón	4	Abril	2023-01-04T00:00:00	2024-11-06T20:00:00	5	Humedad	82
145885	7	Sololá	701	Sololá	2	El tablón	4	Abril	2023-01-04T00:00:00	2024-11-06T20:00:00	6	Velocidad del viento	6.4
145886	7	Sololá	701	Sololá	2	El tablón	4	Abril	2023-01-04T00:00:00	2024-11-06T20:00:00	7	Dirección del viento	6.44
145887	7	Sololá	701	Sololá	2	El tablón	4	Abril	2023-01-04T00:00:00	2024-11-06T20:00:00	1	Precipitación	0
145888	7	Sololá	701	Sololá	2	El tablón	4	Abril	2023-01-04T00:00:00	2024-11-06T20:00:00	8	Radiación solar	0
145889	7	Sololá	701	Sololá	2	El tablón	4	Abril	2023-01-04T00:00:00	2024-11-06T21:00:00	2	Temperatura media	13
145890	7	Sololá	701	Sololá	2	El tablón	4	Abril	2023-01-04T00:00:00	2024-11-06T21:00:00	4	Temperatura máxima	14
145891	7	Sololá	701	Sololá	2	El tablón	4	Abril	2023-01-04T00:00:00	2024-11-06T21:00:00	3	Temperatura mínima	13
145892	7	Sololá	701	Sololá	2	El tablón	4	Abril	2023-01-04T00:00:00	2024-11-06T21:00:00	5	Humedad	84
145893	7	Sololá	701	Sololá	2	El tablón	4	Abril	2023-01-04T00:00:00	2024-11-06T21:00:00	6	Velocidad del viento	8
145894	7	Sololá	701	Sololá	2	El tablón	4	Abril	2023-01-04T00:00:00	2024-11-06T21:00:00	7	Dirección del viento	8.05
145895	7	Sololá	701	Sololá	2	El tablón	4	Abril	2023-01-04T00:00:00	2024-11-06T21:00:00	1	Precipitación	0
145896	7	Sololá	701	Sololá	2	El tablón	4	Abril	2023-01-04T00:00:00	2024-11-06T21:00:00	8	Radiación solar	0
145897	7	Sololá	701	Sololá	2	El tablón	4	Abril	2023-01-04T00:00:00	2024-11-06T22:00:00	2	Temperatura media	12.6
145898	7	Sololá	701	Sololá	2	El tablón	4	Abril	2023-01-04T00:00:00	2024-11-06T22:00:00	4	Temperatura máxima	13
145899	7	Sololá	701	Sololá	2	El tablón	4	Abril	2023-01-04T00:00:00	2024-11-06T22:00:00	3	Temperatura mínima	12.6
145900	7	Sololá	701	Sololá	2	El tablón	4	Abril	2023-01-04T00:00:00	2024-11-06T22:00:00	5	Humedad	86
145901	7	Sololá	701	Sololá	2	El tablón	4	Abril	2023-01-04T00:00:00	2024-11-06T22:00:00	6	Velocidad del viento	8
145902	7	Sololá	701	Sololá	2	El tablón	4	Abril	2023-01-04T00:00:00	2024-11-06T22:00:00	7	Dirección del viento	8.05
145903	7	Sololá	701	Sololá	2	El tablón	4	Abril	2023-01-04T00:00:00	2024-11-06T22:00:00	1	Precipitación	0
145904	7	Sololá	701	Sololá	2	El tablón	4	Abril	2023-01-04T00:00:00	2024-11-06T22:00:00	8	Radiación solar	0
145905	7	Sololá	701	Sololá	2	El tablón	4	Abril	2023-01-04T00:00:00	2024-11-06T23:00:00	2	Temperatura media	12.2
145906	7	Sololá	701	Sololá	2	El tablón	4	Abril	2023-01-04T00:00:00	2024-11-06T23:00:00	4	Temperatura máxima	12.6
145907	7	Sololá	701	Sololá	2	El tablón	4	Abril	2023-01-04T00:00:00	2024-11-06T23:00:00	3	Temperatura mínima	12.2
145908	7	Sololá	701	Sololá	2	El tablón	4	Abril	2023-01-04T00:00:00	2024-11-06T23:00:00	5	Humedad	85
145909	7	Sololá	701	Sololá	2	El tablón	4	Abril	2023-01-04T00:00:00	2024-11-06T23:00:00	6	Velocidad del viento	11.3
145910	7	Sololá	701	Sololá	2	El tablón	4	Abril	2023-01-04T00:00:00	2024-11-06T23:00:00	7	Dirección del viento	11.27
145911	7	Sololá	701	Sololá	2	El tablón	4	Abril	2023-01-04T00:00:00	2024-11-06T23:00:00	1	Precipitación	0
145912	7	Sololá	701	Sololá	2	El tablón	4	Abril	2023-01-04T00:00:00	2024-11-06T23:00:00	8	Radiación solar	0
145913	7	Sololá	701	Sololá	2	El tablón	4	Abril	2023-02-04T00:00:00	2024-11-06T00:00:00	2	Temperatura media	11.7
145914	7	Sololá	701	Sololá	2	El tablón	4	Abril	2023-02-04T00:00:00	2024-11-06T00:00:00	4	Temperatura máxima	12.2
145915	7	Sololá	701	Sololá	2	El tablón	4	Abril	2023-02-04T00:00:00	2024-11-06T00:00:00	3	Temperatura mínima	11.7
145916	7	Sololá	701	Sololá	2	El tablón	4	Abril	2023-02-04T00:00:00	2024-11-06T00:00:00	5	Humedad	85
145917	7	Sololá	701	Sololá	2	El tablón	4	Abril	2023-02-04T00:00:00	2024-11-06T00:00:00	6	Velocidad del viento	4.8
145918	7	Sololá	701	Sololá	2	El tablón	4	Abril	2023-02-04T00:00:00	2024-11-06T00:00:00	7	Dirección del viento	4.83
145919	7	Sololá	701	Sololá	2	El tablón	4	Abril	2023-02-04T00:00:00	2024-11-06T00:00:00	1	Precipitación	0
145920	7	Sololá	701	Sololá	2	El tablón	4	Abril	2023-02-04T00:00:00	2024-11-06T00:00:00	8	Radiación solar	0
145921	7	Sololá	701	Sololá	2	El tablón	4	Abril	2023-02-04T00:00:00	2024-11-06T01:00:00	2	Temperatura media	11.7
145922	7	Sololá	701	Sololá	2	El tablón	4	Abril	2023-02-04T00:00:00	2024-11-06T01:00:00	4	Temperatura máxima	11.8
145923	7	Sololá	701	Sololá	2	El tablón	4	Abril	2023-02-04T00:00:00	2024-11-06T01:00:00	3	Temperatura mínima	11.5
145924	7	Sololá	701	Sololá	2	El tablón	4	Abril	2023-02-04T00:00:00	2024-11-06T01:00:00	5	Humedad	75
145925	7	Sololá	701	Sololá	2	El tablón	4	Abril	2023-02-04T00:00:00	2024-11-06T01:00:00	6	Velocidad del viento	9.7
145926	7	Sololá	701	Sololá	2	El tablón	4	Abril	2023-02-04T00:00:00	2024-11-06T01:00:00	7	Dirección del viento	9.66
145927	7	Sololá	701	Sololá	2	El tablón	4	Abril	2023-02-04T00:00:00	2024-11-06T01:00:00	1	Precipitación	0
145928	7	Sololá	701	Sololá	2	El tablón	4	Abril	2023-02-04T00:00:00	2024-11-06T01:00:00	8	Radiación solar	0
145929	7	Sololá	701	Sololá	2	El tablón	4	Abril	2023-02-04T00:00:00	2024-11-06T02:00:00	2	Temperatura media	10.3
145930	7	Sololá	701	Sololá	2	El tablón	4	Abril	2023-02-04T00:00:00	2024-11-06T02:00:00	4	Temperatura máxima	11.7
145931	7	Sololá	701	Sololá	2	El tablón	4	Abril	2023-02-04T00:00:00	2024-11-06T02:00:00	3	Temperatura mínima	10.3
145932	7	Sololá	701	Sololá	2	El tablón	4	Abril	2023-02-04T00:00:00	2024-11-06T02:00:00	5	Humedad	70
145933	7	Sololá	701	Sololá	2	El tablón	4	Abril	2023-02-04T00:00:00	2024-11-06T02:00:00	6	Velocidad del viento	4.8
145934	7	Sololá	701	Sololá	2	El tablón	4	Abril	2023-02-04T00:00:00	2024-11-06T02:00:00	7	Dirección del viento	4.83
145935	7	Sololá	701	Sololá	2	El tablón	4	Abril	2023-02-04T00:00:00	2024-11-06T02:00:00	1	Precipitación	0
145936	7	Sololá	701	Sololá	2	El tablón	4	Abril	2023-02-04T00:00:00	2024-11-06T02:00:00	8	Radiación solar	0
145937	7	Sololá	701	Sololá	2	El tablón	4	Abril	2023-02-04T00:00:00	2024-11-06T03:00:00	2	Temperatura media	10.3
145938	7	Sololá	701	Sololá	2	El tablón	4	Abril	2023-02-04T00:00:00	2024-11-06T03:00:00	4	Temperatura máxima	10.8
145939	7	Sololá	701	Sololá	2	El tablón	4	Abril	2023-02-04T00:00:00	2024-11-06T03:00:00	3	Temperatura mínima	10.2
145940	7	Sololá	701	Sololá	2	El tablón	4	Abril	2023-02-04T00:00:00	2024-11-06T03:00:00	5	Humedad	67
145941	7	Sololá	701	Sololá	2	El tablón	4	Abril	2023-02-04T00:00:00	2024-11-06T03:00:00	6	Velocidad del viento	4.8
145942	7	Sololá	701	Sololá	2	El tablón	4	Abril	2023-02-04T00:00:00	2024-11-06T03:00:00	7	Dirección del viento	4.83
145943	7	Sololá	701	Sololá	2	El tablón	4	Abril	2023-02-04T00:00:00	2024-11-06T03:00:00	1	Precipitación	0
145944	7	Sololá	701	Sololá	2	El tablón	4	Abril	2023-02-04T00:00:00	2024-11-06T03:00:00	8	Radiación solar	0
145945	7	Sololá	701	Sololá	2	El tablón	4	Abril	2023-02-04T00:00:00	2024-11-06T04:00:00	2	Temperatura media	8.9
145946	7	Sololá	701	Sololá	2	El tablón	4	Abril	2023-02-04T00:00:00	2024-11-06T04:00:00	4	Temperatura máxima	10.3
145947	7	Sololá	701	Sololá	2	El tablón	4	Abril	2023-02-04T00:00:00	2024-11-06T04:00:00	3	Temperatura mínima	8.3
145948	7	Sololá	701	Sololá	2	El tablón	4	Abril	2023-02-04T00:00:00	2024-11-06T04:00:00	5	Humedad	63
145949	7	Sololá	701	Sololá	2	El tablón	4	Abril	2023-02-04T00:00:00	2024-11-06T04:00:00	6	Velocidad del viento	4.8
145950	7	Sololá	701	Sololá	2	El tablón	4	Abril	2023-02-04T00:00:00	2024-11-06T04:00:00	7	Dirección del viento	4.83
145951	7	Sololá	701	Sololá	2	El tablón	4	Abril	2023-02-04T00:00:00	2024-11-06T04:00:00	1	Precipitación	0
145952	7	Sololá	701	Sololá	2	El tablón	4	Abril	2023-02-04T00:00:00	2024-11-06T04:00:00	8	Radiación solar	0
145953	7	Sololá	701	Sololá	2	El tablón	4	Abril	2023-02-04T00:00:00	2024-11-06T05:00:00	2	Temperatura media	8.5
145954	7	Sololá	701	Sololá	2	El tablón	4	Abril	2023-02-04T00:00:00	2024-11-06T05:00:00	4	Temperatura máxima	9.2
145955	7	Sololá	701	Sololá	2	El tablón	4	Abril	2023-02-04T00:00:00	2024-11-06T05:00:00	3	Temperatura mínima	8.5
145956	7	Sololá	701	Sololá	2	El tablón	4	Abril	2023-02-04T00:00:00	2024-11-06T05:00:00	5	Humedad	56
145957	7	Sololá	701	Sololá	2	El tablón	4	Abril	2023-02-04T00:00:00	2024-11-06T05:00:00	6	Velocidad del viento	4.8
145958	7	Sololá	701	Sololá	2	El tablón	4	Abril	2023-02-04T00:00:00	2024-11-06T05:00:00	7	Dirección del viento	4.83
145959	7	Sololá	701	Sololá	2	El tablón	4	Abril	2023-02-04T00:00:00	2024-11-06T05:00:00	1	Precipitación	0
145960	7	Sololá	701	Sololá	2	El tablón	4	Abril	2023-02-04T00:00:00	2024-11-06T05:00:00	8	Radiación solar	0
145961	7	Sololá	701	Sololá	2	El tablón	4	Abril	2023-02-04T00:00:00	2024-11-06T06:00:00	2	Temperatura media	9.4
145962	7	Sololá	701	Sololá	2	El tablón	4	Abril	2023-02-04T00:00:00	2024-11-06T06:00:00	4	Temperatura máxima	9.4
145963	7	Sololá	701	Sololá	2	El tablón	4	Abril	2023-02-04T00:00:00	2024-11-06T06:00:00	3	Temperatura mínima	7.9
145964	7	Sololá	701	Sololá	2	El tablón	4	Abril	2023-02-04T00:00:00	2024-11-06T06:00:00	5	Humedad	63
145965	7	Sololá	701	Sololá	2	El tablón	4	Abril	2023-02-04T00:00:00	2024-11-06T06:00:00	6	Velocidad del viento	3.2
145966	7	Sololá	701	Sololá	2	El tablón	4	Abril	2023-02-04T00:00:00	2024-11-06T06:00:00	7	Dirección del viento	3.22
145967	7	Sololá	701	Sololá	2	El tablón	4	Abril	2023-02-04T00:00:00	2024-11-06T06:00:00	1	Precipitación	0
145968	7	Sololá	701	Sololá	2	El tablón	4	Abril	2023-02-04T00:00:00	2024-11-06T06:00:00	8	Radiación solar	0
145969	7	Sololá	701	Sololá	2	El tablón	4	Abril	2023-02-04T00:00:00	2024-11-06T07:00:00	2	Temperatura media	12.1
145970	7	Sololá	701	Sololá	2	El tablón	4	Abril	2023-02-04T00:00:00	2024-11-06T07:00:00	4	Temperatura máxima	12.1
145971	7	Sololá	701	Sololá	2	El tablón	4	Abril	2023-02-04T00:00:00	2024-11-06T07:00:00	3	Temperatura mínima	9.4
145972	7	Sololá	701	Sololá	2	El tablón	4	Abril	2023-02-04T00:00:00	2024-11-06T07:00:00	5	Humedad	56
145973	7	Sololá	701	Sololá	2	El tablón	4	Abril	2023-02-04T00:00:00	2024-11-06T07:00:00	6	Velocidad del viento	3.2
145974	7	Sololá	701	Sololá	2	El tablón	4	Abril	2023-02-04T00:00:00	2024-11-06T07:00:00	7	Dirección del viento	3.22
145975	7	Sololá	701	Sololá	2	El tablón	4	Abril	2023-02-04T00:00:00	2024-11-06T07:00:00	1	Precipitación	0
145976	7	Sololá	701	Sololá	2	El tablón	4	Abril	2023-02-04T00:00:00	2024-11-06T07:00:00	8	Radiación solar	57
145977	7	Sololá	701	Sololá	2	El tablón	4	Abril	2023-02-04T00:00:00	2024-11-06T08:00:00	2	Temperatura media	14.9
145978	7	Sololá	701	Sololá	2	El tablón	4	Abril	2023-02-04T00:00:00	2024-11-06T08:00:00	4	Temperatura máxima	14.9
145979	7	Sololá	701	Sololá	2	El tablón	4	Abril	2023-02-04T00:00:00	2024-11-06T08:00:00	3	Temperatura mínima	12.1
145980	7	Sololá	701	Sololá	2	El tablón	4	Abril	2023-02-04T00:00:00	2024-11-06T08:00:00	5	Humedad	58
145981	7	Sololá	701	Sololá	2	El tablón	4	Abril	2023-02-04T00:00:00	2024-11-06T08:00:00	6	Velocidad del viento	8
145982	7	Sololá	701	Sololá	2	El tablón	4	Abril	2023-02-04T00:00:00	2024-11-06T08:00:00	7	Dirección del viento	8.05
145983	7	Sololá	701	Sololá	2	El tablón	4	Abril	2023-02-04T00:00:00	2024-11-06T08:00:00	1	Precipitación	0
145984	7	Sololá	701	Sololá	2	El tablón	4	Abril	2023-02-04T00:00:00	2024-11-06T08:00:00	8	Radiación solar	237
145985	7	Sololá	701	Sololá	2	El tablón	4	Abril	2023-02-04T00:00:00	2024-11-06T09:00:00	2	Temperatura media	17.1
145986	7	Sololá	701	Sololá	2	El tablón	4	Abril	2023-02-04T00:00:00	2024-11-06T09:00:00	4	Temperatura máxima	17.1
145987	7	Sololá	701	Sololá	2	El tablón	4	Abril	2023-02-04T00:00:00	2024-11-06T09:00:00	3	Temperatura mínima	14.8
145988	7	Sololá	701	Sololá	2	El tablón	4	Abril	2023-02-04T00:00:00	2024-11-06T09:00:00	5	Humedad	52
145989	7	Sololá	701	Sololá	2	El tablón	4	Abril	2023-02-04T00:00:00	2024-11-06T09:00:00	6	Velocidad del viento	9.7
145990	7	Sololá	701	Sololá	2	El tablón	4	Abril	2023-02-04T00:00:00	2024-11-06T09:00:00	7	Dirección del viento	9.66
145991	7	Sololá	701	Sololá	2	El tablón	4	Abril	2023-02-04T00:00:00	2024-11-06T09:00:00	1	Precipitación	0
145992	7	Sololá	701	Sololá	2	El tablón	4	Abril	2023-02-04T00:00:00	2024-11-06T09:00:00	8	Radiación solar	435
145993	7	Sololá	701	Sololá	2	El tablón	4	Abril	2023-02-04T00:00:00	2024-11-06T10:00:00	2	Temperatura media	18.3
145994	7	Sololá	701	Sololá	2	El tablón	4	Abril	2023-02-04T00:00:00	2024-11-06T10:00:00	4	Temperatura máxima	18.3
145995	7	Sololá	701	Sololá	2	El tablón	4	Abril	2023-02-04T00:00:00	2024-11-06T10:00:00	3	Temperatura mínima	17.1
145996	7	Sololá	701	Sololá	2	El tablón	4	Abril	2023-02-04T00:00:00	2024-11-06T10:00:00	5	Humedad	46
145997	7	Sololá	701	Sololá	2	El tablón	4	Abril	2023-02-04T00:00:00	2024-11-06T10:00:00	6	Velocidad del viento	11.3
145998	7	Sololá	701	Sololá	2	El tablón	4	Abril	2023-02-04T00:00:00	2024-11-06T10:00:00	7	Dirección del viento	11.27
145999	7	Sololá	701	Sololá	2	El tablón	4	Abril	2023-02-04T00:00:00	2024-11-06T10:00:00	1	Precipitación	0
146000	7	Sololá	701	Sololá	2	El tablón	4	Abril	2023-02-04T00:00:00	2024-11-06T10:00:00	8	Radiación solar	576
146001	7	Sololá	701	Sololá	2	El tablón	4	Abril	2023-02-04T00:00:00	2024-11-06T11:00:00	2	Temperatura media	19.9
146002	7	Sololá	701	Sololá	2	El tablón	4	Abril	2023-02-04T00:00:00	2024-11-06T11:00:00	4	Temperatura máxima	20.1
146003	7	Sololá	701	Sololá	2	El tablón	4	Abril	2023-02-04T00:00:00	2024-11-06T11:00:00	3	Temperatura mínima	18.3
146004	7	Sololá	701	Sololá	2	El tablón	4	Abril	2023-02-04T00:00:00	2024-11-06T11:00:00	5	Humedad	30
146005	7	Sololá	701	Sololá	2	El tablón	4	Abril	2023-02-04T00:00:00	2024-11-06T11:00:00	6	Velocidad del viento	12.9
146006	7	Sololá	701	Sololá	2	El tablón	4	Abril	2023-02-04T00:00:00	2024-11-06T11:00:00	7	Dirección del viento	12.87
146007	7	Sololá	701	Sololá	2	El tablón	4	Abril	2023-02-04T00:00:00	2024-11-06T11:00:00	1	Precipitación	0
146008	7	Sololá	701	Sololá	2	El tablón	4	Abril	2023-02-04T00:00:00	2024-11-06T11:00:00	8	Radiación solar	852
146009	7	Sololá	701	Sololá	2	El tablón	4	Abril	2023-02-04T00:00:00	2024-11-06T12:00:00	2	Temperatura media	20.8
146010	7	Sololá	701	Sololá	2	El tablón	4	Abril	2023-02-04T00:00:00	2024-11-06T12:00:00	4	Temperatura máxima	21
146011	7	Sololá	701	Sololá	2	El tablón	4	Abril	2023-02-04T00:00:00	2024-11-06T12:00:00	3	Temperatura mínima	19.9
146012	7	Sololá	701	Sololá	2	El tablón	4	Abril	2023-02-04T00:00:00	2024-11-06T12:00:00	5	Humedad	27
146013	7	Sololá	701	Sololá	2	El tablón	4	Abril	2023-02-04T00:00:00	2024-11-06T12:00:00	6	Velocidad del viento	12.9
146014	7	Sololá	701	Sololá	2	El tablón	4	Abril	2023-02-04T00:00:00	2024-11-06T12:00:00	7	Dirección del viento	12.87
146015	7	Sololá	701	Sololá	2	El tablón	4	Abril	2023-02-04T00:00:00	2024-11-06T12:00:00	1	Precipitación	0
146016	7	Sololá	701	Sololá	2	El tablón	4	Abril	2023-02-04T00:00:00	2024-11-06T12:00:00	8	Radiación solar	953
146017	7	Sololá	701	Sololá	2	El tablón	4	Abril	2023-02-04T00:00:00	2024-11-06T13:00:00	2	Temperatura media	21.7
146018	7	Sololá	701	Sololá	2	El tablón	4	Abril	2023-02-04T00:00:00	2024-11-06T13:00:00	4	Temperatura máxima	21.8
146019	7	Sololá	701	Sololá	2	El tablón	4	Abril	2023-02-04T00:00:00	2024-11-06T13:00:00	3	Temperatura mínima	20.7
146020	7	Sololá	701	Sololá	2	El tablón	4	Abril	2023-02-04T00:00:00	2024-11-06T13:00:00	5	Humedad	25
146021	7	Sololá	701	Sololá	2	El tablón	4	Abril	2023-02-04T00:00:00	2024-11-06T13:00:00	6	Velocidad del viento	11.3
146022	7	Sololá	701	Sololá	2	El tablón	4	Abril	2023-02-04T00:00:00	2024-11-06T13:00:00	7	Dirección del viento	11.27
146023	7	Sololá	701	Sololá	2	El tablón	4	Abril	2023-02-04T00:00:00	2024-11-06T13:00:00	1	Precipitación	0
146024	7	Sololá	701	Sololá	2	El tablón	4	Abril	2023-02-04T00:00:00	2024-11-06T13:00:00	8	Radiación solar	965
146025	7	Sololá	701	Sololá	2	El tablón	4	Abril	2023-02-04T00:00:00	2024-11-06T14:00:00	2	Temperatura media	21.1
146026	7	Sololá	701	Sololá	2	El tablón	4	Abril	2023-02-04T00:00:00	2024-11-06T14:00:00	4	Temperatura máxima	21.7
146027	7	Sololá	701	Sololá	2	El tablón	4	Abril	2023-02-04T00:00:00	2024-11-06T14:00:00	3	Temperatura mínima	21
146028	7	Sololá	701	Sololá	2	El tablón	4	Abril	2023-02-04T00:00:00	2024-11-06T14:00:00	5	Humedad	25
146029	7	Sololá	701	Sololá	2	El tablón	4	Abril	2023-02-04T00:00:00	2024-11-06T14:00:00	6	Velocidad del viento	11.3
146030	7	Sololá	701	Sololá	2	El tablón	4	Abril	2023-02-04T00:00:00	2024-11-06T14:00:00	7	Dirección del viento	11.27
146031	7	Sololá	701	Sololá	2	El tablón	4	Abril	2023-02-04T00:00:00	2024-11-06T14:00:00	1	Precipitación	0
146032	7	Sololá	701	Sololá	2	El tablón	4	Abril	2023-02-04T00:00:00	2024-11-06T14:00:00	8	Radiación solar	913
146033	7	Sololá	701	Sololá	2	El tablón	4	Abril	2023-02-04T00:00:00	2024-11-06T15:00:00	2	Temperatura media	21.2
146034	7	Sololá	701	Sololá	2	El tablón	4	Abril	2023-02-04T00:00:00	2024-11-06T15:00:00	4	Temperatura máxima	21.4
146035	7	Sololá	701	Sololá	2	El tablón	4	Abril	2023-02-04T00:00:00	2024-11-06T15:00:00	3	Temperatura mínima	20.8
146036	7	Sololá	701	Sololá	2	El tablón	4	Abril	2023-02-04T00:00:00	2024-11-06T15:00:00	5	Humedad	28
146037	7	Sololá	701	Sololá	2	El tablón	4	Abril	2023-02-04T00:00:00	2024-11-06T15:00:00	6	Velocidad del viento	11.3
146038	7	Sololá	701	Sololá	2	El tablón	4	Abril	2023-02-04T00:00:00	2024-11-06T15:00:00	7	Dirección del viento	11.27
146039	7	Sololá	701	Sololá	2	El tablón	4	Abril	2023-02-04T00:00:00	2024-11-06T15:00:00	1	Precipitación	0
146040	7	Sololá	701	Sololá	2	El tablón	4	Abril	2023-02-04T00:00:00	2024-11-06T15:00:00	8	Radiación solar	795
146041	7	Sololá	701	Sololá	2	El tablón	4	Abril	2023-02-04T00:00:00	2024-11-06T16:00:00	2	Temperatura media	20.8
146042	7	Sololá	701	Sololá	2	El tablón	4	Abril	2023-02-04T00:00:00	2024-11-06T16:00:00	4	Temperatura máxima	21.4
146043	7	Sololá	701	Sololá	2	El tablón	4	Abril	2023-02-04T00:00:00	2024-11-06T16:00:00	3	Temperatura mínima	20.8
146044	7	Sololá	701	Sololá	2	El tablón	4	Abril	2023-02-04T00:00:00	2024-11-06T16:00:00	5	Humedad	25
146045	7	Sololá	701	Sololá	2	El tablón	4	Abril	2023-02-04T00:00:00	2024-11-06T16:00:00	6	Velocidad del viento	9.7
146046	7	Sololá	701	Sololá	2	El tablón	4	Abril	2023-02-04T00:00:00	2024-11-06T16:00:00	7	Dirección del viento	9.66
146047	7	Sololá	701	Sololá	2	El tablón	4	Abril	2023-02-04T00:00:00	2024-11-06T16:00:00	1	Precipitación	0
146048	7	Sololá	701	Sololá	2	El tablón	4	Abril	2023-02-04T00:00:00	2024-11-06T16:00:00	8	Radiación solar	619
146049	7	Sololá	701	Sololá	2	El tablón	4	Abril	2023-02-04T00:00:00	2024-11-06T17:00:00	2	Temperatura media	18.8
146050	7	Sololá	701	Sololá	2	El tablón	4	Abril	2023-02-04T00:00:00	2024-11-06T17:00:00	4	Temperatura máxima	20.8
146051	7	Sololá	701	Sololá	2	El tablón	4	Abril	2023-02-04T00:00:00	2024-11-06T17:00:00	3	Temperatura mínima	18.8
146052	7	Sololá	701	Sololá	2	El tablón	4	Abril	2023-02-04T00:00:00	2024-11-06T17:00:00	5	Humedad	66
146053	7	Sololá	701	Sololá	2	El tablón	4	Abril	2023-02-04T00:00:00	2024-11-06T17:00:00	6	Velocidad del viento	6.4
146054	7	Sololá	701	Sololá	2	El tablón	4	Abril	2023-02-04T00:00:00	2024-11-06T17:00:00	7	Dirección del viento	6.44
146055	7	Sololá	701	Sololá	2	El tablón	4	Abril	2023-02-04T00:00:00	2024-11-06T17:00:00	1	Precipitación	0
146056	7	Sololá	701	Sololá	2	El tablón	4	Abril	2023-02-04T00:00:00	2024-11-06T17:00:00	8	Radiación solar	390
146057	7	Sololá	701	Sololá	2	El tablón	4	Abril	2023-02-04T00:00:00	2024-11-06T18:00:00	2	Temperatura media	16.6
146058	7	Sololá	701	Sololá	2	El tablón	4	Abril	2023-02-04T00:00:00	2024-11-06T18:00:00	4	Temperatura máxima	18.8
146059	7	Sololá	701	Sololá	2	El tablón	4	Abril	2023-02-04T00:00:00	2024-11-06T18:00:00	3	Temperatura mínima	16.6
146060	7	Sololá	701	Sololá	2	El tablón	4	Abril	2023-02-04T00:00:00	2024-11-06T18:00:00	5	Humedad	83
146061	7	Sololá	701	Sololá	2	El tablón	4	Abril	2023-02-04T00:00:00	2024-11-06T18:00:00	6	Velocidad del viento	3.2
146062	7	Sololá	701	Sololá	2	El tablón	4	Abril	2023-02-04T00:00:00	2024-11-06T18:00:00	7	Dirección del viento	3.22
146063	7	Sololá	701	Sololá	2	El tablón	4	Abril	2023-02-04T00:00:00	2024-11-06T18:00:00	1	Precipitación	0
146064	7	Sololá	701	Sololá	2	El tablón	4	Abril	2023-02-04T00:00:00	2024-11-06T18:00:00	8	Radiación solar	133
146065	7	Sololá	701	Sololá	2	El tablón	4	Abril	2023-02-04T00:00:00	2024-11-06T19:00:00	2	Temperatura media	15
146066	7	Sololá	701	Sololá	2	El tablón	4	Abril	2023-02-04T00:00:00	2024-11-06T19:00:00	4	Temperatura máxima	16.6
146067	7	Sololá	701	Sololá	2	El tablón	4	Abril	2023-02-04T00:00:00	2024-11-06T19:00:00	3	Temperatura mínima	14.9
146068	7	Sololá	701	Sololá	2	El tablón	4	Abril	2023-02-04T00:00:00	2024-11-06T19:00:00	5	Humedad	61
146069	7	Sololá	701	Sololá	2	El tablón	4	Abril	2023-02-04T00:00:00	2024-11-06T19:00:00	6	Velocidad del viento	3.2
146070	7	Sololá	701	Sololá	2	El tablón	4	Abril	2023-02-04T00:00:00	2024-11-06T19:00:00	7	Dirección del viento	3.22
146071	7	Sololá	701	Sololá	2	El tablón	4	Abril	2023-02-04T00:00:00	2024-11-06T19:00:00	1	Precipitación	0
146072	7	Sololá	701	Sololá	2	El tablón	4	Abril	2023-02-04T00:00:00	2024-11-06T19:00:00	8	Radiación solar	0
146073	7	Sololá	701	Sololá	2	El tablón	4	Abril	2023-02-04T00:00:00	2024-11-06T20:00:00	2	Temperatura media	14.1
146074	7	Sololá	701	Sololá	2	El tablón	4	Abril	2023-02-04T00:00:00	2024-11-06T20:00:00	4	Temperatura máxima	15.1
146075	7	Sololá	701	Sololá	2	El tablón	4	Abril	2023-02-04T00:00:00	2024-11-06T20:00:00	3	Temperatura mínima	14.1
146076	7	Sololá	701	Sololá	2	El tablón	4	Abril	2023-02-04T00:00:00	2024-11-06T20:00:00	5	Humedad	79
146077	7	Sololá	701	Sololá	2	El tablón	4	Abril	2023-02-04T00:00:00	2024-11-06T20:00:00	6	Velocidad del viento	6.4
146078	7	Sololá	701	Sololá	2	El tablón	4	Abril	2023-02-04T00:00:00	2024-11-06T20:00:00	7	Dirección del viento	6.44
146079	7	Sololá	701	Sololá	2	El tablón	4	Abril	2023-02-04T00:00:00	2024-11-06T20:00:00	1	Precipitación	0
146080	7	Sololá	701	Sololá	2	El tablón	4	Abril	2023-02-04T00:00:00	2024-11-06T20:00:00	8	Radiación solar	0
146081	7	Sololá	701	Sololá	2	El tablón	4	Abril	2023-02-04T00:00:00	2024-11-06T21:00:00	2	Temperatura media	13.3
146082	7	Sololá	701	Sololá	2	El tablón	4	Abril	2023-02-04T00:00:00	2024-11-06T21:00:00	4	Temperatura máxima	14.1
146083	7	Sololá	701	Sololá	2	El tablón	4	Abril	2023-02-04T00:00:00	2024-11-06T21:00:00	3	Temperatura mínima	13.3
146084	7	Sololá	701	Sololá	2	El tablón	4	Abril	2023-02-04T00:00:00	2024-11-06T21:00:00	5	Humedad	83
146085	7	Sololá	701	Sololá	2	El tablón	4	Abril	2023-02-04T00:00:00	2024-11-06T21:00:00	6	Velocidad del viento	6.4
146086	7	Sololá	701	Sololá	2	El tablón	4	Abril	2023-02-04T00:00:00	2024-11-06T21:00:00	7	Dirección del viento	6.44
146087	7	Sololá	701	Sololá	2	El tablón	4	Abril	2023-02-04T00:00:00	2024-11-06T21:00:00	1	Precipitación	0
146088	7	Sololá	701	Sololá	2	El tablón	4	Abril	2023-02-04T00:00:00	2024-11-06T21:00:00	8	Radiación solar	0
146089	7	Sololá	701	Sololá	2	El tablón	4	Abril	2023-02-04T00:00:00	2024-11-06T22:00:00	2	Temperatura media	12.7
146090	7	Sololá	701	Sololá	2	El tablón	4	Abril	2023-02-04T00:00:00	2024-11-06T22:00:00	4	Temperatura máxima	13.3
146091	7	Sololá	701	Sololá	2	El tablón	4	Abril	2023-02-04T00:00:00	2024-11-06T22:00:00	3	Temperatura mínima	12.6
146092	7	Sololá	701	Sololá	2	El tablón	4	Abril	2023-02-04T00:00:00	2024-11-06T22:00:00	5	Humedad	84
146093	7	Sololá	701	Sololá	2	El tablón	4	Abril	2023-02-04T00:00:00	2024-11-06T22:00:00	6	Velocidad del viento	6.4
146094	7	Sololá	701	Sololá	2	El tablón	4	Abril	2023-02-04T00:00:00	2024-11-06T22:00:00	7	Dirección del viento	6.44
146095	7	Sololá	701	Sololá	2	El tablón	4	Abril	2023-02-04T00:00:00	2024-11-06T22:00:00	1	Precipitación	0
146096	7	Sololá	701	Sololá	2	El tablón	4	Abril	2023-02-04T00:00:00	2024-11-06T22:00:00	8	Radiación solar	0
146097	7	Sololá	701	Sololá	2	El tablón	4	Abril	2023-02-04T00:00:00	2024-11-06T23:00:00	2	Temperatura media	11.8
146098	7	Sololá	701	Sololá	2	El tablón	4	Abril	2023-02-04T00:00:00	2024-11-06T23:00:00	4	Temperatura máxima	12.7
146099	7	Sololá	701	Sololá	2	El tablón	4	Abril	2023-02-04T00:00:00	2024-11-06T23:00:00	3	Temperatura mínima	11.8
146100	7	Sololá	701	Sololá	2	El tablón	4	Abril	2023-02-04T00:00:00	2024-11-06T23:00:00	5	Humedad	84
146101	7	Sololá	701	Sololá	2	El tablón	4	Abril	2023-02-04T00:00:00	2024-11-06T23:00:00	6	Velocidad del viento	6.4
146102	7	Sololá	701	Sololá	2	El tablón	4	Abril	2023-02-04T00:00:00	2024-11-06T23:00:00	7	Dirección del viento	6.44
146103	7	Sololá	701	Sololá	2	El tablón	4	Abril	2023-02-04T00:00:00	2024-11-06T23:00:00	1	Precipitación	0
146104	7	Sololá	701	Sololá	2	El tablón	4	Abril	2023-02-04T00:00:00	2024-11-06T23:00:00	8	Radiación solar	0
146105	7	Sololá	701	Sololá	2	El tablón	4	Abril	2023-03-04T00:00:00	2024-11-06T00:00:00	2	Temperatura media	11.1
146106	7	Sololá	701	Sololá	2	El tablón	4	Abril	2023-03-04T00:00:00	2024-11-06T00:00:00	4	Temperatura máxima	11.8
146107	7	Sololá	701	Sololá	2	El tablón	4	Abril	2023-03-04T00:00:00	2024-11-06T00:00:00	3	Temperatura mínima	11.1
146108	7	Sololá	701	Sololá	2	El tablón	4	Abril	2023-03-04T00:00:00	2024-11-06T00:00:00	5	Humedad	85
146109	7	Sololá	701	Sololá	2	El tablón	4	Abril	2023-03-04T00:00:00	2024-11-06T00:00:00	6	Velocidad del viento	8
146110	7	Sololá	701	Sololá	2	El tablón	4	Abril	2023-03-04T00:00:00	2024-11-06T00:00:00	7	Dirección del viento	8.05
146111	7	Sololá	701	Sololá	2	El tablón	4	Abril	2023-03-04T00:00:00	2024-11-06T00:00:00	1	Precipitación	0
146112	7	Sololá	701	Sololá	2	El tablón	4	Abril	2023-03-04T00:00:00	2024-11-06T00:00:00	8	Radiación solar	0
146113	7	Sololá	701	Sololá	2	El tablón	4	Abril	2023-03-04T00:00:00	2024-11-06T01:00:00	2	Temperatura media	9.8
146114	7	Sololá	701	Sololá	2	El tablón	4	Abril	2023-03-04T00:00:00	2024-11-06T01:00:00	4	Temperatura máxima	11
146115	7	Sololá	701	Sololá	2	El tablón	4	Abril	2023-03-04T00:00:00	2024-11-06T01:00:00	3	Temperatura mínima	9.8
146116	7	Sololá	701	Sololá	2	El tablón	4	Abril	2023-03-04T00:00:00	2024-11-06T01:00:00	5	Humedad	82
146117	7	Sololá	701	Sololá	2	El tablón	4	Abril	2023-03-04T00:00:00	2024-11-06T01:00:00	6	Velocidad del viento	4.8
146118	7	Sololá	701	Sololá	2	El tablón	4	Abril	2023-03-04T00:00:00	2024-11-06T01:00:00	7	Dirección del viento	4.83
146119	7	Sololá	701	Sololá	2	El tablón	4	Abril	2023-03-04T00:00:00	2024-11-06T01:00:00	1	Precipitación	0
146120	7	Sololá	701	Sololá	2	El tablón	4	Abril	2023-03-04T00:00:00	2024-11-06T01:00:00	8	Radiación solar	0
146121	7	Sololá	701	Sololá	2	El tablón	4	Abril	2023-03-04T00:00:00	2024-11-06T02:00:00	2	Temperatura media	10
146122	7	Sololá	701	Sololá	2	El tablón	4	Abril	2023-03-04T00:00:00	2024-11-06T02:00:00	4	Temperatura máxima	10
146123	7	Sololá	701	Sololá	2	El tablón	4	Abril	2023-03-04T00:00:00	2024-11-06T02:00:00	3	Temperatura mínima	9.6
146124	7	Sololá	701	Sololá	2	El tablón	4	Abril	2023-03-04T00:00:00	2024-11-06T02:00:00	5	Humedad	71
146125	7	Sololá	701	Sololá	2	El tablón	4	Abril	2023-03-04T00:00:00	2024-11-06T02:00:00	6	Velocidad del viento	4.8
146126	7	Sololá	701	Sololá	2	El tablón	4	Abril	2023-03-04T00:00:00	2024-11-06T02:00:00	7	Dirección del viento	4.83
146127	7	Sololá	701	Sololá	2	El tablón	4	Abril	2023-03-04T00:00:00	2024-11-06T02:00:00	1	Precipitación	0
146128	7	Sololá	701	Sololá	2	El tablón	4	Abril	2023-03-04T00:00:00	2024-11-06T02:00:00	8	Radiación solar	0
146129	7	Sololá	701	Sololá	2	El tablón	4	Abril	2023-03-04T00:00:00	2024-11-06T03:00:00	2	Temperatura media	9.7
146130	7	Sololá	701	Sololá	2	El tablón	4	Abril	2023-03-04T00:00:00	2024-11-06T03:00:00	4	Temperatura máxima	10.1
146131	7	Sololá	701	Sololá	2	El tablón	4	Abril	2023-03-04T00:00:00	2024-11-06T03:00:00	3	Temperatura mínima	9.2
146132	7	Sololá	701	Sololá	2	El tablón	4	Abril	2023-03-04T00:00:00	2024-11-06T03:00:00	5	Humedad	66
146133	7	Sololá	701	Sololá	2	El tablón	4	Abril	2023-03-04T00:00:00	2024-11-06T03:00:00	6	Velocidad del viento	3.2
146134	7	Sololá	701	Sololá	2	El tablón	4	Abril	2023-03-04T00:00:00	2024-11-06T03:00:00	7	Dirección del viento	3.22
146135	7	Sololá	701	Sololá	2	El tablón	4	Abril	2023-03-04T00:00:00	2024-11-06T03:00:00	1	Precipitación	0
146136	7	Sololá	701	Sololá	2	El tablón	4	Abril	2023-03-04T00:00:00	2024-11-06T03:00:00	8	Radiación solar	0
146137	7	Sololá	701	Sololá	2	El tablón	4	Abril	2023-03-04T00:00:00	2024-11-06T04:00:00	2	Temperatura media	8.9
146138	7	Sololá	701	Sololá	2	El tablón	4	Abril	2023-03-04T00:00:00	2024-11-06T04:00:00	4	Temperatura máxima	9.7
146139	7	Sololá	701	Sololá	2	El tablón	4	Abril	2023-03-04T00:00:00	2024-11-06T04:00:00	3	Temperatura mínima	8.8
146140	7	Sololá	701	Sololá	2	El tablón	4	Abril	2023-03-04T00:00:00	2024-11-06T04:00:00	5	Humedad	68
146141	7	Sololá	701	Sololá	2	El tablón	4	Abril	2023-03-04T00:00:00	2024-11-06T04:00:00	6	Velocidad del viento	1.6
146142	7	Sololá	701	Sololá	2	El tablón	4	Abril	2023-03-04T00:00:00	2024-11-06T04:00:00	7	Dirección del viento	1.61
146143	7	Sololá	701	Sololá	2	El tablón	4	Abril	2023-03-04T00:00:00	2024-11-06T04:00:00	1	Precipitación	0
146144	7	Sololá	701	Sololá	2	El tablón	4	Abril	2023-03-04T00:00:00	2024-11-06T04:00:00	8	Radiación solar	0
146145	7	Sololá	701	Sololá	2	El tablón	4	Abril	2023-03-04T00:00:00	2024-11-06T05:00:00	2	Temperatura media	8.8
146146	7	Sololá	701	Sololá	2	El tablón	4	Abril	2023-03-04T00:00:00	2024-11-06T05:00:00	4	Temperatura máxima	9.1
146147	7	Sololá	701	Sololá	2	El tablón	4	Abril	2023-03-04T00:00:00	2024-11-06T05:00:00	3	Temperatura mínima	8.8
146148	7	Sololá	701	Sololá	2	El tablón	4	Abril	2023-03-04T00:00:00	2024-11-06T05:00:00	5	Humedad	69
146149	7	Sololá	701	Sololá	2	El tablón	4	Abril	2023-03-04T00:00:00	2024-11-06T05:00:00	6	Velocidad del viento	1.6
146150	7	Sololá	701	Sololá	2	El tablón	4	Abril	2023-03-04T00:00:00	2024-11-06T05:00:00	7	Dirección del viento	1.61
146151	7	Sololá	701	Sololá	2	El tablón	4	Abril	2023-03-04T00:00:00	2024-11-06T05:00:00	1	Precipitación	0
146152	7	Sololá	701	Sololá	2	El tablón	4	Abril	2023-03-04T00:00:00	2024-11-06T05:00:00	8	Radiación solar	0
146153	7	Sololá	701	Sololá	2	El tablón	4	Abril	2023-03-04T00:00:00	2024-11-06T06:00:00	2	Temperatura media	9.6
146154	7	Sololá	701	Sololá	2	El tablón	4	Abril	2023-03-04T00:00:00	2024-11-06T06:00:00	4	Temperatura máxima	9.9
146155	7	Sololá	701	Sololá	2	El tablón	4	Abril	2023-03-04T00:00:00	2024-11-06T06:00:00	3	Temperatura mínima	8.8
146156	7	Sololá	701	Sololá	2	El tablón	4	Abril	2023-03-04T00:00:00	2024-11-06T06:00:00	5	Humedad	75
146157	7	Sololá	701	Sololá	2	El tablón	4	Abril	2023-03-04T00:00:00	2024-11-06T06:00:00	6	Velocidad del viento	1.6
146158	7	Sololá	701	Sololá	2	El tablón	4	Abril	2023-03-04T00:00:00	2024-11-06T06:00:00	7	Dirección del viento	1.61
146159	7	Sololá	701	Sololá	2	El tablón	4	Abril	2023-03-04T00:00:00	2024-11-06T06:00:00	1	Precipitación	0
146160	7	Sololá	701	Sololá	2	El tablón	4	Abril	2023-03-04T00:00:00	2024-11-06T06:00:00	8	Radiación solar	0
146161	7	Sololá	701	Sololá	2	El tablón	4	Abril	2023-03-04T00:00:00	2024-11-06T07:00:00	2	Temperatura media	10.2
146162	7	Sololá	701	Sololá	2	El tablón	4	Abril	2023-03-04T00:00:00	2024-11-06T07:00:00	4	Temperatura máxima	10.2
146163	7	Sololá	701	Sololá	2	El tablón	4	Abril	2023-03-04T00:00:00	2024-11-06T07:00:00	3	Temperatura mínima	9.3
146164	7	Sololá	701	Sololá	2	El tablón	4	Abril	2023-03-04T00:00:00	2024-11-06T07:00:00	5	Humedad	78
146165	7	Sololá	701	Sololá	2	El tablón	4	Abril	2023-03-04T00:00:00	2024-11-06T07:00:00	6	Velocidad del viento	0
146166	7	Sololá	701	Sololá	2	El tablón	4	Abril	2023-03-04T00:00:00	2024-11-06T07:00:00	7	Dirección del viento	0
146167	7	Sololá	701	Sololá	2	El tablón	4	Abril	2023-03-04T00:00:00	2024-11-06T07:00:00	1	Precipitación	0
146168	7	Sololá	701	Sololá	2	El tablón	4	Abril	2023-03-04T00:00:00	2024-11-06T07:00:00	8	Radiación solar	52
146169	7	Sololá	701	Sololá	2	El tablón	4	Abril	2023-03-04T00:00:00	2024-11-06T08:00:00	2	Temperatura media	13.4
146170	7	Sololá	701	Sololá	2	El tablón	4	Abril	2023-03-04T00:00:00	2024-11-06T08:00:00	4	Temperatura máxima	13.6
146171	7	Sololá	701	Sololá	2	El tablón	4	Abril	2023-03-04T00:00:00	2024-11-06T08:00:00	3	Temperatura mínima	10.2
146172	7	Sololá	701	Sololá	2	El tablón	4	Abril	2023-03-04T00:00:00	2024-11-06T08:00:00	5	Humedad	76
146173	7	Sololá	701	Sololá	2	El tablón	4	Abril	2023-03-04T00:00:00	2024-11-06T08:00:00	6	Velocidad del viento	1.6
146174	7	Sololá	701	Sololá	2	El tablón	4	Abril	2023-03-04T00:00:00	2024-11-06T08:00:00	7	Dirección del viento	1.61
146175	7	Sololá	701	Sololá	2	El tablón	4	Abril	2023-03-04T00:00:00	2024-11-06T08:00:00	1	Precipitación	0
146176	7	Sololá	701	Sololá	2	El tablón	4	Abril	2023-03-04T00:00:00	2024-11-06T08:00:00	8	Radiación solar	226
146177	7	Sololá	701	Sololá	2	El tablón	4	Abril	2023-03-04T00:00:00	2024-11-06T09:00:00	2	Temperatura media	16.2
146178	7	Sololá	701	Sololá	2	El tablón	4	Abril	2023-03-04T00:00:00	2024-11-06T09:00:00	4	Temperatura máxima	16.2
146179	7	Sololá	701	Sololá	2	El tablón	4	Abril	2023-03-04T00:00:00	2024-11-06T09:00:00	3	Temperatura mínima	13.4
146180	7	Sololá	701	Sololá	2	El tablón	4	Abril	2023-03-04T00:00:00	2024-11-06T09:00:00	5	Humedad	67
146181	7	Sololá	701	Sololá	2	El tablón	4	Abril	2023-03-04T00:00:00	2024-11-06T09:00:00	6	Velocidad del viento	1.6
146182	7	Sololá	701	Sololá	2	El tablón	4	Abril	2023-03-04T00:00:00	2024-11-06T09:00:00	7	Dirección del viento	1.61
146183	7	Sololá	701	Sololá	2	El tablón	4	Abril	2023-03-04T00:00:00	2024-11-06T09:00:00	1	Precipitación	0
146184	7	Sololá	701	Sololá	2	El tablón	4	Abril	2023-03-04T00:00:00	2024-11-06T09:00:00	8	Radiación solar	437
146185	7	Sololá	701	Sololá	2	El tablón	4	Abril	2023-03-04T00:00:00	2024-11-06T10:00:00	2	Temperatura media	16.9
146186	7	Sololá	701	Sololá	2	El tablón	4	Abril	2023-03-04T00:00:00	2024-11-06T10:00:00	4	Temperatura máxima	16.9
146187	7	Sololá	701	Sololá	2	El tablón	4	Abril	2023-03-04T00:00:00	2024-11-06T10:00:00	3	Temperatura mínima	16.2
146188	7	Sololá	701	Sololá	2	El tablón	4	Abril	2023-03-04T00:00:00	2024-11-06T10:00:00	5	Humedad	72
146189	7	Sololá	701	Sololá	2	El tablón	4	Abril	2023-03-04T00:00:00	2024-11-06T10:00:00	6	Velocidad del viento	6.4
146190	7	Sololá	701	Sololá	2	El tablón	4	Abril	2023-03-04T00:00:00	2024-11-06T10:00:00	7	Dirección del viento	6.44
146191	7	Sololá	701	Sololá	2	El tablón	4	Abril	2023-03-04T00:00:00	2024-11-06T10:00:00	1	Precipitación	0
146192	7	Sololá	701	Sololá	2	El tablón	4	Abril	2023-03-04T00:00:00	2024-11-06T10:00:00	8	Radiación solar	562
146193	7	Sololá	701	Sololá	2	El tablón	4	Abril	2023-03-04T00:00:00	2024-11-06T11:00:00	2	Temperatura media	17.3
146194	7	Sololá	701	Sololá	2	El tablón	4	Abril	2023-03-04T00:00:00	2024-11-06T11:00:00	4	Temperatura máxima	17.3
146195	7	Sololá	701	Sololá	2	El tablón	4	Abril	2023-03-04T00:00:00	2024-11-06T11:00:00	3	Temperatura mínima	16.7
146196	7	Sololá	701	Sololá	2	El tablón	4	Abril	2023-03-04T00:00:00	2024-11-06T11:00:00	5	Humedad	70
146197	7	Sololá	701	Sololá	2	El tablón	4	Abril	2023-03-04T00:00:00	2024-11-06T11:00:00	6	Velocidad del viento	8
146198	7	Sololá	701	Sololá	2	El tablón	4	Abril	2023-03-04T00:00:00	2024-11-06T11:00:00	7	Dirección del viento	8.05
146199	7	Sololá	701	Sololá	2	El tablón	4	Abril	2023-03-04T00:00:00	2024-11-06T11:00:00	1	Precipitación	0
146200	7	Sololá	701	Sololá	2	El tablón	4	Abril	2023-03-04T00:00:00	2024-11-06T11:00:00	8	Radiación solar	826
146201	7	Sololá	701	Sololá	2	El tablón	4	Abril	2023-03-04T00:00:00	2024-11-06T12:00:00	2	Temperatura media	18.4
146202	7	Sololá	701	Sololá	2	El tablón	4	Abril	2023-03-04T00:00:00	2024-11-06T12:00:00	4	Temperatura máxima	18.4
146203	7	Sololá	701	Sololá	2	El tablón	4	Abril	2023-03-04T00:00:00	2024-11-06T12:00:00	3	Temperatura mínima	17.3
146204	7	Sololá	701	Sololá	2	El tablón	4	Abril	2023-03-04T00:00:00	2024-11-06T12:00:00	5	Humedad	69
146205	7	Sololá	701	Sololá	2	El tablón	4	Abril	2023-03-04T00:00:00	2024-11-06T12:00:00	6	Velocidad del viento	8
146206	7	Sololá	701	Sololá	2	El tablón	4	Abril	2023-03-04T00:00:00	2024-11-06T12:00:00	7	Dirección del viento	8.05
146207	7	Sololá	701	Sololá	2	El tablón	4	Abril	2023-03-04T00:00:00	2024-11-06T12:00:00	1	Precipitación	0
146208	7	Sololá	701	Sololá	2	El tablón	4	Abril	2023-03-04T00:00:00	2024-11-06T12:00:00	8	Radiación solar	932
146209	7	Sololá	701	Sololá	2	El tablón	4	Abril	2023-03-04T00:00:00	2024-11-06T13:00:00	2	Temperatura media	17.6
146210	7	Sololá	701	Sololá	2	El tablón	4	Abril	2023-03-04T00:00:00	2024-11-06T13:00:00	4	Temperatura máxima	18.9
146211	7	Sololá	701	Sololá	2	El tablón	4	Abril	2023-03-04T00:00:00	2024-11-06T13:00:00	3	Temperatura mínima	17.6
146212	7	Sololá	701	Sololá	2	El tablón	4	Abril	2023-03-04T00:00:00	2024-11-06T13:00:00	5	Humedad	77
146213	7	Sololá	701	Sololá	2	El tablón	4	Abril	2023-03-04T00:00:00	2024-11-06T13:00:00	6	Velocidad del viento	9.7
146214	7	Sololá	701	Sololá	2	El tablón	4	Abril	2023-03-04T00:00:00	2024-11-06T13:00:00	7	Dirección del viento	9.66
146215	7	Sololá	701	Sololá	2	El tablón	4	Abril	2023-03-04T00:00:00	2024-11-06T13:00:00	1	Precipitación	0
146216	7	Sololá	701	Sololá	2	El tablón	4	Abril	2023-03-04T00:00:00	2024-11-06T13:00:00	8	Radiación solar	947
146217	7	Sololá	701	Sololá	2	El tablón	4	Abril	2023-03-04T00:00:00	2024-11-06T14:00:00	2	Temperatura media	16.7
146218	7	Sololá	701	Sololá	2	El tablón	4	Abril	2023-03-04T00:00:00	2024-11-06T14:00:00	4	Temperatura máxima	17.9
146219	7	Sololá	701	Sololá	2	El tablón	4	Abril	2023-03-04T00:00:00	2024-11-06T14:00:00	3	Temperatura mínima	16.4
146220	7	Sololá	701	Sololá	2	El tablón	4	Abril	2023-03-04T00:00:00	2024-11-06T14:00:00	5	Humedad	83
146221	7	Sololá	701	Sololá	2	El tablón	4	Abril	2023-03-04T00:00:00	2024-11-06T14:00:00	6	Velocidad del viento	8
146222	7	Sololá	701	Sololá	2	El tablón	4	Abril	2023-03-04T00:00:00	2024-11-06T14:00:00	7	Dirección del viento	8.05
146223	7	Sololá	701	Sololá	2	El tablón	4	Abril	2023-03-04T00:00:00	2024-11-06T14:00:00	1	Precipitación	0
146224	7	Sololá	701	Sololá	2	El tablón	4	Abril	2023-03-04T00:00:00	2024-11-06T14:00:00	8	Radiación solar	557
146225	7	Sololá	701	Sololá	2	El tablón	4	Abril	2023-03-04T00:00:00	2024-11-06T15:00:00	2	Temperatura media	16.4
146226	7	Sololá	701	Sololá	2	El tablón	4	Abril	2023-03-04T00:00:00	2024-11-06T15:00:00	4	Temperatura máxima	16.7
146227	7	Sololá	701	Sololá	2	El tablón	4	Abril	2023-03-04T00:00:00	2024-11-06T15:00:00	3	Temperatura mínima	16
146228	7	Sololá	701	Sololá	2	El tablón	4	Abril	2023-03-04T00:00:00	2024-11-06T15:00:00	5	Humedad	85
146229	7	Sololá	701	Sololá	2	El tablón	4	Abril	2023-03-04T00:00:00	2024-11-06T15:00:00	6	Velocidad del viento	8
146230	7	Sololá	701	Sololá	2	El tablón	4	Abril	2023-03-04T00:00:00	2024-11-06T15:00:00	7	Dirección del viento	8.05
146231	7	Sololá	701	Sololá	2	El tablón	4	Abril	2023-03-04T00:00:00	2024-11-06T15:00:00	1	Precipitación	0
146232	7	Sololá	701	Sololá	2	El tablón	4	Abril	2023-03-04T00:00:00	2024-11-06T15:00:00	8	Radiación solar	409
146233	7	Sololá	701	Sololá	2	El tablón	4	Abril	2023-03-04T00:00:00	2024-11-06T16:00:00	2	Temperatura media	15.3
146234	7	Sololá	701	Sololá	2	El tablón	4	Abril	2023-03-04T00:00:00	2024-11-06T16:00:00	4	Temperatura máxima	16.9
146235	7	Sololá	701	Sololá	2	El tablón	4	Abril	2023-03-04T00:00:00	2024-11-06T16:00:00	3	Temperatura mínima	15.3
146236	7	Sololá	701	Sololá	2	El tablón	4	Abril	2023-03-04T00:00:00	2024-11-06T16:00:00	5	Humedad	87
146237	7	Sololá	701	Sololá	2	El tablón	4	Abril	2023-03-04T00:00:00	2024-11-06T16:00:00	6	Velocidad del viento	6.4
146238	7	Sololá	701	Sololá	2	El tablón	4	Abril	2023-03-04T00:00:00	2024-11-06T16:00:00	7	Dirección del viento	6.44
146239	7	Sololá	701	Sololá	2	El tablón	4	Abril	2023-03-04T00:00:00	2024-11-06T16:00:00	1	Precipitación	0
146240	7	Sololá	701	Sololá	2	El tablón	4	Abril	2023-03-04T00:00:00	2024-11-06T16:00:00	8	Radiación solar	279
146241	7	Sololá	701	Sololá	2	El tablón	4	Abril	2023-03-04T00:00:00	2024-11-06T17:00:00	2	Temperatura media	17.3
146242	7	Sololá	701	Sololá	2	El tablón	4	Abril	2023-03-04T00:00:00	2024-11-06T17:00:00	4	Temperatura máxima	17.3
146243	7	Sololá	701	Sololá	2	El tablón	4	Abril	2023-03-04T00:00:00	2024-11-06T17:00:00	3	Temperatura mínima	15.2
146244	7	Sololá	701	Sololá	2	El tablón	4	Abril	2023-03-04T00:00:00	2024-11-06T17:00:00	5	Humedad	81
146245	7	Sololá	701	Sololá	2	El tablón	4	Abril	2023-03-04T00:00:00	2024-11-06T17:00:00	6	Velocidad del viento	3.2
146246	7	Sololá	701	Sololá	2	El tablón	4	Abril	2023-03-04T00:00:00	2024-11-06T17:00:00	7	Dirección del viento	3.22
146247	7	Sololá	701	Sololá	2	El tablón	4	Abril	2023-03-04T00:00:00	2024-11-06T17:00:00	1	Precipitación	0
146248	7	Sololá	701	Sololá	2	El tablón	4	Abril	2023-03-04T00:00:00	2024-11-06T17:00:00	8	Radiación solar	256
146249	7	Sololá	701	Sololá	2	El tablón	4	Abril	2023-03-04T00:00:00	2024-11-06T18:00:00	2	Temperatura media	16.1
146250	7	Sololá	701	Sololá	2	El tablón	4	Abril	2023-03-04T00:00:00	2024-11-06T18:00:00	4	Temperatura máxima	17.5
146251	7	Sololá	701	Sololá	2	El tablón	4	Abril	2023-03-04T00:00:00	2024-11-06T18:00:00	3	Temperatura mínima	16.1
146252	7	Sololá	701	Sololá	2	El tablón	4	Abril	2023-03-04T00:00:00	2024-11-06T18:00:00	5	Humedad	86
146253	7	Sololá	701	Sololá	2	El tablón	4	Abril	2023-03-04T00:00:00	2024-11-06T18:00:00	6	Velocidad del viento	3.2
146254	7	Sololá	701	Sololá	2	El tablón	4	Abril	2023-03-04T00:00:00	2024-11-06T18:00:00	7	Dirección del viento	3.22
146255	7	Sololá	701	Sololá	2	El tablón	4	Abril	2023-03-04T00:00:00	2024-11-06T18:00:00	1	Precipitación	0
146256	7	Sololá	701	Sololá	2	El tablón	4	Abril	2023-03-04T00:00:00	2024-11-06T18:00:00	8	Radiación solar	131
146257	7	Sololá	701	Sololá	2	El tablón	4	Abril	2023-03-04T00:00:00	2024-11-06T19:00:00	2	Temperatura media	13.9
146258	7	Sololá	701	Sololá	2	El tablón	4	Abril	2023-03-04T00:00:00	2024-11-06T19:00:00	4	Temperatura máxima	16.1
146259	7	Sololá	701	Sololá	2	El tablón	4	Abril	2023-03-04T00:00:00	2024-11-06T19:00:00	3	Temperatura mínima	13.9
146260	7	Sololá	701	Sololá	2	El tablón	4	Abril	2023-03-04T00:00:00	2024-11-06T19:00:00	5	Humedad	88
146261	7	Sololá	701	Sololá	2	El tablón	4	Abril	2023-03-04T00:00:00	2024-11-06T19:00:00	6	Velocidad del viento	1.6
146262	7	Sololá	701	Sololá	2	El tablón	4	Abril	2023-03-04T00:00:00	2024-11-06T19:00:00	7	Dirección del viento	1.61
146263	7	Sololá	701	Sololá	2	El tablón	4	Abril	2023-03-04T00:00:00	2024-11-06T19:00:00	1	Precipitación	0
146264	7	Sololá	701	Sololá	2	El tablón	4	Abril	2023-03-04T00:00:00	2024-11-06T19:00:00	8	Radiación solar	0
146265	7	Sololá	701	Sololá	2	El tablón	4	Abril	2023-03-04T00:00:00	2024-11-06T20:00:00	2	Temperatura media	12.9
146266	7	Sololá	701	Sololá	2	El tablón	4	Abril	2023-03-04T00:00:00	2024-11-06T20:00:00	4	Temperatura máxima	13.9
146267	7	Sololá	701	Sololá	2	El tablón	4	Abril	2023-03-04T00:00:00	2024-11-06T20:00:00	3	Temperatura mínima	12.9
146268	7	Sololá	701	Sololá	2	El tablón	4	Abril	2023-03-04T00:00:00	2024-11-06T20:00:00	5	Humedad	89
146269	7	Sololá	701	Sololá	2	El tablón	4	Abril	2023-03-04T00:00:00	2024-11-06T20:00:00	6	Velocidad del viento	0
146270	7	Sololá	701	Sololá	2	El tablón	4	Abril	2023-03-04T00:00:00	2024-11-06T20:00:00	7	Dirección del viento	0
146271	7	Sololá	701	Sololá	2	El tablón	4	Abril	2023-03-04T00:00:00	2024-11-06T20:00:00	1	Precipitación	0
146272	7	Sololá	701	Sololá	2	El tablón	4	Abril	2023-03-04T00:00:00	2024-11-06T20:00:00	8	Radiación solar	0
146273	7	Sololá	701	Sololá	2	El tablón	4	Abril	2023-03-04T00:00:00	2024-11-06T21:00:00	2	Temperatura media	13.6
146274	7	Sololá	701	Sololá	2	El tablón	4	Abril	2023-03-04T00:00:00	2024-11-06T21:00:00	4	Temperatura máxima	13.6
146275	7	Sololá	701	Sololá	2	El tablón	4	Abril	2023-03-04T00:00:00	2024-11-06T21:00:00	3	Temperatura mínima	12.3
146276	7	Sololá	701	Sololá	2	El tablón	4	Abril	2023-03-04T00:00:00	2024-11-06T21:00:00	5	Humedad	76
146277	7	Sololá	701	Sololá	2	El tablón	4	Abril	2023-03-04T00:00:00	2024-11-06T21:00:00	6	Velocidad del viento	1.6
146278	7	Sololá	701	Sololá	2	El tablón	4	Abril	2023-03-04T00:00:00	2024-11-06T21:00:00	7	Dirección del viento	1.61
146279	7	Sololá	701	Sololá	2	El tablón	4	Abril	2023-03-04T00:00:00	2024-11-06T21:00:00	1	Precipitación	0
146280	7	Sololá	701	Sololá	2	El tablón	4	Abril	2023-03-04T00:00:00	2024-11-06T21:00:00	8	Radiación solar	0
146281	7	Sololá	701	Sololá	2	El tablón	4	Abril	2023-03-04T00:00:00	2024-11-06T22:00:00	2	Temperatura media	12.9
146282	7	Sololá	701	Sololá	2	El tablón	4	Abril	2023-03-04T00:00:00	2024-11-06T22:00:00	4	Temperatura máxima	13.6
146283	7	Sololá	701	Sololá	2	El tablón	4	Abril	2023-03-04T00:00:00	2024-11-06T22:00:00	3	Temperatura mínima	12.8
146284	7	Sololá	701	Sololá	2	El tablón	4	Abril	2023-03-04T00:00:00	2024-11-06T22:00:00	5	Humedad	77
146285	7	Sololá	701	Sololá	2	El tablón	4	Abril	2023-03-04T00:00:00	2024-11-06T22:00:00	6	Velocidad del viento	1.6
146286	7	Sololá	701	Sololá	2	El tablón	4	Abril	2023-03-04T00:00:00	2024-11-06T22:00:00	7	Dirección del viento	1.61
146287	7	Sololá	701	Sololá	2	El tablón	4	Abril	2023-03-04T00:00:00	2024-11-06T22:00:00	1	Precipitación	0
146288	7	Sololá	701	Sololá	2	El tablón	4	Abril	2023-03-04T00:00:00	2024-11-06T22:00:00	8	Radiación solar	0
146289	7	Sololá	701	Sololá	2	El tablón	4	Abril	2023-03-04T00:00:00	2024-11-06T23:00:00	2	Temperatura media	12.9
146290	7	Sololá	701	Sololá	2	El tablón	4	Abril	2023-03-04T00:00:00	2024-11-06T23:00:00	4	Temperatura máxima	12.9
146291	7	Sololá	701	Sololá	2	El tablón	4	Abril	2023-03-04T00:00:00	2024-11-06T23:00:00	3	Temperatura mínima	12.7
146292	7	Sololá	701	Sololá	2	El tablón	4	Abril	2023-03-04T00:00:00	2024-11-06T23:00:00	5	Humedad	79
146293	7	Sololá	701	Sololá	2	El tablón	4	Abril	2023-03-04T00:00:00	2024-11-06T23:00:00	6	Velocidad del viento	3.2
146294	7	Sololá	701	Sololá	2	El tablón	4	Abril	2023-03-04T00:00:00	2024-11-06T23:00:00	7	Dirección del viento	3.22
146295	7	Sololá	701	Sololá	2	El tablón	4	Abril	2023-03-04T00:00:00	2024-11-06T23:00:00	1	Precipitación	0
146296	7	Sololá	701	Sololá	2	El tablón	4	Abril	2023-03-04T00:00:00	2024-11-06T23:00:00	8	Radiación solar	0
146297	7	Sololá	701	Sololá	2	El tablón	4	Abril	2023-04-04T00:00:00	2024-11-06T00:00:00	2	Temperatura media	11
146298	7	Sololá	701	Sololá	2	El tablón	4	Abril	2023-04-04T00:00:00	2024-11-06T00:00:00	4	Temperatura máxima	12.9
146299	7	Sololá	701	Sololá	2	El tablón	4	Abril	2023-04-04T00:00:00	2024-11-06T00:00:00	3	Temperatura mínima	11
146300	7	Sololá	701	Sololá	2	El tablón	4	Abril	2023-04-04T00:00:00	2024-11-06T00:00:00	5	Humedad	82
146301	7	Sololá	701	Sololá	2	El tablón	4	Abril	2023-04-04T00:00:00	2024-11-06T00:00:00	6	Velocidad del viento	3.2
146302	7	Sololá	701	Sololá	2	El tablón	4	Abril	2023-04-04T00:00:00	2024-11-06T00:00:00	7	Dirección del viento	3.22
146303	7	Sololá	701	Sololá	2	El tablón	4	Abril	2023-04-04T00:00:00	2024-11-06T00:00:00	1	Precipitación	0
146304	7	Sololá	701	Sololá	2	El tablón	4	Abril	2023-04-04T00:00:00	2024-11-06T00:00:00	8	Radiación solar	0
146305	7	Sololá	701	Sololá	2	El tablón	4	Abril	2023-04-04T00:00:00	2024-11-06T01:00:00	2	Temperatura media	10.4
146306	7	Sololá	701	Sololá	2	El tablón	4	Abril	2023-04-04T00:00:00	2024-11-06T01:00:00	4	Temperatura máxima	10.8
146307	7	Sololá	701	Sololá	2	El tablón	4	Abril	2023-04-04T00:00:00	2024-11-06T01:00:00	3	Temperatura mínima	10
146308	7	Sololá	701	Sololá	2	El tablón	4	Abril	2023-04-04T00:00:00	2024-11-06T01:00:00	5	Humedad	81
146309	7	Sololá	701	Sololá	2	El tablón	4	Abril	2023-04-04T00:00:00	2024-11-06T01:00:00	6	Velocidad del viento	3.2
146310	7	Sololá	701	Sololá	2	El tablón	4	Abril	2023-04-04T00:00:00	2024-11-06T01:00:00	7	Dirección del viento	3.22
146311	7	Sololá	701	Sololá	2	El tablón	4	Abril	2023-04-04T00:00:00	2024-11-06T01:00:00	1	Precipitación	0
146312	7	Sololá	701	Sololá	2	El tablón	4	Abril	2023-04-04T00:00:00	2024-11-06T01:00:00	8	Radiación solar	0
146313	7	Sololá	701	Sololá	2	El tablón	4	Abril	2023-04-04T00:00:00	2024-11-06T02:00:00	2	Temperatura media	10.3
146314	7	Sololá	701	Sololá	2	El tablón	4	Abril	2023-04-04T00:00:00	2024-11-06T02:00:00	4	Temperatura máxima	10.7
146315	7	Sololá	701	Sololá	2	El tablón	4	Abril	2023-04-04T00:00:00	2024-11-06T02:00:00	3	Temperatura mínima	10.3
146316	7	Sololá	701	Sololá	2	El tablón	4	Abril	2023-04-04T00:00:00	2024-11-06T02:00:00	5	Humedad	78
146317	7	Sololá	701	Sololá	2	El tablón	4	Abril	2023-04-04T00:00:00	2024-11-06T02:00:00	6	Velocidad del viento	3.2
146318	7	Sololá	701	Sololá	2	El tablón	4	Abril	2023-04-04T00:00:00	2024-11-06T02:00:00	7	Dirección del viento	3.22
146319	7	Sololá	701	Sololá	2	El tablón	4	Abril	2023-04-04T00:00:00	2024-11-06T02:00:00	1	Precipitación	0
146320	7	Sololá	701	Sololá	2	El tablón	4	Abril	2023-04-04T00:00:00	2024-11-06T02:00:00	8	Radiación solar	0
146321	7	Sololá	701	Sololá	2	El tablón	4	Abril	2023-04-04T00:00:00	2024-11-06T03:00:00	2	Temperatura media	9.8
146322	7	Sololá	701	Sololá	2	El tablón	4	Abril	2023-04-04T00:00:00	2024-11-06T03:00:00	4	Temperatura máxima	10.3
146323	7	Sololá	701	Sololá	2	El tablón	4	Abril	2023-04-04T00:00:00	2024-11-06T03:00:00	3	Temperatura mínima	9.4
146324	7	Sololá	701	Sololá	2	El tablón	4	Abril	2023-04-04T00:00:00	2024-11-06T03:00:00	5	Humedad	80
146325	7	Sololá	701	Sololá	2	El tablón	4	Abril	2023-04-04T00:00:00	2024-11-06T03:00:00	6	Velocidad del viento	4.8
146326	7	Sololá	701	Sololá	2	El tablón	4	Abril	2023-04-04T00:00:00	2024-11-06T03:00:00	7	Dirección del viento	4.83
146327	7	Sololá	701	Sololá	2	El tablón	4	Abril	2023-04-04T00:00:00	2024-11-06T03:00:00	1	Precipitación	0
146328	7	Sololá	701	Sololá	2	El tablón	4	Abril	2023-04-04T00:00:00	2024-11-06T03:00:00	8	Radiación solar	0
146329	7	Sololá	701	Sololá	2	El tablón	4	Abril	2023-04-04T00:00:00	2024-11-06T04:00:00	2	Temperatura media	8.9
146330	7	Sololá	701	Sololá	2	El tablón	4	Abril	2023-04-04T00:00:00	2024-11-06T04:00:00	4	Temperatura máxima	10.1
146331	7	Sololá	701	Sololá	2	El tablón	4	Abril	2023-04-04T00:00:00	2024-11-06T04:00:00	3	Temperatura mínima	8.9
146332	7	Sololá	701	Sololá	2	El tablón	4	Abril	2023-04-04T00:00:00	2024-11-06T04:00:00	5	Humedad	75
146333	7	Sololá	701	Sololá	2	El tablón	4	Abril	2023-04-04T00:00:00	2024-11-06T04:00:00	6	Velocidad del viento	0
146334	7	Sololá	701	Sololá	2	El tablón	4	Abril	2023-04-04T00:00:00	2024-11-06T04:00:00	7	Dirección del viento	0
146335	7	Sololá	701	Sololá	2	El tablón	4	Abril	2023-04-04T00:00:00	2024-11-06T04:00:00	1	Precipitación	0
146336	7	Sololá	701	Sololá	2	El tablón	4	Abril	2023-04-04T00:00:00	2024-11-06T04:00:00	8	Radiación solar	0
146337	7	Sololá	701	Sololá	2	El tablón	4	Abril	2023-04-04T00:00:00	2024-11-06T05:00:00	2	Temperatura media	8.7
146338	7	Sololá	701	Sololá	2	El tablón	4	Abril	2023-04-04T00:00:00	2024-11-06T05:00:00	4	Temperatura máxima	8.9
146339	7	Sololá	701	Sololá	2	El tablón	4	Abril	2023-04-04T00:00:00	2024-11-06T05:00:00	3	Temperatura mínima	8.7
146340	7	Sololá	701	Sololá	2	El tablón	4	Abril	2023-04-04T00:00:00	2024-11-06T05:00:00	5	Humedad	71
146341	7	Sololá	701	Sololá	2	El tablón	4	Abril	2023-04-04T00:00:00	2024-11-06T05:00:00	6	Velocidad del viento	1.6
146342	7	Sololá	701	Sololá	2	El tablón	4	Abril	2023-04-04T00:00:00	2024-11-06T05:00:00	7	Dirección del viento	1.61
146343	7	Sololá	701	Sololá	2	El tablón	4	Abril	2023-04-04T00:00:00	2024-11-06T05:00:00	1	Precipitación	0
146344	7	Sololá	701	Sololá	2	El tablón	4	Abril	2023-04-04T00:00:00	2024-11-06T05:00:00	8	Radiación solar	0
146345	7	Sololá	701	Sololá	2	El tablón	4	Abril	2023-04-04T00:00:00	2024-11-06T06:00:00	2	Temperatura media	8.4
146346	7	Sololá	701	Sololá	2	El tablón	4	Abril	2023-04-04T00:00:00	2024-11-06T06:00:00	4	Temperatura máxima	8.7
146347	7	Sololá	701	Sololá	2	El tablón	4	Abril	2023-04-04T00:00:00	2024-11-06T06:00:00	3	Temperatura mínima	8.3
146348	7	Sololá	701	Sololá	2	El tablón	4	Abril	2023-04-04T00:00:00	2024-11-06T06:00:00	5	Humedad	74
146349	7	Sololá	701	Sololá	2	El tablón	4	Abril	2023-04-04T00:00:00	2024-11-06T06:00:00	6	Velocidad del viento	3.2
146350	7	Sololá	701	Sololá	2	El tablón	4	Abril	2023-04-04T00:00:00	2024-11-06T06:00:00	7	Dirección del viento	3.22
146351	7	Sololá	701	Sololá	2	El tablón	4	Abril	2023-04-04T00:00:00	2024-11-06T06:00:00	1	Precipitación	0
146352	7	Sololá	701	Sololá	2	El tablón	4	Abril	2023-04-04T00:00:00	2024-11-06T06:00:00	8	Radiación solar	0
146353	7	Sololá	701	Sololá	2	El tablón	4	Abril	2023-04-04T00:00:00	2024-11-06T07:00:00	2	Temperatura media	9.7
146354	7	Sololá	701	Sololá	2	El tablón	4	Abril	2023-04-04T00:00:00	2024-11-06T07:00:00	4	Temperatura máxima	9.7
146355	7	Sololá	701	Sololá	2	El tablón	4	Abril	2023-04-04T00:00:00	2024-11-06T07:00:00	3	Temperatura mínima	8.4
146356	7	Sololá	701	Sololá	2	El tablón	4	Abril	2023-04-04T00:00:00	2024-11-06T07:00:00	5	Humedad	71
146357	7	Sololá	701	Sololá	2	El tablón	4	Abril	2023-04-04T00:00:00	2024-11-06T07:00:00	6	Velocidad del viento	3.2
146358	7	Sololá	701	Sololá	2	El tablón	4	Abril	2023-04-04T00:00:00	2024-11-06T07:00:00	7	Dirección del viento	3.22
146359	7	Sololá	701	Sololá	2	El tablón	4	Abril	2023-04-04T00:00:00	2024-11-06T07:00:00	1	Precipitación	0
146360	7	Sololá	701	Sololá	2	El tablón	4	Abril	2023-04-04T00:00:00	2024-11-06T07:00:00	8	Radiación solar	58
146361	7	Sololá	701	Sololá	2	El tablón	4	Abril	2023-04-04T00:00:00	2024-11-06T08:00:00	2	Temperatura media	13.2
146362	7	Sololá	701	Sololá	2	El tablón	4	Abril	2023-04-04T00:00:00	2024-11-06T08:00:00	4	Temperatura máxima	13.3
146363	7	Sololá	701	Sololá	2	El tablón	4	Abril	2023-04-04T00:00:00	2024-11-06T08:00:00	3	Temperatura mínima	9.7
146364	7	Sololá	701	Sololá	2	El tablón	4	Abril	2023-04-04T00:00:00	2024-11-06T08:00:00	5	Humedad	83
146365	7	Sololá	701	Sololá	2	El tablón	4	Abril	2023-04-04T00:00:00	2024-11-06T08:00:00	6	Velocidad del viento	1.6
146366	7	Sololá	701	Sololá	2	El tablón	4	Abril	2023-04-04T00:00:00	2024-11-06T08:00:00	7	Dirección del viento	1.61
146367	7	Sololá	701	Sololá	2	El tablón	4	Abril	2023-04-04T00:00:00	2024-11-06T08:00:00	1	Precipitación	0
146368	7	Sololá	701	Sololá	2	El tablón	4	Abril	2023-04-04T00:00:00	2024-11-06T08:00:00	8	Radiación solar	222
146369	7	Sololá	701	Sololá	2	El tablón	4	Abril	2023-04-04T00:00:00	2024-11-06T09:00:00	2	Temperatura media	14.3
146370	7	Sololá	701	Sololá	2	El tablón	4	Abril	2023-04-04T00:00:00	2024-11-06T09:00:00	4	Temperatura máxima	14.4
146371	7	Sololá	701	Sololá	2	El tablón	4	Abril	2023-04-04T00:00:00	2024-11-06T09:00:00	3	Temperatura mínima	13.2
146372	7	Sololá	701	Sololá	2	El tablón	4	Abril	2023-04-04T00:00:00	2024-11-06T09:00:00	5	Humedad	79
146373	7	Sololá	701	Sololá	2	El tablón	4	Abril	2023-04-04T00:00:00	2024-11-06T09:00:00	6	Velocidad del viento	4.8
146374	7	Sololá	701	Sololá	2	El tablón	4	Abril	2023-04-04T00:00:00	2024-11-06T09:00:00	7	Dirección del viento	4.83
146375	7	Sololá	701	Sololá	2	El tablón	4	Abril	2023-04-04T00:00:00	2024-11-06T09:00:00	1	Precipitación	0
146376	7	Sololá	701	Sololá	2	El tablón	4	Abril	2023-04-04T00:00:00	2024-11-06T09:00:00	8	Radiación solar	500
146377	7	Sololá	701	Sololá	2	El tablón	4	Abril	2023-04-04T00:00:00	2024-11-06T10:00:00	2	Temperatura media	15.9
146378	7	Sololá	701	Sololá	2	El tablón	4	Abril	2023-04-04T00:00:00	2024-11-06T10:00:00	4	Temperatura máxima	15.9
146379	7	Sololá	701	Sololá	2	El tablón	4	Abril	2023-04-04T00:00:00	2024-11-06T10:00:00	3	Temperatura mínima	14.3
146380	7	Sololá	701	Sololá	2	El tablón	4	Abril	2023-04-04T00:00:00	2024-11-06T10:00:00	5	Humedad	74
146381	7	Sololá	701	Sololá	2	El tablón	4	Abril	2023-04-04T00:00:00	2024-11-06T10:00:00	6	Velocidad del viento	4.8
146382	7	Sololá	701	Sololá	2	El tablón	4	Abril	2023-04-04T00:00:00	2024-11-06T10:00:00	7	Dirección del viento	4.83
146383	7	Sololá	701	Sololá	2	El tablón	4	Abril	2023-04-04T00:00:00	2024-11-06T10:00:00	1	Precipitación	0
146384	7	Sololá	701	Sololá	2	El tablón	4	Abril	2023-04-04T00:00:00	2024-11-06T10:00:00	8	Radiación solar	582
146385	7	Sololá	701	Sololá	2	El tablón	4	Abril	2023-04-04T00:00:00	2024-11-06T11:00:00	2	Temperatura media	17
146386	7	Sololá	701	Sololá	2	El tablón	4	Abril	2023-04-04T00:00:00	2024-11-06T11:00:00	4	Temperatura máxima	17.1
146387	7	Sololá	701	Sololá	2	El tablón	4	Abril	2023-04-04T00:00:00	2024-11-06T11:00:00	3	Temperatura mínima	16
146388	7	Sololá	701	Sololá	2	El tablón	4	Abril	2023-04-04T00:00:00	2024-11-06T11:00:00	5	Humedad	72
146389	7	Sololá	701	Sololá	2	El tablón	4	Abril	2023-04-04T00:00:00	2024-11-06T11:00:00	6	Velocidad del viento	6.4
146390	7	Sololá	701	Sololá	2	El tablón	4	Abril	2023-04-04T00:00:00	2024-11-06T11:00:00	7	Dirección del viento	6.44
146391	7	Sololá	701	Sololá	2	El tablón	4	Abril	2023-04-04T00:00:00	2024-11-06T11:00:00	1	Precipitación	0
146392	7	Sololá	701	Sololá	2	El tablón	4	Abril	2023-04-04T00:00:00	2024-11-06T11:00:00	8	Radiación solar	816
146393	7	Sololá	701	Sololá	2	El tablón	4	Abril	2023-04-04T00:00:00	2024-11-06T12:00:00	2	Temperatura media	17.6
146394	7	Sololá	701	Sololá	2	El tablón	4	Abril	2023-04-04T00:00:00	2024-11-06T12:00:00	4	Temperatura máxima	17.6
146395	7	Sololá	701	Sololá	2	El tablón	4	Abril	2023-04-04T00:00:00	2024-11-06T12:00:00	3	Temperatura mínima	16.8
146396	7	Sololá	701	Sololá	2	El tablón	4	Abril	2023-04-04T00:00:00	2024-11-06T12:00:00	5	Humedad	71
146397	7	Sololá	701	Sololá	2	El tablón	4	Abril	2023-04-04T00:00:00	2024-11-06T12:00:00	6	Velocidad del viento	8
146398	7	Sololá	701	Sololá	2	El tablón	4	Abril	2023-04-04T00:00:00	2024-11-06T12:00:00	7	Dirección del viento	8.05
146399	7	Sololá	701	Sololá	2	El tablón	4	Abril	2023-04-04T00:00:00	2024-11-06T12:00:00	1	Precipitación	0
146400	7	Sololá	701	Sololá	2	El tablón	4	Abril	2023-04-04T00:00:00	2024-11-06T12:00:00	8	Radiación solar	926
146401	7	Sololá	701	Sololá	2	El tablón	4	Abril	2023-04-04T00:00:00	2024-11-06T13:00:00	2	Temperatura media	17.8
146402	7	Sololá	701	Sololá	2	El tablón	4	Abril	2023-04-04T00:00:00	2024-11-06T13:00:00	4	Temperatura máxima	18.4
146403	7	Sololá	701	Sololá	2	El tablón	4	Abril	2023-04-04T00:00:00	2024-11-06T13:00:00	3	Temperatura mínima	17.3
146404	7	Sololá	701	Sololá	2	El tablón	4	Abril	2023-04-04T00:00:00	2024-11-06T13:00:00	5	Humedad	73
146405	7	Sololá	701	Sololá	2	El tablón	4	Abril	2023-04-04T00:00:00	2024-11-06T13:00:00	6	Velocidad del viento	8
146406	7	Sololá	701	Sololá	2	El tablón	4	Abril	2023-04-04T00:00:00	2024-11-06T13:00:00	7	Dirección del viento	8.05
146407	7	Sololá	701	Sololá	2	El tablón	4	Abril	2023-04-04T00:00:00	2024-11-06T13:00:00	1	Precipitación	0
146408	7	Sololá	701	Sololá	2	El tablón	4	Abril	2023-04-04T00:00:00	2024-11-06T13:00:00	8	Radiación solar	929
146409	7	Sololá	701	Sololá	2	El tablón	4	Abril	2023-04-04T00:00:00	2024-11-06T14:00:00	2	Temperatura media	18.3
146410	7	Sololá	701	Sololá	2	El tablón	4	Abril	2023-04-04T00:00:00	2024-11-06T14:00:00	4	Temperatura máxima	18.3
146411	7	Sololá	701	Sololá	2	El tablón	4	Abril	2023-04-04T00:00:00	2024-11-06T14:00:00	3	Temperatura mínima	17.3
146412	7	Sololá	701	Sololá	2	El tablón	4	Abril	2023-04-04T00:00:00	2024-11-06T14:00:00	5	Humedad	76
146413	7	Sololá	701	Sololá	2	El tablón	4	Abril	2023-04-04T00:00:00	2024-11-06T14:00:00	6	Velocidad del viento	9.7
146414	7	Sololá	701	Sololá	2	El tablón	4	Abril	2023-04-04T00:00:00	2024-11-06T14:00:00	7	Dirección del viento	9.66
146415	7	Sololá	701	Sololá	2	El tablón	4	Abril	2023-04-04T00:00:00	2024-11-06T14:00:00	1	Precipitación	0
146416	7	Sololá	701	Sololá	2	El tablón	4	Abril	2023-04-04T00:00:00	2024-11-06T14:00:00	8	Radiación solar	907
146417	7	Sololá	701	Sololá	2	El tablón	4	Abril	2023-04-04T00:00:00	2024-11-06T15:00:00	2	Temperatura media	16.4
146418	7	Sololá	701	Sololá	2	El tablón	4	Abril	2023-04-04T00:00:00	2024-11-06T15:00:00	4	Temperatura máxima	18.3
146419	7	Sololá	701	Sololá	2	El tablón	4	Abril	2023-04-04T00:00:00	2024-11-06T15:00:00	3	Temperatura mínima	16.4
146420	7	Sololá	701	Sololá	2	El tablón	4	Abril	2023-04-04T00:00:00	2024-11-06T15:00:00	5	Humedad	84
146421	7	Sololá	701	Sololá	2	El tablón	4	Abril	2023-04-04T00:00:00	2024-11-06T15:00:00	6	Velocidad del viento	8
146422	7	Sololá	701	Sololá	2	El tablón	4	Abril	2023-04-04T00:00:00	2024-11-06T15:00:00	7	Dirección del viento	8.05
146423	7	Sololá	701	Sololá	2	El tablón	4	Abril	2023-04-04T00:00:00	2024-11-06T15:00:00	1	Precipitación	0
146424	7	Sololá	701	Sololá	2	El tablón	4	Abril	2023-04-04T00:00:00	2024-11-06T15:00:00	8	Radiación solar	510
146425	7	Sololá	701	Sololá	2	El tablón	4	Abril	2023-04-04T00:00:00	2024-11-06T16:00:00	2	Temperatura media	15.7
146426	7	Sololá	701	Sololá	2	El tablón	4	Abril	2023-04-04T00:00:00	2024-11-06T16:00:00	4	Temperatura máxima	16.7
146427	7	Sololá	701	Sololá	2	El tablón	4	Abril	2023-04-04T00:00:00	2024-11-06T16:00:00	3	Temperatura mínima	15.7
146428	7	Sololá	701	Sololá	2	El tablón	4	Abril	2023-04-04T00:00:00	2024-11-06T16:00:00	5	Humedad	86
146429	7	Sololá	701	Sololá	2	El tablón	4	Abril	2023-04-04T00:00:00	2024-11-06T16:00:00	6	Velocidad del viento	6.4
146430	7	Sololá	701	Sololá	2	El tablón	4	Abril	2023-04-04T00:00:00	2024-11-06T16:00:00	7	Dirección del viento	6.44
146431	7	Sololá	701	Sololá	2	El tablón	4	Abril	2023-04-04T00:00:00	2024-11-06T16:00:00	1	Precipitación	0
146432	7	Sololá	701	Sololá	2	El tablón	4	Abril	2023-04-04T00:00:00	2024-11-06T16:00:00	8	Radiación solar	289
146433	7	Sololá	701	Sololá	2	El tablón	4	Abril	2023-04-04T00:00:00	2024-11-06T17:00:00	2	Temperatura media	15.3
146434	7	Sololá	701	Sololá	2	El tablón	4	Abril	2023-04-04T00:00:00	2024-11-06T17:00:00	4	Temperatura máxima	15.7
146435	7	Sololá	701	Sololá	2	El tablón	4	Abril	2023-04-04T00:00:00	2024-11-06T17:00:00	3	Temperatura mínima	15.1
146436	7	Sololá	701	Sololá	2	El tablón	4	Abril	2023-04-04T00:00:00	2024-11-06T17:00:00	5	Humedad	87
146437	7	Sololá	701	Sololá	2	El tablón	4	Abril	2023-04-04T00:00:00	2024-11-06T17:00:00	6	Velocidad del viento	4.8
146438	7	Sololá	701	Sololá	2	El tablón	4	Abril	2023-04-04T00:00:00	2024-11-06T17:00:00	7	Dirección del viento	4.83
146439	7	Sololá	701	Sololá	2	El tablón	4	Abril	2023-04-04T00:00:00	2024-11-06T17:00:00	1	Precipitación	0
146440	7	Sololá	701	Sololá	2	El tablón	4	Abril	2023-04-04T00:00:00	2024-11-06T17:00:00	8	Radiación solar	138
146441	7	Sololá	701	Sololá	2	El tablón	4	Abril	2023-04-04T00:00:00	2024-11-06T18:00:00	2	Temperatura media	14.7
146442	7	Sololá	701	Sololá	2	El tablón	4	Abril	2023-04-04T00:00:00	2024-11-06T18:00:00	4	Temperatura máxima	15.3
146443	7	Sololá	701	Sololá	2	El tablón	4	Abril	2023-04-04T00:00:00	2024-11-06T18:00:00	3	Temperatura mínima	14.7
146444	7	Sololá	701	Sololá	2	El tablón	4	Abril	2023-04-04T00:00:00	2024-11-06T18:00:00	5	Humedad	88
146445	7	Sololá	701	Sololá	2	El tablón	4	Abril	2023-04-04T00:00:00	2024-11-06T18:00:00	6	Velocidad del viento	3.2
146446	7	Sololá	701	Sololá	2	El tablón	4	Abril	2023-04-04T00:00:00	2024-11-06T18:00:00	7	Dirección del viento	3.22
146447	7	Sololá	701	Sololá	2	El tablón	4	Abril	2023-04-04T00:00:00	2024-11-06T18:00:00	1	Precipitación	0
146448	7	Sololá	701	Sololá	2	El tablón	4	Abril	2023-04-04T00:00:00	2024-11-06T18:00:00	8	Radiación solar	44
146449	7	Sololá	701	Sololá	2	El tablón	4	Abril	2023-04-04T00:00:00	2024-11-06T19:00:00	2	Temperatura media	14.4
146450	7	Sololá	701	Sololá	2	El tablón	4	Abril	2023-04-04T00:00:00	2024-11-06T19:00:00	4	Temperatura máxima	14.7
146451	7	Sololá	701	Sololá	2	El tablón	4	Abril	2023-04-04T00:00:00	2024-11-06T19:00:00	3	Temperatura mínima	14.2
146452	7	Sololá	701	Sololá	2	El tablón	4	Abril	2023-04-04T00:00:00	2024-11-06T19:00:00	5	Humedad	88
146453	7	Sololá	701	Sololá	2	El tablón	4	Abril	2023-04-04T00:00:00	2024-11-06T19:00:00	6	Velocidad del viento	3.2
146454	7	Sololá	701	Sololá	2	El tablón	4	Abril	2023-04-04T00:00:00	2024-11-06T19:00:00	7	Dirección del viento	3.22
146455	7	Sololá	701	Sololá	2	El tablón	4	Abril	2023-04-04T00:00:00	2024-11-06T19:00:00	1	Precipitación	0
146456	7	Sololá	701	Sololá	2	El tablón	4	Abril	2023-04-04T00:00:00	2024-11-06T19:00:00	8	Radiación solar	0
146457	7	Sololá	701	Sololá	2	El tablón	4	Abril	2023-04-04T00:00:00	2024-11-06T20:00:00	2	Temperatura media	14.3
146458	7	Sololá	701	Sololá	2	El tablón	4	Abril	2023-04-04T00:00:00	2024-11-06T20:00:00	4	Temperatura máxima	14.4
146459	7	Sololá	701	Sololá	2	El tablón	4	Abril	2023-04-04T00:00:00	2024-11-06T20:00:00	3	Temperatura mínima	14.2
146460	7	Sololá	701	Sololá	2	El tablón	4	Abril	2023-04-04T00:00:00	2024-11-06T20:00:00	5	Humedad	88
146461	7	Sololá	701	Sololá	2	El tablón	4	Abril	2023-04-04T00:00:00	2024-11-06T20:00:00	6	Velocidad del viento	1.6
146462	7	Sololá	701	Sololá	2	El tablón	4	Abril	2023-04-04T00:00:00	2024-11-06T20:00:00	7	Dirección del viento	1.61
146463	7	Sololá	701	Sololá	2	El tablón	4	Abril	2023-04-04T00:00:00	2024-11-06T20:00:00	1	Precipitación	0
146464	7	Sololá	701	Sololá	2	El tablón	4	Abril	2023-04-04T00:00:00	2024-11-06T20:00:00	8	Radiación solar	0
146465	7	Sololá	701	Sololá	2	El tablón	4	Abril	2023-04-04T00:00:00	2024-11-06T21:00:00	2	Temperatura media	13.1
146466	7	Sololá	701	Sololá	2	El tablón	4	Abril	2023-04-04T00:00:00	2024-11-06T21:00:00	4	Temperatura máxima	14.3
146467	7	Sololá	701	Sololá	2	El tablón	4	Abril	2023-04-04T00:00:00	2024-11-06T21:00:00	3	Temperatura mínima	13.1
146468	7	Sololá	701	Sololá	2	El tablón	4	Abril	2023-04-04T00:00:00	2024-11-06T21:00:00	5	Humedad	88
146469	7	Sololá	701	Sololá	2	El tablón	4	Abril	2023-04-04T00:00:00	2024-11-06T21:00:00	6	Velocidad del viento	0
146470	7	Sololá	701	Sololá	2	El tablón	4	Abril	2023-04-04T00:00:00	2024-11-06T21:00:00	7	Dirección del viento	0
146471	7	Sololá	701	Sololá	2	El tablón	4	Abril	2023-04-04T00:00:00	2024-11-06T21:00:00	1	Precipitación	0
146472	7	Sololá	701	Sololá	2	El tablón	4	Abril	2023-04-04T00:00:00	2024-11-06T21:00:00	8	Radiación solar	0
146473	7	Sololá	701	Sololá	2	El tablón	4	Abril	2023-04-04T00:00:00	2024-11-06T22:00:00	2	Temperatura media	12.2
146474	7	Sololá	701	Sololá	2	El tablón	4	Abril	2023-04-04T00:00:00	2024-11-06T22:00:00	4	Temperatura máxima	13.1
146475	7	Sololá	701	Sololá	2	El tablón	4	Abril	2023-04-04T00:00:00	2024-11-06T22:00:00	3	Temperatura mínima	12.2
146476	7	Sololá	701	Sololá	2	El tablón	4	Abril	2023-04-04T00:00:00	2024-11-06T22:00:00	5	Humedad	88
146477	7	Sololá	701	Sololá	2	El tablón	4	Abril	2023-04-04T00:00:00	2024-11-06T22:00:00	6	Velocidad del viento	3.2
146478	7	Sololá	701	Sololá	2	El tablón	4	Abril	2023-04-04T00:00:00	2024-11-06T22:00:00	7	Dirección del viento	3.22
146479	7	Sololá	701	Sololá	2	El tablón	4	Abril	2023-04-04T00:00:00	2024-11-06T22:00:00	1	Precipitación	0
146480	7	Sololá	701	Sololá	2	El tablón	4	Abril	2023-04-04T00:00:00	2024-11-06T22:00:00	8	Radiación solar	0
146481	7	Sololá	701	Sololá	2	El tablón	4	Abril	2023-04-04T00:00:00	2024-11-06T23:00:00	2	Temperatura media	11.7
146482	7	Sololá	701	Sololá	2	El tablón	4	Abril	2023-04-04T00:00:00	2024-11-06T23:00:00	4	Temperatura máxima	12.3
146483	7	Sololá	701	Sololá	2	El tablón	4	Abril	2023-04-04T00:00:00	2024-11-06T23:00:00	3	Temperatura mínima	11.7
146484	7	Sololá	701	Sololá	2	El tablón	4	Abril	2023-04-04T00:00:00	2024-11-06T23:00:00	5	Humedad	88
146485	7	Sololá	701	Sololá	2	El tablón	4	Abril	2023-04-04T00:00:00	2024-11-06T23:00:00	6	Velocidad del viento	3.2
146486	7	Sololá	701	Sololá	2	El tablón	4	Abril	2023-04-04T00:00:00	2024-11-06T23:00:00	7	Dirección del viento	3.22
146487	7	Sololá	701	Sololá	2	El tablón	4	Abril	2023-04-04T00:00:00	2024-11-06T23:00:00	1	Precipitación	0
146488	7	Sololá	701	Sololá	2	El tablón	4	Abril	2023-04-04T00:00:00	2024-11-06T23:00:00	8	Radiación solar	0
146489	7	Sololá	701	Sololá	2	El tablón	4	Abril	2023-05-04T00:00:00	2024-11-06T00:00:00	2	Temperatura media	11.4
146490	7	Sololá	701	Sololá	2	El tablón	4	Abril	2023-05-04T00:00:00	2024-11-06T00:00:00	4	Temperatura máxima	12.1
146491	7	Sololá	701	Sololá	2	El tablón	4	Abril	2023-05-04T00:00:00	2024-11-06T00:00:00	3	Temperatura mínima	11.4
146492	7	Sololá	701	Sololá	2	El tablón	4	Abril	2023-05-04T00:00:00	2024-11-06T00:00:00	5	Humedad	88
146493	7	Sololá	701	Sololá	2	El tablón	4	Abril	2023-05-04T00:00:00	2024-11-06T00:00:00	6	Velocidad del viento	3.2
146494	7	Sololá	701	Sololá	2	El tablón	4	Abril	2023-05-04T00:00:00	2024-11-06T00:00:00	7	Dirección del viento	3.22
146495	7	Sololá	701	Sololá	2	El tablón	4	Abril	2023-05-04T00:00:00	2024-11-06T00:00:00	1	Precipitación	0
146496	7	Sololá	701	Sololá	2	El tablón	4	Abril	2023-05-04T00:00:00	2024-11-06T00:00:00	8	Radiación solar	0
146497	7	Sololá	701	Sololá	2	El tablón	4	Abril	2023-05-04T00:00:00	2024-11-06T01:00:00	2	Temperatura media	11.1
146498	7	Sololá	701	Sololá	2	El tablón	4	Abril	2023-05-04T00:00:00	2024-11-06T01:00:00	4	Temperatura máxima	11.8
146499	7	Sololá	701	Sololá	2	El tablón	4	Abril	2023-05-04T00:00:00	2024-11-06T01:00:00	3	Temperatura mínima	11.1
146500	7	Sololá	701	Sololá	2	El tablón	4	Abril	2023-05-04T00:00:00	2024-11-06T01:00:00	5	Humedad	88
146501	7	Sololá	701	Sololá	2	El tablón	4	Abril	2023-05-04T00:00:00	2024-11-06T01:00:00	6	Velocidad del viento	3.2
146502	7	Sololá	701	Sololá	2	El tablón	4	Abril	2023-05-04T00:00:00	2024-11-06T01:00:00	7	Dirección del viento	3.22
146503	7	Sololá	701	Sololá	2	El tablón	4	Abril	2023-05-04T00:00:00	2024-11-06T01:00:00	1	Precipitación	0
146504	7	Sololá	701	Sololá	2	El tablón	4	Abril	2023-05-04T00:00:00	2024-11-06T01:00:00	8	Radiación solar	0
146505	7	Sololá	701	Sololá	2	El tablón	4	Abril	2023-05-04T00:00:00	2024-11-06T02:00:00	2	Temperatura media	10.9
146506	7	Sololá	701	Sololá	2	El tablón	4	Abril	2023-05-04T00:00:00	2024-11-06T02:00:00	4	Temperatura máxima	11.2
146507	7	Sololá	701	Sololá	2	El tablón	4	Abril	2023-05-04T00:00:00	2024-11-06T02:00:00	3	Temperatura mínima	10.7
146508	7	Sololá	701	Sololá	2	El tablón	4	Abril	2023-05-04T00:00:00	2024-11-06T02:00:00	5	Humedad	88
146509	7	Sololá	701	Sololá	2	El tablón	4	Abril	2023-05-04T00:00:00	2024-11-06T02:00:00	6	Velocidad del viento	3.2
146510	7	Sololá	701	Sololá	2	El tablón	4	Abril	2023-05-04T00:00:00	2024-11-06T02:00:00	7	Dirección del viento	3.22
146511	7	Sololá	701	Sololá	2	El tablón	4	Abril	2023-05-04T00:00:00	2024-11-06T02:00:00	1	Precipitación	0
146512	7	Sololá	701	Sololá	2	El tablón	4	Abril	2023-05-04T00:00:00	2024-11-06T02:00:00	8	Radiación solar	0
146513	7	Sololá	701	Sololá	2	El tablón	4	Abril	2023-05-04T00:00:00	2024-11-06T03:00:00	2	Temperatura media	10.8
146514	7	Sololá	701	Sololá	2	El tablón	4	Abril	2023-05-04T00:00:00	2024-11-06T03:00:00	4	Temperatura máxima	10.9
146515	7	Sololá	701	Sololá	2	El tablón	4	Abril	2023-05-04T00:00:00	2024-11-06T03:00:00	3	Temperatura mínima	10.6
146516	7	Sololá	701	Sololá	2	El tablón	4	Abril	2023-05-04T00:00:00	2024-11-06T03:00:00	5	Humedad	84
146517	7	Sololá	701	Sololá	2	El tablón	4	Abril	2023-05-04T00:00:00	2024-11-06T03:00:00	6	Velocidad del viento	1.6
146518	7	Sololá	701	Sololá	2	El tablón	4	Abril	2023-05-04T00:00:00	2024-11-06T03:00:00	7	Dirección del viento	1.61
146519	7	Sololá	701	Sololá	2	El tablón	4	Abril	2023-05-04T00:00:00	2024-11-06T03:00:00	1	Precipitación	0
146520	7	Sololá	701	Sololá	2	El tablón	4	Abril	2023-05-04T00:00:00	2024-11-06T03:00:00	8	Radiación solar	0
146521	7	Sololá	701	Sololá	2	El tablón	4	Abril	2023-05-04T00:00:00	2024-11-06T04:00:00	2	Temperatura media	9.6
146522	7	Sololá	701	Sololá	2	El tablón	4	Abril	2023-05-04T00:00:00	2024-11-06T04:00:00	4	Temperatura máxima	10.8
146523	7	Sololá	701	Sololá	2	El tablón	4	Abril	2023-05-04T00:00:00	2024-11-06T04:00:00	3	Temperatura mínima	9.6
146524	7	Sololá	701	Sololá	2	El tablón	4	Abril	2023-05-04T00:00:00	2024-11-06T04:00:00	5	Humedad	75
146525	7	Sololá	701	Sololá	2	El tablón	4	Abril	2023-05-04T00:00:00	2024-11-06T04:00:00	6	Velocidad del viento	1.6
146526	7	Sololá	701	Sololá	2	El tablón	4	Abril	2023-05-04T00:00:00	2024-11-06T04:00:00	7	Dirección del viento	1.61
146527	7	Sololá	701	Sololá	2	El tablón	4	Abril	2023-05-04T00:00:00	2024-11-06T04:00:00	1	Precipitación	0
146528	7	Sololá	701	Sololá	2	El tablón	4	Abril	2023-05-04T00:00:00	2024-11-06T04:00:00	8	Radiación solar	0
146529	7	Sololá	701	Sololá	2	El tablón	4	Abril	2023-05-04T00:00:00	2024-11-06T05:00:00	2	Temperatura media	9.8
146530	7	Sololá	701	Sololá	2	El tablón	4	Abril	2023-05-04T00:00:00	2024-11-06T05:00:00	4	Temperatura máxima	9.8
146531	7	Sololá	701	Sololá	2	El tablón	4	Abril	2023-05-04T00:00:00	2024-11-06T05:00:00	3	Temperatura mínima	9.5
146532	7	Sololá	701	Sololá	2	El tablón	4	Abril	2023-05-04T00:00:00	2024-11-06T05:00:00	5	Humedad	72
146533	7	Sololá	701	Sololá	2	El tablón	4	Abril	2023-05-04T00:00:00	2024-11-06T05:00:00	6	Velocidad del viento	1.6
146534	7	Sololá	701	Sololá	2	El tablón	4	Abril	2023-05-04T00:00:00	2024-11-06T05:00:00	7	Dirección del viento	1.61
146535	7	Sololá	701	Sololá	2	El tablón	4	Abril	2023-05-04T00:00:00	2024-11-06T05:00:00	1	Precipitación	0
146536	7	Sololá	701	Sololá	2	El tablón	4	Abril	2023-05-04T00:00:00	2024-11-06T05:00:00	8	Radiación solar	0
146537	7	Sololá	701	Sololá	2	El tablón	4	Abril	2023-05-04T00:00:00	2024-11-06T06:00:00	2	Temperatura media	9.3
146538	7	Sololá	701	Sololá	2	El tablón	4	Abril	2023-05-04T00:00:00	2024-11-06T06:00:00	4	Temperatura máxima	9.9
146539	7	Sololá	701	Sololá	2	El tablón	4	Abril	2023-05-04T00:00:00	2024-11-06T06:00:00	3	Temperatura mínima	9.2
146540	7	Sololá	701	Sololá	2	El tablón	4	Abril	2023-05-04T00:00:00	2024-11-06T06:00:00	5	Humedad	64
146541	7	Sololá	701	Sololá	2	El tablón	4	Abril	2023-05-04T00:00:00	2024-11-06T06:00:00	6	Velocidad del viento	3.2
146542	7	Sololá	701	Sololá	2	El tablón	4	Abril	2023-05-04T00:00:00	2024-11-06T06:00:00	7	Dirección del viento	3.22
146543	7	Sololá	701	Sololá	2	El tablón	4	Abril	2023-05-04T00:00:00	2024-11-06T06:00:00	1	Precipitación	0
146544	7	Sololá	701	Sololá	2	El tablón	4	Abril	2023-05-04T00:00:00	2024-11-06T06:00:00	8	Radiación solar	0
146545	7	Sololá	701	Sololá	2	El tablón	4	Abril	2023-05-04T00:00:00	2024-11-06T07:00:00	2	Temperatura media	10.5
146546	7	Sololá	701	Sololá	2	El tablón	4	Abril	2023-05-04T00:00:00	2024-11-06T07:00:00	4	Temperatura máxima	10.5
146547	7	Sololá	701	Sololá	2	El tablón	4	Abril	2023-05-04T00:00:00	2024-11-06T07:00:00	3	Temperatura mínima	9.2
146548	7	Sololá	701	Sololá	2	El tablón	4	Abril	2023-05-04T00:00:00	2024-11-06T07:00:00	5	Humedad	59
146549	7	Sololá	701	Sololá	2	El tablón	4	Abril	2023-05-04T00:00:00	2024-11-06T07:00:00	6	Velocidad del viento	1.6
146550	7	Sololá	701	Sololá	2	El tablón	4	Abril	2023-05-04T00:00:00	2024-11-06T07:00:00	7	Dirección del viento	1.61
146551	7	Sololá	701	Sololá	2	El tablón	4	Abril	2023-05-04T00:00:00	2024-11-06T07:00:00	1	Precipitación	0
146552	7	Sololá	701	Sololá	2	El tablón	4	Abril	2023-05-04T00:00:00	2024-11-06T07:00:00	8	Radiación solar	60
146553	7	Sololá	701	Sololá	2	El tablón	4	Abril	2023-05-04T00:00:00	2024-11-06T08:00:00	2	Temperatura media	15.2
146554	7	Sololá	701	Sololá	2	El tablón	4	Abril	2023-05-04T00:00:00	2024-11-06T08:00:00	4	Temperatura máxima	15.2
146555	7	Sololá	701	Sololá	2	El tablón	4	Abril	2023-05-04T00:00:00	2024-11-06T08:00:00	3	Temperatura mínima	10.6
146556	7	Sololá	701	Sololá	2	El tablón	4	Abril	2023-05-04T00:00:00	2024-11-06T08:00:00	5	Humedad	62
146557	7	Sololá	701	Sololá	2	El tablón	4	Abril	2023-05-04T00:00:00	2024-11-06T08:00:00	6	Velocidad del viento	1.6
146558	7	Sololá	701	Sololá	2	El tablón	4	Abril	2023-05-04T00:00:00	2024-11-06T08:00:00	7	Dirección del viento	1.61
146559	7	Sololá	701	Sololá	2	El tablón	4	Abril	2023-05-04T00:00:00	2024-11-06T08:00:00	1	Precipitación	0
146560	7	Sololá	701	Sololá	2	El tablón	4	Abril	2023-05-04T00:00:00	2024-11-06T08:00:00	8	Radiación solar	237
146561	7	Sololá	701	Sololá	2	El tablón	4	Abril	2023-05-04T00:00:00	2024-11-06T09:00:00	2	Temperatura media	17.2
146562	7	Sololá	701	Sololá	2	El tablón	4	Abril	2023-05-04T00:00:00	2024-11-06T09:00:00	4	Temperatura máxima	17.3
146563	7	Sololá	701	Sololá	2	El tablón	4	Abril	2023-05-04T00:00:00	2024-11-06T09:00:00	3	Temperatura mínima	15.2
146564	7	Sololá	701	Sololá	2	El tablón	4	Abril	2023-05-04T00:00:00	2024-11-06T09:00:00	5	Humedad	64
146565	7	Sololá	701	Sololá	2	El tablón	4	Abril	2023-05-04T00:00:00	2024-11-06T09:00:00	6	Velocidad del viento	3.2
146566	7	Sololá	701	Sololá	2	El tablón	4	Abril	2023-05-04T00:00:00	2024-11-06T09:00:00	7	Dirección del viento	3.22
146567	7	Sololá	701	Sololá	2	El tablón	4	Abril	2023-05-04T00:00:00	2024-11-06T09:00:00	1	Precipitación	0
146568	7	Sololá	701	Sololá	2	El tablón	4	Abril	2023-05-04T00:00:00	2024-11-06T09:00:00	8	Radiación solar	442
146569	7	Sololá	701	Sololá	2	El tablón	4	Abril	2023-05-04T00:00:00	2024-11-06T10:00:00	2	Temperatura media	17.5
146570	7	Sololá	701	Sololá	2	El tablón	4	Abril	2023-05-04T00:00:00	2024-11-06T10:00:00	4	Temperatura máxima	17.5
146571	7	Sololá	701	Sololá	2	El tablón	4	Abril	2023-05-04T00:00:00	2024-11-06T10:00:00	3	Temperatura mínima	16.6
146572	7	Sololá	701	Sololá	2	El tablón	4	Abril	2023-05-04T00:00:00	2024-11-06T10:00:00	5	Humedad	67
146573	7	Sololá	701	Sololá	2	El tablón	4	Abril	2023-05-04T00:00:00	2024-11-06T10:00:00	6	Velocidad del viento	6.4
146574	7	Sololá	701	Sololá	2	El tablón	4	Abril	2023-05-04T00:00:00	2024-11-06T10:00:00	7	Dirección del viento	6.44
146575	7	Sololá	701	Sololá	2	El tablón	4	Abril	2023-05-04T00:00:00	2024-11-06T10:00:00	1	Precipitación	0
146576	7	Sololá	701	Sololá	2	El tablón	4	Abril	2023-05-04T00:00:00	2024-11-06T10:00:00	8	Radiación solar	565
146577	7	Sololá	701	Sololá	2	El tablón	4	Abril	2023-05-04T00:00:00	2024-11-06T11:00:00	2	Temperatura media	17.9
146578	7	Sololá	701	Sololá	2	El tablón	4	Abril	2023-05-04T00:00:00	2024-11-06T11:00:00	4	Temperatura máxima	17.9
146579	7	Sololá	701	Sololá	2	El tablón	4	Abril	2023-05-04T00:00:00	2024-11-06T11:00:00	3	Temperatura mínima	17.4
146580	7	Sololá	701	Sololá	2	El tablón	4	Abril	2023-05-04T00:00:00	2024-11-06T11:00:00	5	Humedad	64
146581	7	Sololá	701	Sololá	2	El tablón	4	Abril	2023-05-04T00:00:00	2024-11-06T11:00:00	6	Velocidad del viento	8
146582	7	Sololá	701	Sololá	2	El tablón	4	Abril	2023-05-04T00:00:00	2024-11-06T11:00:00	7	Dirección del viento	8.05
146583	7	Sololá	701	Sololá	2	El tablón	4	Abril	2023-05-04T00:00:00	2024-11-06T11:00:00	1	Precipitación	0
146584	7	Sololá	701	Sololá	2	El tablón	4	Abril	2023-05-04T00:00:00	2024-11-06T11:00:00	8	Radiación solar	819
146585	7	Sololá	701	Sololá	2	El tablón	4	Abril	2023-05-04T00:00:00	2024-11-06T12:00:00	2	Temperatura media	18.3
146586	7	Sololá	701	Sololá	2	El tablón	4	Abril	2023-05-04T00:00:00	2024-11-06T12:00:00	4	Temperatura máxima	18.5
146587	7	Sololá	701	Sololá	2	El tablón	4	Abril	2023-05-04T00:00:00	2024-11-06T12:00:00	3	Temperatura mínima	17.9
146588	7	Sololá	701	Sololá	2	El tablón	4	Abril	2023-05-04T00:00:00	2024-11-06T12:00:00	5	Humedad	70
146589	7	Sololá	701	Sololá	2	El tablón	4	Abril	2023-05-04T00:00:00	2024-11-06T12:00:00	6	Velocidad del viento	8
146590	7	Sololá	701	Sololá	2	El tablón	4	Abril	2023-05-04T00:00:00	2024-11-06T12:00:00	7	Dirección del viento	8.05
146591	7	Sololá	701	Sololá	2	El tablón	4	Abril	2023-05-04T00:00:00	2024-11-06T12:00:00	1	Precipitación	0
146592	7	Sololá	701	Sololá	2	El tablón	4	Abril	2023-05-04T00:00:00	2024-11-06T12:00:00	8	Radiación solar	937
146593	7	Sololá	701	Sololá	2	El tablón	4	Abril	2023-05-04T00:00:00	2024-11-06T13:00:00	2	Temperatura media	18.7
146594	7	Sololá	701	Sololá	2	El tablón	4	Abril	2023-05-04T00:00:00	2024-11-06T13:00:00	4	Temperatura máxima	19.2
146595	7	Sololá	701	Sololá	2	El tablón	4	Abril	2023-05-04T00:00:00	2024-11-06T13:00:00	3	Temperatura mínima	18.2
146596	7	Sololá	701	Sololá	2	El tablón	4	Abril	2023-05-04T00:00:00	2024-11-06T13:00:00	5	Humedad	74
146597	7	Sololá	701	Sololá	2	El tablón	4	Abril	2023-05-04T00:00:00	2024-11-06T13:00:00	6	Velocidad del viento	8
146598	7	Sololá	701	Sololá	2	El tablón	4	Abril	2023-05-04T00:00:00	2024-11-06T13:00:00	7	Dirección del viento	8.05
146599	7	Sololá	701	Sololá	2	El tablón	4	Abril	2023-05-04T00:00:00	2024-11-06T13:00:00	1	Precipitación	0
146600	7	Sololá	701	Sololá	2	El tablón	4	Abril	2023-05-04T00:00:00	2024-11-06T13:00:00	8	Radiación solar	940
146601	7	Sololá	701	Sololá	2	El tablón	4	Abril	2023-05-04T00:00:00	2024-11-06T14:00:00	2	Temperatura media	18.6
146602	7	Sololá	701	Sololá	2	El tablón	4	Abril	2023-05-04T00:00:00	2024-11-06T14:00:00	4	Temperatura máxima	18.8
146603	7	Sololá	701	Sololá	2	El tablón	4	Abril	2023-05-04T00:00:00	2024-11-06T14:00:00	3	Temperatura mínima	18.2
146604	7	Sololá	701	Sololá	2	El tablón	4	Abril	2023-05-04T00:00:00	2024-11-06T14:00:00	5	Humedad	76
146605	7	Sololá	701	Sololá	2	El tablón	4	Abril	2023-05-04T00:00:00	2024-11-06T14:00:00	6	Velocidad del viento	8
146606	7	Sololá	701	Sololá	2	El tablón	4	Abril	2023-05-04T00:00:00	2024-11-06T14:00:00	7	Dirección del viento	8.05
146607	7	Sololá	701	Sololá	2	El tablón	4	Abril	2023-05-04T00:00:00	2024-11-06T14:00:00	1	Precipitación	0
146608	7	Sololá	701	Sololá	2	El tablón	4	Abril	2023-05-04T00:00:00	2024-11-06T14:00:00	8	Radiación solar	879
146609	7	Sololá	701	Sololá	2	El tablón	4	Abril	2023-05-04T00:00:00	2024-11-06T15:00:00	2	Temperatura media	17.7
146610	7	Sololá	701	Sololá	2	El tablón	4	Abril	2023-05-04T00:00:00	2024-11-06T15:00:00	4	Temperatura máxima	18.9
146611	7	Sololá	701	Sololá	2	El tablón	4	Abril	2023-05-04T00:00:00	2024-11-06T15:00:00	3	Temperatura mínima	17.5
146612	7	Sololá	701	Sololá	2	El tablón	4	Abril	2023-05-04T00:00:00	2024-11-06T15:00:00	5	Humedad	81
146613	7	Sololá	701	Sololá	2	El tablón	4	Abril	2023-05-04T00:00:00	2024-11-06T15:00:00	6	Velocidad del viento	8
146614	7	Sololá	701	Sololá	2	El tablón	4	Abril	2023-05-04T00:00:00	2024-11-06T15:00:00	7	Dirección del viento	8.05
146615	7	Sololá	701	Sololá	2	El tablón	4	Abril	2023-05-04T00:00:00	2024-11-06T15:00:00	1	Precipitación	0
146616	7	Sololá	701	Sololá	2	El tablón	4	Abril	2023-05-04T00:00:00	2024-11-06T15:00:00	8	Radiación solar	619
146617	7	Sololá	701	Sololá	2	El tablón	4	Abril	2023-05-04T00:00:00	2024-11-06T16:00:00	2	Temperatura media	16.8
146618	7	Sololá	701	Sololá	2	El tablón	4	Abril	2023-05-04T00:00:00	2024-11-06T16:00:00	4	Temperatura máxima	17.9
146619	7	Sololá	701	Sololá	2	El tablón	4	Abril	2023-05-04T00:00:00	2024-11-06T16:00:00	3	Temperatura mínima	16.7
146620	7	Sololá	701	Sololá	2	El tablón	4	Abril	2023-05-04T00:00:00	2024-11-06T16:00:00	5	Humedad	86
146621	7	Sololá	701	Sololá	2	El tablón	4	Abril	2023-05-04T00:00:00	2024-11-06T16:00:00	6	Velocidad del viento	6.4
146622	7	Sololá	701	Sololá	2	El tablón	4	Abril	2023-05-04T00:00:00	2024-11-06T16:00:00	7	Dirección del viento	6.44
146623	7	Sololá	701	Sololá	2	El tablón	4	Abril	2023-05-04T00:00:00	2024-11-06T16:00:00	1	Precipitación	0
146624	7	Sololá	701	Sololá	2	El tablón	4	Abril	2023-05-04T00:00:00	2024-11-06T16:00:00	8	Radiación solar	346
146625	7	Sololá	701	Sololá	2	El tablón	4	Abril	2023-05-04T00:00:00	2024-11-06T17:00:00	2	Temperatura media	15.6
146626	7	Sololá	701	Sololá	2	El tablón	4	Abril	2023-05-04T00:00:00	2024-11-06T17:00:00	4	Temperatura máxima	16.8
146627	7	Sololá	701	Sololá	2	El tablón	4	Abril	2023-05-04T00:00:00	2024-11-06T17:00:00	3	Temperatura mínima	15.6
146628	7	Sololá	701	Sololá	2	El tablón	4	Abril	2023-05-04T00:00:00	2024-11-06T17:00:00	5	Humedad	88
146629	7	Sololá	701	Sololá	2	El tablón	4	Abril	2023-05-04T00:00:00	2024-11-06T17:00:00	6	Velocidad del viento	4.8
146630	7	Sololá	701	Sololá	2	El tablón	4	Abril	2023-05-04T00:00:00	2024-11-06T17:00:00	7	Dirección del viento	4.83
146631	7	Sololá	701	Sololá	2	El tablón	4	Abril	2023-05-04T00:00:00	2024-11-06T17:00:00	1	Precipitación	0
146632	7	Sololá	701	Sololá	2	El tablón	4	Abril	2023-05-04T00:00:00	2024-11-06T17:00:00	8	Radiación solar	104
146633	7	Sololá	701	Sololá	2	El tablón	4	Abril	2023-05-04T00:00:00	2024-11-06T18:00:00	2	Temperatura media	15.4
146634	7	Sololá	701	Sololá	2	El tablón	4	Abril	2023-05-04T00:00:00	2024-11-06T18:00:00	4	Temperatura máxima	15.7
146635	7	Sololá	701	Sololá	2	El tablón	4	Abril	2023-05-04T00:00:00	2024-11-06T18:00:00	3	Temperatura mínima	15.3
146636	7	Sololá	701	Sololá	2	El tablón	4	Abril	2023-05-04T00:00:00	2024-11-06T18:00:00	5	Humedad	88
146637	7	Sololá	701	Sololá	2	El tablón	4	Abril	2023-05-04T00:00:00	2024-11-06T18:00:00	6	Velocidad del viento	3.2
146638	7	Sololá	701	Sololá	2	El tablón	4	Abril	2023-05-04T00:00:00	2024-11-06T18:00:00	7	Dirección del viento	3.22
146639	7	Sololá	701	Sololá	2	El tablón	4	Abril	2023-05-04T00:00:00	2024-11-06T18:00:00	1	Precipitación	0
146640	7	Sololá	701	Sololá	2	El tablón	4	Abril	2023-05-04T00:00:00	2024-11-06T18:00:00	8	Radiación solar	38
146641	7	Sololá	701	Sololá	2	El tablón	4	Abril	2023-05-04T00:00:00	2024-11-06T19:00:00	2	Temperatura media	15.1
146642	7	Sololá	701	Sololá	2	El tablón	4	Abril	2023-05-04T00:00:00	2024-11-06T19:00:00	4	Temperatura máxima	15.6
146643	7	Sololá	701	Sololá	2	El tablón	4	Abril	2023-05-04T00:00:00	2024-11-06T19:00:00	3	Temperatura mínima	15.1
146644	7	Sololá	701	Sololá	2	El tablón	4	Abril	2023-05-04T00:00:00	2024-11-06T19:00:00	5	Humedad	88
146645	7	Sololá	701	Sololá	2	El tablón	4	Abril	2023-05-04T00:00:00	2024-11-06T19:00:00	6	Velocidad del viento	1.6
146646	7	Sololá	701	Sololá	2	El tablón	4	Abril	2023-05-04T00:00:00	2024-11-06T19:00:00	7	Dirección del viento	1.61
146647	7	Sololá	701	Sololá	2	El tablón	4	Abril	2023-05-04T00:00:00	2024-11-06T19:00:00	1	Precipitación	0
146648	7	Sololá	701	Sololá	2	El tablón	4	Abril	2023-05-04T00:00:00	2024-11-06T19:00:00	8	Radiación solar	0
146649	7	Sololá	701	Sololá	2	El tablón	4	Abril	2023-05-04T00:00:00	2024-11-06T20:00:00	2	Temperatura media	14.9
146650	7	Sololá	701	Sololá	2	El tablón	4	Abril	2023-05-04T00:00:00	2024-11-06T20:00:00	4	Temperatura máxima	15.1
146651	7	Sololá	701	Sololá	2	El tablón	4	Abril	2023-05-04T00:00:00	2024-11-06T20:00:00	3	Temperatura mínima	14.9
146652	7	Sololá	701	Sololá	2	El tablón	4	Abril	2023-05-04T00:00:00	2024-11-06T20:00:00	5	Humedad	89
146653	7	Sololá	701	Sololá	2	El tablón	4	Abril	2023-05-04T00:00:00	2024-11-06T20:00:00	6	Velocidad del viento	0
146654	7	Sololá	701	Sololá	2	El tablón	4	Abril	2023-05-04T00:00:00	2024-11-06T20:00:00	7	Dirección del viento	0
146655	7	Sololá	701	Sololá	2	El tablón	4	Abril	2023-05-04T00:00:00	2024-11-06T20:00:00	1	Precipitación	0
146656	7	Sololá	701	Sololá	2	El tablón	4	Abril	2023-05-04T00:00:00	2024-11-06T20:00:00	8	Radiación solar	0
146657	7	Sololá	701	Sololá	2	El tablón	4	Abril	2023-05-04T00:00:00	2024-11-06T21:00:00	2	Temperatura media	13.8
146658	7	Sololá	701	Sololá	2	El tablón	4	Abril	2023-05-04T00:00:00	2024-11-06T21:00:00	4	Temperatura máxima	15
146659	7	Sololá	701	Sololá	2	El tablón	4	Abril	2023-05-04T00:00:00	2024-11-06T21:00:00	3	Temperatura mínima	13.8
146660	7	Sololá	701	Sololá	2	El tablón	4	Abril	2023-05-04T00:00:00	2024-11-06T21:00:00	5	Humedad	89
146661	7	Sololá	701	Sololá	2	El tablón	4	Abril	2023-05-04T00:00:00	2024-11-06T21:00:00	6	Velocidad del viento	0
146662	7	Sololá	701	Sololá	2	El tablón	4	Abril	2023-05-04T00:00:00	2024-11-06T21:00:00	7	Dirección del viento	0
146663	7	Sololá	701	Sololá	2	El tablón	4	Abril	2023-05-04T00:00:00	2024-11-06T21:00:00	1	Precipitación	0
146664	7	Sololá	701	Sololá	2	El tablón	4	Abril	2023-05-04T00:00:00	2024-11-06T21:00:00	8	Radiación solar	0
146665	7	Sololá	701	Sololá	2	El tablón	4	Abril	2023-05-04T00:00:00	2024-11-06T22:00:00	2	Temperatura media	13.1
146666	7	Sololá	701	Sololá	2	El tablón	4	Abril	2023-05-04T00:00:00	2024-11-06T22:00:00	4	Temperatura máxima	13.7
146667	7	Sololá	701	Sololá	2	El tablón	4	Abril	2023-05-04T00:00:00	2024-11-06T22:00:00	3	Temperatura mínima	13.1
146668	7	Sololá	701	Sololá	2	El tablón	4	Abril	2023-05-04T00:00:00	2024-11-06T22:00:00	5	Humedad	89
146669	7	Sololá	701	Sololá	2	El tablón	4	Abril	2023-05-04T00:00:00	2024-11-06T22:00:00	6	Velocidad del viento	0
146670	7	Sololá	701	Sololá	2	El tablón	4	Abril	2023-05-04T00:00:00	2024-11-06T22:00:00	7	Dirección del viento	0
146671	7	Sololá	701	Sololá	2	El tablón	4	Abril	2023-05-04T00:00:00	2024-11-06T22:00:00	1	Precipitación	0
146672	7	Sololá	701	Sololá	2	El tablón	4	Abril	2023-05-04T00:00:00	2024-11-06T22:00:00	8	Radiación solar	0
146673	7	Sololá	701	Sololá	2	El tablón	4	Abril	2023-05-04T00:00:00	2024-11-06T23:00:00	2	Temperatura media	12.2
146674	7	Sololá	701	Sololá	2	El tablón	4	Abril	2023-05-04T00:00:00	2024-11-06T23:00:00	4	Temperatura máxima	13.2
146675	7	Sololá	701	Sololá	2	El tablón	4	Abril	2023-05-04T00:00:00	2024-11-06T23:00:00	3	Temperatura mínima	12.2
146676	7	Sololá	701	Sololá	2	El tablón	4	Abril	2023-05-04T00:00:00	2024-11-06T23:00:00	5	Humedad	89
146677	7	Sololá	701	Sololá	2	El tablón	4	Abril	2023-05-04T00:00:00	2024-11-06T23:00:00	6	Velocidad del viento	1.6
146678	7	Sololá	701	Sololá	2	El tablón	4	Abril	2023-05-04T00:00:00	2024-11-06T23:00:00	7	Dirección del viento	1.61
146679	7	Sololá	701	Sololá	2	El tablón	4	Abril	2023-05-04T00:00:00	2024-11-06T23:00:00	1	Precipitación	0
146680	7	Sololá	701	Sololá	2	El tablón	4	Abril	2023-05-04T00:00:00	2024-11-06T23:00:00	8	Radiación solar	0
146681	7	Sololá	701	Sololá	2	El tablón	4	Abril	2023-06-04T00:00:00	2024-11-06T00:00:00	2	Temperatura media	11.6
146682	7	Sololá	701	Sololá	2	El tablón	4	Abril	2023-06-04T00:00:00	2024-11-06T00:00:00	4	Temperatura máxima	12.2
146683	7	Sololá	701	Sololá	2	El tablón	4	Abril	2023-06-04T00:00:00	2024-11-06T00:00:00	3	Temperatura mínima	11.6
146684	7	Sololá	701	Sololá	2	El tablón	4	Abril	2023-06-04T00:00:00	2024-11-06T00:00:00	5	Humedad	88
146685	7	Sololá	701	Sololá	2	El tablón	4	Abril	2023-06-04T00:00:00	2024-11-06T00:00:00	6	Velocidad del viento	3.2
146686	7	Sololá	701	Sololá	2	El tablón	4	Abril	2023-06-04T00:00:00	2024-11-06T00:00:00	7	Dirección del viento	3.22
146687	7	Sololá	701	Sololá	2	El tablón	4	Abril	2023-06-04T00:00:00	2024-11-06T00:00:00	1	Precipitación	0
146688	7	Sololá	701	Sololá	2	El tablón	4	Abril	2023-06-04T00:00:00	2024-11-06T00:00:00	8	Radiación solar	0
146689	7	Sololá	701	Sololá	2	El tablón	4	Abril	2023-06-04T00:00:00	2024-11-06T01:00:00	2	Temperatura media	11.4
146690	7	Sololá	701	Sololá	2	El tablón	4	Abril	2023-06-04T00:00:00	2024-11-06T01:00:00	4	Temperatura máxima	11.6
146691	7	Sololá	701	Sololá	2	El tablón	4	Abril	2023-06-04T00:00:00	2024-11-06T01:00:00	3	Temperatura mínima	11.4
146692	7	Sololá	701	Sololá	2	El tablón	4	Abril	2023-06-04T00:00:00	2024-11-06T01:00:00	5	Humedad	87
146693	7	Sololá	701	Sololá	2	El tablón	4	Abril	2023-06-04T00:00:00	2024-11-06T01:00:00	6	Velocidad del viento	0
146694	7	Sololá	701	Sololá	2	El tablón	4	Abril	2023-06-04T00:00:00	2024-11-06T01:00:00	7	Dirección del viento	0
146695	7	Sololá	701	Sololá	2	El tablón	4	Abril	2023-06-04T00:00:00	2024-11-06T01:00:00	1	Precipitación	0
146696	7	Sololá	701	Sololá	2	El tablón	4	Abril	2023-06-04T00:00:00	2024-11-06T01:00:00	8	Radiación solar	0
146697	7	Sololá	701	Sololá	2	El tablón	4	Abril	2023-06-04T00:00:00	2024-11-06T02:00:00	2	Temperatura media	12.4
146698	7	Sololá	701	Sololá	2	El tablón	4	Abril	2023-06-04T00:00:00	2024-11-06T02:00:00	4	Temperatura máxima	12.4
146699	7	Sololá	701	Sololá	2	El tablón	4	Abril	2023-06-04T00:00:00	2024-11-06T02:00:00	3	Temperatura mínima	11.4
146700	7	Sololá	701	Sololá	2	El tablón	4	Abril	2023-06-04T00:00:00	2024-11-06T02:00:00	5	Humedad	88
146701	7	Sololá	701	Sololá	2	El tablón	4	Abril	2023-06-04T00:00:00	2024-11-06T02:00:00	6	Velocidad del viento	1.6
146702	7	Sololá	701	Sololá	2	El tablón	4	Abril	2023-06-04T00:00:00	2024-11-06T02:00:00	7	Dirección del viento	1.61
146703	7	Sololá	701	Sololá	2	El tablón	4	Abril	2023-06-04T00:00:00	2024-11-06T02:00:00	1	Precipitación	0
146704	7	Sololá	701	Sololá	2	El tablón	4	Abril	2023-06-04T00:00:00	2024-11-06T02:00:00	8	Radiación solar	0
146705	7	Sololá	701	Sololá	2	El tablón	4	Abril	2023-06-04T00:00:00	2024-11-06T03:00:00	2	Temperatura media	12.1
146706	7	Sololá	701	Sololá	2	El tablón	4	Abril	2023-06-04T00:00:00	2024-11-06T03:00:00	4	Temperatura máxima	12.4
146707	7	Sololá	701	Sololá	2	El tablón	4	Abril	2023-06-04T00:00:00	2024-11-06T03:00:00	3	Temperatura mínima	12
146708	7	Sololá	701	Sololá	2	El tablón	4	Abril	2023-06-04T00:00:00	2024-11-06T03:00:00	5	Humedad	88
146709	7	Sololá	701	Sololá	2	El tablón	4	Abril	2023-06-04T00:00:00	2024-11-06T03:00:00	6	Velocidad del viento	1.6
146710	7	Sololá	701	Sololá	2	El tablón	4	Abril	2023-06-04T00:00:00	2024-11-06T03:00:00	7	Dirección del viento	1.61
146711	7	Sololá	701	Sololá	2	El tablón	4	Abril	2023-06-04T00:00:00	2024-11-06T03:00:00	1	Precipitación	0
146712	7	Sololá	701	Sololá	2	El tablón	4	Abril	2023-06-04T00:00:00	2024-11-06T03:00:00	8	Radiación solar	0
146713	7	Sololá	701	Sololá	2	El tablón	4	Abril	2023-06-04T00:00:00	2024-11-06T04:00:00	2	Temperatura media	11.4
146714	7	Sololá	701	Sololá	2	El tablón	4	Abril	2023-06-04T00:00:00	2024-11-06T04:00:00	4	Temperatura máxima	12.1
146715	7	Sololá	701	Sololá	2	El tablón	4	Abril	2023-06-04T00:00:00	2024-11-06T04:00:00	3	Temperatura mínima	11.4
146716	7	Sololá	701	Sololá	2	El tablón	4	Abril	2023-06-04T00:00:00	2024-11-06T04:00:00	5	Humedad	87
146717	7	Sololá	701	Sololá	2	El tablón	4	Abril	2023-06-04T00:00:00	2024-11-06T04:00:00	6	Velocidad del viento	1.6
146718	7	Sololá	701	Sololá	2	El tablón	4	Abril	2023-06-04T00:00:00	2024-11-06T04:00:00	7	Dirección del viento	1.61
146719	7	Sololá	701	Sololá	2	El tablón	4	Abril	2023-06-04T00:00:00	2024-11-06T04:00:00	1	Precipitación	0
146720	7	Sololá	701	Sololá	2	El tablón	4	Abril	2023-06-04T00:00:00	2024-11-06T04:00:00	8	Radiación solar	0
146721	7	Sololá	701	Sololá	2	El tablón	4	Abril	2023-06-04T00:00:00	2024-11-06T05:00:00	2	Temperatura media	11
146722	7	Sololá	701	Sololá	2	El tablón	4	Abril	2023-06-04T00:00:00	2024-11-06T05:00:00	4	Temperatura máxima	11.4
146723	7	Sololá	701	Sololá	2	El tablón	4	Abril	2023-06-04T00:00:00	2024-11-06T05:00:00	3	Temperatura mínima	11
146724	7	Sololá	701	Sololá	2	El tablón	4	Abril	2023-06-04T00:00:00	2024-11-06T05:00:00	5	Humedad	86
146725	7	Sololá	701	Sololá	2	El tablón	4	Abril	2023-06-04T00:00:00	2024-11-06T05:00:00	6	Velocidad del viento	0
146726	7	Sololá	701	Sololá	2	El tablón	4	Abril	2023-06-04T00:00:00	2024-11-06T05:00:00	7	Dirección del viento	0
146727	7	Sololá	701	Sololá	2	El tablón	4	Abril	2023-06-04T00:00:00	2024-11-06T05:00:00	1	Precipitación	0
146728	7	Sololá	701	Sololá	2	El tablón	4	Abril	2023-06-04T00:00:00	2024-11-06T05:00:00	8	Radiación solar	0
146729	7	Sololá	701	Sololá	2	El tablón	4	Abril	2023-06-04T00:00:00	2024-11-06T06:00:00	2	Temperatura media	11.1
146730	7	Sololá	701	Sololá	2	El tablón	4	Abril	2023-06-04T00:00:00	2024-11-06T06:00:00	4	Temperatura máxima	11.1
146731	7	Sololá	701	Sololá	2	El tablón	4	Abril	2023-06-04T00:00:00	2024-11-06T06:00:00	3	Temperatura mínima	10.8
146732	7	Sololá	701	Sololá	2	El tablón	4	Abril	2023-06-04T00:00:00	2024-11-06T06:00:00	5	Humedad	87
146733	7	Sololá	701	Sololá	2	El tablón	4	Abril	2023-06-04T00:00:00	2024-11-06T06:00:00	6	Velocidad del viento	0
146734	7	Sololá	701	Sololá	2	El tablón	4	Abril	2023-06-04T00:00:00	2024-11-06T06:00:00	7	Dirección del viento	0
146735	7	Sololá	701	Sololá	2	El tablón	4	Abril	2023-06-04T00:00:00	2024-11-06T06:00:00	1	Precipitación	0
146736	7	Sololá	701	Sololá	2	El tablón	4	Abril	2023-06-04T00:00:00	2024-11-06T06:00:00	8	Radiación solar	0
146737	7	Sololá	701	Sololá	2	El tablón	4	Abril	2023-06-04T00:00:00	2024-11-06T07:00:00	2	Temperatura media	11.2
146738	7	Sololá	701	Sololá	2	El tablón	4	Abril	2023-06-04T00:00:00	2024-11-06T07:00:00	4	Temperatura máxima	11.3
146739	7	Sololá	701	Sololá	2	El tablón	4	Abril	2023-06-04T00:00:00	2024-11-06T07:00:00	3	Temperatura mínima	11.1
146740	7	Sololá	701	Sololá	2	El tablón	4	Abril	2023-06-04T00:00:00	2024-11-06T07:00:00	5	Humedad	85
146741	7	Sololá	701	Sololá	2	El tablón	4	Abril	2023-06-04T00:00:00	2024-11-06T07:00:00	6	Velocidad del viento	1.6
146742	7	Sololá	701	Sololá	2	El tablón	4	Abril	2023-06-04T00:00:00	2024-11-06T07:00:00	7	Dirección del viento	1.61
146743	7	Sololá	701	Sololá	2	El tablón	4	Abril	2023-06-04T00:00:00	2024-11-06T07:00:00	1	Precipitación	0
146744	7	Sololá	701	Sololá	2	El tablón	4	Abril	2023-06-04T00:00:00	2024-11-06T07:00:00	8	Radiación solar	20
146745	7	Sololá	701	Sololá	2	El tablón	4	Abril	2023-06-04T00:00:00	2024-11-06T08:00:00	2	Temperatura media	13.6
146746	7	Sololá	701	Sololá	2	El tablón	4	Abril	2023-06-04T00:00:00	2024-11-06T08:00:00	4	Temperatura máxima	13.6
146747	7	Sololá	701	Sololá	2	El tablón	4	Abril	2023-06-04T00:00:00	2024-11-06T08:00:00	3	Temperatura mínima	11.2
146748	7	Sololá	701	Sololá	2	El tablón	4	Abril	2023-06-04T00:00:00	2024-11-06T08:00:00	5	Humedad	87
146749	7	Sololá	701	Sololá	2	El tablón	4	Abril	2023-06-04T00:00:00	2024-11-06T08:00:00	6	Velocidad del viento	0
146750	7	Sololá	701	Sololá	2	El tablón	4	Abril	2023-06-04T00:00:00	2024-11-06T08:00:00	7	Dirección del viento	0
146751	7	Sololá	701	Sololá	2	El tablón	4	Abril	2023-06-04T00:00:00	2024-11-06T08:00:00	1	Precipitación	0
146752	7	Sololá	701	Sololá	2	El tablón	4	Abril	2023-06-04T00:00:00	2024-11-06T08:00:00	8	Radiación solar	137
146753	7	Sololá	701	Sololá	2	El tablón	4	Abril	2023-06-04T00:00:00	2024-11-06T09:00:00	2	Temperatura media	15
146754	7	Sololá	701	Sololá	2	El tablón	4	Abril	2023-06-04T00:00:00	2024-11-06T09:00:00	4	Temperatura máxima	15.1
146755	7	Sololá	701	Sololá	2	El tablón	4	Abril	2023-06-04T00:00:00	2024-11-06T09:00:00	3	Temperatura mínima	13.6
146756	7	Sololá	701	Sololá	2	El tablón	4	Abril	2023-06-04T00:00:00	2024-11-06T09:00:00	5	Humedad	81
146757	7	Sololá	701	Sololá	2	El tablón	4	Abril	2023-06-04T00:00:00	2024-11-06T09:00:00	6	Velocidad del viento	3.2
146758	7	Sololá	701	Sololá	2	El tablón	4	Abril	2023-06-04T00:00:00	2024-11-06T09:00:00	7	Dirección del viento	3.22
146759	7	Sololá	701	Sololá	2	El tablón	4	Abril	2023-06-04T00:00:00	2024-11-06T09:00:00	1	Precipitación	0
146760	7	Sololá	701	Sololá	2	El tablón	4	Abril	2023-06-04T00:00:00	2024-11-06T09:00:00	8	Radiación solar	322
146761	7	Sololá	701	Sololá	2	El tablón	4	Abril	2023-06-04T00:00:00	2024-11-06T10:00:00	2	Temperatura media	17.4
146762	7	Sololá	701	Sololá	2	El tablón	4	Abril	2023-06-04T00:00:00	2024-11-06T10:00:00	4	Temperatura máxima	17.4
146763	7	Sololá	701	Sololá	2	El tablón	4	Abril	2023-06-04T00:00:00	2024-11-06T10:00:00	3	Temperatura mínima	15
146764	7	Sololá	701	Sololá	2	El tablón	4	Abril	2023-06-04T00:00:00	2024-11-06T10:00:00	5	Humedad	77
146765	7	Sololá	701	Sololá	2	El tablón	4	Abril	2023-06-04T00:00:00	2024-11-06T10:00:00	6	Velocidad del viento	6.4
146766	7	Sololá	701	Sololá	2	El tablón	4	Abril	2023-06-04T00:00:00	2024-11-06T10:00:00	7	Dirección del viento	6.44
146767	7	Sololá	701	Sololá	2	El tablón	4	Abril	2023-06-04T00:00:00	2024-11-06T10:00:00	1	Precipitación	0
146768	7	Sololá	701	Sololá	2	El tablón	4	Abril	2023-06-04T00:00:00	2024-11-06T10:00:00	8	Radiación solar	666
146769	7	Sololá	701	Sololá	2	El tablón	4	Abril	2023-06-04T00:00:00	2024-11-06T11:00:00	2	Temperatura media	17.5
146770	7	Sololá	701	Sololá	2	El tablón	4	Abril	2023-06-04T00:00:00	2024-11-06T11:00:00	4	Temperatura máxima	17.8
146771	7	Sololá	701	Sololá	2	El tablón	4	Abril	2023-06-04T00:00:00	2024-11-06T11:00:00	3	Temperatura mínima	17
146772	7	Sololá	701	Sololá	2	El tablón	4	Abril	2023-06-04T00:00:00	2024-11-06T11:00:00	5	Humedad	77
146773	7	Sololá	701	Sololá	2	El tablón	4	Abril	2023-06-04T00:00:00	2024-11-06T11:00:00	6	Velocidad del viento	8
146774	7	Sololá	701	Sololá	2	El tablón	4	Abril	2023-06-04T00:00:00	2024-11-06T11:00:00	7	Dirección del viento	8.05
146775	7	Sololá	701	Sololá	2	El tablón	4	Abril	2023-06-04T00:00:00	2024-11-06T11:00:00	1	Precipitación	0
146776	7	Sololá	701	Sololá	2	El tablón	4	Abril	2023-06-04T00:00:00	2024-11-06T11:00:00	8	Radiación solar	803
146777	7	Sololá	701	Sololá	2	El tablón	4	Abril	2023-06-04T00:00:00	2024-11-06T12:00:00	2	Temperatura media	17.3
146778	7	Sololá	701	Sololá	2	El tablón	4	Abril	2023-06-04T00:00:00	2024-11-06T12:00:00	4	Temperatura máxima	17.6
146779	7	Sololá	701	Sololá	2	El tablón	4	Abril	2023-06-04T00:00:00	2024-11-06T12:00:00	3	Temperatura mínima	16.9
146780	7	Sololá	701	Sololá	2	El tablón	4	Abril	2023-06-04T00:00:00	2024-11-06T12:00:00	5	Humedad	83
146781	7	Sololá	701	Sololá	2	El tablón	4	Abril	2023-06-04T00:00:00	2024-11-06T12:00:00	6	Velocidad del viento	9.7
146782	7	Sololá	701	Sololá	2	El tablón	4	Abril	2023-06-04T00:00:00	2024-11-06T12:00:00	7	Dirección del viento	9.66
146783	7	Sololá	701	Sololá	2	El tablón	4	Abril	2023-06-04T00:00:00	2024-11-06T12:00:00	1	Precipitación	0
146784	7	Sololá	701	Sololá	2	El tablón	4	Abril	2023-06-04T00:00:00	2024-11-06T12:00:00	8	Radiación solar	918
146785	7	Sololá	701	Sololá	2	El tablón	4	Abril	2023-06-04T00:00:00	2024-11-06T13:00:00	2	Temperatura media	17.2
146786	7	Sololá	701	Sololá	2	El tablón	4	Abril	2023-06-04T00:00:00	2024-11-06T13:00:00	4	Temperatura máxima	18.1
146787	7	Sololá	701	Sololá	2	El tablón	4	Abril	2023-06-04T00:00:00	2024-11-06T13:00:00	3	Temperatura mínima	16.8
146788	7	Sololá	701	Sololá	2	El tablón	4	Abril	2023-06-04T00:00:00	2024-11-06T13:00:00	5	Humedad	83
146789	7	Sololá	701	Sololá	2	El tablón	4	Abril	2023-06-04T00:00:00	2024-11-06T13:00:00	6	Velocidad del viento	9.7
146790	7	Sololá	701	Sololá	2	El tablón	4	Abril	2023-06-04T00:00:00	2024-11-06T13:00:00	7	Dirección del viento	9.66
146791	7	Sololá	701	Sololá	2	El tablón	4	Abril	2023-06-04T00:00:00	2024-11-06T13:00:00	1	Precipitación	0
146792	7	Sololá	701	Sololá	2	El tablón	4	Abril	2023-06-04T00:00:00	2024-11-06T13:00:00	8	Radiación solar	800
146793	7	Sololá	701	Sololá	2	El tablón	4	Abril	2023-06-04T00:00:00	2024-11-06T14:00:00	2	Temperatura media	17.8
146794	7	Sololá	701	Sololá	2	El tablón	4	Abril	2023-06-04T00:00:00	2024-11-06T14:00:00	4	Temperatura máxima	17.9
146795	7	Sololá	701	Sololá	2	El tablón	4	Abril	2023-06-04T00:00:00	2024-11-06T14:00:00	3	Temperatura mínima	17.1
146796	7	Sololá	701	Sololá	2	El tablón	4	Abril	2023-06-04T00:00:00	2024-11-06T14:00:00	5	Humedad	82
146797	7	Sololá	701	Sololá	2	El tablón	4	Abril	2023-06-04T00:00:00	2024-11-06T14:00:00	6	Velocidad del viento	8
146798	7	Sololá	701	Sololá	2	El tablón	4	Abril	2023-06-04T00:00:00	2024-11-06T14:00:00	7	Dirección del viento	8.05
146799	7	Sololá	701	Sololá	2	El tablón	4	Abril	2023-06-04T00:00:00	2024-11-06T14:00:00	1	Precipitación	0
146800	7	Sololá	701	Sololá	2	El tablón	4	Abril	2023-06-04T00:00:00	2024-11-06T14:00:00	8	Radiación solar	666
146801	7	Sololá	701	Sololá	2	El tablón	4	Abril	2023-06-04T00:00:00	2024-11-06T15:00:00	2	Temperatura media	17.4
146802	7	Sololá	701	Sololá	2	El tablón	4	Abril	2023-06-04T00:00:00	2024-11-06T15:00:00	4	Temperatura máxima	18
146803	7	Sololá	701	Sololá	2	El tablón	4	Abril	2023-06-04T00:00:00	2024-11-06T15:00:00	3	Temperatura mínima	16.6
146804	7	Sololá	701	Sololá	2	El tablón	4	Abril	2023-06-04T00:00:00	2024-11-06T15:00:00	5	Humedad	84
146805	7	Sololá	701	Sololá	2	El tablón	4	Abril	2023-06-04T00:00:00	2024-11-06T15:00:00	6	Velocidad del viento	8
146806	7	Sololá	701	Sololá	2	El tablón	4	Abril	2023-06-04T00:00:00	2024-11-06T15:00:00	7	Dirección del viento	8.05
146807	7	Sololá	701	Sololá	2	El tablón	4	Abril	2023-06-04T00:00:00	2024-11-06T15:00:00	1	Precipitación	0
146808	7	Sololá	701	Sololá	2	El tablón	4	Abril	2023-06-04T00:00:00	2024-11-06T15:00:00	8	Radiación solar	464
146809	7	Sololá	701	Sololá	2	El tablón	4	Abril	2023-06-04T00:00:00	2024-11-06T16:00:00	2	Temperatura media	17.2
146810	7	Sololá	701	Sololá	2	El tablón	4	Abril	2023-06-04T00:00:00	2024-11-06T16:00:00	4	Temperatura máxima	17.6
146811	7	Sololá	701	Sololá	2	El tablón	4	Abril	2023-06-04T00:00:00	2024-11-06T16:00:00	3	Temperatura mínima	16.7
146812	7	Sololá	701	Sololá	2	El tablón	4	Abril	2023-06-04T00:00:00	2024-11-06T16:00:00	5	Humedad	86
146813	7	Sololá	701	Sololá	2	El tablón	4	Abril	2023-06-04T00:00:00	2024-11-06T16:00:00	6	Velocidad del viento	6.4
146814	7	Sololá	701	Sololá	2	El tablón	4	Abril	2023-06-04T00:00:00	2024-11-06T16:00:00	7	Dirección del viento	6.44
146815	7	Sololá	701	Sololá	2	El tablón	4	Abril	2023-06-04T00:00:00	2024-11-06T16:00:00	1	Precipitación	0
146816	7	Sololá	701	Sololá	2	El tablón	4	Abril	2023-06-04T00:00:00	2024-11-06T16:00:00	8	Radiación solar	367
146817	7	Sololá	701	Sololá	2	El tablón	4	Abril	2023-06-04T00:00:00	2024-11-06T17:00:00	2	Temperatura media	17.2
146818	7	Sololá	701	Sololá	2	El tablón	4	Abril	2023-06-04T00:00:00	2024-11-06T17:00:00	4	Temperatura máxima	17.4
146819	7	Sololá	701	Sololá	2	El tablón	4	Abril	2023-06-04T00:00:00	2024-11-06T17:00:00	3	Temperatura mínima	16.4
146820	7	Sololá	701	Sololá	2	El tablón	4	Abril	2023-06-04T00:00:00	2024-11-06T17:00:00	5	Humedad	85
146821	7	Sololá	701	Sololá	2	El tablón	4	Abril	2023-06-04T00:00:00	2024-11-06T17:00:00	6	Velocidad del viento	4.8
146822	7	Sololá	701	Sololá	2	El tablón	4	Abril	2023-06-04T00:00:00	2024-11-06T17:00:00	7	Dirección del viento	4.83
146823	7	Sololá	701	Sololá	2	El tablón	4	Abril	2023-06-04T00:00:00	2024-11-06T17:00:00	1	Precipitación	0
146824	7	Sololá	701	Sololá	2	El tablón	4	Abril	2023-06-04T00:00:00	2024-11-06T17:00:00	8	Radiación solar	299
146825	7	Sololá	701	Sololá	2	El tablón	4	Abril	2023-06-04T00:00:00	2024-11-06T18:00:00	2	Temperatura media	15.1
146826	7	Sololá	701	Sololá	2	El tablón	4	Abril	2023-06-04T00:00:00	2024-11-06T18:00:00	4	Temperatura máxima	17.2
146827	7	Sololá	701	Sololá	2	El tablón	4	Abril	2023-06-04T00:00:00	2024-11-06T18:00:00	3	Temperatura mínima	15.1
146828	7	Sololá	701	Sololá	2	El tablón	4	Abril	2023-06-04T00:00:00	2024-11-06T18:00:00	5	Humedad	88
146829	7	Sololá	701	Sololá	2	El tablón	4	Abril	2023-06-04T00:00:00	2024-11-06T18:00:00	6	Velocidad del viento	4.8
146830	7	Sololá	701	Sololá	2	El tablón	4	Abril	2023-06-04T00:00:00	2024-11-06T18:00:00	7	Dirección del viento	4.83
146831	7	Sololá	701	Sololá	2	El tablón	4	Abril	2023-06-04T00:00:00	2024-11-06T18:00:00	1	Precipitación	0
146832	7	Sololá	701	Sololá	2	El tablón	4	Abril	2023-06-04T00:00:00	2024-11-06T18:00:00	8	Radiación solar	97
146833	7	Sololá	701	Sololá	2	El tablón	4	Abril	2023-06-04T00:00:00	2024-11-06T19:00:00	2	Temperatura media	14.8
146834	7	Sololá	701	Sololá	2	El tablón	4	Abril	2023-06-04T00:00:00	2024-11-06T19:00:00	4	Temperatura máxima	15.1
146835	7	Sololá	701	Sololá	2	El tablón	4	Abril	2023-06-04T00:00:00	2024-11-06T19:00:00	3	Temperatura mínima	14.6
146836	7	Sololá	701	Sololá	2	El tablón	4	Abril	2023-06-04T00:00:00	2024-11-06T19:00:00	5	Humedad	88
146837	7	Sololá	701	Sololá	2	El tablón	4	Abril	2023-06-04T00:00:00	2024-11-06T19:00:00	6	Velocidad del viento	3.2
146838	7	Sololá	701	Sololá	2	El tablón	4	Abril	2023-06-04T00:00:00	2024-11-06T19:00:00	7	Dirección del viento	3.22
146839	7	Sololá	701	Sololá	2	El tablón	4	Abril	2023-06-04T00:00:00	2024-11-06T19:00:00	1	Precipitación	0
146840	7	Sololá	701	Sololá	2	El tablón	4	Abril	2023-06-04T00:00:00	2024-11-06T19:00:00	8	Radiación solar	0
146841	7	Sololá	701	Sololá	2	El tablón	4	Abril	2023-06-04T00:00:00	2024-11-06T20:00:00	2	Temperatura media	15.4
146842	7	Sololá	701	Sololá	2	El tablón	4	Abril	2023-06-04T00:00:00	2024-11-06T20:00:00	4	Temperatura máxima	15.7
146843	7	Sololá	701	Sololá	2	El tablón	4	Abril	2023-06-04T00:00:00	2024-11-06T20:00:00	3	Temperatura mínima	14.8
146844	7	Sololá	701	Sololá	2	El tablón	4	Abril	2023-06-04T00:00:00	2024-11-06T20:00:00	5	Humedad	81
146845	7	Sololá	701	Sololá	2	El tablón	4	Abril	2023-06-04T00:00:00	2024-11-06T20:00:00	6	Velocidad del viento	4.8
146846	7	Sololá	701	Sololá	2	El tablón	4	Abril	2023-06-04T00:00:00	2024-11-06T20:00:00	7	Dirección del viento	4.83
146847	7	Sololá	701	Sololá	2	El tablón	4	Abril	2023-06-04T00:00:00	2024-11-06T20:00:00	1	Precipitación	0
146848	7	Sololá	701	Sololá	2	El tablón	4	Abril	2023-06-04T00:00:00	2024-11-06T20:00:00	8	Radiación solar	0
146849	7	Sololá	701	Sololá	2	El tablón	4	Abril	2023-06-04T00:00:00	2024-11-06T21:00:00	2	Temperatura media	14.2
146850	7	Sololá	701	Sololá	2	El tablón	4	Abril	2023-06-04T00:00:00	2024-11-06T21:00:00	4	Temperatura máxima	15.4
146851	7	Sololá	701	Sololá	2	El tablón	4	Abril	2023-06-04T00:00:00	2024-11-06T21:00:00	3	Temperatura mínima	14.2
146852	7	Sololá	701	Sololá	2	El tablón	4	Abril	2023-06-04T00:00:00	2024-11-06T21:00:00	5	Humedad	84
146853	7	Sololá	701	Sololá	2	El tablón	4	Abril	2023-06-04T00:00:00	2024-11-06T21:00:00	6	Velocidad del viento	8
146854	7	Sololá	701	Sololá	2	El tablón	4	Abril	2023-06-04T00:00:00	2024-11-06T21:00:00	7	Dirección del viento	8.05
146855	7	Sololá	701	Sololá	2	El tablón	4	Abril	2023-06-04T00:00:00	2024-11-06T21:00:00	1	Precipitación	0
146856	7	Sololá	701	Sololá	2	El tablón	4	Abril	2023-06-04T00:00:00	2024-11-06T21:00:00	8	Radiación solar	0
146857	7	Sololá	701	Sololá	2	El tablón	4	Abril	2023-06-04T00:00:00	2024-11-06T22:00:00	2	Temperatura media	13.8
146858	7	Sololá	701	Sololá	2	El tablón	4	Abril	2023-06-04T00:00:00	2024-11-06T22:00:00	4	Temperatura máxima	14.2
146859	7	Sololá	701	Sololá	2	El tablón	4	Abril	2023-06-04T00:00:00	2024-11-06T22:00:00	3	Temperatura mínima	13.8
146860	7	Sololá	701	Sololá	2	El tablón	4	Abril	2023-06-04T00:00:00	2024-11-06T22:00:00	5	Humedad	86
146861	7	Sololá	701	Sololá	2	El tablón	4	Abril	2023-06-04T00:00:00	2024-11-06T22:00:00	6	Velocidad del viento	8
146862	7	Sololá	701	Sololá	2	El tablón	4	Abril	2023-06-04T00:00:00	2024-11-06T22:00:00	7	Dirección del viento	8.05
146863	7	Sololá	701	Sololá	2	El tablón	4	Abril	2023-06-04T00:00:00	2024-11-06T22:00:00	1	Precipitación	0
146864	7	Sololá	701	Sololá	2	El tablón	4	Abril	2023-06-04T00:00:00	2024-11-06T22:00:00	8	Radiación solar	0
146865	7	Sololá	701	Sololá	2	El tablón	4	Abril	2023-06-04T00:00:00	2024-11-06T23:00:00	2	Temperatura media	13.4
146866	7	Sololá	701	Sololá	2	El tablón	4	Abril	2023-06-04T00:00:00	2024-11-06T23:00:00	4	Temperatura máxima	13.8
146867	7	Sololá	701	Sololá	2	El tablón	4	Abril	2023-06-04T00:00:00	2024-11-06T23:00:00	3	Temperatura mínima	13.3
146868	7	Sololá	701	Sololá	2	El tablón	4	Abril	2023-06-04T00:00:00	2024-11-06T23:00:00	5	Humedad	85
146869	7	Sololá	701	Sololá	2	El tablón	4	Abril	2023-06-04T00:00:00	2024-11-06T23:00:00	6	Velocidad del viento	6.4
146870	7	Sololá	701	Sololá	2	El tablón	4	Abril	2023-06-04T00:00:00	2024-11-06T23:00:00	7	Dirección del viento	6.44
146871	7	Sololá	701	Sololá	2	El tablón	4	Abril	2023-06-04T00:00:00	2024-11-06T23:00:00	1	Precipitación	0
146872	7	Sololá	701	Sololá	2	El tablón	4	Abril	2023-06-04T00:00:00	2024-11-06T23:00:00	8	Radiación solar	0
146873	7	Sololá	701	Sololá	2	El tablón	4	Abril	2023-07-04T00:00:00	2024-11-06T00:00:00	2	Temperatura media	13.3
146874	7	Sololá	701	Sololá	2	El tablón	4	Abril	2023-07-04T00:00:00	2024-11-06T00:00:00	4	Temperatura máxima	13.5
146875	7	Sololá	701	Sololá	2	El tablón	4	Abril	2023-07-04T00:00:00	2024-11-06T00:00:00	3	Temperatura mínima	13.2
146876	7	Sololá	701	Sololá	2	El tablón	4	Abril	2023-07-04T00:00:00	2024-11-06T00:00:00	5	Humedad	86
146877	7	Sololá	701	Sololá	2	El tablón	4	Abril	2023-07-04T00:00:00	2024-11-06T00:00:00	6	Velocidad del viento	4.8
146878	7	Sololá	701	Sololá	2	El tablón	4	Abril	2023-07-04T00:00:00	2024-11-06T00:00:00	7	Dirección del viento	4.83
146879	7	Sololá	701	Sololá	2	El tablón	4	Abril	2023-07-04T00:00:00	2024-11-06T00:00:00	1	Precipitación	0
146880	7	Sololá	701	Sololá	2	El tablón	4	Abril	2023-07-04T00:00:00	2024-11-06T00:00:00	8	Radiación solar	0
146881	7	Sololá	701	Sololá	2	El tablón	4	Abril	2023-07-04T00:00:00	2024-11-06T01:00:00	2	Temperatura media	13.2
146882	7	Sololá	701	Sololá	2	El tablón	4	Abril	2023-07-04T00:00:00	2024-11-06T01:00:00	4	Temperatura máxima	13.3
146883	7	Sololá	701	Sololá	2	El tablón	4	Abril	2023-07-04T00:00:00	2024-11-06T01:00:00	3	Temperatura mínima	13.2
146884	7	Sololá	701	Sololá	2	El tablón	4	Abril	2023-07-04T00:00:00	2024-11-06T01:00:00	5	Humedad	88
146885	7	Sololá	701	Sololá	2	El tablón	4	Abril	2023-07-04T00:00:00	2024-11-06T01:00:00	6	Velocidad del viento	4.8
146886	7	Sololá	701	Sololá	2	El tablón	4	Abril	2023-07-04T00:00:00	2024-11-06T01:00:00	7	Dirección del viento	4.83
146887	7	Sololá	701	Sololá	2	El tablón	4	Abril	2023-07-04T00:00:00	2024-11-06T01:00:00	1	Precipitación	0
146888	7	Sololá	701	Sololá	2	El tablón	4	Abril	2023-07-04T00:00:00	2024-11-06T01:00:00	8	Radiación solar	0
146889	7	Sololá	701	Sololá	2	El tablón	4	Abril	2023-07-04T00:00:00	2024-11-06T02:00:00	2	Temperatura media	12.9
146890	7	Sololá	701	Sololá	2	El tablón	4	Abril	2023-07-04T00:00:00	2024-11-06T02:00:00	4	Temperatura máxima	13.2
146891	7	Sololá	701	Sololá	2	El tablón	4	Abril	2023-07-04T00:00:00	2024-11-06T02:00:00	3	Temperatura mínima	12.9
146892	7	Sololá	701	Sololá	2	El tablón	4	Abril	2023-07-04T00:00:00	2024-11-06T02:00:00	5	Humedad	87
146893	7	Sololá	701	Sololá	2	El tablón	4	Abril	2023-07-04T00:00:00	2024-11-06T02:00:00	6	Velocidad del viento	4.8
146894	7	Sololá	701	Sololá	2	El tablón	4	Abril	2023-07-04T00:00:00	2024-11-06T02:00:00	7	Dirección del viento	4.83
146895	7	Sololá	701	Sololá	2	El tablón	4	Abril	2023-07-04T00:00:00	2024-11-06T02:00:00	1	Precipitación	0
146896	7	Sololá	701	Sololá	2	El tablón	4	Abril	2023-07-04T00:00:00	2024-11-06T02:00:00	8	Radiación solar	0
146897	7	Sololá	701	Sololá	2	El tablón	4	Abril	2023-07-04T00:00:00	2024-11-06T03:00:00	2	Temperatura media	12.1
146898	7	Sololá	701	Sololá	2	El tablón	4	Abril	2023-07-04T00:00:00	2024-11-06T03:00:00	4	Temperatura máxima	12.9
146899	7	Sololá	701	Sololá	2	El tablón	4	Abril	2023-07-04T00:00:00	2024-11-06T03:00:00	3	Temperatura mínima	12.1
146900	7	Sololá	701	Sololá	2	El tablón	4	Abril	2023-07-04T00:00:00	2024-11-06T03:00:00	5	Humedad	88
146901	7	Sololá	701	Sololá	2	El tablón	4	Abril	2023-07-04T00:00:00	2024-11-06T03:00:00	6	Velocidad del viento	4.8
146902	7	Sololá	701	Sololá	2	El tablón	4	Abril	2023-07-04T00:00:00	2024-11-06T03:00:00	7	Dirección del viento	4.83
146903	7	Sololá	701	Sololá	2	El tablón	4	Abril	2023-07-04T00:00:00	2024-11-06T03:00:00	1	Precipitación	0
146904	7	Sololá	701	Sololá	2	El tablón	4	Abril	2023-07-04T00:00:00	2024-11-06T03:00:00	8	Radiación solar	0
146905	7	Sololá	701	Sololá	2	El tablón	4	Abril	2023-07-04T00:00:00	2024-11-06T04:00:00	2	Temperatura media	11.2
146906	7	Sololá	701	Sololá	2	El tablón	4	Abril	2023-07-04T00:00:00	2024-11-06T04:00:00	4	Temperatura máxima	12.1
146907	7	Sololá	701	Sololá	2	El tablón	4	Abril	2023-07-04T00:00:00	2024-11-06T04:00:00	3	Temperatura mínima	11.2
146908	7	Sololá	701	Sololá	2	El tablón	4	Abril	2023-07-04T00:00:00	2024-11-06T04:00:00	5	Humedad	88
146909	7	Sololá	701	Sololá	2	El tablón	4	Abril	2023-07-04T00:00:00	2024-11-06T04:00:00	6	Velocidad del viento	4.8
146910	7	Sololá	701	Sololá	2	El tablón	4	Abril	2023-07-04T00:00:00	2024-11-06T04:00:00	7	Dirección del viento	4.83
146911	7	Sololá	701	Sololá	2	El tablón	4	Abril	2023-07-04T00:00:00	2024-11-06T04:00:00	1	Precipitación	0
146912	7	Sololá	701	Sololá	2	El tablón	4	Abril	2023-07-04T00:00:00	2024-11-06T04:00:00	8	Radiación solar	0
146913	7	Sololá	701	Sololá	2	El tablón	4	Abril	2023-07-04T00:00:00	2024-11-06T05:00:00	2	Temperatura media	10.7
146914	7	Sololá	701	Sololá	2	El tablón	4	Abril	2023-07-04T00:00:00	2024-11-06T05:00:00	4	Temperatura máxima	11.1
146915	7	Sololá	701	Sololá	2	El tablón	4	Abril	2023-07-04T00:00:00	2024-11-06T05:00:00	3	Temperatura mínima	10.7
146916	7	Sololá	701	Sololá	2	El tablón	4	Abril	2023-07-04T00:00:00	2024-11-06T05:00:00	5	Humedad	88
146917	7	Sololá	701	Sololá	2	El tablón	4	Abril	2023-07-04T00:00:00	2024-11-06T05:00:00	6	Velocidad del viento	0
146918	7	Sololá	701	Sololá	2	El tablón	4	Abril	2023-07-04T00:00:00	2024-11-06T05:00:00	7	Dirección del viento	0
146919	7	Sololá	701	Sololá	2	El tablón	4	Abril	2023-07-04T00:00:00	2024-11-06T05:00:00	1	Precipitación	0
146920	7	Sololá	701	Sololá	2	El tablón	4	Abril	2023-07-04T00:00:00	2024-11-06T05:00:00	8	Radiación solar	0
146921	7	Sololá	701	Sololá	2	El tablón	4	Abril	2023-07-04T00:00:00	2024-11-06T06:00:00	2	Temperatura media	10.3
146922	7	Sololá	701	Sololá	2	El tablón	4	Abril	2023-07-04T00:00:00	2024-11-06T06:00:00	4	Temperatura máxima	10.7
146923	7	Sololá	701	Sololá	2	El tablón	4	Abril	2023-07-04T00:00:00	2024-11-06T06:00:00	3	Temperatura mínima	10.3
146924	7	Sololá	701	Sololá	2	El tablón	4	Abril	2023-07-04T00:00:00	2024-11-06T06:00:00	5	Humedad	89
146925	7	Sololá	701	Sololá	2	El tablón	4	Abril	2023-07-04T00:00:00	2024-11-06T06:00:00	6	Velocidad del viento	0
146926	7	Sololá	701	Sololá	2	El tablón	4	Abril	2023-07-04T00:00:00	2024-11-06T06:00:00	7	Dirección del viento	0
146927	7	Sololá	701	Sololá	2	El tablón	4	Abril	2023-07-04T00:00:00	2024-11-06T06:00:00	1	Precipitación	0
146928	7	Sololá	701	Sololá	2	El tablón	4	Abril	2023-07-04T00:00:00	2024-11-06T06:00:00	8	Radiación solar	0
146929	7	Sololá	701	Sololá	2	El tablón	4	Abril	2023-07-04T00:00:00	2024-11-06T07:00:00	2	Temperatura media	10.4
146930	7	Sololá	701	Sololá	2	El tablón	4	Abril	2023-07-04T00:00:00	2024-11-06T07:00:00	4	Temperatura máxima	10.4
146931	7	Sololá	701	Sololá	2	El tablón	4	Abril	2023-07-04T00:00:00	2024-11-06T07:00:00	3	Temperatura mínima	9.2
146932	7	Sololá	701	Sololá	2	El tablón	4	Abril	2023-07-04T00:00:00	2024-11-06T07:00:00	5	Humedad	88
146933	7	Sololá	701	Sololá	2	El tablón	4	Abril	2023-07-04T00:00:00	2024-11-06T07:00:00	6	Velocidad del viento	3.2
146934	7	Sololá	701	Sololá	2	El tablón	4	Abril	2023-07-04T00:00:00	2024-11-06T07:00:00	7	Dirección del viento	3.22
146935	7	Sololá	701	Sololá	2	El tablón	4	Abril	2023-07-04T00:00:00	2024-11-06T07:00:00	1	Precipitación	0
146936	7	Sololá	701	Sololá	2	El tablón	4	Abril	2023-07-04T00:00:00	2024-11-06T07:00:00	8	Radiación solar	61
146937	7	Sololá	701	Sololá	2	El tablón	4	Abril	2023-07-04T00:00:00	2024-11-06T08:00:00	2	Temperatura media	13.6
146938	7	Sololá	701	Sololá	2	El tablón	4	Abril	2023-07-04T00:00:00	2024-11-06T08:00:00	4	Temperatura máxima	13.6
146939	7	Sololá	701	Sololá	2	El tablón	4	Abril	2023-07-04T00:00:00	2024-11-06T08:00:00	3	Temperatura mínima	10.4
146940	7	Sololá	701	Sololá	2	El tablón	4	Abril	2023-07-04T00:00:00	2024-11-06T08:00:00	5	Humedad	78
146941	7	Sololá	701	Sololá	2	El tablón	4	Abril	2023-07-04T00:00:00	2024-11-06T08:00:00	6	Velocidad del viento	1.6
146942	7	Sololá	701	Sololá	2	El tablón	4	Abril	2023-07-04T00:00:00	2024-11-06T08:00:00	7	Dirección del viento	1.61
146943	7	Sololá	701	Sololá	2	El tablón	4	Abril	2023-07-04T00:00:00	2024-11-06T08:00:00	1	Precipitación	0
146944	7	Sololá	701	Sololá	2	El tablón	4	Abril	2023-07-04T00:00:00	2024-11-06T08:00:00	8	Radiación solar	234
146945	7	Sololá	701	Sololá	2	El tablón	4	Abril	2023-07-04T00:00:00	2024-11-06T09:00:00	2	Temperatura media	15.9
146946	7	Sololá	701	Sololá	2	El tablón	4	Abril	2023-07-04T00:00:00	2024-11-06T09:00:00	4	Temperatura máxima	15.9
146947	7	Sololá	701	Sololá	2	El tablón	4	Abril	2023-07-04T00:00:00	2024-11-06T09:00:00	3	Temperatura mínima	13.6
146948	7	Sololá	701	Sololá	2	El tablón	4	Abril	2023-07-04T00:00:00	2024-11-06T09:00:00	5	Humedad	73
146949	7	Sololá	701	Sololá	2	El tablón	4	Abril	2023-07-04T00:00:00	2024-11-06T09:00:00	6	Velocidad del viento	3.2
146950	7	Sololá	701	Sololá	2	El tablón	4	Abril	2023-07-04T00:00:00	2024-11-06T09:00:00	7	Dirección del viento	3.22
146951	7	Sololá	701	Sololá	2	El tablón	4	Abril	2023-07-04T00:00:00	2024-11-06T09:00:00	1	Precipitación	0
146952	7	Sololá	701	Sololá	2	El tablón	4	Abril	2023-07-04T00:00:00	2024-11-06T09:00:00	8	Radiación solar	420
146953	7	Sololá	701	Sololá	2	El tablón	4	Abril	2023-07-04T00:00:00	2024-11-06T10:00:00	2	Temperatura media	17.4
146954	7	Sololá	701	Sololá	2	El tablón	4	Abril	2023-07-04T00:00:00	2024-11-06T10:00:00	4	Temperatura máxima	17.4
146955	7	Sololá	701	Sololá	2	El tablón	4	Abril	2023-07-04T00:00:00	2024-11-06T10:00:00	3	Temperatura mínima	15.9
146956	7	Sololá	701	Sololá	2	El tablón	4	Abril	2023-07-04T00:00:00	2024-11-06T10:00:00	5	Humedad	69
146957	7	Sololá	701	Sololá	2	El tablón	4	Abril	2023-07-04T00:00:00	2024-11-06T10:00:00	6	Velocidad del viento	4.8
146958	7	Sololá	701	Sololá	2	El tablón	4	Abril	2023-07-04T00:00:00	2024-11-06T10:00:00	7	Dirección del viento	4.83
146959	7	Sololá	701	Sololá	2	El tablón	4	Abril	2023-07-04T00:00:00	2024-11-06T10:00:00	1	Precipitación	0
146960	7	Sololá	701	Sololá	2	El tablón	4	Abril	2023-07-04T00:00:00	2024-11-06T10:00:00	8	Radiación solar	561
146961	7	Sololá	701	Sololá	2	El tablón	4	Abril	2023-07-04T00:00:00	2024-11-06T11:00:00	2	Temperatura media	20.6
146962	7	Sololá	701	Sololá	2	El tablón	4	Abril	2023-07-04T00:00:00	2024-11-06T11:00:00	4	Temperatura máxima	20.8
146963	7	Sololá	701	Sololá	2	El tablón	4	Abril	2023-07-04T00:00:00	2024-11-06T11:00:00	3	Temperatura mínima	17.4
146964	7	Sololá	701	Sololá	2	El tablón	4	Abril	2023-07-04T00:00:00	2024-11-06T11:00:00	5	Humedad	37
146965	7	Sololá	701	Sololá	2	El tablón	4	Abril	2023-07-04T00:00:00	2024-11-06T11:00:00	6	Velocidad del viento	8
146966	7	Sololá	701	Sololá	2	El tablón	4	Abril	2023-07-04T00:00:00	2024-11-06T11:00:00	7	Dirección del viento	8.05
146967	7	Sololá	701	Sololá	2	El tablón	4	Abril	2023-07-04T00:00:00	2024-11-06T11:00:00	1	Precipitación	0
146968	7	Sololá	701	Sololá	2	El tablón	4	Abril	2023-07-04T00:00:00	2024-11-06T11:00:00	8	Radiación solar	806
146969	7	Sololá	701	Sololá	2	El tablón	4	Abril	2023-07-04T00:00:00	2024-11-06T12:00:00	2	Temperatura media	18.3
146970	7	Sololá	701	Sololá	2	El tablón	4	Abril	2023-07-04T00:00:00	2024-11-06T12:00:00	4	Temperatura máxima	20.8
146971	7	Sololá	701	Sololá	2	El tablón	4	Abril	2023-07-04T00:00:00	2024-11-06T12:00:00	3	Temperatura mínima	18
146972	7	Sololá	701	Sololá	2	El tablón	4	Abril	2023-07-04T00:00:00	2024-11-06T12:00:00	5	Humedad	73
146973	7	Sololá	701	Sololá	2	El tablón	4	Abril	2023-07-04T00:00:00	2024-11-06T12:00:00	6	Velocidad del viento	11.3
146974	7	Sololá	701	Sololá	2	El tablón	4	Abril	2023-07-04T00:00:00	2024-11-06T12:00:00	7	Dirección del viento	11.27
146975	7	Sololá	701	Sololá	2	El tablón	4	Abril	2023-07-04T00:00:00	2024-11-06T12:00:00	1	Precipitación	0
146976	7	Sololá	701	Sololá	2	El tablón	4	Abril	2023-07-04T00:00:00	2024-11-06T12:00:00	8	Radiación solar	918
146977	7	Sololá	701	Sololá	2	El tablón	4	Abril	2023-07-04T00:00:00	2024-11-06T13:00:00	2	Temperatura media	17.7
146978	7	Sololá	701	Sololá	2	El tablón	4	Abril	2023-07-04T00:00:00	2024-11-06T13:00:00	4	Temperatura máxima	18.6
146979	7	Sololá	701	Sololá	2	El tablón	4	Abril	2023-07-04T00:00:00	2024-11-06T13:00:00	3	Temperatura mínima	17.4
146980	7	Sololá	701	Sololá	2	El tablón	4	Abril	2023-07-04T00:00:00	2024-11-06T13:00:00	5	Humedad	81
146981	7	Sololá	701	Sololá	2	El tablón	4	Abril	2023-07-04T00:00:00	2024-11-06T13:00:00	6	Velocidad del viento	11.3
146982	7	Sololá	701	Sololá	2	El tablón	4	Abril	2023-07-04T00:00:00	2024-11-06T13:00:00	7	Dirección del viento	11.27
146983	7	Sololá	701	Sololá	2	El tablón	4	Abril	2023-07-04T00:00:00	2024-11-06T13:00:00	1	Precipitación	0
146984	7	Sololá	701	Sololá	2	El tablón	4	Abril	2023-07-04T00:00:00	2024-11-06T13:00:00	8	Radiación solar	940
146985	7	Sololá	701	Sololá	2	El tablón	4	Abril	2023-07-04T00:00:00	2024-11-06T14:00:00	2	Temperatura media	16.8
146986	7	Sololá	701	Sololá	2	El tablón	4	Abril	2023-07-04T00:00:00	2024-11-06T14:00:00	4	Temperatura máxima	17.7
146987	7	Sololá	701	Sololá	2	El tablón	4	Abril	2023-07-04T00:00:00	2024-11-06T14:00:00	3	Temperatura mínima	16.2
146988	7	Sololá	701	Sololá	2	El tablón	4	Abril	2023-07-04T00:00:00	2024-11-06T14:00:00	5	Humedad	83
146989	7	Sololá	701	Sololá	2	El tablón	4	Abril	2023-07-04T00:00:00	2024-11-06T14:00:00	6	Velocidad del viento	11.3
146990	7	Sololá	701	Sololá	2	El tablón	4	Abril	2023-07-04T00:00:00	2024-11-06T14:00:00	7	Dirección del viento	11.27
146991	7	Sololá	701	Sololá	2	El tablón	4	Abril	2023-07-04T00:00:00	2024-11-06T14:00:00	1	Precipitación	0
146992	7	Sololá	701	Sololá	2	El tablón	4	Abril	2023-07-04T00:00:00	2024-11-06T14:00:00	8	Radiación solar	481
146993	7	Sololá	701	Sololá	2	El tablón	4	Abril	2023-07-04T00:00:00	2024-11-06T15:00:00	2	Temperatura media	16.2
146994	7	Sololá	701	Sololá	2	El tablón	4	Abril	2023-07-04T00:00:00	2024-11-06T15:00:00	4	Temperatura máxima	16.8
146995	7	Sololá	701	Sololá	2	El tablón	4	Abril	2023-07-04T00:00:00	2024-11-06T15:00:00	3	Temperatura mínima	16
146996	7	Sololá	701	Sololá	2	El tablón	4	Abril	2023-07-04T00:00:00	2024-11-06T15:00:00	5	Humedad	85
146997	7	Sololá	701	Sololá	2	El tablón	4	Abril	2023-07-04T00:00:00	2024-11-06T15:00:00	6	Velocidad del viento	8
146998	7	Sololá	701	Sololá	2	El tablón	4	Abril	2023-07-04T00:00:00	2024-11-06T15:00:00	7	Dirección del viento	8.05
146999	7	Sololá	701	Sololá	2	El tablón	4	Abril	2023-07-04T00:00:00	2024-11-06T15:00:00	1	Precipitación	0
147000	7	Sololá	701	Sololá	2	El tablón	4	Abril	2023-07-04T00:00:00	2024-11-06T15:00:00	8	Radiación solar	345
147001	7	Sololá	701	Sololá	2	El tablón	4	Abril	2023-07-04T00:00:00	2024-11-06T16:00:00	2	Temperatura media	16.2
147002	7	Sololá	701	Sololá	2	El tablón	4	Abril	2023-07-04T00:00:00	2024-11-06T16:00:00	4	Temperatura máxima	16.9
147003	7	Sololá	701	Sololá	2	El tablón	4	Abril	2023-07-04T00:00:00	2024-11-06T16:00:00	3	Temperatura mínima	15.8
147004	7	Sololá	701	Sololá	2	El tablón	4	Abril	2023-07-04T00:00:00	2024-11-06T16:00:00	5	Humedad	85
147005	7	Sololá	701	Sololá	2	El tablón	4	Abril	2023-07-04T00:00:00	2024-11-06T16:00:00	6	Velocidad del viento	8
147006	7	Sololá	701	Sololá	2	El tablón	4	Abril	2023-07-04T00:00:00	2024-11-06T16:00:00	7	Dirección del viento	8.05
147007	7	Sololá	701	Sololá	2	El tablón	4	Abril	2023-07-04T00:00:00	2024-11-06T16:00:00	1	Precipitación	0
147008	7	Sololá	701	Sololá	2	El tablón	4	Abril	2023-07-04T00:00:00	2024-11-06T16:00:00	8	Radiación solar	416
147009	7	Sololá	701	Sololá	2	El tablón	4	Abril	2023-07-04T00:00:00	2024-11-06T17:00:00	2	Temperatura media	16.3
147010	7	Sololá	701	Sololá	2	El tablón	4	Abril	2023-07-04T00:00:00	2024-11-06T17:00:00	4	Temperatura máxima	16.4
147011	7	Sololá	701	Sololá	2	El tablón	4	Abril	2023-07-04T00:00:00	2024-11-06T17:00:00	3	Temperatura mínima	15.8
147012	7	Sololá	701	Sololá	2	El tablón	4	Abril	2023-07-04T00:00:00	2024-11-06T17:00:00	5	Humedad	86
147013	7	Sololá	701	Sololá	2	El tablón	4	Abril	2023-07-04T00:00:00	2024-11-06T17:00:00	6	Velocidad del viento	6.4
147014	7	Sololá	701	Sololá	2	El tablón	4	Abril	2023-07-04T00:00:00	2024-11-06T17:00:00	7	Dirección del viento	6.44
147015	7	Sololá	701	Sololá	2	El tablón	4	Abril	2023-07-04T00:00:00	2024-11-06T17:00:00	1	Precipitación	0
147016	7	Sololá	701	Sololá	2	El tablón	4	Abril	2023-07-04T00:00:00	2024-11-06T17:00:00	8	Radiación solar	306
147017	7	Sololá	701	Sololá	2	El tablón	4	Abril	2023-07-04T00:00:00	2024-11-06T18:00:00	2	Temperatura media	15.4
147018	7	Sololá	701	Sololá	2	El tablón	4	Abril	2023-07-04T00:00:00	2024-11-06T18:00:00	4	Temperatura máxima	16.5
147019	7	Sololá	701	Sololá	2	El tablón	4	Abril	2023-07-04T00:00:00	2024-11-06T18:00:00	3	Temperatura mínima	15.4
147020	7	Sololá	701	Sololá	2	El tablón	4	Abril	2023-07-04T00:00:00	2024-11-06T18:00:00	5	Humedad	84
147021	7	Sololá	701	Sololá	2	El tablón	4	Abril	2023-07-04T00:00:00	2024-11-06T18:00:00	6	Velocidad del viento	4.8
147022	7	Sololá	701	Sololá	2	El tablón	4	Abril	2023-07-04T00:00:00	2024-11-06T18:00:00	7	Dirección del viento	4.83
147023	7	Sololá	701	Sololá	2	El tablón	4	Abril	2023-07-04T00:00:00	2024-11-06T18:00:00	1	Precipitación	0
147024	7	Sololá	701	Sololá	2	El tablón	4	Abril	2023-07-04T00:00:00	2024-11-06T18:00:00	8	Radiación solar	87
147025	7	Sololá	701	Sololá	2	El tablón	4	Abril	2023-07-04T00:00:00	2024-11-06T19:00:00	2	Temperatura media	15.1
147026	7	Sololá	701	Sololá	2	El tablón	4	Abril	2023-07-04T00:00:00	2024-11-06T19:00:00	4	Temperatura máxima	15.4
147027	7	Sololá	701	Sololá	2	El tablón	4	Abril	2023-07-04T00:00:00	2024-11-06T19:00:00	3	Temperatura mínima	15
147028	7	Sololá	701	Sololá	2	El tablón	4	Abril	2023-07-04T00:00:00	2024-11-06T19:00:00	5	Humedad	79
147029	7	Sololá	701	Sololá	2	El tablón	4	Abril	2023-07-04T00:00:00	2024-11-06T19:00:00	6	Velocidad del viento	6.4
147030	7	Sololá	701	Sololá	2	El tablón	4	Abril	2023-07-04T00:00:00	2024-11-06T19:00:00	7	Dirección del viento	6.44
147031	7	Sololá	701	Sololá	2	El tablón	4	Abril	2023-07-04T00:00:00	2024-11-06T19:00:00	1	Precipitación	0
147032	7	Sololá	701	Sololá	2	El tablón	4	Abril	2023-07-04T00:00:00	2024-11-06T19:00:00	8	Radiación solar	0
147033	7	Sololá	701	Sololá	2	El tablón	4	Abril	2023-07-04T00:00:00	2024-11-06T20:00:00	2	Temperatura media	13.6
147034	7	Sololá	701	Sololá	2	El tablón	4	Abril	2023-07-04T00:00:00	2024-11-06T20:00:00	4	Temperatura máxima	15.1
147035	7	Sololá	701	Sololá	2	El tablón	4	Abril	2023-07-04T00:00:00	2024-11-06T20:00:00	3	Temperatura mínima	13.6
147036	7	Sololá	701	Sololá	2	El tablón	4	Abril	2023-07-04T00:00:00	2024-11-06T20:00:00	5	Humedad	83
147037	7	Sololá	701	Sololá	2	El tablón	4	Abril	2023-07-04T00:00:00	2024-11-06T20:00:00	6	Velocidad del viento	8
147038	7	Sololá	701	Sololá	2	El tablón	4	Abril	2023-07-04T00:00:00	2024-11-06T20:00:00	7	Dirección del viento	8.05
147039	7	Sololá	701	Sololá	2	El tablón	4	Abril	2023-07-04T00:00:00	2024-11-06T20:00:00	1	Precipitación	0
147040	7	Sololá	701	Sololá	2	El tablón	4	Abril	2023-07-04T00:00:00	2024-11-06T20:00:00	8	Radiación solar	0
147041	7	Sololá	701	Sololá	2	El tablón	4	Abril	2023-07-04T00:00:00	2024-11-06T21:00:00	2	Temperatura media	13.2
147042	7	Sololá	701	Sololá	2	El tablón	4	Abril	2023-07-04T00:00:00	2024-11-06T21:00:00	4	Temperatura máxima	13.6
147043	7	Sololá	701	Sololá	2	El tablón	4	Abril	2023-07-04T00:00:00	2024-11-06T21:00:00	3	Temperatura mínima	13.2
147044	7	Sololá	701	Sololá	2	El tablón	4	Abril	2023-07-04T00:00:00	2024-11-06T21:00:00	5	Humedad	84
147045	7	Sololá	701	Sololá	2	El tablón	4	Abril	2023-07-04T00:00:00	2024-11-06T21:00:00	6	Velocidad del viento	8
147046	7	Sololá	701	Sololá	2	El tablón	4	Abril	2023-07-04T00:00:00	2024-11-06T21:00:00	7	Dirección del viento	8.05
147047	7	Sololá	701	Sololá	2	El tablón	4	Abril	2023-07-04T00:00:00	2024-11-06T21:00:00	1	Precipitación	0
147048	7	Sololá	701	Sololá	2	El tablón	4	Abril	2023-07-04T00:00:00	2024-11-06T21:00:00	8	Radiación solar	0
147049	7	Sololá	701	Sololá	2	El tablón	4	Abril	2023-07-04T00:00:00	2024-11-06T22:00:00	2	Temperatura media	13
147050	7	Sololá	701	Sololá	2	El tablón	4	Abril	2023-07-04T00:00:00	2024-11-06T22:00:00	4	Temperatura máxima	13.3
147051	7	Sololá	701	Sololá	2	El tablón	4	Abril	2023-07-04T00:00:00	2024-11-06T22:00:00	3	Temperatura mínima	13
147052	7	Sololá	701	Sololá	2	El tablón	4	Abril	2023-07-04T00:00:00	2024-11-06T22:00:00	5	Humedad	85
147053	7	Sololá	701	Sololá	2	El tablón	4	Abril	2023-07-04T00:00:00	2024-11-06T22:00:00	6	Velocidad del viento	4.8
147054	7	Sololá	701	Sololá	2	El tablón	4	Abril	2023-07-04T00:00:00	2024-11-06T22:00:00	7	Dirección del viento	4.83
147055	7	Sololá	701	Sololá	2	El tablón	4	Abril	2023-07-04T00:00:00	2024-11-06T22:00:00	1	Precipitación	0
147056	7	Sololá	701	Sololá	2	El tablón	4	Abril	2023-07-04T00:00:00	2024-11-06T22:00:00	8	Radiación solar	0
147057	7	Sololá	701	Sololá	2	El tablón	4	Abril	2023-07-04T00:00:00	2024-11-06T23:00:00	2	Temperatura media	12.8
147058	7	Sololá	701	Sololá	2	El tablón	4	Abril	2023-07-04T00:00:00	2024-11-06T23:00:00	4	Temperatura máxima	13
147059	7	Sololá	701	Sololá	2	El tablón	4	Abril	2023-07-04T00:00:00	2024-11-06T23:00:00	3	Temperatura mínima	12.7
147060	7	Sololá	701	Sololá	2	El tablón	4	Abril	2023-07-04T00:00:00	2024-11-06T23:00:00	5	Humedad	86
147061	7	Sololá	701	Sololá	2	El tablón	4	Abril	2023-07-04T00:00:00	2024-11-06T23:00:00	6	Velocidad del viento	3.2
147062	7	Sololá	701	Sololá	2	El tablón	4	Abril	2023-07-04T00:00:00	2024-11-06T23:00:00	7	Dirección del viento	3.22
147063	7	Sololá	701	Sololá	2	El tablón	4	Abril	2023-07-04T00:00:00	2024-11-06T23:00:00	1	Precipitación	0
147064	7	Sololá	701	Sololá	2	El tablón	4	Abril	2023-07-04T00:00:00	2024-11-06T23:00:00	8	Radiación solar	0
147065	7	Sololá	701	Sololá	2	El tablón	4	Abril	2023-08-04T00:00:00	2024-11-06T00:00:00	2	Temperatura media	12.5
147066	7	Sololá	701	Sololá	2	El tablón	4	Abril	2023-08-04T00:00:00	2024-11-06T00:00:00	4	Temperatura máxima	12.8
147067	7	Sololá	701	Sololá	2	El tablón	4	Abril	2023-08-04T00:00:00	2024-11-06T00:00:00	3	Temperatura mínima	12.5
147068	7	Sololá	701	Sololá	2	El tablón	4	Abril	2023-08-04T00:00:00	2024-11-06T00:00:00	5	Humedad	88
147069	7	Sololá	701	Sololá	2	El tablón	4	Abril	2023-08-04T00:00:00	2024-11-06T00:00:00	6	Velocidad del viento	4.8
147070	7	Sololá	701	Sololá	2	El tablón	4	Abril	2023-08-04T00:00:00	2024-11-06T00:00:00	7	Dirección del viento	4.83
147071	7	Sololá	701	Sololá	2	El tablón	4	Abril	2023-08-04T00:00:00	2024-11-06T00:00:00	1	Precipitación	0
147072	7	Sololá	701	Sololá	2	El tablón	4	Abril	2023-08-04T00:00:00	2024-11-06T00:00:00	8	Radiación solar	0
147073	7	Sololá	701	Sololá	2	El tablón	4	Abril	2023-08-04T00:00:00	2024-11-06T01:00:00	2	Temperatura media	12.6
147074	7	Sololá	701	Sololá	2	El tablón	4	Abril	2023-08-04T00:00:00	2024-11-06T01:00:00	4	Temperatura máxima	12.6
147075	7	Sololá	701	Sololá	2	El tablón	4	Abril	2023-08-04T00:00:00	2024-11-06T01:00:00	3	Temperatura mínima	12.3
147076	7	Sololá	701	Sololá	2	El tablón	4	Abril	2023-08-04T00:00:00	2024-11-06T01:00:00	5	Humedad	86
147077	7	Sololá	701	Sololá	2	El tablón	4	Abril	2023-08-04T00:00:00	2024-11-06T01:00:00	6	Velocidad del viento	8
147078	7	Sololá	701	Sololá	2	El tablón	4	Abril	2023-08-04T00:00:00	2024-11-06T01:00:00	7	Dirección del viento	8.05
147079	7	Sololá	701	Sololá	2	El tablón	4	Abril	2023-08-04T00:00:00	2024-11-06T01:00:00	1	Precipitación	0
147080	7	Sololá	701	Sololá	2	El tablón	4	Abril	2023-08-04T00:00:00	2024-11-06T01:00:00	8	Radiación solar	0
147081	7	Sololá	701	Sololá	2	El tablón	4	Abril	2023-08-04T00:00:00	2024-11-06T02:00:00	2	Temperatura media	12.7
147082	7	Sololá	701	Sololá	2	El tablón	4	Abril	2023-08-04T00:00:00	2024-11-06T02:00:00	4	Temperatura máxima	12.7
147083	7	Sololá	701	Sololá	2	El tablón	4	Abril	2023-08-04T00:00:00	2024-11-06T02:00:00	3	Temperatura mínima	12.5
147084	7	Sololá	701	Sololá	2	El tablón	4	Abril	2023-08-04T00:00:00	2024-11-06T02:00:00	5	Humedad	82
147085	7	Sololá	701	Sololá	2	El tablón	4	Abril	2023-08-04T00:00:00	2024-11-06T02:00:00	6	Velocidad del viento	6.4
147086	7	Sololá	701	Sololá	2	El tablón	4	Abril	2023-08-04T00:00:00	2024-11-06T02:00:00	7	Dirección del viento	6.44
147087	7	Sololá	701	Sololá	2	El tablón	4	Abril	2023-08-04T00:00:00	2024-11-06T02:00:00	1	Precipitación	0
147088	7	Sololá	701	Sololá	2	El tablón	4	Abril	2023-08-04T00:00:00	2024-11-06T02:00:00	8	Radiación solar	0
147089	7	Sololá	701	Sololá	2	El tablón	4	Abril	2023-08-04T00:00:00	2024-11-06T03:00:00	2	Temperatura media	11.7
147090	7	Sololá	701	Sololá	2	El tablón	4	Abril	2023-08-04T00:00:00	2024-11-06T03:00:00	4	Temperatura máxima	12.7
147091	7	Sololá	701	Sololá	2	El tablón	4	Abril	2023-08-04T00:00:00	2024-11-06T03:00:00	3	Temperatura mínima	11.7
147092	7	Sololá	701	Sololá	2	El tablón	4	Abril	2023-08-04T00:00:00	2024-11-06T03:00:00	5	Humedad	86
147093	7	Sololá	701	Sololá	2	El tablón	4	Abril	2023-08-04T00:00:00	2024-11-06T03:00:00	6	Velocidad del viento	4.8
147094	7	Sololá	701	Sololá	2	El tablón	4	Abril	2023-08-04T00:00:00	2024-11-06T03:00:00	7	Dirección del viento	4.83
147095	7	Sololá	701	Sololá	2	El tablón	4	Abril	2023-08-04T00:00:00	2024-11-06T03:00:00	1	Precipitación	0
147096	7	Sololá	701	Sololá	2	El tablón	4	Abril	2023-08-04T00:00:00	2024-11-06T03:00:00	8	Radiación solar	0
147097	7	Sololá	701	Sololá	2	El tablón	4	Abril	2023-08-04T00:00:00	2024-11-06T04:00:00	2	Temperatura media	11.4
147098	7	Sololá	701	Sololá	2	El tablón	4	Abril	2023-08-04T00:00:00	2024-11-06T04:00:00	4	Temperatura máxima	11.7
147099	7	Sololá	701	Sololá	2	El tablón	4	Abril	2023-08-04T00:00:00	2024-11-06T04:00:00	3	Temperatura mínima	11.4
147100	7	Sololá	701	Sololá	2	El tablón	4	Abril	2023-08-04T00:00:00	2024-11-06T04:00:00	5	Humedad	85
147101	7	Sololá	701	Sololá	2	El tablón	4	Abril	2023-08-04T00:00:00	2024-11-06T04:00:00	6	Velocidad del viento	3.2
147102	7	Sololá	701	Sololá	2	El tablón	4	Abril	2023-08-04T00:00:00	2024-11-06T04:00:00	7	Dirección del viento	3.22
147103	7	Sololá	701	Sololá	2	El tablón	4	Abril	2023-08-04T00:00:00	2024-11-06T04:00:00	1	Precipitación	0
147104	7	Sololá	701	Sololá	2	El tablón	4	Abril	2023-08-04T00:00:00	2024-11-06T04:00:00	8	Radiación solar	0
147105	7	Sololá	701	Sololá	2	El tablón	4	Abril	2023-08-04T00:00:00	2024-11-06T05:00:00	2	Temperatura media	10.3
147106	7	Sololá	701	Sololá	2	El tablón	4	Abril	2023-08-04T00:00:00	2024-11-06T05:00:00	4	Temperatura máxima	11.4
147107	7	Sololá	701	Sololá	2	El tablón	4	Abril	2023-08-04T00:00:00	2024-11-06T05:00:00	3	Temperatura mínima	10.3
147108	7	Sololá	701	Sololá	2	El tablón	4	Abril	2023-08-04T00:00:00	2024-11-06T05:00:00	5	Humedad	89
147109	7	Sololá	701	Sololá	2	El tablón	4	Abril	2023-08-04T00:00:00	2024-11-06T05:00:00	6	Velocidad del viento	4.8
147110	7	Sololá	701	Sololá	2	El tablón	4	Abril	2023-08-04T00:00:00	2024-11-06T05:00:00	7	Dirección del viento	4.83
147111	7	Sololá	701	Sololá	2	El tablón	4	Abril	2023-08-04T00:00:00	2024-11-06T05:00:00	1	Precipitación	0
147112	7	Sololá	701	Sololá	2	El tablón	4	Abril	2023-08-04T00:00:00	2024-11-06T05:00:00	8	Radiación solar	0
147113	7	Sololá	701	Sololá	2	El tablón	4	Abril	2023-08-04T00:00:00	2024-11-06T06:00:00	2	Temperatura media	9.7
147114	7	Sololá	701	Sololá	2	El tablón	4	Abril	2023-08-04T00:00:00	2024-11-06T06:00:00	4	Temperatura máxima	10.3
147115	7	Sololá	701	Sololá	2	El tablón	4	Abril	2023-08-04T00:00:00	2024-11-06T06:00:00	3	Temperatura mínima	9.6
147116	7	Sololá	701	Sololá	2	El tablón	4	Abril	2023-08-04T00:00:00	2024-11-06T06:00:00	5	Humedad	88
147117	7	Sololá	701	Sololá	2	El tablón	4	Abril	2023-08-04T00:00:00	2024-11-06T06:00:00	6	Velocidad del viento	3.2
147118	7	Sololá	701	Sololá	2	El tablón	4	Abril	2023-08-04T00:00:00	2024-11-06T06:00:00	7	Dirección del viento	3.22
147119	7	Sololá	701	Sololá	2	El tablón	4	Abril	2023-08-04T00:00:00	2024-11-06T06:00:00	1	Precipitación	0
147120	7	Sololá	701	Sololá	2	El tablón	4	Abril	2023-08-04T00:00:00	2024-11-06T06:00:00	8	Radiación solar	0
147121	7	Sololá	701	Sololá	2	El tablón	4	Abril	2023-08-04T00:00:00	2024-11-06T07:00:00	2	Temperatura media	12.2
147122	7	Sololá	701	Sololá	2	El tablón	4	Abril	2023-08-04T00:00:00	2024-11-06T07:00:00	4	Temperatura máxima	12.2
147123	7	Sololá	701	Sololá	2	El tablón	4	Abril	2023-08-04T00:00:00	2024-11-06T07:00:00	3	Temperatura mínima	9.7
147124	7	Sololá	701	Sololá	2	El tablón	4	Abril	2023-08-04T00:00:00	2024-11-06T07:00:00	5	Humedad	82
147125	7	Sololá	701	Sololá	2	El tablón	4	Abril	2023-08-04T00:00:00	2024-11-06T07:00:00	6	Velocidad del viento	3.2
147126	7	Sololá	701	Sololá	2	El tablón	4	Abril	2023-08-04T00:00:00	2024-11-06T07:00:00	7	Dirección del viento	3.22
147127	7	Sololá	701	Sololá	2	El tablón	4	Abril	2023-08-04T00:00:00	2024-11-06T07:00:00	1	Precipitación	0
147128	7	Sololá	701	Sololá	2	El tablón	4	Abril	2023-08-04T00:00:00	2024-11-06T07:00:00	8	Radiación solar	66
147129	7	Sololá	701	Sololá	2	El tablón	4	Abril	2023-08-04T00:00:00	2024-11-06T08:00:00	2	Temperatura media	15.5
147130	7	Sololá	701	Sololá	2	El tablón	4	Abril	2023-08-04T00:00:00	2024-11-06T08:00:00	4	Temperatura máxima	15.5
147131	7	Sololá	701	Sololá	2	El tablón	4	Abril	2023-08-04T00:00:00	2024-11-06T08:00:00	3	Temperatura mínima	12.2
147132	7	Sololá	701	Sololá	2	El tablón	4	Abril	2023-08-04T00:00:00	2024-11-06T08:00:00	5	Humedad	73
147133	7	Sololá	701	Sololá	2	El tablón	4	Abril	2023-08-04T00:00:00	2024-11-06T08:00:00	6	Velocidad del viento	1.6
147134	7	Sololá	701	Sololá	2	El tablón	4	Abril	2023-08-04T00:00:00	2024-11-06T08:00:00	7	Dirección del viento	1.61
147135	7	Sololá	701	Sololá	2	El tablón	4	Abril	2023-08-04T00:00:00	2024-11-06T08:00:00	1	Precipitación	0
147136	7	Sololá	701	Sololá	2	El tablón	4	Abril	2023-08-04T00:00:00	2024-11-06T08:00:00	8	Radiación solar	250
147137	7	Sololá	701	Sololá	2	El tablón	4	Abril	2023-08-04T00:00:00	2024-11-06T09:00:00	2	Temperatura media	15.2
147138	7	Sololá	701	Sololá	2	El tablón	4	Abril	2023-08-04T00:00:00	2024-11-06T09:00:00	4	Temperatura máxima	16.3
147139	7	Sololá	701	Sololá	2	El tablón	4	Abril	2023-08-04T00:00:00	2024-11-06T09:00:00	3	Temperatura mínima	15.2
147140	7	Sololá	701	Sololá	2	El tablón	4	Abril	2023-08-04T00:00:00	2024-11-06T09:00:00	5	Humedad	74
147141	7	Sololá	701	Sololá	2	El tablón	4	Abril	2023-08-04T00:00:00	2024-11-06T09:00:00	6	Velocidad del viento	4.8
147142	7	Sololá	701	Sololá	2	El tablón	4	Abril	2023-08-04T00:00:00	2024-11-06T09:00:00	7	Dirección del viento	4.83
147143	7	Sololá	701	Sololá	2	El tablón	4	Abril	2023-08-04T00:00:00	2024-11-06T09:00:00	1	Precipitación	0
147144	7	Sololá	701	Sololá	2	El tablón	4	Abril	2023-08-04T00:00:00	2024-11-06T09:00:00	8	Radiación solar	431
147145	7	Sololá	701	Sololá	2	El tablón	4	Abril	2023-08-04T00:00:00	2024-11-06T10:00:00	2	Temperatura media	16.8
147146	7	Sololá	701	Sololá	2	El tablón	4	Abril	2023-08-04T00:00:00	2024-11-06T10:00:00	4	Temperatura máxima	16.8
147147	7	Sololá	701	Sololá	2	El tablón	4	Abril	2023-08-04T00:00:00	2024-11-06T10:00:00	3	Temperatura mínima	14.9
147148	7	Sololá	701	Sololá	2	El tablón	4	Abril	2023-08-04T00:00:00	2024-11-06T10:00:00	5	Humedad	72
147149	7	Sololá	701	Sololá	2	El tablón	4	Abril	2023-08-04T00:00:00	2024-11-06T10:00:00	6	Velocidad del viento	4.8
147150	7	Sololá	701	Sololá	2	El tablón	4	Abril	2023-08-04T00:00:00	2024-11-06T10:00:00	7	Dirección del viento	4.83
147151	7	Sololá	701	Sololá	2	El tablón	4	Abril	2023-08-04T00:00:00	2024-11-06T10:00:00	1	Precipitación	0
147152	7	Sololá	701	Sololá	2	El tablón	4	Abril	2023-08-04T00:00:00	2024-11-06T10:00:00	8	Radiación solar	442
147153	7	Sololá	701	Sololá	2	El tablón	4	Abril	2023-08-04T00:00:00	2024-11-06T11:00:00	2	Temperatura media	17.3
147154	7	Sololá	701	Sololá	2	El tablón	4	Abril	2023-08-04T00:00:00	2024-11-06T11:00:00	4	Temperatura máxima	17.3
147155	7	Sololá	701	Sololá	2	El tablón	4	Abril	2023-08-04T00:00:00	2024-11-06T11:00:00	3	Temperatura mínima	16.8
147156	7	Sololá	701	Sololá	2	El tablón	4	Abril	2023-08-04T00:00:00	2024-11-06T11:00:00	5	Humedad	69
147157	7	Sololá	701	Sololá	2	El tablón	4	Abril	2023-08-04T00:00:00	2024-11-06T11:00:00	6	Velocidad del viento	9.7
147158	7	Sololá	701	Sololá	2	El tablón	4	Abril	2023-08-04T00:00:00	2024-11-06T11:00:00	7	Dirección del viento	9.66
147159	7	Sololá	701	Sololá	2	El tablón	4	Abril	2023-08-04T00:00:00	2024-11-06T11:00:00	1	Precipitación	0
147160	7	Sololá	701	Sololá	2	El tablón	4	Abril	2023-08-04T00:00:00	2024-11-06T11:00:00	8	Radiación solar	803
147161	7	Sololá	701	Sololá	2	El tablón	4	Abril	2023-08-04T00:00:00	2024-11-06T12:00:00	2	Temperatura media	17.8
147162	7	Sololá	701	Sololá	2	El tablón	4	Abril	2023-08-04T00:00:00	2024-11-06T12:00:00	4	Temperatura máxima	17.9
147163	7	Sololá	701	Sololá	2	El tablón	4	Abril	2023-08-04T00:00:00	2024-11-06T12:00:00	3	Temperatura mínima	17
147164	7	Sololá	701	Sololá	2	El tablón	4	Abril	2023-08-04T00:00:00	2024-11-06T12:00:00	5	Humedad	76
147165	7	Sololá	701	Sololá	2	El tablón	4	Abril	2023-08-04T00:00:00	2024-11-06T12:00:00	6	Velocidad del viento	9.7
147166	7	Sololá	701	Sololá	2	El tablón	4	Abril	2023-08-04T00:00:00	2024-11-06T12:00:00	7	Dirección del viento	9.66
147167	7	Sololá	701	Sololá	2	El tablón	4	Abril	2023-08-04T00:00:00	2024-11-06T12:00:00	1	Precipitación	0
147168	7	Sololá	701	Sololá	2	El tablón	4	Abril	2023-08-04T00:00:00	2024-11-06T12:00:00	8	Radiación solar	962
147169	7	Sololá	701	Sololá	2	El tablón	4	Abril	2023-08-04T00:00:00	2024-11-06T13:00:00	2	Temperatura media	17.6
147170	7	Sololá	701	Sololá	2	El tablón	4	Abril	2023-08-04T00:00:00	2024-11-06T13:00:00	4	Temperatura máxima	18.1
147171	7	Sololá	701	Sololá	2	El tablón	4	Abril	2023-08-04T00:00:00	2024-11-06T13:00:00	3	Temperatura mínima	17.3
147172	7	Sololá	701	Sololá	2	El tablón	4	Abril	2023-08-04T00:00:00	2024-11-06T13:00:00	5	Humedad	78
147173	7	Sololá	701	Sololá	2	El tablón	4	Abril	2023-08-04T00:00:00	2024-11-06T13:00:00	6	Velocidad del viento	11.3
147174	7	Sololá	701	Sololá	2	El tablón	4	Abril	2023-08-04T00:00:00	2024-11-06T13:00:00	7	Dirección del viento	11.27
147175	7	Sololá	701	Sololá	2	El tablón	4	Abril	2023-08-04T00:00:00	2024-11-06T13:00:00	1	Precipitación	0
147176	7	Sololá	701	Sololá	2	El tablón	4	Abril	2023-08-04T00:00:00	2024-11-06T13:00:00	8	Radiación solar	949
147177	7	Sololá	701	Sololá	2	El tablón	4	Abril	2023-08-04T00:00:00	2024-11-06T14:00:00	2	Temperatura media	17.3
147178	7	Sololá	701	Sololá	2	El tablón	4	Abril	2023-08-04T00:00:00	2024-11-06T14:00:00	4	Temperatura máxima	17.9
147179	7	Sololá	701	Sololá	2	El tablón	4	Abril	2023-08-04T00:00:00	2024-11-06T14:00:00	3	Temperatura mínima	17.1
147180	7	Sololá	701	Sololá	2	El tablón	4	Abril	2023-08-04T00:00:00	2024-11-06T14:00:00	5	Humedad	83
147181	7	Sololá	701	Sololá	2	El tablón	4	Abril	2023-08-04T00:00:00	2024-11-06T14:00:00	6	Velocidad del viento	11.3
147182	7	Sololá	701	Sololá	2	El tablón	4	Abril	2023-08-04T00:00:00	2024-11-06T14:00:00	7	Dirección del viento	11.27
147183	7	Sololá	701	Sololá	2	El tablón	4	Abril	2023-08-04T00:00:00	2024-11-06T14:00:00	1	Precipitación	0
147184	7	Sololá	701	Sololá	2	El tablón	4	Abril	2023-08-04T00:00:00	2024-11-06T14:00:00	8	Radiación solar	843
147185	7	Sololá	701	Sololá	2	El tablón	4	Abril	2023-08-04T00:00:00	2024-11-06T15:00:00	2	Temperatura media	17.1
147186	7	Sololá	701	Sololá	2	El tablón	4	Abril	2023-08-04T00:00:00	2024-11-06T15:00:00	4	Temperatura máxima	17.6
147187	7	Sololá	701	Sololá	2	El tablón	4	Abril	2023-08-04T00:00:00	2024-11-06T15:00:00	3	Temperatura mínima	16.7
147188	7	Sololá	701	Sololá	2	El tablón	4	Abril	2023-08-04T00:00:00	2024-11-06T15:00:00	5	Humedad	84
147189	7	Sololá	701	Sololá	2	El tablón	4	Abril	2023-08-04T00:00:00	2024-11-06T15:00:00	6	Velocidad del viento	11.3
147190	7	Sololá	701	Sololá	2	El tablón	4	Abril	2023-08-04T00:00:00	2024-11-06T15:00:00	7	Dirección del viento	11.27
147191	7	Sololá	701	Sololá	2	El tablón	4	Abril	2023-08-04T00:00:00	2024-11-06T15:00:00	1	Precipitación	0
147192	7	Sololá	701	Sololá	2	El tablón	4	Abril	2023-08-04T00:00:00	2024-11-06T15:00:00	8	Radiación solar	577
147193	7	Sololá	701	Sololá	2	El tablón	4	Abril	2023-08-04T00:00:00	2024-11-06T16:00:00	2	Temperatura media	15.8
147194	7	Sololá	701	Sololá	2	El tablón	4	Abril	2023-08-04T00:00:00	2024-11-06T16:00:00	4	Temperatura máxima	17.1
147195	7	Sololá	701	Sololá	2	El tablón	4	Abril	2023-08-04T00:00:00	2024-11-06T16:00:00	3	Temperatura mínima	15.6
147196	7	Sololá	701	Sololá	2	El tablón	4	Abril	2023-08-04T00:00:00	2024-11-06T16:00:00	5	Humedad	87
147197	7	Sololá	701	Sololá	2	El tablón	4	Abril	2023-08-04T00:00:00	2024-11-06T16:00:00	6	Velocidad del viento	11.3
147198	7	Sololá	701	Sololá	2	El tablón	4	Abril	2023-08-04T00:00:00	2024-11-06T16:00:00	7	Dirección del viento	11.27
147199	7	Sololá	701	Sololá	2	El tablón	4	Abril	2023-08-04T00:00:00	2024-11-06T16:00:00	1	Precipitación	0
147200	7	Sololá	701	Sololá	2	El tablón	4	Abril	2023-08-04T00:00:00	2024-11-06T16:00:00	8	Radiación solar	340
147201	7	Sololá	701	Sololá	2	El tablón	4	Abril	2023-08-04T00:00:00	2024-11-06T17:00:00	2	Temperatura media	17.7
147202	7	Sololá	701	Sololá	2	El tablón	4	Abril	2023-08-04T00:00:00	2024-11-06T17:00:00	4	Temperatura máxima	17.7
147203	7	Sololá	701	Sololá	2	El tablón	4	Abril	2023-08-04T00:00:00	2024-11-06T17:00:00	3	Temperatura mínima	15.8
147204	7	Sololá	701	Sololá	2	El tablón	4	Abril	2023-08-04T00:00:00	2024-11-06T17:00:00	5	Humedad	61
147205	7	Sololá	701	Sololá	2	El tablón	4	Abril	2023-08-04T00:00:00	2024-11-06T17:00:00	6	Velocidad del viento	6.4
147206	7	Sololá	701	Sololá	2	El tablón	4	Abril	2023-08-04T00:00:00	2024-11-06T17:00:00	7	Dirección del viento	6.44
147207	7	Sololá	701	Sololá	2	El tablón	4	Abril	2023-08-04T00:00:00	2024-11-06T17:00:00	1	Precipitación	0
147208	7	Sololá	701	Sololá	2	El tablón	4	Abril	2023-08-04T00:00:00	2024-11-06T17:00:00	8	Radiación solar	231
147209	7	Sololá	701	Sololá	2	El tablón	4	Abril	2023-08-04T00:00:00	2024-11-06T18:00:00	2	Temperatura media	15.6
147210	7	Sololá	701	Sololá	2	El tablón	4	Abril	2023-08-04T00:00:00	2024-11-06T18:00:00	4	Temperatura máxima	17.8
147211	7	Sololá	701	Sololá	2	El tablón	4	Abril	2023-08-04T00:00:00	2024-11-06T18:00:00	3	Temperatura mínima	15.6
147212	7	Sololá	701	Sololá	2	El tablón	4	Abril	2023-08-04T00:00:00	2024-11-06T18:00:00	5	Humedad	66
147213	7	Sololá	701	Sololá	2	El tablón	4	Abril	2023-08-04T00:00:00	2024-11-06T18:00:00	6	Velocidad del viento	9.7
147214	7	Sololá	701	Sololá	2	El tablón	4	Abril	2023-08-04T00:00:00	2024-11-06T18:00:00	7	Dirección del viento	9.66
147215	7	Sololá	701	Sololá	2	El tablón	4	Abril	2023-08-04T00:00:00	2024-11-06T18:00:00	1	Precipitación	0
147216	7	Sololá	701	Sololá	2	El tablón	4	Abril	2023-08-04T00:00:00	2024-11-06T18:00:00	8	Radiación solar	130
147217	7	Sololá	701	Sololá	2	El tablón	4	Abril	2023-08-04T00:00:00	2024-11-06T19:00:00	2	Temperatura media	13.4
147218	7	Sololá	701	Sololá	2	El tablón	4	Abril	2023-08-04T00:00:00	2024-11-06T19:00:00	4	Temperatura máxima	15.6
147219	7	Sololá	701	Sololá	2	El tablón	4	Abril	2023-08-04T00:00:00	2024-11-06T19:00:00	3	Temperatura mínima	13.4
147220	7	Sololá	701	Sololá	2	El tablón	4	Abril	2023-08-04T00:00:00	2024-11-06T19:00:00	5	Humedad	74
147221	7	Sololá	701	Sololá	2	El tablón	4	Abril	2023-08-04T00:00:00	2024-11-06T19:00:00	6	Velocidad del viento	9.7
147222	7	Sololá	701	Sololá	2	El tablón	4	Abril	2023-08-04T00:00:00	2024-11-06T19:00:00	7	Dirección del viento	9.66
147223	7	Sololá	701	Sololá	2	El tablón	4	Abril	2023-08-04T00:00:00	2024-11-06T19:00:00	1	Precipitación	0
147224	7	Sololá	701	Sololá	2	El tablón	4	Abril	2023-08-04T00:00:00	2024-11-06T19:00:00	8	Radiación solar	0
147225	7	Sololá	701	Sololá	2	El tablón	4	Abril	2023-08-04T00:00:00	2024-11-06T20:00:00	2	Temperatura media	11.8
147226	7	Sololá	701	Sololá	2	El tablón	4	Abril	2023-08-04T00:00:00	2024-11-06T20:00:00	4	Temperatura máxima	13.4
147227	7	Sololá	701	Sololá	2	El tablón	4	Abril	2023-08-04T00:00:00	2024-11-06T20:00:00	3	Temperatura mínima	11.8
147228	7	Sololá	701	Sololá	2	El tablón	4	Abril	2023-08-04T00:00:00	2024-11-06T20:00:00	5	Humedad	80
147229	7	Sololá	701	Sololá	2	El tablón	4	Abril	2023-08-04T00:00:00	2024-11-06T20:00:00	6	Velocidad del viento	11.3
147230	7	Sololá	701	Sololá	2	El tablón	4	Abril	2023-08-04T00:00:00	2024-11-06T20:00:00	7	Dirección del viento	11.27
147231	7	Sololá	701	Sololá	2	El tablón	4	Abril	2023-08-04T00:00:00	2024-11-06T20:00:00	1	Precipitación	0
147232	7	Sololá	701	Sololá	2	El tablón	4	Abril	2023-08-04T00:00:00	2024-11-06T20:00:00	8	Radiación solar	0
147233	7	Sololá	701	Sololá	2	El tablón	4	Abril	2023-08-04T00:00:00	2024-11-06T21:00:00	2	Temperatura media	11
147234	7	Sololá	701	Sololá	2	El tablón	4	Abril	2023-08-04T00:00:00	2024-11-06T21:00:00	4	Temperatura máxima	11.8
147235	7	Sololá	701	Sololá	2	El tablón	4	Abril	2023-08-04T00:00:00	2024-11-06T21:00:00	3	Temperatura mínima	11
147236	7	Sololá	701	Sololá	2	El tablón	4	Abril	2023-08-04T00:00:00	2024-11-06T21:00:00	5	Humedad	82
147237	7	Sololá	701	Sololá	2	El tablón	4	Abril	2023-08-04T00:00:00	2024-11-06T21:00:00	6	Velocidad del viento	9.7
147238	7	Sololá	701	Sololá	2	El tablón	4	Abril	2023-08-04T00:00:00	2024-11-06T21:00:00	7	Dirección del viento	9.66
147239	7	Sololá	701	Sololá	2	El tablón	4	Abril	2023-08-04T00:00:00	2024-11-06T21:00:00	1	Precipitación	0
147240	7	Sololá	701	Sololá	2	El tablón	4	Abril	2023-08-04T00:00:00	2024-11-06T21:00:00	8	Radiación solar	0
147241	7	Sololá	701	Sololá	2	El tablón	4	Abril	2023-08-04T00:00:00	2024-11-06T22:00:00	2	Temperatura media	10.4
147242	7	Sololá	701	Sololá	2	El tablón	4	Abril	2023-08-04T00:00:00	2024-11-06T22:00:00	4	Temperatura máxima	11
147243	7	Sololá	701	Sololá	2	El tablón	4	Abril	2023-08-04T00:00:00	2024-11-06T22:00:00	3	Temperatura mínima	10.4
147244	7	Sololá	701	Sololá	2	El tablón	4	Abril	2023-08-04T00:00:00	2024-11-06T22:00:00	5	Humedad	84
147245	7	Sololá	701	Sololá	2	El tablón	4	Abril	2023-08-04T00:00:00	2024-11-06T22:00:00	6	Velocidad del viento	9.7
147246	7	Sololá	701	Sololá	2	El tablón	4	Abril	2023-08-04T00:00:00	2024-11-06T22:00:00	7	Dirección del viento	9.66
147247	7	Sololá	701	Sololá	2	El tablón	4	Abril	2023-08-04T00:00:00	2024-11-06T22:00:00	1	Precipitación	0
147248	7	Sololá	701	Sololá	2	El tablón	4	Abril	2023-08-04T00:00:00	2024-11-06T22:00:00	8	Radiación solar	0
147249	7	Sololá	701	Sololá	2	El tablón	4	Abril	2023-08-04T00:00:00	2024-11-06T23:00:00	2	Temperatura media	10
147250	7	Sololá	701	Sololá	2	El tablón	4	Abril	2023-08-04T00:00:00	2024-11-06T23:00:00	4	Temperatura máxima	10.4
147251	7	Sololá	701	Sololá	2	El tablón	4	Abril	2023-08-04T00:00:00	2024-11-06T23:00:00	3	Temperatura mínima	10
147252	7	Sololá	701	Sololá	2	El tablón	4	Abril	2023-08-04T00:00:00	2024-11-06T23:00:00	5	Humedad	80
147253	7	Sololá	701	Sololá	2	El tablón	4	Abril	2023-08-04T00:00:00	2024-11-06T23:00:00	6	Velocidad del viento	9.7
147254	7	Sololá	701	Sololá	2	El tablón	4	Abril	2023-08-04T00:00:00	2024-11-06T23:00:00	7	Dirección del viento	9.66
147255	7	Sololá	701	Sololá	2	El tablón	4	Abril	2023-08-04T00:00:00	2024-11-06T23:00:00	1	Precipitación	0
147256	7	Sololá	701	Sololá	2	El tablón	4	Abril	2023-08-04T00:00:00	2024-11-06T23:00:00	8	Radiación solar	0
147257	7	Sololá	701	Sololá	2	El tablón	4	Abril	2023-09-04T00:00:00	2024-11-06T00:00:00	2	Temperatura media	9.9
147258	7	Sololá	701	Sololá	2	El tablón	4	Abril	2023-09-04T00:00:00	2024-11-06T00:00:00	4	Temperatura máxima	10
147259	7	Sololá	701	Sololá	2	El tablón	4	Abril	2023-09-04T00:00:00	2024-11-06T00:00:00	3	Temperatura mínima	9.6
147260	7	Sololá	701	Sololá	2	El tablón	4	Abril	2023-09-04T00:00:00	2024-11-06T00:00:00	5	Humedad	78
147261	7	Sololá	701	Sololá	2	El tablón	4	Abril	2023-09-04T00:00:00	2024-11-06T00:00:00	6	Velocidad del viento	9.7
147262	7	Sololá	701	Sololá	2	El tablón	4	Abril	2023-09-04T00:00:00	2024-11-06T00:00:00	7	Dirección del viento	9.66
147263	7	Sololá	701	Sololá	2	El tablón	4	Abril	2023-09-04T00:00:00	2024-11-06T00:00:00	1	Precipitación	0
147264	7	Sololá	701	Sololá	2	El tablón	4	Abril	2023-09-04T00:00:00	2024-11-06T00:00:00	8	Radiación solar	0
147265	7	Sololá	701	Sololá	2	El tablón	4	Abril	2023-09-04T00:00:00	2024-11-06T01:00:00	2	Temperatura media	10.3
147266	7	Sololá	701	Sololá	2	El tablón	4	Abril	2023-09-04T00:00:00	2024-11-06T01:00:00	4	Temperatura máxima	10.3
147267	7	Sololá	701	Sololá	2	El tablón	4	Abril	2023-09-04T00:00:00	2024-11-06T01:00:00	3	Temperatura mínima	9.8
147268	7	Sololá	701	Sololá	2	El tablón	4	Abril	2023-09-04T00:00:00	2024-11-06T01:00:00	5	Humedad	72
147269	7	Sololá	701	Sololá	2	El tablón	4	Abril	2023-09-04T00:00:00	2024-11-06T01:00:00	6	Velocidad del viento	9.7
147270	7	Sololá	701	Sololá	2	El tablón	4	Abril	2023-09-04T00:00:00	2024-11-06T01:00:00	7	Dirección del viento	9.66
147271	7	Sololá	701	Sololá	2	El tablón	4	Abril	2023-09-04T00:00:00	2024-11-06T01:00:00	1	Precipitación	0
147272	7	Sololá	701	Sololá	2	El tablón	4	Abril	2023-09-04T00:00:00	2024-11-06T01:00:00	8	Radiación solar	0
147273	7	Sololá	701	Sololá	2	El tablón	4	Abril	2023-09-04T00:00:00	2024-11-06T02:00:00	2	Temperatura media	9.9
147274	7	Sololá	701	Sololá	2	El tablón	4	Abril	2023-09-04T00:00:00	2024-11-06T02:00:00	4	Temperatura máxima	10.4
147275	7	Sololá	701	Sololá	2	El tablón	4	Abril	2023-09-04T00:00:00	2024-11-06T02:00:00	3	Temperatura mínima	9.8
147276	7	Sololá	701	Sololá	2	El tablón	4	Abril	2023-09-04T00:00:00	2024-11-06T02:00:00	5	Humedad	80
147277	7	Sololá	701	Sololá	2	El tablón	4	Abril	2023-09-04T00:00:00	2024-11-06T02:00:00	6	Velocidad del viento	12.9
147278	7	Sololá	701	Sololá	2	El tablón	4	Abril	2023-09-04T00:00:00	2024-11-06T02:00:00	7	Dirección del viento	12.87
147279	7	Sololá	701	Sololá	2	El tablón	4	Abril	2023-09-04T00:00:00	2024-11-06T02:00:00	1	Precipitación	0
147280	7	Sololá	701	Sololá	2	El tablón	4	Abril	2023-09-04T00:00:00	2024-11-06T02:00:00	8	Radiación solar	0
147281	7	Sololá	701	Sololá	2	El tablón	4	Abril	2023-09-04T00:00:00	2024-11-06T03:00:00	2	Temperatura media	10.5
147282	7	Sololá	701	Sololá	2	El tablón	4	Abril	2023-09-04T00:00:00	2024-11-06T03:00:00	4	Temperatura máxima	10.5
147283	7	Sololá	701	Sololá	2	El tablón	4	Abril	2023-09-04T00:00:00	2024-11-06T03:00:00	3	Temperatura mínima	9.9
147284	7	Sololá	701	Sololá	2	El tablón	4	Abril	2023-09-04T00:00:00	2024-11-06T03:00:00	5	Humedad	75
147285	7	Sololá	701	Sololá	2	El tablón	4	Abril	2023-09-04T00:00:00	2024-11-06T03:00:00	6	Velocidad del viento	12.9
147286	7	Sololá	701	Sololá	2	El tablón	4	Abril	2023-09-04T00:00:00	2024-11-06T03:00:00	7	Dirección del viento	12.87
147287	7	Sololá	701	Sololá	2	El tablón	4	Abril	2023-09-04T00:00:00	2024-11-06T03:00:00	1	Precipitación	0
147288	7	Sololá	701	Sololá	2	El tablón	4	Abril	2023-09-04T00:00:00	2024-11-06T03:00:00	8	Radiación solar	0
147289	7	Sololá	701	Sololá	2	El tablón	4	Abril	2023-09-04T00:00:00	2024-11-06T04:00:00	2	Temperatura media	10.3
147290	7	Sololá	701	Sololá	2	El tablón	4	Abril	2023-09-04T00:00:00	2024-11-06T04:00:00	4	Temperatura máxima	10.5
147291	7	Sololá	701	Sololá	2	El tablón	4	Abril	2023-09-04T00:00:00	2024-11-06T04:00:00	3	Temperatura mínima	10.3
147292	7	Sololá	701	Sololá	2	El tablón	4	Abril	2023-09-04T00:00:00	2024-11-06T04:00:00	5	Humedad	76
147293	7	Sololá	701	Sololá	2	El tablón	4	Abril	2023-09-04T00:00:00	2024-11-06T04:00:00	6	Velocidad del viento	9.7
147294	7	Sololá	701	Sololá	2	El tablón	4	Abril	2023-09-04T00:00:00	2024-11-06T04:00:00	7	Dirección del viento	9.66
147295	7	Sololá	701	Sololá	2	El tablón	4	Abril	2023-09-04T00:00:00	2024-11-06T04:00:00	1	Precipitación	0
147296	7	Sololá	701	Sololá	2	El tablón	4	Abril	2023-09-04T00:00:00	2024-11-06T04:00:00	8	Radiación solar	0
147297	7	Sololá	701	Sololá	2	El tablón	4	Abril	2023-09-04T00:00:00	2024-11-06T05:00:00	2	Temperatura media	10.1
147298	7	Sololá	701	Sololá	2	El tablón	4	Abril	2023-09-04T00:00:00	2024-11-06T05:00:00	4	Temperatura máxima	10.4
147299	7	Sololá	701	Sololá	2	El tablón	4	Abril	2023-09-04T00:00:00	2024-11-06T05:00:00	3	Temperatura mínima	10.1
147300	7	Sololá	701	Sololá	2	El tablón	4	Abril	2023-09-04T00:00:00	2024-11-06T05:00:00	5	Humedad	80
147301	7	Sololá	701	Sololá	2	El tablón	4	Abril	2023-09-04T00:00:00	2024-11-06T05:00:00	6	Velocidad del viento	9.7
147302	7	Sololá	701	Sololá	2	El tablón	4	Abril	2023-09-04T00:00:00	2024-11-06T05:00:00	7	Dirección del viento	9.66
147303	7	Sololá	701	Sololá	2	El tablón	4	Abril	2023-09-04T00:00:00	2024-11-06T05:00:00	1	Precipitación	0
147304	7	Sololá	701	Sololá	2	El tablón	4	Abril	2023-09-04T00:00:00	2024-11-06T05:00:00	8	Radiación solar	0
147305	7	Sololá	701	Sololá	2	El tablón	4	Abril	2023-09-04T00:00:00	2024-11-06T06:00:00	2	Temperatura media	10.2
147306	7	Sololá	701	Sololá	2	El tablón	4	Abril	2023-09-04T00:00:00	2024-11-06T06:00:00	4	Temperatura máxima	10.2
147307	7	Sololá	701	Sololá	2	El tablón	4	Abril	2023-09-04T00:00:00	2024-11-06T06:00:00	3	Temperatura mínima	9.9
147308	7	Sololá	701	Sololá	2	El tablón	4	Abril	2023-09-04T00:00:00	2024-11-06T06:00:00	5	Humedad	77
147309	7	Sololá	701	Sololá	2	El tablón	4	Abril	2023-09-04T00:00:00	2024-11-06T06:00:00	6	Velocidad del viento	8
147310	7	Sololá	701	Sololá	2	El tablón	4	Abril	2023-09-04T00:00:00	2024-11-06T06:00:00	7	Dirección del viento	8.05
147311	7	Sololá	701	Sololá	2	El tablón	4	Abril	2023-09-04T00:00:00	2024-11-06T06:00:00	1	Precipitación	0
147312	7	Sololá	701	Sololá	2	El tablón	4	Abril	2023-09-04T00:00:00	2024-11-06T06:00:00	8	Radiación solar	0
147313	7	Sololá	701	Sololá	2	El tablón	4	Abril	2023-09-04T00:00:00	2024-11-06T07:00:00	2	Temperatura media	11.8
147314	7	Sololá	701	Sololá	2	El tablón	4	Abril	2023-09-04T00:00:00	2024-11-06T07:00:00	4	Temperatura máxima	11.8
147315	7	Sololá	701	Sololá	2	El tablón	4	Abril	2023-09-04T00:00:00	2024-11-06T07:00:00	3	Temperatura mínima	10.2
147316	7	Sololá	701	Sololá	2	El tablón	4	Abril	2023-09-04T00:00:00	2024-11-06T07:00:00	5	Humedad	72
147317	7	Sololá	701	Sololá	2	El tablón	4	Abril	2023-09-04T00:00:00	2024-11-06T07:00:00	6	Velocidad del viento	9.7
147318	7	Sololá	701	Sololá	2	El tablón	4	Abril	2023-09-04T00:00:00	2024-11-06T07:00:00	7	Dirección del viento	9.66
147319	7	Sololá	701	Sololá	2	El tablón	4	Abril	2023-09-04T00:00:00	2024-11-06T07:00:00	1	Precipitación	0
147320	7	Sololá	701	Sololá	2	El tablón	4	Abril	2023-09-04T00:00:00	2024-11-06T07:00:00	8	Radiación solar	71
147321	7	Sololá	701	Sololá	2	El tablón	4	Abril	2023-09-04T00:00:00	2024-11-06T08:00:00	2	Temperatura media	13.7
147322	7	Sololá	701	Sololá	2	El tablón	4	Abril	2023-09-04T00:00:00	2024-11-06T08:00:00	4	Temperatura máxima	13.7
147323	7	Sololá	701	Sololá	2	El tablón	4	Abril	2023-09-04T00:00:00	2024-11-06T08:00:00	3	Temperatura mínima	11.8
147324	7	Sololá	701	Sololá	2	El tablón	4	Abril	2023-09-04T00:00:00	2024-11-06T08:00:00	5	Humedad	68
147325	7	Sololá	701	Sololá	2	El tablón	4	Abril	2023-09-04T00:00:00	2024-11-06T08:00:00	6	Velocidad del viento	9.7
147326	7	Sololá	701	Sololá	2	El tablón	4	Abril	2023-09-04T00:00:00	2024-11-06T08:00:00	7	Dirección del viento	9.66
147327	7	Sololá	701	Sololá	2	El tablón	4	Abril	2023-09-04T00:00:00	2024-11-06T08:00:00	1	Precipitación	0
147328	7	Sololá	701	Sololá	2	El tablón	4	Abril	2023-09-04T00:00:00	2024-11-06T08:00:00	8	Radiación solar	255
147329	7	Sololá	701	Sololá	2	El tablón	4	Abril	2023-09-04T00:00:00	2024-11-06T09:00:00	2	Temperatura media	14.9
147330	7	Sololá	701	Sololá	2	El tablón	4	Abril	2023-09-04T00:00:00	2024-11-06T09:00:00	4	Temperatura máxima	14.9
147331	7	Sololá	701	Sololá	2	El tablón	4	Abril	2023-09-04T00:00:00	2024-11-06T09:00:00	3	Temperatura mínima	13.7
147332	7	Sololá	701	Sololá	2	El tablón	4	Abril	2023-09-04T00:00:00	2024-11-06T09:00:00	5	Humedad	61
147333	7	Sololá	701	Sololá	2	El tablón	4	Abril	2023-09-04T00:00:00	2024-11-06T09:00:00	6	Velocidad del viento	11.3
147334	7	Sololá	701	Sololá	2	El tablón	4	Abril	2023-09-04T00:00:00	2024-11-06T09:00:00	7	Dirección del viento	11.27
147335	7	Sololá	701	Sololá	2	El tablón	4	Abril	2023-09-04T00:00:00	2024-11-06T09:00:00	1	Precipitación	0
147336	7	Sololá	701	Sololá	2	El tablón	4	Abril	2023-09-04T00:00:00	2024-11-06T09:00:00	8	Radiación solar	436
147337	7	Sololá	701	Sololá	2	El tablón	4	Abril	2023-09-04T00:00:00	2024-11-06T10:00:00	2	Temperatura media	15.8
147338	7	Sololá	701	Sololá	2	El tablón	4	Abril	2023-09-04T00:00:00	2024-11-06T10:00:00	4	Temperatura máxima	15.8
147339	7	Sololá	701	Sololá	2	El tablón	4	Abril	2023-09-04T00:00:00	2024-11-06T10:00:00	3	Temperatura mínima	14.5
147340	7	Sololá	701	Sololá	2	El tablón	4	Abril	2023-09-04T00:00:00	2024-11-06T10:00:00	5	Humedad	61
147341	7	Sololá	701	Sololá	2	El tablón	4	Abril	2023-09-04T00:00:00	2024-11-06T10:00:00	6	Velocidad del viento	12.9
147342	7	Sololá	701	Sololá	2	El tablón	4	Abril	2023-09-04T00:00:00	2024-11-06T10:00:00	7	Dirección del viento	12.87
147343	7	Sololá	701	Sololá	2	El tablón	4	Abril	2023-09-04T00:00:00	2024-11-06T10:00:00	1	Precipitación	0
147344	7	Sololá	701	Sololá	2	El tablón	4	Abril	2023-09-04T00:00:00	2024-11-06T10:00:00	8	Radiación solar	587
147345	7	Sololá	701	Sololá	2	El tablón	4	Abril	2023-09-04T00:00:00	2024-11-06T11:00:00	2	Temperatura media	16.8
147346	7	Sololá	701	Sololá	2	El tablón	4	Abril	2023-09-04T00:00:00	2024-11-06T11:00:00	4	Temperatura máxima	16.8
147347	7	Sololá	701	Sololá	2	El tablón	4	Abril	2023-09-04T00:00:00	2024-11-06T11:00:00	3	Temperatura mínima	15.6
147348	7	Sololá	701	Sololá	2	El tablón	4	Abril	2023-09-04T00:00:00	2024-11-06T11:00:00	5	Humedad	56
147349	7	Sololá	701	Sololá	2	El tablón	4	Abril	2023-09-04T00:00:00	2024-11-06T11:00:00	6	Velocidad del viento	12.9
147350	7	Sololá	701	Sololá	2	El tablón	4	Abril	2023-09-04T00:00:00	2024-11-06T11:00:00	7	Dirección del viento	12.87
147351	7	Sololá	701	Sololá	2	El tablón	4	Abril	2023-09-04T00:00:00	2024-11-06T11:00:00	1	Precipitación	0
147352	7	Sololá	701	Sololá	2	El tablón	4	Abril	2023-09-04T00:00:00	2024-11-06T11:00:00	8	Radiación solar	842
147353	7	Sololá	701	Sololá	2	El tablón	4	Abril	2023-09-04T00:00:00	2024-11-06T12:00:00	2	Temperatura media	18.7
147354	7	Sololá	701	Sololá	2	El tablón	4	Abril	2023-09-04T00:00:00	2024-11-06T12:00:00	4	Temperatura máxima	18.7
147355	7	Sololá	701	Sololá	2	El tablón	4	Abril	2023-09-04T00:00:00	2024-11-06T12:00:00	3	Temperatura mínima	16.8
147356	7	Sololá	701	Sololá	2	El tablón	4	Abril	2023-09-04T00:00:00	2024-11-06T12:00:00	5	Humedad	50
147357	7	Sololá	701	Sololá	2	El tablón	4	Abril	2023-09-04T00:00:00	2024-11-06T12:00:00	6	Velocidad del viento	11.3
147358	7	Sololá	701	Sololá	2	El tablón	4	Abril	2023-09-04T00:00:00	2024-11-06T12:00:00	7	Dirección del viento	11.27
147359	7	Sololá	701	Sololá	2	El tablón	4	Abril	2023-09-04T00:00:00	2024-11-06T12:00:00	1	Precipitación	0
147360	7	Sololá	701	Sololá	2	El tablón	4	Abril	2023-09-04T00:00:00	2024-11-06T12:00:00	8	Radiación solar	938
147361	7	Sololá	701	Sololá	2	El tablón	4	Abril	2023-09-04T00:00:00	2024-11-06T13:00:00	2	Temperatura media	19.3
147362	7	Sololá	701	Sololá	2	El tablón	4	Abril	2023-09-04T00:00:00	2024-11-06T13:00:00	4	Temperatura máxima	19.7
147363	7	Sololá	701	Sololá	2	El tablón	4	Abril	2023-09-04T00:00:00	2024-11-06T13:00:00	3	Temperatura mínima	18.7
147364	7	Sololá	701	Sololá	2	El tablón	4	Abril	2023-09-04T00:00:00	2024-11-06T13:00:00	5	Humedad	47
147365	7	Sololá	701	Sololá	2	El tablón	4	Abril	2023-09-04T00:00:00	2024-11-06T13:00:00	6	Velocidad del viento	11.3
147366	7	Sololá	701	Sololá	2	El tablón	4	Abril	2023-09-04T00:00:00	2024-11-06T13:00:00	7	Dirección del viento	11.27
147367	7	Sololá	701	Sololá	2	El tablón	4	Abril	2023-09-04T00:00:00	2024-11-06T13:00:00	1	Precipitación	0
147368	7	Sololá	701	Sololá	2	El tablón	4	Abril	2023-09-04T00:00:00	2024-11-06T13:00:00	8	Radiación solar	952
147369	7	Sololá	701	Sololá	2	El tablón	4	Abril	2023-09-04T00:00:00	2024-11-06T14:00:00	2	Temperatura media	19.8
147370	7	Sololá	701	Sololá	2	El tablón	4	Abril	2023-09-04T00:00:00	2024-11-06T14:00:00	4	Temperatura máxima	20
147371	7	Sololá	701	Sololá	2	El tablón	4	Abril	2023-09-04T00:00:00	2024-11-06T14:00:00	3	Temperatura mínima	19
147372	7	Sololá	701	Sololá	2	El tablón	4	Abril	2023-09-04T00:00:00	2024-11-06T14:00:00	5	Humedad	45
147373	7	Sololá	701	Sololá	2	El tablón	4	Abril	2023-09-04T00:00:00	2024-11-06T14:00:00	6	Velocidad del viento	11.3
147374	7	Sololá	701	Sololá	2	El tablón	4	Abril	2023-09-04T00:00:00	2024-11-06T14:00:00	7	Dirección del viento	11.27
147375	7	Sololá	701	Sololá	2	El tablón	4	Abril	2023-09-04T00:00:00	2024-11-06T14:00:00	1	Precipitación	0
147376	7	Sololá	701	Sololá	2	El tablón	4	Abril	2023-09-04T00:00:00	2024-11-06T14:00:00	8	Radiación solar	897
147377	7	Sololá	701	Sololá	2	El tablón	4	Abril	2023-09-04T00:00:00	2024-11-06T15:00:00	2	Temperatura media	19.3
147378	7	Sololá	701	Sololá	2	El tablón	4	Abril	2023-09-04T00:00:00	2024-11-06T15:00:00	4	Temperatura máxima	20.2
147379	7	Sololá	701	Sololá	2	El tablón	4	Abril	2023-09-04T00:00:00	2024-11-06T15:00:00	3	Temperatura mínima	19.3
147380	7	Sololá	701	Sololá	2	El tablón	4	Abril	2023-09-04T00:00:00	2024-11-06T15:00:00	5	Humedad	43
147381	7	Sololá	701	Sololá	2	El tablón	4	Abril	2023-09-04T00:00:00	2024-11-06T15:00:00	6	Velocidad del viento	11.3
147382	7	Sololá	701	Sololá	2	El tablón	4	Abril	2023-09-04T00:00:00	2024-11-06T15:00:00	7	Dirección del viento	11.27
147383	7	Sololá	701	Sololá	2	El tablón	4	Abril	2023-09-04T00:00:00	2024-11-06T15:00:00	1	Precipitación	0
147384	7	Sololá	701	Sololá	2	El tablón	4	Abril	2023-09-04T00:00:00	2024-11-06T15:00:00	8	Radiación solar	782
147385	7	Sololá	701	Sololá	2	El tablón	4	Abril	2023-09-04T00:00:00	2024-11-06T16:00:00	2	Temperatura media	19.7
147386	7	Sololá	701	Sololá	2	El tablón	4	Abril	2023-09-04T00:00:00	2024-11-06T16:00:00	4	Temperatura máxima	19.9
147387	7	Sololá	701	Sololá	2	El tablón	4	Abril	2023-09-04T00:00:00	2024-11-06T16:00:00	3	Temperatura mínima	19.3
147388	7	Sololá	701	Sololá	2	El tablón	4	Abril	2023-09-04T00:00:00	2024-11-06T16:00:00	5	Humedad	42
147389	7	Sololá	701	Sololá	2	El tablón	4	Abril	2023-09-04T00:00:00	2024-11-06T16:00:00	6	Velocidad del viento	11.3
147390	7	Sololá	701	Sololá	2	El tablón	4	Abril	2023-09-04T00:00:00	2024-11-06T16:00:00	7	Dirección del viento	11.27
147391	7	Sololá	701	Sololá	2	El tablón	4	Abril	2023-09-04T00:00:00	2024-11-06T16:00:00	1	Precipitación	0
147392	7	Sololá	701	Sololá	2	El tablón	4	Abril	2023-09-04T00:00:00	2024-11-06T16:00:00	8	Radiación solar	601
147393	7	Sololá	701	Sololá	2	El tablón	4	Abril	2023-09-04T00:00:00	2024-11-06T17:00:00	2	Temperatura media	17.8
147394	7	Sololá	701	Sololá	2	El tablón	4	Abril	2023-09-04T00:00:00	2024-11-06T17:00:00	4	Temperatura máxima	19.7
147395	7	Sololá	701	Sololá	2	El tablón	4	Abril	2023-09-04T00:00:00	2024-11-06T17:00:00	3	Temperatura mínima	17.8
147396	7	Sololá	701	Sololá	2	El tablón	4	Abril	2023-09-04T00:00:00	2024-11-06T17:00:00	5	Humedad	46
147397	7	Sololá	701	Sololá	2	El tablón	4	Abril	2023-09-04T00:00:00	2024-11-06T17:00:00	6	Velocidad del viento	11.3
147398	7	Sololá	701	Sololá	2	El tablón	4	Abril	2023-09-04T00:00:00	2024-11-06T17:00:00	7	Dirección del viento	11.27
147399	7	Sololá	701	Sololá	2	El tablón	4	Abril	2023-09-04T00:00:00	2024-11-06T17:00:00	1	Precipitación	0
147400	7	Sololá	701	Sololá	2	El tablón	4	Abril	2023-09-04T00:00:00	2024-11-06T17:00:00	8	Radiación solar	389
147401	7	Sololá	701	Sololá	2	El tablón	4	Abril	2023-09-04T00:00:00	2024-11-06T18:00:00	2	Temperatura media	15.7
147402	7	Sololá	701	Sololá	2	El tablón	4	Abril	2023-09-04T00:00:00	2024-11-06T18:00:00	4	Temperatura máxima	17.9
147403	7	Sololá	701	Sololá	2	El tablón	4	Abril	2023-09-04T00:00:00	2024-11-06T18:00:00	3	Temperatura mínima	15.7
147404	7	Sololá	701	Sololá	2	El tablón	4	Abril	2023-09-04T00:00:00	2024-11-06T18:00:00	5	Humedad	55
147405	7	Sololá	701	Sololá	2	El tablón	4	Abril	2023-09-04T00:00:00	2024-11-06T18:00:00	6	Velocidad del viento	9.7
147406	7	Sololá	701	Sololá	2	El tablón	4	Abril	2023-09-04T00:00:00	2024-11-06T18:00:00	7	Dirección del viento	9.66
147407	7	Sololá	701	Sololá	2	El tablón	4	Abril	2023-09-04T00:00:00	2024-11-06T18:00:00	1	Precipitación	0
147408	7	Sololá	701	Sololá	2	El tablón	4	Abril	2023-09-04T00:00:00	2024-11-06T18:00:00	8	Radiación solar	146
147409	7	Sololá	701	Sololá	2	El tablón	4	Abril	2023-09-04T00:00:00	2024-11-06T19:00:00	2	Temperatura media	13.1
147410	7	Sololá	701	Sololá	2	El tablón	4	Abril	2023-09-04T00:00:00	2024-11-06T19:00:00	4	Temperatura máxima	15.7
147411	7	Sololá	701	Sololá	2	El tablón	4	Abril	2023-09-04T00:00:00	2024-11-06T19:00:00	3	Temperatura mínima	13.1
147412	7	Sololá	701	Sololá	2	El tablón	4	Abril	2023-09-04T00:00:00	2024-11-06T19:00:00	5	Humedad	71
147413	7	Sololá	701	Sololá	2	El tablón	4	Abril	2023-09-04T00:00:00	2024-11-06T19:00:00	6	Velocidad del viento	8
147414	7	Sololá	701	Sololá	2	El tablón	4	Abril	2023-09-04T00:00:00	2024-11-06T19:00:00	7	Dirección del viento	8.05
147415	7	Sololá	701	Sololá	2	El tablón	4	Abril	2023-09-04T00:00:00	2024-11-06T19:00:00	1	Precipitación	0
147416	7	Sololá	701	Sololá	2	El tablón	4	Abril	2023-09-04T00:00:00	2024-11-06T19:00:00	8	Radiación solar	0
147417	7	Sololá	701	Sololá	2	El tablón	4	Abril	2023-09-04T00:00:00	2024-11-06T20:00:00	2	Temperatura media	11.8
147418	7	Sololá	701	Sololá	2	El tablón	4	Abril	2023-09-04T00:00:00	2024-11-06T20:00:00	4	Temperatura máxima	13.1
147419	7	Sololá	701	Sololá	2	El tablón	4	Abril	2023-09-04T00:00:00	2024-11-06T20:00:00	3	Temperatura mínima	11.8
147420	7	Sololá	701	Sololá	2	El tablón	4	Abril	2023-09-04T00:00:00	2024-11-06T20:00:00	5	Humedad	72
147421	7	Sololá	701	Sololá	2	El tablón	4	Abril	2023-09-04T00:00:00	2024-11-06T20:00:00	6	Velocidad del viento	11.3
147422	7	Sololá	701	Sololá	2	El tablón	4	Abril	2023-09-04T00:00:00	2024-11-06T20:00:00	7	Dirección del viento	11.27
147423	7	Sololá	701	Sololá	2	El tablón	4	Abril	2023-09-04T00:00:00	2024-11-06T20:00:00	1	Precipitación	0
147424	7	Sololá	701	Sololá	2	El tablón	4	Abril	2023-09-04T00:00:00	2024-11-06T20:00:00	8	Radiación solar	0
147425	7	Sololá	701	Sololá	2	El tablón	4	Abril	2023-09-04T00:00:00	2024-11-06T21:00:00	2	Temperatura media	11.1
147426	7	Sololá	701	Sololá	2	El tablón	4	Abril	2023-09-04T00:00:00	2024-11-06T21:00:00	4	Temperatura máxima	11.9
147427	7	Sololá	701	Sololá	2	El tablón	4	Abril	2023-09-04T00:00:00	2024-11-06T21:00:00	3	Temperatura mínima	11.1
147428	7	Sololá	701	Sololá	2	El tablón	4	Abril	2023-09-04T00:00:00	2024-11-06T21:00:00	5	Humedad	75
147429	7	Sololá	701	Sololá	2	El tablón	4	Abril	2023-09-04T00:00:00	2024-11-06T21:00:00	6	Velocidad del viento	14.5
147430	7	Sololá	701	Sololá	2	El tablón	4	Abril	2023-09-04T00:00:00	2024-11-06T21:00:00	7	Dirección del viento	14.48
147431	7	Sololá	701	Sololá	2	El tablón	4	Abril	2023-09-04T00:00:00	2024-11-06T21:00:00	1	Precipitación	0
147432	7	Sololá	701	Sololá	2	El tablón	4	Abril	2023-09-04T00:00:00	2024-11-06T21:00:00	8	Radiación solar	0
147433	7	Sololá	701	Sololá	2	El tablón	4	Abril	2023-09-04T00:00:00	2024-11-06T22:00:00	2	Temperatura media	10.9
147434	7	Sololá	701	Sololá	2	El tablón	4	Abril	2023-09-04T00:00:00	2024-11-06T22:00:00	4	Temperatura máxima	11.1
147435	7	Sololá	701	Sololá	2	El tablón	4	Abril	2023-09-04T00:00:00	2024-11-06T22:00:00	3	Temperatura mínima	10.8
147436	7	Sololá	701	Sololá	2	El tablón	4	Abril	2023-09-04T00:00:00	2024-11-06T22:00:00	5	Humedad	76
147437	7	Sololá	701	Sololá	2	El tablón	4	Abril	2023-09-04T00:00:00	2024-11-06T22:00:00	6	Velocidad del viento	11.3
147438	7	Sololá	701	Sololá	2	El tablón	4	Abril	2023-09-04T00:00:00	2024-11-06T22:00:00	7	Dirección del viento	11.27
147439	7	Sololá	701	Sololá	2	El tablón	4	Abril	2023-09-04T00:00:00	2024-11-06T22:00:00	1	Precipitación	0
147440	7	Sololá	701	Sololá	2	El tablón	4	Abril	2023-09-04T00:00:00	2024-11-06T22:00:00	8	Radiación solar	0
147441	7	Sololá	701	Sololá	2	El tablón	4	Abril	2023-09-04T00:00:00	2024-11-06T23:00:00	2	Temperatura media	11.2
147442	7	Sololá	701	Sololá	2	El tablón	4	Abril	2023-09-04T00:00:00	2024-11-06T23:00:00	4	Temperatura máxima	11.2
147443	7	Sololá	701	Sololá	2	El tablón	4	Abril	2023-09-04T00:00:00	2024-11-06T23:00:00	3	Temperatura mínima	10.9
147444	7	Sololá	701	Sololá	2	El tablón	4	Abril	2023-09-04T00:00:00	2024-11-06T23:00:00	5	Humedad	66
147445	7	Sololá	701	Sololá	2	El tablón	4	Abril	2023-09-04T00:00:00	2024-11-06T23:00:00	6	Velocidad del viento	11.3
147446	7	Sololá	701	Sololá	2	El tablón	4	Abril	2023-09-04T00:00:00	2024-11-06T23:00:00	7	Dirección del viento	11.27
147447	7	Sololá	701	Sololá	2	El tablón	4	Abril	2023-09-04T00:00:00	2024-11-06T23:00:00	1	Precipitación	0
147448	7	Sololá	701	Sololá	2	El tablón	4	Abril	2023-09-04T00:00:00	2024-11-06T23:00:00	8	Radiación solar	0
147449	7	Sololá	701	Sololá	2	El tablón	4	Abril	2023-10-04T00:00:00	2024-11-06T00:00:00	2	Temperatura media	10.9
147450	7	Sololá	701	Sololá	2	El tablón	4	Abril	2023-10-04T00:00:00	2024-11-06T00:00:00	4	Temperatura máxima	11.3
147451	7	Sololá	701	Sololá	2	El tablón	4	Abril	2023-10-04T00:00:00	2024-11-06T00:00:00	3	Temperatura mínima	10.9
147452	7	Sololá	701	Sololá	2	El tablón	4	Abril	2023-10-04T00:00:00	2024-11-06T00:00:00	5	Humedad	59
147453	7	Sololá	701	Sololá	2	El tablón	4	Abril	2023-10-04T00:00:00	2024-11-06T00:00:00	6	Velocidad del viento	9.7
147454	7	Sololá	701	Sololá	2	El tablón	4	Abril	2023-10-04T00:00:00	2024-11-06T00:00:00	7	Dirección del viento	9.66
147455	7	Sololá	701	Sololá	2	El tablón	4	Abril	2023-10-04T00:00:00	2024-11-06T00:00:00	1	Precipitación	0
147456	7	Sololá	701	Sololá	2	El tablón	4	Abril	2023-10-04T00:00:00	2024-11-06T00:00:00	8	Radiación solar	0
147457	7	Sololá	701	Sololá	2	El tablón	4	Abril	2023-10-04T00:00:00	2024-11-06T01:00:00	2	Temperatura media	10.4
147458	7	Sololá	701	Sololá	2	El tablón	4	Abril	2023-10-04T00:00:00	2024-11-06T01:00:00	4	Temperatura máxima	11
147459	7	Sololá	701	Sololá	2	El tablón	4	Abril	2023-10-04T00:00:00	2024-11-06T01:00:00	3	Temperatura mínima	10.4
147460	7	Sololá	701	Sololá	2	El tablón	4	Abril	2023-10-04T00:00:00	2024-11-06T01:00:00	5	Humedad	72
147461	7	Sololá	701	Sololá	2	El tablón	4	Abril	2023-10-04T00:00:00	2024-11-06T01:00:00	6	Velocidad del viento	11.3
147462	7	Sololá	701	Sololá	2	El tablón	4	Abril	2023-10-04T00:00:00	2024-11-06T01:00:00	7	Dirección del viento	11.27
147463	7	Sololá	701	Sololá	2	El tablón	4	Abril	2023-10-04T00:00:00	2024-11-06T01:00:00	1	Precipitación	0
147464	7	Sololá	701	Sololá	2	El tablón	4	Abril	2023-10-04T00:00:00	2024-11-06T01:00:00	8	Radiación solar	0
147465	7	Sololá	701	Sololá	2	El tablón	4	Abril	2023-10-04T00:00:00	2024-11-06T02:00:00	2	Temperatura media	10.2
147466	7	Sololá	701	Sololá	2	El tablón	4	Abril	2023-10-04T00:00:00	2024-11-06T02:00:00	4	Temperatura máxima	10.5
147467	7	Sololá	701	Sololá	2	El tablón	4	Abril	2023-10-04T00:00:00	2024-11-06T02:00:00	3	Temperatura mínima	10.2
147468	7	Sololá	701	Sololá	2	El tablón	4	Abril	2023-10-04T00:00:00	2024-11-06T02:00:00	5	Humedad	73
147469	7	Sololá	701	Sololá	2	El tablón	4	Abril	2023-10-04T00:00:00	2024-11-06T02:00:00	6	Velocidad del viento	11.3
147470	7	Sololá	701	Sololá	2	El tablón	4	Abril	2023-10-04T00:00:00	2024-11-06T02:00:00	7	Dirección del viento	11.27
147471	7	Sololá	701	Sololá	2	El tablón	4	Abril	2023-10-04T00:00:00	2024-11-06T02:00:00	1	Precipitación	0
147472	7	Sololá	701	Sololá	2	El tablón	4	Abril	2023-10-04T00:00:00	2024-11-06T02:00:00	8	Radiación solar	0
147473	7	Sololá	701	Sololá	2	El tablón	4	Abril	2023-10-04T00:00:00	2024-11-06T03:00:00	2	Temperatura media	10.5
147474	7	Sololá	701	Sololá	2	El tablón	4	Abril	2023-10-04T00:00:00	2024-11-06T03:00:00	4	Temperatura máxima	10.6
147475	7	Sololá	701	Sololá	2	El tablón	4	Abril	2023-10-04T00:00:00	2024-11-06T03:00:00	3	Temperatura mínima	10.2
147476	7	Sololá	701	Sololá	2	El tablón	4	Abril	2023-10-04T00:00:00	2024-11-06T03:00:00	5	Humedad	73
147477	7	Sololá	701	Sololá	2	El tablón	4	Abril	2023-10-04T00:00:00	2024-11-06T03:00:00	6	Velocidad del viento	9.7
147478	7	Sololá	701	Sololá	2	El tablón	4	Abril	2023-10-04T00:00:00	2024-11-06T03:00:00	7	Dirección del viento	9.66
147479	7	Sololá	701	Sololá	2	El tablón	4	Abril	2023-10-04T00:00:00	2024-11-06T03:00:00	1	Precipitación	0
147480	7	Sololá	701	Sololá	2	El tablón	4	Abril	2023-10-04T00:00:00	2024-11-06T03:00:00	8	Radiación solar	0
147481	7	Sololá	701	Sololá	2	El tablón	4	Abril	2023-10-04T00:00:00	2024-11-06T04:00:00	2	Temperatura media	10.4
147482	7	Sololá	701	Sololá	2	El tablón	4	Abril	2023-10-04T00:00:00	2024-11-06T04:00:00	4	Temperatura máxima	10.6
147483	7	Sololá	701	Sololá	2	El tablón	4	Abril	2023-10-04T00:00:00	2024-11-06T04:00:00	3	Temperatura mínima	10.3
147484	7	Sololá	701	Sololá	2	El tablón	4	Abril	2023-10-04T00:00:00	2024-11-06T04:00:00	5	Humedad	74
147485	7	Sololá	701	Sololá	2	El tablón	4	Abril	2023-10-04T00:00:00	2024-11-06T04:00:00	6	Velocidad del viento	12.9
147486	7	Sololá	701	Sololá	2	El tablón	4	Abril	2023-10-04T00:00:00	2024-11-06T04:00:00	7	Dirección del viento	12.87
147487	7	Sololá	701	Sololá	2	El tablón	4	Abril	2023-10-04T00:00:00	2024-11-06T04:00:00	1	Precipitación	0
147488	7	Sololá	701	Sololá	2	El tablón	4	Abril	2023-10-04T00:00:00	2024-11-06T04:00:00	8	Radiación solar	0
147489	7	Sololá	701	Sololá	2	El tablón	4	Abril	2023-10-04T00:00:00	2024-11-06T05:00:00	2	Temperatura media	10.3
147490	7	Sololá	701	Sololá	2	El tablón	4	Abril	2023-10-04T00:00:00	2024-11-06T05:00:00	4	Temperatura máxima	10.4
147491	7	Sololá	701	Sololá	2	El tablón	4	Abril	2023-10-04T00:00:00	2024-11-06T05:00:00	3	Temperatura mínima	10.2
147492	7	Sololá	701	Sololá	2	El tablón	4	Abril	2023-10-04T00:00:00	2024-11-06T05:00:00	5	Humedad	75
147493	7	Sololá	701	Sololá	2	El tablón	4	Abril	2023-10-04T00:00:00	2024-11-06T05:00:00	6	Velocidad del viento	14.5
147494	7	Sololá	701	Sololá	2	El tablón	4	Abril	2023-10-04T00:00:00	2024-11-06T05:00:00	7	Dirección del viento	14.48
147495	7	Sololá	701	Sololá	2	El tablón	4	Abril	2023-10-04T00:00:00	2024-11-06T05:00:00	1	Precipitación	0
147496	7	Sololá	701	Sololá	2	El tablón	4	Abril	2023-10-04T00:00:00	2024-11-06T05:00:00	8	Radiación solar	0
147497	7	Sololá	701	Sololá	2	El tablón	4	Abril	2023-10-04T00:00:00	2024-11-06T06:00:00	2	Temperatura media	10.1
147498	7	Sololá	701	Sololá	2	El tablón	4	Abril	2023-10-04T00:00:00	2024-11-06T06:00:00	4	Temperatura máxima	10.3
147499	7	Sololá	701	Sololá	2	El tablón	4	Abril	2023-10-04T00:00:00	2024-11-06T06:00:00	3	Temperatura mínima	10.1
147500	7	Sololá	701	Sololá	2	El tablón	4	Abril	2023-10-04T00:00:00	2024-11-06T06:00:00	5	Humedad	76
147501	7	Sololá	701	Sololá	2	El tablón	4	Abril	2023-10-04T00:00:00	2024-11-06T06:00:00	6	Velocidad del viento	12.9
147502	7	Sololá	701	Sololá	2	El tablón	4	Abril	2023-10-04T00:00:00	2024-11-06T06:00:00	7	Dirección del viento	12.87
147503	7	Sololá	701	Sololá	2	El tablón	4	Abril	2023-10-04T00:00:00	2024-11-06T06:00:00	1	Precipitación	0
147504	7	Sololá	701	Sololá	2	El tablón	4	Abril	2023-10-04T00:00:00	2024-11-06T06:00:00	8	Radiación solar	0
147505	7	Sololá	701	Sololá	2	El tablón	4	Abril	2023-10-04T00:00:00	2024-11-06T07:00:00	2	Temperatura media	10.9
147506	7	Sololá	701	Sololá	2	El tablón	4	Abril	2023-10-04T00:00:00	2024-11-06T07:00:00	4	Temperatura máxima	10.9
147507	7	Sololá	701	Sololá	2	El tablón	4	Abril	2023-10-04T00:00:00	2024-11-06T07:00:00	3	Temperatura mínima	10.1
147508	7	Sololá	701	Sololá	2	El tablón	4	Abril	2023-10-04T00:00:00	2024-11-06T07:00:00	5	Humedad	74
147509	7	Sololá	701	Sololá	2	El tablón	4	Abril	2023-10-04T00:00:00	2024-11-06T07:00:00	6	Velocidad del viento	12.9
147510	7	Sololá	701	Sololá	2	El tablón	4	Abril	2023-10-04T00:00:00	2024-11-06T07:00:00	7	Dirección del viento	12.87
147511	7	Sololá	701	Sololá	2	El tablón	4	Abril	2023-10-04T00:00:00	2024-11-06T07:00:00	1	Precipitación	0
147512	7	Sololá	701	Sololá	2	El tablón	4	Abril	2023-10-04T00:00:00	2024-11-06T07:00:00	8	Radiación solar	72
147513	7	Sololá	701	Sololá	2	El tablón	4	Abril	2023-10-04T00:00:00	2024-11-06T08:00:00	2	Temperatura media	12.2
147514	7	Sololá	701	Sololá	2	El tablón	4	Abril	2023-10-04T00:00:00	2024-11-06T08:00:00	4	Temperatura máxima	12.2
147515	7	Sololá	701	Sololá	2	El tablón	4	Abril	2023-10-04T00:00:00	2024-11-06T08:00:00	3	Temperatura mínima	10.9
147516	7	Sololá	701	Sololá	2	El tablón	4	Abril	2023-10-04T00:00:00	2024-11-06T08:00:00	5	Humedad	70
147517	7	Sololá	701	Sololá	2	El tablón	4	Abril	2023-10-04T00:00:00	2024-11-06T08:00:00	6	Velocidad del viento	17.7
147518	7	Sololá	701	Sololá	2	El tablón	4	Abril	2023-10-04T00:00:00	2024-11-06T08:00:00	7	Dirección del viento	17.7
147519	7	Sololá	701	Sololá	2	El tablón	4	Abril	2023-10-04T00:00:00	2024-11-06T08:00:00	1	Precipitación	0
147520	7	Sololá	701	Sololá	2	El tablón	4	Abril	2023-10-04T00:00:00	2024-11-06T08:00:00	8	Radiación solar	264
147521	7	Sololá	701	Sololá	2	El tablón	4	Abril	2023-10-04T00:00:00	2024-11-06T09:00:00	2	Temperatura media	13.7
147522	7	Sololá	701	Sololá	2	El tablón	4	Abril	2023-10-04T00:00:00	2024-11-06T09:00:00	4	Temperatura máxima	13.7
147523	7	Sololá	701	Sololá	2	El tablón	4	Abril	2023-10-04T00:00:00	2024-11-06T09:00:00	3	Temperatura mínima	12.2
147524	7	Sololá	701	Sololá	2	El tablón	4	Abril	2023-10-04T00:00:00	2024-11-06T09:00:00	5	Humedad	66
147525	7	Sololá	701	Sololá	2	El tablón	4	Abril	2023-10-04T00:00:00	2024-11-06T09:00:00	6	Velocidad del viento	17.7
147526	7	Sololá	701	Sololá	2	El tablón	4	Abril	2023-10-04T00:00:00	2024-11-06T09:00:00	7	Dirección del viento	17.7
147527	7	Sololá	701	Sololá	2	El tablón	4	Abril	2023-10-04T00:00:00	2024-11-06T09:00:00	1	Precipitación	0
147528	7	Sololá	701	Sololá	2	El tablón	4	Abril	2023-10-04T00:00:00	2024-11-06T09:00:00	8	Radiación solar	432
147529	7	Sololá	701	Sololá	2	El tablón	4	Abril	2023-10-04T00:00:00	2024-11-06T10:00:00	2	Temperatura media	15.5
147530	7	Sololá	701	Sololá	2	El tablón	4	Abril	2023-10-04T00:00:00	2024-11-06T10:00:00	4	Temperatura máxima	15.6
147531	7	Sololá	701	Sololá	2	El tablón	4	Abril	2023-10-04T00:00:00	2024-11-06T10:00:00	3	Temperatura mínima	13.6
147532	7	Sololá	701	Sololá	2	El tablón	4	Abril	2023-10-04T00:00:00	2024-11-06T10:00:00	5	Humedad	60
147533	7	Sololá	701	Sololá	2	El tablón	4	Abril	2023-10-04T00:00:00	2024-11-06T10:00:00	6	Velocidad del viento	14.5
147534	7	Sololá	701	Sololá	2	El tablón	4	Abril	2023-10-04T00:00:00	2024-11-06T10:00:00	7	Dirección del viento	14.48
147535	7	Sololá	701	Sololá	2	El tablón	4	Abril	2023-10-04T00:00:00	2024-11-06T10:00:00	1	Precipitación	0
147536	7	Sololá	701	Sololá	2	El tablón	4	Abril	2023-10-04T00:00:00	2024-11-06T10:00:00	8	Radiación solar	587
147537	7	Sololá	701	Sololá	2	El tablón	4	Abril	2023-10-04T00:00:00	2024-11-06T11:00:00	2	Temperatura media	16.8
147538	7	Sololá	701	Sololá	2	El tablón	4	Abril	2023-10-04T00:00:00	2024-11-06T11:00:00	4	Temperatura máxima	16.9
147539	7	Sololá	701	Sololá	2	El tablón	4	Abril	2023-10-04T00:00:00	2024-11-06T11:00:00	3	Temperatura mínima	15.4
147540	7	Sololá	701	Sololá	2	El tablón	4	Abril	2023-10-04T00:00:00	2024-11-06T11:00:00	5	Humedad	55
147541	7	Sololá	701	Sololá	2	El tablón	4	Abril	2023-10-04T00:00:00	2024-11-06T11:00:00	6	Velocidad del viento	14.5
147542	7	Sololá	701	Sololá	2	El tablón	4	Abril	2023-10-04T00:00:00	2024-11-06T11:00:00	7	Dirección del viento	14.48
147543	7	Sololá	701	Sololá	2	El tablón	4	Abril	2023-10-04T00:00:00	2024-11-06T11:00:00	1	Precipitación	0
147544	7	Sololá	701	Sololá	2	El tablón	4	Abril	2023-10-04T00:00:00	2024-11-06T11:00:00	8	Radiación solar	798
147545	7	Sololá	701	Sololá	2	El tablón	4	Abril	2023-10-04T00:00:00	2024-11-06T12:00:00	2	Temperatura media	18.5
147546	7	Sololá	701	Sololá	2	El tablón	4	Abril	2023-10-04T00:00:00	2024-11-06T12:00:00	4	Temperatura máxima	18.5
147547	7	Sololá	701	Sololá	2	El tablón	4	Abril	2023-10-04T00:00:00	2024-11-06T12:00:00	3	Temperatura mínima	16.7
147548	7	Sololá	701	Sololá	2	El tablón	4	Abril	2023-10-04T00:00:00	2024-11-06T12:00:00	5	Humedad	50
147549	7	Sololá	701	Sololá	2	El tablón	4	Abril	2023-10-04T00:00:00	2024-11-06T12:00:00	6	Velocidad del viento	12.9
147550	7	Sololá	701	Sololá	2	El tablón	4	Abril	2023-10-04T00:00:00	2024-11-06T12:00:00	7	Dirección del viento	12.87
147551	7	Sololá	701	Sololá	2	El tablón	4	Abril	2023-10-04T00:00:00	2024-11-06T12:00:00	1	Precipitación	0
147552	7	Sololá	701	Sololá	2	El tablón	4	Abril	2023-10-04T00:00:00	2024-11-06T12:00:00	8	Radiación solar	939
147553	7	Sololá	701	Sololá	2	El tablón	4	Abril	2023-10-04T00:00:00	2024-11-06T13:00:00	2	Temperatura media	18.7
147554	7	Sololá	701	Sololá	2	El tablón	4	Abril	2023-10-04T00:00:00	2024-11-06T13:00:00	4	Temperatura máxima	19.2
147555	7	Sololá	701	Sololá	2	El tablón	4	Abril	2023-10-04T00:00:00	2024-11-06T13:00:00	3	Temperatura mínima	18.2
147556	7	Sololá	701	Sololá	2	El tablón	4	Abril	2023-10-04T00:00:00	2024-11-06T13:00:00	5	Humedad	50
147557	7	Sololá	701	Sololá	2	El tablón	4	Abril	2023-10-04T00:00:00	2024-11-06T13:00:00	6	Velocidad del viento	12.9
147558	7	Sololá	701	Sololá	2	El tablón	4	Abril	2023-10-04T00:00:00	2024-11-06T13:00:00	7	Dirección del viento	12.87
147559	7	Sololá	701	Sololá	2	El tablón	4	Abril	2023-10-04T00:00:00	2024-11-06T13:00:00	1	Precipitación	0
147560	7	Sololá	701	Sololá	2	El tablón	4	Abril	2023-10-04T00:00:00	2024-11-06T13:00:00	8	Radiación solar	950
147561	7	Sololá	701	Sololá	2	El tablón	4	Abril	2023-10-04T00:00:00	2024-11-06T14:00:00	2	Temperatura media	18.8
147562	7	Sololá	701	Sololá	2	El tablón	4	Abril	2023-10-04T00:00:00	2024-11-06T14:00:00	4	Temperatura máxima	19.4
147563	7	Sololá	701	Sololá	2	El tablón	4	Abril	2023-10-04T00:00:00	2024-11-06T14:00:00	3	Temperatura mínima	18.5
147564	7	Sololá	701	Sololá	2	El tablón	4	Abril	2023-10-04T00:00:00	2024-11-06T14:00:00	5	Humedad	49
147565	7	Sololá	701	Sololá	2	El tablón	4	Abril	2023-10-04T00:00:00	2024-11-06T14:00:00	6	Velocidad del viento	12.9
147566	7	Sololá	701	Sololá	2	El tablón	4	Abril	2023-10-04T00:00:00	2024-11-06T14:00:00	7	Dirección del viento	12.87
147567	7	Sololá	701	Sololá	2	El tablón	4	Abril	2023-10-04T00:00:00	2024-11-06T14:00:00	1	Precipitación	0
147568	7	Sololá	701	Sololá	2	El tablón	4	Abril	2023-10-04T00:00:00	2024-11-06T14:00:00	8	Radiación solar	896
147569	7	Sololá	701	Sololá	2	El tablón	4	Abril	2023-10-04T00:00:00	2024-11-06T15:00:00	2	Temperatura media	19.1
147570	7	Sololá	701	Sololá	2	El tablón	4	Abril	2023-10-04T00:00:00	2024-11-06T15:00:00	4	Temperatura máxima	19.2
147571	7	Sololá	701	Sololá	2	El tablón	4	Abril	2023-10-04T00:00:00	2024-11-06T15:00:00	3	Temperatura mínima	18.6
147572	7	Sololá	701	Sololá	2	El tablón	4	Abril	2023-10-04T00:00:00	2024-11-06T15:00:00	5	Humedad	49
147573	7	Sololá	701	Sololá	2	El tablón	4	Abril	2023-10-04T00:00:00	2024-11-06T15:00:00	6	Velocidad del viento	12.9
147574	7	Sololá	701	Sololá	2	El tablón	4	Abril	2023-10-04T00:00:00	2024-11-06T15:00:00	7	Dirección del viento	12.87
147575	7	Sololá	701	Sololá	2	El tablón	4	Abril	2023-10-04T00:00:00	2024-11-06T15:00:00	1	Precipitación	0
147576	7	Sololá	701	Sololá	2	El tablón	4	Abril	2023-10-04T00:00:00	2024-11-06T15:00:00	8	Radiación solar	793
147577	7	Sololá	701	Sololá	2	El tablón	4	Abril	2023-10-04T00:00:00	2024-11-06T16:00:00	2	Temperatura media	17.8
147578	7	Sololá	701	Sololá	2	El tablón	4	Abril	2023-10-04T00:00:00	2024-11-06T16:00:00	4	Temperatura máxima	19.1
147579	7	Sololá	701	Sololá	2	El tablón	4	Abril	2023-10-04T00:00:00	2024-11-06T16:00:00	3	Temperatura mínima	17.8
147580	7	Sololá	701	Sololá	2	El tablón	4	Abril	2023-10-04T00:00:00	2024-11-06T16:00:00	5	Humedad	51
147581	7	Sololá	701	Sololá	2	El tablón	4	Abril	2023-10-04T00:00:00	2024-11-06T16:00:00	6	Velocidad del viento	12.9
147582	7	Sololá	701	Sololá	2	El tablón	4	Abril	2023-10-04T00:00:00	2024-11-06T16:00:00	7	Dirección del viento	12.87
147583	7	Sololá	701	Sololá	2	El tablón	4	Abril	2023-10-04T00:00:00	2024-11-06T16:00:00	1	Precipitación	0
147584	7	Sololá	701	Sololá	2	El tablón	4	Abril	2023-10-04T00:00:00	2024-11-06T16:00:00	8	Radiación solar	562
147585	7	Sololá	701	Sololá	2	El tablón	4	Abril	2023-10-04T00:00:00	2024-11-06T17:00:00	2	Temperatura media	16.7
147586	7	Sololá	701	Sololá	2	El tablón	4	Abril	2023-10-04T00:00:00	2024-11-06T17:00:00	4	Temperatura máxima	18
147587	7	Sololá	701	Sololá	2	El tablón	4	Abril	2023-10-04T00:00:00	2024-11-06T17:00:00	3	Temperatura mínima	16.7
147588	7	Sololá	701	Sololá	2	El tablón	4	Abril	2023-10-04T00:00:00	2024-11-06T17:00:00	5	Humedad	57
147589	7	Sololá	701	Sololá	2	El tablón	4	Abril	2023-10-04T00:00:00	2024-11-06T17:00:00	6	Velocidad del viento	11.3
147590	7	Sololá	701	Sololá	2	El tablón	4	Abril	2023-10-04T00:00:00	2024-11-06T17:00:00	7	Dirección del viento	11.27
147591	7	Sololá	701	Sololá	2	El tablón	4	Abril	2023-10-04T00:00:00	2024-11-06T17:00:00	1	Precipitación	0
147592	7	Sololá	701	Sololá	2	El tablón	4	Abril	2023-10-04T00:00:00	2024-11-06T17:00:00	8	Radiación solar	416
147593	7	Sololá	701	Sololá	2	El tablón	4	Abril	2023-10-04T00:00:00	2024-11-06T18:00:00	2	Temperatura media	14.7
147594	7	Sololá	701	Sololá	2	El tablón	4	Abril	2023-10-04T00:00:00	2024-11-06T18:00:00	4	Temperatura máxima	16.7
147595	7	Sololá	701	Sololá	2	El tablón	4	Abril	2023-10-04T00:00:00	2024-11-06T18:00:00	3	Temperatura mínima	14.7
147596	7	Sololá	701	Sololá	2	El tablón	4	Abril	2023-10-04T00:00:00	2024-11-06T18:00:00	5	Humedad	64
147597	7	Sololá	701	Sololá	2	El tablón	4	Abril	2023-10-04T00:00:00	2024-11-06T18:00:00	6	Velocidad del viento	9.7
147598	7	Sololá	701	Sololá	2	El tablón	4	Abril	2023-10-04T00:00:00	2024-11-06T18:00:00	7	Dirección del viento	9.66
147599	7	Sololá	701	Sololá	2	El tablón	4	Abril	2023-10-04T00:00:00	2024-11-06T18:00:00	1	Precipitación	0
147600	7	Sololá	701	Sololá	2	El tablón	4	Abril	2023-10-04T00:00:00	2024-11-06T18:00:00	8	Radiación solar	151
147601	7	Sololá	701	Sololá	2	El tablón	4	Abril	2023-10-04T00:00:00	2024-11-06T19:00:00	2	Temperatura media	12.6
147602	7	Sololá	701	Sololá	2	El tablón	4	Abril	2023-10-04T00:00:00	2024-11-06T19:00:00	4	Temperatura máxima	14.7
147603	7	Sololá	701	Sololá	2	El tablón	4	Abril	2023-10-04T00:00:00	2024-11-06T19:00:00	3	Temperatura mínima	12.6
147604	7	Sololá	701	Sololá	2	El tablón	4	Abril	2023-10-04T00:00:00	2024-11-06T19:00:00	5	Humedad	75
147605	7	Sololá	701	Sololá	2	El tablón	4	Abril	2023-10-04T00:00:00	2024-11-06T19:00:00	6	Velocidad del viento	11.3
147606	7	Sololá	701	Sololá	2	El tablón	4	Abril	2023-10-04T00:00:00	2024-11-06T19:00:00	7	Dirección del viento	11.27
147607	7	Sololá	701	Sololá	2	El tablón	4	Abril	2023-10-04T00:00:00	2024-11-06T19:00:00	1	Precipitación	0
147608	7	Sololá	701	Sololá	2	El tablón	4	Abril	2023-10-04T00:00:00	2024-11-06T19:00:00	8	Radiación solar	0
147609	7	Sololá	701	Sololá	2	El tablón	4	Abril	2023-10-04T00:00:00	2024-11-06T20:00:00	2	Temperatura media	11.3
147610	7	Sololá	701	Sololá	2	El tablón	4	Abril	2023-10-04T00:00:00	2024-11-06T20:00:00	4	Temperatura máxima	12.6
147611	7	Sololá	701	Sololá	2	El tablón	4	Abril	2023-10-04T00:00:00	2024-11-06T20:00:00	3	Temperatura mínima	11.3
147612	7	Sololá	701	Sololá	2	El tablón	4	Abril	2023-10-04T00:00:00	2024-11-06T20:00:00	5	Humedad	83
147613	7	Sololá	701	Sololá	2	El tablón	4	Abril	2023-10-04T00:00:00	2024-11-06T20:00:00	6	Velocidad del viento	14.5
147614	7	Sololá	701	Sololá	2	El tablón	4	Abril	2023-10-04T00:00:00	2024-11-06T20:00:00	7	Dirección del viento	14.48
147615	7	Sololá	701	Sololá	2	El tablón	4	Abril	2023-10-04T00:00:00	2024-11-06T20:00:00	1	Precipitación	0
147616	7	Sololá	701	Sololá	2	El tablón	4	Abril	2023-10-04T00:00:00	2024-11-06T20:00:00	8	Radiación solar	0
147617	7	Sololá	701	Sololá	2	El tablón	4	Abril	2023-10-04T00:00:00	2024-11-06T21:00:00	2	Temperatura media	10.7
147618	7	Sololá	701	Sololá	2	El tablón	4	Abril	2023-10-04T00:00:00	2024-11-06T21:00:00	4	Temperatura máxima	11.3
147619	7	Sololá	701	Sololá	2	El tablón	4	Abril	2023-10-04T00:00:00	2024-11-06T21:00:00	3	Temperatura mínima	10.7
147620	7	Sololá	701	Sololá	2	El tablón	4	Abril	2023-10-04T00:00:00	2024-11-06T21:00:00	5	Humedad	83
147621	7	Sololá	701	Sololá	2	El tablón	4	Abril	2023-10-04T00:00:00	2024-11-06T21:00:00	6	Velocidad del viento	16.1
147622	7	Sololá	701	Sololá	2	El tablón	4	Abril	2023-10-04T00:00:00	2024-11-06T21:00:00	7	Dirección del viento	16.09
147623	7	Sololá	701	Sololá	2	El tablón	4	Abril	2023-10-04T00:00:00	2024-11-06T21:00:00	1	Precipitación	0
147624	7	Sololá	701	Sololá	2	El tablón	4	Abril	2023-10-04T00:00:00	2024-11-06T21:00:00	8	Radiación solar	0
147625	7	Sololá	701	Sololá	2	El tablón	4	Abril	2023-10-04T00:00:00	2024-11-06T22:00:00	2	Temperatura media	10.8
147626	7	Sololá	701	Sololá	2	El tablón	4	Abril	2023-10-04T00:00:00	2024-11-06T22:00:00	4	Temperatura máxima	10.8
147627	7	Sololá	701	Sololá	2	El tablón	4	Abril	2023-10-04T00:00:00	2024-11-06T22:00:00	3	Temperatura mínima	10.7
147628	7	Sololá	701	Sololá	2	El tablón	4	Abril	2023-10-04T00:00:00	2024-11-06T22:00:00	5	Humedad	76
147629	7	Sololá	701	Sololá	2	El tablón	4	Abril	2023-10-04T00:00:00	2024-11-06T22:00:00	6	Velocidad del viento	19.3
147630	7	Sololá	701	Sololá	2	El tablón	4	Abril	2023-10-04T00:00:00	2024-11-06T22:00:00	7	Dirección del viento	19.31
147631	7	Sololá	701	Sololá	2	El tablón	4	Abril	2023-10-04T00:00:00	2024-11-06T22:00:00	1	Precipitación	0
147632	7	Sololá	701	Sololá	2	El tablón	4	Abril	2023-10-04T00:00:00	2024-11-06T22:00:00	8	Radiación solar	0
147633	7	Sololá	701	Sololá	2	El tablón	4	Abril	2023-10-04T00:00:00	2024-11-06T23:00:00	2	Temperatura media	11
147634	7	Sololá	701	Sololá	2	El tablón	4	Abril	2023-10-04T00:00:00	2024-11-06T23:00:00	4	Temperatura máxima	11.1
147635	7	Sololá	701	Sololá	2	El tablón	4	Abril	2023-10-04T00:00:00	2024-11-06T23:00:00	3	Temperatura mínima	10.8
147636	7	Sololá	701	Sololá	2	El tablón	4	Abril	2023-10-04T00:00:00	2024-11-06T23:00:00	5	Humedad	76
147637	7	Sololá	701	Sololá	2	El tablón	4	Abril	2023-10-04T00:00:00	2024-11-06T23:00:00	6	Velocidad del viento	22.5
147638	7	Sololá	701	Sololá	2	El tablón	4	Abril	2023-10-04T00:00:00	2024-11-06T23:00:00	7	Dirección del viento	22.53
147639	7	Sololá	701	Sololá	2	El tablón	4	Abril	2023-10-04T00:00:00	2024-11-06T23:00:00	1	Precipitación	0
147640	7	Sololá	701	Sololá	2	El tablón	4	Abril	2023-10-04T00:00:00	2024-11-06T23:00:00	8	Radiación solar	0
147641	7	Sololá	701	Sololá	2	El tablón	4	Abril	2023-11-04T00:00:00	2024-11-06T00:00:00	2	Temperatura media	10.7
147642	7	Sololá	701	Sololá	2	El tablón	4	Abril	2023-11-04T00:00:00	2024-11-06T00:00:00	4	Temperatura máxima	11
147643	7	Sololá	701	Sololá	2	El tablón	4	Abril	2023-11-04T00:00:00	2024-11-06T00:00:00	3	Temperatura mínima	10.7
147644	7	Sololá	701	Sololá	2	El tablón	4	Abril	2023-11-04T00:00:00	2024-11-06T00:00:00	5	Humedad	76
147645	7	Sololá	701	Sololá	2	El tablón	4	Abril	2023-11-04T00:00:00	2024-11-06T00:00:00	6	Velocidad del viento	17.7
147646	7	Sololá	701	Sololá	2	El tablón	4	Abril	2023-11-04T00:00:00	2024-11-06T00:00:00	7	Dirección del viento	17.7
147647	7	Sololá	701	Sololá	2	El tablón	4	Abril	2023-11-04T00:00:00	2024-11-06T00:00:00	1	Precipitación	0
147648	7	Sololá	701	Sololá	2	El tablón	4	Abril	2023-11-04T00:00:00	2024-11-06T00:00:00	8	Radiación solar	0
147649	7	Sololá	701	Sololá	2	El tablón	4	Abril	2023-11-04T00:00:00	2024-11-06T01:00:00	2	Temperatura media	10.5
147650	7	Sololá	701	Sololá	2	El tablón	4	Abril	2023-11-04T00:00:00	2024-11-06T01:00:00	4	Temperatura máxima	10.7
147651	7	Sololá	701	Sololá	2	El tablón	4	Abril	2023-11-04T00:00:00	2024-11-06T01:00:00	3	Temperatura mínima	10.5
147652	7	Sololá	701	Sololá	2	El tablón	4	Abril	2023-11-04T00:00:00	2024-11-06T01:00:00	5	Humedad	77
147653	7	Sololá	701	Sololá	2	El tablón	4	Abril	2023-11-04T00:00:00	2024-11-06T01:00:00	6	Velocidad del viento	14.5
147654	7	Sololá	701	Sololá	2	El tablón	4	Abril	2023-11-04T00:00:00	2024-11-06T01:00:00	7	Dirección del viento	14.48
147655	7	Sololá	701	Sololá	2	El tablón	4	Abril	2023-11-04T00:00:00	2024-11-06T01:00:00	1	Precipitación	0
147656	7	Sololá	701	Sololá	2	El tablón	4	Abril	2023-11-04T00:00:00	2024-11-06T01:00:00	8	Radiación solar	0
147657	7	Sololá	701	Sololá	2	El tablón	4	Abril	2023-11-04T00:00:00	2024-11-06T02:00:00	2	Temperatura media	10.5
147658	7	Sololá	701	Sololá	2	El tablón	4	Abril	2023-11-04T00:00:00	2024-11-06T02:00:00	4	Temperatura máxima	10.6
147659	7	Sololá	701	Sololá	2	El tablón	4	Abril	2023-11-04T00:00:00	2024-11-06T02:00:00	3	Temperatura mínima	10.4
147660	7	Sololá	701	Sololá	2	El tablón	4	Abril	2023-11-04T00:00:00	2024-11-06T02:00:00	5	Humedad	78
147661	7	Sololá	701	Sololá	2	El tablón	4	Abril	2023-11-04T00:00:00	2024-11-06T02:00:00	6	Velocidad del viento	12.9
147662	7	Sololá	701	Sololá	2	El tablón	4	Abril	2023-11-04T00:00:00	2024-11-06T02:00:00	7	Dirección del viento	12.87
147663	7	Sololá	701	Sololá	2	El tablón	4	Abril	2023-11-04T00:00:00	2024-11-06T02:00:00	1	Precipitación	0
147664	7	Sololá	701	Sololá	2	El tablón	4	Abril	2023-11-04T00:00:00	2024-11-06T02:00:00	8	Radiación solar	0
147665	7	Sololá	701	Sololá	2	El tablón	4	Abril	2023-11-04T00:00:00	2024-11-06T03:00:00	2	Temperatura media	10.2
147666	7	Sololá	701	Sololá	2	El tablón	4	Abril	2023-11-04T00:00:00	2024-11-06T03:00:00	4	Temperatura máxima	10.5
147667	7	Sololá	701	Sololá	2	El tablón	4	Abril	2023-11-04T00:00:00	2024-11-06T03:00:00	3	Temperatura mínima	10.1
147668	7	Sololá	701	Sololá	2	El tablón	4	Abril	2023-11-04T00:00:00	2024-11-06T03:00:00	5	Humedad	80
147669	7	Sololá	701	Sololá	2	El tablón	4	Abril	2023-11-04T00:00:00	2024-11-06T03:00:00	6	Velocidad del viento	16.1
147670	7	Sololá	701	Sololá	2	El tablón	4	Abril	2023-11-04T00:00:00	2024-11-06T03:00:00	7	Dirección del viento	16.09
147671	7	Sololá	701	Sololá	2	El tablón	4	Abril	2023-11-04T00:00:00	2024-11-06T03:00:00	1	Precipitación	0
147672	7	Sololá	701	Sololá	2	El tablón	4	Abril	2023-11-04T00:00:00	2024-11-06T03:00:00	8	Radiación solar	0
147673	7	Sololá	701	Sololá	2	El tablón	4	Abril	2023-11-04T00:00:00	2024-11-06T04:00:00	2	Temperatura media	10.5
147674	7	Sololá	701	Sololá	2	El tablón	4	Abril	2023-11-04T00:00:00	2024-11-06T04:00:00	4	Temperatura máxima	10.5
147675	7	Sololá	701	Sololá	2	El tablón	4	Abril	2023-11-04T00:00:00	2024-11-06T04:00:00	3	Temperatura mínima	10.2
147676	7	Sololá	701	Sololá	2	El tablón	4	Abril	2023-11-04T00:00:00	2024-11-06T04:00:00	5	Humedad	77
147677	7	Sololá	701	Sololá	2	El tablón	4	Abril	2023-11-04T00:00:00	2024-11-06T04:00:00	6	Velocidad del viento	14.5
147678	7	Sololá	701	Sololá	2	El tablón	4	Abril	2023-11-04T00:00:00	2024-11-06T04:00:00	7	Dirección del viento	14.48
147679	7	Sololá	701	Sololá	2	El tablón	4	Abril	2023-11-04T00:00:00	2024-11-06T04:00:00	1	Precipitación	0
147680	7	Sololá	701	Sololá	2	El tablón	4	Abril	2023-11-04T00:00:00	2024-11-06T04:00:00	8	Radiación solar	0
147681	7	Sololá	701	Sololá	2	El tablón	4	Abril	2023-11-04T00:00:00	2024-11-06T05:00:00	2	Temperatura media	10.4
147682	7	Sololá	701	Sololá	2	El tablón	4	Abril	2023-11-04T00:00:00	2024-11-06T05:00:00	4	Temperatura máxima	10.6
147683	7	Sololá	701	Sololá	2	El tablón	4	Abril	2023-11-04T00:00:00	2024-11-06T05:00:00	3	Temperatura mínima	10.4
147684	7	Sololá	701	Sololá	2	El tablón	4	Abril	2023-11-04T00:00:00	2024-11-06T05:00:00	5	Humedad	79
147685	7	Sololá	701	Sololá	2	El tablón	4	Abril	2023-11-04T00:00:00	2024-11-06T05:00:00	6	Velocidad del viento	11.3
147686	7	Sololá	701	Sololá	2	El tablón	4	Abril	2023-11-04T00:00:00	2024-11-06T05:00:00	7	Dirección del viento	11.27
147687	7	Sololá	701	Sololá	2	El tablón	4	Abril	2023-11-04T00:00:00	2024-11-06T05:00:00	1	Precipitación	0
147688	7	Sololá	701	Sololá	2	El tablón	4	Abril	2023-11-04T00:00:00	2024-11-06T05:00:00	8	Radiación solar	0
147689	7	Sololá	701	Sololá	2	El tablón	4	Abril	2023-11-04T00:00:00	2024-11-06T06:00:00	2	Temperatura media	10.2
147690	7	Sololá	701	Sololá	2	El tablón	4	Abril	2023-11-04T00:00:00	2024-11-06T06:00:00	4	Temperatura máxima	10.5
147691	7	Sololá	701	Sololá	2	El tablón	4	Abril	2023-11-04T00:00:00	2024-11-06T06:00:00	3	Temperatura mínima	10.2
147692	7	Sololá	701	Sololá	2	El tablón	4	Abril	2023-11-04T00:00:00	2024-11-06T06:00:00	5	Humedad	82
147693	7	Sololá	701	Sololá	2	El tablón	4	Abril	2023-11-04T00:00:00	2024-11-06T06:00:00	6	Velocidad del viento	14.5
147694	7	Sololá	701	Sololá	2	El tablón	4	Abril	2023-11-04T00:00:00	2024-11-06T06:00:00	7	Dirección del viento	14.48
147695	7	Sololá	701	Sololá	2	El tablón	4	Abril	2023-11-04T00:00:00	2024-11-06T06:00:00	1	Precipitación	0
147696	7	Sololá	701	Sololá	2	El tablón	4	Abril	2023-11-04T00:00:00	2024-11-06T06:00:00	8	Radiación solar	0
147697	7	Sololá	701	Sololá	2	El tablón	4	Abril	2023-11-04T00:00:00	2024-11-06T07:00:00	2	Temperatura media	11.2
147698	7	Sololá	701	Sololá	2	El tablón	4	Abril	2023-11-04T00:00:00	2024-11-06T07:00:00	4	Temperatura máxima	11.2
147699	7	Sololá	701	Sololá	2	El tablón	4	Abril	2023-11-04T00:00:00	2024-11-06T07:00:00	3	Temperatura mínima	10.2
147700	7	Sololá	701	Sololá	2	El tablón	4	Abril	2023-11-04T00:00:00	2024-11-06T07:00:00	5	Humedad	78
147701	7	Sololá	701	Sololá	2	El tablón	4	Abril	2023-11-04T00:00:00	2024-11-06T07:00:00	6	Velocidad del viento	16.1
147702	7	Sololá	701	Sololá	2	El tablón	4	Abril	2023-11-04T00:00:00	2024-11-06T07:00:00	7	Dirección del viento	16.09
147703	7	Sololá	701	Sololá	2	El tablón	4	Abril	2023-11-04T00:00:00	2024-11-06T07:00:00	1	Precipitación	0
147704	7	Sololá	701	Sololá	2	El tablón	4	Abril	2023-11-04T00:00:00	2024-11-06T07:00:00	8	Radiación solar	60
147705	7	Sololá	701	Sololá	2	El tablón	4	Abril	2023-11-04T00:00:00	2024-11-06T08:00:00	2	Temperatura media	12.8
147706	7	Sololá	701	Sololá	2	El tablón	4	Abril	2023-11-04T00:00:00	2024-11-06T08:00:00	4	Temperatura máxima	12.9
147707	7	Sololá	701	Sololá	2	El tablón	4	Abril	2023-11-04T00:00:00	2024-11-06T08:00:00	3	Temperatura mínima	11.3
147708	7	Sololá	701	Sololá	2	El tablón	4	Abril	2023-11-04T00:00:00	2024-11-06T08:00:00	5	Humedad	72
147709	7	Sololá	701	Sololá	2	El tablón	4	Abril	2023-11-04T00:00:00	2024-11-06T08:00:00	6	Velocidad del viento	12.9
147710	7	Sololá	701	Sololá	2	El tablón	4	Abril	2023-11-04T00:00:00	2024-11-06T08:00:00	7	Dirección del viento	12.87
147711	7	Sololá	701	Sololá	2	El tablón	4	Abril	2023-11-04T00:00:00	2024-11-06T08:00:00	1	Precipitación	0
147712	7	Sololá	701	Sololá	2	El tablón	4	Abril	2023-11-04T00:00:00	2024-11-06T08:00:00	8	Radiación solar	271
147713	7	Sololá	701	Sololá	2	El tablón	4	Abril	2023-11-04T00:00:00	2024-11-06T09:00:00	2	Temperatura media	14.4
147714	7	Sololá	701	Sololá	2	El tablón	4	Abril	2023-11-04T00:00:00	2024-11-06T09:00:00	4	Temperatura máxima	14.4
147715	7	Sololá	701	Sololá	2	El tablón	4	Abril	2023-11-04T00:00:00	2024-11-06T09:00:00	3	Temperatura mínima	12.8
147716	7	Sololá	701	Sololá	2	El tablón	4	Abril	2023-11-04T00:00:00	2024-11-06T09:00:00	5	Humedad	70
147717	7	Sololá	701	Sololá	2	El tablón	4	Abril	2023-11-04T00:00:00	2024-11-06T09:00:00	6	Velocidad del viento	14.5
147718	7	Sololá	701	Sololá	2	El tablón	4	Abril	2023-11-04T00:00:00	2024-11-06T09:00:00	7	Dirección del viento	14.48
147719	7	Sololá	701	Sololá	2	El tablón	4	Abril	2023-11-04T00:00:00	2024-11-06T09:00:00	1	Precipitación	0
147720	7	Sololá	701	Sololá	2	El tablón	4	Abril	2023-11-04T00:00:00	2024-11-06T09:00:00	8	Radiación solar	424
147721	7	Sololá	701	Sololá	2	El tablón	4	Abril	2023-11-04T00:00:00	2024-11-06T10:00:00	2	Temperatura media	16.4
147722	7	Sololá	701	Sololá	2	El tablón	4	Abril	2023-11-04T00:00:00	2024-11-06T10:00:00	4	Temperatura máxima	16.4
147723	7	Sololá	701	Sololá	2	El tablón	4	Abril	2023-11-04T00:00:00	2024-11-06T10:00:00	3	Temperatura mínima	14.4
147724	7	Sololá	701	Sololá	2	El tablón	4	Abril	2023-11-04T00:00:00	2024-11-06T10:00:00	5	Humedad	59
147725	7	Sololá	701	Sololá	2	El tablón	4	Abril	2023-11-04T00:00:00	2024-11-06T10:00:00	6	Velocidad del viento	14.5
147726	7	Sololá	701	Sololá	2	El tablón	4	Abril	2023-11-04T00:00:00	2024-11-06T10:00:00	7	Dirección del viento	14.48
147727	7	Sololá	701	Sololá	2	El tablón	4	Abril	2023-11-04T00:00:00	2024-11-06T10:00:00	1	Precipitación	0
147728	7	Sololá	701	Sololá	2	El tablón	4	Abril	2023-11-04T00:00:00	2024-11-06T10:00:00	8	Radiación solar	597
147729	7	Sololá	701	Sololá	2	El tablón	4	Abril	2023-11-04T00:00:00	2024-11-06T11:00:00	2	Temperatura media	17.7
147730	7	Sololá	701	Sololá	2	El tablón	4	Abril	2023-11-04T00:00:00	2024-11-06T11:00:00	4	Temperatura máxima	17.8
147731	7	Sololá	701	Sololá	2	El tablón	4	Abril	2023-11-04T00:00:00	2024-11-06T11:00:00	3	Temperatura mínima	16.3
147732	7	Sololá	701	Sololá	2	El tablón	4	Abril	2023-11-04T00:00:00	2024-11-06T11:00:00	5	Humedad	54
147733	7	Sololá	701	Sololá	2	El tablón	4	Abril	2023-11-04T00:00:00	2024-11-06T11:00:00	6	Velocidad del viento	16.1
147734	7	Sololá	701	Sololá	2	El tablón	4	Abril	2023-11-04T00:00:00	2024-11-06T11:00:00	7	Dirección del viento	16.09
147735	7	Sololá	701	Sololá	2	El tablón	4	Abril	2023-11-04T00:00:00	2024-11-06T11:00:00	1	Precipitación	0
147736	7	Sololá	701	Sololá	2	El tablón	4	Abril	2023-11-04T00:00:00	2024-11-06T11:00:00	8	Radiación solar	786
147737	7	Sololá	701	Sololá	2	El tablón	4	Abril	2023-11-04T00:00:00	2024-11-06T12:00:00	2	Temperatura media	19.1
147738	7	Sololá	701	Sololá	2	El tablón	4	Abril	2023-11-04T00:00:00	2024-11-06T12:00:00	4	Temperatura máxima	19.1
147739	7	Sololá	701	Sololá	2	El tablón	4	Abril	2023-11-04T00:00:00	2024-11-06T12:00:00	3	Temperatura mínima	17.7
147740	7	Sololá	701	Sololá	2	El tablón	4	Abril	2023-11-04T00:00:00	2024-11-06T12:00:00	5	Humedad	49
147741	7	Sololá	701	Sololá	2	El tablón	4	Abril	2023-11-04T00:00:00	2024-11-06T12:00:00	6	Velocidad del viento	14.5
147742	7	Sololá	701	Sololá	2	El tablón	4	Abril	2023-11-04T00:00:00	2024-11-06T12:00:00	7	Dirección del viento	14.48
147743	7	Sololá	701	Sololá	2	El tablón	4	Abril	2023-11-04T00:00:00	2024-11-06T12:00:00	1	Precipitación	0
147744	7	Sololá	701	Sololá	2	El tablón	4	Abril	2023-11-04T00:00:00	2024-11-06T12:00:00	8	Radiación solar	931
147745	7	Sololá	701	Sololá	2	El tablón	4	Abril	2023-11-04T00:00:00	2024-11-06T13:00:00	2	Temperatura media	19.4
147746	7	Sololá	701	Sololá	2	El tablón	4	Abril	2023-11-04T00:00:00	2024-11-06T13:00:00	4	Temperatura máxima	19.6
147747	7	Sololá	701	Sololá	2	El tablón	4	Abril	2023-11-04T00:00:00	2024-11-06T13:00:00	3	Temperatura mínima	18.9
147748	7	Sololá	701	Sololá	2	El tablón	4	Abril	2023-11-04T00:00:00	2024-11-06T13:00:00	5	Humedad	49
147749	7	Sololá	701	Sololá	2	El tablón	4	Abril	2023-11-04T00:00:00	2024-11-06T13:00:00	6	Velocidad del viento	12.9
147750	7	Sololá	701	Sololá	2	El tablón	4	Abril	2023-11-04T00:00:00	2024-11-06T13:00:00	7	Dirección del viento	12.87
147751	7	Sololá	701	Sololá	2	El tablón	4	Abril	2023-11-04T00:00:00	2024-11-06T13:00:00	1	Precipitación	0
147752	7	Sololá	701	Sololá	2	El tablón	4	Abril	2023-11-04T00:00:00	2024-11-06T13:00:00	8	Radiación solar	953
147753	7	Sololá	701	Sololá	2	El tablón	4	Abril	2023-11-04T00:00:00	2024-11-06T14:00:00	2	Temperatura media	18.6
147754	7	Sololá	701	Sololá	2	El tablón	4	Abril	2023-11-04T00:00:00	2024-11-06T14:00:00	4	Temperatura máxima	20.3
147755	7	Sololá	701	Sololá	2	El tablón	4	Abril	2023-11-04T00:00:00	2024-11-06T14:00:00	3	Temperatura mínima	18.6
147756	7	Sololá	701	Sololá	2	El tablón	4	Abril	2023-11-04T00:00:00	2024-11-06T14:00:00	5	Humedad	69
147757	7	Sololá	701	Sololá	2	El tablón	4	Abril	2023-11-04T00:00:00	2024-11-06T14:00:00	6	Velocidad del viento	11.3
147758	7	Sololá	701	Sololá	2	El tablón	4	Abril	2023-11-04T00:00:00	2024-11-06T14:00:00	7	Dirección del viento	11.27
147759	7	Sololá	701	Sololá	2	El tablón	4	Abril	2023-11-04T00:00:00	2024-11-06T14:00:00	1	Precipitación	0
147760	7	Sololá	701	Sololá	2	El tablón	4	Abril	2023-11-04T00:00:00	2024-11-06T14:00:00	8	Radiación solar	841
147761	7	Sololá	701	Sololá	2	El tablón	4	Abril	2023-11-04T00:00:00	2024-11-06T15:00:00	2	Temperatura media	17.9
147762	7	Sololá	701	Sololá	2	El tablón	4	Abril	2023-11-04T00:00:00	2024-11-06T15:00:00	4	Temperatura máxima	18.9
147763	7	Sololá	701	Sololá	2	El tablón	4	Abril	2023-11-04T00:00:00	2024-11-06T15:00:00	3	Temperatura mínima	17.8
147764	7	Sololá	701	Sololá	2	El tablón	4	Abril	2023-11-04T00:00:00	2024-11-06T15:00:00	5	Humedad	73
147765	7	Sololá	701	Sololá	2	El tablón	4	Abril	2023-11-04T00:00:00	2024-11-06T15:00:00	6	Velocidad del viento	8
147766	7	Sololá	701	Sololá	2	El tablón	4	Abril	2023-11-04T00:00:00	2024-11-06T15:00:00	7	Dirección del viento	8.05
147767	7	Sololá	701	Sololá	2	El tablón	4	Abril	2023-11-04T00:00:00	2024-11-06T15:00:00	1	Precipitación	0
147768	7	Sololá	701	Sololá	2	El tablón	4	Abril	2023-11-04T00:00:00	2024-11-06T15:00:00	8	Radiación solar	499
147769	7	Sololá	701	Sololá	2	El tablón	4	Abril	2023-11-04T00:00:00	2024-11-06T16:00:00	2	Temperatura media	17.2
147770	7	Sololá	701	Sololá	2	El tablón	4	Abril	2023-11-04T00:00:00	2024-11-06T16:00:00	4	Temperatura máxima	18.1
147771	7	Sololá	701	Sololá	2	El tablón	4	Abril	2023-11-04T00:00:00	2024-11-06T16:00:00	3	Temperatura mínima	17.2
147772	7	Sololá	701	Sololá	2	El tablón	4	Abril	2023-11-04T00:00:00	2024-11-06T16:00:00	5	Humedad	75
147773	7	Sololá	701	Sololá	2	El tablón	4	Abril	2023-11-04T00:00:00	2024-11-06T16:00:00	6	Velocidad del viento	8
147774	7	Sololá	701	Sololá	2	El tablón	4	Abril	2023-11-04T00:00:00	2024-11-06T16:00:00	7	Dirección del viento	8.05
147775	7	Sololá	701	Sololá	2	El tablón	4	Abril	2023-11-04T00:00:00	2024-11-06T16:00:00	1	Precipitación	0
147776	7	Sololá	701	Sololá	2	El tablón	4	Abril	2023-11-04T00:00:00	2024-11-06T16:00:00	8	Radiación solar	362
147777	7	Sololá	701	Sololá	2	El tablón	4	Abril	2023-11-04T00:00:00	2024-11-06T17:00:00	2	Temperatura media	16.4
147778	7	Sololá	701	Sololá	2	El tablón	4	Abril	2023-11-04T00:00:00	2024-11-06T17:00:00	4	Temperatura máxima	17.2
147779	7	Sololá	701	Sololá	2	El tablón	4	Abril	2023-11-04T00:00:00	2024-11-06T17:00:00	3	Temperatura mínima	16.1
147780	7	Sololá	701	Sololá	2	El tablón	4	Abril	2023-11-04T00:00:00	2024-11-06T17:00:00	5	Humedad	80
147781	7	Sololá	701	Sololá	2	El tablón	4	Abril	2023-11-04T00:00:00	2024-11-06T17:00:00	6	Velocidad del viento	8
147782	7	Sololá	701	Sololá	2	El tablón	4	Abril	2023-11-04T00:00:00	2024-11-06T17:00:00	7	Dirección del viento	8.05
147783	7	Sololá	701	Sololá	2	El tablón	4	Abril	2023-11-04T00:00:00	2024-11-06T17:00:00	1	Precipitación	0
147784	7	Sololá	701	Sololá	2	El tablón	4	Abril	2023-11-04T00:00:00	2024-11-06T17:00:00	8	Radiación solar	199
147785	7	Sololá	701	Sololá	2	El tablón	4	Abril	2023-11-04T00:00:00	2024-11-06T18:00:00	2	Temperatura media	15.6
147786	7	Sololá	701	Sololá	2	El tablón	4	Abril	2023-11-04T00:00:00	2024-11-06T18:00:00	4	Temperatura máxima	16.4
147787	7	Sololá	701	Sololá	2	El tablón	4	Abril	2023-11-04T00:00:00	2024-11-06T18:00:00	3	Temperatura mínima	15.6
147788	7	Sololá	701	Sololá	2	El tablón	4	Abril	2023-11-04T00:00:00	2024-11-06T18:00:00	5	Humedad	75
147789	7	Sololá	701	Sololá	2	El tablón	4	Abril	2023-11-04T00:00:00	2024-11-06T18:00:00	6	Velocidad del viento	3.2
147790	7	Sololá	701	Sololá	2	El tablón	4	Abril	2023-11-04T00:00:00	2024-11-06T18:00:00	7	Dirección del viento	3.22
147791	7	Sololá	701	Sololá	2	El tablón	4	Abril	2023-11-04T00:00:00	2024-11-06T18:00:00	1	Precipitación	0
147792	7	Sololá	701	Sololá	2	El tablón	4	Abril	2023-11-04T00:00:00	2024-11-06T18:00:00	8	Radiación solar	75
147793	7	Sololá	701	Sololá	2	El tablón	4	Abril	2023-11-04T00:00:00	2024-11-06T19:00:00	2	Temperatura media	14.5
147794	7	Sololá	701	Sololá	2	El tablón	4	Abril	2023-11-04T00:00:00	2024-11-06T19:00:00	4	Temperatura máxima	15.7
147795	7	Sololá	701	Sololá	2	El tablón	4	Abril	2023-11-04T00:00:00	2024-11-06T19:00:00	3	Temperatura mínima	14.5
147796	7	Sololá	701	Sololá	2	El tablón	4	Abril	2023-11-04T00:00:00	2024-11-06T19:00:00	5	Humedad	71
147797	7	Sololá	701	Sololá	2	El tablón	4	Abril	2023-11-04T00:00:00	2024-11-06T19:00:00	6	Velocidad del viento	6.4
147798	7	Sololá	701	Sololá	2	El tablón	4	Abril	2023-11-04T00:00:00	2024-11-06T19:00:00	7	Dirección del viento	6.44
147799	7	Sololá	701	Sololá	2	El tablón	4	Abril	2023-11-04T00:00:00	2024-11-06T19:00:00	1	Precipitación	0
147800	7	Sololá	701	Sololá	2	El tablón	4	Abril	2023-11-04T00:00:00	2024-11-06T19:00:00	8	Radiación solar	0
147801	7	Sololá	701	Sololá	2	El tablón	4	Abril	2023-11-04T00:00:00	2024-11-06T20:00:00	2	Temperatura media	13.5
147802	7	Sololá	701	Sololá	2	El tablón	4	Abril	2023-11-04T00:00:00	2024-11-06T20:00:00	4	Temperatura máxima	14.5
147803	7	Sololá	701	Sololá	2	El tablón	4	Abril	2023-11-04T00:00:00	2024-11-06T20:00:00	3	Temperatura mínima	13.5
147804	7	Sololá	701	Sololá	2	El tablón	4	Abril	2023-11-04T00:00:00	2024-11-06T20:00:00	5	Humedad	77
147805	7	Sololá	701	Sololá	2	El tablón	4	Abril	2023-11-04T00:00:00	2024-11-06T20:00:00	6	Velocidad del viento	6.4
147806	7	Sololá	701	Sololá	2	El tablón	4	Abril	2023-11-04T00:00:00	2024-11-06T20:00:00	7	Dirección del viento	6.44
147807	7	Sololá	701	Sololá	2	El tablón	4	Abril	2023-11-04T00:00:00	2024-11-06T20:00:00	1	Precipitación	0
147808	7	Sololá	701	Sololá	2	El tablón	4	Abril	2023-11-04T00:00:00	2024-11-06T20:00:00	8	Radiación solar	0
147809	7	Sololá	701	Sololá	2	El tablón	4	Abril	2023-11-04T00:00:00	2024-11-06T21:00:00	2	Temperatura media	12.4
147810	7	Sololá	701	Sololá	2	El tablón	4	Abril	2023-11-04T00:00:00	2024-11-06T21:00:00	4	Temperatura máxima	13.5
147811	7	Sololá	701	Sololá	2	El tablón	4	Abril	2023-11-04T00:00:00	2024-11-06T21:00:00	3	Temperatura mínima	12.4
147812	7	Sololá	701	Sololá	2	El tablón	4	Abril	2023-11-04T00:00:00	2024-11-06T21:00:00	5	Humedad	84
147813	7	Sololá	701	Sololá	2	El tablón	4	Abril	2023-11-04T00:00:00	2024-11-06T21:00:00	6	Velocidad del viento	8
147814	7	Sololá	701	Sololá	2	El tablón	4	Abril	2023-11-04T00:00:00	2024-11-06T21:00:00	7	Dirección del viento	8.05
147815	7	Sololá	701	Sololá	2	El tablón	4	Abril	2023-11-04T00:00:00	2024-11-06T21:00:00	1	Precipitación	0
147816	7	Sololá	701	Sololá	2	El tablón	4	Abril	2023-11-04T00:00:00	2024-11-06T21:00:00	8	Radiación solar	0
147817	7	Sololá	701	Sololá	2	El tablón	4	Abril	2023-11-04T00:00:00	2024-11-06T22:00:00	2	Temperatura media	11.6
147818	7	Sololá	701	Sololá	2	El tablón	4	Abril	2023-11-04T00:00:00	2024-11-06T22:00:00	4	Temperatura máxima	12.4
147819	7	Sololá	701	Sololá	2	El tablón	4	Abril	2023-11-04T00:00:00	2024-11-06T22:00:00	3	Temperatura mínima	11.6
147820	7	Sololá	701	Sololá	2	El tablón	4	Abril	2023-11-04T00:00:00	2024-11-06T22:00:00	5	Humedad	83
147821	7	Sololá	701	Sololá	2	El tablón	4	Abril	2023-11-04T00:00:00	2024-11-06T22:00:00	6	Velocidad del viento	8
147822	7	Sololá	701	Sololá	2	El tablón	4	Abril	2023-11-04T00:00:00	2024-11-06T22:00:00	7	Dirección del viento	8.05
147823	7	Sololá	701	Sololá	2	El tablón	4	Abril	2023-11-04T00:00:00	2024-11-06T22:00:00	1	Precipitación	0
147824	7	Sololá	701	Sololá	2	El tablón	4	Abril	2023-11-04T00:00:00	2024-11-06T22:00:00	8	Radiación solar	0
147825	7	Sololá	701	Sololá	2	El tablón	4	Abril	2023-11-04T00:00:00	2024-11-06T23:00:00	2	Temperatura media	11.2
147826	7	Sololá	701	Sololá	2	El tablón	4	Abril	2023-11-04T00:00:00	2024-11-06T23:00:00	4	Temperatura máxima	11.6
147827	7	Sololá	701	Sololá	2	El tablón	4	Abril	2023-11-04T00:00:00	2024-11-06T23:00:00	3	Temperatura mínima	11.2
147828	7	Sololá	701	Sololá	2	El tablón	4	Abril	2023-11-04T00:00:00	2024-11-06T23:00:00	5	Humedad	86
147829	7	Sololá	701	Sololá	2	El tablón	4	Abril	2023-11-04T00:00:00	2024-11-06T23:00:00	6	Velocidad del viento	9.7
147830	7	Sololá	701	Sololá	2	El tablón	4	Abril	2023-11-04T00:00:00	2024-11-06T23:00:00	7	Dirección del viento	9.66
147831	7	Sololá	701	Sololá	2	El tablón	4	Abril	2023-11-04T00:00:00	2024-11-06T23:00:00	1	Precipitación	0
147832	7	Sololá	701	Sololá	2	El tablón	4	Abril	2023-11-04T00:00:00	2024-11-06T23:00:00	8	Radiación solar	0
147833	7	Sololá	701	Sololá	2	El tablón	4	Abril	2023-12-04T00:00:00	2024-11-06T00:00:00	2	Temperatura media	10.9
147834	7	Sololá	701	Sololá	2	El tablón	4	Abril	2023-12-04T00:00:00	2024-11-06T00:00:00	4	Temperatura máxima	11.2
147835	7	Sololá	701	Sololá	2	El tablón	4	Abril	2023-12-04T00:00:00	2024-11-06T00:00:00	3	Temperatura mínima	10.9
147836	7	Sololá	701	Sololá	2	El tablón	4	Abril	2023-12-04T00:00:00	2024-11-06T00:00:00	5	Humedad	86
147837	7	Sololá	701	Sololá	2	El tablón	4	Abril	2023-12-04T00:00:00	2024-11-06T00:00:00	6	Velocidad del viento	11.3
147838	7	Sololá	701	Sololá	2	El tablón	4	Abril	2023-12-04T00:00:00	2024-11-06T00:00:00	7	Dirección del viento	11.27
147839	7	Sololá	701	Sololá	2	El tablón	4	Abril	2023-12-04T00:00:00	2024-11-06T00:00:00	1	Precipitación	0
147840	7	Sololá	701	Sololá	2	El tablón	4	Abril	2023-12-04T00:00:00	2024-11-06T00:00:00	8	Radiación solar	0
147841	7	Sololá	701	Sololá	2	El tablón	4	Abril	2023-12-04T00:00:00	2024-11-06T01:00:00	2	Temperatura media	10.8
147842	7	Sololá	701	Sololá	2	El tablón	4	Abril	2023-12-04T00:00:00	2024-11-06T01:00:00	4	Temperatura máxima	11.2
147843	7	Sololá	701	Sololá	2	El tablón	4	Abril	2023-12-04T00:00:00	2024-11-06T01:00:00	3	Temperatura mínima	10.8
147844	7	Sololá	701	Sololá	2	El tablón	4	Abril	2023-12-04T00:00:00	2024-11-06T01:00:00	5	Humedad	84
147845	7	Sololá	701	Sololá	2	El tablón	4	Abril	2023-12-04T00:00:00	2024-11-06T01:00:00	6	Velocidad del viento	9.7
147846	7	Sololá	701	Sololá	2	El tablón	4	Abril	2023-12-04T00:00:00	2024-11-06T01:00:00	7	Dirección del viento	9.66
147847	7	Sololá	701	Sololá	2	El tablón	4	Abril	2023-12-04T00:00:00	2024-11-06T01:00:00	1	Precipitación	0
147848	7	Sololá	701	Sololá	2	El tablón	4	Abril	2023-12-04T00:00:00	2024-11-06T01:00:00	8	Radiación solar	0
147849	7	Sololá	701	Sololá	2	El tablón	4	Abril	2023-12-04T00:00:00	2024-11-06T02:00:00	2	Temperatura media	10.3
147850	7	Sololá	701	Sololá	2	El tablón	4	Abril	2023-12-04T00:00:00	2024-11-06T02:00:00	4	Temperatura máxima	10.8
147851	7	Sololá	701	Sololá	2	El tablón	4	Abril	2023-12-04T00:00:00	2024-11-06T02:00:00	3	Temperatura mínima	10.3
147852	7	Sololá	701	Sololá	2	El tablón	4	Abril	2023-12-04T00:00:00	2024-11-06T02:00:00	5	Humedad	85
147853	7	Sololá	701	Sololá	2	El tablón	4	Abril	2023-12-04T00:00:00	2024-11-06T02:00:00	6	Velocidad del viento	9.7
147854	7	Sololá	701	Sololá	2	El tablón	4	Abril	2023-12-04T00:00:00	2024-11-06T02:00:00	7	Dirección del viento	9.66
147855	7	Sololá	701	Sololá	2	El tablón	4	Abril	2023-12-04T00:00:00	2024-11-06T02:00:00	1	Precipitación	0
147856	7	Sololá	701	Sololá	2	El tablón	4	Abril	2023-12-04T00:00:00	2024-11-06T02:00:00	8	Radiación solar	0
147857	7	Sololá	701	Sololá	2	El tablón	4	Abril	2023-12-04T00:00:00	2024-11-06T03:00:00	2	Temperatura media	10.6
147858	7	Sololá	701	Sololá	2	El tablón	4	Abril	2023-12-04T00:00:00	2024-11-06T03:00:00	4	Temperatura máxima	10.7
147859	7	Sololá	701	Sololá	2	El tablón	4	Abril	2023-12-04T00:00:00	2024-11-06T03:00:00	3	Temperatura mínima	10.3
147860	7	Sololá	701	Sololá	2	El tablón	4	Abril	2023-12-04T00:00:00	2024-11-06T03:00:00	5	Humedad	80
147861	7	Sololá	701	Sololá	2	El tablón	4	Abril	2023-12-04T00:00:00	2024-11-06T03:00:00	6	Velocidad del viento	8
147862	7	Sololá	701	Sololá	2	El tablón	4	Abril	2023-12-04T00:00:00	2024-11-06T03:00:00	7	Dirección del viento	8.05
147863	7	Sololá	701	Sololá	2	El tablón	4	Abril	2023-12-04T00:00:00	2024-11-06T03:00:00	1	Precipitación	0
147864	7	Sololá	701	Sololá	2	El tablón	4	Abril	2023-12-04T00:00:00	2024-11-06T03:00:00	8	Radiación solar	0
147865	7	Sololá	701	Sololá	2	El tablón	4	Abril	2023-12-04T00:00:00	2024-11-06T04:00:00	2	Temperatura media	10.7
147866	7	Sololá	701	Sololá	2	El tablón	4	Abril	2023-12-04T00:00:00	2024-11-06T04:00:00	4	Temperatura máxima	10.7
147867	7	Sololá	701	Sololá	2	El tablón	4	Abril	2023-12-04T00:00:00	2024-11-06T04:00:00	3	Temperatura mínima	10.5
147868	7	Sololá	701	Sololá	2	El tablón	4	Abril	2023-12-04T00:00:00	2024-11-06T04:00:00	5	Humedad	74
147869	7	Sololá	701	Sololá	2	El tablón	4	Abril	2023-12-04T00:00:00	2024-11-06T04:00:00	6	Velocidad del viento	4.8
147870	7	Sololá	701	Sololá	2	El tablón	4	Abril	2023-12-04T00:00:00	2024-11-06T04:00:00	7	Dirección del viento	4.83
147871	7	Sololá	701	Sololá	2	El tablón	4	Abril	2023-12-04T00:00:00	2024-11-06T04:00:00	1	Precipitación	0
147872	7	Sololá	701	Sololá	2	El tablón	4	Abril	2023-12-04T00:00:00	2024-11-06T04:00:00	8	Radiación solar	0
147873	7	Sololá	701	Sololá	2	El tablón	4	Abril	2023-12-04T00:00:00	2024-11-06T05:00:00	2	Temperatura media	10.1
147874	7	Sololá	701	Sololá	2	El tablón	4	Abril	2023-12-04T00:00:00	2024-11-06T05:00:00	4	Temperatura máxima	10.6
147875	7	Sololá	701	Sololá	2	El tablón	4	Abril	2023-12-04T00:00:00	2024-11-06T05:00:00	3	Temperatura mínima	8.9
147876	7	Sololá	701	Sololá	2	El tablón	4	Abril	2023-12-04T00:00:00	2024-11-06T05:00:00	5	Humedad	77
147877	7	Sololá	701	Sololá	2	El tablón	4	Abril	2023-12-04T00:00:00	2024-11-06T05:00:00	6	Velocidad del viento	3.2
147878	7	Sololá	701	Sololá	2	El tablón	4	Abril	2023-12-04T00:00:00	2024-11-06T05:00:00	7	Dirección del viento	3.22
147879	7	Sololá	701	Sololá	2	El tablón	4	Abril	2023-12-04T00:00:00	2024-11-06T05:00:00	1	Precipitación	0
147880	7	Sololá	701	Sololá	2	El tablón	4	Abril	2023-12-04T00:00:00	2024-11-06T05:00:00	8	Radiación solar	0
147881	7	Sololá	701	Sololá	2	El tablón	4	Abril	2023-12-04T00:00:00	2024-11-06T06:00:00	2	Temperatura media	10.7
147882	7	Sololá	701	Sololá	2	El tablón	4	Abril	2023-12-04T00:00:00	2024-11-06T06:00:00	4	Temperatura máxima	10.8
147883	7	Sololá	701	Sololá	2	El tablón	4	Abril	2023-12-04T00:00:00	2024-11-06T06:00:00	3	Temperatura mínima	10.1
147884	7	Sololá	701	Sololá	2	El tablón	4	Abril	2023-12-04T00:00:00	2024-11-06T06:00:00	5	Humedad	77
147885	7	Sololá	701	Sololá	2	El tablón	4	Abril	2023-12-04T00:00:00	2024-11-06T06:00:00	6	Velocidad del viento	1.6
147886	7	Sololá	701	Sololá	2	El tablón	4	Abril	2023-12-04T00:00:00	2024-11-06T06:00:00	7	Dirección del viento	1.61
147887	7	Sololá	701	Sololá	2	El tablón	4	Abril	2023-12-04T00:00:00	2024-11-06T06:00:00	1	Precipitación	0
147888	7	Sololá	701	Sololá	2	El tablón	4	Abril	2023-12-04T00:00:00	2024-11-06T06:00:00	8	Radiación solar	0
147889	7	Sololá	701	Sololá	2	El tablón	4	Abril	2023-12-04T00:00:00	2024-11-06T07:00:00	2	Temperatura media	11.2
147890	7	Sololá	701	Sololá	2	El tablón	4	Abril	2023-12-04T00:00:00	2024-11-06T07:00:00	4	Temperatura máxima	11.2
147891	7	Sololá	701	Sololá	2	El tablón	4	Abril	2023-12-04T00:00:00	2024-11-06T07:00:00	3	Temperatura mínima	10.2
147892	7	Sololá	701	Sololá	2	El tablón	4	Abril	2023-12-04T00:00:00	2024-11-06T07:00:00	5	Humedad	76
147893	7	Sololá	701	Sololá	2	El tablón	4	Abril	2023-12-04T00:00:00	2024-11-06T07:00:00	6	Velocidad del viento	1.6
147894	7	Sololá	701	Sololá	2	El tablón	4	Abril	2023-12-04T00:00:00	2024-11-06T07:00:00	7	Dirección del viento	1.61
147895	7	Sololá	701	Sololá	2	El tablón	4	Abril	2023-12-04T00:00:00	2024-11-06T07:00:00	1	Precipitación	0
147896	7	Sololá	701	Sololá	2	El tablón	4	Abril	2023-12-04T00:00:00	2024-11-06T07:00:00	8	Radiación solar	58
147897	7	Sololá	701	Sololá	2	El tablón	4	Abril	2023-12-04T00:00:00	2024-11-06T08:00:00	2	Temperatura media	14.4
147898	7	Sololá	701	Sololá	2	El tablón	4	Abril	2023-12-04T00:00:00	2024-11-06T08:00:00	4	Temperatura máxima	14.7
147899	7	Sololá	701	Sololá	2	El tablón	4	Abril	2023-12-04T00:00:00	2024-11-06T08:00:00	3	Temperatura mínima	11.2
147900	7	Sololá	701	Sololá	2	El tablón	4	Abril	2023-12-04T00:00:00	2024-11-06T08:00:00	5	Humedad	62
147901	7	Sololá	701	Sololá	2	El tablón	4	Abril	2023-12-04T00:00:00	2024-11-06T08:00:00	6	Velocidad del viento	1.6
147902	7	Sololá	701	Sololá	2	El tablón	4	Abril	2023-12-04T00:00:00	2024-11-06T08:00:00	7	Dirección del viento	1.61
147903	7	Sololá	701	Sololá	2	El tablón	4	Abril	2023-12-04T00:00:00	2024-11-06T08:00:00	1	Precipitación	0
147904	7	Sololá	701	Sololá	2	El tablón	4	Abril	2023-12-04T00:00:00	2024-11-06T08:00:00	8	Radiación solar	192
147905	7	Sololá	701	Sololá	2	El tablón	4	Abril	2023-12-04T00:00:00	2024-11-06T09:00:00	2	Temperatura media	14.6
147906	7	Sololá	701	Sololá	2	El tablón	4	Abril	2023-12-04T00:00:00	2024-11-06T09:00:00	4	Temperatura máxima	15.1
147907	7	Sololá	701	Sololá	2	El tablón	4	Abril	2023-12-04T00:00:00	2024-11-06T09:00:00	3	Temperatura mínima	14.4
147908	7	Sololá	701	Sololá	2	El tablón	4	Abril	2023-12-04T00:00:00	2024-11-06T09:00:00	5	Humedad	69
147909	7	Sololá	701	Sololá	2	El tablón	4	Abril	2023-12-04T00:00:00	2024-11-06T09:00:00	6	Velocidad del viento	4.8
147910	7	Sololá	701	Sololá	2	El tablón	4	Abril	2023-12-04T00:00:00	2024-11-06T09:00:00	7	Dirección del viento	4.83
147911	7	Sololá	701	Sololá	2	El tablón	4	Abril	2023-12-04T00:00:00	2024-11-06T09:00:00	1	Precipitación	0
147912	7	Sololá	701	Sololá	2	El tablón	4	Abril	2023-12-04T00:00:00	2024-11-06T09:00:00	8	Radiación solar	252
147913	7	Sololá	701	Sololá	2	El tablón	4	Abril	2023-12-04T00:00:00	2024-11-06T10:00:00	2	Temperatura media	15.3
147914	7	Sololá	701	Sololá	2	El tablón	4	Abril	2023-12-04T00:00:00	2024-11-06T10:00:00	4	Temperatura máxima	15.7
147915	7	Sololá	701	Sololá	2	El tablón	4	Abril	2023-12-04T00:00:00	2024-11-06T10:00:00	3	Temperatura mínima	14.6
147916	7	Sololá	701	Sololá	2	El tablón	4	Abril	2023-12-04T00:00:00	2024-11-06T10:00:00	5	Humedad	68
147917	7	Sololá	701	Sololá	2	El tablón	4	Abril	2023-12-04T00:00:00	2024-11-06T10:00:00	6	Velocidad del viento	8
147918	7	Sololá	701	Sololá	2	El tablón	4	Abril	2023-12-04T00:00:00	2024-11-06T10:00:00	7	Dirección del viento	8.05
147919	7	Sololá	701	Sololá	2	El tablón	4	Abril	2023-12-04T00:00:00	2024-11-06T10:00:00	1	Precipitación	0
147920	7	Sololá	701	Sololá	2	El tablón	4	Abril	2023-12-04T00:00:00	2024-11-06T10:00:00	8	Radiación solar	324
147921	7	Sololá	701	Sololá	2	El tablón	4	Abril	2023-12-04T00:00:00	2024-11-06T11:00:00	2	Temperatura media	14.8
147922	7	Sololá	701	Sololá	2	El tablón	4	Abril	2023-12-04T00:00:00	2024-11-06T11:00:00	4	Temperatura máxima	15.3
147923	7	Sololá	701	Sololá	2	El tablón	4	Abril	2023-12-04T00:00:00	2024-11-06T11:00:00	3	Temperatura mínima	14.6
147924	7	Sololá	701	Sololá	2	El tablón	4	Abril	2023-12-04T00:00:00	2024-11-06T11:00:00	5	Humedad	64
147925	7	Sololá	701	Sololá	2	El tablón	4	Abril	2023-12-04T00:00:00	2024-11-06T11:00:00	6	Velocidad del viento	6.4
147926	7	Sololá	701	Sololá	2	El tablón	4	Abril	2023-12-04T00:00:00	2024-11-06T11:00:00	7	Dirección del viento	6.44
147927	7	Sololá	701	Sololá	2	El tablón	4	Abril	2023-12-04T00:00:00	2024-11-06T11:00:00	1	Precipitación	0
147928	7	Sololá	701	Sololá	2	El tablón	4	Abril	2023-12-04T00:00:00	2024-11-06T11:00:00	8	Radiación solar	235
147929	7	Sololá	701	Sololá	2	El tablón	4	Abril	2023-12-04T00:00:00	2024-11-06T12:00:00	2	Temperatura media	17.3
147930	7	Sololá	701	Sololá	2	El tablón	4	Abril	2023-12-04T00:00:00	2024-11-06T12:00:00	4	Temperatura máxima	17.4
147931	7	Sololá	701	Sololá	2	El tablón	4	Abril	2023-12-04T00:00:00	2024-11-06T12:00:00	3	Temperatura mínima	14.8
147932	7	Sololá	701	Sololá	2	El tablón	4	Abril	2023-12-04T00:00:00	2024-11-06T12:00:00	5	Humedad	62
147933	7	Sololá	701	Sololá	2	El tablón	4	Abril	2023-12-04T00:00:00	2024-11-06T12:00:00	6	Velocidad del viento	4.8
147934	7	Sololá	701	Sololá	2	El tablón	4	Abril	2023-12-04T00:00:00	2024-11-06T12:00:00	7	Dirección del viento	4.83
147935	7	Sololá	701	Sololá	2	El tablón	4	Abril	2023-12-04T00:00:00	2024-11-06T12:00:00	1	Precipitación	0
147936	7	Sololá	701	Sololá	2	El tablón	4	Abril	2023-12-04T00:00:00	2024-11-06T12:00:00	8	Radiación solar	469
147937	7	Sololá	701	Sololá	2	El tablón	4	Abril	2023-12-04T00:00:00	2024-11-06T13:00:00	2	Temperatura media	17
147938	7	Sololá	701	Sololá	2	El tablón	4	Abril	2023-12-04T00:00:00	2024-11-06T13:00:00	4	Temperatura máxima	17.3
147939	7	Sololá	701	Sololá	2	El tablón	4	Abril	2023-12-04T00:00:00	2024-11-06T13:00:00	3	Temperatura mínima	16.6
147940	7	Sololá	701	Sololá	2	El tablón	4	Abril	2023-12-04T00:00:00	2024-11-06T13:00:00	5	Humedad	69
147941	7	Sololá	701	Sololá	2	El tablón	4	Abril	2023-12-04T00:00:00	2024-11-06T13:00:00	6	Velocidad del viento	6.4
147942	7	Sololá	701	Sololá	2	El tablón	4	Abril	2023-12-04T00:00:00	2024-11-06T13:00:00	7	Dirección del viento	6.44
147943	7	Sololá	701	Sololá	2	El tablón	4	Abril	2023-12-04T00:00:00	2024-11-06T13:00:00	1	Precipitación	0
147944	7	Sololá	701	Sololá	2	El tablón	4	Abril	2023-12-04T00:00:00	2024-11-06T13:00:00	8	Radiación solar	397
147945	7	Sololá	701	Sololá	2	El tablón	4	Abril	2023-12-04T00:00:00	2024-11-06T14:00:00	2	Temperatura media	16.6
147946	7	Sololá	701	Sololá	2	El tablón	4	Abril	2023-12-04T00:00:00	2024-11-06T14:00:00	4	Temperatura máxima	17.6
147947	7	Sololá	701	Sololá	2	El tablón	4	Abril	2023-12-04T00:00:00	2024-11-06T14:00:00	3	Temperatura mínima	16.4
147948	7	Sololá	701	Sololá	2	El tablón	4	Abril	2023-12-04T00:00:00	2024-11-06T14:00:00	5	Humedad	75
147949	7	Sololá	701	Sololá	2	El tablón	4	Abril	2023-12-04T00:00:00	2024-11-06T14:00:00	6	Velocidad del viento	8
147950	7	Sololá	701	Sololá	2	El tablón	4	Abril	2023-12-04T00:00:00	2024-11-06T14:00:00	7	Dirección del viento	8.05
147951	7	Sololá	701	Sololá	2	El tablón	4	Abril	2023-12-04T00:00:00	2024-11-06T14:00:00	1	Precipitación	0
147952	7	Sololá	701	Sololá	2	El tablón	4	Abril	2023-12-04T00:00:00	2024-11-06T14:00:00	8	Radiación solar	396
147953	7	Sololá	701	Sololá	2	El tablón	4	Abril	2023-12-04T00:00:00	2024-11-06T15:00:00	2	Temperatura media	16.1
147954	7	Sololá	701	Sololá	2	El tablón	4	Abril	2023-12-04T00:00:00	2024-11-06T15:00:00	4	Temperatura máxima	16.8
147955	7	Sololá	701	Sololá	2	El tablón	4	Abril	2023-12-04T00:00:00	2024-11-06T15:00:00	3	Temperatura mínima	15.9
147956	7	Sololá	701	Sololá	2	El tablón	4	Abril	2023-12-04T00:00:00	2024-11-06T15:00:00	5	Humedad	80
147957	7	Sololá	701	Sololá	2	El tablón	4	Abril	2023-12-04T00:00:00	2024-11-06T15:00:00	6	Velocidad del viento	8
147958	7	Sololá	701	Sololá	2	El tablón	4	Abril	2023-12-04T00:00:00	2024-11-06T15:00:00	7	Dirección del viento	8.05
147959	7	Sololá	701	Sololá	2	El tablón	4	Abril	2023-12-04T00:00:00	2024-11-06T15:00:00	1	Precipitación	0
147960	7	Sololá	701	Sololá	2	El tablón	4	Abril	2023-12-04T00:00:00	2024-11-06T15:00:00	8	Radiación solar	431
147961	7	Sololá	701	Sololá	2	El tablón	4	Abril	2023-12-04T00:00:00	2024-11-06T16:00:00	2	Temperatura media	14.6
147962	7	Sololá	701	Sololá	2	El tablón	4	Abril	2023-12-04T00:00:00	2024-11-06T16:00:00	4	Temperatura máxima	16.3
147963	7	Sololá	701	Sololá	2	El tablón	4	Abril	2023-12-04T00:00:00	2024-11-06T16:00:00	3	Temperatura mínima	14.6
147964	7	Sololá	701	Sololá	2	El tablón	4	Abril	2023-12-04T00:00:00	2024-11-06T16:00:00	5	Humedad	85
147965	7	Sololá	701	Sololá	2	El tablón	4	Abril	2023-12-04T00:00:00	2024-11-06T16:00:00	6	Velocidad del viento	6.4
147966	7	Sololá	701	Sololá	2	El tablón	4	Abril	2023-12-04T00:00:00	2024-11-06T16:00:00	7	Dirección del viento	6.44
147967	7	Sololá	701	Sololá	2	El tablón	4	Abril	2023-12-04T00:00:00	2024-11-06T16:00:00	1	Precipitación	0
147968	7	Sololá	701	Sololá	2	El tablón	4	Abril	2023-12-04T00:00:00	2024-11-06T16:00:00	8	Radiación solar	130
147969	7	Sololá	701	Sololá	2	El tablón	4	Abril	2023-12-04T00:00:00	2024-11-06T17:00:00	2	Temperatura media	16.3
147970	7	Sololá	701	Sololá	2	El tablón	4	Abril	2023-12-04T00:00:00	2024-11-06T17:00:00	4	Temperatura máxima	16.4
147971	7	Sololá	701	Sololá	2	El tablón	4	Abril	2023-12-04T00:00:00	2024-11-06T17:00:00	3	Temperatura mínima	14.6
147972	7	Sololá	701	Sololá	2	El tablón	4	Abril	2023-12-04T00:00:00	2024-11-06T17:00:00	5	Humedad	79
147973	7	Sololá	701	Sololá	2	El tablón	4	Abril	2023-12-04T00:00:00	2024-11-06T17:00:00	6	Velocidad del viento	3.2
147974	7	Sololá	701	Sololá	2	El tablón	4	Abril	2023-12-04T00:00:00	2024-11-06T17:00:00	7	Dirección del viento	3.22
147975	7	Sololá	701	Sololá	2	El tablón	4	Abril	2023-12-04T00:00:00	2024-11-06T17:00:00	1	Precipitación	0
147976	7	Sololá	701	Sololá	2	El tablón	4	Abril	2023-12-04T00:00:00	2024-11-06T17:00:00	8	Radiación solar	193
147977	7	Sololá	701	Sololá	2	El tablón	4	Abril	2023-12-04T00:00:00	2024-11-06T18:00:00	2	Temperatura media	15
147978	7	Sololá	701	Sololá	2	El tablón	4	Abril	2023-12-04T00:00:00	2024-11-06T18:00:00	4	Temperatura máxima	16.3
147979	7	Sololá	701	Sololá	2	El tablón	4	Abril	2023-12-04T00:00:00	2024-11-06T18:00:00	3	Temperatura mínima	15
147980	7	Sololá	701	Sololá	2	El tablón	4	Abril	2023-12-04T00:00:00	2024-11-06T18:00:00	5	Humedad	85
147981	7	Sololá	701	Sololá	2	El tablón	4	Abril	2023-12-04T00:00:00	2024-11-06T18:00:00	6	Velocidad del viento	1.6
147982	7	Sololá	701	Sololá	2	El tablón	4	Abril	2023-12-04T00:00:00	2024-11-06T18:00:00	7	Dirección del viento	1.61
147983	7	Sololá	701	Sololá	2	El tablón	4	Abril	2023-12-04T00:00:00	2024-11-06T18:00:00	1	Precipitación	0
147984	7	Sololá	701	Sololá	2	El tablón	4	Abril	2023-12-04T00:00:00	2024-11-06T18:00:00	8	Radiación solar	46
147985	7	Sololá	701	Sololá	2	El tablón	4	Abril	2023-12-04T00:00:00	2024-11-06T19:00:00	2	Temperatura media	14.4
147986	7	Sololá	701	Sololá	2	El tablón	4	Abril	2023-12-04T00:00:00	2024-11-06T19:00:00	4	Temperatura máxima	15
147987	7	Sololá	701	Sololá	2	El tablón	4	Abril	2023-12-04T00:00:00	2024-11-06T19:00:00	3	Temperatura mínima	14.3
147988	7	Sololá	701	Sololá	2	El tablón	4	Abril	2023-12-04T00:00:00	2024-11-06T19:00:00	5	Humedad	84
147989	7	Sololá	701	Sololá	2	El tablón	4	Abril	2023-12-04T00:00:00	2024-11-06T19:00:00	6	Velocidad del viento	1.6
147990	7	Sololá	701	Sololá	2	El tablón	4	Abril	2023-12-04T00:00:00	2024-11-06T19:00:00	7	Dirección del viento	1.61
147991	7	Sololá	701	Sololá	2	El tablón	4	Abril	2023-12-04T00:00:00	2024-11-06T19:00:00	1	Precipitación	0
147992	7	Sololá	701	Sololá	2	El tablón	4	Abril	2023-12-04T00:00:00	2024-11-06T19:00:00	8	Radiación solar	0
147993	7	Sololá	701	Sololá	2	El tablón	4	Abril	2023-12-04T00:00:00	2024-11-06T20:00:00	2	Temperatura media	14.4
147994	7	Sololá	701	Sololá	2	El tablón	4	Abril	2023-12-04T00:00:00	2024-11-06T20:00:00	4	Temperatura máxima	14.6
147995	7	Sololá	701	Sololá	2	El tablón	4	Abril	2023-12-04T00:00:00	2024-11-06T20:00:00	3	Temperatura mínima	14.3
147996	7	Sololá	701	Sololá	2	El tablón	4	Abril	2023-12-04T00:00:00	2024-11-06T20:00:00	5	Humedad	83
147997	7	Sololá	701	Sololá	2	El tablón	4	Abril	2023-12-04T00:00:00	2024-11-06T20:00:00	6	Velocidad del viento	6.4
147998	7	Sololá	701	Sololá	2	El tablón	4	Abril	2023-12-04T00:00:00	2024-11-06T20:00:00	7	Dirección del viento	6.44
147999	7	Sololá	701	Sololá	2	El tablón	4	Abril	2023-12-04T00:00:00	2024-11-06T20:00:00	1	Precipitación	0
148000	7	Sololá	701	Sololá	2	El tablón	4	Abril	2023-12-04T00:00:00	2024-11-06T20:00:00	8	Radiación solar	0
148001	7	Sololá	701	Sololá	2	El tablón	4	Abril	2023-12-04T00:00:00	2024-11-06T21:00:00	2	Temperatura media	13.6
148002	7	Sololá	701	Sololá	2	El tablón	4	Abril	2023-12-04T00:00:00	2024-11-06T21:00:00	4	Temperatura máxima	14.4
148003	7	Sololá	701	Sololá	2	El tablón	4	Abril	2023-12-04T00:00:00	2024-11-06T21:00:00	3	Temperatura mínima	13.6
148004	7	Sololá	701	Sololá	2	El tablón	4	Abril	2023-12-04T00:00:00	2024-11-06T21:00:00	5	Humedad	86
148005	7	Sololá	701	Sololá	2	El tablón	4	Abril	2023-12-04T00:00:00	2024-11-06T21:00:00	6	Velocidad del viento	6.4
148006	7	Sololá	701	Sololá	2	El tablón	4	Abril	2023-12-04T00:00:00	2024-11-06T21:00:00	7	Dirección del viento	6.44
148007	7	Sololá	701	Sololá	2	El tablón	4	Abril	2023-12-04T00:00:00	2024-11-06T21:00:00	1	Precipitación	0
148008	7	Sololá	701	Sololá	2	El tablón	4	Abril	2023-12-04T00:00:00	2024-11-06T21:00:00	8	Radiación solar	0
148009	7	Sololá	701	Sololá	2	El tablón	4	Abril	2023-12-04T00:00:00	2024-11-06T22:00:00	2	Temperatura media	13.1
148010	7	Sololá	701	Sololá	2	El tablón	4	Abril	2023-12-04T00:00:00	2024-11-06T22:00:00	4	Temperatura máxima	13.6
148011	7	Sololá	701	Sololá	2	El tablón	4	Abril	2023-12-04T00:00:00	2024-11-06T22:00:00	3	Temperatura mínima	13.1
148012	7	Sololá	701	Sololá	2	El tablón	4	Abril	2023-12-04T00:00:00	2024-11-06T22:00:00	5	Humedad	87
148013	7	Sololá	701	Sololá	2	El tablón	4	Abril	2023-12-04T00:00:00	2024-11-06T22:00:00	6	Velocidad del viento	4.8
148014	7	Sololá	701	Sololá	2	El tablón	4	Abril	2023-12-04T00:00:00	2024-11-06T22:00:00	7	Dirección del viento	4.83
148015	7	Sololá	701	Sololá	2	El tablón	4	Abril	2023-12-04T00:00:00	2024-11-06T22:00:00	1	Precipitación	0
148016	7	Sololá	701	Sololá	2	El tablón	4	Abril	2023-12-04T00:00:00	2024-11-06T22:00:00	8	Radiación solar	0
148017	7	Sololá	701	Sololá	2	El tablón	4	Abril	2023-12-04T00:00:00	2024-11-06T23:00:00	2	Temperatura media	12.4
148018	7	Sololá	701	Sololá	2	El tablón	4	Abril	2023-12-04T00:00:00	2024-11-06T23:00:00	4	Temperatura máxima	13.1
148019	7	Sololá	701	Sololá	2	El tablón	4	Abril	2023-12-04T00:00:00	2024-11-06T23:00:00	3	Temperatura mínima	12.4
148020	7	Sololá	701	Sololá	2	El tablón	4	Abril	2023-12-04T00:00:00	2024-11-06T23:00:00	5	Humedad	86
148021	7	Sololá	701	Sololá	2	El tablón	4	Abril	2023-12-04T00:00:00	2024-11-06T23:00:00	6	Velocidad del viento	6.4
148022	7	Sololá	701	Sololá	2	El tablón	4	Abril	2023-12-04T00:00:00	2024-11-06T23:00:00	7	Dirección del viento	6.44
148023	7	Sololá	701	Sololá	2	El tablón	4	Abril	2023-12-04T00:00:00	2024-11-06T23:00:00	1	Precipitación	0
148024	7	Sololá	701	Sololá	2	El tablón	4	Abril	2023-12-04T00:00:00	2024-11-06T23:00:00	8	Radiación solar	0
148025	7	Sololá	701	Sololá	2	El tablón	4	Abril	2023-04-13T00:00:00	2024-11-06T00:00:00	2	Temperatura media	12.3
148026	7	Sololá	701	Sololá	2	El tablón	4	Abril	2023-04-13T00:00:00	2024-11-06T00:00:00	4	Temperatura máxima	12.5
148027	7	Sololá	701	Sololá	2	El tablón	4	Abril	2023-04-13T00:00:00	2024-11-06T00:00:00	3	Temperatura mínima	12.3
148028	7	Sololá	701	Sololá	2	El tablón	4	Abril	2023-04-13T00:00:00	2024-11-06T00:00:00	5	Humedad	86
148029	7	Sololá	701	Sololá	2	El tablón	4	Abril	2023-04-13T00:00:00	2024-11-06T00:00:00	6	Velocidad del viento	6.4
148030	7	Sololá	701	Sololá	2	El tablón	4	Abril	2023-04-13T00:00:00	2024-11-06T00:00:00	7	Dirección del viento	6.44
148031	7	Sololá	701	Sololá	2	El tablón	4	Abril	2023-04-13T00:00:00	2024-11-06T00:00:00	1	Precipitación	0
148032	7	Sololá	701	Sololá	2	El tablón	4	Abril	2023-04-13T00:00:00	2024-11-06T00:00:00	8	Radiación solar	0
148033	7	Sololá	701	Sololá	2	El tablón	4	Abril	2023-04-13T00:00:00	2024-11-06T01:00:00	2	Temperatura media	12.7
148034	7	Sololá	701	Sololá	2	El tablón	4	Abril	2023-04-13T00:00:00	2024-11-06T01:00:00	4	Temperatura máxima	12.7
148035	7	Sololá	701	Sololá	2	El tablón	4	Abril	2023-04-13T00:00:00	2024-11-06T01:00:00	3	Temperatura mínima	12
148036	7	Sololá	701	Sololá	2	El tablón	4	Abril	2023-04-13T00:00:00	2024-11-06T01:00:00	5	Humedad	82
148037	7	Sololá	701	Sololá	2	El tablón	4	Abril	2023-04-13T00:00:00	2024-11-06T01:00:00	6	Velocidad del viento	4.8
148038	7	Sololá	701	Sololá	2	El tablón	4	Abril	2023-04-13T00:00:00	2024-11-06T01:00:00	7	Dirección del viento	4.83
148039	7	Sololá	701	Sololá	2	El tablón	4	Abril	2023-04-13T00:00:00	2024-11-06T01:00:00	1	Precipitación	0
148040	7	Sololá	701	Sololá	2	El tablón	4	Abril	2023-04-13T00:00:00	2024-11-06T01:00:00	8	Radiación solar	0
148041	7	Sololá	701	Sololá	2	El tablón	4	Abril	2023-04-13T00:00:00	2024-11-06T02:00:00	2	Temperatura media	12.3
148042	7	Sololá	701	Sololá	2	El tablón	4	Abril	2023-04-13T00:00:00	2024-11-06T02:00:00	4	Temperatura máxima	12.7
148043	7	Sololá	701	Sololá	2	El tablón	4	Abril	2023-04-13T00:00:00	2024-11-06T02:00:00	3	Temperatura mínima	12.3
148044	7	Sololá	701	Sololá	2	El tablón	4	Abril	2023-04-13T00:00:00	2024-11-06T02:00:00	5	Humedad	83
148045	7	Sololá	701	Sololá	2	El tablón	4	Abril	2023-04-13T00:00:00	2024-11-06T02:00:00	6	Velocidad del viento	3.2
148046	7	Sololá	701	Sololá	2	El tablón	4	Abril	2023-04-13T00:00:00	2024-11-06T02:00:00	7	Dirección del viento	3.22
148047	7	Sololá	701	Sololá	2	El tablón	4	Abril	2023-04-13T00:00:00	2024-11-06T02:00:00	1	Precipitación	0
148048	7	Sololá	701	Sololá	2	El tablón	4	Abril	2023-04-13T00:00:00	2024-11-06T02:00:00	8	Radiación solar	0
148049	7	Sololá	701	Sololá	2	El tablón	4	Abril	2023-04-13T00:00:00	2024-11-06T03:00:00	2	Temperatura media	11.2
148050	7	Sololá	701	Sololá	2	El tablón	4	Abril	2023-04-13T00:00:00	2024-11-06T03:00:00	4	Temperatura máxima	12.3
148051	7	Sololá	701	Sololá	2	El tablón	4	Abril	2023-04-13T00:00:00	2024-11-06T03:00:00	3	Temperatura mínima	11.2
148052	7	Sololá	701	Sololá	2	El tablón	4	Abril	2023-04-13T00:00:00	2024-11-06T03:00:00	5	Humedad	84
148053	7	Sololá	701	Sololá	2	El tablón	4	Abril	2023-04-13T00:00:00	2024-11-06T03:00:00	6	Velocidad del viento	3.2
148054	7	Sololá	701	Sololá	2	El tablón	4	Abril	2023-04-13T00:00:00	2024-11-06T03:00:00	7	Dirección del viento	3.22
148055	7	Sololá	701	Sololá	2	El tablón	4	Abril	2023-04-13T00:00:00	2024-11-06T03:00:00	1	Precipitación	0
148056	7	Sololá	701	Sololá	2	El tablón	4	Abril	2023-04-13T00:00:00	2024-11-06T03:00:00	8	Radiación solar	0
148057	7	Sololá	701	Sololá	2	El tablón	4	Abril	2023-04-13T00:00:00	2024-11-06T04:00:00	2	Temperatura media	10.9
148058	7	Sololá	701	Sololá	2	El tablón	4	Abril	2023-04-13T00:00:00	2024-11-06T04:00:00	4	Temperatura máxima	11.2
148059	7	Sololá	701	Sololá	2	El tablón	4	Abril	2023-04-13T00:00:00	2024-11-06T04:00:00	3	Temperatura mínima	10.9
148060	7	Sololá	701	Sololá	2	El tablón	4	Abril	2023-04-13T00:00:00	2024-11-06T04:00:00	5	Humedad	86
148061	7	Sololá	701	Sololá	2	El tablón	4	Abril	2023-04-13T00:00:00	2024-11-06T04:00:00	6	Velocidad del viento	4.8
148062	7	Sololá	701	Sololá	2	El tablón	4	Abril	2023-04-13T00:00:00	2024-11-06T04:00:00	7	Dirección del viento	4.83
148063	7	Sololá	701	Sololá	2	El tablón	4	Abril	2023-04-13T00:00:00	2024-11-06T04:00:00	1	Precipitación	0
148064	7	Sololá	701	Sololá	2	El tablón	4	Abril	2023-04-13T00:00:00	2024-11-06T04:00:00	8	Radiación solar	0
148065	7	Sololá	701	Sololá	2	El tablón	4	Abril	2023-04-13T00:00:00	2024-11-06T05:00:00	2	Temperatura media	10.2
148066	7	Sololá	701	Sololá	2	El tablón	4	Abril	2023-04-13T00:00:00	2024-11-06T05:00:00	4	Temperatura máxima	10.9
148067	7	Sololá	701	Sololá	2	El tablón	4	Abril	2023-04-13T00:00:00	2024-11-06T05:00:00	3	Temperatura mínima	10.2
148068	7	Sololá	701	Sololá	2	El tablón	4	Abril	2023-04-13T00:00:00	2024-11-06T05:00:00	5	Humedad	88
148069	7	Sololá	701	Sololá	2	El tablón	4	Abril	2023-04-13T00:00:00	2024-11-06T05:00:00	6	Velocidad del viento	3.2
148070	7	Sololá	701	Sololá	2	El tablón	4	Abril	2023-04-13T00:00:00	2024-11-06T05:00:00	7	Dirección del viento	3.22
148071	7	Sololá	701	Sololá	2	El tablón	4	Abril	2023-04-13T00:00:00	2024-11-06T05:00:00	1	Precipitación	0
148072	7	Sololá	701	Sololá	2	El tablón	4	Abril	2023-04-13T00:00:00	2024-11-06T05:00:00	8	Radiación solar	0
148073	7	Sololá	701	Sololá	2	El tablón	4	Abril	2023-04-13T00:00:00	2024-11-06T06:00:00	2	Temperatura media	10.4
148074	7	Sololá	701	Sololá	2	El tablón	4	Abril	2023-04-13T00:00:00	2024-11-06T06:00:00	4	Temperatura máxima	10.5
148075	7	Sololá	701	Sololá	2	El tablón	4	Abril	2023-04-13T00:00:00	2024-11-06T06:00:00	3	Temperatura mínima	10.2
148076	7	Sololá	701	Sololá	2	El tablón	4	Abril	2023-04-13T00:00:00	2024-11-06T06:00:00	5	Humedad	87
148077	7	Sololá	701	Sololá	2	El tablón	4	Abril	2023-04-13T00:00:00	2024-11-06T06:00:00	6	Velocidad del viento	3.2
148078	7	Sololá	701	Sololá	2	El tablón	4	Abril	2023-04-13T00:00:00	2024-11-06T06:00:00	7	Dirección del viento	3.22
148079	7	Sololá	701	Sololá	2	El tablón	4	Abril	2023-04-13T00:00:00	2024-11-06T06:00:00	1	Precipitación	0
148080	7	Sololá	701	Sololá	2	El tablón	4	Abril	2023-04-13T00:00:00	2024-11-06T06:00:00	8	Radiación solar	0
148081	7	Sololá	701	Sololá	2	El tablón	4	Abril	2023-04-13T00:00:00	2024-11-06T07:00:00	2	Temperatura media	11.9
148082	7	Sololá	701	Sololá	2	El tablón	4	Abril	2023-04-13T00:00:00	2024-11-06T07:00:00	4	Temperatura máxima	11.9
148083	7	Sololá	701	Sololá	2	El tablón	4	Abril	2023-04-13T00:00:00	2024-11-06T07:00:00	3	Temperatura mínima	10.4
148084	7	Sololá	701	Sololá	2	El tablón	4	Abril	2023-04-13T00:00:00	2024-11-06T07:00:00	5	Humedad	83
148085	7	Sololá	701	Sololá	2	El tablón	4	Abril	2023-04-13T00:00:00	2024-11-06T07:00:00	6	Velocidad del viento	0
148086	7	Sololá	701	Sololá	2	El tablón	4	Abril	2023-04-13T00:00:00	2024-11-06T07:00:00	7	Dirección del viento	0
148087	7	Sololá	701	Sololá	2	El tablón	4	Abril	2023-04-13T00:00:00	2024-11-06T07:00:00	1	Precipitación	0
148088	7	Sololá	701	Sololá	2	El tablón	4	Abril	2023-04-13T00:00:00	2024-11-06T07:00:00	8	Radiación solar	65
148089	7	Sololá	701	Sololá	2	El tablón	4	Abril	2023-04-13T00:00:00	2024-11-06T08:00:00	2	Temperatura media	14.4
148090	7	Sololá	701	Sololá	2	El tablón	4	Abril	2023-04-13T00:00:00	2024-11-06T08:00:00	4	Temperatura máxima	14.4
148091	7	Sololá	701	Sololá	2	El tablón	4	Abril	2023-04-13T00:00:00	2024-11-06T08:00:00	3	Temperatura mínima	11.9
148092	7	Sololá	701	Sololá	2	El tablón	4	Abril	2023-04-13T00:00:00	2024-11-06T08:00:00	5	Humedad	77
148093	7	Sololá	701	Sololá	2	El tablón	4	Abril	2023-04-13T00:00:00	2024-11-06T08:00:00	6	Velocidad del viento	1.6
148094	7	Sololá	701	Sololá	2	El tablón	4	Abril	2023-04-13T00:00:00	2024-11-06T08:00:00	7	Dirección del viento	1.61
148095	7	Sololá	701	Sololá	2	El tablón	4	Abril	2023-04-13T00:00:00	2024-11-06T08:00:00	1	Precipitación	0
148096	7	Sololá	701	Sololá	2	El tablón	4	Abril	2023-04-13T00:00:00	2024-11-06T08:00:00	8	Radiación solar	266
148097	7	Sololá	701	Sololá	2	El tablón	4	Abril	2023-04-13T00:00:00	2024-11-06T09:00:00	2	Temperatura media	15.1
148098	7	Sololá	701	Sololá	2	El tablón	4	Abril	2023-04-13T00:00:00	2024-11-06T09:00:00	4	Temperatura máxima	15.1
148099	7	Sololá	701	Sololá	2	El tablón	4	Abril	2023-04-13T00:00:00	2024-11-06T09:00:00	3	Temperatura mínima	14.4
148100	7	Sololá	701	Sololá	2	El tablón	4	Abril	2023-04-13T00:00:00	2024-11-06T09:00:00	5	Humedad	76
148101	7	Sololá	701	Sololá	2	El tablón	4	Abril	2023-04-13T00:00:00	2024-11-06T09:00:00	6	Velocidad del viento	4.8
148102	7	Sololá	701	Sololá	2	El tablón	4	Abril	2023-04-13T00:00:00	2024-11-06T09:00:00	7	Dirección del viento	4.83
148103	7	Sololá	701	Sololá	2	El tablón	4	Abril	2023-04-13T00:00:00	2024-11-06T09:00:00	1	Precipitación	0
148104	7	Sololá	701	Sololá	2	El tablón	4	Abril	2023-04-13T00:00:00	2024-11-06T09:00:00	8	Radiación solar	397
148105	7	Sololá	701	Sololá	2	El tablón	4	Abril	2023-04-13T00:00:00	2024-11-06T10:00:00	2	Temperatura media	15.9
148106	7	Sololá	701	Sololá	2	El tablón	4	Abril	2023-04-13T00:00:00	2024-11-06T10:00:00	4	Temperatura máxima	16
148107	7	Sololá	701	Sololá	2	El tablón	4	Abril	2023-04-13T00:00:00	2024-11-06T10:00:00	3	Temperatura mínima	14.9
148108	7	Sololá	701	Sololá	2	El tablón	4	Abril	2023-04-13T00:00:00	2024-11-06T10:00:00	5	Humedad	74
148109	7	Sololá	701	Sololá	2	El tablón	4	Abril	2023-04-13T00:00:00	2024-11-06T10:00:00	6	Velocidad del viento	6.4
148110	7	Sololá	701	Sololá	2	El tablón	4	Abril	2023-04-13T00:00:00	2024-11-06T10:00:00	7	Dirección del viento	6.44
148111	7	Sololá	701	Sololá	2	El tablón	4	Abril	2023-04-13T00:00:00	2024-11-06T10:00:00	1	Precipitación	0
148112	7	Sololá	701	Sololá	2	El tablón	4	Abril	2023-04-13T00:00:00	2024-11-06T10:00:00	8	Radiación solar	567
148113	7	Sololá	701	Sololá	2	El tablón	4	Abril	2023-04-13T00:00:00	2024-11-06T11:00:00	2	Temperatura media	17.3
148114	7	Sololá	701	Sololá	2	El tablón	4	Abril	2023-04-13T00:00:00	2024-11-06T11:00:00	4	Temperatura máxima	17.3
148115	7	Sololá	701	Sololá	2	El tablón	4	Abril	2023-04-13T00:00:00	2024-11-06T11:00:00	3	Temperatura mínima	15.8
148116	7	Sololá	701	Sololá	2	El tablón	4	Abril	2023-04-13T00:00:00	2024-11-06T11:00:00	5	Humedad	69
148117	7	Sololá	701	Sololá	2	El tablón	4	Abril	2023-04-13T00:00:00	2024-11-06T11:00:00	6	Velocidad del viento	8
148118	7	Sololá	701	Sololá	2	El tablón	4	Abril	2023-04-13T00:00:00	2024-11-06T11:00:00	7	Dirección del viento	8.05
148119	7	Sololá	701	Sololá	2	El tablón	4	Abril	2023-04-13T00:00:00	2024-11-06T11:00:00	1	Precipitación	0
148120	7	Sololá	701	Sololá	2	El tablón	4	Abril	2023-04-13T00:00:00	2024-11-06T11:00:00	8	Radiación solar	815
148121	7	Sololá	701	Sololá	2	El tablón	4	Abril	2023-04-13T00:00:00	2024-11-06T12:00:00	2	Temperatura media	17.8
148122	7	Sololá	701	Sololá	2	El tablón	4	Abril	2023-04-13T00:00:00	2024-11-06T12:00:00	4	Temperatura máxima	17.9
148123	7	Sololá	701	Sololá	2	El tablón	4	Abril	2023-04-13T00:00:00	2024-11-06T12:00:00	3	Temperatura mínima	17.2
148124	7	Sololá	701	Sololá	2	El tablón	4	Abril	2023-04-13T00:00:00	2024-11-06T12:00:00	5	Humedad	72
148125	7	Sololá	701	Sololá	2	El tablón	4	Abril	2023-04-13T00:00:00	2024-11-06T12:00:00	6	Velocidad del viento	9.7
148126	7	Sololá	701	Sololá	2	El tablón	4	Abril	2023-04-13T00:00:00	2024-11-06T12:00:00	7	Dirección del viento	9.66
148127	7	Sololá	701	Sololá	2	El tablón	4	Abril	2023-04-13T00:00:00	2024-11-06T12:00:00	1	Precipitación	0
148128	7	Sololá	701	Sololá	2	El tablón	4	Abril	2023-04-13T00:00:00	2024-11-06T12:00:00	8	Radiación solar	918
148129	7	Sololá	701	Sololá	2	El tablón	4	Abril	2023-04-13T00:00:00	2024-11-06T13:00:00	2	Temperatura media	17.9
148130	7	Sololá	701	Sololá	2	El tablón	4	Abril	2023-04-13T00:00:00	2024-11-06T13:00:00	4	Temperatura máxima	18.2
148131	7	Sololá	701	Sololá	2	El tablón	4	Abril	2023-04-13T00:00:00	2024-11-06T13:00:00	3	Temperatura mínima	17.4
148132	7	Sololá	701	Sololá	2	El tablón	4	Abril	2023-04-13T00:00:00	2024-11-06T13:00:00	5	Humedad	74
148133	7	Sololá	701	Sololá	2	El tablón	4	Abril	2023-04-13T00:00:00	2024-11-06T13:00:00	6	Velocidad del viento	9.7
148134	7	Sololá	701	Sololá	2	El tablón	4	Abril	2023-04-13T00:00:00	2024-11-06T13:00:00	7	Dirección del viento	9.66
148135	7	Sololá	701	Sololá	2	El tablón	4	Abril	2023-04-13T00:00:00	2024-11-06T13:00:00	1	Precipitación	0
148136	7	Sololá	701	Sololá	2	El tablón	4	Abril	2023-04-13T00:00:00	2024-11-06T13:00:00	8	Radiación solar	941
148137	7	Sololá	701	Sololá	2	El tablón	4	Abril	2023-04-13T00:00:00	2024-11-06T14:00:00	2	Temperatura media	16.7
148138	7	Sololá	701	Sololá	2	El tablón	4	Abril	2023-04-13T00:00:00	2024-11-06T14:00:00	4	Temperatura máxima	17.9
148139	7	Sololá	701	Sololá	2	El tablón	4	Abril	2023-04-13T00:00:00	2024-11-06T14:00:00	3	Temperatura mínima	16.7
148140	7	Sololá	701	Sololá	2	El tablón	4	Abril	2023-04-13T00:00:00	2024-11-06T14:00:00	5	Humedad	81
148141	7	Sololá	701	Sololá	2	El tablón	4	Abril	2023-04-13T00:00:00	2024-11-06T14:00:00	6	Velocidad del viento	9.7
148142	7	Sololá	701	Sololá	2	El tablón	4	Abril	2023-04-13T00:00:00	2024-11-06T14:00:00	7	Dirección del viento	9.66
148143	7	Sololá	701	Sololá	2	El tablón	4	Abril	2023-04-13T00:00:00	2024-11-06T14:00:00	1	Precipitación	0
148144	7	Sololá	701	Sololá	2	El tablón	4	Abril	2023-04-13T00:00:00	2024-11-06T14:00:00	8	Radiación solar	758
148145	7	Sololá	701	Sololá	2	El tablón	4	Abril	2023-04-13T00:00:00	2024-11-06T15:00:00	2	Temperatura media	15.7
148146	7	Sololá	701	Sololá	2	El tablón	4	Abril	2023-04-13T00:00:00	2024-11-06T15:00:00	4	Temperatura máxima	17.2
148147	7	Sololá	701	Sololá	2	El tablón	4	Abril	2023-04-13T00:00:00	2024-11-06T15:00:00	3	Temperatura mínima	15.7
148148	7	Sololá	701	Sololá	2	El tablón	4	Abril	2023-04-13T00:00:00	2024-11-06T15:00:00	5	Humedad	86
148149	7	Sololá	701	Sololá	2	El tablón	4	Abril	2023-04-13T00:00:00	2024-11-06T15:00:00	6	Velocidad del viento	8
148150	7	Sololá	701	Sololá	2	El tablón	4	Abril	2023-04-13T00:00:00	2024-11-06T15:00:00	7	Dirección del viento	8.05
148151	7	Sololá	701	Sololá	2	El tablón	4	Abril	2023-04-13T00:00:00	2024-11-06T15:00:00	1	Precipitación	0
148152	7	Sololá	701	Sololá	2	El tablón	4	Abril	2023-04-13T00:00:00	2024-11-06T15:00:00	8	Radiación solar	447
148153	7	Sololá	701	Sololá	2	El tablón	4	Abril	2023-04-13T00:00:00	2024-11-06T16:00:00	2	Temperatura media	15
148154	7	Sololá	701	Sololá	2	El tablón	4	Abril	2023-04-13T00:00:00	2024-11-06T16:00:00	4	Temperatura máxima	15.7
148155	7	Sololá	701	Sololá	2	El tablón	4	Abril	2023-04-13T00:00:00	2024-11-06T16:00:00	3	Temperatura mínima	15
148156	7	Sololá	701	Sololá	2	El tablón	4	Abril	2023-04-13T00:00:00	2024-11-06T16:00:00	5	Humedad	88
148157	7	Sololá	701	Sololá	2	El tablón	4	Abril	2023-04-13T00:00:00	2024-11-06T16:00:00	6	Velocidad del viento	6.4
148158	7	Sololá	701	Sololá	2	El tablón	4	Abril	2023-04-13T00:00:00	2024-11-06T16:00:00	7	Dirección del viento	6.44
148159	7	Sololá	701	Sololá	2	El tablón	4	Abril	2023-04-13T00:00:00	2024-11-06T16:00:00	1	Precipitación	0
148160	7	Sololá	701	Sololá	2	El tablón	4	Abril	2023-04-13T00:00:00	2024-11-06T16:00:00	8	Radiación solar	120
148161	7	Sololá	701	Sololá	2	El tablón	4	Abril	2023-04-13T00:00:00	2024-11-06T17:00:00	2	Temperatura media	15.6
148162	7	Sololá	701	Sololá	2	El tablón	4	Abril	2023-04-13T00:00:00	2024-11-06T17:00:00	4	Temperatura máxima	15.7
148163	7	Sololá	701	Sololá	2	El tablón	4	Abril	2023-04-13T00:00:00	2024-11-06T17:00:00	3	Temperatura mínima	14.7
148164	7	Sololá	701	Sololá	2	El tablón	4	Abril	2023-04-13T00:00:00	2024-11-06T17:00:00	5	Humedad	87
148165	7	Sololá	701	Sololá	2	El tablón	4	Abril	2023-04-13T00:00:00	2024-11-06T17:00:00	6	Velocidad del viento	4.8
148166	7	Sololá	701	Sololá	2	El tablón	4	Abril	2023-04-13T00:00:00	2024-11-06T17:00:00	7	Dirección del viento	4.83
148167	7	Sololá	701	Sololá	2	El tablón	4	Abril	2023-04-13T00:00:00	2024-11-06T17:00:00	1	Precipitación	0
148168	7	Sololá	701	Sololá	2	El tablón	4	Abril	2023-04-13T00:00:00	2024-11-06T17:00:00	8	Radiación solar	195
148169	7	Sololá	701	Sololá	2	El tablón	4	Abril	2023-04-13T00:00:00	2024-11-06T18:00:00	2	Temperatura media	14.6
148170	7	Sololá	701	Sololá	2	El tablón	4	Abril	2023-04-13T00:00:00	2024-11-06T18:00:00	4	Temperatura máxima	15.6
148171	7	Sololá	701	Sololá	2	El tablón	4	Abril	2023-04-13T00:00:00	2024-11-06T18:00:00	3	Temperatura mínima	14.6
148172	7	Sololá	701	Sololá	2	El tablón	4	Abril	2023-04-13T00:00:00	2024-11-06T18:00:00	5	Humedad	88
148173	7	Sololá	701	Sololá	2	El tablón	4	Abril	2023-04-13T00:00:00	2024-11-06T18:00:00	6	Velocidad del viento	3.2
148174	7	Sololá	701	Sololá	2	El tablón	4	Abril	2023-04-13T00:00:00	2024-11-06T18:00:00	7	Dirección del viento	3.22
148175	7	Sololá	701	Sololá	2	El tablón	4	Abril	2023-04-13T00:00:00	2024-11-06T18:00:00	1	Precipitación	0
148176	7	Sololá	701	Sololá	2	El tablón	4	Abril	2023-04-13T00:00:00	2024-11-06T18:00:00	8	Radiación solar	83
148177	7	Sololá	701	Sololá	2	El tablón	4	Abril	2023-04-13T00:00:00	2024-11-06T19:00:00	2	Temperatura media	14.1
148178	7	Sololá	701	Sololá	2	El tablón	4	Abril	2023-04-13T00:00:00	2024-11-06T19:00:00	4	Temperatura máxima	14.6
148179	7	Sololá	701	Sololá	2	El tablón	4	Abril	2023-04-13T00:00:00	2024-11-06T19:00:00	3	Temperatura mínima	14.1
148180	7	Sololá	701	Sololá	2	El tablón	4	Abril	2023-04-13T00:00:00	2024-11-06T19:00:00	5	Humedad	89
148181	7	Sololá	701	Sololá	2	El tablón	4	Abril	2023-04-13T00:00:00	2024-11-06T19:00:00	6	Velocidad del viento	1.6
148182	7	Sololá	701	Sololá	2	El tablón	4	Abril	2023-04-13T00:00:00	2024-11-06T19:00:00	7	Dirección del viento	1.61
148183	7	Sololá	701	Sololá	2	El tablón	4	Abril	2023-04-13T00:00:00	2024-11-06T19:00:00	1	Precipitación	0
148184	7	Sololá	701	Sololá	2	El tablón	4	Abril	2023-04-13T00:00:00	2024-11-06T19:00:00	8	Radiación solar	0
148185	7	Sololá	701	Sololá	2	El tablón	4	Abril	2023-04-13T00:00:00	2024-11-06T20:00:00	2	Temperatura media	13.8
148186	7	Sololá	701	Sololá	2	El tablón	4	Abril	2023-04-13T00:00:00	2024-11-06T20:00:00	4	Temperatura máxima	14.2
148187	7	Sololá	701	Sololá	2	El tablón	4	Abril	2023-04-13T00:00:00	2024-11-06T20:00:00	3	Temperatura mínima	13.8
148188	7	Sololá	701	Sololá	2	El tablón	4	Abril	2023-04-13T00:00:00	2024-11-06T20:00:00	5	Humedad	89
148189	7	Sololá	701	Sololá	2	El tablón	4	Abril	2023-04-13T00:00:00	2024-11-06T20:00:00	6	Velocidad del viento	0
148190	7	Sololá	701	Sololá	2	El tablón	4	Abril	2023-04-13T00:00:00	2024-11-06T20:00:00	7	Dirección del viento	0
148191	7	Sololá	701	Sololá	2	El tablón	4	Abril	2023-04-13T00:00:00	2024-11-06T20:00:00	1	Precipitación	0
148192	7	Sololá	701	Sololá	2	El tablón	4	Abril	2023-04-13T00:00:00	2024-11-06T20:00:00	8	Radiación solar	0
148193	7	Sololá	701	Sololá	2	El tablón	4	Abril	2023-04-13T00:00:00	2024-11-06T21:00:00	2	Temperatura media	13
148194	7	Sololá	701	Sololá	2	El tablón	4	Abril	2023-04-13T00:00:00	2024-11-06T21:00:00	4	Temperatura máxima	13.8
148195	7	Sololá	701	Sololá	2	El tablón	4	Abril	2023-04-13T00:00:00	2024-11-06T21:00:00	3	Temperatura mínima	12.9
148196	7	Sololá	701	Sololá	2	El tablón	4	Abril	2023-04-13T00:00:00	2024-11-06T21:00:00	5	Humedad	87
148197	7	Sololá	701	Sololá	2	El tablón	4	Abril	2023-04-13T00:00:00	2024-11-06T21:00:00	6	Velocidad del viento	0
148198	7	Sololá	701	Sololá	2	El tablón	4	Abril	2023-04-13T00:00:00	2024-11-06T21:00:00	7	Dirección del viento	0
148199	7	Sololá	701	Sololá	2	El tablón	4	Abril	2023-04-13T00:00:00	2024-11-06T21:00:00	1	Precipitación	0
148200	7	Sololá	701	Sololá	2	El tablón	4	Abril	2023-04-13T00:00:00	2024-11-06T21:00:00	8	Radiación solar	0
148201	7	Sololá	701	Sololá	2	El tablón	4	Abril	2023-04-13T00:00:00	2024-11-06T22:00:00	2	Temperatura media	13.4
148202	7	Sololá	701	Sololá	2	El tablón	4	Abril	2023-04-13T00:00:00	2024-11-06T22:00:00	4	Temperatura máxima	13.7
148203	7	Sololá	701	Sololá	2	El tablón	4	Abril	2023-04-13T00:00:00	2024-11-06T22:00:00	3	Temperatura mínima	13.1
148204	7	Sololá	701	Sololá	2	El tablón	4	Abril	2023-04-13T00:00:00	2024-11-06T22:00:00	5	Humedad	85
148205	7	Sololá	701	Sololá	2	El tablón	4	Abril	2023-04-13T00:00:00	2024-11-06T22:00:00	6	Velocidad del viento	1.6
148206	7	Sololá	701	Sololá	2	El tablón	4	Abril	2023-04-13T00:00:00	2024-11-06T22:00:00	7	Dirección del viento	1.61
148207	7	Sololá	701	Sololá	2	El tablón	4	Abril	2023-04-13T00:00:00	2024-11-06T22:00:00	1	Precipitación	0
148208	7	Sololá	701	Sololá	2	El tablón	4	Abril	2023-04-13T00:00:00	2024-11-06T22:00:00	8	Radiación solar	0
148209	7	Sololá	701	Sololá	2	El tablón	4	Abril	2023-04-13T00:00:00	2024-11-06T23:00:00	2	Temperatura media	12.9
148210	7	Sololá	701	Sololá	2	El tablón	4	Abril	2023-04-13T00:00:00	2024-11-06T23:00:00	4	Temperatura máxima	13.4
148211	7	Sololá	701	Sololá	2	El tablón	4	Abril	2023-04-13T00:00:00	2024-11-06T23:00:00	3	Temperatura mínima	12.9
148212	7	Sololá	701	Sololá	2	El tablón	4	Abril	2023-04-13T00:00:00	2024-11-06T23:00:00	5	Humedad	86
148213	7	Sololá	701	Sololá	2	El tablón	4	Abril	2023-04-13T00:00:00	2024-11-06T23:00:00	6	Velocidad del viento	1.6
148214	7	Sololá	701	Sololá	2	El tablón	4	Abril	2023-04-13T00:00:00	2024-11-06T23:00:00	7	Dirección del viento	1.61
148215	7	Sololá	701	Sololá	2	El tablón	4	Abril	2023-04-13T00:00:00	2024-11-06T23:00:00	1	Precipitación	0
148216	7	Sololá	701	Sololá	2	El tablón	4	Abril	2023-04-13T00:00:00	2024-11-06T23:00:00	8	Radiación solar	0
148217	7	Sololá	701	Sololá	2	El tablón	4	Abril	2023-04-14T00:00:00	2024-11-06T00:00:00	2	Temperatura media	12.4
148218	7	Sololá	701	Sololá	2	El tablón	4	Abril	2023-04-14T00:00:00	2024-11-06T00:00:00	4	Temperatura máxima	12.9
148219	7	Sololá	701	Sololá	2	El tablón	4	Abril	2023-04-14T00:00:00	2024-11-06T00:00:00	3	Temperatura mínima	12.4
148220	7	Sololá	701	Sololá	2	El tablón	4	Abril	2023-04-14T00:00:00	2024-11-06T00:00:00	5	Humedad	86
148221	7	Sololá	701	Sololá	2	El tablón	4	Abril	2023-04-14T00:00:00	2024-11-06T00:00:00	6	Velocidad del viento	3.2
148222	7	Sololá	701	Sololá	2	El tablón	4	Abril	2023-04-14T00:00:00	2024-11-06T00:00:00	7	Dirección del viento	3.22
148223	7	Sololá	701	Sololá	2	El tablón	4	Abril	2023-04-14T00:00:00	2024-11-06T00:00:00	1	Precipitación	0
148224	7	Sololá	701	Sololá	2	El tablón	4	Abril	2023-04-14T00:00:00	2024-11-06T00:00:00	8	Radiación solar	0
148225	7	Sololá	701	Sololá	2	El tablón	4	Abril	2023-04-14T00:00:00	2024-11-06T01:00:00	2	Temperatura media	12.1
148226	7	Sololá	701	Sololá	2	El tablón	4	Abril	2023-04-14T00:00:00	2024-11-06T01:00:00	4	Temperatura máxima	12.4
148227	7	Sololá	701	Sololá	2	El tablón	4	Abril	2023-04-14T00:00:00	2024-11-06T01:00:00	3	Temperatura mínima	12.1
148228	7	Sololá	701	Sololá	2	El tablón	4	Abril	2023-04-14T00:00:00	2024-11-06T01:00:00	5	Humedad	81
148229	7	Sololá	701	Sololá	2	El tablón	4	Abril	2023-04-14T00:00:00	2024-11-06T01:00:00	6	Velocidad del viento	4.8
148230	7	Sololá	701	Sololá	2	El tablón	4	Abril	2023-04-14T00:00:00	2024-11-06T01:00:00	7	Dirección del viento	4.83
148231	7	Sololá	701	Sololá	2	El tablón	4	Abril	2023-04-14T00:00:00	2024-11-06T01:00:00	1	Precipitación	0
148232	7	Sololá	701	Sololá	2	El tablón	4	Abril	2023-04-14T00:00:00	2024-11-06T01:00:00	8	Radiación solar	0
148233	7	Sololá	701	Sololá	2	El tablón	4	Abril	2023-04-14T00:00:00	2024-11-06T02:00:00	2	Temperatura media	10.9
148234	7	Sololá	701	Sololá	2	El tablón	4	Abril	2023-04-14T00:00:00	2024-11-06T02:00:00	4	Temperatura máxima	12.4
148235	7	Sololá	701	Sololá	2	El tablón	4	Abril	2023-04-14T00:00:00	2024-11-06T02:00:00	3	Temperatura mínima	10.9
148236	7	Sololá	701	Sololá	2	El tablón	4	Abril	2023-04-14T00:00:00	2024-11-06T02:00:00	5	Humedad	84
148237	7	Sololá	701	Sololá	2	El tablón	4	Abril	2023-04-14T00:00:00	2024-11-06T02:00:00	6	Velocidad del viento	4.8
148238	7	Sololá	701	Sololá	2	El tablón	4	Abril	2023-04-14T00:00:00	2024-11-06T02:00:00	7	Dirección del viento	4.83
148239	7	Sololá	701	Sololá	2	El tablón	4	Abril	2023-04-14T00:00:00	2024-11-06T02:00:00	1	Precipitación	0
148240	7	Sololá	701	Sololá	2	El tablón	4	Abril	2023-04-14T00:00:00	2024-11-06T02:00:00	8	Radiación solar	0
148241	7	Sololá	701	Sololá	2	El tablón	4	Abril	2023-04-14T00:00:00	2024-11-06T03:00:00	2	Temperatura media	10.1
148242	7	Sololá	701	Sololá	2	El tablón	4	Abril	2023-04-14T00:00:00	2024-11-06T03:00:00	4	Temperatura máxima	11
148243	7	Sololá	701	Sololá	2	El tablón	4	Abril	2023-04-14T00:00:00	2024-11-06T03:00:00	3	Temperatura mínima	10
148244	7	Sololá	701	Sololá	2	El tablón	4	Abril	2023-04-14T00:00:00	2024-11-06T03:00:00	5	Humedad	81
148245	7	Sololá	701	Sololá	2	El tablón	4	Abril	2023-04-14T00:00:00	2024-11-06T03:00:00	6	Velocidad del viento	1.6
148246	7	Sololá	701	Sololá	2	El tablón	4	Abril	2023-04-14T00:00:00	2024-11-06T03:00:00	7	Dirección del viento	1.61
148247	7	Sololá	701	Sololá	2	El tablón	4	Abril	2023-04-14T00:00:00	2024-11-06T03:00:00	1	Precipitación	0
148248	7	Sololá	701	Sololá	2	El tablón	4	Abril	2023-04-14T00:00:00	2024-11-06T03:00:00	8	Radiación solar	0
148249	7	Sololá	701	Sololá	2	El tablón	4	Abril	2023-04-14T00:00:00	2024-11-06T04:00:00	2	Temperatura media	10.7
148250	7	Sololá	701	Sololá	2	El tablón	4	Abril	2023-04-14T00:00:00	2024-11-06T04:00:00	4	Temperatura máxima	10.7
148251	7	Sololá	701	Sololá	2	El tablón	4	Abril	2023-04-14T00:00:00	2024-11-06T04:00:00	3	Temperatura mínima	9.4
148252	7	Sololá	701	Sololá	2	El tablón	4	Abril	2023-04-14T00:00:00	2024-11-06T04:00:00	5	Humedad	79
148253	7	Sololá	701	Sololá	2	El tablón	4	Abril	2023-04-14T00:00:00	2024-11-06T04:00:00	6	Velocidad del viento	3.2
148254	7	Sololá	701	Sololá	2	El tablón	4	Abril	2023-04-14T00:00:00	2024-11-06T04:00:00	7	Dirección del viento	3.22
148255	7	Sololá	701	Sololá	2	El tablón	4	Abril	2023-04-14T00:00:00	2024-11-06T04:00:00	1	Precipitación	0
148256	7	Sololá	701	Sololá	2	El tablón	4	Abril	2023-04-14T00:00:00	2024-11-06T04:00:00	8	Radiación solar	0
148257	7	Sololá	701	Sololá	2	El tablón	4	Abril	2023-04-14T00:00:00	2024-11-06T05:00:00	2	Temperatura media	11.2
148258	7	Sololá	701	Sololá	2	El tablón	4	Abril	2023-04-14T00:00:00	2024-11-06T05:00:00	4	Temperatura máxima	11.2
148259	7	Sololá	701	Sololá	2	El tablón	4	Abril	2023-04-14T00:00:00	2024-11-06T05:00:00	3	Temperatura mínima	10.7
148260	7	Sololá	701	Sololá	2	El tablón	4	Abril	2023-04-14T00:00:00	2024-11-06T05:00:00	5	Humedad	72
148261	7	Sololá	701	Sololá	2	El tablón	4	Abril	2023-04-14T00:00:00	2024-11-06T05:00:00	6	Velocidad del viento	1.6
148262	7	Sololá	701	Sololá	2	El tablón	4	Abril	2023-04-14T00:00:00	2024-11-06T05:00:00	7	Dirección del viento	1.61
148263	7	Sololá	701	Sololá	2	El tablón	4	Abril	2023-04-14T00:00:00	2024-11-06T05:00:00	1	Precipitación	0
148264	7	Sololá	701	Sololá	2	El tablón	4	Abril	2023-04-14T00:00:00	2024-11-06T05:00:00	8	Radiación solar	0
148265	7	Sololá	701	Sololá	2	El tablón	4	Abril	2023-04-14T00:00:00	2024-11-06T06:00:00	2	Temperatura media	12.1
148266	7	Sololá	701	Sololá	2	El tablón	4	Abril	2023-04-14T00:00:00	2024-11-06T06:00:00	4	Temperatura máxima	12.2
148267	7	Sololá	701	Sololá	2	El tablón	4	Abril	2023-04-14T00:00:00	2024-11-06T06:00:00	3	Temperatura mínima	11.2
148268	7	Sololá	701	Sololá	2	El tablón	4	Abril	2023-04-14T00:00:00	2024-11-06T06:00:00	5	Humedad	69
148269	7	Sololá	701	Sololá	2	El tablón	4	Abril	2023-04-14T00:00:00	2024-11-06T06:00:00	6	Velocidad del viento	4.8
148270	7	Sololá	701	Sololá	2	El tablón	4	Abril	2023-04-14T00:00:00	2024-11-06T06:00:00	7	Dirección del viento	4.83
148271	7	Sololá	701	Sololá	2	El tablón	4	Abril	2023-04-14T00:00:00	2024-11-06T06:00:00	1	Precipitación	0
148272	7	Sololá	701	Sololá	2	El tablón	4	Abril	2023-04-14T00:00:00	2024-11-06T06:00:00	8	Radiación solar	0
148273	7	Sololá	701	Sololá	2	El tablón	4	Abril	2023-04-14T00:00:00	2024-11-06T07:00:00	2	Temperatura media	13.9
148274	7	Sololá	701	Sololá	2	El tablón	4	Abril	2023-04-14T00:00:00	2024-11-06T07:00:00	4	Temperatura máxima	13.9
148275	7	Sololá	701	Sololá	2	El tablón	4	Abril	2023-04-14T00:00:00	2024-11-06T07:00:00	3	Temperatura mínima	10.6
148276	7	Sololá	701	Sololá	2	El tablón	4	Abril	2023-04-14T00:00:00	2024-11-06T07:00:00	5	Humedad	66
148277	7	Sololá	701	Sololá	2	El tablón	4	Abril	2023-04-14T00:00:00	2024-11-06T07:00:00	6	Velocidad del viento	1.6
148278	7	Sololá	701	Sololá	2	El tablón	4	Abril	2023-04-14T00:00:00	2024-11-06T07:00:00	7	Dirección del viento	1.61
148279	7	Sololá	701	Sololá	2	El tablón	4	Abril	2023-04-14T00:00:00	2024-11-06T07:00:00	1	Precipitación	0
148280	7	Sololá	701	Sololá	2	El tablón	4	Abril	2023-04-14T00:00:00	2024-11-06T07:00:00	8	Radiación solar	80
148281	7	Sololá	701	Sololá	2	El tablón	4	Abril	2023-04-14T00:00:00	2024-11-06T08:00:00	2	Temperatura media	15.2
148282	7	Sololá	701	Sololá	2	El tablón	4	Abril	2023-04-14T00:00:00	2024-11-06T08:00:00	4	Temperatura máxima	15.7
148283	7	Sololá	701	Sololá	2	El tablón	4	Abril	2023-04-14T00:00:00	2024-11-06T08:00:00	3	Temperatura mínima	13.9
148284	7	Sololá	701	Sololá	2	El tablón	4	Abril	2023-04-14T00:00:00	2024-11-06T08:00:00	5	Humedad	64
148285	7	Sololá	701	Sololá	2	El tablón	4	Abril	2023-04-14T00:00:00	2024-11-06T08:00:00	6	Velocidad del viento	3.2
148286	7	Sololá	701	Sololá	2	El tablón	4	Abril	2023-04-14T00:00:00	2024-11-06T08:00:00	7	Dirección del viento	3.22
148287	7	Sololá	701	Sololá	2	El tablón	4	Abril	2023-04-14T00:00:00	2024-11-06T08:00:00	1	Precipitación	0
148288	7	Sololá	701	Sololá	2	El tablón	4	Abril	2023-04-14T00:00:00	2024-11-06T08:00:00	8	Radiación solar	296
148289	7	Sololá	701	Sololá	2	El tablón	4	Abril	2023-04-14T00:00:00	2024-11-06T09:00:00	2	Temperatura media	17.8
148290	7	Sololá	701	Sololá	2	El tablón	4	Abril	2023-04-14T00:00:00	2024-11-06T09:00:00	4	Temperatura máxima	17.8
148291	7	Sololá	701	Sololá	2	El tablón	4	Abril	2023-04-14T00:00:00	2024-11-06T09:00:00	3	Temperatura mínima	15.2
148292	7	Sololá	701	Sololá	2	El tablón	4	Abril	2023-04-14T00:00:00	2024-11-06T09:00:00	5	Humedad	55
148293	7	Sololá	701	Sololá	2	El tablón	4	Abril	2023-04-14T00:00:00	2024-11-06T09:00:00	6	Velocidad del viento	6.4
148294	7	Sololá	701	Sololá	2	El tablón	4	Abril	2023-04-14T00:00:00	2024-11-06T09:00:00	7	Dirección del viento	6.44
148295	7	Sololá	701	Sololá	2	El tablón	4	Abril	2023-04-14T00:00:00	2024-11-06T09:00:00	1	Precipitación	0
148296	7	Sololá	701	Sololá	2	El tablón	4	Abril	2023-04-14T00:00:00	2024-11-06T09:00:00	8	Radiación solar	431
148297	7	Sololá	701	Sololá	2	El tablón	4	Abril	2023-04-14T00:00:00	2024-11-06T10:00:00	2	Temperatura media	16.8
148298	7	Sololá	701	Sololá	2	El tablón	4	Abril	2023-04-14T00:00:00	2024-11-06T10:00:00	4	Temperatura máxima	17.9
148299	7	Sololá	701	Sololá	2	El tablón	4	Abril	2023-04-14T00:00:00	2024-11-06T10:00:00	3	Temperatura mínima	16.8
148300	7	Sololá	701	Sololá	2	El tablón	4	Abril	2023-04-14T00:00:00	2024-11-06T10:00:00	5	Humedad	61
148301	7	Sololá	701	Sololá	2	El tablón	4	Abril	2023-04-14T00:00:00	2024-11-06T10:00:00	6	Velocidad del viento	8
148302	7	Sololá	701	Sololá	2	El tablón	4	Abril	2023-04-14T00:00:00	2024-11-06T10:00:00	7	Dirección del viento	8.05
148303	7	Sololá	701	Sololá	2	El tablón	4	Abril	2023-04-14T00:00:00	2024-11-06T10:00:00	1	Precipitación	0
148304	7	Sololá	701	Sololá	2	El tablón	4	Abril	2023-04-14T00:00:00	2024-11-06T10:00:00	8	Radiación solar	648
148305	7	Sololá	701	Sololá	2	El tablón	4	Abril	2023-04-14T00:00:00	2024-11-06T11:00:00	2	Temperatura media	19.7
148306	7	Sololá	701	Sololá	2	El tablón	4	Abril	2023-04-14T00:00:00	2024-11-06T11:00:00	4	Temperatura máxima	19.7
148307	7	Sololá	701	Sololá	2	El tablón	4	Abril	2023-04-14T00:00:00	2024-11-06T11:00:00	3	Temperatura mínima	16.8
148308	7	Sololá	701	Sololá	2	El tablón	4	Abril	2023-04-14T00:00:00	2024-11-06T11:00:00	5	Humedad	54
148309	7	Sololá	701	Sololá	2	El tablón	4	Abril	2023-04-14T00:00:00	2024-11-06T11:00:00	6	Velocidad del viento	8
148310	7	Sololá	701	Sololá	2	El tablón	4	Abril	2023-04-14T00:00:00	2024-11-06T11:00:00	7	Dirección del viento	8.05
148311	7	Sololá	701	Sololá	2	El tablón	4	Abril	2023-04-14T00:00:00	2024-11-06T11:00:00	1	Precipitación	0
148312	7	Sololá	701	Sololá	2	El tablón	4	Abril	2023-04-14T00:00:00	2024-11-06T11:00:00	8	Radiación solar	809
148313	7	Sololá	701	Sololá	2	El tablón	4	Abril	2023-04-14T00:00:00	2024-11-06T12:00:00	2	Temperatura media	21.7
148314	7	Sololá	701	Sololá	2	El tablón	4	Abril	2023-04-14T00:00:00	2024-11-06T12:00:00	4	Temperatura máxima	21.8
148315	7	Sololá	701	Sololá	2	El tablón	4	Abril	2023-04-14T00:00:00	2024-11-06T12:00:00	3	Temperatura mínima	19.7
148316	7	Sololá	701	Sololá	2	El tablón	4	Abril	2023-04-14T00:00:00	2024-11-06T12:00:00	5	Humedad	34
148317	7	Sololá	701	Sololá	2	El tablón	4	Abril	2023-04-14T00:00:00	2024-11-06T12:00:00	6	Velocidad del viento	11.3
148318	7	Sololá	701	Sololá	2	El tablón	4	Abril	2023-04-14T00:00:00	2024-11-06T12:00:00	7	Dirección del viento	11.27
148319	7	Sololá	701	Sololá	2	El tablón	4	Abril	2023-04-14T00:00:00	2024-11-06T12:00:00	1	Precipitación	0
148320	7	Sololá	701	Sololá	2	El tablón	4	Abril	2023-04-14T00:00:00	2024-11-06T12:00:00	8	Radiación solar	959
148321	7	Sololá	701	Sololá	2	El tablón	4	Abril	2023-04-14T00:00:00	2024-11-06T13:00:00	2	Temperatura media	19
148322	7	Sololá	701	Sololá	2	El tablón	4	Abril	2023-04-14T00:00:00	2024-11-06T13:00:00	4	Temperatura máxima	22.1
148323	7	Sololá	701	Sololá	2	El tablón	4	Abril	2023-04-14T00:00:00	2024-11-06T13:00:00	3	Temperatura mínima	18.8
148324	7	Sololá	701	Sololá	2	El tablón	4	Abril	2023-04-14T00:00:00	2024-11-06T13:00:00	5	Humedad	71
148325	7	Sololá	701	Sololá	2	El tablón	4	Abril	2023-04-14T00:00:00	2024-11-06T13:00:00	6	Velocidad del viento	9.7
148326	7	Sololá	701	Sololá	2	El tablón	4	Abril	2023-04-14T00:00:00	2024-11-06T13:00:00	7	Dirección del viento	9.66
148327	7	Sololá	701	Sololá	2	El tablón	4	Abril	2023-04-14T00:00:00	2024-11-06T13:00:00	1	Precipitación	0
148328	7	Sololá	701	Sololá	2	El tablón	4	Abril	2023-04-14T00:00:00	2024-11-06T13:00:00	8	Radiación solar	958
148329	7	Sololá	701	Sololá	2	El tablón	4	Abril	2023-04-14T00:00:00	2024-11-06T14:00:00	2	Temperatura media	18
148330	7	Sololá	701	Sololá	2	El tablón	4	Abril	2023-04-14T00:00:00	2024-11-06T14:00:00	4	Temperatura máxima	19
148331	7	Sololá	701	Sololá	2	El tablón	4	Abril	2023-04-14T00:00:00	2024-11-06T14:00:00	3	Temperatura mínima	17.9
148332	7	Sololá	701	Sololá	2	El tablón	4	Abril	2023-04-14T00:00:00	2024-11-06T14:00:00	5	Humedad	80
148333	7	Sololá	701	Sololá	2	El tablón	4	Abril	2023-04-14T00:00:00	2024-11-06T14:00:00	6	Velocidad del viento	12.9
148334	7	Sololá	701	Sololá	2	El tablón	4	Abril	2023-04-14T00:00:00	2024-11-06T14:00:00	7	Dirección del viento	12.87
148335	7	Sololá	701	Sololá	2	El tablón	4	Abril	2023-04-14T00:00:00	2024-11-06T14:00:00	1	Precipitación	0
148336	7	Sololá	701	Sololá	2	El tablón	4	Abril	2023-04-14T00:00:00	2024-11-06T14:00:00	8	Radiación solar	889
148337	7	Sololá	701	Sololá	2	El tablón	4	Abril	2023-04-14T00:00:00	2024-11-06T15:00:00	2	Temperatura media	17.3
148338	7	Sololá	701	Sololá	2	El tablón	4	Abril	2023-04-14T00:00:00	2024-11-06T15:00:00	4	Temperatura máxima	18.1
148339	7	Sololá	701	Sololá	2	El tablón	4	Abril	2023-04-14T00:00:00	2024-11-06T15:00:00	3	Temperatura mínima	17.3
148340	7	Sololá	701	Sololá	2	El tablón	4	Abril	2023-04-14T00:00:00	2024-11-06T15:00:00	5	Humedad	82
148341	7	Sololá	701	Sololá	2	El tablón	4	Abril	2023-04-14T00:00:00	2024-11-06T15:00:00	6	Velocidad del viento	8
148342	7	Sololá	701	Sololá	2	El tablón	4	Abril	2023-04-14T00:00:00	2024-11-06T15:00:00	7	Dirección del viento	8.05
148343	7	Sololá	701	Sololá	2	El tablón	4	Abril	2023-04-14T00:00:00	2024-11-06T15:00:00	1	Precipitación	0
148344	7	Sololá	701	Sololá	2	El tablón	4	Abril	2023-04-14T00:00:00	2024-11-06T15:00:00	8	Radiación solar	426
148345	7	Sololá	701	Sololá	2	El tablón	4	Abril	2023-04-14T00:00:00	2024-11-06T16:00:00	2	Temperatura media	15.9
148346	7	Sololá	701	Sololá	2	El tablón	4	Abril	2023-04-14T00:00:00	2024-11-06T16:00:00	4	Temperatura máxima	17.3
148347	7	Sololá	701	Sololá	2	El tablón	4	Abril	2023-04-14T00:00:00	2024-11-06T16:00:00	3	Temperatura mínima	15.9
148348	7	Sololá	701	Sololá	2	El tablón	4	Abril	2023-04-14T00:00:00	2024-11-06T16:00:00	5	Humedad	86
148349	7	Sololá	701	Sololá	2	El tablón	4	Abril	2023-04-14T00:00:00	2024-11-06T16:00:00	6	Velocidad del viento	8
148350	7	Sololá	701	Sololá	2	El tablón	4	Abril	2023-04-14T00:00:00	2024-11-06T16:00:00	7	Dirección del viento	8.05
148351	7	Sololá	701	Sololá	2	El tablón	4	Abril	2023-04-14T00:00:00	2024-11-06T16:00:00	1	Precipitación	0
148352	7	Sololá	701	Sololá	2	El tablón	4	Abril	2023-04-14T00:00:00	2024-11-06T16:00:00	8	Radiación solar	218
148353	7	Sololá	701	Sololá	2	El tablón	4	Abril	2023-04-14T00:00:00	2024-11-06T17:00:00	2	Temperatura media	15.5
148354	7	Sololá	701	Sololá	2	El tablón	4	Abril	2023-04-14T00:00:00	2024-11-06T17:00:00	4	Temperatura máxima	15.9
148355	7	Sololá	701	Sololá	2	El tablón	4	Abril	2023-04-14T00:00:00	2024-11-06T17:00:00	3	Temperatura mínima	15.5
148356	7	Sololá	701	Sololá	2	El tablón	4	Abril	2023-04-14T00:00:00	2024-11-06T17:00:00	5	Humedad	87
148357	7	Sololá	701	Sololá	2	El tablón	4	Abril	2023-04-14T00:00:00	2024-11-06T17:00:00	6	Velocidad del viento	4.8
148358	7	Sololá	701	Sololá	2	El tablón	4	Abril	2023-04-14T00:00:00	2024-11-06T17:00:00	7	Dirección del viento	4.83
148359	7	Sololá	701	Sololá	2	El tablón	4	Abril	2023-04-14T00:00:00	2024-11-06T17:00:00	1	Precipitación	0
148360	7	Sololá	701	Sololá	2	El tablón	4	Abril	2023-04-14T00:00:00	2024-11-06T17:00:00	8	Radiación solar	72
148361	7	Sololá	701	Sololá	2	El tablón	4	Abril	2023-04-14T00:00:00	2024-11-06T18:00:00	2	Temperatura media	15.3
148362	7	Sololá	701	Sololá	2	El tablón	4	Abril	2023-04-14T00:00:00	2024-11-06T18:00:00	4	Temperatura máxima	15.6
148363	7	Sololá	701	Sololá	2	El tablón	4	Abril	2023-04-14T00:00:00	2024-11-06T18:00:00	3	Temperatura mínima	15.2
148364	7	Sololá	701	Sololá	2	El tablón	4	Abril	2023-04-14T00:00:00	2024-11-06T18:00:00	5	Humedad	88
148365	7	Sololá	701	Sololá	2	El tablón	4	Abril	2023-04-14T00:00:00	2024-11-06T18:00:00	6	Velocidad del viento	3.2
148366	7	Sololá	701	Sololá	2	El tablón	4	Abril	2023-04-14T00:00:00	2024-11-06T18:00:00	7	Dirección del viento	3.22
148367	7	Sololá	701	Sololá	2	El tablón	4	Abril	2023-04-14T00:00:00	2024-11-06T18:00:00	1	Precipitación	0
148368	7	Sololá	701	Sololá	2	El tablón	4	Abril	2023-04-14T00:00:00	2024-11-06T18:00:00	8	Radiación solar	42
148369	7	Sololá	701	Sololá	2	El tablón	4	Abril	2023-04-14T00:00:00	2024-11-06T19:00:00	2	Temperatura media	14.7
148370	7	Sololá	701	Sololá	2	El tablón	4	Abril	2023-04-14T00:00:00	2024-11-06T19:00:00	4	Temperatura máxima	15.3
148371	7	Sololá	701	Sololá	2	El tablón	4	Abril	2023-04-14T00:00:00	2024-11-06T19:00:00	3	Temperatura mínima	14.6
148372	7	Sololá	701	Sololá	2	El tablón	4	Abril	2023-04-14T00:00:00	2024-11-06T19:00:00	5	Humedad	88
148373	7	Sololá	701	Sololá	2	El tablón	4	Abril	2023-04-14T00:00:00	2024-11-06T19:00:00	6	Velocidad del viento	1.6
148374	7	Sololá	701	Sololá	2	El tablón	4	Abril	2023-04-14T00:00:00	2024-11-06T19:00:00	7	Dirección del viento	1.61
148375	7	Sololá	701	Sololá	2	El tablón	4	Abril	2023-04-14T00:00:00	2024-11-06T19:00:00	1	Precipitación	0
148376	7	Sololá	701	Sololá	2	El tablón	4	Abril	2023-04-14T00:00:00	2024-11-06T19:00:00	8	Radiación solar	0
148377	7	Sololá	701	Sololá	2	El tablón	4	Abril	2023-04-14T00:00:00	2024-11-06T20:00:00	2	Temperatura media	14
148378	7	Sololá	701	Sololá	2	El tablón	4	Abril	2023-04-14T00:00:00	2024-11-06T20:00:00	4	Temperatura máxima	14.7
148379	7	Sololá	701	Sololá	2	El tablón	4	Abril	2023-04-14T00:00:00	2024-11-06T20:00:00	3	Temperatura mínima	14
148380	7	Sololá	701	Sololá	2	El tablón	4	Abril	2023-04-14T00:00:00	2024-11-06T20:00:00	5	Humedad	89
148381	7	Sololá	701	Sololá	2	El tablón	4	Abril	2023-04-14T00:00:00	2024-11-06T20:00:00	6	Velocidad del viento	0
148382	7	Sololá	701	Sololá	2	El tablón	4	Abril	2023-04-14T00:00:00	2024-11-06T20:00:00	7	Dirección del viento	0
148383	7	Sololá	701	Sololá	2	El tablón	4	Abril	2023-04-14T00:00:00	2024-11-06T20:00:00	1	Precipitación	0
148384	7	Sololá	701	Sololá	2	El tablón	4	Abril	2023-04-14T00:00:00	2024-11-06T20:00:00	8	Radiación solar	0
148385	7	Sololá	701	Sololá	2	El tablón	4	Abril	2023-04-14T00:00:00	2024-11-06T21:00:00	2	Temperatura media	13.4
148386	7	Sololá	701	Sololá	2	El tablón	4	Abril	2023-04-14T00:00:00	2024-11-06T21:00:00	4	Temperatura máxima	14
148387	7	Sololá	701	Sololá	2	El tablón	4	Abril	2023-04-14T00:00:00	2024-11-06T21:00:00	3	Temperatura mínima	13.3
148388	7	Sololá	701	Sololá	2	El tablón	4	Abril	2023-04-14T00:00:00	2024-11-06T21:00:00	5	Humedad	89
148389	7	Sololá	701	Sololá	2	El tablón	4	Abril	2023-04-14T00:00:00	2024-11-06T21:00:00	6	Velocidad del viento	1.6
148390	7	Sololá	701	Sololá	2	El tablón	4	Abril	2023-04-14T00:00:00	2024-11-06T21:00:00	7	Dirección del viento	1.61
148391	7	Sololá	701	Sololá	2	El tablón	4	Abril	2023-04-14T00:00:00	2024-11-06T21:00:00	1	Precipitación	0
148392	7	Sololá	701	Sololá	2	El tablón	4	Abril	2023-04-14T00:00:00	2024-11-06T21:00:00	8	Radiación solar	0
148393	7	Sololá	701	Sololá	2	El tablón	4	Abril	2023-04-14T00:00:00	2024-11-06T22:00:00	2	Temperatura media	12.8
148394	7	Sololá	701	Sololá	2	El tablón	4	Abril	2023-04-14T00:00:00	2024-11-06T22:00:00	4	Temperatura máxima	13.4
148395	7	Sololá	701	Sololá	2	El tablón	4	Abril	2023-04-14T00:00:00	2024-11-06T22:00:00	3	Temperatura mínima	12.8
148396	7	Sololá	701	Sololá	2	El tablón	4	Abril	2023-04-14T00:00:00	2024-11-06T22:00:00	5	Humedad	89
148397	7	Sololá	701	Sololá	2	El tablón	4	Abril	2023-04-14T00:00:00	2024-11-06T22:00:00	6	Velocidad del viento	0
148398	7	Sololá	701	Sololá	2	El tablón	4	Abril	2023-04-14T00:00:00	2024-11-06T22:00:00	7	Dirección del viento	0
148399	7	Sololá	701	Sololá	2	El tablón	4	Abril	2023-04-14T00:00:00	2024-11-06T22:00:00	1	Precipitación	0
148400	7	Sololá	701	Sololá	2	El tablón	4	Abril	2023-04-14T00:00:00	2024-11-06T22:00:00	8	Radiación solar	0
148401	7	Sololá	701	Sololá	2	El tablón	4	Abril	2023-04-14T00:00:00	2024-11-06T23:00:00	2	Temperatura media	12.4
148402	7	Sololá	701	Sololá	2	El tablón	4	Abril	2023-04-14T00:00:00	2024-11-06T23:00:00	4	Temperatura máxima	12.8
148403	7	Sololá	701	Sololá	2	El tablón	4	Abril	2023-04-14T00:00:00	2024-11-06T23:00:00	3	Temperatura mínima	12.3
148404	7	Sololá	701	Sololá	2	El tablón	4	Abril	2023-04-14T00:00:00	2024-11-06T23:00:00	5	Humedad	89
148405	7	Sololá	701	Sololá	2	El tablón	4	Abril	2023-04-14T00:00:00	2024-11-06T23:00:00	6	Velocidad del viento	1.6
148406	7	Sololá	701	Sololá	2	El tablón	4	Abril	2023-04-14T00:00:00	2024-11-06T23:00:00	7	Dirección del viento	1.61
148407	7	Sololá	701	Sololá	2	El tablón	4	Abril	2023-04-14T00:00:00	2024-11-06T23:00:00	1	Precipitación	0
148408	7	Sololá	701	Sololá	2	El tablón	4	Abril	2023-04-14T00:00:00	2024-11-06T23:00:00	8	Radiación solar	0
148409	7	Sololá	701	Sololá	2	El tablón	4	Abril	2023-04-15T00:00:00	2024-11-06T00:00:00	2	Temperatura media	12.4
148410	7	Sololá	701	Sololá	2	El tablón	4	Abril	2023-04-15T00:00:00	2024-11-06T00:00:00	4	Temperatura máxima	12.7
148411	7	Sololá	701	Sololá	2	El tablón	4	Abril	2023-04-15T00:00:00	2024-11-06T00:00:00	3	Temperatura mínima	12.3
148412	7	Sololá	701	Sololá	2	El tablón	4	Abril	2023-04-15T00:00:00	2024-11-06T00:00:00	5	Humedad	88
148413	7	Sololá	701	Sololá	2	El tablón	4	Abril	2023-04-15T00:00:00	2024-11-06T00:00:00	6	Velocidad del viento	1.6
148414	7	Sololá	701	Sololá	2	El tablón	4	Abril	2023-04-15T00:00:00	2024-11-06T00:00:00	7	Dirección del viento	1.61
148415	7	Sololá	701	Sololá	2	El tablón	4	Abril	2023-04-15T00:00:00	2024-11-06T00:00:00	1	Precipitación	0
148416	7	Sololá	701	Sololá	2	El tablón	4	Abril	2023-04-15T00:00:00	2024-11-06T00:00:00	8	Radiación solar	0
148417	7	Sololá	701	Sololá	2	El tablón	4	Abril	2023-04-15T00:00:00	2024-11-06T01:00:00	2	Temperatura media	11.6
148418	7	Sololá	701	Sololá	2	El tablón	4	Abril	2023-04-15T00:00:00	2024-11-06T01:00:00	4	Temperatura máxima	12.4
148419	7	Sololá	701	Sololá	2	El tablón	4	Abril	2023-04-15T00:00:00	2024-11-06T01:00:00	3	Temperatura mínima	11.6
148420	7	Sololá	701	Sololá	2	El tablón	4	Abril	2023-04-15T00:00:00	2024-11-06T01:00:00	5	Humedad	88
148421	7	Sololá	701	Sololá	2	El tablón	4	Abril	2023-04-15T00:00:00	2024-11-06T01:00:00	6	Velocidad del viento	1.6
148422	7	Sololá	701	Sololá	2	El tablón	4	Abril	2023-04-15T00:00:00	2024-11-06T01:00:00	7	Dirección del viento	1.61
148423	7	Sololá	701	Sololá	2	El tablón	4	Abril	2023-04-15T00:00:00	2024-11-06T01:00:00	1	Precipitación	0
148424	7	Sololá	701	Sololá	2	El tablón	4	Abril	2023-04-15T00:00:00	2024-11-06T01:00:00	8	Radiación solar	0
148425	7	Sololá	701	Sololá	2	El tablón	4	Abril	2023-04-15T00:00:00	2024-11-06T02:00:00	2	Temperatura media	11.8
148426	7	Sololá	701	Sololá	2	El tablón	4	Abril	2023-04-15T00:00:00	2024-11-06T02:00:00	4	Temperatura máxima	11.8
148427	7	Sololá	701	Sololá	2	El tablón	4	Abril	2023-04-15T00:00:00	2024-11-06T02:00:00	3	Temperatura mínima	11.4
148428	7	Sololá	701	Sololá	2	El tablón	4	Abril	2023-04-15T00:00:00	2024-11-06T02:00:00	5	Humedad	89
148429	7	Sololá	701	Sololá	2	El tablón	4	Abril	2023-04-15T00:00:00	2024-11-06T02:00:00	6	Velocidad del viento	1.6
148430	7	Sololá	701	Sololá	2	El tablón	4	Abril	2023-04-15T00:00:00	2024-11-06T02:00:00	7	Dirección del viento	1.61
148431	7	Sololá	701	Sololá	2	El tablón	4	Abril	2023-04-15T00:00:00	2024-11-06T02:00:00	1	Precipitación	0
148432	7	Sololá	701	Sololá	2	El tablón	4	Abril	2023-04-15T00:00:00	2024-11-06T02:00:00	8	Radiación solar	0
148433	7	Sololá	701	Sololá	2	El tablón	4	Abril	2023-04-15T00:00:00	2024-11-06T03:00:00	2	Temperatura media	11.7
148434	7	Sololá	701	Sololá	2	El tablón	4	Abril	2023-04-15T00:00:00	2024-11-06T03:00:00	4	Temperatura máxima	11.9
148435	7	Sololá	701	Sololá	2	El tablón	4	Abril	2023-04-15T00:00:00	2024-11-06T03:00:00	3	Temperatura mínima	11.7
148436	7	Sololá	701	Sololá	2	El tablón	4	Abril	2023-04-15T00:00:00	2024-11-06T03:00:00	5	Humedad	89
148437	7	Sololá	701	Sololá	2	El tablón	4	Abril	2023-04-15T00:00:00	2024-11-06T03:00:00	6	Velocidad del viento	3.2
148438	7	Sololá	701	Sololá	2	El tablón	4	Abril	2023-04-15T00:00:00	2024-11-06T03:00:00	7	Dirección del viento	3.22
148439	7	Sololá	701	Sololá	2	El tablón	4	Abril	2023-04-15T00:00:00	2024-11-06T03:00:00	1	Precipitación	0
148440	7	Sololá	701	Sololá	2	El tablón	4	Abril	2023-04-15T00:00:00	2024-11-06T03:00:00	8	Radiación solar	0
148441	7	Sololá	701	Sololá	2	El tablón	4	Abril	2023-04-15T00:00:00	2024-11-06T04:00:00	2	Temperatura media	11
148442	7	Sololá	701	Sololá	2	El tablón	4	Abril	2023-04-15T00:00:00	2024-11-06T04:00:00	4	Temperatura máxima	11.7
148443	7	Sololá	701	Sololá	2	El tablón	4	Abril	2023-04-15T00:00:00	2024-11-06T04:00:00	3	Temperatura mínima	11
148444	7	Sololá	701	Sololá	2	El tablón	4	Abril	2023-04-15T00:00:00	2024-11-06T04:00:00	5	Humedad	88
148445	7	Sololá	701	Sololá	2	El tablón	4	Abril	2023-04-15T00:00:00	2024-11-06T04:00:00	6	Velocidad del viento	1.6
148446	7	Sololá	701	Sololá	2	El tablón	4	Abril	2023-04-15T00:00:00	2024-11-06T04:00:00	7	Dirección del viento	1.61
148447	7	Sololá	701	Sololá	2	El tablón	4	Abril	2023-04-15T00:00:00	2024-11-06T04:00:00	1	Precipitación	0
148448	7	Sololá	701	Sololá	2	El tablón	4	Abril	2023-04-15T00:00:00	2024-11-06T04:00:00	8	Radiación solar	0
148449	7	Sololá	701	Sololá	2	El tablón	4	Abril	2023-04-15T00:00:00	2024-11-06T05:00:00	2	Temperatura media	10.7
148450	7	Sololá	701	Sololá	2	El tablón	4	Abril	2023-04-15T00:00:00	2024-11-06T05:00:00	4	Temperatura máxima	11
148451	7	Sololá	701	Sololá	2	El tablón	4	Abril	2023-04-15T00:00:00	2024-11-06T05:00:00	3	Temperatura mínima	10.6
148452	7	Sololá	701	Sololá	2	El tablón	4	Abril	2023-04-15T00:00:00	2024-11-06T05:00:00	5	Humedad	89
148453	7	Sololá	701	Sololá	2	El tablón	4	Abril	2023-04-15T00:00:00	2024-11-06T05:00:00	6	Velocidad del viento	3.2
148454	7	Sololá	701	Sololá	2	El tablón	4	Abril	2023-04-15T00:00:00	2024-11-06T05:00:00	7	Dirección del viento	3.22
148455	7	Sololá	701	Sololá	2	El tablón	4	Abril	2023-04-15T00:00:00	2024-11-06T05:00:00	1	Precipitación	0
148456	7	Sololá	701	Sololá	2	El tablón	4	Abril	2023-04-15T00:00:00	2024-11-06T05:00:00	8	Radiación solar	0
148457	7	Sololá	701	Sololá	2	El tablón	4	Abril	2023-04-15T00:00:00	2024-11-06T06:00:00	2	Temperatura media	10.4
148458	7	Sololá	701	Sololá	2	El tablón	4	Abril	2023-04-15T00:00:00	2024-11-06T06:00:00	4	Temperatura máxima	10.8
148459	7	Sololá	701	Sololá	2	El tablón	4	Abril	2023-04-15T00:00:00	2024-11-06T06:00:00	3	Temperatura mínima	10.4
148460	7	Sololá	701	Sololá	2	El tablón	4	Abril	2023-04-15T00:00:00	2024-11-06T06:00:00	5	Humedad	88
148461	7	Sololá	701	Sololá	2	El tablón	4	Abril	2023-04-15T00:00:00	2024-11-06T06:00:00	6	Velocidad del viento	1.6
148462	7	Sololá	701	Sololá	2	El tablón	4	Abril	2023-04-15T00:00:00	2024-11-06T06:00:00	7	Dirección del viento	1.61
148463	7	Sololá	701	Sololá	2	El tablón	4	Abril	2023-04-15T00:00:00	2024-11-06T06:00:00	1	Precipitación	0
148464	7	Sololá	701	Sololá	2	El tablón	4	Abril	2023-04-15T00:00:00	2024-11-06T06:00:00	8	Radiación solar	0
148465	7	Sololá	701	Sololá	2	El tablón	4	Abril	2023-04-15T00:00:00	2024-11-06T07:00:00	2	Temperatura media	11.4
148466	7	Sololá	701	Sololá	2	El tablón	4	Abril	2023-04-15T00:00:00	2024-11-06T07:00:00	4	Temperatura máxima	11.4
148467	7	Sololá	701	Sololá	2	El tablón	4	Abril	2023-04-15T00:00:00	2024-11-06T07:00:00	3	Temperatura mínima	10.2
148468	7	Sololá	701	Sololá	2	El tablón	4	Abril	2023-04-15T00:00:00	2024-11-06T07:00:00	5	Humedad	87
148469	7	Sololá	701	Sololá	2	El tablón	4	Abril	2023-04-15T00:00:00	2024-11-06T07:00:00	6	Velocidad del viento	1.6
148470	7	Sololá	701	Sololá	2	El tablón	4	Abril	2023-04-15T00:00:00	2024-11-06T07:00:00	7	Dirección del viento	1.61
148471	7	Sololá	701	Sololá	2	El tablón	4	Abril	2023-04-15T00:00:00	2024-11-06T07:00:00	1	Precipitación	0
148472	7	Sololá	701	Sololá	2	El tablón	4	Abril	2023-04-15T00:00:00	2024-11-06T07:00:00	8	Radiación solar	64
148473	7	Sololá	701	Sololá	2	El tablón	4	Abril	2023-04-15T00:00:00	2024-11-06T08:00:00	2	Temperatura media	14.2
148474	7	Sololá	701	Sololá	2	El tablón	4	Abril	2023-04-15T00:00:00	2024-11-06T08:00:00	4	Temperatura máxima	14.3
148475	7	Sololá	701	Sololá	2	El tablón	4	Abril	2023-04-15T00:00:00	2024-11-06T08:00:00	3	Temperatura mínima	11.4
148476	7	Sololá	701	Sololá	2	El tablón	4	Abril	2023-04-15T00:00:00	2024-11-06T08:00:00	5	Humedad	84
148477	7	Sololá	701	Sololá	2	El tablón	4	Abril	2023-04-15T00:00:00	2024-11-06T08:00:00	6	Velocidad del viento	1.6
148478	7	Sololá	701	Sololá	2	El tablón	4	Abril	2023-04-15T00:00:00	2024-11-06T08:00:00	7	Dirección del viento	1.61
148479	7	Sololá	701	Sololá	2	El tablón	4	Abril	2023-04-15T00:00:00	2024-11-06T08:00:00	1	Precipitación	0
148480	7	Sololá	701	Sololá	2	El tablón	4	Abril	2023-04-15T00:00:00	2024-11-06T08:00:00	8	Radiación solar	184
148481	7	Sololá	701	Sololá	2	El tablón	4	Abril	2023-04-15T00:00:00	2024-11-06T09:00:00	2	Temperatura media	16.7
148482	7	Sololá	701	Sololá	2	El tablón	4	Abril	2023-04-15T00:00:00	2024-11-06T09:00:00	4	Temperatura máxima	16.7
148483	7	Sololá	701	Sololá	2	El tablón	4	Abril	2023-04-15T00:00:00	2024-11-06T09:00:00	3	Temperatura mínima	14.2
148484	7	Sololá	701	Sololá	2	El tablón	4	Abril	2023-04-15T00:00:00	2024-11-06T09:00:00	5	Humedad	76
148485	7	Sololá	701	Sololá	2	El tablón	4	Abril	2023-04-15T00:00:00	2024-11-06T09:00:00	6	Velocidad del viento	3.2
148486	7	Sololá	701	Sololá	2	El tablón	4	Abril	2023-04-15T00:00:00	2024-11-06T09:00:00	7	Dirección del viento	3.22
148487	7	Sololá	701	Sololá	2	El tablón	4	Abril	2023-04-15T00:00:00	2024-11-06T09:00:00	1	Precipitación	0
148488	7	Sololá	701	Sololá	2	El tablón	4	Abril	2023-04-15T00:00:00	2024-11-06T09:00:00	8	Radiación solar	374
148489	7	Sololá	701	Sololá	2	El tablón	4	Abril	2023-04-15T00:00:00	2024-11-06T10:00:00	2	Temperatura media	17.2
148490	7	Sololá	701	Sololá	2	El tablón	4	Abril	2023-04-15T00:00:00	2024-11-06T10:00:00	4	Temperatura máxima	17.4
148491	7	Sololá	701	Sololá	2	El tablón	4	Abril	2023-04-15T00:00:00	2024-11-06T10:00:00	3	Temperatura mínima	16.6
148492	7	Sololá	701	Sololá	2	El tablón	4	Abril	2023-04-15T00:00:00	2024-11-06T10:00:00	5	Humedad	77
148493	7	Sololá	701	Sololá	2	El tablón	4	Abril	2023-04-15T00:00:00	2024-11-06T10:00:00	6	Velocidad del viento	6.4
148494	7	Sololá	701	Sololá	2	El tablón	4	Abril	2023-04-15T00:00:00	2024-11-06T10:00:00	7	Dirección del viento	6.44
148495	7	Sololá	701	Sololá	2	El tablón	4	Abril	2023-04-15T00:00:00	2024-11-06T10:00:00	1	Precipitación	0
148496	7	Sololá	701	Sololá	2	El tablón	4	Abril	2023-04-15T00:00:00	2024-11-06T10:00:00	8	Radiación solar	668
148497	7	Sololá	701	Sololá	2	El tablón	4	Abril	2023-04-15T00:00:00	2024-11-06T11:00:00	2	Temperatura media	17.9
148498	7	Sololá	701	Sololá	2	El tablón	4	Abril	2023-04-15T00:00:00	2024-11-06T11:00:00	4	Temperatura máxima	17.9
148499	7	Sololá	701	Sololá	2	El tablón	4	Abril	2023-04-15T00:00:00	2024-11-06T11:00:00	3	Temperatura mínima	17
148500	7	Sololá	701	Sololá	2	El tablón	4	Abril	2023-04-15T00:00:00	2024-11-06T11:00:00	5	Humedad	76
148501	7	Sololá	701	Sololá	2	El tablón	4	Abril	2023-04-15T00:00:00	2024-11-06T11:00:00	6	Velocidad del viento	9.7
148502	7	Sololá	701	Sololá	2	El tablón	4	Abril	2023-04-15T00:00:00	2024-11-06T11:00:00	7	Dirección del viento	9.66
148503	7	Sololá	701	Sololá	2	El tablón	4	Abril	2023-04-15T00:00:00	2024-11-06T11:00:00	1	Precipitación	0
148504	7	Sololá	701	Sololá	2	El tablón	4	Abril	2023-04-15T00:00:00	2024-11-06T11:00:00	8	Radiación solar	792
148505	7	Sololá	701	Sololá	2	El tablón	4	Abril	2023-04-15T00:00:00	2024-11-06T12:00:00	2	Temperatura media	18.1
148506	7	Sololá	701	Sololá	2	El tablón	4	Abril	2023-04-15T00:00:00	2024-11-06T12:00:00	4	Temperatura máxima	18.3
148507	7	Sololá	701	Sololá	2	El tablón	4	Abril	2023-04-15T00:00:00	2024-11-06T12:00:00	3	Temperatura mínima	17.7
148508	7	Sololá	701	Sololá	2	El tablón	4	Abril	2023-04-15T00:00:00	2024-11-06T12:00:00	5	Humedad	77
148509	7	Sololá	701	Sololá	2	El tablón	4	Abril	2023-04-15T00:00:00	2024-11-06T12:00:00	6	Velocidad del viento	9.7
148510	7	Sololá	701	Sololá	2	El tablón	4	Abril	2023-04-15T00:00:00	2024-11-06T12:00:00	7	Dirección del viento	9.66
148511	7	Sololá	701	Sololá	2	El tablón	4	Abril	2023-04-15T00:00:00	2024-11-06T12:00:00	1	Precipitación	0
148512	7	Sololá	701	Sololá	2	El tablón	4	Abril	2023-04-15T00:00:00	2024-11-06T12:00:00	8	Radiación solar	945
148513	7	Sololá	701	Sololá	2	El tablón	4	Abril	2023-04-15T00:00:00	2024-11-06T13:00:00	2	Temperatura media	18.2
148514	7	Sololá	701	Sololá	2	El tablón	4	Abril	2023-04-15T00:00:00	2024-11-06T13:00:00	4	Temperatura máxima	18.2
148515	7	Sololá	701	Sololá	2	El tablón	4	Abril	2023-04-15T00:00:00	2024-11-06T13:00:00	3	Temperatura mínima	17.4
148516	7	Sololá	701	Sololá	2	El tablón	4	Abril	2023-04-15T00:00:00	2024-11-06T13:00:00	5	Humedad	81
148517	7	Sololá	701	Sololá	2	El tablón	4	Abril	2023-04-15T00:00:00	2024-11-06T13:00:00	6	Velocidad del viento	9.7
148518	7	Sololá	701	Sololá	2	El tablón	4	Abril	2023-04-15T00:00:00	2024-11-06T13:00:00	7	Dirección del viento	9.66
148519	7	Sololá	701	Sololá	2	El tablón	4	Abril	2023-04-15T00:00:00	2024-11-06T13:00:00	1	Precipitación	0
148520	7	Sololá	701	Sololá	2	El tablón	4	Abril	2023-04-15T00:00:00	2024-11-06T13:00:00	8	Radiación solar	810
148521	7	Sololá	701	Sololá	2	El tablón	4	Abril	2023-04-15T00:00:00	2024-11-06T14:00:00	2	Temperatura media	18.6
148522	7	Sololá	701	Sololá	2	El tablón	4	Abril	2023-04-15T00:00:00	2024-11-06T14:00:00	4	Temperatura máxima	19.2
148523	7	Sololá	701	Sololá	2	El tablón	4	Abril	2023-04-15T00:00:00	2024-11-06T14:00:00	3	Temperatura mínima	17.8
148524	7	Sololá	701	Sololá	2	El tablón	4	Abril	2023-04-15T00:00:00	2024-11-06T14:00:00	5	Humedad	80
148525	7	Sololá	701	Sololá	2	El tablón	4	Abril	2023-04-15T00:00:00	2024-11-06T14:00:00	6	Velocidad del viento	8
148526	7	Sololá	701	Sololá	2	El tablón	4	Abril	2023-04-15T00:00:00	2024-11-06T14:00:00	7	Dirección del viento	8.05
148527	7	Sololá	701	Sololá	2	El tablón	4	Abril	2023-04-15T00:00:00	2024-11-06T14:00:00	1	Precipitación	0
148528	7	Sololá	701	Sololá	2	El tablón	4	Abril	2023-04-15T00:00:00	2024-11-06T14:00:00	8	Radiación solar	711
148529	7	Sololá	701	Sololá	2	El tablón	4	Abril	2023-04-15T00:00:00	2024-11-06T15:00:00	2	Temperatura media	16
148530	7	Sololá	701	Sololá	2	El tablón	4	Abril	2023-04-15T00:00:00	2024-11-06T15:00:00	4	Temperatura máxima	18.6
148531	7	Sololá	701	Sololá	2	El tablón	4	Abril	2023-04-15T00:00:00	2024-11-06T15:00:00	3	Temperatura mínima	16
148532	7	Sololá	701	Sololá	2	El tablón	4	Abril	2023-04-15T00:00:00	2024-11-06T15:00:00	5	Humedad	88
148533	7	Sololá	701	Sololá	2	El tablón	4	Abril	2023-04-15T00:00:00	2024-11-06T15:00:00	6	Velocidad del viento	8
148534	7	Sololá	701	Sololá	2	El tablón	4	Abril	2023-04-15T00:00:00	2024-11-06T15:00:00	7	Dirección del viento	8.05
148535	7	Sololá	701	Sololá	2	El tablón	4	Abril	2023-04-15T00:00:00	2024-11-06T15:00:00	1	Precipitación	0
148536	7	Sololá	701	Sololá	2	El tablón	4	Abril	2023-04-15T00:00:00	2024-11-06T15:00:00	8	Radiación solar	230
148537	7	Sololá	701	Sololá	2	El tablón	4	Abril	2023-04-15T00:00:00	2024-11-06T16:00:00	2	Temperatura media	15.4
148538	7	Sololá	701	Sololá	2	El tablón	4	Abril	2023-04-15T00:00:00	2024-11-06T16:00:00	4	Temperatura máxima	16
148539	7	Sololá	701	Sololá	2	El tablón	4	Abril	2023-04-15T00:00:00	2024-11-06T16:00:00	3	Temperatura mínima	15.3
148540	7	Sololá	701	Sololá	2	El tablón	4	Abril	2023-04-15T00:00:00	2024-11-06T16:00:00	5	Humedad	88
148541	7	Sololá	701	Sololá	2	El tablón	4	Abril	2023-04-15T00:00:00	2024-11-06T16:00:00	6	Velocidad del viento	4.8
148542	7	Sololá	701	Sololá	2	El tablón	4	Abril	2023-04-15T00:00:00	2024-11-06T16:00:00	7	Dirección del viento	4.83
148543	7	Sololá	701	Sololá	2	El tablón	4	Abril	2023-04-15T00:00:00	2024-11-06T16:00:00	1	Precipitación	0
148544	7	Sololá	701	Sololá	2	El tablón	4	Abril	2023-04-15T00:00:00	2024-11-06T16:00:00	8	Radiación solar	51
148545	7	Sololá	701	Sololá	2	El tablón	4	Abril	2023-04-15T00:00:00	2024-11-06T17:00:00	2	Temperatura media	15
148546	7	Sololá	701	Sololá	2	El tablón	4	Abril	2023-04-15T00:00:00	2024-11-06T17:00:00	4	Temperatura máxima	15.5
148547	7	Sololá	701	Sololá	2	El tablón	4	Abril	2023-04-15T00:00:00	2024-11-06T17:00:00	3	Temperatura mínima	15
148548	7	Sololá	701	Sololá	2	El tablón	4	Abril	2023-04-15T00:00:00	2024-11-06T17:00:00	5	Humedad	89
148549	7	Sololá	701	Sololá	2	El tablón	4	Abril	2023-04-15T00:00:00	2024-11-06T17:00:00	6	Velocidad del viento	3.2
148550	7	Sololá	701	Sololá	2	El tablón	4	Abril	2023-04-15T00:00:00	2024-11-06T17:00:00	7	Dirección del viento	3.22
148551	7	Sololá	701	Sololá	2	El tablón	4	Abril	2023-04-15T00:00:00	2024-11-06T17:00:00	1	Precipitación	0
148552	7	Sololá	701	Sololá	2	El tablón	4	Abril	2023-04-15T00:00:00	2024-11-06T17:00:00	8	Radiación solar	34
148553	7	Sololá	701	Sololá	2	El tablón	4	Abril	2023-04-15T00:00:00	2024-11-06T18:00:00	2	Temperatura media	14.9
148554	7	Sololá	701	Sololá	2	El tablón	4	Abril	2023-04-15T00:00:00	2024-11-06T18:00:00	4	Temperatura máxima	15.1
148555	7	Sololá	701	Sololá	2	El tablón	4	Abril	2023-04-15T00:00:00	2024-11-06T18:00:00	3	Temperatura mínima	14.9
148556	7	Sololá	701	Sololá	2	El tablón	4	Abril	2023-04-15T00:00:00	2024-11-06T18:00:00	5	Humedad	89
148557	7	Sololá	701	Sololá	2	El tablón	4	Abril	2023-04-15T00:00:00	2024-11-06T18:00:00	6	Velocidad del viento	3.2
148558	7	Sololá	701	Sololá	2	El tablón	4	Abril	2023-04-15T00:00:00	2024-11-06T18:00:00	7	Dirección del viento	3.22
148559	7	Sololá	701	Sololá	2	El tablón	4	Abril	2023-04-15T00:00:00	2024-11-06T18:00:00	1	Precipitación	0
148560	7	Sololá	701	Sololá	2	El tablón	4	Abril	2023-04-15T00:00:00	2024-11-06T18:00:00	8	Radiación solar	12
148561	7	Sololá	701	Sololá	2	El tablón	4	Abril	2023-04-15T00:00:00	2024-11-06T19:00:00	2	Temperatura media	14.8
148562	7	Sololá	701	Sololá	2	El tablón	4	Abril	2023-04-15T00:00:00	2024-11-06T19:00:00	4	Temperatura máxima	15
148563	7	Sololá	701	Sololá	2	El tablón	4	Abril	2023-04-15T00:00:00	2024-11-06T19:00:00	3	Temperatura mínima	14.8
148564	7	Sololá	701	Sololá	2	El tablón	4	Abril	2023-04-15T00:00:00	2024-11-06T19:00:00	5	Humedad	89
148565	7	Sololá	701	Sololá	2	El tablón	4	Abril	2023-04-15T00:00:00	2024-11-06T19:00:00	6	Velocidad del viento	1.6
148566	7	Sololá	701	Sololá	2	El tablón	4	Abril	2023-04-15T00:00:00	2024-11-06T19:00:00	7	Dirección del viento	1.61
148567	7	Sololá	701	Sololá	2	El tablón	4	Abril	2023-04-15T00:00:00	2024-11-06T19:00:00	1	Precipitación	0
148568	7	Sololá	701	Sololá	2	El tablón	4	Abril	2023-04-15T00:00:00	2024-11-06T19:00:00	8	Radiación solar	0
148569	7	Sololá	701	Sololá	2	El tablón	4	Abril	2023-04-15T00:00:00	2024-11-06T20:00:00	2	Temperatura media	14.8
148570	7	Sololá	701	Sololá	2	El tablón	4	Abril	2023-04-15T00:00:00	2024-11-06T20:00:00	4	Temperatura máxima	15.1
148571	7	Sololá	701	Sololá	2	El tablón	4	Abril	2023-04-15T00:00:00	2024-11-06T20:00:00	3	Temperatura mínima	14.8
148572	7	Sololá	701	Sololá	2	El tablón	4	Abril	2023-04-15T00:00:00	2024-11-06T20:00:00	5	Humedad	89
148573	7	Sololá	701	Sololá	2	El tablón	4	Abril	2023-04-15T00:00:00	2024-11-06T20:00:00	6	Velocidad del viento	0
148574	7	Sololá	701	Sololá	2	El tablón	4	Abril	2023-04-15T00:00:00	2024-11-06T20:00:00	7	Dirección del viento	0
148575	7	Sololá	701	Sololá	2	El tablón	4	Abril	2023-04-15T00:00:00	2024-11-06T20:00:00	1	Precipitación	0
148576	7	Sololá	701	Sololá	2	El tablón	4	Abril	2023-04-15T00:00:00	2024-11-06T20:00:00	8	Radiación solar	0
148577	7	Sololá	701	Sololá	2	El tablón	4	Abril	2023-04-15T00:00:00	2024-11-06T21:00:00	2	Temperatura media	14.8
148578	7	Sololá	701	Sololá	2	El tablón	4	Abril	2023-04-15T00:00:00	2024-11-06T21:00:00	4	Temperatura máxima	14.9
148579	7	Sololá	701	Sololá	2	El tablón	4	Abril	2023-04-15T00:00:00	2024-11-06T21:00:00	3	Temperatura mínima	14.7
148580	7	Sololá	701	Sololá	2	El tablón	4	Abril	2023-04-15T00:00:00	2024-11-06T21:00:00	5	Humedad	89
148581	7	Sololá	701	Sololá	2	El tablón	4	Abril	2023-04-15T00:00:00	2024-11-06T21:00:00	6	Velocidad del viento	1.6
148582	7	Sololá	701	Sololá	2	El tablón	4	Abril	2023-04-15T00:00:00	2024-11-06T21:00:00	7	Dirección del viento	1.61
148583	7	Sololá	701	Sololá	2	El tablón	4	Abril	2023-04-15T00:00:00	2024-11-06T21:00:00	1	Precipitación	0
148584	7	Sololá	701	Sololá	2	El tablón	4	Abril	2023-04-15T00:00:00	2024-11-06T21:00:00	8	Radiación solar	0
148585	7	Sololá	701	Sololá	2	El tablón	4	Abril	2023-04-15T00:00:00	2024-11-06T22:00:00	2	Temperatura media	14.9
148586	7	Sololá	701	Sololá	2	El tablón	4	Abril	2023-04-15T00:00:00	2024-11-06T22:00:00	4	Temperatura máxima	14.9
148587	7	Sololá	701	Sololá	2	El tablón	4	Abril	2023-04-15T00:00:00	2024-11-06T22:00:00	3	Temperatura mínima	14.3
148588	7	Sololá	701	Sololá	2	El tablón	4	Abril	2023-04-15T00:00:00	2024-11-06T22:00:00	5	Humedad	87
148589	7	Sololá	701	Sololá	2	El tablón	4	Abril	2023-04-15T00:00:00	2024-11-06T22:00:00	6	Velocidad del viento	1.6
148590	7	Sololá	701	Sololá	2	El tablón	4	Abril	2023-04-15T00:00:00	2024-11-06T22:00:00	7	Dirección del viento	1.61
148591	7	Sololá	701	Sololá	2	El tablón	4	Abril	2023-04-15T00:00:00	2024-11-06T22:00:00	1	Precipitación	0
148592	7	Sololá	701	Sololá	2	El tablón	4	Abril	2023-04-15T00:00:00	2024-11-06T22:00:00	8	Radiación solar	0
148593	7	Sololá	701	Sololá	2	El tablón	4	Abril	2023-04-15T00:00:00	2024-11-06T23:00:00	2	Temperatura media	14.3
148594	7	Sololá	701	Sololá	2	El tablón	4	Abril	2023-04-15T00:00:00	2024-11-06T23:00:00	4	Temperatura máxima	15.6
148595	7	Sololá	701	Sololá	2	El tablón	4	Abril	2023-04-15T00:00:00	2024-11-06T23:00:00	3	Temperatura mínima	14.3
148596	7	Sololá	701	Sololá	2	El tablón	4	Abril	2023-04-15T00:00:00	2024-11-06T23:00:00	5	Humedad	83
148597	7	Sololá	701	Sololá	2	El tablón	4	Abril	2023-04-15T00:00:00	2024-11-06T23:00:00	6	Velocidad del viento	3.2
148598	7	Sololá	701	Sololá	2	El tablón	4	Abril	2023-04-15T00:00:00	2024-11-06T23:00:00	7	Dirección del viento	3.22
148599	7	Sololá	701	Sololá	2	El tablón	4	Abril	2023-04-15T00:00:00	2024-11-06T23:00:00	1	Precipitación	0
148600	7	Sololá	701	Sololá	2	El tablón	4	Abril	2023-04-15T00:00:00	2024-11-06T23:00:00	8	Radiación solar	0
148601	7	Sololá	701	Sololá	2	El tablón	4	Abril	2023-04-16T00:00:00	2024-11-06T00:00:00	2	Temperatura media	14.7
148602	7	Sololá	701	Sololá	2	El tablón	4	Abril	2023-04-16T00:00:00	2024-11-06T00:00:00	4	Temperatura máxima	14.7
148603	7	Sololá	701	Sololá	2	El tablón	4	Abril	2023-04-16T00:00:00	2024-11-06T00:00:00	3	Temperatura mínima	13.8
148604	7	Sololá	701	Sololá	2	El tablón	4	Abril	2023-04-16T00:00:00	2024-11-06T00:00:00	5	Humedad	85
148605	7	Sololá	701	Sololá	2	El tablón	4	Abril	2023-04-16T00:00:00	2024-11-06T00:00:00	6	Velocidad del viento	3.2
148606	7	Sololá	701	Sololá	2	El tablón	4	Abril	2023-04-16T00:00:00	2024-11-06T00:00:00	7	Dirección del viento	3.22
148607	7	Sololá	701	Sololá	2	El tablón	4	Abril	2023-04-16T00:00:00	2024-11-06T00:00:00	1	Precipitación	0
148608	7	Sololá	701	Sololá	2	El tablón	4	Abril	2023-04-16T00:00:00	2024-11-06T00:00:00	8	Radiación solar	0
148609	7	Sololá	701	Sololá	2	El tablón	4	Abril	2023-04-16T00:00:00	2024-11-06T01:00:00	2	Temperatura media	13.8
148610	7	Sololá	701	Sololá	2	El tablón	4	Abril	2023-04-16T00:00:00	2024-11-06T01:00:00	4	Temperatura máxima	14.7
148611	7	Sololá	701	Sololá	2	El tablón	4	Abril	2023-04-16T00:00:00	2024-11-06T01:00:00	3	Temperatura mínima	13.8
148612	7	Sololá	701	Sololá	2	El tablón	4	Abril	2023-04-16T00:00:00	2024-11-06T01:00:00	5	Humedad	86
148613	7	Sololá	701	Sololá	2	El tablón	4	Abril	2023-04-16T00:00:00	2024-11-06T01:00:00	6	Velocidad del viento	3.2
148614	7	Sololá	701	Sololá	2	El tablón	4	Abril	2023-04-16T00:00:00	2024-11-06T01:00:00	7	Dirección del viento	3.22
148615	7	Sololá	701	Sololá	2	El tablón	4	Abril	2023-04-16T00:00:00	2024-11-06T01:00:00	1	Precipitación	0
148616	7	Sololá	701	Sololá	2	El tablón	4	Abril	2023-04-16T00:00:00	2024-11-06T01:00:00	8	Radiación solar	0
148617	7	Sololá	701	Sololá	2	El tablón	4	Abril	2023-04-16T00:00:00	2024-11-06T02:00:00	2	Temperatura media	13.5
148618	7	Sololá	701	Sololá	2	El tablón	4	Abril	2023-04-16T00:00:00	2024-11-06T02:00:00	4	Temperatura máxima	13.8
148619	7	Sololá	701	Sololá	2	El tablón	4	Abril	2023-04-16T00:00:00	2024-11-06T02:00:00	3	Temperatura mínima	13.4
148620	7	Sololá	701	Sololá	2	El tablón	4	Abril	2023-04-16T00:00:00	2024-11-06T02:00:00	5	Humedad	86
148621	7	Sololá	701	Sololá	2	El tablón	4	Abril	2023-04-16T00:00:00	2024-11-06T02:00:00	6	Velocidad del viento	3.2
148622	7	Sololá	701	Sololá	2	El tablón	4	Abril	2023-04-16T00:00:00	2024-11-06T02:00:00	7	Dirección del viento	3.22
148623	7	Sololá	701	Sololá	2	El tablón	4	Abril	2023-04-16T00:00:00	2024-11-06T02:00:00	1	Precipitación	0
148624	7	Sololá	701	Sololá	2	El tablón	4	Abril	2023-04-16T00:00:00	2024-11-06T02:00:00	8	Radiación solar	0
148625	7	Sololá	701	Sololá	2	El tablón	4	Abril	2023-04-16T00:00:00	2024-11-06T03:00:00	2	Temperatura media	12.2
148626	7	Sololá	701	Sololá	2	El tablón	4	Abril	2023-04-16T00:00:00	2024-11-06T03:00:00	4	Temperatura máxima	13.5
148627	7	Sololá	701	Sololá	2	El tablón	4	Abril	2023-04-16T00:00:00	2024-11-06T03:00:00	3	Temperatura mínima	12.2
148628	7	Sololá	701	Sololá	2	El tablón	4	Abril	2023-04-16T00:00:00	2024-11-06T03:00:00	5	Humedad	87
148629	7	Sololá	701	Sololá	2	El tablón	4	Abril	2023-04-16T00:00:00	2024-11-06T03:00:00	6	Velocidad del viento	3.2
148630	7	Sololá	701	Sololá	2	El tablón	4	Abril	2023-04-16T00:00:00	2024-11-06T03:00:00	7	Dirección del viento	3.22
148631	7	Sololá	701	Sololá	2	El tablón	4	Abril	2023-04-16T00:00:00	2024-11-06T03:00:00	1	Precipitación	0
148632	7	Sololá	701	Sololá	2	El tablón	4	Abril	2023-04-16T00:00:00	2024-11-06T03:00:00	8	Radiación solar	0
148633	7	Sololá	701	Sololá	2	El tablón	4	Abril	2023-04-16T00:00:00	2024-11-06T04:00:00	2	Temperatura media	12.8
148634	7	Sololá	701	Sololá	2	El tablón	4	Abril	2023-04-16T00:00:00	2024-11-06T04:00:00	4	Temperatura máxima	13.1
148635	7	Sololá	701	Sololá	2	El tablón	4	Abril	2023-04-16T00:00:00	2024-11-06T04:00:00	3	Temperatura mínima	12.3
148636	7	Sololá	701	Sololá	2	El tablón	4	Abril	2023-04-16T00:00:00	2024-11-06T04:00:00	5	Humedad	87
148637	7	Sololá	701	Sololá	2	El tablón	4	Abril	2023-04-16T00:00:00	2024-11-06T04:00:00	6	Velocidad del viento	1.6
148638	7	Sololá	701	Sololá	2	El tablón	4	Abril	2023-04-16T00:00:00	2024-11-06T04:00:00	7	Dirección del viento	1.61
148639	7	Sololá	701	Sololá	2	El tablón	4	Abril	2023-04-16T00:00:00	2024-11-06T04:00:00	1	Precipitación	0
148640	7	Sololá	701	Sololá	2	El tablón	4	Abril	2023-04-16T00:00:00	2024-11-06T04:00:00	8	Radiación solar	0
148641	7	Sololá	701	Sololá	2	El tablón	4	Abril	2023-04-16T00:00:00	2024-11-06T05:00:00	2	Temperatura media	11.4
148642	7	Sololá	701	Sololá	2	El tablón	4	Abril	2023-04-16T00:00:00	2024-11-06T05:00:00	4	Temperatura máxima	12.8
148643	7	Sololá	701	Sololá	2	El tablón	4	Abril	2023-04-16T00:00:00	2024-11-06T05:00:00	3	Temperatura mínima	11.1
148644	7	Sololá	701	Sololá	2	El tablón	4	Abril	2023-04-16T00:00:00	2024-11-06T05:00:00	5	Humedad	88
148645	7	Sololá	701	Sololá	2	El tablón	4	Abril	2023-04-16T00:00:00	2024-11-06T05:00:00	6	Velocidad del viento	1.6
148646	7	Sololá	701	Sololá	2	El tablón	4	Abril	2023-04-16T00:00:00	2024-11-06T05:00:00	7	Dirección del viento	1.61
148647	7	Sololá	701	Sololá	2	El tablón	4	Abril	2023-04-16T00:00:00	2024-11-06T05:00:00	1	Precipitación	0
148648	7	Sololá	701	Sololá	2	El tablón	4	Abril	2023-04-16T00:00:00	2024-11-06T05:00:00	8	Radiación solar	0
148649	7	Sololá	701	Sololá	2	El tablón	4	Abril	2023-04-16T00:00:00	2024-11-06T06:00:00	2	Temperatura media	10.7
148650	7	Sololá	701	Sololá	2	El tablón	4	Abril	2023-04-16T00:00:00	2024-11-06T06:00:00	4	Temperatura máxima	11.4
148651	7	Sololá	701	Sololá	2	El tablón	4	Abril	2023-04-16T00:00:00	2024-11-06T06:00:00	3	Temperatura mínima	10.4
148652	7	Sololá	701	Sololá	2	El tablón	4	Abril	2023-04-16T00:00:00	2024-11-06T06:00:00	5	Humedad	84
148653	7	Sololá	701	Sololá	2	El tablón	4	Abril	2023-04-16T00:00:00	2024-11-06T06:00:00	6	Velocidad del viento	3.2
148654	7	Sololá	701	Sololá	2	El tablón	4	Abril	2023-04-16T00:00:00	2024-11-06T06:00:00	7	Dirección del viento	3.22
148655	7	Sololá	701	Sololá	2	El tablón	4	Abril	2023-04-16T00:00:00	2024-11-06T06:00:00	1	Precipitación	0
148656	7	Sololá	701	Sololá	2	El tablón	4	Abril	2023-04-16T00:00:00	2024-11-06T06:00:00	8	Radiación solar	1
148657	7	Sololá	701	Sololá	2	El tablón	4	Abril	2023-04-16T00:00:00	2024-11-06T07:00:00	2	Temperatura media	12.9
148658	7	Sololá	701	Sololá	2	El tablón	4	Abril	2023-04-16T00:00:00	2024-11-06T07:00:00	4	Temperatura máxima	12.9
148659	7	Sololá	701	Sololá	2	El tablón	4	Abril	2023-04-16T00:00:00	2024-11-06T07:00:00	3	Temperatura mínima	10.4
148660	7	Sololá	701	Sololá	2	El tablón	4	Abril	2023-04-16T00:00:00	2024-11-06T07:00:00	5	Humedad	81
148661	7	Sololá	701	Sololá	2	El tablón	4	Abril	2023-04-16T00:00:00	2024-11-06T07:00:00	6	Velocidad del viento	3.2
148662	7	Sololá	701	Sololá	2	El tablón	4	Abril	2023-04-16T00:00:00	2024-11-06T07:00:00	7	Dirección del viento	3.22
148663	7	Sololá	701	Sololá	2	El tablón	4	Abril	2023-04-16T00:00:00	2024-11-06T07:00:00	1	Precipitación	0
148664	7	Sololá	701	Sololá	2	El tablón	4	Abril	2023-04-16T00:00:00	2024-11-06T07:00:00	8	Radiación solar	75
148665	7	Sololá	701	Sololá	2	El tablón	4	Abril	2023-04-16T00:00:00	2024-11-06T08:00:00	2	Temperatura media	16.7
148666	7	Sololá	701	Sololá	2	El tablón	4	Abril	2023-04-16T00:00:00	2024-11-06T08:00:00	4	Temperatura máxima	16.7
148667	7	Sololá	701	Sololá	2	El tablón	4	Abril	2023-04-16T00:00:00	2024-11-06T08:00:00	3	Temperatura mínima	12.9
148668	7	Sololá	701	Sololá	2	El tablón	4	Abril	2023-04-16T00:00:00	2024-11-06T08:00:00	5	Humedad	73
148669	7	Sololá	701	Sololá	2	El tablón	4	Abril	2023-04-16T00:00:00	2024-11-06T08:00:00	6	Velocidad del viento	1.6
148670	7	Sololá	701	Sololá	2	El tablón	4	Abril	2023-04-16T00:00:00	2024-11-06T08:00:00	7	Dirección del viento	1.61
148671	7	Sololá	701	Sololá	2	El tablón	4	Abril	2023-04-16T00:00:00	2024-11-06T08:00:00	1	Precipitación	0
148672	7	Sololá	701	Sololá	2	El tablón	4	Abril	2023-04-16T00:00:00	2024-11-06T08:00:00	8	Radiación solar	279
148673	7	Sololá	701	Sololá	2	El tablón	4	Abril	2023-04-16T00:00:00	2024-11-06T09:00:00	2	Temperatura media	17.3
148674	7	Sololá	701	Sololá	2	El tablón	4	Abril	2023-04-16T00:00:00	2024-11-06T09:00:00	4	Temperatura máxima	18.4
148675	7	Sololá	701	Sololá	2	El tablón	4	Abril	2023-04-16T00:00:00	2024-11-06T09:00:00	3	Temperatura mínima	16.7
148676	7	Sololá	701	Sololá	2	El tablón	4	Abril	2023-04-16T00:00:00	2024-11-06T09:00:00	5	Humedad	78
148677	7	Sololá	701	Sololá	2	El tablón	4	Abril	2023-04-16T00:00:00	2024-11-06T09:00:00	6	Velocidad del viento	3.2
148678	7	Sololá	701	Sololá	2	El tablón	4	Abril	2023-04-16T00:00:00	2024-11-06T09:00:00	7	Dirección del viento	3.22
148679	7	Sololá	701	Sololá	2	El tablón	4	Abril	2023-04-16T00:00:00	2024-11-06T09:00:00	1	Precipitación	0
148680	7	Sololá	701	Sololá	2	El tablón	4	Abril	2023-04-16T00:00:00	2024-11-06T09:00:00	8	Radiación solar	393
148681	7	Sololá	701	Sololá	2	El tablón	4	Abril	2023-04-16T00:00:00	2024-11-06T10:00:00	2	Temperatura media	18.3
148682	7	Sololá	701	Sololá	2	El tablón	4	Abril	2023-04-16T00:00:00	2024-11-06T10:00:00	4	Temperatura máxima	18.5
148683	7	Sololá	701	Sololá	2	El tablón	4	Abril	2023-04-16T00:00:00	2024-11-06T10:00:00	3	Temperatura mínima	17.3
148684	7	Sololá	701	Sololá	2	El tablón	4	Abril	2023-04-16T00:00:00	2024-11-06T10:00:00	5	Humedad	72
148685	7	Sololá	701	Sololá	2	El tablón	4	Abril	2023-04-16T00:00:00	2024-11-06T10:00:00	6	Velocidad del viento	8
148686	7	Sololá	701	Sololá	2	El tablón	4	Abril	2023-04-16T00:00:00	2024-11-06T10:00:00	7	Dirección del viento	8.05
148687	7	Sololá	701	Sololá	2	El tablón	4	Abril	2023-04-16T00:00:00	2024-11-06T10:00:00	1	Precipitación	0
148688	7	Sololá	701	Sololá	2	El tablón	4	Abril	2023-04-16T00:00:00	2024-11-06T10:00:00	8	Radiación solar	675
148689	7	Sololá	701	Sololá	2	El tablón	4	Abril	2023-04-16T00:00:00	2024-11-06T11:00:00	2	Temperatura media	18.4
148690	7	Sololá	701	Sololá	2	El tablón	4	Abril	2023-04-16T00:00:00	2024-11-06T11:00:00	4	Temperatura máxima	18.7
148691	7	Sololá	701	Sololá	2	El tablón	4	Abril	2023-04-16T00:00:00	2024-11-06T11:00:00	3	Temperatura mínima	17.9
148692	7	Sololá	701	Sololá	2	El tablón	4	Abril	2023-04-16T00:00:00	2024-11-06T11:00:00	5	Humedad	79
148693	7	Sololá	701	Sololá	2	El tablón	4	Abril	2023-04-16T00:00:00	2024-11-06T11:00:00	6	Velocidad del viento	9.7
148694	7	Sololá	701	Sololá	2	El tablón	4	Abril	2023-04-16T00:00:00	2024-11-06T11:00:00	7	Dirección del viento	9.66
148695	7	Sololá	701	Sololá	2	El tablón	4	Abril	2023-04-16T00:00:00	2024-11-06T11:00:00	1	Precipitación	0
148696	7	Sololá	701	Sololá	2	El tablón	4	Abril	2023-04-16T00:00:00	2024-11-06T11:00:00	8	Radiación solar	745
148697	7	Sololá	701	Sololá	2	El tablón	4	Abril	2023-04-16T00:00:00	2024-11-06T12:00:00	2	Temperatura media	19.5
148698	7	Sololá	701	Sololá	2	El tablón	4	Abril	2023-04-16T00:00:00	2024-11-06T12:00:00	4	Temperatura máxima	19.5
148699	7	Sololá	701	Sololá	2	El tablón	4	Abril	2023-04-16T00:00:00	2024-11-06T12:00:00	3	Temperatura mínima	18.5
148700	7	Sololá	701	Sololá	2	El tablón	4	Abril	2023-04-16T00:00:00	2024-11-06T12:00:00	5	Humedad	75
148701	7	Sololá	701	Sololá	2	El tablón	4	Abril	2023-04-16T00:00:00	2024-11-06T12:00:00	6	Velocidad del viento	11.3
148702	7	Sololá	701	Sololá	2	El tablón	4	Abril	2023-04-16T00:00:00	2024-11-06T12:00:00	7	Dirección del viento	11.27
148703	7	Sololá	701	Sololá	2	El tablón	4	Abril	2023-04-16T00:00:00	2024-11-06T12:00:00	1	Precipitación	0
148704	7	Sololá	701	Sololá	2	El tablón	4	Abril	2023-04-16T00:00:00	2024-11-06T12:00:00	8	Radiación solar	889
148705	7	Sololá	701	Sololá	2	El tablón	4	Abril	2023-04-16T00:00:00	2024-11-06T13:00:00	2	Temperatura media	18.9
148706	7	Sololá	701	Sololá	2	El tablón	4	Abril	2023-04-16T00:00:00	2024-11-06T13:00:00	4	Temperatura máxima	19.8
148707	7	Sololá	701	Sololá	2	El tablón	4	Abril	2023-04-16T00:00:00	2024-11-06T13:00:00	3	Temperatura mínima	18.6
148708	7	Sololá	701	Sololá	2	El tablón	4	Abril	2023-04-16T00:00:00	2024-11-06T13:00:00	5	Humedad	78
148709	7	Sololá	701	Sololá	2	El tablón	4	Abril	2023-04-16T00:00:00	2024-11-06T13:00:00	6	Velocidad del viento	11.3
148710	7	Sololá	701	Sololá	2	El tablón	4	Abril	2023-04-16T00:00:00	2024-11-06T13:00:00	7	Dirección del viento	11.27
148711	7	Sololá	701	Sololá	2	El tablón	4	Abril	2023-04-16T00:00:00	2024-11-06T13:00:00	1	Precipitación	0
148712	7	Sololá	701	Sololá	2	El tablón	4	Abril	2023-04-16T00:00:00	2024-11-06T13:00:00	8	Radiación solar	876
148713	7	Sololá	701	Sololá	2	El tablón	4	Abril	2023-04-16T00:00:00	2024-11-06T14:00:00	2	Temperatura media	18.4
148714	7	Sololá	701	Sololá	2	El tablón	4	Abril	2023-04-16T00:00:00	2024-11-06T14:00:00	4	Temperatura máxima	18.9
148715	7	Sololá	701	Sololá	2	El tablón	4	Abril	2023-04-16T00:00:00	2024-11-06T14:00:00	3	Temperatura mínima	18.1
148716	7	Sololá	701	Sololá	2	El tablón	4	Abril	2023-04-16T00:00:00	2024-11-06T14:00:00	5	Humedad	82
148717	7	Sololá	701	Sololá	2	El tablón	4	Abril	2023-04-16T00:00:00	2024-11-06T14:00:00	6	Velocidad del viento	9.7
148718	7	Sololá	701	Sololá	2	El tablón	4	Abril	2023-04-16T00:00:00	2024-11-06T14:00:00	7	Dirección del viento	9.66
148719	7	Sololá	701	Sololá	2	El tablón	4	Abril	2023-04-16T00:00:00	2024-11-06T14:00:00	1	Precipitación	0
148720	7	Sololá	701	Sololá	2	El tablón	4	Abril	2023-04-16T00:00:00	2024-11-06T14:00:00	8	Radiación solar	560
148721	7	Sololá	701	Sololá	2	El tablón	4	Abril	2023-04-16T00:00:00	2024-11-06T15:00:00	2	Temperatura media	16.9
148722	7	Sololá	701	Sololá	2	El tablón	4	Abril	2023-04-16T00:00:00	2024-11-06T15:00:00	4	Temperatura máxima	18.7
148723	7	Sololá	701	Sololá	2	El tablón	4	Abril	2023-04-16T00:00:00	2024-11-06T15:00:00	3	Temperatura mínima	16.8
148724	7	Sololá	701	Sololá	2	El tablón	4	Abril	2023-04-16T00:00:00	2024-11-06T15:00:00	5	Humedad	87
148725	7	Sololá	701	Sololá	2	El tablón	4	Abril	2023-04-16T00:00:00	2024-11-06T15:00:00	6	Velocidad del viento	9.7
148726	7	Sololá	701	Sololá	2	El tablón	4	Abril	2023-04-16T00:00:00	2024-11-06T15:00:00	7	Dirección del viento	9.66
148727	7	Sololá	701	Sololá	2	El tablón	4	Abril	2023-04-16T00:00:00	2024-11-06T15:00:00	1	Precipitación	0
148728	7	Sololá	701	Sololá	2	El tablón	4	Abril	2023-04-16T00:00:00	2024-11-06T15:00:00	8	Radiación solar	301
148729	7	Sololá	701	Sololá	2	El tablón	4	Abril	2023-04-16T00:00:00	2024-11-06T16:00:00	2	Temperatura media	16.5
148730	7	Sololá	701	Sololá	2	El tablón	4	Abril	2023-04-16T00:00:00	2024-11-06T16:00:00	4	Temperatura máxima	17.2
148731	7	Sololá	701	Sololá	2	El tablón	4	Abril	2023-04-16T00:00:00	2024-11-06T16:00:00	3	Temperatura mínima	16.3
148732	7	Sololá	701	Sololá	2	El tablón	4	Abril	2023-04-16T00:00:00	2024-11-06T16:00:00	5	Humedad	87
148733	7	Sololá	701	Sololá	2	El tablón	4	Abril	2023-04-16T00:00:00	2024-11-06T16:00:00	6	Velocidad del viento	6.4
148734	7	Sololá	701	Sololá	2	El tablón	4	Abril	2023-04-16T00:00:00	2024-11-06T16:00:00	7	Dirección del viento	6.44
148735	7	Sololá	701	Sololá	2	El tablón	4	Abril	2023-04-16T00:00:00	2024-11-06T16:00:00	1	Precipitación	0
148736	7	Sololá	701	Sololá	2	El tablón	4	Abril	2023-04-16T00:00:00	2024-11-06T16:00:00	8	Radiación solar	150
148737	7	Sololá	701	Sololá	2	El tablón	4	Abril	2023-04-16T00:00:00	2024-11-06T17:00:00	2	Temperatura media	15.6
148738	7	Sololá	701	Sololá	2	El tablón	4	Abril	2023-04-16T00:00:00	2024-11-06T17:00:00	4	Temperatura máxima	16.6
148739	7	Sololá	701	Sololá	2	El tablón	4	Abril	2023-04-16T00:00:00	2024-11-06T17:00:00	3	Temperatura mínima	15.6
148740	7	Sololá	701	Sololá	2	El tablón	4	Abril	2023-04-16T00:00:00	2024-11-06T17:00:00	5	Humedad	88
148741	7	Sololá	701	Sololá	2	El tablón	4	Abril	2023-04-16T00:00:00	2024-11-06T17:00:00	6	Velocidad del viento	3.2
148742	7	Sololá	701	Sololá	2	El tablón	4	Abril	2023-04-16T00:00:00	2024-11-06T17:00:00	7	Dirección del viento	3.22
148743	7	Sololá	701	Sololá	2	El tablón	4	Abril	2023-04-16T00:00:00	2024-11-06T17:00:00	1	Precipitación	0
148744	7	Sololá	701	Sololá	2	El tablón	4	Abril	2023-04-16T00:00:00	2024-11-06T17:00:00	8	Radiación solar	24
148745	7	Sololá	701	Sololá	2	El tablón	4	Abril	2023-04-16T00:00:00	2024-11-06T18:00:00	2	Temperatura media	15.7
148746	7	Sololá	701	Sololá	2	El tablón	4	Abril	2023-04-16T00:00:00	2024-11-06T18:00:00	4	Temperatura máxima	16.7
148747	7	Sololá	701	Sololá	2	El tablón	4	Abril	2023-04-16T00:00:00	2024-11-06T18:00:00	3	Temperatura mínima	15.3
148748	7	Sololá	701	Sololá	2	El tablón	4	Abril	2023-04-16T00:00:00	2024-11-06T18:00:00	5	Humedad	87
148749	7	Sololá	701	Sololá	2	El tablón	4	Abril	2023-04-16T00:00:00	2024-11-06T18:00:00	6	Velocidad del viento	4.8
148750	7	Sololá	701	Sololá	2	El tablón	4	Abril	2023-04-16T00:00:00	2024-11-06T18:00:00	7	Dirección del viento	4.83
148751	7	Sololá	701	Sololá	2	El tablón	4	Abril	2023-04-16T00:00:00	2024-11-06T18:00:00	1	Precipitación	0
148752	7	Sololá	701	Sololá	2	El tablón	4	Abril	2023-04-16T00:00:00	2024-11-06T18:00:00	8	Radiación solar	32
148753	7	Sololá	701	Sololá	2	El tablón	4	Abril	2023-04-16T00:00:00	2024-11-06T19:00:00	2	Temperatura media	16.4
148754	7	Sololá	701	Sololá	2	El tablón	4	Abril	2023-04-16T00:00:00	2024-11-06T19:00:00	4	Temperatura máxima	16.5
148755	7	Sololá	701	Sololá	2	El tablón	4	Abril	2023-04-16T00:00:00	2024-11-06T19:00:00	3	Temperatura mínima	15.3
148756	7	Sololá	701	Sololá	2	El tablón	4	Abril	2023-04-16T00:00:00	2024-11-06T19:00:00	5	Humedad	69
148757	7	Sololá	701	Sololá	2	El tablón	4	Abril	2023-04-16T00:00:00	2024-11-06T19:00:00	6	Velocidad del viento	4.8
148758	7	Sololá	701	Sololá	2	El tablón	4	Abril	2023-04-16T00:00:00	2024-11-06T19:00:00	7	Dirección del viento	4.83
148759	7	Sololá	701	Sololá	2	El tablón	4	Abril	2023-04-16T00:00:00	2024-11-06T19:00:00	1	Precipitación	0
148760	7	Sololá	701	Sololá	2	El tablón	4	Abril	2023-04-16T00:00:00	2024-11-06T19:00:00	8	Radiación solar	0
148761	7	Sololá	701	Sololá	2	El tablón	4	Abril	2023-04-16T00:00:00	2024-11-06T20:00:00	2	Temperatura media	15.4
148762	7	Sololá	701	Sololá	2	El tablón	4	Abril	2023-04-16T00:00:00	2024-11-06T20:00:00	4	Temperatura máxima	16.4
148763	7	Sololá	701	Sololá	2	El tablón	4	Abril	2023-04-16T00:00:00	2024-11-06T20:00:00	3	Temperatura mínima	15.4
148764	7	Sololá	701	Sololá	2	El tablón	4	Abril	2023-04-16T00:00:00	2024-11-06T20:00:00	5	Humedad	66
148765	7	Sololá	701	Sololá	2	El tablón	4	Abril	2023-04-16T00:00:00	2024-11-06T20:00:00	6	Velocidad del viento	6.4
148766	7	Sololá	701	Sololá	2	El tablón	4	Abril	2023-04-16T00:00:00	2024-11-06T20:00:00	7	Dirección del viento	6.44
148767	7	Sololá	701	Sololá	2	El tablón	4	Abril	2023-04-16T00:00:00	2024-11-06T20:00:00	1	Precipitación	0
148768	7	Sololá	701	Sololá	2	El tablón	4	Abril	2023-04-16T00:00:00	2024-11-06T20:00:00	8	Radiación solar	0
148769	7	Sololá	701	Sololá	2	El tablón	4	Abril	2023-04-16T00:00:00	2024-11-06T21:00:00	2	Temperatura media	14.4
148770	7	Sololá	701	Sololá	2	El tablón	4	Abril	2023-04-16T00:00:00	2024-11-06T21:00:00	4	Temperatura máxima	15.4
148771	7	Sololá	701	Sololá	2	El tablón	4	Abril	2023-04-16T00:00:00	2024-11-06T21:00:00	3	Temperatura mínima	14.4
148772	7	Sololá	701	Sololá	2	El tablón	4	Abril	2023-04-16T00:00:00	2024-11-06T21:00:00	5	Humedad	71
148773	7	Sololá	701	Sololá	2	El tablón	4	Abril	2023-04-16T00:00:00	2024-11-06T21:00:00	6	Velocidad del viento	3.2
148774	7	Sololá	701	Sololá	2	El tablón	4	Abril	2023-04-16T00:00:00	2024-11-06T21:00:00	7	Dirección del viento	3.22
148775	7	Sololá	701	Sololá	2	El tablón	4	Abril	2023-04-16T00:00:00	2024-11-06T21:00:00	1	Precipitación	0
148776	7	Sololá	701	Sololá	2	El tablón	4	Abril	2023-04-16T00:00:00	2024-11-06T21:00:00	8	Radiación solar	0
148777	7	Sololá	701	Sololá	2	El tablón	4	Abril	2023-04-16T00:00:00	2024-11-06T22:00:00	2	Temperatura media	13.6
148778	7	Sololá	701	Sololá	2	El tablón	4	Abril	2023-04-16T00:00:00	2024-11-06T22:00:00	4	Temperatura máxima	14.4
148779	7	Sololá	701	Sololá	2	El tablón	4	Abril	2023-04-16T00:00:00	2024-11-06T22:00:00	3	Temperatura mínima	13.6
148780	7	Sololá	701	Sololá	2	El tablón	4	Abril	2023-04-16T00:00:00	2024-11-06T22:00:00	5	Humedad	76
148781	7	Sololá	701	Sololá	2	El tablón	4	Abril	2023-04-16T00:00:00	2024-11-06T22:00:00	6	Velocidad del viento	3.2
148782	7	Sololá	701	Sololá	2	El tablón	4	Abril	2023-04-16T00:00:00	2024-11-06T22:00:00	7	Dirección del viento	3.22
148783	7	Sololá	701	Sololá	2	El tablón	4	Abril	2023-04-16T00:00:00	2024-11-06T22:00:00	1	Precipitación	0
148784	7	Sololá	701	Sololá	2	El tablón	4	Abril	2023-04-16T00:00:00	2024-11-06T22:00:00	8	Radiación solar	0
148785	7	Sololá	701	Sololá	2	El tablón	4	Abril	2023-04-16T00:00:00	2024-11-06T23:00:00	2	Temperatura media	12.9
148786	7	Sololá	701	Sololá	2	El tablón	4	Abril	2023-04-16T00:00:00	2024-11-06T23:00:00	4	Temperatura máxima	13.6
148787	7	Sololá	701	Sololá	2	El tablón	4	Abril	2023-04-16T00:00:00	2024-11-06T23:00:00	3	Temperatura mínima	12.9
148788	7	Sololá	701	Sololá	2	El tablón	4	Abril	2023-04-16T00:00:00	2024-11-06T23:00:00	5	Humedad	81
148789	7	Sololá	701	Sololá	2	El tablón	4	Abril	2023-04-16T00:00:00	2024-11-06T23:00:00	6	Velocidad del viento	3.2
148790	7	Sololá	701	Sololá	2	El tablón	4	Abril	2023-04-16T00:00:00	2024-11-06T23:00:00	7	Dirección del viento	3.22
148791	7	Sololá	701	Sololá	2	El tablón	4	Abril	2023-04-16T00:00:00	2024-11-06T23:00:00	1	Precipitación	0
148792	7	Sololá	701	Sololá	2	El tablón	4	Abril	2023-04-16T00:00:00	2024-11-06T23:00:00	8	Radiación solar	0
148793	7	Sololá	701	Sololá	2	El tablón	4	Abril	2023-04-17T00:00:00	2024-11-06T00:00:00	2	Temperatura media	12.7
148794	7	Sololá	701	Sololá	2	El tablón	4	Abril	2023-04-17T00:00:00	2024-11-06T00:00:00	4	Temperatura máxima	13
148795	7	Sololá	701	Sololá	2	El tablón	4	Abril	2023-04-17T00:00:00	2024-11-06T00:00:00	3	Temperatura mínima	12.7
148796	7	Sololá	701	Sololá	2	El tablón	4	Abril	2023-04-17T00:00:00	2024-11-06T00:00:00	5	Humedad	84
148797	7	Sololá	701	Sololá	2	El tablón	4	Abril	2023-04-17T00:00:00	2024-11-06T00:00:00	6	Velocidad del viento	6.4
148798	7	Sololá	701	Sololá	2	El tablón	4	Abril	2023-04-17T00:00:00	2024-11-06T00:00:00	7	Dirección del viento	6.44
148799	7	Sololá	701	Sololá	2	El tablón	4	Abril	2023-04-17T00:00:00	2024-11-06T00:00:00	1	Precipitación	0
148800	7	Sololá	701	Sololá	2	El tablón	4	Abril	2023-04-17T00:00:00	2024-11-06T00:00:00	8	Radiación solar	0
148801	7	Sololá	701	Sololá	2	El tablón	4	Abril	2023-04-17T00:00:00	2024-11-06T01:00:00	2	Temperatura media	12.6
148802	7	Sololá	701	Sololá	2	El tablón	4	Abril	2023-04-17T00:00:00	2024-11-06T01:00:00	4	Temperatura máxima	12.7
148803	7	Sololá	701	Sololá	2	El tablón	4	Abril	2023-04-17T00:00:00	2024-11-06T01:00:00	3	Temperatura mínima	12.4
148804	7	Sololá	701	Sololá	2	El tablón	4	Abril	2023-04-17T00:00:00	2024-11-06T01:00:00	5	Humedad	85
148805	7	Sololá	701	Sololá	2	El tablón	4	Abril	2023-04-17T00:00:00	2024-11-06T01:00:00	6	Velocidad del viento	4.8
148806	7	Sololá	701	Sololá	2	El tablón	4	Abril	2023-04-17T00:00:00	2024-11-06T01:00:00	7	Dirección del viento	4.83
148807	7	Sololá	701	Sololá	2	El tablón	4	Abril	2023-04-17T00:00:00	2024-11-06T01:00:00	1	Precipitación	0
148808	7	Sololá	701	Sololá	2	El tablón	4	Abril	2023-04-17T00:00:00	2024-11-06T01:00:00	8	Radiación solar	0
148809	7	Sololá	701	Sololá	2	El tablón	4	Abril	2023-04-17T00:00:00	2024-11-06T02:00:00	2	Temperatura media	12.4
148810	7	Sololá	701	Sololá	2	El tablón	4	Abril	2023-04-17T00:00:00	2024-11-06T02:00:00	4	Temperatura máxima	12.7
148811	7	Sololá	701	Sololá	2	El tablón	4	Abril	2023-04-17T00:00:00	2024-11-06T02:00:00	3	Temperatura mínima	12.4
148812	7	Sololá	701	Sololá	2	El tablón	4	Abril	2023-04-17T00:00:00	2024-11-06T02:00:00	5	Humedad	86
148813	7	Sololá	701	Sololá	2	El tablón	4	Abril	2023-04-17T00:00:00	2024-11-06T02:00:00	6	Velocidad del viento	8
148814	7	Sololá	701	Sololá	2	El tablón	4	Abril	2023-04-17T00:00:00	2024-11-06T02:00:00	7	Dirección del viento	8.05
148815	7	Sololá	701	Sololá	2	El tablón	4	Abril	2023-04-17T00:00:00	2024-11-06T02:00:00	1	Precipitación	0
148816	7	Sololá	701	Sololá	2	El tablón	4	Abril	2023-04-17T00:00:00	2024-11-06T02:00:00	8	Radiación solar	0
148817	7	Sololá	701	Sololá	2	El tablón	4	Abril	2023-04-17T00:00:00	2024-11-06T03:00:00	2	Temperatura media	12.2
148818	7	Sololá	701	Sololá	2	El tablón	4	Abril	2023-04-17T00:00:00	2024-11-06T03:00:00	4	Temperatura máxima	12.4
148819	7	Sololá	701	Sololá	2	El tablón	4	Abril	2023-04-17T00:00:00	2024-11-06T03:00:00	3	Temperatura mínima	12.2
148820	7	Sololá	701	Sololá	2	El tablón	4	Abril	2023-04-17T00:00:00	2024-11-06T03:00:00	5	Humedad	86
148821	7	Sololá	701	Sololá	2	El tablón	4	Abril	2023-04-17T00:00:00	2024-11-06T03:00:00	6	Velocidad del viento	6.4
148822	7	Sololá	701	Sololá	2	El tablón	4	Abril	2023-04-17T00:00:00	2024-11-06T03:00:00	7	Dirección del viento	6.44
148823	7	Sololá	701	Sololá	2	El tablón	4	Abril	2023-04-17T00:00:00	2024-11-06T03:00:00	1	Precipitación	0
148824	7	Sololá	701	Sololá	2	El tablón	4	Abril	2023-04-17T00:00:00	2024-11-06T03:00:00	8	Radiación solar	0
148825	7	Sololá	701	Sololá	2	El tablón	4	Abril	2023-04-17T00:00:00	2024-11-06T04:00:00	2	Temperatura media	12.1
148826	7	Sololá	701	Sololá	2	El tablón	4	Abril	2023-04-17T00:00:00	2024-11-06T04:00:00	4	Temperatura máxima	12.3
148827	7	Sololá	701	Sololá	2	El tablón	4	Abril	2023-04-17T00:00:00	2024-11-06T04:00:00	3	Temperatura mínima	12.1
148828	7	Sololá	701	Sololá	2	El tablón	4	Abril	2023-04-17T00:00:00	2024-11-06T04:00:00	5	Humedad	84
148829	7	Sololá	701	Sololá	2	El tablón	4	Abril	2023-04-17T00:00:00	2024-11-06T04:00:00	6	Velocidad del viento	4.8
148830	7	Sololá	701	Sololá	2	El tablón	4	Abril	2023-04-17T00:00:00	2024-11-06T04:00:00	7	Dirección del viento	4.83
148831	7	Sololá	701	Sololá	2	El tablón	4	Abril	2023-04-17T00:00:00	2024-11-06T04:00:00	1	Precipitación	0
148832	7	Sololá	701	Sololá	2	El tablón	4	Abril	2023-04-17T00:00:00	2024-11-06T04:00:00	8	Radiación solar	0
148833	7	Sololá	701	Sololá	2	El tablón	4	Abril	2023-04-17T00:00:00	2024-11-06T05:00:00	2	Temperatura media	12.1
148834	7	Sololá	701	Sololá	2	El tablón	4	Abril	2023-04-17T00:00:00	2024-11-06T05:00:00	4	Temperatura máxima	12.3
148835	7	Sololá	701	Sololá	2	El tablón	4	Abril	2023-04-17T00:00:00	2024-11-06T05:00:00	3	Temperatura mínima	12
148836	7	Sololá	701	Sololá	2	El tablón	4	Abril	2023-04-17T00:00:00	2024-11-06T05:00:00	5	Humedad	86
148837	7	Sololá	701	Sololá	2	El tablón	4	Abril	2023-04-17T00:00:00	2024-11-06T05:00:00	6	Velocidad del viento	6.4
148838	7	Sololá	701	Sololá	2	El tablón	4	Abril	2023-04-17T00:00:00	2024-11-06T05:00:00	7	Dirección del viento	6.44
148839	7	Sololá	701	Sololá	2	El tablón	4	Abril	2023-04-17T00:00:00	2024-11-06T05:00:00	1	Precipitación	0
148840	7	Sololá	701	Sololá	2	El tablón	4	Abril	2023-04-17T00:00:00	2024-11-06T05:00:00	8	Radiación solar	0
148841	7	Sololá	701	Sololá	2	El tablón	4	Abril	2023-04-17T00:00:00	2024-11-06T06:00:00	2	Temperatura media	12.3
148842	7	Sololá	701	Sololá	2	El tablón	4	Abril	2023-04-17T00:00:00	2024-11-06T06:00:00	4	Temperatura máxima	12.3
148843	7	Sololá	701	Sololá	2	El tablón	4	Abril	2023-04-17T00:00:00	2024-11-06T06:00:00	3	Temperatura mínima	12.1
148844	7	Sololá	701	Sololá	2	El tablón	4	Abril	2023-04-17T00:00:00	2024-11-06T06:00:00	5	Humedad	85
148845	7	Sololá	701	Sololá	2	El tablón	4	Abril	2023-04-17T00:00:00	2024-11-06T06:00:00	6	Velocidad del viento	9.7
148846	7	Sololá	701	Sololá	2	El tablón	4	Abril	2023-04-17T00:00:00	2024-11-06T06:00:00	7	Dirección del viento	9.66
148847	7	Sololá	701	Sololá	2	El tablón	4	Abril	2023-04-17T00:00:00	2024-11-06T06:00:00	1	Precipitación	0
148848	7	Sololá	701	Sololá	2	El tablón	4	Abril	2023-04-17T00:00:00	2024-11-06T06:00:00	8	Radiación solar	0
148849	7	Sololá	701	Sololá	2	El tablón	4	Abril	2023-04-17T00:00:00	2024-11-06T07:00:00	2	Temperatura media	12.8
148850	7	Sololá	701	Sololá	2	El tablón	4	Abril	2023-04-17T00:00:00	2024-11-06T07:00:00	4	Temperatura máxima	12.8
148851	7	Sololá	701	Sololá	2	El tablón	4	Abril	2023-04-17T00:00:00	2024-11-06T07:00:00	3	Temperatura mínima	12.3
148852	7	Sololá	701	Sololá	2	El tablón	4	Abril	2023-04-17T00:00:00	2024-11-06T07:00:00	5	Humedad	85
148853	7	Sololá	701	Sololá	2	El tablón	4	Abril	2023-04-17T00:00:00	2024-11-06T07:00:00	6	Velocidad del viento	12.9
148854	7	Sololá	701	Sololá	2	El tablón	4	Abril	2023-04-17T00:00:00	2024-11-06T07:00:00	7	Dirección del viento	12.87
148855	7	Sololá	701	Sololá	2	El tablón	4	Abril	2023-04-17T00:00:00	2024-11-06T07:00:00	1	Precipitación	0
148856	7	Sololá	701	Sololá	2	El tablón	4	Abril	2023-04-17T00:00:00	2024-11-06T07:00:00	8	Radiación solar	72
148857	7	Sololá	701	Sololá	2	El tablón	4	Abril	2023-04-17T00:00:00	2024-11-06T08:00:00	2	Temperatura media	14
148858	7	Sololá	701	Sololá	2	El tablón	4	Abril	2023-04-17T00:00:00	2024-11-06T08:00:00	4	Temperatura máxima	14
148859	7	Sololá	701	Sololá	2	El tablón	4	Abril	2023-04-17T00:00:00	2024-11-06T08:00:00	3	Temperatura mínima	12.8
148860	7	Sololá	701	Sololá	2	El tablón	4	Abril	2023-04-17T00:00:00	2024-11-06T08:00:00	5	Humedad	79
148861	7	Sololá	701	Sololá	2	El tablón	4	Abril	2023-04-17T00:00:00	2024-11-06T08:00:00	6	Velocidad del viento	17.7
148862	7	Sololá	701	Sololá	2	El tablón	4	Abril	2023-04-17T00:00:00	2024-11-06T08:00:00	7	Dirección del viento	17.7
148863	7	Sololá	701	Sololá	2	El tablón	4	Abril	2023-04-17T00:00:00	2024-11-06T08:00:00	1	Precipitación	0
148864	7	Sololá	701	Sololá	2	El tablón	4	Abril	2023-04-17T00:00:00	2024-11-06T08:00:00	8	Radiación solar	227
148865	7	Sololá	701	Sololá	2	El tablón	4	Abril	2023-04-17T00:00:00	2024-11-06T09:00:00	2	Temperatura media	16.4
148866	7	Sololá	701	Sololá	2	El tablón	4	Abril	2023-04-17T00:00:00	2024-11-06T09:00:00	4	Temperatura máxima	16.4
148867	7	Sololá	701	Sololá	2	El tablón	4	Abril	2023-04-17T00:00:00	2024-11-06T09:00:00	3	Temperatura mínima	14
148868	7	Sololá	701	Sololá	2	El tablón	4	Abril	2023-04-17T00:00:00	2024-11-06T09:00:00	5	Humedad	64
148869	7	Sololá	701	Sololá	2	El tablón	4	Abril	2023-04-17T00:00:00	2024-11-06T09:00:00	6	Velocidad del viento	17.7
148870	7	Sololá	701	Sololá	2	El tablón	4	Abril	2023-04-17T00:00:00	2024-11-06T09:00:00	7	Dirección del viento	17.7
148871	7	Sololá	701	Sololá	2	El tablón	4	Abril	2023-04-17T00:00:00	2024-11-06T09:00:00	1	Precipitación	0
148872	7	Sololá	701	Sololá	2	El tablón	4	Abril	2023-04-17T00:00:00	2024-11-06T09:00:00	8	Radiación solar	437
148873	7	Sololá	701	Sololá	2	El tablón	4	Abril	2023-04-17T00:00:00	2024-11-06T10:00:00	2	Temperatura media	18
148874	7	Sololá	701	Sololá	2	El tablón	4	Abril	2023-04-17T00:00:00	2024-11-06T10:00:00	4	Temperatura máxima	18.4
148875	7	Sololá	701	Sololá	2	El tablón	4	Abril	2023-04-17T00:00:00	2024-11-06T10:00:00	3	Temperatura mínima	16.4
148876	7	Sololá	701	Sololá	2	El tablón	4	Abril	2023-04-17T00:00:00	2024-11-06T10:00:00	5	Humedad	59
148877	7	Sololá	701	Sololá	2	El tablón	4	Abril	2023-04-17T00:00:00	2024-11-06T10:00:00	6	Velocidad del viento	14.5
148878	7	Sololá	701	Sololá	2	El tablón	4	Abril	2023-04-17T00:00:00	2024-11-06T10:00:00	7	Dirección del viento	14.48
148879	7	Sololá	701	Sololá	2	El tablón	4	Abril	2023-04-17T00:00:00	2024-11-06T10:00:00	1	Precipitación	0
148880	7	Sololá	701	Sololá	2	El tablón	4	Abril	2023-04-17T00:00:00	2024-11-06T10:00:00	8	Radiación solar	668
148881	7	Sololá	701	Sololá	2	El tablón	4	Abril	2023-04-17T00:00:00	2024-11-06T11:00:00	2	Temperatura media	19.6
148882	7	Sololá	701	Sololá	2	El tablón	4	Abril	2023-04-17T00:00:00	2024-11-06T11:00:00	4	Temperatura máxima	19.6
148883	7	Sololá	701	Sololá	2	El tablón	4	Abril	2023-04-17T00:00:00	2024-11-06T11:00:00	3	Temperatura mínima	17.8
148884	7	Sololá	701	Sololá	2	El tablón	4	Abril	2023-04-17T00:00:00	2024-11-06T11:00:00	5	Humedad	52
148885	7	Sololá	701	Sololá	2	El tablón	4	Abril	2023-04-17T00:00:00	2024-11-06T11:00:00	6	Velocidad del viento	12.9
148886	7	Sololá	701	Sololá	2	El tablón	4	Abril	2023-04-17T00:00:00	2024-11-06T11:00:00	7	Dirección del viento	12.87
148887	7	Sololá	701	Sololá	2	El tablón	4	Abril	2023-04-17T00:00:00	2024-11-06T11:00:00	1	Precipitación	0
148888	7	Sololá	701	Sololá	2	El tablón	4	Abril	2023-04-17T00:00:00	2024-11-06T11:00:00	8	Radiación solar	816
148889	7	Sololá	701	Sololá	2	El tablón	4	Abril	2023-04-17T00:00:00	2024-11-06T12:00:00	2	Temperatura media	21.1
148890	7	Sololá	701	Sololá	2	El tablón	4	Abril	2023-04-17T00:00:00	2024-11-06T12:00:00	4	Temperatura máxima	21.1
148891	7	Sololá	701	Sololá	2	El tablón	4	Abril	2023-04-17T00:00:00	2024-11-06T12:00:00	3	Temperatura mínima	19.4
148892	7	Sololá	701	Sololá	2	El tablón	4	Abril	2023-04-17T00:00:00	2024-11-06T12:00:00	5	Humedad	46
148893	7	Sololá	701	Sololá	2	El tablón	4	Abril	2023-04-17T00:00:00	2024-11-06T12:00:00	6	Velocidad del viento	11.3
148894	7	Sololá	701	Sololá	2	El tablón	4	Abril	2023-04-17T00:00:00	2024-11-06T12:00:00	7	Dirección del viento	11.27
148895	7	Sololá	701	Sololá	2	El tablón	4	Abril	2023-04-17T00:00:00	2024-11-06T12:00:00	1	Precipitación	0
148896	7	Sololá	701	Sololá	2	El tablón	4	Abril	2023-04-17T00:00:00	2024-11-06T12:00:00	8	Radiación solar	944
148897	7	Sololá	701	Sololá	2	El tablón	4	Abril	2023-04-17T00:00:00	2024-11-06T13:00:00	2	Temperatura media	20.6
148898	7	Sololá	701	Sololá	2	El tablón	4	Abril	2023-04-17T00:00:00	2024-11-06T13:00:00	4	Temperatura máxima	21.5
148899	7	Sololá	701	Sololá	2	El tablón	4	Abril	2023-04-17T00:00:00	2024-11-06T13:00:00	3	Temperatura mínima	20.6
148900	7	Sololá	701	Sololá	2	El tablón	4	Abril	2023-04-17T00:00:00	2024-11-06T13:00:00	5	Humedad	44
148901	7	Sololá	701	Sololá	2	El tablón	4	Abril	2023-04-17T00:00:00	2024-11-06T13:00:00	6	Velocidad del viento	9.7
148902	7	Sololá	701	Sololá	2	El tablón	4	Abril	2023-04-17T00:00:00	2024-11-06T13:00:00	7	Dirección del viento	9.66
148903	7	Sololá	701	Sololá	2	El tablón	4	Abril	2023-04-17T00:00:00	2024-11-06T13:00:00	1	Precipitación	0
148904	7	Sololá	701	Sololá	2	El tablón	4	Abril	2023-04-17T00:00:00	2024-11-06T13:00:00	8	Radiación solar	731
148905	7	Sololá	701	Sololá	2	El tablón	4	Abril	2023-04-17T00:00:00	2024-11-06T14:00:00	2	Temperatura media	15.2
148906	7	Sololá	701	Sololá	2	El tablón	4	Abril	2023-04-17T00:00:00	2024-11-06T14:00:00	4	Temperatura máxima	20.6
148907	7	Sololá	701	Sololá	2	El tablón	4	Abril	2023-04-17T00:00:00	2024-11-06T14:00:00	3	Temperatura mínima	15.2
148908	7	Sololá	701	Sololá	2	El tablón	4	Abril	2023-04-17T00:00:00	2024-11-06T14:00:00	5	Humedad	88
148909	7	Sololá	701	Sololá	2	El tablón	4	Abril	2023-04-17T00:00:00	2024-11-06T14:00:00	6	Velocidad del viento	9.7
148910	7	Sololá	701	Sololá	2	El tablón	4	Abril	2023-04-17T00:00:00	2024-11-06T14:00:00	7	Dirección del viento	9.66
148911	7	Sololá	701	Sololá	2	El tablón	4	Abril	2023-04-17T00:00:00	2024-11-06T14:00:00	1	Precipitación	0
148912	7	Sololá	701	Sololá	2	El tablón	4	Abril	2023-04-17T00:00:00	2024-11-06T14:00:00	8	Radiación solar	132
148913	7	Sololá	701	Sololá	2	El tablón	4	Abril	2023-04-17T00:00:00	2024-11-06T15:00:00	2	Temperatura media	15.1
148914	7	Sololá	701	Sololá	2	El tablón	4	Abril	2023-04-17T00:00:00	2024-11-06T15:00:00	4	Temperatura máxima	15.3
148915	7	Sololá	701	Sololá	2	El tablón	4	Abril	2023-04-17T00:00:00	2024-11-06T15:00:00	3	Temperatura mínima	14.9
148916	7	Sololá	701	Sololá	2	El tablón	4	Abril	2023-04-17T00:00:00	2024-11-06T15:00:00	5	Humedad	88
148917	7	Sololá	701	Sololá	2	El tablón	4	Abril	2023-04-17T00:00:00	2024-11-06T15:00:00	6	Velocidad del viento	4.8
148918	7	Sololá	701	Sololá	2	El tablón	4	Abril	2023-04-17T00:00:00	2024-11-06T15:00:00	7	Dirección del viento	4.83
148919	7	Sololá	701	Sololá	2	El tablón	4	Abril	2023-04-17T00:00:00	2024-11-06T15:00:00	1	Precipitación	0
148920	7	Sololá	701	Sololá	2	El tablón	4	Abril	2023-04-17T00:00:00	2024-11-06T15:00:00	8	Radiación solar	74
148921	7	Sololá	701	Sololá	2	El tablón	4	Abril	2023-04-17T00:00:00	2024-11-06T16:00:00	2	Temperatura media	14.2
148922	7	Sololá	701	Sololá	2	El tablón	4	Abril	2023-04-17T00:00:00	2024-11-06T16:00:00	4	Temperatura máxima	15.5
148923	7	Sololá	701	Sololá	2	El tablón	4	Abril	2023-04-17T00:00:00	2024-11-06T16:00:00	3	Temperatura mínima	14.2
148924	7	Sololá	701	Sololá	2	El tablón	4	Abril	2023-04-17T00:00:00	2024-11-06T16:00:00	5	Humedad	89
148925	7	Sololá	701	Sololá	2	El tablón	4	Abril	2023-04-17T00:00:00	2024-11-06T16:00:00	6	Velocidad del viento	3.2
148926	7	Sololá	701	Sololá	2	El tablón	4	Abril	2023-04-17T00:00:00	2024-11-06T16:00:00	7	Dirección del viento	3.22
148927	7	Sololá	701	Sololá	2	El tablón	4	Abril	2023-04-17T00:00:00	2024-11-06T16:00:00	1	Precipitación	0
148928	7	Sololá	701	Sololá	2	El tablón	4	Abril	2023-04-17T00:00:00	2024-11-06T16:00:00	8	Radiación solar	47
148929	7	Sololá	701	Sololá	2	El tablón	4	Abril	2023-04-17T00:00:00	2024-11-06T17:00:00	2	Temperatura media	13.8
148930	7	Sololá	701	Sololá	2	El tablón	4	Abril	2023-04-17T00:00:00	2024-11-06T17:00:00	4	Temperatura máxima	14.2
148931	7	Sololá	701	Sololá	2	El tablón	4	Abril	2023-04-17T00:00:00	2024-11-06T17:00:00	3	Temperatura mínima	13.6
148932	7	Sololá	701	Sololá	2	El tablón	4	Abril	2023-04-17T00:00:00	2024-11-06T17:00:00	5	Humedad	89
148933	7	Sololá	701	Sololá	2	El tablón	4	Abril	2023-04-17T00:00:00	2024-11-06T17:00:00	6	Velocidad del viento	1.6
148934	7	Sololá	701	Sololá	2	El tablón	4	Abril	2023-04-17T00:00:00	2024-11-06T17:00:00	7	Dirección del viento	1.61
148935	7	Sololá	701	Sololá	2	El tablón	4	Abril	2023-04-17T00:00:00	2024-11-06T17:00:00	1	Precipitación	0
148936	7	Sololá	701	Sololá	2	El tablón	4	Abril	2023-04-17T00:00:00	2024-11-06T17:00:00	8	Radiación solar	59
148937	7	Sololá	701	Sololá	2	El tablón	4	Abril	2023-04-17T00:00:00	2024-11-06T18:00:00	2	Temperatura media	15.7
148938	7	Sololá	701	Sololá	2	El tablón	4	Abril	2023-04-17T00:00:00	2024-11-06T18:00:00	4	Temperatura máxima	15.7
148939	7	Sololá	701	Sololá	2	El tablón	4	Abril	2023-04-17T00:00:00	2024-11-06T18:00:00	3	Temperatura mínima	13.6
148940	7	Sololá	701	Sololá	2	El tablón	4	Abril	2023-04-17T00:00:00	2024-11-06T18:00:00	5	Humedad	69
148941	7	Sololá	701	Sololá	2	El tablón	4	Abril	2023-04-17T00:00:00	2024-11-06T18:00:00	6	Velocidad del viento	3.2
148942	7	Sololá	701	Sololá	2	El tablón	4	Abril	2023-04-17T00:00:00	2024-11-06T18:00:00	7	Dirección del viento	3.22
148943	7	Sololá	701	Sololá	2	El tablón	4	Abril	2023-04-17T00:00:00	2024-11-06T18:00:00	1	Precipitación	0
148944	7	Sololá	701	Sololá	2	El tablón	4	Abril	2023-04-17T00:00:00	2024-11-06T18:00:00	8	Radiación solar	53
148945	7	Sololá	701	Sololá	2	El tablón	4	Abril	2023-04-17T00:00:00	2024-11-06T19:00:00	2	Temperatura media	14.2
148946	7	Sololá	701	Sololá	2	El tablón	4	Abril	2023-04-17T00:00:00	2024-11-06T19:00:00	4	Temperatura máxima	15.7
148947	7	Sololá	701	Sololá	2	El tablón	4	Abril	2023-04-17T00:00:00	2024-11-06T19:00:00	3	Temperatura mínima	14.2
148948	7	Sololá	701	Sololá	2	El tablón	4	Abril	2023-04-17T00:00:00	2024-11-06T19:00:00	5	Humedad	76
148949	7	Sololá	701	Sololá	2	El tablón	4	Abril	2023-04-17T00:00:00	2024-11-06T19:00:00	6	Velocidad del viento	6.4
148950	7	Sololá	701	Sololá	2	El tablón	4	Abril	2023-04-17T00:00:00	2024-11-06T19:00:00	7	Dirección del viento	6.44
148951	7	Sololá	701	Sololá	2	El tablón	4	Abril	2023-04-17T00:00:00	2024-11-06T19:00:00	1	Precipitación	0
148952	7	Sololá	701	Sololá	2	El tablón	4	Abril	2023-04-17T00:00:00	2024-11-06T19:00:00	8	Radiación solar	0
148953	7	Sololá	701	Sololá	2	El tablón	4	Abril	2023-04-17T00:00:00	2024-11-06T20:00:00	2	Temperatura media	13.2
148954	7	Sololá	701	Sololá	2	El tablón	4	Abril	2023-04-17T00:00:00	2024-11-06T20:00:00	4	Temperatura máxima	14.2
148955	7	Sololá	701	Sololá	2	El tablón	4	Abril	2023-04-17T00:00:00	2024-11-06T20:00:00	3	Temperatura mínima	13.2
148956	7	Sololá	701	Sololá	2	El tablón	4	Abril	2023-04-17T00:00:00	2024-11-06T20:00:00	5	Humedad	83
148957	7	Sololá	701	Sololá	2	El tablón	4	Abril	2023-04-17T00:00:00	2024-11-06T20:00:00	6	Velocidad del viento	9.7
148958	7	Sololá	701	Sololá	2	El tablón	4	Abril	2023-04-17T00:00:00	2024-11-06T20:00:00	7	Dirección del viento	9.66
148959	7	Sololá	701	Sololá	2	El tablón	4	Abril	2023-04-17T00:00:00	2024-11-06T20:00:00	1	Precipitación	0
148960	7	Sololá	701	Sololá	2	El tablón	4	Abril	2023-04-17T00:00:00	2024-11-06T20:00:00	8	Radiación solar	0
148961	7	Sololá	701	Sololá	2	El tablón	4	Abril	2023-04-17T00:00:00	2024-11-06T21:00:00	2	Temperatura media	12.3
148962	7	Sololá	701	Sololá	2	El tablón	4	Abril	2023-04-17T00:00:00	2024-11-06T21:00:00	4	Temperatura máxima	13.2
148963	7	Sololá	701	Sololá	2	El tablón	4	Abril	2023-04-17T00:00:00	2024-11-06T21:00:00	3	Temperatura mínima	12.3
148964	7	Sololá	701	Sololá	2	El tablón	4	Abril	2023-04-17T00:00:00	2024-11-06T21:00:00	5	Humedad	85
148965	7	Sololá	701	Sololá	2	El tablón	4	Abril	2023-04-17T00:00:00	2024-11-06T21:00:00	6	Velocidad del viento	9.7
148966	7	Sololá	701	Sololá	2	El tablón	4	Abril	2023-04-17T00:00:00	2024-11-06T21:00:00	7	Dirección del viento	9.66
148967	7	Sololá	701	Sololá	2	El tablón	4	Abril	2023-04-17T00:00:00	2024-11-06T21:00:00	1	Precipitación	0
148968	7	Sololá	701	Sololá	2	El tablón	4	Abril	2023-04-17T00:00:00	2024-11-06T21:00:00	8	Radiación solar	0
148969	7	Sololá	701	Sololá	2	El tablón	4	Abril	2023-04-17T00:00:00	2024-11-06T22:00:00	2	Temperatura media	12
148970	7	Sololá	701	Sololá	2	El tablón	4	Abril	2023-04-17T00:00:00	2024-11-06T22:00:00	4	Temperatura máxima	12.3
148971	7	Sololá	701	Sololá	2	El tablón	4	Abril	2023-04-17T00:00:00	2024-11-06T22:00:00	3	Temperatura mínima	11.9
148972	7	Sololá	701	Sololá	2	El tablón	4	Abril	2023-04-17T00:00:00	2024-11-06T22:00:00	5	Humedad	87
148973	7	Sololá	701	Sololá	2	El tablón	4	Abril	2023-04-17T00:00:00	2024-11-06T22:00:00	6	Velocidad del viento	12.9
148974	7	Sololá	701	Sololá	2	El tablón	4	Abril	2023-04-17T00:00:00	2024-11-06T22:00:00	7	Dirección del viento	12.87
148975	7	Sololá	701	Sololá	2	El tablón	4	Abril	2023-04-17T00:00:00	2024-11-06T22:00:00	1	Precipitación	0
148976	7	Sololá	701	Sololá	2	El tablón	4	Abril	2023-04-17T00:00:00	2024-11-06T22:00:00	8	Radiación solar	0
148977	7	Sololá	701	Sololá	2	El tablón	4	Abril	2023-04-17T00:00:00	2024-11-06T23:00:00	2	Temperatura media	12
148978	7	Sololá	701	Sololá	2	El tablón	4	Abril	2023-04-17T00:00:00	2024-11-06T23:00:00	4	Temperatura máxima	12
148979	7	Sololá	701	Sololá	2	El tablón	4	Abril	2023-04-17T00:00:00	2024-11-06T23:00:00	3	Temperatura mínima	11.8
148980	7	Sololá	701	Sololá	2	El tablón	4	Abril	2023-04-17T00:00:00	2024-11-06T23:00:00	5	Humedad	88
148981	7	Sololá	701	Sololá	2	El tablón	4	Abril	2023-04-17T00:00:00	2024-11-06T23:00:00	6	Velocidad del viento	16.1
148982	7	Sololá	701	Sololá	2	El tablón	4	Abril	2023-04-17T00:00:00	2024-11-06T23:00:00	7	Dirección del viento	16.09
148983	7	Sololá	701	Sololá	2	El tablón	4	Abril	2023-04-17T00:00:00	2024-11-06T23:00:00	1	Precipitación	0
148984	7	Sololá	701	Sololá	2	El tablón	4	Abril	2023-04-17T00:00:00	2024-11-06T23:00:00	8	Radiación solar	0
148985	7	Sololá	701	Sololá	2	El tablón	4	Abril	2023-04-18T00:00:00	2024-11-06T00:00:00	2	Temperatura media	11.8
148986	7	Sololá	701	Sololá	2	El tablón	4	Abril	2023-04-18T00:00:00	2024-11-06T00:00:00	4	Temperatura máxima	12.2
148987	7	Sololá	701	Sololá	2	El tablón	4	Abril	2023-04-18T00:00:00	2024-11-06T00:00:00	3	Temperatura mínima	11.8
148988	7	Sololá	701	Sololá	2	El tablón	4	Abril	2023-04-18T00:00:00	2024-11-06T00:00:00	5	Humedad	89
148989	7	Sololá	701	Sololá	2	El tablón	4	Abril	2023-04-18T00:00:00	2024-11-06T00:00:00	6	Velocidad del viento	8
148990	7	Sololá	701	Sololá	2	El tablón	4	Abril	2023-04-18T00:00:00	2024-11-06T00:00:00	7	Dirección del viento	8.05
148991	7	Sololá	701	Sololá	2	El tablón	4	Abril	2023-04-18T00:00:00	2024-11-06T00:00:00	1	Precipitación	0
148992	7	Sololá	701	Sololá	2	El tablón	4	Abril	2023-04-18T00:00:00	2024-11-06T00:00:00	8	Radiación solar	0
148993	7	Sololá	701	Sololá	2	El tablón	4	Abril	2023-04-18T00:00:00	2024-11-06T01:00:00	2	Temperatura media	11.7
148994	7	Sololá	701	Sololá	2	El tablón	4	Abril	2023-04-18T00:00:00	2024-11-06T01:00:00	4	Temperatura máxima	11.8
148995	7	Sololá	701	Sololá	2	El tablón	4	Abril	2023-04-18T00:00:00	2024-11-06T01:00:00	3	Temperatura mínima	11.7
148996	7	Sololá	701	Sololá	2	El tablón	4	Abril	2023-04-18T00:00:00	2024-11-06T01:00:00	5	Humedad	89
148997	7	Sololá	701	Sololá	2	El tablón	4	Abril	2023-04-18T00:00:00	2024-11-06T01:00:00	6	Velocidad del viento	8
148998	7	Sololá	701	Sololá	2	El tablón	4	Abril	2023-04-18T00:00:00	2024-11-06T01:00:00	7	Dirección del viento	8.05
148999	7	Sololá	701	Sololá	2	El tablón	4	Abril	2023-04-18T00:00:00	2024-11-06T01:00:00	1	Precipitación	0.2
149000	7	Sololá	701	Sololá	2	El tablón	4	Abril	2023-04-18T00:00:00	2024-11-06T01:00:00	8	Radiación solar	0
149001	7	Sololá	701	Sololá	2	El tablón	4	Abril	2023-04-18T00:00:00	2024-11-06T02:00:00	2	Temperatura media	11.4
149002	7	Sololá	701	Sololá	2	El tablón	4	Abril	2023-04-18T00:00:00	2024-11-06T02:00:00	4	Temperatura máxima	11.7
149003	7	Sololá	701	Sololá	2	El tablón	4	Abril	2023-04-18T00:00:00	2024-11-06T02:00:00	3	Temperatura mínima	11.4
149004	7	Sololá	701	Sololá	2	El tablón	4	Abril	2023-04-18T00:00:00	2024-11-06T02:00:00	5	Humedad	88
149005	7	Sololá	701	Sololá	2	El tablón	4	Abril	2023-04-18T00:00:00	2024-11-06T02:00:00	6	Velocidad del viento	11.3
149006	7	Sololá	701	Sololá	2	El tablón	4	Abril	2023-04-18T00:00:00	2024-11-06T02:00:00	7	Dirección del viento	11.27
149007	7	Sololá	701	Sololá	2	El tablón	4	Abril	2023-04-18T00:00:00	2024-11-06T02:00:00	1	Precipitación	0
149008	7	Sololá	701	Sololá	2	El tablón	4	Abril	2023-04-18T00:00:00	2024-11-06T02:00:00	8	Radiación solar	0
149009	7	Sololá	701	Sololá	2	El tablón	4	Abril	2023-04-18T00:00:00	2024-11-06T03:00:00	2	Temperatura media	11.5
149010	7	Sololá	701	Sololá	2	El tablón	4	Abril	2023-04-18T00:00:00	2024-11-06T03:00:00	4	Temperatura máxima	11.5
149011	7	Sololá	701	Sololá	2	El tablón	4	Abril	2023-04-18T00:00:00	2024-11-06T03:00:00	3	Temperatura mínima	11.2
149012	7	Sololá	701	Sololá	2	El tablón	4	Abril	2023-04-18T00:00:00	2024-11-06T03:00:00	5	Humedad	85
149013	7	Sololá	701	Sololá	2	El tablón	4	Abril	2023-04-18T00:00:00	2024-11-06T03:00:00	6	Velocidad del viento	8
149014	7	Sololá	701	Sololá	2	El tablón	4	Abril	2023-04-18T00:00:00	2024-11-06T03:00:00	7	Dirección del viento	8.05
149015	7	Sololá	701	Sololá	2	El tablón	4	Abril	2023-04-18T00:00:00	2024-11-06T03:00:00	1	Precipitación	0
149016	7	Sololá	701	Sololá	2	El tablón	4	Abril	2023-04-18T00:00:00	2024-11-06T03:00:00	8	Radiación solar	0
149017	7	Sololá	701	Sololá	2	El tablón	4	Abril	2023-04-18T00:00:00	2024-11-06T04:00:00	2	Temperatura media	11.6
149018	7	Sololá	701	Sololá	2	El tablón	4	Abril	2023-04-18T00:00:00	2024-11-06T04:00:00	4	Temperatura máxima	11.8
149019	7	Sololá	701	Sololá	2	El tablón	4	Abril	2023-04-18T00:00:00	2024-11-06T04:00:00	3	Temperatura mínima	11.5
149020	7	Sololá	701	Sololá	2	El tablón	4	Abril	2023-04-18T00:00:00	2024-11-06T04:00:00	5	Humedad	83
149021	7	Sololá	701	Sololá	2	El tablón	4	Abril	2023-04-18T00:00:00	2024-11-06T04:00:00	6	Velocidad del viento	6.4
149022	7	Sololá	701	Sololá	2	El tablón	4	Abril	2023-04-18T00:00:00	2024-11-06T04:00:00	7	Dirección del viento	6.44
149023	7	Sololá	701	Sololá	2	El tablón	4	Abril	2023-04-18T00:00:00	2024-11-06T04:00:00	1	Precipitación	0
149024	7	Sololá	701	Sololá	2	El tablón	4	Abril	2023-04-18T00:00:00	2024-11-06T04:00:00	8	Radiación solar	0
149025	7	Sololá	701	Sololá	2	El tablón	4	Abril	2023-04-18T00:00:00	2024-11-06T05:00:00	2	Temperatura media	10.6
149026	7	Sololá	701	Sololá	2	El tablón	4	Abril	2023-04-18T00:00:00	2024-11-06T05:00:00	4	Temperatura máxima	11.6
149027	7	Sololá	701	Sololá	2	El tablón	4	Abril	2023-04-18T00:00:00	2024-11-06T05:00:00	3	Temperatura mínima	10.6
149028	7	Sololá	701	Sololá	2	El tablón	4	Abril	2023-04-18T00:00:00	2024-11-06T05:00:00	5	Humedad	87
149029	7	Sololá	701	Sololá	2	El tablón	4	Abril	2023-04-18T00:00:00	2024-11-06T05:00:00	6	Velocidad del viento	4.8
149030	7	Sololá	701	Sololá	2	El tablón	4	Abril	2023-04-18T00:00:00	2024-11-06T05:00:00	7	Dirección del viento	4.83
149031	7	Sololá	701	Sololá	2	El tablón	4	Abril	2023-04-18T00:00:00	2024-11-06T05:00:00	1	Precipitación	0
149032	7	Sololá	701	Sololá	2	El tablón	4	Abril	2023-04-18T00:00:00	2024-11-06T05:00:00	8	Radiación solar	0
149033	7	Sololá	701	Sololá	2	El tablón	4	Abril	2023-04-18T00:00:00	2024-11-06T06:00:00	2	Temperatura media	10.3
149034	7	Sololá	701	Sololá	2	El tablón	4	Abril	2023-04-18T00:00:00	2024-11-06T06:00:00	4	Temperatura máxima	10.6
149035	7	Sololá	701	Sololá	2	El tablón	4	Abril	2023-04-18T00:00:00	2024-11-06T06:00:00	3	Temperatura mínima	10.3
149036	7	Sololá	701	Sololá	2	El tablón	4	Abril	2023-04-18T00:00:00	2024-11-06T06:00:00	5	Humedad	88
149037	7	Sololá	701	Sololá	2	El tablón	4	Abril	2023-04-18T00:00:00	2024-11-06T06:00:00	6	Velocidad del viento	3.2
149038	7	Sololá	701	Sololá	2	El tablón	4	Abril	2023-04-18T00:00:00	2024-11-06T06:00:00	7	Dirección del viento	3.22
149039	7	Sololá	701	Sololá	2	El tablón	4	Abril	2023-04-18T00:00:00	2024-11-06T06:00:00	1	Precipitación	0
149040	7	Sololá	701	Sololá	2	El tablón	4	Abril	2023-04-18T00:00:00	2024-11-06T06:00:00	8	Radiación solar	1
149041	7	Sololá	701	Sololá	2	El tablón	4	Abril	2023-04-18T00:00:00	2024-11-06T07:00:00	2	Temperatura media	12.6
149042	7	Sololá	701	Sololá	2	El tablón	4	Abril	2023-04-18T00:00:00	2024-11-06T07:00:00	4	Temperatura máxima	12.6
149043	7	Sololá	701	Sololá	2	El tablón	4	Abril	2023-04-18T00:00:00	2024-11-06T07:00:00	3	Temperatura mínima	10.2
149044	7	Sololá	701	Sololá	2	El tablón	4	Abril	2023-04-18T00:00:00	2024-11-06T07:00:00	5	Humedad	83
149045	7	Sololá	701	Sololá	2	El tablón	4	Abril	2023-04-18T00:00:00	2024-11-06T07:00:00	6	Velocidad del viento	3.2
149046	7	Sololá	701	Sololá	2	El tablón	4	Abril	2023-04-18T00:00:00	2024-11-06T07:00:00	7	Dirección del viento	3.22
149047	7	Sololá	701	Sololá	2	El tablón	4	Abril	2023-04-18T00:00:00	2024-11-06T07:00:00	1	Precipitación	0
149048	7	Sololá	701	Sololá	2	El tablón	4	Abril	2023-04-18T00:00:00	2024-11-06T07:00:00	8	Radiación solar	85
149049	7	Sololá	701	Sololá	2	El tablón	4	Abril	2023-04-18T00:00:00	2024-11-06T08:00:00	2	Temperatura media	15.8
149050	7	Sololá	701	Sololá	2	El tablón	4	Abril	2023-04-18T00:00:00	2024-11-06T08:00:00	4	Temperatura máxima	15.8
149051	7	Sololá	701	Sololá	2	El tablón	4	Abril	2023-04-18T00:00:00	2024-11-06T08:00:00	3	Temperatura mínima	12.6
149052	7	Sololá	701	Sololá	2	El tablón	4	Abril	2023-04-18T00:00:00	2024-11-06T08:00:00	5	Humedad	70
149053	7	Sololá	701	Sololá	2	El tablón	4	Abril	2023-04-18T00:00:00	2024-11-06T08:00:00	6	Velocidad del viento	1.6
149054	7	Sololá	701	Sololá	2	El tablón	4	Abril	2023-04-18T00:00:00	2024-11-06T08:00:00	7	Dirección del viento	1.61
149055	7	Sololá	701	Sololá	2	El tablón	4	Abril	2023-04-18T00:00:00	2024-11-06T08:00:00	1	Precipitación	0
149056	7	Sololá	701	Sololá	2	El tablón	4	Abril	2023-04-18T00:00:00	2024-11-06T08:00:00	8	Radiación solar	308
149057	7	Sololá	701	Sololá	2	El tablón	4	Abril	2023-04-18T00:00:00	2024-11-06T09:00:00	2	Temperatura media	16.5
149058	7	Sololá	701	Sololá	2	El tablón	4	Abril	2023-04-18T00:00:00	2024-11-06T09:00:00	4	Temperatura máxima	16.8
149059	7	Sololá	701	Sololá	2	El tablón	4	Abril	2023-04-18T00:00:00	2024-11-06T09:00:00	3	Temperatura mínima	15.8
149060	7	Sololá	701	Sololá	2	El tablón	4	Abril	2023-04-18T00:00:00	2024-11-06T09:00:00	5	Humedad	71
149061	7	Sololá	701	Sololá	2	El tablón	4	Abril	2023-04-18T00:00:00	2024-11-06T09:00:00	6	Velocidad del viento	4.8
149062	7	Sololá	701	Sololá	2	El tablón	4	Abril	2023-04-18T00:00:00	2024-11-06T09:00:00	7	Dirección del viento	4.83
149063	7	Sololá	701	Sololá	2	El tablón	4	Abril	2023-04-18T00:00:00	2024-11-06T09:00:00	1	Precipitación	0
149064	7	Sololá	701	Sololá	2	El tablón	4	Abril	2023-04-18T00:00:00	2024-11-06T09:00:00	8	Radiación solar	460
149065	7	Sololá	701	Sololá	2	El tablón	4	Abril	2023-04-18T00:00:00	2024-11-06T10:00:00	2	Temperatura media	16.9
149066	7	Sololá	701	Sololá	2	El tablón	4	Abril	2023-04-18T00:00:00	2024-11-06T10:00:00	4	Temperatura máxima	16.9
149067	7	Sololá	701	Sololá	2	El tablón	4	Abril	2023-04-18T00:00:00	2024-11-06T10:00:00	3	Temperatura mínima	16.5
149068	7	Sololá	701	Sololá	2	El tablón	4	Abril	2023-04-18T00:00:00	2024-11-06T10:00:00	5	Humedad	67
149069	7	Sololá	701	Sololá	2	El tablón	4	Abril	2023-04-18T00:00:00	2024-11-06T10:00:00	6	Velocidad del viento	6.4
149070	7	Sololá	701	Sololá	2	El tablón	4	Abril	2023-04-18T00:00:00	2024-11-06T10:00:00	7	Dirección del viento	6.44
149071	7	Sololá	701	Sololá	2	El tablón	4	Abril	2023-04-18T00:00:00	2024-11-06T10:00:00	1	Precipitación	0
149072	7	Sololá	701	Sololá	2	El tablón	4	Abril	2023-04-18T00:00:00	2024-11-06T10:00:00	8	Radiación solar	698
149073	7	Sololá	701	Sololá	2	El tablón	4	Abril	2023-04-18T00:00:00	2024-11-06T11:00:00	2	Temperatura media	17.8
149074	7	Sololá	701	Sololá	2	El tablón	4	Abril	2023-04-18T00:00:00	2024-11-06T11:00:00	4	Temperatura máxima	18
149075	7	Sololá	701	Sololá	2	El tablón	4	Abril	2023-04-18T00:00:00	2024-11-06T11:00:00	3	Temperatura mínima	16.9
149076	7	Sololá	701	Sololá	2	El tablón	4	Abril	2023-04-18T00:00:00	2024-11-06T11:00:00	5	Humedad	65
149077	7	Sololá	701	Sololá	2	El tablón	4	Abril	2023-04-18T00:00:00	2024-11-06T11:00:00	6	Velocidad del viento	8
149078	7	Sololá	701	Sololá	2	El tablón	4	Abril	2023-04-18T00:00:00	2024-11-06T11:00:00	7	Dirección del viento	8.05
149079	7	Sololá	701	Sololá	2	El tablón	4	Abril	2023-04-18T00:00:00	2024-11-06T11:00:00	1	Precipitación	0
149080	7	Sololá	701	Sololá	2	El tablón	4	Abril	2023-04-18T00:00:00	2024-11-06T11:00:00	8	Radiación solar	843
149081	7	Sololá	701	Sololá	2	El tablón	4	Abril	2023-04-18T00:00:00	2024-11-06T12:00:00	2	Temperatura media	17.8
149082	7	Sololá	701	Sololá	2	El tablón	4	Abril	2023-04-18T00:00:00	2024-11-06T12:00:00	4	Temperatura máxima	17.9
149083	7	Sololá	701	Sololá	2	El tablón	4	Abril	2023-04-18T00:00:00	2024-11-06T12:00:00	3	Temperatura mínima	17.2
149084	7	Sololá	701	Sololá	2	El tablón	4	Abril	2023-04-18T00:00:00	2024-11-06T12:00:00	5	Humedad	74
149085	7	Sololá	701	Sololá	2	El tablón	4	Abril	2023-04-18T00:00:00	2024-11-06T12:00:00	6	Velocidad del viento	9.7
149086	7	Sololá	701	Sololá	2	El tablón	4	Abril	2023-04-18T00:00:00	2024-11-06T12:00:00	7	Dirección del viento	9.66
149087	7	Sololá	701	Sololá	2	El tablón	4	Abril	2023-04-18T00:00:00	2024-11-06T12:00:00	1	Precipitación	0
149088	7	Sololá	701	Sololá	2	El tablón	4	Abril	2023-04-18T00:00:00	2024-11-06T12:00:00	8	Radiación solar	967
149089	7	Sololá	701	Sololá	2	El tablón	4	Abril	2023-04-18T00:00:00	2024-11-06T13:00:00	2	Temperatura media	17.1
149090	7	Sololá	701	Sololá	2	El tablón	4	Abril	2023-04-18T00:00:00	2024-11-06T13:00:00	4	Temperatura máxima	17.9
149091	7	Sololá	701	Sololá	2	El tablón	4	Abril	2023-04-18T00:00:00	2024-11-06T13:00:00	3	Temperatura mínima	16.6
149092	7	Sololá	701	Sololá	2	El tablón	4	Abril	2023-04-18T00:00:00	2024-11-06T13:00:00	5	Humedad	79
149093	7	Sololá	701	Sololá	2	El tablón	4	Abril	2023-04-18T00:00:00	2024-11-06T13:00:00	6	Velocidad del viento	11.3
149094	7	Sololá	701	Sololá	2	El tablón	4	Abril	2023-04-18T00:00:00	2024-11-06T13:00:00	7	Dirección del viento	11.27
149095	7	Sololá	701	Sololá	2	El tablón	4	Abril	2023-04-18T00:00:00	2024-11-06T13:00:00	1	Precipitación	0
149096	7	Sololá	701	Sololá	2	El tablón	4	Abril	2023-04-18T00:00:00	2024-11-06T13:00:00	8	Radiación solar	943
149097	7	Sololá	701	Sololá	2	El tablón	4	Abril	2023-04-18T00:00:00	2024-11-06T14:00:00	2	Temperatura media	17.2
149098	7	Sololá	701	Sololá	2	El tablón	4	Abril	2023-04-18T00:00:00	2024-11-06T14:00:00	4	Temperatura máxima	17.5
149099	7	Sololá	701	Sololá	2	El tablón	4	Abril	2023-04-18T00:00:00	2024-11-06T14:00:00	3	Temperatura mínima	16.8
149100	7	Sololá	701	Sololá	2	El tablón	4	Abril	2023-04-18T00:00:00	2024-11-06T14:00:00	5	Humedad	79
149101	7	Sololá	701	Sololá	2	El tablón	4	Abril	2023-04-18T00:00:00	2024-11-06T14:00:00	6	Velocidad del viento	11.3
149102	7	Sololá	701	Sololá	2	El tablón	4	Abril	2023-04-18T00:00:00	2024-11-06T14:00:00	7	Dirección del viento	11.27
149103	7	Sololá	701	Sololá	2	El tablón	4	Abril	2023-04-18T00:00:00	2024-11-06T14:00:00	1	Precipitación	0
149104	7	Sololá	701	Sololá	2	El tablón	4	Abril	2023-04-18T00:00:00	2024-11-06T14:00:00	8	Radiación solar	861
149105	7	Sololá	701	Sololá	2	El tablón	4	Abril	2023-04-18T00:00:00	2024-11-06T15:00:00	2	Temperatura media	16.3
149106	7	Sololá	701	Sololá	2	El tablón	4	Abril	2023-04-18T00:00:00	2024-11-06T15:00:00	4	Temperatura máxima	17.2
149107	7	Sololá	701	Sololá	2	El tablón	4	Abril	2023-04-18T00:00:00	2024-11-06T15:00:00	3	Temperatura mínima	16.1
149108	7	Sololá	701	Sololá	2	El tablón	4	Abril	2023-04-18T00:00:00	2024-11-06T15:00:00	5	Humedad	82
149109	7	Sololá	701	Sololá	2	El tablón	4	Abril	2023-04-18T00:00:00	2024-11-06T15:00:00	6	Velocidad del viento	9.7
149110	7	Sololá	701	Sololá	2	El tablón	4	Abril	2023-04-18T00:00:00	2024-11-06T15:00:00	7	Dirección del viento	9.66
149111	7	Sololá	701	Sololá	2	El tablón	4	Abril	2023-04-18T00:00:00	2024-11-06T15:00:00	1	Precipitación	0
149112	7	Sololá	701	Sololá	2	El tablón	4	Abril	2023-04-18T00:00:00	2024-11-06T15:00:00	8	Radiación solar	465
149113	7	Sololá	701	Sololá	2	El tablón	4	Abril	2023-04-18T00:00:00	2024-11-06T16:00:00	2	Temperatura media	15.7
149114	7	Sololá	701	Sololá	2	El tablón	4	Abril	2023-04-18T00:00:00	2024-11-06T16:00:00	4	Temperatura máxima	16.8
149115	7	Sololá	701	Sololá	2	El tablón	4	Abril	2023-04-18T00:00:00	2024-11-06T16:00:00	3	Temperatura mínima	15.7
149116	7	Sololá	701	Sololá	2	El tablón	4	Abril	2023-04-18T00:00:00	2024-11-06T16:00:00	5	Humedad	85
149117	7	Sololá	701	Sololá	2	El tablón	4	Abril	2023-04-18T00:00:00	2024-11-06T16:00:00	6	Velocidad del viento	8
149118	7	Sololá	701	Sololá	2	El tablón	4	Abril	2023-04-18T00:00:00	2024-11-06T16:00:00	7	Dirección del viento	8.05
149119	7	Sololá	701	Sololá	2	El tablón	4	Abril	2023-04-18T00:00:00	2024-11-06T16:00:00	1	Precipitación	0
149120	7	Sololá	701	Sololá	2	El tablón	4	Abril	2023-04-18T00:00:00	2024-11-06T16:00:00	8	Radiación solar	382
149121	7	Sololá	701	Sololá	2	El tablón	4	Abril	2023-04-18T00:00:00	2024-11-06T17:00:00	2	Temperatura media	14.7
149122	7	Sololá	701	Sololá	2	El tablón	4	Abril	2023-04-18T00:00:00	2024-11-06T17:00:00	4	Temperatura máxima	15.7
149123	7	Sololá	701	Sololá	2	El tablón	4	Abril	2023-04-18T00:00:00	2024-11-06T17:00:00	3	Temperatura mínima	14.7
149124	7	Sololá	701	Sololá	2	El tablón	4	Abril	2023-04-18T00:00:00	2024-11-06T17:00:00	5	Humedad	88
149125	7	Sololá	701	Sololá	2	El tablón	4	Abril	2023-04-18T00:00:00	2024-11-06T17:00:00	6	Velocidad del viento	4.8
149126	7	Sololá	701	Sololá	2	El tablón	4	Abril	2023-04-18T00:00:00	2024-11-06T17:00:00	7	Dirección del viento	4.83
149127	7	Sololá	701	Sololá	2	El tablón	4	Abril	2023-04-18T00:00:00	2024-11-06T17:00:00	1	Precipitación	0
149128	7	Sololá	701	Sololá	2	El tablón	4	Abril	2023-04-18T00:00:00	2024-11-06T17:00:00	8	Radiación solar	65
149129	7	Sololá	701	Sololá	2	El tablón	4	Abril	2023-04-18T00:00:00	2024-11-06T18:00:00	2	Temperatura media	14.7
149130	7	Sololá	701	Sololá	2	El tablón	4	Abril	2023-04-18T00:00:00	2024-11-06T18:00:00	4	Temperatura máxima	14.7
149131	7	Sololá	701	Sololá	2	El tablón	4	Abril	2023-04-18T00:00:00	2024-11-06T18:00:00	3	Temperatura mínima	14.4
149132	7	Sololá	701	Sololá	2	El tablón	4	Abril	2023-04-18T00:00:00	2024-11-06T18:00:00	5	Humedad	88
149133	7	Sololá	701	Sololá	2	El tablón	4	Abril	2023-04-18T00:00:00	2024-11-06T18:00:00	6	Velocidad del viento	1.6
149134	7	Sololá	701	Sololá	2	El tablón	4	Abril	2023-04-18T00:00:00	2024-11-06T18:00:00	7	Dirección del viento	1.61
149135	7	Sololá	701	Sololá	2	El tablón	4	Abril	2023-04-18T00:00:00	2024-11-06T18:00:00	1	Precipitación	0
149136	7	Sololá	701	Sololá	2	El tablón	4	Abril	2023-04-18T00:00:00	2024-11-06T18:00:00	8	Radiación solar	23
149137	7	Sololá	701	Sololá	2	El tablón	4	Abril	2023-04-18T00:00:00	2024-11-06T19:00:00	2	Temperatura media	14.3
149138	7	Sololá	701	Sololá	2	El tablón	4	Abril	2023-04-18T00:00:00	2024-11-06T19:00:00	4	Temperatura máxima	14.8
149139	7	Sololá	701	Sololá	2	El tablón	4	Abril	2023-04-18T00:00:00	2024-11-06T19:00:00	3	Temperatura mínima	14.3
149140	7	Sololá	701	Sololá	2	El tablón	4	Abril	2023-04-18T00:00:00	2024-11-06T19:00:00	5	Humedad	88
149141	7	Sololá	701	Sololá	2	El tablón	4	Abril	2023-04-18T00:00:00	2024-11-06T19:00:00	6	Velocidad del viento	0
149142	7	Sololá	701	Sololá	2	El tablón	4	Abril	2023-04-18T00:00:00	2024-11-06T19:00:00	7	Dirección del viento	0
149143	7	Sololá	701	Sololá	2	El tablón	4	Abril	2023-04-18T00:00:00	2024-11-06T19:00:00	1	Precipitación	0
149144	7	Sololá	701	Sololá	2	El tablón	4	Abril	2023-04-18T00:00:00	2024-11-06T19:00:00	8	Radiación solar	0
149145	7	Sololá	701	Sololá	2	El tablón	4	Abril	2023-04-18T00:00:00	2024-11-06T20:00:00	2	Temperatura media	14.6
149146	7	Sololá	701	Sololá	2	El tablón	4	Abril	2023-04-18T00:00:00	2024-11-06T20:00:00	4	Temperatura máxima	14.9
149147	7	Sololá	701	Sololá	2	El tablón	4	Abril	2023-04-18T00:00:00	2024-11-06T20:00:00	3	Temperatura mínima	14.1
149148	7	Sololá	701	Sololá	2	El tablón	4	Abril	2023-04-18T00:00:00	2024-11-06T20:00:00	5	Humedad	85
149149	7	Sololá	701	Sololá	2	El tablón	4	Abril	2023-04-18T00:00:00	2024-11-06T20:00:00	6	Velocidad del viento	4.8
149150	7	Sololá	701	Sololá	2	El tablón	4	Abril	2023-04-18T00:00:00	2024-11-06T20:00:00	7	Dirección del viento	4.83
149151	7	Sololá	701	Sololá	2	El tablón	4	Abril	2023-04-18T00:00:00	2024-11-06T20:00:00	1	Precipitación	0
149152	7	Sololá	701	Sololá	2	El tablón	4	Abril	2023-04-18T00:00:00	2024-11-06T20:00:00	8	Radiación solar	0
149153	7	Sololá	701	Sololá	2	El tablón	4	Abril	2023-04-18T00:00:00	2024-11-06T21:00:00	2	Temperatura media	14
149154	7	Sololá	701	Sololá	2	El tablón	4	Abril	2023-04-18T00:00:00	2024-11-06T21:00:00	4	Temperatura máxima	14.6
149155	7	Sololá	701	Sololá	2	El tablón	4	Abril	2023-04-18T00:00:00	2024-11-06T21:00:00	3	Temperatura mínima	14
149156	7	Sololá	701	Sololá	2	El tablón	4	Abril	2023-04-18T00:00:00	2024-11-06T21:00:00	5	Humedad	86
149157	7	Sololá	701	Sololá	2	El tablón	4	Abril	2023-04-18T00:00:00	2024-11-06T21:00:00	6	Velocidad del viento	3.2
149158	7	Sololá	701	Sololá	2	El tablón	4	Abril	2023-04-18T00:00:00	2024-11-06T21:00:00	7	Dirección del viento	3.22
149159	7	Sololá	701	Sololá	2	El tablón	4	Abril	2023-04-18T00:00:00	2024-11-06T21:00:00	1	Precipitación	0
149160	7	Sololá	701	Sololá	2	El tablón	4	Abril	2023-04-18T00:00:00	2024-11-06T21:00:00	8	Radiación solar	0
149161	7	Sololá	701	Sololá	2	El tablón	4	Abril	2023-04-18T00:00:00	2024-11-06T22:00:00	2	Temperatura media	13.3
149162	7	Sololá	701	Sololá	2	El tablón	4	Abril	2023-04-18T00:00:00	2024-11-06T22:00:00	4	Temperatura máxima	14
149163	7	Sololá	701	Sololá	2	El tablón	4	Abril	2023-04-18T00:00:00	2024-11-06T22:00:00	3	Temperatura mínima	13.3
149164	7	Sololá	701	Sololá	2	El tablón	4	Abril	2023-04-18T00:00:00	2024-11-06T22:00:00	5	Humedad	86
149165	7	Sololá	701	Sololá	2	El tablón	4	Abril	2023-04-18T00:00:00	2024-11-06T22:00:00	6	Velocidad del viento	4.8
149166	7	Sololá	701	Sololá	2	El tablón	4	Abril	2023-04-18T00:00:00	2024-11-06T22:00:00	7	Dirección del viento	4.83
149167	7	Sololá	701	Sololá	2	El tablón	4	Abril	2023-04-18T00:00:00	2024-11-06T22:00:00	1	Precipitación	0
149168	7	Sololá	701	Sololá	2	El tablón	4	Abril	2023-04-18T00:00:00	2024-11-06T22:00:00	8	Radiación solar	0
149169	7	Sololá	701	Sololá	2	El tablón	4	Abril	2023-04-18T00:00:00	2024-11-06T23:00:00	2	Temperatura media	12.9
149170	7	Sololá	701	Sololá	2	El tablón	4	Abril	2023-04-18T00:00:00	2024-11-06T23:00:00	4	Temperatura máxima	13.3
149171	7	Sololá	701	Sololá	2	El tablón	4	Abril	2023-04-18T00:00:00	2024-11-06T23:00:00	3	Temperatura mínima	12.9
149172	7	Sololá	701	Sololá	2	El tablón	4	Abril	2023-04-18T00:00:00	2024-11-06T23:00:00	5	Humedad	84
149173	7	Sololá	701	Sololá	2	El tablón	4	Abril	2023-04-18T00:00:00	2024-11-06T23:00:00	6	Velocidad del viento	4.8
149174	7	Sololá	701	Sololá	2	El tablón	4	Abril	2023-04-18T00:00:00	2024-11-06T23:00:00	7	Dirección del viento	4.83
149175	7	Sololá	701	Sololá	2	El tablón	4	Abril	2023-04-18T00:00:00	2024-11-06T23:00:00	1	Precipitación	0
149176	7	Sololá	701	Sololá	2	El tablón	4	Abril	2023-04-18T00:00:00	2024-11-06T23:00:00	8	Radiación solar	0
149177	7	Sololá	701	Sololá	2	El tablón	4	Abril	2023-04-19T00:00:00	2024-11-06T00:00:00	2	Temperatura media	12.6
149178	7	Sololá	701	Sololá	2	El tablón	4	Abril	2023-04-19T00:00:00	2024-11-06T00:00:00	4	Temperatura máxima	12.9
149179	7	Sololá	701	Sololá	2	El tablón	4	Abril	2023-04-19T00:00:00	2024-11-06T00:00:00	3	Temperatura mínima	12.6
149180	7	Sololá	701	Sololá	2	El tablón	4	Abril	2023-04-19T00:00:00	2024-11-06T00:00:00	5	Humedad	85
149181	7	Sololá	701	Sololá	2	El tablón	4	Abril	2023-04-19T00:00:00	2024-11-06T00:00:00	6	Velocidad del viento	3.2
149182	7	Sololá	701	Sololá	2	El tablón	4	Abril	2023-04-19T00:00:00	2024-11-06T00:00:00	7	Dirección del viento	3.22
149183	7	Sololá	701	Sololá	2	El tablón	4	Abril	2023-04-19T00:00:00	2024-11-06T00:00:00	1	Precipitación	0
149184	7	Sololá	701	Sololá	2	El tablón	4	Abril	2023-04-19T00:00:00	2024-11-06T00:00:00	8	Radiación solar	0
149185	7	Sololá	701	Sololá	2	El tablón	4	Abril	2023-04-19T00:00:00	2024-11-06T01:00:00	2	Temperatura media	12.2
149186	7	Sololá	701	Sololá	2	El tablón	4	Abril	2023-04-19T00:00:00	2024-11-06T01:00:00	4	Temperatura máxima	12.7
149187	7	Sololá	701	Sololá	2	El tablón	4	Abril	2023-04-19T00:00:00	2024-11-06T01:00:00	3	Temperatura mínima	12.2
149188	7	Sololá	701	Sololá	2	El tablón	4	Abril	2023-04-19T00:00:00	2024-11-06T01:00:00	5	Humedad	85
149189	7	Sololá	701	Sololá	2	El tablón	4	Abril	2023-04-19T00:00:00	2024-11-06T01:00:00	6	Velocidad del viento	6.4
149190	7	Sololá	701	Sololá	2	El tablón	4	Abril	2023-04-19T00:00:00	2024-11-06T01:00:00	7	Dirección del viento	6.44
149191	7	Sololá	701	Sololá	2	El tablón	4	Abril	2023-04-19T00:00:00	2024-11-06T01:00:00	1	Precipitación	0
149192	7	Sololá	701	Sololá	2	El tablón	4	Abril	2023-04-19T00:00:00	2024-11-06T01:00:00	8	Radiación solar	0
149193	7	Sololá	701	Sololá	2	El tablón	4	Abril	2023-04-19T00:00:00	2024-11-06T02:00:00	2	Temperatura media	11.2
149194	7	Sololá	701	Sololá	2	El tablón	4	Abril	2023-04-19T00:00:00	2024-11-06T02:00:00	4	Temperatura máxima	12.2
149195	7	Sololá	701	Sololá	2	El tablón	4	Abril	2023-04-19T00:00:00	2024-11-06T02:00:00	3	Temperatura mínima	11.2
149196	7	Sololá	701	Sololá	2	El tablón	4	Abril	2023-04-19T00:00:00	2024-11-06T02:00:00	5	Humedad	85
149197	7	Sololá	701	Sololá	2	El tablón	4	Abril	2023-04-19T00:00:00	2024-11-06T02:00:00	6	Velocidad del viento	4.8
149198	7	Sololá	701	Sololá	2	El tablón	4	Abril	2023-04-19T00:00:00	2024-11-06T02:00:00	7	Dirección del viento	4.83
149199	7	Sololá	701	Sololá	2	El tablón	4	Abril	2023-04-19T00:00:00	2024-11-06T02:00:00	1	Precipitación	0
149200	7	Sololá	701	Sololá	2	El tablón	4	Abril	2023-04-19T00:00:00	2024-11-06T02:00:00	8	Radiación solar	0
149201	7	Sololá	701	Sololá	2	El tablón	4	Abril	2023-04-19T00:00:00	2024-11-06T03:00:00	2	Temperatura media	10.3
149202	7	Sololá	701	Sololá	2	El tablón	4	Abril	2023-04-19T00:00:00	2024-11-06T03:00:00	4	Temperatura máxima	11.2
149203	7	Sololá	701	Sololá	2	El tablón	4	Abril	2023-04-19T00:00:00	2024-11-06T03:00:00	3	Temperatura mínima	10.3
149204	7	Sololá	701	Sololá	2	El tablón	4	Abril	2023-04-19T00:00:00	2024-11-06T03:00:00	5	Humedad	85
149205	7	Sololá	701	Sololá	2	El tablón	4	Abril	2023-04-19T00:00:00	2024-11-06T03:00:00	6	Velocidad del viento	3.2
149206	7	Sololá	701	Sololá	2	El tablón	4	Abril	2023-04-19T00:00:00	2024-11-06T03:00:00	7	Dirección del viento	3.22
149207	7	Sololá	701	Sololá	2	El tablón	4	Abril	2023-04-19T00:00:00	2024-11-06T03:00:00	1	Precipitación	0
149208	7	Sololá	701	Sololá	2	El tablón	4	Abril	2023-04-19T00:00:00	2024-11-06T03:00:00	8	Radiación solar	0
149209	7	Sololá	701	Sololá	2	El tablón	4	Abril	2023-04-19T00:00:00	2024-11-06T04:00:00	2	Temperatura media	11.2
149210	7	Sololá	701	Sololá	2	El tablón	4	Abril	2023-04-19T00:00:00	2024-11-06T04:00:00	4	Temperatura máxima	11.2
149211	7	Sololá	701	Sololá	2	El tablón	4	Abril	2023-04-19T00:00:00	2024-11-06T04:00:00	3	Temperatura mínima	10
149212	7	Sololá	701	Sololá	2	El tablón	4	Abril	2023-04-19T00:00:00	2024-11-06T04:00:00	5	Humedad	75
149213	7	Sololá	701	Sololá	2	El tablón	4	Abril	2023-04-19T00:00:00	2024-11-06T04:00:00	6	Velocidad del viento	6.4
149214	7	Sololá	701	Sololá	2	El tablón	4	Abril	2023-04-19T00:00:00	2024-11-06T04:00:00	7	Dirección del viento	6.44
149215	7	Sololá	701	Sololá	2	El tablón	4	Abril	2023-04-19T00:00:00	2024-11-06T04:00:00	1	Precipitación	0
149216	7	Sololá	701	Sololá	2	El tablón	4	Abril	2023-04-19T00:00:00	2024-11-06T04:00:00	8	Radiación solar	0
149217	7	Sololá	701	Sololá	2	El tablón	4	Abril	2023-04-19T00:00:00	2024-11-06T05:00:00	2	Temperatura media	9.8
149218	7	Sololá	701	Sololá	2	El tablón	4	Abril	2023-04-19T00:00:00	2024-11-06T05:00:00	4	Temperatura máxima	12
149219	7	Sololá	701	Sololá	2	El tablón	4	Abril	2023-04-19T00:00:00	2024-11-06T05:00:00	3	Temperatura mínima	9.7
149220	7	Sololá	701	Sololá	2	El tablón	4	Abril	2023-04-19T00:00:00	2024-11-06T05:00:00	5	Humedad	77
149221	7	Sololá	701	Sololá	2	El tablón	4	Abril	2023-04-19T00:00:00	2024-11-06T05:00:00	6	Velocidad del viento	4.8
149222	7	Sololá	701	Sololá	2	El tablón	4	Abril	2023-04-19T00:00:00	2024-11-06T05:00:00	7	Dirección del viento	4.83
149223	7	Sololá	701	Sololá	2	El tablón	4	Abril	2023-04-19T00:00:00	2024-11-06T05:00:00	1	Precipitación	0
149224	7	Sololá	701	Sololá	2	El tablón	4	Abril	2023-04-19T00:00:00	2024-11-06T05:00:00	8	Radiación solar	0
149225	7	Sololá	701	Sololá	2	El tablón	4	Abril	2023-04-19T00:00:00	2024-11-06T06:00:00	2	Temperatura media	9.1
149226	7	Sololá	701	Sololá	2	El tablón	4	Abril	2023-04-19T00:00:00	2024-11-06T06:00:00	4	Temperatura máxima	9.7
149227	7	Sololá	701	Sololá	2	El tablón	4	Abril	2023-04-19T00:00:00	2024-11-06T06:00:00	3	Temperatura mínima	8.6
149228	7	Sololá	701	Sololá	2	El tablón	4	Abril	2023-04-19T00:00:00	2024-11-06T06:00:00	5	Humedad	73
149229	7	Sololá	701	Sololá	2	El tablón	4	Abril	2023-04-19T00:00:00	2024-11-06T06:00:00	6	Velocidad del viento	3.2
149230	7	Sololá	701	Sololá	2	El tablón	4	Abril	2023-04-19T00:00:00	2024-11-06T06:00:00	7	Dirección del viento	3.22
149231	7	Sololá	701	Sololá	2	El tablón	4	Abril	2023-04-19T00:00:00	2024-11-06T06:00:00	1	Precipitación	0
149232	7	Sololá	701	Sololá	2	El tablón	4	Abril	2023-04-19T00:00:00	2024-11-06T06:00:00	8	Radiación solar	1
149233	7	Sololá	701	Sololá	2	El tablón	4	Abril	2023-04-19T00:00:00	2024-11-06T07:00:00	2	Temperatura media	11.9
149234	7	Sololá	701	Sololá	2	El tablón	4	Abril	2023-04-19T00:00:00	2024-11-06T07:00:00	4	Temperatura máxima	11.9
149235	7	Sololá	701	Sololá	2	El tablón	4	Abril	2023-04-19T00:00:00	2024-11-06T07:00:00	3	Temperatura mínima	9.1
149236	7	Sololá	701	Sololá	2	El tablón	4	Abril	2023-04-19T00:00:00	2024-11-06T07:00:00	5	Humedad	61
149237	7	Sololá	701	Sololá	2	El tablón	4	Abril	2023-04-19T00:00:00	2024-11-06T07:00:00	6	Velocidad del viento	4.8
149238	7	Sololá	701	Sololá	2	El tablón	4	Abril	2023-04-19T00:00:00	2024-11-06T07:00:00	7	Dirección del viento	4.83
149239	7	Sololá	701	Sololá	2	El tablón	4	Abril	2023-04-19T00:00:00	2024-11-06T07:00:00	1	Precipitación	0
149240	7	Sololá	701	Sololá	2	El tablón	4	Abril	2023-04-19T00:00:00	2024-11-06T07:00:00	8	Radiación solar	91
149241	7	Sololá	701	Sololá	2	El tablón	4	Abril	2023-04-19T00:00:00	2024-11-06T08:00:00	2	Temperatura media	17.4
149242	7	Sololá	701	Sololá	2	El tablón	4	Abril	2023-04-19T00:00:00	2024-11-06T08:00:00	4	Temperatura máxima	17.4
149243	7	Sololá	701	Sololá	2	El tablón	4	Abril	2023-04-19T00:00:00	2024-11-06T08:00:00	3	Temperatura mínima	11.9
149244	7	Sololá	701	Sololá	2	El tablón	4	Abril	2023-04-19T00:00:00	2024-11-06T08:00:00	5	Humedad	47
149245	7	Sololá	701	Sololá	2	El tablón	4	Abril	2023-04-19T00:00:00	2024-11-06T08:00:00	6	Velocidad del viento	0
149246	7	Sololá	701	Sololá	2	El tablón	4	Abril	2023-04-19T00:00:00	2024-11-06T08:00:00	7	Dirección del viento	0
149247	7	Sololá	701	Sololá	2	El tablón	4	Abril	2023-04-19T00:00:00	2024-11-06T08:00:00	1	Precipitación	0
149248	7	Sololá	701	Sololá	2	El tablón	4	Abril	2023-04-19T00:00:00	2024-11-06T08:00:00	8	Radiación solar	321
149249	7	Sololá	701	Sololá	2	El tablón	4	Abril	2023-04-19T00:00:00	2024-11-06T09:00:00	2	Temperatura media	17.8
149250	7	Sololá	701	Sololá	2	El tablón	4	Abril	2023-04-19T00:00:00	2024-11-06T09:00:00	4	Temperatura máxima	18.2
149251	7	Sololá	701	Sololá	2	El tablón	4	Abril	2023-04-19T00:00:00	2024-11-06T09:00:00	3	Temperatura mínima	17.4
149252	7	Sololá	701	Sololá	2	El tablón	4	Abril	2023-04-19T00:00:00	2024-11-06T09:00:00	5	Humedad	53
149253	7	Sololá	701	Sololá	2	El tablón	4	Abril	2023-04-19T00:00:00	2024-11-06T09:00:00	6	Velocidad del viento	4.8
149254	7	Sololá	701	Sololá	2	El tablón	4	Abril	2023-04-19T00:00:00	2024-11-06T09:00:00	7	Dirección del viento	4.83
149255	7	Sololá	701	Sololá	2	El tablón	4	Abril	2023-04-19T00:00:00	2024-11-06T09:00:00	1	Precipitación	0
149256	7	Sololá	701	Sololá	2	El tablón	4	Abril	2023-04-19T00:00:00	2024-11-06T09:00:00	8	Radiación solar	483
149257	7	Sololá	701	Sololá	2	El tablón	4	Abril	2023-04-19T00:00:00	2024-11-06T10:00:00	2	Temperatura media	18.3
149258	7	Sololá	701	Sololá	2	El tablón	4	Abril	2023-04-19T00:00:00	2024-11-06T10:00:00	4	Temperatura máxima	18.3
149259	7	Sololá	701	Sololá	2	El tablón	4	Abril	2023-04-19T00:00:00	2024-11-06T10:00:00	3	Temperatura mínima	17.6
149260	7	Sololá	701	Sololá	2	El tablón	4	Abril	2023-04-19T00:00:00	2024-11-06T10:00:00	5	Humedad	51
149261	7	Sololá	701	Sololá	2	El tablón	4	Abril	2023-04-19T00:00:00	2024-11-06T10:00:00	6	Velocidad del viento	4.8
149262	7	Sololá	701	Sololá	2	El tablón	4	Abril	2023-04-19T00:00:00	2024-11-06T10:00:00	7	Dirección del viento	4.83
149263	7	Sololá	701	Sololá	2	El tablón	4	Abril	2023-04-19T00:00:00	2024-11-06T10:00:00	1	Precipitación	0
149264	7	Sololá	701	Sololá	2	El tablón	4	Abril	2023-04-19T00:00:00	2024-11-06T10:00:00	8	Radiación solar	710
149265	7	Sololá	701	Sololá	2	El tablón	4	Abril	2023-04-19T00:00:00	2024-11-06T11:00:00	2	Temperatura media	19.6
149266	7	Sololá	701	Sololá	2	El tablón	4	Abril	2023-04-19T00:00:00	2024-11-06T11:00:00	4	Temperatura máxima	20.3
149267	7	Sololá	701	Sololá	2	El tablón	4	Abril	2023-04-19T00:00:00	2024-11-06T11:00:00	3	Temperatura mínima	18.3
149268	7	Sololá	701	Sololá	2	El tablón	4	Abril	2023-04-19T00:00:00	2024-11-06T11:00:00	5	Humedad	53
149269	7	Sololá	701	Sololá	2	El tablón	4	Abril	2023-04-19T00:00:00	2024-11-06T11:00:00	6	Velocidad del viento	4.8
149270	7	Sololá	701	Sololá	2	El tablón	4	Abril	2023-04-19T00:00:00	2024-11-06T11:00:00	7	Dirección del viento	4.83
149271	7	Sololá	701	Sololá	2	El tablón	4	Abril	2023-04-19T00:00:00	2024-11-06T11:00:00	1	Precipitación	0
149272	7	Sololá	701	Sololá	2	El tablón	4	Abril	2023-04-19T00:00:00	2024-11-06T11:00:00	8	Radiación solar	861
149273	7	Sololá	701	Sololá	2	El tablón	4	Abril	2023-04-19T00:00:00	2024-11-06T12:00:00	2	Temperatura media	19
149274	7	Sololá	701	Sololá	2	El tablón	4	Abril	2023-04-19T00:00:00	2024-11-06T12:00:00	4	Temperatura máxima	20.1
149275	7	Sololá	701	Sololá	2	El tablón	4	Abril	2023-04-19T00:00:00	2024-11-06T12:00:00	3	Temperatura mínima	18.8
149276	7	Sololá	701	Sololá	2	El tablón	4	Abril	2023-04-19T00:00:00	2024-11-06T12:00:00	5	Humedad	66
149277	7	Sololá	701	Sololá	2	El tablón	4	Abril	2023-04-19T00:00:00	2024-11-06T12:00:00	6	Velocidad del viento	9.7
149278	7	Sololá	701	Sololá	2	El tablón	4	Abril	2023-04-19T00:00:00	2024-11-06T12:00:00	7	Dirección del viento	9.66
149279	7	Sololá	701	Sololá	2	El tablón	4	Abril	2023-04-19T00:00:00	2024-11-06T12:00:00	1	Precipitación	0
149280	7	Sololá	701	Sololá	2	El tablón	4	Abril	2023-04-19T00:00:00	2024-11-06T12:00:00	8	Radiación solar	956
149281	7	Sololá	701	Sololá	2	El tablón	4	Abril	2023-04-19T00:00:00	2024-11-06T13:00:00	2	Temperatura media	18.8
149282	7	Sololá	701	Sololá	2	El tablón	4	Abril	2023-04-19T00:00:00	2024-11-06T13:00:00	4	Temperatura máxima	19.2
149283	7	Sololá	701	Sololá	2	El tablón	4	Abril	2023-04-19T00:00:00	2024-11-06T13:00:00	3	Temperatura mínima	18.3
149284	7	Sololá	701	Sololá	2	El tablón	4	Abril	2023-04-19T00:00:00	2024-11-06T13:00:00	5	Humedad	75
149285	7	Sololá	701	Sololá	2	El tablón	4	Abril	2023-04-19T00:00:00	2024-11-06T13:00:00	6	Velocidad del viento	11.3
149286	7	Sololá	701	Sololá	2	El tablón	4	Abril	2023-04-19T00:00:00	2024-11-06T13:00:00	7	Dirección del viento	11.27
149287	7	Sololá	701	Sololá	2	El tablón	4	Abril	2023-04-19T00:00:00	2024-11-06T13:00:00	1	Precipitación	0
149288	7	Sololá	701	Sololá	2	El tablón	4	Abril	2023-04-19T00:00:00	2024-11-06T13:00:00	8	Radiación solar	972
149289	7	Sololá	701	Sololá	2	El tablón	4	Abril	2023-04-19T00:00:00	2024-11-06T14:00:00	2	Temperatura media	18.1
149290	7	Sololá	701	Sololá	2	El tablón	4	Abril	2023-04-19T00:00:00	2024-11-06T14:00:00	4	Temperatura máxima	18.9
149291	7	Sololá	701	Sololá	2	El tablón	4	Abril	2023-04-19T00:00:00	2024-11-06T14:00:00	3	Temperatura mínima	17.9
149292	7	Sololá	701	Sololá	2	El tablón	4	Abril	2023-04-19T00:00:00	2024-11-06T14:00:00	5	Humedad	80
149293	7	Sololá	701	Sololá	2	El tablón	4	Abril	2023-04-19T00:00:00	2024-11-06T14:00:00	6	Velocidad del viento	11.3
149294	7	Sololá	701	Sololá	2	El tablón	4	Abril	2023-04-19T00:00:00	2024-11-06T14:00:00	7	Dirección del viento	11.27
149295	7	Sololá	701	Sololá	2	El tablón	4	Abril	2023-04-19T00:00:00	2024-11-06T14:00:00	1	Precipitación	0
149296	7	Sololá	701	Sololá	2	El tablón	4	Abril	2023-04-19T00:00:00	2024-11-06T14:00:00	8	Radiación solar	947
149297	7	Sololá	701	Sololá	2	El tablón	4	Abril	2023-04-19T00:00:00	2024-11-06T15:00:00	2	Temperatura media	18
149298	7	Sololá	701	Sololá	2	El tablón	4	Abril	2023-04-19T00:00:00	2024-11-06T15:00:00	4	Temperatura máxima	18.7
149299	7	Sololá	701	Sololá	2	El tablón	4	Abril	2023-04-19T00:00:00	2024-11-06T15:00:00	3	Temperatura mínima	17.8
149300	7	Sololá	701	Sololá	2	El tablón	4	Abril	2023-04-19T00:00:00	2024-11-06T15:00:00	5	Humedad	80
149301	7	Sololá	701	Sololá	2	El tablón	4	Abril	2023-04-19T00:00:00	2024-11-06T15:00:00	6	Velocidad del viento	9.7
149302	7	Sololá	701	Sololá	2	El tablón	4	Abril	2023-04-19T00:00:00	2024-11-06T15:00:00	7	Dirección del viento	9.66
149303	7	Sololá	701	Sololá	2	El tablón	4	Abril	2023-04-19T00:00:00	2024-11-06T15:00:00	1	Precipitación	0
149304	7	Sololá	701	Sololá	2	El tablón	4	Abril	2023-04-19T00:00:00	2024-11-06T15:00:00	8	Radiación solar	761
149305	7	Sololá	701	Sololá	2	El tablón	4	Abril	2023-04-19T00:00:00	2024-11-06T16:00:00	2	Temperatura media	17.2
149306	7	Sololá	701	Sololá	2	El tablón	4	Abril	2023-04-19T00:00:00	2024-11-06T16:00:00	4	Temperatura máxima	18.4
149307	7	Sololá	701	Sololá	2	El tablón	4	Abril	2023-04-19T00:00:00	2024-11-06T16:00:00	3	Temperatura mínima	17.1
149308	7	Sololá	701	Sololá	2	El tablón	4	Abril	2023-04-19T00:00:00	2024-11-06T16:00:00	5	Humedad	83
149309	7	Sololá	701	Sololá	2	El tablón	4	Abril	2023-04-19T00:00:00	2024-11-06T16:00:00	6	Velocidad del viento	8
149310	7	Sololá	701	Sololá	2	El tablón	4	Abril	2023-04-19T00:00:00	2024-11-06T16:00:00	7	Dirección del viento	8.05
149311	7	Sololá	701	Sololá	2	El tablón	4	Abril	2023-04-19T00:00:00	2024-11-06T16:00:00	1	Precipitación	0
149312	7	Sololá	701	Sololá	2	El tablón	4	Abril	2023-04-19T00:00:00	2024-11-06T16:00:00	8	Radiación solar	468
149313	7	Sololá	701	Sololá	2	El tablón	4	Abril	2023-04-19T00:00:00	2024-11-06T17:00:00	2	Temperatura media	15.9
149314	7	Sololá	701	Sololá	2	El tablón	4	Abril	2023-04-19T00:00:00	2024-11-06T17:00:00	4	Temperatura máxima	17.6
149315	7	Sololá	701	Sololá	2	El tablón	4	Abril	2023-04-19T00:00:00	2024-11-06T17:00:00	3	Temperatura mínima	15.9
149316	7	Sololá	701	Sololá	2	El tablón	4	Abril	2023-04-19T00:00:00	2024-11-06T17:00:00	5	Humedad	87
149317	7	Sololá	701	Sololá	2	El tablón	4	Abril	2023-04-19T00:00:00	2024-11-06T17:00:00	6	Velocidad del viento	6.4
149318	7	Sololá	701	Sololá	2	El tablón	4	Abril	2023-04-19T00:00:00	2024-11-06T17:00:00	7	Dirección del viento	6.44
149319	7	Sololá	701	Sololá	2	El tablón	4	Abril	2023-04-19T00:00:00	2024-11-06T17:00:00	1	Precipitación	0
149320	7	Sololá	701	Sololá	2	El tablón	4	Abril	2023-04-19T00:00:00	2024-11-06T17:00:00	8	Radiación solar	209
149321	7	Sololá	701	Sololá	2	El tablón	4	Abril	2023-04-19T00:00:00	2024-11-06T18:00:00	2	Temperatura media	15.6
149322	7	Sololá	701	Sololá	2	El tablón	4	Abril	2023-04-19T00:00:00	2024-11-06T18:00:00	4	Temperatura máxima	16
149323	7	Sololá	701	Sololá	2	El tablón	4	Abril	2023-04-19T00:00:00	2024-11-06T18:00:00	3	Temperatura mínima	15.6
149324	7	Sololá	701	Sololá	2	El tablón	4	Abril	2023-04-19T00:00:00	2024-11-06T18:00:00	5	Humedad	85
149325	7	Sololá	701	Sololá	2	El tablón	4	Abril	2023-04-19T00:00:00	2024-11-06T18:00:00	6	Velocidad del viento	1.6
149326	7	Sololá	701	Sololá	2	El tablón	4	Abril	2023-04-19T00:00:00	2024-11-06T18:00:00	7	Dirección del viento	1.61
149327	7	Sololá	701	Sololá	2	El tablón	4	Abril	2023-04-19T00:00:00	2024-11-06T18:00:00	1	Precipitación	0
149328	7	Sololá	701	Sololá	2	El tablón	4	Abril	2023-04-19T00:00:00	2024-11-06T18:00:00	8	Radiación solar	48
149329	7	Sololá	701	Sololá	2	El tablón	4	Abril	2023-04-19T00:00:00	2024-11-06T19:00:00	2	Temperatura media	14.9
149330	7	Sololá	701	Sololá	2	El tablón	4	Abril	2023-04-19T00:00:00	2024-11-06T19:00:00	4	Temperatura máxima	15.7
149331	7	Sololá	701	Sololá	2	El tablón	4	Abril	2023-04-19T00:00:00	2024-11-06T19:00:00	3	Temperatura mínima	14.9
149332	7	Sololá	701	Sololá	2	El tablón	4	Abril	2023-04-19T00:00:00	2024-11-06T19:00:00	5	Humedad	88
149333	7	Sololá	701	Sololá	2	El tablón	4	Abril	2023-04-19T00:00:00	2024-11-06T19:00:00	6	Velocidad del viento	1.6
149334	7	Sololá	701	Sololá	2	El tablón	4	Abril	2023-04-19T00:00:00	2024-11-06T19:00:00	7	Dirección del viento	1.61
149335	7	Sololá	701	Sololá	2	El tablón	4	Abril	2023-04-19T00:00:00	2024-11-06T19:00:00	1	Precipitación	0
149336	7	Sololá	701	Sololá	2	El tablón	4	Abril	2023-04-19T00:00:00	2024-11-06T19:00:00	8	Radiación solar	0
149337	7	Sololá	701	Sololá	2	El tablón	4	Abril	2023-04-19T00:00:00	2024-11-06T20:00:00	2	Temperatura media	14.9
149338	7	Sololá	701	Sololá	2	El tablón	4	Abril	2023-04-19T00:00:00	2024-11-06T20:00:00	4	Temperatura máxima	14.9
149339	7	Sololá	701	Sololá	2	El tablón	4	Abril	2023-04-19T00:00:00	2024-11-06T20:00:00	3	Temperatura mínima	14.8
149340	7	Sololá	701	Sololá	2	El tablón	4	Abril	2023-04-19T00:00:00	2024-11-06T20:00:00	5	Humedad	88
149341	7	Sololá	701	Sololá	2	El tablón	4	Abril	2023-04-19T00:00:00	2024-11-06T20:00:00	6	Velocidad del viento	1.6
149342	7	Sololá	701	Sololá	2	El tablón	4	Abril	2023-04-19T00:00:00	2024-11-06T20:00:00	7	Dirección del viento	1.61
149343	7	Sololá	701	Sololá	2	El tablón	4	Abril	2023-04-19T00:00:00	2024-11-06T20:00:00	1	Precipitación	0
149344	7	Sololá	701	Sololá	2	El tablón	4	Abril	2023-04-19T00:00:00	2024-11-06T20:00:00	8	Radiación solar	0
149345	7	Sololá	701	Sololá	2	El tablón	4	Abril	2023-04-19T00:00:00	2024-11-06T21:00:00	2	Temperatura media	14.9
149346	7	Sololá	701	Sololá	2	El tablón	4	Abril	2023-04-19T00:00:00	2024-11-06T21:00:00	4	Temperatura máxima	15.2
149347	7	Sololá	701	Sololá	2	El tablón	4	Abril	2023-04-19T00:00:00	2024-11-06T21:00:00	3	Temperatura mínima	14.9
149348	7	Sololá	701	Sololá	2	El tablón	4	Abril	2023-04-19T00:00:00	2024-11-06T21:00:00	5	Humedad	79
149349	7	Sololá	701	Sololá	2	El tablón	4	Abril	2023-04-19T00:00:00	2024-11-06T21:00:00	6	Velocidad del viento	3.2
149350	7	Sololá	701	Sololá	2	El tablón	4	Abril	2023-04-19T00:00:00	2024-11-06T21:00:00	7	Dirección del viento	3.22
149351	7	Sololá	701	Sololá	2	El tablón	4	Abril	2023-04-19T00:00:00	2024-11-06T21:00:00	1	Precipitación	0
149352	7	Sololá	701	Sololá	2	El tablón	4	Abril	2023-04-19T00:00:00	2024-11-06T21:00:00	8	Radiación solar	0
149353	7	Sololá	701	Sololá	2	El tablón	4	Abril	2023-04-19T00:00:00	2024-11-06T22:00:00	2	Temperatura media	14.4
149354	7	Sololá	701	Sololá	2	El tablón	4	Abril	2023-04-19T00:00:00	2024-11-06T22:00:00	4	Temperatura máxima	14.9
149355	7	Sololá	701	Sololá	2	El tablón	4	Abril	2023-04-19T00:00:00	2024-11-06T22:00:00	3	Temperatura mínima	14.4
149356	7	Sololá	701	Sololá	2	El tablón	4	Abril	2023-04-19T00:00:00	2024-11-06T22:00:00	5	Humedad	81
149357	7	Sololá	701	Sololá	2	El tablón	4	Abril	2023-04-19T00:00:00	2024-11-06T22:00:00	6	Velocidad del viento	3.2
149358	7	Sololá	701	Sololá	2	El tablón	4	Abril	2023-04-19T00:00:00	2024-11-06T22:00:00	7	Dirección del viento	3.22
149359	7	Sololá	701	Sololá	2	El tablón	4	Abril	2023-04-19T00:00:00	2024-11-06T22:00:00	1	Precipitación	0
149360	7	Sololá	701	Sololá	2	El tablón	4	Abril	2023-04-19T00:00:00	2024-11-06T22:00:00	8	Radiación solar	0
149361	7	Sololá	701	Sololá	2	El tablón	4	Abril	2023-04-19T00:00:00	2024-11-06T23:00:00	2	Temperatura media	13.6
149362	7	Sololá	701	Sololá	2	El tablón	4	Abril	2023-04-19T00:00:00	2024-11-06T23:00:00	4	Temperatura máxima	14.4
149363	7	Sololá	701	Sololá	2	El tablón	4	Abril	2023-04-19T00:00:00	2024-11-06T23:00:00	3	Temperatura mínima	13.5
149364	7	Sololá	701	Sololá	2	El tablón	4	Abril	2023-04-19T00:00:00	2024-11-06T23:00:00	5	Humedad	85
149365	7	Sololá	701	Sololá	2	El tablón	4	Abril	2023-04-19T00:00:00	2024-11-06T23:00:00	6	Velocidad del viento	4.8
149366	7	Sololá	701	Sololá	2	El tablón	4	Abril	2023-04-19T00:00:00	2024-11-06T23:00:00	7	Dirección del viento	4.83
149367	7	Sololá	701	Sololá	2	El tablón	4	Abril	2023-04-19T00:00:00	2024-11-06T23:00:00	1	Precipitación	0
149368	7	Sololá	701	Sololá	2	El tablón	4	Abril	2023-04-19T00:00:00	2024-11-06T23:00:00	8	Radiación solar	0
149369	7	Sololá	701	Sololá	2	El tablón	4	Abril	2023-04-20T00:00:00	2024-11-06T00:00:00	2	Temperatura media	13.1
149370	7	Sololá	701	Sololá	2	El tablón	4	Abril	2023-04-20T00:00:00	2024-11-06T00:00:00	4	Temperatura máxima	13.6
149371	7	Sololá	701	Sololá	2	El tablón	4	Abril	2023-04-20T00:00:00	2024-11-06T00:00:00	3	Temperatura mínima	13.1
149372	7	Sololá	701	Sololá	2	El tablón	4	Abril	2023-04-20T00:00:00	2024-11-06T00:00:00	5	Humedad	87
149373	7	Sololá	701	Sololá	2	El tablón	4	Abril	2023-04-20T00:00:00	2024-11-06T00:00:00	6	Velocidad del viento	4.8
149374	7	Sololá	701	Sololá	2	El tablón	4	Abril	2023-04-20T00:00:00	2024-11-06T00:00:00	7	Dirección del viento	4.83
149375	7	Sololá	701	Sololá	2	El tablón	4	Abril	2023-04-20T00:00:00	2024-11-06T00:00:00	1	Precipitación	0
149376	7	Sololá	701	Sololá	2	El tablón	4	Abril	2023-04-20T00:00:00	2024-11-06T00:00:00	8	Radiación solar	0
149377	7	Sololá	701	Sololá	2	El tablón	4	Abril	2023-04-20T00:00:00	2024-11-06T01:00:00	2	Temperatura media	12.7
149378	7	Sololá	701	Sololá	2	El tablón	4	Abril	2023-04-20T00:00:00	2024-11-06T01:00:00	4	Temperatura máxima	13.1
149379	7	Sololá	701	Sololá	2	El tablón	4	Abril	2023-04-20T00:00:00	2024-11-06T01:00:00	3	Temperatura mínima	12.7
149380	7	Sololá	701	Sololá	2	El tablón	4	Abril	2023-04-20T00:00:00	2024-11-06T01:00:00	5	Humedad	87
149381	7	Sololá	701	Sololá	2	El tablón	4	Abril	2023-04-20T00:00:00	2024-11-06T01:00:00	6	Velocidad del viento	3.2
149382	7	Sololá	701	Sololá	2	El tablón	4	Abril	2023-04-20T00:00:00	2024-11-06T01:00:00	7	Dirección del viento	3.22
149383	7	Sololá	701	Sololá	2	El tablón	4	Abril	2023-04-20T00:00:00	2024-11-06T01:00:00	1	Precipitación	0
149384	7	Sololá	701	Sololá	2	El tablón	4	Abril	2023-04-20T00:00:00	2024-11-06T01:00:00	8	Radiación solar	0
149385	7	Sololá	701	Sololá	2	El tablón	4	Abril	2023-04-20T00:00:00	2024-11-06T02:00:00	2	Temperatura media	11.8
149386	7	Sololá	701	Sololá	2	El tablón	4	Abril	2023-04-20T00:00:00	2024-11-06T02:00:00	4	Temperatura máxima	12.7
149387	7	Sololá	701	Sololá	2	El tablón	4	Abril	2023-04-20T00:00:00	2024-11-06T02:00:00	3	Temperatura mínima	11.8
149388	7	Sololá	701	Sololá	2	El tablón	4	Abril	2023-04-20T00:00:00	2024-11-06T02:00:00	5	Humedad	87
149389	7	Sololá	701	Sololá	2	El tablón	4	Abril	2023-04-20T00:00:00	2024-11-06T02:00:00	6	Velocidad del viento	1.6
149390	7	Sololá	701	Sololá	2	El tablón	4	Abril	2023-04-20T00:00:00	2024-11-06T02:00:00	7	Dirección del viento	1.61
149391	7	Sololá	701	Sololá	2	El tablón	4	Abril	2023-04-20T00:00:00	2024-11-06T02:00:00	1	Precipitación	0
149392	7	Sololá	701	Sololá	2	El tablón	4	Abril	2023-04-20T00:00:00	2024-11-06T02:00:00	8	Radiación solar	0
149393	7	Sololá	701	Sololá	2	El tablón	4	Abril	2023-04-20T00:00:00	2024-11-06T03:00:00	2	Temperatura media	11.5
149394	7	Sololá	701	Sololá	2	El tablón	4	Abril	2023-04-20T00:00:00	2024-11-06T03:00:00	4	Temperatura máxima	11.8
149395	7	Sololá	701	Sololá	2	El tablón	4	Abril	2023-04-20T00:00:00	2024-11-06T03:00:00	3	Temperatura mínima	11.5
149396	7	Sololá	701	Sololá	2	El tablón	4	Abril	2023-04-20T00:00:00	2024-11-06T03:00:00	5	Humedad	82
149397	7	Sololá	701	Sololá	2	El tablón	4	Abril	2023-04-20T00:00:00	2024-11-06T03:00:00	6	Velocidad del viento	6.4
149398	7	Sololá	701	Sololá	2	El tablón	4	Abril	2023-04-20T00:00:00	2024-11-06T03:00:00	7	Dirección del viento	6.44
149399	7	Sololá	701	Sololá	2	El tablón	4	Abril	2023-04-20T00:00:00	2024-11-06T03:00:00	1	Precipitación	0
149400	7	Sololá	701	Sololá	2	El tablón	4	Abril	2023-04-20T00:00:00	2024-11-06T03:00:00	8	Radiación solar	0
149401	7	Sololá	701	Sololá	2	El tablón	4	Abril	2023-04-20T00:00:00	2024-11-06T04:00:00	2	Temperatura media	10.4
149402	7	Sololá	701	Sololá	2	El tablón	4	Abril	2023-04-20T00:00:00	2024-11-06T04:00:00	4	Temperatura máxima	11.6
149403	7	Sololá	701	Sololá	2	El tablón	4	Abril	2023-04-20T00:00:00	2024-11-06T04:00:00	3	Temperatura mínima	10.4
149404	7	Sololá	701	Sololá	2	El tablón	4	Abril	2023-04-20T00:00:00	2024-11-06T04:00:00	5	Humedad	80
149405	7	Sololá	701	Sololá	2	El tablón	4	Abril	2023-04-20T00:00:00	2024-11-06T04:00:00	6	Velocidad del viento	3.2
149406	7	Sololá	701	Sololá	2	El tablón	4	Abril	2023-04-20T00:00:00	2024-11-06T04:00:00	7	Dirección del viento	3.22
149407	7	Sololá	701	Sololá	2	El tablón	4	Abril	2023-04-20T00:00:00	2024-11-06T04:00:00	1	Precipitación	0
149408	7	Sololá	701	Sololá	2	El tablón	4	Abril	2023-04-20T00:00:00	2024-11-06T04:00:00	8	Radiación solar	0
149409	7	Sololá	701	Sololá	2	El tablón	4	Abril	2023-04-20T00:00:00	2024-11-06T05:00:00	2	Temperatura media	10.4
149410	7	Sololá	701	Sololá	2	El tablón	4	Abril	2023-04-20T00:00:00	2024-11-06T05:00:00	4	Temperatura máxima	10.4
149411	7	Sololá	701	Sololá	2	El tablón	4	Abril	2023-04-20T00:00:00	2024-11-06T05:00:00	3	Temperatura mínima	9.6
149412	7	Sololá	701	Sololá	2	El tablón	4	Abril	2023-04-20T00:00:00	2024-11-06T05:00:00	5	Humedad	69
149413	7	Sololá	701	Sololá	2	El tablón	4	Abril	2023-04-20T00:00:00	2024-11-06T05:00:00	6	Velocidad del viento	3.2
149414	7	Sololá	701	Sololá	2	El tablón	4	Abril	2023-04-20T00:00:00	2024-11-06T05:00:00	7	Dirección del viento	3.22
149415	7	Sololá	701	Sololá	2	El tablón	4	Abril	2023-04-20T00:00:00	2024-11-06T05:00:00	1	Precipitación	0
149416	7	Sololá	701	Sololá	2	El tablón	4	Abril	2023-04-20T00:00:00	2024-11-06T05:00:00	8	Radiación solar	0
149417	7	Sololá	701	Sololá	2	El tablón	4	Abril	2023-04-20T00:00:00	2024-11-06T06:00:00	2	Temperatura media	9.5
149418	7	Sololá	701	Sololá	2	El tablón	4	Abril	2023-04-20T00:00:00	2024-11-06T06:00:00	4	Temperatura máxima	10.9
149419	7	Sololá	701	Sololá	2	El tablón	4	Abril	2023-04-20T00:00:00	2024-11-06T06:00:00	3	Temperatura mínima	9.1
149420	7	Sololá	701	Sololá	2	El tablón	4	Abril	2023-04-20T00:00:00	2024-11-06T06:00:00	5	Humedad	68
149421	7	Sololá	701	Sololá	2	El tablón	4	Abril	2023-04-20T00:00:00	2024-11-06T06:00:00	6	Velocidad del viento	3.2
149422	7	Sololá	701	Sololá	2	El tablón	4	Abril	2023-04-20T00:00:00	2024-11-06T06:00:00	7	Dirección del viento	3.22
149423	7	Sololá	701	Sololá	2	El tablón	4	Abril	2023-04-20T00:00:00	2024-11-06T06:00:00	1	Precipitación	0
149424	7	Sololá	701	Sololá	2	El tablón	4	Abril	2023-04-20T00:00:00	2024-11-06T06:00:00	8	Radiación solar	0
149425	7	Sololá	701	Sololá	2	El tablón	4	Abril	2023-04-20T00:00:00	2024-11-06T07:00:00	2	Temperatura media	10.4
149426	7	Sololá	701	Sololá	2	El tablón	4	Abril	2023-04-20T00:00:00	2024-11-06T07:00:00	4	Temperatura máxima	10.4
149427	7	Sololá	701	Sololá	2	El tablón	4	Abril	2023-04-20T00:00:00	2024-11-06T07:00:00	3	Temperatura mínima	9.1
149428	7	Sololá	701	Sololá	2	El tablón	4	Abril	2023-04-20T00:00:00	2024-11-06T07:00:00	5	Humedad	65
149429	7	Sololá	701	Sololá	2	El tablón	4	Abril	2023-04-20T00:00:00	2024-11-06T07:00:00	6	Velocidad del viento	3.2
149430	7	Sololá	701	Sololá	2	El tablón	4	Abril	2023-04-20T00:00:00	2024-11-06T07:00:00	7	Dirección del viento	3.22
149431	7	Sololá	701	Sololá	2	El tablón	4	Abril	2023-04-20T00:00:00	2024-11-06T07:00:00	1	Precipitación	0
149432	7	Sololá	701	Sololá	2	El tablón	4	Abril	2023-04-20T00:00:00	2024-11-06T07:00:00	8	Radiación solar	54
149433	7	Sololá	701	Sololá	2	El tablón	4	Abril	2023-04-20T00:00:00	2024-11-06T08:00:00	2	Temperatura media	14
149434	7	Sololá	701	Sololá	2	El tablón	4	Abril	2023-04-20T00:00:00	2024-11-06T08:00:00	4	Temperatura máxima	14
149435	7	Sololá	701	Sololá	2	El tablón	4	Abril	2023-04-20T00:00:00	2024-11-06T08:00:00	3	Temperatura mínima	10.4
149436	7	Sololá	701	Sololá	2	El tablón	4	Abril	2023-04-20T00:00:00	2024-11-06T08:00:00	5	Humedad	61
149437	7	Sololá	701	Sololá	2	El tablón	4	Abril	2023-04-20T00:00:00	2024-11-06T08:00:00	6	Velocidad del viento	1.6
149438	7	Sololá	701	Sololá	2	El tablón	4	Abril	2023-04-20T00:00:00	2024-11-06T08:00:00	7	Dirección del viento	1.61
149439	7	Sololá	701	Sololá	2	El tablón	4	Abril	2023-04-20T00:00:00	2024-11-06T08:00:00	1	Precipitación	0
149440	7	Sololá	701	Sololá	2	El tablón	4	Abril	2023-04-20T00:00:00	2024-11-06T08:00:00	8	Radiación solar	224
149441	7	Sololá	701	Sololá	2	El tablón	4	Abril	2023-04-20T00:00:00	2024-11-06T09:00:00	2	Temperatura media	15.4
149442	7	Sololá	701	Sololá	2	El tablón	4	Abril	2023-04-20T00:00:00	2024-11-06T09:00:00	4	Temperatura máxima	15.7
149443	7	Sololá	701	Sololá	2	El tablón	4	Abril	2023-04-20T00:00:00	2024-11-06T09:00:00	3	Temperatura mínima	14
149444	7	Sololá	701	Sololá	2	El tablón	4	Abril	2023-04-20T00:00:00	2024-11-06T09:00:00	5	Humedad	55
149445	7	Sololá	701	Sololá	2	El tablón	4	Abril	2023-04-20T00:00:00	2024-11-06T09:00:00	6	Velocidad del viento	3.2
149446	7	Sololá	701	Sololá	2	El tablón	4	Abril	2023-04-20T00:00:00	2024-11-06T09:00:00	7	Dirección del viento	3.22
149447	7	Sololá	701	Sololá	2	El tablón	4	Abril	2023-04-20T00:00:00	2024-11-06T09:00:00	1	Precipitación	0
149448	7	Sololá	701	Sololá	2	El tablón	4	Abril	2023-04-20T00:00:00	2024-11-06T09:00:00	8	Radiación solar	411
149449	7	Sololá	701	Sololá	2	El tablón	4	Abril	2023-04-20T00:00:00	2024-11-06T10:00:00	2	Temperatura media	16.8
149450	7	Sololá	701	Sololá	2	El tablón	4	Abril	2023-04-20T00:00:00	2024-11-06T10:00:00	4	Temperatura máxima	16.8
149451	7	Sololá	701	Sololá	2	El tablón	4	Abril	2023-04-20T00:00:00	2024-11-06T10:00:00	3	Temperatura mínima	15.4
149452	7	Sololá	701	Sololá	2	El tablón	4	Abril	2023-04-20T00:00:00	2024-11-06T10:00:00	5	Humedad	63
149453	7	Sololá	701	Sololá	2	El tablón	4	Abril	2023-04-20T00:00:00	2024-11-06T10:00:00	6	Velocidad del viento	3.2
149454	7	Sololá	701	Sololá	2	El tablón	4	Abril	2023-04-20T00:00:00	2024-11-06T10:00:00	7	Dirección del viento	3.22
149455	7	Sololá	701	Sololá	2	El tablón	4	Abril	2023-04-20T00:00:00	2024-11-06T10:00:00	1	Precipitación	0
149456	7	Sololá	701	Sololá	2	El tablón	4	Abril	2023-04-20T00:00:00	2024-11-06T10:00:00	8	Radiación solar	577
149457	7	Sololá	701	Sololá	2	El tablón	4	Abril	2023-04-20T00:00:00	2024-11-06T11:00:00	2	Temperatura media	16.1
149458	7	Sololá	701	Sololá	2	El tablón	4	Abril	2023-04-20T00:00:00	2024-11-06T11:00:00	4	Temperatura máxima	16.9
149459	7	Sololá	701	Sololá	2	El tablón	4	Abril	2023-04-20T00:00:00	2024-11-06T11:00:00	3	Temperatura mínima	16.1
149460	7	Sololá	701	Sololá	2	El tablón	4	Abril	2023-04-20T00:00:00	2024-11-06T11:00:00	5	Humedad	69
149461	7	Sololá	701	Sololá	2	El tablón	4	Abril	2023-04-20T00:00:00	2024-11-06T11:00:00	6	Velocidad del viento	8
149462	7	Sololá	701	Sololá	2	El tablón	4	Abril	2023-04-20T00:00:00	2024-11-06T11:00:00	7	Dirección del viento	8.05
149463	7	Sololá	701	Sololá	2	El tablón	4	Abril	2023-04-20T00:00:00	2024-11-06T11:00:00	1	Precipitación	0
149464	7	Sololá	701	Sololá	2	El tablón	4	Abril	2023-04-20T00:00:00	2024-11-06T11:00:00	8	Radiación solar	633
149465	7	Sololá	701	Sololá	2	El tablón	4	Abril	2023-04-20T00:00:00	2024-11-06T12:00:00	2	Temperatura media	16.1
149466	7	Sololá	701	Sololá	2	El tablón	4	Abril	2023-04-20T00:00:00	2024-11-06T12:00:00	4	Temperatura máxima	17.3
149467	7	Sololá	701	Sololá	2	El tablón	4	Abril	2023-04-20T00:00:00	2024-11-06T12:00:00	3	Temperatura mínima	16.1
149468	7	Sololá	701	Sololá	2	El tablón	4	Abril	2023-04-20T00:00:00	2024-11-06T12:00:00	5	Humedad	75
149469	7	Sololá	701	Sololá	2	El tablón	4	Abril	2023-04-20T00:00:00	2024-11-06T12:00:00	6	Velocidad del viento	6.4
149470	7	Sololá	701	Sololá	2	El tablón	4	Abril	2023-04-20T00:00:00	2024-11-06T12:00:00	7	Dirección del viento	6.44
149471	7	Sololá	701	Sololá	2	El tablón	4	Abril	2023-04-20T00:00:00	2024-11-06T12:00:00	1	Precipitación	0
149472	7	Sololá	701	Sololá	2	El tablón	4	Abril	2023-04-20T00:00:00	2024-11-06T12:00:00	8	Radiación solar	608
149473	7	Sololá	701	Sololá	2	El tablón	4	Abril	2023-04-20T00:00:00	2024-11-06T13:00:00	2	Temperatura media	18.1
149474	7	Sololá	701	Sololá	2	El tablón	4	Abril	2023-04-20T00:00:00	2024-11-06T13:00:00	4	Temperatura máxima	18.1
149475	7	Sololá	701	Sololá	2	El tablón	4	Abril	2023-04-20T00:00:00	2024-11-06T13:00:00	3	Temperatura mínima	16.1
149476	7	Sololá	701	Sololá	2	El tablón	4	Abril	2023-04-20T00:00:00	2024-11-06T13:00:00	5	Humedad	72
149477	7	Sololá	701	Sololá	2	El tablón	4	Abril	2023-04-20T00:00:00	2024-11-06T13:00:00	6	Velocidad del viento	6.4
149478	7	Sololá	701	Sololá	2	El tablón	4	Abril	2023-04-20T00:00:00	2024-11-06T13:00:00	7	Dirección del viento	6.44
149479	7	Sololá	701	Sololá	2	El tablón	4	Abril	2023-04-20T00:00:00	2024-11-06T13:00:00	1	Precipitación	0
149480	7	Sololá	701	Sololá	2	El tablón	4	Abril	2023-04-20T00:00:00	2024-11-06T13:00:00	8	Radiación solar	697
149481	7	Sololá	701	Sololá	2	El tablón	4	Abril	2023-04-20T00:00:00	2024-11-06T14:00:00	2	Temperatura media	18.1
149482	7	Sololá	701	Sololá	2	El tablón	4	Abril	2023-04-20T00:00:00	2024-11-06T14:00:00	4	Temperatura máxima	18.7
149483	7	Sololá	701	Sololá	2	El tablón	4	Abril	2023-04-20T00:00:00	2024-11-06T14:00:00	3	Temperatura mínima	17.8
149484	7	Sololá	701	Sololá	2	El tablón	4	Abril	2023-04-20T00:00:00	2024-11-06T14:00:00	5	Humedad	76
149485	7	Sololá	701	Sololá	2	El tablón	4	Abril	2023-04-20T00:00:00	2024-11-06T14:00:00	6	Velocidad del viento	9.7
149486	7	Sololá	701	Sololá	2	El tablón	4	Abril	2023-04-20T00:00:00	2024-11-06T14:00:00	7	Dirección del viento	9.66
149487	7	Sololá	701	Sololá	2	El tablón	4	Abril	2023-04-20T00:00:00	2024-11-06T14:00:00	1	Precipitación	0
149488	7	Sololá	701	Sololá	2	El tablón	4	Abril	2023-04-20T00:00:00	2024-11-06T14:00:00	8	Radiación solar	777
149489	7	Sololá	701	Sololá	2	El tablón	4	Abril	2023-04-20T00:00:00	2024-11-06T15:00:00	2	Temperatura media	17.9
149490	7	Sololá	701	Sololá	2	El tablón	4	Abril	2023-04-20T00:00:00	2024-11-06T15:00:00	4	Temperatura máxima	18.3
149491	7	Sololá	701	Sololá	2	El tablón	4	Abril	2023-04-20T00:00:00	2024-11-06T15:00:00	3	Temperatura mínima	17.7
149492	7	Sololá	701	Sololá	2	El tablón	4	Abril	2023-04-20T00:00:00	2024-11-06T15:00:00	5	Humedad	80
149493	7	Sololá	701	Sololá	2	El tablón	4	Abril	2023-04-20T00:00:00	2024-11-06T15:00:00	6	Velocidad del viento	9.7
149494	7	Sololá	701	Sololá	2	El tablón	4	Abril	2023-04-20T00:00:00	2024-11-06T15:00:00	7	Dirección del viento	9.66
149495	7	Sololá	701	Sololá	2	El tablón	4	Abril	2023-04-20T00:00:00	2024-11-06T15:00:00	1	Precipitación	0
149496	7	Sololá	701	Sololá	2	El tablón	4	Abril	2023-04-20T00:00:00	2024-11-06T15:00:00	8	Radiación solar	670
149497	7	Sololá	701	Sololá	2	El tablón	4	Abril	2023-04-20T00:00:00	2024-11-06T16:00:00	2	Temperatura media	16.2
149498	7	Sololá	701	Sololá	2	El tablón	4	Abril	2023-04-20T00:00:00	2024-11-06T16:00:00	4	Temperatura máxima	17.9
149499	7	Sololá	701	Sololá	2	El tablón	4	Abril	2023-04-20T00:00:00	2024-11-06T16:00:00	3	Temperatura mínima	16.2
149500	7	Sololá	701	Sololá	2	El tablón	4	Abril	2023-04-20T00:00:00	2024-11-06T16:00:00	5	Humedad	87
149501	7	Sololá	701	Sololá	2	El tablón	4	Abril	2023-04-20T00:00:00	2024-11-06T16:00:00	6	Velocidad del viento	9.7
149502	7	Sololá	701	Sololá	2	El tablón	4	Abril	2023-04-20T00:00:00	2024-11-06T16:00:00	7	Dirección del viento	9.66
149503	7	Sololá	701	Sololá	2	El tablón	4	Abril	2023-04-20T00:00:00	2024-11-06T16:00:00	1	Precipitación	0
149504	7	Sololá	701	Sololá	2	El tablón	4	Abril	2023-04-20T00:00:00	2024-11-06T16:00:00	8	Radiación solar	469
149505	7	Sololá	701	Sololá	2	El tablón	4	Abril	2023-04-20T00:00:00	2024-11-06T17:00:00	2	Temperatura media	15.8
149506	7	Sololá	701	Sololá	2	El tablón	4	Abril	2023-04-20T00:00:00	2024-11-06T17:00:00	4	Temperatura máxima	16.2
149507	7	Sololá	701	Sololá	2	El tablón	4	Abril	2023-04-20T00:00:00	2024-11-06T17:00:00	3	Temperatura mínima	15.7
149508	7	Sololá	701	Sololá	2	El tablón	4	Abril	2023-04-20T00:00:00	2024-11-06T17:00:00	5	Humedad	87
149509	7	Sololá	701	Sololá	2	El tablón	4	Abril	2023-04-20T00:00:00	2024-11-06T17:00:00	6	Velocidad del viento	4.8
149510	7	Sololá	701	Sololá	2	El tablón	4	Abril	2023-04-20T00:00:00	2024-11-06T17:00:00	7	Dirección del viento	4.83
149511	7	Sololá	701	Sololá	2	El tablón	4	Abril	2023-04-20T00:00:00	2024-11-06T17:00:00	1	Precipitación	0
149512	7	Sololá	701	Sololá	2	El tablón	4	Abril	2023-04-20T00:00:00	2024-11-06T17:00:00	8	Radiación solar	148
149513	7	Sololá	701	Sololá	2	El tablón	4	Abril	2023-04-20T00:00:00	2024-11-06T18:00:00	2	Temperatura media	15.1
149514	7	Sololá	701	Sololá	2	El tablón	4	Abril	2023-04-20T00:00:00	2024-11-06T18:00:00	4	Temperatura máxima	15.8
149515	7	Sololá	701	Sololá	2	El tablón	4	Abril	2023-04-20T00:00:00	2024-11-06T18:00:00	3	Temperatura mínima	15.1
149516	7	Sololá	701	Sololá	2	El tablón	4	Abril	2023-04-20T00:00:00	2024-11-06T18:00:00	5	Humedad	88
149517	7	Sololá	701	Sololá	2	El tablón	4	Abril	2023-04-20T00:00:00	2024-11-06T18:00:00	6	Velocidad del viento	3.2
149518	7	Sololá	701	Sololá	2	El tablón	4	Abril	2023-04-20T00:00:00	2024-11-06T18:00:00	7	Dirección del viento	3.22
149519	7	Sololá	701	Sololá	2	El tablón	4	Abril	2023-04-20T00:00:00	2024-11-06T18:00:00	1	Precipitación	0
149520	7	Sololá	701	Sololá	2	El tablón	4	Abril	2023-04-20T00:00:00	2024-11-06T18:00:00	8	Radiación solar	68
149521	7	Sololá	701	Sololá	2	El tablón	4	Abril	2023-04-20T00:00:00	2024-11-06T19:00:00	2	Temperatura media	14.8
149522	7	Sololá	701	Sololá	2	El tablón	4	Abril	2023-04-20T00:00:00	2024-11-06T19:00:00	4	Temperatura máxima	15.1
149523	7	Sololá	701	Sololá	2	El tablón	4	Abril	2023-04-20T00:00:00	2024-11-06T19:00:00	3	Temperatura mínima	14.7
149524	7	Sololá	701	Sololá	2	El tablón	4	Abril	2023-04-20T00:00:00	2024-11-06T19:00:00	5	Humedad	88
149525	7	Sololá	701	Sololá	2	El tablón	4	Abril	2023-04-20T00:00:00	2024-11-06T19:00:00	6	Velocidad del viento	1.6
149526	7	Sololá	701	Sololá	2	El tablón	4	Abril	2023-04-20T00:00:00	2024-11-06T19:00:00	7	Dirección del viento	1.61
149527	7	Sololá	701	Sololá	2	El tablón	4	Abril	2023-04-20T00:00:00	2024-11-06T19:00:00	1	Precipitación	0
149528	7	Sololá	701	Sololá	2	El tablón	4	Abril	2023-04-20T00:00:00	2024-11-06T19:00:00	8	Radiación solar	0
149529	7	Sololá	701	Sololá	2	El tablón	4	Abril	2023-04-20T00:00:00	2024-11-06T20:00:00	2	Temperatura media	14.2
149530	7	Sololá	701	Sololá	2	El tablón	4	Abril	2023-04-20T00:00:00	2024-11-06T20:00:00	4	Temperatura máxima	14.8
149531	7	Sololá	701	Sololá	2	El tablón	4	Abril	2023-04-20T00:00:00	2024-11-06T20:00:00	3	Temperatura mínima	14.2
149532	7	Sololá	701	Sololá	2	El tablón	4	Abril	2023-04-20T00:00:00	2024-11-06T20:00:00	5	Humedad	89
149533	7	Sololá	701	Sololá	2	El tablón	4	Abril	2023-04-20T00:00:00	2024-11-06T20:00:00	6	Velocidad del viento	0
149534	7	Sololá	701	Sololá	2	El tablón	4	Abril	2023-04-20T00:00:00	2024-11-06T20:00:00	7	Dirección del viento	0
149535	7	Sololá	701	Sololá	2	El tablón	4	Abril	2023-04-20T00:00:00	2024-11-06T20:00:00	1	Precipitación	0
149536	7	Sololá	701	Sololá	2	El tablón	4	Abril	2023-04-20T00:00:00	2024-11-06T20:00:00	8	Radiación solar	0
149537	7	Sololá	701	Sololá	2	El tablón	4	Abril	2023-04-20T00:00:00	2024-11-06T21:00:00	2	Temperatura media	13.7
149538	7	Sololá	701	Sololá	2	El tablón	4	Abril	2023-04-20T00:00:00	2024-11-06T21:00:00	4	Temperatura máxima	14.2
149539	7	Sololá	701	Sololá	2	El tablón	4	Abril	2023-04-20T00:00:00	2024-11-06T21:00:00	3	Temperatura mínima	13.4
149540	7	Sololá	701	Sololá	2	El tablón	4	Abril	2023-04-20T00:00:00	2024-11-06T21:00:00	5	Humedad	85
149541	7	Sololá	701	Sololá	2	El tablón	4	Abril	2023-04-20T00:00:00	2024-11-06T21:00:00	6	Velocidad del viento	1.6
149542	7	Sololá	701	Sololá	2	El tablón	4	Abril	2023-04-20T00:00:00	2024-11-06T21:00:00	7	Dirección del viento	1.61
149543	7	Sololá	701	Sololá	2	El tablón	4	Abril	2023-04-20T00:00:00	2024-11-06T21:00:00	1	Precipitación	0
149544	7	Sololá	701	Sololá	2	El tablón	4	Abril	2023-04-20T00:00:00	2024-11-06T21:00:00	8	Radiación solar	0
149545	7	Sololá	701	Sololá	2	El tablón	4	Abril	2023-04-20T00:00:00	2024-11-06T22:00:00	2	Temperatura media	13.6
149546	7	Sololá	701	Sololá	2	El tablón	4	Abril	2023-04-20T00:00:00	2024-11-06T22:00:00	4	Temperatura máxima	13.9
149547	7	Sololá	701	Sololá	2	El tablón	4	Abril	2023-04-20T00:00:00	2024-11-06T22:00:00	3	Temperatura mínima	13.4
149548	7	Sololá	701	Sololá	2	El tablón	4	Abril	2023-04-20T00:00:00	2024-11-06T22:00:00	5	Humedad	85
149549	7	Sololá	701	Sololá	2	El tablón	4	Abril	2023-04-20T00:00:00	2024-11-06T22:00:00	6	Velocidad del viento	0
149550	7	Sololá	701	Sololá	2	El tablón	4	Abril	2023-04-20T00:00:00	2024-11-06T22:00:00	7	Dirección del viento	0
149551	7	Sololá	701	Sololá	2	El tablón	4	Abril	2023-04-20T00:00:00	2024-11-06T22:00:00	1	Precipitación	0
149552	7	Sololá	701	Sololá	2	El tablón	4	Abril	2023-04-20T00:00:00	2024-11-06T22:00:00	8	Radiación solar	0
149553	7	Sololá	701	Sololá	2	El tablón	4	Abril	2023-04-20T00:00:00	2024-11-06T23:00:00	2	Temperatura media	13.3
149554	7	Sololá	701	Sololá	2	El tablón	4	Abril	2023-04-20T00:00:00	2024-11-06T23:00:00	4	Temperatura máxima	13.6
149555	7	Sololá	701	Sololá	2	El tablón	4	Abril	2023-04-20T00:00:00	2024-11-06T23:00:00	3	Temperatura mínima	13.2
149556	7	Sololá	701	Sololá	2	El tablón	4	Abril	2023-04-20T00:00:00	2024-11-06T23:00:00	5	Humedad	86
149557	7	Sololá	701	Sololá	2	El tablón	4	Abril	2023-04-20T00:00:00	2024-11-06T23:00:00	6	Velocidad del viento	1.6
149558	7	Sololá	701	Sololá	2	El tablón	4	Abril	2023-04-20T00:00:00	2024-11-06T23:00:00	7	Dirección del viento	1.61
149559	7	Sololá	701	Sololá	2	El tablón	4	Abril	2023-04-20T00:00:00	2024-11-06T23:00:00	1	Precipitación	0
149560	7	Sololá	701	Sololá	2	El tablón	4	Abril	2023-04-20T00:00:00	2024-11-06T23:00:00	8	Radiación solar	0
149561	7	Sololá	701	Sololá	2	El tablón	4	Abril	2023-04-21T00:00:00	2024-11-06T00:00:00	2	Temperatura media	11.5
149562	7	Sololá	701	Sololá	2	El tablón	4	Abril	2023-04-21T00:00:00	2024-11-06T00:00:00	4	Temperatura máxima	13.3
149563	7	Sololá	701	Sololá	2	El tablón	4	Abril	2023-04-21T00:00:00	2024-11-06T00:00:00	3	Temperatura mínima	11.5
149564	7	Sololá	701	Sololá	2	El tablón	4	Abril	2023-04-21T00:00:00	2024-11-06T00:00:00	5	Humedad	88
149565	7	Sololá	701	Sololá	2	El tablón	4	Abril	2023-04-21T00:00:00	2024-11-06T00:00:00	6	Velocidad del viento	1.6
149566	7	Sololá	701	Sololá	2	El tablón	4	Abril	2023-04-21T00:00:00	2024-11-06T00:00:00	7	Dirección del viento	1.61
149567	7	Sololá	701	Sololá	2	El tablón	4	Abril	2023-04-21T00:00:00	2024-11-06T00:00:00	1	Precipitación	0
149568	7	Sololá	701	Sololá	2	El tablón	4	Abril	2023-04-21T00:00:00	2024-11-06T00:00:00	8	Radiación solar	0
149569	7	Sololá	701	Sololá	2	El tablón	4	Abril	2023-04-21T00:00:00	2024-11-06T01:00:00	2	Temperatura media	11.6
149570	7	Sololá	701	Sololá	2	El tablón	4	Abril	2023-04-21T00:00:00	2024-11-06T01:00:00	4	Temperatura máxima	11.7
149571	7	Sololá	701	Sololá	2	El tablón	4	Abril	2023-04-21T00:00:00	2024-11-06T01:00:00	3	Temperatura mínima	11.4
149572	7	Sololá	701	Sololá	2	El tablón	4	Abril	2023-04-21T00:00:00	2024-11-06T01:00:00	5	Humedad	88
149573	7	Sololá	701	Sololá	2	El tablón	4	Abril	2023-04-21T00:00:00	2024-11-06T01:00:00	6	Velocidad del viento	0
149574	7	Sololá	701	Sololá	2	El tablón	4	Abril	2023-04-21T00:00:00	2024-11-06T01:00:00	7	Dirección del viento	0
149575	7	Sololá	701	Sololá	2	El tablón	4	Abril	2023-04-21T00:00:00	2024-11-06T01:00:00	1	Precipitación	0
149576	7	Sololá	701	Sololá	2	El tablón	4	Abril	2023-04-21T00:00:00	2024-11-06T01:00:00	8	Radiación solar	0
149577	7	Sololá	701	Sololá	2	El tablón	4	Abril	2023-04-21T00:00:00	2024-11-06T02:00:00	2	Temperatura media	10.8
149578	7	Sololá	701	Sololá	2	El tablón	4	Abril	2023-04-21T00:00:00	2024-11-06T02:00:00	4	Temperatura máxima	11.6
149579	7	Sololá	701	Sololá	2	El tablón	4	Abril	2023-04-21T00:00:00	2024-11-06T02:00:00	3	Temperatura mínima	10.7
149580	7	Sololá	701	Sololá	2	El tablón	4	Abril	2023-04-21T00:00:00	2024-11-06T02:00:00	5	Humedad	88
149581	7	Sololá	701	Sololá	2	El tablón	4	Abril	2023-04-21T00:00:00	2024-11-06T02:00:00	6	Velocidad del viento	3.2
149582	7	Sololá	701	Sololá	2	El tablón	4	Abril	2023-04-21T00:00:00	2024-11-06T02:00:00	7	Dirección del viento	3.22
149583	7	Sololá	701	Sololá	2	El tablón	4	Abril	2023-04-21T00:00:00	2024-11-06T02:00:00	1	Precipitación	0
149584	7	Sololá	701	Sololá	2	El tablón	4	Abril	2023-04-21T00:00:00	2024-11-06T02:00:00	8	Radiación solar	0
149585	7	Sololá	701	Sololá	2	El tablón	4	Abril	2023-04-21T00:00:00	2024-11-06T03:00:00	2	Temperatura media	10.8
149586	7	Sololá	701	Sololá	2	El tablón	4	Abril	2023-04-21T00:00:00	2024-11-06T03:00:00	4	Temperatura máxima	10.8
149587	7	Sololá	701	Sololá	2	El tablón	4	Abril	2023-04-21T00:00:00	2024-11-06T03:00:00	3	Temperatura mínima	10.2
149588	7	Sololá	701	Sololá	2	El tablón	4	Abril	2023-04-21T00:00:00	2024-11-06T03:00:00	5	Humedad	87
149589	7	Sololá	701	Sololá	2	El tablón	4	Abril	2023-04-21T00:00:00	2024-11-06T03:00:00	6	Velocidad del viento	4.8
149590	7	Sololá	701	Sololá	2	El tablón	4	Abril	2023-04-21T00:00:00	2024-11-06T03:00:00	7	Dirección del viento	4.83
149591	7	Sololá	701	Sololá	2	El tablón	4	Abril	2023-04-21T00:00:00	2024-11-06T03:00:00	1	Precipitación	0
149592	7	Sololá	701	Sololá	2	El tablón	4	Abril	2023-04-21T00:00:00	2024-11-06T03:00:00	8	Radiación solar	0
149593	7	Sololá	701	Sololá	2	El tablón	4	Abril	2023-04-21T00:00:00	2024-11-06T04:00:00	2	Temperatura media	10.7
149594	7	Sololá	701	Sololá	2	El tablón	4	Abril	2023-04-21T00:00:00	2024-11-06T04:00:00	4	Temperatura máxima	11.2
149595	7	Sololá	701	Sololá	2	El tablón	4	Abril	2023-04-21T00:00:00	2024-11-06T04:00:00	3	Temperatura mínima	10.7
149596	7	Sololá	701	Sololá	2	El tablón	4	Abril	2023-04-21T00:00:00	2024-11-06T04:00:00	5	Humedad	84
149597	7	Sololá	701	Sololá	2	El tablón	4	Abril	2023-04-21T00:00:00	2024-11-06T04:00:00	6	Velocidad del viento	3.2
149598	7	Sololá	701	Sololá	2	El tablón	4	Abril	2023-04-21T00:00:00	2024-11-06T04:00:00	7	Dirección del viento	3.22
149599	7	Sololá	701	Sololá	2	El tablón	4	Abril	2023-04-21T00:00:00	2024-11-06T04:00:00	1	Precipitación	0
149600	7	Sololá	701	Sololá	2	El tablón	4	Abril	2023-04-21T00:00:00	2024-11-06T04:00:00	8	Radiación solar	0
149601	7	Sololá	701	Sololá	2	El tablón	4	Abril	2023-04-21T00:00:00	2024-11-06T05:00:00	2	Temperatura media	10.8
149602	7	Sololá	701	Sololá	2	El tablón	4	Abril	2023-04-21T00:00:00	2024-11-06T05:00:00	4	Temperatura máxima	10.8
149603	7	Sololá	701	Sololá	2	El tablón	4	Abril	2023-04-21T00:00:00	2024-11-06T05:00:00	3	Temperatura mínima	9.9
149604	7	Sololá	701	Sololá	2	El tablón	4	Abril	2023-04-21T00:00:00	2024-11-06T05:00:00	5	Humedad	73
149605	7	Sololá	701	Sololá	2	El tablón	4	Abril	2023-04-21T00:00:00	2024-11-06T05:00:00	6	Velocidad del viento	3.2
149606	7	Sololá	701	Sololá	2	El tablón	4	Abril	2023-04-21T00:00:00	2024-11-06T05:00:00	7	Dirección del viento	3.22
149607	7	Sololá	701	Sololá	2	El tablón	4	Abril	2023-04-21T00:00:00	2024-11-06T05:00:00	1	Precipitación	0
149608	7	Sololá	701	Sololá	2	El tablón	4	Abril	2023-04-21T00:00:00	2024-11-06T05:00:00	8	Radiación solar	0
149609	7	Sololá	701	Sololá	2	El tablón	4	Abril	2023-04-21T00:00:00	2024-11-06T06:00:00	2	Temperatura media	10.8
149610	7	Sololá	701	Sololá	2	El tablón	4	Abril	2023-04-21T00:00:00	2024-11-06T06:00:00	4	Temperatura máxima	11.4
149611	7	Sololá	701	Sololá	2	El tablón	4	Abril	2023-04-21T00:00:00	2024-11-06T06:00:00	3	Temperatura mínima	10.7
149612	7	Sololá	701	Sololá	2	El tablón	4	Abril	2023-04-21T00:00:00	2024-11-06T06:00:00	5	Humedad	82
149613	7	Sololá	701	Sololá	2	El tablón	4	Abril	2023-04-21T00:00:00	2024-11-06T06:00:00	6	Velocidad del viento	1.6
149614	7	Sololá	701	Sololá	2	El tablón	4	Abril	2023-04-21T00:00:00	2024-11-06T06:00:00	7	Dirección del viento	1.61
149615	7	Sololá	701	Sololá	2	El tablón	4	Abril	2023-04-21T00:00:00	2024-11-06T06:00:00	1	Precipitación	0
149616	7	Sololá	701	Sololá	2	El tablón	4	Abril	2023-04-21T00:00:00	2024-11-06T06:00:00	8	Radiación solar	1
149617	7	Sololá	701	Sololá	2	El tablón	4	Abril	2023-04-21T00:00:00	2024-11-06T07:00:00	2	Temperatura media	11.7
149618	7	Sololá	701	Sololá	2	El tablón	4	Abril	2023-04-21T00:00:00	2024-11-06T07:00:00	4	Temperatura máxima	12
149619	7	Sololá	701	Sololá	2	El tablón	4	Abril	2023-04-21T00:00:00	2024-11-06T07:00:00	3	Temperatura mínima	10.4
149620	7	Sololá	701	Sololá	2	El tablón	4	Abril	2023-04-21T00:00:00	2024-11-06T07:00:00	5	Humedad	79
149621	7	Sololá	701	Sololá	2	El tablón	4	Abril	2023-04-21T00:00:00	2024-11-06T07:00:00	6	Velocidad del viento	1.6
149622	7	Sololá	701	Sololá	2	El tablón	4	Abril	2023-04-21T00:00:00	2024-11-06T07:00:00	7	Dirección del viento	1.61
149623	7	Sololá	701	Sololá	2	El tablón	4	Abril	2023-04-21T00:00:00	2024-11-06T07:00:00	1	Precipitación	0
149624	7	Sololá	701	Sololá	2	El tablón	4	Abril	2023-04-21T00:00:00	2024-11-06T07:00:00	8	Radiación solar	84
149625	7	Sololá	701	Sololá	2	El tablón	4	Abril	2023-04-21T00:00:00	2024-11-06T08:00:00	2	Temperatura media	16.3
149626	7	Sololá	701	Sololá	2	El tablón	4	Abril	2023-04-21T00:00:00	2024-11-06T08:00:00	4	Temperatura máxima	16.3
149627	7	Sololá	701	Sololá	2	El tablón	4	Abril	2023-04-21T00:00:00	2024-11-06T08:00:00	3	Temperatura mínima	11.7
149628	7	Sololá	701	Sololá	2	El tablón	4	Abril	2023-04-21T00:00:00	2024-11-06T08:00:00	5	Humedad	74
149629	7	Sololá	701	Sololá	2	El tablón	4	Abril	2023-04-21T00:00:00	2024-11-06T08:00:00	6	Velocidad del viento	1.6
149630	7	Sololá	701	Sololá	2	El tablón	4	Abril	2023-04-21T00:00:00	2024-11-06T08:00:00	7	Dirección del viento	1.61
149631	7	Sololá	701	Sololá	2	El tablón	4	Abril	2023-04-21T00:00:00	2024-11-06T08:00:00	1	Precipitación	0
149632	7	Sololá	701	Sololá	2	El tablón	4	Abril	2023-04-21T00:00:00	2024-11-06T08:00:00	8	Radiación solar	307
149633	7	Sololá	701	Sololá	2	El tablón	4	Abril	2023-04-21T00:00:00	2024-11-06T09:00:00	2	Temperatura media	17.4
149634	7	Sololá	701	Sololá	2	El tablón	4	Abril	2023-04-21T00:00:00	2024-11-06T09:00:00	4	Temperatura máxima	17.4
149635	7	Sololá	701	Sololá	2	El tablón	4	Abril	2023-04-21T00:00:00	2024-11-06T09:00:00	3	Temperatura mínima	16.3
149636	7	Sololá	701	Sololá	2	El tablón	4	Abril	2023-04-21T00:00:00	2024-11-06T09:00:00	5	Humedad	70
149637	7	Sololá	701	Sololá	2	El tablón	4	Abril	2023-04-21T00:00:00	2024-11-06T09:00:00	6	Velocidad del viento	3.2
149638	7	Sololá	701	Sololá	2	El tablón	4	Abril	2023-04-21T00:00:00	2024-11-06T09:00:00	7	Dirección del viento	3.22
149639	7	Sololá	701	Sololá	2	El tablón	4	Abril	2023-04-21T00:00:00	2024-11-06T09:00:00	1	Precipitación	0
149640	7	Sololá	701	Sololá	2	El tablón	4	Abril	2023-04-21T00:00:00	2024-11-06T09:00:00	8	Radiación solar	469
149641	7	Sololá	701	Sololá	2	El tablón	4	Abril	2023-04-21T00:00:00	2024-11-06T10:00:00	2	Temperatura media	19.2
149642	7	Sololá	701	Sololá	2	El tablón	4	Abril	2023-04-21T00:00:00	2024-11-06T10:00:00	4	Temperatura máxima	19.2
149643	7	Sololá	701	Sololá	2	El tablón	4	Abril	2023-04-21T00:00:00	2024-11-06T10:00:00	3	Temperatura mínima	17.4
149644	7	Sololá	701	Sololá	2	El tablón	4	Abril	2023-04-21T00:00:00	2024-11-06T10:00:00	5	Humedad	67
149645	7	Sololá	701	Sololá	2	El tablón	4	Abril	2023-04-21T00:00:00	2024-11-06T10:00:00	6	Velocidad del viento	4.8
149646	7	Sololá	701	Sololá	2	El tablón	4	Abril	2023-04-21T00:00:00	2024-11-06T10:00:00	7	Dirección del viento	4.83
149647	7	Sololá	701	Sololá	2	El tablón	4	Abril	2023-04-21T00:00:00	2024-11-06T10:00:00	1	Precipitación	0
149648	7	Sololá	701	Sololá	2	El tablón	4	Abril	2023-04-21T00:00:00	2024-11-06T10:00:00	8	Radiación solar	696
149649	7	Sololá	701	Sololá	2	El tablón	4	Abril	2023-04-21T00:00:00	2024-11-06T11:00:00	2	Temperatura media	18
149650	7	Sololá	701	Sololá	2	El tablón	4	Abril	2023-04-21T00:00:00	2024-11-06T11:00:00	4	Temperatura máxima	19.5
149651	7	Sololá	701	Sololá	2	El tablón	4	Abril	2023-04-21T00:00:00	2024-11-06T11:00:00	3	Temperatura mínima	17.8
149652	7	Sololá	701	Sololá	2	El tablón	4	Abril	2023-04-21T00:00:00	2024-11-06T11:00:00	5	Humedad	77
149653	7	Sololá	701	Sololá	2	El tablón	4	Abril	2023-04-21T00:00:00	2024-11-06T11:00:00	6	Velocidad del viento	9.7
149654	7	Sololá	701	Sololá	2	El tablón	4	Abril	2023-04-21T00:00:00	2024-11-06T11:00:00	7	Dirección del viento	9.66
149655	7	Sololá	701	Sololá	2	El tablón	4	Abril	2023-04-21T00:00:00	2024-11-06T11:00:00	1	Precipitación	0
149656	7	Sololá	701	Sololá	2	El tablón	4	Abril	2023-04-21T00:00:00	2024-11-06T11:00:00	8	Radiación solar	827
149657	7	Sololá	701	Sololá	2	El tablón	4	Abril	2023-04-21T00:00:00	2024-11-06T12:00:00	2	Temperatura media	16.8
149658	7	Sololá	701	Sololá	2	El tablón	4	Abril	2023-04-21T00:00:00	2024-11-06T12:00:00	4	Temperatura máxima	18.1
149659	7	Sololá	701	Sololá	2	El tablón	4	Abril	2023-04-21T00:00:00	2024-11-06T12:00:00	3	Temperatura mínima	16.8
149660	7	Sololá	701	Sololá	2	El tablón	4	Abril	2023-04-21T00:00:00	2024-11-06T12:00:00	5	Humedad	84
149661	7	Sololá	701	Sololá	2	El tablón	4	Abril	2023-04-21T00:00:00	2024-11-06T12:00:00	6	Velocidad del viento	9.7
149662	7	Sololá	701	Sololá	2	El tablón	4	Abril	2023-04-21T00:00:00	2024-11-06T12:00:00	7	Dirección del viento	9.66
149663	7	Sololá	701	Sololá	2	El tablón	4	Abril	2023-04-21T00:00:00	2024-11-06T12:00:00	1	Precipitación	0
149664	7	Sololá	701	Sololá	2	El tablón	4	Abril	2023-04-21T00:00:00	2024-11-06T12:00:00	8	Radiación solar	704
149665	7	Sololá	701	Sololá	2	El tablón	4	Abril	2023-04-21T00:00:00	2024-11-06T13:00:00	2	Temperatura media	17.1
149666	7	Sololá	701	Sololá	2	El tablón	4	Abril	2023-04-21T00:00:00	2024-11-06T13:00:00	4	Temperatura máxima	17.2
149667	7	Sololá	701	Sololá	2	El tablón	4	Abril	2023-04-21T00:00:00	2024-11-06T13:00:00	3	Temperatura mínima	16.7
149668	7	Sololá	701	Sololá	2	El tablón	4	Abril	2023-04-21T00:00:00	2024-11-06T13:00:00	5	Humedad	83
149669	7	Sololá	701	Sololá	2	El tablón	4	Abril	2023-04-21T00:00:00	2024-11-06T13:00:00	6	Velocidad del viento	9.7
149670	7	Sololá	701	Sololá	2	El tablón	4	Abril	2023-04-21T00:00:00	2024-11-06T13:00:00	7	Dirección del viento	9.66
149671	7	Sololá	701	Sololá	2	El tablón	4	Abril	2023-04-21T00:00:00	2024-11-06T13:00:00	1	Precipitación	0
149672	7	Sololá	701	Sololá	2	El tablón	4	Abril	2023-04-21T00:00:00	2024-11-06T13:00:00	8	Radiación solar	608
149673	7	Sololá	701	Sololá	2	El tablón	4	Abril	2023-04-21T00:00:00	2024-11-06T14:00:00	2	Temperatura media	17.6
149674	7	Sololá	701	Sololá	2	El tablón	4	Abril	2023-04-21T00:00:00	2024-11-06T14:00:00	4	Temperatura máxima	17.6
149675	7	Sololá	701	Sololá	2	El tablón	4	Abril	2023-04-21T00:00:00	2024-11-06T14:00:00	3	Temperatura mínima	17
149676	7	Sololá	701	Sololá	2	El tablón	4	Abril	2023-04-21T00:00:00	2024-11-06T14:00:00	5	Humedad	83
149677	7	Sololá	701	Sololá	2	El tablón	4	Abril	2023-04-21T00:00:00	2024-11-06T14:00:00	6	Velocidad del viento	9.7
149678	7	Sololá	701	Sololá	2	El tablón	4	Abril	2023-04-21T00:00:00	2024-11-06T14:00:00	7	Dirección del viento	9.66
149679	7	Sololá	701	Sololá	2	El tablón	4	Abril	2023-04-21T00:00:00	2024-11-06T14:00:00	1	Precipitación	0
149680	7	Sololá	701	Sololá	2	El tablón	4	Abril	2023-04-21T00:00:00	2024-11-06T14:00:00	8	Radiación solar	527
149681	7	Sololá	701	Sololá	2	El tablón	4	Abril	2023-04-21T00:00:00	2024-11-06T15:00:00	2	Temperatura media	16.3
149682	7	Sololá	701	Sololá	2	El tablón	4	Abril	2023-04-21T00:00:00	2024-11-06T15:00:00	4	Temperatura máxima	17.7
149683	7	Sololá	701	Sololá	2	El tablón	4	Abril	2023-04-21T00:00:00	2024-11-06T15:00:00	3	Temperatura mínima	16.1
149684	7	Sololá	701	Sololá	2	El tablón	4	Abril	2023-04-21T00:00:00	2024-11-06T15:00:00	5	Humedad	86
149685	7	Sololá	701	Sololá	2	El tablón	4	Abril	2023-04-21T00:00:00	2024-11-06T15:00:00	6	Velocidad del viento	8
149686	7	Sololá	701	Sololá	2	El tablón	4	Abril	2023-04-21T00:00:00	2024-11-06T15:00:00	7	Dirección del viento	8.05
149687	7	Sololá	701	Sololá	2	El tablón	4	Abril	2023-04-21T00:00:00	2024-11-06T15:00:00	1	Precipitación	0
149688	7	Sololá	701	Sololá	2	El tablón	4	Abril	2023-04-21T00:00:00	2024-11-06T15:00:00	8	Radiación solar	327
149689	7	Sololá	701	Sololá	2	El tablón	4	Abril	2023-04-21T00:00:00	2024-11-06T16:00:00	2	Temperatura media	15.9
149690	7	Sololá	701	Sololá	2	El tablón	4	Abril	2023-04-21T00:00:00	2024-11-06T16:00:00	4	Temperatura máxima	16.4
149691	7	Sololá	701	Sololá	2	El tablón	4	Abril	2023-04-21T00:00:00	2024-11-06T16:00:00	3	Temperatura mínima	15.7
149692	7	Sololá	701	Sololá	2	El tablón	4	Abril	2023-04-21T00:00:00	2024-11-06T16:00:00	5	Humedad	87
149693	7	Sololá	701	Sololá	2	El tablón	4	Abril	2023-04-21T00:00:00	2024-11-06T16:00:00	6	Velocidad del viento	6.4
149694	7	Sololá	701	Sololá	2	El tablón	4	Abril	2023-04-21T00:00:00	2024-11-06T16:00:00	7	Dirección del viento	6.44
149695	7	Sololá	701	Sololá	2	El tablón	4	Abril	2023-04-21T00:00:00	2024-11-06T16:00:00	1	Precipitación	0
149696	7	Sololá	701	Sololá	2	El tablón	4	Abril	2023-04-21T00:00:00	2024-11-06T16:00:00	8	Radiación solar	208
149697	7	Sololá	701	Sololá	2	El tablón	4	Abril	2023-04-21T00:00:00	2024-11-06T17:00:00	2	Temperatura media	15.3
149698	7	Sololá	701	Sololá	2	El tablón	4	Abril	2023-04-21T00:00:00	2024-11-06T17:00:00	4	Temperatura máxima	15.9
149699	7	Sololá	701	Sololá	2	El tablón	4	Abril	2023-04-21T00:00:00	2024-11-06T17:00:00	3	Temperatura mínima	15.3
149700	7	Sololá	701	Sololá	2	El tablón	4	Abril	2023-04-21T00:00:00	2024-11-06T17:00:00	5	Humedad	88
149701	7	Sololá	701	Sololá	2	El tablón	4	Abril	2023-04-21T00:00:00	2024-11-06T17:00:00	6	Velocidad del viento	4.8
149702	7	Sololá	701	Sololá	2	El tablón	4	Abril	2023-04-21T00:00:00	2024-11-06T17:00:00	7	Dirección del viento	4.83
149703	7	Sololá	701	Sololá	2	El tablón	4	Abril	2023-04-21T00:00:00	2024-11-06T17:00:00	1	Precipitación	0
149704	7	Sololá	701	Sololá	2	El tablón	4	Abril	2023-04-21T00:00:00	2024-11-06T17:00:00	8	Radiación solar	71
149705	7	Sololá	701	Sololá	2	El tablón	4	Abril	2023-04-21T00:00:00	2024-11-06T18:00:00	2	Temperatura media	15.8
149706	7	Sololá	701	Sololá	2	El tablón	4	Abril	2023-04-21T00:00:00	2024-11-06T18:00:00	4	Temperatura máxima	15.8
149707	7	Sololá	701	Sololá	2	El tablón	4	Abril	2023-04-21T00:00:00	2024-11-06T18:00:00	3	Temperatura mínima	15.3
149708	7	Sololá	701	Sololá	2	El tablón	4	Abril	2023-04-21T00:00:00	2024-11-06T18:00:00	5	Humedad	87
149709	7	Sololá	701	Sololá	2	El tablón	4	Abril	2023-04-21T00:00:00	2024-11-06T18:00:00	6	Velocidad del viento	0
149710	7	Sololá	701	Sololá	2	El tablón	4	Abril	2023-04-21T00:00:00	2024-11-06T18:00:00	7	Dirección del viento	0
149711	7	Sololá	701	Sololá	2	El tablón	4	Abril	2023-04-21T00:00:00	2024-11-06T18:00:00	1	Precipitación	0
149712	7	Sololá	701	Sololá	2	El tablón	4	Abril	2023-04-21T00:00:00	2024-11-06T18:00:00	8	Radiación solar	67
149713	7	Sololá	701	Sololá	2	El tablón	4	Abril	2023-04-21T00:00:00	2024-11-06T19:00:00	2	Temperatura media	15.1
149714	7	Sololá	701	Sololá	2	El tablón	4	Abril	2023-04-21T00:00:00	2024-11-06T19:00:00	4	Temperatura máxima	15.8
149715	7	Sololá	701	Sololá	2	El tablón	4	Abril	2023-04-21T00:00:00	2024-11-06T19:00:00	3	Temperatura mínima	15
149716	7	Sololá	701	Sololá	2	El tablón	4	Abril	2023-04-21T00:00:00	2024-11-06T19:00:00	5	Humedad	88
149717	7	Sololá	701	Sololá	2	El tablón	4	Abril	2023-04-21T00:00:00	2024-11-06T19:00:00	6	Velocidad del viento	1.6
149718	7	Sololá	701	Sololá	2	El tablón	4	Abril	2023-04-21T00:00:00	2024-11-06T19:00:00	7	Dirección del viento	1.61
149719	7	Sololá	701	Sololá	2	El tablón	4	Abril	2023-04-21T00:00:00	2024-11-06T19:00:00	1	Precipitación	0
149720	7	Sololá	701	Sololá	2	El tablón	4	Abril	2023-04-21T00:00:00	2024-11-06T19:00:00	8	Radiación solar	0
149721	7	Sololá	701	Sololá	2	El tablón	4	Abril	2023-04-21T00:00:00	2024-11-06T20:00:00	2	Temperatura media	14.7
149722	7	Sololá	701	Sololá	2	El tablón	4	Abril	2023-04-21T00:00:00	2024-11-06T20:00:00	4	Temperatura máxima	15.1
149723	7	Sololá	701	Sololá	2	El tablón	4	Abril	2023-04-21T00:00:00	2024-11-06T20:00:00	3	Temperatura mínima	14.7
149724	7	Sololá	701	Sololá	2	El tablón	4	Abril	2023-04-21T00:00:00	2024-11-06T20:00:00	5	Humedad	88
149725	7	Sololá	701	Sololá	2	El tablón	4	Abril	2023-04-21T00:00:00	2024-11-06T20:00:00	6	Velocidad del viento	0
149726	7	Sololá	701	Sololá	2	El tablón	4	Abril	2023-04-21T00:00:00	2024-11-06T20:00:00	7	Dirección del viento	0
149727	7	Sololá	701	Sololá	2	El tablón	4	Abril	2023-04-21T00:00:00	2024-11-06T20:00:00	1	Precipitación	0
149728	7	Sololá	701	Sololá	2	El tablón	4	Abril	2023-04-21T00:00:00	2024-11-06T20:00:00	8	Radiación solar	0
149729	7	Sololá	701	Sololá	2	El tablón	4	Abril	2023-04-21T00:00:00	2024-11-06T21:00:00	2	Temperatura media	13.9
149730	7	Sololá	701	Sololá	2	El tablón	4	Abril	2023-04-21T00:00:00	2024-11-06T21:00:00	4	Temperatura máxima	14.7
149731	7	Sololá	701	Sololá	2	El tablón	4	Abril	2023-04-21T00:00:00	2024-11-06T21:00:00	3	Temperatura mínima	13.7
149732	7	Sololá	701	Sololá	2	El tablón	4	Abril	2023-04-21T00:00:00	2024-11-06T21:00:00	5	Humedad	88
149733	7	Sololá	701	Sololá	2	El tablón	4	Abril	2023-04-21T00:00:00	2024-11-06T21:00:00	6	Velocidad del viento	3.2
149734	7	Sololá	701	Sololá	2	El tablón	4	Abril	2023-04-21T00:00:00	2024-11-06T21:00:00	7	Dirección del viento	3.22
149735	7	Sololá	701	Sololá	2	El tablón	4	Abril	2023-04-21T00:00:00	2024-11-06T21:00:00	1	Precipitación	0
149736	7	Sololá	701	Sololá	2	El tablón	4	Abril	2023-04-21T00:00:00	2024-11-06T21:00:00	8	Radiación solar	0
149737	7	Sololá	701	Sololá	2	El tablón	4	Abril	2023-04-21T00:00:00	2024-11-06T22:00:00	2	Temperatura media	14.5
149738	7	Sololá	701	Sololá	2	El tablón	4	Abril	2023-04-21T00:00:00	2024-11-06T22:00:00	4	Temperatura máxima	14.5
149739	7	Sololá	701	Sololá	2	El tablón	4	Abril	2023-04-21T00:00:00	2024-11-06T22:00:00	3	Temperatura mínima	13.9
149740	7	Sololá	701	Sololá	2	El tablón	4	Abril	2023-04-21T00:00:00	2024-11-06T22:00:00	5	Humedad	86
149741	7	Sololá	701	Sololá	2	El tablón	4	Abril	2023-04-21T00:00:00	2024-11-06T22:00:00	6	Velocidad del viento	4.8
149742	7	Sololá	701	Sololá	2	El tablón	4	Abril	2023-04-21T00:00:00	2024-11-06T22:00:00	7	Dirección del viento	4.83
149743	7	Sololá	701	Sololá	2	El tablón	4	Abril	2023-04-21T00:00:00	2024-11-06T22:00:00	1	Precipitación	0
149744	7	Sololá	701	Sololá	2	El tablón	4	Abril	2023-04-21T00:00:00	2024-11-06T22:00:00	8	Radiación solar	0
149745	7	Sololá	701	Sololá	2	El tablón	4	Abril	2023-04-21T00:00:00	2024-11-06T23:00:00	2	Temperatura media	14.4
149746	7	Sololá	701	Sololá	2	El tablón	4	Abril	2023-04-21T00:00:00	2024-11-06T23:00:00	4	Temperatura máxima	14.6
149747	7	Sololá	701	Sololá	2	El tablón	4	Abril	2023-04-21T00:00:00	2024-11-06T23:00:00	3	Temperatura mínima	14.4
149748	7	Sololá	701	Sololá	2	El tablón	4	Abril	2023-04-21T00:00:00	2024-11-06T23:00:00	5	Humedad	85
149749	7	Sololá	701	Sololá	2	El tablón	4	Abril	2023-04-21T00:00:00	2024-11-06T23:00:00	6	Velocidad del viento	6.4
149750	7	Sololá	701	Sololá	2	El tablón	4	Abril	2023-04-21T00:00:00	2024-11-06T23:00:00	7	Dirección del viento	6.44
149751	7	Sololá	701	Sololá	2	El tablón	4	Abril	2023-04-21T00:00:00	2024-11-06T23:00:00	1	Precipitación	0
149752	7	Sololá	701	Sololá	2	El tablón	4	Abril	2023-04-21T00:00:00	2024-11-06T23:00:00	8	Radiación solar	0
149753	7	Sololá	701	Sololá	2	El tablón	4	Abril	2023-04-22T00:00:00	2024-11-06T00:00:00	2	Temperatura media	13.8
149754	7	Sololá	701	Sololá	2	El tablón	4	Abril	2023-04-22T00:00:00	2024-11-06T00:00:00	4	Temperatura máxima	14.4
149755	7	Sololá	701	Sololá	2	El tablón	4	Abril	2023-04-22T00:00:00	2024-11-06T00:00:00	3	Temperatura mínima	13.6
149756	7	Sololá	701	Sololá	2	El tablón	4	Abril	2023-04-22T00:00:00	2024-11-06T00:00:00	5	Humedad	83
149757	7	Sololá	701	Sololá	2	El tablón	4	Abril	2023-04-22T00:00:00	2024-11-06T00:00:00	6	Velocidad del viento	1.6
149758	7	Sololá	701	Sololá	2	El tablón	4	Abril	2023-04-22T00:00:00	2024-11-06T00:00:00	7	Dirección del viento	1.61
149759	7	Sololá	701	Sololá	2	El tablón	4	Abril	2023-04-22T00:00:00	2024-11-06T00:00:00	1	Precipitación	0
149760	7	Sololá	701	Sololá	2	El tablón	4	Abril	2023-04-22T00:00:00	2024-11-06T00:00:00	8	Radiación solar	0
149761	7	Sololá	701	Sololá	2	El tablón	4	Abril	2023-04-22T00:00:00	2024-11-06T01:00:00	2	Temperatura media	13.2
149762	7	Sololá	701	Sololá	2	El tablón	4	Abril	2023-04-22T00:00:00	2024-11-06T01:00:00	4	Temperatura máxima	13.8
149763	7	Sololá	701	Sololá	2	El tablón	4	Abril	2023-04-22T00:00:00	2024-11-06T01:00:00	3	Temperatura mínima	13.2
149764	7	Sololá	701	Sololá	2	El tablón	4	Abril	2023-04-22T00:00:00	2024-11-06T01:00:00	5	Humedad	84
149765	7	Sololá	701	Sololá	2	El tablón	4	Abril	2023-04-22T00:00:00	2024-11-06T01:00:00	6	Velocidad del viento	1.6
149766	7	Sololá	701	Sololá	2	El tablón	4	Abril	2023-04-22T00:00:00	2024-11-06T01:00:00	7	Dirección del viento	1.61
149767	7	Sololá	701	Sololá	2	El tablón	4	Abril	2023-04-22T00:00:00	2024-11-06T01:00:00	1	Precipitación	0
149768	7	Sololá	701	Sololá	2	El tablón	4	Abril	2023-04-22T00:00:00	2024-11-06T01:00:00	8	Radiación solar	0
149769	7	Sololá	701	Sololá	2	El tablón	4	Abril	2023-04-22T00:00:00	2024-11-06T02:00:00	2	Temperatura media	11.6
149770	7	Sololá	701	Sololá	2	El tablón	4	Abril	2023-04-22T00:00:00	2024-11-06T02:00:00	4	Temperatura máxima	13.9
149771	7	Sololá	701	Sololá	2	El tablón	4	Abril	2023-04-22T00:00:00	2024-11-06T02:00:00	3	Temperatura mínima	11.6
149772	7	Sololá	701	Sololá	2	El tablón	4	Abril	2023-04-22T00:00:00	2024-11-06T02:00:00	5	Humedad	83
149773	7	Sololá	701	Sololá	2	El tablón	4	Abril	2023-04-22T00:00:00	2024-11-06T02:00:00	6	Velocidad del viento	3.2
149774	7	Sololá	701	Sololá	2	El tablón	4	Abril	2023-04-22T00:00:00	2024-11-06T02:00:00	7	Dirección del viento	3.22
149775	7	Sololá	701	Sololá	2	El tablón	4	Abril	2023-04-22T00:00:00	2024-11-06T02:00:00	1	Precipitación	0
149776	7	Sololá	701	Sololá	2	El tablón	4	Abril	2023-04-22T00:00:00	2024-11-06T02:00:00	8	Radiación solar	0
149777	7	Sololá	701	Sololá	2	El tablón	4	Abril	2023-04-22T00:00:00	2024-11-06T03:00:00	2	Temperatura media	11.3
149778	7	Sololá	701	Sololá	2	El tablón	4	Abril	2023-04-22T00:00:00	2024-11-06T03:00:00	4	Temperatura máxima	12.5
149779	7	Sololá	701	Sololá	2	El tablón	4	Abril	2023-04-22T00:00:00	2024-11-06T03:00:00	3	Temperatura mínima	11.3
149780	7	Sololá	701	Sololá	2	El tablón	4	Abril	2023-04-22T00:00:00	2024-11-06T03:00:00	5	Humedad	84
149781	7	Sololá	701	Sololá	2	El tablón	4	Abril	2023-04-22T00:00:00	2024-11-06T03:00:00	6	Velocidad del viento	3.2
149782	7	Sololá	701	Sololá	2	El tablón	4	Abril	2023-04-22T00:00:00	2024-11-06T03:00:00	7	Dirección del viento	3.22
149783	7	Sololá	701	Sololá	2	El tablón	4	Abril	2023-04-22T00:00:00	2024-11-06T03:00:00	1	Precipitación	0
149784	7	Sololá	701	Sololá	2	El tablón	4	Abril	2023-04-22T00:00:00	2024-11-06T03:00:00	8	Radiación solar	0
149785	7	Sololá	701	Sololá	2	El tablón	4	Abril	2023-04-22T00:00:00	2024-11-06T04:00:00	2	Temperatura media	11.6
149786	7	Sololá	701	Sololá	2	El tablón	4	Abril	2023-04-22T00:00:00	2024-11-06T04:00:00	4	Temperatura máxima	11.8
149787	7	Sololá	701	Sololá	2	El tablón	4	Abril	2023-04-22T00:00:00	2024-11-06T04:00:00	3	Temperatura mínima	11.3
149788	7	Sololá	701	Sololá	2	El tablón	4	Abril	2023-04-22T00:00:00	2024-11-06T04:00:00	5	Humedad	84
149789	7	Sololá	701	Sololá	2	El tablón	4	Abril	2023-04-22T00:00:00	2024-11-06T04:00:00	6	Velocidad del viento	3.2
149790	7	Sololá	701	Sololá	2	El tablón	4	Abril	2023-04-22T00:00:00	2024-11-06T04:00:00	7	Dirección del viento	3.22
149791	7	Sololá	701	Sololá	2	El tablón	4	Abril	2023-04-22T00:00:00	2024-11-06T04:00:00	1	Precipitación	0
149792	7	Sololá	701	Sololá	2	El tablón	4	Abril	2023-04-22T00:00:00	2024-11-06T04:00:00	8	Radiación solar	0
149793	7	Sololá	701	Sololá	2	El tablón	4	Abril	2023-04-22T00:00:00	2024-11-06T05:00:00	2	Temperatura media	12.3
149794	7	Sololá	701	Sololá	2	El tablón	4	Abril	2023-04-22T00:00:00	2024-11-06T05:00:00	4	Temperatura máxima	12.8
149795	7	Sololá	701	Sololá	2	El tablón	4	Abril	2023-04-22T00:00:00	2024-11-06T05:00:00	3	Temperatura mínima	11.6
149796	7	Sololá	701	Sololá	2	El tablón	4	Abril	2023-04-22T00:00:00	2024-11-06T05:00:00	5	Humedad	77
149797	7	Sololá	701	Sololá	2	El tablón	4	Abril	2023-04-22T00:00:00	2024-11-06T05:00:00	6	Velocidad del viento	1.6
149798	7	Sololá	701	Sololá	2	El tablón	4	Abril	2023-04-22T00:00:00	2024-11-06T05:00:00	7	Dirección del viento	1.61
149799	7	Sololá	701	Sololá	2	El tablón	4	Abril	2023-04-22T00:00:00	2024-11-06T05:00:00	1	Precipitación	0
149800	7	Sololá	701	Sololá	2	El tablón	4	Abril	2023-04-22T00:00:00	2024-11-06T05:00:00	8	Radiación solar	0
149801	7	Sololá	701	Sololá	2	El tablón	4	Abril	2023-04-22T00:00:00	2024-11-06T06:00:00	2	Temperatura media	12.8
149802	7	Sololá	701	Sololá	2	El tablón	4	Abril	2023-04-22T00:00:00	2024-11-06T06:00:00	4	Temperatura máxima	12.8
149803	7	Sololá	701	Sololá	2	El tablón	4	Abril	2023-04-22T00:00:00	2024-11-06T06:00:00	3	Temperatura mínima	11.3
149804	7	Sololá	701	Sololá	2	El tablón	4	Abril	2023-04-22T00:00:00	2024-11-06T06:00:00	5	Humedad	65
149805	7	Sololá	701	Sololá	2	El tablón	4	Abril	2023-04-22T00:00:00	2024-11-06T06:00:00	6	Velocidad del viento	3.2
149806	7	Sololá	701	Sololá	2	El tablón	4	Abril	2023-04-22T00:00:00	2024-11-06T06:00:00	7	Dirección del viento	3.22
149807	7	Sololá	701	Sololá	2	El tablón	4	Abril	2023-04-22T00:00:00	2024-11-06T06:00:00	1	Precipitación	0
149808	7	Sololá	701	Sololá	2	El tablón	4	Abril	2023-04-22T00:00:00	2024-11-06T06:00:00	8	Radiación solar	1
149809	7	Sololá	701	Sololá	2	El tablón	4	Abril	2023-04-22T00:00:00	2024-11-06T07:00:00	2	Temperatura media	16.4
149810	7	Sololá	701	Sololá	2	El tablón	4	Abril	2023-04-22T00:00:00	2024-11-06T07:00:00	4	Temperatura máxima	16.4
149811	7	Sololá	701	Sololá	2	El tablón	4	Abril	2023-04-22T00:00:00	2024-11-06T07:00:00	3	Temperatura mínima	12.8
149812	7	Sololá	701	Sololá	2	El tablón	4	Abril	2023-04-22T00:00:00	2024-11-06T07:00:00	5	Humedad	58
149813	7	Sololá	701	Sololá	2	El tablón	4	Abril	2023-04-22T00:00:00	2024-11-06T07:00:00	6	Velocidad del viento	1.6
149814	7	Sololá	701	Sololá	2	El tablón	4	Abril	2023-04-22T00:00:00	2024-11-06T07:00:00	7	Dirección del viento	1.61
149815	7	Sololá	701	Sololá	2	El tablón	4	Abril	2023-04-22T00:00:00	2024-11-06T07:00:00	1	Precipitación	0
149816	7	Sololá	701	Sololá	2	El tablón	4	Abril	2023-04-22T00:00:00	2024-11-06T07:00:00	8	Radiación solar	90
149817	7	Sololá	701	Sololá	2	El tablón	4	Abril	2023-04-22T00:00:00	2024-11-06T08:00:00	2	Temperatura media	18.2
149818	7	Sololá	701	Sololá	2	El tablón	4	Abril	2023-04-22T00:00:00	2024-11-06T08:00:00	4	Temperatura máxima	18.2
149819	7	Sololá	701	Sololá	2	El tablón	4	Abril	2023-04-22T00:00:00	2024-11-06T08:00:00	3	Temperatura mínima	16.4
149820	7	Sololá	701	Sololá	2	El tablón	4	Abril	2023-04-22T00:00:00	2024-11-06T08:00:00	5	Humedad	43
149821	7	Sololá	701	Sololá	2	El tablón	4	Abril	2023-04-22T00:00:00	2024-11-06T08:00:00	6	Velocidad del viento	4.8
149822	7	Sololá	701	Sololá	2	El tablón	4	Abril	2023-04-22T00:00:00	2024-11-06T08:00:00	7	Dirección del viento	4.83
149823	7	Sololá	701	Sololá	2	El tablón	4	Abril	2023-04-22T00:00:00	2024-11-06T08:00:00	1	Precipitación	0
149824	7	Sololá	701	Sololá	2	El tablón	4	Abril	2023-04-22T00:00:00	2024-11-06T08:00:00	8	Radiación solar	318
149825	7	Sololá	701	Sololá	2	El tablón	4	Abril	2023-04-22T00:00:00	2024-11-06T09:00:00	2	Temperatura media	19.3
149826	7	Sololá	701	Sololá	2	El tablón	4	Abril	2023-04-22T00:00:00	2024-11-06T09:00:00	4	Temperatura máxima	19.3
149827	7	Sololá	701	Sololá	2	El tablón	4	Abril	2023-04-22T00:00:00	2024-11-06T09:00:00	3	Temperatura mínima	18.2
149828	7	Sololá	701	Sololá	2	El tablón	4	Abril	2023-04-22T00:00:00	2024-11-06T09:00:00	5	Humedad	41
149829	7	Sololá	701	Sololá	2	El tablón	4	Abril	2023-04-22T00:00:00	2024-11-06T09:00:00	6	Velocidad del viento	8
149830	7	Sololá	701	Sololá	2	El tablón	4	Abril	2023-04-22T00:00:00	2024-11-06T09:00:00	7	Dirección del viento	8.05
149831	7	Sololá	701	Sololá	2	El tablón	4	Abril	2023-04-22T00:00:00	2024-11-06T09:00:00	1	Precipitación	0
149832	7	Sololá	701	Sololá	2	El tablón	4	Abril	2023-04-22T00:00:00	2024-11-06T09:00:00	8	Radiación solar	496
149833	7	Sololá	701	Sololá	2	El tablón	4	Abril	2023-04-22T00:00:00	2024-11-06T10:00:00	2	Temperatura media	20.7
149834	7	Sololá	701	Sololá	2	El tablón	4	Abril	2023-04-22T00:00:00	2024-11-06T10:00:00	4	Temperatura máxima	20.7
149835	7	Sololá	701	Sololá	2	El tablón	4	Abril	2023-04-22T00:00:00	2024-11-06T10:00:00	3	Temperatura mínima	19.3
149836	7	Sololá	701	Sololá	2	El tablón	4	Abril	2023-04-22T00:00:00	2024-11-06T10:00:00	5	Humedad	44
149837	7	Sololá	701	Sololá	2	El tablón	4	Abril	2023-04-22T00:00:00	2024-11-06T10:00:00	6	Velocidad del viento	8
149838	7	Sololá	701	Sololá	2	El tablón	4	Abril	2023-04-22T00:00:00	2024-11-06T10:00:00	7	Dirección del viento	8.05
149839	7	Sololá	701	Sololá	2	El tablón	4	Abril	2023-04-22T00:00:00	2024-11-06T10:00:00	1	Precipitación	0
149840	7	Sololá	701	Sololá	2	El tablón	4	Abril	2023-04-22T00:00:00	2024-11-06T10:00:00	8	Radiación solar	710
149841	7	Sololá	701	Sololá	2	El tablón	4	Abril	2023-04-22T00:00:00	2024-11-06T11:00:00	2	Temperatura media	21.8
149842	7	Sololá	701	Sololá	2	El tablón	4	Abril	2023-04-22T00:00:00	2024-11-06T11:00:00	4	Temperatura máxima	21.8
149843	7	Sololá	701	Sololá	2	El tablón	4	Abril	2023-04-22T00:00:00	2024-11-06T11:00:00	3	Temperatura mínima	20.7
149844	7	Sololá	701	Sololá	2	El tablón	4	Abril	2023-04-22T00:00:00	2024-11-06T11:00:00	5	Humedad	46
149845	7	Sololá	701	Sololá	2	El tablón	4	Abril	2023-04-22T00:00:00	2024-11-06T11:00:00	6	Velocidad del viento	8
149846	7	Sololá	701	Sololá	2	El tablón	4	Abril	2023-04-22T00:00:00	2024-11-06T11:00:00	7	Dirección del viento	8.05
149847	7	Sololá	701	Sololá	2	El tablón	4	Abril	2023-04-22T00:00:00	2024-11-06T11:00:00	1	Precipitación	0
149848	7	Sololá	701	Sololá	2	El tablón	4	Abril	2023-04-22T00:00:00	2024-11-06T11:00:00	8	Radiación solar	848
149849	7	Sololá	701	Sololá	2	El tablón	4	Abril	2023-04-22T00:00:00	2024-11-06T12:00:00	2	Temperatura media	22.6
149850	7	Sololá	701	Sololá	2	El tablón	4	Abril	2023-04-22T00:00:00	2024-11-06T12:00:00	4	Temperatura máxima	22.6
149851	7	Sololá	701	Sololá	2	El tablón	4	Abril	2023-04-22T00:00:00	2024-11-06T12:00:00	3	Temperatura mínima	21.4
149852	7	Sololá	701	Sololá	2	El tablón	4	Abril	2023-04-22T00:00:00	2024-11-06T12:00:00	5	Humedad	43
149853	7	Sololá	701	Sololá	2	El tablón	4	Abril	2023-04-22T00:00:00	2024-11-06T12:00:00	6	Velocidad del viento	11.3
149854	7	Sololá	701	Sololá	2	El tablón	4	Abril	2023-04-22T00:00:00	2024-11-06T12:00:00	7	Dirección del viento	11.27
149855	7	Sololá	701	Sololá	2	El tablón	4	Abril	2023-04-22T00:00:00	2024-11-06T12:00:00	1	Precipitación	0
149856	7	Sololá	701	Sololá	2	El tablón	4	Abril	2023-04-22T00:00:00	2024-11-06T12:00:00	8	Radiación solar	929
149857	7	Sololá	701	Sololá	2	El tablón	4	Abril	2023-04-22T00:00:00	2024-11-06T13:00:00	2	Temperatura media	20.1
149858	7	Sololá	701	Sololá	2	El tablón	4	Abril	2023-04-22T00:00:00	2024-11-06T13:00:00	4	Temperatura máxima	22.9
149859	7	Sololá	701	Sololá	2	El tablón	4	Abril	2023-04-22T00:00:00	2024-11-06T13:00:00	3	Temperatura mínima	20.1
149860	7	Sololá	701	Sololá	2	El tablón	4	Abril	2023-04-22T00:00:00	2024-11-06T13:00:00	5	Humedad	73
149861	7	Sololá	701	Sololá	2	El tablón	4	Abril	2023-04-22T00:00:00	2024-11-06T13:00:00	6	Velocidad del viento	9.7
149862	7	Sololá	701	Sololá	2	El tablón	4	Abril	2023-04-22T00:00:00	2024-11-06T13:00:00	7	Dirección del viento	9.66
149863	7	Sololá	701	Sololá	2	El tablón	4	Abril	2023-04-22T00:00:00	2024-11-06T13:00:00	1	Precipitación	0
149864	7	Sololá	701	Sololá	2	El tablón	4	Abril	2023-04-22T00:00:00	2024-11-06T13:00:00	8	Radiación solar	925
149865	7	Sololá	701	Sololá	2	El tablón	4	Abril	2023-04-22T00:00:00	2024-11-06T14:00:00	2	Temperatura media	19.4
149866	7	Sololá	701	Sololá	2	El tablón	4	Abril	2023-04-22T00:00:00	2024-11-06T14:00:00	4	Temperatura máxima	20.1
149867	7	Sololá	701	Sololá	2	El tablón	4	Abril	2023-04-22T00:00:00	2024-11-06T14:00:00	3	Temperatura mínima	19
149868	7	Sololá	701	Sololá	2	El tablón	4	Abril	2023-04-22T00:00:00	2024-11-06T14:00:00	5	Humedad	80
149869	7	Sololá	701	Sololá	2	El tablón	4	Abril	2023-04-22T00:00:00	2024-11-06T14:00:00	6	Velocidad del viento	11.3
149870	7	Sololá	701	Sololá	2	El tablón	4	Abril	2023-04-22T00:00:00	2024-11-06T14:00:00	7	Dirección del viento	11.27
149871	7	Sololá	701	Sololá	2	El tablón	4	Abril	2023-04-22T00:00:00	2024-11-06T14:00:00	1	Precipitación	0
149872	7	Sololá	701	Sololá	2	El tablón	4	Abril	2023-04-22T00:00:00	2024-11-06T14:00:00	8	Radiación solar	938
149873	7	Sololá	701	Sololá	2	El tablón	4	Abril	2023-04-22T00:00:00	2024-11-06T15:00:00	2	Temperatura media	18.4
149874	7	Sololá	701	Sololá	2	El tablón	4	Abril	2023-04-22T00:00:00	2024-11-06T15:00:00	4	Temperatura máxima	19.5
149875	7	Sololá	701	Sololá	2	El tablón	4	Abril	2023-04-22T00:00:00	2024-11-06T15:00:00	3	Temperatura mínima	18.2
149876	7	Sololá	701	Sololá	2	El tablón	4	Abril	2023-04-22T00:00:00	2024-11-06T15:00:00	5	Humedad	84
149877	7	Sololá	701	Sololá	2	El tablón	4	Abril	2023-04-22T00:00:00	2024-11-06T15:00:00	6	Velocidad del viento	9.7
149878	7	Sololá	701	Sololá	2	El tablón	4	Abril	2023-04-22T00:00:00	2024-11-06T15:00:00	7	Dirección del viento	9.66
149879	7	Sololá	701	Sololá	2	El tablón	4	Abril	2023-04-22T00:00:00	2024-11-06T15:00:00	1	Precipitación	0
149880	7	Sololá	701	Sololá	2	El tablón	4	Abril	2023-04-22T00:00:00	2024-11-06T15:00:00	8	Radiación solar	535
149881	7	Sololá	701	Sololá	2	El tablón	4	Abril	2023-04-22T00:00:00	2024-11-06T16:00:00	2	Temperatura media	17.4
149882	7	Sololá	701	Sololá	2	El tablón	4	Abril	2023-04-22T00:00:00	2024-11-06T16:00:00	4	Temperatura máxima	18.4
149883	7	Sololá	701	Sololá	2	El tablón	4	Abril	2023-04-22T00:00:00	2024-11-06T16:00:00	3	Temperatura mínima	17.4
149884	7	Sololá	701	Sololá	2	El tablón	4	Abril	2023-04-22T00:00:00	2024-11-06T16:00:00	5	Humedad	86
149885	7	Sololá	701	Sololá	2	El tablón	4	Abril	2023-04-22T00:00:00	2024-11-06T16:00:00	6	Velocidad del viento	6.4
149886	7	Sololá	701	Sololá	2	El tablón	4	Abril	2023-04-22T00:00:00	2024-11-06T16:00:00	7	Dirección del viento	6.44
149887	7	Sololá	701	Sololá	2	El tablón	4	Abril	2023-04-22T00:00:00	2024-11-06T16:00:00	1	Precipitación	0
149888	7	Sololá	701	Sololá	2	El tablón	4	Abril	2023-04-22T00:00:00	2024-11-06T16:00:00	8	Radiación solar	176
149889	7	Sololá	701	Sololá	2	El tablón	4	Abril	2023-04-22T00:00:00	2024-11-06T17:00:00	2	Temperatura media	16.4
149890	7	Sololá	701	Sololá	2	El tablón	4	Abril	2023-04-22T00:00:00	2024-11-06T17:00:00	4	Temperatura máxima	17.4
149891	7	Sololá	701	Sololá	2	El tablón	4	Abril	2023-04-22T00:00:00	2024-11-06T17:00:00	3	Temperatura mínima	16.4
149892	7	Sololá	701	Sololá	2	El tablón	4	Abril	2023-04-22T00:00:00	2024-11-06T17:00:00	5	Humedad	88
149893	7	Sololá	701	Sololá	2	El tablón	4	Abril	2023-04-22T00:00:00	2024-11-06T17:00:00	6	Velocidad del viento	4.8
149894	7	Sololá	701	Sololá	2	El tablón	4	Abril	2023-04-22T00:00:00	2024-11-06T17:00:00	7	Dirección del viento	4.83
149895	7	Sololá	701	Sololá	2	El tablón	4	Abril	2023-04-22T00:00:00	2024-11-06T17:00:00	1	Precipitación	0
149896	7	Sololá	701	Sololá	2	El tablón	4	Abril	2023-04-22T00:00:00	2024-11-06T17:00:00	8	Radiación solar	89
149897	7	Sololá	701	Sololá	2	El tablón	4	Abril	2023-04-22T00:00:00	2024-11-06T18:00:00	2	Temperatura media	16.6
149898	7	Sololá	701	Sololá	2	El tablón	4	Abril	2023-04-22T00:00:00	2024-11-06T18:00:00	4	Temperatura máxima	16.6
149899	7	Sololá	701	Sololá	2	El tablón	4	Abril	2023-04-22T00:00:00	2024-11-06T18:00:00	3	Temperatura mínima	16.2
149900	7	Sololá	701	Sololá	2	El tablón	4	Abril	2023-04-22T00:00:00	2024-11-06T18:00:00	5	Humedad	88
149901	7	Sololá	701	Sololá	2	El tablón	4	Abril	2023-04-22T00:00:00	2024-11-06T18:00:00	6	Velocidad del viento	1.6
149902	7	Sololá	701	Sololá	2	El tablón	4	Abril	2023-04-22T00:00:00	2024-11-06T18:00:00	7	Dirección del viento	1.61
149903	7	Sololá	701	Sololá	2	El tablón	4	Abril	2023-04-22T00:00:00	2024-11-06T18:00:00	1	Precipitación	0
149904	7	Sololá	701	Sololá	2	El tablón	4	Abril	2023-04-22T00:00:00	2024-11-06T18:00:00	8	Radiación solar	32
149905	7	Sololá	701	Sololá	2	El tablón	4	Abril	2023-04-22T00:00:00	2024-11-06T19:00:00	2	Temperatura media	16.4
149906	7	Sololá	701	Sololá	2	El tablón	4	Abril	2023-04-22T00:00:00	2024-11-06T19:00:00	4	Temperatura máxima	16.7
149907	7	Sololá	701	Sololá	2	El tablón	4	Abril	2023-04-22T00:00:00	2024-11-06T19:00:00	3	Temperatura mínima	16.4
149908	7	Sololá	701	Sololá	2	El tablón	4	Abril	2023-04-22T00:00:00	2024-11-06T19:00:00	5	Humedad	88
149909	7	Sololá	701	Sololá	2	El tablón	4	Abril	2023-04-22T00:00:00	2024-11-06T19:00:00	6	Velocidad del viento	0
149910	7	Sololá	701	Sololá	2	El tablón	4	Abril	2023-04-22T00:00:00	2024-11-06T19:00:00	7	Dirección del viento	0
149911	7	Sololá	701	Sololá	2	El tablón	4	Abril	2023-04-22T00:00:00	2024-11-06T19:00:00	1	Precipitación	0
149912	7	Sololá	701	Sololá	2	El tablón	4	Abril	2023-04-22T00:00:00	2024-11-06T19:00:00	8	Radiación solar	0
149913	7	Sololá	701	Sololá	2	El tablón	4	Abril	2023-04-22T00:00:00	2024-11-06T20:00:00	2	Temperatura media	16.4
149914	7	Sololá	701	Sololá	2	El tablón	4	Abril	2023-04-22T00:00:00	2024-11-06T20:00:00	4	Temperatura máxima	16.6
149915	7	Sololá	701	Sololá	2	El tablón	4	Abril	2023-04-22T00:00:00	2024-11-06T20:00:00	3	Temperatura mínima	15.3
149916	7	Sololá	701	Sololá	2	El tablón	4	Abril	2023-04-22T00:00:00	2024-11-06T20:00:00	5	Humedad	76
149917	7	Sololá	701	Sololá	2	El tablón	4	Abril	2023-04-22T00:00:00	2024-11-06T20:00:00	6	Velocidad del viento	3.2
149918	7	Sololá	701	Sololá	2	El tablón	4	Abril	2023-04-22T00:00:00	2024-11-06T20:00:00	7	Dirección del viento	3.22
149919	7	Sololá	701	Sololá	2	El tablón	4	Abril	2023-04-22T00:00:00	2024-11-06T20:00:00	1	Precipitación	0
149920	7	Sololá	701	Sololá	2	El tablón	4	Abril	2023-04-22T00:00:00	2024-11-06T20:00:00	8	Radiación solar	0
149921	7	Sololá	701	Sololá	2	El tablón	4	Abril	2023-04-22T00:00:00	2024-11-06T21:00:00	2	Temperatura media	15.4
149922	7	Sololá	701	Sololá	2	El tablón	4	Abril	2023-04-22T00:00:00	2024-11-06T21:00:00	4	Temperatura máxima	16.4
149923	7	Sololá	701	Sololá	2	El tablón	4	Abril	2023-04-22T00:00:00	2024-11-06T21:00:00	3	Temperatura mínima	15.4
149924	7	Sololá	701	Sololá	2	El tablón	4	Abril	2023-04-22T00:00:00	2024-11-06T21:00:00	5	Humedad	80
149925	7	Sololá	701	Sololá	2	El tablón	4	Abril	2023-04-22T00:00:00	2024-11-06T21:00:00	6	Velocidad del viento	1.6
149926	7	Sololá	701	Sololá	2	El tablón	4	Abril	2023-04-22T00:00:00	2024-11-06T21:00:00	7	Dirección del viento	1.61
149927	7	Sololá	701	Sololá	2	El tablón	4	Abril	2023-04-22T00:00:00	2024-11-06T21:00:00	1	Precipitación	0
149928	7	Sololá	701	Sololá	2	El tablón	4	Abril	2023-04-22T00:00:00	2024-11-06T21:00:00	8	Radiación solar	0
149929	7	Sololá	701	Sololá	2	El tablón	4	Abril	2023-04-22T00:00:00	2024-11-06T22:00:00	2	Temperatura media	14.4
149930	7	Sololá	701	Sololá	2	El tablón	4	Abril	2023-04-22T00:00:00	2024-11-06T22:00:00	4	Temperatura máxima	15.4
149931	7	Sololá	701	Sololá	2	El tablón	4	Abril	2023-04-22T00:00:00	2024-11-06T22:00:00	3	Temperatura mínima	14.2
149932	7	Sololá	701	Sololá	2	El tablón	4	Abril	2023-04-22T00:00:00	2024-11-06T22:00:00	5	Humedad	84
149933	7	Sololá	701	Sololá	2	El tablón	4	Abril	2023-04-22T00:00:00	2024-11-06T22:00:00	6	Velocidad del viento	0
149934	7	Sololá	701	Sololá	2	El tablón	4	Abril	2023-04-22T00:00:00	2024-11-06T22:00:00	7	Dirección del viento	0
149935	7	Sololá	701	Sololá	2	El tablón	4	Abril	2023-04-22T00:00:00	2024-11-06T22:00:00	1	Precipitación	0
149936	7	Sololá	701	Sololá	2	El tablón	4	Abril	2023-04-22T00:00:00	2024-11-06T22:00:00	8	Radiación solar	0
149937	7	Sololá	701	Sololá	2	El tablón	4	Abril	2023-04-22T00:00:00	2024-11-06T23:00:00	2	Temperatura media	14.3
149938	7	Sololá	701	Sololá	2	El tablón	4	Abril	2023-04-22T00:00:00	2024-11-06T23:00:00	4	Temperatura máxima	14.8
149939	7	Sololá	701	Sololá	2	El tablón	4	Abril	2023-04-22T00:00:00	2024-11-06T23:00:00	3	Temperatura mínima	14.2
149940	7	Sololá	701	Sololá	2	El tablón	4	Abril	2023-04-22T00:00:00	2024-11-06T23:00:00	5	Humedad	85
149941	7	Sololá	701	Sololá	2	El tablón	4	Abril	2023-04-22T00:00:00	2024-11-06T23:00:00	6	Velocidad del viento	0
149942	7	Sololá	701	Sololá	2	El tablón	4	Abril	2023-04-22T00:00:00	2024-11-06T23:00:00	7	Dirección del viento	0
149943	7	Sololá	701	Sololá	2	El tablón	4	Abril	2023-04-22T00:00:00	2024-11-06T23:00:00	1	Precipitación	0
149944	7	Sololá	701	Sololá	2	El tablón	4	Abril	2023-04-22T00:00:00	2024-11-06T23:00:00	8	Radiación solar	0
149945	7	Sololá	701	Sololá	2	El tablón	4	Abril	2023-04-23T00:00:00	2024-11-06T00:00:00	2	Temperatura media	13.2
149946	7	Sololá	701	Sololá	2	El tablón	4	Abril	2023-04-23T00:00:00	2024-11-06T00:00:00	4	Temperatura máxima	14.3
149947	7	Sololá	701	Sololá	2	El tablón	4	Abril	2023-04-23T00:00:00	2024-11-06T00:00:00	3	Temperatura mínima	13.2
149948	7	Sololá	701	Sololá	2	El tablón	4	Abril	2023-04-23T00:00:00	2024-11-06T00:00:00	5	Humedad	87
149949	7	Sololá	701	Sololá	2	El tablón	4	Abril	2023-04-23T00:00:00	2024-11-06T00:00:00	6	Velocidad del viento	0
149950	7	Sololá	701	Sololá	2	El tablón	4	Abril	2023-04-23T00:00:00	2024-11-06T00:00:00	7	Dirección del viento	0
149951	7	Sololá	701	Sololá	2	El tablón	4	Abril	2023-04-23T00:00:00	2024-11-06T00:00:00	1	Precipitación	0
149952	7	Sololá	701	Sololá	2	El tablón	4	Abril	2023-04-23T00:00:00	2024-11-06T00:00:00	8	Radiación solar	0
149953	7	Sololá	701	Sololá	2	El tablón	4	Abril	2023-04-23T00:00:00	2024-11-06T01:00:00	2	Temperatura media	13.7
149954	7	Sololá	701	Sololá	2	El tablón	4	Abril	2023-04-23T00:00:00	2024-11-06T01:00:00	4	Temperatura máxima	13.8
149955	7	Sololá	701	Sololá	2	El tablón	4	Abril	2023-04-23T00:00:00	2024-11-06T01:00:00	3	Temperatura mínima	13.2
149956	7	Sololá	701	Sololá	2	El tablón	4	Abril	2023-04-23T00:00:00	2024-11-06T01:00:00	5	Humedad	86
149957	7	Sololá	701	Sololá	2	El tablón	4	Abril	2023-04-23T00:00:00	2024-11-06T01:00:00	6	Velocidad del viento	3.2
149958	7	Sololá	701	Sololá	2	El tablón	4	Abril	2023-04-23T00:00:00	2024-11-06T01:00:00	7	Dirección del viento	3.22
149959	7	Sololá	701	Sololá	2	El tablón	4	Abril	2023-04-23T00:00:00	2024-11-06T01:00:00	1	Precipitación	0
149960	7	Sololá	701	Sololá	2	El tablón	4	Abril	2023-04-23T00:00:00	2024-11-06T01:00:00	8	Radiación solar	0
149961	7	Sololá	701	Sololá	2	El tablón	4	Abril	2023-04-23T00:00:00	2024-11-06T02:00:00	2	Temperatura media	13.2
149962	7	Sololá	701	Sololá	2	El tablón	4	Abril	2023-04-23T00:00:00	2024-11-06T02:00:00	4	Temperatura máxima	13.7
149963	7	Sololá	701	Sololá	2	El tablón	4	Abril	2023-04-23T00:00:00	2024-11-06T02:00:00	3	Temperatura mínima	13.2
149964	7	Sololá	701	Sololá	2	El tablón	4	Abril	2023-04-23T00:00:00	2024-11-06T02:00:00	5	Humedad	87
149965	7	Sololá	701	Sololá	2	El tablón	4	Abril	2023-04-23T00:00:00	2024-11-06T02:00:00	6	Velocidad del viento	3.2
149966	7	Sololá	701	Sololá	2	El tablón	4	Abril	2023-04-23T00:00:00	2024-11-06T02:00:00	7	Dirección del viento	3.22
149967	7	Sololá	701	Sololá	2	El tablón	4	Abril	2023-04-23T00:00:00	2024-11-06T02:00:00	1	Precipitación	0
149968	7	Sololá	701	Sololá	2	El tablón	4	Abril	2023-04-23T00:00:00	2024-11-06T02:00:00	8	Radiación solar	0
149969	7	Sololá	701	Sololá	2	El tablón	4	Abril	2023-04-23T00:00:00	2024-11-06T03:00:00	2	Temperatura media	12.1
149970	7	Sololá	701	Sololá	2	El tablón	4	Abril	2023-04-23T00:00:00	2024-11-06T03:00:00	4	Temperatura máxima	13.2
149971	7	Sololá	701	Sololá	2	El tablón	4	Abril	2023-04-23T00:00:00	2024-11-06T03:00:00	3	Temperatura mínima	12.1
149972	7	Sololá	701	Sololá	2	El tablón	4	Abril	2023-04-23T00:00:00	2024-11-06T03:00:00	5	Humedad	88
149973	7	Sololá	701	Sololá	2	El tablón	4	Abril	2023-04-23T00:00:00	2024-11-06T03:00:00	6	Velocidad del viento	1.6
149974	7	Sololá	701	Sololá	2	El tablón	4	Abril	2023-04-23T00:00:00	2024-11-06T03:00:00	7	Dirección del viento	1.61
149975	7	Sololá	701	Sololá	2	El tablón	4	Abril	2023-04-23T00:00:00	2024-11-06T03:00:00	1	Precipitación	0
149976	7	Sololá	701	Sololá	2	El tablón	4	Abril	2023-04-23T00:00:00	2024-11-06T03:00:00	8	Radiación solar	0
149977	7	Sololá	701	Sololá	2	El tablón	4	Abril	2023-04-23T00:00:00	2024-11-06T04:00:00	2	Temperatura media	11.7
149978	7	Sololá	701	Sololá	2	El tablón	4	Abril	2023-04-23T00:00:00	2024-11-06T04:00:00	4	Temperatura máxima	12.1
149979	7	Sololá	701	Sololá	2	El tablón	4	Abril	2023-04-23T00:00:00	2024-11-06T04:00:00	3	Temperatura mínima	11.4
149980	7	Sololá	701	Sololá	2	El tablón	4	Abril	2023-04-23T00:00:00	2024-11-06T04:00:00	5	Humedad	86
149981	7	Sololá	701	Sololá	2	El tablón	4	Abril	2023-04-23T00:00:00	2024-11-06T04:00:00	6	Velocidad del viento	1.6
149982	7	Sololá	701	Sololá	2	El tablón	4	Abril	2023-04-23T00:00:00	2024-11-06T04:00:00	7	Dirección del viento	1.61
149983	7	Sololá	701	Sololá	2	El tablón	4	Abril	2023-04-23T00:00:00	2024-11-06T04:00:00	1	Precipitación	0
149984	7	Sololá	701	Sololá	2	El tablón	4	Abril	2023-04-23T00:00:00	2024-11-06T04:00:00	8	Radiación solar	0
149985	7	Sololá	701	Sololá	2	El tablón	4	Abril	2023-04-23T00:00:00	2024-11-06T05:00:00	2	Temperatura media	12.2
149986	7	Sololá	701	Sololá	2	El tablón	4	Abril	2023-04-23T00:00:00	2024-11-06T05:00:00	4	Temperatura máxima	12.9
149987	7	Sololá	701	Sololá	2	El tablón	4	Abril	2023-04-23T00:00:00	2024-11-06T05:00:00	3	Temperatura mínima	11.7
149988	7	Sololá	701	Sololá	2	El tablón	4	Abril	2023-04-23T00:00:00	2024-11-06T05:00:00	5	Humedad	81
149989	7	Sololá	701	Sololá	2	El tablón	4	Abril	2023-04-23T00:00:00	2024-11-06T05:00:00	6	Velocidad del viento	4.8
149990	7	Sololá	701	Sololá	2	El tablón	4	Abril	2023-04-23T00:00:00	2024-11-06T05:00:00	7	Dirección del viento	4.83
149991	7	Sololá	701	Sololá	2	El tablón	4	Abril	2023-04-23T00:00:00	2024-11-06T05:00:00	1	Precipitación	0
149992	7	Sololá	701	Sololá	2	El tablón	4	Abril	2023-04-23T00:00:00	2024-11-06T05:00:00	8	Radiación solar	0
149993	7	Sololá	701	Sololá	2	El tablón	4	Abril	2023-04-23T00:00:00	2024-11-06T06:00:00	2	Temperatura media	11.3
149994	7	Sololá	701	Sololá	2	El tablón	4	Abril	2023-04-23T00:00:00	2024-11-06T06:00:00	4	Temperatura máxima	12.1
149995	7	Sololá	701	Sololá	2	El tablón	4	Abril	2023-04-23T00:00:00	2024-11-06T06:00:00	3	Temperatura mínima	11.2
149996	7	Sololá	701	Sololá	2	El tablón	4	Abril	2023-04-23T00:00:00	2024-11-06T06:00:00	5	Humedad	79
149997	7	Sololá	701	Sololá	2	El tablón	4	Abril	2023-04-23T00:00:00	2024-11-06T06:00:00	6	Velocidad del viento	3.2
149998	7	Sololá	701	Sololá	2	El tablón	4	Abril	2023-04-23T00:00:00	2024-11-06T06:00:00	7	Dirección del viento	3.22
149999	7	Sololá	701	Sololá	2	El tablón	4	Abril	2023-04-23T00:00:00	2024-11-06T06:00:00	1	Precipitación	0
150000	7	Sololá	701	Sololá	2	El tablón	4	Abril	2023-04-23T00:00:00	2024-11-06T06:00:00	8	Radiación solar	1
150001	7	Sololá	701	Sololá	2	El tablón	4	Abril	2023-04-23T00:00:00	2024-11-06T07:00:00	2	Temperatura media	13.1
150002	7	Sololá	701	Sololá	2	El tablón	4	Abril	2023-04-23T00:00:00	2024-11-06T07:00:00	4	Temperatura máxima	13.2
150003	7	Sololá	701	Sololá	2	El tablón	4	Abril	2023-04-23T00:00:00	2024-11-06T07:00:00	3	Temperatura mínima	11.1
150004	7	Sololá	701	Sololá	2	El tablón	4	Abril	2023-04-23T00:00:00	2024-11-06T07:00:00	5	Humedad	75
150005	7	Sololá	701	Sololá	2	El tablón	4	Abril	2023-04-23T00:00:00	2024-11-06T07:00:00	6	Velocidad del viento	1.6
150006	7	Sololá	701	Sololá	2	El tablón	4	Abril	2023-04-23T00:00:00	2024-11-06T07:00:00	7	Dirección del viento	1.61
150007	7	Sololá	701	Sololá	2	El tablón	4	Abril	2023-04-23T00:00:00	2024-11-06T07:00:00	1	Precipitación	0
150008	7	Sololá	701	Sololá	2	El tablón	4	Abril	2023-04-23T00:00:00	2024-11-06T07:00:00	8	Radiación solar	88
150009	7	Sololá	701	Sololá	2	El tablón	4	Abril	2023-04-23T00:00:00	2024-11-06T08:00:00	2	Temperatura media	16.3
150010	7	Sololá	701	Sololá	2	El tablón	4	Abril	2023-04-23T00:00:00	2024-11-06T08:00:00	4	Temperatura máxima	16.3
150011	7	Sololá	701	Sololá	2	El tablón	4	Abril	2023-04-23T00:00:00	2024-11-06T08:00:00	3	Temperatura mínima	13.2
150012	7	Sololá	701	Sololá	2	El tablón	4	Abril	2023-04-23T00:00:00	2024-11-06T08:00:00	5	Humedad	71
150013	7	Sololá	701	Sololá	2	El tablón	4	Abril	2023-04-23T00:00:00	2024-11-06T08:00:00	6	Velocidad del viento	3.2
150014	7	Sololá	701	Sololá	2	El tablón	4	Abril	2023-04-23T00:00:00	2024-11-06T08:00:00	7	Dirección del viento	3.22
150015	7	Sololá	701	Sololá	2	El tablón	4	Abril	2023-04-23T00:00:00	2024-11-06T08:00:00	1	Precipitación	0
150016	7	Sololá	701	Sololá	2	El tablón	4	Abril	2023-04-23T00:00:00	2024-11-06T08:00:00	8	Radiación solar	294
150017	7	Sololá	701	Sololá	2	El tablón	4	Abril	2023-04-23T00:00:00	2024-11-06T09:00:00	2	Temperatura media	17.2
150018	7	Sololá	701	Sololá	2	El tablón	4	Abril	2023-04-23T00:00:00	2024-11-06T09:00:00	4	Temperatura máxima	17.2
150019	7	Sololá	701	Sololá	2	El tablón	4	Abril	2023-04-23T00:00:00	2024-11-06T09:00:00	3	Temperatura mínima	16.3
150020	7	Sololá	701	Sololá	2	El tablón	4	Abril	2023-04-23T00:00:00	2024-11-06T09:00:00	5	Humedad	73
150021	7	Sololá	701	Sololá	2	El tablón	4	Abril	2023-04-23T00:00:00	2024-11-06T09:00:00	6	Velocidad del viento	3.2
150022	7	Sololá	701	Sololá	2	El tablón	4	Abril	2023-04-23T00:00:00	2024-11-06T09:00:00	7	Dirección del viento	3.22
150023	7	Sololá	701	Sololá	2	El tablón	4	Abril	2023-04-23T00:00:00	2024-11-06T09:00:00	1	Precipitación	0
150024	7	Sololá	701	Sololá	2	El tablón	4	Abril	2023-04-23T00:00:00	2024-11-06T09:00:00	8	Radiación solar	474
150025	7	Sololá	701	Sololá	2	El tablón	4	Abril	2023-04-23T00:00:00	2024-11-06T10:00:00	2	Temperatura media	18
150026	7	Sololá	701	Sololá	2	El tablón	4	Abril	2023-04-23T00:00:00	2024-11-06T10:00:00	4	Temperatura máxima	18.1
150027	7	Sololá	701	Sololá	2	El tablón	4	Abril	2023-04-23T00:00:00	2024-11-06T10:00:00	3	Temperatura mínima	17.2
150028	7	Sololá	701	Sololá	2	El tablón	4	Abril	2023-04-23T00:00:00	2024-11-06T10:00:00	5	Humedad	69
150029	7	Sololá	701	Sololá	2	El tablón	4	Abril	2023-04-23T00:00:00	2024-11-06T10:00:00	6	Velocidad del viento	6.4
150030	7	Sololá	701	Sololá	2	El tablón	4	Abril	2023-04-23T00:00:00	2024-11-06T10:00:00	7	Dirección del viento	6.44
150031	7	Sololá	701	Sololá	2	El tablón	4	Abril	2023-04-23T00:00:00	2024-11-06T10:00:00	1	Precipitación	0
150032	7	Sololá	701	Sololá	2	El tablón	4	Abril	2023-04-23T00:00:00	2024-11-06T10:00:00	8	Radiación solar	703
150033	7	Sololá	701	Sololá	2	El tablón	4	Abril	2023-04-23T00:00:00	2024-11-06T11:00:00	2	Temperatura media	19
150034	7	Sololá	701	Sololá	2	El tablón	4	Abril	2023-04-23T00:00:00	2024-11-06T11:00:00	4	Temperatura máxima	19
150035	7	Sololá	701	Sololá	2	El tablón	4	Abril	2023-04-23T00:00:00	2024-11-06T11:00:00	3	Temperatura mínima	18
150036	7	Sololá	701	Sololá	2	El tablón	4	Abril	2023-04-23T00:00:00	2024-11-06T11:00:00	5	Humedad	62
150037	7	Sololá	701	Sololá	2	El tablón	4	Abril	2023-04-23T00:00:00	2024-11-06T11:00:00	6	Velocidad del viento	8
150038	7	Sololá	701	Sololá	2	El tablón	4	Abril	2023-04-23T00:00:00	2024-11-06T11:00:00	7	Dirección del viento	8.05
150039	7	Sololá	701	Sololá	2	El tablón	4	Abril	2023-04-23T00:00:00	2024-11-06T11:00:00	1	Precipitación	0
150040	7	Sololá	701	Sololá	2	El tablón	4	Abril	2023-04-23T00:00:00	2024-11-06T11:00:00	8	Radiación solar	826
150041	7	Sololá	701	Sololá	2	El tablón	4	Abril	2023-04-23T00:00:00	2024-11-06T12:00:00	2	Temperatura media	19.3
150042	7	Sololá	701	Sololá	2	El tablón	4	Abril	2023-04-23T00:00:00	2024-11-06T12:00:00	4	Temperatura máxima	19.3
150043	7	Sololá	701	Sololá	2	El tablón	4	Abril	2023-04-23T00:00:00	2024-11-06T12:00:00	3	Temperatura mínima	18.8
150044	7	Sololá	701	Sololá	2	El tablón	4	Abril	2023-04-23T00:00:00	2024-11-06T12:00:00	5	Humedad	75
150045	7	Sololá	701	Sololá	2	El tablón	4	Abril	2023-04-23T00:00:00	2024-11-06T12:00:00	6	Velocidad del viento	9.7
150046	7	Sololá	701	Sololá	2	El tablón	4	Abril	2023-04-23T00:00:00	2024-11-06T12:00:00	7	Dirección del viento	9.66
150047	7	Sololá	701	Sololá	2	El tablón	4	Abril	2023-04-23T00:00:00	2024-11-06T12:00:00	1	Precipitación	0
150048	7	Sololá	701	Sololá	2	El tablón	4	Abril	2023-04-23T00:00:00	2024-11-06T12:00:00	8	Radiación solar	914
150049	7	Sololá	701	Sololá	2	El tablón	4	Abril	2023-04-23T00:00:00	2024-11-06T13:00:00	2	Temperatura media	19.1
150050	7	Sololá	701	Sololá	2	El tablón	4	Abril	2023-04-23T00:00:00	2024-11-06T13:00:00	4	Temperatura máxima	19.3
150051	7	Sololá	701	Sololá	2	El tablón	4	Abril	2023-04-23T00:00:00	2024-11-06T13:00:00	3	Temperatura mínima	18.6
150052	7	Sololá	701	Sololá	2	El tablón	4	Abril	2023-04-23T00:00:00	2024-11-06T13:00:00	5	Humedad	77
150053	7	Sololá	701	Sololá	2	El tablón	4	Abril	2023-04-23T00:00:00	2024-11-06T13:00:00	6	Velocidad del viento	9.7
150054	7	Sololá	701	Sololá	2	El tablón	4	Abril	2023-04-23T00:00:00	2024-11-06T13:00:00	7	Dirección del viento	9.66
150055	7	Sololá	701	Sololá	2	El tablón	4	Abril	2023-04-23T00:00:00	2024-11-06T13:00:00	1	Precipitación	0
150056	7	Sololá	701	Sololá	2	El tablón	4	Abril	2023-04-23T00:00:00	2024-11-06T13:00:00	8	Radiación solar	874
150057	7	Sololá	701	Sololá	2	El tablón	4	Abril	2023-04-23T00:00:00	2024-11-06T14:00:00	2	Temperatura media	16.5
150058	7	Sololá	701	Sololá	2	El tablón	4	Abril	2023-04-23T00:00:00	2024-11-06T14:00:00	4	Temperatura máxima	19.1
150059	7	Sololá	701	Sololá	2	El tablón	4	Abril	2023-04-23T00:00:00	2024-11-06T14:00:00	3	Temperatura mínima	16.4
150060	7	Sololá	701	Sololá	2	El tablón	4	Abril	2023-04-23T00:00:00	2024-11-06T14:00:00	5	Humedad	87
150061	7	Sololá	701	Sololá	2	El tablón	4	Abril	2023-04-23T00:00:00	2024-11-06T14:00:00	6	Velocidad del viento	9.7
150062	7	Sololá	701	Sololá	2	El tablón	4	Abril	2023-04-23T00:00:00	2024-11-06T14:00:00	7	Dirección del viento	9.66
150063	7	Sololá	701	Sololá	2	El tablón	4	Abril	2023-04-23T00:00:00	2024-11-06T14:00:00	1	Precipitación	0
150064	7	Sololá	701	Sololá	2	El tablón	4	Abril	2023-04-23T00:00:00	2024-11-06T14:00:00	8	Radiación solar	373
150065	7	Sololá	701	Sololá	2	El tablón	4	Abril	2023-04-23T00:00:00	2024-11-06T15:00:00	2	Temperatura media	16.2
150066	7	Sololá	701	Sololá	2	El tablón	4	Abril	2023-04-23T00:00:00	2024-11-06T15:00:00	4	Temperatura máxima	16.8
150067	7	Sololá	701	Sololá	2	El tablón	4	Abril	2023-04-23T00:00:00	2024-11-06T15:00:00	3	Temperatura mínima	16.2
150068	7	Sololá	701	Sololá	2	El tablón	4	Abril	2023-04-23T00:00:00	2024-11-06T15:00:00	5	Humedad	87
150069	7	Sololá	701	Sololá	2	El tablón	4	Abril	2023-04-23T00:00:00	2024-11-06T15:00:00	6	Velocidad del viento	6.4
150070	7	Sololá	701	Sololá	2	El tablón	4	Abril	2023-04-23T00:00:00	2024-11-06T15:00:00	7	Dirección del viento	6.44
150071	7	Sololá	701	Sololá	2	El tablón	4	Abril	2023-04-23T00:00:00	2024-11-06T15:00:00	1	Precipitación	0
150072	7	Sololá	701	Sololá	2	El tablón	4	Abril	2023-04-23T00:00:00	2024-11-06T15:00:00	8	Radiación solar	176
150073	7	Sololá	701	Sololá	2	El tablón	4	Abril	2023-04-23T00:00:00	2024-11-06T16:00:00	2	Temperatura media	16.3
150074	7	Sololá	701	Sololá	2	El tablón	4	Abril	2023-04-23T00:00:00	2024-11-06T16:00:00	4	Temperatura máxima	16.3
150075	7	Sololá	701	Sololá	2	El tablón	4	Abril	2023-04-23T00:00:00	2024-11-06T16:00:00	3	Temperatura mínima	15.4
150076	7	Sololá	701	Sololá	2	El tablón	4	Abril	2023-04-23T00:00:00	2024-11-06T16:00:00	5	Humedad	87
150077	7	Sololá	701	Sololá	2	El tablón	4	Abril	2023-04-23T00:00:00	2024-11-06T16:00:00	6	Velocidad del viento	4.8
150078	7	Sololá	701	Sololá	2	El tablón	4	Abril	2023-04-23T00:00:00	2024-11-06T16:00:00	7	Dirección del viento	4.83
150079	7	Sololá	701	Sololá	2	El tablón	4	Abril	2023-04-23T00:00:00	2024-11-06T16:00:00	1	Precipitación	0
150080	7	Sololá	701	Sololá	2	El tablón	4	Abril	2023-04-23T00:00:00	2024-11-06T16:00:00	8	Radiación solar	172
150081	7	Sololá	701	Sololá	2	El tablón	4	Abril	2023-04-23T00:00:00	2024-11-06T17:00:00	2	Temperatura media	14.9
150082	7	Sololá	701	Sololá	2	El tablón	4	Abril	2023-04-23T00:00:00	2024-11-06T17:00:00	4	Temperatura máxima	16.3
150083	7	Sololá	701	Sololá	2	El tablón	4	Abril	2023-04-23T00:00:00	2024-11-06T17:00:00	3	Temperatura mínima	14.9
150084	7	Sololá	701	Sololá	2	El tablón	4	Abril	2023-04-23T00:00:00	2024-11-06T17:00:00	5	Humedad	89
150085	7	Sololá	701	Sololá	2	El tablón	4	Abril	2023-04-23T00:00:00	2024-11-06T17:00:00	6	Velocidad del viento	4.8
150086	7	Sololá	701	Sololá	2	El tablón	4	Abril	2023-04-23T00:00:00	2024-11-06T17:00:00	7	Dirección del viento	4.83
150087	7	Sololá	701	Sololá	2	El tablón	4	Abril	2023-04-23T00:00:00	2024-11-06T17:00:00	1	Precipitación	0
150088	7	Sololá	701	Sololá	2	El tablón	4	Abril	2023-04-23T00:00:00	2024-11-06T17:00:00	8	Radiación solar	53
150089	7	Sololá	701	Sololá	2	El tablón	4	Abril	2023-04-23T00:00:00	2024-11-06T18:00:00	2	Temperatura media	14.7
150090	7	Sololá	701	Sololá	2	El tablón	4	Abril	2023-04-23T00:00:00	2024-11-06T18:00:00	4	Temperatura máxima	14.9
150091	7	Sololá	701	Sololá	2	El tablón	4	Abril	2023-04-23T00:00:00	2024-11-06T18:00:00	3	Temperatura mínima	14.7
150092	7	Sololá	701	Sololá	2	El tablón	4	Abril	2023-04-23T00:00:00	2024-11-06T18:00:00	5	Humedad	88
150093	7	Sololá	701	Sololá	2	El tablón	4	Abril	2023-04-23T00:00:00	2024-11-06T18:00:00	6	Velocidad del viento	1.6
150094	7	Sololá	701	Sololá	2	El tablón	4	Abril	2023-04-23T00:00:00	2024-11-06T18:00:00	7	Dirección del viento	1.61
150095	7	Sololá	701	Sololá	2	El tablón	4	Abril	2023-04-23T00:00:00	2024-11-06T18:00:00	1	Precipitación	0.6
150096	7	Sololá	701	Sololá	2	El tablón	4	Abril	2023-04-23T00:00:00	2024-11-06T18:00:00	8	Radiación solar	4
150097	7	Sololá	701	Sololá	2	El tablón	4	Abril	2023-04-23T00:00:00	2024-11-06T19:00:00	2	Temperatura media	14.2
150098	7	Sololá	701	Sololá	2	El tablón	4	Abril	2023-04-23T00:00:00	2024-11-06T19:00:00	4	Temperatura máxima	14.7
150099	7	Sololá	701	Sololá	2	El tablón	4	Abril	2023-04-23T00:00:00	2024-11-06T19:00:00	3	Temperatura mínima	14.2
150100	7	Sololá	701	Sololá	2	El tablón	4	Abril	2023-04-23T00:00:00	2024-11-06T19:00:00	5	Humedad	88
150101	7	Sololá	701	Sololá	2	El tablón	4	Abril	2023-04-23T00:00:00	2024-11-06T19:00:00	6	Velocidad del viento	1.6
150102	7	Sololá	701	Sololá	2	El tablón	4	Abril	2023-04-23T00:00:00	2024-11-06T19:00:00	7	Dirección del viento	1.61
150103	7	Sololá	701	Sololá	2	El tablón	4	Abril	2023-04-23T00:00:00	2024-11-06T19:00:00	1	Precipitación	0
150104	7	Sololá	701	Sololá	2	El tablón	4	Abril	2023-04-23T00:00:00	2024-11-06T19:00:00	8	Radiación solar	0
150105	7	Sololá	701	Sololá	2	El tablón	4	Abril	2023-04-23T00:00:00	2024-11-06T20:00:00	2	Temperatura media	14
150106	7	Sololá	701	Sololá	2	El tablón	4	Abril	2023-04-23T00:00:00	2024-11-06T20:00:00	4	Temperatura máxima	14.4
150107	7	Sololá	701	Sololá	2	El tablón	4	Abril	2023-04-23T00:00:00	2024-11-06T20:00:00	3	Temperatura mínima	14
150108	7	Sololá	701	Sololá	2	El tablón	4	Abril	2023-04-23T00:00:00	2024-11-06T20:00:00	5	Humedad	88
150109	7	Sololá	701	Sololá	2	El tablón	4	Abril	2023-04-23T00:00:00	2024-11-06T20:00:00	6	Velocidad del viento	3.2
150110	7	Sololá	701	Sololá	2	El tablón	4	Abril	2023-04-23T00:00:00	2024-11-06T20:00:00	7	Dirección del viento	3.22
150111	7	Sololá	701	Sololá	2	El tablón	4	Abril	2023-04-23T00:00:00	2024-11-06T20:00:00	1	Precipitación	0
150112	7	Sololá	701	Sololá	2	El tablón	4	Abril	2023-04-23T00:00:00	2024-11-06T20:00:00	8	Radiación solar	0
150113	7	Sololá	701	Sololá	2	El tablón	4	Abril	2023-04-23T00:00:00	2024-11-06T21:00:00	2	Temperatura media	13.9
150114	7	Sololá	701	Sololá	2	El tablón	4	Abril	2023-04-23T00:00:00	2024-11-06T21:00:00	4	Temperatura máxima	14
150115	7	Sololá	701	Sololá	2	El tablón	4	Abril	2023-04-23T00:00:00	2024-11-06T21:00:00	3	Temperatura mínima	13.8
150116	7	Sololá	701	Sololá	2	El tablón	4	Abril	2023-04-23T00:00:00	2024-11-06T21:00:00	5	Humedad	88
150117	7	Sololá	701	Sololá	2	El tablón	4	Abril	2023-04-23T00:00:00	2024-11-06T21:00:00	6	Velocidad del viento	0
150118	7	Sololá	701	Sololá	2	El tablón	4	Abril	2023-04-23T00:00:00	2024-11-06T21:00:00	7	Dirección del viento	0
150119	7	Sololá	701	Sololá	2	El tablón	4	Abril	2023-04-23T00:00:00	2024-11-06T21:00:00	1	Precipitación	0
150120	7	Sololá	701	Sololá	2	El tablón	4	Abril	2023-04-23T00:00:00	2024-11-06T21:00:00	8	Radiación solar	0
150121	7	Sololá	701	Sololá	2	El tablón	4	Abril	2023-04-23T00:00:00	2024-11-06T22:00:00	2	Temperatura media	13.7
150122	7	Sololá	701	Sololá	2	El tablón	4	Abril	2023-04-23T00:00:00	2024-11-06T22:00:00	4	Temperatura máxima	13.9
150123	7	Sololá	701	Sololá	2	El tablón	4	Abril	2023-04-23T00:00:00	2024-11-06T22:00:00	3	Temperatura mínima	13.7
150124	7	Sololá	701	Sololá	2	El tablón	4	Abril	2023-04-23T00:00:00	2024-11-06T22:00:00	5	Humedad	88
150125	7	Sololá	701	Sololá	2	El tablón	4	Abril	2023-04-23T00:00:00	2024-11-06T22:00:00	6	Velocidad del viento	0
150126	7	Sololá	701	Sololá	2	El tablón	4	Abril	2023-04-23T00:00:00	2024-11-06T22:00:00	7	Dirección del viento	0
150127	7	Sololá	701	Sololá	2	El tablón	4	Abril	2023-04-23T00:00:00	2024-11-06T22:00:00	1	Precipitación	0
150128	7	Sololá	701	Sololá	2	El tablón	4	Abril	2023-04-23T00:00:00	2024-11-06T22:00:00	8	Radiación solar	0
150129	7	Sololá	701	Sololá	2	El tablón	4	Abril	2023-04-23T00:00:00	2024-11-06T23:00:00	2	Temperatura media	13.5
150130	7	Sololá	701	Sololá	2	El tablón	4	Abril	2023-04-23T00:00:00	2024-11-06T23:00:00	4	Temperatura máxima	13.8
150131	7	Sololá	701	Sololá	2	El tablón	4	Abril	2023-04-23T00:00:00	2024-11-06T23:00:00	3	Temperatura mínima	13.5
150132	7	Sololá	701	Sololá	2	El tablón	4	Abril	2023-04-23T00:00:00	2024-11-06T23:00:00	5	Humedad	88
150133	7	Sololá	701	Sololá	2	El tablón	4	Abril	2023-04-23T00:00:00	2024-11-06T23:00:00	6	Velocidad del viento	0
150134	7	Sololá	701	Sololá	2	El tablón	4	Abril	2023-04-23T00:00:00	2024-11-06T23:00:00	7	Dirección del viento	0
150135	7	Sololá	701	Sololá	2	El tablón	4	Abril	2023-04-23T00:00:00	2024-11-06T23:00:00	1	Precipitación	0
150136	7	Sololá	701	Sololá	2	El tablón	4	Abril	2023-04-23T00:00:00	2024-11-06T23:00:00	8	Radiación solar	0
150137	7	Sololá	701	Sololá	2	El tablón	4	Abril	2023-04-24T00:00:00	2024-11-06T00:00:00	2	Temperatura media	12.5
150138	7	Sololá	701	Sololá	2	El tablón	4	Abril	2023-04-24T00:00:00	2024-11-06T00:00:00	4	Temperatura máxima	13.5
150139	7	Sololá	701	Sololá	2	El tablón	4	Abril	2023-04-24T00:00:00	2024-11-06T00:00:00	3	Temperatura mínima	12.4
150140	7	Sololá	701	Sololá	2	El tablón	4	Abril	2023-04-24T00:00:00	2024-11-06T00:00:00	5	Humedad	89
150141	7	Sololá	701	Sololá	2	El tablón	4	Abril	2023-04-24T00:00:00	2024-11-06T00:00:00	6	Velocidad del viento	1.6
150142	7	Sololá	701	Sololá	2	El tablón	4	Abril	2023-04-24T00:00:00	2024-11-06T00:00:00	7	Dirección del viento	1.61
150143	7	Sololá	701	Sololá	2	El tablón	4	Abril	2023-04-24T00:00:00	2024-11-06T00:00:00	1	Precipitación	0
150144	7	Sololá	701	Sololá	2	El tablón	4	Abril	2023-04-24T00:00:00	2024-11-06T00:00:00	8	Radiación solar	0
150145	7	Sololá	701	Sololá	2	El tablón	4	Abril	2023-04-24T00:00:00	2024-11-06T01:00:00	2	Temperatura media	13.1
150146	7	Sololá	701	Sololá	2	El tablón	4	Abril	2023-04-24T00:00:00	2024-11-06T01:00:00	4	Temperatura máxima	13.2
150147	7	Sololá	701	Sololá	2	El tablón	4	Abril	2023-04-24T00:00:00	2024-11-06T01:00:00	3	Temperatura mínima	12.5
150148	7	Sololá	701	Sololá	2	El tablón	4	Abril	2023-04-24T00:00:00	2024-11-06T01:00:00	5	Humedad	89
150149	7	Sololá	701	Sololá	2	El tablón	4	Abril	2023-04-24T00:00:00	2024-11-06T01:00:00	6	Velocidad del viento	0
150150	7	Sololá	701	Sololá	2	El tablón	4	Abril	2023-04-24T00:00:00	2024-11-06T01:00:00	7	Dirección del viento	0
150151	7	Sololá	701	Sololá	2	El tablón	4	Abril	2023-04-24T00:00:00	2024-11-06T01:00:00	1	Precipitación	0
150152	7	Sololá	701	Sololá	2	El tablón	4	Abril	2023-04-24T00:00:00	2024-11-06T01:00:00	8	Radiación solar	0
150153	7	Sololá	701	Sololá	2	El tablón	4	Abril	2023-04-24T00:00:00	2024-11-06T02:00:00	2	Temperatura media	12.3
150154	7	Sololá	701	Sololá	2	El tablón	4	Abril	2023-04-24T00:00:00	2024-11-06T02:00:00	4	Temperatura máxima	13.1
150155	7	Sololá	701	Sololá	2	El tablón	4	Abril	2023-04-24T00:00:00	2024-11-06T02:00:00	3	Temperatura mínima	12.3
150156	7	Sololá	701	Sololá	2	El tablón	4	Abril	2023-04-24T00:00:00	2024-11-06T02:00:00	5	Humedad	89
150157	7	Sololá	701	Sololá	2	El tablón	4	Abril	2023-04-24T00:00:00	2024-11-06T02:00:00	6	Velocidad del viento	1.6
150158	7	Sololá	701	Sololá	2	El tablón	4	Abril	2023-04-24T00:00:00	2024-11-06T02:00:00	7	Dirección del viento	1.61
150159	7	Sololá	701	Sololá	2	El tablón	4	Abril	2023-04-24T00:00:00	2024-11-06T02:00:00	1	Precipitación	0
150160	7	Sololá	701	Sololá	2	El tablón	4	Abril	2023-04-24T00:00:00	2024-11-06T02:00:00	8	Radiación solar	0
150161	7	Sololá	701	Sololá	2	El tablón	4	Abril	2023-04-24T00:00:00	2024-11-06T03:00:00	2	Temperatura media	11.6
150162	7	Sololá	701	Sololá	2	El tablón	4	Abril	2023-04-24T00:00:00	2024-11-06T03:00:00	4	Temperatura máxima	12.3
150163	7	Sololá	701	Sololá	2	El tablón	4	Abril	2023-04-24T00:00:00	2024-11-06T03:00:00	3	Temperatura mínima	11.6
150164	7	Sololá	701	Sololá	2	El tablón	4	Abril	2023-04-24T00:00:00	2024-11-06T03:00:00	5	Humedad	89
150165	7	Sololá	701	Sololá	2	El tablón	4	Abril	2023-04-24T00:00:00	2024-11-06T03:00:00	6	Velocidad del viento	0
150166	7	Sololá	701	Sololá	2	El tablón	4	Abril	2023-04-24T00:00:00	2024-11-06T03:00:00	7	Dirección del viento	0
150167	7	Sololá	701	Sololá	2	El tablón	4	Abril	2023-04-24T00:00:00	2024-11-06T03:00:00	1	Precipitación	0
150168	7	Sololá	701	Sololá	2	El tablón	4	Abril	2023-04-24T00:00:00	2024-11-06T03:00:00	8	Radiación solar	0
150169	7	Sololá	701	Sololá	2	El tablón	4	Abril	2023-04-24T00:00:00	2024-11-06T04:00:00	2	Temperatura media	10.8
150170	7	Sololá	701	Sololá	2	El tablón	4	Abril	2023-04-24T00:00:00	2024-11-06T04:00:00	4	Temperatura máxima	11.6
150171	7	Sololá	701	Sololá	2	El tablón	4	Abril	2023-04-24T00:00:00	2024-11-06T04:00:00	3	Temperatura mínima	10.8
150172	7	Sololá	701	Sololá	2	El tablón	4	Abril	2023-04-24T00:00:00	2024-11-06T04:00:00	5	Humedad	89
150173	7	Sololá	701	Sololá	2	El tablón	4	Abril	2023-04-24T00:00:00	2024-11-06T04:00:00	6	Velocidad del viento	0
150174	7	Sololá	701	Sololá	2	El tablón	4	Abril	2023-04-24T00:00:00	2024-11-06T04:00:00	7	Dirección del viento	0
150175	7	Sololá	701	Sololá	2	El tablón	4	Abril	2023-04-24T00:00:00	2024-11-06T04:00:00	1	Precipitación	0
150176	7	Sololá	701	Sololá	2	El tablón	4	Abril	2023-04-24T00:00:00	2024-11-06T04:00:00	8	Radiación solar	0
150177	7	Sololá	701	Sololá	2	El tablón	4	Abril	2023-04-24T00:00:00	2024-11-06T05:00:00	2	Temperatura media	10.2
150178	7	Sololá	701	Sololá	2	El tablón	4	Abril	2023-04-24T00:00:00	2024-11-06T05:00:00	4	Temperatura máxima	10.8
150179	7	Sololá	701	Sololá	2	El tablón	4	Abril	2023-04-24T00:00:00	2024-11-06T05:00:00	3	Temperatura mínima	10.2
150180	7	Sololá	701	Sololá	2	El tablón	4	Abril	2023-04-24T00:00:00	2024-11-06T05:00:00	5	Humedad	89
150181	7	Sololá	701	Sololá	2	El tablón	4	Abril	2023-04-24T00:00:00	2024-11-06T05:00:00	6	Velocidad del viento	1.6
150182	7	Sololá	701	Sololá	2	El tablón	4	Abril	2023-04-24T00:00:00	2024-11-06T05:00:00	7	Dirección del viento	1.61
150183	7	Sololá	701	Sololá	2	El tablón	4	Abril	2023-04-24T00:00:00	2024-11-06T05:00:00	1	Precipitación	0
150184	7	Sololá	701	Sololá	2	El tablón	4	Abril	2023-04-24T00:00:00	2024-11-06T05:00:00	8	Radiación solar	0
150185	7	Sololá	701	Sololá	2	El tablón	4	Abril	2023-04-24T00:00:00	2024-11-06T06:00:00	2	Temperatura media	10.4
150186	7	Sololá	701	Sololá	2	El tablón	4	Abril	2023-04-24T00:00:00	2024-11-06T06:00:00	4	Temperatura máxima	10.4
150187	7	Sololá	701	Sololá	2	El tablón	4	Abril	2023-04-24T00:00:00	2024-11-06T06:00:00	3	Temperatura mínima	9.9
150188	7	Sololá	701	Sololá	2	El tablón	4	Abril	2023-04-24T00:00:00	2024-11-06T06:00:00	5	Humedad	89
150189	7	Sololá	701	Sololá	2	El tablón	4	Abril	2023-04-24T00:00:00	2024-11-06T06:00:00	6	Velocidad del viento	0
150190	7	Sololá	701	Sololá	2	El tablón	4	Abril	2023-04-24T00:00:00	2024-11-06T06:00:00	7	Dirección del viento	0
150191	7	Sololá	701	Sololá	2	El tablón	4	Abril	2023-04-24T00:00:00	2024-11-06T06:00:00	1	Precipitación	0
150192	7	Sololá	701	Sololá	2	El tablón	4	Abril	2023-04-24T00:00:00	2024-11-06T06:00:00	8	Radiación solar	1
150193	7	Sololá	701	Sololá	2	El tablón	4	Abril	2023-04-24T00:00:00	2024-11-06T07:00:00	2	Temperatura media	11.1
150194	7	Sololá	701	Sololá	2	El tablón	4	Abril	2023-04-24T00:00:00	2024-11-06T07:00:00	4	Temperatura máxima	11.1
150195	7	Sololá	701	Sololá	2	El tablón	4	Abril	2023-04-24T00:00:00	2024-11-06T07:00:00	3	Temperatura mínima	10.2
150196	7	Sololá	701	Sololá	2	El tablón	4	Abril	2023-04-24T00:00:00	2024-11-06T07:00:00	5	Humedad	88
150197	7	Sololá	701	Sololá	2	El tablón	4	Abril	2023-04-24T00:00:00	2024-11-06T07:00:00	6	Velocidad del viento	1.6
150198	7	Sololá	701	Sololá	2	El tablón	4	Abril	2023-04-24T00:00:00	2024-11-06T07:00:00	7	Dirección del viento	1.61
150199	7	Sololá	701	Sololá	2	El tablón	4	Abril	2023-04-24T00:00:00	2024-11-06T07:00:00	1	Precipitación	0
150200	7	Sololá	701	Sololá	2	El tablón	4	Abril	2023-04-24T00:00:00	2024-11-06T07:00:00	8	Radiación solar	57
150201	7	Sololá	701	Sololá	2	El tablón	4	Abril	2023-04-24T00:00:00	2024-11-06T08:00:00	2	Temperatura media	13.3
150202	7	Sololá	701	Sololá	2	El tablón	4	Abril	2023-04-24T00:00:00	2024-11-06T08:00:00	4	Temperatura máxima	13.3
150203	7	Sololá	701	Sololá	2	El tablón	4	Abril	2023-04-24T00:00:00	2024-11-06T08:00:00	3	Temperatura mínima	11.1
150204	7	Sololá	701	Sololá	2	El tablón	4	Abril	2023-04-24T00:00:00	2024-11-06T08:00:00	5	Humedad	88
150205	7	Sololá	701	Sololá	2	El tablón	4	Abril	2023-04-24T00:00:00	2024-11-06T08:00:00	6	Velocidad del viento	1.6
150206	7	Sololá	701	Sololá	2	El tablón	4	Abril	2023-04-24T00:00:00	2024-11-06T08:00:00	7	Dirección del viento	1.61
150207	7	Sololá	701	Sololá	2	El tablón	4	Abril	2023-04-24T00:00:00	2024-11-06T08:00:00	1	Precipitación	0
150208	7	Sololá	701	Sololá	2	El tablón	4	Abril	2023-04-24T00:00:00	2024-11-06T08:00:00	8	Radiación solar	270
150209	7	Sololá	701	Sololá	2	El tablón	4	Abril	2023-04-24T00:00:00	2024-11-06T09:00:00	2	Temperatura media	14.4
150210	7	Sololá	701	Sololá	2	El tablón	4	Abril	2023-04-24T00:00:00	2024-11-06T09:00:00	4	Temperatura máxima	14.4
150211	7	Sololá	701	Sololá	2	El tablón	4	Abril	2023-04-24T00:00:00	2024-11-06T09:00:00	3	Temperatura mínima	13.3
150212	7	Sololá	701	Sololá	2	El tablón	4	Abril	2023-04-24T00:00:00	2024-11-06T09:00:00	5	Humedad	89
150213	7	Sololá	701	Sololá	2	El tablón	4	Abril	2023-04-24T00:00:00	2024-11-06T09:00:00	6	Velocidad del viento	4.8
150214	7	Sololá	701	Sololá	2	El tablón	4	Abril	2023-04-24T00:00:00	2024-11-06T09:00:00	7	Dirección del viento	4.83
150215	7	Sololá	701	Sololá	2	El tablón	4	Abril	2023-04-24T00:00:00	2024-11-06T09:00:00	1	Precipitación	0
150216	7	Sololá	701	Sololá	2	El tablón	4	Abril	2023-04-24T00:00:00	2024-11-06T09:00:00	8	Radiación solar	310
150217	7	Sololá	701	Sololá	2	El tablón	4	Abril	2023-04-24T00:00:00	2024-11-06T10:00:00	2	Temperatura media	15
150218	7	Sololá	701	Sololá	2	El tablón	4	Abril	2023-04-24T00:00:00	2024-11-06T10:00:00	4	Temperatura máxima	15
150219	7	Sololá	701	Sololá	2	El tablón	4	Abril	2023-04-24T00:00:00	2024-11-06T10:00:00	3	Temperatura mínima	14.4
150220	7	Sololá	701	Sololá	2	El tablón	4	Abril	2023-04-24T00:00:00	2024-11-06T10:00:00	5	Humedad	87
150221	7	Sololá	701	Sololá	2	El tablón	4	Abril	2023-04-24T00:00:00	2024-11-06T10:00:00	6	Velocidad del viento	4.8
150222	7	Sololá	701	Sololá	2	El tablón	4	Abril	2023-04-24T00:00:00	2024-11-06T10:00:00	7	Dirección del viento	4.83
150223	7	Sololá	701	Sololá	2	El tablón	4	Abril	2023-04-24T00:00:00	2024-11-06T10:00:00	1	Precipitación	0
150224	7	Sololá	701	Sololá	2	El tablón	4	Abril	2023-04-24T00:00:00	2024-11-06T10:00:00	8	Radiación solar	315
150225	7	Sololá	701	Sololá	2	El tablón	4	Abril	2023-04-24T00:00:00	2024-11-06T11:00:00	2	Temperatura media	17.3
150226	7	Sololá	701	Sololá	2	El tablón	4	Abril	2023-04-24T00:00:00	2024-11-06T11:00:00	4	Temperatura máxima	17.3
150227	7	Sololá	701	Sololá	2	El tablón	4	Abril	2023-04-24T00:00:00	2024-11-06T11:00:00	3	Temperatura mínima	15
150228	7	Sololá	701	Sololá	2	El tablón	4	Abril	2023-04-24T00:00:00	2024-11-06T11:00:00	5	Humedad	82
150229	7	Sololá	701	Sololá	2	El tablón	4	Abril	2023-04-24T00:00:00	2024-11-06T11:00:00	6	Velocidad del viento	4.8
150230	7	Sololá	701	Sololá	2	El tablón	4	Abril	2023-04-24T00:00:00	2024-11-06T11:00:00	7	Dirección del viento	4.83
150231	7	Sololá	701	Sololá	2	El tablón	4	Abril	2023-04-24T00:00:00	2024-11-06T11:00:00	1	Precipitación	0
150232	7	Sololá	701	Sololá	2	El tablón	4	Abril	2023-04-24T00:00:00	2024-11-06T11:00:00	8	Radiación solar	494
150233	7	Sololá	701	Sololá	2	El tablón	4	Abril	2023-04-24T00:00:00	2024-11-06T12:00:00	2	Temperatura media	17.3
150234	7	Sololá	701	Sololá	2	El tablón	4	Abril	2023-04-24T00:00:00	2024-11-06T12:00:00	4	Temperatura máxima	17.8
150235	7	Sololá	701	Sololá	2	El tablón	4	Abril	2023-04-24T00:00:00	2024-11-06T12:00:00	3	Temperatura mínima	16.5
150236	7	Sololá	701	Sololá	2	El tablón	4	Abril	2023-04-24T00:00:00	2024-11-06T12:00:00	5	Humedad	81
150237	7	Sololá	701	Sololá	2	El tablón	4	Abril	2023-04-24T00:00:00	2024-11-06T12:00:00	6	Velocidad del viento	8
150238	7	Sololá	701	Sololá	2	El tablón	4	Abril	2023-04-24T00:00:00	2024-11-06T12:00:00	7	Dirección del viento	8.05
150239	7	Sololá	701	Sololá	2	El tablón	4	Abril	2023-04-24T00:00:00	2024-11-06T12:00:00	1	Precipitación	0
150240	7	Sololá	701	Sololá	2	El tablón	4	Abril	2023-04-24T00:00:00	2024-11-06T12:00:00	8	Radiación solar	736
150241	7	Sololá	701	Sololá	2	El tablón	4	Abril	2023-04-24T00:00:00	2024-11-06T13:00:00	2	Temperatura media	17.3
150242	7	Sololá	701	Sololá	2	El tablón	4	Abril	2023-04-24T00:00:00	2024-11-06T13:00:00	4	Temperatura máxima	17.7
150243	7	Sololá	701	Sololá	2	El tablón	4	Abril	2023-04-24T00:00:00	2024-11-06T13:00:00	3	Temperatura mínima	16.7
150244	7	Sololá	701	Sololá	2	El tablón	4	Abril	2023-04-24T00:00:00	2024-11-06T13:00:00	5	Humedad	83
150245	7	Sololá	701	Sololá	2	El tablón	4	Abril	2023-04-24T00:00:00	2024-11-06T13:00:00	6	Velocidad del viento	8
150246	7	Sololá	701	Sololá	2	El tablón	4	Abril	2023-04-24T00:00:00	2024-11-06T13:00:00	7	Dirección del viento	8.05
150247	7	Sololá	701	Sololá	2	El tablón	4	Abril	2023-04-24T00:00:00	2024-11-06T13:00:00	1	Precipitación	0
150248	7	Sololá	701	Sololá	2	El tablón	4	Abril	2023-04-24T00:00:00	2024-11-06T13:00:00	8	Radiación solar	630
150249	7	Sololá	701	Sololá	2	El tablón	4	Abril	2023-04-24T00:00:00	2024-11-06T14:00:00	2	Temperatura media	15.9
150250	7	Sololá	701	Sololá	2	El tablón	4	Abril	2023-04-24T00:00:00	2024-11-06T14:00:00	4	Temperatura máxima	17.6
150251	7	Sololá	701	Sololá	2	El tablón	4	Abril	2023-04-24T00:00:00	2024-11-06T14:00:00	3	Temperatura mínima	15.9
150252	7	Sololá	701	Sololá	2	El tablón	4	Abril	2023-04-24T00:00:00	2024-11-06T14:00:00	5	Humedad	88
150253	7	Sololá	701	Sololá	2	El tablón	4	Abril	2023-04-24T00:00:00	2024-11-06T14:00:00	6	Velocidad del viento	8
150254	7	Sololá	701	Sololá	2	El tablón	4	Abril	2023-04-24T00:00:00	2024-11-06T14:00:00	7	Dirección del viento	8.05
150255	7	Sololá	701	Sololá	2	El tablón	4	Abril	2023-04-24T00:00:00	2024-11-06T14:00:00	1	Precipitación	0
150256	7	Sololá	701	Sololá	2	El tablón	4	Abril	2023-04-24T00:00:00	2024-11-06T14:00:00	8	Radiación solar	334
150257	7	Sololá	701	Sololá	2	El tablón	4	Abril	2023-04-24T00:00:00	2024-11-06T15:00:00	2	Temperatura media	14.7
150258	7	Sololá	701	Sololá	2	El tablón	4	Abril	2023-04-24T00:00:00	2024-11-06T15:00:00	4	Temperatura máxima	15.9
150259	7	Sololá	701	Sololá	2	El tablón	4	Abril	2023-04-24T00:00:00	2024-11-06T15:00:00	3	Temperatura mínima	14.7
150260	7	Sololá	701	Sololá	2	El tablón	4	Abril	2023-04-24T00:00:00	2024-11-06T15:00:00	5	Humedad	89
150261	7	Sololá	701	Sololá	2	El tablón	4	Abril	2023-04-24T00:00:00	2024-11-06T15:00:00	6	Velocidad del viento	9.7
150262	7	Sololá	701	Sololá	2	El tablón	4	Abril	2023-04-24T00:00:00	2024-11-06T15:00:00	7	Dirección del viento	9.66
150263	7	Sololá	701	Sololá	2	El tablón	4	Abril	2023-04-24T00:00:00	2024-11-06T15:00:00	1	Precipitación	0
150264	7	Sololá	701	Sololá	2	El tablón	4	Abril	2023-04-24T00:00:00	2024-11-06T15:00:00	8	Radiación solar	141
150265	7	Sololá	701	Sololá	2	El tablón	4	Abril	2023-04-24T00:00:00	2024-11-06T16:00:00	2	Temperatura media	12.5
150266	7	Sololá	701	Sololá	2	El tablón	4	Abril	2023-04-24T00:00:00	2024-11-06T16:00:00	4	Temperatura máxima	14.7
150267	7	Sololá	701	Sololá	2	El tablón	4	Abril	2023-04-24T00:00:00	2024-11-06T16:00:00	3	Temperatura mínima	12.5
150268	7	Sololá	701	Sololá	2	El tablón	4	Abril	2023-04-24T00:00:00	2024-11-06T16:00:00	5	Humedad	89
150269	7	Sololá	701	Sololá	2	El tablón	4	Abril	2023-04-24T00:00:00	2024-11-06T16:00:00	6	Velocidad del viento	8
150270	7	Sololá	701	Sololá	2	El tablón	4	Abril	2023-04-24T00:00:00	2024-11-06T16:00:00	7	Dirección del viento	8.05
150271	7	Sololá	701	Sololá	2	El tablón	4	Abril	2023-04-24T00:00:00	2024-11-06T16:00:00	1	Precipitación	5.2
150272	7	Sololá	701	Sololá	2	El tablón	4	Abril	2023-04-24T00:00:00	2024-11-06T16:00:00	8	Radiación solar	8
150273	7	Sololá	701	Sololá	2	El tablón	4	Abril	2023-04-24T00:00:00	2024-11-06T17:00:00	2	Temperatura media	11.8
150274	7	Sololá	701	Sololá	2	El tablón	4	Abril	2023-04-24T00:00:00	2024-11-06T17:00:00	4	Temperatura máxima	12.5
150275	7	Sololá	701	Sololá	2	El tablón	4	Abril	2023-04-24T00:00:00	2024-11-06T17:00:00	3	Temperatura mínima	11.8
150276	7	Sololá	701	Sololá	2	El tablón	4	Abril	2023-04-24T00:00:00	2024-11-06T17:00:00	5	Humedad	89
150277	7	Sololá	701	Sololá	2	El tablón	4	Abril	2023-04-24T00:00:00	2024-11-06T17:00:00	6	Velocidad del viento	3.2
150278	7	Sololá	701	Sololá	2	El tablón	4	Abril	2023-04-24T00:00:00	2024-11-06T17:00:00	7	Dirección del viento	3.22
150279	7	Sololá	701	Sololá	2	El tablón	4	Abril	2023-04-24T00:00:00	2024-11-06T17:00:00	1	Precipitación	5
150280	7	Sololá	701	Sololá	2	El tablón	4	Abril	2023-04-24T00:00:00	2024-11-06T17:00:00	8	Radiación solar	28
150281	7	Sololá	701	Sololá	2	El tablón	4	Abril	2023-04-24T00:00:00	2024-11-06T18:00:00	2	Temperatura media	12.3
150282	7	Sololá	701	Sololá	2	El tablón	4	Abril	2023-04-24T00:00:00	2024-11-06T18:00:00	4	Temperatura máxima	12.4
150283	7	Sololá	701	Sololá	2	El tablón	4	Abril	2023-04-24T00:00:00	2024-11-06T18:00:00	3	Temperatura mínima	11.7
150284	7	Sololá	701	Sololá	2	El tablón	4	Abril	2023-04-24T00:00:00	2024-11-06T18:00:00	5	Humedad	89
150285	7	Sololá	701	Sololá	2	El tablón	4	Abril	2023-04-24T00:00:00	2024-11-06T18:00:00	6	Velocidad del viento	3.2
150286	7	Sololá	701	Sololá	2	El tablón	4	Abril	2023-04-24T00:00:00	2024-11-06T18:00:00	7	Dirección del viento	3.22
150287	7	Sololá	701	Sololá	2	El tablón	4	Abril	2023-04-24T00:00:00	2024-11-06T18:00:00	1	Precipitación	1.2
150288	7	Sololá	701	Sololá	2	El tablón	4	Abril	2023-04-24T00:00:00	2024-11-06T18:00:00	8	Radiación solar	17
150289	7	Sololá	701	Sololá	2	El tablón	4	Abril	2023-04-24T00:00:00	2024-11-06T19:00:00	2	Temperatura media	12.8
150290	7	Sololá	701	Sololá	2	El tablón	4	Abril	2023-04-24T00:00:00	2024-11-06T19:00:00	4	Temperatura máxima	12.9
150291	7	Sololá	701	Sololá	2	El tablón	4	Abril	2023-04-24T00:00:00	2024-11-06T19:00:00	3	Temperatura mínima	12.4
150292	7	Sololá	701	Sololá	2	El tablón	4	Abril	2023-04-24T00:00:00	2024-11-06T19:00:00	5	Humedad	89
150293	7	Sololá	701	Sololá	2	El tablón	4	Abril	2023-04-24T00:00:00	2024-11-06T19:00:00	6	Velocidad del viento	1.6
150294	7	Sololá	701	Sololá	2	El tablón	4	Abril	2023-04-24T00:00:00	2024-11-06T19:00:00	7	Dirección del viento	1.61
150295	7	Sololá	701	Sololá	2	El tablón	4	Abril	2023-04-24T00:00:00	2024-11-06T19:00:00	1	Precipitación	0.2
150296	7	Sololá	701	Sololá	2	El tablón	4	Abril	2023-04-24T00:00:00	2024-11-06T19:00:00	8	Radiación solar	0
150297	7	Sololá	701	Sololá	2	El tablón	4	Abril	2023-04-24T00:00:00	2024-11-06T20:00:00	2	Temperatura media	12.7
150298	7	Sololá	701	Sololá	2	El tablón	4	Abril	2023-04-24T00:00:00	2024-11-06T20:00:00	4	Temperatura máxima	12.9
150299	7	Sololá	701	Sololá	2	El tablón	4	Abril	2023-04-24T00:00:00	2024-11-06T20:00:00	3	Temperatura mínima	12.7
150300	7	Sololá	701	Sololá	2	El tablón	4	Abril	2023-04-24T00:00:00	2024-11-06T20:00:00	5	Humedad	89
150301	7	Sololá	701	Sololá	2	El tablón	4	Abril	2023-04-24T00:00:00	2024-11-06T20:00:00	6	Velocidad del viento	1.6
150302	7	Sololá	701	Sololá	2	El tablón	4	Abril	2023-04-24T00:00:00	2024-11-06T20:00:00	7	Dirección del viento	1.61
150303	7	Sololá	701	Sololá	2	El tablón	4	Abril	2023-04-24T00:00:00	2024-11-06T20:00:00	1	Precipitación	0
150304	7	Sololá	701	Sololá	2	El tablón	4	Abril	2023-04-24T00:00:00	2024-11-06T20:00:00	8	Radiación solar	0
150305	7	Sololá	701	Sololá	2	El tablón	4	Abril	2023-04-24T00:00:00	2024-11-06T21:00:00	2	Temperatura media	13.3
150306	7	Sololá	701	Sololá	2	El tablón	4	Abril	2023-04-24T00:00:00	2024-11-06T21:00:00	4	Temperatura máxima	13.3
150307	7	Sololá	701	Sololá	2	El tablón	4	Abril	2023-04-24T00:00:00	2024-11-06T21:00:00	3	Temperatura mínima	12.7
150308	7	Sololá	701	Sololá	2	El tablón	4	Abril	2023-04-24T00:00:00	2024-11-06T21:00:00	5	Humedad	89
150309	7	Sololá	701	Sololá	2	El tablón	4	Abril	2023-04-24T00:00:00	2024-11-06T21:00:00	6	Velocidad del viento	3.2
150310	7	Sololá	701	Sololá	2	El tablón	4	Abril	2023-04-24T00:00:00	2024-11-06T21:00:00	7	Dirección del viento	3.22
150311	7	Sololá	701	Sololá	2	El tablón	4	Abril	2023-04-24T00:00:00	2024-11-06T21:00:00	1	Precipitación	0
150312	7	Sololá	701	Sololá	2	El tablón	4	Abril	2023-04-24T00:00:00	2024-11-06T21:00:00	8	Radiación solar	0
150313	7	Sololá	701	Sololá	2	El tablón	4	Abril	2023-04-24T00:00:00	2024-11-06T22:00:00	2	Temperatura media	12.8
150314	7	Sololá	701	Sololá	2	El tablón	4	Abril	2023-04-24T00:00:00	2024-11-06T22:00:00	4	Temperatura máxima	13.3
150315	7	Sololá	701	Sololá	2	El tablón	4	Abril	2023-04-24T00:00:00	2024-11-06T22:00:00	3	Temperatura mínima	12.7
150316	7	Sololá	701	Sololá	2	El tablón	4	Abril	2023-04-24T00:00:00	2024-11-06T22:00:00	5	Humedad	89
150317	7	Sololá	701	Sololá	2	El tablón	4	Abril	2023-04-24T00:00:00	2024-11-06T22:00:00	6	Velocidad del viento	1.6
150318	7	Sololá	701	Sololá	2	El tablón	4	Abril	2023-04-24T00:00:00	2024-11-06T22:00:00	7	Dirección del viento	1.61
150319	7	Sololá	701	Sololá	2	El tablón	4	Abril	2023-04-24T00:00:00	2024-11-06T22:00:00	1	Precipitación	0
150320	7	Sololá	701	Sololá	2	El tablón	4	Abril	2023-04-24T00:00:00	2024-11-06T22:00:00	8	Radiación solar	0
150321	7	Sololá	701	Sololá	2	El tablón	4	Abril	2023-04-24T00:00:00	2024-11-06T23:00:00	2	Temperatura media	12.5
150322	7	Sololá	701	Sololá	2	El tablón	4	Abril	2023-04-24T00:00:00	2024-11-06T23:00:00	4	Temperatura máxima	12.8
150323	7	Sololá	701	Sololá	2	El tablón	4	Abril	2023-04-24T00:00:00	2024-11-06T23:00:00	3	Temperatura mínima	12.5
150324	7	Sololá	701	Sololá	2	El tablón	4	Abril	2023-04-24T00:00:00	2024-11-06T23:00:00	5	Humedad	89
150325	7	Sololá	701	Sololá	2	El tablón	4	Abril	2023-04-24T00:00:00	2024-11-06T23:00:00	6	Velocidad del viento	1.6
150326	7	Sololá	701	Sololá	2	El tablón	4	Abril	2023-04-24T00:00:00	2024-11-06T23:00:00	7	Dirección del viento	1.61
150327	7	Sololá	701	Sololá	2	El tablón	4	Abril	2023-04-24T00:00:00	2024-11-06T23:00:00	1	Precipitación	0
150328	7	Sololá	701	Sololá	2	El tablón	4	Abril	2023-04-24T00:00:00	2024-11-06T23:00:00	8	Radiación solar	0
150329	7	Sololá	701	Sololá	2	El tablón	4	Abril	2023-04-25T00:00:00	2024-11-06T00:00:00	2	Temperatura media	11.7
150330	7	Sololá	701	Sololá	2	El tablón	4	Abril	2023-04-25T00:00:00	2024-11-06T00:00:00	4	Temperatura máxima	12.5
150331	7	Sololá	701	Sololá	2	El tablón	4	Abril	2023-04-25T00:00:00	2024-11-06T00:00:00	3	Temperatura mínima	11.7
150332	7	Sololá	701	Sololá	2	El tablón	4	Abril	2023-04-25T00:00:00	2024-11-06T00:00:00	5	Humedad	89
150333	7	Sololá	701	Sololá	2	El tablón	4	Abril	2023-04-25T00:00:00	2024-11-06T00:00:00	6	Velocidad del viento	3.2
150334	7	Sololá	701	Sololá	2	El tablón	4	Abril	2023-04-25T00:00:00	2024-11-06T00:00:00	7	Dirección del viento	3.22
150335	7	Sololá	701	Sololá	2	El tablón	4	Abril	2023-04-25T00:00:00	2024-11-06T00:00:00	1	Precipitación	0
150336	7	Sololá	701	Sololá	2	El tablón	4	Abril	2023-04-25T00:00:00	2024-11-06T00:00:00	8	Radiación solar	0
150337	7	Sololá	701	Sololá	2	El tablón	4	Abril	2023-04-25T00:00:00	2024-11-06T01:00:00	2	Temperatura media	11.3
150338	7	Sololá	701	Sololá	2	El tablón	4	Abril	2023-04-25T00:00:00	2024-11-06T01:00:00	4	Temperatura máxima	11.7
150339	7	Sololá	701	Sololá	2	El tablón	4	Abril	2023-04-25T00:00:00	2024-11-06T01:00:00	3	Temperatura mínima	11.3
150340	7	Sololá	701	Sololá	2	El tablón	4	Abril	2023-04-25T00:00:00	2024-11-06T01:00:00	5	Humedad	89
150341	7	Sololá	701	Sololá	2	El tablón	4	Abril	2023-04-25T00:00:00	2024-11-06T01:00:00	6	Velocidad del viento	3.2
150342	7	Sololá	701	Sololá	2	El tablón	4	Abril	2023-04-25T00:00:00	2024-11-06T01:00:00	7	Dirección del viento	3.22
150343	7	Sololá	701	Sololá	2	El tablón	4	Abril	2023-04-25T00:00:00	2024-11-06T01:00:00	1	Precipitación	0
150344	7	Sololá	701	Sololá	2	El tablón	4	Abril	2023-04-25T00:00:00	2024-11-06T01:00:00	8	Radiación solar	0
150345	7	Sololá	701	Sololá	2	El tablón	4	Abril	2023-04-25T00:00:00	2024-11-06T02:00:00	2	Temperatura media	10.9
150346	7	Sololá	701	Sololá	2	El tablón	4	Abril	2023-04-25T00:00:00	2024-11-06T02:00:00	4	Temperatura máxima	11.4
150347	7	Sololá	701	Sololá	2	El tablón	4	Abril	2023-04-25T00:00:00	2024-11-06T02:00:00	3	Temperatura mínima	10.9
150348	7	Sololá	701	Sololá	2	El tablón	4	Abril	2023-04-25T00:00:00	2024-11-06T02:00:00	5	Humedad	89
150349	7	Sololá	701	Sololá	2	El tablón	4	Abril	2023-04-25T00:00:00	2024-11-06T02:00:00	6	Velocidad del viento	3.2
150350	7	Sololá	701	Sololá	2	El tablón	4	Abril	2023-04-25T00:00:00	2024-11-06T02:00:00	7	Dirección del viento	3.22
150351	7	Sololá	701	Sololá	2	El tablón	4	Abril	2023-04-25T00:00:00	2024-11-06T02:00:00	1	Precipitación	0
150352	7	Sololá	701	Sololá	2	El tablón	4	Abril	2023-04-25T00:00:00	2024-11-06T02:00:00	8	Radiación solar	0
150353	7	Sololá	701	Sololá	2	El tablón	4	Abril	2023-04-25T00:00:00	2024-11-06T03:00:00	2	Temperatura media	11.2
150354	7	Sololá	701	Sololá	2	El tablón	4	Abril	2023-04-25T00:00:00	2024-11-06T03:00:00	4	Temperatura máxima	11.3
150355	7	Sololá	701	Sololá	2	El tablón	4	Abril	2023-04-25T00:00:00	2024-11-06T03:00:00	3	Temperatura mínima	10.9
150356	7	Sololá	701	Sololá	2	El tablón	4	Abril	2023-04-25T00:00:00	2024-11-06T03:00:00	5	Humedad	88
150357	7	Sololá	701	Sololá	2	El tablón	4	Abril	2023-04-25T00:00:00	2024-11-06T03:00:00	6	Velocidad del viento	3.2
150358	7	Sololá	701	Sololá	2	El tablón	4	Abril	2023-04-25T00:00:00	2024-11-06T03:00:00	7	Dirección del viento	3.22
150359	7	Sololá	701	Sololá	2	El tablón	4	Abril	2023-04-25T00:00:00	2024-11-06T03:00:00	1	Precipitación	0
150360	7	Sololá	701	Sololá	2	El tablón	4	Abril	2023-04-25T00:00:00	2024-11-06T03:00:00	8	Radiación solar	0
150361	7	Sololá	701	Sololá	2	El tablón	4	Abril	2023-04-25T00:00:00	2024-11-06T04:00:00	2	Temperatura media	10.6
150362	7	Sololá	701	Sololá	2	El tablón	4	Abril	2023-04-25T00:00:00	2024-11-06T04:00:00	4	Temperatura máxima	11.2
150363	7	Sololá	701	Sololá	2	El tablón	4	Abril	2023-04-25T00:00:00	2024-11-06T04:00:00	3	Temperatura mínima	10.4
150364	7	Sololá	701	Sololá	2	El tablón	4	Abril	2023-04-25T00:00:00	2024-11-06T04:00:00	5	Humedad	89
150365	7	Sololá	701	Sololá	2	El tablón	4	Abril	2023-04-25T00:00:00	2024-11-06T04:00:00	6	Velocidad del viento	3.2
150366	7	Sololá	701	Sololá	2	El tablón	4	Abril	2023-04-25T00:00:00	2024-11-06T04:00:00	7	Dirección del viento	3.22
150367	7	Sololá	701	Sololá	2	El tablón	4	Abril	2023-04-25T00:00:00	2024-11-06T04:00:00	1	Precipitación	0
150368	7	Sololá	701	Sololá	2	El tablón	4	Abril	2023-04-25T00:00:00	2024-11-06T04:00:00	8	Radiación solar	0
150369	7	Sololá	701	Sololá	2	El tablón	4	Abril	2023-04-25T00:00:00	2024-11-06T05:00:00	2	Temperatura media	10.4
150370	7	Sololá	701	Sololá	2	El tablón	4	Abril	2023-04-25T00:00:00	2024-11-06T05:00:00	4	Temperatura máxima	11
150371	7	Sololá	701	Sololá	2	El tablón	4	Abril	2023-04-25T00:00:00	2024-11-06T05:00:00	3	Temperatura mínima	10.4
150372	7	Sololá	701	Sololá	2	El tablón	4	Abril	2023-04-25T00:00:00	2024-11-06T05:00:00	5	Humedad	89
150373	7	Sololá	701	Sololá	2	El tablón	4	Abril	2023-04-25T00:00:00	2024-11-06T05:00:00	6	Velocidad del viento	3.2
150374	7	Sololá	701	Sololá	2	El tablón	4	Abril	2023-04-25T00:00:00	2024-11-06T05:00:00	7	Dirección del viento	3.22
150375	7	Sololá	701	Sololá	2	El tablón	4	Abril	2023-04-25T00:00:00	2024-11-06T05:00:00	1	Precipitación	0
150376	7	Sololá	701	Sololá	2	El tablón	4	Abril	2023-04-25T00:00:00	2024-11-06T05:00:00	8	Radiación solar	0
150377	7	Sololá	701	Sololá	2	El tablón	4	Abril	2023-04-25T00:00:00	2024-11-06T06:00:00	2	Temperatura media	10.2
150378	7	Sololá	701	Sololá	2	El tablón	4	Abril	2023-04-25T00:00:00	2024-11-06T06:00:00	4	Temperatura máxima	10.5
150379	7	Sololá	701	Sololá	2	El tablón	4	Abril	2023-04-25T00:00:00	2024-11-06T06:00:00	3	Temperatura mínima	10.2
150380	7	Sololá	701	Sololá	2	El tablón	4	Abril	2023-04-25T00:00:00	2024-11-06T06:00:00	5	Humedad	89
150381	7	Sololá	701	Sololá	2	El tablón	4	Abril	2023-04-25T00:00:00	2024-11-06T06:00:00	6	Velocidad del viento	3.2
150382	7	Sololá	701	Sololá	2	El tablón	4	Abril	2023-04-25T00:00:00	2024-11-06T06:00:00	7	Dirección del viento	3.22
150383	7	Sololá	701	Sololá	2	El tablón	4	Abril	2023-04-25T00:00:00	2024-11-06T06:00:00	1	Precipitación	0
150384	7	Sololá	701	Sololá	2	El tablón	4	Abril	2023-04-25T00:00:00	2024-11-06T06:00:00	8	Radiación solar	2
150385	7	Sololá	701	Sololá	2	El tablón	4	Abril	2023-04-25T00:00:00	2024-11-06T07:00:00	2	Temperatura media	12.8
150386	7	Sololá	701	Sololá	2	El tablón	4	Abril	2023-04-25T00:00:00	2024-11-06T07:00:00	4	Temperatura máxima	12.8
150387	7	Sololá	701	Sololá	2	El tablón	4	Abril	2023-04-25T00:00:00	2024-11-06T07:00:00	3	Temperatura mínima	10.2
150388	7	Sololá	701	Sololá	2	El tablón	4	Abril	2023-04-25T00:00:00	2024-11-06T07:00:00	5	Humedad	86
150389	7	Sololá	701	Sololá	2	El tablón	4	Abril	2023-04-25T00:00:00	2024-11-06T07:00:00	6	Velocidad del viento	1.6
150390	7	Sololá	701	Sololá	2	El tablón	4	Abril	2023-04-25T00:00:00	2024-11-06T07:00:00	7	Dirección del viento	1.61
150391	7	Sololá	701	Sololá	2	El tablón	4	Abril	2023-04-25T00:00:00	2024-11-06T07:00:00	1	Precipitación	0
150392	7	Sololá	701	Sololá	2	El tablón	4	Abril	2023-04-25T00:00:00	2024-11-06T07:00:00	8	Radiación solar	86
150393	7	Sololá	701	Sololá	2	El tablón	4	Abril	2023-04-25T00:00:00	2024-11-06T08:00:00	2	Temperatura media	15
150394	7	Sololá	701	Sololá	2	El tablón	4	Abril	2023-04-25T00:00:00	2024-11-06T08:00:00	4	Temperatura máxima	15
150395	7	Sololá	701	Sololá	2	El tablón	4	Abril	2023-04-25T00:00:00	2024-11-06T08:00:00	3	Temperatura mínima	12.8
150396	7	Sololá	701	Sololá	2	El tablón	4	Abril	2023-04-25T00:00:00	2024-11-06T08:00:00	5	Humedad	79
150397	7	Sololá	701	Sololá	2	El tablón	4	Abril	2023-04-25T00:00:00	2024-11-06T08:00:00	6	Velocidad del viento	0
150398	7	Sololá	701	Sololá	2	El tablón	4	Abril	2023-04-25T00:00:00	2024-11-06T08:00:00	7	Dirección del viento	0
150399	7	Sololá	701	Sololá	2	El tablón	4	Abril	2023-04-25T00:00:00	2024-11-06T08:00:00	1	Precipitación	0
150400	7	Sololá	701	Sololá	2	El tablón	4	Abril	2023-04-25T00:00:00	2024-11-06T08:00:00	8	Radiación solar	288
150401	7	Sololá	701	Sololá	2	El tablón	4	Abril	2023-04-25T00:00:00	2024-11-06T09:00:00	2	Temperatura media	18.2
150402	7	Sololá	701	Sololá	2	El tablón	4	Abril	2023-04-25T00:00:00	2024-11-06T09:00:00	4	Temperatura máxima	18.2
150403	7	Sololá	701	Sololá	2	El tablón	4	Abril	2023-04-25T00:00:00	2024-11-06T09:00:00	3	Temperatura mínima	15
150404	7	Sololá	701	Sololá	2	El tablón	4	Abril	2023-04-25T00:00:00	2024-11-06T09:00:00	5	Humedad	69
150405	7	Sololá	701	Sololá	2	El tablón	4	Abril	2023-04-25T00:00:00	2024-11-06T09:00:00	6	Velocidad del viento	1.6
150406	7	Sololá	701	Sololá	2	El tablón	4	Abril	2023-04-25T00:00:00	2024-11-06T09:00:00	7	Dirección del viento	1.61
150407	7	Sololá	701	Sololá	2	El tablón	4	Abril	2023-04-25T00:00:00	2024-11-06T09:00:00	1	Precipitación	0
150408	7	Sololá	701	Sololá	2	El tablón	4	Abril	2023-04-25T00:00:00	2024-11-06T09:00:00	8	Radiación solar	502
150409	7	Sololá	701	Sololá	2	El tablón	4	Abril	2023-04-25T00:00:00	2024-11-06T10:00:00	2	Temperatura media	18.8
150410	7	Sololá	701	Sololá	2	El tablón	4	Abril	2023-04-25T00:00:00	2024-11-06T10:00:00	4	Temperatura máxima	18.9
150411	7	Sololá	701	Sololá	2	El tablón	4	Abril	2023-04-25T00:00:00	2024-11-06T10:00:00	3	Temperatura mínima	18.3
150412	7	Sololá	701	Sololá	2	El tablón	4	Abril	2023-04-25T00:00:00	2024-11-06T10:00:00	5	Humedad	68
150413	7	Sololá	701	Sololá	2	El tablón	4	Abril	2023-04-25T00:00:00	2024-11-06T10:00:00	6	Velocidad del viento	3.2
150414	7	Sololá	701	Sololá	2	El tablón	4	Abril	2023-04-25T00:00:00	2024-11-06T10:00:00	7	Dirección del viento	3.22
150415	7	Sololá	701	Sololá	2	El tablón	4	Abril	2023-04-25T00:00:00	2024-11-06T10:00:00	1	Precipitación	0
150416	7	Sololá	701	Sololá	2	El tablón	4	Abril	2023-04-25T00:00:00	2024-11-06T10:00:00	8	Radiación solar	702
150417	7	Sololá	701	Sololá	2	El tablón	4	Abril	2023-04-25T00:00:00	2024-11-06T11:00:00	2	Temperatura media	18.8
150418	7	Sololá	701	Sololá	2	El tablón	4	Abril	2023-04-25T00:00:00	2024-11-06T11:00:00	4	Temperatura máxima	19.1
150419	7	Sololá	701	Sololá	2	El tablón	4	Abril	2023-04-25T00:00:00	2024-11-06T11:00:00	3	Temperatura mínima	18.4
150420	7	Sololá	701	Sololá	2	El tablón	4	Abril	2023-04-25T00:00:00	2024-11-06T11:00:00	5	Humedad	68
150421	7	Sololá	701	Sololá	2	El tablón	4	Abril	2023-04-25T00:00:00	2024-11-06T11:00:00	6	Velocidad del viento	6.4
150422	7	Sololá	701	Sololá	2	El tablón	4	Abril	2023-04-25T00:00:00	2024-11-06T11:00:00	7	Dirección del viento	6.44
150423	7	Sololá	701	Sololá	2	El tablón	4	Abril	2023-04-25T00:00:00	2024-11-06T11:00:00	1	Precipitación	0
150424	7	Sololá	701	Sololá	2	El tablón	4	Abril	2023-04-25T00:00:00	2024-11-06T11:00:00	8	Radiación solar	853
150425	7	Sololá	701	Sololá	2	El tablón	4	Abril	2023-04-25T00:00:00	2024-11-06T12:00:00	2	Temperatura media	19.1
150426	7	Sololá	701	Sololá	2	El tablón	4	Abril	2023-04-25T00:00:00	2024-11-06T12:00:00	4	Temperatura máxima	19.3
150427	7	Sololá	701	Sololá	2	El tablón	4	Abril	2023-04-25T00:00:00	2024-11-06T12:00:00	3	Temperatura mínima	18.8
150428	7	Sololá	701	Sololá	2	El tablón	4	Abril	2023-04-25T00:00:00	2024-11-06T12:00:00	5	Humedad	71
150429	7	Sololá	701	Sololá	2	El tablón	4	Abril	2023-04-25T00:00:00	2024-11-06T12:00:00	6	Velocidad del viento	8
150430	7	Sololá	701	Sololá	2	El tablón	4	Abril	2023-04-25T00:00:00	2024-11-06T12:00:00	7	Dirección del viento	8.05
150431	7	Sololá	701	Sololá	2	El tablón	4	Abril	2023-04-25T00:00:00	2024-11-06T12:00:00	1	Precipitación	0
150432	7	Sololá	701	Sololá	2	El tablón	4	Abril	2023-04-25T00:00:00	2024-11-06T12:00:00	8	Radiación solar	988
150433	7	Sololá	701	Sololá	2	El tablón	4	Abril	2023-04-25T00:00:00	2024-11-06T13:00:00	2	Temperatura media	17.8
150434	7	Sololá	701	Sololá	2	El tablón	4	Abril	2023-04-25T00:00:00	2024-11-06T13:00:00	4	Temperatura máxima	19.1
150435	7	Sololá	701	Sololá	2	El tablón	4	Abril	2023-04-25T00:00:00	2024-11-06T13:00:00	3	Temperatura mínima	17.5
150436	7	Sololá	701	Sololá	2	El tablón	4	Abril	2023-04-25T00:00:00	2024-11-06T13:00:00	5	Humedad	85
150437	7	Sololá	701	Sololá	2	El tablón	4	Abril	2023-04-25T00:00:00	2024-11-06T13:00:00	6	Velocidad del viento	8
150438	7	Sololá	701	Sololá	2	El tablón	4	Abril	2023-04-25T00:00:00	2024-11-06T13:00:00	7	Dirección del viento	8.05
150439	7	Sololá	701	Sololá	2	El tablón	4	Abril	2023-04-25T00:00:00	2024-11-06T13:00:00	1	Precipitación	0
150440	7	Sololá	701	Sololá	2	El tablón	4	Abril	2023-04-25T00:00:00	2024-11-06T13:00:00	8	Radiación solar	469
150441	7	Sololá	701	Sololá	2	El tablón	4	Abril	2023-04-25T00:00:00	2024-11-06T14:00:00	2	Temperatura media	16.8
150442	7	Sololá	701	Sololá	2	El tablón	4	Abril	2023-04-25T00:00:00	2024-11-06T14:00:00	4	Temperatura máxima	18.3
150443	7	Sololá	701	Sololá	2	El tablón	4	Abril	2023-04-25T00:00:00	2024-11-06T14:00:00	3	Temperatura mínima	16.8
150444	7	Sololá	701	Sololá	2	El tablón	4	Abril	2023-04-25T00:00:00	2024-11-06T14:00:00	5	Humedad	86
150445	7	Sololá	701	Sololá	2	El tablón	4	Abril	2023-04-25T00:00:00	2024-11-06T14:00:00	6	Velocidad del viento	8
150446	7	Sololá	701	Sololá	2	El tablón	4	Abril	2023-04-25T00:00:00	2024-11-06T14:00:00	7	Dirección del viento	8.05
150447	7	Sololá	701	Sololá	2	El tablón	4	Abril	2023-04-25T00:00:00	2024-11-06T14:00:00	1	Precipitación	0
150448	7	Sololá	701	Sololá	2	El tablón	4	Abril	2023-04-25T00:00:00	2024-11-06T14:00:00	8	Radiación solar	359
150449	7	Sololá	701	Sololá	2	El tablón	4	Abril	2023-04-25T00:00:00	2024-11-06T15:00:00	2	Temperatura media	16.9
150450	7	Sololá	701	Sololá	2	El tablón	4	Abril	2023-04-25T00:00:00	2024-11-06T15:00:00	4	Temperatura máxima	17.2
150451	7	Sololá	701	Sololá	2	El tablón	4	Abril	2023-04-25T00:00:00	2024-11-06T15:00:00	3	Temperatura mínima	16.4
150452	7	Sololá	701	Sololá	2	El tablón	4	Abril	2023-04-25T00:00:00	2024-11-06T15:00:00	5	Humedad	87
150453	7	Sololá	701	Sololá	2	El tablón	4	Abril	2023-04-25T00:00:00	2024-11-06T15:00:00	6	Velocidad del viento	4.8
150454	7	Sololá	701	Sololá	2	El tablón	4	Abril	2023-04-25T00:00:00	2024-11-06T15:00:00	7	Dirección del viento	4.83
150455	7	Sololá	701	Sololá	2	El tablón	4	Abril	2023-04-25T00:00:00	2024-11-06T15:00:00	1	Precipitación	0
150456	7	Sololá	701	Sololá	2	El tablón	4	Abril	2023-04-25T00:00:00	2024-11-06T15:00:00	8	Radiación solar	244
150457	7	Sololá	701	Sololá	2	El tablón	4	Abril	2023-04-25T00:00:00	2024-11-06T16:00:00	2	Temperatura media	16.3
150458	7	Sololá	701	Sololá	2	El tablón	4	Abril	2023-04-25T00:00:00	2024-11-06T16:00:00	4	Temperatura máxima	16.9
150459	7	Sololá	701	Sololá	2	El tablón	4	Abril	2023-04-25T00:00:00	2024-11-06T16:00:00	3	Temperatura mínima	16.3
150460	7	Sololá	701	Sololá	2	El tablón	4	Abril	2023-04-25T00:00:00	2024-11-06T16:00:00	5	Humedad	88
150461	7	Sololá	701	Sololá	2	El tablón	4	Abril	2023-04-25T00:00:00	2024-11-06T16:00:00	6	Velocidad del viento	4.8
150462	7	Sololá	701	Sololá	2	El tablón	4	Abril	2023-04-25T00:00:00	2024-11-06T16:00:00	7	Dirección del viento	4.83
150463	7	Sololá	701	Sololá	2	El tablón	4	Abril	2023-04-25T00:00:00	2024-11-06T16:00:00	1	Precipitación	0
150464	7	Sololá	701	Sololá	2	El tablón	4	Abril	2023-04-25T00:00:00	2024-11-06T16:00:00	8	Radiación solar	179
150465	7	Sololá	701	Sololá	2	El tablón	4	Abril	2023-04-25T00:00:00	2024-11-06T17:00:00	2	Temperatura media	15.2
150466	7	Sololá	701	Sololá	2	El tablón	4	Abril	2023-04-25T00:00:00	2024-11-06T17:00:00	4	Temperatura máxima	16.3
150467	7	Sololá	701	Sololá	2	El tablón	4	Abril	2023-04-25T00:00:00	2024-11-06T17:00:00	3	Temperatura mínima	15.1
150468	7	Sololá	701	Sololá	2	El tablón	4	Abril	2023-04-25T00:00:00	2024-11-06T17:00:00	5	Humedad	89
150469	7	Sololá	701	Sololá	2	El tablón	4	Abril	2023-04-25T00:00:00	2024-11-06T17:00:00	6	Velocidad del viento	3.2
150470	7	Sololá	701	Sololá	2	El tablón	4	Abril	2023-04-25T00:00:00	2024-11-06T17:00:00	7	Dirección del viento	3.22
150471	7	Sololá	701	Sololá	2	El tablón	4	Abril	2023-04-25T00:00:00	2024-11-06T17:00:00	1	Precipitación	0
150472	7	Sololá	701	Sololá	2	El tablón	4	Abril	2023-04-25T00:00:00	2024-11-06T17:00:00	8	Radiación solar	68
150473	7	Sololá	701	Sololá	2	El tablón	4	Abril	2023-04-25T00:00:00	2024-11-06T18:00:00	2	Temperatura media	15.2
150474	7	Sololá	701	Sololá	2	El tablón	4	Abril	2023-04-25T00:00:00	2024-11-06T18:00:00	4	Temperatura máxima	15.3
150475	7	Sololá	701	Sololá	2	El tablón	4	Abril	2023-04-25T00:00:00	2024-11-06T18:00:00	3	Temperatura mínima	15.1
150476	7	Sololá	701	Sololá	2	El tablón	4	Abril	2023-04-25T00:00:00	2024-11-06T18:00:00	5	Humedad	89
150477	7	Sololá	701	Sololá	2	El tablón	4	Abril	2023-04-25T00:00:00	2024-11-06T18:00:00	6	Velocidad del viento	1.6
150478	7	Sololá	701	Sololá	2	El tablón	4	Abril	2023-04-25T00:00:00	2024-11-06T18:00:00	7	Dirección del viento	1.61
150479	7	Sololá	701	Sololá	2	El tablón	4	Abril	2023-04-25T00:00:00	2024-11-06T18:00:00	1	Precipitación	0
150480	7	Sololá	701	Sololá	2	El tablón	4	Abril	2023-04-25T00:00:00	2024-11-06T18:00:00	8	Radiación solar	44
150481	7	Sololá	701	Sololá	2	El tablón	4	Abril	2023-04-25T00:00:00	2024-11-06T19:00:00	2	Temperatura media	14.8
150482	7	Sololá	701	Sololá	2	El tablón	4	Abril	2023-04-25T00:00:00	2024-11-06T19:00:00	4	Temperatura máxima	15.2
150483	7	Sololá	701	Sololá	2	El tablón	4	Abril	2023-04-25T00:00:00	2024-11-06T19:00:00	3	Temperatura mínima	14.8
150484	7	Sololá	701	Sololá	2	El tablón	4	Abril	2023-04-25T00:00:00	2024-11-06T19:00:00	5	Humedad	89
150485	7	Sololá	701	Sololá	2	El tablón	4	Abril	2023-04-25T00:00:00	2024-11-06T19:00:00	6	Velocidad del viento	1.6
150486	7	Sololá	701	Sololá	2	El tablón	4	Abril	2023-04-25T00:00:00	2024-11-06T19:00:00	7	Dirección del viento	1.61
150487	7	Sololá	701	Sololá	2	El tablón	4	Abril	2023-04-25T00:00:00	2024-11-06T19:00:00	1	Precipitación	0
150488	7	Sololá	701	Sololá	2	El tablón	4	Abril	2023-04-25T00:00:00	2024-11-06T19:00:00	8	Radiación solar	0
150489	7	Sololá	701	Sololá	2	El tablón	4	Abril	2023-04-25T00:00:00	2024-11-06T20:00:00	2	Temperatura media	14.7
150490	7	Sololá	701	Sololá	2	El tablón	4	Abril	2023-04-25T00:00:00	2024-11-06T20:00:00	4	Temperatura máxima	14.9
150491	7	Sololá	701	Sololá	2	El tablón	4	Abril	2023-04-25T00:00:00	2024-11-06T20:00:00	3	Temperatura mínima	14.7
150492	7	Sololá	701	Sololá	2	El tablón	4	Abril	2023-04-25T00:00:00	2024-11-06T20:00:00	5	Humedad	89
150493	7	Sololá	701	Sololá	2	El tablón	4	Abril	2023-04-25T00:00:00	2024-11-06T20:00:00	6	Velocidad del viento	0
150494	7	Sololá	701	Sololá	2	El tablón	4	Abril	2023-04-25T00:00:00	2024-11-06T20:00:00	7	Dirección del viento	0
150495	7	Sololá	701	Sololá	2	El tablón	4	Abril	2023-04-25T00:00:00	2024-11-06T20:00:00	1	Precipitación	0
150496	7	Sololá	701	Sololá	2	El tablón	4	Abril	2023-04-25T00:00:00	2024-11-06T20:00:00	8	Radiación solar	0
150497	7	Sololá	701	Sololá	2	El tablón	4	Abril	2023-04-25T00:00:00	2024-11-06T21:00:00	2	Temperatura media	14
150498	7	Sololá	701	Sololá	2	El tablón	4	Abril	2023-04-25T00:00:00	2024-11-06T21:00:00	4	Temperatura máxima	14.6
150499	7	Sololá	701	Sololá	2	El tablón	4	Abril	2023-04-25T00:00:00	2024-11-06T21:00:00	3	Temperatura mínima	14
150500	7	Sololá	701	Sololá	2	El tablón	4	Abril	2023-04-25T00:00:00	2024-11-06T21:00:00	5	Humedad	89
150501	7	Sololá	701	Sololá	2	El tablón	4	Abril	2023-04-25T00:00:00	2024-11-06T21:00:00	6	Velocidad del viento	0
150502	7	Sololá	701	Sololá	2	El tablón	4	Abril	2023-04-25T00:00:00	2024-11-06T21:00:00	7	Dirección del viento	0
150503	7	Sololá	701	Sololá	2	El tablón	4	Abril	2023-04-25T00:00:00	2024-11-06T21:00:00	1	Precipitación	0
150504	7	Sololá	701	Sololá	2	El tablón	4	Abril	2023-04-25T00:00:00	2024-11-06T21:00:00	8	Radiación solar	0
150505	7	Sololá	701	Sololá	2	El tablón	4	Abril	2023-04-25T00:00:00	2024-11-06T22:00:00	2	Temperatura media	13.1
150506	7	Sololá	701	Sololá	2	El tablón	4	Abril	2023-04-25T00:00:00	2024-11-06T22:00:00	4	Temperatura máxima	14
150507	7	Sololá	701	Sololá	2	El tablón	4	Abril	2023-04-25T00:00:00	2024-11-06T22:00:00	3	Temperatura mínima	13.1
150508	7	Sololá	701	Sololá	2	El tablón	4	Abril	2023-04-25T00:00:00	2024-11-06T22:00:00	5	Humedad	89
150509	7	Sololá	701	Sololá	2	El tablón	4	Abril	2023-04-25T00:00:00	2024-11-06T22:00:00	6	Velocidad del viento	1.6
150510	7	Sololá	701	Sololá	2	El tablón	4	Abril	2023-04-25T00:00:00	2024-11-06T22:00:00	7	Dirección del viento	1.61
150511	7	Sololá	701	Sololá	2	El tablón	4	Abril	2023-04-25T00:00:00	2024-11-06T22:00:00	1	Precipitación	0
150512	7	Sololá	701	Sololá	2	El tablón	4	Abril	2023-04-25T00:00:00	2024-11-06T22:00:00	8	Radiación solar	0
150513	7	Sololá	701	Sololá	2	El tablón	4	Abril	2023-04-25T00:00:00	2024-11-06T23:00:00	2	Temperatura media	12.7
150514	7	Sololá	701	Sololá	2	El tablón	4	Abril	2023-04-25T00:00:00	2024-11-06T23:00:00	4	Temperatura máxima	13.1
150515	7	Sololá	701	Sololá	2	El tablón	4	Abril	2023-04-25T00:00:00	2024-11-06T23:00:00	3	Temperatura mínima	12.7
150516	7	Sololá	701	Sololá	2	El tablón	4	Abril	2023-04-25T00:00:00	2024-11-06T23:00:00	5	Humedad	89
150517	7	Sololá	701	Sololá	2	El tablón	4	Abril	2023-04-25T00:00:00	2024-11-06T23:00:00	6	Velocidad del viento	1.6
150518	7	Sololá	701	Sololá	2	El tablón	4	Abril	2023-04-25T00:00:00	2024-11-06T23:00:00	7	Dirección del viento	1.61
150519	7	Sololá	701	Sololá	2	El tablón	4	Abril	2023-04-25T00:00:00	2024-11-06T23:00:00	1	Precipitación	0
150520	7	Sololá	701	Sololá	2	El tablón	4	Abril	2023-04-25T00:00:00	2024-11-06T23:00:00	8	Radiación solar	0
150521	7	Sololá	701	Sololá	2	El tablón	4	Abril	2023-04-26T00:00:00	2024-11-06T00:00:00	2	Temperatura media	13.2
150522	7	Sololá	701	Sololá	2	El tablón	4	Abril	2023-04-26T00:00:00	2024-11-06T00:00:00	4	Temperatura máxima	13.3
150523	7	Sololá	701	Sololá	2	El tablón	4	Abril	2023-04-26T00:00:00	2024-11-06T00:00:00	3	Temperatura mínima	12.6
150524	7	Sololá	701	Sololá	2	El tablón	4	Abril	2023-04-26T00:00:00	2024-11-06T00:00:00	5	Humedad	88
150525	7	Sololá	701	Sololá	2	El tablón	4	Abril	2023-04-26T00:00:00	2024-11-06T00:00:00	6	Velocidad del viento	0
150526	7	Sololá	701	Sololá	2	El tablón	4	Abril	2023-04-26T00:00:00	2024-11-06T00:00:00	7	Dirección del viento	0
150527	7	Sololá	701	Sololá	2	El tablón	4	Abril	2023-04-26T00:00:00	2024-11-06T00:00:00	1	Precipitación	0
150528	7	Sololá	701	Sololá	2	El tablón	4	Abril	2023-04-26T00:00:00	2024-11-06T00:00:00	8	Radiación solar	0
150529	7	Sololá	701	Sololá	2	El tablón	4	Abril	2023-04-26T00:00:00	2024-11-06T01:00:00	2	Temperatura media	13.1
150530	7	Sololá	701	Sololá	2	El tablón	4	Abril	2023-04-26T00:00:00	2024-11-06T01:00:00	4	Temperatura máxima	13.3
150531	7	Sololá	701	Sololá	2	El tablón	4	Abril	2023-04-26T00:00:00	2024-11-06T01:00:00	3	Temperatura mínima	13.1
150532	7	Sololá	701	Sololá	2	El tablón	4	Abril	2023-04-26T00:00:00	2024-11-06T01:00:00	5	Humedad	89
150533	7	Sololá	701	Sololá	2	El tablón	4	Abril	2023-04-26T00:00:00	2024-11-06T01:00:00	6	Velocidad del viento	1.6
150534	7	Sololá	701	Sololá	2	El tablón	4	Abril	2023-04-26T00:00:00	2024-11-06T01:00:00	7	Dirección del viento	1.61
150535	7	Sololá	701	Sololá	2	El tablón	4	Abril	2023-04-26T00:00:00	2024-11-06T01:00:00	1	Precipitación	0
150536	7	Sololá	701	Sololá	2	El tablón	4	Abril	2023-04-26T00:00:00	2024-11-06T01:00:00	8	Radiación solar	0
150537	7	Sololá	701	Sololá	2	El tablón	4	Abril	2023-04-26T00:00:00	2024-11-06T02:00:00	2	Temperatura media	13.1
150538	7	Sololá	701	Sololá	2	El tablón	4	Abril	2023-04-26T00:00:00	2024-11-06T02:00:00	4	Temperatura máxima	13.2
150539	7	Sololá	701	Sololá	2	El tablón	4	Abril	2023-04-26T00:00:00	2024-11-06T02:00:00	3	Temperatura mínima	13
150540	7	Sololá	701	Sololá	2	El tablón	4	Abril	2023-04-26T00:00:00	2024-11-06T02:00:00	5	Humedad	89
150541	7	Sololá	701	Sololá	2	El tablón	4	Abril	2023-04-26T00:00:00	2024-11-06T02:00:00	6	Velocidad del viento	0
150542	7	Sololá	701	Sololá	2	El tablón	4	Abril	2023-04-26T00:00:00	2024-11-06T02:00:00	7	Dirección del viento	0
150543	7	Sololá	701	Sololá	2	El tablón	4	Abril	2023-04-26T00:00:00	2024-11-06T02:00:00	1	Precipitación	0
150544	7	Sololá	701	Sololá	2	El tablón	4	Abril	2023-04-26T00:00:00	2024-11-06T02:00:00	8	Radiación solar	0
150545	7	Sololá	701	Sololá	2	El tablón	4	Abril	2023-04-26T00:00:00	2024-11-06T03:00:00	2	Temperatura media	13.2
150546	7	Sololá	701	Sololá	2	El tablón	4	Abril	2023-04-26T00:00:00	2024-11-06T03:00:00	4	Temperatura máxima	13.2
150547	7	Sololá	701	Sololá	2	El tablón	4	Abril	2023-04-26T00:00:00	2024-11-06T03:00:00	3	Temperatura mínima	12.9
150548	7	Sololá	701	Sololá	2	El tablón	4	Abril	2023-04-26T00:00:00	2024-11-06T03:00:00	5	Humedad	89
150549	7	Sololá	701	Sololá	2	El tablón	4	Abril	2023-04-26T00:00:00	2024-11-06T03:00:00	6	Velocidad del viento	0
150550	7	Sololá	701	Sololá	2	El tablón	4	Abril	2023-04-26T00:00:00	2024-11-06T03:00:00	7	Dirección del viento	0
150551	7	Sololá	701	Sololá	2	El tablón	4	Abril	2023-04-26T00:00:00	2024-11-06T03:00:00	1	Precipitación	0
150552	7	Sololá	701	Sololá	2	El tablón	4	Abril	2023-04-26T00:00:00	2024-11-06T03:00:00	8	Radiación solar	0
150553	7	Sololá	701	Sololá	2	El tablón	4	Abril	2023-04-26T00:00:00	2024-11-06T04:00:00	2	Temperatura media	13.2
150554	7	Sololá	701	Sololá	2	El tablón	4	Abril	2023-04-26T00:00:00	2024-11-06T04:00:00	4	Temperatura máxima	13.2
150555	7	Sololá	701	Sololá	2	El tablón	4	Abril	2023-04-26T00:00:00	2024-11-06T04:00:00	3	Temperatura mínima	13.1
150556	7	Sololá	701	Sololá	2	El tablón	4	Abril	2023-04-26T00:00:00	2024-11-06T04:00:00	5	Humedad	89
150557	7	Sololá	701	Sololá	2	El tablón	4	Abril	2023-04-26T00:00:00	2024-11-06T04:00:00	6	Velocidad del viento	0
150558	7	Sololá	701	Sololá	2	El tablón	4	Abril	2023-04-26T00:00:00	2024-11-06T04:00:00	7	Dirección del viento	0
150559	7	Sololá	701	Sololá	2	El tablón	4	Abril	2023-04-26T00:00:00	2024-11-06T04:00:00	1	Precipitación	0
150560	7	Sololá	701	Sololá	2	El tablón	4	Abril	2023-04-26T00:00:00	2024-11-06T04:00:00	8	Radiación solar	0
150561	7	Sololá	701	Sololá	2	El tablón	4	Abril	2023-04-26T00:00:00	2024-11-06T05:00:00	2	Temperatura media	13
150562	7	Sololá	701	Sololá	2	El tablón	4	Abril	2023-04-26T00:00:00	2024-11-06T05:00:00	4	Temperatura máxima	13.3
150563	7	Sololá	701	Sololá	2	El tablón	4	Abril	2023-04-26T00:00:00	2024-11-06T05:00:00	3	Temperatura mínima	12.9
150564	7	Sololá	701	Sololá	2	El tablón	4	Abril	2023-04-26T00:00:00	2024-11-06T05:00:00	5	Humedad	89
150565	7	Sololá	701	Sololá	2	El tablón	4	Abril	2023-04-26T00:00:00	2024-11-06T05:00:00	6	Velocidad del viento	0
150566	7	Sololá	701	Sololá	2	El tablón	4	Abril	2023-04-26T00:00:00	2024-11-06T05:00:00	7	Dirección del viento	0
150567	7	Sololá	701	Sololá	2	El tablón	4	Abril	2023-04-26T00:00:00	2024-11-06T05:00:00	1	Precipitación	0
150568	7	Sololá	701	Sololá	2	El tablón	4	Abril	2023-04-26T00:00:00	2024-11-06T05:00:00	8	Radiación solar	0
150569	7	Sololá	701	Sololá	2	El tablón	4	Abril	2023-04-26T00:00:00	2024-11-06T06:00:00	2	Temperatura media	12.7
150570	7	Sololá	701	Sololá	2	El tablón	4	Abril	2023-04-26T00:00:00	2024-11-06T06:00:00	4	Temperatura máxima	13
150571	7	Sololá	701	Sololá	2	El tablón	4	Abril	2023-04-26T00:00:00	2024-11-06T06:00:00	3	Temperatura mínima	12.7
150572	7	Sololá	701	Sololá	2	El tablón	4	Abril	2023-04-26T00:00:00	2024-11-06T06:00:00	5	Humedad	89
150573	7	Sololá	701	Sololá	2	El tablón	4	Abril	2023-04-26T00:00:00	2024-11-06T06:00:00	6	Velocidad del viento	0
150574	7	Sololá	701	Sololá	2	El tablón	4	Abril	2023-04-26T00:00:00	2024-11-06T06:00:00	7	Dirección del viento	0
150575	7	Sololá	701	Sololá	2	El tablón	4	Abril	2023-04-26T00:00:00	2024-11-06T06:00:00	1	Precipitación	0
150576	7	Sololá	701	Sololá	2	El tablón	4	Abril	2023-04-26T00:00:00	2024-11-06T06:00:00	8	Radiación solar	1
150577	7	Sololá	701	Sololá	2	El tablón	4	Abril	2023-04-26T00:00:00	2024-11-06T07:00:00	2	Temperatura media	12.9
150578	7	Sololá	701	Sololá	2	El tablón	4	Abril	2023-04-26T00:00:00	2024-11-06T07:00:00	4	Temperatura máxima	12.9
150579	7	Sololá	701	Sololá	2	El tablón	4	Abril	2023-04-26T00:00:00	2024-11-06T07:00:00	3	Temperatura mínima	12.6
150580	7	Sololá	701	Sololá	2	El tablón	4	Abril	2023-04-26T00:00:00	2024-11-06T07:00:00	5	Humedad	89
150581	7	Sololá	701	Sololá	2	El tablón	4	Abril	2023-04-26T00:00:00	2024-11-06T07:00:00	6	Velocidad del viento	0
150582	7	Sololá	701	Sololá	2	El tablón	4	Abril	2023-04-26T00:00:00	2024-11-06T07:00:00	7	Dirección del viento	0
150583	7	Sololá	701	Sololá	2	El tablón	4	Abril	2023-04-26T00:00:00	2024-11-06T07:00:00	1	Precipitación	0
150584	7	Sololá	701	Sololá	2	El tablón	4	Abril	2023-04-26T00:00:00	2024-11-06T07:00:00	8	Radiación solar	73
150585	7	Sololá	701	Sololá	2	El tablón	4	Abril	2023-04-26T00:00:00	2024-11-06T08:00:00	2	Temperatura media	16
150586	7	Sololá	701	Sololá	2	El tablón	4	Abril	2023-04-26T00:00:00	2024-11-06T08:00:00	4	Temperatura máxima	16
150587	7	Sololá	701	Sololá	2	El tablón	4	Abril	2023-04-26T00:00:00	2024-11-06T08:00:00	3	Temperatura mínima	12.9
150588	7	Sololá	701	Sololá	2	El tablón	4	Abril	2023-04-26T00:00:00	2024-11-06T08:00:00	5	Humedad	81
150589	7	Sololá	701	Sololá	2	El tablón	4	Abril	2023-04-26T00:00:00	2024-11-06T08:00:00	6	Velocidad del viento	0
150590	7	Sololá	701	Sololá	2	El tablón	4	Abril	2023-04-26T00:00:00	2024-11-06T08:00:00	7	Dirección del viento	0
150591	7	Sololá	701	Sololá	2	El tablón	4	Abril	2023-04-26T00:00:00	2024-11-06T08:00:00	1	Precipitación	0
150592	7	Sololá	701	Sololá	2	El tablón	4	Abril	2023-04-26T00:00:00	2024-11-06T08:00:00	8	Radiación solar	295
150593	7	Sololá	701	Sololá	2	El tablón	4	Abril	2023-04-26T00:00:00	2024-11-06T09:00:00	2	Temperatura media	17.3
150594	7	Sololá	701	Sololá	2	El tablón	4	Abril	2023-04-26T00:00:00	2024-11-06T09:00:00	4	Temperatura máxima	17.3
150595	7	Sololá	701	Sololá	2	El tablón	4	Abril	2023-04-26T00:00:00	2024-11-06T09:00:00	3	Temperatura mínima	15.8
150596	7	Sololá	701	Sololá	2	El tablón	4	Abril	2023-04-26T00:00:00	2024-11-06T09:00:00	5	Humedad	81
150597	7	Sololá	701	Sololá	2	El tablón	4	Abril	2023-04-26T00:00:00	2024-11-06T09:00:00	6	Velocidad del viento	3.2
150598	7	Sololá	701	Sololá	2	El tablón	4	Abril	2023-04-26T00:00:00	2024-11-06T09:00:00	7	Dirección del viento	3.22
150599	7	Sololá	701	Sololá	2	El tablón	4	Abril	2023-04-26T00:00:00	2024-11-06T09:00:00	1	Precipitación	0
150600	7	Sololá	701	Sololá	2	El tablón	4	Abril	2023-04-26T00:00:00	2024-11-06T09:00:00	8	Radiación solar	471
150601	7	Sololá	701	Sololá	2	El tablón	4	Abril	2023-04-26T00:00:00	2024-11-06T10:00:00	2	Temperatura media	17.1
150602	7	Sololá	701	Sololá	2	El tablón	4	Abril	2023-04-26T00:00:00	2024-11-06T10:00:00	4	Temperatura máxima	17.3
150603	7	Sololá	701	Sololá	2	El tablón	4	Abril	2023-04-26T00:00:00	2024-11-06T10:00:00	3	Temperatura mínima	16.8
150604	7	Sololá	701	Sololá	2	El tablón	4	Abril	2023-04-26T00:00:00	2024-11-06T10:00:00	5	Humedad	82
150605	7	Sololá	701	Sololá	2	El tablón	4	Abril	2023-04-26T00:00:00	2024-11-06T10:00:00	6	Velocidad del viento	6.4
150606	7	Sololá	701	Sololá	2	El tablón	4	Abril	2023-04-26T00:00:00	2024-11-06T10:00:00	7	Dirección del viento	6.44
150607	7	Sololá	701	Sololá	2	El tablón	4	Abril	2023-04-26T00:00:00	2024-11-06T10:00:00	1	Precipitación	0
150608	7	Sololá	701	Sololá	2	El tablón	4	Abril	2023-04-26T00:00:00	2024-11-06T10:00:00	8	Radiación solar	532
150609	7	Sololá	701	Sololá	2	El tablón	4	Abril	2023-04-26T00:00:00	2024-11-06T11:00:00	2	Temperatura media	18.4
150610	7	Sololá	701	Sololá	2	El tablón	4	Abril	2023-04-26T00:00:00	2024-11-06T11:00:00	4	Temperatura máxima	18.4
150611	7	Sololá	701	Sololá	2	El tablón	4	Abril	2023-04-26T00:00:00	2024-11-06T11:00:00	3	Temperatura mínima	17.1
150612	7	Sololá	701	Sololá	2	El tablón	4	Abril	2023-04-26T00:00:00	2024-11-06T11:00:00	5	Humedad	77
150613	7	Sololá	701	Sololá	2	El tablón	4	Abril	2023-04-26T00:00:00	2024-11-06T11:00:00	6	Velocidad del viento	6.4
150614	7	Sololá	701	Sololá	2	El tablón	4	Abril	2023-04-26T00:00:00	2024-11-06T11:00:00	7	Dirección del viento	6.44
150615	7	Sololá	701	Sololá	2	El tablón	4	Abril	2023-04-26T00:00:00	2024-11-06T11:00:00	1	Precipitación	0
150616	7	Sololá	701	Sololá	2	El tablón	4	Abril	2023-04-26T00:00:00	2024-11-06T11:00:00	8	Radiación solar	875
150617	7	Sololá	701	Sololá	2	El tablón	4	Abril	2023-04-26T00:00:00	2024-11-06T12:00:00	2	Temperatura media	18.4
150618	7	Sololá	701	Sololá	2	El tablón	4	Abril	2023-04-26T00:00:00	2024-11-06T12:00:00	4	Temperatura máxima	18.8
150619	7	Sololá	701	Sololá	2	El tablón	4	Abril	2023-04-26T00:00:00	2024-11-06T12:00:00	3	Temperatura mínima	18.2
150620	7	Sololá	701	Sololá	2	El tablón	4	Abril	2023-04-26T00:00:00	2024-11-06T12:00:00	5	Humedad	78
150621	7	Sololá	701	Sololá	2	El tablón	4	Abril	2023-04-26T00:00:00	2024-11-06T12:00:00	6	Velocidad del viento	8
150622	7	Sololá	701	Sololá	2	El tablón	4	Abril	2023-04-26T00:00:00	2024-11-06T12:00:00	7	Dirección del viento	8.05
150623	7	Sololá	701	Sololá	2	El tablón	4	Abril	2023-04-26T00:00:00	2024-11-06T12:00:00	1	Precipitación	0
150624	7	Sololá	701	Sololá	2	El tablón	4	Abril	2023-04-26T00:00:00	2024-11-06T12:00:00	8	Radiación solar	932
150625	7	Sololá	701	Sololá	2	El tablón	4	Abril	2023-04-26T00:00:00	2024-11-06T13:00:00	2	Temperatura media	17.5
150626	7	Sololá	701	Sololá	2	El tablón	4	Abril	2023-04-26T00:00:00	2024-11-06T13:00:00	4	Temperatura máxima	18.9
150627	7	Sololá	701	Sololá	2	El tablón	4	Abril	2023-04-26T00:00:00	2024-11-06T13:00:00	3	Temperatura mínima	17.5
150628	7	Sololá	701	Sololá	2	El tablón	4	Abril	2023-04-26T00:00:00	2024-11-06T13:00:00	5	Humedad	84
150629	7	Sololá	701	Sololá	2	El tablón	4	Abril	2023-04-26T00:00:00	2024-11-06T13:00:00	6	Velocidad del viento	9.7
150630	7	Sololá	701	Sololá	2	El tablón	4	Abril	2023-04-26T00:00:00	2024-11-06T13:00:00	7	Dirección del viento	9.66
150631	7	Sololá	701	Sololá	2	El tablón	4	Abril	2023-04-26T00:00:00	2024-11-06T13:00:00	1	Precipitación	0
150632	7	Sololá	701	Sololá	2	El tablón	4	Abril	2023-04-26T00:00:00	2024-11-06T13:00:00	8	Radiación solar	725
150633	7	Sololá	701	Sololá	2	El tablón	4	Abril	2023-04-26T00:00:00	2024-11-06T14:00:00	2	Temperatura media	15.8
150634	7	Sololá	701	Sololá	2	El tablón	4	Abril	2023-04-26T00:00:00	2024-11-06T14:00:00	4	Temperatura máxima	17.9
150635	7	Sololá	701	Sololá	2	El tablón	4	Abril	2023-04-26T00:00:00	2024-11-06T14:00:00	3	Temperatura mínima	15.7
150636	7	Sololá	701	Sololá	2	El tablón	4	Abril	2023-04-26T00:00:00	2024-11-06T14:00:00	5	Humedad	88
150637	7	Sololá	701	Sololá	2	El tablón	4	Abril	2023-04-26T00:00:00	2024-11-06T14:00:00	6	Velocidad del viento	8
150638	7	Sololá	701	Sololá	2	El tablón	4	Abril	2023-04-26T00:00:00	2024-11-06T14:00:00	7	Dirección del viento	8.05
150639	7	Sololá	701	Sololá	2	El tablón	4	Abril	2023-04-26T00:00:00	2024-11-06T14:00:00	1	Precipitación	0
150640	7	Sololá	701	Sololá	2	El tablón	4	Abril	2023-04-26T00:00:00	2024-11-06T14:00:00	8	Radiación solar	221
150641	7	Sololá	701	Sololá	2	El tablón	4	Abril	2023-04-26T00:00:00	2024-11-06T15:00:00	2	Temperatura media	15.8
150642	7	Sololá	701	Sololá	2	El tablón	4	Abril	2023-04-26T00:00:00	2024-11-06T15:00:00	4	Temperatura máxima	15.9
150643	7	Sololá	701	Sololá	2	El tablón	4	Abril	2023-04-26T00:00:00	2024-11-06T15:00:00	3	Temperatura mínima	15.5
150644	7	Sololá	701	Sololá	2	El tablón	4	Abril	2023-04-26T00:00:00	2024-11-06T15:00:00	5	Humedad	88
150645	7	Sololá	701	Sololá	2	El tablón	4	Abril	2023-04-26T00:00:00	2024-11-06T15:00:00	6	Velocidad del viento	4.8
150646	7	Sololá	701	Sololá	2	El tablón	4	Abril	2023-04-26T00:00:00	2024-11-06T15:00:00	7	Dirección del viento	4.83
150647	7	Sololá	701	Sololá	2	El tablón	4	Abril	2023-04-26T00:00:00	2024-11-06T15:00:00	1	Precipitación	0
150648	7	Sololá	701	Sololá	2	El tablón	4	Abril	2023-04-26T00:00:00	2024-11-06T15:00:00	8	Radiación solar	147
150649	7	Sololá	701	Sololá	2	El tablón	4	Abril	2023-04-26T00:00:00	2024-11-06T16:00:00	2	Temperatura media	16.2
150650	7	Sololá	701	Sololá	2	El tablón	4	Abril	2023-04-26T00:00:00	2024-11-06T16:00:00	4	Temperatura máxima	16.5
150651	7	Sololá	701	Sololá	2	El tablón	4	Abril	2023-04-26T00:00:00	2024-11-06T16:00:00	3	Temperatura mínima	15.5
150652	7	Sololá	701	Sololá	2	El tablón	4	Abril	2023-04-26T00:00:00	2024-11-06T16:00:00	5	Humedad	87
150653	7	Sololá	701	Sololá	2	El tablón	4	Abril	2023-04-26T00:00:00	2024-11-06T16:00:00	6	Velocidad del viento	3.2
150654	7	Sololá	701	Sololá	2	El tablón	4	Abril	2023-04-26T00:00:00	2024-11-06T16:00:00	7	Dirección del viento	3.22
150655	7	Sololá	701	Sololá	2	El tablón	4	Abril	2023-04-26T00:00:00	2024-11-06T16:00:00	1	Precipitación	0
150656	7	Sololá	701	Sololá	2	El tablón	4	Abril	2023-04-26T00:00:00	2024-11-06T16:00:00	8	Radiación solar	223
150657	7	Sololá	701	Sololá	2	El tablón	4	Abril	2023-04-26T00:00:00	2024-11-06T17:00:00	2	Temperatura media	15.7
150658	7	Sololá	701	Sololá	2	El tablón	4	Abril	2023-04-26T00:00:00	2024-11-06T17:00:00	4	Temperatura máxima	16.6
150659	7	Sololá	701	Sololá	2	El tablón	4	Abril	2023-04-26T00:00:00	2024-11-06T17:00:00	3	Temperatura mínima	15.7
150660	7	Sololá	701	Sololá	2	El tablón	4	Abril	2023-04-26T00:00:00	2024-11-06T17:00:00	5	Humedad	88
150661	7	Sololá	701	Sololá	2	El tablón	4	Abril	2023-04-26T00:00:00	2024-11-06T17:00:00	6	Velocidad del viento	3.2
150662	7	Sololá	701	Sololá	2	El tablón	4	Abril	2023-04-26T00:00:00	2024-11-06T17:00:00	7	Dirección del viento	3.22
150663	7	Sololá	701	Sololá	2	El tablón	4	Abril	2023-04-26T00:00:00	2024-11-06T17:00:00	1	Precipitación	0
150664	7	Sololá	701	Sololá	2	El tablón	4	Abril	2023-04-26T00:00:00	2024-11-06T17:00:00	8	Radiación solar	108
150665	7	Sololá	701	Sololá	2	El tablón	4	Abril	2023-04-26T00:00:00	2024-11-06T18:00:00	2	Temperatura media	14.9
150666	7	Sololá	701	Sololá	2	El tablón	4	Abril	2023-04-26T00:00:00	2024-11-06T18:00:00	4	Temperatura máxima	15.7
150667	7	Sololá	701	Sololá	2	El tablón	4	Abril	2023-04-26T00:00:00	2024-11-06T18:00:00	3	Temperatura mínima	14.9
150668	7	Sololá	701	Sololá	2	El tablón	4	Abril	2023-04-26T00:00:00	2024-11-06T18:00:00	5	Humedad	89
150669	7	Sololá	701	Sololá	2	El tablón	4	Abril	2023-04-26T00:00:00	2024-11-06T18:00:00	6	Velocidad del viento	1.6
150670	7	Sololá	701	Sololá	2	El tablón	4	Abril	2023-04-26T00:00:00	2024-11-06T18:00:00	7	Dirección del viento	1.61
150671	7	Sololá	701	Sololá	2	El tablón	4	Abril	2023-04-26T00:00:00	2024-11-06T18:00:00	1	Precipitación	0
150672	7	Sololá	701	Sololá	2	El tablón	4	Abril	2023-04-26T00:00:00	2024-11-06T18:00:00	8	Radiación solar	26
150673	7	Sololá	701	Sololá	2	El tablón	4	Abril	2023-04-26T00:00:00	2024-11-06T19:00:00	2	Temperatura media	14.3
150674	7	Sololá	701	Sololá	2	El tablón	4	Abril	2023-04-26T00:00:00	2024-11-06T19:00:00	4	Temperatura máxima	14.9
150675	7	Sololá	701	Sololá	2	El tablón	4	Abril	2023-04-26T00:00:00	2024-11-06T19:00:00	3	Temperatura mínima	14.3
150676	7	Sololá	701	Sololá	2	El tablón	4	Abril	2023-04-26T00:00:00	2024-11-06T19:00:00	5	Humedad	89
150677	7	Sololá	701	Sololá	2	El tablón	4	Abril	2023-04-26T00:00:00	2024-11-06T19:00:00	6	Velocidad del viento	0
150678	7	Sololá	701	Sololá	2	El tablón	4	Abril	2023-04-26T00:00:00	2024-11-06T19:00:00	7	Dirección del viento	0
150679	7	Sololá	701	Sololá	2	El tablón	4	Abril	2023-04-26T00:00:00	2024-11-06T19:00:00	1	Precipitación	0
150680	7	Sololá	701	Sololá	2	El tablón	4	Abril	2023-04-26T00:00:00	2024-11-06T19:00:00	8	Radiación solar	0
150681	7	Sololá	701	Sololá	2	El tablón	4	Abril	2023-04-26T00:00:00	2024-11-06T20:00:00	2	Temperatura media	13.6
150682	7	Sololá	701	Sololá	2	El tablón	4	Abril	2023-04-26T00:00:00	2024-11-06T20:00:00	4	Temperatura máxima	14.3
150683	7	Sololá	701	Sololá	2	El tablón	4	Abril	2023-04-26T00:00:00	2024-11-06T20:00:00	3	Temperatura mínima	13.6
150684	7	Sololá	701	Sololá	2	El tablón	4	Abril	2023-04-26T00:00:00	2024-11-06T20:00:00	5	Humedad	89
150685	7	Sololá	701	Sololá	2	El tablón	4	Abril	2023-04-26T00:00:00	2024-11-06T20:00:00	6	Velocidad del viento	0
150686	7	Sololá	701	Sololá	2	El tablón	4	Abril	2023-04-26T00:00:00	2024-11-06T20:00:00	7	Dirección del viento	0
150687	7	Sololá	701	Sololá	2	El tablón	4	Abril	2023-04-26T00:00:00	2024-11-06T20:00:00	1	Precipitación	0
150688	7	Sololá	701	Sololá	2	El tablón	4	Abril	2023-04-26T00:00:00	2024-11-06T20:00:00	8	Radiación solar	0
150689	7	Sololá	701	Sololá	2	El tablón	4	Abril	2023-04-26T00:00:00	2024-11-06T21:00:00	2	Temperatura media	14.2
150690	7	Sololá	701	Sololá	2	El tablón	4	Abril	2023-04-26T00:00:00	2024-11-06T21:00:00	4	Temperatura máxima	14.2
150691	7	Sololá	701	Sololá	2	El tablón	4	Abril	2023-04-26T00:00:00	2024-11-06T21:00:00	3	Temperatura mínima	12.6
150692	7	Sololá	701	Sololá	2	El tablón	4	Abril	2023-04-26T00:00:00	2024-11-06T21:00:00	5	Humedad	86
150693	7	Sololá	701	Sololá	2	El tablón	4	Abril	2023-04-26T00:00:00	2024-11-06T21:00:00	6	Velocidad del viento	3.2
150694	7	Sololá	701	Sololá	2	El tablón	4	Abril	2023-04-26T00:00:00	2024-11-06T21:00:00	7	Dirección del viento	3.22
150695	7	Sololá	701	Sololá	2	El tablón	4	Abril	2023-04-26T00:00:00	2024-11-06T21:00:00	1	Precipitación	0
150696	7	Sololá	701	Sololá	2	El tablón	4	Abril	2023-04-26T00:00:00	2024-11-06T21:00:00	8	Radiación solar	0
150697	7	Sololá	701	Sololá	2	El tablón	4	Abril	2023-04-26T00:00:00	2024-11-06T22:00:00	2	Temperatura media	12.7
150698	7	Sololá	701	Sololá	2	El tablón	4	Abril	2023-04-26T00:00:00	2024-11-06T22:00:00	4	Temperatura máxima	14.4
150699	7	Sololá	701	Sololá	2	El tablón	4	Abril	2023-04-26T00:00:00	2024-11-06T22:00:00	3	Temperatura mínima	12.6
150700	7	Sololá	701	Sololá	2	El tablón	4	Abril	2023-04-26T00:00:00	2024-11-06T22:00:00	5	Humedad	89
150701	7	Sololá	701	Sololá	2	El tablón	4	Abril	2023-04-26T00:00:00	2024-11-06T22:00:00	6	Velocidad del viento	3.2
150702	7	Sololá	701	Sololá	2	El tablón	4	Abril	2023-04-26T00:00:00	2024-11-06T22:00:00	7	Dirección del viento	3.22
150703	7	Sololá	701	Sololá	2	El tablón	4	Abril	2023-04-26T00:00:00	2024-11-06T22:00:00	1	Precipitación	0
150704	7	Sololá	701	Sololá	2	El tablón	4	Abril	2023-04-26T00:00:00	2024-11-06T22:00:00	8	Radiación solar	0
150705	7	Sololá	701	Sololá	2	El tablón	4	Abril	2023-04-26T00:00:00	2024-11-06T23:00:00	2	Temperatura media	12.3
150706	7	Sololá	701	Sololá	2	El tablón	4	Abril	2023-04-26T00:00:00	2024-11-06T23:00:00	4	Temperatura máxima	13.1
150707	7	Sololá	701	Sololá	2	El tablón	4	Abril	2023-04-26T00:00:00	2024-11-06T23:00:00	3	Temperatura mínima	12.3
150708	7	Sololá	701	Sololá	2	El tablón	4	Abril	2023-04-26T00:00:00	2024-11-06T23:00:00	5	Humedad	88
150709	7	Sololá	701	Sololá	2	El tablón	4	Abril	2023-04-26T00:00:00	2024-11-06T23:00:00	6	Velocidad del viento	3.2
150710	7	Sololá	701	Sololá	2	El tablón	4	Abril	2023-04-26T00:00:00	2024-11-06T23:00:00	7	Dirección del viento	3.22
150711	7	Sololá	701	Sololá	2	El tablón	4	Abril	2023-04-26T00:00:00	2024-11-06T23:00:00	1	Precipitación	0
150712	7	Sololá	701	Sololá	2	El tablón	4	Abril	2023-04-26T00:00:00	2024-11-06T23:00:00	8	Radiación solar	0
150713	7	Sololá	701	Sololá	2	El tablón	4	Abril	2023-04-27T00:00:00	2024-11-06T00:00:00	2	Temperatura media	12.8
150714	7	Sololá	701	Sololá	2	El tablón	4	Abril	2023-04-27T00:00:00	2024-11-06T00:00:00	4	Temperatura máxima	12.8
150715	7	Sololá	701	Sololá	2	El tablón	4	Abril	2023-04-27T00:00:00	2024-11-06T00:00:00	3	Temperatura mínima	12.2
150716	7	Sololá	701	Sololá	2	El tablón	4	Abril	2023-04-27T00:00:00	2024-11-06T00:00:00	5	Humedad	86
150717	7	Sololá	701	Sololá	2	El tablón	4	Abril	2023-04-27T00:00:00	2024-11-06T00:00:00	6	Velocidad del viento	3.2
150718	7	Sololá	701	Sololá	2	El tablón	4	Abril	2023-04-27T00:00:00	2024-11-06T00:00:00	7	Dirección del viento	3.22
150719	7	Sololá	701	Sololá	2	El tablón	4	Abril	2023-04-27T00:00:00	2024-11-06T00:00:00	1	Precipitación	0
150720	7	Sololá	701	Sololá	2	El tablón	4	Abril	2023-04-27T00:00:00	2024-11-06T00:00:00	8	Radiación solar	0
150721	7	Sololá	701	Sololá	2	El tablón	4	Abril	2023-04-27T00:00:00	2024-11-06T01:00:00	2	Temperatura media	11.8
150722	7	Sololá	701	Sololá	2	El tablón	4	Abril	2023-04-27T00:00:00	2024-11-06T01:00:00	4	Temperatura máxima	12.8
150723	7	Sololá	701	Sololá	2	El tablón	4	Abril	2023-04-27T00:00:00	2024-11-06T01:00:00	3	Temperatura mínima	11.8
150724	7	Sololá	701	Sololá	2	El tablón	4	Abril	2023-04-27T00:00:00	2024-11-06T01:00:00	5	Humedad	88
150725	7	Sololá	701	Sololá	2	El tablón	4	Abril	2023-04-27T00:00:00	2024-11-06T01:00:00	6	Velocidad del viento	0
150726	7	Sololá	701	Sololá	2	El tablón	4	Abril	2023-04-27T00:00:00	2024-11-06T01:00:00	7	Dirección del viento	0
150727	7	Sololá	701	Sololá	2	El tablón	4	Abril	2023-04-27T00:00:00	2024-11-06T01:00:00	1	Precipitación	0
150728	7	Sololá	701	Sololá	2	El tablón	4	Abril	2023-04-27T00:00:00	2024-11-06T01:00:00	8	Radiación solar	0
150729	7	Sololá	701	Sololá	2	El tablón	4	Abril	2023-04-27T00:00:00	2024-11-06T02:00:00	2	Temperatura media	11.4
150730	7	Sololá	701	Sololá	2	El tablón	4	Abril	2023-04-27T00:00:00	2024-11-06T02:00:00	4	Temperatura máxima	11.9
150731	7	Sololá	701	Sololá	2	El tablón	4	Abril	2023-04-27T00:00:00	2024-11-06T02:00:00	3	Temperatura mínima	11.4
150732	7	Sololá	701	Sololá	2	El tablón	4	Abril	2023-04-27T00:00:00	2024-11-06T02:00:00	5	Humedad	88
150733	7	Sololá	701	Sololá	2	El tablón	4	Abril	2023-04-27T00:00:00	2024-11-06T02:00:00	6	Velocidad del viento	0
150734	7	Sololá	701	Sololá	2	El tablón	4	Abril	2023-04-27T00:00:00	2024-11-06T02:00:00	7	Dirección del viento	0
150735	7	Sololá	701	Sololá	2	El tablón	4	Abril	2023-04-27T00:00:00	2024-11-06T02:00:00	1	Precipitación	0
150736	7	Sololá	701	Sololá	2	El tablón	4	Abril	2023-04-27T00:00:00	2024-11-06T02:00:00	8	Radiación solar	0
150737	7	Sololá	701	Sololá	2	El tablón	4	Abril	2023-04-27T00:00:00	2024-11-06T03:00:00	2	Temperatura media	10.8
150738	7	Sololá	701	Sololá	2	El tablón	4	Abril	2023-04-27T00:00:00	2024-11-06T03:00:00	4	Temperatura máxima	11.4
150739	7	Sololá	701	Sololá	2	El tablón	4	Abril	2023-04-27T00:00:00	2024-11-06T03:00:00	3	Temperatura mínima	10.8
150740	7	Sololá	701	Sololá	2	El tablón	4	Abril	2023-04-27T00:00:00	2024-11-06T03:00:00	5	Humedad	89
150741	7	Sololá	701	Sololá	2	El tablón	4	Abril	2023-04-27T00:00:00	2024-11-06T03:00:00	6	Velocidad del viento	1.6
150742	7	Sololá	701	Sololá	2	El tablón	4	Abril	2023-04-27T00:00:00	2024-11-06T03:00:00	7	Dirección del viento	1.61
150743	7	Sololá	701	Sololá	2	El tablón	4	Abril	2023-04-27T00:00:00	2024-11-06T03:00:00	1	Precipitación	0
150744	7	Sololá	701	Sololá	2	El tablón	4	Abril	2023-04-27T00:00:00	2024-11-06T03:00:00	8	Radiación solar	0
150745	7	Sololá	701	Sololá	2	El tablón	4	Abril	2023-04-27T00:00:00	2024-11-06T04:00:00	2	Temperatura media	10.8
150746	7	Sololá	701	Sololá	2	El tablón	4	Abril	2023-04-27T00:00:00	2024-11-06T04:00:00	4	Temperatura máxima	10.9
150747	7	Sololá	701	Sololá	2	El tablón	4	Abril	2023-04-27T00:00:00	2024-11-06T04:00:00	3	Temperatura mínima	10.8
150748	7	Sololá	701	Sololá	2	El tablón	4	Abril	2023-04-27T00:00:00	2024-11-06T04:00:00	5	Humedad	89
150749	7	Sololá	701	Sololá	2	El tablón	4	Abril	2023-04-27T00:00:00	2024-11-06T04:00:00	6	Velocidad del viento	1.6
150750	7	Sololá	701	Sololá	2	El tablón	4	Abril	2023-04-27T00:00:00	2024-11-06T04:00:00	7	Dirección del viento	1.61
150751	7	Sololá	701	Sololá	2	El tablón	4	Abril	2023-04-27T00:00:00	2024-11-06T04:00:00	1	Precipitación	0
150752	7	Sololá	701	Sololá	2	El tablón	4	Abril	2023-04-27T00:00:00	2024-11-06T04:00:00	8	Radiación solar	0
150753	7	Sololá	701	Sololá	2	El tablón	4	Abril	2023-04-27T00:00:00	2024-11-06T05:00:00	2	Temperatura media	10.9
150754	7	Sololá	701	Sololá	2	El tablón	4	Abril	2023-04-27T00:00:00	2024-11-06T05:00:00	4	Temperatura máxima	11.2
150755	7	Sololá	701	Sololá	2	El tablón	4	Abril	2023-04-27T00:00:00	2024-11-06T05:00:00	3	Temperatura mínima	10.8
150756	7	Sololá	701	Sololá	2	El tablón	4	Abril	2023-04-27T00:00:00	2024-11-06T05:00:00	5	Humedad	88
150757	7	Sololá	701	Sololá	2	El tablón	4	Abril	2023-04-27T00:00:00	2024-11-06T05:00:00	6	Velocidad del viento	1.6
150758	7	Sololá	701	Sololá	2	El tablón	4	Abril	2023-04-27T00:00:00	2024-11-06T05:00:00	7	Dirección del viento	1.61
150759	7	Sololá	701	Sololá	2	El tablón	4	Abril	2023-04-27T00:00:00	2024-11-06T05:00:00	1	Precipitación	0
150760	7	Sololá	701	Sololá	2	El tablón	4	Abril	2023-04-27T00:00:00	2024-11-06T05:00:00	8	Radiación solar	0
150761	7	Sololá	701	Sololá	2	El tablón	4	Abril	2023-04-27T00:00:00	2024-11-06T06:00:00	2	Temperatura media	11.5
150762	7	Sololá	701	Sololá	2	El tablón	4	Abril	2023-04-27T00:00:00	2024-11-06T06:00:00	4	Temperatura máxima	11.5
150763	7	Sololá	701	Sololá	2	El tablón	4	Abril	2023-04-27T00:00:00	2024-11-06T06:00:00	3	Temperatura mínima	10.8
150764	7	Sololá	701	Sololá	2	El tablón	4	Abril	2023-04-27T00:00:00	2024-11-06T06:00:00	5	Humedad	87
150765	7	Sololá	701	Sololá	2	El tablón	4	Abril	2023-04-27T00:00:00	2024-11-06T06:00:00	6	Velocidad del viento	3.2
150766	7	Sololá	701	Sololá	2	El tablón	4	Abril	2023-04-27T00:00:00	2024-11-06T06:00:00	7	Dirección del viento	3.22
150767	7	Sololá	701	Sololá	2	El tablón	4	Abril	2023-04-27T00:00:00	2024-11-06T06:00:00	1	Precipitación	0
150768	7	Sololá	701	Sololá	2	El tablón	4	Abril	2023-04-27T00:00:00	2024-11-06T06:00:00	8	Radiación solar	2
150769	7	Sololá	701	Sololá	2	El tablón	4	Abril	2023-04-27T00:00:00	2024-11-06T07:00:00	2	Temperatura media	12.4
150770	7	Sololá	701	Sololá	2	El tablón	4	Abril	2023-04-27T00:00:00	2024-11-06T07:00:00	4	Temperatura máxima	12.4
150771	7	Sololá	701	Sololá	2	El tablón	4	Abril	2023-04-27T00:00:00	2024-11-06T07:00:00	3	Temperatura mínima	10.9
150772	7	Sololá	701	Sololá	2	El tablón	4	Abril	2023-04-27T00:00:00	2024-11-06T07:00:00	5	Humedad	85
150773	7	Sololá	701	Sololá	2	El tablón	4	Abril	2023-04-27T00:00:00	2024-11-06T07:00:00	6	Velocidad del viento	3.2
150774	7	Sololá	701	Sololá	2	El tablón	4	Abril	2023-04-27T00:00:00	2024-11-06T07:00:00	7	Dirección del viento	3.22
150775	7	Sololá	701	Sololá	2	El tablón	4	Abril	2023-04-27T00:00:00	2024-11-06T07:00:00	1	Precipitación	0
150776	7	Sololá	701	Sololá	2	El tablón	4	Abril	2023-04-27T00:00:00	2024-11-06T07:00:00	8	Radiación solar	91
150777	7	Sololá	701	Sololá	2	El tablón	4	Abril	2023-04-27T00:00:00	2024-11-06T08:00:00	2	Temperatura media	16.1
150778	7	Sololá	701	Sololá	2	El tablón	4	Abril	2023-04-27T00:00:00	2024-11-06T08:00:00	4	Temperatura máxima	16.1
150779	7	Sololá	701	Sololá	2	El tablón	4	Abril	2023-04-27T00:00:00	2024-11-06T08:00:00	3	Temperatura mínima	12.4
150780	7	Sololá	701	Sololá	2	El tablón	4	Abril	2023-04-27T00:00:00	2024-11-06T08:00:00	5	Humedad	78
150781	7	Sololá	701	Sololá	2	El tablón	4	Abril	2023-04-27T00:00:00	2024-11-06T08:00:00	6	Velocidad del viento	0
150782	7	Sololá	701	Sololá	2	El tablón	4	Abril	2023-04-27T00:00:00	2024-11-06T08:00:00	7	Dirección del viento	0
150783	7	Sololá	701	Sololá	2	El tablón	4	Abril	2023-04-27T00:00:00	2024-11-06T08:00:00	1	Precipitación	0
150784	7	Sololá	701	Sololá	2	El tablón	4	Abril	2023-04-27T00:00:00	2024-11-06T08:00:00	8	Radiación solar	294
150785	7	Sololá	701	Sololá	2	El tablón	4	Abril	2023-04-27T00:00:00	2024-11-06T09:00:00	2	Temperatura media	17.3
150786	7	Sololá	701	Sololá	2	El tablón	4	Abril	2023-04-27T00:00:00	2024-11-06T09:00:00	4	Temperatura máxima	17.5
150787	7	Sololá	701	Sololá	2	El tablón	4	Abril	2023-04-27T00:00:00	2024-11-06T09:00:00	3	Temperatura mínima	16.1
150788	7	Sololá	701	Sololá	2	El tablón	4	Abril	2023-04-27T00:00:00	2024-11-06T09:00:00	5	Humedad	77
150789	7	Sololá	701	Sololá	2	El tablón	4	Abril	2023-04-27T00:00:00	2024-11-06T09:00:00	6	Velocidad del viento	3.2
150790	7	Sololá	701	Sololá	2	El tablón	4	Abril	2023-04-27T00:00:00	2024-11-06T09:00:00	7	Dirección del viento	3.22
150791	7	Sololá	701	Sololá	2	El tablón	4	Abril	2023-04-27T00:00:00	2024-11-06T09:00:00	1	Precipitación	0
150792	7	Sololá	701	Sololá	2	El tablón	4	Abril	2023-04-27T00:00:00	2024-11-06T09:00:00	8	Radiación solar	522
150793	7	Sololá	701	Sololá	2	El tablón	4	Abril	2023-04-27T00:00:00	2024-11-06T10:00:00	2	Temperatura media	17.4
150794	7	Sololá	701	Sololá	2	El tablón	4	Abril	2023-04-27T00:00:00	2024-11-06T10:00:00	4	Temperatura máxima	17.6
150795	7	Sololá	701	Sololá	2	El tablón	4	Abril	2023-04-27T00:00:00	2024-11-06T10:00:00	3	Temperatura mínima	17.1
150796	7	Sololá	701	Sololá	2	El tablón	4	Abril	2023-04-27T00:00:00	2024-11-06T10:00:00	5	Humedad	78
150797	7	Sololá	701	Sololá	2	El tablón	4	Abril	2023-04-27T00:00:00	2024-11-06T10:00:00	6	Velocidad del viento	8
150798	7	Sololá	701	Sololá	2	El tablón	4	Abril	2023-04-27T00:00:00	2024-11-06T10:00:00	7	Dirección del viento	8.05
150799	7	Sololá	701	Sololá	2	El tablón	4	Abril	2023-04-27T00:00:00	2024-11-06T10:00:00	1	Precipitación	0
150800	7	Sololá	701	Sololá	2	El tablón	4	Abril	2023-04-27T00:00:00	2024-11-06T10:00:00	8	Radiación solar	712
150801	7	Sololá	701	Sololá	2	El tablón	4	Abril	2023-04-27T00:00:00	2024-11-06T11:00:00	2	Temperatura media	17.9
150802	7	Sololá	701	Sololá	2	El tablón	4	Abril	2023-04-27T00:00:00	2024-11-06T11:00:00	4	Temperatura máxima	17.9
150803	7	Sololá	701	Sololá	2	El tablón	4	Abril	2023-04-27T00:00:00	2024-11-06T11:00:00	3	Temperatura mínima	17.3
150804	7	Sololá	701	Sololá	2	El tablón	4	Abril	2023-04-27T00:00:00	2024-11-06T11:00:00	5	Humedad	77
150805	7	Sololá	701	Sololá	2	El tablón	4	Abril	2023-04-27T00:00:00	2024-11-06T11:00:00	6	Velocidad del viento	8
150806	7	Sololá	701	Sololá	2	El tablón	4	Abril	2023-04-27T00:00:00	2024-11-06T11:00:00	7	Dirección del viento	8.05
150807	7	Sololá	701	Sololá	2	El tablón	4	Abril	2023-04-27T00:00:00	2024-11-06T11:00:00	1	Precipitación	0
150808	7	Sololá	701	Sololá	2	El tablón	4	Abril	2023-04-27T00:00:00	2024-11-06T11:00:00	8	Radiación solar	853
150809	7	Sololá	701	Sololá	2	El tablón	4	Abril	2023-04-27T00:00:00	2024-11-06T12:00:00	2	Temperatura media	18.4
150810	7	Sololá	701	Sololá	2	El tablón	4	Abril	2023-04-27T00:00:00	2024-11-06T12:00:00	4	Temperatura máxima	18.7
150811	7	Sololá	701	Sololá	2	El tablón	4	Abril	2023-04-27T00:00:00	2024-11-06T12:00:00	3	Temperatura mínima	17.9
150812	7	Sololá	701	Sololá	2	El tablón	4	Abril	2023-04-27T00:00:00	2024-11-06T12:00:00	5	Humedad	78
150813	7	Sololá	701	Sololá	2	El tablón	4	Abril	2023-04-27T00:00:00	2024-11-06T12:00:00	6	Velocidad del viento	8
150814	7	Sololá	701	Sololá	2	El tablón	4	Abril	2023-04-27T00:00:00	2024-11-06T12:00:00	7	Dirección del viento	8.05
150815	7	Sololá	701	Sololá	2	El tablón	4	Abril	2023-04-27T00:00:00	2024-11-06T12:00:00	1	Precipitación	0
150816	7	Sololá	701	Sololá	2	El tablón	4	Abril	2023-04-27T00:00:00	2024-11-06T12:00:00	8	Radiación solar	934
150817	7	Sololá	701	Sololá	2	El tablón	4	Abril	2023-04-27T00:00:00	2024-11-06T13:00:00	2	Temperatura media	18
150818	7	Sololá	701	Sololá	2	El tablón	4	Abril	2023-04-27T00:00:00	2024-11-06T13:00:00	4	Temperatura máxima	18.6
150819	7	Sololá	701	Sololá	2	El tablón	4	Abril	2023-04-27T00:00:00	2024-11-06T13:00:00	3	Temperatura mínima	17.7
150820	7	Sololá	701	Sololá	2	El tablón	4	Abril	2023-04-27T00:00:00	2024-11-06T13:00:00	5	Humedad	83
150821	7	Sololá	701	Sololá	2	El tablón	4	Abril	2023-04-27T00:00:00	2024-11-06T13:00:00	6	Velocidad del viento	9.7
150822	7	Sololá	701	Sololá	2	El tablón	4	Abril	2023-04-27T00:00:00	2024-11-06T13:00:00	7	Dirección del viento	9.66
150823	7	Sololá	701	Sololá	2	El tablón	4	Abril	2023-04-27T00:00:00	2024-11-06T13:00:00	1	Precipitación	0
150824	7	Sololá	701	Sololá	2	El tablón	4	Abril	2023-04-27T00:00:00	2024-11-06T13:00:00	8	Radiación solar	881
150825	7	Sololá	701	Sololá	2	El tablón	4	Abril	2023-04-27T00:00:00	2024-11-06T14:00:00	2	Temperatura media	17.8
150826	7	Sololá	701	Sololá	2	El tablón	4	Abril	2023-04-27T00:00:00	2024-11-06T14:00:00	4	Temperatura máxima	18
150827	7	Sololá	701	Sololá	2	El tablón	4	Abril	2023-04-27T00:00:00	2024-11-06T14:00:00	3	Temperatura mínima	17.3
150828	7	Sololá	701	Sololá	2	El tablón	4	Abril	2023-04-27T00:00:00	2024-11-06T14:00:00	5	Humedad	84
150829	7	Sololá	701	Sololá	2	El tablón	4	Abril	2023-04-27T00:00:00	2024-11-06T14:00:00	6	Velocidad del viento	9.7
150830	7	Sololá	701	Sololá	2	El tablón	4	Abril	2023-04-27T00:00:00	2024-11-06T14:00:00	7	Dirección del viento	9.66
150831	7	Sololá	701	Sololá	2	El tablón	4	Abril	2023-04-27T00:00:00	2024-11-06T14:00:00	1	Precipitación	0
150832	7	Sololá	701	Sololá	2	El tablón	4	Abril	2023-04-27T00:00:00	2024-11-06T14:00:00	8	Radiación solar	502
150833	7	Sololá	701	Sololá	2	El tablón	4	Abril	2023-04-27T00:00:00	2024-11-06T15:00:00	2	Temperatura media	16.6
150834	7	Sololá	701	Sololá	2	El tablón	4	Abril	2023-04-27T00:00:00	2024-11-06T15:00:00	4	Temperatura máxima	18.1
150835	7	Sololá	701	Sololá	2	El tablón	4	Abril	2023-04-27T00:00:00	2024-11-06T15:00:00	3	Temperatura mínima	16.6
150836	7	Sololá	701	Sololá	2	El tablón	4	Abril	2023-04-27T00:00:00	2024-11-06T15:00:00	5	Humedad	87
150837	7	Sololá	701	Sololá	2	El tablón	4	Abril	2023-04-27T00:00:00	2024-11-06T15:00:00	6	Velocidad del viento	9.7
150838	7	Sololá	701	Sololá	2	El tablón	4	Abril	2023-04-27T00:00:00	2024-11-06T15:00:00	7	Dirección del viento	9.66
150839	7	Sololá	701	Sololá	2	El tablón	4	Abril	2023-04-27T00:00:00	2024-11-06T15:00:00	1	Precipitación	0
150840	7	Sololá	701	Sololá	2	El tablón	4	Abril	2023-04-27T00:00:00	2024-11-06T15:00:00	8	Radiación solar	357
150841	7	Sololá	701	Sololá	2	El tablón	4	Abril	2023-04-27T00:00:00	2024-11-06T16:00:00	2	Temperatura media	15.8
150842	7	Sololá	701	Sololá	2	El tablón	4	Abril	2023-04-27T00:00:00	2024-11-06T16:00:00	4	Temperatura máxima	16.8
150843	7	Sololá	701	Sololá	2	El tablón	4	Abril	2023-04-27T00:00:00	2024-11-06T16:00:00	3	Temperatura mínima	15.8
150844	7	Sololá	701	Sololá	2	El tablón	4	Abril	2023-04-27T00:00:00	2024-11-06T16:00:00	5	Humedad	88
150845	7	Sololá	701	Sololá	2	El tablón	4	Abril	2023-04-27T00:00:00	2024-11-06T16:00:00	6	Velocidad del viento	4.8
150846	7	Sololá	701	Sololá	2	El tablón	4	Abril	2023-04-27T00:00:00	2024-11-06T16:00:00	7	Dirección del viento	4.83
150847	7	Sololá	701	Sololá	2	El tablón	4	Abril	2023-04-27T00:00:00	2024-11-06T16:00:00	1	Precipitación	0
150848	7	Sololá	701	Sololá	2	El tablón	4	Abril	2023-04-27T00:00:00	2024-11-06T16:00:00	8	Radiación solar	181
150849	7	Sololá	701	Sololá	2	El tablón	4	Abril	2023-04-27T00:00:00	2024-11-06T17:00:00	2	Temperatura media	15.6
150850	7	Sololá	701	Sololá	2	El tablón	4	Abril	2023-04-27T00:00:00	2024-11-06T17:00:00	4	Temperatura máxima	16.3
150851	7	Sololá	701	Sololá	2	El tablón	4	Abril	2023-04-27T00:00:00	2024-11-06T17:00:00	3	Temperatura mínima	15.6
150852	7	Sololá	701	Sololá	2	El tablón	4	Abril	2023-04-27T00:00:00	2024-11-06T17:00:00	5	Humedad	88
150853	7	Sololá	701	Sololá	2	El tablón	4	Abril	2023-04-27T00:00:00	2024-11-06T17:00:00	6	Velocidad del viento	4.8
150854	7	Sololá	701	Sololá	2	El tablón	4	Abril	2023-04-27T00:00:00	2024-11-06T17:00:00	7	Dirección del viento	4.83
150855	7	Sololá	701	Sololá	2	El tablón	4	Abril	2023-04-27T00:00:00	2024-11-06T17:00:00	1	Precipitación	0
150856	7	Sololá	701	Sololá	2	El tablón	4	Abril	2023-04-27T00:00:00	2024-11-06T17:00:00	8	Radiación solar	110
150857	7	Sololá	701	Sololá	2	El tablón	4	Abril	2023-04-27T00:00:00	2024-11-06T18:00:00	2	Temperatura media	14.9
150858	7	Sololá	701	Sololá	2	El tablón	4	Abril	2023-04-27T00:00:00	2024-11-06T18:00:00	4	Temperatura máxima	15.6
150859	7	Sololá	701	Sololá	2	El tablón	4	Abril	2023-04-27T00:00:00	2024-11-06T18:00:00	3	Temperatura mínima	14.9
150860	7	Sololá	701	Sololá	2	El tablón	4	Abril	2023-04-27T00:00:00	2024-11-06T18:00:00	5	Humedad	89
150861	7	Sololá	701	Sololá	2	El tablón	4	Abril	2023-04-27T00:00:00	2024-11-06T18:00:00	6	Velocidad del viento	3.2
150862	7	Sololá	701	Sololá	2	El tablón	4	Abril	2023-04-27T00:00:00	2024-11-06T18:00:00	7	Dirección del viento	3.22
150863	7	Sololá	701	Sololá	2	El tablón	4	Abril	2023-04-27T00:00:00	2024-11-06T18:00:00	1	Precipitación	0
150864	7	Sololá	701	Sololá	2	El tablón	4	Abril	2023-04-27T00:00:00	2024-11-06T18:00:00	8	Radiación solar	5
150865	7	Sololá	701	Sololá	2	El tablón	4	Abril	2023-04-27T00:00:00	2024-11-06T19:00:00	2	Temperatura media	14.7
150866	7	Sololá	701	Sololá	2	El tablón	4	Abril	2023-04-27T00:00:00	2024-11-06T19:00:00	4	Temperatura máxima	14.9
150867	7	Sololá	701	Sololá	2	El tablón	4	Abril	2023-04-27T00:00:00	2024-11-06T19:00:00	3	Temperatura mínima	14.7
150868	7	Sololá	701	Sololá	2	El tablón	4	Abril	2023-04-27T00:00:00	2024-11-06T19:00:00	5	Humedad	89
150869	7	Sololá	701	Sololá	2	El tablón	4	Abril	2023-04-27T00:00:00	2024-11-06T19:00:00	6	Velocidad del viento	3.2
150870	7	Sololá	701	Sololá	2	El tablón	4	Abril	2023-04-27T00:00:00	2024-11-06T19:00:00	7	Dirección del viento	3.22
150871	7	Sololá	701	Sololá	2	El tablón	4	Abril	2023-04-27T00:00:00	2024-11-06T19:00:00	1	Precipitación	0
150872	7	Sololá	701	Sololá	2	El tablón	4	Abril	2023-04-27T00:00:00	2024-11-06T19:00:00	8	Radiación solar	0
150873	7	Sololá	701	Sololá	2	El tablón	4	Abril	2023-04-27T00:00:00	2024-11-06T20:00:00	2	Temperatura media	14.6
150874	7	Sololá	701	Sololá	2	El tablón	4	Abril	2023-04-27T00:00:00	2024-11-06T20:00:00	4	Temperatura máxima	14.8
150875	7	Sololá	701	Sololá	2	El tablón	4	Abril	2023-04-27T00:00:00	2024-11-06T20:00:00	3	Temperatura mínima	14.6
150876	7	Sololá	701	Sololá	2	El tablón	4	Abril	2023-04-27T00:00:00	2024-11-06T20:00:00	5	Humedad	89
150877	7	Sololá	701	Sololá	2	El tablón	4	Abril	2023-04-27T00:00:00	2024-11-06T20:00:00	6	Velocidad del viento	1.6
150878	7	Sololá	701	Sololá	2	El tablón	4	Abril	2023-04-27T00:00:00	2024-11-06T20:00:00	7	Dirección del viento	1.61
150879	7	Sololá	701	Sololá	2	El tablón	4	Abril	2023-04-27T00:00:00	2024-11-06T20:00:00	1	Precipitación	0
150880	7	Sololá	701	Sololá	2	El tablón	4	Abril	2023-04-27T00:00:00	2024-11-06T20:00:00	8	Radiación solar	0
150881	7	Sololá	701	Sololá	2	El tablón	4	Abril	2023-04-27T00:00:00	2024-11-06T21:00:00	2	Temperatura media	14.3
150882	7	Sololá	701	Sololá	2	El tablón	4	Abril	2023-04-27T00:00:00	2024-11-06T21:00:00	4	Temperatura máxima	14.6
150883	7	Sololá	701	Sololá	2	El tablón	4	Abril	2023-04-27T00:00:00	2024-11-06T21:00:00	3	Temperatura mínima	14.3
150884	7	Sololá	701	Sololá	2	El tablón	4	Abril	2023-04-27T00:00:00	2024-11-06T21:00:00	5	Humedad	89
150885	7	Sololá	701	Sololá	2	El tablón	4	Abril	2023-04-27T00:00:00	2024-11-06T21:00:00	6	Velocidad del viento	1.6
150886	7	Sololá	701	Sololá	2	El tablón	4	Abril	2023-04-27T00:00:00	2024-11-06T21:00:00	7	Dirección del viento	1.61
150887	7	Sololá	701	Sololá	2	El tablón	4	Abril	2023-04-27T00:00:00	2024-11-06T21:00:00	1	Precipitación	0
150888	7	Sololá	701	Sololá	2	El tablón	4	Abril	2023-04-27T00:00:00	2024-11-06T21:00:00	8	Radiación solar	0
150889	7	Sololá	701	Sololá	2	El tablón	4	Abril	2023-04-27T00:00:00	2024-11-06T22:00:00	2	Temperatura media	14
150890	7	Sololá	701	Sololá	2	El tablón	4	Abril	2023-04-27T00:00:00	2024-11-06T22:00:00	4	Temperatura máxima	14.3
150891	7	Sololá	701	Sololá	2	El tablón	4	Abril	2023-04-27T00:00:00	2024-11-06T22:00:00	3	Temperatura mínima	14
150892	7	Sololá	701	Sololá	2	El tablón	4	Abril	2023-04-27T00:00:00	2024-11-06T22:00:00	5	Humedad	89
150893	7	Sololá	701	Sololá	2	El tablón	4	Abril	2023-04-27T00:00:00	2024-11-06T22:00:00	6	Velocidad del viento	1.6
150894	7	Sololá	701	Sololá	2	El tablón	4	Abril	2023-04-27T00:00:00	2024-11-06T22:00:00	7	Dirección del viento	1.61
150895	7	Sololá	701	Sololá	2	El tablón	4	Abril	2023-04-27T00:00:00	2024-11-06T22:00:00	1	Precipitación	0
150896	7	Sololá	701	Sololá	2	El tablón	4	Abril	2023-04-27T00:00:00	2024-11-06T22:00:00	8	Radiación solar	0
150897	7	Sololá	701	Sololá	2	El tablón	4	Abril	2023-04-27T00:00:00	2024-11-06T23:00:00	2	Temperatura media	13.6
150898	7	Sololá	701	Sololá	2	El tablón	4	Abril	2023-04-27T00:00:00	2024-11-06T23:00:00	4	Temperatura máxima	14
150899	7	Sololá	701	Sololá	2	El tablón	4	Abril	2023-04-27T00:00:00	2024-11-06T23:00:00	3	Temperatura mínima	13.5
150900	7	Sololá	701	Sololá	2	El tablón	4	Abril	2023-04-27T00:00:00	2024-11-06T23:00:00	5	Humedad	88
150901	7	Sololá	701	Sololá	2	El tablón	4	Abril	2023-04-27T00:00:00	2024-11-06T23:00:00	6	Velocidad del viento	1.6
150902	7	Sololá	701	Sololá	2	El tablón	4	Abril	2023-04-27T00:00:00	2024-11-06T23:00:00	7	Dirección del viento	1.61
150903	7	Sololá	701	Sololá	2	El tablón	4	Abril	2023-04-27T00:00:00	2024-11-06T23:00:00	1	Precipitación	0
150904	7	Sololá	701	Sololá	2	El tablón	4	Abril	2023-04-27T00:00:00	2024-11-06T23:00:00	8	Radiación solar	0
150905	7	Sololá	701	Sololá	2	El tablón	4	Abril	2023-04-28T00:00:00	2024-11-06T00:00:00	2	Temperatura media	12.6
150906	7	Sololá	701	Sololá	2	El tablón	4	Abril	2023-04-28T00:00:00	2024-11-06T00:00:00	4	Temperatura máxima	13.6
150907	7	Sololá	701	Sololá	2	El tablón	4	Abril	2023-04-28T00:00:00	2024-11-06T00:00:00	3	Temperatura mínima	12.6
150908	7	Sololá	701	Sololá	2	El tablón	4	Abril	2023-04-28T00:00:00	2024-11-06T00:00:00	5	Humedad	89
150909	7	Sololá	701	Sololá	2	El tablón	4	Abril	2023-04-28T00:00:00	2024-11-06T00:00:00	6	Velocidad del viento	0
150910	7	Sololá	701	Sololá	2	El tablón	4	Abril	2023-04-28T00:00:00	2024-11-06T00:00:00	7	Dirección del viento	0
150911	7	Sololá	701	Sololá	2	El tablón	4	Abril	2023-04-28T00:00:00	2024-11-06T00:00:00	1	Precipitación	0
150912	7	Sololá	701	Sololá	2	El tablón	4	Abril	2023-04-28T00:00:00	2024-11-06T00:00:00	8	Radiación solar	0
150913	7	Sololá	701	Sololá	2	El tablón	4	Abril	2023-04-28T00:00:00	2024-11-06T01:00:00	2	Temperatura media	12.8
150914	7	Sololá	701	Sololá	2	El tablón	4	Abril	2023-04-28T00:00:00	2024-11-06T01:00:00	4	Temperatura máxima	12.9
150915	7	Sololá	701	Sololá	2	El tablón	4	Abril	2023-04-28T00:00:00	2024-11-06T01:00:00	3	Temperatura mínima	12.2
150916	7	Sololá	701	Sololá	2	El tablón	4	Abril	2023-04-28T00:00:00	2024-11-06T01:00:00	5	Humedad	89
150917	7	Sololá	701	Sololá	2	El tablón	4	Abril	2023-04-28T00:00:00	2024-11-06T01:00:00	6	Velocidad del viento	1.6
150918	7	Sololá	701	Sololá	2	El tablón	4	Abril	2023-04-28T00:00:00	2024-11-06T01:00:00	7	Dirección del viento	1.61
150919	7	Sololá	701	Sololá	2	El tablón	4	Abril	2023-04-28T00:00:00	2024-11-06T01:00:00	1	Precipitación	0
150920	7	Sololá	701	Sololá	2	El tablón	4	Abril	2023-04-28T00:00:00	2024-11-06T01:00:00	8	Radiación solar	0
150921	7	Sololá	701	Sololá	2	El tablón	4	Abril	2023-04-28T00:00:00	2024-11-06T02:00:00	2	Temperatura media	12.1
150922	7	Sololá	701	Sololá	2	El tablón	4	Abril	2023-04-28T00:00:00	2024-11-06T02:00:00	4	Temperatura máxima	12.9
150923	7	Sololá	701	Sololá	2	El tablón	4	Abril	2023-04-28T00:00:00	2024-11-06T02:00:00	3	Temperatura mínima	12.1
150924	7	Sololá	701	Sololá	2	El tablón	4	Abril	2023-04-28T00:00:00	2024-11-06T02:00:00	5	Humedad	89
150925	7	Sololá	701	Sololá	2	El tablón	4	Abril	2023-04-28T00:00:00	2024-11-06T02:00:00	6	Velocidad del viento	1.6
150926	7	Sololá	701	Sololá	2	El tablón	4	Abril	2023-04-28T00:00:00	2024-11-06T02:00:00	7	Dirección del viento	1.61
150927	7	Sololá	701	Sololá	2	El tablón	4	Abril	2023-04-28T00:00:00	2024-11-06T02:00:00	1	Precipitación	0
150928	7	Sololá	701	Sololá	2	El tablón	4	Abril	2023-04-28T00:00:00	2024-11-06T02:00:00	8	Radiación solar	0
150929	7	Sololá	701	Sololá	2	El tablón	4	Abril	2023-04-28T00:00:00	2024-11-06T03:00:00	2	Temperatura media	11.7
150930	7	Sololá	701	Sololá	2	El tablón	4	Abril	2023-04-28T00:00:00	2024-11-06T03:00:00	4	Temperatura máxima	12.1
150931	7	Sololá	701	Sololá	2	El tablón	4	Abril	2023-04-28T00:00:00	2024-11-06T03:00:00	3	Temperatura mínima	11.5
150932	7	Sololá	701	Sololá	2	El tablón	4	Abril	2023-04-28T00:00:00	2024-11-06T03:00:00	5	Humedad	89
150933	7	Sololá	701	Sololá	2	El tablón	4	Abril	2023-04-28T00:00:00	2024-11-06T03:00:00	6	Velocidad del viento	1.6
150934	7	Sololá	701	Sololá	2	El tablón	4	Abril	2023-04-28T00:00:00	2024-11-06T03:00:00	7	Dirección del viento	1.61
150935	7	Sololá	701	Sololá	2	El tablón	4	Abril	2023-04-28T00:00:00	2024-11-06T03:00:00	1	Precipitación	0
150936	7	Sololá	701	Sololá	2	El tablón	4	Abril	2023-04-28T00:00:00	2024-11-06T03:00:00	8	Radiación solar	0
150937	7	Sololá	701	Sololá	2	El tablón	4	Abril	2023-04-28T00:00:00	2024-11-06T04:00:00	2	Temperatura media	11.8
150938	7	Sololá	701	Sololá	2	El tablón	4	Abril	2023-04-28T00:00:00	2024-11-06T04:00:00	4	Temperatura máxima	12.3
150939	7	Sololá	701	Sololá	2	El tablón	4	Abril	2023-04-28T00:00:00	2024-11-06T04:00:00	3	Temperatura mínima	11.7
150940	7	Sololá	701	Sololá	2	El tablón	4	Abril	2023-04-28T00:00:00	2024-11-06T04:00:00	5	Humedad	89
150941	7	Sololá	701	Sololá	2	El tablón	4	Abril	2023-04-28T00:00:00	2024-11-06T04:00:00	6	Velocidad del viento	1.6
150942	7	Sololá	701	Sololá	2	El tablón	4	Abril	2023-04-28T00:00:00	2024-11-06T04:00:00	7	Dirección del viento	1.61
150943	7	Sololá	701	Sololá	2	El tablón	4	Abril	2023-04-28T00:00:00	2024-11-06T04:00:00	1	Precipitación	0
150944	7	Sololá	701	Sololá	2	El tablón	4	Abril	2023-04-28T00:00:00	2024-11-06T04:00:00	8	Radiación solar	0
150945	7	Sololá	701	Sololá	2	El tablón	4	Abril	2023-04-28T00:00:00	2024-11-06T05:00:00	2	Temperatura media	11.6
150946	7	Sololá	701	Sololá	2	El tablón	4	Abril	2023-04-28T00:00:00	2024-11-06T05:00:00	4	Temperatura máxima	11.8
150947	7	Sololá	701	Sololá	2	El tablón	4	Abril	2023-04-28T00:00:00	2024-11-06T05:00:00	3	Temperatura mínima	11.6
150948	7	Sololá	701	Sololá	2	El tablón	4	Abril	2023-04-28T00:00:00	2024-11-06T05:00:00	5	Humedad	89
150949	7	Sololá	701	Sololá	2	El tablón	4	Abril	2023-04-28T00:00:00	2024-11-06T05:00:00	6	Velocidad del viento	0
150950	7	Sololá	701	Sololá	2	El tablón	4	Abril	2023-04-28T00:00:00	2024-11-06T05:00:00	7	Dirección del viento	0
150951	7	Sololá	701	Sololá	2	El tablón	4	Abril	2023-04-28T00:00:00	2024-11-06T05:00:00	1	Precipitación	0
150952	7	Sololá	701	Sololá	2	El tablón	4	Abril	2023-04-28T00:00:00	2024-11-06T05:00:00	8	Radiación solar	0
150953	7	Sololá	701	Sololá	2	El tablón	4	Abril	2023-04-28T00:00:00	2024-11-06T06:00:00	2	Temperatura media	11.7
150954	7	Sololá	701	Sololá	2	El tablón	4	Abril	2023-04-28T00:00:00	2024-11-06T06:00:00	4	Temperatura máxima	11.9
150955	7	Sololá	701	Sololá	2	El tablón	4	Abril	2023-04-28T00:00:00	2024-11-06T06:00:00	3	Temperatura mínima	11.6
150956	7	Sololá	701	Sololá	2	El tablón	4	Abril	2023-04-28T00:00:00	2024-11-06T06:00:00	5	Humedad	89
150957	7	Sololá	701	Sololá	2	El tablón	4	Abril	2023-04-28T00:00:00	2024-11-06T06:00:00	6	Velocidad del viento	0
150958	7	Sololá	701	Sololá	2	El tablón	4	Abril	2023-04-28T00:00:00	2024-11-06T06:00:00	7	Dirección del viento	0
150959	7	Sololá	701	Sololá	2	El tablón	4	Abril	2023-04-28T00:00:00	2024-11-06T06:00:00	1	Precipitación	0
150960	7	Sololá	701	Sololá	2	El tablón	4	Abril	2023-04-28T00:00:00	2024-11-06T06:00:00	8	Radiación solar	2
150961	7	Sololá	701	Sololá	2	El tablón	4	Abril	2023-04-28T00:00:00	2024-11-06T07:00:00	2	Temperatura media	12.8
150962	7	Sololá	701	Sololá	2	El tablón	4	Abril	2023-04-28T00:00:00	2024-11-06T07:00:00	4	Temperatura máxima	12.8
150963	7	Sololá	701	Sololá	2	El tablón	4	Abril	2023-04-28T00:00:00	2024-11-06T07:00:00	3	Temperatura mínima	11.3
150964	7	Sololá	701	Sololá	2	El tablón	4	Abril	2023-04-28T00:00:00	2024-11-06T07:00:00	5	Humedad	88
150965	7	Sololá	701	Sololá	2	El tablón	4	Abril	2023-04-28T00:00:00	2024-11-06T07:00:00	6	Velocidad del viento	3.2
150966	7	Sololá	701	Sololá	2	El tablón	4	Abril	2023-04-28T00:00:00	2024-11-06T07:00:00	7	Dirección del viento	3.22
150967	7	Sololá	701	Sololá	2	El tablón	4	Abril	2023-04-28T00:00:00	2024-11-06T07:00:00	1	Precipitación	0
150968	7	Sololá	701	Sololá	2	El tablón	4	Abril	2023-04-28T00:00:00	2024-11-06T07:00:00	8	Radiación solar	80
150969	7	Sololá	701	Sololá	2	El tablón	4	Abril	2023-04-28T00:00:00	2024-11-06T08:00:00	2	Temperatura media	16
150970	7	Sololá	701	Sololá	2	El tablón	4	Abril	2023-04-28T00:00:00	2024-11-06T08:00:00	4	Temperatura máxima	16
150971	7	Sololá	701	Sololá	2	El tablón	4	Abril	2023-04-28T00:00:00	2024-11-06T08:00:00	3	Temperatura mínima	12.8
150972	7	Sololá	701	Sololá	2	El tablón	4	Abril	2023-04-28T00:00:00	2024-11-06T08:00:00	5	Humedad	78
150973	7	Sololá	701	Sololá	2	El tablón	4	Abril	2023-04-28T00:00:00	2024-11-06T08:00:00	6	Velocidad del viento	1.6
150974	7	Sololá	701	Sololá	2	El tablón	4	Abril	2023-04-28T00:00:00	2024-11-06T08:00:00	7	Dirección del viento	1.61
150975	7	Sololá	701	Sololá	2	El tablón	4	Abril	2023-04-28T00:00:00	2024-11-06T08:00:00	1	Precipitación	0
150976	7	Sololá	701	Sololá	2	El tablón	4	Abril	2023-04-28T00:00:00	2024-11-06T08:00:00	8	Radiación solar	285
150977	7	Sololá	701	Sololá	2	El tablón	4	Abril	2023-04-28T00:00:00	2024-11-06T09:00:00	2	Temperatura media	18.8
150978	7	Sololá	701	Sololá	2	El tablón	4	Abril	2023-04-28T00:00:00	2024-11-06T09:00:00	4	Temperatura máxima	19.1
150979	7	Sololá	701	Sololá	2	El tablón	4	Abril	2023-04-28T00:00:00	2024-11-06T09:00:00	3	Temperatura mínima	16
150980	7	Sololá	701	Sololá	2	El tablón	4	Abril	2023-04-28T00:00:00	2024-11-06T09:00:00	5	Humedad	80
150981	7	Sololá	701	Sololá	2	El tablón	4	Abril	2023-04-28T00:00:00	2024-11-06T09:00:00	6	Velocidad del viento	1.6
150982	7	Sololá	701	Sololá	2	El tablón	4	Abril	2023-04-28T00:00:00	2024-11-06T09:00:00	7	Dirección del viento	1.61
150983	7	Sololá	701	Sololá	2	El tablón	4	Abril	2023-04-28T00:00:00	2024-11-06T09:00:00	1	Precipitación	0
150984	7	Sololá	701	Sololá	2	El tablón	4	Abril	2023-04-28T00:00:00	2024-11-06T09:00:00	8	Radiación solar	499
150985	7	Sololá	701	Sololá	2	El tablón	4	Abril	2023-04-28T00:00:00	2024-11-06T10:00:00	2	Temperatura media	19.5
150986	7	Sololá	701	Sololá	2	El tablón	4	Abril	2023-04-28T00:00:00	2024-11-06T10:00:00	4	Temperatura máxima	19.5
150987	7	Sololá	701	Sololá	2	El tablón	4	Abril	2023-04-28T00:00:00	2024-11-06T10:00:00	3	Temperatura mínima	18
150988	7	Sololá	701	Sololá	2	El tablón	4	Abril	2023-04-28T00:00:00	2024-11-06T10:00:00	5	Humedad	76
150989	7	Sololá	701	Sololá	2	El tablón	4	Abril	2023-04-28T00:00:00	2024-11-06T10:00:00	6	Velocidad del viento	6.4
150990	7	Sololá	701	Sololá	2	El tablón	4	Abril	2023-04-28T00:00:00	2024-11-06T10:00:00	7	Dirección del viento	6.44
150991	7	Sololá	701	Sololá	2	El tablón	4	Abril	2023-04-28T00:00:00	2024-11-06T10:00:00	1	Precipitación	0
150992	7	Sololá	701	Sololá	2	El tablón	4	Abril	2023-04-28T00:00:00	2024-11-06T10:00:00	8	Radiación solar	706
150993	7	Sololá	701	Sololá	2	El tablón	4	Abril	2023-04-28T00:00:00	2024-11-06T11:00:00	2	Temperatura media	19.6
150994	7	Sololá	701	Sololá	2	El tablón	4	Abril	2023-04-28T00:00:00	2024-11-06T11:00:00	4	Temperatura máxima	20.1
150995	7	Sololá	701	Sololá	2	El tablón	4	Abril	2023-04-28T00:00:00	2024-11-06T11:00:00	3	Temperatura mínima	19.4
150996	7	Sololá	701	Sololá	2	El tablón	4	Abril	2023-04-28T00:00:00	2024-11-06T11:00:00	5	Humedad	73
150997	7	Sololá	701	Sololá	2	El tablón	4	Abril	2023-04-28T00:00:00	2024-11-06T11:00:00	6	Velocidad del viento	9.7
150998	7	Sololá	701	Sololá	2	El tablón	4	Abril	2023-04-28T00:00:00	2024-11-06T11:00:00	7	Dirección del viento	9.66
150999	7	Sololá	701	Sololá	2	El tablón	4	Abril	2023-04-28T00:00:00	2024-11-06T11:00:00	1	Precipitación	0
151000	7	Sololá	701	Sololá	2	El tablón	4	Abril	2023-04-28T00:00:00	2024-11-06T11:00:00	8	Radiación solar	839
151001	7	Sololá	701	Sololá	2	El tablón	4	Abril	2023-04-28T00:00:00	2024-11-06T12:00:00	2	Temperatura media	18.8
151002	7	Sololá	701	Sololá	2	El tablón	4	Abril	2023-04-28T00:00:00	2024-11-06T12:00:00	4	Temperatura máxima	19.9
151003	7	Sololá	701	Sololá	2	El tablón	4	Abril	2023-04-28T00:00:00	2024-11-06T12:00:00	3	Temperatura mínima	18.8
151004	7	Sololá	701	Sololá	2	El tablón	4	Abril	2023-04-28T00:00:00	2024-11-06T12:00:00	5	Humedad	81
151005	7	Sololá	701	Sololá	2	El tablón	4	Abril	2023-04-28T00:00:00	2024-11-06T12:00:00	6	Velocidad del viento	9.7
151006	7	Sololá	701	Sololá	2	El tablón	4	Abril	2023-04-28T00:00:00	2024-11-06T12:00:00	7	Dirección del viento	9.66
151007	7	Sololá	701	Sololá	2	El tablón	4	Abril	2023-04-28T00:00:00	2024-11-06T12:00:00	1	Precipitación	0
151008	7	Sololá	701	Sololá	2	El tablón	4	Abril	2023-04-28T00:00:00	2024-11-06T12:00:00	8	Radiación solar	915
151009	7	Sololá	701	Sololá	2	El tablón	4	Abril	2023-04-28T00:00:00	2024-11-06T13:00:00	2	Temperatura media	18.3
151010	7	Sololá	701	Sololá	2	El tablón	4	Abril	2023-04-28T00:00:00	2024-11-06T13:00:00	4	Temperatura máxima	18.9
151011	7	Sololá	701	Sololá	2	El tablón	4	Abril	2023-04-28T00:00:00	2024-11-06T13:00:00	3	Temperatura mínima	18.2
151012	7	Sololá	701	Sololá	2	El tablón	4	Abril	2023-04-28T00:00:00	2024-11-06T13:00:00	5	Humedad	82
151013	7	Sololá	701	Sololá	2	El tablón	4	Abril	2023-04-28T00:00:00	2024-11-06T13:00:00	6	Velocidad del viento	8
151014	7	Sololá	701	Sololá	2	El tablón	4	Abril	2023-04-28T00:00:00	2024-11-06T13:00:00	7	Dirección del viento	8.05
151015	7	Sololá	701	Sololá	2	El tablón	4	Abril	2023-04-28T00:00:00	2024-11-06T13:00:00	1	Precipitación	0
151016	7	Sololá	701	Sololá	2	El tablón	4	Abril	2023-04-28T00:00:00	2024-11-06T13:00:00	8	Radiación solar	706
151017	7	Sololá	701	Sololá	2	El tablón	4	Abril	2023-04-28T00:00:00	2024-11-06T14:00:00	2	Temperatura media	16.9
151018	7	Sololá	701	Sololá	2	El tablón	4	Abril	2023-04-28T00:00:00	2024-11-06T14:00:00	4	Temperatura máxima	18.4
151019	7	Sololá	701	Sololá	2	El tablón	4	Abril	2023-04-28T00:00:00	2024-11-06T14:00:00	3	Temperatura mínima	16.9
151020	7	Sololá	701	Sololá	2	El tablón	4	Abril	2023-04-28T00:00:00	2024-11-06T14:00:00	5	Humedad	86
151021	7	Sololá	701	Sololá	2	El tablón	4	Abril	2023-04-28T00:00:00	2024-11-06T14:00:00	6	Velocidad del viento	8
151022	7	Sololá	701	Sololá	2	El tablón	4	Abril	2023-04-28T00:00:00	2024-11-06T14:00:00	7	Dirección del viento	8.05
151023	7	Sololá	701	Sololá	2	El tablón	4	Abril	2023-04-28T00:00:00	2024-11-06T14:00:00	1	Precipitación	0
151024	7	Sololá	701	Sololá	2	El tablón	4	Abril	2023-04-28T00:00:00	2024-11-06T14:00:00	8	Radiación solar	267
151025	7	Sololá	701	Sololá	2	El tablón	4	Abril	2023-04-28T00:00:00	2024-11-06T15:00:00	2	Temperatura media	17
151026	7	Sololá	701	Sololá	2	El tablón	4	Abril	2023-04-28T00:00:00	2024-11-06T15:00:00	4	Temperatura máxima	17.6
151027	7	Sololá	701	Sololá	2	El tablón	4	Abril	2023-04-28T00:00:00	2024-11-06T15:00:00	3	Temperatura mínima	16.7
151028	7	Sololá	701	Sololá	2	El tablón	4	Abril	2023-04-28T00:00:00	2024-11-06T15:00:00	5	Humedad	87
151029	7	Sololá	701	Sololá	2	El tablón	4	Abril	2023-04-28T00:00:00	2024-11-06T15:00:00	6	Velocidad del viento	8
151030	7	Sololá	701	Sololá	2	El tablón	4	Abril	2023-04-28T00:00:00	2024-11-06T15:00:00	7	Dirección del viento	8.05
151031	7	Sololá	701	Sololá	2	El tablón	4	Abril	2023-04-28T00:00:00	2024-11-06T15:00:00	1	Precipitación	0
151032	7	Sololá	701	Sololá	2	El tablón	4	Abril	2023-04-28T00:00:00	2024-11-06T15:00:00	8	Radiación solar	350
151033	7	Sololá	701	Sololá	2	El tablón	4	Abril	2023-04-28T00:00:00	2024-11-06T16:00:00	2	Temperatura media	16.3
151034	7	Sololá	701	Sololá	2	El tablón	4	Abril	2023-04-28T00:00:00	2024-11-06T16:00:00	4	Temperatura máxima	17
151035	7	Sololá	701	Sololá	2	El tablón	4	Abril	2023-04-28T00:00:00	2024-11-06T16:00:00	3	Temperatura mínima	16.3
151036	7	Sololá	701	Sololá	2	El tablón	4	Abril	2023-04-28T00:00:00	2024-11-06T16:00:00	5	Humedad	88
151037	7	Sololá	701	Sololá	2	El tablón	4	Abril	2023-04-28T00:00:00	2024-11-06T16:00:00	6	Velocidad del viento	6.4
151038	7	Sololá	701	Sololá	2	El tablón	4	Abril	2023-04-28T00:00:00	2024-11-06T16:00:00	7	Dirección del viento	6.44
151039	7	Sololá	701	Sololá	2	El tablón	4	Abril	2023-04-28T00:00:00	2024-11-06T16:00:00	1	Precipitación	0
151040	7	Sololá	701	Sololá	2	El tablón	4	Abril	2023-04-28T00:00:00	2024-11-06T16:00:00	8	Radiación solar	210
151041	7	Sololá	701	Sololá	2	El tablón	4	Abril	2023-04-28T00:00:00	2024-11-06T17:00:00	2	Temperatura media	15.1
151042	7	Sololá	701	Sololá	2	El tablón	4	Abril	2023-04-28T00:00:00	2024-11-06T17:00:00	4	Temperatura máxima	16.2
151043	7	Sololá	701	Sololá	2	El tablón	4	Abril	2023-04-28T00:00:00	2024-11-06T17:00:00	3	Temperatura mínima	15.1
151044	7	Sololá	701	Sololá	2	El tablón	4	Abril	2023-04-28T00:00:00	2024-11-06T17:00:00	5	Humedad	88
151045	7	Sololá	701	Sololá	2	El tablón	4	Abril	2023-04-28T00:00:00	2024-11-06T17:00:00	6	Velocidad del viento	3.2
151046	7	Sololá	701	Sololá	2	El tablón	4	Abril	2023-04-28T00:00:00	2024-11-06T17:00:00	7	Dirección del viento	3.22
151047	7	Sololá	701	Sololá	2	El tablón	4	Abril	2023-04-28T00:00:00	2024-11-06T17:00:00	1	Precipitación	0
151048	7	Sololá	701	Sololá	2	El tablón	4	Abril	2023-04-28T00:00:00	2024-11-06T17:00:00	8	Radiación solar	31
151049	7	Sololá	701	Sololá	2	El tablón	4	Abril	2023-04-28T00:00:00	2024-11-06T18:00:00	2	Temperatura media	14.8
151050	7	Sololá	701	Sololá	2	El tablón	4	Abril	2023-04-28T00:00:00	2024-11-06T18:00:00	4	Temperatura máxima	15.1
151051	7	Sololá	701	Sololá	2	El tablón	4	Abril	2023-04-28T00:00:00	2024-11-06T18:00:00	3	Temperatura mínima	14.8
151052	7	Sololá	701	Sololá	2	El tablón	4	Abril	2023-04-28T00:00:00	2024-11-06T18:00:00	5	Humedad	89
151053	7	Sololá	701	Sololá	2	El tablón	4	Abril	2023-04-28T00:00:00	2024-11-06T18:00:00	6	Velocidad del viento	3.2
151054	7	Sololá	701	Sololá	2	El tablón	4	Abril	2023-04-28T00:00:00	2024-11-06T18:00:00	7	Dirección del viento	3.22
151055	7	Sololá	701	Sololá	2	El tablón	4	Abril	2023-04-28T00:00:00	2024-11-06T18:00:00	1	Precipitación	0
151056	7	Sololá	701	Sololá	2	El tablón	4	Abril	2023-04-28T00:00:00	2024-11-06T18:00:00	8	Radiación solar	33
151057	7	Sololá	701	Sololá	2	El tablón	4	Abril	2023-04-28T00:00:00	2024-11-06T19:00:00	2	Temperatura media	14.6
151058	7	Sololá	701	Sololá	2	El tablón	4	Abril	2023-04-28T00:00:00	2024-11-06T19:00:00	4	Temperatura máxima	14.8
151059	7	Sololá	701	Sololá	2	El tablón	4	Abril	2023-04-28T00:00:00	2024-11-06T19:00:00	3	Temperatura mínima	14.6
151060	7	Sololá	701	Sololá	2	El tablón	4	Abril	2023-04-28T00:00:00	2024-11-06T19:00:00	5	Humedad	88
151061	7	Sololá	701	Sololá	2	El tablón	4	Abril	2023-04-28T00:00:00	2024-11-06T19:00:00	6	Velocidad del viento	1.6
151062	7	Sololá	701	Sololá	2	El tablón	4	Abril	2023-04-28T00:00:00	2024-11-06T19:00:00	7	Dirección del viento	1.61
151063	7	Sololá	701	Sololá	2	El tablón	4	Abril	2023-04-28T00:00:00	2024-11-06T19:00:00	1	Precipitación	1.6
151064	7	Sololá	701	Sololá	2	El tablón	4	Abril	2023-04-28T00:00:00	2024-11-06T19:00:00	8	Radiación solar	0
151065	7	Sololá	701	Sololá	2	El tablón	4	Abril	2023-04-28T00:00:00	2024-11-06T20:00:00	2	Temperatura media	14.3
151066	7	Sololá	701	Sololá	2	El tablón	4	Abril	2023-04-28T00:00:00	2024-11-06T20:00:00	4	Temperatura máxima	14.6
151067	7	Sololá	701	Sololá	2	El tablón	4	Abril	2023-04-28T00:00:00	2024-11-06T20:00:00	3	Temperatura mínima	14.2
151068	7	Sololá	701	Sololá	2	El tablón	4	Abril	2023-04-28T00:00:00	2024-11-06T20:00:00	5	Humedad	87
151069	7	Sololá	701	Sololá	2	El tablón	4	Abril	2023-04-28T00:00:00	2024-11-06T20:00:00	6	Velocidad del viento	4.8
151070	7	Sololá	701	Sololá	2	El tablón	4	Abril	2023-04-28T00:00:00	2024-11-06T20:00:00	7	Dirección del viento	4.83
151071	7	Sololá	701	Sololá	2	El tablón	4	Abril	2023-04-28T00:00:00	2024-11-06T20:00:00	1	Precipitación	6.8
151072	7	Sololá	701	Sololá	2	El tablón	4	Abril	2023-04-28T00:00:00	2024-11-06T20:00:00	8	Radiación solar	0
151073	7	Sololá	701	Sololá	2	El tablón	4	Abril	2023-04-28T00:00:00	2024-11-06T21:00:00	2	Temperatura media	14
151074	7	Sololá	701	Sololá	2	El tablón	4	Abril	2023-04-28T00:00:00	2024-11-06T21:00:00	4	Temperatura máxima	14.3
151075	7	Sololá	701	Sololá	2	El tablón	4	Abril	2023-04-28T00:00:00	2024-11-06T21:00:00	3	Temperatura mínima	14
151076	7	Sololá	701	Sololá	2	El tablón	4	Abril	2023-04-28T00:00:00	2024-11-06T21:00:00	5	Humedad	87
151077	7	Sololá	701	Sololá	2	El tablón	4	Abril	2023-04-28T00:00:00	2024-11-06T21:00:00	6	Velocidad del viento	0
151078	7	Sololá	701	Sololá	2	El tablón	4	Abril	2023-04-28T00:00:00	2024-11-06T21:00:00	7	Dirección del viento	0
151079	7	Sololá	701	Sololá	2	El tablón	4	Abril	2023-04-28T00:00:00	2024-11-06T21:00:00	1	Precipitación	0
151080	7	Sololá	701	Sololá	2	El tablón	4	Abril	2023-04-28T00:00:00	2024-11-06T21:00:00	8	Radiación solar	0
151081	7	Sololá	701	Sololá	2	El tablón	4	Abril	2023-04-28T00:00:00	2024-11-06T22:00:00	2	Temperatura media	13.9
151082	7	Sololá	701	Sololá	2	El tablón	4	Abril	2023-04-28T00:00:00	2024-11-06T22:00:00	4	Temperatura máxima	14.1
151083	7	Sololá	701	Sololá	2	El tablón	4	Abril	2023-04-28T00:00:00	2024-11-06T22:00:00	3	Temperatura mínima	13.9
151084	7	Sololá	701	Sololá	2	El tablón	4	Abril	2023-04-28T00:00:00	2024-11-06T22:00:00	5	Humedad	87
151085	7	Sololá	701	Sololá	2	El tablón	4	Abril	2023-04-28T00:00:00	2024-11-06T22:00:00	6	Velocidad del viento	3.2
151086	7	Sololá	701	Sololá	2	El tablón	4	Abril	2023-04-28T00:00:00	2024-11-06T22:00:00	7	Dirección del viento	3.22
151087	7	Sololá	701	Sololá	2	El tablón	4	Abril	2023-04-28T00:00:00	2024-11-06T22:00:00	1	Precipitación	0.6
151088	7	Sololá	701	Sololá	2	El tablón	4	Abril	2023-04-28T00:00:00	2024-11-06T22:00:00	8	Radiación solar	0
151089	7	Sololá	701	Sololá	2	El tablón	4	Abril	2023-04-28T00:00:00	2024-11-06T23:00:00	2	Temperatura media	13.5
151090	7	Sololá	701	Sololá	2	El tablón	4	Abril	2023-04-28T00:00:00	2024-11-06T23:00:00	4	Temperatura máxima	13.9
151091	7	Sololá	701	Sololá	2	El tablón	4	Abril	2023-04-28T00:00:00	2024-11-06T23:00:00	3	Temperatura mínima	13.4
151092	7	Sololá	701	Sololá	2	El tablón	4	Abril	2023-04-28T00:00:00	2024-11-06T23:00:00	5	Humedad	87
151093	7	Sololá	701	Sololá	2	El tablón	4	Abril	2023-04-28T00:00:00	2024-11-06T23:00:00	6	Velocidad del viento	1.6
151094	7	Sololá	701	Sololá	2	El tablón	4	Abril	2023-04-28T00:00:00	2024-11-06T23:00:00	7	Dirección del viento	1.61
151095	7	Sololá	701	Sololá	2	El tablón	4	Abril	2023-04-28T00:00:00	2024-11-06T23:00:00	1	Precipitación	4
151096	7	Sololá	701	Sololá	2	El tablón	4	Abril	2023-04-28T00:00:00	2024-11-06T23:00:00	8	Radiación solar	0
151097	7	Sololá	701	Sololá	2	El tablón	4	Abril	2023-04-29T00:00:00	2024-11-06T00:00:00	2	Temperatura media	11.4
151098	7	Sololá	701	Sololá	2	El tablón	4	Abril	2023-04-29T00:00:00	2024-11-06T00:00:00	4	Temperatura máxima	13.5
151099	7	Sololá	701	Sololá	2	El tablón	4	Abril	2023-04-29T00:00:00	2024-11-06T00:00:00	3	Temperatura mínima	11.2
151100	7	Sololá	701	Sololá	2	El tablón	4	Abril	2023-04-29T00:00:00	2024-11-06T00:00:00	5	Humedad	89
151101	7	Sololá	701	Sololá	2	El tablón	4	Abril	2023-04-29T00:00:00	2024-11-06T00:00:00	6	Velocidad del viento	11.3
151102	7	Sololá	701	Sololá	2	El tablón	4	Abril	2023-04-29T00:00:00	2024-11-06T00:00:00	7	Dirección del viento	11.27
151103	7	Sololá	701	Sololá	2	El tablón	4	Abril	2023-04-29T00:00:00	2024-11-06T00:00:00	1	Precipitación	26.8
151104	7	Sololá	701	Sololá	2	El tablón	4	Abril	2023-04-29T00:00:00	2024-11-06T00:00:00	8	Radiación solar	0
151105	7	Sololá	701	Sololá	2	El tablón	4	Abril	2023-04-29T00:00:00	2024-11-06T01:00:00	2	Temperatura media	11.8
151106	7	Sololá	701	Sololá	2	El tablón	4	Abril	2023-04-29T00:00:00	2024-11-06T01:00:00	4	Temperatura máxima	11.8
151107	7	Sololá	701	Sololá	2	El tablón	4	Abril	2023-04-29T00:00:00	2024-11-06T01:00:00	3	Temperatura mínima	11.3
151108	7	Sololá	701	Sololá	2	El tablón	4	Abril	2023-04-29T00:00:00	2024-11-06T01:00:00	5	Humedad	89
151109	7	Sololá	701	Sololá	2	El tablón	4	Abril	2023-04-29T00:00:00	2024-11-06T01:00:00	6	Velocidad del viento	3.2
151110	7	Sololá	701	Sololá	2	El tablón	4	Abril	2023-04-29T00:00:00	2024-11-06T01:00:00	7	Dirección del viento	3.22
151111	7	Sololá	701	Sololá	2	El tablón	4	Abril	2023-04-29T00:00:00	2024-11-06T01:00:00	1	Precipitación	0
151112	7	Sololá	701	Sololá	2	El tablón	4	Abril	2023-04-29T00:00:00	2024-11-06T01:00:00	8	Radiación solar	0
151113	7	Sololá	701	Sololá	2	El tablón	4	Abril	2023-04-29T00:00:00	2024-11-06T02:00:00	2	Temperatura media	12.4
151114	7	Sololá	701	Sololá	2	El tablón	4	Abril	2023-04-29T00:00:00	2024-11-06T02:00:00	4	Temperatura máxima	12.4
151115	7	Sololá	701	Sololá	2	El tablón	4	Abril	2023-04-29T00:00:00	2024-11-06T02:00:00	3	Temperatura mínima	11.8
151116	7	Sololá	701	Sololá	2	El tablón	4	Abril	2023-04-29T00:00:00	2024-11-06T02:00:00	5	Humedad	89
151117	7	Sololá	701	Sololá	2	El tablón	4	Abril	2023-04-29T00:00:00	2024-11-06T02:00:00	6	Velocidad del viento	1.6
151118	7	Sololá	701	Sololá	2	El tablón	4	Abril	2023-04-29T00:00:00	2024-11-06T02:00:00	7	Dirección del viento	1.61
151119	7	Sololá	701	Sololá	2	El tablón	4	Abril	2023-04-29T00:00:00	2024-11-06T02:00:00	1	Precipitación	0
151120	7	Sololá	701	Sololá	2	El tablón	4	Abril	2023-04-29T00:00:00	2024-11-06T02:00:00	8	Radiación solar	0
151121	7	Sololá	701	Sololá	2	El tablón	4	Abril	2023-04-29T00:00:00	2024-11-06T03:00:00	2	Temperatura media	11.6
151122	7	Sololá	701	Sololá	2	El tablón	4	Abril	2023-04-29T00:00:00	2024-11-06T03:00:00	4	Temperatura máxima	12.4
151123	7	Sololá	701	Sololá	2	El tablón	4	Abril	2023-04-29T00:00:00	2024-11-06T03:00:00	3	Temperatura mínima	11.6
151124	7	Sololá	701	Sololá	2	El tablón	4	Abril	2023-04-29T00:00:00	2024-11-06T03:00:00	5	Humedad	89
151125	7	Sololá	701	Sololá	2	El tablón	4	Abril	2023-04-29T00:00:00	2024-11-06T03:00:00	6	Velocidad del viento	1.6
151126	7	Sololá	701	Sololá	2	El tablón	4	Abril	2023-04-29T00:00:00	2024-11-06T03:00:00	7	Dirección del viento	1.61
151127	7	Sololá	701	Sololá	2	El tablón	4	Abril	2023-04-29T00:00:00	2024-11-06T03:00:00	1	Precipitación	0
151128	7	Sololá	701	Sololá	2	El tablón	4	Abril	2023-04-29T00:00:00	2024-11-06T03:00:00	8	Radiación solar	0
151129	7	Sololá	701	Sololá	2	El tablón	4	Abril	2023-04-29T00:00:00	2024-11-06T04:00:00	2	Temperatura media	11.3
151130	7	Sololá	701	Sololá	2	El tablón	4	Abril	2023-04-29T00:00:00	2024-11-06T04:00:00	4	Temperatura máxima	11.6
151131	7	Sololá	701	Sololá	2	El tablón	4	Abril	2023-04-29T00:00:00	2024-11-06T04:00:00	3	Temperatura mínima	11.3
151132	7	Sololá	701	Sololá	2	El tablón	4	Abril	2023-04-29T00:00:00	2024-11-06T04:00:00	5	Humedad	89
151133	7	Sololá	701	Sololá	2	El tablón	4	Abril	2023-04-29T00:00:00	2024-11-06T04:00:00	6	Velocidad del viento	1.6
151134	7	Sololá	701	Sololá	2	El tablón	4	Abril	2023-04-29T00:00:00	2024-11-06T04:00:00	7	Dirección del viento	1.61
151135	7	Sololá	701	Sololá	2	El tablón	4	Abril	2023-04-29T00:00:00	2024-11-06T04:00:00	1	Precipitación	0
151136	7	Sololá	701	Sololá	2	El tablón	4	Abril	2023-04-29T00:00:00	2024-11-06T04:00:00	8	Radiación solar	0
151137	7	Sololá	701	Sololá	2	El tablón	4	Abril	2023-04-29T00:00:00	2024-11-06T05:00:00	2	Temperatura media	10.8
151138	7	Sololá	701	Sololá	2	El tablón	4	Abril	2023-04-29T00:00:00	2024-11-06T05:00:00	4	Temperatura máxima	11.3
151139	7	Sololá	701	Sololá	2	El tablón	4	Abril	2023-04-29T00:00:00	2024-11-06T05:00:00	3	Temperatura mínima	10.8
151140	7	Sololá	701	Sololá	2	El tablón	4	Abril	2023-04-29T00:00:00	2024-11-06T05:00:00	5	Humedad	90
151141	7	Sololá	701	Sololá	2	El tablón	4	Abril	2023-04-29T00:00:00	2024-11-06T05:00:00	6	Velocidad del viento	0
151142	7	Sololá	701	Sololá	2	El tablón	4	Abril	2023-04-29T00:00:00	2024-11-06T05:00:00	7	Dirección del viento	0
151143	7	Sololá	701	Sololá	2	El tablón	4	Abril	2023-04-29T00:00:00	2024-11-06T05:00:00	1	Precipitación	0
151144	7	Sololá	701	Sololá	2	El tablón	4	Abril	2023-04-29T00:00:00	2024-11-06T05:00:00	8	Radiación solar	0
151145	7	Sololá	701	Sololá	2	El tablón	4	Abril	2023-04-29T00:00:00	2024-11-06T06:00:00	2	Temperatura media	10.6
151146	7	Sololá	701	Sololá	2	El tablón	4	Abril	2023-04-29T00:00:00	2024-11-06T06:00:00	4	Temperatura máxima	11.1
151147	7	Sololá	701	Sololá	2	El tablón	4	Abril	2023-04-29T00:00:00	2024-11-06T06:00:00	3	Temperatura mínima	10.6
151148	7	Sololá	701	Sololá	2	El tablón	4	Abril	2023-04-29T00:00:00	2024-11-06T06:00:00	5	Humedad	89
151149	7	Sololá	701	Sololá	2	El tablón	4	Abril	2023-04-29T00:00:00	2024-11-06T06:00:00	6	Velocidad del viento	0
151150	7	Sololá	701	Sololá	2	El tablón	4	Abril	2023-04-29T00:00:00	2024-11-06T06:00:00	7	Dirección del viento	0
151151	7	Sololá	701	Sololá	2	El tablón	4	Abril	2023-04-29T00:00:00	2024-11-06T06:00:00	1	Precipitación	0
151152	7	Sololá	701	Sololá	2	El tablón	4	Abril	2023-04-29T00:00:00	2024-11-06T06:00:00	8	Radiación solar	1
151153	7	Sololá	701	Sololá	2	El tablón	4	Abril	2023-04-29T00:00:00	2024-11-06T07:00:00	2	Temperatura media	11.6
151154	7	Sololá	701	Sololá	2	El tablón	4	Abril	2023-04-29T00:00:00	2024-11-06T07:00:00	4	Temperatura máxima	11.6
151155	7	Sololá	701	Sololá	2	El tablón	4	Abril	2023-04-29T00:00:00	2024-11-06T07:00:00	3	Temperatura mínima	10.6
151156	7	Sololá	701	Sololá	2	El tablón	4	Abril	2023-04-29T00:00:00	2024-11-06T07:00:00	5	Humedad	89
151157	7	Sololá	701	Sololá	2	El tablón	4	Abril	2023-04-29T00:00:00	2024-11-06T07:00:00	6	Velocidad del viento	1.6
151158	7	Sololá	701	Sololá	2	El tablón	4	Abril	2023-04-29T00:00:00	2024-11-06T07:00:00	7	Dirección del viento	1.61
151159	7	Sololá	701	Sololá	2	El tablón	4	Abril	2023-04-29T00:00:00	2024-11-06T07:00:00	1	Precipitación	0
151160	7	Sololá	701	Sololá	2	El tablón	4	Abril	2023-04-29T00:00:00	2024-11-06T07:00:00	8	Radiación solar	67
151161	7	Sololá	701	Sololá	2	El tablón	4	Abril	2023-04-29T00:00:00	2024-11-06T08:00:00	2	Temperatura media	14.4
151162	7	Sololá	701	Sololá	2	El tablón	4	Abril	2023-04-29T00:00:00	2024-11-06T08:00:00	4	Temperatura máxima	14.4
151163	7	Sololá	701	Sololá	2	El tablón	4	Abril	2023-04-29T00:00:00	2024-11-06T08:00:00	3	Temperatura mínima	11.6
151164	7	Sololá	701	Sololá	2	El tablón	4	Abril	2023-04-29T00:00:00	2024-11-06T08:00:00	5	Humedad	82
151165	7	Sololá	701	Sololá	2	El tablón	4	Abril	2023-04-29T00:00:00	2024-11-06T08:00:00	6	Velocidad del viento	1.6
151166	7	Sololá	701	Sololá	2	El tablón	4	Abril	2023-04-29T00:00:00	2024-11-06T08:00:00	7	Dirección del viento	1.61
151167	7	Sololá	701	Sololá	2	El tablón	4	Abril	2023-04-29T00:00:00	2024-11-06T08:00:00	1	Precipitación	0
151168	7	Sololá	701	Sololá	2	El tablón	4	Abril	2023-04-29T00:00:00	2024-11-06T08:00:00	8	Radiación solar	282
151169	7	Sololá	701	Sololá	2	El tablón	4	Abril	2023-04-29T00:00:00	2024-11-06T09:00:00	2	Temperatura media	17.2
151170	7	Sololá	701	Sololá	2	El tablón	4	Abril	2023-04-29T00:00:00	2024-11-06T09:00:00	4	Temperatura máxima	17.2
151171	7	Sololá	701	Sololá	2	El tablón	4	Abril	2023-04-29T00:00:00	2024-11-06T09:00:00	3	Temperatura mínima	14.4
151172	7	Sololá	701	Sololá	2	El tablón	4	Abril	2023-04-29T00:00:00	2024-11-06T09:00:00	5	Humedad	78
151173	7	Sololá	701	Sololá	2	El tablón	4	Abril	2023-04-29T00:00:00	2024-11-06T09:00:00	6	Velocidad del viento	3.2
151174	7	Sololá	701	Sololá	2	El tablón	4	Abril	2023-04-29T00:00:00	2024-11-06T09:00:00	7	Dirección del viento	3.22
151175	7	Sololá	701	Sololá	2	El tablón	4	Abril	2023-04-29T00:00:00	2024-11-06T09:00:00	1	Precipitación	0
151176	7	Sololá	701	Sololá	2	El tablón	4	Abril	2023-04-29T00:00:00	2024-11-06T09:00:00	8	Radiación solar	512
151177	7	Sololá	701	Sololá	2	El tablón	4	Abril	2023-04-29T00:00:00	2024-11-06T10:00:00	2	Temperatura media	16.8
151178	7	Sololá	701	Sololá	2	El tablón	4	Abril	2023-04-29T00:00:00	2024-11-06T10:00:00	4	Temperatura máxima	17.7
151179	7	Sololá	701	Sololá	2	El tablón	4	Abril	2023-04-29T00:00:00	2024-11-06T10:00:00	3	Temperatura mínima	16.8
151180	7	Sololá	701	Sololá	2	El tablón	4	Abril	2023-04-29T00:00:00	2024-11-06T10:00:00	5	Humedad	79
151181	7	Sololá	701	Sololá	2	El tablón	4	Abril	2023-04-29T00:00:00	2024-11-06T10:00:00	6	Velocidad del viento	6.4
151182	7	Sololá	701	Sololá	2	El tablón	4	Abril	2023-04-29T00:00:00	2024-11-06T10:00:00	7	Dirección del viento	6.44
151183	7	Sololá	701	Sololá	2	El tablón	4	Abril	2023-04-29T00:00:00	2024-11-06T10:00:00	1	Precipitación	0
151184	7	Sololá	701	Sololá	2	El tablón	4	Abril	2023-04-29T00:00:00	2024-11-06T10:00:00	8	Radiación solar	651
151185	7	Sololá	701	Sololá	2	El tablón	4	Abril	2023-04-29T00:00:00	2024-11-06T11:00:00	2	Temperatura media	17.8
151186	7	Sololá	701	Sololá	2	El tablón	4	Abril	2023-04-29T00:00:00	2024-11-06T11:00:00	4	Temperatura máxima	17.8
151187	7	Sololá	701	Sololá	2	El tablón	4	Abril	2023-04-29T00:00:00	2024-11-06T11:00:00	3	Temperatura mínima	16.7
151188	7	Sololá	701	Sololá	2	El tablón	4	Abril	2023-04-29T00:00:00	2024-11-06T11:00:00	5	Humedad	81
151189	7	Sololá	701	Sololá	2	El tablón	4	Abril	2023-04-29T00:00:00	2024-11-06T11:00:00	6	Velocidad del viento	4.8
151190	7	Sololá	701	Sololá	2	El tablón	4	Abril	2023-04-29T00:00:00	2024-11-06T11:00:00	7	Dirección del viento	4.83
151191	7	Sololá	701	Sololá	2	El tablón	4	Abril	2023-04-29T00:00:00	2024-11-06T11:00:00	1	Precipitación	0
151192	7	Sololá	701	Sololá	2	El tablón	4	Abril	2023-04-29T00:00:00	2024-11-06T11:00:00	8	Radiación solar	834
151193	7	Sololá	701	Sololá	2	El tablón	4	Abril	2023-04-29T00:00:00	2024-11-06T12:00:00	2	Temperatura media	17.8
151194	7	Sololá	701	Sololá	2	El tablón	4	Abril	2023-04-29T00:00:00	2024-11-06T12:00:00	4	Temperatura máxima	18.3
151195	7	Sololá	701	Sololá	2	El tablón	4	Abril	2023-04-29T00:00:00	2024-11-06T12:00:00	3	Temperatura mínima	17.4
151196	7	Sololá	701	Sololá	2	El tablón	4	Abril	2023-04-29T00:00:00	2024-11-06T12:00:00	5	Humedad	79
151197	7	Sololá	701	Sololá	2	El tablón	4	Abril	2023-04-29T00:00:00	2024-11-06T12:00:00	6	Velocidad del viento	6.4
151198	7	Sololá	701	Sololá	2	El tablón	4	Abril	2023-04-29T00:00:00	2024-11-06T12:00:00	7	Dirección del viento	6.44
151199	7	Sololá	701	Sololá	2	El tablón	4	Abril	2023-04-29T00:00:00	2024-11-06T12:00:00	1	Precipitación	0
151200	7	Sololá	701	Sololá	2	El tablón	4	Abril	2023-04-29T00:00:00	2024-11-06T12:00:00	8	Radiación solar	911
151201	7	Sololá	701	Sololá	2	El tablón	4	Abril	2023-04-29T00:00:00	2024-11-06T13:00:00	2	Temperatura media	18.7
151202	7	Sololá	701	Sololá	2	El tablón	4	Abril	2023-04-29T00:00:00	2024-11-06T13:00:00	4	Temperatura máxima	18.8
151203	7	Sololá	701	Sololá	2	El tablón	4	Abril	2023-04-29T00:00:00	2024-11-06T13:00:00	3	Temperatura mínima	17.8
151204	7	Sololá	701	Sololá	2	El tablón	4	Abril	2023-04-29T00:00:00	2024-11-06T13:00:00	5	Humedad	82
151205	7	Sololá	701	Sololá	2	El tablón	4	Abril	2023-04-29T00:00:00	2024-11-06T13:00:00	6	Velocidad del viento	6.4
151206	7	Sololá	701	Sololá	2	El tablón	4	Abril	2023-04-29T00:00:00	2024-11-06T13:00:00	7	Dirección del viento	6.44
151207	7	Sololá	701	Sololá	2	El tablón	4	Abril	2023-04-29T00:00:00	2024-11-06T13:00:00	1	Precipitación	0
151208	7	Sololá	701	Sololá	2	El tablón	4	Abril	2023-04-29T00:00:00	2024-11-06T13:00:00	8	Radiación solar	936
151209	7	Sololá	701	Sololá	2	El tablón	4	Abril	2023-04-29T00:00:00	2024-11-06T14:00:00	2	Temperatura media	17.6
151210	7	Sololá	701	Sololá	2	El tablón	4	Abril	2023-04-29T00:00:00	2024-11-06T14:00:00	4	Temperatura máxima	18.7
151211	7	Sololá	701	Sololá	2	El tablón	4	Abril	2023-04-29T00:00:00	2024-11-06T14:00:00	3	Temperatura mínima	17.6
151212	7	Sololá	701	Sololá	2	El tablón	4	Abril	2023-04-29T00:00:00	2024-11-06T14:00:00	5	Humedad	86
151213	7	Sololá	701	Sololá	2	El tablón	4	Abril	2023-04-29T00:00:00	2024-11-06T14:00:00	6	Velocidad del viento	8
151214	7	Sololá	701	Sololá	2	El tablón	4	Abril	2023-04-29T00:00:00	2024-11-06T14:00:00	7	Dirección del viento	8.05
151215	7	Sololá	701	Sololá	2	El tablón	4	Abril	2023-04-29T00:00:00	2024-11-06T14:00:00	1	Precipitación	0
151216	7	Sololá	701	Sololá	2	El tablón	4	Abril	2023-04-29T00:00:00	2024-11-06T14:00:00	8	Radiación solar	618
151217	7	Sololá	701	Sololá	2	El tablón	4	Abril	2023-04-29T00:00:00	2024-11-06T15:00:00	2	Temperatura media	15.3
151218	7	Sololá	701	Sololá	2	El tablón	4	Abril	2023-04-29T00:00:00	2024-11-06T15:00:00	4	Temperatura máxima	17.6
151219	7	Sololá	701	Sololá	2	El tablón	4	Abril	2023-04-29T00:00:00	2024-11-06T15:00:00	3	Temperatura mínima	15.3
151220	7	Sololá	701	Sololá	2	El tablón	4	Abril	2023-04-29T00:00:00	2024-11-06T15:00:00	5	Humedad	88
151221	7	Sololá	701	Sololá	2	El tablón	4	Abril	2023-04-29T00:00:00	2024-11-06T15:00:00	6	Velocidad del viento	8
151222	7	Sololá	701	Sololá	2	El tablón	4	Abril	2023-04-29T00:00:00	2024-11-06T15:00:00	7	Dirección del viento	8.05
151223	7	Sololá	701	Sololá	2	El tablón	4	Abril	2023-04-29T00:00:00	2024-11-06T15:00:00	1	Precipitación	0
151224	7	Sololá	701	Sololá	2	El tablón	4	Abril	2023-04-29T00:00:00	2024-11-06T15:00:00	8	Radiación solar	135
151225	7	Sololá	701	Sololá	2	El tablón	4	Abril	2023-04-29T00:00:00	2024-11-06T16:00:00	2	Temperatura media	14.6
151226	7	Sololá	701	Sololá	2	El tablón	4	Abril	2023-04-29T00:00:00	2024-11-06T16:00:00	4	Temperatura máxima	15.3
151227	7	Sololá	701	Sololá	2	El tablón	4	Abril	2023-04-29T00:00:00	2024-11-06T16:00:00	3	Temperatura mínima	14.6
151228	7	Sololá	701	Sololá	2	El tablón	4	Abril	2023-04-29T00:00:00	2024-11-06T16:00:00	5	Humedad	88
151229	7	Sololá	701	Sololá	2	El tablón	4	Abril	2023-04-29T00:00:00	2024-11-06T16:00:00	6	Velocidad del viento	4.8
151230	7	Sololá	701	Sololá	2	El tablón	4	Abril	2023-04-29T00:00:00	2024-11-06T16:00:00	7	Dirección del viento	4.83
151231	7	Sololá	701	Sololá	2	El tablón	4	Abril	2023-04-29T00:00:00	2024-11-06T16:00:00	1	Precipitación	0
151232	7	Sololá	701	Sololá	2	El tablón	4	Abril	2023-04-29T00:00:00	2024-11-06T16:00:00	8	Radiación solar	73
151233	7	Sololá	701	Sololá	2	El tablón	4	Abril	2023-04-29T00:00:00	2024-11-06T17:00:00	2	Temperatura media	15.1
151234	7	Sololá	701	Sololá	2	El tablón	4	Abril	2023-04-29T00:00:00	2024-11-06T17:00:00	4	Temperatura máxima	15.1
151235	7	Sololá	701	Sololá	2	El tablón	4	Abril	2023-04-29T00:00:00	2024-11-06T17:00:00	3	Temperatura mínima	14
151236	7	Sololá	701	Sololá	2	El tablón	4	Abril	2023-04-29T00:00:00	2024-11-06T17:00:00	5	Humedad	80
151237	7	Sololá	701	Sololá	2	El tablón	4	Abril	2023-04-29T00:00:00	2024-11-06T17:00:00	6	Velocidad del viento	3.2
151238	7	Sololá	701	Sololá	2	El tablón	4	Abril	2023-04-29T00:00:00	2024-11-06T17:00:00	7	Dirección del viento	3.22
151239	7	Sololá	701	Sololá	2	El tablón	4	Abril	2023-04-29T00:00:00	2024-11-06T17:00:00	1	Precipitación	0.6
151240	7	Sololá	701	Sololá	2	El tablón	4	Abril	2023-04-29T00:00:00	2024-11-06T17:00:00	8	Radiación solar	58
151241	7	Sololá	701	Sololá	2	El tablón	4	Abril	2023-04-29T00:00:00	2024-11-06T18:00:00	2	Temperatura media	14.4
151242	7	Sololá	701	Sololá	2	El tablón	4	Abril	2023-04-29T00:00:00	2024-11-06T18:00:00	4	Temperatura máxima	15.6
151243	7	Sololá	701	Sololá	2	El tablón	4	Abril	2023-04-29T00:00:00	2024-11-06T18:00:00	3	Temperatura mínima	14.4
151244	7	Sololá	701	Sololá	2	El tablón	4	Abril	2023-04-29T00:00:00	2024-11-06T18:00:00	5	Humedad	89
151245	7	Sololá	701	Sololá	2	El tablón	4	Abril	2023-04-29T00:00:00	2024-11-06T18:00:00	6	Velocidad del viento	3.2
151246	7	Sololá	701	Sololá	2	El tablón	4	Abril	2023-04-29T00:00:00	2024-11-06T18:00:00	7	Dirección del viento	3.22
151247	7	Sololá	701	Sololá	2	El tablón	4	Abril	2023-04-29T00:00:00	2024-11-06T18:00:00	1	Precipitación	0
151248	7	Sololá	701	Sololá	2	El tablón	4	Abril	2023-04-29T00:00:00	2024-11-06T18:00:00	8	Radiación solar	37
151249	7	Sololá	701	Sololá	2	El tablón	4	Abril	2023-04-29T00:00:00	2024-11-06T19:00:00	2	Temperatura media	13.9
151250	7	Sololá	701	Sololá	2	El tablón	4	Abril	2023-04-29T00:00:00	2024-11-06T19:00:00	4	Temperatura máxima	14.4
151251	7	Sololá	701	Sololá	2	El tablón	4	Abril	2023-04-29T00:00:00	2024-11-06T19:00:00	3	Temperatura mínima	13.8
151252	7	Sololá	701	Sololá	2	El tablón	4	Abril	2023-04-29T00:00:00	2024-11-06T19:00:00	5	Humedad	88
151253	7	Sololá	701	Sololá	2	El tablón	4	Abril	2023-04-29T00:00:00	2024-11-06T19:00:00	6	Velocidad del viento	1.6
151254	7	Sololá	701	Sololá	2	El tablón	4	Abril	2023-04-29T00:00:00	2024-11-06T19:00:00	7	Dirección del viento	1.61
151255	7	Sololá	701	Sololá	2	El tablón	4	Abril	2023-04-29T00:00:00	2024-11-06T19:00:00	1	Precipitación	0
151256	7	Sololá	701	Sololá	2	El tablón	4	Abril	2023-04-29T00:00:00	2024-11-06T19:00:00	8	Radiación solar	0
151257	7	Sololá	701	Sololá	2	El tablón	4	Abril	2023-04-29T00:00:00	2024-11-06T20:00:00	2	Temperatura media	13.8
151258	7	Sololá	701	Sololá	2	El tablón	4	Abril	2023-04-29T00:00:00	2024-11-06T20:00:00	4	Temperatura máxima	14
151259	7	Sololá	701	Sololá	2	El tablón	4	Abril	2023-04-29T00:00:00	2024-11-06T20:00:00	3	Temperatura mínima	13.8
151260	7	Sololá	701	Sololá	2	El tablón	4	Abril	2023-04-29T00:00:00	2024-11-06T20:00:00	5	Humedad	89
151261	7	Sololá	701	Sololá	2	El tablón	4	Abril	2023-04-29T00:00:00	2024-11-06T20:00:00	6	Velocidad del viento	1.6
151262	7	Sololá	701	Sololá	2	El tablón	4	Abril	2023-04-29T00:00:00	2024-11-06T20:00:00	7	Dirección del viento	1.61
151263	7	Sololá	701	Sololá	2	El tablón	4	Abril	2023-04-29T00:00:00	2024-11-06T20:00:00	1	Precipitación	0
151264	7	Sololá	701	Sololá	2	El tablón	4	Abril	2023-04-29T00:00:00	2024-11-06T20:00:00	8	Radiación solar	0
151265	7	Sololá	701	Sololá	2	El tablón	4	Abril	2023-04-29T00:00:00	2024-11-06T21:00:00	2	Temperatura media	12.6
151266	7	Sololá	701	Sololá	2	El tablón	4	Abril	2023-04-29T00:00:00	2024-11-06T21:00:00	4	Temperatura máxima	13.8
151267	7	Sololá	701	Sololá	2	El tablón	4	Abril	2023-04-29T00:00:00	2024-11-06T21:00:00	3	Temperatura mínima	12.6
151268	7	Sololá	701	Sololá	2	El tablón	4	Abril	2023-04-29T00:00:00	2024-11-06T21:00:00	5	Humedad	89
151269	7	Sololá	701	Sololá	2	El tablón	4	Abril	2023-04-29T00:00:00	2024-11-06T21:00:00	6	Velocidad del viento	3.2
151270	7	Sololá	701	Sololá	2	El tablón	4	Abril	2023-04-29T00:00:00	2024-11-06T21:00:00	7	Dirección del viento	3.22
151271	7	Sololá	701	Sololá	2	El tablón	4	Abril	2023-04-29T00:00:00	2024-11-06T21:00:00	1	Precipitación	0
151272	7	Sololá	701	Sololá	2	El tablón	4	Abril	2023-04-29T00:00:00	2024-11-06T21:00:00	8	Radiación solar	0
151273	7	Sololá	701	Sololá	2	El tablón	4	Abril	2023-04-29T00:00:00	2024-11-06T22:00:00	2	Temperatura media	13.6
151274	7	Sololá	701	Sololá	2	El tablón	4	Abril	2023-04-29T00:00:00	2024-11-06T22:00:00	4	Temperatura máxima	13.6
151275	7	Sololá	701	Sololá	2	El tablón	4	Abril	2023-04-29T00:00:00	2024-11-06T22:00:00	3	Temperatura mínima	12.6
151276	7	Sololá	701	Sololá	2	El tablón	4	Abril	2023-04-29T00:00:00	2024-11-06T22:00:00	5	Humedad	85
151277	7	Sololá	701	Sololá	2	El tablón	4	Abril	2023-04-29T00:00:00	2024-11-06T22:00:00	6	Velocidad del viento	1.6
151278	7	Sololá	701	Sololá	2	El tablón	4	Abril	2023-04-29T00:00:00	2024-11-06T22:00:00	7	Dirección del viento	1.61
151279	7	Sololá	701	Sololá	2	El tablón	4	Abril	2023-04-29T00:00:00	2024-11-06T22:00:00	1	Precipitación	0
151280	7	Sololá	701	Sololá	2	El tablón	4	Abril	2023-04-29T00:00:00	2024-11-06T22:00:00	8	Radiación solar	0
151281	7	Sololá	701	Sololá	2	El tablón	4	Abril	2023-04-29T00:00:00	2024-11-06T23:00:00	2	Temperatura media	14
151282	7	Sololá	701	Sololá	2	El tablón	4	Abril	2023-04-29T00:00:00	2024-11-06T23:00:00	4	Temperatura máxima	14.8
151283	7	Sololá	701	Sololá	2	El tablón	4	Abril	2023-04-29T00:00:00	2024-11-06T23:00:00	3	Temperatura mínima	13.7
151284	7	Sololá	701	Sololá	2	El tablón	4	Abril	2023-04-29T00:00:00	2024-11-06T23:00:00	5	Humedad	86
151285	7	Sololá	701	Sololá	2	El tablón	4	Abril	2023-04-29T00:00:00	2024-11-06T23:00:00	6	Velocidad del viento	4.8
151286	7	Sololá	701	Sololá	2	El tablón	4	Abril	2023-04-29T00:00:00	2024-11-06T23:00:00	7	Dirección del viento	4.83
151287	7	Sololá	701	Sololá	2	El tablón	4	Abril	2023-04-29T00:00:00	2024-11-06T23:00:00	1	Precipitación	0
151288	7	Sololá	701	Sololá	2	El tablón	4	Abril	2023-04-29T00:00:00	2024-11-06T23:00:00	8	Radiación solar	0
151289	7	Sololá	701	Sololá	2	El tablón	4	Abril	2023-04-30T00:00:00	2024-11-06T00:00:00	2	Temperatura media	13.4
151290	7	Sololá	701	Sololá	2	El tablón	4	Abril	2023-04-30T00:00:00	2024-11-06T00:00:00	4	Temperatura máxima	14
151291	7	Sololá	701	Sololá	2	El tablón	4	Abril	2023-04-30T00:00:00	2024-11-06T00:00:00	3	Temperatura mínima	13.4
151292	7	Sololá	701	Sololá	2	El tablón	4	Abril	2023-04-30T00:00:00	2024-11-06T00:00:00	5	Humedad	88
151293	7	Sololá	701	Sololá	2	El tablón	4	Abril	2023-04-30T00:00:00	2024-11-06T00:00:00	6	Velocidad del viento	6.4
151294	7	Sololá	701	Sololá	2	El tablón	4	Abril	2023-04-30T00:00:00	2024-11-06T00:00:00	7	Dirección del viento	6.44
151295	7	Sololá	701	Sololá	2	El tablón	4	Abril	2023-04-30T00:00:00	2024-11-06T00:00:00	1	Precipitación	0
151296	7	Sololá	701	Sololá	2	El tablón	4	Abril	2023-04-30T00:00:00	2024-11-06T00:00:00	8	Radiación solar	0
151297	7	Sololá	701	Sololá	2	El tablón	4	Abril	2023-04-30T00:00:00	2024-11-06T01:00:00	2	Temperatura media	12.9
151298	7	Sololá	701	Sololá	2	El tablón	4	Abril	2023-04-30T00:00:00	2024-11-06T01:00:00	4	Temperatura máxima	13.4
151299	7	Sololá	701	Sololá	2	El tablón	4	Abril	2023-04-30T00:00:00	2024-11-06T01:00:00	3	Temperatura mínima	12.9
151300	7	Sololá	701	Sololá	2	El tablón	4	Abril	2023-04-30T00:00:00	2024-11-06T01:00:00	5	Humedad	88
151301	7	Sololá	701	Sololá	2	El tablón	4	Abril	2023-04-30T00:00:00	2024-11-06T01:00:00	6	Velocidad del viento	4.8
151302	7	Sololá	701	Sololá	2	El tablón	4	Abril	2023-04-30T00:00:00	2024-11-06T01:00:00	7	Dirección del viento	4.83
151303	7	Sololá	701	Sololá	2	El tablón	4	Abril	2023-04-30T00:00:00	2024-11-06T01:00:00	1	Precipitación	0
151304	7	Sololá	701	Sololá	2	El tablón	4	Abril	2023-04-30T00:00:00	2024-11-06T01:00:00	8	Radiación solar	0
151305	7	Sololá	701	Sololá	2	El tablón	4	Abril	2023-04-30T00:00:00	2024-11-06T02:00:00	2	Temperatura media	12.8
151306	7	Sololá	701	Sololá	2	El tablón	4	Abril	2023-04-30T00:00:00	2024-11-06T02:00:00	4	Temperatura máxima	13
151307	7	Sololá	701	Sololá	2	El tablón	4	Abril	2023-04-30T00:00:00	2024-11-06T02:00:00	3	Temperatura mínima	12.8
151308	7	Sololá	701	Sololá	2	El tablón	4	Abril	2023-04-30T00:00:00	2024-11-06T02:00:00	5	Humedad	88
151309	7	Sololá	701	Sololá	2	El tablón	4	Abril	2023-04-30T00:00:00	2024-11-06T02:00:00	6	Velocidad del viento	8
151310	7	Sololá	701	Sololá	2	El tablón	4	Abril	2023-04-30T00:00:00	2024-11-06T02:00:00	7	Dirección del viento	8.05
151311	7	Sololá	701	Sololá	2	El tablón	4	Abril	2023-04-30T00:00:00	2024-11-06T02:00:00	1	Precipitación	0
151312	7	Sololá	701	Sololá	2	El tablón	4	Abril	2023-04-30T00:00:00	2024-11-06T02:00:00	8	Radiación solar	0
151313	7	Sololá	701	Sololá	2	El tablón	4	Abril	2023-04-30T00:00:00	2024-11-06T03:00:00	2	Temperatura media	12.5
151314	7	Sololá	701	Sololá	2	El tablón	4	Abril	2023-04-30T00:00:00	2024-11-06T03:00:00	4	Temperatura máxima	12.8
151315	7	Sololá	701	Sololá	2	El tablón	4	Abril	2023-04-30T00:00:00	2024-11-06T03:00:00	3	Temperatura mínima	12.5
151316	7	Sololá	701	Sololá	2	El tablón	4	Abril	2023-04-30T00:00:00	2024-11-06T03:00:00	5	Humedad	88
151317	7	Sololá	701	Sololá	2	El tablón	4	Abril	2023-04-30T00:00:00	2024-11-06T03:00:00	6	Velocidad del viento	9.7
151318	7	Sololá	701	Sololá	2	El tablón	4	Abril	2023-04-30T00:00:00	2024-11-06T03:00:00	7	Dirección del viento	9.66
151319	7	Sololá	701	Sololá	2	El tablón	4	Abril	2023-04-30T00:00:00	2024-11-06T03:00:00	1	Precipitación	0
151320	7	Sololá	701	Sololá	2	El tablón	4	Abril	2023-04-30T00:00:00	2024-11-06T03:00:00	8	Radiación solar	0
151321	7	Sololá	701	Sololá	2	El tablón	4	Abril	2023-04-30T00:00:00	2024-11-06T04:00:00	2	Temperatura media	12.7
151322	7	Sololá	701	Sololá	2	El tablón	4	Abril	2023-04-30T00:00:00	2024-11-06T04:00:00	4	Temperatura máxima	12.8
151323	7	Sololá	701	Sololá	2	El tablón	4	Abril	2023-04-30T00:00:00	2024-11-06T04:00:00	3	Temperatura mínima	12.5
151324	7	Sololá	701	Sololá	2	El tablón	4	Abril	2023-04-30T00:00:00	2024-11-06T04:00:00	5	Humedad	88
151325	7	Sololá	701	Sololá	2	El tablón	4	Abril	2023-04-30T00:00:00	2024-11-06T04:00:00	6	Velocidad del viento	9.7
151326	7	Sololá	701	Sololá	2	El tablón	4	Abril	2023-04-30T00:00:00	2024-11-06T04:00:00	7	Dirección del viento	9.66
151327	7	Sololá	701	Sololá	2	El tablón	4	Abril	2023-04-30T00:00:00	2024-11-06T04:00:00	1	Precipitación	0
151328	7	Sololá	701	Sololá	2	El tablón	4	Abril	2023-04-30T00:00:00	2024-11-06T04:00:00	8	Radiación solar	0
151329	7	Sololá	701	Sololá	2	El tablón	4	Abril	2023-04-30T00:00:00	2024-11-06T05:00:00	2	Temperatura media	12.2
151330	7	Sololá	701	Sololá	2	El tablón	4	Abril	2023-04-30T00:00:00	2024-11-06T05:00:00	4	Temperatura máxima	12.7
151331	7	Sololá	701	Sololá	2	El tablón	4	Abril	2023-04-30T00:00:00	2024-11-06T05:00:00	3	Temperatura mínima	12.1
151332	7	Sololá	701	Sololá	2	El tablón	4	Abril	2023-04-30T00:00:00	2024-11-06T05:00:00	5	Humedad	89
151333	7	Sololá	701	Sololá	2	El tablón	4	Abril	2023-04-30T00:00:00	2024-11-06T05:00:00	6	Velocidad del viento	16.1
151334	7	Sololá	701	Sololá	2	El tablón	4	Abril	2023-04-30T00:00:00	2024-11-06T05:00:00	7	Dirección del viento	16.09
151335	7	Sololá	701	Sololá	2	El tablón	4	Abril	2023-04-30T00:00:00	2024-11-06T05:00:00	1	Precipitación	0
151336	7	Sololá	701	Sololá	2	El tablón	4	Abril	2023-04-30T00:00:00	2024-11-06T05:00:00	8	Radiación solar	0
151337	7	Sololá	701	Sololá	2	El tablón	4	Abril	2023-04-30T00:00:00	2024-11-06T06:00:00	2	Temperatura media	12.6
151338	7	Sololá	701	Sololá	2	El tablón	4	Abril	2023-04-30T00:00:00	2024-11-06T06:00:00	4	Temperatura máxima	12.6
151339	7	Sololá	701	Sololá	2	El tablón	4	Abril	2023-04-30T00:00:00	2024-11-06T06:00:00	3	Temperatura mínima	12.1
151340	7	Sololá	701	Sololá	2	El tablón	4	Abril	2023-04-30T00:00:00	2024-11-06T06:00:00	5	Humedad	89
151341	7	Sololá	701	Sololá	2	El tablón	4	Abril	2023-04-30T00:00:00	2024-11-06T06:00:00	6	Velocidad del viento	14.5
151342	7	Sololá	701	Sololá	2	El tablón	4	Abril	2023-04-30T00:00:00	2024-11-06T06:00:00	7	Dirección del viento	14.48
151343	7	Sololá	701	Sololá	2	El tablón	4	Abril	2023-04-30T00:00:00	2024-11-06T06:00:00	1	Precipitación	0
151344	7	Sololá	701	Sololá	2	El tablón	4	Abril	2023-04-30T00:00:00	2024-11-06T06:00:00	8	Radiación solar	2
151345	7	Sololá	701	Sololá	2	El tablón	4	Abril	2023-04-30T00:00:00	2024-11-06T07:00:00	2	Temperatura media	13.7
151346	7	Sololá	701	Sololá	2	El tablón	4	Abril	2023-04-30T00:00:00	2024-11-06T07:00:00	4	Temperatura máxima	13.7
151347	7	Sololá	701	Sololá	2	El tablón	4	Abril	2023-04-30T00:00:00	2024-11-06T07:00:00	3	Temperatura mínima	12.6
151348	7	Sololá	701	Sololá	2	El tablón	4	Abril	2023-04-30T00:00:00	2024-11-06T07:00:00	5	Humedad	86
151349	7	Sololá	701	Sololá	2	El tablón	4	Abril	2023-04-30T00:00:00	2024-11-06T07:00:00	6	Velocidad del viento	16.1
151350	7	Sololá	701	Sololá	2	El tablón	4	Abril	2023-04-30T00:00:00	2024-11-06T07:00:00	7	Dirección del viento	16.09
151351	7	Sololá	701	Sololá	2	El tablón	4	Abril	2023-04-30T00:00:00	2024-11-06T07:00:00	1	Precipitación	0
151352	7	Sololá	701	Sololá	2	El tablón	4	Abril	2023-04-30T00:00:00	2024-11-06T07:00:00	8	Radiación solar	101
151353	7	Sololá	701	Sololá	2	El tablón	4	Abril	2023-04-30T00:00:00	2024-11-06T08:00:00	2	Temperatura media	16
151354	7	Sololá	701	Sololá	2	El tablón	4	Abril	2023-04-30T00:00:00	2024-11-06T08:00:00	4	Temperatura máxima	16
151355	7	Sololá	701	Sololá	2	El tablón	4	Abril	2023-04-30T00:00:00	2024-11-06T08:00:00	3	Temperatura mínima	13.7
151356	7	Sololá	701	Sololá	2	El tablón	4	Abril	2023-04-30T00:00:00	2024-11-06T08:00:00	5	Humedad	76
151357	7	Sololá	701	Sololá	2	El tablón	4	Abril	2023-04-30T00:00:00	2024-11-06T08:00:00	6	Velocidad del viento	16.1
151358	7	Sololá	701	Sololá	2	El tablón	4	Abril	2023-04-30T00:00:00	2024-11-06T08:00:00	7	Dirección del viento	16.09
151359	7	Sololá	701	Sololá	2	El tablón	4	Abril	2023-04-30T00:00:00	2024-11-06T08:00:00	1	Precipitación	0
151360	7	Sololá	701	Sololá	2	El tablón	4	Abril	2023-04-30T00:00:00	2024-11-06T08:00:00	8	Radiación solar	307
151361	7	Sololá	701	Sololá	2	El tablón	4	Abril	2023-04-30T00:00:00	2024-11-06T09:00:00	2	Temperatura media	18.4
151362	7	Sololá	701	Sololá	2	El tablón	4	Abril	2023-04-30T00:00:00	2024-11-06T09:00:00	4	Temperatura máxima	18.4
151363	7	Sololá	701	Sololá	2	El tablón	4	Abril	2023-04-30T00:00:00	2024-11-06T09:00:00	3	Temperatura mínima	16
151364	7	Sololá	701	Sololá	2	El tablón	4	Abril	2023-04-30T00:00:00	2024-11-06T09:00:00	5	Humedad	70
151365	7	Sololá	701	Sololá	2	El tablón	4	Abril	2023-04-30T00:00:00	2024-11-06T09:00:00	6	Velocidad del viento	11.3
151366	7	Sololá	701	Sololá	2	El tablón	4	Abril	2023-04-30T00:00:00	2024-11-06T09:00:00	7	Dirección del viento	11.27
151367	7	Sololá	701	Sololá	2	El tablón	4	Abril	2023-04-30T00:00:00	2024-11-06T09:00:00	1	Precipitación	0
151368	7	Sololá	701	Sololá	2	El tablón	4	Abril	2023-04-30T00:00:00	2024-11-06T09:00:00	8	Radiación solar	555
151369	7	Sololá	701	Sololá	2	El tablón	4	Abril	2023-04-30T00:00:00	2024-11-06T10:00:00	2	Temperatura media	19.4
151370	7	Sololá	701	Sololá	2	El tablón	4	Abril	2023-04-30T00:00:00	2024-11-06T10:00:00	4	Temperatura máxima	19.9
151371	7	Sololá	701	Sololá	2	El tablón	4	Abril	2023-04-30T00:00:00	2024-11-06T10:00:00	3	Temperatura mínima	18.4
151372	7	Sololá	701	Sololá	2	El tablón	4	Abril	2023-04-30T00:00:00	2024-11-06T10:00:00	5	Humedad	68
151373	7	Sololá	701	Sololá	2	El tablón	4	Abril	2023-04-30T00:00:00	2024-11-06T10:00:00	6	Velocidad del viento	8
151374	7	Sololá	701	Sololá	2	El tablón	4	Abril	2023-04-30T00:00:00	2024-11-06T10:00:00	7	Dirección del viento	8.05
151375	7	Sololá	701	Sololá	2	El tablón	4	Abril	2023-04-30T00:00:00	2024-11-06T10:00:00	1	Precipitación	0
151376	7	Sololá	701	Sololá	2	El tablón	4	Abril	2023-04-30T00:00:00	2024-11-06T10:00:00	8	Radiación solar	732
151377	7	Sololá	701	Sololá	2	El tablón	4	Abril	2023-04-30T00:00:00	2024-11-06T11:00:00	2	Temperatura media	20.2
151378	7	Sololá	701	Sololá	2	El tablón	4	Abril	2023-04-30T00:00:00	2024-11-06T11:00:00	4	Temperatura máxima	20.7
151379	7	Sololá	701	Sololá	2	El tablón	4	Abril	2023-04-30T00:00:00	2024-11-06T11:00:00	3	Temperatura mínima	19.4
151380	7	Sololá	701	Sololá	2	El tablón	4	Abril	2023-04-30T00:00:00	2024-11-06T11:00:00	5	Humedad	67
151381	7	Sololá	701	Sololá	2	El tablón	4	Abril	2023-04-30T00:00:00	2024-11-06T11:00:00	6	Velocidad del viento	8
151382	7	Sololá	701	Sololá	2	El tablón	4	Abril	2023-04-30T00:00:00	2024-11-06T11:00:00	7	Dirección del viento	8.05
151383	7	Sololá	701	Sololá	2	El tablón	4	Abril	2023-04-30T00:00:00	2024-11-06T11:00:00	1	Precipitación	0
151384	7	Sololá	701	Sololá	2	El tablón	4	Abril	2023-04-30T00:00:00	2024-11-06T11:00:00	8	Radiación solar	825
151385	7	Sololá	701	Sololá	2	El tablón	4	Abril	2023-04-30T00:00:00	2024-11-06T12:00:00	2	Temperatura media	21.7
151386	7	Sololá	701	Sololá	2	El tablón	4	Abril	2023-04-30T00:00:00	2024-11-06T12:00:00	4	Temperatura máxima	21.7
151387	7	Sololá	701	Sololá	2	El tablón	4	Abril	2023-04-30T00:00:00	2024-11-06T12:00:00	3	Temperatura mínima	20.1
151388	7	Sololá	701	Sololá	2	El tablón	4	Abril	2023-04-30T00:00:00	2024-11-06T12:00:00	5	Humedad	60
151389	7	Sololá	701	Sololá	2	El tablón	4	Abril	2023-04-30T00:00:00	2024-11-06T12:00:00	6	Velocidad del viento	8
151390	7	Sololá	701	Sololá	2	El tablón	4	Abril	2023-04-30T00:00:00	2024-11-06T12:00:00	7	Dirección del viento	8.05
151391	7	Sololá	701	Sololá	2	El tablón	4	Abril	2023-04-30T00:00:00	2024-11-06T12:00:00	1	Precipitación	0
151392	7	Sololá	701	Sololá	2	El tablón	4	Abril	2023-04-30T00:00:00	2024-11-06T12:00:00	8	Radiación solar	924
151393	7	Sololá	701	Sololá	2	El tablón	4	Abril	2023-04-30T00:00:00	2024-11-06T13:00:00	2	Temperatura media	22.3
151394	7	Sololá	701	Sololá	2	El tablón	4	Abril	2023-04-30T00:00:00	2024-11-06T13:00:00	4	Temperatura máxima	22.4
151395	7	Sololá	701	Sololá	2	El tablón	4	Abril	2023-04-30T00:00:00	2024-11-06T13:00:00	3	Temperatura mínima	21.5
151396	7	Sololá	701	Sololá	2	El tablón	4	Abril	2023-04-30T00:00:00	2024-11-06T13:00:00	5	Humedad	73
151397	7	Sololá	701	Sololá	2	El tablón	4	Abril	2023-04-30T00:00:00	2024-11-06T13:00:00	6	Velocidad del viento	8
151398	7	Sololá	701	Sololá	2	El tablón	4	Abril	2023-04-30T00:00:00	2024-11-06T13:00:00	7	Dirección del viento	8.05
151399	7	Sololá	701	Sololá	2	El tablón	4	Abril	2023-04-30T00:00:00	2024-11-06T13:00:00	1	Precipitación	0
151400	7	Sololá	701	Sololá	2	El tablón	4	Abril	2023-04-30T00:00:00	2024-11-06T13:00:00	8	Radiación solar	972
151401	7	Sololá	701	Sololá	2	El tablón	4	Abril	2023-04-30T00:00:00	2024-11-06T14:00:00	2	Temperatura media	17.9
151402	7	Sololá	701	Sololá	2	El tablón	4	Abril	2023-04-30T00:00:00	2024-11-06T14:00:00	4	Temperatura máxima	22.3
151403	7	Sololá	701	Sololá	2	El tablón	4	Abril	2023-04-30T00:00:00	2024-11-06T14:00:00	3	Temperatura mínima	17.9
151404	7	Sololá	701	Sololá	2	El tablón	4	Abril	2023-04-30T00:00:00	2024-11-06T14:00:00	5	Humedad	87
151405	7	Sololá	701	Sololá	2	El tablón	4	Abril	2023-04-30T00:00:00	2024-11-06T14:00:00	6	Velocidad del viento	8
151406	7	Sololá	701	Sololá	2	El tablón	4	Abril	2023-04-30T00:00:00	2024-11-06T14:00:00	7	Dirección del viento	8.05
151407	7	Sololá	701	Sololá	2	El tablón	4	Abril	2023-04-30T00:00:00	2024-11-06T14:00:00	1	Precipitación	0
151408	7	Sololá	701	Sololá	2	El tablón	4	Abril	2023-04-30T00:00:00	2024-11-06T14:00:00	8	Radiación solar	321
151409	7	Sololá	701	Sololá	2	El tablón	4	Abril	2023-04-30T00:00:00	2024-11-06T15:00:00	2	Temperatura media	17.7
151410	7	Sololá	701	Sololá	2	El tablón	4	Abril	2023-04-30T00:00:00	2024-11-06T15:00:00	4	Temperatura máxima	17.9
151411	7	Sololá	701	Sololá	2	El tablón	4	Abril	2023-04-30T00:00:00	2024-11-06T15:00:00	3	Temperatura mínima	17.3
151412	7	Sololá	701	Sololá	2	El tablón	4	Abril	2023-04-30T00:00:00	2024-11-06T15:00:00	5	Humedad	87
151413	7	Sololá	701	Sololá	2	El tablón	4	Abril	2023-04-30T00:00:00	2024-11-06T15:00:00	6	Velocidad del viento	9.7
151414	7	Sololá	701	Sololá	2	El tablón	4	Abril	2023-04-30T00:00:00	2024-11-06T15:00:00	7	Dirección del viento	9.66
151415	7	Sololá	701	Sololá	2	El tablón	4	Abril	2023-04-30T00:00:00	2024-11-06T15:00:00	1	Precipitación	0
151416	7	Sololá	701	Sololá	2	El tablón	4	Abril	2023-04-30T00:00:00	2024-11-06T15:00:00	8	Radiación solar	371
151417	7	Sololá	701	Sololá	2	El tablón	4	Abril	2023-04-30T00:00:00	2024-11-06T16:00:00	2	Temperatura media	17.8
151418	7	Sololá	701	Sololá	2	El tablón	4	Abril	2023-04-30T00:00:00	2024-11-06T16:00:00	4	Temperatura máxima	18.1
151419	7	Sololá	701	Sololá	2	El tablón	4	Abril	2023-04-30T00:00:00	2024-11-06T16:00:00	3	Temperatura mínima	17.4
151420	7	Sololá	701	Sololá	2	El tablón	4	Abril	2023-04-30T00:00:00	2024-11-06T16:00:00	5	Humedad	87
151421	7	Sololá	701	Sololá	2	El tablón	4	Abril	2023-04-30T00:00:00	2024-11-06T16:00:00	6	Velocidad del viento	6.4
151422	7	Sololá	701	Sololá	2	El tablón	4	Abril	2023-04-30T00:00:00	2024-11-06T16:00:00	7	Dirección del viento	6.44
151423	7	Sololá	701	Sololá	2	El tablón	4	Abril	2023-04-30T00:00:00	2024-11-06T16:00:00	1	Precipitación	0
151424	7	Sololá	701	Sololá	2	El tablón	4	Abril	2023-04-30T00:00:00	2024-11-06T16:00:00	8	Radiación solar	363
151425	7	Sololá	701	Sololá	2	El tablón	4	Abril	2023-04-30T00:00:00	2024-11-06T17:00:00	2	Temperatura media	16.1
151426	7	Sololá	701	Sololá	2	El tablón	4	Abril	2023-04-30T00:00:00	2024-11-06T17:00:00	4	Temperatura máxima	17.8
151427	7	Sololá	701	Sololá	2	El tablón	4	Abril	2023-04-30T00:00:00	2024-11-06T17:00:00	3	Temperatura mínima	16.1
151428	7	Sololá	701	Sololá	2	El tablón	4	Abril	2023-04-30T00:00:00	2024-11-06T17:00:00	5	Humedad	89
151429	7	Sololá	701	Sololá	2	El tablón	4	Abril	2023-04-30T00:00:00	2024-11-06T17:00:00	6	Velocidad del viento	4.8
151430	7	Sololá	701	Sololá	2	El tablón	4	Abril	2023-04-30T00:00:00	2024-11-06T17:00:00	7	Dirección del viento	4.83
151431	7	Sololá	701	Sololá	2	El tablón	4	Abril	2023-04-30T00:00:00	2024-11-06T17:00:00	1	Precipitación	0
151432	7	Sololá	701	Sololá	2	El tablón	4	Abril	2023-04-30T00:00:00	2024-11-06T17:00:00	8	Radiación solar	69
151433	7	Sololá	701	Sololá	2	El tablón	4	Abril	2023-04-30T00:00:00	2024-11-06T18:00:00	2	Temperatura media	16.3
151434	7	Sololá	701	Sololá	2	El tablón	4	Abril	2023-04-30T00:00:00	2024-11-06T18:00:00	4	Temperatura máxima	16.3
151435	7	Sololá	701	Sololá	2	El tablón	4	Abril	2023-04-30T00:00:00	2024-11-06T18:00:00	3	Temperatura mínima	15.8
151436	7	Sololá	701	Sololá	2	El tablón	4	Abril	2023-04-30T00:00:00	2024-11-06T18:00:00	5	Humedad	83
151437	7	Sololá	701	Sololá	2	El tablón	4	Abril	2023-04-30T00:00:00	2024-11-06T18:00:00	6	Velocidad del viento	4.8
151438	7	Sololá	701	Sololá	2	El tablón	4	Abril	2023-04-30T00:00:00	2024-11-06T18:00:00	7	Dirección del viento	4.83
151439	7	Sololá	701	Sololá	2	El tablón	4	Abril	2023-04-30T00:00:00	2024-11-06T18:00:00	1	Precipitación	0
151440	7	Sololá	701	Sololá	2	El tablón	4	Abril	2023-04-30T00:00:00	2024-11-06T18:00:00	8	Radiación solar	22
151441	7	Sololá	701	Sololá	2	El tablón	4	Abril	2023-04-30T00:00:00	2024-11-06T19:00:00	2	Temperatura media	15
151442	7	Sololá	701	Sololá	2	El tablón	4	Abril	2023-04-30T00:00:00	2024-11-06T19:00:00	4	Temperatura máxima	16.3
151443	7	Sololá	701	Sololá	2	El tablón	4	Abril	2023-04-30T00:00:00	2024-11-06T19:00:00	3	Temperatura mínima	14.9
151444	7	Sololá	701	Sololá	2	El tablón	4	Abril	2023-04-30T00:00:00	2024-11-06T19:00:00	5	Humedad	86
151445	7	Sololá	701	Sololá	2	El tablón	4	Abril	2023-04-30T00:00:00	2024-11-06T19:00:00	6	Velocidad del viento	8
151446	7	Sololá	701	Sololá	2	El tablón	4	Abril	2023-04-30T00:00:00	2024-11-06T19:00:00	7	Dirección del viento	8.05
151447	7	Sololá	701	Sololá	2	El tablón	4	Abril	2023-04-30T00:00:00	2024-11-06T19:00:00	1	Precipitación	0
151448	7	Sololá	701	Sololá	2	El tablón	4	Abril	2023-04-30T00:00:00	2024-11-06T19:00:00	8	Radiación solar	0
151449	7	Sololá	701	Sololá	2	El tablón	4	Abril	2023-04-30T00:00:00	2024-11-06T20:00:00	2	Temperatura media	14.9
151450	7	Sololá	701	Sololá	2	El tablón	4	Abril	2023-04-30T00:00:00	2024-11-06T20:00:00	4	Temperatura máxima	15.1
151451	7	Sololá	701	Sololá	2	El tablón	4	Abril	2023-04-30T00:00:00	2024-11-06T20:00:00	3	Temperatura mínima	14.9
151452	7	Sololá	701	Sololá	2	El tablón	4	Abril	2023-04-30T00:00:00	2024-11-06T20:00:00	5	Humedad	85
151453	7	Sololá	701	Sololá	2	El tablón	4	Abril	2023-04-30T00:00:00	2024-11-06T20:00:00	6	Velocidad del viento	6.4
151454	7	Sololá	701	Sololá	2	El tablón	4	Abril	2023-04-30T00:00:00	2024-11-06T20:00:00	7	Dirección del viento	6.44
151455	7	Sololá	701	Sololá	2	El tablón	4	Abril	2023-04-30T00:00:00	2024-11-06T20:00:00	1	Precipitación	0
151456	7	Sololá	701	Sololá	2	El tablón	4	Abril	2023-04-30T00:00:00	2024-11-06T20:00:00	8	Radiación solar	0
151457	7	Sololá	701	Sololá	2	El tablón	4	Abril	2023-04-30T00:00:00	2024-11-06T21:00:00	2	Temperatura media	14.1
151458	7	Sololá	701	Sololá	2	El tablón	4	Abril	2023-04-30T00:00:00	2024-11-06T21:00:00	4	Temperatura máxima	14.9
151459	7	Sololá	701	Sololá	2	El tablón	4	Abril	2023-04-30T00:00:00	2024-11-06T21:00:00	3	Temperatura mínima	14.1
151460	7	Sololá	701	Sololá	2	El tablón	4	Abril	2023-04-30T00:00:00	2024-11-06T21:00:00	5	Humedad	86
151461	7	Sololá	701	Sololá	2	El tablón	4	Abril	2023-04-30T00:00:00	2024-11-06T21:00:00	6	Velocidad del viento	8
151462	7	Sololá	701	Sololá	2	El tablón	4	Abril	2023-04-30T00:00:00	2024-11-06T21:00:00	7	Dirección del viento	8.05
151463	7	Sololá	701	Sololá	2	El tablón	4	Abril	2023-04-30T00:00:00	2024-11-06T21:00:00	1	Precipitación	0
151464	7	Sololá	701	Sololá	2	El tablón	4	Abril	2023-04-30T00:00:00	2024-11-06T21:00:00	8	Radiación solar	0
151465	7	Sololá	701	Sololá	2	El tablón	4	Abril	2023-04-30T00:00:00	2024-11-06T22:00:00	2	Temperatura media	13.7
151466	7	Sololá	701	Sololá	2	El tablón	4	Abril	2023-04-30T00:00:00	2024-11-06T22:00:00	4	Temperatura máxima	14.1
151467	7	Sololá	701	Sololá	2	El tablón	4	Abril	2023-04-30T00:00:00	2024-11-06T22:00:00	3	Temperatura mínima	13.7
151468	7	Sololá	701	Sololá	2	El tablón	4	Abril	2023-04-30T00:00:00	2024-11-06T22:00:00	5	Humedad	86
151469	7	Sololá	701	Sololá	2	El tablón	4	Abril	2023-04-30T00:00:00	2024-11-06T22:00:00	6	Velocidad del viento	8
151470	7	Sololá	701	Sololá	2	El tablón	4	Abril	2023-04-30T00:00:00	2024-11-06T22:00:00	7	Dirección del viento	8.05
151471	7	Sololá	701	Sololá	2	El tablón	4	Abril	2023-04-30T00:00:00	2024-11-06T22:00:00	1	Precipitación	0
151472	7	Sololá	701	Sololá	2	El tablón	4	Abril	2023-04-30T00:00:00	2024-11-06T22:00:00	8	Radiación solar	0
151473	7	Sololá	701	Sololá	2	El tablón	4	Abril	2023-04-30T00:00:00	2024-11-06T23:00:00	2	Temperatura media	13.2
151474	7	Sololá	701	Sololá	2	El tablón	4	Abril	2023-04-30T00:00:00	2024-11-06T23:00:00	4	Temperatura máxima	13.7
151475	7	Sololá	701	Sololá	2	El tablón	4	Abril	2023-04-30T00:00:00	2024-11-06T23:00:00	3	Temperatura mínima	13.2
151476	7	Sololá	701	Sololá	2	El tablón	4	Abril	2023-04-30T00:00:00	2024-11-06T23:00:00	5	Humedad	87
151477	7	Sololá	701	Sololá	2	El tablón	4	Abril	2023-04-30T00:00:00	2024-11-06T23:00:00	6	Velocidad del viento	4.8
151478	7	Sololá	701	Sololá	2	El tablón	4	Abril	2023-04-30T00:00:00	2024-11-06T23:00:00	7	Dirección del viento	4.83
151479	7	Sololá	701	Sololá	2	El tablón	4	Abril	2023-04-30T00:00:00	2024-11-06T23:00:00	1	Precipitación	0
151480	7	Sololá	701	Sololá	2	El tablón	4	Abril	2023-04-30T00:00:00	2024-11-06T23:00:00	8	Radiación solar	0
151481	7	Sololá	701	Sololá	2	El tablón	5	Mayo	2023-01-05T00:00:00	2024-11-06T00:00:00	2	Temperatura media	12.9
151482	7	Sololá	701	Sololá	2	El tablón	5	Mayo	2023-01-05T00:00:00	2024-11-06T00:00:00	4	Temperatura máxima	13.2
151483	7	Sololá	701	Sololá	2	El tablón	5	Mayo	2023-01-05T00:00:00	2024-11-06T00:00:00	3	Temperatura mínima	12.9
151484	7	Sololá	701	Sololá	2	El tablón	5	Mayo	2023-01-05T00:00:00	2024-11-06T00:00:00	5	Humedad	88
151485	7	Sololá	701	Sololá	2	El tablón	5	Mayo	2023-01-05T00:00:00	2024-11-06T00:00:00	6	Velocidad del viento	6.4
151486	7	Sololá	701	Sololá	2	El tablón	5	Mayo	2023-01-05T00:00:00	2024-11-06T00:00:00	7	Dirección del viento	6.44
151487	7	Sololá	701	Sololá	2	El tablón	5	Mayo	2023-01-05T00:00:00	2024-11-06T00:00:00	1	Precipitación	0
151488	7	Sololá	701	Sololá	2	El tablón	5	Mayo	2023-01-05T00:00:00	2024-11-06T00:00:00	8	Radiación solar	0
151489	7	Sololá	701	Sololá	2	El tablón	5	Mayo	2023-01-05T00:00:00	2024-11-06T01:00:00	2	Temperatura media	12.7
151490	7	Sololá	701	Sololá	2	El tablón	5	Mayo	2023-01-05T00:00:00	2024-11-06T01:00:00	4	Temperatura máxima	12.9
151491	7	Sololá	701	Sololá	2	El tablón	5	Mayo	2023-01-05T00:00:00	2024-11-06T01:00:00	3	Temperatura mínima	12.7
151492	7	Sololá	701	Sololá	2	El tablón	5	Mayo	2023-01-05T00:00:00	2024-11-06T01:00:00	5	Humedad	87
151493	7	Sololá	701	Sololá	2	El tablón	5	Mayo	2023-01-05T00:00:00	2024-11-06T01:00:00	6	Velocidad del viento	8
151494	7	Sololá	701	Sololá	2	El tablón	5	Mayo	2023-01-05T00:00:00	2024-11-06T01:00:00	7	Dirección del viento	8.05
151495	7	Sololá	701	Sololá	2	El tablón	5	Mayo	2023-01-05T00:00:00	2024-11-06T01:00:00	1	Precipitación	0
151496	7	Sololá	701	Sololá	2	El tablón	5	Mayo	2023-01-05T00:00:00	2024-11-06T01:00:00	8	Radiación solar	0
151497	7	Sololá	701	Sololá	2	El tablón	5	Mayo	2023-01-05T00:00:00	2024-11-06T02:00:00	2	Temperatura media	12.3
151498	7	Sololá	701	Sololá	2	El tablón	5	Mayo	2023-01-05T00:00:00	2024-11-06T02:00:00	4	Temperatura máxima	12.7
151499	7	Sololá	701	Sololá	2	El tablón	5	Mayo	2023-01-05T00:00:00	2024-11-06T02:00:00	3	Temperatura mínima	12.3
151500	7	Sololá	701	Sololá	2	El tablón	5	Mayo	2023-01-05T00:00:00	2024-11-06T02:00:00	5	Humedad	87
151501	7	Sololá	701	Sololá	2	El tablón	5	Mayo	2023-01-05T00:00:00	2024-11-06T02:00:00	6	Velocidad del viento	3.2
151502	7	Sololá	701	Sololá	2	El tablón	5	Mayo	2023-01-05T00:00:00	2024-11-06T02:00:00	7	Dirección del viento	3.22
151503	7	Sololá	701	Sololá	2	El tablón	5	Mayo	2023-01-05T00:00:00	2024-11-06T02:00:00	1	Precipitación	0
151504	7	Sololá	701	Sololá	2	El tablón	5	Mayo	2023-01-05T00:00:00	2024-11-06T02:00:00	8	Radiación solar	0
151505	7	Sololá	701	Sololá	2	El tablón	5	Mayo	2023-01-05T00:00:00	2024-11-06T03:00:00	2	Temperatura media	11.3
151506	7	Sololá	701	Sololá	2	El tablón	5	Mayo	2023-01-05T00:00:00	2024-11-06T03:00:00	4	Temperatura máxima	12.3
151507	7	Sololá	701	Sololá	2	El tablón	5	Mayo	2023-01-05T00:00:00	2024-11-06T03:00:00	3	Temperatura mínima	11.3
151508	7	Sololá	701	Sololá	2	El tablón	5	Mayo	2023-01-05T00:00:00	2024-11-06T03:00:00	5	Humedad	88
151509	7	Sololá	701	Sololá	2	El tablón	5	Mayo	2023-01-05T00:00:00	2024-11-06T03:00:00	6	Velocidad del viento	1.6
151510	7	Sololá	701	Sololá	2	El tablón	5	Mayo	2023-01-05T00:00:00	2024-11-06T03:00:00	7	Dirección del viento	1.61
151511	7	Sololá	701	Sololá	2	El tablón	5	Mayo	2023-01-05T00:00:00	2024-11-06T03:00:00	1	Precipitación	0
151512	7	Sololá	701	Sololá	2	El tablón	5	Mayo	2023-01-05T00:00:00	2024-11-06T03:00:00	8	Radiación solar	0
151513	7	Sololá	701	Sololá	2	El tablón	5	Mayo	2023-01-05T00:00:00	2024-11-06T04:00:00	2	Temperatura media	11.4
151514	7	Sololá	701	Sololá	2	El tablón	5	Mayo	2023-01-05T00:00:00	2024-11-06T04:00:00	4	Temperatura máxima	11.4
151515	7	Sololá	701	Sololá	2	El tablón	5	Mayo	2023-01-05T00:00:00	2024-11-06T04:00:00	3	Temperatura mínima	10.8
151516	7	Sololá	701	Sololá	2	El tablón	5	Mayo	2023-01-05T00:00:00	2024-11-06T04:00:00	5	Humedad	85
151517	7	Sololá	701	Sololá	2	El tablón	5	Mayo	2023-01-05T00:00:00	2024-11-06T04:00:00	6	Velocidad del viento	3.2
151518	7	Sololá	701	Sololá	2	El tablón	5	Mayo	2023-01-05T00:00:00	2024-11-06T04:00:00	7	Dirección del viento	3.22
151519	7	Sololá	701	Sololá	2	El tablón	5	Mayo	2023-01-05T00:00:00	2024-11-06T04:00:00	1	Precipitación	0
151520	7	Sololá	701	Sololá	2	El tablón	5	Mayo	2023-01-05T00:00:00	2024-11-06T04:00:00	8	Radiación solar	0
151521	7	Sololá	701	Sololá	2	El tablón	5	Mayo	2023-01-05T00:00:00	2024-11-06T05:00:00	2	Temperatura media	11.4
151522	7	Sololá	701	Sololá	2	El tablón	5	Mayo	2023-01-05T00:00:00	2024-11-06T05:00:00	4	Temperatura máxima	11.7
151523	7	Sololá	701	Sololá	2	El tablón	5	Mayo	2023-01-05T00:00:00	2024-11-06T05:00:00	3	Temperatura mínima	11.4
151524	7	Sololá	701	Sololá	2	El tablón	5	Mayo	2023-01-05T00:00:00	2024-11-06T05:00:00	5	Humedad	85
151525	7	Sololá	701	Sololá	2	El tablón	5	Mayo	2023-01-05T00:00:00	2024-11-06T05:00:00	6	Velocidad del viento	3.2
151526	7	Sololá	701	Sololá	2	El tablón	5	Mayo	2023-01-05T00:00:00	2024-11-06T05:00:00	7	Dirección del viento	3.22
151527	7	Sololá	701	Sololá	2	El tablón	5	Mayo	2023-01-05T00:00:00	2024-11-06T05:00:00	1	Precipitación	0
151528	7	Sololá	701	Sololá	2	El tablón	5	Mayo	2023-01-05T00:00:00	2024-11-06T05:00:00	8	Radiación solar	0
151529	7	Sololá	701	Sololá	2	El tablón	5	Mayo	2023-01-05T00:00:00	2024-11-06T06:00:00	2	Temperatura media	11.3
151530	7	Sololá	701	Sololá	2	El tablón	5	Mayo	2023-01-05T00:00:00	2024-11-06T06:00:00	4	Temperatura máxima	11.6
151531	7	Sololá	701	Sololá	2	El tablón	5	Mayo	2023-01-05T00:00:00	2024-11-06T06:00:00	3	Temperatura mínima	11.2
151532	7	Sololá	701	Sololá	2	El tablón	5	Mayo	2023-01-05T00:00:00	2024-11-06T06:00:00	5	Humedad	87
151533	7	Sololá	701	Sololá	2	El tablón	5	Mayo	2023-01-05T00:00:00	2024-11-06T06:00:00	6	Velocidad del viento	0
151534	7	Sololá	701	Sololá	2	El tablón	5	Mayo	2023-01-05T00:00:00	2024-11-06T06:00:00	7	Dirección del viento	0
151535	7	Sololá	701	Sololá	2	El tablón	5	Mayo	2023-01-05T00:00:00	2024-11-06T06:00:00	1	Precipitación	0
151536	7	Sololá	701	Sololá	2	El tablón	5	Mayo	2023-01-05T00:00:00	2024-11-06T06:00:00	8	Radiación solar	2
151537	7	Sololá	701	Sololá	2	El tablón	5	Mayo	2023-01-05T00:00:00	2024-11-06T07:00:00	2	Temperatura media	12.6
151538	7	Sololá	701	Sololá	2	El tablón	5	Mayo	2023-01-05T00:00:00	2024-11-06T07:00:00	4	Temperatura máxima	12.6
151539	7	Sololá	701	Sololá	2	El tablón	5	Mayo	2023-01-05T00:00:00	2024-11-06T07:00:00	3	Temperatura mínima	11.2
151540	7	Sololá	701	Sololá	2	El tablón	5	Mayo	2023-01-05T00:00:00	2024-11-06T07:00:00	5	Humedad	86
151541	7	Sololá	701	Sololá	2	El tablón	5	Mayo	2023-01-05T00:00:00	2024-11-06T07:00:00	6	Velocidad del viento	3.2
151542	7	Sololá	701	Sololá	2	El tablón	5	Mayo	2023-01-05T00:00:00	2024-11-06T07:00:00	7	Dirección del viento	3.22
151543	7	Sololá	701	Sololá	2	El tablón	5	Mayo	2023-01-05T00:00:00	2024-11-06T07:00:00	1	Precipitación	0
151544	7	Sololá	701	Sololá	2	El tablón	5	Mayo	2023-01-05T00:00:00	2024-11-06T07:00:00	8	Radiación solar	98
151545	7	Sololá	701	Sololá	2	El tablón	5	Mayo	2023-01-05T00:00:00	2024-11-06T08:00:00	2	Temperatura media	16.7
151546	7	Sololá	701	Sololá	2	El tablón	5	Mayo	2023-01-05T00:00:00	2024-11-06T08:00:00	4	Temperatura máxima	16.7
151547	7	Sololá	701	Sololá	2	El tablón	5	Mayo	2023-01-05T00:00:00	2024-11-06T08:00:00	3	Temperatura mínima	12.6
151548	7	Sololá	701	Sololá	2	El tablón	5	Mayo	2023-01-05T00:00:00	2024-11-06T08:00:00	5	Humedad	76
151549	7	Sololá	701	Sololá	2	El tablón	5	Mayo	2023-01-05T00:00:00	2024-11-06T08:00:00	6	Velocidad del viento	0
151550	7	Sololá	701	Sololá	2	El tablón	5	Mayo	2023-01-05T00:00:00	2024-11-06T08:00:00	7	Dirección del viento	0
151551	7	Sololá	701	Sololá	2	El tablón	5	Mayo	2023-01-05T00:00:00	2024-11-06T08:00:00	1	Precipitación	0
151552	7	Sololá	701	Sololá	2	El tablón	5	Mayo	2023-01-05T00:00:00	2024-11-06T08:00:00	8	Radiación solar	310
151553	7	Sololá	701	Sololá	2	El tablón	5	Mayo	2023-01-05T00:00:00	2024-11-06T09:00:00	2	Temperatura media	17.3
151554	7	Sololá	701	Sololá	2	El tablón	5	Mayo	2023-01-05T00:00:00	2024-11-06T09:00:00	4	Temperatura máxima	17.3
151555	7	Sololá	701	Sololá	2	El tablón	5	Mayo	2023-01-05T00:00:00	2024-11-06T09:00:00	3	Temperatura mínima	16.8
151556	7	Sololá	701	Sololá	2	El tablón	5	Mayo	2023-01-05T00:00:00	2024-11-06T09:00:00	5	Humedad	74
151557	7	Sololá	701	Sololá	2	El tablón	5	Mayo	2023-01-05T00:00:00	2024-11-06T09:00:00	6	Velocidad del viento	3.2
151558	7	Sololá	701	Sololá	2	El tablón	5	Mayo	2023-01-05T00:00:00	2024-11-06T09:00:00	7	Dirección del viento	3.22
151559	7	Sololá	701	Sololá	2	El tablón	5	Mayo	2023-01-05T00:00:00	2024-11-06T09:00:00	1	Precipitación	0
151560	7	Sololá	701	Sololá	2	El tablón	5	Mayo	2023-01-05T00:00:00	2024-11-06T09:00:00	8	Radiación solar	534
151561	7	Sololá	701	Sololá	2	El tablón	5	Mayo	2023-01-05T00:00:00	2024-11-06T10:00:00	2	Temperatura media	18.2
151562	7	Sololá	701	Sololá	2	El tablón	5	Mayo	2023-01-05T00:00:00	2024-11-06T10:00:00	4	Temperatura máxima	18.3
151563	7	Sololá	701	Sololá	2	El tablón	5	Mayo	2023-01-05T00:00:00	2024-11-06T10:00:00	3	Temperatura mínima	17.4
151564	7	Sololá	701	Sololá	2	El tablón	5	Mayo	2023-01-05T00:00:00	2024-11-06T10:00:00	5	Humedad	74
151565	7	Sololá	701	Sololá	2	El tablón	5	Mayo	2023-01-05T00:00:00	2024-11-06T10:00:00	6	Velocidad del viento	4.8
151566	7	Sololá	701	Sololá	2	El tablón	5	Mayo	2023-01-05T00:00:00	2024-11-06T10:00:00	7	Dirección del viento	4.83
151567	7	Sololá	701	Sololá	2	El tablón	5	Mayo	2023-01-05T00:00:00	2024-11-06T10:00:00	1	Precipitación	0
151568	7	Sololá	701	Sololá	2	El tablón	5	Mayo	2023-01-05T00:00:00	2024-11-06T10:00:00	8	Radiación solar	735
151569	7	Sololá	701	Sololá	2	El tablón	5	Mayo	2023-01-05T00:00:00	2024-11-06T11:00:00	2	Temperatura media	19.1
151570	7	Sololá	701	Sololá	2	El tablón	5	Mayo	2023-01-05T00:00:00	2024-11-06T11:00:00	4	Temperatura máxima	19.2
151571	7	Sololá	701	Sololá	2	El tablón	5	Mayo	2023-01-05T00:00:00	2024-11-06T11:00:00	3	Temperatura mínima	18.2
151572	7	Sololá	701	Sololá	2	El tablón	5	Mayo	2023-01-05T00:00:00	2024-11-06T11:00:00	5	Humedad	71
151573	7	Sololá	701	Sololá	2	El tablón	5	Mayo	2023-01-05T00:00:00	2024-11-06T11:00:00	6	Velocidad del viento	6.4
151574	7	Sololá	701	Sololá	2	El tablón	5	Mayo	2023-01-05T00:00:00	2024-11-06T11:00:00	7	Dirección del viento	6.44
151575	7	Sololá	701	Sololá	2	El tablón	5	Mayo	2023-01-05T00:00:00	2024-11-06T11:00:00	1	Precipitación	0
151576	7	Sololá	701	Sololá	2	El tablón	5	Mayo	2023-01-05T00:00:00	2024-11-06T11:00:00	8	Radiación solar	854
151577	7	Sololá	701	Sololá	2	El tablón	5	Mayo	2023-01-05T00:00:00	2024-11-06T12:00:00	2	Temperatura media	19.6
151578	7	Sololá	701	Sololá	2	El tablón	5	Mayo	2023-01-05T00:00:00	2024-11-06T12:00:00	4	Temperatura máxima	19.6
151579	7	Sololá	701	Sololá	2	El tablón	5	Mayo	2023-01-05T00:00:00	2024-11-06T12:00:00	3	Temperatura mínima	19
151580	7	Sololá	701	Sololá	2	El tablón	5	Mayo	2023-01-05T00:00:00	2024-11-06T12:00:00	5	Humedad	69
151581	7	Sololá	701	Sololá	2	El tablón	5	Mayo	2023-01-05T00:00:00	2024-11-06T12:00:00	6	Velocidad del viento	9.7
151582	7	Sololá	701	Sololá	2	El tablón	5	Mayo	2023-01-05T00:00:00	2024-11-06T12:00:00	7	Dirección del viento	9.66
151583	7	Sololá	701	Sololá	2	El tablón	5	Mayo	2023-01-05T00:00:00	2024-11-06T12:00:00	1	Precipitación	0
151584	7	Sololá	701	Sololá	2	El tablón	5	Mayo	2023-01-05T00:00:00	2024-11-06T12:00:00	8	Radiación solar	939
151585	7	Sololá	701	Sololá	2	El tablón	5	Mayo	2023-01-05T00:00:00	2024-11-06T13:00:00	2	Temperatura media	19.2
151586	7	Sololá	701	Sololá	2	El tablón	5	Mayo	2023-01-05T00:00:00	2024-11-06T13:00:00	4	Temperatura máxima	19.7
151587	7	Sololá	701	Sololá	2	El tablón	5	Mayo	2023-01-05T00:00:00	2024-11-06T13:00:00	3	Temperatura mínima	19
151588	7	Sololá	701	Sololá	2	El tablón	5	Mayo	2023-01-05T00:00:00	2024-11-06T13:00:00	5	Humedad	81
151589	7	Sololá	701	Sololá	2	El tablón	5	Mayo	2023-01-05T00:00:00	2024-11-06T13:00:00	6	Velocidad del viento	9.7
151590	7	Sololá	701	Sololá	2	El tablón	5	Mayo	2023-01-05T00:00:00	2024-11-06T13:00:00	7	Dirección del viento	9.66
151591	7	Sololá	701	Sololá	2	El tablón	5	Mayo	2023-01-05T00:00:00	2024-11-06T13:00:00	1	Precipitación	0
151592	7	Sololá	701	Sololá	2	El tablón	5	Mayo	2023-01-05T00:00:00	2024-11-06T13:00:00	8	Radiación solar	941
151593	7	Sololá	701	Sololá	2	El tablón	5	Mayo	2023-01-05T00:00:00	2024-11-06T14:00:00	2	Temperatura media	18.6
151594	7	Sololá	701	Sololá	2	El tablón	5	Mayo	2023-01-05T00:00:00	2024-11-06T14:00:00	4	Temperatura máxima	19.3
151595	7	Sololá	701	Sololá	2	El tablón	5	Mayo	2023-01-05T00:00:00	2024-11-06T14:00:00	3	Temperatura mínima	18.4
151596	7	Sololá	701	Sololá	2	El tablón	5	Mayo	2023-01-05T00:00:00	2024-11-06T14:00:00	5	Humedad	84
151597	7	Sololá	701	Sololá	2	El tablón	5	Mayo	2023-01-05T00:00:00	2024-11-06T14:00:00	6	Velocidad del viento	9.7
151598	7	Sololá	701	Sololá	2	El tablón	5	Mayo	2023-01-05T00:00:00	2024-11-06T14:00:00	7	Dirección del viento	9.66
151599	7	Sololá	701	Sololá	2	El tablón	5	Mayo	2023-01-05T00:00:00	2024-11-06T14:00:00	1	Precipitación	0
151600	7	Sololá	701	Sololá	2	El tablón	5	Mayo	2023-01-05T00:00:00	2024-11-06T14:00:00	8	Radiación solar	807
151601	7	Sololá	701	Sololá	2	El tablón	5	Mayo	2023-01-05T00:00:00	2024-11-06T15:00:00	2	Temperatura media	17.8
151602	7	Sololá	701	Sololá	2	El tablón	5	Mayo	2023-01-05T00:00:00	2024-11-06T15:00:00	4	Temperatura máxima	18.9
151603	7	Sololá	701	Sololá	2	El tablón	5	Mayo	2023-01-05T00:00:00	2024-11-06T15:00:00	3	Temperatura mínima	17.6
151604	7	Sololá	701	Sololá	2	El tablón	5	Mayo	2023-01-05T00:00:00	2024-11-06T15:00:00	5	Humedad	86
151605	7	Sololá	701	Sololá	2	El tablón	5	Mayo	2023-01-05T00:00:00	2024-11-06T15:00:00	6	Velocidad del viento	8
151606	7	Sololá	701	Sololá	2	El tablón	5	Mayo	2023-01-05T00:00:00	2024-11-06T15:00:00	7	Dirección del viento	8.05
151607	7	Sololá	701	Sololá	2	El tablón	5	Mayo	2023-01-05T00:00:00	2024-11-06T15:00:00	1	Precipitación	0
151608	7	Sololá	701	Sololá	2	El tablón	5	Mayo	2023-01-05T00:00:00	2024-11-06T15:00:00	8	Radiación solar	444
151609	7	Sololá	701	Sololá	2	El tablón	5	Mayo	2023-01-05T00:00:00	2024-11-06T16:00:00	2	Temperatura media	16.3
151610	7	Sololá	701	Sololá	2	El tablón	5	Mayo	2023-01-05T00:00:00	2024-11-06T16:00:00	4	Temperatura máxima	17.8
151611	7	Sololá	701	Sololá	2	El tablón	5	Mayo	2023-01-05T00:00:00	2024-11-06T16:00:00	3	Temperatura mínima	16.3
151612	7	Sololá	701	Sololá	2	El tablón	5	Mayo	2023-01-05T00:00:00	2024-11-06T16:00:00	5	Humedad	88
151613	7	Sololá	701	Sololá	2	El tablón	5	Mayo	2023-01-05T00:00:00	2024-11-06T16:00:00	6	Velocidad del viento	6.4
151614	7	Sololá	701	Sololá	2	El tablón	5	Mayo	2023-01-05T00:00:00	2024-11-06T16:00:00	7	Dirección del viento	6.44
151615	7	Sololá	701	Sololá	2	El tablón	5	Mayo	2023-01-05T00:00:00	2024-11-06T16:00:00	1	Precipitación	0
151616	7	Sololá	701	Sololá	2	El tablón	5	Mayo	2023-01-05T00:00:00	2024-11-06T16:00:00	8	Radiación solar	192
151617	7	Sololá	701	Sololá	2	El tablón	5	Mayo	2023-01-05T00:00:00	2024-11-06T17:00:00	2	Temperatura media	16.1
151618	7	Sololá	701	Sololá	2	El tablón	5	Mayo	2023-01-05T00:00:00	2024-11-06T17:00:00	4	Temperatura máxima	16.5
151619	7	Sololá	701	Sololá	2	El tablón	5	Mayo	2023-01-05T00:00:00	2024-11-06T17:00:00	3	Temperatura mínima	16.1
151620	7	Sololá	701	Sololá	2	El tablón	5	Mayo	2023-01-05T00:00:00	2024-11-06T17:00:00	5	Humedad	88
151621	7	Sololá	701	Sololá	2	El tablón	5	Mayo	2023-01-05T00:00:00	2024-11-06T17:00:00	6	Velocidad del viento	4.8
151622	7	Sololá	701	Sololá	2	El tablón	5	Mayo	2023-01-05T00:00:00	2024-11-06T17:00:00	7	Dirección del viento	4.83
151623	7	Sololá	701	Sololá	2	El tablón	5	Mayo	2023-01-05T00:00:00	2024-11-06T17:00:00	1	Precipitación	0
151624	7	Sololá	701	Sololá	2	El tablón	5	Mayo	2023-01-05T00:00:00	2024-11-06T17:00:00	8	Radiación solar	149
151625	7	Sololá	701	Sololá	2	El tablón	5	Mayo	2023-01-05T00:00:00	2024-11-06T18:00:00	2	Temperatura media	15.8
151626	7	Sololá	701	Sololá	2	El tablón	5	Mayo	2023-01-05T00:00:00	2024-11-06T18:00:00	4	Temperatura máxima	16.1
151627	7	Sololá	701	Sololá	2	El tablón	5	Mayo	2023-01-05T00:00:00	2024-11-06T18:00:00	3	Temperatura mínima	15.8
151628	7	Sololá	701	Sololá	2	El tablón	5	Mayo	2023-01-05T00:00:00	2024-11-06T18:00:00	5	Humedad	88
151629	7	Sololá	701	Sololá	2	El tablón	5	Mayo	2023-01-05T00:00:00	2024-11-06T18:00:00	6	Velocidad del viento	3.2
151630	7	Sololá	701	Sololá	2	El tablón	5	Mayo	2023-01-05T00:00:00	2024-11-06T18:00:00	7	Dirección del viento	3.22
151631	7	Sololá	701	Sololá	2	El tablón	5	Mayo	2023-01-05T00:00:00	2024-11-06T18:00:00	1	Precipitación	0
151632	7	Sololá	701	Sololá	2	El tablón	5	Mayo	2023-01-05T00:00:00	2024-11-06T18:00:00	8	Radiación solar	45
151633	7	Sololá	701	Sololá	2	El tablón	5	Mayo	2023-01-05T00:00:00	2024-11-06T19:00:00	2	Temperatura media	15.2
151634	7	Sololá	701	Sololá	2	El tablón	5	Mayo	2023-01-05T00:00:00	2024-11-06T19:00:00	4	Temperatura máxima	15.9
151635	7	Sololá	701	Sololá	2	El tablón	5	Mayo	2023-01-05T00:00:00	2024-11-06T19:00:00	3	Temperatura mínima	15.2
151636	7	Sololá	701	Sololá	2	El tablón	5	Mayo	2023-01-05T00:00:00	2024-11-06T19:00:00	5	Humedad	88
151637	7	Sololá	701	Sololá	2	El tablón	5	Mayo	2023-01-05T00:00:00	2024-11-06T19:00:00	6	Velocidad del viento	1.6
151638	7	Sololá	701	Sololá	2	El tablón	5	Mayo	2023-01-05T00:00:00	2024-11-06T19:00:00	7	Dirección del viento	1.61
151639	7	Sololá	701	Sololá	2	El tablón	5	Mayo	2023-01-05T00:00:00	2024-11-06T19:00:00	1	Precipitación	0
151640	7	Sololá	701	Sololá	2	El tablón	5	Mayo	2023-01-05T00:00:00	2024-11-06T19:00:00	8	Radiación solar	0
151641	7	Sololá	701	Sololá	2	El tablón	5	Mayo	2023-01-05T00:00:00	2024-11-06T20:00:00	2	Temperatura media	14.9
151642	7	Sololá	701	Sololá	2	El tablón	5	Mayo	2023-01-05T00:00:00	2024-11-06T20:00:00	4	Temperatura máxima	15.2
151643	7	Sololá	701	Sololá	2	El tablón	5	Mayo	2023-01-05T00:00:00	2024-11-06T20:00:00	3	Temperatura mínima	14.9
151644	7	Sololá	701	Sololá	2	El tablón	5	Mayo	2023-01-05T00:00:00	2024-11-06T20:00:00	5	Humedad	88
151645	7	Sololá	701	Sololá	2	El tablón	5	Mayo	2023-01-05T00:00:00	2024-11-06T20:00:00	6	Velocidad del viento	3.2
151646	7	Sololá	701	Sololá	2	El tablón	5	Mayo	2023-01-05T00:00:00	2024-11-06T20:00:00	7	Dirección del viento	3.22
151647	7	Sololá	701	Sololá	2	El tablón	5	Mayo	2023-01-05T00:00:00	2024-11-06T20:00:00	1	Precipitación	0
151648	7	Sololá	701	Sololá	2	El tablón	5	Mayo	2023-01-05T00:00:00	2024-11-06T20:00:00	8	Radiación solar	0
151649	7	Sololá	701	Sololá	2	El tablón	5	Mayo	2023-01-05T00:00:00	2024-11-06T21:00:00	2	Temperatura media	13.8
151650	7	Sololá	701	Sololá	2	El tablón	5	Mayo	2023-01-05T00:00:00	2024-11-06T21:00:00	4	Temperatura máxima	14.9
151651	7	Sololá	701	Sololá	2	El tablón	5	Mayo	2023-01-05T00:00:00	2024-11-06T21:00:00	3	Temperatura mínima	13.8
151652	7	Sololá	701	Sololá	2	El tablón	5	Mayo	2023-01-05T00:00:00	2024-11-06T21:00:00	5	Humedad	85
151653	7	Sololá	701	Sololá	2	El tablón	5	Mayo	2023-01-05T00:00:00	2024-11-06T21:00:00	6	Velocidad del viento	6.4
151654	7	Sololá	701	Sololá	2	El tablón	5	Mayo	2023-01-05T00:00:00	2024-11-06T21:00:00	7	Dirección del viento	6.44
151655	7	Sololá	701	Sololá	2	El tablón	5	Mayo	2023-01-05T00:00:00	2024-11-06T21:00:00	1	Precipitación	0.2
151656	7	Sololá	701	Sololá	2	El tablón	5	Mayo	2023-01-05T00:00:00	2024-11-06T21:00:00	8	Radiación solar	0
151657	7	Sololá	701	Sololá	2	El tablón	5	Mayo	2023-01-05T00:00:00	2024-11-06T22:00:00	2	Temperatura media	13.3
151658	7	Sololá	701	Sololá	2	El tablón	5	Mayo	2023-01-05T00:00:00	2024-11-06T22:00:00	4	Temperatura máxima	13.9
151659	7	Sololá	701	Sololá	2	El tablón	5	Mayo	2023-01-05T00:00:00	2024-11-06T22:00:00	3	Temperatura mínima	13.2
151660	7	Sololá	701	Sololá	2	El tablón	5	Mayo	2023-01-05T00:00:00	2024-11-06T22:00:00	5	Humedad	88
151661	7	Sololá	701	Sololá	2	El tablón	5	Mayo	2023-01-05T00:00:00	2024-11-06T22:00:00	6	Velocidad del viento	1.6
151662	7	Sololá	701	Sololá	2	El tablón	5	Mayo	2023-01-05T00:00:00	2024-11-06T22:00:00	7	Dirección del viento	1.61
151663	7	Sololá	701	Sololá	2	El tablón	5	Mayo	2023-01-05T00:00:00	2024-11-06T22:00:00	1	Precipitación	0
151664	7	Sololá	701	Sololá	2	El tablón	5	Mayo	2023-01-05T00:00:00	2024-11-06T22:00:00	8	Radiación solar	0
151665	7	Sololá	701	Sololá	2	El tablón	5	Mayo	2023-01-05T00:00:00	2024-11-06T23:00:00	2	Temperatura media	12.4
151666	7	Sololá	701	Sololá	2	El tablón	5	Mayo	2023-01-05T00:00:00	2024-11-06T23:00:00	4	Temperatura máxima	13.3
151667	7	Sololá	701	Sololá	2	El tablón	5	Mayo	2023-01-05T00:00:00	2024-11-06T23:00:00	3	Temperatura mínima	12.4
151668	7	Sololá	701	Sololá	2	El tablón	5	Mayo	2023-01-05T00:00:00	2024-11-06T23:00:00	5	Humedad	89
151669	7	Sololá	701	Sololá	2	El tablón	5	Mayo	2023-01-05T00:00:00	2024-11-06T23:00:00	6	Velocidad del viento	3.2
151670	7	Sololá	701	Sololá	2	El tablón	5	Mayo	2023-01-05T00:00:00	2024-11-06T23:00:00	7	Dirección del viento	3.22
151671	7	Sololá	701	Sololá	2	El tablón	5	Mayo	2023-01-05T00:00:00	2024-11-06T23:00:00	1	Precipitación	0
151672	7	Sololá	701	Sololá	2	El tablón	5	Mayo	2023-01-05T00:00:00	2024-11-06T23:00:00	8	Radiación solar	0
151673	7	Sololá	701	Sololá	2	El tablón	5	Mayo	2023-02-05T00:00:00	2024-11-06T00:00:00	2	Temperatura media	12.1
151674	7	Sololá	701	Sololá	2	El tablón	5	Mayo	2023-02-05T00:00:00	2024-11-06T00:00:00	4	Temperatura máxima	12.5
151675	7	Sololá	701	Sololá	2	El tablón	5	Mayo	2023-02-05T00:00:00	2024-11-06T00:00:00	3	Temperatura mínima	12
151676	7	Sololá	701	Sololá	2	El tablón	5	Mayo	2023-02-05T00:00:00	2024-11-06T00:00:00	5	Humedad	89
151677	7	Sololá	701	Sololá	2	El tablón	5	Mayo	2023-02-05T00:00:00	2024-11-06T00:00:00	6	Velocidad del viento	1.6
151678	7	Sololá	701	Sololá	2	El tablón	5	Mayo	2023-02-05T00:00:00	2024-11-06T00:00:00	7	Dirección del viento	1.61
151679	7	Sololá	701	Sololá	2	El tablón	5	Mayo	2023-02-05T00:00:00	2024-11-06T00:00:00	1	Precipitación	0
151680	7	Sololá	701	Sololá	2	El tablón	5	Mayo	2023-02-05T00:00:00	2024-11-06T00:00:00	8	Radiación solar	0
151681	7	Sololá	701	Sololá	2	El tablón	5	Mayo	2023-02-05T00:00:00	2024-11-06T01:00:00	2	Temperatura media	13
151682	7	Sololá	701	Sololá	2	El tablón	5	Mayo	2023-02-05T00:00:00	2024-11-06T01:00:00	4	Temperatura máxima	13
151683	7	Sololá	701	Sololá	2	El tablón	5	Mayo	2023-02-05T00:00:00	2024-11-06T01:00:00	3	Temperatura mínima	12.1
151684	7	Sololá	701	Sololá	2	El tablón	5	Mayo	2023-02-05T00:00:00	2024-11-06T01:00:00	5	Humedad	89
151685	7	Sololá	701	Sololá	2	El tablón	5	Mayo	2023-02-05T00:00:00	2024-11-06T01:00:00	6	Velocidad del viento	1.6
151686	7	Sololá	701	Sololá	2	El tablón	5	Mayo	2023-02-05T00:00:00	2024-11-06T01:00:00	7	Dirección del viento	1.61
151687	7	Sololá	701	Sololá	2	El tablón	5	Mayo	2023-02-05T00:00:00	2024-11-06T01:00:00	1	Precipitación	0
151688	7	Sololá	701	Sololá	2	El tablón	5	Mayo	2023-02-05T00:00:00	2024-11-06T01:00:00	8	Radiación solar	0
151689	7	Sololá	701	Sololá	2	El tablón	5	Mayo	2023-02-05T00:00:00	2024-11-06T02:00:00	2	Temperatura media	12.3
151690	7	Sololá	701	Sololá	2	El tablón	5	Mayo	2023-02-05T00:00:00	2024-11-06T02:00:00	4	Temperatura máxima	13
151691	7	Sololá	701	Sololá	2	El tablón	5	Mayo	2023-02-05T00:00:00	2024-11-06T02:00:00	3	Temperatura mínima	12.3
151692	7	Sololá	701	Sololá	2	El tablón	5	Mayo	2023-02-05T00:00:00	2024-11-06T02:00:00	5	Humedad	89
151693	7	Sololá	701	Sololá	2	El tablón	5	Mayo	2023-02-05T00:00:00	2024-11-06T02:00:00	6	Velocidad del viento	1.6
151694	7	Sololá	701	Sololá	2	El tablón	5	Mayo	2023-02-05T00:00:00	2024-11-06T02:00:00	7	Dirección del viento	1.61
151695	7	Sololá	701	Sololá	2	El tablón	5	Mayo	2023-02-05T00:00:00	2024-11-06T02:00:00	1	Precipitación	0
151696	7	Sololá	701	Sololá	2	El tablón	5	Mayo	2023-02-05T00:00:00	2024-11-06T02:00:00	8	Radiación solar	0
151697	7	Sololá	701	Sololá	2	El tablón	5	Mayo	2023-02-05T00:00:00	2024-11-06T03:00:00	2	Temperatura media	12
151698	7	Sololá	701	Sololá	2	El tablón	5	Mayo	2023-02-05T00:00:00	2024-11-06T03:00:00	4	Temperatura máxima	12.3
151699	7	Sololá	701	Sololá	2	El tablón	5	Mayo	2023-02-05T00:00:00	2024-11-06T03:00:00	3	Temperatura mínima	12
151700	7	Sololá	701	Sololá	2	El tablón	5	Mayo	2023-02-05T00:00:00	2024-11-06T03:00:00	5	Humedad	89
151701	7	Sololá	701	Sololá	2	El tablón	5	Mayo	2023-02-05T00:00:00	2024-11-06T03:00:00	6	Velocidad del viento	3.2
151702	7	Sololá	701	Sololá	2	El tablón	5	Mayo	2023-02-05T00:00:00	2024-11-06T03:00:00	7	Dirección del viento	3.22
151703	7	Sololá	701	Sololá	2	El tablón	5	Mayo	2023-02-05T00:00:00	2024-11-06T03:00:00	1	Precipitación	0
151704	7	Sololá	701	Sololá	2	El tablón	5	Mayo	2023-02-05T00:00:00	2024-11-06T03:00:00	8	Radiación solar	0
151705	7	Sololá	701	Sololá	2	El tablón	5	Mayo	2023-02-05T00:00:00	2024-11-06T04:00:00	2	Temperatura media	11.8
151706	7	Sololá	701	Sololá	2	El tablón	5	Mayo	2023-02-05T00:00:00	2024-11-06T04:00:00	4	Temperatura máxima	12.2
151707	7	Sololá	701	Sololá	2	El tablón	5	Mayo	2023-02-05T00:00:00	2024-11-06T04:00:00	3	Temperatura mínima	11.8
151708	7	Sololá	701	Sololá	2	El tablón	5	Mayo	2023-02-05T00:00:00	2024-11-06T04:00:00	5	Humedad	89
151709	7	Sololá	701	Sololá	2	El tablón	5	Mayo	2023-02-05T00:00:00	2024-11-06T04:00:00	6	Velocidad del viento	1.6
151710	7	Sololá	701	Sololá	2	El tablón	5	Mayo	2023-02-05T00:00:00	2024-11-06T04:00:00	7	Dirección del viento	1.61
151711	7	Sololá	701	Sololá	2	El tablón	5	Mayo	2023-02-05T00:00:00	2024-11-06T04:00:00	1	Precipitación	0
151712	7	Sololá	701	Sololá	2	El tablón	5	Mayo	2023-02-05T00:00:00	2024-11-06T04:00:00	8	Radiación solar	0
151713	7	Sololá	701	Sololá	2	El tablón	5	Mayo	2023-02-05T00:00:00	2024-11-06T05:00:00	2	Temperatura media	11.5
151714	7	Sololá	701	Sololá	2	El tablón	5	Mayo	2023-02-05T00:00:00	2024-11-06T05:00:00	4	Temperatura máxima	11.8
151715	7	Sololá	701	Sololá	2	El tablón	5	Mayo	2023-02-05T00:00:00	2024-11-06T05:00:00	3	Temperatura mínima	10.9
151716	7	Sololá	701	Sololá	2	El tablón	5	Mayo	2023-02-05T00:00:00	2024-11-06T05:00:00	5	Humedad	89
151717	7	Sololá	701	Sololá	2	El tablón	5	Mayo	2023-02-05T00:00:00	2024-11-06T05:00:00	6	Velocidad del viento	3.2
151718	7	Sololá	701	Sololá	2	El tablón	5	Mayo	2023-02-05T00:00:00	2024-11-06T05:00:00	7	Dirección del viento	3.22
151719	7	Sololá	701	Sololá	2	El tablón	5	Mayo	2023-02-05T00:00:00	2024-11-06T05:00:00	1	Precipitación	0
151720	7	Sololá	701	Sololá	2	El tablón	5	Mayo	2023-02-05T00:00:00	2024-11-06T05:00:00	8	Radiación solar	0
151721	7	Sololá	701	Sololá	2	El tablón	5	Mayo	2023-02-05T00:00:00	2024-11-06T06:00:00	2	Temperatura media	10.9
151722	7	Sololá	701	Sololá	2	El tablón	5	Mayo	2023-02-05T00:00:00	2024-11-06T06:00:00	4	Temperatura máxima	11.6
151723	7	Sololá	701	Sololá	2	El tablón	5	Mayo	2023-02-05T00:00:00	2024-11-06T06:00:00	3	Temperatura mínima	10.9
151724	7	Sololá	701	Sololá	2	El tablón	5	Mayo	2023-02-05T00:00:00	2024-11-06T06:00:00	5	Humedad	89
151725	7	Sololá	701	Sololá	2	El tablón	5	Mayo	2023-02-05T00:00:00	2024-11-06T06:00:00	6	Velocidad del viento	3.2
151726	7	Sololá	701	Sololá	2	El tablón	5	Mayo	2023-02-05T00:00:00	2024-11-06T06:00:00	7	Dirección del viento	3.22
151727	7	Sololá	701	Sololá	2	El tablón	5	Mayo	2023-02-05T00:00:00	2024-11-06T06:00:00	1	Precipitación	0
151728	7	Sololá	701	Sololá	2	El tablón	5	Mayo	2023-02-05T00:00:00	2024-11-06T06:00:00	8	Radiación solar	3
151729	7	Sololá	701	Sololá	2	El tablón	5	Mayo	2023-02-05T00:00:00	2024-11-06T07:00:00	2	Temperatura media	12.7
151730	7	Sololá	701	Sololá	2	El tablón	5	Mayo	2023-02-05T00:00:00	2024-11-06T07:00:00	4	Temperatura máxima	12.7
151731	7	Sololá	701	Sololá	2	El tablón	5	Mayo	2023-02-05T00:00:00	2024-11-06T07:00:00	3	Temperatura mínima	10.8
151732	7	Sololá	701	Sololá	2	El tablón	5	Mayo	2023-02-05T00:00:00	2024-11-06T07:00:00	5	Humedad	89
151733	7	Sololá	701	Sololá	2	El tablón	5	Mayo	2023-02-05T00:00:00	2024-11-06T07:00:00	6	Velocidad del viento	1.6
151734	7	Sololá	701	Sololá	2	El tablón	5	Mayo	2023-02-05T00:00:00	2024-11-06T07:00:00	7	Dirección del viento	1.61
151735	7	Sololá	701	Sololá	2	El tablón	5	Mayo	2023-02-05T00:00:00	2024-11-06T07:00:00	1	Precipitación	0
151736	7	Sololá	701	Sololá	2	El tablón	5	Mayo	2023-02-05T00:00:00	2024-11-06T07:00:00	8	Radiación solar	104
151737	7	Sololá	701	Sololá	2	El tablón	5	Mayo	2023-02-05T00:00:00	2024-11-06T08:00:00	2	Temperatura media	15.2
151738	7	Sololá	701	Sololá	2	El tablón	5	Mayo	2023-02-05T00:00:00	2024-11-06T08:00:00	4	Temperatura máxima	15.2
151739	7	Sololá	701	Sololá	2	El tablón	5	Mayo	2023-02-05T00:00:00	2024-11-06T08:00:00	3	Temperatura mínima	12.7
151740	7	Sololá	701	Sololá	2	El tablón	5	Mayo	2023-02-05T00:00:00	2024-11-06T08:00:00	5	Humedad	85
151741	7	Sololá	701	Sololá	2	El tablón	5	Mayo	2023-02-05T00:00:00	2024-11-06T08:00:00	6	Velocidad del viento	1.6
151742	7	Sololá	701	Sololá	2	El tablón	5	Mayo	2023-02-05T00:00:00	2024-11-06T08:00:00	7	Dirección del viento	1.61
151743	7	Sololá	701	Sololá	2	El tablón	5	Mayo	2023-02-05T00:00:00	2024-11-06T08:00:00	1	Precipitación	0
151744	7	Sololá	701	Sololá	2	El tablón	5	Mayo	2023-02-05T00:00:00	2024-11-06T08:00:00	8	Radiación solar	262
151745	7	Sololá	701	Sololá	2	El tablón	5	Mayo	2023-02-05T00:00:00	2024-11-06T09:00:00	2	Temperatura media	16.7
151746	7	Sololá	701	Sololá	2	El tablón	5	Mayo	2023-02-05T00:00:00	2024-11-06T09:00:00	4	Temperatura máxima	16.7
151747	7	Sololá	701	Sololá	2	El tablón	5	Mayo	2023-02-05T00:00:00	2024-11-06T09:00:00	3	Temperatura mínima	15.2
151748	7	Sololá	701	Sololá	2	El tablón	5	Mayo	2023-02-05T00:00:00	2024-11-06T09:00:00	5	Humedad	82
151749	7	Sololá	701	Sololá	2	El tablón	5	Mayo	2023-02-05T00:00:00	2024-11-06T09:00:00	6	Velocidad del viento	1.6
151750	7	Sololá	701	Sololá	2	El tablón	5	Mayo	2023-02-05T00:00:00	2024-11-06T09:00:00	7	Dirección del viento	1.61
151751	7	Sololá	701	Sololá	2	El tablón	5	Mayo	2023-02-05T00:00:00	2024-11-06T09:00:00	1	Precipitación	0
151752	7	Sololá	701	Sololá	2	El tablón	5	Mayo	2023-02-05T00:00:00	2024-11-06T09:00:00	8	Radiación solar	466
151753	7	Sololá	701	Sololá	2	El tablón	5	Mayo	2023-02-05T00:00:00	2024-11-06T10:00:00	2	Temperatura media	17.9
151754	7	Sololá	701	Sololá	2	El tablón	5	Mayo	2023-02-05T00:00:00	2024-11-06T10:00:00	4	Temperatura máxima	17.9
151755	7	Sololá	701	Sololá	2	El tablón	5	Mayo	2023-02-05T00:00:00	2024-11-06T10:00:00	3	Temperatura mínima	16.7
151756	7	Sololá	701	Sololá	2	El tablón	5	Mayo	2023-02-05T00:00:00	2024-11-06T10:00:00	5	Humedad	81
151757	7	Sololá	701	Sololá	2	El tablón	5	Mayo	2023-02-05T00:00:00	2024-11-06T10:00:00	6	Velocidad del viento	4.8
151758	7	Sololá	701	Sololá	2	El tablón	5	Mayo	2023-02-05T00:00:00	2024-11-06T10:00:00	7	Dirección del viento	4.83
151759	7	Sololá	701	Sololá	2	El tablón	5	Mayo	2023-02-05T00:00:00	2024-11-06T10:00:00	1	Precipitación	0
151760	7	Sololá	701	Sololá	2	El tablón	5	Mayo	2023-02-05T00:00:00	2024-11-06T10:00:00	8	Radiación solar	709
151761	7	Sololá	701	Sololá	2	El tablón	5	Mayo	2023-02-05T00:00:00	2024-11-06T11:00:00	2	Temperatura media	17.7
151762	7	Sololá	701	Sololá	2	El tablón	5	Mayo	2023-02-05T00:00:00	2024-11-06T11:00:00	4	Temperatura máxima	18.3
151763	7	Sololá	701	Sololá	2	El tablón	5	Mayo	2023-02-05T00:00:00	2024-11-06T11:00:00	3	Temperatura mínima	17.7
151764	7	Sololá	701	Sololá	2	El tablón	5	Mayo	2023-02-05T00:00:00	2024-11-06T11:00:00	5	Humedad	79
151765	7	Sololá	701	Sololá	2	El tablón	5	Mayo	2023-02-05T00:00:00	2024-11-06T11:00:00	6	Velocidad del viento	8
151766	7	Sololá	701	Sololá	2	El tablón	5	Mayo	2023-02-05T00:00:00	2024-11-06T11:00:00	7	Dirección del viento	8.05
151767	7	Sololá	701	Sololá	2	El tablón	5	Mayo	2023-02-05T00:00:00	2024-11-06T11:00:00	1	Precipitación	0
151768	7	Sololá	701	Sololá	2	El tablón	5	Mayo	2023-02-05T00:00:00	2024-11-06T11:00:00	8	Radiación solar	789
151769	7	Sololá	701	Sololá	2	El tablón	5	Mayo	2023-02-05T00:00:00	2024-11-06T12:00:00	2	Temperatura media	16.9
151770	7	Sololá	701	Sololá	2	El tablón	5	Mayo	2023-02-05T00:00:00	2024-11-06T12:00:00	4	Temperatura máxima	17.7
151771	7	Sololá	701	Sololá	2	El tablón	5	Mayo	2023-02-05T00:00:00	2024-11-06T12:00:00	3	Temperatura mínima	16.9
151772	7	Sololá	701	Sololá	2	El tablón	5	Mayo	2023-02-05T00:00:00	2024-11-06T12:00:00	5	Humedad	86
151773	7	Sololá	701	Sololá	2	El tablón	5	Mayo	2023-02-05T00:00:00	2024-11-06T12:00:00	6	Velocidad del viento	8
151774	7	Sololá	701	Sololá	2	El tablón	5	Mayo	2023-02-05T00:00:00	2024-11-06T12:00:00	7	Dirección del viento	8.05
151775	7	Sololá	701	Sololá	2	El tablón	5	Mayo	2023-02-05T00:00:00	2024-11-06T12:00:00	1	Precipitación	0
151776	7	Sololá	701	Sololá	2	El tablón	5	Mayo	2023-02-05T00:00:00	2024-11-06T12:00:00	8	Radiación solar	501
151777	7	Sololá	701	Sololá	2	El tablón	5	Mayo	2023-02-05T00:00:00	2024-11-06T13:00:00	2	Temperatura media	18.7
151778	7	Sololá	701	Sololá	2	El tablón	5	Mayo	2023-02-05T00:00:00	2024-11-06T13:00:00	4	Temperatura máxima	18.7
151779	7	Sololá	701	Sololá	2	El tablón	5	Mayo	2023-02-05T00:00:00	2024-11-06T13:00:00	3	Temperatura mínima	16.7
151780	7	Sololá	701	Sololá	2	El tablón	5	Mayo	2023-02-05T00:00:00	2024-11-06T13:00:00	5	Humedad	81
151781	7	Sololá	701	Sololá	2	El tablón	5	Mayo	2023-02-05T00:00:00	2024-11-06T13:00:00	6	Velocidad del viento	6.4
151782	7	Sololá	701	Sololá	2	El tablón	5	Mayo	2023-02-05T00:00:00	2024-11-06T13:00:00	7	Dirección del viento	6.44
151783	7	Sololá	701	Sololá	2	El tablón	5	Mayo	2023-02-05T00:00:00	2024-11-06T13:00:00	1	Precipitación	0
151784	7	Sololá	701	Sololá	2	El tablón	5	Mayo	2023-02-05T00:00:00	2024-11-06T13:00:00	8	Radiación solar	856
151785	7	Sololá	701	Sololá	2	El tablón	5	Mayo	2023-02-05T00:00:00	2024-11-06T14:00:00	2	Temperatura media	18.3
151786	7	Sololá	701	Sololá	2	El tablón	5	Mayo	2023-02-05T00:00:00	2024-11-06T14:00:00	4	Temperatura máxima	19.1
151787	7	Sololá	701	Sololá	2	El tablón	5	Mayo	2023-02-05T00:00:00	2024-11-06T14:00:00	3	Temperatura mínima	18
151788	7	Sololá	701	Sololá	2	El tablón	5	Mayo	2023-02-05T00:00:00	2024-11-06T14:00:00	5	Humedad	83
151789	7	Sololá	701	Sololá	2	El tablón	5	Mayo	2023-02-05T00:00:00	2024-11-06T14:00:00	6	Velocidad del viento	9.7
151790	7	Sololá	701	Sololá	2	El tablón	5	Mayo	2023-02-05T00:00:00	2024-11-06T14:00:00	7	Dirección del viento	9.66
151791	7	Sololá	701	Sololá	2	El tablón	5	Mayo	2023-02-05T00:00:00	2024-11-06T14:00:00	1	Precipitación	0
151792	7	Sololá	701	Sololá	2	El tablón	5	Mayo	2023-02-05T00:00:00	2024-11-06T14:00:00	8	Radiación solar	855
151793	7	Sololá	701	Sololá	2	El tablón	5	Mayo	2023-02-05T00:00:00	2024-11-06T15:00:00	2	Temperatura media	16.4
151794	7	Sololá	701	Sololá	2	El tablón	5	Mayo	2023-02-05T00:00:00	2024-11-06T15:00:00	4	Temperatura máxima	18.3
151795	7	Sololá	701	Sololá	2	El tablón	5	Mayo	2023-02-05T00:00:00	2024-11-06T15:00:00	3	Temperatura mínima	16.4
151796	7	Sololá	701	Sololá	2	El tablón	5	Mayo	2023-02-05T00:00:00	2024-11-06T15:00:00	5	Humedad	88
151797	7	Sololá	701	Sololá	2	El tablón	5	Mayo	2023-02-05T00:00:00	2024-11-06T15:00:00	6	Velocidad del viento	8
151798	7	Sololá	701	Sololá	2	El tablón	5	Mayo	2023-02-05T00:00:00	2024-11-06T15:00:00	7	Dirección del viento	8.05
151799	7	Sololá	701	Sololá	2	El tablón	5	Mayo	2023-02-05T00:00:00	2024-11-06T15:00:00	1	Precipitación	0
151800	7	Sololá	701	Sololá	2	El tablón	5	Mayo	2023-02-05T00:00:00	2024-11-06T15:00:00	8	Radiación solar	188
151801	7	Sololá	701	Sololá	2	El tablón	5	Mayo	2023-02-05T00:00:00	2024-11-06T16:00:00	2	Temperatura media	15.7
151802	7	Sololá	701	Sololá	2	El tablón	5	Mayo	2023-02-05T00:00:00	2024-11-06T16:00:00	4	Temperatura máxima	16.4
151803	7	Sololá	701	Sololá	2	El tablón	5	Mayo	2023-02-05T00:00:00	2024-11-06T16:00:00	3	Temperatura mínima	15.6
151804	7	Sololá	701	Sololá	2	El tablón	5	Mayo	2023-02-05T00:00:00	2024-11-06T16:00:00	5	Humedad	88
151805	7	Sololá	701	Sololá	2	El tablón	5	Mayo	2023-02-05T00:00:00	2024-11-06T16:00:00	6	Velocidad del viento	3.2
151806	7	Sololá	701	Sololá	2	El tablón	5	Mayo	2023-02-05T00:00:00	2024-11-06T16:00:00	7	Dirección del viento	3.22
151807	7	Sololá	701	Sololá	2	El tablón	5	Mayo	2023-02-05T00:00:00	2024-11-06T16:00:00	1	Precipitación	0
151808	7	Sololá	701	Sololá	2	El tablón	5	Mayo	2023-02-05T00:00:00	2024-11-06T16:00:00	8	Radiación solar	44
151809	7	Sololá	701	Sololá	2	El tablón	5	Mayo	2023-02-05T00:00:00	2024-11-06T17:00:00	2	Temperatura media	13.7
151810	7	Sololá	701	Sololá	2	El tablón	5	Mayo	2023-02-05T00:00:00	2024-11-06T17:00:00	4	Temperatura máxima	15.7
151811	7	Sololá	701	Sololá	2	El tablón	5	Mayo	2023-02-05T00:00:00	2024-11-06T17:00:00	3	Temperatura mínima	13.7
151812	7	Sololá	701	Sololá	2	El tablón	5	Mayo	2023-02-05T00:00:00	2024-11-06T17:00:00	5	Humedad	89
151813	7	Sololá	701	Sololá	2	El tablón	5	Mayo	2023-02-05T00:00:00	2024-11-06T17:00:00	6	Velocidad del viento	6.4
151814	7	Sololá	701	Sololá	2	El tablón	5	Mayo	2023-02-05T00:00:00	2024-11-06T17:00:00	7	Dirección del viento	6.44
151815	7	Sololá	701	Sololá	2	El tablón	5	Mayo	2023-02-05T00:00:00	2024-11-06T17:00:00	1	Precipitación	1
151816	7	Sololá	701	Sololá	2	El tablón	5	Mayo	2023-02-05T00:00:00	2024-11-06T17:00:00	8	Radiación solar	0
151817	7	Sololá	701	Sololá	2	El tablón	5	Mayo	2023-02-05T00:00:00	2024-11-06T18:00:00	2	Temperatura media	13.2
151818	7	Sololá	701	Sololá	2	El tablón	5	Mayo	2023-02-05T00:00:00	2024-11-06T18:00:00	4	Temperatura máxima	13.7
151819	7	Sololá	701	Sololá	2	El tablón	5	Mayo	2023-02-05T00:00:00	2024-11-06T18:00:00	3	Temperatura mínima	13.2
151820	7	Sololá	701	Sololá	2	El tablón	5	Mayo	2023-02-05T00:00:00	2024-11-06T18:00:00	5	Humedad	89
151821	7	Sololá	701	Sololá	2	El tablón	5	Mayo	2023-02-05T00:00:00	2024-11-06T18:00:00	6	Velocidad del viento	3.2
151822	7	Sololá	701	Sololá	2	El tablón	5	Mayo	2023-02-05T00:00:00	2024-11-06T18:00:00	7	Dirección del viento	3.22
151823	7	Sololá	701	Sololá	2	El tablón	5	Mayo	2023-02-05T00:00:00	2024-11-06T18:00:00	1	Precipitación	2.8
151824	7	Sololá	701	Sololá	2	El tablón	5	Mayo	2023-02-05T00:00:00	2024-11-06T18:00:00	8	Radiación solar	0
151825	7	Sololá	701	Sololá	2	El tablón	5	Mayo	2023-02-05T00:00:00	2024-11-06T19:00:00	2	Temperatura media	13.8
151826	7	Sololá	701	Sololá	2	El tablón	5	Mayo	2023-02-05T00:00:00	2024-11-06T19:00:00	4	Temperatura máxima	13.8
151827	7	Sololá	701	Sololá	2	El tablón	5	Mayo	2023-02-05T00:00:00	2024-11-06T19:00:00	3	Temperatura mínima	13.2
151828	7	Sololá	701	Sololá	2	El tablón	5	Mayo	2023-02-05T00:00:00	2024-11-06T19:00:00	5	Humedad	84
151829	7	Sololá	701	Sololá	2	El tablón	5	Mayo	2023-02-05T00:00:00	2024-11-06T19:00:00	6	Velocidad del viento	9.7
151830	7	Sololá	701	Sololá	2	El tablón	5	Mayo	2023-02-05T00:00:00	2024-11-06T19:00:00	7	Dirección del viento	9.66
151831	7	Sololá	701	Sololá	2	El tablón	5	Mayo	2023-02-05T00:00:00	2024-11-06T19:00:00	1	Precipitación	3.4
151832	7	Sololá	701	Sololá	2	El tablón	5	Mayo	2023-02-05T00:00:00	2024-11-06T19:00:00	8	Radiación solar	0
151833	7	Sololá	701	Sololá	2	El tablón	5	Mayo	2023-02-05T00:00:00	2024-11-06T20:00:00	2	Temperatura media	13.9
151834	7	Sololá	701	Sololá	2	El tablón	5	Mayo	2023-02-05T00:00:00	2024-11-06T20:00:00	4	Temperatura máxima	13.9
151835	7	Sololá	701	Sololá	2	El tablón	5	Mayo	2023-02-05T00:00:00	2024-11-06T20:00:00	3	Temperatura mínima	13.4
151836	7	Sololá	701	Sololá	2	El tablón	5	Mayo	2023-02-05T00:00:00	2024-11-06T20:00:00	5	Humedad	74
151837	7	Sololá	701	Sololá	2	El tablón	5	Mayo	2023-02-05T00:00:00	2024-11-06T20:00:00	6	Velocidad del viento	9.7
151838	7	Sololá	701	Sololá	2	El tablón	5	Mayo	2023-02-05T00:00:00	2024-11-06T20:00:00	7	Dirección del viento	9.66
151839	7	Sololá	701	Sololá	2	El tablón	5	Mayo	2023-02-05T00:00:00	2024-11-06T20:00:00	1	Precipitación	0.2
151840	7	Sololá	701	Sololá	2	El tablón	5	Mayo	2023-02-05T00:00:00	2024-11-06T20:00:00	8	Radiación solar	0
151841	7	Sololá	701	Sololá	2	El tablón	5	Mayo	2023-02-05T00:00:00	2024-11-06T21:00:00	2	Temperatura media	14.7
151842	7	Sololá	701	Sololá	2	El tablón	5	Mayo	2023-02-05T00:00:00	2024-11-06T21:00:00	4	Temperatura máxima	14.7
151843	7	Sololá	701	Sololá	2	El tablón	5	Mayo	2023-02-05T00:00:00	2024-11-06T21:00:00	3	Temperatura mínima	13.9
151844	7	Sololá	701	Sololá	2	El tablón	5	Mayo	2023-02-05T00:00:00	2024-11-06T21:00:00	5	Humedad	63
151845	7	Sololá	701	Sololá	2	El tablón	5	Mayo	2023-02-05T00:00:00	2024-11-06T21:00:00	6	Velocidad del viento	6.4
151846	7	Sololá	701	Sololá	2	El tablón	5	Mayo	2023-02-05T00:00:00	2024-11-06T21:00:00	7	Dirección del viento	6.44
151847	7	Sololá	701	Sololá	2	El tablón	5	Mayo	2023-02-05T00:00:00	2024-11-06T21:00:00	1	Precipitación	0
151848	7	Sololá	701	Sololá	2	El tablón	5	Mayo	2023-02-05T00:00:00	2024-11-06T21:00:00	8	Radiación solar	0
151849	7	Sololá	701	Sololá	2	El tablón	5	Mayo	2023-02-05T00:00:00	2024-11-06T22:00:00	2	Temperatura media	15.5
151850	7	Sololá	701	Sololá	2	El tablón	5	Mayo	2023-02-05T00:00:00	2024-11-06T22:00:00	4	Temperatura máxima	15.5
151851	7	Sololá	701	Sololá	2	El tablón	5	Mayo	2023-02-05T00:00:00	2024-11-06T22:00:00	3	Temperatura mínima	14.7
151852	7	Sololá	701	Sololá	2	El tablón	5	Mayo	2023-02-05T00:00:00	2024-11-06T22:00:00	5	Humedad	55
151853	7	Sololá	701	Sololá	2	El tablón	5	Mayo	2023-02-05T00:00:00	2024-11-06T22:00:00	6	Velocidad del viento	4.8
151854	7	Sololá	701	Sololá	2	El tablón	5	Mayo	2023-02-05T00:00:00	2024-11-06T22:00:00	7	Dirección del viento	4.83
151855	7	Sololá	701	Sololá	2	El tablón	5	Mayo	2023-02-05T00:00:00	2024-11-06T22:00:00	1	Precipitación	0
151856	7	Sololá	701	Sololá	2	El tablón	5	Mayo	2023-02-05T00:00:00	2024-11-06T22:00:00	8	Radiación solar	0
151857	7	Sololá	701	Sololá	2	El tablón	5	Mayo	2023-02-05T00:00:00	2024-11-06T23:00:00	2	Temperatura media	15.9
151858	7	Sololá	701	Sololá	2	El tablón	5	Mayo	2023-02-05T00:00:00	2024-11-06T23:00:00	4	Temperatura máxima	16.1
151859	7	Sololá	701	Sololá	2	El tablón	5	Mayo	2023-02-05T00:00:00	2024-11-06T23:00:00	3	Temperatura mínima	15.5
151860	7	Sololá	701	Sololá	2	El tablón	5	Mayo	2023-02-05T00:00:00	2024-11-06T23:00:00	5	Humedad	54
151861	7	Sololá	701	Sololá	2	El tablón	5	Mayo	2023-02-05T00:00:00	2024-11-06T23:00:00	6	Velocidad del viento	3.2
151862	7	Sololá	701	Sololá	2	El tablón	5	Mayo	2023-02-05T00:00:00	2024-11-06T23:00:00	7	Dirección del viento	3.22
151863	7	Sololá	701	Sololá	2	El tablón	5	Mayo	2023-02-05T00:00:00	2024-11-06T23:00:00	1	Precipitación	0
151864	7	Sololá	701	Sololá	2	El tablón	5	Mayo	2023-02-05T00:00:00	2024-11-06T23:00:00	8	Radiación solar	0
151865	7	Sololá	701	Sololá	2	El tablón	5	Mayo	2023-03-05T00:00:00	2024-11-06T00:00:00	2	Temperatura media	14.7
151866	7	Sololá	701	Sololá	2	El tablón	5	Mayo	2023-03-05T00:00:00	2024-11-06T00:00:00	4	Temperatura máxima	15.9
151867	7	Sololá	701	Sololá	2	El tablón	5	Mayo	2023-03-05T00:00:00	2024-11-06T00:00:00	3	Temperatura mínima	14.7
151868	7	Sololá	701	Sololá	2	El tablón	5	Mayo	2023-03-05T00:00:00	2024-11-06T00:00:00	5	Humedad	66
151869	7	Sololá	701	Sololá	2	El tablón	5	Mayo	2023-03-05T00:00:00	2024-11-06T00:00:00	6	Velocidad del viento	9.7
151870	7	Sololá	701	Sololá	2	El tablón	5	Mayo	2023-03-05T00:00:00	2024-11-06T00:00:00	7	Dirección del viento	9.66
151871	7	Sololá	701	Sololá	2	El tablón	5	Mayo	2023-03-05T00:00:00	2024-11-06T00:00:00	1	Precipitación	0
151872	7	Sololá	701	Sololá	2	El tablón	5	Mayo	2023-03-05T00:00:00	2024-11-06T00:00:00	8	Radiación solar	0
151873	7	Sololá	701	Sololá	2	El tablón	5	Mayo	2023-03-05T00:00:00	2024-11-06T01:00:00	2	Temperatura media	15.2
151874	7	Sololá	701	Sololá	2	El tablón	5	Mayo	2023-03-05T00:00:00	2024-11-06T01:00:00	4	Temperatura máxima	15.2
151875	7	Sololá	701	Sololá	2	El tablón	5	Mayo	2023-03-05T00:00:00	2024-11-06T01:00:00	3	Temperatura mínima	14.7
151876	7	Sololá	701	Sololá	2	El tablón	5	Mayo	2023-03-05T00:00:00	2024-11-06T01:00:00	5	Humedad	72
151877	7	Sololá	701	Sololá	2	El tablón	5	Mayo	2023-03-05T00:00:00	2024-11-06T01:00:00	6	Velocidad del viento	12.9
151878	7	Sololá	701	Sololá	2	El tablón	5	Mayo	2023-03-05T00:00:00	2024-11-06T01:00:00	7	Dirección del viento	12.87
151879	7	Sololá	701	Sololá	2	El tablón	5	Mayo	2023-03-05T00:00:00	2024-11-06T01:00:00	1	Precipitación	0
151880	7	Sololá	701	Sololá	2	El tablón	5	Mayo	2023-03-05T00:00:00	2024-11-06T01:00:00	8	Radiación solar	0
151881	7	Sololá	701	Sololá	2	El tablón	5	Mayo	2023-03-05T00:00:00	2024-11-06T02:00:00	2	Temperatura media	16
151882	7	Sololá	701	Sololá	2	El tablón	5	Mayo	2023-03-05T00:00:00	2024-11-06T02:00:00	4	Temperatura máxima	16
151883	7	Sololá	701	Sololá	2	El tablón	5	Mayo	2023-03-05T00:00:00	2024-11-06T02:00:00	3	Temperatura mínima	15.2
151884	7	Sololá	701	Sololá	2	El tablón	5	Mayo	2023-03-05T00:00:00	2024-11-06T02:00:00	5	Humedad	61
151885	7	Sololá	701	Sololá	2	El tablón	5	Mayo	2023-03-05T00:00:00	2024-11-06T02:00:00	6	Velocidad del viento	12.9
151886	7	Sololá	701	Sololá	2	El tablón	5	Mayo	2023-03-05T00:00:00	2024-11-06T02:00:00	7	Dirección del viento	12.87
151887	7	Sololá	701	Sololá	2	El tablón	5	Mayo	2023-03-05T00:00:00	2024-11-06T02:00:00	1	Precipitación	0
151888	7	Sololá	701	Sololá	2	El tablón	5	Mayo	2023-03-05T00:00:00	2024-11-06T02:00:00	8	Radiación solar	0
151889	7	Sololá	701	Sololá	2	El tablón	5	Mayo	2023-03-05T00:00:00	2024-11-06T03:00:00	2	Temperatura media	15.3
151890	7	Sololá	701	Sololá	2	El tablón	5	Mayo	2023-03-05T00:00:00	2024-11-06T03:00:00	4	Temperatura máxima	16.3
151891	7	Sololá	701	Sololá	2	El tablón	5	Mayo	2023-03-05T00:00:00	2024-11-06T03:00:00	3	Temperatura mínima	15.3
151892	7	Sololá	701	Sololá	2	El tablón	5	Mayo	2023-03-05T00:00:00	2024-11-06T03:00:00	5	Humedad	66
151893	7	Sololá	701	Sololá	2	El tablón	5	Mayo	2023-03-05T00:00:00	2024-11-06T03:00:00	6	Velocidad del viento	3.2
151894	7	Sololá	701	Sololá	2	El tablón	5	Mayo	2023-03-05T00:00:00	2024-11-06T03:00:00	7	Dirección del viento	3.22
151895	7	Sololá	701	Sololá	2	El tablón	5	Mayo	2023-03-05T00:00:00	2024-11-06T03:00:00	1	Precipitación	0
151896	7	Sololá	701	Sololá	2	El tablón	5	Mayo	2023-03-05T00:00:00	2024-11-06T03:00:00	8	Radiación solar	0
151897	7	Sololá	701	Sololá	2	El tablón	5	Mayo	2023-03-05T00:00:00	2024-11-06T04:00:00	2	Temperatura media	13.5
151898	7	Sololá	701	Sololá	2	El tablón	5	Mayo	2023-03-05T00:00:00	2024-11-06T04:00:00	4	Temperatura máxima	15.3
151899	7	Sololá	701	Sololá	2	El tablón	5	Mayo	2023-03-05T00:00:00	2024-11-06T04:00:00	3	Temperatura mínima	13.5
151900	7	Sololá	701	Sololá	2	El tablón	5	Mayo	2023-03-05T00:00:00	2024-11-06T04:00:00	5	Humedad	79
151901	7	Sololá	701	Sololá	2	El tablón	5	Mayo	2023-03-05T00:00:00	2024-11-06T04:00:00	6	Velocidad del viento	1.6
151902	7	Sololá	701	Sololá	2	El tablón	5	Mayo	2023-03-05T00:00:00	2024-11-06T04:00:00	7	Dirección del viento	1.61
151903	7	Sololá	701	Sololá	2	El tablón	5	Mayo	2023-03-05T00:00:00	2024-11-06T04:00:00	1	Precipitación	0
151904	7	Sololá	701	Sololá	2	El tablón	5	Mayo	2023-03-05T00:00:00	2024-11-06T04:00:00	8	Radiación solar	0
151905	7	Sololá	701	Sololá	2	El tablón	5	Mayo	2023-03-05T00:00:00	2024-11-06T05:00:00	2	Temperatura media	11.7
151906	7	Sololá	701	Sololá	2	El tablón	5	Mayo	2023-03-05T00:00:00	2024-11-06T05:00:00	4	Temperatura máxima	13.5
151907	7	Sololá	701	Sololá	2	El tablón	5	Mayo	2023-03-05T00:00:00	2024-11-06T05:00:00	3	Temperatura mínima	11.7
151908	7	Sololá	701	Sololá	2	El tablón	5	Mayo	2023-03-05T00:00:00	2024-11-06T05:00:00	5	Humedad	75
151909	7	Sololá	701	Sololá	2	El tablón	5	Mayo	2023-03-05T00:00:00	2024-11-06T05:00:00	6	Velocidad del viento	1.6
151910	7	Sololá	701	Sololá	2	El tablón	5	Mayo	2023-03-05T00:00:00	2024-11-06T05:00:00	7	Dirección del viento	1.61
151911	7	Sololá	701	Sololá	2	El tablón	5	Mayo	2023-03-05T00:00:00	2024-11-06T05:00:00	1	Precipitación	0
151912	7	Sololá	701	Sololá	2	El tablón	5	Mayo	2023-03-05T00:00:00	2024-11-06T05:00:00	8	Radiación solar	0
151913	7	Sololá	701	Sololá	2	El tablón	5	Mayo	2023-03-05T00:00:00	2024-11-06T06:00:00	2	Temperatura media	12.5
151914	7	Sololá	701	Sololá	2	El tablón	5	Mayo	2023-03-05T00:00:00	2024-11-06T06:00:00	4	Temperatura máxima	12.6
151915	7	Sololá	701	Sololá	2	El tablón	5	Mayo	2023-03-05T00:00:00	2024-11-06T06:00:00	3	Temperatura mínima	11.6
151916	7	Sololá	701	Sololá	2	El tablón	5	Mayo	2023-03-05T00:00:00	2024-11-06T06:00:00	5	Humedad	70
151917	7	Sololá	701	Sololá	2	El tablón	5	Mayo	2023-03-05T00:00:00	2024-11-06T06:00:00	6	Velocidad del viento	4.8
151918	7	Sololá	701	Sololá	2	El tablón	5	Mayo	2023-03-05T00:00:00	2024-11-06T06:00:00	7	Dirección del viento	4.83
151919	7	Sololá	701	Sololá	2	El tablón	5	Mayo	2023-03-05T00:00:00	2024-11-06T06:00:00	1	Precipitación	0
151920	7	Sololá	701	Sololá	2	El tablón	5	Mayo	2023-03-05T00:00:00	2024-11-06T06:00:00	8	Radiación solar	2
151921	7	Sololá	701	Sololá	2	El tablón	5	Mayo	2023-03-05T00:00:00	2024-11-06T07:00:00	2	Temperatura media	13.2
151922	7	Sololá	701	Sololá	2	El tablón	5	Mayo	2023-03-05T00:00:00	2024-11-06T07:00:00	4	Temperatura máxima	13.2
151923	7	Sololá	701	Sololá	2	El tablón	5	Mayo	2023-03-05T00:00:00	2024-11-06T07:00:00	3	Temperatura mínima	11.8
151924	7	Sololá	701	Sololá	2	El tablón	5	Mayo	2023-03-05T00:00:00	2024-11-06T07:00:00	5	Humedad	69
151925	7	Sololá	701	Sololá	2	El tablón	5	Mayo	2023-03-05T00:00:00	2024-11-06T07:00:00	6	Velocidad del viento	1.6
151926	7	Sololá	701	Sololá	2	El tablón	5	Mayo	2023-03-05T00:00:00	2024-11-06T07:00:00	7	Dirección del viento	1.61
151927	7	Sololá	701	Sololá	2	El tablón	5	Mayo	2023-03-05T00:00:00	2024-11-06T07:00:00	1	Precipitación	0
151928	7	Sololá	701	Sololá	2	El tablón	5	Mayo	2023-03-05T00:00:00	2024-11-06T07:00:00	8	Radiación solar	76
151929	7	Sololá	701	Sololá	2	El tablón	5	Mayo	2023-03-05T00:00:00	2024-11-06T08:00:00	2	Temperatura media	17.5
151930	7	Sololá	701	Sololá	2	El tablón	5	Mayo	2023-03-05T00:00:00	2024-11-06T08:00:00	4	Temperatura máxima	17.5
151931	7	Sololá	701	Sololá	2	El tablón	5	Mayo	2023-03-05T00:00:00	2024-11-06T08:00:00	3	Temperatura mínima	13.2
151932	7	Sololá	701	Sololá	2	El tablón	5	Mayo	2023-03-05T00:00:00	2024-11-06T08:00:00	5	Humedad	61
151933	7	Sololá	701	Sololá	2	El tablón	5	Mayo	2023-03-05T00:00:00	2024-11-06T08:00:00	6	Velocidad del viento	1.6
151934	7	Sololá	701	Sololá	2	El tablón	5	Mayo	2023-03-05T00:00:00	2024-11-06T08:00:00	7	Dirección del viento	1.61
151935	7	Sololá	701	Sololá	2	El tablón	5	Mayo	2023-03-05T00:00:00	2024-11-06T08:00:00	1	Precipitación	0
151936	7	Sololá	701	Sololá	2	El tablón	5	Mayo	2023-03-05T00:00:00	2024-11-06T08:00:00	8	Radiación solar	325
151937	7	Sololá	701	Sololá	2	El tablón	5	Mayo	2023-03-05T00:00:00	2024-11-06T09:00:00	2	Temperatura media	18.6
151938	7	Sololá	701	Sololá	2	El tablón	5	Mayo	2023-03-05T00:00:00	2024-11-06T09:00:00	4	Temperatura máxima	18.6
151939	7	Sololá	701	Sololá	2	El tablón	5	Mayo	2023-03-05T00:00:00	2024-11-06T09:00:00	3	Temperatura mínima	17.6
151940	7	Sololá	701	Sololá	2	El tablón	5	Mayo	2023-03-05T00:00:00	2024-11-06T09:00:00	5	Humedad	66
151941	7	Sololá	701	Sololá	2	El tablón	5	Mayo	2023-03-05T00:00:00	2024-11-06T09:00:00	6	Velocidad del viento	4.8
151942	7	Sololá	701	Sololá	2	El tablón	5	Mayo	2023-03-05T00:00:00	2024-11-06T09:00:00	7	Dirección del viento	4.83
151943	7	Sololá	701	Sololá	2	El tablón	5	Mayo	2023-03-05T00:00:00	2024-11-06T09:00:00	1	Precipitación	0
151944	7	Sololá	701	Sololá	2	El tablón	5	Mayo	2023-03-05T00:00:00	2024-11-06T09:00:00	8	Radiación solar	542
151945	7	Sololá	701	Sololá	2	El tablón	5	Mayo	2023-03-05T00:00:00	2024-11-06T10:00:00	2	Temperatura media	19.9
151946	7	Sololá	701	Sololá	2	El tablón	5	Mayo	2023-03-05T00:00:00	2024-11-06T10:00:00	4	Temperatura máxima	19.9
151947	7	Sololá	701	Sololá	2	El tablón	5	Mayo	2023-03-05T00:00:00	2024-11-06T10:00:00	3	Temperatura mínima	18.4
151948	7	Sololá	701	Sololá	2	El tablón	5	Mayo	2023-03-05T00:00:00	2024-11-06T10:00:00	5	Humedad	56
151949	7	Sololá	701	Sololá	2	El tablón	5	Mayo	2023-03-05T00:00:00	2024-11-06T10:00:00	6	Velocidad del viento	8
151950	7	Sololá	701	Sololá	2	El tablón	5	Mayo	2023-03-05T00:00:00	2024-11-06T10:00:00	7	Dirección del viento	8.05
151951	7	Sololá	701	Sololá	2	El tablón	5	Mayo	2023-03-05T00:00:00	2024-11-06T10:00:00	1	Precipitación	0
151952	7	Sololá	701	Sololá	2	El tablón	5	Mayo	2023-03-05T00:00:00	2024-11-06T10:00:00	8	Radiación solar	721
151953	7	Sololá	701	Sololá	2	El tablón	5	Mayo	2023-03-05T00:00:00	2024-11-06T11:00:00	2	Temperatura media	21.1
151954	7	Sololá	701	Sololá	2	El tablón	5	Mayo	2023-03-05T00:00:00	2024-11-06T11:00:00	4	Temperatura máxima	21.4
151955	7	Sololá	701	Sololá	2	El tablón	5	Mayo	2023-03-05T00:00:00	2024-11-06T11:00:00	3	Temperatura mínima	19.9
151956	7	Sololá	701	Sololá	2	El tablón	5	Mayo	2023-03-05T00:00:00	2024-11-06T11:00:00	5	Humedad	54
151957	7	Sololá	701	Sololá	2	El tablón	5	Mayo	2023-03-05T00:00:00	2024-11-06T11:00:00	6	Velocidad del viento	8
151958	7	Sololá	701	Sololá	2	El tablón	5	Mayo	2023-03-05T00:00:00	2024-11-06T11:00:00	7	Dirección del viento	8.05
151959	7	Sololá	701	Sololá	2	El tablón	5	Mayo	2023-03-05T00:00:00	2024-11-06T11:00:00	1	Precipitación	0
151960	7	Sololá	701	Sololá	2	El tablón	5	Mayo	2023-03-05T00:00:00	2024-11-06T11:00:00	8	Radiación solar	852
151961	7	Sololá	701	Sololá	2	El tablón	5	Mayo	2023-03-05T00:00:00	2024-11-06T12:00:00	2	Temperatura media	20.6
151962	7	Sololá	701	Sololá	2	El tablón	5	Mayo	2023-03-05T00:00:00	2024-11-06T12:00:00	4	Temperatura máxima	21.8
151963	7	Sololá	701	Sololá	2	El tablón	5	Mayo	2023-03-05T00:00:00	2024-11-06T12:00:00	3	Temperatura mínima	20.6
151964	7	Sololá	701	Sololá	2	El tablón	5	Mayo	2023-03-05T00:00:00	2024-11-06T12:00:00	5	Humedad	73
151965	7	Sololá	701	Sololá	2	El tablón	5	Mayo	2023-03-05T00:00:00	2024-11-06T12:00:00	6	Velocidad del viento	9.7
151966	7	Sololá	701	Sololá	2	El tablón	5	Mayo	2023-03-05T00:00:00	2024-11-06T12:00:00	7	Dirección del viento	9.66
151967	7	Sololá	701	Sololá	2	El tablón	5	Mayo	2023-03-05T00:00:00	2024-11-06T12:00:00	1	Precipitación	0
151968	7	Sololá	701	Sololá	2	El tablón	5	Mayo	2023-03-05T00:00:00	2024-11-06T12:00:00	8	Radiación solar	939
151969	7	Sololá	701	Sololá	2	El tablón	5	Mayo	2023-03-05T00:00:00	2024-11-06T13:00:00	2	Temperatura media	18.5
151970	7	Sololá	701	Sololá	2	El tablón	5	Mayo	2023-03-05T00:00:00	2024-11-06T13:00:00	4	Temperatura máxima	20.6
151971	7	Sololá	701	Sololá	2	El tablón	5	Mayo	2023-03-05T00:00:00	2024-11-06T13:00:00	3	Temperatura mínima	18.5
151972	7	Sololá	701	Sololá	2	El tablón	5	Mayo	2023-03-05T00:00:00	2024-11-06T13:00:00	5	Humedad	85
151973	7	Sololá	701	Sololá	2	El tablón	5	Mayo	2023-03-05T00:00:00	2024-11-06T13:00:00	6	Velocidad del viento	6.4
151974	7	Sololá	701	Sololá	2	El tablón	5	Mayo	2023-03-05T00:00:00	2024-11-06T13:00:00	7	Dirección del viento	6.44
151975	7	Sololá	701	Sololá	2	El tablón	5	Mayo	2023-03-05T00:00:00	2024-11-06T13:00:00	1	Precipitación	0
151976	7	Sololá	701	Sololá	2	El tablón	5	Mayo	2023-03-05T00:00:00	2024-11-06T13:00:00	8	Radiación solar	771
151977	7	Sololá	701	Sololá	2	El tablón	5	Mayo	2023-03-05T00:00:00	2024-11-06T14:00:00	2	Temperatura media	18.6
151978	7	Sololá	701	Sololá	2	El tablón	5	Mayo	2023-03-05T00:00:00	2024-11-06T14:00:00	4	Temperatura máxima	18.9
151979	7	Sololá	701	Sololá	2	El tablón	5	Mayo	2023-03-05T00:00:00	2024-11-06T14:00:00	3	Temperatura mínima	18.2
151980	7	Sololá	701	Sololá	2	El tablón	5	Mayo	2023-03-05T00:00:00	2024-11-06T14:00:00	5	Humedad	86
151981	7	Sololá	701	Sololá	2	El tablón	5	Mayo	2023-03-05T00:00:00	2024-11-06T14:00:00	6	Velocidad del viento	6.4
151982	7	Sololá	701	Sololá	2	El tablón	5	Mayo	2023-03-05T00:00:00	2024-11-06T14:00:00	7	Dirección del viento	6.44
151983	7	Sololá	701	Sololá	2	El tablón	5	Mayo	2023-03-05T00:00:00	2024-11-06T14:00:00	1	Precipitación	0
151984	7	Sololá	701	Sololá	2	El tablón	5	Mayo	2023-03-05T00:00:00	2024-11-06T14:00:00	8	Radiación solar	274
151985	7	Sololá	701	Sololá	2	El tablón	5	Mayo	2023-03-05T00:00:00	2024-11-06T15:00:00	2	Temperatura media	18.1
151986	7	Sololá	701	Sololá	2	El tablón	5	Mayo	2023-03-05T00:00:00	2024-11-06T15:00:00	4	Temperatura máxima	19.5
151987	7	Sololá	701	Sololá	2	El tablón	5	Mayo	2023-03-05T00:00:00	2024-11-06T15:00:00	3	Temperatura mínima	18
151988	7	Sololá	701	Sololá	2	El tablón	5	Mayo	2023-03-05T00:00:00	2024-11-06T15:00:00	5	Humedad	86
151989	7	Sololá	701	Sololá	2	El tablón	5	Mayo	2023-03-05T00:00:00	2024-11-06T15:00:00	6	Velocidad del viento	9.7
151990	7	Sololá	701	Sololá	2	El tablón	5	Mayo	2023-03-05T00:00:00	2024-11-06T15:00:00	7	Dirección del viento	9.66
151991	7	Sololá	701	Sololá	2	El tablón	5	Mayo	2023-03-05T00:00:00	2024-11-06T15:00:00	1	Precipitación	0
151992	7	Sololá	701	Sololá	2	El tablón	5	Mayo	2023-03-05T00:00:00	2024-11-06T15:00:00	8	Radiación solar	487
151993	7	Sololá	701	Sololá	2	El tablón	5	Mayo	2023-03-05T00:00:00	2024-11-06T16:00:00	2	Temperatura media	17.8
151994	7	Sololá	701	Sololá	2	El tablón	5	Mayo	2023-03-05T00:00:00	2024-11-06T16:00:00	4	Temperatura máxima	18.2
151995	7	Sololá	701	Sololá	2	El tablón	5	Mayo	2023-03-05T00:00:00	2024-11-06T16:00:00	3	Temperatura mínima	17.4
151996	7	Sololá	701	Sololá	2	El tablón	5	Mayo	2023-03-05T00:00:00	2024-11-06T16:00:00	5	Humedad	86
151997	7	Sololá	701	Sololá	2	El tablón	5	Mayo	2023-03-05T00:00:00	2024-11-06T16:00:00	6	Velocidad del viento	4.8
151998	7	Sololá	701	Sololá	2	El tablón	5	Mayo	2023-03-05T00:00:00	2024-11-06T16:00:00	7	Dirección del viento	4.83
151999	7	Sololá	701	Sololá	2	El tablón	5	Mayo	2023-03-05T00:00:00	2024-11-06T16:00:00	1	Precipitación	0
152000	7	Sololá	701	Sololá	2	El tablón	5	Mayo	2023-03-05T00:00:00	2024-11-06T16:00:00	8	Radiación solar	190
152001	7	Sololá	701	Sololá	2	El tablón	5	Mayo	2023-03-05T00:00:00	2024-11-06T17:00:00	2	Temperatura media	18.8
152002	7	Sololá	701	Sololá	2	El tablón	5	Mayo	2023-03-05T00:00:00	2024-11-06T17:00:00	4	Temperatura máxima	19.7
152003	7	Sololá	701	Sololá	2	El tablón	5	Mayo	2023-03-05T00:00:00	2024-11-06T17:00:00	3	Temperatura mínima	17.8
152004	7	Sololá	701	Sololá	2	El tablón	5	Mayo	2023-03-05T00:00:00	2024-11-06T17:00:00	5	Humedad	70
152005	7	Sololá	701	Sololá	2	El tablón	5	Mayo	2023-03-05T00:00:00	2024-11-06T17:00:00	6	Velocidad del viento	6.4
152006	7	Sololá	701	Sololá	2	El tablón	5	Mayo	2023-03-05T00:00:00	2024-11-06T17:00:00	7	Dirección del viento	6.44
152007	7	Sololá	701	Sololá	2	El tablón	5	Mayo	2023-03-05T00:00:00	2024-11-06T17:00:00	1	Precipitación	0
152008	7	Sololá	701	Sololá	2	El tablón	5	Mayo	2023-03-05T00:00:00	2024-11-06T17:00:00	8	Radiación solar	165
152009	7	Sololá	701	Sololá	2	El tablón	5	Mayo	2023-03-05T00:00:00	2024-11-06T18:00:00	2	Temperatura media	17.9
152010	7	Sololá	701	Sololá	2	El tablón	5	Mayo	2023-03-05T00:00:00	2024-11-06T18:00:00	4	Temperatura máxima	18.8
152011	7	Sololá	701	Sololá	2	El tablón	5	Mayo	2023-03-05T00:00:00	2024-11-06T18:00:00	3	Temperatura mínima	17.9
152012	7	Sololá	701	Sololá	2	El tablón	5	Mayo	2023-03-05T00:00:00	2024-11-06T18:00:00	5	Humedad	69
152013	7	Sololá	701	Sololá	2	El tablón	5	Mayo	2023-03-05T00:00:00	2024-11-06T18:00:00	6	Velocidad del viento	9.7
152014	7	Sololá	701	Sololá	2	El tablón	5	Mayo	2023-03-05T00:00:00	2024-11-06T18:00:00	7	Dirección del viento	9.66
152015	7	Sololá	701	Sololá	2	El tablón	5	Mayo	2023-03-05T00:00:00	2024-11-06T18:00:00	1	Precipitación	0
152016	7	Sololá	701	Sololá	2	El tablón	5	Mayo	2023-03-05T00:00:00	2024-11-06T18:00:00	8	Radiación solar	134
152017	7	Sololá	701	Sololá	2	El tablón	5	Mayo	2023-03-05T00:00:00	2024-11-06T19:00:00	2	Temperatura media	16.4
152018	7	Sololá	701	Sololá	2	El tablón	5	Mayo	2023-03-05T00:00:00	2024-11-06T19:00:00	4	Temperatura máxima	17.9
152019	7	Sololá	701	Sololá	2	El tablón	5	Mayo	2023-03-05T00:00:00	2024-11-06T19:00:00	3	Temperatura mínima	16.4
152020	7	Sololá	701	Sololá	2	El tablón	5	Mayo	2023-03-05T00:00:00	2024-11-06T19:00:00	5	Humedad	77
152021	7	Sololá	701	Sololá	2	El tablón	5	Mayo	2023-03-05T00:00:00	2024-11-06T19:00:00	6	Velocidad del viento	6.4
152022	7	Sololá	701	Sololá	2	El tablón	5	Mayo	2023-03-05T00:00:00	2024-11-06T19:00:00	7	Dirección del viento	6.44
152023	7	Sololá	701	Sololá	2	El tablón	5	Mayo	2023-03-05T00:00:00	2024-11-06T19:00:00	1	Precipitación	0
152024	7	Sololá	701	Sololá	2	El tablón	5	Mayo	2023-03-05T00:00:00	2024-11-06T19:00:00	8	Radiación solar	0
152025	7	Sololá	701	Sololá	2	El tablón	5	Mayo	2023-03-05T00:00:00	2024-11-06T20:00:00	2	Temperatura media	15.8
152026	7	Sololá	701	Sololá	2	El tablón	5	Mayo	2023-03-05T00:00:00	2024-11-06T20:00:00	4	Temperatura máxima	16.4
152027	7	Sololá	701	Sololá	2	El tablón	5	Mayo	2023-03-05T00:00:00	2024-11-06T20:00:00	3	Temperatura mínima	15.8
152028	7	Sololá	701	Sololá	2	El tablón	5	Mayo	2023-03-05T00:00:00	2024-11-06T20:00:00	5	Humedad	82
152029	7	Sololá	701	Sololá	2	El tablón	5	Mayo	2023-03-05T00:00:00	2024-11-06T20:00:00	6	Velocidad del viento	6.4
152030	7	Sololá	701	Sololá	2	El tablón	5	Mayo	2023-03-05T00:00:00	2024-11-06T20:00:00	7	Dirección del viento	6.44
152031	7	Sololá	701	Sololá	2	El tablón	5	Mayo	2023-03-05T00:00:00	2024-11-06T20:00:00	1	Precipitación	0
152032	7	Sololá	701	Sololá	2	El tablón	5	Mayo	2023-03-05T00:00:00	2024-11-06T20:00:00	8	Radiación solar	0
152033	7	Sololá	701	Sololá	2	El tablón	5	Mayo	2023-03-05T00:00:00	2024-11-06T21:00:00	2	Temperatura media	15.1
152034	7	Sololá	701	Sololá	2	El tablón	5	Mayo	2023-03-05T00:00:00	2024-11-06T21:00:00	4	Temperatura máxima	15.8
152035	7	Sololá	701	Sololá	2	El tablón	5	Mayo	2023-03-05T00:00:00	2024-11-06T21:00:00	3	Temperatura mínima	15.1
152036	7	Sololá	701	Sololá	2	El tablón	5	Mayo	2023-03-05T00:00:00	2024-11-06T21:00:00	5	Humedad	86
152037	7	Sololá	701	Sololá	2	El tablón	5	Mayo	2023-03-05T00:00:00	2024-11-06T21:00:00	6	Velocidad del viento	6.4
152038	7	Sololá	701	Sololá	2	El tablón	5	Mayo	2023-03-05T00:00:00	2024-11-06T21:00:00	7	Dirección del viento	6.44
152039	7	Sololá	701	Sololá	2	El tablón	5	Mayo	2023-03-05T00:00:00	2024-11-06T21:00:00	1	Precipitación	0
152040	7	Sololá	701	Sololá	2	El tablón	5	Mayo	2023-03-05T00:00:00	2024-11-06T21:00:00	8	Radiación solar	0
152041	7	Sololá	701	Sololá	2	El tablón	5	Mayo	2023-03-05T00:00:00	2024-11-06T22:00:00	2	Temperatura media	14.7
152042	7	Sololá	701	Sololá	2	El tablón	5	Mayo	2023-03-05T00:00:00	2024-11-06T22:00:00	4	Temperatura máxima	15.1
152043	7	Sololá	701	Sololá	2	El tablón	5	Mayo	2023-03-05T00:00:00	2024-11-06T22:00:00	3	Temperatura mínima	14.7
152044	7	Sololá	701	Sololá	2	El tablón	5	Mayo	2023-03-05T00:00:00	2024-11-06T22:00:00	5	Humedad	85
152045	7	Sololá	701	Sololá	2	El tablón	5	Mayo	2023-03-05T00:00:00	2024-11-06T22:00:00	6	Velocidad del viento	8
152046	7	Sololá	701	Sololá	2	El tablón	5	Mayo	2023-03-05T00:00:00	2024-11-06T22:00:00	7	Dirección del viento	8.05
152047	7	Sololá	701	Sololá	2	El tablón	5	Mayo	2023-03-05T00:00:00	2024-11-06T22:00:00	1	Precipitación	0
152048	7	Sololá	701	Sololá	2	El tablón	5	Mayo	2023-03-05T00:00:00	2024-11-06T22:00:00	8	Radiación solar	0
152049	7	Sololá	701	Sololá	2	El tablón	5	Mayo	2023-03-05T00:00:00	2024-11-06T23:00:00	2	Temperatura media	14.3
152050	7	Sololá	701	Sololá	2	El tablón	5	Mayo	2023-03-05T00:00:00	2024-11-06T23:00:00	4	Temperatura máxima	14.8
152051	7	Sololá	701	Sololá	2	El tablón	5	Mayo	2023-03-05T00:00:00	2024-11-06T23:00:00	3	Temperatura mínima	14.3
152052	7	Sololá	701	Sololá	2	El tablón	5	Mayo	2023-03-05T00:00:00	2024-11-06T23:00:00	5	Humedad	85
152053	7	Sololá	701	Sololá	2	El tablón	5	Mayo	2023-03-05T00:00:00	2024-11-06T23:00:00	6	Velocidad del viento	4.8
152054	7	Sololá	701	Sololá	2	El tablón	5	Mayo	2023-03-05T00:00:00	2024-11-06T23:00:00	7	Dirección del viento	4.83
152055	7	Sololá	701	Sololá	2	El tablón	5	Mayo	2023-03-05T00:00:00	2024-11-06T23:00:00	1	Precipitación	0
152056	7	Sololá	701	Sololá	2	El tablón	5	Mayo	2023-03-05T00:00:00	2024-11-06T23:00:00	8	Radiación solar	0
152057	7	Sololá	701	Sololá	2	El tablón	5	Mayo	2023-04-05T00:00:00	2024-11-06T00:00:00	2	Temperatura media	14.2
152058	7	Sololá	701	Sololá	2	El tablón	5	Mayo	2023-04-05T00:00:00	2024-11-06T00:00:00	4	Temperatura máxima	14.3
152059	7	Sololá	701	Sololá	2	El tablón	5	Mayo	2023-04-05T00:00:00	2024-11-06T00:00:00	3	Temperatura mínima	14.1
152060	7	Sololá	701	Sololá	2	El tablón	5	Mayo	2023-04-05T00:00:00	2024-11-06T00:00:00	5	Humedad	87
152061	7	Sololá	701	Sololá	2	El tablón	5	Mayo	2023-04-05T00:00:00	2024-11-06T00:00:00	6	Velocidad del viento	1.6
152062	7	Sololá	701	Sololá	2	El tablón	5	Mayo	2023-04-05T00:00:00	2024-11-06T00:00:00	7	Dirección del viento	1.61
152063	7	Sololá	701	Sololá	2	El tablón	5	Mayo	2023-04-05T00:00:00	2024-11-06T00:00:00	1	Precipitación	0
152064	7	Sololá	701	Sololá	2	El tablón	5	Mayo	2023-04-05T00:00:00	2024-11-06T00:00:00	8	Radiación solar	0
152065	7	Sololá	701	Sololá	2	El tablón	5	Mayo	2023-04-05T00:00:00	2024-11-06T01:00:00	2	Temperatura media	13.7
152066	7	Sololá	701	Sololá	2	El tablón	5	Mayo	2023-04-05T00:00:00	2024-11-06T01:00:00	4	Temperatura máxima	14.2
152067	7	Sololá	701	Sololá	2	El tablón	5	Mayo	2023-04-05T00:00:00	2024-11-06T01:00:00	3	Temperatura mínima	13.7
152068	7	Sololá	701	Sololá	2	El tablón	5	Mayo	2023-04-05T00:00:00	2024-11-06T01:00:00	5	Humedad	86
152069	7	Sololá	701	Sololá	2	El tablón	5	Mayo	2023-04-05T00:00:00	2024-11-06T01:00:00	6	Velocidad del viento	6.4
152070	7	Sololá	701	Sololá	2	El tablón	5	Mayo	2023-04-05T00:00:00	2024-11-06T01:00:00	7	Dirección del viento	6.44
152071	7	Sololá	701	Sololá	2	El tablón	5	Mayo	2023-04-05T00:00:00	2024-11-06T01:00:00	1	Precipitación	0
152072	7	Sololá	701	Sololá	2	El tablón	5	Mayo	2023-04-05T00:00:00	2024-11-06T01:00:00	8	Radiación solar	0
152073	7	Sololá	701	Sololá	2	El tablón	5	Mayo	2023-04-05T00:00:00	2024-11-06T02:00:00	2	Temperatura media	14.1
152074	7	Sololá	701	Sololá	2	El tablón	5	Mayo	2023-04-05T00:00:00	2024-11-06T02:00:00	4	Temperatura máxima	14.2
152075	7	Sololá	701	Sololá	2	El tablón	5	Mayo	2023-04-05T00:00:00	2024-11-06T02:00:00	3	Temperatura mínima	13.7
152076	7	Sololá	701	Sololá	2	El tablón	5	Mayo	2023-04-05T00:00:00	2024-11-06T02:00:00	5	Humedad	81
152077	7	Sololá	701	Sololá	2	El tablón	5	Mayo	2023-04-05T00:00:00	2024-11-06T02:00:00	6	Velocidad del viento	9.7
152078	7	Sololá	701	Sololá	2	El tablón	5	Mayo	2023-04-05T00:00:00	2024-11-06T02:00:00	7	Dirección del viento	9.66
152079	7	Sololá	701	Sololá	2	El tablón	5	Mayo	2023-04-05T00:00:00	2024-11-06T02:00:00	1	Precipitación	0
152080	7	Sololá	701	Sololá	2	El tablón	5	Mayo	2023-04-05T00:00:00	2024-11-06T02:00:00	8	Radiación solar	0
152081	7	Sololá	701	Sololá	2	El tablón	5	Mayo	2023-04-05T00:00:00	2024-11-06T03:00:00	2	Temperatura media	13.8
152082	7	Sololá	701	Sololá	2	El tablón	5	Mayo	2023-04-05T00:00:00	2024-11-06T03:00:00	4	Temperatura máxima	14.1
152083	7	Sololá	701	Sololá	2	El tablón	5	Mayo	2023-04-05T00:00:00	2024-11-06T03:00:00	3	Temperatura mínima	13.8
152084	7	Sololá	701	Sololá	2	El tablón	5	Mayo	2023-04-05T00:00:00	2024-11-06T03:00:00	5	Humedad	81
152085	7	Sololá	701	Sololá	2	El tablón	5	Mayo	2023-04-05T00:00:00	2024-11-06T03:00:00	6	Velocidad del viento	6.4
152086	7	Sololá	701	Sololá	2	El tablón	5	Mayo	2023-04-05T00:00:00	2024-11-06T03:00:00	7	Dirección del viento	6.44
152087	7	Sololá	701	Sololá	2	El tablón	5	Mayo	2023-04-05T00:00:00	2024-11-06T03:00:00	1	Precipitación	0
152088	7	Sololá	701	Sololá	2	El tablón	5	Mayo	2023-04-05T00:00:00	2024-11-06T03:00:00	8	Radiación solar	0
152089	7	Sololá	701	Sololá	2	El tablón	5	Mayo	2023-04-05T00:00:00	2024-11-06T04:00:00	2	Temperatura media	13.2
152090	7	Sololá	701	Sololá	2	El tablón	5	Mayo	2023-04-05T00:00:00	2024-11-06T04:00:00	4	Temperatura máxima	13.8
152091	7	Sololá	701	Sololá	2	El tablón	5	Mayo	2023-04-05T00:00:00	2024-11-06T04:00:00	3	Temperatura mínima	12.7
152092	7	Sololá	701	Sololá	2	El tablón	5	Mayo	2023-04-05T00:00:00	2024-11-06T04:00:00	5	Humedad	78
152093	7	Sololá	701	Sololá	2	El tablón	5	Mayo	2023-04-05T00:00:00	2024-11-06T04:00:00	6	Velocidad del viento	3.2
152094	7	Sololá	701	Sololá	2	El tablón	5	Mayo	2023-04-05T00:00:00	2024-11-06T04:00:00	7	Dirección del viento	3.22
152095	7	Sololá	701	Sololá	2	El tablón	5	Mayo	2023-04-05T00:00:00	2024-11-06T04:00:00	1	Precipitación	0
152096	7	Sololá	701	Sololá	2	El tablón	5	Mayo	2023-04-05T00:00:00	2024-11-06T04:00:00	8	Radiación solar	0
152097	7	Sololá	701	Sololá	2	El tablón	5	Mayo	2023-04-05T00:00:00	2024-11-06T05:00:00	2	Temperatura media	14.7
152098	7	Sololá	701	Sololá	2	El tablón	5	Mayo	2023-04-05T00:00:00	2024-11-06T05:00:00	4	Temperatura máxima	14.9
152099	7	Sololá	701	Sololá	2	El tablón	5	Mayo	2023-04-05T00:00:00	2024-11-06T05:00:00	3	Temperatura mínima	13.3
152100	7	Sololá	701	Sololá	2	El tablón	5	Mayo	2023-04-05T00:00:00	2024-11-06T05:00:00	5	Humedad	74
152101	7	Sololá	701	Sololá	2	El tablón	5	Mayo	2023-04-05T00:00:00	2024-11-06T05:00:00	6	Velocidad del viento	6.4
152102	7	Sololá	701	Sololá	2	El tablón	5	Mayo	2023-04-05T00:00:00	2024-11-06T05:00:00	7	Dirección del viento	6.44
152103	7	Sololá	701	Sololá	2	El tablón	5	Mayo	2023-04-05T00:00:00	2024-11-06T05:00:00	1	Precipitación	0
152104	7	Sololá	701	Sololá	2	El tablón	5	Mayo	2023-04-05T00:00:00	2024-11-06T05:00:00	8	Radiación solar	0
152105	7	Sololá	701	Sololá	2	El tablón	5	Mayo	2023-04-05T00:00:00	2024-11-06T06:00:00	2	Temperatura media	14
152106	7	Sololá	701	Sololá	2	El tablón	5	Mayo	2023-04-05T00:00:00	2024-11-06T06:00:00	4	Temperatura máxima	14.8
152107	7	Sololá	701	Sololá	2	El tablón	5	Mayo	2023-04-05T00:00:00	2024-11-06T06:00:00	3	Temperatura mínima	13.8
152108	7	Sololá	701	Sololá	2	El tablón	5	Mayo	2023-04-05T00:00:00	2024-11-06T06:00:00	5	Humedad	76
152109	7	Sololá	701	Sololá	2	El tablón	5	Mayo	2023-04-05T00:00:00	2024-11-06T06:00:00	6	Velocidad del viento	1.6
152110	7	Sololá	701	Sololá	2	El tablón	5	Mayo	2023-04-05T00:00:00	2024-11-06T06:00:00	7	Dirección del viento	1.61
152111	7	Sololá	701	Sololá	2	El tablón	5	Mayo	2023-04-05T00:00:00	2024-11-06T06:00:00	1	Precipitación	0
152112	7	Sololá	701	Sololá	2	El tablón	5	Mayo	2023-04-05T00:00:00	2024-11-06T06:00:00	8	Radiación solar	5
152113	7	Sololá	701	Sololá	2	El tablón	5	Mayo	2023-04-05T00:00:00	2024-11-06T07:00:00	2	Temperatura media	16.5
152114	7	Sololá	701	Sololá	2	El tablón	5	Mayo	2023-04-05T00:00:00	2024-11-06T07:00:00	4	Temperatura máxima	16.5
152115	7	Sololá	701	Sololá	2	El tablón	5	Mayo	2023-04-05T00:00:00	2024-11-06T07:00:00	3	Temperatura mínima	14
152116	7	Sololá	701	Sololá	2	El tablón	5	Mayo	2023-04-05T00:00:00	2024-11-06T07:00:00	5	Humedad	70
152117	7	Sololá	701	Sololá	2	El tablón	5	Mayo	2023-04-05T00:00:00	2024-11-06T07:00:00	6	Velocidad del viento	1.6
152118	7	Sololá	701	Sololá	2	El tablón	5	Mayo	2023-04-05T00:00:00	2024-11-06T07:00:00	7	Dirección del viento	1.61
152119	7	Sololá	701	Sololá	2	El tablón	5	Mayo	2023-04-05T00:00:00	2024-11-06T07:00:00	1	Precipitación	0
152120	7	Sololá	701	Sololá	2	El tablón	5	Mayo	2023-04-05T00:00:00	2024-11-06T07:00:00	8	Radiación solar	86
152121	7	Sololá	701	Sololá	2	El tablón	5	Mayo	2023-04-05T00:00:00	2024-11-06T08:00:00	2	Temperatura media	18.3
152122	7	Sololá	701	Sololá	2	El tablón	5	Mayo	2023-04-05T00:00:00	2024-11-06T08:00:00	4	Temperatura máxima	18.6
152123	7	Sololá	701	Sololá	2	El tablón	5	Mayo	2023-04-05T00:00:00	2024-11-06T08:00:00	3	Temperatura mínima	16.5
152124	7	Sololá	701	Sololá	2	El tablón	5	Mayo	2023-04-05T00:00:00	2024-11-06T08:00:00	5	Humedad	67
152125	7	Sololá	701	Sololá	2	El tablón	5	Mayo	2023-04-05T00:00:00	2024-11-06T08:00:00	6	Velocidad del viento	3.2
152126	7	Sololá	701	Sololá	2	El tablón	5	Mayo	2023-04-05T00:00:00	2024-11-06T08:00:00	7	Dirección del viento	3.22
152127	7	Sololá	701	Sololá	2	El tablón	5	Mayo	2023-04-05T00:00:00	2024-11-06T08:00:00	1	Precipitación	0
152128	7	Sololá	701	Sololá	2	El tablón	5	Mayo	2023-04-05T00:00:00	2024-11-06T08:00:00	8	Radiación solar	327
152129	7	Sololá	701	Sololá	2	El tablón	5	Mayo	2023-04-05T00:00:00	2024-11-06T09:00:00	2	Temperatura media	18.4
152130	7	Sololá	701	Sololá	2	El tablón	5	Mayo	2023-04-05T00:00:00	2024-11-06T09:00:00	4	Temperatura máxima	18.5
152131	7	Sololá	701	Sololá	2	El tablón	5	Mayo	2023-04-05T00:00:00	2024-11-06T09:00:00	3	Temperatura mínima	18.1
152132	7	Sololá	701	Sololá	2	El tablón	5	Mayo	2023-04-05T00:00:00	2024-11-06T09:00:00	5	Humedad	69
152133	7	Sololá	701	Sololá	2	El tablón	5	Mayo	2023-04-05T00:00:00	2024-11-06T09:00:00	6	Velocidad del viento	6.4
152134	7	Sololá	701	Sololá	2	El tablón	5	Mayo	2023-04-05T00:00:00	2024-11-06T09:00:00	7	Dirección del viento	6.44
152135	7	Sololá	701	Sololá	2	El tablón	5	Mayo	2023-04-05T00:00:00	2024-11-06T09:00:00	1	Precipitación	0
152136	7	Sololá	701	Sololá	2	El tablón	5	Mayo	2023-04-05T00:00:00	2024-11-06T09:00:00	8	Radiación solar	528
152137	7	Sololá	701	Sololá	2	El tablón	5	Mayo	2023-04-05T00:00:00	2024-11-06T10:00:00	2	Temperatura media	18.9
152138	7	Sololá	701	Sololá	2	El tablón	5	Mayo	2023-04-05T00:00:00	2024-11-06T10:00:00	4	Temperatura máxima	19.1
152139	7	Sololá	701	Sololá	2	El tablón	5	Mayo	2023-04-05T00:00:00	2024-11-06T10:00:00	3	Temperatura mínima	18.3
152140	7	Sololá	701	Sololá	2	El tablón	5	Mayo	2023-04-05T00:00:00	2024-11-06T10:00:00	5	Humedad	68
152141	7	Sololá	701	Sololá	2	El tablón	5	Mayo	2023-04-05T00:00:00	2024-11-06T10:00:00	6	Velocidad del viento	9.7
152142	7	Sololá	701	Sololá	2	El tablón	5	Mayo	2023-04-05T00:00:00	2024-11-06T10:00:00	7	Dirección del viento	9.66
152143	7	Sololá	701	Sololá	2	El tablón	5	Mayo	2023-04-05T00:00:00	2024-11-06T10:00:00	1	Precipitación	0
152144	7	Sololá	701	Sololá	2	El tablón	5	Mayo	2023-04-05T00:00:00	2024-11-06T10:00:00	8	Radiación solar	730
152145	7	Sololá	701	Sololá	2	El tablón	5	Mayo	2023-04-05T00:00:00	2024-11-06T11:00:00	2	Temperatura media	19.8
152146	7	Sololá	701	Sololá	2	El tablón	5	Mayo	2023-04-05T00:00:00	2024-11-06T11:00:00	4	Temperatura máxima	20
152147	7	Sololá	701	Sololá	2	El tablón	5	Mayo	2023-04-05T00:00:00	2024-11-06T11:00:00	3	Temperatura mínima	18.8
152148	7	Sololá	701	Sololá	2	El tablón	5	Mayo	2023-04-05T00:00:00	2024-11-06T11:00:00	5	Humedad	64
152149	7	Sololá	701	Sololá	2	El tablón	5	Mayo	2023-04-05T00:00:00	2024-11-06T11:00:00	6	Velocidad del viento	9.7
152150	7	Sololá	701	Sololá	2	El tablón	5	Mayo	2023-04-05T00:00:00	2024-11-06T11:00:00	7	Dirección del viento	9.66
152151	7	Sololá	701	Sololá	2	El tablón	5	Mayo	2023-04-05T00:00:00	2024-11-06T11:00:00	1	Precipitación	0
152152	7	Sololá	701	Sololá	2	El tablón	5	Mayo	2023-04-05T00:00:00	2024-11-06T11:00:00	8	Radiación solar	878
152153	7	Sololá	701	Sololá	2	El tablón	5	Mayo	2023-04-05T00:00:00	2024-11-06T12:00:00	2	Temperatura media	20.8
152154	7	Sololá	701	Sololá	2	El tablón	5	Mayo	2023-04-05T00:00:00	2024-11-06T12:00:00	4	Temperatura máxima	20.8
152155	7	Sololá	701	Sololá	2	El tablón	5	Mayo	2023-04-05T00:00:00	2024-11-06T12:00:00	3	Temperatura mínima	19.7
152156	7	Sololá	701	Sololá	2	El tablón	5	Mayo	2023-04-05T00:00:00	2024-11-06T12:00:00	5	Humedad	61
152157	7	Sololá	701	Sololá	2	El tablón	5	Mayo	2023-04-05T00:00:00	2024-11-06T12:00:00	6	Velocidad del viento	11.3
152158	7	Sololá	701	Sololá	2	El tablón	5	Mayo	2023-04-05T00:00:00	2024-11-06T12:00:00	7	Dirección del viento	11.27
152159	7	Sololá	701	Sololá	2	El tablón	5	Mayo	2023-04-05T00:00:00	2024-11-06T12:00:00	1	Precipitación	0
152160	7	Sololá	701	Sololá	2	El tablón	5	Mayo	2023-04-05T00:00:00	2024-11-06T12:00:00	8	Radiación solar	987
152161	7	Sololá	701	Sololá	2	El tablón	5	Mayo	2023-04-05T00:00:00	2024-11-06T13:00:00	2	Temperatura media	21.7
152162	7	Sololá	701	Sololá	2	El tablón	5	Mayo	2023-04-05T00:00:00	2024-11-06T13:00:00	4	Temperatura máxima	21.7
152163	7	Sololá	701	Sololá	2	El tablón	5	Mayo	2023-04-05T00:00:00	2024-11-06T13:00:00	3	Temperatura mínima	20.8
152164	7	Sololá	701	Sololá	2	El tablón	5	Mayo	2023-04-05T00:00:00	2024-11-06T13:00:00	5	Humedad	58
152165	7	Sololá	701	Sololá	2	El tablón	5	Mayo	2023-04-05T00:00:00	2024-11-06T13:00:00	6	Velocidad del viento	11.3
152166	7	Sololá	701	Sololá	2	El tablón	5	Mayo	2023-04-05T00:00:00	2024-11-06T13:00:00	7	Dirección del viento	11.27
152167	7	Sololá	701	Sololá	2	El tablón	5	Mayo	2023-04-05T00:00:00	2024-11-06T13:00:00	1	Precipitación	0
152168	7	Sololá	701	Sololá	2	El tablón	5	Mayo	2023-04-05T00:00:00	2024-11-06T13:00:00	8	Radiación solar	1029
152169	7	Sololá	701	Sololá	2	El tablón	5	Mayo	2023-04-05T00:00:00	2024-11-06T14:00:00	2	Temperatura media	20.6
152170	7	Sololá	701	Sololá	2	El tablón	5	Mayo	2023-04-05T00:00:00	2024-11-06T14:00:00	4	Temperatura máxima	21.8
152171	7	Sololá	701	Sololá	2	El tablón	5	Mayo	2023-04-05T00:00:00	2024-11-06T14:00:00	3	Temperatura mínima	20.2
152172	7	Sololá	701	Sololá	2	El tablón	5	Mayo	2023-04-05T00:00:00	2024-11-06T14:00:00	5	Humedad	64
152173	7	Sololá	701	Sololá	2	El tablón	5	Mayo	2023-04-05T00:00:00	2024-11-06T14:00:00	6	Velocidad del viento	12.9
152174	7	Sololá	701	Sololá	2	El tablón	5	Mayo	2023-04-05T00:00:00	2024-11-06T14:00:00	7	Dirección del viento	12.87
152175	7	Sololá	701	Sololá	2	El tablón	5	Mayo	2023-04-05T00:00:00	2024-11-06T14:00:00	1	Precipitación	0
152176	7	Sololá	701	Sololá	2	El tablón	5	Mayo	2023-04-05T00:00:00	2024-11-06T14:00:00	8	Radiación solar	521
152177	7	Sololá	701	Sololá	2	El tablón	5	Mayo	2023-04-05T00:00:00	2024-11-06T15:00:00	2	Temperatura media	21.2
152178	7	Sololá	701	Sololá	2	El tablón	5	Mayo	2023-04-05T00:00:00	2024-11-06T15:00:00	4	Temperatura máxima	21.9
152179	7	Sololá	701	Sololá	2	El tablón	5	Mayo	2023-04-05T00:00:00	2024-11-06T15:00:00	3	Temperatura mínima	20.6
152180	7	Sololá	701	Sololá	2	El tablón	5	Mayo	2023-04-05T00:00:00	2024-11-06T15:00:00	5	Humedad	62
152181	7	Sololá	701	Sololá	2	El tablón	5	Mayo	2023-04-05T00:00:00	2024-11-06T15:00:00	6	Velocidad del viento	11.3
152182	7	Sololá	701	Sololá	2	El tablón	5	Mayo	2023-04-05T00:00:00	2024-11-06T15:00:00	7	Dirección del viento	11.27
152183	7	Sololá	701	Sololá	2	El tablón	5	Mayo	2023-04-05T00:00:00	2024-11-06T15:00:00	1	Precipitación	0
152184	7	Sololá	701	Sololá	2	El tablón	5	Mayo	2023-04-05T00:00:00	2024-11-06T15:00:00	8	Radiación solar	650
152185	7	Sololá	701	Sololá	2	El tablón	5	Mayo	2023-04-05T00:00:00	2024-11-06T16:00:00	2	Temperatura media	20.5
152186	7	Sololá	701	Sololá	2	El tablón	5	Mayo	2023-04-05T00:00:00	2024-11-06T16:00:00	4	Temperatura máxima	21.6
152187	7	Sololá	701	Sololá	2	El tablón	5	Mayo	2023-04-05T00:00:00	2024-11-06T16:00:00	3	Temperatura mínima	20.5
152188	7	Sololá	701	Sololá	2	El tablón	5	Mayo	2023-04-05T00:00:00	2024-11-06T16:00:00	5	Humedad	66
152189	7	Sololá	701	Sololá	2	El tablón	5	Mayo	2023-04-05T00:00:00	2024-11-06T16:00:00	6	Velocidad del viento	11.3
152190	7	Sololá	701	Sololá	2	El tablón	5	Mayo	2023-04-05T00:00:00	2024-11-06T16:00:00	7	Dirección del viento	11.27
152191	7	Sololá	701	Sololá	2	El tablón	5	Mayo	2023-04-05T00:00:00	2024-11-06T16:00:00	1	Precipitación	0
152192	7	Sololá	701	Sololá	2	El tablón	5	Mayo	2023-04-05T00:00:00	2024-11-06T16:00:00	8	Radiación solar	474
152193	7	Sololá	701	Sololá	2	El tablón	5	Mayo	2023-04-05T00:00:00	2024-11-06T17:00:00	2	Temperatura media	19
152194	7	Sololá	701	Sololá	2	El tablón	5	Mayo	2023-04-05T00:00:00	2024-11-06T17:00:00	4	Temperatura máxima	20.5
152195	7	Sololá	701	Sololá	2	El tablón	5	Mayo	2023-04-05T00:00:00	2024-11-06T17:00:00	3	Temperatura mínima	19
152196	7	Sololá	701	Sololá	2	El tablón	5	Mayo	2023-04-05T00:00:00	2024-11-06T17:00:00	5	Humedad	70
152197	7	Sololá	701	Sololá	2	El tablón	5	Mayo	2023-04-05T00:00:00	2024-11-06T17:00:00	6	Velocidad del viento	8
152198	7	Sololá	701	Sololá	2	El tablón	5	Mayo	2023-04-05T00:00:00	2024-11-06T17:00:00	7	Dirección del viento	8.05
152199	7	Sololá	701	Sololá	2	El tablón	5	Mayo	2023-04-05T00:00:00	2024-11-06T17:00:00	1	Precipitación	0
152200	7	Sololá	701	Sololá	2	El tablón	5	Mayo	2023-04-05T00:00:00	2024-11-06T17:00:00	8	Radiación solar	129
152201	7	Sololá	701	Sololá	2	El tablón	5	Mayo	2023-04-05T00:00:00	2024-11-06T18:00:00	2	Temperatura media	17.4
152202	7	Sololá	701	Sololá	2	El tablón	5	Mayo	2023-04-05T00:00:00	2024-11-06T18:00:00	4	Temperatura máxima	19
152203	7	Sololá	701	Sololá	2	El tablón	5	Mayo	2023-04-05T00:00:00	2024-11-06T18:00:00	3	Temperatura mínima	17.4
152204	7	Sololá	701	Sololá	2	El tablón	5	Mayo	2023-04-05T00:00:00	2024-11-06T18:00:00	5	Humedad	76
152205	7	Sololá	701	Sololá	2	El tablón	5	Mayo	2023-04-05T00:00:00	2024-11-06T18:00:00	6	Velocidad del viento	6.4
152206	7	Sololá	701	Sololá	2	El tablón	5	Mayo	2023-04-05T00:00:00	2024-11-06T18:00:00	7	Dirección del viento	6.44
152207	7	Sololá	701	Sololá	2	El tablón	5	Mayo	2023-04-05T00:00:00	2024-11-06T18:00:00	1	Precipitación	0
152208	7	Sololá	701	Sololá	2	El tablón	5	Mayo	2023-04-05T00:00:00	2024-11-06T18:00:00	8	Radiación solar	42
152209	7	Sololá	701	Sololá	2	El tablón	5	Mayo	2023-04-05T00:00:00	2024-11-06T19:00:00	2	Temperatura media	17.1
152210	7	Sololá	701	Sololá	2	El tablón	5	Mayo	2023-04-05T00:00:00	2024-11-06T19:00:00	4	Temperatura máxima	17.6
152211	7	Sololá	701	Sololá	2	El tablón	5	Mayo	2023-04-05T00:00:00	2024-11-06T19:00:00	3	Temperatura mínima	17.1
152212	7	Sololá	701	Sololá	2	El tablón	5	Mayo	2023-04-05T00:00:00	2024-11-06T19:00:00	5	Humedad	77
152213	7	Sololá	701	Sololá	2	El tablón	5	Mayo	2023-04-05T00:00:00	2024-11-06T19:00:00	6	Velocidad del viento	6.4
152214	7	Sololá	701	Sololá	2	El tablón	5	Mayo	2023-04-05T00:00:00	2024-11-06T19:00:00	7	Dirección del viento	6.44
152215	7	Sololá	701	Sololá	2	El tablón	5	Mayo	2023-04-05T00:00:00	2024-11-06T19:00:00	1	Precipitación	0
152216	7	Sololá	701	Sololá	2	El tablón	5	Mayo	2023-04-05T00:00:00	2024-11-06T19:00:00	8	Radiación solar	0
152217	7	Sololá	701	Sololá	2	El tablón	5	Mayo	2023-04-05T00:00:00	2024-11-06T20:00:00	2	Temperatura media	16.3
152218	7	Sololá	701	Sololá	2	El tablón	5	Mayo	2023-04-05T00:00:00	2024-11-06T20:00:00	4	Temperatura máxima	17.2
152219	7	Sololá	701	Sololá	2	El tablón	5	Mayo	2023-04-05T00:00:00	2024-11-06T20:00:00	3	Temperatura mínima	16.3
152220	7	Sololá	701	Sololá	2	El tablón	5	Mayo	2023-04-05T00:00:00	2024-11-06T20:00:00	5	Humedad	83
152221	7	Sololá	701	Sololá	2	El tablón	5	Mayo	2023-04-05T00:00:00	2024-11-06T20:00:00	6	Velocidad del viento	6.4
152222	7	Sololá	701	Sololá	2	El tablón	5	Mayo	2023-04-05T00:00:00	2024-11-06T20:00:00	7	Dirección del viento	6.44
152223	7	Sololá	701	Sololá	2	El tablón	5	Mayo	2023-04-05T00:00:00	2024-11-06T20:00:00	1	Precipitación	0
152224	7	Sololá	701	Sololá	2	El tablón	5	Mayo	2023-04-05T00:00:00	2024-11-06T20:00:00	8	Radiación solar	0
152225	7	Sololá	701	Sololá	2	El tablón	5	Mayo	2023-04-05T00:00:00	2024-11-06T21:00:00	2	Temperatura media	15.7
152226	7	Sololá	701	Sololá	2	El tablón	5	Mayo	2023-04-05T00:00:00	2024-11-06T21:00:00	4	Temperatura máxima	16.3
152227	7	Sololá	701	Sololá	2	El tablón	5	Mayo	2023-04-05T00:00:00	2024-11-06T21:00:00	3	Temperatura mínima	15.7
152228	7	Sololá	701	Sololá	2	El tablón	5	Mayo	2023-04-05T00:00:00	2024-11-06T21:00:00	5	Humedad	84
152229	7	Sololá	701	Sololá	2	El tablón	5	Mayo	2023-04-05T00:00:00	2024-11-06T21:00:00	6	Velocidad del viento	4.8
152230	7	Sololá	701	Sololá	2	El tablón	5	Mayo	2023-04-05T00:00:00	2024-11-06T21:00:00	7	Dirección del viento	4.83
152231	7	Sololá	701	Sololá	2	El tablón	5	Mayo	2023-04-05T00:00:00	2024-11-06T21:00:00	1	Precipitación	0
152232	7	Sololá	701	Sololá	2	El tablón	5	Mayo	2023-04-05T00:00:00	2024-11-06T21:00:00	8	Radiación solar	0
152233	7	Sololá	701	Sololá	2	El tablón	5	Mayo	2023-04-05T00:00:00	2024-11-06T22:00:00	2	Temperatura media	15.3
152234	7	Sololá	701	Sololá	2	El tablón	5	Mayo	2023-04-05T00:00:00	2024-11-06T22:00:00	4	Temperatura máxima	15.7
152235	7	Sololá	701	Sololá	2	El tablón	5	Mayo	2023-04-05T00:00:00	2024-11-06T22:00:00	3	Temperatura mínima	15.3
152236	7	Sololá	701	Sololá	2	El tablón	5	Mayo	2023-04-05T00:00:00	2024-11-06T22:00:00	5	Humedad	85
152237	7	Sololá	701	Sololá	2	El tablón	5	Mayo	2023-04-05T00:00:00	2024-11-06T22:00:00	6	Velocidad del viento	4.8
152238	7	Sololá	701	Sololá	2	El tablón	5	Mayo	2023-04-05T00:00:00	2024-11-06T22:00:00	7	Dirección del viento	4.83
152239	7	Sololá	701	Sololá	2	El tablón	5	Mayo	2023-04-05T00:00:00	2024-11-06T22:00:00	1	Precipitación	0
152240	7	Sololá	701	Sololá	2	El tablón	5	Mayo	2023-04-05T00:00:00	2024-11-06T22:00:00	8	Radiación solar	0
152241	7	Sololá	701	Sololá	2	El tablón	5	Mayo	2023-04-05T00:00:00	2024-11-06T23:00:00	2	Temperatura media	14.9
152242	7	Sololá	701	Sololá	2	El tablón	5	Mayo	2023-04-05T00:00:00	2024-11-06T23:00:00	4	Temperatura máxima	15.3
152243	7	Sololá	701	Sololá	2	El tablón	5	Mayo	2023-04-05T00:00:00	2024-11-06T23:00:00	3	Temperatura mínima	14.9
152244	7	Sololá	701	Sololá	2	El tablón	5	Mayo	2023-04-05T00:00:00	2024-11-06T23:00:00	5	Humedad	86
152245	7	Sololá	701	Sololá	2	El tablón	5	Mayo	2023-04-05T00:00:00	2024-11-06T23:00:00	6	Velocidad del viento	8
152246	7	Sololá	701	Sololá	2	El tablón	5	Mayo	2023-04-05T00:00:00	2024-11-06T23:00:00	7	Dirección del viento	8.05
152247	7	Sololá	701	Sololá	2	El tablón	5	Mayo	2023-04-05T00:00:00	2024-11-06T23:00:00	1	Precipitación	0
152248	7	Sololá	701	Sololá	2	El tablón	5	Mayo	2023-04-05T00:00:00	2024-11-06T23:00:00	8	Radiación solar	0
152249	7	Sololá	701	Sololá	2	El tablón	5	Mayo	2023-05-05T00:00:00	2024-11-06T00:00:00	2	Temperatura media	14.8
152250	7	Sololá	701	Sololá	2	El tablón	5	Mayo	2023-05-05T00:00:00	2024-11-06T00:00:00	4	Temperatura máxima	15
152251	7	Sololá	701	Sololá	2	El tablón	5	Mayo	2023-05-05T00:00:00	2024-11-06T00:00:00	3	Temperatura mínima	14.8
152252	7	Sololá	701	Sololá	2	El tablón	5	Mayo	2023-05-05T00:00:00	2024-11-06T00:00:00	5	Humedad	85
152253	7	Sololá	701	Sololá	2	El tablón	5	Mayo	2023-05-05T00:00:00	2024-11-06T00:00:00	6	Velocidad del viento	8
152254	7	Sololá	701	Sololá	2	El tablón	5	Mayo	2023-05-05T00:00:00	2024-11-06T00:00:00	7	Dirección del viento	8.05
152255	7	Sololá	701	Sololá	2	El tablón	5	Mayo	2023-05-05T00:00:00	2024-11-06T00:00:00	1	Precipitación	0
152256	7	Sololá	701	Sololá	2	El tablón	5	Mayo	2023-05-05T00:00:00	2024-11-06T00:00:00	8	Radiación solar	0
152257	7	Sololá	701	Sololá	2	El tablón	5	Mayo	2023-05-05T00:00:00	2024-11-06T01:00:00	2	Temperatura media	14.3
152258	7	Sololá	701	Sololá	2	El tablón	5	Mayo	2023-05-05T00:00:00	2024-11-06T01:00:00	4	Temperatura máxima	14.8
152259	7	Sololá	701	Sololá	2	El tablón	5	Mayo	2023-05-05T00:00:00	2024-11-06T01:00:00	3	Temperatura mínima	14.3
152260	7	Sololá	701	Sololá	2	El tablón	5	Mayo	2023-05-05T00:00:00	2024-11-06T01:00:00	5	Humedad	82
152261	7	Sololá	701	Sololá	2	El tablón	5	Mayo	2023-05-05T00:00:00	2024-11-06T01:00:00	6	Velocidad del viento	4.8
152262	7	Sololá	701	Sololá	2	El tablón	5	Mayo	2023-05-05T00:00:00	2024-11-06T01:00:00	7	Dirección del viento	4.83
152263	7	Sololá	701	Sololá	2	El tablón	5	Mayo	2023-05-05T00:00:00	2024-11-06T01:00:00	1	Precipitación	0
152264	7	Sololá	701	Sololá	2	El tablón	5	Mayo	2023-05-05T00:00:00	2024-11-06T01:00:00	8	Radiación solar	0
152265	7	Sololá	701	Sololá	2	El tablón	5	Mayo	2023-05-05T00:00:00	2024-11-06T02:00:00	2	Temperatura media	14.5
152266	7	Sololá	701	Sololá	2	El tablón	5	Mayo	2023-05-05T00:00:00	2024-11-06T02:00:00	4	Temperatura máxima	14.5
152267	7	Sololá	701	Sololá	2	El tablón	5	Mayo	2023-05-05T00:00:00	2024-11-06T02:00:00	3	Temperatura mínima	14.3
152268	7	Sololá	701	Sololá	2	El tablón	5	Mayo	2023-05-05T00:00:00	2024-11-06T02:00:00	5	Humedad	76
152269	7	Sololá	701	Sololá	2	El tablón	5	Mayo	2023-05-05T00:00:00	2024-11-06T02:00:00	6	Velocidad del viento	6.4
152270	7	Sololá	701	Sololá	2	El tablón	5	Mayo	2023-05-05T00:00:00	2024-11-06T02:00:00	7	Dirección del viento	6.44
152271	7	Sololá	701	Sololá	2	El tablón	5	Mayo	2023-05-05T00:00:00	2024-11-06T02:00:00	1	Precipitación	0
152272	7	Sololá	701	Sololá	2	El tablón	5	Mayo	2023-05-05T00:00:00	2024-11-06T02:00:00	8	Radiación solar	0
152273	7	Sololá	701	Sololá	2	El tablón	5	Mayo	2023-05-05T00:00:00	2024-11-06T03:00:00	2	Temperatura media	14
152274	7	Sololá	701	Sololá	2	El tablón	5	Mayo	2023-05-05T00:00:00	2024-11-06T03:00:00	4	Temperatura máxima	14.5
152275	7	Sololá	701	Sololá	2	El tablón	5	Mayo	2023-05-05T00:00:00	2024-11-06T03:00:00	3	Temperatura mínima	13.9
152276	7	Sololá	701	Sololá	2	El tablón	5	Mayo	2023-05-05T00:00:00	2024-11-06T03:00:00	5	Humedad	78
152277	7	Sololá	701	Sololá	2	El tablón	5	Mayo	2023-05-05T00:00:00	2024-11-06T03:00:00	6	Velocidad del viento	9.7
152278	7	Sololá	701	Sololá	2	El tablón	5	Mayo	2023-05-05T00:00:00	2024-11-06T03:00:00	7	Dirección del viento	9.66
152279	7	Sololá	701	Sololá	2	El tablón	5	Mayo	2023-05-05T00:00:00	2024-11-06T03:00:00	1	Precipitación	0
152280	7	Sololá	701	Sololá	2	El tablón	5	Mayo	2023-05-05T00:00:00	2024-11-06T03:00:00	8	Radiación solar	0
152281	7	Sololá	701	Sololá	2	El tablón	5	Mayo	2023-05-05T00:00:00	2024-11-06T04:00:00	2	Temperatura media	14
152282	7	Sololá	701	Sololá	2	El tablón	5	Mayo	2023-05-05T00:00:00	2024-11-06T04:00:00	4	Temperatura máxima	14.2
152283	7	Sololá	701	Sololá	2	El tablón	5	Mayo	2023-05-05T00:00:00	2024-11-06T04:00:00	3	Temperatura mínima	13.9
152284	7	Sololá	701	Sololá	2	El tablón	5	Mayo	2023-05-05T00:00:00	2024-11-06T04:00:00	5	Humedad	71
152285	7	Sololá	701	Sololá	2	El tablón	5	Mayo	2023-05-05T00:00:00	2024-11-06T04:00:00	6	Velocidad del viento	8
152286	7	Sololá	701	Sololá	2	El tablón	5	Mayo	2023-05-05T00:00:00	2024-11-06T04:00:00	7	Dirección del viento	8.05
152287	7	Sololá	701	Sololá	2	El tablón	5	Mayo	2023-05-05T00:00:00	2024-11-06T04:00:00	1	Precipitación	0
152288	7	Sololá	701	Sololá	2	El tablón	5	Mayo	2023-05-05T00:00:00	2024-11-06T04:00:00	8	Radiación solar	0
152289	7	Sololá	701	Sololá	2	El tablón	5	Mayo	2023-05-05T00:00:00	2024-11-06T05:00:00	2	Temperatura media	14.2
152290	7	Sololá	701	Sololá	2	El tablón	5	Mayo	2023-05-05T00:00:00	2024-11-06T05:00:00	4	Temperatura máxima	14.2
152291	7	Sololá	701	Sololá	2	El tablón	5	Mayo	2023-05-05T00:00:00	2024-11-06T05:00:00	3	Temperatura mínima	13.8
152292	7	Sololá	701	Sololá	2	El tablón	5	Mayo	2023-05-05T00:00:00	2024-11-06T05:00:00	5	Humedad	66
152293	7	Sololá	701	Sololá	2	El tablón	5	Mayo	2023-05-05T00:00:00	2024-11-06T05:00:00	6	Velocidad del viento	3.2
152294	7	Sololá	701	Sololá	2	El tablón	5	Mayo	2023-05-05T00:00:00	2024-11-06T05:00:00	7	Dirección del viento	3.22
152295	7	Sololá	701	Sololá	2	El tablón	5	Mayo	2023-05-05T00:00:00	2024-11-06T05:00:00	1	Precipitación	0
152296	7	Sololá	701	Sololá	2	El tablón	5	Mayo	2023-05-05T00:00:00	2024-11-06T05:00:00	8	Radiación solar	0
152297	7	Sololá	701	Sololá	2	El tablón	5	Mayo	2023-05-05T00:00:00	2024-11-06T06:00:00	2	Temperatura media	14.2
152298	7	Sololá	701	Sololá	2	El tablón	5	Mayo	2023-05-05T00:00:00	2024-11-06T06:00:00	4	Temperatura máxima	14.6
152299	7	Sololá	701	Sololá	2	El tablón	5	Mayo	2023-05-05T00:00:00	2024-11-06T06:00:00	3	Temperatura mínima	14.1
152300	7	Sololá	701	Sololá	2	El tablón	5	Mayo	2023-05-05T00:00:00	2024-11-06T06:00:00	5	Humedad	68
152301	7	Sololá	701	Sololá	2	El tablón	5	Mayo	2023-05-05T00:00:00	2024-11-06T06:00:00	6	Velocidad del viento	6.4
152302	7	Sololá	701	Sololá	2	El tablón	5	Mayo	2023-05-05T00:00:00	2024-11-06T06:00:00	7	Dirección del viento	6.44
152303	7	Sololá	701	Sololá	2	El tablón	5	Mayo	2023-05-05T00:00:00	2024-11-06T06:00:00	1	Precipitación	0
152304	7	Sololá	701	Sololá	2	El tablón	5	Mayo	2023-05-05T00:00:00	2024-11-06T06:00:00	8	Radiación solar	3
152305	7	Sololá	701	Sololá	2	El tablón	5	Mayo	2023-05-05T00:00:00	2024-11-06T07:00:00	2	Temperatura media	16.6
152306	7	Sololá	701	Sololá	2	El tablón	5	Mayo	2023-05-05T00:00:00	2024-11-06T07:00:00	4	Temperatura máxima	16.6
152307	7	Sololá	701	Sololá	2	El tablón	5	Mayo	2023-05-05T00:00:00	2024-11-06T07:00:00	3	Temperatura mínima	14.2
152308	7	Sololá	701	Sololá	2	El tablón	5	Mayo	2023-05-05T00:00:00	2024-11-06T07:00:00	5	Humedad	60
152309	7	Sololá	701	Sololá	2	El tablón	5	Mayo	2023-05-05T00:00:00	2024-11-06T07:00:00	6	Velocidad del viento	4.8
152310	7	Sololá	701	Sololá	2	El tablón	5	Mayo	2023-05-05T00:00:00	2024-11-06T07:00:00	7	Dirección del viento	4.83
152311	7	Sololá	701	Sololá	2	El tablón	5	Mayo	2023-05-05T00:00:00	2024-11-06T07:00:00	1	Precipitación	0
152312	7	Sololá	701	Sololá	2	El tablón	5	Mayo	2023-05-05T00:00:00	2024-11-06T07:00:00	8	Radiación solar	113
152313	7	Sololá	701	Sololá	2	El tablón	5	Mayo	2023-05-05T00:00:00	2024-11-06T08:00:00	2	Temperatura media	18.2
152314	7	Sololá	701	Sololá	2	El tablón	5	Mayo	2023-05-05T00:00:00	2024-11-06T08:00:00	4	Temperatura máxima	18.2
152315	7	Sololá	701	Sololá	2	El tablón	5	Mayo	2023-05-05T00:00:00	2024-11-06T08:00:00	3	Temperatura mínima	16.4
152316	7	Sololá	701	Sololá	2	El tablón	5	Mayo	2023-05-05T00:00:00	2024-11-06T08:00:00	5	Humedad	57
152317	7	Sololá	701	Sololá	2	El tablón	5	Mayo	2023-05-05T00:00:00	2024-11-06T08:00:00	6	Velocidad del viento	8
152318	7	Sololá	701	Sololá	2	El tablón	5	Mayo	2023-05-05T00:00:00	2024-11-06T08:00:00	7	Dirección del viento	8.05
152319	7	Sololá	701	Sololá	2	El tablón	5	Mayo	2023-05-05T00:00:00	2024-11-06T08:00:00	1	Precipitación	0
152320	7	Sololá	701	Sololá	2	El tablón	5	Mayo	2023-05-05T00:00:00	2024-11-06T08:00:00	8	Radiación solar	333
152321	7	Sololá	701	Sololá	2	El tablón	5	Mayo	2023-05-05T00:00:00	2024-11-06T09:00:00	2	Temperatura media	19.2
152322	7	Sololá	701	Sololá	2	El tablón	5	Mayo	2023-05-05T00:00:00	2024-11-06T09:00:00	4	Temperatura máxima	19.6
152323	7	Sololá	701	Sololá	2	El tablón	5	Mayo	2023-05-05T00:00:00	2024-11-06T09:00:00	3	Temperatura mínima	18.2
152324	7	Sololá	701	Sololá	2	El tablón	5	Mayo	2023-05-05T00:00:00	2024-11-06T09:00:00	5	Humedad	52
152325	7	Sololá	701	Sololá	2	El tablón	5	Mayo	2023-05-05T00:00:00	2024-11-06T09:00:00	6	Velocidad del viento	9.7
152326	7	Sololá	701	Sololá	2	El tablón	5	Mayo	2023-05-05T00:00:00	2024-11-06T09:00:00	7	Dirección del viento	9.66
152327	7	Sololá	701	Sololá	2	El tablón	5	Mayo	2023-05-05T00:00:00	2024-11-06T09:00:00	1	Precipitación	0
152328	7	Sololá	701	Sololá	2	El tablón	5	Mayo	2023-05-05T00:00:00	2024-11-06T09:00:00	8	Radiación solar	561
152329	7	Sololá	701	Sololá	2	El tablón	5	Mayo	2023-05-05T00:00:00	2024-11-06T10:00:00	2	Temperatura media	19.8
152330	7	Sololá	701	Sololá	2	El tablón	5	Mayo	2023-05-05T00:00:00	2024-11-06T10:00:00	4	Temperatura máxima	20.1
152331	7	Sololá	701	Sololá	2	El tablón	5	Mayo	2023-05-05T00:00:00	2024-11-06T10:00:00	3	Temperatura mínima	19.1
152332	7	Sololá	701	Sololá	2	El tablón	5	Mayo	2023-05-05T00:00:00	2024-11-06T10:00:00	5	Humedad	46
152333	7	Sololá	701	Sololá	2	El tablón	5	Mayo	2023-05-05T00:00:00	2024-11-06T10:00:00	6	Velocidad del viento	14.5
152334	7	Sololá	701	Sololá	2	El tablón	5	Mayo	2023-05-05T00:00:00	2024-11-06T10:00:00	7	Dirección del viento	14.48
152335	7	Sololá	701	Sololá	2	El tablón	5	Mayo	2023-05-05T00:00:00	2024-11-06T10:00:00	1	Precipitación	0
152336	7	Sololá	701	Sololá	2	El tablón	5	Mayo	2023-05-05T00:00:00	2024-11-06T10:00:00	8	Radiación solar	739
152337	7	Sololá	701	Sololá	2	El tablón	5	Mayo	2023-05-05T00:00:00	2024-11-06T11:00:00	2	Temperatura media	21.4
152338	7	Sololá	701	Sololá	2	El tablón	5	Mayo	2023-05-05T00:00:00	2024-11-06T11:00:00	4	Temperatura máxima	21.4
152339	7	Sololá	701	Sololá	2	El tablón	5	Mayo	2023-05-05T00:00:00	2024-11-06T11:00:00	3	Temperatura mínima	19.8
152340	7	Sololá	701	Sololá	2	El tablón	5	Mayo	2023-05-05T00:00:00	2024-11-06T11:00:00	5	Humedad	41
152341	7	Sololá	701	Sololá	2	El tablón	5	Mayo	2023-05-05T00:00:00	2024-11-06T11:00:00	6	Velocidad del viento	14.5
152342	7	Sololá	701	Sololá	2	El tablón	5	Mayo	2023-05-05T00:00:00	2024-11-06T11:00:00	7	Dirección del viento	14.48
152343	7	Sololá	701	Sololá	2	El tablón	5	Mayo	2023-05-05T00:00:00	2024-11-06T11:00:00	1	Precipitación	0
152344	7	Sololá	701	Sololá	2	El tablón	5	Mayo	2023-05-05T00:00:00	2024-11-06T11:00:00	8	Radiación solar	878
152345	7	Sololá	701	Sololá	2	El tablón	5	Mayo	2023-05-05T00:00:00	2024-11-06T12:00:00	2	Temperatura media	22.2
152346	7	Sololá	701	Sololá	2	El tablón	5	Mayo	2023-05-05T00:00:00	2024-11-06T12:00:00	4	Temperatura máxima	22.2
152347	7	Sololá	701	Sololá	2	El tablón	5	Mayo	2023-05-05T00:00:00	2024-11-06T12:00:00	3	Temperatura mínima	21.4
152348	7	Sololá	701	Sololá	2	El tablón	5	Mayo	2023-05-05T00:00:00	2024-11-06T12:00:00	5	Humedad	40
152349	7	Sololá	701	Sololá	2	El tablón	5	Mayo	2023-05-05T00:00:00	2024-11-06T12:00:00	6	Velocidad del viento	11.3
152350	7	Sololá	701	Sololá	2	El tablón	5	Mayo	2023-05-05T00:00:00	2024-11-06T12:00:00	7	Dirección del viento	11.27
152351	7	Sololá	701	Sololá	2	El tablón	5	Mayo	2023-05-05T00:00:00	2024-11-06T12:00:00	1	Precipitación	0
152352	7	Sololá	701	Sololá	2	El tablón	5	Mayo	2023-05-05T00:00:00	2024-11-06T12:00:00	8	Radiación solar	939
152353	7	Sololá	701	Sololá	2	El tablón	5	Mayo	2023-05-05T00:00:00	2024-11-06T13:00:00	2	Temperatura media	22.1
152354	7	Sololá	701	Sololá	2	El tablón	5	Mayo	2023-05-05T00:00:00	2024-11-06T13:00:00	4	Temperatura máxima	22.3
152355	7	Sololá	701	Sololá	2	El tablón	5	Mayo	2023-05-05T00:00:00	2024-11-06T13:00:00	3	Temperatura mínima	21.8
152356	7	Sololá	701	Sololá	2	El tablón	5	Mayo	2023-05-05T00:00:00	2024-11-06T13:00:00	5	Humedad	35
152357	7	Sololá	701	Sololá	2	El tablón	5	Mayo	2023-05-05T00:00:00	2024-11-06T13:00:00	6	Velocidad del viento	14.5
152358	7	Sololá	701	Sololá	2	El tablón	5	Mayo	2023-05-05T00:00:00	2024-11-06T13:00:00	7	Dirección del viento	14.48
152359	7	Sololá	701	Sololá	2	El tablón	5	Mayo	2023-05-05T00:00:00	2024-11-06T13:00:00	1	Precipitación	0
152360	7	Sololá	701	Sololá	2	El tablón	5	Mayo	2023-05-05T00:00:00	2024-11-06T13:00:00	8	Radiación solar	957
152361	7	Sololá	701	Sololá	2	El tablón	5	Mayo	2023-05-05T00:00:00	2024-11-06T14:00:00	2	Temperatura media	22.7
152362	7	Sololá	701	Sololá	2	El tablón	5	Mayo	2023-05-05T00:00:00	2024-11-06T14:00:00	4	Temperatura máxima	23
152363	7	Sololá	701	Sololá	2	El tablón	5	Mayo	2023-05-05T00:00:00	2024-11-06T14:00:00	3	Temperatura mínima	22.1
152364	7	Sololá	701	Sololá	2	El tablón	5	Mayo	2023-05-05T00:00:00	2024-11-06T14:00:00	5	Humedad	31
152365	7	Sololá	701	Sololá	2	El tablón	5	Mayo	2023-05-05T00:00:00	2024-11-06T14:00:00	6	Velocidad del viento	11.3
152366	7	Sololá	701	Sololá	2	El tablón	5	Mayo	2023-05-05T00:00:00	2024-11-06T14:00:00	7	Dirección del viento	11.27
152367	7	Sololá	701	Sololá	2	El tablón	5	Mayo	2023-05-05T00:00:00	2024-11-06T14:00:00	1	Precipitación	0
152368	7	Sololá	701	Sololá	2	El tablón	5	Mayo	2023-05-05T00:00:00	2024-11-06T14:00:00	8	Radiación solar	909
152369	7	Sololá	701	Sololá	2	El tablón	5	Mayo	2023-05-05T00:00:00	2024-11-06T15:00:00	2	Temperatura media	22.8
152370	7	Sololá	701	Sololá	2	El tablón	5	Mayo	2023-05-05T00:00:00	2024-11-06T15:00:00	4	Temperatura máxima	23.2
152371	7	Sololá	701	Sololá	2	El tablón	5	Mayo	2023-05-05T00:00:00	2024-11-06T15:00:00	3	Temperatura mínima	22.7
152372	7	Sololá	701	Sololá	2	El tablón	5	Mayo	2023-05-05T00:00:00	2024-11-06T15:00:00	5	Humedad	37
152373	7	Sololá	701	Sololá	2	El tablón	5	Mayo	2023-05-05T00:00:00	2024-11-06T15:00:00	6	Velocidad del viento	9.7
152374	7	Sololá	701	Sololá	2	El tablón	5	Mayo	2023-05-05T00:00:00	2024-11-06T15:00:00	7	Dirección del viento	9.66
152375	7	Sololá	701	Sololá	2	El tablón	5	Mayo	2023-05-05T00:00:00	2024-11-06T15:00:00	1	Precipitación	0
152376	7	Sololá	701	Sololá	2	El tablón	5	Mayo	2023-05-05T00:00:00	2024-11-06T15:00:00	8	Radiación solar	789
152377	7	Sololá	701	Sololá	2	El tablón	5	Mayo	2023-05-05T00:00:00	2024-11-06T16:00:00	2	Temperatura media	21.4
152378	7	Sololá	701	Sololá	2	El tablón	5	Mayo	2023-05-05T00:00:00	2024-11-06T16:00:00	4	Temperatura máxima	22.9
152379	7	Sololá	701	Sololá	2	El tablón	5	Mayo	2023-05-05T00:00:00	2024-11-06T16:00:00	3	Temperatura mínima	21.4
152380	7	Sololá	701	Sololá	2	El tablón	5	Mayo	2023-05-05T00:00:00	2024-11-06T16:00:00	5	Humedad	67
152381	7	Sololá	701	Sololá	2	El tablón	5	Mayo	2023-05-05T00:00:00	2024-11-06T16:00:00	6	Velocidad del viento	8
152382	7	Sololá	701	Sololá	2	El tablón	5	Mayo	2023-05-05T00:00:00	2024-11-06T16:00:00	7	Dirección del viento	8.05
152383	7	Sololá	701	Sololá	2	El tablón	5	Mayo	2023-05-05T00:00:00	2024-11-06T16:00:00	1	Precipitación	0
152384	7	Sololá	701	Sololá	2	El tablón	5	Mayo	2023-05-05T00:00:00	2024-11-06T16:00:00	8	Radiación solar	603
152385	7	Sololá	701	Sololá	2	El tablón	5	Mayo	2023-05-05T00:00:00	2024-11-06T17:00:00	2	Temperatura media	20
152386	7	Sololá	701	Sololá	2	El tablón	5	Mayo	2023-05-05T00:00:00	2024-11-06T17:00:00	4	Temperatura máxima	21.4
152387	7	Sololá	701	Sololá	2	El tablón	5	Mayo	2023-05-05T00:00:00	2024-11-06T17:00:00	3	Temperatura mínima	19.9
152388	7	Sololá	701	Sololá	2	El tablón	5	Mayo	2023-05-05T00:00:00	2024-11-06T17:00:00	5	Humedad	70
152389	7	Sololá	701	Sololá	2	El tablón	5	Mayo	2023-05-05T00:00:00	2024-11-06T17:00:00	6	Velocidad del viento	6.4
152390	7	Sololá	701	Sololá	2	El tablón	5	Mayo	2023-05-05T00:00:00	2024-11-06T17:00:00	7	Dirección del viento	6.44
152391	7	Sololá	701	Sololá	2	El tablón	5	Mayo	2023-05-05T00:00:00	2024-11-06T17:00:00	1	Precipitación	0
152392	7	Sololá	701	Sololá	2	El tablón	5	Mayo	2023-05-05T00:00:00	2024-11-06T17:00:00	8	Radiación solar	337
152393	7	Sololá	701	Sololá	2	El tablón	5	Mayo	2023-05-05T00:00:00	2024-11-06T18:00:00	2	Temperatura media	19.7
152394	7	Sololá	701	Sololá	2	El tablón	5	Mayo	2023-05-05T00:00:00	2024-11-06T18:00:00	4	Temperatura máxima	20.6
152395	7	Sololá	701	Sololá	2	El tablón	5	Mayo	2023-05-05T00:00:00	2024-11-06T18:00:00	3	Temperatura mínima	19.6
152396	7	Sololá	701	Sololá	2	El tablón	5	Mayo	2023-05-05T00:00:00	2024-11-06T18:00:00	5	Humedad	62
152397	7	Sololá	701	Sololá	2	El tablón	5	Mayo	2023-05-05T00:00:00	2024-11-06T18:00:00	6	Velocidad del viento	6.4
152398	7	Sololá	701	Sololá	2	El tablón	5	Mayo	2023-05-05T00:00:00	2024-11-06T18:00:00	7	Dirección del viento	6.44
152399	7	Sololá	701	Sololá	2	El tablón	5	Mayo	2023-05-05T00:00:00	2024-11-06T18:00:00	1	Precipitación	0
152400	7	Sololá	701	Sololá	2	El tablón	5	Mayo	2023-05-05T00:00:00	2024-11-06T18:00:00	8	Radiación solar	147
152401	7	Sololá	701	Sololá	2	El tablón	5	Mayo	2023-05-05T00:00:00	2024-11-06T19:00:00	2	Temperatura media	17.8
152402	7	Sololá	701	Sololá	2	El tablón	5	Mayo	2023-05-05T00:00:00	2024-11-06T19:00:00	4	Temperatura máxima	19.7
152403	7	Sololá	701	Sololá	2	El tablón	5	Mayo	2023-05-05T00:00:00	2024-11-06T19:00:00	3	Temperatura mínima	17.4
152404	7	Sololá	701	Sololá	2	El tablón	5	Mayo	2023-05-05T00:00:00	2024-11-06T19:00:00	5	Humedad	70
152405	7	Sololá	701	Sololá	2	El tablón	5	Mayo	2023-05-05T00:00:00	2024-11-06T19:00:00	6	Velocidad del viento	3.2
152406	7	Sololá	701	Sololá	2	El tablón	5	Mayo	2023-05-05T00:00:00	2024-11-06T19:00:00	7	Dirección del viento	3.22
152407	7	Sololá	701	Sololá	2	El tablón	5	Mayo	2023-05-05T00:00:00	2024-11-06T19:00:00	1	Precipitación	0
152408	7	Sololá	701	Sololá	2	El tablón	5	Mayo	2023-05-05T00:00:00	2024-11-06T19:00:00	8	Radiación solar	0
152409	7	Sololá	701	Sololá	2	El tablón	5	Mayo	2023-05-05T00:00:00	2024-11-06T20:00:00	2	Temperatura media	16.9
152410	7	Sololá	701	Sololá	2	El tablón	5	Mayo	2023-05-05T00:00:00	2024-11-06T20:00:00	4	Temperatura máxima	17.9
152411	7	Sololá	701	Sololá	2	El tablón	5	Mayo	2023-05-05T00:00:00	2024-11-06T20:00:00	3	Temperatura mínima	16.9
152412	7	Sololá	701	Sololá	2	El tablón	5	Mayo	2023-05-05T00:00:00	2024-11-06T20:00:00	5	Humedad	79
152413	7	Sololá	701	Sololá	2	El tablón	5	Mayo	2023-05-05T00:00:00	2024-11-06T20:00:00	6	Velocidad del viento	6.4
152414	7	Sololá	701	Sololá	2	El tablón	5	Mayo	2023-05-05T00:00:00	2024-11-06T20:00:00	7	Dirección del viento	6.44
152415	7	Sololá	701	Sololá	2	El tablón	5	Mayo	2023-05-05T00:00:00	2024-11-06T20:00:00	1	Precipitación	0
152416	7	Sololá	701	Sololá	2	El tablón	5	Mayo	2023-05-05T00:00:00	2024-11-06T20:00:00	8	Radiación solar	0
152417	7	Sololá	701	Sololá	2	El tablón	5	Mayo	2023-05-05T00:00:00	2024-11-06T21:00:00	2	Temperatura media	15.8
152418	7	Sololá	701	Sololá	2	El tablón	5	Mayo	2023-05-05T00:00:00	2024-11-06T21:00:00	4	Temperatura máxima	16.9
152419	7	Sololá	701	Sololá	2	El tablón	5	Mayo	2023-05-05T00:00:00	2024-11-06T21:00:00	3	Temperatura mínima	15.8
152420	7	Sololá	701	Sololá	2	El tablón	5	Mayo	2023-05-05T00:00:00	2024-11-06T21:00:00	5	Humedad	83
152421	7	Sololá	701	Sololá	2	El tablón	5	Mayo	2023-05-05T00:00:00	2024-11-06T21:00:00	6	Velocidad del viento	8
152422	7	Sololá	701	Sololá	2	El tablón	5	Mayo	2023-05-05T00:00:00	2024-11-06T21:00:00	7	Dirección del viento	8.05
152423	7	Sololá	701	Sololá	2	El tablón	5	Mayo	2023-05-05T00:00:00	2024-11-06T21:00:00	1	Precipitación	0
152424	7	Sololá	701	Sololá	2	El tablón	5	Mayo	2023-05-05T00:00:00	2024-11-06T21:00:00	8	Radiación solar	0
152425	7	Sololá	701	Sololá	2	El tablón	5	Mayo	2023-05-05T00:00:00	2024-11-06T22:00:00	2	Temperatura media	14.9
152426	7	Sololá	701	Sololá	2	El tablón	5	Mayo	2023-05-05T00:00:00	2024-11-06T22:00:00	4	Temperatura máxima	15.8
152427	7	Sololá	701	Sololá	2	El tablón	5	Mayo	2023-05-05T00:00:00	2024-11-06T22:00:00	3	Temperatura mínima	14.9
152428	7	Sololá	701	Sololá	2	El tablón	5	Mayo	2023-05-05T00:00:00	2024-11-06T22:00:00	5	Humedad	83
152429	7	Sololá	701	Sololá	2	El tablón	5	Mayo	2023-05-05T00:00:00	2024-11-06T22:00:00	6	Velocidad del viento	9.7
152430	7	Sololá	701	Sololá	2	El tablón	5	Mayo	2023-05-05T00:00:00	2024-11-06T22:00:00	7	Dirección del viento	9.66
152431	7	Sololá	701	Sololá	2	El tablón	5	Mayo	2023-05-05T00:00:00	2024-11-06T22:00:00	1	Precipitación	0
152432	7	Sololá	701	Sololá	2	El tablón	5	Mayo	2023-05-05T00:00:00	2024-11-06T22:00:00	8	Radiación solar	0
152433	7	Sololá	701	Sololá	2	El tablón	5	Mayo	2023-05-05T00:00:00	2024-11-06T23:00:00	2	Temperatura media	14.3
152434	7	Sololá	701	Sololá	2	El tablón	5	Mayo	2023-05-05T00:00:00	2024-11-06T23:00:00	4	Temperatura máxima	14.9
152435	7	Sololá	701	Sololá	2	El tablón	5	Mayo	2023-05-05T00:00:00	2024-11-06T23:00:00	3	Temperatura mínima	14.3
152436	7	Sololá	701	Sololá	2	El tablón	5	Mayo	2023-05-05T00:00:00	2024-11-06T23:00:00	5	Humedad	86
152437	7	Sololá	701	Sololá	2	El tablón	5	Mayo	2023-05-05T00:00:00	2024-11-06T23:00:00	6	Velocidad del viento	9.7
152438	7	Sololá	701	Sololá	2	El tablón	5	Mayo	2023-05-05T00:00:00	2024-11-06T23:00:00	7	Dirección del viento	9.66
152439	7	Sololá	701	Sololá	2	El tablón	5	Mayo	2023-05-05T00:00:00	2024-11-06T23:00:00	1	Precipitación	0
152440	7	Sololá	701	Sololá	2	El tablón	5	Mayo	2023-05-05T00:00:00	2024-11-06T23:00:00	8	Radiación solar	0
152441	7	Sololá	701	Sololá	2	El tablón	5	Mayo	2023-06-05T00:00:00	2024-11-06T00:00:00	2	Temperatura media	14.3
152442	7	Sololá	701	Sololá	2	El tablón	5	Mayo	2023-06-05T00:00:00	2024-11-06T00:00:00	4	Temperatura máxima	14.4
152443	7	Sololá	701	Sololá	2	El tablón	5	Mayo	2023-06-05T00:00:00	2024-11-06T00:00:00	3	Temperatura mínima	14.3
152444	7	Sololá	701	Sololá	2	El tablón	5	Mayo	2023-06-05T00:00:00	2024-11-06T00:00:00	5	Humedad	83
152445	7	Sololá	701	Sololá	2	El tablón	5	Mayo	2023-06-05T00:00:00	2024-11-06T00:00:00	6	Velocidad del viento	14.5
152446	7	Sololá	701	Sololá	2	El tablón	5	Mayo	2023-06-05T00:00:00	2024-11-06T00:00:00	7	Dirección del viento	14.48
152447	7	Sololá	701	Sololá	2	El tablón	5	Mayo	2023-06-05T00:00:00	2024-11-06T00:00:00	1	Precipitación	0
152448	7	Sololá	701	Sololá	2	El tablón	5	Mayo	2023-06-05T00:00:00	2024-11-06T00:00:00	8	Radiación solar	0
152449	7	Sololá	701	Sololá	2	El tablón	5	Mayo	2023-06-05T00:00:00	2024-11-06T01:00:00	2	Temperatura media	13.8
152450	7	Sololá	701	Sololá	2	El tablón	5	Mayo	2023-06-05T00:00:00	2024-11-06T01:00:00	4	Temperatura máxima	14.3
152451	7	Sololá	701	Sololá	2	El tablón	5	Mayo	2023-06-05T00:00:00	2024-11-06T01:00:00	3	Temperatura mínima	13.8
152452	7	Sololá	701	Sololá	2	El tablón	5	Mayo	2023-06-05T00:00:00	2024-11-06T01:00:00	5	Humedad	83
152453	7	Sololá	701	Sololá	2	El tablón	5	Mayo	2023-06-05T00:00:00	2024-11-06T01:00:00	6	Velocidad del viento	9.7
152454	7	Sololá	701	Sololá	2	El tablón	5	Mayo	2023-06-05T00:00:00	2024-11-06T01:00:00	7	Dirección del viento	9.66
152455	7	Sololá	701	Sololá	2	El tablón	5	Mayo	2023-06-05T00:00:00	2024-11-06T01:00:00	1	Precipitación	0
152456	7	Sololá	701	Sololá	2	El tablón	5	Mayo	2023-06-05T00:00:00	2024-11-06T01:00:00	8	Radiación solar	0
152457	7	Sololá	701	Sololá	2	El tablón	5	Mayo	2023-06-05T00:00:00	2024-11-06T02:00:00	2	Temperatura media	13.4
152458	7	Sololá	701	Sololá	2	El tablón	5	Mayo	2023-06-05T00:00:00	2024-11-06T02:00:00	4	Temperatura máxima	13.8
152459	7	Sololá	701	Sololá	2	El tablón	5	Mayo	2023-06-05T00:00:00	2024-11-06T02:00:00	3	Temperatura mínima	13.4
152460	7	Sololá	701	Sololá	2	El tablón	5	Mayo	2023-06-05T00:00:00	2024-11-06T02:00:00	5	Humedad	83
152461	7	Sololá	701	Sololá	2	El tablón	5	Mayo	2023-06-05T00:00:00	2024-11-06T02:00:00	6	Velocidad del viento	8
152462	7	Sololá	701	Sololá	2	El tablón	5	Mayo	2023-06-05T00:00:00	2024-11-06T02:00:00	7	Dirección del viento	8.05
152463	7	Sololá	701	Sololá	2	El tablón	5	Mayo	2023-06-05T00:00:00	2024-11-06T02:00:00	1	Precipitación	0
152464	7	Sololá	701	Sololá	2	El tablón	5	Mayo	2023-06-05T00:00:00	2024-11-06T02:00:00	8	Radiación solar	0
152465	7	Sololá	701	Sololá	2	El tablón	5	Mayo	2023-06-05T00:00:00	2024-11-06T03:00:00	2	Temperatura media	13.3
152466	7	Sololá	701	Sololá	2	El tablón	5	Mayo	2023-06-05T00:00:00	2024-11-06T03:00:00	4	Temperatura máxima	13.4
152467	7	Sololá	701	Sololá	2	El tablón	5	Mayo	2023-06-05T00:00:00	2024-11-06T03:00:00	3	Temperatura mínima	13
152468	7	Sololá	701	Sololá	2	El tablón	5	Mayo	2023-06-05T00:00:00	2024-11-06T03:00:00	5	Humedad	79
152469	7	Sololá	701	Sololá	2	El tablón	5	Mayo	2023-06-05T00:00:00	2024-11-06T03:00:00	6	Velocidad del viento	9.7
152470	7	Sololá	701	Sololá	2	El tablón	5	Mayo	2023-06-05T00:00:00	2024-11-06T03:00:00	7	Dirección del viento	9.66
152471	7	Sololá	701	Sololá	2	El tablón	5	Mayo	2023-06-05T00:00:00	2024-11-06T03:00:00	1	Precipitación	0
152472	7	Sololá	701	Sololá	2	El tablón	5	Mayo	2023-06-05T00:00:00	2024-11-06T03:00:00	8	Radiación solar	0
152473	7	Sololá	701	Sololá	2	El tablón	5	Mayo	2023-06-05T00:00:00	2024-11-06T04:00:00	2	Temperatura media	13.6
152474	7	Sololá	701	Sololá	2	El tablón	5	Mayo	2023-06-05T00:00:00	2024-11-06T04:00:00	4	Temperatura máxima	13.6
152475	7	Sololá	701	Sololá	2	El tablón	5	Mayo	2023-06-05T00:00:00	2024-11-06T04:00:00	3	Temperatura mínima	13.2
152476	7	Sololá	701	Sololá	2	El tablón	5	Mayo	2023-06-05T00:00:00	2024-11-06T04:00:00	5	Humedad	68
152477	7	Sololá	701	Sololá	2	El tablón	5	Mayo	2023-06-05T00:00:00	2024-11-06T04:00:00	6	Velocidad del viento	8
152478	7	Sololá	701	Sololá	2	El tablón	5	Mayo	2023-06-05T00:00:00	2024-11-06T04:00:00	7	Dirección del viento	8.05
152479	7	Sololá	701	Sololá	2	El tablón	5	Mayo	2023-06-05T00:00:00	2024-11-06T04:00:00	1	Precipitación	0
152480	7	Sololá	701	Sololá	2	El tablón	5	Mayo	2023-06-05T00:00:00	2024-11-06T04:00:00	8	Radiación solar	0
152481	7	Sololá	701	Sololá	2	El tablón	5	Mayo	2023-06-05T00:00:00	2024-11-06T05:00:00	2	Temperatura media	13
152482	7	Sololá	701	Sololá	2	El tablón	5	Mayo	2023-06-05T00:00:00	2024-11-06T05:00:00	4	Temperatura máxima	13.6
152483	7	Sololá	701	Sololá	2	El tablón	5	Mayo	2023-06-05T00:00:00	2024-11-06T05:00:00	3	Temperatura mínima	13
152484	7	Sololá	701	Sololá	2	El tablón	5	Mayo	2023-06-05T00:00:00	2024-11-06T05:00:00	5	Humedad	68
152485	7	Sololá	701	Sololá	2	El tablón	5	Mayo	2023-06-05T00:00:00	2024-11-06T05:00:00	6	Velocidad del viento	6.4
152486	7	Sololá	701	Sololá	2	El tablón	5	Mayo	2023-06-05T00:00:00	2024-11-06T05:00:00	7	Dirección del viento	6.44
152487	7	Sololá	701	Sololá	2	El tablón	5	Mayo	2023-06-05T00:00:00	2024-11-06T05:00:00	1	Precipitación	0
152488	7	Sololá	701	Sololá	2	El tablón	5	Mayo	2023-06-05T00:00:00	2024-11-06T05:00:00	8	Radiación solar	0
152489	7	Sololá	701	Sololá	2	El tablón	5	Mayo	2023-06-05T00:00:00	2024-11-06T06:00:00	2	Temperatura media	13.1
152490	7	Sololá	701	Sololá	2	El tablón	5	Mayo	2023-06-05T00:00:00	2024-11-06T06:00:00	4	Temperatura máxima	13.1
152491	7	Sololá	701	Sololá	2	El tablón	5	Mayo	2023-06-05T00:00:00	2024-11-06T06:00:00	3	Temperatura mínima	12.8
152492	7	Sololá	701	Sololá	2	El tablón	5	Mayo	2023-06-05T00:00:00	2024-11-06T06:00:00	5	Humedad	68
152493	7	Sololá	701	Sololá	2	El tablón	5	Mayo	2023-06-05T00:00:00	2024-11-06T06:00:00	6	Velocidad del viento	6.4
152494	7	Sololá	701	Sololá	2	El tablón	5	Mayo	2023-06-05T00:00:00	2024-11-06T06:00:00	7	Dirección del viento	6.44
152495	7	Sololá	701	Sololá	2	El tablón	5	Mayo	2023-06-05T00:00:00	2024-11-06T06:00:00	1	Precipitación	0
152496	7	Sololá	701	Sololá	2	El tablón	5	Mayo	2023-06-05T00:00:00	2024-11-06T06:00:00	8	Radiación solar	3
152497	7	Sololá	701	Sololá	2	El tablón	5	Mayo	2023-06-05T00:00:00	2024-11-06T07:00:00	2	Temperatura media	14.8
152498	7	Sololá	701	Sololá	2	El tablón	5	Mayo	2023-06-05T00:00:00	2024-11-06T07:00:00	4	Temperatura máxima	14.8
152499	7	Sololá	701	Sololá	2	El tablón	5	Mayo	2023-06-05T00:00:00	2024-11-06T07:00:00	3	Temperatura mínima	13.1
152500	7	Sololá	701	Sololá	2	El tablón	5	Mayo	2023-06-05T00:00:00	2024-11-06T07:00:00	5	Humedad	63
152501	7	Sololá	701	Sololá	2	El tablón	5	Mayo	2023-06-05T00:00:00	2024-11-06T07:00:00	6	Velocidad del viento	8
152502	7	Sololá	701	Sololá	2	El tablón	5	Mayo	2023-06-05T00:00:00	2024-11-06T07:00:00	7	Dirección del viento	8.05
152503	7	Sololá	701	Sololá	2	El tablón	5	Mayo	2023-06-05T00:00:00	2024-11-06T07:00:00	1	Precipitación	0
152504	7	Sololá	701	Sololá	2	El tablón	5	Mayo	2023-06-05T00:00:00	2024-11-06T07:00:00	8	Radiación solar	114
152505	7	Sololá	701	Sololá	2	El tablón	5	Mayo	2023-06-05T00:00:00	2024-11-06T08:00:00	2	Temperatura media	16
152506	7	Sololá	701	Sololá	2	El tablón	5	Mayo	2023-06-05T00:00:00	2024-11-06T08:00:00	4	Temperatura máxima	16
152507	7	Sololá	701	Sololá	2	El tablón	5	Mayo	2023-06-05T00:00:00	2024-11-06T08:00:00	3	Temperatura mínima	14.8
152508	7	Sololá	701	Sololá	2	El tablón	5	Mayo	2023-06-05T00:00:00	2024-11-06T08:00:00	5	Humedad	69
152509	7	Sololá	701	Sololá	2	El tablón	5	Mayo	2023-06-05T00:00:00	2024-11-06T08:00:00	6	Velocidad del viento	9.7
152510	7	Sololá	701	Sololá	2	El tablón	5	Mayo	2023-06-05T00:00:00	2024-11-06T08:00:00	7	Dirección del viento	9.66
152511	7	Sololá	701	Sololá	2	El tablón	5	Mayo	2023-06-05T00:00:00	2024-11-06T08:00:00	1	Precipitación	0
152512	7	Sololá	701	Sololá	2	El tablón	5	Mayo	2023-06-05T00:00:00	2024-11-06T08:00:00	8	Radiación solar	343
152513	7	Sololá	701	Sololá	2	El tablón	5	Mayo	2023-06-05T00:00:00	2024-11-06T09:00:00	2	Temperatura media	17.6
152514	7	Sololá	701	Sololá	2	El tablón	5	Mayo	2023-06-05T00:00:00	2024-11-06T09:00:00	4	Temperatura máxima	17.6
152515	7	Sololá	701	Sololá	2	El tablón	5	Mayo	2023-06-05T00:00:00	2024-11-06T09:00:00	3	Temperatura mínima	16
152516	7	Sololá	701	Sololá	2	El tablón	5	Mayo	2023-06-05T00:00:00	2024-11-06T09:00:00	5	Humedad	66
152517	7	Sololá	701	Sololá	2	El tablón	5	Mayo	2023-06-05T00:00:00	2024-11-06T09:00:00	6	Velocidad del viento	11.3
152518	7	Sololá	701	Sololá	2	El tablón	5	Mayo	2023-06-05T00:00:00	2024-11-06T09:00:00	7	Dirección del viento	11.27
152519	7	Sololá	701	Sololá	2	El tablón	5	Mayo	2023-06-05T00:00:00	2024-11-06T09:00:00	1	Precipitación	0
152520	7	Sololá	701	Sololá	2	El tablón	5	Mayo	2023-06-05T00:00:00	2024-11-06T09:00:00	8	Radiación solar	561
152521	7	Sololá	701	Sololá	2	El tablón	5	Mayo	2023-06-05T00:00:00	2024-11-06T10:00:00	2	Temperatura media	18.8
152522	7	Sololá	701	Sololá	2	El tablón	5	Mayo	2023-06-05T00:00:00	2024-11-06T10:00:00	4	Temperatura máxima	18.8
152523	7	Sololá	701	Sololá	2	El tablón	5	Mayo	2023-06-05T00:00:00	2024-11-06T10:00:00	3	Temperatura mínima	17.6
152524	7	Sololá	701	Sololá	2	El tablón	5	Mayo	2023-06-05T00:00:00	2024-11-06T10:00:00	5	Humedad	61
152525	7	Sololá	701	Sololá	2	El tablón	5	Mayo	2023-06-05T00:00:00	2024-11-06T10:00:00	6	Velocidad del viento	11.3
152526	7	Sololá	701	Sololá	2	El tablón	5	Mayo	2023-06-05T00:00:00	2024-11-06T10:00:00	7	Dirección del viento	11.27
152527	7	Sololá	701	Sololá	2	El tablón	5	Mayo	2023-06-05T00:00:00	2024-11-06T10:00:00	1	Precipitación	0
152528	7	Sololá	701	Sololá	2	El tablón	5	Mayo	2023-06-05T00:00:00	2024-11-06T10:00:00	8	Radiación solar	746
152529	7	Sololá	701	Sololá	2	El tablón	5	Mayo	2023-06-05T00:00:00	2024-11-06T11:00:00	2	Temperatura media	20.4
152530	7	Sololá	701	Sololá	2	El tablón	5	Mayo	2023-06-05T00:00:00	2024-11-06T11:00:00	4	Temperatura máxima	20.8
152531	7	Sololá	701	Sololá	2	El tablón	5	Mayo	2023-06-05T00:00:00	2024-11-06T11:00:00	3	Temperatura mínima	18.8
152532	7	Sololá	701	Sololá	2	El tablón	5	Mayo	2023-06-05T00:00:00	2024-11-06T11:00:00	5	Humedad	51
152533	7	Sololá	701	Sololá	2	El tablón	5	Mayo	2023-06-05T00:00:00	2024-11-06T11:00:00	6	Velocidad del viento	9.7
152534	7	Sololá	701	Sololá	2	El tablón	5	Mayo	2023-06-05T00:00:00	2024-11-06T11:00:00	7	Dirección del viento	9.66
152535	7	Sololá	701	Sololá	2	El tablón	5	Mayo	2023-06-05T00:00:00	2024-11-06T11:00:00	1	Precipitación	0
152536	7	Sololá	701	Sololá	2	El tablón	5	Mayo	2023-06-05T00:00:00	2024-11-06T11:00:00	8	Radiación solar	879
152537	7	Sololá	701	Sololá	2	El tablón	5	Mayo	2023-06-05T00:00:00	2024-11-06T12:00:00	2	Temperatura media	21.4
152538	7	Sololá	701	Sololá	2	El tablón	5	Mayo	2023-06-05T00:00:00	2024-11-06T12:00:00	4	Temperatura máxima	21.5
152539	7	Sololá	701	Sololá	2	El tablón	5	Mayo	2023-06-05T00:00:00	2024-11-06T12:00:00	3	Temperatura mínima	20.4
152540	7	Sololá	701	Sololá	2	El tablón	5	Mayo	2023-06-05T00:00:00	2024-11-06T12:00:00	5	Humedad	46
152541	7	Sololá	701	Sololá	2	El tablón	5	Mayo	2023-06-05T00:00:00	2024-11-06T12:00:00	6	Velocidad del viento	9.7
152542	7	Sololá	701	Sololá	2	El tablón	5	Mayo	2023-06-05T00:00:00	2024-11-06T12:00:00	7	Dirección del viento	9.66
152543	7	Sololá	701	Sololá	2	El tablón	5	Mayo	2023-06-05T00:00:00	2024-11-06T12:00:00	1	Precipitación	0
152544	7	Sololá	701	Sololá	2	El tablón	5	Mayo	2023-06-05T00:00:00	2024-11-06T12:00:00	8	Radiación solar	949
152545	7	Sololá	701	Sololá	2	El tablón	5	Mayo	2023-06-05T00:00:00	2024-11-06T13:00:00	2	Temperatura media	21.6
152546	7	Sololá	701	Sololá	2	El tablón	5	Mayo	2023-06-05T00:00:00	2024-11-06T13:00:00	4	Temperatura máxima	21.9
152547	7	Sololá	701	Sololá	2	El tablón	5	Mayo	2023-06-05T00:00:00	2024-11-06T13:00:00	3	Temperatura mínima	21.4
152548	7	Sololá	701	Sololá	2	El tablón	5	Mayo	2023-06-05T00:00:00	2024-11-06T13:00:00	5	Humedad	38
152549	7	Sololá	701	Sololá	2	El tablón	5	Mayo	2023-06-05T00:00:00	2024-11-06T13:00:00	6	Velocidad del viento	11.3
152550	7	Sololá	701	Sololá	2	El tablón	5	Mayo	2023-06-05T00:00:00	2024-11-06T13:00:00	7	Dirección del viento	11.27
152551	7	Sololá	701	Sololá	2	El tablón	5	Mayo	2023-06-05T00:00:00	2024-11-06T13:00:00	1	Precipitación	0
152552	7	Sololá	701	Sololá	2	El tablón	5	Mayo	2023-06-05T00:00:00	2024-11-06T13:00:00	8	Radiación solar	925
152553	7	Sololá	701	Sololá	2	El tablón	5	Mayo	2023-06-05T00:00:00	2024-11-06T14:00:00	2	Temperatura media	22.3
152554	7	Sololá	701	Sololá	2	El tablón	5	Mayo	2023-06-05T00:00:00	2024-11-06T14:00:00	4	Temperatura máxima	22.6
152555	7	Sololá	701	Sololá	2	El tablón	5	Mayo	2023-06-05T00:00:00	2024-11-06T14:00:00	3	Temperatura mínima	21.6
152556	7	Sololá	701	Sololá	2	El tablón	5	Mayo	2023-06-05T00:00:00	2024-11-06T14:00:00	5	Humedad	33
152557	7	Sololá	701	Sololá	2	El tablón	5	Mayo	2023-06-05T00:00:00	2024-11-06T14:00:00	6	Velocidad del viento	11.3
152558	7	Sololá	701	Sololá	2	El tablón	5	Mayo	2023-06-05T00:00:00	2024-11-06T14:00:00	7	Dirección del viento	11.27
152559	7	Sololá	701	Sololá	2	El tablón	5	Mayo	2023-06-05T00:00:00	2024-11-06T14:00:00	1	Precipitación	0
152560	7	Sololá	701	Sololá	2	El tablón	5	Mayo	2023-06-05T00:00:00	2024-11-06T14:00:00	8	Radiación solar	886
152561	7	Sololá	701	Sololá	2	El tablón	5	Mayo	2023-06-05T00:00:00	2024-11-06T15:00:00	2	Temperatura media	22.2
152562	7	Sololá	701	Sololá	2	El tablón	5	Mayo	2023-06-05T00:00:00	2024-11-06T15:00:00	4	Temperatura máxima	22.6
152563	7	Sololá	701	Sololá	2	El tablón	5	Mayo	2023-06-05T00:00:00	2024-11-06T15:00:00	3	Temperatura mínima	21.8
152564	7	Sololá	701	Sololá	2	El tablón	5	Mayo	2023-06-05T00:00:00	2024-11-06T15:00:00	5	Humedad	29
152565	7	Sololá	701	Sololá	2	El tablón	5	Mayo	2023-06-05T00:00:00	2024-11-06T15:00:00	6	Velocidad del viento	12.9
152566	7	Sololá	701	Sololá	2	El tablón	5	Mayo	2023-06-05T00:00:00	2024-11-06T15:00:00	7	Dirección del viento	12.87
152567	7	Sololá	701	Sololá	2	El tablón	5	Mayo	2023-06-05T00:00:00	2024-11-06T15:00:00	1	Precipitación	0
152568	7	Sololá	701	Sololá	2	El tablón	5	Mayo	2023-06-05T00:00:00	2024-11-06T15:00:00	8	Radiación solar	771
152569	7	Sololá	701	Sololá	2	El tablón	5	Mayo	2023-06-05T00:00:00	2024-11-06T16:00:00	2	Temperatura media	21.9
152570	7	Sololá	701	Sololá	2	El tablón	5	Mayo	2023-06-05T00:00:00	2024-11-06T16:00:00	4	Temperatura máxima	22.4
152571	7	Sololá	701	Sololá	2	El tablón	5	Mayo	2023-06-05T00:00:00	2024-11-06T16:00:00	3	Temperatura mínima	21.6
152572	7	Sololá	701	Sololá	2	El tablón	5	Mayo	2023-06-05T00:00:00	2024-11-06T16:00:00	5	Humedad	44
152573	7	Sololá	701	Sololá	2	El tablón	5	Mayo	2023-06-05T00:00:00	2024-11-06T16:00:00	6	Velocidad del viento	8
152574	7	Sololá	701	Sololá	2	El tablón	5	Mayo	2023-06-05T00:00:00	2024-11-06T16:00:00	7	Dirección del viento	8.05
152575	7	Sololá	701	Sololá	2	El tablón	5	Mayo	2023-06-05T00:00:00	2024-11-06T16:00:00	1	Precipitación	0
152576	7	Sololá	701	Sololá	2	El tablón	5	Mayo	2023-06-05T00:00:00	2024-11-06T16:00:00	8	Radiación solar	549
152577	7	Sololá	701	Sololá	2	El tablón	5	Mayo	2023-06-05T00:00:00	2024-11-06T17:00:00	2	Temperatura media	20.4
152578	7	Sololá	701	Sololá	2	El tablón	5	Mayo	2023-06-05T00:00:00	2024-11-06T17:00:00	4	Temperatura máxima	21.9
152579	7	Sololá	701	Sololá	2	El tablón	5	Mayo	2023-06-05T00:00:00	2024-11-06T17:00:00	3	Temperatura mínima	20.4
152580	7	Sololá	701	Sololá	2	El tablón	5	Mayo	2023-06-05T00:00:00	2024-11-06T17:00:00	5	Humedad	50
152581	7	Sololá	701	Sololá	2	El tablón	5	Mayo	2023-06-05T00:00:00	2024-11-06T17:00:00	6	Velocidad del viento	11.3
152582	7	Sololá	701	Sololá	2	El tablón	5	Mayo	2023-06-05T00:00:00	2024-11-06T17:00:00	7	Dirección del viento	11.27
152583	7	Sololá	701	Sololá	2	El tablón	5	Mayo	2023-06-05T00:00:00	2024-11-06T17:00:00	1	Precipitación	0
152584	7	Sololá	701	Sololá	2	El tablón	5	Mayo	2023-06-05T00:00:00	2024-11-06T17:00:00	8	Radiación solar	386
152585	7	Sololá	701	Sololá	2	El tablón	5	Mayo	2023-06-05T00:00:00	2024-11-06T18:00:00	2	Temperatura media	19
152586	7	Sololá	701	Sololá	2	El tablón	5	Mayo	2023-06-05T00:00:00	2024-11-06T18:00:00	4	Temperatura máxima	20.4
152587	7	Sololá	701	Sololá	2	El tablón	5	Mayo	2023-06-05T00:00:00	2024-11-06T18:00:00	3	Temperatura mínima	19
152588	7	Sololá	701	Sololá	2	El tablón	5	Mayo	2023-06-05T00:00:00	2024-11-06T18:00:00	5	Humedad	54
152589	7	Sololá	701	Sololá	2	El tablón	5	Mayo	2023-06-05T00:00:00	2024-11-06T18:00:00	6	Velocidad del viento	9.7
152590	7	Sololá	701	Sololá	2	El tablón	5	Mayo	2023-06-05T00:00:00	2024-11-06T18:00:00	7	Dirección del viento	9.66
152591	7	Sololá	701	Sololá	2	El tablón	5	Mayo	2023-06-05T00:00:00	2024-11-06T18:00:00	1	Precipitación	0
152592	7	Sololá	701	Sololá	2	El tablón	5	Mayo	2023-06-05T00:00:00	2024-11-06T18:00:00	8	Radiación solar	141
152593	7	Sololá	701	Sololá	2	El tablón	5	Mayo	2023-06-05T00:00:00	2024-11-06T19:00:00	2	Temperatura media	17.2
152594	7	Sololá	701	Sololá	2	El tablón	5	Mayo	2023-06-05T00:00:00	2024-11-06T19:00:00	4	Temperatura máxima	19
152595	7	Sololá	701	Sololá	2	El tablón	5	Mayo	2023-06-05T00:00:00	2024-11-06T19:00:00	3	Temperatura mínima	17.2
152596	7	Sololá	701	Sololá	2	El tablón	5	Mayo	2023-06-05T00:00:00	2024-11-06T19:00:00	5	Humedad	58
152597	7	Sololá	701	Sololá	2	El tablón	5	Mayo	2023-06-05T00:00:00	2024-11-06T19:00:00	6	Velocidad del viento	8
152598	7	Sololá	701	Sololá	2	El tablón	5	Mayo	2023-06-05T00:00:00	2024-11-06T19:00:00	7	Dirección del viento	8.05
152599	7	Sololá	701	Sololá	2	El tablón	5	Mayo	2023-06-05T00:00:00	2024-11-06T19:00:00	1	Precipitación	0
152600	7	Sololá	701	Sololá	2	El tablón	5	Mayo	2023-06-05T00:00:00	2024-11-06T19:00:00	8	Radiación solar	0
152601	7	Sololá	701	Sololá	2	El tablón	5	Mayo	2023-06-05T00:00:00	2024-11-06T20:00:00	2	Temperatura media	16.2
152602	7	Sololá	701	Sololá	2	El tablón	5	Mayo	2023-06-05T00:00:00	2024-11-06T20:00:00	4	Temperatura máxima	17.2
152603	7	Sololá	701	Sololá	2	El tablón	5	Mayo	2023-06-05T00:00:00	2024-11-06T20:00:00	3	Temperatura mínima	16.2
152604	7	Sololá	701	Sololá	2	El tablón	5	Mayo	2023-06-05T00:00:00	2024-11-06T20:00:00	5	Humedad	64
152605	7	Sololá	701	Sololá	2	El tablón	5	Mayo	2023-06-05T00:00:00	2024-11-06T20:00:00	6	Velocidad del viento	4.8
152606	7	Sololá	701	Sololá	2	El tablón	5	Mayo	2023-06-05T00:00:00	2024-11-06T20:00:00	7	Dirección del viento	4.83
152607	7	Sololá	701	Sololá	2	El tablón	5	Mayo	2023-06-05T00:00:00	2024-11-06T20:00:00	1	Precipitación	0
152608	7	Sololá	701	Sololá	2	El tablón	5	Mayo	2023-06-05T00:00:00	2024-11-06T20:00:00	8	Radiación solar	0
152609	7	Sololá	701	Sololá	2	El tablón	5	Mayo	2023-06-05T00:00:00	2024-11-06T21:00:00	2	Temperatura media	15.1
152610	7	Sololá	701	Sololá	2	El tablón	5	Mayo	2023-06-05T00:00:00	2024-11-06T21:00:00	4	Temperatura máxima	16.2
152611	7	Sololá	701	Sololá	2	El tablón	5	Mayo	2023-06-05T00:00:00	2024-11-06T21:00:00	3	Temperatura mínima	15.1
152612	7	Sololá	701	Sololá	2	El tablón	5	Mayo	2023-06-05T00:00:00	2024-11-06T21:00:00	5	Humedad	75
152613	7	Sololá	701	Sololá	2	El tablón	5	Mayo	2023-06-05T00:00:00	2024-11-06T21:00:00	6	Velocidad del viento	1.6
152614	7	Sololá	701	Sololá	2	El tablón	5	Mayo	2023-06-05T00:00:00	2024-11-06T21:00:00	7	Dirección del viento	1.61
152615	7	Sololá	701	Sololá	2	El tablón	5	Mayo	2023-06-05T00:00:00	2024-11-06T21:00:00	1	Precipitación	0
152616	7	Sololá	701	Sololá	2	El tablón	5	Mayo	2023-06-05T00:00:00	2024-11-06T21:00:00	8	Radiación solar	0
152617	7	Sololá	701	Sololá	2	El tablón	5	Mayo	2023-06-05T00:00:00	2024-11-06T22:00:00	2	Temperatura media	15.4
152618	7	Sololá	701	Sololá	2	El tablón	5	Mayo	2023-06-05T00:00:00	2024-11-06T22:00:00	4	Temperatura máxima	15.4
152619	7	Sololá	701	Sololá	2	El tablón	5	Mayo	2023-06-05T00:00:00	2024-11-06T22:00:00	3	Temperatura mínima	14.8
152620	7	Sololá	701	Sololá	2	El tablón	5	Mayo	2023-06-05T00:00:00	2024-11-06T22:00:00	5	Humedad	71
152621	7	Sololá	701	Sololá	2	El tablón	5	Mayo	2023-06-05T00:00:00	2024-11-06T22:00:00	6	Velocidad del viento	1.6
152622	7	Sololá	701	Sololá	2	El tablón	5	Mayo	2023-06-05T00:00:00	2024-11-06T22:00:00	7	Dirección del viento	1.61
152623	7	Sololá	701	Sololá	2	El tablón	5	Mayo	2023-06-05T00:00:00	2024-11-06T22:00:00	1	Precipitación	0
152624	7	Sololá	701	Sololá	2	El tablón	5	Mayo	2023-06-05T00:00:00	2024-11-06T22:00:00	8	Radiación solar	0
152625	7	Sololá	701	Sololá	2	El tablón	5	Mayo	2023-06-05T00:00:00	2024-11-06T23:00:00	2	Temperatura media	14.6
152626	7	Sololá	701	Sololá	2	El tablón	5	Mayo	2023-06-05T00:00:00	2024-11-06T23:00:00	4	Temperatura máxima	15.6
152627	7	Sololá	701	Sololá	2	El tablón	5	Mayo	2023-06-05T00:00:00	2024-11-06T23:00:00	3	Temperatura mínima	14.6
152628	7	Sololá	701	Sololá	2	El tablón	5	Mayo	2023-06-05T00:00:00	2024-11-06T23:00:00	5	Humedad	75
152629	7	Sololá	701	Sololá	2	El tablón	5	Mayo	2023-06-05T00:00:00	2024-11-06T23:00:00	6	Velocidad del viento	6.4
152630	7	Sololá	701	Sololá	2	El tablón	5	Mayo	2023-06-05T00:00:00	2024-11-06T23:00:00	7	Dirección del viento	6.44
152631	7	Sololá	701	Sololá	2	El tablón	5	Mayo	2023-06-05T00:00:00	2024-11-06T23:00:00	1	Precipitación	0
152632	7	Sololá	701	Sololá	2	El tablón	5	Mayo	2023-06-05T00:00:00	2024-11-06T23:00:00	8	Radiación solar	0
152633	7	Sololá	701	Sololá	2	El tablón	5	Mayo	2023-07-05T00:00:00	2024-11-06T00:00:00	2	Temperatura media	14.8
152634	7	Sololá	701	Sololá	2	El tablón	5	Mayo	2023-07-05T00:00:00	2024-11-06T00:00:00	4	Temperatura máxima	14.9
152635	7	Sololá	701	Sololá	2	El tablón	5	Mayo	2023-07-05T00:00:00	2024-11-06T00:00:00	3	Temperatura mínima	14.6
152636	7	Sololá	701	Sololá	2	El tablón	5	Mayo	2023-07-05T00:00:00	2024-11-06T00:00:00	5	Humedad	63
152637	7	Sololá	701	Sololá	2	El tablón	5	Mayo	2023-07-05T00:00:00	2024-11-06T00:00:00	6	Velocidad del viento	4.8
152638	7	Sololá	701	Sololá	2	El tablón	5	Mayo	2023-07-05T00:00:00	2024-11-06T00:00:00	7	Dirección del viento	4.83
152639	7	Sololá	701	Sololá	2	El tablón	5	Mayo	2023-07-05T00:00:00	2024-11-06T00:00:00	1	Precipitación	0
152640	7	Sololá	701	Sololá	2	El tablón	5	Mayo	2023-07-05T00:00:00	2024-11-06T00:00:00	8	Radiación solar	0
152641	7	Sololá	701	Sololá	2	El tablón	5	Mayo	2023-07-05T00:00:00	2024-11-06T01:00:00	2	Temperatura media	14.9
152642	7	Sololá	701	Sololá	2	El tablón	5	Mayo	2023-07-05T00:00:00	2024-11-06T01:00:00	4	Temperatura máxima	15.4
152643	7	Sololá	701	Sololá	2	El tablón	5	Mayo	2023-07-05T00:00:00	2024-11-06T01:00:00	3	Temperatura mínima	14.7
152644	7	Sololá	701	Sololá	2	El tablón	5	Mayo	2023-07-05T00:00:00	2024-11-06T01:00:00	5	Humedad	47
152645	7	Sololá	701	Sololá	2	El tablón	5	Mayo	2023-07-05T00:00:00	2024-11-06T01:00:00	6	Velocidad del viento	6.4
152646	7	Sololá	701	Sololá	2	El tablón	5	Mayo	2023-07-05T00:00:00	2024-11-06T01:00:00	7	Dirección del viento	6.44
152647	7	Sololá	701	Sololá	2	El tablón	5	Mayo	2023-07-05T00:00:00	2024-11-06T01:00:00	1	Precipitación	0
152648	7	Sololá	701	Sololá	2	El tablón	5	Mayo	2023-07-05T00:00:00	2024-11-06T01:00:00	8	Radiación solar	0
152649	7	Sololá	701	Sololá	2	El tablón	5	Mayo	2023-07-05T00:00:00	2024-11-06T02:00:00	2	Temperatura media	14.8
152650	7	Sololá	701	Sololá	2	El tablón	5	Mayo	2023-07-05T00:00:00	2024-11-06T02:00:00	4	Temperatura máxima	15.3
152651	7	Sololá	701	Sololá	2	El tablón	5	Mayo	2023-07-05T00:00:00	2024-11-06T02:00:00	3	Temperatura mínima	14.8
152652	7	Sololá	701	Sololá	2	El tablón	5	Mayo	2023-07-05T00:00:00	2024-11-06T02:00:00	5	Humedad	43
152653	7	Sololá	701	Sololá	2	El tablón	5	Mayo	2023-07-05T00:00:00	2024-11-06T02:00:00	6	Velocidad del viento	8
152654	7	Sololá	701	Sololá	2	El tablón	5	Mayo	2023-07-05T00:00:00	2024-11-06T02:00:00	7	Dirección del viento	8.05
152655	7	Sololá	701	Sololá	2	El tablón	5	Mayo	2023-07-05T00:00:00	2024-11-06T02:00:00	1	Precipitación	0
152656	7	Sololá	701	Sololá	2	El tablón	5	Mayo	2023-07-05T00:00:00	2024-11-06T02:00:00	8	Radiación solar	0
152657	7	Sololá	701	Sololá	2	El tablón	5	Mayo	2023-07-05T00:00:00	2024-11-06T03:00:00	2	Temperatura media	13.1
152658	7	Sololá	701	Sololá	2	El tablón	5	Mayo	2023-07-05T00:00:00	2024-11-06T03:00:00	4	Temperatura máxima	14.8
152659	7	Sololá	701	Sololá	2	El tablón	5	Mayo	2023-07-05T00:00:00	2024-11-06T03:00:00	3	Temperatura mínima	12.8
152660	7	Sololá	701	Sololá	2	El tablón	5	Mayo	2023-07-05T00:00:00	2024-11-06T03:00:00	5	Humedad	47
152661	7	Sololá	701	Sololá	2	El tablón	5	Mayo	2023-07-05T00:00:00	2024-11-06T03:00:00	6	Velocidad del viento	1.6
152662	7	Sololá	701	Sololá	2	El tablón	5	Mayo	2023-07-05T00:00:00	2024-11-06T03:00:00	7	Dirección del viento	1.61
152663	7	Sololá	701	Sololá	2	El tablón	5	Mayo	2023-07-05T00:00:00	2024-11-06T03:00:00	1	Precipitación	0
152664	7	Sololá	701	Sololá	2	El tablón	5	Mayo	2023-07-05T00:00:00	2024-11-06T03:00:00	8	Radiación solar	0
152665	7	Sololá	701	Sololá	2	El tablón	5	Mayo	2023-07-05T00:00:00	2024-11-06T04:00:00	2	Temperatura media	14.2
152666	7	Sololá	701	Sololá	2	El tablón	5	Mayo	2023-07-05T00:00:00	2024-11-06T04:00:00	4	Temperatura máxima	14.4
152667	7	Sololá	701	Sololá	2	El tablón	5	Mayo	2023-07-05T00:00:00	2024-11-06T04:00:00	3	Temperatura mínima	13.1
152668	7	Sololá	701	Sololá	2	El tablón	5	Mayo	2023-07-05T00:00:00	2024-11-06T04:00:00	5	Humedad	45
152669	7	Sololá	701	Sololá	2	El tablón	5	Mayo	2023-07-05T00:00:00	2024-11-06T04:00:00	6	Velocidad del viento	1.6
152670	7	Sololá	701	Sololá	2	El tablón	5	Mayo	2023-07-05T00:00:00	2024-11-06T04:00:00	7	Dirección del viento	1.61
152671	7	Sololá	701	Sololá	2	El tablón	5	Mayo	2023-07-05T00:00:00	2024-11-06T04:00:00	1	Precipitación	0
152672	7	Sololá	701	Sololá	2	El tablón	5	Mayo	2023-07-05T00:00:00	2024-11-06T04:00:00	8	Radiación solar	0
152673	7	Sololá	701	Sololá	2	El tablón	5	Mayo	2023-07-05T00:00:00	2024-11-06T05:00:00	2	Temperatura media	12.5
152674	7	Sololá	701	Sololá	2	El tablón	5	Mayo	2023-07-05T00:00:00	2024-11-06T05:00:00	4	Temperatura máxima	14.4
152675	7	Sololá	701	Sololá	2	El tablón	5	Mayo	2023-07-05T00:00:00	2024-11-06T05:00:00	3	Temperatura mínima	12.2
152676	7	Sololá	701	Sololá	2	El tablón	5	Mayo	2023-07-05T00:00:00	2024-11-06T05:00:00	5	Humedad	52
152677	7	Sololá	701	Sololá	2	El tablón	5	Mayo	2023-07-05T00:00:00	2024-11-06T05:00:00	6	Velocidad del viento	3.2
152678	7	Sololá	701	Sololá	2	El tablón	5	Mayo	2023-07-05T00:00:00	2024-11-06T05:00:00	7	Dirección del viento	3.22
152679	7	Sololá	701	Sololá	2	El tablón	5	Mayo	2023-07-05T00:00:00	2024-11-06T05:00:00	1	Precipitación	0
152680	7	Sololá	701	Sololá	2	El tablón	5	Mayo	2023-07-05T00:00:00	2024-11-06T05:00:00	8	Radiación solar	0
152681	7	Sololá	701	Sololá	2	El tablón	5	Mayo	2023-07-05T00:00:00	2024-11-06T06:00:00	2	Temperatura media	12.4
152682	7	Sololá	701	Sololá	2	El tablón	5	Mayo	2023-07-05T00:00:00	2024-11-06T06:00:00	4	Temperatura máxima	14.1
152683	7	Sololá	701	Sololá	2	El tablón	5	Mayo	2023-07-05T00:00:00	2024-11-06T06:00:00	3	Temperatura mínima	12.4
152684	7	Sololá	701	Sololá	2	El tablón	5	Mayo	2023-07-05T00:00:00	2024-11-06T06:00:00	5	Humedad	51
152685	7	Sololá	701	Sololá	2	El tablón	5	Mayo	2023-07-05T00:00:00	2024-11-06T06:00:00	6	Velocidad del viento	6.4
152686	7	Sololá	701	Sololá	2	El tablón	5	Mayo	2023-07-05T00:00:00	2024-11-06T06:00:00	7	Dirección del viento	6.44
152687	7	Sololá	701	Sololá	2	El tablón	5	Mayo	2023-07-05T00:00:00	2024-11-06T06:00:00	1	Precipitación	0
152688	7	Sololá	701	Sololá	2	El tablón	5	Mayo	2023-07-05T00:00:00	2024-11-06T06:00:00	8	Radiación solar	3
152689	7	Sololá	701	Sololá	2	El tablón	5	Mayo	2023-07-05T00:00:00	2024-11-06T07:00:00	2	Temperatura media	15.9
152690	7	Sololá	701	Sololá	2	El tablón	5	Mayo	2023-07-05T00:00:00	2024-11-06T07:00:00	4	Temperatura máxima	15.9
152691	7	Sololá	701	Sololá	2	El tablón	5	Mayo	2023-07-05T00:00:00	2024-11-06T07:00:00	3	Temperatura mínima	12.4
152692	7	Sololá	701	Sololá	2	El tablón	5	Mayo	2023-07-05T00:00:00	2024-11-06T07:00:00	5	Humedad	43
152693	7	Sololá	701	Sololá	2	El tablón	5	Mayo	2023-07-05T00:00:00	2024-11-06T07:00:00	6	Velocidad del viento	4.8
152694	7	Sololá	701	Sololá	2	El tablón	5	Mayo	2023-07-05T00:00:00	2024-11-06T07:00:00	7	Dirección del viento	4.83
152695	7	Sololá	701	Sololá	2	El tablón	5	Mayo	2023-07-05T00:00:00	2024-11-06T07:00:00	1	Precipitación	0
152696	7	Sololá	701	Sololá	2	El tablón	5	Mayo	2023-07-05T00:00:00	2024-11-06T07:00:00	8	Radiación solar	88
152697	7	Sololá	701	Sololá	2	El tablón	5	Mayo	2023-07-05T00:00:00	2024-11-06T08:00:00	2	Temperatura media	18.4
152698	7	Sololá	701	Sololá	2	El tablón	5	Mayo	2023-07-05T00:00:00	2024-11-06T08:00:00	4	Temperatura máxima	18.4
152699	7	Sololá	701	Sololá	2	El tablón	5	Mayo	2023-07-05T00:00:00	2024-11-06T08:00:00	3	Temperatura mínima	15.9
152700	7	Sololá	701	Sololá	2	El tablón	5	Mayo	2023-07-05T00:00:00	2024-11-06T08:00:00	5	Humedad	38
152701	7	Sololá	701	Sololá	2	El tablón	5	Mayo	2023-07-05T00:00:00	2024-11-06T08:00:00	6	Velocidad del viento	4.8
152702	7	Sololá	701	Sololá	2	El tablón	5	Mayo	2023-07-05T00:00:00	2024-11-06T08:00:00	7	Dirección del viento	4.83
152703	7	Sololá	701	Sololá	2	El tablón	5	Mayo	2023-07-05T00:00:00	2024-11-06T08:00:00	1	Precipitación	0
152704	7	Sololá	701	Sololá	2	El tablón	5	Mayo	2023-07-05T00:00:00	2024-11-06T08:00:00	8	Radiación solar	319
152705	7	Sololá	701	Sololá	2	El tablón	5	Mayo	2023-07-05T00:00:00	2024-11-06T09:00:00	2	Temperatura media	19.2
152706	7	Sololá	701	Sololá	2	El tablón	5	Mayo	2023-07-05T00:00:00	2024-11-06T09:00:00	4	Temperatura máxima	19.4
152707	7	Sololá	701	Sololá	2	El tablón	5	Mayo	2023-07-05T00:00:00	2024-11-06T09:00:00	3	Temperatura mínima	18.4
152708	7	Sololá	701	Sololá	2	El tablón	5	Mayo	2023-07-05T00:00:00	2024-11-06T09:00:00	5	Humedad	38
152709	7	Sololá	701	Sololá	2	El tablón	5	Mayo	2023-07-05T00:00:00	2024-11-06T09:00:00	6	Velocidad del viento	8
152710	7	Sololá	701	Sololá	2	El tablón	5	Mayo	2023-07-05T00:00:00	2024-11-06T09:00:00	7	Dirección del viento	8.05
152711	7	Sololá	701	Sololá	2	El tablón	5	Mayo	2023-07-05T00:00:00	2024-11-06T09:00:00	1	Precipitación	0
152712	7	Sololá	701	Sololá	2	El tablón	5	Mayo	2023-07-05T00:00:00	2024-11-06T09:00:00	8	Radiación solar	555
152713	7	Sololá	701	Sololá	2	El tablón	5	Mayo	2023-07-05T00:00:00	2024-11-06T10:00:00	2	Temperatura media	20
152714	7	Sololá	701	Sololá	2	El tablón	5	Mayo	2023-07-05T00:00:00	2024-11-06T10:00:00	4	Temperatura máxima	20
152715	7	Sololá	701	Sololá	2	El tablón	5	Mayo	2023-07-05T00:00:00	2024-11-06T10:00:00	3	Temperatura mínima	19.2
152716	7	Sololá	701	Sololá	2	El tablón	5	Mayo	2023-07-05T00:00:00	2024-11-06T10:00:00	5	Humedad	41
152717	7	Sololá	701	Sololá	2	El tablón	5	Mayo	2023-07-05T00:00:00	2024-11-06T10:00:00	6	Velocidad del viento	9.7
152718	7	Sololá	701	Sololá	2	El tablón	5	Mayo	2023-07-05T00:00:00	2024-11-06T10:00:00	7	Dirección del viento	9.66
152719	7	Sololá	701	Sololá	2	El tablón	5	Mayo	2023-07-05T00:00:00	2024-11-06T10:00:00	1	Precipitación	0
152720	7	Sololá	701	Sololá	2	El tablón	5	Mayo	2023-07-05T00:00:00	2024-11-06T10:00:00	8	Radiación solar	722
152721	7	Sololá	701	Sololá	2	El tablón	5	Mayo	2023-07-05T00:00:00	2024-11-06T11:00:00	2	Temperatura media	21.5
152722	7	Sololá	701	Sololá	2	El tablón	5	Mayo	2023-07-05T00:00:00	2024-11-06T11:00:00	4	Temperatura máxima	21.5
152723	7	Sololá	701	Sololá	2	El tablón	5	Mayo	2023-07-05T00:00:00	2024-11-06T11:00:00	3	Temperatura mínima	20
152724	7	Sololá	701	Sololá	2	El tablón	5	Mayo	2023-07-05T00:00:00	2024-11-06T11:00:00	5	Humedad	37
152725	7	Sololá	701	Sololá	2	El tablón	5	Mayo	2023-07-05T00:00:00	2024-11-06T11:00:00	6	Velocidad del viento	9.7
152726	7	Sololá	701	Sololá	2	El tablón	5	Mayo	2023-07-05T00:00:00	2024-11-06T11:00:00	7	Dirección del viento	9.66
152727	7	Sololá	701	Sololá	2	El tablón	5	Mayo	2023-07-05T00:00:00	2024-11-06T11:00:00	1	Precipitación	0
152728	7	Sololá	701	Sololá	2	El tablón	5	Mayo	2023-07-05T00:00:00	2024-11-06T11:00:00	8	Radiación solar	889
152729	7	Sololá	701	Sololá	2	El tablón	5	Mayo	2023-07-05T00:00:00	2024-11-06T12:00:00	2	Temperatura media	21.9
152730	7	Sololá	701	Sololá	2	El tablón	5	Mayo	2023-07-05T00:00:00	2024-11-06T12:00:00	4	Temperatura máxima	22.3
152731	7	Sololá	701	Sololá	2	El tablón	5	Mayo	2023-07-05T00:00:00	2024-11-06T12:00:00	3	Temperatura mínima	21.3
152732	7	Sololá	701	Sololá	2	El tablón	5	Mayo	2023-07-05T00:00:00	2024-11-06T12:00:00	5	Humedad	34
152733	7	Sololá	701	Sololá	2	El tablón	5	Mayo	2023-07-05T00:00:00	2024-11-06T12:00:00	6	Velocidad del viento	11.3
152734	7	Sololá	701	Sololá	2	El tablón	5	Mayo	2023-07-05T00:00:00	2024-11-06T12:00:00	7	Dirección del viento	11.27
152735	7	Sololá	701	Sololá	2	El tablón	5	Mayo	2023-07-05T00:00:00	2024-11-06T12:00:00	1	Precipitación	0
152736	7	Sololá	701	Sololá	2	El tablón	5	Mayo	2023-07-05T00:00:00	2024-11-06T12:00:00	8	Radiación solar	958
152737	7	Sololá	701	Sololá	2	El tablón	5	Mayo	2023-07-05T00:00:00	2024-11-06T13:00:00	2	Temperatura media	22.2
152738	7	Sololá	701	Sololá	2	El tablón	5	Mayo	2023-07-05T00:00:00	2024-11-06T13:00:00	4	Temperatura máxima	22.6
152739	7	Sololá	701	Sololá	2	El tablón	5	Mayo	2023-07-05T00:00:00	2024-11-06T13:00:00	3	Temperatura mínima	21.7
152740	7	Sololá	701	Sololá	2	El tablón	5	Mayo	2023-07-05T00:00:00	2024-11-06T13:00:00	5	Humedad	32
152741	7	Sololá	701	Sololá	2	El tablón	5	Mayo	2023-07-05T00:00:00	2024-11-06T13:00:00	6	Velocidad del viento	11.3
152742	7	Sololá	701	Sololá	2	El tablón	5	Mayo	2023-07-05T00:00:00	2024-11-06T13:00:00	7	Dirección del viento	11.27
152743	7	Sololá	701	Sololá	2	El tablón	5	Mayo	2023-07-05T00:00:00	2024-11-06T13:00:00	1	Precipitación	0
152744	7	Sololá	701	Sololá	2	El tablón	5	Mayo	2023-07-05T00:00:00	2024-11-06T13:00:00	8	Radiación solar	967
152745	7	Sololá	701	Sololá	2	El tablón	5	Mayo	2023-07-05T00:00:00	2024-11-06T14:00:00	2	Temperatura media	22.9
152746	7	Sololá	701	Sololá	2	El tablón	5	Mayo	2023-07-05T00:00:00	2024-11-06T14:00:00	4	Temperatura máxima	23.2
152747	7	Sololá	701	Sololá	2	El tablón	5	Mayo	2023-07-05T00:00:00	2024-11-06T14:00:00	3	Temperatura mínima	22.2
152748	7	Sololá	701	Sololá	2	El tablón	5	Mayo	2023-07-05T00:00:00	2024-11-06T14:00:00	5	Humedad	30
152749	7	Sololá	701	Sololá	2	El tablón	5	Mayo	2023-07-05T00:00:00	2024-11-06T14:00:00	6	Velocidad del viento	9.7
152750	7	Sololá	701	Sololá	2	El tablón	5	Mayo	2023-07-05T00:00:00	2024-11-06T14:00:00	7	Dirección del viento	9.66
152751	7	Sololá	701	Sololá	2	El tablón	5	Mayo	2023-07-05T00:00:00	2024-11-06T14:00:00	1	Precipitación	0
152752	7	Sololá	701	Sololá	2	El tablón	5	Mayo	2023-07-05T00:00:00	2024-11-06T14:00:00	8	Radiación solar	913
152753	7	Sololá	701	Sololá	2	El tablón	5	Mayo	2023-07-05T00:00:00	2024-11-06T15:00:00	2	Temperatura media	23.7
152754	7	Sololá	701	Sololá	2	El tablón	5	Mayo	2023-07-05T00:00:00	2024-11-06T15:00:00	4	Temperatura máxima	23.8
152755	7	Sololá	701	Sololá	2	El tablón	5	Mayo	2023-07-05T00:00:00	2024-11-06T15:00:00	3	Temperatura mínima	22.9
152756	7	Sololá	701	Sololá	2	El tablón	5	Mayo	2023-07-05T00:00:00	2024-11-06T15:00:00	5	Humedad	26
152757	7	Sololá	701	Sololá	2	El tablón	5	Mayo	2023-07-05T00:00:00	2024-11-06T15:00:00	6	Velocidad del viento	9.7
152758	7	Sololá	701	Sololá	2	El tablón	5	Mayo	2023-07-05T00:00:00	2024-11-06T15:00:00	7	Dirección del viento	9.66
152759	7	Sololá	701	Sololá	2	El tablón	5	Mayo	2023-07-05T00:00:00	2024-11-06T15:00:00	1	Precipitación	0
152760	7	Sololá	701	Sololá	2	El tablón	5	Mayo	2023-07-05T00:00:00	2024-11-06T15:00:00	8	Radiación solar	803
152761	7	Sololá	701	Sololá	2	El tablón	5	Mayo	2023-07-05T00:00:00	2024-11-06T16:00:00	2	Temperatura media	22.8
152762	7	Sololá	701	Sololá	2	El tablón	5	Mayo	2023-07-05T00:00:00	2024-11-06T16:00:00	4	Temperatura máxima	23.7
152763	7	Sololá	701	Sololá	2	El tablón	5	Mayo	2023-07-05T00:00:00	2024-11-06T16:00:00	3	Temperatura mínima	22.8
152764	7	Sololá	701	Sololá	2	El tablón	5	Mayo	2023-07-05T00:00:00	2024-11-06T16:00:00	5	Humedad	35
152765	7	Sololá	701	Sololá	2	El tablón	5	Mayo	2023-07-05T00:00:00	2024-11-06T16:00:00	6	Velocidad del viento	9.7
152766	7	Sololá	701	Sololá	2	El tablón	5	Mayo	2023-07-05T00:00:00	2024-11-06T16:00:00	7	Dirección del viento	9.66
152767	7	Sololá	701	Sololá	2	El tablón	5	Mayo	2023-07-05T00:00:00	2024-11-06T16:00:00	1	Precipitación	0
152768	7	Sololá	701	Sololá	2	El tablón	5	Mayo	2023-07-05T00:00:00	2024-11-06T16:00:00	8	Radiación solar	620
152769	7	Sololá	701	Sololá	2	El tablón	5	Mayo	2023-07-05T00:00:00	2024-11-06T17:00:00	2	Temperatura media	21.6
152770	7	Sololá	701	Sololá	2	El tablón	5	Mayo	2023-07-05T00:00:00	2024-11-06T17:00:00	4	Temperatura máxima	22.8
152771	7	Sololá	701	Sololá	2	El tablón	5	Mayo	2023-07-05T00:00:00	2024-11-06T17:00:00	3	Temperatura mínima	21.6
152772	7	Sololá	701	Sololá	2	El tablón	5	Mayo	2023-07-05T00:00:00	2024-11-06T17:00:00	5	Humedad	43
152773	7	Sololá	701	Sololá	2	El tablón	5	Mayo	2023-07-05T00:00:00	2024-11-06T17:00:00	6	Velocidad del viento	9.7
152774	7	Sololá	701	Sololá	2	El tablón	5	Mayo	2023-07-05T00:00:00	2024-11-06T17:00:00	7	Dirección del viento	9.66
152775	7	Sololá	701	Sololá	2	El tablón	5	Mayo	2023-07-05T00:00:00	2024-11-06T17:00:00	1	Precipitación	0
152776	7	Sololá	701	Sololá	2	El tablón	5	Mayo	2023-07-05T00:00:00	2024-11-06T17:00:00	8	Radiación solar	395
152777	7	Sololá	701	Sololá	2	El tablón	5	Mayo	2023-07-05T00:00:00	2024-11-06T18:00:00	2	Temperatura media	19.8
152778	7	Sololá	701	Sololá	2	El tablón	5	Mayo	2023-07-05T00:00:00	2024-11-06T18:00:00	4	Temperatura máxima	21.6
152779	7	Sololá	701	Sololá	2	El tablón	5	Mayo	2023-07-05T00:00:00	2024-11-06T18:00:00	3	Temperatura mínima	19.8
152780	7	Sololá	701	Sololá	2	El tablón	5	Mayo	2023-07-05T00:00:00	2024-11-06T18:00:00	5	Humedad	53
152781	7	Sololá	701	Sololá	2	El tablón	5	Mayo	2023-07-05T00:00:00	2024-11-06T18:00:00	6	Velocidad del viento	9.7
152782	7	Sololá	701	Sololá	2	El tablón	5	Mayo	2023-07-05T00:00:00	2024-11-06T18:00:00	7	Dirección del viento	9.66
152783	7	Sololá	701	Sololá	2	El tablón	5	Mayo	2023-07-05T00:00:00	2024-11-06T18:00:00	1	Precipitación	0
152784	7	Sololá	701	Sololá	2	El tablón	5	Mayo	2023-07-05T00:00:00	2024-11-06T18:00:00	8	Radiación solar	155
152785	7	Sololá	701	Sololá	2	El tablón	5	Mayo	2023-07-05T00:00:00	2024-11-06T19:00:00	2	Temperatura media	18
152786	7	Sololá	701	Sololá	2	El tablón	5	Mayo	2023-07-05T00:00:00	2024-11-06T19:00:00	4	Temperatura máxima	19.8
152787	7	Sololá	701	Sololá	2	El tablón	5	Mayo	2023-07-05T00:00:00	2024-11-06T19:00:00	3	Temperatura mínima	18
152788	7	Sololá	701	Sololá	2	El tablón	5	Mayo	2023-07-05T00:00:00	2024-11-06T19:00:00	5	Humedad	64
152789	7	Sololá	701	Sololá	2	El tablón	5	Mayo	2023-07-05T00:00:00	2024-11-06T19:00:00	6	Velocidad del viento	6.4
152790	7	Sololá	701	Sololá	2	El tablón	5	Mayo	2023-07-05T00:00:00	2024-11-06T19:00:00	7	Dirección del viento	6.44
152791	7	Sololá	701	Sololá	2	El tablón	5	Mayo	2023-07-05T00:00:00	2024-11-06T19:00:00	1	Precipitación	0
152792	7	Sololá	701	Sololá	2	El tablón	5	Mayo	2023-07-05T00:00:00	2024-11-06T19:00:00	8	Radiación solar	0
152793	7	Sololá	701	Sololá	2	El tablón	5	Mayo	2023-07-05T00:00:00	2024-11-06T20:00:00	2	Temperatura media	16.6
152794	7	Sololá	701	Sololá	2	El tablón	5	Mayo	2023-07-05T00:00:00	2024-11-06T20:00:00	4	Temperatura máxima	18
152795	7	Sololá	701	Sololá	2	El tablón	5	Mayo	2023-07-05T00:00:00	2024-11-06T20:00:00	3	Temperatura mínima	16.6
152796	7	Sololá	701	Sololá	2	El tablón	5	Mayo	2023-07-05T00:00:00	2024-11-06T20:00:00	5	Humedad	76
152797	7	Sololá	701	Sololá	2	El tablón	5	Mayo	2023-07-05T00:00:00	2024-11-06T20:00:00	6	Velocidad del viento	4.8
152798	7	Sololá	701	Sololá	2	El tablón	5	Mayo	2023-07-05T00:00:00	2024-11-06T20:00:00	7	Dirección del viento	4.83
152799	7	Sololá	701	Sololá	2	El tablón	5	Mayo	2023-07-05T00:00:00	2024-11-06T20:00:00	1	Precipitación	0
152800	7	Sololá	701	Sololá	2	El tablón	5	Mayo	2023-07-05T00:00:00	2024-11-06T20:00:00	8	Radiación solar	0
152801	7	Sololá	701	Sololá	2	El tablón	5	Mayo	2023-07-05T00:00:00	2024-11-06T21:00:00	2	Temperatura media	15.1
152802	7	Sololá	701	Sololá	2	El tablón	5	Mayo	2023-07-05T00:00:00	2024-11-06T21:00:00	4	Temperatura máxima	16.6
152803	7	Sololá	701	Sololá	2	El tablón	5	Mayo	2023-07-05T00:00:00	2024-11-06T21:00:00	3	Temperatura mínima	15.1
152804	7	Sololá	701	Sololá	2	El tablón	5	Mayo	2023-07-05T00:00:00	2024-11-06T21:00:00	5	Humedad	85
152805	7	Sololá	701	Sololá	2	El tablón	5	Mayo	2023-07-05T00:00:00	2024-11-06T21:00:00	6	Velocidad del viento	6.4
152806	7	Sololá	701	Sololá	2	El tablón	5	Mayo	2023-07-05T00:00:00	2024-11-06T21:00:00	7	Dirección del viento	6.44
152807	7	Sololá	701	Sololá	2	El tablón	5	Mayo	2023-07-05T00:00:00	2024-11-06T21:00:00	1	Precipitación	0
152808	7	Sololá	701	Sololá	2	El tablón	5	Mayo	2023-07-05T00:00:00	2024-11-06T21:00:00	8	Radiación solar	0
152809	7	Sololá	701	Sololá	2	El tablón	5	Mayo	2023-07-05T00:00:00	2024-11-06T22:00:00	2	Temperatura media	14.7
152810	7	Sololá	701	Sololá	2	El tablón	5	Mayo	2023-07-05T00:00:00	2024-11-06T22:00:00	4	Temperatura máxima	15.1
152811	7	Sololá	701	Sololá	2	El tablón	5	Mayo	2023-07-05T00:00:00	2024-11-06T22:00:00	3	Temperatura mínima	14.7
152812	7	Sololá	701	Sololá	2	El tablón	5	Mayo	2023-07-05T00:00:00	2024-11-06T22:00:00	5	Humedad	84
152813	7	Sololá	701	Sololá	2	El tablón	5	Mayo	2023-07-05T00:00:00	2024-11-06T22:00:00	6	Velocidad del viento	12.9
152814	7	Sololá	701	Sololá	2	El tablón	5	Mayo	2023-07-05T00:00:00	2024-11-06T22:00:00	7	Dirección del viento	12.87
152815	7	Sololá	701	Sololá	2	El tablón	5	Mayo	2023-07-05T00:00:00	2024-11-06T22:00:00	1	Precipitación	0
152816	7	Sololá	701	Sololá	2	El tablón	5	Mayo	2023-07-05T00:00:00	2024-11-06T22:00:00	8	Radiación solar	0
152817	7	Sololá	701	Sololá	2	El tablón	5	Mayo	2023-07-05T00:00:00	2024-11-06T23:00:00	2	Temperatura media	14.4
152818	7	Sololá	701	Sololá	2	El tablón	5	Mayo	2023-07-05T00:00:00	2024-11-06T23:00:00	4	Temperatura máxima	14.7
152819	7	Sololá	701	Sololá	2	El tablón	5	Mayo	2023-07-05T00:00:00	2024-11-06T23:00:00	3	Temperatura mínima	14.4
152820	7	Sololá	701	Sololá	2	El tablón	5	Mayo	2023-07-05T00:00:00	2024-11-06T23:00:00	5	Humedad	80
152821	7	Sololá	701	Sololá	2	El tablón	5	Mayo	2023-07-05T00:00:00	2024-11-06T23:00:00	6	Velocidad del viento	6.4
152822	7	Sololá	701	Sololá	2	El tablón	5	Mayo	2023-07-05T00:00:00	2024-11-06T23:00:00	7	Dirección del viento	6.44
152823	7	Sololá	701	Sololá	2	El tablón	5	Mayo	2023-07-05T00:00:00	2024-11-06T23:00:00	1	Precipitación	0
152824	7	Sololá	701	Sololá	2	El tablón	5	Mayo	2023-07-05T00:00:00	2024-11-06T23:00:00	8	Radiación solar	0
152825	7	Sololá	701	Sololá	2	El tablón	5	Mayo	2023-08-05T00:00:00	2024-11-06T00:00:00	2	Temperatura media	13.7
152826	7	Sololá	701	Sololá	2	El tablón	5	Mayo	2023-08-05T00:00:00	2024-11-06T00:00:00	4	Temperatura máxima	14.6
152827	7	Sololá	701	Sololá	2	El tablón	5	Mayo	2023-08-05T00:00:00	2024-11-06T00:00:00	3	Temperatura mínima	13.7
152828	7	Sololá	701	Sololá	2	El tablón	5	Mayo	2023-08-05T00:00:00	2024-11-06T00:00:00	5	Humedad	84
152829	7	Sololá	701	Sololá	2	El tablón	5	Mayo	2023-08-05T00:00:00	2024-11-06T00:00:00	6	Velocidad del viento	9.7
152830	7	Sololá	701	Sololá	2	El tablón	5	Mayo	2023-08-05T00:00:00	2024-11-06T00:00:00	7	Dirección del viento	9.66
152831	7	Sololá	701	Sololá	2	El tablón	5	Mayo	2023-08-05T00:00:00	2024-11-06T00:00:00	1	Precipitación	0
152832	7	Sololá	701	Sololá	2	El tablón	5	Mayo	2023-08-05T00:00:00	2024-11-06T00:00:00	8	Radiación solar	0
152833	7	Sololá	701	Sololá	2	El tablón	5	Mayo	2023-08-05T00:00:00	2024-11-06T01:00:00	2	Temperatura media	13.6
152834	7	Sololá	701	Sololá	2	El tablón	5	Mayo	2023-08-05T00:00:00	2024-11-06T01:00:00	4	Temperatura máxima	13.9
152835	7	Sololá	701	Sololá	2	El tablón	5	Mayo	2023-08-05T00:00:00	2024-11-06T01:00:00	3	Temperatura mínima	13.6
152836	7	Sololá	701	Sololá	2	El tablón	5	Mayo	2023-08-05T00:00:00	2024-11-06T01:00:00	5	Humedad	71
152837	7	Sololá	701	Sololá	2	El tablón	5	Mayo	2023-08-05T00:00:00	2024-11-06T01:00:00	6	Velocidad del viento	3.2
152838	7	Sololá	701	Sololá	2	El tablón	5	Mayo	2023-08-05T00:00:00	2024-11-06T01:00:00	7	Dirección del viento	3.22
152839	7	Sololá	701	Sololá	2	El tablón	5	Mayo	2023-08-05T00:00:00	2024-11-06T01:00:00	1	Precipitación	0
152840	7	Sololá	701	Sololá	2	El tablón	5	Mayo	2023-08-05T00:00:00	2024-11-06T01:00:00	8	Radiación solar	0
152841	7	Sololá	701	Sololá	2	El tablón	5	Mayo	2023-08-05T00:00:00	2024-11-06T02:00:00	2	Temperatura media	13.4
152842	7	Sololá	701	Sololá	2	El tablón	5	Mayo	2023-08-05T00:00:00	2024-11-06T02:00:00	4	Temperatura máxima	13.9
152843	7	Sololá	701	Sololá	2	El tablón	5	Mayo	2023-08-05T00:00:00	2024-11-06T02:00:00	3	Temperatura mínima	13.4
152844	7	Sololá	701	Sololá	2	El tablón	5	Mayo	2023-08-05T00:00:00	2024-11-06T02:00:00	5	Humedad	71
152845	7	Sololá	701	Sololá	2	El tablón	5	Mayo	2023-08-05T00:00:00	2024-11-06T02:00:00	6	Velocidad del viento	3.2
152846	7	Sololá	701	Sololá	2	El tablón	5	Mayo	2023-08-05T00:00:00	2024-11-06T02:00:00	7	Dirección del viento	3.22
152847	7	Sololá	701	Sololá	2	El tablón	5	Mayo	2023-08-05T00:00:00	2024-11-06T02:00:00	1	Precipitación	0
152848	7	Sololá	701	Sololá	2	El tablón	5	Mayo	2023-08-05T00:00:00	2024-11-06T02:00:00	8	Radiación solar	0
152849	7	Sololá	701	Sololá	2	El tablón	5	Mayo	2023-08-05T00:00:00	2024-11-06T03:00:00	2	Temperatura media	13.4
152850	7	Sololá	701	Sololá	2	El tablón	5	Mayo	2023-08-05T00:00:00	2024-11-06T03:00:00	4	Temperatura máxima	13.5
152851	7	Sololá	701	Sololá	2	El tablón	5	Mayo	2023-08-05T00:00:00	2024-11-06T03:00:00	3	Temperatura mínima	13.1
152852	7	Sololá	701	Sololá	2	El tablón	5	Mayo	2023-08-05T00:00:00	2024-11-06T03:00:00	5	Humedad	59
152853	7	Sololá	701	Sololá	2	El tablón	5	Mayo	2023-08-05T00:00:00	2024-11-06T03:00:00	6	Velocidad del viento	4.8
152854	7	Sololá	701	Sololá	2	El tablón	5	Mayo	2023-08-05T00:00:00	2024-11-06T03:00:00	7	Dirección del viento	4.83
152855	7	Sololá	701	Sololá	2	El tablón	5	Mayo	2023-08-05T00:00:00	2024-11-06T03:00:00	1	Precipitación	0
152856	7	Sololá	701	Sololá	2	El tablón	5	Mayo	2023-08-05T00:00:00	2024-11-06T03:00:00	8	Radiación solar	0
152857	7	Sololá	701	Sololá	2	El tablón	5	Mayo	2023-08-05T00:00:00	2024-11-06T04:00:00	2	Temperatura media	11.3
152858	7	Sololá	701	Sololá	2	El tablón	5	Mayo	2023-08-05T00:00:00	2024-11-06T04:00:00	4	Temperatura máxima	13.7
152859	7	Sololá	701	Sololá	2	El tablón	5	Mayo	2023-08-05T00:00:00	2024-11-06T04:00:00	3	Temperatura mínima	11.3
152860	7	Sololá	701	Sololá	2	El tablón	5	Mayo	2023-08-05T00:00:00	2024-11-06T04:00:00	5	Humedad	65
152861	7	Sololá	701	Sololá	2	El tablón	5	Mayo	2023-08-05T00:00:00	2024-11-06T04:00:00	6	Velocidad del viento	3.2
152862	7	Sololá	701	Sololá	2	El tablón	5	Mayo	2023-08-05T00:00:00	2024-11-06T04:00:00	7	Dirección del viento	3.22
152863	7	Sololá	701	Sololá	2	El tablón	5	Mayo	2023-08-05T00:00:00	2024-11-06T04:00:00	1	Precipitación	0
152864	7	Sololá	701	Sololá	2	El tablón	5	Mayo	2023-08-05T00:00:00	2024-11-06T04:00:00	8	Radiación solar	0
152865	7	Sololá	701	Sololá	2	El tablón	5	Mayo	2023-08-05T00:00:00	2024-11-06T05:00:00	2	Temperatura media	11.3
152866	7	Sololá	701	Sololá	2	El tablón	5	Mayo	2023-08-05T00:00:00	2024-11-06T05:00:00	4	Temperatura máxima	11.7
152867	7	Sololá	701	Sololá	2	El tablón	5	Mayo	2023-08-05T00:00:00	2024-11-06T05:00:00	3	Temperatura mínima	11.1
152868	7	Sololá	701	Sololá	2	El tablón	5	Mayo	2023-08-05T00:00:00	2024-11-06T05:00:00	5	Humedad	64
152869	7	Sololá	701	Sololá	2	El tablón	5	Mayo	2023-08-05T00:00:00	2024-11-06T05:00:00	6	Velocidad del viento	4.8
152870	7	Sololá	701	Sololá	2	El tablón	5	Mayo	2023-08-05T00:00:00	2024-11-06T05:00:00	7	Dirección del viento	4.83
152871	7	Sololá	701	Sololá	2	El tablón	5	Mayo	2023-08-05T00:00:00	2024-11-06T05:00:00	1	Precipitación	0
152872	7	Sololá	701	Sololá	2	El tablón	5	Mayo	2023-08-05T00:00:00	2024-11-06T05:00:00	8	Radiación solar	0
152873	7	Sololá	701	Sololá	2	El tablón	5	Mayo	2023-08-05T00:00:00	2024-11-06T06:00:00	2	Temperatura media	11.3
152874	7	Sololá	701	Sololá	2	El tablón	5	Mayo	2023-08-05T00:00:00	2024-11-06T06:00:00	4	Temperatura máxima	11.4
152875	7	Sololá	701	Sololá	2	El tablón	5	Mayo	2023-08-05T00:00:00	2024-11-06T06:00:00	3	Temperatura mínima	11.1
152876	7	Sololá	701	Sololá	2	El tablón	5	Mayo	2023-08-05T00:00:00	2024-11-06T06:00:00	5	Humedad	64
152877	7	Sololá	701	Sololá	2	El tablón	5	Mayo	2023-08-05T00:00:00	2024-11-06T06:00:00	6	Velocidad del viento	3.2
152878	7	Sololá	701	Sololá	2	El tablón	5	Mayo	2023-08-05T00:00:00	2024-11-06T06:00:00	7	Dirección del viento	3.22
152879	7	Sololá	701	Sololá	2	El tablón	5	Mayo	2023-08-05T00:00:00	2024-11-06T06:00:00	1	Precipitación	0
152880	7	Sololá	701	Sololá	2	El tablón	5	Mayo	2023-08-05T00:00:00	2024-11-06T06:00:00	8	Radiación solar	5
152881	7	Sololá	701	Sololá	2	El tablón	5	Mayo	2023-08-05T00:00:00	2024-11-06T07:00:00	2	Temperatura media	15.8
152882	7	Sololá	701	Sololá	2	El tablón	5	Mayo	2023-08-05T00:00:00	2024-11-06T07:00:00	4	Temperatura máxima	15.8
152883	7	Sololá	701	Sololá	2	El tablón	5	Mayo	2023-08-05T00:00:00	2024-11-06T07:00:00	3	Temperatura mínima	11.3
152884	7	Sololá	701	Sololá	2	El tablón	5	Mayo	2023-08-05T00:00:00	2024-11-06T07:00:00	5	Humedad	49
152885	7	Sololá	701	Sololá	2	El tablón	5	Mayo	2023-08-05T00:00:00	2024-11-06T07:00:00	6	Velocidad del viento	3.2
152886	7	Sololá	701	Sololá	2	El tablón	5	Mayo	2023-08-05T00:00:00	2024-11-06T07:00:00	7	Dirección del viento	3.22
152887	7	Sololá	701	Sololá	2	El tablón	5	Mayo	2023-08-05T00:00:00	2024-11-06T07:00:00	1	Precipitación	0
152888	7	Sololá	701	Sololá	2	El tablón	5	Mayo	2023-08-05T00:00:00	2024-11-06T07:00:00	8	Radiación solar	104
152889	7	Sololá	701	Sololá	2	El tablón	5	Mayo	2023-08-05T00:00:00	2024-11-06T08:00:00	2	Temperatura media	18.3
152890	7	Sololá	701	Sololá	2	El tablón	5	Mayo	2023-08-05T00:00:00	2024-11-06T08:00:00	4	Temperatura máxima	18.3
152891	7	Sololá	701	Sololá	2	El tablón	5	Mayo	2023-08-05T00:00:00	2024-11-06T08:00:00	3	Temperatura mínima	15.8
152892	7	Sololá	701	Sololá	2	El tablón	5	Mayo	2023-08-05T00:00:00	2024-11-06T08:00:00	5	Humedad	43
152893	7	Sololá	701	Sololá	2	El tablón	5	Mayo	2023-08-05T00:00:00	2024-11-06T08:00:00	6	Velocidad del viento	4.8
152894	7	Sololá	701	Sololá	2	El tablón	5	Mayo	2023-08-05T00:00:00	2024-11-06T08:00:00	7	Dirección del viento	4.83
152895	7	Sololá	701	Sololá	2	El tablón	5	Mayo	2023-08-05T00:00:00	2024-11-06T08:00:00	1	Precipitación	0
152896	7	Sololá	701	Sololá	2	El tablón	5	Mayo	2023-08-05T00:00:00	2024-11-06T08:00:00	8	Radiación solar	336
152897	7	Sololá	701	Sololá	2	El tablón	5	Mayo	2023-08-05T00:00:00	2024-11-06T09:00:00	2	Temperatura media	19.7
152898	7	Sololá	701	Sololá	2	El tablón	5	Mayo	2023-08-05T00:00:00	2024-11-06T09:00:00	4	Temperatura máxima	19.9
152899	7	Sololá	701	Sololá	2	El tablón	5	Mayo	2023-08-05T00:00:00	2024-11-06T09:00:00	3	Temperatura mínima	18.3
152900	7	Sololá	701	Sololá	2	El tablón	5	Mayo	2023-08-05T00:00:00	2024-11-06T09:00:00	5	Humedad	42
152901	7	Sololá	701	Sololá	2	El tablón	5	Mayo	2023-08-05T00:00:00	2024-11-06T09:00:00	6	Velocidad del viento	8
152902	7	Sololá	701	Sololá	2	El tablón	5	Mayo	2023-08-05T00:00:00	2024-11-06T09:00:00	7	Dirección del viento	8.05
152903	7	Sololá	701	Sololá	2	El tablón	5	Mayo	2023-08-05T00:00:00	2024-11-06T09:00:00	1	Precipitación	0
152904	7	Sololá	701	Sololá	2	El tablón	5	Mayo	2023-08-05T00:00:00	2024-11-06T09:00:00	8	Radiación solar	531
152905	7	Sololá	701	Sololá	2	El tablón	5	Mayo	2023-08-05T00:00:00	2024-11-06T10:00:00	2	Temperatura media	21.1
152906	7	Sololá	701	Sololá	2	El tablón	5	Mayo	2023-08-05T00:00:00	2024-11-06T10:00:00	4	Temperatura máxima	21.2
152907	7	Sololá	701	Sololá	2	El tablón	5	Mayo	2023-08-05T00:00:00	2024-11-06T10:00:00	3	Temperatura mínima	19.5
152908	7	Sololá	701	Sololá	2	El tablón	5	Mayo	2023-08-05T00:00:00	2024-11-06T10:00:00	5	Humedad	41
152909	7	Sololá	701	Sololá	2	El tablón	5	Mayo	2023-08-05T00:00:00	2024-11-06T10:00:00	6	Velocidad del viento	9.7
152910	7	Sololá	701	Sololá	2	El tablón	5	Mayo	2023-08-05T00:00:00	2024-11-06T10:00:00	7	Dirección del viento	9.66
152911	7	Sololá	701	Sololá	2	El tablón	5	Mayo	2023-08-05T00:00:00	2024-11-06T10:00:00	1	Precipitación	0
152912	7	Sololá	701	Sololá	2	El tablón	5	Mayo	2023-08-05T00:00:00	2024-11-06T10:00:00	8	Radiación solar	740
152913	7	Sololá	701	Sololá	2	El tablón	5	Mayo	2023-08-05T00:00:00	2024-11-06T11:00:00	2	Temperatura media	21.6
152914	7	Sololá	701	Sololá	2	El tablón	5	Mayo	2023-08-05T00:00:00	2024-11-06T11:00:00	4	Temperatura máxima	21.9
152915	7	Sololá	701	Sololá	2	El tablón	5	Mayo	2023-08-05T00:00:00	2024-11-06T11:00:00	3	Temperatura mínima	21.1
152916	7	Sololá	701	Sololá	2	El tablón	5	Mayo	2023-08-05T00:00:00	2024-11-06T11:00:00	5	Humedad	38
152917	7	Sololá	701	Sololá	2	El tablón	5	Mayo	2023-08-05T00:00:00	2024-11-06T11:00:00	6	Velocidad del viento	9.7
152918	7	Sololá	701	Sololá	2	El tablón	5	Mayo	2023-08-05T00:00:00	2024-11-06T11:00:00	7	Dirección del viento	9.66
152919	7	Sololá	701	Sololá	2	El tablón	5	Mayo	2023-08-05T00:00:00	2024-11-06T11:00:00	1	Precipitación	0
152920	7	Sololá	701	Sololá	2	El tablón	5	Mayo	2023-08-05T00:00:00	2024-11-06T11:00:00	8	Radiación solar	860
152921	7	Sololá	701	Sololá	2	El tablón	5	Mayo	2023-08-05T00:00:00	2024-11-06T12:00:00	2	Temperatura media	22.3
152922	7	Sololá	701	Sololá	2	El tablón	5	Mayo	2023-08-05T00:00:00	2024-11-06T12:00:00	4	Temperatura máxima	22.3
152923	7	Sololá	701	Sololá	2	El tablón	5	Mayo	2023-08-05T00:00:00	2024-11-06T12:00:00	3	Temperatura mínima	21.6
152924	7	Sololá	701	Sololá	2	El tablón	5	Mayo	2023-08-05T00:00:00	2024-11-06T12:00:00	5	Humedad	40
152925	7	Sololá	701	Sololá	2	El tablón	5	Mayo	2023-08-05T00:00:00	2024-11-06T12:00:00	6	Velocidad del viento	11.3
152926	7	Sololá	701	Sololá	2	El tablón	5	Mayo	2023-08-05T00:00:00	2024-11-06T12:00:00	7	Dirección del viento	11.27
152927	7	Sololá	701	Sololá	2	El tablón	5	Mayo	2023-08-05T00:00:00	2024-11-06T12:00:00	1	Precipitación	0
152928	7	Sololá	701	Sololá	2	El tablón	5	Mayo	2023-08-05T00:00:00	2024-11-06T12:00:00	8	Radiación solar	929
152929	7	Sololá	701	Sololá	2	El tablón	5	Mayo	2023-08-05T00:00:00	2024-11-06T13:00:00	2	Temperatura media	21.7
152930	7	Sololá	701	Sololá	2	El tablón	5	Mayo	2023-08-05T00:00:00	2024-11-06T13:00:00	4	Temperatura máxima	22.7
152931	7	Sololá	701	Sololá	2	El tablón	5	Mayo	2023-08-05T00:00:00	2024-11-06T13:00:00	3	Temperatura mínima	21.6
152932	7	Sololá	701	Sololá	2	El tablón	5	Mayo	2023-08-05T00:00:00	2024-11-06T13:00:00	5	Humedad	46
152933	7	Sololá	701	Sololá	2	El tablón	5	Mayo	2023-08-05T00:00:00	2024-11-06T13:00:00	6	Velocidad del viento	8
152934	7	Sololá	701	Sololá	2	El tablón	5	Mayo	2023-08-05T00:00:00	2024-11-06T13:00:00	7	Dirección del viento	8.05
152935	7	Sololá	701	Sololá	2	El tablón	5	Mayo	2023-08-05T00:00:00	2024-11-06T13:00:00	1	Precipitación	0
152936	7	Sololá	701	Sololá	2	El tablón	5	Mayo	2023-08-05T00:00:00	2024-11-06T13:00:00	8	Radiación solar	933
152937	7	Sololá	701	Sololá	2	El tablón	5	Mayo	2023-08-05T00:00:00	2024-11-06T14:00:00	2	Temperatura media	22.7
152938	7	Sololá	701	Sololá	2	El tablón	5	Mayo	2023-08-05T00:00:00	2024-11-06T14:00:00	4	Temperatura máxima	23.2
152939	7	Sololá	701	Sololá	2	El tablón	5	Mayo	2023-08-05T00:00:00	2024-11-06T14:00:00	3	Temperatura mínima	21.7
152940	7	Sololá	701	Sololá	2	El tablón	5	Mayo	2023-08-05T00:00:00	2024-11-06T14:00:00	5	Humedad	45
152941	7	Sololá	701	Sololá	2	El tablón	5	Mayo	2023-08-05T00:00:00	2024-11-06T14:00:00	6	Velocidad del viento	9.7
152942	7	Sololá	701	Sololá	2	El tablón	5	Mayo	2023-08-05T00:00:00	2024-11-06T14:00:00	7	Dirección del viento	9.66
152943	7	Sololá	701	Sololá	2	El tablón	5	Mayo	2023-08-05T00:00:00	2024-11-06T14:00:00	1	Precipitación	0
152944	7	Sololá	701	Sololá	2	El tablón	5	Mayo	2023-08-05T00:00:00	2024-11-06T14:00:00	8	Radiación solar	897
152945	7	Sololá	701	Sololá	2	El tablón	5	Mayo	2023-08-05T00:00:00	2024-11-06T15:00:00	2	Temperatura media	20.6
152946	7	Sololá	701	Sololá	2	El tablón	5	Mayo	2023-08-05T00:00:00	2024-11-06T15:00:00	4	Temperatura máxima	23.1
152947	7	Sololá	701	Sololá	2	El tablón	5	Mayo	2023-08-05T00:00:00	2024-11-06T15:00:00	3	Temperatura mínima	20.6
152948	7	Sololá	701	Sololá	2	El tablón	5	Mayo	2023-08-05T00:00:00	2024-11-06T15:00:00	5	Humedad	72
152949	7	Sololá	701	Sololá	2	El tablón	5	Mayo	2023-08-05T00:00:00	2024-11-06T15:00:00	6	Velocidad del viento	9.7
152950	7	Sololá	701	Sololá	2	El tablón	5	Mayo	2023-08-05T00:00:00	2024-11-06T15:00:00	7	Dirección del viento	9.66
152951	7	Sololá	701	Sololá	2	El tablón	5	Mayo	2023-08-05T00:00:00	2024-11-06T15:00:00	1	Precipitación	0
152952	7	Sololá	701	Sololá	2	El tablón	5	Mayo	2023-08-05T00:00:00	2024-11-06T15:00:00	8	Radiación solar	812
152953	7	Sololá	701	Sololá	2	El tablón	5	Mayo	2023-08-05T00:00:00	2024-11-06T16:00:00	2	Temperatura media	18.3
152954	7	Sololá	701	Sololá	2	El tablón	5	Mayo	2023-08-05T00:00:00	2024-11-06T16:00:00	4	Temperatura máxima	20.6
152955	7	Sololá	701	Sololá	2	El tablón	5	Mayo	2023-08-05T00:00:00	2024-11-06T16:00:00	3	Temperatura mínima	18.3
152956	7	Sololá	701	Sololá	2	El tablón	5	Mayo	2023-08-05T00:00:00	2024-11-06T16:00:00	5	Humedad	84
152957	7	Sololá	701	Sololá	2	El tablón	5	Mayo	2023-08-05T00:00:00	2024-11-06T16:00:00	6	Velocidad del viento	8
152958	7	Sololá	701	Sololá	2	El tablón	5	Mayo	2023-08-05T00:00:00	2024-11-06T16:00:00	7	Dirección del viento	8.05
152959	7	Sololá	701	Sololá	2	El tablón	5	Mayo	2023-08-05T00:00:00	2024-11-06T16:00:00	1	Precipitación	0
152960	7	Sololá	701	Sololá	2	El tablón	5	Mayo	2023-08-05T00:00:00	2024-11-06T16:00:00	8	Radiación solar	369
152961	7	Sololá	701	Sololá	2	El tablón	5	Mayo	2023-08-05T00:00:00	2024-11-06T17:00:00	2	Temperatura media	17.5
152962	7	Sololá	701	Sololá	2	El tablón	5	Mayo	2023-08-05T00:00:00	2024-11-06T17:00:00	4	Temperatura máxima	18.6
152963	7	Sololá	701	Sololá	2	El tablón	5	Mayo	2023-08-05T00:00:00	2024-11-06T17:00:00	3	Temperatura mínima	17.5
152964	7	Sololá	701	Sololá	2	El tablón	5	Mayo	2023-08-05T00:00:00	2024-11-06T17:00:00	5	Humedad	86
152965	7	Sololá	701	Sololá	2	El tablón	5	Mayo	2023-08-05T00:00:00	2024-11-06T17:00:00	6	Velocidad del viento	8
152966	7	Sololá	701	Sololá	2	El tablón	5	Mayo	2023-08-05T00:00:00	2024-11-06T17:00:00	7	Dirección del viento	8.05
152967	7	Sololá	701	Sololá	2	El tablón	5	Mayo	2023-08-05T00:00:00	2024-11-06T17:00:00	1	Precipitación	0
152968	7	Sololá	701	Sololá	2	El tablón	5	Mayo	2023-08-05T00:00:00	2024-11-06T17:00:00	8	Radiación solar	233
152969	7	Sololá	701	Sololá	2	El tablón	5	Mayo	2023-08-05T00:00:00	2024-11-06T18:00:00	2	Temperatura media	16.8
152970	7	Sololá	701	Sololá	2	El tablón	5	Mayo	2023-08-05T00:00:00	2024-11-06T18:00:00	4	Temperatura máxima	17.5
152971	7	Sololá	701	Sololá	2	El tablón	5	Mayo	2023-08-05T00:00:00	2024-11-06T18:00:00	3	Temperatura mínima	16.8
152972	7	Sololá	701	Sololá	2	El tablón	5	Mayo	2023-08-05T00:00:00	2024-11-06T18:00:00	5	Humedad	87
152973	7	Sololá	701	Sololá	2	El tablón	5	Mayo	2023-08-05T00:00:00	2024-11-06T18:00:00	6	Velocidad del viento	3.2
152974	7	Sololá	701	Sololá	2	El tablón	5	Mayo	2023-08-05T00:00:00	2024-11-06T18:00:00	7	Dirección del viento	3.22
152975	7	Sololá	701	Sololá	2	El tablón	5	Mayo	2023-08-05T00:00:00	2024-11-06T18:00:00	1	Precipitación	0
152976	7	Sololá	701	Sololá	2	El tablón	5	Mayo	2023-08-05T00:00:00	2024-11-06T18:00:00	8	Radiación solar	31
152977	7	Sololá	701	Sololá	2	El tablón	5	Mayo	2023-08-05T00:00:00	2024-11-06T19:00:00	2	Temperatura media	16.7
152978	7	Sololá	701	Sololá	2	El tablón	5	Mayo	2023-08-05T00:00:00	2024-11-06T19:00:00	4	Temperatura máxima	16.9
152979	7	Sololá	701	Sololá	2	El tablón	5	Mayo	2023-08-05T00:00:00	2024-11-06T19:00:00	3	Temperatura mínima	16.4
152980	7	Sololá	701	Sololá	2	El tablón	5	Mayo	2023-08-05T00:00:00	2024-11-06T19:00:00	5	Humedad	83
152981	7	Sololá	701	Sololá	2	El tablón	5	Mayo	2023-08-05T00:00:00	2024-11-06T19:00:00	6	Velocidad del viento	3.2
152982	7	Sololá	701	Sololá	2	El tablón	5	Mayo	2023-08-05T00:00:00	2024-11-06T19:00:00	7	Dirección del viento	3.22
152983	7	Sololá	701	Sololá	2	El tablón	5	Mayo	2023-08-05T00:00:00	2024-11-06T19:00:00	1	Precipitación	0
152984	7	Sololá	701	Sololá	2	El tablón	5	Mayo	2023-08-05T00:00:00	2024-11-06T19:00:00	8	Radiación solar	0
152985	7	Sololá	701	Sololá	2	El tablón	5	Mayo	2023-08-05T00:00:00	2024-11-06T20:00:00	2	Temperatura media	16.4
152986	7	Sololá	701	Sololá	2	El tablón	5	Mayo	2023-08-05T00:00:00	2024-11-06T20:00:00	4	Temperatura máxima	16.7
152987	7	Sololá	701	Sololá	2	El tablón	5	Mayo	2023-08-05T00:00:00	2024-11-06T20:00:00	3	Temperatura mínima	16.4
152988	7	Sololá	701	Sololá	2	El tablón	5	Mayo	2023-08-05T00:00:00	2024-11-06T20:00:00	5	Humedad	81
152989	7	Sololá	701	Sololá	2	El tablón	5	Mayo	2023-08-05T00:00:00	2024-11-06T20:00:00	6	Velocidad del viento	3.2
152990	7	Sololá	701	Sololá	2	El tablón	5	Mayo	2023-08-05T00:00:00	2024-11-06T20:00:00	7	Dirección del viento	3.22
152991	7	Sololá	701	Sololá	2	El tablón	5	Mayo	2023-08-05T00:00:00	2024-11-06T20:00:00	1	Precipitación	0
152992	7	Sololá	701	Sololá	2	El tablón	5	Mayo	2023-08-05T00:00:00	2024-11-06T20:00:00	8	Radiación solar	0
152993	7	Sololá	701	Sololá	2	El tablón	5	Mayo	2023-08-05T00:00:00	2024-11-06T21:00:00	2	Temperatura media	15.7
152994	7	Sololá	701	Sololá	2	El tablón	5	Mayo	2023-08-05T00:00:00	2024-11-06T21:00:00	4	Temperatura máxima	16.4
152995	7	Sololá	701	Sololá	2	El tablón	5	Mayo	2023-08-05T00:00:00	2024-11-06T21:00:00	3	Temperatura mínima	15.7
152996	7	Sololá	701	Sololá	2	El tablón	5	Mayo	2023-08-05T00:00:00	2024-11-06T21:00:00	5	Humedad	84
152997	7	Sololá	701	Sololá	2	El tablón	5	Mayo	2023-08-05T00:00:00	2024-11-06T21:00:00	6	Velocidad del viento	3.2
152998	7	Sololá	701	Sololá	2	El tablón	5	Mayo	2023-08-05T00:00:00	2024-11-06T21:00:00	7	Dirección del viento	3.22
152999	7	Sololá	701	Sololá	2	El tablón	5	Mayo	2023-08-05T00:00:00	2024-11-06T21:00:00	1	Precipitación	0
153000	7	Sololá	701	Sololá	2	El tablón	5	Mayo	2023-08-05T00:00:00	2024-11-06T21:00:00	8	Radiación solar	0
153001	7	Sololá	701	Sololá	2	El tablón	5	Mayo	2023-08-05T00:00:00	2024-11-06T22:00:00	2	Temperatura media	15.2
153002	7	Sololá	701	Sololá	2	El tablón	5	Mayo	2023-08-05T00:00:00	2024-11-06T22:00:00	4	Temperatura máxima	15.7
153003	7	Sololá	701	Sololá	2	El tablón	5	Mayo	2023-08-05T00:00:00	2024-11-06T22:00:00	3	Temperatura mínima	15.2
153004	7	Sololá	701	Sololá	2	El tablón	5	Mayo	2023-08-05T00:00:00	2024-11-06T22:00:00	5	Humedad	84
153005	7	Sololá	701	Sololá	2	El tablón	5	Mayo	2023-08-05T00:00:00	2024-11-06T22:00:00	6	Velocidad del viento	1.6
153006	7	Sololá	701	Sololá	2	El tablón	5	Mayo	2023-08-05T00:00:00	2024-11-06T22:00:00	7	Dirección del viento	1.61
153007	7	Sololá	701	Sololá	2	El tablón	5	Mayo	2023-08-05T00:00:00	2024-11-06T22:00:00	1	Precipitación	0
153008	7	Sololá	701	Sololá	2	El tablón	5	Mayo	2023-08-05T00:00:00	2024-11-06T22:00:00	8	Radiación solar	0
153009	7	Sololá	701	Sololá	2	El tablón	5	Mayo	2023-08-05T00:00:00	2024-11-06T23:00:00	2	Temperatura media	14.7
153010	7	Sololá	701	Sololá	2	El tablón	5	Mayo	2023-08-05T00:00:00	2024-11-06T23:00:00	4	Temperatura máxima	15.2
153011	7	Sololá	701	Sololá	2	El tablón	5	Mayo	2023-08-05T00:00:00	2024-11-06T23:00:00	3	Temperatura mínima	14.7
153012	7	Sololá	701	Sololá	2	El tablón	5	Mayo	2023-08-05T00:00:00	2024-11-06T23:00:00	5	Humedad	84
153013	7	Sololá	701	Sololá	2	El tablón	5	Mayo	2023-08-05T00:00:00	2024-11-06T23:00:00	6	Velocidad del viento	8
153014	7	Sololá	701	Sololá	2	El tablón	5	Mayo	2023-08-05T00:00:00	2024-11-06T23:00:00	7	Dirección del viento	8.05
153015	7	Sololá	701	Sololá	2	El tablón	5	Mayo	2023-08-05T00:00:00	2024-11-06T23:00:00	1	Precipitación	0
153016	7	Sololá	701	Sololá	2	El tablón	5	Mayo	2023-08-05T00:00:00	2024-11-06T23:00:00	8	Radiación solar	0
153017	7	Sololá	701	Sololá	2	El tablón	5	Mayo	2023-09-05T00:00:00	2024-11-06T00:00:00	2	Temperatura media	14
153018	7	Sololá	701	Sololá	2	El tablón	5	Mayo	2023-09-05T00:00:00	2024-11-06T00:00:00	4	Temperatura máxima	14.8
153019	7	Sololá	701	Sololá	2	El tablón	5	Mayo	2023-09-05T00:00:00	2024-11-06T00:00:00	3	Temperatura mínima	14
153020	7	Sololá	701	Sololá	2	El tablón	5	Mayo	2023-09-05T00:00:00	2024-11-06T00:00:00	5	Humedad	86
153021	7	Sololá	701	Sololá	2	El tablón	5	Mayo	2023-09-05T00:00:00	2024-11-06T00:00:00	6	Velocidad del viento	11.3
153022	7	Sololá	701	Sololá	2	El tablón	5	Mayo	2023-09-05T00:00:00	2024-11-06T00:00:00	7	Dirección del viento	11.27
153023	7	Sololá	701	Sololá	2	El tablón	5	Mayo	2023-09-05T00:00:00	2024-11-06T00:00:00	1	Precipitación	0
153024	7	Sololá	701	Sololá	2	El tablón	5	Mayo	2023-09-05T00:00:00	2024-11-06T00:00:00	8	Radiación solar	0
153025	7	Sololá	701	Sololá	2	El tablón	5	Mayo	2023-09-05T00:00:00	2024-11-06T01:00:00	2	Temperatura media	14.3
153026	7	Sololá	701	Sololá	2	El tablón	5	Mayo	2023-09-05T00:00:00	2024-11-06T01:00:00	4	Temperatura máxima	14.4
153027	7	Sololá	701	Sololá	2	El tablón	5	Mayo	2023-09-05T00:00:00	2024-11-06T01:00:00	3	Temperatura mínima	14
153028	7	Sololá	701	Sololá	2	El tablón	5	Mayo	2023-09-05T00:00:00	2024-11-06T01:00:00	5	Humedad	71
153029	7	Sololá	701	Sololá	2	El tablón	5	Mayo	2023-09-05T00:00:00	2024-11-06T01:00:00	6	Velocidad del viento	9.7
153030	7	Sololá	701	Sololá	2	El tablón	5	Mayo	2023-09-05T00:00:00	2024-11-06T01:00:00	7	Dirección del viento	9.66
153031	7	Sololá	701	Sololá	2	El tablón	5	Mayo	2023-09-05T00:00:00	2024-11-06T01:00:00	1	Precipitación	0
153032	7	Sololá	701	Sololá	2	El tablón	5	Mayo	2023-09-05T00:00:00	2024-11-06T01:00:00	8	Radiación solar	0
153033	7	Sololá	701	Sololá	2	El tablón	5	Mayo	2023-09-05T00:00:00	2024-11-06T02:00:00	2	Temperatura media	13.4
153034	7	Sololá	701	Sololá	2	El tablón	5	Mayo	2023-09-05T00:00:00	2024-11-06T02:00:00	4	Temperatura máxima	14.4
153035	7	Sololá	701	Sololá	2	El tablón	5	Mayo	2023-09-05T00:00:00	2024-11-06T02:00:00	3	Temperatura mínima	13.4
153036	7	Sololá	701	Sololá	2	El tablón	5	Mayo	2023-09-05T00:00:00	2024-11-06T02:00:00	5	Humedad	65
153037	7	Sololá	701	Sololá	2	El tablón	5	Mayo	2023-09-05T00:00:00	2024-11-06T02:00:00	6	Velocidad del viento	3.2
153038	7	Sololá	701	Sololá	2	El tablón	5	Mayo	2023-09-05T00:00:00	2024-11-06T02:00:00	7	Dirección del viento	3.22
153039	7	Sololá	701	Sololá	2	El tablón	5	Mayo	2023-09-05T00:00:00	2024-11-06T02:00:00	1	Precipitación	0
153040	7	Sololá	701	Sololá	2	El tablón	5	Mayo	2023-09-05T00:00:00	2024-11-06T02:00:00	8	Radiación solar	0
153041	7	Sololá	701	Sololá	2	El tablón	5	Mayo	2023-09-05T00:00:00	2024-11-06T03:00:00	2	Temperatura media	12.6
153042	7	Sololá	701	Sololá	2	El tablón	5	Mayo	2023-09-05T00:00:00	2024-11-06T03:00:00	4	Temperatura máxima	13.7
153043	7	Sololá	701	Sololá	2	El tablón	5	Mayo	2023-09-05T00:00:00	2024-11-06T03:00:00	3	Temperatura mínima	12.6
153044	7	Sololá	701	Sololá	2	El tablón	5	Mayo	2023-09-05T00:00:00	2024-11-06T03:00:00	5	Humedad	61
153045	7	Sololá	701	Sololá	2	El tablón	5	Mayo	2023-09-05T00:00:00	2024-11-06T03:00:00	6	Velocidad del viento	1.6
153046	7	Sololá	701	Sololá	2	El tablón	5	Mayo	2023-09-05T00:00:00	2024-11-06T03:00:00	7	Dirección del viento	1.61
153047	7	Sololá	701	Sololá	2	El tablón	5	Mayo	2023-09-05T00:00:00	2024-11-06T03:00:00	1	Precipitación	0
153048	7	Sololá	701	Sololá	2	El tablón	5	Mayo	2023-09-05T00:00:00	2024-11-06T03:00:00	8	Radiación solar	0
153049	7	Sololá	701	Sololá	2	El tablón	5	Mayo	2023-09-05T00:00:00	2024-11-06T04:00:00	2	Temperatura media	11.3
153050	7	Sololá	701	Sololá	2	El tablón	5	Mayo	2023-09-05T00:00:00	2024-11-06T04:00:00	4	Temperatura máxima	12.6
153051	7	Sololá	701	Sololá	2	El tablón	5	Mayo	2023-09-05T00:00:00	2024-11-06T04:00:00	3	Temperatura mínima	11.3
153052	7	Sololá	701	Sololá	2	El tablón	5	Mayo	2023-09-05T00:00:00	2024-11-06T04:00:00	5	Humedad	63
153053	7	Sololá	701	Sololá	2	El tablón	5	Mayo	2023-09-05T00:00:00	2024-11-06T04:00:00	6	Velocidad del viento	3.2
153054	7	Sololá	701	Sololá	2	El tablón	5	Mayo	2023-09-05T00:00:00	2024-11-06T04:00:00	7	Dirección del viento	3.22
153055	7	Sololá	701	Sololá	2	El tablón	5	Mayo	2023-09-05T00:00:00	2024-11-06T04:00:00	1	Precipitación	0
153056	7	Sololá	701	Sololá	2	El tablón	5	Mayo	2023-09-05T00:00:00	2024-11-06T04:00:00	8	Radiación solar	0
153057	7	Sololá	701	Sololá	2	El tablón	5	Mayo	2023-09-05T00:00:00	2024-11-06T05:00:00	2	Temperatura media	11.9
153058	7	Sololá	701	Sololá	2	El tablón	5	Mayo	2023-09-05T00:00:00	2024-11-06T05:00:00	4	Temperatura máxima	12
153059	7	Sololá	701	Sololá	2	El tablón	5	Mayo	2023-09-05T00:00:00	2024-11-06T05:00:00	3	Temperatura mínima	10.6
153060	7	Sololá	701	Sololá	2	El tablón	5	Mayo	2023-09-05T00:00:00	2024-11-06T05:00:00	5	Humedad	55
153061	7	Sololá	701	Sololá	2	El tablón	5	Mayo	2023-09-05T00:00:00	2024-11-06T05:00:00	6	Velocidad del viento	4.8
153062	7	Sololá	701	Sololá	2	El tablón	5	Mayo	2023-09-05T00:00:00	2024-11-06T05:00:00	7	Dirección del viento	4.83
153063	7	Sololá	701	Sololá	2	El tablón	5	Mayo	2023-09-05T00:00:00	2024-11-06T05:00:00	1	Precipitación	0
153064	7	Sololá	701	Sololá	2	El tablón	5	Mayo	2023-09-05T00:00:00	2024-11-06T05:00:00	8	Radiación solar	0
153065	7	Sololá	701	Sololá	2	El tablón	5	Mayo	2023-09-05T00:00:00	2024-11-06T06:00:00	2	Temperatura media	11.4
153066	7	Sololá	701	Sololá	2	El tablón	5	Mayo	2023-09-05T00:00:00	2024-11-06T06:00:00	4	Temperatura máxima	12.3
153067	7	Sololá	701	Sololá	2	El tablón	5	Mayo	2023-09-05T00:00:00	2024-11-06T06:00:00	3	Temperatura mínima	11.1
153068	7	Sololá	701	Sololá	2	El tablón	5	Mayo	2023-09-05T00:00:00	2024-11-06T06:00:00	5	Humedad	60
153069	7	Sololá	701	Sololá	2	El tablón	5	Mayo	2023-09-05T00:00:00	2024-11-06T06:00:00	6	Velocidad del viento	3.2
153070	7	Sololá	701	Sololá	2	El tablón	5	Mayo	2023-09-05T00:00:00	2024-11-06T06:00:00	7	Dirección del viento	3.22
153071	7	Sololá	701	Sololá	2	El tablón	5	Mayo	2023-09-05T00:00:00	2024-11-06T06:00:00	1	Precipitación	0
153072	7	Sololá	701	Sololá	2	El tablón	5	Mayo	2023-09-05T00:00:00	2024-11-06T06:00:00	8	Radiación solar	5
153073	7	Sololá	701	Sololá	2	El tablón	5	Mayo	2023-09-05T00:00:00	2024-11-06T07:00:00	2	Temperatura media	12.7
153074	7	Sololá	701	Sololá	2	El tablón	5	Mayo	2023-09-05T00:00:00	2024-11-06T07:00:00	4	Temperatura máxima	12.7
153075	7	Sololá	701	Sololá	2	El tablón	5	Mayo	2023-09-05T00:00:00	2024-11-06T07:00:00	3	Temperatura mínima	11.1
153076	7	Sololá	701	Sololá	2	El tablón	5	Mayo	2023-09-05T00:00:00	2024-11-06T07:00:00	5	Humedad	60
153077	7	Sololá	701	Sololá	2	El tablón	5	Mayo	2023-09-05T00:00:00	2024-11-06T07:00:00	6	Velocidad del viento	3.2
153078	7	Sololá	701	Sololá	2	El tablón	5	Mayo	2023-09-05T00:00:00	2024-11-06T07:00:00	7	Dirección del viento	3.22
153079	7	Sololá	701	Sololá	2	El tablón	5	Mayo	2023-09-05T00:00:00	2024-11-06T07:00:00	1	Precipitación	0
153080	7	Sololá	701	Sololá	2	El tablón	5	Mayo	2023-09-05T00:00:00	2024-11-06T07:00:00	8	Radiación solar	110
153081	7	Sololá	701	Sololá	2	El tablón	5	Mayo	2023-09-05T00:00:00	2024-11-06T08:00:00	2	Temperatura media	16.2
153082	7	Sololá	701	Sololá	2	El tablón	5	Mayo	2023-09-05T00:00:00	2024-11-06T08:00:00	4	Temperatura máxima	16.2
153083	7	Sololá	701	Sololá	2	El tablón	5	Mayo	2023-09-05T00:00:00	2024-11-06T08:00:00	3	Temperatura mínima	12.7
153084	7	Sololá	701	Sololá	2	El tablón	5	Mayo	2023-09-05T00:00:00	2024-11-06T08:00:00	5	Humedad	66
153085	7	Sololá	701	Sololá	2	El tablón	5	Mayo	2023-09-05T00:00:00	2024-11-06T08:00:00	6	Velocidad del viento	1.6
153086	7	Sololá	701	Sololá	2	El tablón	5	Mayo	2023-09-05T00:00:00	2024-11-06T08:00:00	7	Dirección del viento	1.61
153087	7	Sololá	701	Sololá	2	El tablón	5	Mayo	2023-09-05T00:00:00	2024-11-06T08:00:00	1	Precipitación	0
153088	7	Sololá	701	Sololá	2	El tablón	5	Mayo	2023-09-05T00:00:00	2024-11-06T08:00:00	8	Radiación solar	293
153089	7	Sololá	701	Sololá	2	El tablón	5	Mayo	2023-09-05T00:00:00	2024-11-06T09:00:00	2	Temperatura media	17.6
153090	7	Sololá	701	Sololá	2	El tablón	5	Mayo	2023-09-05T00:00:00	2024-11-06T09:00:00	4	Temperatura máxima	18.5
153091	7	Sololá	701	Sololá	2	El tablón	5	Mayo	2023-09-05T00:00:00	2024-11-06T09:00:00	3	Temperatura mínima	16.2
153092	7	Sololá	701	Sololá	2	El tablón	5	Mayo	2023-09-05T00:00:00	2024-11-06T09:00:00	5	Humedad	64
153093	7	Sololá	701	Sololá	2	El tablón	5	Mayo	2023-09-05T00:00:00	2024-11-06T09:00:00	6	Velocidad del viento	3.2
153094	7	Sololá	701	Sololá	2	El tablón	5	Mayo	2023-09-05T00:00:00	2024-11-06T09:00:00	7	Dirección del viento	3.22
153095	7	Sololá	701	Sololá	2	El tablón	5	Mayo	2023-09-05T00:00:00	2024-11-06T09:00:00	1	Precipitación	0
153096	7	Sololá	701	Sololá	2	El tablón	5	Mayo	2023-09-05T00:00:00	2024-11-06T09:00:00	8	Radiación solar	543
153097	7	Sololá	701	Sololá	2	El tablón	5	Mayo	2023-09-05T00:00:00	2024-11-06T10:00:00	2	Temperatura media	18.9
153098	7	Sololá	701	Sololá	2	El tablón	5	Mayo	2023-09-05T00:00:00	2024-11-06T10:00:00	4	Temperatura máxima	18.9
153099	7	Sololá	701	Sololá	2	El tablón	5	Mayo	2023-09-05T00:00:00	2024-11-06T10:00:00	3	Temperatura mínima	17.6
153100	7	Sololá	701	Sololá	2	El tablón	5	Mayo	2023-09-05T00:00:00	2024-11-06T10:00:00	5	Humedad	62
153101	7	Sololá	701	Sololá	2	El tablón	5	Mayo	2023-09-05T00:00:00	2024-11-06T10:00:00	6	Velocidad del viento	4.8
153102	7	Sololá	701	Sololá	2	El tablón	5	Mayo	2023-09-05T00:00:00	2024-11-06T10:00:00	7	Dirección del viento	4.83
153103	7	Sololá	701	Sololá	2	El tablón	5	Mayo	2023-09-05T00:00:00	2024-11-06T10:00:00	1	Precipitación	0
153104	7	Sololá	701	Sololá	2	El tablón	5	Mayo	2023-09-05T00:00:00	2024-11-06T10:00:00	8	Radiación solar	731
153105	7	Sololá	701	Sololá	2	El tablón	5	Mayo	2023-09-05T00:00:00	2024-11-06T11:00:00	2	Temperatura media	19.7
153106	7	Sololá	701	Sololá	2	El tablón	5	Mayo	2023-09-05T00:00:00	2024-11-06T11:00:00	4	Temperatura máxima	19.8
153107	7	Sololá	701	Sololá	2	El tablón	5	Mayo	2023-09-05T00:00:00	2024-11-06T11:00:00	3	Temperatura mínima	18.9
153108	7	Sololá	701	Sololá	2	El tablón	5	Mayo	2023-09-05T00:00:00	2024-11-06T11:00:00	5	Humedad	63
153109	7	Sololá	701	Sololá	2	El tablón	5	Mayo	2023-09-05T00:00:00	2024-11-06T11:00:00	6	Velocidad del viento	6.4
153110	7	Sololá	701	Sololá	2	El tablón	5	Mayo	2023-09-05T00:00:00	2024-11-06T11:00:00	7	Dirección del viento	6.44
153111	7	Sololá	701	Sololá	2	El tablón	5	Mayo	2023-09-05T00:00:00	2024-11-06T11:00:00	1	Precipitación	0
153112	7	Sololá	701	Sololá	2	El tablón	5	Mayo	2023-09-05T00:00:00	2024-11-06T11:00:00	8	Radiación solar	864
153113	7	Sololá	701	Sololá	2	El tablón	5	Mayo	2023-09-05T00:00:00	2024-11-06T12:00:00	2	Temperatura media	19.4
153114	7	Sololá	701	Sololá	2	El tablón	5	Mayo	2023-09-05T00:00:00	2024-11-06T12:00:00	4	Temperatura máxima	19.9
153115	7	Sololá	701	Sololá	2	El tablón	5	Mayo	2023-09-05T00:00:00	2024-11-06T12:00:00	3	Temperatura mínima	19.3
153116	7	Sololá	701	Sololá	2	El tablón	5	Mayo	2023-09-05T00:00:00	2024-11-06T12:00:00	5	Humedad	69
153117	7	Sololá	701	Sololá	2	El tablón	5	Mayo	2023-09-05T00:00:00	2024-11-06T12:00:00	6	Velocidad del viento	8
153118	7	Sololá	701	Sololá	2	El tablón	5	Mayo	2023-09-05T00:00:00	2024-11-06T12:00:00	7	Dirección del viento	8.05
153119	7	Sololá	701	Sololá	2	El tablón	5	Mayo	2023-09-05T00:00:00	2024-11-06T12:00:00	1	Precipitación	0
153120	7	Sololá	701	Sololá	2	El tablón	5	Mayo	2023-09-05T00:00:00	2024-11-06T12:00:00	8	Radiación solar	937
153121	7	Sololá	701	Sololá	2	El tablón	5	Mayo	2023-09-05T00:00:00	2024-11-06T13:00:00	2	Temperatura media	19.1
153122	7	Sololá	701	Sololá	2	El tablón	5	Mayo	2023-09-05T00:00:00	2024-11-06T13:00:00	4	Temperatura máxima	19.6
153123	7	Sololá	701	Sololá	2	El tablón	5	Mayo	2023-09-05T00:00:00	2024-11-06T13:00:00	3	Temperatura mínima	18.9
153124	7	Sololá	701	Sololá	2	El tablón	5	Mayo	2023-09-05T00:00:00	2024-11-06T13:00:00	5	Humedad	79
153125	7	Sololá	701	Sololá	2	El tablón	5	Mayo	2023-09-05T00:00:00	2024-11-06T13:00:00	6	Velocidad del viento	11.3
153126	7	Sololá	701	Sololá	2	El tablón	5	Mayo	2023-09-05T00:00:00	2024-11-06T13:00:00	7	Dirección del viento	11.27
153127	7	Sololá	701	Sololá	2	El tablón	5	Mayo	2023-09-05T00:00:00	2024-11-06T13:00:00	1	Precipitación	0
153128	7	Sololá	701	Sololá	2	El tablón	5	Mayo	2023-09-05T00:00:00	2024-11-06T13:00:00	8	Radiación solar	957
153129	7	Sololá	701	Sololá	2	El tablón	5	Mayo	2023-09-05T00:00:00	2024-11-06T14:00:00	2	Temperatura media	18.6
153130	7	Sololá	701	Sololá	2	El tablón	5	Mayo	2023-09-05T00:00:00	2024-11-06T14:00:00	4	Temperatura máxima	19.2
153131	7	Sololá	701	Sololá	2	El tablón	5	Mayo	2023-09-05T00:00:00	2024-11-06T14:00:00	3	Temperatura mínima	18.2
153132	7	Sololá	701	Sololá	2	El tablón	5	Mayo	2023-09-05T00:00:00	2024-11-06T14:00:00	5	Humedad	81
153133	7	Sololá	701	Sololá	2	El tablón	5	Mayo	2023-09-05T00:00:00	2024-11-06T14:00:00	6	Velocidad del viento	9.7
153134	7	Sololá	701	Sololá	2	El tablón	5	Mayo	2023-09-05T00:00:00	2024-11-06T14:00:00	7	Dirección del viento	9.66
153135	7	Sololá	701	Sololá	2	El tablón	5	Mayo	2023-09-05T00:00:00	2024-11-06T14:00:00	1	Precipitación	0
153136	7	Sololá	701	Sololá	2	El tablón	5	Mayo	2023-09-05T00:00:00	2024-11-06T14:00:00	8	Radiación solar	604
153137	7	Sololá	701	Sololá	2	El tablón	5	Mayo	2023-09-05T00:00:00	2024-11-06T15:00:00	2	Temperatura media	17.7
153138	7	Sololá	701	Sololá	2	El tablón	5	Mayo	2023-09-05T00:00:00	2024-11-06T15:00:00	4	Temperatura máxima	19.3
153139	7	Sololá	701	Sololá	2	El tablón	5	Mayo	2023-09-05T00:00:00	2024-11-06T15:00:00	3	Temperatura mínima	17.7
153140	7	Sololá	701	Sololá	2	El tablón	5	Mayo	2023-09-05T00:00:00	2024-11-06T15:00:00	5	Humedad	85
153141	7	Sololá	701	Sololá	2	El tablón	5	Mayo	2023-09-05T00:00:00	2024-11-06T15:00:00	6	Velocidad del viento	8
153142	7	Sololá	701	Sololá	2	El tablón	5	Mayo	2023-09-05T00:00:00	2024-11-06T15:00:00	7	Dirección del viento	8.05
153143	7	Sololá	701	Sololá	2	El tablón	5	Mayo	2023-09-05T00:00:00	2024-11-06T15:00:00	1	Precipitación	0
153144	7	Sololá	701	Sololá	2	El tablón	5	Mayo	2023-09-05T00:00:00	2024-11-06T15:00:00	8	Radiación solar	450
153145	7	Sololá	701	Sololá	2	El tablón	5	Mayo	2023-09-05T00:00:00	2024-11-06T16:00:00	2	Temperatura media	17.9
153146	7	Sololá	701	Sololá	2	El tablón	5	Mayo	2023-09-05T00:00:00	2024-11-06T16:00:00	4	Temperatura máxima	18.6
153147	7	Sololá	701	Sololá	2	El tablón	5	Mayo	2023-09-05T00:00:00	2024-11-06T16:00:00	3	Temperatura mínima	17.6
153148	7	Sololá	701	Sololá	2	El tablón	5	Mayo	2023-09-05T00:00:00	2024-11-06T16:00:00	5	Humedad	85
153149	7	Sololá	701	Sololá	2	El tablón	5	Mayo	2023-09-05T00:00:00	2024-11-06T16:00:00	6	Velocidad del viento	6.4
153150	7	Sololá	701	Sololá	2	El tablón	5	Mayo	2023-09-05T00:00:00	2024-11-06T16:00:00	7	Dirección del viento	6.44
153151	7	Sololá	701	Sololá	2	El tablón	5	Mayo	2023-09-05T00:00:00	2024-11-06T16:00:00	1	Precipitación	0
153152	7	Sololá	701	Sololá	2	El tablón	5	Mayo	2023-09-05T00:00:00	2024-11-06T16:00:00	8	Radiación solar	385
153153	7	Sololá	701	Sololá	2	El tablón	5	Mayo	2023-09-05T00:00:00	2024-11-06T17:00:00	2	Temperatura media	16.9
153154	7	Sololá	701	Sololá	2	El tablón	5	Mayo	2023-09-05T00:00:00	2024-11-06T17:00:00	4	Temperatura máxima	18.1
153155	7	Sololá	701	Sololá	2	El tablón	5	Mayo	2023-09-05T00:00:00	2024-11-06T17:00:00	3	Temperatura mínima	16.9
153156	7	Sololá	701	Sololá	2	El tablón	5	Mayo	2023-09-05T00:00:00	2024-11-06T17:00:00	5	Humedad	87
153157	7	Sololá	701	Sololá	2	El tablón	5	Mayo	2023-09-05T00:00:00	2024-11-06T17:00:00	6	Velocidad del viento	4.8
153158	7	Sololá	701	Sololá	2	El tablón	5	Mayo	2023-09-05T00:00:00	2024-11-06T17:00:00	7	Dirección del viento	4.83
153159	7	Sololá	701	Sololá	2	El tablón	5	Mayo	2023-09-05T00:00:00	2024-11-06T17:00:00	1	Precipitación	0
153160	7	Sololá	701	Sololá	2	El tablón	5	Mayo	2023-09-05T00:00:00	2024-11-06T17:00:00	8	Radiación solar	191
153161	7	Sololá	701	Sololá	2	El tablón	5	Mayo	2023-09-05T00:00:00	2024-11-06T18:00:00	2	Temperatura media	16
153162	7	Sololá	701	Sololá	2	El tablón	5	Mayo	2023-09-05T00:00:00	2024-11-06T18:00:00	4	Temperatura máxima	16.9
153163	7	Sololá	701	Sololá	2	El tablón	5	Mayo	2023-09-05T00:00:00	2024-11-06T18:00:00	3	Temperatura mínima	16
153164	7	Sololá	701	Sololá	2	El tablón	5	Mayo	2023-09-05T00:00:00	2024-11-06T18:00:00	5	Humedad	88
153165	7	Sololá	701	Sololá	2	El tablón	5	Mayo	2023-09-05T00:00:00	2024-11-06T18:00:00	6	Velocidad del viento	1.6
153166	7	Sololá	701	Sololá	2	El tablón	5	Mayo	2023-09-05T00:00:00	2024-11-06T18:00:00	7	Dirección del viento	1.61
153167	7	Sololá	701	Sololá	2	El tablón	5	Mayo	2023-09-05T00:00:00	2024-11-06T18:00:00	1	Precipitación	0
153168	7	Sololá	701	Sololá	2	El tablón	5	Mayo	2023-09-05T00:00:00	2024-11-06T18:00:00	8	Radiación solar	19
153169	7	Sololá	701	Sololá	2	El tablón	5	Mayo	2023-09-05T00:00:00	2024-11-06T19:00:00	2	Temperatura media	15.7
153170	7	Sololá	701	Sololá	2	El tablón	5	Mayo	2023-09-05T00:00:00	2024-11-06T19:00:00	4	Temperatura máxima	16
153171	7	Sololá	701	Sololá	2	El tablón	5	Mayo	2023-09-05T00:00:00	2024-11-06T19:00:00	3	Temperatura mínima	15.6
153172	7	Sololá	701	Sololá	2	El tablón	5	Mayo	2023-09-05T00:00:00	2024-11-06T19:00:00	5	Humedad	88
153173	7	Sololá	701	Sololá	2	El tablón	5	Mayo	2023-09-05T00:00:00	2024-11-06T19:00:00	6	Velocidad del viento	1.6
153174	7	Sololá	701	Sololá	2	El tablón	5	Mayo	2023-09-05T00:00:00	2024-11-06T19:00:00	7	Dirección del viento	1.61
153175	7	Sololá	701	Sololá	2	El tablón	5	Mayo	2023-09-05T00:00:00	2024-11-06T19:00:00	1	Precipitación	0
153176	7	Sololá	701	Sololá	2	El tablón	5	Mayo	2023-09-05T00:00:00	2024-11-06T19:00:00	8	Radiación solar	0
153177	7	Sololá	701	Sololá	2	El tablón	5	Mayo	2023-09-05T00:00:00	2024-11-06T20:00:00	2	Temperatura media	15.3
153178	7	Sololá	701	Sololá	2	El tablón	5	Mayo	2023-09-05T00:00:00	2024-11-06T20:00:00	4	Temperatura máxima	15.7
153179	7	Sololá	701	Sololá	2	El tablón	5	Mayo	2023-09-05T00:00:00	2024-11-06T20:00:00	3	Temperatura mínima	15.3
153180	7	Sololá	701	Sololá	2	El tablón	5	Mayo	2023-09-05T00:00:00	2024-11-06T20:00:00	5	Humedad	88
153181	7	Sololá	701	Sololá	2	El tablón	5	Mayo	2023-09-05T00:00:00	2024-11-06T20:00:00	6	Velocidad del viento	3.2
153182	7	Sololá	701	Sololá	2	El tablón	5	Mayo	2023-09-05T00:00:00	2024-11-06T20:00:00	7	Dirección del viento	3.22
153183	7	Sololá	701	Sololá	2	El tablón	5	Mayo	2023-09-05T00:00:00	2024-11-06T20:00:00	1	Precipitación	0
153184	7	Sololá	701	Sololá	2	El tablón	5	Mayo	2023-09-05T00:00:00	2024-11-06T20:00:00	8	Radiación solar	0
153185	7	Sololá	701	Sololá	2	El tablón	5	Mayo	2023-09-05T00:00:00	2024-11-06T21:00:00	2	Temperatura media	15.1
153186	7	Sololá	701	Sololá	2	El tablón	5	Mayo	2023-09-05T00:00:00	2024-11-06T21:00:00	4	Temperatura máxima	15.3
153187	7	Sololá	701	Sololá	2	El tablón	5	Mayo	2023-09-05T00:00:00	2024-11-06T21:00:00	3	Temperatura mínima	15.1
153188	7	Sololá	701	Sololá	2	El tablón	5	Mayo	2023-09-05T00:00:00	2024-11-06T21:00:00	5	Humedad	88
153189	7	Sololá	701	Sololá	2	El tablón	5	Mayo	2023-09-05T00:00:00	2024-11-06T21:00:00	6	Velocidad del viento	1.6
153190	7	Sololá	701	Sololá	2	El tablón	5	Mayo	2023-09-05T00:00:00	2024-11-06T21:00:00	7	Dirección del viento	1.61
153191	7	Sololá	701	Sololá	2	El tablón	5	Mayo	2023-09-05T00:00:00	2024-11-06T21:00:00	1	Precipitación	0
153192	7	Sololá	701	Sololá	2	El tablón	5	Mayo	2023-09-05T00:00:00	2024-11-06T21:00:00	8	Radiación solar	0
153193	7	Sololá	701	Sololá	2	El tablón	5	Mayo	2023-09-05T00:00:00	2024-11-06T22:00:00	2	Temperatura media	15.2
153194	7	Sololá	701	Sololá	2	El tablón	5	Mayo	2023-09-05T00:00:00	2024-11-06T22:00:00	4	Temperatura máxima	15.2
153195	7	Sololá	701	Sololá	2	El tablón	5	Mayo	2023-09-05T00:00:00	2024-11-06T22:00:00	3	Temperatura mínima	15
153196	7	Sololá	701	Sololá	2	El tablón	5	Mayo	2023-09-05T00:00:00	2024-11-06T22:00:00	5	Humedad	88
153197	7	Sololá	701	Sololá	2	El tablón	5	Mayo	2023-09-05T00:00:00	2024-11-06T22:00:00	6	Velocidad del viento	1.6
153198	7	Sololá	701	Sololá	2	El tablón	5	Mayo	2023-09-05T00:00:00	2024-11-06T22:00:00	7	Dirección del viento	1.61
153199	7	Sololá	701	Sololá	2	El tablón	5	Mayo	2023-09-05T00:00:00	2024-11-06T22:00:00	1	Precipitación	0
153200	7	Sololá	701	Sololá	2	El tablón	5	Mayo	2023-09-05T00:00:00	2024-11-06T22:00:00	8	Radiación solar	0
153201	7	Sololá	701	Sololá	2	El tablón	5	Mayo	2023-09-05T00:00:00	2024-11-06T23:00:00	2	Temperatura media	15
153202	7	Sololá	701	Sololá	2	El tablón	5	Mayo	2023-09-05T00:00:00	2024-11-06T23:00:00	4	Temperatura máxima	15.3
153203	7	Sololá	701	Sololá	2	El tablón	5	Mayo	2023-09-05T00:00:00	2024-11-06T23:00:00	3	Temperatura mínima	14.9
153204	7	Sololá	701	Sololá	2	El tablón	5	Mayo	2023-09-05T00:00:00	2024-11-06T23:00:00	5	Humedad	88
153205	7	Sololá	701	Sololá	2	El tablón	5	Mayo	2023-09-05T00:00:00	2024-11-06T23:00:00	6	Velocidad del viento	0
153206	7	Sololá	701	Sololá	2	El tablón	5	Mayo	2023-09-05T00:00:00	2024-11-06T23:00:00	7	Dirección del viento	0
153207	7	Sololá	701	Sololá	2	El tablón	5	Mayo	2023-09-05T00:00:00	2024-11-06T23:00:00	1	Precipitación	0
153208	7	Sololá	701	Sololá	2	El tablón	5	Mayo	2023-09-05T00:00:00	2024-11-06T23:00:00	8	Radiación solar	0
153209	7	Sololá	701	Sololá	2	El tablón	5	Mayo	2023-10-05T00:00:00	2024-11-06T00:00:00	2	Temperatura media	14.8
153210	7	Sololá	701	Sololá	2	El tablón	5	Mayo	2023-10-05T00:00:00	2024-11-06T00:00:00	4	Temperatura máxima	15
153211	7	Sololá	701	Sololá	2	El tablón	5	Mayo	2023-10-05T00:00:00	2024-11-06T00:00:00	3	Temperatura mínima	14.8
153212	7	Sololá	701	Sololá	2	El tablón	5	Mayo	2023-10-05T00:00:00	2024-11-06T00:00:00	5	Humedad	88
153213	7	Sololá	701	Sololá	2	El tablón	5	Mayo	2023-10-05T00:00:00	2024-11-06T00:00:00	6	Velocidad del viento	0
153214	7	Sololá	701	Sololá	2	El tablón	5	Mayo	2023-10-05T00:00:00	2024-11-06T00:00:00	7	Dirección del viento	0
153215	7	Sololá	701	Sololá	2	El tablón	5	Mayo	2023-10-05T00:00:00	2024-11-06T00:00:00	1	Precipitación	0
153216	7	Sololá	701	Sololá	2	El tablón	5	Mayo	2023-10-05T00:00:00	2024-11-06T00:00:00	8	Radiación solar	0
153217	7	Sololá	701	Sololá	2	El tablón	5	Mayo	2023-10-05T00:00:00	2024-11-06T01:00:00	2	Temperatura media	14.3
153218	7	Sololá	701	Sololá	2	El tablón	5	Mayo	2023-10-05T00:00:00	2024-11-06T01:00:00	4	Temperatura máxima	14.8
153219	7	Sololá	701	Sololá	2	El tablón	5	Mayo	2023-10-05T00:00:00	2024-11-06T01:00:00	3	Temperatura mínima	14.3
153220	7	Sololá	701	Sololá	2	El tablón	5	Mayo	2023-10-05T00:00:00	2024-11-06T01:00:00	5	Humedad	88
153221	7	Sololá	701	Sololá	2	El tablón	5	Mayo	2023-10-05T00:00:00	2024-11-06T01:00:00	6	Velocidad del viento	0
153222	7	Sololá	701	Sololá	2	El tablón	5	Mayo	2023-10-05T00:00:00	2024-11-06T01:00:00	7	Dirección del viento	0
153223	7	Sololá	701	Sololá	2	El tablón	5	Mayo	2023-10-05T00:00:00	2024-11-06T01:00:00	1	Precipitación	0
153224	7	Sololá	701	Sololá	2	El tablón	5	Mayo	2023-10-05T00:00:00	2024-11-06T01:00:00	8	Radiación solar	0
153225	7	Sololá	701	Sololá	2	El tablón	5	Mayo	2023-10-05T00:00:00	2024-11-06T02:00:00	2	Temperatura media	14.1
153226	7	Sololá	701	Sololá	2	El tablón	5	Mayo	2023-10-05T00:00:00	2024-11-06T02:00:00	4	Temperatura máxima	14.3
153227	7	Sololá	701	Sololá	2	El tablón	5	Mayo	2023-10-05T00:00:00	2024-11-06T02:00:00	3	Temperatura mínima	14.1
153228	7	Sololá	701	Sololá	2	El tablón	5	Mayo	2023-10-05T00:00:00	2024-11-06T02:00:00	5	Humedad	89
153229	7	Sololá	701	Sololá	2	El tablón	5	Mayo	2023-10-05T00:00:00	2024-11-06T02:00:00	6	Velocidad del viento	0
153230	7	Sololá	701	Sololá	2	El tablón	5	Mayo	2023-10-05T00:00:00	2024-11-06T02:00:00	7	Dirección del viento	0
153231	7	Sololá	701	Sololá	2	El tablón	5	Mayo	2023-10-05T00:00:00	2024-11-06T02:00:00	1	Precipitación	0
153232	7	Sololá	701	Sololá	2	El tablón	5	Mayo	2023-10-05T00:00:00	2024-11-06T02:00:00	8	Radiación solar	0
153233	7	Sololá	701	Sololá	2	El tablón	5	Mayo	2023-10-05T00:00:00	2024-11-06T03:00:00	2	Temperatura media	13.6
153234	7	Sololá	701	Sololá	2	El tablón	5	Mayo	2023-10-05T00:00:00	2024-11-06T03:00:00	4	Temperatura máxima	14.1
153235	7	Sololá	701	Sololá	2	El tablón	5	Mayo	2023-10-05T00:00:00	2024-11-06T03:00:00	3	Temperatura mínima	13.6
153236	7	Sololá	701	Sololá	2	El tablón	5	Mayo	2023-10-05T00:00:00	2024-11-06T03:00:00	5	Humedad	89
153237	7	Sololá	701	Sololá	2	El tablón	5	Mayo	2023-10-05T00:00:00	2024-11-06T03:00:00	6	Velocidad del viento	0
153238	7	Sololá	701	Sololá	2	El tablón	5	Mayo	2023-10-05T00:00:00	2024-11-06T03:00:00	7	Dirección del viento	0
153239	7	Sololá	701	Sololá	2	El tablón	5	Mayo	2023-10-05T00:00:00	2024-11-06T03:00:00	1	Precipitación	0
153240	7	Sololá	701	Sololá	2	El tablón	5	Mayo	2023-10-05T00:00:00	2024-11-06T03:00:00	8	Radiación solar	0
153241	7	Sololá	701	Sololá	2	El tablón	5	Mayo	2023-10-05T00:00:00	2024-11-06T04:00:00	2	Temperatura media	13.1
153242	7	Sololá	701	Sololá	2	El tablón	5	Mayo	2023-10-05T00:00:00	2024-11-06T04:00:00	4	Temperatura máxima	13.6
153243	7	Sololá	701	Sololá	2	El tablón	5	Mayo	2023-10-05T00:00:00	2024-11-06T04:00:00	3	Temperatura mínima	13.1
153244	7	Sololá	701	Sololá	2	El tablón	5	Mayo	2023-10-05T00:00:00	2024-11-06T04:00:00	5	Humedad	89
153245	7	Sololá	701	Sololá	2	El tablón	5	Mayo	2023-10-05T00:00:00	2024-11-06T04:00:00	6	Velocidad del viento	0
153246	7	Sololá	701	Sololá	2	El tablón	5	Mayo	2023-10-05T00:00:00	2024-11-06T04:00:00	7	Dirección del viento	0
153247	7	Sololá	701	Sololá	2	El tablón	5	Mayo	2023-10-05T00:00:00	2024-11-06T04:00:00	1	Precipitación	0
153248	7	Sololá	701	Sololá	2	El tablón	5	Mayo	2023-10-05T00:00:00	2024-11-06T04:00:00	8	Radiación solar	0
153249	7	Sololá	701	Sololá	2	El tablón	5	Mayo	2023-10-05T00:00:00	2024-11-06T05:00:00	2	Temperatura media	12.1
153250	7	Sololá	701	Sololá	2	El tablón	5	Mayo	2023-10-05T00:00:00	2024-11-06T05:00:00	4	Temperatura máxima	13.2
153251	7	Sololá	701	Sololá	2	El tablón	5	Mayo	2023-10-05T00:00:00	2024-11-06T05:00:00	3	Temperatura mínima	12.1
153252	7	Sololá	701	Sololá	2	El tablón	5	Mayo	2023-10-05T00:00:00	2024-11-06T05:00:00	5	Humedad	89
153253	7	Sololá	701	Sololá	2	El tablón	5	Mayo	2023-10-05T00:00:00	2024-11-06T05:00:00	6	Velocidad del viento	0
153254	7	Sololá	701	Sololá	2	El tablón	5	Mayo	2023-10-05T00:00:00	2024-11-06T05:00:00	7	Dirección del viento	0
153255	7	Sololá	701	Sololá	2	El tablón	5	Mayo	2023-10-05T00:00:00	2024-11-06T05:00:00	1	Precipitación	0
153256	7	Sololá	701	Sololá	2	El tablón	5	Mayo	2023-10-05T00:00:00	2024-11-06T05:00:00	8	Radiación solar	0
153257	7	Sololá	701	Sololá	2	El tablón	5	Mayo	2023-10-05T00:00:00	2024-11-06T06:00:00	2	Temperatura media	12.2
153258	7	Sololá	701	Sololá	2	El tablón	5	Mayo	2023-10-05T00:00:00	2024-11-06T06:00:00	4	Temperatura máxima	12.3
153259	7	Sololá	701	Sololá	2	El tablón	5	Mayo	2023-10-05T00:00:00	2024-11-06T06:00:00	3	Temperatura mínima	12.1
153260	7	Sololá	701	Sololá	2	El tablón	5	Mayo	2023-10-05T00:00:00	2024-11-06T06:00:00	5	Humedad	89
153261	7	Sololá	701	Sololá	2	El tablón	5	Mayo	2023-10-05T00:00:00	2024-11-06T06:00:00	6	Velocidad del viento	1.6
153262	7	Sololá	701	Sololá	2	El tablón	5	Mayo	2023-10-05T00:00:00	2024-11-06T06:00:00	7	Dirección del viento	1.61
153263	7	Sololá	701	Sololá	2	El tablón	5	Mayo	2023-10-05T00:00:00	2024-11-06T06:00:00	1	Precipitación	0
153264	7	Sololá	701	Sololá	2	El tablón	5	Mayo	2023-10-05T00:00:00	2024-11-06T06:00:00	8	Radiación solar	3
153265	7	Sololá	701	Sololá	2	El tablón	5	Mayo	2023-10-05T00:00:00	2024-11-06T07:00:00	2	Temperatura media	13.4
153266	7	Sololá	701	Sololá	2	El tablón	5	Mayo	2023-10-05T00:00:00	2024-11-06T07:00:00	4	Temperatura máxima	13.4
153267	7	Sololá	701	Sololá	2	El tablón	5	Mayo	2023-10-05T00:00:00	2024-11-06T07:00:00	3	Temperatura mínima	12.1
153268	7	Sololá	701	Sololá	2	El tablón	5	Mayo	2023-10-05T00:00:00	2024-11-06T07:00:00	5	Humedad	88
153269	7	Sololá	701	Sololá	2	El tablón	5	Mayo	2023-10-05T00:00:00	2024-11-06T07:00:00	6	Velocidad del viento	1.6
153270	7	Sololá	701	Sololá	2	El tablón	5	Mayo	2023-10-05T00:00:00	2024-11-06T07:00:00	7	Dirección del viento	1.61
153271	7	Sololá	701	Sololá	2	El tablón	5	Mayo	2023-10-05T00:00:00	2024-11-06T07:00:00	1	Precipitación	0
153272	7	Sololá	701	Sololá	2	El tablón	5	Mayo	2023-10-05T00:00:00	2024-11-06T07:00:00	8	Radiación solar	77
153273	7	Sololá	701	Sololá	2	El tablón	5	Mayo	2023-10-05T00:00:00	2024-11-06T08:00:00	2	Temperatura media	15.5
153274	7	Sololá	701	Sololá	2	El tablón	5	Mayo	2023-10-05T00:00:00	2024-11-06T08:00:00	4	Temperatura máxima	15.5
153275	7	Sololá	701	Sololá	2	El tablón	5	Mayo	2023-10-05T00:00:00	2024-11-06T08:00:00	3	Temperatura mínima	13.4
153276	7	Sololá	701	Sololá	2	El tablón	5	Mayo	2023-10-05T00:00:00	2024-11-06T08:00:00	5	Humedad	86
153277	7	Sololá	701	Sololá	2	El tablón	5	Mayo	2023-10-05T00:00:00	2024-11-06T08:00:00	6	Velocidad del viento	1.6
153278	7	Sololá	701	Sololá	2	El tablón	5	Mayo	2023-10-05T00:00:00	2024-11-06T08:00:00	7	Dirección del viento	1.61
153279	7	Sololá	701	Sololá	2	El tablón	5	Mayo	2023-10-05T00:00:00	2024-11-06T08:00:00	1	Precipitación	0
153280	7	Sololá	701	Sololá	2	El tablón	5	Mayo	2023-10-05T00:00:00	2024-11-06T08:00:00	8	Radiación solar	224
153281	7	Sololá	701	Sololá	2	El tablón	5	Mayo	2023-10-05T00:00:00	2024-11-06T09:00:00	2	Temperatura media	16.8
153282	7	Sololá	701	Sololá	2	El tablón	5	Mayo	2023-10-05T00:00:00	2024-11-06T09:00:00	4	Temperatura máxima	16.9
153283	7	Sololá	701	Sololá	2	El tablón	5	Mayo	2023-10-05T00:00:00	2024-11-06T09:00:00	3	Temperatura mínima	15.5
153284	7	Sololá	701	Sololá	2	El tablón	5	Mayo	2023-10-05T00:00:00	2024-11-06T09:00:00	5	Humedad	82
153285	7	Sololá	701	Sololá	2	El tablón	5	Mayo	2023-10-05T00:00:00	2024-11-06T09:00:00	6	Velocidad del viento	3.2
153286	7	Sololá	701	Sololá	2	El tablón	5	Mayo	2023-10-05T00:00:00	2024-11-06T09:00:00	7	Dirección del viento	3.22
153287	7	Sololá	701	Sololá	2	El tablón	5	Mayo	2023-10-05T00:00:00	2024-11-06T09:00:00	1	Precipitación	0
153288	7	Sololá	701	Sololá	2	El tablón	5	Mayo	2023-10-05T00:00:00	2024-11-06T09:00:00	8	Radiación solar	377
153289	7	Sololá	701	Sololá	2	El tablón	5	Mayo	2023-10-05T00:00:00	2024-11-06T10:00:00	2	Temperatura media	17.7
153290	7	Sololá	701	Sololá	2	El tablón	5	Mayo	2023-10-05T00:00:00	2024-11-06T10:00:00	4	Temperatura máxima	17.8
153291	7	Sololá	701	Sololá	2	El tablón	5	Mayo	2023-10-05T00:00:00	2024-11-06T10:00:00	3	Temperatura mínima	16.8
153292	7	Sololá	701	Sololá	2	El tablón	5	Mayo	2023-10-05T00:00:00	2024-11-06T10:00:00	5	Humedad	78
153293	7	Sololá	701	Sololá	2	El tablón	5	Mayo	2023-10-05T00:00:00	2024-11-06T10:00:00	6	Velocidad del viento	4.8
153294	7	Sololá	701	Sololá	2	El tablón	5	Mayo	2023-10-05T00:00:00	2024-11-06T10:00:00	7	Dirección del viento	4.83
153295	7	Sololá	701	Sololá	2	El tablón	5	Mayo	2023-10-05T00:00:00	2024-11-06T10:00:00	1	Precipitación	0
153296	7	Sololá	701	Sololá	2	El tablón	5	Mayo	2023-10-05T00:00:00	2024-11-06T10:00:00	8	Radiación solar	593
153297	7	Sololá	701	Sololá	2	El tablón	5	Mayo	2023-10-05T00:00:00	2024-11-06T11:00:00	2	Temperatura media	18.9
153298	7	Sololá	701	Sololá	2	El tablón	5	Mayo	2023-10-05T00:00:00	2024-11-06T11:00:00	4	Temperatura máxima	18.9
153299	7	Sololá	701	Sololá	2	El tablón	5	Mayo	2023-10-05T00:00:00	2024-11-06T11:00:00	3	Temperatura mínima	17.7
153300	7	Sololá	701	Sololá	2	El tablón	5	Mayo	2023-10-05T00:00:00	2024-11-06T11:00:00	5	Humedad	76
153301	7	Sololá	701	Sololá	2	El tablón	5	Mayo	2023-10-05T00:00:00	2024-11-06T11:00:00	6	Velocidad del viento	8
153302	7	Sololá	701	Sololá	2	El tablón	5	Mayo	2023-10-05T00:00:00	2024-11-06T11:00:00	7	Dirección del viento	8.05
153303	7	Sololá	701	Sololá	2	El tablón	5	Mayo	2023-10-05T00:00:00	2024-11-06T11:00:00	1	Precipitación	0
153304	7	Sololá	701	Sololá	2	El tablón	5	Mayo	2023-10-05T00:00:00	2024-11-06T11:00:00	8	Radiación solar	865
153305	7	Sololá	701	Sololá	2	El tablón	5	Mayo	2023-10-05T00:00:00	2024-11-06T12:00:00	2	Temperatura media	18.1
153306	7	Sololá	701	Sololá	2	El tablón	5	Mayo	2023-10-05T00:00:00	2024-11-06T12:00:00	4	Temperatura máxima	18.9
153307	7	Sololá	701	Sololá	2	El tablón	5	Mayo	2023-10-05T00:00:00	2024-11-06T12:00:00	3	Temperatura mínima	17.9
153308	7	Sololá	701	Sololá	2	El tablón	5	Mayo	2023-10-05T00:00:00	2024-11-06T12:00:00	5	Humedad	84
153309	7	Sololá	701	Sololá	2	El tablón	5	Mayo	2023-10-05T00:00:00	2024-11-06T12:00:00	6	Velocidad del viento	9.7
153310	7	Sololá	701	Sololá	2	El tablón	5	Mayo	2023-10-05T00:00:00	2024-11-06T12:00:00	7	Dirección del viento	9.66
153311	7	Sololá	701	Sololá	2	El tablón	5	Mayo	2023-10-05T00:00:00	2024-11-06T12:00:00	1	Precipitación	0
153312	7	Sololá	701	Sololá	2	El tablón	5	Mayo	2023-10-05T00:00:00	2024-11-06T12:00:00	8	Radiación solar	861
153313	7	Sololá	701	Sololá	2	El tablón	5	Mayo	2023-10-05T00:00:00	2024-11-06T13:00:00	2	Temperatura media	17.8
153314	7	Sololá	701	Sololá	2	El tablón	5	Mayo	2023-10-05T00:00:00	2024-11-06T13:00:00	4	Temperatura máxima	18.1
153315	7	Sololá	701	Sololá	2	El tablón	5	Mayo	2023-10-05T00:00:00	2024-11-06T13:00:00	3	Temperatura mínima	16.9
153316	7	Sololá	701	Sololá	2	El tablón	5	Mayo	2023-10-05T00:00:00	2024-11-06T13:00:00	5	Humedad	84
153317	7	Sololá	701	Sololá	2	El tablón	5	Mayo	2023-10-05T00:00:00	2024-11-06T13:00:00	6	Velocidad del viento	9.7
153318	7	Sololá	701	Sololá	2	El tablón	5	Mayo	2023-10-05T00:00:00	2024-11-06T13:00:00	7	Dirección del viento	9.66
153319	7	Sololá	701	Sololá	2	El tablón	5	Mayo	2023-10-05T00:00:00	2024-11-06T13:00:00	1	Precipitación	0
153320	7	Sololá	701	Sololá	2	El tablón	5	Mayo	2023-10-05T00:00:00	2024-11-06T13:00:00	8	Radiación solar	463
153321	7	Sololá	701	Sololá	2	El tablón	5	Mayo	2023-10-05T00:00:00	2024-11-06T14:00:00	2	Temperatura media	17.6
153322	7	Sololá	701	Sololá	2	El tablón	5	Mayo	2023-10-05T00:00:00	2024-11-06T14:00:00	4	Temperatura máxima	18
153323	7	Sololá	701	Sololá	2	El tablón	5	Mayo	2023-10-05T00:00:00	2024-11-06T14:00:00	3	Temperatura mínima	17.4
153324	7	Sololá	701	Sololá	2	El tablón	5	Mayo	2023-10-05T00:00:00	2024-11-06T14:00:00	5	Humedad	84
153325	7	Sololá	701	Sololá	2	El tablón	5	Mayo	2023-10-05T00:00:00	2024-11-06T14:00:00	6	Velocidad del viento	8
153326	7	Sololá	701	Sololá	2	El tablón	5	Mayo	2023-10-05T00:00:00	2024-11-06T14:00:00	7	Dirección del viento	8.05
153327	7	Sololá	701	Sololá	2	El tablón	5	Mayo	2023-10-05T00:00:00	2024-11-06T14:00:00	1	Precipitación	0
153328	7	Sololá	701	Sololá	2	El tablón	5	Mayo	2023-10-05T00:00:00	2024-11-06T14:00:00	8	Radiación solar	429
153329	7	Sololá	701	Sololá	2	El tablón	5	Mayo	2023-10-05T00:00:00	2024-11-06T15:00:00	2	Temperatura media	16.5
153330	7	Sololá	701	Sololá	2	El tablón	5	Mayo	2023-10-05T00:00:00	2024-11-06T15:00:00	4	Temperatura máxima	17.6
153331	7	Sololá	701	Sololá	2	El tablón	5	Mayo	2023-10-05T00:00:00	2024-11-06T15:00:00	3	Temperatura mínima	16.5
153332	7	Sololá	701	Sololá	2	El tablón	5	Mayo	2023-10-05T00:00:00	2024-11-06T15:00:00	5	Humedad	87
153333	7	Sololá	701	Sololá	2	El tablón	5	Mayo	2023-10-05T00:00:00	2024-11-06T15:00:00	6	Velocidad del viento	6.4
153334	7	Sololá	701	Sololá	2	El tablón	5	Mayo	2023-10-05T00:00:00	2024-11-06T15:00:00	7	Dirección del viento	6.44
153335	7	Sololá	701	Sololá	2	El tablón	5	Mayo	2023-10-05T00:00:00	2024-11-06T15:00:00	1	Precipitación	0
153336	7	Sololá	701	Sololá	2	El tablón	5	Mayo	2023-10-05T00:00:00	2024-11-06T15:00:00	8	Radiación solar	191
153337	7	Sololá	701	Sololá	2	El tablón	5	Mayo	2023-10-05T00:00:00	2024-11-06T16:00:00	2	Temperatura media	15.7
153338	7	Sololá	701	Sololá	2	El tablón	5	Mayo	2023-10-05T00:00:00	2024-11-06T16:00:00	4	Temperatura máxima	16.5
153339	7	Sololá	701	Sololá	2	El tablón	5	Mayo	2023-10-05T00:00:00	2024-11-06T16:00:00	3	Temperatura mínima	15.7
153340	7	Sololá	701	Sololá	2	El tablón	5	Mayo	2023-10-05T00:00:00	2024-11-06T16:00:00	5	Humedad	88
153341	7	Sololá	701	Sololá	2	El tablón	5	Mayo	2023-10-05T00:00:00	2024-11-06T16:00:00	6	Velocidad del viento	1.6
153342	7	Sololá	701	Sololá	2	El tablón	5	Mayo	2023-10-05T00:00:00	2024-11-06T16:00:00	7	Dirección del viento	1.61
153343	7	Sololá	701	Sololá	2	El tablón	5	Mayo	2023-10-05T00:00:00	2024-11-06T16:00:00	1	Precipitación	1
153344	7	Sololá	701	Sololá	2	El tablón	5	Mayo	2023-10-05T00:00:00	2024-11-06T16:00:00	8	Radiación solar	29
153345	7	Sololá	701	Sololá	2	El tablón	5	Mayo	2023-10-05T00:00:00	2024-11-06T17:00:00	2	Temperatura media	15.2
153346	7	Sololá	701	Sololá	2	El tablón	5	Mayo	2023-10-05T00:00:00	2024-11-06T17:00:00	4	Temperatura máxima	15.7
153347	7	Sololá	701	Sololá	2	El tablón	5	Mayo	2023-10-05T00:00:00	2024-11-06T17:00:00	3	Temperatura mínima	15.2
153348	7	Sololá	701	Sololá	2	El tablón	5	Mayo	2023-10-05T00:00:00	2024-11-06T17:00:00	5	Humedad	88
153349	7	Sololá	701	Sololá	2	El tablón	5	Mayo	2023-10-05T00:00:00	2024-11-06T17:00:00	6	Velocidad del viento	1.6
153350	7	Sololá	701	Sololá	2	El tablón	5	Mayo	2023-10-05T00:00:00	2024-11-06T17:00:00	7	Dirección del viento	1.61
153351	7	Sololá	701	Sololá	2	El tablón	5	Mayo	2023-10-05T00:00:00	2024-11-06T17:00:00	1	Precipitación	0.2
153352	7	Sololá	701	Sololá	2	El tablón	5	Mayo	2023-10-05T00:00:00	2024-11-06T17:00:00	8	Radiación solar	26
153353	7	Sololá	701	Sololá	2	El tablón	5	Mayo	2023-10-05T00:00:00	2024-11-06T18:00:00	2	Temperatura media	14.8
153354	7	Sololá	701	Sololá	2	El tablón	5	Mayo	2023-10-05T00:00:00	2024-11-06T18:00:00	4	Temperatura máxima	15.3
153355	7	Sololá	701	Sololá	2	El tablón	5	Mayo	2023-10-05T00:00:00	2024-11-06T18:00:00	3	Temperatura mínima	14.8
153356	7	Sololá	701	Sololá	2	El tablón	5	Mayo	2023-10-05T00:00:00	2024-11-06T18:00:00	5	Humedad	88
153357	7	Sololá	701	Sololá	2	El tablón	5	Mayo	2023-10-05T00:00:00	2024-11-06T18:00:00	6	Velocidad del viento	1.6
153358	7	Sololá	701	Sololá	2	El tablón	5	Mayo	2023-10-05T00:00:00	2024-11-06T18:00:00	7	Dirección del viento	1.61
153359	7	Sololá	701	Sololá	2	El tablón	5	Mayo	2023-10-05T00:00:00	2024-11-06T18:00:00	1	Precipitación	0.8
153360	7	Sololá	701	Sololá	2	El tablón	5	Mayo	2023-10-05T00:00:00	2024-11-06T18:00:00	8	Radiación solar	7
153361	7	Sololá	701	Sololá	2	El tablón	5	Mayo	2023-10-05T00:00:00	2024-11-06T19:00:00	2	Temperatura media	13.2
153362	7	Sololá	701	Sololá	2	El tablón	5	Mayo	2023-10-05T00:00:00	2024-11-06T19:00:00	4	Temperatura máxima	14.8
153363	7	Sololá	701	Sololá	2	El tablón	5	Mayo	2023-10-05T00:00:00	2024-11-06T19:00:00	3	Temperatura mínima	13.1
153364	7	Sololá	701	Sololá	2	El tablón	5	Mayo	2023-10-05T00:00:00	2024-11-06T19:00:00	5	Humedad	89
153365	7	Sololá	701	Sololá	2	El tablón	5	Mayo	2023-10-05T00:00:00	2024-11-06T19:00:00	6	Velocidad del viento	3.2
153366	7	Sololá	701	Sololá	2	El tablón	5	Mayo	2023-10-05T00:00:00	2024-11-06T19:00:00	7	Dirección del viento	3.22
153367	7	Sololá	701	Sololá	2	El tablón	5	Mayo	2023-10-05T00:00:00	2024-11-06T19:00:00	1	Precipitación	9.6
153368	7	Sololá	701	Sololá	2	El tablón	5	Mayo	2023-10-05T00:00:00	2024-11-06T19:00:00	8	Radiación solar	0
153369	7	Sololá	701	Sololá	2	El tablón	5	Mayo	2023-10-05T00:00:00	2024-11-06T20:00:00	2	Temperatura media	11.4
153370	7	Sololá	701	Sololá	2	El tablón	5	Mayo	2023-10-05T00:00:00	2024-11-06T20:00:00	4	Temperatura máxima	13.4
153371	7	Sololá	701	Sololá	2	El tablón	5	Mayo	2023-10-05T00:00:00	2024-11-06T20:00:00	3	Temperatura mínima	11.4
153372	7	Sololá	701	Sololá	2	El tablón	5	Mayo	2023-10-05T00:00:00	2024-11-06T20:00:00	5	Humedad	89
153373	7	Sololá	701	Sololá	2	El tablón	5	Mayo	2023-10-05T00:00:00	2024-11-06T20:00:00	6	Velocidad del viento	8
153374	7	Sololá	701	Sololá	2	El tablón	5	Mayo	2023-10-05T00:00:00	2024-11-06T20:00:00	7	Dirección del viento	8.05
153375	7	Sololá	701	Sololá	2	El tablón	5	Mayo	2023-10-05T00:00:00	2024-11-06T20:00:00	1	Precipitación	8.2
153376	7	Sololá	701	Sololá	2	El tablón	5	Mayo	2023-10-05T00:00:00	2024-11-06T20:00:00	8	Radiación solar	0
153377	7	Sololá	701	Sololá	2	El tablón	5	Mayo	2023-10-05T00:00:00	2024-11-06T21:00:00	2	Temperatura media	11.4
153378	7	Sololá	701	Sololá	2	El tablón	5	Mayo	2023-10-05T00:00:00	2024-11-06T21:00:00	4	Temperatura máxima	11.5
153379	7	Sololá	701	Sololá	2	El tablón	5	Mayo	2023-10-05T00:00:00	2024-11-06T21:00:00	3	Temperatura mínima	10.9
153380	7	Sololá	701	Sololá	2	El tablón	5	Mayo	2023-10-05T00:00:00	2024-11-06T21:00:00	5	Humedad	89
153381	7	Sololá	701	Sololá	2	El tablón	5	Mayo	2023-10-05T00:00:00	2024-11-06T21:00:00	6	Velocidad del viento	4.8
153382	7	Sololá	701	Sololá	2	El tablón	5	Mayo	2023-10-05T00:00:00	2024-11-06T21:00:00	7	Dirección del viento	4.83
153383	7	Sololá	701	Sololá	2	El tablón	5	Mayo	2023-10-05T00:00:00	2024-11-06T21:00:00	1	Precipitación	1.2
153384	7	Sololá	701	Sololá	2	El tablón	5	Mayo	2023-10-05T00:00:00	2024-11-06T21:00:00	8	Radiación solar	0
153385	7	Sololá	701	Sololá	2	El tablón	5	Mayo	2023-10-05T00:00:00	2024-11-06T22:00:00	2	Temperatura media	11.6
153386	7	Sololá	701	Sololá	2	El tablón	5	Mayo	2023-10-05T00:00:00	2024-11-06T22:00:00	4	Temperatura máxima	11.6
153387	7	Sololá	701	Sololá	2	El tablón	5	Mayo	2023-10-05T00:00:00	2024-11-06T22:00:00	3	Temperatura mínima	11.1
153388	7	Sololá	701	Sololá	2	El tablón	5	Mayo	2023-10-05T00:00:00	2024-11-06T22:00:00	5	Humedad	87
153389	7	Sololá	701	Sololá	2	El tablón	5	Mayo	2023-10-05T00:00:00	2024-11-06T22:00:00	6	Velocidad del viento	4.8
153390	7	Sololá	701	Sololá	2	El tablón	5	Mayo	2023-10-05T00:00:00	2024-11-06T22:00:00	7	Dirección del viento	4.83
153391	7	Sololá	701	Sololá	2	El tablón	5	Mayo	2023-10-05T00:00:00	2024-11-06T22:00:00	1	Precipitación	0
153392	7	Sololá	701	Sololá	2	El tablón	5	Mayo	2023-10-05T00:00:00	2024-11-06T22:00:00	8	Radiación solar	0
153393	7	Sololá	701	Sololá	2	El tablón	5	Mayo	2023-10-05T00:00:00	2024-11-06T23:00:00	2	Temperatura media	13.1
153394	7	Sololá	701	Sololá	2	El tablón	5	Mayo	2023-10-05T00:00:00	2024-11-06T23:00:00	4	Temperatura máxima	13.1
153395	7	Sololá	701	Sololá	2	El tablón	5	Mayo	2023-10-05T00:00:00	2024-11-06T23:00:00	3	Temperatura mínima	11.6
153396	7	Sololá	701	Sololá	2	El tablón	5	Mayo	2023-10-05T00:00:00	2024-11-06T23:00:00	5	Humedad	77
153397	7	Sololá	701	Sololá	2	El tablón	5	Mayo	2023-10-05T00:00:00	2024-11-06T23:00:00	6	Velocidad del viento	9.7
153398	7	Sololá	701	Sololá	2	El tablón	5	Mayo	2023-10-05T00:00:00	2024-11-06T23:00:00	7	Dirección del viento	9.66
153399	7	Sololá	701	Sololá	2	El tablón	5	Mayo	2023-10-05T00:00:00	2024-11-06T23:00:00	1	Precipitación	0
153400	7	Sololá	701	Sololá	2	El tablón	5	Mayo	2023-10-05T00:00:00	2024-11-06T23:00:00	8	Radiación solar	0
153401	7	Sololá	701	Sololá	2	El tablón	5	Mayo	2023-11-05T00:00:00	2024-11-06T00:00:00	2	Temperatura media	11.1
153402	7	Sololá	701	Sololá	2	El tablón	5	Mayo	2023-11-05T00:00:00	2024-11-06T00:00:00	4	Temperatura máxima	13.2
153403	7	Sololá	701	Sololá	2	El tablón	5	Mayo	2023-11-05T00:00:00	2024-11-06T00:00:00	3	Temperatura mínima	11.1
153404	7	Sololá	701	Sololá	2	El tablón	5	Mayo	2023-11-05T00:00:00	2024-11-06T00:00:00	5	Humedad	89
153405	7	Sololá	701	Sololá	2	El tablón	5	Mayo	2023-11-05T00:00:00	2024-11-06T00:00:00	6	Velocidad del viento	3.2
153406	7	Sololá	701	Sololá	2	El tablón	5	Mayo	2023-11-05T00:00:00	2024-11-06T00:00:00	7	Dirección del viento	3.22
153407	7	Sololá	701	Sololá	2	El tablón	5	Mayo	2023-11-05T00:00:00	2024-11-06T00:00:00	1	Precipitación	0
153408	7	Sololá	701	Sololá	2	El tablón	5	Mayo	2023-11-05T00:00:00	2024-11-06T00:00:00	8	Radiación solar	0
153409	7	Sololá	701	Sololá	2	El tablón	5	Mayo	2023-11-05T00:00:00	2024-11-06T01:00:00	2	Temperatura media	10.5
153410	7	Sololá	701	Sololá	2	El tablón	5	Mayo	2023-11-05T00:00:00	2024-11-06T01:00:00	4	Temperatura máxima	11.2
153411	7	Sololá	701	Sololá	2	El tablón	5	Mayo	2023-11-05T00:00:00	2024-11-06T01:00:00	3	Temperatura mínima	10.4
153412	7	Sololá	701	Sololá	2	El tablón	5	Mayo	2023-11-05T00:00:00	2024-11-06T01:00:00	5	Humedad	89
153413	7	Sololá	701	Sololá	2	El tablón	5	Mayo	2023-11-05T00:00:00	2024-11-06T01:00:00	6	Velocidad del viento	3.2
153414	7	Sololá	701	Sololá	2	El tablón	5	Mayo	2023-11-05T00:00:00	2024-11-06T01:00:00	7	Dirección del viento	3.22
153415	7	Sololá	701	Sololá	2	El tablón	5	Mayo	2023-11-05T00:00:00	2024-11-06T01:00:00	1	Precipitación	0
153416	7	Sololá	701	Sololá	2	El tablón	5	Mayo	2023-11-05T00:00:00	2024-11-06T01:00:00	8	Radiación solar	0
153417	7	Sololá	701	Sololá	2	El tablón	5	Mayo	2023-11-05T00:00:00	2024-11-06T02:00:00	2	Temperatura media	10.2
153418	7	Sololá	701	Sololá	2	El tablón	5	Mayo	2023-11-05T00:00:00	2024-11-06T02:00:00	4	Temperatura máxima	10.5
153419	7	Sololá	701	Sololá	2	El tablón	5	Mayo	2023-11-05T00:00:00	2024-11-06T02:00:00	3	Temperatura mínima	10.2
153420	7	Sololá	701	Sololá	2	El tablón	5	Mayo	2023-11-05T00:00:00	2024-11-06T02:00:00	5	Humedad	89
153421	7	Sololá	701	Sololá	2	El tablón	5	Mayo	2023-11-05T00:00:00	2024-11-06T02:00:00	6	Velocidad del viento	3.2
153422	7	Sololá	701	Sololá	2	El tablón	5	Mayo	2023-11-05T00:00:00	2024-11-06T02:00:00	7	Dirección del viento	3.22
153423	7	Sololá	701	Sololá	2	El tablón	5	Mayo	2023-11-05T00:00:00	2024-11-06T02:00:00	1	Precipitación	0
153424	7	Sololá	701	Sololá	2	El tablón	5	Mayo	2023-11-05T00:00:00	2024-11-06T02:00:00	8	Radiación solar	0
153425	7	Sololá	701	Sololá	2	El tablón	5	Mayo	2023-11-05T00:00:00	2024-11-06T03:00:00	2	Temperatura media	11.1
153426	7	Sololá	701	Sololá	2	El tablón	5	Mayo	2023-11-05T00:00:00	2024-11-06T03:00:00	4	Temperatura máxima	11.1
153427	7	Sololá	701	Sololá	2	El tablón	5	Mayo	2023-11-05T00:00:00	2024-11-06T03:00:00	3	Temperatura mínima	10.2
153428	7	Sololá	701	Sololá	2	El tablón	5	Mayo	2023-11-05T00:00:00	2024-11-06T03:00:00	5	Humedad	87
153429	7	Sololá	701	Sololá	2	El tablón	5	Mayo	2023-11-05T00:00:00	2024-11-06T03:00:00	6	Velocidad del viento	3.2
153430	7	Sololá	701	Sololá	2	El tablón	5	Mayo	2023-11-05T00:00:00	2024-11-06T03:00:00	7	Dirección del viento	3.22
153431	7	Sololá	701	Sololá	2	El tablón	5	Mayo	2023-11-05T00:00:00	2024-11-06T03:00:00	1	Precipitación	0
153432	7	Sololá	701	Sololá	2	El tablón	5	Mayo	2023-11-05T00:00:00	2024-11-06T03:00:00	8	Radiación solar	0
153433	7	Sololá	701	Sololá	2	El tablón	5	Mayo	2023-11-05T00:00:00	2024-11-06T04:00:00	2	Temperatura media	10.2
153434	7	Sololá	701	Sololá	2	El tablón	5	Mayo	2023-11-05T00:00:00	2024-11-06T04:00:00	4	Temperatura máxima	11.1
153435	7	Sololá	701	Sololá	2	El tablón	5	Mayo	2023-11-05T00:00:00	2024-11-06T04:00:00	3	Temperatura mínima	10.2
153436	7	Sololá	701	Sololá	2	El tablón	5	Mayo	2023-11-05T00:00:00	2024-11-06T04:00:00	5	Humedad	87
153437	7	Sololá	701	Sololá	2	El tablón	5	Mayo	2023-11-05T00:00:00	2024-11-06T04:00:00	6	Velocidad del viento	3.2
153438	7	Sololá	701	Sololá	2	El tablón	5	Mayo	2023-11-05T00:00:00	2024-11-06T04:00:00	7	Dirección del viento	3.22
153439	7	Sololá	701	Sololá	2	El tablón	5	Mayo	2023-11-05T00:00:00	2024-11-06T04:00:00	1	Precipitación	0
153440	7	Sololá	701	Sololá	2	El tablón	5	Mayo	2023-11-05T00:00:00	2024-11-06T04:00:00	8	Radiación solar	0
153441	7	Sololá	701	Sololá	2	El tablón	5	Mayo	2023-11-05T00:00:00	2024-11-06T05:00:00	2	Temperatura media	10.8
153442	7	Sololá	701	Sololá	2	El tablón	5	Mayo	2023-11-05T00:00:00	2024-11-06T05:00:00	4	Temperatura máxima	10.9
153443	7	Sololá	701	Sololá	2	El tablón	5	Mayo	2023-11-05T00:00:00	2024-11-06T05:00:00	3	Temperatura mínima	10.1
153444	7	Sololá	701	Sololá	2	El tablón	5	Mayo	2023-11-05T00:00:00	2024-11-06T05:00:00	5	Humedad	84
153445	7	Sololá	701	Sololá	2	El tablón	5	Mayo	2023-11-05T00:00:00	2024-11-06T05:00:00	6	Velocidad del viento	3.2
153446	7	Sololá	701	Sololá	2	El tablón	5	Mayo	2023-11-05T00:00:00	2024-11-06T05:00:00	7	Dirección del viento	3.22
153447	7	Sololá	701	Sololá	2	El tablón	5	Mayo	2023-11-05T00:00:00	2024-11-06T05:00:00	1	Precipitación	0
153448	7	Sololá	701	Sololá	2	El tablón	5	Mayo	2023-11-05T00:00:00	2024-11-06T05:00:00	8	Radiación solar	0
153449	7	Sololá	701	Sololá	2	El tablón	5	Mayo	2023-11-05T00:00:00	2024-11-06T06:00:00	2	Temperatura media	10.3
153450	7	Sololá	701	Sololá	2	El tablón	5	Mayo	2023-11-05T00:00:00	2024-11-06T06:00:00	4	Temperatura máxima	10.9
153451	7	Sololá	701	Sololá	2	El tablón	5	Mayo	2023-11-05T00:00:00	2024-11-06T06:00:00	3	Temperatura mínima	10.3
153452	7	Sololá	701	Sololá	2	El tablón	5	Mayo	2023-11-05T00:00:00	2024-11-06T06:00:00	5	Humedad	87
153453	7	Sololá	701	Sololá	2	El tablón	5	Mayo	2023-11-05T00:00:00	2024-11-06T06:00:00	6	Velocidad del viento	1.6
153454	7	Sololá	701	Sololá	2	El tablón	5	Mayo	2023-11-05T00:00:00	2024-11-06T06:00:00	7	Dirección del viento	1.61
153455	7	Sololá	701	Sololá	2	El tablón	5	Mayo	2023-11-05T00:00:00	2024-11-06T06:00:00	1	Precipitación	0
153456	7	Sololá	701	Sololá	2	El tablón	5	Mayo	2023-11-05T00:00:00	2024-11-06T06:00:00	8	Radiación solar	4
153457	7	Sololá	701	Sololá	2	El tablón	5	Mayo	2023-11-05T00:00:00	2024-11-06T07:00:00	2	Temperatura media	12.8
153458	7	Sololá	701	Sololá	2	El tablón	5	Mayo	2023-11-05T00:00:00	2024-11-06T07:00:00	4	Temperatura máxima	12.8
153459	7	Sololá	701	Sololá	2	El tablón	5	Mayo	2023-11-05T00:00:00	2024-11-06T07:00:00	3	Temperatura mínima	10.3
153460	7	Sololá	701	Sololá	2	El tablón	5	Mayo	2023-11-05T00:00:00	2024-11-06T07:00:00	5	Humedad	83
153461	7	Sololá	701	Sololá	2	El tablón	5	Mayo	2023-11-05T00:00:00	2024-11-06T07:00:00	6	Velocidad del viento	0
153462	7	Sololá	701	Sololá	2	El tablón	5	Mayo	2023-11-05T00:00:00	2024-11-06T07:00:00	7	Dirección del viento	0
153463	7	Sololá	701	Sololá	2	El tablón	5	Mayo	2023-11-05T00:00:00	2024-11-06T07:00:00	1	Precipitación	0
153464	7	Sololá	701	Sololá	2	El tablón	5	Mayo	2023-11-05T00:00:00	2024-11-06T07:00:00	8	Radiación solar	111
153465	7	Sololá	701	Sololá	2	El tablón	5	Mayo	2023-11-05T00:00:00	2024-11-06T08:00:00	2	Temperatura media	15.6
153466	7	Sololá	701	Sololá	2	El tablón	5	Mayo	2023-11-05T00:00:00	2024-11-06T08:00:00	4	Temperatura máxima	15.6
153467	7	Sololá	701	Sololá	2	El tablón	5	Mayo	2023-11-05T00:00:00	2024-11-06T08:00:00	3	Temperatura mínima	12.8
153468	7	Sololá	701	Sololá	2	El tablón	5	Mayo	2023-11-05T00:00:00	2024-11-06T08:00:00	5	Humedad	74
153469	7	Sololá	701	Sololá	2	El tablón	5	Mayo	2023-11-05T00:00:00	2024-11-06T08:00:00	6	Velocidad del viento	1.6
153470	7	Sololá	701	Sololá	2	El tablón	5	Mayo	2023-11-05T00:00:00	2024-11-06T08:00:00	7	Dirección del viento	1.61
153471	7	Sololá	701	Sololá	2	El tablón	5	Mayo	2023-11-05T00:00:00	2024-11-06T08:00:00	1	Precipitación	0
153472	7	Sololá	701	Sololá	2	El tablón	5	Mayo	2023-11-05T00:00:00	2024-11-06T08:00:00	8	Radiación solar	323
153473	7	Sololá	701	Sololá	2	El tablón	5	Mayo	2023-11-05T00:00:00	2024-11-06T09:00:00	2	Temperatura media	16.7
153474	7	Sololá	701	Sololá	2	El tablón	5	Mayo	2023-11-05T00:00:00	2024-11-06T09:00:00	4	Temperatura máxima	16.8
153475	7	Sololá	701	Sololá	2	El tablón	5	Mayo	2023-11-05T00:00:00	2024-11-06T09:00:00	3	Temperatura mínima	15.6
153476	7	Sololá	701	Sololá	2	El tablón	5	Mayo	2023-11-05T00:00:00	2024-11-06T09:00:00	5	Humedad	73
153477	7	Sololá	701	Sololá	2	El tablón	5	Mayo	2023-11-05T00:00:00	2024-11-06T09:00:00	6	Velocidad del viento	4.8
153478	7	Sololá	701	Sololá	2	El tablón	5	Mayo	2023-11-05T00:00:00	2024-11-06T09:00:00	7	Dirección del viento	4.83
153479	7	Sololá	701	Sololá	2	El tablón	5	Mayo	2023-11-05T00:00:00	2024-11-06T09:00:00	1	Precipitación	0
153480	7	Sololá	701	Sololá	2	El tablón	5	Mayo	2023-11-05T00:00:00	2024-11-06T09:00:00	8	Radiación solar	536
153481	7	Sololá	701	Sololá	2	El tablón	5	Mayo	2023-11-05T00:00:00	2024-11-06T10:00:00	2	Temperatura media	16.8
153482	7	Sololá	701	Sololá	2	El tablón	5	Mayo	2023-11-05T00:00:00	2024-11-06T10:00:00	4	Temperatura máxima	16.8
153483	7	Sololá	701	Sololá	2	El tablón	5	Mayo	2023-11-05T00:00:00	2024-11-06T10:00:00	3	Temperatura mínima	16.5
153484	7	Sololá	701	Sololá	2	El tablón	5	Mayo	2023-11-05T00:00:00	2024-11-06T10:00:00	5	Humedad	80
153485	7	Sololá	701	Sololá	2	El tablón	5	Mayo	2023-11-05T00:00:00	2024-11-06T10:00:00	6	Velocidad del viento	6.4
153486	7	Sololá	701	Sololá	2	El tablón	5	Mayo	2023-11-05T00:00:00	2024-11-06T10:00:00	7	Dirección del viento	6.44
153487	7	Sololá	701	Sololá	2	El tablón	5	Mayo	2023-11-05T00:00:00	2024-11-06T10:00:00	1	Precipitación	0
153488	7	Sololá	701	Sololá	2	El tablón	5	Mayo	2023-11-05T00:00:00	2024-11-06T10:00:00	8	Radiación solar	710
153489	7	Sololá	701	Sololá	2	El tablón	5	Mayo	2023-11-05T00:00:00	2024-11-06T11:00:00	2	Temperatura media	17.1
153490	7	Sololá	701	Sololá	2	El tablón	5	Mayo	2023-11-05T00:00:00	2024-11-06T11:00:00	4	Temperatura máxima	17.3
153491	7	Sololá	701	Sololá	2	El tablón	5	Mayo	2023-11-05T00:00:00	2024-11-06T11:00:00	3	Temperatura mínima	16.8
153492	7	Sololá	701	Sololá	2	El tablón	5	Mayo	2023-11-05T00:00:00	2024-11-06T11:00:00	5	Humedad	81
153493	7	Sololá	701	Sololá	2	El tablón	5	Mayo	2023-11-05T00:00:00	2024-11-06T11:00:00	6	Velocidad del viento	8
153494	7	Sololá	701	Sololá	2	El tablón	5	Mayo	2023-11-05T00:00:00	2024-11-06T11:00:00	7	Dirección del viento	8.05
153495	7	Sololá	701	Sololá	2	El tablón	5	Mayo	2023-11-05T00:00:00	2024-11-06T11:00:00	1	Precipitación	0
153496	7	Sololá	701	Sololá	2	El tablón	5	Mayo	2023-11-05T00:00:00	2024-11-06T11:00:00	8	Radiación solar	883
153497	7	Sololá	701	Sololá	2	El tablón	5	Mayo	2023-11-05T00:00:00	2024-11-06T12:00:00	2	Temperatura media	17.4
153498	7	Sololá	701	Sololá	2	El tablón	5	Mayo	2023-11-05T00:00:00	2024-11-06T12:00:00	4	Temperatura máxima	17.4
153499	7	Sololá	701	Sololá	2	El tablón	5	Mayo	2023-11-05T00:00:00	2024-11-06T12:00:00	3	Temperatura mínima	16.9
153500	7	Sololá	701	Sololá	2	El tablón	5	Mayo	2023-11-05T00:00:00	2024-11-06T12:00:00	5	Humedad	77
153501	7	Sololá	701	Sololá	2	El tablón	5	Mayo	2023-11-05T00:00:00	2024-11-06T12:00:00	6	Velocidad del viento	8
153502	7	Sololá	701	Sololá	2	El tablón	5	Mayo	2023-11-05T00:00:00	2024-11-06T12:00:00	7	Dirección del viento	8.05
153503	7	Sololá	701	Sololá	2	El tablón	5	Mayo	2023-11-05T00:00:00	2024-11-06T12:00:00	1	Precipitación	0
153504	7	Sololá	701	Sololá	2	El tablón	5	Mayo	2023-11-05T00:00:00	2024-11-06T12:00:00	8	Radiación solar	770
153505	7	Sololá	701	Sololá	2	El tablón	5	Mayo	2023-11-05T00:00:00	2024-11-06T13:00:00	2	Temperatura media	16.9
153506	7	Sololá	701	Sololá	2	El tablón	5	Mayo	2023-11-05T00:00:00	2024-11-06T13:00:00	4	Temperatura máxima	17.4
153507	7	Sololá	701	Sololá	2	El tablón	5	Mayo	2023-11-05T00:00:00	2024-11-06T13:00:00	3	Temperatura mínima	16.6
153508	7	Sololá	701	Sololá	2	El tablón	5	Mayo	2023-11-05T00:00:00	2024-11-06T13:00:00	5	Humedad	83
153509	7	Sololá	701	Sololá	2	El tablón	5	Mayo	2023-11-05T00:00:00	2024-11-06T13:00:00	6	Velocidad del viento	6.4
153510	7	Sololá	701	Sololá	2	El tablón	5	Mayo	2023-11-05T00:00:00	2024-11-06T13:00:00	7	Dirección del viento	6.44
153511	7	Sololá	701	Sololá	2	El tablón	5	Mayo	2023-11-05T00:00:00	2024-11-06T13:00:00	1	Precipitación	0
153512	7	Sololá	701	Sololá	2	El tablón	5	Mayo	2023-11-05T00:00:00	2024-11-06T13:00:00	8	Radiación solar	370
153513	7	Sololá	701	Sololá	2	El tablón	5	Mayo	2023-11-05T00:00:00	2024-11-06T14:00:00	2	Temperatura media	17.2
153514	7	Sololá	701	Sololá	2	El tablón	5	Mayo	2023-11-05T00:00:00	2024-11-06T14:00:00	4	Temperatura máxima	17.4
153515	7	Sololá	701	Sololá	2	El tablón	5	Mayo	2023-11-05T00:00:00	2024-11-06T14:00:00	3	Temperatura mínima	16.7
153516	7	Sololá	701	Sololá	2	El tablón	5	Mayo	2023-11-05T00:00:00	2024-11-06T14:00:00	5	Humedad	83
153517	7	Sololá	701	Sololá	2	El tablón	5	Mayo	2023-11-05T00:00:00	2024-11-06T14:00:00	6	Velocidad del viento	6.4
153518	7	Sololá	701	Sololá	2	El tablón	5	Mayo	2023-11-05T00:00:00	2024-11-06T14:00:00	7	Dirección del viento	6.44
153519	7	Sololá	701	Sololá	2	El tablón	5	Mayo	2023-11-05T00:00:00	2024-11-06T14:00:00	1	Precipitación	0
153520	7	Sololá	701	Sololá	2	El tablón	5	Mayo	2023-11-05T00:00:00	2024-11-06T14:00:00	8	Radiación solar	400
153521	7	Sololá	701	Sololá	2	El tablón	5	Mayo	2023-11-05T00:00:00	2024-11-06T15:00:00	2	Temperatura media	16.7
153522	7	Sololá	701	Sololá	2	El tablón	5	Mayo	2023-11-05T00:00:00	2024-11-06T15:00:00	4	Temperatura máxima	17.4
153523	7	Sololá	701	Sololá	2	El tablón	5	Mayo	2023-11-05T00:00:00	2024-11-06T15:00:00	3	Temperatura mínima	16.7
153524	7	Sololá	701	Sololá	2	El tablón	5	Mayo	2023-11-05T00:00:00	2024-11-06T15:00:00	5	Humedad	86
153525	7	Sololá	701	Sololá	2	El tablón	5	Mayo	2023-11-05T00:00:00	2024-11-06T15:00:00	6	Velocidad del viento	6.4
153526	7	Sololá	701	Sololá	2	El tablón	5	Mayo	2023-11-05T00:00:00	2024-11-06T15:00:00	7	Dirección del viento	6.44
153527	7	Sololá	701	Sololá	2	El tablón	5	Mayo	2023-11-05T00:00:00	2024-11-06T15:00:00	1	Precipitación	0
153528	7	Sololá	701	Sololá	2	El tablón	5	Mayo	2023-11-05T00:00:00	2024-11-06T15:00:00	8	Radiación solar	343
153529	7	Sololá	701	Sololá	2	El tablón	5	Mayo	2023-11-05T00:00:00	2024-11-06T16:00:00	2	Temperatura media	15
153530	7	Sololá	701	Sololá	2	El tablón	5	Mayo	2023-11-05T00:00:00	2024-11-06T16:00:00	4	Temperatura máxima	16.8
153531	7	Sololá	701	Sololá	2	El tablón	5	Mayo	2023-11-05T00:00:00	2024-11-06T16:00:00	3	Temperatura mínima	15
153532	7	Sololá	701	Sololá	2	El tablón	5	Mayo	2023-11-05T00:00:00	2024-11-06T16:00:00	5	Humedad	88
153533	7	Sololá	701	Sololá	2	El tablón	5	Mayo	2023-11-05T00:00:00	2024-11-06T16:00:00	6	Velocidad del viento	8
153534	7	Sololá	701	Sololá	2	El tablón	5	Mayo	2023-11-05T00:00:00	2024-11-06T16:00:00	7	Dirección del viento	8.05
153535	7	Sololá	701	Sololá	2	El tablón	5	Mayo	2023-11-05T00:00:00	2024-11-06T16:00:00	1	Precipitación	0
153536	7	Sololá	701	Sololá	2	El tablón	5	Mayo	2023-11-05T00:00:00	2024-11-06T16:00:00	8	Radiación solar	154
153537	7	Sololá	701	Sololá	2	El tablón	5	Mayo	2023-11-05T00:00:00	2024-11-06T17:00:00	2	Temperatura media	14.8
153538	7	Sololá	701	Sololá	2	El tablón	5	Mayo	2023-11-05T00:00:00	2024-11-06T17:00:00	4	Temperatura máxima	15.3
153539	7	Sololá	701	Sololá	2	El tablón	5	Mayo	2023-11-05T00:00:00	2024-11-06T17:00:00	3	Temperatura mínima	14.8
153540	7	Sololá	701	Sololá	2	El tablón	5	Mayo	2023-11-05T00:00:00	2024-11-06T17:00:00	5	Humedad	88
153541	7	Sololá	701	Sololá	2	El tablón	5	Mayo	2023-11-05T00:00:00	2024-11-06T17:00:00	6	Velocidad del viento	3.2
153542	7	Sololá	701	Sololá	2	El tablón	5	Mayo	2023-11-05T00:00:00	2024-11-06T17:00:00	7	Dirección del viento	3.22
153543	7	Sololá	701	Sololá	2	El tablón	5	Mayo	2023-11-05T00:00:00	2024-11-06T17:00:00	1	Precipitación	0
153544	7	Sololá	701	Sololá	2	El tablón	5	Mayo	2023-11-05T00:00:00	2024-11-06T17:00:00	8	Radiación solar	60
153545	7	Sololá	701	Sololá	2	El tablón	5	Mayo	2023-11-05T00:00:00	2024-11-06T18:00:00	2	Temperatura media	15.1
153546	7	Sololá	701	Sololá	2	El tablón	5	Mayo	2023-11-05T00:00:00	2024-11-06T18:00:00	4	Temperatura máxima	15.1
153547	7	Sololá	701	Sololá	2	El tablón	5	Mayo	2023-11-05T00:00:00	2024-11-06T18:00:00	3	Temperatura mínima	14.8
153548	7	Sololá	701	Sololá	2	El tablón	5	Mayo	2023-11-05T00:00:00	2024-11-06T18:00:00	5	Humedad	88
153549	7	Sololá	701	Sololá	2	El tablón	5	Mayo	2023-11-05T00:00:00	2024-11-06T18:00:00	6	Velocidad del viento	1.6
153550	7	Sololá	701	Sololá	2	El tablón	5	Mayo	2023-11-05T00:00:00	2024-11-06T18:00:00	7	Dirección del viento	1.61
153551	7	Sololá	701	Sololá	2	El tablón	5	Mayo	2023-11-05T00:00:00	2024-11-06T18:00:00	1	Precipitación	0
153552	7	Sololá	701	Sololá	2	El tablón	5	Mayo	2023-11-05T00:00:00	2024-11-06T18:00:00	8	Radiación solar	76
153553	7	Sololá	701	Sololá	2	El tablón	5	Mayo	2023-11-05T00:00:00	2024-11-06T19:00:00	2	Temperatura media	14.7
153554	7	Sololá	701	Sololá	2	El tablón	5	Mayo	2023-11-05T00:00:00	2024-11-06T19:00:00	4	Temperatura máxima	15.2
153555	7	Sololá	701	Sololá	2	El tablón	5	Mayo	2023-11-05T00:00:00	2024-11-06T19:00:00	3	Temperatura mínima	14.7
153556	7	Sololá	701	Sololá	2	El tablón	5	Mayo	2023-11-05T00:00:00	2024-11-06T19:00:00	5	Humedad	88
153557	7	Sololá	701	Sololá	2	El tablón	5	Mayo	2023-11-05T00:00:00	2024-11-06T19:00:00	6	Velocidad del viento	1.6
153558	7	Sololá	701	Sololá	2	El tablón	5	Mayo	2023-11-05T00:00:00	2024-11-06T19:00:00	7	Dirección del viento	1.61
153559	7	Sololá	701	Sololá	2	El tablón	5	Mayo	2023-11-05T00:00:00	2024-11-06T19:00:00	1	Precipitación	0
153560	7	Sololá	701	Sololá	2	El tablón	5	Mayo	2023-11-05T00:00:00	2024-11-06T19:00:00	8	Radiación solar	0
153561	7	Sololá	701	Sololá	2	El tablón	5	Mayo	2023-11-05T00:00:00	2024-11-06T20:00:00	2	Temperatura media	14.5
153562	7	Sololá	701	Sololá	2	El tablón	5	Mayo	2023-11-05T00:00:00	2024-11-06T20:00:00	4	Temperatura máxima	14.7
153563	7	Sololá	701	Sololá	2	El tablón	5	Mayo	2023-11-05T00:00:00	2024-11-06T20:00:00	3	Temperatura mínima	14.4
153564	7	Sololá	701	Sololá	2	El tablón	5	Mayo	2023-11-05T00:00:00	2024-11-06T20:00:00	5	Humedad	89
153565	7	Sololá	701	Sololá	2	El tablón	5	Mayo	2023-11-05T00:00:00	2024-11-06T20:00:00	6	Velocidad del viento	1.6
153566	7	Sololá	701	Sololá	2	El tablón	5	Mayo	2023-11-05T00:00:00	2024-11-06T20:00:00	7	Dirección del viento	1.61
153567	7	Sololá	701	Sololá	2	El tablón	5	Mayo	2023-11-05T00:00:00	2024-11-06T20:00:00	1	Precipitación	0
153568	7	Sololá	701	Sololá	2	El tablón	5	Mayo	2023-11-05T00:00:00	2024-11-06T20:00:00	8	Radiación solar	0
153569	7	Sololá	701	Sololá	2	El tablón	5	Mayo	2023-11-05T00:00:00	2024-11-06T21:00:00	2	Temperatura media	13.8
153570	7	Sololá	701	Sololá	2	El tablón	5	Mayo	2023-11-05T00:00:00	2024-11-06T21:00:00	4	Temperatura máxima	14.5
153571	7	Sololá	701	Sololá	2	El tablón	5	Mayo	2023-11-05T00:00:00	2024-11-06T21:00:00	3	Temperatura mínima	13.4
153572	7	Sololá	701	Sololá	2	El tablón	5	Mayo	2023-11-05T00:00:00	2024-11-06T21:00:00	5	Humedad	89
153573	7	Sololá	701	Sololá	2	El tablón	5	Mayo	2023-11-05T00:00:00	2024-11-06T21:00:00	6	Velocidad del viento	1.6
153574	7	Sololá	701	Sololá	2	El tablón	5	Mayo	2023-11-05T00:00:00	2024-11-06T21:00:00	7	Dirección del viento	1.61
153575	7	Sololá	701	Sololá	2	El tablón	5	Mayo	2023-11-05T00:00:00	2024-11-06T21:00:00	1	Precipitación	0.2
153576	7	Sololá	701	Sololá	2	El tablón	5	Mayo	2023-11-05T00:00:00	2024-11-06T21:00:00	8	Radiación solar	0
153577	7	Sololá	701	Sololá	2	El tablón	5	Mayo	2023-11-05T00:00:00	2024-11-06T22:00:00	2	Temperatura media	13.4
153578	7	Sololá	701	Sololá	2	El tablón	5	Mayo	2023-11-05T00:00:00	2024-11-06T22:00:00	4	Temperatura máxima	14.1
153579	7	Sololá	701	Sololá	2	El tablón	5	Mayo	2023-11-05T00:00:00	2024-11-06T22:00:00	3	Temperatura mínima	13.4
153580	7	Sololá	701	Sololá	2	El tablón	5	Mayo	2023-11-05T00:00:00	2024-11-06T22:00:00	5	Humedad	89
153581	7	Sololá	701	Sololá	2	El tablón	5	Mayo	2023-11-05T00:00:00	2024-11-06T22:00:00	6	Velocidad del viento	1.6
153582	7	Sololá	701	Sololá	2	El tablón	5	Mayo	2023-11-05T00:00:00	2024-11-06T22:00:00	7	Dirección del viento	1.61
153583	7	Sololá	701	Sololá	2	El tablón	5	Mayo	2023-11-05T00:00:00	2024-11-06T22:00:00	1	Precipitación	0.4
153584	7	Sololá	701	Sololá	2	El tablón	5	Mayo	2023-11-05T00:00:00	2024-11-06T22:00:00	8	Radiación solar	0
153585	7	Sololá	701	Sololá	2	El tablón	5	Mayo	2023-11-05T00:00:00	2024-11-06T23:00:00	2	Temperatura media	13.3
153586	7	Sololá	701	Sololá	2	El tablón	5	Mayo	2023-11-05T00:00:00	2024-11-06T23:00:00	4	Temperatura máxima	13.4
153587	7	Sololá	701	Sololá	2	El tablón	5	Mayo	2023-11-05T00:00:00	2024-11-06T23:00:00	3	Temperatura mínima	13.1
153588	7	Sololá	701	Sololá	2	El tablón	5	Mayo	2023-11-05T00:00:00	2024-11-06T23:00:00	5	Humedad	89
153589	7	Sololá	701	Sololá	2	El tablón	5	Mayo	2023-11-05T00:00:00	2024-11-06T23:00:00	6	Velocidad del viento	0
153590	7	Sololá	701	Sololá	2	El tablón	5	Mayo	2023-11-05T00:00:00	2024-11-06T23:00:00	7	Dirección del viento	0
153591	7	Sololá	701	Sololá	2	El tablón	5	Mayo	2023-11-05T00:00:00	2024-11-06T23:00:00	1	Precipitación	0
153592	7	Sololá	701	Sololá	2	El tablón	5	Mayo	2023-11-05T00:00:00	2024-11-06T23:00:00	8	Radiación solar	0
153593	7	Sololá	701	Sololá	2	El tablón	5	Mayo	2023-12-05T00:00:00	2024-11-06T00:00:00	2	Temperatura media	13.3
153594	7	Sololá	701	Sololá	2	El tablón	5	Mayo	2023-12-05T00:00:00	2024-11-06T00:00:00	4	Temperatura máxima	13.4
153595	7	Sololá	701	Sololá	2	El tablón	5	Mayo	2023-12-05T00:00:00	2024-11-06T00:00:00	3	Temperatura mínima	13.2
153596	7	Sololá	701	Sololá	2	El tablón	5	Mayo	2023-12-05T00:00:00	2024-11-06T00:00:00	5	Humedad	89
153597	7	Sololá	701	Sololá	2	El tablón	5	Mayo	2023-12-05T00:00:00	2024-11-06T00:00:00	6	Velocidad del viento	0
153598	7	Sololá	701	Sololá	2	El tablón	5	Mayo	2023-12-05T00:00:00	2024-11-06T00:00:00	7	Dirección del viento	0
153599	7	Sololá	701	Sololá	2	El tablón	5	Mayo	2023-12-05T00:00:00	2024-11-06T00:00:00	1	Precipitación	0
153600	7	Sololá	701	Sololá	2	El tablón	5	Mayo	2023-12-05T00:00:00	2024-11-06T00:00:00	8	Radiación solar	0
153601	7	Sololá	701	Sololá	2	El tablón	5	Mayo	2023-12-05T00:00:00	2024-11-06T01:00:00	2	Temperatura media	12.2
153602	7	Sololá	701	Sololá	2	El tablón	5	Mayo	2023-12-05T00:00:00	2024-11-06T01:00:00	4	Temperatura máxima	13.2
153603	7	Sololá	701	Sololá	2	El tablón	5	Mayo	2023-12-05T00:00:00	2024-11-06T01:00:00	3	Temperatura mínima	12.1
153604	7	Sololá	701	Sololá	2	El tablón	5	Mayo	2023-12-05T00:00:00	2024-11-06T01:00:00	5	Humedad	89
153605	7	Sololá	701	Sololá	2	El tablón	5	Mayo	2023-12-05T00:00:00	2024-11-06T01:00:00	6	Velocidad del viento	1.6
153606	7	Sololá	701	Sololá	2	El tablón	5	Mayo	2023-12-05T00:00:00	2024-11-06T01:00:00	7	Dirección del viento	1.61
153607	7	Sololá	701	Sololá	2	El tablón	5	Mayo	2023-12-05T00:00:00	2024-11-06T01:00:00	1	Precipitación	0
153608	7	Sololá	701	Sololá	2	El tablón	5	Mayo	2023-12-05T00:00:00	2024-11-06T01:00:00	8	Radiación solar	0
153609	7	Sololá	701	Sololá	2	El tablón	5	Mayo	2023-12-05T00:00:00	2024-11-06T02:00:00	2	Temperatura media	12.2
153610	7	Sololá	701	Sololá	2	El tablón	5	Mayo	2023-12-05T00:00:00	2024-11-06T02:00:00	4	Temperatura máxima	12.3
153611	7	Sololá	701	Sololá	2	El tablón	5	Mayo	2023-12-05T00:00:00	2024-11-06T02:00:00	3	Temperatura mínima	12
153612	7	Sololá	701	Sololá	2	El tablón	5	Mayo	2023-12-05T00:00:00	2024-11-06T02:00:00	5	Humedad	89
153613	7	Sololá	701	Sololá	2	El tablón	5	Mayo	2023-12-05T00:00:00	2024-11-06T02:00:00	6	Velocidad del viento	0
153614	7	Sololá	701	Sololá	2	El tablón	5	Mayo	2023-12-05T00:00:00	2024-11-06T02:00:00	7	Dirección del viento	0
153615	7	Sololá	701	Sololá	2	El tablón	5	Mayo	2023-12-05T00:00:00	2024-11-06T02:00:00	1	Precipitación	0
153616	7	Sololá	701	Sololá	2	El tablón	5	Mayo	2023-12-05T00:00:00	2024-11-06T02:00:00	8	Radiación solar	0
153617	7	Sololá	701	Sololá	2	El tablón	5	Mayo	2023-12-05T00:00:00	2024-11-06T03:00:00	2	Temperatura media	11.8
153618	7	Sololá	701	Sololá	2	El tablón	5	Mayo	2023-12-05T00:00:00	2024-11-06T03:00:00	4	Temperatura máxima	12.2
153619	7	Sololá	701	Sololá	2	El tablón	5	Mayo	2023-12-05T00:00:00	2024-11-06T03:00:00	3	Temperatura mínima	11.8
153620	7	Sololá	701	Sololá	2	El tablón	5	Mayo	2023-12-05T00:00:00	2024-11-06T03:00:00	5	Humedad	89
153621	7	Sololá	701	Sololá	2	El tablón	5	Mayo	2023-12-05T00:00:00	2024-11-06T03:00:00	6	Velocidad del viento	1.6
153622	7	Sololá	701	Sololá	2	El tablón	5	Mayo	2023-12-05T00:00:00	2024-11-06T03:00:00	7	Dirección del viento	1.61
153623	7	Sololá	701	Sololá	2	El tablón	5	Mayo	2023-12-05T00:00:00	2024-11-06T03:00:00	1	Precipitación	0
153624	7	Sololá	701	Sololá	2	El tablón	5	Mayo	2023-12-05T00:00:00	2024-11-06T03:00:00	8	Radiación solar	0
153625	7	Sololá	701	Sololá	2	El tablón	5	Mayo	2023-12-05T00:00:00	2024-11-06T04:00:00	2	Temperatura media	11.5
153626	7	Sololá	701	Sololá	2	El tablón	5	Mayo	2023-12-05T00:00:00	2024-11-06T04:00:00	4	Temperatura máxima	11.8
153627	7	Sololá	701	Sololá	2	El tablón	5	Mayo	2023-12-05T00:00:00	2024-11-06T04:00:00	3	Temperatura mínima	11.4
153628	7	Sololá	701	Sololá	2	El tablón	5	Mayo	2023-12-05T00:00:00	2024-11-06T04:00:00	5	Humedad	89
153629	7	Sololá	701	Sololá	2	El tablón	5	Mayo	2023-12-05T00:00:00	2024-11-06T04:00:00	6	Velocidad del viento	3.2
153630	7	Sololá	701	Sololá	2	El tablón	5	Mayo	2023-12-05T00:00:00	2024-11-06T04:00:00	7	Dirección del viento	3.22
153631	7	Sololá	701	Sololá	2	El tablón	5	Mayo	2023-12-05T00:00:00	2024-11-06T04:00:00	1	Precipitación	0
153632	7	Sololá	701	Sololá	2	El tablón	5	Mayo	2023-12-05T00:00:00	2024-11-06T04:00:00	8	Radiación solar	0
153633	7	Sololá	701	Sololá	2	El tablón	5	Mayo	2023-12-05T00:00:00	2024-11-06T05:00:00	2	Temperatura media	11.5
153634	7	Sololá	701	Sololá	2	El tablón	5	Mayo	2023-12-05T00:00:00	2024-11-06T05:00:00	4	Temperatura máxima	11.5
153635	7	Sololá	701	Sololá	2	El tablón	5	Mayo	2023-12-05T00:00:00	2024-11-06T05:00:00	3	Temperatura mínima	11.3
153636	7	Sololá	701	Sololá	2	El tablón	5	Mayo	2023-12-05T00:00:00	2024-11-06T05:00:00	5	Humedad	89
153637	7	Sololá	701	Sololá	2	El tablón	5	Mayo	2023-12-05T00:00:00	2024-11-06T05:00:00	6	Velocidad del viento	4.8
153638	7	Sololá	701	Sololá	2	El tablón	5	Mayo	2023-12-05T00:00:00	2024-11-06T05:00:00	7	Dirección del viento	4.83
153639	7	Sololá	701	Sololá	2	El tablón	5	Mayo	2023-12-05T00:00:00	2024-11-06T05:00:00	1	Precipitación	0
153640	7	Sololá	701	Sololá	2	El tablón	5	Mayo	2023-12-05T00:00:00	2024-11-06T05:00:00	8	Radiación solar	0
153641	7	Sololá	701	Sololá	2	El tablón	5	Mayo	2023-12-05T00:00:00	2024-11-06T06:00:00	2	Temperatura media	11.2
153642	7	Sololá	701	Sololá	2	El tablón	5	Mayo	2023-12-05T00:00:00	2024-11-06T06:00:00	4	Temperatura máxima	11.8
153643	7	Sololá	701	Sololá	2	El tablón	5	Mayo	2023-12-05T00:00:00	2024-11-06T06:00:00	3	Temperatura mínima	11.1
153644	7	Sololá	701	Sololá	2	El tablón	5	Mayo	2023-12-05T00:00:00	2024-11-06T06:00:00	5	Humedad	89
153645	7	Sololá	701	Sololá	2	El tablón	5	Mayo	2023-12-05T00:00:00	2024-11-06T06:00:00	6	Velocidad del viento	1.6
153646	7	Sololá	701	Sololá	2	El tablón	5	Mayo	2023-12-05T00:00:00	2024-11-06T06:00:00	7	Dirección del viento	1.61
153647	7	Sololá	701	Sololá	2	El tablón	5	Mayo	2023-12-05T00:00:00	2024-11-06T06:00:00	1	Precipitación	0
153648	7	Sololá	701	Sololá	2	El tablón	5	Mayo	2023-12-05T00:00:00	2024-11-06T06:00:00	8	Radiación solar	5
153649	7	Sololá	701	Sololá	2	El tablón	5	Mayo	2023-12-05T00:00:00	2024-11-06T07:00:00	2	Temperatura media	13.5
153650	7	Sololá	701	Sololá	2	El tablón	5	Mayo	2023-12-05T00:00:00	2024-11-06T07:00:00	4	Temperatura máxima	13.5
153651	7	Sololá	701	Sololá	2	El tablón	5	Mayo	2023-12-05T00:00:00	2024-11-06T07:00:00	3	Temperatura mínima	11.1
153652	7	Sololá	701	Sololá	2	El tablón	5	Mayo	2023-12-05T00:00:00	2024-11-06T07:00:00	5	Humedad	88
153653	7	Sololá	701	Sololá	2	El tablón	5	Mayo	2023-12-05T00:00:00	2024-11-06T07:00:00	6	Velocidad del viento	1.6
153654	7	Sololá	701	Sololá	2	El tablón	5	Mayo	2023-12-05T00:00:00	2024-11-06T07:00:00	7	Dirección del viento	1.61
153655	7	Sololá	701	Sololá	2	El tablón	5	Mayo	2023-12-05T00:00:00	2024-11-06T07:00:00	1	Precipitación	0
153656	7	Sololá	701	Sololá	2	El tablón	5	Mayo	2023-12-05T00:00:00	2024-11-06T07:00:00	8	Radiación solar	130
153657	7	Sololá	701	Sololá	2	El tablón	5	Mayo	2023-12-05T00:00:00	2024-11-06T08:00:00	2	Temperatura media	14.9
153658	7	Sololá	701	Sololá	2	El tablón	5	Mayo	2023-12-05T00:00:00	2024-11-06T08:00:00	4	Temperatura máxima	15.7
153659	7	Sololá	701	Sololá	2	El tablón	5	Mayo	2023-12-05T00:00:00	2024-11-06T08:00:00	3	Temperatura mínima	13.5
153660	7	Sololá	701	Sololá	2	El tablón	5	Mayo	2023-12-05T00:00:00	2024-11-06T08:00:00	5	Humedad	84
153661	7	Sololá	701	Sololá	2	El tablón	5	Mayo	2023-12-05T00:00:00	2024-11-06T08:00:00	6	Velocidad del viento	3.2
153662	7	Sololá	701	Sololá	2	El tablón	5	Mayo	2023-12-05T00:00:00	2024-11-06T08:00:00	7	Dirección del viento	3.22
153663	7	Sololá	701	Sololá	2	El tablón	5	Mayo	2023-12-05T00:00:00	2024-11-06T08:00:00	1	Precipitación	0
153664	7	Sololá	701	Sololá	2	El tablón	5	Mayo	2023-12-05T00:00:00	2024-11-06T08:00:00	8	Radiación solar	268
153665	7	Sololá	701	Sololá	2	El tablón	5	Mayo	2023-12-05T00:00:00	2024-11-06T09:00:00	2	Temperatura media	16.2
153666	7	Sololá	701	Sololá	2	El tablón	5	Mayo	2023-12-05T00:00:00	2024-11-06T09:00:00	4	Temperatura máxima	16.2
153667	7	Sololá	701	Sololá	2	El tablón	5	Mayo	2023-12-05T00:00:00	2024-11-06T09:00:00	3	Temperatura mínima	14.8
153668	7	Sololá	701	Sololá	2	El tablón	5	Mayo	2023-12-05T00:00:00	2024-11-06T09:00:00	5	Humedad	82
153669	7	Sololá	701	Sololá	2	El tablón	5	Mayo	2023-12-05T00:00:00	2024-11-06T09:00:00	6	Velocidad del viento	3.2
153670	7	Sololá	701	Sololá	2	El tablón	5	Mayo	2023-12-05T00:00:00	2024-11-06T09:00:00	7	Dirección del viento	3.22
153671	7	Sololá	701	Sololá	2	El tablón	5	Mayo	2023-12-05T00:00:00	2024-11-06T09:00:00	1	Precipitación	0
153672	7	Sololá	701	Sololá	2	El tablón	5	Mayo	2023-12-05T00:00:00	2024-11-06T09:00:00	8	Radiación solar	429
153673	7	Sololá	701	Sololá	2	El tablón	5	Mayo	2023-12-05T00:00:00	2024-11-06T10:00:00	2	Temperatura media	17.9
153674	7	Sololá	701	Sololá	2	El tablón	5	Mayo	2023-12-05T00:00:00	2024-11-06T10:00:00	4	Temperatura máxima	17.9
153675	7	Sololá	701	Sololá	2	El tablón	5	Mayo	2023-12-05T00:00:00	2024-11-06T10:00:00	3	Temperatura mínima	16.2
153676	7	Sololá	701	Sololá	2	El tablón	5	Mayo	2023-12-05T00:00:00	2024-11-06T10:00:00	5	Humedad	78
153677	7	Sololá	701	Sololá	2	El tablón	5	Mayo	2023-12-05T00:00:00	2024-11-06T10:00:00	6	Velocidad del viento	4.8
153678	7	Sololá	701	Sololá	2	El tablón	5	Mayo	2023-12-05T00:00:00	2024-11-06T10:00:00	7	Dirección del viento	4.83
153679	7	Sololá	701	Sololá	2	El tablón	5	Mayo	2023-12-05T00:00:00	2024-11-06T10:00:00	1	Precipitación	0
153680	7	Sololá	701	Sololá	2	El tablón	5	Mayo	2023-12-05T00:00:00	2024-11-06T10:00:00	8	Radiación solar	729
153681	7	Sololá	701	Sololá	2	El tablón	5	Mayo	2023-12-05T00:00:00	2024-11-06T11:00:00	2	Temperatura media	19.1
153682	7	Sololá	701	Sololá	2	El tablón	5	Mayo	2023-12-05T00:00:00	2024-11-06T11:00:00	4	Temperatura máxima	19.1
153683	7	Sololá	701	Sololá	2	El tablón	5	Mayo	2023-12-05T00:00:00	2024-11-06T11:00:00	3	Temperatura mínima	17.6
153684	7	Sololá	701	Sololá	2	El tablón	5	Mayo	2023-12-05T00:00:00	2024-11-06T11:00:00	5	Humedad	73
153685	7	Sololá	701	Sololá	2	El tablón	5	Mayo	2023-12-05T00:00:00	2024-11-06T11:00:00	6	Velocidad del viento	4.8
153686	7	Sololá	701	Sololá	2	El tablón	5	Mayo	2023-12-05T00:00:00	2024-11-06T11:00:00	7	Dirección del viento	4.83
153687	7	Sololá	701	Sololá	2	El tablón	5	Mayo	2023-12-05T00:00:00	2024-11-06T11:00:00	1	Precipitación	0
153688	7	Sololá	701	Sololá	2	El tablón	5	Mayo	2023-12-05T00:00:00	2024-11-06T11:00:00	8	Radiación solar	880
153689	7	Sololá	701	Sololá	2	El tablón	5	Mayo	2023-12-05T00:00:00	2024-11-06T12:00:00	2	Temperatura media	18.2
153690	7	Sololá	701	Sololá	2	El tablón	5	Mayo	2023-12-05T00:00:00	2024-11-06T12:00:00	4	Temperatura máxima	19.1
153691	7	Sololá	701	Sololá	2	El tablón	5	Mayo	2023-12-05T00:00:00	2024-11-06T12:00:00	3	Temperatura mínima	18.2
153692	7	Sololá	701	Sololá	2	El tablón	5	Mayo	2023-12-05T00:00:00	2024-11-06T12:00:00	5	Humedad	77
153693	7	Sololá	701	Sololá	2	El tablón	5	Mayo	2023-12-05T00:00:00	2024-11-06T12:00:00	6	Velocidad del viento	8
153694	7	Sololá	701	Sololá	2	El tablón	5	Mayo	2023-12-05T00:00:00	2024-11-06T12:00:00	7	Dirección del viento	8.05
153695	7	Sololá	701	Sololá	2	El tablón	5	Mayo	2023-12-05T00:00:00	2024-11-06T12:00:00	1	Precipitación	0
153696	7	Sololá	701	Sololá	2	El tablón	5	Mayo	2023-12-05T00:00:00	2024-11-06T12:00:00	8	Radiación solar	965
153697	7	Sololá	701	Sololá	2	El tablón	5	Mayo	2023-12-05T00:00:00	2024-11-06T13:00:00	2	Temperatura media	18.3
153698	7	Sololá	701	Sololá	2	El tablón	5	Mayo	2023-12-05T00:00:00	2024-11-06T13:00:00	4	Temperatura máxima	18.8
153699	7	Sololá	701	Sololá	2	El tablón	5	Mayo	2023-12-05T00:00:00	2024-11-06T13:00:00	3	Temperatura mínima	18.2
153700	7	Sololá	701	Sololá	2	El tablón	5	Mayo	2023-12-05T00:00:00	2024-11-06T13:00:00	5	Humedad	79
153701	7	Sololá	701	Sololá	2	El tablón	5	Mayo	2023-12-05T00:00:00	2024-11-06T13:00:00	6	Velocidad del viento	8
153702	7	Sololá	701	Sololá	2	El tablón	5	Mayo	2023-12-05T00:00:00	2024-11-06T13:00:00	7	Dirección del viento	8.05
153703	7	Sololá	701	Sololá	2	El tablón	5	Mayo	2023-12-05T00:00:00	2024-11-06T13:00:00	1	Precipitación	0
153704	7	Sololá	701	Sololá	2	El tablón	5	Mayo	2023-12-05T00:00:00	2024-11-06T13:00:00	8	Radiación solar	865
153705	7	Sololá	701	Sololá	2	El tablón	5	Mayo	2023-12-05T00:00:00	2024-11-06T14:00:00	2	Temperatura media	18.2
153706	7	Sololá	701	Sololá	2	El tablón	5	Mayo	2023-12-05T00:00:00	2024-11-06T14:00:00	4	Temperatura máxima	18.7
153707	7	Sololá	701	Sololá	2	El tablón	5	Mayo	2023-12-05T00:00:00	2024-11-06T14:00:00	3	Temperatura mínima	17.8
153708	7	Sololá	701	Sololá	2	El tablón	5	Mayo	2023-12-05T00:00:00	2024-11-06T14:00:00	5	Humedad	83
153709	7	Sololá	701	Sololá	2	El tablón	5	Mayo	2023-12-05T00:00:00	2024-11-06T14:00:00	6	Velocidad del viento	6.4
153710	7	Sololá	701	Sololá	2	El tablón	5	Mayo	2023-12-05T00:00:00	2024-11-06T14:00:00	7	Dirección del viento	6.44
153711	7	Sololá	701	Sololá	2	El tablón	5	Mayo	2023-12-05T00:00:00	2024-11-06T14:00:00	1	Precipitación	0
153712	7	Sololá	701	Sololá	2	El tablón	5	Mayo	2023-12-05T00:00:00	2024-11-06T14:00:00	8	Radiación solar	524
153713	7	Sololá	701	Sololá	2	El tablón	5	Mayo	2023-12-05T00:00:00	2024-11-06T15:00:00	2	Temperatura media	16.8
153714	7	Sololá	701	Sololá	2	El tablón	5	Mayo	2023-12-05T00:00:00	2024-11-06T15:00:00	4	Temperatura máxima	18.6
153715	7	Sololá	701	Sololá	2	El tablón	5	Mayo	2023-12-05T00:00:00	2024-11-06T15:00:00	3	Temperatura mínima	16.8
153716	7	Sololá	701	Sololá	2	El tablón	5	Mayo	2023-12-05T00:00:00	2024-11-06T15:00:00	5	Humedad	86
153717	7	Sololá	701	Sololá	2	El tablón	5	Mayo	2023-12-05T00:00:00	2024-11-06T15:00:00	6	Velocidad del viento	6.4
153718	7	Sololá	701	Sololá	2	El tablón	5	Mayo	2023-12-05T00:00:00	2024-11-06T15:00:00	7	Dirección del viento	6.44
153719	7	Sololá	701	Sololá	2	El tablón	5	Mayo	2023-12-05T00:00:00	2024-11-06T15:00:00	1	Precipitación	0
153720	7	Sololá	701	Sololá	2	El tablón	5	Mayo	2023-12-05T00:00:00	2024-11-06T15:00:00	8	Radiación solar	324
153721	7	Sololá	701	Sololá	2	El tablón	5	Mayo	2023-12-05T00:00:00	2024-11-06T16:00:00	2	Temperatura media	16
153722	7	Sololá	701	Sololá	2	El tablón	5	Mayo	2023-12-05T00:00:00	2024-11-06T16:00:00	4	Temperatura máxima	16.8
153723	7	Sololá	701	Sololá	2	El tablón	5	Mayo	2023-12-05T00:00:00	2024-11-06T16:00:00	3	Temperatura mínima	15.9
153724	7	Sololá	701	Sololá	2	El tablón	5	Mayo	2023-12-05T00:00:00	2024-11-06T16:00:00	5	Humedad	88
153725	7	Sololá	701	Sololá	2	El tablón	5	Mayo	2023-12-05T00:00:00	2024-11-06T16:00:00	6	Velocidad del viento	3.2
153726	7	Sololá	701	Sololá	2	El tablón	5	Mayo	2023-12-05T00:00:00	2024-11-06T16:00:00	7	Dirección del viento	3.22
153727	7	Sololá	701	Sololá	2	El tablón	5	Mayo	2023-12-05T00:00:00	2024-11-06T16:00:00	1	Precipitación	0
153728	7	Sololá	701	Sololá	2	El tablón	5	Mayo	2023-12-05T00:00:00	2024-11-06T16:00:00	8	Radiación solar	64
153729	7	Sololá	701	Sololá	2	El tablón	5	Mayo	2023-12-05T00:00:00	2024-11-06T17:00:00	2	Temperatura media	15.5
153730	7	Sololá	701	Sololá	2	El tablón	5	Mayo	2023-12-05T00:00:00	2024-11-06T17:00:00	4	Temperatura máxima	16
153731	7	Sololá	701	Sololá	2	El tablón	5	Mayo	2023-12-05T00:00:00	2024-11-06T17:00:00	3	Temperatura mínima	15.5
153732	7	Sololá	701	Sololá	2	El tablón	5	Mayo	2023-12-05T00:00:00	2024-11-06T17:00:00	5	Humedad	88
153733	7	Sololá	701	Sololá	2	El tablón	5	Mayo	2023-12-05T00:00:00	2024-11-06T17:00:00	6	Velocidad del viento	3.2
153734	7	Sololá	701	Sololá	2	El tablón	5	Mayo	2023-12-05T00:00:00	2024-11-06T17:00:00	7	Dirección del viento	3.22
153735	7	Sololá	701	Sololá	2	El tablón	5	Mayo	2023-12-05T00:00:00	2024-11-06T17:00:00	1	Precipitación	0
153736	7	Sololá	701	Sololá	2	El tablón	5	Mayo	2023-12-05T00:00:00	2024-11-06T17:00:00	8	Radiación solar	52
153737	7	Sololá	701	Sololá	2	El tablón	5	Mayo	2023-12-05T00:00:00	2024-11-06T18:00:00	2	Temperatura media	14.8
153738	7	Sololá	701	Sololá	2	El tablón	5	Mayo	2023-12-05T00:00:00	2024-11-06T18:00:00	4	Temperatura máxima	15.5
153739	7	Sololá	701	Sololá	2	El tablón	5	Mayo	2023-12-05T00:00:00	2024-11-06T18:00:00	3	Temperatura mínima	14.8
153740	7	Sololá	701	Sololá	2	El tablón	5	Mayo	2023-12-05T00:00:00	2024-11-06T18:00:00	5	Humedad	88
153741	7	Sololá	701	Sololá	2	El tablón	5	Mayo	2023-12-05T00:00:00	2024-11-06T18:00:00	6	Velocidad del viento	3.2
153742	7	Sololá	701	Sololá	2	El tablón	5	Mayo	2023-12-05T00:00:00	2024-11-06T18:00:00	7	Dirección del viento	3.22
153743	7	Sololá	701	Sololá	2	El tablón	5	Mayo	2023-12-05T00:00:00	2024-11-06T18:00:00	1	Precipitación	0
153744	7	Sololá	701	Sololá	2	El tablón	5	Mayo	2023-12-05T00:00:00	2024-11-06T18:00:00	8	Radiación solar	5
153745	7	Sololá	701	Sololá	2	El tablón	5	Mayo	2023-12-05T00:00:00	2024-11-06T19:00:00	2	Temperatura media	14.9
153746	7	Sololá	701	Sololá	2	El tablón	5	Mayo	2023-12-05T00:00:00	2024-11-06T19:00:00	4	Temperatura máxima	15.1
153747	7	Sololá	701	Sololá	2	El tablón	5	Mayo	2023-12-05T00:00:00	2024-11-06T19:00:00	3	Temperatura mínima	14.8
153748	7	Sololá	701	Sololá	2	El tablón	5	Mayo	2023-12-05T00:00:00	2024-11-06T19:00:00	5	Humedad	88
153749	7	Sololá	701	Sololá	2	El tablón	5	Mayo	2023-12-05T00:00:00	2024-11-06T19:00:00	6	Velocidad del viento	1.6
153750	7	Sololá	701	Sololá	2	El tablón	5	Mayo	2023-12-05T00:00:00	2024-11-06T19:00:00	7	Dirección del viento	1.61
153751	7	Sololá	701	Sololá	2	El tablón	5	Mayo	2023-12-05T00:00:00	2024-11-06T19:00:00	1	Precipitación	0
153752	7	Sololá	701	Sololá	2	El tablón	5	Mayo	2023-12-05T00:00:00	2024-11-06T19:00:00	8	Radiación solar	0
153753	7	Sololá	701	Sololá	2	El tablón	5	Mayo	2023-12-05T00:00:00	2024-11-06T20:00:00	2	Temperatura media	14.8
153754	7	Sololá	701	Sololá	2	El tablón	5	Mayo	2023-12-05T00:00:00	2024-11-06T20:00:00	4	Temperatura máxima	14.9
153755	7	Sololá	701	Sololá	2	El tablón	5	Mayo	2023-12-05T00:00:00	2024-11-06T20:00:00	3	Temperatura mínima	14.7
153756	7	Sololá	701	Sololá	2	El tablón	5	Mayo	2023-12-05T00:00:00	2024-11-06T20:00:00	5	Humedad	88
153757	7	Sololá	701	Sololá	2	El tablón	5	Mayo	2023-12-05T00:00:00	2024-11-06T20:00:00	6	Velocidad del viento	1.6
153758	7	Sololá	701	Sololá	2	El tablón	5	Mayo	2023-12-05T00:00:00	2024-11-06T20:00:00	7	Dirección del viento	1.61
153759	7	Sololá	701	Sololá	2	El tablón	5	Mayo	2023-12-05T00:00:00	2024-11-06T20:00:00	1	Precipitación	0
153760	7	Sololá	701	Sololá	2	El tablón	5	Mayo	2023-12-05T00:00:00	2024-11-06T20:00:00	8	Radiación solar	0
153761	7	Sololá	701	Sololá	2	El tablón	5	Mayo	2023-12-05T00:00:00	2024-11-06T21:00:00	2	Temperatura media	14.9
153762	7	Sololá	701	Sololá	2	El tablón	5	Mayo	2023-12-05T00:00:00	2024-11-06T21:00:00	4	Temperatura máxima	14.9
153763	7	Sololá	701	Sololá	2	El tablón	5	Mayo	2023-12-05T00:00:00	2024-11-06T21:00:00	3	Temperatura mínima	14.7
153764	7	Sololá	701	Sololá	2	El tablón	5	Mayo	2023-12-05T00:00:00	2024-11-06T21:00:00	5	Humedad	86
153765	7	Sololá	701	Sololá	2	El tablón	5	Mayo	2023-12-05T00:00:00	2024-11-06T21:00:00	6	Velocidad del viento	1.6
153766	7	Sololá	701	Sololá	2	El tablón	5	Mayo	2023-12-05T00:00:00	2024-11-06T21:00:00	7	Dirección del viento	1.61
153767	7	Sololá	701	Sololá	2	El tablón	5	Mayo	2023-12-05T00:00:00	2024-11-06T21:00:00	1	Precipitación	0
153768	7	Sololá	701	Sololá	2	El tablón	5	Mayo	2023-12-05T00:00:00	2024-11-06T21:00:00	8	Radiación solar	0
153769	7	Sololá	701	Sololá	2	El tablón	5	Mayo	2023-12-05T00:00:00	2024-11-06T22:00:00	2	Temperatura media	14.5
153770	7	Sololá	701	Sololá	2	El tablón	5	Mayo	2023-12-05T00:00:00	2024-11-06T22:00:00	4	Temperatura máxima	15
153771	7	Sololá	701	Sololá	2	El tablón	5	Mayo	2023-12-05T00:00:00	2024-11-06T22:00:00	3	Temperatura mínima	14.4
153772	7	Sololá	701	Sololá	2	El tablón	5	Mayo	2023-12-05T00:00:00	2024-11-06T22:00:00	5	Humedad	87
153773	7	Sololá	701	Sololá	2	El tablón	5	Mayo	2023-12-05T00:00:00	2024-11-06T22:00:00	6	Velocidad del viento	3.2
153774	7	Sololá	701	Sololá	2	El tablón	5	Mayo	2023-12-05T00:00:00	2024-11-06T22:00:00	7	Dirección del viento	3.22
153775	7	Sololá	701	Sololá	2	El tablón	5	Mayo	2023-12-05T00:00:00	2024-11-06T22:00:00	1	Precipitación	0
153776	7	Sololá	701	Sololá	2	El tablón	5	Mayo	2023-12-05T00:00:00	2024-11-06T22:00:00	8	Radiación solar	0
153777	7	Sololá	701	Sololá	2	El tablón	5	Mayo	2023-12-05T00:00:00	2024-11-06T23:00:00	2	Temperatura media	14.2
153778	7	Sololá	701	Sololá	2	El tablón	5	Mayo	2023-12-05T00:00:00	2024-11-06T23:00:00	4	Temperatura máxima	14.6
153779	7	Sololá	701	Sololá	2	El tablón	5	Mayo	2023-12-05T00:00:00	2024-11-06T23:00:00	3	Temperatura mínima	14.2
153780	7	Sololá	701	Sololá	2	El tablón	5	Mayo	2023-12-05T00:00:00	2024-11-06T23:00:00	5	Humedad	88
153781	7	Sololá	701	Sololá	2	El tablón	5	Mayo	2023-12-05T00:00:00	2024-11-06T23:00:00	6	Velocidad del viento	1.6
153782	7	Sololá	701	Sololá	2	El tablón	5	Mayo	2023-12-05T00:00:00	2024-11-06T23:00:00	7	Dirección del viento	1.61
153783	7	Sololá	701	Sololá	2	El tablón	5	Mayo	2023-12-05T00:00:00	2024-11-06T23:00:00	1	Precipitación	0
153784	7	Sololá	701	Sololá	2	El tablón	5	Mayo	2023-12-05T00:00:00	2024-11-06T23:00:00	8	Radiación solar	0
153785	7	Sololá	701	Sololá	2	El tablón	5	Mayo	2023-05-13T00:00:00	2024-11-06T00:00:00	2	Temperatura media	12.9
153786	7	Sololá	701	Sololá	2	El tablón	5	Mayo	2023-05-13T00:00:00	2024-11-06T00:00:00	4	Temperatura máxima	14.2
153787	7	Sololá	701	Sololá	2	El tablón	5	Mayo	2023-05-13T00:00:00	2024-11-06T00:00:00	3	Temperatura mínima	12.9
153788	7	Sololá	701	Sololá	2	El tablón	5	Mayo	2023-05-13T00:00:00	2024-11-06T00:00:00	5	Humedad	89
153789	7	Sololá	701	Sololá	2	El tablón	5	Mayo	2023-05-13T00:00:00	2024-11-06T00:00:00	6	Velocidad del viento	0
153790	7	Sololá	701	Sololá	2	El tablón	5	Mayo	2023-05-13T00:00:00	2024-11-06T00:00:00	7	Dirección del viento	0
153791	7	Sololá	701	Sololá	2	El tablón	5	Mayo	2023-05-13T00:00:00	2024-11-06T00:00:00	1	Precipitación	0
153792	7	Sololá	701	Sololá	2	El tablón	5	Mayo	2023-05-13T00:00:00	2024-11-06T00:00:00	8	Radiación solar	0
153793	7	Sololá	701	Sololá	2	El tablón	5	Mayo	2023-05-13T00:00:00	2024-11-06T01:00:00	2	Temperatura media	13.2
153794	7	Sololá	701	Sololá	2	El tablón	5	Mayo	2023-05-13T00:00:00	2024-11-06T01:00:00	4	Temperatura máxima	13.2
153795	7	Sololá	701	Sololá	2	El tablón	5	Mayo	2023-05-13T00:00:00	2024-11-06T01:00:00	3	Temperatura mínima	12.7
153796	7	Sololá	701	Sololá	2	El tablón	5	Mayo	2023-05-13T00:00:00	2024-11-06T01:00:00	5	Humedad	89
153797	7	Sololá	701	Sololá	2	El tablón	5	Mayo	2023-05-13T00:00:00	2024-11-06T01:00:00	6	Velocidad del viento	0
153798	7	Sololá	701	Sololá	2	El tablón	5	Mayo	2023-05-13T00:00:00	2024-11-06T01:00:00	7	Dirección del viento	0
153799	7	Sololá	701	Sololá	2	El tablón	5	Mayo	2023-05-13T00:00:00	2024-11-06T01:00:00	1	Precipitación	0
153800	7	Sololá	701	Sololá	2	El tablón	5	Mayo	2023-05-13T00:00:00	2024-11-06T01:00:00	8	Radiación solar	0
153801	7	Sololá	701	Sololá	2	El tablón	5	Mayo	2023-05-13T00:00:00	2024-11-06T02:00:00	2	Temperatura media	13.5
153802	7	Sololá	701	Sololá	2	El tablón	5	Mayo	2023-05-13T00:00:00	2024-11-06T02:00:00	4	Temperatura máxima	13.6
153803	7	Sololá	701	Sololá	2	El tablón	5	Mayo	2023-05-13T00:00:00	2024-11-06T02:00:00	3	Temperatura mínima	13.2
153804	7	Sololá	701	Sololá	2	El tablón	5	Mayo	2023-05-13T00:00:00	2024-11-06T02:00:00	5	Humedad	88
153805	7	Sololá	701	Sololá	2	El tablón	5	Mayo	2023-05-13T00:00:00	2024-11-06T02:00:00	6	Velocidad del viento	1.6
153806	7	Sololá	701	Sololá	2	El tablón	5	Mayo	2023-05-13T00:00:00	2024-11-06T02:00:00	7	Dirección del viento	1.61
153807	7	Sololá	701	Sololá	2	El tablón	5	Mayo	2023-05-13T00:00:00	2024-11-06T02:00:00	1	Precipitación	0
153808	7	Sololá	701	Sololá	2	El tablón	5	Mayo	2023-05-13T00:00:00	2024-11-06T02:00:00	8	Radiación solar	0
153809	7	Sololá	701	Sololá	2	El tablón	5	Mayo	2023-05-13T00:00:00	2024-11-06T03:00:00	2	Temperatura media	12.8
153810	7	Sololá	701	Sololá	2	El tablón	5	Mayo	2023-05-13T00:00:00	2024-11-06T03:00:00	4	Temperatura máxima	13.5
153811	7	Sololá	701	Sololá	2	El tablón	5	Mayo	2023-05-13T00:00:00	2024-11-06T03:00:00	3	Temperatura mínima	12.8
153812	7	Sololá	701	Sololá	2	El tablón	5	Mayo	2023-05-13T00:00:00	2024-11-06T03:00:00	5	Humedad	89
153813	7	Sololá	701	Sololá	2	El tablón	5	Mayo	2023-05-13T00:00:00	2024-11-06T03:00:00	6	Velocidad del viento	1.6
153814	7	Sololá	701	Sololá	2	El tablón	5	Mayo	2023-05-13T00:00:00	2024-11-06T03:00:00	7	Dirección del viento	1.61
153815	7	Sololá	701	Sololá	2	El tablón	5	Mayo	2023-05-13T00:00:00	2024-11-06T03:00:00	1	Precipitación	0
153816	7	Sololá	701	Sololá	2	El tablón	5	Mayo	2023-05-13T00:00:00	2024-11-06T03:00:00	8	Radiación solar	0
153817	7	Sololá	701	Sololá	2	El tablón	5	Mayo	2023-05-13T00:00:00	2024-11-06T04:00:00	2	Temperatura media	12.6
153818	7	Sololá	701	Sololá	2	El tablón	5	Mayo	2023-05-13T00:00:00	2024-11-06T04:00:00	4	Temperatura máxima	13.2
153819	7	Sololá	701	Sololá	2	El tablón	5	Mayo	2023-05-13T00:00:00	2024-11-06T04:00:00	3	Temperatura mínima	12.5
153820	7	Sololá	701	Sololá	2	El tablón	5	Mayo	2023-05-13T00:00:00	2024-11-06T04:00:00	5	Humedad	89
153821	7	Sololá	701	Sololá	2	El tablón	5	Mayo	2023-05-13T00:00:00	2024-11-06T04:00:00	6	Velocidad del viento	3.2
153822	7	Sololá	701	Sololá	2	El tablón	5	Mayo	2023-05-13T00:00:00	2024-11-06T04:00:00	7	Dirección del viento	3.22
153823	7	Sololá	701	Sololá	2	El tablón	5	Mayo	2023-05-13T00:00:00	2024-11-06T04:00:00	1	Precipitación	0
153824	7	Sololá	701	Sololá	2	El tablón	5	Mayo	2023-05-13T00:00:00	2024-11-06T04:00:00	8	Radiación solar	0
153825	7	Sololá	701	Sololá	2	El tablón	5	Mayo	2023-05-13T00:00:00	2024-11-06T05:00:00	2	Temperatura media	12.8
153826	7	Sololá	701	Sololá	2	El tablón	5	Mayo	2023-05-13T00:00:00	2024-11-06T05:00:00	4	Temperatura máxima	12.8
153827	7	Sololá	701	Sololá	2	El tablón	5	Mayo	2023-05-13T00:00:00	2024-11-06T05:00:00	3	Temperatura mínima	12.4
153828	7	Sololá	701	Sololá	2	El tablón	5	Mayo	2023-05-13T00:00:00	2024-11-06T05:00:00	5	Humedad	89
153829	7	Sololá	701	Sololá	2	El tablón	5	Mayo	2023-05-13T00:00:00	2024-11-06T05:00:00	6	Velocidad del viento	3.2
153830	7	Sololá	701	Sololá	2	El tablón	5	Mayo	2023-05-13T00:00:00	2024-11-06T05:00:00	7	Dirección del viento	3.22
153831	7	Sololá	701	Sololá	2	El tablón	5	Mayo	2023-05-13T00:00:00	2024-11-06T05:00:00	1	Precipitación	0
153832	7	Sololá	701	Sololá	2	El tablón	5	Mayo	2023-05-13T00:00:00	2024-11-06T05:00:00	8	Radiación solar	0
153833	7	Sololá	701	Sololá	2	El tablón	5	Mayo	2023-05-13T00:00:00	2024-11-06T06:00:00	2	Temperatura media	12.2
153834	7	Sololá	701	Sololá	2	El tablón	5	Mayo	2023-05-13T00:00:00	2024-11-06T06:00:00	4	Temperatura máxima	12.8
153835	7	Sololá	701	Sololá	2	El tablón	5	Mayo	2023-05-13T00:00:00	2024-11-06T06:00:00	3	Temperatura mínima	12.2
153836	7	Sololá	701	Sololá	2	El tablón	5	Mayo	2023-05-13T00:00:00	2024-11-06T06:00:00	5	Humedad	89
153837	7	Sololá	701	Sololá	2	El tablón	5	Mayo	2023-05-13T00:00:00	2024-11-06T06:00:00	6	Velocidad del viento	3.2
153838	7	Sololá	701	Sololá	2	El tablón	5	Mayo	2023-05-13T00:00:00	2024-11-06T06:00:00	7	Dirección del viento	3.22
153839	7	Sololá	701	Sololá	2	El tablón	5	Mayo	2023-05-13T00:00:00	2024-11-06T06:00:00	1	Precipitación	0
153840	7	Sololá	701	Sololá	2	El tablón	5	Mayo	2023-05-13T00:00:00	2024-11-06T06:00:00	8	Radiación solar	4
153841	7	Sololá	701	Sololá	2	El tablón	5	Mayo	2023-05-13T00:00:00	2024-11-06T07:00:00	2	Temperatura media	13
153842	7	Sololá	701	Sololá	2	El tablón	5	Mayo	2023-05-13T00:00:00	2024-11-06T07:00:00	4	Temperatura máxima	13
153843	7	Sololá	701	Sololá	2	El tablón	5	Mayo	2023-05-13T00:00:00	2024-11-06T07:00:00	3	Temperatura mínima	11.3
153844	7	Sololá	701	Sololá	2	El tablón	5	Mayo	2023-05-13T00:00:00	2024-11-06T07:00:00	5	Humedad	87
153845	7	Sololá	701	Sololá	2	El tablón	5	Mayo	2023-05-13T00:00:00	2024-11-06T07:00:00	6	Velocidad del viento	4.8
153846	7	Sololá	701	Sololá	2	El tablón	5	Mayo	2023-05-13T00:00:00	2024-11-06T07:00:00	7	Dirección del viento	4.83
153847	7	Sololá	701	Sololá	2	El tablón	5	Mayo	2023-05-13T00:00:00	2024-11-06T07:00:00	1	Precipitación	0
153848	7	Sololá	701	Sololá	2	El tablón	5	Mayo	2023-05-13T00:00:00	2024-11-06T07:00:00	8	Radiación solar	105
153849	7	Sololá	701	Sololá	2	El tablón	5	Mayo	2023-05-13T00:00:00	2024-11-06T08:00:00	2	Temperatura media	16.6
153850	7	Sololá	701	Sololá	2	El tablón	5	Mayo	2023-05-13T00:00:00	2024-11-06T08:00:00	4	Temperatura máxima	16.6
153851	7	Sololá	701	Sololá	2	El tablón	5	Mayo	2023-05-13T00:00:00	2024-11-06T08:00:00	3	Temperatura mínima	13
153852	7	Sololá	701	Sololá	2	El tablón	5	Mayo	2023-05-13T00:00:00	2024-11-06T08:00:00	5	Humedad	78
153853	7	Sololá	701	Sololá	2	El tablón	5	Mayo	2023-05-13T00:00:00	2024-11-06T08:00:00	6	Velocidad del viento	1.6
153854	7	Sololá	701	Sololá	2	El tablón	5	Mayo	2023-05-13T00:00:00	2024-11-06T08:00:00	7	Dirección del viento	1.61
153855	7	Sololá	701	Sololá	2	El tablón	5	Mayo	2023-05-13T00:00:00	2024-11-06T08:00:00	1	Precipitación	0
153856	7	Sololá	701	Sololá	2	El tablón	5	Mayo	2023-05-13T00:00:00	2024-11-06T08:00:00	8	Radiación solar	314
153857	7	Sololá	701	Sololá	2	El tablón	5	Mayo	2023-05-13T00:00:00	2024-11-06T09:00:00	2	Temperatura media	17.4
153858	7	Sololá	701	Sololá	2	El tablón	5	Mayo	2023-05-13T00:00:00	2024-11-06T09:00:00	4	Temperatura máxima	17.5
153859	7	Sololá	701	Sololá	2	El tablón	5	Mayo	2023-05-13T00:00:00	2024-11-06T09:00:00	3	Temperatura mínima	16.2
153860	7	Sololá	701	Sololá	2	El tablón	5	Mayo	2023-05-13T00:00:00	2024-11-06T09:00:00	5	Humedad	76
153861	7	Sololá	701	Sololá	2	El tablón	5	Mayo	2023-05-13T00:00:00	2024-11-06T09:00:00	6	Velocidad del viento	3.2
153862	7	Sololá	701	Sololá	2	El tablón	5	Mayo	2023-05-13T00:00:00	2024-11-06T09:00:00	7	Dirección del viento	3.22
153863	7	Sololá	701	Sololá	2	El tablón	5	Mayo	2023-05-13T00:00:00	2024-11-06T09:00:00	1	Precipitación	0
153864	7	Sololá	701	Sololá	2	El tablón	5	Mayo	2023-05-13T00:00:00	2024-11-06T09:00:00	8	Radiación solar	524
153865	7	Sololá	701	Sololá	2	El tablón	5	Mayo	2023-05-13T00:00:00	2024-11-06T10:00:00	2	Temperatura media	17.7
153866	7	Sololá	701	Sololá	2	El tablón	5	Mayo	2023-05-13T00:00:00	2024-11-06T10:00:00	4	Temperatura máxima	18.1
153867	7	Sololá	701	Sololá	2	El tablón	5	Mayo	2023-05-13T00:00:00	2024-11-06T10:00:00	3	Temperatura mínima	17.3
153868	7	Sololá	701	Sololá	2	El tablón	5	Mayo	2023-05-13T00:00:00	2024-11-06T10:00:00	5	Humedad	79
153869	7	Sololá	701	Sololá	2	El tablón	5	Mayo	2023-05-13T00:00:00	2024-11-06T10:00:00	6	Velocidad del viento	6.4
153870	7	Sololá	701	Sololá	2	El tablón	5	Mayo	2023-05-13T00:00:00	2024-11-06T10:00:00	7	Dirección del viento	6.44
153871	7	Sololá	701	Sololá	2	El tablón	5	Mayo	2023-05-13T00:00:00	2024-11-06T10:00:00	1	Precipitación	0
153872	7	Sololá	701	Sololá	2	El tablón	5	Mayo	2023-05-13T00:00:00	2024-11-06T10:00:00	8	Radiación solar	724
153873	7	Sololá	701	Sololá	2	El tablón	5	Mayo	2023-05-13T00:00:00	2024-11-06T11:00:00	2	Temperatura media	17.3
153874	7	Sololá	701	Sololá	2	El tablón	5	Mayo	2023-05-13T00:00:00	2024-11-06T11:00:00	4	Temperatura máxima	17.8
153875	7	Sololá	701	Sololá	2	El tablón	5	Mayo	2023-05-13T00:00:00	2024-11-06T11:00:00	3	Temperatura mínima	17
153876	7	Sololá	701	Sololá	2	El tablón	5	Mayo	2023-05-13T00:00:00	2024-11-06T11:00:00	5	Humedad	82
153877	7	Sololá	701	Sololá	2	El tablón	5	Mayo	2023-05-13T00:00:00	2024-11-06T11:00:00	6	Velocidad del viento	9.7
153878	7	Sololá	701	Sololá	2	El tablón	5	Mayo	2023-05-13T00:00:00	2024-11-06T11:00:00	7	Dirección del viento	9.66
153879	7	Sololá	701	Sololá	2	El tablón	5	Mayo	2023-05-13T00:00:00	2024-11-06T11:00:00	1	Precipitación	0
153880	7	Sololá	701	Sololá	2	El tablón	5	Mayo	2023-05-13T00:00:00	2024-11-06T11:00:00	8	Radiación solar	867
153881	7	Sololá	701	Sololá	2	El tablón	5	Mayo	2023-05-13T00:00:00	2024-11-06T12:00:00	2	Temperatura media	17.6
153882	7	Sololá	701	Sololá	2	El tablón	5	Mayo	2023-05-13T00:00:00	2024-11-06T12:00:00	4	Temperatura máxima	17.9
153883	7	Sololá	701	Sololá	2	El tablón	5	Mayo	2023-05-13T00:00:00	2024-11-06T12:00:00	3	Temperatura mínima	16.9
153884	7	Sololá	701	Sololá	2	El tablón	5	Mayo	2023-05-13T00:00:00	2024-11-06T12:00:00	5	Humedad	83
153885	7	Sololá	701	Sololá	2	El tablón	5	Mayo	2023-05-13T00:00:00	2024-11-06T12:00:00	6	Velocidad del viento	8
153886	7	Sololá	701	Sololá	2	El tablón	5	Mayo	2023-05-13T00:00:00	2024-11-06T12:00:00	7	Dirección del viento	8.05
153887	7	Sololá	701	Sololá	2	El tablón	5	Mayo	2023-05-13T00:00:00	2024-11-06T12:00:00	1	Precipitación	0
153888	7	Sololá	701	Sololá	2	El tablón	5	Mayo	2023-05-13T00:00:00	2024-11-06T12:00:00	8	Radiación solar	877
153889	7	Sololá	701	Sololá	2	El tablón	5	Mayo	2023-05-13T00:00:00	2024-11-06T13:00:00	2	Temperatura media	17.1
153890	7	Sololá	701	Sololá	2	El tablón	5	Mayo	2023-05-13T00:00:00	2024-11-06T13:00:00	4	Temperatura máxima	17.9
153891	7	Sololá	701	Sololá	2	El tablón	5	Mayo	2023-05-13T00:00:00	2024-11-06T13:00:00	3	Temperatura mínima	17.1
153892	7	Sololá	701	Sololá	2	El tablón	5	Mayo	2023-05-13T00:00:00	2024-11-06T13:00:00	5	Humedad	85
153893	7	Sololá	701	Sololá	2	El tablón	5	Mayo	2023-05-13T00:00:00	2024-11-06T13:00:00	6	Velocidad del viento	8
153894	7	Sololá	701	Sololá	2	El tablón	5	Mayo	2023-05-13T00:00:00	2024-11-06T13:00:00	7	Dirección del viento	8.05
153895	7	Sololá	701	Sololá	2	El tablón	5	Mayo	2023-05-13T00:00:00	2024-11-06T13:00:00	1	Precipitación	0
153896	7	Sololá	701	Sololá	2	El tablón	5	Mayo	2023-05-13T00:00:00	2024-11-06T13:00:00	8	Radiación solar	491
153897	7	Sololá	701	Sololá	2	El tablón	5	Mayo	2023-05-13T00:00:00	2024-11-06T14:00:00	2	Temperatura media	15
153898	7	Sololá	701	Sololá	2	El tablón	5	Mayo	2023-05-13T00:00:00	2024-11-06T14:00:00	4	Temperatura máxima	17.1
153899	7	Sololá	701	Sololá	2	El tablón	5	Mayo	2023-05-13T00:00:00	2024-11-06T14:00:00	3	Temperatura mínima	15
153900	7	Sololá	701	Sololá	2	El tablón	5	Mayo	2023-05-13T00:00:00	2024-11-06T14:00:00	5	Humedad	88
153901	7	Sololá	701	Sololá	2	El tablón	5	Mayo	2023-05-13T00:00:00	2024-11-06T14:00:00	6	Velocidad del viento	6.4
153902	7	Sololá	701	Sololá	2	El tablón	5	Mayo	2023-05-13T00:00:00	2024-11-06T14:00:00	7	Dirección del viento	6.44
153903	7	Sololá	701	Sololá	2	El tablón	5	Mayo	2023-05-13T00:00:00	2024-11-06T14:00:00	1	Precipitación	0
153904	7	Sololá	701	Sololá	2	El tablón	5	Mayo	2023-05-13T00:00:00	2024-11-06T14:00:00	8	Radiación solar	109
153905	7	Sololá	701	Sololá	2	El tablón	5	Mayo	2023-05-13T00:00:00	2024-11-06T15:00:00	2	Temperatura media	15
153906	7	Sololá	701	Sololá	2	El tablón	5	Mayo	2023-05-13T00:00:00	2024-11-06T15:00:00	4	Temperatura máxima	15.6
153907	7	Sololá	701	Sololá	2	El tablón	5	Mayo	2023-05-13T00:00:00	2024-11-06T15:00:00	3	Temperatura mínima	14.9
153908	7	Sololá	701	Sololá	2	El tablón	5	Mayo	2023-05-13T00:00:00	2024-11-06T15:00:00	5	Humedad	88
153909	7	Sololá	701	Sololá	2	El tablón	5	Mayo	2023-05-13T00:00:00	2024-11-06T15:00:00	6	Velocidad del viento	4.8
153910	7	Sololá	701	Sololá	2	El tablón	5	Mayo	2023-05-13T00:00:00	2024-11-06T15:00:00	7	Dirección del viento	4.83
153911	7	Sololá	701	Sololá	2	El tablón	5	Mayo	2023-05-13T00:00:00	2024-11-06T15:00:00	1	Precipitación	0
153912	7	Sololá	701	Sololá	2	El tablón	5	Mayo	2023-05-13T00:00:00	2024-11-06T15:00:00	8	Radiación solar	142
153913	7	Sololá	701	Sololá	2	El tablón	5	Mayo	2023-05-13T00:00:00	2024-11-06T16:00:00	2	Temperatura media	14.2
153914	7	Sololá	701	Sololá	2	El tablón	5	Mayo	2023-05-13T00:00:00	2024-11-06T16:00:00	4	Temperatura máxima	15
153915	7	Sololá	701	Sololá	2	El tablón	5	Mayo	2023-05-13T00:00:00	2024-11-06T16:00:00	3	Temperatura mínima	14.2
153916	7	Sololá	701	Sololá	2	El tablón	5	Mayo	2023-05-13T00:00:00	2024-11-06T16:00:00	5	Humedad	88
153917	7	Sololá	701	Sololá	2	El tablón	5	Mayo	2023-05-13T00:00:00	2024-11-06T16:00:00	6	Velocidad del viento	4.8
153918	7	Sololá	701	Sololá	2	El tablón	5	Mayo	2023-05-13T00:00:00	2024-11-06T16:00:00	7	Dirección del viento	4.83
153919	7	Sololá	701	Sololá	2	El tablón	5	Mayo	2023-05-13T00:00:00	2024-11-06T16:00:00	1	Precipitación	3.8
153920	7	Sololá	701	Sololá	2	El tablón	5	Mayo	2023-05-13T00:00:00	2024-11-06T16:00:00	8	Radiación solar	33
153921	7	Sololá	701	Sololá	2	El tablón	5	Mayo	2023-05-13T00:00:00	2024-11-06T17:00:00	2	Temperatura media	13
153922	7	Sololá	701	Sololá	2	El tablón	5	Mayo	2023-05-13T00:00:00	2024-11-06T17:00:00	4	Temperatura máxima	14.2
153923	7	Sololá	701	Sololá	2	El tablón	5	Mayo	2023-05-13T00:00:00	2024-11-06T17:00:00	3	Temperatura mínima	12.9
153924	7	Sololá	701	Sololá	2	El tablón	5	Mayo	2023-05-13T00:00:00	2024-11-06T17:00:00	5	Humedad	89
153925	7	Sololá	701	Sololá	2	El tablón	5	Mayo	2023-05-13T00:00:00	2024-11-06T17:00:00	6	Velocidad del viento	3.2
153926	7	Sololá	701	Sololá	2	El tablón	5	Mayo	2023-05-13T00:00:00	2024-11-06T17:00:00	7	Dirección del viento	3.22
153927	7	Sololá	701	Sololá	2	El tablón	5	Mayo	2023-05-13T00:00:00	2024-11-06T17:00:00	1	Precipitación	2.8
153928	7	Sololá	701	Sololá	2	El tablón	5	Mayo	2023-05-13T00:00:00	2024-11-06T17:00:00	8	Radiación solar	48
153929	7	Sololá	701	Sololá	2	El tablón	5	Mayo	2023-05-13T00:00:00	2024-11-06T18:00:00	2	Temperatura media	13.3
153930	7	Sololá	701	Sololá	2	El tablón	5	Mayo	2023-05-13T00:00:00	2024-11-06T18:00:00	4	Temperatura máxima	13.3
153931	7	Sololá	701	Sololá	2	El tablón	5	Mayo	2023-05-13T00:00:00	2024-11-06T18:00:00	3	Temperatura mínima	12.7
153932	7	Sololá	701	Sololá	2	El tablón	5	Mayo	2023-05-13T00:00:00	2024-11-06T18:00:00	5	Humedad	89
153933	7	Sololá	701	Sololá	2	El tablón	5	Mayo	2023-05-13T00:00:00	2024-11-06T18:00:00	6	Velocidad del viento	3.2
153934	7	Sololá	701	Sololá	2	El tablón	5	Mayo	2023-05-13T00:00:00	2024-11-06T18:00:00	7	Dirección del viento	3.22
153935	7	Sololá	701	Sololá	2	El tablón	5	Mayo	2023-05-13T00:00:00	2024-11-06T18:00:00	1	Precipitación	0.2
153936	7	Sololá	701	Sololá	2	El tablón	5	Mayo	2023-05-13T00:00:00	2024-11-06T18:00:00	8	Radiación solar	18
153937	7	Sololá	701	Sololá	2	El tablón	5	Mayo	2023-05-13T00:00:00	2024-11-06T19:00:00	2	Temperatura media	13.4
153938	7	Sololá	701	Sololá	2	El tablón	5	Mayo	2023-05-13T00:00:00	2024-11-06T19:00:00	4	Temperatura máxima	13.6
153939	7	Sololá	701	Sololá	2	El tablón	5	Mayo	2023-05-13T00:00:00	2024-11-06T19:00:00	3	Temperatura mínima	12.8
153940	7	Sololá	701	Sololá	2	El tablón	5	Mayo	2023-05-13T00:00:00	2024-11-06T19:00:00	5	Humedad	89
153941	7	Sololá	701	Sololá	2	El tablón	5	Mayo	2023-05-13T00:00:00	2024-11-06T19:00:00	6	Velocidad del viento	6.4
153942	7	Sololá	701	Sololá	2	El tablón	5	Mayo	2023-05-13T00:00:00	2024-11-06T19:00:00	7	Dirección del viento	6.44
153943	7	Sololá	701	Sololá	2	El tablón	5	Mayo	2023-05-13T00:00:00	2024-11-06T19:00:00	1	Precipitación	0.8
153944	7	Sololá	701	Sololá	2	El tablón	5	Mayo	2023-05-13T00:00:00	2024-11-06T19:00:00	8	Radiación solar	0
153945	7	Sololá	701	Sololá	2	El tablón	5	Mayo	2023-05-13T00:00:00	2024-11-06T20:00:00	2	Temperatura media	14.7
153946	7	Sololá	701	Sololá	2	El tablón	5	Mayo	2023-05-13T00:00:00	2024-11-06T20:00:00	4	Temperatura máxima	14.8
153947	7	Sololá	701	Sololá	2	El tablón	5	Mayo	2023-05-13T00:00:00	2024-11-06T20:00:00	3	Temperatura mínima	13.4
153948	7	Sololá	701	Sololá	2	El tablón	5	Mayo	2023-05-13T00:00:00	2024-11-06T20:00:00	5	Humedad	79
153949	7	Sololá	701	Sololá	2	El tablón	5	Mayo	2023-05-13T00:00:00	2024-11-06T20:00:00	6	Velocidad del viento	9.7
153950	7	Sololá	701	Sololá	2	El tablón	5	Mayo	2023-05-13T00:00:00	2024-11-06T20:00:00	7	Dirección del viento	9.66
153951	7	Sololá	701	Sololá	2	El tablón	5	Mayo	2023-05-13T00:00:00	2024-11-06T20:00:00	1	Precipitación	0
153952	7	Sololá	701	Sololá	2	El tablón	5	Mayo	2023-05-13T00:00:00	2024-11-06T20:00:00	8	Radiación solar	0
153953	7	Sololá	701	Sololá	2	El tablón	5	Mayo	2023-05-13T00:00:00	2024-11-06T21:00:00	2	Temperatura media	14.1
153954	7	Sololá	701	Sololá	2	El tablón	5	Mayo	2023-05-13T00:00:00	2024-11-06T21:00:00	4	Temperatura máxima	14.7
153955	7	Sololá	701	Sololá	2	El tablón	5	Mayo	2023-05-13T00:00:00	2024-11-06T21:00:00	3	Temperatura mínima	13.7
153956	7	Sololá	701	Sololá	2	El tablón	5	Mayo	2023-05-13T00:00:00	2024-11-06T21:00:00	5	Humedad	86
153957	7	Sololá	701	Sololá	2	El tablón	5	Mayo	2023-05-13T00:00:00	2024-11-06T21:00:00	6	Velocidad del viento	4.8
153958	7	Sololá	701	Sololá	2	El tablón	5	Mayo	2023-05-13T00:00:00	2024-11-06T21:00:00	7	Dirección del viento	4.83
153959	7	Sololá	701	Sololá	2	El tablón	5	Mayo	2023-05-13T00:00:00	2024-11-06T21:00:00	1	Precipitación	0
153960	7	Sololá	701	Sololá	2	El tablón	5	Mayo	2023-05-13T00:00:00	2024-11-06T21:00:00	8	Radiación solar	0
153961	7	Sololá	701	Sololá	2	El tablón	5	Mayo	2023-05-13T00:00:00	2024-11-06T22:00:00	2	Temperatura media	13
153962	7	Sololá	701	Sololá	2	El tablón	5	Mayo	2023-05-13T00:00:00	2024-11-06T22:00:00	4	Temperatura máxima	14.1
153963	7	Sololá	701	Sololá	2	El tablón	5	Mayo	2023-05-13T00:00:00	2024-11-06T22:00:00	3	Temperatura mínima	13
153964	7	Sololá	701	Sololá	2	El tablón	5	Mayo	2023-05-13T00:00:00	2024-11-06T22:00:00	5	Humedad	89
153965	7	Sololá	701	Sololá	2	El tablón	5	Mayo	2023-05-13T00:00:00	2024-11-06T22:00:00	6	Velocidad del viento	1.6
153966	7	Sololá	701	Sololá	2	El tablón	5	Mayo	2023-05-13T00:00:00	2024-11-06T22:00:00	7	Dirección del viento	1.61
153967	7	Sololá	701	Sololá	2	El tablón	5	Mayo	2023-05-13T00:00:00	2024-11-06T22:00:00	1	Precipitación	0
153968	7	Sololá	701	Sololá	2	El tablón	5	Mayo	2023-05-13T00:00:00	2024-11-06T22:00:00	8	Radiación solar	0
153969	7	Sololá	701	Sololá	2	El tablón	5	Mayo	2023-05-13T00:00:00	2024-11-06T23:00:00	2	Temperatura media	11.4
153970	7	Sololá	701	Sololá	2	El tablón	5	Mayo	2023-05-13T00:00:00	2024-11-06T23:00:00	4	Temperatura máxima	12.9
153971	7	Sololá	701	Sololá	2	El tablón	5	Mayo	2023-05-13T00:00:00	2024-11-06T23:00:00	3	Temperatura mínima	11.4
153972	7	Sololá	701	Sololá	2	El tablón	5	Mayo	2023-05-13T00:00:00	2024-11-06T23:00:00	5	Humedad	89
153973	7	Sololá	701	Sololá	2	El tablón	5	Mayo	2023-05-13T00:00:00	2024-11-06T23:00:00	6	Velocidad del viento	3.2
153974	7	Sololá	701	Sololá	2	El tablón	5	Mayo	2023-05-13T00:00:00	2024-11-06T23:00:00	7	Dirección del viento	3.22
153975	7	Sololá	701	Sololá	2	El tablón	5	Mayo	2023-05-13T00:00:00	2024-11-06T23:00:00	1	Precipitación	0
153976	7	Sololá	701	Sololá	2	El tablón	5	Mayo	2023-05-13T00:00:00	2024-11-06T23:00:00	8	Radiación solar	0
153977	7	Sololá	701	Sololá	2	El tablón	5	Mayo	2023-05-14T00:00:00	2024-11-06T00:00:00	2	Temperatura media	11.5
153978	7	Sololá	701	Sololá	2	El tablón	5	Mayo	2023-05-14T00:00:00	2024-11-06T00:00:00	4	Temperatura máxima	11.6
153979	7	Sololá	701	Sololá	2	El tablón	5	Mayo	2023-05-14T00:00:00	2024-11-06T00:00:00	3	Temperatura mínima	10.9
153980	7	Sololá	701	Sololá	2	El tablón	5	Mayo	2023-05-14T00:00:00	2024-11-06T00:00:00	5	Humedad	88
153981	7	Sololá	701	Sololá	2	El tablón	5	Mayo	2023-05-14T00:00:00	2024-11-06T00:00:00	6	Velocidad del viento	4.8
153982	7	Sololá	701	Sololá	2	El tablón	5	Mayo	2023-05-14T00:00:00	2024-11-06T00:00:00	7	Dirección del viento	4.83
153983	7	Sololá	701	Sololá	2	El tablón	5	Mayo	2023-05-14T00:00:00	2024-11-06T00:00:00	1	Precipitación	0
153984	7	Sololá	701	Sololá	2	El tablón	5	Mayo	2023-05-14T00:00:00	2024-11-06T00:00:00	8	Radiación solar	0
153985	7	Sololá	701	Sololá	2	El tablón	5	Mayo	2023-05-14T00:00:00	2024-11-06T01:00:00	2	Temperatura media	11.3
153986	7	Sololá	701	Sololá	2	El tablón	5	Mayo	2023-05-14T00:00:00	2024-11-06T01:00:00	4	Temperatura máxima	11.7
153987	7	Sololá	701	Sololá	2	El tablón	5	Mayo	2023-05-14T00:00:00	2024-11-06T01:00:00	3	Temperatura mínima	11.2
153988	7	Sololá	701	Sololá	2	El tablón	5	Mayo	2023-05-14T00:00:00	2024-11-06T01:00:00	5	Humedad	89
153989	7	Sololá	701	Sololá	2	El tablón	5	Mayo	2023-05-14T00:00:00	2024-11-06T01:00:00	6	Velocidad del viento	1.6
153990	7	Sololá	701	Sololá	2	El tablón	5	Mayo	2023-05-14T00:00:00	2024-11-06T01:00:00	7	Dirección del viento	1.61
153991	7	Sololá	701	Sololá	2	El tablón	5	Mayo	2023-05-14T00:00:00	2024-11-06T01:00:00	1	Precipitación	0
153992	7	Sololá	701	Sololá	2	El tablón	5	Mayo	2023-05-14T00:00:00	2024-11-06T01:00:00	8	Radiación solar	0
153993	7	Sololá	701	Sololá	2	El tablón	5	Mayo	2023-05-14T00:00:00	2024-11-06T02:00:00	2	Temperatura media	11.7
153994	7	Sololá	701	Sololá	2	El tablón	5	Mayo	2023-05-14T00:00:00	2024-11-06T02:00:00	4	Temperatura máxima	11.7
153995	7	Sololá	701	Sololá	2	El tablón	5	Mayo	2023-05-14T00:00:00	2024-11-06T02:00:00	3	Temperatura mínima	11.3
153996	7	Sololá	701	Sololá	2	El tablón	5	Mayo	2023-05-14T00:00:00	2024-11-06T02:00:00	5	Humedad	88
153997	7	Sololá	701	Sololá	2	El tablón	5	Mayo	2023-05-14T00:00:00	2024-11-06T02:00:00	6	Velocidad del viento	1.6
153998	7	Sololá	701	Sololá	2	El tablón	5	Mayo	2023-05-14T00:00:00	2024-11-06T02:00:00	7	Dirección del viento	1.61
153999	7	Sololá	701	Sololá	2	El tablón	5	Mayo	2023-05-14T00:00:00	2024-11-06T02:00:00	1	Precipitación	0
154000	7	Sololá	701	Sololá	2	El tablón	5	Mayo	2023-05-14T00:00:00	2024-11-06T02:00:00	8	Radiación solar	0
154001	7	Sololá	701	Sololá	2	El tablón	5	Mayo	2023-05-14T00:00:00	2024-11-06T03:00:00	2	Temperatura media	12
154002	7	Sololá	701	Sololá	2	El tablón	5	Mayo	2023-05-14T00:00:00	2024-11-06T03:00:00	4	Temperatura máxima	12
154003	7	Sololá	701	Sololá	2	El tablón	5	Mayo	2023-05-14T00:00:00	2024-11-06T03:00:00	3	Temperatura mínima	11.6
154004	7	Sololá	701	Sololá	2	El tablón	5	Mayo	2023-05-14T00:00:00	2024-11-06T03:00:00	5	Humedad	89
154005	7	Sololá	701	Sololá	2	El tablón	5	Mayo	2023-05-14T00:00:00	2024-11-06T03:00:00	6	Velocidad del viento	3.2
154006	7	Sololá	701	Sololá	2	El tablón	5	Mayo	2023-05-14T00:00:00	2024-11-06T03:00:00	7	Dirección del viento	3.22
154007	7	Sololá	701	Sololá	2	El tablón	5	Mayo	2023-05-14T00:00:00	2024-11-06T03:00:00	1	Precipitación	0
154008	7	Sololá	701	Sololá	2	El tablón	5	Mayo	2023-05-14T00:00:00	2024-11-06T03:00:00	8	Radiación solar	0
154009	7	Sololá	701	Sololá	2	El tablón	5	Mayo	2023-05-14T00:00:00	2024-11-06T04:00:00	2	Temperatura media	12.1
154010	7	Sololá	701	Sololá	2	El tablón	5	Mayo	2023-05-14T00:00:00	2024-11-06T04:00:00	4	Temperatura máxima	12.5
154011	7	Sololá	701	Sololá	2	El tablón	5	Mayo	2023-05-14T00:00:00	2024-11-06T04:00:00	3	Temperatura mínima	12
154012	7	Sololá	701	Sololá	2	El tablón	5	Mayo	2023-05-14T00:00:00	2024-11-06T04:00:00	5	Humedad	89
154013	7	Sololá	701	Sololá	2	El tablón	5	Mayo	2023-05-14T00:00:00	2024-11-06T04:00:00	6	Velocidad del viento	1.6
154014	7	Sololá	701	Sololá	2	El tablón	5	Mayo	2023-05-14T00:00:00	2024-11-06T04:00:00	7	Dirección del viento	1.61
154015	7	Sololá	701	Sololá	2	El tablón	5	Mayo	2023-05-14T00:00:00	2024-11-06T04:00:00	1	Precipitación	1.6
154016	7	Sololá	701	Sololá	2	El tablón	5	Mayo	2023-05-14T00:00:00	2024-11-06T04:00:00	8	Radiación solar	0
154017	7	Sololá	701	Sololá	2	El tablón	5	Mayo	2023-05-14T00:00:00	2024-11-06T05:00:00	2	Temperatura media	11.2
154018	7	Sololá	701	Sololá	2	El tablón	5	Mayo	2023-05-14T00:00:00	2024-11-06T05:00:00	4	Temperatura máxima	12.1
154019	7	Sololá	701	Sololá	2	El tablón	5	Mayo	2023-05-14T00:00:00	2024-11-06T05:00:00	3	Temperatura mínima	11.1
154020	7	Sololá	701	Sololá	2	El tablón	5	Mayo	2023-05-14T00:00:00	2024-11-06T05:00:00	5	Humedad	89
154021	7	Sololá	701	Sololá	2	El tablón	5	Mayo	2023-05-14T00:00:00	2024-11-06T05:00:00	6	Velocidad del viento	9.7
154022	7	Sololá	701	Sololá	2	El tablón	5	Mayo	2023-05-14T00:00:00	2024-11-06T05:00:00	7	Dirección del viento	9.66
154023	7	Sololá	701	Sololá	2	El tablón	5	Mayo	2023-05-14T00:00:00	2024-11-06T05:00:00	1	Precipitación	0.8
154024	7	Sololá	701	Sololá	2	El tablón	5	Mayo	2023-05-14T00:00:00	2024-11-06T05:00:00	8	Radiación solar	0
154025	7	Sololá	701	Sololá	2	El tablón	5	Mayo	2023-05-14T00:00:00	2024-11-06T06:00:00	2	Temperatura media	11.6
154026	7	Sololá	701	Sololá	2	El tablón	5	Mayo	2023-05-14T00:00:00	2024-11-06T06:00:00	4	Temperatura máxima	11.6
154027	7	Sololá	701	Sololá	2	El tablón	5	Mayo	2023-05-14T00:00:00	2024-11-06T06:00:00	3	Temperatura mínima	11.1
154028	7	Sololá	701	Sololá	2	El tablón	5	Mayo	2023-05-14T00:00:00	2024-11-06T06:00:00	5	Humedad	88
154029	7	Sololá	701	Sololá	2	El tablón	5	Mayo	2023-05-14T00:00:00	2024-11-06T06:00:00	6	Velocidad del viento	11.3
154030	7	Sololá	701	Sololá	2	El tablón	5	Mayo	2023-05-14T00:00:00	2024-11-06T06:00:00	7	Dirección del viento	11.27
154031	7	Sololá	701	Sololá	2	El tablón	5	Mayo	2023-05-14T00:00:00	2024-11-06T06:00:00	1	Precipitación	0
154032	7	Sololá	701	Sololá	2	El tablón	5	Mayo	2023-05-14T00:00:00	2024-11-06T06:00:00	8	Radiación solar	0
154033	7	Sololá	701	Sololá	2	El tablón	5	Mayo	2023-05-14T00:00:00	2024-11-06T07:00:00	2	Temperatura media	12.7
154034	7	Sololá	701	Sololá	2	El tablón	5	Mayo	2023-05-14T00:00:00	2024-11-06T07:00:00	4	Temperatura máxima	12.7
154035	7	Sololá	701	Sololá	2	El tablón	5	Mayo	2023-05-14T00:00:00	2024-11-06T07:00:00	3	Temperatura mínima	11.5
154036	7	Sololá	701	Sololá	2	El tablón	5	Mayo	2023-05-14T00:00:00	2024-11-06T07:00:00	5	Humedad	85
154037	7	Sololá	701	Sololá	2	El tablón	5	Mayo	2023-05-14T00:00:00	2024-11-06T07:00:00	6	Velocidad del viento	4.8
154038	7	Sololá	701	Sololá	2	El tablón	5	Mayo	2023-05-14T00:00:00	2024-11-06T07:00:00	7	Dirección del viento	4.83
154039	7	Sololá	701	Sololá	2	El tablón	5	Mayo	2023-05-14T00:00:00	2024-11-06T07:00:00	1	Precipitación	0
154040	7	Sololá	701	Sololá	2	El tablón	5	Mayo	2023-05-14T00:00:00	2024-11-06T07:00:00	8	Radiación solar	24
154041	7	Sololá	701	Sololá	2	El tablón	5	Mayo	2023-05-14T00:00:00	2024-11-06T08:00:00	2	Temperatura media	13.6
154042	7	Sololá	701	Sololá	2	El tablón	5	Mayo	2023-05-14T00:00:00	2024-11-06T08:00:00	4	Temperatura máxima	13.6
154043	7	Sololá	701	Sololá	2	El tablón	5	Mayo	2023-05-14T00:00:00	2024-11-06T08:00:00	3	Temperatura mínima	12.6
154044	7	Sololá	701	Sololá	2	El tablón	5	Mayo	2023-05-14T00:00:00	2024-11-06T08:00:00	5	Humedad	81
154045	7	Sololá	701	Sololá	2	El tablón	5	Mayo	2023-05-14T00:00:00	2024-11-06T08:00:00	6	Velocidad del viento	3.2
154046	7	Sololá	701	Sololá	2	El tablón	5	Mayo	2023-05-14T00:00:00	2024-11-06T08:00:00	7	Dirección del viento	3.22
154047	7	Sololá	701	Sololá	2	El tablón	5	Mayo	2023-05-14T00:00:00	2024-11-06T08:00:00	1	Precipitación	0
154048	7	Sololá	701	Sololá	2	El tablón	5	Mayo	2023-05-14T00:00:00	2024-11-06T08:00:00	8	Radiación solar	140
154049	7	Sololá	701	Sololá	2	El tablón	5	Mayo	2023-05-14T00:00:00	2024-11-06T09:00:00	2	Temperatura media	18.2
154050	7	Sololá	701	Sololá	2	El tablón	5	Mayo	2023-05-14T00:00:00	2024-11-06T09:00:00	4	Temperatura máxima	18.2
154051	7	Sololá	701	Sololá	2	El tablón	5	Mayo	2023-05-14T00:00:00	2024-11-06T09:00:00	3	Temperatura mínima	13.6
154052	7	Sololá	701	Sololá	2	El tablón	5	Mayo	2023-05-14T00:00:00	2024-11-06T09:00:00	5	Humedad	58
154053	7	Sololá	701	Sololá	2	El tablón	5	Mayo	2023-05-14T00:00:00	2024-11-06T09:00:00	6	Velocidad del viento	6.4
154054	7	Sololá	701	Sololá	2	El tablón	5	Mayo	2023-05-14T00:00:00	2024-11-06T09:00:00	7	Dirección del viento	6.44
154055	7	Sololá	701	Sololá	2	El tablón	5	Mayo	2023-05-14T00:00:00	2024-11-06T09:00:00	1	Precipitación	0
154056	7	Sololá	701	Sololá	2	El tablón	5	Mayo	2023-05-14T00:00:00	2024-11-06T09:00:00	8	Radiación solar	468
154057	7	Sololá	701	Sololá	2	El tablón	5	Mayo	2023-05-14T00:00:00	2024-11-06T10:00:00	2	Temperatura media	18.4
154058	7	Sololá	701	Sololá	2	El tablón	5	Mayo	2023-05-14T00:00:00	2024-11-06T10:00:00	4	Temperatura máxima	19.7
154059	7	Sololá	701	Sololá	2	El tablón	5	Mayo	2023-05-14T00:00:00	2024-11-06T10:00:00	3	Temperatura mínima	18.2
154060	7	Sololá	701	Sololá	2	El tablón	5	Mayo	2023-05-14T00:00:00	2024-11-06T10:00:00	5	Humedad	72
154061	7	Sololá	701	Sololá	2	El tablón	5	Mayo	2023-05-14T00:00:00	2024-11-06T10:00:00	6	Velocidad del viento	4.8
154062	7	Sololá	701	Sololá	2	El tablón	5	Mayo	2023-05-14T00:00:00	2024-11-06T10:00:00	7	Dirección del viento	4.83
154063	7	Sololá	701	Sololá	2	El tablón	5	Mayo	2023-05-14T00:00:00	2024-11-06T10:00:00	1	Precipitación	0
154064	7	Sololá	701	Sololá	2	El tablón	5	Mayo	2023-05-14T00:00:00	2024-11-06T10:00:00	8	Radiación solar	619
154065	7	Sololá	701	Sololá	2	El tablón	5	Mayo	2023-05-14T00:00:00	2024-11-06T11:00:00	2	Temperatura media	16.9
154066	7	Sololá	701	Sololá	2	El tablón	5	Mayo	2023-05-14T00:00:00	2024-11-06T11:00:00	4	Temperatura máxima	18.4
154067	7	Sololá	701	Sololá	2	El tablón	5	Mayo	2023-05-14T00:00:00	2024-11-06T11:00:00	3	Temperatura mínima	16.7
154068	7	Sololá	701	Sololá	2	El tablón	5	Mayo	2023-05-14T00:00:00	2024-11-06T11:00:00	5	Humedad	71
154069	7	Sololá	701	Sololá	2	El tablón	5	Mayo	2023-05-14T00:00:00	2024-11-06T11:00:00	6	Velocidad del viento	6.4
154070	7	Sololá	701	Sololá	2	El tablón	5	Mayo	2023-05-14T00:00:00	2024-11-06T11:00:00	7	Dirección del viento	6.44
154071	7	Sololá	701	Sololá	2	El tablón	5	Mayo	2023-05-14T00:00:00	2024-11-06T11:00:00	1	Precipitación	0
154072	7	Sololá	701	Sololá	2	El tablón	5	Mayo	2023-05-14T00:00:00	2024-11-06T11:00:00	8	Radiación solar	556
154073	7	Sololá	701	Sololá	2	El tablón	5	Mayo	2023-05-14T00:00:00	2024-11-06T12:00:00	2	Temperatura media	17.2
154074	7	Sololá	701	Sololá	2	El tablón	5	Mayo	2023-05-14T00:00:00	2024-11-06T12:00:00	4	Temperatura máxima	17.4
154075	7	Sololá	701	Sololá	2	El tablón	5	Mayo	2023-05-14T00:00:00	2024-11-06T12:00:00	3	Temperatura mínima	16.9
154076	7	Sololá	701	Sololá	2	El tablón	5	Mayo	2023-05-14T00:00:00	2024-11-06T12:00:00	5	Humedad	68
154077	7	Sololá	701	Sololá	2	El tablón	5	Mayo	2023-05-14T00:00:00	2024-11-06T12:00:00	6	Velocidad del viento	6.4
154078	7	Sololá	701	Sololá	2	El tablón	5	Mayo	2023-05-14T00:00:00	2024-11-06T12:00:00	7	Dirección del viento	6.44
154079	7	Sololá	701	Sololá	2	El tablón	5	Mayo	2023-05-14T00:00:00	2024-11-06T12:00:00	1	Precipitación	0
154080	7	Sololá	701	Sololá	2	El tablón	5	Mayo	2023-05-14T00:00:00	2024-11-06T12:00:00	8	Radiación solar	791
154081	7	Sololá	701	Sololá	2	El tablón	5	Mayo	2023-05-14T00:00:00	2024-11-06T13:00:00	2	Temperatura media	18.3
154082	7	Sololá	701	Sololá	2	El tablón	5	Mayo	2023-05-14T00:00:00	2024-11-06T13:00:00	4	Temperatura máxima	18.3
154083	7	Sololá	701	Sololá	2	El tablón	5	Mayo	2023-05-14T00:00:00	2024-11-06T13:00:00	3	Temperatura mínima	17.2
154084	7	Sololá	701	Sololá	2	El tablón	5	Mayo	2023-05-14T00:00:00	2024-11-06T13:00:00	5	Humedad	68
154085	7	Sololá	701	Sololá	2	El tablón	5	Mayo	2023-05-14T00:00:00	2024-11-06T13:00:00	6	Velocidad del viento	6.4
154086	7	Sololá	701	Sololá	2	El tablón	5	Mayo	2023-05-14T00:00:00	2024-11-06T13:00:00	7	Dirección del viento	6.44
154087	7	Sololá	701	Sololá	2	El tablón	5	Mayo	2023-05-14T00:00:00	2024-11-06T13:00:00	1	Precipitación	0
154088	7	Sololá	701	Sololá	2	El tablón	5	Mayo	2023-05-14T00:00:00	2024-11-06T13:00:00	8	Radiación solar	922
154089	7	Sololá	701	Sololá	2	El tablón	5	Mayo	2023-05-14T00:00:00	2024-11-06T14:00:00	2	Temperatura media	18.5
154090	7	Sololá	701	Sololá	2	El tablón	5	Mayo	2023-05-14T00:00:00	2024-11-06T14:00:00	4	Temperatura máxima	18.7
154091	7	Sololá	701	Sololá	2	El tablón	5	Mayo	2023-05-14T00:00:00	2024-11-06T14:00:00	3	Temperatura mínima	18.1
154092	7	Sololá	701	Sololá	2	El tablón	5	Mayo	2023-05-14T00:00:00	2024-11-06T14:00:00	5	Humedad	69
154093	7	Sololá	701	Sololá	2	El tablón	5	Mayo	2023-05-14T00:00:00	2024-11-06T14:00:00	6	Velocidad del viento	4.8
154094	7	Sololá	701	Sololá	2	El tablón	5	Mayo	2023-05-14T00:00:00	2024-11-06T14:00:00	7	Dirección del viento	4.83
154095	7	Sololá	701	Sololá	2	El tablón	5	Mayo	2023-05-14T00:00:00	2024-11-06T14:00:00	1	Precipitación	0
154096	7	Sololá	701	Sololá	2	El tablón	5	Mayo	2023-05-14T00:00:00	2024-11-06T14:00:00	8	Radiación solar	702
154097	7	Sololá	701	Sololá	2	El tablón	5	Mayo	2023-05-14T00:00:00	2024-11-06T15:00:00	2	Temperatura media	18.2
154098	7	Sololá	701	Sololá	2	El tablón	5	Mayo	2023-05-14T00:00:00	2024-11-06T15:00:00	4	Temperatura máxima	19
154099	7	Sololá	701	Sololá	2	El tablón	5	Mayo	2023-05-14T00:00:00	2024-11-06T15:00:00	3	Temperatura mínima	18.1
154100	7	Sololá	701	Sololá	2	El tablón	5	Mayo	2023-05-14T00:00:00	2024-11-06T15:00:00	5	Humedad	71
154101	7	Sololá	701	Sololá	2	El tablón	5	Mayo	2023-05-14T00:00:00	2024-11-06T15:00:00	6	Velocidad del viento	6.4
154102	7	Sololá	701	Sololá	2	El tablón	5	Mayo	2023-05-14T00:00:00	2024-11-06T15:00:00	7	Dirección del viento	6.44
154103	7	Sololá	701	Sololá	2	El tablón	5	Mayo	2023-05-14T00:00:00	2024-11-06T15:00:00	1	Precipitación	0
154104	7	Sololá	701	Sololá	2	El tablón	5	Mayo	2023-05-14T00:00:00	2024-11-06T15:00:00	8	Radiación solar	639
154105	7	Sololá	701	Sololá	2	El tablón	5	Mayo	2023-05-14T00:00:00	2024-11-06T16:00:00	2	Temperatura media	18.8
154106	7	Sololá	701	Sololá	2	El tablón	5	Mayo	2023-05-14T00:00:00	2024-11-06T16:00:00	4	Temperatura máxima	18.8
154107	7	Sololá	701	Sololá	2	El tablón	5	Mayo	2023-05-14T00:00:00	2024-11-06T16:00:00	3	Temperatura mínima	18.1
154108	7	Sololá	701	Sololá	2	El tablón	5	Mayo	2023-05-14T00:00:00	2024-11-06T16:00:00	5	Humedad	74
154109	7	Sololá	701	Sololá	2	El tablón	5	Mayo	2023-05-14T00:00:00	2024-11-06T16:00:00	6	Velocidad del viento	4.8
154110	7	Sololá	701	Sololá	2	El tablón	5	Mayo	2023-05-14T00:00:00	2024-11-06T16:00:00	7	Dirección del viento	4.83
154111	7	Sololá	701	Sololá	2	El tablón	5	Mayo	2023-05-14T00:00:00	2024-11-06T16:00:00	1	Precipitación	0
154112	7	Sololá	701	Sololá	2	El tablón	5	Mayo	2023-05-14T00:00:00	2024-11-06T16:00:00	8	Radiación solar	551
154113	7	Sololá	701	Sololá	2	El tablón	5	Mayo	2023-05-14T00:00:00	2024-11-06T17:00:00	2	Temperatura media	18.1
154114	7	Sololá	701	Sololá	2	El tablón	5	Mayo	2023-05-14T00:00:00	2024-11-06T17:00:00	4	Temperatura máxima	19.3
154115	7	Sololá	701	Sololá	2	El tablón	5	Mayo	2023-05-14T00:00:00	2024-11-06T17:00:00	3	Temperatura mínima	18.1
154116	7	Sololá	701	Sololá	2	El tablón	5	Mayo	2023-05-14T00:00:00	2024-11-06T17:00:00	5	Humedad	80
154117	7	Sololá	701	Sololá	2	El tablón	5	Mayo	2023-05-14T00:00:00	2024-11-06T17:00:00	6	Velocidad del viento	3.2
154118	7	Sololá	701	Sololá	2	El tablón	5	Mayo	2023-05-14T00:00:00	2024-11-06T17:00:00	7	Dirección del viento	3.22
154119	7	Sololá	701	Sololá	2	El tablón	5	Mayo	2023-05-14T00:00:00	2024-11-06T17:00:00	1	Precipitación	0
154120	7	Sololá	701	Sololá	2	El tablón	5	Mayo	2023-05-14T00:00:00	2024-11-06T17:00:00	8	Radiación solar	267
154121	7	Sololá	701	Sololá	2	El tablón	5	Mayo	2023-05-14T00:00:00	2024-11-06T18:00:00	2	Temperatura media	16.9
154122	7	Sololá	701	Sololá	2	El tablón	5	Mayo	2023-05-14T00:00:00	2024-11-06T18:00:00	4	Temperatura máxima	18.1
154123	7	Sololá	701	Sololá	2	El tablón	5	Mayo	2023-05-14T00:00:00	2024-11-06T18:00:00	3	Temperatura mínima	16.8
154124	7	Sololá	701	Sololá	2	El tablón	5	Mayo	2023-05-14T00:00:00	2024-11-06T18:00:00	5	Humedad	84
154125	7	Sololá	701	Sololá	2	El tablón	5	Mayo	2023-05-14T00:00:00	2024-11-06T18:00:00	6	Velocidad del viento	3.2
154126	7	Sololá	701	Sololá	2	El tablón	5	Mayo	2023-05-14T00:00:00	2024-11-06T18:00:00	7	Dirección del viento	3.22
154127	7	Sololá	701	Sololá	2	El tablón	5	Mayo	2023-05-14T00:00:00	2024-11-06T18:00:00	1	Precipitación	0
154128	7	Sololá	701	Sololá	2	El tablón	5	Mayo	2023-05-14T00:00:00	2024-11-06T18:00:00	8	Radiación solar	21
154129	7	Sololá	701	Sololá	2	El tablón	5	Mayo	2023-05-14T00:00:00	2024-11-06T19:00:00	2	Temperatura media	16
154130	7	Sololá	701	Sololá	2	El tablón	5	Mayo	2023-05-14T00:00:00	2024-11-06T19:00:00	4	Temperatura máxima	16.9
154131	7	Sololá	701	Sololá	2	El tablón	5	Mayo	2023-05-14T00:00:00	2024-11-06T19:00:00	3	Temperatura mínima	16
154132	7	Sololá	701	Sololá	2	El tablón	5	Mayo	2023-05-14T00:00:00	2024-11-06T19:00:00	5	Humedad	88
154133	7	Sololá	701	Sololá	2	El tablón	5	Mayo	2023-05-14T00:00:00	2024-11-06T19:00:00	6	Velocidad del viento	3.2
154134	7	Sololá	701	Sololá	2	El tablón	5	Mayo	2023-05-14T00:00:00	2024-11-06T19:00:00	7	Dirección del viento	3.22
154135	7	Sololá	701	Sololá	2	El tablón	5	Mayo	2023-05-14T00:00:00	2024-11-06T19:00:00	1	Precipitación	0
154136	7	Sololá	701	Sololá	2	El tablón	5	Mayo	2023-05-14T00:00:00	2024-11-06T19:00:00	8	Radiación solar	0
154137	7	Sololá	701	Sololá	2	El tablón	5	Mayo	2023-05-14T00:00:00	2024-11-06T20:00:00	2	Temperatura media	14.7
154138	7	Sololá	701	Sololá	2	El tablón	5	Mayo	2023-05-14T00:00:00	2024-11-06T20:00:00	4	Temperatura máxima	15.9
154139	7	Sololá	701	Sololá	2	El tablón	5	Mayo	2023-05-14T00:00:00	2024-11-06T20:00:00	3	Temperatura mínima	14.7
154140	7	Sololá	701	Sololá	2	El tablón	5	Mayo	2023-05-14T00:00:00	2024-11-06T20:00:00	5	Humedad	88
154141	7	Sololá	701	Sololá	2	El tablón	5	Mayo	2023-05-14T00:00:00	2024-11-06T20:00:00	6	Velocidad del viento	4.8
154142	7	Sololá	701	Sololá	2	El tablón	5	Mayo	2023-05-14T00:00:00	2024-11-06T20:00:00	7	Dirección del viento	4.83
154143	7	Sololá	701	Sololá	2	El tablón	5	Mayo	2023-05-14T00:00:00	2024-11-06T20:00:00	1	Precipitación	0.2
154144	7	Sololá	701	Sololá	2	El tablón	5	Mayo	2023-05-14T00:00:00	2024-11-06T20:00:00	8	Radiación solar	0
154145	7	Sololá	701	Sololá	2	El tablón	5	Mayo	2023-05-14T00:00:00	2024-11-06T21:00:00	2	Temperatura media	14.2
154146	7	Sololá	701	Sololá	2	El tablón	5	Mayo	2023-05-14T00:00:00	2024-11-06T21:00:00	4	Temperatura máxima	14.7
154147	7	Sololá	701	Sololá	2	El tablón	5	Mayo	2023-05-14T00:00:00	2024-11-06T21:00:00	3	Temperatura mínima	14.2
154148	7	Sololá	701	Sololá	2	El tablón	5	Mayo	2023-05-14T00:00:00	2024-11-06T21:00:00	5	Humedad	88
154149	7	Sololá	701	Sololá	2	El tablón	5	Mayo	2023-05-14T00:00:00	2024-11-06T21:00:00	6	Velocidad del viento	3.2
154150	7	Sololá	701	Sololá	2	El tablón	5	Mayo	2023-05-14T00:00:00	2024-11-06T21:00:00	7	Dirección del viento	3.22
154151	7	Sololá	701	Sololá	2	El tablón	5	Mayo	2023-05-14T00:00:00	2024-11-06T21:00:00	1	Precipitación	0
154152	7	Sololá	701	Sololá	2	El tablón	5	Mayo	2023-05-14T00:00:00	2024-11-06T21:00:00	8	Radiación solar	0
154153	7	Sololá	701	Sololá	2	El tablón	5	Mayo	2023-05-14T00:00:00	2024-11-06T22:00:00	2	Temperatura media	13.9
154154	7	Sololá	701	Sololá	2	El tablón	5	Mayo	2023-05-14T00:00:00	2024-11-06T22:00:00	4	Temperatura máxima	14.5
154155	7	Sololá	701	Sololá	2	El tablón	5	Mayo	2023-05-14T00:00:00	2024-11-06T22:00:00	3	Temperatura mínima	13.9
154156	7	Sololá	701	Sololá	2	El tablón	5	Mayo	2023-05-14T00:00:00	2024-11-06T22:00:00	5	Humedad	88
154157	7	Sololá	701	Sololá	2	El tablón	5	Mayo	2023-05-14T00:00:00	2024-11-06T22:00:00	6	Velocidad del viento	6.4
154158	7	Sololá	701	Sololá	2	El tablón	5	Mayo	2023-05-14T00:00:00	2024-11-06T22:00:00	7	Dirección del viento	6.44
154159	7	Sololá	701	Sololá	2	El tablón	5	Mayo	2023-05-14T00:00:00	2024-11-06T22:00:00	1	Precipitación	0
154160	7	Sololá	701	Sololá	2	El tablón	5	Mayo	2023-05-14T00:00:00	2024-11-06T22:00:00	8	Radiación solar	0
154161	7	Sololá	701	Sololá	2	El tablón	5	Mayo	2023-05-14T00:00:00	2024-11-06T23:00:00	2	Temperatura media	13.3
154162	7	Sololá	701	Sololá	2	El tablón	5	Mayo	2023-05-14T00:00:00	2024-11-06T23:00:00	4	Temperatura máxima	13.9
154163	7	Sololá	701	Sololá	2	El tablón	5	Mayo	2023-05-14T00:00:00	2024-11-06T23:00:00	3	Temperatura mínima	13.3
154164	7	Sololá	701	Sololá	2	El tablón	5	Mayo	2023-05-14T00:00:00	2024-11-06T23:00:00	5	Humedad	87
154165	7	Sololá	701	Sololá	2	El tablón	5	Mayo	2023-05-14T00:00:00	2024-11-06T23:00:00	6	Velocidad del viento	6.4
154166	7	Sololá	701	Sololá	2	El tablón	5	Mayo	2023-05-14T00:00:00	2024-11-06T23:00:00	7	Dirección del viento	6.44
154167	7	Sololá	701	Sololá	2	El tablón	5	Mayo	2023-05-14T00:00:00	2024-11-06T23:00:00	1	Precipitación	0
154168	7	Sololá	701	Sololá	2	El tablón	5	Mayo	2023-05-14T00:00:00	2024-11-06T23:00:00	8	Radiación solar	0
154169	7	Sololá	701	Sololá	2	El tablón	5	Mayo	2023-05-15T00:00:00	2024-11-06T00:00:00	2	Temperatura media	13.4
154170	7	Sololá	701	Sololá	2	El tablón	5	Mayo	2023-05-15T00:00:00	2024-11-06T00:00:00	4	Temperatura máxima	13.6
154171	7	Sololá	701	Sololá	2	El tablón	5	Mayo	2023-05-15T00:00:00	2024-11-06T00:00:00	3	Temperatura mínima	13.2
154172	7	Sololá	701	Sololá	2	El tablón	5	Mayo	2023-05-15T00:00:00	2024-11-06T00:00:00	5	Humedad	86
154173	7	Sololá	701	Sololá	2	El tablón	5	Mayo	2023-05-15T00:00:00	2024-11-06T00:00:00	6	Velocidad del viento	8
154174	7	Sololá	701	Sololá	2	El tablón	5	Mayo	2023-05-15T00:00:00	2024-11-06T00:00:00	7	Dirección del viento	8.05
154175	7	Sololá	701	Sololá	2	El tablón	5	Mayo	2023-05-15T00:00:00	2024-11-06T00:00:00	1	Precipitación	0
154176	7	Sololá	701	Sololá	2	El tablón	5	Mayo	2023-05-15T00:00:00	2024-11-06T00:00:00	8	Radiación solar	0
154177	7	Sololá	701	Sololá	2	El tablón	5	Mayo	2023-05-15T00:00:00	2024-11-06T01:00:00	2	Temperatura media	13.2
154178	7	Sololá	701	Sololá	2	El tablón	5	Mayo	2023-05-15T00:00:00	2024-11-06T01:00:00	4	Temperatura máxima	13.4
154179	7	Sololá	701	Sololá	2	El tablón	5	Mayo	2023-05-15T00:00:00	2024-11-06T01:00:00	3	Temperatura mínima	13.2
154180	7	Sololá	701	Sololá	2	El tablón	5	Mayo	2023-05-15T00:00:00	2024-11-06T01:00:00	5	Humedad	88
154181	7	Sololá	701	Sololá	2	El tablón	5	Mayo	2023-05-15T00:00:00	2024-11-06T01:00:00	6	Velocidad del viento	8
154182	7	Sololá	701	Sololá	2	El tablón	5	Mayo	2023-05-15T00:00:00	2024-11-06T01:00:00	7	Dirección del viento	8.05
154183	7	Sololá	701	Sololá	2	El tablón	5	Mayo	2023-05-15T00:00:00	2024-11-06T01:00:00	1	Precipitación	0
154184	7	Sololá	701	Sololá	2	El tablón	5	Mayo	2023-05-15T00:00:00	2024-11-06T01:00:00	8	Radiación solar	0
154185	7	Sololá	701	Sololá	2	El tablón	5	Mayo	2023-05-15T00:00:00	2024-11-06T02:00:00	2	Temperatura media	12.8
154186	7	Sololá	701	Sololá	2	El tablón	5	Mayo	2023-05-15T00:00:00	2024-11-06T02:00:00	4	Temperatura máxima	13.2
154187	7	Sololá	701	Sololá	2	El tablón	5	Mayo	2023-05-15T00:00:00	2024-11-06T02:00:00	3	Temperatura mínima	12.7
154188	7	Sololá	701	Sololá	2	El tablón	5	Mayo	2023-05-15T00:00:00	2024-11-06T02:00:00	5	Humedad	88
154189	7	Sololá	701	Sololá	2	El tablón	5	Mayo	2023-05-15T00:00:00	2024-11-06T02:00:00	6	Velocidad del viento	8
154190	7	Sololá	701	Sololá	2	El tablón	5	Mayo	2023-05-15T00:00:00	2024-11-06T02:00:00	7	Dirección del viento	8.05
154191	7	Sololá	701	Sololá	2	El tablón	5	Mayo	2023-05-15T00:00:00	2024-11-06T02:00:00	1	Precipitación	0.2
154192	7	Sololá	701	Sololá	2	El tablón	5	Mayo	2023-05-15T00:00:00	2024-11-06T02:00:00	8	Radiación solar	0
154193	7	Sololá	701	Sololá	2	El tablón	5	Mayo	2023-05-15T00:00:00	2024-11-06T03:00:00	2	Temperatura media	12.6
154194	7	Sololá	701	Sololá	2	El tablón	5	Mayo	2023-05-15T00:00:00	2024-11-06T03:00:00	4	Temperatura máxima	12.8
154195	7	Sololá	701	Sololá	2	El tablón	5	Mayo	2023-05-15T00:00:00	2024-11-06T03:00:00	3	Temperatura mínima	12.6
154196	7	Sololá	701	Sololá	2	El tablón	5	Mayo	2023-05-15T00:00:00	2024-11-06T03:00:00	5	Humedad	88
154197	7	Sololá	701	Sololá	2	El tablón	5	Mayo	2023-05-15T00:00:00	2024-11-06T03:00:00	6	Velocidad del viento	4.8
154198	7	Sololá	701	Sololá	2	El tablón	5	Mayo	2023-05-15T00:00:00	2024-11-06T03:00:00	7	Dirección del viento	4.83
154199	7	Sololá	701	Sololá	2	El tablón	5	Mayo	2023-05-15T00:00:00	2024-11-06T03:00:00	1	Precipitación	0
154200	7	Sololá	701	Sololá	2	El tablón	5	Mayo	2023-05-15T00:00:00	2024-11-06T03:00:00	8	Radiación solar	0
154201	7	Sololá	701	Sololá	2	El tablón	5	Mayo	2023-05-15T00:00:00	2024-11-06T04:00:00	2	Temperatura media	12.4
154202	7	Sololá	701	Sololá	2	El tablón	5	Mayo	2023-05-15T00:00:00	2024-11-06T04:00:00	4	Temperatura máxima	12.6
154203	7	Sololá	701	Sololá	2	El tablón	5	Mayo	2023-05-15T00:00:00	2024-11-06T04:00:00	3	Temperatura mínima	12.3
154204	7	Sololá	701	Sololá	2	El tablón	5	Mayo	2023-05-15T00:00:00	2024-11-06T04:00:00	5	Humedad	88
154205	7	Sololá	701	Sololá	2	El tablón	5	Mayo	2023-05-15T00:00:00	2024-11-06T04:00:00	6	Velocidad del viento	3.2
154206	7	Sololá	701	Sololá	2	El tablón	5	Mayo	2023-05-15T00:00:00	2024-11-06T04:00:00	7	Dirección del viento	3.22
154207	7	Sololá	701	Sololá	2	El tablón	5	Mayo	2023-05-15T00:00:00	2024-11-06T04:00:00	1	Precipitación	0
154208	7	Sololá	701	Sololá	2	El tablón	5	Mayo	2023-05-15T00:00:00	2024-11-06T04:00:00	8	Radiación solar	0
154209	7	Sololá	701	Sololá	2	El tablón	5	Mayo	2023-05-15T00:00:00	2024-11-06T05:00:00	2	Temperatura media	12.3
154210	7	Sololá	701	Sololá	2	El tablón	5	Mayo	2023-05-15T00:00:00	2024-11-06T05:00:00	4	Temperatura máxima	12.4
154211	7	Sololá	701	Sololá	2	El tablón	5	Mayo	2023-05-15T00:00:00	2024-11-06T05:00:00	3	Temperatura mínima	12.3
154212	7	Sololá	701	Sololá	2	El tablón	5	Mayo	2023-05-15T00:00:00	2024-11-06T05:00:00	5	Humedad	88
154213	7	Sololá	701	Sololá	2	El tablón	5	Mayo	2023-05-15T00:00:00	2024-11-06T05:00:00	6	Velocidad del viento	4.8
154214	7	Sololá	701	Sololá	2	El tablón	5	Mayo	2023-05-15T00:00:00	2024-11-06T05:00:00	7	Dirección del viento	4.83
154215	7	Sololá	701	Sololá	2	El tablón	5	Mayo	2023-05-15T00:00:00	2024-11-06T05:00:00	1	Precipitación	0
154216	7	Sololá	701	Sololá	2	El tablón	5	Mayo	2023-05-15T00:00:00	2024-11-06T05:00:00	8	Radiación solar	0
154217	7	Sololá	701	Sololá	2	El tablón	5	Mayo	2023-05-15T00:00:00	2024-11-06T06:00:00	2	Temperatura media	11.9
154218	7	Sololá	701	Sololá	2	El tablón	5	Mayo	2023-05-15T00:00:00	2024-11-06T06:00:00	4	Temperatura máxima	12.3
154219	7	Sololá	701	Sololá	2	El tablón	5	Mayo	2023-05-15T00:00:00	2024-11-06T06:00:00	3	Temperatura mínima	11.8
154220	7	Sololá	701	Sololá	2	El tablón	5	Mayo	2023-05-15T00:00:00	2024-11-06T06:00:00	5	Humedad	88
154221	7	Sololá	701	Sololá	2	El tablón	5	Mayo	2023-05-15T00:00:00	2024-11-06T06:00:00	6	Velocidad del viento	4.8
154222	7	Sololá	701	Sololá	2	El tablón	5	Mayo	2023-05-15T00:00:00	2024-11-06T06:00:00	7	Dirección del viento	4.83
154223	7	Sololá	701	Sololá	2	El tablón	5	Mayo	2023-05-15T00:00:00	2024-11-06T06:00:00	1	Precipitación	0
154224	7	Sololá	701	Sololá	2	El tablón	5	Mayo	2023-05-15T00:00:00	2024-11-06T06:00:00	8	Radiación solar	3
154225	7	Sololá	701	Sololá	2	El tablón	5	Mayo	2023-05-15T00:00:00	2024-11-06T07:00:00	2	Temperatura media	12.9
154226	7	Sololá	701	Sololá	2	El tablón	5	Mayo	2023-05-15T00:00:00	2024-11-06T07:00:00	4	Temperatura máxima	12.9
154227	7	Sololá	701	Sololá	2	El tablón	5	Mayo	2023-05-15T00:00:00	2024-11-06T07:00:00	3	Temperatura mínima	11.9
154228	7	Sololá	701	Sololá	2	El tablón	5	Mayo	2023-05-15T00:00:00	2024-11-06T07:00:00	5	Humedad	87
154229	7	Sololá	701	Sololá	2	El tablón	5	Mayo	2023-05-15T00:00:00	2024-11-06T07:00:00	6	Velocidad del viento	1.6
154230	7	Sololá	701	Sololá	2	El tablón	5	Mayo	2023-05-15T00:00:00	2024-11-06T07:00:00	7	Dirección del viento	1.61
154231	7	Sololá	701	Sololá	2	El tablón	5	Mayo	2023-05-15T00:00:00	2024-11-06T07:00:00	1	Precipitación	0
154232	7	Sololá	701	Sololá	2	El tablón	5	Mayo	2023-05-15T00:00:00	2024-11-06T07:00:00	8	Radiación solar	57
154233	7	Sololá	701	Sololá	2	El tablón	5	Mayo	2023-05-15T00:00:00	2024-11-06T08:00:00	2	Temperatura media	14.9
154234	7	Sololá	701	Sololá	2	El tablón	5	Mayo	2023-05-15T00:00:00	2024-11-06T08:00:00	4	Temperatura máxima	14.9
154235	7	Sololá	701	Sololá	2	El tablón	5	Mayo	2023-05-15T00:00:00	2024-11-06T08:00:00	3	Temperatura mínima	12.9
154236	7	Sololá	701	Sololá	2	El tablón	5	Mayo	2023-05-15T00:00:00	2024-11-06T08:00:00	5	Humedad	79
154237	7	Sololá	701	Sololá	2	El tablón	5	Mayo	2023-05-15T00:00:00	2024-11-06T08:00:00	6	Velocidad del viento	1.6
154238	7	Sololá	701	Sololá	2	El tablón	5	Mayo	2023-05-15T00:00:00	2024-11-06T08:00:00	7	Dirección del viento	1.61
154239	7	Sololá	701	Sololá	2	El tablón	5	Mayo	2023-05-15T00:00:00	2024-11-06T08:00:00	1	Precipitación	0
154240	7	Sololá	701	Sololá	2	El tablón	5	Mayo	2023-05-15T00:00:00	2024-11-06T08:00:00	8	Radiación solar	245
154241	7	Sololá	701	Sololá	2	El tablón	5	Mayo	2023-05-15T00:00:00	2024-11-06T09:00:00	2	Temperatura media	15.7
154242	7	Sololá	701	Sololá	2	El tablón	5	Mayo	2023-05-15T00:00:00	2024-11-06T09:00:00	4	Temperatura máxima	15.7
154243	7	Sololá	701	Sololá	2	El tablón	5	Mayo	2023-05-15T00:00:00	2024-11-06T09:00:00	3	Temperatura mínima	14.9
154244	7	Sololá	701	Sololá	2	El tablón	5	Mayo	2023-05-15T00:00:00	2024-11-06T09:00:00	5	Humedad	82
154245	7	Sololá	701	Sololá	2	El tablón	5	Mayo	2023-05-15T00:00:00	2024-11-06T09:00:00	6	Velocidad del viento	3.2
154246	7	Sololá	701	Sololá	2	El tablón	5	Mayo	2023-05-15T00:00:00	2024-11-06T09:00:00	7	Dirección del viento	3.22
154247	7	Sololá	701	Sololá	2	El tablón	5	Mayo	2023-05-15T00:00:00	2024-11-06T09:00:00	1	Precipitación	0
154248	7	Sololá	701	Sololá	2	El tablón	5	Mayo	2023-05-15T00:00:00	2024-11-06T09:00:00	8	Radiación solar	238
154249	7	Sololá	701	Sololá	2	El tablón	5	Mayo	2023-05-15T00:00:00	2024-11-06T10:00:00	2	Temperatura media	16.7
154250	7	Sololá	701	Sololá	2	El tablón	5	Mayo	2023-05-15T00:00:00	2024-11-06T10:00:00	4	Temperatura máxima	16.7
154251	7	Sololá	701	Sololá	2	El tablón	5	Mayo	2023-05-15T00:00:00	2024-11-06T10:00:00	3	Temperatura mínima	15.3
154252	7	Sololá	701	Sololá	2	El tablón	5	Mayo	2023-05-15T00:00:00	2024-11-06T10:00:00	5	Humedad	81
154253	7	Sololá	701	Sololá	2	El tablón	5	Mayo	2023-05-15T00:00:00	2024-11-06T10:00:00	6	Velocidad del viento	6.4
154254	7	Sololá	701	Sololá	2	El tablón	5	Mayo	2023-05-15T00:00:00	2024-11-06T10:00:00	7	Dirección del viento	6.44
154255	7	Sololá	701	Sololá	2	El tablón	5	Mayo	2023-05-15T00:00:00	2024-11-06T10:00:00	1	Precipitación	0
154256	7	Sololá	701	Sololá	2	El tablón	5	Mayo	2023-05-15T00:00:00	2024-11-06T10:00:00	8	Radiación solar	593
154257	7	Sololá	701	Sololá	2	El tablón	5	Mayo	2023-05-15T00:00:00	2024-11-06T11:00:00	2	Temperatura media	16.4
154258	7	Sololá	701	Sololá	2	El tablón	5	Mayo	2023-05-15T00:00:00	2024-11-06T11:00:00	4	Temperatura máxima	16.8
154259	7	Sololá	701	Sololá	2	El tablón	5	Mayo	2023-05-15T00:00:00	2024-11-06T11:00:00	3	Temperatura mínima	15.7
154260	7	Sololá	701	Sololá	2	El tablón	5	Mayo	2023-05-15T00:00:00	2024-11-06T11:00:00	5	Humedad	80
154261	7	Sololá	701	Sololá	2	El tablón	5	Mayo	2023-05-15T00:00:00	2024-11-06T11:00:00	6	Velocidad del viento	6.4
154262	7	Sololá	701	Sololá	2	El tablón	5	Mayo	2023-05-15T00:00:00	2024-11-06T11:00:00	7	Dirección del viento	6.44
154263	7	Sololá	701	Sololá	2	El tablón	5	Mayo	2023-05-15T00:00:00	2024-11-06T11:00:00	1	Precipitación	0
154264	7	Sololá	701	Sololá	2	El tablón	5	Mayo	2023-05-15T00:00:00	2024-11-06T11:00:00	8	Radiación solar	430
154265	7	Sololá	701	Sololá	2	El tablón	5	Mayo	2023-05-15T00:00:00	2024-11-06T12:00:00	2	Temperatura media	17.1
154266	7	Sololá	701	Sololá	2	El tablón	5	Mayo	2023-05-15T00:00:00	2024-11-06T12:00:00	4	Temperatura máxima	17.1
154267	7	Sololá	701	Sololá	2	El tablón	5	Mayo	2023-05-15T00:00:00	2024-11-06T12:00:00	3	Temperatura mínima	15.9
154268	7	Sololá	701	Sololá	2	El tablón	5	Mayo	2023-05-15T00:00:00	2024-11-06T12:00:00	5	Humedad	81
154269	7	Sololá	701	Sololá	2	El tablón	5	Mayo	2023-05-15T00:00:00	2024-11-06T12:00:00	6	Velocidad del viento	6.4
154270	7	Sololá	701	Sololá	2	El tablón	5	Mayo	2023-05-15T00:00:00	2024-11-06T12:00:00	7	Dirección del viento	6.44
154271	7	Sololá	701	Sololá	2	El tablón	5	Mayo	2023-05-15T00:00:00	2024-11-06T12:00:00	1	Precipitación	0
154272	7	Sololá	701	Sololá	2	El tablón	5	Mayo	2023-05-15T00:00:00	2024-11-06T12:00:00	8	Radiación solar	426
154273	7	Sololá	701	Sololá	2	El tablón	5	Mayo	2023-05-15T00:00:00	2024-11-06T13:00:00	2	Temperatura media	17.7
154274	7	Sololá	701	Sololá	2	El tablón	5	Mayo	2023-05-15T00:00:00	2024-11-06T13:00:00	4	Temperatura máxima	17.7
154275	7	Sololá	701	Sololá	2	El tablón	5	Mayo	2023-05-15T00:00:00	2024-11-06T13:00:00	3	Temperatura mínima	17
154276	7	Sololá	701	Sololá	2	El tablón	5	Mayo	2023-05-15T00:00:00	2024-11-06T13:00:00	5	Humedad	79
154277	7	Sololá	701	Sololá	2	El tablón	5	Mayo	2023-05-15T00:00:00	2024-11-06T13:00:00	6	Velocidad del viento	6.4
154278	7	Sololá	701	Sololá	2	El tablón	5	Mayo	2023-05-15T00:00:00	2024-11-06T13:00:00	7	Dirección del viento	6.44
154279	7	Sololá	701	Sololá	2	El tablón	5	Mayo	2023-05-15T00:00:00	2024-11-06T13:00:00	1	Precipitación	0
154280	7	Sololá	701	Sololá	2	El tablón	5	Mayo	2023-05-15T00:00:00	2024-11-06T13:00:00	8	Radiación solar	611
154281	7	Sololá	701	Sololá	2	El tablón	5	Mayo	2023-05-15T00:00:00	2024-11-06T14:00:00	2	Temperatura media	17.6
154282	7	Sololá	701	Sololá	2	El tablón	5	Mayo	2023-05-15T00:00:00	2024-11-06T14:00:00	4	Temperatura máxima	18.4
154283	7	Sololá	701	Sololá	2	El tablón	5	Mayo	2023-05-15T00:00:00	2024-11-06T14:00:00	3	Temperatura mínima	17.6
154284	7	Sololá	701	Sololá	2	El tablón	5	Mayo	2023-05-15T00:00:00	2024-11-06T14:00:00	5	Humedad	82
154285	7	Sololá	701	Sololá	2	El tablón	5	Mayo	2023-05-15T00:00:00	2024-11-06T14:00:00	6	Velocidad del viento	8
154286	7	Sololá	701	Sololá	2	El tablón	5	Mayo	2023-05-15T00:00:00	2024-11-06T14:00:00	7	Dirección del viento	8.05
154287	7	Sololá	701	Sololá	2	El tablón	5	Mayo	2023-05-15T00:00:00	2024-11-06T14:00:00	1	Precipitación	0
154288	7	Sololá	701	Sololá	2	El tablón	5	Mayo	2023-05-15T00:00:00	2024-11-06T14:00:00	8	Radiación solar	780
154289	7	Sololá	701	Sololá	2	El tablón	5	Mayo	2023-05-15T00:00:00	2024-11-06T15:00:00	2	Temperatura media	16.7
154290	7	Sololá	701	Sololá	2	El tablón	5	Mayo	2023-05-15T00:00:00	2024-11-06T15:00:00	4	Temperatura máxima	17.6
154291	7	Sololá	701	Sololá	2	El tablón	5	Mayo	2023-05-15T00:00:00	2024-11-06T15:00:00	3	Temperatura mínima	16.6
154292	7	Sololá	701	Sololá	2	El tablón	5	Mayo	2023-05-15T00:00:00	2024-11-06T15:00:00	5	Humedad	85
154293	7	Sololá	701	Sololá	2	El tablón	5	Mayo	2023-05-15T00:00:00	2024-11-06T15:00:00	6	Velocidad del viento	8
154294	7	Sololá	701	Sololá	2	El tablón	5	Mayo	2023-05-15T00:00:00	2024-11-06T15:00:00	7	Dirección del viento	8.05
154295	7	Sololá	701	Sololá	2	El tablón	5	Mayo	2023-05-15T00:00:00	2024-11-06T15:00:00	1	Precipitación	0
154296	7	Sololá	701	Sololá	2	El tablón	5	Mayo	2023-05-15T00:00:00	2024-11-06T15:00:00	8	Radiación solar	324
154297	7	Sololá	701	Sololá	2	El tablón	5	Mayo	2023-05-15T00:00:00	2024-11-06T16:00:00	2	Temperatura media	16.3
154298	7	Sololá	701	Sololá	2	El tablón	5	Mayo	2023-05-15T00:00:00	2024-11-06T16:00:00	4	Temperatura máxima	16.9
154299	7	Sololá	701	Sololá	2	El tablón	5	Mayo	2023-05-15T00:00:00	2024-11-06T16:00:00	3	Temperatura mínima	16.2
154300	7	Sololá	701	Sololá	2	El tablón	5	Mayo	2023-05-15T00:00:00	2024-11-06T16:00:00	5	Humedad	86
154301	7	Sololá	701	Sololá	2	El tablón	5	Mayo	2023-05-15T00:00:00	2024-11-06T16:00:00	6	Velocidad del viento	4.8
154302	7	Sololá	701	Sololá	2	El tablón	5	Mayo	2023-05-15T00:00:00	2024-11-06T16:00:00	7	Dirección del viento	4.83
154303	7	Sololá	701	Sololá	2	El tablón	5	Mayo	2023-05-15T00:00:00	2024-11-06T16:00:00	1	Precipitación	0
154304	7	Sololá	701	Sololá	2	El tablón	5	Mayo	2023-05-15T00:00:00	2024-11-06T16:00:00	8	Radiación solar	204
154305	7	Sololá	701	Sololá	2	El tablón	5	Mayo	2023-05-15T00:00:00	2024-11-06T17:00:00	2	Temperatura media	15.2
154306	7	Sololá	701	Sololá	2	El tablón	5	Mayo	2023-05-15T00:00:00	2024-11-06T17:00:00	4	Temperatura máxima	16.3
154307	7	Sololá	701	Sololá	2	El tablón	5	Mayo	2023-05-15T00:00:00	2024-11-06T17:00:00	3	Temperatura mínima	15.2
154308	7	Sololá	701	Sololá	2	El tablón	5	Mayo	2023-05-15T00:00:00	2024-11-06T17:00:00	5	Humedad	88
154309	7	Sololá	701	Sololá	2	El tablón	5	Mayo	2023-05-15T00:00:00	2024-11-06T17:00:00	6	Velocidad del viento	3.2
154310	7	Sololá	701	Sololá	2	El tablón	5	Mayo	2023-05-15T00:00:00	2024-11-06T17:00:00	7	Dirección del viento	3.22
154311	7	Sololá	701	Sololá	2	El tablón	5	Mayo	2023-05-15T00:00:00	2024-11-06T17:00:00	1	Precipitación	0.6
154312	7	Sololá	701	Sololá	2	El tablón	5	Mayo	2023-05-15T00:00:00	2024-11-06T17:00:00	8	Radiación solar	36
154313	7	Sololá	701	Sololá	2	El tablón	5	Mayo	2023-05-15T00:00:00	2024-11-06T18:00:00	2	Temperatura media	14.2
154314	7	Sololá	701	Sololá	2	El tablón	5	Mayo	2023-05-15T00:00:00	2024-11-06T18:00:00	4	Temperatura máxima	15.2
154315	7	Sololá	701	Sololá	2	El tablón	5	Mayo	2023-05-15T00:00:00	2024-11-06T18:00:00	3	Temperatura mínima	14.2
154316	7	Sololá	701	Sololá	2	El tablón	5	Mayo	2023-05-15T00:00:00	2024-11-06T18:00:00	5	Humedad	88
154317	7	Sololá	701	Sololá	2	El tablón	5	Mayo	2023-05-15T00:00:00	2024-11-06T18:00:00	6	Velocidad del viento	4.8
154318	7	Sololá	701	Sololá	2	El tablón	5	Mayo	2023-05-15T00:00:00	2024-11-06T18:00:00	7	Dirección del viento	4.83
154319	7	Sololá	701	Sololá	2	El tablón	5	Mayo	2023-05-15T00:00:00	2024-11-06T18:00:00	1	Precipitación	6.4
154320	7	Sololá	701	Sololá	2	El tablón	5	Mayo	2023-05-15T00:00:00	2024-11-06T18:00:00	8	Radiación solar	3
154321	7	Sololá	701	Sololá	2	El tablón	5	Mayo	2023-05-15T00:00:00	2024-11-06T19:00:00	2	Temperatura media	13.3
154322	7	Sololá	701	Sololá	2	El tablón	5	Mayo	2023-05-15T00:00:00	2024-11-06T19:00:00	4	Temperatura máxima	14.2
154323	7	Sololá	701	Sololá	2	El tablón	5	Mayo	2023-05-15T00:00:00	2024-11-06T19:00:00	3	Temperatura mínima	13.3
154324	7	Sololá	701	Sololá	2	El tablón	5	Mayo	2023-05-15T00:00:00	2024-11-06T19:00:00	5	Humedad	89
154325	7	Sololá	701	Sololá	2	El tablón	5	Mayo	2023-05-15T00:00:00	2024-11-06T19:00:00	6	Velocidad del viento	4.8
154326	7	Sololá	701	Sololá	2	El tablón	5	Mayo	2023-05-15T00:00:00	2024-11-06T19:00:00	7	Dirección del viento	4.83
154327	7	Sololá	701	Sololá	2	El tablón	5	Mayo	2023-05-15T00:00:00	2024-11-06T19:00:00	1	Precipitación	0.4
154328	7	Sololá	701	Sololá	2	El tablón	5	Mayo	2023-05-15T00:00:00	2024-11-06T19:00:00	8	Radiación solar	0
154329	7	Sololá	701	Sololá	2	El tablón	5	Mayo	2023-05-15T00:00:00	2024-11-06T20:00:00	2	Temperatura media	13.2
154330	7	Sololá	701	Sololá	2	El tablón	5	Mayo	2023-05-15T00:00:00	2024-11-06T20:00:00	4	Temperatura máxima	13.3
154331	7	Sololá	701	Sololá	2	El tablón	5	Mayo	2023-05-15T00:00:00	2024-11-06T20:00:00	3	Temperatura mínima	13.1
154332	7	Sololá	701	Sololá	2	El tablón	5	Mayo	2023-05-15T00:00:00	2024-11-06T20:00:00	5	Humedad	85
154333	7	Sololá	701	Sololá	2	El tablón	5	Mayo	2023-05-15T00:00:00	2024-11-06T20:00:00	6	Velocidad del viento	4.8
154334	7	Sololá	701	Sololá	2	El tablón	5	Mayo	2023-05-15T00:00:00	2024-11-06T20:00:00	7	Dirección del viento	4.83
154335	7	Sololá	701	Sololá	2	El tablón	5	Mayo	2023-05-15T00:00:00	2024-11-06T20:00:00	1	Precipitación	0
154336	7	Sololá	701	Sololá	2	El tablón	5	Mayo	2023-05-15T00:00:00	2024-11-06T20:00:00	8	Radiación solar	0
154337	7	Sololá	701	Sololá	2	El tablón	5	Mayo	2023-05-15T00:00:00	2024-11-06T21:00:00	2	Temperatura media	13.7
154338	7	Sololá	701	Sololá	2	El tablón	5	Mayo	2023-05-15T00:00:00	2024-11-06T21:00:00	4	Temperatura máxima	13.9
154339	7	Sololá	701	Sololá	2	El tablón	5	Mayo	2023-05-15T00:00:00	2024-11-06T21:00:00	3	Temperatura mínima	12.9
154340	7	Sololá	701	Sololá	2	El tablón	5	Mayo	2023-05-15T00:00:00	2024-11-06T21:00:00	5	Humedad	79
154341	7	Sololá	701	Sololá	2	El tablón	5	Mayo	2023-05-15T00:00:00	2024-11-06T21:00:00	6	Velocidad del viento	6.4
154342	7	Sololá	701	Sololá	2	El tablón	5	Mayo	2023-05-15T00:00:00	2024-11-06T21:00:00	7	Dirección del viento	6.44
154343	7	Sololá	701	Sololá	2	El tablón	5	Mayo	2023-05-15T00:00:00	2024-11-06T21:00:00	1	Precipitación	0
154344	7	Sololá	701	Sololá	2	El tablón	5	Mayo	2023-05-15T00:00:00	2024-11-06T21:00:00	8	Radiación solar	0
154345	7	Sololá	701	Sololá	2	El tablón	5	Mayo	2023-05-15T00:00:00	2024-11-06T22:00:00	2	Temperatura media	12.7
154346	7	Sololá	701	Sololá	2	El tablón	5	Mayo	2023-05-15T00:00:00	2024-11-06T22:00:00	4	Temperatura máxima	13.7
154347	7	Sololá	701	Sololá	2	El tablón	5	Mayo	2023-05-15T00:00:00	2024-11-06T22:00:00	3	Temperatura mínima	12.7
154348	7	Sololá	701	Sololá	2	El tablón	5	Mayo	2023-05-15T00:00:00	2024-11-06T22:00:00	5	Humedad	85
154349	7	Sololá	701	Sololá	2	El tablón	5	Mayo	2023-05-15T00:00:00	2024-11-06T22:00:00	6	Velocidad del viento	11.3
154350	7	Sololá	701	Sololá	2	El tablón	5	Mayo	2023-05-15T00:00:00	2024-11-06T22:00:00	7	Dirección del viento	11.27
154351	7	Sololá	701	Sololá	2	El tablón	5	Mayo	2023-05-15T00:00:00	2024-11-06T22:00:00	1	Precipitación	0
154352	7	Sololá	701	Sololá	2	El tablón	5	Mayo	2023-05-15T00:00:00	2024-11-06T22:00:00	8	Radiación solar	0
154353	7	Sololá	701	Sololá	2	El tablón	5	Mayo	2023-05-15T00:00:00	2024-11-06T23:00:00	2	Temperatura media	11.8
154354	7	Sololá	701	Sololá	2	El tablón	5	Mayo	2023-05-15T00:00:00	2024-11-06T23:00:00	4	Temperatura máxima	12.7
154355	7	Sololá	701	Sololá	2	El tablón	5	Mayo	2023-05-15T00:00:00	2024-11-06T23:00:00	3	Temperatura mínima	11.6
154356	7	Sololá	701	Sololá	2	El tablón	5	Mayo	2023-05-15T00:00:00	2024-11-06T23:00:00	5	Humedad	85
154357	7	Sololá	701	Sololá	2	El tablón	5	Mayo	2023-05-15T00:00:00	2024-11-06T23:00:00	6	Velocidad del viento	6.4
154358	7	Sololá	701	Sololá	2	El tablón	5	Mayo	2023-05-15T00:00:00	2024-11-06T23:00:00	7	Dirección del viento	6.44
154359	7	Sololá	701	Sololá	2	El tablón	5	Mayo	2023-05-15T00:00:00	2024-11-06T23:00:00	1	Precipitación	0
154360	7	Sololá	701	Sololá	2	El tablón	5	Mayo	2023-05-15T00:00:00	2024-11-06T23:00:00	8	Radiación solar	0
154361	7	Sololá	701	Sololá	2	El tablón	5	Mayo	2023-05-16T00:00:00	2024-11-06T00:00:00	2	Temperatura media	10.8
154362	7	Sololá	701	Sololá	2	El tablón	5	Mayo	2023-05-16T00:00:00	2024-11-06T00:00:00	4	Temperatura máxima	12.1
154363	7	Sololá	701	Sololá	2	El tablón	5	Mayo	2023-05-16T00:00:00	2024-11-06T00:00:00	3	Temperatura mínima	10.8
154364	7	Sololá	701	Sololá	2	El tablón	5	Mayo	2023-05-16T00:00:00	2024-11-06T00:00:00	5	Humedad	85
154365	7	Sololá	701	Sololá	2	El tablón	5	Mayo	2023-05-16T00:00:00	2024-11-06T00:00:00	6	Velocidad del viento	3.2
154366	7	Sololá	701	Sololá	2	El tablón	5	Mayo	2023-05-16T00:00:00	2024-11-06T00:00:00	7	Dirección del viento	3.22
154367	7	Sololá	701	Sololá	2	El tablón	5	Mayo	2023-05-16T00:00:00	2024-11-06T00:00:00	1	Precipitación	0
154368	7	Sololá	701	Sololá	2	El tablón	5	Mayo	2023-05-16T00:00:00	2024-11-06T00:00:00	8	Radiación solar	0
154369	7	Sololá	701	Sololá	2	El tablón	5	Mayo	2023-05-16T00:00:00	2024-11-06T01:00:00	2	Temperatura media	11.7
154370	7	Sololá	701	Sololá	2	El tablón	5	Mayo	2023-05-16T00:00:00	2024-11-06T01:00:00	4	Temperatura máxima	11.9
154371	7	Sololá	701	Sololá	2	El tablón	5	Mayo	2023-05-16T00:00:00	2024-11-06T01:00:00	3	Temperatura mínima	10.8
154372	7	Sololá	701	Sololá	2	El tablón	5	Mayo	2023-05-16T00:00:00	2024-11-06T01:00:00	5	Humedad	81
154373	7	Sololá	701	Sololá	2	El tablón	5	Mayo	2023-05-16T00:00:00	2024-11-06T01:00:00	6	Velocidad del viento	3.2
154374	7	Sololá	701	Sololá	2	El tablón	5	Mayo	2023-05-16T00:00:00	2024-11-06T01:00:00	7	Dirección del viento	3.22
154375	7	Sololá	701	Sololá	2	El tablón	5	Mayo	2023-05-16T00:00:00	2024-11-06T01:00:00	1	Precipitación	0
154376	7	Sololá	701	Sololá	2	El tablón	5	Mayo	2023-05-16T00:00:00	2024-11-06T01:00:00	8	Radiación solar	0
154377	7	Sololá	701	Sololá	2	El tablón	5	Mayo	2023-05-16T00:00:00	2024-11-06T02:00:00	2	Temperatura media	10.2
154378	7	Sololá	701	Sololá	2	El tablón	5	Mayo	2023-05-16T00:00:00	2024-11-06T02:00:00	4	Temperatura máxima	11.7
154379	7	Sololá	701	Sololá	2	El tablón	5	Mayo	2023-05-16T00:00:00	2024-11-06T02:00:00	3	Temperatura mínima	10.2
154380	7	Sololá	701	Sololá	2	El tablón	5	Mayo	2023-05-16T00:00:00	2024-11-06T02:00:00	5	Humedad	86
154381	7	Sololá	701	Sololá	2	El tablón	5	Mayo	2023-05-16T00:00:00	2024-11-06T02:00:00	6	Velocidad del viento	1.6
154382	7	Sololá	701	Sololá	2	El tablón	5	Mayo	2023-05-16T00:00:00	2024-11-06T02:00:00	7	Dirección del viento	1.61
154383	7	Sololá	701	Sololá	2	El tablón	5	Mayo	2023-05-16T00:00:00	2024-11-06T02:00:00	1	Precipitación	0
154384	7	Sololá	701	Sololá	2	El tablón	5	Mayo	2023-05-16T00:00:00	2024-11-06T02:00:00	8	Radiación solar	0
154385	7	Sololá	701	Sololá	2	El tablón	5	Mayo	2023-05-16T00:00:00	2024-11-06T03:00:00	2	Temperatura media	11.4
154386	7	Sololá	701	Sololá	2	El tablón	5	Mayo	2023-05-16T00:00:00	2024-11-06T03:00:00	4	Temperatura máxima	11.4
154387	7	Sololá	701	Sololá	2	El tablón	5	Mayo	2023-05-16T00:00:00	2024-11-06T03:00:00	3	Temperatura mínima	10.2
154388	7	Sololá	701	Sololá	2	El tablón	5	Mayo	2023-05-16T00:00:00	2024-11-06T03:00:00	5	Humedad	86
154389	7	Sololá	701	Sololá	2	El tablón	5	Mayo	2023-05-16T00:00:00	2024-11-06T03:00:00	6	Velocidad del viento	1.6
154390	7	Sololá	701	Sololá	2	El tablón	5	Mayo	2023-05-16T00:00:00	2024-11-06T03:00:00	7	Dirección del viento	1.61
154391	7	Sololá	701	Sololá	2	El tablón	5	Mayo	2023-05-16T00:00:00	2024-11-06T03:00:00	1	Precipitación	0
154392	7	Sololá	701	Sololá	2	El tablón	5	Mayo	2023-05-16T00:00:00	2024-11-06T03:00:00	8	Radiación solar	0
154393	7	Sololá	701	Sololá	2	El tablón	5	Mayo	2023-05-16T00:00:00	2024-11-06T04:00:00	2	Temperatura media	10.3
154394	7	Sololá	701	Sololá	2	El tablón	5	Mayo	2023-05-16T00:00:00	2024-11-06T04:00:00	4	Temperatura máxima	11.4
154395	7	Sololá	701	Sololá	2	El tablón	5	Mayo	2023-05-16T00:00:00	2024-11-06T04:00:00	3	Temperatura mínima	10.1
154396	7	Sololá	701	Sololá	2	El tablón	5	Mayo	2023-05-16T00:00:00	2024-11-06T04:00:00	5	Humedad	87
154397	7	Sololá	701	Sololá	2	El tablón	5	Mayo	2023-05-16T00:00:00	2024-11-06T04:00:00	6	Velocidad del viento	4.8
154398	7	Sololá	701	Sololá	2	El tablón	5	Mayo	2023-05-16T00:00:00	2024-11-06T04:00:00	7	Dirección del viento	4.83
154399	7	Sololá	701	Sololá	2	El tablón	5	Mayo	2023-05-16T00:00:00	2024-11-06T04:00:00	1	Precipitación	0
154400	7	Sololá	701	Sololá	2	El tablón	5	Mayo	2023-05-16T00:00:00	2024-11-06T04:00:00	8	Radiación solar	0
154401	7	Sololá	701	Sololá	2	El tablón	5	Mayo	2023-05-16T00:00:00	2024-11-06T05:00:00	2	Temperatura media	10.9
154402	7	Sololá	701	Sololá	2	El tablón	5	Mayo	2023-05-16T00:00:00	2024-11-06T05:00:00	4	Temperatura máxima	10.9
154403	7	Sololá	701	Sololá	2	El tablón	5	Mayo	2023-05-16T00:00:00	2024-11-06T05:00:00	3	Temperatura mínima	10.3
154404	7	Sololá	701	Sololá	2	El tablón	5	Mayo	2023-05-16T00:00:00	2024-11-06T05:00:00	5	Humedad	84
154405	7	Sololá	701	Sololá	2	El tablón	5	Mayo	2023-05-16T00:00:00	2024-11-06T05:00:00	6	Velocidad del viento	3.2
154406	7	Sololá	701	Sololá	2	El tablón	5	Mayo	2023-05-16T00:00:00	2024-11-06T05:00:00	7	Dirección del viento	3.22
154407	7	Sololá	701	Sololá	2	El tablón	5	Mayo	2023-05-16T00:00:00	2024-11-06T05:00:00	1	Precipitación	0
154408	7	Sololá	701	Sololá	2	El tablón	5	Mayo	2023-05-16T00:00:00	2024-11-06T05:00:00	8	Radiación solar	0
154409	7	Sololá	701	Sololá	2	El tablón	5	Mayo	2023-05-16T00:00:00	2024-11-06T06:00:00	2	Temperatura media	10.5
154410	7	Sololá	701	Sololá	2	El tablón	5	Mayo	2023-05-16T00:00:00	2024-11-06T06:00:00	4	Temperatura máxima	10.9
154411	7	Sololá	701	Sololá	2	El tablón	5	Mayo	2023-05-16T00:00:00	2024-11-06T06:00:00	3	Temperatura mínima	10.4
154412	7	Sololá	701	Sololá	2	El tablón	5	Mayo	2023-05-16T00:00:00	2024-11-06T06:00:00	5	Humedad	85
154413	7	Sololá	701	Sololá	2	El tablón	5	Mayo	2023-05-16T00:00:00	2024-11-06T06:00:00	6	Velocidad del viento	1.6
154414	7	Sololá	701	Sololá	2	El tablón	5	Mayo	2023-05-16T00:00:00	2024-11-06T06:00:00	7	Dirección del viento	1.61
154415	7	Sololá	701	Sololá	2	El tablón	5	Mayo	2023-05-16T00:00:00	2024-11-06T06:00:00	1	Precipitación	0
154416	7	Sololá	701	Sololá	2	El tablón	5	Mayo	2023-05-16T00:00:00	2024-11-06T06:00:00	8	Radiación solar	4
154417	7	Sololá	701	Sololá	2	El tablón	5	Mayo	2023-05-16T00:00:00	2024-11-06T07:00:00	2	Temperatura media	13.6
154418	7	Sololá	701	Sololá	2	El tablón	5	Mayo	2023-05-16T00:00:00	2024-11-06T07:00:00	4	Temperatura máxima	13.6
154419	7	Sololá	701	Sololá	2	El tablón	5	Mayo	2023-05-16T00:00:00	2024-11-06T07:00:00	3	Temperatura mínima	10.5
154420	7	Sololá	701	Sololá	2	El tablón	5	Mayo	2023-05-16T00:00:00	2024-11-06T07:00:00	5	Humedad	79
154421	7	Sololá	701	Sololá	2	El tablón	5	Mayo	2023-05-16T00:00:00	2024-11-06T07:00:00	6	Velocidad del viento	1.6
154422	7	Sololá	701	Sololá	2	El tablón	5	Mayo	2023-05-16T00:00:00	2024-11-06T07:00:00	7	Dirección del viento	1.61
154423	7	Sololá	701	Sololá	2	El tablón	5	Mayo	2023-05-16T00:00:00	2024-11-06T07:00:00	1	Precipitación	0
154424	7	Sololá	701	Sololá	2	El tablón	5	Mayo	2023-05-16T00:00:00	2024-11-06T07:00:00	8	Radiación solar	111
154425	7	Sololá	701	Sololá	2	El tablón	5	Mayo	2023-05-16T00:00:00	2024-11-06T08:00:00	2	Temperatura media	15.8
154426	7	Sololá	701	Sololá	2	El tablón	5	Mayo	2023-05-16T00:00:00	2024-11-06T08:00:00	4	Temperatura máxima	15.8
154427	7	Sololá	701	Sololá	2	El tablón	5	Mayo	2023-05-16T00:00:00	2024-11-06T08:00:00	3	Temperatura mínima	13.5
154428	7	Sololá	701	Sololá	2	El tablón	5	Mayo	2023-05-16T00:00:00	2024-11-06T08:00:00	5	Humedad	70
154429	7	Sololá	701	Sololá	2	El tablón	5	Mayo	2023-05-16T00:00:00	2024-11-06T08:00:00	6	Velocidad del viento	1.6
154430	7	Sololá	701	Sololá	2	El tablón	5	Mayo	2023-05-16T00:00:00	2024-11-06T08:00:00	7	Dirección del viento	1.61
154431	7	Sololá	701	Sololá	2	El tablón	5	Mayo	2023-05-16T00:00:00	2024-11-06T08:00:00	1	Precipitación	0
154432	7	Sololá	701	Sololá	2	El tablón	5	Mayo	2023-05-16T00:00:00	2024-11-06T08:00:00	8	Radiación solar	337
154433	7	Sololá	701	Sololá	2	El tablón	5	Mayo	2023-05-16T00:00:00	2024-11-06T09:00:00	2	Temperatura media	17.1
154434	7	Sololá	701	Sololá	2	El tablón	5	Mayo	2023-05-16T00:00:00	2024-11-06T09:00:00	4	Temperatura máxima	17.1
154435	7	Sololá	701	Sololá	2	El tablón	5	Mayo	2023-05-16T00:00:00	2024-11-06T09:00:00	3	Temperatura mínima	15.8
154436	7	Sololá	701	Sololá	2	El tablón	5	Mayo	2023-05-16T00:00:00	2024-11-06T09:00:00	5	Humedad	73
154437	7	Sololá	701	Sololá	2	El tablón	5	Mayo	2023-05-16T00:00:00	2024-11-06T09:00:00	6	Velocidad del viento	3.2
154438	7	Sololá	701	Sololá	2	El tablón	5	Mayo	2023-05-16T00:00:00	2024-11-06T09:00:00	7	Dirección del viento	3.22
154439	7	Sololá	701	Sololá	2	El tablón	5	Mayo	2023-05-16T00:00:00	2024-11-06T09:00:00	1	Precipitación	0
154440	7	Sololá	701	Sololá	2	El tablón	5	Mayo	2023-05-16T00:00:00	2024-11-06T09:00:00	8	Radiación solar	563
154441	7	Sololá	701	Sololá	2	El tablón	5	Mayo	2023-05-16T00:00:00	2024-11-06T10:00:00	2	Temperatura media	16.4
154442	7	Sololá	701	Sololá	2	El tablón	5	Mayo	2023-05-16T00:00:00	2024-11-06T10:00:00	4	Temperatura máxima	17.3
154443	7	Sololá	701	Sololá	2	El tablón	5	Mayo	2023-05-16T00:00:00	2024-11-06T10:00:00	3	Temperatura mínima	16.2
154444	7	Sololá	701	Sololá	2	El tablón	5	Mayo	2023-05-16T00:00:00	2024-11-06T10:00:00	5	Humedad	78
154445	7	Sololá	701	Sololá	2	El tablón	5	Mayo	2023-05-16T00:00:00	2024-11-06T10:00:00	6	Velocidad del viento	6.4
154446	7	Sololá	701	Sololá	2	El tablón	5	Mayo	2023-05-16T00:00:00	2024-11-06T10:00:00	7	Dirección del viento	6.44
154447	7	Sololá	701	Sololá	2	El tablón	5	Mayo	2023-05-16T00:00:00	2024-11-06T10:00:00	1	Precipitación	0
154448	7	Sololá	701	Sololá	2	El tablón	5	Mayo	2023-05-16T00:00:00	2024-11-06T10:00:00	8	Radiación solar	646
154449	7	Sololá	701	Sololá	2	El tablón	5	Mayo	2023-05-16T00:00:00	2024-11-06T11:00:00	2	Temperatura media	17.7
154450	7	Sololá	701	Sololá	2	El tablón	5	Mayo	2023-05-16T00:00:00	2024-11-06T11:00:00	4	Temperatura máxima	17.8
154451	7	Sololá	701	Sololá	2	El tablón	5	Mayo	2023-05-16T00:00:00	2024-11-06T11:00:00	3	Temperatura mínima	16.5
154452	7	Sololá	701	Sololá	2	El tablón	5	Mayo	2023-05-16T00:00:00	2024-11-06T11:00:00	5	Humedad	72
154453	7	Sololá	701	Sololá	2	El tablón	5	Mayo	2023-05-16T00:00:00	2024-11-06T11:00:00	6	Velocidad del viento	6.4
154454	7	Sololá	701	Sololá	2	El tablón	5	Mayo	2023-05-16T00:00:00	2024-11-06T11:00:00	7	Dirección del viento	6.44
154455	7	Sololá	701	Sololá	2	El tablón	5	Mayo	2023-05-16T00:00:00	2024-11-06T11:00:00	1	Precipitación	0
154456	7	Sololá	701	Sololá	2	El tablón	5	Mayo	2023-05-16T00:00:00	2024-11-06T11:00:00	8	Radiación solar	874
154457	7	Sololá	701	Sololá	2	El tablón	5	Mayo	2023-05-16T00:00:00	2024-11-06T12:00:00	2	Temperatura media	18.3
154458	7	Sololá	701	Sololá	2	El tablón	5	Mayo	2023-05-16T00:00:00	2024-11-06T12:00:00	4	Temperatura máxima	18.8
154459	7	Sololá	701	Sololá	2	El tablón	5	Mayo	2023-05-16T00:00:00	2024-11-06T12:00:00	3	Temperatura mínima	17.5
154460	7	Sololá	701	Sololá	2	El tablón	5	Mayo	2023-05-16T00:00:00	2024-11-06T12:00:00	5	Humedad	69
154461	7	Sololá	701	Sololá	2	El tablón	5	Mayo	2023-05-16T00:00:00	2024-11-06T12:00:00	6	Velocidad del viento	6.4
154462	7	Sololá	701	Sololá	2	El tablón	5	Mayo	2023-05-16T00:00:00	2024-11-06T12:00:00	7	Dirección del viento	6.44
154463	7	Sololá	701	Sololá	2	El tablón	5	Mayo	2023-05-16T00:00:00	2024-11-06T12:00:00	1	Precipitación	0
154464	7	Sololá	701	Sololá	2	El tablón	5	Mayo	2023-05-16T00:00:00	2024-11-06T12:00:00	8	Radiación solar	953
154465	7	Sololá	701	Sololá	2	El tablón	5	Mayo	2023-05-16T00:00:00	2024-11-06T13:00:00	2	Temperatura media	18.4
154466	7	Sololá	701	Sololá	2	El tablón	5	Mayo	2023-05-16T00:00:00	2024-11-06T13:00:00	4	Temperatura máxima	18.9
154467	7	Sololá	701	Sololá	2	El tablón	5	Mayo	2023-05-16T00:00:00	2024-11-06T13:00:00	3	Temperatura mínima	18.1
154468	7	Sololá	701	Sololá	2	El tablón	5	Mayo	2023-05-16T00:00:00	2024-11-06T13:00:00	5	Humedad	79
154469	7	Sololá	701	Sololá	2	El tablón	5	Mayo	2023-05-16T00:00:00	2024-11-06T13:00:00	6	Velocidad del viento	8
154470	7	Sololá	701	Sololá	2	El tablón	5	Mayo	2023-05-16T00:00:00	2024-11-06T13:00:00	7	Dirección del viento	8.05
154471	7	Sololá	701	Sololá	2	El tablón	5	Mayo	2023-05-16T00:00:00	2024-11-06T13:00:00	1	Precipitación	0
154472	7	Sololá	701	Sololá	2	El tablón	5	Mayo	2023-05-16T00:00:00	2024-11-06T13:00:00	8	Radiación solar	940
154473	7	Sololá	701	Sololá	2	El tablón	5	Mayo	2023-05-16T00:00:00	2024-11-06T14:00:00	2	Temperatura media	17.7
154474	7	Sololá	701	Sololá	2	El tablón	5	Mayo	2023-05-16T00:00:00	2024-11-06T14:00:00	4	Temperatura máxima	18.8
154475	7	Sololá	701	Sololá	2	El tablón	5	Mayo	2023-05-16T00:00:00	2024-11-06T14:00:00	3	Temperatura mínima	17.4
154476	7	Sololá	701	Sololá	2	El tablón	5	Mayo	2023-05-16T00:00:00	2024-11-06T14:00:00	5	Humedad	82
154477	7	Sololá	701	Sololá	2	El tablón	5	Mayo	2023-05-16T00:00:00	2024-11-06T14:00:00	6	Velocidad del viento	8
154478	7	Sololá	701	Sololá	2	El tablón	5	Mayo	2023-05-16T00:00:00	2024-11-06T14:00:00	7	Dirección del viento	8.05
154479	7	Sololá	701	Sololá	2	El tablón	5	Mayo	2023-05-16T00:00:00	2024-11-06T14:00:00	1	Precipitación	0
154480	7	Sololá	701	Sololá	2	El tablón	5	Mayo	2023-05-16T00:00:00	2024-11-06T14:00:00	8	Radiación solar	473
154481	7	Sololá	701	Sololá	2	El tablón	5	Mayo	2023-05-16T00:00:00	2024-11-06T15:00:00	2	Temperatura media	16.7
154482	7	Sololá	701	Sololá	2	El tablón	5	Mayo	2023-05-16T00:00:00	2024-11-06T15:00:00	4	Temperatura máxima	17.7
154483	7	Sololá	701	Sololá	2	El tablón	5	Mayo	2023-05-16T00:00:00	2024-11-06T15:00:00	3	Temperatura mínima	16.7
154484	7	Sololá	701	Sololá	2	El tablón	5	Mayo	2023-05-16T00:00:00	2024-11-06T15:00:00	5	Humedad	87
154485	7	Sololá	701	Sololá	2	El tablón	5	Mayo	2023-05-16T00:00:00	2024-11-06T15:00:00	6	Velocidad del viento	6.4
154486	7	Sololá	701	Sololá	2	El tablón	5	Mayo	2023-05-16T00:00:00	2024-11-06T15:00:00	7	Dirección del viento	6.44
154487	7	Sololá	701	Sololá	2	El tablón	5	Mayo	2023-05-16T00:00:00	2024-11-06T15:00:00	1	Precipitación	0
154488	7	Sololá	701	Sololá	2	El tablón	5	Mayo	2023-05-16T00:00:00	2024-11-06T15:00:00	8	Radiación solar	267
154489	7	Sololá	701	Sololá	2	El tablón	5	Mayo	2023-05-16T00:00:00	2024-11-06T16:00:00	2	Temperatura media	14.9
154490	7	Sololá	701	Sololá	2	El tablón	5	Mayo	2023-05-16T00:00:00	2024-11-06T16:00:00	4	Temperatura máxima	16.7
154491	7	Sololá	701	Sololá	2	El tablón	5	Mayo	2023-05-16T00:00:00	2024-11-06T16:00:00	3	Temperatura mínima	14.9
154492	7	Sololá	701	Sololá	2	El tablón	5	Mayo	2023-05-16T00:00:00	2024-11-06T16:00:00	5	Humedad	88
154493	7	Sololá	701	Sololá	2	El tablón	5	Mayo	2023-05-16T00:00:00	2024-11-06T16:00:00	6	Velocidad del viento	6.4
154494	7	Sololá	701	Sololá	2	El tablón	5	Mayo	2023-05-16T00:00:00	2024-11-06T16:00:00	7	Dirección del viento	6.44
154495	7	Sololá	701	Sololá	2	El tablón	5	Mayo	2023-05-16T00:00:00	2024-11-06T16:00:00	1	Precipitación	0
154496	7	Sololá	701	Sololá	2	El tablón	5	Mayo	2023-05-16T00:00:00	2024-11-06T16:00:00	8	Radiación solar	72
154497	7	Sololá	701	Sololá	2	El tablón	5	Mayo	2023-05-16T00:00:00	2024-11-06T17:00:00	2	Temperatura media	14.7
154498	7	Sololá	701	Sololá	2	El tablón	5	Mayo	2023-05-16T00:00:00	2024-11-06T17:00:00	4	Temperatura máxima	14.9
154499	7	Sololá	701	Sololá	2	El tablón	5	Mayo	2023-05-16T00:00:00	2024-11-06T17:00:00	3	Temperatura mínima	14.7
154500	7	Sololá	701	Sololá	2	El tablón	5	Mayo	2023-05-16T00:00:00	2024-11-06T17:00:00	5	Humedad	88
154501	7	Sololá	701	Sololá	2	El tablón	5	Mayo	2023-05-16T00:00:00	2024-11-06T17:00:00	6	Velocidad del viento	6.4
154502	7	Sololá	701	Sololá	2	El tablón	5	Mayo	2023-05-16T00:00:00	2024-11-06T17:00:00	7	Dirección del viento	6.44
154503	7	Sololá	701	Sololá	2	El tablón	5	Mayo	2023-05-16T00:00:00	2024-11-06T17:00:00	1	Precipitación	0
154504	7	Sololá	701	Sololá	2	El tablón	5	Mayo	2023-05-16T00:00:00	2024-11-06T17:00:00	8	Radiación solar	109
154505	7	Sololá	701	Sololá	2	El tablón	5	Mayo	2023-05-16T00:00:00	2024-11-06T18:00:00	2	Temperatura media	14.3
154506	7	Sololá	701	Sololá	2	El tablón	5	Mayo	2023-05-16T00:00:00	2024-11-06T18:00:00	4	Temperatura máxima	14.7
154507	7	Sololá	701	Sololá	2	El tablón	5	Mayo	2023-05-16T00:00:00	2024-11-06T18:00:00	3	Temperatura mínima	14.2
154508	7	Sololá	701	Sololá	2	El tablón	5	Mayo	2023-05-16T00:00:00	2024-11-06T18:00:00	5	Humedad	88
154509	7	Sololá	701	Sololá	2	El tablón	5	Mayo	2023-05-16T00:00:00	2024-11-06T18:00:00	6	Velocidad del viento	3.2
154510	7	Sololá	701	Sololá	2	El tablón	5	Mayo	2023-05-16T00:00:00	2024-11-06T18:00:00	7	Dirección del viento	3.22
154511	7	Sololá	701	Sololá	2	El tablón	5	Mayo	2023-05-16T00:00:00	2024-11-06T18:00:00	1	Precipitación	0
154512	7	Sololá	701	Sololá	2	El tablón	5	Mayo	2023-05-16T00:00:00	2024-11-06T18:00:00	8	Radiación solar	29
154513	7	Sololá	701	Sololá	2	El tablón	5	Mayo	2023-05-16T00:00:00	2024-11-06T19:00:00	2	Temperatura media	13.8
154514	7	Sololá	701	Sololá	2	El tablón	5	Mayo	2023-05-16T00:00:00	2024-11-06T19:00:00	4	Temperatura máxima	14.3
154515	7	Sololá	701	Sololá	2	El tablón	5	Mayo	2023-05-16T00:00:00	2024-11-06T19:00:00	3	Temperatura mínima	13.8
154516	7	Sololá	701	Sololá	2	El tablón	5	Mayo	2023-05-16T00:00:00	2024-11-06T19:00:00	5	Humedad	88
154517	7	Sololá	701	Sololá	2	El tablón	5	Mayo	2023-05-16T00:00:00	2024-11-06T19:00:00	6	Velocidad del viento	3.2
154518	7	Sololá	701	Sololá	2	El tablón	5	Mayo	2023-05-16T00:00:00	2024-11-06T19:00:00	7	Dirección del viento	3.22
154519	7	Sololá	701	Sololá	2	El tablón	5	Mayo	2023-05-16T00:00:00	2024-11-06T19:00:00	1	Precipitación	0
154520	7	Sololá	701	Sololá	2	El tablón	5	Mayo	2023-05-16T00:00:00	2024-11-06T19:00:00	8	Radiación solar	0
154521	7	Sololá	701	Sololá	2	El tablón	5	Mayo	2023-05-16T00:00:00	2024-11-06T20:00:00	2	Temperatura media	13.4
154522	7	Sololá	701	Sololá	2	El tablón	5	Mayo	2023-05-16T00:00:00	2024-11-06T20:00:00	4	Temperatura máxima	13.8
154523	7	Sololá	701	Sololá	2	El tablón	5	Mayo	2023-05-16T00:00:00	2024-11-06T20:00:00	3	Temperatura mínima	13.2
154524	7	Sololá	701	Sololá	2	El tablón	5	Mayo	2023-05-16T00:00:00	2024-11-06T20:00:00	5	Humedad	88
154525	7	Sololá	701	Sololá	2	El tablón	5	Mayo	2023-05-16T00:00:00	2024-11-06T20:00:00	6	Velocidad del viento	1.6
154526	7	Sololá	701	Sololá	2	El tablón	5	Mayo	2023-05-16T00:00:00	2024-11-06T20:00:00	7	Dirección del viento	1.61
154527	7	Sololá	701	Sololá	2	El tablón	5	Mayo	2023-05-16T00:00:00	2024-11-06T20:00:00	1	Precipitación	0
154528	7	Sololá	701	Sololá	2	El tablón	5	Mayo	2023-05-16T00:00:00	2024-11-06T20:00:00	8	Radiación solar	0
154529	7	Sololá	701	Sololá	2	El tablón	5	Mayo	2023-05-16T00:00:00	2024-11-06T21:00:00	2	Temperatura media	13.1
154530	7	Sololá	701	Sololá	2	El tablón	5	Mayo	2023-05-16T00:00:00	2024-11-06T21:00:00	4	Temperatura máxima	13.5
154531	7	Sololá	701	Sololá	2	El tablón	5	Mayo	2023-05-16T00:00:00	2024-11-06T21:00:00	3	Temperatura mínima	13.1
154532	7	Sololá	701	Sololá	2	El tablón	5	Mayo	2023-05-16T00:00:00	2024-11-06T21:00:00	5	Humedad	88
154533	7	Sololá	701	Sololá	2	El tablón	5	Mayo	2023-05-16T00:00:00	2024-11-06T21:00:00	6	Velocidad del viento	3.2
154534	7	Sololá	701	Sololá	2	El tablón	5	Mayo	2023-05-16T00:00:00	2024-11-06T21:00:00	7	Dirección del viento	3.22
154535	7	Sololá	701	Sololá	2	El tablón	5	Mayo	2023-05-16T00:00:00	2024-11-06T21:00:00	1	Precipitación	0
154536	7	Sololá	701	Sololá	2	El tablón	5	Mayo	2023-05-16T00:00:00	2024-11-06T21:00:00	8	Radiación solar	0
154537	7	Sololá	701	Sololá	2	El tablón	5	Mayo	2023-05-16T00:00:00	2024-11-06T22:00:00	2	Temperatura media	13
154538	7	Sololá	701	Sololá	2	El tablón	5	Mayo	2023-05-16T00:00:00	2024-11-06T22:00:00	4	Temperatura máxima	13.1
154539	7	Sololá	701	Sololá	2	El tablón	5	Mayo	2023-05-16T00:00:00	2024-11-06T22:00:00	3	Temperatura mínima	12.8
154540	7	Sololá	701	Sololá	2	El tablón	5	Mayo	2023-05-16T00:00:00	2024-11-06T22:00:00	5	Humedad	89
154541	7	Sololá	701	Sololá	2	El tablón	5	Mayo	2023-05-16T00:00:00	2024-11-06T22:00:00	6	Velocidad del viento	3.2
154542	7	Sololá	701	Sololá	2	El tablón	5	Mayo	2023-05-16T00:00:00	2024-11-06T22:00:00	7	Dirección del viento	3.22
154543	7	Sololá	701	Sololá	2	El tablón	5	Mayo	2023-05-16T00:00:00	2024-11-06T22:00:00	1	Precipitación	0
154544	7	Sololá	701	Sololá	2	El tablón	5	Mayo	2023-05-16T00:00:00	2024-11-06T22:00:00	8	Radiación solar	0
154545	7	Sololá	701	Sololá	2	El tablón	5	Mayo	2023-05-16T00:00:00	2024-11-06T23:00:00	2	Temperatura media	13.4
154546	7	Sololá	701	Sololá	2	El tablón	5	Mayo	2023-05-16T00:00:00	2024-11-06T23:00:00	4	Temperatura máxima	13.4
154547	7	Sololá	701	Sololá	2	El tablón	5	Mayo	2023-05-16T00:00:00	2024-11-06T23:00:00	3	Temperatura mínima	12.8
154548	7	Sololá	701	Sololá	2	El tablón	5	Mayo	2023-05-16T00:00:00	2024-11-06T23:00:00	5	Humedad	89
154549	7	Sololá	701	Sololá	2	El tablón	5	Mayo	2023-05-16T00:00:00	2024-11-06T23:00:00	6	Velocidad del viento	3.2
154550	7	Sololá	701	Sololá	2	El tablón	5	Mayo	2023-05-16T00:00:00	2024-11-06T23:00:00	7	Dirección del viento	3.22
154551	7	Sololá	701	Sololá	2	El tablón	5	Mayo	2023-05-16T00:00:00	2024-11-06T23:00:00	1	Precipitación	0
154552	7	Sololá	701	Sololá	2	El tablón	5	Mayo	2023-05-16T00:00:00	2024-11-06T23:00:00	8	Radiación solar	0
154553	7	Sololá	701	Sololá	2	El tablón	5	Mayo	2023-05-17T00:00:00	2024-11-06T00:00:00	2	Temperatura media	13
154554	7	Sololá	701	Sololá	2	El tablón	5	Mayo	2023-05-17T00:00:00	2024-11-06T00:00:00	4	Temperatura máxima	13.4
154555	7	Sololá	701	Sololá	2	El tablón	5	Mayo	2023-05-17T00:00:00	2024-11-06T00:00:00	3	Temperatura mínima	13
154556	7	Sololá	701	Sololá	2	El tablón	5	Mayo	2023-05-17T00:00:00	2024-11-06T00:00:00	5	Humedad	88
154557	7	Sololá	701	Sololá	2	El tablón	5	Mayo	2023-05-17T00:00:00	2024-11-06T00:00:00	6	Velocidad del viento	6.4
154558	7	Sololá	701	Sololá	2	El tablón	5	Mayo	2023-05-17T00:00:00	2024-11-06T00:00:00	7	Dirección del viento	6.44
154559	7	Sololá	701	Sololá	2	El tablón	5	Mayo	2023-05-17T00:00:00	2024-11-06T00:00:00	1	Precipitación	0
154560	7	Sololá	701	Sololá	2	El tablón	5	Mayo	2023-05-17T00:00:00	2024-11-06T00:00:00	8	Radiación solar	0
154561	7	Sololá	701	Sololá	2	El tablón	5	Mayo	2023-05-17T00:00:00	2024-11-06T01:00:00	2	Temperatura media	12.7
154562	7	Sololá	701	Sololá	2	El tablón	5	Mayo	2023-05-17T00:00:00	2024-11-06T01:00:00	4	Temperatura máxima	13
154563	7	Sololá	701	Sololá	2	El tablón	5	Mayo	2023-05-17T00:00:00	2024-11-06T01:00:00	3	Temperatura mínima	12.4
154564	7	Sololá	701	Sololá	2	El tablón	5	Mayo	2023-05-17T00:00:00	2024-11-06T01:00:00	5	Humedad	88
154565	7	Sololá	701	Sololá	2	El tablón	5	Mayo	2023-05-17T00:00:00	2024-11-06T01:00:00	6	Velocidad del viento	3.2
154566	7	Sololá	701	Sololá	2	El tablón	5	Mayo	2023-05-17T00:00:00	2024-11-06T01:00:00	7	Dirección del viento	3.22
154567	7	Sololá	701	Sololá	2	El tablón	5	Mayo	2023-05-17T00:00:00	2024-11-06T01:00:00	1	Precipitación	0
154568	7	Sololá	701	Sololá	2	El tablón	5	Mayo	2023-05-17T00:00:00	2024-11-06T01:00:00	8	Radiación solar	0
154569	7	Sololá	701	Sololá	2	El tablón	5	Mayo	2023-05-17T00:00:00	2024-11-06T02:00:00	2	Temperatura media	11.5
154570	7	Sololá	701	Sololá	2	El tablón	5	Mayo	2023-05-17T00:00:00	2024-11-06T02:00:00	4	Temperatura máxima	12.7
154571	7	Sololá	701	Sololá	2	El tablón	5	Mayo	2023-05-17T00:00:00	2024-11-06T02:00:00	3	Temperatura mínima	11.5
154572	7	Sololá	701	Sololá	2	El tablón	5	Mayo	2023-05-17T00:00:00	2024-11-06T02:00:00	5	Humedad	89
154573	7	Sololá	701	Sololá	2	El tablón	5	Mayo	2023-05-17T00:00:00	2024-11-06T02:00:00	6	Velocidad del viento	3.2
154574	7	Sololá	701	Sololá	2	El tablón	5	Mayo	2023-05-17T00:00:00	2024-11-06T02:00:00	7	Dirección del viento	3.22
154575	7	Sololá	701	Sololá	2	El tablón	5	Mayo	2023-05-17T00:00:00	2024-11-06T02:00:00	1	Precipitación	0
154576	7	Sololá	701	Sololá	2	El tablón	5	Mayo	2023-05-17T00:00:00	2024-11-06T02:00:00	8	Radiación solar	0
154577	7	Sololá	701	Sololá	2	El tablón	5	Mayo	2023-05-17T00:00:00	2024-11-06T03:00:00	2	Temperatura media	11.6
154578	7	Sololá	701	Sololá	2	El tablón	5	Mayo	2023-05-17T00:00:00	2024-11-06T03:00:00	4	Temperatura máxima	11.8
154579	7	Sololá	701	Sololá	2	El tablón	5	Mayo	2023-05-17T00:00:00	2024-11-06T03:00:00	3	Temperatura mínima	11.4
154580	7	Sololá	701	Sololá	2	El tablón	5	Mayo	2023-05-17T00:00:00	2024-11-06T03:00:00	5	Humedad	89
154581	7	Sololá	701	Sololá	2	El tablón	5	Mayo	2023-05-17T00:00:00	2024-11-06T03:00:00	6	Velocidad del viento	3.2
154582	7	Sololá	701	Sololá	2	El tablón	5	Mayo	2023-05-17T00:00:00	2024-11-06T03:00:00	7	Dirección del viento	3.22
154583	7	Sololá	701	Sololá	2	El tablón	5	Mayo	2023-05-17T00:00:00	2024-11-06T03:00:00	1	Precipitación	0
154584	7	Sololá	701	Sololá	2	El tablón	5	Mayo	2023-05-17T00:00:00	2024-11-06T03:00:00	8	Radiación solar	0
154585	7	Sololá	701	Sololá	2	El tablón	5	Mayo	2023-05-17T00:00:00	2024-11-06T04:00:00	2	Temperatura media	10.8
154586	7	Sololá	701	Sololá	2	El tablón	5	Mayo	2023-05-17T00:00:00	2024-11-06T04:00:00	4	Temperatura máxima	11.6
154587	7	Sololá	701	Sololá	2	El tablón	5	Mayo	2023-05-17T00:00:00	2024-11-06T04:00:00	3	Temperatura mínima	10.8
154588	7	Sololá	701	Sololá	2	El tablón	5	Mayo	2023-05-17T00:00:00	2024-11-06T04:00:00	5	Humedad	89
154589	7	Sololá	701	Sololá	2	El tablón	5	Mayo	2023-05-17T00:00:00	2024-11-06T04:00:00	6	Velocidad del viento	4.8
154590	7	Sololá	701	Sololá	2	El tablón	5	Mayo	2023-05-17T00:00:00	2024-11-06T04:00:00	7	Dirección del viento	4.83
154591	7	Sololá	701	Sololá	2	El tablón	5	Mayo	2023-05-17T00:00:00	2024-11-06T04:00:00	1	Precipitación	0
154592	7	Sololá	701	Sololá	2	El tablón	5	Mayo	2023-05-17T00:00:00	2024-11-06T04:00:00	8	Radiación solar	0
154593	7	Sololá	701	Sololá	2	El tablón	5	Mayo	2023-05-17T00:00:00	2024-11-06T05:00:00	2	Temperatura media	11.1
154594	7	Sololá	701	Sololá	2	El tablón	5	Mayo	2023-05-17T00:00:00	2024-11-06T05:00:00	4	Temperatura máxima	11.1
154595	7	Sololá	701	Sololá	2	El tablón	5	Mayo	2023-05-17T00:00:00	2024-11-06T05:00:00	3	Temperatura mínima	10.8
154596	7	Sololá	701	Sololá	2	El tablón	5	Mayo	2023-05-17T00:00:00	2024-11-06T05:00:00	5	Humedad	88
154597	7	Sololá	701	Sololá	2	El tablón	5	Mayo	2023-05-17T00:00:00	2024-11-06T05:00:00	6	Velocidad del viento	3.2
154598	7	Sololá	701	Sololá	2	El tablón	5	Mayo	2023-05-17T00:00:00	2024-11-06T05:00:00	7	Dirección del viento	3.22
154599	7	Sololá	701	Sololá	2	El tablón	5	Mayo	2023-05-17T00:00:00	2024-11-06T05:00:00	1	Precipitación	0
154600	7	Sololá	701	Sololá	2	El tablón	5	Mayo	2023-05-17T00:00:00	2024-11-06T05:00:00	8	Radiación solar	0
154601	7	Sololá	701	Sololá	2	El tablón	5	Mayo	2023-05-17T00:00:00	2024-11-06T06:00:00	2	Temperatura media	10.2
154602	7	Sololá	701	Sololá	2	El tablón	5	Mayo	2023-05-17T00:00:00	2024-11-06T06:00:00	4	Temperatura máxima	11.1
154603	7	Sololá	701	Sololá	2	El tablón	5	Mayo	2023-05-17T00:00:00	2024-11-06T06:00:00	3	Temperatura mínima	10.2
154604	7	Sololá	701	Sololá	2	El tablón	5	Mayo	2023-05-17T00:00:00	2024-11-06T06:00:00	5	Humedad	89
154605	7	Sololá	701	Sololá	2	El tablón	5	Mayo	2023-05-17T00:00:00	2024-11-06T06:00:00	6	Velocidad del viento	1.6
154606	7	Sololá	701	Sololá	2	El tablón	5	Mayo	2023-05-17T00:00:00	2024-11-06T06:00:00	7	Dirección del viento	1.61
154607	7	Sololá	701	Sololá	2	El tablón	5	Mayo	2023-05-17T00:00:00	2024-11-06T06:00:00	1	Precipitación	0
154608	7	Sololá	701	Sololá	2	El tablón	5	Mayo	2023-05-17T00:00:00	2024-11-06T06:00:00	8	Radiación solar	4
154609	7	Sololá	701	Sololá	2	El tablón	5	Mayo	2023-05-17T00:00:00	2024-11-06T07:00:00	2	Temperatura media	12.6
154610	7	Sololá	701	Sololá	2	El tablón	5	Mayo	2023-05-17T00:00:00	2024-11-06T07:00:00	4	Temperatura máxima	12.6
154611	7	Sololá	701	Sololá	2	El tablón	5	Mayo	2023-05-17T00:00:00	2024-11-06T07:00:00	3	Temperatura mínima	10.2
154612	7	Sololá	701	Sololá	2	El tablón	5	Mayo	2023-05-17T00:00:00	2024-11-06T07:00:00	5	Humedad	86
154613	7	Sololá	701	Sololá	2	El tablón	5	Mayo	2023-05-17T00:00:00	2024-11-06T07:00:00	6	Velocidad del viento	3.2
154614	7	Sololá	701	Sololá	2	El tablón	5	Mayo	2023-05-17T00:00:00	2024-11-06T07:00:00	7	Dirección del viento	3.22
154615	7	Sololá	701	Sololá	2	El tablón	5	Mayo	2023-05-17T00:00:00	2024-11-06T07:00:00	1	Precipitación	0
154616	7	Sololá	701	Sololá	2	El tablón	5	Mayo	2023-05-17T00:00:00	2024-11-06T07:00:00	8	Radiación solar	120
154617	7	Sololá	701	Sololá	2	El tablón	5	Mayo	2023-05-17T00:00:00	2024-11-06T08:00:00	2	Temperatura media	16.7
154618	7	Sololá	701	Sololá	2	El tablón	5	Mayo	2023-05-17T00:00:00	2024-11-06T08:00:00	4	Temperatura máxima	16.7
154619	7	Sololá	701	Sololá	2	El tablón	5	Mayo	2023-05-17T00:00:00	2024-11-06T08:00:00	3	Temperatura mínima	12.6
154620	7	Sololá	701	Sololá	2	El tablón	5	Mayo	2023-05-17T00:00:00	2024-11-06T08:00:00	5	Humedad	73
154621	7	Sololá	701	Sololá	2	El tablón	5	Mayo	2023-05-17T00:00:00	2024-11-06T08:00:00	6	Velocidad del viento	1.6
154622	7	Sololá	701	Sololá	2	El tablón	5	Mayo	2023-05-17T00:00:00	2024-11-06T08:00:00	7	Dirección del viento	1.61
154623	7	Sololá	701	Sololá	2	El tablón	5	Mayo	2023-05-17T00:00:00	2024-11-06T08:00:00	1	Precipitación	0
154624	7	Sololá	701	Sololá	2	El tablón	5	Mayo	2023-05-17T00:00:00	2024-11-06T08:00:00	8	Radiación solar	344
154625	7	Sololá	701	Sololá	2	El tablón	5	Mayo	2023-05-17T00:00:00	2024-11-06T09:00:00	2	Temperatura media	17.9
154626	7	Sololá	701	Sololá	2	El tablón	5	Mayo	2023-05-17T00:00:00	2024-11-06T09:00:00	4	Temperatura máxima	18.1
154627	7	Sololá	701	Sololá	2	El tablón	5	Mayo	2023-05-17T00:00:00	2024-11-06T09:00:00	3	Temperatura mínima	16.7
154628	7	Sololá	701	Sololá	2	El tablón	5	Mayo	2023-05-17T00:00:00	2024-11-06T09:00:00	5	Humedad	73
154629	7	Sololá	701	Sololá	2	El tablón	5	Mayo	2023-05-17T00:00:00	2024-11-06T09:00:00	6	Velocidad del viento	3.2
154630	7	Sololá	701	Sololá	2	El tablón	5	Mayo	2023-05-17T00:00:00	2024-11-06T09:00:00	7	Dirección del viento	3.22
154631	7	Sololá	701	Sololá	2	El tablón	5	Mayo	2023-05-17T00:00:00	2024-11-06T09:00:00	1	Precipitación	0
154632	7	Sololá	701	Sololá	2	El tablón	5	Mayo	2023-05-17T00:00:00	2024-11-06T09:00:00	8	Radiación solar	565
154633	7	Sololá	701	Sololá	2	El tablón	5	Mayo	2023-05-17T00:00:00	2024-11-06T10:00:00	2	Temperatura media	19.1
154634	7	Sololá	701	Sololá	2	El tablón	5	Mayo	2023-05-17T00:00:00	2024-11-06T10:00:00	4	Temperatura máxima	19.1
154635	7	Sololá	701	Sololá	2	El tablón	5	Mayo	2023-05-17T00:00:00	2024-11-06T10:00:00	3	Temperatura mínima	17.7
154636	7	Sololá	701	Sololá	2	El tablón	5	Mayo	2023-05-17T00:00:00	2024-11-06T10:00:00	5	Humedad	70
154637	7	Sololá	701	Sololá	2	El tablón	5	Mayo	2023-05-17T00:00:00	2024-11-06T10:00:00	6	Velocidad del viento	4.8
154638	7	Sololá	701	Sololá	2	El tablón	5	Mayo	2023-05-17T00:00:00	2024-11-06T10:00:00	7	Dirección del viento	4.83
154639	7	Sololá	701	Sololá	2	El tablón	5	Mayo	2023-05-17T00:00:00	2024-11-06T10:00:00	1	Precipitación	0
154640	7	Sololá	701	Sololá	2	El tablón	5	Mayo	2023-05-17T00:00:00	2024-11-06T10:00:00	8	Radiación solar	739
154641	7	Sololá	701	Sololá	2	El tablón	5	Mayo	2023-05-17T00:00:00	2024-11-06T11:00:00	2	Temperatura media	18.8
154642	7	Sololá	701	Sololá	2	El tablón	5	Mayo	2023-05-17T00:00:00	2024-11-06T11:00:00	4	Temperatura máxima	19.1
154643	7	Sololá	701	Sololá	2	El tablón	5	Mayo	2023-05-17T00:00:00	2024-11-06T11:00:00	3	Temperatura mínima	18.6
154644	7	Sololá	701	Sololá	2	El tablón	5	Mayo	2023-05-17T00:00:00	2024-11-06T11:00:00	5	Humedad	62
154645	7	Sololá	701	Sololá	2	El tablón	5	Mayo	2023-05-17T00:00:00	2024-11-06T11:00:00	6	Velocidad del viento	8
154646	7	Sololá	701	Sololá	2	El tablón	5	Mayo	2023-05-17T00:00:00	2024-11-06T11:00:00	7	Dirección del viento	8.05
154647	7	Sololá	701	Sololá	2	El tablón	5	Mayo	2023-05-17T00:00:00	2024-11-06T11:00:00	1	Precipitación	0
154648	7	Sololá	701	Sololá	2	El tablón	5	Mayo	2023-05-17T00:00:00	2024-11-06T11:00:00	8	Radiación solar	870
154649	7	Sololá	701	Sololá	2	El tablón	5	Mayo	2023-05-17T00:00:00	2024-11-06T12:00:00	2	Temperatura media	19.3
154650	7	Sololá	701	Sololá	2	El tablón	5	Mayo	2023-05-17T00:00:00	2024-11-06T12:00:00	4	Temperatura máxima	19.5
154651	7	Sololá	701	Sololá	2	El tablón	5	Mayo	2023-05-17T00:00:00	2024-11-06T12:00:00	3	Temperatura mínima	18.8
154652	7	Sololá	701	Sololá	2	El tablón	5	Mayo	2023-05-17T00:00:00	2024-11-06T12:00:00	5	Humedad	66
154653	7	Sololá	701	Sololá	2	El tablón	5	Mayo	2023-05-17T00:00:00	2024-11-06T12:00:00	6	Velocidad del viento	8
154654	7	Sololá	701	Sololá	2	El tablón	5	Mayo	2023-05-17T00:00:00	2024-11-06T12:00:00	7	Dirección del viento	8.05
154655	7	Sololá	701	Sololá	2	El tablón	5	Mayo	2023-05-17T00:00:00	2024-11-06T12:00:00	1	Precipitación	0
154656	7	Sololá	701	Sololá	2	El tablón	5	Mayo	2023-05-17T00:00:00	2024-11-06T12:00:00	8	Radiación solar	937
154657	7	Sololá	701	Sololá	2	El tablón	5	Mayo	2023-05-17T00:00:00	2024-11-06T13:00:00	2	Temperatura media	19.8
154658	7	Sololá	701	Sololá	2	El tablón	5	Mayo	2023-05-17T00:00:00	2024-11-06T13:00:00	4	Temperatura máxima	19.9
154659	7	Sololá	701	Sololá	2	El tablón	5	Mayo	2023-05-17T00:00:00	2024-11-06T13:00:00	3	Temperatura mínima	18.8
154660	7	Sololá	701	Sololá	2	El tablón	5	Mayo	2023-05-17T00:00:00	2024-11-06T13:00:00	5	Humedad	71
154661	7	Sololá	701	Sololá	2	El tablón	5	Mayo	2023-05-17T00:00:00	2024-11-06T13:00:00	6	Velocidad del viento	8
154662	7	Sololá	701	Sololá	2	El tablón	5	Mayo	2023-05-17T00:00:00	2024-11-06T13:00:00	7	Dirección del viento	8.05
154663	7	Sololá	701	Sololá	2	El tablón	5	Mayo	2023-05-17T00:00:00	2024-11-06T13:00:00	1	Precipitación	0
154664	7	Sololá	701	Sololá	2	El tablón	5	Mayo	2023-05-17T00:00:00	2024-11-06T13:00:00	8	Radiación solar	952
154665	7	Sololá	701	Sololá	2	El tablón	5	Mayo	2023-05-17T00:00:00	2024-11-06T14:00:00	2	Temperatura media	17.8
154666	7	Sololá	701	Sololá	2	El tablón	5	Mayo	2023-05-17T00:00:00	2024-11-06T14:00:00	4	Temperatura máxima	19.8
154667	7	Sololá	701	Sololá	2	El tablón	5	Mayo	2023-05-17T00:00:00	2024-11-06T14:00:00	3	Temperatura mínima	17.8
154668	7	Sololá	701	Sololá	2	El tablón	5	Mayo	2023-05-17T00:00:00	2024-11-06T14:00:00	5	Humedad	85
154669	7	Sololá	701	Sololá	2	El tablón	5	Mayo	2023-05-17T00:00:00	2024-11-06T14:00:00	6	Velocidad del viento	9.7
154670	7	Sololá	701	Sololá	2	El tablón	5	Mayo	2023-05-17T00:00:00	2024-11-06T14:00:00	7	Dirección del viento	9.66
154671	7	Sololá	701	Sololá	2	El tablón	5	Mayo	2023-05-17T00:00:00	2024-11-06T14:00:00	1	Precipitación	0
154672	7	Sololá	701	Sololá	2	El tablón	5	Mayo	2023-05-17T00:00:00	2024-11-06T14:00:00	8	Radiación solar	841
154673	7	Sololá	701	Sololá	2	El tablón	5	Mayo	2023-05-17T00:00:00	2024-11-06T15:00:00	2	Temperatura media	16.6
154674	7	Sololá	701	Sololá	2	El tablón	5	Mayo	2023-05-17T00:00:00	2024-11-06T15:00:00	4	Temperatura máxima	17.8
154675	7	Sololá	701	Sololá	2	El tablón	5	Mayo	2023-05-17T00:00:00	2024-11-06T15:00:00	3	Temperatura mínima	16.6
154676	7	Sololá	701	Sololá	2	El tablón	5	Mayo	2023-05-17T00:00:00	2024-11-06T15:00:00	5	Humedad	87
154677	7	Sololá	701	Sololá	2	El tablón	5	Mayo	2023-05-17T00:00:00	2024-11-06T15:00:00	6	Velocidad del viento	8
154678	7	Sololá	701	Sololá	2	El tablón	5	Mayo	2023-05-17T00:00:00	2024-11-06T15:00:00	7	Dirección del viento	8.05
154679	7	Sololá	701	Sololá	2	El tablón	5	Mayo	2023-05-17T00:00:00	2024-11-06T15:00:00	1	Precipitación	0
154680	7	Sololá	701	Sololá	2	El tablón	5	Mayo	2023-05-17T00:00:00	2024-11-06T15:00:00	8	Radiación solar	216
154681	7	Sololá	701	Sololá	2	El tablón	5	Mayo	2023-05-17T00:00:00	2024-11-06T16:00:00	2	Temperatura media	16.2
154682	7	Sololá	701	Sololá	2	El tablón	5	Mayo	2023-05-17T00:00:00	2024-11-06T16:00:00	4	Temperatura máxima	16.8
154683	7	Sololá	701	Sololá	2	El tablón	5	Mayo	2023-05-17T00:00:00	2024-11-06T16:00:00	3	Temperatura mínima	16.1
154684	7	Sololá	701	Sololá	2	El tablón	5	Mayo	2023-05-17T00:00:00	2024-11-06T16:00:00	5	Humedad	88
154685	7	Sololá	701	Sololá	2	El tablón	5	Mayo	2023-05-17T00:00:00	2024-11-06T16:00:00	6	Velocidad del viento	6.4
154686	7	Sololá	701	Sololá	2	El tablón	5	Mayo	2023-05-17T00:00:00	2024-11-06T16:00:00	7	Dirección del viento	6.44
154687	7	Sololá	701	Sololá	2	El tablón	5	Mayo	2023-05-17T00:00:00	2024-11-06T16:00:00	1	Precipitación	0
154688	7	Sololá	701	Sololá	2	El tablón	5	Mayo	2023-05-17T00:00:00	2024-11-06T16:00:00	8	Radiación solar	145
154689	7	Sololá	701	Sololá	2	El tablón	5	Mayo	2023-05-17T00:00:00	2024-11-06T17:00:00	2	Temperatura media	15.3
154690	7	Sololá	701	Sololá	2	El tablón	5	Mayo	2023-05-17T00:00:00	2024-11-06T17:00:00	4	Temperatura máxima	16.2
154691	7	Sololá	701	Sololá	2	El tablón	5	Mayo	2023-05-17T00:00:00	2024-11-06T17:00:00	3	Temperatura mínima	15.3
154692	7	Sololá	701	Sololá	2	El tablón	5	Mayo	2023-05-17T00:00:00	2024-11-06T17:00:00	5	Humedad	88
154693	7	Sololá	701	Sololá	2	El tablón	5	Mayo	2023-05-17T00:00:00	2024-11-06T17:00:00	6	Velocidad del viento	4.8
154694	7	Sololá	701	Sololá	2	El tablón	5	Mayo	2023-05-17T00:00:00	2024-11-06T17:00:00	7	Dirección del viento	4.83
154695	7	Sololá	701	Sololá	2	El tablón	5	Mayo	2023-05-17T00:00:00	2024-11-06T17:00:00	1	Precipitación	0
154696	7	Sololá	701	Sololá	2	El tablón	5	Mayo	2023-05-17T00:00:00	2024-11-06T17:00:00	8	Radiación solar	21
154697	7	Sololá	701	Sololá	2	El tablón	5	Mayo	2023-05-17T00:00:00	2024-11-06T18:00:00	2	Temperatura media	14.3
154698	7	Sololá	701	Sololá	2	El tablón	5	Mayo	2023-05-17T00:00:00	2024-11-06T18:00:00	4	Temperatura máxima	15.3
154699	7	Sololá	701	Sololá	2	El tablón	5	Mayo	2023-05-17T00:00:00	2024-11-06T18:00:00	3	Temperatura mínima	14.3
154700	7	Sololá	701	Sololá	2	El tablón	5	Mayo	2023-05-17T00:00:00	2024-11-06T18:00:00	5	Humedad	88
154701	7	Sololá	701	Sololá	2	El tablón	5	Mayo	2023-05-17T00:00:00	2024-11-06T18:00:00	6	Velocidad del viento	4.8
154702	7	Sololá	701	Sololá	2	El tablón	5	Mayo	2023-05-17T00:00:00	2024-11-06T18:00:00	7	Dirección del viento	4.83
154703	7	Sololá	701	Sololá	2	El tablón	5	Mayo	2023-05-17T00:00:00	2024-11-06T18:00:00	1	Precipitación	5
154704	7	Sololá	701	Sololá	2	El tablón	5	Mayo	2023-05-17T00:00:00	2024-11-06T18:00:00	8	Radiación solar	20
154705	7	Sololá	701	Sololá	2	El tablón	5	Mayo	2023-05-17T00:00:00	2024-11-06T19:00:00	2	Temperatura media	14.3
154706	7	Sololá	701	Sololá	2	El tablón	5	Mayo	2023-05-17T00:00:00	2024-11-06T19:00:00	4	Temperatura máxima	14.4
154707	7	Sololá	701	Sololá	2	El tablón	5	Mayo	2023-05-17T00:00:00	2024-11-06T19:00:00	3	Temperatura mínima	13.9
154708	7	Sololá	701	Sololá	2	El tablón	5	Mayo	2023-05-17T00:00:00	2024-11-06T19:00:00	5	Humedad	88
154709	7	Sololá	701	Sololá	2	El tablón	5	Mayo	2023-05-17T00:00:00	2024-11-06T19:00:00	6	Velocidad del viento	1.6
154710	7	Sololá	701	Sololá	2	El tablón	5	Mayo	2023-05-17T00:00:00	2024-11-06T19:00:00	7	Dirección del viento	1.61
154711	7	Sololá	701	Sololá	2	El tablón	5	Mayo	2023-05-17T00:00:00	2024-11-06T19:00:00	1	Precipitación	1.2
154712	7	Sololá	701	Sololá	2	El tablón	5	Mayo	2023-05-17T00:00:00	2024-11-06T19:00:00	8	Radiación solar	0
154713	7	Sololá	701	Sololá	2	El tablón	5	Mayo	2023-05-17T00:00:00	2024-11-06T20:00:00	2	Temperatura media	14.2
154714	7	Sololá	701	Sololá	2	El tablón	5	Mayo	2023-05-17T00:00:00	2024-11-06T20:00:00	4	Temperatura máxima	14.5
154715	7	Sololá	701	Sololá	2	El tablón	5	Mayo	2023-05-17T00:00:00	2024-11-06T20:00:00	3	Temperatura mínima	14.1
154716	7	Sololá	701	Sololá	2	El tablón	5	Mayo	2023-05-17T00:00:00	2024-11-06T20:00:00	5	Humedad	88
154717	7	Sololá	701	Sololá	2	El tablón	5	Mayo	2023-05-17T00:00:00	2024-11-06T20:00:00	6	Velocidad del viento	1.6
154718	7	Sololá	701	Sololá	2	El tablón	5	Mayo	2023-05-17T00:00:00	2024-11-06T20:00:00	7	Dirección del viento	1.61
154719	7	Sololá	701	Sololá	2	El tablón	5	Mayo	2023-05-17T00:00:00	2024-11-06T20:00:00	1	Precipitación	0.4
154720	7	Sololá	701	Sololá	2	El tablón	5	Mayo	2023-05-17T00:00:00	2024-11-06T20:00:00	8	Radiación solar	0
154721	7	Sololá	701	Sololá	2	El tablón	5	Mayo	2023-05-17T00:00:00	2024-11-06T21:00:00	2	Temperatura media	14.2
154722	7	Sololá	701	Sololá	2	El tablón	5	Mayo	2023-05-17T00:00:00	2024-11-06T21:00:00	4	Temperatura máxima	14.2
154723	7	Sololá	701	Sololá	2	El tablón	5	Mayo	2023-05-17T00:00:00	2024-11-06T21:00:00	3	Temperatura mínima	13.9
154724	7	Sololá	701	Sololá	2	El tablón	5	Mayo	2023-05-17T00:00:00	2024-11-06T21:00:00	5	Humedad	89
154725	7	Sololá	701	Sololá	2	El tablón	5	Mayo	2023-05-17T00:00:00	2024-11-06T21:00:00	6	Velocidad del viento	3.2
154726	7	Sololá	701	Sololá	2	El tablón	5	Mayo	2023-05-17T00:00:00	2024-11-06T21:00:00	7	Dirección del viento	3.22
154727	7	Sololá	701	Sololá	2	El tablón	5	Mayo	2023-05-17T00:00:00	2024-11-06T21:00:00	1	Precipitación	0
154728	7	Sololá	701	Sololá	2	El tablón	5	Mayo	2023-05-17T00:00:00	2024-11-06T21:00:00	8	Radiación solar	0
154729	7	Sololá	701	Sololá	2	El tablón	5	Mayo	2023-05-17T00:00:00	2024-11-06T22:00:00	2	Temperatura media	14.2
154730	7	Sololá	701	Sololá	2	El tablón	5	Mayo	2023-05-17T00:00:00	2024-11-06T22:00:00	4	Temperatura máxima	14.3
154731	7	Sololá	701	Sololá	2	El tablón	5	Mayo	2023-05-17T00:00:00	2024-11-06T22:00:00	3	Temperatura mínima	14.1
154732	7	Sololá	701	Sololá	2	El tablón	5	Mayo	2023-05-17T00:00:00	2024-11-06T22:00:00	5	Humedad	89
154733	7	Sololá	701	Sololá	2	El tablón	5	Mayo	2023-05-17T00:00:00	2024-11-06T22:00:00	6	Velocidad del viento	3.2
154734	7	Sololá	701	Sololá	2	El tablón	5	Mayo	2023-05-17T00:00:00	2024-11-06T22:00:00	7	Dirección del viento	3.22
154735	7	Sololá	701	Sololá	2	El tablón	5	Mayo	2023-05-17T00:00:00	2024-11-06T22:00:00	1	Precipitación	0
154736	7	Sololá	701	Sololá	2	El tablón	5	Mayo	2023-05-17T00:00:00	2024-11-06T22:00:00	8	Radiación solar	0
154737	7	Sololá	701	Sololá	2	El tablón	5	Mayo	2023-05-17T00:00:00	2024-11-06T23:00:00	2	Temperatura media	14.1
154738	7	Sololá	701	Sololá	2	El tablón	5	Mayo	2023-05-17T00:00:00	2024-11-06T23:00:00	4	Temperatura máxima	14.3
154739	7	Sololá	701	Sololá	2	El tablón	5	Mayo	2023-05-17T00:00:00	2024-11-06T23:00:00	3	Temperatura mínima	14.1
154740	7	Sololá	701	Sololá	2	El tablón	5	Mayo	2023-05-17T00:00:00	2024-11-06T23:00:00	5	Humedad	89
154741	7	Sololá	701	Sololá	2	El tablón	5	Mayo	2023-05-17T00:00:00	2024-11-06T23:00:00	6	Velocidad del viento	3.2
154742	7	Sololá	701	Sololá	2	El tablón	5	Mayo	2023-05-17T00:00:00	2024-11-06T23:00:00	7	Dirección del viento	3.22
154743	7	Sololá	701	Sololá	2	El tablón	5	Mayo	2023-05-17T00:00:00	2024-11-06T23:00:00	1	Precipitación	0
154744	7	Sololá	701	Sololá	2	El tablón	5	Mayo	2023-05-17T00:00:00	2024-11-06T23:00:00	8	Radiación solar	0
154745	7	Sololá	701	Sololá	2	El tablón	5	Mayo	2023-05-18T00:00:00	2024-11-06T00:00:00	2	Temperatura media	13.7
154746	7	Sololá	701	Sololá	2	El tablón	5	Mayo	2023-05-18T00:00:00	2024-11-06T00:00:00	4	Temperatura máxima	14.1
154747	7	Sololá	701	Sololá	2	El tablón	5	Mayo	2023-05-18T00:00:00	2024-11-06T00:00:00	3	Temperatura mínima	13.6
154748	7	Sololá	701	Sololá	2	El tablón	5	Mayo	2023-05-18T00:00:00	2024-11-06T00:00:00	5	Humedad	89
154749	7	Sololá	701	Sololá	2	El tablón	5	Mayo	2023-05-18T00:00:00	2024-11-06T00:00:00	6	Velocidad del viento	4.8
154750	7	Sololá	701	Sololá	2	El tablón	5	Mayo	2023-05-18T00:00:00	2024-11-06T00:00:00	7	Dirección del viento	4.83
154751	7	Sololá	701	Sololá	2	El tablón	5	Mayo	2023-05-18T00:00:00	2024-11-06T00:00:00	1	Precipitación	0
154752	7	Sololá	701	Sololá	2	El tablón	5	Mayo	2023-05-18T00:00:00	2024-11-06T00:00:00	8	Radiación solar	0
154753	7	Sololá	701	Sololá	2	El tablón	5	Mayo	2023-05-18T00:00:00	2024-11-06T01:00:00	2	Temperatura media	13.7
154754	7	Sololá	701	Sololá	2	El tablón	5	Mayo	2023-05-18T00:00:00	2024-11-06T01:00:00	4	Temperatura máxima	13.8
154755	7	Sololá	701	Sololá	2	El tablón	5	Mayo	2023-05-18T00:00:00	2024-11-06T01:00:00	3	Temperatura mínima	13.7
154756	7	Sololá	701	Sololá	2	El tablón	5	Mayo	2023-05-18T00:00:00	2024-11-06T01:00:00	5	Humedad	89
154757	7	Sololá	701	Sololá	2	El tablón	5	Mayo	2023-05-18T00:00:00	2024-11-06T01:00:00	6	Velocidad del viento	3.2
154758	7	Sololá	701	Sololá	2	El tablón	5	Mayo	2023-05-18T00:00:00	2024-11-06T01:00:00	7	Dirección del viento	3.22
154759	7	Sololá	701	Sololá	2	El tablón	5	Mayo	2023-05-18T00:00:00	2024-11-06T01:00:00	1	Precipitación	0
154760	7	Sololá	701	Sololá	2	El tablón	5	Mayo	2023-05-18T00:00:00	2024-11-06T01:00:00	8	Radiación solar	0
154761	7	Sololá	701	Sololá	2	El tablón	5	Mayo	2023-05-18T00:00:00	2024-11-06T02:00:00	2	Temperatura media	13.4
154762	7	Sololá	701	Sololá	2	El tablón	5	Mayo	2023-05-18T00:00:00	2024-11-06T02:00:00	4	Temperatura máxima	13.7
154763	7	Sololá	701	Sololá	2	El tablón	5	Mayo	2023-05-18T00:00:00	2024-11-06T02:00:00	3	Temperatura mínima	13.4
154764	7	Sololá	701	Sololá	2	El tablón	5	Mayo	2023-05-18T00:00:00	2024-11-06T02:00:00	5	Humedad	89
154765	7	Sololá	701	Sololá	2	El tablón	5	Mayo	2023-05-18T00:00:00	2024-11-06T02:00:00	6	Velocidad del viento	4.8
154766	7	Sololá	701	Sololá	2	El tablón	5	Mayo	2023-05-18T00:00:00	2024-11-06T02:00:00	7	Dirección del viento	4.83
154767	7	Sololá	701	Sololá	2	El tablón	5	Mayo	2023-05-18T00:00:00	2024-11-06T02:00:00	1	Precipitación	0
154768	7	Sololá	701	Sololá	2	El tablón	5	Mayo	2023-05-18T00:00:00	2024-11-06T02:00:00	8	Radiación solar	0
154769	7	Sololá	701	Sololá	2	El tablón	5	Mayo	2023-05-18T00:00:00	2024-11-06T03:00:00	2	Temperatura media	13.1
154770	7	Sololá	701	Sololá	2	El tablón	5	Mayo	2023-05-18T00:00:00	2024-11-06T03:00:00	4	Temperatura máxima	13.5
154771	7	Sololá	701	Sololá	2	El tablón	5	Mayo	2023-05-18T00:00:00	2024-11-06T03:00:00	3	Temperatura mínima	13.1
154772	7	Sololá	701	Sololá	2	El tablón	5	Mayo	2023-05-18T00:00:00	2024-11-06T03:00:00	5	Humedad	88
154773	7	Sololá	701	Sololá	2	El tablón	5	Mayo	2023-05-18T00:00:00	2024-11-06T03:00:00	6	Velocidad del viento	4.8
154774	7	Sololá	701	Sololá	2	El tablón	5	Mayo	2023-05-18T00:00:00	2024-11-06T03:00:00	7	Dirección del viento	4.83
154775	7	Sololá	701	Sololá	2	El tablón	5	Mayo	2023-05-18T00:00:00	2024-11-06T03:00:00	1	Precipitación	0
154776	7	Sololá	701	Sololá	2	El tablón	5	Mayo	2023-05-18T00:00:00	2024-11-06T03:00:00	8	Radiación solar	0
154777	7	Sololá	701	Sololá	2	El tablón	5	Mayo	2023-05-18T00:00:00	2024-11-06T04:00:00	2	Temperatura media	13.1
154778	7	Sololá	701	Sololá	2	El tablón	5	Mayo	2023-05-18T00:00:00	2024-11-06T04:00:00	4	Temperatura máxima	13.3
154779	7	Sololá	701	Sololá	2	El tablón	5	Mayo	2023-05-18T00:00:00	2024-11-06T04:00:00	3	Temperatura mínima	13.1
154780	7	Sololá	701	Sololá	2	El tablón	5	Mayo	2023-05-18T00:00:00	2024-11-06T04:00:00	5	Humedad	88
154781	7	Sololá	701	Sololá	2	El tablón	5	Mayo	2023-05-18T00:00:00	2024-11-06T04:00:00	6	Velocidad del viento	6.4
154782	7	Sololá	701	Sololá	2	El tablón	5	Mayo	2023-05-18T00:00:00	2024-11-06T04:00:00	7	Dirección del viento	6.44
154783	7	Sololá	701	Sololá	2	El tablón	5	Mayo	2023-05-18T00:00:00	2024-11-06T04:00:00	1	Precipitación	0
154784	7	Sololá	701	Sololá	2	El tablón	5	Mayo	2023-05-18T00:00:00	2024-11-06T04:00:00	8	Radiación solar	0
154785	7	Sololá	701	Sololá	2	El tablón	5	Mayo	2023-05-18T00:00:00	2024-11-06T05:00:00	2	Temperatura media	12.7
154786	7	Sololá	701	Sololá	2	El tablón	5	Mayo	2023-05-18T00:00:00	2024-11-06T05:00:00	4	Temperatura máxima	13.3
154787	7	Sololá	701	Sololá	2	El tablón	5	Mayo	2023-05-18T00:00:00	2024-11-06T05:00:00	3	Temperatura mínima	12.7
154788	7	Sololá	701	Sololá	2	El tablón	5	Mayo	2023-05-18T00:00:00	2024-11-06T05:00:00	5	Humedad	88
154789	7	Sololá	701	Sololá	2	El tablón	5	Mayo	2023-05-18T00:00:00	2024-11-06T05:00:00	6	Velocidad del viento	4.8
154790	7	Sololá	701	Sololá	2	El tablón	5	Mayo	2023-05-18T00:00:00	2024-11-06T05:00:00	7	Dirección del viento	4.83
154791	7	Sololá	701	Sololá	2	El tablón	5	Mayo	2023-05-18T00:00:00	2024-11-06T05:00:00	1	Precipitación	0
154792	7	Sololá	701	Sololá	2	El tablón	5	Mayo	2023-05-18T00:00:00	2024-11-06T05:00:00	8	Radiación solar	0
154793	7	Sololá	701	Sololá	2	El tablón	5	Mayo	2023-05-18T00:00:00	2024-11-06T06:00:00	2	Temperatura media	12.4
154794	7	Sololá	701	Sololá	2	El tablón	5	Mayo	2023-05-18T00:00:00	2024-11-06T06:00:00	4	Temperatura máxima	12.8
154795	7	Sololá	701	Sololá	2	El tablón	5	Mayo	2023-05-18T00:00:00	2024-11-06T06:00:00	3	Temperatura mínima	12.4
154796	7	Sololá	701	Sololá	2	El tablón	5	Mayo	2023-05-18T00:00:00	2024-11-06T06:00:00	5	Humedad	87
154797	7	Sololá	701	Sololá	2	El tablón	5	Mayo	2023-05-18T00:00:00	2024-11-06T06:00:00	6	Velocidad del viento	3.2
154798	7	Sololá	701	Sololá	2	El tablón	5	Mayo	2023-05-18T00:00:00	2024-11-06T06:00:00	7	Dirección del viento	3.22
154799	7	Sololá	701	Sololá	2	El tablón	5	Mayo	2023-05-18T00:00:00	2024-11-06T06:00:00	1	Precipitación	0
154800	7	Sololá	701	Sololá	2	El tablón	5	Mayo	2023-05-18T00:00:00	2024-11-06T06:00:00	8	Radiación solar	5
154801	7	Sololá	701	Sololá	2	El tablón	5	Mayo	2023-05-18T00:00:00	2024-11-06T07:00:00	2	Temperatura media	14.4
154802	7	Sololá	701	Sololá	2	El tablón	5	Mayo	2023-05-18T00:00:00	2024-11-06T07:00:00	4	Temperatura máxima	14.4
154803	7	Sololá	701	Sololá	2	El tablón	5	Mayo	2023-05-18T00:00:00	2024-11-06T07:00:00	3	Temperatura mínima	11.8
154804	7	Sololá	701	Sololá	2	El tablón	5	Mayo	2023-05-18T00:00:00	2024-11-06T07:00:00	5	Humedad	86
154805	7	Sololá	701	Sololá	2	El tablón	5	Mayo	2023-05-18T00:00:00	2024-11-06T07:00:00	6	Velocidad del viento	1.6
154806	7	Sololá	701	Sololá	2	El tablón	5	Mayo	2023-05-18T00:00:00	2024-11-06T07:00:00	7	Dirección del viento	1.61
154807	7	Sololá	701	Sololá	2	El tablón	5	Mayo	2023-05-18T00:00:00	2024-11-06T07:00:00	1	Precipitación	0
154808	7	Sololá	701	Sololá	2	El tablón	5	Mayo	2023-05-18T00:00:00	2024-11-06T07:00:00	8	Radiación solar	96
154809	7	Sololá	701	Sololá	2	El tablón	5	Mayo	2023-05-18T00:00:00	2024-11-06T08:00:00	2	Temperatura media	16.3
154810	7	Sololá	701	Sololá	2	El tablón	5	Mayo	2023-05-18T00:00:00	2024-11-06T08:00:00	4	Temperatura máxima	16.3
154811	7	Sololá	701	Sololá	2	El tablón	5	Mayo	2023-05-18T00:00:00	2024-11-06T08:00:00	3	Temperatura mínima	14.4
154812	7	Sololá	701	Sololá	2	El tablón	5	Mayo	2023-05-18T00:00:00	2024-11-06T08:00:00	5	Humedad	81
154813	7	Sololá	701	Sololá	2	El tablón	5	Mayo	2023-05-18T00:00:00	2024-11-06T08:00:00	6	Velocidad del viento	3.2
154814	7	Sololá	701	Sololá	2	El tablón	5	Mayo	2023-05-18T00:00:00	2024-11-06T08:00:00	7	Dirección del viento	3.22
154815	7	Sololá	701	Sololá	2	El tablón	5	Mayo	2023-05-18T00:00:00	2024-11-06T08:00:00	1	Precipitación	0
154816	7	Sololá	701	Sololá	2	El tablón	5	Mayo	2023-05-18T00:00:00	2024-11-06T08:00:00	8	Radiación solar	285
154817	7	Sololá	701	Sololá	2	El tablón	5	Mayo	2023-05-18T00:00:00	2024-11-06T09:00:00	2	Temperatura media	18.3
154818	7	Sololá	701	Sololá	2	El tablón	5	Mayo	2023-05-18T00:00:00	2024-11-06T09:00:00	4	Temperatura máxima	18.3
154819	7	Sololá	701	Sololá	2	El tablón	5	Mayo	2023-05-18T00:00:00	2024-11-06T09:00:00	3	Temperatura mínima	16.3
154820	7	Sololá	701	Sololá	2	El tablón	5	Mayo	2023-05-18T00:00:00	2024-11-06T09:00:00	5	Humedad	77
154821	7	Sololá	701	Sololá	2	El tablón	5	Mayo	2023-05-18T00:00:00	2024-11-06T09:00:00	6	Velocidad del viento	3.2
154822	7	Sololá	701	Sololá	2	El tablón	5	Mayo	2023-05-18T00:00:00	2024-11-06T09:00:00	7	Dirección del viento	3.22
154823	7	Sololá	701	Sololá	2	El tablón	5	Mayo	2023-05-18T00:00:00	2024-11-06T09:00:00	1	Precipitación	0
154824	7	Sololá	701	Sololá	2	El tablón	5	Mayo	2023-05-18T00:00:00	2024-11-06T09:00:00	8	Radiación solar	493
154825	7	Sololá	701	Sololá	2	El tablón	5	Mayo	2023-05-18T00:00:00	2024-11-06T10:00:00	2	Temperatura media	18.7
154826	7	Sololá	701	Sololá	2	El tablón	5	Mayo	2023-05-18T00:00:00	2024-11-06T10:00:00	4	Temperatura máxima	19.1
154827	7	Sololá	701	Sololá	2	El tablón	5	Mayo	2023-05-18T00:00:00	2024-11-06T10:00:00	3	Temperatura mínima	18.3
154828	7	Sololá	701	Sololá	2	El tablón	5	Mayo	2023-05-18T00:00:00	2024-11-06T10:00:00	5	Humedad	79
154829	7	Sololá	701	Sololá	2	El tablón	5	Mayo	2023-05-18T00:00:00	2024-11-06T10:00:00	6	Velocidad del viento	3.2
154830	7	Sololá	701	Sololá	2	El tablón	5	Mayo	2023-05-18T00:00:00	2024-11-06T10:00:00	7	Dirección del viento	3.22
154831	7	Sololá	701	Sololá	2	El tablón	5	Mayo	2023-05-18T00:00:00	2024-11-06T10:00:00	1	Precipitación	0
154832	7	Sololá	701	Sololá	2	El tablón	5	Mayo	2023-05-18T00:00:00	2024-11-06T10:00:00	8	Radiación solar	682
154833	7	Sololá	701	Sololá	2	El tablón	5	Mayo	2023-05-18T00:00:00	2024-11-06T11:00:00	2	Temperatura media	19.4
154834	7	Sololá	701	Sololá	2	El tablón	5	Mayo	2023-05-18T00:00:00	2024-11-06T11:00:00	4	Temperatura máxima	19.4
154835	7	Sololá	701	Sololá	2	El tablón	5	Mayo	2023-05-18T00:00:00	2024-11-06T11:00:00	3	Temperatura mínima	18.4
154836	7	Sololá	701	Sololá	2	El tablón	5	Mayo	2023-05-18T00:00:00	2024-11-06T11:00:00	5	Humedad	75
154837	7	Sololá	701	Sololá	2	El tablón	5	Mayo	2023-05-18T00:00:00	2024-11-06T11:00:00	6	Velocidad del viento	6.4
154838	7	Sololá	701	Sololá	2	El tablón	5	Mayo	2023-05-18T00:00:00	2024-11-06T11:00:00	7	Dirección del viento	6.44
154839	7	Sololá	701	Sololá	2	El tablón	5	Mayo	2023-05-18T00:00:00	2024-11-06T11:00:00	1	Precipitación	0
154840	7	Sololá	701	Sololá	2	El tablón	5	Mayo	2023-05-18T00:00:00	2024-11-06T11:00:00	8	Radiación solar	717
154841	7	Sololá	701	Sololá	2	El tablón	5	Mayo	2023-05-18T00:00:00	2024-11-06T12:00:00	2	Temperatura media	18.4
154842	7	Sololá	701	Sololá	2	El tablón	5	Mayo	2023-05-18T00:00:00	2024-11-06T12:00:00	4	Temperatura máxima	20
154843	7	Sololá	701	Sololá	2	El tablón	5	Mayo	2023-05-18T00:00:00	2024-11-06T12:00:00	3	Temperatura mínima	18.4
154844	7	Sololá	701	Sololá	2	El tablón	5	Mayo	2023-05-18T00:00:00	2024-11-06T12:00:00	5	Humedad	80
154845	7	Sololá	701	Sololá	2	El tablón	5	Mayo	2023-05-18T00:00:00	2024-11-06T12:00:00	6	Velocidad del viento	9.7
154846	7	Sololá	701	Sololá	2	El tablón	5	Mayo	2023-05-18T00:00:00	2024-11-06T12:00:00	7	Dirección del viento	9.66
154847	7	Sololá	701	Sololá	2	El tablón	5	Mayo	2023-05-18T00:00:00	2024-11-06T12:00:00	1	Precipitación	0
154848	7	Sololá	701	Sololá	2	El tablón	5	Mayo	2023-05-18T00:00:00	2024-11-06T12:00:00	8	Radiación solar	764
154849	7	Sololá	701	Sololá	2	El tablón	5	Mayo	2023-05-18T00:00:00	2024-11-06T13:00:00	2	Temperatura media	18.2
154850	7	Sololá	701	Sololá	2	El tablón	5	Mayo	2023-05-18T00:00:00	2024-11-06T13:00:00	4	Temperatura máxima	18.5
154851	7	Sololá	701	Sololá	2	El tablón	5	Mayo	2023-05-18T00:00:00	2024-11-06T13:00:00	3	Temperatura mínima	17.5
154852	7	Sololá	701	Sololá	2	El tablón	5	Mayo	2023-05-18T00:00:00	2024-11-06T13:00:00	5	Humedad	84
154853	7	Sololá	701	Sololá	2	El tablón	5	Mayo	2023-05-18T00:00:00	2024-11-06T13:00:00	6	Velocidad del viento	8
154854	7	Sololá	701	Sololá	2	El tablón	5	Mayo	2023-05-18T00:00:00	2024-11-06T13:00:00	7	Dirección del viento	8.05
154855	7	Sololá	701	Sololá	2	El tablón	5	Mayo	2023-05-18T00:00:00	2024-11-06T13:00:00	1	Precipitación	0
154856	7	Sololá	701	Sololá	2	El tablón	5	Mayo	2023-05-18T00:00:00	2024-11-06T13:00:00	8	Radiación solar	432
154857	7	Sololá	701	Sololá	2	El tablón	5	Mayo	2023-05-18T00:00:00	2024-11-06T14:00:00	2	Temperatura media	18.4
154858	7	Sololá	701	Sololá	2	El tablón	5	Mayo	2023-05-18T00:00:00	2024-11-06T14:00:00	4	Temperatura máxima	18.8
154859	7	Sololá	701	Sololá	2	El tablón	5	Mayo	2023-05-18T00:00:00	2024-11-06T14:00:00	3	Temperatura mínima	18.2
154860	7	Sololá	701	Sololá	2	El tablón	5	Mayo	2023-05-18T00:00:00	2024-11-06T14:00:00	5	Humedad	85
154861	7	Sololá	701	Sololá	2	El tablón	5	Mayo	2023-05-18T00:00:00	2024-11-06T14:00:00	6	Velocidad del viento	8
154862	7	Sololá	701	Sololá	2	El tablón	5	Mayo	2023-05-18T00:00:00	2024-11-06T14:00:00	7	Dirección del viento	8.05
154863	7	Sololá	701	Sololá	2	El tablón	5	Mayo	2023-05-18T00:00:00	2024-11-06T14:00:00	1	Precipitación	0
154864	7	Sololá	701	Sololá	2	El tablón	5	Mayo	2023-05-18T00:00:00	2024-11-06T14:00:00	8	Radiación solar	529
154865	7	Sololá	701	Sololá	2	El tablón	5	Mayo	2023-05-18T00:00:00	2024-11-06T15:00:00	2	Temperatura media	19.1
154866	7	Sololá	701	Sololá	2	El tablón	5	Mayo	2023-05-18T00:00:00	2024-11-06T15:00:00	4	Temperatura máxima	19.2
154867	7	Sololá	701	Sololá	2	El tablón	5	Mayo	2023-05-18T00:00:00	2024-11-06T15:00:00	3	Temperatura mínima	18.2
154868	7	Sololá	701	Sololá	2	El tablón	5	Mayo	2023-05-18T00:00:00	2024-11-06T15:00:00	5	Humedad	83
154869	7	Sololá	701	Sololá	2	El tablón	5	Mayo	2023-05-18T00:00:00	2024-11-06T15:00:00	6	Velocidad del viento	6.4
154870	7	Sololá	701	Sololá	2	El tablón	5	Mayo	2023-05-18T00:00:00	2024-11-06T15:00:00	7	Dirección del viento	6.44
154871	7	Sololá	701	Sololá	2	El tablón	5	Mayo	2023-05-18T00:00:00	2024-11-06T15:00:00	1	Precipitación	0
154872	7	Sololá	701	Sololá	2	El tablón	5	Mayo	2023-05-18T00:00:00	2024-11-06T15:00:00	8	Radiación solar	574
154873	7	Sololá	701	Sololá	2	El tablón	5	Mayo	2023-05-18T00:00:00	2024-11-06T16:00:00	2	Temperatura media	17.9
154874	7	Sololá	701	Sololá	2	El tablón	5	Mayo	2023-05-18T00:00:00	2024-11-06T16:00:00	4	Temperatura máxima	19.2
154875	7	Sololá	701	Sololá	2	El tablón	5	Mayo	2023-05-18T00:00:00	2024-11-06T16:00:00	3	Temperatura mínima	17.8
154876	7	Sololá	701	Sololá	2	El tablón	5	Mayo	2023-05-18T00:00:00	2024-11-06T16:00:00	5	Humedad	87
154877	7	Sololá	701	Sololá	2	El tablón	5	Mayo	2023-05-18T00:00:00	2024-11-06T16:00:00	6	Velocidad del viento	8
154878	7	Sololá	701	Sololá	2	El tablón	5	Mayo	2023-05-18T00:00:00	2024-11-06T16:00:00	7	Dirección del viento	8.05
154879	7	Sololá	701	Sololá	2	El tablón	5	Mayo	2023-05-18T00:00:00	2024-11-06T16:00:00	1	Precipitación	0
154880	7	Sololá	701	Sololá	2	El tablón	5	Mayo	2023-05-18T00:00:00	2024-11-06T16:00:00	8	Radiación solar	229
154881	7	Sololá	701	Sololá	2	El tablón	5	Mayo	2023-05-18T00:00:00	2024-11-06T17:00:00	2	Temperatura media	18.1
154882	7	Sololá	701	Sololá	2	El tablón	5	Mayo	2023-05-18T00:00:00	2024-11-06T17:00:00	4	Temperatura máxima	18.4
154883	7	Sololá	701	Sololá	2	El tablón	5	Mayo	2023-05-18T00:00:00	2024-11-06T17:00:00	3	Temperatura mínima	17.6
154884	7	Sololá	701	Sololá	2	El tablón	5	Mayo	2023-05-18T00:00:00	2024-11-06T17:00:00	5	Humedad	86
154885	7	Sololá	701	Sololá	2	El tablón	5	Mayo	2023-05-18T00:00:00	2024-11-06T17:00:00	6	Velocidad del viento	6.4
154886	7	Sololá	701	Sololá	2	El tablón	5	Mayo	2023-05-18T00:00:00	2024-11-06T17:00:00	7	Dirección del viento	6.44
154887	7	Sololá	701	Sololá	2	El tablón	5	Mayo	2023-05-18T00:00:00	2024-11-06T17:00:00	1	Precipitación	0
154888	7	Sololá	701	Sololá	2	El tablón	5	Mayo	2023-05-18T00:00:00	2024-11-06T17:00:00	8	Radiación solar	277
154889	7	Sololá	701	Sololá	2	El tablón	5	Mayo	2023-05-18T00:00:00	2024-11-06T18:00:00	2	Temperatura media	16.7
154890	7	Sololá	701	Sololá	2	El tablón	5	Mayo	2023-05-18T00:00:00	2024-11-06T18:00:00	4	Temperatura máxima	18.1
154891	7	Sololá	701	Sololá	2	El tablón	5	Mayo	2023-05-18T00:00:00	2024-11-06T18:00:00	3	Temperatura mínima	16.6
154892	7	Sololá	701	Sololá	2	El tablón	5	Mayo	2023-05-18T00:00:00	2024-11-06T18:00:00	5	Humedad	88
154893	7	Sololá	701	Sololá	2	El tablón	5	Mayo	2023-05-18T00:00:00	2024-11-06T18:00:00	6	Velocidad del viento	4.8
154894	7	Sololá	701	Sololá	2	El tablón	5	Mayo	2023-05-18T00:00:00	2024-11-06T18:00:00	7	Dirección del viento	4.83
154895	7	Sololá	701	Sololá	2	El tablón	5	Mayo	2023-05-18T00:00:00	2024-11-06T18:00:00	1	Precipitación	0
154896	7	Sololá	701	Sololá	2	El tablón	5	Mayo	2023-05-18T00:00:00	2024-11-06T18:00:00	8	Radiación solar	26
154897	7	Sololá	701	Sololá	2	El tablón	5	Mayo	2023-05-18T00:00:00	2024-11-06T19:00:00	2	Temperatura media	15.8
154898	7	Sololá	701	Sololá	2	El tablón	5	Mayo	2023-05-18T00:00:00	2024-11-06T19:00:00	4	Temperatura máxima	16.9
154899	7	Sololá	701	Sololá	2	El tablón	5	Mayo	2023-05-18T00:00:00	2024-11-06T19:00:00	3	Temperatura mínima	15.8
154900	7	Sololá	701	Sololá	2	El tablón	5	Mayo	2023-05-18T00:00:00	2024-11-06T19:00:00	5	Humedad	67
154901	7	Sololá	701	Sololá	2	El tablón	5	Mayo	2023-05-18T00:00:00	2024-11-06T19:00:00	6	Velocidad del viento	4.8
154902	7	Sololá	701	Sololá	2	El tablón	5	Mayo	2023-05-18T00:00:00	2024-11-06T19:00:00	7	Dirección del viento	4.83
154903	7	Sololá	701	Sololá	2	El tablón	5	Mayo	2023-05-18T00:00:00	2024-11-06T19:00:00	1	Precipitación	0
154904	7	Sololá	701	Sololá	2	El tablón	5	Mayo	2023-05-18T00:00:00	2024-11-06T19:00:00	8	Radiación solar	0
154905	7	Sololá	701	Sololá	2	El tablón	5	Mayo	2023-05-18T00:00:00	2024-11-06T20:00:00	2	Temperatura media	15.4
154906	7	Sololá	701	Sololá	2	El tablón	5	Mayo	2023-05-18T00:00:00	2024-11-06T20:00:00	4	Temperatura máxima	16.1
154907	7	Sololá	701	Sololá	2	El tablón	5	Mayo	2023-05-18T00:00:00	2024-11-06T20:00:00	3	Temperatura mínima	15.3
154908	7	Sololá	701	Sololá	2	El tablón	5	Mayo	2023-05-18T00:00:00	2024-11-06T20:00:00	5	Humedad	82
154909	7	Sololá	701	Sololá	2	El tablón	5	Mayo	2023-05-18T00:00:00	2024-11-06T20:00:00	6	Velocidad del viento	8
154910	7	Sololá	701	Sololá	2	El tablón	5	Mayo	2023-05-18T00:00:00	2024-11-06T20:00:00	7	Dirección del viento	8.05
154911	7	Sololá	701	Sololá	2	El tablón	5	Mayo	2023-05-18T00:00:00	2024-11-06T20:00:00	1	Precipitación	0
154912	7	Sololá	701	Sololá	2	El tablón	5	Mayo	2023-05-18T00:00:00	2024-11-06T20:00:00	8	Radiación solar	0
154913	7	Sololá	701	Sololá	2	El tablón	5	Mayo	2023-05-18T00:00:00	2024-11-06T21:00:00	2	Temperatura media	15.2
154914	7	Sololá	701	Sololá	2	El tablón	5	Mayo	2023-05-18T00:00:00	2024-11-06T21:00:00	4	Temperatura máxima	15.4
154915	7	Sololá	701	Sololá	2	El tablón	5	Mayo	2023-05-18T00:00:00	2024-11-06T21:00:00	3	Temperatura mínima	15.2
154916	7	Sololá	701	Sololá	2	El tablón	5	Mayo	2023-05-18T00:00:00	2024-11-06T21:00:00	5	Humedad	86
154917	7	Sololá	701	Sololá	2	El tablón	5	Mayo	2023-05-18T00:00:00	2024-11-06T21:00:00	6	Velocidad del viento	6.4
154918	7	Sololá	701	Sololá	2	El tablón	5	Mayo	2023-05-18T00:00:00	2024-11-06T21:00:00	7	Dirección del viento	6.44
154919	7	Sololá	701	Sololá	2	El tablón	5	Mayo	2023-05-18T00:00:00	2024-11-06T21:00:00	1	Precipitación	0
154920	7	Sololá	701	Sololá	2	El tablón	5	Mayo	2023-05-18T00:00:00	2024-11-06T21:00:00	8	Radiación solar	0
154921	7	Sololá	701	Sololá	2	El tablón	5	Mayo	2023-05-18T00:00:00	2024-11-06T22:00:00	2	Temperatura media	14.7
154922	7	Sololá	701	Sololá	2	El tablón	5	Mayo	2023-05-18T00:00:00	2024-11-06T22:00:00	4	Temperatura máxima	15.2
154923	7	Sololá	701	Sololá	2	El tablón	5	Mayo	2023-05-18T00:00:00	2024-11-06T22:00:00	3	Temperatura mínima	14.7
154924	7	Sololá	701	Sololá	2	El tablón	5	Mayo	2023-05-18T00:00:00	2024-11-06T22:00:00	5	Humedad	87
154925	7	Sololá	701	Sololá	2	El tablón	5	Mayo	2023-05-18T00:00:00	2024-11-06T22:00:00	6	Velocidad del viento	8
154926	7	Sololá	701	Sololá	2	El tablón	5	Mayo	2023-05-18T00:00:00	2024-11-06T22:00:00	7	Dirección del viento	8.05
154927	7	Sololá	701	Sololá	2	El tablón	5	Mayo	2023-05-18T00:00:00	2024-11-06T22:00:00	1	Precipitación	0
154928	7	Sololá	701	Sololá	2	El tablón	5	Mayo	2023-05-18T00:00:00	2024-11-06T22:00:00	8	Radiación solar	0
154929	7	Sololá	701	Sololá	2	El tablón	5	Mayo	2023-05-18T00:00:00	2024-11-06T23:00:00	2	Temperatura media	14.7
154930	7	Sololá	701	Sololá	2	El tablón	5	Mayo	2023-05-18T00:00:00	2024-11-06T23:00:00	4	Temperatura máxima	14.8
154931	7	Sololá	701	Sololá	2	El tablón	5	Mayo	2023-05-18T00:00:00	2024-11-06T23:00:00	3	Temperatura mínima	14.7
154932	7	Sololá	701	Sololá	2	El tablón	5	Mayo	2023-05-18T00:00:00	2024-11-06T23:00:00	5	Humedad	87
154933	7	Sololá	701	Sololá	2	El tablón	5	Mayo	2023-05-18T00:00:00	2024-11-06T23:00:00	6	Velocidad del viento	4.8
154934	7	Sololá	701	Sololá	2	El tablón	5	Mayo	2023-05-18T00:00:00	2024-11-06T23:00:00	7	Dirección del viento	4.83
154935	7	Sololá	701	Sololá	2	El tablón	5	Mayo	2023-05-18T00:00:00	2024-11-06T23:00:00	1	Precipitación	0
154936	7	Sololá	701	Sololá	2	El tablón	5	Mayo	2023-05-18T00:00:00	2024-11-06T23:00:00	8	Radiación solar	0
154937	7	Sololá	701	Sololá	2	El tablón	5	Mayo	2023-05-19T00:00:00	2024-11-06T00:00:00	2	Temperatura media	14.8
154938	7	Sololá	701	Sololá	2	El tablón	5	Mayo	2023-05-19T00:00:00	2024-11-06T00:00:00	4	Temperatura máxima	14.8
154939	7	Sololá	701	Sololá	2	El tablón	5	Mayo	2023-05-19T00:00:00	2024-11-06T00:00:00	3	Temperatura mínima	14.7
154940	7	Sololá	701	Sololá	2	El tablón	5	Mayo	2023-05-19T00:00:00	2024-11-06T00:00:00	5	Humedad	86
154941	7	Sololá	701	Sololá	2	El tablón	5	Mayo	2023-05-19T00:00:00	2024-11-06T00:00:00	6	Velocidad del viento	8
154942	7	Sololá	701	Sololá	2	El tablón	5	Mayo	2023-05-19T00:00:00	2024-11-06T00:00:00	7	Dirección del viento	8.05
154943	7	Sololá	701	Sololá	2	El tablón	5	Mayo	2023-05-19T00:00:00	2024-11-06T00:00:00	1	Precipitación	0
154944	7	Sololá	701	Sololá	2	El tablón	5	Mayo	2023-05-19T00:00:00	2024-11-06T00:00:00	8	Radiación solar	0
154945	7	Sololá	701	Sololá	2	El tablón	5	Mayo	2023-05-19T00:00:00	2024-11-06T01:00:00	2	Temperatura media	14.4
154946	7	Sololá	701	Sololá	2	El tablón	5	Mayo	2023-05-19T00:00:00	2024-11-06T01:00:00	4	Temperatura máxima	14.8
154947	7	Sololá	701	Sololá	2	El tablón	5	Mayo	2023-05-19T00:00:00	2024-11-06T01:00:00	3	Temperatura mínima	14.4
154948	7	Sololá	701	Sololá	2	El tablón	5	Mayo	2023-05-19T00:00:00	2024-11-06T01:00:00	5	Humedad	86
154949	7	Sololá	701	Sololá	2	El tablón	5	Mayo	2023-05-19T00:00:00	2024-11-06T01:00:00	6	Velocidad del viento	8
154950	7	Sololá	701	Sololá	2	El tablón	5	Mayo	2023-05-19T00:00:00	2024-11-06T01:00:00	7	Dirección del viento	8.05
154951	7	Sololá	701	Sololá	2	El tablón	5	Mayo	2023-05-19T00:00:00	2024-11-06T01:00:00	1	Precipitación	0
154952	7	Sololá	701	Sololá	2	El tablón	5	Mayo	2023-05-19T00:00:00	2024-11-06T01:00:00	8	Radiación solar	0
154953	7	Sololá	701	Sololá	2	El tablón	5	Mayo	2023-05-19T00:00:00	2024-11-06T02:00:00	2	Temperatura media	14.4
154954	7	Sololá	701	Sololá	2	El tablón	5	Mayo	2023-05-19T00:00:00	2024-11-06T02:00:00	4	Temperatura máxima	14.4
154955	7	Sololá	701	Sololá	2	El tablón	5	Mayo	2023-05-19T00:00:00	2024-11-06T02:00:00	3	Temperatura mínima	14.3
154956	7	Sololá	701	Sololá	2	El tablón	5	Mayo	2023-05-19T00:00:00	2024-11-06T02:00:00	5	Humedad	86
154957	7	Sololá	701	Sololá	2	El tablón	5	Mayo	2023-05-19T00:00:00	2024-11-06T02:00:00	6	Velocidad del viento	8
154958	7	Sololá	701	Sololá	2	El tablón	5	Mayo	2023-05-19T00:00:00	2024-11-06T02:00:00	7	Dirección del viento	8.05
154959	7	Sololá	701	Sololá	2	El tablón	5	Mayo	2023-05-19T00:00:00	2024-11-06T02:00:00	1	Precipitación	0
154960	7	Sololá	701	Sololá	2	El tablón	5	Mayo	2023-05-19T00:00:00	2024-11-06T02:00:00	8	Radiación solar	0
154961	7	Sololá	701	Sololá	2	El tablón	5	Mayo	2023-05-19T00:00:00	2024-11-06T03:00:00	2	Temperatura media	14.3
154962	7	Sololá	701	Sololá	2	El tablón	5	Mayo	2023-05-19T00:00:00	2024-11-06T03:00:00	4	Temperatura máxima	14.4
154963	7	Sololá	701	Sololá	2	El tablón	5	Mayo	2023-05-19T00:00:00	2024-11-06T03:00:00	3	Temperatura mínima	14.3
154964	7	Sololá	701	Sololá	2	El tablón	5	Mayo	2023-05-19T00:00:00	2024-11-06T03:00:00	5	Humedad	85
154965	7	Sololá	701	Sololá	2	El tablón	5	Mayo	2023-05-19T00:00:00	2024-11-06T03:00:00	6	Velocidad del viento	9.7
154966	7	Sololá	701	Sololá	2	El tablón	5	Mayo	2023-05-19T00:00:00	2024-11-06T03:00:00	7	Dirección del viento	9.66
154967	7	Sololá	701	Sololá	2	El tablón	5	Mayo	2023-05-19T00:00:00	2024-11-06T03:00:00	1	Precipitación	0
154968	7	Sololá	701	Sololá	2	El tablón	5	Mayo	2023-05-19T00:00:00	2024-11-06T03:00:00	8	Radiación solar	0
154969	7	Sololá	701	Sololá	2	El tablón	5	Mayo	2023-05-19T00:00:00	2024-11-06T04:00:00	2	Temperatura media	14.1
154970	7	Sololá	701	Sololá	2	El tablón	5	Mayo	2023-05-19T00:00:00	2024-11-06T04:00:00	4	Temperatura máxima	14.3
154971	7	Sololá	701	Sololá	2	El tablón	5	Mayo	2023-05-19T00:00:00	2024-11-06T04:00:00	3	Temperatura mínima	14.1
154972	7	Sololá	701	Sololá	2	El tablón	5	Mayo	2023-05-19T00:00:00	2024-11-06T04:00:00	5	Humedad	84
154973	7	Sololá	701	Sololá	2	El tablón	5	Mayo	2023-05-19T00:00:00	2024-11-06T04:00:00	6	Velocidad del viento	8
154974	7	Sololá	701	Sololá	2	El tablón	5	Mayo	2023-05-19T00:00:00	2024-11-06T04:00:00	7	Dirección del viento	8.05
154975	7	Sololá	701	Sololá	2	El tablón	5	Mayo	2023-05-19T00:00:00	2024-11-06T04:00:00	1	Precipitación	0
154976	7	Sololá	701	Sololá	2	El tablón	5	Mayo	2023-05-19T00:00:00	2024-11-06T04:00:00	8	Radiación solar	0
154977	7	Sololá	701	Sololá	2	El tablón	5	Mayo	2023-05-19T00:00:00	2024-11-06T05:00:00	2	Temperatura media	13.7
154978	7	Sololá	701	Sololá	2	El tablón	5	Mayo	2023-05-19T00:00:00	2024-11-06T05:00:00	4	Temperatura máxima	14.2
154979	7	Sololá	701	Sololá	2	El tablón	5	Mayo	2023-05-19T00:00:00	2024-11-06T05:00:00	3	Temperatura mínima	13.7
154980	7	Sololá	701	Sololá	2	El tablón	5	Mayo	2023-05-19T00:00:00	2024-11-06T05:00:00	5	Humedad	86
154981	7	Sololá	701	Sololá	2	El tablón	5	Mayo	2023-05-19T00:00:00	2024-11-06T05:00:00	6	Velocidad del viento	6.4
154982	7	Sololá	701	Sololá	2	El tablón	5	Mayo	2023-05-19T00:00:00	2024-11-06T05:00:00	7	Dirección del viento	6.44
154983	7	Sololá	701	Sololá	2	El tablón	5	Mayo	2023-05-19T00:00:00	2024-11-06T05:00:00	1	Precipitación	0
154984	7	Sololá	701	Sololá	2	El tablón	5	Mayo	2023-05-19T00:00:00	2024-11-06T05:00:00	8	Radiación solar	0
154985	7	Sololá	701	Sololá	2	El tablón	5	Mayo	2023-05-19T00:00:00	2024-11-06T06:00:00	2	Temperatura media	14
154986	7	Sololá	701	Sololá	2	El tablón	5	Mayo	2023-05-19T00:00:00	2024-11-06T06:00:00	4	Temperatura máxima	14.2
154987	7	Sololá	701	Sololá	2	El tablón	5	Mayo	2023-05-19T00:00:00	2024-11-06T06:00:00	3	Temperatura mínima	13.7
154988	7	Sololá	701	Sololá	2	El tablón	5	Mayo	2023-05-19T00:00:00	2024-11-06T06:00:00	5	Humedad	86
154989	7	Sololá	701	Sololá	2	El tablón	5	Mayo	2023-05-19T00:00:00	2024-11-06T06:00:00	6	Velocidad del viento	9.7
154990	7	Sololá	701	Sololá	2	El tablón	5	Mayo	2023-05-19T00:00:00	2024-11-06T06:00:00	7	Dirección del viento	9.66
154991	7	Sololá	701	Sololá	2	El tablón	5	Mayo	2023-05-19T00:00:00	2024-11-06T06:00:00	1	Precipitación	0
154992	7	Sololá	701	Sololá	2	El tablón	5	Mayo	2023-05-19T00:00:00	2024-11-06T06:00:00	8	Radiación solar	3
154993	7	Sololá	701	Sololá	2	El tablón	5	Mayo	2023-05-19T00:00:00	2024-11-06T07:00:00	2	Temperatura media	15
154994	7	Sololá	701	Sololá	2	El tablón	5	Mayo	2023-05-19T00:00:00	2024-11-06T07:00:00	4	Temperatura máxima	15
154995	7	Sololá	701	Sololá	2	El tablón	5	Mayo	2023-05-19T00:00:00	2024-11-06T07:00:00	3	Temperatura mínima	14
154996	7	Sololá	701	Sololá	2	El tablón	5	Mayo	2023-05-19T00:00:00	2024-11-06T07:00:00	5	Humedad	83
154997	7	Sololá	701	Sololá	2	El tablón	5	Mayo	2023-05-19T00:00:00	2024-11-06T07:00:00	6	Velocidad del viento	12.9
154998	7	Sololá	701	Sololá	2	El tablón	5	Mayo	2023-05-19T00:00:00	2024-11-06T07:00:00	7	Dirección del viento	12.87
154999	7	Sololá	701	Sololá	2	El tablón	5	Mayo	2023-05-19T00:00:00	2024-11-06T07:00:00	1	Precipitación	0
155000	7	Sololá	701	Sololá	2	El tablón	5	Mayo	2023-05-19T00:00:00	2024-11-06T07:00:00	8	Radiación solar	108
155001	7	Sololá	701	Sololá	2	El tablón	5	Mayo	2023-05-19T00:00:00	2024-11-06T08:00:00	2	Temperatura media	17.2
155002	7	Sololá	701	Sololá	2	El tablón	5	Mayo	2023-05-19T00:00:00	2024-11-06T08:00:00	4	Temperatura máxima	17.2
155003	7	Sololá	701	Sololá	2	El tablón	5	Mayo	2023-05-19T00:00:00	2024-11-06T08:00:00	3	Temperatura mínima	15.1
155004	7	Sololá	701	Sololá	2	El tablón	5	Mayo	2023-05-19T00:00:00	2024-11-06T08:00:00	5	Humedad	63
155005	7	Sololá	701	Sololá	2	El tablón	5	Mayo	2023-05-19T00:00:00	2024-11-06T08:00:00	6	Velocidad del viento	14.5
155006	7	Sololá	701	Sololá	2	El tablón	5	Mayo	2023-05-19T00:00:00	2024-11-06T08:00:00	7	Dirección del viento	14.48
155007	7	Sololá	701	Sololá	2	El tablón	5	Mayo	2023-05-19T00:00:00	2024-11-06T08:00:00	1	Precipitación	0
155008	7	Sololá	701	Sololá	2	El tablón	5	Mayo	2023-05-19T00:00:00	2024-11-06T08:00:00	8	Radiación solar	344
155009	7	Sololá	701	Sololá	2	El tablón	5	Mayo	2023-05-19T00:00:00	2024-11-06T09:00:00	2	Temperatura media	18
155010	7	Sololá	701	Sololá	2	El tablón	5	Mayo	2023-05-19T00:00:00	2024-11-06T09:00:00	4	Temperatura máxima	18.2
155011	7	Sololá	701	Sololá	2	El tablón	5	Mayo	2023-05-19T00:00:00	2024-11-06T09:00:00	3	Temperatura mínima	17.2
155012	7	Sololá	701	Sololá	2	El tablón	5	Mayo	2023-05-19T00:00:00	2024-11-06T09:00:00	5	Humedad	68
155013	7	Sololá	701	Sololá	2	El tablón	5	Mayo	2023-05-19T00:00:00	2024-11-06T09:00:00	6	Velocidad del viento	12.9
155014	7	Sololá	701	Sololá	2	El tablón	5	Mayo	2023-05-19T00:00:00	2024-11-06T09:00:00	7	Dirección del viento	12.87
155015	7	Sololá	701	Sololá	2	El tablón	5	Mayo	2023-05-19T00:00:00	2024-11-06T09:00:00	1	Precipitación	0
155016	7	Sololá	701	Sololá	2	El tablón	5	Mayo	2023-05-19T00:00:00	2024-11-06T09:00:00	8	Radiación solar	558
155017	7	Sololá	701	Sololá	2	El tablón	5	Mayo	2023-05-19T00:00:00	2024-11-06T10:00:00	2	Temperatura media	19.2
155018	7	Sololá	701	Sololá	2	El tablón	5	Mayo	2023-05-19T00:00:00	2024-11-06T10:00:00	4	Temperatura máxima	19.3
155019	7	Sololá	701	Sololá	2	El tablón	5	Mayo	2023-05-19T00:00:00	2024-11-06T10:00:00	3	Temperatura mínima	17.9
155020	7	Sololá	701	Sololá	2	El tablón	5	Mayo	2023-05-19T00:00:00	2024-11-06T10:00:00	5	Humedad	57
155021	7	Sololá	701	Sololá	2	El tablón	5	Mayo	2023-05-19T00:00:00	2024-11-06T10:00:00	6	Velocidad del viento	14.5
155022	7	Sololá	701	Sololá	2	El tablón	5	Mayo	2023-05-19T00:00:00	2024-11-06T10:00:00	7	Dirección del viento	14.48
155023	7	Sololá	701	Sololá	2	El tablón	5	Mayo	2023-05-19T00:00:00	2024-11-06T10:00:00	1	Precipitación	0
155024	7	Sololá	701	Sololá	2	El tablón	5	Mayo	2023-05-19T00:00:00	2024-11-06T10:00:00	8	Radiación solar	736
155025	7	Sololá	701	Sololá	2	El tablón	5	Mayo	2023-05-19T00:00:00	2024-11-06T11:00:00	2	Temperatura media	19.8
155026	7	Sololá	701	Sololá	2	El tablón	5	Mayo	2023-05-19T00:00:00	2024-11-06T11:00:00	4	Temperatura máxima	20.1
155027	7	Sololá	701	Sololá	2	El tablón	5	Mayo	2023-05-19T00:00:00	2024-11-06T11:00:00	3	Temperatura mínima	19.2
155028	7	Sololá	701	Sololá	2	El tablón	5	Mayo	2023-05-19T00:00:00	2024-11-06T11:00:00	5	Humedad	51
155029	7	Sololá	701	Sololá	2	El tablón	5	Mayo	2023-05-19T00:00:00	2024-11-06T11:00:00	6	Velocidad del viento	12.9
155030	7	Sololá	701	Sololá	2	El tablón	5	Mayo	2023-05-19T00:00:00	2024-11-06T11:00:00	7	Dirección del viento	12.87
155031	7	Sololá	701	Sololá	2	El tablón	5	Mayo	2023-05-19T00:00:00	2024-11-06T11:00:00	1	Precipitación	0
155032	7	Sololá	701	Sololá	2	El tablón	5	Mayo	2023-05-19T00:00:00	2024-11-06T11:00:00	8	Radiación solar	846
155033	7	Sololá	701	Sololá	2	El tablón	5	Mayo	2023-05-19T00:00:00	2024-11-06T12:00:00	2	Temperatura media	20.3
155034	7	Sololá	701	Sololá	2	El tablón	5	Mayo	2023-05-19T00:00:00	2024-11-06T12:00:00	4	Temperatura máxima	20.7
155035	7	Sololá	701	Sololá	2	El tablón	5	Mayo	2023-05-19T00:00:00	2024-11-06T12:00:00	3	Temperatura mínima	19.7
155036	7	Sololá	701	Sololá	2	El tablón	5	Mayo	2023-05-19T00:00:00	2024-11-06T12:00:00	5	Humedad	59
155037	7	Sololá	701	Sololá	2	El tablón	5	Mayo	2023-05-19T00:00:00	2024-11-06T12:00:00	6	Velocidad del viento	11.3
155038	7	Sololá	701	Sololá	2	El tablón	5	Mayo	2023-05-19T00:00:00	2024-11-06T12:00:00	7	Dirección del viento	11.27
155039	7	Sololá	701	Sololá	2	El tablón	5	Mayo	2023-05-19T00:00:00	2024-11-06T12:00:00	1	Precipitación	0
155040	7	Sololá	701	Sololá	2	El tablón	5	Mayo	2023-05-19T00:00:00	2024-11-06T12:00:00	8	Radiación solar	911
155041	7	Sololá	701	Sololá	2	El tablón	5	Mayo	2023-05-19T00:00:00	2024-11-06T13:00:00	2	Temperatura media	20.2
155042	7	Sololá	701	Sololá	2	El tablón	5	Mayo	2023-05-19T00:00:00	2024-11-06T13:00:00	4	Temperatura máxima	20.8
155043	7	Sololá	701	Sololá	2	El tablón	5	Mayo	2023-05-19T00:00:00	2024-11-06T13:00:00	3	Temperatura mínima	20
155044	7	Sololá	701	Sololá	2	El tablón	5	Mayo	2023-05-19T00:00:00	2024-11-06T13:00:00	5	Humedad	59
155045	7	Sololá	701	Sololá	2	El tablón	5	Mayo	2023-05-19T00:00:00	2024-11-06T13:00:00	6	Velocidad del viento	11.3
155046	7	Sololá	701	Sololá	2	El tablón	5	Mayo	2023-05-19T00:00:00	2024-11-06T13:00:00	7	Dirección del viento	11.27
155047	7	Sololá	701	Sololá	2	El tablón	5	Mayo	2023-05-19T00:00:00	2024-11-06T13:00:00	1	Precipitación	0
155048	7	Sololá	701	Sololá	2	El tablón	5	Mayo	2023-05-19T00:00:00	2024-11-06T13:00:00	8	Radiación solar	719
155049	7	Sololá	701	Sololá	2	El tablón	5	Mayo	2023-05-19T00:00:00	2024-11-06T14:00:00	2	Temperatura media	20.3
155050	7	Sololá	701	Sololá	2	El tablón	5	Mayo	2023-05-19T00:00:00	2024-11-06T14:00:00	4	Temperatura máxima	20.7
155051	7	Sololá	701	Sololá	2	El tablón	5	Mayo	2023-05-19T00:00:00	2024-11-06T14:00:00	3	Temperatura mínima	20.2
155052	7	Sololá	701	Sololá	2	El tablón	5	Mayo	2023-05-19T00:00:00	2024-11-06T14:00:00	5	Humedad	62
155053	7	Sololá	701	Sololá	2	El tablón	5	Mayo	2023-05-19T00:00:00	2024-11-06T14:00:00	6	Velocidad del viento	12.9
155054	7	Sololá	701	Sololá	2	El tablón	5	Mayo	2023-05-19T00:00:00	2024-11-06T14:00:00	7	Dirección del viento	12.87
155055	7	Sololá	701	Sololá	2	El tablón	5	Mayo	2023-05-19T00:00:00	2024-11-06T14:00:00	1	Precipitación	0
155056	7	Sololá	701	Sololá	2	El tablón	5	Mayo	2023-05-19T00:00:00	2024-11-06T14:00:00	8	Radiación solar	748
155057	7	Sololá	701	Sololá	2	El tablón	5	Mayo	2023-05-19T00:00:00	2024-11-06T15:00:00	2	Temperatura media	21.2
155058	7	Sololá	701	Sololá	2	El tablón	5	Mayo	2023-05-19T00:00:00	2024-11-06T15:00:00	4	Temperatura máxima	21.2
155059	7	Sololá	701	Sololá	2	El tablón	5	Mayo	2023-05-19T00:00:00	2024-11-06T15:00:00	3	Temperatura mínima	19.7
155060	7	Sololá	701	Sololá	2	El tablón	5	Mayo	2023-05-19T00:00:00	2024-11-06T15:00:00	5	Humedad	61
155061	7	Sololá	701	Sololá	2	El tablón	5	Mayo	2023-05-19T00:00:00	2024-11-06T15:00:00	6	Velocidad del viento	11.3
155062	7	Sololá	701	Sololá	2	El tablón	5	Mayo	2023-05-19T00:00:00	2024-11-06T15:00:00	7	Dirección del viento	11.27
155063	7	Sololá	701	Sololá	2	El tablón	5	Mayo	2023-05-19T00:00:00	2024-11-06T15:00:00	1	Precipitación	0
155064	7	Sololá	701	Sololá	2	El tablón	5	Mayo	2023-05-19T00:00:00	2024-11-06T15:00:00	8	Radiación solar	659
155065	7	Sololá	701	Sololá	2	El tablón	5	Mayo	2023-05-19T00:00:00	2024-11-06T16:00:00	2	Temperatura media	19.9
155066	7	Sololá	701	Sololá	2	El tablón	5	Mayo	2023-05-19T00:00:00	2024-11-06T16:00:00	4	Temperatura máxima	21.2
155067	7	Sololá	701	Sololá	2	El tablón	5	Mayo	2023-05-19T00:00:00	2024-11-06T16:00:00	3	Temperatura mínima	19.6
155068	7	Sololá	701	Sololá	2	El tablón	5	Mayo	2023-05-19T00:00:00	2024-11-06T16:00:00	5	Humedad	66
155069	7	Sololá	701	Sololá	2	El tablón	5	Mayo	2023-05-19T00:00:00	2024-11-06T16:00:00	6	Velocidad del viento	12.9
155070	7	Sololá	701	Sololá	2	El tablón	5	Mayo	2023-05-19T00:00:00	2024-11-06T16:00:00	7	Dirección del viento	12.87
155071	7	Sololá	701	Sololá	2	El tablón	5	Mayo	2023-05-19T00:00:00	2024-11-06T16:00:00	1	Precipitación	0
155072	7	Sololá	701	Sololá	2	El tablón	5	Mayo	2023-05-19T00:00:00	2024-11-06T16:00:00	8	Radiación solar	401
155073	7	Sololá	701	Sololá	2	El tablón	5	Mayo	2023-05-19T00:00:00	2024-11-06T17:00:00	2	Temperatura media	18.3
155074	7	Sololá	701	Sololá	2	El tablón	5	Mayo	2023-05-19T00:00:00	2024-11-06T17:00:00	4	Temperatura máxima	20.5
155075	7	Sololá	701	Sololá	2	El tablón	5	Mayo	2023-05-19T00:00:00	2024-11-06T17:00:00	3	Temperatura mínima	18.3
155076	7	Sololá	701	Sololá	2	El tablón	5	Mayo	2023-05-19T00:00:00	2024-11-06T17:00:00	5	Humedad	74
155077	7	Sololá	701	Sololá	2	El tablón	5	Mayo	2023-05-19T00:00:00	2024-11-06T17:00:00	6	Velocidad del viento	9.7
155078	7	Sololá	701	Sololá	2	El tablón	5	Mayo	2023-05-19T00:00:00	2024-11-06T17:00:00	7	Dirección del viento	9.66
155079	7	Sololá	701	Sololá	2	El tablón	5	Mayo	2023-05-19T00:00:00	2024-11-06T17:00:00	1	Precipitación	0
155080	7	Sololá	701	Sololá	2	El tablón	5	Mayo	2023-05-19T00:00:00	2024-11-06T17:00:00	8	Radiación solar	141
155081	7	Sololá	701	Sololá	2	El tablón	5	Mayo	2023-05-19T00:00:00	2024-11-06T18:00:00	2	Temperatura media	17.5
155082	7	Sololá	701	Sololá	2	El tablón	5	Mayo	2023-05-19T00:00:00	2024-11-06T18:00:00	4	Temperatura máxima	18.3
155083	7	Sololá	701	Sololá	2	El tablón	5	Mayo	2023-05-19T00:00:00	2024-11-06T18:00:00	3	Temperatura mínima	17.5
155084	7	Sololá	701	Sololá	2	El tablón	5	Mayo	2023-05-19T00:00:00	2024-11-06T18:00:00	5	Humedad	77
155085	7	Sololá	701	Sololá	2	El tablón	5	Mayo	2023-05-19T00:00:00	2024-11-06T18:00:00	6	Velocidad del viento	8
155086	7	Sololá	701	Sololá	2	El tablón	5	Mayo	2023-05-19T00:00:00	2024-11-06T18:00:00	7	Dirección del viento	8.05
155087	7	Sololá	701	Sololá	2	El tablón	5	Mayo	2023-05-19T00:00:00	2024-11-06T18:00:00	1	Precipitación	0
155088	7	Sololá	701	Sololá	2	El tablón	5	Mayo	2023-05-19T00:00:00	2024-11-06T18:00:00	8	Radiación solar	54
155089	7	Sololá	701	Sololá	2	El tablón	5	Mayo	2023-05-19T00:00:00	2024-11-06T19:00:00	2	Temperatura media	16.2
155090	7	Sololá	701	Sololá	2	El tablón	5	Mayo	2023-05-19T00:00:00	2024-11-06T19:00:00	4	Temperatura máxima	17.6
155091	7	Sololá	701	Sololá	2	El tablón	5	Mayo	2023-05-19T00:00:00	2024-11-06T19:00:00	3	Temperatura mínima	16.2
155092	7	Sololá	701	Sololá	2	El tablón	5	Mayo	2023-05-19T00:00:00	2024-11-06T19:00:00	5	Humedad	81
155093	7	Sololá	701	Sololá	2	El tablón	5	Mayo	2023-05-19T00:00:00	2024-11-06T19:00:00	6	Velocidad del viento	8
155094	7	Sololá	701	Sololá	2	El tablón	5	Mayo	2023-05-19T00:00:00	2024-11-06T19:00:00	7	Dirección del viento	8.05
155095	7	Sololá	701	Sololá	2	El tablón	5	Mayo	2023-05-19T00:00:00	2024-11-06T19:00:00	1	Precipitación	0
155096	7	Sololá	701	Sololá	2	El tablón	5	Mayo	2023-05-19T00:00:00	2024-11-06T19:00:00	8	Radiación solar	0
155097	7	Sololá	701	Sololá	2	El tablón	5	Mayo	2023-05-19T00:00:00	2024-11-06T20:00:00	2	Temperatura media	15.6
155098	7	Sololá	701	Sololá	2	El tablón	5	Mayo	2023-05-19T00:00:00	2024-11-06T20:00:00	4	Temperatura máxima	16.2
155099	7	Sololá	701	Sololá	2	El tablón	5	Mayo	2023-05-19T00:00:00	2024-11-06T20:00:00	3	Temperatura mínima	15.6
155100	7	Sololá	701	Sololá	2	El tablón	5	Mayo	2023-05-19T00:00:00	2024-11-06T20:00:00	5	Humedad	83
155101	7	Sololá	701	Sololá	2	El tablón	5	Mayo	2023-05-19T00:00:00	2024-11-06T20:00:00	6	Velocidad del viento	11.3
155102	7	Sololá	701	Sololá	2	El tablón	5	Mayo	2023-05-19T00:00:00	2024-11-06T20:00:00	7	Dirección del viento	11.27
155103	7	Sololá	701	Sololá	2	El tablón	5	Mayo	2023-05-19T00:00:00	2024-11-06T20:00:00	1	Precipitación	0
155104	7	Sololá	701	Sololá	2	El tablón	5	Mayo	2023-05-19T00:00:00	2024-11-06T20:00:00	8	Radiación solar	0
155105	7	Sololá	701	Sololá	2	El tablón	5	Mayo	2023-05-19T00:00:00	2024-11-06T21:00:00	2	Temperatura media	14.8
155106	7	Sololá	701	Sololá	2	El tablón	5	Mayo	2023-05-19T00:00:00	2024-11-06T21:00:00	4	Temperatura máxima	15.6
155107	7	Sololá	701	Sololá	2	El tablón	5	Mayo	2023-05-19T00:00:00	2024-11-06T21:00:00	3	Temperatura mínima	14.8
155108	7	Sololá	701	Sololá	2	El tablón	5	Mayo	2023-05-19T00:00:00	2024-11-06T21:00:00	5	Humedad	85
155109	7	Sololá	701	Sololá	2	El tablón	5	Mayo	2023-05-19T00:00:00	2024-11-06T21:00:00	6	Velocidad del viento	9.7
155110	7	Sololá	701	Sololá	2	El tablón	5	Mayo	2023-05-19T00:00:00	2024-11-06T21:00:00	7	Dirección del viento	9.66
155111	7	Sololá	701	Sololá	2	El tablón	5	Mayo	2023-05-19T00:00:00	2024-11-06T21:00:00	1	Precipitación	0
155112	7	Sololá	701	Sololá	2	El tablón	5	Mayo	2023-05-19T00:00:00	2024-11-06T21:00:00	8	Radiación solar	0
155113	7	Sololá	701	Sololá	2	El tablón	5	Mayo	2023-05-19T00:00:00	2024-11-06T22:00:00	2	Temperatura media	14.3
155114	7	Sololá	701	Sololá	2	El tablón	5	Mayo	2023-05-19T00:00:00	2024-11-06T22:00:00	4	Temperatura máxima	14.8
155115	7	Sololá	701	Sololá	2	El tablón	5	Mayo	2023-05-19T00:00:00	2024-11-06T22:00:00	3	Temperatura mínima	14.3
155116	7	Sololá	701	Sololá	2	El tablón	5	Mayo	2023-05-19T00:00:00	2024-11-06T22:00:00	5	Humedad	86
155117	7	Sololá	701	Sololá	2	El tablón	5	Mayo	2023-05-19T00:00:00	2024-11-06T22:00:00	6	Velocidad del viento	8
155118	7	Sololá	701	Sololá	2	El tablón	5	Mayo	2023-05-19T00:00:00	2024-11-06T22:00:00	7	Dirección del viento	8.05
155119	7	Sololá	701	Sololá	2	El tablón	5	Mayo	2023-05-19T00:00:00	2024-11-06T22:00:00	1	Precipitación	0
155120	7	Sololá	701	Sololá	2	El tablón	5	Mayo	2023-05-19T00:00:00	2024-11-06T22:00:00	8	Radiación solar	0
155121	7	Sololá	701	Sololá	2	El tablón	5	Mayo	2023-05-19T00:00:00	2024-11-06T23:00:00	2	Temperatura media	14.3
155122	7	Sololá	701	Sololá	2	El tablón	5	Mayo	2023-05-19T00:00:00	2024-11-06T23:00:00	4	Temperatura máxima	14.4
155123	7	Sololá	701	Sololá	2	El tablón	5	Mayo	2023-05-19T00:00:00	2024-11-06T23:00:00	3	Temperatura mínima	14.3
155124	7	Sololá	701	Sololá	2	El tablón	5	Mayo	2023-05-19T00:00:00	2024-11-06T23:00:00	5	Humedad	86
155125	7	Sololá	701	Sololá	2	El tablón	5	Mayo	2023-05-19T00:00:00	2024-11-06T23:00:00	6	Velocidad del viento	8
155126	7	Sololá	701	Sololá	2	El tablón	5	Mayo	2023-05-19T00:00:00	2024-11-06T23:00:00	7	Dirección del viento	8.05
155127	7	Sololá	701	Sololá	2	El tablón	5	Mayo	2023-05-19T00:00:00	2024-11-06T23:00:00	1	Precipitación	0
155128	7	Sololá	701	Sololá	2	El tablón	5	Mayo	2023-05-19T00:00:00	2024-11-06T23:00:00	8	Radiación solar	0
155129	7	Sololá	701	Sololá	2	El tablón	5	Mayo	2023-05-20T00:00:00	2024-11-06T00:00:00	2	Temperatura media	13.9
155130	7	Sololá	701	Sololá	2	El tablón	5	Mayo	2023-05-20T00:00:00	2024-11-06T00:00:00	4	Temperatura máxima	14.3
155131	7	Sololá	701	Sololá	2	El tablón	5	Mayo	2023-05-20T00:00:00	2024-11-06T00:00:00	3	Temperatura mínima	13.9
155132	7	Sololá	701	Sololá	2	El tablón	5	Mayo	2023-05-20T00:00:00	2024-11-06T00:00:00	5	Humedad	86
155133	7	Sololá	701	Sololá	2	El tablón	5	Mayo	2023-05-20T00:00:00	2024-11-06T00:00:00	6	Velocidad del viento	9.7
155134	7	Sololá	701	Sololá	2	El tablón	5	Mayo	2023-05-20T00:00:00	2024-11-06T00:00:00	7	Dirección del viento	9.66
155135	7	Sololá	701	Sololá	2	El tablón	5	Mayo	2023-05-20T00:00:00	2024-11-06T00:00:00	1	Precipitación	0
155136	7	Sololá	701	Sololá	2	El tablón	5	Mayo	2023-05-20T00:00:00	2024-11-06T00:00:00	8	Radiación solar	0
155137	7	Sololá	701	Sololá	2	El tablón	5	Mayo	2023-05-20T00:00:00	2024-11-06T01:00:00	2	Temperatura media	13.7
155138	7	Sololá	701	Sololá	2	El tablón	5	Mayo	2023-05-20T00:00:00	2024-11-06T01:00:00	4	Temperatura máxima	13.9
155139	7	Sololá	701	Sololá	2	El tablón	5	Mayo	2023-05-20T00:00:00	2024-11-06T01:00:00	3	Temperatura mínima	13.6
155140	7	Sololá	701	Sololá	2	El tablón	5	Mayo	2023-05-20T00:00:00	2024-11-06T01:00:00	5	Humedad	84
155141	7	Sololá	701	Sololá	2	El tablón	5	Mayo	2023-05-20T00:00:00	2024-11-06T01:00:00	6	Velocidad del viento	11.3
155142	7	Sololá	701	Sololá	2	El tablón	5	Mayo	2023-05-20T00:00:00	2024-11-06T01:00:00	7	Dirección del viento	11.27
155143	7	Sololá	701	Sololá	2	El tablón	5	Mayo	2023-05-20T00:00:00	2024-11-06T01:00:00	1	Precipitación	0
155144	7	Sololá	701	Sololá	2	El tablón	5	Mayo	2023-05-20T00:00:00	2024-11-06T01:00:00	8	Radiación solar	0
155145	7	Sololá	701	Sololá	2	El tablón	5	Mayo	2023-05-20T00:00:00	2024-11-06T02:00:00	2	Temperatura media	13.6
155146	7	Sololá	701	Sololá	2	El tablón	5	Mayo	2023-05-20T00:00:00	2024-11-06T02:00:00	4	Temperatura máxima	13.9
155147	7	Sololá	701	Sololá	2	El tablón	5	Mayo	2023-05-20T00:00:00	2024-11-06T02:00:00	3	Temperatura mínima	13.6
155148	7	Sololá	701	Sololá	2	El tablón	5	Mayo	2023-05-20T00:00:00	2024-11-06T02:00:00	5	Humedad	84
155149	7	Sololá	701	Sololá	2	El tablón	5	Mayo	2023-05-20T00:00:00	2024-11-06T02:00:00	6	Velocidad del viento	12.9
155150	7	Sololá	701	Sololá	2	El tablón	5	Mayo	2023-05-20T00:00:00	2024-11-06T02:00:00	7	Dirección del viento	12.87
155151	7	Sololá	701	Sololá	2	El tablón	5	Mayo	2023-05-20T00:00:00	2024-11-06T02:00:00	1	Precipitación	0
155152	7	Sololá	701	Sololá	2	El tablón	5	Mayo	2023-05-20T00:00:00	2024-11-06T02:00:00	8	Radiación solar	0
155153	7	Sololá	701	Sololá	2	El tablón	5	Mayo	2023-05-20T00:00:00	2024-11-06T03:00:00	2	Temperatura media	13.5
155154	7	Sololá	701	Sololá	2	El tablón	5	Mayo	2023-05-20T00:00:00	2024-11-06T03:00:00	4	Temperatura máxima	13.7
155155	7	Sololá	701	Sololá	2	El tablón	5	Mayo	2023-05-20T00:00:00	2024-11-06T03:00:00	3	Temperatura mínima	13.4
155156	7	Sololá	701	Sololá	2	El tablón	5	Mayo	2023-05-20T00:00:00	2024-11-06T03:00:00	5	Humedad	83
155157	7	Sololá	701	Sololá	2	El tablón	5	Mayo	2023-05-20T00:00:00	2024-11-06T03:00:00	6	Velocidad del viento	12.9
155158	7	Sololá	701	Sololá	2	El tablón	5	Mayo	2023-05-20T00:00:00	2024-11-06T03:00:00	7	Dirección del viento	12.87
155159	7	Sololá	701	Sololá	2	El tablón	5	Mayo	2023-05-20T00:00:00	2024-11-06T03:00:00	1	Precipitación	0
155160	7	Sololá	701	Sololá	2	El tablón	5	Mayo	2023-05-20T00:00:00	2024-11-06T03:00:00	8	Radiación solar	0
155161	7	Sololá	701	Sololá	2	El tablón	5	Mayo	2023-05-20T00:00:00	2024-11-06T04:00:00	2	Temperatura media	13.9
155162	7	Sololá	701	Sololá	2	El tablón	5	Mayo	2023-05-20T00:00:00	2024-11-06T04:00:00	4	Temperatura máxima	14
155163	7	Sololá	701	Sololá	2	El tablón	5	Mayo	2023-05-20T00:00:00	2024-11-06T04:00:00	3	Temperatura mínima	13.5
155164	7	Sololá	701	Sololá	2	El tablón	5	Mayo	2023-05-20T00:00:00	2024-11-06T04:00:00	5	Humedad	74
155165	7	Sololá	701	Sololá	2	El tablón	5	Mayo	2023-05-20T00:00:00	2024-11-06T04:00:00	6	Velocidad del viento	11.3
155166	7	Sololá	701	Sololá	2	El tablón	5	Mayo	2023-05-20T00:00:00	2024-11-06T04:00:00	7	Dirección del viento	11.27
155167	7	Sololá	701	Sololá	2	El tablón	5	Mayo	2023-05-20T00:00:00	2024-11-06T04:00:00	1	Precipitación	0
155168	7	Sololá	701	Sololá	2	El tablón	5	Mayo	2023-05-20T00:00:00	2024-11-06T04:00:00	8	Radiación solar	0
155169	7	Sololá	701	Sololá	2	El tablón	5	Mayo	2023-05-20T00:00:00	2024-11-06T05:00:00	2	Temperatura media	14.1
155170	7	Sololá	701	Sololá	2	El tablón	5	Mayo	2023-05-20T00:00:00	2024-11-06T05:00:00	4	Temperatura máxima	14.1
155171	7	Sololá	701	Sololá	2	El tablón	5	Mayo	2023-05-20T00:00:00	2024-11-06T05:00:00	3	Temperatura mínima	13.7
155172	7	Sololá	701	Sololá	2	El tablón	5	Mayo	2023-05-20T00:00:00	2024-11-06T05:00:00	5	Humedad	68
155173	7	Sololá	701	Sololá	2	El tablón	5	Mayo	2023-05-20T00:00:00	2024-11-06T05:00:00	6	Velocidad del viento	8
155174	7	Sololá	701	Sololá	2	El tablón	5	Mayo	2023-05-20T00:00:00	2024-11-06T05:00:00	7	Dirección del viento	8.05
155175	7	Sololá	701	Sololá	2	El tablón	5	Mayo	2023-05-20T00:00:00	2024-11-06T05:00:00	1	Precipitación	0
155176	7	Sololá	701	Sololá	2	El tablón	5	Mayo	2023-05-20T00:00:00	2024-11-06T05:00:00	8	Radiación solar	0
155177	7	Sololá	701	Sololá	2	El tablón	5	Mayo	2023-05-20T00:00:00	2024-11-06T06:00:00	2	Temperatura media	13.9
155178	7	Sololá	701	Sololá	2	El tablón	5	Mayo	2023-05-20T00:00:00	2024-11-06T06:00:00	4	Temperatura máxima	14.1
155179	7	Sololá	701	Sololá	2	El tablón	5	Mayo	2023-05-20T00:00:00	2024-11-06T06:00:00	3	Temperatura mínima	13.8
155180	7	Sololá	701	Sololá	2	El tablón	5	Mayo	2023-05-20T00:00:00	2024-11-06T06:00:00	5	Humedad	68
155181	7	Sololá	701	Sololá	2	El tablón	5	Mayo	2023-05-20T00:00:00	2024-11-06T06:00:00	6	Velocidad del viento	8
155182	7	Sololá	701	Sololá	2	El tablón	5	Mayo	2023-05-20T00:00:00	2024-11-06T06:00:00	7	Dirección del viento	8.05
155183	7	Sololá	701	Sololá	2	El tablón	5	Mayo	2023-05-20T00:00:00	2024-11-06T06:00:00	1	Precipitación	0
155184	7	Sololá	701	Sololá	2	El tablón	5	Mayo	2023-05-20T00:00:00	2024-11-06T06:00:00	8	Radiación solar	7
155185	7	Sololá	701	Sololá	2	El tablón	5	Mayo	2023-05-20T00:00:00	2024-11-06T07:00:00	2	Temperatura media	15.3
155186	7	Sololá	701	Sololá	2	El tablón	5	Mayo	2023-05-20T00:00:00	2024-11-06T07:00:00	4	Temperatura máxima	15.3
155187	7	Sololá	701	Sololá	2	El tablón	5	Mayo	2023-05-20T00:00:00	2024-11-06T07:00:00	3	Temperatura mínima	13.9
155188	7	Sololá	701	Sololá	2	El tablón	5	Mayo	2023-05-20T00:00:00	2024-11-06T07:00:00	5	Humedad	63
155189	7	Sololá	701	Sololá	2	El tablón	5	Mayo	2023-05-20T00:00:00	2024-11-06T07:00:00	6	Velocidad del viento	11.3
155190	7	Sololá	701	Sololá	2	El tablón	5	Mayo	2023-05-20T00:00:00	2024-11-06T07:00:00	7	Dirección del viento	11.27
155191	7	Sololá	701	Sololá	2	El tablón	5	Mayo	2023-05-20T00:00:00	2024-11-06T07:00:00	1	Precipitación	0
155192	7	Sololá	701	Sololá	2	El tablón	5	Mayo	2023-05-20T00:00:00	2024-11-06T07:00:00	8	Radiación solar	124
155193	7	Sololá	701	Sololá	2	El tablón	5	Mayo	2023-05-20T00:00:00	2024-11-06T08:00:00	2	Temperatura media	16.8
155194	7	Sololá	701	Sololá	2	El tablón	5	Mayo	2023-05-20T00:00:00	2024-11-06T08:00:00	4	Temperatura máxima	16.8
155195	7	Sololá	701	Sololá	2	El tablón	5	Mayo	2023-05-20T00:00:00	2024-11-06T08:00:00	3	Temperatura mínima	15.3
155196	7	Sololá	701	Sololá	2	El tablón	5	Mayo	2023-05-20T00:00:00	2024-11-06T08:00:00	5	Humedad	60
155197	7	Sololá	701	Sololá	2	El tablón	5	Mayo	2023-05-20T00:00:00	2024-11-06T08:00:00	6	Velocidad del viento	9.7
155198	7	Sololá	701	Sololá	2	El tablón	5	Mayo	2023-05-20T00:00:00	2024-11-06T08:00:00	7	Dirección del viento	9.66
155199	7	Sololá	701	Sololá	2	El tablón	5	Mayo	2023-05-20T00:00:00	2024-11-06T08:00:00	1	Precipitación	0
155200	7	Sololá	701	Sololá	2	El tablón	5	Mayo	2023-05-20T00:00:00	2024-11-06T08:00:00	8	Radiación solar	329
155201	7	Sololá	701	Sololá	2	El tablón	5	Mayo	2023-05-20T00:00:00	2024-11-06T09:00:00	2	Temperatura media	17.5
155202	7	Sololá	701	Sololá	2	El tablón	5	Mayo	2023-05-20T00:00:00	2024-11-06T09:00:00	4	Temperatura máxima	17.6
155203	7	Sololá	701	Sololá	2	El tablón	5	Mayo	2023-05-20T00:00:00	2024-11-06T09:00:00	3	Temperatura mínima	16.8
155204	7	Sololá	701	Sololá	2	El tablón	5	Mayo	2023-05-20T00:00:00	2024-11-06T09:00:00	5	Humedad	63
155205	7	Sololá	701	Sololá	2	El tablón	5	Mayo	2023-05-20T00:00:00	2024-11-06T09:00:00	6	Velocidad del viento	12.9
155206	7	Sololá	701	Sololá	2	El tablón	5	Mayo	2023-05-20T00:00:00	2024-11-06T09:00:00	7	Dirección del viento	12.87
155207	7	Sololá	701	Sololá	2	El tablón	5	Mayo	2023-05-20T00:00:00	2024-11-06T09:00:00	1	Precipitación	0
155208	7	Sololá	701	Sololá	2	El tablón	5	Mayo	2023-05-20T00:00:00	2024-11-06T09:00:00	8	Radiación solar	557
155209	7	Sololá	701	Sololá	2	El tablón	5	Mayo	2023-05-20T00:00:00	2024-11-06T10:00:00	2	Temperatura media	17.8
155210	7	Sololá	701	Sololá	2	El tablón	5	Mayo	2023-05-20T00:00:00	2024-11-06T10:00:00	4	Temperatura máxima	17.9
155211	7	Sololá	701	Sololá	2	El tablón	5	Mayo	2023-05-20T00:00:00	2024-11-06T10:00:00	3	Temperatura mínima	17.3
155212	7	Sololá	701	Sololá	2	El tablón	5	Mayo	2023-05-20T00:00:00	2024-11-06T10:00:00	5	Humedad	66
155213	7	Sololá	701	Sololá	2	El tablón	5	Mayo	2023-05-20T00:00:00	2024-11-06T10:00:00	6	Velocidad del viento	14.5
155214	7	Sololá	701	Sololá	2	El tablón	5	Mayo	2023-05-20T00:00:00	2024-11-06T10:00:00	7	Dirección del viento	14.48
155215	7	Sololá	701	Sololá	2	El tablón	5	Mayo	2023-05-20T00:00:00	2024-11-06T10:00:00	1	Precipitación	0
155216	7	Sololá	701	Sololá	2	El tablón	5	Mayo	2023-05-20T00:00:00	2024-11-06T10:00:00	8	Radiación solar	697
155217	7	Sololá	701	Sololá	2	El tablón	5	Mayo	2023-05-20T00:00:00	2024-11-06T11:00:00	2	Temperatura media	19.4
155218	7	Sololá	701	Sololá	2	El tablón	5	Mayo	2023-05-20T00:00:00	2024-11-06T11:00:00	4	Temperatura máxima	19.4
155219	7	Sololá	701	Sololá	2	El tablón	5	Mayo	2023-05-20T00:00:00	2024-11-06T11:00:00	3	Temperatura mínima	17.9
155220	7	Sololá	701	Sololá	2	El tablón	5	Mayo	2023-05-20T00:00:00	2024-11-06T11:00:00	5	Humedad	61
155221	7	Sololá	701	Sololá	2	El tablón	5	Mayo	2023-05-20T00:00:00	2024-11-06T11:00:00	6	Velocidad del viento	14.5
155222	7	Sololá	701	Sololá	2	El tablón	5	Mayo	2023-05-20T00:00:00	2024-11-06T11:00:00	7	Dirección del viento	14.48
155223	7	Sololá	701	Sololá	2	El tablón	5	Mayo	2023-05-20T00:00:00	2024-11-06T11:00:00	1	Precipitación	0
155224	7	Sololá	701	Sololá	2	El tablón	5	Mayo	2023-05-20T00:00:00	2024-11-06T11:00:00	8	Radiación solar	819
155225	7	Sololá	701	Sololá	2	El tablón	5	Mayo	2023-05-20T00:00:00	2024-11-06T12:00:00	2	Temperatura media	20.9
155226	7	Sololá	701	Sololá	2	El tablón	5	Mayo	2023-05-20T00:00:00	2024-11-06T12:00:00	4	Temperatura máxima	20.9
155227	7	Sololá	701	Sololá	2	El tablón	5	Mayo	2023-05-20T00:00:00	2024-11-06T12:00:00	3	Temperatura mínima	19.2
155228	7	Sololá	701	Sololá	2	El tablón	5	Mayo	2023-05-20T00:00:00	2024-11-06T12:00:00	5	Humedad	51
155229	7	Sololá	701	Sololá	2	El tablón	5	Mayo	2023-05-20T00:00:00	2024-11-06T12:00:00	6	Velocidad del viento	12.9
155230	7	Sololá	701	Sololá	2	El tablón	5	Mayo	2023-05-20T00:00:00	2024-11-06T12:00:00	7	Dirección del viento	12.87
155231	7	Sololá	701	Sololá	2	El tablón	5	Mayo	2023-05-20T00:00:00	2024-11-06T12:00:00	1	Precipitación	0
155232	7	Sololá	701	Sololá	2	El tablón	5	Mayo	2023-05-20T00:00:00	2024-11-06T12:00:00	8	Radiación solar	902
155233	7	Sololá	701	Sololá	2	El tablón	5	Mayo	2023-05-20T00:00:00	2024-11-06T13:00:00	2	Temperatura media	21.7
155234	7	Sololá	701	Sololá	2	El tablón	5	Mayo	2023-05-20T00:00:00	2024-11-06T13:00:00	4	Temperatura máxima	21.7
155235	7	Sololá	701	Sololá	2	El tablón	5	Mayo	2023-05-20T00:00:00	2024-11-06T13:00:00	3	Temperatura mínima	20.6
155236	7	Sololá	701	Sololá	2	El tablón	5	Mayo	2023-05-20T00:00:00	2024-11-06T13:00:00	5	Humedad	50
155237	7	Sololá	701	Sololá	2	El tablón	5	Mayo	2023-05-20T00:00:00	2024-11-06T13:00:00	6	Velocidad del viento	11.3
155238	7	Sololá	701	Sololá	2	El tablón	5	Mayo	2023-05-20T00:00:00	2024-11-06T13:00:00	7	Dirección del viento	11.27
155239	7	Sololá	701	Sololá	2	El tablón	5	Mayo	2023-05-20T00:00:00	2024-11-06T13:00:00	1	Precipitación	0
155240	7	Sololá	701	Sololá	2	El tablón	5	Mayo	2023-05-20T00:00:00	2024-11-06T13:00:00	8	Radiación solar	938
155241	7	Sololá	701	Sololá	2	El tablón	5	Mayo	2023-05-20T00:00:00	2024-11-06T14:00:00	2	Temperatura media	22.1
155242	7	Sololá	701	Sololá	2	El tablón	5	Mayo	2023-05-20T00:00:00	2024-11-06T14:00:00	4	Temperatura máxima	22.1
155243	7	Sololá	701	Sololá	2	El tablón	5	Mayo	2023-05-20T00:00:00	2024-11-06T14:00:00	3	Temperatura mínima	21.1
155244	7	Sololá	701	Sololá	2	El tablón	5	Mayo	2023-05-20T00:00:00	2024-11-06T14:00:00	5	Humedad	48
155245	7	Sololá	701	Sololá	2	El tablón	5	Mayo	2023-05-20T00:00:00	2024-11-06T14:00:00	6	Velocidad del viento	12.9
155246	7	Sololá	701	Sololá	2	El tablón	5	Mayo	2023-05-20T00:00:00	2024-11-06T14:00:00	7	Dirección del viento	12.87
155247	7	Sololá	701	Sololá	2	El tablón	5	Mayo	2023-05-20T00:00:00	2024-11-06T14:00:00	1	Precipitación	0
155248	7	Sololá	701	Sololá	2	El tablón	5	Mayo	2023-05-20T00:00:00	2024-11-06T14:00:00	8	Radiación solar	890
155249	7	Sololá	701	Sololá	2	El tablón	5	Mayo	2023-05-20T00:00:00	2024-11-06T15:00:00	2	Temperatura media	21.6
155250	7	Sololá	701	Sololá	2	El tablón	5	Mayo	2023-05-20T00:00:00	2024-11-06T15:00:00	4	Temperatura máxima	22.1
155251	7	Sololá	701	Sololá	2	El tablón	5	Mayo	2023-05-20T00:00:00	2024-11-06T15:00:00	3	Temperatura mínima	21.2
155252	7	Sololá	701	Sololá	2	El tablón	5	Mayo	2023-05-20T00:00:00	2024-11-06T15:00:00	5	Humedad	50
155253	7	Sololá	701	Sololá	2	El tablón	5	Mayo	2023-05-20T00:00:00	2024-11-06T15:00:00	6	Velocidad del viento	11.3
155254	7	Sololá	701	Sololá	2	El tablón	5	Mayo	2023-05-20T00:00:00	2024-11-06T15:00:00	7	Dirección del viento	11.27
155255	7	Sololá	701	Sololá	2	El tablón	5	Mayo	2023-05-20T00:00:00	2024-11-06T15:00:00	1	Precipitación	0
155256	7	Sololá	701	Sololá	2	El tablón	5	Mayo	2023-05-20T00:00:00	2024-11-06T15:00:00	8	Radiación solar	780
155257	7	Sololá	701	Sololá	2	El tablón	5	Mayo	2023-05-20T00:00:00	2024-11-06T16:00:00	2	Temperatura media	20.7
155258	7	Sololá	701	Sololá	2	El tablón	5	Mayo	2023-05-20T00:00:00	2024-11-06T16:00:00	4	Temperatura máxima	21.8
155259	7	Sololá	701	Sololá	2	El tablón	5	Mayo	2023-05-20T00:00:00	2024-11-06T16:00:00	3	Temperatura mínima	20.7
155260	7	Sololá	701	Sololá	2	El tablón	5	Mayo	2023-05-20T00:00:00	2024-11-06T16:00:00	5	Humedad	54
155261	7	Sololá	701	Sololá	2	El tablón	5	Mayo	2023-05-20T00:00:00	2024-11-06T16:00:00	6	Velocidad del viento	9.7
155262	7	Sololá	701	Sololá	2	El tablón	5	Mayo	2023-05-20T00:00:00	2024-11-06T16:00:00	7	Dirección del viento	9.66
155263	7	Sololá	701	Sololá	2	El tablón	5	Mayo	2023-05-20T00:00:00	2024-11-06T16:00:00	1	Precipitación	0
155264	7	Sololá	701	Sololá	2	El tablón	5	Mayo	2023-05-20T00:00:00	2024-11-06T16:00:00	8	Radiación solar	584
155265	7	Sololá	701	Sololá	2	El tablón	5	Mayo	2023-05-20T00:00:00	2024-11-06T17:00:00	2	Temperatura media	19
155266	7	Sololá	701	Sololá	2	El tablón	5	Mayo	2023-05-20T00:00:00	2024-11-06T17:00:00	4	Temperatura máxima	20.9
155267	7	Sololá	701	Sololá	2	El tablón	5	Mayo	2023-05-20T00:00:00	2024-11-06T17:00:00	3	Temperatura mínima	19
155268	7	Sololá	701	Sololá	2	El tablón	5	Mayo	2023-05-20T00:00:00	2024-11-06T17:00:00	5	Humedad	59
155269	7	Sololá	701	Sololá	2	El tablón	5	Mayo	2023-05-20T00:00:00	2024-11-06T17:00:00	6	Velocidad del viento	11.3
155270	7	Sololá	701	Sololá	2	El tablón	5	Mayo	2023-05-20T00:00:00	2024-11-06T17:00:00	7	Dirección del viento	11.27
155271	7	Sololá	701	Sololá	2	El tablón	5	Mayo	2023-05-20T00:00:00	2024-11-06T17:00:00	1	Precipitación	0
155272	7	Sololá	701	Sololá	2	El tablón	5	Mayo	2023-05-20T00:00:00	2024-11-06T17:00:00	8	Radiación solar	401
155273	7	Sololá	701	Sololá	2	El tablón	5	Mayo	2023-05-20T00:00:00	2024-11-06T18:00:00	2	Temperatura media	17.6
155274	7	Sololá	701	Sololá	2	El tablón	5	Mayo	2023-05-20T00:00:00	2024-11-06T18:00:00	4	Temperatura máxima	19
155275	7	Sololá	701	Sololá	2	El tablón	5	Mayo	2023-05-20T00:00:00	2024-11-06T18:00:00	3	Temperatura mínima	17.6
155276	7	Sololá	701	Sololá	2	El tablón	5	Mayo	2023-05-20T00:00:00	2024-11-06T18:00:00	5	Humedad	66
155277	7	Sololá	701	Sololá	2	El tablón	5	Mayo	2023-05-20T00:00:00	2024-11-06T18:00:00	6	Velocidad del viento	9.7
155278	7	Sololá	701	Sololá	2	El tablón	5	Mayo	2023-05-20T00:00:00	2024-11-06T18:00:00	7	Dirección del viento	9.66
155279	7	Sololá	701	Sololá	2	El tablón	5	Mayo	2023-05-20T00:00:00	2024-11-06T18:00:00	1	Precipitación	0
155280	7	Sololá	701	Sololá	2	El tablón	5	Mayo	2023-05-20T00:00:00	2024-11-06T18:00:00	8	Radiación solar	164
155281	7	Sololá	701	Sololá	2	El tablón	5	Mayo	2023-05-20T00:00:00	2024-11-06T19:00:00	2	Temperatura media	15.7
155282	7	Sololá	701	Sololá	2	El tablón	5	Mayo	2023-05-20T00:00:00	2024-11-06T19:00:00	4	Temperatura máxima	17.7
155283	7	Sololá	701	Sololá	2	El tablón	5	Mayo	2023-05-20T00:00:00	2024-11-06T19:00:00	3	Temperatura mínima	15.7
155284	7	Sololá	701	Sololá	2	El tablón	5	Mayo	2023-05-20T00:00:00	2024-11-06T19:00:00	5	Humedad	79
155285	7	Sololá	701	Sololá	2	El tablón	5	Mayo	2023-05-20T00:00:00	2024-11-06T19:00:00	6	Velocidad del viento	6.4
155286	7	Sololá	701	Sololá	2	El tablón	5	Mayo	2023-05-20T00:00:00	2024-11-06T19:00:00	7	Dirección del viento	6.44
155287	7	Sololá	701	Sololá	2	El tablón	5	Mayo	2023-05-20T00:00:00	2024-11-06T19:00:00	1	Precipitación	0
155288	7	Sololá	701	Sololá	2	El tablón	5	Mayo	2023-05-20T00:00:00	2024-11-06T19:00:00	8	Radiación solar	0
155289	7	Sololá	701	Sololá	2	El tablón	5	Mayo	2023-05-20T00:00:00	2024-11-06T20:00:00	2	Temperatura media	14.9
155290	7	Sololá	701	Sololá	2	El tablón	5	Mayo	2023-05-20T00:00:00	2024-11-06T20:00:00	4	Temperatura máxima	15.7
155291	7	Sololá	701	Sololá	2	El tablón	5	Mayo	2023-05-20T00:00:00	2024-11-06T20:00:00	3	Temperatura mínima	14.9
155292	7	Sololá	701	Sololá	2	El tablón	5	Mayo	2023-05-20T00:00:00	2024-11-06T20:00:00	5	Humedad	82
155293	7	Sololá	701	Sololá	2	El tablón	5	Mayo	2023-05-20T00:00:00	2024-11-06T20:00:00	6	Velocidad del viento	6.4
155294	7	Sololá	701	Sololá	2	El tablón	5	Mayo	2023-05-20T00:00:00	2024-11-06T20:00:00	7	Dirección del viento	6.44
155295	7	Sololá	701	Sololá	2	El tablón	5	Mayo	2023-05-20T00:00:00	2024-11-06T20:00:00	1	Precipitación	0
155296	7	Sololá	701	Sololá	2	El tablón	5	Mayo	2023-05-20T00:00:00	2024-11-06T20:00:00	8	Radiación solar	0
155297	7	Sololá	701	Sololá	2	El tablón	5	Mayo	2023-05-20T00:00:00	2024-11-06T21:00:00	2	Temperatura media	14.4
155298	7	Sololá	701	Sololá	2	El tablón	5	Mayo	2023-05-20T00:00:00	2024-11-06T21:00:00	4	Temperatura máxima	14.9
155299	7	Sololá	701	Sololá	2	El tablón	5	Mayo	2023-05-20T00:00:00	2024-11-06T21:00:00	3	Temperatura mínima	14.3
155300	7	Sololá	701	Sololá	2	El tablón	5	Mayo	2023-05-20T00:00:00	2024-11-06T21:00:00	5	Humedad	84
155301	7	Sololá	701	Sololá	2	El tablón	5	Mayo	2023-05-20T00:00:00	2024-11-06T21:00:00	6	Velocidad del viento	8
155302	7	Sololá	701	Sololá	2	El tablón	5	Mayo	2023-05-20T00:00:00	2024-11-06T21:00:00	7	Dirección del viento	8.05
155303	7	Sololá	701	Sololá	2	El tablón	5	Mayo	2023-05-20T00:00:00	2024-11-06T21:00:00	1	Precipitación	0
155304	7	Sololá	701	Sololá	2	El tablón	5	Mayo	2023-05-20T00:00:00	2024-11-06T21:00:00	8	Radiación solar	0
155305	7	Sololá	701	Sololá	2	El tablón	5	Mayo	2023-05-20T00:00:00	2024-11-06T22:00:00	2	Temperatura media	14
155306	7	Sololá	701	Sololá	2	El tablón	5	Mayo	2023-05-20T00:00:00	2024-11-06T22:00:00	4	Temperatura máxima	14.3
155307	7	Sololá	701	Sololá	2	El tablón	5	Mayo	2023-05-20T00:00:00	2024-11-06T22:00:00	3	Temperatura mínima	14
155308	7	Sololá	701	Sololá	2	El tablón	5	Mayo	2023-05-20T00:00:00	2024-11-06T22:00:00	5	Humedad	80
155309	7	Sololá	701	Sololá	2	El tablón	5	Mayo	2023-05-20T00:00:00	2024-11-06T22:00:00	6	Velocidad del viento	11.3
155310	7	Sololá	701	Sololá	2	El tablón	5	Mayo	2023-05-20T00:00:00	2024-11-06T22:00:00	7	Dirección del viento	11.27
155311	7	Sololá	701	Sololá	2	El tablón	5	Mayo	2023-05-20T00:00:00	2024-11-06T22:00:00	1	Precipitación	0
155312	7	Sololá	701	Sololá	2	El tablón	5	Mayo	2023-05-20T00:00:00	2024-11-06T22:00:00	8	Radiación solar	0
155313	7	Sololá	701	Sololá	2	El tablón	5	Mayo	2023-05-20T00:00:00	2024-11-06T23:00:00	2	Temperatura media	13.4
155314	7	Sololá	701	Sololá	2	El tablón	5	Mayo	2023-05-20T00:00:00	2024-11-06T23:00:00	4	Temperatura máxima	14
155315	7	Sololá	701	Sololá	2	El tablón	5	Mayo	2023-05-20T00:00:00	2024-11-06T23:00:00	3	Temperatura mínima	13.4
155316	7	Sololá	701	Sololá	2	El tablón	5	Mayo	2023-05-20T00:00:00	2024-11-06T23:00:00	5	Humedad	82
155317	7	Sololá	701	Sololá	2	El tablón	5	Mayo	2023-05-20T00:00:00	2024-11-06T23:00:00	6	Velocidad del viento	8
155318	7	Sololá	701	Sololá	2	El tablón	5	Mayo	2023-05-20T00:00:00	2024-11-06T23:00:00	7	Dirección del viento	8.05
155319	7	Sololá	701	Sololá	2	El tablón	5	Mayo	2023-05-20T00:00:00	2024-11-06T23:00:00	1	Precipitación	0
155320	7	Sololá	701	Sololá	2	El tablón	5	Mayo	2023-05-20T00:00:00	2024-11-06T23:00:00	8	Radiación solar	0
155321	7	Sololá	701	Sololá	2	El tablón	5	Mayo	2023-05-21T00:00:00	2024-11-06T00:00:00	2	Temperatura media	13.1
155322	7	Sololá	701	Sololá	2	El tablón	5	Mayo	2023-05-21T00:00:00	2024-11-06T00:00:00	4	Temperatura máxima	13.4
155323	7	Sololá	701	Sololá	2	El tablón	5	Mayo	2023-05-21T00:00:00	2024-11-06T00:00:00	3	Temperatura mínima	13.1
155324	7	Sololá	701	Sololá	2	El tablón	5	Mayo	2023-05-21T00:00:00	2024-11-06T00:00:00	5	Humedad	84
155325	7	Sololá	701	Sololá	2	El tablón	5	Mayo	2023-05-21T00:00:00	2024-11-06T00:00:00	6	Velocidad del viento	11.3
155326	7	Sololá	701	Sololá	2	El tablón	5	Mayo	2023-05-21T00:00:00	2024-11-06T00:00:00	7	Dirección del viento	11.27
155327	7	Sololá	701	Sololá	2	El tablón	5	Mayo	2023-05-21T00:00:00	2024-11-06T00:00:00	1	Precipitación	0
155328	7	Sololá	701	Sololá	2	El tablón	5	Mayo	2023-05-21T00:00:00	2024-11-06T00:00:00	8	Radiación solar	0
155329	7	Sololá	701	Sololá	2	El tablón	5	Mayo	2023-05-21T00:00:00	2024-11-06T01:00:00	2	Temperatura media	13.1
155330	7	Sololá	701	Sololá	2	El tablón	5	Mayo	2023-05-21T00:00:00	2024-11-06T01:00:00	4	Temperatura máxima	13.1
155331	7	Sololá	701	Sololá	2	El tablón	5	Mayo	2023-05-21T00:00:00	2024-11-06T01:00:00	3	Temperatura mínima	12.9
155332	7	Sololá	701	Sololá	2	El tablón	5	Mayo	2023-05-21T00:00:00	2024-11-06T01:00:00	5	Humedad	84
155333	7	Sololá	701	Sololá	2	El tablón	5	Mayo	2023-05-21T00:00:00	2024-11-06T01:00:00	6	Velocidad del viento	9.7
155334	7	Sololá	701	Sololá	2	El tablón	5	Mayo	2023-05-21T00:00:00	2024-11-06T01:00:00	7	Dirección del viento	9.66
155335	7	Sololá	701	Sololá	2	El tablón	5	Mayo	2023-05-21T00:00:00	2024-11-06T01:00:00	1	Precipitación	0
155336	7	Sololá	701	Sololá	2	El tablón	5	Mayo	2023-05-21T00:00:00	2024-11-06T01:00:00	8	Radiación solar	0
155337	7	Sololá	701	Sololá	2	El tablón	5	Mayo	2023-05-21T00:00:00	2024-11-06T02:00:00	2	Temperatura media	13.4
155338	7	Sololá	701	Sololá	2	El tablón	5	Mayo	2023-05-21T00:00:00	2024-11-06T02:00:00	4	Temperatura máxima	13.6
155339	7	Sololá	701	Sololá	2	El tablón	5	Mayo	2023-05-21T00:00:00	2024-11-06T02:00:00	3	Temperatura mínima	13.1
155340	7	Sololá	701	Sololá	2	El tablón	5	Mayo	2023-05-21T00:00:00	2024-11-06T02:00:00	5	Humedad	82
155341	7	Sololá	701	Sololá	2	El tablón	5	Mayo	2023-05-21T00:00:00	2024-11-06T02:00:00	6	Velocidad del viento	6.4
155342	7	Sololá	701	Sololá	2	El tablón	5	Mayo	2023-05-21T00:00:00	2024-11-06T02:00:00	7	Dirección del viento	6.44
155343	7	Sololá	701	Sololá	2	El tablón	5	Mayo	2023-05-21T00:00:00	2024-11-06T02:00:00	1	Precipitación	0
155344	7	Sololá	701	Sololá	2	El tablón	5	Mayo	2023-05-21T00:00:00	2024-11-06T02:00:00	8	Radiación solar	0
155345	7	Sololá	701	Sololá	2	El tablón	5	Mayo	2023-05-21T00:00:00	2024-11-06T03:00:00	2	Temperatura media	13.8
155346	7	Sololá	701	Sololá	2	El tablón	5	Mayo	2023-05-21T00:00:00	2024-11-06T03:00:00	4	Temperatura máxima	13.8
155347	7	Sololá	701	Sololá	2	El tablón	5	Mayo	2023-05-21T00:00:00	2024-11-06T03:00:00	3	Temperatura mínima	12.9
155348	7	Sololá	701	Sololá	2	El tablón	5	Mayo	2023-05-21T00:00:00	2024-11-06T03:00:00	5	Humedad	80
155349	7	Sololá	701	Sololá	2	El tablón	5	Mayo	2023-05-21T00:00:00	2024-11-06T03:00:00	6	Velocidad del viento	6.4
155350	7	Sololá	701	Sololá	2	El tablón	5	Mayo	2023-05-21T00:00:00	2024-11-06T03:00:00	7	Dirección del viento	6.44
155351	7	Sololá	701	Sololá	2	El tablón	5	Mayo	2023-05-21T00:00:00	2024-11-06T03:00:00	1	Precipitación	0
155352	7	Sololá	701	Sololá	2	El tablón	5	Mayo	2023-05-21T00:00:00	2024-11-06T03:00:00	8	Radiación solar	0
155353	7	Sololá	701	Sololá	2	El tablón	5	Mayo	2023-05-21T00:00:00	2024-11-06T04:00:00	2	Temperatura media	13.8
155354	7	Sololá	701	Sololá	2	El tablón	5	Mayo	2023-05-21T00:00:00	2024-11-06T04:00:00	4	Temperatura máxima	14.1
155355	7	Sololá	701	Sololá	2	El tablón	5	Mayo	2023-05-21T00:00:00	2024-11-06T04:00:00	3	Temperatura mínima	13.8
155356	7	Sololá	701	Sololá	2	El tablón	5	Mayo	2023-05-21T00:00:00	2024-11-06T04:00:00	5	Humedad	79
155357	7	Sololá	701	Sololá	2	El tablón	5	Mayo	2023-05-21T00:00:00	2024-11-06T04:00:00	6	Velocidad del viento	4.8
155358	7	Sololá	701	Sololá	2	El tablón	5	Mayo	2023-05-21T00:00:00	2024-11-06T04:00:00	7	Dirección del viento	4.83
155359	7	Sololá	701	Sololá	2	El tablón	5	Mayo	2023-05-21T00:00:00	2024-11-06T04:00:00	1	Precipitación	0
155360	7	Sololá	701	Sololá	2	El tablón	5	Mayo	2023-05-21T00:00:00	2024-11-06T04:00:00	8	Radiación solar	0
155361	7	Sololá	701	Sololá	2	El tablón	5	Mayo	2023-05-21T00:00:00	2024-11-06T05:00:00	2	Temperatura media	13.3
155362	7	Sololá	701	Sololá	2	El tablón	5	Mayo	2023-05-21T00:00:00	2024-11-06T05:00:00	4	Temperatura máxima	13.9
155363	7	Sololá	701	Sololá	2	El tablón	5	Mayo	2023-05-21T00:00:00	2024-11-06T05:00:00	3	Temperatura mínima	13.1
155364	7	Sololá	701	Sololá	2	El tablón	5	Mayo	2023-05-21T00:00:00	2024-11-06T05:00:00	5	Humedad	82
155365	7	Sololá	701	Sololá	2	El tablón	5	Mayo	2023-05-21T00:00:00	2024-11-06T05:00:00	6	Velocidad del viento	3.2
155366	7	Sololá	701	Sololá	2	El tablón	5	Mayo	2023-05-21T00:00:00	2024-11-06T05:00:00	7	Dirección del viento	3.22
155367	7	Sololá	701	Sololá	2	El tablón	5	Mayo	2023-05-21T00:00:00	2024-11-06T05:00:00	1	Precipitación	0
155368	7	Sololá	701	Sololá	2	El tablón	5	Mayo	2023-05-21T00:00:00	2024-11-06T05:00:00	8	Radiación solar	0
155369	7	Sololá	701	Sololá	2	El tablón	5	Mayo	2023-05-21T00:00:00	2024-11-06T06:00:00	2	Temperatura media	13.9
155370	7	Sololá	701	Sololá	2	El tablón	5	Mayo	2023-05-21T00:00:00	2024-11-06T06:00:00	4	Temperatura máxima	13.9
155371	7	Sololá	701	Sololá	2	El tablón	5	Mayo	2023-05-21T00:00:00	2024-11-06T06:00:00	3	Temperatura mínima	13.3
155372	7	Sololá	701	Sololá	2	El tablón	5	Mayo	2023-05-21T00:00:00	2024-11-06T06:00:00	5	Humedad	82
155373	7	Sololá	701	Sololá	2	El tablón	5	Mayo	2023-05-21T00:00:00	2024-11-06T06:00:00	6	Velocidad del viento	3.2
155374	7	Sololá	701	Sololá	2	El tablón	5	Mayo	2023-05-21T00:00:00	2024-11-06T06:00:00	7	Dirección del viento	3.22
155375	7	Sololá	701	Sololá	2	El tablón	5	Mayo	2023-05-21T00:00:00	2024-11-06T06:00:00	1	Precipitación	0
155376	7	Sololá	701	Sololá	2	El tablón	5	Mayo	2023-05-21T00:00:00	2024-11-06T06:00:00	8	Radiación solar	1
155377	7	Sololá	701	Sololá	2	El tablón	5	Mayo	2023-05-21T00:00:00	2024-11-06T07:00:00	2	Temperatura media	13.6
155378	7	Sololá	701	Sololá	2	El tablón	5	Mayo	2023-05-21T00:00:00	2024-11-06T07:00:00	4	Temperatura máxima	14.1
155379	7	Sololá	701	Sololá	2	El tablón	5	Mayo	2023-05-21T00:00:00	2024-11-06T07:00:00	3	Temperatura mínima	13.5
155380	7	Sololá	701	Sololá	2	El tablón	5	Mayo	2023-05-21T00:00:00	2024-11-06T07:00:00	5	Humedad	84
155381	7	Sololá	701	Sololá	2	El tablón	5	Mayo	2023-05-21T00:00:00	2024-11-06T07:00:00	6	Velocidad del viento	6.4
155382	7	Sololá	701	Sololá	2	El tablón	5	Mayo	2023-05-21T00:00:00	2024-11-06T07:00:00	7	Dirección del viento	6.44
155383	7	Sololá	701	Sololá	2	El tablón	5	Mayo	2023-05-21T00:00:00	2024-11-06T07:00:00	1	Precipitación	0
155384	7	Sololá	701	Sololá	2	El tablón	5	Mayo	2023-05-21T00:00:00	2024-11-06T07:00:00	8	Radiación solar	46
155385	7	Sololá	701	Sololá	2	El tablón	5	Mayo	2023-05-21T00:00:00	2024-11-06T08:00:00	2	Temperatura media	15.3
155386	7	Sololá	701	Sololá	2	El tablón	5	Mayo	2023-05-21T00:00:00	2024-11-06T08:00:00	4	Temperatura máxima	15.3
155387	7	Sololá	701	Sololá	2	El tablón	5	Mayo	2023-05-21T00:00:00	2024-11-06T08:00:00	3	Temperatura mínima	12.9
155388	7	Sololá	701	Sololá	2	El tablón	5	Mayo	2023-05-21T00:00:00	2024-11-06T08:00:00	5	Humedad	82
155389	7	Sololá	701	Sololá	2	El tablón	5	Mayo	2023-05-21T00:00:00	2024-11-06T08:00:00	6	Velocidad del viento	8
155390	7	Sololá	701	Sololá	2	El tablón	5	Mayo	2023-05-21T00:00:00	2024-11-06T08:00:00	7	Dirección del viento	8.05
155391	7	Sololá	701	Sololá	2	El tablón	5	Mayo	2023-05-21T00:00:00	2024-11-06T08:00:00	1	Precipitación	0
155392	7	Sololá	701	Sololá	2	El tablón	5	Mayo	2023-05-21T00:00:00	2024-11-06T08:00:00	8	Radiación solar	190
155393	7	Sololá	701	Sololá	2	El tablón	5	Mayo	2023-05-21T00:00:00	2024-11-06T09:00:00	2	Temperatura media	16.1
155394	7	Sololá	701	Sololá	2	El tablón	5	Mayo	2023-05-21T00:00:00	2024-11-06T09:00:00	4	Temperatura máxima	16.1
155395	7	Sololá	701	Sololá	2	El tablón	5	Mayo	2023-05-21T00:00:00	2024-11-06T09:00:00	3	Temperatura mínima	14.9
155396	7	Sololá	701	Sololá	2	El tablón	5	Mayo	2023-05-21T00:00:00	2024-11-06T09:00:00	5	Humedad	78
155397	7	Sololá	701	Sololá	2	El tablón	5	Mayo	2023-05-21T00:00:00	2024-11-06T09:00:00	6	Velocidad del viento	6.4
155398	7	Sololá	701	Sololá	2	El tablón	5	Mayo	2023-05-21T00:00:00	2024-11-06T09:00:00	7	Dirección del viento	6.44
155399	7	Sololá	701	Sololá	2	El tablón	5	Mayo	2023-05-21T00:00:00	2024-11-06T09:00:00	1	Precipitación	0
155400	7	Sololá	701	Sololá	2	El tablón	5	Mayo	2023-05-21T00:00:00	2024-11-06T09:00:00	8	Radiación solar	357
155401	7	Sololá	701	Sololá	2	El tablón	5	Mayo	2023-05-21T00:00:00	2024-11-06T10:00:00	2	Temperatura media	17.1
155402	7	Sololá	701	Sololá	2	El tablón	5	Mayo	2023-05-21T00:00:00	2024-11-06T10:00:00	4	Temperatura máxima	17.1
155403	7	Sololá	701	Sololá	2	El tablón	5	Mayo	2023-05-21T00:00:00	2024-11-06T10:00:00	3	Temperatura mínima	16.1
155404	7	Sololá	701	Sololá	2	El tablón	5	Mayo	2023-05-21T00:00:00	2024-11-06T10:00:00	5	Humedad	74
155405	7	Sololá	701	Sololá	2	El tablón	5	Mayo	2023-05-21T00:00:00	2024-11-06T10:00:00	6	Velocidad del viento	6.4
155406	7	Sololá	701	Sololá	2	El tablón	5	Mayo	2023-05-21T00:00:00	2024-11-06T10:00:00	7	Dirección del viento	6.44
155407	7	Sololá	701	Sololá	2	El tablón	5	Mayo	2023-05-21T00:00:00	2024-11-06T10:00:00	1	Precipitación	0
155408	7	Sololá	701	Sololá	2	El tablón	5	Mayo	2023-05-21T00:00:00	2024-11-06T10:00:00	8	Radiación solar	403
155409	7	Sololá	701	Sololá	2	El tablón	5	Mayo	2023-05-21T00:00:00	2024-11-06T11:00:00	2	Temperatura media	17.7
155410	7	Sololá	701	Sololá	2	El tablón	5	Mayo	2023-05-21T00:00:00	2024-11-06T11:00:00	4	Temperatura máxima	18.3
155411	7	Sololá	701	Sololá	2	El tablón	5	Mayo	2023-05-21T00:00:00	2024-11-06T11:00:00	3	Temperatura mínima	16.7
155412	7	Sololá	701	Sololá	2	El tablón	5	Mayo	2023-05-21T00:00:00	2024-11-06T11:00:00	5	Humedad	70
155413	7	Sololá	701	Sololá	2	El tablón	5	Mayo	2023-05-21T00:00:00	2024-11-06T11:00:00	6	Velocidad del viento	8
155414	7	Sololá	701	Sololá	2	El tablón	5	Mayo	2023-05-21T00:00:00	2024-11-06T11:00:00	7	Dirección del viento	8.05
155415	7	Sololá	701	Sololá	2	El tablón	5	Mayo	2023-05-21T00:00:00	2024-11-06T11:00:00	1	Precipitación	0
155416	7	Sololá	701	Sololá	2	El tablón	5	Mayo	2023-05-21T00:00:00	2024-11-06T11:00:00	8	Radiación solar	518
155417	7	Sololá	701	Sololá	2	El tablón	5	Mayo	2023-05-21T00:00:00	2024-11-06T12:00:00	2	Temperatura media	17.9
155418	7	Sololá	701	Sololá	2	El tablón	5	Mayo	2023-05-21T00:00:00	2024-11-06T12:00:00	4	Temperatura máxima	18.7
155419	7	Sololá	701	Sololá	2	El tablón	5	Mayo	2023-05-21T00:00:00	2024-11-06T12:00:00	3	Temperatura mínima	17.7
155420	7	Sololá	701	Sololá	2	El tablón	5	Mayo	2023-05-21T00:00:00	2024-11-06T12:00:00	5	Humedad	74
155421	7	Sololá	701	Sololá	2	El tablón	5	Mayo	2023-05-21T00:00:00	2024-11-06T12:00:00	6	Velocidad del viento	6.4
155422	7	Sololá	701	Sololá	2	El tablón	5	Mayo	2023-05-21T00:00:00	2024-11-06T12:00:00	7	Dirección del viento	6.44
155423	7	Sololá	701	Sololá	2	El tablón	5	Mayo	2023-05-21T00:00:00	2024-11-06T12:00:00	1	Precipitación	0
155424	7	Sololá	701	Sololá	2	El tablón	5	Mayo	2023-05-21T00:00:00	2024-11-06T12:00:00	8	Radiación solar	451
155425	7	Sololá	701	Sololá	2	El tablón	5	Mayo	2023-05-21T00:00:00	2024-11-06T13:00:00	2	Temperatura media	16.4
155426	7	Sololá	701	Sololá	2	El tablón	5	Mayo	2023-05-21T00:00:00	2024-11-06T13:00:00	4	Temperatura máxima	17.8
155427	7	Sololá	701	Sololá	2	El tablón	5	Mayo	2023-05-21T00:00:00	2024-11-06T13:00:00	3	Temperatura mínima	16.4
155428	7	Sololá	701	Sololá	2	El tablón	5	Mayo	2023-05-21T00:00:00	2024-11-06T13:00:00	5	Humedad	81
155429	7	Sololá	701	Sololá	2	El tablón	5	Mayo	2023-05-21T00:00:00	2024-11-06T13:00:00	6	Velocidad del viento	6.4
155430	7	Sololá	701	Sololá	2	El tablón	5	Mayo	2023-05-21T00:00:00	2024-11-06T13:00:00	7	Dirección del viento	6.44
155431	7	Sololá	701	Sololá	2	El tablón	5	Mayo	2023-05-21T00:00:00	2024-11-06T13:00:00	1	Precipitación	0
155432	7	Sololá	701	Sololá	2	El tablón	5	Mayo	2023-05-21T00:00:00	2024-11-06T13:00:00	8	Radiación solar	210
155433	7	Sololá	701	Sololá	2	El tablón	5	Mayo	2023-05-21T00:00:00	2024-11-06T14:00:00	2	Temperatura media	16.8
155434	7	Sololá	701	Sololá	2	El tablón	5	Mayo	2023-05-21T00:00:00	2024-11-06T14:00:00	4	Temperatura máxima	16.8
155435	7	Sololá	701	Sololá	2	El tablón	5	Mayo	2023-05-21T00:00:00	2024-11-06T14:00:00	3	Temperatura mínima	16.3
155436	7	Sololá	701	Sololá	2	El tablón	5	Mayo	2023-05-21T00:00:00	2024-11-06T14:00:00	5	Humedad	81
155437	7	Sololá	701	Sololá	2	El tablón	5	Mayo	2023-05-21T00:00:00	2024-11-06T14:00:00	6	Velocidad del viento	3.2
155438	7	Sololá	701	Sololá	2	El tablón	5	Mayo	2023-05-21T00:00:00	2024-11-06T14:00:00	7	Dirección del viento	3.22
155439	7	Sololá	701	Sololá	2	El tablón	5	Mayo	2023-05-21T00:00:00	2024-11-06T14:00:00	1	Precipitación	0
155440	7	Sololá	701	Sololá	2	El tablón	5	Mayo	2023-05-21T00:00:00	2024-11-06T14:00:00	8	Radiación solar	193
155441	7	Sololá	701	Sololá	2	El tablón	5	Mayo	2023-05-21T00:00:00	2024-11-06T15:00:00	2	Temperatura media	17.7
155442	7	Sololá	701	Sololá	2	El tablón	5	Mayo	2023-05-21T00:00:00	2024-11-06T15:00:00	4	Temperatura máxima	18.1
155443	7	Sololá	701	Sololá	2	El tablón	5	Mayo	2023-05-21T00:00:00	2024-11-06T15:00:00	3	Temperatura mínima	16.8
155444	7	Sololá	701	Sololá	2	El tablón	5	Mayo	2023-05-21T00:00:00	2024-11-06T15:00:00	5	Humedad	78
155445	7	Sololá	701	Sololá	2	El tablón	5	Mayo	2023-05-21T00:00:00	2024-11-06T15:00:00	6	Velocidad del viento	4.8
155446	7	Sololá	701	Sololá	2	El tablón	5	Mayo	2023-05-21T00:00:00	2024-11-06T15:00:00	7	Dirección del viento	4.83
155447	7	Sololá	701	Sololá	2	El tablón	5	Mayo	2023-05-21T00:00:00	2024-11-06T15:00:00	1	Precipitación	0
155448	7	Sololá	701	Sololá	2	El tablón	5	Mayo	2023-05-21T00:00:00	2024-11-06T15:00:00	8	Radiación solar	285
155449	7	Sololá	701	Sololá	2	El tablón	5	Mayo	2023-05-21T00:00:00	2024-11-06T16:00:00	2	Temperatura media	17.7
155450	7	Sololá	701	Sololá	2	El tablón	5	Mayo	2023-05-21T00:00:00	2024-11-06T16:00:00	4	Temperatura máxima	17.9
155451	7	Sololá	701	Sololá	2	El tablón	5	Mayo	2023-05-21T00:00:00	2024-11-06T16:00:00	3	Temperatura mínima	17.6
155452	7	Sololá	701	Sololá	2	El tablón	5	Mayo	2023-05-21T00:00:00	2024-11-06T16:00:00	5	Humedad	77
155453	7	Sololá	701	Sololá	2	El tablón	5	Mayo	2023-05-21T00:00:00	2024-11-06T16:00:00	6	Velocidad del viento	8
155454	7	Sololá	701	Sololá	2	El tablón	5	Mayo	2023-05-21T00:00:00	2024-11-06T16:00:00	7	Dirección del viento	8.05
155455	7	Sololá	701	Sololá	2	El tablón	5	Mayo	2023-05-21T00:00:00	2024-11-06T16:00:00	1	Precipitación	0
155456	7	Sololá	701	Sololá	2	El tablón	5	Mayo	2023-05-21T00:00:00	2024-11-06T16:00:00	8	Radiación solar	243
155457	7	Sololá	701	Sololá	2	El tablón	5	Mayo	2023-05-21T00:00:00	2024-11-06T17:00:00	2	Temperatura media	16.8
155458	7	Sololá	701	Sololá	2	El tablón	5	Mayo	2023-05-21T00:00:00	2024-11-06T17:00:00	4	Temperatura máxima	18.1
155459	7	Sololá	701	Sololá	2	El tablón	5	Mayo	2023-05-21T00:00:00	2024-11-06T17:00:00	3	Temperatura mínima	16.8
155460	7	Sololá	701	Sololá	2	El tablón	5	Mayo	2023-05-21T00:00:00	2024-11-06T17:00:00	5	Humedad	80
155461	7	Sololá	701	Sololá	2	El tablón	5	Mayo	2023-05-21T00:00:00	2024-11-06T17:00:00	6	Velocidad del viento	6.4
155462	7	Sololá	701	Sololá	2	El tablón	5	Mayo	2023-05-21T00:00:00	2024-11-06T17:00:00	7	Dirección del viento	6.44
155463	7	Sololá	701	Sololá	2	El tablón	5	Mayo	2023-05-21T00:00:00	2024-11-06T17:00:00	1	Precipitación	0
155464	7	Sololá	701	Sololá	2	El tablón	5	Mayo	2023-05-21T00:00:00	2024-11-06T17:00:00	8	Radiación solar	138
155465	7	Sololá	701	Sololá	2	El tablón	5	Mayo	2023-05-21T00:00:00	2024-11-06T18:00:00	2	Temperatura media	15.7
155466	7	Sololá	701	Sololá	2	El tablón	5	Mayo	2023-05-21T00:00:00	2024-11-06T18:00:00	4	Temperatura máxima	16.9
155467	7	Sololá	701	Sololá	2	El tablón	5	Mayo	2023-05-21T00:00:00	2024-11-06T18:00:00	3	Temperatura mínima	15.7
155468	7	Sololá	701	Sololá	2	El tablón	5	Mayo	2023-05-21T00:00:00	2024-11-06T18:00:00	5	Humedad	87
155469	7	Sololá	701	Sololá	2	El tablón	5	Mayo	2023-05-21T00:00:00	2024-11-06T18:00:00	6	Velocidad del viento	3.2
155470	7	Sololá	701	Sololá	2	El tablón	5	Mayo	2023-05-21T00:00:00	2024-11-06T18:00:00	7	Dirección del viento	3.22
155471	7	Sololá	701	Sololá	2	El tablón	5	Mayo	2023-05-21T00:00:00	2024-11-06T18:00:00	1	Precipitación	0
155472	7	Sololá	701	Sololá	2	El tablón	5	Mayo	2023-05-21T00:00:00	2024-11-06T18:00:00	8	Radiación solar	48
155473	7	Sololá	701	Sololá	2	El tablón	5	Mayo	2023-05-21T00:00:00	2024-11-06T19:00:00	2	Temperatura media	15.3
155474	7	Sololá	701	Sololá	2	El tablón	5	Mayo	2023-05-21T00:00:00	2024-11-06T19:00:00	4	Temperatura máxima	15.7
155475	7	Sololá	701	Sololá	2	El tablón	5	Mayo	2023-05-21T00:00:00	2024-11-06T19:00:00	3	Temperatura mínima	15.2
155476	7	Sololá	701	Sololá	2	El tablón	5	Mayo	2023-05-21T00:00:00	2024-11-06T19:00:00	5	Humedad	86
155477	7	Sololá	701	Sololá	2	El tablón	5	Mayo	2023-05-21T00:00:00	2024-11-06T19:00:00	6	Velocidad del viento	1.6
155478	7	Sololá	701	Sololá	2	El tablón	5	Mayo	2023-05-21T00:00:00	2024-11-06T19:00:00	7	Dirección del viento	1.61
155479	7	Sololá	701	Sololá	2	El tablón	5	Mayo	2023-05-21T00:00:00	2024-11-06T19:00:00	1	Precipitación	0
155480	7	Sololá	701	Sololá	2	El tablón	5	Mayo	2023-05-21T00:00:00	2024-11-06T19:00:00	8	Radiación solar	0
155481	7	Sololá	701	Sololá	2	El tablón	5	Mayo	2023-05-21T00:00:00	2024-11-06T20:00:00	2	Temperatura media	15.1
155482	7	Sololá	701	Sololá	2	El tablón	5	Mayo	2023-05-21T00:00:00	2024-11-06T20:00:00	4	Temperatura máxima	15.3
155483	7	Sololá	701	Sololá	2	El tablón	5	Mayo	2023-05-21T00:00:00	2024-11-06T20:00:00	3	Temperatura mínima	15.1
155484	7	Sololá	701	Sololá	2	El tablón	5	Mayo	2023-05-21T00:00:00	2024-11-06T20:00:00	5	Humedad	86
155485	7	Sololá	701	Sololá	2	El tablón	5	Mayo	2023-05-21T00:00:00	2024-11-06T20:00:00	6	Velocidad del viento	6.4
155486	7	Sololá	701	Sololá	2	El tablón	5	Mayo	2023-05-21T00:00:00	2024-11-06T20:00:00	7	Dirección del viento	6.44
155487	7	Sololá	701	Sololá	2	El tablón	5	Mayo	2023-05-21T00:00:00	2024-11-06T20:00:00	1	Precipitación	0
155488	7	Sololá	701	Sololá	2	El tablón	5	Mayo	2023-05-21T00:00:00	2024-11-06T20:00:00	8	Radiación solar	0
155489	7	Sololá	701	Sololá	2	El tablón	5	Mayo	2023-05-21T00:00:00	2024-11-06T21:00:00	2	Temperatura media	14.3
155490	7	Sololá	701	Sololá	2	El tablón	5	Mayo	2023-05-21T00:00:00	2024-11-06T21:00:00	4	Temperatura máxima	15.1
155491	7	Sololá	701	Sololá	2	El tablón	5	Mayo	2023-05-21T00:00:00	2024-11-06T21:00:00	3	Temperatura mínima	14.3
155492	7	Sololá	701	Sololá	2	El tablón	5	Mayo	2023-05-21T00:00:00	2024-11-06T21:00:00	5	Humedad	88
155493	7	Sololá	701	Sololá	2	El tablón	5	Mayo	2023-05-21T00:00:00	2024-11-06T21:00:00	6	Velocidad del viento	6.4
155494	7	Sololá	701	Sololá	2	El tablón	5	Mayo	2023-05-21T00:00:00	2024-11-06T21:00:00	7	Dirección del viento	6.44
155495	7	Sololá	701	Sololá	2	El tablón	5	Mayo	2023-05-21T00:00:00	2024-11-06T21:00:00	1	Precipitación	0
155496	7	Sololá	701	Sololá	2	El tablón	5	Mayo	2023-05-21T00:00:00	2024-11-06T21:00:00	8	Radiación solar	0
155497	7	Sololá	701	Sololá	2	El tablón	5	Mayo	2023-05-21T00:00:00	2024-11-06T22:00:00	2	Temperatura media	14
155498	7	Sololá	701	Sololá	2	El tablón	5	Mayo	2023-05-21T00:00:00	2024-11-06T22:00:00	4	Temperatura máxima	14.3
155499	7	Sololá	701	Sololá	2	El tablón	5	Mayo	2023-05-21T00:00:00	2024-11-06T22:00:00	3	Temperatura mínima	13.8
155500	7	Sololá	701	Sololá	2	El tablón	5	Mayo	2023-05-21T00:00:00	2024-11-06T22:00:00	5	Humedad	86
155501	7	Sololá	701	Sololá	2	El tablón	5	Mayo	2023-05-21T00:00:00	2024-11-06T22:00:00	6	Velocidad del viento	8
155502	7	Sololá	701	Sololá	2	El tablón	5	Mayo	2023-05-21T00:00:00	2024-11-06T22:00:00	7	Dirección del viento	8.05
155503	7	Sololá	701	Sololá	2	El tablón	5	Mayo	2023-05-21T00:00:00	2024-11-06T22:00:00	1	Precipitación	0
155504	7	Sololá	701	Sololá	2	El tablón	5	Mayo	2023-05-21T00:00:00	2024-11-06T22:00:00	8	Radiación solar	0
155505	7	Sololá	701	Sololá	2	El tablón	5	Mayo	2023-05-21T00:00:00	2024-11-06T23:00:00	2	Temperatura media	13.7
155506	7	Sololá	701	Sololá	2	El tablón	5	Mayo	2023-05-21T00:00:00	2024-11-06T23:00:00	4	Temperatura máxima	14
155507	7	Sololá	701	Sololá	2	El tablón	5	Mayo	2023-05-21T00:00:00	2024-11-06T23:00:00	3	Temperatura mínima	13.7
155508	7	Sololá	701	Sololá	2	El tablón	5	Mayo	2023-05-21T00:00:00	2024-11-06T23:00:00	5	Humedad	87
155509	7	Sololá	701	Sololá	2	El tablón	5	Mayo	2023-05-21T00:00:00	2024-11-06T23:00:00	6	Velocidad del viento	6.4
155510	7	Sololá	701	Sololá	2	El tablón	5	Mayo	2023-05-21T00:00:00	2024-11-06T23:00:00	7	Dirección del viento	6.44
155511	7	Sololá	701	Sololá	2	El tablón	5	Mayo	2023-05-21T00:00:00	2024-11-06T23:00:00	1	Precipitación	0
155512	7	Sololá	701	Sololá	2	El tablón	5	Mayo	2023-05-21T00:00:00	2024-11-06T23:00:00	8	Radiación solar	0
155513	7	Sololá	701	Sololá	2	El tablón	5	Mayo	2023-05-22T00:00:00	2024-11-06T00:00:00	2	Temperatura media	13.4
155514	7	Sololá	701	Sololá	2	El tablón	5	Mayo	2023-05-22T00:00:00	2024-11-06T00:00:00	4	Temperatura máxima	13.7
155515	7	Sololá	701	Sololá	2	El tablón	5	Mayo	2023-05-22T00:00:00	2024-11-06T00:00:00	3	Temperatura mínima	13.4
155516	7	Sololá	701	Sololá	2	El tablón	5	Mayo	2023-05-22T00:00:00	2024-11-06T00:00:00	5	Humedad	88
155517	7	Sololá	701	Sololá	2	El tablón	5	Mayo	2023-05-22T00:00:00	2024-11-06T00:00:00	6	Velocidad del viento	4.8
155518	7	Sololá	701	Sololá	2	El tablón	5	Mayo	2023-05-22T00:00:00	2024-11-06T00:00:00	7	Dirección del viento	4.83
155519	7	Sololá	701	Sololá	2	El tablón	5	Mayo	2023-05-22T00:00:00	2024-11-06T00:00:00	1	Precipitación	0
155520	7	Sololá	701	Sololá	2	El tablón	5	Mayo	2023-05-22T00:00:00	2024-11-06T00:00:00	8	Radiación solar	0
155521	7	Sololá	701	Sololá	2	El tablón	5	Mayo	2023-05-22T00:00:00	2024-11-06T01:00:00	2	Temperatura media	13.6
155522	7	Sololá	701	Sololá	2	El tablón	5	Mayo	2023-05-22T00:00:00	2024-11-06T01:00:00	4	Temperatura máxima	13.7
155523	7	Sololá	701	Sololá	2	El tablón	5	Mayo	2023-05-22T00:00:00	2024-11-06T01:00:00	3	Temperatura mínima	13.4
155524	7	Sololá	701	Sololá	2	El tablón	5	Mayo	2023-05-22T00:00:00	2024-11-06T01:00:00	5	Humedad	87
155525	7	Sololá	701	Sololá	2	El tablón	5	Mayo	2023-05-22T00:00:00	2024-11-06T01:00:00	6	Velocidad del viento	4.8
155526	7	Sololá	701	Sololá	2	El tablón	5	Mayo	2023-05-22T00:00:00	2024-11-06T01:00:00	7	Dirección del viento	4.83
155527	7	Sololá	701	Sololá	2	El tablón	5	Mayo	2023-05-22T00:00:00	2024-11-06T01:00:00	1	Precipitación	0
155528	7	Sololá	701	Sololá	2	El tablón	5	Mayo	2023-05-22T00:00:00	2024-11-06T01:00:00	8	Radiación solar	0
155529	7	Sololá	701	Sololá	2	El tablón	5	Mayo	2023-05-22T00:00:00	2024-11-06T02:00:00	2	Temperatura media	13.7
155530	7	Sololá	701	Sololá	2	El tablón	5	Mayo	2023-05-22T00:00:00	2024-11-06T02:00:00	4	Temperatura máxima	13.8
155531	7	Sololá	701	Sololá	2	El tablón	5	Mayo	2023-05-22T00:00:00	2024-11-06T02:00:00	3	Temperatura mínima	13.6
155532	7	Sololá	701	Sololá	2	El tablón	5	Mayo	2023-05-22T00:00:00	2024-11-06T02:00:00	5	Humedad	87
155533	7	Sololá	701	Sololá	2	El tablón	5	Mayo	2023-05-22T00:00:00	2024-11-06T02:00:00	6	Velocidad del viento	4.8
155534	7	Sololá	701	Sololá	2	El tablón	5	Mayo	2023-05-22T00:00:00	2024-11-06T02:00:00	7	Dirección del viento	4.83
155535	7	Sololá	701	Sololá	2	El tablón	5	Mayo	2023-05-22T00:00:00	2024-11-06T02:00:00	1	Precipitación	0
155536	7	Sololá	701	Sololá	2	El tablón	5	Mayo	2023-05-22T00:00:00	2024-11-06T02:00:00	8	Radiación solar	0
155537	7	Sololá	701	Sololá	2	El tablón	5	Mayo	2023-05-22T00:00:00	2024-11-06T03:00:00	2	Temperatura media	13.5
155538	7	Sololá	701	Sololá	2	El tablón	5	Mayo	2023-05-22T00:00:00	2024-11-06T03:00:00	4	Temperatura máxima	13.9
155539	7	Sololá	701	Sololá	2	El tablón	5	Mayo	2023-05-22T00:00:00	2024-11-06T03:00:00	3	Temperatura mínima	13.5
155540	7	Sololá	701	Sololá	2	El tablón	5	Mayo	2023-05-22T00:00:00	2024-11-06T03:00:00	5	Humedad	88
155541	7	Sololá	701	Sololá	2	El tablón	5	Mayo	2023-05-22T00:00:00	2024-11-06T03:00:00	6	Velocidad del viento	1.6
155542	7	Sololá	701	Sololá	2	El tablón	5	Mayo	2023-05-22T00:00:00	2024-11-06T03:00:00	7	Dirección del viento	1.61
155543	7	Sololá	701	Sololá	2	El tablón	5	Mayo	2023-05-22T00:00:00	2024-11-06T03:00:00	1	Precipitación	0
155544	7	Sololá	701	Sololá	2	El tablón	5	Mayo	2023-05-22T00:00:00	2024-11-06T03:00:00	8	Radiación solar	0
155545	7	Sololá	701	Sololá	2	El tablón	5	Mayo	2023-05-22T00:00:00	2024-11-06T04:00:00	2	Temperatura media	13.7
155546	7	Sololá	701	Sololá	2	El tablón	5	Mayo	2023-05-22T00:00:00	2024-11-06T04:00:00	4	Temperatura máxima	13.7
155547	7	Sololá	701	Sololá	2	El tablón	5	Mayo	2023-05-22T00:00:00	2024-11-06T04:00:00	3	Temperatura mínima	13.4
155548	7	Sololá	701	Sololá	2	El tablón	5	Mayo	2023-05-22T00:00:00	2024-11-06T04:00:00	5	Humedad	87
155549	7	Sololá	701	Sololá	2	El tablón	5	Mayo	2023-05-22T00:00:00	2024-11-06T04:00:00	6	Velocidad del viento	4.8
155550	7	Sololá	701	Sololá	2	El tablón	5	Mayo	2023-05-22T00:00:00	2024-11-06T04:00:00	7	Dirección del viento	4.83
155551	7	Sololá	701	Sololá	2	El tablón	5	Mayo	2023-05-22T00:00:00	2024-11-06T04:00:00	1	Precipitación	0
155552	7	Sololá	701	Sololá	2	El tablón	5	Mayo	2023-05-22T00:00:00	2024-11-06T04:00:00	8	Radiación solar	0
155553	7	Sololá	701	Sololá	2	El tablón	5	Mayo	2023-05-22T00:00:00	2024-11-06T05:00:00	2	Temperatura media	13.2
155554	7	Sololá	701	Sololá	2	El tablón	5	Mayo	2023-05-22T00:00:00	2024-11-06T05:00:00	4	Temperatura máxima	13.8
155555	7	Sololá	701	Sololá	2	El tablón	5	Mayo	2023-05-22T00:00:00	2024-11-06T05:00:00	3	Temperatura mínima	13.2
155556	7	Sololá	701	Sololá	2	El tablón	5	Mayo	2023-05-22T00:00:00	2024-11-06T05:00:00	5	Humedad	88
155557	7	Sololá	701	Sololá	2	El tablón	5	Mayo	2023-05-22T00:00:00	2024-11-06T05:00:00	6	Velocidad del viento	1.6
155558	7	Sololá	701	Sololá	2	El tablón	5	Mayo	2023-05-22T00:00:00	2024-11-06T05:00:00	7	Dirección del viento	1.61
155559	7	Sololá	701	Sololá	2	El tablón	5	Mayo	2023-05-22T00:00:00	2024-11-06T05:00:00	1	Precipitación	0.2
155560	7	Sololá	701	Sololá	2	El tablón	5	Mayo	2023-05-22T00:00:00	2024-11-06T05:00:00	8	Radiación solar	0
155561	7	Sololá	701	Sololá	2	El tablón	5	Mayo	2023-05-22T00:00:00	2024-11-06T06:00:00	2	Temperatura media	12.8
155562	7	Sololá	701	Sololá	2	El tablón	5	Mayo	2023-05-22T00:00:00	2024-11-06T06:00:00	4	Temperatura máxima	13.2
155563	7	Sololá	701	Sololá	2	El tablón	5	Mayo	2023-05-22T00:00:00	2024-11-06T06:00:00	3	Temperatura mínima	12.8
155564	7	Sololá	701	Sololá	2	El tablón	5	Mayo	2023-05-22T00:00:00	2024-11-06T06:00:00	5	Humedad	88
155565	7	Sololá	701	Sololá	2	El tablón	5	Mayo	2023-05-22T00:00:00	2024-11-06T06:00:00	6	Velocidad del viento	0
155566	7	Sololá	701	Sololá	2	El tablón	5	Mayo	2023-05-22T00:00:00	2024-11-06T06:00:00	7	Dirección del viento	0
155567	7	Sololá	701	Sololá	2	El tablón	5	Mayo	2023-05-22T00:00:00	2024-11-06T06:00:00	1	Precipitación	0
155568	7	Sololá	701	Sololá	2	El tablón	5	Mayo	2023-05-22T00:00:00	2024-11-06T06:00:00	8	Radiación solar	3
155569	7	Sololá	701	Sololá	2	El tablón	5	Mayo	2023-05-22T00:00:00	2024-11-06T07:00:00	2	Temperatura media	13.5
155570	7	Sololá	701	Sololá	2	El tablón	5	Mayo	2023-05-22T00:00:00	2024-11-06T07:00:00	4	Temperatura máxima	13.5
155571	7	Sololá	701	Sololá	2	El tablón	5	Mayo	2023-05-22T00:00:00	2024-11-06T07:00:00	3	Temperatura mínima	12.8
155572	7	Sololá	701	Sololá	2	El tablón	5	Mayo	2023-05-22T00:00:00	2024-11-06T07:00:00	5	Humedad	88
155573	7	Sololá	701	Sololá	2	El tablón	5	Mayo	2023-05-22T00:00:00	2024-11-06T07:00:00	6	Velocidad del viento	0
155574	7	Sololá	701	Sololá	2	El tablón	5	Mayo	2023-05-22T00:00:00	2024-11-06T07:00:00	7	Dirección del viento	0
155575	7	Sololá	701	Sololá	2	El tablón	5	Mayo	2023-05-22T00:00:00	2024-11-06T07:00:00	1	Precipitación	0.2
155576	7	Sololá	701	Sololá	2	El tablón	5	Mayo	2023-05-22T00:00:00	2024-11-06T07:00:00	8	Radiación solar	63
155577	7	Sololá	701	Sololá	2	El tablón	5	Mayo	2023-05-22T00:00:00	2024-11-06T08:00:00	2	Temperatura media	14.8
155578	7	Sololá	701	Sololá	2	El tablón	5	Mayo	2023-05-22T00:00:00	2024-11-06T08:00:00	4	Temperatura máxima	14.8
155579	7	Sololá	701	Sololá	2	El tablón	5	Mayo	2023-05-22T00:00:00	2024-11-06T08:00:00	3	Temperatura mínima	13.5
155580	7	Sololá	701	Sololá	2	El tablón	5	Mayo	2023-05-22T00:00:00	2024-11-06T08:00:00	5	Humedad	87
155581	7	Sololá	701	Sololá	2	El tablón	5	Mayo	2023-05-22T00:00:00	2024-11-06T08:00:00	6	Velocidad del viento	0
155582	7	Sololá	701	Sololá	2	El tablón	5	Mayo	2023-05-22T00:00:00	2024-11-06T08:00:00	7	Dirección del viento	0
155583	7	Sololá	701	Sololá	2	El tablón	5	Mayo	2023-05-22T00:00:00	2024-11-06T08:00:00	1	Precipitación	0
155584	7	Sololá	701	Sololá	2	El tablón	5	Mayo	2023-05-22T00:00:00	2024-11-06T08:00:00	8	Radiación solar	138
155585	7	Sololá	701	Sololá	2	El tablón	5	Mayo	2023-05-22T00:00:00	2024-11-06T09:00:00	2	Temperatura media	17
155586	7	Sololá	701	Sololá	2	El tablón	5	Mayo	2023-05-22T00:00:00	2024-11-06T09:00:00	4	Temperatura máxima	17
155587	7	Sololá	701	Sololá	2	El tablón	5	Mayo	2023-05-22T00:00:00	2024-11-06T09:00:00	3	Temperatura mínima	14.8
155588	7	Sololá	701	Sololá	2	El tablón	5	Mayo	2023-05-22T00:00:00	2024-11-06T09:00:00	5	Humedad	80
155589	7	Sololá	701	Sololá	2	El tablón	5	Mayo	2023-05-22T00:00:00	2024-11-06T09:00:00	6	Velocidad del viento	3.2
155590	7	Sololá	701	Sololá	2	El tablón	5	Mayo	2023-05-22T00:00:00	2024-11-06T09:00:00	7	Dirección del viento	3.22
155591	7	Sololá	701	Sololá	2	El tablón	5	Mayo	2023-05-22T00:00:00	2024-11-06T09:00:00	1	Precipitación	0
155592	7	Sololá	701	Sololá	2	El tablón	5	Mayo	2023-05-22T00:00:00	2024-11-06T09:00:00	8	Radiación solar	321
155593	7	Sololá	701	Sololá	2	El tablón	5	Mayo	2023-05-22T00:00:00	2024-11-06T10:00:00	2	Temperatura media	18.8
155594	7	Sololá	701	Sololá	2	El tablón	5	Mayo	2023-05-22T00:00:00	2024-11-06T10:00:00	4	Temperatura máxima	18.8
155595	7	Sololá	701	Sololá	2	El tablón	5	Mayo	2023-05-22T00:00:00	2024-11-06T10:00:00	3	Temperatura mínima	17
155596	7	Sololá	701	Sololá	2	El tablón	5	Mayo	2023-05-22T00:00:00	2024-11-06T10:00:00	5	Humedad	74
155597	7	Sololá	701	Sololá	2	El tablón	5	Mayo	2023-05-22T00:00:00	2024-11-06T10:00:00	6	Velocidad del viento	6.4
155598	7	Sololá	701	Sololá	2	El tablón	5	Mayo	2023-05-22T00:00:00	2024-11-06T10:00:00	7	Dirección del viento	6.44
155599	7	Sololá	701	Sololá	2	El tablón	5	Mayo	2023-05-22T00:00:00	2024-11-06T10:00:00	1	Precipitación	0
155600	7	Sololá	701	Sololá	2	El tablón	5	Mayo	2023-05-22T00:00:00	2024-11-06T10:00:00	8	Radiación solar	734
155601	7	Sololá	701	Sololá	2	El tablón	5	Mayo	2023-05-22T00:00:00	2024-11-06T11:00:00	2	Temperatura media	19.9
155602	7	Sololá	701	Sololá	2	El tablón	5	Mayo	2023-05-22T00:00:00	2024-11-06T11:00:00	4	Temperatura máxima	19.9
155603	7	Sololá	701	Sololá	2	El tablón	5	Mayo	2023-05-22T00:00:00	2024-11-06T11:00:00	3	Temperatura mínima	18.8
155604	7	Sololá	701	Sololá	2	El tablón	5	Mayo	2023-05-22T00:00:00	2024-11-06T11:00:00	5	Humedad	71
155605	7	Sololá	701	Sololá	2	El tablón	5	Mayo	2023-05-22T00:00:00	2024-11-06T11:00:00	6	Velocidad del viento	9.7
155606	7	Sololá	701	Sololá	2	El tablón	5	Mayo	2023-05-22T00:00:00	2024-11-06T11:00:00	7	Dirección del viento	9.66
155607	7	Sololá	701	Sololá	2	El tablón	5	Mayo	2023-05-22T00:00:00	2024-11-06T11:00:00	1	Precipitación	0
155608	7	Sololá	701	Sololá	2	El tablón	5	Mayo	2023-05-22T00:00:00	2024-11-06T11:00:00	8	Radiación solar	932
155609	7	Sololá	701	Sololá	2	El tablón	5	Mayo	2023-05-22T00:00:00	2024-11-06T12:00:00	2	Temperatura media	17.8
155610	7	Sololá	701	Sololá	2	El tablón	5	Mayo	2023-05-22T00:00:00	2024-11-06T12:00:00	4	Temperatura máxima	20.1
155611	7	Sololá	701	Sololá	2	El tablón	5	Mayo	2023-05-22T00:00:00	2024-11-06T12:00:00	3	Temperatura mínima	17.8
155612	7	Sololá	701	Sololá	2	El tablón	5	Mayo	2023-05-22T00:00:00	2024-11-06T12:00:00	5	Humedad	83
155613	7	Sololá	701	Sololá	2	El tablón	5	Mayo	2023-05-22T00:00:00	2024-11-06T12:00:00	6	Velocidad del viento	8
155614	7	Sololá	701	Sololá	2	El tablón	5	Mayo	2023-05-22T00:00:00	2024-11-06T12:00:00	7	Dirección del viento	8.05
155615	7	Sololá	701	Sololá	2	El tablón	5	Mayo	2023-05-22T00:00:00	2024-11-06T12:00:00	1	Precipitación	0
155616	7	Sololá	701	Sololá	2	El tablón	5	Mayo	2023-05-22T00:00:00	2024-11-06T12:00:00	8	Radiación solar	573
155617	7	Sololá	701	Sololá	2	El tablón	5	Mayo	2023-05-22T00:00:00	2024-11-06T13:00:00	2	Temperatura media	17.7
155618	7	Sololá	701	Sololá	2	El tablón	5	Mayo	2023-05-22T00:00:00	2024-11-06T13:00:00	4	Temperatura máxima	17.8
155619	7	Sololá	701	Sololá	2	El tablón	5	Mayo	2023-05-22T00:00:00	2024-11-06T13:00:00	3	Temperatura mínima	16.9
155620	7	Sololá	701	Sololá	2	El tablón	5	Mayo	2023-05-22T00:00:00	2024-11-06T13:00:00	5	Humedad	86
155621	7	Sololá	701	Sololá	2	El tablón	5	Mayo	2023-05-22T00:00:00	2024-11-06T13:00:00	6	Velocidad del viento	6.4
155622	7	Sololá	701	Sololá	2	El tablón	5	Mayo	2023-05-22T00:00:00	2024-11-06T13:00:00	7	Dirección del viento	6.44
155623	7	Sololá	701	Sololá	2	El tablón	5	Mayo	2023-05-22T00:00:00	2024-11-06T13:00:00	1	Precipitación	0
155624	7	Sololá	701	Sololá	2	El tablón	5	Mayo	2023-05-22T00:00:00	2024-11-06T13:00:00	8	Radiación solar	325
155625	7	Sololá	701	Sololá	2	El tablón	5	Mayo	2023-05-22T00:00:00	2024-11-06T14:00:00	2	Temperatura media	17
155626	7	Sololá	701	Sololá	2	El tablón	5	Mayo	2023-05-22T00:00:00	2024-11-06T14:00:00	4	Temperatura máxima	17.7
155627	7	Sololá	701	Sololá	2	El tablón	5	Mayo	2023-05-22T00:00:00	2024-11-06T14:00:00	3	Temperatura mínima	16.7
155628	7	Sololá	701	Sololá	2	El tablón	5	Mayo	2023-05-22T00:00:00	2024-11-06T14:00:00	5	Humedad	87
155629	7	Sololá	701	Sololá	2	El tablón	5	Mayo	2023-05-22T00:00:00	2024-11-06T14:00:00	6	Velocidad del viento	8
155630	7	Sololá	701	Sololá	2	El tablón	5	Mayo	2023-05-22T00:00:00	2024-11-06T14:00:00	7	Dirección del viento	8.05
155631	7	Sololá	701	Sololá	2	El tablón	5	Mayo	2023-05-22T00:00:00	2024-11-06T14:00:00	1	Precipitación	0
155632	7	Sololá	701	Sololá	2	El tablón	5	Mayo	2023-05-22T00:00:00	2024-11-06T14:00:00	8	Radiación solar	269
155633	7	Sololá	701	Sololá	2	El tablón	5	Mayo	2023-05-22T00:00:00	2024-11-06T15:00:00	2	Temperatura media	16.5
155634	7	Sololá	701	Sololá	2	El tablón	5	Mayo	2023-05-22T00:00:00	2024-11-06T15:00:00	4	Temperatura máxima	17.2
155635	7	Sololá	701	Sololá	2	El tablón	5	Mayo	2023-05-22T00:00:00	2024-11-06T15:00:00	3	Temperatura mínima	16.2
155636	7	Sololá	701	Sololá	2	El tablón	5	Mayo	2023-05-22T00:00:00	2024-11-06T15:00:00	5	Humedad	88
155637	7	Sololá	701	Sololá	2	El tablón	5	Mayo	2023-05-22T00:00:00	2024-11-06T15:00:00	6	Velocidad del viento	6.4
155638	7	Sololá	701	Sololá	2	El tablón	5	Mayo	2023-05-22T00:00:00	2024-11-06T15:00:00	7	Dirección del viento	6.44
155639	7	Sololá	701	Sololá	2	El tablón	5	Mayo	2023-05-22T00:00:00	2024-11-06T15:00:00	1	Precipitación	0
155640	7	Sololá	701	Sololá	2	El tablón	5	Mayo	2023-05-22T00:00:00	2024-11-06T15:00:00	8	Radiación solar	192
155641	7	Sololá	701	Sololá	2	El tablón	5	Mayo	2023-05-22T00:00:00	2024-11-06T16:00:00	2	Temperatura media	17.5
155642	7	Sololá	701	Sololá	2	El tablón	5	Mayo	2023-05-22T00:00:00	2024-11-06T16:00:00	4	Temperatura máxima	18.3
155643	7	Sololá	701	Sololá	2	El tablón	5	Mayo	2023-05-22T00:00:00	2024-11-06T16:00:00	3	Temperatura mínima	16.3
155644	7	Sololá	701	Sololá	2	El tablón	5	Mayo	2023-05-22T00:00:00	2024-11-06T16:00:00	5	Humedad	86
155645	7	Sololá	701	Sololá	2	El tablón	5	Mayo	2023-05-22T00:00:00	2024-11-06T16:00:00	6	Velocidad del viento	4.8
155646	7	Sololá	701	Sololá	2	El tablón	5	Mayo	2023-05-22T00:00:00	2024-11-06T16:00:00	7	Dirección del viento	4.83
155647	7	Sololá	701	Sololá	2	El tablón	5	Mayo	2023-05-22T00:00:00	2024-11-06T16:00:00	1	Precipitación	0
155648	7	Sololá	701	Sololá	2	El tablón	5	Mayo	2023-05-22T00:00:00	2024-11-06T16:00:00	8	Radiación solar	232
155649	7	Sololá	701	Sololá	2	El tablón	5	Mayo	2023-05-22T00:00:00	2024-11-06T17:00:00	2	Temperatura media	17.1
155650	7	Sololá	701	Sololá	2	El tablón	5	Mayo	2023-05-22T00:00:00	2024-11-06T17:00:00	4	Temperatura máxima	17.5
155651	7	Sololá	701	Sololá	2	El tablón	5	Mayo	2023-05-22T00:00:00	2024-11-06T17:00:00	3	Temperatura mínima	16.8
155652	7	Sololá	701	Sololá	2	El tablón	5	Mayo	2023-05-22T00:00:00	2024-11-06T17:00:00	5	Humedad	80
155653	7	Sololá	701	Sololá	2	El tablón	5	Mayo	2023-05-22T00:00:00	2024-11-06T17:00:00	6	Velocidad del viento	4.8
155654	7	Sololá	701	Sololá	2	El tablón	5	Mayo	2023-05-22T00:00:00	2024-11-06T17:00:00	7	Dirección del viento	4.83
155655	7	Sololá	701	Sololá	2	El tablón	5	Mayo	2023-05-22T00:00:00	2024-11-06T17:00:00	1	Precipitación	0
155656	7	Sololá	701	Sololá	2	El tablón	5	Mayo	2023-05-22T00:00:00	2024-11-06T17:00:00	8	Radiación solar	116
155657	7	Sololá	701	Sololá	2	El tablón	5	Mayo	2023-05-22T00:00:00	2024-11-06T18:00:00	2	Temperatura media	16.1
155658	7	Sololá	701	Sololá	2	El tablón	5	Mayo	2023-05-22T00:00:00	2024-11-06T18:00:00	4	Temperatura máxima	17.1
155659	7	Sololá	701	Sololá	2	El tablón	5	Mayo	2023-05-22T00:00:00	2024-11-06T18:00:00	3	Temperatura mínima	16.1
155660	7	Sololá	701	Sololá	2	El tablón	5	Mayo	2023-05-22T00:00:00	2024-11-06T18:00:00	5	Humedad	83
155661	7	Sololá	701	Sololá	2	El tablón	5	Mayo	2023-05-22T00:00:00	2024-11-06T18:00:00	6	Velocidad del viento	6.4
155662	7	Sololá	701	Sololá	2	El tablón	5	Mayo	2023-05-22T00:00:00	2024-11-06T18:00:00	7	Dirección del viento	6.44
155663	7	Sololá	701	Sololá	2	El tablón	5	Mayo	2023-05-22T00:00:00	2024-11-06T18:00:00	1	Precipitación	0
155664	7	Sololá	701	Sololá	2	El tablón	5	Mayo	2023-05-22T00:00:00	2024-11-06T18:00:00	8	Radiación solar	62
155665	7	Sololá	701	Sololá	2	El tablón	5	Mayo	2023-05-22T00:00:00	2024-11-06T19:00:00	2	Temperatura media	15.5
155666	7	Sololá	701	Sololá	2	El tablón	5	Mayo	2023-05-22T00:00:00	2024-11-06T19:00:00	4	Temperatura máxima	16.1
155667	7	Sololá	701	Sololá	2	El tablón	5	Mayo	2023-05-22T00:00:00	2024-11-06T19:00:00	3	Temperatura mínima	15.4
155668	7	Sololá	701	Sololá	2	El tablón	5	Mayo	2023-05-22T00:00:00	2024-11-06T19:00:00	5	Humedad	85
155669	7	Sololá	701	Sololá	2	El tablón	5	Mayo	2023-05-22T00:00:00	2024-11-06T19:00:00	6	Velocidad del viento	4.8
155670	7	Sololá	701	Sololá	2	El tablón	5	Mayo	2023-05-22T00:00:00	2024-11-06T19:00:00	7	Dirección del viento	4.83
155671	7	Sololá	701	Sololá	2	El tablón	5	Mayo	2023-05-22T00:00:00	2024-11-06T19:00:00	1	Precipitación	0
155672	7	Sololá	701	Sololá	2	El tablón	5	Mayo	2023-05-22T00:00:00	2024-11-06T19:00:00	8	Radiación solar	0
155673	7	Sololá	701	Sololá	2	El tablón	5	Mayo	2023-05-22T00:00:00	2024-11-06T20:00:00	2	Temperatura media	15.5
155674	7	Sololá	701	Sololá	2	El tablón	5	Mayo	2023-05-22T00:00:00	2024-11-06T20:00:00	4	Temperatura máxima	15.6
155675	7	Sololá	701	Sololá	2	El tablón	5	Mayo	2023-05-22T00:00:00	2024-11-06T20:00:00	3	Temperatura mínima	15.4
155676	7	Sololá	701	Sololá	2	El tablón	5	Mayo	2023-05-22T00:00:00	2024-11-06T20:00:00	5	Humedad	86
155677	7	Sololá	701	Sololá	2	El tablón	5	Mayo	2023-05-22T00:00:00	2024-11-06T20:00:00	6	Velocidad del viento	4.8
155678	7	Sololá	701	Sololá	2	El tablón	5	Mayo	2023-05-22T00:00:00	2024-11-06T20:00:00	7	Dirección del viento	4.83
155679	7	Sololá	701	Sololá	2	El tablón	5	Mayo	2023-05-22T00:00:00	2024-11-06T20:00:00	1	Precipitación	0
155680	7	Sololá	701	Sololá	2	El tablón	5	Mayo	2023-05-22T00:00:00	2024-11-06T20:00:00	8	Radiación solar	0
155681	7	Sololá	701	Sololá	2	El tablón	5	Mayo	2023-05-22T00:00:00	2024-11-06T21:00:00	2	Temperatura media	14.6
155682	7	Sololá	701	Sololá	2	El tablón	5	Mayo	2023-05-22T00:00:00	2024-11-06T21:00:00	4	Temperatura máxima	15.5
155683	7	Sololá	701	Sololá	2	El tablón	5	Mayo	2023-05-22T00:00:00	2024-11-06T21:00:00	3	Temperatura mínima	14.6
155684	7	Sololá	701	Sololá	2	El tablón	5	Mayo	2023-05-22T00:00:00	2024-11-06T21:00:00	5	Humedad	86
155685	7	Sololá	701	Sololá	2	El tablón	5	Mayo	2023-05-22T00:00:00	2024-11-06T21:00:00	6	Velocidad del viento	6.4
155686	7	Sololá	701	Sololá	2	El tablón	5	Mayo	2023-05-22T00:00:00	2024-11-06T21:00:00	7	Dirección del viento	6.44
155687	7	Sololá	701	Sololá	2	El tablón	5	Mayo	2023-05-22T00:00:00	2024-11-06T21:00:00	1	Precipitación	0
155688	7	Sololá	701	Sololá	2	El tablón	5	Mayo	2023-05-22T00:00:00	2024-11-06T21:00:00	8	Radiación solar	0
155689	7	Sololá	701	Sololá	2	El tablón	5	Mayo	2023-05-22T00:00:00	2024-11-06T22:00:00	2	Temperatura media	14.7
155690	7	Sololá	701	Sololá	2	El tablón	5	Mayo	2023-05-22T00:00:00	2024-11-06T22:00:00	4	Temperatura máxima	14.8
155691	7	Sololá	701	Sololá	2	El tablón	5	Mayo	2023-05-22T00:00:00	2024-11-06T22:00:00	3	Temperatura mínima	14.6
155692	7	Sololá	701	Sololá	2	El tablón	5	Mayo	2023-05-22T00:00:00	2024-11-06T22:00:00	5	Humedad	86
155693	7	Sololá	701	Sololá	2	El tablón	5	Mayo	2023-05-22T00:00:00	2024-11-06T22:00:00	6	Velocidad del viento	6.4
155694	7	Sololá	701	Sololá	2	El tablón	5	Mayo	2023-05-22T00:00:00	2024-11-06T22:00:00	7	Dirección del viento	6.44
155695	7	Sololá	701	Sololá	2	El tablón	5	Mayo	2023-05-22T00:00:00	2024-11-06T22:00:00	1	Precipitación	0
155696	7	Sololá	701	Sololá	2	El tablón	5	Mayo	2023-05-22T00:00:00	2024-11-06T22:00:00	8	Radiación solar	0
155697	7	Sololá	701	Sololá	2	El tablón	5	Mayo	2023-05-22T00:00:00	2024-11-06T23:00:00	2	Temperatura media	14.4
155698	7	Sololá	701	Sololá	2	El tablón	5	Mayo	2023-05-22T00:00:00	2024-11-06T23:00:00	4	Temperatura máxima	14.7
155699	7	Sololá	701	Sololá	2	El tablón	5	Mayo	2023-05-22T00:00:00	2024-11-06T23:00:00	3	Temperatura mínima	14.3
155700	7	Sololá	701	Sololá	2	El tablón	5	Mayo	2023-05-22T00:00:00	2024-11-06T23:00:00	5	Humedad	86
155701	7	Sololá	701	Sololá	2	El tablón	5	Mayo	2023-05-22T00:00:00	2024-11-06T23:00:00	6	Velocidad del viento	8
155702	7	Sololá	701	Sololá	2	El tablón	5	Mayo	2023-05-22T00:00:00	2024-11-06T23:00:00	7	Dirección del viento	8.05
155703	7	Sololá	701	Sololá	2	El tablón	5	Mayo	2023-05-22T00:00:00	2024-11-06T23:00:00	1	Precipitación	0
155704	7	Sololá	701	Sololá	2	El tablón	5	Mayo	2023-05-22T00:00:00	2024-11-06T23:00:00	8	Radiación solar	0
155705	7	Sololá	701	Sololá	2	El tablón	5	Mayo	2023-05-23T00:00:00	2024-11-06T00:00:00	2	Temperatura media	14
155706	7	Sololá	701	Sololá	2	El tablón	5	Mayo	2023-05-23T00:00:00	2024-11-06T00:00:00	4	Temperatura máxima	14.4
155707	7	Sololá	701	Sololá	2	El tablón	5	Mayo	2023-05-23T00:00:00	2024-11-06T00:00:00	3	Temperatura mínima	14
155708	7	Sololá	701	Sololá	2	El tablón	5	Mayo	2023-05-23T00:00:00	2024-11-06T00:00:00	5	Humedad	87
155709	7	Sololá	701	Sololá	2	El tablón	5	Mayo	2023-05-23T00:00:00	2024-11-06T00:00:00	6	Velocidad del viento	6.4
155710	7	Sololá	701	Sololá	2	El tablón	5	Mayo	2023-05-23T00:00:00	2024-11-06T00:00:00	7	Dirección del viento	6.44
155711	7	Sololá	701	Sololá	2	El tablón	5	Mayo	2023-05-23T00:00:00	2024-11-06T00:00:00	1	Precipitación	0
155712	7	Sololá	701	Sololá	2	El tablón	5	Mayo	2023-05-23T00:00:00	2024-11-06T00:00:00	8	Radiación solar	0
155713	7	Sololá	701	Sololá	2	El tablón	5	Mayo	2023-05-23T00:00:00	2024-11-06T01:00:00	2	Temperatura media	13.7
155714	7	Sololá	701	Sololá	2	El tablón	5	Mayo	2023-05-23T00:00:00	2024-11-06T01:00:00	4	Temperatura máxima	14
155715	7	Sololá	701	Sololá	2	El tablón	5	Mayo	2023-05-23T00:00:00	2024-11-06T01:00:00	3	Temperatura mínima	13.7
155716	7	Sololá	701	Sololá	2	El tablón	5	Mayo	2023-05-23T00:00:00	2024-11-06T01:00:00	5	Humedad	87
155717	7	Sololá	701	Sololá	2	El tablón	5	Mayo	2023-05-23T00:00:00	2024-11-06T01:00:00	6	Velocidad del viento	4.8
155718	7	Sololá	701	Sololá	2	El tablón	5	Mayo	2023-05-23T00:00:00	2024-11-06T01:00:00	7	Dirección del viento	4.83
155719	7	Sololá	701	Sololá	2	El tablón	5	Mayo	2023-05-23T00:00:00	2024-11-06T01:00:00	1	Precipitación	0
155720	7	Sololá	701	Sololá	2	El tablón	5	Mayo	2023-05-23T00:00:00	2024-11-06T01:00:00	8	Radiación solar	0
155721	7	Sololá	701	Sololá	2	El tablón	5	Mayo	2023-05-23T00:00:00	2024-11-06T02:00:00	2	Temperatura media	13.6
155722	7	Sololá	701	Sololá	2	El tablón	5	Mayo	2023-05-23T00:00:00	2024-11-06T02:00:00	4	Temperatura máxima	13.7
155723	7	Sololá	701	Sololá	2	El tablón	5	Mayo	2023-05-23T00:00:00	2024-11-06T02:00:00	3	Temperatura mínima	13.5
155724	7	Sololá	701	Sololá	2	El tablón	5	Mayo	2023-05-23T00:00:00	2024-11-06T02:00:00	5	Humedad	88
155725	7	Sololá	701	Sololá	2	El tablón	5	Mayo	2023-05-23T00:00:00	2024-11-06T02:00:00	6	Velocidad del viento	6.4
155726	7	Sololá	701	Sololá	2	El tablón	5	Mayo	2023-05-23T00:00:00	2024-11-06T02:00:00	7	Dirección del viento	6.44
155727	7	Sololá	701	Sololá	2	El tablón	5	Mayo	2023-05-23T00:00:00	2024-11-06T02:00:00	1	Precipitación	0
155728	7	Sololá	701	Sololá	2	El tablón	5	Mayo	2023-05-23T00:00:00	2024-11-06T02:00:00	8	Radiación solar	0
155729	7	Sololá	701	Sololá	2	El tablón	5	Mayo	2023-05-23T00:00:00	2024-11-06T03:00:00	2	Temperatura media	13.3
155730	7	Sololá	701	Sololá	2	El tablón	5	Mayo	2023-05-23T00:00:00	2024-11-06T03:00:00	4	Temperatura máxima	13.7
155731	7	Sololá	701	Sololá	2	El tablón	5	Mayo	2023-05-23T00:00:00	2024-11-06T03:00:00	3	Temperatura mínima	13.3
155732	7	Sololá	701	Sololá	2	El tablón	5	Mayo	2023-05-23T00:00:00	2024-11-06T03:00:00	5	Humedad	87
155733	7	Sololá	701	Sololá	2	El tablón	5	Mayo	2023-05-23T00:00:00	2024-11-06T03:00:00	6	Velocidad del viento	6.4
155734	7	Sololá	701	Sololá	2	El tablón	5	Mayo	2023-05-23T00:00:00	2024-11-06T03:00:00	7	Dirección del viento	6.44
155735	7	Sololá	701	Sololá	2	El tablón	5	Mayo	2023-05-23T00:00:00	2024-11-06T03:00:00	1	Precipitación	0
155736	7	Sololá	701	Sololá	2	El tablón	5	Mayo	2023-05-23T00:00:00	2024-11-06T03:00:00	8	Radiación solar	0
155737	7	Sololá	701	Sololá	2	El tablón	5	Mayo	2023-05-23T00:00:00	2024-11-06T04:00:00	2	Temperatura media	13.2
155738	7	Sololá	701	Sololá	2	El tablón	5	Mayo	2023-05-23T00:00:00	2024-11-06T04:00:00	4	Temperatura máxima	13.3
155739	7	Sololá	701	Sololá	2	El tablón	5	Mayo	2023-05-23T00:00:00	2024-11-06T04:00:00	3	Temperatura mínima	13.1
155740	7	Sololá	701	Sololá	2	El tablón	5	Mayo	2023-05-23T00:00:00	2024-11-06T04:00:00	5	Humedad	86
155741	7	Sololá	701	Sololá	2	El tablón	5	Mayo	2023-05-23T00:00:00	2024-11-06T04:00:00	6	Velocidad del viento	6.4
155742	7	Sololá	701	Sololá	2	El tablón	5	Mayo	2023-05-23T00:00:00	2024-11-06T04:00:00	7	Dirección del viento	6.44
155743	7	Sololá	701	Sololá	2	El tablón	5	Mayo	2023-05-23T00:00:00	2024-11-06T04:00:00	1	Precipitación	0
155744	7	Sololá	701	Sololá	2	El tablón	5	Mayo	2023-05-23T00:00:00	2024-11-06T04:00:00	8	Radiación solar	0
155745	7	Sololá	701	Sololá	2	El tablón	5	Mayo	2023-05-23T00:00:00	2024-11-06T05:00:00	2	Temperatura media	12.7
155746	7	Sololá	701	Sololá	2	El tablón	5	Mayo	2023-05-23T00:00:00	2024-11-06T05:00:00	4	Temperatura máxima	13.2
155747	7	Sololá	701	Sololá	2	El tablón	5	Mayo	2023-05-23T00:00:00	2024-11-06T05:00:00	3	Temperatura mínima	12.7
155748	7	Sololá	701	Sololá	2	El tablón	5	Mayo	2023-05-23T00:00:00	2024-11-06T05:00:00	5	Humedad	87
155749	7	Sololá	701	Sololá	2	El tablón	5	Mayo	2023-05-23T00:00:00	2024-11-06T05:00:00	6	Velocidad del viento	3.2
155750	7	Sololá	701	Sololá	2	El tablón	5	Mayo	2023-05-23T00:00:00	2024-11-06T05:00:00	7	Dirección del viento	3.22
155751	7	Sololá	701	Sololá	2	El tablón	5	Mayo	2023-05-23T00:00:00	2024-11-06T05:00:00	1	Precipitación	0
155752	7	Sololá	701	Sololá	2	El tablón	5	Mayo	2023-05-23T00:00:00	2024-11-06T05:00:00	8	Radiación solar	0
155753	7	Sololá	701	Sololá	2	El tablón	5	Mayo	2023-05-23T00:00:00	2024-11-06T06:00:00	2	Temperatura media	12.1
155754	7	Sololá	701	Sololá	2	El tablón	5	Mayo	2023-05-23T00:00:00	2024-11-06T06:00:00	4	Temperatura máxima	12.7
155755	7	Sololá	701	Sololá	2	El tablón	5	Mayo	2023-05-23T00:00:00	2024-11-06T06:00:00	3	Temperatura mínima	12.1
155756	7	Sololá	701	Sololá	2	El tablón	5	Mayo	2023-05-23T00:00:00	2024-11-06T06:00:00	5	Humedad	88
155757	7	Sololá	701	Sololá	2	El tablón	5	Mayo	2023-05-23T00:00:00	2024-11-06T06:00:00	6	Velocidad del viento	4.8
155758	7	Sololá	701	Sololá	2	El tablón	5	Mayo	2023-05-23T00:00:00	2024-11-06T06:00:00	7	Dirección del viento	4.83
155759	7	Sololá	701	Sololá	2	El tablón	5	Mayo	2023-05-23T00:00:00	2024-11-06T06:00:00	1	Precipitación	0
155760	7	Sololá	701	Sololá	2	El tablón	5	Mayo	2023-05-23T00:00:00	2024-11-06T06:00:00	8	Radiación solar	8
155761	7	Sololá	701	Sololá	2	El tablón	5	Mayo	2023-05-23T00:00:00	2024-11-06T07:00:00	2	Temperatura media	14.1
155762	7	Sololá	701	Sololá	2	El tablón	5	Mayo	2023-05-23T00:00:00	2024-11-06T07:00:00	4	Temperatura máxima	14.1
155763	7	Sololá	701	Sololá	2	El tablón	5	Mayo	2023-05-23T00:00:00	2024-11-06T07:00:00	3	Temperatura mínima	12.1
155764	7	Sololá	701	Sololá	2	El tablón	5	Mayo	2023-05-23T00:00:00	2024-11-06T07:00:00	5	Humedad	83
155765	7	Sololá	701	Sololá	2	El tablón	5	Mayo	2023-05-23T00:00:00	2024-11-06T07:00:00	6	Velocidad del viento	3.2
155766	7	Sololá	701	Sololá	2	El tablón	5	Mayo	2023-05-23T00:00:00	2024-11-06T07:00:00	7	Dirección del viento	3.22
155767	7	Sololá	701	Sololá	2	El tablón	5	Mayo	2023-05-23T00:00:00	2024-11-06T07:00:00	1	Precipitación	0
155768	7	Sololá	701	Sololá	2	El tablón	5	Mayo	2023-05-23T00:00:00	2024-11-06T07:00:00	8	Radiación solar	97
155769	7	Sololá	701	Sololá	2	El tablón	5	Mayo	2023-05-23T00:00:00	2024-11-06T08:00:00	2	Temperatura media	16.8
155770	7	Sololá	701	Sololá	2	El tablón	5	Mayo	2023-05-23T00:00:00	2024-11-06T08:00:00	4	Temperatura máxima	16.8
155771	7	Sololá	701	Sololá	2	El tablón	5	Mayo	2023-05-23T00:00:00	2024-11-06T08:00:00	3	Temperatura mínima	14.1
155772	7	Sololá	701	Sololá	2	El tablón	5	Mayo	2023-05-23T00:00:00	2024-11-06T08:00:00	5	Humedad	71
155773	7	Sololá	701	Sololá	2	El tablón	5	Mayo	2023-05-23T00:00:00	2024-11-06T08:00:00	6	Velocidad del viento	4.8
155774	7	Sololá	701	Sololá	2	El tablón	5	Mayo	2023-05-23T00:00:00	2024-11-06T08:00:00	7	Dirección del viento	4.83
155775	7	Sololá	701	Sololá	2	El tablón	5	Mayo	2023-05-23T00:00:00	2024-11-06T08:00:00	1	Precipitación	0
155776	7	Sololá	701	Sololá	2	El tablón	5	Mayo	2023-05-23T00:00:00	2024-11-06T08:00:00	8	Radiación solar	311
155777	7	Sololá	701	Sololá	2	El tablón	5	Mayo	2023-05-23T00:00:00	2024-11-06T09:00:00	2	Temperatura media	18.4
155778	7	Sololá	701	Sololá	2	El tablón	5	Mayo	2023-05-23T00:00:00	2024-11-06T09:00:00	4	Temperatura máxima	18.4
155779	7	Sololá	701	Sololá	2	El tablón	5	Mayo	2023-05-23T00:00:00	2024-11-06T09:00:00	3	Temperatura mínima	16.8
155780	7	Sololá	701	Sololá	2	El tablón	5	Mayo	2023-05-23T00:00:00	2024-11-06T09:00:00	5	Humedad	65
155781	7	Sololá	701	Sololá	2	El tablón	5	Mayo	2023-05-23T00:00:00	2024-11-06T09:00:00	6	Velocidad del viento	4.8
155782	7	Sololá	701	Sololá	2	El tablón	5	Mayo	2023-05-23T00:00:00	2024-11-06T09:00:00	7	Dirección del viento	4.83
155783	7	Sololá	701	Sololá	2	El tablón	5	Mayo	2023-05-23T00:00:00	2024-11-06T09:00:00	1	Precipitación	0
155784	7	Sololá	701	Sololá	2	El tablón	5	Mayo	2023-05-23T00:00:00	2024-11-06T09:00:00	8	Radiación solar	513
155785	7	Sololá	701	Sololá	2	El tablón	5	Mayo	2023-05-23T00:00:00	2024-11-06T10:00:00	2	Temperatura media	19.9
155786	7	Sololá	701	Sololá	2	El tablón	5	Mayo	2023-05-23T00:00:00	2024-11-06T10:00:00	4	Temperatura máxima	19.9
155787	7	Sololá	701	Sololá	2	El tablón	5	Mayo	2023-05-23T00:00:00	2024-11-06T10:00:00	3	Temperatura mínima	18.4
155788	7	Sololá	701	Sololá	2	El tablón	5	Mayo	2023-05-23T00:00:00	2024-11-06T10:00:00	5	Humedad	62
155789	7	Sololá	701	Sololá	2	El tablón	5	Mayo	2023-05-23T00:00:00	2024-11-06T10:00:00	6	Velocidad del viento	6.4
155790	7	Sololá	701	Sololá	2	El tablón	5	Mayo	2023-05-23T00:00:00	2024-11-06T10:00:00	7	Dirección del viento	6.44
155791	7	Sololá	701	Sololá	2	El tablón	5	Mayo	2023-05-23T00:00:00	2024-11-06T10:00:00	1	Precipitación	0
155792	7	Sololá	701	Sololá	2	El tablón	5	Mayo	2023-05-23T00:00:00	2024-11-06T10:00:00	8	Radiación solar	731
155793	7	Sololá	701	Sololá	2	El tablón	5	Mayo	2023-05-23T00:00:00	2024-11-06T11:00:00	2	Temperatura media	17.9
155794	7	Sololá	701	Sololá	2	El tablón	5	Mayo	2023-05-23T00:00:00	2024-11-06T11:00:00	4	Temperatura máxima	20.2
155795	7	Sololá	701	Sololá	2	El tablón	5	Mayo	2023-05-23T00:00:00	2024-11-06T11:00:00	3	Temperatura mínima	17.8
155796	7	Sololá	701	Sololá	2	El tablón	5	Mayo	2023-05-23T00:00:00	2024-11-06T11:00:00	5	Humedad	70
155797	7	Sololá	701	Sololá	2	El tablón	5	Mayo	2023-05-23T00:00:00	2024-11-06T11:00:00	6	Velocidad del viento	8
155798	7	Sololá	701	Sololá	2	El tablón	5	Mayo	2023-05-23T00:00:00	2024-11-06T11:00:00	7	Dirección del viento	8.05
155799	7	Sololá	701	Sololá	2	El tablón	5	Mayo	2023-05-23T00:00:00	2024-11-06T11:00:00	1	Precipitación	0
155800	7	Sololá	701	Sololá	2	El tablón	5	Mayo	2023-05-23T00:00:00	2024-11-06T11:00:00	8	Radiación solar	701
155801	7	Sololá	701	Sololá	2	El tablón	5	Mayo	2023-05-23T00:00:00	2024-11-06T12:00:00	2	Temperatura media	17.8
155802	7	Sololá	701	Sololá	2	El tablón	5	Mayo	2023-05-23T00:00:00	2024-11-06T12:00:00	4	Temperatura máxima	18.9
155803	7	Sololá	701	Sololá	2	El tablón	5	Mayo	2023-05-23T00:00:00	2024-11-06T12:00:00	3	Temperatura mínima	17.6
155804	7	Sololá	701	Sololá	2	El tablón	5	Mayo	2023-05-23T00:00:00	2024-11-06T12:00:00	5	Humedad	82
155805	7	Sololá	701	Sololá	2	El tablón	5	Mayo	2023-05-23T00:00:00	2024-11-06T12:00:00	6	Velocidad del viento	9.7
155806	7	Sololá	701	Sololá	2	El tablón	5	Mayo	2023-05-23T00:00:00	2024-11-06T12:00:00	7	Dirección del viento	9.66
155807	7	Sololá	701	Sololá	2	El tablón	5	Mayo	2023-05-23T00:00:00	2024-11-06T12:00:00	1	Precipitación	0
155808	7	Sololá	701	Sololá	2	El tablón	5	Mayo	2023-05-23T00:00:00	2024-11-06T12:00:00	8	Radiación solar	678
155809	7	Sololá	701	Sololá	2	El tablón	5	Mayo	2023-05-23T00:00:00	2024-11-06T13:00:00	2	Temperatura media	17.7
155810	7	Sololá	701	Sololá	2	El tablón	5	Mayo	2023-05-23T00:00:00	2024-11-06T13:00:00	4	Temperatura máxima	18.8
155811	7	Sololá	701	Sololá	2	El tablón	5	Mayo	2023-05-23T00:00:00	2024-11-06T13:00:00	3	Temperatura mínima	17.7
155812	7	Sololá	701	Sololá	2	El tablón	5	Mayo	2023-05-23T00:00:00	2024-11-06T13:00:00	5	Humedad	83
155813	7	Sololá	701	Sololá	2	El tablón	5	Mayo	2023-05-23T00:00:00	2024-11-06T13:00:00	6	Velocidad del viento	8
155814	7	Sololá	701	Sololá	2	El tablón	5	Mayo	2023-05-23T00:00:00	2024-11-06T13:00:00	7	Dirección del viento	8.05
155815	7	Sololá	701	Sololá	2	El tablón	5	Mayo	2023-05-23T00:00:00	2024-11-06T13:00:00	1	Precipitación	0
155816	7	Sololá	701	Sololá	2	El tablón	5	Mayo	2023-05-23T00:00:00	2024-11-06T13:00:00	8	Radiación solar	609
155817	7	Sololá	701	Sololá	2	El tablón	5	Mayo	2023-05-23T00:00:00	2024-11-06T14:00:00	2	Temperatura media	17.4
155818	7	Sololá	701	Sololá	2	El tablón	5	Mayo	2023-05-23T00:00:00	2024-11-06T14:00:00	4	Temperatura máxima	17.7
155819	7	Sololá	701	Sololá	2	El tablón	5	Mayo	2023-05-23T00:00:00	2024-11-06T14:00:00	3	Temperatura mínima	17.3
155820	7	Sololá	701	Sololá	2	El tablón	5	Mayo	2023-05-23T00:00:00	2024-11-06T14:00:00	5	Humedad	85
155821	7	Sololá	701	Sololá	2	El tablón	5	Mayo	2023-05-23T00:00:00	2024-11-06T14:00:00	6	Velocidad del viento	6.4
155822	7	Sololá	701	Sololá	2	El tablón	5	Mayo	2023-05-23T00:00:00	2024-11-06T14:00:00	7	Dirección del viento	6.44
155823	7	Sololá	701	Sololá	2	El tablón	5	Mayo	2023-05-23T00:00:00	2024-11-06T14:00:00	1	Precipitación	0
155824	7	Sololá	701	Sololá	2	El tablón	5	Mayo	2023-05-23T00:00:00	2024-11-06T14:00:00	8	Radiación solar	339
155825	7	Sololá	701	Sololá	2	El tablón	5	Mayo	2023-05-23T00:00:00	2024-11-06T15:00:00	2	Temperatura media	16.8
155826	7	Sololá	701	Sololá	2	El tablón	5	Mayo	2023-05-23T00:00:00	2024-11-06T15:00:00	4	Temperatura máxima	18.1
155827	7	Sololá	701	Sololá	2	El tablón	5	Mayo	2023-05-23T00:00:00	2024-11-06T15:00:00	3	Temperatura mínima	16.8
155828	7	Sololá	701	Sololá	2	El tablón	5	Mayo	2023-05-23T00:00:00	2024-11-06T15:00:00	5	Humedad	87
155829	7	Sololá	701	Sololá	2	El tablón	5	Mayo	2023-05-23T00:00:00	2024-11-06T15:00:00	6	Velocidad del viento	6.4
155830	7	Sololá	701	Sololá	2	El tablón	5	Mayo	2023-05-23T00:00:00	2024-11-06T15:00:00	7	Dirección del viento	6.44
155831	7	Sololá	701	Sololá	2	El tablón	5	Mayo	2023-05-23T00:00:00	2024-11-06T15:00:00	1	Precipitación	0
155832	7	Sololá	701	Sololá	2	El tablón	5	Mayo	2023-05-23T00:00:00	2024-11-06T15:00:00	8	Radiación solar	365
155833	7	Sololá	701	Sololá	2	El tablón	5	Mayo	2023-05-23T00:00:00	2024-11-06T16:00:00	2	Temperatura media	16.7
155834	7	Sololá	701	Sololá	2	El tablón	5	Mayo	2023-05-23T00:00:00	2024-11-06T16:00:00	4	Temperatura máxima	17.1
155835	7	Sololá	701	Sololá	2	El tablón	5	Mayo	2023-05-23T00:00:00	2024-11-06T16:00:00	3	Temperatura mínima	16.7
155836	7	Sololá	701	Sololá	2	El tablón	5	Mayo	2023-05-23T00:00:00	2024-11-06T16:00:00	5	Humedad	87
155837	7	Sololá	701	Sololá	2	El tablón	5	Mayo	2023-05-23T00:00:00	2024-11-06T16:00:00	6	Velocidad del viento	6.4
155838	7	Sololá	701	Sololá	2	El tablón	5	Mayo	2023-05-23T00:00:00	2024-11-06T16:00:00	7	Dirección del viento	6.44
155839	7	Sololá	701	Sololá	2	El tablón	5	Mayo	2023-05-23T00:00:00	2024-11-06T16:00:00	1	Precipitación	0
155840	7	Sololá	701	Sololá	2	El tablón	5	Mayo	2023-05-23T00:00:00	2024-11-06T16:00:00	8	Radiación solar	191
155841	7	Sololá	701	Sololá	2	El tablón	5	Mayo	2023-05-23T00:00:00	2024-11-06T17:00:00	2	Temperatura media	17.1
155842	7	Sololá	701	Sololá	2	El tablón	5	Mayo	2023-05-23T00:00:00	2024-11-06T17:00:00	4	Temperatura máxima	17.3
155843	7	Sololá	701	Sololá	2	El tablón	5	Mayo	2023-05-23T00:00:00	2024-11-06T17:00:00	3	Temperatura mínima	16.7
155844	7	Sololá	701	Sololá	2	El tablón	5	Mayo	2023-05-23T00:00:00	2024-11-06T17:00:00	5	Humedad	87
155845	7	Sololá	701	Sololá	2	El tablón	5	Mayo	2023-05-23T00:00:00	2024-11-06T17:00:00	6	Velocidad del viento	3.2
155846	7	Sololá	701	Sololá	2	El tablón	5	Mayo	2023-05-23T00:00:00	2024-11-06T17:00:00	7	Dirección del viento	3.22
155847	7	Sololá	701	Sololá	2	El tablón	5	Mayo	2023-05-23T00:00:00	2024-11-06T17:00:00	1	Precipitación	0
155848	7	Sololá	701	Sololá	2	El tablón	5	Mayo	2023-05-23T00:00:00	2024-11-06T17:00:00	8	Radiación solar	135
155849	7	Sololá	701	Sololá	2	El tablón	5	Mayo	2023-05-23T00:00:00	2024-11-06T18:00:00	2	Temperatura media	15.9
155850	7	Sololá	701	Sololá	2	El tablón	5	Mayo	2023-05-23T00:00:00	2024-11-06T18:00:00	4	Temperatura máxima	17.1
155851	7	Sololá	701	Sololá	2	El tablón	5	Mayo	2023-05-23T00:00:00	2024-11-06T18:00:00	3	Temperatura mínima	15.9
155852	7	Sololá	701	Sololá	2	El tablón	5	Mayo	2023-05-23T00:00:00	2024-11-06T18:00:00	5	Humedad	88
155853	7	Sololá	701	Sololá	2	El tablón	5	Mayo	2023-05-23T00:00:00	2024-11-06T18:00:00	6	Velocidad del viento	3.2
155854	7	Sololá	701	Sololá	2	El tablón	5	Mayo	2023-05-23T00:00:00	2024-11-06T18:00:00	7	Dirección del viento	3.22
155855	7	Sololá	701	Sololá	2	El tablón	5	Mayo	2023-05-23T00:00:00	2024-11-06T18:00:00	1	Precipitación	0
155856	7	Sololá	701	Sololá	2	El tablón	5	Mayo	2023-05-23T00:00:00	2024-11-06T18:00:00	8	Radiación solar	20
155857	7	Sololá	701	Sololá	2	El tablón	5	Mayo	2023-05-23T00:00:00	2024-11-06T19:00:00	2	Temperatura media	15.6
155858	7	Sololá	701	Sololá	2	El tablón	5	Mayo	2023-05-23T00:00:00	2024-11-06T19:00:00	4	Temperatura máxima	15.9
155859	7	Sololá	701	Sololá	2	El tablón	5	Mayo	2023-05-23T00:00:00	2024-11-06T19:00:00	3	Temperatura mínima	15.5
155860	7	Sololá	701	Sololá	2	El tablón	5	Mayo	2023-05-23T00:00:00	2024-11-06T19:00:00	5	Humedad	88
155861	7	Sololá	701	Sololá	2	El tablón	5	Mayo	2023-05-23T00:00:00	2024-11-06T19:00:00	6	Velocidad del viento	3.2
155862	7	Sololá	701	Sololá	2	El tablón	5	Mayo	2023-05-23T00:00:00	2024-11-06T19:00:00	7	Dirección del viento	3.22
155863	7	Sololá	701	Sololá	2	El tablón	5	Mayo	2023-05-23T00:00:00	2024-11-06T19:00:00	1	Precipitación	0
155864	7	Sololá	701	Sololá	2	El tablón	5	Mayo	2023-05-23T00:00:00	2024-11-06T19:00:00	8	Radiación solar	0
155865	7	Sololá	701	Sololá	2	El tablón	5	Mayo	2023-05-23T00:00:00	2024-11-06T20:00:00	2	Temperatura media	15.5
155866	7	Sololá	701	Sololá	2	El tablón	5	Mayo	2023-05-23T00:00:00	2024-11-06T20:00:00	4	Temperatura máxima	16
155867	7	Sololá	701	Sololá	2	El tablón	5	Mayo	2023-05-23T00:00:00	2024-11-06T20:00:00	3	Temperatura mínima	15.5
155868	7	Sololá	701	Sololá	2	El tablón	5	Mayo	2023-05-23T00:00:00	2024-11-06T20:00:00	5	Humedad	84
155869	7	Sololá	701	Sololá	2	El tablón	5	Mayo	2023-05-23T00:00:00	2024-11-06T20:00:00	6	Velocidad del viento	9.7
155870	7	Sololá	701	Sololá	2	El tablón	5	Mayo	2023-05-23T00:00:00	2024-11-06T20:00:00	7	Dirección del viento	9.66
155871	7	Sololá	701	Sololá	2	El tablón	5	Mayo	2023-05-23T00:00:00	2024-11-06T20:00:00	1	Precipitación	0
155872	7	Sololá	701	Sololá	2	El tablón	5	Mayo	2023-05-23T00:00:00	2024-11-06T20:00:00	8	Radiación solar	0
155873	7	Sololá	701	Sololá	2	El tablón	5	Mayo	2023-05-23T00:00:00	2024-11-06T21:00:00	2	Temperatura media	14.7
155874	7	Sololá	701	Sololá	2	El tablón	5	Mayo	2023-05-23T00:00:00	2024-11-06T21:00:00	4	Temperatura máxima	15.5
155875	7	Sololá	701	Sololá	2	El tablón	5	Mayo	2023-05-23T00:00:00	2024-11-06T21:00:00	3	Temperatura mínima	14.7
155876	7	Sololá	701	Sololá	2	El tablón	5	Mayo	2023-05-23T00:00:00	2024-11-06T21:00:00	5	Humedad	85
155877	7	Sololá	701	Sololá	2	El tablón	5	Mayo	2023-05-23T00:00:00	2024-11-06T21:00:00	6	Velocidad del viento	6.4
155878	7	Sololá	701	Sololá	2	El tablón	5	Mayo	2023-05-23T00:00:00	2024-11-06T21:00:00	7	Dirección del viento	6.44
155879	7	Sololá	701	Sololá	2	El tablón	5	Mayo	2023-05-23T00:00:00	2024-11-06T21:00:00	1	Precipitación	0
155880	7	Sololá	701	Sololá	2	El tablón	5	Mayo	2023-05-23T00:00:00	2024-11-06T21:00:00	8	Radiación solar	0
155881	7	Sololá	701	Sololá	2	El tablón	5	Mayo	2023-05-23T00:00:00	2024-11-06T22:00:00	2	Temperatura media	14.1
155882	7	Sololá	701	Sololá	2	El tablón	5	Mayo	2023-05-23T00:00:00	2024-11-06T22:00:00	4	Temperatura máxima	14.7
155883	7	Sololá	701	Sololá	2	El tablón	5	Mayo	2023-05-23T00:00:00	2024-11-06T22:00:00	3	Temperatura mínima	14.1
155884	7	Sololá	701	Sololá	2	El tablón	5	Mayo	2023-05-23T00:00:00	2024-11-06T22:00:00	5	Humedad	87
155885	7	Sololá	701	Sololá	2	El tablón	5	Mayo	2023-05-23T00:00:00	2024-11-06T22:00:00	6	Velocidad del viento	4.8
155886	7	Sololá	701	Sololá	2	El tablón	5	Mayo	2023-05-23T00:00:00	2024-11-06T22:00:00	7	Dirección del viento	4.83
155887	7	Sololá	701	Sololá	2	El tablón	5	Mayo	2023-05-23T00:00:00	2024-11-06T22:00:00	1	Precipitación	0
155888	7	Sololá	701	Sololá	2	El tablón	5	Mayo	2023-05-23T00:00:00	2024-11-06T22:00:00	8	Radiación solar	0
155889	7	Sololá	701	Sololá	2	El tablón	5	Mayo	2023-05-23T00:00:00	2024-11-06T23:00:00	2	Temperatura media	13.9
155890	7	Sololá	701	Sololá	2	El tablón	5	Mayo	2023-05-23T00:00:00	2024-11-06T23:00:00	4	Temperatura máxima	14.1
155891	7	Sololá	701	Sololá	2	El tablón	5	Mayo	2023-05-23T00:00:00	2024-11-06T23:00:00	3	Temperatura mínima	13.8
155892	7	Sololá	701	Sololá	2	El tablón	5	Mayo	2023-05-23T00:00:00	2024-11-06T23:00:00	5	Humedad	86
155893	7	Sololá	701	Sololá	2	El tablón	5	Mayo	2023-05-23T00:00:00	2024-11-06T23:00:00	6	Velocidad del viento	6.4
155894	7	Sololá	701	Sololá	2	El tablón	5	Mayo	2023-05-23T00:00:00	2024-11-06T23:00:00	7	Dirección del viento	6.44
155895	7	Sololá	701	Sololá	2	El tablón	5	Mayo	2023-05-23T00:00:00	2024-11-06T23:00:00	1	Precipitación	0
155896	7	Sololá	701	Sololá	2	El tablón	5	Mayo	2023-05-23T00:00:00	2024-11-06T23:00:00	8	Radiación solar	0
155897	7	Sololá	701	Sololá	2	El tablón	5	Mayo	2023-05-24T00:00:00	2024-11-06T00:00:00	2	Temperatura media	13.4
155898	7	Sololá	701	Sololá	2	El tablón	5	Mayo	2023-05-24T00:00:00	2024-11-06T00:00:00	4	Temperatura máxima	13.9
155899	7	Sololá	701	Sololá	2	El tablón	5	Mayo	2023-05-24T00:00:00	2024-11-06T00:00:00	3	Temperatura mínima	13.4
155900	7	Sololá	701	Sololá	2	El tablón	5	Mayo	2023-05-24T00:00:00	2024-11-06T00:00:00	5	Humedad	87
155901	7	Sololá	701	Sololá	2	El tablón	5	Mayo	2023-05-24T00:00:00	2024-11-06T00:00:00	6	Velocidad del viento	8
155902	7	Sololá	701	Sololá	2	El tablón	5	Mayo	2023-05-24T00:00:00	2024-11-06T00:00:00	7	Dirección del viento	8.05
155903	7	Sololá	701	Sololá	2	El tablón	5	Mayo	2023-05-24T00:00:00	2024-11-06T00:00:00	1	Precipitación	0
155904	7	Sololá	701	Sololá	2	El tablón	5	Mayo	2023-05-24T00:00:00	2024-11-06T00:00:00	8	Radiación solar	0
155905	7	Sololá	701	Sololá	2	El tablón	5	Mayo	2023-05-24T00:00:00	2024-11-06T01:00:00	2	Temperatura media	13.2
155906	7	Sololá	701	Sololá	2	El tablón	5	Mayo	2023-05-24T00:00:00	2024-11-06T01:00:00	4	Temperatura máxima	13.4
155907	7	Sololá	701	Sololá	2	El tablón	5	Mayo	2023-05-24T00:00:00	2024-11-06T01:00:00	3	Temperatura mínima	13.2
155908	7	Sololá	701	Sololá	2	El tablón	5	Mayo	2023-05-24T00:00:00	2024-11-06T01:00:00	5	Humedad	87
155909	7	Sololá	701	Sololá	2	El tablón	5	Mayo	2023-05-24T00:00:00	2024-11-06T01:00:00	6	Velocidad del viento	6.4
155910	7	Sololá	701	Sololá	2	El tablón	5	Mayo	2023-05-24T00:00:00	2024-11-06T01:00:00	7	Dirección del viento	6.44
155911	7	Sololá	701	Sololá	2	El tablón	5	Mayo	2023-05-24T00:00:00	2024-11-06T01:00:00	1	Precipitación	0
155912	7	Sololá	701	Sololá	2	El tablón	5	Mayo	2023-05-24T00:00:00	2024-11-06T01:00:00	8	Radiación solar	0
155913	7	Sololá	701	Sololá	2	El tablón	5	Mayo	2023-05-24T00:00:00	2024-11-06T02:00:00	2	Temperatura media	12.4
155914	7	Sololá	701	Sololá	2	El tablón	5	Mayo	2023-05-24T00:00:00	2024-11-06T02:00:00	4	Temperatura máxima	13.2
155915	7	Sololá	701	Sololá	2	El tablón	5	Mayo	2023-05-24T00:00:00	2024-11-06T02:00:00	3	Temperatura mínima	12.2
155916	7	Sololá	701	Sololá	2	El tablón	5	Mayo	2023-05-24T00:00:00	2024-11-06T02:00:00	5	Humedad	88
155917	7	Sololá	701	Sololá	2	El tablón	5	Mayo	2023-05-24T00:00:00	2024-11-06T02:00:00	6	Velocidad del viento	4.8
155918	7	Sololá	701	Sololá	2	El tablón	5	Mayo	2023-05-24T00:00:00	2024-11-06T02:00:00	7	Dirección del viento	4.83
155919	7	Sololá	701	Sololá	2	El tablón	5	Mayo	2023-05-24T00:00:00	2024-11-06T02:00:00	1	Precipitación	0
155920	7	Sololá	701	Sololá	2	El tablón	5	Mayo	2023-05-24T00:00:00	2024-11-06T02:00:00	8	Radiación solar	0
155921	7	Sololá	701	Sololá	2	El tablón	5	Mayo	2023-05-24T00:00:00	2024-11-06T03:00:00	2	Temperatura media	12.7
155922	7	Sololá	701	Sololá	2	El tablón	5	Mayo	2023-05-24T00:00:00	2024-11-06T03:00:00	4	Temperatura máxima	12.8
155923	7	Sololá	701	Sololá	2	El tablón	5	Mayo	2023-05-24T00:00:00	2024-11-06T03:00:00	3	Temperatura mínima	12.4
155924	7	Sololá	701	Sololá	2	El tablón	5	Mayo	2023-05-24T00:00:00	2024-11-06T03:00:00	5	Humedad	88
155925	7	Sololá	701	Sololá	2	El tablón	5	Mayo	2023-05-24T00:00:00	2024-11-06T03:00:00	6	Velocidad del viento	3.2
155926	7	Sololá	701	Sololá	2	El tablón	5	Mayo	2023-05-24T00:00:00	2024-11-06T03:00:00	7	Dirección del viento	3.22
155927	7	Sololá	701	Sololá	2	El tablón	5	Mayo	2023-05-24T00:00:00	2024-11-06T03:00:00	1	Precipitación	0
155928	7	Sololá	701	Sololá	2	El tablón	5	Mayo	2023-05-24T00:00:00	2024-11-06T03:00:00	8	Radiación solar	0
155929	7	Sololá	701	Sololá	2	El tablón	5	Mayo	2023-05-24T00:00:00	2024-11-06T04:00:00	2	Temperatura media	12.6
155930	7	Sololá	701	Sololá	2	El tablón	5	Mayo	2023-05-24T00:00:00	2024-11-06T04:00:00	4	Temperatura máxima	12.8
155931	7	Sololá	701	Sololá	2	El tablón	5	Mayo	2023-05-24T00:00:00	2024-11-06T04:00:00	3	Temperatura mínima	12.6
155932	7	Sololá	701	Sololá	2	El tablón	5	Mayo	2023-05-24T00:00:00	2024-11-06T04:00:00	5	Humedad	87
155933	7	Sololá	701	Sololá	2	El tablón	5	Mayo	2023-05-24T00:00:00	2024-11-06T04:00:00	6	Velocidad del viento	4.8
155934	7	Sololá	701	Sololá	2	El tablón	5	Mayo	2023-05-24T00:00:00	2024-11-06T04:00:00	7	Dirección del viento	4.83
155935	7	Sololá	701	Sololá	2	El tablón	5	Mayo	2023-05-24T00:00:00	2024-11-06T04:00:00	1	Precipitación	0
155936	7	Sololá	701	Sololá	2	El tablón	5	Mayo	2023-05-24T00:00:00	2024-11-06T04:00:00	8	Radiación solar	0
155937	7	Sololá	701	Sololá	2	El tablón	5	Mayo	2023-05-24T00:00:00	2024-11-06T05:00:00	2	Temperatura media	12.3
155938	7	Sololá	701	Sololá	2	El tablón	5	Mayo	2023-05-24T00:00:00	2024-11-06T05:00:00	4	Temperatura máxima	12.6
155939	7	Sololá	701	Sololá	2	El tablón	5	Mayo	2023-05-24T00:00:00	2024-11-06T05:00:00	3	Temperatura mínima	12.3
155940	7	Sololá	701	Sololá	2	El tablón	5	Mayo	2023-05-24T00:00:00	2024-11-06T05:00:00	5	Humedad	88
155941	7	Sololá	701	Sololá	2	El tablón	5	Mayo	2023-05-24T00:00:00	2024-11-06T05:00:00	6	Velocidad del viento	6.4
155942	7	Sololá	701	Sololá	2	El tablón	5	Mayo	2023-05-24T00:00:00	2024-11-06T05:00:00	7	Dirección del viento	6.44
155943	7	Sololá	701	Sololá	2	El tablón	5	Mayo	2023-05-24T00:00:00	2024-11-06T05:00:00	1	Precipitación	0
155944	7	Sololá	701	Sololá	2	El tablón	5	Mayo	2023-05-24T00:00:00	2024-11-06T05:00:00	8	Radiación solar	0
155945	7	Sololá	701	Sololá	2	El tablón	5	Mayo	2023-05-24T00:00:00	2024-11-06T06:00:00	2	Temperatura media	12.2
155946	7	Sololá	701	Sololá	2	El tablón	5	Mayo	2023-05-24T00:00:00	2024-11-06T06:00:00	4	Temperatura máxima	12.3
155947	7	Sololá	701	Sololá	2	El tablón	5	Mayo	2023-05-24T00:00:00	2024-11-06T06:00:00	3	Temperatura mínima	12.2
155948	7	Sololá	701	Sololá	2	El tablón	5	Mayo	2023-05-24T00:00:00	2024-11-06T06:00:00	5	Humedad	88
155949	7	Sololá	701	Sololá	2	El tablón	5	Mayo	2023-05-24T00:00:00	2024-11-06T06:00:00	6	Velocidad del viento	3.2
155950	7	Sololá	701	Sololá	2	El tablón	5	Mayo	2023-05-24T00:00:00	2024-11-06T06:00:00	7	Dirección del viento	3.22
155951	7	Sololá	701	Sololá	2	El tablón	5	Mayo	2023-05-24T00:00:00	2024-11-06T06:00:00	1	Precipitación	0
155952	7	Sololá	701	Sololá	2	El tablón	5	Mayo	2023-05-24T00:00:00	2024-11-06T06:00:00	8	Radiación solar	7
155953	7	Sololá	701	Sololá	2	El tablón	5	Mayo	2023-05-24T00:00:00	2024-11-06T07:00:00	2	Temperatura media	12.9
155954	7	Sololá	701	Sololá	2	El tablón	5	Mayo	2023-05-24T00:00:00	2024-11-06T07:00:00	4	Temperatura máxima	12.9
155955	7	Sololá	701	Sololá	2	El tablón	5	Mayo	2023-05-24T00:00:00	2024-11-06T07:00:00	3	Temperatura mínima	11.8
155956	7	Sololá	701	Sololá	2	El tablón	5	Mayo	2023-05-24T00:00:00	2024-11-06T07:00:00	5	Humedad	86
155957	7	Sololá	701	Sololá	2	El tablón	5	Mayo	2023-05-24T00:00:00	2024-11-06T07:00:00	6	Velocidad del viento	3.2
155958	7	Sololá	701	Sololá	2	El tablón	5	Mayo	2023-05-24T00:00:00	2024-11-06T07:00:00	7	Dirección del viento	3.22
155959	7	Sololá	701	Sololá	2	El tablón	5	Mayo	2023-05-24T00:00:00	2024-11-06T07:00:00	1	Precipitación	0
155960	7	Sololá	701	Sololá	2	El tablón	5	Mayo	2023-05-24T00:00:00	2024-11-06T07:00:00	8	Radiación solar	120
155961	7	Sololá	701	Sololá	2	El tablón	5	Mayo	2023-05-24T00:00:00	2024-11-06T08:00:00	2	Temperatura media	15.4
155962	7	Sololá	701	Sololá	2	El tablón	5	Mayo	2023-05-24T00:00:00	2024-11-06T08:00:00	4	Temperatura máxima	15.4
155963	7	Sololá	701	Sololá	2	El tablón	5	Mayo	2023-05-24T00:00:00	2024-11-06T08:00:00	3	Temperatura mínima	12.9
155964	7	Sololá	701	Sololá	2	El tablón	5	Mayo	2023-05-24T00:00:00	2024-11-06T08:00:00	5	Humedad	74
155965	7	Sololá	701	Sololá	2	El tablón	5	Mayo	2023-05-24T00:00:00	2024-11-06T08:00:00	6	Velocidad del viento	3.2
155966	7	Sololá	701	Sololá	2	El tablón	5	Mayo	2023-05-24T00:00:00	2024-11-06T08:00:00	7	Dirección del viento	3.22
155967	7	Sololá	701	Sololá	2	El tablón	5	Mayo	2023-05-24T00:00:00	2024-11-06T08:00:00	1	Precipitación	0
155968	7	Sololá	701	Sololá	2	El tablón	5	Mayo	2023-05-24T00:00:00	2024-11-06T08:00:00	8	Radiación solar	334
155969	7	Sololá	701	Sololá	2	El tablón	5	Mayo	2023-05-24T00:00:00	2024-11-06T09:00:00	2	Temperatura media	17.2
155970	7	Sololá	701	Sololá	2	El tablón	5	Mayo	2023-05-24T00:00:00	2024-11-06T09:00:00	4	Temperatura máxima	17.3
155971	7	Sololá	701	Sololá	2	El tablón	5	Mayo	2023-05-24T00:00:00	2024-11-06T09:00:00	3	Temperatura mínima	15.4
155972	7	Sololá	701	Sololá	2	El tablón	5	Mayo	2023-05-24T00:00:00	2024-11-06T09:00:00	5	Humedad	68
155973	7	Sololá	701	Sololá	2	El tablón	5	Mayo	2023-05-24T00:00:00	2024-11-06T09:00:00	6	Velocidad del viento	3.2
155974	7	Sololá	701	Sololá	2	El tablón	5	Mayo	2023-05-24T00:00:00	2024-11-06T09:00:00	7	Dirección del viento	3.22
155975	7	Sololá	701	Sololá	2	El tablón	5	Mayo	2023-05-24T00:00:00	2024-11-06T09:00:00	1	Precipitación	0
155976	7	Sololá	701	Sololá	2	El tablón	5	Mayo	2023-05-24T00:00:00	2024-11-06T09:00:00	8	Radiación solar	551
155977	7	Sololá	701	Sololá	2	El tablón	5	Mayo	2023-05-24T00:00:00	2024-11-06T10:00:00	2	Temperatura media	18.2
155978	7	Sololá	701	Sololá	2	El tablón	5	Mayo	2023-05-24T00:00:00	2024-11-06T10:00:00	4	Temperatura máxima	18.2
155979	7	Sololá	701	Sololá	2	El tablón	5	Mayo	2023-05-24T00:00:00	2024-11-06T10:00:00	3	Temperatura mínima	17.2
155980	7	Sololá	701	Sololá	2	El tablón	5	Mayo	2023-05-24T00:00:00	2024-11-06T10:00:00	5	Humedad	68
155981	7	Sololá	701	Sololá	2	El tablón	5	Mayo	2023-05-24T00:00:00	2024-11-06T10:00:00	6	Velocidad del viento	4.8
155982	7	Sololá	701	Sololá	2	El tablón	5	Mayo	2023-05-24T00:00:00	2024-11-06T10:00:00	7	Dirección del viento	4.83
155983	7	Sololá	701	Sololá	2	El tablón	5	Mayo	2023-05-24T00:00:00	2024-11-06T10:00:00	1	Precipitación	0
155984	7	Sololá	701	Sololá	2	El tablón	5	Mayo	2023-05-24T00:00:00	2024-11-06T10:00:00	8	Radiación solar	675
155985	7	Sololá	701	Sololá	2	El tablón	5	Mayo	2023-05-24T00:00:00	2024-11-06T11:00:00	2	Temperatura media	19.1
155986	7	Sololá	701	Sololá	2	El tablón	5	Mayo	2023-05-24T00:00:00	2024-11-06T11:00:00	4	Temperatura máxima	19.6
155987	7	Sololá	701	Sololá	2	El tablón	5	Mayo	2023-05-24T00:00:00	2024-11-06T11:00:00	3	Temperatura mínima	18.2
155988	7	Sololá	701	Sololá	2	El tablón	5	Mayo	2023-05-24T00:00:00	2024-11-06T11:00:00	5	Humedad	60
155989	7	Sololá	701	Sololá	2	El tablón	5	Mayo	2023-05-24T00:00:00	2024-11-06T11:00:00	6	Velocidad del viento	6.4
155990	7	Sololá	701	Sololá	2	El tablón	5	Mayo	2023-05-24T00:00:00	2024-11-06T11:00:00	7	Dirección del viento	6.44
155991	7	Sololá	701	Sololá	2	El tablón	5	Mayo	2023-05-24T00:00:00	2024-11-06T11:00:00	1	Precipitación	0
155992	7	Sololá	701	Sololá	2	El tablón	5	Mayo	2023-05-24T00:00:00	2024-11-06T11:00:00	8	Radiación solar	886
155993	7	Sololá	701	Sololá	2	El tablón	5	Mayo	2023-05-24T00:00:00	2024-11-06T12:00:00	2	Temperatura media	19.3
155994	7	Sololá	701	Sololá	2	El tablón	5	Mayo	2023-05-24T00:00:00	2024-11-06T12:00:00	4	Temperatura máxima	19.6
155995	7	Sololá	701	Sololá	2	El tablón	5	Mayo	2023-05-24T00:00:00	2024-11-06T12:00:00	3	Temperatura mínima	19.1
155996	7	Sololá	701	Sololá	2	El tablón	5	Mayo	2023-05-24T00:00:00	2024-11-06T12:00:00	5	Humedad	63
155997	7	Sololá	701	Sololá	2	El tablón	5	Mayo	2023-05-24T00:00:00	2024-11-06T12:00:00	6	Velocidad del viento	8
155998	7	Sololá	701	Sololá	2	El tablón	5	Mayo	2023-05-24T00:00:00	2024-11-06T12:00:00	7	Dirección del viento	8.05
155999	7	Sololá	701	Sololá	2	El tablón	5	Mayo	2023-05-24T00:00:00	2024-11-06T12:00:00	1	Precipitación	0
156000	7	Sololá	701	Sololá	2	El tablón	5	Mayo	2023-05-24T00:00:00	2024-11-06T12:00:00	8	Radiación solar	940
156001	7	Sololá	701	Sololá	2	El tablón	5	Mayo	2023-05-24T00:00:00	2024-11-06T13:00:00	2	Temperatura media	19.3
156002	7	Sololá	701	Sololá	2	El tablón	5	Mayo	2023-05-24T00:00:00	2024-11-06T13:00:00	4	Temperatura máxima	19.8
156003	7	Sololá	701	Sololá	2	El tablón	5	Mayo	2023-05-24T00:00:00	2024-11-06T13:00:00	3	Temperatura mínima	19.1
156004	7	Sololá	701	Sololá	2	El tablón	5	Mayo	2023-05-24T00:00:00	2024-11-06T13:00:00	5	Humedad	70
156005	7	Sololá	701	Sololá	2	El tablón	5	Mayo	2023-05-24T00:00:00	2024-11-06T13:00:00	6	Velocidad del viento	8
156006	7	Sololá	701	Sololá	2	El tablón	5	Mayo	2023-05-24T00:00:00	2024-11-06T13:00:00	7	Dirección del viento	8.05
156007	7	Sololá	701	Sololá	2	El tablón	5	Mayo	2023-05-24T00:00:00	2024-11-06T13:00:00	1	Precipitación	0
156008	7	Sololá	701	Sololá	2	El tablón	5	Mayo	2023-05-24T00:00:00	2024-11-06T13:00:00	8	Radiación solar	962
156009	7	Sololá	701	Sololá	2	El tablón	5	Mayo	2023-05-24T00:00:00	2024-11-06T14:00:00	2	Temperatura media	19.2
156010	7	Sololá	701	Sololá	2	El tablón	5	Mayo	2023-05-24T00:00:00	2024-11-06T14:00:00	4	Temperatura máxima	19.9
156011	7	Sololá	701	Sololá	2	El tablón	5	Mayo	2023-05-24T00:00:00	2024-11-06T14:00:00	3	Temperatura mínima	19.2
156012	7	Sololá	701	Sololá	2	El tablón	5	Mayo	2023-05-24T00:00:00	2024-11-06T14:00:00	5	Humedad	72
156013	7	Sololá	701	Sololá	2	El tablón	5	Mayo	2023-05-24T00:00:00	2024-11-06T14:00:00	6	Velocidad del viento	8
156014	7	Sololá	701	Sololá	2	El tablón	5	Mayo	2023-05-24T00:00:00	2024-11-06T14:00:00	7	Dirección del viento	8.05
156015	7	Sololá	701	Sololá	2	El tablón	5	Mayo	2023-05-24T00:00:00	2024-11-06T14:00:00	1	Precipitación	0
156016	7	Sololá	701	Sololá	2	El tablón	5	Mayo	2023-05-24T00:00:00	2024-11-06T14:00:00	8	Radiación solar	920
156017	7	Sololá	701	Sololá	2	El tablón	5	Mayo	2023-05-24T00:00:00	2024-11-06T15:00:00	2	Temperatura media	18.6
156018	7	Sololá	701	Sololá	2	El tablón	5	Mayo	2023-05-24T00:00:00	2024-11-06T15:00:00	4	Temperatura máxima	19.7
156019	7	Sololá	701	Sololá	2	El tablón	5	Mayo	2023-05-24T00:00:00	2024-11-06T15:00:00	3	Temperatura mínima	18.3
156020	7	Sololá	701	Sololá	2	El tablón	5	Mayo	2023-05-24T00:00:00	2024-11-06T15:00:00	5	Humedad	81
156021	7	Sololá	701	Sololá	2	El tablón	5	Mayo	2023-05-24T00:00:00	2024-11-06T15:00:00	6	Velocidad del viento	8
156022	7	Sololá	701	Sololá	2	El tablón	5	Mayo	2023-05-24T00:00:00	2024-11-06T15:00:00	7	Dirección del viento	8.05
156023	7	Sololá	701	Sololá	2	El tablón	5	Mayo	2023-05-24T00:00:00	2024-11-06T15:00:00	1	Precipitación	0
156024	7	Sololá	701	Sololá	2	El tablón	5	Mayo	2023-05-24T00:00:00	2024-11-06T15:00:00	8	Radiación solar	656
156025	7	Sololá	701	Sololá	2	El tablón	5	Mayo	2023-05-24T00:00:00	2024-11-06T16:00:00	2	Temperatura media	18.3
156026	7	Sololá	701	Sololá	2	El tablón	5	Mayo	2023-05-24T00:00:00	2024-11-06T16:00:00	4	Temperatura máxima	18.8
156027	7	Sololá	701	Sololá	2	El tablón	5	Mayo	2023-05-24T00:00:00	2024-11-06T16:00:00	3	Temperatura mínima	18.1
156028	7	Sololá	701	Sololá	2	El tablón	5	Mayo	2023-05-24T00:00:00	2024-11-06T16:00:00	5	Humedad	82
156029	7	Sololá	701	Sololá	2	El tablón	5	Mayo	2023-05-24T00:00:00	2024-11-06T16:00:00	6	Velocidad del viento	6.4
156030	7	Sololá	701	Sololá	2	El tablón	5	Mayo	2023-05-24T00:00:00	2024-11-06T16:00:00	7	Dirección del viento	6.44
156031	7	Sololá	701	Sololá	2	El tablón	5	Mayo	2023-05-24T00:00:00	2024-11-06T16:00:00	1	Precipitación	0
156032	7	Sololá	701	Sololá	2	El tablón	5	Mayo	2023-05-24T00:00:00	2024-11-06T16:00:00	8	Radiación solar	305
156033	7	Sololá	701	Sololá	2	El tablón	5	Mayo	2023-05-24T00:00:00	2024-11-06T17:00:00	2	Temperatura media	17.1
156034	7	Sololá	701	Sololá	2	El tablón	5	Mayo	2023-05-24T00:00:00	2024-11-06T17:00:00	4	Temperatura máxima	18.3
156035	7	Sololá	701	Sololá	2	El tablón	5	Mayo	2023-05-24T00:00:00	2024-11-06T17:00:00	3	Temperatura mínima	17.1
156036	7	Sololá	701	Sololá	2	El tablón	5	Mayo	2023-05-24T00:00:00	2024-11-06T17:00:00	5	Humedad	87
156037	7	Sololá	701	Sololá	2	El tablón	5	Mayo	2023-05-24T00:00:00	2024-11-06T17:00:00	6	Velocidad del viento	4.8
156038	7	Sololá	701	Sololá	2	El tablón	5	Mayo	2023-05-24T00:00:00	2024-11-06T17:00:00	7	Dirección del viento	4.83
156039	7	Sololá	701	Sololá	2	El tablón	5	Mayo	2023-05-24T00:00:00	2024-11-06T17:00:00	1	Precipitación	0
156040	7	Sololá	701	Sololá	2	El tablón	5	Mayo	2023-05-24T00:00:00	2024-11-06T17:00:00	8	Radiación solar	136
156041	7	Sololá	701	Sololá	2	El tablón	5	Mayo	2023-05-24T00:00:00	2024-11-06T18:00:00	2	Temperatura media	17
156042	7	Sololá	701	Sololá	2	El tablón	5	Mayo	2023-05-24T00:00:00	2024-11-06T18:00:00	4	Temperatura máxima	17.2
156043	7	Sololá	701	Sololá	2	El tablón	5	Mayo	2023-05-24T00:00:00	2024-11-06T18:00:00	3	Temperatura mínima	16.9
156044	7	Sololá	701	Sololá	2	El tablón	5	Mayo	2023-05-24T00:00:00	2024-11-06T18:00:00	5	Humedad	87
156045	7	Sololá	701	Sololá	2	El tablón	5	Mayo	2023-05-24T00:00:00	2024-11-06T18:00:00	6	Velocidad del viento	1.6
156046	7	Sololá	701	Sololá	2	El tablón	5	Mayo	2023-05-24T00:00:00	2024-11-06T18:00:00	7	Dirección del viento	1.61
156047	7	Sololá	701	Sololá	2	El tablón	5	Mayo	2023-05-24T00:00:00	2024-11-06T18:00:00	1	Precipitación	0
156048	7	Sololá	701	Sololá	2	El tablón	5	Mayo	2023-05-24T00:00:00	2024-11-06T18:00:00	8	Radiación solar	57
156049	7	Sololá	701	Sololá	2	El tablón	5	Mayo	2023-05-24T00:00:00	2024-11-06T19:00:00	2	Temperatura media	16.3
156050	7	Sololá	701	Sololá	2	El tablón	5	Mayo	2023-05-24T00:00:00	2024-11-06T19:00:00	4	Temperatura máxima	17
156051	7	Sololá	701	Sololá	2	El tablón	5	Mayo	2023-05-24T00:00:00	2024-11-06T19:00:00	3	Temperatura mínima	16.3
156052	7	Sololá	701	Sololá	2	El tablón	5	Mayo	2023-05-24T00:00:00	2024-11-06T19:00:00	5	Humedad	88
156053	7	Sololá	701	Sololá	2	El tablón	5	Mayo	2023-05-24T00:00:00	2024-11-06T19:00:00	6	Velocidad del viento	1.6
156054	7	Sololá	701	Sololá	2	El tablón	5	Mayo	2023-05-24T00:00:00	2024-11-06T19:00:00	7	Dirección del viento	1.61
156055	7	Sololá	701	Sololá	2	El tablón	5	Mayo	2023-05-24T00:00:00	2024-11-06T19:00:00	1	Precipitación	0
156056	7	Sololá	701	Sololá	2	El tablón	5	Mayo	2023-05-24T00:00:00	2024-11-06T19:00:00	8	Radiación solar	0
156057	7	Sololá	701	Sololá	2	El tablón	5	Mayo	2023-05-24T00:00:00	2024-11-06T20:00:00	2	Temperatura media	16.2
156058	7	Sololá	701	Sololá	2	El tablón	5	Mayo	2023-05-24T00:00:00	2024-11-06T20:00:00	4	Temperatura máxima	16.3
156059	7	Sololá	701	Sololá	2	El tablón	5	Mayo	2023-05-24T00:00:00	2024-11-06T20:00:00	3	Temperatura mínima	16.1
156060	7	Sololá	701	Sololá	2	El tablón	5	Mayo	2023-05-24T00:00:00	2024-11-06T20:00:00	5	Humedad	88
156061	7	Sololá	701	Sololá	2	El tablón	5	Mayo	2023-05-24T00:00:00	2024-11-06T20:00:00	6	Velocidad del viento	0
156062	7	Sololá	701	Sololá	2	El tablón	5	Mayo	2023-05-24T00:00:00	2024-11-06T20:00:00	7	Dirección del viento	0
156063	7	Sololá	701	Sololá	2	El tablón	5	Mayo	2023-05-24T00:00:00	2024-11-06T20:00:00	1	Precipitación	0
156064	7	Sololá	701	Sololá	2	El tablón	5	Mayo	2023-05-24T00:00:00	2024-11-06T20:00:00	8	Radiación solar	0
156065	7	Sololá	701	Sololá	2	El tablón	5	Mayo	2023-05-24T00:00:00	2024-11-06T21:00:00	2	Temperatura media	15.9
156066	7	Sololá	701	Sololá	2	El tablón	5	Mayo	2023-05-24T00:00:00	2024-11-06T21:00:00	4	Temperatura máxima	16.2
156067	7	Sololá	701	Sololá	2	El tablón	5	Mayo	2023-05-24T00:00:00	2024-11-06T21:00:00	3	Temperatura mínima	15.6
156068	7	Sololá	701	Sololá	2	El tablón	5	Mayo	2023-05-24T00:00:00	2024-11-06T21:00:00	5	Humedad	82
156069	7	Sololá	701	Sololá	2	El tablón	5	Mayo	2023-05-24T00:00:00	2024-11-06T21:00:00	6	Velocidad del viento	3.2
156070	7	Sololá	701	Sololá	2	El tablón	5	Mayo	2023-05-24T00:00:00	2024-11-06T21:00:00	7	Dirección del viento	3.22
156071	7	Sololá	701	Sololá	2	El tablón	5	Mayo	2023-05-24T00:00:00	2024-11-06T21:00:00	1	Precipitación	0
156072	7	Sololá	701	Sololá	2	El tablón	5	Mayo	2023-05-24T00:00:00	2024-11-06T21:00:00	8	Radiación solar	0
156073	7	Sololá	701	Sololá	2	El tablón	5	Mayo	2023-05-24T00:00:00	2024-11-06T22:00:00	2	Temperatura media	15.6
156074	7	Sololá	701	Sololá	2	El tablón	5	Mayo	2023-05-24T00:00:00	2024-11-06T22:00:00	4	Temperatura máxima	15.9
156075	7	Sololá	701	Sololá	2	El tablón	5	Mayo	2023-05-24T00:00:00	2024-11-06T22:00:00	3	Temperatura mínima	15.6
156076	7	Sololá	701	Sololá	2	El tablón	5	Mayo	2023-05-24T00:00:00	2024-11-06T22:00:00	5	Humedad	85
156077	7	Sololá	701	Sololá	2	El tablón	5	Mayo	2023-05-24T00:00:00	2024-11-06T22:00:00	6	Velocidad del viento	1.6
156078	7	Sololá	701	Sololá	2	El tablón	5	Mayo	2023-05-24T00:00:00	2024-11-06T22:00:00	7	Dirección del viento	1.61
156079	7	Sololá	701	Sololá	2	El tablón	5	Mayo	2023-05-24T00:00:00	2024-11-06T22:00:00	1	Precipitación	0
156080	7	Sololá	701	Sololá	2	El tablón	5	Mayo	2023-05-24T00:00:00	2024-11-06T22:00:00	8	Radiación solar	0
156081	7	Sololá	701	Sololá	2	El tablón	5	Mayo	2023-05-24T00:00:00	2024-11-06T23:00:00	2	Temperatura media	15.2
156082	7	Sololá	701	Sololá	2	El tablón	5	Mayo	2023-05-24T00:00:00	2024-11-06T23:00:00	4	Temperatura máxima	15.7
156083	7	Sololá	701	Sololá	2	El tablón	5	Mayo	2023-05-24T00:00:00	2024-11-06T23:00:00	3	Temperatura mínima	15.2
156084	7	Sololá	701	Sololá	2	El tablón	5	Mayo	2023-05-24T00:00:00	2024-11-06T23:00:00	5	Humedad	87
156085	7	Sololá	701	Sololá	2	El tablón	5	Mayo	2023-05-24T00:00:00	2024-11-06T23:00:00	6	Velocidad del viento	1.6
156086	7	Sololá	701	Sololá	2	El tablón	5	Mayo	2023-05-24T00:00:00	2024-11-06T23:00:00	7	Dirección del viento	1.61
156087	7	Sololá	701	Sololá	2	El tablón	5	Mayo	2023-05-24T00:00:00	2024-11-06T23:00:00	1	Precipitación	0
156088	7	Sololá	701	Sololá	2	El tablón	5	Mayo	2023-05-24T00:00:00	2024-11-06T23:00:00	8	Radiación solar	0
156089	7	Sololá	701	Sololá	2	El tablón	5	Mayo	2023-05-25T00:00:00	2024-11-06T00:00:00	2	Temperatura media	14.6
156090	7	Sololá	701	Sololá	2	El tablón	5	Mayo	2023-05-25T00:00:00	2024-11-06T00:00:00	4	Temperatura máxima	15.2
156091	7	Sololá	701	Sololá	2	El tablón	5	Mayo	2023-05-25T00:00:00	2024-11-06T00:00:00	3	Temperatura mínima	14.6
156092	7	Sololá	701	Sololá	2	El tablón	5	Mayo	2023-05-25T00:00:00	2024-11-06T00:00:00	5	Humedad	87
156093	7	Sololá	701	Sololá	2	El tablón	5	Mayo	2023-05-25T00:00:00	2024-11-06T00:00:00	6	Velocidad del viento	3.2
156094	7	Sololá	701	Sololá	2	El tablón	5	Mayo	2023-05-25T00:00:00	2024-11-06T00:00:00	7	Dirección del viento	3.22
156095	7	Sololá	701	Sololá	2	El tablón	5	Mayo	2023-05-25T00:00:00	2024-11-06T00:00:00	1	Precipitación	0
156096	7	Sololá	701	Sololá	2	El tablón	5	Mayo	2023-05-25T00:00:00	2024-11-06T00:00:00	8	Radiación solar	0
156097	7	Sololá	701	Sololá	2	El tablón	5	Mayo	2023-05-25T00:00:00	2024-11-06T01:00:00	2	Temperatura media	14.2
156098	7	Sololá	701	Sololá	2	El tablón	5	Mayo	2023-05-25T00:00:00	2024-11-06T01:00:00	4	Temperatura máxima	14.6
156099	7	Sololá	701	Sololá	2	El tablón	5	Mayo	2023-05-25T00:00:00	2024-11-06T01:00:00	3	Temperatura mínima	14.2
156100	7	Sololá	701	Sololá	2	El tablón	5	Mayo	2023-05-25T00:00:00	2024-11-06T01:00:00	5	Humedad	87
156101	7	Sololá	701	Sololá	2	El tablón	5	Mayo	2023-05-25T00:00:00	2024-11-06T01:00:00	6	Velocidad del viento	3.2
156102	7	Sololá	701	Sololá	2	El tablón	5	Mayo	2023-05-25T00:00:00	2024-11-06T01:00:00	7	Dirección del viento	3.22
156103	7	Sololá	701	Sololá	2	El tablón	5	Mayo	2023-05-25T00:00:00	2024-11-06T01:00:00	1	Precipitación	0
156104	7	Sololá	701	Sololá	2	El tablón	5	Mayo	2023-05-25T00:00:00	2024-11-06T01:00:00	8	Radiación solar	0
156105	7	Sololá	701	Sololá	2	El tablón	5	Mayo	2023-05-25T00:00:00	2024-11-06T02:00:00	2	Temperatura media	13.6
156106	7	Sololá	701	Sololá	2	El tablón	5	Mayo	2023-05-25T00:00:00	2024-11-06T02:00:00	4	Temperatura máxima	14.2
156107	7	Sololá	701	Sololá	2	El tablón	5	Mayo	2023-05-25T00:00:00	2024-11-06T02:00:00	3	Temperatura mínima	13.6
156108	7	Sololá	701	Sololá	2	El tablón	5	Mayo	2023-05-25T00:00:00	2024-11-06T02:00:00	5	Humedad	87
156109	7	Sololá	701	Sololá	2	El tablón	5	Mayo	2023-05-25T00:00:00	2024-11-06T02:00:00	6	Velocidad del viento	6.4
156110	7	Sololá	701	Sololá	2	El tablón	5	Mayo	2023-05-25T00:00:00	2024-11-06T02:00:00	7	Dirección del viento	6.44
156111	7	Sololá	701	Sololá	2	El tablón	5	Mayo	2023-05-25T00:00:00	2024-11-06T02:00:00	1	Precipitación	0
156112	7	Sololá	701	Sololá	2	El tablón	5	Mayo	2023-05-25T00:00:00	2024-11-06T02:00:00	8	Radiación solar	0
156113	7	Sololá	701	Sololá	2	El tablón	5	Mayo	2023-05-25T00:00:00	2024-11-06T03:00:00	2	Temperatura media	12.2
156114	7	Sololá	701	Sololá	2	El tablón	5	Mayo	2023-05-25T00:00:00	2024-11-06T03:00:00	4	Temperatura máxima	13.6
156115	7	Sololá	701	Sololá	2	El tablón	5	Mayo	2023-05-25T00:00:00	2024-11-06T03:00:00	3	Temperatura mínima	12.2
156116	7	Sololá	701	Sololá	2	El tablón	5	Mayo	2023-05-25T00:00:00	2024-11-06T03:00:00	5	Humedad	88
156117	7	Sololá	701	Sololá	2	El tablón	5	Mayo	2023-05-25T00:00:00	2024-11-06T03:00:00	6	Velocidad del viento	3.2
156118	7	Sololá	701	Sololá	2	El tablón	5	Mayo	2023-05-25T00:00:00	2024-11-06T03:00:00	7	Dirección del viento	3.22
156119	7	Sololá	701	Sololá	2	El tablón	5	Mayo	2023-05-25T00:00:00	2024-11-06T03:00:00	1	Precipitación	0
156120	7	Sololá	701	Sololá	2	El tablón	5	Mayo	2023-05-25T00:00:00	2024-11-06T03:00:00	8	Radiación solar	0
156121	7	Sololá	701	Sololá	2	El tablón	5	Mayo	2023-05-25T00:00:00	2024-11-06T04:00:00	2	Temperatura media	11.7
156122	7	Sololá	701	Sololá	2	El tablón	5	Mayo	2023-05-25T00:00:00	2024-11-06T04:00:00	4	Temperatura máxima	12.3
156123	7	Sololá	701	Sololá	2	El tablón	5	Mayo	2023-05-25T00:00:00	2024-11-06T04:00:00	3	Temperatura mínima	11.6
156124	7	Sololá	701	Sololá	2	El tablón	5	Mayo	2023-05-25T00:00:00	2024-11-06T04:00:00	5	Humedad	86
156125	7	Sololá	701	Sololá	2	El tablón	5	Mayo	2023-05-25T00:00:00	2024-11-06T04:00:00	6	Velocidad del viento	1.6
156126	7	Sololá	701	Sololá	2	El tablón	5	Mayo	2023-05-25T00:00:00	2024-11-06T04:00:00	7	Dirección del viento	1.61
156127	7	Sololá	701	Sololá	2	El tablón	5	Mayo	2023-05-25T00:00:00	2024-11-06T04:00:00	1	Precipitación	0
156128	7	Sololá	701	Sololá	2	El tablón	5	Mayo	2023-05-25T00:00:00	2024-11-06T04:00:00	8	Radiación solar	0
156129	7	Sololá	701	Sololá	2	El tablón	5	Mayo	2023-05-25T00:00:00	2024-11-06T05:00:00	2	Temperatura media	11.5
156130	7	Sololá	701	Sololá	2	El tablón	5	Mayo	2023-05-25T00:00:00	2024-11-06T05:00:00	4	Temperatura máxima	11.8
156131	7	Sololá	701	Sololá	2	El tablón	5	Mayo	2023-05-25T00:00:00	2024-11-06T05:00:00	3	Temperatura mínima	11.5
156132	7	Sololá	701	Sololá	2	El tablón	5	Mayo	2023-05-25T00:00:00	2024-11-06T05:00:00	5	Humedad	84
156133	7	Sololá	701	Sololá	2	El tablón	5	Mayo	2023-05-25T00:00:00	2024-11-06T05:00:00	6	Velocidad del viento	1.6
156134	7	Sololá	701	Sololá	2	El tablón	5	Mayo	2023-05-25T00:00:00	2024-11-06T05:00:00	7	Dirección del viento	1.61
156135	7	Sololá	701	Sololá	2	El tablón	5	Mayo	2023-05-25T00:00:00	2024-11-06T05:00:00	1	Precipitación	0
156136	7	Sololá	701	Sololá	2	El tablón	5	Mayo	2023-05-25T00:00:00	2024-11-06T05:00:00	8	Radiación solar	0
156137	7	Sololá	701	Sololá	2	El tablón	5	Mayo	2023-05-25T00:00:00	2024-11-06T06:00:00	2	Temperatura media	11.5
156138	7	Sololá	701	Sololá	2	El tablón	5	Mayo	2023-05-25T00:00:00	2024-11-06T06:00:00	4	Temperatura máxima	11.6
156139	7	Sololá	701	Sololá	2	El tablón	5	Mayo	2023-05-25T00:00:00	2024-11-06T06:00:00	3	Temperatura mínima	11.3
156140	7	Sololá	701	Sololá	2	El tablón	5	Mayo	2023-05-25T00:00:00	2024-11-06T06:00:00	5	Humedad	84
156141	7	Sololá	701	Sololá	2	El tablón	5	Mayo	2023-05-25T00:00:00	2024-11-06T06:00:00	6	Velocidad del viento	3.2
156142	7	Sololá	701	Sololá	2	El tablón	5	Mayo	2023-05-25T00:00:00	2024-11-06T06:00:00	7	Dirección del viento	3.22
156143	7	Sololá	701	Sololá	2	El tablón	5	Mayo	2023-05-25T00:00:00	2024-11-06T06:00:00	1	Precipitación	0
156144	7	Sololá	701	Sololá	2	El tablón	5	Mayo	2023-05-25T00:00:00	2024-11-06T06:00:00	8	Radiación solar	11
156145	7	Sololá	701	Sololá	2	El tablón	5	Mayo	2023-05-25T00:00:00	2024-11-06T07:00:00	2	Temperatura media	13.8
156146	7	Sololá	701	Sololá	2	El tablón	5	Mayo	2023-05-25T00:00:00	2024-11-06T07:00:00	4	Temperatura máxima	13.8
156147	7	Sololá	701	Sololá	2	El tablón	5	Mayo	2023-05-25T00:00:00	2024-11-06T07:00:00	3	Temperatura mínima	11.3
156148	7	Sololá	701	Sololá	2	El tablón	5	Mayo	2023-05-25T00:00:00	2024-11-06T07:00:00	5	Humedad	79
156149	7	Sololá	701	Sololá	2	El tablón	5	Mayo	2023-05-25T00:00:00	2024-11-06T07:00:00	6	Velocidad del viento	1.6
156150	7	Sololá	701	Sololá	2	El tablón	5	Mayo	2023-05-25T00:00:00	2024-11-06T07:00:00	7	Dirección del viento	1.61
156151	7	Sololá	701	Sololá	2	El tablón	5	Mayo	2023-05-25T00:00:00	2024-11-06T07:00:00	1	Precipitación	0
156152	7	Sololá	701	Sololá	2	El tablón	5	Mayo	2023-05-25T00:00:00	2024-11-06T07:00:00	8	Radiación solar	120
156153	7	Sololá	701	Sololá	2	El tablón	5	Mayo	2023-05-25T00:00:00	2024-11-06T08:00:00	2	Temperatura media	15.9
156154	7	Sololá	701	Sololá	2	El tablón	5	Mayo	2023-05-25T00:00:00	2024-11-06T08:00:00	4	Temperatura máxima	15.9
156155	7	Sololá	701	Sololá	2	El tablón	5	Mayo	2023-05-25T00:00:00	2024-11-06T08:00:00	3	Temperatura mínima	13.8
156156	7	Sololá	701	Sololá	2	El tablón	5	Mayo	2023-05-25T00:00:00	2024-11-06T08:00:00	5	Humedad	71
156157	7	Sololá	701	Sololá	2	El tablón	5	Mayo	2023-05-25T00:00:00	2024-11-06T08:00:00	6	Velocidad del viento	1.6
156158	7	Sololá	701	Sololá	2	El tablón	5	Mayo	2023-05-25T00:00:00	2024-11-06T08:00:00	7	Dirección del viento	1.61
156159	7	Sololá	701	Sololá	2	El tablón	5	Mayo	2023-05-25T00:00:00	2024-11-06T08:00:00	1	Precipitación	0
156160	7	Sololá	701	Sololá	2	El tablón	5	Mayo	2023-05-25T00:00:00	2024-11-06T08:00:00	8	Radiación solar	299
156161	7	Sololá	701	Sololá	2	El tablón	5	Mayo	2023-05-25T00:00:00	2024-11-06T09:00:00	2	Temperatura media	18.7
156162	7	Sololá	701	Sololá	2	El tablón	5	Mayo	2023-05-25T00:00:00	2024-11-06T09:00:00	4	Temperatura máxima	18.7
156163	7	Sololá	701	Sololá	2	El tablón	5	Mayo	2023-05-25T00:00:00	2024-11-06T09:00:00	3	Temperatura mínima	15.9
156164	7	Sololá	701	Sololá	2	El tablón	5	Mayo	2023-05-25T00:00:00	2024-11-06T09:00:00	5	Humedad	70
156165	7	Sololá	701	Sololá	2	El tablón	5	Mayo	2023-05-25T00:00:00	2024-11-06T09:00:00	6	Velocidad del viento	3.2
156166	7	Sololá	701	Sololá	2	El tablón	5	Mayo	2023-05-25T00:00:00	2024-11-06T09:00:00	7	Dirección del viento	3.22
156167	7	Sololá	701	Sololá	2	El tablón	5	Mayo	2023-05-25T00:00:00	2024-11-06T09:00:00	1	Precipitación	0
156168	7	Sololá	701	Sololá	2	El tablón	5	Mayo	2023-05-25T00:00:00	2024-11-06T09:00:00	8	Radiación solar	543
156169	7	Sololá	701	Sololá	2	El tablón	5	Mayo	2023-05-25T00:00:00	2024-11-06T10:00:00	2	Temperatura media	18.9
156170	7	Sololá	701	Sololá	2	El tablón	5	Mayo	2023-05-25T00:00:00	2024-11-06T10:00:00	4	Temperatura máxima	18.9
156171	7	Sololá	701	Sololá	2	El tablón	5	Mayo	2023-05-25T00:00:00	2024-11-06T10:00:00	3	Temperatura mínima	18.2
156172	7	Sololá	701	Sololá	2	El tablón	5	Mayo	2023-05-25T00:00:00	2024-11-06T10:00:00	5	Humedad	63
156173	7	Sololá	701	Sololá	2	El tablón	5	Mayo	2023-05-25T00:00:00	2024-11-06T10:00:00	6	Velocidad del viento	6.4
156174	7	Sololá	701	Sololá	2	El tablón	5	Mayo	2023-05-25T00:00:00	2024-11-06T10:00:00	7	Dirección del viento	6.44
156175	7	Sololá	701	Sololá	2	El tablón	5	Mayo	2023-05-25T00:00:00	2024-11-06T10:00:00	1	Precipitación	0
156176	7	Sololá	701	Sololá	2	El tablón	5	Mayo	2023-05-25T00:00:00	2024-11-06T10:00:00	8	Radiación solar	741
156177	7	Sololá	701	Sololá	2	El tablón	5	Mayo	2023-05-25T00:00:00	2024-11-06T11:00:00	2	Temperatura media	19.3
156178	7	Sololá	701	Sololá	2	El tablón	5	Mayo	2023-05-25T00:00:00	2024-11-06T11:00:00	4	Temperatura máxima	19.3
156179	7	Sololá	701	Sololá	2	El tablón	5	Mayo	2023-05-25T00:00:00	2024-11-06T11:00:00	3	Temperatura mínima	18.7
156180	7	Sololá	701	Sololá	2	El tablón	5	Mayo	2023-05-25T00:00:00	2024-11-06T11:00:00	5	Humedad	64
156181	7	Sololá	701	Sololá	2	El tablón	5	Mayo	2023-05-25T00:00:00	2024-11-06T11:00:00	6	Velocidad del viento	6.4
156182	7	Sololá	701	Sololá	2	El tablón	5	Mayo	2023-05-25T00:00:00	2024-11-06T11:00:00	7	Dirección del viento	6.44
156183	7	Sololá	701	Sololá	2	El tablón	5	Mayo	2023-05-25T00:00:00	2024-11-06T11:00:00	1	Precipitación	0
156184	7	Sololá	701	Sololá	2	El tablón	5	Mayo	2023-05-25T00:00:00	2024-11-06T11:00:00	8	Radiación solar	790
156185	7	Sololá	701	Sololá	2	El tablón	5	Mayo	2023-05-25T00:00:00	2024-11-06T12:00:00	2	Temperatura media	20.3
156186	7	Sololá	701	Sololá	2	El tablón	5	Mayo	2023-05-25T00:00:00	2024-11-06T12:00:00	4	Temperatura máxima	20.3
156187	7	Sololá	701	Sololá	2	El tablón	5	Mayo	2023-05-25T00:00:00	2024-11-06T12:00:00	3	Temperatura mínima	19.3
156188	7	Sololá	701	Sololá	2	El tablón	5	Mayo	2023-05-25T00:00:00	2024-11-06T12:00:00	5	Humedad	65
156189	7	Sololá	701	Sololá	2	El tablón	5	Mayo	2023-05-25T00:00:00	2024-11-06T12:00:00	6	Velocidad del viento	8
156190	7	Sololá	701	Sololá	2	El tablón	5	Mayo	2023-05-25T00:00:00	2024-11-06T12:00:00	7	Dirección del viento	8.05
156191	7	Sololá	701	Sololá	2	El tablón	5	Mayo	2023-05-25T00:00:00	2024-11-06T12:00:00	1	Precipitación	0
156192	7	Sololá	701	Sololá	2	El tablón	5	Mayo	2023-05-25T00:00:00	2024-11-06T12:00:00	8	Radiación solar	960
156193	7	Sololá	701	Sololá	2	El tablón	5	Mayo	2023-05-25T00:00:00	2024-11-06T13:00:00	2	Temperatura media	19.3
156194	7	Sololá	701	Sololá	2	El tablón	5	Mayo	2023-05-25T00:00:00	2024-11-06T13:00:00	4	Temperatura máxima	20.3
156195	7	Sololá	701	Sololá	2	El tablón	5	Mayo	2023-05-25T00:00:00	2024-11-06T13:00:00	3	Temperatura mínima	19
156196	7	Sololá	701	Sololá	2	El tablón	5	Mayo	2023-05-25T00:00:00	2024-11-06T13:00:00	5	Humedad	77
156197	7	Sololá	701	Sololá	2	El tablón	5	Mayo	2023-05-25T00:00:00	2024-11-06T13:00:00	6	Velocidad del viento	8
156198	7	Sololá	701	Sololá	2	El tablón	5	Mayo	2023-05-25T00:00:00	2024-11-06T13:00:00	7	Dirección del viento	8.05
156199	7	Sololá	701	Sololá	2	El tablón	5	Mayo	2023-05-25T00:00:00	2024-11-06T13:00:00	1	Precipitación	0
156200	7	Sololá	701	Sololá	2	El tablón	5	Mayo	2023-05-25T00:00:00	2024-11-06T13:00:00	8	Radiación solar	820
156201	7	Sololá	701	Sololá	2	El tablón	5	Mayo	2023-05-25T00:00:00	2024-11-06T14:00:00	2	Temperatura media	17.9
156202	7	Sololá	701	Sololá	2	El tablón	5	Mayo	2023-05-25T00:00:00	2024-11-06T14:00:00	4	Temperatura máxima	19.5
156203	7	Sololá	701	Sololá	2	El tablón	5	Mayo	2023-05-25T00:00:00	2024-11-06T14:00:00	3	Temperatura mínima	17.9
156204	7	Sololá	701	Sololá	2	El tablón	5	Mayo	2023-05-25T00:00:00	2024-11-06T14:00:00	5	Humedad	83
156205	7	Sololá	701	Sololá	2	El tablón	5	Mayo	2023-05-25T00:00:00	2024-11-06T14:00:00	6	Velocidad del viento	8
156206	7	Sololá	701	Sololá	2	El tablón	5	Mayo	2023-05-25T00:00:00	2024-11-06T14:00:00	7	Dirección del viento	8.05
156207	7	Sololá	701	Sololá	2	El tablón	5	Mayo	2023-05-25T00:00:00	2024-11-06T14:00:00	1	Precipitación	0
156208	7	Sololá	701	Sololá	2	El tablón	5	Mayo	2023-05-25T00:00:00	2024-11-06T14:00:00	8	Radiación solar	454
156209	7	Sololá	701	Sololá	2	El tablón	5	Mayo	2023-05-25T00:00:00	2024-11-06T15:00:00	2	Temperatura media	17.4
156210	7	Sololá	701	Sololá	2	El tablón	5	Mayo	2023-05-25T00:00:00	2024-11-06T15:00:00	4	Temperatura máxima	17.9
156211	7	Sololá	701	Sololá	2	El tablón	5	Mayo	2023-05-25T00:00:00	2024-11-06T15:00:00	3	Temperatura mínima	17.4
156212	7	Sololá	701	Sololá	2	El tablón	5	Mayo	2023-05-25T00:00:00	2024-11-06T15:00:00	5	Humedad	85
156213	7	Sololá	701	Sololá	2	El tablón	5	Mayo	2023-05-25T00:00:00	2024-11-06T15:00:00	6	Velocidad del viento	4.8
156214	7	Sololá	701	Sololá	2	El tablón	5	Mayo	2023-05-25T00:00:00	2024-11-06T15:00:00	7	Dirección del viento	4.83
156215	7	Sololá	701	Sololá	2	El tablón	5	Mayo	2023-05-25T00:00:00	2024-11-06T15:00:00	1	Precipitación	0
156216	7	Sololá	701	Sololá	2	El tablón	5	Mayo	2023-05-25T00:00:00	2024-11-06T15:00:00	8	Radiación solar	201
156217	7	Sololá	701	Sololá	2	El tablón	5	Mayo	2023-05-25T00:00:00	2024-11-06T16:00:00	2	Temperatura media	16.9
156218	7	Sololá	701	Sololá	2	El tablón	5	Mayo	2023-05-25T00:00:00	2024-11-06T16:00:00	4	Temperatura máxima	17.7
156219	7	Sololá	701	Sololá	2	El tablón	5	Mayo	2023-05-25T00:00:00	2024-11-06T16:00:00	3	Temperatura mínima	16.9
156220	7	Sololá	701	Sololá	2	El tablón	5	Mayo	2023-05-25T00:00:00	2024-11-06T16:00:00	5	Humedad	87
156221	7	Sololá	701	Sololá	2	El tablón	5	Mayo	2023-05-25T00:00:00	2024-11-06T16:00:00	6	Velocidad del viento	4.8
156222	7	Sololá	701	Sololá	2	El tablón	5	Mayo	2023-05-25T00:00:00	2024-11-06T16:00:00	7	Dirección del viento	4.83
156223	7	Sololá	701	Sololá	2	El tablón	5	Mayo	2023-05-25T00:00:00	2024-11-06T16:00:00	1	Precipitación	0
156224	7	Sololá	701	Sololá	2	El tablón	5	Mayo	2023-05-25T00:00:00	2024-11-06T16:00:00	8	Radiación solar	132
156225	7	Sololá	701	Sololá	2	El tablón	5	Mayo	2023-05-25T00:00:00	2024-11-06T17:00:00	2	Temperatura media	16.3
156226	7	Sololá	701	Sololá	2	El tablón	5	Mayo	2023-05-25T00:00:00	2024-11-06T17:00:00	4	Temperatura máxima	17.1
156227	7	Sololá	701	Sololá	2	El tablón	5	Mayo	2023-05-25T00:00:00	2024-11-06T17:00:00	3	Temperatura mínima	16.3
156228	7	Sololá	701	Sololá	2	El tablón	5	Mayo	2023-05-25T00:00:00	2024-11-06T17:00:00	5	Humedad	88
156229	7	Sololá	701	Sololá	2	El tablón	5	Mayo	2023-05-25T00:00:00	2024-11-06T17:00:00	6	Velocidad del viento	3.2
156230	7	Sololá	701	Sololá	2	El tablón	5	Mayo	2023-05-25T00:00:00	2024-11-06T17:00:00	7	Dirección del viento	3.22
156231	7	Sololá	701	Sololá	2	El tablón	5	Mayo	2023-05-25T00:00:00	2024-11-06T17:00:00	1	Precipitación	0
156232	7	Sololá	701	Sololá	2	El tablón	5	Mayo	2023-05-25T00:00:00	2024-11-06T17:00:00	8	Radiación solar	29
156233	7	Sololá	701	Sololá	2	El tablón	5	Mayo	2023-05-25T00:00:00	2024-11-06T18:00:00	2	Temperatura media	14.4
156234	7	Sololá	701	Sololá	2	El tablón	5	Mayo	2023-05-25T00:00:00	2024-11-06T18:00:00	4	Temperatura máxima	16.4
156235	7	Sololá	701	Sololá	2	El tablón	5	Mayo	2023-05-25T00:00:00	2024-11-06T18:00:00	3	Temperatura mínima	14.4
156236	7	Sololá	701	Sololá	2	El tablón	5	Mayo	2023-05-25T00:00:00	2024-11-06T18:00:00	5	Humedad	88
156237	7	Sololá	701	Sololá	2	El tablón	5	Mayo	2023-05-25T00:00:00	2024-11-06T18:00:00	6	Velocidad del viento	3.2
156238	7	Sololá	701	Sololá	2	El tablón	5	Mayo	2023-05-25T00:00:00	2024-11-06T18:00:00	7	Dirección del viento	3.22
156239	7	Sololá	701	Sololá	2	El tablón	5	Mayo	2023-05-25T00:00:00	2024-11-06T18:00:00	1	Precipitación	3.2
156240	7	Sololá	701	Sololá	2	El tablón	5	Mayo	2023-05-25T00:00:00	2024-11-06T18:00:00	8	Radiación solar	2
156241	7	Sololá	701	Sololá	2	El tablón	5	Mayo	2023-05-25T00:00:00	2024-11-06T19:00:00	2	Temperatura media	14.9
156242	7	Sololá	701	Sololá	2	El tablón	5	Mayo	2023-05-25T00:00:00	2024-11-06T19:00:00	4	Temperatura máxima	14.9
156243	7	Sololá	701	Sololá	2	El tablón	5	Mayo	2023-05-25T00:00:00	2024-11-06T19:00:00	3	Temperatura mínima	14.3
156244	7	Sololá	701	Sololá	2	El tablón	5	Mayo	2023-05-25T00:00:00	2024-11-06T19:00:00	5	Humedad	88
156245	7	Sololá	701	Sololá	2	El tablón	5	Mayo	2023-05-25T00:00:00	2024-11-06T19:00:00	6	Velocidad del viento	1.6
156246	7	Sololá	701	Sololá	2	El tablón	5	Mayo	2023-05-25T00:00:00	2024-11-06T19:00:00	7	Dirección del viento	1.61
156247	7	Sololá	701	Sololá	2	El tablón	5	Mayo	2023-05-25T00:00:00	2024-11-06T19:00:00	1	Precipitación	0
156248	7	Sololá	701	Sololá	2	El tablón	5	Mayo	2023-05-25T00:00:00	2024-11-06T19:00:00	8	Radiación solar	0
156249	7	Sololá	701	Sololá	2	El tablón	5	Mayo	2023-05-25T00:00:00	2024-11-06T20:00:00	2	Temperatura media	14.3
156250	7	Sololá	701	Sololá	2	El tablón	5	Mayo	2023-05-25T00:00:00	2024-11-06T20:00:00	4	Temperatura máxima	15
156251	7	Sololá	701	Sololá	2	El tablón	5	Mayo	2023-05-25T00:00:00	2024-11-06T20:00:00	3	Temperatura mínima	14.3
156252	7	Sololá	701	Sololá	2	El tablón	5	Mayo	2023-05-25T00:00:00	2024-11-06T20:00:00	5	Humedad	88
156253	7	Sololá	701	Sololá	2	El tablón	5	Mayo	2023-05-25T00:00:00	2024-11-06T20:00:00	6	Velocidad del viento	1.6
156254	7	Sololá	701	Sololá	2	El tablón	5	Mayo	2023-05-25T00:00:00	2024-11-06T20:00:00	7	Dirección del viento	1.61
156255	7	Sololá	701	Sololá	2	El tablón	5	Mayo	2023-05-25T00:00:00	2024-11-06T20:00:00	1	Precipitación	0
156256	7	Sololá	701	Sololá	2	El tablón	5	Mayo	2023-05-25T00:00:00	2024-11-06T20:00:00	8	Radiación solar	0
156257	7	Sololá	701	Sololá	2	El tablón	5	Mayo	2023-05-25T00:00:00	2024-11-06T21:00:00	2	Temperatura media	14.3
156258	7	Sololá	701	Sololá	2	El tablón	5	Mayo	2023-05-25T00:00:00	2024-11-06T21:00:00	4	Temperatura máxima	14.3
156259	7	Sololá	701	Sololá	2	El tablón	5	Mayo	2023-05-25T00:00:00	2024-11-06T21:00:00	3	Temperatura mínima	14.2
156260	7	Sololá	701	Sololá	2	El tablón	5	Mayo	2023-05-25T00:00:00	2024-11-06T21:00:00	5	Humedad	88
156261	7	Sololá	701	Sololá	2	El tablón	5	Mayo	2023-05-25T00:00:00	2024-11-06T21:00:00	6	Velocidad del viento	0
156262	7	Sololá	701	Sololá	2	El tablón	5	Mayo	2023-05-25T00:00:00	2024-11-06T21:00:00	7	Dirección del viento	0
156263	7	Sololá	701	Sololá	2	El tablón	5	Mayo	2023-05-25T00:00:00	2024-11-06T21:00:00	1	Precipitación	0
156264	7	Sololá	701	Sololá	2	El tablón	5	Mayo	2023-05-25T00:00:00	2024-11-06T21:00:00	8	Radiación solar	0
156265	7	Sololá	701	Sololá	2	El tablón	5	Mayo	2023-05-25T00:00:00	2024-11-06T22:00:00	2	Temperatura media	13.8
156266	7	Sololá	701	Sololá	2	El tablón	5	Mayo	2023-05-25T00:00:00	2024-11-06T22:00:00	4	Temperatura máxima	14.3
156267	7	Sololá	701	Sololá	2	El tablón	5	Mayo	2023-05-25T00:00:00	2024-11-06T22:00:00	3	Temperatura mínima	13.8
156268	7	Sololá	701	Sololá	2	El tablón	5	Mayo	2023-05-25T00:00:00	2024-11-06T22:00:00	5	Humedad	88
156269	7	Sololá	701	Sololá	2	El tablón	5	Mayo	2023-05-25T00:00:00	2024-11-06T22:00:00	6	Velocidad del viento	1.6
156270	7	Sololá	701	Sololá	2	El tablón	5	Mayo	2023-05-25T00:00:00	2024-11-06T22:00:00	7	Dirección del viento	1.61
156271	7	Sololá	701	Sololá	2	El tablón	5	Mayo	2023-05-25T00:00:00	2024-11-06T22:00:00	1	Precipitación	0
156272	7	Sololá	701	Sololá	2	El tablón	5	Mayo	2023-05-25T00:00:00	2024-11-06T22:00:00	8	Radiación solar	0
156273	7	Sololá	701	Sololá	2	El tablón	5	Mayo	2023-05-25T00:00:00	2024-11-06T23:00:00	2	Temperatura media	13.4
156274	7	Sololá	701	Sololá	2	El tablón	5	Mayo	2023-05-25T00:00:00	2024-11-06T23:00:00	4	Temperatura máxima	13.8
156275	7	Sololá	701	Sololá	2	El tablón	5	Mayo	2023-05-25T00:00:00	2024-11-06T23:00:00	3	Temperatura mínima	13.3
156276	7	Sololá	701	Sololá	2	El tablón	5	Mayo	2023-05-25T00:00:00	2024-11-06T23:00:00	5	Humedad	88
156277	7	Sololá	701	Sololá	2	El tablón	5	Mayo	2023-05-25T00:00:00	2024-11-06T23:00:00	6	Velocidad del viento	1.6
156278	7	Sololá	701	Sololá	2	El tablón	5	Mayo	2023-05-25T00:00:00	2024-11-06T23:00:00	7	Dirección del viento	1.61
156279	7	Sololá	701	Sololá	2	El tablón	5	Mayo	2023-05-25T00:00:00	2024-11-06T23:00:00	1	Precipitación	0
156280	7	Sololá	701	Sololá	2	El tablón	5	Mayo	2023-05-25T00:00:00	2024-11-06T23:00:00	8	Radiación solar	0
156281	7	Sololá	701	Sololá	2	El tablón	5	Mayo	2023-05-26T00:00:00	2024-11-06T00:00:00	2	Temperatura media	13.6
156282	7	Sololá	701	Sololá	2	El tablón	5	Mayo	2023-05-26T00:00:00	2024-11-06T00:00:00	4	Temperatura máxima	13.6
156283	7	Sololá	701	Sololá	2	El tablón	5	Mayo	2023-05-26T00:00:00	2024-11-06T00:00:00	3	Temperatura mínima	13.4
156284	7	Sololá	701	Sololá	2	El tablón	5	Mayo	2023-05-26T00:00:00	2024-11-06T00:00:00	5	Humedad	88
156285	7	Sololá	701	Sololá	2	El tablón	5	Mayo	2023-05-26T00:00:00	2024-11-06T00:00:00	6	Velocidad del viento	4.8
156286	7	Sololá	701	Sololá	2	El tablón	5	Mayo	2023-05-26T00:00:00	2024-11-06T00:00:00	7	Dirección del viento	4.83
156287	7	Sololá	701	Sololá	2	El tablón	5	Mayo	2023-05-26T00:00:00	2024-11-06T00:00:00	1	Precipitación	0
156288	7	Sololá	701	Sololá	2	El tablón	5	Mayo	2023-05-26T00:00:00	2024-11-06T00:00:00	8	Radiación solar	0
156289	7	Sololá	701	Sololá	2	El tablón	5	Mayo	2023-05-26T00:00:00	2024-11-06T01:00:00	2	Temperatura media	12.2
156290	7	Sololá	701	Sololá	2	El tablón	5	Mayo	2023-05-26T00:00:00	2024-11-06T01:00:00	4	Temperatura máxima	13.6
156291	7	Sololá	701	Sololá	2	El tablón	5	Mayo	2023-05-26T00:00:00	2024-11-06T01:00:00	3	Temperatura mínima	12.2
156292	7	Sololá	701	Sololá	2	El tablón	5	Mayo	2023-05-26T00:00:00	2024-11-06T01:00:00	5	Humedad	89
156293	7	Sololá	701	Sololá	2	El tablón	5	Mayo	2023-05-26T00:00:00	2024-11-06T01:00:00	6	Velocidad del viento	3.2
156294	7	Sololá	701	Sololá	2	El tablón	5	Mayo	2023-05-26T00:00:00	2024-11-06T01:00:00	7	Dirección del viento	3.22
156295	7	Sololá	701	Sololá	2	El tablón	5	Mayo	2023-05-26T00:00:00	2024-11-06T01:00:00	1	Precipitación	0
156296	7	Sololá	701	Sololá	2	El tablón	5	Mayo	2023-05-26T00:00:00	2024-11-06T01:00:00	8	Radiación solar	0
156297	7	Sololá	701	Sololá	2	El tablón	5	Mayo	2023-05-26T00:00:00	2024-11-06T02:00:00	2	Temperatura media	12.6
156298	7	Sololá	701	Sololá	2	El tablón	5	Mayo	2023-05-26T00:00:00	2024-11-06T02:00:00	4	Temperatura máxima	12.6
156299	7	Sololá	701	Sololá	2	El tablón	5	Mayo	2023-05-26T00:00:00	2024-11-06T02:00:00	3	Temperatura mínima	12.2
156300	7	Sololá	701	Sololá	2	El tablón	5	Mayo	2023-05-26T00:00:00	2024-11-06T02:00:00	5	Humedad	88
156301	7	Sololá	701	Sololá	2	El tablón	5	Mayo	2023-05-26T00:00:00	2024-11-06T02:00:00	6	Velocidad del viento	3.2
156302	7	Sololá	701	Sololá	2	El tablón	5	Mayo	2023-05-26T00:00:00	2024-11-06T02:00:00	7	Dirección del viento	3.22
156303	7	Sololá	701	Sololá	2	El tablón	5	Mayo	2023-05-26T00:00:00	2024-11-06T02:00:00	1	Precipitación	0
156304	7	Sololá	701	Sololá	2	El tablón	5	Mayo	2023-05-26T00:00:00	2024-11-06T02:00:00	8	Radiación solar	0
156305	7	Sololá	701	Sololá	2	El tablón	5	Mayo	2023-05-26T00:00:00	2024-11-06T03:00:00	2	Temperatura media	11.7
156306	7	Sololá	701	Sololá	2	El tablón	5	Mayo	2023-05-26T00:00:00	2024-11-06T03:00:00	4	Temperatura máxima	12.6
156307	7	Sololá	701	Sololá	2	El tablón	5	Mayo	2023-05-26T00:00:00	2024-11-06T03:00:00	3	Temperatura mínima	11.6
156308	7	Sololá	701	Sololá	2	El tablón	5	Mayo	2023-05-26T00:00:00	2024-11-06T03:00:00	5	Humedad	88
156309	7	Sololá	701	Sololá	2	El tablón	5	Mayo	2023-05-26T00:00:00	2024-11-06T03:00:00	6	Velocidad del viento	3.2
156310	7	Sololá	701	Sololá	2	El tablón	5	Mayo	2023-05-26T00:00:00	2024-11-06T03:00:00	7	Dirección del viento	3.22
156311	7	Sololá	701	Sololá	2	El tablón	5	Mayo	2023-05-26T00:00:00	2024-11-06T03:00:00	1	Precipitación	0
156312	7	Sololá	701	Sololá	2	El tablón	5	Mayo	2023-05-26T00:00:00	2024-11-06T03:00:00	8	Radiación solar	0
156313	7	Sololá	701	Sololá	2	El tablón	5	Mayo	2023-05-26T00:00:00	2024-11-06T04:00:00	2	Temperatura media	10.9
156314	7	Sololá	701	Sololá	2	El tablón	5	Mayo	2023-05-26T00:00:00	2024-11-06T04:00:00	4	Temperatura máxima	11.7
156315	7	Sololá	701	Sololá	2	El tablón	5	Mayo	2023-05-26T00:00:00	2024-11-06T04:00:00	3	Temperatura mínima	10.9
156316	7	Sololá	701	Sololá	2	El tablón	5	Mayo	2023-05-26T00:00:00	2024-11-06T04:00:00	5	Humedad	89
156317	7	Sololá	701	Sololá	2	El tablón	5	Mayo	2023-05-26T00:00:00	2024-11-06T04:00:00	6	Velocidad del viento	1.6
156318	7	Sololá	701	Sololá	2	El tablón	5	Mayo	2023-05-26T00:00:00	2024-11-06T04:00:00	7	Dirección del viento	1.61
156319	7	Sololá	701	Sololá	2	El tablón	5	Mayo	2023-05-26T00:00:00	2024-11-06T04:00:00	1	Precipitación	0
156320	7	Sololá	701	Sololá	2	El tablón	5	Mayo	2023-05-26T00:00:00	2024-11-06T04:00:00	8	Radiación solar	0
156321	7	Sololá	701	Sololá	2	El tablón	5	Mayo	2023-05-26T00:00:00	2024-11-06T05:00:00	2	Temperatura media	10.5
156322	7	Sololá	701	Sololá	2	El tablón	5	Mayo	2023-05-26T00:00:00	2024-11-06T05:00:00	4	Temperatura máxima	10.9
156323	7	Sololá	701	Sololá	2	El tablón	5	Mayo	2023-05-26T00:00:00	2024-11-06T05:00:00	3	Temperatura mínima	10.2
156324	7	Sololá	701	Sololá	2	El tablón	5	Mayo	2023-05-26T00:00:00	2024-11-06T05:00:00	5	Humedad	89
156325	7	Sololá	701	Sololá	2	El tablón	5	Mayo	2023-05-26T00:00:00	2024-11-06T05:00:00	6	Velocidad del viento	1.6
156326	7	Sololá	701	Sololá	2	El tablón	5	Mayo	2023-05-26T00:00:00	2024-11-06T05:00:00	7	Dirección del viento	1.61
156327	7	Sololá	701	Sololá	2	El tablón	5	Mayo	2023-05-26T00:00:00	2024-11-06T05:00:00	1	Precipitación	0
156328	7	Sololá	701	Sololá	2	El tablón	5	Mayo	2023-05-26T00:00:00	2024-11-06T05:00:00	8	Radiación solar	0
156329	7	Sololá	701	Sololá	2	El tablón	5	Mayo	2023-05-26T00:00:00	2024-11-06T06:00:00	2	Temperatura media	11.5
156330	7	Sololá	701	Sololá	2	El tablón	5	Mayo	2023-05-26T00:00:00	2024-11-06T06:00:00	4	Temperatura máxima	12.3
156331	7	Sololá	701	Sololá	2	El tablón	5	Mayo	2023-05-26T00:00:00	2024-11-06T06:00:00	3	Temperatura mínima	10.5
156332	7	Sololá	701	Sololá	2	El tablón	5	Mayo	2023-05-26T00:00:00	2024-11-06T06:00:00	5	Humedad	87
156333	7	Sololá	701	Sololá	2	El tablón	5	Mayo	2023-05-26T00:00:00	2024-11-06T06:00:00	6	Velocidad del viento	4.8
156334	7	Sololá	701	Sololá	2	El tablón	5	Mayo	2023-05-26T00:00:00	2024-11-06T06:00:00	7	Dirección del viento	4.83
156335	7	Sololá	701	Sololá	2	El tablón	5	Mayo	2023-05-26T00:00:00	2024-11-06T06:00:00	1	Precipitación	0
156336	7	Sololá	701	Sololá	2	El tablón	5	Mayo	2023-05-26T00:00:00	2024-11-06T06:00:00	8	Radiación solar	5
156337	7	Sololá	701	Sololá	2	El tablón	5	Mayo	2023-05-26T00:00:00	2024-11-06T07:00:00	2	Temperatura media	12.8
156338	7	Sololá	701	Sololá	2	El tablón	5	Mayo	2023-05-26T00:00:00	2024-11-06T07:00:00	4	Temperatura máxima	12.8
156339	7	Sololá	701	Sololá	2	El tablón	5	Mayo	2023-05-26T00:00:00	2024-11-06T07:00:00	3	Temperatura mínima	11.2
156340	7	Sololá	701	Sololá	2	El tablón	5	Mayo	2023-05-26T00:00:00	2024-11-06T07:00:00	5	Humedad	87
156341	7	Sololá	701	Sololá	2	El tablón	5	Mayo	2023-05-26T00:00:00	2024-11-06T07:00:00	6	Velocidad del viento	1.6
156342	7	Sololá	701	Sololá	2	El tablón	5	Mayo	2023-05-26T00:00:00	2024-11-06T07:00:00	7	Dirección del viento	1.61
156343	7	Sololá	701	Sololá	2	El tablón	5	Mayo	2023-05-26T00:00:00	2024-11-06T07:00:00	1	Precipitación	0
156344	7	Sololá	701	Sololá	2	El tablón	5	Mayo	2023-05-26T00:00:00	2024-11-06T07:00:00	8	Radiación solar	98
156345	7	Sololá	701	Sololá	2	El tablón	5	Mayo	2023-05-26T00:00:00	2024-11-06T08:00:00	2	Temperatura media	14.2
156346	7	Sololá	701	Sololá	2	El tablón	5	Mayo	2023-05-26T00:00:00	2024-11-06T08:00:00	4	Temperatura máxima	14.3
156347	7	Sololá	701	Sololá	2	El tablón	5	Mayo	2023-05-26T00:00:00	2024-11-06T08:00:00	3	Temperatura mínima	12.8
156348	7	Sololá	701	Sololá	2	El tablón	5	Mayo	2023-05-26T00:00:00	2024-11-06T08:00:00	5	Humedad	87
156349	7	Sololá	701	Sololá	2	El tablón	5	Mayo	2023-05-26T00:00:00	2024-11-06T08:00:00	6	Velocidad del viento	3.2
156350	7	Sololá	701	Sololá	2	El tablón	5	Mayo	2023-05-26T00:00:00	2024-11-06T08:00:00	7	Dirección del viento	3.22
156351	7	Sololá	701	Sololá	2	El tablón	5	Mayo	2023-05-26T00:00:00	2024-11-06T08:00:00	1	Precipitación	0
156352	7	Sololá	701	Sololá	2	El tablón	5	Mayo	2023-05-26T00:00:00	2024-11-06T08:00:00	8	Radiación solar	188
156353	7	Sololá	701	Sololá	2	El tablón	5	Mayo	2023-05-26T00:00:00	2024-11-06T09:00:00	2	Temperatura media	15.9
156354	7	Sololá	701	Sololá	2	El tablón	5	Mayo	2023-05-26T00:00:00	2024-11-06T09:00:00	4	Temperatura máxima	16.4
156355	7	Sololá	701	Sololá	2	El tablón	5	Mayo	2023-05-26T00:00:00	2024-11-06T09:00:00	3	Temperatura mínima	14.2
156356	7	Sololá	701	Sololá	2	El tablón	5	Mayo	2023-05-26T00:00:00	2024-11-06T09:00:00	5	Humedad	82
156357	7	Sololá	701	Sololá	2	El tablón	5	Mayo	2023-05-26T00:00:00	2024-11-06T09:00:00	6	Velocidad del viento	1.6
156358	7	Sololá	701	Sololá	2	El tablón	5	Mayo	2023-05-26T00:00:00	2024-11-06T09:00:00	7	Dirección del viento	1.61
156359	7	Sololá	701	Sololá	2	El tablón	5	Mayo	2023-05-26T00:00:00	2024-11-06T09:00:00	1	Precipitación	0
156360	7	Sololá	701	Sololá	2	El tablón	5	Mayo	2023-05-26T00:00:00	2024-11-06T09:00:00	8	Radiación solar	368
156361	7	Sololá	701	Sololá	2	El tablón	5	Mayo	2023-05-26T00:00:00	2024-11-06T10:00:00	2	Temperatura media	15.7
156362	7	Sololá	701	Sololá	2	El tablón	5	Mayo	2023-05-26T00:00:00	2024-11-06T10:00:00	4	Temperatura máxima	15.9
156363	7	Sololá	701	Sololá	2	El tablón	5	Mayo	2023-05-26T00:00:00	2024-11-06T10:00:00	3	Temperatura mínima	15.7
156364	7	Sololá	701	Sololá	2	El tablón	5	Mayo	2023-05-26T00:00:00	2024-11-06T10:00:00	5	Humedad	83
156365	7	Sololá	701	Sololá	2	El tablón	5	Mayo	2023-05-26T00:00:00	2024-11-06T10:00:00	6	Velocidad del viento	4.8
156366	7	Sololá	701	Sololá	2	El tablón	5	Mayo	2023-05-26T00:00:00	2024-11-06T10:00:00	7	Dirección del viento	4.83
156367	7	Sololá	701	Sololá	2	El tablón	5	Mayo	2023-05-26T00:00:00	2024-11-06T10:00:00	1	Precipitación	0
156368	7	Sololá	701	Sololá	2	El tablón	5	Mayo	2023-05-26T00:00:00	2024-11-06T10:00:00	8	Radiación solar	415
156369	7	Sololá	701	Sololá	2	El tablón	5	Mayo	2023-05-26T00:00:00	2024-11-06T11:00:00	2	Temperatura media	17.6
156370	7	Sololá	701	Sololá	2	El tablón	5	Mayo	2023-05-26T00:00:00	2024-11-06T11:00:00	4	Temperatura máxima	17.6
156371	7	Sololá	701	Sololá	2	El tablón	5	Mayo	2023-05-26T00:00:00	2024-11-06T11:00:00	3	Temperatura mínima	15.7
156372	7	Sololá	701	Sololá	2	El tablón	5	Mayo	2023-05-26T00:00:00	2024-11-06T11:00:00	5	Humedad	77
156373	7	Sololá	701	Sololá	2	El tablón	5	Mayo	2023-05-26T00:00:00	2024-11-06T11:00:00	6	Velocidad del viento	4.8
156374	7	Sololá	701	Sololá	2	El tablón	5	Mayo	2023-05-26T00:00:00	2024-11-06T11:00:00	7	Dirección del viento	4.83
156375	7	Sololá	701	Sololá	2	El tablón	5	Mayo	2023-05-26T00:00:00	2024-11-06T11:00:00	1	Precipitación	0
156376	7	Sololá	701	Sololá	2	El tablón	5	Mayo	2023-05-26T00:00:00	2024-11-06T11:00:00	8	Radiación solar	677
156377	7	Sololá	701	Sololá	2	El tablón	5	Mayo	2023-05-26T00:00:00	2024-11-06T12:00:00	2	Temperatura media	18.1
156378	7	Sololá	701	Sololá	2	El tablón	5	Mayo	2023-05-26T00:00:00	2024-11-06T12:00:00	4	Temperatura máxima	18.2
156379	7	Sololá	701	Sololá	2	El tablón	5	Mayo	2023-05-26T00:00:00	2024-11-06T12:00:00	3	Temperatura mínima	17.6
156380	7	Sololá	701	Sololá	2	El tablón	5	Mayo	2023-05-26T00:00:00	2024-11-06T12:00:00	5	Humedad	75
156381	7	Sololá	701	Sololá	2	El tablón	5	Mayo	2023-05-26T00:00:00	2024-11-06T12:00:00	6	Velocidad del viento	4.8
156382	7	Sololá	701	Sololá	2	El tablón	5	Mayo	2023-05-26T00:00:00	2024-11-06T12:00:00	7	Dirección del viento	4.83
156383	7	Sololá	701	Sololá	2	El tablón	5	Mayo	2023-05-26T00:00:00	2024-11-06T12:00:00	1	Precipitación	0
156384	7	Sololá	701	Sololá	2	El tablón	5	Mayo	2023-05-26T00:00:00	2024-11-06T12:00:00	8	Radiación solar	769
156385	7	Sololá	701	Sololá	2	El tablón	5	Mayo	2023-05-26T00:00:00	2024-11-06T13:00:00	2	Temperatura media	18.5
156386	7	Sololá	701	Sololá	2	El tablón	5	Mayo	2023-05-26T00:00:00	2024-11-06T13:00:00	4	Temperatura máxima	18.8
156387	7	Sololá	701	Sololá	2	El tablón	5	Mayo	2023-05-26T00:00:00	2024-11-06T13:00:00	3	Temperatura mínima	18.1
156388	7	Sololá	701	Sololá	2	El tablón	5	Mayo	2023-05-26T00:00:00	2024-11-06T13:00:00	5	Humedad	79
156389	7	Sololá	701	Sololá	2	El tablón	5	Mayo	2023-05-26T00:00:00	2024-11-06T13:00:00	6	Velocidad del viento	6.4
156390	7	Sololá	701	Sololá	2	El tablón	5	Mayo	2023-05-26T00:00:00	2024-11-06T13:00:00	7	Dirección del viento	6.44
156391	7	Sololá	701	Sololá	2	El tablón	5	Mayo	2023-05-26T00:00:00	2024-11-06T13:00:00	1	Precipitación	0
156392	7	Sololá	701	Sololá	2	El tablón	5	Mayo	2023-05-26T00:00:00	2024-11-06T13:00:00	8	Radiación solar	808
156393	7	Sololá	701	Sololá	2	El tablón	5	Mayo	2023-05-26T00:00:00	2024-11-06T14:00:00	2	Temperatura media	18.3
156394	7	Sololá	701	Sololá	2	El tablón	5	Mayo	2023-05-26T00:00:00	2024-11-06T14:00:00	4	Temperatura máxima	18.9
156395	7	Sololá	701	Sololá	2	El tablón	5	Mayo	2023-05-26T00:00:00	2024-11-06T14:00:00	3	Temperatura mínima	18
156396	7	Sololá	701	Sololá	2	El tablón	5	Mayo	2023-05-26T00:00:00	2024-11-06T14:00:00	5	Humedad	81
156397	7	Sololá	701	Sololá	2	El tablón	5	Mayo	2023-05-26T00:00:00	2024-11-06T14:00:00	6	Velocidad del viento	8
156398	7	Sololá	701	Sololá	2	El tablón	5	Mayo	2023-05-26T00:00:00	2024-11-06T14:00:00	7	Dirección del viento	8.05
156399	7	Sololá	701	Sololá	2	El tablón	5	Mayo	2023-05-26T00:00:00	2024-11-06T14:00:00	1	Precipitación	0
156400	7	Sololá	701	Sololá	2	El tablón	5	Mayo	2023-05-26T00:00:00	2024-11-06T14:00:00	8	Radiación solar	706
156401	7	Sololá	701	Sololá	2	El tablón	5	Mayo	2023-05-26T00:00:00	2024-11-06T15:00:00	2	Temperatura media	19.1
156402	7	Sololá	701	Sololá	2	El tablón	5	Mayo	2023-05-26T00:00:00	2024-11-06T15:00:00	4	Temperatura máxima	19.1
156403	7	Sololá	701	Sololá	2	El tablón	5	Mayo	2023-05-26T00:00:00	2024-11-06T15:00:00	3	Temperatura mínima	17.7
156404	7	Sololá	701	Sololá	2	El tablón	5	Mayo	2023-05-26T00:00:00	2024-11-06T15:00:00	5	Humedad	75
156405	7	Sololá	701	Sololá	2	El tablón	5	Mayo	2023-05-26T00:00:00	2024-11-06T15:00:00	6	Velocidad del viento	6.4
156406	7	Sololá	701	Sololá	2	El tablón	5	Mayo	2023-05-26T00:00:00	2024-11-06T15:00:00	7	Dirección del viento	6.44
156407	7	Sololá	701	Sololá	2	El tablón	5	Mayo	2023-05-26T00:00:00	2024-11-06T15:00:00	1	Precipitación	0
156408	7	Sololá	701	Sololá	2	El tablón	5	Mayo	2023-05-26T00:00:00	2024-11-06T15:00:00	8	Radiación solar	504
156409	7	Sololá	701	Sololá	2	El tablón	5	Mayo	2023-05-26T00:00:00	2024-11-06T16:00:00	2	Temperatura media	17.3
156410	7	Sololá	701	Sololá	2	El tablón	5	Mayo	2023-05-26T00:00:00	2024-11-06T16:00:00	4	Temperatura máxima	19.6
156411	7	Sololá	701	Sololá	2	El tablón	5	Mayo	2023-05-26T00:00:00	2024-11-06T16:00:00	3	Temperatura mínima	17.3
156412	7	Sololá	701	Sololá	2	El tablón	5	Mayo	2023-05-26T00:00:00	2024-11-06T16:00:00	5	Humedad	83
156413	7	Sololá	701	Sololá	2	El tablón	5	Mayo	2023-05-26T00:00:00	2024-11-06T16:00:00	6	Velocidad del viento	6.4
156414	7	Sololá	701	Sololá	2	El tablón	5	Mayo	2023-05-26T00:00:00	2024-11-06T16:00:00	7	Dirección del viento	6.44
156415	7	Sololá	701	Sololá	2	El tablón	5	Mayo	2023-05-26T00:00:00	2024-11-06T16:00:00	1	Precipitación	0
156416	7	Sololá	701	Sololá	2	El tablón	5	Mayo	2023-05-26T00:00:00	2024-11-06T16:00:00	8	Radiación solar	496
156417	7	Sololá	701	Sololá	2	El tablón	5	Mayo	2023-05-26T00:00:00	2024-11-06T17:00:00	2	Temperatura media	16
156418	7	Sololá	701	Sololá	2	El tablón	5	Mayo	2023-05-26T00:00:00	2024-11-06T17:00:00	4	Temperatura máxima	17.3
156419	7	Sololá	701	Sololá	2	El tablón	5	Mayo	2023-05-26T00:00:00	2024-11-06T17:00:00	3	Temperatura mínima	16
156420	7	Sololá	701	Sololá	2	El tablón	5	Mayo	2023-05-26T00:00:00	2024-11-06T17:00:00	5	Humedad	88
156421	7	Sololá	701	Sololá	2	El tablón	5	Mayo	2023-05-26T00:00:00	2024-11-06T17:00:00	6	Velocidad del viento	3.2
156422	7	Sololá	701	Sololá	2	El tablón	5	Mayo	2023-05-26T00:00:00	2024-11-06T17:00:00	7	Dirección del viento	3.22
156423	7	Sololá	701	Sololá	2	El tablón	5	Mayo	2023-05-26T00:00:00	2024-11-06T17:00:00	1	Precipitación	0
156424	7	Sololá	701	Sololá	2	El tablón	5	Mayo	2023-05-26T00:00:00	2024-11-06T17:00:00	8	Radiación solar	80
156425	7	Sololá	701	Sololá	2	El tablón	5	Mayo	2023-05-26T00:00:00	2024-11-06T18:00:00	2	Temperatura media	15.4
156426	7	Sololá	701	Sololá	2	El tablón	5	Mayo	2023-05-26T00:00:00	2024-11-06T18:00:00	4	Temperatura máxima	16.1
156427	7	Sololá	701	Sololá	2	El tablón	5	Mayo	2023-05-26T00:00:00	2024-11-06T18:00:00	3	Temperatura mínima	15.4
156428	7	Sololá	701	Sololá	2	El tablón	5	Mayo	2023-05-26T00:00:00	2024-11-06T18:00:00	5	Humedad	88
156429	7	Sololá	701	Sololá	2	El tablón	5	Mayo	2023-05-26T00:00:00	2024-11-06T18:00:00	6	Velocidad del viento	3.2
156430	7	Sololá	701	Sololá	2	El tablón	5	Mayo	2023-05-26T00:00:00	2024-11-06T18:00:00	7	Dirección del viento	3.22
156431	7	Sololá	701	Sololá	2	El tablón	5	Mayo	2023-05-26T00:00:00	2024-11-06T18:00:00	1	Precipitación	0
156432	7	Sololá	701	Sololá	2	El tablón	5	Mayo	2023-05-26T00:00:00	2024-11-06T18:00:00	8	Radiación solar	17
156433	7	Sololá	701	Sololá	2	El tablón	5	Mayo	2023-05-26T00:00:00	2024-11-06T19:00:00	2	Temperatura media	15.4
156434	7	Sololá	701	Sololá	2	El tablón	5	Mayo	2023-05-26T00:00:00	2024-11-06T19:00:00	4	Temperatura máxima	15.5
156435	7	Sololá	701	Sololá	2	El tablón	5	Mayo	2023-05-26T00:00:00	2024-11-06T19:00:00	3	Temperatura mínima	15.3
156436	7	Sololá	701	Sololá	2	El tablón	5	Mayo	2023-05-26T00:00:00	2024-11-06T19:00:00	5	Humedad	88
156437	7	Sololá	701	Sololá	2	El tablón	5	Mayo	2023-05-26T00:00:00	2024-11-06T19:00:00	6	Velocidad del viento	0
156438	7	Sololá	701	Sololá	2	El tablón	5	Mayo	2023-05-26T00:00:00	2024-11-06T19:00:00	7	Dirección del viento	0
156439	7	Sololá	701	Sololá	2	El tablón	5	Mayo	2023-05-26T00:00:00	2024-11-06T19:00:00	1	Precipitación	0
156440	7	Sololá	701	Sololá	2	El tablón	5	Mayo	2023-05-26T00:00:00	2024-11-06T19:00:00	8	Radiación solar	0
156441	7	Sololá	701	Sololá	2	El tablón	5	Mayo	2023-05-26T00:00:00	2024-11-06T20:00:00	2	Temperatura media	14.5
156442	7	Sololá	701	Sololá	2	El tablón	5	Mayo	2023-05-26T00:00:00	2024-11-06T20:00:00	4	Temperatura máxima	15.4
156443	7	Sololá	701	Sololá	2	El tablón	5	Mayo	2023-05-26T00:00:00	2024-11-06T20:00:00	3	Temperatura mínima	14.2
156444	7	Sololá	701	Sololá	2	El tablón	5	Mayo	2023-05-26T00:00:00	2024-11-06T20:00:00	5	Humedad	80
156445	7	Sololá	701	Sololá	2	El tablón	5	Mayo	2023-05-26T00:00:00	2024-11-06T20:00:00	6	Velocidad del viento	0
156446	7	Sololá	701	Sololá	2	El tablón	5	Mayo	2023-05-26T00:00:00	2024-11-06T20:00:00	7	Dirección del viento	0
156447	7	Sololá	701	Sololá	2	El tablón	5	Mayo	2023-05-26T00:00:00	2024-11-06T20:00:00	1	Precipitación	0
156448	7	Sololá	701	Sololá	2	El tablón	5	Mayo	2023-05-26T00:00:00	2024-11-06T20:00:00	8	Radiación solar	0
156449	7	Sololá	701	Sololá	2	El tablón	5	Mayo	2023-05-26T00:00:00	2024-11-06T21:00:00	2	Temperatura media	14.9
156450	7	Sololá	701	Sololá	2	El tablón	5	Mayo	2023-05-26T00:00:00	2024-11-06T21:00:00	4	Temperatura máxima	15.1
156451	7	Sololá	701	Sololá	2	El tablón	5	Mayo	2023-05-26T00:00:00	2024-11-06T21:00:00	3	Temperatura mínima	14.5
156452	7	Sololá	701	Sololá	2	El tablón	5	Mayo	2023-05-26T00:00:00	2024-11-06T21:00:00	5	Humedad	80
156453	7	Sololá	701	Sololá	2	El tablón	5	Mayo	2023-05-26T00:00:00	2024-11-06T21:00:00	6	Velocidad del viento	3.2
156454	7	Sololá	701	Sololá	2	El tablón	5	Mayo	2023-05-26T00:00:00	2024-11-06T21:00:00	7	Dirección del viento	3.22
156455	7	Sololá	701	Sololá	2	El tablón	5	Mayo	2023-05-26T00:00:00	2024-11-06T21:00:00	1	Precipitación	0
156456	7	Sololá	701	Sololá	2	El tablón	5	Mayo	2023-05-26T00:00:00	2024-11-06T21:00:00	8	Radiación solar	0
156457	7	Sololá	701	Sololá	2	El tablón	5	Mayo	2023-05-26T00:00:00	2024-11-06T22:00:00	2	Temperatura media	14.3
156458	7	Sololá	701	Sololá	2	El tablón	5	Mayo	2023-05-26T00:00:00	2024-11-06T22:00:00	4	Temperatura máxima	14.9
156459	7	Sololá	701	Sololá	2	El tablón	5	Mayo	2023-05-26T00:00:00	2024-11-06T22:00:00	3	Temperatura mínima	14.3
156460	7	Sololá	701	Sololá	2	El tablón	5	Mayo	2023-05-26T00:00:00	2024-11-06T22:00:00	5	Humedad	84
156461	7	Sololá	701	Sololá	2	El tablón	5	Mayo	2023-05-26T00:00:00	2024-11-06T22:00:00	6	Velocidad del viento	4.8
156462	7	Sololá	701	Sololá	2	El tablón	5	Mayo	2023-05-26T00:00:00	2024-11-06T22:00:00	7	Dirección del viento	4.83
156463	7	Sololá	701	Sololá	2	El tablón	5	Mayo	2023-05-26T00:00:00	2024-11-06T22:00:00	1	Precipitación	0
156464	7	Sololá	701	Sololá	2	El tablón	5	Mayo	2023-05-26T00:00:00	2024-11-06T22:00:00	8	Radiación solar	0
156465	7	Sololá	701	Sololá	2	El tablón	5	Mayo	2023-05-26T00:00:00	2024-11-06T23:00:00	2	Temperatura media	13.6
156466	7	Sololá	701	Sololá	2	El tablón	5	Mayo	2023-05-26T00:00:00	2024-11-06T23:00:00	4	Temperatura máxima	14.4
156467	7	Sololá	701	Sololá	2	El tablón	5	Mayo	2023-05-26T00:00:00	2024-11-06T23:00:00	3	Temperatura mínima	13.6
156468	7	Sololá	701	Sololá	2	El tablón	5	Mayo	2023-05-26T00:00:00	2024-11-06T23:00:00	5	Humedad	85
156469	7	Sololá	701	Sololá	2	El tablón	5	Mayo	2023-05-26T00:00:00	2024-11-06T23:00:00	6	Velocidad del viento	4.8
156470	7	Sololá	701	Sololá	2	El tablón	5	Mayo	2023-05-26T00:00:00	2024-11-06T23:00:00	7	Dirección del viento	4.83
156471	7	Sololá	701	Sololá	2	El tablón	5	Mayo	2023-05-26T00:00:00	2024-11-06T23:00:00	1	Precipitación	0
156472	7	Sololá	701	Sololá	2	El tablón	5	Mayo	2023-05-26T00:00:00	2024-11-06T23:00:00	8	Radiación solar	0
156473	7	Sololá	701	Sololá	2	El tablón	5	Mayo	2023-05-27T00:00:00	2024-11-06T00:00:00	2	Temperatura media	12.8
156474	7	Sololá	701	Sololá	2	El tablón	5	Mayo	2023-05-27T00:00:00	2024-11-06T00:00:00	4	Temperatura máxima	13.6
156475	7	Sololá	701	Sololá	2	El tablón	5	Mayo	2023-05-27T00:00:00	2024-11-06T00:00:00	3	Temperatura mínima	12.8
156476	7	Sololá	701	Sololá	2	El tablón	5	Mayo	2023-05-27T00:00:00	2024-11-06T00:00:00	5	Humedad	86
156477	7	Sololá	701	Sololá	2	El tablón	5	Mayo	2023-05-27T00:00:00	2024-11-06T00:00:00	6	Velocidad del viento	4.8
156478	7	Sololá	701	Sololá	2	El tablón	5	Mayo	2023-05-27T00:00:00	2024-11-06T00:00:00	7	Dirección del viento	4.83
156479	7	Sololá	701	Sololá	2	El tablón	5	Mayo	2023-05-27T00:00:00	2024-11-06T00:00:00	1	Precipitación	0
156480	7	Sololá	701	Sololá	2	El tablón	5	Mayo	2023-05-27T00:00:00	2024-11-06T00:00:00	8	Radiación solar	0
156481	7	Sololá	701	Sololá	2	El tablón	5	Mayo	2023-05-27T00:00:00	2024-11-06T01:00:00	2	Temperatura media	12.3
156482	7	Sololá	701	Sololá	2	El tablón	5	Mayo	2023-05-27T00:00:00	2024-11-06T01:00:00	4	Temperatura máxima	12.8
156483	7	Sololá	701	Sololá	2	El tablón	5	Mayo	2023-05-27T00:00:00	2024-11-06T01:00:00	3	Temperatura mínima	12.3
156484	7	Sololá	701	Sololá	2	El tablón	5	Mayo	2023-05-27T00:00:00	2024-11-06T01:00:00	5	Humedad	84
156485	7	Sololá	701	Sololá	2	El tablón	5	Mayo	2023-05-27T00:00:00	2024-11-06T01:00:00	6	Velocidad del viento	4.8
156486	7	Sololá	701	Sololá	2	El tablón	5	Mayo	2023-05-27T00:00:00	2024-11-06T01:00:00	7	Dirección del viento	4.83
156487	7	Sololá	701	Sololá	2	El tablón	5	Mayo	2023-05-27T00:00:00	2024-11-06T01:00:00	1	Precipitación	0
156488	7	Sololá	701	Sololá	2	El tablón	5	Mayo	2023-05-27T00:00:00	2024-11-06T01:00:00	8	Radiación solar	0
156489	7	Sololá	701	Sololá	2	El tablón	5	Mayo	2023-05-27T00:00:00	2024-11-06T02:00:00	2	Temperatura media	12.1
156490	7	Sololá	701	Sololá	2	El tablón	5	Mayo	2023-05-27T00:00:00	2024-11-06T02:00:00	4	Temperatura máxima	12.4
156491	7	Sololá	701	Sololá	2	El tablón	5	Mayo	2023-05-27T00:00:00	2024-11-06T02:00:00	3	Temperatura mínima	11.9
156492	7	Sololá	701	Sololá	2	El tablón	5	Mayo	2023-05-27T00:00:00	2024-11-06T02:00:00	5	Humedad	84
156493	7	Sololá	701	Sololá	2	El tablón	5	Mayo	2023-05-27T00:00:00	2024-11-06T02:00:00	6	Velocidad del viento	4.8
156494	7	Sololá	701	Sololá	2	El tablón	5	Mayo	2023-05-27T00:00:00	2024-11-06T02:00:00	7	Dirección del viento	4.83
156495	7	Sololá	701	Sololá	2	El tablón	5	Mayo	2023-05-27T00:00:00	2024-11-06T02:00:00	1	Precipitación	0
156496	7	Sololá	701	Sololá	2	El tablón	5	Mayo	2023-05-27T00:00:00	2024-11-06T02:00:00	8	Radiación solar	0
156497	7	Sololá	701	Sololá	2	El tablón	5	Mayo	2023-05-27T00:00:00	2024-11-06T03:00:00	2	Temperatura media	12.2
156498	7	Sololá	701	Sololá	2	El tablón	5	Mayo	2023-05-27T00:00:00	2024-11-06T03:00:00	4	Temperatura máxima	12.4
156499	7	Sololá	701	Sololá	2	El tablón	5	Mayo	2023-05-27T00:00:00	2024-11-06T03:00:00	3	Temperatura mínima	12.1
156500	7	Sololá	701	Sololá	2	El tablón	5	Mayo	2023-05-27T00:00:00	2024-11-06T03:00:00	5	Humedad	80
156501	7	Sololá	701	Sololá	2	El tablón	5	Mayo	2023-05-27T00:00:00	2024-11-06T03:00:00	6	Velocidad del viento	6.4
156502	7	Sololá	701	Sololá	2	El tablón	5	Mayo	2023-05-27T00:00:00	2024-11-06T03:00:00	7	Dirección del viento	6.44
156503	7	Sololá	701	Sololá	2	El tablón	5	Mayo	2023-05-27T00:00:00	2024-11-06T03:00:00	1	Precipitación	0
156504	7	Sololá	701	Sololá	2	El tablón	5	Mayo	2023-05-27T00:00:00	2024-11-06T03:00:00	8	Radiación solar	0
156505	7	Sololá	701	Sololá	2	El tablón	5	Mayo	2023-05-27T00:00:00	2024-11-06T04:00:00	2	Temperatura media	12.4
156506	7	Sololá	701	Sololá	2	El tablón	5	Mayo	2023-05-27T00:00:00	2024-11-06T04:00:00	4	Temperatura máxima	12.4
156507	7	Sololá	701	Sololá	2	El tablón	5	Mayo	2023-05-27T00:00:00	2024-11-06T04:00:00	3	Temperatura mínima	12.1
156508	7	Sololá	701	Sololá	2	El tablón	5	Mayo	2023-05-27T00:00:00	2024-11-06T04:00:00	5	Humedad	80
156509	7	Sololá	701	Sololá	2	El tablón	5	Mayo	2023-05-27T00:00:00	2024-11-06T04:00:00	6	Velocidad del viento	8
156510	7	Sololá	701	Sololá	2	El tablón	5	Mayo	2023-05-27T00:00:00	2024-11-06T04:00:00	7	Dirección del viento	8.05
156511	7	Sololá	701	Sololá	2	El tablón	5	Mayo	2023-05-27T00:00:00	2024-11-06T04:00:00	1	Precipitación	0
156512	7	Sololá	701	Sololá	2	El tablón	5	Mayo	2023-05-27T00:00:00	2024-11-06T04:00:00	8	Radiación solar	0
156513	7	Sololá	701	Sololá	2	El tablón	5	Mayo	2023-05-27T00:00:00	2024-11-06T05:00:00	2	Temperatura media	11.5
156514	7	Sololá	701	Sololá	2	El tablón	5	Mayo	2023-05-27T00:00:00	2024-11-06T05:00:00	4	Temperatura máxima	12.4
156515	7	Sololá	701	Sololá	2	El tablón	5	Mayo	2023-05-27T00:00:00	2024-11-06T05:00:00	3	Temperatura mínima	11.5
156516	7	Sololá	701	Sololá	2	El tablón	5	Mayo	2023-05-27T00:00:00	2024-11-06T05:00:00	5	Humedad	83
156517	7	Sololá	701	Sololá	2	El tablón	5	Mayo	2023-05-27T00:00:00	2024-11-06T05:00:00	6	Velocidad del viento	1.6
156518	7	Sololá	701	Sololá	2	El tablón	5	Mayo	2023-05-27T00:00:00	2024-11-06T05:00:00	7	Dirección del viento	1.61
156519	7	Sololá	701	Sololá	2	El tablón	5	Mayo	2023-05-27T00:00:00	2024-11-06T05:00:00	1	Precipitación	0
156520	7	Sololá	701	Sololá	2	El tablón	5	Mayo	2023-05-27T00:00:00	2024-11-06T05:00:00	8	Radiación solar	0
156521	7	Sololá	701	Sololá	2	El tablón	5	Mayo	2023-05-27T00:00:00	2024-11-06T06:00:00	2	Temperatura media	10.9
156522	7	Sololá	701	Sololá	2	El tablón	5	Mayo	2023-05-27T00:00:00	2024-11-06T06:00:00	4	Temperatura máxima	11.7
156523	7	Sololá	701	Sololá	2	El tablón	5	Mayo	2023-05-27T00:00:00	2024-11-06T06:00:00	3	Temperatura mínima	10.8
156524	7	Sololá	701	Sololá	2	El tablón	5	Mayo	2023-05-27T00:00:00	2024-11-06T06:00:00	5	Humedad	86
156525	7	Sololá	701	Sololá	2	El tablón	5	Mayo	2023-05-27T00:00:00	2024-11-06T06:00:00	6	Velocidad del viento	1.6
156526	7	Sololá	701	Sololá	2	El tablón	5	Mayo	2023-05-27T00:00:00	2024-11-06T06:00:00	7	Dirección del viento	1.61
156527	7	Sololá	701	Sololá	2	El tablón	5	Mayo	2023-05-27T00:00:00	2024-11-06T06:00:00	1	Precipitación	0
156528	7	Sololá	701	Sololá	2	El tablón	5	Mayo	2023-05-27T00:00:00	2024-11-06T06:00:00	8	Radiación solar	5
156529	7	Sololá	701	Sololá	2	El tablón	5	Mayo	2023-05-27T00:00:00	2024-11-06T07:00:00	2	Temperatura media	11.7
156530	7	Sololá	701	Sololá	2	El tablón	5	Mayo	2023-05-27T00:00:00	2024-11-06T07:00:00	4	Temperatura máxima	11.7
156531	7	Sololá	701	Sololá	2	El tablón	5	Mayo	2023-05-27T00:00:00	2024-11-06T07:00:00	3	Temperatura mínima	10.8
156532	7	Sololá	701	Sololá	2	El tablón	5	Mayo	2023-05-27T00:00:00	2024-11-06T07:00:00	5	Humedad	84
156533	7	Sololá	701	Sololá	2	El tablón	5	Mayo	2023-05-27T00:00:00	2024-11-06T07:00:00	6	Velocidad del viento	3.2
156534	7	Sololá	701	Sololá	2	El tablón	5	Mayo	2023-05-27T00:00:00	2024-11-06T07:00:00	7	Dirección del viento	3.22
156535	7	Sololá	701	Sololá	2	El tablón	5	Mayo	2023-05-27T00:00:00	2024-11-06T07:00:00	1	Precipitación	0
156536	7	Sololá	701	Sololá	2	El tablón	5	Mayo	2023-05-27T00:00:00	2024-11-06T07:00:00	8	Radiación solar	92
156537	7	Sololá	701	Sololá	2	El tablón	5	Mayo	2023-05-27T00:00:00	2024-11-06T08:00:00	2	Temperatura media	14.2
156538	7	Sololá	701	Sololá	2	El tablón	5	Mayo	2023-05-27T00:00:00	2024-11-06T08:00:00	4	Temperatura máxima	14.2
156539	7	Sololá	701	Sololá	2	El tablón	5	Mayo	2023-05-27T00:00:00	2024-11-06T08:00:00	3	Temperatura mínima	11.7
156540	7	Sololá	701	Sololá	2	El tablón	5	Mayo	2023-05-27T00:00:00	2024-11-06T08:00:00	5	Humedad	75
156541	7	Sololá	701	Sololá	2	El tablón	5	Mayo	2023-05-27T00:00:00	2024-11-06T08:00:00	6	Velocidad del viento	3.2
156542	7	Sololá	701	Sololá	2	El tablón	5	Mayo	2023-05-27T00:00:00	2024-11-06T08:00:00	7	Dirección del viento	3.22
156543	7	Sololá	701	Sololá	2	El tablón	5	Mayo	2023-05-27T00:00:00	2024-11-06T08:00:00	1	Precipitación	0
156544	7	Sololá	701	Sololá	2	El tablón	5	Mayo	2023-05-27T00:00:00	2024-11-06T08:00:00	8	Radiación solar	223
156545	7	Sololá	701	Sololá	2	El tablón	5	Mayo	2023-05-27T00:00:00	2024-11-06T09:00:00	2	Temperatura media	15.6
156546	7	Sololá	701	Sololá	2	El tablón	5	Mayo	2023-05-27T00:00:00	2024-11-06T09:00:00	4	Temperatura máxima	15.6
156547	7	Sololá	701	Sololá	2	El tablón	5	Mayo	2023-05-27T00:00:00	2024-11-06T09:00:00	3	Temperatura mínima	14.2
156548	7	Sololá	701	Sololá	2	El tablón	5	Mayo	2023-05-27T00:00:00	2024-11-06T09:00:00	5	Humedad	75
156549	7	Sololá	701	Sololá	2	El tablón	5	Mayo	2023-05-27T00:00:00	2024-11-06T09:00:00	6	Velocidad del viento	1.6
156550	7	Sololá	701	Sololá	2	El tablón	5	Mayo	2023-05-27T00:00:00	2024-11-06T09:00:00	7	Dirección del viento	1.61
156551	7	Sololá	701	Sololá	2	El tablón	5	Mayo	2023-05-27T00:00:00	2024-11-06T09:00:00	1	Precipitación	0
156552	7	Sololá	701	Sololá	2	El tablón	5	Mayo	2023-05-27T00:00:00	2024-11-06T09:00:00	8	Radiación solar	235
156553	7	Sololá	701	Sololá	2	El tablón	5	Mayo	2023-05-27T00:00:00	2024-11-06T10:00:00	2	Temperatura media	16.2
156554	7	Sololá	701	Sololá	2	El tablón	5	Mayo	2023-05-27T00:00:00	2024-11-06T10:00:00	4	Temperatura máxima	16.3
156555	7	Sololá	701	Sololá	2	El tablón	5	Mayo	2023-05-27T00:00:00	2024-11-06T10:00:00	3	Temperatura mínima	15.2
156556	7	Sololá	701	Sololá	2	El tablón	5	Mayo	2023-05-27T00:00:00	2024-11-06T10:00:00	5	Humedad	68
156557	7	Sololá	701	Sololá	2	El tablón	5	Mayo	2023-05-27T00:00:00	2024-11-06T10:00:00	6	Velocidad del viento	1.6
156558	7	Sololá	701	Sololá	2	El tablón	5	Mayo	2023-05-27T00:00:00	2024-11-06T10:00:00	7	Dirección del viento	1.61
156559	7	Sololá	701	Sololá	2	El tablón	5	Mayo	2023-05-27T00:00:00	2024-11-06T10:00:00	1	Precipitación	0
156560	7	Sololá	701	Sololá	2	El tablón	5	Mayo	2023-05-27T00:00:00	2024-11-06T10:00:00	8	Radiación solar	313
156561	7	Sololá	701	Sololá	2	El tablón	5	Mayo	2023-05-27T00:00:00	2024-11-06T11:00:00	2	Temperatura media	17.7
156562	7	Sololá	701	Sololá	2	El tablón	5	Mayo	2023-05-27T00:00:00	2024-11-06T11:00:00	4	Temperatura máxima	17.7
156563	7	Sololá	701	Sololá	2	El tablón	5	Mayo	2023-05-27T00:00:00	2024-11-06T11:00:00	3	Temperatura mínima	15.8
156564	7	Sololá	701	Sololá	2	El tablón	5	Mayo	2023-05-27T00:00:00	2024-11-06T11:00:00	5	Humedad	60
156565	7	Sololá	701	Sololá	2	El tablón	5	Mayo	2023-05-27T00:00:00	2024-11-06T11:00:00	6	Velocidad del viento	3.2
156566	7	Sololá	701	Sololá	2	El tablón	5	Mayo	2023-05-27T00:00:00	2024-11-06T11:00:00	7	Dirección del viento	3.22
156567	7	Sololá	701	Sololá	2	El tablón	5	Mayo	2023-05-27T00:00:00	2024-11-06T11:00:00	1	Precipitación	0
156568	7	Sololá	701	Sololá	2	El tablón	5	Mayo	2023-05-27T00:00:00	2024-11-06T11:00:00	8	Radiación solar	597
156569	7	Sololá	701	Sololá	2	El tablón	5	Mayo	2023-05-27T00:00:00	2024-11-06T12:00:00	2	Temperatura media	19.4
156570	7	Sololá	701	Sololá	2	El tablón	5	Mayo	2023-05-27T00:00:00	2024-11-06T12:00:00	4	Temperatura máxima	19.7
156571	7	Sololá	701	Sololá	2	El tablón	5	Mayo	2023-05-27T00:00:00	2024-11-06T12:00:00	3	Temperatura mínima	17.7
156572	7	Sololá	701	Sololá	2	El tablón	5	Mayo	2023-05-27T00:00:00	2024-11-06T12:00:00	5	Humedad	65
156573	7	Sololá	701	Sololá	2	El tablón	5	Mayo	2023-05-27T00:00:00	2024-11-06T12:00:00	6	Velocidad del viento	4.8
156574	7	Sololá	701	Sololá	2	El tablón	5	Mayo	2023-05-27T00:00:00	2024-11-06T12:00:00	7	Dirección del viento	4.83
156575	7	Sololá	701	Sololá	2	El tablón	5	Mayo	2023-05-27T00:00:00	2024-11-06T12:00:00	1	Precipitación	0
156576	7	Sololá	701	Sololá	2	El tablón	5	Mayo	2023-05-27T00:00:00	2024-11-06T12:00:00	8	Radiación solar	879
156577	7	Sololá	701	Sololá	2	El tablón	5	Mayo	2023-05-27T00:00:00	2024-11-06T13:00:00	2	Temperatura media	17.5
156578	7	Sololá	701	Sololá	2	El tablón	5	Mayo	2023-05-27T00:00:00	2024-11-06T13:00:00	4	Temperatura máxima	19.3
156579	7	Sololá	701	Sololá	2	El tablón	5	Mayo	2023-05-27T00:00:00	2024-11-06T13:00:00	3	Temperatura mínima	17.4
156580	7	Sololá	701	Sololá	2	El tablón	5	Mayo	2023-05-27T00:00:00	2024-11-06T13:00:00	5	Humedad	63
156581	7	Sololá	701	Sololá	2	El tablón	5	Mayo	2023-05-27T00:00:00	2024-11-06T13:00:00	6	Velocidad del viento	9.7
156582	7	Sololá	701	Sololá	2	El tablón	5	Mayo	2023-05-27T00:00:00	2024-11-06T13:00:00	7	Dirección del viento	9.66
156583	7	Sololá	701	Sololá	2	El tablón	5	Mayo	2023-05-27T00:00:00	2024-11-06T13:00:00	1	Precipitación	0
156584	7	Sololá	701	Sololá	2	El tablón	5	Mayo	2023-05-27T00:00:00	2024-11-06T13:00:00	8	Radiación solar	567
156585	7	Sololá	701	Sololá	2	El tablón	5	Mayo	2023-05-27T00:00:00	2024-11-06T14:00:00	2	Temperatura media	17.2
156586	7	Sololá	701	Sololá	2	El tablón	5	Mayo	2023-05-27T00:00:00	2024-11-06T14:00:00	4	Temperatura máxima	17.5
156587	7	Sololá	701	Sololá	2	El tablón	5	Mayo	2023-05-27T00:00:00	2024-11-06T14:00:00	3	Temperatura mínima	16.9
156588	7	Sololá	701	Sololá	2	El tablón	5	Mayo	2023-05-27T00:00:00	2024-11-06T14:00:00	5	Humedad	77
156589	7	Sololá	701	Sololá	2	El tablón	5	Mayo	2023-05-27T00:00:00	2024-11-06T14:00:00	6	Velocidad del viento	4.8
156590	7	Sololá	701	Sololá	2	El tablón	5	Mayo	2023-05-27T00:00:00	2024-11-06T14:00:00	7	Dirección del viento	4.83
156591	7	Sololá	701	Sololá	2	El tablón	5	Mayo	2023-05-27T00:00:00	2024-11-06T14:00:00	1	Precipitación	0
156592	7	Sololá	701	Sololá	2	El tablón	5	Mayo	2023-05-27T00:00:00	2024-11-06T14:00:00	8	Radiación solar	313
156593	7	Sololá	701	Sololá	2	El tablón	5	Mayo	2023-05-27T00:00:00	2024-11-06T15:00:00	2	Temperatura media	17.6
156594	7	Sololá	701	Sololá	2	El tablón	5	Mayo	2023-05-27T00:00:00	2024-11-06T15:00:00	4	Temperatura máxima	18
156595	7	Sololá	701	Sololá	2	El tablón	5	Mayo	2023-05-27T00:00:00	2024-11-06T15:00:00	3	Temperatura mínima	17.2
156596	7	Sololá	701	Sololá	2	El tablón	5	Mayo	2023-05-27T00:00:00	2024-11-06T15:00:00	5	Humedad	80
156597	7	Sololá	701	Sololá	2	El tablón	5	Mayo	2023-05-27T00:00:00	2024-11-06T15:00:00	6	Velocidad del viento	6.4
156598	7	Sololá	701	Sololá	2	El tablón	5	Mayo	2023-05-27T00:00:00	2024-11-06T15:00:00	7	Dirección del viento	6.44
156599	7	Sololá	701	Sololá	2	El tablón	5	Mayo	2023-05-27T00:00:00	2024-11-06T15:00:00	1	Precipitación	0
156600	7	Sololá	701	Sololá	2	El tablón	5	Mayo	2023-05-27T00:00:00	2024-11-06T15:00:00	8	Radiación solar	580
156601	7	Sololá	701	Sololá	2	El tablón	5	Mayo	2023-05-27T00:00:00	2024-11-06T16:00:00	2	Temperatura media	17.2
156602	7	Sololá	701	Sololá	2	El tablón	5	Mayo	2023-05-27T00:00:00	2024-11-06T16:00:00	4	Temperatura máxima	17.8
156603	7	Sololá	701	Sololá	2	El tablón	5	Mayo	2023-05-27T00:00:00	2024-11-06T16:00:00	3	Temperatura mínima	17.2
156604	7	Sololá	701	Sololá	2	El tablón	5	Mayo	2023-05-27T00:00:00	2024-11-06T16:00:00	5	Humedad	83
156605	7	Sololá	701	Sololá	2	El tablón	5	Mayo	2023-05-27T00:00:00	2024-11-06T16:00:00	6	Velocidad del viento	6.4
156606	7	Sololá	701	Sololá	2	El tablón	5	Mayo	2023-05-27T00:00:00	2024-11-06T16:00:00	7	Dirección del viento	6.44
156607	7	Sololá	701	Sololá	2	El tablón	5	Mayo	2023-05-27T00:00:00	2024-11-06T16:00:00	1	Precipitación	0
156608	7	Sololá	701	Sololá	2	El tablón	5	Mayo	2023-05-27T00:00:00	2024-11-06T16:00:00	8	Radiación solar	357
156609	7	Sololá	701	Sololá	2	El tablón	5	Mayo	2023-05-27T00:00:00	2024-11-06T17:00:00	2	Temperatura media	16.7
156610	7	Sololá	701	Sololá	2	El tablón	5	Mayo	2023-05-27T00:00:00	2024-11-06T17:00:00	4	Temperatura máxima	17.2
156611	7	Sololá	701	Sololá	2	El tablón	5	Mayo	2023-05-27T00:00:00	2024-11-06T17:00:00	3	Temperatura mínima	16.7
156612	7	Sololá	701	Sololá	2	El tablón	5	Mayo	2023-05-27T00:00:00	2024-11-06T17:00:00	5	Humedad	86
156613	7	Sololá	701	Sololá	2	El tablón	5	Mayo	2023-05-27T00:00:00	2024-11-06T17:00:00	6	Velocidad del viento	4.8
156614	7	Sololá	701	Sololá	2	El tablón	5	Mayo	2023-05-27T00:00:00	2024-11-06T17:00:00	7	Dirección del viento	4.83
156615	7	Sololá	701	Sololá	2	El tablón	5	Mayo	2023-05-27T00:00:00	2024-11-06T17:00:00	1	Precipitación	0
156616	7	Sololá	701	Sololá	2	El tablón	5	Mayo	2023-05-27T00:00:00	2024-11-06T17:00:00	8	Radiación solar	247
156617	7	Sololá	701	Sololá	2	El tablón	5	Mayo	2023-05-27T00:00:00	2024-11-06T18:00:00	2	Temperatura media	15.7
156618	7	Sololá	701	Sololá	2	El tablón	5	Mayo	2023-05-27T00:00:00	2024-11-06T18:00:00	4	Temperatura máxima	16.8
156619	7	Sololá	701	Sololá	2	El tablón	5	Mayo	2023-05-27T00:00:00	2024-11-06T18:00:00	3	Temperatura mínima	15.7
156620	7	Sololá	701	Sololá	2	El tablón	5	Mayo	2023-05-27T00:00:00	2024-11-06T18:00:00	5	Humedad	88
156621	7	Sololá	701	Sololá	2	El tablón	5	Mayo	2023-05-27T00:00:00	2024-11-06T18:00:00	6	Velocidad del viento	4.8
156622	7	Sololá	701	Sololá	2	El tablón	5	Mayo	2023-05-27T00:00:00	2024-11-06T18:00:00	7	Dirección del viento	4.83
156623	7	Sololá	701	Sololá	2	El tablón	5	Mayo	2023-05-27T00:00:00	2024-11-06T18:00:00	1	Precipitación	0
156624	7	Sololá	701	Sololá	2	El tablón	5	Mayo	2023-05-27T00:00:00	2024-11-06T18:00:00	8	Radiación solar	74
156625	7	Sololá	701	Sololá	2	El tablón	5	Mayo	2023-05-27T00:00:00	2024-11-06T19:00:00	2	Temperatura media	15.4
156626	7	Sololá	701	Sololá	2	El tablón	5	Mayo	2023-05-27T00:00:00	2024-11-06T19:00:00	4	Temperatura máxima	15.7
156627	7	Sololá	701	Sololá	2	El tablón	5	Mayo	2023-05-27T00:00:00	2024-11-06T19:00:00	3	Temperatura mínima	15.4
156628	7	Sololá	701	Sololá	2	El tablón	5	Mayo	2023-05-27T00:00:00	2024-11-06T19:00:00	5	Humedad	88
156629	7	Sololá	701	Sololá	2	El tablón	5	Mayo	2023-05-27T00:00:00	2024-11-06T19:00:00	6	Velocidad del viento	3.2
156630	7	Sololá	701	Sololá	2	El tablón	5	Mayo	2023-05-27T00:00:00	2024-11-06T19:00:00	7	Dirección del viento	3.22
156631	7	Sololá	701	Sololá	2	El tablón	5	Mayo	2023-05-27T00:00:00	2024-11-06T19:00:00	1	Precipitación	0
156632	7	Sololá	701	Sololá	2	El tablón	5	Mayo	2023-05-27T00:00:00	2024-11-06T19:00:00	8	Radiación solar	0
156633	7	Sololá	701	Sololá	2	El tablón	5	Mayo	2023-05-27T00:00:00	2024-11-06T20:00:00	2	Temperatura media	15
156634	7	Sololá	701	Sololá	2	El tablón	5	Mayo	2023-05-27T00:00:00	2024-11-06T20:00:00	4	Temperatura máxima	15.4
156635	7	Sololá	701	Sololá	2	El tablón	5	Mayo	2023-05-27T00:00:00	2024-11-06T20:00:00	3	Temperatura mínima	15
156636	7	Sololá	701	Sololá	2	El tablón	5	Mayo	2023-05-27T00:00:00	2024-11-06T20:00:00	5	Humedad	88
156637	7	Sololá	701	Sololá	2	El tablón	5	Mayo	2023-05-27T00:00:00	2024-11-06T20:00:00	6	Velocidad del viento	1.6
156638	7	Sololá	701	Sololá	2	El tablón	5	Mayo	2023-05-27T00:00:00	2024-11-06T20:00:00	7	Dirección del viento	1.61
156639	7	Sololá	701	Sololá	2	El tablón	5	Mayo	2023-05-27T00:00:00	2024-11-06T20:00:00	1	Precipitación	0
156640	7	Sololá	701	Sololá	2	El tablón	5	Mayo	2023-05-27T00:00:00	2024-11-06T20:00:00	8	Radiación solar	0
156641	7	Sololá	701	Sololá	2	El tablón	5	Mayo	2023-05-27T00:00:00	2024-11-06T21:00:00	2	Temperatura media	14.2
156642	7	Sololá	701	Sololá	2	El tablón	5	Mayo	2023-05-27T00:00:00	2024-11-06T21:00:00	4	Temperatura máxima	15
156643	7	Sololá	701	Sololá	2	El tablón	5	Mayo	2023-05-27T00:00:00	2024-11-06T21:00:00	3	Temperatura mínima	14.2
156644	7	Sololá	701	Sololá	2	El tablón	5	Mayo	2023-05-27T00:00:00	2024-11-06T21:00:00	5	Humedad	88
156645	7	Sololá	701	Sololá	2	El tablón	5	Mayo	2023-05-27T00:00:00	2024-11-06T21:00:00	6	Velocidad del viento	3.2
156646	7	Sololá	701	Sololá	2	El tablón	5	Mayo	2023-05-27T00:00:00	2024-11-06T21:00:00	7	Dirección del viento	3.22
156647	7	Sololá	701	Sololá	2	El tablón	5	Mayo	2023-05-27T00:00:00	2024-11-06T21:00:00	1	Precipitación	0
156648	7	Sololá	701	Sololá	2	El tablón	5	Mayo	2023-05-27T00:00:00	2024-11-06T21:00:00	8	Radiación solar	0
156649	7	Sololá	701	Sololá	2	El tablón	5	Mayo	2023-05-27T00:00:00	2024-11-06T22:00:00	2	Temperatura media	13.8
156650	7	Sololá	701	Sololá	2	El tablón	5	Mayo	2023-05-27T00:00:00	2024-11-06T22:00:00	4	Temperatura máxima	14.3
156651	7	Sololá	701	Sololá	2	El tablón	5	Mayo	2023-05-27T00:00:00	2024-11-06T22:00:00	3	Temperatura mínima	13.8
156652	7	Sololá	701	Sololá	2	El tablón	5	Mayo	2023-05-27T00:00:00	2024-11-06T22:00:00	5	Humedad	88
156653	7	Sololá	701	Sololá	2	El tablón	5	Mayo	2023-05-27T00:00:00	2024-11-06T22:00:00	6	Velocidad del viento	1.6
156654	7	Sololá	701	Sololá	2	El tablón	5	Mayo	2023-05-27T00:00:00	2024-11-06T22:00:00	7	Dirección del viento	1.61
156655	7	Sololá	701	Sololá	2	El tablón	5	Mayo	2023-05-27T00:00:00	2024-11-06T22:00:00	1	Precipitación	1.8
156656	7	Sololá	701	Sololá	2	El tablón	5	Mayo	2023-05-27T00:00:00	2024-11-06T22:00:00	8	Radiación solar	0
156657	7	Sololá	701	Sololá	2	El tablón	5	Mayo	2023-05-27T00:00:00	2024-11-06T23:00:00	2	Temperatura media	12.6
156658	7	Sololá	701	Sololá	2	El tablón	5	Mayo	2023-05-27T00:00:00	2024-11-06T23:00:00	4	Temperatura máxima	13.8
156659	7	Sololá	701	Sololá	2	El tablón	5	Mayo	2023-05-27T00:00:00	2024-11-06T23:00:00	3	Temperatura mínima	12.6
156660	7	Sololá	701	Sololá	2	El tablón	5	Mayo	2023-05-27T00:00:00	2024-11-06T23:00:00	5	Humedad	89
156661	7	Sololá	701	Sololá	2	El tablón	5	Mayo	2023-05-27T00:00:00	2024-11-06T23:00:00	6	Velocidad del viento	3.2
156662	7	Sololá	701	Sololá	2	El tablón	5	Mayo	2023-05-27T00:00:00	2024-11-06T23:00:00	7	Dirección del viento	3.22
156663	7	Sololá	701	Sololá	2	El tablón	5	Mayo	2023-05-27T00:00:00	2024-11-06T23:00:00	1	Precipitación	3.8
156664	7	Sololá	701	Sololá	2	El tablón	5	Mayo	2023-05-27T00:00:00	2024-11-06T23:00:00	8	Radiación solar	0
156665	7	Sololá	701	Sololá	2	El tablón	5	Mayo	2023-05-28T00:00:00	2024-11-06T00:00:00	2	Temperatura media	12.3
156666	7	Sololá	701	Sololá	2	El tablón	5	Mayo	2023-05-28T00:00:00	2024-11-06T00:00:00	4	Temperatura máxima	12.6
156667	7	Sololá	701	Sololá	2	El tablón	5	Mayo	2023-05-28T00:00:00	2024-11-06T00:00:00	3	Temperatura mínima	12.2
156668	7	Sololá	701	Sololá	2	El tablón	5	Mayo	2023-05-28T00:00:00	2024-11-06T00:00:00	5	Humedad	89
156669	7	Sololá	701	Sololá	2	El tablón	5	Mayo	2023-05-28T00:00:00	2024-11-06T00:00:00	6	Velocidad del viento	6.4
156670	7	Sololá	701	Sololá	2	El tablón	5	Mayo	2023-05-28T00:00:00	2024-11-06T00:00:00	7	Dirección del viento	6.44
156671	7	Sololá	701	Sololá	2	El tablón	5	Mayo	2023-05-28T00:00:00	2024-11-06T00:00:00	1	Precipitación	2.6
156672	7	Sololá	701	Sololá	2	El tablón	5	Mayo	2023-05-28T00:00:00	2024-11-06T00:00:00	8	Radiación solar	0
156673	7	Sololá	701	Sololá	2	El tablón	5	Mayo	2023-05-28T00:00:00	2024-11-06T01:00:00	2	Temperatura media	12.7
156674	7	Sololá	701	Sololá	2	El tablón	5	Mayo	2023-05-28T00:00:00	2024-11-06T01:00:00	4	Temperatura máxima	12.7
156675	7	Sololá	701	Sololá	2	El tablón	5	Mayo	2023-05-28T00:00:00	2024-11-06T01:00:00	3	Temperatura mínima	12.3
156676	7	Sololá	701	Sololá	2	El tablón	5	Mayo	2023-05-28T00:00:00	2024-11-06T01:00:00	5	Humedad	89
156677	7	Sololá	701	Sololá	2	El tablón	5	Mayo	2023-05-28T00:00:00	2024-11-06T01:00:00	6	Velocidad del viento	4.8
156678	7	Sololá	701	Sololá	2	El tablón	5	Mayo	2023-05-28T00:00:00	2024-11-06T01:00:00	7	Dirección del viento	4.83
156679	7	Sololá	701	Sololá	2	El tablón	5	Mayo	2023-05-28T00:00:00	2024-11-06T01:00:00	1	Precipitación	0
156680	7	Sololá	701	Sololá	2	El tablón	5	Mayo	2023-05-28T00:00:00	2024-11-06T01:00:00	8	Radiación solar	0
156681	7	Sololá	701	Sololá	2	El tablón	5	Mayo	2023-05-28T00:00:00	2024-11-06T02:00:00	2	Temperatura media	12.2
156682	7	Sololá	701	Sololá	2	El tablón	5	Mayo	2023-05-28T00:00:00	2024-11-06T02:00:00	4	Temperatura máxima	12.7
156683	7	Sololá	701	Sololá	2	El tablón	5	Mayo	2023-05-28T00:00:00	2024-11-06T02:00:00	3	Temperatura mínima	12.2
156684	7	Sololá	701	Sololá	2	El tablón	5	Mayo	2023-05-28T00:00:00	2024-11-06T02:00:00	5	Humedad	89
156685	7	Sololá	701	Sololá	2	El tablón	5	Mayo	2023-05-28T00:00:00	2024-11-06T02:00:00	6	Velocidad del viento	4.8
156686	7	Sololá	701	Sololá	2	El tablón	5	Mayo	2023-05-28T00:00:00	2024-11-06T02:00:00	7	Dirección del viento	4.83
156687	7	Sololá	701	Sololá	2	El tablón	5	Mayo	2023-05-28T00:00:00	2024-11-06T02:00:00	1	Precipitación	0.2
156688	7	Sololá	701	Sololá	2	El tablón	5	Mayo	2023-05-28T00:00:00	2024-11-06T02:00:00	8	Radiación solar	0
156689	7	Sololá	701	Sololá	2	El tablón	5	Mayo	2023-05-28T00:00:00	2024-11-06T03:00:00	2	Temperatura media	11.9
156690	7	Sololá	701	Sololá	2	El tablón	5	Mayo	2023-05-28T00:00:00	2024-11-06T03:00:00	4	Temperatura máxima	12.2
156691	7	Sololá	701	Sololá	2	El tablón	5	Mayo	2023-05-28T00:00:00	2024-11-06T03:00:00	3	Temperatura mínima	11.9
156692	7	Sololá	701	Sololá	2	El tablón	5	Mayo	2023-05-28T00:00:00	2024-11-06T03:00:00	5	Humedad	88
156693	7	Sololá	701	Sololá	2	El tablón	5	Mayo	2023-05-28T00:00:00	2024-11-06T03:00:00	6	Velocidad del viento	3.2
156694	7	Sololá	701	Sololá	2	El tablón	5	Mayo	2023-05-28T00:00:00	2024-11-06T03:00:00	7	Dirección del viento	3.22
156695	7	Sololá	701	Sololá	2	El tablón	5	Mayo	2023-05-28T00:00:00	2024-11-06T03:00:00	1	Precipitación	1
156696	7	Sololá	701	Sololá	2	El tablón	5	Mayo	2023-05-28T00:00:00	2024-11-06T03:00:00	8	Radiación solar	0
156697	7	Sololá	701	Sololá	2	El tablón	5	Mayo	2023-05-28T00:00:00	2024-11-06T04:00:00	2	Temperatura media	11.9
156698	7	Sololá	701	Sololá	2	El tablón	5	Mayo	2023-05-28T00:00:00	2024-11-06T04:00:00	4	Temperatura máxima	11.9
156699	7	Sololá	701	Sololá	2	El tablón	5	Mayo	2023-05-28T00:00:00	2024-11-06T04:00:00	3	Temperatura mínima	11.8
156700	7	Sololá	701	Sololá	2	El tablón	5	Mayo	2023-05-28T00:00:00	2024-11-06T04:00:00	5	Humedad	88
156701	7	Sololá	701	Sololá	2	El tablón	5	Mayo	2023-05-28T00:00:00	2024-11-06T04:00:00	6	Velocidad del viento	3.2
156702	7	Sololá	701	Sololá	2	El tablón	5	Mayo	2023-05-28T00:00:00	2024-11-06T04:00:00	7	Dirección del viento	3.22
156703	7	Sololá	701	Sololá	2	El tablón	5	Mayo	2023-05-28T00:00:00	2024-11-06T04:00:00	1	Precipitación	0.4
156704	7	Sololá	701	Sololá	2	El tablón	5	Mayo	2023-05-28T00:00:00	2024-11-06T04:00:00	8	Radiación solar	0
156705	7	Sololá	701	Sololá	2	El tablón	5	Mayo	2023-05-28T00:00:00	2024-11-06T05:00:00	2	Temperatura media	12.2
156706	7	Sololá	701	Sololá	2	El tablón	5	Mayo	2023-05-28T00:00:00	2024-11-06T05:00:00	4	Temperatura máxima	12.2
156707	7	Sololá	701	Sololá	2	El tablón	5	Mayo	2023-05-28T00:00:00	2024-11-06T05:00:00	3	Temperatura mínima	11.9
156708	7	Sololá	701	Sololá	2	El tablón	5	Mayo	2023-05-28T00:00:00	2024-11-06T05:00:00	5	Humedad	88
156709	7	Sololá	701	Sololá	2	El tablón	5	Mayo	2023-05-28T00:00:00	2024-11-06T05:00:00	6	Velocidad del viento	1.6
156710	7	Sololá	701	Sololá	2	El tablón	5	Mayo	2023-05-28T00:00:00	2024-11-06T05:00:00	7	Dirección del viento	1.61
156711	7	Sololá	701	Sololá	2	El tablón	5	Mayo	2023-05-28T00:00:00	2024-11-06T05:00:00	1	Precipitación	0
156712	7	Sololá	701	Sololá	2	El tablón	5	Mayo	2023-05-28T00:00:00	2024-11-06T05:00:00	8	Radiación solar	0
156713	7	Sololá	701	Sololá	2	El tablón	5	Mayo	2023-05-28T00:00:00	2024-11-06T06:00:00	2	Temperatura media	12.3
156714	7	Sololá	701	Sololá	2	El tablón	5	Mayo	2023-05-28T00:00:00	2024-11-06T06:00:00	4	Temperatura máxima	12.3
156715	7	Sololá	701	Sololá	2	El tablón	5	Mayo	2023-05-28T00:00:00	2024-11-06T06:00:00	3	Temperatura mínima	12.1
156716	7	Sololá	701	Sololá	2	El tablón	5	Mayo	2023-05-28T00:00:00	2024-11-06T06:00:00	5	Humedad	89
156717	7	Sololá	701	Sololá	2	El tablón	5	Mayo	2023-05-28T00:00:00	2024-11-06T06:00:00	6	Velocidad del viento	1.6
156718	7	Sololá	701	Sololá	2	El tablón	5	Mayo	2023-05-28T00:00:00	2024-11-06T06:00:00	7	Dirección del viento	1.61
156719	7	Sololá	701	Sololá	2	El tablón	5	Mayo	2023-05-28T00:00:00	2024-11-06T06:00:00	1	Precipitación	0
156720	7	Sololá	701	Sololá	2	El tablón	5	Mayo	2023-05-28T00:00:00	2024-11-06T06:00:00	8	Radiación solar	0
156721	7	Sololá	701	Sololá	2	El tablón	5	Mayo	2023-05-28T00:00:00	2024-11-06T07:00:00	2	Temperatura media	12.8
156722	7	Sololá	701	Sololá	2	El tablón	5	Mayo	2023-05-28T00:00:00	2024-11-06T07:00:00	4	Temperatura máxima	12.8
156723	7	Sololá	701	Sololá	2	El tablón	5	Mayo	2023-05-28T00:00:00	2024-11-06T07:00:00	3	Temperatura mínima	12.3
156724	7	Sololá	701	Sololá	2	El tablón	5	Mayo	2023-05-28T00:00:00	2024-11-06T07:00:00	5	Humedad	89
156725	7	Sololá	701	Sololá	2	El tablón	5	Mayo	2023-05-28T00:00:00	2024-11-06T07:00:00	6	Velocidad del viento	3.2
156726	7	Sololá	701	Sololá	2	El tablón	5	Mayo	2023-05-28T00:00:00	2024-11-06T07:00:00	7	Dirección del viento	3.22
156727	7	Sololá	701	Sololá	2	El tablón	5	Mayo	2023-05-28T00:00:00	2024-11-06T07:00:00	1	Precipitación	0
156728	7	Sololá	701	Sololá	2	El tablón	5	Mayo	2023-05-28T00:00:00	2024-11-06T07:00:00	8	Radiación solar	75
156729	7	Sololá	701	Sololá	2	El tablón	5	Mayo	2023-05-28T00:00:00	2024-11-06T08:00:00	2	Temperatura media	14.1
156730	7	Sololá	701	Sololá	2	El tablón	5	Mayo	2023-05-28T00:00:00	2024-11-06T08:00:00	4	Temperatura máxima	14.1
156731	7	Sololá	701	Sololá	2	El tablón	5	Mayo	2023-05-28T00:00:00	2024-11-06T08:00:00	3	Temperatura mínima	12.8
156732	7	Sololá	701	Sololá	2	El tablón	5	Mayo	2023-05-28T00:00:00	2024-11-06T08:00:00	5	Humedad	89
156733	7	Sololá	701	Sololá	2	El tablón	5	Mayo	2023-05-28T00:00:00	2024-11-06T08:00:00	6	Velocidad del viento	4.8
156734	7	Sololá	701	Sololá	2	El tablón	5	Mayo	2023-05-28T00:00:00	2024-11-06T08:00:00	7	Dirección del viento	4.83
156735	7	Sololá	701	Sololá	2	El tablón	5	Mayo	2023-05-28T00:00:00	2024-11-06T08:00:00	1	Precipitación	0.2
156736	7	Sololá	701	Sololá	2	El tablón	5	Mayo	2023-05-28T00:00:00	2024-11-06T08:00:00	8	Radiación solar	251
156737	7	Sololá	701	Sololá	2	El tablón	5	Mayo	2023-05-28T00:00:00	2024-11-06T09:00:00	2	Temperatura media	14.9
156738	7	Sololá	701	Sololá	2	El tablón	5	Mayo	2023-05-28T00:00:00	2024-11-06T09:00:00	4	Temperatura máxima	15.2
156739	7	Sololá	701	Sololá	2	El tablón	5	Mayo	2023-05-28T00:00:00	2024-11-06T09:00:00	3	Temperatura mínima	14.1
156740	7	Sololá	701	Sololá	2	El tablón	5	Mayo	2023-05-28T00:00:00	2024-11-06T09:00:00	5	Humedad	87
156741	7	Sololá	701	Sololá	2	El tablón	5	Mayo	2023-05-28T00:00:00	2024-11-06T09:00:00	6	Velocidad del viento	4.8
156742	7	Sololá	701	Sololá	2	El tablón	5	Mayo	2023-05-28T00:00:00	2024-11-06T09:00:00	7	Dirección del viento	4.83
156743	7	Sololá	701	Sololá	2	El tablón	5	Mayo	2023-05-28T00:00:00	2024-11-06T09:00:00	1	Precipitación	0
156744	7	Sololá	701	Sololá	2	El tablón	5	Mayo	2023-05-28T00:00:00	2024-11-06T09:00:00	8	Radiación solar	356
156745	7	Sololá	701	Sololá	2	El tablón	5	Mayo	2023-05-28T00:00:00	2024-11-06T10:00:00	2	Temperatura media	15.3
156746	7	Sololá	701	Sololá	2	El tablón	5	Mayo	2023-05-28T00:00:00	2024-11-06T10:00:00	4	Temperatura máxima	15.3
156747	7	Sololá	701	Sololá	2	El tablón	5	Mayo	2023-05-28T00:00:00	2024-11-06T10:00:00	3	Temperatura mínima	14.7
156748	7	Sololá	701	Sololá	2	El tablón	5	Mayo	2023-05-28T00:00:00	2024-11-06T10:00:00	5	Humedad	87
156749	7	Sololá	701	Sololá	2	El tablón	5	Mayo	2023-05-28T00:00:00	2024-11-06T10:00:00	6	Velocidad del viento	6.4
156750	7	Sololá	701	Sololá	2	El tablón	5	Mayo	2023-05-28T00:00:00	2024-11-06T10:00:00	7	Dirección del viento	6.44
156751	7	Sololá	701	Sololá	2	El tablón	5	Mayo	2023-05-28T00:00:00	2024-11-06T10:00:00	1	Precipitación	0
156752	7	Sololá	701	Sololá	2	El tablón	5	Mayo	2023-05-28T00:00:00	2024-11-06T10:00:00	8	Radiación solar	336
156753	7	Sololá	701	Sololá	2	El tablón	5	Mayo	2023-05-28T00:00:00	2024-11-06T11:00:00	2	Temperatura media	16.6
156754	7	Sololá	701	Sololá	2	El tablón	5	Mayo	2023-05-28T00:00:00	2024-11-06T11:00:00	4	Temperatura máxima	16.9
156755	7	Sololá	701	Sololá	2	El tablón	5	Mayo	2023-05-28T00:00:00	2024-11-06T11:00:00	3	Temperatura mínima	15.3
156756	7	Sololá	701	Sololá	2	El tablón	5	Mayo	2023-05-28T00:00:00	2024-11-06T11:00:00	5	Humedad	82
156757	7	Sololá	701	Sololá	2	El tablón	5	Mayo	2023-05-28T00:00:00	2024-11-06T11:00:00	6	Velocidad del viento	4.8
156758	7	Sololá	701	Sololá	2	El tablón	5	Mayo	2023-05-28T00:00:00	2024-11-06T11:00:00	7	Dirección del viento	4.83
156759	7	Sololá	701	Sololá	2	El tablón	5	Mayo	2023-05-28T00:00:00	2024-11-06T11:00:00	1	Precipitación	0
156760	7	Sololá	701	Sololá	2	El tablón	5	Mayo	2023-05-28T00:00:00	2024-11-06T11:00:00	8	Radiación solar	657
156761	7	Sololá	701	Sololá	2	El tablón	5	Mayo	2023-05-28T00:00:00	2024-11-06T12:00:00	2	Temperatura media	17.6
156762	7	Sololá	701	Sololá	2	El tablón	5	Mayo	2023-05-28T00:00:00	2024-11-06T12:00:00	4	Temperatura máxima	18
156763	7	Sololá	701	Sololá	2	El tablón	5	Mayo	2023-05-28T00:00:00	2024-11-06T12:00:00	3	Temperatura mínima	16.4
156764	7	Sololá	701	Sololá	2	El tablón	5	Mayo	2023-05-28T00:00:00	2024-11-06T12:00:00	5	Humedad	83
156765	7	Sololá	701	Sololá	2	El tablón	5	Mayo	2023-05-28T00:00:00	2024-11-06T12:00:00	6	Velocidad del viento	6.4
156766	7	Sololá	701	Sololá	2	El tablón	5	Mayo	2023-05-28T00:00:00	2024-11-06T12:00:00	7	Dirección del viento	6.44
156767	7	Sololá	701	Sololá	2	El tablón	5	Mayo	2023-05-28T00:00:00	2024-11-06T12:00:00	1	Precipitación	0
156768	7	Sololá	701	Sololá	2	El tablón	5	Mayo	2023-05-28T00:00:00	2024-11-06T12:00:00	8	Radiación solar	970
156769	7	Sololá	701	Sololá	2	El tablón	5	Mayo	2023-05-28T00:00:00	2024-11-06T13:00:00	2	Temperatura media	17.3
156770	7	Sololá	701	Sololá	2	El tablón	5	Mayo	2023-05-28T00:00:00	2024-11-06T13:00:00	4	Temperatura máxima	17.8
156771	7	Sololá	701	Sololá	2	El tablón	5	Mayo	2023-05-28T00:00:00	2024-11-06T13:00:00	3	Temperatura mínima	16.9
156772	7	Sololá	701	Sololá	2	El tablón	5	Mayo	2023-05-28T00:00:00	2024-11-06T13:00:00	5	Humedad	85
156773	7	Sololá	701	Sololá	2	El tablón	5	Mayo	2023-05-28T00:00:00	2024-11-06T13:00:00	6	Velocidad del viento	6.4
156774	7	Sololá	701	Sololá	2	El tablón	5	Mayo	2023-05-28T00:00:00	2024-11-06T13:00:00	7	Dirección del viento	6.44
156775	7	Sololá	701	Sololá	2	El tablón	5	Mayo	2023-05-28T00:00:00	2024-11-06T13:00:00	1	Precipitación	0
156776	7	Sololá	701	Sololá	2	El tablón	5	Mayo	2023-05-28T00:00:00	2024-11-06T13:00:00	8	Radiación solar	602
156777	7	Sololá	701	Sololá	2	El tablón	5	Mayo	2023-05-28T00:00:00	2024-11-06T14:00:00	2	Temperatura media	16.7
156778	7	Sololá	701	Sololá	2	El tablón	5	Mayo	2023-05-28T00:00:00	2024-11-06T14:00:00	4	Temperatura máxima	17.6
156779	7	Sololá	701	Sololá	2	El tablón	5	Mayo	2023-05-28T00:00:00	2024-11-06T14:00:00	3	Temperatura mínima	16.7
156780	7	Sololá	701	Sololá	2	El tablón	5	Mayo	2023-05-28T00:00:00	2024-11-06T14:00:00	5	Humedad	86
156781	7	Sololá	701	Sololá	2	El tablón	5	Mayo	2023-05-28T00:00:00	2024-11-06T14:00:00	6	Velocidad del viento	8
156782	7	Sololá	701	Sololá	2	El tablón	5	Mayo	2023-05-28T00:00:00	2024-11-06T14:00:00	7	Dirección del viento	8.05
156783	7	Sololá	701	Sololá	2	El tablón	5	Mayo	2023-05-28T00:00:00	2024-11-06T14:00:00	1	Precipitación	0
156784	7	Sololá	701	Sololá	2	El tablón	5	Mayo	2023-05-28T00:00:00	2024-11-06T14:00:00	8	Radiación solar	601
156785	7	Sololá	701	Sololá	2	El tablón	5	Mayo	2023-05-28T00:00:00	2024-11-06T15:00:00	2	Temperatura media	15.9
156786	7	Sololá	701	Sololá	2	El tablón	5	Mayo	2023-05-28T00:00:00	2024-11-06T15:00:00	4	Temperatura máxima	16.9
156787	7	Sololá	701	Sololá	2	El tablón	5	Mayo	2023-05-28T00:00:00	2024-11-06T15:00:00	3	Temperatura mínima	15.9
156788	7	Sololá	701	Sololá	2	El tablón	5	Mayo	2023-05-28T00:00:00	2024-11-06T15:00:00	5	Humedad	88
156789	7	Sololá	701	Sololá	2	El tablón	5	Mayo	2023-05-28T00:00:00	2024-11-06T15:00:00	6	Velocidad del viento	8
156790	7	Sololá	701	Sololá	2	El tablón	5	Mayo	2023-05-28T00:00:00	2024-11-06T15:00:00	7	Dirección del viento	8.05
156791	7	Sololá	701	Sololá	2	El tablón	5	Mayo	2023-05-28T00:00:00	2024-11-06T15:00:00	1	Precipitación	0
156792	7	Sololá	701	Sololá	2	El tablón	5	Mayo	2023-05-28T00:00:00	2024-11-06T15:00:00	8	Radiación solar	327
156793	7	Sololá	701	Sololá	2	El tablón	5	Mayo	2023-05-28T00:00:00	2024-11-06T16:00:00	2	Temperatura media	15.6
156794	7	Sololá	701	Sololá	2	El tablón	5	Mayo	2023-05-28T00:00:00	2024-11-06T16:00:00	4	Temperatura máxima	15.9
156795	7	Sololá	701	Sololá	2	El tablón	5	Mayo	2023-05-28T00:00:00	2024-11-06T16:00:00	3	Temperatura mínima	15.4
156796	7	Sololá	701	Sololá	2	El tablón	5	Mayo	2023-05-28T00:00:00	2024-11-06T16:00:00	5	Humedad	88
156797	7	Sololá	701	Sololá	2	El tablón	5	Mayo	2023-05-28T00:00:00	2024-11-06T16:00:00	6	Velocidad del viento	6.4
156798	7	Sololá	701	Sololá	2	El tablón	5	Mayo	2023-05-28T00:00:00	2024-11-06T16:00:00	7	Dirección del viento	6.44
156799	7	Sololá	701	Sololá	2	El tablón	5	Mayo	2023-05-28T00:00:00	2024-11-06T16:00:00	1	Precipitación	0
156800	7	Sololá	701	Sololá	2	El tablón	5	Mayo	2023-05-28T00:00:00	2024-11-06T16:00:00	8	Radiación solar	188
156801	7	Sololá	701	Sololá	2	El tablón	5	Mayo	2023-05-28T00:00:00	2024-11-06T17:00:00	2	Temperatura media	14.9
156802	7	Sololá	701	Sololá	2	El tablón	5	Mayo	2023-05-28T00:00:00	2024-11-06T17:00:00	4	Temperatura máxima	15.6
156803	7	Sololá	701	Sololá	2	El tablón	5	Mayo	2023-05-28T00:00:00	2024-11-06T17:00:00	3	Temperatura mínima	14.9
156804	7	Sololá	701	Sololá	2	El tablón	5	Mayo	2023-05-28T00:00:00	2024-11-06T17:00:00	5	Humedad	88
156805	7	Sololá	701	Sololá	2	El tablón	5	Mayo	2023-05-28T00:00:00	2024-11-06T17:00:00	6	Velocidad del viento	3.2
156806	7	Sololá	701	Sololá	2	El tablón	5	Mayo	2023-05-28T00:00:00	2024-11-06T17:00:00	7	Dirección del viento	3.22
156807	7	Sololá	701	Sololá	2	El tablón	5	Mayo	2023-05-28T00:00:00	2024-11-06T17:00:00	1	Precipitación	0
156808	7	Sololá	701	Sololá	2	El tablón	5	Mayo	2023-05-28T00:00:00	2024-11-06T17:00:00	8	Radiación solar	75
156809	7	Sololá	701	Sololá	2	El tablón	5	Mayo	2023-05-28T00:00:00	2024-11-06T18:00:00	2	Temperatura media	14.7
156810	7	Sololá	701	Sololá	2	El tablón	5	Mayo	2023-05-28T00:00:00	2024-11-06T18:00:00	4	Temperatura máxima	15
156811	7	Sololá	701	Sololá	2	El tablón	5	Mayo	2023-05-28T00:00:00	2024-11-06T18:00:00	3	Temperatura mínima	14.7
156812	7	Sololá	701	Sololá	2	El tablón	5	Mayo	2023-05-28T00:00:00	2024-11-06T18:00:00	5	Humedad	88
156813	7	Sololá	701	Sololá	2	El tablón	5	Mayo	2023-05-28T00:00:00	2024-11-06T18:00:00	6	Velocidad del viento	1.6
156814	7	Sololá	701	Sololá	2	El tablón	5	Mayo	2023-05-28T00:00:00	2024-11-06T18:00:00	7	Dirección del viento	1.61
156815	7	Sololá	701	Sololá	2	El tablón	5	Mayo	2023-05-28T00:00:00	2024-11-06T18:00:00	1	Precipitación	0
156816	7	Sololá	701	Sololá	2	El tablón	5	Mayo	2023-05-28T00:00:00	2024-11-06T18:00:00	8	Radiación solar	23
156817	7	Sololá	701	Sololá	2	El tablón	5	Mayo	2023-05-28T00:00:00	2024-11-06T19:00:00	2	Temperatura media	14.4
156818	7	Sololá	701	Sololá	2	El tablón	5	Mayo	2023-05-28T00:00:00	2024-11-06T19:00:00	4	Temperatura máxima	14.7
156819	7	Sololá	701	Sololá	2	El tablón	5	Mayo	2023-05-28T00:00:00	2024-11-06T19:00:00	3	Temperatura mínima	14.3
156820	7	Sololá	701	Sololá	2	El tablón	5	Mayo	2023-05-28T00:00:00	2024-11-06T19:00:00	5	Humedad	88
156821	7	Sololá	701	Sololá	2	El tablón	5	Mayo	2023-05-28T00:00:00	2024-11-06T19:00:00	6	Velocidad del viento	1.6
156822	7	Sololá	701	Sololá	2	El tablón	5	Mayo	2023-05-28T00:00:00	2024-11-06T19:00:00	7	Dirección del viento	1.61
156823	7	Sololá	701	Sololá	2	El tablón	5	Mayo	2023-05-28T00:00:00	2024-11-06T19:00:00	1	Precipitación	1.2
156824	7	Sololá	701	Sololá	2	El tablón	5	Mayo	2023-05-28T00:00:00	2024-11-06T19:00:00	8	Radiación solar	0
156825	7	Sololá	701	Sololá	2	El tablón	5	Mayo	2023-05-28T00:00:00	2024-11-06T20:00:00	2	Temperatura media	13.8
156826	7	Sololá	701	Sololá	2	El tablón	5	Mayo	2023-05-28T00:00:00	2024-11-06T20:00:00	4	Temperatura máxima	14.4
156827	7	Sololá	701	Sololá	2	El tablón	5	Mayo	2023-05-28T00:00:00	2024-11-06T20:00:00	3	Temperatura mínima	13.8
156828	7	Sololá	701	Sololá	2	El tablón	5	Mayo	2023-05-28T00:00:00	2024-11-06T20:00:00	5	Humedad	88
156829	7	Sololá	701	Sololá	2	El tablón	5	Mayo	2023-05-28T00:00:00	2024-11-06T20:00:00	6	Velocidad del viento	1.6
156830	7	Sololá	701	Sololá	2	El tablón	5	Mayo	2023-05-28T00:00:00	2024-11-06T20:00:00	7	Dirección del viento	1.61
156831	7	Sololá	701	Sololá	2	El tablón	5	Mayo	2023-05-28T00:00:00	2024-11-06T20:00:00	1	Precipitación	0.6
156832	7	Sololá	701	Sololá	2	El tablón	5	Mayo	2023-05-28T00:00:00	2024-11-06T20:00:00	8	Radiación solar	0
156833	7	Sololá	701	Sololá	2	El tablón	5	Mayo	2023-05-28T00:00:00	2024-11-06T21:00:00	2	Temperatura media	14.2
156834	7	Sololá	701	Sololá	2	El tablón	5	Mayo	2023-05-28T00:00:00	2024-11-06T21:00:00	4	Temperatura máxima	14.2
156835	7	Sololá	701	Sololá	2	El tablón	5	Mayo	2023-05-28T00:00:00	2024-11-06T21:00:00	3	Temperatura mínima	13.7
156836	7	Sololá	701	Sololá	2	El tablón	5	Mayo	2023-05-28T00:00:00	2024-11-06T21:00:00	5	Humedad	88
156837	7	Sololá	701	Sololá	2	El tablón	5	Mayo	2023-05-28T00:00:00	2024-11-06T21:00:00	6	Velocidad del viento	1.6
156838	7	Sololá	701	Sololá	2	El tablón	5	Mayo	2023-05-28T00:00:00	2024-11-06T21:00:00	7	Dirección del viento	1.61
156839	7	Sololá	701	Sololá	2	El tablón	5	Mayo	2023-05-28T00:00:00	2024-11-06T21:00:00	1	Precipitación	0
156840	7	Sololá	701	Sololá	2	El tablón	5	Mayo	2023-05-28T00:00:00	2024-11-06T21:00:00	8	Radiación solar	0
156841	7	Sololá	701	Sololá	2	El tablón	5	Mayo	2023-05-28T00:00:00	2024-11-06T22:00:00	2	Temperatura media	14.4
156842	7	Sololá	701	Sololá	2	El tablón	5	Mayo	2023-05-28T00:00:00	2024-11-06T22:00:00	4	Temperatura máxima	14.4
156843	7	Sololá	701	Sololá	2	El tablón	5	Mayo	2023-05-28T00:00:00	2024-11-06T22:00:00	3	Temperatura mínima	14.2
156844	7	Sololá	701	Sololá	2	El tablón	5	Mayo	2023-05-28T00:00:00	2024-11-06T22:00:00	5	Humedad	88
156845	7	Sololá	701	Sololá	2	El tablón	5	Mayo	2023-05-28T00:00:00	2024-11-06T22:00:00	6	Velocidad del viento	0
156846	7	Sololá	701	Sololá	2	El tablón	5	Mayo	2023-05-28T00:00:00	2024-11-06T22:00:00	7	Dirección del viento	0
156847	7	Sololá	701	Sololá	2	El tablón	5	Mayo	2023-05-28T00:00:00	2024-11-06T22:00:00	1	Precipitación	0
156848	7	Sololá	701	Sololá	2	El tablón	5	Mayo	2023-05-28T00:00:00	2024-11-06T22:00:00	8	Radiación solar	0
156849	7	Sololá	701	Sololá	2	El tablón	5	Mayo	2023-05-28T00:00:00	2024-11-06T23:00:00	2	Temperatura media	14.2
156850	7	Sololá	701	Sololá	2	El tablón	5	Mayo	2023-05-28T00:00:00	2024-11-06T23:00:00	4	Temperatura máxima	14.5
156851	7	Sololá	701	Sololá	2	El tablón	5	Mayo	2023-05-28T00:00:00	2024-11-06T23:00:00	3	Temperatura mínima	14.2
156852	7	Sololá	701	Sololá	2	El tablón	5	Mayo	2023-05-28T00:00:00	2024-11-06T23:00:00	5	Humedad	88
156853	7	Sololá	701	Sololá	2	El tablón	5	Mayo	2023-05-28T00:00:00	2024-11-06T23:00:00	6	Velocidad del viento	0
156854	7	Sololá	701	Sololá	2	El tablón	5	Mayo	2023-05-28T00:00:00	2024-11-06T23:00:00	7	Dirección del viento	0
156855	7	Sololá	701	Sololá	2	El tablón	5	Mayo	2023-05-28T00:00:00	2024-11-06T23:00:00	1	Precipitación	0
156856	7	Sololá	701	Sololá	2	El tablón	5	Mayo	2023-05-28T00:00:00	2024-11-06T23:00:00	8	Radiación solar	0
156857	7	Sololá	701	Sololá	2	El tablón	5	Mayo	2023-05-29T00:00:00	2024-11-06T00:00:00	2	Temperatura media	13.7
156858	7	Sololá	701	Sololá	2	El tablón	5	Mayo	2023-05-29T00:00:00	2024-11-06T00:00:00	4	Temperatura máxima	14.2
156859	7	Sololá	701	Sololá	2	El tablón	5	Mayo	2023-05-29T00:00:00	2024-11-06T00:00:00	3	Temperatura mínima	13.7
156860	7	Sololá	701	Sololá	2	El tablón	5	Mayo	2023-05-29T00:00:00	2024-11-06T00:00:00	5	Humedad	88
156861	7	Sololá	701	Sololá	2	El tablón	5	Mayo	2023-05-29T00:00:00	2024-11-06T00:00:00	6	Velocidad del viento	1.6
156862	7	Sololá	701	Sololá	2	El tablón	5	Mayo	2023-05-29T00:00:00	2024-11-06T00:00:00	7	Dirección del viento	1.61
156863	7	Sololá	701	Sololá	2	El tablón	5	Mayo	2023-05-29T00:00:00	2024-11-06T00:00:00	1	Precipitación	3
156864	7	Sololá	701	Sololá	2	El tablón	5	Mayo	2023-05-29T00:00:00	2024-11-06T00:00:00	8	Radiación solar	0
156865	7	Sololá	701	Sololá	2	El tablón	5	Mayo	2023-05-29T00:00:00	2024-11-06T01:00:00	2	Temperatura media	12.7
156866	7	Sololá	701	Sololá	2	El tablón	5	Mayo	2023-05-29T00:00:00	2024-11-06T01:00:00	4	Temperatura máxima	13.7
156867	7	Sololá	701	Sololá	2	El tablón	5	Mayo	2023-05-29T00:00:00	2024-11-06T01:00:00	3	Temperatura mínima	12.7
156868	7	Sololá	701	Sololá	2	El tablón	5	Mayo	2023-05-29T00:00:00	2024-11-06T01:00:00	5	Humedad	89
156869	7	Sololá	701	Sololá	2	El tablón	5	Mayo	2023-05-29T00:00:00	2024-11-06T01:00:00	6	Velocidad del viento	4.8
156870	7	Sololá	701	Sololá	2	El tablón	5	Mayo	2023-05-29T00:00:00	2024-11-06T01:00:00	7	Dirección del viento	4.83
156871	7	Sololá	701	Sololá	2	El tablón	5	Mayo	2023-05-29T00:00:00	2024-11-06T01:00:00	1	Precipitación	2.4
156872	7	Sololá	701	Sololá	2	El tablón	5	Mayo	2023-05-29T00:00:00	2024-11-06T01:00:00	8	Radiación solar	0
156873	7	Sololá	701	Sololá	2	El tablón	5	Mayo	2023-05-29T00:00:00	2024-11-06T02:00:00	2	Temperatura media	12.8
156874	7	Sololá	701	Sololá	2	El tablón	5	Mayo	2023-05-29T00:00:00	2024-11-06T02:00:00	4	Temperatura máxima	12.8
156875	7	Sololá	701	Sololá	2	El tablón	5	Mayo	2023-05-29T00:00:00	2024-11-06T02:00:00	3	Temperatura mínima	12.6
156876	7	Sololá	701	Sololá	2	El tablón	5	Mayo	2023-05-29T00:00:00	2024-11-06T02:00:00	5	Humedad	89
156877	7	Sololá	701	Sololá	2	El tablón	5	Mayo	2023-05-29T00:00:00	2024-11-06T02:00:00	6	Velocidad del viento	3.2
156878	7	Sololá	701	Sololá	2	El tablón	5	Mayo	2023-05-29T00:00:00	2024-11-06T02:00:00	7	Dirección del viento	3.22
156879	7	Sololá	701	Sololá	2	El tablón	5	Mayo	2023-05-29T00:00:00	2024-11-06T02:00:00	1	Precipitación	0.8
156880	7	Sololá	701	Sololá	2	El tablón	5	Mayo	2023-05-29T00:00:00	2024-11-06T02:00:00	8	Radiación solar	0
156881	7	Sololá	701	Sololá	2	El tablón	5	Mayo	2023-05-29T00:00:00	2024-11-06T03:00:00	2	Temperatura media	12.7
156882	7	Sololá	701	Sololá	2	El tablón	5	Mayo	2023-05-29T00:00:00	2024-11-06T03:00:00	4	Temperatura máxima	13
156883	7	Sololá	701	Sololá	2	El tablón	5	Mayo	2023-05-29T00:00:00	2024-11-06T03:00:00	3	Temperatura mínima	12.7
156884	7	Sololá	701	Sololá	2	El tablón	5	Mayo	2023-05-29T00:00:00	2024-11-06T03:00:00	5	Humedad	88
156885	7	Sololá	701	Sololá	2	El tablón	5	Mayo	2023-05-29T00:00:00	2024-11-06T03:00:00	6	Velocidad del viento	0
156886	7	Sololá	701	Sololá	2	El tablón	5	Mayo	2023-05-29T00:00:00	2024-11-06T03:00:00	7	Dirección del viento	0
156887	7	Sololá	701	Sololá	2	El tablón	5	Mayo	2023-05-29T00:00:00	2024-11-06T03:00:00	1	Precipitación	2.8
156888	7	Sololá	701	Sololá	2	El tablón	5	Mayo	2023-05-29T00:00:00	2024-11-06T03:00:00	8	Radiación solar	0
156889	7	Sololá	701	Sololá	2	El tablón	5	Mayo	2023-05-29T00:00:00	2024-11-06T04:00:00	2	Temperatura media	12.4
156890	7	Sololá	701	Sololá	2	El tablón	5	Mayo	2023-05-29T00:00:00	2024-11-06T04:00:00	4	Temperatura máxima	12.7
156891	7	Sololá	701	Sololá	2	El tablón	5	Mayo	2023-05-29T00:00:00	2024-11-06T04:00:00	3	Temperatura mínima	12.3
156892	7	Sololá	701	Sololá	2	El tablón	5	Mayo	2023-05-29T00:00:00	2024-11-06T04:00:00	5	Humedad	87
156893	7	Sololá	701	Sololá	2	El tablón	5	Mayo	2023-05-29T00:00:00	2024-11-06T04:00:00	6	Velocidad del viento	0
156894	7	Sololá	701	Sololá	2	El tablón	5	Mayo	2023-05-29T00:00:00	2024-11-06T04:00:00	7	Dirección del viento	0
156895	7	Sololá	701	Sololá	2	El tablón	5	Mayo	2023-05-29T00:00:00	2024-11-06T04:00:00	1	Precipitación	1.2
156896	7	Sololá	701	Sololá	2	El tablón	5	Mayo	2023-05-29T00:00:00	2024-11-06T04:00:00	8	Radiación solar	0
156897	7	Sololá	701	Sololá	2	El tablón	5	Mayo	2023-05-29T00:00:00	2024-11-06T05:00:00	2	Temperatura media	12.2
156898	7	Sololá	701	Sololá	2	El tablón	5	Mayo	2023-05-29T00:00:00	2024-11-06T05:00:00	4	Temperatura máxima	12.4
156899	7	Sololá	701	Sololá	2	El tablón	5	Mayo	2023-05-29T00:00:00	2024-11-06T05:00:00	3	Temperatura mínima	12.1
156900	7	Sololá	701	Sololá	2	El tablón	5	Mayo	2023-05-29T00:00:00	2024-11-06T05:00:00	5	Humedad	88
156901	7	Sololá	701	Sololá	2	El tablón	5	Mayo	2023-05-29T00:00:00	2024-11-06T05:00:00	6	Velocidad del viento	1.6
156902	7	Sololá	701	Sololá	2	El tablón	5	Mayo	2023-05-29T00:00:00	2024-11-06T05:00:00	7	Dirección del viento	1.61
156903	7	Sololá	701	Sololá	2	El tablón	5	Mayo	2023-05-29T00:00:00	2024-11-06T05:00:00	1	Precipitación	0
156904	7	Sololá	701	Sololá	2	El tablón	5	Mayo	2023-05-29T00:00:00	2024-11-06T05:00:00	8	Radiación solar	0
156905	7	Sololá	701	Sololá	2	El tablón	5	Mayo	2023-05-29T00:00:00	2024-11-06T06:00:00	2	Temperatura media	12.4
156906	7	Sololá	701	Sololá	2	El tablón	5	Mayo	2023-05-29T00:00:00	2024-11-06T06:00:00	4	Temperatura máxima	12.4
156907	7	Sololá	701	Sololá	2	El tablón	5	Mayo	2023-05-29T00:00:00	2024-11-06T06:00:00	3	Temperatura mínima	12.2
156908	7	Sololá	701	Sololá	2	El tablón	5	Mayo	2023-05-29T00:00:00	2024-11-06T06:00:00	5	Humedad	88
156909	7	Sololá	701	Sololá	2	El tablón	5	Mayo	2023-05-29T00:00:00	2024-11-06T06:00:00	6	Velocidad del viento	1.6
156910	7	Sololá	701	Sololá	2	El tablón	5	Mayo	2023-05-29T00:00:00	2024-11-06T06:00:00	7	Dirección del viento	1.61
156911	7	Sololá	701	Sololá	2	El tablón	5	Mayo	2023-05-29T00:00:00	2024-11-06T06:00:00	1	Precipitación	0
156912	7	Sololá	701	Sololá	2	El tablón	5	Mayo	2023-05-29T00:00:00	2024-11-06T06:00:00	8	Radiación solar	2
156913	7	Sololá	701	Sololá	2	El tablón	5	Mayo	2023-05-29T00:00:00	2024-11-06T07:00:00	2	Temperatura media	12.8
156914	7	Sololá	701	Sololá	2	El tablón	5	Mayo	2023-05-29T00:00:00	2024-11-06T07:00:00	4	Temperatura máxima	12.8
156915	7	Sololá	701	Sololá	2	El tablón	5	Mayo	2023-05-29T00:00:00	2024-11-06T07:00:00	3	Temperatura mínima	12.4
156916	7	Sololá	701	Sololá	2	El tablón	5	Mayo	2023-05-29T00:00:00	2024-11-06T07:00:00	5	Humedad	88
156917	7	Sololá	701	Sololá	2	El tablón	5	Mayo	2023-05-29T00:00:00	2024-11-06T07:00:00	6	Velocidad del viento	0
156918	7	Sololá	701	Sololá	2	El tablón	5	Mayo	2023-05-29T00:00:00	2024-11-06T07:00:00	7	Dirección del viento	0
156919	7	Sololá	701	Sololá	2	El tablón	5	Mayo	2023-05-29T00:00:00	2024-11-06T07:00:00	1	Precipitación	0
156920	7	Sololá	701	Sololá	2	El tablón	5	Mayo	2023-05-29T00:00:00	2024-11-06T07:00:00	8	Radiación solar	37
156921	7	Sololá	701	Sololá	2	El tablón	5	Mayo	2023-05-29T00:00:00	2024-11-06T08:00:00	2	Temperatura media	13.3
156922	7	Sololá	701	Sololá	2	El tablón	5	Mayo	2023-05-29T00:00:00	2024-11-06T08:00:00	4	Temperatura máxima	13.3
156923	7	Sololá	701	Sololá	2	El tablón	5	Mayo	2023-05-29T00:00:00	2024-11-06T08:00:00	3	Temperatura mínima	12.8
156924	7	Sololá	701	Sololá	2	El tablón	5	Mayo	2023-05-29T00:00:00	2024-11-06T08:00:00	5	Humedad	89
156925	7	Sololá	701	Sololá	2	El tablón	5	Mayo	2023-05-29T00:00:00	2024-11-06T08:00:00	6	Velocidad del viento	0
156926	7	Sololá	701	Sololá	2	El tablón	5	Mayo	2023-05-29T00:00:00	2024-11-06T08:00:00	7	Dirección del viento	0
156927	7	Sololá	701	Sololá	2	El tablón	5	Mayo	2023-05-29T00:00:00	2024-11-06T08:00:00	1	Precipitación	0
156928	7	Sololá	701	Sololá	2	El tablón	5	Mayo	2023-05-29T00:00:00	2024-11-06T08:00:00	8	Radiación solar	79
156929	7	Sololá	701	Sololá	2	El tablón	5	Mayo	2023-05-29T00:00:00	2024-11-06T09:00:00	2	Temperatura media	13.6
156930	7	Sololá	701	Sololá	2	El tablón	5	Mayo	2023-05-29T00:00:00	2024-11-06T09:00:00	4	Temperatura máxima	13.6
156931	7	Sololá	701	Sololá	2	El tablón	5	Mayo	2023-05-29T00:00:00	2024-11-06T09:00:00	3	Temperatura mínima	13.3
156932	7	Sololá	701	Sololá	2	El tablón	5	Mayo	2023-05-29T00:00:00	2024-11-06T09:00:00	5	Humedad	89
156933	7	Sololá	701	Sololá	2	El tablón	5	Mayo	2023-05-29T00:00:00	2024-11-06T09:00:00	6	Velocidad del viento	1.6
156934	7	Sololá	701	Sololá	2	El tablón	5	Mayo	2023-05-29T00:00:00	2024-11-06T09:00:00	7	Dirección del viento	1.61
156935	7	Sololá	701	Sololá	2	El tablón	5	Mayo	2023-05-29T00:00:00	2024-11-06T09:00:00	1	Precipitación	0
156936	7	Sololá	701	Sololá	2	El tablón	5	Mayo	2023-05-29T00:00:00	2024-11-06T09:00:00	8	Radiación solar	105
156937	7	Sololá	701	Sololá	2	El tablón	5	Mayo	2023-05-29T00:00:00	2024-11-06T10:00:00	2	Temperatura media	14.7
156938	7	Sololá	701	Sololá	2	El tablón	5	Mayo	2023-05-29T00:00:00	2024-11-06T10:00:00	4	Temperatura máxima	14.7
156939	7	Sololá	701	Sololá	2	El tablón	5	Mayo	2023-05-29T00:00:00	2024-11-06T10:00:00	3	Temperatura mínima	13.4
156940	7	Sololá	701	Sololá	2	El tablón	5	Mayo	2023-05-29T00:00:00	2024-11-06T10:00:00	5	Humedad	87
156941	7	Sololá	701	Sololá	2	El tablón	5	Mayo	2023-05-29T00:00:00	2024-11-06T10:00:00	6	Velocidad del viento	1.6
156942	7	Sololá	701	Sololá	2	El tablón	5	Mayo	2023-05-29T00:00:00	2024-11-06T10:00:00	7	Dirección del viento	1.61
156943	7	Sololá	701	Sololá	2	El tablón	5	Mayo	2023-05-29T00:00:00	2024-11-06T10:00:00	1	Precipitación	0
156944	7	Sololá	701	Sololá	2	El tablón	5	Mayo	2023-05-29T00:00:00	2024-11-06T10:00:00	8	Radiación solar	310
156945	7	Sololá	701	Sololá	2	El tablón	5	Mayo	2023-05-29T00:00:00	2024-11-06T11:00:00	2	Temperatura media	17.6
156946	7	Sololá	701	Sololá	2	El tablón	5	Mayo	2023-05-29T00:00:00	2024-11-06T11:00:00	4	Temperatura máxima	17.6
156947	7	Sololá	701	Sololá	2	El tablón	5	Mayo	2023-05-29T00:00:00	2024-11-06T11:00:00	3	Temperatura mínima	14.7
156948	7	Sololá	701	Sololá	2	El tablón	5	Mayo	2023-05-29T00:00:00	2024-11-06T11:00:00	5	Humedad	78
156949	7	Sololá	701	Sololá	2	El tablón	5	Mayo	2023-05-29T00:00:00	2024-11-06T11:00:00	6	Velocidad del viento	3.2
156950	7	Sololá	701	Sololá	2	El tablón	5	Mayo	2023-05-29T00:00:00	2024-11-06T11:00:00	7	Dirección del viento	3.22
156951	7	Sololá	701	Sololá	2	El tablón	5	Mayo	2023-05-29T00:00:00	2024-11-06T11:00:00	1	Precipitación	0
156952	7	Sololá	701	Sololá	2	El tablón	5	Mayo	2023-05-29T00:00:00	2024-11-06T11:00:00	8	Radiación solar	710
156953	7	Sololá	701	Sololá	2	El tablón	5	Mayo	2023-05-29T00:00:00	2024-11-06T12:00:00	2	Temperatura media	18.3
156954	7	Sololá	701	Sololá	2	El tablón	5	Mayo	2023-05-29T00:00:00	2024-11-06T12:00:00	4	Temperatura máxima	18.3
156955	7	Sololá	701	Sololá	2	El tablón	5	Mayo	2023-05-29T00:00:00	2024-11-06T12:00:00	3	Temperatura mínima	17.6
156956	7	Sololá	701	Sololá	2	El tablón	5	Mayo	2023-05-29T00:00:00	2024-11-06T12:00:00	5	Humedad	78
156957	7	Sololá	701	Sololá	2	El tablón	5	Mayo	2023-05-29T00:00:00	2024-11-06T12:00:00	6	Velocidad del viento	3.2
156958	7	Sololá	701	Sololá	2	El tablón	5	Mayo	2023-05-29T00:00:00	2024-11-06T12:00:00	7	Dirección del viento	3.22
156959	7	Sololá	701	Sololá	2	El tablón	5	Mayo	2023-05-29T00:00:00	2024-11-06T12:00:00	1	Precipitación	0
156960	7	Sololá	701	Sololá	2	El tablón	5	Mayo	2023-05-29T00:00:00	2024-11-06T12:00:00	8	Radiación solar	493
156961	7	Sololá	701	Sololá	2	El tablón	5	Mayo	2023-05-29T00:00:00	2024-11-06T13:00:00	2	Temperatura media	18.2
156962	7	Sololá	701	Sololá	2	El tablón	5	Mayo	2023-05-29T00:00:00	2024-11-06T13:00:00	4	Temperatura máxima	19.2
156963	7	Sololá	701	Sololá	2	El tablón	5	Mayo	2023-05-29T00:00:00	2024-11-06T13:00:00	3	Temperatura mínima	18.2
156964	7	Sololá	701	Sololá	2	El tablón	5	Mayo	2023-05-29T00:00:00	2024-11-06T13:00:00	5	Humedad	76
156965	7	Sololá	701	Sololá	2	El tablón	5	Mayo	2023-05-29T00:00:00	2024-11-06T13:00:00	6	Velocidad del viento	4.8
156966	7	Sololá	701	Sololá	2	El tablón	5	Mayo	2023-05-29T00:00:00	2024-11-06T13:00:00	7	Dirección del viento	4.83
156967	7	Sololá	701	Sololá	2	El tablón	5	Mayo	2023-05-29T00:00:00	2024-11-06T13:00:00	1	Precipitación	0
156968	7	Sololá	701	Sololá	2	El tablón	5	Mayo	2023-05-29T00:00:00	2024-11-06T13:00:00	8	Radiación solar	637
156969	7	Sololá	701	Sololá	2	El tablón	5	Mayo	2023-05-29T00:00:00	2024-11-06T14:00:00	2	Temperatura media	19.1
156970	7	Sololá	701	Sololá	2	El tablón	5	Mayo	2023-05-29T00:00:00	2024-11-06T14:00:00	4	Temperatura máxima	19.1
156971	7	Sololá	701	Sololá	2	El tablón	5	Mayo	2023-05-29T00:00:00	2024-11-06T14:00:00	3	Temperatura mínima	18
156972	7	Sololá	701	Sololá	2	El tablón	5	Mayo	2023-05-29T00:00:00	2024-11-06T14:00:00	5	Humedad	73
156973	7	Sololá	701	Sololá	2	El tablón	5	Mayo	2023-05-29T00:00:00	2024-11-06T14:00:00	6	Velocidad del viento	6.4
156974	7	Sololá	701	Sololá	2	El tablón	5	Mayo	2023-05-29T00:00:00	2024-11-06T14:00:00	7	Dirección del viento	6.44
156975	7	Sololá	701	Sololá	2	El tablón	5	Mayo	2023-05-29T00:00:00	2024-11-06T14:00:00	1	Precipitación	0
156976	7	Sololá	701	Sololá	2	El tablón	5	Mayo	2023-05-29T00:00:00	2024-11-06T14:00:00	8	Radiación solar	787
156977	7	Sololá	701	Sololá	2	El tablón	5	Mayo	2023-05-29T00:00:00	2024-11-06T15:00:00	2	Temperatura media	17.3
156978	7	Sololá	701	Sololá	2	El tablón	5	Mayo	2023-05-29T00:00:00	2024-11-06T15:00:00	4	Temperatura máxima	19.2
156979	7	Sololá	701	Sololá	2	El tablón	5	Mayo	2023-05-29T00:00:00	2024-11-06T15:00:00	3	Temperatura mínima	17.3
156980	7	Sololá	701	Sololá	2	El tablón	5	Mayo	2023-05-29T00:00:00	2024-11-06T15:00:00	5	Humedad	85
156981	7	Sololá	701	Sololá	2	El tablón	5	Mayo	2023-05-29T00:00:00	2024-11-06T15:00:00	6	Velocidad del viento	8
156982	7	Sololá	701	Sololá	2	El tablón	5	Mayo	2023-05-29T00:00:00	2024-11-06T15:00:00	7	Dirección del viento	8.05
156983	7	Sololá	701	Sololá	2	El tablón	5	Mayo	2023-05-29T00:00:00	2024-11-06T15:00:00	1	Precipitación	0.2
156984	7	Sololá	701	Sololá	2	El tablón	5	Mayo	2023-05-29T00:00:00	2024-11-06T15:00:00	8	Radiación solar	463
156985	7	Sololá	701	Sololá	2	El tablón	5	Mayo	2023-05-29T00:00:00	2024-11-06T16:00:00	2	Temperatura media	16.3
156986	7	Sololá	701	Sololá	2	El tablón	5	Mayo	2023-05-29T00:00:00	2024-11-06T16:00:00	4	Temperatura máxima	17.3
156987	7	Sololá	701	Sololá	2	El tablón	5	Mayo	2023-05-29T00:00:00	2024-11-06T16:00:00	3	Temperatura mínima	16.3
156988	7	Sololá	701	Sololá	2	El tablón	5	Mayo	2023-05-29T00:00:00	2024-11-06T16:00:00	5	Humedad	88
156989	7	Sololá	701	Sololá	2	El tablón	5	Mayo	2023-05-29T00:00:00	2024-11-06T16:00:00	6	Velocidad del viento	4.8
156990	7	Sololá	701	Sololá	2	El tablón	5	Mayo	2023-05-29T00:00:00	2024-11-06T16:00:00	7	Dirección del viento	4.83
156991	7	Sololá	701	Sololá	2	El tablón	5	Mayo	2023-05-29T00:00:00	2024-11-06T16:00:00	1	Precipitación	0.2
156992	7	Sololá	701	Sololá	2	El tablón	5	Mayo	2023-05-29T00:00:00	2024-11-06T16:00:00	8	Radiación solar	110
156993	7	Sololá	701	Sololá	2	El tablón	5	Mayo	2023-05-29T00:00:00	2024-11-06T17:00:00	2	Temperatura media	12.8
156994	7	Sololá	701	Sololá	2	El tablón	5	Mayo	2023-05-29T00:00:00	2024-11-06T17:00:00	4	Temperatura máxima	16.3
156995	7	Sololá	701	Sololá	2	El tablón	5	Mayo	2023-05-29T00:00:00	2024-11-06T17:00:00	3	Temperatura mínima	12.7
156996	7	Sololá	701	Sololá	2	El tablón	5	Mayo	2023-05-29T00:00:00	2024-11-06T17:00:00	5	Humedad	88
156997	7	Sololá	701	Sololá	2	El tablón	5	Mayo	2023-05-29T00:00:00	2024-11-06T17:00:00	6	Velocidad del viento	9.7
156998	7	Sololá	701	Sololá	2	El tablón	5	Mayo	2023-05-29T00:00:00	2024-11-06T17:00:00	7	Dirección del viento	9.66
156999	7	Sololá	701	Sololá	2	El tablón	5	Mayo	2023-05-29T00:00:00	2024-11-06T17:00:00	1	Precipitación	10.8
157000	7	Sololá	701	Sololá	2	El tablón	5	Mayo	2023-05-29T00:00:00	2024-11-06T17:00:00	8	Radiación solar	22
157001	7	Sololá	701	Sololá	2	El tablón	5	Mayo	2023-05-29T00:00:00	2024-11-06T18:00:00	2	Temperatura media	13.8
157002	7	Sololá	701	Sololá	2	El tablón	5	Mayo	2023-05-29T00:00:00	2024-11-06T18:00:00	4	Temperatura máxima	13.9
157003	7	Sololá	701	Sololá	2	El tablón	5	Mayo	2023-05-29T00:00:00	2024-11-06T18:00:00	3	Temperatura mínima	12.7
157004	7	Sololá	701	Sololá	2	El tablón	5	Mayo	2023-05-29T00:00:00	2024-11-06T18:00:00	5	Humedad	87
157005	7	Sololá	701	Sololá	2	El tablón	5	Mayo	2023-05-29T00:00:00	2024-11-06T18:00:00	6	Velocidad del viento	6.4
157006	7	Sololá	701	Sololá	2	El tablón	5	Mayo	2023-05-29T00:00:00	2024-11-06T18:00:00	7	Dirección del viento	6.44
157007	7	Sololá	701	Sololá	2	El tablón	5	Mayo	2023-05-29T00:00:00	2024-11-06T18:00:00	1	Precipitación	0.4
157008	7	Sololá	701	Sololá	2	El tablón	5	Mayo	2023-05-29T00:00:00	2024-11-06T18:00:00	8	Radiación solar	90
157009	7	Sololá	701	Sololá	2	El tablón	5	Mayo	2023-05-29T00:00:00	2024-11-06T19:00:00	2	Temperatura media	13.9
157010	7	Sololá	701	Sololá	2	El tablón	5	Mayo	2023-05-29T00:00:00	2024-11-06T19:00:00	4	Temperatura máxima	13.9
157011	7	Sololá	701	Sololá	2	El tablón	5	Mayo	2023-05-29T00:00:00	2024-11-06T19:00:00	3	Temperatura mínima	13.4
157012	7	Sololá	701	Sololá	2	El tablón	5	Mayo	2023-05-29T00:00:00	2024-11-06T19:00:00	5	Humedad	85
157013	7	Sololá	701	Sololá	2	El tablón	5	Mayo	2023-05-29T00:00:00	2024-11-06T19:00:00	6	Velocidad del viento	4.8
157014	7	Sololá	701	Sololá	2	El tablón	5	Mayo	2023-05-29T00:00:00	2024-11-06T19:00:00	7	Dirección del viento	4.83
157015	7	Sololá	701	Sololá	2	El tablón	5	Mayo	2023-05-29T00:00:00	2024-11-06T19:00:00	1	Precipitación	0
157016	7	Sololá	701	Sololá	2	El tablón	5	Mayo	2023-05-29T00:00:00	2024-11-06T19:00:00	8	Radiación solar	0
157017	7	Sololá	701	Sololá	2	El tablón	5	Mayo	2023-05-29T00:00:00	2024-11-06T20:00:00	2	Temperatura media	13.8
157018	7	Sololá	701	Sololá	2	El tablón	5	Mayo	2023-05-29T00:00:00	2024-11-06T20:00:00	4	Temperatura máxima	14.5
157019	7	Sololá	701	Sololá	2	El tablón	5	Mayo	2023-05-29T00:00:00	2024-11-06T20:00:00	3	Temperatura mínima	13.8
157020	7	Sololá	701	Sololá	2	El tablón	5	Mayo	2023-05-29T00:00:00	2024-11-06T20:00:00	5	Humedad	86
157021	7	Sololá	701	Sololá	2	El tablón	5	Mayo	2023-05-29T00:00:00	2024-11-06T20:00:00	6	Velocidad del viento	8
157022	7	Sololá	701	Sololá	2	El tablón	5	Mayo	2023-05-29T00:00:00	2024-11-06T20:00:00	7	Dirección del viento	8.05
157023	7	Sololá	701	Sololá	2	El tablón	5	Mayo	2023-05-29T00:00:00	2024-11-06T20:00:00	1	Precipitación	0
157024	7	Sololá	701	Sololá	2	El tablón	5	Mayo	2023-05-29T00:00:00	2024-11-06T20:00:00	8	Radiación solar	0
157025	7	Sololá	701	Sololá	2	El tablón	5	Mayo	2023-05-29T00:00:00	2024-11-06T21:00:00	2	Temperatura media	13.1
157026	7	Sololá	701	Sololá	2	El tablón	5	Mayo	2023-05-29T00:00:00	2024-11-06T21:00:00	4	Temperatura máxima	13.8
157027	7	Sololá	701	Sololá	2	El tablón	5	Mayo	2023-05-29T00:00:00	2024-11-06T21:00:00	3	Temperatura mínima	13.1
157028	7	Sololá	701	Sololá	2	El tablón	5	Mayo	2023-05-29T00:00:00	2024-11-06T21:00:00	5	Humedad	88
157029	7	Sololá	701	Sololá	2	El tablón	5	Mayo	2023-05-29T00:00:00	2024-11-06T21:00:00	6	Velocidad del viento	4.8
157030	7	Sololá	701	Sololá	2	El tablón	5	Mayo	2023-05-29T00:00:00	2024-11-06T21:00:00	7	Dirección del viento	4.83
157031	7	Sololá	701	Sololá	2	El tablón	5	Mayo	2023-05-29T00:00:00	2024-11-06T21:00:00	1	Precipitación	0
157032	7	Sololá	701	Sololá	2	El tablón	5	Mayo	2023-05-29T00:00:00	2024-11-06T21:00:00	8	Radiación solar	0
157033	7	Sololá	701	Sololá	2	El tablón	5	Mayo	2023-05-29T00:00:00	2024-11-06T22:00:00	2	Temperatura media	12.6
157034	7	Sololá	701	Sololá	2	El tablón	5	Mayo	2023-05-29T00:00:00	2024-11-06T22:00:00	4	Temperatura máxima	13.1
157035	7	Sololá	701	Sololá	2	El tablón	5	Mayo	2023-05-29T00:00:00	2024-11-06T22:00:00	3	Temperatura mínima	12.2
157036	7	Sololá	701	Sololá	2	El tablón	5	Mayo	2023-05-29T00:00:00	2024-11-06T22:00:00	5	Humedad	89
157037	7	Sololá	701	Sololá	2	El tablón	5	Mayo	2023-05-29T00:00:00	2024-11-06T22:00:00	6	Velocidad del viento	1.6
157038	7	Sololá	701	Sololá	2	El tablón	5	Mayo	2023-05-29T00:00:00	2024-11-06T22:00:00	7	Dirección del viento	1.61
157039	7	Sololá	701	Sololá	2	El tablón	5	Mayo	2023-05-29T00:00:00	2024-11-06T22:00:00	1	Precipitación	0
157040	7	Sololá	701	Sololá	2	El tablón	5	Mayo	2023-05-29T00:00:00	2024-11-06T22:00:00	8	Radiación solar	0
157041	7	Sololá	701	Sololá	2	El tablón	5	Mayo	2023-05-29T00:00:00	2024-11-06T23:00:00	2	Temperatura media	12.2
157042	7	Sololá	701	Sololá	2	El tablón	5	Mayo	2023-05-29T00:00:00	2024-11-06T23:00:00	4	Temperatura máxima	13.3
157043	7	Sololá	701	Sololá	2	El tablón	5	Mayo	2023-05-29T00:00:00	2024-11-06T23:00:00	3	Temperatura mínima	12.2
157044	7	Sololá	701	Sololá	2	El tablón	5	Mayo	2023-05-29T00:00:00	2024-11-06T23:00:00	5	Humedad	88
157045	7	Sololá	701	Sololá	2	El tablón	5	Mayo	2023-05-29T00:00:00	2024-11-06T23:00:00	6	Velocidad del viento	1.6
157046	7	Sololá	701	Sololá	2	El tablón	5	Mayo	2023-05-29T00:00:00	2024-11-06T23:00:00	7	Dirección del viento	1.61
157047	7	Sololá	701	Sololá	2	El tablón	5	Mayo	2023-05-29T00:00:00	2024-11-06T23:00:00	1	Precipitación	0
157048	7	Sololá	701	Sololá	2	El tablón	5	Mayo	2023-05-29T00:00:00	2024-11-06T23:00:00	8	Radiación solar	0
157049	7	Sololá	701	Sololá	2	El tablón	5	Mayo	2023-05-30T00:00:00	2024-11-06T00:00:00	2	Temperatura media	12.2
157050	7	Sololá	701	Sololá	2	El tablón	5	Mayo	2023-05-30T00:00:00	2024-11-06T00:00:00	4	Temperatura máxima	12.3
157051	7	Sololá	701	Sololá	2	El tablón	5	Mayo	2023-05-30T00:00:00	2024-11-06T00:00:00	3	Temperatura mínima	11.8
157052	7	Sololá	701	Sololá	2	El tablón	5	Mayo	2023-05-30T00:00:00	2024-11-06T00:00:00	5	Humedad	89
157053	7	Sololá	701	Sololá	2	El tablón	5	Mayo	2023-05-30T00:00:00	2024-11-06T00:00:00	6	Velocidad del viento	1.6
157054	7	Sololá	701	Sololá	2	El tablón	5	Mayo	2023-05-30T00:00:00	2024-11-06T00:00:00	7	Dirección del viento	1.61
157055	7	Sololá	701	Sololá	2	El tablón	5	Mayo	2023-05-30T00:00:00	2024-11-06T00:00:00	1	Precipitación	0
157056	7	Sololá	701	Sololá	2	El tablón	5	Mayo	2023-05-30T00:00:00	2024-11-06T00:00:00	8	Radiación solar	0
157057	7	Sololá	701	Sololá	2	El tablón	5	Mayo	2023-05-30T00:00:00	2024-11-06T01:00:00	2	Temperatura media	12.9
157058	7	Sololá	701	Sololá	2	El tablón	5	Mayo	2023-05-30T00:00:00	2024-11-06T01:00:00	4	Temperatura máxima	12.9
157059	7	Sololá	701	Sololá	2	El tablón	5	Mayo	2023-05-30T00:00:00	2024-11-06T01:00:00	3	Temperatura mínima	12.2
157060	7	Sololá	701	Sololá	2	El tablón	5	Mayo	2023-05-30T00:00:00	2024-11-06T01:00:00	5	Humedad	88
157061	7	Sololá	701	Sololá	2	El tablón	5	Mayo	2023-05-30T00:00:00	2024-11-06T01:00:00	6	Velocidad del viento	1.6
157062	7	Sololá	701	Sololá	2	El tablón	5	Mayo	2023-05-30T00:00:00	2024-11-06T01:00:00	7	Dirección del viento	1.61
157063	7	Sololá	701	Sololá	2	El tablón	5	Mayo	2023-05-30T00:00:00	2024-11-06T01:00:00	1	Precipitación	0
157064	7	Sololá	701	Sololá	2	El tablón	5	Mayo	2023-05-30T00:00:00	2024-11-06T01:00:00	8	Radiación solar	0
157065	7	Sololá	701	Sololá	2	El tablón	5	Mayo	2023-05-30T00:00:00	2024-11-06T02:00:00	2	Temperatura media	13.3
157066	7	Sololá	701	Sololá	2	El tablón	5	Mayo	2023-05-30T00:00:00	2024-11-06T02:00:00	4	Temperatura máxima	13.4
157067	7	Sololá	701	Sololá	2	El tablón	5	Mayo	2023-05-30T00:00:00	2024-11-06T02:00:00	3	Temperatura mínima	12.9
157068	7	Sololá	701	Sololá	2	El tablón	5	Mayo	2023-05-30T00:00:00	2024-11-06T02:00:00	5	Humedad	87
157069	7	Sololá	701	Sololá	2	El tablón	5	Mayo	2023-05-30T00:00:00	2024-11-06T02:00:00	6	Velocidad del viento	3.2
157070	7	Sololá	701	Sololá	2	El tablón	5	Mayo	2023-05-30T00:00:00	2024-11-06T02:00:00	7	Dirección del viento	3.22
157071	7	Sololá	701	Sololá	2	El tablón	5	Mayo	2023-05-30T00:00:00	2024-11-06T02:00:00	1	Precipitación	0
157072	7	Sololá	701	Sololá	2	El tablón	5	Mayo	2023-05-30T00:00:00	2024-11-06T02:00:00	8	Radiación solar	0
157073	7	Sololá	701	Sololá	2	El tablón	5	Mayo	2023-05-30T00:00:00	2024-11-06T03:00:00	2	Temperatura media	12.9
157074	7	Sololá	701	Sololá	2	El tablón	5	Mayo	2023-05-30T00:00:00	2024-11-06T03:00:00	4	Temperatura máxima	13.4
157075	7	Sololá	701	Sololá	2	El tablón	5	Mayo	2023-05-30T00:00:00	2024-11-06T03:00:00	3	Temperatura mínima	12.6
157076	7	Sololá	701	Sololá	2	El tablón	5	Mayo	2023-05-30T00:00:00	2024-11-06T03:00:00	5	Humedad	87
157077	7	Sololá	701	Sololá	2	El tablón	5	Mayo	2023-05-30T00:00:00	2024-11-06T03:00:00	6	Velocidad del viento	1.6
157078	7	Sololá	701	Sololá	2	El tablón	5	Mayo	2023-05-30T00:00:00	2024-11-06T03:00:00	7	Dirección del viento	1.61
157079	7	Sololá	701	Sololá	2	El tablón	5	Mayo	2023-05-30T00:00:00	2024-11-06T03:00:00	1	Precipitación	0
157080	7	Sololá	701	Sololá	2	El tablón	5	Mayo	2023-05-30T00:00:00	2024-11-06T03:00:00	8	Radiación solar	0
157081	7	Sololá	701	Sololá	2	El tablón	5	Mayo	2023-05-30T00:00:00	2024-11-06T04:00:00	2	Temperatura media	12.1
157082	7	Sololá	701	Sololá	2	El tablón	5	Mayo	2023-05-30T00:00:00	2024-11-06T04:00:00	4	Temperatura máxima	12.9
157083	7	Sololá	701	Sololá	2	El tablón	5	Mayo	2023-05-30T00:00:00	2024-11-06T04:00:00	3	Temperatura mínima	11.9
157084	7	Sololá	701	Sololá	2	El tablón	5	Mayo	2023-05-30T00:00:00	2024-11-06T04:00:00	5	Humedad	88
157085	7	Sololá	701	Sololá	2	El tablón	5	Mayo	2023-05-30T00:00:00	2024-11-06T04:00:00	6	Velocidad del viento	3.2
157086	7	Sololá	701	Sololá	2	El tablón	5	Mayo	2023-05-30T00:00:00	2024-11-06T04:00:00	7	Dirección del viento	3.22
157087	7	Sololá	701	Sololá	2	El tablón	5	Mayo	2023-05-30T00:00:00	2024-11-06T04:00:00	1	Precipitación	0
157088	7	Sololá	701	Sololá	2	El tablón	5	Mayo	2023-05-30T00:00:00	2024-11-06T04:00:00	8	Radiación solar	0
157089	7	Sololá	701	Sololá	2	El tablón	5	Mayo	2023-05-30T00:00:00	2024-11-06T05:00:00	2	Temperatura media	12.7
157090	7	Sololá	701	Sololá	2	El tablón	5	Mayo	2023-05-30T00:00:00	2024-11-06T05:00:00	4	Temperatura máxima	12.8
157091	7	Sololá	701	Sololá	2	El tablón	5	Mayo	2023-05-30T00:00:00	2024-11-06T05:00:00	3	Temperatura mínima	12.1
157092	7	Sololá	701	Sololá	2	El tablón	5	Mayo	2023-05-30T00:00:00	2024-11-06T05:00:00	5	Humedad	87
157093	7	Sololá	701	Sololá	2	El tablón	5	Mayo	2023-05-30T00:00:00	2024-11-06T05:00:00	6	Velocidad del viento	3.2
157094	7	Sololá	701	Sololá	2	El tablón	5	Mayo	2023-05-30T00:00:00	2024-11-06T05:00:00	7	Dirección del viento	3.22
157095	7	Sololá	701	Sololá	2	El tablón	5	Mayo	2023-05-30T00:00:00	2024-11-06T05:00:00	1	Precipitación	0
157096	7	Sololá	701	Sololá	2	El tablón	5	Mayo	2023-05-30T00:00:00	2024-11-06T05:00:00	8	Radiación solar	0
157097	7	Sololá	701	Sololá	2	El tablón	5	Mayo	2023-05-30T00:00:00	2024-11-06T06:00:00	2	Temperatura media	11.8
157098	7	Sololá	701	Sololá	2	El tablón	5	Mayo	2023-05-30T00:00:00	2024-11-06T06:00:00	4	Temperatura máxima	12.7
157099	7	Sololá	701	Sololá	2	El tablón	5	Mayo	2023-05-30T00:00:00	2024-11-06T06:00:00	3	Temperatura mínima	11.7
157100	7	Sololá	701	Sololá	2	El tablón	5	Mayo	2023-05-30T00:00:00	2024-11-06T06:00:00	5	Humedad	88
157101	7	Sololá	701	Sololá	2	El tablón	5	Mayo	2023-05-30T00:00:00	2024-11-06T06:00:00	6	Velocidad del viento	3.2
157102	7	Sololá	701	Sololá	2	El tablón	5	Mayo	2023-05-30T00:00:00	2024-11-06T06:00:00	7	Dirección del viento	3.22
157103	7	Sololá	701	Sololá	2	El tablón	5	Mayo	2023-05-30T00:00:00	2024-11-06T06:00:00	1	Precipitación	0
157104	7	Sololá	701	Sololá	2	El tablón	5	Mayo	2023-05-30T00:00:00	2024-11-06T06:00:00	8	Radiación solar	6
157105	7	Sololá	701	Sololá	2	El tablón	5	Mayo	2023-05-30T00:00:00	2024-11-06T07:00:00	2	Temperatura media	13.7
157106	7	Sololá	701	Sololá	2	El tablón	5	Mayo	2023-05-30T00:00:00	2024-11-06T07:00:00	4	Temperatura máxima	13.7
157107	7	Sololá	701	Sololá	2	El tablón	5	Mayo	2023-05-30T00:00:00	2024-11-06T07:00:00	3	Temperatura mínima	11.6
157108	7	Sololá	701	Sololá	2	El tablón	5	Mayo	2023-05-30T00:00:00	2024-11-06T07:00:00	5	Humedad	84
157109	7	Sololá	701	Sololá	2	El tablón	5	Mayo	2023-05-30T00:00:00	2024-11-06T07:00:00	6	Velocidad del viento	1.6
157110	7	Sololá	701	Sololá	2	El tablón	5	Mayo	2023-05-30T00:00:00	2024-11-06T07:00:00	7	Dirección del viento	1.61
157111	7	Sololá	701	Sololá	2	El tablón	5	Mayo	2023-05-30T00:00:00	2024-11-06T07:00:00	1	Precipitación	0
157112	7	Sololá	701	Sololá	2	El tablón	5	Mayo	2023-05-30T00:00:00	2024-11-06T07:00:00	8	Radiación solar	126
157113	7	Sololá	701	Sololá	2	El tablón	5	Mayo	2023-05-30T00:00:00	2024-11-06T08:00:00	2	Temperatura media	15.1
157114	7	Sololá	701	Sololá	2	El tablón	5	Mayo	2023-05-30T00:00:00	2024-11-06T08:00:00	4	Temperatura máxima	15.1
157115	7	Sololá	701	Sololá	2	El tablón	5	Mayo	2023-05-30T00:00:00	2024-11-06T08:00:00	3	Temperatura mínima	13.7
157116	7	Sololá	701	Sololá	2	El tablón	5	Mayo	2023-05-30T00:00:00	2024-11-06T08:00:00	5	Humedad	84
157117	7	Sololá	701	Sololá	2	El tablón	5	Mayo	2023-05-30T00:00:00	2024-11-06T08:00:00	6	Velocidad del viento	1.6
157118	7	Sololá	701	Sololá	2	El tablón	5	Mayo	2023-05-30T00:00:00	2024-11-06T08:00:00	7	Dirección del viento	1.61
157119	7	Sololá	701	Sololá	2	El tablón	5	Mayo	2023-05-30T00:00:00	2024-11-06T08:00:00	1	Precipitación	0
157120	7	Sololá	701	Sololá	2	El tablón	5	Mayo	2023-05-30T00:00:00	2024-11-06T08:00:00	8	Radiación solar	245
157121	7	Sololá	701	Sololá	2	El tablón	5	Mayo	2023-05-30T00:00:00	2024-11-06T09:00:00	2	Temperatura media	16.8
157122	7	Sololá	701	Sololá	2	El tablón	5	Mayo	2023-05-30T00:00:00	2024-11-06T09:00:00	4	Temperatura máxima	17.2
157123	7	Sololá	701	Sololá	2	El tablón	5	Mayo	2023-05-30T00:00:00	2024-11-06T09:00:00	3	Temperatura mínima	15.1
157124	7	Sololá	701	Sololá	2	El tablón	5	Mayo	2023-05-30T00:00:00	2024-11-06T09:00:00	5	Humedad	81
157125	7	Sololá	701	Sololá	2	El tablón	5	Mayo	2023-05-30T00:00:00	2024-11-06T09:00:00	6	Velocidad del viento	3.2
157126	7	Sololá	701	Sololá	2	El tablón	5	Mayo	2023-05-30T00:00:00	2024-11-06T09:00:00	7	Dirección del viento	3.22
157127	7	Sololá	701	Sololá	2	El tablón	5	Mayo	2023-05-30T00:00:00	2024-11-06T09:00:00	1	Precipitación	0
157128	7	Sololá	701	Sololá	2	El tablón	5	Mayo	2023-05-30T00:00:00	2024-11-06T09:00:00	8	Radiación solar	535
157129	7	Sololá	701	Sololá	2	El tablón	5	Mayo	2023-05-30T00:00:00	2024-11-06T10:00:00	2	Temperatura media	17.1
157130	7	Sololá	701	Sololá	2	El tablón	5	Mayo	2023-05-30T00:00:00	2024-11-06T10:00:00	4	Temperatura máxima	17.1
157131	7	Sololá	701	Sololá	2	El tablón	5	Mayo	2023-05-30T00:00:00	2024-11-06T10:00:00	3	Temperatura mínima	16.3
157132	7	Sololá	701	Sololá	2	El tablón	5	Mayo	2023-05-30T00:00:00	2024-11-06T10:00:00	5	Humedad	79
157133	7	Sololá	701	Sololá	2	El tablón	5	Mayo	2023-05-30T00:00:00	2024-11-06T10:00:00	6	Velocidad del viento	6.4
157134	7	Sololá	701	Sololá	2	El tablón	5	Mayo	2023-05-30T00:00:00	2024-11-06T10:00:00	7	Dirección del viento	6.44
157135	7	Sololá	701	Sololá	2	El tablón	5	Mayo	2023-05-30T00:00:00	2024-11-06T10:00:00	1	Precipitación	0
157136	7	Sololá	701	Sololá	2	El tablón	5	Mayo	2023-05-30T00:00:00	2024-11-06T10:00:00	8	Radiación solar	737
157137	7	Sololá	701	Sololá	2	El tablón	5	Mayo	2023-05-30T00:00:00	2024-11-06T11:00:00	2	Temperatura media	18
157138	7	Sololá	701	Sololá	2	El tablón	5	Mayo	2023-05-30T00:00:00	2024-11-06T11:00:00	4	Temperatura máxima	18.1
157139	7	Sololá	701	Sololá	2	El tablón	5	Mayo	2023-05-30T00:00:00	2024-11-06T11:00:00	3	Temperatura mínima	17.1
157140	7	Sololá	701	Sololá	2	El tablón	5	Mayo	2023-05-30T00:00:00	2024-11-06T11:00:00	5	Humedad	80
157141	7	Sololá	701	Sololá	2	El tablón	5	Mayo	2023-05-30T00:00:00	2024-11-06T11:00:00	6	Velocidad del viento	6.4
157142	7	Sololá	701	Sololá	2	El tablón	5	Mayo	2023-05-30T00:00:00	2024-11-06T11:00:00	7	Dirección del viento	6.44
157143	7	Sololá	701	Sololá	2	El tablón	5	Mayo	2023-05-30T00:00:00	2024-11-06T11:00:00	1	Precipitación	0
157144	7	Sololá	701	Sololá	2	El tablón	5	Mayo	2023-05-30T00:00:00	2024-11-06T11:00:00	8	Radiación solar	855
157145	7	Sololá	701	Sololá	2	El tablón	5	Mayo	2023-05-30T00:00:00	2024-11-06T12:00:00	2	Temperatura media	16.4
157146	7	Sololá	701	Sololá	2	El tablón	5	Mayo	2023-05-30T00:00:00	2024-11-06T12:00:00	4	Temperatura máxima	18.1
157147	7	Sololá	701	Sololá	2	El tablón	5	Mayo	2023-05-30T00:00:00	2024-11-06T12:00:00	3	Temperatura mínima	16.4
157148	7	Sololá	701	Sololá	2	El tablón	5	Mayo	2023-05-30T00:00:00	2024-11-06T12:00:00	5	Humedad	87
157149	7	Sololá	701	Sololá	2	El tablón	5	Mayo	2023-05-30T00:00:00	2024-11-06T12:00:00	6	Velocidad del viento	6.4
157150	7	Sololá	701	Sololá	2	El tablón	5	Mayo	2023-05-30T00:00:00	2024-11-06T12:00:00	7	Dirección del viento	6.44
157151	7	Sololá	701	Sololá	2	El tablón	5	Mayo	2023-05-30T00:00:00	2024-11-06T12:00:00	1	Precipitación	0.2
157152	7	Sololá	701	Sololá	2	El tablón	5	Mayo	2023-05-30T00:00:00	2024-11-06T12:00:00	8	Radiación solar	286
157153	7	Sololá	701	Sololá	2	El tablón	5	Mayo	2023-05-30T00:00:00	2024-11-06T13:00:00	2	Temperatura media	15.6
157154	7	Sololá	701	Sololá	2	El tablón	5	Mayo	2023-05-30T00:00:00	2024-11-06T13:00:00	4	Temperatura máxima	16.4
157155	7	Sololá	701	Sololá	2	El tablón	5	Mayo	2023-05-30T00:00:00	2024-11-06T13:00:00	3	Temperatura mínima	15.6
157156	7	Sololá	701	Sololá	2	El tablón	5	Mayo	2023-05-30T00:00:00	2024-11-06T13:00:00	5	Humedad	88
157157	7	Sololá	701	Sololá	2	El tablón	5	Mayo	2023-05-30T00:00:00	2024-11-06T13:00:00	6	Velocidad del viento	4.8
157158	7	Sololá	701	Sololá	2	El tablón	5	Mayo	2023-05-30T00:00:00	2024-11-06T13:00:00	7	Dirección del viento	4.83
157159	7	Sololá	701	Sololá	2	El tablón	5	Mayo	2023-05-30T00:00:00	2024-11-06T13:00:00	1	Precipitación	0
157160	7	Sololá	701	Sololá	2	El tablón	5	Mayo	2023-05-30T00:00:00	2024-11-06T13:00:00	8	Radiación solar	202
157161	7	Sololá	701	Sololá	2	El tablón	5	Mayo	2023-05-30T00:00:00	2024-11-06T14:00:00	2	Temperatura media	14.8
157162	7	Sololá	701	Sololá	2	El tablón	5	Mayo	2023-05-30T00:00:00	2024-11-06T14:00:00	4	Temperatura máxima	15.6
157163	7	Sololá	701	Sololá	2	El tablón	5	Mayo	2023-05-30T00:00:00	2024-11-06T14:00:00	3	Temperatura mínima	14.8
157164	7	Sololá	701	Sololá	2	El tablón	5	Mayo	2023-05-30T00:00:00	2024-11-06T14:00:00	5	Humedad	88
157165	7	Sololá	701	Sololá	2	El tablón	5	Mayo	2023-05-30T00:00:00	2024-11-06T14:00:00	6	Velocidad del viento	3.2
157166	7	Sololá	701	Sololá	2	El tablón	5	Mayo	2023-05-30T00:00:00	2024-11-06T14:00:00	7	Dirección del viento	3.22
157167	7	Sololá	701	Sololá	2	El tablón	5	Mayo	2023-05-30T00:00:00	2024-11-06T14:00:00	1	Precipitación	0.6
157168	7	Sololá	701	Sololá	2	El tablón	5	Mayo	2023-05-30T00:00:00	2024-11-06T14:00:00	8	Radiación solar	83
157169	7	Sololá	701	Sololá	2	El tablón	5	Mayo	2023-05-30T00:00:00	2024-11-06T15:00:00	2	Temperatura media	13.5
157170	7	Sololá	701	Sololá	2	El tablón	5	Mayo	2023-05-30T00:00:00	2024-11-06T15:00:00	4	Temperatura máxima	14.8
157171	7	Sololá	701	Sololá	2	El tablón	5	Mayo	2023-05-30T00:00:00	2024-11-06T15:00:00	3	Temperatura mínima	13.5
157172	7	Sololá	701	Sololá	2	El tablón	5	Mayo	2023-05-30T00:00:00	2024-11-06T15:00:00	5	Humedad	88
157173	7	Sololá	701	Sololá	2	El tablón	5	Mayo	2023-05-30T00:00:00	2024-11-06T15:00:00	6	Velocidad del viento	4.8
157174	7	Sololá	701	Sololá	2	El tablón	5	Mayo	2023-05-30T00:00:00	2024-11-06T15:00:00	7	Dirección del viento	4.83
157175	7	Sololá	701	Sololá	2	El tablón	5	Mayo	2023-05-30T00:00:00	2024-11-06T15:00:00	1	Precipitación	0.4
157176	7	Sololá	701	Sololá	2	El tablón	5	Mayo	2023-05-30T00:00:00	2024-11-06T15:00:00	8	Radiación solar	57
157177	7	Sololá	701	Sololá	2	El tablón	5	Mayo	2023-05-30T00:00:00	2024-11-06T16:00:00	2	Temperatura media	13.8
157178	7	Sololá	701	Sololá	2	El tablón	5	Mayo	2023-05-30T00:00:00	2024-11-06T16:00:00	4	Temperatura máxima	14.2
157179	7	Sololá	701	Sololá	2	El tablón	5	Mayo	2023-05-30T00:00:00	2024-11-06T16:00:00	3	Temperatura mínima	13.5
157180	7	Sololá	701	Sololá	2	El tablón	5	Mayo	2023-05-30T00:00:00	2024-11-06T16:00:00	5	Humedad	87
157181	7	Sololá	701	Sololá	2	El tablón	5	Mayo	2023-05-30T00:00:00	2024-11-06T16:00:00	6	Velocidad del viento	1.6
157182	7	Sololá	701	Sololá	2	El tablón	5	Mayo	2023-05-30T00:00:00	2024-11-06T16:00:00	7	Dirección del viento	1.61
157183	7	Sololá	701	Sololá	2	El tablón	5	Mayo	2023-05-30T00:00:00	2024-11-06T16:00:00	1	Precipitación	1
157184	7	Sololá	701	Sololá	2	El tablón	5	Mayo	2023-05-30T00:00:00	2024-11-06T16:00:00	8	Radiación solar	122
157185	7	Sololá	701	Sololá	2	El tablón	5	Mayo	2023-05-30T00:00:00	2024-11-06T17:00:00	2	Temperatura media	13.5
157186	7	Sololá	701	Sololá	2	El tablón	5	Mayo	2023-05-30T00:00:00	2024-11-06T17:00:00	4	Temperatura máxima	13.8
157187	7	Sololá	701	Sololá	2	El tablón	5	Mayo	2023-05-30T00:00:00	2024-11-06T17:00:00	3	Temperatura mínima	13.3
157188	7	Sololá	701	Sololá	2	El tablón	5	Mayo	2023-05-30T00:00:00	2024-11-06T17:00:00	5	Humedad	87
157189	7	Sololá	701	Sololá	2	El tablón	5	Mayo	2023-05-30T00:00:00	2024-11-06T17:00:00	6	Velocidad del viento	3.2
157190	7	Sololá	701	Sololá	2	El tablón	5	Mayo	2023-05-30T00:00:00	2024-11-06T17:00:00	7	Dirección del viento	3.22
157191	7	Sololá	701	Sololá	2	El tablón	5	Mayo	2023-05-30T00:00:00	2024-11-06T17:00:00	1	Precipitación	0
157192	7	Sololá	701	Sololá	2	El tablón	5	Mayo	2023-05-30T00:00:00	2024-11-06T17:00:00	8	Radiación solar	15
157193	7	Sololá	701	Sololá	2	El tablón	5	Mayo	2023-05-30T00:00:00	2024-11-06T18:00:00	2	Temperatura media	12.9
157194	7	Sololá	701	Sololá	2	El tablón	5	Mayo	2023-05-30T00:00:00	2024-11-06T18:00:00	4	Temperatura máxima	13.5
157195	7	Sololá	701	Sololá	2	El tablón	5	Mayo	2023-05-30T00:00:00	2024-11-06T18:00:00	3	Temperatura mínima	12.8
157196	7	Sololá	701	Sololá	2	El tablón	5	Mayo	2023-05-30T00:00:00	2024-11-06T18:00:00	5	Humedad	89
157197	7	Sololá	701	Sololá	2	El tablón	5	Mayo	2023-05-30T00:00:00	2024-11-06T18:00:00	6	Velocidad del viento	9.7
157198	7	Sololá	701	Sololá	2	El tablón	5	Mayo	2023-05-30T00:00:00	2024-11-06T18:00:00	7	Dirección del viento	9.66
157199	7	Sololá	701	Sololá	2	El tablón	5	Mayo	2023-05-30T00:00:00	2024-11-06T18:00:00	1	Precipitación	2
157200	7	Sololá	701	Sololá	2	El tablón	5	Mayo	2023-05-30T00:00:00	2024-11-06T18:00:00	8	Radiación solar	7
157201	7	Sololá	701	Sololá	2	El tablón	5	Mayo	2023-05-30T00:00:00	2024-11-06T19:00:00	2	Temperatura media	13.6
157202	7	Sololá	701	Sololá	2	El tablón	5	Mayo	2023-05-30T00:00:00	2024-11-06T19:00:00	4	Temperatura máxima	13.6
157203	7	Sololá	701	Sololá	2	El tablón	5	Mayo	2023-05-30T00:00:00	2024-11-06T19:00:00	3	Temperatura mínima	12.9
157204	7	Sololá	701	Sololá	2	El tablón	5	Mayo	2023-05-30T00:00:00	2024-11-06T19:00:00	5	Humedad	84
157205	7	Sololá	701	Sololá	2	El tablón	5	Mayo	2023-05-30T00:00:00	2024-11-06T19:00:00	6	Velocidad del viento	9.7
157206	7	Sololá	701	Sololá	2	El tablón	5	Mayo	2023-05-30T00:00:00	2024-11-06T19:00:00	7	Dirección del viento	9.66
157207	7	Sololá	701	Sololá	2	El tablón	5	Mayo	2023-05-30T00:00:00	2024-11-06T19:00:00	1	Precipitación	0.2
157208	7	Sololá	701	Sololá	2	El tablón	5	Mayo	2023-05-30T00:00:00	2024-11-06T19:00:00	8	Radiación solar	0
157209	7	Sololá	701	Sololá	2	El tablón	5	Mayo	2023-05-30T00:00:00	2024-11-06T20:00:00	2	Temperatura media	13.3
157210	7	Sololá	701	Sololá	2	El tablón	5	Mayo	2023-05-30T00:00:00	2024-11-06T20:00:00	4	Temperatura máxima	13.6
157211	7	Sololá	701	Sololá	2	El tablón	5	Mayo	2023-05-30T00:00:00	2024-11-06T20:00:00	3	Temperatura mínima	13.3
157212	7	Sololá	701	Sololá	2	El tablón	5	Mayo	2023-05-30T00:00:00	2024-11-06T20:00:00	5	Humedad	85
157213	7	Sololá	701	Sololá	2	El tablón	5	Mayo	2023-05-30T00:00:00	2024-11-06T20:00:00	6	Velocidad del viento	9.7
157214	7	Sololá	701	Sololá	2	El tablón	5	Mayo	2023-05-30T00:00:00	2024-11-06T20:00:00	7	Dirección del viento	9.66
157215	7	Sololá	701	Sololá	2	El tablón	5	Mayo	2023-05-30T00:00:00	2024-11-06T20:00:00	1	Precipitación	0
157216	7	Sololá	701	Sololá	2	El tablón	5	Mayo	2023-05-30T00:00:00	2024-11-06T20:00:00	8	Radiación solar	0
157217	7	Sololá	701	Sololá	2	El tablón	5	Mayo	2023-05-30T00:00:00	2024-11-06T21:00:00	2	Temperatura media	13.8
157218	7	Sololá	701	Sololá	2	El tablón	5	Mayo	2023-05-30T00:00:00	2024-11-06T21:00:00	4	Temperatura máxima	14
157219	7	Sololá	701	Sololá	2	El tablón	5	Mayo	2023-05-30T00:00:00	2024-11-06T21:00:00	3	Temperatura mínima	13.2
157220	7	Sololá	701	Sololá	2	El tablón	5	Mayo	2023-05-30T00:00:00	2024-11-06T21:00:00	5	Humedad	80
157221	7	Sololá	701	Sololá	2	El tablón	5	Mayo	2023-05-30T00:00:00	2024-11-06T21:00:00	6	Velocidad del viento	6.4
157222	7	Sololá	701	Sololá	2	El tablón	5	Mayo	2023-05-30T00:00:00	2024-11-06T21:00:00	7	Dirección del viento	6.44
157223	7	Sololá	701	Sololá	2	El tablón	5	Mayo	2023-05-30T00:00:00	2024-11-06T21:00:00	1	Precipitación	0
157224	7	Sololá	701	Sololá	2	El tablón	5	Mayo	2023-05-30T00:00:00	2024-11-06T21:00:00	8	Radiación solar	0
157225	7	Sololá	701	Sololá	2	El tablón	5	Mayo	2023-05-30T00:00:00	2024-11-06T22:00:00	2	Temperatura media	13.3
157226	7	Sololá	701	Sololá	2	El tablón	5	Mayo	2023-05-30T00:00:00	2024-11-06T22:00:00	4	Temperatura máxima	13.8
157227	7	Sololá	701	Sololá	2	El tablón	5	Mayo	2023-05-30T00:00:00	2024-11-06T22:00:00	3	Temperatura mínima	13.1
157228	7	Sololá	701	Sololá	2	El tablón	5	Mayo	2023-05-30T00:00:00	2024-11-06T22:00:00	5	Humedad	82
157229	7	Sololá	701	Sololá	2	El tablón	5	Mayo	2023-05-30T00:00:00	2024-11-06T22:00:00	6	Velocidad del viento	1.6
157230	7	Sololá	701	Sololá	2	El tablón	5	Mayo	2023-05-30T00:00:00	2024-11-06T22:00:00	7	Dirección del viento	1.61
157231	7	Sololá	701	Sololá	2	El tablón	5	Mayo	2023-05-30T00:00:00	2024-11-06T22:00:00	1	Precipitación	0
157232	7	Sololá	701	Sololá	2	El tablón	5	Mayo	2023-05-30T00:00:00	2024-11-06T22:00:00	8	Radiación solar	0
157233	7	Sololá	701	Sololá	2	El tablón	5	Mayo	2023-05-30T00:00:00	2024-11-06T23:00:00	2	Temperatura media	13.3
157234	7	Sololá	701	Sololá	2	El tablón	5	Mayo	2023-05-30T00:00:00	2024-11-06T23:00:00	4	Temperatura máxima	13.7
157235	7	Sololá	701	Sololá	2	El tablón	5	Mayo	2023-05-30T00:00:00	2024-11-06T23:00:00	3	Temperatura mínima	13
157236	7	Sololá	701	Sololá	2	El tablón	5	Mayo	2023-05-30T00:00:00	2024-11-06T23:00:00	5	Humedad	85
157237	7	Sololá	701	Sololá	2	El tablón	5	Mayo	2023-05-30T00:00:00	2024-11-06T23:00:00	6	Velocidad del viento	1.6
157238	7	Sololá	701	Sololá	2	El tablón	5	Mayo	2023-05-30T00:00:00	2024-11-06T23:00:00	7	Dirección del viento	1.61
157239	7	Sololá	701	Sololá	2	El tablón	5	Mayo	2023-05-30T00:00:00	2024-11-06T23:00:00	1	Precipitación	0
157240	7	Sololá	701	Sololá	2	El tablón	5	Mayo	2023-05-30T00:00:00	2024-11-06T23:00:00	8	Radiación solar	0
157241	7	Sololá	701	Sololá	2	El tablón	5	Mayo	2023-05-31T00:00:00	2024-11-06T00:00:00	2	Temperatura media	13.2
157242	7	Sololá	701	Sololá	2	El tablón	5	Mayo	2023-05-31T00:00:00	2024-11-06T00:00:00	4	Temperatura máxima	13.3
157243	7	Sololá	701	Sololá	2	El tablón	5	Mayo	2023-05-31T00:00:00	2024-11-06T00:00:00	3	Temperatura mínima	12.4
157244	7	Sololá	701	Sololá	2	El tablón	5	Mayo	2023-05-31T00:00:00	2024-11-06T00:00:00	5	Humedad	84
157245	7	Sololá	701	Sololá	2	El tablón	5	Mayo	2023-05-31T00:00:00	2024-11-06T00:00:00	6	Velocidad del viento	3.2
157246	7	Sololá	701	Sololá	2	El tablón	5	Mayo	2023-05-31T00:00:00	2024-11-06T00:00:00	7	Dirección del viento	3.22
157247	7	Sololá	701	Sololá	2	El tablón	5	Mayo	2023-05-31T00:00:00	2024-11-06T00:00:00	1	Precipitación	0
157248	7	Sololá	701	Sololá	2	El tablón	5	Mayo	2023-05-31T00:00:00	2024-11-06T00:00:00	8	Radiación solar	0
157249	7	Sololá	701	Sololá	2	El tablón	5	Mayo	2023-05-31T00:00:00	2024-11-06T01:00:00	2	Temperatura media	12.9
157250	7	Sololá	701	Sololá	2	El tablón	5	Mayo	2023-05-31T00:00:00	2024-11-06T01:00:00	4	Temperatura máxima	13.2
157251	7	Sololá	701	Sololá	2	El tablón	5	Mayo	2023-05-31T00:00:00	2024-11-06T01:00:00	3	Temperatura mínima	12.9
157252	7	Sololá	701	Sololá	2	El tablón	5	Mayo	2023-05-31T00:00:00	2024-11-06T01:00:00	5	Humedad	87
157253	7	Sololá	701	Sololá	2	El tablón	5	Mayo	2023-05-31T00:00:00	2024-11-06T01:00:00	6	Velocidad del viento	1.6
157254	7	Sololá	701	Sololá	2	El tablón	5	Mayo	2023-05-31T00:00:00	2024-11-06T01:00:00	7	Dirección del viento	1.61
157255	7	Sololá	701	Sololá	2	El tablón	5	Mayo	2023-05-31T00:00:00	2024-11-06T01:00:00	1	Precipitación	0
157256	7	Sololá	701	Sololá	2	El tablón	5	Mayo	2023-05-31T00:00:00	2024-11-06T01:00:00	8	Radiación solar	0
157257	7	Sololá	701	Sololá	2	El tablón	5	Mayo	2023-05-31T00:00:00	2024-11-06T02:00:00	2	Temperatura media	12.5
157258	7	Sololá	701	Sololá	2	El tablón	5	Mayo	2023-05-31T00:00:00	2024-11-06T02:00:00	4	Temperatura máxima	13
157259	7	Sololá	701	Sololá	2	El tablón	5	Mayo	2023-05-31T00:00:00	2024-11-06T02:00:00	3	Temperatura mínima	12.3
157260	7	Sololá	701	Sololá	2	El tablón	5	Mayo	2023-05-31T00:00:00	2024-11-06T02:00:00	5	Humedad	86
157261	7	Sololá	701	Sololá	2	El tablón	5	Mayo	2023-05-31T00:00:00	2024-11-06T02:00:00	6	Velocidad del viento	1.6
157262	7	Sololá	701	Sololá	2	El tablón	5	Mayo	2023-05-31T00:00:00	2024-11-06T02:00:00	7	Dirección del viento	1.61
157263	7	Sololá	701	Sololá	2	El tablón	5	Mayo	2023-05-31T00:00:00	2024-11-06T02:00:00	1	Precipitación	0
157264	7	Sololá	701	Sololá	2	El tablón	5	Mayo	2023-05-31T00:00:00	2024-11-06T02:00:00	8	Radiación solar	0
157265	7	Sololá	701	Sololá	2	El tablón	5	Mayo	2023-05-31T00:00:00	2024-11-06T03:00:00	2	Temperatura media	12.3
157266	7	Sololá	701	Sololá	2	El tablón	5	Mayo	2023-05-31T00:00:00	2024-11-06T03:00:00	4	Temperatura máxima	12.6
157267	7	Sololá	701	Sololá	2	El tablón	5	Mayo	2023-05-31T00:00:00	2024-11-06T03:00:00	3	Temperatura mínima	12.3
157268	7	Sololá	701	Sololá	2	El tablón	5	Mayo	2023-05-31T00:00:00	2024-11-06T03:00:00	5	Humedad	87
157269	7	Sololá	701	Sololá	2	El tablón	5	Mayo	2023-05-31T00:00:00	2024-11-06T03:00:00	6	Velocidad del viento	1.6
157270	7	Sololá	701	Sololá	2	El tablón	5	Mayo	2023-05-31T00:00:00	2024-11-06T03:00:00	7	Dirección del viento	1.61
157271	7	Sololá	701	Sololá	2	El tablón	5	Mayo	2023-05-31T00:00:00	2024-11-06T03:00:00	1	Precipitación	0
157272	7	Sololá	701	Sololá	2	El tablón	5	Mayo	2023-05-31T00:00:00	2024-11-06T03:00:00	8	Radiación solar	0
157273	7	Sololá	701	Sololá	2	El tablón	5	Mayo	2023-05-31T00:00:00	2024-11-06T04:00:00	2	Temperatura media	11.9
157274	7	Sololá	701	Sololá	2	El tablón	5	Mayo	2023-05-31T00:00:00	2024-11-06T04:00:00	4	Temperatura máxima	12.3
157275	7	Sololá	701	Sololá	2	El tablón	5	Mayo	2023-05-31T00:00:00	2024-11-06T04:00:00	3	Temperatura mínima	11.9
157276	7	Sololá	701	Sololá	2	El tablón	5	Mayo	2023-05-31T00:00:00	2024-11-06T04:00:00	5	Humedad	87
157277	7	Sololá	701	Sololá	2	El tablón	5	Mayo	2023-05-31T00:00:00	2024-11-06T04:00:00	6	Velocidad del viento	1.6
157278	7	Sololá	701	Sololá	2	El tablón	5	Mayo	2023-05-31T00:00:00	2024-11-06T04:00:00	7	Dirección del viento	1.61
157279	7	Sololá	701	Sololá	2	El tablón	5	Mayo	2023-05-31T00:00:00	2024-11-06T04:00:00	1	Precipitación	0
157280	7	Sololá	701	Sololá	2	El tablón	5	Mayo	2023-05-31T00:00:00	2024-11-06T04:00:00	8	Radiación solar	0
157281	7	Sololá	701	Sololá	2	El tablón	5	Mayo	2023-05-31T00:00:00	2024-11-06T05:00:00	2	Temperatura media	11.1
157282	7	Sololá	701	Sololá	2	El tablón	5	Mayo	2023-05-31T00:00:00	2024-11-06T05:00:00	4	Temperatura máxima	11.9
157283	7	Sololá	701	Sololá	2	El tablón	5	Mayo	2023-05-31T00:00:00	2024-11-06T05:00:00	3	Temperatura mínima	10.8
157284	7	Sololá	701	Sololá	2	El tablón	5	Mayo	2023-05-31T00:00:00	2024-11-06T05:00:00	5	Humedad	89
157285	7	Sololá	701	Sololá	2	El tablón	5	Mayo	2023-05-31T00:00:00	2024-11-06T05:00:00	6	Velocidad del viento	3.2
157286	7	Sololá	701	Sololá	2	El tablón	5	Mayo	2023-05-31T00:00:00	2024-11-06T05:00:00	7	Dirección del viento	3.22
157287	7	Sololá	701	Sololá	2	El tablón	5	Mayo	2023-05-31T00:00:00	2024-11-06T05:00:00	1	Precipitación	0
157288	7	Sololá	701	Sololá	2	El tablón	5	Mayo	2023-05-31T00:00:00	2024-11-06T05:00:00	8	Radiación solar	0
157289	7	Sololá	701	Sololá	2	El tablón	5	Mayo	2023-05-31T00:00:00	2024-11-06T06:00:00	2	Temperatura media	12.3
157290	7	Sololá	701	Sololá	2	El tablón	5	Mayo	2023-05-31T00:00:00	2024-11-06T06:00:00	4	Temperatura máxima	12.3
157291	7	Sololá	701	Sololá	2	El tablón	5	Mayo	2023-05-31T00:00:00	2024-11-06T06:00:00	3	Temperatura mínima	11.1
157292	7	Sololá	701	Sololá	2	El tablón	5	Mayo	2023-05-31T00:00:00	2024-11-06T06:00:00	5	Humedad	89
157293	7	Sololá	701	Sololá	2	El tablón	5	Mayo	2023-05-31T00:00:00	2024-11-06T06:00:00	6	Velocidad del viento	3.2
157294	7	Sololá	701	Sololá	2	El tablón	5	Mayo	2023-05-31T00:00:00	2024-11-06T06:00:00	7	Dirección del viento	3.22
157295	7	Sololá	701	Sololá	2	El tablón	5	Mayo	2023-05-31T00:00:00	2024-11-06T06:00:00	1	Precipitación	0
157296	7	Sololá	701	Sololá	2	El tablón	5	Mayo	2023-05-31T00:00:00	2024-11-06T06:00:00	8	Radiación solar	7
157297	7	Sololá	701	Sololá	2	El tablón	5	Mayo	2023-05-31T00:00:00	2024-11-06T07:00:00	2	Temperatura media	14
157298	7	Sololá	701	Sololá	2	El tablón	5	Mayo	2023-05-31T00:00:00	2024-11-06T07:00:00	4	Temperatura máxima	14
157299	7	Sololá	701	Sololá	2	El tablón	5	Mayo	2023-05-31T00:00:00	2024-11-06T07:00:00	3	Temperatura mínima	12.3
157300	7	Sololá	701	Sololá	2	El tablón	5	Mayo	2023-05-31T00:00:00	2024-11-06T07:00:00	5	Humedad	87
157301	7	Sololá	701	Sololá	2	El tablón	5	Mayo	2023-05-31T00:00:00	2024-11-06T07:00:00	6	Velocidad del viento	3.2
157302	7	Sololá	701	Sololá	2	El tablón	5	Mayo	2023-05-31T00:00:00	2024-11-06T07:00:00	7	Dirección del viento	3.22
157303	7	Sololá	701	Sololá	2	El tablón	5	Mayo	2023-05-31T00:00:00	2024-11-06T07:00:00	1	Precipitación	0
157304	7	Sololá	701	Sololá	2	El tablón	5	Mayo	2023-05-31T00:00:00	2024-11-06T07:00:00	8	Radiación solar	110
157305	7	Sololá	701	Sololá	2	El tablón	5	Mayo	2023-05-31T00:00:00	2024-11-06T08:00:00	2	Temperatura media	15.1
157306	7	Sololá	701	Sololá	2	El tablón	5	Mayo	2023-05-31T00:00:00	2024-11-06T08:00:00	4	Temperatura máxima	15.3
157307	7	Sololá	701	Sololá	2	El tablón	5	Mayo	2023-05-31T00:00:00	2024-11-06T08:00:00	3	Temperatura mínima	14
157308	7	Sololá	701	Sololá	2	El tablón	5	Mayo	2023-05-31T00:00:00	2024-11-06T08:00:00	5	Humedad	85
157309	7	Sololá	701	Sololá	2	El tablón	5	Mayo	2023-05-31T00:00:00	2024-11-06T08:00:00	6	Velocidad del viento	1.6
157310	7	Sololá	701	Sololá	2	El tablón	5	Mayo	2023-05-31T00:00:00	2024-11-06T08:00:00	7	Dirección del viento	1.61
157311	7	Sololá	701	Sololá	2	El tablón	5	Mayo	2023-05-31T00:00:00	2024-11-06T08:00:00	1	Precipitación	0
157312	7	Sololá	701	Sololá	2	El tablón	5	Mayo	2023-05-31T00:00:00	2024-11-06T08:00:00	8	Radiación solar	213
157313	7	Sololá	701	Sololá	2	El tablón	5	Mayo	2023-05-31T00:00:00	2024-11-06T09:00:00	2	Temperatura media	15.9
157314	7	Sololá	701	Sololá	2	El tablón	5	Mayo	2023-05-31T00:00:00	2024-11-06T09:00:00	4	Temperatura máxima	15.9
157315	7	Sololá	701	Sololá	2	El tablón	5	Mayo	2023-05-31T00:00:00	2024-11-06T09:00:00	3	Temperatura mínima	15.1
157316	7	Sololá	701	Sololá	2	El tablón	5	Mayo	2023-05-31T00:00:00	2024-11-06T09:00:00	5	Humedad	84
157317	7	Sololá	701	Sololá	2	El tablón	5	Mayo	2023-05-31T00:00:00	2024-11-06T09:00:00	6	Velocidad del viento	3.2
157318	7	Sololá	701	Sololá	2	El tablón	5	Mayo	2023-05-31T00:00:00	2024-11-06T09:00:00	7	Dirección del viento	3.22
157319	7	Sololá	701	Sololá	2	El tablón	5	Mayo	2023-05-31T00:00:00	2024-11-06T09:00:00	1	Precipitación	0
157320	7	Sololá	701	Sololá	2	El tablón	5	Mayo	2023-05-31T00:00:00	2024-11-06T09:00:00	8	Radiación solar	449
157321	7	Sololá	701	Sololá	2	El tablón	5	Mayo	2023-05-31T00:00:00	2024-11-06T10:00:00	2	Temperatura media	16.4
157322	7	Sololá	701	Sololá	2	El tablón	5	Mayo	2023-05-31T00:00:00	2024-11-06T10:00:00	4	Temperatura máxima	16.8
157323	7	Sololá	701	Sololá	2	El tablón	5	Mayo	2023-05-31T00:00:00	2024-11-06T10:00:00	3	Temperatura mínima	15.8
157324	7	Sololá	701	Sololá	2	El tablón	5	Mayo	2023-05-31T00:00:00	2024-11-06T10:00:00	5	Humedad	85
157325	7	Sololá	701	Sololá	2	El tablón	5	Mayo	2023-05-31T00:00:00	2024-11-06T10:00:00	6	Velocidad del viento	4.8
157326	7	Sololá	701	Sololá	2	El tablón	5	Mayo	2023-05-31T00:00:00	2024-11-06T10:00:00	7	Dirección del viento	4.83
157327	7	Sololá	701	Sololá	2	El tablón	5	Mayo	2023-05-31T00:00:00	2024-11-06T10:00:00	1	Precipitación	0
157328	7	Sololá	701	Sololá	2	El tablón	5	Mayo	2023-05-31T00:00:00	2024-11-06T10:00:00	8	Radiación solar	658
157329	7	Sololá	701	Sololá	2	El tablón	5	Mayo	2023-05-31T00:00:00	2024-11-06T11:00:00	2	Temperatura media	16.4
157330	7	Sololá	701	Sololá	2	El tablón	5	Mayo	2023-05-31T00:00:00	2024-11-06T11:00:00	4	Temperatura máxima	17
157331	7	Sololá	701	Sololá	2	El tablón	5	Mayo	2023-05-31T00:00:00	2024-11-06T11:00:00	3	Temperatura mínima	16.3
157332	7	Sololá	701	Sololá	2	El tablón	5	Mayo	2023-05-31T00:00:00	2024-11-06T11:00:00	5	Humedad	86
157333	7	Sololá	701	Sololá	2	El tablón	5	Mayo	2023-05-31T00:00:00	2024-11-06T11:00:00	6	Velocidad del viento	6.4
157334	7	Sololá	701	Sololá	2	El tablón	5	Mayo	2023-05-31T00:00:00	2024-11-06T11:00:00	7	Dirección del viento	6.44
157335	7	Sololá	701	Sololá	2	El tablón	5	Mayo	2023-05-31T00:00:00	2024-11-06T11:00:00	1	Precipitación	0
157336	7	Sololá	701	Sololá	2	El tablón	5	Mayo	2023-05-31T00:00:00	2024-11-06T11:00:00	8	Radiación solar	695
157337	7	Sololá	701	Sololá	2	El tablón	5	Mayo	2023-05-31T00:00:00	2024-11-06T12:00:00	2	Temperatura media	16.8
157338	7	Sololá	701	Sololá	2	El tablón	5	Mayo	2023-05-31T00:00:00	2024-11-06T12:00:00	4	Temperatura máxima	16.8
157339	7	Sololá	701	Sololá	2	El tablón	5	Mayo	2023-05-31T00:00:00	2024-11-06T12:00:00	3	Temperatura mínima	15.7
157340	7	Sololá	701	Sololá	2	El tablón	5	Mayo	2023-05-31T00:00:00	2024-11-06T12:00:00	5	Humedad	85
157341	7	Sololá	701	Sololá	2	El tablón	5	Mayo	2023-05-31T00:00:00	2024-11-06T12:00:00	6	Velocidad del viento	8
157342	7	Sololá	701	Sololá	2	El tablón	5	Mayo	2023-05-31T00:00:00	2024-11-06T12:00:00	7	Dirección del viento	8.05
157343	7	Sololá	701	Sololá	2	El tablón	5	Mayo	2023-05-31T00:00:00	2024-11-06T12:00:00	1	Precipitación	0
157344	7	Sololá	701	Sololá	2	El tablón	5	Mayo	2023-05-31T00:00:00	2024-11-06T12:00:00	8	Radiación solar	628
157345	7	Sololá	701	Sololá	2	El tablón	5	Mayo	2023-05-31T00:00:00	2024-11-06T13:00:00	2	Temperatura media	16.9
157346	7	Sololá	701	Sololá	2	El tablón	5	Mayo	2023-05-31T00:00:00	2024-11-06T13:00:00	4	Temperatura máxima	17.3
157347	7	Sololá	701	Sololá	2	El tablón	5	Mayo	2023-05-31T00:00:00	2024-11-06T13:00:00	3	Temperatura mínima	16.8
157348	7	Sololá	701	Sololá	2	El tablón	5	Mayo	2023-05-31T00:00:00	2024-11-06T13:00:00	5	Humedad	85
157349	7	Sololá	701	Sololá	2	El tablón	5	Mayo	2023-05-31T00:00:00	2024-11-06T13:00:00	6	Velocidad del viento	8
157350	7	Sololá	701	Sololá	2	El tablón	5	Mayo	2023-05-31T00:00:00	2024-11-06T13:00:00	7	Dirección del viento	8.05
157351	7	Sololá	701	Sololá	2	El tablón	5	Mayo	2023-05-31T00:00:00	2024-11-06T13:00:00	1	Precipitación	0
157352	7	Sololá	701	Sololá	2	El tablón	5	Mayo	2023-05-31T00:00:00	2024-11-06T13:00:00	8	Radiación solar	736
157353	7	Sololá	701	Sololá	2	El tablón	5	Mayo	2023-05-31T00:00:00	2024-11-06T14:00:00	2	Temperatura media	17.3
157354	7	Sololá	701	Sololá	2	El tablón	5	Mayo	2023-05-31T00:00:00	2024-11-06T14:00:00	4	Temperatura máxima	17.4
157355	7	Sololá	701	Sololá	2	El tablón	5	Mayo	2023-05-31T00:00:00	2024-11-06T14:00:00	3	Temperatura mínima	16.6
157356	7	Sololá	701	Sololá	2	El tablón	5	Mayo	2023-05-31T00:00:00	2024-11-06T14:00:00	5	Humedad	83
157357	7	Sololá	701	Sololá	2	El tablón	5	Mayo	2023-05-31T00:00:00	2024-11-06T14:00:00	6	Velocidad del viento	8
157358	7	Sololá	701	Sololá	2	El tablón	5	Mayo	2023-05-31T00:00:00	2024-11-06T14:00:00	7	Dirección del viento	8.05
157359	7	Sololá	701	Sololá	2	El tablón	5	Mayo	2023-05-31T00:00:00	2024-11-06T14:00:00	1	Precipitación	0
157360	7	Sololá	701	Sololá	2	El tablón	5	Mayo	2023-05-31T00:00:00	2024-11-06T14:00:00	8	Radiación solar	540
157361	7	Sololá	701	Sololá	2	El tablón	5	Mayo	2023-05-31T00:00:00	2024-11-06T15:00:00	2	Temperatura media	16.9
157362	7	Sololá	701	Sololá	2	El tablón	5	Mayo	2023-05-31T00:00:00	2024-11-06T15:00:00	4	Temperatura máxima	17.8
157363	7	Sololá	701	Sololá	2	El tablón	5	Mayo	2023-05-31T00:00:00	2024-11-06T15:00:00	3	Temperatura mínima	16.4
157364	7	Sololá	701	Sololá	2	El tablón	5	Mayo	2023-05-31T00:00:00	2024-11-06T15:00:00	5	Humedad	85
157365	7	Sololá	701	Sololá	2	El tablón	5	Mayo	2023-05-31T00:00:00	2024-11-06T15:00:00	6	Velocidad del viento	8
157366	7	Sololá	701	Sololá	2	El tablón	5	Mayo	2023-05-31T00:00:00	2024-11-06T15:00:00	7	Dirección del viento	8.05
157367	7	Sololá	701	Sololá	2	El tablón	5	Mayo	2023-05-31T00:00:00	2024-11-06T15:00:00	1	Precipitación	0
157368	7	Sololá	701	Sololá	2	El tablón	5	Mayo	2023-05-31T00:00:00	2024-11-06T15:00:00	8	Radiación solar	448
157369	7	Sololá	701	Sololá	2	El tablón	5	Mayo	2023-05-31T00:00:00	2024-11-06T16:00:00	2	Temperatura media	15.8
157370	7	Sololá	701	Sololá	2	El tablón	5	Mayo	2023-05-31T00:00:00	2024-11-06T16:00:00	4	Temperatura máxima	16.9
157371	7	Sololá	701	Sololá	2	El tablón	5	Mayo	2023-05-31T00:00:00	2024-11-06T16:00:00	3	Temperatura mínima	15.8
157372	7	Sololá	701	Sololá	2	El tablón	5	Mayo	2023-05-31T00:00:00	2024-11-06T16:00:00	5	Humedad	88
157373	7	Sololá	701	Sololá	2	El tablón	5	Mayo	2023-05-31T00:00:00	2024-11-06T16:00:00	6	Velocidad del viento	4.8
157374	7	Sololá	701	Sololá	2	El tablón	5	Mayo	2023-05-31T00:00:00	2024-11-06T16:00:00	7	Dirección del viento	4.83
157375	7	Sololá	701	Sololá	2	El tablón	5	Mayo	2023-05-31T00:00:00	2024-11-06T16:00:00	1	Precipitación	0
157376	7	Sololá	701	Sololá	2	El tablón	5	Mayo	2023-05-31T00:00:00	2024-11-06T16:00:00	8	Radiación solar	136
157377	7	Sololá	701	Sololá	2	El tablón	5	Mayo	2023-05-31T00:00:00	2024-11-06T17:00:00	2	Temperatura media	15.1
157378	7	Sololá	701	Sololá	2	El tablón	5	Mayo	2023-05-31T00:00:00	2024-11-06T17:00:00	4	Temperatura máxima	15.8
157379	7	Sololá	701	Sololá	2	El tablón	5	Mayo	2023-05-31T00:00:00	2024-11-06T17:00:00	3	Temperatura mínima	15.1
157380	7	Sololá	701	Sololá	2	El tablón	5	Mayo	2023-05-31T00:00:00	2024-11-06T17:00:00	5	Humedad	88
157381	7	Sololá	701	Sololá	2	El tablón	5	Mayo	2023-05-31T00:00:00	2024-11-06T17:00:00	6	Velocidad del viento	3.2
157382	7	Sololá	701	Sololá	2	El tablón	5	Mayo	2023-05-31T00:00:00	2024-11-06T17:00:00	7	Dirección del viento	3.22
157383	7	Sololá	701	Sololá	2	El tablón	5	Mayo	2023-05-31T00:00:00	2024-11-06T17:00:00	1	Precipitación	0
157384	7	Sololá	701	Sololá	2	El tablón	5	Mayo	2023-05-31T00:00:00	2024-11-06T17:00:00	8	Radiación solar	37
157385	7	Sololá	701	Sololá	2	El tablón	5	Mayo	2023-05-31T00:00:00	2024-11-06T18:00:00	2	Temperatura media	14.7
157386	7	Sololá	701	Sololá	2	El tablón	5	Mayo	2023-05-31T00:00:00	2024-11-06T18:00:00	4	Temperatura máxima	15.1
157387	7	Sololá	701	Sololá	2	El tablón	5	Mayo	2023-05-31T00:00:00	2024-11-06T18:00:00	3	Temperatura mínima	14.7
157388	7	Sololá	701	Sololá	2	El tablón	5	Mayo	2023-05-31T00:00:00	2024-11-06T18:00:00	5	Humedad	88
157389	7	Sololá	701	Sololá	2	El tablón	5	Mayo	2023-05-31T00:00:00	2024-11-06T18:00:00	6	Velocidad del viento	3.2
157390	7	Sololá	701	Sololá	2	El tablón	5	Mayo	2023-05-31T00:00:00	2024-11-06T18:00:00	7	Dirección del viento	3.22
157391	7	Sololá	701	Sololá	2	El tablón	5	Mayo	2023-05-31T00:00:00	2024-11-06T18:00:00	1	Precipitación	1.4
157392	7	Sololá	701	Sololá	2	El tablón	5	Mayo	2023-05-31T00:00:00	2024-11-06T18:00:00	8	Radiación solar	16
157393	7	Sololá	701	Sololá	2	El tablón	5	Mayo	2023-05-31T00:00:00	2024-11-06T19:00:00	2	Temperatura media	14.2
157394	7	Sololá	701	Sololá	2	El tablón	5	Mayo	2023-05-31T00:00:00	2024-11-06T19:00:00	4	Temperatura máxima	14.7
157395	7	Sololá	701	Sololá	2	El tablón	5	Mayo	2023-05-31T00:00:00	2024-11-06T19:00:00	3	Temperatura mínima	14.2
157396	7	Sololá	701	Sololá	2	El tablón	5	Mayo	2023-05-31T00:00:00	2024-11-06T19:00:00	5	Humedad	88
157397	7	Sololá	701	Sololá	2	El tablón	5	Mayo	2023-05-31T00:00:00	2024-11-06T19:00:00	6	Velocidad del viento	1.6
157398	7	Sololá	701	Sololá	2	El tablón	5	Mayo	2023-05-31T00:00:00	2024-11-06T19:00:00	7	Dirección del viento	1.61
157399	7	Sololá	701	Sololá	2	El tablón	5	Mayo	2023-05-31T00:00:00	2024-11-06T19:00:00	1	Precipitación	0
157400	7	Sololá	701	Sololá	2	El tablón	5	Mayo	2023-05-31T00:00:00	2024-11-06T19:00:00	8	Radiación solar	0
157401	7	Sololá	701	Sololá	2	El tablón	5	Mayo	2023-05-31T00:00:00	2024-11-06T20:00:00	2	Temperatura media	13.9
157402	7	Sololá	701	Sololá	2	El tablón	5	Mayo	2023-05-31T00:00:00	2024-11-06T20:00:00	4	Temperatura máxima	14.2
157403	7	Sololá	701	Sololá	2	El tablón	5	Mayo	2023-05-31T00:00:00	2024-11-06T20:00:00	3	Temperatura mínima	13.9
157404	7	Sololá	701	Sololá	2	El tablón	5	Mayo	2023-05-31T00:00:00	2024-11-06T20:00:00	5	Humedad	88
157405	7	Sololá	701	Sololá	2	El tablón	5	Mayo	2023-05-31T00:00:00	2024-11-06T20:00:00	6	Velocidad del viento	1.6
157406	7	Sololá	701	Sololá	2	El tablón	5	Mayo	2023-05-31T00:00:00	2024-11-06T20:00:00	7	Dirección del viento	1.61
157407	7	Sololá	701	Sololá	2	El tablón	5	Mayo	2023-05-31T00:00:00	2024-11-06T20:00:00	1	Precipitación	0
157408	7	Sololá	701	Sololá	2	El tablón	5	Mayo	2023-05-31T00:00:00	2024-11-06T20:00:00	8	Radiación solar	0
157409	7	Sololá	701	Sololá	2	El tablón	5	Mayo	2023-05-31T00:00:00	2024-11-06T21:00:00	2	Temperatura media	13.9
157410	7	Sololá	701	Sololá	2	El tablón	5	Mayo	2023-05-31T00:00:00	2024-11-06T21:00:00	4	Temperatura máxima	13.9
157411	7	Sololá	701	Sololá	2	El tablón	5	Mayo	2023-05-31T00:00:00	2024-11-06T21:00:00	3	Temperatura mínima	13.8
157412	7	Sololá	701	Sololá	2	El tablón	5	Mayo	2023-05-31T00:00:00	2024-11-06T21:00:00	5	Humedad	88
157413	7	Sololá	701	Sololá	2	El tablón	5	Mayo	2023-05-31T00:00:00	2024-11-06T21:00:00	6	Velocidad del viento	3.2
157414	7	Sololá	701	Sololá	2	El tablón	5	Mayo	2023-05-31T00:00:00	2024-11-06T21:00:00	7	Dirección del viento	3.22
157415	7	Sololá	701	Sololá	2	El tablón	5	Mayo	2023-05-31T00:00:00	2024-11-06T21:00:00	1	Precipitación	0
157416	7	Sololá	701	Sololá	2	El tablón	5	Mayo	2023-05-31T00:00:00	2024-11-06T21:00:00	8	Radiación solar	0
157417	7	Sololá	701	Sololá	2	El tablón	5	Mayo	2023-05-31T00:00:00	2024-11-06T22:00:00	2	Temperatura media	13.7
157418	7	Sololá	701	Sololá	2	El tablón	5	Mayo	2023-05-31T00:00:00	2024-11-06T22:00:00	4	Temperatura máxima	14.1
157419	7	Sololá	701	Sololá	2	El tablón	5	Mayo	2023-05-31T00:00:00	2024-11-06T22:00:00	3	Temperatura mínima	13.7
157420	7	Sololá	701	Sololá	2	El tablón	5	Mayo	2023-05-31T00:00:00	2024-11-06T22:00:00	5	Humedad	89
157421	7	Sololá	701	Sololá	2	El tablón	5	Mayo	2023-05-31T00:00:00	2024-11-06T22:00:00	6	Velocidad del viento	4.8
157422	7	Sololá	701	Sololá	2	El tablón	5	Mayo	2023-05-31T00:00:00	2024-11-06T22:00:00	7	Dirección del viento	4.83
157423	7	Sololá	701	Sololá	2	El tablón	5	Mayo	2023-05-31T00:00:00	2024-11-06T22:00:00	1	Precipitación	0.6
157424	7	Sololá	701	Sololá	2	El tablón	5	Mayo	2023-05-31T00:00:00	2024-11-06T22:00:00	8	Radiación solar	0
157425	7	Sololá	701	Sololá	2	El tablón	5	Mayo	2023-05-31T00:00:00	2024-11-06T23:00:00	2	Temperatura media	13.9
157426	7	Sololá	701	Sololá	2	El tablón	5	Mayo	2023-05-31T00:00:00	2024-11-06T23:00:00	4	Temperatura máxima	14.3
157427	7	Sololá	701	Sololá	2	El tablón	5	Mayo	2023-05-31T00:00:00	2024-11-06T23:00:00	3	Temperatura mínima	13.7
157428	7	Sololá	701	Sololá	2	El tablón	5	Mayo	2023-05-31T00:00:00	2024-11-06T23:00:00	5	Humedad	88
157429	7	Sololá	701	Sololá	2	El tablón	5	Mayo	2023-05-31T00:00:00	2024-11-06T23:00:00	6	Velocidad del viento	3.2
157430	7	Sololá	701	Sololá	2	El tablón	5	Mayo	2023-05-31T00:00:00	2024-11-06T23:00:00	7	Dirección del viento	3.22
157431	7	Sololá	701	Sololá	2	El tablón	5	Mayo	2023-05-31T00:00:00	2024-11-06T23:00:00	1	Precipitación	0
157432	7	Sololá	701	Sololá	2	El tablón	5	Mayo	2023-05-31T00:00:00	2024-11-06T23:00:00	8	Radiación solar	0
157433	7	Sololá	701	Sololá	2	El tablón	6	Junio	2023-01-06T00:00:00	2024-11-06T00:00:00	2	Temperatura media	13.1
157434	7	Sololá	701	Sololá	2	El tablón	6	Junio	2023-01-06T00:00:00	2024-11-06T00:00:00	4	Temperatura máxima	13.9
157435	7	Sololá	701	Sololá	2	El tablón	6	Junio	2023-01-06T00:00:00	2024-11-06T00:00:00	3	Temperatura mínima	13.1
157436	7	Sololá	701	Sololá	2	El tablón	6	Junio	2023-01-06T00:00:00	2024-11-06T00:00:00	5	Humedad	89
157437	7	Sololá	701	Sololá	2	El tablón	6	Junio	2023-01-06T00:00:00	2024-11-06T00:00:00	6	Velocidad del viento	1.6
157438	7	Sololá	701	Sololá	2	El tablón	6	Junio	2023-01-06T00:00:00	2024-11-06T00:00:00	7	Dirección del viento	1.61
157439	7	Sololá	701	Sololá	2	El tablón	6	Junio	2023-01-06T00:00:00	2024-11-06T00:00:00	1	Precipitación	0.2
157440	7	Sololá	701	Sololá	2	El tablón	6	Junio	2023-01-06T00:00:00	2024-11-06T00:00:00	8	Radiación solar	0
157441	7	Sololá	701	Sololá	2	El tablón	6	Junio	2023-01-06T00:00:00	2024-11-06T01:00:00	2	Temperatura media	13.3
157442	7	Sololá	701	Sololá	2	El tablón	6	Junio	2023-01-06T00:00:00	2024-11-06T01:00:00	4	Temperatura máxima	13.4
157443	7	Sololá	701	Sololá	2	El tablón	6	Junio	2023-01-06T00:00:00	2024-11-06T01:00:00	3	Temperatura mínima	13.1
157444	7	Sololá	701	Sololá	2	El tablón	6	Junio	2023-01-06T00:00:00	2024-11-06T01:00:00	5	Humedad	88
157445	7	Sololá	701	Sololá	2	El tablón	6	Junio	2023-01-06T00:00:00	2024-11-06T01:00:00	6	Velocidad del viento	0
157446	7	Sololá	701	Sololá	2	El tablón	6	Junio	2023-01-06T00:00:00	2024-11-06T01:00:00	7	Dirección del viento	0
157447	7	Sololá	701	Sololá	2	El tablón	6	Junio	2023-01-06T00:00:00	2024-11-06T01:00:00	1	Precipitación	0
157448	7	Sololá	701	Sololá	2	El tablón	6	Junio	2023-01-06T00:00:00	2024-11-06T01:00:00	8	Radiación solar	0
157449	7	Sololá	701	Sololá	2	El tablón	6	Junio	2023-01-06T00:00:00	2024-11-06T02:00:00	2	Temperatura media	12.7
157450	7	Sololá	701	Sololá	2	El tablón	6	Junio	2023-01-06T00:00:00	2024-11-06T02:00:00	4	Temperatura máxima	13.3
157451	7	Sololá	701	Sololá	2	El tablón	6	Junio	2023-01-06T00:00:00	2024-11-06T02:00:00	3	Temperatura mínima	12.6
157452	7	Sololá	701	Sololá	2	El tablón	6	Junio	2023-01-06T00:00:00	2024-11-06T02:00:00	5	Humedad	88
157453	7	Sololá	701	Sololá	2	El tablón	6	Junio	2023-01-06T00:00:00	2024-11-06T02:00:00	6	Velocidad del viento	1.6
157454	7	Sololá	701	Sololá	2	El tablón	6	Junio	2023-01-06T00:00:00	2024-11-06T02:00:00	7	Dirección del viento	1.61
157455	7	Sololá	701	Sololá	2	El tablón	6	Junio	2023-01-06T00:00:00	2024-11-06T02:00:00	1	Precipitación	0
157456	7	Sololá	701	Sololá	2	El tablón	6	Junio	2023-01-06T00:00:00	2024-11-06T02:00:00	8	Radiación solar	0
157457	7	Sololá	701	Sololá	2	El tablón	6	Junio	2023-01-06T00:00:00	2024-11-06T03:00:00	2	Temperatura media	12.2
157458	7	Sololá	701	Sololá	2	El tablón	6	Junio	2023-01-06T00:00:00	2024-11-06T03:00:00	4	Temperatura máxima	12.9
157459	7	Sololá	701	Sololá	2	El tablón	6	Junio	2023-01-06T00:00:00	2024-11-06T03:00:00	3	Temperatura mínima	12.1
157460	7	Sololá	701	Sololá	2	El tablón	6	Junio	2023-01-06T00:00:00	2024-11-06T03:00:00	5	Humedad	89
157461	7	Sololá	701	Sololá	2	El tablón	6	Junio	2023-01-06T00:00:00	2024-11-06T03:00:00	6	Velocidad del viento	1.6
157462	7	Sololá	701	Sololá	2	El tablón	6	Junio	2023-01-06T00:00:00	2024-11-06T03:00:00	7	Dirección del viento	1.61
157463	7	Sololá	701	Sololá	2	El tablón	6	Junio	2023-01-06T00:00:00	2024-11-06T03:00:00	1	Precipitación	0
157464	7	Sololá	701	Sololá	2	El tablón	6	Junio	2023-01-06T00:00:00	2024-11-06T03:00:00	8	Radiación solar	0
157465	7	Sololá	701	Sololá	2	El tablón	6	Junio	2023-01-06T00:00:00	2024-11-06T04:00:00	2	Temperatura media	11.4
157466	7	Sololá	701	Sololá	2	El tablón	6	Junio	2023-01-06T00:00:00	2024-11-06T04:00:00	4	Temperatura máxima	12.2
157467	7	Sololá	701	Sololá	2	El tablón	6	Junio	2023-01-06T00:00:00	2024-11-06T04:00:00	3	Temperatura mínima	11.4
157468	7	Sololá	701	Sololá	2	El tablón	6	Junio	2023-01-06T00:00:00	2024-11-06T04:00:00	5	Humedad	89
157469	7	Sololá	701	Sololá	2	El tablón	6	Junio	2023-01-06T00:00:00	2024-11-06T04:00:00	6	Velocidad del viento	1.6
157470	7	Sololá	701	Sololá	2	El tablón	6	Junio	2023-01-06T00:00:00	2024-11-06T04:00:00	7	Dirección del viento	1.61
157471	7	Sololá	701	Sololá	2	El tablón	6	Junio	2023-01-06T00:00:00	2024-11-06T04:00:00	1	Precipitación	0
157472	7	Sololá	701	Sololá	2	El tablón	6	Junio	2023-01-06T00:00:00	2024-11-06T04:00:00	8	Radiación solar	0
157473	7	Sololá	701	Sololá	2	El tablón	6	Junio	2023-01-06T00:00:00	2024-11-06T05:00:00	2	Temperatura media	11.7
157474	7	Sololá	701	Sololá	2	El tablón	6	Junio	2023-01-06T00:00:00	2024-11-06T05:00:00	4	Temperatura máxima	11.7
157475	7	Sololá	701	Sololá	2	El tablón	6	Junio	2023-01-06T00:00:00	2024-11-06T05:00:00	3	Temperatura mínima	11.4
157476	7	Sololá	701	Sololá	2	El tablón	6	Junio	2023-01-06T00:00:00	2024-11-06T05:00:00	5	Humedad	89
157477	7	Sololá	701	Sololá	2	El tablón	6	Junio	2023-01-06T00:00:00	2024-11-06T05:00:00	6	Velocidad del viento	3.2
157478	7	Sololá	701	Sololá	2	El tablón	6	Junio	2023-01-06T00:00:00	2024-11-06T05:00:00	7	Dirección del viento	3.22
157479	7	Sololá	701	Sololá	2	El tablón	6	Junio	2023-01-06T00:00:00	2024-11-06T05:00:00	1	Precipitación	0
157480	7	Sololá	701	Sololá	2	El tablón	6	Junio	2023-01-06T00:00:00	2024-11-06T05:00:00	8	Radiación solar	0
157481	7	Sololá	701	Sololá	2	El tablón	6	Junio	2023-01-06T00:00:00	2024-11-06T06:00:00	2	Temperatura media	11.5
157482	7	Sololá	701	Sololá	2	El tablón	6	Junio	2023-01-06T00:00:00	2024-11-06T06:00:00	4	Temperatura máxima	11.7
157483	7	Sololá	701	Sololá	2	El tablón	6	Junio	2023-01-06T00:00:00	2024-11-06T06:00:00	3	Temperatura mínima	11.4
157484	7	Sololá	701	Sololá	2	El tablón	6	Junio	2023-01-06T00:00:00	2024-11-06T06:00:00	5	Humedad	89
157485	7	Sololá	701	Sololá	2	El tablón	6	Junio	2023-01-06T00:00:00	2024-11-06T06:00:00	6	Velocidad del viento	1.6
157486	7	Sololá	701	Sololá	2	El tablón	6	Junio	2023-01-06T00:00:00	2024-11-06T06:00:00	7	Dirección del viento	1.61
157487	7	Sololá	701	Sololá	2	El tablón	6	Junio	2023-01-06T00:00:00	2024-11-06T06:00:00	1	Precipitación	0
157488	7	Sololá	701	Sololá	2	El tablón	6	Junio	2023-01-06T00:00:00	2024-11-06T06:00:00	8	Radiación solar	10
157489	7	Sololá	701	Sololá	2	El tablón	6	Junio	2023-01-06T00:00:00	2024-11-06T07:00:00	2	Temperatura media	12.2
157490	7	Sololá	701	Sololá	2	El tablón	6	Junio	2023-01-06T00:00:00	2024-11-06T07:00:00	4	Temperatura máxima	12.2
157491	7	Sololá	701	Sololá	2	El tablón	6	Junio	2023-01-06T00:00:00	2024-11-06T07:00:00	3	Temperatura mínima	11.5
157492	7	Sololá	701	Sololá	2	El tablón	6	Junio	2023-01-06T00:00:00	2024-11-06T07:00:00	5	Humedad	89
157493	7	Sololá	701	Sololá	2	El tablón	6	Junio	2023-01-06T00:00:00	2024-11-06T07:00:00	6	Velocidad del viento	1.6
157494	7	Sololá	701	Sololá	2	El tablón	6	Junio	2023-01-06T00:00:00	2024-11-06T07:00:00	7	Dirección del viento	1.61
157495	7	Sololá	701	Sololá	2	El tablón	6	Junio	2023-01-06T00:00:00	2024-11-06T07:00:00	1	Precipitación	0
157496	7	Sololá	701	Sololá	2	El tablón	6	Junio	2023-01-06T00:00:00	2024-11-06T07:00:00	8	Radiación solar	111
157497	7	Sololá	701	Sololá	2	El tablón	6	Junio	2023-01-06T00:00:00	2024-11-06T08:00:00	2	Temperatura media	15.3
157498	7	Sololá	701	Sololá	2	El tablón	6	Junio	2023-01-06T00:00:00	2024-11-06T08:00:00	4	Temperatura máxima	15.3
157499	7	Sololá	701	Sololá	2	El tablón	6	Junio	2023-01-06T00:00:00	2024-11-06T08:00:00	3	Temperatura mínima	12.2
157500	7	Sololá	701	Sololá	2	El tablón	6	Junio	2023-01-06T00:00:00	2024-11-06T08:00:00	5	Humedad	86
157501	7	Sololá	701	Sololá	2	El tablón	6	Junio	2023-01-06T00:00:00	2024-11-06T08:00:00	6	Velocidad del viento	1.6
157502	7	Sololá	701	Sololá	2	El tablón	6	Junio	2023-01-06T00:00:00	2024-11-06T08:00:00	7	Dirección del viento	1.61
157503	7	Sololá	701	Sololá	2	El tablón	6	Junio	2023-01-06T00:00:00	2024-11-06T08:00:00	1	Precipitación	0
157504	7	Sololá	701	Sololá	2	El tablón	6	Junio	2023-01-06T00:00:00	2024-11-06T08:00:00	8	Radiación solar	302
157505	7	Sololá	701	Sololá	2	El tablón	6	Junio	2023-01-06T00:00:00	2024-11-06T09:00:00	2	Temperatura media	16.2
157506	7	Sololá	701	Sololá	2	El tablón	6	Junio	2023-01-06T00:00:00	2024-11-06T09:00:00	4	Temperatura máxima	16.5
157507	7	Sololá	701	Sololá	2	El tablón	6	Junio	2023-01-06T00:00:00	2024-11-06T09:00:00	3	Temperatura mínima	15.3
157508	7	Sololá	701	Sololá	2	El tablón	6	Junio	2023-01-06T00:00:00	2024-11-06T09:00:00	5	Humedad	84
157509	7	Sololá	701	Sololá	2	El tablón	6	Junio	2023-01-06T00:00:00	2024-11-06T09:00:00	6	Velocidad del viento	3.2
157510	7	Sololá	701	Sololá	2	El tablón	6	Junio	2023-01-06T00:00:00	2024-11-06T09:00:00	7	Dirección del viento	3.22
157511	7	Sololá	701	Sololá	2	El tablón	6	Junio	2023-01-06T00:00:00	2024-11-06T09:00:00	1	Precipitación	0
157512	7	Sololá	701	Sololá	2	El tablón	6	Junio	2023-01-06T00:00:00	2024-11-06T09:00:00	8	Radiación solar	500
157513	7	Sololá	701	Sololá	2	El tablón	6	Junio	2023-01-06T00:00:00	2024-11-06T10:00:00	2	Temperatura media	17.7
157514	7	Sololá	701	Sololá	2	El tablón	6	Junio	2023-01-06T00:00:00	2024-11-06T10:00:00	4	Temperatura máxima	17.8
157515	7	Sololá	701	Sololá	2	El tablón	6	Junio	2023-01-06T00:00:00	2024-11-06T10:00:00	3	Temperatura mínima	16.1
157516	7	Sololá	701	Sololá	2	El tablón	6	Junio	2023-01-06T00:00:00	2024-11-06T10:00:00	5	Humedad	81
157517	7	Sololá	701	Sololá	2	El tablón	6	Junio	2023-01-06T00:00:00	2024-11-06T10:00:00	6	Velocidad del viento	4.8
157518	7	Sololá	701	Sololá	2	El tablón	6	Junio	2023-01-06T00:00:00	2024-11-06T10:00:00	7	Dirección del viento	4.83
157519	7	Sololá	701	Sololá	2	El tablón	6	Junio	2023-01-06T00:00:00	2024-11-06T10:00:00	1	Precipitación	0
157520	7	Sololá	701	Sololá	2	El tablón	6	Junio	2023-01-06T00:00:00	2024-11-06T10:00:00	8	Radiación solar	697
157521	7	Sololá	701	Sololá	2	El tablón	6	Junio	2023-01-06T00:00:00	2024-11-06T11:00:00	2	Temperatura media	17.8
157522	7	Sololá	701	Sololá	2	El tablón	6	Junio	2023-01-06T00:00:00	2024-11-06T11:00:00	4	Temperatura máxima	18.3
157523	7	Sololá	701	Sololá	2	El tablón	6	Junio	2023-01-06T00:00:00	2024-11-06T11:00:00	3	Temperatura mínima	17.6
157524	7	Sololá	701	Sololá	2	El tablón	6	Junio	2023-01-06T00:00:00	2024-11-06T11:00:00	5	Humedad	79
157525	7	Sololá	701	Sololá	2	El tablón	6	Junio	2023-01-06T00:00:00	2024-11-06T11:00:00	6	Velocidad del viento	6.4
157526	7	Sololá	701	Sololá	2	El tablón	6	Junio	2023-01-06T00:00:00	2024-11-06T11:00:00	7	Dirección del viento	6.44
157527	7	Sololá	701	Sololá	2	El tablón	6	Junio	2023-01-06T00:00:00	2024-11-06T11:00:00	1	Precipitación	0
157528	7	Sololá	701	Sololá	2	El tablón	6	Junio	2023-01-06T00:00:00	2024-11-06T11:00:00	8	Radiación solar	858
157529	7	Sololá	701	Sololá	2	El tablón	6	Junio	2023-01-06T00:00:00	2024-11-06T12:00:00	2	Temperatura media	18.3
157530	7	Sololá	701	Sololá	2	El tablón	6	Junio	2023-01-06T00:00:00	2024-11-06T12:00:00	4	Temperatura máxima	18.3
157531	7	Sololá	701	Sololá	2	El tablón	6	Junio	2023-01-06T00:00:00	2024-11-06T12:00:00	3	Temperatura mínima	17.8
157532	7	Sololá	701	Sololá	2	El tablón	6	Junio	2023-01-06T00:00:00	2024-11-06T12:00:00	5	Humedad	82
157533	7	Sololá	701	Sololá	2	El tablón	6	Junio	2023-01-06T00:00:00	2024-11-06T12:00:00	6	Velocidad del viento	8
157534	7	Sololá	701	Sololá	2	El tablón	6	Junio	2023-01-06T00:00:00	2024-11-06T12:00:00	7	Dirección del viento	8.05
157535	7	Sololá	701	Sololá	2	El tablón	6	Junio	2023-01-06T00:00:00	2024-11-06T12:00:00	1	Precipitación	0
157536	7	Sololá	701	Sololá	2	El tablón	6	Junio	2023-01-06T00:00:00	2024-11-06T12:00:00	8	Radiación solar	976
157537	7	Sololá	701	Sololá	2	El tablón	6	Junio	2023-01-06T00:00:00	2024-11-06T13:00:00	2	Temperatura media	17.6
157538	7	Sololá	701	Sololá	2	El tablón	6	Junio	2023-01-06T00:00:00	2024-11-06T13:00:00	4	Temperatura máxima	18.8
157539	7	Sololá	701	Sololá	2	El tablón	6	Junio	2023-01-06T00:00:00	2024-11-06T13:00:00	3	Temperatura mínima	17.6
157540	7	Sololá	701	Sololá	2	El tablón	6	Junio	2023-01-06T00:00:00	2024-11-06T13:00:00	5	Humedad	86
157541	7	Sololá	701	Sololá	2	El tablón	6	Junio	2023-01-06T00:00:00	2024-11-06T13:00:00	6	Velocidad del viento	8
157542	7	Sololá	701	Sololá	2	El tablón	6	Junio	2023-01-06T00:00:00	2024-11-06T13:00:00	7	Dirección del viento	8.05
157543	7	Sololá	701	Sololá	2	El tablón	6	Junio	2023-01-06T00:00:00	2024-11-06T13:00:00	1	Precipitación	0
157544	7	Sololá	701	Sololá	2	El tablón	6	Junio	2023-01-06T00:00:00	2024-11-06T13:00:00	8	Radiación solar	764
157545	7	Sololá	701	Sololá	2	El tablón	6	Junio	2023-01-06T00:00:00	2024-11-06T14:00:00	2	Temperatura media	17.4
157546	7	Sololá	701	Sololá	2	El tablón	6	Junio	2023-01-06T00:00:00	2024-11-06T14:00:00	4	Temperatura máxima	18.2
157547	7	Sololá	701	Sololá	2	El tablón	6	Junio	2023-01-06T00:00:00	2024-11-06T14:00:00	3	Temperatura mínima	17.1
157548	7	Sololá	701	Sololá	2	El tablón	6	Junio	2023-01-06T00:00:00	2024-11-06T14:00:00	5	Humedad	87
157549	7	Sololá	701	Sololá	2	El tablón	6	Junio	2023-01-06T00:00:00	2024-11-06T14:00:00	6	Velocidad del viento	8
157550	7	Sololá	701	Sololá	2	El tablón	6	Junio	2023-01-06T00:00:00	2024-11-06T14:00:00	7	Dirección del viento	8.05
157551	7	Sololá	701	Sololá	2	El tablón	6	Junio	2023-01-06T00:00:00	2024-11-06T14:00:00	1	Precipitación	0
157552	7	Sololá	701	Sololá	2	El tablón	6	Junio	2023-01-06T00:00:00	2024-11-06T14:00:00	8	Radiación solar	497
157553	7	Sololá	701	Sololá	2	El tablón	6	Junio	2023-01-06T00:00:00	2024-11-06T15:00:00	2	Temperatura media	17.4
157554	7	Sololá	701	Sololá	2	El tablón	6	Junio	2023-01-06T00:00:00	2024-11-06T15:00:00	4	Temperatura máxima	18.1
157555	7	Sololá	701	Sololá	2	El tablón	6	Junio	2023-01-06T00:00:00	2024-11-06T15:00:00	3	Temperatura mínima	17.3
157556	7	Sololá	701	Sololá	2	El tablón	6	Junio	2023-01-06T00:00:00	2024-11-06T15:00:00	5	Humedad	87
157557	7	Sololá	701	Sololá	2	El tablón	6	Junio	2023-01-06T00:00:00	2024-11-06T15:00:00	6	Velocidad del viento	6.4
157558	7	Sololá	701	Sololá	2	El tablón	6	Junio	2023-01-06T00:00:00	2024-11-06T15:00:00	7	Dirección del viento	6.44
157559	7	Sololá	701	Sololá	2	El tablón	6	Junio	2023-01-06T00:00:00	2024-11-06T15:00:00	1	Precipitación	0
157560	7	Sololá	701	Sololá	2	El tablón	6	Junio	2023-01-06T00:00:00	2024-11-06T15:00:00	8	Radiación solar	422
157561	7	Sololá	701	Sololá	2	El tablón	6	Junio	2023-01-06T00:00:00	2024-11-06T16:00:00	2	Temperatura media	17
157562	7	Sololá	701	Sololá	2	El tablón	6	Junio	2023-01-06T00:00:00	2024-11-06T16:00:00	4	Temperatura máxima	17.6
157563	7	Sololá	701	Sololá	2	El tablón	6	Junio	2023-01-06T00:00:00	2024-11-06T16:00:00	3	Temperatura mínima	16.7
157564	7	Sololá	701	Sololá	2	El tablón	6	Junio	2023-01-06T00:00:00	2024-11-06T16:00:00	5	Humedad	87
157565	7	Sololá	701	Sololá	2	El tablón	6	Junio	2023-01-06T00:00:00	2024-11-06T16:00:00	6	Velocidad del viento	4.8
157566	7	Sololá	701	Sololá	2	El tablón	6	Junio	2023-01-06T00:00:00	2024-11-06T16:00:00	7	Dirección del viento	4.83
157567	7	Sololá	701	Sololá	2	El tablón	6	Junio	2023-01-06T00:00:00	2024-11-06T16:00:00	1	Precipitación	0
157568	7	Sololá	701	Sololá	2	El tablón	6	Junio	2023-01-06T00:00:00	2024-11-06T16:00:00	8	Radiación solar	219
157569	7	Sololá	701	Sololá	2	El tablón	6	Junio	2023-01-06T00:00:00	2024-11-06T17:00:00	2	Temperatura media	16.6
157570	7	Sololá	701	Sololá	2	El tablón	6	Junio	2023-01-06T00:00:00	2024-11-06T17:00:00	4	Temperatura máxima	17
157571	7	Sololá	701	Sololá	2	El tablón	6	Junio	2023-01-06T00:00:00	2024-11-06T17:00:00	3	Temperatura mínima	16.3
157572	7	Sololá	701	Sololá	2	El tablón	6	Junio	2023-01-06T00:00:00	2024-11-06T17:00:00	5	Humedad	88
157573	7	Sololá	701	Sololá	2	El tablón	6	Junio	2023-01-06T00:00:00	2024-11-06T17:00:00	6	Velocidad del viento	3.2
157574	7	Sololá	701	Sololá	2	El tablón	6	Junio	2023-01-06T00:00:00	2024-11-06T17:00:00	7	Dirección del viento	3.22
157575	7	Sololá	701	Sololá	2	El tablón	6	Junio	2023-01-06T00:00:00	2024-11-06T17:00:00	1	Precipitación	0
157576	7	Sololá	701	Sololá	2	El tablón	6	Junio	2023-01-06T00:00:00	2024-11-06T17:00:00	8	Radiación solar	105
157577	7	Sololá	701	Sololá	2	El tablón	6	Junio	2023-01-06T00:00:00	2024-11-06T18:00:00	2	Temperatura media	15.9
157578	7	Sololá	701	Sololá	2	El tablón	6	Junio	2023-01-06T00:00:00	2024-11-06T18:00:00	4	Temperatura máxima	16.7
157579	7	Sololá	701	Sololá	2	El tablón	6	Junio	2023-01-06T00:00:00	2024-11-06T18:00:00	3	Temperatura mínima	15.9
157580	7	Sololá	701	Sololá	2	El tablón	6	Junio	2023-01-06T00:00:00	2024-11-06T18:00:00	5	Humedad	88
157581	7	Sololá	701	Sololá	2	El tablón	6	Junio	2023-01-06T00:00:00	2024-11-06T18:00:00	6	Velocidad del viento	3.2
157582	7	Sololá	701	Sololá	2	El tablón	6	Junio	2023-01-06T00:00:00	2024-11-06T18:00:00	7	Dirección del viento	3.22
157583	7	Sololá	701	Sololá	2	El tablón	6	Junio	2023-01-06T00:00:00	2024-11-06T18:00:00	1	Precipitación	0
157584	7	Sololá	701	Sololá	2	El tablón	6	Junio	2023-01-06T00:00:00	2024-11-06T18:00:00	8	Radiación solar	22
157585	7	Sololá	701	Sololá	2	El tablón	6	Junio	2023-01-06T00:00:00	2024-11-06T19:00:00	2	Temperatura media	15.7
157586	7	Sololá	701	Sololá	2	El tablón	6	Junio	2023-01-06T00:00:00	2024-11-06T19:00:00	4	Temperatura máxima	15.9
157587	7	Sololá	701	Sololá	2	El tablón	6	Junio	2023-01-06T00:00:00	2024-11-06T19:00:00	3	Temperatura mínima	15.7
157588	7	Sololá	701	Sololá	2	El tablón	6	Junio	2023-01-06T00:00:00	2024-11-06T19:00:00	5	Humedad	88
157589	7	Sololá	701	Sololá	2	El tablón	6	Junio	2023-01-06T00:00:00	2024-11-06T19:00:00	6	Velocidad del viento	0
157590	7	Sololá	701	Sololá	2	El tablón	6	Junio	2023-01-06T00:00:00	2024-11-06T19:00:00	7	Dirección del viento	0
157591	7	Sololá	701	Sololá	2	El tablón	6	Junio	2023-01-06T00:00:00	2024-11-06T19:00:00	1	Precipitación	0
157592	7	Sololá	701	Sololá	2	El tablón	6	Junio	2023-01-06T00:00:00	2024-11-06T19:00:00	8	Radiación solar	0
157593	7	Sololá	701	Sololá	2	El tablón	6	Junio	2023-01-06T00:00:00	2024-11-06T20:00:00	2	Temperatura media	15.3
157594	7	Sololá	701	Sololá	2	El tablón	6	Junio	2023-01-06T00:00:00	2024-11-06T20:00:00	4	Temperatura máxima	15.7
157595	7	Sololá	701	Sololá	2	El tablón	6	Junio	2023-01-06T00:00:00	2024-11-06T20:00:00	3	Temperatura mínima	15.3
157596	7	Sololá	701	Sololá	2	El tablón	6	Junio	2023-01-06T00:00:00	2024-11-06T20:00:00	5	Humedad	88
157597	7	Sololá	701	Sololá	2	El tablón	6	Junio	2023-01-06T00:00:00	2024-11-06T20:00:00	6	Velocidad del viento	0
157598	7	Sololá	701	Sololá	2	El tablón	6	Junio	2023-01-06T00:00:00	2024-11-06T20:00:00	7	Dirección del viento	0
157599	7	Sololá	701	Sololá	2	El tablón	6	Junio	2023-01-06T00:00:00	2024-11-06T20:00:00	1	Precipitación	0
157600	7	Sololá	701	Sololá	2	El tablón	6	Junio	2023-01-06T00:00:00	2024-11-06T20:00:00	8	Radiación solar	0
157601	7	Sololá	701	Sololá	2	El tablón	6	Junio	2023-01-06T00:00:00	2024-11-06T21:00:00	2	Temperatura media	15.1
157602	7	Sololá	701	Sololá	2	El tablón	6	Junio	2023-01-06T00:00:00	2024-11-06T21:00:00	4	Temperatura máxima	15.3
157603	7	Sololá	701	Sololá	2	El tablón	6	Junio	2023-01-06T00:00:00	2024-11-06T21:00:00	3	Temperatura mínima	14.9
157604	7	Sololá	701	Sololá	2	El tablón	6	Junio	2023-01-06T00:00:00	2024-11-06T21:00:00	5	Humedad	88
157605	7	Sololá	701	Sololá	2	El tablón	6	Junio	2023-01-06T00:00:00	2024-11-06T21:00:00	6	Velocidad del viento	1.6
157606	7	Sololá	701	Sololá	2	El tablón	6	Junio	2023-01-06T00:00:00	2024-11-06T21:00:00	7	Dirección del viento	1.61
157607	7	Sololá	701	Sololá	2	El tablón	6	Junio	2023-01-06T00:00:00	2024-11-06T21:00:00	1	Precipitación	0
157608	7	Sololá	701	Sololá	2	El tablón	6	Junio	2023-01-06T00:00:00	2024-11-06T21:00:00	8	Radiación solar	0
157609	7	Sololá	701	Sololá	2	El tablón	6	Junio	2023-01-06T00:00:00	2024-11-06T22:00:00	2	Temperatura media	15.1
157610	7	Sololá	701	Sololá	2	El tablón	6	Junio	2023-01-06T00:00:00	2024-11-06T22:00:00	4	Temperatura máxima	15.2
157611	7	Sololá	701	Sololá	2	El tablón	6	Junio	2023-01-06T00:00:00	2024-11-06T22:00:00	3	Temperatura mínima	14.9
157612	7	Sololá	701	Sololá	2	El tablón	6	Junio	2023-01-06T00:00:00	2024-11-06T22:00:00	5	Humedad	88
157613	7	Sololá	701	Sololá	2	El tablón	6	Junio	2023-01-06T00:00:00	2024-11-06T22:00:00	6	Velocidad del viento	1.6
157614	7	Sololá	701	Sololá	2	El tablón	6	Junio	2023-01-06T00:00:00	2024-11-06T22:00:00	7	Dirección del viento	1.61
157615	7	Sololá	701	Sololá	2	El tablón	6	Junio	2023-01-06T00:00:00	2024-11-06T22:00:00	1	Precipitación	0
157616	7	Sololá	701	Sololá	2	El tablón	6	Junio	2023-01-06T00:00:00	2024-11-06T22:00:00	8	Radiación solar	0
157617	7	Sololá	701	Sololá	2	El tablón	6	Junio	2023-01-06T00:00:00	2024-11-06T23:00:00	2	Temperatura media	13.9
157618	7	Sololá	701	Sololá	2	El tablón	6	Junio	2023-01-06T00:00:00	2024-11-06T23:00:00	4	Temperatura máxima	15.1
157619	7	Sololá	701	Sololá	2	El tablón	6	Junio	2023-01-06T00:00:00	2024-11-06T23:00:00	3	Temperatura mínima	13.9
157620	7	Sololá	701	Sololá	2	El tablón	6	Junio	2023-01-06T00:00:00	2024-11-06T23:00:00	5	Humedad	89
157621	7	Sololá	701	Sololá	2	El tablón	6	Junio	2023-01-06T00:00:00	2024-11-06T23:00:00	6	Velocidad del viento	0
157622	7	Sololá	701	Sololá	2	El tablón	6	Junio	2023-01-06T00:00:00	2024-11-06T23:00:00	7	Dirección del viento	0
157623	7	Sololá	701	Sololá	2	El tablón	6	Junio	2023-01-06T00:00:00	2024-11-06T23:00:00	1	Precipitación	0
157624	7	Sololá	701	Sololá	2	El tablón	6	Junio	2023-01-06T00:00:00	2024-11-06T23:00:00	8	Radiación solar	0
157625	7	Sololá	701	Sololá	2	El tablón	6	Junio	2023-02-06T00:00:00	2024-11-06T00:00:00	2	Temperatura media	13.5
157626	7	Sololá	701	Sololá	2	El tablón	6	Junio	2023-02-06T00:00:00	2024-11-06T00:00:00	4	Temperatura máxima	13.9
157627	7	Sololá	701	Sololá	2	El tablón	6	Junio	2023-02-06T00:00:00	2024-11-06T00:00:00	3	Temperatura mínima	13.2
157628	7	Sololá	701	Sololá	2	El tablón	6	Junio	2023-02-06T00:00:00	2024-11-06T00:00:00	5	Humedad	89
157629	7	Sololá	701	Sololá	2	El tablón	6	Junio	2023-02-06T00:00:00	2024-11-06T00:00:00	6	Velocidad del viento	1.6
157630	7	Sololá	701	Sololá	2	El tablón	6	Junio	2023-02-06T00:00:00	2024-11-06T00:00:00	7	Dirección del viento	1.61
157631	7	Sololá	701	Sololá	2	El tablón	6	Junio	2023-02-06T00:00:00	2024-11-06T00:00:00	1	Precipitación	0
157632	7	Sololá	701	Sololá	2	El tablón	6	Junio	2023-02-06T00:00:00	2024-11-06T00:00:00	8	Radiación solar	0
157633	7	Sololá	701	Sololá	2	El tablón	6	Junio	2023-02-06T00:00:00	2024-11-06T01:00:00	2	Temperatura media	13.6
157634	7	Sololá	701	Sololá	2	El tablón	6	Junio	2023-02-06T00:00:00	2024-11-06T01:00:00	4	Temperatura máxima	13.8
157635	7	Sololá	701	Sololá	2	El tablón	6	Junio	2023-02-06T00:00:00	2024-11-06T01:00:00	3	Temperatura mínima	13.4
157636	7	Sololá	701	Sololá	2	El tablón	6	Junio	2023-02-06T00:00:00	2024-11-06T01:00:00	5	Humedad	88
157637	7	Sololá	701	Sololá	2	El tablón	6	Junio	2023-02-06T00:00:00	2024-11-06T01:00:00	6	Velocidad del viento	1.6
157638	7	Sololá	701	Sololá	2	El tablón	6	Junio	2023-02-06T00:00:00	2024-11-06T01:00:00	7	Dirección del viento	1.61
157639	7	Sololá	701	Sololá	2	El tablón	6	Junio	2023-02-06T00:00:00	2024-11-06T01:00:00	1	Precipitación	0
157640	7	Sololá	701	Sololá	2	El tablón	6	Junio	2023-02-06T00:00:00	2024-11-06T01:00:00	8	Radiación solar	0
157641	7	Sololá	701	Sololá	2	El tablón	6	Junio	2023-02-06T00:00:00	2024-11-06T02:00:00	2	Temperatura media	12.4
157642	7	Sololá	701	Sololá	2	El tablón	6	Junio	2023-02-06T00:00:00	2024-11-06T02:00:00	4	Temperatura máxima	13.6
157643	7	Sololá	701	Sololá	2	El tablón	6	Junio	2023-02-06T00:00:00	2024-11-06T02:00:00	3	Temperatura mínima	12.4
157644	7	Sololá	701	Sololá	2	El tablón	6	Junio	2023-02-06T00:00:00	2024-11-06T02:00:00	5	Humedad	89
157645	7	Sololá	701	Sololá	2	El tablón	6	Junio	2023-02-06T00:00:00	2024-11-06T02:00:00	6	Velocidad del viento	1.6
157646	7	Sololá	701	Sololá	2	El tablón	6	Junio	2023-02-06T00:00:00	2024-11-06T02:00:00	7	Dirección del viento	1.61
157647	7	Sololá	701	Sololá	2	El tablón	6	Junio	2023-02-06T00:00:00	2024-11-06T02:00:00	1	Precipitación	0
157648	7	Sololá	701	Sololá	2	El tablón	6	Junio	2023-02-06T00:00:00	2024-11-06T02:00:00	8	Radiación solar	0
157649	7	Sololá	701	Sololá	2	El tablón	6	Junio	2023-02-06T00:00:00	2024-11-06T03:00:00	2	Temperatura media	12.4
157650	7	Sololá	701	Sololá	2	El tablón	6	Junio	2023-02-06T00:00:00	2024-11-06T03:00:00	4	Temperatura máxima	12.4
157651	7	Sololá	701	Sololá	2	El tablón	6	Junio	2023-02-06T00:00:00	2024-11-06T03:00:00	3	Temperatura mínima	12.2
157652	7	Sololá	701	Sololá	2	El tablón	6	Junio	2023-02-06T00:00:00	2024-11-06T03:00:00	5	Humedad	89
157653	7	Sololá	701	Sololá	2	El tablón	6	Junio	2023-02-06T00:00:00	2024-11-06T03:00:00	6	Velocidad del viento	4.8
157654	7	Sololá	701	Sololá	2	El tablón	6	Junio	2023-02-06T00:00:00	2024-11-06T03:00:00	7	Dirección del viento	4.83
157655	7	Sololá	701	Sololá	2	El tablón	6	Junio	2023-02-06T00:00:00	2024-11-06T03:00:00	1	Precipitación	0
157656	7	Sololá	701	Sololá	2	El tablón	6	Junio	2023-02-06T00:00:00	2024-11-06T03:00:00	8	Radiación solar	0
157657	7	Sololá	701	Sololá	2	El tablón	6	Junio	2023-02-06T00:00:00	2024-11-06T04:00:00	2	Temperatura media	11.8
157658	7	Sololá	701	Sololá	2	El tablón	6	Junio	2023-02-06T00:00:00	2024-11-06T04:00:00	4	Temperatura máxima	12.6
157659	7	Sololá	701	Sololá	2	El tablón	6	Junio	2023-02-06T00:00:00	2024-11-06T04:00:00	3	Temperatura mínima	11.8
157660	7	Sololá	701	Sololá	2	El tablón	6	Junio	2023-02-06T00:00:00	2024-11-06T04:00:00	5	Humedad	89
157661	7	Sololá	701	Sololá	2	El tablón	6	Junio	2023-02-06T00:00:00	2024-11-06T04:00:00	6	Velocidad del viento	3.2
157662	7	Sololá	701	Sololá	2	El tablón	6	Junio	2023-02-06T00:00:00	2024-11-06T04:00:00	7	Dirección del viento	3.22
157663	7	Sololá	701	Sololá	2	El tablón	6	Junio	2023-02-06T00:00:00	2024-11-06T04:00:00	1	Precipitación	0
157664	7	Sololá	701	Sololá	2	El tablón	6	Junio	2023-02-06T00:00:00	2024-11-06T04:00:00	8	Radiación solar	0
157665	7	Sololá	701	Sololá	2	El tablón	6	Junio	2023-02-06T00:00:00	2024-11-06T05:00:00	2	Temperatura media	11.6
157666	7	Sololá	701	Sololá	2	El tablón	6	Junio	2023-02-06T00:00:00	2024-11-06T05:00:00	4	Temperatura máxima	12.2
157667	7	Sololá	701	Sololá	2	El tablón	6	Junio	2023-02-06T00:00:00	2024-11-06T05:00:00	3	Temperatura mínima	11.6
157668	7	Sololá	701	Sololá	2	El tablón	6	Junio	2023-02-06T00:00:00	2024-11-06T05:00:00	5	Humedad	89
157669	7	Sololá	701	Sololá	2	El tablón	6	Junio	2023-02-06T00:00:00	2024-11-06T05:00:00	6	Velocidad del viento	3.2
157670	7	Sololá	701	Sololá	2	El tablón	6	Junio	2023-02-06T00:00:00	2024-11-06T05:00:00	7	Dirección del viento	3.22
157671	7	Sololá	701	Sololá	2	El tablón	6	Junio	2023-02-06T00:00:00	2024-11-06T05:00:00	1	Precipitación	0
157672	7	Sololá	701	Sololá	2	El tablón	6	Junio	2023-02-06T00:00:00	2024-11-06T05:00:00	8	Radiación solar	0
157673	7	Sololá	701	Sololá	2	El tablón	6	Junio	2023-02-06T00:00:00	2024-11-06T06:00:00	2	Temperatura media	11.7
157674	7	Sololá	701	Sololá	2	El tablón	6	Junio	2023-02-06T00:00:00	2024-11-06T06:00:00	4	Temperatura máxima	11.7
157675	7	Sololá	701	Sololá	2	El tablón	6	Junio	2023-02-06T00:00:00	2024-11-06T06:00:00	3	Temperatura mínima	11.3
157676	7	Sololá	701	Sololá	2	El tablón	6	Junio	2023-02-06T00:00:00	2024-11-06T06:00:00	5	Humedad	88
157677	7	Sololá	701	Sololá	2	El tablón	6	Junio	2023-02-06T00:00:00	2024-11-06T06:00:00	6	Velocidad del viento	3.2
157678	7	Sololá	701	Sololá	2	El tablón	6	Junio	2023-02-06T00:00:00	2024-11-06T06:00:00	7	Dirección del viento	3.22
157679	7	Sololá	701	Sololá	2	El tablón	6	Junio	2023-02-06T00:00:00	2024-11-06T06:00:00	1	Precipitación	0
157680	7	Sololá	701	Sololá	2	El tablón	6	Junio	2023-02-06T00:00:00	2024-11-06T06:00:00	8	Radiación solar	5
157681	7	Sololá	701	Sololá	2	El tablón	6	Junio	2023-02-06T00:00:00	2024-11-06T07:00:00	2	Temperatura media	14
157682	7	Sololá	701	Sololá	2	El tablón	6	Junio	2023-02-06T00:00:00	2024-11-06T07:00:00	4	Temperatura máxima	14
157683	7	Sololá	701	Sololá	2	El tablón	6	Junio	2023-02-06T00:00:00	2024-11-06T07:00:00	3	Temperatura mínima	11.7
157684	7	Sololá	701	Sololá	2	El tablón	6	Junio	2023-02-06T00:00:00	2024-11-06T07:00:00	5	Humedad	85
157685	7	Sololá	701	Sololá	2	El tablón	6	Junio	2023-02-06T00:00:00	2024-11-06T07:00:00	6	Velocidad del viento	3.2
157686	7	Sololá	701	Sololá	2	El tablón	6	Junio	2023-02-06T00:00:00	2024-11-06T07:00:00	7	Dirección del viento	3.22
157687	7	Sololá	701	Sololá	2	El tablón	6	Junio	2023-02-06T00:00:00	2024-11-06T07:00:00	1	Precipitación	0
157688	7	Sololá	701	Sololá	2	El tablón	6	Junio	2023-02-06T00:00:00	2024-11-06T07:00:00	8	Radiación solar	122
157689	7	Sololá	701	Sololá	2	El tablón	6	Junio	2023-02-06T00:00:00	2024-11-06T08:00:00	2	Temperatura media	16.8
157690	7	Sololá	701	Sololá	2	El tablón	6	Junio	2023-02-06T00:00:00	2024-11-06T08:00:00	4	Temperatura máxima	16.8
157691	7	Sololá	701	Sololá	2	El tablón	6	Junio	2023-02-06T00:00:00	2024-11-06T08:00:00	3	Temperatura mínima	14
157692	7	Sololá	701	Sololá	2	El tablón	6	Junio	2023-02-06T00:00:00	2024-11-06T08:00:00	5	Humedad	77
157693	7	Sololá	701	Sololá	2	El tablón	6	Junio	2023-02-06T00:00:00	2024-11-06T08:00:00	6	Velocidad del viento	0
157694	7	Sololá	701	Sololá	2	El tablón	6	Junio	2023-02-06T00:00:00	2024-11-06T08:00:00	7	Dirección del viento	0
157695	7	Sololá	701	Sololá	2	El tablón	6	Junio	2023-02-06T00:00:00	2024-11-06T08:00:00	1	Precipitación	0
157696	7	Sololá	701	Sololá	2	El tablón	6	Junio	2023-02-06T00:00:00	2024-11-06T08:00:00	8	Radiación solar	333
157697	7	Sololá	701	Sololá	2	El tablón	6	Junio	2023-02-06T00:00:00	2024-11-06T09:00:00	2	Temperatura media	17.8
157698	7	Sololá	701	Sololá	2	El tablón	6	Junio	2023-02-06T00:00:00	2024-11-06T09:00:00	4	Temperatura máxima	18
157699	7	Sololá	701	Sololá	2	El tablón	6	Junio	2023-02-06T00:00:00	2024-11-06T09:00:00	3	Temperatura mínima	16.8
157700	7	Sololá	701	Sololá	2	El tablón	6	Junio	2023-02-06T00:00:00	2024-11-06T09:00:00	5	Humedad	78
157701	7	Sololá	701	Sololá	2	El tablón	6	Junio	2023-02-06T00:00:00	2024-11-06T09:00:00	6	Velocidad del viento	3.2
157702	7	Sololá	701	Sololá	2	El tablón	6	Junio	2023-02-06T00:00:00	2024-11-06T09:00:00	7	Dirección del viento	3.22
157703	7	Sololá	701	Sololá	2	El tablón	6	Junio	2023-02-06T00:00:00	2024-11-06T09:00:00	1	Precipitación	0
157704	7	Sololá	701	Sololá	2	El tablón	6	Junio	2023-02-06T00:00:00	2024-11-06T09:00:00	8	Radiación solar	542
157705	7	Sololá	701	Sololá	2	El tablón	6	Junio	2023-02-06T00:00:00	2024-11-06T10:00:00	2	Temperatura media	18.5
157706	7	Sololá	701	Sololá	2	El tablón	6	Junio	2023-02-06T00:00:00	2024-11-06T10:00:00	4	Temperatura máxima	18.6
157707	7	Sololá	701	Sololá	2	El tablón	6	Junio	2023-02-06T00:00:00	2024-11-06T10:00:00	3	Temperatura mínima	17.8
157708	7	Sololá	701	Sololá	2	El tablón	6	Junio	2023-02-06T00:00:00	2024-11-06T10:00:00	5	Humedad	76
157709	7	Sololá	701	Sololá	2	El tablón	6	Junio	2023-02-06T00:00:00	2024-11-06T10:00:00	6	Velocidad del viento	4.8
157710	7	Sololá	701	Sololá	2	El tablón	6	Junio	2023-02-06T00:00:00	2024-11-06T10:00:00	7	Dirección del viento	4.83
157711	7	Sololá	701	Sololá	2	El tablón	6	Junio	2023-02-06T00:00:00	2024-11-06T10:00:00	1	Precipitación	0
157712	7	Sololá	701	Sololá	2	El tablón	6	Junio	2023-02-06T00:00:00	2024-11-06T10:00:00	8	Radiación solar	728
157713	7	Sololá	701	Sololá	2	El tablón	6	Junio	2023-02-06T00:00:00	2024-11-06T11:00:00	2	Temperatura media	18.1
157714	7	Sololá	701	Sololá	2	El tablón	6	Junio	2023-02-06T00:00:00	2024-11-06T11:00:00	4	Temperatura máxima	18.6
157715	7	Sololá	701	Sololá	2	El tablón	6	Junio	2023-02-06T00:00:00	2024-11-06T11:00:00	3	Temperatura mínima	17.9
157716	7	Sololá	701	Sololá	2	El tablón	6	Junio	2023-02-06T00:00:00	2024-11-06T11:00:00	5	Humedad	83
157717	7	Sololá	701	Sololá	2	El tablón	6	Junio	2023-02-06T00:00:00	2024-11-06T11:00:00	6	Velocidad del viento	8
157718	7	Sololá	701	Sololá	2	El tablón	6	Junio	2023-02-06T00:00:00	2024-11-06T11:00:00	7	Dirección del viento	8.05
157719	7	Sololá	701	Sololá	2	El tablón	6	Junio	2023-02-06T00:00:00	2024-11-06T11:00:00	1	Precipitación	0
157720	7	Sololá	701	Sololá	2	El tablón	6	Junio	2023-02-06T00:00:00	2024-11-06T11:00:00	8	Radiación solar	861
157721	7	Sololá	701	Sololá	2	El tablón	6	Junio	2023-02-06T00:00:00	2024-11-06T12:00:00	2	Temperatura media	18.6
157722	7	Sololá	701	Sololá	2	El tablón	6	Junio	2023-02-06T00:00:00	2024-11-06T12:00:00	4	Temperatura máxima	18.6
157723	7	Sololá	701	Sololá	2	El tablón	6	Junio	2023-02-06T00:00:00	2024-11-06T12:00:00	3	Temperatura mínima	17.6
157724	7	Sololá	701	Sololá	2	El tablón	6	Junio	2023-02-06T00:00:00	2024-11-06T12:00:00	5	Humedad	83
157725	7	Sololá	701	Sololá	2	El tablón	6	Junio	2023-02-06T00:00:00	2024-11-06T12:00:00	6	Velocidad del viento	8
157726	7	Sololá	701	Sololá	2	El tablón	6	Junio	2023-02-06T00:00:00	2024-11-06T12:00:00	7	Dirección del viento	8.05
157727	7	Sololá	701	Sololá	2	El tablón	6	Junio	2023-02-06T00:00:00	2024-11-06T12:00:00	1	Precipitación	0
157728	7	Sololá	701	Sololá	2	El tablón	6	Junio	2023-02-06T00:00:00	2024-11-06T12:00:00	8	Radiación solar	920
157729	7	Sololá	701	Sololá	2	El tablón	6	Junio	2023-02-06T00:00:00	2024-11-06T13:00:00	2	Temperatura media	18
157730	7	Sololá	701	Sololá	2	El tablón	6	Junio	2023-02-06T00:00:00	2024-11-06T13:00:00	4	Temperatura máxima	18.8
157731	7	Sololá	701	Sololá	2	El tablón	6	Junio	2023-02-06T00:00:00	2024-11-06T13:00:00	3	Temperatura mínima	18
157732	7	Sololá	701	Sololá	2	El tablón	6	Junio	2023-02-06T00:00:00	2024-11-06T13:00:00	5	Humedad	84
157733	7	Sololá	701	Sololá	2	El tablón	6	Junio	2023-02-06T00:00:00	2024-11-06T13:00:00	6	Velocidad del viento	8
157734	7	Sololá	701	Sololá	2	El tablón	6	Junio	2023-02-06T00:00:00	2024-11-06T13:00:00	7	Dirección del viento	8.05
157735	7	Sololá	701	Sololá	2	El tablón	6	Junio	2023-02-06T00:00:00	2024-11-06T13:00:00	1	Precipitación	0
157736	7	Sololá	701	Sololá	2	El tablón	6	Junio	2023-02-06T00:00:00	2024-11-06T13:00:00	8	Radiación solar	820
157737	7	Sololá	701	Sololá	2	El tablón	6	Junio	2023-02-06T00:00:00	2024-11-06T14:00:00	2	Temperatura media	18.6
157738	7	Sololá	701	Sololá	2	El tablón	6	Junio	2023-02-06T00:00:00	2024-11-06T14:00:00	4	Temperatura máxima	18.8
157739	7	Sololá	701	Sololá	2	El tablón	6	Junio	2023-02-06T00:00:00	2024-11-06T14:00:00	3	Temperatura mínima	17.8
157740	7	Sololá	701	Sololá	2	El tablón	6	Junio	2023-02-06T00:00:00	2024-11-06T14:00:00	5	Humedad	85
157741	7	Sololá	701	Sololá	2	El tablón	6	Junio	2023-02-06T00:00:00	2024-11-06T14:00:00	6	Velocidad del viento	8
157742	7	Sololá	701	Sololá	2	El tablón	6	Junio	2023-02-06T00:00:00	2024-11-06T14:00:00	7	Dirección del viento	8.05
157743	7	Sololá	701	Sololá	2	El tablón	6	Junio	2023-02-06T00:00:00	2024-11-06T14:00:00	1	Precipitación	0
157744	7	Sololá	701	Sololá	2	El tablón	6	Junio	2023-02-06T00:00:00	2024-11-06T14:00:00	8	Radiación solar	624
157745	7	Sololá	701	Sololá	2	El tablón	6	Junio	2023-02-06T00:00:00	2024-11-06T15:00:00	2	Temperatura media	17.9
157746	7	Sololá	701	Sololá	2	El tablón	6	Junio	2023-02-06T00:00:00	2024-11-06T15:00:00	4	Temperatura máxima	18.7
157747	7	Sololá	701	Sololá	2	El tablón	6	Junio	2023-02-06T00:00:00	2024-11-06T15:00:00	3	Temperatura mínima	17.7
157748	7	Sololá	701	Sololá	2	El tablón	6	Junio	2023-02-06T00:00:00	2024-11-06T15:00:00	5	Humedad	87
157749	7	Sololá	701	Sololá	2	El tablón	6	Junio	2023-02-06T00:00:00	2024-11-06T15:00:00	6	Velocidad del viento	6.4
157750	7	Sololá	701	Sololá	2	El tablón	6	Junio	2023-02-06T00:00:00	2024-11-06T15:00:00	7	Dirección del viento	6.44
157751	7	Sololá	701	Sololá	2	El tablón	6	Junio	2023-02-06T00:00:00	2024-11-06T15:00:00	1	Precipitación	0
157752	7	Sololá	701	Sololá	2	El tablón	6	Junio	2023-02-06T00:00:00	2024-11-06T15:00:00	8	Radiación solar	440
157753	7	Sololá	701	Sololá	2	El tablón	6	Junio	2023-02-06T00:00:00	2024-11-06T16:00:00	2	Temperatura media	16.9
157754	7	Sololá	701	Sololá	2	El tablón	6	Junio	2023-02-06T00:00:00	2024-11-06T16:00:00	4	Temperatura máxima	18.4
157755	7	Sololá	701	Sololá	2	El tablón	6	Junio	2023-02-06T00:00:00	2024-11-06T16:00:00	3	Temperatura mínima	16.9
157756	7	Sololá	701	Sololá	2	El tablón	6	Junio	2023-02-06T00:00:00	2024-11-06T16:00:00	5	Humedad	88
157757	7	Sololá	701	Sololá	2	El tablón	6	Junio	2023-02-06T00:00:00	2024-11-06T16:00:00	6	Velocidad del viento	6.4
157758	7	Sololá	701	Sololá	2	El tablón	6	Junio	2023-02-06T00:00:00	2024-11-06T16:00:00	7	Dirección del viento	6.44
157759	7	Sololá	701	Sololá	2	El tablón	6	Junio	2023-02-06T00:00:00	2024-11-06T16:00:00	1	Precipitación	0
157760	7	Sololá	701	Sololá	2	El tablón	6	Junio	2023-02-06T00:00:00	2024-11-06T16:00:00	8	Radiación solar	208
157761	7	Sololá	701	Sololá	2	El tablón	6	Junio	2023-02-06T00:00:00	2024-11-06T17:00:00	2	Temperatura media	16.7
157762	7	Sololá	701	Sololá	2	El tablón	6	Junio	2023-02-06T00:00:00	2024-11-06T17:00:00	4	Temperatura máxima	16.9
157763	7	Sololá	701	Sololá	2	El tablón	6	Junio	2023-02-06T00:00:00	2024-11-06T17:00:00	3	Temperatura mínima	16.4
157764	7	Sololá	701	Sololá	2	El tablón	6	Junio	2023-02-06T00:00:00	2024-11-06T17:00:00	5	Humedad	88
157765	7	Sololá	701	Sololá	2	El tablón	6	Junio	2023-02-06T00:00:00	2024-11-06T17:00:00	6	Velocidad del viento	3.2
157766	7	Sololá	701	Sololá	2	El tablón	6	Junio	2023-02-06T00:00:00	2024-11-06T17:00:00	7	Dirección del viento	3.22
157767	7	Sololá	701	Sololá	2	El tablón	6	Junio	2023-02-06T00:00:00	2024-11-06T17:00:00	1	Precipitación	0
157768	7	Sololá	701	Sololá	2	El tablón	6	Junio	2023-02-06T00:00:00	2024-11-06T17:00:00	8	Radiación solar	60
157769	7	Sololá	701	Sololá	2	El tablón	6	Junio	2023-02-06T00:00:00	2024-11-06T18:00:00	2	Temperatura media	16.4
157770	7	Sololá	701	Sololá	2	El tablón	6	Junio	2023-02-06T00:00:00	2024-11-06T18:00:00	4	Temperatura máxima	16.8
157771	7	Sololá	701	Sololá	2	El tablón	6	Junio	2023-02-06T00:00:00	2024-11-06T18:00:00	3	Temperatura mínima	16.4
157772	7	Sololá	701	Sololá	2	El tablón	6	Junio	2023-02-06T00:00:00	2024-11-06T18:00:00	5	Humedad	88
157773	7	Sololá	701	Sololá	2	El tablón	6	Junio	2023-02-06T00:00:00	2024-11-06T18:00:00	6	Velocidad del viento	1.6
157774	7	Sololá	701	Sololá	2	El tablón	6	Junio	2023-02-06T00:00:00	2024-11-06T18:00:00	7	Dirección del viento	1.61
157775	7	Sololá	701	Sololá	2	El tablón	6	Junio	2023-02-06T00:00:00	2024-11-06T18:00:00	1	Precipitación	0
157776	7	Sololá	701	Sololá	2	El tablón	6	Junio	2023-02-06T00:00:00	2024-11-06T18:00:00	8	Radiación solar	37
157777	7	Sololá	701	Sololá	2	El tablón	6	Junio	2023-02-06T00:00:00	2024-11-06T19:00:00	2	Temperatura media	16.1
157778	7	Sololá	701	Sololá	2	El tablón	6	Junio	2023-02-06T00:00:00	2024-11-06T19:00:00	4	Temperatura máxima	16.4
157779	7	Sololá	701	Sololá	2	El tablón	6	Junio	2023-02-06T00:00:00	2024-11-06T19:00:00	3	Temperatura mínima	15.9
157780	7	Sololá	701	Sololá	2	El tablón	6	Junio	2023-02-06T00:00:00	2024-11-06T19:00:00	5	Humedad	88
157781	7	Sololá	701	Sololá	2	El tablón	6	Junio	2023-02-06T00:00:00	2024-11-06T19:00:00	6	Velocidad del viento	0
157782	7	Sololá	701	Sololá	2	El tablón	6	Junio	2023-02-06T00:00:00	2024-11-06T19:00:00	7	Dirección del viento	0
157783	7	Sololá	701	Sololá	2	El tablón	6	Junio	2023-02-06T00:00:00	2024-11-06T19:00:00	1	Precipitación	0
157784	7	Sololá	701	Sololá	2	El tablón	6	Junio	2023-02-06T00:00:00	2024-11-06T19:00:00	8	Radiación solar	0
157785	7	Sololá	701	Sololá	2	El tablón	6	Junio	2023-02-06T00:00:00	2024-11-06T20:00:00	2	Temperatura media	16.2
157786	7	Sololá	701	Sololá	2	El tablón	6	Junio	2023-02-06T00:00:00	2024-11-06T20:00:00	4	Temperatura máxima	16.2
157787	7	Sololá	701	Sololá	2	El tablón	6	Junio	2023-02-06T00:00:00	2024-11-06T20:00:00	3	Temperatura mínima	15.8
157788	7	Sololá	701	Sololá	2	El tablón	6	Junio	2023-02-06T00:00:00	2024-11-06T20:00:00	5	Humedad	86
157789	7	Sololá	701	Sololá	2	El tablón	6	Junio	2023-02-06T00:00:00	2024-11-06T20:00:00	6	Velocidad del viento	3.2
157790	7	Sololá	701	Sololá	2	El tablón	6	Junio	2023-02-06T00:00:00	2024-11-06T20:00:00	7	Dirección del viento	3.22
157791	7	Sololá	701	Sololá	2	El tablón	6	Junio	2023-02-06T00:00:00	2024-11-06T20:00:00	1	Precipitación	0
157792	7	Sololá	701	Sololá	2	El tablón	6	Junio	2023-02-06T00:00:00	2024-11-06T20:00:00	8	Radiación solar	0
157793	7	Sololá	701	Sololá	2	El tablón	6	Junio	2023-02-06T00:00:00	2024-11-06T21:00:00	2	Temperatura media	16.3
157794	7	Sololá	701	Sololá	2	El tablón	6	Junio	2023-02-06T00:00:00	2024-11-06T21:00:00	4	Temperatura máxima	16.4
157795	7	Sololá	701	Sololá	2	El tablón	6	Junio	2023-02-06T00:00:00	2024-11-06T21:00:00	3	Temperatura mínima	16.2
157796	7	Sololá	701	Sololá	2	El tablón	6	Junio	2023-02-06T00:00:00	2024-11-06T21:00:00	5	Humedad	86
157797	7	Sololá	701	Sololá	2	El tablón	6	Junio	2023-02-06T00:00:00	2024-11-06T21:00:00	6	Velocidad del viento	3.2
157798	7	Sololá	701	Sololá	2	El tablón	6	Junio	2023-02-06T00:00:00	2024-11-06T21:00:00	7	Dirección del viento	3.22
157799	7	Sololá	701	Sololá	2	El tablón	6	Junio	2023-02-06T00:00:00	2024-11-06T21:00:00	1	Precipitación	0
157800	7	Sololá	701	Sololá	2	El tablón	6	Junio	2023-02-06T00:00:00	2024-11-06T21:00:00	8	Radiación solar	0
157801	7	Sololá	701	Sololá	2	El tablón	6	Junio	2023-02-06T00:00:00	2024-11-06T22:00:00	2	Temperatura media	15.8
157802	7	Sololá	701	Sololá	2	El tablón	6	Junio	2023-02-06T00:00:00	2024-11-06T22:00:00	4	Temperatura máxima	16.3
157803	7	Sololá	701	Sololá	2	El tablón	6	Junio	2023-02-06T00:00:00	2024-11-06T22:00:00	3	Temperatura mínima	15.7
157804	7	Sololá	701	Sololá	2	El tablón	6	Junio	2023-02-06T00:00:00	2024-11-06T22:00:00	5	Humedad	87
157805	7	Sololá	701	Sololá	2	El tablón	6	Junio	2023-02-06T00:00:00	2024-11-06T22:00:00	6	Velocidad del viento	1.6
157806	7	Sololá	701	Sololá	2	El tablón	6	Junio	2023-02-06T00:00:00	2024-11-06T22:00:00	7	Dirección del viento	1.61
157807	7	Sololá	701	Sololá	2	El tablón	6	Junio	2023-02-06T00:00:00	2024-11-06T22:00:00	1	Precipitación	0
157808	7	Sololá	701	Sololá	2	El tablón	6	Junio	2023-02-06T00:00:00	2024-11-06T22:00:00	8	Radiación solar	0
157809	7	Sololá	701	Sololá	2	El tablón	6	Junio	2023-02-06T00:00:00	2024-11-06T23:00:00	2	Temperatura media	15.7
157810	7	Sololá	701	Sololá	2	El tablón	6	Junio	2023-02-06T00:00:00	2024-11-06T23:00:00	4	Temperatura máxima	15.8
157811	7	Sololá	701	Sololá	2	El tablón	6	Junio	2023-02-06T00:00:00	2024-11-06T23:00:00	3	Temperatura mínima	15.6
157812	7	Sololá	701	Sololá	2	El tablón	6	Junio	2023-02-06T00:00:00	2024-11-06T23:00:00	5	Humedad	88
157813	7	Sololá	701	Sololá	2	El tablón	6	Junio	2023-02-06T00:00:00	2024-11-06T23:00:00	6	Velocidad del viento	1.6
157814	7	Sololá	701	Sololá	2	El tablón	6	Junio	2023-02-06T00:00:00	2024-11-06T23:00:00	7	Dirección del viento	1.61
157815	7	Sololá	701	Sololá	2	El tablón	6	Junio	2023-02-06T00:00:00	2024-11-06T23:00:00	1	Precipitación	0
157816	7	Sololá	701	Sololá	2	El tablón	6	Junio	2023-02-06T00:00:00	2024-11-06T23:00:00	8	Radiación solar	0
157817	7	Sololá	701	Sololá	2	El tablón	6	Junio	2023-03-06T00:00:00	2024-11-06T00:00:00	2	Temperatura media	15.3
157818	7	Sololá	701	Sololá	2	El tablón	6	Junio	2023-03-06T00:00:00	2024-11-06T00:00:00	4	Temperatura máxima	15.7
157819	7	Sololá	701	Sololá	2	El tablón	6	Junio	2023-03-06T00:00:00	2024-11-06T00:00:00	3	Temperatura mínima	15.2
157820	7	Sololá	701	Sololá	2	El tablón	6	Junio	2023-03-06T00:00:00	2024-11-06T00:00:00	5	Humedad	87
157821	7	Sololá	701	Sololá	2	El tablón	6	Junio	2023-03-06T00:00:00	2024-11-06T00:00:00	6	Velocidad del viento	1.6
157822	7	Sololá	701	Sololá	2	El tablón	6	Junio	2023-03-06T00:00:00	2024-11-06T00:00:00	7	Dirección del viento	1.61
157823	7	Sololá	701	Sololá	2	El tablón	6	Junio	2023-03-06T00:00:00	2024-11-06T00:00:00	1	Precipitación	0
157824	7	Sololá	701	Sololá	2	El tablón	6	Junio	2023-03-06T00:00:00	2024-11-06T00:00:00	8	Radiación solar	0
157825	7	Sololá	701	Sololá	2	El tablón	6	Junio	2023-03-06T00:00:00	2024-11-06T01:00:00	2	Temperatura media	14.6
157826	7	Sololá	701	Sololá	2	El tablón	6	Junio	2023-03-06T00:00:00	2024-11-06T01:00:00	4	Temperatura máxima	15.3
157827	7	Sololá	701	Sololá	2	El tablón	6	Junio	2023-03-06T00:00:00	2024-11-06T01:00:00	3	Temperatura mínima	14.6
157828	7	Sololá	701	Sololá	2	El tablón	6	Junio	2023-03-06T00:00:00	2024-11-06T01:00:00	5	Humedad	88
157829	7	Sololá	701	Sololá	2	El tablón	6	Junio	2023-03-06T00:00:00	2024-11-06T01:00:00	6	Velocidad del viento	1.6
157830	7	Sololá	701	Sololá	2	El tablón	6	Junio	2023-03-06T00:00:00	2024-11-06T01:00:00	7	Dirección del viento	1.61
157831	7	Sololá	701	Sololá	2	El tablón	6	Junio	2023-03-06T00:00:00	2024-11-06T01:00:00	1	Precipitación	0
157832	7	Sololá	701	Sololá	2	El tablón	6	Junio	2023-03-06T00:00:00	2024-11-06T01:00:00	8	Radiación solar	0
157833	7	Sololá	701	Sololá	2	El tablón	6	Junio	2023-03-06T00:00:00	2024-11-06T02:00:00	2	Temperatura media	14.1
157834	7	Sololá	701	Sololá	2	El tablón	6	Junio	2023-03-06T00:00:00	2024-11-06T02:00:00	4	Temperatura máxima	14.6
157835	7	Sololá	701	Sololá	2	El tablón	6	Junio	2023-03-06T00:00:00	2024-11-06T02:00:00	3	Temperatura mínima	14.1
157836	7	Sololá	701	Sololá	2	El tablón	6	Junio	2023-03-06T00:00:00	2024-11-06T02:00:00	5	Humedad	89
157837	7	Sololá	701	Sololá	2	El tablón	6	Junio	2023-03-06T00:00:00	2024-11-06T02:00:00	6	Velocidad del viento	1.6
157838	7	Sololá	701	Sololá	2	El tablón	6	Junio	2023-03-06T00:00:00	2024-11-06T02:00:00	7	Dirección del viento	1.61
157839	7	Sololá	701	Sololá	2	El tablón	6	Junio	2023-03-06T00:00:00	2024-11-06T02:00:00	1	Precipitación	0
157840	7	Sololá	701	Sololá	2	El tablón	6	Junio	2023-03-06T00:00:00	2024-11-06T02:00:00	8	Radiación solar	0
157841	7	Sololá	701	Sololá	2	El tablón	6	Junio	2023-03-06T00:00:00	2024-11-06T03:00:00	2	Temperatura media	13.1
157842	7	Sololá	701	Sololá	2	El tablón	6	Junio	2023-03-06T00:00:00	2024-11-06T03:00:00	4	Temperatura máxima	14.1
157843	7	Sololá	701	Sololá	2	El tablón	6	Junio	2023-03-06T00:00:00	2024-11-06T03:00:00	3	Temperatura mínima	13.1
157844	7	Sololá	701	Sololá	2	El tablón	6	Junio	2023-03-06T00:00:00	2024-11-06T03:00:00	5	Humedad	89
157845	7	Sololá	701	Sololá	2	El tablón	6	Junio	2023-03-06T00:00:00	2024-11-06T03:00:00	6	Velocidad del viento	1.6
157846	7	Sololá	701	Sololá	2	El tablón	6	Junio	2023-03-06T00:00:00	2024-11-06T03:00:00	7	Dirección del viento	1.61
157847	7	Sololá	701	Sololá	2	El tablón	6	Junio	2023-03-06T00:00:00	2024-11-06T03:00:00	1	Precipitación	0
157848	7	Sololá	701	Sololá	2	El tablón	6	Junio	2023-03-06T00:00:00	2024-11-06T03:00:00	8	Radiación solar	0
157849	7	Sololá	701	Sololá	2	El tablón	6	Junio	2023-03-06T00:00:00	2024-11-06T04:00:00	2	Temperatura media	12.5
157850	7	Sololá	701	Sololá	2	El tablón	6	Junio	2023-03-06T00:00:00	2024-11-06T04:00:00	4	Temperatura máxima	13.1
157851	7	Sololá	701	Sololá	2	El tablón	6	Junio	2023-03-06T00:00:00	2024-11-06T04:00:00	3	Temperatura mínima	12.5
157852	7	Sololá	701	Sololá	2	El tablón	6	Junio	2023-03-06T00:00:00	2024-11-06T04:00:00	5	Humedad	89
157853	7	Sololá	701	Sololá	2	El tablón	6	Junio	2023-03-06T00:00:00	2024-11-06T04:00:00	6	Velocidad del viento	1.6
157854	7	Sololá	701	Sololá	2	El tablón	6	Junio	2023-03-06T00:00:00	2024-11-06T04:00:00	7	Dirección del viento	1.61
157855	7	Sololá	701	Sololá	2	El tablón	6	Junio	2023-03-06T00:00:00	2024-11-06T04:00:00	1	Precipitación	0
157856	7	Sololá	701	Sololá	2	El tablón	6	Junio	2023-03-06T00:00:00	2024-11-06T04:00:00	8	Radiación solar	0
157857	7	Sololá	701	Sololá	2	El tablón	6	Junio	2023-03-06T00:00:00	2024-11-06T05:00:00	2	Temperatura media	12.7
157858	7	Sololá	701	Sololá	2	El tablón	6	Junio	2023-03-06T00:00:00	2024-11-06T05:00:00	4	Temperatura máxima	13.2
157859	7	Sololá	701	Sololá	2	El tablón	6	Junio	2023-03-06T00:00:00	2024-11-06T05:00:00	3	Temperatura mínima	12.5
157860	7	Sololá	701	Sololá	2	El tablón	6	Junio	2023-03-06T00:00:00	2024-11-06T05:00:00	5	Humedad	89
157861	7	Sololá	701	Sololá	2	El tablón	6	Junio	2023-03-06T00:00:00	2024-11-06T05:00:00	6	Velocidad del viento	1.6
157862	7	Sololá	701	Sololá	2	El tablón	6	Junio	2023-03-06T00:00:00	2024-11-06T05:00:00	7	Dirección del viento	1.61
157863	7	Sololá	701	Sololá	2	El tablón	6	Junio	2023-03-06T00:00:00	2024-11-06T05:00:00	1	Precipitación	0
157864	7	Sololá	701	Sololá	2	El tablón	6	Junio	2023-03-06T00:00:00	2024-11-06T05:00:00	8	Radiación solar	0
157865	7	Sololá	701	Sololá	2	El tablón	6	Junio	2023-03-06T00:00:00	2024-11-06T06:00:00	2	Temperatura media	12.7
157866	7	Sololá	701	Sololá	2	El tablón	6	Junio	2023-03-06T00:00:00	2024-11-06T06:00:00	4	Temperatura máxima	12.7
157867	7	Sololá	701	Sololá	2	El tablón	6	Junio	2023-03-06T00:00:00	2024-11-06T06:00:00	3	Temperatura mínima	12.4
157868	7	Sololá	701	Sololá	2	El tablón	6	Junio	2023-03-06T00:00:00	2024-11-06T06:00:00	5	Humedad	89
157869	7	Sololá	701	Sololá	2	El tablón	6	Junio	2023-03-06T00:00:00	2024-11-06T06:00:00	6	Velocidad del viento	1.6
157870	7	Sololá	701	Sololá	2	El tablón	6	Junio	2023-03-06T00:00:00	2024-11-06T06:00:00	7	Dirección del viento	1.61
157871	7	Sololá	701	Sololá	2	El tablón	6	Junio	2023-03-06T00:00:00	2024-11-06T06:00:00	1	Precipitación	0
157872	7	Sololá	701	Sololá	2	El tablón	6	Junio	2023-03-06T00:00:00	2024-11-06T06:00:00	8	Radiación solar	7
157873	7	Sololá	701	Sololá	2	El tablón	6	Junio	2023-03-06T00:00:00	2024-11-06T07:00:00	2	Temperatura media	14.6
157874	7	Sololá	701	Sololá	2	El tablón	6	Junio	2023-03-06T00:00:00	2024-11-06T07:00:00	4	Temperatura máxima	14.6
157875	7	Sololá	701	Sololá	2	El tablón	6	Junio	2023-03-06T00:00:00	2024-11-06T07:00:00	3	Temperatura mínima	12.7
157876	7	Sololá	701	Sololá	2	El tablón	6	Junio	2023-03-06T00:00:00	2024-11-06T07:00:00	5	Humedad	88
157877	7	Sololá	701	Sololá	2	El tablón	6	Junio	2023-03-06T00:00:00	2024-11-06T07:00:00	6	Velocidad del viento	1.6
157878	7	Sololá	701	Sololá	2	El tablón	6	Junio	2023-03-06T00:00:00	2024-11-06T07:00:00	7	Dirección del viento	1.61
157879	7	Sololá	701	Sololá	2	El tablón	6	Junio	2023-03-06T00:00:00	2024-11-06T07:00:00	1	Precipitación	0
157880	7	Sololá	701	Sololá	2	El tablón	6	Junio	2023-03-06T00:00:00	2024-11-06T07:00:00	8	Radiación solar	117
157881	7	Sololá	701	Sololá	2	El tablón	6	Junio	2023-03-06T00:00:00	2024-11-06T08:00:00	2	Temperatura media	17
157882	7	Sololá	701	Sololá	2	El tablón	6	Junio	2023-03-06T00:00:00	2024-11-06T08:00:00	4	Temperatura máxima	17
157883	7	Sololá	701	Sololá	2	El tablón	6	Junio	2023-03-06T00:00:00	2024-11-06T08:00:00	3	Temperatura mínima	14.6
157884	7	Sololá	701	Sololá	2	El tablón	6	Junio	2023-03-06T00:00:00	2024-11-06T08:00:00	5	Humedad	82
157885	7	Sololá	701	Sololá	2	El tablón	6	Junio	2023-03-06T00:00:00	2024-11-06T08:00:00	6	Velocidad del viento	1.6
157886	7	Sololá	701	Sololá	2	El tablón	6	Junio	2023-03-06T00:00:00	2024-11-06T08:00:00	7	Dirección del viento	1.61
157887	7	Sololá	701	Sololá	2	El tablón	6	Junio	2023-03-06T00:00:00	2024-11-06T08:00:00	1	Precipitación	0
157888	7	Sololá	701	Sololá	2	El tablón	6	Junio	2023-03-06T00:00:00	2024-11-06T08:00:00	8	Radiación solar	322
157889	7	Sololá	701	Sololá	2	El tablón	6	Junio	2023-03-06T00:00:00	2024-11-06T09:00:00	2	Temperatura media	18.4
157890	7	Sololá	701	Sololá	2	El tablón	6	Junio	2023-03-06T00:00:00	2024-11-06T09:00:00	4	Temperatura máxima	18.4
157891	7	Sololá	701	Sololá	2	El tablón	6	Junio	2023-03-06T00:00:00	2024-11-06T09:00:00	3	Temperatura mínima	17
157892	7	Sololá	701	Sololá	2	El tablón	6	Junio	2023-03-06T00:00:00	2024-11-06T09:00:00	5	Humedad	80
157893	7	Sololá	701	Sololá	2	El tablón	6	Junio	2023-03-06T00:00:00	2024-11-06T09:00:00	6	Velocidad del viento	3.2
157894	7	Sololá	701	Sololá	2	El tablón	6	Junio	2023-03-06T00:00:00	2024-11-06T09:00:00	7	Dirección del viento	3.22
157895	7	Sololá	701	Sololá	2	El tablón	6	Junio	2023-03-06T00:00:00	2024-11-06T09:00:00	1	Precipitación	0
157896	7	Sololá	701	Sololá	2	El tablón	6	Junio	2023-03-06T00:00:00	2024-11-06T09:00:00	8	Radiación solar	508
157897	7	Sololá	701	Sololá	2	El tablón	6	Junio	2023-03-06T00:00:00	2024-11-06T10:00:00	2	Temperatura media	19.6
157898	7	Sololá	701	Sololá	2	El tablón	6	Junio	2023-03-06T00:00:00	2024-11-06T10:00:00	4	Temperatura máxima	19.6
157899	7	Sololá	701	Sololá	2	El tablón	6	Junio	2023-03-06T00:00:00	2024-11-06T10:00:00	3	Temperatura mínima	17.9
157900	7	Sololá	701	Sololá	2	El tablón	6	Junio	2023-03-06T00:00:00	2024-11-06T10:00:00	5	Humedad	79
157901	7	Sololá	701	Sololá	2	El tablón	6	Junio	2023-03-06T00:00:00	2024-11-06T10:00:00	6	Velocidad del viento	3.2
157902	7	Sololá	701	Sololá	2	El tablón	6	Junio	2023-03-06T00:00:00	2024-11-06T10:00:00	7	Dirección del viento	3.22
157903	7	Sololá	701	Sololá	2	El tablón	6	Junio	2023-03-06T00:00:00	2024-11-06T10:00:00	1	Precipitación	0
157904	7	Sololá	701	Sololá	2	El tablón	6	Junio	2023-03-06T00:00:00	2024-11-06T10:00:00	8	Radiación solar	576
157905	7	Sololá	701	Sololá	2	El tablón	6	Junio	2023-03-06T00:00:00	2024-11-06T11:00:00	2	Temperatura media	18.9
157906	7	Sololá	701	Sololá	2	El tablón	6	Junio	2023-03-06T00:00:00	2024-11-06T11:00:00	4	Temperatura máxima	19.7
157907	7	Sololá	701	Sololá	2	El tablón	6	Junio	2023-03-06T00:00:00	2024-11-06T11:00:00	3	Temperatura mínima	18.9
157908	7	Sololá	701	Sololá	2	El tablón	6	Junio	2023-03-06T00:00:00	2024-11-06T11:00:00	5	Humedad	80
157909	7	Sololá	701	Sololá	2	El tablón	6	Junio	2023-03-06T00:00:00	2024-11-06T11:00:00	6	Velocidad del viento	8
157910	7	Sololá	701	Sololá	2	El tablón	6	Junio	2023-03-06T00:00:00	2024-11-06T11:00:00	7	Dirección del viento	8.05
157911	7	Sololá	701	Sololá	2	El tablón	6	Junio	2023-03-06T00:00:00	2024-11-06T11:00:00	1	Precipitación	0
157912	7	Sololá	701	Sololá	2	El tablón	6	Junio	2023-03-06T00:00:00	2024-11-06T11:00:00	8	Radiación solar	858
157913	7	Sololá	701	Sololá	2	El tablón	6	Junio	2023-03-06T00:00:00	2024-11-06T12:00:00	2	Temperatura media	18.8
157914	7	Sololá	701	Sololá	2	El tablón	6	Junio	2023-03-06T00:00:00	2024-11-06T12:00:00	4	Temperatura máxima	19.6
157915	7	Sololá	701	Sololá	2	El tablón	6	Junio	2023-03-06T00:00:00	2024-11-06T12:00:00	3	Temperatura mínima	18.7
157916	7	Sololá	701	Sololá	2	El tablón	6	Junio	2023-03-06T00:00:00	2024-11-06T12:00:00	5	Humedad	84
157917	7	Sololá	701	Sololá	2	El tablón	6	Junio	2023-03-06T00:00:00	2024-11-06T12:00:00	6	Velocidad del viento	8
157918	7	Sololá	701	Sololá	2	El tablón	6	Junio	2023-03-06T00:00:00	2024-11-06T12:00:00	7	Dirección del viento	8.05
157919	7	Sololá	701	Sololá	2	El tablón	6	Junio	2023-03-06T00:00:00	2024-11-06T12:00:00	1	Precipitación	0
157920	7	Sololá	701	Sololá	2	El tablón	6	Junio	2023-03-06T00:00:00	2024-11-06T12:00:00	8	Radiación solar	935
157921	7	Sololá	701	Sololá	2	El tablón	6	Junio	2023-03-06T00:00:00	2024-11-06T13:00:00	2	Temperatura media	17.8
157922	7	Sololá	701	Sololá	2	El tablón	6	Junio	2023-03-06T00:00:00	2024-11-06T13:00:00	4	Temperatura máxima	19.1
157923	7	Sololá	701	Sololá	2	El tablón	6	Junio	2023-03-06T00:00:00	2024-11-06T13:00:00	3	Temperatura mínima	17.8
157924	7	Sololá	701	Sololá	2	El tablón	6	Junio	2023-03-06T00:00:00	2024-11-06T13:00:00	5	Humedad	87
157925	7	Sololá	701	Sololá	2	El tablón	6	Junio	2023-03-06T00:00:00	2024-11-06T13:00:00	6	Velocidad del viento	8
157926	7	Sololá	701	Sololá	2	El tablón	6	Junio	2023-03-06T00:00:00	2024-11-06T13:00:00	7	Dirección del viento	8.05
157927	7	Sololá	701	Sololá	2	El tablón	6	Junio	2023-03-06T00:00:00	2024-11-06T13:00:00	1	Precipitación	0
157928	7	Sololá	701	Sololá	2	El tablón	6	Junio	2023-03-06T00:00:00	2024-11-06T13:00:00	8	Radiación solar	413
157929	7	Sololá	701	Sololá	2	El tablón	6	Junio	2023-03-06T00:00:00	2024-11-06T14:00:00	2	Temperatura media	18.3
157930	7	Sololá	701	Sololá	2	El tablón	6	Junio	2023-03-06T00:00:00	2024-11-06T14:00:00	4	Temperatura máxima	18.9
157931	7	Sololá	701	Sololá	2	El tablón	6	Junio	2023-03-06T00:00:00	2024-11-06T14:00:00	3	Temperatura mínima	17.8
157932	7	Sololá	701	Sololá	2	El tablón	6	Junio	2023-03-06T00:00:00	2024-11-06T14:00:00	5	Humedad	87
157933	7	Sololá	701	Sololá	2	El tablón	6	Junio	2023-03-06T00:00:00	2024-11-06T14:00:00	6	Velocidad del viento	6.4
157934	7	Sololá	701	Sololá	2	El tablón	6	Junio	2023-03-06T00:00:00	2024-11-06T14:00:00	7	Dirección del viento	6.44
157935	7	Sololá	701	Sololá	2	El tablón	6	Junio	2023-03-06T00:00:00	2024-11-06T14:00:00	1	Precipitación	0
157936	7	Sololá	701	Sololá	2	El tablón	6	Junio	2023-03-06T00:00:00	2024-11-06T14:00:00	8	Radiación solar	401
157937	7	Sololá	701	Sololá	2	El tablón	6	Junio	2023-03-06T00:00:00	2024-11-06T15:00:00	2	Temperatura media	17.9
157938	7	Sololá	701	Sololá	2	El tablón	6	Junio	2023-03-06T00:00:00	2024-11-06T15:00:00	4	Temperatura máxima	18.8
157939	7	Sololá	701	Sololá	2	El tablón	6	Junio	2023-03-06T00:00:00	2024-11-06T15:00:00	3	Temperatura mínima	17.9
157940	7	Sololá	701	Sololá	2	El tablón	6	Junio	2023-03-06T00:00:00	2024-11-06T15:00:00	5	Humedad	87
157941	7	Sololá	701	Sololá	2	El tablón	6	Junio	2023-03-06T00:00:00	2024-11-06T15:00:00	6	Velocidad del viento	6.4
157942	7	Sololá	701	Sololá	2	El tablón	6	Junio	2023-03-06T00:00:00	2024-11-06T15:00:00	7	Dirección del viento	6.44
157943	7	Sololá	701	Sololá	2	El tablón	6	Junio	2023-03-06T00:00:00	2024-11-06T15:00:00	1	Precipitación	0
157944	7	Sololá	701	Sololá	2	El tablón	6	Junio	2023-03-06T00:00:00	2024-11-06T15:00:00	8	Radiación solar	297
157945	7	Sololá	701	Sololá	2	El tablón	6	Junio	2023-03-06T00:00:00	2024-11-06T16:00:00	2	Temperatura media	17.1
157946	7	Sololá	701	Sololá	2	El tablón	6	Junio	2023-03-06T00:00:00	2024-11-06T16:00:00	4	Temperatura máxima	17.9
157947	7	Sololá	701	Sololá	2	El tablón	6	Junio	2023-03-06T00:00:00	2024-11-06T16:00:00	3	Temperatura mínima	17.1
157948	7	Sololá	701	Sololá	2	El tablón	6	Junio	2023-03-06T00:00:00	2024-11-06T16:00:00	5	Humedad	88
157949	7	Sololá	701	Sololá	2	El tablón	6	Junio	2023-03-06T00:00:00	2024-11-06T16:00:00	6	Velocidad del viento	4.8
157950	7	Sololá	701	Sololá	2	El tablón	6	Junio	2023-03-06T00:00:00	2024-11-06T16:00:00	7	Dirección del viento	4.83
157951	7	Sololá	701	Sololá	2	El tablón	6	Junio	2023-03-06T00:00:00	2024-11-06T16:00:00	1	Precipitación	0
157952	7	Sololá	701	Sololá	2	El tablón	6	Junio	2023-03-06T00:00:00	2024-11-06T16:00:00	8	Radiación solar	101
157953	7	Sololá	701	Sololá	2	El tablón	6	Junio	2023-03-06T00:00:00	2024-11-06T17:00:00	2	Temperatura media	16.6
157954	7	Sololá	701	Sololá	2	El tablón	6	Junio	2023-03-06T00:00:00	2024-11-06T17:00:00	4	Temperatura máxima	17.1
157955	7	Sololá	701	Sololá	2	El tablón	6	Junio	2023-03-06T00:00:00	2024-11-06T17:00:00	3	Temperatura mínima	16.6
157956	7	Sololá	701	Sololá	2	El tablón	6	Junio	2023-03-06T00:00:00	2024-11-06T17:00:00	5	Humedad	88
157957	7	Sololá	701	Sololá	2	El tablón	6	Junio	2023-03-06T00:00:00	2024-11-06T17:00:00	6	Velocidad del viento	4.8
157958	7	Sololá	701	Sololá	2	El tablón	6	Junio	2023-03-06T00:00:00	2024-11-06T17:00:00	7	Dirección del viento	4.83
157959	7	Sololá	701	Sololá	2	El tablón	6	Junio	2023-03-06T00:00:00	2024-11-06T17:00:00	1	Precipitación	0
157960	7	Sololá	701	Sololá	2	El tablón	6	Junio	2023-03-06T00:00:00	2024-11-06T17:00:00	8	Radiación solar	45
157961	7	Sololá	701	Sololá	2	El tablón	6	Junio	2023-03-06T00:00:00	2024-11-06T18:00:00	2	Temperatura media	16.2
157962	7	Sololá	701	Sololá	2	El tablón	6	Junio	2023-03-06T00:00:00	2024-11-06T18:00:00	4	Temperatura máxima	16.6
157963	7	Sololá	701	Sololá	2	El tablón	6	Junio	2023-03-06T00:00:00	2024-11-06T18:00:00	3	Temperatura mínima	16.2
157964	7	Sololá	701	Sololá	2	El tablón	6	Junio	2023-03-06T00:00:00	2024-11-06T18:00:00	5	Humedad	88
157965	7	Sololá	701	Sololá	2	El tablón	6	Junio	2023-03-06T00:00:00	2024-11-06T18:00:00	6	Velocidad del viento	3.2
157966	7	Sololá	701	Sololá	2	El tablón	6	Junio	2023-03-06T00:00:00	2024-11-06T18:00:00	7	Dirección del viento	3.22
157967	7	Sololá	701	Sololá	2	El tablón	6	Junio	2023-03-06T00:00:00	2024-11-06T18:00:00	1	Precipitación	0
157968	7	Sololá	701	Sololá	2	El tablón	6	Junio	2023-03-06T00:00:00	2024-11-06T18:00:00	8	Radiación solar	12
157969	7	Sololá	701	Sololá	2	El tablón	6	Junio	2023-03-06T00:00:00	2024-11-06T19:00:00	2	Temperatura media	16.1
157970	7	Sololá	701	Sololá	2	El tablón	6	Junio	2023-03-06T00:00:00	2024-11-06T19:00:00	4	Temperatura máxima	16.2
157971	7	Sololá	701	Sololá	2	El tablón	6	Junio	2023-03-06T00:00:00	2024-11-06T19:00:00	3	Temperatura mínima	16.1
157972	7	Sololá	701	Sololá	2	El tablón	6	Junio	2023-03-06T00:00:00	2024-11-06T19:00:00	5	Humedad	88
157973	7	Sololá	701	Sololá	2	El tablón	6	Junio	2023-03-06T00:00:00	2024-11-06T19:00:00	6	Velocidad del viento	1.6
157974	7	Sololá	701	Sololá	2	El tablón	6	Junio	2023-03-06T00:00:00	2024-11-06T19:00:00	7	Dirección del viento	1.61
157975	7	Sololá	701	Sololá	2	El tablón	6	Junio	2023-03-06T00:00:00	2024-11-06T19:00:00	1	Precipitación	0
157976	7	Sololá	701	Sololá	2	El tablón	6	Junio	2023-03-06T00:00:00	2024-11-06T19:00:00	8	Radiación solar	0
157977	7	Sololá	701	Sololá	2	El tablón	6	Junio	2023-03-06T00:00:00	2024-11-06T20:00:00	2	Temperatura media	15.9
157978	7	Sololá	701	Sololá	2	El tablón	6	Junio	2023-03-06T00:00:00	2024-11-06T20:00:00	4	Temperatura máxima	16.1
157979	7	Sololá	701	Sololá	2	El tablón	6	Junio	2023-03-06T00:00:00	2024-11-06T20:00:00	3	Temperatura mínima	15.9
157980	7	Sololá	701	Sololá	2	El tablón	6	Junio	2023-03-06T00:00:00	2024-11-06T20:00:00	5	Humedad	88
157981	7	Sololá	701	Sololá	2	El tablón	6	Junio	2023-03-06T00:00:00	2024-11-06T20:00:00	6	Velocidad del viento	3.2
157982	7	Sololá	701	Sololá	2	El tablón	6	Junio	2023-03-06T00:00:00	2024-11-06T20:00:00	7	Dirección del viento	3.22
157983	7	Sololá	701	Sololá	2	El tablón	6	Junio	2023-03-06T00:00:00	2024-11-06T20:00:00	1	Precipitación	0
157984	7	Sololá	701	Sololá	2	El tablón	6	Junio	2023-03-06T00:00:00	2024-11-06T20:00:00	8	Radiación solar	0
157985	7	Sololá	701	Sololá	2	El tablón	6	Junio	2023-03-06T00:00:00	2024-11-06T21:00:00	2	Temperatura media	15.6
157986	7	Sololá	701	Sololá	2	El tablón	6	Junio	2023-03-06T00:00:00	2024-11-06T21:00:00	4	Temperatura máxima	15.9
157987	7	Sololá	701	Sololá	2	El tablón	6	Junio	2023-03-06T00:00:00	2024-11-06T21:00:00	3	Temperatura mínima	15.5
157988	7	Sololá	701	Sololá	2	El tablón	6	Junio	2023-03-06T00:00:00	2024-11-06T21:00:00	5	Humedad	88
157989	7	Sololá	701	Sololá	2	El tablón	6	Junio	2023-03-06T00:00:00	2024-11-06T21:00:00	6	Velocidad del viento	1.6
157990	7	Sololá	701	Sololá	2	El tablón	6	Junio	2023-03-06T00:00:00	2024-11-06T21:00:00	7	Dirección del viento	1.61
157991	7	Sololá	701	Sololá	2	El tablón	6	Junio	2023-03-06T00:00:00	2024-11-06T21:00:00	1	Precipitación	0
157992	7	Sololá	701	Sololá	2	El tablón	6	Junio	2023-03-06T00:00:00	2024-11-06T21:00:00	8	Radiación solar	0
157993	7	Sololá	701	Sololá	2	El tablón	6	Junio	2023-03-06T00:00:00	2024-11-06T22:00:00	2	Temperatura media	14.9
157994	7	Sololá	701	Sololá	2	El tablón	6	Junio	2023-03-06T00:00:00	2024-11-06T22:00:00	4	Temperatura máxima	15.6
157995	7	Sololá	701	Sololá	2	El tablón	6	Junio	2023-03-06T00:00:00	2024-11-06T22:00:00	3	Temperatura mínima	14.9
157996	7	Sololá	701	Sololá	2	El tablón	6	Junio	2023-03-06T00:00:00	2024-11-06T22:00:00	5	Humedad	87
157997	7	Sololá	701	Sololá	2	El tablón	6	Junio	2023-03-06T00:00:00	2024-11-06T22:00:00	6	Velocidad del viento	3.2
157998	7	Sololá	701	Sololá	2	El tablón	6	Junio	2023-03-06T00:00:00	2024-11-06T22:00:00	7	Dirección del viento	3.22
157999	7	Sololá	701	Sololá	2	El tablón	6	Junio	2023-03-06T00:00:00	2024-11-06T22:00:00	1	Precipitación	0
158000	7	Sololá	701	Sololá	2	El tablón	6	Junio	2023-03-06T00:00:00	2024-11-06T22:00:00	8	Radiación solar	0
158001	7	Sololá	701	Sololá	2	El tablón	6	Junio	2023-03-06T00:00:00	2024-11-06T23:00:00	2	Temperatura media	14.7
158002	7	Sololá	701	Sololá	2	El tablón	6	Junio	2023-03-06T00:00:00	2024-11-06T23:00:00	4	Temperatura máxima	14.9
158003	7	Sololá	701	Sololá	2	El tablón	6	Junio	2023-03-06T00:00:00	2024-11-06T23:00:00	3	Temperatura mínima	14.7
158004	7	Sololá	701	Sololá	2	El tablón	6	Junio	2023-03-06T00:00:00	2024-11-06T23:00:00	5	Humedad	87
158005	7	Sololá	701	Sololá	2	El tablón	6	Junio	2023-03-06T00:00:00	2024-11-06T23:00:00	6	Velocidad del viento	1.6
158006	7	Sololá	701	Sololá	2	El tablón	6	Junio	2023-03-06T00:00:00	2024-11-06T23:00:00	7	Dirección del viento	1.61
158007	7	Sololá	701	Sololá	2	El tablón	6	Junio	2023-03-06T00:00:00	2024-11-06T23:00:00	1	Precipitación	0
158008	7	Sololá	701	Sololá	2	El tablón	6	Junio	2023-03-06T00:00:00	2024-11-06T23:00:00	8	Radiación solar	0
158009	7	Sololá	701	Sololá	2	El tablón	6	Junio	2023-04-06T00:00:00	2024-11-06T00:00:00	2	Temperatura media	14.6
158010	7	Sololá	701	Sololá	2	El tablón	6	Junio	2023-04-06T00:00:00	2024-11-06T00:00:00	4	Temperatura máxima	14.8
158011	7	Sololá	701	Sololá	2	El tablón	6	Junio	2023-04-06T00:00:00	2024-11-06T00:00:00	3	Temperatura mínima	14.6
158012	7	Sololá	701	Sololá	2	El tablón	6	Junio	2023-04-06T00:00:00	2024-11-06T00:00:00	5	Humedad	87
158013	7	Sololá	701	Sololá	2	El tablón	6	Junio	2023-04-06T00:00:00	2024-11-06T00:00:00	6	Velocidad del viento	1.6
158014	7	Sololá	701	Sololá	2	El tablón	6	Junio	2023-04-06T00:00:00	2024-11-06T00:00:00	7	Dirección del viento	1.61
158015	7	Sololá	701	Sololá	2	El tablón	6	Junio	2023-04-06T00:00:00	2024-11-06T00:00:00	1	Precipitación	0
158016	7	Sololá	701	Sololá	2	El tablón	6	Junio	2023-04-06T00:00:00	2024-11-06T00:00:00	8	Radiación solar	0
158017	7	Sololá	701	Sololá	2	El tablón	6	Junio	2023-04-06T00:00:00	2024-11-06T01:00:00	2	Temperatura media	14.5
158018	7	Sololá	701	Sololá	2	El tablón	6	Junio	2023-04-06T00:00:00	2024-11-06T01:00:00	4	Temperatura máxima	14.6
158019	7	Sololá	701	Sololá	2	El tablón	6	Junio	2023-04-06T00:00:00	2024-11-06T01:00:00	3	Temperatura mínima	14.4
158020	7	Sololá	701	Sololá	2	El tablón	6	Junio	2023-04-06T00:00:00	2024-11-06T01:00:00	5	Humedad	86
158021	7	Sololá	701	Sololá	2	El tablón	6	Junio	2023-04-06T00:00:00	2024-11-06T01:00:00	6	Velocidad del viento	1.6
158022	7	Sololá	701	Sololá	2	El tablón	6	Junio	2023-04-06T00:00:00	2024-11-06T01:00:00	7	Dirección del viento	1.61
158023	7	Sololá	701	Sololá	2	El tablón	6	Junio	2023-04-06T00:00:00	2024-11-06T01:00:00	1	Precipitación	0
158024	7	Sololá	701	Sololá	2	El tablón	6	Junio	2023-04-06T00:00:00	2024-11-06T01:00:00	8	Radiación solar	0
158025	7	Sololá	701	Sololá	2	El tablón	6	Junio	2023-04-06T00:00:00	2024-11-06T02:00:00	2	Temperatura media	14.4
158026	7	Sololá	701	Sololá	2	El tablón	6	Junio	2023-04-06T00:00:00	2024-11-06T02:00:00	4	Temperatura máxima	14.6
158027	7	Sololá	701	Sololá	2	El tablón	6	Junio	2023-04-06T00:00:00	2024-11-06T02:00:00	3	Temperatura mínima	14.3
158028	7	Sololá	701	Sololá	2	El tablón	6	Junio	2023-04-06T00:00:00	2024-11-06T02:00:00	5	Humedad	87
158029	7	Sololá	701	Sololá	2	El tablón	6	Junio	2023-04-06T00:00:00	2024-11-06T02:00:00	6	Velocidad del viento	0
158030	7	Sololá	701	Sololá	2	El tablón	6	Junio	2023-04-06T00:00:00	2024-11-06T02:00:00	7	Dirección del viento	0
158031	7	Sololá	701	Sololá	2	El tablón	6	Junio	2023-04-06T00:00:00	2024-11-06T02:00:00	1	Precipitación	0
158032	7	Sololá	701	Sololá	2	El tablón	6	Junio	2023-04-06T00:00:00	2024-11-06T02:00:00	8	Radiación solar	0
158033	7	Sololá	701	Sololá	2	El tablón	6	Junio	2023-04-06T00:00:00	2024-11-06T03:00:00	2	Temperatura media	14.1
158034	7	Sololá	701	Sololá	2	El tablón	6	Junio	2023-04-06T00:00:00	2024-11-06T03:00:00	4	Temperatura máxima	14.4
158035	7	Sololá	701	Sololá	2	El tablón	6	Junio	2023-04-06T00:00:00	2024-11-06T03:00:00	3	Temperatura mínima	14.1
158036	7	Sololá	701	Sololá	2	El tablón	6	Junio	2023-04-06T00:00:00	2024-11-06T03:00:00	5	Humedad	87
158037	7	Sololá	701	Sololá	2	El tablón	6	Junio	2023-04-06T00:00:00	2024-11-06T03:00:00	6	Velocidad del viento	1.6
158038	7	Sololá	701	Sololá	2	El tablón	6	Junio	2023-04-06T00:00:00	2024-11-06T03:00:00	7	Dirección del viento	1.61
158039	7	Sololá	701	Sololá	2	El tablón	6	Junio	2023-04-06T00:00:00	2024-11-06T03:00:00	1	Precipitación	0
158040	7	Sololá	701	Sololá	2	El tablón	6	Junio	2023-04-06T00:00:00	2024-11-06T03:00:00	8	Radiación solar	0
158041	7	Sololá	701	Sololá	2	El tablón	6	Junio	2023-04-06T00:00:00	2024-11-06T04:00:00	2	Temperatura media	14.2
158042	7	Sololá	701	Sololá	2	El tablón	6	Junio	2023-04-06T00:00:00	2024-11-06T04:00:00	4	Temperatura máxima	14.2
158043	7	Sololá	701	Sololá	2	El tablón	6	Junio	2023-04-06T00:00:00	2024-11-06T04:00:00	3	Temperatura mínima	14.1
158044	7	Sololá	701	Sololá	2	El tablón	6	Junio	2023-04-06T00:00:00	2024-11-06T04:00:00	5	Humedad	88
158045	7	Sololá	701	Sololá	2	El tablón	6	Junio	2023-04-06T00:00:00	2024-11-06T04:00:00	6	Velocidad del viento	0
158046	7	Sololá	701	Sololá	2	El tablón	6	Junio	2023-04-06T00:00:00	2024-11-06T04:00:00	7	Dirección del viento	0
158047	7	Sololá	701	Sololá	2	El tablón	6	Junio	2023-04-06T00:00:00	2024-11-06T04:00:00	1	Precipitación	0
158048	7	Sololá	701	Sololá	2	El tablón	6	Junio	2023-04-06T00:00:00	2024-11-06T04:00:00	8	Radiación solar	0
158049	7	Sololá	701	Sololá	2	El tablón	6	Junio	2023-04-06T00:00:00	2024-11-06T05:00:00	2	Temperatura media	13.6
158050	7	Sololá	701	Sololá	2	El tablón	6	Junio	2023-04-06T00:00:00	2024-11-06T05:00:00	4	Temperatura máxima	14.2
158051	7	Sololá	701	Sololá	2	El tablón	6	Junio	2023-04-06T00:00:00	2024-11-06T05:00:00	3	Temperatura mínima	13.5
158052	7	Sololá	701	Sololá	2	El tablón	6	Junio	2023-04-06T00:00:00	2024-11-06T05:00:00	5	Humedad	89
158053	7	Sololá	701	Sololá	2	El tablón	6	Junio	2023-04-06T00:00:00	2024-11-06T05:00:00	6	Velocidad del viento	0
158054	7	Sololá	701	Sololá	2	El tablón	6	Junio	2023-04-06T00:00:00	2024-11-06T05:00:00	7	Dirección del viento	0
158055	7	Sololá	701	Sololá	2	El tablón	6	Junio	2023-04-06T00:00:00	2024-11-06T05:00:00	1	Precipitación	0
158056	7	Sololá	701	Sololá	2	El tablón	6	Junio	2023-04-06T00:00:00	2024-11-06T05:00:00	8	Radiación solar	0
158057	7	Sololá	701	Sololá	2	El tablón	6	Junio	2023-04-06T00:00:00	2024-11-06T06:00:00	2	Temperatura media	13.3
158058	7	Sololá	701	Sololá	2	El tablón	6	Junio	2023-04-06T00:00:00	2024-11-06T06:00:00	4	Temperatura máxima	13.6
158059	7	Sololá	701	Sololá	2	El tablón	6	Junio	2023-04-06T00:00:00	2024-11-06T06:00:00	3	Temperatura mínima	13.2
158060	7	Sololá	701	Sololá	2	El tablón	6	Junio	2023-04-06T00:00:00	2024-11-06T06:00:00	5	Humedad	89
158061	7	Sololá	701	Sololá	2	El tablón	6	Junio	2023-04-06T00:00:00	2024-11-06T06:00:00	6	Velocidad del viento	1.6
158062	7	Sololá	701	Sololá	2	El tablón	6	Junio	2023-04-06T00:00:00	2024-11-06T06:00:00	7	Dirección del viento	1.61
158063	7	Sololá	701	Sololá	2	El tablón	6	Junio	2023-04-06T00:00:00	2024-11-06T06:00:00	1	Precipitación	0
158064	7	Sololá	701	Sololá	2	El tablón	6	Junio	2023-04-06T00:00:00	2024-11-06T06:00:00	8	Radiación solar	5
158065	7	Sololá	701	Sololá	2	El tablón	6	Junio	2023-04-06T00:00:00	2024-11-06T07:00:00	2	Temperatura media	14.3
158066	7	Sololá	701	Sololá	2	El tablón	6	Junio	2023-04-06T00:00:00	2024-11-06T07:00:00	4	Temperatura máxima	14.3
158067	7	Sololá	701	Sololá	2	El tablón	6	Junio	2023-04-06T00:00:00	2024-11-06T07:00:00	3	Temperatura mínima	13.3
158068	7	Sololá	701	Sololá	2	El tablón	6	Junio	2023-04-06T00:00:00	2024-11-06T07:00:00	5	Humedad	89
158069	7	Sololá	701	Sololá	2	El tablón	6	Junio	2023-04-06T00:00:00	2024-11-06T07:00:00	6	Velocidad del viento	1.6
158070	7	Sololá	701	Sololá	2	El tablón	6	Junio	2023-04-06T00:00:00	2024-11-06T07:00:00	7	Dirección del viento	1.61
158071	7	Sololá	701	Sololá	2	El tablón	6	Junio	2023-04-06T00:00:00	2024-11-06T07:00:00	1	Precipitación	0
158072	7	Sololá	701	Sololá	2	El tablón	6	Junio	2023-04-06T00:00:00	2024-11-06T07:00:00	8	Radiación solar	73
158073	7	Sololá	701	Sololá	2	El tablón	6	Junio	2023-04-06T00:00:00	2024-11-06T08:00:00	2	Temperatura media	15.8
158074	7	Sololá	701	Sololá	2	El tablón	6	Junio	2023-04-06T00:00:00	2024-11-06T08:00:00	4	Temperatura máxima	15.8
158075	7	Sololá	701	Sololá	2	El tablón	6	Junio	2023-04-06T00:00:00	2024-11-06T08:00:00	3	Temperatura mínima	14.2
158076	7	Sololá	701	Sololá	2	El tablón	6	Junio	2023-04-06T00:00:00	2024-11-06T08:00:00	5	Humedad	88
158077	7	Sololá	701	Sololá	2	El tablón	6	Junio	2023-04-06T00:00:00	2024-11-06T08:00:00	6	Velocidad del viento	1.6
158078	7	Sololá	701	Sololá	2	El tablón	6	Junio	2023-04-06T00:00:00	2024-11-06T08:00:00	7	Dirección del viento	1.61
158079	7	Sololá	701	Sololá	2	El tablón	6	Junio	2023-04-06T00:00:00	2024-11-06T08:00:00	1	Precipitación	0
158080	7	Sololá	701	Sololá	2	El tablón	6	Junio	2023-04-06T00:00:00	2024-11-06T08:00:00	8	Radiación solar	219
158081	7	Sololá	701	Sololá	2	El tablón	6	Junio	2023-04-06T00:00:00	2024-11-06T09:00:00	2	Temperatura media	19.2
158082	7	Sololá	701	Sololá	2	El tablón	6	Junio	2023-04-06T00:00:00	2024-11-06T09:00:00	4	Temperatura máxima	19.4
158083	7	Sololá	701	Sololá	2	El tablón	6	Junio	2023-04-06T00:00:00	2024-11-06T09:00:00	3	Temperatura mínima	15.8
158084	7	Sololá	701	Sololá	2	El tablón	6	Junio	2023-04-06T00:00:00	2024-11-06T09:00:00	5	Humedad	74
158085	7	Sololá	701	Sololá	2	El tablón	6	Junio	2023-04-06T00:00:00	2024-11-06T09:00:00	6	Velocidad del viento	1.6
158086	7	Sololá	701	Sololá	2	El tablón	6	Junio	2023-04-06T00:00:00	2024-11-06T09:00:00	7	Dirección del viento	1.61
158087	7	Sololá	701	Sololá	2	El tablón	6	Junio	2023-04-06T00:00:00	2024-11-06T09:00:00	1	Precipitación	0
158088	7	Sololá	701	Sololá	2	El tablón	6	Junio	2023-04-06T00:00:00	2024-11-06T09:00:00	8	Radiación solar	531
158089	7	Sololá	701	Sololá	2	El tablón	6	Junio	2023-04-06T00:00:00	2024-11-06T10:00:00	2	Temperatura media	19.8
158090	7	Sololá	701	Sololá	2	El tablón	6	Junio	2023-04-06T00:00:00	2024-11-06T10:00:00	4	Temperatura máxima	20.2
158091	7	Sololá	701	Sololá	2	El tablón	6	Junio	2023-04-06T00:00:00	2024-11-06T10:00:00	3	Temperatura mínima	19.2
158092	7	Sololá	701	Sololá	2	El tablón	6	Junio	2023-04-06T00:00:00	2024-11-06T10:00:00	5	Humedad	78
158093	7	Sololá	701	Sololá	2	El tablón	6	Junio	2023-04-06T00:00:00	2024-11-06T10:00:00	6	Velocidad del viento	4.8
158094	7	Sololá	701	Sololá	2	El tablón	6	Junio	2023-04-06T00:00:00	2024-11-06T10:00:00	7	Dirección del viento	4.83
158095	7	Sololá	701	Sololá	2	El tablón	6	Junio	2023-04-06T00:00:00	2024-11-06T10:00:00	1	Precipitación	0
158096	7	Sololá	701	Sololá	2	El tablón	6	Junio	2023-04-06T00:00:00	2024-11-06T10:00:00	8	Radiación solar	629
158097	7	Sololá	701	Sololá	2	El tablón	6	Junio	2023-04-06T00:00:00	2024-11-06T11:00:00	2	Temperatura media	19.9
158098	7	Sololá	701	Sololá	2	El tablón	6	Junio	2023-04-06T00:00:00	2024-11-06T11:00:00	4	Temperatura máxima	20
158099	7	Sololá	701	Sololá	2	El tablón	6	Junio	2023-04-06T00:00:00	2024-11-06T11:00:00	3	Temperatura mínima	19.6
158100	7	Sololá	701	Sololá	2	El tablón	6	Junio	2023-04-06T00:00:00	2024-11-06T11:00:00	5	Humedad	74
158101	7	Sololá	701	Sololá	2	El tablón	6	Junio	2023-04-06T00:00:00	2024-11-06T11:00:00	6	Velocidad del viento	8
158102	7	Sololá	701	Sololá	2	El tablón	6	Junio	2023-04-06T00:00:00	2024-11-06T11:00:00	7	Dirección del viento	8.05
158103	7	Sololá	701	Sololá	2	El tablón	6	Junio	2023-04-06T00:00:00	2024-11-06T11:00:00	1	Precipitación	0
158104	7	Sololá	701	Sololá	2	El tablón	6	Junio	2023-04-06T00:00:00	2024-11-06T11:00:00	8	Radiación solar	805
158105	7	Sololá	701	Sololá	2	El tablón	6	Junio	2023-04-06T00:00:00	2024-11-06T12:00:00	2	Temperatura media	19.4
158106	7	Sololá	701	Sololá	2	El tablón	6	Junio	2023-04-06T00:00:00	2024-11-06T12:00:00	4	Temperatura máxima	20.2
158107	7	Sololá	701	Sololá	2	El tablón	6	Junio	2023-04-06T00:00:00	2024-11-06T12:00:00	3	Temperatura mínima	19.1
158108	7	Sololá	701	Sololá	2	El tablón	6	Junio	2023-04-06T00:00:00	2024-11-06T12:00:00	5	Humedad	83
158109	7	Sololá	701	Sololá	2	El tablón	6	Junio	2023-04-06T00:00:00	2024-11-06T12:00:00	6	Velocidad del viento	9.7
158110	7	Sololá	701	Sololá	2	El tablón	6	Junio	2023-04-06T00:00:00	2024-11-06T12:00:00	7	Dirección del viento	9.66
158111	7	Sololá	701	Sololá	2	El tablón	6	Junio	2023-04-06T00:00:00	2024-11-06T12:00:00	1	Precipitación	0
158112	7	Sololá	701	Sololá	2	El tablón	6	Junio	2023-04-06T00:00:00	2024-11-06T12:00:00	8	Radiación solar	925
158113	7	Sololá	701	Sololá	2	El tablón	6	Junio	2023-04-06T00:00:00	2024-11-06T13:00:00	2	Temperatura media	18.2
158114	7	Sololá	701	Sololá	2	El tablón	6	Junio	2023-04-06T00:00:00	2024-11-06T13:00:00	4	Temperatura máxima	19.6
158115	7	Sololá	701	Sololá	2	El tablón	6	Junio	2023-04-06T00:00:00	2024-11-06T13:00:00	3	Temperatura mínima	18.2
158116	7	Sololá	701	Sololá	2	El tablón	6	Junio	2023-04-06T00:00:00	2024-11-06T13:00:00	5	Humedad	86
158117	7	Sololá	701	Sololá	2	El tablón	6	Junio	2023-04-06T00:00:00	2024-11-06T13:00:00	6	Velocidad del viento	8
158118	7	Sololá	701	Sololá	2	El tablón	6	Junio	2023-04-06T00:00:00	2024-11-06T13:00:00	7	Dirección del viento	8.05
158119	7	Sololá	701	Sololá	2	El tablón	6	Junio	2023-04-06T00:00:00	2024-11-06T13:00:00	1	Precipitación	0
158120	7	Sololá	701	Sololá	2	El tablón	6	Junio	2023-04-06T00:00:00	2024-11-06T13:00:00	8	Radiación solar	505
158121	7	Sololá	701	Sololá	2	El tablón	6	Junio	2023-04-06T00:00:00	2024-11-06T14:00:00	2	Temperatura media	17.8
158122	7	Sololá	701	Sololá	2	El tablón	6	Junio	2023-04-06T00:00:00	2024-11-06T14:00:00	4	Temperatura máxima	18.8
158123	7	Sololá	701	Sololá	2	El tablón	6	Junio	2023-04-06T00:00:00	2024-11-06T14:00:00	3	Temperatura mínima	17.8
158124	7	Sololá	701	Sololá	2	El tablón	6	Junio	2023-04-06T00:00:00	2024-11-06T14:00:00	5	Humedad	87
158125	7	Sololá	701	Sololá	2	El tablón	6	Junio	2023-04-06T00:00:00	2024-11-06T14:00:00	6	Velocidad del viento	9.7
158126	7	Sololá	701	Sololá	2	El tablón	6	Junio	2023-04-06T00:00:00	2024-11-06T14:00:00	7	Dirección del viento	9.66
158127	7	Sololá	701	Sololá	2	El tablón	6	Junio	2023-04-06T00:00:00	2024-11-06T14:00:00	1	Precipitación	0
158128	7	Sololá	701	Sololá	2	El tablón	6	Junio	2023-04-06T00:00:00	2024-11-06T14:00:00	8	Radiación solar	560
158129	7	Sololá	701	Sololá	2	El tablón	6	Junio	2023-04-06T00:00:00	2024-11-06T15:00:00	2	Temperatura media	16.3
158130	7	Sololá	701	Sololá	2	El tablón	6	Junio	2023-04-06T00:00:00	2024-11-06T15:00:00	4	Temperatura máxima	17.8
158131	7	Sololá	701	Sololá	2	El tablón	6	Junio	2023-04-06T00:00:00	2024-11-06T15:00:00	3	Temperatura mínima	16.3
158132	7	Sololá	701	Sololá	2	El tablón	6	Junio	2023-04-06T00:00:00	2024-11-06T15:00:00	5	Humedad	88
158133	7	Sololá	701	Sololá	2	El tablón	6	Junio	2023-04-06T00:00:00	2024-11-06T15:00:00	6	Velocidad del viento	6.4
158134	7	Sololá	701	Sololá	2	El tablón	6	Junio	2023-04-06T00:00:00	2024-11-06T15:00:00	7	Dirección del viento	6.44
158135	7	Sololá	701	Sololá	2	El tablón	6	Junio	2023-04-06T00:00:00	2024-11-06T15:00:00	1	Precipitación	0
158136	7	Sololá	701	Sololá	2	El tablón	6	Junio	2023-04-06T00:00:00	2024-11-06T15:00:00	8	Radiación solar	95
158137	7	Sololá	701	Sololá	2	El tablón	6	Junio	2023-04-06T00:00:00	2024-11-06T16:00:00	2	Temperatura media	16.1
158138	7	Sololá	701	Sololá	2	El tablón	6	Junio	2023-04-06T00:00:00	2024-11-06T16:00:00	4	Temperatura máxima	16.3
158139	7	Sololá	701	Sololá	2	El tablón	6	Junio	2023-04-06T00:00:00	2024-11-06T16:00:00	3	Temperatura mínima	16.1
158140	7	Sololá	701	Sololá	2	El tablón	6	Junio	2023-04-06T00:00:00	2024-11-06T16:00:00	5	Humedad	88
158141	7	Sololá	701	Sololá	2	El tablón	6	Junio	2023-04-06T00:00:00	2024-11-06T16:00:00	6	Velocidad del viento	4.8
158142	7	Sololá	701	Sololá	2	El tablón	6	Junio	2023-04-06T00:00:00	2024-11-06T16:00:00	7	Dirección del viento	4.83
158143	7	Sololá	701	Sololá	2	El tablón	6	Junio	2023-04-06T00:00:00	2024-11-06T16:00:00	1	Precipitación	0
158144	7	Sololá	701	Sololá	2	El tablón	6	Junio	2023-04-06T00:00:00	2024-11-06T16:00:00	8	Radiación solar	9
158145	7	Sololá	701	Sololá	2	El tablón	6	Junio	2023-04-06T00:00:00	2024-11-06T17:00:00	2	Temperatura media	15.2
158146	7	Sololá	701	Sololá	2	El tablón	6	Junio	2023-04-06T00:00:00	2024-11-06T17:00:00	4	Temperatura máxima	16.1
158147	7	Sololá	701	Sololá	2	El tablón	6	Junio	2023-04-06T00:00:00	2024-11-06T17:00:00	3	Temperatura mínima	15.2
158148	7	Sololá	701	Sololá	2	El tablón	6	Junio	2023-04-06T00:00:00	2024-11-06T17:00:00	5	Humedad	88
158149	7	Sololá	701	Sololá	2	El tablón	6	Junio	2023-04-06T00:00:00	2024-11-06T17:00:00	6	Velocidad del viento	3.2
158150	7	Sololá	701	Sololá	2	El tablón	6	Junio	2023-04-06T00:00:00	2024-11-06T17:00:00	7	Dirección del viento	3.22
158151	7	Sololá	701	Sololá	2	El tablón	6	Junio	2023-04-06T00:00:00	2024-11-06T17:00:00	1	Precipitación	0
158152	7	Sololá	701	Sololá	2	El tablón	6	Junio	2023-04-06T00:00:00	2024-11-06T17:00:00	8	Radiación solar	5
158153	7	Sololá	701	Sololá	2	El tablón	6	Junio	2023-04-06T00:00:00	2024-11-06T18:00:00	2	Temperatura media	15.2
158154	7	Sololá	701	Sololá	2	El tablón	6	Junio	2023-04-06T00:00:00	2024-11-06T18:00:00	4	Temperatura máxima	15.3
158155	7	Sololá	701	Sololá	2	El tablón	6	Junio	2023-04-06T00:00:00	2024-11-06T18:00:00	3	Temperatura mínima	15.2
158156	7	Sololá	701	Sololá	2	El tablón	6	Junio	2023-04-06T00:00:00	2024-11-06T18:00:00	5	Humedad	88
158157	7	Sololá	701	Sololá	2	El tablón	6	Junio	2023-04-06T00:00:00	2024-11-06T18:00:00	6	Velocidad del viento	4.8
158158	7	Sololá	701	Sololá	2	El tablón	6	Junio	2023-04-06T00:00:00	2024-11-06T18:00:00	7	Dirección del viento	4.83
158159	7	Sololá	701	Sololá	2	El tablón	6	Junio	2023-04-06T00:00:00	2024-11-06T18:00:00	1	Precipitación	0
158160	7	Sololá	701	Sololá	2	El tablón	6	Junio	2023-04-06T00:00:00	2024-11-06T18:00:00	8	Radiación solar	6
158161	7	Sololá	701	Sololá	2	El tablón	6	Junio	2023-04-06T00:00:00	2024-11-06T19:00:00	2	Temperatura media	16.3
158162	7	Sololá	701	Sololá	2	El tablón	6	Junio	2023-04-06T00:00:00	2024-11-06T19:00:00	4	Temperatura máxima	16.7
158163	7	Sololá	701	Sololá	2	El tablón	6	Junio	2023-04-06T00:00:00	2024-11-06T19:00:00	3	Temperatura mínima	14.9
158164	7	Sololá	701	Sololá	2	El tablón	6	Junio	2023-04-06T00:00:00	2024-11-06T19:00:00	5	Humedad	61
158165	7	Sololá	701	Sololá	2	El tablón	6	Junio	2023-04-06T00:00:00	2024-11-06T19:00:00	6	Velocidad del viento	11.3
158166	7	Sololá	701	Sololá	2	El tablón	6	Junio	2023-04-06T00:00:00	2024-11-06T19:00:00	7	Dirección del viento	11.27
158167	7	Sololá	701	Sololá	2	El tablón	6	Junio	2023-04-06T00:00:00	2024-11-06T19:00:00	1	Precipitación	0
158168	7	Sololá	701	Sololá	2	El tablón	6	Junio	2023-04-06T00:00:00	2024-11-06T19:00:00	8	Radiación solar	0
158169	7	Sololá	701	Sololá	2	El tablón	6	Junio	2023-04-06T00:00:00	2024-11-06T20:00:00	2	Temperatura media	14.8
158170	7	Sololá	701	Sololá	2	El tablón	6	Junio	2023-04-06T00:00:00	2024-11-06T20:00:00	4	Temperatura máxima	16.4
158171	7	Sololá	701	Sololá	2	El tablón	6	Junio	2023-04-06T00:00:00	2024-11-06T20:00:00	3	Temperatura mínima	14.8
158172	7	Sololá	701	Sololá	2	El tablón	6	Junio	2023-04-06T00:00:00	2024-11-06T20:00:00	5	Humedad	88
158173	7	Sololá	701	Sololá	2	El tablón	6	Junio	2023-04-06T00:00:00	2024-11-06T20:00:00	6	Velocidad del viento	4.8
158174	7	Sololá	701	Sololá	2	El tablón	6	Junio	2023-04-06T00:00:00	2024-11-06T20:00:00	7	Dirección del viento	4.83
158175	7	Sololá	701	Sololá	2	El tablón	6	Junio	2023-04-06T00:00:00	2024-11-06T20:00:00	1	Precipitación	0
158176	7	Sololá	701	Sololá	2	El tablón	6	Junio	2023-04-06T00:00:00	2024-11-06T20:00:00	8	Radiación solar	0
158177	7	Sololá	701	Sololá	2	El tablón	6	Junio	2023-04-06T00:00:00	2024-11-06T21:00:00	2	Temperatura media	14.2
158178	7	Sololá	701	Sololá	2	El tablón	6	Junio	2023-04-06T00:00:00	2024-11-06T21:00:00	4	Temperatura máxima	14.8
158179	7	Sololá	701	Sololá	2	El tablón	6	Junio	2023-04-06T00:00:00	2024-11-06T21:00:00	3	Temperatura mínima	14.2
158180	7	Sololá	701	Sololá	2	El tablón	6	Junio	2023-04-06T00:00:00	2024-11-06T21:00:00	5	Humedad	88
158181	7	Sololá	701	Sololá	2	El tablón	6	Junio	2023-04-06T00:00:00	2024-11-06T21:00:00	6	Velocidad del viento	1.6
158182	7	Sololá	701	Sololá	2	El tablón	6	Junio	2023-04-06T00:00:00	2024-11-06T21:00:00	7	Dirección del viento	1.61
158183	7	Sololá	701	Sololá	2	El tablón	6	Junio	2023-04-06T00:00:00	2024-11-06T21:00:00	1	Precipitación	0
158184	7	Sololá	701	Sololá	2	El tablón	6	Junio	2023-04-06T00:00:00	2024-11-06T21:00:00	8	Radiación solar	0
158185	7	Sololá	701	Sololá	2	El tablón	6	Junio	2023-04-06T00:00:00	2024-11-06T22:00:00	2	Temperatura media	13.6
158186	7	Sololá	701	Sololá	2	El tablón	6	Junio	2023-04-06T00:00:00	2024-11-06T22:00:00	4	Temperatura máxima	14.2
158187	7	Sololá	701	Sololá	2	El tablón	6	Junio	2023-04-06T00:00:00	2024-11-06T22:00:00	3	Temperatura mínima	13.6
158188	7	Sololá	701	Sololá	2	El tablón	6	Junio	2023-04-06T00:00:00	2024-11-06T22:00:00	5	Humedad	89
158189	7	Sololá	701	Sololá	2	El tablón	6	Junio	2023-04-06T00:00:00	2024-11-06T22:00:00	6	Velocidad del viento	1.6
158190	7	Sololá	701	Sololá	2	El tablón	6	Junio	2023-04-06T00:00:00	2024-11-06T22:00:00	7	Dirección del viento	1.61
158191	7	Sololá	701	Sololá	2	El tablón	6	Junio	2023-04-06T00:00:00	2024-11-06T22:00:00	1	Precipitación	0
158192	7	Sololá	701	Sololá	2	El tablón	6	Junio	2023-04-06T00:00:00	2024-11-06T22:00:00	8	Radiación solar	0
158193	7	Sololá	701	Sololá	2	El tablón	6	Junio	2023-04-06T00:00:00	2024-11-06T23:00:00	2	Temperatura media	13.9
158194	7	Sololá	701	Sololá	2	El tablón	6	Junio	2023-04-06T00:00:00	2024-11-06T23:00:00	4	Temperatura máxima	13.9
158195	7	Sololá	701	Sololá	2	El tablón	6	Junio	2023-04-06T00:00:00	2024-11-06T23:00:00	3	Temperatura mínima	13.1
158196	7	Sololá	701	Sololá	2	El tablón	6	Junio	2023-04-06T00:00:00	2024-11-06T23:00:00	5	Humedad	80
158197	7	Sololá	701	Sololá	2	El tablón	6	Junio	2023-04-06T00:00:00	2024-11-06T23:00:00	6	Velocidad del viento	3.2
158198	7	Sololá	701	Sololá	2	El tablón	6	Junio	2023-04-06T00:00:00	2024-11-06T23:00:00	7	Dirección del viento	3.22
158199	7	Sololá	701	Sololá	2	El tablón	6	Junio	2023-04-06T00:00:00	2024-11-06T23:00:00	1	Precipitación	0
158200	7	Sololá	701	Sololá	2	El tablón	6	Junio	2023-04-06T00:00:00	2024-11-06T23:00:00	8	Radiación solar	0
158201	7	Sololá	701	Sololá	2	El tablón	6	Junio	2023-05-06T00:00:00	2024-11-06T00:00:00	2	Temperatura media	14.7
158202	7	Sololá	701	Sololá	2	El tablón	6	Junio	2023-05-06T00:00:00	2024-11-06T00:00:00	4	Temperatura máxima	14.7
158203	7	Sololá	701	Sololá	2	El tablón	6	Junio	2023-05-06T00:00:00	2024-11-06T00:00:00	3	Temperatura mínima	12.8
158204	7	Sololá	701	Sololá	2	El tablón	6	Junio	2023-05-06T00:00:00	2024-11-06T00:00:00	5	Humedad	78
158205	7	Sololá	701	Sololá	2	El tablón	6	Junio	2023-05-06T00:00:00	2024-11-06T00:00:00	6	Velocidad del viento	4.8
158206	7	Sololá	701	Sololá	2	El tablón	6	Junio	2023-05-06T00:00:00	2024-11-06T00:00:00	7	Dirección del viento	4.83
158207	7	Sololá	701	Sololá	2	El tablón	6	Junio	2023-05-06T00:00:00	2024-11-06T00:00:00	1	Precipitación	0
158208	7	Sololá	701	Sololá	2	El tablón	6	Junio	2023-05-06T00:00:00	2024-11-06T00:00:00	8	Radiación solar	0
158209	7	Sololá	701	Sololá	2	El tablón	6	Junio	2023-05-06T00:00:00	2024-11-06T01:00:00	2	Temperatura media	14.2
158210	7	Sololá	701	Sololá	2	El tablón	6	Junio	2023-05-06T00:00:00	2024-11-06T01:00:00	4	Temperatura máxima	14.7
158211	7	Sololá	701	Sololá	2	El tablón	6	Junio	2023-05-06T00:00:00	2024-11-06T01:00:00	3	Temperatura mínima	13.9
158212	7	Sololá	701	Sololá	2	El tablón	6	Junio	2023-05-06T00:00:00	2024-11-06T01:00:00	5	Humedad	79
158213	7	Sololá	701	Sololá	2	El tablón	6	Junio	2023-05-06T00:00:00	2024-11-06T01:00:00	6	Velocidad del viento	4.8
158214	7	Sololá	701	Sololá	2	El tablón	6	Junio	2023-05-06T00:00:00	2024-11-06T01:00:00	7	Dirección del viento	4.83
158215	7	Sololá	701	Sololá	2	El tablón	6	Junio	2023-05-06T00:00:00	2024-11-06T01:00:00	1	Precipitación	0
158216	7	Sololá	701	Sololá	2	El tablón	6	Junio	2023-05-06T00:00:00	2024-11-06T01:00:00	8	Radiación solar	0
158217	7	Sololá	701	Sololá	2	El tablón	6	Junio	2023-05-06T00:00:00	2024-11-06T02:00:00	2	Temperatura media	12.1
158218	7	Sololá	701	Sololá	2	El tablón	6	Junio	2023-05-06T00:00:00	2024-11-06T02:00:00	4	Temperatura máxima	14.3
158219	7	Sololá	701	Sololá	2	El tablón	6	Junio	2023-05-06T00:00:00	2024-11-06T02:00:00	3	Temperatura mínima	12.1
158220	7	Sololá	701	Sololá	2	El tablón	6	Junio	2023-05-06T00:00:00	2024-11-06T02:00:00	5	Humedad	82
158221	7	Sololá	701	Sololá	2	El tablón	6	Junio	2023-05-06T00:00:00	2024-11-06T02:00:00	6	Velocidad del viento	3.2
158222	7	Sololá	701	Sololá	2	El tablón	6	Junio	2023-05-06T00:00:00	2024-11-06T02:00:00	7	Dirección del viento	3.22
158223	7	Sololá	701	Sololá	2	El tablón	6	Junio	2023-05-06T00:00:00	2024-11-06T02:00:00	1	Precipitación	0
158224	7	Sololá	701	Sololá	2	El tablón	6	Junio	2023-05-06T00:00:00	2024-11-06T02:00:00	8	Radiación solar	0
158225	7	Sololá	701	Sololá	2	El tablón	6	Junio	2023-05-06T00:00:00	2024-11-06T03:00:00	2	Temperatura media	12.3
158226	7	Sololá	701	Sololá	2	El tablón	6	Junio	2023-05-06T00:00:00	2024-11-06T03:00:00	4	Temperatura máxima	12.4
158227	7	Sololá	701	Sololá	2	El tablón	6	Junio	2023-05-06T00:00:00	2024-11-06T03:00:00	3	Temperatura mínima	11.8
158228	7	Sololá	701	Sololá	2	El tablón	6	Junio	2023-05-06T00:00:00	2024-11-06T03:00:00	5	Humedad	79
158229	7	Sololá	701	Sololá	2	El tablón	6	Junio	2023-05-06T00:00:00	2024-11-06T03:00:00	6	Velocidad del viento	3.2
158230	7	Sololá	701	Sololá	2	El tablón	6	Junio	2023-05-06T00:00:00	2024-11-06T03:00:00	7	Dirección del viento	3.22
158231	7	Sololá	701	Sololá	2	El tablón	6	Junio	2023-05-06T00:00:00	2024-11-06T03:00:00	1	Precipitación	0
158232	7	Sololá	701	Sololá	2	El tablón	6	Junio	2023-05-06T00:00:00	2024-11-06T03:00:00	8	Radiación solar	0
158233	7	Sololá	701	Sololá	2	El tablón	6	Junio	2023-05-06T00:00:00	2024-11-06T04:00:00	2	Temperatura media	11.5
158234	7	Sololá	701	Sololá	2	El tablón	6	Junio	2023-05-06T00:00:00	2024-11-06T04:00:00	4	Temperatura máxima	12.4
158235	7	Sololá	701	Sololá	2	El tablón	6	Junio	2023-05-06T00:00:00	2024-11-06T04:00:00	3	Temperatura mínima	11.5
158236	7	Sololá	701	Sololá	2	El tablón	6	Junio	2023-05-06T00:00:00	2024-11-06T04:00:00	5	Humedad	81
158237	7	Sololá	701	Sololá	2	El tablón	6	Junio	2023-05-06T00:00:00	2024-11-06T04:00:00	6	Velocidad del viento	3.2
158238	7	Sololá	701	Sololá	2	El tablón	6	Junio	2023-05-06T00:00:00	2024-11-06T04:00:00	7	Dirección del viento	3.22
158239	7	Sololá	701	Sololá	2	El tablón	6	Junio	2023-05-06T00:00:00	2024-11-06T04:00:00	1	Precipitación	0
158240	7	Sololá	701	Sololá	2	El tablón	6	Junio	2023-05-06T00:00:00	2024-11-06T04:00:00	8	Radiación solar	0
158241	7	Sololá	701	Sololá	2	El tablón	6	Junio	2023-05-06T00:00:00	2024-11-06T05:00:00	2	Temperatura media	11.1
158242	7	Sololá	701	Sololá	2	El tablón	6	Junio	2023-05-06T00:00:00	2024-11-06T05:00:00	4	Temperatura máxima	11.8
158243	7	Sololá	701	Sololá	2	El tablón	6	Junio	2023-05-06T00:00:00	2024-11-06T05:00:00	3	Temperatura mínima	10.7
158244	7	Sololá	701	Sololá	2	El tablón	6	Junio	2023-05-06T00:00:00	2024-11-06T05:00:00	5	Humedad	84
158245	7	Sololá	701	Sololá	2	El tablón	6	Junio	2023-05-06T00:00:00	2024-11-06T05:00:00	6	Velocidad del viento	4.8
158246	7	Sololá	701	Sololá	2	El tablón	6	Junio	2023-05-06T00:00:00	2024-11-06T05:00:00	7	Dirección del viento	4.83
158247	7	Sololá	701	Sololá	2	El tablón	6	Junio	2023-05-06T00:00:00	2024-11-06T05:00:00	1	Precipitación	0
158248	7	Sololá	701	Sololá	2	El tablón	6	Junio	2023-05-06T00:00:00	2024-11-06T05:00:00	8	Radiación solar	0
158249	7	Sololá	701	Sololá	2	El tablón	6	Junio	2023-05-06T00:00:00	2024-11-06T06:00:00	2	Temperatura media	11.6
158250	7	Sololá	701	Sololá	2	El tablón	6	Junio	2023-05-06T00:00:00	2024-11-06T06:00:00	4	Temperatura máxima	11.6
158251	7	Sololá	701	Sololá	2	El tablón	6	Junio	2023-05-06T00:00:00	2024-11-06T06:00:00	3	Temperatura mínima	10.9
158252	7	Sololá	701	Sololá	2	El tablón	6	Junio	2023-05-06T00:00:00	2024-11-06T06:00:00	5	Humedad	84
158253	7	Sololá	701	Sololá	2	El tablón	6	Junio	2023-05-06T00:00:00	2024-11-06T06:00:00	6	Velocidad del viento	3.2
158254	7	Sololá	701	Sololá	2	El tablón	6	Junio	2023-05-06T00:00:00	2024-11-06T06:00:00	7	Dirección del viento	3.22
158255	7	Sololá	701	Sololá	2	El tablón	6	Junio	2023-05-06T00:00:00	2024-11-06T06:00:00	1	Precipitación	0
158256	7	Sololá	701	Sololá	2	El tablón	6	Junio	2023-05-06T00:00:00	2024-11-06T06:00:00	8	Radiación solar	4
158257	7	Sololá	701	Sololá	2	El tablón	6	Junio	2023-05-06T00:00:00	2024-11-06T07:00:00	2	Temperatura media	14.1
158258	7	Sololá	701	Sololá	2	El tablón	6	Junio	2023-05-06T00:00:00	2024-11-06T07:00:00	4	Temperatura máxima	14.1
158259	7	Sololá	701	Sololá	2	El tablón	6	Junio	2023-05-06T00:00:00	2024-11-06T07:00:00	3	Temperatura mínima	11.6
158260	7	Sololá	701	Sololá	2	El tablón	6	Junio	2023-05-06T00:00:00	2024-11-06T07:00:00	5	Humedad	80
158261	7	Sololá	701	Sololá	2	El tablón	6	Junio	2023-05-06T00:00:00	2024-11-06T07:00:00	6	Velocidad del viento	1.6
158262	7	Sololá	701	Sololá	2	El tablón	6	Junio	2023-05-06T00:00:00	2024-11-06T07:00:00	7	Dirección del viento	1.61
158263	7	Sololá	701	Sololá	2	El tablón	6	Junio	2023-05-06T00:00:00	2024-11-06T07:00:00	1	Precipitación	0
158264	7	Sololá	701	Sololá	2	El tablón	6	Junio	2023-05-06T00:00:00	2024-11-06T07:00:00	8	Radiación solar	132
158265	7	Sololá	701	Sololá	2	El tablón	6	Junio	2023-05-06T00:00:00	2024-11-06T08:00:00	2	Temperatura media	16.5
158266	7	Sololá	701	Sololá	2	El tablón	6	Junio	2023-05-06T00:00:00	2024-11-06T08:00:00	4	Temperatura máxima	16.5
158267	7	Sololá	701	Sololá	2	El tablón	6	Junio	2023-05-06T00:00:00	2024-11-06T08:00:00	3	Temperatura mínima	14.2
158268	7	Sololá	701	Sololá	2	El tablón	6	Junio	2023-05-06T00:00:00	2024-11-06T08:00:00	5	Humedad	72
158269	7	Sololá	701	Sololá	2	El tablón	6	Junio	2023-05-06T00:00:00	2024-11-06T08:00:00	6	Velocidad del viento	1.6
158270	7	Sololá	701	Sololá	2	El tablón	6	Junio	2023-05-06T00:00:00	2024-11-06T08:00:00	7	Dirección del viento	1.61
158271	7	Sololá	701	Sololá	2	El tablón	6	Junio	2023-05-06T00:00:00	2024-11-06T08:00:00	1	Precipitación	0
158272	7	Sololá	701	Sololá	2	El tablón	6	Junio	2023-05-06T00:00:00	2024-11-06T08:00:00	8	Radiación solar	333
158273	7	Sololá	701	Sololá	2	El tablón	6	Junio	2023-05-06T00:00:00	2024-11-06T09:00:00	2	Temperatura media	16.8
158274	7	Sololá	701	Sololá	2	El tablón	6	Junio	2023-05-06T00:00:00	2024-11-06T09:00:00	4	Temperatura máxima	17.1
158275	7	Sololá	701	Sololá	2	El tablón	6	Junio	2023-05-06T00:00:00	2024-11-06T09:00:00	3	Temperatura mínima	16.5
158276	7	Sololá	701	Sololá	2	El tablón	6	Junio	2023-05-06T00:00:00	2024-11-06T09:00:00	5	Humedad	73
158277	7	Sololá	701	Sololá	2	El tablón	6	Junio	2023-05-06T00:00:00	2024-11-06T09:00:00	6	Velocidad del viento	4.8
158278	7	Sololá	701	Sololá	2	El tablón	6	Junio	2023-05-06T00:00:00	2024-11-06T09:00:00	7	Dirección del viento	4.83
158279	7	Sololá	701	Sololá	2	El tablón	6	Junio	2023-05-06T00:00:00	2024-11-06T09:00:00	1	Precipitación	0
158280	7	Sololá	701	Sololá	2	El tablón	6	Junio	2023-05-06T00:00:00	2024-11-06T09:00:00	8	Radiación solar	484
158281	7	Sololá	701	Sololá	2	El tablón	6	Junio	2023-05-06T00:00:00	2024-11-06T10:00:00	2	Temperatura media	17.3
158282	7	Sololá	701	Sololá	2	El tablón	6	Junio	2023-05-06T00:00:00	2024-11-06T10:00:00	4	Temperatura máxima	19.4
158283	7	Sololá	701	Sololá	2	El tablón	6	Junio	2023-05-06T00:00:00	2024-11-06T10:00:00	3	Temperatura mínima	16.5
158284	7	Sololá	701	Sololá	2	El tablón	6	Junio	2023-05-06T00:00:00	2024-11-06T10:00:00	5	Humedad	76
158285	7	Sololá	701	Sololá	2	El tablón	6	Junio	2023-05-06T00:00:00	2024-11-06T10:00:00	6	Velocidad del viento	3.2
158286	7	Sololá	701	Sololá	2	El tablón	6	Junio	2023-05-06T00:00:00	2024-11-06T10:00:00	7	Dirección del viento	3.22
158287	7	Sololá	701	Sololá	2	El tablón	6	Junio	2023-05-06T00:00:00	2024-11-06T10:00:00	1	Precipitación	1.8
158288	7	Sololá	701	Sololá	2	El tablón	6	Junio	2023-05-06T00:00:00	2024-11-06T10:00:00	8	Radiación solar	585
158289	7	Sololá	701	Sololá	2	El tablón	6	Junio	2023-05-06T00:00:00	2024-11-06T11:00:00	2	Temperatura media	16.2
158290	7	Sololá	701	Sololá	2	El tablón	6	Junio	2023-05-06T00:00:00	2024-11-06T11:00:00	4	Temperatura máxima	17.3
158291	7	Sololá	701	Sololá	2	El tablón	6	Junio	2023-05-06T00:00:00	2024-11-06T11:00:00	3	Temperatura mínima	16
158292	7	Sololá	701	Sololá	2	El tablón	6	Junio	2023-05-06T00:00:00	2024-11-06T11:00:00	5	Humedad	80
158293	7	Sololá	701	Sololá	2	El tablón	6	Junio	2023-05-06T00:00:00	2024-11-06T11:00:00	6	Velocidad del viento	6.4
158294	7	Sololá	701	Sololá	2	El tablón	6	Junio	2023-05-06T00:00:00	2024-11-06T11:00:00	7	Dirección del viento	6.44
158295	7	Sololá	701	Sololá	2	El tablón	6	Junio	2023-05-06T00:00:00	2024-11-06T11:00:00	1	Precipitación	0
158296	7	Sololá	701	Sololá	2	El tablón	6	Junio	2023-05-06T00:00:00	2024-11-06T11:00:00	8	Radiación solar	575
158297	7	Sololá	701	Sololá	2	El tablón	6	Junio	2023-05-06T00:00:00	2024-11-06T12:00:00	2	Temperatura media	17.6
158298	7	Sololá	701	Sololá	2	El tablón	6	Junio	2023-05-06T00:00:00	2024-11-06T12:00:00	4	Temperatura máxima	17.6
158299	7	Sololá	701	Sololá	2	El tablón	6	Junio	2023-05-06T00:00:00	2024-11-06T12:00:00	3	Temperatura mínima	16.2
158300	7	Sololá	701	Sololá	2	El tablón	6	Junio	2023-05-06T00:00:00	2024-11-06T12:00:00	5	Humedad	79
158301	7	Sololá	701	Sololá	2	El tablón	6	Junio	2023-05-06T00:00:00	2024-11-06T12:00:00	6	Velocidad del viento	4.8
158302	7	Sololá	701	Sololá	2	El tablón	6	Junio	2023-05-06T00:00:00	2024-11-06T12:00:00	7	Dirección del viento	4.83
158303	7	Sololá	701	Sololá	2	El tablón	6	Junio	2023-05-06T00:00:00	2024-11-06T12:00:00	1	Precipitación	0
158304	7	Sololá	701	Sololá	2	El tablón	6	Junio	2023-05-06T00:00:00	2024-11-06T12:00:00	8	Radiación solar	664
158305	7	Sololá	701	Sololá	2	El tablón	6	Junio	2023-05-06T00:00:00	2024-11-06T13:00:00	2	Temperatura media	18.8
158306	7	Sololá	701	Sololá	2	El tablón	6	Junio	2023-05-06T00:00:00	2024-11-06T13:00:00	4	Temperatura máxima	18.8
158307	7	Sololá	701	Sololá	2	El tablón	6	Junio	2023-05-06T00:00:00	2024-11-06T13:00:00	3	Temperatura mínima	17.6
158308	7	Sololá	701	Sololá	2	El tablón	6	Junio	2023-05-06T00:00:00	2024-11-06T13:00:00	5	Humedad	77
158309	7	Sololá	701	Sololá	2	El tablón	6	Junio	2023-05-06T00:00:00	2024-11-06T13:00:00	6	Velocidad del viento	6.4
158310	7	Sololá	701	Sololá	2	El tablón	6	Junio	2023-05-06T00:00:00	2024-11-06T13:00:00	7	Dirección del viento	6.44
158311	7	Sololá	701	Sololá	2	El tablón	6	Junio	2023-05-06T00:00:00	2024-11-06T13:00:00	1	Precipitación	0
158312	7	Sololá	701	Sololá	2	El tablón	6	Junio	2023-05-06T00:00:00	2024-11-06T13:00:00	8	Radiación solar	872
158313	7	Sololá	701	Sololá	2	El tablón	6	Junio	2023-05-06T00:00:00	2024-11-06T14:00:00	2	Temperatura media	17.2
158314	7	Sololá	701	Sololá	2	El tablón	6	Junio	2023-05-06T00:00:00	2024-11-06T14:00:00	4	Temperatura máxima	19.1
158315	7	Sololá	701	Sololá	2	El tablón	6	Junio	2023-05-06T00:00:00	2024-11-06T14:00:00	3	Temperatura mínima	17.1
158316	7	Sololá	701	Sololá	2	El tablón	6	Junio	2023-05-06T00:00:00	2024-11-06T14:00:00	5	Humedad	77
158317	7	Sololá	701	Sololá	2	El tablón	6	Junio	2023-05-06T00:00:00	2024-11-06T14:00:00	6	Velocidad del viento	9.7
158318	7	Sololá	701	Sololá	2	El tablón	6	Junio	2023-05-06T00:00:00	2024-11-06T14:00:00	7	Dirección del viento	9.66
158319	7	Sololá	701	Sololá	2	El tablón	6	Junio	2023-05-06T00:00:00	2024-11-06T14:00:00	1	Precipitación	0
158320	7	Sololá	701	Sololá	2	El tablón	6	Junio	2023-05-06T00:00:00	2024-11-06T14:00:00	8	Radiación solar	718
158321	7	Sololá	701	Sololá	2	El tablón	6	Junio	2023-05-06T00:00:00	2024-11-06T15:00:00	2	Temperatura media	17.7
158322	7	Sololá	701	Sololá	2	El tablón	6	Junio	2023-05-06T00:00:00	2024-11-06T15:00:00	4	Temperatura máxima	17.7
158323	7	Sololá	701	Sololá	2	El tablón	6	Junio	2023-05-06T00:00:00	2024-11-06T15:00:00	3	Temperatura mínima	17.2
158324	7	Sololá	701	Sololá	2	El tablón	6	Junio	2023-05-06T00:00:00	2024-11-06T15:00:00	5	Humedad	74
158325	7	Sololá	701	Sololá	2	El tablón	6	Junio	2023-05-06T00:00:00	2024-11-06T15:00:00	6	Velocidad del viento	8
158326	7	Sololá	701	Sololá	2	El tablón	6	Junio	2023-05-06T00:00:00	2024-11-06T15:00:00	7	Dirección del viento	8.05
158327	7	Sololá	701	Sololá	2	El tablón	6	Junio	2023-05-06T00:00:00	2024-11-06T15:00:00	1	Precipitación	0
158328	7	Sololá	701	Sololá	2	El tablón	6	Junio	2023-05-06T00:00:00	2024-11-06T15:00:00	8	Radiación solar	489
158329	7	Sololá	701	Sololá	2	El tablón	6	Junio	2023-05-06T00:00:00	2024-11-06T16:00:00	2	Temperatura media	17.2
158330	7	Sololá	701	Sololá	2	El tablón	6	Junio	2023-05-06T00:00:00	2024-11-06T16:00:00	4	Temperatura máxima	18.2
158331	7	Sololá	701	Sololá	2	El tablón	6	Junio	2023-05-06T00:00:00	2024-11-06T16:00:00	3	Temperatura mínima	16.7
158332	7	Sololá	701	Sololá	2	El tablón	6	Junio	2023-05-06T00:00:00	2024-11-06T16:00:00	5	Humedad	84
158333	7	Sololá	701	Sololá	2	El tablón	6	Junio	2023-05-06T00:00:00	2024-11-06T16:00:00	6	Velocidad del viento	6.4
158334	7	Sololá	701	Sololá	2	El tablón	6	Junio	2023-05-06T00:00:00	2024-11-06T16:00:00	7	Dirección del viento	6.44
158335	7	Sololá	701	Sololá	2	El tablón	6	Junio	2023-05-06T00:00:00	2024-11-06T16:00:00	1	Precipitación	0
158336	7	Sololá	701	Sololá	2	El tablón	6	Junio	2023-05-06T00:00:00	2024-11-06T16:00:00	8	Radiación solar	401
158337	7	Sololá	701	Sololá	2	El tablón	6	Junio	2023-05-06T00:00:00	2024-11-06T17:00:00	2	Temperatura media	16.2
158338	7	Sololá	701	Sololá	2	El tablón	6	Junio	2023-05-06T00:00:00	2024-11-06T17:00:00	4	Temperatura máxima	17.7
158339	7	Sololá	701	Sololá	2	El tablón	6	Junio	2023-05-06T00:00:00	2024-11-06T17:00:00	3	Temperatura mínima	16.1
158340	7	Sololá	701	Sololá	2	El tablón	6	Junio	2023-05-06T00:00:00	2024-11-06T17:00:00	5	Humedad	86
158341	7	Sololá	701	Sololá	2	El tablón	6	Junio	2023-05-06T00:00:00	2024-11-06T17:00:00	6	Velocidad del viento	3.2
158342	7	Sololá	701	Sololá	2	El tablón	6	Junio	2023-05-06T00:00:00	2024-11-06T17:00:00	7	Dirección del viento	3.22
158343	7	Sololá	701	Sololá	2	El tablón	6	Junio	2023-05-06T00:00:00	2024-11-06T17:00:00	1	Precipitación	0
158344	7	Sololá	701	Sololá	2	El tablón	6	Junio	2023-05-06T00:00:00	2024-11-06T17:00:00	8	Radiación solar	187
158345	7	Sololá	701	Sololá	2	El tablón	6	Junio	2023-05-06T00:00:00	2024-11-06T18:00:00	2	Temperatura media	16.2
158346	7	Sololá	701	Sololá	2	El tablón	6	Junio	2023-05-06T00:00:00	2024-11-06T18:00:00	4	Temperatura máxima	16.7
158347	7	Sololá	701	Sololá	2	El tablón	6	Junio	2023-05-06T00:00:00	2024-11-06T18:00:00	3	Temperatura mínima	16.1
158348	7	Sololá	701	Sololá	2	El tablón	6	Junio	2023-05-06T00:00:00	2024-11-06T18:00:00	5	Humedad	87
158349	7	Sololá	701	Sololá	2	El tablón	6	Junio	2023-05-06T00:00:00	2024-11-06T18:00:00	6	Velocidad del viento	1.6
158350	7	Sololá	701	Sololá	2	El tablón	6	Junio	2023-05-06T00:00:00	2024-11-06T18:00:00	7	Dirección del viento	1.61
158351	7	Sololá	701	Sololá	2	El tablón	6	Junio	2023-05-06T00:00:00	2024-11-06T18:00:00	1	Precipitación	0
158352	7	Sololá	701	Sololá	2	El tablón	6	Junio	2023-05-06T00:00:00	2024-11-06T18:00:00	8	Radiación solar	72
158353	7	Sololá	701	Sololá	2	El tablón	6	Junio	2023-05-06T00:00:00	2024-11-06T19:00:00	2	Temperatura media	15.1
158354	7	Sololá	701	Sololá	2	El tablón	6	Junio	2023-05-06T00:00:00	2024-11-06T19:00:00	4	Temperatura máxima	16.2
158355	7	Sololá	701	Sololá	2	El tablón	6	Junio	2023-05-06T00:00:00	2024-11-06T19:00:00	3	Temperatura mínima	15.1
158356	7	Sololá	701	Sololá	2	El tablón	6	Junio	2023-05-06T00:00:00	2024-11-06T19:00:00	5	Humedad	88
158357	7	Sololá	701	Sololá	2	El tablón	6	Junio	2023-05-06T00:00:00	2024-11-06T19:00:00	6	Velocidad del viento	1.6
158358	7	Sololá	701	Sololá	2	El tablón	6	Junio	2023-05-06T00:00:00	2024-11-06T19:00:00	7	Dirección del viento	1.61
158359	7	Sololá	701	Sololá	2	El tablón	6	Junio	2023-05-06T00:00:00	2024-11-06T19:00:00	1	Precipitación	0
158360	7	Sololá	701	Sololá	2	El tablón	6	Junio	2023-05-06T00:00:00	2024-11-06T19:00:00	8	Radiación solar	0
158361	7	Sololá	701	Sololá	2	El tablón	6	Junio	2023-05-06T00:00:00	2024-11-06T20:00:00	2	Temperatura media	15
158362	7	Sololá	701	Sololá	2	El tablón	6	Junio	2023-05-06T00:00:00	2024-11-06T20:00:00	4	Temperatura máxima	15.1
158363	7	Sololá	701	Sololá	2	El tablón	6	Junio	2023-05-06T00:00:00	2024-11-06T20:00:00	3	Temperatura mínima	14.8
158364	7	Sololá	701	Sololá	2	El tablón	6	Junio	2023-05-06T00:00:00	2024-11-06T20:00:00	5	Humedad	88
158365	7	Sololá	701	Sololá	2	El tablón	6	Junio	2023-05-06T00:00:00	2024-11-06T20:00:00	6	Velocidad del viento	1.6
158366	7	Sololá	701	Sololá	2	El tablón	6	Junio	2023-05-06T00:00:00	2024-11-06T20:00:00	7	Dirección del viento	1.61
158367	7	Sololá	701	Sololá	2	El tablón	6	Junio	2023-05-06T00:00:00	2024-11-06T20:00:00	1	Precipitación	0
158368	7	Sololá	701	Sololá	2	El tablón	6	Junio	2023-05-06T00:00:00	2024-11-06T20:00:00	8	Radiación solar	0
158369	7	Sololá	701	Sololá	2	El tablón	6	Junio	2023-05-06T00:00:00	2024-11-06T21:00:00	2	Temperatura media	14.9
158370	7	Sololá	701	Sololá	2	El tablón	6	Junio	2023-05-06T00:00:00	2024-11-06T21:00:00	4	Temperatura máxima	15.1
158371	7	Sololá	701	Sololá	2	El tablón	6	Junio	2023-05-06T00:00:00	2024-11-06T21:00:00	3	Temperatura mínima	14.9
158372	7	Sololá	701	Sololá	2	El tablón	6	Junio	2023-05-06T00:00:00	2024-11-06T21:00:00	5	Humedad	88
158373	7	Sololá	701	Sololá	2	El tablón	6	Junio	2023-05-06T00:00:00	2024-11-06T21:00:00	6	Velocidad del viento	1.6
158374	7	Sololá	701	Sololá	2	El tablón	6	Junio	2023-05-06T00:00:00	2024-11-06T21:00:00	7	Dirección del viento	1.61
158375	7	Sololá	701	Sololá	2	El tablón	6	Junio	2023-05-06T00:00:00	2024-11-06T21:00:00	1	Precipitación	0
158376	7	Sololá	701	Sololá	2	El tablón	6	Junio	2023-05-06T00:00:00	2024-11-06T21:00:00	8	Radiación solar	0
158377	7	Sololá	701	Sololá	2	El tablón	6	Junio	2023-05-06T00:00:00	2024-11-06T22:00:00	2	Temperatura media	14.8
158378	7	Sololá	701	Sololá	2	El tablón	6	Junio	2023-05-06T00:00:00	2024-11-06T22:00:00	4	Temperatura máxima	14.9
158379	7	Sololá	701	Sololá	2	El tablón	6	Junio	2023-05-06T00:00:00	2024-11-06T22:00:00	3	Temperatura mínima	14.7
158380	7	Sololá	701	Sololá	2	El tablón	6	Junio	2023-05-06T00:00:00	2024-11-06T22:00:00	5	Humedad	88
158381	7	Sololá	701	Sololá	2	El tablón	6	Junio	2023-05-06T00:00:00	2024-11-06T22:00:00	6	Velocidad del viento	0
158382	7	Sololá	701	Sololá	2	El tablón	6	Junio	2023-05-06T00:00:00	2024-11-06T22:00:00	7	Dirección del viento	0
158383	7	Sololá	701	Sololá	2	El tablón	6	Junio	2023-05-06T00:00:00	2024-11-06T22:00:00	1	Precipitación	0
158384	7	Sololá	701	Sololá	2	El tablón	6	Junio	2023-05-06T00:00:00	2024-11-06T22:00:00	8	Radiación solar	0
158385	7	Sololá	701	Sololá	2	El tablón	6	Junio	2023-05-06T00:00:00	2024-11-06T23:00:00	2	Temperatura media	14.6
158386	7	Sololá	701	Sololá	2	El tablón	6	Junio	2023-05-06T00:00:00	2024-11-06T23:00:00	4	Temperatura máxima	14.8
158387	7	Sololá	701	Sololá	2	El tablón	6	Junio	2023-05-06T00:00:00	2024-11-06T23:00:00	3	Temperatura mínima	14.6
158388	7	Sololá	701	Sololá	2	El tablón	6	Junio	2023-05-06T00:00:00	2024-11-06T23:00:00	5	Humedad	88
158389	7	Sololá	701	Sololá	2	El tablón	6	Junio	2023-05-06T00:00:00	2024-11-06T23:00:00	6	Velocidad del viento	0
158390	7	Sololá	701	Sololá	2	El tablón	6	Junio	2023-05-06T00:00:00	2024-11-06T23:00:00	7	Dirección del viento	0
158391	7	Sololá	701	Sololá	2	El tablón	6	Junio	2023-05-06T00:00:00	2024-11-06T23:00:00	1	Precipitación	0
158392	7	Sololá	701	Sololá	2	El tablón	6	Junio	2023-05-06T00:00:00	2024-11-06T23:00:00	8	Radiación solar	0
158393	7	Sololá	701	Sololá	2	El tablón	6	Junio	2023-06-06T00:00:00	2024-11-06T00:00:00	2	Temperatura media	14.2
158394	7	Sololá	701	Sololá	2	El tablón	6	Junio	2023-06-06T00:00:00	2024-11-06T00:00:00	4	Temperatura máxima	14.6
158395	7	Sololá	701	Sololá	2	El tablón	6	Junio	2023-06-06T00:00:00	2024-11-06T00:00:00	3	Temperatura mínima	14.2
158396	7	Sololá	701	Sololá	2	El tablón	6	Junio	2023-06-06T00:00:00	2024-11-06T00:00:00	5	Humedad	88
158397	7	Sololá	701	Sololá	2	El tablón	6	Junio	2023-06-06T00:00:00	2024-11-06T00:00:00	6	Velocidad del viento	1.6
158398	7	Sololá	701	Sololá	2	El tablón	6	Junio	2023-06-06T00:00:00	2024-11-06T00:00:00	7	Dirección del viento	1.61
158399	7	Sololá	701	Sololá	2	El tablón	6	Junio	2023-06-06T00:00:00	2024-11-06T00:00:00	1	Precipitación	0
158400	7	Sololá	701	Sololá	2	El tablón	6	Junio	2023-06-06T00:00:00	2024-11-06T00:00:00	8	Radiación solar	0
158401	7	Sololá	701	Sololá	2	El tablón	6	Junio	2023-06-06T00:00:00	2024-11-06T01:00:00	2	Temperatura media	13.7
158402	7	Sololá	701	Sololá	2	El tablón	6	Junio	2023-06-06T00:00:00	2024-11-06T01:00:00	4	Temperatura máxima	14.2
158403	7	Sololá	701	Sololá	2	El tablón	6	Junio	2023-06-06T00:00:00	2024-11-06T01:00:00	3	Temperatura mínima	13.6
158404	7	Sololá	701	Sololá	2	El tablón	6	Junio	2023-06-06T00:00:00	2024-11-06T01:00:00	5	Humedad	89
158405	7	Sololá	701	Sololá	2	El tablón	6	Junio	2023-06-06T00:00:00	2024-11-06T01:00:00	6	Velocidad del viento	1.6
158406	7	Sololá	701	Sololá	2	El tablón	6	Junio	2023-06-06T00:00:00	2024-11-06T01:00:00	7	Dirección del viento	1.61
158407	7	Sololá	701	Sololá	2	El tablón	6	Junio	2023-06-06T00:00:00	2024-11-06T01:00:00	1	Precipitación	0
158408	7	Sololá	701	Sololá	2	El tablón	6	Junio	2023-06-06T00:00:00	2024-11-06T01:00:00	8	Radiación solar	0
158409	7	Sololá	701	Sololá	2	El tablón	6	Junio	2023-06-06T00:00:00	2024-11-06T02:00:00	2	Temperatura media	12.9
158410	7	Sololá	701	Sololá	2	El tablón	6	Junio	2023-06-06T00:00:00	2024-11-06T02:00:00	4	Temperatura máxima	13.7
158411	7	Sololá	701	Sololá	2	El tablón	6	Junio	2023-06-06T00:00:00	2024-11-06T02:00:00	3	Temperatura mínima	12.7
158412	7	Sololá	701	Sololá	2	El tablón	6	Junio	2023-06-06T00:00:00	2024-11-06T02:00:00	5	Humedad	86
158413	7	Sololá	701	Sololá	2	El tablón	6	Junio	2023-06-06T00:00:00	2024-11-06T02:00:00	6	Velocidad del viento	3.2
158414	7	Sololá	701	Sololá	2	El tablón	6	Junio	2023-06-06T00:00:00	2024-11-06T02:00:00	7	Dirección del viento	3.22
158415	7	Sololá	701	Sololá	2	El tablón	6	Junio	2023-06-06T00:00:00	2024-11-06T02:00:00	1	Precipitación	0
158416	7	Sololá	701	Sololá	2	El tablón	6	Junio	2023-06-06T00:00:00	2024-11-06T02:00:00	8	Radiación solar	0
158417	7	Sololá	701	Sololá	2	El tablón	6	Junio	2023-06-06T00:00:00	2024-11-06T03:00:00	2	Temperatura media	13.5
158418	7	Sololá	701	Sololá	2	El tablón	6	Junio	2023-06-06T00:00:00	2024-11-06T03:00:00	4	Temperatura máxima	13.5
158419	7	Sololá	701	Sololá	2	El tablón	6	Junio	2023-06-06T00:00:00	2024-11-06T03:00:00	3	Temperatura mínima	12.8
158420	7	Sololá	701	Sololá	2	El tablón	6	Junio	2023-06-06T00:00:00	2024-11-06T03:00:00	5	Humedad	80
158421	7	Sololá	701	Sololá	2	El tablón	6	Junio	2023-06-06T00:00:00	2024-11-06T03:00:00	6	Velocidad del viento	0
158422	7	Sololá	701	Sololá	2	El tablón	6	Junio	2023-06-06T00:00:00	2024-11-06T03:00:00	7	Dirección del viento	0
158423	7	Sololá	701	Sololá	2	El tablón	6	Junio	2023-06-06T00:00:00	2024-11-06T03:00:00	1	Precipitación	0
158424	7	Sololá	701	Sololá	2	El tablón	6	Junio	2023-06-06T00:00:00	2024-11-06T03:00:00	8	Radiación solar	0
158425	7	Sololá	701	Sololá	2	El tablón	6	Junio	2023-06-06T00:00:00	2024-11-06T04:00:00	2	Temperatura media	12.6
158426	7	Sololá	701	Sololá	2	El tablón	6	Junio	2023-06-06T00:00:00	2024-11-06T04:00:00	4	Temperatura máxima	13.8
158427	7	Sololá	701	Sololá	2	El tablón	6	Junio	2023-06-06T00:00:00	2024-11-06T04:00:00	3	Temperatura mínima	12.6
158428	7	Sololá	701	Sololá	2	El tablón	6	Junio	2023-06-06T00:00:00	2024-11-06T04:00:00	5	Humedad	85
158429	7	Sololá	701	Sololá	2	El tablón	6	Junio	2023-06-06T00:00:00	2024-11-06T04:00:00	6	Velocidad del viento	1.6
158430	7	Sololá	701	Sololá	2	El tablón	6	Junio	2023-06-06T00:00:00	2024-11-06T04:00:00	7	Dirección del viento	1.61
158431	7	Sololá	701	Sololá	2	El tablón	6	Junio	2023-06-06T00:00:00	2024-11-06T04:00:00	1	Precipitación	0
158432	7	Sololá	701	Sololá	2	El tablón	6	Junio	2023-06-06T00:00:00	2024-11-06T04:00:00	8	Radiación solar	0
158433	7	Sololá	701	Sololá	2	El tablón	6	Junio	2023-06-06T00:00:00	2024-11-06T05:00:00	2	Temperatura media	12.2
158434	7	Sololá	701	Sololá	2	El tablón	6	Junio	2023-06-06T00:00:00	2024-11-06T05:00:00	4	Temperatura máxima	12.7
158435	7	Sololá	701	Sololá	2	El tablón	6	Junio	2023-06-06T00:00:00	2024-11-06T05:00:00	3	Temperatura mínima	12.2
158436	7	Sololá	701	Sololá	2	El tablón	6	Junio	2023-06-06T00:00:00	2024-11-06T05:00:00	5	Humedad	84
158437	7	Sololá	701	Sololá	2	El tablón	6	Junio	2023-06-06T00:00:00	2024-11-06T05:00:00	6	Velocidad del viento	1.6
158438	7	Sololá	701	Sololá	2	El tablón	6	Junio	2023-06-06T00:00:00	2024-11-06T05:00:00	7	Dirección del viento	1.61
158439	7	Sololá	701	Sololá	2	El tablón	6	Junio	2023-06-06T00:00:00	2024-11-06T05:00:00	1	Precipitación	0
158440	7	Sololá	701	Sololá	2	El tablón	6	Junio	2023-06-06T00:00:00	2024-11-06T05:00:00	8	Radiación solar	0
158441	7	Sololá	701	Sololá	2	El tablón	6	Junio	2023-06-06T00:00:00	2024-11-06T06:00:00	2	Temperatura media	12.4
158442	7	Sololá	701	Sololá	2	El tablón	6	Junio	2023-06-06T00:00:00	2024-11-06T06:00:00	4	Temperatura máxima	12.4
158443	7	Sololá	701	Sololá	2	El tablón	6	Junio	2023-06-06T00:00:00	2024-11-06T06:00:00	3	Temperatura mínima	11.8
158444	7	Sololá	701	Sololá	2	El tablón	6	Junio	2023-06-06T00:00:00	2024-11-06T06:00:00	5	Humedad	84
158445	7	Sololá	701	Sololá	2	El tablón	6	Junio	2023-06-06T00:00:00	2024-11-06T06:00:00	6	Velocidad del viento	1.6
158446	7	Sololá	701	Sololá	2	El tablón	6	Junio	2023-06-06T00:00:00	2024-11-06T06:00:00	7	Dirección del viento	1.61
158447	7	Sololá	701	Sololá	2	El tablón	6	Junio	2023-06-06T00:00:00	2024-11-06T06:00:00	1	Precipitación	0
158448	7	Sololá	701	Sololá	2	El tablón	6	Junio	2023-06-06T00:00:00	2024-11-06T06:00:00	8	Radiación solar	5
158449	7	Sololá	701	Sololá	2	El tablón	6	Junio	2023-06-06T00:00:00	2024-11-06T07:00:00	2	Temperatura media	13.4
158450	7	Sololá	701	Sololá	2	El tablón	6	Junio	2023-06-06T00:00:00	2024-11-06T07:00:00	4	Temperatura máxima	13.4
158451	7	Sololá	701	Sololá	2	El tablón	6	Junio	2023-06-06T00:00:00	2024-11-06T07:00:00	3	Temperatura mínima	12.4
158452	7	Sololá	701	Sololá	2	El tablón	6	Junio	2023-06-06T00:00:00	2024-11-06T07:00:00	5	Humedad	85
158453	7	Sololá	701	Sololá	2	El tablón	6	Junio	2023-06-06T00:00:00	2024-11-06T07:00:00	6	Velocidad del viento	1.6
158454	7	Sololá	701	Sololá	2	El tablón	6	Junio	2023-06-06T00:00:00	2024-11-06T07:00:00	7	Dirección del viento	1.61
158455	7	Sololá	701	Sololá	2	El tablón	6	Junio	2023-06-06T00:00:00	2024-11-06T07:00:00	1	Precipitación	0
158456	7	Sololá	701	Sololá	2	El tablón	6	Junio	2023-06-06T00:00:00	2024-11-06T07:00:00	8	Radiación solar	91
158457	7	Sololá	701	Sololá	2	El tablón	6	Junio	2023-06-06T00:00:00	2024-11-06T08:00:00	2	Temperatura media	15.2
158458	7	Sololá	701	Sololá	2	El tablón	6	Junio	2023-06-06T00:00:00	2024-11-06T08:00:00	4	Temperatura máxima	15.2
158459	7	Sololá	701	Sololá	2	El tablón	6	Junio	2023-06-06T00:00:00	2024-11-06T08:00:00	3	Temperatura mínima	13.4
158460	7	Sololá	701	Sololá	2	El tablón	6	Junio	2023-06-06T00:00:00	2024-11-06T08:00:00	5	Humedad	77
158461	7	Sololá	701	Sololá	2	El tablón	6	Junio	2023-06-06T00:00:00	2024-11-06T08:00:00	6	Velocidad del viento	1.6
158462	7	Sololá	701	Sololá	2	El tablón	6	Junio	2023-06-06T00:00:00	2024-11-06T08:00:00	7	Dirección del viento	1.61
158463	7	Sololá	701	Sololá	2	El tablón	6	Junio	2023-06-06T00:00:00	2024-11-06T08:00:00	1	Precipitación	0
158464	7	Sololá	701	Sololá	2	El tablón	6	Junio	2023-06-06T00:00:00	2024-11-06T08:00:00	8	Radiación solar	256
158465	7	Sololá	701	Sololá	2	El tablón	6	Junio	2023-06-06T00:00:00	2024-11-06T09:00:00	2	Temperatura media	17.8
158466	7	Sololá	701	Sololá	2	El tablón	6	Junio	2023-06-06T00:00:00	2024-11-06T09:00:00	4	Temperatura máxima	18.1
158467	7	Sololá	701	Sololá	2	El tablón	6	Junio	2023-06-06T00:00:00	2024-11-06T09:00:00	3	Temperatura mínima	15.2
158468	7	Sololá	701	Sololá	2	El tablón	6	Junio	2023-06-06T00:00:00	2024-11-06T09:00:00	5	Humedad	68
158469	7	Sololá	701	Sololá	2	El tablón	6	Junio	2023-06-06T00:00:00	2024-11-06T09:00:00	6	Velocidad del viento	1.6
158470	7	Sololá	701	Sololá	2	El tablón	6	Junio	2023-06-06T00:00:00	2024-11-06T09:00:00	7	Dirección del viento	1.61
158471	7	Sololá	701	Sololá	2	El tablón	6	Junio	2023-06-06T00:00:00	2024-11-06T09:00:00	1	Precipitación	0
158472	7	Sololá	701	Sololá	2	El tablón	6	Junio	2023-06-06T00:00:00	2024-11-06T09:00:00	8	Radiación solar	501
158473	7	Sololá	701	Sololá	2	El tablón	6	Junio	2023-06-06T00:00:00	2024-11-06T10:00:00	2	Temperatura media	17.1
158474	7	Sololá	701	Sololá	2	El tablón	6	Junio	2023-06-06T00:00:00	2024-11-06T10:00:00	4	Temperatura máxima	17.9
158475	7	Sololá	701	Sololá	2	El tablón	6	Junio	2023-06-06T00:00:00	2024-11-06T10:00:00	3	Temperatura mínima	16.8
158476	7	Sololá	701	Sololá	2	El tablón	6	Junio	2023-06-06T00:00:00	2024-11-06T10:00:00	5	Humedad	78
158477	7	Sololá	701	Sololá	2	El tablón	6	Junio	2023-06-06T00:00:00	2024-11-06T10:00:00	6	Velocidad del viento	6.4
158478	7	Sololá	701	Sololá	2	El tablón	6	Junio	2023-06-06T00:00:00	2024-11-06T10:00:00	7	Dirección del viento	6.44
158479	7	Sololá	701	Sololá	2	El tablón	6	Junio	2023-06-06T00:00:00	2024-11-06T10:00:00	1	Precipitación	0
158480	7	Sololá	701	Sololá	2	El tablón	6	Junio	2023-06-06T00:00:00	2024-11-06T10:00:00	8	Radiación solar	537
158481	7	Sololá	701	Sololá	2	El tablón	6	Junio	2023-06-06T00:00:00	2024-11-06T11:00:00	2	Temperatura media	17.6
158482	7	Sololá	701	Sololá	2	El tablón	6	Junio	2023-06-06T00:00:00	2024-11-06T11:00:00	4	Temperatura máxima	17.9
158483	7	Sololá	701	Sololá	2	El tablón	6	Junio	2023-06-06T00:00:00	2024-11-06T11:00:00	3	Temperatura mínima	17.1
158484	7	Sololá	701	Sololá	2	El tablón	6	Junio	2023-06-06T00:00:00	2024-11-06T11:00:00	5	Humedad	73
158485	7	Sololá	701	Sololá	2	El tablón	6	Junio	2023-06-06T00:00:00	2024-11-06T11:00:00	6	Velocidad del viento	6.4
158486	7	Sololá	701	Sololá	2	El tablón	6	Junio	2023-06-06T00:00:00	2024-11-06T11:00:00	7	Dirección del viento	6.44
158487	7	Sololá	701	Sololá	2	El tablón	6	Junio	2023-06-06T00:00:00	2024-11-06T11:00:00	1	Precipitación	0
158488	7	Sololá	701	Sololá	2	El tablón	6	Junio	2023-06-06T00:00:00	2024-11-06T11:00:00	8	Radiación solar	663
158489	7	Sololá	701	Sololá	2	El tablón	6	Junio	2023-06-06T00:00:00	2024-11-06T12:00:00	2	Temperatura media	16.3
158490	7	Sololá	701	Sololá	2	El tablón	6	Junio	2023-06-06T00:00:00	2024-11-06T12:00:00	4	Temperatura máxima	17.9
158491	7	Sololá	701	Sololá	2	El tablón	6	Junio	2023-06-06T00:00:00	2024-11-06T12:00:00	3	Temperatura mínima	16.3
158492	7	Sololá	701	Sololá	2	El tablón	6	Junio	2023-06-06T00:00:00	2024-11-06T12:00:00	5	Humedad	81
158493	7	Sololá	701	Sololá	2	El tablón	6	Junio	2023-06-06T00:00:00	2024-11-06T12:00:00	6	Velocidad del viento	4.8
158494	7	Sololá	701	Sololá	2	El tablón	6	Junio	2023-06-06T00:00:00	2024-11-06T12:00:00	7	Dirección del viento	4.83
158495	7	Sololá	701	Sololá	2	El tablón	6	Junio	2023-06-06T00:00:00	2024-11-06T12:00:00	1	Precipitación	0
158496	7	Sololá	701	Sololá	2	El tablón	6	Junio	2023-06-06T00:00:00	2024-11-06T12:00:00	8	Radiación solar	250
158497	7	Sololá	701	Sololá	2	El tablón	6	Junio	2023-06-06T00:00:00	2024-11-06T13:00:00	2	Temperatura media	15
158498	7	Sololá	701	Sololá	2	El tablón	6	Junio	2023-06-06T00:00:00	2024-11-06T13:00:00	4	Temperatura máxima	16.3
158499	7	Sololá	701	Sololá	2	El tablón	6	Junio	2023-06-06T00:00:00	2024-11-06T13:00:00	3	Temperatura mínima	14.7
158500	7	Sololá	701	Sololá	2	El tablón	6	Junio	2023-06-06T00:00:00	2024-11-06T13:00:00	5	Humedad	87
158501	7	Sololá	701	Sololá	2	El tablón	6	Junio	2023-06-06T00:00:00	2024-11-06T13:00:00	6	Velocidad del viento	3.2
158502	7	Sololá	701	Sololá	2	El tablón	6	Junio	2023-06-06T00:00:00	2024-11-06T13:00:00	7	Dirección del viento	3.22
158503	7	Sololá	701	Sololá	2	El tablón	6	Junio	2023-06-06T00:00:00	2024-11-06T13:00:00	1	Precipitación	3.8
158504	7	Sololá	701	Sololá	2	El tablón	6	Junio	2023-06-06T00:00:00	2024-11-06T13:00:00	8	Radiación solar	180
158505	7	Sololá	701	Sololá	2	El tablón	6	Junio	2023-06-06T00:00:00	2024-11-06T14:00:00	2	Temperatura media	15.6
158506	7	Sololá	701	Sololá	2	El tablón	6	Junio	2023-06-06T00:00:00	2024-11-06T14:00:00	4	Temperatura máxima	15.6
158507	7	Sololá	701	Sololá	2	El tablón	6	Junio	2023-06-06T00:00:00	2024-11-06T14:00:00	3	Temperatura mínima	14.7
158508	7	Sololá	701	Sololá	2	El tablón	6	Junio	2023-06-06T00:00:00	2024-11-06T14:00:00	5	Humedad	84
158509	7	Sololá	701	Sololá	2	El tablón	6	Junio	2023-06-06T00:00:00	2024-11-06T14:00:00	6	Velocidad del viento	3.2
158510	7	Sololá	701	Sololá	2	El tablón	6	Junio	2023-06-06T00:00:00	2024-11-06T14:00:00	7	Dirección del viento	3.22
158511	7	Sololá	701	Sololá	2	El tablón	6	Junio	2023-06-06T00:00:00	2024-11-06T14:00:00	1	Precipitación	0
158512	7	Sololá	701	Sololá	2	El tablón	6	Junio	2023-06-06T00:00:00	2024-11-06T14:00:00	8	Radiación solar	220
158513	7	Sololá	701	Sololá	2	El tablón	6	Junio	2023-06-06T00:00:00	2024-11-06T15:00:00	2	Temperatura media	15.5
158514	7	Sololá	701	Sololá	2	El tablón	6	Junio	2023-06-06T00:00:00	2024-11-06T15:00:00	4	Temperatura máxima	15.9
158515	7	Sololá	701	Sololá	2	El tablón	6	Junio	2023-06-06T00:00:00	2024-11-06T15:00:00	3	Temperatura mínima	15.5
158516	7	Sololá	701	Sololá	2	El tablón	6	Junio	2023-06-06T00:00:00	2024-11-06T15:00:00	5	Humedad	86
158517	7	Sololá	701	Sololá	2	El tablón	6	Junio	2023-06-06T00:00:00	2024-11-06T15:00:00	6	Velocidad del viento	3.2
158518	7	Sololá	701	Sololá	2	El tablón	6	Junio	2023-06-06T00:00:00	2024-11-06T15:00:00	7	Dirección del viento	3.22
158519	7	Sololá	701	Sololá	2	El tablón	6	Junio	2023-06-06T00:00:00	2024-11-06T15:00:00	1	Precipitación	0
158520	7	Sololá	701	Sololá	2	El tablón	6	Junio	2023-06-06T00:00:00	2024-11-06T15:00:00	8	Radiación solar	132
158521	7	Sololá	701	Sololá	2	El tablón	6	Junio	2023-06-06T00:00:00	2024-11-06T16:00:00	2	Temperatura media	15.5
158522	7	Sololá	701	Sololá	2	El tablón	6	Junio	2023-06-06T00:00:00	2024-11-06T16:00:00	4	Temperatura máxima	15.5
158523	7	Sololá	701	Sololá	2	El tablón	6	Junio	2023-06-06T00:00:00	2024-11-06T16:00:00	3	Temperatura mínima	15.3
158524	7	Sololá	701	Sololá	2	El tablón	6	Junio	2023-06-06T00:00:00	2024-11-06T16:00:00	5	Humedad	87
158525	7	Sololá	701	Sololá	2	El tablón	6	Junio	2023-06-06T00:00:00	2024-11-06T16:00:00	6	Velocidad del viento	1.6
158526	7	Sololá	701	Sololá	2	El tablón	6	Junio	2023-06-06T00:00:00	2024-11-06T16:00:00	7	Dirección del viento	1.61
158527	7	Sololá	701	Sololá	2	El tablón	6	Junio	2023-06-06T00:00:00	2024-11-06T16:00:00	1	Precipitación	0
158528	7	Sololá	701	Sololá	2	El tablón	6	Junio	2023-06-06T00:00:00	2024-11-06T16:00:00	8	Radiación solar	111
158529	7	Sololá	701	Sololá	2	El tablón	6	Junio	2023-06-06T00:00:00	2024-11-06T17:00:00	2	Temperatura media	15.9
158530	7	Sololá	701	Sololá	2	El tablón	6	Junio	2023-06-06T00:00:00	2024-11-06T17:00:00	4	Temperatura máxima	16.1
158531	7	Sololá	701	Sololá	2	El tablón	6	Junio	2023-06-06T00:00:00	2024-11-06T17:00:00	3	Temperatura mínima	15.5
158532	7	Sololá	701	Sololá	2	El tablón	6	Junio	2023-06-06T00:00:00	2024-11-06T17:00:00	5	Humedad	88
158533	7	Sololá	701	Sololá	2	El tablón	6	Junio	2023-06-06T00:00:00	2024-11-06T17:00:00	6	Velocidad del viento	3.2
158534	7	Sololá	701	Sololá	2	El tablón	6	Junio	2023-06-06T00:00:00	2024-11-06T17:00:00	7	Dirección del viento	3.22
158535	7	Sololá	701	Sololá	2	El tablón	6	Junio	2023-06-06T00:00:00	2024-11-06T17:00:00	1	Precipitación	0
158536	7	Sololá	701	Sololá	2	El tablón	6	Junio	2023-06-06T00:00:00	2024-11-06T17:00:00	8	Radiación solar	169
158537	7	Sololá	701	Sololá	2	El tablón	6	Junio	2023-06-06T00:00:00	2024-11-06T18:00:00	2	Temperatura media	14.6
158538	7	Sololá	701	Sololá	2	El tablón	6	Junio	2023-06-06T00:00:00	2024-11-06T18:00:00	4	Temperatura máxima	15.9
158539	7	Sololá	701	Sololá	2	El tablón	6	Junio	2023-06-06T00:00:00	2024-11-06T18:00:00	3	Temperatura mínima	14.6
158540	7	Sololá	701	Sololá	2	El tablón	6	Junio	2023-06-06T00:00:00	2024-11-06T18:00:00	5	Humedad	84
158541	7	Sololá	701	Sololá	2	El tablón	6	Junio	2023-06-06T00:00:00	2024-11-06T18:00:00	6	Velocidad del viento	6.4
158542	7	Sololá	701	Sololá	2	El tablón	6	Junio	2023-06-06T00:00:00	2024-11-06T18:00:00	7	Dirección del viento	6.44
158543	7	Sololá	701	Sololá	2	El tablón	6	Junio	2023-06-06T00:00:00	2024-11-06T18:00:00	1	Precipitación	0.2
158544	7	Sololá	701	Sololá	2	El tablón	6	Junio	2023-06-06T00:00:00	2024-11-06T18:00:00	8	Radiación solar	52
158545	7	Sololá	701	Sololá	2	El tablón	6	Junio	2023-06-06T00:00:00	2024-11-06T19:00:00	2	Temperatura media	13.5
158546	7	Sololá	701	Sololá	2	El tablón	6	Junio	2023-06-06T00:00:00	2024-11-06T19:00:00	4	Temperatura máxima	14.6
158547	7	Sololá	701	Sololá	2	El tablón	6	Junio	2023-06-06T00:00:00	2024-11-06T19:00:00	3	Temperatura mínima	13.5
158548	7	Sololá	701	Sololá	2	El tablón	6	Junio	2023-06-06T00:00:00	2024-11-06T19:00:00	5	Humedad	83
158549	7	Sololá	701	Sololá	2	El tablón	6	Junio	2023-06-06T00:00:00	2024-11-06T19:00:00	6	Velocidad del viento	11.3
158550	7	Sololá	701	Sololá	2	El tablón	6	Junio	2023-06-06T00:00:00	2024-11-06T19:00:00	7	Dirección del viento	11.27
158551	7	Sololá	701	Sololá	2	El tablón	6	Junio	2023-06-06T00:00:00	2024-11-06T19:00:00	1	Precipitación	0
158552	7	Sololá	701	Sololá	2	El tablón	6	Junio	2023-06-06T00:00:00	2024-11-06T19:00:00	8	Radiación solar	0
158553	7	Sololá	701	Sololá	2	El tablón	6	Junio	2023-06-06T00:00:00	2024-11-06T20:00:00	2	Temperatura media	13.4
158554	7	Sololá	701	Sololá	2	El tablón	6	Junio	2023-06-06T00:00:00	2024-11-06T20:00:00	4	Temperatura máxima	13.5
158555	7	Sololá	701	Sololá	2	El tablón	6	Junio	2023-06-06T00:00:00	2024-11-06T20:00:00	3	Temperatura mínima	13.1
158556	7	Sololá	701	Sololá	2	El tablón	6	Junio	2023-06-06T00:00:00	2024-11-06T20:00:00	5	Humedad	86
158557	7	Sololá	701	Sololá	2	El tablón	6	Junio	2023-06-06T00:00:00	2024-11-06T20:00:00	6	Velocidad del viento	9.7
158558	7	Sololá	701	Sololá	2	El tablón	6	Junio	2023-06-06T00:00:00	2024-11-06T20:00:00	7	Dirección del viento	9.66
158559	7	Sololá	701	Sololá	2	El tablón	6	Junio	2023-06-06T00:00:00	2024-11-06T20:00:00	1	Precipitación	0
158560	7	Sololá	701	Sololá	2	El tablón	6	Junio	2023-06-06T00:00:00	2024-11-06T20:00:00	8	Radiación solar	0
158561	7	Sololá	701	Sololá	2	El tablón	6	Junio	2023-06-06T00:00:00	2024-11-06T21:00:00	2	Temperatura media	13.9
158562	7	Sololá	701	Sololá	2	El tablón	6	Junio	2023-06-06T00:00:00	2024-11-06T21:00:00	4	Temperatura máxima	13.9
158563	7	Sololá	701	Sololá	2	El tablón	6	Junio	2023-06-06T00:00:00	2024-11-06T21:00:00	3	Temperatura mínima	13.4
158564	7	Sololá	701	Sololá	2	El tablón	6	Junio	2023-06-06T00:00:00	2024-11-06T21:00:00	5	Humedad	84
158565	7	Sololá	701	Sololá	2	El tablón	6	Junio	2023-06-06T00:00:00	2024-11-06T21:00:00	6	Velocidad del viento	4.8
158566	7	Sololá	701	Sololá	2	El tablón	6	Junio	2023-06-06T00:00:00	2024-11-06T21:00:00	7	Dirección del viento	4.83
158567	7	Sololá	701	Sololá	2	El tablón	6	Junio	2023-06-06T00:00:00	2024-11-06T21:00:00	1	Precipitación	0
158568	7	Sololá	701	Sololá	2	El tablón	6	Junio	2023-06-06T00:00:00	2024-11-06T21:00:00	8	Radiación solar	0
158569	7	Sololá	701	Sololá	2	El tablón	6	Junio	2023-06-06T00:00:00	2024-11-06T22:00:00	2	Temperatura media	13.2
158570	7	Sololá	701	Sololá	2	El tablón	6	Junio	2023-06-06T00:00:00	2024-11-06T22:00:00	4	Temperatura máxima	13.9
158571	7	Sololá	701	Sololá	2	El tablón	6	Junio	2023-06-06T00:00:00	2024-11-06T22:00:00	3	Temperatura mínima	13.2
158572	7	Sololá	701	Sololá	2	El tablón	6	Junio	2023-06-06T00:00:00	2024-11-06T22:00:00	5	Humedad	86
158573	7	Sololá	701	Sololá	2	El tablón	6	Junio	2023-06-06T00:00:00	2024-11-06T22:00:00	6	Velocidad del viento	3.2
158574	7	Sololá	701	Sololá	2	El tablón	6	Junio	2023-06-06T00:00:00	2024-11-06T22:00:00	7	Dirección del viento	3.22
158575	7	Sololá	701	Sololá	2	El tablón	6	Junio	2023-06-06T00:00:00	2024-11-06T22:00:00	1	Precipitación	0
158576	7	Sololá	701	Sololá	2	El tablón	6	Junio	2023-06-06T00:00:00	2024-11-06T22:00:00	8	Radiación solar	0
158577	7	Sololá	701	Sololá	2	El tablón	6	Junio	2023-06-06T00:00:00	2024-11-06T23:00:00	2	Temperatura media	13
158578	7	Sololá	701	Sololá	2	El tablón	6	Junio	2023-06-06T00:00:00	2024-11-06T23:00:00	4	Temperatura máxima	13.3
158579	7	Sololá	701	Sololá	2	El tablón	6	Junio	2023-06-06T00:00:00	2024-11-06T23:00:00	3	Temperatura mínima	13
158580	7	Sololá	701	Sololá	2	El tablón	6	Junio	2023-06-06T00:00:00	2024-11-06T23:00:00	5	Humedad	87
158581	7	Sololá	701	Sololá	2	El tablón	6	Junio	2023-06-06T00:00:00	2024-11-06T23:00:00	6	Velocidad del viento	0
158582	7	Sololá	701	Sololá	2	El tablón	6	Junio	2023-06-06T00:00:00	2024-11-06T23:00:00	7	Dirección del viento	0
158583	7	Sololá	701	Sololá	2	El tablón	6	Junio	2023-06-06T00:00:00	2024-11-06T23:00:00	1	Precipitación	0
158584	7	Sololá	701	Sololá	2	El tablón	6	Junio	2023-06-06T00:00:00	2024-11-06T23:00:00	8	Radiación solar	0
158585	7	Sololá	701	Sololá	2	El tablón	6	Junio	2023-07-06T00:00:00	2024-11-06T00:00:00	2	Temperatura media	13.4
158586	7	Sololá	701	Sololá	2	El tablón	6	Junio	2023-07-06T00:00:00	2024-11-06T00:00:00	4	Temperatura máxima	13.4
158587	7	Sololá	701	Sololá	2	El tablón	6	Junio	2023-07-06T00:00:00	2024-11-06T00:00:00	3	Temperatura mínima	12.9
158588	7	Sololá	701	Sololá	2	El tablón	6	Junio	2023-07-06T00:00:00	2024-11-06T00:00:00	5	Humedad	88
158589	7	Sololá	701	Sololá	2	El tablón	6	Junio	2023-07-06T00:00:00	2024-11-06T00:00:00	6	Velocidad del viento	1.6
158590	7	Sololá	701	Sololá	2	El tablón	6	Junio	2023-07-06T00:00:00	2024-11-06T00:00:00	7	Dirección del viento	1.61
158591	7	Sololá	701	Sololá	2	El tablón	6	Junio	2023-07-06T00:00:00	2024-11-06T00:00:00	1	Precipitación	0
158592	7	Sololá	701	Sololá	2	El tablón	6	Junio	2023-07-06T00:00:00	2024-11-06T00:00:00	8	Radiación solar	0
158593	7	Sololá	701	Sololá	2	El tablón	6	Junio	2023-07-06T00:00:00	2024-11-06T01:00:00	2	Temperatura media	12.6
158594	7	Sololá	701	Sololá	2	El tablón	6	Junio	2023-07-06T00:00:00	2024-11-06T01:00:00	4	Temperatura máxima	13.6
158595	7	Sololá	701	Sololá	2	El tablón	6	Junio	2023-07-06T00:00:00	2024-11-06T01:00:00	3	Temperatura mínima	12.6
158596	7	Sololá	701	Sololá	2	El tablón	6	Junio	2023-07-06T00:00:00	2024-11-06T01:00:00	5	Humedad	88
158597	7	Sololá	701	Sololá	2	El tablón	6	Junio	2023-07-06T00:00:00	2024-11-06T01:00:00	6	Velocidad del viento	1.6
158598	7	Sololá	701	Sololá	2	El tablón	6	Junio	2023-07-06T00:00:00	2024-11-06T01:00:00	7	Dirección del viento	1.61
158599	7	Sololá	701	Sololá	2	El tablón	6	Junio	2023-07-06T00:00:00	2024-11-06T01:00:00	1	Precipitación	0
158600	7	Sololá	701	Sololá	2	El tablón	6	Junio	2023-07-06T00:00:00	2024-11-06T01:00:00	8	Radiación solar	0
158601	7	Sololá	701	Sololá	2	El tablón	6	Junio	2023-07-06T00:00:00	2024-11-06T02:00:00	2	Temperatura media	12.2
158602	7	Sololá	701	Sololá	2	El tablón	6	Junio	2023-07-06T00:00:00	2024-11-06T02:00:00	4	Temperatura máxima	12.7
158603	7	Sololá	701	Sololá	2	El tablón	6	Junio	2023-07-06T00:00:00	2024-11-06T02:00:00	3	Temperatura mínima	12.2
158604	7	Sololá	701	Sololá	2	El tablón	6	Junio	2023-07-06T00:00:00	2024-11-06T02:00:00	5	Humedad	89
158605	7	Sololá	701	Sololá	2	El tablón	6	Junio	2023-07-06T00:00:00	2024-11-06T02:00:00	6	Velocidad del viento	1.6
158606	7	Sololá	701	Sololá	2	El tablón	6	Junio	2023-07-06T00:00:00	2024-11-06T02:00:00	7	Dirección del viento	1.61
158607	7	Sololá	701	Sololá	2	El tablón	6	Junio	2023-07-06T00:00:00	2024-11-06T02:00:00	1	Precipitación	0
158608	7	Sololá	701	Sololá	2	El tablón	6	Junio	2023-07-06T00:00:00	2024-11-06T02:00:00	8	Radiación solar	0
158609	7	Sololá	701	Sololá	2	El tablón	6	Junio	2023-07-06T00:00:00	2024-11-06T03:00:00	2	Temperatura media	11.3
158610	7	Sololá	701	Sololá	2	El tablón	6	Junio	2023-07-06T00:00:00	2024-11-06T03:00:00	4	Temperatura máxima	12.6
158611	7	Sololá	701	Sololá	2	El tablón	6	Junio	2023-07-06T00:00:00	2024-11-06T03:00:00	3	Temperatura mínima	11.3
158612	7	Sololá	701	Sololá	2	El tablón	6	Junio	2023-07-06T00:00:00	2024-11-06T03:00:00	5	Humedad	89
158613	7	Sololá	701	Sololá	2	El tablón	6	Junio	2023-07-06T00:00:00	2024-11-06T03:00:00	6	Velocidad del viento	1.6
158614	7	Sololá	701	Sololá	2	El tablón	6	Junio	2023-07-06T00:00:00	2024-11-06T03:00:00	7	Dirección del viento	1.61
158615	7	Sololá	701	Sololá	2	El tablón	6	Junio	2023-07-06T00:00:00	2024-11-06T03:00:00	1	Precipitación	0
158616	7	Sololá	701	Sololá	2	El tablón	6	Junio	2023-07-06T00:00:00	2024-11-06T03:00:00	8	Radiación solar	0
158617	7	Sololá	701	Sololá	2	El tablón	6	Junio	2023-07-06T00:00:00	2024-11-06T04:00:00	2	Temperatura media	11.3
158618	7	Sololá	701	Sololá	2	El tablón	6	Junio	2023-07-06T00:00:00	2024-11-06T04:00:00	4	Temperatura máxima	11.4
158619	7	Sololá	701	Sololá	2	El tablón	6	Junio	2023-07-06T00:00:00	2024-11-06T04:00:00	3	Temperatura mínima	11.2
158620	7	Sololá	701	Sololá	2	El tablón	6	Junio	2023-07-06T00:00:00	2024-11-06T04:00:00	5	Humedad	88
158621	7	Sololá	701	Sololá	2	El tablón	6	Junio	2023-07-06T00:00:00	2024-11-06T04:00:00	6	Velocidad del viento	1.6
158622	7	Sololá	701	Sololá	2	El tablón	6	Junio	2023-07-06T00:00:00	2024-11-06T04:00:00	7	Dirección del viento	1.61
158623	7	Sololá	701	Sololá	2	El tablón	6	Junio	2023-07-06T00:00:00	2024-11-06T04:00:00	1	Precipitación	0
158624	7	Sololá	701	Sololá	2	El tablón	6	Junio	2023-07-06T00:00:00	2024-11-06T04:00:00	8	Radiación solar	0
158625	7	Sololá	701	Sololá	2	El tablón	6	Junio	2023-07-06T00:00:00	2024-11-06T05:00:00	2	Temperatura media	11.7
158626	7	Sololá	701	Sololá	2	El tablón	6	Junio	2023-07-06T00:00:00	2024-11-06T05:00:00	4	Temperatura máxima	11.8
158627	7	Sololá	701	Sololá	2	El tablón	6	Junio	2023-07-06T00:00:00	2024-11-06T05:00:00	3	Temperatura mínima	10.9
158628	7	Sololá	701	Sololá	2	El tablón	6	Junio	2023-07-06T00:00:00	2024-11-06T05:00:00	5	Humedad	88
158629	7	Sololá	701	Sololá	2	El tablón	6	Junio	2023-07-06T00:00:00	2024-11-06T05:00:00	6	Velocidad del viento	3.2
158630	7	Sololá	701	Sololá	2	El tablón	6	Junio	2023-07-06T00:00:00	2024-11-06T05:00:00	7	Dirección del viento	3.22
158631	7	Sololá	701	Sololá	2	El tablón	6	Junio	2023-07-06T00:00:00	2024-11-06T05:00:00	1	Precipitación	0
158632	7	Sololá	701	Sololá	2	El tablón	6	Junio	2023-07-06T00:00:00	2024-11-06T05:00:00	8	Radiación solar	0
158633	7	Sololá	701	Sololá	2	El tablón	6	Junio	2023-07-06T00:00:00	2024-11-06T06:00:00	2	Temperatura media	11.9
158634	7	Sololá	701	Sololá	2	El tablón	6	Junio	2023-07-06T00:00:00	2024-11-06T06:00:00	4	Temperatura máxima	12.3
158635	7	Sololá	701	Sololá	2	El tablón	6	Junio	2023-07-06T00:00:00	2024-11-06T06:00:00	3	Temperatura mínima	11.7
158636	7	Sololá	701	Sololá	2	El tablón	6	Junio	2023-07-06T00:00:00	2024-11-06T06:00:00	5	Humedad	88
158637	7	Sololá	701	Sololá	2	El tablón	6	Junio	2023-07-06T00:00:00	2024-11-06T06:00:00	6	Velocidad del viento	3.2
158638	7	Sololá	701	Sololá	2	El tablón	6	Junio	2023-07-06T00:00:00	2024-11-06T06:00:00	7	Dirección del viento	3.22
158639	7	Sololá	701	Sololá	2	El tablón	6	Junio	2023-07-06T00:00:00	2024-11-06T06:00:00	1	Precipitación	0
158640	7	Sololá	701	Sololá	2	El tablón	6	Junio	2023-07-06T00:00:00	2024-11-06T06:00:00	8	Radiación solar	6
158641	7	Sololá	701	Sololá	2	El tablón	6	Junio	2023-07-06T00:00:00	2024-11-06T07:00:00	2	Temperatura media	13.1
158642	7	Sololá	701	Sololá	2	El tablón	6	Junio	2023-07-06T00:00:00	2024-11-06T07:00:00	4	Temperatura máxima	13.1
158643	7	Sololá	701	Sololá	2	El tablón	6	Junio	2023-07-06T00:00:00	2024-11-06T07:00:00	3	Temperatura mínima	11.9
158644	7	Sololá	701	Sololá	2	El tablón	6	Junio	2023-07-06T00:00:00	2024-11-06T07:00:00	5	Humedad	86
158645	7	Sololá	701	Sololá	2	El tablón	6	Junio	2023-07-06T00:00:00	2024-11-06T07:00:00	6	Velocidad del viento	1.6
158646	7	Sololá	701	Sololá	2	El tablón	6	Junio	2023-07-06T00:00:00	2024-11-06T07:00:00	7	Dirección del viento	1.61
158647	7	Sololá	701	Sololá	2	El tablón	6	Junio	2023-07-06T00:00:00	2024-11-06T07:00:00	1	Precipitación	0
158648	7	Sololá	701	Sololá	2	El tablón	6	Junio	2023-07-06T00:00:00	2024-11-06T07:00:00	8	Radiación solar	99
158649	7	Sololá	701	Sololá	2	El tablón	6	Junio	2023-07-06T00:00:00	2024-11-06T08:00:00	2	Temperatura media	15.8
158650	7	Sololá	701	Sololá	2	El tablón	6	Junio	2023-07-06T00:00:00	2024-11-06T08:00:00	4	Temperatura máxima	15.8
158651	7	Sololá	701	Sololá	2	El tablón	6	Junio	2023-07-06T00:00:00	2024-11-06T08:00:00	3	Temperatura mínima	13.1
158652	7	Sololá	701	Sololá	2	El tablón	6	Junio	2023-07-06T00:00:00	2024-11-06T08:00:00	5	Humedad	80
158653	7	Sololá	701	Sololá	2	El tablón	6	Junio	2023-07-06T00:00:00	2024-11-06T08:00:00	6	Velocidad del viento	0
158654	7	Sololá	701	Sololá	2	El tablón	6	Junio	2023-07-06T00:00:00	2024-11-06T08:00:00	7	Dirección del viento	0
158655	7	Sololá	701	Sololá	2	El tablón	6	Junio	2023-07-06T00:00:00	2024-11-06T08:00:00	1	Precipitación	0
158656	7	Sololá	701	Sololá	2	El tablón	6	Junio	2023-07-06T00:00:00	2024-11-06T08:00:00	8	Radiación solar	229
158657	7	Sololá	701	Sololá	2	El tablón	6	Junio	2023-07-06T00:00:00	2024-11-06T09:00:00	2	Temperatura media	16.3
158658	7	Sololá	701	Sololá	2	El tablón	6	Junio	2023-07-06T00:00:00	2024-11-06T09:00:00	4	Temperatura máxima	16.3
158659	7	Sololá	701	Sololá	2	El tablón	6	Junio	2023-07-06T00:00:00	2024-11-06T09:00:00	3	Temperatura mínima	15.8
158660	7	Sololá	701	Sololá	2	El tablón	6	Junio	2023-07-06T00:00:00	2024-11-06T09:00:00	5	Humedad	84
158661	7	Sololá	701	Sololá	2	El tablón	6	Junio	2023-07-06T00:00:00	2024-11-06T09:00:00	6	Velocidad del viento	3.2
158662	7	Sololá	701	Sololá	2	El tablón	6	Junio	2023-07-06T00:00:00	2024-11-06T09:00:00	7	Dirección del viento	3.22
158663	7	Sololá	701	Sololá	2	El tablón	6	Junio	2023-07-06T00:00:00	2024-11-06T09:00:00	1	Precipitación	0
158664	7	Sololá	701	Sololá	2	El tablón	6	Junio	2023-07-06T00:00:00	2024-11-06T09:00:00	8	Radiación solar	408
158665	7	Sololá	701	Sololá	2	El tablón	6	Junio	2023-07-06T00:00:00	2024-11-06T10:00:00	2	Temperatura media	18.3
158666	7	Sololá	701	Sololá	2	El tablón	6	Junio	2023-07-06T00:00:00	2024-11-06T10:00:00	4	Temperatura máxima	18.3
158667	7	Sololá	701	Sololá	2	El tablón	6	Junio	2023-07-06T00:00:00	2024-11-06T10:00:00	3	Temperatura mínima	16.3
158668	7	Sololá	701	Sololá	2	El tablón	6	Junio	2023-07-06T00:00:00	2024-11-06T10:00:00	5	Humedad	75
158669	7	Sololá	701	Sololá	2	El tablón	6	Junio	2023-07-06T00:00:00	2024-11-06T10:00:00	6	Velocidad del viento	6.4
158670	7	Sololá	701	Sololá	2	El tablón	6	Junio	2023-07-06T00:00:00	2024-11-06T10:00:00	7	Dirección del viento	6.44
158671	7	Sololá	701	Sololá	2	El tablón	6	Junio	2023-07-06T00:00:00	2024-11-06T10:00:00	1	Precipitación	0
158672	7	Sololá	701	Sololá	2	El tablón	6	Junio	2023-07-06T00:00:00	2024-11-06T10:00:00	8	Radiación solar	674
158673	7	Sololá	701	Sololá	2	El tablón	6	Junio	2023-07-06T00:00:00	2024-11-06T11:00:00	2	Temperatura media	19.8
158674	7	Sololá	701	Sololá	2	El tablón	6	Junio	2023-07-06T00:00:00	2024-11-06T11:00:00	4	Temperatura máxima	19.8
158675	7	Sololá	701	Sololá	2	El tablón	6	Junio	2023-07-06T00:00:00	2024-11-06T11:00:00	3	Temperatura mínima	18.3
158676	7	Sololá	701	Sololá	2	El tablón	6	Junio	2023-07-06T00:00:00	2024-11-06T11:00:00	5	Humedad	67
158677	7	Sololá	701	Sololá	2	El tablón	6	Junio	2023-07-06T00:00:00	2024-11-06T11:00:00	6	Velocidad del viento	8
158678	7	Sololá	701	Sololá	2	El tablón	6	Junio	2023-07-06T00:00:00	2024-11-06T11:00:00	7	Dirección del viento	8.05
158679	7	Sololá	701	Sololá	2	El tablón	6	Junio	2023-07-06T00:00:00	2024-11-06T11:00:00	1	Precipitación	0
158680	7	Sololá	701	Sololá	2	El tablón	6	Junio	2023-07-06T00:00:00	2024-11-06T11:00:00	8	Radiación solar	890
158681	7	Sololá	701	Sololá	2	El tablón	6	Junio	2023-07-06T00:00:00	2024-11-06T12:00:00	2	Temperatura media	17.9
158682	7	Sololá	701	Sololá	2	El tablón	6	Junio	2023-07-06T00:00:00	2024-11-06T12:00:00	4	Temperatura máxima	20.1
158683	7	Sololá	701	Sololá	2	El tablón	6	Junio	2023-07-06T00:00:00	2024-11-06T12:00:00	3	Temperatura mínima	17.9
158684	7	Sololá	701	Sololá	2	El tablón	6	Junio	2023-07-06T00:00:00	2024-11-06T12:00:00	5	Humedad	84
158685	7	Sololá	701	Sololá	2	El tablón	6	Junio	2023-07-06T00:00:00	2024-11-06T12:00:00	6	Velocidad del viento	9.7
158686	7	Sololá	701	Sololá	2	El tablón	6	Junio	2023-07-06T00:00:00	2024-11-06T12:00:00	7	Dirección del viento	9.66
158687	7	Sololá	701	Sololá	2	El tablón	6	Junio	2023-07-06T00:00:00	2024-11-06T12:00:00	1	Precipitación	0
158688	7	Sololá	701	Sololá	2	El tablón	6	Junio	2023-07-06T00:00:00	2024-11-06T12:00:00	8	Radiación solar	915
158689	7	Sololá	701	Sololá	2	El tablón	6	Junio	2023-07-06T00:00:00	2024-11-06T13:00:00	2	Temperatura media	16.9
158690	7	Sololá	701	Sololá	2	El tablón	6	Junio	2023-07-06T00:00:00	2024-11-06T13:00:00	4	Temperatura máxima	18.2
158691	7	Sololá	701	Sololá	2	El tablón	6	Junio	2023-07-06T00:00:00	2024-11-06T13:00:00	3	Temperatura mínima	16.9
158692	7	Sololá	701	Sololá	2	El tablón	6	Junio	2023-07-06T00:00:00	2024-11-06T13:00:00	5	Humedad	86
158693	7	Sololá	701	Sololá	2	El tablón	6	Junio	2023-07-06T00:00:00	2024-11-06T13:00:00	6	Velocidad del viento	9.7
158694	7	Sololá	701	Sololá	2	El tablón	6	Junio	2023-07-06T00:00:00	2024-11-06T13:00:00	7	Dirección del viento	9.66
158695	7	Sololá	701	Sololá	2	El tablón	6	Junio	2023-07-06T00:00:00	2024-11-06T13:00:00	1	Precipitación	0
158696	7	Sololá	701	Sololá	2	El tablón	6	Junio	2023-07-06T00:00:00	2024-11-06T13:00:00	8	Radiación solar	714
158697	7	Sololá	701	Sololá	2	El tablón	6	Junio	2023-07-06T00:00:00	2024-11-06T14:00:00	2	Temperatura media	15.1
158698	7	Sololá	701	Sololá	2	El tablón	6	Junio	2023-07-06T00:00:00	2024-11-06T14:00:00	4	Temperatura máxima	16.9
158699	7	Sololá	701	Sololá	2	El tablón	6	Junio	2023-07-06T00:00:00	2024-11-06T14:00:00	3	Temperatura mínima	15.1
158700	7	Sololá	701	Sololá	2	El tablón	6	Junio	2023-07-06T00:00:00	2024-11-06T14:00:00	5	Humedad	88
158701	7	Sololá	701	Sololá	2	El tablón	6	Junio	2023-07-06T00:00:00	2024-11-06T14:00:00	6	Velocidad del viento	6.4
158702	7	Sololá	701	Sololá	2	El tablón	6	Junio	2023-07-06T00:00:00	2024-11-06T14:00:00	7	Dirección del viento	6.44
158703	7	Sololá	701	Sololá	2	El tablón	6	Junio	2023-07-06T00:00:00	2024-11-06T14:00:00	1	Precipitación	2.6
158704	7	Sololá	701	Sololá	2	El tablón	6	Junio	2023-07-06T00:00:00	2024-11-06T14:00:00	8	Radiación solar	100
158705	7	Sololá	701	Sololá	2	El tablón	6	Junio	2023-07-06T00:00:00	2024-11-06T15:00:00	2	Temperatura media	15.7
158706	7	Sololá	701	Sololá	2	El tablón	6	Junio	2023-07-06T00:00:00	2024-11-06T15:00:00	4	Temperatura máxima	15.9
158707	7	Sololá	701	Sololá	2	El tablón	6	Junio	2023-07-06T00:00:00	2024-11-06T15:00:00	3	Temperatura mínima	15.1
158708	7	Sololá	701	Sololá	2	El tablón	6	Junio	2023-07-06T00:00:00	2024-11-06T15:00:00	5	Humedad	88
158709	7	Sololá	701	Sololá	2	El tablón	6	Junio	2023-07-06T00:00:00	2024-11-06T15:00:00	6	Velocidad del viento	3.2
158710	7	Sololá	701	Sololá	2	El tablón	6	Junio	2023-07-06T00:00:00	2024-11-06T15:00:00	7	Dirección del viento	3.22
158711	7	Sololá	701	Sololá	2	El tablón	6	Junio	2023-07-06T00:00:00	2024-11-06T15:00:00	1	Precipitación	3.2
158712	7	Sololá	701	Sololá	2	El tablón	6	Junio	2023-07-06T00:00:00	2024-11-06T15:00:00	8	Radiación solar	199
158713	7	Sololá	701	Sololá	2	El tablón	6	Junio	2023-07-06T00:00:00	2024-11-06T16:00:00	2	Temperatura media	15.5
158714	7	Sololá	701	Sololá	2	El tablón	6	Junio	2023-07-06T00:00:00	2024-11-06T16:00:00	4	Temperatura máxima	15.7
158715	7	Sololá	701	Sololá	2	El tablón	6	Junio	2023-07-06T00:00:00	2024-11-06T16:00:00	3	Temperatura mínima	15.3
158716	7	Sololá	701	Sololá	2	El tablón	6	Junio	2023-07-06T00:00:00	2024-11-06T16:00:00	5	Humedad	88
158717	7	Sololá	701	Sololá	2	El tablón	6	Junio	2023-07-06T00:00:00	2024-11-06T16:00:00	6	Velocidad del viento	3.2
158718	7	Sololá	701	Sololá	2	El tablón	6	Junio	2023-07-06T00:00:00	2024-11-06T16:00:00	7	Dirección del viento	3.22
158719	7	Sololá	701	Sololá	2	El tablón	6	Junio	2023-07-06T00:00:00	2024-11-06T16:00:00	1	Precipitación	0
158720	7	Sololá	701	Sololá	2	El tablón	6	Junio	2023-07-06T00:00:00	2024-11-06T16:00:00	8	Radiación solar	143
158721	7	Sololá	701	Sololá	2	El tablón	6	Junio	2023-07-06T00:00:00	2024-11-06T17:00:00	2	Temperatura media	15.8
158722	7	Sololá	701	Sololá	2	El tablón	6	Junio	2023-07-06T00:00:00	2024-11-06T17:00:00	4	Temperatura máxima	16.5
158723	7	Sololá	701	Sololá	2	El tablón	6	Junio	2023-07-06T00:00:00	2024-11-06T17:00:00	3	Temperatura mínima	15.5
158724	7	Sololá	701	Sololá	2	El tablón	6	Junio	2023-07-06T00:00:00	2024-11-06T17:00:00	5	Humedad	88
158725	7	Sololá	701	Sololá	2	El tablón	6	Junio	2023-07-06T00:00:00	2024-11-06T17:00:00	6	Velocidad del viento	3.2
158726	7	Sololá	701	Sololá	2	El tablón	6	Junio	2023-07-06T00:00:00	2024-11-06T17:00:00	7	Dirección del viento	3.22
158727	7	Sololá	701	Sololá	2	El tablón	6	Junio	2023-07-06T00:00:00	2024-11-06T17:00:00	1	Precipitación	0
158728	7	Sololá	701	Sololá	2	El tablón	6	Junio	2023-07-06T00:00:00	2024-11-06T17:00:00	8	Radiación solar	200
158729	7	Sololá	701	Sololá	2	El tablón	6	Junio	2023-07-06T00:00:00	2024-11-06T18:00:00	2	Temperatura media	15.2
158730	7	Sololá	701	Sololá	2	El tablón	6	Junio	2023-07-06T00:00:00	2024-11-06T18:00:00	4	Temperatura máxima	15.8
158731	7	Sololá	701	Sololá	2	El tablón	6	Junio	2023-07-06T00:00:00	2024-11-06T18:00:00	3	Temperatura mínima	15.2
158732	7	Sololá	701	Sololá	2	El tablón	6	Junio	2023-07-06T00:00:00	2024-11-06T18:00:00	5	Humedad	88
158733	7	Sololá	701	Sololá	2	El tablón	6	Junio	2023-07-06T00:00:00	2024-11-06T18:00:00	6	Velocidad del viento	1.6
158734	7	Sololá	701	Sololá	2	El tablón	6	Junio	2023-07-06T00:00:00	2024-11-06T18:00:00	7	Dirección del viento	1.61
158735	7	Sololá	701	Sololá	2	El tablón	6	Junio	2023-07-06T00:00:00	2024-11-06T18:00:00	1	Precipitación	0
158736	7	Sololá	701	Sololá	2	El tablón	6	Junio	2023-07-06T00:00:00	2024-11-06T18:00:00	8	Radiación solar	17
158737	7	Sololá	701	Sololá	2	El tablón	6	Junio	2023-07-06T00:00:00	2024-11-06T19:00:00	2	Temperatura media	14.7
158738	7	Sololá	701	Sololá	2	El tablón	6	Junio	2023-07-06T00:00:00	2024-11-06T19:00:00	4	Temperatura máxima	15.2
158739	7	Sololá	701	Sololá	2	El tablón	6	Junio	2023-07-06T00:00:00	2024-11-06T19:00:00	3	Temperatura mínima	14.7
158740	7	Sololá	701	Sololá	2	El tablón	6	Junio	2023-07-06T00:00:00	2024-11-06T19:00:00	5	Humedad	88
158741	7	Sololá	701	Sololá	2	El tablón	6	Junio	2023-07-06T00:00:00	2024-11-06T19:00:00	6	Velocidad del viento	1.6
158742	7	Sololá	701	Sololá	2	El tablón	6	Junio	2023-07-06T00:00:00	2024-11-06T19:00:00	7	Dirección del viento	1.61
158743	7	Sololá	701	Sololá	2	El tablón	6	Junio	2023-07-06T00:00:00	2024-11-06T19:00:00	1	Precipitación	0
158744	7	Sololá	701	Sololá	2	El tablón	6	Junio	2023-07-06T00:00:00	2024-11-06T19:00:00	8	Radiación solar	0
158745	7	Sololá	701	Sololá	2	El tablón	6	Junio	2023-07-06T00:00:00	2024-11-06T20:00:00	2	Temperatura media	14.5
158746	7	Sololá	701	Sololá	2	El tablón	6	Junio	2023-07-06T00:00:00	2024-11-06T20:00:00	4	Temperatura máxima	14.8
158747	7	Sololá	701	Sololá	2	El tablón	6	Junio	2023-07-06T00:00:00	2024-11-06T20:00:00	3	Temperatura mínima	14.5
158748	7	Sololá	701	Sololá	2	El tablón	6	Junio	2023-07-06T00:00:00	2024-11-06T20:00:00	5	Humedad	87
158749	7	Sololá	701	Sololá	2	El tablón	6	Junio	2023-07-06T00:00:00	2024-11-06T20:00:00	6	Velocidad del viento	0
158750	7	Sololá	701	Sololá	2	El tablón	6	Junio	2023-07-06T00:00:00	2024-11-06T20:00:00	7	Dirección del viento	0
158751	7	Sololá	701	Sololá	2	El tablón	6	Junio	2023-07-06T00:00:00	2024-11-06T20:00:00	1	Precipitación	0
158752	7	Sololá	701	Sololá	2	El tablón	6	Junio	2023-07-06T00:00:00	2024-11-06T20:00:00	8	Radiación solar	0
158753	7	Sololá	701	Sololá	2	El tablón	6	Junio	2023-07-06T00:00:00	2024-11-06T21:00:00	2	Temperatura media	14.3
158754	7	Sololá	701	Sololá	2	El tablón	6	Junio	2023-07-06T00:00:00	2024-11-06T21:00:00	4	Temperatura máxima	14.5
158755	7	Sololá	701	Sololá	2	El tablón	6	Junio	2023-07-06T00:00:00	2024-11-06T21:00:00	3	Temperatura mínima	14.3
158756	7	Sololá	701	Sololá	2	El tablón	6	Junio	2023-07-06T00:00:00	2024-11-06T21:00:00	5	Humedad	88
158757	7	Sololá	701	Sololá	2	El tablón	6	Junio	2023-07-06T00:00:00	2024-11-06T21:00:00	6	Velocidad del viento	0
158758	7	Sololá	701	Sololá	2	El tablón	6	Junio	2023-07-06T00:00:00	2024-11-06T21:00:00	7	Dirección del viento	0
158759	7	Sololá	701	Sololá	2	El tablón	6	Junio	2023-07-06T00:00:00	2024-11-06T21:00:00	1	Precipitación	0
158760	7	Sololá	701	Sololá	2	El tablón	6	Junio	2023-07-06T00:00:00	2024-11-06T21:00:00	8	Radiación solar	0
158761	7	Sololá	701	Sololá	2	El tablón	6	Junio	2023-07-06T00:00:00	2024-11-06T22:00:00	2	Temperatura media	14.2
158762	7	Sololá	701	Sololá	2	El tablón	6	Junio	2023-07-06T00:00:00	2024-11-06T22:00:00	4	Temperatura máxima	14.3
158763	7	Sololá	701	Sololá	2	El tablón	6	Junio	2023-07-06T00:00:00	2024-11-06T22:00:00	3	Temperatura mínima	14.2
158764	7	Sololá	701	Sololá	2	El tablón	6	Junio	2023-07-06T00:00:00	2024-11-06T22:00:00	5	Humedad	87
158765	7	Sololá	701	Sololá	2	El tablón	6	Junio	2023-07-06T00:00:00	2024-11-06T22:00:00	6	Velocidad del viento	0
158766	7	Sololá	701	Sololá	2	El tablón	6	Junio	2023-07-06T00:00:00	2024-11-06T22:00:00	7	Dirección del viento	0
158767	7	Sololá	701	Sololá	2	El tablón	6	Junio	2023-07-06T00:00:00	2024-11-06T22:00:00	1	Precipitación	0
158768	7	Sololá	701	Sololá	2	El tablón	6	Junio	2023-07-06T00:00:00	2024-11-06T22:00:00	8	Radiación solar	0
158769	7	Sololá	701	Sololá	2	El tablón	6	Junio	2023-07-06T00:00:00	2024-11-06T23:00:00	2	Temperatura media	14.1
158770	7	Sololá	701	Sololá	2	El tablón	6	Junio	2023-07-06T00:00:00	2024-11-06T23:00:00	4	Temperatura máxima	14.2
158771	7	Sololá	701	Sololá	2	El tablón	6	Junio	2023-07-06T00:00:00	2024-11-06T23:00:00	3	Temperatura mínima	14.1
158772	7	Sololá	701	Sololá	2	El tablón	6	Junio	2023-07-06T00:00:00	2024-11-06T23:00:00	5	Humedad	87
158773	7	Sololá	701	Sololá	2	El tablón	6	Junio	2023-07-06T00:00:00	2024-11-06T23:00:00	6	Velocidad del viento	0
158774	7	Sololá	701	Sololá	2	El tablón	6	Junio	2023-07-06T00:00:00	2024-11-06T23:00:00	7	Dirección del viento	0
158775	7	Sololá	701	Sololá	2	El tablón	6	Junio	2023-07-06T00:00:00	2024-11-06T23:00:00	1	Precipitación	0
158776	7	Sololá	701	Sololá	2	El tablón	6	Junio	2023-07-06T00:00:00	2024-11-06T23:00:00	8	Radiación solar	0
158777	7	Sololá	701	Sololá	2	El tablón	6	Junio	2023-08-06T00:00:00	2024-11-06T00:00:00	2	Temperatura media	13.9
158778	7	Sololá	701	Sololá	2	El tablón	6	Junio	2023-08-06T00:00:00	2024-11-06T00:00:00	4	Temperatura máxima	14.1
158779	7	Sololá	701	Sololá	2	El tablón	6	Junio	2023-08-06T00:00:00	2024-11-06T00:00:00	3	Temperatura mínima	13.8
158780	7	Sololá	701	Sololá	2	El tablón	6	Junio	2023-08-06T00:00:00	2024-11-06T00:00:00	5	Humedad	87
158781	7	Sololá	701	Sololá	2	El tablón	6	Junio	2023-08-06T00:00:00	2024-11-06T00:00:00	6	Velocidad del viento	0
158782	7	Sololá	701	Sololá	2	El tablón	6	Junio	2023-08-06T00:00:00	2024-11-06T00:00:00	7	Dirección del viento	0
158783	7	Sololá	701	Sololá	2	El tablón	6	Junio	2023-08-06T00:00:00	2024-11-06T00:00:00	1	Precipitación	0
158784	7	Sololá	701	Sololá	2	El tablón	6	Junio	2023-08-06T00:00:00	2024-11-06T00:00:00	8	Radiación solar	0
158785	7	Sololá	701	Sololá	2	El tablón	6	Junio	2023-08-06T00:00:00	2024-11-06T01:00:00	2	Temperatura media	13.5
158786	7	Sololá	701	Sololá	2	El tablón	6	Junio	2023-08-06T00:00:00	2024-11-06T01:00:00	4	Temperatura máxima	13.9
158787	7	Sololá	701	Sololá	2	El tablón	6	Junio	2023-08-06T00:00:00	2024-11-06T01:00:00	3	Temperatura mínima	13.5
158788	7	Sololá	701	Sololá	2	El tablón	6	Junio	2023-08-06T00:00:00	2024-11-06T01:00:00	5	Humedad	87
158789	7	Sololá	701	Sololá	2	El tablón	6	Junio	2023-08-06T00:00:00	2024-11-06T01:00:00	6	Velocidad del viento	0
158790	7	Sololá	701	Sololá	2	El tablón	6	Junio	2023-08-06T00:00:00	2024-11-06T01:00:00	7	Dirección del viento	0
158791	7	Sololá	701	Sololá	2	El tablón	6	Junio	2023-08-06T00:00:00	2024-11-06T01:00:00	1	Precipitación	0
158792	7	Sololá	701	Sololá	2	El tablón	6	Junio	2023-08-06T00:00:00	2024-11-06T01:00:00	8	Radiación solar	0
158793	7	Sololá	701	Sololá	2	El tablón	6	Junio	2023-08-06T00:00:00	2024-11-06T02:00:00	2	Temperatura media	12.7
158794	7	Sololá	701	Sololá	2	El tablón	6	Junio	2023-08-06T00:00:00	2024-11-06T02:00:00	4	Temperatura máxima	13.5
158795	7	Sololá	701	Sololá	2	El tablón	6	Junio	2023-08-06T00:00:00	2024-11-06T02:00:00	3	Temperatura mínima	12.7
158796	7	Sololá	701	Sololá	2	El tablón	6	Junio	2023-08-06T00:00:00	2024-11-06T02:00:00	5	Humedad	88
158797	7	Sololá	701	Sololá	2	El tablón	6	Junio	2023-08-06T00:00:00	2024-11-06T02:00:00	6	Velocidad del viento	1.6
158798	7	Sololá	701	Sololá	2	El tablón	6	Junio	2023-08-06T00:00:00	2024-11-06T02:00:00	7	Dirección del viento	1.61
158799	7	Sololá	701	Sololá	2	El tablón	6	Junio	2023-08-06T00:00:00	2024-11-06T02:00:00	1	Precipitación	0
158800	7	Sololá	701	Sololá	2	El tablón	6	Junio	2023-08-06T00:00:00	2024-11-06T02:00:00	8	Radiación solar	0
158801	7	Sololá	701	Sololá	2	El tablón	6	Junio	2023-08-06T00:00:00	2024-11-06T03:00:00	2	Temperatura media	12.1
158802	7	Sololá	701	Sololá	2	El tablón	6	Junio	2023-08-06T00:00:00	2024-11-06T03:00:00	4	Temperatura máxima	12.8
158803	7	Sololá	701	Sololá	2	El tablón	6	Junio	2023-08-06T00:00:00	2024-11-06T03:00:00	3	Temperatura mínima	12.1
158804	7	Sololá	701	Sololá	2	El tablón	6	Junio	2023-08-06T00:00:00	2024-11-06T03:00:00	5	Humedad	88
158805	7	Sololá	701	Sololá	2	El tablón	6	Junio	2023-08-06T00:00:00	2024-11-06T03:00:00	6	Velocidad del viento	1.6
158806	7	Sololá	701	Sololá	2	El tablón	6	Junio	2023-08-06T00:00:00	2024-11-06T03:00:00	7	Dirección del viento	1.61
158807	7	Sololá	701	Sololá	2	El tablón	6	Junio	2023-08-06T00:00:00	2024-11-06T03:00:00	1	Precipitación	0
158808	7	Sololá	701	Sololá	2	El tablón	6	Junio	2023-08-06T00:00:00	2024-11-06T03:00:00	8	Radiación solar	0
158809	7	Sololá	701	Sololá	2	El tablón	6	Junio	2023-08-06T00:00:00	2024-11-06T04:00:00	2	Temperatura media	12
158810	7	Sololá	701	Sololá	2	El tablón	6	Junio	2023-08-06T00:00:00	2024-11-06T04:00:00	4	Temperatura máxima	12.4
158811	7	Sololá	701	Sololá	2	El tablón	6	Junio	2023-08-06T00:00:00	2024-11-06T04:00:00	3	Temperatura mínima	11.9
158812	7	Sololá	701	Sololá	2	El tablón	6	Junio	2023-08-06T00:00:00	2024-11-06T04:00:00	5	Humedad	89
158813	7	Sololá	701	Sololá	2	El tablón	6	Junio	2023-08-06T00:00:00	2024-11-06T04:00:00	6	Velocidad del viento	1.6
158814	7	Sololá	701	Sololá	2	El tablón	6	Junio	2023-08-06T00:00:00	2024-11-06T04:00:00	7	Dirección del viento	1.61
158815	7	Sololá	701	Sololá	2	El tablón	6	Junio	2023-08-06T00:00:00	2024-11-06T04:00:00	1	Precipitación	0
158816	7	Sololá	701	Sololá	2	El tablón	6	Junio	2023-08-06T00:00:00	2024-11-06T04:00:00	8	Radiación solar	0
158817	7	Sololá	701	Sololá	2	El tablón	6	Junio	2023-08-06T00:00:00	2024-11-06T05:00:00	2	Temperatura media	11.7
158818	7	Sololá	701	Sololá	2	El tablón	6	Junio	2023-08-06T00:00:00	2024-11-06T05:00:00	4	Temperatura máxima	12.4
158819	7	Sololá	701	Sololá	2	El tablón	6	Junio	2023-08-06T00:00:00	2024-11-06T05:00:00	3	Temperatura mínima	11.7
158820	7	Sololá	701	Sololá	2	El tablón	6	Junio	2023-08-06T00:00:00	2024-11-06T05:00:00	5	Humedad	89
158821	7	Sololá	701	Sololá	2	El tablón	6	Junio	2023-08-06T00:00:00	2024-11-06T05:00:00	6	Velocidad del viento	1.6
158822	7	Sololá	701	Sololá	2	El tablón	6	Junio	2023-08-06T00:00:00	2024-11-06T05:00:00	7	Dirección del viento	1.61
158823	7	Sololá	701	Sololá	2	El tablón	6	Junio	2023-08-06T00:00:00	2024-11-06T05:00:00	1	Precipitación	0
158824	7	Sololá	701	Sololá	2	El tablón	6	Junio	2023-08-06T00:00:00	2024-11-06T05:00:00	8	Radiación solar	0
158825	7	Sololá	701	Sololá	2	El tablón	6	Junio	2023-08-06T00:00:00	2024-11-06T06:00:00	2	Temperatura media	11.4
158826	7	Sololá	701	Sololá	2	El tablón	6	Junio	2023-08-06T00:00:00	2024-11-06T06:00:00	4	Temperatura máxima	11.7
158827	7	Sololá	701	Sololá	2	El tablón	6	Junio	2023-08-06T00:00:00	2024-11-06T06:00:00	3	Temperatura mínima	11.2
158828	7	Sololá	701	Sololá	2	El tablón	6	Junio	2023-08-06T00:00:00	2024-11-06T06:00:00	5	Humedad	89
158829	7	Sololá	701	Sololá	2	El tablón	6	Junio	2023-08-06T00:00:00	2024-11-06T06:00:00	6	Velocidad del viento	1.6
158830	7	Sololá	701	Sololá	2	El tablón	6	Junio	2023-08-06T00:00:00	2024-11-06T06:00:00	7	Dirección del viento	1.61
158831	7	Sololá	701	Sololá	2	El tablón	6	Junio	2023-08-06T00:00:00	2024-11-06T06:00:00	1	Precipitación	0
158832	7	Sololá	701	Sololá	2	El tablón	6	Junio	2023-08-06T00:00:00	2024-11-06T06:00:00	8	Radiación solar	4
158833	7	Sololá	701	Sololá	2	El tablón	6	Junio	2023-08-06T00:00:00	2024-11-06T07:00:00	2	Temperatura media	13.2
158834	7	Sololá	701	Sololá	2	El tablón	6	Junio	2023-08-06T00:00:00	2024-11-06T07:00:00	4	Temperatura máxima	13.2
158835	7	Sololá	701	Sololá	2	El tablón	6	Junio	2023-08-06T00:00:00	2024-11-06T07:00:00	3	Temperatura mínima	11.4
158836	7	Sololá	701	Sololá	2	El tablón	6	Junio	2023-08-06T00:00:00	2024-11-06T07:00:00	5	Humedad	88
158837	7	Sololá	701	Sololá	2	El tablón	6	Junio	2023-08-06T00:00:00	2024-11-06T07:00:00	6	Velocidad del viento	1.6
158838	7	Sololá	701	Sololá	2	El tablón	6	Junio	2023-08-06T00:00:00	2024-11-06T07:00:00	7	Dirección del viento	1.61
158839	7	Sololá	701	Sololá	2	El tablón	6	Junio	2023-08-06T00:00:00	2024-11-06T07:00:00	1	Precipitación	0
158840	7	Sololá	701	Sololá	2	El tablón	6	Junio	2023-08-06T00:00:00	2024-11-06T07:00:00	8	Radiación solar	122
158841	7	Sololá	701	Sololá	2	El tablón	6	Junio	2023-08-06T00:00:00	2024-11-06T08:00:00	2	Temperatura media	16.4
158842	7	Sololá	701	Sololá	2	El tablón	6	Junio	2023-08-06T00:00:00	2024-11-06T08:00:00	4	Temperatura máxima	16.4
158843	7	Sololá	701	Sololá	2	El tablón	6	Junio	2023-08-06T00:00:00	2024-11-06T08:00:00	3	Temperatura mínima	13.2
158844	7	Sololá	701	Sololá	2	El tablón	6	Junio	2023-08-06T00:00:00	2024-11-06T08:00:00	5	Humedad	82
158845	7	Sololá	701	Sololá	2	El tablón	6	Junio	2023-08-06T00:00:00	2024-11-06T08:00:00	6	Velocidad del viento	1.6
158846	7	Sololá	701	Sololá	2	El tablón	6	Junio	2023-08-06T00:00:00	2024-11-06T08:00:00	7	Dirección del viento	1.61
158847	7	Sololá	701	Sololá	2	El tablón	6	Junio	2023-08-06T00:00:00	2024-11-06T08:00:00	1	Precipitación	0
158848	7	Sololá	701	Sololá	2	El tablón	6	Junio	2023-08-06T00:00:00	2024-11-06T08:00:00	8	Radiación solar	287
158849	7	Sololá	701	Sololá	2	El tablón	6	Junio	2023-08-06T00:00:00	2024-11-06T09:00:00	2	Temperatura media	18.9
158850	7	Sololá	701	Sololá	2	El tablón	6	Junio	2023-08-06T00:00:00	2024-11-06T09:00:00	4	Temperatura máxima	18.9
158851	7	Sololá	701	Sololá	2	El tablón	6	Junio	2023-08-06T00:00:00	2024-11-06T09:00:00	3	Temperatura mínima	16.4
158852	7	Sololá	701	Sololá	2	El tablón	6	Junio	2023-08-06T00:00:00	2024-11-06T09:00:00	5	Humedad	74
158853	7	Sololá	701	Sololá	2	El tablón	6	Junio	2023-08-06T00:00:00	2024-11-06T09:00:00	6	Velocidad del viento	1.6
158854	7	Sololá	701	Sololá	2	El tablón	6	Junio	2023-08-06T00:00:00	2024-11-06T09:00:00	7	Dirección del viento	1.61
158855	7	Sololá	701	Sololá	2	El tablón	6	Junio	2023-08-06T00:00:00	2024-11-06T09:00:00	1	Precipitación	0
158856	7	Sololá	701	Sololá	2	El tablón	6	Junio	2023-08-06T00:00:00	2024-11-06T09:00:00	8	Radiación solar	520
158857	7	Sololá	701	Sololá	2	El tablón	6	Junio	2023-08-06T00:00:00	2024-11-06T10:00:00	2	Temperatura media	19.5
158858	7	Sololá	701	Sololá	2	El tablón	6	Junio	2023-08-06T00:00:00	2024-11-06T10:00:00	4	Temperatura máxima	19.8
158859	7	Sololá	701	Sololá	2	El tablón	6	Junio	2023-08-06T00:00:00	2024-11-06T10:00:00	3	Temperatura mínima	18.9
158860	7	Sololá	701	Sololá	2	El tablón	6	Junio	2023-08-06T00:00:00	2024-11-06T10:00:00	5	Humedad	79
158861	7	Sololá	701	Sololá	2	El tablón	6	Junio	2023-08-06T00:00:00	2024-11-06T10:00:00	6	Velocidad del viento	3.2
158862	7	Sololá	701	Sololá	2	El tablón	6	Junio	2023-08-06T00:00:00	2024-11-06T10:00:00	7	Dirección del viento	3.22
158863	7	Sololá	701	Sololá	2	El tablón	6	Junio	2023-08-06T00:00:00	2024-11-06T10:00:00	1	Precipitación	0
158864	7	Sololá	701	Sololá	2	El tablón	6	Junio	2023-08-06T00:00:00	2024-11-06T10:00:00	8	Radiación solar	708
158865	7	Sololá	701	Sololá	2	El tablón	6	Junio	2023-08-06T00:00:00	2024-11-06T11:00:00	2	Temperatura media	19.4
158866	7	Sololá	701	Sololá	2	El tablón	6	Junio	2023-08-06T00:00:00	2024-11-06T11:00:00	4	Temperatura máxima	19.7
158867	7	Sololá	701	Sololá	2	El tablón	6	Junio	2023-08-06T00:00:00	2024-11-06T11:00:00	3	Temperatura mínima	19
158868	7	Sololá	701	Sololá	2	El tablón	6	Junio	2023-08-06T00:00:00	2024-11-06T11:00:00	5	Humedad	70
158869	7	Sololá	701	Sololá	2	El tablón	6	Junio	2023-08-06T00:00:00	2024-11-06T11:00:00	6	Velocidad del viento	6.4
158870	7	Sololá	701	Sololá	2	El tablón	6	Junio	2023-08-06T00:00:00	2024-11-06T11:00:00	7	Dirección del viento	6.44
158871	7	Sololá	701	Sololá	2	El tablón	6	Junio	2023-08-06T00:00:00	2024-11-06T11:00:00	1	Precipitación	0
158872	7	Sololá	701	Sololá	2	El tablón	6	Junio	2023-08-06T00:00:00	2024-11-06T11:00:00	8	Radiación solar	848
158873	7	Sololá	701	Sololá	2	El tablón	6	Junio	2023-08-06T00:00:00	2024-11-06T12:00:00	2	Temperatura media	19.6
158874	7	Sololá	701	Sololá	2	El tablón	6	Junio	2023-08-06T00:00:00	2024-11-06T12:00:00	4	Temperatura máxima	19.6
158875	7	Sololá	701	Sololá	2	El tablón	6	Junio	2023-08-06T00:00:00	2024-11-06T12:00:00	3	Temperatura mínima	18.9
158876	7	Sololá	701	Sololá	2	El tablón	6	Junio	2023-08-06T00:00:00	2024-11-06T12:00:00	5	Humedad	76
158877	7	Sololá	701	Sololá	2	El tablón	6	Junio	2023-08-06T00:00:00	2024-11-06T12:00:00	6	Velocidad del viento	6.4
158878	7	Sololá	701	Sololá	2	El tablón	6	Junio	2023-08-06T00:00:00	2024-11-06T12:00:00	7	Dirección del viento	6.44
158879	7	Sololá	701	Sololá	2	El tablón	6	Junio	2023-08-06T00:00:00	2024-11-06T12:00:00	1	Precipitación	0
158880	7	Sololá	701	Sololá	2	El tablón	6	Junio	2023-08-06T00:00:00	2024-11-06T12:00:00	8	Radiación solar	865
158881	7	Sololá	701	Sololá	2	El tablón	6	Junio	2023-08-06T00:00:00	2024-11-06T13:00:00	2	Temperatura media	18.5
158882	7	Sololá	701	Sololá	2	El tablón	6	Junio	2023-08-06T00:00:00	2024-11-06T13:00:00	4	Temperatura máxima	20.1
158883	7	Sololá	701	Sololá	2	El tablón	6	Junio	2023-08-06T00:00:00	2024-11-06T13:00:00	3	Temperatura mínima	18.5
158884	7	Sololá	701	Sololá	2	El tablón	6	Junio	2023-08-06T00:00:00	2024-11-06T13:00:00	5	Humedad	84
158885	7	Sololá	701	Sololá	2	El tablón	6	Junio	2023-08-06T00:00:00	2024-11-06T13:00:00	6	Velocidad del viento	8
158886	7	Sololá	701	Sololá	2	El tablón	6	Junio	2023-08-06T00:00:00	2024-11-06T13:00:00	7	Dirección del viento	8.05
158887	7	Sololá	701	Sololá	2	El tablón	6	Junio	2023-08-06T00:00:00	2024-11-06T13:00:00	1	Precipitación	0
158888	7	Sololá	701	Sololá	2	El tablón	6	Junio	2023-08-06T00:00:00	2024-11-06T13:00:00	8	Radiación solar	868
158889	7	Sololá	701	Sololá	2	El tablón	6	Junio	2023-08-06T00:00:00	2024-11-06T14:00:00	2	Temperatura media	18
158890	7	Sololá	701	Sololá	2	El tablón	6	Junio	2023-08-06T00:00:00	2024-11-06T14:00:00	4	Temperatura máxima	18.9
158891	7	Sololá	701	Sololá	2	El tablón	6	Junio	2023-08-06T00:00:00	2024-11-06T14:00:00	3	Temperatura mínima	18
158892	7	Sololá	701	Sololá	2	El tablón	6	Junio	2023-08-06T00:00:00	2024-11-06T14:00:00	5	Humedad	85
158893	7	Sololá	701	Sololá	2	El tablón	6	Junio	2023-08-06T00:00:00	2024-11-06T14:00:00	6	Velocidad del viento	6.4
158894	7	Sololá	701	Sololá	2	El tablón	6	Junio	2023-08-06T00:00:00	2024-11-06T14:00:00	7	Dirección del viento	6.44
158895	7	Sololá	701	Sololá	2	El tablón	6	Junio	2023-08-06T00:00:00	2024-11-06T14:00:00	1	Precipitación	0
158896	7	Sololá	701	Sololá	2	El tablón	6	Junio	2023-08-06T00:00:00	2024-11-06T14:00:00	8	Radiación solar	433
158897	7	Sololá	701	Sololá	2	El tablón	6	Junio	2023-08-06T00:00:00	2024-11-06T15:00:00	2	Temperatura media	17.6
158898	7	Sololá	701	Sololá	2	El tablón	6	Junio	2023-08-06T00:00:00	2024-11-06T15:00:00	4	Temperatura máxima	18.3
158899	7	Sololá	701	Sololá	2	El tablón	6	Junio	2023-08-06T00:00:00	2024-11-06T15:00:00	3	Temperatura mínima	17.6
158900	7	Sololá	701	Sololá	2	El tablón	6	Junio	2023-08-06T00:00:00	2024-11-06T15:00:00	5	Humedad	87
158901	7	Sololá	701	Sololá	2	El tablón	6	Junio	2023-08-06T00:00:00	2024-11-06T15:00:00	6	Velocidad del viento	4.8
158902	7	Sololá	701	Sololá	2	El tablón	6	Junio	2023-08-06T00:00:00	2024-11-06T15:00:00	7	Dirección del viento	4.83
158903	7	Sololá	701	Sololá	2	El tablón	6	Junio	2023-08-06T00:00:00	2024-11-06T15:00:00	1	Precipitación	0
158904	7	Sololá	701	Sololá	2	El tablón	6	Junio	2023-08-06T00:00:00	2024-11-06T15:00:00	8	Radiación solar	305
158905	7	Sololá	701	Sololá	2	El tablón	6	Junio	2023-08-06T00:00:00	2024-11-06T16:00:00	2	Temperatura media	16.9
158906	7	Sololá	701	Sololá	2	El tablón	6	Junio	2023-08-06T00:00:00	2024-11-06T16:00:00	4	Temperatura máxima	17.6
158907	7	Sololá	701	Sololá	2	El tablón	6	Junio	2023-08-06T00:00:00	2024-11-06T16:00:00	3	Temperatura mínima	16.9
158908	7	Sololá	701	Sololá	2	El tablón	6	Junio	2023-08-06T00:00:00	2024-11-06T16:00:00	5	Humedad	88
158909	7	Sololá	701	Sololá	2	El tablón	6	Junio	2023-08-06T00:00:00	2024-11-06T16:00:00	6	Velocidad del viento	4.8
158910	7	Sololá	701	Sololá	2	El tablón	6	Junio	2023-08-06T00:00:00	2024-11-06T16:00:00	7	Dirección del viento	4.83
158911	7	Sololá	701	Sololá	2	El tablón	6	Junio	2023-08-06T00:00:00	2024-11-06T16:00:00	1	Precipitación	0
158912	7	Sololá	701	Sololá	2	El tablón	6	Junio	2023-08-06T00:00:00	2024-11-06T16:00:00	8	Radiación solar	175
158913	7	Sololá	701	Sololá	2	El tablón	6	Junio	2023-08-06T00:00:00	2024-11-06T17:00:00	2	Temperatura media	16.9
158914	7	Sololá	701	Sololá	2	El tablón	6	Junio	2023-08-06T00:00:00	2024-11-06T17:00:00	4	Temperatura máxima	17.4
158915	7	Sololá	701	Sololá	2	El tablón	6	Junio	2023-08-06T00:00:00	2024-11-06T17:00:00	3	Temperatura mínima	16.8
158916	7	Sololá	701	Sololá	2	El tablón	6	Junio	2023-08-06T00:00:00	2024-11-06T17:00:00	5	Humedad	88
158917	7	Sololá	701	Sololá	2	El tablón	6	Junio	2023-08-06T00:00:00	2024-11-06T17:00:00	6	Velocidad del viento	3.2
158918	7	Sololá	701	Sololá	2	El tablón	6	Junio	2023-08-06T00:00:00	2024-11-06T17:00:00	7	Dirección del viento	3.22
158919	7	Sololá	701	Sololá	2	El tablón	6	Junio	2023-08-06T00:00:00	2024-11-06T17:00:00	1	Precipitación	0
158920	7	Sololá	701	Sololá	2	El tablón	6	Junio	2023-08-06T00:00:00	2024-11-06T17:00:00	8	Radiación solar	185
158921	7	Sololá	701	Sololá	2	El tablón	6	Junio	2023-08-06T00:00:00	2024-11-06T18:00:00	2	Temperatura media	15.9
158922	7	Sololá	701	Sololá	2	El tablón	6	Junio	2023-08-06T00:00:00	2024-11-06T18:00:00	4	Temperatura máxima	16.9
158923	7	Sololá	701	Sololá	2	El tablón	6	Junio	2023-08-06T00:00:00	2024-11-06T18:00:00	3	Temperatura mínima	15.9
158924	7	Sololá	701	Sololá	2	El tablón	6	Junio	2023-08-06T00:00:00	2024-11-06T18:00:00	5	Humedad	88
158925	7	Sololá	701	Sololá	2	El tablón	6	Junio	2023-08-06T00:00:00	2024-11-06T18:00:00	6	Velocidad del viento	4.8
158926	7	Sololá	701	Sololá	2	El tablón	6	Junio	2023-08-06T00:00:00	2024-11-06T18:00:00	7	Dirección del viento	4.83
158927	7	Sololá	701	Sololá	2	El tablón	6	Junio	2023-08-06T00:00:00	2024-11-06T18:00:00	1	Precipitación	0
158928	7	Sololá	701	Sololá	2	El tablón	6	Junio	2023-08-06T00:00:00	2024-11-06T18:00:00	8	Radiación solar	41
158929	7	Sololá	701	Sololá	2	El tablón	6	Junio	2023-08-06T00:00:00	2024-11-06T19:00:00	2	Temperatura media	15.5
158930	7	Sololá	701	Sololá	2	El tablón	6	Junio	2023-08-06T00:00:00	2024-11-06T19:00:00	4	Temperatura máxima	15.9
158931	7	Sololá	701	Sololá	2	El tablón	6	Junio	2023-08-06T00:00:00	2024-11-06T19:00:00	3	Temperatura mínima	15.4
158932	7	Sololá	701	Sololá	2	El tablón	6	Junio	2023-08-06T00:00:00	2024-11-06T19:00:00	5	Humedad	88
158933	7	Sololá	701	Sololá	2	El tablón	6	Junio	2023-08-06T00:00:00	2024-11-06T19:00:00	6	Velocidad del viento	3.2
158934	7	Sololá	701	Sololá	2	El tablón	6	Junio	2023-08-06T00:00:00	2024-11-06T19:00:00	7	Dirección del viento	3.22
158935	7	Sololá	701	Sololá	2	El tablón	6	Junio	2023-08-06T00:00:00	2024-11-06T19:00:00	1	Precipitación	0
158936	7	Sololá	701	Sololá	2	El tablón	6	Junio	2023-08-06T00:00:00	2024-11-06T19:00:00	8	Radiación solar	0
158937	7	Sololá	701	Sololá	2	El tablón	6	Junio	2023-08-06T00:00:00	2024-11-06T20:00:00	2	Temperatura media	15.4
158938	7	Sololá	701	Sololá	2	El tablón	6	Junio	2023-08-06T00:00:00	2024-11-06T20:00:00	4	Temperatura máxima	15.5
158939	7	Sololá	701	Sololá	2	El tablón	6	Junio	2023-08-06T00:00:00	2024-11-06T20:00:00	3	Temperatura mínima	15.4
158940	7	Sololá	701	Sololá	2	El tablón	6	Junio	2023-08-06T00:00:00	2024-11-06T20:00:00	5	Humedad	88
158941	7	Sololá	701	Sololá	2	El tablón	6	Junio	2023-08-06T00:00:00	2024-11-06T20:00:00	6	Velocidad del viento	1.6
158942	7	Sololá	701	Sololá	2	El tablón	6	Junio	2023-08-06T00:00:00	2024-11-06T20:00:00	7	Dirección del viento	1.61
158943	7	Sololá	701	Sololá	2	El tablón	6	Junio	2023-08-06T00:00:00	2024-11-06T20:00:00	1	Precipitación	0
158944	7	Sololá	701	Sololá	2	El tablón	6	Junio	2023-08-06T00:00:00	2024-11-06T20:00:00	8	Radiación solar	0
158945	7	Sololá	701	Sololá	2	El tablón	6	Junio	2023-08-06T00:00:00	2024-11-06T21:00:00	2	Temperatura media	15.8
158946	7	Sololá	701	Sololá	2	El tablón	6	Junio	2023-08-06T00:00:00	2024-11-06T21:00:00	4	Temperatura máxima	15.8
158947	7	Sololá	701	Sololá	2	El tablón	6	Junio	2023-08-06T00:00:00	2024-11-06T21:00:00	3	Temperatura mínima	15.2
158948	7	Sololá	701	Sololá	2	El tablón	6	Junio	2023-08-06T00:00:00	2024-11-06T21:00:00	5	Humedad	86
158949	7	Sololá	701	Sololá	2	El tablón	6	Junio	2023-08-06T00:00:00	2024-11-06T21:00:00	6	Velocidad del viento	3.2
158950	7	Sololá	701	Sololá	2	El tablón	6	Junio	2023-08-06T00:00:00	2024-11-06T21:00:00	7	Dirección del viento	3.22
158951	7	Sololá	701	Sololá	2	El tablón	6	Junio	2023-08-06T00:00:00	2024-11-06T21:00:00	1	Precipitación	0
158952	7	Sololá	701	Sololá	2	El tablón	6	Junio	2023-08-06T00:00:00	2024-11-06T21:00:00	8	Radiación solar	0
158953	7	Sololá	701	Sololá	2	El tablón	6	Junio	2023-08-06T00:00:00	2024-11-06T22:00:00	2	Temperatura media	15
158954	7	Sololá	701	Sololá	2	El tablón	6	Junio	2023-08-06T00:00:00	2024-11-06T22:00:00	4	Temperatura máxima	15.8
158955	7	Sololá	701	Sololá	2	El tablón	6	Junio	2023-08-06T00:00:00	2024-11-06T22:00:00	3	Temperatura mínima	15
158956	7	Sololá	701	Sololá	2	El tablón	6	Junio	2023-08-06T00:00:00	2024-11-06T22:00:00	5	Humedad	88
158957	7	Sololá	701	Sololá	2	El tablón	6	Junio	2023-08-06T00:00:00	2024-11-06T22:00:00	6	Velocidad del viento	1.6
158958	7	Sololá	701	Sololá	2	El tablón	6	Junio	2023-08-06T00:00:00	2024-11-06T22:00:00	7	Dirección del viento	1.61
158959	7	Sololá	701	Sololá	2	El tablón	6	Junio	2023-08-06T00:00:00	2024-11-06T22:00:00	1	Precipitación	0
158960	7	Sololá	701	Sololá	2	El tablón	6	Junio	2023-08-06T00:00:00	2024-11-06T22:00:00	8	Radiación solar	0
158961	7	Sololá	701	Sololá	2	El tablón	6	Junio	2023-08-06T00:00:00	2024-11-06T23:00:00	2	Temperatura media	15
158962	7	Sololá	701	Sololá	2	El tablón	6	Junio	2023-08-06T00:00:00	2024-11-06T23:00:00	4	Temperatura máxima	15.1
158963	7	Sololá	701	Sololá	2	El tablón	6	Junio	2023-08-06T00:00:00	2024-11-06T23:00:00	3	Temperatura mínima	14.9
158964	7	Sololá	701	Sololá	2	El tablón	6	Junio	2023-08-06T00:00:00	2024-11-06T23:00:00	5	Humedad	88
158965	7	Sololá	701	Sololá	2	El tablón	6	Junio	2023-08-06T00:00:00	2024-11-06T23:00:00	6	Velocidad del viento	3.2
158966	7	Sololá	701	Sololá	2	El tablón	6	Junio	2023-08-06T00:00:00	2024-11-06T23:00:00	7	Dirección del viento	3.22
158967	7	Sololá	701	Sololá	2	El tablón	6	Junio	2023-08-06T00:00:00	2024-11-06T23:00:00	1	Precipitación	0
158968	7	Sololá	701	Sololá	2	El tablón	6	Junio	2023-08-06T00:00:00	2024-11-06T23:00:00	8	Radiación solar	0
158969	7	Sololá	701	Sololá	2	El tablón	6	Junio	2023-09-06T00:00:00	2024-11-06T00:00:00	2	Temperatura media	14.7
158970	7	Sololá	701	Sololá	2	El tablón	6	Junio	2023-09-06T00:00:00	2024-11-06T00:00:00	4	Temperatura máxima	15
158971	7	Sololá	701	Sololá	2	El tablón	6	Junio	2023-09-06T00:00:00	2024-11-06T00:00:00	3	Temperatura mínima	14.7
158972	7	Sololá	701	Sololá	2	El tablón	6	Junio	2023-09-06T00:00:00	2024-11-06T00:00:00	5	Humedad	88
158973	7	Sololá	701	Sololá	2	El tablón	6	Junio	2023-09-06T00:00:00	2024-11-06T00:00:00	6	Velocidad del viento	1.6
158974	7	Sololá	701	Sololá	2	El tablón	6	Junio	2023-09-06T00:00:00	2024-11-06T00:00:00	7	Dirección del viento	1.61
158975	7	Sololá	701	Sololá	2	El tablón	6	Junio	2023-09-06T00:00:00	2024-11-06T00:00:00	1	Precipitación	0
158976	7	Sololá	701	Sololá	2	El tablón	6	Junio	2023-09-06T00:00:00	2024-11-06T00:00:00	8	Radiación solar	0
158977	7	Sololá	701	Sololá	2	El tablón	6	Junio	2023-09-06T00:00:00	2024-11-06T01:00:00	2	Temperatura media	14.5
158978	7	Sololá	701	Sololá	2	El tablón	6	Junio	2023-09-06T00:00:00	2024-11-06T01:00:00	4	Temperatura máxima	14.8
158979	7	Sololá	701	Sololá	2	El tablón	6	Junio	2023-09-06T00:00:00	2024-11-06T01:00:00	3	Temperatura mínima	14.5
158980	7	Sololá	701	Sololá	2	El tablón	6	Junio	2023-09-06T00:00:00	2024-11-06T01:00:00	5	Humedad	87
158981	7	Sololá	701	Sololá	2	El tablón	6	Junio	2023-09-06T00:00:00	2024-11-06T01:00:00	6	Velocidad del viento	4.8
158982	7	Sololá	701	Sololá	2	El tablón	6	Junio	2023-09-06T00:00:00	2024-11-06T01:00:00	7	Dirección del viento	4.83
158983	7	Sololá	701	Sololá	2	El tablón	6	Junio	2023-09-06T00:00:00	2024-11-06T01:00:00	1	Precipitación	0
158984	7	Sololá	701	Sololá	2	El tablón	6	Junio	2023-09-06T00:00:00	2024-11-06T01:00:00	8	Radiación solar	0
158985	7	Sololá	701	Sololá	2	El tablón	6	Junio	2023-09-06T00:00:00	2024-11-06T02:00:00	2	Temperatura media	14.4
158986	7	Sololá	701	Sololá	2	El tablón	6	Junio	2023-09-06T00:00:00	2024-11-06T02:00:00	4	Temperatura máxima	14.5
158987	7	Sololá	701	Sololá	2	El tablón	6	Junio	2023-09-06T00:00:00	2024-11-06T02:00:00	3	Temperatura mínima	14.4
158988	7	Sololá	701	Sololá	2	El tablón	6	Junio	2023-09-06T00:00:00	2024-11-06T02:00:00	5	Humedad	87
158989	7	Sololá	701	Sololá	2	El tablón	6	Junio	2023-09-06T00:00:00	2024-11-06T02:00:00	6	Velocidad del viento	3.2
158990	7	Sololá	701	Sololá	2	El tablón	6	Junio	2023-09-06T00:00:00	2024-11-06T02:00:00	7	Dirección del viento	3.22
158991	7	Sololá	701	Sololá	2	El tablón	6	Junio	2023-09-06T00:00:00	2024-11-06T02:00:00	1	Precipitación	0
158992	7	Sololá	701	Sololá	2	El tablón	6	Junio	2023-09-06T00:00:00	2024-11-06T02:00:00	8	Radiación solar	0
158993	7	Sololá	701	Sololá	2	El tablón	6	Junio	2023-09-06T00:00:00	2024-11-06T03:00:00	2	Temperatura media	14.1
158994	7	Sololá	701	Sololá	2	El tablón	6	Junio	2023-09-06T00:00:00	2024-11-06T03:00:00	4	Temperatura máxima	14.4
158995	7	Sololá	701	Sololá	2	El tablón	6	Junio	2023-09-06T00:00:00	2024-11-06T03:00:00	3	Temperatura mínima	14.1
158996	7	Sololá	701	Sololá	2	El tablón	6	Junio	2023-09-06T00:00:00	2024-11-06T03:00:00	5	Humedad	87
158997	7	Sololá	701	Sololá	2	El tablón	6	Junio	2023-09-06T00:00:00	2024-11-06T03:00:00	6	Velocidad del viento	4.8
158998	7	Sololá	701	Sololá	2	El tablón	6	Junio	2023-09-06T00:00:00	2024-11-06T03:00:00	7	Dirección del viento	4.83
158999	7	Sololá	701	Sololá	2	El tablón	6	Junio	2023-09-06T00:00:00	2024-11-06T03:00:00	1	Precipitación	0
159000	7	Sololá	701	Sololá	2	El tablón	6	Junio	2023-09-06T00:00:00	2024-11-06T03:00:00	8	Radiación solar	0
159001	7	Sololá	701	Sololá	2	El tablón	6	Junio	2023-09-06T00:00:00	2024-11-06T04:00:00	2	Temperatura media	13.6
159002	7	Sololá	701	Sololá	2	El tablón	6	Junio	2023-09-06T00:00:00	2024-11-06T04:00:00	4	Temperatura máxima	14.1
159003	7	Sololá	701	Sololá	2	El tablón	6	Junio	2023-09-06T00:00:00	2024-11-06T04:00:00	3	Temperatura mínima	13.2
159004	7	Sololá	701	Sololá	2	El tablón	6	Junio	2023-09-06T00:00:00	2024-11-06T04:00:00	5	Humedad	85
159005	7	Sololá	701	Sololá	2	El tablón	6	Junio	2023-09-06T00:00:00	2024-11-06T04:00:00	6	Velocidad del viento	3.2
159006	7	Sololá	701	Sololá	2	El tablón	6	Junio	2023-09-06T00:00:00	2024-11-06T04:00:00	7	Dirección del viento	3.22
159007	7	Sololá	701	Sololá	2	El tablón	6	Junio	2023-09-06T00:00:00	2024-11-06T04:00:00	1	Precipitación	0
159008	7	Sololá	701	Sololá	2	El tablón	6	Junio	2023-09-06T00:00:00	2024-11-06T04:00:00	8	Radiación solar	0
159009	7	Sololá	701	Sololá	2	El tablón	6	Junio	2023-09-06T00:00:00	2024-11-06T05:00:00	2	Temperatura media	13.7
159010	7	Sololá	701	Sololá	2	El tablón	6	Junio	2023-09-06T00:00:00	2024-11-06T05:00:00	4	Temperatura máxima	14.1
159011	7	Sololá	701	Sololá	2	El tablón	6	Junio	2023-09-06T00:00:00	2024-11-06T05:00:00	3	Temperatura mínima	13.6
159012	7	Sololá	701	Sololá	2	El tablón	6	Junio	2023-09-06T00:00:00	2024-11-06T05:00:00	5	Humedad	83
159013	7	Sololá	701	Sololá	2	El tablón	6	Junio	2023-09-06T00:00:00	2024-11-06T05:00:00	6	Velocidad del viento	4.8
159014	7	Sololá	701	Sololá	2	El tablón	6	Junio	2023-09-06T00:00:00	2024-11-06T05:00:00	7	Dirección del viento	4.83
159015	7	Sololá	701	Sololá	2	El tablón	6	Junio	2023-09-06T00:00:00	2024-11-06T05:00:00	1	Precipitación	0
159016	7	Sololá	701	Sololá	2	El tablón	6	Junio	2023-09-06T00:00:00	2024-11-06T05:00:00	8	Radiación solar	0
159017	7	Sololá	701	Sololá	2	El tablón	6	Junio	2023-09-06T00:00:00	2024-11-06T06:00:00	2	Temperatura media	13.6
159018	7	Sololá	701	Sololá	2	El tablón	6	Junio	2023-09-06T00:00:00	2024-11-06T06:00:00	4	Temperatura máxima	13.7
159019	7	Sololá	701	Sololá	2	El tablón	6	Junio	2023-09-06T00:00:00	2024-11-06T06:00:00	3	Temperatura mínima	13.4
159020	7	Sololá	701	Sololá	2	El tablón	6	Junio	2023-09-06T00:00:00	2024-11-06T06:00:00	5	Humedad	87
159021	7	Sololá	701	Sololá	2	El tablón	6	Junio	2023-09-06T00:00:00	2024-11-06T06:00:00	6	Velocidad del viento	4.8
159022	7	Sololá	701	Sololá	2	El tablón	6	Junio	2023-09-06T00:00:00	2024-11-06T06:00:00	7	Dirección del viento	4.83
159023	7	Sololá	701	Sololá	2	El tablón	6	Junio	2023-09-06T00:00:00	2024-11-06T06:00:00	1	Precipitación	0
159024	7	Sololá	701	Sololá	2	El tablón	6	Junio	2023-09-06T00:00:00	2024-11-06T06:00:00	8	Radiación solar	5
159025	7	Sololá	701	Sololá	2	El tablón	6	Junio	2023-09-06T00:00:00	2024-11-06T07:00:00	2	Temperatura media	16.3
159026	7	Sololá	701	Sololá	2	El tablón	6	Junio	2023-09-06T00:00:00	2024-11-06T07:00:00	4	Temperatura máxima	16.3
159027	7	Sololá	701	Sololá	2	El tablón	6	Junio	2023-09-06T00:00:00	2024-11-06T07:00:00	3	Temperatura mínima	13.6
159028	7	Sololá	701	Sololá	2	El tablón	6	Junio	2023-09-06T00:00:00	2024-11-06T07:00:00	5	Humedad	75
159029	7	Sololá	701	Sololá	2	El tablón	6	Junio	2023-09-06T00:00:00	2024-11-06T07:00:00	6	Velocidad del viento	6.4
159030	7	Sololá	701	Sololá	2	El tablón	6	Junio	2023-09-06T00:00:00	2024-11-06T07:00:00	7	Dirección del viento	6.44
159031	7	Sololá	701	Sololá	2	El tablón	6	Junio	2023-09-06T00:00:00	2024-11-06T07:00:00	1	Precipitación	0
159032	7	Sololá	701	Sololá	2	El tablón	6	Junio	2023-09-06T00:00:00	2024-11-06T07:00:00	8	Radiación solar	98
159033	7	Sololá	701	Sololá	2	El tablón	6	Junio	2023-09-06T00:00:00	2024-11-06T08:00:00	2	Temperatura media	18.5
159034	7	Sololá	701	Sololá	2	El tablón	6	Junio	2023-09-06T00:00:00	2024-11-06T08:00:00	4	Temperatura máxima	18.5
159035	7	Sololá	701	Sololá	2	El tablón	6	Junio	2023-09-06T00:00:00	2024-11-06T08:00:00	3	Temperatura mínima	16.3
159036	7	Sololá	701	Sololá	2	El tablón	6	Junio	2023-09-06T00:00:00	2024-11-06T08:00:00	5	Humedad	71
159037	7	Sololá	701	Sololá	2	El tablón	6	Junio	2023-09-06T00:00:00	2024-11-06T08:00:00	6	Velocidad del viento	4.8
159038	7	Sololá	701	Sololá	2	El tablón	6	Junio	2023-09-06T00:00:00	2024-11-06T08:00:00	7	Dirección del viento	4.83
159039	7	Sololá	701	Sololá	2	El tablón	6	Junio	2023-09-06T00:00:00	2024-11-06T08:00:00	1	Precipitación	0
159040	7	Sololá	701	Sololá	2	El tablón	6	Junio	2023-09-06T00:00:00	2024-11-06T08:00:00	8	Radiación solar	260
159041	7	Sololá	701	Sololá	2	El tablón	6	Junio	2023-09-06T00:00:00	2024-11-06T09:00:00	2	Temperatura media	20.2
159042	7	Sololá	701	Sololá	2	El tablón	6	Junio	2023-09-06T00:00:00	2024-11-06T09:00:00	4	Temperatura máxima	20.3
159043	7	Sololá	701	Sololá	2	El tablón	6	Junio	2023-09-06T00:00:00	2024-11-06T09:00:00	3	Temperatura mínima	18.5
159044	7	Sololá	701	Sololá	2	El tablón	6	Junio	2023-09-06T00:00:00	2024-11-06T09:00:00	5	Humedad	62
159045	7	Sololá	701	Sololá	2	El tablón	6	Junio	2023-09-06T00:00:00	2024-11-06T09:00:00	6	Velocidad del viento	3.2
159046	7	Sololá	701	Sololá	2	El tablón	6	Junio	2023-09-06T00:00:00	2024-11-06T09:00:00	7	Dirección del viento	3.22
159047	7	Sololá	701	Sololá	2	El tablón	6	Junio	2023-09-06T00:00:00	2024-11-06T09:00:00	1	Precipitación	0
159048	7	Sololá	701	Sololá	2	El tablón	6	Junio	2023-09-06T00:00:00	2024-11-06T09:00:00	8	Radiación solar	492
159049	7	Sololá	701	Sololá	2	El tablón	6	Junio	2023-09-06T00:00:00	2024-11-06T10:00:00	2	Temperatura media	19.2
159050	7	Sololá	701	Sololá	2	El tablón	6	Junio	2023-09-06T00:00:00	2024-11-06T10:00:00	4	Temperatura máxima	20.9
159051	7	Sololá	701	Sololá	2	El tablón	6	Junio	2023-09-06T00:00:00	2024-11-06T10:00:00	3	Temperatura mínima	19.2
159052	7	Sololá	701	Sololá	2	El tablón	6	Junio	2023-09-06T00:00:00	2024-11-06T10:00:00	5	Humedad	73
159053	7	Sololá	701	Sololá	2	El tablón	6	Junio	2023-09-06T00:00:00	2024-11-06T10:00:00	6	Velocidad del viento	8
159054	7	Sololá	701	Sololá	2	El tablón	6	Junio	2023-09-06T00:00:00	2024-11-06T10:00:00	7	Dirección del viento	8.05
159055	7	Sololá	701	Sololá	2	El tablón	6	Junio	2023-09-06T00:00:00	2024-11-06T10:00:00	1	Precipitación	0
159056	7	Sololá	701	Sololá	2	El tablón	6	Junio	2023-09-06T00:00:00	2024-11-06T10:00:00	8	Radiación solar	720
159057	7	Sololá	701	Sololá	2	El tablón	6	Junio	2023-09-06T00:00:00	2024-11-06T11:00:00	2	Temperatura media	20.1
159058	7	Sololá	701	Sololá	2	El tablón	6	Junio	2023-09-06T00:00:00	2024-11-06T11:00:00	4	Temperatura máxima	20.2
159059	7	Sololá	701	Sololá	2	El tablón	6	Junio	2023-09-06T00:00:00	2024-11-06T11:00:00	3	Temperatura mínima	19.1
159060	7	Sololá	701	Sololá	2	El tablón	6	Junio	2023-09-06T00:00:00	2024-11-06T11:00:00	5	Humedad	75
159061	7	Sololá	701	Sololá	2	El tablón	6	Junio	2023-09-06T00:00:00	2024-11-06T11:00:00	6	Velocidad del viento	9.7
159062	7	Sololá	701	Sololá	2	El tablón	6	Junio	2023-09-06T00:00:00	2024-11-06T11:00:00	7	Dirección del viento	9.66
159063	7	Sololá	701	Sololá	2	El tablón	6	Junio	2023-09-06T00:00:00	2024-11-06T11:00:00	1	Precipitación	0
159064	7	Sololá	701	Sololá	2	El tablón	6	Junio	2023-09-06T00:00:00	2024-11-06T11:00:00	8	Radiación solar	830
159065	7	Sololá	701	Sololá	2	El tablón	6	Junio	2023-09-06T00:00:00	2024-11-06T12:00:00	2	Temperatura media	19.1
159066	7	Sololá	701	Sololá	2	El tablón	6	Junio	2023-09-06T00:00:00	2024-11-06T12:00:00	4	Temperatura máxima	20.2
159067	7	Sololá	701	Sololá	2	El tablón	6	Junio	2023-09-06T00:00:00	2024-11-06T12:00:00	3	Temperatura mínima	19
159068	7	Sololá	701	Sololá	2	El tablón	6	Junio	2023-09-06T00:00:00	2024-11-06T12:00:00	5	Humedad	84
159069	7	Sololá	701	Sololá	2	El tablón	6	Junio	2023-09-06T00:00:00	2024-11-06T12:00:00	6	Velocidad del viento	9.7
159070	7	Sololá	701	Sololá	2	El tablón	6	Junio	2023-09-06T00:00:00	2024-11-06T12:00:00	7	Dirección del viento	9.66
159071	7	Sololá	701	Sololá	2	El tablón	6	Junio	2023-09-06T00:00:00	2024-11-06T12:00:00	1	Precipitación	0
159072	7	Sololá	701	Sololá	2	El tablón	6	Junio	2023-09-06T00:00:00	2024-11-06T12:00:00	8	Radiación solar	876
159073	7	Sololá	701	Sololá	2	El tablón	6	Junio	2023-09-06T00:00:00	2024-11-06T13:00:00	2	Temperatura media	19.6
159074	7	Sololá	701	Sololá	2	El tablón	6	Junio	2023-09-06T00:00:00	2024-11-06T13:00:00	4	Temperatura máxima	19.6
159075	7	Sololá	701	Sololá	2	El tablón	6	Junio	2023-09-06T00:00:00	2024-11-06T13:00:00	3	Temperatura mínima	18.6
159076	7	Sololá	701	Sololá	2	El tablón	6	Junio	2023-09-06T00:00:00	2024-11-06T13:00:00	5	Humedad	83
159077	7	Sololá	701	Sololá	2	El tablón	6	Junio	2023-09-06T00:00:00	2024-11-06T13:00:00	6	Velocidad del viento	8
159078	7	Sololá	701	Sololá	2	El tablón	6	Junio	2023-09-06T00:00:00	2024-11-06T13:00:00	7	Dirección del viento	8.05
159079	7	Sololá	701	Sololá	2	El tablón	6	Junio	2023-09-06T00:00:00	2024-11-06T13:00:00	1	Precipitación	0
159080	7	Sololá	701	Sololá	2	El tablón	6	Junio	2023-09-06T00:00:00	2024-11-06T13:00:00	8	Radiación solar	844
159081	7	Sololá	701	Sololá	2	El tablón	6	Junio	2023-09-06T00:00:00	2024-11-06T14:00:00	2	Temperatura media	18.5
159082	7	Sololá	701	Sololá	2	El tablón	6	Junio	2023-09-06T00:00:00	2024-11-06T14:00:00	4	Temperatura máxima	19.6
159083	7	Sololá	701	Sololá	2	El tablón	6	Junio	2023-09-06T00:00:00	2024-11-06T14:00:00	3	Temperatura mínima	18.2
159084	7	Sololá	701	Sololá	2	El tablón	6	Junio	2023-09-06T00:00:00	2024-11-06T14:00:00	5	Humedad	86
159085	7	Sololá	701	Sololá	2	El tablón	6	Junio	2023-09-06T00:00:00	2024-11-06T14:00:00	6	Velocidad del viento	8
159086	7	Sololá	701	Sololá	2	El tablón	6	Junio	2023-09-06T00:00:00	2024-11-06T14:00:00	7	Dirección del viento	8.05
159087	7	Sololá	701	Sololá	2	El tablón	6	Junio	2023-09-06T00:00:00	2024-11-06T14:00:00	1	Precipitación	0
159088	7	Sololá	701	Sololá	2	El tablón	6	Junio	2023-09-06T00:00:00	2024-11-06T14:00:00	8	Radiación solar	377
159089	7	Sololá	701	Sololá	2	El tablón	6	Junio	2023-09-06T00:00:00	2024-11-06T15:00:00	2	Temperatura media	17.7
159090	7	Sololá	701	Sololá	2	El tablón	6	Junio	2023-09-06T00:00:00	2024-11-06T15:00:00	4	Temperatura máxima	19.2
159091	7	Sololá	701	Sololá	2	El tablón	6	Junio	2023-09-06T00:00:00	2024-11-06T15:00:00	3	Temperatura mínima	17.7
159092	7	Sololá	701	Sololá	2	El tablón	6	Junio	2023-09-06T00:00:00	2024-11-06T15:00:00	5	Humedad	87
159093	7	Sololá	701	Sololá	2	El tablón	6	Junio	2023-09-06T00:00:00	2024-11-06T15:00:00	6	Velocidad del viento	6.4
159094	7	Sololá	701	Sololá	2	El tablón	6	Junio	2023-09-06T00:00:00	2024-11-06T15:00:00	7	Dirección del viento	6.44
159095	7	Sololá	701	Sololá	2	El tablón	6	Junio	2023-09-06T00:00:00	2024-11-06T15:00:00	1	Precipitación	0
159096	7	Sololá	701	Sololá	2	El tablón	6	Junio	2023-09-06T00:00:00	2024-11-06T15:00:00	8	Radiación solar	336
159097	7	Sololá	701	Sololá	2	El tablón	6	Junio	2023-09-06T00:00:00	2024-11-06T16:00:00	2	Temperatura media	17.8
159098	7	Sololá	701	Sololá	2	El tablón	6	Junio	2023-09-06T00:00:00	2024-11-06T16:00:00	4	Temperatura máxima	18.3
159099	7	Sololá	701	Sololá	2	El tablón	6	Junio	2023-09-06T00:00:00	2024-11-06T16:00:00	3	Temperatura mínima	17.6
159100	7	Sololá	701	Sololá	2	El tablón	6	Junio	2023-09-06T00:00:00	2024-11-06T16:00:00	5	Humedad	86
159101	7	Sololá	701	Sololá	2	El tablón	6	Junio	2023-09-06T00:00:00	2024-11-06T16:00:00	6	Velocidad del viento	4.8
159102	7	Sololá	701	Sololá	2	El tablón	6	Junio	2023-09-06T00:00:00	2024-11-06T16:00:00	7	Dirección del viento	4.83
159103	7	Sololá	701	Sololá	2	El tablón	6	Junio	2023-09-06T00:00:00	2024-11-06T16:00:00	1	Precipitación	0
159104	7	Sololá	701	Sololá	2	El tablón	6	Junio	2023-09-06T00:00:00	2024-11-06T16:00:00	8	Radiación solar	228
159105	7	Sololá	701	Sololá	2	El tablón	6	Junio	2023-09-06T00:00:00	2024-11-06T17:00:00	2	Temperatura media	17.6
159106	7	Sololá	701	Sololá	2	El tablón	6	Junio	2023-09-06T00:00:00	2024-11-06T17:00:00	4	Temperatura máxima	18.2
159107	7	Sololá	701	Sololá	2	El tablón	6	Junio	2023-09-06T00:00:00	2024-11-06T17:00:00	3	Temperatura mínima	17.4
159108	7	Sololá	701	Sololá	2	El tablón	6	Junio	2023-09-06T00:00:00	2024-11-06T17:00:00	5	Humedad	87
159109	7	Sololá	701	Sololá	2	El tablón	6	Junio	2023-09-06T00:00:00	2024-11-06T17:00:00	6	Velocidad del viento	4.8
159110	7	Sololá	701	Sololá	2	El tablón	6	Junio	2023-09-06T00:00:00	2024-11-06T17:00:00	7	Dirección del viento	4.83
159111	7	Sololá	701	Sololá	2	El tablón	6	Junio	2023-09-06T00:00:00	2024-11-06T17:00:00	1	Precipitación	0
159112	7	Sololá	701	Sololá	2	El tablón	6	Junio	2023-09-06T00:00:00	2024-11-06T17:00:00	8	Radiación solar	210
159113	7	Sololá	701	Sololá	2	El tablón	6	Junio	2023-09-06T00:00:00	2024-11-06T18:00:00	2	Temperatura media	16.7
159114	7	Sololá	701	Sololá	2	El tablón	6	Junio	2023-09-06T00:00:00	2024-11-06T18:00:00	4	Temperatura máxima	17.8
159115	7	Sololá	701	Sololá	2	El tablón	6	Junio	2023-09-06T00:00:00	2024-11-06T18:00:00	3	Temperatura mínima	16.7
159116	7	Sololá	701	Sololá	2	El tablón	6	Junio	2023-09-06T00:00:00	2024-11-06T18:00:00	5	Humedad	88
159117	7	Sololá	701	Sololá	2	El tablón	6	Junio	2023-09-06T00:00:00	2024-11-06T18:00:00	6	Velocidad del viento	3.2
159118	7	Sololá	701	Sololá	2	El tablón	6	Junio	2023-09-06T00:00:00	2024-11-06T18:00:00	7	Dirección del viento	3.22
159119	7	Sololá	701	Sololá	2	El tablón	6	Junio	2023-09-06T00:00:00	2024-11-06T18:00:00	1	Precipitación	0
159120	7	Sololá	701	Sololá	2	El tablón	6	Junio	2023-09-06T00:00:00	2024-11-06T18:00:00	8	Radiación solar	83
159121	7	Sololá	701	Sololá	2	El tablón	6	Junio	2023-09-06T00:00:00	2024-11-06T19:00:00	2	Temperatura media	16.3
159122	7	Sololá	701	Sololá	2	El tablón	6	Junio	2023-09-06T00:00:00	2024-11-06T19:00:00	4	Temperatura máxima	16.7
159123	7	Sololá	701	Sololá	2	El tablón	6	Junio	2023-09-06T00:00:00	2024-11-06T19:00:00	3	Temperatura mínima	16.3
159124	7	Sololá	701	Sololá	2	El tablón	6	Junio	2023-09-06T00:00:00	2024-11-06T19:00:00	5	Humedad	88
159125	7	Sololá	701	Sololá	2	El tablón	6	Junio	2023-09-06T00:00:00	2024-11-06T19:00:00	6	Velocidad del viento	1.6
159126	7	Sololá	701	Sololá	2	El tablón	6	Junio	2023-09-06T00:00:00	2024-11-06T19:00:00	7	Dirección del viento	1.61
159127	7	Sololá	701	Sololá	2	El tablón	6	Junio	2023-09-06T00:00:00	2024-11-06T19:00:00	1	Precipitación	0
159128	7	Sololá	701	Sololá	2	El tablón	6	Junio	2023-09-06T00:00:00	2024-11-06T19:00:00	8	Radiación solar	0
159129	7	Sololá	701	Sololá	2	El tablón	6	Junio	2023-09-06T00:00:00	2024-11-06T20:00:00	2	Temperatura media	15.6
159130	7	Sololá	701	Sololá	2	El tablón	6	Junio	2023-09-06T00:00:00	2024-11-06T20:00:00	4	Temperatura máxima	16.3
159131	7	Sololá	701	Sololá	2	El tablón	6	Junio	2023-09-06T00:00:00	2024-11-06T20:00:00	3	Temperatura mínima	15.6
159132	7	Sololá	701	Sololá	2	El tablón	6	Junio	2023-09-06T00:00:00	2024-11-06T20:00:00	5	Humedad	88
159133	7	Sololá	701	Sololá	2	El tablón	6	Junio	2023-09-06T00:00:00	2024-11-06T20:00:00	6	Velocidad del viento	1.6
159134	7	Sololá	701	Sololá	2	El tablón	6	Junio	2023-09-06T00:00:00	2024-11-06T20:00:00	7	Dirección del viento	1.61
159135	7	Sololá	701	Sololá	2	El tablón	6	Junio	2023-09-06T00:00:00	2024-11-06T20:00:00	1	Precipitación	0
159136	7	Sololá	701	Sololá	2	El tablón	6	Junio	2023-09-06T00:00:00	2024-11-06T20:00:00	8	Radiación solar	0
159137	7	Sololá	701	Sololá	2	El tablón	6	Junio	2023-09-06T00:00:00	2024-11-06T21:00:00	2	Temperatura media	15.2
159138	7	Sololá	701	Sololá	2	El tablón	6	Junio	2023-09-06T00:00:00	2024-11-06T21:00:00	4	Temperatura máxima	15.6
159139	7	Sololá	701	Sololá	2	El tablón	6	Junio	2023-09-06T00:00:00	2024-11-06T21:00:00	3	Temperatura mínima	15.1
159140	7	Sololá	701	Sololá	2	El tablón	6	Junio	2023-09-06T00:00:00	2024-11-06T21:00:00	5	Humedad	88
159141	7	Sololá	701	Sololá	2	El tablón	6	Junio	2023-09-06T00:00:00	2024-11-06T21:00:00	6	Velocidad del viento	1.6
159142	7	Sololá	701	Sololá	2	El tablón	6	Junio	2023-09-06T00:00:00	2024-11-06T21:00:00	7	Dirección del viento	1.61
159143	7	Sololá	701	Sololá	2	El tablón	6	Junio	2023-09-06T00:00:00	2024-11-06T21:00:00	1	Precipitación	0
159144	7	Sololá	701	Sololá	2	El tablón	6	Junio	2023-09-06T00:00:00	2024-11-06T21:00:00	8	Radiación solar	0
159145	7	Sololá	701	Sololá	2	El tablón	6	Junio	2023-09-06T00:00:00	2024-11-06T22:00:00	2	Temperatura media	15.3
159146	7	Sololá	701	Sololá	2	El tablón	6	Junio	2023-09-06T00:00:00	2024-11-06T22:00:00	4	Temperatura máxima	15.3
159147	7	Sololá	701	Sololá	2	El tablón	6	Junio	2023-09-06T00:00:00	2024-11-06T22:00:00	3	Temperatura mínima	15.2
159148	7	Sololá	701	Sololá	2	El tablón	6	Junio	2023-09-06T00:00:00	2024-11-06T22:00:00	5	Humedad	88
159149	7	Sololá	701	Sololá	2	El tablón	6	Junio	2023-09-06T00:00:00	2024-11-06T22:00:00	6	Velocidad del viento	0
159150	7	Sololá	701	Sololá	2	El tablón	6	Junio	2023-09-06T00:00:00	2024-11-06T22:00:00	7	Dirección del viento	0
159151	7	Sololá	701	Sololá	2	El tablón	6	Junio	2023-09-06T00:00:00	2024-11-06T22:00:00	1	Precipitación	0
159152	7	Sololá	701	Sololá	2	El tablón	6	Junio	2023-09-06T00:00:00	2024-11-06T22:00:00	8	Radiación solar	0
159153	7	Sololá	701	Sololá	2	El tablón	6	Junio	2023-09-06T00:00:00	2024-11-06T23:00:00	2	Temperatura media	15.4
159154	7	Sololá	701	Sololá	2	El tablón	6	Junio	2023-09-06T00:00:00	2024-11-06T23:00:00	4	Temperatura máxima	15.4
159155	7	Sololá	701	Sololá	2	El tablón	6	Junio	2023-09-06T00:00:00	2024-11-06T23:00:00	3	Temperatura mínima	15.2
159156	7	Sololá	701	Sololá	2	El tablón	6	Junio	2023-09-06T00:00:00	2024-11-06T23:00:00	5	Humedad	87
159157	7	Sololá	701	Sololá	2	El tablón	6	Junio	2023-09-06T00:00:00	2024-11-06T23:00:00	6	Velocidad del viento	4.8
159158	7	Sololá	701	Sololá	2	El tablón	6	Junio	2023-09-06T00:00:00	2024-11-06T23:00:00	7	Dirección del viento	4.83
159159	7	Sololá	701	Sololá	2	El tablón	6	Junio	2023-09-06T00:00:00	2024-11-06T23:00:00	1	Precipitación	0
159160	7	Sololá	701	Sololá	2	El tablón	6	Junio	2023-09-06T00:00:00	2024-11-06T23:00:00	8	Radiación solar	0
159161	7	Sololá	701	Sololá	2	El tablón	6	Junio	2023-10-06T00:00:00	2024-11-06T00:00:00	2	Temperatura media	15.1
159162	7	Sololá	701	Sololá	2	El tablón	6	Junio	2023-10-06T00:00:00	2024-11-06T00:00:00	4	Temperatura máxima	15.4
159163	7	Sololá	701	Sololá	2	El tablón	6	Junio	2023-10-06T00:00:00	2024-11-06T00:00:00	3	Temperatura mínima	15.1
159164	7	Sololá	701	Sololá	2	El tablón	6	Junio	2023-10-06T00:00:00	2024-11-06T00:00:00	5	Humedad	88
159165	7	Sololá	701	Sololá	2	El tablón	6	Junio	2023-10-06T00:00:00	2024-11-06T00:00:00	6	Velocidad del viento	1.6
159166	7	Sololá	701	Sololá	2	El tablón	6	Junio	2023-10-06T00:00:00	2024-11-06T00:00:00	7	Dirección del viento	1.61
159167	7	Sololá	701	Sololá	2	El tablón	6	Junio	2023-10-06T00:00:00	2024-11-06T00:00:00	1	Precipitación	0
159168	7	Sololá	701	Sololá	2	El tablón	6	Junio	2023-10-06T00:00:00	2024-11-06T00:00:00	8	Radiación solar	0
159169	7	Sololá	701	Sololá	2	El tablón	6	Junio	2023-10-06T00:00:00	2024-11-06T01:00:00	2	Temperatura media	14.7
159170	7	Sololá	701	Sololá	2	El tablón	6	Junio	2023-10-06T00:00:00	2024-11-06T01:00:00	4	Temperatura máxima	15.1
159171	7	Sololá	701	Sololá	2	El tablón	6	Junio	2023-10-06T00:00:00	2024-11-06T01:00:00	3	Temperatura mínima	14.7
159172	7	Sololá	701	Sololá	2	El tablón	6	Junio	2023-10-06T00:00:00	2024-11-06T01:00:00	5	Humedad	88
159173	7	Sololá	701	Sololá	2	El tablón	6	Junio	2023-10-06T00:00:00	2024-11-06T01:00:00	6	Velocidad del viento	4.8
159174	7	Sololá	701	Sololá	2	El tablón	6	Junio	2023-10-06T00:00:00	2024-11-06T01:00:00	7	Dirección del viento	4.83
159175	7	Sololá	701	Sololá	2	El tablón	6	Junio	2023-10-06T00:00:00	2024-11-06T01:00:00	1	Precipitación	0
159176	7	Sololá	701	Sololá	2	El tablón	6	Junio	2023-10-06T00:00:00	2024-11-06T01:00:00	8	Radiación solar	0
159177	7	Sololá	701	Sololá	2	El tablón	6	Junio	2023-10-06T00:00:00	2024-11-06T02:00:00	2	Temperatura media	14.3
159178	7	Sololá	701	Sololá	2	El tablón	6	Junio	2023-10-06T00:00:00	2024-11-06T02:00:00	4	Temperatura máxima	14.8
159179	7	Sololá	701	Sololá	2	El tablón	6	Junio	2023-10-06T00:00:00	2024-11-06T02:00:00	3	Temperatura mínima	14.3
159180	7	Sololá	701	Sololá	2	El tablón	6	Junio	2023-10-06T00:00:00	2024-11-06T02:00:00	5	Humedad	88
159181	7	Sololá	701	Sololá	2	El tablón	6	Junio	2023-10-06T00:00:00	2024-11-06T02:00:00	6	Velocidad del viento	3.2
159182	7	Sololá	701	Sololá	2	El tablón	6	Junio	2023-10-06T00:00:00	2024-11-06T02:00:00	7	Dirección del viento	3.22
159183	7	Sololá	701	Sololá	2	El tablón	6	Junio	2023-10-06T00:00:00	2024-11-06T02:00:00	1	Precipitación	0
159184	7	Sololá	701	Sololá	2	El tablón	6	Junio	2023-10-06T00:00:00	2024-11-06T02:00:00	8	Radiación solar	0
159185	7	Sololá	701	Sololá	2	El tablón	6	Junio	2023-10-06T00:00:00	2024-11-06T03:00:00	2	Temperatura media	13.7
159186	7	Sololá	701	Sololá	2	El tablón	6	Junio	2023-10-06T00:00:00	2024-11-06T03:00:00	4	Temperatura máxima	14.3
159187	7	Sololá	701	Sololá	2	El tablón	6	Junio	2023-10-06T00:00:00	2024-11-06T03:00:00	3	Temperatura mínima	13.6
159188	7	Sololá	701	Sololá	2	El tablón	6	Junio	2023-10-06T00:00:00	2024-11-06T03:00:00	5	Humedad	88
159189	7	Sololá	701	Sololá	2	El tablón	6	Junio	2023-10-06T00:00:00	2024-11-06T03:00:00	6	Velocidad del viento	1.6
159190	7	Sololá	701	Sololá	2	El tablón	6	Junio	2023-10-06T00:00:00	2024-11-06T03:00:00	7	Dirección del viento	1.61
159191	7	Sololá	701	Sololá	2	El tablón	6	Junio	2023-10-06T00:00:00	2024-11-06T03:00:00	1	Precipitación	0
159192	7	Sololá	701	Sololá	2	El tablón	6	Junio	2023-10-06T00:00:00	2024-11-06T03:00:00	8	Radiación solar	0
159193	7	Sololá	701	Sololá	2	El tablón	6	Junio	2023-10-06T00:00:00	2024-11-06T04:00:00	2	Temperatura media	13.6
159194	7	Sololá	701	Sololá	2	El tablón	6	Junio	2023-10-06T00:00:00	2024-11-06T04:00:00	4	Temperatura máxima	13.7
159195	7	Sololá	701	Sololá	2	El tablón	6	Junio	2023-10-06T00:00:00	2024-11-06T04:00:00	3	Temperatura mínima	13.6
159196	7	Sololá	701	Sololá	2	El tablón	6	Junio	2023-10-06T00:00:00	2024-11-06T04:00:00	5	Humedad	88
159197	7	Sololá	701	Sololá	2	El tablón	6	Junio	2023-10-06T00:00:00	2024-11-06T04:00:00	6	Velocidad del viento	3.2
159198	7	Sololá	701	Sololá	2	El tablón	6	Junio	2023-10-06T00:00:00	2024-11-06T04:00:00	7	Dirección del viento	3.22
159199	7	Sololá	701	Sololá	2	El tablón	6	Junio	2023-10-06T00:00:00	2024-11-06T04:00:00	1	Precipitación	0
159200	7	Sololá	701	Sololá	2	El tablón	6	Junio	2023-10-06T00:00:00	2024-11-06T04:00:00	8	Radiación solar	0
159201	7	Sololá	701	Sololá	2	El tablón	6	Junio	2023-10-06T00:00:00	2024-11-06T05:00:00	2	Temperatura media	13
159202	7	Sololá	701	Sololá	2	El tablón	6	Junio	2023-10-06T00:00:00	2024-11-06T05:00:00	4	Temperatura máxima	13.7
159203	7	Sololá	701	Sololá	2	El tablón	6	Junio	2023-10-06T00:00:00	2024-11-06T05:00:00	3	Temperatura mínima	12.3
159204	7	Sololá	701	Sololá	2	El tablón	6	Junio	2023-10-06T00:00:00	2024-11-06T05:00:00	5	Humedad	89
159205	7	Sololá	701	Sololá	2	El tablón	6	Junio	2023-10-06T00:00:00	2024-11-06T05:00:00	6	Velocidad del viento	3.2
159206	7	Sololá	701	Sololá	2	El tablón	6	Junio	2023-10-06T00:00:00	2024-11-06T05:00:00	7	Dirección del viento	3.22
159207	7	Sololá	701	Sololá	2	El tablón	6	Junio	2023-10-06T00:00:00	2024-11-06T05:00:00	1	Precipitación	0
159208	7	Sololá	701	Sololá	2	El tablón	6	Junio	2023-10-06T00:00:00	2024-11-06T05:00:00	8	Radiación solar	0
159209	7	Sololá	701	Sololá	2	El tablón	6	Junio	2023-10-06T00:00:00	2024-11-06T06:00:00	2	Temperatura media	11.8
159210	7	Sololá	701	Sololá	2	El tablón	6	Junio	2023-10-06T00:00:00	2024-11-06T06:00:00	4	Temperatura máxima	13.3
159211	7	Sololá	701	Sololá	2	El tablón	6	Junio	2023-10-06T00:00:00	2024-11-06T06:00:00	3	Temperatura mínima	11.8
159212	7	Sololá	701	Sololá	2	El tablón	6	Junio	2023-10-06T00:00:00	2024-11-06T06:00:00	5	Humedad	89
159213	7	Sololá	701	Sololá	2	El tablón	6	Junio	2023-10-06T00:00:00	2024-11-06T06:00:00	6	Velocidad del viento	1.6
159214	7	Sololá	701	Sololá	2	El tablón	6	Junio	2023-10-06T00:00:00	2024-11-06T06:00:00	7	Dirección del viento	1.61
159215	7	Sololá	701	Sololá	2	El tablón	6	Junio	2023-10-06T00:00:00	2024-11-06T06:00:00	1	Precipitación	0
159216	7	Sololá	701	Sololá	2	El tablón	6	Junio	2023-10-06T00:00:00	2024-11-06T06:00:00	8	Radiación solar	7
159217	7	Sololá	701	Sololá	2	El tablón	6	Junio	2023-10-06T00:00:00	2024-11-06T07:00:00	2	Temperatura media	15.9
159218	7	Sololá	701	Sololá	2	El tablón	6	Junio	2023-10-06T00:00:00	2024-11-06T07:00:00	4	Temperatura máxima	15.9
159219	7	Sololá	701	Sololá	2	El tablón	6	Junio	2023-10-06T00:00:00	2024-11-06T07:00:00	3	Temperatura mínima	11.8
159220	7	Sololá	701	Sololá	2	El tablón	6	Junio	2023-10-06T00:00:00	2024-11-06T07:00:00	5	Humedad	73
159221	7	Sololá	701	Sololá	2	El tablón	6	Junio	2023-10-06T00:00:00	2024-11-06T07:00:00	6	Velocidad del viento	4.8
159222	7	Sololá	701	Sololá	2	El tablón	6	Junio	2023-10-06T00:00:00	2024-11-06T07:00:00	7	Dirección del viento	4.83
159223	7	Sololá	701	Sololá	2	El tablón	6	Junio	2023-10-06T00:00:00	2024-11-06T07:00:00	1	Precipitación	0
159224	7	Sololá	701	Sololá	2	El tablón	6	Junio	2023-10-06T00:00:00	2024-11-06T07:00:00	8	Radiación solar	123
159225	7	Sololá	701	Sololá	2	El tablón	6	Junio	2023-10-06T00:00:00	2024-11-06T08:00:00	2	Temperatura media	17.8
159226	7	Sololá	701	Sololá	2	El tablón	6	Junio	2023-10-06T00:00:00	2024-11-06T08:00:00	4	Temperatura máxima	17.8
159227	7	Sololá	701	Sololá	2	El tablón	6	Junio	2023-10-06T00:00:00	2024-11-06T08:00:00	3	Temperatura mínima	15.9
159228	7	Sololá	701	Sololá	2	El tablón	6	Junio	2023-10-06T00:00:00	2024-11-06T08:00:00	5	Humedad	65
159229	7	Sololá	701	Sololá	2	El tablón	6	Junio	2023-10-06T00:00:00	2024-11-06T08:00:00	6	Velocidad del viento	6.4
159230	7	Sololá	701	Sololá	2	El tablón	6	Junio	2023-10-06T00:00:00	2024-11-06T08:00:00	7	Dirección del viento	6.44
159231	7	Sololá	701	Sololá	2	El tablón	6	Junio	2023-10-06T00:00:00	2024-11-06T08:00:00	1	Precipitación	0
159232	7	Sololá	701	Sololá	2	El tablón	6	Junio	2023-10-06T00:00:00	2024-11-06T08:00:00	8	Radiación solar	280
159233	7	Sololá	701	Sololá	2	El tablón	6	Junio	2023-10-06T00:00:00	2024-11-06T09:00:00	2	Temperatura media	20.1
159234	7	Sololá	701	Sololá	2	El tablón	6	Junio	2023-10-06T00:00:00	2024-11-06T09:00:00	4	Temperatura máxima	20.1
159235	7	Sololá	701	Sololá	2	El tablón	6	Junio	2023-10-06T00:00:00	2024-11-06T09:00:00	3	Temperatura mínima	17.9
159236	7	Sololá	701	Sololá	2	El tablón	6	Junio	2023-10-06T00:00:00	2024-11-06T09:00:00	5	Humedad	59
159237	7	Sololá	701	Sololá	2	El tablón	6	Junio	2023-10-06T00:00:00	2024-11-06T09:00:00	6	Velocidad del viento	6.4
159238	7	Sololá	701	Sololá	2	El tablón	6	Junio	2023-10-06T00:00:00	2024-11-06T09:00:00	7	Dirección del viento	6.44
159239	7	Sololá	701	Sololá	2	El tablón	6	Junio	2023-10-06T00:00:00	2024-11-06T09:00:00	1	Precipitación	0
159240	7	Sololá	701	Sololá	2	El tablón	6	Junio	2023-10-06T00:00:00	2024-11-06T09:00:00	8	Radiación solar	478
159241	7	Sololá	701	Sololá	2	El tablón	6	Junio	2023-10-06T00:00:00	2024-11-06T10:00:00	2	Temperatura media	19.3
159242	7	Sololá	701	Sololá	2	El tablón	6	Junio	2023-10-06T00:00:00	2024-11-06T10:00:00	4	Temperatura máxima	20.6
159243	7	Sololá	701	Sololá	2	El tablón	6	Junio	2023-10-06T00:00:00	2024-11-06T10:00:00	3	Temperatura mínima	19.2
159244	7	Sololá	701	Sololá	2	El tablón	6	Junio	2023-10-06T00:00:00	2024-11-06T10:00:00	5	Humedad	68
159245	7	Sololá	701	Sololá	2	El tablón	6	Junio	2023-10-06T00:00:00	2024-11-06T10:00:00	6	Velocidad del viento	6.4
159246	7	Sololá	701	Sololá	2	El tablón	6	Junio	2023-10-06T00:00:00	2024-11-06T10:00:00	7	Dirección del viento	6.44
159247	7	Sololá	701	Sololá	2	El tablón	6	Junio	2023-10-06T00:00:00	2024-11-06T10:00:00	1	Precipitación	0
159248	7	Sololá	701	Sololá	2	El tablón	6	Junio	2023-10-06T00:00:00	2024-11-06T10:00:00	8	Radiación solar	687
159249	7	Sololá	701	Sololá	2	El tablón	6	Junio	2023-10-06T00:00:00	2024-11-06T11:00:00	2	Temperatura media	18.3
159250	7	Sololá	701	Sololá	2	El tablón	6	Junio	2023-10-06T00:00:00	2024-11-06T11:00:00	4	Temperatura máxima	19.4
159251	7	Sololá	701	Sololá	2	El tablón	6	Junio	2023-10-06T00:00:00	2024-11-06T11:00:00	3	Temperatura mínima	18.3
159252	7	Sololá	701	Sololá	2	El tablón	6	Junio	2023-10-06T00:00:00	2024-11-06T11:00:00	5	Humedad	80
159253	7	Sololá	701	Sololá	2	El tablón	6	Junio	2023-10-06T00:00:00	2024-11-06T11:00:00	6	Velocidad del viento	8
159254	7	Sololá	701	Sololá	2	El tablón	6	Junio	2023-10-06T00:00:00	2024-11-06T11:00:00	7	Dirección del viento	8.05
159255	7	Sololá	701	Sololá	2	El tablón	6	Junio	2023-10-06T00:00:00	2024-11-06T11:00:00	1	Precipitación	0
159256	7	Sololá	701	Sololá	2	El tablón	6	Junio	2023-10-06T00:00:00	2024-11-06T11:00:00	8	Radiación solar	809
159257	7	Sololá	701	Sololá	2	El tablón	6	Junio	2023-10-06T00:00:00	2024-11-06T12:00:00	2	Temperatura media	17.1
159258	7	Sololá	701	Sololá	2	El tablón	6	Junio	2023-10-06T00:00:00	2024-11-06T12:00:00	4	Temperatura máxima	18.4
159259	7	Sololá	701	Sololá	2	El tablón	6	Junio	2023-10-06T00:00:00	2024-11-06T12:00:00	3	Temperatura mínima	17.1
159260	7	Sololá	701	Sololá	2	El tablón	6	Junio	2023-10-06T00:00:00	2024-11-06T12:00:00	5	Humedad	86
159261	7	Sololá	701	Sololá	2	El tablón	6	Junio	2023-10-06T00:00:00	2024-11-06T12:00:00	6	Velocidad del viento	6.4
159262	7	Sololá	701	Sololá	2	El tablón	6	Junio	2023-10-06T00:00:00	2024-11-06T12:00:00	7	Dirección del viento	6.44
159263	7	Sololá	701	Sololá	2	El tablón	6	Junio	2023-10-06T00:00:00	2024-11-06T12:00:00	1	Precipitación	0
159264	7	Sololá	701	Sololá	2	El tablón	6	Junio	2023-10-06T00:00:00	2024-11-06T12:00:00	8	Radiación solar	411
159265	7	Sololá	701	Sololá	2	El tablón	6	Junio	2023-10-06T00:00:00	2024-11-06T13:00:00	2	Temperatura media	17.9
159266	7	Sololá	701	Sololá	2	El tablón	6	Junio	2023-10-06T00:00:00	2024-11-06T13:00:00	4	Temperatura máxima	18
159267	7	Sololá	701	Sololá	2	El tablón	6	Junio	2023-10-06T00:00:00	2024-11-06T13:00:00	3	Temperatura mínima	16.6
159268	7	Sololá	701	Sololá	2	El tablón	6	Junio	2023-10-06T00:00:00	2024-11-06T13:00:00	5	Humedad	85
159269	7	Sololá	701	Sololá	2	El tablón	6	Junio	2023-10-06T00:00:00	2024-11-06T13:00:00	6	Velocidad del viento	6.4
159270	7	Sololá	701	Sololá	2	El tablón	6	Junio	2023-10-06T00:00:00	2024-11-06T13:00:00	7	Dirección del viento	6.44
159271	7	Sololá	701	Sololá	2	El tablón	6	Junio	2023-10-06T00:00:00	2024-11-06T13:00:00	1	Precipitación	0
159272	7	Sololá	701	Sololá	2	El tablón	6	Junio	2023-10-06T00:00:00	2024-11-06T13:00:00	8	Radiación solar	391
159273	7	Sololá	701	Sololá	2	El tablón	6	Junio	2023-10-06T00:00:00	2024-11-06T14:00:00	2	Temperatura media	18.7
159274	7	Sololá	701	Sololá	2	El tablón	6	Junio	2023-10-06T00:00:00	2024-11-06T14:00:00	4	Temperatura máxima	18.9
159275	7	Sololá	701	Sololá	2	El tablón	6	Junio	2023-10-06T00:00:00	2024-11-06T14:00:00	3	Temperatura mínima	17.9
159276	7	Sololá	701	Sololá	2	El tablón	6	Junio	2023-10-06T00:00:00	2024-11-06T14:00:00	5	Humedad	81
159277	7	Sololá	701	Sololá	2	El tablón	6	Junio	2023-10-06T00:00:00	2024-11-06T14:00:00	6	Velocidad del viento	8
159278	7	Sololá	701	Sololá	2	El tablón	6	Junio	2023-10-06T00:00:00	2024-11-06T14:00:00	7	Dirección del viento	8.05
159279	7	Sololá	701	Sololá	2	El tablón	6	Junio	2023-10-06T00:00:00	2024-11-06T14:00:00	1	Precipitación	0
159280	7	Sololá	701	Sololá	2	El tablón	6	Junio	2023-10-06T00:00:00	2024-11-06T14:00:00	8	Radiación solar	771
159281	7	Sololá	701	Sololá	2	El tablón	6	Junio	2023-10-06T00:00:00	2024-11-06T15:00:00	2	Temperatura media	16.5
159282	7	Sololá	701	Sololá	2	El tablón	6	Junio	2023-10-06T00:00:00	2024-11-06T15:00:00	4	Temperatura máxima	18.8
159283	7	Sololá	701	Sololá	2	El tablón	6	Junio	2023-10-06T00:00:00	2024-11-06T15:00:00	3	Temperatura mínima	16.5
159284	7	Sololá	701	Sololá	2	El tablón	6	Junio	2023-10-06T00:00:00	2024-11-06T15:00:00	5	Humedad	87
159285	7	Sololá	701	Sololá	2	El tablón	6	Junio	2023-10-06T00:00:00	2024-11-06T15:00:00	6	Velocidad del viento	8
159286	7	Sololá	701	Sololá	2	El tablón	6	Junio	2023-10-06T00:00:00	2024-11-06T15:00:00	7	Dirección del viento	8.05
159287	7	Sololá	701	Sololá	2	El tablón	6	Junio	2023-10-06T00:00:00	2024-11-06T15:00:00	1	Precipitación	0
159288	7	Sololá	701	Sololá	2	El tablón	6	Junio	2023-10-06T00:00:00	2024-11-06T15:00:00	8	Radiación solar	331
159289	7	Sololá	701	Sololá	2	El tablón	6	Junio	2023-10-06T00:00:00	2024-11-06T16:00:00	2	Temperatura media	15.3
159290	7	Sololá	701	Sololá	2	El tablón	6	Junio	2023-10-06T00:00:00	2024-11-06T16:00:00	4	Temperatura máxima	16.6
159291	7	Sololá	701	Sololá	2	El tablón	6	Junio	2023-10-06T00:00:00	2024-11-06T16:00:00	3	Temperatura mínima	15.3
159292	7	Sololá	701	Sololá	2	El tablón	6	Junio	2023-10-06T00:00:00	2024-11-06T16:00:00	5	Humedad	88
159293	7	Sololá	701	Sololá	2	El tablón	6	Junio	2023-10-06T00:00:00	2024-11-06T16:00:00	6	Velocidad del viento	6.4
159294	7	Sololá	701	Sololá	2	El tablón	6	Junio	2023-10-06T00:00:00	2024-11-06T16:00:00	7	Dirección del viento	6.44
159295	7	Sololá	701	Sololá	2	El tablón	6	Junio	2023-10-06T00:00:00	2024-11-06T16:00:00	1	Precipitación	0
159296	7	Sololá	701	Sololá	2	El tablón	6	Junio	2023-10-06T00:00:00	2024-11-06T16:00:00	8	Radiación solar	73
159297	7	Sololá	701	Sololá	2	El tablón	6	Junio	2023-10-06T00:00:00	2024-11-06T17:00:00	2	Temperatura media	14.8
159298	7	Sololá	701	Sololá	2	El tablón	6	Junio	2023-10-06T00:00:00	2024-11-06T17:00:00	4	Temperatura máxima	15.3
159299	7	Sololá	701	Sololá	2	El tablón	6	Junio	2023-10-06T00:00:00	2024-11-06T17:00:00	3	Temperatura mínima	14.7
159300	7	Sololá	701	Sololá	2	El tablón	6	Junio	2023-10-06T00:00:00	2024-11-06T17:00:00	5	Humedad	88
159301	7	Sololá	701	Sololá	2	El tablón	6	Junio	2023-10-06T00:00:00	2024-11-06T17:00:00	6	Velocidad del viento	4.8
159302	7	Sololá	701	Sololá	2	El tablón	6	Junio	2023-10-06T00:00:00	2024-11-06T17:00:00	7	Dirección del viento	4.83
159303	7	Sololá	701	Sololá	2	El tablón	6	Junio	2023-10-06T00:00:00	2024-11-06T17:00:00	1	Precipitación	0
159304	7	Sololá	701	Sololá	2	El tablón	6	Junio	2023-10-06T00:00:00	2024-11-06T17:00:00	8	Radiación solar	37
159305	7	Sololá	701	Sololá	2	El tablón	6	Junio	2023-10-06T00:00:00	2024-11-06T18:00:00	2	Temperatura media	15.9
159306	7	Sololá	701	Sololá	2	El tablón	6	Junio	2023-10-06T00:00:00	2024-11-06T18:00:00	4	Temperatura máxima	15.9
159307	7	Sololá	701	Sololá	2	El tablón	6	Junio	2023-10-06T00:00:00	2024-11-06T18:00:00	3	Temperatura mínima	14.8
159308	7	Sololá	701	Sololá	2	El tablón	6	Junio	2023-10-06T00:00:00	2024-11-06T18:00:00	5	Humedad	87
159309	7	Sololá	701	Sololá	2	El tablón	6	Junio	2023-10-06T00:00:00	2024-11-06T18:00:00	6	Velocidad del viento	3.2
159310	7	Sololá	701	Sololá	2	El tablón	6	Junio	2023-10-06T00:00:00	2024-11-06T18:00:00	7	Dirección del viento	3.22
159311	7	Sololá	701	Sololá	2	El tablón	6	Junio	2023-10-06T00:00:00	2024-11-06T18:00:00	1	Precipitación	0
159312	7	Sololá	701	Sololá	2	El tablón	6	Junio	2023-10-06T00:00:00	2024-11-06T18:00:00	8	Radiación solar	61
159313	7	Sololá	701	Sololá	2	El tablón	6	Junio	2023-10-06T00:00:00	2024-11-06T19:00:00	2	Temperatura media	15.9
159314	7	Sololá	701	Sololá	2	El tablón	6	Junio	2023-10-06T00:00:00	2024-11-06T19:00:00	4	Temperatura máxima	16.1
159315	7	Sololá	701	Sololá	2	El tablón	6	Junio	2023-10-06T00:00:00	2024-11-06T19:00:00	3	Temperatura mínima	15.8
159316	7	Sololá	701	Sololá	2	El tablón	6	Junio	2023-10-06T00:00:00	2024-11-06T19:00:00	5	Humedad	87
159317	7	Sololá	701	Sololá	2	El tablón	6	Junio	2023-10-06T00:00:00	2024-11-06T19:00:00	6	Velocidad del viento	1.6
159318	7	Sololá	701	Sololá	2	El tablón	6	Junio	2023-10-06T00:00:00	2024-11-06T19:00:00	7	Dirección del viento	1.61
159319	7	Sololá	701	Sololá	2	El tablón	6	Junio	2023-10-06T00:00:00	2024-11-06T19:00:00	1	Precipitación	0
159320	7	Sololá	701	Sololá	2	El tablón	6	Junio	2023-10-06T00:00:00	2024-11-06T19:00:00	8	Radiación solar	0
159321	7	Sololá	701	Sololá	2	El tablón	6	Junio	2023-10-06T00:00:00	2024-11-06T20:00:00	2	Temperatura media	15.6
159322	7	Sololá	701	Sololá	2	El tablón	6	Junio	2023-10-06T00:00:00	2024-11-06T20:00:00	4	Temperatura máxima	15.9
159323	7	Sololá	701	Sololá	2	El tablón	6	Junio	2023-10-06T00:00:00	2024-11-06T20:00:00	3	Temperatura mínima	15.6
159324	7	Sololá	701	Sololá	2	El tablón	6	Junio	2023-10-06T00:00:00	2024-11-06T20:00:00	5	Humedad	87
159325	7	Sololá	701	Sololá	2	El tablón	6	Junio	2023-10-06T00:00:00	2024-11-06T20:00:00	6	Velocidad del viento	3.2
159326	7	Sololá	701	Sololá	2	El tablón	6	Junio	2023-10-06T00:00:00	2024-11-06T20:00:00	7	Dirección del viento	3.22
159327	7	Sololá	701	Sololá	2	El tablón	6	Junio	2023-10-06T00:00:00	2024-11-06T20:00:00	1	Precipitación	0
159328	7	Sololá	701	Sololá	2	El tablón	6	Junio	2023-10-06T00:00:00	2024-11-06T20:00:00	8	Radiación solar	0
159329	7	Sololá	701	Sololá	2	El tablón	6	Junio	2023-10-06T00:00:00	2024-11-06T21:00:00	2	Temperatura media	15.4
159330	7	Sololá	701	Sololá	2	El tablón	6	Junio	2023-10-06T00:00:00	2024-11-06T21:00:00	4	Temperatura máxima	15.6
159331	7	Sololá	701	Sololá	2	El tablón	6	Junio	2023-10-06T00:00:00	2024-11-06T21:00:00	3	Temperatura mínima	15.3
159332	7	Sololá	701	Sololá	2	El tablón	6	Junio	2023-10-06T00:00:00	2024-11-06T21:00:00	5	Humedad	86
159333	7	Sololá	701	Sololá	2	El tablón	6	Junio	2023-10-06T00:00:00	2024-11-06T21:00:00	6	Velocidad del viento	4.8
159334	7	Sololá	701	Sololá	2	El tablón	6	Junio	2023-10-06T00:00:00	2024-11-06T21:00:00	7	Dirección del viento	4.83
159335	7	Sololá	701	Sololá	2	El tablón	6	Junio	2023-10-06T00:00:00	2024-11-06T21:00:00	1	Precipitación	0
159336	7	Sololá	701	Sololá	2	El tablón	6	Junio	2023-10-06T00:00:00	2024-11-06T21:00:00	8	Radiación solar	0
159337	7	Sololá	701	Sololá	2	El tablón	6	Junio	2023-10-06T00:00:00	2024-11-06T22:00:00	2	Temperatura media	14.9
159338	7	Sololá	701	Sololá	2	El tablón	6	Junio	2023-10-06T00:00:00	2024-11-06T22:00:00	4	Temperatura máxima	15.3
159339	7	Sololá	701	Sololá	2	El tablón	6	Junio	2023-10-06T00:00:00	2024-11-06T22:00:00	3	Temperatura mínima	14.9
159340	7	Sololá	701	Sololá	2	El tablón	6	Junio	2023-10-06T00:00:00	2024-11-06T22:00:00	5	Humedad	87
159341	7	Sololá	701	Sololá	2	El tablón	6	Junio	2023-10-06T00:00:00	2024-11-06T22:00:00	6	Velocidad del viento	1.6
159342	7	Sololá	701	Sololá	2	El tablón	6	Junio	2023-10-06T00:00:00	2024-11-06T22:00:00	7	Dirección del viento	1.61
159343	7	Sololá	701	Sololá	2	El tablón	6	Junio	2023-10-06T00:00:00	2024-11-06T22:00:00	1	Precipitación	0
159344	7	Sololá	701	Sololá	2	El tablón	6	Junio	2023-10-06T00:00:00	2024-11-06T22:00:00	8	Radiación solar	0
159345	7	Sololá	701	Sololá	2	El tablón	6	Junio	2023-10-06T00:00:00	2024-11-06T23:00:00	2	Temperatura media	14.7
159346	7	Sololá	701	Sololá	2	El tablón	6	Junio	2023-10-06T00:00:00	2024-11-06T23:00:00	4	Temperatura máxima	14.9
159347	7	Sololá	701	Sololá	2	El tablón	6	Junio	2023-10-06T00:00:00	2024-11-06T23:00:00	3	Temperatura mínima	14.5
159348	7	Sololá	701	Sololá	2	El tablón	6	Junio	2023-10-06T00:00:00	2024-11-06T23:00:00	5	Humedad	88
159349	7	Sololá	701	Sololá	2	El tablón	6	Junio	2023-10-06T00:00:00	2024-11-06T23:00:00	6	Velocidad del viento	4.8
159350	7	Sololá	701	Sololá	2	El tablón	6	Junio	2023-10-06T00:00:00	2024-11-06T23:00:00	7	Dirección del viento	4.83
159351	7	Sololá	701	Sololá	2	El tablón	6	Junio	2023-10-06T00:00:00	2024-11-06T23:00:00	1	Precipitación	0
159352	7	Sololá	701	Sololá	2	El tablón	6	Junio	2023-10-06T00:00:00	2024-11-06T23:00:00	8	Radiación solar	0
159353	7	Sololá	701	Sololá	2	El tablón	6	Junio	2023-11-06T00:00:00	2024-11-06T00:00:00	2	Temperatura media	14.7
159354	7	Sololá	701	Sololá	2	El tablón	6	Junio	2023-11-06T00:00:00	2024-11-06T00:00:00	4	Temperatura máxima	14.9
159355	7	Sololá	701	Sololá	2	El tablón	6	Junio	2023-11-06T00:00:00	2024-11-06T00:00:00	3	Temperatura mínima	14.7
159356	7	Sololá	701	Sololá	2	El tablón	6	Junio	2023-11-06T00:00:00	2024-11-06T00:00:00	5	Humedad	88
159357	7	Sololá	701	Sololá	2	El tablón	6	Junio	2023-11-06T00:00:00	2024-11-06T00:00:00	6	Velocidad del viento	4.8
159358	7	Sololá	701	Sololá	2	El tablón	6	Junio	2023-11-06T00:00:00	2024-11-06T00:00:00	7	Dirección del viento	4.83
159359	7	Sololá	701	Sololá	2	El tablón	6	Junio	2023-11-06T00:00:00	2024-11-06T00:00:00	1	Precipitación	0
159360	7	Sololá	701	Sololá	2	El tablón	6	Junio	2023-11-06T00:00:00	2024-11-06T00:00:00	8	Radiación solar	0
159361	7	Sololá	701	Sololá	2	El tablón	6	Junio	2023-11-06T00:00:00	2024-11-06T01:00:00	2	Temperatura media	14.7
159362	7	Sololá	701	Sololá	2	El tablón	6	Junio	2023-11-06T00:00:00	2024-11-06T01:00:00	4	Temperatura máxima	14.8
159363	7	Sololá	701	Sololá	2	El tablón	6	Junio	2023-11-06T00:00:00	2024-11-06T01:00:00	3	Temperatura mínima	14.6
159364	7	Sololá	701	Sololá	2	El tablón	6	Junio	2023-11-06T00:00:00	2024-11-06T01:00:00	5	Humedad	87
159365	7	Sololá	701	Sololá	2	El tablón	6	Junio	2023-11-06T00:00:00	2024-11-06T01:00:00	6	Velocidad del viento	6.4
159366	7	Sololá	701	Sololá	2	El tablón	6	Junio	2023-11-06T00:00:00	2024-11-06T01:00:00	7	Dirección del viento	6.44
159367	7	Sololá	701	Sololá	2	El tablón	6	Junio	2023-11-06T00:00:00	2024-11-06T01:00:00	1	Precipitación	0
159368	7	Sololá	701	Sololá	2	El tablón	6	Junio	2023-11-06T00:00:00	2024-11-06T01:00:00	8	Radiación solar	0
159369	7	Sololá	701	Sololá	2	El tablón	6	Junio	2023-11-06T00:00:00	2024-11-06T02:00:00	2	Temperatura media	14.2
159370	7	Sololá	701	Sololá	2	El tablón	6	Junio	2023-11-06T00:00:00	2024-11-06T02:00:00	4	Temperatura máxima	14.8
159371	7	Sololá	701	Sololá	2	El tablón	6	Junio	2023-11-06T00:00:00	2024-11-06T02:00:00	3	Temperatura mínima	14.2
159372	7	Sololá	701	Sololá	2	El tablón	6	Junio	2023-11-06T00:00:00	2024-11-06T02:00:00	5	Humedad	84
159373	7	Sololá	701	Sololá	2	El tablón	6	Junio	2023-11-06T00:00:00	2024-11-06T02:00:00	6	Velocidad del viento	3.2
159374	7	Sololá	701	Sololá	2	El tablón	6	Junio	2023-11-06T00:00:00	2024-11-06T02:00:00	7	Dirección del viento	3.22
159375	7	Sololá	701	Sololá	2	El tablón	6	Junio	2023-11-06T00:00:00	2024-11-06T02:00:00	1	Precipitación	0
159376	7	Sololá	701	Sololá	2	El tablón	6	Junio	2023-11-06T00:00:00	2024-11-06T02:00:00	8	Radiación solar	0
159377	7	Sololá	701	Sololá	2	El tablón	6	Junio	2023-11-06T00:00:00	2024-11-06T03:00:00	2	Temperatura media	12.2
159378	7	Sololá	701	Sololá	2	El tablón	6	Junio	2023-11-06T00:00:00	2024-11-06T03:00:00	4	Temperatura máxima	14.2
159379	7	Sololá	701	Sololá	2	El tablón	6	Junio	2023-11-06T00:00:00	2024-11-06T03:00:00	3	Temperatura mínima	12.2
159380	7	Sololá	701	Sololá	2	El tablón	6	Junio	2023-11-06T00:00:00	2024-11-06T03:00:00	5	Humedad	85
159381	7	Sololá	701	Sololá	2	El tablón	6	Junio	2023-11-06T00:00:00	2024-11-06T03:00:00	6	Velocidad del viento	3.2
159382	7	Sololá	701	Sololá	2	El tablón	6	Junio	2023-11-06T00:00:00	2024-11-06T03:00:00	7	Dirección del viento	3.22
159383	7	Sololá	701	Sololá	2	El tablón	6	Junio	2023-11-06T00:00:00	2024-11-06T03:00:00	1	Precipitación	0
159384	7	Sololá	701	Sololá	2	El tablón	6	Junio	2023-11-06T00:00:00	2024-11-06T03:00:00	8	Radiación solar	0
159385	7	Sololá	701	Sololá	2	El tablón	6	Junio	2023-11-06T00:00:00	2024-11-06T04:00:00	2	Temperatura media	11.7
159386	7	Sololá	701	Sololá	2	El tablón	6	Junio	2023-11-06T00:00:00	2024-11-06T04:00:00	4	Temperatura máxima	12.2
159387	7	Sololá	701	Sololá	2	El tablón	6	Junio	2023-11-06T00:00:00	2024-11-06T04:00:00	3	Temperatura mínima	11.5
159388	7	Sololá	701	Sololá	2	El tablón	6	Junio	2023-11-06T00:00:00	2024-11-06T04:00:00	5	Humedad	79
159389	7	Sololá	701	Sololá	2	El tablón	6	Junio	2023-11-06T00:00:00	2024-11-06T04:00:00	6	Velocidad del viento	4.8
159390	7	Sololá	701	Sololá	2	El tablón	6	Junio	2023-11-06T00:00:00	2024-11-06T04:00:00	7	Dirección del viento	4.83
159391	7	Sololá	701	Sololá	2	El tablón	6	Junio	2023-11-06T00:00:00	2024-11-06T04:00:00	1	Precipitación	0
159392	7	Sololá	701	Sololá	2	El tablón	6	Junio	2023-11-06T00:00:00	2024-11-06T04:00:00	8	Radiación solar	0
159393	7	Sololá	701	Sololá	2	El tablón	6	Junio	2023-11-06T00:00:00	2024-11-06T05:00:00	2	Temperatura media	10.9
159394	7	Sololá	701	Sololá	2	El tablón	6	Junio	2023-11-06T00:00:00	2024-11-06T05:00:00	4	Temperatura máxima	11.8
159395	7	Sololá	701	Sololá	2	El tablón	6	Junio	2023-11-06T00:00:00	2024-11-06T05:00:00	3	Temperatura mínima	10.9
159396	7	Sololá	701	Sololá	2	El tablón	6	Junio	2023-11-06T00:00:00	2024-11-06T05:00:00	5	Humedad	77
159397	7	Sololá	701	Sololá	2	El tablón	6	Junio	2023-11-06T00:00:00	2024-11-06T05:00:00	6	Velocidad del viento	3.2
159398	7	Sololá	701	Sololá	2	El tablón	6	Junio	2023-11-06T00:00:00	2024-11-06T05:00:00	7	Dirección del viento	3.22
159399	7	Sololá	701	Sololá	2	El tablón	6	Junio	2023-11-06T00:00:00	2024-11-06T05:00:00	1	Precipitación	0
159400	7	Sololá	701	Sololá	2	El tablón	6	Junio	2023-11-06T00:00:00	2024-11-06T05:00:00	8	Radiación solar	0
159401	7	Sololá	701	Sololá	2	El tablón	6	Junio	2023-11-06T00:00:00	2024-11-06T06:00:00	2	Temperatura media	11.3
159402	7	Sololá	701	Sololá	2	El tablón	6	Junio	2023-11-06T00:00:00	2024-11-06T06:00:00	4	Temperatura máxima	11.3
159403	7	Sololá	701	Sololá	2	El tablón	6	Junio	2023-11-06T00:00:00	2024-11-06T06:00:00	3	Temperatura mínima	10.3
159404	7	Sololá	701	Sololá	2	El tablón	6	Junio	2023-11-06T00:00:00	2024-11-06T06:00:00	5	Humedad	77
159405	7	Sololá	701	Sololá	2	El tablón	6	Junio	2023-11-06T00:00:00	2024-11-06T06:00:00	6	Velocidad del viento	3.2
159406	7	Sololá	701	Sololá	2	El tablón	6	Junio	2023-11-06T00:00:00	2024-11-06T06:00:00	7	Dirección del viento	3.22
159407	7	Sololá	701	Sololá	2	El tablón	6	Junio	2023-11-06T00:00:00	2024-11-06T06:00:00	1	Precipitación	0
159408	7	Sololá	701	Sololá	2	El tablón	6	Junio	2023-11-06T00:00:00	2024-11-06T06:00:00	8	Radiación solar	5
159409	7	Sololá	701	Sololá	2	El tablón	6	Junio	2023-11-06T00:00:00	2024-11-06T07:00:00	2	Temperatura media	15.1
159410	7	Sololá	701	Sololá	2	El tablón	6	Junio	2023-11-06T00:00:00	2024-11-06T07:00:00	4	Temperatura máxima	15.1
159411	7	Sololá	701	Sololá	2	El tablón	6	Junio	2023-11-06T00:00:00	2024-11-06T07:00:00	3	Temperatura mínima	11.3
159412	7	Sololá	701	Sololá	2	El tablón	6	Junio	2023-11-06T00:00:00	2024-11-06T07:00:00	5	Humedad	74
159413	7	Sololá	701	Sololá	2	El tablón	6	Junio	2023-11-06T00:00:00	2024-11-06T07:00:00	6	Velocidad del viento	1.6
159414	7	Sololá	701	Sololá	2	El tablón	6	Junio	2023-11-06T00:00:00	2024-11-06T07:00:00	7	Dirección del viento	1.61
159415	7	Sololá	701	Sololá	2	El tablón	6	Junio	2023-11-06T00:00:00	2024-11-06T07:00:00	1	Precipitación	0
159416	7	Sololá	701	Sololá	2	El tablón	6	Junio	2023-11-06T00:00:00	2024-11-06T07:00:00	8	Radiación solar	134
159417	7	Sololá	701	Sololá	2	El tablón	6	Junio	2023-11-06T00:00:00	2024-11-06T08:00:00	2	Temperatura media	17.9
159418	7	Sololá	701	Sololá	2	El tablón	6	Junio	2023-11-06T00:00:00	2024-11-06T08:00:00	4	Temperatura máxima	18.5
159419	7	Sololá	701	Sololá	2	El tablón	6	Junio	2023-11-06T00:00:00	2024-11-06T08:00:00	3	Temperatura mínima	15.1
159420	7	Sololá	701	Sololá	2	El tablón	6	Junio	2023-11-06T00:00:00	2024-11-06T08:00:00	5	Humedad	67
159421	7	Sololá	701	Sololá	2	El tablón	6	Junio	2023-11-06T00:00:00	2024-11-06T08:00:00	6	Velocidad del viento	3.2
159422	7	Sololá	701	Sololá	2	El tablón	6	Junio	2023-11-06T00:00:00	2024-11-06T08:00:00	7	Dirección del viento	3.22
159423	7	Sololá	701	Sololá	2	El tablón	6	Junio	2023-11-06T00:00:00	2024-11-06T08:00:00	1	Precipitación	0
159424	7	Sololá	701	Sololá	2	El tablón	6	Junio	2023-11-06T00:00:00	2024-11-06T08:00:00	8	Radiación solar	304
159425	7	Sololá	701	Sololá	2	El tablón	6	Junio	2023-11-06T00:00:00	2024-11-06T09:00:00	2	Temperatura media	19.2
159426	7	Sololá	701	Sololá	2	El tablón	6	Junio	2023-11-06T00:00:00	2024-11-06T09:00:00	4	Temperatura máxima	19.2
159427	7	Sololá	701	Sololá	2	El tablón	6	Junio	2023-11-06T00:00:00	2024-11-06T09:00:00	3	Temperatura mínima	17.9
159428	7	Sololá	701	Sololá	2	El tablón	6	Junio	2023-11-06T00:00:00	2024-11-06T09:00:00	5	Humedad	61
159429	7	Sololá	701	Sololá	2	El tablón	6	Junio	2023-11-06T00:00:00	2024-11-06T09:00:00	6	Velocidad del viento	4.8
159430	7	Sololá	701	Sololá	2	El tablón	6	Junio	2023-11-06T00:00:00	2024-11-06T09:00:00	7	Dirección del viento	4.83
159431	7	Sololá	701	Sololá	2	El tablón	6	Junio	2023-11-06T00:00:00	2024-11-06T09:00:00	1	Precipitación	0
159432	7	Sololá	701	Sololá	2	El tablón	6	Junio	2023-11-06T00:00:00	2024-11-06T09:00:00	8	Radiación solar	478
159433	7	Sololá	701	Sololá	2	El tablón	6	Junio	2023-11-06T00:00:00	2024-11-06T10:00:00	2	Temperatura media	19.4
159434	7	Sololá	701	Sololá	2	El tablón	6	Junio	2023-11-06T00:00:00	2024-11-06T10:00:00	4	Temperatura máxima	20.3
159435	7	Sololá	701	Sololá	2	El tablón	6	Junio	2023-11-06T00:00:00	2024-11-06T10:00:00	3	Temperatura mínima	19.1
159436	7	Sololá	701	Sololá	2	El tablón	6	Junio	2023-11-06T00:00:00	2024-11-06T10:00:00	5	Humedad	66
159437	7	Sololá	701	Sololá	2	El tablón	6	Junio	2023-11-06T00:00:00	2024-11-06T10:00:00	6	Velocidad del viento	6.4
159438	7	Sololá	701	Sololá	2	El tablón	6	Junio	2023-11-06T00:00:00	2024-11-06T10:00:00	7	Dirección del viento	6.44
159439	7	Sololá	701	Sololá	2	El tablón	6	Junio	2023-11-06T00:00:00	2024-11-06T10:00:00	1	Precipitación	0
159440	7	Sololá	701	Sololá	2	El tablón	6	Junio	2023-11-06T00:00:00	2024-11-06T10:00:00	8	Radiación solar	711
159441	7	Sololá	701	Sololá	2	El tablón	6	Junio	2023-11-06T00:00:00	2024-11-06T11:00:00	2	Temperatura media	19.4
159442	7	Sololá	701	Sololá	2	El tablón	6	Junio	2023-11-06T00:00:00	2024-11-06T11:00:00	4	Temperatura máxima	20.4
159443	7	Sololá	701	Sololá	2	El tablón	6	Junio	2023-11-06T00:00:00	2024-11-06T11:00:00	3	Temperatura mínima	19.2
159444	7	Sololá	701	Sololá	2	El tablón	6	Junio	2023-11-06T00:00:00	2024-11-06T11:00:00	5	Humedad	70
159445	7	Sololá	701	Sololá	2	El tablón	6	Junio	2023-11-06T00:00:00	2024-11-06T11:00:00	6	Velocidad del viento	4.8
159446	7	Sololá	701	Sololá	2	El tablón	6	Junio	2023-11-06T00:00:00	2024-11-06T11:00:00	7	Dirección del viento	4.83
159447	7	Sololá	701	Sololá	2	El tablón	6	Junio	2023-11-06T00:00:00	2024-11-06T11:00:00	1	Precipitación	0
159448	7	Sololá	701	Sololá	2	El tablón	6	Junio	2023-11-06T00:00:00	2024-11-06T11:00:00	8	Radiación solar	832
159449	7	Sololá	701	Sololá	2	El tablón	6	Junio	2023-11-06T00:00:00	2024-11-06T12:00:00	2	Temperatura media	19.3
159450	7	Sololá	701	Sololá	2	El tablón	6	Junio	2023-11-06T00:00:00	2024-11-06T12:00:00	4	Temperatura máxima	19.7
159451	7	Sololá	701	Sololá	2	El tablón	6	Junio	2023-11-06T00:00:00	2024-11-06T12:00:00	3	Temperatura mínima	19.1
159452	7	Sololá	701	Sololá	2	El tablón	6	Junio	2023-11-06T00:00:00	2024-11-06T12:00:00	5	Humedad	78
159453	7	Sololá	701	Sololá	2	El tablón	6	Junio	2023-11-06T00:00:00	2024-11-06T12:00:00	6	Velocidad del viento	9.7
159454	7	Sololá	701	Sololá	2	El tablón	6	Junio	2023-11-06T00:00:00	2024-11-06T12:00:00	7	Dirección del viento	9.66
159455	7	Sololá	701	Sololá	2	El tablón	6	Junio	2023-11-06T00:00:00	2024-11-06T12:00:00	1	Precipitación	0
159456	7	Sololá	701	Sololá	2	El tablón	6	Junio	2023-11-06T00:00:00	2024-11-06T12:00:00	8	Radiación solar	949
159457	7	Sololá	701	Sololá	2	El tablón	6	Junio	2023-11-06T00:00:00	2024-11-06T13:00:00	2	Temperatura media	19.2
159458	7	Sololá	701	Sololá	2	El tablón	6	Junio	2023-11-06T00:00:00	2024-11-06T13:00:00	4	Temperatura máxima	19.4
159459	7	Sololá	701	Sololá	2	El tablón	6	Junio	2023-11-06T00:00:00	2024-11-06T13:00:00	3	Temperatura mínima	18.3
159460	7	Sololá	701	Sololá	2	El tablón	6	Junio	2023-11-06T00:00:00	2024-11-06T13:00:00	5	Humedad	80
159461	7	Sololá	701	Sololá	2	El tablón	6	Junio	2023-11-06T00:00:00	2024-11-06T13:00:00	6	Velocidad del viento	9.7
159462	7	Sololá	701	Sololá	2	El tablón	6	Junio	2023-11-06T00:00:00	2024-11-06T13:00:00	7	Dirección del viento	9.66
159463	7	Sololá	701	Sololá	2	El tablón	6	Junio	2023-11-06T00:00:00	2024-11-06T13:00:00	1	Precipitación	0
159464	7	Sololá	701	Sololá	2	El tablón	6	Junio	2023-11-06T00:00:00	2024-11-06T13:00:00	8	Radiación solar	957
159465	7	Sololá	701	Sololá	2	El tablón	6	Junio	2023-11-06T00:00:00	2024-11-06T14:00:00	2	Temperatura media	20.2
159466	7	Sololá	701	Sololá	2	El tablón	6	Junio	2023-11-06T00:00:00	2024-11-06T14:00:00	4	Temperatura máxima	20.2
159467	7	Sololá	701	Sololá	2	El tablón	6	Junio	2023-11-06T00:00:00	2024-11-06T14:00:00	3	Temperatura mínima	18.9
159468	7	Sololá	701	Sololá	2	El tablón	6	Junio	2023-11-06T00:00:00	2024-11-06T14:00:00	5	Humedad	78
159469	7	Sololá	701	Sololá	2	El tablón	6	Junio	2023-11-06T00:00:00	2024-11-06T14:00:00	6	Velocidad del viento	8
159470	7	Sololá	701	Sololá	2	El tablón	6	Junio	2023-11-06T00:00:00	2024-11-06T14:00:00	7	Dirección del viento	8.05
159471	7	Sololá	701	Sololá	2	El tablón	6	Junio	2023-11-06T00:00:00	2024-11-06T14:00:00	1	Precipitación	0
159472	7	Sololá	701	Sololá	2	El tablón	6	Junio	2023-11-06T00:00:00	2024-11-06T14:00:00	8	Radiación solar	903
159473	7	Sololá	701	Sololá	2	El tablón	6	Junio	2023-11-06T00:00:00	2024-11-06T15:00:00	2	Temperatura media	19.9
159474	7	Sololá	701	Sololá	2	El tablón	6	Junio	2023-11-06T00:00:00	2024-11-06T15:00:00	4	Temperatura máxima	20.4
159475	7	Sololá	701	Sololá	2	El tablón	6	Junio	2023-11-06T00:00:00	2024-11-06T15:00:00	3	Temperatura mínima	19.9
159476	7	Sololá	701	Sololá	2	El tablón	6	Junio	2023-11-06T00:00:00	2024-11-06T15:00:00	5	Humedad	79
159477	7	Sololá	701	Sololá	2	El tablón	6	Junio	2023-11-06T00:00:00	2024-11-06T15:00:00	6	Velocidad del viento	6.4
159478	7	Sololá	701	Sololá	2	El tablón	6	Junio	2023-11-06T00:00:00	2024-11-06T15:00:00	7	Dirección del viento	6.44
159479	7	Sololá	701	Sololá	2	El tablón	6	Junio	2023-11-06T00:00:00	2024-11-06T15:00:00	1	Precipitación	0
159480	7	Sololá	701	Sololá	2	El tablón	6	Junio	2023-11-06T00:00:00	2024-11-06T15:00:00	8	Radiación solar	809
159481	7	Sololá	701	Sololá	2	El tablón	6	Junio	2023-11-06T00:00:00	2024-11-06T16:00:00	2	Temperatura media	18.3
159482	7	Sololá	701	Sololá	2	El tablón	6	Junio	2023-11-06T00:00:00	2024-11-06T16:00:00	4	Temperatura máxima	20.1
159483	7	Sololá	701	Sololá	2	El tablón	6	Junio	2023-11-06T00:00:00	2024-11-06T16:00:00	3	Temperatura mínima	18.3
159484	7	Sololá	701	Sololá	2	El tablón	6	Junio	2023-11-06T00:00:00	2024-11-06T16:00:00	5	Humedad	85
159485	7	Sololá	701	Sololá	2	El tablón	6	Junio	2023-11-06T00:00:00	2024-11-06T16:00:00	6	Velocidad del viento	6.4
159486	7	Sololá	701	Sololá	2	El tablón	6	Junio	2023-11-06T00:00:00	2024-11-06T16:00:00	7	Dirección del viento	6.44
159487	7	Sololá	701	Sololá	2	El tablón	6	Junio	2023-11-06T00:00:00	2024-11-06T16:00:00	1	Precipitación	0
159488	7	Sololá	701	Sololá	2	El tablón	6	Junio	2023-11-06T00:00:00	2024-11-06T16:00:00	8	Radiación solar	424
159489	7	Sololá	701	Sololá	2	El tablón	6	Junio	2023-11-06T00:00:00	2024-11-06T17:00:00	2	Temperatura media	18.3
159490	7	Sololá	701	Sololá	2	El tablón	6	Junio	2023-11-06T00:00:00	2024-11-06T17:00:00	4	Temperatura máxima	18.7
159491	7	Sololá	701	Sololá	2	El tablón	6	Junio	2023-11-06T00:00:00	2024-11-06T17:00:00	3	Temperatura mínima	18.2
159492	7	Sololá	701	Sololá	2	El tablón	6	Junio	2023-11-06T00:00:00	2024-11-06T17:00:00	5	Humedad	85
159493	7	Sololá	701	Sololá	2	El tablón	6	Junio	2023-11-06T00:00:00	2024-11-06T17:00:00	6	Velocidad del viento	6.4
159494	7	Sololá	701	Sololá	2	El tablón	6	Junio	2023-11-06T00:00:00	2024-11-06T17:00:00	7	Dirección del viento	6.44
159495	7	Sololá	701	Sololá	2	El tablón	6	Junio	2023-11-06T00:00:00	2024-11-06T17:00:00	1	Precipitación	0
159496	7	Sololá	701	Sololá	2	El tablón	6	Junio	2023-11-06T00:00:00	2024-11-06T17:00:00	8	Radiación solar	295
159497	7	Sololá	701	Sololá	2	El tablón	6	Junio	2023-11-06T00:00:00	2024-11-06T18:00:00	2	Temperatura media	17.4
159498	7	Sololá	701	Sololá	2	El tablón	6	Junio	2023-11-06T00:00:00	2024-11-06T18:00:00	4	Temperatura máxima	18.4
159499	7	Sololá	701	Sololá	2	El tablón	6	Junio	2023-11-06T00:00:00	2024-11-06T18:00:00	3	Temperatura mínima	17.4
159500	7	Sololá	701	Sololá	2	El tablón	6	Junio	2023-11-06T00:00:00	2024-11-06T18:00:00	5	Humedad	88
159501	7	Sololá	701	Sololá	2	El tablón	6	Junio	2023-11-06T00:00:00	2024-11-06T18:00:00	6	Velocidad del viento	3.2
159502	7	Sololá	701	Sololá	2	El tablón	6	Junio	2023-11-06T00:00:00	2024-11-06T18:00:00	7	Dirección del viento	3.22
159503	7	Sololá	701	Sololá	2	El tablón	6	Junio	2023-11-06T00:00:00	2024-11-06T18:00:00	1	Precipitación	0
159504	7	Sololá	701	Sololá	2	El tablón	6	Junio	2023-11-06T00:00:00	2024-11-06T18:00:00	8	Radiación solar	133
159505	7	Sololá	701	Sololá	2	El tablón	6	Junio	2023-11-06T00:00:00	2024-11-06T19:00:00	2	Temperatura media	16.8
159506	7	Sololá	701	Sololá	2	El tablón	6	Junio	2023-11-06T00:00:00	2024-11-06T19:00:00	4	Temperatura máxima	17.4
159507	7	Sololá	701	Sololá	2	El tablón	6	Junio	2023-11-06T00:00:00	2024-11-06T19:00:00	3	Temperatura mínima	16.8
159508	7	Sololá	701	Sololá	2	El tablón	6	Junio	2023-11-06T00:00:00	2024-11-06T19:00:00	5	Humedad	88
159509	7	Sololá	701	Sololá	2	El tablón	6	Junio	2023-11-06T00:00:00	2024-11-06T19:00:00	6	Velocidad del viento	1.6
159510	7	Sololá	701	Sololá	2	El tablón	6	Junio	2023-11-06T00:00:00	2024-11-06T19:00:00	7	Dirección del viento	1.61
159511	7	Sololá	701	Sololá	2	El tablón	6	Junio	2023-11-06T00:00:00	2024-11-06T19:00:00	1	Precipitación	0
159512	7	Sololá	701	Sololá	2	El tablón	6	Junio	2023-11-06T00:00:00	2024-11-06T19:00:00	8	Radiación solar	0
159513	7	Sololá	701	Sololá	2	El tablón	6	Junio	2023-11-06T00:00:00	2024-11-06T20:00:00	2	Temperatura media	15.9
159514	7	Sololá	701	Sololá	2	El tablón	6	Junio	2023-11-06T00:00:00	2024-11-06T20:00:00	4	Temperatura máxima	16.8
159515	7	Sololá	701	Sololá	2	El tablón	6	Junio	2023-11-06T00:00:00	2024-11-06T20:00:00	3	Temperatura mínima	15.9
159516	7	Sololá	701	Sololá	2	El tablón	6	Junio	2023-11-06T00:00:00	2024-11-06T20:00:00	5	Humedad	88
159517	7	Sololá	701	Sololá	2	El tablón	6	Junio	2023-11-06T00:00:00	2024-11-06T20:00:00	6	Velocidad del viento	1.6
159518	7	Sololá	701	Sololá	2	El tablón	6	Junio	2023-11-06T00:00:00	2024-11-06T20:00:00	7	Dirección del viento	1.61
159519	7	Sololá	701	Sololá	2	El tablón	6	Junio	2023-11-06T00:00:00	2024-11-06T20:00:00	1	Precipitación	0
159520	7	Sololá	701	Sololá	2	El tablón	6	Junio	2023-11-06T00:00:00	2024-11-06T20:00:00	8	Radiación solar	0
159521	7	Sololá	701	Sololá	2	El tablón	6	Junio	2023-11-06T00:00:00	2024-11-06T21:00:00	2	Temperatura media	15
159522	7	Sololá	701	Sololá	2	El tablón	6	Junio	2023-11-06T00:00:00	2024-11-06T21:00:00	4	Temperatura máxima	16
159523	7	Sololá	701	Sololá	2	El tablón	6	Junio	2023-11-06T00:00:00	2024-11-06T21:00:00	3	Temperatura mínima	14.9
159524	7	Sololá	701	Sololá	2	El tablón	6	Junio	2023-11-06T00:00:00	2024-11-06T21:00:00	5	Humedad	88
159525	7	Sololá	701	Sololá	2	El tablón	6	Junio	2023-11-06T00:00:00	2024-11-06T21:00:00	6	Velocidad del viento	0
159526	7	Sololá	701	Sololá	2	El tablón	6	Junio	2023-11-06T00:00:00	2024-11-06T21:00:00	7	Dirección del viento	0
159527	7	Sololá	701	Sololá	2	El tablón	6	Junio	2023-11-06T00:00:00	2024-11-06T21:00:00	1	Precipitación	0
159528	7	Sololá	701	Sololá	2	El tablón	6	Junio	2023-11-06T00:00:00	2024-11-06T21:00:00	8	Radiación solar	0
159529	7	Sololá	701	Sololá	2	El tablón	6	Junio	2023-11-06T00:00:00	2024-11-06T22:00:00	2	Temperatura media	14.4
159530	7	Sololá	701	Sololá	2	El tablón	6	Junio	2023-11-06T00:00:00	2024-11-06T22:00:00	4	Temperatura máxima	15
159531	7	Sololá	701	Sololá	2	El tablón	6	Junio	2023-11-06T00:00:00	2024-11-06T22:00:00	3	Temperatura mínima	13.9
159532	7	Sololá	701	Sololá	2	El tablón	6	Junio	2023-11-06T00:00:00	2024-11-06T22:00:00	5	Humedad	86
159533	7	Sololá	701	Sololá	2	El tablón	6	Junio	2023-11-06T00:00:00	2024-11-06T22:00:00	6	Velocidad del viento	3.2
159534	7	Sololá	701	Sololá	2	El tablón	6	Junio	2023-11-06T00:00:00	2024-11-06T22:00:00	7	Dirección del viento	3.22
159535	7	Sololá	701	Sololá	2	El tablón	6	Junio	2023-11-06T00:00:00	2024-11-06T22:00:00	1	Precipitación	0
159536	7	Sololá	701	Sololá	2	El tablón	6	Junio	2023-11-06T00:00:00	2024-11-06T22:00:00	8	Radiación solar	0
159537	7	Sololá	701	Sololá	2	El tablón	6	Junio	2023-11-06T00:00:00	2024-11-06T23:00:00	2	Temperatura media	15.1
159538	7	Sololá	701	Sololá	2	El tablón	6	Junio	2023-11-06T00:00:00	2024-11-06T23:00:00	4	Temperatura máxima	15.2
159539	7	Sololá	701	Sololá	2	El tablón	6	Junio	2023-11-06T00:00:00	2024-11-06T23:00:00	3	Temperatura mínima	14.4
159540	7	Sololá	701	Sololá	2	El tablón	6	Junio	2023-11-06T00:00:00	2024-11-06T23:00:00	5	Humedad	85
159541	7	Sololá	701	Sololá	2	El tablón	6	Junio	2023-11-06T00:00:00	2024-11-06T23:00:00	6	Velocidad del viento	3.2
159542	7	Sololá	701	Sololá	2	El tablón	6	Junio	2023-11-06T00:00:00	2024-11-06T23:00:00	7	Dirección del viento	3.22
159543	7	Sololá	701	Sololá	2	El tablón	6	Junio	2023-11-06T00:00:00	2024-11-06T23:00:00	1	Precipitación	0
159544	7	Sololá	701	Sololá	2	El tablón	6	Junio	2023-11-06T00:00:00	2024-11-06T23:00:00	8	Radiación solar	0
159545	7	Sololá	701	Sololá	2	El tablón	6	Junio	2023-12-06T00:00:00	2024-11-06T00:00:00	2	Temperatura media	15
159546	7	Sololá	701	Sololá	2	El tablón	6	Junio	2023-12-06T00:00:00	2024-11-06T00:00:00	4	Temperatura máxima	15.1
159547	7	Sololá	701	Sololá	2	El tablón	6	Junio	2023-12-06T00:00:00	2024-11-06T00:00:00	3	Temperatura mínima	15
159548	7	Sololá	701	Sololá	2	El tablón	6	Junio	2023-12-06T00:00:00	2024-11-06T00:00:00	5	Humedad	85
159549	7	Sololá	701	Sololá	2	El tablón	6	Junio	2023-12-06T00:00:00	2024-11-06T00:00:00	6	Velocidad del viento	4.8
159550	7	Sololá	701	Sololá	2	El tablón	6	Junio	2023-12-06T00:00:00	2024-11-06T00:00:00	7	Dirección del viento	4.83
159551	7	Sololá	701	Sololá	2	El tablón	6	Junio	2023-12-06T00:00:00	2024-11-06T00:00:00	1	Precipitación	0
159552	7	Sololá	701	Sololá	2	El tablón	6	Junio	2023-12-06T00:00:00	2024-11-06T00:00:00	8	Radiación solar	0
159553	7	Sololá	701	Sololá	2	El tablón	6	Junio	2023-12-06T00:00:00	2024-11-06T01:00:00	2	Temperatura media	14.3
159554	7	Sololá	701	Sololá	2	El tablón	6	Junio	2023-12-06T00:00:00	2024-11-06T01:00:00	4	Temperatura máxima	15
159555	7	Sololá	701	Sololá	2	El tablón	6	Junio	2023-12-06T00:00:00	2024-11-06T01:00:00	3	Temperatura mínima	14.3
159556	7	Sololá	701	Sololá	2	El tablón	6	Junio	2023-12-06T00:00:00	2024-11-06T01:00:00	5	Humedad	87
159557	7	Sololá	701	Sololá	2	El tablón	6	Junio	2023-12-06T00:00:00	2024-11-06T01:00:00	6	Velocidad del viento	6.4
159558	7	Sololá	701	Sololá	2	El tablón	6	Junio	2023-12-06T00:00:00	2024-11-06T01:00:00	7	Dirección del viento	6.44
159559	7	Sololá	701	Sololá	2	El tablón	6	Junio	2023-12-06T00:00:00	2024-11-06T01:00:00	1	Precipitación	0
159560	7	Sololá	701	Sololá	2	El tablón	6	Junio	2023-12-06T00:00:00	2024-11-06T01:00:00	8	Radiación solar	0
159561	7	Sololá	701	Sololá	2	El tablón	6	Junio	2023-12-06T00:00:00	2024-11-06T02:00:00	2	Temperatura media	14.2
159562	7	Sololá	701	Sololá	2	El tablón	6	Junio	2023-12-06T00:00:00	2024-11-06T02:00:00	4	Temperatura máxima	14.4
159563	7	Sololá	701	Sololá	2	El tablón	6	Junio	2023-12-06T00:00:00	2024-11-06T02:00:00	3	Temperatura mínima	14.2
159564	7	Sololá	701	Sololá	2	El tablón	6	Junio	2023-12-06T00:00:00	2024-11-06T02:00:00	5	Humedad	86
159565	7	Sololá	701	Sololá	2	El tablón	6	Junio	2023-12-06T00:00:00	2024-11-06T02:00:00	6	Velocidad del viento	3.2
159566	7	Sololá	701	Sololá	2	El tablón	6	Junio	2023-12-06T00:00:00	2024-11-06T02:00:00	7	Dirección del viento	3.22
159567	7	Sololá	701	Sololá	2	El tablón	6	Junio	2023-12-06T00:00:00	2024-11-06T02:00:00	1	Precipitación	0
159568	7	Sololá	701	Sololá	2	El tablón	6	Junio	2023-12-06T00:00:00	2024-11-06T02:00:00	8	Radiación solar	0
159569	7	Sololá	701	Sololá	2	El tablón	6	Junio	2023-12-06T00:00:00	2024-11-06T03:00:00	2	Temperatura media	14.3
159570	7	Sololá	701	Sololá	2	El tablón	6	Junio	2023-12-06T00:00:00	2024-11-06T03:00:00	4	Temperatura máxima	14.4
159571	7	Sololá	701	Sololá	2	El tablón	6	Junio	2023-12-06T00:00:00	2024-11-06T03:00:00	3	Temperatura mínima	14.2
159572	7	Sololá	701	Sololá	2	El tablón	6	Junio	2023-12-06T00:00:00	2024-11-06T03:00:00	5	Humedad	84
159573	7	Sololá	701	Sololá	2	El tablón	6	Junio	2023-12-06T00:00:00	2024-11-06T03:00:00	6	Velocidad del viento	6.4
159574	7	Sololá	701	Sololá	2	El tablón	6	Junio	2023-12-06T00:00:00	2024-11-06T03:00:00	7	Dirección del viento	6.44
159575	7	Sololá	701	Sololá	2	El tablón	6	Junio	2023-12-06T00:00:00	2024-11-06T03:00:00	1	Precipitación	0
159576	7	Sololá	701	Sololá	2	El tablón	6	Junio	2023-12-06T00:00:00	2024-11-06T03:00:00	8	Radiación solar	0
159577	7	Sololá	701	Sololá	2	El tablón	6	Junio	2023-12-06T00:00:00	2024-11-06T04:00:00	2	Temperatura media	14.4
159578	7	Sololá	701	Sololá	2	El tablón	6	Junio	2023-12-06T00:00:00	2024-11-06T04:00:00	4	Temperatura máxima	14.5
159579	7	Sololá	701	Sololá	2	El tablón	6	Junio	2023-12-06T00:00:00	2024-11-06T04:00:00	3	Temperatura mínima	14.3
159580	7	Sololá	701	Sololá	2	El tablón	6	Junio	2023-12-06T00:00:00	2024-11-06T04:00:00	5	Humedad	83
159581	7	Sololá	701	Sololá	2	El tablón	6	Junio	2023-12-06T00:00:00	2024-11-06T04:00:00	6	Velocidad del viento	6.4
159582	7	Sololá	701	Sololá	2	El tablón	6	Junio	2023-12-06T00:00:00	2024-11-06T04:00:00	7	Dirección del viento	6.44
159583	7	Sololá	701	Sololá	2	El tablón	6	Junio	2023-12-06T00:00:00	2024-11-06T04:00:00	1	Precipitación	0
159584	7	Sololá	701	Sololá	2	El tablón	6	Junio	2023-12-06T00:00:00	2024-11-06T04:00:00	8	Radiación solar	0
159585	7	Sololá	701	Sololá	2	El tablón	6	Junio	2023-12-06T00:00:00	2024-11-06T05:00:00	2	Temperatura media	14.3
159586	7	Sololá	701	Sololá	2	El tablón	6	Junio	2023-12-06T00:00:00	2024-11-06T05:00:00	4	Temperatura máxima	14.5
159587	7	Sololá	701	Sololá	2	El tablón	6	Junio	2023-12-06T00:00:00	2024-11-06T05:00:00	3	Temperatura mínima	14.2
159588	7	Sololá	701	Sololá	2	El tablón	6	Junio	2023-12-06T00:00:00	2024-11-06T05:00:00	5	Humedad	82
159589	7	Sololá	701	Sololá	2	El tablón	6	Junio	2023-12-06T00:00:00	2024-11-06T05:00:00	6	Velocidad del viento	6.4
159590	7	Sololá	701	Sololá	2	El tablón	6	Junio	2023-12-06T00:00:00	2024-11-06T05:00:00	7	Dirección del viento	6.44
159591	7	Sololá	701	Sololá	2	El tablón	6	Junio	2023-12-06T00:00:00	2024-11-06T05:00:00	1	Precipitación	0
159592	7	Sololá	701	Sololá	2	El tablón	6	Junio	2023-12-06T00:00:00	2024-11-06T05:00:00	8	Radiación solar	0
159593	7	Sololá	701	Sololá	2	El tablón	6	Junio	2023-12-06T00:00:00	2024-11-06T06:00:00	2	Temperatura media	14.4
159594	7	Sololá	701	Sololá	2	El tablón	6	Junio	2023-12-06T00:00:00	2024-11-06T06:00:00	4	Temperatura máxima	14.4
159595	7	Sololá	701	Sololá	2	El tablón	6	Junio	2023-12-06T00:00:00	2024-11-06T06:00:00	3	Temperatura mínima	13.7
159596	7	Sololá	701	Sololá	2	El tablón	6	Junio	2023-12-06T00:00:00	2024-11-06T06:00:00	5	Humedad	81
159597	7	Sololá	701	Sololá	2	El tablón	6	Junio	2023-12-06T00:00:00	2024-11-06T06:00:00	6	Velocidad del viento	4.8
159598	7	Sololá	701	Sololá	2	El tablón	6	Junio	2023-12-06T00:00:00	2024-11-06T06:00:00	7	Dirección del viento	4.83
159599	7	Sololá	701	Sololá	2	El tablón	6	Junio	2023-12-06T00:00:00	2024-11-06T06:00:00	1	Precipitación	0
159600	7	Sololá	701	Sololá	2	El tablón	6	Junio	2023-12-06T00:00:00	2024-11-06T06:00:00	8	Radiación solar	8
159601	7	Sololá	701	Sololá	2	El tablón	6	Junio	2023-12-06T00:00:00	2024-11-06T07:00:00	2	Temperatura media	16.6
159602	7	Sololá	701	Sololá	2	El tablón	6	Junio	2023-12-06T00:00:00	2024-11-06T07:00:00	4	Temperatura máxima	16.6
159603	7	Sololá	701	Sololá	2	El tablón	6	Junio	2023-12-06T00:00:00	2024-11-06T07:00:00	3	Temperatura mínima	14.4
159604	7	Sololá	701	Sololá	2	El tablón	6	Junio	2023-12-06T00:00:00	2024-11-06T07:00:00	5	Humedad	74
159605	7	Sololá	701	Sololá	2	El tablón	6	Junio	2023-12-06T00:00:00	2024-11-06T07:00:00	6	Velocidad del viento	8
159606	7	Sololá	701	Sololá	2	El tablón	6	Junio	2023-12-06T00:00:00	2024-11-06T07:00:00	7	Dirección del viento	8.05
159607	7	Sololá	701	Sololá	2	El tablón	6	Junio	2023-12-06T00:00:00	2024-11-06T07:00:00	1	Precipitación	0
159608	7	Sololá	701	Sololá	2	El tablón	6	Junio	2023-12-06T00:00:00	2024-11-06T07:00:00	8	Radiación solar	136
159609	7	Sololá	701	Sololá	2	El tablón	6	Junio	2023-12-06T00:00:00	2024-11-06T08:00:00	2	Temperatura media	18
159610	7	Sololá	701	Sololá	2	El tablón	6	Junio	2023-12-06T00:00:00	2024-11-06T08:00:00	4	Temperatura máxima	18
159611	7	Sololá	701	Sololá	2	El tablón	6	Junio	2023-12-06T00:00:00	2024-11-06T08:00:00	3	Temperatura mínima	16.6
159612	7	Sololá	701	Sololá	2	El tablón	6	Junio	2023-12-06T00:00:00	2024-11-06T08:00:00	5	Humedad	70
159613	7	Sololá	701	Sololá	2	El tablón	6	Junio	2023-12-06T00:00:00	2024-11-06T08:00:00	6	Velocidad del viento	9.7
159614	7	Sololá	701	Sololá	2	El tablón	6	Junio	2023-12-06T00:00:00	2024-11-06T08:00:00	7	Dirección del viento	9.66
159615	7	Sololá	701	Sololá	2	El tablón	6	Junio	2023-12-06T00:00:00	2024-11-06T08:00:00	1	Precipitación	0
159616	7	Sololá	701	Sololá	2	El tablón	6	Junio	2023-12-06T00:00:00	2024-11-06T08:00:00	8	Radiación solar	318
159617	7	Sololá	701	Sololá	2	El tablón	6	Junio	2023-12-06T00:00:00	2024-11-06T09:00:00	2	Temperatura media	18.9
159618	7	Sololá	701	Sololá	2	El tablón	6	Junio	2023-12-06T00:00:00	2024-11-06T09:00:00	4	Temperatura máxima	18.9
159619	7	Sololá	701	Sololá	2	El tablón	6	Junio	2023-12-06T00:00:00	2024-11-06T09:00:00	3	Temperatura mínima	18
159620	7	Sololá	701	Sololá	2	El tablón	6	Junio	2023-12-06T00:00:00	2024-11-06T09:00:00	5	Humedad	66
159621	7	Sololá	701	Sololá	2	El tablón	6	Junio	2023-12-06T00:00:00	2024-11-06T09:00:00	6	Velocidad del viento	12.9
159622	7	Sololá	701	Sololá	2	El tablón	6	Junio	2023-12-06T00:00:00	2024-11-06T09:00:00	7	Dirección del viento	12.87
159623	7	Sololá	701	Sololá	2	El tablón	6	Junio	2023-12-06T00:00:00	2024-11-06T09:00:00	1	Precipitación	0
159624	7	Sololá	701	Sololá	2	El tablón	6	Junio	2023-12-06T00:00:00	2024-11-06T09:00:00	8	Radiación solar	532
159625	7	Sololá	701	Sololá	2	El tablón	6	Junio	2023-12-06T00:00:00	2024-11-06T10:00:00	2	Temperatura media	20.2
159626	7	Sololá	701	Sololá	2	El tablón	6	Junio	2023-12-06T00:00:00	2024-11-06T10:00:00	4	Temperatura máxima	20.3
159627	7	Sololá	701	Sololá	2	El tablón	6	Junio	2023-12-06T00:00:00	2024-11-06T10:00:00	3	Temperatura mínima	18.9
159628	7	Sololá	701	Sololá	2	El tablón	6	Junio	2023-12-06T00:00:00	2024-11-06T10:00:00	5	Humedad	63
159629	7	Sololá	701	Sololá	2	El tablón	6	Junio	2023-12-06T00:00:00	2024-11-06T10:00:00	6	Velocidad del viento	12.9
159630	7	Sololá	701	Sololá	2	El tablón	6	Junio	2023-12-06T00:00:00	2024-11-06T10:00:00	7	Dirección del viento	12.87
159631	7	Sololá	701	Sololá	2	El tablón	6	Junio	2023-12-06T00:00:00	2024-11-06T10:00:00	1	Precipitación	0
159632	7	Sololá	701	Sololá	2	El tablón	6	Junio	2023-12-06T00:00:00	2024-11-06T10:00:00	8	Radiación solar	706
159633	7	Sololá	701	Sololá	2	El tablón	6	Junio	2023-12-06T00:00:00	2024-11-06T11:00:00	2	Temperatura media	20.9
159634	7	Sololá	701	Sololá	2	El tablón	6	Junio	2023-12-06T00:00:00	2024-11-06T11:00:00	4	Temperatura máxima	21.1
159635	7	Sololá	701	Sololá	2	El tablón	6	Junio	2023-12-06T00:00:00	2024-11-06T11:00:00	3	Temperatura mínima	19.9
159636	7	Sololá	701	Sololá	2	El tablón	6	Junio	2023-12-06T00:00:00	2024-11-06T11:00:00	5	Humedad	60
159637	7	Sololá	701	Sololá	2	El tablón	6	Junio	2023-12-06T00:00:00	2024-11-06T11:00:00	6	Velocidad del viento	11.3
159638	7	Sololá	701	Sololá	2	El tablón	6	Junio	2023-12-06T00:00:00	2024-11-06T11:00:00	7	Dirección del viento	11.27
159639	7	Sololá	701	Sololá	2	El tablón	6	Junio	2023-12-06T00:00:00	2024-11-06T11:00:00	1	Precipitación	0
159640	7	Sololá	701	Sololá	2	El tablón	6	Junio	2023-12-06T00:00:00	2024-11-06T11:00:00	8	Radiación solar	829
159641	7	Sololá	701	Sololá	2	El tablón	6	Junio	2023-12-06T00:00:00	2024-11-06T12:00:00	2	Temperatura media	21.8
159642	7	Sololá	701	Sololá	2	El tablón	6	Junio	2023-12-06T00:00:00	2024-11-06T12:00:00	4	Temperatura máxima	22.1
159643	7	Sololá	701	Sololá	2	El tablón	6	Junio	2023-12-06T00:00:00	2024-11-06T12:00:00	3	Temperatura mínima	20.9
159644	7	Sololá	701	Sololá	2	El tablón	6	Junio	2023-12-06T00:00:00	2024-11-06T12:00:00	5	Humedad	57
159645	7	Sololá	701	Sololá	2	El tablón	6	Junio	2023-12-06T00:00:00	2024-11-06T12:00:00	6	Velocidad del viento	11.3
159646	7	Sololá	701	Sololá	2	El tablón	6	Junio	2023-12-06T00:00:00	2024-11-06T12:00:00	7	Dirección del viento	11.27
159647	7	Sololá	701	Sololá	2	El tablón	6	Junio	2023-12-06T00:00:00	2024-11-06T12:00:00	1	Precipitación	0
159648	7	Sololá	701	Sololá	2	El tablón	6	Junio	2023-12-06T00:00:00	2024-11-06T12:00:00	8	Radiación solar	899
159649	7	Sololá	701	Sololá	2	El tablón	6	Junio	2023-12-06T00:00:00	2024-11-06T13:00:00	2	Temperatura media	22.9
159650	7	Sololá	701	Sololá	2	El tablón	6	Junio	2023-12-06T00:00:00	2024-11-06T13:00:00	4	Temperatura máxima	23.1
159651	7	Sololá	701	Sololá	2	El tablón	6	Junio	2023-12-06T00:00:00	2024-11-06T13:00:00	3	Temperatura mínima	21.8
159652	7	Sololá	701	Sololá	2	El tablón	6	Junio	2023-12-06T00:00:00	2024-11-06T13:00:00	5	Humedad	51
159653	7	Sololá	701	Sololá	2	El tablón	6	Junio	2023-12-06T00:00:00	2024-11-06T13:00:00	6	Velocidad del viento	11.3
159654	7	Sololá	701	Sololá	2	El tablón	6	Junio	2023-12-06T00:00:00	2024-11-06T13:00:00	7	Dirección del viento	11.27
159655	7	Sololá	701	Sololá	2	El tablón	6	Junio	2023-12-06T00:00:00	2024-11-06T13:00:00	1	Precipitación	0
159656	7	Sololá	701	Sololá	2	El tablón	6	Junio	2023-12-06T00:00:00	2024-11-06T13:00:00	8	Radiación solar	962
159657	7	Sololá	701	Sololá	2	El tablón	6	Junio	2023-12-06T00:00:00	2024-11-06T14:00:00	2	Temperatura media	22.8
159658	7	Sololá	701	Sololá	2	El tablón	6	Junio	2023-12-06T00:00:00	2024-11-06T14:00:00	4	Temperatura máxima	23.6
159659	7	Sololá	701	Sololá	2	El tablón	6	Junio	2023-12-06T00:00:00	2024-11-06T14:00:00	3	Temperatura mínima	22.8
159660	7	Sololá	701	Sololá	2	El tablón	6	Junio	2023-12-06T00:00:00	2024-11-06T14:00:00	5	Humedad	71
159661	7	Sololá	701	Sololá	2	El tablón	6	Junio	2023-12-06T00:00:00	2024-11-06T14:00:00	6	Velocidad del viento	8
159662	7	Sololá	701	Sololá	2	El tablón	6	Junio	2023-12-06T00:00:00	2024-11-06T14:00:00	7	Dirección del viento	8.05
159663	7	Sololá	701	Sololá	2	El tablón	6	Junio	2023-12-06T00:00:00	2024-11-06T14:00:00	1	Precipitación	0
159664	7	Sololá	701	Sololá	2	El tablón	6	Junio	2023-12-06T00:00:00	2024-11-06T14:00:00	8	Radiación solar	874
159665	7	Sololá	701	Sololá	2	El tablón	6	Junio	2023-12-06T00:00:00	2024-11-06T15:00:00	2	Temperatura media	19.2
159666	7	Sololá	701	Sololá	2	El tablón	6	Junio	2023-12-06T00:00:00	2024-11-06T15:00:00	4	Temperatura máxima	22.8
159667	7	Sololá	701	Sololá	2	El tablón	6	Junio	2023-12-06T00:00:00	2024-11-06T15:00:00	3	Temperatura mínima	19.2
159668	7	Sololá	701	Sololá	2	El tablón	6	Junio	2023-12-06T00:00:00	2024-11-06T15:00:00	5	Humedad	84
159669	7	Sololá	701	Sololá	2	El tablón	6	Junio	2023-12-06T00:00:00	2024-11-06T15:00:00	6	Velocidad del viento	9.7
159670	7	Sololá	701	Sololá	2	El tablón	6	Junio	2023-12-06T00:00:00	2024-11-06T15:00:00	7	Dirección del viento	9.66
159671	7	Sololá	701	Sololá	2	El tablón	6	Junio	2023-12-06T00:00:00	2024-11-06T15:00:00	1	Precipitación	0
159672	7	Sololá	701	Sololá	2	El tablón	6	Junio	2023-12-06T00:00:00	2024-11-06T15:00:00	8	Radiación solar	627
159673	7	Sololá	701	Sololá	2	El tablón	6	Junio	2023-12-06T00:00:00	2024-11-06T16:00:00	2	Temperatura media	19.4
159674	7	Sololá	701	Sololá	2	El tablón	6	Junio	2023-12-06T00:00:00	2024-11-06T16:00:00	4	Temperatura máxima	19.4
159675	7	Sololá	701	Sololá	2	El tablón	6	Junio	2023-12-06T00:00:00	2024-11-06T16:00:00	3	Temperatura mínima	18.7
159676	7	Sololá	701	Sololá	2	El tablón	6	Junio	2023-12-06T00:00:00	2024-11-06T16:00:00	5	Humedad	86
159677	7	Sololá	701	Sololá	2	El tablón	6	Junio	2023-12-06T00:00:00	2024-11-06T16:00:00	6	Velocidad del viento	8
159678	7	Sololá	701	Sololá	2	El tablón	6	Junio	2023-12-06T00:00:00	2024-11-06T16:00:00	7	Dirección del viento	8.05
159679	7	Sololá	701	Sololá	2	El tablón	6	Junio	2023-12-06T00:00:00	2024-11-06T16:00:00	1	Precipitación	0
159680	7	Sololá	701	Sololá	2	El tablón	6	Junio	2023-12-06T00:00:00	2024-11-06T16:00:00	8	Radiación solar	337
159681	7	Sololá	701	Sololá	2	El tablón	6	Junio	2023-12-06T00:00:00	2024-11-06T17:00:00	2	Temperatura media	17.9
159682	7	Sololá	701	Sololá	2	El tablón	6	Junio	2023-12-06T00:00:00	2024-11-06T17:00:00	4	Temperatura máxima	19.4
159683	7	Sololá	701	Sololá	2	El tablón	6	Junio	2023-12-06T00:00:00	2024-11-06T17:00:00	3	Temperatura mínima	17.8
159684	7	Sololá	701	Sololá	2	El tablón	6	Junio	2023-12-06T00:00:00	2024-11-06T17:00:00	5	Humedad	87
159685	7	Sololá	701	Sololá	2	El tablón	6	Junio	2023-12-06T00:00:00	2024-11-06T17:00:00	6	Velocidad del viento	6.4
159686	7	Sololá	701	Sololá	2	El tablón	6	Junio	2023-12-06T00:00:00	2024-11-06T17:00:00	7	Dirección del viento	6.44
159687	7	Sololá	701	Sololá	2	El tablón	6	Junio	2023-12-06T00:00:00	2024-11-06T17:00:00	1	Precipitación	0
159688	7	Sololá	701	Sololá	2	El tablón	6	Junio	2023-12-06T00:00:00	2024-11-06T17:00:00	8	Radiación solar	189
159689	7	Sololá	701	Sololá	2	El tablón	6	Junio	2023-12-06T00:00:00	2024-11-06T18:00:00	2	Temperatura media	16.9
159690	7	Sololá	701	Sololá	2	El tablón	6	Junio	2023-12-06T00:00:00	2024-11-06T18:00:00	4	Temperatura máxima	18
159691	7	Sololá	701	Sololá	2	El tablón	6	Junio	2023-12-06T00:00:00	2024-11-06T18:00:00	3	Temperatura mínima	16.8
159692	7	Sololá	701	Sololá	2	El tablón	6	Junio	2023-12-06T00:00:00	2024-11-06T18:00:00	5	Humedad	88
159693	7	Sololá	701	Sololá	2	El tablón	6	Junio	2023-12-06T00:00:00	2024-11-06T18:00:00	6	Velocidad del viento	4.8
159694	7	Sololá	701	Sololá	2	El tablón	6	Junio	2023-12-06T00:00:00	2024-11-06T18:00:00	7	Dirección del viento	4.83
159695	7	Sololá	701	Sololá	2	El tablón	6	Junio	2023-12-06T00:00:00	2024-11-06T18:00:00	1	Precipitación	0
159696	7	Sololá	701	Sololá	2	El tablón	6	Junio	2023-12-06T00:00:00	2024-11-06T18:00:00	8	Radiación solar	45
159697	7	Sololá	701	Sololá	2	El tablón	6	Junio	2023-12-06T00:00:00	2024-11-06T19:00:00	2	Temperatura media	17.7
159698	7	Sololá	701	Sololá	2	El tablón	6	Junio	2023-12-06T00:00:00	2024-11-06T19:00:00	4	Temperatura máxima	17.8
159699	7	Sololá	701	Sololá	2	El tablón	6	Junio	2023-12-06T00:00:00	2024-11-06T19:00:00	3	Temperatura mínima	16.6
159700	7	Sololá	701	Sololá	2	El tablón	6	Junio	2023-12-06T00:00:00	2024-11-06T19:00:00	5	Humedad	86
159701	7	Sololá	701	Sololá	2	El tablón	6	Junio	2023-12-06T00:00:00	2024-11-06T19:00:00	6	Velocidad del viento	1.6
159702	7	Sololá	701	Sololá	2	El tablón	6	Junio	2023-12-06T00:00:00	2024-11-06T19:00:00	7	Dirección del viento	1.61
159703	7	Sololá	701	Sololá	2	El tablón	6	Junio	2023-12-06T00:00:00	2024-11-06T19:00:00	1	Precipitación	0
159704	7	Sololá	701	Sololá	2	El tablón	6	Junio	2023-12-06T00:00:00	2024-11-06T19:00:00	8	Radiación solar	0
159705	7	Sololá	701	Sololá	2	El tablón	6	Junio	2023-12-06T00:00:00	2024-11-06T20:00:00	2	Temperatura media	17.2
159706	7	Sololá	701	Sololá	2	El tablón	6	Junio	2023-12-06T00:00:00	2024-11-06T20:00:00	4	Temperatura máxima	17.7
159707	7	Sololá	701	Sololá	2	El tablón	6	Junio	2023-12-06T00:00:00	2024-11-06T20:00:00	3	Temperatura mínima	16.8
159708	7	Sololá	701	Sololá	2	El tablón	6	Junio	2023-12-06T00:00:00	2024-11-06T20:00:00	5	Humedad	80
159709	7	Sololá	701	Sololá	2	El tablón	6	Junio	2023-12-06T00:00:00	2024-11-06T20:00:00	6	Velocidad del viento	3.2
159710	7	Sololá	701	Sololá	2	El tablón	6	Junio	2023-12-06T00:00:00	2024-11-06T20:00:00	7	Dirección del viento	3.22
159711	7	Sololá	701	Sololá	2	El tablón	6	Junio	2023-12-06T00:00:00	2024-11-06T20:00:00	1	Precipitación	0
159712	7	Sololá	701	Sololá	2	El tablón	6	Junio	2023-12-06T00:00:00	2024-11-06T20:00:00	8	Radiación solar	0
159713	7	Sololá	701	Sololá	2	El tablón	6	Junio	2023-12-06T00:00:00	2024-11-06T21:00:00	2	Temperatura media	16.4
159714	7	Sololá	701	Sololá	2	El tablón	6	Junio	2023-12-06T00:00:00	2024-11-06T21:00:00	4	Temperatura máxima	17.2
159715	7	Sololá	701	Sololá	2	El tablón	6	Junio	2023-12-06T00:00:00	2024-11-06T21:00:00	3	Temperatura mínima	16.4
159716	7	Sololá	701	Sololá	2	El tablón	6	Junio	2023-12-06T00:00:00	2024-11-06T21:00:00	5	Humedad	82
159717	7	Sololá	701	Sololá	2	El tablón	6	Junio	2023-12-06T00:00:00	2024-11-06T21:00:00	6	Velocidad del viento	6.4
159718	7	Sololá	701	Sololá	2	El tablón	6	Junio	2023-12-06T00:00:00	2024-11-06T21:00:00	7	Dirección del viento	6.44
159719	7	Sololá	701	Sololá	2	El tablón	6	Junio	2023-12-06T00:00:00	2024-11-06T21:00:00	1	Precipitación	0
159720	7	Sololá	701	Sololá	2	El tablón	6	Junio	2023-12-06T00:00:00	2024-11-06T21:00:00	8	Radiación solar	0
159721	7	Sololá	701	Sololá	2	El tablón	6	Junio	2023-12-06T00:00:00	2024-11-06T22:00:00	2	Temperatura media	16
159722	7	Sololá	701	Sololá	2	El tablón	6	Junio	2023-12-06T00:00:00	2024-11-06T22:00:00	4	Temperatura máxima	16.4
159723	7	Sololá	701	Sololá	2	El tablón	6	Junio	2023-12-06T00:00:00	2024-11-06T22:00:00	3	Temperatura mínima	16
159724	7	Sololá	701	Sololá	2	El tablón	6	Junio	2023-12-06T00:00:00	2024-11-06T22:00:00	5	Humedad	85
159725	7	Sololá	701	Sololá	2	El tablón	6	Junio	2023-12-06T00:00:00	2024-11-06T22:00:00	6	Velocidad del viento	6.4
159726	7	Sololá	701	Sololá	2	El tablón	6	Junio	2023-12-06T00:00:00	2024-11-06T22:00:00	7	Dirección del viento	6.44
159727	7	Sololá	701	Sololá	2	El tablón	6	Junio	2023-12-06T00:00:00	2024-11-06T22:00:00	1	Precipitación	0
159728	7	Sololá	701	Sololá	2	El tablón	6	Junio	2023-12-06T00:00:00	2024-11-06T22:00:00	8	Radiación solar	0
159729	7	Sololá	701	Sololá	2	El tablón	6	Junio	2023-12-06T00:00:00	2024-11-06T23:00:00	2	Temperatura media	15.6
159730	7	Sololá	701	Sololá	2	El tablón	6	Junio	2023-12-06T00:00:00	2024-11-06T23:00:00	4	Temperatura máxima	16
159731	7	Sololá	701	Sololá	2	El tablón	6	Junio	2023-12-06T00:00:00	2024-11-06T23:00:00	3	Temperatura mínima	15.6
159732	7	Sololá	701	Sololá	2	El tablón	6	Junio	2023-12-06T00:00:00	2024-11-06T23:00:00	5	Humedad	85
159733	7	Sololá	701	Sololá	2	El tablón	6	Junio	2023-12-06T00:00:00	2024-11-06T23:00:00	6	Velocidad del viento	8
159734	7	Sololá	701	Sololá	2	El tablón	6	Junio	2023-12-06T00:00:00	2024-11-06T23:00:00	7	Dirección del viento	8.05
159735	7	Sololá	701	Sololá	2	El tablón	6	Junio	2023-12-06T00:00:00	2024-11-06T23:00:00	1	Precipitación	0
159736	7	Sololá	701	Sololá	2	El tablón	6	Junio	2023-12-06T00:00:00	2024-11-06T23:00:00	8	Radiación solar	0
159737	7	Sololá	701	Sololá	2	El tablón	6	Junio	2023-06-13T00:00:00	2024-11-06T00:00:00	2	Temperatura media	15.2
159738	7	Sololá	701	Sololá	2	El tablón	6	Junio	2023-06-13T00:00:00	2024-11-06T00:00:00	4	Temperatura máxima	15.6
159739	7	Sololá	701	Sololá	2	El tablón	6	Junio	2023-06-13T00:00:00	2024-11-06T00:00:00	3	Temperatura mínima	15.2
159740	7	Sololá	701	Sololá	2	El tablón	6	Junio	2023-06-13T00:00:00	2024-11-06T00:00:00	5	Humedad	86
159741	7	Sololá	701	Sololá	2	El tablón	6	Junio	2023-06-13T00:00:00	2024-11-06T00:00:00	6	Velocidad del viento	6.4
159742	7	Sololá	701	Sololá	2	El tablón	6	Junio	2023-06-13T00:00:00	2024-11-06T00:00:00	7	Dirección del viento	6.44
159743	7	Sololá	701	Sololá	2	El tablón	6	Junio	2023-06-13T00:00:00	2024-11-06T00:00:00	1	Precipitación	0
159744	7	Sololá	701	Sololá	2	El tablón	6	Junio	2023-06-13T00:00:00	2024-11-06T00:00:00	8	Radiación solar	0
159745	7	Sololá	701	Sololá	2	El tablón	6	Junio	2023-06-13T00:00:00	2024-11-06T01:00:00	2	Temperatura media	14.9
159746	7	Sololá	701	Sololá	2	El tablón	6	Junio	2023-06-13T00:00:00	2024-11-06T01:00:00	4	Temperatura máxima	15.2
159747	7	Sololá	701	Sololá	2	El tablón	6	Junio	2023-06-13T00:00:00	2024-11-06T01:00:00	3	Temperatura mínima	14.9
159748	7	Sololá	701	Sololá	2	El tablón	6	Junio	2023-06-13T00:00:00	2024-11-06T01:00:00	5	Humedad	86
159749	7	Sololá	701	Sololá	2	El tablón	6	Junio	2023-06-13T00:00:00	2024-11-06T01:00:00	6	Velocidad del viento	4.8
159750	7	Sololá	701	Sololá	2	El tablón	6	Junio	2023-06-13T00:00:00	2024-11-06T01:00:00	7	Dirección del viento	4.83
159751	7	Sololá	701	Sololá	2	El tablón	6	Junio	2023-06-13T00:00:00	2024-11-06T01:00:00	1	Precipitación	0
159752	7	Sololá	701	Sololá	2	El tablón	6	Junio	2023-06-13T00:00:00	2024-11-06T01:00:00	8	Radiación solar	0
159753	7	Sololá	701	Sololá	2	El tablón	6	Junio	2023-06-13T00:00:00	2024-11-06T02:00:00	2	Temperatura media	14.6
159754	7	Sololá	701	Sololá	2	El tablón	6	Junio	2023-06-13T00:00:00	2024-11-06T02:00:00	4	Temperatura máxima	14.9
159755	7	Sololá	701	Sololá	2	El tablón	6	Junio	2023-06-13T00:00:00	2024-11-06T02:00:00	3	Temperatura mínima	14.6
159756	7	Sololá	701	Sololá	2	El tablón	6	Junio	2023-06-13T00:00:00	2024-11-06T02:00:00	5	Humedad	86
159757	7	Sololá	701	Sololá	2	El tablón	6	Junio	2023-06-13T00:00:00	2024-11-06T02:00:00	6	Velocidad del viento	8
159758	7	Sololá	701	Sololá	2	El tablón	6	Junio	2023-06-13T00:00:00	2024-11-06T02:00:00	7	Dirección del viento	8.05
159759	7	Sololá	701	Sololá	2	El tablón	6	Junio	2023-06-13T00:00:00	2024-11-06T02:00:00	1	Precipitación	0
159760	7	Sololá	701	Sololá	2	El tablón	6	Junio	2023-06-13T00:00:00	2024-11-06T02:00:00	8	Radiación solar	0
159761	7	Sololá	701	Sololá	2	El tablón	6	Junio	2023-06-13T00:00:00	2024-11-06T03:00:00	2	Temperatura media	14.7
159762	7	Sololá	701	Sololá	2	El tablón	6	Junio	2023-06-13T00:00:00	2024-11-06T03:00:00	4	Temperatura máxima	14.7
159763	7	Sololá	701	Sololá	2	El tablón	6	Junio	2023-06-13T00:00:00	2024-11-06T03:00:00	3	Temperatura mínima	14.6
159764	7	Sololá	701	Sololá	2	El tablón	6	Junio	2023-06-13T00:00:00	2024-11-06T03:00:00	5	Humedad	82
159765	7	Sololá	701	Sololá	2	El tablón	6	Junio	2023-06-13T00:00:00	2024-11-06T03:00:00	6	Velocidad del viento	11.3
159766	7	Sololá	701	Sololá	2	El tablón	6	Junio	2023-06-13T00:00:00	2024-11-06T03:00:00	7	Dirección del viento	11.27
159767	7	Sololá	701	Sololá	2	El tablón	6	Junio	2023-06-13T00:00:00	2024-11-06T03:00:00	1	Precipitación	0
159768	7	Sololá	701	Sololá	2	El tablón	6	Junio	2023-06-13T00:00:00	2024-11-06T03:00:00	8	Radiación solar	0
159769	7	Sololá	701	Sololá	2	El tablón	6	Junio	2023-06-13T00:00:00	2024-11-06T04:00:00	2	Temperatura media	15.2
159770	7	Sololá	701	Sololá	2	El tablón	6	Junio	2023-06-13T00:00:00	2024-11-06T04:00:00	4	Temperatura máxima	15.2
159771	7	Sololá	701	Sololá	2	El tablón	6	Junio	2023-06-13T00:00:00	2024-11-06T04:00:00	3	Temperatura mínima	14.7
159772	7	Sololá	701	Sololá	2	El tablón	6	Junio	2023-06-13T00:00:00	2024-11-06T04:00:00	5	Humedad	70
159773	7	Sololá	701	Sololá	2	El tablón	6	Junio	2023-06-13T00:00:00	2024-11-06T04:00:00	6	Velocidad del viento	6.4
159774	7	Sololá	701	Sololá	2	El tablón	6	Junio	2023-06-13T00:00:00	2024-11-06T04:00:00	7	Dirección del viento	6.44
159775	7	Sololá	701	Sololá	2	El tablón	6	Junio	2023-06-13T00:00:00	2024-11-06T04:00:00	1	Precipitación	0
159776	7	Sololá	701	Sololá	2	El tablón	6	Junio	2023-06-13T00:00:00	2024-11-06T04:00:00	8	Radiación solar	0
159777	7	Sololá	701	Sololá	2	El tablón	6	Junio	2023-06-13T00:00:00	2024-11-06T05:00:00	2	Temperatura media	14.9
159778	7	Sololá	701	Sololá	2	El tablón	6	Junio	2023-06-13T00:00:00	2024-11-06T05:00:00	4	Temperatura máxima	15.2
159779	7	Sololá	701	Sololá	2	El tablón	6	Junio	2023-06-13T00:00:00	2024-11-06T05:00:00	3	Temperatura mínima	14.7
159780	7	Sololá	701	Sololá	2	El tablón	6	Junio	2023-06-13T00:00:00	2024-11-06T05:00:00	5	Humedad	78
159781	7	Sololá	701	Sololá	2	El tablón	6	Junio	2023-06-13T00:00:00	2024-11-06T05:00:00	6	Velocidad del viento	11.3
159782	7	Sololá	701	Sololá	2	El tablón	6	Junio	2023-06-13T00:00:00	2024-11-06T05:00:00	7	Dirección del viento	11.27
159783	7	Sololá	701	Sololá	2	El tablón	6	Junio	2023-06-13T00:00:00	2024-11-06T05:00:00	1	Precipitación	0
159784	7	Sololá	701	Sololá	2	El tablón	6	Junio	2023-06-13T00:00:00	2024-11-06T05:00:00	8	Radiación solar	0
159785	7	Sololá	701	Sololá	2	El tablón	6	Junio	2023-06-13T00:00:00	2024-11-06T06:00:00	2	Temperatura media	14.8
159786	7	Sololá	701	Sololá	2	El tablón	6	Junio	2023-06-13T00:00:00	2024-11-06T06:00:00	4	Temperatura máxima	14.9
159787	7	Sololá	701	Sololá	2	El tablón	6	Junio	2023-06-13T00:00:00	2024-11-06T06:00:00	3	Temperatura mínima	14.6
159788	7	Sololá	701	Sololá	2	El tablón	6	Junio	2023-06-13T00:00:00	2024-11-06T06:00:00	5	Humedad	81
159789	7	Sololá	701	Sololá	2	El tablón	6	Junio	2023-06-13T00:00:00	2024-11-06T06:00:00	6	Velocidad del viento	12.9
159790	7	Sololá	701	Sololá	2	El tablón	6	Junio	2023-06-13T00:00:00	2024-11-06T06:00:00	7	Dirección del viento	12.87
159791	7	Sololá	701	Sololá	2	El tablón	6	Junio	2023-06-13T00:00:00	2024-11-06T06:00:00	1	Precipitación	0
159792	7	Sololá	701	Sololá	2	El tablón	6	Junio	2023-06-13T00:00:00	2024-11-06T06:00:00	8	Radiación solar	6
159793	7	Sololá	701	Sololá	2	El tablón	6	Junio	2023-06-13T00:00:00	2024-11-06T07:00:00	2	Temperatura media	15.1
159794	7	Sololá	701	Sololá	2	El tablón	6	Junio	2023-06-13T00:00:00	2024-11-06T07:00:00	4	Temperatura máxima	15.2
159795	7	Sololá	701	Sololá	2	El tablón	6	Junio	2023-06-13T00:00:00	2024-11-06T07:00:00	3	Temperatura mínima	14.8
159796	7	Sololá	701	Sololá	2	El tablón	6	Junio	2023-06-13T00:00:00	2024-11-06T07:00:00	5	Humedad	84
159797	7	Sololá	701	Sololá	2	El tablón	6	Junio	2023-06-13T00:00:00	2024-11-06T07:00:00	6	Velocidad del viento	11.3
159798	7	Sololá	701	Sololá	2	El tablón	6	Junio	2023-06-13T00:00:00	2024-11-06T07:00:00	7	Dirección del viento	11.27
159799	7	Sololá	701	Sololá	2	El tablón	6	Junio	2023-06-13T00:00:00	2024-11-06T07:00:00	1	Precipitación	0
159800	7	Sololá	701	Sololá	2	El tablón	6	Junio	2023-06-13T00:00:00	2024-11-06T07:00:00	8	Radiación solar	89
159801	7	Sololá	701	Sololá	2	El tablón	6	Junio	2023-06-13T00:00:00	2024-11-06T08:00:00	2	Temperatura media	16.9
159802	7	Sololá	701	Sololá	2	El tablón	6	Junio	2023-06-13T00:00:00	2024-11-06T08:00:00	4	Temperatura máxima	16.9
159803	7	Sololá	701	Sololá	2	El tablón	6	Junio	2023-06-13T00:00:00	2024-11-06T08:00:00	3	Temperatura mínima	15.1
159804	7	Sololá	701	Sololá	2	El tablón	6	Junio	2023-06-13T00:00:00	2024-11-06T08:00:00	5	Humedad	75
159805	7	Sololá	701	Sololá	2	El tablón	6	Junio	2023-06-13T00:00:00	2024-11-06T08:00:00	6	Velocidad del viento	14.5
159806	7	Sololá	701	Sololá	2	El tablón	6	Junio	2023-06-13T00:00:00	2024-11-06T08:00:00	7	Dirección del viento	14.48
159807	7	Sololá	701	Sololá	2	El tablón	6	Junio	2023-06-13T00:00:00	2024-11-06T08:00:00	1	Precipitación	0
159808	7	Sololá	701	Sololá	2	El tablón	6	Junio	2023-06-13T00:00:00	2024-11-06T08:00:00	8	Radiación solar	257
159809	7	Sololá	701	Sololá	2	El tablón	6	Junio	2023-06-13T00:00:00	2024-11-06T09:00:00	2	Temperatura media	18.8
159810	7	Sololá	701	Sololá	2	El tablón	6	Junio	2023-06-13T00:00:00	2024-11-06T09:00:00	4	Temperatura máxima	18.8
159811	7	Sololá	701	Sololá	2	El tablón	6	Junio	2023-06-13T00:00:00	2024-11-06T09:00:00	3	Temperatura mínima	16.8
159812	7	Sololá	701	Sololá	2	El tablón	6	Junio	2023-06-13T00:00:00	2024-11-06T09:00:00	5	Humedad	67
159813	7	Sololá	701	Sololá	2	El tablón	6	Junio	2023-06-13T00:00:00	2024-11-06T09:00:00	6	Velocidad del viento	11.3
159814	7	Sololá	701	Sololá	2	El tablón	6	Junio	2023-06-13T00:00:00	2024-11-06T09:00:00	7	Dirección del viento	11.27
159815	7	Sololá	701	Sololá	2	El tablón	6	Junio	2023-06-13T00:00:00	2024-11-06T09:00:00	1	Precipitación	0
159816	7	Sololá	701	Sololá	2	El tablón	6	Junio	2023-06-13T00:00:00	2024-11-06T09:00:00	8	Radiación solar	517
159817	7	Sololá	701	Sololá	2	El tablón	6	Junio	2023-06-13T00:00:00	2024-11-06T10:00:00	2	Temperatura media	19.1
159818	7	Sololá	701	Sololá	2	El tablón	6	Junio	2023-06-13T00:00:00	2024-11-06T10:00:00	4	Temperatura máxima	19.6
159819	7	Sololá	701	Sololá	2	El tablón	6	Junio	2023-06-13T00:00:00	2024-11-06T10:00:00	3	Temperatura mínima	18.8
159820	7	Sololá	701	Sololá	2	El tablón	6	Junio	2023-06-13T00:00:00	2024-11-06T10:00:00	5	Humedad	65
159821	7	Sololá	701	Sololá	2	El tablón	6	Junio	2023-06-13T00:00:00	2024-11-06T10:00:00	6	Velocidad del viento	11.3
159822	7	Sololá	701	Sololá	2	El tablón	6	Junio	2023-06-13T00:00:00	2024-11-06T10:00:00	7	Dirección del viento	11.27
159823	7	Sololá	701	Sololá	2	El tablón	6	Junio	2023-06-13T00:00:00	2024-11-06T10:00:00	1	Precipitación	0
159824	7	Sololá	701	Sololá	2	El tablón	6	Junio	2023-06-13T00:00:00	2024-11-06T10:00:00	8	Radiación solar	649
159825	7	Sololá	701	Sololá	2	El tablón	6	Junio	2023-06-13T00:00:00	2024-11-06T11:00:00	2	Temperatura media	20.4
159826	7	Sololá	701	Sololá	2	El tablón	6	Junio	2023-06-13T00:00:00	2024-11-06T11:00:00	4	Temperatura máxima	20.4
159827	7	Sololá	701	Sololá	2	El tablón	6	Junio	2023-06-13T00:00:00	2024-11-06T11:00:00	3	Temperatura mínima	19.1
159828	7	Sololá	701	Sololá	2	El tablón	6	Junio	2023-06-13T00:00:00	2024-11-06T11:00:00	5	Humedad	58
159829	7	Sololá	701	Sololá	2	El tablón	6	Junio	2023-06-13T00:00:00	2024-11-06T11:00:00	6	Velocidad del viento	11.3
159830	7	Sololá	701	Sololá	2	El tablón	6	Junio	2023-06-13T00:00:00	2024-11-06T11:00:00	7	Dirección del viento	11.27
159831	7	Sololá	701	Sololá	2	El tablón	6	Junio	2023-06-13T00:00:00	2024-11-06T11:00:00	1	Precipitación	0
159832	7	Sololá	701	Sololá	2	El tablón	6	Junio	2023-06-13T00:00:00	2024-11-06T11:00:00	8	Radiación solar	792
159833	7	Sololá	701	Sololá	2	El tablón	6	Junio	2023-06-13T00:00:00	2024-11-06T12:00:00	2	Temperatura media	21.7
159834	7	Sololá	701	Sololá	2	El tablón	6	Junio	2023-06-13T00:00:00	2024-11-06T12:00:00	4	Temperatura máxima	21.7
159835	7	Sololá	701	Sololá	2	El tablón	6	Junio	2023-06-13T00:00:00	2024-11-06T12:00:00	3	Temperatura mínima	20.4
159836	7	Sololá	701	Sololá	2	El tablón	6	Junio	2023-06-13T00:00:00	2024-11-06T12:00:00	5	Humedad	52
159837	7	Sololá	701	Sololá	2	El tablón	6	Junio	2023-06-13T00:00:00	2024-11-06T12:00:00	6	Velocidad del viento	11.3
159838	7	Sololá	701	Sololá	2	El tablón	6	Junio	2023-06-13T00:00:00	2024-11-06T12:00:00	7	Dirección del viento	11.27
159839	7	Sololá	701	Sololá	2	El tablón	6	Junio	2023-06-13T00:00:00	2024-11-06T12:00:00	1	Precipitación	0
159840	7	Sololá	701	Sololá	2	El tablón	6	Junio	2023-06-13T00:00:00	2024-11-06T12:00:00	8	Radiación solar	939
159841	7	Sololá	701	Sololá	2	El tablón	6	Junio	2023-06-13T00:00:00	2024-11-06T13:00:00	2	Temperatura media	22.8
159842	7	Sololá	701	Sololá	2	El tablón	6	Junio	2023-06-13T00:00:00	2024-11-06T13:00:00	4	Temperatura máxima	23.4
159843	7	Sololá	701	Sololá	2	El tablón	6	Junio	2023-06-13T00:00:00	2024-11-06T13:00:00	3	Temperatura mínima	21.7
159844	7	Sololá	701	Sololá	2	El tablón	6	Junio	2023-06-13T00:00:00	2024-11-06T13:00:00	5	Humedad	62
159845	7	Sololá	701	Sololá	2	El tablón	6	Junio	2023-06-13T00:00:00	2024-11-06T13:00:00	6	Velocidad del viento	8
159846	7	Sololá	701	Sololá	2	El tablón	6	Junio	2023-06-13T00:00:00	2024-11-06T13:00:00	7	Dirección del viento	8.05
159847	7	Sololá	701	Sololá	2	El tablón	6	Junio	2023-06-13T00:00:00	2024-11-06T13:00:00	1	Precipitación	0
159848	7	Sololá	701	Sololá	2	El tablón	6	Junio	2023-06-13T00:00:00	2024-11-06T13:00:00	8	Radiación solar	944
159849	7	Sololá	701	Sololá	2	El tablón	6	Junio	2023-06-13T00:00:00	2024-11-06T14:00:00	2	Temperatura media	20.2
159850	7	Sololá	701	Sololá	2	El tablón	6	Junio	2023-06-13T00:00:00	2024-11-06T14:00:00	4	Temperatura máxima	22.7
159851	7	Sololá	701	Sololá	2	El tablón	6	Junio	2023-06-13T00:00:00	2024-11-06T14:00:00	3	Temperatura mínima	20
159852	7	Sololá	701	Sololá	2	El tablón	6	Junio	2023-06-13T00:00:00	2024-11-06T14:00:00	5	Humedad	78
159853	7	Sololá	701	Sololá	2	El tablón	6	Junio	2023-06-13T00:00:00	2024-11-06T14:00:00	6	Velocidad del viento	8
159854	7	Sololá	701	Sololá	2	El tablón	6	Junio	2023-06-13T00:00:00	2024-11-06T14:00:00	7	Dirección del viento	8.05
159855	7	Sololá	701	Sololá	2	El tablón	6	Junio	2023-06-13T00:00:00	2024-11-06T14:00:00	1	Precipitación	0
159856	7	Sololá	701	Sololá	2	El tablón	6	Junio	2023-06-13T00:00:00	2024-11-06T14:00:00	8	Radiación solar	608
159857	7	Sololá	701	Sololá	2	El tablón	6	Junio	2023-06-13T00:00:00	2024-11-06T15:00:00	2	Temperatura media	19
159858	7	Sololá	701	Sololá	2	El tablón	6	Junio	2023-06-13T00:00:00	2024-11-06T15:00:00	4	Temperatura máxima	20.9
159859	7	Sololá	701	Sololá	2	El tablón	6	Junio	2023-06-13T00:00:00	2024-11-06T15:00:00	3	Temperatura mínima	19
159860	7	Sololá	701	Sololá	2	El tablón	6	Junio	2023-06-13T00:00:00	2024-11-06T15:00:00	5	Humedad	83
159861	7	Sololá	701	Sololá	2	El tablón	6	Junio	2023-06-13T00:00:00	2024-11-06T15:00:00	6	Velocidad del viento	9.7
159862	7	Sololá	701	Sololá	2	El tablón	6	Junio	2023-06-13T00:00:00	2024-11-06T15:00:00	7	Dirección del viento	9.66
159863	7	Sololá	701	Sololá	2	El tablón	6	Junio	2023-06-13T00:00:00	2024-11-06T15:00:00	1	Precipitación	0
159864	7	Sololá	701	Sololá	2	El tablón	6	Junio	2023-06-13T00:00:00	2024-11-06T15:00:00	8	Radiación solar	582
159865	7	Sololá	701	Sololá	2	El tablón	6	Junio	2023-06-13T00:00:00	2024-11-06T16:00:00	2	Temperatura media	18.6
159866	7	Sololá	701	Sololá	2	El tablón	6	Junio	2023-06-13T00:00:00	2024-11-06T16:00:00	4	Temperatura máxima	19.4
159867	7	Sololá	701	Sololá	2	El tablón	6	Junio	2023-06-13T00:00:00	2024-11-06T16:00:00	3	Temperatura mínima	18.6
159868	7	Sololá	701	Sololá	2	El tablón	6	Junio	2023-06-13T00:00:00	2024-11-06T16:00:00	5	Humedad	85
159869	7	Sololá	701	Sololá	2	El tablón	6	Junio	2023-06-13T00:00:00	2024-11-06T16:00:00	6	Velocidad del viento	6.4
159870	7	Sololá	701	Sololá	2	El tablón	6	Junio	2023-06-13T00:00:00	2024-11-06T16:00:00	7	Dirección del viento	6.44
159871	7	Sololá	701	Sololá	2	El tablón	6	Junio	2023-06-13T00:00:00	2024-11-06T16:00:00	1	Precipitación	0
159872	7	Sololá	701	Sololá	2	El tablón	6	Junio	2023-06-13T00:00:00	2024-11-06T16:00:00	8	Radiación solar	353
159873	7	Sololá	701	Sololá	2	El tablón	6	Junio	2023-06-13T00:00:00	2024-11-06T17:00:00	2	Temperatura media	17.9
159874	7	Sololá	701	Sololá	2	El tablón	6	Junio	2023-06-13T00:00:00	2024-11-06T17:00:00	4	Temperatura máxima	18.6
159875	7	Sololá	701	Sololá	2	El tablón	6	Junio	2023-06-13T00:00:00	2024-11-06T17:00:00	3	Temperatura mínima	17.8
159876	7	Sololá	701	Sololá	2	El tablón	6	Junio	2023-06-13T00:00:00	2024-11-06T17:00:00	5	Humedad	86
159877	7	Sololá	701	Sololá	2	El tablón	6	Junio	2023-06-13T00:00:00	2024-11-06T17:00:00	6	Velocidad del viento	4.8
159878	7	Sololá	701	Sololá	2	El tablón	6	Junio	2023-06-13T00:00:00	2024-11-06T17:00:00	7	Dirección del viento	4.83
159879	7	Sololá	701	Sololá	2	El tablón	6	Junio	2023-06-13T00:00:00	2024-11-06T17:00:00	1	Precipitación	0
159880	7	Sololá	701	Sololá	2	El tablón	6	Junio	2023-06-13T00:00:00	2024-11-06T17:00:00	8	Radiación solar	199
159881	7	Sololá	701	Sololá	2	El tablón	6	Junio	2023-06-13T00:00:00	2024-11-06T18:00:00	2	Temperatura media	16.8
159882	7	Sololá	701	Sololá	2	El tablón	6	Junio	2023-06-13T00:00:00	2024-11-06T18:00:00	4	Temperatura máxima	18.5
159883	7	Sololá	701	Sololá	2	El tablón	6	Junio	2023-06-13T00:00:00	2024-11-06T18:00:00	3	Temperatura mínima	16.8
159884	7	Sololá	701	Sololá	2	El tablón	6	Junio	2023-06-13T00:00:00	2024-11-06T18:00:00	5	Humedad	88
159885	7	Sololá	701	Sololá	2	El tablón	6	Junio	2023-06-13T00:00:00	2024-11-06T18:00:00	6	Velocidad del viento	4.8
159886	7	Sololá	701	Sololá	2	El tablón	6	Junio	2023-06-13T00:00:00	2024-11-06T18:00:00	7	Dirección del viento	4.83
159887	7	Sololá	701	Sololá	2	El tablón	6	Junio	2023-06-13T00:00:00	2024-11-06T18:00:00	1	Precipitación	0
159888	7	Sololá	701	Sololá	2	El tablón	6	Junio	2023-06-13T00:00:00	2024-11-06T18:00:00	8	Radiación solar	109
159889	7	Sololá	701	Sololá	2	El tablón	6	Junio	2023-06-13T00:00:00	2024-11-06T19:00:00	2	Temperatura media	16.6
159890	7	Sololá	701	Sololá	2	El tablón	6	Junio	2023-06-13T00:00:00	2024-11-06T19:00:00	4	Temperatura máxima	16.8
159891	7	Sololá	701	Sololá	2	El tablón	6	Junio	2023-06-13T00:00:00	2024-11-06T19:00:00	3	Temperatura mínima	16.6
159892	7	Sololá	701	Sololá	2	El tablón	6	Junio	2023-06-13T00:00:00	2024-11-06T19:00:00	5	Humedad	88
159893	7	Sololá	701	Sololá	2	El tablón	6	Junio	2023-06-13T00:00:00	2024-11-06T19:00:00	6	Velocidad del viento	1.6
159894	7	Sololá	701	Sololá	2	El tablón	6	Junio	2023-06-13T00:00:00	2024-11-06T19:00:00	7	Dirección del viento	1.61
159895	7	Sololá	701	Sololá	2	El tablón	6	Junio	2023-06-13T00:00:00	2024-11-06T19:00:00	1	Precipitación	0
159896	7	Sololá	701	Sololá	2	El tablón	6	Junio	2023-06-13T00:00:00	2024-11-06T19:00:00	8	Radiación solar	0
159897	7	Sololá	701	Sololá	2	El tablón	6	Junio	2023-06-13T00:00:00	2024-11-06T20:00:00	2	Temperatura media	15.8
159898	7	Sololá	701	Sololá	2	El tablón	6	Junio	2023-06-13T00:00:00	2024-11-06T20:00:00	4	Temperatura máxima	16.6
159899	7	Sololá	701	Sololá	2	El tablón	6	Junio	2023-06-13T00:00:00	2024-11-06T20:00:00	3	Temperatura mínima	15.8
159900	7	Sololá	701	Sololá	2	El tablón	6	Junio	2023-06-13T00:00:00	2024-11-06T20:00:00	5	Humedad	87
159901	7	Sololá	701	Sololá	2	El tablón	6	Junio	2023-06-13T00:00:00	2024-11-06T20:00:00	6	Velocidad del viento	1.6
159902	7	Sololá	701	Sololá	2	El tablón	6	Junio	2023-06-13T00:00:00	2024-11-06T20:00:00	7	Dirección del viento	1.61
159903	7	Sololá	701	Sololá	2	El tablón	6	Junio	2023-06-13T00:00:00	2024-11-06T20:00:00	1	Precipitación	0
159904	7	Sololá	701	Sololá	2	El tablón	6	Junio	2023-06-13T00:00:00	2024-11-06T20:00:00	8	Radiación solar	0
159905	7	Sololá	701	Sololá	2	El tablón	6	Junio	2023-06-13T00:00:00	2024-11-06T21:00:00	2	Temperatura media	16.7
159906	7	Sololá	701	Sololá	2	El tablón	6	Junio	2023-06-13T00:00:00	2024-11-06T21:00:00	4	Temperatura máxima	16.7
159907	7	Sololá	701	Sololá	2	El tablón	6	Junio	2023-06-13T00:00:00	2024-11-06T21:00:00	3	Temperatura mínima	15.8
159908	7	Sololá	701	Sololá	2	El tablón	6	Junio	2023-06-13T00:00:00	2024-11-06T21:00:00	5	Humedad	82
159909	7	Sololá	701	Sololá	2	El tablón	6	Junio	2023-06-13T00:00:00	2024-11-06T21:00:00	6	Velocidad del viento	4.8
159910	7	Sololá	701	Sololá	2	El tablón	6	Junio	2023-06-13T00:00:00	2024-11-06T21:00:00	7	Dirección del viento	4.83
159911	7	Sololá	701	Sololá	2	El tablón	6	Junio	2023-06-13T00:00:00	2024-11-06T21:00:00	1	Precipitación	0
159912	7	Sololá	701	Sololá	2	El tablón	6	Junio	2023-06-13T00:00:00	2024-11-06T21:00:00	8	Radiación solar	0
159913	7	Sololá	701	Sololá	2	El tablón	6	Junio	2023-06-13T00:00:00	2024-11-06T22:00:00	2	Temperatura media	15.9
159914	7	Sololá	701	Sololá	2	El tablón	6	Junio	2023-06-13T00:00:00	2024-11-06T22:00:00	4	Temperatura máxima	16.7
159915	7	Sololá	701	Sololá	2	El tablón	6	Junio	2023-06-13T00:00:00	2024-11-06T22:00:00	3	Temperatura mínima	15.9
159916	7	Sololá	701	Sololá	2	El tablón	6	Junio	2023-06-13T00:00:00	2024-11-06T22:00:00	5	Humedad	84
159917	7	Sololá	701	Sololá	2	El tablón	6	Junio	2023-06-13T00:00:00	2024-11-06T22:00:00	6	Velocidad del viento	4.8
159918	7	Sololá	701	Sololá	2	El tablón	6	Junio	2023-06-13T00:00:00	2024-11-06T22:00:00	7	Dirección del viento	4.83
159919	7	Sololá	701	Sololá	2	El tablón	6	Junio	2023-06-13T00:00:00	2024-11-06T22:00:00	1	Precipitación	0
159920	7	Sololá	701	Sololá	2	El tablón	6	Junio	2023-06-13T00:00:00	2024-11-06T22:00:00	8	Radiación solar	0
159921	7	Sololá	701	Sololá	2	El tablón	6	Junio	2023-06-13T00:00:00	2024-11-06T23:00:00	2	Temperatura media	15.6
159922	7	Sololá	701	Sololá	2	El tablón	6	Junio	2023-06-13T00:00:00	2024-11-06T23:00:00	4	Temperatura máxima	15.9
159923	7	Sololá	701	Sololá	2	El tablón	6	Junio	2023-06-13T00:00:00	2024-11-06T23:00:00	3	Temperatura mínima	15.6
159924	7	Sololá	701	Sololá	2	El tablón	6	Junio	2023-06-13T00:00:00	2024-11-06T23:00:00	5	Humedad	86
159925	7	Sololá	701	Sololá	2	El tablón	6	Junio	2023-06-13T00:00:00	2024-11-06T23:00:00	6	Velocidad del viento	6.4
159926	7	Sololá	701	Sololá	2	El tablón	6	Junio	2023-06-13T00:00:00	2024-11-06T23:00:00	7	Dirección del viento	6.44
159927	7	Sololá	701	Sololá	2	El tablón	6	Junio	2023-06-13T00:00:00	2024-11-06T23:00:00	1	Precipitación	0
159928	7	Sololá	701	Sololá	2	El tablón	6	Junio	2023-06-13T00:00:00	2024-11-06T23:00:00	8	Radiación solar	0
159929	7	Sololá	701	Sololá	2	El tablón	6	Junio	2023-06-14T00:00:00	2024-11-06T00:00:00	2	Temperatura media	15.1
159930	7	Sololá	701	Sololá	2	El tablón	6	Junio	2023-06-14T00:00:00	2024-11-06T00:00:00	4	Temperatura máxima	15.6
159931	7	Sololá	701	Sololá	2	El tablón	6	Junio	2023-06-14T00:00:00	2024-11-06T00:00:00	3	Temperatura mínima	15
159932	7	Sololá	701	Sololá	2	El tablón	6	Junio	2023-06-14T00:00:00	2024-11-06T00:00:00	5	Humedad	87
159933	7	Sololá	701	Sololá	2	El tablón	6	Junio	2023-06-14T00:00:00	2024-11-06T00:00:00	6	Velocidad del viento	8
159934	7	Sololá	701	Sololá	2	El tablón	6	Junio	2023-06-14T00:00:00	2024-11-06T00:00:00	7	Dirección del viento	8.05
159935	7	Sololá	701	Sololá	2	El tablón	6	Junio	2023-06-14T00:00:00	2024-11-06T00:00:00	1	Precipitación	0
159936	7	Sololá	701	Sololá	2	El tablón	6	Junio	2023-06-14T00:00:00	2024-11-06T00:00:00	8	Radiación solar	0
159937	7	Sololá	701	Sololá	2	El tablón	6	Junio	2023-06-14T00:00:00	2024-11-06T01:00:00	2	Temperatura media	14.9
159938	7	Sololá	701	Sololá	2	El tablón	6	Junio	2023-06-14T00:00:00	2024-11-06T01:00:00	4	Temperatura máxima	15.2
159939	7	Sololá	701	Sololá	2	El tablón	6	Junio	2023-06-14T00:00:00	2024-11-06T01:00:00	3	Temperatura mínima	14.8
159940	7	Sololá	701	Sololá	2	El tablón	6	Junio	2023-06-14T00:00:00	2024-11-06T01:00:00	5	Humedad	87
159941	7	Sololá	701	Sololá	2	El tablón	6	Junio	2023-06-14T00:00:00	2024-11-06T01:00:00	6	Velocidad del viento	11.3
159942	7	Sololá	701	Sololá	2	El tablón	6	Junio	2023-06-14T00:00:00	2024-11-06T01:00:00	7	Dirección del viento	11.27
159943	7	Sololá	701	Sololá	2	El tablón	6	Junio	2023-06-14T00:00:00	2024-11-06T01:00:00	1	Precipitación	0
159944	7	Sololá	701	Sololá	2	El tablón	6	Junio	2023-06-14T00:00:00	2024-11-06T01:00:00	8	Radiación solar	0
159945	7	Sololá	701	Sololá	2	El tablón	6	Junio	2023-06-14T00:00:00	2024-11-06T02:00:00	2	Temperatura media	14.8
159946	7	Sololá	701	Sololá	2	El tablón	6	Junio	2023-06-14T00:00:00	2024-11-06T02:00:00	4	Temperatura máxima	14.9
159947	7	Sololá	701	Sololá	2	El tablón	6	Junio	2023-06-14T00:00:00	2024-11-06T02:00:00	3	Temperatura mínima	14.6
159948	7	Sololá	701	Sololá	2	El tablón	6	Junio	2023-06-14T00:00:00	2024-11-06T02:00:00	5	Humedad	84
159949	7	Sololá	701	Sololá	2	El tablón	6	Junio	2023-06-14T00:00:00	2024-11-06T02:00:00	6	Velocidad del viento	9.7
159950	7	Sololá	701	Sololá	2	El tablón	6	Junio	2023-06-14T00:00:00	2024-11-06T02:00:00	7	Dirección del viento	9.66
159951	7	Sololá	701	Sololá	2	El tablón	6	Junio	2023-06-14T00:00:00	2024-11-06T02:00:00	1	Precipitación	0
159952	7	Sololá	701	Sololá	2	El tablón	6	Junio	2023-06-14T00:00:00	2024-11-06T02:00:00	8	Radiación solar	0
159953	7	Sololá	701	Sololá	2	El tablón	6	Junio	2023-06-14T00:00:00	2024-11-06T03:00:00	2	Temperatura media	14.7
159954	7	Sololá	701	Sololá	2	El tablón	6	Junio	2023-06-14T00:00:00	2024-11-06T03:00:00	4	Temperatura máxima	15.1
159955	7	Sololá	701	Sololá	2	El tablón	6	Junio	2023-06-14T00:00:00	2024-11-06T03:00:00	3	Temperatura mínima	14.6
159956	7	Sololá	701	Sololá	2	El tablón	6	Junio	2023-06-14T00:00:00	2024-11-06T03:00:00	5	Humedad	82
159957	7	Sololá	701	Sololá	2	El tablón	6	Junio	2023-06-14T00:00:00	2024-11-06T03:00:00	6	Velocidad del viento	9.7
159958	7	Sololá	701	Sololá	2	El tablón	6	Junio	2023-06-14T00:00:00	2024-11-06T03:00:00	7	Dirección del viento	9.66
159959	7	Sololá	701	Sololá	2	El tablón	6	Junio	2023-06-14T00:00:00	2024-11-06T03:00:00	1	Precipitación	0
159960	7	Sololá	701	Sololá	2	El tablón	6	Junio	2023-06-14T00:00:00	2024-11-06T03:00:00	8	Radiación solar	0
159961	7	Sololá	701	Sololá	2	El tablón	6	Junio	2023-06-14T00:00:00	2024-11-06T04:00:00	2	Temperatura media	14.4
159962	7	Sololá	701	Sololá	2	El tablón	6	Junio	2023-06-14T00:00:00	2024-11-06T04:00:00	4	Temperatura máxima	14.7
159963	7	Sololá	701	Sololá	2	El tablón	6	Junio	2023-06-14T00:00:00	2024-11-06T04:00:00	3	Temperatura mínima	14.4
159964	7	Sololá	701	Sololá	2	El tablón	6	Junio	2023-06-14T00:00:00	2024-11-06T04:00:00	5	Humedad	82
159965	7	Sololá	701	Sololá	2	El tablón	6	Junio	2023-06-14T00:00:00	2024-11-06T04:00:00	6	Velocidad del viento	9.7
159966	7	Sololá	701	Sololá	2	El tablón	6	Junio	2023-06-14T00:00:00	2024-11-06T04:00:00	7	Dirección del viento	9.66
159967	7	Sololá	701	Sololá	2	El tablón	6	Junio	2023-06-14T00:00:00	2024-11-06T04:00:00	1	Precipitación	0
159968	7	Sololá	701	Sololá	2	El tablón	6	Junio	2023-06-14T00:00:00	2024-11-06T04:00:00	8	Radiación solar	0
159969	7	Sololá	701	Sololá	2	El tablón	6	Junio	2023-06-14T00:00:00	2024-11-06T05:00:00	2	Temperatura media	14.3
159970	7	Sololá	701	Sololá	2	El tablón	6	Junio	2023-06-14T00:00:00	2024-11-06T05:00:00	4	Temperatura máxima	14.3
159971	7	Sololá	701	Sololá	2	El tablón	6	Junio	2023-06-14T00:00:00	2024-11-06T05:00:00	3	Temperatura mínima	14.2
159972	7	Sololá	701	Sololá	2	El tablón	6	Junio	2023-06-14T00:00:00	2024-11-06T05:00:00	5	Humedad	81
159973	7	Sololá	701	Sololá	2	El tablón	6	Junio	2023-06-14T00:00:00	2024-11-06T05:00:00	6	Velocidad del viento	6.4
159974	7	Sololá	701	Sololá	2	El tablón	6	Junio	2023-06-14T00:00:00	2024-11-06T05:00:00	7	Dirección del viento	6.44
159975	7	Sololá	701	Sololá	2	El tablón	6	Junio	2023-06-14T00:00:00	2024-11-06T05:00:00	1	Precipitación	0
159976	7	Sololá	701	Sololá	2	El tablón	6	Junio	2023-06-14T00:00:00	2024-11-06T05:00:00	8	Radiación solar	0
159977	7	Sololá	701	Sololá	2	El tablón	6	Junio	2023-06-14T00:00:00	2024-11-06T06:00:00	2	Temperatura media	14.4
159978	7	Sololá	701	Sololá	2	El tablón	6	Junio	2023-06-14T00:00:00	2024-11-06T06:00:00	4	Temperatura máxima	14.4
159979	7	Sololá	701	Sololá	2	El tablón	6	Junio	2023-06-14T00:00:00	2024-11-06T06:00:00	3	Temperatura mínima	14.2
159980	7	Sololá	701	Sololá	2	El tablón	6	Junio	2023-06-14T00:00:00	2024-11-06T06:00:00	5	Humedad	78
159981	7	Sololá	701	Sololá	2	El tablón	6	Junio	2023-06-14T00:00:00	2024-11-06T06:00:00	6	Velocidad del viento	6.4
159982	7	Sololá	701	Sololá	2	El tablón	6	Junio	2023-06-14T00:00:00	2024-11-06T06:00:00	7	Dirección del viento	6.44
159983	7	Sololá	701	Sololá	2	El tablón	6	Junio	2023-06-14T00:00:00	2024-11-06T06:00:00	1	Precipitación	0
159984	7	Sololá	701	Sololá	2	El tablón	6	Junio	2023-06-14T00:00:00	2024-11-06T06:00:00	8	Radiación solar	8
159985	7	Sololá	701	Sololá	2	El tablón	6	Junio	2023-06-14T00:00:00	2024-11-06T07:00:00	2	Temperatura media	16.2
159986	7	Sololá	701	Sololá	2	El tablón	6	Junio	2023-06-14T00:00:00	2024-11-06T07:00:00	4	Temperatura máxima	16.2
159987	7	Sololá	701	Sololá	2	El tablón	6	Junio	2023-06-14T00:00:00	2024-11-06T07:00:00	3	Temperatura mínima	14.4
159988	7	Sololá	701	Sololá	2	El tablón	6	Junio	2023-06-14T00:00:00	2024-11-06T07:00:00	5	Humedad	74
159989	7	Sololá	701	Sololá	2	El tablón	6	Junio	2023-06-14T00:00:00	2024-11-06T07:00:00	6	Velocidad del viento	3.2
159990	7	Sololá	701	Sololá	2	El tablón	6	Junio	2023-06-14T00:00:00	2024-11-06T07:00:00	7	Dirección del viento	3.22
159991	7	Sololá	701	Sololá	2	El tablón	6	Junio	2023-06-14T00:00:00	2024-11-06T07:00:00	1	Precipitación	0
159992	7	Sololá	701	Sololá	2	El tablón	6	Junio	2023-06-14T00:00:00	2024-11-06T07:00:00	8	Radiación solar	96
159993	7	Sololá	701	Sololá	2	El tablón	6	Junio	2023-06-14T00:00:00	2024-11-06T08:00:00	2	Temperatura media	17.9
159994	7	Sololá	701	Sololá	2	El tablón	6	Junio	2023-06-14T00:00:00	2024-11-06T08:00:00	4	Temperatura máxima	17.9
159995	7	Sololá	701	Sololá	2	El tablón	6	Junio	2023-06-14T00:00:00	2024-11-06T08:00:00	3	Temperatura mínima	16.2
159996	7	Sololá	701	Sololá	2	El tablón	6	Junio	2023-06-14T00:00:00	2024-11-06T08:00:00	5	Humedad	69
159997	7	Sololá	701	Sololá	2	El tablón	6	Junio	2023-06-14T00:00:00	2024-11-06T08:00:00	6	Velocidad del viento	4.8
159998	7	Sololá	701	Sololá	2	El tablón	6	Junio	2023-06-14T00:00:00	2024-11-06T08:00:00	7	Dirección del viento	4.83
159999	7	Sololá	701	Sololá	2	El tablón	6	Junio	2023-06-14T00:00:00	2024-11-06T08:00:00	1	Precipitación	0
160000	7	Sololá	701	Sololá	2	El tablón	6	Junio	2023-06-14T00:00:00	2024-11-06T08:00:00	8	Radiación solar	280
160001	7	Sololá	701	Sololá	2	El tablón	6	Junio	2023-06-14T00:00:00	2024-11-06T09:00:00	2	Temperatura media	19.1
160002	7	Sololá	701	Sololá	2	El tablón	6	Junio	2023-06-14T00:00:00	2024-11-06T09:00:00	4	Temperatura máxima	19.1
160003	7	Sololá	701	Sololá	2	El tablón	6	Junio	2023-06-14T00:00:00	2024-11-06T09:00:00	3	Temperatura mínima	17.9
160004	7	Sololá	701	Sololá	2	El tablón	6	Junio	2023-06-14T00:00:00	2024-11-06T09:00:00	5	Humedad	66
160005	7	Sololá	701	Sololá	2	El tablón	6	Junio	2023-06-14T00:00:00	2024-11-06T09:00:00	6	Velocidad del viento	9.7
160006	7	Sololá	701	Sololá	2	El tablón	6	Junio	2023-06-14T00:00:00	2024-11-06T09:00:00	7	Dirección del viento	9.66
160007	7	Sololá	701	Sololá	2	El tablón	6	Junio	2023-06-14T00:00:00	2024-11-06T09:00:00	1	Precipitación	0
160008	7	Sololá	701	Sololá	2	El tablón	6	Junio	2023-06-14T00:00:00	2024-11-06T09:00:00	8	Radiación solar	510
160009	7	Sololá	701	Sololá	2	El tablón	6	Junio	2023-06-14T00:00:00	2024-11-06T10:00:00	2	Temperatura media	20.1
160010	7	Sololá	701	Sololá	2	El tablón	6	Junio	2023-06-14T00:00:00	2024-11-06T10:00:00	4	Temperatura máxima	20.3
160011	7	Sololá	701	Sololá	2	El tablón	6	Junio	2023-06-14T00:00:00	2024-11-06T10:00:00	3	Temperatura mínima	19.1
160012	7	Sololá	701	Sololá	2	El tablón	6	Junio	2023-06-14T00:00:00	2024-11-06T10:00:00	5	Humedad	62
160013	7	Sololá	701	Sololá	2	El tablón	6	Junio	2023-06-14T00:00:00	2024-11-06T10:00:00	6	Velocidad del viento	8
160014	7	Sololá	701	Sololá	2	El tablón	6	Junio	2023-06-14T00:00:00	2024-11-06T10:00:00	7	Dirección del viento	8.05
160015	7	Sololá	701	Sololá	2	El tablón	6	Junio	2023-06-14T00:00:00	2024-11-06T10:00:00	1	Precipitación	0
160016	7	Sololá	701	Sololá	2	El tablón	6	Junio	2023-06-14T00:00:00	2024-11-06T10:00:00	8	Radiación solar	680
160017	7	Sololá	701	Sololá	2	El tablón	6	Junio	2023-06-14T00:00:00	2024-11-06T11:00:00	2	Temperatura media	17.8
160018	7	Sololá	701	Sololá	2	El tablón	6	Junio	2023-06-14T00:00:00	2024-11-06T11:00:00	4	Temperatura máxima	20.4
160019	7	Sololá	701	Sololá	2	El tablón	6	Junio	2023-06-14T00:00:00	2024-11-06T11:00:00	3	Temperatura mínima	17.8
160020	7	Sololá	701	Sololá	2	El tablón	6	Junio	2023-06-14T00:00:00	2024-11-06T11:00:00	5	Humedad	84
160021	7	Sololá	701	Sololá	2	El tablón	6	Junio	2023-06-14T00:00:00	2024-11-06T11:00:00	6	Velocidad del viento	6.4
160022	7	Sololá	701	Sololá	2	El tablón	6	Junio	2023-06-14T00:00:00	2024-11-06T11:00:00	7	Dirección del viento	6.44
160023	7	Sololá	701	Sololá	2	El tablón	6	Junio	2023-06-14T00:00:00	2024-11-06T11:00:00	1	Precipitación	0
160024	7	Sololá	701	Sololá	2	El tablón	6	Junio	2023-06-14T00:00:00	2024-11-06T11:00:00	8	Radiación solar	356
160025	7	Sololá	701	Sololá	2	El tablón	6	Junio	2023-06-14T00:00:00	2024-11-06T12:00:00	2	Temperatura media	18.7
160026	7	Sololá	701	Sololá	2	El tablón	6	Junio	2023-06-14T00:00:00	2024-11-06T12:00:00	4	Temperatura máxima	19.4
160027	7	Sololá	701	Sololá	2	El tablón	6	Junio	2023-06-14T00:00:00	2024-11-06T12:00:00	3	Temperatura mínima	17.3
160028	7	Sololá	701	Sololá	2	El tablón	6	Junio	2023-06-14T00:00:00	2024-11-06T12:00:00	5	Humedad	82
160029	7	Sololá	701	Sololá	2	El tablón	6	Junio	2023-06-14T00:00:00	2024-11-06T12:00:00	6	Velocidad del viento	6.4
160030	7	Sololá	701	Sololá	2	El tablón	6	Junio	2023-06-14T00:00:00	2024-11-06T12:00:00	7	Dirección del viento	6.44
160031	7	Sololá	701	Sololá	2	El tablón	6	Junio	2023-06-14T00:00:00	2024-11-06T12:00:00	1	Precipitación	0
160032	7	Sololá	701	Sololá	2	El tablón	6	Junio	2023-06-14T00:00:00	2024-11-06T12:00:00	8	Radiación solar	638
160033	7	Sololá	701	Sololá	2	El tablón	6	Junio	2023-06-14T00:00:00	2024-11-06T13:00:00	2	Temperatura media	19.8
160034	7	Sololá	701	Sololá	2	El tablón	6	Junio	2023-06-14T00:00:00	2024-11-06T13:00:00	4	Temperatura máxima	19.9
160035	7	Sololá	701	Sololá	2	El tablón	6	Junio	2023-06-14T00:00:00	2024-11-06T13:00:00	3	Temperatura mínima	18.6
160036	7	Sololá	701	Sololá	2	El tablón	6	Junio	2023-06-14T00:00:00	2024-11-06T13:00:00	5	Humedad	78
160037	7	Sololá	701	Sololá	2	El tablón	6	Junio	2023-06-14T00:00:00	2024-11-06T13:00:00	6	Velocidad del viento	6.4
160038	7	Sololá	701	Sololá	2	El tablón	6	Junio	2023-06-14T00:00:00	2024-11-06T13:00:00	7	Dirección del viento	6.44
160039	7	Sololá	701	Sololá	2	El tablón	6	Junio	2023-06-14T00:00:00	2024-11-06T13:00:00	1	Precipitación	0
160040	7	Sololá	701	Sololá	2	El tablón	6	Junio	2023-06-14T00:00:00	2024-11-06T13:00:00	8	Radiación solar	864
160041	7	Sololá	701	Sololá	2	El tablón	6	Junio	2023-06-14T00:00:00	2024-11-06T14:00:00	2	Temperatura media	20.7
160042	7	Sololá	701	Sololá	2	El tablón	6	Junio	2023-06-14T00:00:00	2024-11-06T14:00:00	4	Temperatura máxima	21.1
160043	7	Sololá	701	Sololá	2	El tablón	6	Junio	2023-06-14T00:00:00	2024-11-06T14:00:00	3	Temperatura mínima	19.8
160044	7	Sololá	701	Sololá	2	El tablón	6	Junio	2023-06-14T00:00:00	2024-11-06T14:00:00	5	Humedad	78
160045	7	Sololá	701	Sololá	2	El tablón	6	Junio	2023-06-14T00:00:00	2024-11-06T14:00:00	6	Velocidad del viento	8
160046	7	Sololá	701	Sololá	2	El tablón	6	Junio	2023-06-14T00:00:00	2024-11-06T14:00:00	7	Dirección del viento	8.05
160047	7	Sololá	701	Sololá	2	El tablón	6	Junio	2023-06-14T00:00:00	2024-11-06T14:00:00	1	Precipitación	0
160048	7	Sololá	701	Sololá	2	El tablón	6	Junio	2023-06-14T00:00:00	2024-11-06T14:00:00	8	Radiación solar	944
160049	7	Sololá	701	Sololá	2	El tablón	6	Junio	2023-06-14T00:00:00	2024-11-06T15:00:00	2	Temperatura media	18.8
160050	7	Sololá	701	Sololá	2	El tablón	6	Junio	2023-06-14T00:00:00	2024-11-06T15:00:00	4	Temperatura máxima	20.6
160051	7	Sololá	701	Sololá	2	El tablón	6	Junio	2023-06-14T00:00:00	2024-11-06T15:00:00	3	Temperatura mínima	18.3
160052	7	Sololá	701	Sololá	2	El tablón	6	Junio	2023-06-14T00:00:00	2024-11-06T15:00:00	5	Humedad	84
160053	7	Sololá	701	Sololá	2	El tablón	6	Junio	2023-06-14T00:00:00	2024-11-06T15:00:00	6	Velocidad del viento	8
160054	7	Sololá	701	Sololá	2	El tablón	6	Junio	2023-06-14T00:00:00	2024-11-06T15:00:00	7	Dirección del viento	8.05
160055	7	Sololá	701	Sololá	2	El tablón	6	Junio	2023-06-14T00:00:00	2024-11-06T15:00:00	1	Precipitación	0
160056	7	Sololá	701	Sololá	2	El tablón	6	Junio	2023-06-14T00:00:00	2024-11-06T15:00:00	8	Radiación solar	574
160057	7	Sololá	701	Sololá	2	El tablón	6	Junio	2023-06-14T00:00:00	2024-11-06T16:00:00	2	Temperatura media	17.7
160058	7	Sololá	701	Sololá	2	El tablón	6	Junio	2023-06-14T00:00:00	2024-11-06T16:00:00	4	Temperatura máxima	19.4
160059	7	Sololá	701	Sololá	2	El tablón	6	Junio	2023-06-14T00:00:00	2024-11-06T16:00:00	3	Temperatura mínima	17.7
160060	7	Sololá	701	Sololá	2	El tablón	6	Junio	2023-06-14T00:00:00	2024-11-06T16:00:00	5	Humedad	86
160061	7	Sololá	701	Sololá	2	El tablón	6	Junio	2023-06-14T00:00:00	2024-11-06T16:00:00	6	Velocidad del viento	6.4
160062	7	Sololá	701	Sololá	2	El tablón	6	Junio	2023-06-14T00:00:00	2024-11-06T16:00:00	7	Dirección del viento	6.44
160063	7	Sololá	701	Sololá	2	El tablón	6	Junio	2023-06-14T00:00:00	2024-11-06T16:00:00	1	Precipitación	0
160064	7	Sololá	701	Sololá	2	El tablón	6	Junio	2023-06-14T00:00:00	2024-11-06T16:00:00	8	Radiación solar	418
160065	7	Sololá	701	Sololá	2	El tablón	6	Junio	2023-06-14T00:00:00	2024-11-06T17:00:00	2	Temperatura media	16.8
160066	7	Sololá	701	Sololá	2	El tablón	6	Junio	2023-06-14T00:00:00	2024-11-06T17:00:00	4	Temperatura máxima	17.7
160067	7	Sololá	701	Sololá	2	El tablón	6	Junio	2023-06-14T00:00:00	2024-11-06T17:00:00	3	Temperatura mínima	16.5
160068	7	Sololá	701	Sololá	2	El tablón	6	Junio	2023-06-14T00:00:00	2024-11-06T17:00:00	5	Humedad	88
160069	7	Sololá	701	Sololá	2	El tablón	6	Junio	2023-06-14T00:00:00	2024-11-06T17:00:00	6	Velocidad del viento	4.8
160070	7	Sololá	701	Sololá	2	El tablón	6	Junio	2023-06-14T00:00:00	2024-11-06T17:00:00	7	Dirección del viento	4.83
160071	7	Sololá	701	Sololá	2	El tablón	6	Junio	2023-06-14T00:00:00	2024-11-06T17:00:00	1	Precipitación	0
160072	7	Sololá	701	Sololá	2	El tablón	6	Junio	2023-06-14T00:00:00	2024-11-06T17:00:00	8	Radiación solar	121
160073	7	Sololá	701	Sololá	2	El tablón	6	Junio	2023-06-14T00:00:00	2024-11-06T18:00:00	2	Temperatura media	16.9
160074	7	Sololá	701	Sololá	2	El tablón	6	Junio	2023-06-14T00:00:00	2024-11-06T18:00:00	4	Temperatura máxima	16.9
160075	7	Sololá	701	Sololá	2	El tablón	6	Junio	2023-06-14T00:00:00	2024-11-06T18:00:00	3	Temperatura mínima	16.4
160076	7	Sololá	701	Sololá	2	El tablón	6	Junio	2023-06-14T00:00:00	2024-11-06T18:00:00	5	Humedad	87
160077	7	Sololá	701	Sololá	2	El tablón	6	Junio	2023-06-14T00:00:00	2024-11-06T18:00:00	6	Velocidad del viento	1.6
160078	7	Sololá	701	Sololá	2	El tablón	6	Junio	2023-06-14T00:00:00	2024-11-06T18:00:00	7	Dirección del viento	1.61
160079	7	Sololá	701	Sololá	2	El tablón	6	Junio	2023-06-14T00:00:00	2024-11-06T18:00:00	1	Precipitación	0
160080	7	Sololá	701	Sololá	2	El tablón	6	Junio	2023-06-14T00:00:00	2024-11-06T18:00:00	8	Radiación solar	72
160081	7	Sololá	701	Sololá	2	El tablón	6	Junio	2023-06-14T00:00:00	2024-11-06T19:00:00	2	Temperatura media	15.6
160082	7	Sololá	701	Sololá	2	El tablón	6	Junio	2023-06-14T00:00:00	2024-11-06T19:00:00	4	Temperatura máxima	17.1
160083	7	Sololá	701	Sololá	2	El tablón	6	Junio	2023-06-14T00:00:00	2024-11-06T19:00:00	3	Temperatura mínima	15.6
160084	7	Sololá	701	Sololá	2	El tablón	6	Junio	2023-06-14T00:00:00	2024-11-06T19:00:00	5	Humedad	88
160085	7	Sololá	701	Sololá	2	El tablón	6	Junio	2023-06-14T00:00:00	2024-11-06T19:00:00	6	Velocidad del viento	1.6
160086	7	Sololá	701	Sololá	2	El tablón	6	Junio	2023-06-14T00:00:00	2024-11-06T19:00:00	7	Dirección del viento	1.61
160087	7	Sololá	701	Sololá	2	El tablón	6	Junio	2023-06-14T00:00:00	2024-11-06T19:00:00	1	Precipitación	0
160088	7	Sololá	701	Sololá	2	El tablón	6	Junio	2023-06-14T00:00:00	2024-11-06T19:00:00	8	Radiación solar	0
160089	7	Sololá	701	Sololá	2	El tablón	6	Junio	2023-06-14T00:00:00	2024-11-06T20:00:00	2	Temperatura media	15.7
160090	7	Sololá	701	Sololá	2	El tablón	6	Junio	2023-06-14T00:00:00	2024-11-06T20:00:00	4	Temperatura máxima	16
160091	7	Sololá	701	Sololá	2	El tablón	6	Junio	2023-06-14T00:00:00	2024-11-06T20:00:00	3	Temperatura mínima	14.9
160092	7	Sololá	701	Sololá	2	El tablón	6	Junio	2023-06-14T00:00:00	2024-11-06T20:00:00	5	Humedad	75
160093	7	Sololá	701	Sololá	2	El tablón	6	Junio	2023-06-14T00:00:00	2024-11-06T20:00:00	6	Velocidad del viento	3.2
160094	7	Sololá	701	Sololá	2	El tablón	6	Junio	2023-06-14T00:00:00	2024-11-06T20:00:00	7	Dirección del viento	3.22
160095	7	Sololá	701	Sololá	2	El tablón	6	Junio	2023-06-14T00:00:00	2024-11-06T20:00:00	1	Precipitación	0
160096	7	Sololá	701	Sololá	2	El tablón	6	Junio	2023-06-14T00:00:00	2024-11-06T20:00:00	8	Radiación solar	0
160097	7	Sololá	701	Sololá	2	El tablón	6	Junio	2023-06-14T00:00:00	2024-11-06T21:00:00	2	Temperatura media	15.8
160098	7	Sololá	701	Sololá	2	El tablón	6	Junio	2023-06-14T00:00:00	2024-11-06T21:00:00	4	Temperatura máxima	15.9
160099	7	Sololá	701	Sololá	2	El tablón	6	Junio	2023-06-14T00:00:00	2024-11-06T21:00:00	3	Temperatura mínima	15.6
160100	7	Sololá	701	Sololá	2	El tablón	6	Junio	2023-06-14T00:00:00	2024-11-06T21:00:00	5	Humedad	81
160101	7	Sololá	701	Sololá	2	El tablón	6	Junio	2023-06-14T00:00:00	2024-11-06T21:00:00	6	Velocidad del viento	4.8
160102	7	Sololá	701	Sololá	2	El tablón	6	Junio	2023-06-14T00:00:00	2024-11-06T21:00:00	7	Dirección del viento	4.83
160103	7	Sololá	701	Sololá	2	El tablón	6	Junio	2023-06-14T00:00:00	2024-11-06T21:00:00	1	Precipitación	0
160104	7	Sololá	701	Sololá	2	El tablón	6	Junio	2023-06-14T00:00:00	2024-11-06T21:00:00	8	Radiación solar	0
160105	7	Sololá	701	Sololá	2	El tablón	6	Junio	2023-06-14T00:00:00	2024-11-06T22:00:00	2	Temperatura media	15.1
160106	7	Sololá	701	Sololá	2	El tablón	6	Junio	2023-06-14T00:00:00	2024-11-06T22:00:00	4	Temperatura máxima	15.9
160107	7	Sololá	701	Sololá	2	El tablón	6	Junio	2023-06-14T00:00:00	2024-11-06T22:00:00	3	Temperatura mínima	15.1
160108	7	Sololá	701	Sololá	2	El tablón	6	Junio	2023-06-14T00:00:00	2024-11-06T22:00:00	5	Humedad	85
160109	7	Sololá	701	Sololá	2	El tablón	6	Junio	2023-06-14T00:00:00	2024-11-06T22:00:00	6	Velocidad del viento	1.6
160110	7	Sololá	701	Sololá	2	El tablón	6	Junio	2023-06-14T00:00:00	2024-11-06T22:00:00	7	Dirección del viento	1.61
160111	7	Sololá	701	Sololá	2	El tablón	6	Junio	2023-06-14T00:00:00	2024-11-06T22:00:00	1	Precipitación	0
160112	7	Sololá	701	Sololá	2	El tablón	6	Junio	2023-06-14T00:00:00	2024-11-06T22:00:00	8	Radiación solar	0
160113	7	Sololá	701	Sololá	2	El tablón	6	Junio	2023-06-14T00:00:00	2024-11-06T23:00:00	2	Temperatura media	14.9
160114	7	Sololá	701	Sololá	2	El tablón	6	Junio	2023-06-14T00:00:00	2024-11-06T23:00:00	4	Temperatura máxima	15.1
160115	7	Sololá	701	Sololá	2	El tablón	6	Junio	2023-06-14T00:00:00	2024-11-06T23:00:00	3	Temperatura mínima	14.9
160116	7	Sololá	701	Sololá	2	El tablón	6	Junio	2023-06-14T00:00:00	2024-11-06T23:00:00	5	Humedad	86
160117	7	Sololá	701	Sololá	2	El tablón	6	Junio	2023-06-14T00:00:00	2024-11-06T23:00:00	6	Velocidad del viento	1.6
160118	7	Sololá	701	Sololá	2	El tablón	6	Junio	2023-06-14T00:00:00	2024-11-06T23:00:00	7	Dirección del viento	1.61
160119	7	Sololá	701	Sololá	2	El tablón	6	Junio	2023-06-14T00:00:00	2024-11-06T23:00:00	1	Precipitación	0
160120	7	Sololá	701	Sololá	2	El tablón	6	Junio	2023-06-14T00:00:00	2024-11-06T23:00:00	8	Radiación solar	0
160121	7	Sololá	701	Sololá	2	El tablón	6	Junio	2023-06-15T00:00:00	2024-11-06T00:00:00	2	Temperatura media	13.4
160122	7	Sololá	701	Sololá	2	El tablón	6	Junio	2023-06-15T00:00:00	2024-11-06T00:00:00	4	Temperatura máxima	14.9
160123	7	Sololá	701	Sololá	2	El tablón	6	Junio	2023-06-15T00:00:00	2024-11-06T00:00:00	3	Temperatura mínima	13.4
160124	7	Sololá	701	Sololá	2	El tablón	6	Junio	2023-06-15T00:00:00	2024-11-06T00:00:00	5	Humedad	88
160125	7	Sololá	701	Sololá	2	El tablón	6	Junio	2023-06-15T00:00:00	2024-11-06T00:00:00	6	Velocidad del viento	1.6
160126	7	Sololá	701	Sololá	2	El tablón	6	Junio	2023-06-15T00:00:00	2024-11-06T00:00:00	7	Dirección del viento	1.61
160127	7	Sololá	701	Sololá	2	El tablón	6	Junio	2023-06-15T00:00:00	2024-11-06T00:00:00	1	Precipitación	0
160128	7	Sololá	701	Sololá	2	El tablón	6	Junio	2023-06-15T00:00:00	2024-11-06T00:00:00	8	Radiación solar	0
160129	7	Sololá	701	Sololá	2	El tablón	6	Junio	2023-06-15T00:00:00	2024-11-06T01:00:00	2	Temperatura media	13.6
160130	7	Sololá	701	Sololá	2	El tablón	6	Junio	2023-06-15T00:00:00	2024-11-06T01:00:00	4	Temperatura máxima	13.6
160131	7	Sololá	701	Sololá	2	El tablón	6	Junio	2023-06-15T00:00:00	2024-11-06T01:00:00	3	Temperatura mínima	13
160132	7	Sololá	701	Sololá	2	El tablón	6	Junio	2023-06-15T00:00:00	2024-11-06T01:00:00	5	Humedad	88
160133	7	Sololá	701	Sololá	2	El tablón	6	Junio	2023-06-15T00:00:00	2024-11-06T01:00:00	6	Velocidad del viento	1.6
160134	7	Sololá	701	Sololá	2	El tablón	6	Junio	2023-06-15T00:00:00	2024-11-06T01:00:00	7	Dirección del viento	1.61
160135	7	Sololá	701	Sololá	2	El tablón	6	Junio	2023-06-15T00:00:00	2024-11-06T01:00:00	1	Precipitación	0
160136	7	Sololá	701	Sololá	2	El tablón	6	Junio	2023-06-15T00:00:00	2024-11-06T01:00:00	8	Radiación solar	0
160137	7	Sololá	701	Sololá	2	El tablón	6	Junio	2023-06-15T00:00:00	2024-11-06T02:00:00	2	Temperatura media	13.6
160138	7	Sololá	701	Sololá	2	El tablón	6	Junio	2023-06-15T00:00:00	2024-11-06T02:00:00	4	Temperatura máxima	14.4
160139	7	Sololá	701	Sololá	2	El tablón	6	Junio	2023-06-15T00:00:00	2024-11-06T02:00:00	3	Temperatura mínima	13.6
160140	7	Sololá	701	Sololá	2	El tablón	6	Junio	2023-06-15T00:00:00	2024-11-06T02:00:00	5	Humedad	88
160141	7	Sololá	701	Sololá	2	El tablón	6	Junio	2023-06-15T00:00:00	2024-11-06T02:00:00	6	Velocidad del viento	1.6
160142	7	Sololá	701	Sololá	2	El tablón	6	Junio	2023-06-15T00:00:00	2024-11-06T02:00:00	7	Dirección del viento	1.61
160143	7	Sololá	701	Sololá	2	El tablón	6	Junio	2023-06-15T00:00:00	2024-11-06T02:00:00	1	Precipitación	0
160144	7	Sololá	701	Sololá	2	El tablón	6	Junio	2023-06-15T00:00:00	2024-11-06T02:00:00	8	Radiación solar	0
160145	7	Sololá	701	Sololá	2	El tablón	6	Junio	2023-06-15T00:00:00	2024-11-06T03:00:00	2	Temperatura media	12.3
160146	7	Sololá	701	Sololá	2	El tablón	6	Junio	2023-06-15T00:00:00	2024-11-06T03:00:00	4	Temperatura máxima	13.6
160147	7	Sololá	701	Sololá	2	El tablón	6	Junio	2023-06-15T00:00:00	2024-11-06T03:00:00	3	Temperatura mínima	12.3
160148	7	Sololá	701	Sololá	2	El tablón	6	Junio	2023-06-15T00:00:00	2024-11-06T03:00:00	5	Humedad	89
160149	7	Sololá	701	Sololá	2	El tablón	6	Junio	2023-06-15T00:00:00	2024-11-06T03:00:00	6	Velocidad del viento	3.2
160150	7	Sololá	701	Sololá	2	El tablón	6	Junio	2023-06-15T00:00:00	2024-11-06T03:00:00	7	Dirección del viento	3.22
160151	7	Sololá	701	Sololá	2	El tablón	6	Junio	2023-06-15T00:00:00	2024-11-06T03:00:00	1	Precipitación	0
160152	7	Sololá	701	Sololá	2	El tablón	6	Junio	2023-06-15T00:00:00	2024-11-06T03:00:00	8	Radiación solar	0
160153	7	Sololá	701	Sololá	2	El tablón	6	Junio	2023-06-15T00:00:00	2024-11-06T04:00:00	2	Temperatura media	11.9
160154	7	Sololá	701	Sololá	2	El tablón	6	Junio	2023-06-15T00:00:00	2024-11-06T04:00:00	4	Temperatura máxima	12.6
160155	7	Sololá	701	Sololá	2	El tablón	6	Junio	2023-06-15T00:00:00	2024-11-06T04:00:00	3	Temperatura mínima	11.9
160156	7	Sololá	701	Sololá	2	El tablón	6	Junio	2023-06-15T00:00:00	2024-11-06T04:00:00	5	Humedad	88
160157	7	Sololá	701	Sololá	2	El tablón	6	Junio	2023-06-15T00:00:00	2024-11-06T04:00:00	6	Velocidad del viento	3.2
160158	7	Sololá	701	Sololá	2	El tablón	6	Junio	2023-06-15T00:00:00	2024-11-06T04:00:00	7	Dirección del viento	3.22
160159	7	Sololá	701	Sololá	2	El tablón	6	Junio	2023-06-15T00:00:00	2024-11-06T04:00:00	1	Precipitación	0
160160	7	Sololá	701	Sololá	2	El tablón	6	Junio	2023-06-15T00:00:00	2024-11-06T04:00:00	8	Radiación solar	0
160161	7	Sololá	701	Sololá	2	El tablón	6	Junio	2023-06-15T00:00:00	2024-11-06T05:00:00	2	Temperatura media	13.1
160162	7	Sololá	701	Sololá	2	El tablón	6	Junio	2023-06-15T00:00:00	2024-11-06T05:00:00	4	Temperatura máxima	13.1
160163	7	Sololá	701	Sololá	2	El tablón	6	Junio	2023-06-15T00:00:00	2024-11-06T05:00:00	3	Temperatura mínima	11.8
160164	7	Sololá	701	Sololá	2	El tablón	6	Junio	2023-06-15T00:00:00	2024-11-06T05:00:00	5	Humedad	87
160165	7	Sololá	701	Sololá	2	El tablón	6	Junio	2023-06-15T00:00:00	2024-11-06T05:00:00	6	Velocidad del viento	3.2
160166	7	Sololá	701	Sololá	2	El tablón	6	Junio	2023-06-15T00:00:00	2024-11-06T05:00:00	7	Dirección del viento	3.22
160167	7	Sololá	701	Sololá	2	El tablón	6	Junio	2023-06-15T00:00:00	2024-11-06T05:00:00	1	Precipitación	0
160168	7	Sololá	701	Sololá	2	El tablón	6	Junio	2023-06-15T00:00:00	2024-11-06T05:00:00	8	Radiación solar	0
160169	7	Sololá	701	Sololá	2	El tablón	6	Junio	2023-06-15T00:00:00	2024-11-06T06:00:00	2	Temperatura media	13.7
160170	7	Sololá	701	Sololá	2	El tablón	6	Junio	2023-06-15T00:00:00	2024-11-06T06:00:00	4	Temperatura máxima	13.7
160171	7	Sololá	701	Sololá	2	El tablón	6	Junio	2023-06-15T00:00:00	2024-11-06T06:00:00	3	Temperatura mínima	13.1
160172	7	Sololá	701	Sololá	2	El tablón	6	Junio	2023-06-15T00:00:00	2024-11-06T06:00:00	5	Humedad	86
160173	7	Sololá	701	Sololá	2	El tablón	6	Junio	2023-06-15T00:00:00	2024-11-06T06:00:00	6	Velocidad del viento	3.2
160174	7	Sololá	701	Sololá	2	El tablón	6	Junio	2023-06-15T00:00:00	2024-11-06T06:00:00	7	Dirección del viento	3.22
160175	7	Sololá	701	Sololá	2	El tablón	6	Junio	2023-06-15T00:00:00	2024-11-06T06:00:00	1	Precipitación	0
160176	7	Sololá	701	Sololá	2	El tablón	6	Junio	2023-06-15T00:00:00	2024-11-06T06:00:00	8	Radiación solar	6
160177	7	Sololá	701	Sololá	2	El tablón	6	Junio	2023-06-15T00:00:00	2024-11-06T07:00:00	2	Temperatura media	16.4
160178	7	Sololá	701	Sololá	2	El tablón	6	Junio	2023-06-15T00:00:00	2024-11-06T07:00:00	4	Temperatura máxima	16.4
160179	7	Sololá	701	Sololá	2	El tablón	6	Junio	2023-06-15T00:00:00	2024-11-06T07:00:00	3	Temperatura mínima	13.7
160180	7	Sololá	701	Sololá	2	El tablón	6	Junio	2023-06-15T00:00:00	2024-11-06T07:00:00	5	Humedad	79
160181	7	Sololá	701	Sololá	2	El tablón	6	Junio	2023-06-15T00:00:00	2024-11-06T07:00:00	6	Velocidad del viento	3.2
160182	7	Sololá	701	Sololá	2	El tablón	6	Junio	2023-06-15T00:00:00	2024-11-06T07:00:00	7	Dirección del viento	3.22
160183	7	Sololá	701	Sololá	2	El tablón	6	Junio	2023-06-15T00:00:00	2024-11-06T07:00:00	1	Precipitación	0
160184	7	Sololá	701	Sololá	2	El tablón	6	Junio	2023-06-15T00:00:00	2024-11-06T07:00:00	8	Radiación solar	133
160185	7	Sololá	701	Sololá	2	El tablón	6	Junio	2023-06-15T00:00:00	2024-11-06T08:00:00	2	Temperatura media	17.5
160186	7	Sololá	701	Sololá	2	El tablón	6	Junio	2023-06-15T00:00:00	2024-11-06T08:00:00	4	Temperatura máxima	17.5
160187	7	Sololá	701	Sololá	2	El tablón	6	Junio	2023-06-15T00:00:00	2024-11-06T08:00:00	3	Temperatura mínima	16.4
160188	7	Sololá	701	Sololá	2	El tablón	6	Junio	2023-06-15T00:00:00	2024-11-06T08:00:00	5	Humedad	76
160189	7	Sololá	701	Sololá	2	El tablón	6	Junio	2023-06-15T00:00:00	2024-11-06T08:00:00	6	Velocidad del viento	4.8
160190	7	Sololá	701	Sololá	2	El tablón	6	Junio	2023-06-15T00:00:00	2024-11-06T08:00:00	7	Dirección del viento	4.83
160191	7	Sololá	701	Sololá	2	El tablón	6	Junio	2023-06-15T00:00:00	2024-11-06T08:00:00	1	Precipitación	0
160192	7	Sololá	701	Sololá	2	El tablón	6	Junio	2023-06-15T00:00:00	2024-11-06T08:00:00	8	Radiación solar	332
160193	7	Sololá	701	Sololá	2	El tablón	6	Junio	2023-06-15T00:00:00	2024-11-06T09:00:00	2	Temperatura media	19.3
160194	7	Sololá	701	Sololá	2	El tablón	6	Junio	2023-06-15T00:00:00	2024-11-06T09:00:00	4	Temperatura máxima	19.4
160195	7	Sololá	701	Sololá	2	El tablón	6	Junio	2023-06-15T00:00:00	2024-11-06T09:00:00	3	Temperatura mínima	17.5
160196	7	Sololá	701	Sololá	2	El tablón	6	Junio	2023-06-15T00:00:00	2024-11-06T09:00:00	5	Humedad	65
160197	7	Sololá	701	Sololá	2	El tablón	6	Junio	2023-06-15T00:00:00	2024-11-06T09:00:00	6	Velocidad del viento	6.4
160198	7	Sololá	701	Sololá	2	El tablón	6	Junio	2023-06-15T00:00:00	2024-11-06T09:00:00	7	Dirección del viento	6.44
160199	7	Sololá	701	Sololá	2	El tablón	6	Junio	2023-06-15T00:00:00	2024-11-06T09:00:00	1	Precipitación	0
160200	7	Sololá	701	Sololá	2	El tablón	6	Junio	2023-06-15T00:00:00	2024-11-06T09:00:00	8	Radiación solar	537
160201	7	Sololá	701	Sololá	2	El tablón	6	Junio	2023-06-15T00:00:00	2024-11-06T10:00:00	2	Temperatura media	19.8
160202	7	Sololá	701	Sololá	2	El tablón	6	Junio	2023-06-15T00:00:00	2024-11-06T10:00:00	4	Temperatura máxima	20.2
160203	7	Sololá	701	Sololá	2	El tablón	6	Junio	2023-06-15T00:00:00	2024-11-06T10:00:00	3	Temperatura mínima	19.2
160204	7	Sololá	701	Sololá	2	El tablón	6	Junio	2023-06-15T00:00:00	2024-11-06T10:00:00	5	Humedad	66
160205	7	Sololá	701	Sololá	2	El tablón	6	Junio	2023-06-15T00:00:00	2024-11-06T10:00:00	6	Velocidad del viento	6.4
160206	7	Sololá	701	Sololá	2	El tablón	6	Junio	2023-06-15T00:00:00	2024-11-06T10:00:00	7	Dirección del viento	6.44
160207	7	Sololá	701	Sololá	2	El tablón	6	Junio	2023-06-15T00:00:00	2024-11-06T10:00:00	1	Precipitación	0
160208	7	Sololá	701	Sololá	2	El tablón	6	Junio	2023-06-15T00:00:00	2024-11-06T10:00:00	8	Radiación solar	731
160209	7	Sololá	701	Sololá	2	El tablón	6	Junio	2023-06-15T00:00:00	2024-11-06T11:00:00	2	Temperatura media	17.8
160210	7	Sololá	701	Sololá	2	El tablón	6	Junio	2023-06-15T00:00:00	2024-11-06T11:00:00	4	Temperatura máxima	20.2
160211	7	Sololá	701	Sololá	2	El tablón	6	Junio	2023-06-15T00:00:00	2024-11-06T11:00:00	3	Temperatura mínima	17.8
160212	7	Sololá	701	Sololá	2	El tablón	6	Junio	2023-06-15T00:00:00	2024-11-06T11:00:00	5	Humedad	83
160213	7	Sololá	701	Sololá	2	El tablón	6	Junio	2023-06-15T00:00:00	2024-11-06T11:00:00	6	Velocidad del viento	6.4
160214	7	Sololá	701	Sololá	2	El tablón	6	Junio	2023-06-15T00:00:00	2024-11-06T11:00:00	7	Dirección del viento	6.44
160215	7	Sololá	701	Sololá	2	El tablón	6	Junio	2023-06-15T00:00:00	2024-11-06T11:00:00	1	Precipitación	0
160216	7	Sololá	701	Sololá	2	El tablón	6	Junio	2023-06-15T00:00:00	2024-11-06T11:00:00	8	Radiación solar	287
160217	7	Sololá	701	Sololá	2	El tablón	6	Junio	2023-06-15T00:00:00	2024-11-06T12:00:00	2	Temperatura media	18.6
160218	7	Sololá	701	Sololá	2	El tablón	6	Junio	2023-06-15T00:00:00	2024-11-06T12:00:00	4	Temperatura máxima	18.9
160219	7	Sololá	701	Sololá	2	El tablón	6	Junio	2023-06-15T00:00:00	2024-11-06T12:00:00	3	Temperatura mínima	17.2
160220	7	Sololá	701	Sololá	2	El tablón	6	Junio	2023-06-15T00:00:00	2024-11-06T12:00:00	5	Humedad	80
160221	7	Sololá	701	Sololá	2	El tablón	6	Junio	2023-06-15T00:00:00	2024-11-06T12:00:00	6	Velocidad del viento	4.8
160222	7	Sololá	701	Sololá	2	El tablón	6	Junio	2023-06-15T00:00:00	2024-11-06T12:00:00	7	Dirección del viento	4.83
160223	7	Sololá	701	Sololá	2	El tablón	6	Junio	2023-06-15T00:00:00	2024-11-06T12:00:00	1	Precipitación	0
160224	7	Sololá	701	Sololá	2	El tablón	6	Junio	2023-06-15T00:00:00	2024-11-06T12:00:00	8	Radiación solar	372
160225	7	Sololá	701	Sololá	2	El tablón	6	Junio	2023-06-15T00:00:00	2024-11-06T13:00:00	2	Temperatura media	19.2
160226	7	Sololá	701	Sololá	2	El tablón	6	Junio	2023-06-15T00:00:00	2024-11-06T13:00:00	4	Temperatura máxima	19.2
160227	7	Sololá	701	Sololá	2	El tablón	6	Junio	2023-06-15T00:00:00	2024-11-06T13:00:00	3	Temperatura mínima	17.9
160228	7	Sololá	701	Sololá	2	El tablón	6	Junio	2023-06-15T00:00:00	2024-11-06T13:00:00	5	Humedad	83
160229	7	Sololá	701	Sololá	2	El tablón	6	Junio	2023-06-15T00:00:00	2024-11-06T13:00:00	6	Velocidad del viento	6.4
160230	7	Sololá	701	Sololá	2	El tablón	6	Junio	2023-06-15T00:00:00	2024-11-06T13:00:00	7	Dirección del viento	6.44
160231	7	Sololá	701	Sololá	2	El tablón	6	Junio	2023-06-15T00:00:00	2024-11-06T13:00:00	1	Precipitación	0
160232	7	Sololá	701	Sololá	2	El tablón	6	Junio	2023-06-15T00:00:00	2024-11-06T13:00:00	8	Radiación solar	423
160233	7	Sololá	701	Sololá	2	El tablón	6	Junio	2023-06-15T00:00:00	2024-11-06T14:00:00	2	Temperatura media	18.9
160234	7	Sololá	701	Sololá	2	El tablón	6	Junio	2023-06-15T00:00:00	2024-11-06T14:00:00	4	Temperatura máxima	19.9
160235	7	Sololá	701	Sololá	2	El tablón	6	Junio	2023-06-15T00:00:00	2024-11-06T14:00:00	3	Temperatura mínima	17.9
160236	7	Sololá	701	Sololá	2	El tablón	6	Junio	2023-06-15T00:00:00	2024-11-06T14:00:00	5	Humedad	84
160237	7	Sololá	701	Sololá	2	El tablón	6	Junio	2023-06-15T00:00:00	2024-11-06T14:00:00	6	Velocidad del viento	6.4
160238	7	Sololá	701	Sololá	2	El tablón	6	Junio	2023-06-15T00:00:00	2024-11-06T14:00:00	7	Dirección del viento	6.44
160239	7	Sololá	701	Sololá	2	El tablón	6	Junio	2023-06-15T00:00:00	2024-11-06T14:00:00	1	Precipitación	0
160240	7	Sololá	701	Sololá	2	El tablón	6	Junio	2023-06-15T00:00:00	2024-11-06T14:00:00	8	Radiación solar	448
160241	7	Sololá	701	Sololá	2	El tablón	6	Junio	2023-06-15T00:00:00	2024-11-06T15:00:00	2	Temperatura media	19.3
160242	7	Sololá	701	Sololá	2	El tablón	6	Junio	2023-06-15T00:00:00	2024-11-06T15:00:00	4	Temperatura máxima	19.7
160243	7	Sololá	701	Sololá	2	El tablón	6	Junio	2023-06-15T00:00:00	2024-11-06T15:00:00	3	Temperatura mínima	17.9
160244	7	Sololá	701	Sololá	2	El tablón	6	Junio	2023-06-15T00:00:00	2024-11-06T15:00:00	5	Humedad	83
160245	7	Sololá	701	Sololá	2	El tablón	6	Junio	2023-06-15T00:00:00	2024-11-06T15:00:00	6	Velocidad del viento	8
160246	7	Sololá	701	Sololá	2	El tablón	6	Junio	2023-06-15T00:00:00	2024-11-06T15:00:00	7	Dirección del viento	8.05
160247	7	Sololá	701	Sololá	2	El tablón	6	Junio	2023-06-15T00:00:00	2024-11-06T15:00:00	1	Precipitación	0
160248	7	Sololá	701	Sololá	2	El tablón	6	Junio	2023-06-15T00:00:00	2024-11-06T15:00:00	8	Radiación solar	705
160249	7	Sololá	701	Sololá	2	El tablón	6	Junio	2023-06-15T00:00:00	2024-11-06T16:00:00	2	Temperatura media	20.9
160250	7	Sololá	701	Sololá	2	El tablón	6	Junio	2023-06-15T00:00:00	2024-11-06T16:00:00	4	Temperatura máxima	20.9
160251	7	Sololá	701	Sololá	2	El tablón	6	Junio	2023-06-15T00:00:00	2024-11-06T16:00:00	3	Temperatura mínima	18.4
160252	7	Sololá	701	Sololá	2	El tablón	6	Junio	2023-06-15T00:00:00	2024-11-06T16:00:00	5	Humedad	81
160253	7	Sololá	701	Sololá	2	El tablón	6	Junio	2023-06-15T00:00:00	2024-11-06T16:00:00	6	Velocidad del viento	6.4
160254	7	Sololá	701	Sololá	2	El tablón	6	Junio	2023-06-15T00:00:00	2024-11-06T16:00:00	7	Dirección del viento	6.44
160255	7	Sololá	701	Sololá	2	El tablón	6	Junio	2023-06-15T00:00:00	2024-11-06T16:00:00	1	Precipitación	0
160256	7	Sololá	701	Sololá	2	El tablón	6	Junio	2023-06-15T00:00:00	2024-11-06T16:00:00	8	Radiación solar	558
160257	7	Sololá	701	Sololá	2	El tablón	6	Junio	2023-06-15T00:00:00	2024-11-06T17:00:00	2	Temperatura media	17.4
160258	7	Sololá	701	Sololá	2	El tablón	6	Junio	2023-06-15T00:00:00	2024-11-06T17:00:00	4	Temperatura máxima	20.9
160259	7	Sololá	701	Sololá	2	El tablón	6	Junio	2023-06-15T00:00:00	2024-11-06T17:00:00	3	Temperatura mínima	17.1
160260	7	Sololá	701	Sololá	2	El tablón	6	Junio	2023-06-15T00:00:00	2024-11-06T17:00:00	5	Humedad	87
160261	7	Sololá	701	Sololá	2	El tablón	6	Junio	2023-06-15T00:00:00	2024-11-06T17:00:00	6	Velocidad del viento	6.4
160262	7	Sololá	701	Sololá	2	El tablón	6	Junio	2023-06-15T00:00:00	2024-11-06T17:00:00	7	Dirección del viento	6.44
160263	7	Sololá	701	Sololá	2	El tablón	6	Junio	2023-06-15T00:00:00	2024-11-06T17:00:00	1	Precipitación	0
160264	7	Sololá	701	Sololá	2	El tablón	6	Junio	2023-06-15T00:00:00	2024-11-06T17:00:00	8	Radiación solar	150
160265	7	Sololá	701	Sololá	2	El tablón	6	Junio	2023-06-15T00:00:00	2024-11-06T18:00:00	2	Temperatura media	16.4
160266	7	Sololá	701	Sololá	2	El tablón	6	Junio	2023-06-15T00:00:00	2024-11-06T18:00:00	4	Temperatura máxima	17.7
160267	7	Sololá	701	Sololá	2	El tablón	6	Junio	2023-06-15T00:00:00	2024-11-06T18:00:00	3	Temperatura mínima	16.4
160268	7	Sololá	701	Sololá	2	El tablón	6	Junio	2023-06-15T00:00:00	2024-11-06T18:00:00	5	Humedad	88
160269	7	Sololá	701	Sololá	2	El tablón	6	Junio	2023-06-15T00:00:00	2024-11-06T18:00:00	6	Velocidad del viento	4.8
160270	7	Sololá	701	Sololá	2	El tablón	6	Junio	2023-06-15T00:00:00	2024-11-06T18:00:00	7	Dirección del viento	4.83
160271	7	Sololá	701	Sololá	2	El tablón	6	Junio	2023-06-15T00:00:00	2024-11-06T18:00:00	1	Precipitación	0
160272	7	Sololá	701	Sololá	2	El tablón	6	Junio	2023-06-15T00:00:00	2024-11-06T18:00:00	8	Radiación solar	57
160273	7	Sololá	701	Sololá	2	El tablón	6	Junio	2023-06-15T00:00:00	2024-11-06T19:00:00	2	Temperatura media	16.2
160274	7	Sololá	701	Sololá	2	El tablón	6	Junio	2023-06-15T00:00:00	2024-11-06T19:00:00	4	Temperatura máxima	16.4
160275	7	Sololá	701	Sololá	2	El tablón	6	Junio	2023-06-15T00:00:00	2024-11-06T19:00:00	3	Temperatura mínima	16.1
160276	7	Sololá	701	Sololá	2	El tablón	6	Junio	2023-06-15T00:00:00	2024-11-06T19:00:00	5	Humedad	88
160277	7	Sololá	701	Sololá	2	El tablón	6	Junio	2023-06-15T00:00:00	2024-11-06T19:00:00	6	Velocidad del viento	1.6
160278	7	Sololá	701	Sololá	2	El tablón	6	Junio	2023-06-15T00:00:00	2024-11-06T19:00:00	7	Dirección del viento	1.61
160279	7	Sololá	701	Sololá	2	El tablón	6	Junio	2023-06-15T00:00:00	2024-11-06T19:00:00	1	Precipitación	0
160280	7	Sololá	701	Sololá	2	El tablón	6	Junio	2023-06-15T00:00:00	2024-11-06T19:00:00	8	Radiación solar	0
160281	7	Sololá	701	Sololá	2	El tablón	6	Junio	2023-06-15T00:00:00	2024-11-06T20:00:00	2	Temperatura media	15.8
160282	7	Sololá	701	Sololá	2	El tablón	6	Junio	2023-06-15T00:00:00	2024-11-06T20:00:00	4	Temperatura máxima	16.2
160283	7	Sololá	701	Sololá	2	El tablón	6	Junio	2023-06-15T00:00:00	2024-11-06T20:00:00	3	Temperatura mínima	15.8
160284	7	Sololá	701	Sololá	2	El tablón	6	Junio	2023-06-15T00:00:00	2024-11-06T20:00:00	5	Humedad	88
160285	7	Sololá	701	Sololá	2	El tablón	6	Junio	2023-06-15T00:00:00	2024-11-06T20:00:00	6	Velocidad del viento	3.2
160286	7	Sololá	701	Sololá	2	El tablón	6	Junio	2023-06-15T00:00:00	2024-11-06T20:00:00	7	Dirección del viento	3.22
160287	7	Sololá	701	Sololá	2	El tablón	6	Junio	2023-06-15T00:00:00	2024-11-06T20:00:00	1	Precipitación	0
160288	7	Sololá	701	Sololá	2	El tablón	6	Junio	2023-06-15T00:00:00	2024-11-06T20:00:00	8	Radiación solar	0
160289	7	Sololá	701	Sololá	2	El tablón	6	Junio	2023-06-15T00:00:00	2024-11-06T21:00:00	2	Temperatura media	14.4
160290	7	Sololá	701	Sololá	2	El tablón	6	Junio	2023-06-15T00:00:00	2024-11-06T21:00:00	4	Temperatura máxima	15.8
160291	7	Sololá	701	Sololá	2	El tablón	6	Junio	2023-06-15T00:00:00	2024-11-06T21:00:00	3	Temperatura mínima	14.4
160292	7	Sololá	701	Sololá	2	El tablón	6	Junio	2023-06-15T00:00:00	2024-11-06T21:00:00	5	Humedad	88
160293	7	Sololá	701	Sololá	2	El tablón	6	Junio	2023-06-15T00:00:00	2024-11-06T21:00:00	6	Velocidad del viento	4.8
160294	7	Sololá	701	Sololá	2	El tablón	6	Junio	2023-06-15T00:00:00	2024-11-06T21:00:00	7	Dirección del viento	4.83
160295	7	Sololá	701	Sololá	2	El tablón	6	Junio	2023-06-15T00:00:00	2024-11-06T21:00:00	1	Precipitación	6.4
160296	7	Sololá	701	Sololá	2	El tablón	6	Junio	2023-06-15T00:00:00	2024-11-06T21:00:00	8	Radiación solar	0
160297	7	Sololá	701	Sololá	2	El tablón	6	Junio	2023-06-15T00:00:00	2024-11-06T22:00:00	2	Temperatura media	14.4
160298	7	Sololá	701	Sololá	2	El tablón	6	Junio	2023-06-15T00:00:00	2024-11-06T22:00:00	4	Temperatura máxima	14.5
160299	7	Sololá	701	Sololá	2	El tablón	6	Junio	2023-06-15T00:00:00	2024-11-06T22:00:00	3	Temperatura mínima	14.2
160300	7	Sololá	701	Sololá	2	El tablón	6	Junio	2023-06-15T00:00:00	2024-11-06T22:00:00	5	Humedad	88
160301	7	Sololá	701	Sololá	2	El tablón	6	Junio	2023-06-15T00:00:00	2024-11-06T22:00:00	6	Velocidad del viento	1.6
160302	7	Sololá	701	Sololá	2	El tablón	6	Junio	2023-06-15T00:00:00	2024-11-06T22:00:00	7	Dirección del viento	1.61
160303	7	Sololá	701	Sololá	2	El tablón	6	Junio	2023-06-15T00:00:00	2024-11-06T22:00:00	1	Precipitación	2.6
160304	7	Sololá	701	Sololá	2	El tablón	6	Junio	2023-06-15T00:00:00	2024-11-06T22:00:00	8	Radiación solar	0
160305	7	Sololá	701	Sololá	2	El tablón	6	Junio	2023-06-15T00:00:00	2024-11-06T23:00:00	2	Temperatura media	14.4
160306	7	Sololá	701	Sololá	2	El tablón	6	Junio	2023-06-15T00:00:00	2024-11-06T23:00:00	4	Temperatura máxima	14.6
160307	7	Sololá	701	Sololá	2	El tablón	6	Junio	2023-06-15T00:00:00	2024-11-06T23:00:00	3	Temperatura mínima	14.4
160308	7	Sololá	701	Sololá	2	El tablón	6	Junio	2023-06-15T00:00:00	2024-11-06T23:00:00	5	Humedad	88
160309	7	Sololá	701	Sololá	2	El tablón	6	Junio	2023-06-15T00:00:00	2024-11-06T23:00:00	6	Velocidad del viento	1.6
160310	7	Sololá	701	Sololá	2	El tablón	6	Junio	2023-06-15T00:00:00	2024-11-06T23:00:00	7	Dirección del viento	1.61
160311	7	Sololá	701	Sololá	2	El tablón	6	Junio	2023-06-15T00:00:00	2024-11-06T23:00:00	1	Precipitación	0.2
160312	7	Sololá	701	Sololá	2	El tablón	6	Junio	2023-06-15T00:00:00	2024-11-06T23:00:00	8	Radiación solar	0
160313	7	Sololá	701	Sololá	2	El tablón	6	Junio	2023-06-16T00:00:00	2024-11-06T00:00:00	2	Temperatura media	13.9
160314	7	Sololá	701	Sololá	2	El tablón	6	Junio	2023-06-16T00:00:00	2024-11-06T00:00:00	4	Temperatura máxima	14.6
160315	7	Sololá	701	Sololá	2	El tablón	6	Junio	2023-06-16T00:00:00	2024-11-06T00:00:00	3	Temperatura mínima	13.9
160316	7	Sololá	701	Sololá	2	El tablón	6	Junio	2023-06-16T00:00:00	2024-11-06T00:00:00	5	Humedad	89
160317	7	Sololá	701	Sololá	2	El tablón	6	Junio	2023-06-16T00:00:00	2024-11-06T00:00:00	6	Velocidad del viento	3.2
160318	7	Sololá	701	Sololá	2	El tablón	6	Junio	2023-06-16T00:00:00	2024-11-06T00:00:00	7	Dirección del viento	3.22
160319	7	Sololá	701	Sololá	2	El tablón	6	Junio	2023-06-16T00:00:00	2024-11-06T00:00:00	1	Precipitación	0
160320	7	Sololá	701	Sololá	2	El tablón	6	Junio	2023-06-16T00:00:00	2024-11-06T00:00:00	8	Radiación solar	0
160321	7	Sololá	701	Sololá	2	El tablón	6	Junio	2023-06-16T00:00:00	2024-11-06T01:00:00	2	Temperatura media	13.8
160322	7	Sololá	701	Sololá	2	El tablón	6	Junio	2023-06-16T00:00:00	2024-11-06T01:00:00	4	Temperatura máxima	13.9
160323	7	Sololá	701	Sololá	2	El tablón	6	Junio	2023-06-16T00:00:00	2024-11-06T01:00:00	3	Temperatura mínima	13.8
160324	7	Sololá	701	Sololá	2	El tablón	6	Junio	2023-06-16T00:00:00	2024-11-06T01:00:00	5	Humedad	87
160325	7	Sololá	701	Sololá	2	El tablón	6	Junio	2023-06-16T00:00:00	2024-11-06T01:00:00	6	Velocidad del viento	0
160326	7	Sololá	701	Sololá	2	El tablón	6	Junio	2023-06-16T00:00:00	2024-11-06T01:00:00	7	Dirección del viento	0
160327	7	Sololá	701	Sololá	2	El tablón	6	Junio	2023-06-16T00:00:00	2024-11-06T01:00:00	1	Precipitación	0
160328	7	Sololá	701	Sololá	2	El tablón	6	Junio	2023-06-16T00:00:00	2024-11-06T01:00:00	8	Radiación solar	0
160329	7	Sololá	701	Sololá	2	El tablón	6	Junio	2023-06-16T00:00:00	2024-11-06T02:00:00	2	Temperatura media	13.2
160330	7	Sololá	701	Sololá	2	El tablón	6	Junio	2023-06-16T00:00:00	2024-11-06T02:00:00	4	Temperatura máxima	13.9
160331	7	Sololá	701	Sololá	2	El tablón	6	Junio	2023-06-16T00:00:00	2024-11-06T02:00:00	3	Temperatura mínima	13.2
160332	7	Sololá	701	Sololá	2	El tablón	6	Junio	2023-06-16T00:00:00	2024-11-06T02:00:00	5	Humedad	87
160333	7	Sololá	701	Sololá	2	El tablón	6	Junio	2023-06-16T00:00:00	2024-11-06T02:00:00	6	Velocidad del viento	1.6
160334	7	Sololá	701	Sololá	2	El tablón	6	Junio	2023-06-16T00:00:00	2024-11-06T02:00:00	7	Dirección del viento	1.61
160335	7	Sololá	701	Sololá	2	El tablón	6	Junio	2023-06-16T00:00:00	2024-11-06T02:00:00	1	Precipitación	0
160336	7	Sololá	701	Sololá	2	El tablón	6	Junio	2023-06-16T00:00:00	2024-11-06T02:00:00	8	Radiación solar	0
160337	7	Sololá	701	Sololá	2	El tablón	6	Junio	2023-06-16T00:00:00	2024-11-06T03:00:00	2	Temperatura media	12.6
160338	7	Sololá	701	Sololá	2	El tablón	6	Junio	2023-06-16T00:00:00	2024-11-06T03:00:00	4	Temperatura máxima	13.2
160339	7	Sololá	701	Sololá	2	El tablón	6	Junio	2023-06-16T00:00:00	2024-11-06T03:00:00	3	Temperatura mínima	12.6
160340	7	Sololá	701	Sololá	2	El tablón	6	Junio	2023-06-16T00:00:00	2024-11-06T03:00:00	5	Humedad	87
160341	7	Sololá	701	Sololá	2	El tablón	6	Junio	2023-06-16T00:00:00	2024-11-06T03:00:00	6	Velocidad del viento	1.6
160342	7	Sololá	701	Sololá	2	El tablón	6	Junio	2023-06-16T00:00:00	2024-11-06T03:00:00	7	Dirección del viento	1.61
160343	7	Sololá	701	Sololá	2	El tablón	6	Junio	2023-06-16T00:00:00	2024-11-06T03:00:00	1	Precipitación	0
160344	7	Sololá	701	Sololá	2	El tablón	6	Junio	2023-06-16T00:00:00	2024-11-06T03:00:00	8	Radiación solar	0
160345	7	Sololá	701	Sololá	2	El tablón	6	Junio	2023-06-16T00:00:00	2024-11-06T04:00:00	2	Temperatura media	11.7
160346	7	Sololá	701	Sololá	2	El tablón	6	Junio	2023-06-16T00:00:00	2024-11-06T04:00:00	4	Temperatura máxima	12.6
160347	7	Sololá	701	Sololá	2	El tablón	6	Junio	2023-06-16T00:00:00	2024-11-06T04:00:00	3	Temperatura mínima	11.7
160348	7	Sololá	701	Sololá	2	El tablón	6	Junio	2023-06-16T00:00:00	2024-11-06T04:00:00	5	Humedad	88
160349	7	Sololá	701	Sololá	2	El tablón	6	Junio	2023-06-16T00:00:00	2024-11-06T04:00:00	6	Velocidad del viento	1.6
160350	7	Sololá	701	Sololá	2	El tablón	6	Junio	2023-06-16T00:00:00	2024-11-06T04:00:00	7	Dirección del viento	1.61
160351	7	Sololá	701	Sololá	2	El tablón	6	Junio	2023-06-16T00:00:00	2024-11-06T04:00:00	1	Precipitación	0
160352	7	Sololá	701	Sololá	2	El tablón	6	Junio	2023-06-16T00:00:00	2024-11-06T04:00:00	8	Radiación solar	0
160353	7	Sololá	701	Sololá	2	El tablón	6	Junio	2023-06-16T00:00:00	2024-11-06T05:00:00	2	Temperatura media	12.1
160354	7	Sololá	701	Sololá	2	El tablón	6	Junio	2023-06-16T00:00:00	2024-11-06T05:00:00	4	Temperatura máxima	12.2
160355	7	Sololá	701	Sololá	2	El tablón	6	Junio	2023-06-16T00:00:00	2024-11-06T05:00:00	3	Temperatura mínima	11.7
160356	7	Sololá	701	Sololá	2	El tablón	6	Junio	2023-06-16T00:00:00	2024-11-06T05:00:00	5	Humedad	87
160357	7	Sololá	701	Sololá	2	El tablón	6	Junio	2023-06-16T00:00:00	2024-11-06T05:00:00	6	Velocidad del viento	1.6
160358	7	Sololá	701	Sololá	2	El tablón	6	Junio	2023-06-16T00:00:00	2024-11-06T05:00:00	7	Dirección del viento	1.61
160359	7	Sololá	701	Sololá	2	El tablón	6	Junio	2023-06-16T00:00:00	2024-11-06T05:00:00	1	Precipitación	0.2
160360	7	Sololá	701	Sololá	2	El tablón	6	Junio	2023-06-16T00:00:00	2024-11-06T05:00:00	8	Radiación solar	0
160361	7	Sololá	701	Sololá	2	El tablón	6	Junio	2023-06-16T00:00:00	2024-11-06T06:00:00	2	Temperatura media	11.4
160362	7	Sololá	701	Sololá	2	El tablón	6	Junio	2023-06-16T00:00:00	2024-11-06T06:00:00	4	Temperatura máxima	12.4
160363	7	Sololá	701	Sololá	2	El tablón	6	Junio	2023-06-16T00:00:00	2024-11-06T06:00:00	3	Temperatura mínima	11.4
160364	7	Sololá	701	Sololá	2	El tablón	6	Junio	2023-06-16T00:00:00	2024-11-06T06:00:00	5	Humedad	88
160365	7	Sololá	701	Sololá	2	El tablón	6	Junio	2023-06-16T00:00:00	2024-11-06T06:00:00	6	Velocidad del viento	1.6
160366	7	Sololá	701	Sololá	2	El tablón	6	Junio	2023-06-16T00:00:00	2024-11-06T06:00:00	7	Dirección del viento	1.61
160367	7	Sololá	701	Sololá	2	El tablón	6	Junio	2023-06-16T00:00:00	2024-11-06T06:00:00	1	Precipitación	0
160368	7	Sololá	701	Sololá	2	El tablón	6	Junio	2023-06-16T00:00:00	2024-11-06T06:00:00	8	Radiación solar	6
160369	7	Sololá	701	Sololá	2	El tablón	6	Junio	2023-06-16T00:00:00	2024-11-06T07:00:00	2	Temperatura media	14.3
160370	7	Sololá	701	Sololá	2	El tablón	6	Junio	2023-06-16T00:00:00	2024-11-06T07:00:00	4	Temperatura máxima	14.3
160371	7	Sololá	701	Sololá	2	El tablón	6	Junio	2023-06-16T00:00:00	2024-11-06T07:00:00	3	Temperatura mínima	11.4
160372	7	Sololá	701	Sololá	2	El tablón	6	Junio	2023-06-16T00:00:00	2024-11-06T07:00:00	5	Humedad	88
160373	7	Sololá	701	Sololá	2	El tablón	6	Junio	2023-06-16T00:00:00	2024-11-06T07:00:00	6	Velocidad del viento	3.2
160374	7	Sololá	701	Sololá	2	El tablón	6	Junio	2023-06-16T00:00:00	2024-11-06T07:00:00	7	Dirección del viento	3.22
160375	7	Sololá	701	Sololá	2	El tablón	6	Junio	2023-06-16T00:00:00	2024-11-06T07:00:00	1	Precipitación	0
160376	7	Sololá	701	Sololá	2	El tablón	6	Junio	2023-06-16T00:00:00	2024-11-06T07:00:00	8	Radiación solar	132
160377	7	Sololá	701	Sololá	2	El tablón	6	Junio	2023-06-16T00:00:00	2024-11-06T08:00:00	2	Temperatura media	17.5
160378	7	Sololá	701	Sololá	2	El tablón	6	Junio	2023-06-16T00:00:00	2024-11-06T08:00:00	4	Temperatura máxima	17.5
160379	7	Sololá	701	Sololá	2	El tablón	6	Junio	2023-06-16T00:00:00	2024-11-06T08:00:00	3	Temperatura mínima	14.3
160380	7	Sololá	701	Sololá	2	El tablón	6	Junio	2023-06-16T00:00:00	2024-11-06T08:00:00	5	Humedad	77
160381	7	Sololá	701	Sololá	2	El tablón	6	Junio	2023-06-16T00:00:00	2024-11-06T08:00:00	6	Velocidad del viento	6.4
160382	7	Sololá	701	Sololá	2	El tablón	6	Junio	2023-06-16T00:00:00	2024-11-06T08:00:00	7	Dirección del viento	6.44
160383	7	Sololá	701	Sololá	2	El tablón	6	Junio	2023-06-16T00:00:00	2024-11-06T08:00:00	1	Precipitación	0
160384	7	Sololá	701	Sololá	2	El tablón	6	Junio	2023-06-16T00:00:00	2024-11-06T08:00:00	8	Radiación solar	345
160385	7	Sololá	701	Sololá	2	El tablón	6	Junio	2023-06-16T00:00:00	2024-11-06T09:00:00	2	Temperatura media	18.9
160386	7	Sololá	701	Sololá	2	El tablón	6	Junio	2023-06-16T00:00:00	2024-11-06T09:00:00	4	Temperatura máxima	19
160387	7	Sololá	701	Sololá	2	El tablón	6	Junio	2023-06-16T00:00:00	2024-11-06T09:00:00	3	Temperatura mínima	17.5
160388	7	Sololá	701	Sololá	2	El tablón	6	Junio	2023-06-16T00:00:00	2024-11-06T09:00:00	5	Humedad	69
160389	7	Sololá	701	Sololá	2	El tablón	6	Junio	2023-06-16T00:00:00	2024-11-06T09:00:00	6	Velocidad del viento	8
160390	7	Sololá	701	Sololá	2	El tablón	6	Junio	2023-06-16T00:00:00	2024-11-06T09:00:00	7	Dirección del viento	8.05
160391	7	Sololá	701	Sololá	2	El tablón	6	Junio	2023-06-16T00:00:00	2024-11-06T09:00:00	1	Precipitación	0
160392	7	Sololá	701	Sololá	2	El tablón	6	Junio	2023-06-16T00:00:00	2024-11-06T09:00:00	8	Radiación solar	546
160393	7	Sololá	701	Sololá	2	El tablón	6	Junio	2023-06-16T00:00:00	2024-11-06T10:00:00	2	Temperatura media	19.9
160394	7	Sololá	701	Sololá	2	El tablón	6	Junio	2023-06-16T00:00:00	2024-11-06T10:00:00	4	Temperatura máxima	19.9
160395	7	Sololá	701	Sololá	2	El tablón	6	Junio	2023-06-16T00:00:00	2024-11-06T10:00:00	3	Temperatura mínima	18.8
160396	7	Sololá	701	Sololá	2	El tablón	6	Junio	2023-06-16T00:00:00	2024-11-06T10:00:00	5	Humedad	68
160397	7	Sololá	701	Sololá	2	El tablón	6	Junio	2023-06-16T00:00:00	2024-11-06T10:00:00	6	Velocidad del viento	8
160398	7	Sololá	701	Sololá	2	El tablón	6	Junio	2023-06-16T00:00:00	2024-11-06T10:00:00	7	Dirección del viento	8.05
160399	7	Sololá	701	Sololá	2	El tablón	6	Junio	2023-06-16T00:00:00	2024-11-06T10:00:00	1	Precipitación	0
160400	7	Sololá	701	Sololá	2	El tablón	6	Junio	2023-06-16T00:00:00	2024-11-06T10:00:00	8	Radiación solar	729
160401	7	Sololá	701	Sololá	2	El tablón	6	Junio	2023-06-16T00:00:00	2024-11-06T11:00:00	2	Temperatura media	20.3
160402	7	Sololá	701	Sololá	2	El tablón	6	Junio	2023-06-16T00:00:00	2024-11-06T11:00:00	4	Temperatura máxima	20.4
160403	7	Sololá	701	Sololá	2	El tablón	6	Junio	2023-06-16T00:00:00	2024-11-06T11:00:00	3	Temperatura mínima	19.9
160404	7	Sololá	701	Sololá	2	El tablón	6	Junio	2023-06-16T00:00:00	2024-11-06T11:00:00	5	Humedad	68
160405	7	Sololá	701	Sololá	2	El tablón	6	Junio	2023-06-16T00:00:00	2024-11-06T11:00:00	6	Velocidad del viento	6.4
160406	7	Sololá	701	Sololá	2	El tablón	6	Junio	2023-06-16T00:00:00	2024-11-06T11:00:00	7	Dirección del viento	6.44
160407	7	Sololá	701	Sololá	2	El tablón	6	Junio	2023-06-16T00:00:00	2024-11-06T11:00:00	1	Precipitación	0
160408	7	Sololá	701	Sololá	2	El tablón	6	Junio	2023-06-16T00:00:00	2024-11-06T11:00:00	8	Radiación solar	782
160409	7	Sololá	701	Sololá	2	El tablón	6	Junio	2023-06-16T00:00:00	2024-11-06T12:00:00	2	Temperatura media	18.8
160410	7	Sololá	701	Sololá	2	El tablón	6	Junio	2023-06-16T00:00:00	2024-11-06T12:00:00	4	Temperatura máxima	20.3
160411	7	Sololá	701	Sololá	2	El tablón	6	Junio	2023-06-16T00:00:00	2024-11-06T12:00:00	3	Temperatura mínima	18.8
160412	7	Sololá	701	Sololá	2	El tablón	6	Junio	2023-06-16T00:00:00	2024-11-06T12:00:00	5	Humedad	78
160413	7	Sololá	701	Sololá	2	El tablón	6	Junio	2023-06-16T00:00:00	2024-11-06T12:00:00	6	Velocidad del viento	8
160414	7	Sololá	701	Sololá	2	El tablón	6	Junio	2023-06-16T00:00:00	2024-11-06T12:00:00	7	Dirección del viento	8.05
160415	7	Sololá	701	Sololá	2	El tablón	6	Junio	2023-06-16T00:00:00	2024-11-06T12:00:00	1	Precipitación	0
160416	7	Sololá	701	Sololá	2	El tablón	6	Junio	2023-06-16T00:00:00	2024-11-06T12:00:00	8	Radiación solar	746
160417	7	Sololá	701	Sololá	2	El tablón	6	Junio	2023-06-16T00:00:00	2024-11-06T13:00:00	2	Temperatura media	19.4
160418	7	Sololá	701	Sololá	2	El tablón	6	Junio	2023-06-16T00:00:00	2024-11-06T13:00:00	4	Temperatura máxima	19.9
160419	7	Sololá	701	Sololá	2	El tablón	6	Junio	2023-06-16T00:00:00	2024-11-06T13:00:00	3	Temperatura mínima	18.8
160420	7	Sololá	701	Sololá	2	El tablón	6	Junio	2023-06-16T00:00:00	2024-11-06T13:00:00	5	Humedad	83
160421	7	Sololá	701	Sololá	2	El tablón	6	Junio	2023-06-16T00:00:00	2024-11-06T13:00:00	6	Velocidad del viento	8
160422	7	Sololá	701	Sololá	2	El tablón	6	Junio	2023-06-16T00:00:00	2024-11-06T13:00:00	7	Dirección del viento	8.05
160423	7	Sololá	701	Sololá	2	El tablón	6	Junio	2023-06-16T00:00:00	2024-11-06T13:00:00	1	Precipitación	0
160424	7	Sololá	701	Sololá	2	El tablón	6	Junio	2023-06-16T00:00:00	2024-11-06T13:00:00	8	Radiación solar	574
160425	7	Sololá	701	Sololá	2	El tablón	6	Junio	2023-06-16T00:00:00	2024-11-06T14:00:00	2	Temperatura media	18.6
160426	7	Sololá	701	Sololá	2	El tablón	6	Junio	2023-06-16T00:00:00	2024-11-06T14:00:00	4	Temperatura máxima	19.9
160427	7	Sololá	701	Sololá	2	El tablón	6	Junio	2023-06-16T00:00:00	2024-11-06T14:00:00	3	Temperatura mínima	18.6
160428	7	Sololá	701	Sololá	2	El tablón	6	Junio	2023-06-16T00:00:00	2024-11-06T14:00:00	5	Humedad	85
160429	7	Sololá	701	Sololá	2	El tablón	6	Junio	2023-06-16T00:00:00	2024-11-06T14:00:00	6	Velocidad del viento	9.7
160430	7	Sololá	701	Sololá	2	El tablón	6	Junio	2023-06-16T00:00:00	2024-11-06T14:00:00	7	Dirección del viento	9.66
160431	7	Sololá	701	Sololá	2	El tablón	6	Junio	2023-06-16T00:00:00	2024-11-06T14:00:00	1	Precipitación	0
160432	7	Sololá	701	Sololá	2	El tablón	6	Junio	2023-06-16T00:00:00	2024-11-06T14:00:00	8	Radiación solar	863
160433	7	Sololá	701	Sololá	2	El tablón	6	Junio	2023-06-16T00:00:00	2024-11-06T15:00:00	2	Temperatura media	18.1
160434	7	Sololá	701	Sololá	2	El tablón	6	Junio	2023-06-16T00:00:00	2024-11-06T15:00:00	4	Temperatura máxima	19.3
160435	7	Sololá	701	Sololá	2	El tablón	6	Junio	2023-06-16T00:00:00	2024-11-06T15:00:00	3	Temperatura mínima	18.1
160436	7	Sololá	701	Sololá	2	El tablón	6	Junio	2023-06-16T00:00:00	2024-11-06T15:00:00	5	Humedad	86
160437	7	Sololá	701	Sololá	2	El tablón	6	Junio	2023-06-16T00:00:00	2024-11-06T15:00:00	6	Velocidad del viento	8
160438	7	Sololá	701	Sololá	2	El tablón	6	Junio	2023-06-16T00:00:00	2024-11-06T15:00:00	7	Dirección del viento	8.05
160439	7	Sololá	701	Sololá	2	El tablón	6	Junio	2023-06-16T00:00:00	2024-11-06T15:00:00	1	Precipitación	0
160440	7	Sololá	701	Sololá	2	El tablón	6	Junio	2023-06-16T00:00:00	2024-11-06T15:00:00	8	Radiación solar	687
160441	7	Sololá	701	Sololá	2	El tablón	6	Junio	2023-06-16T00:00:00	2024-11-06T16:00:00	2	Temperatura media	17.4
160442	7	Sololá	701	Sololá	2	El tablón	6	Junio	2023-06-16T00:00:00	2024-11-06T16:00:00	4	Temperatura máxima	18.3
160443	7	Sololá	701	Sololá	2	El tablón	6	Junio	2023-06-16T00:00:00	2024-11-06T16:00:00	3	Temperatura mínima	17.4
160444	7	Sololá	701	Sololá	2	El tablón	6	Junio	2023-06-16T00:00:00	2024-11-06T16:00:00	5	Humedad	88
160445	7	Sololá	701	Sololá	2	El tablón	6	Junio	2023-06-16T00:00:00	2024-11-06T16:00:00	6	Velocidad del viento	6.4
160446	7	Sololá	701	Sololá	2	El tablón	6	Junio	2023-06-16T00:00:00	2024-11-06T16:00:00	7	Dirección del viento	6.44
160447	7	Sololá	701	Sololá	2	El tablón	6	Junio	2023-06-16T00:00:00	2024-11-06T16:00:00	1	Precipitación	0
160448	7	Sololá	701	Sololá	2	El tablón	6	Junio	2023-06-16T00:00:00	2024-11-06T16:00:00	8	Radiación solar	330
160449	7	Sololá	701	Sololá	2	El tablón	6	Junio	2023-06-16T00:00:00	2024-11-06T17:00:00	2	Temperatura media	18.1
160450	7	Sololá	701	Sololá	2	El tablón	6	Junio	2023-06-16T00:00:00	2024-11-06T17:00:00	4	Temperatura máxima	18.4
160451	7	Sololá	701	Sololá	2	El tablón	6	Junio	2023-06-16T00:00:00	2024-11-06T17:00:00	3	Temperatura mínima	16.4
160452	7	Sololá	701	Sololá	2	El tablón	6	Junio	2023-06-16T00:00:00	2024-11-06T17:00:00	5	Humedad	82
160453	7	Sololá	701	Sololá	2	El tablón	6	Junio	2023-06-16T00:00:00	2024-11-06T17:00:00	6	Velocidad del viento	4.8
160454	7	Sololá	701	Sololá	2	El tablón	6	Junio	2023-06-16T00:00:00	2024-11-06T17:00:00	7	Dirección del viento	4.83
160455	7	Sololá	701	Sololá	2	El tablón	6	Junio	2023-06-16T00:00:00	2024-11-06T17:00:00	1	Precipitación	0
160456	7	Sololá	701	Sololá	2	El tablón	6	Junio	2023-06-16T00:00:00	2024-11-06T17:00:00	8	Radiación solar	280
160457	7	Sololá	701	Sololá	2	El tablón	6	Junio	2023-06-16T00:00:00	2024-11-06T18:00:00	2	Temperatura media	15.9
160458	7	Sololá	701	Sololá	2	El tablón	6	Junio	2023-06-16T00:00:00	2024-11-06T18:00:00	4	Temperatura máxima	18.1
160459	7	Sololá	701	Sololá	2	El tablón	6	Junio	2023-06-16T00:00:00	2024-11-06T18:00:00	3	Temperatura mínima	15.9
160460	7	Sololá	701	Sololá	2	El tablón	6	Junio	2023-06-16T00:00:00	2024-11-06T18:00:00	5	Humedad	88
160461	7	Sololá	701	Sololá	2	El tablón	6	Junio	2023-06-16T00:00:00	2024-11-06T18:00:00	6	Velocidad del viento	4.8
160462	7	Sololá	701	Sololá	2	El tablón	6	Junio	2023-06-16T00:00:00	2024-11-06T18:00:00	7	Dirección del viento	4.83
160463	7	Sololá	701	Sololá	2	El tablón	6	Junio	2023-06-16T00:00:00	2024-11-06T18:00:00	1	Precipitación	0
160464	7	Sololá	701	Sololá	2	El tablón	6	Junio	2023-06-16T00:00:00	2024-11-06T18:00:00	8	Radiación solar	74
160465	7	Sololá	701	Sololá	2	El tablón	6	Junio	2023-06-16T00:00:00	2024-11-06T19:00:00	2	Temperatura media	15.6
160466	7	Sololá	701	Sololá	2	El tablón	6	Junio	2023-06-16T00:00:00	2024-11-06T19:00:00	4	Temperatura máxima	15.9
160467	7	Sololá	701	Sololá	2	El tablón	6	Junio	2023-06-16T00:00:00	2024-11-06T19:00:00	3	Temperatura mínima	15.5
160468	7	Sololá	701	Sololá	2	El tablón	6	Junio	2023-06-16T00:00:00	2024-11-06T19:00:00	5	Humedad	88
160469	7	Sololá	701	Sololá	2	El tablón	6	Junio	2023-06-16T00:00:00	2024-11-06T19:00:00	6	Velocidad del viento	1.6
160470	7	Sololá	701	Sololá	2	El tablón	6	Junio	2023-06-16T00:00:00	2024-11-06T19:00:00	7	Dirección del viento	1.61
160471	7	Sololá	701	Sololá	2	El tablón	6	Junio	2023-06-16T00:00:00	2024-11-06T19:00:00	1	Precipitación	0
160472	7	Sololá	701	Sololá	2	El tablón	6	Junio	2023-06-16T00:00:00	2024-11-06T19:00:00	8	Radiación solar	0
160473	7	Sololá	701	Sololá	2	El tablón	6	Junio	2023-06-16T00:00:00	2024-11-06T20:00:00	2	Temperatura media	16.3
160474	7	Sololá	701	Sololá	2	El tablón	6	Junio	2023-06-16T00:00:00	2024-11-06T20:00:00	4	Temperatura máxima	16.4
160475	7	Sololá	701	Sololá	2	El tablón	6	Junio	2023-06-16T00:00:00	2024-11-06T20:00:00	3	Temperatura mínima	15.4
160476	7	Sololá	701	Sololá	2	El tablón	6	Junio	2023-06-16T00:00:00	2024-11-06T20:00:00	5	Humedad	83
160477	7	Sololá	701	Sololá	2	El tablón	6	Junio	2023-06-16T00:00:00	2024-11-06T20:00:00	6	Velocidad del viento	3.2
160478	7	Sololá	701	Sololá	2	El tablón	6	Junio	2023-06-16T00:00:00	2024-11-06T20:00:00	7	Dirección del viento	3.22
160479	7	Sololá	701	Sololá	2	El tablón	6	Junio	2023-06-16T00:00:00	2024-11-06T20:00:00	1	Precipitación	0
160480	7	Sololá	701	Sololá	2	El tablón	6	Junio	2023-06-16T00:00:00	2024-11-06T20:00:00	8	Radiación solar	0
160481	7	Sololá	701	Sololá	2	El tablón	6	Junio	2023-06-16T00:00:00	2024-11-06T21:00:00	2	Temperatura media	13.8
160482	7	Sololá	701	Sololá	2	El tablón	6	Junio	2023-06-16T00:00:00	2024-11-06T21:00:00	4	Temperatura máxima	16.4
160483	7	Sololá	701	Sololá	2	El tablón	6	Junio	2023-06-16T00:00:00	2024-11-06T21:00:00	3	Temperatura mínima	13.7
160484	7	Sololá	701	Sololá	2	El tablón	6	Junio	2023-06-16T00:00:00	2024-11-06T21:00:00	5	Humedad	88
160485	7	Sololá	701	Sololá	2	El tablón	6	Junio	2023-06-16T00:00:00	2024-11-06T21:00:00	6	Velocidad del viento	8
160486	7	Sololá	701	Sololá	2	El tablón	6	Junio	2023-06-16T00:00:00	2024-11-06T21:00:00	7	Dirección del viento	8.05
160487	7	Sololá	701	Sololá	2	El tablón	6	Junio	2023-06-16T00:00:00	2024-11-06T21:00:00	1	Precipitación	7.2
160488	7	Sololá	701	Sololá	2	El tablón	6	Junio	2023-06-16T00:00:00	2024-11-06T21:00:00	8	Radiación solar	0
160489	7	Sololá	701	Sololá	2	El tablón	6	Junio	2023-06-16T00:00:00	2024-11-06T22:00:00	2	Temperatura media	14.7
160490	7	Sololá	701	Sololá	2	El tablón	6	Junio	2023-06-16T00:00:00	2024-11-06T22:00:00	4	Temperatura máxima	14.8
160491	7	Sololá	701	Sololá	2	El tablón	6	Junio	2023-06-16T00:00:00	2024-11-06T22:00:00	3	Temperatura mínima	13.8
160492	7	Sololá	701	Sololá	2	El tablón	6	Junio	2023-06-16T00:00:00	2024-11-06T22:00:00	5	Humedad	88
160493	7	Sololá	701	Sololá	2	El tablón	6	Junio	2023-06-16T00:00:00	2024-11-06T22:00:00	6	Velocidad del viento	8
160494	7	Sololá	701	Sololá	2	El tablón	6	Junio	2023-06-16T00:00:00	2024-11-06T22:00:00	7	Dirección del viento	8.05
160495	7	Sololá	701	Sololá	2	El tablón	6	Junio	2023-06-16T00:00:00	2024-11-06T22:00:00	1	Precipitación	2.4
160496	7	Sololá	701	Sololá	2	El tablón	6	Junio	2023-06-16T00:00:00	2024-11-06T22:00:00	8	Radiación solar	0
160497	7	Sololá	701	Sololá	2	El tablón	6	Junio	2023-06-16T00:00:00	2024-11-06T23:00:00	2	Temperatura media	13.4
160498	7	Sololá	701	Sololá	2	El tablón	6	Junio	2023-06-16T00:00:00	2024-11-06T23:00:00	4	Temperatura máxima	14.8
160499	7	Sololá	701	Sololá	2	El tablón	6	Junio	2023-06-16T00:00:00	2024-11-06T23:00:00	3	Temperatura mínima	13
160500	7	Sololá	701	Sololá	2	El tablón	6	Junio	2023-06-16T00:00:00	2024-11-06T23:00:00	5	Humedad	86
160501	7	Sololá	701	Sololá	2	El tablón	6	Junio	2023-06-16T00:00:00	2024-11-06T23:00:00	6	Velocidad del viento	12.9
160502	7	Sololá	701	Sololá	2	El tablón	6	Junio	2023-06-16T00:00:00	2024-11-06T23:00:00	7	Dirección del viento	12.87
160503	7	Sololá	701	Sololá	2	El tablón	6	Junio	2023-06-16T00:00:00	2024-11-06T23:00:00	1	Precipitación	2.2
160504	7	Sololá	701	Sololá	2	El tablón	6	Junio	2023-06-16T00:00:00	2024-11-06T23:00:00	8	Radiación solar	0
160505	7	Sololá	701	Sololá	2	El tablón	6	Junio	2023-06-17T00:00:00	2024-11-06T00:00:00	2	Temperatura media	13.7
160506	7	Sololá	701	Sololá	2	El tablón	6	Junio	2023-06-17T00:00:00	2024-11-06T00:00:00	4	Temperatura máxima	13.7
160507	7	Sololá	701	Sololá	2	El tablón	6	Junio	2023-06-17T00:00:00	2024-11-06T00:00:00	3	Temperatura mínima	13.1
160508	7	Sololá	701	Sololá	2	El tablón	6	Junio	2023-06-17T00:00:00	2024-11-06T00:00:00	5	Humedad	88
160509	7	Sololá	701	Sololá	2	El tablón	6	Junio	2023-06-17T00:00:00	2024-11-06T00:00:00	6	Velocidad del viento	4.8
160510	7	Sololá	701	Sololá	2	El tablón	6	Junio	2023-06-17T00:00:00	2024-11-06T00:00:00	7	Dirección del viento	4.83
160511	7	Sololá	701	Sololá	2	El tablón	6	Junio	2023-06-17T00:00:00	2024-11-06T00:00:00	1	Precipitación	0
160512	7	Sololá	701	Sololá	2	El tablón	6	Junio	2023-06-17T00:00:00	2024-11-06T00:00:00	8	Radiación solar	0
160513	7	Sololá	701	Sololá	2	El tablón	6	Junio	2023-06-17T00:00:00	2024-11-06T01:00:00	2	Temperatura media	14.1
160514	7	Sololá	701	Sololá	2	El tablón	6	Junio	2023-06-17T00:00:00	2024-11-06T01:00:00	4	Temperatura máxima	14.2
160515	7	Sololá	701	Sololá	2	El tablón	6	Junio	2023-06-17T00:00:00	2024-11-06T01:00:00	3	Temperatura mínima	13.7
160516	7	Sololá	701	Sololá	2	El tablón	6	Junio	2023-06-17T00:00:00	2024-11-06T01:00:00	5	Humedad	88
160517	7	Sololá	701	Sololá	2	El tablón	6	Junio	2023-06-17T00:00:00	2024-11-06T01:00:00	6	Velocidad del viento	8
160518	7	Sololá	701	Sololá	2	El tablón	6	Junio	2023-06-17T00:00:00	2024-11-06T01:00:00	7	Dirección del viento	8.05
160519	7	Sololá	701	Sololá	2	El tablón	6	Junio	2023-06-17T00:00:00	2024-11-06T01:00:00	1	Precipitación	0
160520	7	Sololá	701	Sololá	2	El tablón	6	Junio	2023-06-17T00:00:00	2024-11-06T01:00:00	8	Radiación solar	0
160521	7	Sololá	701	Sololá	2	El tablón	6	Junio	2023-06-17T00:00:00	2024-11-06T02:00:00	2	Temperatura media	14
160522	7	Sololá	701	Sololá	2	El tablón	6	Junio	2023-06-17T00:00:00	2024-11-06T02:00:00	4	Temperatura máxima	14.2
160523	7	Sololá	701	Sololá	2	El tablón	6	Junio	2023-06-17T00:00:00	2024-11-06T02:00:00	3	Temperatura mínima	14
160524	7	Sololá	701	Sololá	2	El tablón	6	Junio	2023-06-17T00:00:00	2024-11-06T02:00:00	5	Humedad	87
160525	7	Sololá	701	Sololá	2	El tablón	6	Junio	2023-06-17T00:00:00	2024-11-06T02:00:00	6	Velocidad del viento	8
160526	7	Sololá	701	Sololá	2	El tablón	6	Junio	2023-06-17T00:00:00	2024-11-06T02:00:00	7	Dirección del viento	8.05
160527	7	Sololá	701	Sololá	2	El tablón	6	Junio	2023-06-17T00:00:00	2024-11-06T02:00:00	1	Precipitación	0
160528	7	Sololá	701	Sololá	2	El tablón	6	Junio	2023-06-17T00:00:00	2024-11-06T02:00:00	8	Radiación solar	0
160529	7	Sololá	701	Sololá	2	El tablón	6	Junio	2023-06-17T00:00:00	2024-11-06T03:00:00	2	Temperatura media	14
160530	7	Sololá	701	Sololá	2	El tablón	6	Junio	2023-06-17T00:00:00	2024-11-06T03:00:00	4	Temperatura máxima	14.1
160531	7	Sololá	701	Sololá	2	El tablón	6	Junio	2023-06-17T00:00:00	2024-11-06T03:00:00	3	Temperatura mínima	13.9
160532	7	Sololá	701	Sololá	2	El tablón	6	Junio	2023-06-17T00:00:00	2024-11-06T03:00:00	5	Humedad	86
160533	7	Sololá	701	Sololá	2	El tablón	6	Junio	2023-06-17T00:00:00	2024-11-06T03:00:00	6	Velocidad del viento	9.7
160534	7	Sololá	701	Sololá	2	El tablón	6	Junio	2023-06-17T00:00:00	2024-11-06T03:00:00	7	Dirección del viento	9.66
160535	7	Sololá	701	Sololá	2	El tablón	6	Junio	2023-06-17T00:00:00	2024-11-06T03:00:00	1	Precipitación	0
160536	7	Sololá	701	Sololá	2	El tablón	6	Junio	2023-06-17T00:00:00	2024-11-06T03:00:00	8	Radiación solar	0
160537	7	Sololá	701	Sololá	2	El tablón	6	Junio	2023-06-17T00:00:00	2024-11-06T04:00:00	2	Temperatura media	14.4
160538	7	Sololá	701	Sololá	2	El tablón	6	Junio	2023-06-17T00:00:00	2024-11-06T04:00:00	4	Temperatura máxima	14.4
160539	7	Sololá	701	Sololá	2	El tablón	6	Junio	2023-06-17T00:00:00	2024-11-06T04:00:00	3	Temperatura mínima	13.8
160540	7	Sololá	701	Sololá	2	El tablón	6	Junio	2023-06-17T00:00:00	2024-11-06T04:00:00	5	Humedad	82
160541	7	Sololá	701	Sololá	2	El tablón	6	Junio	2023-06-17T00:00:00	2024-11-06T04:00:00	6	Velocidad del viento	8
160542	7	Sololá	701	Sololá	2	El tablón	6	Junio	2023-06-17T00:00:00	2024-11-06T04:00:00	7	Dirección del viento	8.05
160543	7	Sololá	701	Sololá	2	El tablón	6	Junio	2023-06-17T00:00:00	2024-11-06T04:00:00	1	Precipitación	0
160544	7	Sololá	701	Sololá	2	El tablón	6	Junio	2023-06-17T00:00:00	2024-11-06T04:00:00	8	Radiación solar	0
160545	7	Sololá	701	Sololá	2	El tablón	6	Junio	2023-06-17T00:00:00	2024-11-06T05:00:00	2	Temperatura media	14.3
160546	7	Sololá	701	Sololá	2	El tablón	6	Junio	2023-06-17T00:00:00	2024-11-06T05:00:00	4	Temperatura máxima	14.4
160547	7	Sololá	701	Sololá	2	El tablón	6	Junio	2023-06-17T00:00:00	2024-11-06T05:00:00	3	Temperatura mínima	14.3
160548	7	Sololá	701	Sololá	2	El tablón	6	Junio	2023-06-17T00:00:00	2024-11-06T05:00:00	5	Humedad	81
160549	7	Sololá	701	Sololá	2	El tablón	6	Junio	2023-06-17T00:00:00	2024-11-06T05:00:00	6	Velocidad del viento	6.4
160550	7	Sololá	701	Sololá	2	El tablón	6	Junio	2023-06-17T00:00:00	2024-11-06T05:00:00	7	Dirección del viento	6.44
160551	7	Sololá	701	Sololá	2	El tablón	6	Junio	2023-06-17T00:00:00	2024-11-06T05:00:00	1	Precipitación	0
160552	7	Sololá	701	Sololá	2	El tablón	6	Junio	2023-06-17T00:00:00	2024-11-06T05:00:00	8	Radiación solar	0
160553	7	Sololá	701	Sololá	2	El tablón	6	Junio	2023-06-17T00:00:00	2024-11-06T06:00:00	2	Temperatura media	14.9
160554	7	Sololá	701	Sololá	2	El tablón	6	Junio	2023-06-17T00:00:00	2024-11-06T06:00:00	4	Temperatura máxima	14.9
160555	7	Sololá	701	Sololá	2	El tablón	6	Junio	2023-06-17T00:00:00	2024-11-06T06:00:00	3	Temperatura mínima	14.2
160556	7	Sololá	701	Sololá	2	El tablón	6	Junio	2023-06-17T00:00:00	2024-11-06T06:00:00	5	Humedad	78
160557	7	Sololá	701	Sololá	2	El tablón	6	Junio	2023-06-17T00:00:00	2024-11-06T06:00:00	6	Velocidad del viento	8
160558	7	Sololá	701	Sololá	2	El tablón	6	Junio	2023-06-17T00:00:00	2024-11-06T06:00:00	7	Dirección del viento	8.05
160559	7	Sololá	701	Sololá	2	El tablón	6	Junio	2023-06-17T00:00:00	2024-11-06T06:00:00	1	Precipitación	0
160560	7	Sololá	701	Sololá	2	El tablón	6	Junio	2023-06-17T00:00:00	2024-11-06T06:00:00	8	Radiación solar	4
160561	7	Sololá	701	Sololá	2	El tablón	6	Junio	2023-06-17T00:00:00	2024-11-06T07:00:00	2	Temperatura media	15.9
160562	7	Sololá	701	Sololá	2	El tablón	6	Junio	2023-06-17T00:00:00	2024-11-06T07:00:00	4	Temperatura máxima	15.9
160563	7	Sololá	701	Sololá	2	El tablón	6	Junio	2023-06-17T00:00:00	2024-11-06T07:00:00	3	Temperatura mínima	14.9
160564	7	Sololá	701	Sololá	2	El tablón	6	Junio	2023-06-17T00:00:00	2024-11-06T07:00:00	5	Humedad	72
160565	7	Sololá	701	Sololá	2	El tablón	6	Junio	2023-06-17T00:00:00	2024-11-06T07:00:00	6	Velocidad del viento	9.7
160566	7	Sololá	701	Sololá	2	El tablón	6	Junio	2023-06-17T00:00:00	2024-11-06T07:00:00	7	Dirección del viento	9.66
160567	7	Sololá	701	Sololá	2	El tablón	6	Junio	2023-06-17T00:00:00	2024-11-06T07:00:00	1	Precipitación	0
160568	7	Sololá	701	Sololá	2	El tablón	6	Junio	2023-06-17T00:00:00	2024-11-06T07:00:00	8	Radiación solar	128
160569	7	Sololá	701	Sololá	2	El tablón	6	Junio	2023-06-17T00:00:00	2024-11-06T08:00:00	2	Temperatura media	18.5
160570	7	Sololá	701	Sololá	2	El tablón	6	Junio	2023-06-17T00:00:00	2024-11-06T08:00:00	4	Temperatura máxima	18.5
160571	7	Sololá	701	Sololá	2	El tablón	6	Junio	2023-06-17T00:00:00	2024-11-06T08:00:00	3	Temperatura mínima	15.9
160572	7	Sololá	701	Sololá	2	El tablón	6	Junio	2023-06-17T00:00:00	2024-11-06T08:00:00	5	Humedad	69
160573	7	Sololá	701	Sololá	2	El tablón	6	Junio	2023-06-17T00:00:00	2024-11-06T08:00:00	6	Velocidad del viento	6.4
160574	7	Sololá	701	Sololá	2	El tablón	6	Junio	2023-06-17T00:00:00	2024-11-06T08:00:00	7	Dirección del viento	6.44
160575	7	Sololá	701	Sololá	2	El tablón	6	Junio	2023-06-17T00:00:00	2024-11-06T08:00:00	1	Precipitación	0
160576	7	Sololá	701	Sololá	2	El tablón	6	Junio	2023-06-17T00:00:00	2024-11-06T08:00:00	8	Radiación solar	349
160577	7	Sololá	701	Sololá	2	El tablón	6	Junio	2023-06-17T00:00:00	2024-11-06T09:00:00	2	Temperatura media	19.5
160578	7	Sololá	701	Sololá	2	El tablón	6	Junio	2023-06-17T00:00:00	2024-11-06T09:00:00	4	Temperatura máxima	19.5
160579	7	Sololá	701	Sololá	2	El tablón	6	Junio	2023-06-17T00:00:00	2024-11-06T09:00:00	3	Temperatura mínima	18.5
160580	7	Sololá	701	Sololá	2	El tablón	6	Junio	2023-06-17T00:00:00	2024-11-06T09:00:00	5	Humedad	63
160581	7	Sololá	701	Sololá	2	El tablón	6	Junio	2023-06-17T00:00:00	2024-11-06T09:00:00	6	Velocidad del viento	8
160582	7	Sololá	701	Sololá	2	El tablón	6	Junio	2023-06-17T00:00:00	2024-11-06T09:00:00	7	Dirección del viento	8.05
160583	7	Sololá	701	Sololá	2	El tablón	6	Junio	2023-06-17T00:00:00	2024-11-06T09:00:00	1	Precipitación	0
160584	7	Sololá	701	Sololá	2	El tablón	6	Junio	2023-06-17T00:00:00	2024-11-06T09:00:00	8	Radiación solar	557
160585	7	Sololá	701	Sololá	2	El tablón	6	Junio	2023-06-17T00:00:00	2024-11-06T10:00:00	2	Temperatura media	19.5
160586	7	Sololá	701	Sololá	2	El tablón	6	Junio	2023-06-17T00:00:00	2024-11-06T10:00:00	4	Temperatura máxima	19.7
160587	7	Sololá	701	Sololá	2	El tablón	6	Junio	2023-06-17T00:00:00	2024-11-06T10:00:00	3	Temperatura mínima	19.4
160588	7	Sololá	701	Sololá	2	El tablón	6	Junio	2023-06-17T00:00:00	2024-11-06T10:00:00	5	Humedad	65
160589	7	Sololá	701	Sololá	2	El tablón	6	Junio	2023-06-17T00:00:00	2024-11-06T10:00:00	6	Velocidad del viento	9.7
160590	7	Sololá	701	Sololá	2	El tablón	6	Junio	2023-06-17T00:00:00	2024-11-06T10:00:00	7	Dirección del viento	9.66
160591	7	Sololá	701	Sololá	2	El tablón	6	Junio	2023-06-17T00:00:00	2024-11-06T10:00:00	1	Precipitación	0
160592	7	Sololá	701	Sololá	2	El tablón	6	Junio	2023-06-17T00:00:00	2024-11-06T10:00:00	8	Radiación solar	728
160593	7	Sololá	701	Sololá	2	El tablón	6	Junio	2023-06-17T00:00:00	2024-11-06T11:00:00	2	Temperatura media	20.2
160594	7	Sololá	701	Sololá	2	El tablón	6	Junio	2023-06-17T00:00:00	2024-11-06T11:00:00	4	Temperatura máxima	20.3
160595	7	Sololá	701	Sololá	2	El tablón	6	Junio	2023-06-17T00:00:00	2024-11-06T11:00:00	3	Temperatura mínima	19.3
160596	7	Sololá	701	Sololá	2	El tablón	6	Junio	2023-06-17T00:00:00	2024-11-06T11:00:00	5	Humedad	62
160597	7	Sololá	701	Sololá	2	El tablón	6	Junio	2023-06-17T00:00:00	2024-11-06T11:00:00	6	Velocidad del viento	12.9
160598	7	Sololá	701	Sololá	2	El tablón	6	Junio	2023-06-17T00:00:00	2024-11-06T11:00:00	7	Dirección del viento	12.87
160599	7	Sololá	701	Sololá	2	El tablón	6	Junio	2023-06-17T00:00:00	2024-11-06T11:00:00	1	Precipitación	0
160600	7	Sololá	701	Sololá	2	El tablón	6	Junio	2023-06-17T00:00:00	2024-11-06T11:00:00	8	Radiación solar	856
160601	7	Sololá	701	Sololá	2	El tablón	6	Junio	2023-06-17T00:00:00	2024-11-06T12:00:00	2	Temperatura media	21.1
160602	7	Sololá	701	Sololá	2	El tablón	6	Junio	2023-06-17T00:00:00	2024-11-06T12:00:00	4	Temperatura máxima	21.1
160603	7	Sololá	701	Sololá	2	El tablón	6	Junio	2023-06-17T00:00:00	2024-11-06T12:00:00	3	Temperatura mínima	20.2
160604	7	Sololá	701	Sololá	2	El tablón	6	Junio	2023-06-17T00:00:00	2024-11-06T12:00:00	5	Humedad	58
160605	7	Sololá	701	Sololá	2	El tablón	6	Junio	2023-06-17T00:00:00	2024-11-06T12:00:00	6	Velocidad del viento	11.3
160606	7	Sololá	701	Sololá	2	El tablón	6	Junio	2023-06-17T00:00:00	2024-11-06T12:00:00	7	Dirección del viento	11.27
160607	7	Sololá	701	Sololá	2	El tablón	6	Junio	2023-06-17T00:00:00	2024-11-06T12:00:00	1	Precipitación	0
160608	7	Sololá	701	Sololá	2	El tablón	6	Junio	2023-06-17T00:00:00	2024-11-06T12:00:00	8	Radiación solar	936
160609	7	Sololá	701	Sololá	2	El tablón	6	Junio	2023-06-17T00:00:00	2024-11-06T13:00:00	2	Temperatura media	21.5
160610	7	Sololá	701	Sololá	2	El tablón	6	Junio	2023-06-17T00:00:00	2024-11-06T13:00:00	4	Temperatura máxima	21.7
160611	7	Sololá	701	Sololá	2	El tablón	6	Junio	2023-06-17T00:00:00	2024-11-06T13:00:00	3	Temperatura mínima	21.1
160612	7	Sololá	701	Sololá	2	El tablón	6	Junio	2023-06-17T00:00:00	2024-11-06T13:00:00	5	Humedad	57
160613	7	Sololá	701	Sololá	2	El tablón	6	Junio	2023-06-17T00:00:00	2024-11-06T13:00:00	6	Velocidad del viento	11.3
160614	7	Sololá	701	Sololá	2	El tablón	6	Junio	2023-06-17T00:00:00	2024-11-06T13:00:00	7	Dirección del viento	11.27
160615	7	Sololá	701	Sololá	2	El tablón	6	Junio	2023-06-17T00:00:00	2024-11-06T13:00:00	1	Precipitación	0
160616	7	Sololá	701	Sololá	2	El tablón	6	Junio	2023-06-17T00:00:00	2024-11-06T13:00:00	8	Radiación solar	944
160617	7	Sololá	701	Sololá	2	El tablón	6	Junio	2023-06-17T00:00:00	2024-11-06T14:00:00	2	Temperatura media	21.6
160618	7	Sololá	701	Sololá	2	El tablón	6	Junio	2023-06-17T00:00:00	2024-11-06T14:00:00	4	Temperatura máxima	21.9
160619	7	Sololá	701	Sololá	2	El tablón	6	Junio	2023-06-17T00:00:00	2024-11-06T14:00:00	3	Temperatura mínima	21.2
160620	7	Sololá	701	Sololá	2	El tablón	6	Junio	2023-06-17T00:00:00	2024-11-06T14:00:00	5	Humedad	54
160621	7	Sololá	701	Sololá	2	El tablón	6	Junio	2023-06-17T00:00:00	2024-11-06T14:00:00	6	Velocidad del viento	12.9
160622	7	Sololá	701	Sololá	2	El tablón	6	Junio	2023-06-17T00:00:00	2024-11-06T14:00:00	7	Dirección del viento	12.87
160623	7	Sololá	701	Sololá	2	El tablón	6	Junio	2023-06-17T00:00:00	2024-11-06T14:00:00	1	Precipitación	0
160624	7	Sololá	701	Sololá	2	El tablón	6	Junio	2023-06-17T00:00:00	2024-11-06T14:00:00	8	Radiación solar	896
160625	7	Sololá	701	Sololá	2	El tablón	6	Junio	2023-06-17T00:00:00	2024-11-06T15:00:00	2	Temperatura media	21.7
160626	7	Sololá	701	Sololá	2	El tablón	6	Junio	2023-06-17T00:00:00	2024-11-06T15:00:00	4	Temperatura máxima	21.9
160627	7	Sololá	701	Sololá	2	El tablón	6	Junio	2023-06-17T00:00:00	2024-11-06T15:00:00	3	Temperatura mínima	21.5
160628	7	Sololá	701	Sololá	2	El tablón	6	Junio	2023-06-17T00:00:00	2024-11-06T15:00:00	5	Humedad	51
160629	7	Sololá	701	Sololá	2	El tablón	6	Junio	2023-06-17T00:00:00	2024-11-06T15:00:00	6	Velocidad del viento	12.9
160630	7	Sololá	701	Sololá	2	El tablón	6	Junio	2023-06-17T00:00:00	2024-11-06T15:00:00	7	Dirección del viento	12.87
160631	7	Sololá	701	Sololá	2	El tablón	6	Junio	2023-06-17T00:00:00	2024-11-06T15:00:00	1	Precipitación	0
160632	7	Sololá	701	Sololá	2	El tablón	6	Junio	2023-06-17T00:00:00	2024-11-06T15:00:00	8	Radiación solar	790
160633	7	Sololá	701	Sololá	2	El tablón	6	Junio	2023-06-17T00:00:00	2024-11-06T16:00:00	2	Temperatura media	21.9
160634	7	Sololá	701	Sololá	2	El tablón	6	Junio	2023-06-17T00:00:00	2024-11-06T16:00:00	4	Temperatura máxima	22.1
160635	7	Sololá	701	Sololá	2	El tablón	6	Junio	2023-06-17T00:00:00	2024-11-06T16:00:00	3	Temperatura mínima	21.7
160636	7	Sololá	701	Sololá	2	El tablón	6	Junio	2023-06-17T00:00:00	2024-11-06T16:00:00	5	Humedad	59
160637	7	Sololá	701	Sololá	2	El tablón	6	Junio	2023-06-17T00:00:00	2024-11-06T16:00:00	6	Velocidad del viento	11.3
160638	7	Sololá	701	Sololá	2	El tablón	6	Junio	2023-06-17T00:00:00	2024-11-06T16:00:00	7	Dirección del viento	11.27
160639	7	Sololá	701	Sololá	2	El tablón	6	Junio	2023-06-17T00:00:00	2024-11-06T16:00:00	1	Precipitación	0
160640	7	Sololá	701	Sololá	2	El tablón	6	Junio	2023-06-17T00:00:00	2024-11-06T16:00:00	8	Radiación solar	654
160641	7	Sololá	701	Sololá	2	El tablón	6	Junio	2023-06-17T00:00:00	2024-11-06T17:00:00	2	Temperatura media	18.9
160642	7	Sololá	701	Sololá	2	El tablón	6	Junio	2023-06-17T00:00:00	2024-11-06T17:00:00	4	Temperatura máxima	21.9
160643	7	Sololá	701	Sololá	2	El tablón	6	Junio	2023-06-17T00:00:00	2024-11-06T17:00:00	3	Temperatura mínima	18.9
160644	7	Sololá	701	Sololá	2	El tablón	6	Junio	2023-06-17T00:00:00	2024-11-06T17:00:00	5	Humedad	84
160645	7	Sololá	701	Sololá	2	El tablón	6	Junio	2023-06-17T00:00:00	2024-11-06T17:00:00	6	Velocidad del viento	6.4
160646	7	Sololá	701	Sololá	2	El tablón	6	Junio	2023-06-17T00:00:00	2024-11-06T17:00:00	7	Dirección del viento	6.44
160647	7	Sololá	701	Sololá	2	El tablón	6	Junio	2023-06-17T00:00:00	2024-11-06T17:00:00	1	Precipitación	0
160648	7	Sololá	701	Sololá	2	El tablón	6	Junio	2023-06-17T00:00:00	2024-11-06T17:00:00	8	Radiación solar	386
160649	7	Sololá	701	Sololá	2	El tablón	6	Junio	2023-06-17T00:00:00	2024-11-06T18:00:00	2	Temperatura media	16.2
160650	7	Sololá	701	Sololá	2	El tablón	6	Junio	2023-06-17T00:00:00	2024-11-06T18:00:00	4	Temperatura máxima	18.9
160651	7	Sololá	701	Sololá	2	El tablón	6	Junio	2023-06-17T00:00:00	2024-11-06T18:00:00	3	Temperatura mínima	16
160652	7	Sololá	701	Sololá	2	El tablón	6	Junio	2023-06-17T00:00:00	2024-11-06T18:00:00	5	Humedad	86
160653	7	Sololá	701	Sololá	2	El tablón	6	Junio	2023-06-17T00:00:00	2024-11-06T18:00:00	6	Velocidad del viento	6.4
160654	7	Sololá	701	Sololá	2	El tablón	6	Junio	2023-06-17T00:00:00	2024-11-06T18:00:00	7	Dirección del viento	6.44
160655	7	Sololá	701	Sololá	2	El tablón	6	Junio	2023-06-17T00:00:00	2024-11-06T18:00:00	1	Precipitación	1.6
160656	7	Sololá	701	Sololá	2	El tablón	6	Junio	2023-06-17T00:00:00	2024-11-06T18:00:00	8	Radiación solar	46
160657	7	Sololá	701	Sololá	2	El tablón	6	Junio	2023-06-17T00:00:00	2024-11-06T19:00:00	2	Temperatura media	15.2
160658	7	Sololá	701	Sololá	2	El tablón	6	Junio	2023-06-17T00:00:00	2024-11-06T19:00:00	4	Temperatura máxima	16.3
160659	7	Sololá	701	Sololá	2	El tablón	6	Junio	2023-06-17T00:00:00	2024-11-06T19:00:00	3	Temperatura mínima	15.2
160660	7	Sololá	701	Sololá	2	El tablón	6	Junio	2023-06-17T00:00:00	2024-11-06T19:00:00	5	Humedad	85
160661	7	Sololá	701	Sololá	2	El tablón	6	Junio	2023-06-17T00:00:00	2024-11-06T19:00:00	6	Velocidad del viento	8
160662	7	Sololá	701	Sololá	2	El tablón	6	Junio	2023-06-17T00:00:00	2024-11-06T19:00:00	7	Dirección del viento	8.05
160663	7	Sololá	701	Sololá	2	El tablón	6	Junio	2023-06-17T00:00:00	2024-11-06T19:00:00	1	Precipitación	0
160664	7	Sololá	701	Sololá	2	El tablón	6	Junio	2023-06-17T00:00:00	2024-11-06T19:00:00	8	Radiación solar	0
160665	7	Sololá	701	Sololá	2	El tablón	6	Junio	2023-06-17T00:00:00	2024-11-06T20:00:00	2	Temperatura media	14.6
160666	7	Sololá	701	Sololá	2	El tablón	6	Junio	2023-06-17T00:00:00	2024-11-06T20:00:00	4	Temperatura máxima	15.2
160667	7	Sololá	701	Sololá	2	El tablón	6	Junio	2023-06-17T00:00:00	2024-11-06T20:00:00	3	Temperatura mínima	14.6
160668	7	Sololá	701	Sololá	2	El tablón	6	Junio	2023-06-17T00:00:00	2024-11-06T20:00:00	5	Humedad	88
160669	7	Sololá	701	Sololá	2	El tablón	6	Junio	2023-06-17T00:00:00	2024-11-06T20:00:00	6	Velocidad del viento	8
160670	7	Sololá	701	Sololá	2	El tablón	6	Junio	2023-06-17T00:00:00	2024-11-06T20:00:00	7	Dirección del viento	8.05
160671	7	Sololá	701	Sololá	2	El tablón	6	Junio	2023-06-17T00:00:00	2024-11-06T20:00:00	1	Precipitación	0.8
160672	7	Sololá	701	Sololá	2	El tablón	6	Junio	2023-06-17T00:00:00	2024-11-06T20:00:00	8	Radiación solar	0
160673	7	Sololá	701	Sololá	2	El tablón	6	Junio	2023-06-17T00:00:00	2024-11-06T21:00:00	2	Temperatura media	14.7
160674	7	Sololá	701	Sololá	2	El tablón	6	Junio	2023-06-17T00:00:00	2024-11-06T21:00:00	4	Temperatura máxima	14.7
160675	7	Sololá	701	Sololá	2	El tablón	6	Junio	2023-06-17T00:00:00	2024-11-06T21:00:00	3	Temperatura mínima	14.6
160676	7	Sololá	701	Sololá	2	El tablón	6	Junio	2023-06-17T00:00:00	2024-11-06T21:00:00	5	Humedad	88
160677	7	Sololá	701	Sololá	2	El tablón	6	Junio	2023-06-17T00:00:00	2024-11-06T21:00:00	6	Velocidad del viento	9.7
160678	7	Sololá	701	Sololá	2	El tablón	6	Junio	2023-06-17T00:00:00	2024-11-06T21:00:00	7	Dirección del viento	9.66
160679	7	Sololá	701	Sololá	2	El tablón	6	Junio	2023-06-17T00:00:00	2024-11-06T21:00:00	1	Precipitación	0
160680	7	Sololá	701	Sololá	2	El tablón	6	Junio	2023-06-17T00:00:00	2024-11-06T21:00:00	8	Radiación solar	0
160681	7	Sololá	701	Sololá	2	El tablón	6	Junio	2023-06-17T00:00:00	2024-11-06T22:00:00	2	Temperatura media	14.7
160682	7	Sololá	701	Sololá	2	El tablón	6	Junio	2023-06-17T00:00:00	2024-11-06T22:00:00	4	Temperatura máxima	14.8
160683	7	Sololá	701	Sololá	2	El tablón	6	Junio	2023-06-17T00:00:00	2024-11-06T22:00:00	3	Temperatura mínima	14.7
160684	7	Sololá	701	Sololá	2	El tablón	6	Junio	2023-06-17T00:00:00	2024-11-06T22:00:00	5	Humedad	86
160685	7	Sololá	701	Sololá	2	El tablón	6	Junio	2023-06-17T00:00:00	2024-11-06T22:00:00	6	Velocidad del viento	12.9
160686	7	Sololá	701	Sololá	2	El tablón	6	Junio	2023-06-17T00:00:00	2024-11-06T22:00:00	7	Dirección del viento	12.87
160687	7	Sololá	701	Sololá	2	El tablón	6	Junio	2023-06-17T00:00:00	2024-11-06T22:00:00	1	Precipitación	0.2
160688	7	Sololá	701	Sololá	2	El tablón	6	Junio	2023-06-17T00:00:00	2024-11-06T22:00:00	8	Radiación solar	0
160689	7	Sololá	701	Sololá	2	El tablón	6	Junio	2023-06-17T00:00:00	2024-11-06T23:00:00	2	Temperatura media	14.4
160690	7	Sololá	701	Sololá	2	El tablón	6	Junio	2023-06-17T00:00:00	2024-11-06T23:00:00	4	Temperatura máxima	14.7
160691	7	Sololá	701	Sololá	2	El tablón	6	Junio	2023-06-17T00:00:00	2024-11-06T23:00:00	3	Temperatura mínima	14.4
160692	7	Sololá	701	Sololá	2	El tablón	6	Junio	2023-06-17T00:00:00	2024-11-06T23:00:00	5	Humedad	86
160693	7	Sololá	701	Sololá	2	El tablón	6	Junio	2023-06-17T00:00:00	2024-11-06T23:00:00	6	Velocidad del viento	12.9
160694	7	Sololá	701	Sololá	2	El tablón	6	Junio	2023-06-17T00:00:00	2024-11-06T23:00:00	7	Dirección del viento	12.87
160695	7	Sololá	701	Sololá	2	El tablón	6	Junio	2023-06-17T00:00:00	2024-11-06T23:00:00	1	Precipitación	0
160696	7	Sololá	701	Sololá	2	El tablón	6	Junio	2023-06-17T00:00:00	2024-11-06T23:00:00	8	Radiación solar	0
160697	7	Sololá	701	Sololá	2	El tablón	6	Junio	2023-06-18T00:00:00	2024-11-06T00:00:00	2	Temperatura media	13.8
160698	7	Sololá	701	Sololá	2	El tablón	6	Junio	2023-06-18T00:00:00	2024-11-06T00:00:00	4	Temperatura máxima	14.4
160699	7	Sololá	701	Sololá	2	El tablón	6	Junio	2023-06-18T00:00:00	2024-11-06T00:00:00	3	Temperatura mínima	13.8
160700	7	Sololá	701	Sololá	2	El tablón	6	Junio	2023-06-18T00:00:00	2024-11-06T00:00:00	5	Humedad	87
160701	7	Sololá	701	Sololá	2	El tablón	6	Junio	2023-06-18T00:00:00	2024-11-06T00:00:00	6	Velocidad del viento	9.7
160702	7	Sololá	701	Sololá	2	El tablón	6	Junio	2023-06-18T00:00:00	2024-11-06T00:00:00	7	Dirección del viento	9.66
160703	7	Sololá	701	Sololá	2	El tablón	6	Junio	2023-06-18T00:00:00	2024-11-06T00:00:00	1	Precipitación	0
160704	7	Sololá	701	Sololá	2	El tablón	6	Junio	2023-06-18T00:00:00	2024-11-06T00:00:00	8	Radiación solar	0
160705	7	Sololá	701	Sololá	2	El tablón	6	Junio	2023-06-18T00:00:00	2024-11-06T01:00:00	2	Temperatura media	13.2
160706	7	Sololá	701	Sololá	2	El tablón	6	Junio	2023-06-18T00:00:00	2024-11-06T01:00:00	4	Temperatura máxima	13.8
160707	7	Sololá	701	Sololá	2	El tablón	6	Junio	2023-06-18T00:00:00	2024-11-06T01:00:00	3	Temperatura mínima	13.2
160708	7	Sololá	701	Sololá	2	El tablón	6	Junio	2023-06-18T00:00:00	2024-11-06T01:00:00	5	Humedad	88
160709	7	Sololá	701	Sololá	2	El tablón	6	Junio	2023-06-18T00:00:00	2024-11-06T01:00:00	6	Velocidad del viento	11.3
160710	7	Sololá	701	Sololá	2	El tablón	6	Junio	2023-06-18T00:00:00	2024-11-06T01:00:00	7	Dirección del viento	11.27
160711	7	Sololá	701	Sololá	2	El tablón	6	Junio	2023-06-18T00:00:00	2024-11-06T01:00:00	1	Precipitación	0
160712	7	Sololá	701	Sololá	2	El tablón	6	Junio	2023-06-18T00:00:00	2024-11-06T01:00:00	8	Radiación solar	0
160713	7	Sololá	701	Sololá	2	El tablón	6	Junio	2023-06-18T00:00:00	2024-11-06T02:00:00	2	Temperatura media	13.3
160714	7	Sololá	701	Sololá	2	El tablón	6	Junio	2023-06-18T00:00:00	2024-11-06T02:00:00	4	Temperatura máxima	13.3
160715	7	Sololá	701	Sololá	2	El tablón	6	Junio	2023-06-18T00:00:00	2024-11-06T02:00:00	3	Temperatura mínima	13.1
160716	7	Sololá	701	Sololá	2	El tablón	6	Junio	2023-06-18T00:00:00	2024-11-06T02:00:00	5	Humedad	85
160717	7	Sololá	701	Sololá	2	El tablón	6	Junio	2023-06-18T00:00:00	2024-11-06T02:00:00	6	Velocidad del viento	12.9
160718	7	Sololá	701	Sololá	2	El tablón	6	Junio	2023-06-18T00:00:00	2024-11-06T02:00:00	7	Dirección del viento	12.87
160719	7	Sololá	701	Sololá	2	El tablón	6	Junio	2023-06-18T00:00:00	2024-11-06T02:00:00	1	Precipitación	0
160720	7	Sololá	701	Sololá	2	El tablón	6	Junio	2023-06-18T00:00:00	2024-11-06T02:00:00	8	Radiación solar	0
160721	7	Sololá	701	Sololá	2	El tablón	6	Junio	2023-06-18T00:00:00	2024-11-06T03:00:00	2	Temperatura media	13.2
160722	7	Sololá	701	Sololá	2	El tablón	6	Junio	2023-06-18T00:00:00	2024-11-06T03:00:00	4	Temperatura máxima	13.3
160723	7	Sololá	701	Sololá	2	El tablón	6	Junio	2023-06-18T00:00:00	2024-11-06T03:00:00	3	Temperatura mínima	13.1
160724	7	Sololá	701	Sololá	2	El tablón	6	Junio	2023-06-18T00:00:00	2024-11-06T03:00:00	5	Humedad	82
160725	7	Sololá	701	Sololá	2	El tablón	6	Junio	2023-06-18T00:00:00	2024-11-06T03:00:00	6	Velocidad del viento	12.9
160726	7	Sololá	701	Sololá	2	El tablón	6	Junio	2023-06-18T00:00:00	2024-11-06T03:00:00	7	Dirección del viento	12.87
160727	7	Sololá	701	Sololá	2	El tablón	6	Junio	2023-06-18T00:00:00	2024-11-06T03:00:00	1	Precipitación	0
160728	7	Sololá	701	Sololá	2	El tablón	6	Junio	2023-06-18T00:00:00	2024-11-06T03:00:00	8	Radiación solar	0
160729	7	Sololá	701	Sololá	2	El tablón	6	Junio	2023-06-18T00:00:00	2024-11-06T04:00:00	2	Temperatura media	13.2
160730	7	Sololá	701	Sololá	2	El tablón	6	Junio	2023-06-18T00:00:00	2024-11-06T04:00:00	4	Temperatura máxima	13.2
160731	7	Sololá	701	Sololá	2	El tablón	6	Junio	2023-06-18T00:00:00	2024-11-06T04:00:00	3	Temperatura mínima	12.8
160732	7	Sololá	701	Sololá	2	El tablón	6	Junio	2023-06-18T00:00:00	2024-11-06T04:00:00	5	Humedad	79
160733	7	Sololá	701	Sololá	2	El tablón	6	Junio	2023-06-18T00:00:00	2024-11-06T04:00:00	6	Velocidad del viento	9.7
160734	7	Sololá	701	Sololá	2	El tablón	6	Junio	2023-06-18T00:00:00	2024-11-06T04:00:00	7	Dirección del viento	9.66
160735	7	Sololá	701	Sololá	2	El tablón	6	Junio	2023-06-18T00:00:00	2024-11-06T04:00:00	1	Precipitación	0
160736	7	Sololá	701	Sololá	2	El tablón	6	Junio	2023-06-18T00:00:00	2024-11-06T04:00:00	8	Radiación solar	0
160737	7	Sololá	701	Sololá	2	El tablón	6	Junio	2023-06-18T00:00:00	2024-11-06T05:00:00	2	Temperatura media	13.4
160738	7	Sololá	701	Sololá	2	El tablón	6	Junio	2023-06-18T00:00:00	2024-11-06T05:00:00	4	Temperatura máxima	13.4
160739	7	Sololá	701	Sololá	2	El tablón	6	Junio	2023-06-18T00:00:00	2024-11-06T05:00:00	3	Temperatura mínima	13.1
160740	7	Sololá	701	Sololá	2	El tablón	6	Junio	2023-06-18T00:00:00	2024-11-06T05:00:00	5	Humedad	74
160741	7	Sololá	701	Sololá	2	El tablón	6	Junio	2023-06-18T00:00:00	2024-11-06T05:00:00	6	Velocidad del viento	8
160742	7	Sololá	701	Sololá	2	El tablón	6	Junio	2023-06-18T00:00:00	2024-11-06T05:00:00	7	Dirección del viento	8.05
160743	7	Sololá	701	Sololá	2	El tablón	6	Junio	2023-06-18T00:00:00	2024-11-06T05:00:00	1	Precipitación	0
160744	7	Sololá	701	Sololá	2	El tablón	6	Junio	2023-06-18T00:00:00	2024-11-06T05:00:00	8	Radiación solar	0
160745	7	Sololá	701	Sololá	2	El tablón	6	Junio	2023-06-18T00:00:00	2024-11-06T06:00:00	2	Temperatura media	13.6
160746	7	Sololá	701	Sololá	2	El tablón	6	Junio	2023-06-18T00:00:00	2024-11-06T06:00:00	4	Temperatura máxima	13.6
160747	7	Sololá	701	Sololá	2	El tablón	6	Junio	2023-06-18T00:00:00	2024-11-06T06:00:00	3	Temperatura mínima	13.2
160748	7	Sololá	701	Sololá	2	El tablón	6	Junio	2023-06-18T00:00:00	2024-11-06T06:00:00	5	Humedad	73
160749	7	Sololá	701	Sololá	2	El tablón	6	Junio	2023-06-18T00:00:00	2024-11-06T06:00:00	6	Velocidad del viento	14.5
160750	7	Sololá	701	Sololá	2	El tablón	6	Junio	2023-06-18T00:00:00	2024-11-06T06:00:00	7	Dirección del viento	14.48
160751	7	Sololá	701	Sololá	2	El tablón	6	Junio	2023-06-18T00:00:00	2024-11-06T06:00:00	1	Precipitación	0
160752	7	Sololá	701	Sololá	2	El tablón	6	Junio	2023-06-18T00:00:00	2024-11-06T06:00:00	8	Radiación solar	6
160753	7	Sololá	701	Sololá	2	El tablón	6	Junio	2023-06-18T00:00:00	2024-11-06T07:00:00	2	Temperatura media	16
160754	7	Sololá	701	Sololá	2	El tablón	6	Junio	2023-06-18T00:00:00	2024-11-06T07:00:00	4	Temperatura máxima	16
160755	7	Sololá	701	Sololá	2	El tablón	6	Junio	2023-06-18T00:00:00	2024-11-06T07:00:00	3	Temperatura mínima	13.6
160756	7	Sololá	701	Sololá	2	El tablón	6	Junio	2023-06-18T00:00:00	2024-11-06T07:00:00	5	Humedad	69
160757	7	Sololá	701	Sololá	2	El tablón	6	Junio	2023-06-18T00:00:00	2024-11-06T07:00:00	6	Velocidad del viento	8
160758	7	Sololá	701	Sololá	2	El tablón	6	Junio	2023-06-18T00:00:00	2024-11-06T07:00:00	7	Dirección del viento	8.05
160759	7	Sololá	701	Sololá	2	El tablón	6	Junio	2023-06-18T00:00:00	2024-11-06T07:00:00	1	Precipitación	0
160760	7	Sololá	701	Sololá	2	El tablón	6	Junio	2023-06-18T00:00:00	2024-11-06T07:00:00	8	Radiación solar	129
160761	7	Sololá	701	Sololá	2	El tablón	6	Junio	2023-06-18T00:00:00	2024-11-06T08:00:00	2	Temperatura media	17.4
160762	7	Sololá	701	Sololá	2	El tablón	6	Junio	2023-06-18T00:00:00	2024-11-06T08:00:00	4	Temperatura máxima	17.4
160763	7	Sololá	701	Sololá	2	El tablón	6	Junio	2023-06-18T00:00:00	2024-11-06T08:00:00	3	Temperatura mínima	15.9
160764	7	Sololá	701	Sololá	2	El tablón	6	Junio	2023-06-18T00:00:00	2024-11-06T08:00:00	5	Humedad	65
160765	7	Sololá	701	Sololá	2	El tablón	6	Junio	2023-06-18T00:00:00	2024-11-06T08:00:00	6	Velocidad del viento	6.4
160766	7	Sololá	701	Sololá	2	El tablón	6	Junio	2023-06-18T00:00:00	2024-11-06T08:00:00	7	Dirección del viento	6.44
160767	7	Sololá	701	Sololá	2	El tablón	6	Junio	2023-06-18T00:00:00	2024-11-06T08:00:00	1	Precipitación	0
160768	7	Sololá	701	Sololá	2	El tablón	6	Junio	2023-06-18T00:00:00	2024-11-06T08:00:00	8	Radiación solar	349
160769	7	Sololá	701	Sololá	2	El tablón	6	Junio	2023-06-18T00:00:00	2024-11-06T09:00:00	2	Temperatura media	18.1
160770	7	Sololá	701	Sololá	2	El tablón	6	Junio	2023-06-18T00:00:00	2024-11-06T09:00:00	4	Temperatura máxima	18.1
160771	7	Sololá	701	Sololá	2	El tablón	6	Junio	2023-06-18T00:00:00	2024-11-06T09:00:00	3	Temperatura mínima	17.4
160772	7	Sololá	701	Sololá	2	El tablón	6	Junio	2023-06-18T00:00:00	2024-11-06T09:00:00	5	Humedad	66
160773	7	Sololá	701	Sololá	2	El tablón	6	Junio	2023-06-18T00:00:00	2024-11-06T09:00:00	6	Velocidad del viento	8
160774	7	Sololá	701	Sololá	2	El tablón	6	Junio	2023-06-18T00:00:00	2024-11-06T09:00:00	7	Dirección del viento	8.05
160775	7	Sololá	701	Sololá	2	El tablón	6	Junio	2023-06-18T00:00:00	2024-11-06T09:00:00	1	Precipitación	0
160776	7	Sololá	701	Sololá	2	El tablón	6	Junio	2023-06-18T00:00:00	2024-11-06T09:00:00	8	Radiación solar	556
160777	7	Sololá	701	Sololá	2	El tablón	6	Junio	2023-06-18T00:00:00	2024-11-06T10:00:00	2	Temperatura media	18.9
160778	7	Sololá	701	Sololá	2	El tablón	6	Junio	2023-06-18T00:00:00	2024-11-06T10:00:00	4	Temperatura máxima	18.9
160779	7	Sololá	701	Sololá	2	El tablón	6	Junio	2023-06-18T00:00:00	2024-11-06T10:00:00	3	Temperatura mínima	18
160780	7	Sololá	701	Sololá	2	El tablón	6	Junio	2023-06-18T00:00:00	2024-11-06T10:00:00	5	Humedad	56
160781	7	Sololá	701	Sololá	2	El tablón	6	Junio	2023-06-18T00:00:00	2024-11-06T10:00:00	6	Velocidad del viento	9.7
160782	7	Sololá	701	Sololá	2	El tablón	6	Junio	2023-06-18T00:00:00	2024-11-06T10:00:00	7	Dirección del viento	9.66
160783	7	Sololá	701	Sololá	2	El tablón	6	Junio	2023-06-18T00:00:00	2024-11-06T10:00:00	1	Precipitación	0
160784	7	Sololá	701	Sololá	2	El tablón	6	Junio	2023-06-18T00:00:00	2024-11-06T10:00:00	8	Radiación solar	729
160785	7	Sololá	701	Sololá	2	El tablón	6	Junio	2023-06-18T00:00:00	2024-11-06T11:00:00	2	Temperatura media	20.1
160786	7	Sololá	701	Sololá	2	El tablón	6	Junio	2023-06-18T00:00:00	2024-11-06T11:00:00	4	Temperatura máxima	20.2
160787	7	Sololá	701	Sololá	2	El tablón	6	Junio	2023-06-18T00:00:00	2024-11-06T11:00:00	3	Temperatura mínima	18.9
160788	7	Sololá	701	Sololá	2	El tablón	6	Junio	2023-06-18T00:00:00	2024-11-06T11:00:00	5	Humedad	48
160789	7	Sololá	701	Sololá	2	El tablón	6	Junio	2023-06-18T00:00:00	2024-11-06T11:00:00	6	Velocidad del viento	12.9
160790	7	Sololá	701	Sololá	2	El tablón	6	Junio	2023-06-18T00:00:00	2024-11-06T11:00:00	7	Dirección del viento	12.87
160791	7	Sololá	701	Sololá	2	El tablón	6	Junio	2023-06-18T00:00:00	2024-11-06T11:00:00	1	Precipitación	0
160792	7	Sololá	701	Sololá	2	El tablón	6	Junio	2023-06-18T00:00:00	2024-11-06T11:00:00	8	Radiación solar	866
160793	7	Sololá	701	Sololá	2	El tablón	6	Junio	2023-06-18T00:00:00	2024-11-06T12:00:00	2	Temperatura media	21.3
160794	7	Sololá	701	Sololá	2	El tablón	6	Junio	2023-06-18T00:00:00	2024-11-06T12:00:00	4	Temperatura máxima	21.4
160795	7	Sololá	701	Sololá	2	El tablón	6	Junio	2023-06-18T00:00:00	2024-11-06T12:00:00	3	Temperatura mínima	20.1
160796	7	Sololá	701	Sololá	2	El tablón	6	Junio	2023-06-18T00:00:00	2024-11-06T12:00:00	5	Humedad	51
160797	7	Sololá	701	Sololá	2	El tablón	6	Junio	2023-06-18T00:00:00	2024-11-06T12:00:00	6	Velocidad del viento	11.3
160798	7	Sololá	701	Sololá	2	El tablón	6	Junio	2023-06-18T00:00:00	2024-11-06T12:00:00	7	Dirección del viento	11.27
160799	7	Sololá	701	Sololá	2	El tablón	6	Junio	2023-06-18T00:00:00	2024-11-06T12:00:00	1	Precipitación	0
160800	7	Sololá	701	Sololá	2	El tablón	6	Junio	2023-06-18T00:00:00	2024-11-06T12:00:00	8	Radiación solar	934
160801	7	Sololá	701	Sololá	2	El tablón	6	Junio	2023-06-18T00:00:00	2024-11-06T13:00:00	2	Temperatura media	21.8
160802	7	Sololá	701	Sololá	2	El tablón	6	Junio	2023-06-18T00:00:00	2024-11-06T13:00:00	4	Temperatura máxima	21.9
160803	7	Sololá	701	Sololá	2	El tablón	6	Junio	2023-06-18T00:00:00	2024-11-06T13:00:00	3	Temperatura mínima	20.9
160804	7	Sololá	701	Sololá	2	El tablón	6	Junio	2023-06-18T00:00:00	2024-11-06T13:00:00	5	Humedad	46
160805	7	Sololá	701	Sololá	2	El tablón	6	Junio	2023-06-18T00:00:00	2024-11-06T13:00:00	6	Velocidad del viento	8
160806	7	Sololá	701	Sololá	2	El tablón	6	Junio	2023-06-18T00:00:00	2024-11-06T13:00:00	7	Dirección del viento	8.05
160807	7	Sololá	701	Sololá	2	El tablón	6	Junio	2023-06-18T00:00:00	2024-11-06T13:00:00	1	Precipitación	0
160808	7	Sololá	701	Sololá	2	El tablón	6	Junio	2023-06-18T00:00:00	2024-11-06T13:00:00	8	Radiación solar	941
160809	7	Sololá	701	Sololá	2	El tablón	6	Junio	2023-06-18T00:00:00	2024-11-06T14:00:00	2	Temperatura media	21.7
160810	7	Sololá	701	Sololá	2	El tablón	6	Junio	2023-06-18T00:00:00	2024-11-06T14:00:00	4	Temperatura máxima	22.1
160811	7	Sololá	701	Sololá	2	El tablón	6	Junio	2023-06-18T00:00:00	2024-11-06T14:00:00	3	Temperatura mínima	21.6
160812	7	Sololá	701	Sololá	2	El tablón	6	Junio	2023-06-18T00:00:00	2024-11-06T14:00:00	5	Humedad	51
160813	7	Sololá	701	Sololá	2	El tablón	6	Junio	2023-06-18T00:00:00	2024-11-06T14:00:00	6	Velocidad del viento	11.3
160814	7	Sololá	701	Sololá	2	El tablón	6	Junio	2023-06-18T00:00:00	2024-11-06T14:00:00	7	Dirección del viento	11.27
160815	7	Sololá	701	Sololá	2	El tablón	6	Junio	2023-06-18T00:00:00	2024-11-06T14:00:00	1	Precipitación	0
160816	7	Sololá	701	Sololá	2	El tablón	6	Junio	2023-06-18T00:00:00	2024-11-06T14:00:00	8	Radiación solar	916
160817	7	Sololá	701	Sololá	2	El tablón	6	Junio	2023-06-18T00:00:00	2024-11-06T15:00:00	2	Temperatura media	21.6
160818	7	Sololá	701	Sololá	2	El tablón	6	Junio	2023-06-18T00:00:00	2024-11-06T15:00:00	4	Temperatura máxima	21.7
160819	7	Sololá	701	Sololá	2	El tablón	6	Junio	2023-06-18T00:00:00	2024-11-06T15:00:00	3	Temperatura mínima	20.7
160820	7	Sololá	701	Sololá	2	El tablón	6	Junio	2023-06-18T00:00:00	2024-11-06T15:00:00	5	Humedad	55
160821	7	Sololá	701	Sololá	2	El tablón	6	Junio	2023-06-18T00:00:00	2024-11-06T15:00:00	6	Velocidad del viento	11.3
160822	7	Sololá	701	Sololá	2	El tablón	6	Junio	2023-06-18T00:00:00	2024-11-06T15:00:00	7	Dirección del viento	11.27
160823	7	Sololá	701	Sololá	2	El tablón	6	Junio	2023-06-18T00:00:00	2024-11-06T15:00:00	1	Precipitación	0
160824	7	Sololá	701	Sololá	2	El tablón	6	Junio	2023-06-18T00:00:00	2024-11-06T15:00:00	8	Radiación solar	798
160825	7	Sololá	701	Sololá	2	El tablón	6	Junio	2023-06-18T00:00:00	2024-11-06T16:00:00	2	Temperatura media	20.3
160826	7	Sololá	701	Sololá	2	El tablón	6	Junio	2023-06-18T00:00:00	2024-11-06T16:00:00	4	Temperatura máxima	21.9
160827	7	Sololá	701	Sololá	2	El tablón	6	Junio	2023-06-18T00:00:00	2024-11-06T16:00:00	3	Temperatura mínima	20.3
160828	7	Sololá	701	Sololá	2	El tablón	6	Junio	2023-06-18T00:00:00	2024-11-06T16:00:00	5	Humedad	59
160829	7	Sololá	701	Sololá	2	El tablón	6	Junio	2023-06-18T00:00:00	2024-11-06T16:00:00	6	Velocidad del viento	9.7
160830	7	Sololá	701	Sololá	2	El tablón	6	Junio	2023-06-18T00:00:00	2024-11-06T16:00:00	7	Dirección del viento	9.66
160831	7	Sololá	701	Sololá	2	El tablón	6	Junio	2023-06-18T00:00:00	2024-11-06T16:00:00	1	Precipitación	0
160832	7	Sololá	701	Sololá	2	El tablón	6	Junio	2023-06-18T00:00:00	2024-11-06T16:00:00	8	Radiación solar	578
160833	7	Sololá	701	Sololá	2	El tablón	6	Junio	2023-06-18T00:00:00	2024-11-06T17:00:00	2	Temperatura media	20.1
160834	7	Sololá	701	Sololá	2	El tablón	6	Junio	2023-06-18T00:00:00	2024-11-06T17:00:00	4	Temperatura máxima	21.3
160835	7	Sololá	701	Sololá	2	El tablón	6	Junio	2023-06-18T00:00:00	2024-11-06T17:00:00	3	Temperatura mínima	19.7
160836	7	Sololá	701	Sololá	2	El tablón	6	Junio	2023-06-18T00:00:00	2024-11-06T17:00:00	5	Humedad	56
160837	7	Sololá	701	Sololá	2	El tablón	6	Junio	2023-06-18T00:00:00	2024-11-06T17:00:00	6	Velocidad del viento	8
160838	7	Sololá	701	Sololá	2	El tablón	6	Junio	2023-06-18T00:00:00	2024-11-06T17:00:00	7	Dirección del viento	8.05
160839	7	Sololá	701	Sololá	2	El tablón	6	Junio	2023-06-18T00:00:00	2024-11-06T17:00:00	1	Precipitación	0
160840	7	Sololá	701	Sololá	2	El tablón	6	Junio	2023-06-18T00:00:00	2024-11-06T17:00:00	8	Radiación solar	468
160841	7	Sololá	701	Sololá	2	El tablón	6	Junio	2023-06-18T00:00:00	2024-11-06T18:00:00	2	Temperatura media	18
160842	7	Sololá	701	Sololá	2	El tablón	6	Junio	2023-06-18T00:00:00	2024-11-06T18:00:00	4	Temperatura máxima	20.1
160843	7	Sololá	701	Sololá	2	El tablón	6	Junio	2023-06-18T00:00:00	2024-11-06T18:00:00	3	Temperatura mínima	18
160844	7	Sololá	701	Sololá	2	El tablón	6	Junio	2023-06-18T00:00:00	2024-11-06T18:00:00	5	Humedad	74
160845	7	Sololá	701	Sololá	2	El tablón	6	Junio	2023-06-18T00:00:00	2024-11-06T18:00:00	6	Velocidad del viento	11.3
160846	7	Sololá	701	Sololá	2	El tablón	6	Junio	2023-06-18T00:00:00	2024-11-06T18:00:00	7	Dirección del viento	11.27
160847	7	Sololá	701	Sololá	2	El tablón	6	Junio	2023-06-18T00:00:00	2024-11-06T18:00:00	1	Precipitación	0
160848	7	Sololá	701	Sololá	2	El tablón	6	Junio	2023-06-18T00:00:00	2024-11-06T18:00:00	8	Radiación solar	204
160849	7	Sololá	701	Sololá	2	El tablón	6	Junio	2023-06-18T00:00:00	2024-11-06T19:00:00	2	Temperatura media	16.3
160850	7	Sololá	701	Sololá	2	El tablón	6	Junio	2023-06-18T00:00:00	2024-11-06T19:00:00	4	Temperatura máxima	18
160851	7	Sololá	701	Sololá	2	El tablón	6	Junio	2023-06-18T00:00:00	2024-11-06T19:00:00	3	Temperatura mínima	16.3
160852	7	Sololá	701	Sololá	2	El tablón	6	Junio	2023-06-18T00:00:00	2024-11-06T19:00:00	5	Humedad	84
160853	7	Sololá	701	Sololá	2	El tablón	6	Junio	2023-06-18T00:00:00	2024-11-06T19:00:00	6	Velocidad del viento	6.4
160854	7	Sololá	701	Sololá	2	El tablón	6	Junio	2023-06-18T00:00:00	2024-11-06T19:00:00	7	Dirección del viento	6.44
160855	7	Sololá	701	Sololá	2	El tablón	6	Junio	2023-06-18T00:00:00	2024-11-06T19:00:00	1	Precipitación	0
160856	7	Sololá	701	Sololá	2	El tablón	6	Junio	2023-06-18T00:00:00	2024-11-06T19:00:00	8	Radiación solar	0
160857	7	Sololá	701	Sololá	2	El tablón	6	Junio	2023-06-18T00:00:00	2024-11-06T20:00:00	2	Temperatura media	15.6
160858	7	Sololá	701	Sololá	2	El tablón	6	Junio	2023-06-18T00:00:00	2024-11-06T20:00:00	4	Temperatura máxima	16.4
160859	7	Sololá	701	Sololá	2	El tablón	6	Junio	2023-06-18T00:00:00	2024-11-06T20:00:00	3	Temperatura mínima	15.6
160860	7	Sololá	701	Sololá	2	El tablón	6	Junio	2023-06-18T00:00:00	2024-11-06T20:00:00	5	Humedad	86
160861	7	Sololá	701	Sololá	2	El tablón	6	Junio	2023-06-18T00:00:00	2024-11-06T20:00:00	6	Velocidad del viento	8
160862	7	Sololá	701	Sololá	2	El tablón	6	Junio	2023-06-18T00:00:00	2024-11-06T20:00:00	7	Dirección del viento	8.05
160863	7	Sololá	701	Sololá	2	El tablón	6	Junio	2023-06-18T00:00:00	2024-11-06T20:00:00	1	Precipitación	0
160864	7	Sololá	701	Sololá	2	El tablón	6	Junio	2023-06-18T00:00:00	2024-11-06T20:00:00	8	Radiación solar	0
160865	7	Sololá	701	Sololá	2	El tablón	6	Junio	2023-06-18T00:00:00	2024-11-06T21:00:00	2	Temperatura media	15.2
160866	7	Sololá	701	Sololá	2	El tablón	6	Junio	2023-06-18T00:00:00	2024-11-06T21:00:00	4	Temperatura máxima	15.6
160867	7	Sololá	701	Sololá	2	El tablón	6	Junio	2023-06-18T00:00:00	2024-11-06T21:00:00	3	Temperatura mínima	15.1
160868	7	Sololá	701	Sololá	2	El tablón	6	Junio	2023-06-18T00:00:00	2024-11-06T21:00:00	5	Humedad	84
160869	7	Sololá	701	Sololá	2	El tablón	6	Junio	2023-06-18T00:00:00	2024-11-06T21:00:00	6	Velocidad del viento	11.3
160870	7	Sololá	701	Sololá	2	El tablón	6	Junio	2023-06-18T00:00:00	2024-11-06T21:00:00	7	Dirección del viento	11.27
160871	7	Sololá	701	Sololá	2	El tablón	6	Junio	2023-06-18T00:00:00	2024-11-06T21:00:00	1	Precipitación	0
160872	7	Sololá	701	Sololá	2	El tablón	6	Junio	2023-06-18T00:00:00	2024-11-06T21:00:00	8	Radiación solar	0
160873	7	Sololá	701	Sololá	2	El tablón	6	Junio	2023-06-18T00:00:00	2024-11-06T22:00:00	2	Temperatura media	14.6
160874	7	Sololá	701	Sololá	2	El tablón	6	Junio	2023-06-18T00:00:00	2024-11-06T22:00:00	4	Temperatura máxima	15.2
160875	7	Sololá	701	Sololá	2	El tablón	6	Junio	2023-06-18T00:00:00	2024-11-06T22:00:00	3	Temperatura mínima	14.4
160876	7	Sololá	701	Sololá	2	El tablón	6	Junio	2023-06-18T00:00:00	2024-11-06T22:00:00	5	Humedad	83
160877	7	Sololá	701	Sololá	2	El tablón	6	Junio	2023-06-18T00:00:00	2024-11-06T22:00:00	6	Velocidad del viento	12.9
160878	7	Sololá	701	Sololá	2	El tablón	6	Junio	2023-06-18T00:00:00	2024-11-06T22:00:00	7	Dirección del viento	12.87
160879	7	Sololá	701	Sololá	2	El tablón	6	Junio	2023-06-18T00:00:00	2024-11-06T22:00:00	1	Precipitación	0
160880	7	Sololá	701	Sololá	2	El tablón	6	Junio	2023-06-18T00:00:00	2024-11-06T22:00:00	8	Radiación solar	0
160881	7	Sololá	701	Sololá	2	El tablón	6	Junio	2023-06-18T00:00:00	2024-11-06T23:00:00	2	Temperatura media	14.4
160882	7	Sololá	701	Sololá	2	El tablón	6	Junio	2023-06-18T00:00:00	2024-11-06T23:00:00	4	Temperatura máxima	14.6
160883	7	Sololá	701	Sololá	2	El tablón	6	Junio	2023-06-18T00:00:00	2024-11-06T23:00:00	3	Temperatura mínima	14.4
160884	7	Sololá	701	Sololá	2	El tablón	6	Junio	2023-06-18T00:00:00	2024-11-06T23:00:00	5	Humedad	86
160885	7	Sololá	701	Sololá	2	El tablón	6	Junio	2023-06-18T00:00:00	2024-11-06T23:00:00	6	Velocidad del viento	16.1
160886	7	Sololá	701	Sololá	2	El tablón	6	Junio	2023-06-18T00:00:00	2024-11-06T23:00:00	7	Dirección del viento	16.09
160887	7	Sololá	701	Sololá	2	El tablón	6	Junio	2023-06-18T00:00:00	2024-11-06T23:00:00	1	Precipitación	0
160888	7	Sololá	701	Sololá	2	El tablón	6	Junio	2023-06-18T00:00:00	2024-11-06T23:00:00	8	Radiación solar	0
160889	7	Sololá	701	Sololá	2	El tablón	6	Junio	2023-06-19T00:00:00	2024-11-06T00:00:00	2	Temperatura media	14.3
160890	7	Sololá	701	Sololá	2	El tablón	6	Junio	2023-06-19T00:00:00	2024-11-06T00:00:00	4	Temperatura máxima	14.4
160891	7	Sololá	701	Sololá	2	El tablón	6	Junio	2023-06-19T00:00:00	2024-11-06T00:00:00	3	Temperatura mínima	14.2
160892	7	Sololá	701	Sololá	2	El tablón	6	Junio	2023-06-19T00:00:00	2024-11-06T00:00:00	5	Humedad	85
160893	7	Sololá	701	Sololá	2	El tablón	6	Junio	2023-06-19T00:00:00	2024-11-06T00:00:00	6	Velocidad del viento	14.5
160894	7	Sololá	701	Sololá	2	El tablón	6	Junio	2023-06-19T00:00:00	2024-11-06T00:00:00	7	Dirección del viento	14.48
160895	7	Sololá	701	Sololá	2	El tablón	6	Junio	2023-06-19T00:00:00	2024-11-06T00:00:00	1	Precipitación	0
160896	7	Sololá	701	Sololá	2	El tablón	6	Junio	2023-06-19T00:00:00	2024-11-06T00:00:00	8	Radiación solar	0
160897	7	Sololá	701	Sololá	2	El tablón	6	Junio	2023-06-19T00:00:00	2024-11-06T01:00:00	2	Temperatura media	14.1
160898	7	Sololá	701	Sololá	2	El tablón	6	Junio	2023-06-19T00:00:00	2024-11-06T01:00:00	4	Temperatura máxima	14.3
160899	7	Sololá	701	Sololá	2	El tablón	6	Junio	2023-06-19T00:00:00	2024-11-06T01:00:00	3	Temperatura mínima	14.1
160900	7	Sololá	701	Sololá	2	El tablón	6	Junio	2023-06-19T00:00:00	2024-11-06T01:00:00	5	Humedad	84
160901	7	Sololá	701	Sololá	2	El tablón	6	Junio	2023-06-19T00:00:00	2024-11-06T01:00:00	6	Velocidad del viento	11.3
160902	7	Sololá	701	Sololá	2	El tablón	6	Junio	2023-06-19T00:00:00	2024-11-06T01:00:00	7	Dirección del viento	11.27
160903	7	Sololá	701	Sololá	2	El tablón	6	Junio	2023-06-19T00:00:00	2024-11-06T01:00:00	1	Precipitación	0
160904	7	Sololá	701	Sololá	2	El tablón	6	Junio	2023-06-19T00:00:00	2024-11-06T01:00:00	8	Radiación solar	0
160905	7	Sololá	701	Sololá	2	El tablón	6	Junio	2023-06-19T00:00:00	2024-11-06T02:00:00	2	Temperatura media	14
160906	7	Sololá	701	Sololá	2	El tablón	6	Junio	2023-06-19T00:00:00	2024-11-06T02:00:00	4	Temperatura máxima	14.1
160907	7	Sololá	701	Sololá	2	El tablón	6	Junio	2023-06-19T00:00:00	2024-11-06T02:00:00	3	Temperatura mínima	13.9
160908	7	Sololá	701	Sololá	2	El tablón	6	Junio	2023-06-19T00:00:00	2024-11-06T02:00:00	5	Humedad	83
160909	7	Sololá	701	Sololá	2	El tablón	6	Junio	2023-06-19T00:00:00	2024-11-06T02:00:00	6	Velocidad del viento	12.9
160910	7	Sololá	701	Sololá	2	El tablón	6	Junio	2023-06-19T00:00:00	2024-11-06T02:00:00	7	Dirección del viento	12.87
160911	7	Sololá	701	Sololá	2	El tablón	6	Junio	2023-06-19T00:00:00	2024-11-06T02:00:00	1	Precipitación	0
160912	7	Sololá	701	Sololá	2	El tablón	6	Junio	2023-06-19T00:00:00	2024-11-06T02:00:00	8	Radiación solar	0
160913	7	Sololá	701	Sololá	2	El tablón	6	Junio	2023-06-19T00:00:00	2024-11-06T03:00:00	2	Temperatura media	14.1
160914	7	Sololá	701	Sololá	2	El tablón	6	Junio	2023-06-19T00:00:00	2024-11-06T03:00:00	4	Temperatura máxima	14.2
160915	7	Sololá	701	Sololá	2	El tablón	6	Junio	2023-06-19T00:00:00	2024-11-06T03:00:00	3	Temperatura mínima	14
160916	7	Sololá	701	Sololá	2	El tablón	6	Junio	2023-06-19T00:00:00	2024-11-06T03:00:00	5	Humedad	81
160917	7	Sololá	701	Sololá	2	El tablón	6	Junio	2023-06-19T00:00:00	2024-11-06T03:00:00	6	Velocidad del viento	11.3
160918	7	Sololá	701	Sololá	2	El tablón	6	Junio	2023-06-19T00:00:00	2024-11-06T03:00:00	7	Dirección del viento	11.27
160919	7	Sololá	701	Sololá	2	El tablón	6	Junio	2023-06-19T00:00:00	2024-11-06T03:00:00	1	Precipitación	0
160920	7	Sololá	701	Sololá	2	El tablón	6	Junio	2023-06-19T00:00:00	2024-11-06T03:00:00	8	Radiación solar	0
160921	7	Sololá	701	Sololá	2	El tablón	6	Junio	2023-06-19T00:00:00	2024-11-06T04:00:00	2	Temperatura media	13.7
160922	7	Sololá	701	Sololá	2	El tablón	6	Junio	2023-06-19T00:00:00	2024-11-06T04:00:00	4	Temperatura máxima	14.2
160923	7	Sololá	701	Sololá	2	El tablón	6	Junio	2023-06-19T00:00:00	2024-11-06T04:00:00	3	Temperatura mínima	13.6
160924	7	Sololá	701	Sololá	2	El tablón	6	Junio	2023-06-19T00:00:00	2024-11-06T04:00:00	5	Humedad	83
160925	7	Sololá	701	Sololá	2	El tablón	6	Junio	2023-06-19T00:00:00	2024-11-06T04:00:00	6	Velocidad del viento	9.7
160926	7	Sololá	701	Sololá	2	El tablón	6	Junio	2023-06-19T00:00:00	2024-11-06T04:00:00	7	Dirección del viento	9.66
160927	7	Sololá	701	Sololá	2	El tablón	6	Junio	2023-06-19T00:00:00	2024-11-06T04:00:00	1	Precipitación	0
160928	7	Sololá	701	Sololá	2	El tablón	6	Junio	2023-06-19T00:00:00	2024-11-06T04:00:00	8	Radiación solar	0
160929	7	Sololá	701	Sololá	2	El tablón	6	Junio	2023-06-19T00:00:00	2024-11-06T05:00:00	2	Temperatura media	13.7
160930	7	Sololá	701	Sololá	2	El tablón	6	Junio	2023-06-19T00:00:00	2024-11-06T05:00:00	4	Temperatura máxima	13.8
160931	7	Sololá	701	Sololá	2	El tablón	6	Junio	2023-06-19T00:00:00	2024-11-06T05:00:00	3	Temperatura mínima	13.7
160932	7	Sololá	701	Sololá	2	El tablón	6	Junio	2023-06-19T00:00:00	2024-11-06T05:00:00	5	Humedad	86
160933	7	Sololá	701	Sololá	2	El tablón	6	Junio	2023-06-19T00:00:00	2024-11-06T05:00:00	6	Velocidad del viento	9.7
160934	7	Sololá	701	Sololá	2	El tablón	6	Junio	2023-06-19T00:00:00	2024-11-06T05:00:00	7	Dirección del viento	9.66
160935	7	Sololá	701	Sololá	2	El tablón	6	Junio	2023-06-19T00:00:00	2024-11-06T05:00:00	1	Precipitación	0
160936	7	Sololá	701	Sololá	2	El tablón	6	Junio	2023-06-19T00:00:00	2024-11-06T05:00:00	8	Radiación solar	0
160937	7	Sololá	701	Sololá	2	El tablón	6	Junio	2023-06-19T00:00:00	2024-11-06T06:00:00	2	Temperatura media	13.7
160938	7	Sololá	701	Sololá	2	El tablón	6	Junio	2023-06-19T00:00:00	2024-11-06T06:00:00	4	Temperatura máxima	13.7
160939	7	Sololá	701	Sololá	2	El tablón	6	Junio	2023-06-19T00:00:00	2024-11-06T06:00:00	3	Temperatura mínima	13.6
160940	7	Sololá	701	Sololá	2	El tablón	6	Junio	2023-06-19T00:00:00	2024-11-06T06:00:00	5	Humedad	87
160941	7	Sololá	701	Sololá	2	El tablón	6	Junio	2023-06-19T00:00:00	2024-11-06T06:00:00	6	Velocidad del viento	8
160942	7	Sololá	701	Sololá	2	El tablón	6	Junio	2023-06-19T00:00:00	2024-11-06T06:00:00	7	Dirección del viento	8.05
160943	7	Sololá	701	Sololá	2	El tablón	6	Junio	2023-06-19T00:00:00	2024-11-06T06:00:00	1	Precipitación	0
160944	7	Sololá	701	Sololá	2	El tablón	6	Junio	2023-06-19T00:00:00	2024-11-06T06:00:00	8	Radiación solar	8
160945	7	Sololá	701	Sololá	2	El tablón	6	Junio	2023-06-19T00:00:00	2024-11-06T07:00:00	2	Temperatura media	15.3
160946	7	Sololá	701	Sololá	2	El tablón	6	Junio	2023-06-19T00:00:00	2024-11-06T07:00:00	4	Temperatura máxima	15.3
160947	7	Sololá	701	Sololá	2	El tablón	6	Junio	2023-06-19T00:00:00	2024-11-06T07:00:00	3	Temperatura mínima	13.7
160948	7	Sololá	701	Sololá	2	El tablón	6	Junio	2023-06-19T00:00:00	2024-11-06T07:00:00	5	Humedad	82
160949	7	Sololá	701	Sololá	2	El tablón	6	Junio	2023-06-19T00:00:00	2024-11-06T07:00:00	6	Velocidad del viento	6.4
160950	7	Sololá	701	Sololá	2	El tablón	6	Junio	2023-06-19T00:00:00	2024-11-06T07:00:00	7	Dirección del viento	6.44
160951	7	Sololá	701	Sololá	2	El tablón	6	Junio	2023-06-19T00:00:00	2024-11-06T07:00:00	1	Precipitación	0
160952	7	Sololá	701	Sololá	2	El tablón	6	Junio	2023-06-19T00:00:00	2024-11-06T07:00:00	8	Radiación solar	130
160953	7	Sololá	701	Sololá	2	El tablón	6	Junio	2023-06-19T00:00:00	2024-11-06T08:00:00	2	Temperatura media	16.7
160954	7	Sololá	701	Sololá	2	El tablón	6	Junio	2023-06-19T00:00:00	2024-11-06T08:00:00	4	Temperatura máxima	16.8
160955	7	Sololá	701	Sololá	2	El tablón	6	Junio	2023-06-19T00:00:00	2024-11-06T08:00:00	3	Temperatura mínima	15.3
160956	7	Sololá	701	Sololá	2	El tablón	6	Junio	2023-06-19T00:00:00	2024-11-06T08:00:00	5	Humedad	75
160957	7	Sololá	701	Sololá	2	El tablón	6	Junio	2023-06-19T00:00:00	2024-11-06T08:00:00	6	Velocidad del viento	8
160958	7	Sololá	701	Sololá	2	El tablón	6	Junio	2023-06-19T00:00:00	2024-11-06T08:00:00	7	Dirección del viento	8.05
160959	7	Sololá	701	Sololá	2	El tablón	6	Junio	2023-06-19T00:00:00	2024-11-06T08:00:00	1	Precipitación	0
160960	7	Sololá	701	Sololá	2	El tablón	6	Junio	2023-06-19T00:00:00	2024-11-06T08:00:00	8	Radiación solar	352
160961	7	Sololá	701	Sololá	2	El tablón	6	Junio	2023-06-19T00:00:00	2024-11-06T09:00:00	2	Temperatura media	18.2
160962	7	Sololá	701	Sololá	2	El tablón	6	Junio	2023-06-19T00:00:00	2024-11-06T09:00:00	4	Temperatura máxima	18.2
160963	7	Sololá	701	Sololá	2	El tablón	6	Junio	2023-06-19T00:00:00	2024-11-06T09:00:00	3	Temperatura mínima	16.6
160964	7	Sololá	701	Sololá	2	El tablón	6	Junio	2023-06-19T00:00:00	2024-11-06T09:00:00	5	Humedad	72
160965	7	Sololá	701	Sololá	2	El tablón	6	Junio	2023-06-19T00:00:00	2024-11-06T09:00:00	6	Velocidad del viento	8
160966	7	Sololá	701	Sololá	2	El tablón	6	Junio	2023-06-19T00:00:00	2024-11-06T09:00:00	7	Dirección del viento	8.05
160967	7	Sololá	701	Sololá	2	El tablón	6	Junio	2023-06-19T00:00:00	2024-11-06T09:00:00	1	Precipitación	0
160968	7	Sololá	701	Sololá	2	El tablón	6	Junio	2023-06-19T00:00:00	2024-11-06T09:00:00	8	Radiación solar	548
160969	7	Sololá	701	Sololá	2	El tablón	6	Junio	2023-06-19T00:00:00	2024-11-06T10:00:00	2	Temperatura media	19.2
160970	7	Sololá	701	Sololá	2	El tablón	6	Junio	2023-06-19T00:00:00	2024-11-06T10:00:00	4	Temperatura máxima	19.2
160971	7	Sololá	701	Sololá	2	El tablón	6	Junio	2023-06-19T00:00:00	2024-11-06T10:00:00	3	Temperatura mínima	17.6
160972	7	Sololá	701	Sololá	2	El tablón	6	Junio	2023-06-19T00:00:00	2024-11-06T10:00:00	5	Humedad	69
160973	7	Sololá	701	Sololá	2	El tablón	6	Junio	2023-06-19T00:00:00	2024-11-06T10:00:00	6	Velocidad del viento	9.7
160974	7	Sololá	701	Sololá	2	El tablón	6	Junio	2023-06-19T00:00:00	2024-11-06T10:00:00	7	Dirección del viento	9.66
160975	7	Sololá	701	Sololá	2	El tablón	6	Junio	2023-06-19T00:00:00	2024-11-06T10:00:00	1	Precipitación	0
160976	7	Sololá	701	Sololá	2	El tablón	6	Junio	2023-06-19T00:00:00	2024-11-06T10:00:00	8	Radiación solar	691
160977	7	Sololá	701	Sololá	2	El tablón	6	Junio	2023-06-19T00:00:00	2024-11-06T11:00:00	2	Temperatura media	19.4
160978	7	Sololá	701	Sololá	2	El tablón	6	Junio	2023-06-19T00:00:00	2024-11-06T11:00:00	4	Temperatura máxima	19.4
160979	7	Sololá	701	Sololá	2	El tablón	6	Junio	2023-06-19T00:00:00	2024-11-06T11:00:00	3	Temperatura mínima	18.2
160980	7	Sololá	701	Sololá	2	El tablón	6	Junio	2023-06-19T00:00:00	2024-11-06T11:00:00	5	Humedad	68
160981	7	Sololá	701	Sololá	2	El tablón	6	Junio	2023-06-19T00:00:00	2024-11-06T11:00:00	6	Velocidad del viento	9.7
160982	7	Sololá	701	Sololá	2	El tablón	6	Junio	2023-06-19T00:00:00	2024-11-06T11:00:00	7	Dirección del viento	9.66
160983	7	Sololá	701	Sololá	2	El tablón	6	Junio	2023-06-19T00:00:00	2024-11-06T11:00:00	1	Precipitación	0
160984	7	Sololá	701	Sololá	2	El tablón	6	Junio	2023-06-19T00:00:00	2024-11-06T11:00:00	8	Radiación solar	768
160985	7	Sololá	701	Sololá	2	El tablón	6	Junio	2023-06-19T00:00:00	2024-11-06T12:00:00	2	Temperatura media	19.5
160986	7	Sololá	701	Sololá	2	El tablón	6	Junio	2023-06-19T00:00:00	2024-11-06T12:00:00	4	Temperatura máxima	19.7
160987	7	Sololá	701	Sololá	2	El tablón	6	Junio	2023-06-19T00:00:00	2024-11-06T12:00:00	3	Temperatura mínima	19.1
160988	7	Sololá	701	Sololá	2	El tablón	6	Junio	2023-06-19T00:00:00	2024-11-06T12:00:00	5	Humedad	65
160989	7	Sololá	701	Sololá	2	El tablón	6	Junio	2023-06-19T00:00:00	2024-11-06T12:00:00	6	Velocidad del viento	11.3
160990	7	Sololá	701	Sololá	2	El tablón	6	Junio	2023-06-19T00:00:00	2024-11-06T12:00:00	7	Dirección del viento	11.27
160991	7	Sololá	701	Sololá	2	El tablón	6	Junio	2023-06-19T00:00:00	2024-11-06T12:00:00	1	Precipitación	0
160992	7	Sololá	701	Sololá	2	El tablón	6	Junio	2023-06-19T00:00:00	2024-11-06T12:00:00	8	Radiación solar	558
160993	7	Sololá	701	Sololá	2	El tablón	6	Junio	2023-06-19T00:00:00	2024-11-06T13:00:00	2	Temperatura media	18.2
160994	7	Sololá	701	Sololá	2	El tablón	6	Junio	2023-06-19T00:00:00	2024-11-06T13:00:00	4	Temperatura máxima	19.5
160995	7	Sololá	701	Sololá	2	El tablón	6	Junio	2023-06-19T00:00:00	2024-11-06T13:00:00	3	Temperatura mínima	17.2
160996	7	Sololá	701	Sololá	2	El tablón	6	Junio	2023-06-19T00:00:00	2024-11-06T13:00:00	5	Humedad	75
160997	7	Sololá	701	Sololá	2	El tablón	6	Junio	2023-06-19T00:00:00	2024-11-06T13:00:00	6	Velocidad del viento	8
160998	7	Sololá	701	Sololá	2	El tablón	6	Junio	2023-06-19T00:00:00	2024-11-06T13:00:00	7	Dirección del viento	8.05
160999	7	Sololá	701	Sololá	2	El tablón	6	Junio	2023-06-19T00:00:00	2024-11-06T13:00:00	1	Precipitación	0
161000	7	Sololá	701	Sololá	2	El tablón	6	Junio	2023-06-19T00:00:00	2024-11-06T13:00:00	8	Radiación solar	185
161001	7	Sololá	701	Sololá	2	El tablón	6	Junio	2023-06-19T00:00:00	2024-11-06T14:00:00	2	Temperatura media	19.2
161002	7	Sololá	701	Sololá	2	El tablón	6	Junio	2023-06-19T00:00:00	2024-11-06T14:00:00	4	Temperatura máxima	19.3
161003	7	Sololá	701	Sololá	2	El tablón	6	Junio	2023-06-19T00:00:00	2024-11-06T14:00:00	3	Temperatura mínima	18.2
161004	7	Sololá	701	Sololá	2	El tablón	6	Junio	2023-06-19T00:00:00	2024-11-06T14:00:00	5	Humedad	82
161005	7	Sololá	701	Sololá	2	El tablón	6	Junio	2023-06-19T00:00:00	2024-11-06T14:00:00	6	Velocidad del viento	6.4
161006	7	Sololá	701	Sololá	2	El tablón	6	Junio	2023-06-19T00:00:00	2024-11-06T14:00:00	7	Dirección del viento	6.44
161007	7	Sololá	701	Sololá	2	El tablón	6	Junio	2023-06-19T00:00:00	2024-11-06T14:00:00	1	Precipitación	0
161008	7	Sololá	701	Sololá	2	El tablón	6	Junio	2023-06-19T00:00:00	2024-11-06T14:00:00	8	Radiación solar	467
161009	7	Sololá	701	Sololá	2	El tablón	6	Junio	2023-06-19T00:00:00	2024-11-06T15:00:00	2	Temperatura media	19.5
161010	7	Sololá	701	Sololá	2	El tablón	6	Junio	2023-06-19T00:00:00	2024-11-06T15:00:00	4	Temperatura máxima	19.5
161011	7	Sololá	701	Sololá	2	El tablón	6	Junio	2023-06-19T00:00:00	2024-11-06T15:00:00	3	Temperatura mínima	18.7
161012	7	Sololá	701	Sololá	2	El tablón	6	Junio	2023-06-19T00:00:00	2024-11-06T15:00:00	5	Humedad	79
161013	7	Sololá	701	Sololá	2	El tablón	6	Junio	2023-06-19T00:00:00	2024-11-06T15:00:00	6	Velocidad del viento	4.8
161014	7	Sololá	701	Sololá	2	El tablón	6	Junio	2023-06-19T00:00:00	2024-11-06T15:00:00	7	Dirección del viento	4.83
161015	7	Sololá	701	Sololá	2	El tablón	6	Junio	2023-06-19T00:00:00	2024-11-06T15:00:00	1	Precipitación	0
161016	7	Sololá	701	Sololá	2	El tablón	6	Junio	2023-06-19T00:00:00	2024-11-06T15:00:00	8	Radiación solar	473
161017	7	Sololá	701	Sololá	2	El tablón	6	Junio	2023-06-19T00:00:00	2024-11-06T16:00:00	2	Temperatura media	18.2
161018	7	Sololá	701	Sololá	2	El tablón	6	Junio	2023-06-19T00:00:00	2024-11-06T16:00:00	4	Temperatura máxima	20.1
161019	7	Sololá	701	Sololá	2	El tablón	6	Junio	2023-06-19T00:00:00	2024-11-06T16:00:00	3	Temperatura mínima	18.2
161020	7	Sololá	701	Sololá	2	El tablón	6	Junio	2023-06-19T00:00:00	2024-11-06T16:00:00	5	Humedad	85
161021	7	Sololá	701	Sololá	2	El tablón	6	Junio	2023-06-19T00:00:00	2024-11-06T16:00:00	6	Velocidad del viento	6.4
161022	7	Sololá	701	Sololá	2	El tablón	6	Junio	2023-06-19T00:00:00	2024-11-06T16:00:00	7	Dirección del viento	6.44
161023	7	Sololá	701	Sololá	2	El tablón	6	Junio	2023-06-19T00:00:00	2024-11-06T16:00:00	1	Precipitación	0
161024	7	Sololá	701	Sololá	2	El tablón	6	Junio	2023-06-19T00:00:00	2024-11-06T16:00:00	8	Radiación solar	401
161025	7	Sololá	701	Sololá	2	El tablón	6	Junio	2023-06-19T00:00:00	2024-11-06T17:00:00	2	Temperatura media	17.6
161026	7	Sololá	701	Sololá	2	El tablón	6	Junio	2023-06-19T00:00:00	2024-11-06T17:00:00	4	Temperatura máxima	18.8
161027	7	Sololá	701	Sololá	2	El tablón	6	Junio	2023-06-19T00:00:00	2024-11-06T17:00:00	3	Temperatura mínima	17.6
161028	7	Sololá	701	Sololá	2	El tablón	6	Junio	2023-06-19T00:00:00	2024-11-06T17:00:00	5	Humedad	92
161029	7	Sololá	701	Sololá	2	El tablón	6	Junio	2023-06-19T00:00:00	2024-11-06T17:00:00	6	Velocidad del viento	3.2
161030	7	Sololá	701	Sololá	2	El tablón	6	Junio	2023-06-19T00:00:00	2024-11-06T17:00:00	7	Dirección del viento	3.22
161031	7	Sololá	701	Sololá	2	El tablón	6	Junio	2023-06-19T00:00:00	2024-11-06T17:00:00	1	Precipitación	0
161032	7	Sololá	701	Sololá	2	El tablón	6	Junio	2023-06-19T00:00:00	2024-11-06T17:00:00	8	Radiación solar	114
161033	7	Sololá	701	Sololá	2	El tablón	6	Junio	2023-06-19T00:00:00	2024-11-06T18:00:00	2	Temperatura media	17.1
161034	7	Sololá	701	Sololá	2	El tablón	6	Junio	2023-06-19T00:00:00	2024-11-06T18:00:00	4	Temperatura máxima	18
161035	7	Sololá	701	Sololá	2	El tablón	6	Junio	2023-06-19T00:00:00	2024-11-06T18:00:00	3	Temperatura mínima	17.1
161036	7	Sololá	701	Sololá	2	El tablón	6	Junio	2023-06-19T00:00:00	2024-11-06T18:00:00	5	Humedad	92
161037	7	Sololá	701	Sololá	2	El tablón	6	Junio	2023-06-19T00:00:00	2024-11-06T18:00:00	6	Velocidad del viento	1.6
161038	7	Sololá	701	Sololá	2	El tablón	6	Junio	2023-06-19T00:00:00	2024-11-06T18:00:00	7	Dirección del viento	1.61
161039	7	Sololá	701	Sololá	2	El tablón	6	Junio	2023-06-19T00:00:00	2024-11-06T18:00:00	1	Precipitación	0
161040	7	Sololá	701	Sololá	2	El tablón	6	Junio	2023-06-19T00:00:00	2024-11-06T18:00:00	8	Radiación solar	59
161041	7	Sololá	701	Sololá	2	El tablón	6	Junio	2023-06-19T00:00:00	2024-11-06T19:00:00	2	Temperatura media	16.7
161042	7	Sololá	701	Sololá	2	El tablón	6	Junio	2023-06-19T00:00:00	2024-11-06T19:00:00	4	Temperatura máxima	17.1
161043	7	Sololá	701	Sololá	2	El tablón	6	Junio	2023-06-19T00:00:00	2024-11-06T19:00:00	3	Temperatura mínima	16.7
161044	7	Sololá	701	Sololá	2	El tablón	6	Junio	2023-06-19T00:00:00	2024-11-06T19:00:00	5	Humedad	93
161045	7	Sololá	701	Sololá	2	El tablón	6	Junio	2023-06-19T00:00:00	2024-11-06T19:00:00	6	Velocidad del viento	1.6
161046	7	Sololá	701	Sololá	2	El tablón	6	Junio	2023-06-19T00:00:00	2024-11-06T19:00:00	7	Dirección del viento	1.61
161047	7	Sololá	701	Sololá	2	El tablón	6	Junio	2023-06-19T00:00:00	2024-11-06T19:00:00	1	Precipitación	0
161048	7	Sololá	701	Sololá	2	El tablón	6	Junio	2023-06-19T00:00:00	2024-11-06T19:00:00	8	Radiación solar	0
161049	7	Sololá	701	Sololá	2	El tablón	6	Junio	2023-06-19T00:00:00	2024-11-06T20:00:00	2	Temperatura media	15.9
161050	7	Sololá	701	Sololá	2	El tablón	6	Junio	2023-06-19T00:00:00	2024-11-06T20:00:00	4	Temperatura máxima	16.7
161051	7	Sololá	701	Sololá	2	El tablón	6	Junio	2023-06-19T00:00:00	2024-11-06T20:00:00	3	Temperatura mínima	15.9
161052	7	Sololá	701	Sololá	2	El tablón	6	Junio	2023-06-19T00:00:00	2024-11-06T20:00:00	5	Humedad	94
161053	7	Sololá	701	Sololá	2	El tablón	6	Junio	2023-06-19T00:00:00	2024-11-06T20:00:00	6	Velocidad del viento	1.6
161054	7	Sololá	701	Sololá	2	El tablón	6	Junio	2023-06-19T00:00:00	2024-11-06T20:00:00	7	Dirección del viento	1.61
161055	7	Sololá	701	Sololá	2	El tablón	6	Junio	2023-06-19T00:00:00	2024-11-06T20:00:00	1	Precipitación	0
161056	7	Sololá	701	Sololá	2	El tablón	6	Junio	2023-06-19T00:00:00	2024-11-06T20:00:00	8	Radiación solar	0
161057	7	Sololá	701	Sololá	2	El tablón	6	Junio	2023-06-19T00:00:00	2024-11-06T21:00:00	2	Temperatura media	15.7
161058	7	Sololá	701	Sololá	2	El tablón	6	Junio	2023-06-19T00:00:00	2024-11-06T21:00:00	4	Temperatura máxima	16
161059	7	Sololá	701	Sololá	2	El tablón	6	Junio	2023-06-19T00:00:00	2024-11-06T21:00:00	3	Temperatura mínima	15.7
161060	7	Sololá	701	Sololá	2	El tablón	6	Junio	2023-06-19T00:00:00	2024-11-06T21:00:00	5	Humedad	94
161061	7	Sololá	701	Sololá	2	El tablón	6	Junio	2023-06-19T00:00:00	2024-11-06T21:00:00	6	Velocidad del viento	0
161062	7	Sololá	701	Sololá	2	El tablón	6	Junio	2023-06-19T00:00:00	2024-11-06T21:00:00	7	Dirección del viento	0
161063	7	Sololá	701	Sololá	2	El tablón	6	Junio	2023-06-19T00:00:00	2024-11-06T21:00:00	1	Precipitación	0
161064	7	Sololá	701	Sololá	2	El tablón	6	Junio	2023-06-19T00:00:00	2024-11-06T21:00:00	8	Radiación solar	0
161065	7	Sololá	701	Sololá	2	El tablón	6	Junio	2023-06-19T00:00:00	2024-11-06T22:00:00	2	Temperatura media	15.4
161066	7	Sololá	701	Sololá	2	El tablón	6	Junio	2023-06-19T00:00:00	2024-11-06T22:00:00	4	Temperatura máxima	15.7
161067	7	Sololá	701	Sololá	2	El tablón	6	Junio	2023-06-19T00:00:00	2024-11-06T22:00:00	3	Temperatura mínima	15.4
161068	7	Sololá	701	Sololá	2	El tablón	6	Junio	2023-06-19T00:00:00	2024-11-06T22:00:00	5	Humedad	94
161069	7	Sololá	701	Sololá	2	El tablón	6	Junio	2023-06-19T00:00:00	2024-11-06T22:00:00	6	Velocidad del viento	0
161070	7	Sololá	701	Sololá	2	El tablón	6	Junio	2023-06-19T00:00:00	2024-11-06T22:00:00	7	Dirección del viento	0
161071	7	Sololá	701	Sololá	2	El tablón	6	Junio	2023-06-19T00:00:00	2024-11-06T22:00:00	1	Precipitación	0
161072	7	Sololá	701	Sololá	2	El tablón	6	Junio	2023-06-19T00:00:00	2024-11-06T22:00:00	8	Radiación solar	0
161073	7	Sololá	701	Sololá	2	El tablón	6	Junio	2023-06-19T00:00:00	2024-11-06T23:00:00	2	Temperatura media	14.8
161074	7	Sololá	701	Sololá	2	El tablón	6	Junio	2023-06-19T00:00:00	2024-11-06T23:00:00	4	Temperatura máxima	15.4
161075	7	Sololá	701	Sololá	2	El tablón	6	Junio	2023-06-19T00:00:00	2024-11-06T23:00:00	3	Temperatura mínima	14.7
161076	7	Sololá	701	Sololá	2	El tablón	6	Junio	2023-06-19T00:00:00	2024-11-06T23:00:00	5	Humedad	94
161077	7	Sololá	701	Sololá	2	El tablón	6	Junio	2023-06-19T00:00:00	2024-11-06T23:00:00	6	Velocidad del viento	1.6
161078	7	Sololá	701	Sololá	2	El tablón	6	Junio	2023-06-19T00:00:00	2024-11-06T23:00:00	7	Dirección del viento	1.61
161079	7	Sololá	701	Sololá	2	El tablón	6	Junio	2023-06-19T00:00:00	2024-11-06T23:00:00	1	Precipitación	0
161080	7	Sololá	701	Sololá	2	El tablón	6	Junio	2023-06-19T00:00:00	2024-11-06T23:00:00	8	Radiación solar	0
161081	7	Sololá	701	Sololá	2	El tablón	6	Junio	2023-06-20T00:00:00	2024-11-06T00:00:00	2	Temperatura media	14.9
161082	7	Sololá	701	Sololá	2	El tablón	6	Junio	2023-06-20T00:00:00	2024-11-06T00:00:00	4	Temperatura máxima	14.9
161083	7	Sololá	701	Sololá	2	El tablón	6	Junio	2023-06-20T00:00:00	2024-11-06T00:00:00	3	Temperatura mínima	14.7
161084	7	Sololá	701	Sololá	2	El tablón	6	Junio	2023-06-20T00:00:00	2024-11-06T00:00:00	5	Humedad	94
161085	7	Sololá	701	Sololá	2	El tablón	6	Junio	2023-06-20T00:00:00	2024-11-06T00:00:00	6	Velocidad del viento	0
161086	7	Sololá	701	Sololá	2	El tablón	6	Junio	2023-06-20T00:00:00	2024-11-06T00:00:00	7	Dirección del viento	0
161087	7	Sololá	701	Sololá	2	El tablón	6	Junio	2023-06-20T00:00:00	2024-11-06T00:00:00	1	Precipitación	0
161088	7	Sololá	701	Sololá	2	El tablón	6	Junio	2023-06-20T00:00:00	2024-11-06T00:00:00	8	Radiación solar	0
161089	7	Sololá	701	Sololá	2	El tablón	6	Junio	2023-06-20T00:00:00	2024-11-06T01:00:00	2	Temperatura media	14.4
161090	7	Sololá	701	Sololá	2	El tablón	6	Junio	2023-06-20T00:00:00	2024-11-06T01:00:00	4	Temperatura máxima	14.9
161091	7	Sololá	701	Sololá	2	El tablón	6	Junio	2023-06-20T00:00:00	2024-11-06T01:00:00	3	Temperatura mínima	14.4
161092	7	Sololá	701	Sololá	2	El tablón	6	Junio	2023-06-20T00:00:00	2024-11-06T01:00:00	5	Humedad	94
161093	7	Sololá	701	Sololá	2	El tablón	6	Junio	2023-06-20T00:00:00	2024-11-06T01:00:00	6	Velocidad del viento	0
161094	7	Sololá	701	Sololá	2	El tablón	6	Junio	2023-06-20T00:00:00	2024-11-06T01:00:00	7	Dirección del viento	0
161095	7	Sololá	701	Sololá	2	El tablón	6	Junio	2023-06-20T00:00:00	2024-11-06T01:00:00	1	Precipitación	0
161096	7	Sololá	701	Sololá	2	El tablón	6	Junio	2023-06-20T00:00:00	2024-11-06T01:00:00	8	Radiación solar	0
161097	7	Sololá	701	Sololá	2	El tablón	6	Junio	2023-06-20T00:00:00	2024-11-06T02:00:00	2	Temperatura media	14.3
161098	7	Sololá	701	Sololá	2	El tablón	6	Junio	2023-06-20T00:00:00	2024-11-06T02:00:00	4	Temperatura máxima	14.4
161099	7	Sololá	701	Sololá	2	El tablón	6	Junio	2023-06-20T00:00:00	2024-11-06T02:00:00	3	Temperatura mínima	14.3
161100	7	Sololá	701	Sololá	2	El tablón	6	Junio	2023-06-20T00:00:00	2024-11-06T02:00:00	5	Humedad	93
161101	7	Sololá	701	Sololá	2	El tablón	6	Junio	2023-06-20T00:00:00	2024-11-06T02:00:00	6	Velocidad del viento	0
161102	7	Sololá	701	Sololá	2	El tablón	6	Junio	2023-06-20T00:00:00	2024-11-06T02:00:00	7	Dirección del viento	0
161103	7	Sololá	701	Sololá	2	El tablón	6	Junio	2023-06-20T00:00:00	2024-11-06T02:00:00	1	Precipitación	0
161104	7	Sololá	701	Sololá	2	El tablón	6	Junio	2023-06-20T00:00:00	2024-11-06T02:00:00	8	Radiación solar	0
161105	7	Sololá	701	Sololá	2	El tablón	6	Junio	2023-06-20T00:00:00	2024-11-06T03:00:00	2	Temperatura media	14.2
161106	7	Sololá	701	Sololá	2	El tablón	6	Junio	2023-06-20T00:00:00	2024-11-06T03:00:00	4	Temperatura máxima	14.4
161107	7	Sololá	701	Sololá	2	El tablón	6	Junio	2023-06-20T00:00:00	2024-11-06T03:00:00	3	Temperatura mínima	14.2
161108	7	Sololá	701	Sololá	2	El tablón	6	Junio	2023-06-20T00:00:00	2024-11-06T03:00:00	5	Humedad	93
161109	7	Sololá	701	Sololá	2	El tablón	6	Junio	2023-06-20T00:00:00	2024-11-06T03:00:00	6	Velocidad del viento	0
161110	7	Sololá	701	Sololá	2	El tablón	6	Junio	2023-06-20T00:00:00	2024-11-06T03:00:00	7	Dirección del viento	0
161111	7	Sololá	701	Sololá	2	El tablón	6	Junio	2023-06-20T00:00:00	2024-11-06T03:00:00	1	Precipitación	0
161112	7	Sololá	701	Sololá	2	El tablón	6	Junio	2023-06-20T00:00:00	2024-11-06T03:00:00	8	Radiación solar	0
161113	7	Sololá	701	Sololá	2	El tablón	6	Junio	2023-06-20T00:00:00	2024-11-06T04:00:00	2	Temperatura media	13.9
161114	7	Sololá	701	Sololá	2	El tablón	6	Junio	2023-06-20T00:00:00	2024-11-06T04:00:00	4	Temperatura máxima	14.2
161115	7	Sololá	701	Sololá	2	El tablón	6	Junio	2023-06-20T00:00:00	2024-11-06T04:00:00	3	Temperatura mínima	13.9
161116	7	Sololá	701	Sololá	2	El tablón	6	Junio	2023-06-20T00:00:00	2024-11-06T04:00:00	5	Humedad	94
161117	7	Sololá	701	Sololá	2	El tablón	6	Junio	2023-06-20T00:00:00	2024-11-06T04:00:00	6	Velocidad del viento	0
161118	7	Sololá	701	Sololá	2	El tablón	6	Junio	2023-06-20T00:00:00	2024-11-06T04:00:00	7	Dirección del viento	0
161119	7	Sololá	701	Sololá	2	El tablón	6	Junio	2023-06-20T00:00:00	2024-11-06T04:00:00	1	Precipitación	0
161120	7	Sololá	701	Sololá	2	El tablón	6	Junio	2023-06-20T00:00:00	2024-11-06T04:00:00	8	Radiación solar	0
161121	7	Sololá	701	Sololá	2	El tablón	6	Junio	2023-06-20T00:00:00	2024-11-06T05:00:00	2	Temperatura media	13.7
161122	7	Sololá	701	Sololá	2	El tablón	6	Junio	2023-06-20T00:00:00	2024-11-06T05:00:00	4	Temperatura máxima	13.9
161123	7	Sololá	701	Sololá	2	El tablón	6	Junio	2023-06-20T00:00:00	2024-11-06T05:00:00	3	Temperatura mínima	13.6
161124	7	Sololá	701	Sololá	2	El tablón	6	Junio	2023-06-20T00:00:00	2024-11-06T05:00:00	5	Humedad	94
161125	7	Sololá	701	Sololá	2	El tablón	6	Junio	2023-06-20T00:00:00	2024-11-06T05:00:00	6	Velocidad del viento	0
161126	7	Sololá	701	Sololá	2	El tablón	6	Junio	2023-06-20T00:00:00	2024-11-06T05:00:00	7	Dirección del viento	0
161127	7	Sololá	701	Sololá	2	El tablón	6	Junio	2023-06-20T00:00:00	2024-11-06T05:00:00	1	Precipitación	0
161128	7	Sololá	701	Sololá	2	El tablón	6	Junio	2023-06-20T00:00:00	2024-11-06T05:00:00	8	Radiación solar	0
161129	7	Sololá	701	Sololá	2	El tablón	6	Junio	2023-06-20T00:00:00	2024-11-06T06:00:00	2	Temperatura media	13.2
161130	7	Sololá	701	Sololá	2	El tablón	6	Junio	2023-06-20T00:00:00	2024-11-06T06:00:00	4	Temperatura máxima	13.7
161131	7	Sololá	701	Sololá	2	El tablón	6	Junio	2023-06-20T00:00:00	2024-11-06T06:00:00	3	Temperatura mínima	13.2
161132	7	Sololá	701	Sololá	2	El tablón	6	Junio	2023-06-20T00:00:00	2024-11-06T06:00:00	5	Humedad	94
161133	7	Sololá	701	Sololá	2	El tablón	6	Junio	2023-06-20T00:00:00	2024-11-06T06:00:00	6	Velocidad del viento	0
161134	7	Sololá	701	Sololá	2	El tablón	6	Junio	2023-06-20T00:00:00	2024-11-06T06:00:00	7	Dirección del viento	0
161135	7	Sololá	701	Sololá	2	El tablón	6	Junio	2023-06-20T00:00:00	2024-11-06T06:00:00	1	Precipitación	0
161136	7	Sololá	701	Sololá	2	El tablón	6	Junio	2023-06-20T00:00:00	2024-11-06T06:00:00	8	Radiación solar	4
161137	7	Sololá	701	Sololá	2	El tablón	6	Junio	2023-06-20T00:00:00	2024-11-06T07:00:00	2	Temperatura media	14.5
161138	7	Sololá	701	Sololá	2	El tablón	6	Junio	2023-06-20T00:00:00	2024-11-06T07:00:00	4	Temperatura máxima	14.5
161139	7	Sololá	701	Sololá	2	El tablón	6	Junio	2023-06-20T00:00:00	2024-11-06T07:00:00	3	Temperatura mínima	13.2
161140	7	Sololá	701	Sololá	2	El tablón	6	Junio	2023-06-20T00:00:00	2024-11-06T07:00:00	5	Humedad	94
161141	7	Sololá	701	Sololá	2	El tablón	6	Junio	2023-06-20T00:00:00	2024-11-06T07:00:00	6	Velocidad del viento	0
161142	7	Sololá	701	Sololá	2	El tablón	6	Junio	2023-06-20T00:00:00	2024-11-06T07:00:00	7	Dirección del viento	0
161143	7	Sololá	701	Sololá	2	El tablón	6	Junio	2023-06-20T00:00:00	2024-11-06T07:00:00	1	Precipitación	0
161144	7	Sololá	701	Sololá	2	El tablón	6	Junio	2023-06-20T00:00:00	2024-11-06T07:00:00	8	Radiación solar	110
161145	7	Sololá	701	Sololá	2	El tablón	6	Junio	2023-06-20T00:00:00	2024-11-06T08:00:00	2	Temperatura media	17.2
161146	7	Sololá	701	Sololá	2	El tablón	6	Junio	2023-06-20T00:00:00	2024-11-06T08:00:00	4	Temperatura máxima	17.2
161147	7	Sololá	701	Sololá	2	El tablón	6	Junio	2023-06-20T00:00:00	2024-11-06T08:00:00	3	Temperatura mínima	14.5
161148	7	Sololá	701	Sololá	2	El tablón	6	Junio	2023-06-20T00:00:00	2024-11-06T08:00:00	5	Humedad	88
161149	7	Sololá	701	Sololá	2	El tablón	6	Junio	2023-06-20T00:00:00	2024-11-06T08:00:00	6	Velocidad del viento	1.6
161150	7	Sololá	701	Sololá	2	El tablón	6	Junio	2023-06-20T00:00:00	2024-11-06T08:00:00	7	Dirección del viento	1.61
161151	7	Sololá	701	Sololá	2	El tablón	6	Junio	2023-06-20T00:00:00	2024-11-06T08:00:00	1	Precipitación	0
161152	7	Sololá	701	Sololá	2	El tablón	6	Junio	2023-06-20T00:00:00	2024-11-06T08:00:00	8	Radiación solar	287
161153	7	Sololá	701	Sololá	2	El tablón	6	Junio	2023-06-20T00:00:00	2024-11-06T09:00:00	2	Temperatura media	20
161154	7	Sololá	701	Sololá	2	El tablón	6	Junio	2023-06-20T00:00:00	2024-11-06T09:00:00	4	Temperatura máxima	20
161155	7	Sololá	701	Sololá	2	El tablón	6	Junio	2023-06-20T00:00:00	2024-11-06T09:00:00	3	Temperatura mínima	17.2
161156	7	Sololá	701	Sololá	2	El tablón	6	Junio	2023-06-20T00:00:00	2024-11-06T09:00:00	5	Humedad	68
161157	7	Sololá	701	Sololá	2	El tablón	6	Junio	2023-06-20T00:00:00	2024-11-06T09:00:00	6	Velocidad del viento	4.8
161158	7	Sololá	701	Sololá	2	El tablón	6	Junio	2023-06-20T00:00:00	2024-11-06T09:00:00	7	Dirección del viento	4.83
161159	7	Sololá	701	Sololá	2	El tablón	6	Junio	2023-06-20T00:00:00	2024-11-06T09:00:00	1	Precipitación	0
161160	7	Sololá	701	Sololá	2	El tablón	6	Junio	2023-06-20T00:00:00	2024-11-06T09:00:00	8	Radiación solar	528
161161	7	Sololá	701	Sololá	2	El tablón	6	Junio	2023-06-20T00:00:00	2024-11-06T10:00:00	2	Temperatura media	20.9
161162	7	Sololá	701	Sololá	2	El tablón	6	Junio	2023-06-20T00:00:00	2024-11-06T10:00:00	4	Temperatura máxima	21
161163	7	Sololá	701	Sololá	2	El tablón	6	Junio	2023-06-20T00:00:00	2024-11-06T10:00:00	3	Temperatura mínima	19.9
161164	7	Sololá	701	Sololá	2	El tablón	6	Junio	2023-06-20T00:00:00	2024-11-06T10:00:00	5	Humedad	61
161165	7	Sololá	701	Sololá	2	El tablón	6	Junio	2023-06-20T00:00:00	2024-11-06T10:00:00	6	Velocidad del viento	8
161166	7	Sololá	701	Sololá	2	El tablón	6	Junio	2023-06-20T00:00:00	2024-11-06T10:00:00	7	Dirección del viento	8.05
161167	7	Sololá	701	Sololá	2	El tablón	6	Junio	2023-06-20T00:00:00	2024-11-06T10:00:00	1	Precipitación	0
161168	7	Sololá	701	Sololá	2	El tablón	6	Junio	2023-06-20T00:00:00	2024-11-06T10:00:00	8	Radiación solar	755
161169	7	Sololá	701	Sololá	2	El tablón	6	Junio	2023-06-20T00:00:00	2024-11-06T11:00:00	2	Temperatura media	21.4
161170	7	Sololá	701	Sololá	2	El tablón	6	Junio	2023-06-20T00:00:00	2024-11-06T11:00:00	4	Temperatura máxima	21.4
161171	7	Sololá	701	Sololá	2	El tablón	6	Junio	2023-06-20T00:00:00	2024-11-06T11:00:00	3	Temperatura mínima	20.6
161172	7	Sololá	701	Sololá	2	El tablón	6	Junio	2023-06-20T00:00:00	2024-11-06T11:00:00	5	Humedad	61
161173	7	Sololá	701	Sololá	2	El tablón	6	Junio	2023-06-20T00:00:00	2024-11-06T11:00:00	6	Velocidad del viento	6.4
161174	7	Sololá	701	Sololá	2	El tablón	6	Junio	2023-06-20T00:00:00	2024-11-06T11:00:00	7	Dirección del viento	6.44
161175	7	Sololá	701	Sololá	2	El tablón	6	Junio	2023-06-20T00:00:00	2024-11-06T11:00:00	1	Precipitación	0
161176	7	Sololá	701	Sololá	2	El tablón	6	Junio	2023-06-20T00:00:00	2024-11-06T11:00:00	8	Radiación solar	653
161177	7	Sololá	701	Sololá	2	El tablón	6	Junio	2023-06-20T00:00:00	2024-11-06T12:00:00	2	Temperatura media	19.3
161178	7	Sololá	701	Sololá	2	El tablón	6	Junio	2023-06-20T00:00:00	2024-11-06T12:00:00	4	Temperatura máxima	21.6
161179	7	Sololá	701	Sololá	2	El tablón	6	Junio	2023-06-20T00:00:00	2024-11-06T12:00:00	3	Temperatura mínima	19.3
161180	7	Sololá	701	Sololá	2	El tablón	6	Junio	2023-06-20T00:00:00	2024-11-06T12:00:00	5	Humedad	86
161181	7	Sololá	701	Sololá	2	El tablón	6	Junio	2023-06-20T00:00:00	2024-11-06T12:00:00	6	Velocidad del viento	8
161182	7	Sololá	701	Sololá	2	El tablón	6	Junio	2023-06-20T00:00:00	2024-11-06T12:00:00	7	Dirección del viento	8.05
161183	7	Sololá	701	Sololá	2	El tablón	6	Junio	2023-06-20T00:00:00	2024-11-06T12:00:00	1	Precipitación	0
161184	7	Sololá	701	Sololá	2	El tablón	6	Junio	2023-06-20T00:00:00	2024-11-06T12:00:00	8	Radiación solar	875
161185	7	Sololá	701	Sololá	2	El tablón	6	Junio	2023-06-20T00:00:00	2024-11-06T13:00:00	2	Temperatura media	17.9
161186	7	Sololá	701	Sololá	2	El tablón	6	Junio	2023-06-20T00:00:00	2024-11-06T13:00:00	4	Temperatura máxima	19.3
161187	7	Sololá	701	Sololá	2	El tablón	6	Junio	2023-06-20T00:00:00	2024-11-06T13:00:00	3	Temperatura mínima	17.9
161188	7	Sololá	701	Sololá	2	El tablón	6	Junio	2023-06-20T00:00:00	2024-11-06T13:00:00	5	Humedad	89
161189	7	Sololá	701	Sololá	2	El tablón	6	Junio	2023-06-20T00:00:00	2024-11-06T13:00:00	6	Velocidad del viento	8
161190	7	Sololá	701	Sololá	2	El tablón	6	Junio	2023-06-20T00:00:00	2024-11-06T13:00:00	7	Dirección del viento	8.05
161191	7	Sololá	701	Sololá	2	El tablón	6	Junio	2023-06-20T00:00:00	2024-11-06T13:00:00	1	Precipitación	0
161192	7	Sololá	701	Sololá	2	El tablón	6	Junio	2023-06-20T00:00:00	2024-11-06T13:00:00	8	Radiación solar	423
161193	7	Sololá	701	Sololá	2	El tablón	6	Junio	2023-06-20T00:00:00	2024-11-06T14:00:00	2	Temperatura media	19.2
161194	7	Sololá	701	Sololá	2	El tablón	6	Junio	2023-06-20T00:00:00	2024-11-06T14:00:00	4	Temperatura máxima	19.2
161195	7	Sololá	701	Sololá	2	El tablón	6	Junio	2023-06-20T00:00:00	2024-11-06T14:00:00	3	Temperatura mínima	17.6
161196	7	Sololá	701	Sololá	2	El tablón	6	Junio	2023-06-20T00:00:00	2024-11-06T14:00:00	5	Humedad	87
161197	7	Sololá	701	Sololá	2	El tablón	6	Junio	2023-06-20T00:00:00	2024-11-06T14:00:00	6	Velocidad del viento	4.8
161198	7	Sololá	701	Sololá	2	El tablón	6	Junio	2023-06-20T00:00:00	2024-11-06T14:00:00	7	Dirección del viento	4.83
161199	7	Sololá	701	Sololá	2	El tablón	6	Junio	2023-06-20T00:00:00	2024-11-06T14:00:00	1	Precipitación	0
161200	7	Sololá	701	Sololá	2	El tablón	6	Junio	2023-06-20T00:00:00	2024-11-06T14:00:00	8	Radiación solar	529
161201	7	Sololá	701	Sololá	2	El tablón	6	Junio	2023-06-20T00:00:00	2024-11-06T15:00:00	2	Temperatura media	18.1
161202	7	Sololá	701	Sololá	2	El tablón	6	Junio	2023-06-20T00:00:00	2024-11-06T15:00:00	4	Temperatura máxima	21.1
161203	7	Sololá	701	Sololá	2	El tablón	6	Junio	2023-06-20T00:00:00	2024-11-06T15:00:00	3	Temperatura mínima	18.1
161204	7	Sololá	701	Sololá	2	El tablón	6	Junio	2023-06-20T00:00:00	2024-11-06T15:00:00	5	Humedad	89
161205	7	Sololá	701	Sololá	2	El tablón	6	Junio	2023-06-20T00:00:00	2024-11-06T15:00:00	6	Velocidad del viento	6.4
161206	7	Sololá	701	Sololá	2	El tablón	6	Junio	2023-06-20T00:00:00	2024-11-06T15:00:00	7	Dirección del viento	6.44
161207	7	Sololá	701	Sololá	2	El tablón	6	Junio	2023-06-20T00:00:00	2024-11-06T15:00:00	1	Precipitación	0
161208	7	Sololá	701	Sololá	2	El tablón	6	Junio	2023-06-20T00:00:00	2024-11-06T15:00:00	8	Radiación solar	506
161209	7	Sololá	701	Sololá	2	El tablón	6	Junio	2023-06-20T00:00:00	2024-11-06T16:00:00	2	Temperatura media	17.9
161210	7	Sololá	701	Sololá	2	El tablón	6	Junio	2023-06-20T00:00:00	2024-11-06T16:00:00	4	Temperatura máxima	18.4
161211	7	Sololá	701	Sololá	2	El tablón	6	Junio	2023-06-20T00:00:00	2024-11-06T16:00:00	3	Temperatura mínima	17.8
161212	7	Sololá	701	Sololá	2	El tablón	6	Junio	2023-06-20T00:00:00	2024-11-06T16:00:00	5	Humedad	90
161213	7	Sololá	701	Sololá	2	El tablón	6	Junio	2023-06-20T00:00:00	2024-11-06T16:00:00	6	Velocidad del viento	3.2
161214	7	Sololá	701	Sololá	2	El tablón	6	Junio	2023-06-20T00:00:00	2024-11-06T16:00:00	7	Dirección del viento	3.22
161215	7	Sololá	701	Sololá	2	El tablón	6	Junio	2023-06-20T00:00:00	2024-11-06T16:00:00	1	Precipitación	0
161216	7	Sololá	701	Sololá	2	El tablón	6	Junio	2023-06-20T00:00:00	2024-11-06T16:00:00	8	Radiación solar	166
161217	7	Sololá	701	Sololá	2	El tablón	6	Junio	2023-06-20T00:00:00	2024-11-06T17:00:00	2	Temperatura media	17.7
161218	7	Sololá	701	Sololá	2	El tablón	6	Junio	2023-06-20T00:00:00	2024-11-06T17:00:00	4	Temperatura máxima	17.9
161219	7	Sololá	701	Sololá	2	El tablón	6	Junio	2023-06-20T00:00:00	2024-11-06T17:00:00	3	Temperatura mínima	17.4
161220	7	Sololá	701	Sololá	2	El tablón	6	Junio	2023-06-20T00:00:00	2024-11-06T17:00:00	5	Humedad	88
161221	7	Sololá	701	Sololá	2	El tablón	6	Junio	2023-06-20T00:00:00	2024-11-06T17:00:00	6	Velocidad del viento	1.6
161222	7	Sololá	701	Sololá	2	El tablón	6	Junio	2023-06-20T00:00:00	2024-11-06T17:00:00	7	Dirección del viento	1.61
161223	7	Sololá	701	Sololá	2	El tablón	6	Junio	2023-06-20T00:00:00	2024-11-06T17:00:00	1	Precipitación	0
161224	7	Sololá	701	Sololá	2	El tablón	6	Junio	2023-06-20T00:00:00	2024-11-06T17:00:00	8	Radiación solar	115
161225	7	Sololá	701	Sololá	2	El tablón	6	Junio	2023-06-20T00:00:00	2024-11-06T18:00:00	2	Temperatura media	18
161226	7	Sololá	701	Sololá	2	El tablón	6	Junio	2023-06-20T00:00:00	2024-11-06T18:00:00	4	Temperatura máxima	18.5
161227	7	Sololá	701	Sololá	2	El tablón	6	Junio	2023-06-20T00:00:00	2024-11-06T18:00:00	3	Temperatura mínima	17.7
161228	7	Sololá	701	Sololá	2	El tablón	6	Junio	2023-06-20T00:00:00	2024-11-06T18:00:00	5	Humedad	78
161229	7	Sololá	701	Sololá	2	El tablón	6	Junio	2023-06-20T00:00:00	2024-11-06T18:00:00	6	Velocidad del viento	4.8
161230	7	Sololá	701	Sololá	2	El tablón	6	Junio	2023-06-20T00:00:00	2024-11-06T18:00:00	7	Dirección del viento	4.83
161231	7	Sololá	701	Sololá	2	El tablón	6	Junio	2023-06-20T00:00:00	2024-11-06T18:00:00	1	Precipitación	0
161232	7	Sololá	701	Sololá	2	El tablón	6	Junio	2023-06-20T00:00:00	2024-11-06T18:00:00	8	Radiación solar	136
161233	7	Sololá	701	Sololá	2	El tablón	6	Junio	2023-06-20T00:00:00	2024-11-06T19:00:00	2	Temperatura media	17
161234	7	Sololá	701	Sololá	2	El tablón	6	Junio	2023-06-20T00:00:00	2024-11-06T19:00:00	4	Temperatura máxima	18.1
161235	7	Sololá	701	Sololá	2	El tablón	6	Junio	2023-06-20T00:00:00	2024-11-06T19:00:00	3	Temperatura mínima	17
161236	7	Sololá	701	Sololá	2	El tablón	6	Junio	2023-06-20T00:00:00	2024-11-06T19:00:00	5	Humedad	87
161237	7	Sololá	701	Sololá	2	El tablón	6	Junio	2023-06-20T00:00:00	2024-11-06T19:00:00	6	Velocidad del viento	1.6
161238	7	Sololá	701	Sololá	2	El tablón	6	Junio	2023-06-20T00:00:00	2024-11-06T19:00:00	7	Dirección del viento	1.61
161239	7	Sololá	701	Sololá	2	El tablón	6	Junio	2023-06-20T00:00:00	2024-11-06T19:00:00	1	Precipitación	0
161240	7	Sololá	701	Sololá	2	El tablón	6	Junio	2023-06-20T00:00:00	2024-11-06T19:00:00	8	Radiación solar	0
161241	7	Sololá	701	Sololá	2	El tablón	6	Junio	2023-06-20T00:00:00	2024-11-06T20:00:00	2	Temperatura media	16
161242	7	Sololá	701	Sololá	2	El tablón	6	Junio	2023-06-20T00:00:00	2024-11-06T20:00:00	4	Temperatura máxima	17
161243	7	Sololá	701	Sololá	2	El tablón	6	Junio	2023-06-20T00:00:00	2024-11-06T20:00:00	3	Temperatura mínima	15.9
161244	7	Sololá	701	Sololá	2	El tablón	6	Junio	2023-06-20T00:00:00	2024-11-06T20:00:00	5	Humedad	82
161245	7	Sololá	701	Sololá	2	El tablón	6	Junio	2023-06-20T00:00:00	2024-11-06T20:00:00	6	Velocidad del viento	4.8
161246	7	Sololá	701	Sololá	2	El tablón	6	Junio	2023-06-20T00:00:00	2024-11-06T20:00:00	7	Dirección del viento	4.83
161247	7	Sololá	701	Sololá	2	El tablón	6	Junio	2023-06-20T00:00:00	2024-11-06T20:00:00	1	Precipitación	0
161248	7	Sololá	701	Sololá	2	El tablón	6	Junio	2023-06-20T00:00:00	2024-11-06T20:00:00	8	Radiación solar	0
161249	7	Sololá	701	Sololá	2	El tablón	6	Junio	2023-06-20T00:00:00	2024-11-06T21:00:00	2	Temperatura media	16
161250	7	Sololá	701	Sololá	2	El tablón	6	Junio	2023-06-20T00:00:00	2024-11-06T21:00:00	4	Temperatura máxima	16
161251	7	Sololá	701	Sololá	2	El tablón	6	Junio	2023-06-20T00:00:00	2024-11-06T21:00:00	3	Temperatura mínima	15.8
161252	7	Sololá	701	Sololá	2	El tablón	6	Junio	2023-06-20T00:00:00	2024-11-06T21:00:00	5	Humedad	79
161253	7	Sololá	701	Sololá	2	El tablón	6	Junio	2023-06-20T00:00:00	2024-11-06T21:00:00	6	Velocidad del viento	4.8
161254	7	Sololá	701	Sololá	2	El tablón	6	Junio	2023-06-20T00:00:00	2024-11-06T21:00:00	7	Dirección del viento	4.83
161255	7	Sololá	701	Sololá	2	El tablón	6	Junio	2023-06-20T00:00:00	2024-11-06T21:00:00	1	Precipitación	0
161256	7	Sololá	701	Sololá	2	El tablón	6	Junio	2023-06-20T00:00:00	2024-11-06T21:00:00	8	Radiación solar	0
161257	7	Sololá	701	Sololá	2	El tablón	6	Junio	2023-06-20T00:00:00	2024-11-06T22:00:00	2	Temperatura media	15.8
161258	7	Sololá	701	Sololá	2	El tablón	6	Junio	2023-06-20T00:00:00	2024-11-06T22:00:00	4	Temperatura máxima	16.1
161259	7	Sololá	701	Sololá	2	El tablón	6	Junio	2023-06-20T00:00:00	2024-11-06T22:00:00	3	Temperatura mínima	15.8
161260	7	Sololá	701	Sololá	2	El tablón	6	Junio	2023-06-20T00:00:00	2024-11-06T22:00:00	5	Humedad	76
161261	7	Sololá	701	Sololá	2	El tablón	6	Junio	2023-06-20T00:00:00	2024-11-06T22:00:00	6	Velocidad del viento	8
161262	7	Sololá	701	Sololá	2	El tablón	6	Junio	2023-06-20T00:00:00	2024-11-06T22:00:00	7	Dirección del viento	8.05
161263	7	Sololá	701	Sololá	2	El tablón	6	Junio	2023-06-20T00:00:00	2024-11-06T22:00:00	1	Precipitación	0
161264	7	Sololá	701	Sololá	2	El tablón	6	Junio	2023-06-20T00:00:00	2024-11-06T22:00:00	8	Radiación solar	0
161265	7	Sololá	701	Sololá	2	El tablón	6	Junio	2023-06-20T00:00:00	2024-11-06T23:00:00	2	Temperatura media	15.3
161266	7	Sololá	701	Sololá	2	El tablón	6	Junio	2023-06-20T00:00:00	2024-11-06T23:00:00	4	Temperatura máxima	15.9
161267	7	Sololá	701	Sololá	2	El tablón	6	Junio	2023-06-20T00:00:00	2024-11-06T23:00:00	3	Temperatura mínima	15.3
161268	7	Sololá	701	Sololá	2	El tablón	6	Junio	2023-06-20T00:00:00	2024-11-06T23:00:00	5	Humedad	79
161269	7	Sololá	701	Sololá	2	El tablón	6	Junio	2023-06-20T00:00:00	2024-11-06T23:00:00	6	Velocidad del viento	11.3
161270	7	Sololá	701	Sololá	2	El tablón	6	Junio	2023-06-20T00:00:00	2024-11-06T23:00:00	7	Dirección del viento	11.27
161271	7	Sololá	701	Sololá	2	El tablón	6	Junio	2023-06-20T00:00:00	2024-11-06T23:00:00	1	Precipitación	0
161272	7	Sololá	701	Sololá	2	El tablón	6	Junio	2023-06-20T00:00:00	2024-11-06T23:00:00	8	Radiación solar	0
161273	7	Sololá	701	Sololá	2	El tablón	6	Junio	2023-06-21T00:00:00	2024-11-06T00:00:00	2	Temperatura media	15.2
161274	7	Sololá	701	Sololá	2	El tablón	6	Junio	2023-06-21T00:00:00	2024-11-06T00:00:00	4	Temperatura máxima	15.5
161275	7	Sololá	701	Sololá	2	El tablón	6	Junio	2023-06-21T00:00:00	2024-11-06T00:00:00	3	Temperatura mínima	15.2
161276	7	Sololá	701	Sololá	2	El tablón	6	Junio	2023-06-21T00:00:00	2024-11-06T00:00:00	5	Humedad	77
161277	7	Sololá	701	Sololá	2	El tablón	6	Junio	2023-06-21T00:00:00	2024-11-06T00:00:00	6	Velocidad del viento	9.7
161278	7	Sololá	701	Sololá	2	El tablón	6	Junio	2023-06-21T00:00:00	2024-11-06T00:00:00	7	Dirección del viento	9.66
161279	7	Sololá	701	Sololá	2	El tablón	6	Junio	2023-06-21T00:00:00	2024-11-06T00:00:00	1	Precipitación	0
161280	7	Sololá	701	Sololá	2	El tablón	6	Junio	2023-06-21T00:00:00	2024-11-06T00:00:00	8	Radiación solar	0
161281	7	Sololá	701	Sololá	2	El tablón	6	Junio	2023-06-21T00:00:00	2024-11-06T01:00:00	2	Temperatura media	14.8
161282	7	Sololá	701	Sololá	2	El tablón	6	Junio	2023-06-21T00:00:00	2024-11-06T01:00:00	4	Temperatura máxima	15.2
161283	7	Sololá	701	Sololá	2	El tablón	6	Junio	2023-06-21T00:00:00	2024-11-06T01:00:00	3	Temperatura mínima	14.8
161284	7	Sololá	701	Sololá	2	El tablón	6	Junio	2023-06-21T00:00:00	2024-11-06T01:00:00	5	Humedad	78
161285	7	Sololá	701	Sololá	2	El tablón	6	Junio	2023-06-21T00:00:00	2024-11-06T01:00:00	6	Velocidad del viento	8
161286	7	Sololá	701	Sololá	2	El tablón	6	Junio	2023-06-21T00:00:00	2024-11-06T01:00:00	7	Dirección del viento	8.05
161287	7	Sololá	701	Sololá	2	El tablón	6	Junio	2023-06-21T00:00:00	2024-11-06T01:00:00	1	Precipitación	0
161288	7	Sololá	701	Sololá	2	El tablón	6	Junio	2023-06-21T00:00:00	2024-11-06T01:00:00	8	Radiación solar	0
161289	7	Sololá	701	Sololá	2	El tablón	6	Junio	2023-06-21T00:00:00	2024-11-06T02:00:00	2	Temperatura media	14.8
161290	7	Sololá	701	Sololá	2	El tablón	6	Junio	2023-06-21T00:00:00	2024-11-06T02:00:00	4	Temperatura máxima	14.9
161291	7	Sololá	701	Sololá	2	El tablón	6	Junio	2023-06-21T00:00:00	2024-11-06T02:00:00	3	Temperatura mínima	14.5
161292	7	Sololá	701	Sololá	2	El tablón	6	Junio	2023-06-21T00:00:00	2024-11-06T02:00:00	5	Humedad	79
161293	7	Sololá	701	Sololá	2	El tablón	6	Junio	2023-06-21T00:00:00	2024-11-06T02:00:00	6	Velocidad del viento	6.4
161294	7	Sololá	701	Sololá	2	El tablón	6	Junio	2023-06-21T00:00:00	2024-11-06T02:00:00	7	Dirección del viento	6.44
161295	7	Sololá	701	Sololá	2	El tablón	6	Junio	2023-06-21T00:00:00	2024-11-06T02:00:00	1	Precipitación	0
161296	7	Sololá	701	Sololá	2	El tablón	6	Junio	2023-06-21T00:00:00	2024-11-06T02:00:00	8	Radiación solar	0
161297	7	Sololá	701	Sololá	2	El tablón	6	Junio	2023-06-21T00:00:00	2024-11-06T03:00:00	2	Temperatura media	14.3
161298	7	Sololá	701	Sololá	2	El tablón	6	Junio	2023-06-21T00:00:00	2024-11-06T03:00:00	4	Temperatura máxima	14.8
161299	7	Sololá	701	Sololá	2	El tablón	6	Junio	2023-06-21T00:00:00	2024-11-06T03:00:00	3	Temperatura mínima	14.2
161300	7	Sololá	701	Sololá	2	El tablón	6	Junio	2023-06-21T00:00:00	2024-11-06T03:00:00	5	Humedad	83
161301	7	Sololá	701	Sololá	2	El tablón	6	Junio	2023-06-21T00:00:00	2024-11-06T03:00:00	6	Velocidad del viento	9.7
161302	7	Sololá	701	Sololá	2	El tablón	6	Junio	2023-06-21T00:00:00	2024-11-06T03:00:00	7	Dirección del viento	9.66
161303	7	Sololá	701	Sololá	2	El tablón	6	Junio	2023-06-21T00:00:00	2024-11-06T03:00:00	1	Precipitación	0
161304	7	Sololá	701	Sololá	2	El tablón	6	Junio	2023-06-21T00:00:00	2024-11-06T03:00:00	8	Radiación solar	0
161305	7	Sololá	701	Sololá	2	El tablón	6	Junio	2023-06-21T00:00:00	2024-11-06T04:00:00	2	Temperatura media	13.9
161306	7	Sololá	701	Sololá	2	El tablón	6	Junio	2023-06-21T00:00:00	2024-11-06T04:00:00	4	Temperatura máxima	14.3
161307	7	Sololá	701	Sololá	2	El tablón	6	Junio	2023-06-21T00:00:00	2024-11-06T04:00:00	3	Temperatura mínima	13.9
161308	7	Sololá	701	Sololá	2	El tablón	6	Junio	2023-06-21T00:00:00	2024-11-06T04:00:00	5	Humedad	85
161309	7	Sololá	701	Sololá	2	El tablón	6	Junio	2023-06-21T00:00:00	2024-11-06T04:00:00	6	Velocidad del viento	6.4
161310	7	Sololá	701	Sololá	2	El tablón	6	Junio	2023-06-21T00:00:00	2024-11-06T04:00:00	7	Dirección del viento	6.44
161311	7	Sololá	701	Sololá	2	El tablón	6	Junio	2023-06-21T00:00:00	2024-11-06T04:00:00	1	Precipitación	0
161312	7	Sololá	701	Sololá	2	El tablón	6	Junio	2023-06-21T00:00:00	2024-11-06T04:00:00	8	Radiación solar	0
161313	7	Sololá	701	Sololá	2	El tablón	6	Junio	2023-06-21T00:00:00	2024-11-06T05:00:00	2	Temperatura media	13.7
161314	7	Sololá	701	Sololá	2	El tablón	6	Junio	2023-06-21T00:00:00	2024-11-06T05:00:00	4	Temperatura máxima	13.9
161315	7	Sololá	701	Sololá	2	El tablón	6	Junio	2023-06-21T00:00:00	2024-11-06T05:00:00	3	Temperatura mínima	13.7
161316	7	Sololá	701	Sololá	2	El tablón	6	Junio	2023-06-21T00:00:00	2024-11-06T05:00:00	5	Humedad	88
161317	7	Sololá	701	Sololá	2	El tablón	6	Junio	2023-06-21T00:00:00	2024-11-06T05:00:00	6	Velocidad del viento	4.8
161318	7	Sololá	701	Sololá	2	El tablón	6	Junio	2023-06-21T00:00:00	2024-11-06T05:00:00	7	Dirección del viento	4.83
161319	7	Sololá	701	Sololá	2	El tablón	6	Junio	2023-06-21T00:00:00	2024-11-06T05:00:00	1	Precipitación	0
161320	7	Sololá	701	Sololá	2	El tablón	6	Junio	2023-06-21T00:00:00	2024-11-06T05:00:00	8	Radiación solar	0
161321	7	Sololá	701	Sololá	2	El tablón	6	Junio	2023-06-21T00:00:00	2024-11-06T06:00:00	2	Temperatura media	13.7
161322	7	Sololá	701	Sololá	2	El tablón	6	Junio	2023-06-21T00:00:00	2024-11-06T06:00:00	4	Temperatura máxima	13.8
161323	7	Sololá	701	Sololá	2	El tablón	6	Junio	2023-06-21T00:00:00	2024-11-06T06:00:00	3	Temperatura mínima	13.6
161324	7	Sololá	701	Sololá	2	El tablón	6	Junio	2023-06-21T00:00:00	2024-11-06T06:00:00	5	Humedad	89
161325	7	Sololá	701	Sololá	2	El tablón	6	Junio	2023-06-21T00:00:00	2024-11-06T06:00:00	6	Velocidad del viento	6.4
161326	7	Sololá	701	Sololá	2	El tablón	6	Junio	2023-06-21T00:00:00	2024-11-06T06:00:00	7	Dirección del viento	6.44
161327	7	Sololá	701	Sololá	2	El tablón	6	Junio	2023-06-21T00:00:00	2024-11-06T06:00:00	1	Precipitación	0
161328	7	Sololá	701	Sololá	2	El tablón	6	Junio	2023-06-21T00:00:00	2024-11-06T06:00:00	8	Radiación solar	4
161329	7	Sololá	701	Sololá	2	El tablón	6	Junio	2023-06-21T00:00:00	2024-11-06T07:00:00	2	Temperatura media	15.6
161330	7	Sololá	701	Sololá	2	El tablón	6	Junio	2023-06-21T00:00:00	2024-11-06T07:00:00	4	Temperatura máxima	15.6
161331	7	Sololá	701	Sololá	2	El tablón	6	Junio	2023-06-21T00:00:00	2024-11-06T07:00:00	3	Temperatura mínima	13.7
161332	7	Sololá	701	Sololá	2	El tablón	6	Junio	2023-06-21T00:00:00	2024-11-06T07:00:00	5	Humedad	82
161333	7	Sololá	701	Sololá	2	El tablón	6	Junio	2023-06-21T00:00:00	2024-11-06T07:00:00	6	Velocidad del viento	6.4
161334	7	Sololá	701	Sololá	2	El tablón	6	Junio	2023-06-21T00:00:00	2024-11-06T07:00:00	7	Dirección del viento	6.44
161335	7	Sololá	701	Sololá	2	El tablón	6	Junio	2023-06-21T00:00:00	2024-11-06T07:00:00	1	Precipitación	0
161336	7	Sololá	701	Sololá	2	El tablón	6	Junio	2023-06-21T00:00:00	2024-11-06T07:00:00	8	Radiación solar	111
161337	7	Sololá	701	Sololá	2	El tablón	6	Junio	2023-06-21T00:00:00	2024-11-06T08:00:00	2	Temperatura media	17.4
161338	7	Sololá	701	Sololá	2	El tablón	6	Junio	2023-06-21T00:00:00	2024-11-06T08:00:00	4	Temperatura máxima	17.4
161339	7	Sololá	701	Sololá	2	El tablón	6	Junio	2023-06-21T00:00:00	2024-11-06T08:00:00	3	Temperatura mínima	15.6
161340	7	Sololá	701	Sololá	2	El tablón	6	Junio	2023-06-21T00:00:00	2024-11-06T08:00:00	5	Humedad	77
161341	7	Sololá	701	Sololá	2	El tablón	6	Junio	2023-06-21T00:00:00	2024-11-06T08:00:00	6	Velocidad del viento	4.8
161342	7	Sololá	701	Sololá	2	El tablón	6	Junio	2023-06-21T00:00:00	2024-11-06T08:00:00	7	Dirección del viento	4.83
161343	7	Sololá	701	Sololá	2	El tablón	6	Junio	2023-06-21T00:00:00	2024-11-06T08:00:00	1	Precipitación	0
161344	7	Sololá	701	Sololá	2	El tablón	6	Junio	2023-06-21T00:00:00	2024-11-06T08:00:00	8	Radiación solar	314
161345	7	Sololá	701	Sololá	2	El tablón	6	Junio	2023-06-21T00:00:00	2024-11-06T09:00:00	2	Temperatura media	15.5
161346	7	Sololá	701	Sololá	2	El tablón	6	Junio	2023-06-21T00:00:00	2024-11-06T09:00:00	4	Temperatura máxima	17.7
161347	7	Sololá	701	Sololá	2	El tablón	6	Junio	2023-06-21T00:00:00	2024-11-06T09:00:00	3	Temperatura mínima	15.9
161348	7	Sololá	701	Sololá	2	El tablón	6	Junio	2023-06-21T00:00:00	2024-11-06T09:00:00	5	Humedad	70
161349	7	Sololá	701	Sololá	2	El tablón	6	Junio	2023-06-21T00:00:00	2024-11-06T09:00:00	6	Velocidad del viento	6.4
161350	7	Sololá	701	Sololá	2	El tablón	6	Junio	2023-06-21T00:00:00	2024-11-06T09:00:00	7	Dirección del viento	6.44
161351	7	Sololá	701	Sololá	2	El tablón	6	Junio	2023-06-21T00:00:00	2024-11-06T09:00:00	1	Precipitación	0
161352	7	Sololá	701	Sololá	2	El tablón	6	Junio	2023-06-21T00:00:00	2024-11-06T09:00:00	8	Radiación solar	560
161353	7	Sololá	701	Sololá	2	El tablón	6	Junio	2023-06-21T00:00:00	2024-11-06T10:00:00	2	Temperatura media	16.1
161354	7	Sololá	701	Sololá	2	El tablón	6	Junio	2023-06-21T00:00:00	2024-11-06T10:00:00	4	Temperatura máxima	17.9
161355	7	Sololá	701	Sololá	2	El tablón	6	Junio	2023-06-21T00:00:00	2024-11-06T10:00:00	3	Temperatura mínima	16.1
161356	7	Sololá	701	Sololá	2	El tablón	6	Junio	2023-06-21T00:00:00	2024-11-06T10:00:00	5	Humedad	87
161357	7	Sololá	701	Sololá	2	El tablón	6	Junio	2023-06-21T00:00:00	2024-11-06T10:00:00	6	Velocidad del viento	4.8
161358	7	Sololá	701	Sololá	2	El tablón	6	Junio	2023-06-21T00:00:00	2024-11-06T10:00:00	7	Dirección del viento	4.83
161359	7	Sololá	701	Sololá	2	El tablón	6	Junio	2023-06-21T00:00:00	2024-11-06T10:00:00	1	Precipitación	0
161360	7	Sololá	701	Sololá	2	El tablón	6	Junio	2023-06-21T00:00:00	2024-11-06T10:00:00	8	Radiación solar	337
161361	7	Sololá	701	Sololá	2	El tablón	6	Junio	2023-06-21T00:00:00	2024-11-06T11:00:00	2	Temperatura media	16.3
161362	7	Sololá	701	Sololá	2	El tablón	6	Junio	2023-06-21T00:00:00	2024-11-06T11:00:00	4	Temperatura máxima	16.3
161363	7	Sololá	701	Sololá	2	El tablón	6	Junio	2023-06-21T00:00:00	2024-11-06T11:00:00	3	Temperatura mínima	15.2
161364	7	Sololá	701	Sololá	2	El tablón	6	Junio	2023-06-21T00:00:00	2024-11-06T11:00:00	5	Humedad	84
161365	7	Sololá	701	Sololá	2	El tablón	6	Junio	2023-06-21T00:00:00	2024-11-06T11:00:00	6	Velocidad del viento	4.8
161366	7	Sololá	701	Sololá	2	El tablón	6	Junio	2023-06-21T00:00:00	2024-11-06T11:00:00	7	Dirección del viento	4.83
161367	7	Sololá	701	Sololá	2	El tablón	6	Junio	2023-06-21T00:00:00	2024-11-06T11:00:00	1	Precipitación	0
161368	7	Sololá	701	Sololá	2	El tablón	6	Junio	2023-06-21T00:00:00	2024-11-06T11:00:00	8	Radiación solar	367
161369	7	Sololá	701	Sololá	2	El tablón	6	Junio	2023-06-21T00:00:00	2024-11-06T12:00:00	2	Temperatura media	18.1
161370	7	Sololá	701	Sololá	2	El tablón	6	Junio	2023-06-21T00:00:00	2024-11-06T12:00:00	4	Temperatura máxima	18.1
161371	7	Sololá	701	Sololá	2	El tablón	6	Junio	2023-06-21T00:00:00	2024-11-06T12:00:00	3	Temperatura mínima	16.3
161372	7	Sololá	701	Sololá	2	El tablón	6	Junio	2023-06-21T00:00:00	2024-11-06T12:00:00	5	Humedad	84
161373	7	Sololá	701	Sololá	2	El tablón	6	Junio	2023-06-21T00:00:00	2024-11-06T12:00:00	6	Velocidad del viento	6.4
161374	7	Sololá	701	Sololá	2	El tablón	6	Junio	2023-06-21T00:00:00	2024-11-06T12:00:00	7	Dirección del viento	6.44
161375	7	Sololá	701	Sololá	2	El tablón	6	Junio	2023-06-21T00:00:00	2024-11-06T12:00:00	1	Precipitación	0
161376	7	Sololá	701	Sololá	2	El tablón	6	Junio	2023-06-21T00:00:00	2024-11-06T12:00:00	8	Radiación solar	790
161377	7	Sololá	701	Sololá	2	El tablón	6	Junio	2023-06-21T00:00:00	2024-11-06T13:00:00	2	Temperatura media	17.4
161378	7	Sololá	701	Sololá	2	El tablón	6	Junio	2023-06-21T00:00:00	2024-11-06T13:00:00	4	Temperatura máxima	18.3
161379	7	Sololá	701	Sololá	2	El tablón	6	Junio	2023-06-21T00:00:00	2024-11-06T13:00:00	3	Temperatura mínima	17.1
161380	7	Sololá	701	Sololá	2	El tablón	6	Junio	2023-06-21T00:00:00	2024-11-06T13:00:00	5	Humedad	77
161381	7	Sololá	701	Sololá	2	El tablón	6	Junio	2023-06-21T00:00:00	2024-11-06T13:00:00	6	Velocidad del viento	8
161382	7	Sololá	701	Sololá	2	El tablón	6	Junio	2023-06-21T00:00:00	2024-11-06T13:00:00	7	Dirección del viento	8.05
161383	7	Sololá	701	Sololá	2	El tablón	6	Junio	2023-06-21T00:00:00	2024-11-06T13:00:00	1	Precipitación	0
161384	7	Sololá	701	Sololá	2	El tablón	6	Junio	2023-06-21T00:00:00	2024-11-06T13:00:00	8	Radiación solar	661
161385	7	Sololá	701	Sololá	2	El tablón	6	Junio	2023-06-21T00:00:00	2024-11-06T14:00:00	2	Temperatura media	17.5
161386	7	Sololá	701	Sololá	2	El tablón	6	Junio	2023-06-21T00:00:00	2024-11-06T14:00:00	4	Temperatura máxima	18.2
161387	7	Sololá	701	Sololá	2	El tablón	6	Junio	2023-06-21T00:00:00	2024-11-06T14:00:00	3	Temperatura mínima	17.2
161388	7	Sololá	701	Sololá	2	El tablón	6	Junio	2023-06-21T00:00:00	2024-11-06T14:00:00	5	Humedad	82
161389	7	Sololá	701	Sololá	2	El tablón	6	Junio	2023-06-21T00:00:00	2024-11-06T14:00:00	6	Velocidad del viento	3.2
161390	7	Sololá	701	Sololá	2	El tablón	6	Junio	2023-06-21T00:00:00	2024-11-06T14:00:00	7	Dirección del viento	3.22
161391	7	Sololá	701	Sololá	2	El tablón	6	Junio	2023-06-21T00:00:00	2024-11-06T14:00:00	1	Precipitación	0
161392	7	Sololá	701	Sololá	2	El tablón	6	Junio	2023-06-21T00:00:00	2024-11-06T14:00:00	8	Radiación solar	422
161393	7	Sololá	701	Sololá	2	El tablón	6	Junio	2023-06-21T00:00:00	2024-11-06T15:00:00	2	Temperatura media	16.6
161394	7	Sololá	701	Sololá	2	El tablón	6	Junio	2023-06-21T00:00:00	2024-11-06T15:00:00	4	Temperatura máxima	17.6
161395	7	Sololá	701	Sololá	2	El tablón	6	Junio	2023-06-21T00:00:00	2024-11-06T15:00:00	3	Temperatura mínima	16.3
161396	7	Sololá	701	Sololá	2	El tablón	6	Junio	2023-06-21T00:00:00	2024-11-06T15:00:00	5	Humedad	88
161397	7	Sololá	701	Sololá	2	El tablón	6	Junio	2023-06-21T00:00:00	2024-11-06T15:00:00	6	Velocidad del viento	4.8
161398	7	Sololá	701	Sololá	2	El tablón	6	Junio	2023-06-21T00:00:00	2024-11-06T15:00:00	7	Dirección del viento	4.83
161399	7	Sololá	701	Sololá	2	El tablón	6	Junio	2023-06-21T00:00:00	2024-11-06T15:00:00	1	Precipitación	0
161400	7	Sololá	701	Sololá	2	El tablón	6	Junio	2023-06-21T00:00:00	2024-11-06T15:00:00	8	Radiación solar	265
161401	7	Sololá	701	Sololá	2	El tablón	6	Junio	2023-06-21T00:00:00	2024-11-06T16:00:00	2	Temperatura media	15.3
161402	7	Sololá	701	Sololá	2	El tablón	6	Junio	2023-06-21T00:00:00	2024-11-06T16:00:00	4	Temperatura máxima	16.6
161403	7	Sololá	701	Sololá	2	El tablón	6	Junio	2023-06-21T00:00:00	2024-11-06T16:00:00	3	Temperatura mínima	15.3
161404	7	Sololá	701	Sololá	2	El tablón	6	Junio	2023-06-21T00:00:00	2024-11-06T16:00:00	5	Humedad	88
161405	7	Sololá	701	Sololá	2	El tablón	6	Junio	2023-06-21T00:00:00	2024-11-06T16:00:00	6	Velocidad del viento	6.4
161406	7	Sololá	701	Sololá	2	El tablón	6	Junio	2023-06-21T00:00:00	2024-11-06T16:00:00	7	Dirección del viento	6.44
161407	7	Sololá	701	Sololá	2	El tablón	6	Junio	2023-06-21T00:00:00	2024-11-06T16:00:00	1	Precipitación	0
161408	7	Sololá	701	Sololá	2	El tablón	6	Junio	2023-06-21T00:00:00	2024-11-06T16:00:00	8	Radiación solar	147
161409	7	Sololá	701	Sololá	2	El tablón	6	Junio	2023-06-21T00:00:00	2024-11-06T17:00:00	2	Temperatura media	13.1
161410	7	Sololá	701	Sololá	2	El tablón	6	Junio	2023-06-21T00:00:00	2024-11-06T17:00:00	4	Temperatura máxima	15.3
161411	7	Sololá	701	Sololá	2	El tablón	6	Junio	2023-06-21T00:00:00	2024-11-06T17:00:00	3	Temperatura mínima	13.1
161412	7	Sololá	701	Sololá	2	El tablón	6	Junio	2023-06-21T00:00:00	2024-11-06T17:00:00	5	Humedad	88
161413	7	Sololá	701	Sololá	2	El tablón	6	Junio	2023-06-21T00:00:00	2024-11-06T17:00:00	6	Velocidad del viento	6.4
161414	7	Sololá	701	Sololá	2	El tablón	6	Junio	2023-06-21T00:00:00	2024-11-06T17:00:00	7	Dirección del viento	6.44
161415	7	Sololá	701	Sololá	2	El tablón	6	Junio	2023-06-21T00:00:00	2024-11-06T17:00:00	1	Precipitación	2.6
161416	7	Sololá	701	Sololá	2	El tablón	6	Junio	2023-06-21T00:00:00	2024-11-06T17:00:00	8	Radiación solar	39
161417	7	Sololá	701	Sololá	2	El tablón	6	Junio	2023-06-21T00:00:00	2024-11-06T18:00:00	2	Temperatura media	13.2
161418	7	Sololá	701	Sololá	2	El tablón	6	Junio	2023-06-21T00:00:00	2024-11-06T18:00:00	4	Temperatura máxima	13.4
161419	7	Sololá	701	Sololá	2	El tablón	6	Junio	2023-06-21T00:00:00	2024-11-06T18:00:00	3	Temperatura mínima	13.1
161420	7	Sololá	701	Sololá	2	El tablón	6	Junio	2023-06-21T00:00:00	2024-11-06T18:00:00	5	Humedad	88
161421	7	Sololá	701	Sololá	2	El tablón	6	Junio	2023-06-21T00:00:00	2024-11-06T18:00:00	6	Velocidad del viento	3.2
161422	7	Sololá	701	Sololá	2	El tablón	6	Junio	2023-06-21T00:00:00	2024-11-06T18:00:00	7	Dirección del viento	3.22
161423	7	Sololá	701	Sololá	2	El tablón	6	Junio	2023-06-21T00:00:00	2024-11-06T18:00:00	1	Precipitación	0.2
161424	7	Sololá	701	Sololá	2	El tablón	6	Junio	2023-06-21T00:00:00	2024-11-06T18:00:00	8	Radiación solar	27
161425	7	Sololá	701	Sololá	2	El tablón	6	Junio	2023-06-21T00:00:00	2024-11-06T19:00:00	2	Temperatura media	13.8
161426	7	Sololá	701	Sololá	2	El tablón	6	Junio	2023-06-21T00:00:00	2024-11-06T19:00:00	4	Temperatura máxima	13.8
161427	7	Sololá	701	Sololá	2	El tablón	6	Junio	2023-06-21T00:00:00	2024-11-06T19:00:00	3	Temperatura mínima	13.2
161428	7	Sololá	701	Sololá	2	El tablón	6	Junio	2023-06-21T00:00:00	2024-11-06T19:00:00	5	Humedad	88
161429	7	Sololá	701	Sololá	2	El tablón	6	Junio	2023-06-21T00:00:00	2024-11-06T19:00:00	6	Velocidad del viento	4.8
161430	7	Sololá	701	Sololá	2	El tablón	6	Junio	2023-06-21T00:00:00	2024-11-06T19:00:00	7	Dirección del viento	4.83
161431	7	Sololá	701	Sololá	2	El tablón	6	Junio	2023-06-21T00:00:00	2024-11-06T19:00:00	1	Precipitación	0.2
161432	7	Sololá	701	Sololá	2	El tablón	6	Junio	2023-06-21T00:00:00	2024-11-06T19:00:00	8	Radiación solar	0
161433	7	Sololá	701	Sololá	2	El tablón	6	Junio	2023-06-21T00:00:00	2024-11-06T20:00:00	2	Temperatura media	13.7
161434	7	Sololá	701	Sololá	2	El tablón	6	Junio	2023-06-21T00:00:00	2024-11-06T20:00:00	4	Temperatura máxima	13.9
161435	7	Sololá	701	Sololá	2	El tablón	6	Junio	2023-06-21T00:00:00	2024-11-06T20:00:00	3	Temperatura mínima	13.7
161436	7	Sololá	701	Sololá	2	El tablón	6	Junio	2023-06-21T00:00:00	2024-11-06T20:00:00	5	Humedad	89
161437	7	Sololá	701	Sololá	2	El tablón	6	Junio	2023-06-21T00:00:00	2024-11-06T20:00:00	6	Velocidad del viento	3.2
161438	7	Sololá	701	Sololá	2	El tablón	6	Junio	2023-06-21T00:00:00	2024-11-06T20:00:00	7	Dirección del viento	3.22
161439	7	Sololá	701	Sololá	2	El tablón	6	Junio	2023-06-21T00:00:00	2024-11-06T20:00:00	1	Precipitación	0
161440	7	Sololá	701	Sololá	2	El tablón	6	Junio	2023-06-21T00:00:00	2024-11-06T20:00:00	8	Radiación solar	0
161441	7	Sololá	701	Sololá	2	El tablón	6	Junio	2023-06-21T00:00:00	2024-11-06T21:00:00	2	Temperatura media	13.8
161442	7	Sololá	701	Sololá	2	El tablón	6	Junio	2023-06-21T00:00:00	2024-11-06T21:00:00	4	Temperatura máxima	13.8
161443	7	Sololá	701	Sololá	2	El tablón	6	Junio	2023-06-21T00:00:00	2024-11-06T21:00:00	3	Temperatura mínima	13.7
161444	7	Sololá	701	Sololá	2	El tablón	6	Junio	2023-06-21T00:00:00	2024-11-06T21:00:00	5	Humedad	88
161445	7	Sololá	701	Sololá	2	El tablón	6	Junio	2023-06-21T00:00:00	2024-11-06T21:00:00	6	Velocidad del viento	3.2
161446	7	Sololá	701	Sololá	2	El tablón	6	Junio	2023-06-21T00:00:00	2024-11-06T21:00:00	7	Dirección del viento	3.22
161447	7	Sololá	701	Sololá	2	El tablón	6	Junio	2023-06-21T00:00:00	2024-11-06T21:00:00	1	Precipitación	0
161448	7	Sololá	701	Sololá	2	El tablón	6	Junio	2023-06-21T00:00:00	2024-11-06T21:00:00	8	Radiación solar	0
161449	7	Sololá	701	Sololá	2	El tablón	6	Junio	2023-06-21T00:00:00	2024-11-06T22:00:00	2	Temperatura media	13.7
161450	7	Sololá	701	Sololá	2	El tablón	6	Junio	2023-06-21T00:00:00	2024-11-06T22:00:00	4	Temperatura máxima	13.8
161451	7	Sololá	701	Sololá	2	El tablón	6	Junio	2023-06-21T00:00:00	2024-11-06T22:00:00	3	Temperatura mínima	13.7
161452	7	Sololá	701	Sololá	2	El tablón	6	Junio	2023-06-21T00:00:00	2024-11-06T22:00:00	5	Humedad	89
161453	7	Sololá	701	Sololá	2	El tablón	6	Junio	2023-06-21T00:00:00	2024-11-06T22:00:00	6	Velocidad del viento	1.6
161454	7	Sololá	701	Sololá	2	El tablón	6	Junio	2023-06-21T00:00:00	2024-11-06T22:00:00	7	Dirección del viento	1.61
161455	7	Sololá	701	Sololá	2	El tablón	6	Junio	2023-06-21T00:00:00	2024-11-06T22:00:00	1	Precipitación	0
161456	7	Sololá	701	Sololá	2	El tablón	6	Junio	2023-06-21T00:00:00	2024-11-06T22:00:00	8	Radiación solar	0
161457	7	Sololá	701	Sololá	2	El tablón	6	Junio	2023-06-21T00:00:00	2024-11-06T23:00:00	2	Temperatura media	13.7
161458	7	Sololá	701	Sololá	2	El tablón	6	Junio	2023-06-21T00:00:00	2024-11-06T23:00:00	4	Temperatura máxima	13.8
161459	7	Sololá	701	Sololá	2	El tablón	6	Junio	2023-06-21T00:00:00	2024-11-06T23:00:00	3	Temperatura mínima	13.7
161460	7	Sololá	701	Sololá	2	El tablón	6	Junio	2023-06-21T00:00:00	2024-11-06T23:00:00	5	Humedad	88
161461	7	Sololá	701	Sololá	2	El tablón	6	Junio	2023-06-21T00:00:00	2024-11-06T23:00:00	6	Velocidad del viento	3.2
161462	7	Sololá	701	Sololá	2	El tablón	6	Junio	2023-06-21T00:00:00	2024-11-06T23:00:00	7	Dirección del viento	3.22
161463	7	Sololá	701	Sololá	2	El tablón	6	Junio	2023-06-21T00:00:00	2024-11-06T23:00:00	1	Precipitación	0
161464	7	Sololá	701	Sololá	2	El tablón	6	Junio	2023-06-21T00:00:00	2024-11-06T23:00:00	8	Radiación solar	0
161465	7	Sololá	701	Sololá	2	El tablón	6	Junio	2023-06-22T00:00:00	2024-11-06T00:00:00	2	Temperatura media	13.6
161466	7	Sololá	701	Sololá	2	El tablón	6	Junio	2023-06-22T00:00:00	2024-11-06T00:00:00	4	Temperatura máxima	13.8
161467	7	Sololá	701	Sololá	2	El tablón	6	Junio	2023-06-22T00:00:00	2024-11-06T00:00:00	3	Temperatura mínima	13.6
161468	7	Sololá	701	Sololá	2	El tablón	6	Junio	2023-06-22T00:00:00	2024-11-06T00:00:00	5	Humedad	89
161469	7	Sololá	701	Sololá	2	El tablón	6	Junio	2023-06-22T00:00:00	2024-11-06T00:00:00	6	Velocidad del viento	3.2
161470	7	Sololá	701	Sololá	2	El tablón	6	Junio	2023-06-22T00:00:00	2024-11-06T00:00:00	7	Dirección del viento	3.22
161471	7	Sololá	701	Sololá	2	El tablón	6	Junio	2023-06-22T00:00:00	2024-11-06T00:00:00	1	Precipitación	2
161472	7	Sololá	701	Sololá	2	El tablón	6	Junio	2023-06-22T00:00:00	2024-11-06T00:00:00	8	Radiación solar	0
161473	7	Sololá	701	Sololá	2	El tablón	6	Junio	2023-06-22T00:00:00	2024-11-06T01:00:00	2	Temperatura media	12.3
161474	7	Sololá	701	Sololá	2	El tablón	6	Junio	2023-06-22T00:00:00	2024-11-06T01:00:00	4	Temperatura máxima	13.6
161475	7	Sololá	701	Sololá	2	El tablón	6	Junio	2023-06-22T00:00:00	2024-11-06T01:00:00	3	Temperatura mínima	12.3
161476	7	Sololá	701	Sololá	2	El tablón	6	Junio	2023-06-22T00:00:00	2024-11-06T01:00:00	5	Humedad	88
161477	7	Sololá	701	Sololá	2	El tablón	6	Junio	2023-06-22T00:00:00	2024-11-06T01:00:00	6	Velocidad del viento	6.4
161478	7	Sololá	701	Sololá	2	El tablón	6	Junio	2023-06-22T00:00:00	2024-11-06T01:00:00	7	Dirección del viento	6.44
161479	7	Sololá	701	Sololá	2	El tablón	6	Junio	2023-06-22T00:00:00	2024-11-06T01:00:00	1	Precipitación	2.4
161480	7	Sololá	701	Sololá	2	El tablón	6	Junio	2023-06-22T00:00:00	2024-11-06T01:00:00	8	Radiación solar	0
161481	7	Sololá	701	Sololá	2	El tablón	6	Junio	2023-06-22T00:00:00	2024-11-06T02:00:00	2	Temperatura media	12.2
161482	7	Sololá	701	Sololá	2	El tablón	6	Junio	2023-06-22T00:00:00	2024-11-06T02:00:00	4	Temperatura máxima	12.6
161483	7	Sololá	701	Sololá	2	El tablón	6	Junio	2023-06-22T00:00:00	2024-11-06T02:00:00	3	Temperatura mínima	12.2
161484	7	Sololá	701	Sololá	2	El tablón	6	Junio	2023-06-22T00:00:00	2024-11-06T02:00:00	5	Humedad	89
161485	7	Sololá	701	Sololá	2	El tablón	6	Junio	2023-06-22T00:00:00	2024-11-06T02:00:00	6	Velocidad del viento	3.2
161486	7	Sololá	701	Sololá	2	El tablón	6	Junio	2023-06-22T00:00:00	2024-11-06T02:00:00	7	Dirección del viento	3.22
161487	7	Sololá	701	Sololá	2	El tablón	6	Junio	2023-06-22T00:00:00	2024-11-06T02:00:00	1	Precipitación	0
161488	7	Sololá	701	Sololá	2	El tablón	6	Junio	2023-06-22T00:00:00	2024-11-06T02:00:00	8	Radiación solar	0
161489	7	Sololá	701	Sololá	2	El tablón	6	Junio	2023-06-22T00:00:00	2024-11-06T03:00:00	2	Temperatura media	12.6
161490	7	Sololá	701	Sololá	2	El tablón	6	Junio	2023-06-22T00:00:00	2024-11-06T03:00:00	4	Temperatura máxima	12.6
161491	7	Sololá	701	Sololá	2	El tablón	6	Junio	2023-06-22T00:00:00	2024-11-06T03:00:00	3	Temperatura mínima	12.1
161492	7	Sololá	701	Sololá	2	El tablón	6	Junio	2023-06-22T00:00:00	2024-11-06T03:00:00	5	Humedad	88
161493	7	Sololá	701	Sololá	2	El tablón	6	Junio	2023-06-22T00:00:00	2024-11-06T03:00:00	6	Velocidad del viento	3.2
161494	7	Sololá	701	Sololá	2	El tablón	6	Junio	2023-06-22T00:00:00	2024-11-06T03:00:00	7	Dirección del viento	3.22
161495	7	Sololá	701	Sololá	2	El tablón	6	Junio	2023-06-22T00:00:00	2024-11-06T03:00:00	1	Precipitación	0
161496	7	Sololá	701	Sololá	2	El tablón	6	Junio	2023-06-22T00:00:00	2024-11-06T03:00:00	8	Radiación solar	0
161497	7	Sololá	701	Sololá	2	El tablón	6	Junio	2023-06-22T00:00:00	2024-11-06T04:00:00	2	Temperatura media	11.9
161498	7	Sololá	701	Sololá	2	El tablón	6	Junio	2023-06-22T00:00:00	2024-11-06T04:00:00	4	Temperatura máxima	12.7
161499	7	Sololá	701	Sololá	2	El tablón	6	Junio	2023-06-22T00:00:00	2024-11-06T04:00:00	3	Temperatura mínima	11.9
161500	7	Sololá	701	Sololá	2	El tablón	6	Junio	2023-06-22T00:00:00	2024-11-06T04:00:00	5	Humedad	89
161501	7	Sololá	701	Sololá	2	El tablón	6	Junio	2023-06-22T00:00:00	2024-11-06T04:00:00	6	Velocidad del viento	3.2
161502	7	Sololá	701	Sololá	2	El tablón	6	Junio	2023-06-22T00:00:00	2024-11-06T04:00:00	7	Dirección del viento	3.22
161503	7	Sololá	701	Sololá	2	El tablón	6	Junio	2023-06-22T00:00:00	2024-11-06T04:00:00	1	Precipitación	0
161504	7	Sololá	701	Sololá	2	El tablón	6	Junio	2023-06-22T00:00:00	2024-11-06T04:00:00	8	Radiación solar	0
161505	7	Sololá	701	Sololá	2	El tablón	6	Junio	2023-06-22T00:00:00	2024-11-06T05:00:00	2	Temperatura media	12.1
161506	7	Sololá	701	Sololá	2	El tablón	6	Junio	2023-06-22T00:00:00	2024-11-06T05:00:00	4	Temperatura máxima	12.1
161507	7	Sololá	701	Sololá	2	El tablón	6	Junio	2023-06-22T00:00:00	2024-11-06T05:00:00	3	Temperatura mínima	11.8
161508	7	Sololá	701	Sololá	2	El tablón	6	Junio	2023-06-22T00:00:00	2024-11-06T05:00:00	5	Humedad	89
161509	7	Sololá	701	Sololá	2	El tablón	6	Junio	2023-06-22T00:00:00	2024-11-06T05:00:00	6	Velocidad del viento	3.2
161510	7	Sololá	701	Sololá	2	El tablón	6	Junio	2023-06-22T00:00:00	2024-11-06T05:00:00	7	Dirección del viento	3.22
161511	7	Sololá	701	Sololá	2	El tablón	6	Junio	2023-06-22T00:00:00	2024-11-06T05:00:00	1	Precipitación	0
161512	7	Sololá	701	Sololá	2	El tablón	6	Junio	2023-06-22T00:00:00	2024-11-06T05:00:00	8	Radiación solar	0
161513	7	Sololá	701	Sololá	2	El tablón	6	Junio	2023-06-22T00:00:00	2024-11-06T06:00:00	2	Temperatura media	12.2
161514	7	Sololá	701	Sololá	2	El tablón	6	Junio	2023-06-22T00:00:00	2024-11-06T06:00:00	4	Temperatura máxima	12.2
161515	7	Sololá	701	Sololá	2	El tablón	6	Junio	2023-06-22T00:00:00	2024-11-06T06:00:00	3	Temperatura mínima	11.9
161516	7	Sololá	701	Sololá	2	El tablón	6	Junio	2023-06-22T00:00:00	2024-11-06T06:00:00	5	Humedad	89
161517	7	Sololá	701	Sololá	2	El tablón	6	Junio	2023-06-22T00:00:00	2024-11-06T06:00:00	6	Velocidad del viento	1.6
161518	7	Sololá	701	Sololá	2	El tablón	6	Junio	2023-06-22T00:00:00	2024-11-06T06:00:00	7	Dirección del viento	1.61
161519	7	Sololá	701	Sololá	2	El tablón	6	Junio	2023-06-22T00:00:00	2024-11-06T06:00:00	1	Precipitación	0
161520	7	Sololá	701	Sololá	2	El tablón	6	Junio	2023-06-22T00:00:00	2024-11-06T06:00:00	8	Radiación solar	2
161521	7	Sololá	701	Sololá	2	El tablón	6	Junio	2023-06-22T00:00:00	2024-11-06T07:00:00	2	Temperatura media	12.7
161522	7	Sololá	701	Sololá	2	El tablón	6	Junio	2023-06-22T00:00:00	2024-11-06T07:00:00	4	Temperatura máxima	12.7
161523	7	Sololá	701	Sololá	2	El tablón	6	Junio	2023-06-22T00:00:00	2024-11-06T07:00:00	3	Temperatura mínima	12.2
161524	7	Sololá	701	Sololá	2	El tablón	6	Junio	2023-06-22T00:00:00	2024-11-06T07:00:00	5	Humedad	89
161525	7	Sololá	701	Sololá	2	El tablón	6	Junio	2023-06-22T00:00:00	2024-11-06T07:00:00	6	Velocidad del viento	1.6
161526	7	Sololá	701	Sololá	2	El tablón	6	Junio	2023-06-22T00:00:00	2024-11-06T07:00:00	7	Dirección del viento	1.61
161527	7	Sololá	701	Sololá	2	El tablón	6	Junio	2023-06-22T00:00:00	2024-11-06T07:00:00	1	Precipitación	0
161528	7	Sololá	701	Sololá	2	El tablón	6	Junio	2023-06-22T00:00:00	2024-11-06T07:00:00	8	Radiación solar	55
161529	7	Sololá	701	Sololá	2	El tablón	6	Junio	2023-06-22T00:00:00	2024-11-06T08:00:00	2	Temperatura media	14.3
161530	7	Sololá	701	Sololá	2	El tablón	6	Junio	2023-06-22T00:00:00	2024-11-06T08:00:00	4	Temperatura máxima	14.3
161531	7	Sololá	701	Sololá	2	El tablón	6	Junio	2023-06-22T00:00:00	2024-11-06T08:00:00	3	Temperatura mínima	12.8
161532	7	Sololá	701	Sololá	2	El tablón	6	Junio	2023-06-22T00:00:00	2024-11-06T08:00:00	5	Humedad	85
161533	7	Sololá	701	Sololá	2	El tablón	6	Junio	2023-06-22T00:00:00	2024-11-06T08:00:00	6	Velocidad del viento	0
161534	7	Sololá	701	Sololá	2	El tablón	6	Junio	2023-06-22T00:00:00	2024-11-06T08:00:00	7	Dirección del viento	0
161535	7	Sololá	701	Sololá	2	El tablón	6	Junio	2023-06-22T00:00:00	2024-11-06T08:00:00	1	Precipitación	0
161536	7	Sololá	701	Sololá	2	El tablón	6	Junio	2023-06-22T00:00:00	2024-11-06T08:00:00	8	Radiación solar	164
161537	7	Sololá	701	Sololá	2	El tablón	6	Junio	2023-06-22T00:00:00	2024-11-06T09:00:00	2	Temperatura media	17.2
161538	7	Sololá	701	Sololá	2	El tablón	6	Junio	2023-06-22T00:00:00	2024-11-06T09:00:00	4	Temperatura máxima	17.2
161539	7	Sololá	701	Sololá	2	El tablón	6	Junio	2023-06-22T00:00:00	2024-11-06T09:00:00	3	Temperatura mínima	14.3
161540	7	Sololá	701	Sololá	2	El tablón	6	Junio	2023-06-22T00:00:00	2024-11-06T09:00:00	5	Humedad	77
161541	7	Sololá	701	Sololá	2	El tablón	6	Junio	2023-06-22T00:00:00	2024-11-06T09:00:00	6	Velocidad del viento	4.8
161542	7	Sololá	701	Sololá	2	El tablón	6	Junio	2023-06-22T00:00:00	2024-11-06T09:00:00	7	Dirección del viento	4.83
161543	7	Sololá	701	Sololá	2	El tablón	6	Junio	2023-06-22T00:00:00	2024-11-06T09:00:00	1	Precipitación	0
161544	7	Sololá	701	Sololá	2	El tablón	6	Junio	2023-06-22T00:00:00	2024-11-06T09:00:00	8	Radiación solar	484
161545	7	Sololá	701	Sololá	2	El tablón	6	Junio	2023-06-22T00:00:00	2024-11-06T10:00:00	2	Temperatura media	16.5
161546	7	Sololá	701	Sololá	2	El tablón	6	Junio	2023-06-22T00:00:00	2024-11-06T10:00:00	4	Temperatura máxima	17.7
161547	7	Sololá	701	Sololá	2	El tablón	6	Junio	2023-06-22T00:00:00	2024-11-06T10:00:00	3	Temperatura mínima	16.1
161548	7	Sololá	701	Sololá	2	El tablón	6	Junio	2023-06-22T00:00:00	2024-11-06T10:00:00	5	Humedad	84
161549	7	Sololá	701	Sololá	2	El tablón	6	Junio	2023-06-22T00:00:00	2024-11-06T10:00:00	6	Velocidad del viento	3.2
161550	7	Sololá	701	Sololá	2	El tablón	6	Junio	2023-06-22T00:00:00	2024-11-06T10:00:00	7	Dirección del viento	3.22
161551	7	Sololá	701	Sololá	2	El tablón	6	Junio	2023-06-22T00:00:00	2024-11-06T10:00:00	1	Precipitación	0
161552	7	Sololá	701	Sololá	2	El tablón	6	Junio	2023-06-22T00:00:00	2024-11-06T10:00:00	8	Radiación solar	297
161553	7	Sololá	701	Sololá	2	El tablón	6	Junio	2023-06-22T00:00:00	2024-11-06T11:00:00	2	Temperatura media	15.1
161554	7	Sololá	701	Sololá	2	El tablón	6	Junio	2023-06-22T00:00:00	2024-11-06T11:00:00	4	Temperatura máxima	17.2
161555	7	Sololá	701	Sololá	2	El tablón	6	Junio	2023-06-22T00:00:00	2024-11-06T11:00:00	3	Temperatura mínima	15.1
161556	7	Sololá	701	Sololá	2	El tablón	6	Junio	2023-06-22T00:00:00	2024-11-06T11:00:00	5	Humedad	86
161557	7	Sololá	701	Sololá	2	El tablón	6	Junio	2023-06-22T00:00:00	2024-11-06T11:00:00	6	Velocidad del viento	8
161558	7	Sololá	701	Sololá	2	El tablón	6	Junio	2023-06-22T00:00:00	2024-11-06T11:00:00	7	Dirección del viento	8.05
161559	7	Sololá	701	Sololá	2	El tablón	6	Junio	2023-06-22T00:00:00	2024-11-06T11:00:00	1	Precipitación	0
161560	7	Sololá	701	Sololá	2	El tablón	6	Junio	2023-06-22T00:00:00	2024-11-06T11:00:00	8	Radiación solar	295
161561	7	Sololá	701	Sololá	2	El tablón	6	Junio	2023-06-22T00:00:00	2024-11-06T12:00:00	2	Temperatura media	14.9
161562	7	Sololá	701	Sololá	2	El tablón	6	Junio	2023-06-22T00:00:00	2024-11-06T12:00:00	4	Temperatura máxima	15.1
161563	7	Sololá	701	Sololá	2	El tablón	6	Junio	2023-06-22T00:00:00	2024-11-06T12:00:00	3	Temperatura mínima	14.7
161564	7	Sololá	701	Sololá	2	El tablón	6	Junio	2023-06-22T00:00:00	2024-11-06T12:00:00	5	Humedad	88
161565	7	Sololá	701	Sololá	2	El tablón	6	Junio	2023-06-22T00:00:00	2024-11-06T12:00:00	6	Velocidad del viento	3.2
161566	7	Sololá	701	Sololá	2	El tablón	6	Junio	2023-06-22T00:00:00	2024-11-06T12:00:00	7	Dirección del viento	3.22
161567	7	Sololá	701	Sololá	2	El tablón	6	Junio	2023-06-22T00:00:00	2024-11-06T12:00:00	1	Precipitación	0
161568	7	Sololá	701	Sololá	2	El tablón	6	Junio	2023-06-22T00:00:00	2024-11-06T12:00:00	8	Radiación solar	141
161569	7	Sololá	701	Sololá	2	El tablón	6	Junio	2023-06-22T00:00:00	2024-11-06T13:00:00	2	Temperatura media	15.9
161570	7	Sololá	701	Sololá	2	El tablón	6	Junio	2023-06-22T00:00:00	2024-11-06T13:00:00	4	Temperatura máxima	16
161571	7	Sololá	701	Sololá	2	El tablón	6	Junio	2023-06-22T00:00:00	2024-11-06T13:00:00	3	Temperatura mínima	14.7
161572	7	Sololá	701	Sololá	2	El tablón	6	Junio	2023-06-22T00:00:00	2024-11-06T13:00:00	5	Humedad	88
161573	7	Sololá	701	Sololá	2	El tablón	6	Junio	2023-06-22T00:00:00	2024-11-06T13:00:00	6	Velocidad del viento	3.2
161574	7	Sololá	701	Sololá	2	El tablón	6	Junio	2023-06-22T00:00:00	2024-11-06T13:00:00	7	Dirección del viento	3.22
161575	7	Sololá	701	Sololá	2	El tablón	6	Junio	2023-06-22T00:00:00	2024-11-06T13:00:00	1	Precipitación	0
161576	7	Sololá	701	Sololá	2	El tablón	6	Junio	2023-06-22T00:00:00	2024-11-06T13:00:00	8	Radiación solar	313
161577	7	Sololá	701	Sololá	2	El tablón	6	Junio	2023-06-22T00:00:00	2024-11-06T14:00:00	2	Temperatura media	15.8
161578	7	Sololá	701	Sololá	2	El tablón	6	Junio	2023-06-22T00:00:00	2024-11-06T14:00:00	4	Temperatura máxima	16.3
161579	7	Sololá	701	Sololá	2	El tablón	6	Junio	2023-06-22T00:00:00	2024-11-06T14:00:00	3	Temperatura mínima	15.7
161580	7	Sololá	701	Sololá	2	El tablón	6	Junio	2023-06-22T00:00:00	2024-11-06T14:00:00	5	Humedad	88
161581	7	Sololá	701	Sololá	2	El tablón	6	Junio	2023-06-22T00:00:00	2024-11-06T14:00:00	6	Velocidad del viento	4.8
161582	7	Sololá	701	Sololá	2	El tablón	6	Junio	2023-06-22T00:00:00	2024-11-06T14:00:00	7	Dirección del viento	4.83
161583	7	Sololá	701	Sololá	2	El tablón	6	Junio	2023-06-22T00:00:00	2024-11-06T14:00:00	1	Precipitación	0
161584	7	Sololá	701	Sololá	2	El tablón	6	Junio	2023-06-22T00:00:00	2024-11-06T14:00:00	8	Radiación solar	326
161585	7	Sololá	701	Sololá	2	El tablón	6	Junio	2023-06-22T00:00:00	2024-11-06T15:00:00	2	Temperatura media	15.6
161586	7	Sololá	701	Sololá	2	El tablón	6	Junio	2023-06-22T00:00:00	2024-11-06T15:00:00	4	Temperatura máxima	15.9
161587	7	Sololá	701	Sololá	2	El tablón	6	Junio	2023-06-22T00:00:00	2024-11-06T15:00:00	3	Temperatura mínima	15.6
161588	7	Sololá	701	Sololá	2	El tablón	6	Junio	2023-06-22T00:00:00	2024-11-06T15:00:00	5	Humedad	88
161589	7	Sololá	701	Sololá	2	El tablón	6	Junio	2023-06-22T00:00:00	2024-11-06T15:00:00	6	Velocidad del viento	3.2
161590	7	Sololá	701	Sololá	2	El tablón	6	Junio	2023-06-22T00:00:00	2024-11-06T15:00:00	7	Dirección del viento	3.22
161591	7	Sololá	701	Sololá	2	El tablón	6	Junio	2023-06-22T00:00:00	2024-11-06T15:00:00	1	Precipitación	0
161592	7	Sololá	701	Sololá	2	El tablón	6	Junio	2023-06-22T00:00:00	2024-11-06T15:00:00	8	Radiación solar	203
161593	7	Sololá	701	Sololá	2	El tablón	6	Junio	2023-06-22T00:00:00	2024-11-06T16:00:00	2	Temperatura media	15.8
161594	7	Sololá	701	Sololá	2	El tablón	6	Junio	2023-06-22T00:00:00	2024-11-06T16:00:00	4	Temperatura máxima	16.3
161595	7	Sololá	701	Sololá	2	El tablón	6	Junio	2023-06-22T00:00:00	2024-11-06T16:00:00	3	Temperatura mínima	15.6
161596	7	Sololá	701	Sololá	2	El tablón	6	Junio	2023-06-22T00:00:00	2024-11-06T16:00:00	5	Humedad	88
161597	7	Sololá	701	Sololá	2	El tablón	6	Junio	2023-06-22T00:00:00	2024-11-06T16:00:00	6	Velocidad del viento	3.2
161598	7	Sololá	701	Sololá	2	El tablón	6	Junio	2023-06-22T00:00:00	2024-11-06T16:00:00	7	Dirección del viento	3.22
161599	7	Sololá	701	Sololá	2	El tablón	6	Junio	2023-06-22T00:00:00	2024-11-06T16:00:00	1	Precipitación	0
161600	7	Sololá	701	Sololá	2	El tablón	6	Junio	2023-06-22T00:00:00	2024-11-06T16:00:00	8	Radiación solar	165
161601	7	Sololá	701	Sololá	2	El tablón	6	Junio	2023-06-22T00:00:00	2024-11-06T17:00:00	2	Temperatura media	14.5
161602	7	Sololá	701	Sololá	2	El tablón	6	Junio	2023-06-22T00:00:00	2024-11-06T17:00:00	4	Temperatura máxima	15.8
161603	7	Sololá	701	Sololá	2	El tablón	6	Junio	2023-06-22T00:00:00	2024-11-06T17:00:00	3	Temperatura mínima	14.5
161604	7	Sololá	701	Sololá	2	El tablón	6	Junio	2023-06-22T00:00:00	2024-11-06T17:00:00	5	Humedad	88
161605	7	Sololá	701	Sololá	2	El tablón	6	Junio	2023-06-22T00:00:00	2024-11-06T17:00:00	6	Velocidad del viento	3.2
161606	7	Sololá	701	Sololá	2	El tablón	6	Junio	2023-06-22T00:00:00	2024-11-06T17:00:00	7	Dirección del viento	3.22
161607	7	Sololá	701	Sololá	2	El tablón	6	Junio	2023-06-22T00:00:00	2024-11-06T17:00:00	1	Precipitación	3.8
161608	7	Sololá	701	Sololá	2	El tablón	6	Junio	2023-06-22T00:00:00	2024-11-06T17:00:00	8	Radiación solar	26
161609	7	Sololá	701	Sololá	2	El tablón	6	Junio	2023-06-22T00:00:00	2024-11-06T18:00:00	2	Temperatura media	13.3
161610	7	Sololá	701	Sololá	2	El tablón	6	Junio	2023-06-22T00:00:00	2024-11-06T18:00:00	4	Temperatura máxima	14.5
161611	7	Sololá	701	Sololá	2	El tablón	6	Junio	2023-06-22T00:00:00	2024-11-06T18:00:00	3	Temperatura mínima	13.2
161612	7	Sololá	701	Sololá	2	El tablón	6	Junio	2023-06-22T00:00:00	2024-11-06T18:00:00	5	Humedad	87
161613	7	Sololá	701	Sololá	2	El tablón	6	Junio	2023-06-22T00:00:00	2024-11-06T18:00:00	6	Velocidad del viento	6.4
161614	7	Sololá	701	Sololá	2	El tablón	6	Junio	2023-06-22T00:00:00	2024-11-06T18:00:00	7	Dirección del viento	6.44
161615	7	Sololá	701	Sololá	2	El tablón	6	Junio	2023-06-22T00:00:00	2024-11-06T18:00:00	1	Precipitación	27.6
161616	7	Sololá	701	Sololá	2	El tablón	6	Junio	2023-06-22T00:00:00	2024-11-06T18:00:00	8	Radiación solar	2
161617	7	Sololá	701	Sololá	2	El tablón	6	Junio	2023-06-22T00:00:00	2024-11-06T19:00:00	2	Temperatura media	12.9
161618	7	Sololá	701	Sololá	2	El tablón	6	Junio	2023-06-22T00:00:00	2024-11-06T19:00:00	4	Temperatura máxima	13.3
161619	7	Sololá	701	Sololá	2	El tablón	6	Junio	2023-06-22T00:00:00	2024-11-06T19:00:00	3	Temperatura mínima	12.9
161620	7	Sololá	701	Sololá	2	El tablón	6	Junio	2023-06-22T00:00:00	2024-11-06T19:00:00	5	Humedad	87
161621	7	Sololá	701	Sololá	2	El tablón	6	Junio	2023-06-22T00:00:00	2024-11-06T19:00:00	6	Velocidad del viento	0
161622	7	Sololá	701	Sololá	2	El tablón	6	Junio	2023-06-22T00:00:00	2024-11-06T19:00:00	7	Dirección del viento	0
161623	7	Sololá	701	Sololá	2	El tablón	6	Junio	2023-06-22T00:00:00	2024-11-06T19:00:00	1	Precipitación	3.4
161624	7	Sololá	701	Sololá	2	El tablón	6	Junio	2023-06-22T00:00:00	2024-11-06T19:00:00	8	Radiación solar	0
161625	7	Sololá	701	Sololá	2	El tablón	6	Junio	2023-06-22T00:00:00	2024-11-06T20:00:00	2	Temperatura media	12.9
161626	7	Sololá	701	Sololá	2	El tablón	6	Junio	2023-06-22T00:00:00	2024-11-06T20:00:00	4	Temperatura máxima	13
161627	7	Sololá	701	Sololá	2	El tablón	6	Junio	2023-06-22T00:00:00	2024-11-06T20:00:00	3	Temperatura mínima	12.8
161628	7	Sololá	701	Sololá	2	El tablón	6	Junio	2023-06-22T00:00:00	2024-11-06T20:00:00	5	Humedad	87
161629	7	Sololá	701	Sololá	2	El tablón	6	Junio	2023-06-22T00:00:00	2024-11-06T20:00:00	6	Velocidad del viento	0
161630	7	Sololá	701	Sololá	2	El tablón	6	Junio	2023-06-22T00:00:00	2024-11-06T20:00:00	7	Dirección del viento	0
161631	7	Sololá	701	Sololá	2	El tablón	6	Junio	2023-06-22T00:00:00	2024-11-06T20:00:00	1	Precipitación	0.2
161632	7	Sololá	701	Sololá	2	El tablón	6	Junio	2023-06-22T00:00:00	2024-11-06T20:00:00	8	Radiación solar	0
161633	7	Sololá	701	Sololá	2	El tablón	6	Junio	2023-06-22T00:00:00	2024-11-06T21:00:00	2	Temperatura media	13.1
161634	7	Sololá	701	Sololá	2	El tablón	6	Junio	2023-06-22T00:00:00	2024-11-06T21:00:00	4	Temperatura máxima	13.1
161635	7	Sololá	701	Sololá	2	El tablón	6	Junio	2023-06-22T00:00:00	2024-11-06T21:00:00	3	Temperatura mínima	12.9
161636	7	Sololá	701	Sololá	2	El tablón	6	Junio	2023-06-22T00:00:00	2024-11-06T21:00:00	5	Humedad	87
161637	7	Sololá	701	Sololá	2	El tablón	6	Junio	2023-06-22T00:00:00	2024-11-06T21:00:00	6	Velocidad del viento	1.6
161638	7	Sololá	701	Sololá	2	El tablón	6	Junio	2023-06-22T00:00:00	2024-11-06T21:00:00	7	Dirección del viento	1.61
161639	7	Sololá	701	Sololá	2	El tablón	6	Junio	2023-06-22T00:00:00	2024-11-06T21:00:00	1	Precipitación	1.6
161640	7	Sololá	701	Sololá	2	El tablón	6	Junio	2023-06-22T00:00:00	2024-11-06T21:00:00	8	Radiación solar	0
161641	7	Sololá	701	Sololá	2	El tablón	6	Junio	2023-06-22T00:00:00	2024-11-06T22:00:00	2	Temperatura media	12.9
161642	7	Sololá	701	Sololá	2	El tablón	6	Junio	2023-06-22T00:00:00	2024-11-06T22:00:00	4	Temperatura máxima	13.1
161643	7	Sololá	701	Sololá	2	El tablón	6	Junio	2023-06-22T00:00:00	2024-11-06T22:00:00	3	Temperatura mínima	12.8
161644	7	Sololá	701	Sololá	2	El tablón	6	Junio	2023-06-22T00:00:00	2024-11-06T22:00:00	5	Humedad	86
161645	7	Sololá	701	Sololá	2	El tablón	6	Junio	2023-06-22T00:00:00	2024-11-06T22:00:00	6	Velocidad del viento	0
161646	7	Sololá	701	Sololá	2	El tablón	6	Junio	2023-06-22T00:00:00	2024-11-06T22:00:00	7	Dirección del viento	0
161647	7	Sololá	701	Sololá	2	El tablón	6	Junio	2023-06-22T00:00:00	2024-11-06T22:00:00	1	Precipitación	0
161648	7	Sololá	701	Sololá	2	El tablón	6	Junio	2023-06-22T00:00:00	2024-11-06T22:00:00	8	Radiación solar	0
161649	7	Sololá	701	Sololá	2	El tablón	6	Junio	2023-06-22T00:00:00	2024-11-06T23:00:00	2	Temperatura media	12.6
161650	7	Sololá	701	Sololá	2	El tablón	6	Junio	2023-06-22T00:00:00	2024-11-06T23:00:00	4	Temperatura máxima	12.9
161651	7	Sololá	701	Sololá	2	El tablón	6	Junio	2023-06-22T00:00:00	2024-11-06T23:00:00	3	Temperatura mínima	12.6
161652	7	Sololá	701	Sololá	2	El tablón	6	Junio	2023-06-22T00:00:00	2024-11-06T23:00:00	5	Humedad	86
161653	7	Sololá	701	Sololá	2	El tablón	6	Junio	2023-06-22T00:00:00	2024-11-06T23:00:00	6	Velocidad del viento	1.6
161654	7	Sololá	701	Sololá	2	El tablón	6	Junio	2023-06-22T00:00:00	2024-11-06T23:00:00	7	Dirección del viento	1.61
161655	7	Sololá	701	Sololá	2	El tablón	6	Junio	2023-06-22T00:00:00	2024-11-06T23:00:00	1	Precipitación	26.8
161656	7	Sololá	701	Sololá	2	El tablón	6	Junio	2023-06-22T00:00:00	2024-11-06T23:00:00	8	Radiación solar	0
161657	7	Sololá	701	Sololá	2	El tablón	6	Junio	2023-06-23T00:00:00	2024-11-06T00:00:00	2	Temperatura media	12.6
161658	7	Sololá	701	Sololá	2	El tablón	6	Junio	2023-06-23T00:00:00	2024-11-06T00:00:00	4	Temperatura máxima	12.7
161659	7	Sololá	701	Sololá	2	El tablón	6	Junio	2023-06-23T00:00:00	2024-11-06T00:00:00	3	Temperatura mínima	12.5
161660	7	Sololá	701	Sololá	2	El tablón	6	Junio	2023-06-23T00:00:00	2024-11-06T00:00:00	5	Humedad	86
161661	7	Sololá	701	Sololá	2	El tablón	6	Junio	2023-06-23T00:00:00	2024-11-06T00:00:00	6	Velocidad del viento	1.6
161662	7	Sololá	701	Sololá	2	El tablón	6	Junio	2023-06-23T00:00:00	2024-11-06T00:00:00	7	Dirección del viento	1.61
161663	7	Sololá	701	Sololá	2	El tablón	6	Junio	2023-06-23T00:00:00	2024-11-06T00:00:00	1	Precipitación	3.2
161664	7	Sololá	701	Sololá	2	El tablón	6	Junio	2023-06-23T00:00:00	2024-11-06T00:00:00	8	Radiación solar	0
161665	7	Sololá	701	Sololá	2	El tablón	6	Junio	2023-06-23T00:00:00	2024-11-06T01:00:00	2	Temperatura media	12.1
161666	7	Sololá	701	Sololá	2	El tablón	6	Junio	2023-06-23T00:00:00	2024-11-06T01:00:00	4	Temperatura máxima	12.6
161667	7	Sololá	701	Sololá	2	El tablón	6	Junio	2023-06-23T00:00:00	2024-11-06T01:00:00	3	Temperatura mínima	12.1
161668	7	Sololá	701	Sololá	2	El tablón	6	Junio	2023-06-23T00:00:00	2024-11-06T01:00:00	5	Humedad	86
161669	7	Sololá	701	Sololá	2	El tablón	6	Junio	2023-06-23T00:00:00	2024-11-06T01:00:00	6	Velocidad del viento	3.2
161670	7	Sololá	701	Sololá	2	El tablón	6	Junio	2023-06-23T00:00:00	2024-11-06T01:00:00	7	Dirección del viento	3.22
161671	7	Sololá	701	Sololá	2	El tablón	6	Junio	2023-06-23T00:00:00	2024-11-06T01:00:00	1	Precipitación	0
161672	7	Sololá	701	Sololá	2	El tablón	6	Junio	2023-06-23T00:00:00	2024-11-06T01:00:00	8	Radiación solar	0
161673	7	Sololá	701	Sololá	2	El tablón	6	Junio	2023-06-23T00:00:00	2024-11-06T02:00:00	2	Temperatura media	12.1
161674	7	Sololá	701	Sololá	2	El tablón	6	Junio	2023-06-23T00:00:00	2024-11-06T02:00:00	4	Temperatura máxima	12.3
161675	7	Sololá	701	Sololá	2	El tablón	6	Junio	2023-06-23T00:00:00	2024-11-06T02:00:00	3	Temperatura mínima	12.1
161676	7	Sololá	701	Sololá	2	El tablón	6	Junio	2023-06-23T00:00:00	2024-11-06T02:00:00	5	Humedad	87
161677	7	Sololá	701	Sololá	2	El tablón	6	Junio	2023-06-23T00:00:00	2024-11-06T02:00:00	6	Velocidad del viento	3.2
161678	7	Sololá	701	Sololá	2	El tablón	6	Junio	2023-06-23T00:00:00	2024-11-06T02:00:00	7	Dirección del viento	3.22
161679	7	Sololá	701	Sololá	2	El tablón	6	Junio	2023-06-23T00:00:00	2024-11-06T02:00:00	1	Precipitación	0
161680	7	Sololá	701	Sololá	2	El tablón	6	Junio	2023-06-23T00:00:00	2024-11-06T02:00:00	8	Radiación solar	0
161681	7	Sololá	701	Sololá	2	El tablón	6	Junio	2023-06-23T00:00:00	2024-11-06T03:00:00	2	Temperatura media	12.2
161682	7	Sololá	701	Sololá	2	El tablón	6	Junio	2023-06-23T00:00:00	2024-11-06T03:00:00	4	Temperatura máxima	12.2
161683	7	Sololá	701	Sololá	2	El tablón	6	Junio	2023-06-23T00:00:00	2024-11-06T03:00:00	3	Temperatura mínima	12.1
161684	7	Sololá	701	Sololá	2	El tablón	6	Junio	2023-06-23T00:00:00	2024-11-06T03:00:00	5	Humedad	87
161685	7	Sololá	701	Sololá	2	El tablón	6	Junio	2023-06-23T00:00:00	2024-11-06T03:00:00	6	Velocidad del viento	1.6
161686	7	Sololá	701	Sololá	2	El tablón	6	Junio	2023-06-23T00:00:00	2024-11-06T03:00:00	7	Dirección del viento	1.61
161687	7	Sololá	701	Sololá	2	El tablón	6	Junio	2023-06-23T00:00:00	2024-11-06T03:00:00	1	Precipitación	0
161688	7	Sololá	701	Sololá	2	El tablón	6	Junio	2023-06-23T00:00:00	2024-11-06T03:00:00	8	Radiación solar	0
161689	7	Sololá	701	Sololá	2	El tablón	6	Junio	2023-06-23T00:00:00	2024-11-06T04:00:00	2	Temperatura media	12.1
161690	7	Sololá	701	Sololá	2	El tablón	6	Junio	2023-06-23T00:00:00	2024-11-06T04:00:00	4	Temperatura máxima	12.3
161691	7	Sololá	701	Sololá	2	El tablón	6	Junio	2023-06-23T00:00:00	2024-11-06T04:00:00	3	Temperatura mínima	12.1
161692	7	Sololá	701	Sololá	2	El tablón	6	Junio	2023-06-23T00:00:00	2024-11-06T04:00:00	5	Humedad	87
161693	7	Sololá	701	Sololá	2	El tablón	6	Junio	2023-06-23T00:00:00	2024-11-06T04:00:00	6	Velocidad del viento	1.6
161694	7	Sololá	701	Sololá	2	El tablón	6	Junio	2023-06-23T00:00:00	2024-11-06T04:00:00	7	Dirección del viento	1.61
161695	7	Sololá	701	Sololá	2	El tablón	6	Junio	2023-06-23T00:00:00	2024-11-06T04:00:00	1	Precipitación	0
161696	7	Sololá	701	Sololá	2	El tablón	6	Junio	2023-06-23T00:00:00	2024-11-06T04:00:00	8	Radiación solar	0
161697	7	Sololá	701	Sololá	2	El tablón	6	Junio	2023-06-23T00:00:00	2024-11-06T05:00:00	2	Temperatura media	11.7
161698	7	Sololá	701	Sololá	2	El tablón	6	Junio	2023-06-23T00:00:00	2024-11-06T05:00:00	4	Temperatura máxima	12.2
161699	7	Sololá	701	Sololá	2	El tablón	6	Junio	2023-06-23T00:00:00	2024-11-06T05:00:00	3	Temperatura mínima	11.7
161700	7	Sololá	701	Sololá	2	El tablón	6	Junio	2023-06-23T00:00:00	2024-11-06T05:00:00	5	Humedad	88
161701	7	Sololá	701	Sololá	2	El tablón	6	Junio	2023-06-23T00:00:00	2024-11-06T05:00:00	6	Velocidad del viento	3.2
161702	7	Sololá	701	Sololá	2	El tablón	6	Junio	2023-06-23T00:00:00	2024-11-06T05:00:00	7	Dirección del viento	3.22
161703	7	Sololá	701	Sololá	2	El tablón	6	Junio	2023-06-23T00:00:00	2024-11-06T05:00:00	1	Precipitación	0.2
161704	7	Sololá	701	Sololá	2	El tablón	6	Junio	2023-06-23T00:00:00	2024-11-06T05:00:00	8	Radiación solar	0
161705	7	Sololá	701	Sololá	2	El tablón	6	Junio	2023-06-23T00:00:00	2024-11-06T06:00:00	2	Temperatura media	11.4
161706	7	Sololá	701	Sololá	2	El tablón	6	Junio	2023-06-23T00:00:00	2024-11-06T06:00:00	4	Temperatura máxima	11.7
161707	7	Sololá	701	Sololá	2	El tablón	6	Junio	2023-06-23T00:00:00	2024-11-06T06:00:00	3	Temperatura mínima	11.4
161708	7	Sololá	701	Sololá	2	El tablón	6	Junio	2023-06-23T00:00:00	2024-11-06T06:00:00	5	Humedad	89
161709	7	Sololá	701	Sololá	2	El tablón	6	Junio	2023-06-23T00:00:00	2024-11-06T06:00:00	6	Velocidad del viento	1.6
161710	7	Sololá	701	Sololá	2	El tablón	6	Junio	2023-06-23T00:00:00	2024-11-06T06:00:00	7	Dirección del viento	1.61
161711	7	Sololá	701	Sololá	2	El tablón	6	Junio	2023-06-23T00:00:00	2024-11-06T06:00:00	1	Precipitación	0
161712	7	Sololá	701	Sololá	2	El tablón	6	Junio	2023-06-23T00:00:00	2024-11-06T06:00:00	8	Radiación solar	3
161713	7	Sololá	701	Sololá	2	El tablón	6	Junio	2023-06-23T00:00:00	2024-11-06T07:00:00	2	Temperatura media	13.7
161714	7	Sololá	701	Sololá	2	El tablón	6	Junio	2023-06-23T00:00:00	2024-11-06T07:00:00	4	Temperatura máxima	13.7
161715	7	Sololá	701	Sololá	2	El tablón	6	Junio	2023-06-23T00:00:00	2024-11-06T07:00:00	3	Temperatura mínima	11.4
161716	7	Sololá	701	Sololá	2	El tablón	6	Junio	2023-06-23T00:00:00	2024-11-06T07:00:00	5	Humedad	89
161717	7	Sololá	701	Sololá	2	El tablón	6	Junio	2023-06-23T00:00:00	2024-11-06T07:00:00	6	Velocidad del viento	1.6
161718	7	Sololá	701	Sololá	2	El tablón	6	Junio	2023-06-23T00:00:00	2024-11-06T07:00:00	7	Dirección del viento	1.61
161719	7	Sololá	701	Sololá	2	El tablón	6	Junio	2023-06-23T00:00:00	2024-11-06T07:00:00	1	Precipitación	0
161720	7	Sololá	701	Sololá	2	El tablón	6	Junio	2023-06-23T00:00:00	2024-11-06T07:00:00	8	Radiación solar	113
161721	7	Sololá	701	Sololá	2	El tablón	6	Junio	2023-06-23T00:00:00	2024-11-06T08:00:00	2	Temperatura media	15.2
161722	7	Sololá	701	Sololá	2	El tablón	6	Junio	2023-06-23T00:00:00	2024-11-06T08:00:00	4	Temperatura máxima	15.3
161723	7	Sololá	701	Sololá	2	El tablón	6	Junio	2023-06-23T00:00:00	2024-11-06T08:00:00	3	Temperatura mínima	13.7
161724	7	Sololá	701	Sololá	2	El tablón	6	Junio	2023-06-23T00:00:00	2024-11-06T08:00:00	5	Humedad	85
161725	7	Sololá	701	Sololá	2	El tablón	6	Junio	2023-06-23T00:00:00	2024-11-06T08:00:00	6	Velocidad del viento	1.6
161726	7	Sololá	701	Sololá	2	El tablón	6	Junio	2023-06-23T00:00:00	2024-11-06T08:00:00	7	Dirección del viento	1.61
161727	7	Sololá	701	Sololá	2	El tablón	6	Junio	2023-06-23T00:00:00	2024-11-06T08:00:00	1	Precipitación	0
161728	7	Sololá	701	Sololá	2	El tablón	6	Junio	2023-06-23T00:00:00	2024-11-06T08:00:00	8	Radiación solar	301
161729	7	Sololá	701	Sololá	2	El tablón	6	Junio	2023-06-23T00:00:00	2024-11-06T09:00:00	2	Temperatura media	17.7
161730	7	Sololá	701	Sololá	2	El tablón	6	Junio	2023-06-23T00:00:00	2024-11-06T09:00:00	4	Temperatura máxima	17.7
161731	7	Sololá	701	Sololá	2	El tablón	6	Junio	2023-06-23T00:00:00	2024-11-06T09:00:00	3	Temperatura mínima	15.2
161732	7	Sololá	701	Sololá	2	El tablón	6	Junio	2023-06-23T00:00:00	2024-11-06T09:00:00	5	Humedad	80
161733	7	Sololá	701	Sololá	2	El tablón	6	Junio	2023-06-23T00:00:00	2024-11-06T09:00:00	6	Velocidad del viento	1.6
161734	7	Sololá	701	Sololá	2	El tablón	6	Junio	2023-06-23T00:00:00	2024-11-06T09:00:00	7	Dirección del viento	1.61
161735	7	Sololá	701	Sololá	2	El tablón	6	Junio	2023-06-23T00:00:00	2024-11-06T09:00:00	1	Precipitación	0
161736	7	Sololá	701	Sololá	2	El tablón	6	Junio	2023-06-23T00:00:00	2024-11-06T09:00:00	8	Radiación solar	467
161737	7	Sololá	701	Sololá	2	El tablón	6	Junio	2023-06-23T00:00:00	2024-11-06T10:00:00	2	Temperatura media	17.4
161738	7	Sololá	701	Sololá	2	El tablón	6	Junio	2023-06-23T00:00:00	2024-11-06T10:00:00	4	Temperatura máxima	18.6
161739	7	Sololá	701	Sololá	2	El tablón	6	Junio	2023-06-23T00:00:00	2024-11-06T10:00:00	3	Temperatura mínima	17.1
161740	7	Sololá	701	Sololá	2	El tablón	6	Junio	2023-06-23T00:00:00	2024-11-06T10:00:00	5	Humedad	85
161741	7	Sololá	701	Sololá	2	El tablón	6	Junio	2023-06-23T00:00:00	2024-11-06T10:00:00	6	Velocidad del viento	4.8
161742	7	Sololá	701	Sololá	2	El tablón	6	Junio	2023-06-23T00:00:00	2024-11-06T10:00:00	7	Dirección del viento	4.83
161743	7	Sololá	701	Sololá	2	El tablón	6	Junio	2023-06-23T00:00:00	2024-11-06T10:00:00	1	Precipitación	0
161744	7	Sololá	701	Sololá	2	El tablón	6	Junio	2023-06-23T00:00:00	2024-11-06T10:00:00	8	Radiación solar	592
161745	7	Sololá	701	Sololá	2	El tablón	6	Junio	2023-06-23T00:00:00	2024-11-06T11:00:00	2	Temperatura media	17.9
161746	7	Sololá	701	Sololá	2	El tablón	6	Junio	2023-06-23T00:00:00	2024-11-06T11:00:00	4	Temperatura máxima	18.3
161747	7	Sololá	701	Sololá	2	El tablón	6	Junio	2023-06-23T00:00:00	2024-11-06T11:00:00	3	Temperatura mínima	17.4
161748	7	Sololá	701	Sololá	2	El tablón	6	Junio	2023-06-23T00:00:00	2024-11-06T11:00:00	5	Humedad	81
161749	7	Sololá	701	Sololá	2	El tablón	6	Junio	2023-06-23T00:00:00	2024-11-06T11:00:00	6	Velocidad del viento	6.4
161750	7	Sololá	701	Sololá	2	El tablón	6	Junio	2023-06-23T00:00:00	2024-11-06T11:00:00	7	Dirección del viento	6.44
161751	7	Sololá	701	Sololá	2	El tablón	6	Junio	2023-06-23T00:00:00	2024-11-06T11:00:00	1	Precipitación	0
161752	7	Sololá	701	Sololá	2	El tablón	6	Junio	2023-06-23T00:00:00	2024-11-06T11:00:00	8	Radiación solar	589
161753	7	Sololá	701	Sololá	2	El tablón	6	Junio	2023-06-23T00:00:00	2024-11-06T12:00:00	2	Temperatura media	16.2
161754	7	Sololá	701	Sololá	2	El tablón	6	Junio	2023-06-23T00:00:00	2024-11-06T12:00:00	4	Temperatura máxima	17.9
161755	7	Sololá	701	Sololá	2	El tablón	6	Junio	2023-06-23T00:00:00	2024-11-06T12:00:00	3	Temperatura mínima	16.2
161756	7	Sololá	701	Sololá	2	El tablón	6	Junio	2023-06-23T00:00:00	2024-11-06T12:00:00	5	Humedad	85
161757	7	Sololá	701	Sololá	2	El tablón	6	Junio	2023-06-23T00:00:00	2024-11-06T12:00:00	6	Velocidad del viento	8
161758	7	Sololá	701	Sololá	2	El tablón	6	Junio	2023-06-23T00:00:00	2024-11-06T12:00:00	7	Dirección del viento	8.05
161759	7	Sololá	701	Sololá	2	El tablón	6	Junio	2023-06-23T00:00:00	2024-11-06T12:00:00	1	Precipitación	0
161760	7	Sololá	701	Sololá	2	El tablón	6	Junio	2023-06-23T00:00:00	2024-11-06T12:00:00	8	Radiación solar	520
161761	7	Sololá	701	Sololá	2	El tablón	6	Junio	2023-06-23T00:00:00	2024-11-06T13:00:00	2	Temperatura media	15.7
161762	7	Sololá	701	Sololá	2	El tablón	6	Junio	2023-06-23T00:00:00	2024-11-06T13:00:00	4	Temperatura máxima	17.3
161763	7	Sololá	701	Sololá	2	El tablón	6	Junio	2023-06-23T00:00:00	2024-11-06T13:00:00	3	Temperatura mínima	15.7
161764	7	Sololá	701	Sololá	2	El tablón	6	Junio	2023-06-23T00:00:00	2024-11-06T13:00:00	5	Humedad	86
161765	7	Sololá	701	Sololá	2	El tablón	6	Junio	2023-06-23T00:00:00	2024-11-06T13:00:00	6	Velocidad del viento	8
161766	7	Sololá	701	Sololá	2	El tablón	6	Junio	2023-06-23T00:00:00	2024-11-06T13:00:00	7	Dirección del viento	8.05
161767	7	Sololá	701	Sololá	2	El tablón	6	Junio	2023-06-23T00:00:00	2024-11-06T13:00:00	1	Precipitación	0
161768	7	Sololá	701	Sololá	2	El tablón	6	Junio	2023-06-23T00:00:00	2024-11-06T13:00:00	8	Radiación solar	375
161769	7	Sololá	701	Sololá	2	El tablón	6	Junio	2023-06-23T00:00:00	2024-11-06T14:00:00	2	Temperatura media	15.8
161770	7	Sololá	701	Sololá	2	El tablón	6	Junio	2023-06-23T00:00:00	2024-11-06T14:00:00	4	Temperatura máxima	15.8
161771	7	Sololá	701	Sololá	2	El tablón	6	Junio	2023-06-23T00:00:00	2024-11-06T14:00:00	3	Temperatura mínima	15.2
161772	7	Sololá	701	Sololá	2	El tablón	6	Junio	2023-06-23T00:00:00	2024-11-06T14:00:00	5	Humedad	87
161773	7	Sololá	701	Sololá	2	El tablón	6	Junio	2023-06-23T00:00:00	2024-11-06T14:00:00	6	Velocidad del viento	6.4
161774	7	Sololá	701	Sololá	2	El tablón	6	Junio	2023-06-23T00:00:00	2024-11-06T14:00:00	7	Dirección del viento	6.44
161775	7	Sololá	701	Sololá	2	El tablón	6	Junio	2023-06-23T00:00:00	2024-11-06T14:00:00	1	Precipitación	0
161776	7	Sololá	701	Sololá	2	El tablón	6	Junio	2023-06-23T00:00:00	2024-11-06T14:00:00	8	Radiación solar	189
161777	7	Sololá	701	Sololá	2	El tablón	6	Junio	2023-06-23T00:00:00	2024-11-06T15:00:00	2	Temperatura media	14.5
161778	7	Sololá	701	Sololá	2	El tablón	6	Junio	2023-06-23T00:00:00	2024-11-06T15:00:00	4	Temperatura máxima	15.8
161779	7	Sololá	701	Sololá	2	El tablón	6	Junio	2023-06-23T00:00:00	2024-11-06T15:00:00	3	Temperatura mínima	14.4
161780	7	Sololá	701	Sololá	2	El tablón	6	Junio	2023-06-23T00:00:00	2024-11-06T15:00:00	5	Humedad	88
161781	7	Sololá	701	Sololá	2	El tablón	6	Junio	2023-06-23T00:00:00	2024-11-06T15:00:00	6	Velocidad del viento	4.8
161782	7	Sololá	701	Sololá	2	El tablón	6	Junio	2023-06-23T00:00:00	2024-11-06T15:00:00	7	Dirección del viento	4.83
161783	7	Sololá	701	Sololá	2	El tablón	6	Junio	2023-06-23T00:00:00	2024-11-06T15:00:00	1	Precipitación	0.2
161784	7	Sololá	701	Sololá	2	El tablón	6	Junio	2023-06-23T00:00:00	2024-11-06T15:00:00	8	Radiación solar	97
161785	7	Sololá	701	Sololá	2	El tablón	6	Junio	2023-06-23T00:00:00	2024-11-06T16:00:00	2	Temperatura media	13.8
161786	7	Sololá	701	Sololá	2	El tablón	6	Junio	2023-06-23T00:00:00	2024-11-06T16:00:00	4	Temperatura máxima	14.5
161787	7	Sololá	701	Sololá	2	El tablón	6	Junio	2023-06-23T00:00:00	2024-11-06T16:00:00	3	Temperatura mínima	13.8
161788	7	Sololá	701	Sololá	2	El tablón	6	Junio	2023-06-23T00:00:00	2024-11-06T16:00:00	5	Humedad	88
161789	7	Sololá	701	Sololá	2	El tablón	6	Junio	2023-06-23T00:00:00	2024-11-06T16:00:00	6	Velocidad del viento	1.6
161790	7	Sololá	701	Sololá	2	El tablón	6	Junio	2023-06-23T00:00:00	2024-11-06T16:00:00	7	Dirección del viento	1.61
161791	7	Sololá	701	Sololá	2	El tablón	6	Junio	2023-06-23T00:00:00	2024-11-06T16:00:00	1	Precipitación	3.2
161792	7	Sololá	701	Sololá	2	El tablón	6	Junio	2023-06-23T00:00:00	2024-11-06T16:00:00	8	Radiación solar	55
161793	7	Sololá	701	Sololá	2	El tablón	6	Junio	2023-06-23T00:00:00	2024-11-06T17:00:00	2	Temperatura media	13.2
161794	7	Sololá	701	Sololá	2	El tablón	6	Junio	2023-06-23T00:00:00	2024-11-06T17:00:00	4	Temperatura máxima	13.8
161795	7	Sololá	701	Sololá	2	El tablón	6	Junio	2023-06-23T00:00:00	2024-11-06T17:00:00	3	Temperatura mínima	13.2
161796	7	Sololá	701	Sololá	2	El tablón	6	Junio	2023-06-23T00:00:00	2024-11-06T17:00:00	5	Humedad	88
161797	7	Sololá	701	Sololá	2	El tablón	6	Junio	2023-06-23T00:00:00	2024-11-06T17:00:00	6	Velocidad del viento	3.2
161798	7	Sololá	701	Sololá	2	El tablón	6	Junio	2023-06-23T00:00:00	2024-11-06T17:00:00	7	Dirección del viento	3.22
161799	7	Sololá	701	Sololá	2	El tablón	6	Junio	2023-06-23T00:00:00	2024-11-06T17:00:00	1	Precipitación	4.8
161800	7	Sololá	701	Sololá	2	El tablón	6	Junio	2023-06-23T00:00:00	2024-11-06T17:00:00	8	Radiación solar	5
161801	7	Sololá	701	Sololá	2	El tablón	6	Junio	2023-06-23T00:00:00	2024-11-06T18:00:00	2	Temperatura media	12.6
161802	7	Sololá	701	Sololá	2	El tablón	6	Junio	2023-06-23T00:00:00	2024-11-06T18:00:00	4	Temperatura máxima	13.2
161803	7	Sololá	701	Sololá	2	El tablón	6	Junio	2023-06-23T00:00:00	2024-11-06T18:00:00	3	Temperatura mínima	12.6
161804	7	Sololá	701	Sololá	2	El tablón	6	Junio	2023-06-23T00:00:00	2024-11-06T18:00:00	5	Humedad	87
161805	7	Sololá	701	Sololá	2	El tablón	6	Junio	2023-06-23T00:00:00	2024-11-06T18:00:00	6	Velocidad del viento	1.6
161806	7	Sololá	701	Sololá	2	El tablón	6	Junio	2023-06-23T00:00:00	2024-11-06T18:00:00	7	Dirección del viento	1.61
161807	7	Sololá	701	Sololá	2	El tablón	6	Junio	2023-06-23T00:00:00	2024-11-06T18:00:00	1	Precipitación	5.8
161808	7	Sololá	701	Sololá	2	El tablón	6	Junio	2023-06-23T00:00:00	2024-11-06T18:00:00	8	Radiación solar	0
161809	7	Sololá	701	Sololá	2	El tablón	6	Junio	2023-06-23T00:00:00	2024-11-06T19:00:00	2	Temperatura media	12.6
161810	7	Sololá	701	Sololá	2	El tablón	6	Junio	2023-06-23T00:00:00	2024-11-06T19:00:00	4	Temperatura máxima	12.6
161811	7	Sololá	701	Sololá	2	El tablón	6	Junio	2023-06-23T00:00:00	2024-11-06T19:00:00	3	Temperatura mínima	12.4
161812	7	Sololá	701	Sololá	2	El tablón	6	Junio	2023-06-23T00:00:00	2024-11-06T19:00:00	5	Humedad	87
161813	7	Sololá	701	Sololá	2	El tablón	6	Junio	2023-06-23T00:00:00	2024-11-06T19:00:00	6	Velocidad del viento	3.2
161814	7	Sololá	701	Sololá	2	El tablón	6	Junio	2023-06-23T00:00:00	2024-11-06T19:00:00	7	Dirección del viento	3.22
161815	7	Sololá	701	Sololá	2	El tablón	6	Junio	2023-06-23T00:00:00	2024-11-06T19:00:00	1	Precipitación	1.4
161816	7	Sololá	701	Sololá	2	El tablón	6	Junio	2023-06-23T00:00:00	2024-11-06T19:00:00	8	Radiación solar	0
161817	7	Sololá	701	Sololá	2	El tablón	6	Junio	2023-06-23T00:00:00	2024-11-06T20:00:00	2	Temperatura media	12.1
161818	7	Sololá	701	Sololá	2	El tablón	6	Junio	2023-06-23T00:00:00	2024-11-06T20:00:00	4	Temperatura máxima	12.6
161819	7	Sololá	701	Sololá	2	El tablón	6	Junio	2023-06-23T00:00:00	2024-11-06T20:00:00	3	Temperatura mínima	12.1
161820	7	Sololá	701	Sololá	2	El tablón	6	Junio	2023-06-23T00:00:00	2024-11-06T20:00:00	5	Humedad	87
161821	7	Sololá	701	Sololá	2	El tablón	6	Junio	2023-06-23T00:00:00	2024-11-06T20:00:00	6	Velocidad del viento	1.6
161822	7	Sololá	701	Sololá	2	El tablón	6	Junio	2023-06-23T00:00:00	2024-11-06T20:00:00	7	Dirección del viento	1.61
161823	7	Sololá	701	Sololá	2	El tablón	6	Junio	2023-06-23T00:00:00	2024-11-06T20:00:00	1	Precipitación	0.2
161824	7	Sololá	701	Sololá	2	El tablón	6	Junio	2023-06-23T00:00:00	2024-11-06T20:00:00	8	Radiación solar	0
161825	7	Sololá	701	Sololá	2	El tablón	6	Junio	2023-06-23T00:00:00	2024-11-06T21:00:00	2	Temperatura media	11.8
161826	7	Sololá	701	Sololá	2	El tablón	6	Junio	2023-06-23T00:00:00	2024-11-06T21:00:00	4	Temperatura máxima	12.1
161827	7	Sololá	701	Sololá	2	El tablón	6	Junio	2023-06-23T00:00:00	2024-11-06T21:00:00	3	Temperatura mínima	11.7
161828	7	Sololá	701	Sololá	2	El tablón	6	Junio	2023-06-23T00:00:00	2024-11-06T21:00:00	5	Humedad	88
161829	7	Sololá	701	Sololá	2	El tablón	6	Junio	2023-06-23T00:00:00	2024-11-06T21:00:00	6	Velocidad del viento	1.6
161830	7	Sololá	701	Sololá	2	El tablón	6	Junio	2023-06-23T00:00:00	2024-11-06T21:00:00	7	Dirección del viento	1.61
161831	7	Sololá	701	Sololá	2	El tablón	6	Junio	2023-06-23T00:00:00	2024-11-06T21:00:00	1	Precipitación	0
161832	7	Sololá	701	Sololá	2	El tablón	6	Junio	2023-06-23T00:00:00	2024-11-06T21:00:00	8	Radiación solar	0
161833	7	Sololá	701	Sololá	2	El tablón	6	Junio	2023-06-23T00:00:00	2024-11-06T22:00:00	2	Temperatura media	12.1
161834	7	Sololá	701	Sololá	2	El tablón	6	Junio	2023-06-23T00:00:00	2024-11-06T22:00:00	4	Temperatura máxima	12.1
161835	7	Sololá	701	Sololá	2	El tablón	6	Junio	2023-06-23T00:00:00	2024-11-06T22:00:00	3	Temperatura mínima	11.8
161836	7	Sololá	701	Sololá	2	El tablón	6	Junio	2023-06-23T00:00:00	2024-11-06T22:00:00	5	Humedad	89
161837	7	Sololá	701	Sololá	2	El tablón	6	Junio	2023-06-23T00:00:00	2024-11-06T22:00:00	6	Velocidad del viento	1.6
161838	7	Sololá	701	Sololá	2	El tablón	6	Junio	2023-06-23T00:00:00	2024-11-06T22:00:00	7	Dirección del viento	1.61
161839	7	Sololá	701	Sololá	2	El tablón	6	Junio	2023-06-23T00:00:00	2024-11-06T22:00:00	1	Precipitación	0
161840	7	Sololá	701	Sololá	2	El tablón	6	Junio	2023-06-23T00:00:00	2024-11-06T22:00:00	8	Radiación solar	0
161841	7	Sololá	701	Sololá	2	El tablón	6	Junio	2023-06-23T00:00:00	2024-11-06T23:00:00	2	Temperatura media	12.6
161842	7	Sololá	701	Sololá	2	El tablón	6	Junio	2023-06-23T00:00:00	2024-11-06T23:00:00	4	Temperatura máxima	12.6
161843	7	Sololá	701	Sololá	2	El tablón	6	Junio	2023-06-23T00:00:00	2024-11-06T23:00:00	3	Temperatura mínima	12.1
161844	7	Sololá	701	Sololá	2	El tablón	6	Junio	2023-06-23T00:00:00	2024-11-06T23:00:00	5	Humedad	89
161845	7	Sololá	701	Sololá	2	El tablón	6	Junio	2023-06-23T00:00:00	2024-11-06T23:00:00	6	Velocidad del viento	0
161846	7	Sololá	701	Sololá	2	El tablón	6	Junio	2023-06-23T00:00:00	2024-11-06T23:00:00	7	Dirección del viento	0
161847	7	Sololá	701	Sololá	2	El tablón	6	Junio	2023-06-23T00:00:00	2024-11-06T23:00:00	1	Precipitación	0
161848	7	Sololá	701	Sololá	2	El tablón	6	Junio	2023-06-23T00:00:00	2024-11-06T23:00:00	8	Radiación solar	0
161849	7	Sololá	701	Sololá	2	El tablón	6	Junio	2023-06-24T00:00:00	2024-11-06T00:00:00	2	Temperatura media	12.4
161850	7	Sololá	701	Sololá	2	El tablón	6	Junio	2023-06-24T00:00:00	2024-11-06T00:00:00	4	Temperatura máxima	12.6
161851	7	Sololá	701	Sololá	2	El tablón	6	Junio	2023-06-24T00:00:00	2024-11-06T00:00:00	3	Temperatura mínima	12.3
161852	7	Sololá	701	Sololá	2	El tablón	6	Junio	2023-06-24T00:00:00	2024-11-06T00:00:00	5	Humedad	89
161853	7	Sololá	701	Sololá	2	El tablón	6	Junio	2023-06-24T00:00:00	2024-11-06T00:00:00	6	Velocidad del viento	0
161854	7	Sololá	701	Sololá	2	El tablón	6	Junio	2023-06-24T00:00:00	2024-11-06T00:00:00	7	Dirección del viento	0
161855	7	Sololá	701	Sololá	2	El tablón	6	Junio	2023-06-24T00:00:00	2024-11-06T00:00:00	1	Precipitación	0
161856	7	Sololá	701	Sololá	2	El tablón	6	Junio	2023-06-24T00:00:00	2024-11-06T00:00:00	8	Radiación solar	0
161857	7	Sololá	701	Sololá	2	El tablón	6	Junio	2023-06-24T00:00:00	2024-11-06T01:00:00	2	Temperatura media	12.2
161858	7	Sololá	701	Sololá	2	El tablón	6	Junio	2023-06-24T00:00:00	2024-11-06T01:00:00	4	Temperatura máxima	12.6
161859	7	Sololá	701	Sololá	2	El tablón	6	Junio	2023-06-24T00:00:00	2024-11-06T01:00:00	3	Temperatura mínima	12.2
161860	7	Sololá	701	Sololá	2	El tablón	6	Junio	2023-06-24T00:00:00	2024-11-06T01:00:00	5	Humedad	89
161861	7	Sololá	701	Sololá	2	El tablón	6	Junio	2023-06-24T00:00:00	2024-11-06T01:00:00	6	Velocidad del viento	1.6
161862	7	Sololá	701	Sololá	2	El tablón	6	Junio	2023-06-24T00:00:00	2024-11-06T01:00:00	7	Dirección del viento	1.61
161863	7	Sololá	701	Sololá	2	El tablón	6	Junio	2023-06-24T00:00:00	2024-11-06T01:00:00	1	Precipitación	0
161864	7	Sololá	701	Sololá	2	El tablón	6	Junio	2023-06-24T00:00:00	2024-11-06T01:00:00	8	Radiación solar	0
161865	7	Sololá	701	Sololá	2	El tablón	6	Junio	2023-06-24T00:00:00	2024-11-06T02:00:00	2	Temperatura media	11.9
161866	7	Sololá	701	Sololá	2	El tablón	6	Junio	2023-06-24T00:00:00	2024-11-06T02:00:00	4	Temperatura máxima	12.3
161867	7	Sololá	701	Sololá	2	El tablón	6	Junio	2023-06-24T00:00:00	2024-11-06T02:00:00	3	Temperatura mínima	11.8
161868	7	Sololá	701	Sololá	2	El tablón	6	Junio	2023-06-24T00:00:00	2024-11-06T02:00:00	5	Humedad	89
161869	7	Sololá	701	Sololá	2	El tablón	6	Junio	2023-06-24T00:00:00	2024-11-06T02:00:00	6	Velocidad del viento	1.6
161870	7	Sololá	701	Sololá	2	El tablón	6	Junio	2023-06-24T00:00:00	2024-11-06T02:00:00	7	Dirección del viento	1.61
161871	7	Sololá	701	Sololá	2	El tablón	6	Junio	2023-06-24T00:00:00	2024-11-06T02:00:00	1	Precipitación	0
161872	7	Sololá	701	Sololá	2	El tablón	6	Junio	2023-06-24T00:00:00	2024-11-06T02:00:00	8	Radiación solar	0
161873	7	Sololá	701	Sololá	2	El tablón	6	Junio	2023-06-24T00:00:00	2024-11-06T03:00:00	2	Temperatura media	11.3
161874	7	Sololá	701	Sololá	2	El tablón	6	Junio	2023-06-24T00:00:00	2024-11-06T03:00:00	4	Temperatura máxima	11.9
161875	7	Sololá	701	Sololá	2	El tablón	6	Junio	2023-06-24T00:00:00	2024-11-06T03:00:00	3	Temperatura mínima	11.3
161876	7	Sololá	701	Sololá	2	El tablón	6	Junio	2023-06-24T00:00:00	2024-11-06T03:00:00	5	Humedad	88
161877	7	Sololá	701	Sololá	2	El tablón	6	Junio	2023-06-24T00:00:00	2024-11-06T03:00:00	6	Velocidad del viento	0
161878	7	Sololá	701	Sololá	2	El tablón	6	Junio	2023-06-24T00:00:00	2024-11-06T03:00:00	7	Dirección del viento	0
161879	7	Sololá	701	Sololá	2	El tablón	6	Junio	2023-06-24T00:00:00	2024-11-06T03:00:00	1	Precipitación	0
161880	7	Sololá	701	Sololá	2	El tablón	6	Junio	2023-06-24T00:00:00	2024-11-06T03:00:00	8	Radiación solar	0
161881	7	Sololá	701	Sololá	2	El tablón	6	Junio	2023-06-24T00:00:00	2024-11-06T04:00:00	2	Temperatura media	11.3
161882	7	Sololá	701	Sololá	2	El tablón	6	Junio	2023-06-24T00:00:00	2024-11-06T04:00:00	4	Temperatura máxima	11.6
161883	7	Sololá	701	Sololá	2	El tablón	6	Junio	2023-06-24T00:00:00	2024-11-06T04:00:00	3	Temperatura mínima	11.3
161884	7	Sololá	701	Sololá	2	El tablón	6	Junio	2023-06-24T00:00:00	2024-11-06T04:00:00	5	Humedad	88
161885	7	Sololá	701	Sololá	2	El tablón	6	Junio	2023-06-24T00:00:00	2024-11-06T04:00:00	6	Velocidad del viento	1.6
161886	7	Sololá	701	Sololá	2	El tablón	6	Junio	2023-06-24T00:00:00	2024-11-06T04:00:00	7	Dirección del viento	1.61
161887	7	Sololá	701	Sololá	2	El tablón	6	Junio	2023-06-24T00:00:00	2024-11-06T04:00:00	1	Precipitación	0
161888	7	Sololá	701	Sololá	2	El tablón	6	Junio	2023-06-24T00:00:00	2024-11-06T04:00:00	8	Radiación solar	0
161889	7	Sololá	701	Sololá	2	El tablón	6	Junio	2023-06-24T00:00:00	2024-11-06T05:00:00	2	Temperatura media	11.3
161890	7	Sololá	701	Sololá	2	El tablón	6	Junio	2023-06-24T00:00:00	2024-11-06T05:00:00	4	Temperatura máxima	11.4
161891	7	Sololá	701	Sololá	2	El tablón	6	Junio	2023-06-24T00:00:00	2024-11-06T05:00:00	3	Temperatura mínima	11.3
161892	7	Sololá	701	Sololá	2	El tablón	6	Junio	2023-06-24T00:00:00	2024-11-06T05:00:00	5	Humedad	89
161893	7	Sololá	701	Sololá	2	El tablón	6	Junio	2023-06-24T00:00:00	2024-11-06T05:00:00	6	Velocidad del viento	1.6
161894	7	Sololá	701	Sololá	2	El tablón	6	Junio	2023-06-24T00:00:00	2024-11-06T05:00:00	7	Dirección del viento	1.61
161895	7	Sololá	701	Sololá	2	El tablón	6	Junio	2023-06-24T00:00:00	2024-11-06T05:00:00	1	Precipitación	0
161896	7	Sololá	701	Sololá	2	El tablón	6	Junio	2023-06-24T00:00:00	2024-11-06T05:00:00	8	Radiación solar	0
161897	7	Sololá	701	Sololá	2	El tablón	6	Junio	2023-06-24T00:00:00	2024-11-06T06:00:00	2	Temperatura media	11.4
161898	7	Sololá	701	Sololá	2	El tablón	6	Junio	2023-06-24T00:00:00	2024-11-06T06:00:00	4	Temperatura máxima	11.5
161899	7	Sololá	701	Sololá	2	El tablón	6	Junio	2023-06-24T00:00:00	2024-11-06T06:00:00	3	Temperatura mínima	11.2
161900	7	Sololá	701	Sololá	2	El tablón	6	Junio	2023-06-24T00:00:00	2024-11-06T06:00:00	5	Humedad	89
161901	7	Sololá	701	Sololá	2	El tablón	6	Junio	2023-06-24T00:00:00	2024-11-06T06:00:00	6	Velocidad del viento	3.2
161902	7	Sololá	701	Sololá	2	El tablón	6	Junio	2023-06-24T00:00:00	2024-11-06T06:00:00	7	Dirección del viento	3.22
161903	7	Sololá	701	Sololá	2	El tablón	6	Junio	2023-06-24T00:00:00	2024-11-06T06:00:00	1	Precipitación	0
161904	7	Sololá	701	Sololá	2	El tablón	6	Junio	2023-06-24T00:00:00	2024-11-06T06:00:00	8	Radiación solar	3
161905	7	Sololá	701	Sololá	2	El tablón	6	Junio	2023-06-24T00:00:00	2024-11-06T07:00:00	2	Temperatura media	11.8
161906	7	Sololá	701	Sololá	2	El tablón	6	Junio	2023-06-24T00:00:00	2024-11-06T07:00:00	4	Temperatura máxima	11.8
161907	7	Sololá	701	Sololá	2	El tablón	6	Junio	2023-06-24T00:00:00	2024-11-06T07:00:00	3	Temperatura mínima	11.3
161908	7	Sololá	701	Sololá	2	El tablón	6	Junio	2023-06-24T00:00:00	2024-11-06T07:00:00	5	Humedad	89
161909	7	Sololá	701	Sololá	2	El tablón	6	Junio	2023-06-24T00:00:00	2024-11-06T07:00:00	6	Velocidad del viento	3.2
161910	7	Sololá	701	Sololá	2	El tablón	6	Junio	2023-06-24T00:00:00	2024-11-06T07:00:00	7	Dirección del viento	3.22
161911	7	Sololá	701	Sololá	2	El tablón	6	Junio	2023-06-24T00:00:00	2024-11-06T07:00:00	1	Precipitación	0
161912	7	Sololá	701	Sololá	2	El tablón	6	Junio	2023-06-24T00:00:00	2024-11-06T07:00:00	8	Radiación solar	56
161913	7	Sololá	701	Sololá	2	El tablón	6	Junio	2023-06-24T00:00:00	2024-11-06T08:00:00	2	Temperatura media	14.4
161914	7	Sololá	701	Sololá	2	El tablón	6	Junio	2023-06-24T00:00:00	2024-11-06T08:00:00	4	Temperatura máxima	14.4
161915	7	Sololá	701	Sololá	2	El tablón	6	Junio	2023-06-24T00:00:00	2024-11-06T08:00:00	3	Temperatura mínima	11.8
161916	7	Sololá	701	Sololá	2	El tablón	6	Junio	2023-06-24T00:00:00	2024-11-06T08:00:00	5	Humedad	87
161917	7	Sololá	701	Sololá	2	El tablón	6	Junio	2023-06-24T00:00:00	2024-11-06T08:00:00	6	Velocidad del viento	4.8
161918	7	Sololá	701	Sololá	2	El tablón	6	Junio	2023-06-24T00:00:00	2024-11-06T08:00:00	7	Dirección del viento	4.83
161919	7	Sololá	701	Sololá	2	El tablón	6	Junio	2023-06-24T00:00:00	2024-11-06T08:00:00	1	Precipitación	0
161920	7	Sololá	701	Sololá	2	El tablón	6	Junio	2023-06-24T00:00:00	2024-11-06T08:00:00	8	Radiación solar	161
161921	7	Sololá	701	Sololá	2	El tablón	6	Junio	2023-06-24T00:00:00	2024-11-06T09:00:00	2	Temperatura media	16.7
161922	7	Sololá	701	Sololá	2	El tablón	6	Junio	2023-06-24T00:00:00	2024-11-06T09:00:00	4	Temperatura máxima	16.7
161923	7	Sololá	701	Sololá	2	El tablón	6	Junio	2023-06-24T00:00:00	2024-11-06T09:00:00	3	Temperatura mínima	14.4
161924	7	Sololá	701	Sololá	2	El tablón	6	Junio	2023-06-24T00:00:00	2024-11-06T09:00:00	5	Humedad	78
161925	7	Sololá	701	Sololá	2	El tablón	6	Junio	2023-06-24T00:00:00	2024-11-06T09:00:00	6	Velocidad del viento	4.8
161926	7	Sololá	701	Sololá	2	El tablón	6	Junio	2023-06-24T00:00:00	2024-11-06T09:00:00	7	Dirección del viento	4.83
161927	7	Sololá	701	Sololá	2	El tablón	6	Junio	2023-06-24T00:00:00	2024-11-06T09:00:00	1	Precipitación	0
161928	7	Sololá	701	Sololá	2	El tablón	6	Junio	2023-06-24T00:00:00	2024-11-06T09:00:00	8	Radiación solar	396
161929	7	Sololá	701	Sololá	2	El tablón	6	Junio	2023-06-24T00:00:00	2024-11-06T10:00:00	2	Temperatura media	17.2
161930	7	Sololá	701	Sololá	2	El tablón	6	Junio	2023-06-24T00:00:00	2024-11-06T10:00:00	4	Temperatura máxima	18.2
161931	7	Sololá	701	Sololá	2	El tablón	6	Junio	2023-06-24T00:00:00	2024-11-06T10:00:00	3	Temperatura mínima	16.8
161932	7	Sololá	701	Sololá	2	El tablón	6	Junio	2023-06-24T00:00:00	2024-11-06T10:00:00	5	Humedad	85
161933	7	Sololá	701	Sololá	2	El tablón	6	Junio	2023-06-24T00:00:00	2024-11-06T10:00:00	6	Velocidad del viento	4.8
161934	7	Sololá	701	Sololá	2	El tablón	6	Junio	2023-06-24T00:00:00	2024-11-06T10:00:00	7	Dirección del viento	4.83
161935	7	Sololá	701	Sololá	2	El tablón	6	Junio	2023-06-24T00:00:00	2024-11-06T10:00:00	1	Precipitación	0
161936	7	Sololá	701	Sololá	2	El tablón	6	Junio	2023-06-24T00:00:00	2024-11-06T10:00:00	8	Radiación solar	505
161937	7	Sololá	701	Sololá	2	El tablón	6	Junio	2023-06-24T00:00:00	2024-11-06T11:00:00	2	Temperatura media	15.8
161938	7	Sololá	701	Sololá	2	El tablón	6	Junio	2023-06-24T00:00:00	2024-11-06T11:00:00	4	Temperatura máxima	17.2
161939	7	Sololá	701	Sololá	2	El tablón	6	Junio	2023-06-24T00:00:00	2024-11-06T11:00:00	3	Temperatura mínima	15.8
161940	7	Sololá	701	Sololá	2	El tablón	6	Junio	2023-06-24T00:00:00	2024-11-06T11:00:00	5	Humedad	87
161941	7	Sololá	701	Sololá	2	El tablón	6	Junio	2023-06-24T00:00:00	2024-11-06T11:00:00	6	Velocidad del viento	4.8
161942	7	Sololá	701	Sololá	2	El tablón	6	Junio	2023-06-24T00:00:00	2024-11-06T11:00:00	7	Dirección del viento	4.83
161943	7	Sololá	701	Sololá	2	El tablón	6	Junio	2023-06-24T00:00:00	2024-11-06T11:00:00	1	Precipitación	0
161944	7	Sololá	701	Sololá	2	El tablón	6	Junio	2023-06-24T00:00:00	2024-11-06T11:00:00	8	Radiación solar	241
161945	7	Sololá	701	Sololá	2	El tablón	6	Junio	2023-06-24T00:00:00	2024-11-06T12:00:00	2	Temperatura media	16.7
161946	7	Sololá	701	Sololá	2	El tablón	6	Junio	2023-06-24T00:00:00	2024-11-06T12:00:00	4	Temperatura máxima	16.9
161947	7	Sololá	701	Sololá	2	El tablón	6	Junio	2023-06-24T00:00:00	2024-11-06T12:00:00	3	Temperatura mínima	15.7
161948	7	Sololá	701	Sololá	2	El tablón	6	Junio	2023-06-24T00:00:00	2024-11-06T12:00:00	5	Humedad	86
161949	7	Sololá	701	Sololá	2	El tablón	6	Junio	2023-06-24T00:00:00	2024-11-06T12:00:00	6	Velocidad del viento	3.2
161950	7	Sololá	701	Sololá	2	El tablón	6	Junio	2023-06-24T00:00:00	2024-11-06T12:00:00	7	Dirección del viento	3.22
161951	7	Sololá	701	Sololá	2	El tablón	6	Junio	2023-06-24T00:00:00	2024-11-06T12:00:00	1	Precipitación	0
161952	7	Sololá	701	Sololá	2	El tablón	6	Junio	2023-06-24T00:00:00	2024-11-06T12:00:00	8	Radiación solar	243
161953	7	Sololá	701	Sololá	2	El tablón	6	Junio	2023-06-24T00:00:00	2024-11-06T13:00:00	2	Temperatura media	17.6
161954	7	Sololá	701	Sololá	2	El tablón	6	Junio	2023-06-24T00:00:00	2024-11-06T13:00:00	4	Temperatura máxima	17.8
161955	7	Sololá	701	Sololá	2	El tablón	6	Junio	2023-06-24T00:00:00	2024-11-06T13:00:00	3	Temperatura mínima	16.6
161956	7	Sololá	701	Sololá	2	El tablón	6	Junio	2023-06-24T00:00:00	2024-11-06T13:00:00	5	Humedad	83
161957	7	Sololá	701	Sololá	2	El tablón	6	Junio	2023-06-24T00:00:00	2024-11-06T13:00:00	6	Velocidad del viento	3.2
161958	7	Sololá	701	Sololá	2	El tablón	6	Junio	2023-06-24T00:00:00	2024-11-06T13:00:00	7	Dirección del viento	3.22
161959	7	Sololá	701	Sololá	2	El tablón	6	Junio	2023-06-24T00:00:00	2024-11-06T13:00:00	1	Precipitación	0
161960	7	Sololá	701	Sololá	2	El tablón	6	Junio	2023-06-24T00:00:00	2024-11-06T13:00:00	8	Radiación solar	377
161961	7	Sololá	701	Sololá	2	El tablón	6	Junio	2023-06-24T00:00:00	2024-11-06T14:00:00	2	Temperatura media	16.4
161962	7	Sololá	701	Sololá	2	El tablón	6	Junio	2023-06-24T00:00:00	2024-11-06T14:00:00	4	Temperatura máxima	17.6
161963	7	Sololá	701	Sololá	2	El tablón	6	Junio	2023-06-24T00:00:00	2024-11-06T14:00:00	3	Temperatura mínima	16.4
161964	7	Sololá	701	Sololá	2	El tablón	6	Junio	2023-06-24T00:00:00	2024-11-06T14:00:00	5	Humedad	88
161965	7	Sololá	701	Sololá	2	El tablón	6	Junio	2023-06-24T00:00:00	2024-11-06T14:00:00	6	Velocidad del viento	3.2
161966	7	Sololá	701	Sololá	2	El tablón	6	Junio	2023-06-24T00:00:00	2024-11-06T14:00:00	7	Dirección del viento	3.22
161967	7	Sololá	701	Sololá	2	El tablón	6	Junio	2023-06-24T00:00:00	2024-11-06T14:00:00	1	Precipitación	0
161968	7	Sololá	701	Sololá	2	El tablón	6	Junio	2023-06-24T00:00:00	2024-11-06T14:00:00	8	Radiación solar	112
161969	7	Sololá	701	Sololá	2	El tablón	6	Junio	2023-06-24T00:00:00	2024-11-06T15:00:00	2	Temperatura media	15.6
161970	7	Sololá	701	Sololá	2	El tablón	6	Junio	2023-06-24T00:00:00	2024-11-06T15:00:00	4	Temperatura máxima	16.5
161971	7	Sololá	701	Sololá	2	El tablón	6	Junio	2023-06-24T00:00:00	2024-11-06T15:00:00	3	Temperatura mínima	15.6
161972	7	Sololá	701	Sololá	2	El tablón	6	Junio	2023-06-24T00:00:00	2024-11-06T15:00:00	5	Humedad	88
161973	7	Sololá	701	Sololá	2	El tablón	6	Junio	2023-06-24T00:00:00	2024-11-06T15:00:00	6	Velocidad del viento	3.2
161974	7	Sololá	701	Sololá	2	El tablón	6	Junio	2023-06-24T00:00:00	2024-11-06T15:00:00	7	Dirección del viento	3.22
161975	7	Sololá	701	Sololá	2	El tablón	6	Junio	2023-06-24T00:00:00	2024-11-06T15:00:00	1	Precipitación	0
161976	7	Sololá	701	Sololá	2	El tablón	6	Junio	2023-06-24T00:00:00	2024-11-06T15:00:00	8	Radiación solar	87
161977	7	Sololá	701	Sololá	2	El tablón	6	Junio	2023-06-24T00:00:00	2024-11-06T16:00:00	2	Temperatura media	16.5
161978	7	Sololá	701	Sololá	2	El tablón	6	Junio	2023-06-24T00:00:00	2024-11-06T16:00:00	4	Temperatura máxima	16.6
161979	7	Sololá	701	Sololá	2	El tablón	6	Junio	2023-06-24T00:00:00	2024-11-06T16:00:00	3	Temperatura mínima	15.6
161980	7	Sololá	701	Sololá	2	El tablón	6	Junio	2023-06-24T00:00:00	2024-11-06T16:00:00	5	Humedad	88
161981	7	Sololá	701	Sololá	2	El tablón	6	Junio	2023-06-24T00:00:00	2024-11-06T16:00:00	6	Velocidad del viento	1.6
161982	7	Sololá	701	Sololá	2	El tablón	6	Junio	2023-06-24T00:00:00	2024-11-06T16:00:00	7	Dirección del viento	1.61
161983	7	Sololá	701	Sololá	2	El tablón	6	Junio	2023-06-24T00:00:00	2024-11-06T16:00:00	1	Precipitación	0
161984	7	Sololá	701	Sololá	2	El tablón	6	Junio	2023-06-24T00:00:00	2024-11-06T16:00:00	8	Radiación solar	149
161985	7	Sololá	701	Sololá	2	El tablón	6	Junio	2023-06-24T00:00:00	2024-11-06T17:00:00	2	Temperatura media	15.9
161986	7	Sololá	701	Sololá	2	El tablón	6	Junio	2023-06-24T00:00:00	2024-11-06T17:00:00	4	Temperatura máxima	16.8
161987	7	Sololá	701	Sololá	2	El tablón	6	Junio	2023-06-24T00:00:00	2024-11-06T17:00:00	3	Temperatura mínima	15.5
161988	7	Sololá	701	Sololá	2	El tablón	6	Junio	2023-06-24T00:00:00	2024-11-06T17:00:00	5	Humedad	87
161989	7	Sololá	701	Sololá	2	El tablón	6	Junio	2023-06-24T00:00:00	2024-11-06T17:00:00	6	Velocidad del viento	3.2
161990	7	Sololá	701	Sololá	2	El tablón	6	Junio	2023-06-24T00:00:00	2024-11-06T17:00:00	7	Dirección del viento	3.22
161991	7	Sololá	701	Sololá	2	El tablón	6	Junio	2023-06-24T00:00:00	2024-11-06T17:00:00	1	Precipitación	0
161992	7	Sololá	701	Sololá	2	El tablón	6	Junio	2023-06-24T00:00:00	2024-11-06T17:00:00	8	Radiación solar	150
161993	7	Sololá	701	Sololá	2	El tablón	6	Junio	2023-06-24T00:00:00	2024-11-06T18:00:00	2	Temperatura media	14.8
161994	7	Sololá	701	Sololá	2	El tablón	6	Junio	2023-06-24T00:00:00	2024-11-06T18:00:00	4	Temperatura máxima	15.9
161995	7	Sololá	701	Sololá	2	El tablón	6	Junio	2023-06-24T00:00:00	2024-11-06T18:00:00	3	Temperatura mínima	14.8
161996	7	Sololá	701	Sololá	2	El tablón	6	Junio	2023-06-24T00:00:00	2024-11-06T18:00:00	5	Humedad	88
161997	7	Sololá	701	Sololá	2	El tablón	6	Junio	2023-06-24T00:00:00	2024-11-06T18:00:00	6	Velocidad del viento	4.8
161998	7	Sololá	701	Sololá	2	El tablón	6	Junio	2023-06-24T00:00:00	2024-11-06T18:00:00	7	Dirección del viento	4.83
161999	7	Sololá	701	Sololá	2	El tablón	6	Junio	2023-06-24T00:00:00	2024-11-06T18:00:00	1	Precipitación	0.2
162000	7	Sololá	701	Sololá	2	El tablón	6	Junio	2023-06-24T00:00:00	2024-11-06T18:00:00	8	Radiación solar	62
162001	7	Sololá	701	Sololá	2	El tablón	6	Junio	2023-06-24T00:00:00	2024-11-06T19:00:00	2	Temperatura media	14.1
162002	7	Sololá	701	Sololá	2	El tablón	6	Junio	2023-06-24T00:00:00	2024-11-06T19:00:00	4	Temperatura máxima	14.8
162003	7	Sololá	701	Sololá	2	El tablón	6	Junio	2023-06-24T00:00:00	2024-11-06T19:00:00	3	Temperatura mínima	14
162004	7	Sololá	701	Sololá	2	El tablón	6	Junio	2023-06-24T00:00:00	2024-11-06T19:00:00	5	Humedad	87
162005	7	Sololá	701	Sololá	2	El tablón	6	Junio	2023-06-24T00:00:00	2024-11-06T19:00:00	6	Velocidad del viento	3.2
162006	7	Sololá	701	Sololá	2	El tablón	6	Junio	2023-06-24T00:00:00	2024-11-06T19:00:00	7	Dirección del viento	3.22
162007	7	Sololá	701	Sololá	2	El tablón	6	Junio	2023-06-24T00:00:00	2024-11-06T19:00:00	1	Precipitación	0
162008	7	Sololá	701	Sololá	2	El tablón	6	Junio	2023-06-24T00:00:00	2024-11-06T19:00:00	8	Radiación solar	0
162009	7	Sololá	701	Sololá	2	El tablón	6	Junio	2023-06-24T00:00:00	2024-11-06T20:00:00	2	Temperatura media	13.9
162010	7	Sololá	701	Sololá	2	El tablón	6	Junio	2023-06-24T00:00:00	2024-11-06T20:00:00	4	Temperatura máxima	14.1
162011	7	Sololá	701	Sololá	2	El tablón	6	Junio	2023-06-24T00:00:00	2024-11-06T20:00:00	3	Temperatura mínima	13.8
162012	7	Sololá	701	Sololá	2	El tablón	6	Junio	2023-06-24T00:00:00	2024-11-06T20:00:00	5	Humedad	87
162013	7	Sololá	701	Sololá	2	El tablón	6	Junio	2023-06-24T00:00:00	2024-11-06T20:00:00	6	Velocidad del viento	1.6
162014	7	Sololá	701	Sololá	2	El tablón	6	Junio	2023-06-24T00:00:00	2024-11-06T20:00:00	7	Dirección del viento	1.61
162015	7	Sololá	701	Sololá	2	El tablón	6	Junio	2023-06-24T00:00:00	2024-11-06T20:00:00	1	Precipitación	0
162016	7	Sololá	701	Sololá	2	El tablón	6	Junio	2023-06-24T00:00:00	2024-11-06T20:00:00	8	Radiación solar	0
162017	7	Sololá	701	Sololá	2	El tablón	6	Junio	2023-06-24T00:00:00	2024-11-06T21:00:00	2	Temperatura media	13.7
162018	7	Sololá	701	Sololá	2	El tablón	6	Junio	2023-06-24T00:00:00	2024-11-06T21:00:00	4	Temperatura máxima	13.9
162019	7	Sololá	701	Sololá	2	El tablón	6	Junio	2023-06-24T00:00:00	2024-11-06T21:00:00	3	Temperatura mínima	13.7
162020	7	Sololá	701	Sololá	2	El tablón	6	Junio	2023-06-24T00:00:00	2024-11-06T21:00:00	5	Humedad	87
162021	7	Sololá	701	Sololá	2	El tablón	6	Junio	2023-06-24T00:00:00	2024-11-06T21:00:00	6	Velocidad del viento	1.6
162022	7	Sololá	701	Sololá	2	El tablón	6	Junio	2023-06-24T00:00:00	2024-11-06T21:00:00	7	Dirección del viento	1.61
162023	7	Sololá	701	Sololá	2	El tablón	6	Junio	2023-06-24T00:00:00	2024-11-06T21:00:00	1	Precipitación	0
162024	7	Sololá	701	Sololá	2	El tablón	6	Junio	2023-06-24T00:00:00	2024-11-06T21:00:00	8	Radiación solar	0
162025	7	Sololá	701	Sololá	2	El tablón	6	Junio	2023-06-24T00:00:00	2024-11-06T22:00:00	2	Temperatura media	13.8
162026	7	Sololá	701	Sololá	2	El tablón	6	Junio	2023-06-24T00:00:00	2024-11-06T22:00:00	4	Temperatura máxima	13.8
162027	7	Sololá	701	Sololá	2	El tablón	6	Junio	2023-06-24T00:00:00	2024-11-06T22:00:00	3	Temperatura mínima	13.7
162028	7	Sololá	701	Sololá	2	El tablón	6	Junio	2023-06-24T00:00:00	2024-11-06T22:00:00	5	Humedad	88
162029	7	Sololá	701	Sololá	2	El tablón	6	Junio	2023-06-24T00:00:00	2024-11-06T22:00:00	6	Velocidad del viento	1.6
162030	7	Sololá	701	Sololá	2	El tablón	6	Junio	2023-06-24T00:00:00	2024-11-06T22:00:00	7	Dirección del viento	1.61
162031	7	Sololá	701	Sololá	2	El tablón	6	Junio	2023-06-24T00:00:00	2024-11-06T22:00:00	1	Precipitación	0
162032	7	Sololá	701	Sololá	2	El tablón	6	Junio	2023-06-24T00:00:00	2024-11-06T22:00:00	8	Radiación solar	0
162033	7	Sololá	701	Sololá	2	El tablón	6	Junio	2023-06-24T00:00:00	2024-11-06T23:00:00	2	Temperatura media	13.8
162034	7	Sololá	701	Sololá	2	El tablón	6	Junio	2023-06-24T00:00:00	2024-11-06T23:00:00	4	Temperatura máxima	14
162035	7	Sololá	701	Sololá	2	El tablón	6	Junio	2023-06-24T00:00:00	2024-11-06T23:00:00	3	Temperatura mínima	13.8
162036	7	Sololá	701	Sololá	2	El tablón	6	Junio	2023-06-24T00:00:00	2024-11-06T23:00:00	5	Humedad	89
162037	7	Sololá	701	Sololá	2	El tablón	6	Junio	2023-06-24T00:00:00	2024-11-06T23:00:00	6	Velocidad del viento	0
162038	7	Sololá	701	Sololá	2	El tablón	6	Junio	2023-06-24T00:00:00	2024-11-06T23:00:00	7	Dirección del viento	0
162039	7	Sololá	701	Sololá	2	El tablón	6	Junio	2023-06-24T00:00:00	2024-11-06T23:00:00	1	Precipitación	0
162040	7	Sololá	701	Sololá	2	El tablón	6	Junio	2023-06-24T00:00:00	2024-11-06T23:00:00	8	Radiación solar	0
162041	7	Sololá	701	Sololá	2	El tablón	6	Junio	2023-06-25T00:00:00	2024-11-06T00:00:00	2	Temperatura media	13.4
162042	7	Sololá	701	Sololá	2	El tablón	6	Junio	2023-06-25T00:00:00	2024-11-06T00:00:00	4	Temperatura máxima	13.8
162043	7	Sololá	701	Sololá	2	El tablón	6	Junio	2023-06-25T00:00:00	2024-11-06T00:00:00	3	Temperatura mínima	13.4
162044	7	Sololá	701	Sololá	2	El tablón	6	Junio	2023-06-25T00:00:00	2024-11-06T00:00:00	5	Humedad	89
162045	7	Sololá	701	Sololá	2	El tablón	6	Junio	2023-06-25T00:00:00	2024-11-06T00:00:00	6	Velocidad del viento	0
162046	7	Sololá	701	Sololá	2	El tablón	6	Junio	2023-06-25T00:00:00	2024-11-06T00:00:00	7	Dirección del viento	0
162047	7	Sololá	701	Sololá	2	El tablón	6	Junio	2023-06-25T00:00:00	2024-11-06T00:00:00	1	Precipitación	0
162048	7	Sololá	701	Sololá	2	El tablón	6	Junio	2023-06-25T00:00:00	2024-11-06T00:00:00	8	Radiación solar	0
162049	7	Sololá	701	Sololá	2	El tablón	6	Junio	2023-06-25T00:00:00	2024-11-06T01:00:00	2	Temperatura media	13.1
162050	7	Sololá	701	Sololá	2	El tablón	6	Junio	2023-06-25T00:00:00	2024-11-06T01:00:00	4	Temperatura máxima	13.5
162051	7	Sololá	701	Sololá	2	El tablón	6	Junio	2023-06-25T00:00:00	2024-11-06T01:00:00	3	Temperatura mínima	13.1
162052	7	Sololá	701	Sololá	2	El tablón	6	Junio	2023-06-25T00:00:00	2024-11-06T01:00:00	5	Humedad	88
162053	7	Sololá	701	Sololá	2	El tablón	6	Junio	2023-06-25T00:00:00	2024-11-06T01:00:00	6	Velocidad del viento	1.6
162054	7	Sololá	701	Sololá	2	El tablón	6	Junio	2023-06-25T00:00:00	2024-11-06T01:00:00	7	Dirección del viento	1.61
162055	7	Sololá	701	Sololá	2	El tablón	6	Junio	2023-06-25T00:00:00	2024-11-06T01:00:00	1	Precipitación	0
162056	7	Sololá	701	Sololá	2	El tablón	6	Junio	2023-06-25T00:00:00	2024-11-06T01:00:00	8	Radiación solar	0
162057	7	Sololá	701	Sololá	2	El tablón	6	Junio	2023-06-25T00:00:00	2024-11-06T02:00:00	2	Temperatura media	12.6
162058	7	Sololá	701	Sololá	2	El tablón	6	Junio	2023-06-25T00:00:00	2024-11-06T02:00:00	4	Temperatura máxima	13.1
162059	7	Sololá	701	Sololá	2	El tablón	6	Junio	2023-06-25T00:00:00	2024-11-06T02:00:00	3	Temperatura mínima	12.6
162060	7	Sololá	701	Sololá	2	El tablón	6	Junio	2023-06-25T00:00:00	2024-11-06T02:00:00	5	Humedad	88
162061	7	Sololá	701	Sololá	2	El tablón	6	Junio	2023-06-25T00:00:00	2024-11-06T02:00:00	6	Velocidad del viento	0
162062	7	Sololá	701	Sololá	2	El tablón	6	Junio	2023-06-25T00:00:00	2024-11-06T02:00:00	7	Dirección del viento	0
162063	7	Sololá	701	Sololá	2	El tablón	6	Junio	2023-06-25T00:00:00	2024-11-06T02:00:00	1	Precipitación	4
162064	7	Sololá	701	Sololá	2	El tablón	6	Junio	2023-06-25T00:00:00	2024-11-06T02:00:00	8	Radiación solar	0
162065	7	Sololá	701	Sololá	2	El tablón	6	Junio	2023-06-25T00:00:00	2024-11-06T03:00:00	2	Temperatura media	12.1
162066	7	Sololá	701	Sololá	2	El tablón	6	Junio	2023-06-25T00:00:00	2024-11-06T03:00:00	4	Temperatura máxima	12.6
162067	7	Sololá	701	Sololá	2	El tablón	6	Junio	2023-06-25T00:00:00	2024-11-06T03:00:00	3	Temperatura mínima	12.1
162068	7	Sololá	701	Sololá	2	El tablón	6	Junio	2023-06-25T00:00:00	2024-11-06T03:00:00	5	Humedad	88
162069	7	Sololá	701	Sololá	2	El tablón	6	Junio	2023-06-25T00:00:00	2024-11-06T03:00:00	6	Velocidad del viento	1.6
162070	7	Sololá	701	Sololá	2	El tablón	6	Junio	2023-06-25T00:00:00	2024-11-06T03:00:00	7	Dirección del viento	1.61
162071	7	Sololá	701	Sololá	2	El tablón	6	Junio	2023-06-25T00:00:00	2024-11-06T03:00:00	1	Precipitación	0.8
162072	7	Sololá	701	Sololá	2	El tablón	6	Junio	2023-06-25T00:00:00	2024-11-06T03:00:00	8	Radiación solar	0
162073	7	Sololá	701	Sololá	2	El tablón	6	Junio	2023-06-25T00:00:00	2024-11-06T04:00:00	2	Temperatura media	11.3
162074	7	Sololá	701	Sololá	2	El tablón	6	Junio	2023-06-25T00:00:00	2024-11-06T04:00:00	4	Temperatura máxima	12.1
162075	7	Sololá	701	Sololá	2	El tablón	6	Junio	2023-06-25T00:00:00	2024-11-06T04:00:00	3	Temperatura mínima	11.3
162076	7	Sololá	701	Sololá	2	El tablón	6	Junio	2023-06-25T00:00:00	2024-11-06T04:00:00	5	Humedad	89
162077	7	Sololá	701	Sololá	2	El tablón	6	Junio	2023-06-25T00:00:00	2024-11-06T04:00:00	6	Velocidad del viento	4.8
162078	7	Sololá	701	Sololá	2	El tablón	6	Junio	2023-06-25T00:00:00	2024-11-06T04:00:00	7	Dirección del viento	4.83
162079	7	Sololá	701	Sololá	2	El tablón	6	Junio	2023-06-25T00:00:00	2024-11-06T04:00:00	1	Precipitación	0
162080	7	Sololá	701	Sololá	2	El tablón	6	Junio	2023-06-25T00:00:00	2024-11-06T04:00:00	8	Radiación solar	0
162081	7	Sololá	701	Sololá	2	El tablón	6	Junio	2023-06-25T00:00:00	2024-11-06T05:00:00	2	Temperatura media	11.8
162082	7	Sololá	701	Sololá	2	El tablón	6	Junio	2023-06-25T00:00:00	2024-11-06T05:00:00	4	Temperatura máxima	11.8
162083	7	Sololá	701	Sololá	2	El tablón	6	Junio	2023-06-25T00:00:00	2024-11-06T05:00:00	3	Temperatura mínima	11.3
162084	7	Sololá	701	Sololá	2	El tablón	6	Junio	2023-06-25T00:00:00	2024-11-06T05:00:00	5	Humedad	88
162085	7	Sololá	701	Sololá	2	El tablón	6	Junio	2023-06-25T00:00:00	2024-11-06T05:00:00	6	Velocidad del viento	4.8
162086	7	Sololá	701	Sololá	2	El tablón	6	Junio	2023-06-25T00:00:00	2024-11-06T05:00:00	7	Dirección del viento	4.83
162087	7	Sololá	701	Sololá	2	El tablón	6	Junio	2023-06-25T00:00:00	2024-11-06T05:00:00	1	Precipitación	0
162088	7	Sololá	701	Sololá	2	El tablón	6	Junio	2023-06-25T00:00:00	2024-11-06T05:00:00	8	Radiación solar	0
162089	7	Sololá	701	Sololá	2	El tablón	6	Junio	2023-06-25T00:00:00	2024-11-06T06:00:00	2	Temperatura media	12.4
162090	7	Sololá	701	Sololá	2	El tablón	6	Junio	2023-06-25T00:00:00	2024-11-06T06:00:00	4	Temperatura máxima	12.4
162091	7	Sololá	701	Sololá	2	El tablón	6	Junio	2023-06-25T00:00:00	2024-11-06T06:00:00	3	Temperatura mínima	11.9
162092	7	Sololá	701	Sololá	2	El tablón	6	Junio	2023-06-25T00:00:00	2024-11-06T06:00:00	5	Humedad	84
162093	7	Sololá	701	Sololá	2	El tablón	6	Junio	2023-06-25T00:00:00	2024-11-06T06:00:00	6	Velocidad del viento	4.8
162094	7	Sololá	701	Sololá	2	El tablón	6	Junio	2023-06-25T00:00:00	2024-11-06T06:00:00	7	Dirección del viento	4.83
162095	7	Sololá	701	Sololá	2	El tablón	6	Junio	2023-06-25T00:00:00	2024-11-06T06:00:00	1	Precipitación	0
162096	7	Sololá	701	Sololá	2	El tablón	6	Junio	2023-06-25T00:00:00	2024-11-06T06:00:00	8	Radiación solar	3
162097	7	Sololá	701	Sololá	2	El tablón	6	Junio	2023-06-25T00:00:00	2024-11-06T07:00:00	2	Temperatura media	13.7
162098	7	Sololá	701	Sololá	2	El tablón	6	Junio	2023-06-25T00:00:00	2024-11-06T07:00:00	4	Temperatura máxima	13.7
162099	7	Sololá	701	Sololá	2	El tablón	6	Junio	2023-06-25T00:00:00	2024-11-06T07:00:00	3	Temperatura mínima	12.4
162100	7	Sololá	701	Sololá	2	El tablón	6	Junio	2023-06-25T00:00:00	2024-11-06T07:00:00	5	Humedad	83
162101	7	Sololá	701	Sololá	2	El tablón	6	Junio	2023-06-25T00:00:00	2024-11-06T07:00:00	6	Velocidad del viento	6.4
162102	7	Sololá	701	Sololá	2	El tablón	6	Junio	2023-06-25T00:00:00	2024-11-06T07:00:00	7	Dirección del viento	6.44
162103	7	Sololá	701	Sololá	2	El tablón	6	Junio	2023-06-25T00:00:00	2024-11-06T07:00:00	1	Precipitación	0
162104	7	Sololá	701	Sololá	2	El tablón	6	Junio	2023-06-25T00:00:00	2024-11-06T07:00:00	8	Radiación solar	95
162105	7	Sololá	701	Sololá	2	El tablón	6	Junio	2023-06-25T00:00:00	2024-11-06T08:00:00	2	Temperatura media	16.1
162106	7	Sololá	701	Sololá	2	El tablón	6	Junio	2023-06-25T00:00:00	2024-11-06T08:00:00	4	Temperatura máxima	16.1
162107	7	Sololá	701	Sololá	2	El tablón	6	Junio	2023-06-25T00:00:00	2024-11-06T08:00:00	3	Temperatura mínima	13.7
162108	7	Sololá	701	Sololá	2	El tablón	6	Junio	2023-06-25T00:00:00	2024-11-06T08:00:00	5	Humedad	71
162109	7	Sololá	701	Sololá	2	El tablón	6	Junio	2023-06-25T00:00:00	2024-11-06T08:00:00	6	Velocidad del viento	6.4
162110	7	Sololá	701	Sololá	2	El tablón	6	Junio	2023-06-25T00:00:00	2024-11-06T08:00:00	7	Dirección del viento	6.44
162111	7	Sololá	701	Sololá	2	El tablón	6	Junio	2023-06-25T00:00:00	2024-11-06T08:00:00	1	Precipitación	0
162112	7	Sololá	701	Sololá	2	El tablón	6	Junio	2023-06-25T00:00:00	2024-11-06T08:00:00	8	Radiación solar	322
162113	7	Sololá	701	Sololá	2	El tablón	6	Junio	2023-06-25T00:00:00	2024-11-06T09:00:00	2	Temperatura media	17.2
162114	7	Sololá	701	Sololá	2	El tablón	6	Junio	2023-06-25T00:00:00	2024-11-06T09:00:00	4	Temperatura máxima	17.2
162115	7	Sololá	701	Sololá	2	El tablón	6	Junio	2023-06-25T00:00:00	2024-11-06T09:00:00	3	Temperatura mínima	16
162116	7	Sololá	701	Sololá	2	El tablón	6	Junio	2023-06-25T00:00:00	2024-11-06T09:00:00	5	Humedad	67
162117	7	Sololá	701	Sololá	2	El tablón	6	Junio	2023-06-25T00:00:00	2024-11-06T09:00:00	6	Velocidad del viento	8
162118	7	Sololá	701	Sololá	2	El tablón	6	Junio	2023-06-25T00:00:00	2024-11-06T09:00:00	7	Dirección del viento	8.05
162119	7	Sololá	701	Sololá	2	El tablón	6	Junio	2023-06-25T00:00:00	2024-11-06T09:00:00	1	Precipitación	0
162120	7	Sololá	701	Sololá	2	El tablón	6	Junio	2023-06-25T00:00:00	2024-11-06T09:00:00	8	Radiación solar	475
162121	7	Sololá	701	Sololá	2	El tablón	6	Junio	2023-06-25T00:00:00	2024-11-06T10:00:00	2	Temperatura media	17.4
162122	7	Sololá	701	Sololá	2	El tablón	6	Junio	2023-06-25T00:00:00	2024-11-06T10:00:00	4	Temperatura máxima	17.8
162123	7	Sololá	701	Sololá	2	El tablón	6	Junio	2023-06-25T00:00:00	2024-11-06T10:00:00	3	Temperatura mínima	17.2
162124	7	Sololá	701	Sololá	2	El tablón	6	Junio	2023-06-25T00:00:00	2024-11-06T10:00:00	5	Humedad	68
162125	7	Sololá	701	Sololá	2	El tablón	6	Junio	2023-06-25T00:00:00	2024-11-06T10:00:00	6	Velocidad del viento	8
162126	7	Sololá	701	Sololá	2	El tablón	6	Junio	2023-06-25T00:00:00	2024-11-06T10:00:00	7	Dirección del viento	8.05
162127	7	Sololá	701	Sololá	2	El tablón	6	Junio	2023-06-25T00:00:00	2024-11-06T10:00:00	1	Precipitación	0
162128	7	Sololá	701	Sololá	2	El tablón	6	Junio	2023-06-25T00:00:00	2024-11-06T10:00:00	8	Radiación solar	453
162129	7	Sololá	701	Sololá	2	El tablón	6	Junio	2023-06-25T00:00:00	2024-11-06T11:00:00	2	Temperatura media	17.9
162130	7	Sololá	701	Sololá	2	El tablón	6	Junio	2023-06-25T00:00:00	2024-11-06T11:00:00	4	Temperatura máxima	17.9
162131	7	Sololá	701	Sololá	2	El tablón	6	Junio	2023-06-25T00:00:00	2024-11-06T11:00:00	3	Temperatura mínima	17.2
162132	7	Sololá	701	Sololá	2	El tablón	6	Junio	2023-06-25T00:00:00	2024-11-06T11:00:00	5	Humedad	66
162133	7	Sololá	701	Sololá	2	El tablón	6	Junio	2023-06-25T00:00:00	2024-11-06T11:00:00	6	Velocidad del viento	9.7
162134	7	Sololá	701	Sololá	2	El tablón	6	Junio	2023-06-25T00:00:00	2024-11-06T11:00:00	7	Dirección del viento	9.66
162135	7	Sololá	701	Sololá	2	El tablón	6	Junio	2023-06-25T00:00:00	2024-11-06T11:00:00	1	Precipitación	0
162136	7	Sololá	701	Sololá	2	El tablón	6	Junio	2023-06-25T00:00:00	2024-11-06T11:00:00	8	Radiación solar	565
162137	7	Sololá	701	Sololá	2	El tablón	6	Junio	2023-06-25T00:00:00	2024-11-06T12:00:00	2	Temperatura media	19.1
162138	7	Sololá	701	Sololá	2	El tablón	6	Junio	2023-06-25T00:00:00	2024-11-06T12:00:00	4	Temperatura máxima	19.3
162139	7	Sololá	701	Sololá	2	El tablón	6	Junio	2023-06-25T00:00:00	2024-11-06T12:00:00	3	Temperatura mínima	17.7
162140	7	Sololá	701	Sololá	2	El tablón	6	Junio	2023-06-25T00:00:00	2024-11-06T12:00:00	5	Humedad	60
162141	7	Sololá	701	Sololá	2	El tablón	6	Junio	2023-06-25T00:00:00	2024-11-06T12:00:00	6	Velocidad del viento	11.3
162142	7	Sololá	701	Sololá	2	El tablón	6	Junio	2023-06-25T00:00:00	2024-11-06T12:00:00	7	Dirección del viento	11.27
162143	7	Sololá	701	Sololá	2	El tablón	6	Junio	2023-06-25T00:00:00	2024-11-06T12:00:00	1	Precipitación	0.2
162144	7	Sololá	701	Sololá	2	El tablón	6	Junio	2023-06-25T00:00:00	2024-11-06T12:00:00	8	Radiación solar	893
162145	7	Sololá	701	Sololá	2	El tablón	6	Junio	2023-06-25T00:00:00	2024-11-06T13:00:00	2	Temperatura media	20.1
162146	7	Sololá	701	Sololá	2	El tablón	6	Junio	2023-06-25T00:00:00	2024-11-06T13:00:00	4	Temperatura máxima	20.1
162147	7	Sololá	701	Sololá	2	El tablón	6	Junio	2023-06-25T00:00:00	2024-11-06T13:00:00	3	Temperatura mínima	19.1
162148	7	Sololá	701	Sololá	2	El tablón	6	Junio	2023-06-25T00:00:00	2024-11-06T13:00:00	5	Humedad	58
162149	7	Sololá	701	Sololá	2	El tablón	6	Junio	2023-06-25T00:00:00	2024-11-06T13:00:00	6	Velocidad del viento	9.7
162150	7	Sololá	701	Sololá	2	El tablón	6	Junio	2023-06-25T00:00:00	2024-11-06T13:00:00	7	Dirección del viento	9.66
162151	7	Sololá	701	Sololá	2	El tablón	6	Junio	2023-06-25T00:00:00	2024-11-06T13:00:00	1	Precipitación	0
162152	7	Sololá	701	Sololá	2	El tablón	6	Junio	2023-06-25T00:00:00	2024-11-06T13:00:00	8	Radiación solar	979
162153	7	Sololá	701	Sololá	2	El tablón	6	Junio	2023-06-25T00:00:00	2024-11-06T14:00:00	2	Temperatura media	19.3
162154	7	Sololá	701	Sololá	2	El tablón	6	Junio	2023-06-25T00:00:00	2024-11-06T14:00:00	4	Temperatura máxima	20.3
162155	7	Sololá	701	Sololá	2	El tablón	6	Junio	2023-06-25T00:00:00	2024-11-06T14:00:00	3	Temperatura mínima	19.3
162156	7	Sololá	701	Sololá	2	El tablón	6	Junio	2023-06-25T00:00:00	2024-11-06T14:00:00	5	Humedad	53
162157	7	Sololá	701	Sololá	2	El tablón	6	Junio	2023-06-25T00:00:00	2024-11-06T14:00:00	6	Velocidad del viento	9.7
162158	7	Sololá	701	Sololá	2	El tablón	6	Junio	2023-06-25T00:00:00	2024-11-06T14:00:00	7	Dirección del viento	9.66
162159	7	Sololá	701	Sololá	2	El tablón	6	Junio	2023-06-25T00:00:00	2024-11-06T14:00:00	1	Precipitación	0
162160	7	Sololá	701	Sololá	2	El tablón	6	Junio	2023-06-25T00:00:00	2024-11-06T14:00:00	8	Radiación solar	901
162161	7	Sololá	701	Sololá	2	El tablón	6	Junio	2023-06-25T00:00:00	2024-11-06T15:00:00	2	Temperatura media	19.5
162162	7	Sololá	701	Sololá	2	El tablón	6	Junio	2023-06-25T00:00:00	2024-11-06T15:00:00	4	Temperatura máxima	20.3
162163	7	Sololá	701	Sololá	2	El tablón	6	Junio	2023-06-25T00:00:00	2024-11-06T15:00:00	3	Temperatura mínima	19.1
162164	7	Sololá	701	Sololá	2	El tablón	6	Junio	2023-06-25T00:00:00	2024-11-06T15:00:00	5	Humedad	47
162165	7	Sololá	701	Sololá	2	El tablón	6	Junio	2023-06-25T00:00:00	2024-11-06T15:00:00	6	Velocidad del viento	9.7
162166	7	Sololá	701	Sololá	2	El tablón	6	Junio	2023-06-25T00:00:00	2024-11-06T15:00:00	7	Dirección del viento	9.66
162167	7	Sololá	701	Sololá	2	El tablón	6	Junio	2023-06-25T00:00:00	2024-11-06T15:00:00	1	Precipitación	0
162168	7	Sololá	701	Sololá	2	El tablón	6	Junio	2023-06-25T00:00:00	2024-11-06T15:00:00	8	Radiación solar	644
162169	7	Sololá	701	Sololá	2	El tablón	6	Junio	2023-06-25T00:00:00	2024-11-06T16:00:00	2	Temperatura media	19
162170	7	Sololá	701	Sololá	2	El tablón	6	Junio	2023-06-25T00:00:00	2024-11-06T16:00:00	4	Temperatura máxima	19.5
162171	7	Sololá	701	Sololá	2	El tablón	6	Junio	2023-06-25T00:00:00	2024-11-06T16:00:00	3	Temperatura mínima	18.9
162172	7	Sololá	701	Sololá	2	El tablón	6	Junio	2023-06-25T00:00:00	2024-11-06T16:00:00	5	Humedad	59
162173	7	Sololá	701	Sololá	2	El tablón	6	Junio	2023-06-25T00:00:00	2024-11-06T16:00:00	6	Velocidad del viento	4.8
162174	7	Sololá	701	Sololá	2	El tablón	6	Junio	2023-06-25T00:00:00	2024-11-06T16:00:00	7	Dirección del viento	4.83
162175	7	Sololá	701	Sololá	2	El tablón	6	Junio	2023-06-25T00:00:00	2024-11-06T16:00:00	1	Precipitación	0
162176	7	Sololá	701	Sololá	2	El tablón	6	Junio	2023-06-25T00:00:00	2024-11-06T16:00:00	8	Radiación solar	258
162177	7	Sololá	701	Sololá	2	El tablón	6	Junio	2023-06-25T00:00:00	2024-11-06T17:00:00	2	Temperatura media	18.2
162178	7	Sololá	701	Sololá	2	El tablón	6	Junio	2023-06-25T00:00:00	2024-11-06T17:00:00	4	Temperatura máxima	19
162179	7	Sololá	701	Sololá	2	El tablón	6	Junio	2023-06-25T00:00:00	2024-11-06T17:00:00	3	Temperatura mínima	18.2
162180	7	Sololá	701	Sololá	2	El tablón	6	Junio	2023-06-25T00:00:00	2024-11-06T17:00:00	5	Humedad	65
162181	7	Sololá	701	Sololá	2	El tablón	6	Junio	2023-06-25T00:00:00	2024-11-06T17:00:00	6	Velocidad del viento	6.4
162182	7	Sololá	701	Sololá	2	El tablón	6	Junio	2023-06-25T00:00:00	2024-11-06T17:00:00	7	Dirección del viento	6.44
162183	7	Sololá	701	Sololá	2	El tablón	6	Junio	2023-06-25T00:00:00	2024-11-06T17:00:00	1	Precipitación	0
162184	7	Sololá	701	Sololá	2	El tablón	6	Junio	2023-06-25T00:00:00	2024-11-06T17:00:00	8	Radiación solar	263
162185	7	Sololá	701	Sololá	2	El tablón	6	Junio	2023-06-25T00:00:00	2024-11-06T18:00:00	2	Temperatura media	16.9
162186	7	Sololá	701	Sololá	2	El tablón	6	Junio	2023-06-25T00:00:00	2024-11-06T18:00:00	4	Temperatura máxima	18.2
162187	7	Sololá	701	Sololá	2	El tablón	6	Junio	2023-06-25T00:00:00	2024-11-06T18:00:00	3	Temperatura mínima	16.9
162188	7	Sololá	701	Sololá	2	El tablón	6	Junio	2023-06-25T00:00:00	2024-11-06T18:00:00	5	Humedad	71
162189	7	Sololá	701	Sololá	2	El tablón	6	Junio	2023-06-25T00:00:00	2024-11-06T18:00:00	6	Velocidad del viento	6.4
162190	7	Sololá	701	Sololá	2	El tablón	6	Junio	2023-06-25T00:00:00	2024-11-06T18:00:00	7	Dirección del viento	6.44
162191	7	Sololá	701	Sololá	2	El tablón	6	Junio	2023-06-25T00:00:00	2024-11-06T18:00:00	1	Precipitación	0
162192	7	Sololá	701	Sololá	2	El tablón	6	Junio	2023-06-25T00:00:00	2024-11-06T18:00:00	8	Radiación solar	116
162193	7	Sololá	701	Sololá	2	El tablón	6	Junio	2023-06-25T00:00:00	2024-11-06T19:00:00	2	Temperatura media	15.1
162194	7	Sololá	701	Sololá	2	El tablón	6	Junio	2023-06-25T00:00:00	2024-11-06T19:00:00	4	Temperatura máxima	17
162195	7	Sololá	701	Sololá	2	El tablón	6	Junio	2023-06-25T00:00:00	2024-11-06T19:00:00	3	Temperatura mínima	15.1
162196	7	Sololá	701	Sololá	2	El tablón	6	Junio	2023-06-25T00:00:00	2024-11-06T19:00:00	5	Humedad	84
162197	7	Sololá	701	Sololá	2	El tablón	6	Junio	2023-06-25T00:00:00	2024-11-06T19:00:00	6	Velocidad del viento	6.4
162198	7	Sololá	701	Sololá	2	El tablón	6	Junio	2023-06-25T00:00:00	2024-11-06T19:00:00	7	Dirección del viento	6.44
162199	7	Sololá	701	Sololá	2	El tablón	6	Junio	2023-06-25T00:00:00	2024-11-06T19:00:00	1	Precipitación	0
162200	7	Sololá	701	Sololá	2	El tablón	6	Junio	2023-06-25T00:00:00	2024-11-06T19:00:00	8	Radiación solar	0
162201	7	Sololá	701	Sololá	2	El tablón	6	Junio	2023-06-25T00:00:00	2024-11-06T20:00:00	2	Temperatura media	14.4
162202	7	Sololá	701	Sololá	2	El tablón	6	Junio	2023-06-25T00:00:00	2024-11-06T20:00:00	4	Temperatura máxima	15.1
162203	7	Sololá	701	Sololá	2	El tablón	6	Junio	2023-06-25T00:00:00	2024-11-06T20:00:00	3	Temperatura mínima	14.3
162204	7	Sololá	701	Sololá	2	El tablón	6	Junio	2023-06-25T00:00:00	2024-11-06T20:00:00	5	Humedad	83
162205	7	Sololá	701	Sololá	2	El tablón	6	Junio	2023-06-25T00:00:00	2024-11-06T20:00:00	6	Velocidad del viento	6.4
162206	7	Sololá	701	Sololá	2	El tablón	6	Junio	2023-06-25T00:00:00	2024-11-06T20:00:00	7	Dirección del viento	6.44
162207	7	Sololá	701	Sololá	2	El tablón	6	Junio	2023-06-25T00:00:00	2024-11-06T20:00:00	1	Precipitación	0
162208	7	Sololá	701	Sololá	2	El tablón	6	Junio	2023-06-25T00:00:00	2024-11-06T20:00:00	8	Radiación solar	0
162209	7	Sololá	701	Sololá	2	El tablón	6	Junio	2023-06-25T00:00:00	2024-11-06T21:00:00	2	Temperatura media	13.4
162210	7	Sololá	701	Sololá	2	El tablón	6	Junio	2023-06-25T00:00:00	2024-11-06T21:00:00	4	Temperatura máxima	14.4
162211	7	Sololá	701	Sololá	2	El tablón	6	Junio	2023-06-25T00:00:00	2024-11-06T21:00:00	3	Temperatura mínima	13.3
162212	7	Sololá	701	Sololá	2	El tablón	6	Junio	2023-06-25T00:00:00	2024-11-06T21:00:00	5	Humedad	77
162213	7	Sololá	701	Sololá	2	El tablón	6	Junio	2023-06-25T00:00:00	2024-11-06T21:00:00	6	Velocidad del viento	6.4
162214	7	Sololá	701	Sololá	2	El tablón	6	Junio	2023-06-25T00:00:00	2024-11-06T21:00:00	7	Dirección del viento	6.44
162215	7	Sololá	701	Sololá	2	El tablón	6	Junio	2023-06-25T00:00:00	2024-11-06T21:00:00	1	Precipitación	0
162216	7	Sololá	701	Sololá	2	El tablón	6	Junio	2023-06-25T00:00:00	2024-11-06T21:00:00	8	Radiación solar	0
162217	7	Sololá	701	Sololá	2	El tablón	6	Junio	2023-06-25T00:00:00	2024-11-06T22:00:00	2	Temperatura media	12.8
162218	7	Sololá	701	Sololá	2	El tablón	6	Junio	2023-06-25T00:00:00	2024-11-06T22:00:00	4	Temperatura máxima	13.3
162219	7	Sololá	701	Sololá	2	El tablón	6	Junio	2023-06-25T00:00:00	2024-11-06T22:00:00	3	Temperatura mínima	12.8
162220	7	Sololá	701	Sololá	2	El tablón	6	Junio	2023-06-25T00:00:00	2024-11-06T22:00:00	5	Humedad	78
162221	7	Sololá	701	Sololá	2	El tablón	6	Junio	2023-06-25T00:00:00	2024-11-06T22:00:00	6	Velocidad del viento	8
162222	7	Sololá	701	Sololá	2	El tablón	6	Junio	2023-06-25T00:00:00	2024-11-06T22:00:00	7	Dirección del viento	8.05
162223	7	Sololá	701	Sololá	2	El tablón	6	Junio	2023-06-25T00:00:00	2024-11-06T22:00:00	1	Precipitación	0
162224	7	Sololá	701	Sololá	2	El tablón	6	Junio	2023-06-25T00:00:00	2024-11-06T22:00:00	8	Radiación solar	0
162225	7	Sololá	701	Sololá	2	El tablón	6	Junio	2023-06-25T00:00:00	2024-11-06T23:00:00	2	Temperatura media	12.7
162226	7	Sololá	701	Sololá	2	El tablón	6	Junio	2023-06-25T00:00:00	2024-11-06T23:00:00	4	Temperatura máxima	12.9
162227	7	Sololá	701	Sololá	2	El tablón	6	Junio	2023-06-25T00:00:00	2024-11-06T23:00:00	3	Temperatura mínima	12.7
162228	7	Sololá	701	Sololá	2	El tablón	6	Junio	2023-06-25T00:00:00	2024-11-06T23:00:00	5	Humedad	78
162229	7	Sololá	701	Sololá	2	El tablón	6	Junio	2023-06-25T00:00:00	2024-11-06T23:00:00	6	Velocidad del viento	6.4
162230	7	Sololá	701	Sololá	2	El tablón	6	Junio	2023-06-25T00:00:00	2024-11-06T23:00:00	7	Dirección del viento	6.44
162231	7	Sololá	701	Sololá	2	El tablón	6	Junio	2023-06-25T00:00:00	2024-11-06T23:00:00	1	Precipitación	0
162232	7	Sololá	701	Sololá	2	El tablón	6	Junio	2023-06-25T00:00:00	2024-11-06T23:00:00	8	Radiación solar	0
162233	7	Sololá	701	Sololá	2	El tablón	6	Junio	2023-06-26T00:00:00	2024-11-06T00:00:00	2	Temperatura media	12.5
162234	7	Sololá	701	Sololá	2	El tablón	6	Junio	2023-06-26T00:00:00	2024-11-06T00:00:00	4	Temperatura máxima	12.7
162235	7	Sololá	701	Sololá	2	El tablón	6	Junio	2023-06-26T00:00:00	2024-11-06T00:00:00	3	Temperatura mínima	12.3
162236	7	Sololá	701	Sololá	2	El tablón	6	Junio	2023-06-26T00:00:00	2024-11-06T00:00:00	5	Humedad	81
162237	7	Sololá	701	Sololá	2	El tablón	6	Junio	2023-06-26T00:00:00	2024-11-06T00:00:00	6	Velocidad del viento	3.2
162238	7	Sololá	701	Sololá	2	El tablón	6	Junio	2023-06-26T00:00:00	2024-11-06T00:00:00	7	Dirección del viento	3.22
162239	7	Sololá	701	Sololá	2	El tablón	6	Junio	2023-06-26T00:00:00	2024-11-06T00:00:00	1	Precipitación	0
162240	7	Sololá	701	Sololá	2	El tablón	6	Junio	2023-06-26T00:00:00	2024-11-06T00:00:00	8	Radiación solar	0
162241	7	Sololá	701	Sololá	2	El tablón	6	Junio	2023-06-26T00:00:00	2024-11-06T01:00:00	2	Temperatura media	12.5
162242	7	Sololá	701	Sololá	2	El tablón	6	Junio	2023-06-26T00:00:00	2024-11-06T01:00:00	4	Temperatura máxima	12.6
162243	7	Sololá	701	Sololá	2	El tablón	6	Junio	2023-06-26T00:00:00	2024-11-06T01:00:00	3	Temperatura mínima	12.3
162244	7	Sololá	701	Sololá	2	El tablón	6	Junio	2023-06-26T00:00:00	2024-11-06T01:00:00	5	Humedad	83
162245	7	Sololá	701	Sololá	2	El tablón	6	Junio	2023-06-26T00:00:00	2024-11-06T01:00:00	6	Velocidad del viento	8
162246	7	Sololá	701	Sololá	2	El tablón	6	Junio	2023-06-26T00:00:00	2024-11-06T01:00:00	7	Dirección del viento	8.05
162247	7	Sololá	701	Sololá	2	El tablón	6	Junio	2023-06-26T00:00:00	2024-11-06T01:00:00	1	Precipitación	0
162248	7	Sololá	701	Sololá	2	El tablón	6	Junio	2023-06-26T00:00:00	2024-11-06T01:00:00	8	Radiación solar	0
162249	7	Sololá	701	Sololá	2	El tablón	6	Junio	2023-06-26T00:00:00	2024-11-06T02:00:00	2	Temperatura media	12.4
162250	7	Sololá	701	Sololá	2	El tablón	6	Junio	2023-06-26T00:00:00	2024-11-06T02:00:00	4	Temperatura máxima	12.6
162251	7	Sololá	701	Sololá	2	El tablón	6	Junio	2023-06-26T00:00:00	2024-11-06T02:00:00	3	Temperatura mínima	12.4
162252	7	Sololá	701	Sololá	2	El tablón	6	Junio	2023-06-26T00:00:00	2024-11-06T02:00:00	5	Humedad	84
162253	7	Sololá	701	Sololá	2	El tablón	6	Junio	2023-06-26T00:00:00	2024-11-06T02:00:00	6	Velocidad del viento	9.7
162254	7	Sololá	701	Sololá	2	El tablón	6	Junio	2023-06-26T00:00:00	2024-11-06T02:00:00	7	Dirección del viento	9.66
162255	7	Sololá	701	Sololá	2	El tablón	6	Junio	2023-06-26T00:00:00	2024-11-06T02:00:00	1	Precipitación	0
162256	7	Sololá	701	Sololá	2	El tablón	6	Junio	2023-06-26T00:00:00	2024-11-06T02:00:00	8	Radiación solar	0
162257	7	Sololá	701	Sololá	2	El tablón	6	Junio	2023-06-26T00:00:00	2024-11-06T03:00:00	2	Temperatura media	12.4
162258	7	Sololá	701	Sololá	2	El tablón	6	Junio	2023-06-26T00:00:00	2024-11-06T03:00:00	4	Temperatura máxima	12.5
162259	7	Sololá	701	Sololá	2	El tablón	6	Junio	2023-06-26T00:00:00	2024-11-06T03:00:00	3	Temperatura mínima	12.2
162260	7	Sololá	701	Sololá	2	El tablón	6	Junio	2023-06-26T00:00:00	2024-11-06T03:00:00	5	Humedad	76
162261	7	Sololá	701	Sololá	2	El tablón	6	Junio	2023-06-26T00:00:00	2024-11-06T03:00:00	6	Velocidad del viento	9.7
162262	7	Sololá	701	Sololá	2	El tablón	6	Junio	2023-06-26T00:00:00	2024-11-06T03:00:00	7	Dirección del viento	9.66
162263	7	Sololá	701	Sololá	2	El tablón	6	Junio	2023-06-26T00:00:00	2024-11-06T03:00:00	1	Precipitación	0
162264	7	Sololá	701	Sololá	2	El tablón	6	Junio	2023-06-26T00:00:00	2024-11-06T03:00:00	8	Radiación solar	0
162265	7	Sololá	701	Sololá	2	El tablón	6	Junio	2023-06-26T00:00:00	2024-11-06T04:00:00	2	Temperatura media	12.4
162266	7	Sololá	701	Sololá	2	El tablón	6	Junio	2023-06-26T00:00:00	2024-11-06T04:00:00	4	Temperatura máxima	12.4
162267	7	Sololá	701	Sololá	2	El tablón	6	Junio	2023-06-26T00:00:00	2024-11-06T04:00:00	3	Temperatura mínima	12.2
162268	7	Sololá	701	Sololá	2	El tablón	6	Junio	2023-06-26T00:00:00	2024-11-06T04:00:00	5	Humedad	67
162269	7	Sololá	701	Sololá	2	El tablón	6	Junio	2023-06-26T00:00:00	2024-11-06T04:00:00	6	Velocidad del viento	8
162270	7	Sololá	701	Sololá	2	El tablón	6	Junio	2023-06-26T00:00:00	2024-11-06T04:00:00	7	Dirección del viento	8.05
162271	7	Sololá	701	Sololá	2	El tablón	6	Junio	2023-06-26T00:00:00	2024-11-06T04:00:00	1	Precipitación	0
162272	7	Sololá	701	Sololá	2	El tablón	6	Junio	2023-06-26T00:00:00	2024-11-06T04:00:00	8	Radiación solar	0
162273	7	Sololá	701	Sololá	2	El tablón	6	Junio	2023-06-26T00:00:00	2024-11-06T05:00:00	2	Temperatura media	12.5
162274	7	Sololá	701	Sololá	2	El tablón	6	Junio	2023-06-26T00:00:00	2024-11-06T05:00:00	4	Temperatura máxima	12.6
162275	7	Sololá	701	Sololá	2	El tablón	6	Junio	2023-06-26T00:00:00	2024-11-06T05:00:00	3	Temperatura mínima	12.2
162276	7	Sololá	701	Sololá	2	El tablón	6	Junio	2023-06-26T00:00:00	2024-11-06T05:00:00	5	Humedad	61
162277	7	Sololá	701	Sololá	2	El tablón	6	Junio	2023-06-26T00:00:00	2024-11-06T05:00:00	6	Velocidad del viento	9.7
162278	7	Sololá	701	Sololá	2	El tablón	6	Junio	2023-06-26T00:00:00	2024-11-06T05:00:00	7	Dirección del viento	9.66
162279	7	Sololá	701	Sololá	2	El tablón	6	Junio	2023-06-26T00:00:00	2024-11-06T05:00:00	1	Precipitación	0
162280	7	Sololá	701	Sololá	2	El tablón	6	Junio	2023-06-26T00:00:00	2024-11-06T05:00:00	8	Radiación solar	0
162281	7	Sololá	701	Sololá	2	El tablón	6	Junio	2023-06-26T00:00:00	2024-11-06T06:00:00	2	Temperatura media	13.2
162282	7	Sololá	701	Sololá	2	El tablón	6	Junio	2023-06-26T00:00:00	2024-11-06T06:00:00	4	Temperatura máxima	13.2
162283	7	Sololá	701	Sololá	2	El tablón	6	Junio	2023-06-26T00:00:00	2024-11-06T06:00:00	3	Temperatura mínima	12.4
162284	7	Sololá	701	Sololá	2	El tablón	6	Junio	2023-06-26T00:00:00	2024-11-06T06:00:00	5	Humedad	66
162285	7	Sololá	701	Sololá	2	El tablón	6	Junio	2023-06-26T00:00:00	2024-11-06T06:00:00	6	Velocidad del viento	9.7
162286	7	Sololá	701	Sololá	2	El tablón	6	Junio	2023-06-26T00:00:00	2024-11-06T06:00:00	7	Dirección del viento	9.66
162287	7	Sololá	701	Sololá	2	El tablón	6	Junio	2023-06-26T00:00:00	2024-11-06T06:00:00	1	Precipitación	0
162288	7	Sololá	701	Sololá	2	El tablón	6	Junio	2023-06-26T00:00:00	2024-11-06T06:00:00	8	Radiación solar	4
162289	7	Sololá	701	Sololá	2	El tablón	6	Junio	2023-06-26T00:00:00	2024-11-06T07:00:00	2	Temperatura media	13.3
162290	7	Sololá	701	Sololá	2	El tablón	6	Junio	2023-06-26T00:00:00	2024-11-06T07:00:00	4	Temperatura máxima	13.3
162291	7	Sololá	701	Sololá	2	El tablón	6	Junio	2023-06-26T00:00:00	2024-11-06T07:00:00	3	Temperatura mínima	12.8
162292	7	Sololá	701	Sololá	2	El tablón	6	Junio	2023-06-26T00:00:00	2024-11-06T07:00:00	5	Humedad	75
162293	7	Sololá	701	Sololá	2	El tablón	6	Junio	2023-06-26T00:00:00	2024-11-06T07:00:00	6	Velocidad del viento	11.3
162294	7	Sololá	701	Sololá	2	El tablón	6	Junio	2023-06-26T00:00:00	2024-11-06T07:00:00	7	Dirección del viento	11.27
162295	7	Sololá	701	Sololá	2	El tablón	6	Junio	2023-06-26T00:00:00	2024-11-06T07:00:00	1	Precipitación	0
162296	7	Sololá	701	Sololá	2	El tablón	6	Junio	2023-06-26T00:00:00	2024-11-06T07:00:00	8	Radiación solar	43
162297	7	Sololá	701	Sololá	2	El tablón	6	Junio	2023-06-26T00:00:00	2024-11-06T08:00:00	2	Temperatura media	14.6
162298	7	Sololá	701	Sololá	2	El tablón	6	Junio	2023-06-26T00:00:00	2024-11-06T08:00:00	4	Temperatura máxima	14.6
162299	7	Sololá	701	Sololá	2	El tablón	6	Junio	2023-06-26T00:00:00	2024-11-06T08:00:00	3	Temperatura mínima	13.3
162300	7	Sololá	701	Sololá	2	El tablón	6	Junio	2023-06-26T00:00:00	2024-11-06T08:00:00	5	Humedad	75
162301	7	Sololá	701	Sololá	2	El tablón	6	Junio	2023-06-26T00:00:00	2024-11-06T08:00:00	6	Velocidad del viento	11.3
162302	7	Sololá	701	Sololá	2	El tablón	6	Junio	2023-06-26T00:00:00	2024-11-06T08:00:00	7	Dirección del viento	11.27
162303	7	Sololá	701	Sololá	2	El tablón	6	Junio	2023-06-26T00:00:00	2024-11-06T08:00:00	1	Precipitación	0
162304	7	Sololá	701	Sololá	2	El tablón	6	Junio	2023-06-26T00:00:00	2024-11-06T08:00:00	8	Radiación solar	176
162305	7	Sololá	701	Sololá	2	El tablón	6	Junio	2023-06-26T00:00:00	2024-11-06T09:00:00	2	Temperatura media	15.7
162306	7	Sololá	701	Sololá	2	El tablón	6	Junio	2023-06-26T00:00:00	2024-11-06T09:00:00	4	Temperatura máxima	15.7
162307	7	Sololá	701	Sololá	2	El tablón	6	Junio	2023-06-26T00:00:00	2024-11-06T09:00:00	3	Temperatura mínima	14.6
162308	7	Sololá	701	Sololá	2	El tablón	6	Junio	2023-06-26T00:00:00	2024-11-06T09:00:00	5	Humedad	71
162309	7	Sololá	701	Sololá	2	El tablón	6	Junio	2023-06-26T00:00:00	2024-11-06T09:00:00	6	Velocidad del viento	11.3
162310	7	Sololá	701	Sololá	2	El tablón	6	Junio	2023-06-26T00:00:00	2024-11-06T09:00:00	7	Dirección del viento	11.27
162311	7	Sololá	701	Sololá	2	El tablón	6	Junio	2023-06-26T00:00:00	2024-11-06T09:00:00	1	Precipitación	0
162312	7	Sololá	701	Sololá	2	El tablón	6	Junio	2023-06-26T00:00:00	2024-11-06T09:00:00	8	Radiación solar	274
162313	7	Sololá	701	Sololá	2	El tablón	6	Junio	2023-06-26T00:00:00	2024-11-06T10:00:00	2	Temperatura media	17.5
162314	7	Sololá	701	Sololá	2	El tablón	6	Junio	2023-06-26T00:00:00	2024-11-06T10:00:00	4	Temperatura máxima	17.5
162315	7	Sololá	701	Sololá	2	El tablón	6	Junio	2023-06-26T00:00:00	2024-11-06T10:00:00	3	Temperatura mínima	15.6
162316	7	Sololá	701	Sololá	2	El tablón	6	Junio	2023-06-26T00:00:00	2024-11-06T10:00:00	5	Humedad	68
162317	7	Sololá	701	Sololá	2	El tablón	6	Junio	2023-06-26T00:00:00	2024-11-06T10:00:00	6	Velocidad del viento	11.3
162318	7	Sololá	701	Sololá	2	El tablón	6	Junio	2023-06-26T00:00:00	2024-11-06T10:00:00	7	Dirección del viento	11.27
162319	7	Sololá	701	Sololá	2	El tablón	6	Junio	2023-06-26T00:00:00	2024-11-06T10:00:00	1	Precipitación	0
162320	7	Sololá	701	Sololá	2	El tablón	6	Junio	2023-06-26T00:00:00	2024-11-06T10:00:00	8	Radiación solar	460
162321	7	Sololá	701	Sololá	2	El tablón	6	Junio	2023-06-26T00:00:00	2024-11-06T11:00:00	2	Temperatura media	17.6
162322	7	Sololá	701	Sololá	2	El tablón	6	Junio	2023-06-26T00:00:00	2024-11-06T11:00:00	4	Temperatura máxima	18.5
162323	7	Sololá	701	Sololá	2	El tablón	6	Junio	2023-06-26T00:00:00	2024-11-06T11:00:00	3	Temperatura mínima	17.4
162324	7	Sololá	701	Sololá	2	El tablón	6	Junio	2023-06-26T00:00:00	2024-11-06T11:00:00	5	Humedad	70
162325	7	Sololá	701	Sololá	2	El tablón	6	Junio	2023-06-26T00:00:00	2024-11-06T11:00:00	6	Velocidad del viento	9.7
162326	7	Sololá	701	Sololá	2	El tablón	6	Junio	2023-06-26T00:00:00	2024-11-06T11:00:00	7	Dirección del viento	9.66
162327	7	Sololá	701	Sololá	2	El tablón	6	Junio	2023-06-26T00:00:00	2024-11-06T11:00:00	1	Precipitación	0
162328	7	Sololá	701	Sololá	2	El tablón	6	Junio	2023-06-26T00:00:00	2024-11-06T11:00:00	8	Radiación solar	601
162329	7	Sololá	701	Sololá	2	El tablón	6	Junio	2023-06-26T00:00:00	2024-11-06T12:00:00	2	Temperatura media	19.4
162330	7	Sololá	701	Sololá	2	El tablón	6	Junio	2023-06-26T00:00:00	2024-11-06T12:00:00	4	Temperatura máxima	19.5
162331	7	Sololá	701	Sololá	2	El tablón	6	Junio	2023-06-26T00:00:00	2024-11-06T12:00:00	3	Temperatura mínima	17.6
162332	7	Sololá	701	Sololá	2	El tablón	6	Junio	2023-06-26T00:00:00	2024-11-06T12:00:00	5	Humedad	66
162333	7	Sololá	701	Sololá	2	El tablón	6	Junio	2023-06-26T00:00:00	2024-11-06T12:00:00	6	Velocidad del viento	11.3
162334	7	Sololá	701	Sololá	2	El tablón	6	Junio	2023-06-26T00:00:00	2024-11-06T12:00:00	7	Dirección del viento	11.27
162335	7	Sololá	701	Sololá	2	El tablón	6	Junio	2023-06-26T00:00:00	2024-11-06T12:00:00	1	Precipitación	0
162336	7	Sololá	701	Sololá	2	El tablón	6	Junio	2023-06-26T00:00:00	2024-11-06T12:00:00	8	Radiación solar	856
162337	7	Sololá	701	Sololá	2	El tablón	6	Junio	2023-06-26T00:00:00	2024-11-06T13:00:00	2	Temperatura media	19.9
162338	7	Sololá	701	Sololá	2	El tablón	6	Junio	2023-06-26T00:00:00	2024-11-06T13:00:00	4	Temperatura máxima	19.9
162339	7	Sololá	701	Sololá	2	El tablón	6	Junio	2023-06-26T00:00:00	2024-11-06T13:00:00	3	Temperatura mínima	18.9
162340	7	Sololá	701	Sololá	2	El tablón	6	Junio	2023-06-26T00:00:00	2024-11-06T13:00:00	5	Humedad	65
162341	7	Sololá	701	Sololá	2	El tablón	6	Junio	2023-06-26T00:00:00	2024-11-06T13:00:00	6	Velocidad del viento	12.9
162342	7	Sololá	701	Sololá	2	El tablón	6	Junio	2023-06-26T00:00:00	2024-11-06T13:00:00	7	Dirección del viento	12.87
162343	7	Sololá	701	Sololá	2	El tablón	6	Junio	2023-06-26T00:00:00	2024-11-06T13:00:00	1	Precipitación	0
162344	7	Sololá	701	Sololá	2	El tablón	6	Junio	2023-06-26T00:00:00	2024-11-06T13:00:00	8	Radiación solar	975
162345	7	Sololá	701	Sololá	2	El tablón	6	Junio	2023-06-26T00:00:00	2024-11-06T14:00:00	2	Temperatura media	19.8
162346	7	Sololá	701	Sololá	2	El tablón	6	Junio	2023-06-26T00:00:00	2024-11-06T14:00:00	4	Temperatura máxima	21.1
162347	7	Sololá	701	Sololá	2	El tablón	6	Junio	2023-06-26T00:00:00	2024-11-06T14:00:00	3	Temperatura mínima	19.6
162348	7	Sololá	701	Sololá	2	El tablón	6	Junio	2023-06-26T00:00:00	2024-11-06T14:00:00	5	Humedad	67
162349	7	Sololá	701	Sololá	2	El tablón	6	Junio	2023-06-26T00:00:00	2024-11-06T14:00:00	6	Velocidad del viento	9.7
162350	7	Sololá	701	Sololá	2	El tablón	6	Junio	2023-06-26T00:00:00	2024-11-06T14:00:00	7	Dirección del viento	9.66
162351	7	Sololá	701	Sololá	2	El tablón	6	Junio	2023-06-26T00:00:00	2024-11-06T14:00:00	1	Precipitación	0
162352	7	Sololá	701	Sololá	2	El tablón	6	Junio	2023-06-26T00:00:00	2024-11-06T14:00:00	8	Radiación solar	878
162353	7	Sololá	701	Sololá	2	El tablón	6	Junio	2023-06-26T00:00:00	2024-11-06T15:00:00	2	Temperatura media	19.9
162354	7	Sololá	701	Sololá	2	El tablón	6	Junio	2023-06-26T00:00:00	2024-11-06T15:00:00	4	Temperatura máxima	20.3
162355	7	Sololá	701	Sololá	2	El tablón	6	Junio	2023-06-26T00:00:00	2024-11-06T15:00:00	3	Temperatura mínima	19.7
162356	7	Sololá	701	Sololá	2	El tablón	6	Junio	2023-06-26T00:00:00	2024-11-06T15:00:00	5	Humedad	65
162357	7	Sololá	701	Sololá	2	El tablón	6	Junio	2023-06-26T00:00:00	2024-11-06T15:00:00	6	Velocidad del viento	9.7
162358	7	Sololá	701	Sololá	2	El tablón	6	Junio	2023-06-26T00:00:00	2024-11-06T15:00:00	7	Dirección del viento	9.66
162359	7	Sololá	701	Sololá	2	El tablón	6	Junio	2023-06-26T00:00:00	2024-11-06T15:00:00	1	Precipitación	0
162360	7	Sololá	701	Sololá	2	El tablón	6	Junio	2023-06-26T00:00:00	2024-11-06T15:00:00	8	Radiación solar	834
162361	7	Sololá	701	Sololá	2	El tablón	6	Junio	2023-06-26T00:00:00	2024-11-06T16:00:00	2	Temperatura media	19.3
162362	7	Sololá	701	Sololá	2	El tablón	6	Junio	2023-06-26T00:00:00	2024-11-06T16:00:00	4	Temperatura máxima	20.3
162363	7	Sololá	701	Sololá	2	El tablón	6	Junio	2023-06-26T00:00:00	2024-11-06T16:00:00	3	Temperatura mínima	19.3
162364	7	Sololá	701	Sololá	2	El tablón	6	Junio	2023-06-26T00:00:00	2024-11-06T16:00:00	5	Humedad	64
162365	7	Sololá	701	Sololá	2	El tablón	6	Junio	2023-06-26T00:00:00	2024-11-06T16:00:00	6	Velocidad del viento	8
162366	7	Sololá	701	Sololá	2	El tablón	6	Junio	2023-06-26T00:00:00	2024-11-06T16:00:00	7	Dirección del viento	8.05
162367	7	Sololá	701	Sololá	2	El tablón	6	Junio	2023-06-26T00:00:00	2024-11-06T16:00:00	1	Precipitación	0
162368	7	Sololá	701	Sololá	2	El tablón	6	Junio	2023-06-26T00:00:00	2024-11-06T16:00:00	8	Radiación solar	515
162369	7	Sololá	701	Sololá	2	El tablón	6	Junio	2023-06-26T00:00:00	2024-11-06T17:00:00	2	Temperatura media	19.5
162370	7	Sololá	701	Sololá	2	El tablón	6	Junio	2023-06-26T00:00:00	2024-11-06T17:00:00	4	Temperatura máxima	19.9
162371	7	Sololá	701	Sololá	2	El tablón	6	Junio	2023-06-26T00:00:00	2024-11-06T17:00:00	3	Temperatura mínima	19.2
162372	7	Sololá	701	Sololá	2	El tablón	6	Junio	2023-06-26T00:00:00	2024-11-06T17:00:00	5	Humedad	67
162373	7	Sololá	701	Sololá	2	El tablón	6	Junio	2023-06-26T00:00:00	2024-11-06T17:00:00	6	Velocidad del viento	6.4
162374	7	Sololá	701	Sololá	2	El tablón	6	Junio	2023-06-26T00:00:00	2024-11-06T17:00:00	7	Dirección del viento	6.44
162375	7	Sololá	701	Sololá	2	El tablón	6	Junio	2023-06-26T00:00:00	2024-11-06T17:00:00	1	Precipitación	0
162376	7	Sololá	701	Sololá	2	El tablón	6	Junio	2023-06-26T00:00:00	2024-11-06T17:00:00	8	Radiación solar	313
162377	7	Sololá	701	Sololá	2	El tablón	6	Junio	2023-06-26T00:00:00	2024-11-06T18:00:00	2	Temperatura media	18.1
162378	7	Sololá	701	Sololá	2	El tablón	6	Junio	2023-06-26T00:00:00	2024-11-06T18:00:00	4	Temperatura máxima	19.6
162379	7	Sololá	701	Sololá	2	El tablón	6	Junio	2023-06-26T00:00:00	2024-11-06T18:00:00	3	Temperatura mínima	18.1
162380	7	Sololá	701	Sololá	2	El tablón	6	Junio	2023-06-26T00:00:00	2024-11-06T18:00:00	5	Humedad	73
162381	7	Sololá	701	Sololá	2	El tablón	6	Junio	2023-06-26T00:00:00	2024-11-06T18:00:00	6	Velocidad del viento	6.4
162382	7	Sololá	701	Sololá	2	El tablón	6	Junio	2023-06-26T00:00:00	2024-11-06T18:00:00	7	Dirección del viento	6.44
162383	7	Sololá	701	Sololá	2	El tablón	6	Junio	2023-06-26T00:00:00	2024-11-06T18:00:00	1	Precipitación	0
162384	7	Sololá	701	Sololá	2	El tablón	6	Junio	2023-06-26T00:00:00	2024-11-06T18:00:00	8	Radiación solar	154
162385	7	Sololá	701	Sololá	2	El tablón	6	Junio	2023-06-26T00:00:00	2024-11-06T19:00:00	2	Temperatura media	16.3
162386	7	Sololá	701	Sololá	2	El tablón	6	Junio	2023-06-26T00:00:00	2024-11-06T19:00:00	4	Temperatura máxima	18.2
162387	7	Sololá	701	Sololá	2	El tablón	6	Junio	2023-06-26T00:00:00	2024-11-06T19:00:00	3	Temperatura mínima	16.3
162388	7	Sololá	701	Sololá	2	El tablón	6	Junio	2023-06-26T00:00:00	2024-11-06T19:00:00	5	Humedad	82
162389	7	Sololá	701	Sololá	2	El tablón	6	Junio	2023-06-26T00:00:00	2024-11-06T19:00:00	6	Velocidad del viento	4.8
162390	7	Sololá	701	Sololá	2	El tablón	6	Junio	2023-06-26T00:00:00	2024-11-06T19:00:00	7	Dirección del viento	4.83
162391	7	Sololá	701	Sololá	2	El tablón	6	Junio	2023-06-26T00:00:00	2024-11-06T19:00:00	1	Precipitación	0
162392	7	Sololá	701	Sololá	2	El tablón	6	Junio	2023-06-26T00:00:00	2024-11-06T19:00:00	8	Radiación solar	0
162393	7	Sololá	701	Sololá	2	El tablón	6	Junio	2023-06-26T00:00:00	2024-11-06T20:00:00	2	Temperatura media	15.6
162394	7	Sololá	701	Sololá	2	El tablón	6	Junio	2023-06-26T00:00:00	2024-11-06T20:00:00	4	Temperatura máxima	16.3
162395	7	Sololá	701	Sololá	2	El tablón	6	Junio	2023-06-26T00:00:00	2024-11-06T20:00:00	3	Temperatura mínima	15.6
162396	7	Sololá	701	Sololá	2	El tablón	6	Junio	2023-06-26T00:00:00	2024-11-06T20:00:00	5	Humedad	86
162397	7	Sololá	701	Sololá	2	El tablón	6	Junio	2023-06-26T00:00:00	2024-11-06T20:00:00	6	Velocidad del viento	4.8
162398	7	Sololá	701	Sololá	2	El tablón	6	Junio	2023-06-26T00:00:00	2024-11-06T20:00:00	7	Dirección del viento	4.83
162399	7	Sololá	701	Sololá	2	El tablón	6	Junio	2023-06-26T00:00:00	2024-11-06T20:00:00	1	Precipitación	0
162400	7	Sololá	701	Sololá	2	El tablón	6	Junio	2023-06-26T00:00:00	2024-11-06T20:00:00	8	Radiación solar	0
162401	7	Sololá	701	Sololá	2	El tablón	6	Junio	2023-06-26T00:00:00	2024-11-06T21:00:00	2	Temperatura media	13.9
162402	7	Sololá	701	Sololá	2	El tablón	6	Junio	2023-06-26T00:00:00	2024-11-06T21:00:00	4	Temperatura máxima	15.6
162403	7	Sololá	701	Sololá	2	El tablón	6	Junio	2023-06-26T00:00:00	2024-11-06T21:00:00	3	Temperatura mínima	13.9
162404	7	Sololá	701	Sololá	2	El tablón	6	Junio	2023-06-26T00:00:00	2024-11-06T21:00:00	5	Humedad	88
162405	7	Sololá	701	Sololá	2	El tablón	6	Junio	2023-06-26T00:00:00	2024-11-06T21:00:00	6	Velocidad del viento	9.7
162406	7	Sololá	701	Sololá	2	El tablón	6	Junio	2023-06-26T00:00:00	2024-11-06T21:00:00	7	Dirección del viento	9.66
162407	7	Sololá	701	Sololá	2	El tablón	6	Junio	2023-06-26T00:00:00	2024-11-06T21:00:00	1	Precipitación	0.6
162408	7	Sololá	701	Sololá	2	El tablón	6	Junio	2023-06-26T00:00:00	2024-11-06T21:00:00	8	Radiación solar	0
162409	7	Sololá	701	Sololá	2	El tablón	6	Junio	2023-06-26T00:00:00	2024-11-06T22:00:00	2	Temperatura media	13.2
162410	7	Sololá	701	Sololá	2	El tablón	6	Junio	2023-06-26T00:00:00	2024-11-06T22:00:00	4	Temperatura máxima	13.9
162411	7	Sololá	701	Sololá	2	El tablón	6	Junio	2023-06-26T00:00:00	2024-11-06T22:00:00	3	Temperatura mínima	13
162412	7	Sololá	701	Sololá	2	El tablón	6	Junio	2023-06-26T00:00:00	2024-11-06T22:00:00	5	Humedad	88
162413	7	Sololá	701	Sololá	2	El tablón	6	Junio	2023-06-26T00:00:00	2024-11-06T22:00:00	6	Velocidad del viento	12.9
162414	7	Sololá	701	Sololá	2	El tablón	6	Junio	2023-06-26T00:00:00	2024-11-06T22:00:00	7	Dirección del viento	12.87
162415	7	Sololá	701	Sololá	2	El tablón	6	Junio	2023-06-26T00:00:00	2024-11-06T22:00:00	1	Precipitación	1.8
162416	7	Sololá	701	Sololá	2	El tablón	6	Junio	2023-06-26T00:00:00	2024-11-06T22:00:00	8	Radiación solar	0
162417	7	Sololá	701	Sololá	2	El tablón	6	Junio	2023-06-26T00:00:00	2024-11-06T23:00:00	2	Temperatura media	13.3
162418	7	Sololá	701	Sololá	2	El tablón	6	Junio	2023-06-26T00:00:00	2024-11-06T23:00:00	4	Temperatura máxima	13.3
162419	7	Sololá	701	Sololá	2	El tablón	6	Junio	2023-06-26T00:00:00	2024-11-06T23:00:00	3	Temperatura mínima	13.1
162420	7	Sololá	701	Sololá	2	El tablón	6	Junio	2023-06-26T00:00:00	2024-11-06T23:00:00	5	Humedad	88
162421	7	Sololá	701	Sololá	2	El tablón	6	Junio	2023-06-26T00:00:00	2024-11-06T23:00:00	6	Velocidad del viento	11.3
162422	7	Sololá	701	Sololá	2	El tablón	6	Junio	2023-06-26T00:00:00	2024-11-06T23:00:00	7	Dirección del viento	11.27
162423	7	Sololá	701	Sololá	2	El tablón	6	Junio	2023-06-26T00:00:00	2024-11-06T23:00:00	1	Precipitación	0
162424	7	Sololá	701	Sololá	2	El tablón	6	Junio	2023-06-26T00:00:00	2024-11-06T23:00:00	8	Radiación solar	0
162425	7	Sololá	701	Sololá	2	El tablón	6	Junio	2023-06-27T00:00:00	2024-11-06T00:00:00	2	Temperatura media	13.3
162426	7	Sololá	701	Sololá	2	El tablón	6	Junio	2023-06-27T00:00:00	2024-11-06T00:00:00	4	Temperatura máxima	13.4
162427	7	Sololá	701	Sololá	2	El tablón	6	Junio	2023-06-27T00:00:00	2024-11-06T00:00:00	3	Temperatura mínima	13.3
162428	7	Sololá	701	Sololá	2	El tablón	6	Junio	2023-06-27T00:00:00	2024-11-06T00:00:00	5	Humedad	88
162429	7	Sololá	701	Sololá	2	El tablón	6	Junio	2023-06-27T00:00:00	2024-11-06T00:00:00	6	Velocidad del viento	8
162430	7	Sololá	701	Sololá	2	El tablón	6	Junio	2023-06-27T00:00:00	2024-11-06T00:00:00	7	Dirección del viento	8.05
162431	7	Sololá	701	Sololá	2	El tablón	6	Junio	2023-06-27T00:00:00	2024-11-06T00:00:00	1	Precipitación	0
162432	7	Sololá	701	Sololá	2	El tablón	6	Junio	2023-06-27T00:00:00	2024-11-06T00:00:00	8	Radiación solar	0
162433	7	Sololá	701	Sololá	2	El tablón	6	Junio	2023-06-27T00:00:00	2024-11-06T01:00:00	2	Temperatura media	13.3
162434	7	Sololá	701	Sololá	2	El tablón	6	Junio	2023-06-27T00:00:00	2024-11-06T01:00:00	4	Temperatura máxima	13.4
162435	7	Sololá	701	Sololá	2	El tablón	6	Junio	2023-06-27T00:00:00	2024-11-06T01:00:00	3	Temperatura mínima	13.2
162436	7	Sololá	701	Sololá	2	El tablón	6	Junio	2023-06-27T00:00:00	2024-11-06T01:00:00	5	Humedad	88
162437	7	Sololá	701	Sololá	2	El tablón	6	Junio	2023-06-27T00:00:00	2024-11-06T01:00:00	6	Velocidad del viento	11.3
162438	7	Sololá	701	Sololá	2	El tablón	6	Junio	2023-06-27T00:00:00	2024-11-06T01:00:00	7	Dirección del viento	11.27
162439	7	Sololá	701	Sololá	2	El tablón	6	Junio	2023-06-27T00:00:00	2024-11-06T01:00:00	1	Precipitación	0
162440	7	Sololá	701	Sololá	2	El tablón	6	Junio	2023-06-27T00:00:00	2024-11-06T01:00:00	8	Radiación solar	0
162441	7	Sololá	701	Sololá	2	El tablón	6	Junio	2023-06-27T00:00:00	2024-11-06T02:00:00	2	Temperatura media	13
162442	7	Sololá	701	Sololá	2	El tablón	6	Junio	2023-06-27T00:00:00	2024-11-06T02:00:00	4	Temperatura máxima	13.4
162443	7	Sololá	701	Sololá	2	El tablón	6	Junio	2023-06-27T00:00:00	2024-11-06T02:00:00	3	Temperatura mínima	13
162444	7	Sololá	701	Sololá	2	El tablón	6	Junio	2023-06-27T00:00:00	2024-11-06T02:00:00	5	Humedad	88
162445	7	Sololá	701	Sololá	2	El tablón	6	Junio	2023-06-27T00:00:00	2024-11-06T02:00:00	6	Velocidad del viento	6.4
162446	7	Sololá	701	Sololá	2	El tablón	6	Junio	2023-06-27T00:00:00	2024-11-06T02:00:00	7	Dirección del viento	6.44
162447	7	Sololá	701	Sololá	2	El tablón	6	Junio	2023-06-27T00:00:00	2024-11-06T02:00:00	1	Precipitación	0
162448	7	Sololá	701	Sololá	2	El tablón	6	Junio	2023-06-27T00:00:00	2024-11-06T02:00:00	8	Radiación solar	0
162449	7	Sololá	701	Sololá	2	El tablón	6	Junio	2023-06-27T00:00:00	2024-11-06T03:00:00	2	Temperatura media	13.2
162450	7	Sololá	701	Sololá	2	El tablón	6	Junio	2023-06-27T00:00:00	2024-11-06T03:00:00	4	Temperatura máxima	13.2
162451	7	Sololá	701	Sololá	2	El tablón	6	Junio	2023-06-27T00:00:00	2024-11-06T03:00:00	3	Temperatura mínima	13
162452	7	Sololá	701	Sololá	2	El tablón	6	Junio	2023-06-27T00:00:00	2024-11-06T03:00:00	5	Humedad	88
162453	7	Sololá	701	Sololá	2	El tablón	6	Junio	2023-06-27T00:00:00	2024-11-06T03:00:00	6	Velocidad del viento	9.7
162454	7	Sololá	701	Sololá	2	El tablón	6	Junio	2023-06-27T00:00:00	2024-11-06T03:00:00	7	Dirección del viento	9.66
162455	7	Sololá	701	Sololá	2	El tablón	6	Junio	2023-06-27T00:00:00	2024-11-06T03:00:00	1	Precipitación	0
162456	7	Sololá	701	Sololá	2	El tablón	6	Junio	2023-06-27T00:00:00	2024-11-06T03:00:00	8	Radiación solar	0
162457	7	Sololá	701	Sololá	2	El tablón	6	Junio	2023-06-27T00:00:00	2024-11-06T04:00:00	2	Temperatura media	13.1
162458	7	Sololá	701	Sololá	2	El tablón	6	Junio	2023-06-27T00:00:00	2024-11-06T04:00:00	4	Temperatura máxima	13.2
162459	7	Sololá	701	Sololá	2	El tablón	6	Junio	2023-06-27T00:00:00	2024-11-06T04:00:00	3	Temperatura mínima	13.1
162460	7	Sololá	701	Sololá	2	El tablón	6	Junio	2023-06-27T00:00:00	2024-11-06T04:00:00	5	Humedad	88
162461	7	Sololá	701	Sololá	2	El tablón	6	Junio	2023-06-27T00:00:00	2024-11-06T04:00:00	6	Velocidad del viento	9.7
162462	7	Sololá	701	Sololá	2	El tablón	6	Junio	2023-06-27T00:00:00	2024-11-06T04:00:00	7	Dirección del viento	9.66
162463	7	Sololá	701	Sololá	2	El tablón	6	Junio	2023-06-27T00:00:00	2024-11-06T04:00:00	1	Precipitación	0
162464	7	Sololá	701	Sololá	2	El tablón	6	Junio	2023-06-27T00:00:00	2024-11-06T04:00:00	8	Radiación solar	0
162465	7	Sololá	701	Sololá	2	El tablón	6	Junio	2023-06-27T00:00:00	2024-11-06T05:00:00	2	Temperatura media	13.3
162466	7	Sololá	701	Sololá	2	El tablón	6	Junio	2023-06-27T00:00:00	2024-11-06T05:00:00	4	Temperatura máxima	13.3
162467	7	Sololá	701	Sololá	2	El tablón	6	Junio	2023-06-27T00:00:00	2024-11-06T05:00:00	3	Temperatura mínima	13.1
162468	7	Sololá	701	Sololá	2	El tablón	6	Junio	2023-06-27T00:00:00	2024-11-06T05:00:00	5	Humedad	86
162469	7	Sololá	701	Sololá	2	El tablón	6	Junio	2023-06-27T00:00:00	2024-11-06T05:00:00	6	Velocidad del viento	11.3
162470	7	Sololá	701	Sololá	2	El tablón	6	Junio	2023-06-27T00:00:00	2024-11-06T05:00:00	7	Dirección del viento	11.27
162471	7	Sololá	701	Sololá	2	El tablón	6	Junio	2023-06-27T00:00:00	2024-11-06T05:00:00	1	Precipitación	0
162472	7	Sololá	701	Sololá	2	El tablón	6	Junio	2023-06-27T00:00:00	2024-11-06T05:00:00	8	Radiación solar	0
162473	7	Sololá	701	Sololá	2	El tablón	6	Junio	2023-06-27T00:00:00	2024-11-06T06:00:00	2	Temperatura media	13.6
162474	7	Sololá	701	Sololá	2	El tablón	6	Junio	2023-06-27T00:00:00	2024-11-06T06:00:00	4	Temperatura máxima	13.7
162475	7	Sololá	701	Sololá	2	El tablón	6	Junio	2023-06-27T00:00:00	2024-11-06T06:00:00	3	Temperatura mínima	13.3
162476	7	Sololá	701	Sololá	2	El tablón	6	Junio	2023-06-27T00:00:00	2024-11-06T06:00:00	5	Humedad	83
162477	7	Sololá	701	Sololá	2	El tablón	6	Junio	2023-06-27T00:00:00	2024-11-06T06:00:00	6	Velocidad del viento	11.3
162478	7	Sololá	701	Sololá	2	El tablón	6	Junio	2023-06-27T00:00:00	2024-11-06T06:00:00	7	Dirección del viento	11.27
162479	7	Sololá	701	Sololá	2	El tablón	6	Junio	2023-06-27T00:00:00	2024-11-06T06:00:00	1	Precipitación	0
162480	7	Sololá	701	Sololá	2	El tablón	6	Junio	2023-06-27T00:00:00	2024-11-06T06:00:00	8	Radiación solar	2
162481	7	Sololá	701	Sololá	2	El tablón	6	Junio	2023-06-27T00:00:00	2024-11-06T07:00:00	2	Temperatura media	13.9
162482	7	Sololá	701	Sololá	2	El tablón	6	Junio	2023-06-27T00:00:00	2024-11-06T07:00:00	4	Temperatura máxima	13.9
162483	7	Sololá	701	Sololá	2	El tablón	6	Junio	2023-06-27T00:00:00	2024-11-06T07:00:00	3	Temperatura mínima	13.6
162484	7	Sololá	701	Sololá	2	El tablón	6	Junio	2023-06-27T00:00:00	2024-11-06T07:00:00	5	Humedad	83
162485	7	Sololá	701	Sololá	2	El tablón	6	Junio	2023-06-27T00:00:00	2024-11-06T07:00:00	6	Velocidad del viento	11.3
162486	7	Sololá	701	Sololá	2	El tablón	6	Junio	2023-06-27T00:00:00	2024-11-06T07:00:00	7	Dirección del viento	11.27
162487	7	Sololá	701	Sololá	2	El tablón	6	Junio	2023-06-27T00:00:00	2024-11-06T07:00:00	1	Precipitación	0
162488	7	Sololá	701	Sololá	2	El tablón	6	Junio	2023-06-27T00:00:00	2024-11-06T07:00:00	8	Radiación solar	77
162489	7	Sololá	701	Sololá	2	El tablón	6	Junio	2023-06-27T00:00:00	2024-11-06T08:00:00	2	Temperatura media	14.9
162490	7	Sololá	701	Sololá	2	El tablón	6	Junio	2023-06-27T00:00:00	2024-11-06T08:00:00	4	Temperatura máxima	14.9
162491	7	Sololá	701	Sololá	2	El tablón	6	Junio	2023-06-27T00:00:00	2024-11-06T08:00:00	3	Temperatura mínima	13.8
162492	7	Sololá	701	Sololá	2	El tablón	6	Junio	2023-06-27T00:00:00	2024-11-06T08:00:00	5	Humedad	81
162493	7	Sololá	701	Sololá	2	El tablón	6	Junio	2023-06-27T00:00:00	2024-11-06T08:00:00	6	Velocidad del viento	11.3
162494	7	Sololá	701	Sololá	2	El tablón	6	Junio	2023-06-27T00:00:00	2024-11-06T08:00:00	7	Dirección del viento	11.27
162495	7	Sololá	701	Sololá	2	El tablón	6	Junio	2023-06-27T00:00:00	2024-11-06T08:00:00	1	Precipitación	0
162496	7	Sololá	701	Sololá	2	El tablón	6	Junio	2023-06-27T00:00:00	2024-11-06T08:00:00	8	Radiación solar	228
162497	7	Sololá	701	Sololá	2	El tablón	6	Junio	2023-06-27T00:00:00	2024-11-06T09:00:00	2	Temperatura media	16.4
162498	7	Sololá	701	Sololá	2	El tablón	6	Junio	2023-06-27T00:00:00	2024-11-06T09:00:00	4	Temperatura máxima	16.9
162499	7	Sololá	701	Sololá	2	El tablón	6	Junio	2023-06-27T00:00:00	2024-11-06T09:00:00	3	Temperatura mínima	14.9
162500	7	Sololá	701	Sololá	2	El tablón	6	Junio	2023-06-27T00:00:00	2024-11-06T09:00:00	5	Humedad	78
162501	7	Sololá	701	Sololá	2	El tablón	6	Junio	2023-06-27T00:00:00	2024-11-06T09:00:00	6	Velocidad del viento	12.9
162502	7	Sololá	701	Sololá	2	El tablón	6	Junio	2023-06-27T00:00:00	2024-11-06T09:00:00	7	Dirección del viento	12.87
162503	7	Sololá	701	Sololá	2	El tablón	6	Junio	2023-06-27T00:00:00	2024-11-06T09:00:00	1	Precipitación	0
162504	7	Sololá	701	Sololá	2	El tablón	6	Junio	2023-06-27T00:00:00	2024-11-06T09:00:00	8	Radiación solar	510
162505	7	Sololá	701	Sololá	2	El tablón	6	Junio	2023-06-27T00:00:00	2024-11-06T10:00:00	2	Temperatura media	16.6
162506	7	Sololá	701	Sololá	2	El tablón	6	Junio	2023-06-27T00:00:00	2024-11-06T10:00:00	4	Temperatura máxima	17.7
162507	7	Sololá	701	Sololá	2	El tablón	6	Junio	2023-06-27T00:00:00	2024-11-06T10:00:00	3	Temperatura mínima	16.4
162508	7	Sololá	701	Sololá	2	El tablón	6	Junio	2023-06-27T00:00:00	2024-11-06T10:00:00	5	Humedad	79
162509	7	Sololá	701	Sololá	2	El tablón	6	Junio	2023-06-27T00:00:00	2024-11-06T10:00:00	6	Velocidad del viento	8
162510	7	Sololá	701	Sololá	2	El tablón	6	Junio	2023-06-27T00:00:00	2024-11-06T10:00:00	7	Dirección del viento	8.05
162511	7	Sololá	701	Sololá	2	El tablón	6	Junio	2023-06-27T00:00:00	2024-11-06T10:00:00	1	Precipitación	0
162512	7	Sololá	701	Sololá	2	El tablón	6	Junio	2023-06-27T00:00:00	2024-11-06T10:00:00	8	Radiación solar	453
162513	7	Sololá	701	Sololá	2	El tablón	6	Junio	2023-06-27T00:00:00	2024-11-06T11:00:00	2	Temperatura media	15.9
162514	7	Sololá	701	Sololá	2	El tablón	6	Junio	2023-06-27T00:00:00	2024-11-06T11:00:00	4	Temperatura máxima	16.6
162515	7	Sololá	701	Sololá	2	El tablón	6	Junio	2023-06-27T00:00:00	2024-11-06T11:00:00	3	Temperatura mínima	15.6
162516	7	Sololá	701	Sololá	2	El tablón	6	Junio	2023-06-27T00:00:00	2024-11-06T11:00:00	5	Humedad	81
162517	7	Sololá	701	Sololá	2	El tablón	6	Junio	2023-06-27T00:00:00	2024-11-06T11:00:00	6	Velocidad del viento	6.4
162518	7	Sololá	701	Sololá	2	El tablón	6	Junio	2023-06-27T00:00:00	2024-11-06T11:00:00	7	Dirección del viento	6.44
162519	7	Sololá	701	Sololá	2	El tablón	6	Junio	2023-06-27T00:00:00	2024-11-06T11:00:00	1	Precipitación	0
162520	7	Sololá	701	Sololá	2	El tablón	6	Junio	2023-06-27T00:00:00	2024-11-06T11:00:00	8	Radiación solar	175
162521	7	Sololá	701	Sololá	2	El tablón	6	Junio	2023-06-27T00:00:00	2024-11-06T12:00:00	2	Temperatura media	17.3
162522	7	Sololá	701	Sololá	2	El tablón	6	Junio	2023-06-27T00:00:00	2024-11-06T12:00:00	4	Temperatura máxima	17.4
162523	7	Sololá	701	Sololá	2	El tablón	6	Junio	2023-06-27T00:00:00	2024-11-06T12:00:00	3	Temperatura mínima	15.3
162524	7	Sololá	701	Sololá	2	El tablón	6	Junio	2023-06-27T00:00:00	2024-11-06T12:00:00	5	Humedad	78
162525	7	Sololá	701	Sololá	2	El tablón	6	Junio	2023-06-27T00:00:00	2024-11-06T12:00:00	6	Velocidad del viento	4.8
162526	7	Sololá	701	Sololá	2	El tablón	6	Junio	2023-06-27T00:00:00	2024-11-06T12:00:00	7	Dirección del viento	4.83
162527	7	Sololá	701	Sololá	2	El tablón	6	Junio	2023-06-27T00:00:00	2024-11-06T12:00:00	1	Precipitación	0
162528	7	Sololá	701	Sololá	2	El tablón	6	Junio	2023-06-27T00:00:00	2024-11-06T12:00:00	8	Radiación solar	376
162529	7	Sololá	701	Sololá	2	El tablón	6	Junio	2023-06-27T00:00:00	2024-11-06T13:00:00	2	Temperatura media	17
162530	7	Sololá	701	Sololá	2	El tablón	6	Junio	2023-06-27T00:00:00	2024-11-06T13:00:00	4	Temperatura máxima	17.3
162531	7	Sololá	701	Sololá	2	El tablón	6	Junio	2023-06-27T00:00:00	2024-11-06T13:00:00	3	Temperatura mínima	16.3
162532	7	Sololá	701	Sololá	2	El tablón	6	Junio	2023-06-27T00:00:00	2024-11-06T13:00:00	5	Humedad	78
162533	7	Sololá	701	Sololá	2	El tablón	6	Junio	2023-06-27T00:00:00	2024-11-06T13:00:00	6	Velocidad del viento	4.8
162534	7	Sololá	701	Sololá	2	El tablón	6	Junio	2023-06-27T00:00:00	2024-11-06T13:00:00	7	Dirección del viento	4.83
162535	7	Sololá	701	Sololá	2	El tablón	6	Junio	2023-06-27T00:00:00	2024-11-06T13:00:00	1	Precipitación	0
162536	7	Sololá	701	Sololá	2	El tablón	6	Junio	2023-06-27T00:00:00	2024-11-06T13:00:00	8	Radiación solar	268
162537	7	Sololá	701	Sololá	2	El tablón	6	Junio	2023-06-27T00:00:00	2024-11-06T14:00:00	2	Temperatura media	16.8
162538	7	Sololá	701	Sololá	2	El tablón	6	Junio	2023-06-27T00:00:00	2024-11-06T14:00:00	4	Temperatura máxima	17.7
162539	7	Sololá	701	Sololá	2	El tablón	6	Junio	2023-06-27T00:00:00	2024-11-06T14:00:00	3	Temperatura mínima	16.8
162540	7	Sololá	701	Sololá	2	El tablón	6	Junio	2023-06-27T00:00:00	2024-11-06T14:00:00	5	Humedad	83
162541	7	Sololá	701	Sololá	2	El tablón	6	Junio	2023-06-27T00:00:00	2024-11-06T14:00:00	6	Velocidad del viento	4.8
162542	7	Sololá	701	Sololá	2	El tablón	6	Junio	2023-06-27T00:00:00	2024-11-06T14:00:00	7	Dirección del viento	4.83
162543	7	Sololá	701	Sololá	2	El tablón	6	Junio	2023-06-27T00:00:00	2024-11-06T14:00:00	1	Precipitación	0
162544	7	Sololá	701	Sololá	2	El tablón	6	Junio	2023-06-27T00:00:00	2024-11-06T14:00:00	8	Radiación solar	300
162545	7	Sololá	701	Sololá	2	El tablón	6	Junio	2023-06-27T00:00:00	2024-11-06T15:00:00	2	Temperatura media	16.7
162546	7	Sololá	701	Sololá	2	El tablón	6	Junio	2023-06-27T00:00:00	2024-11-06T15:00:00	4	Temperatura máxima	17.8
162547	7	Sololá	701	Sololá	2	El tablón	6	Junio	2023-06-27T00:00:00	2024-11-06T15:00:00	3	Temperatura mínima	16.7
162548	7	Sololá	701	Sololá	2	El tablón	6	Junio	2023-06-27T00:00:00	2024-11-06T15:00:00	5	Humedad	87
162549	7	Sololá	701	Sololá	2	El tablón	6	Junio	2023-06-27T00:00:00	2024-11-06T15:00:00	6	Velocidad del viento	4.8
162550	7	Sololá	701	Sololá	2	El tablón	6	Junio	2023-06-27T00:00:00	2024-11-06T15:00:00	7	Dirección del viento	4.83
162551	7	Sololá	701	Sololá	2	El tablón	6	Junio	2023-06-27T00:00:00	2024-11-06T15:00:00	1	Precipitación	0
162552	7	Sololá	701	Sololá	2	El tablón	6	Junio	2023-06-27T00:00:00	2024-11-06T15:00:00	8	Radiación solar	353
162553	7	Sololá	701	Sololá	2	El tablón	6	Junio	2023-06-27T00:00:00	2024-11-06T16:00:00	2	Temperatura media	15.2
162554	7	Sololá	701	Sololá	2	El tablón	6	Junio	2023-06-27T00:00:00	2024-11-06T16:00:00	4	Temperatura máxima	16.7
162555	7	Sololá	701	Sololá	2	El tablón	6	Junio	2023-06-27T00:00:00	2024-11-06T16:00:00	3	Temperatura mínima	15.2
162556	7	Sololá	701	Sololá	2	El tablón	6	Junio	2023-06-27T00:00:00	2024-11-06T16:00:00	5	Humedad	88
162557	7	Sololá	701	Sololá	2	El tablón	6	Junio	2023-06-27T00:00:00	2024-11-06T16:00:00	6	Velocidad del viento	4.8
162558	7	Sololá	701	Sololá	2	El tablón	6	Junio	2023-06-27T00:00:00	2024-11-06T16:00:00	7	Dirección del viento	4.83
162559	7	Sololá	701	Sololá	2	El tablón	6	Junio	2023-06-27T00:00:00	2024-11-06T16:00:00	1	Precipitación	0
162560	7	Sololá	701	Sololá	2	El tablón	6	Junio	2023-06-27T00:00:00	2024-11-06T16:00:00	8	Radiación solar	139
162561	7	Sololá	701	Sololá	2	El tablón	6	Junio	2023-06-27T00:00:00	2024-11-06T17:00:00	2	Temperatura media	14.3
162562	7	Sololá	701	Sololá	2	El tablón	6	Junio	2023-06-27T00:00:00	2024-11-06T17:00:00	4	Temperatura máxima	15.2
162563	7	Sololá	701	Sololá	2	El tablón	6	Junio	2023-06-27T00:00:00	2024-11-06T17:00:00	3	Temperatura mínima	14.3
162564	7	Sololá	701	Sololá	2	El tablón	6	Junio	2023-06-27T00:00:00	2024-11-06T17:00:00	5	Humedad	88
162565	7	Sololá	701	Sololá	2	El tablón	6	Junio	2023-06-27T00:00:00	2024-11-06T17:00:00	6	Velocidad del viento	3.2
162566	7	Sololá	701	Sololá	2	El tablón	6	Junio	2023-06-27T00:00:00	2024-11-06T17:00:00	7	Dirección del viento	3.22
162567	7	Sololá	701	Sololá	2	El tablón	6	Junio	2023-06-27T00:00:00	2024-11-06T17:00:00	1	Precipitación	0
162568	7	Sololá	701	Sololá	2	El tablón	6	Junio	2023-06-27T00:00:00	2024-11-06T17:00:00	8	Radiación solar	41
162569	7	Sololá	701	Sololá	2	El tablón	6	Junio	2023-06-27T00:00:00	2024-11-06T18:00:00	2	Temperatura media	13.9
162570	7	Sololá	701	Sololá	2	El tablón	6	Junio	2023-06-27T00:00:00	2024-11-06T18:00:00	4	Temperatura máxima	14.3
162571	7	Sololá	701	Sololá	2	El tablón	6	Junio	2023-06-27T00:00:00	2024-11-06T18:00:00	3	Temperatura mínima	13.9
162572	7	Sololá	701	Sololá	2	El tablón	6	Junio	2023-06-27T00:00:00	2024-11-06T18:00:00	5	Humedad	87
162573	7	Sololá	701	Sololá	2	El tablón	6	Junio	2023-06-27T00:00:00	2024-11-06T18:00:00	6	Velocidad del viento	3.2
162574	7	Sololá	701	Sololá	2	El tablón	6	Junio	2023-06-27T00:00:00	2024-11-06T18:00:00	7	Dirección del viento	3.22
162575	7	Sololá	701	Sololá	2	El tablón	6	Junio	2023-06-27T00:00:00	2024-11-06T18:00:00	1	Precipitación	3.2
162576	7	Sololá	701	Sololá	2	El tablón	6	Junio	2023-06-27T00:00:00	2024-11-06T18:00:00	8	Radiación solar	8
162577	7	Sololá	701	Sololá	2	El tablón	6	Junio	2023-06-27T00:00:00	2024-11-06T19:00:00	2	Temperatura media	13.7
162578	7	Sololá	701	Sololá	2	El tablón	6	Junio	2023-06-27T00:00:00	2024-11-06T19:00:00	4	Temperatura máxima	13.9
162579	7	Sololá	701	Sololá	2	El tablón	6	Junio	2023-06-27T00:00:00	2024-11-06T19:00:00	3	Temperatura mínima	13.6
162580	7	Sololá	701	Sololá	2	El tablón	6	Junio	2023-06-27T00:00:00	2024-11-06T19:00:00	5	Humedad	86
162581	7	Sololá	701	Sololá	2	El tablón	6	Junio	2023-06-27T00:00:00	2024-11-06T19:00:00	6	Velocidad del viento	1.6
162582	7	Sololá	701	Sololá	2	El tablón	6	Junio	2023-06-27T00:00:00	2024-11-06T19:00:00	7	Dirección del viento	1.61
162583	7	Sololá	701	Sololá	2	El tablón	6	Junio	2023-06-27T00:00:00	2024-11-06T19:00:00	1	Precipitación	6.8
162584	7	Sololá	701	Sololá	2	El tablón	6	Junio	2023-06-27T00:00:00	2024-11-06T19:00:00	8	Radiación solar	0
162585	7	Sololá	701	Sololá	2	El tablón	6	Junio	2023-06-27T00:00:00	2024-11-06T20:00:00	2	Temperatura media	13.4
162586	7	Sololá	701	Sololá	2	El tablón	6	Junio	2023-06-27T00:00:00	2024-11-06T20:00:00	4	Temperatura máxima	13.7
162587	7	Sololá	701	Sololá	2	El tablón	6	Junio	2023-06-27T00:00:00	2024-11-06T20:00:00	3	Temperatura mínima	13.4
162588	7	Sololá	701	Sololá	2	El tablón	6	Junio	2023-06-27T00:00:00	2024-11-06T20:00:00	5	Humedad	86
162589	7	Sololá	701	Sololá	2	El tablón	6	Junio	2023-06-27T00:00:00	2024-11-06T20:00:00	6	Velocidad del viento	1.6
162590	7	Sololá	701	Sololá	2	El tablón	6	Junio	2023-06-27T00:00:00	2024-11-06T20:00:00	7	Dirección del viento	1.61
162591	7	Sololá	701	Sololá	2	El tablón	6	Junio	2023-06-27T00:00:00	2024-11-06T20:00:00	1	Precipitación	0.6
162592	7	Sololá	701	Sololá	2	El tablón	6	Junio	2023-06-27T00:00:00	2024-11-06T20:00:00	8	Radiación solar	0
162593	7	Sololá	701	Sololá	2	El tablón	6	Junio	2023-06-27T00:00:00	2024-11-06T21:00:00	2	Temperatura media	12.9
162594	7	Sololá	701	Sololá	2	El tablón	6	Junio	2023-06-27T00:00:00	2024-11-06T21:00:00	4	Temperatura máxima	13.4
162595	7	Sololá	701	Sololá	2	El tablón	6	Junio	2023-06-27T00:00:00	2024-11-06T21:00:00	3	Temperatura mínima	12.9
162596	7	Sololá	701	Sololá	2	El tablón	6	Junio	2023-06-27T00:00:00	2024-11-06T21:00:00	5	Humedad	86
162597	7	Sololá	701	Sololá	2	El tablón	6	Junio	2023-06-27T00:00:00	2024-11-06T21:00:00	6	Velocidad del viento	1.6
162598	7	Sololá	701	Sololá	2	El tablón	6	Junio	2023-06-27T00:00:00	2024-11-06T21:00:00	7	Dirección del viento	1.61
162599	7	Sololá	701	Sololá	2	El tablón	6	Junio	2023-06-27T00:00:00	2024-11-06T21:00:00	1	Precipitación	1.6
162600	7	Sololá	701	Sololá	2	El tablón	6	Junio	2023-06-27T00:00:00	2024-11-06T21:00:00	8	Radiación solar	0
162601	7	Sololá	701	Sololá	2	El tablón	6	Junio	2023-06-27T00:00:00	2024-11-06T22:00:00	2	Temperatura media	12.8
162602	7	Sololá	701	Sololá	2	El tablón	6	Junio	2023-06-27T00:00:00	2024-11-06T22:00:00	4	Temperatura máxima	12.9
162603	7	Sololá	701	Sololá	2	El tablón	6	Junio	2023-06-27T00:00:00	2024-11-06T22:00:00	3	Temperatura mínima	12.8
162604	7	Sololá	701	Sololá	2	El tablón	6	Junio	2023-06-27T00:00:00	2024-11-06T22:00:00	5	Humedad	87
162605	7	Sololá	701	Sololá	2	El tablón	6	Junio	2023-06-27T00:00:00	2024-11-06T22:00:00	6	Velocidad del viento	0
162606	7	Sololá	701	Sololá	2	El tablón	6	Junio	2023-06-27T00:00:00	2024-11-06T22:00:00	7	Dirección del viento	0
162607	7	Sololá	701	Sololá	2	El tablón	6	Junio	2023-06-27T00:00:00	2024-11-06T22:00:00	1	Precipitación	0
162608	7	Sololá	701	Sololá	2	El tablón	6	Junio	2023-06-27T00:00:00	2024-11-06T22:00:00	8	Radiación solar	0
162609	7	Sololá	701	Sololá	2	El tablón	6	Junio	2023-06-27T00:00:00	2024-11-06T23:00:00	2	Temperatura media	12.8
162610	7	Sololá	701	Sololá	2	El tablón	6	Junio	2023-06-27T00:00:00	2024-11-06T23:00:00	4	Temperatura máxima	12.9
162611	7	Sololá	701	Sololá	2	El tablón	6	Junio	2023-06-27T00:00:00	2024-11-06T23:00:00	3	Temperatura mínima	12.8
162612	7	Sololá	701	Sololá	2	El tablón	6	Junio	2023-06-27T00:00:00	2024-11-06T23:00:00	5	Humedad	88
162613	7	Sololá	701	Sololá	2	El tablón	6	Junio	2023-06-27T00:00:00	2024-11-06T23:00:00	6	Velocidad del viento	0
162614	7	Sololá	701	Sololá	2	El tablón	6	Junio	2023-06-27T00:00:00	2024-11-06T23:00:00	7	Dirección del viento	0
162615	7	Sololá	701	Sololá	2	El tablón	6	Junio	2023-06-27T00:00:00	2024-11-06T23:00:00	1	Precipitación	0
162616	7	Sololá	701	Sololá	2	El tablón	6	Junio	2023-06-27T00:00:00	2024-11-06T23:00:00	8	Radiación solar	0
162617	7	Sololá	701	Sololá	2	El tablón	6	Junio	2023-06-28T00:00:00	2024-11-06T00:00:00	2	Temperatura media	12.8
162618	7	Sololá	701	Sololá	2	El tablón	6	Junio	2023-06-28T00:00:00	2024-11-06T00:00:00	4	Temperatura máxima	12.8
162619	7	Sololá	701	Sololá	2	El tablón	6	Junio	2023-06-28T00:00:00	2024-11-06T00:00:00	3	Temperatura mínima	12.7
162620	7	Sololá	701	Sololá	2	El tablón	6	Junio	2023-06-28T00:00:00	2024-11-06T00:00:00	5	Humedad	88
162621	7	Sololá	701	Sololá	2	El tablón	6	Junio	2023-06-28T00:00:00	2024-11-06T00:00:00	6	Velocidad del viento	0
162622	7	Sololá	701	Sololá	2	El tablón	6	Junio	2023-06-28T00:00:00	2024-11-06T00:00:00	7	Dirección del viento	0
162623	7	Sololá	701	Sololá	2	El tablón	6	Junio	2023-06-28T00:00:00	2024-11-06T00:00:00	1	Precipitación	0
162624	7	Sololá	701	Sololá	2	El tablón	6	Junio	2023-06-28T00:00:00	2024-11-06T00:00:00	8	Radiación solar	0
162625	7	Sololá	701	Sololá	2	El tablón	6	Junio	2023-06-28T00:00:00	2024-11-06T01:00:00	2	Temperatura media	12.7
162626	7	Sololá	701	Sololá	2	El tablón	6	Junio	2023-06-28T00:00:00	2024-11-06T01:00:00	4	Temperatura máxima	12.8
162627	7	Sololá	701	Sololá	2	El tablón	6	Junio	2023-06-28T00:00:00	2024-11-06T01:00:00	3	Temperatura mínima	12.7
162628	7	Sololá	701	Sololá	2	El tablón	6	Junio	2023-06-28T00:00:00	2024-11-06T01:00:00	5	Humedad	88
162629	7	Sololá	701	Sololá	2	El tablón	6	Junio	2023-06-28T00:00:00	2024-11-06T01:00:00	6	Velocidad del viento	0
162630	7	Sololá	701	Sololá	2	El tablón	6	Junio	2023-06-28T00:00:00	2024-11-06T01:00:00	7	Dirección del viento	0
162631	7	Sololá	701	Sololá	2	El tablón	6	Junio	2023-06-28T00:00:00	2024-11-06T01:00:00	1	Precipitación	0
162632	7	Sololá	701	Sololá	2	El tablón	6	Junio	2023-06-28T00:00:00	2024-11-06T01:00:00	8	Radiación solar	0
162633	7	Sololá	701	Sololá	2	El tablón	6	Junio	2023-06-28T00:00:00	2024-11-06T02:00:00	2	Temperatura media	12.7
162634	7	Sololá	701	Sololá	2	El tablón	6	Junio	2023-06-28T00:00:00	2024-11-06T02:00:00	4	Temperatura máxima	12.8
162635	7	Sololá	701	Sololá	2	El tablón	6	Junio	2023-06-28T00:00:00	2024-11-06T02:00:00	3	Temperatura mínima	12.6
162636	7	Sololá	701	Sololá	2	El tablón	6	Junio	2023-06-28T00:00:00	2024-11-06T02:00:00	5	Humedad	88
162637	7	Sololá	701	Sololá	2	El tablón	6	Junio	2023-06-28T00:00:00	2024-11-06T02:00:00	6	Velocidad del viento	1.6
162638	7	Sololá	701	Sololá	2	El tablón	6	Junio	2023-06-28T00:00:00	2024-11-06T02:00:00	7	Dirección del viento	1.61
162639	7	Sololá	701	Sololá	2	El tablón	6	Junio	2023-06-28T00:00:00	2024-11-06T02:00:00	1	Precipitación	0
162640	7	Sololá	701	Sololá	2	El tablón	6	Junio	2023-06-28T00:00:00	2024-11-06T02:00:00	8	Radiación solar	0
162641	7	Sololá	701	Sololá	2	El tablón	6	Junio	2023-06-28T00:00:00	2024-11-06T03:00:00	2	Temperatura media	12.6
162642	7	Sololá	701	Sololá	2	El tablón	6	Junio	2023-06-28T00:00:00	2024-11-06T03:00:00	4	Temperatura máxima	12.7
162643	7	Sololá	701	Sololá	2	El tablón	6	Junio	2023-06-28T00:00:00	2024-11-06T03:00:00	3	Temperatura mínima	12.6
162644	7	Sololá	701	Sololá	2	El tablón	6	Junio	2023-06-28T00:00:00	2024-11-06T03:00:00	5	Humedad	87
162645	7	Sololá	701	Sololá	2	El tablón	6	Junio	2023-06-28T00:00:00	2024-11-06T03:00:00	6	Velocidad del viento	0
162646	7	Sololá	701	Sololá	2	El tablón	6	Junio	2023-06-28T00:00:00	2024-11-06T03:00:00	7	Dirección del viento	0
162647	7	Sololá	701	Sololá	2	El tablón	6	Junio	2023-06-28T00:00:00	2024-11-06T03:00:00	1	Precipitación	0.6
162648	7	Sololá	701	Sololá	2	El tablón	6	Junio	2023-06-28T00:00:00	2024-11-06T03:00:00	8	Radiación solar	0
162649	7	Sololá	701	Sololá	2	El tablón	6	Junio	2023-06-28T00:00:00	2024-11-06T04:00:00	2	Temperatura media	12.2
162650	7	Sololá	701	Sololá	2	El tablón	6	Junio	2023-06-28T00:00:00	2024-11-06T04:00:00	4	Temperatura máxima	12.6
162651	7	Sololá	701	Sololá	2	El tablón	6	Junio	2023-06-28T00:00:00	2024-11-06T04:00:00	3	Temperatura mínima	12.2
162652	7	Sololá	701	Sololá	2	El tablón	6	Junio	2023-06-28T00:00:00	2024-11-06T04:00:00	5	Humedad	87
162653	7	Sololá	701	Sololá	2	El tablón	6	Junio	2023-06-28T00:00:00	2024-11-06T04:00:00	6	Velocidad del viento	1.6
162654	7	Sololá	701	Sololá	2	El tablón	6	Junio	2023-06-28T00:00:00	2024-11-06T04:00:00	7	Dirección del viento	1.61
162655	7	Sololá	701	Sololá	2	El tablón	6	Junio	2023-06-28T00:00:00	2024-11-06T04:00:00	1	Precipitación	0
162656	7	Sololá	701	Sololá	2	El tablón	6	Junio	2023-06-28T00:00:00	2024-11-06T04:00:00	8	Radiación solar	0
162657	7	Sololá	701	Sololá	2	El tablón	6	Junio	2023-06-28T00:00:00	2024-11-06T05:00:00	2	Temperatura media	11.9
162658	7	Sololá	701	Sololá	2	El tablón	6	Junio	2023-06-28T00:00:00	2024-11-06T05:00:00	4	Temperatura máxima	12.2
162659	7	Sololá	701	Sololá	2	El tablón	6	Junio	2023-06-28T00:00:00	2024-11-06T05:00:00	3	Temperatura mínima	11.9
162660	7	Sololá	701	Sololá	2	El tablón	6	Junio	2023-06-28T00:00:00	2024-11-06T05:00:00	5	Humedad	88
162661	7	Sololá	701	Sololá	2	El tablón	6	Junio	2023-06-28T00:00:00	2024-11-06T05:00:00	6	Velocidad del viento	1.6
162662	7	Sololá	701	Sololá	2	El tablón	6	Junio	2023-06-28T00:00:00	2024-11-06T05:00:00	7	Dirección del viento	1.61
162663	7	Sololá	701	Sololá	2	El tablón	6	Junio	2023-06-28T00:00:00	2024-11-06T05:00:00	1	Precipitación	0.2
162664	7	Sololá	701	Sololá	2	El tablón	6	Junio	2023-06-28T00:00:00	2024-11-06T05:00:00	8	Radiación solar	0
162665	7	Sololá	701	Sololá	2	El tablón	6	Junio	2023-06-28T00:00:00	2024-11-06T06:00:00	2	Temperatura media	12
162666	7	Sololá	701	Sololá	2	El tablón	6	Junio	2023-06-28T00:00:00	2024-11-06T06:00:00	4	Temperatura máxima	12
162667	7	Sololá	701	Sololá	2	El tablón	6	Junio	2023-06-28T00:00:00	2024-11-06T06:00:00	3	Temperatura mínima	11.8
162668	7	Sololá	701	Sololá	2	El tablón	6	Junio	2023-06-28T00:00:00	2024-11-06T06:00:00	5	Humedad	89
162669	7	Sololá	701	Sololá	2	El tablón	6	Junio	2023-06-28T00:00:00	2024-11-06T06:00:00	6	Velocidad del viento	0
162670	7	Sololá	701	Sololá	2	El tablón	6	Junio	2023-06-28T00:00:00	2024-11-06T06:00:00	7	Dirección del viento	0
162671	7	Sololá	701	Sololá	2	El tablón	6	Junio	2023-06-28T00:00:00	2024-11-06T06:00:00	1	Precipitación	0
162672	7	Sololá	701	Sololá	2	El tablón	6	Junio	2023-06-28T00:00:00	2024-11-06T06:00:00	8	Radiación solar	3
162673	7	Sololá	701	Sololá	2	El tablón	6	Junio	2023-06-28T00:00:00	2024-11-06T07:00:00	2	Temperatura media	13.6
162674	7	Sololá	701	Sololá	2	El tablón	6	Junio	2023-06-28T00:00:00	2024-11-06T07:00:00	4	Temperatura máxima	13.6
162675	7	Sololá	701	Sololá	2	El tablón	6	Junio	2023-06-28T00:00:00	2024-11-06T07:00:00	3	Temperatura mínima	12
162676	7	Sololá	701	Sololá	2	El tablón	6	Junio	2023-06-28T00:00:00	2024-11-06T07:00:00	5	Humedad	89
162677	7	Sololá	701	Sololá	2	El tablón	6	Junio	2023-06-28T00:00:00	2024-11-06T07:00:00	6	Velocidad del viento	1.6
162678	7	Sololá	701	Sololá	2	El tablón	6	Junio	2023-06-28T00:00:00	2024-11-06T07:00:00	7	Dirección del viento	1.61
162679	7	Sololá	701	Sololá	2	El tablón	6	Junio	2023-06-28T00:00:00	2024-11-06T07:00:00	1	Precipitación	0
162680	7	Sololá	701	Sololá	2	El tablón	6	Junio	2023-06-28T00:00:00	2024-11-06T07:00:00	8	Radiación solar	130
162681	7	Sololá	701	Sololá	2	El tablón	6	Junio	2023-06-28T00:00:00	2024-11-06T08:00:00	2	Temperatura media	14.8
162682	7	Sololá	701	Sololá	2	El tablón	6	Junio	2023-06-28T00:00:00	2024-11-06T08:00:00	4	Temperatura máxima	14.8
162683	7	Sololá	701	Sololá	2	El tablón	6	Junio	2023-06-28T00:00:00	2024-11-06T08:00:00	3	Temperatura mínima	13.6
162684	7	Sololá	701	Sololá	2	El tablón	6	Junio	2023-06-28T00:00:00	2024-11-06T08:00:00	5	Humedad	88
162685	7	Sololá	701	Sololá	2	El tablón	6	Junio	2023-06-28T00:00:00	2024-11-06T08:00:00	6	Velocidad del viento	1.6
162686	7	Sololá	701	Sololá	2	El tablón	6	Junio	2023-06-28T00:00:00	2024-11-06T08:00:00	7	Dirección del viento	1.61
162687	7	Sololá	701	Sololá	2	El tablón	6	Junio	2023-06-28T00:00:00	2024-11-06T08:00:00	1	Precipitación	0
162688	7	Sololá	701	Sololá	2	El tablón	6	Junio	2023-06-28T00:00:00	2024-11-06T08:00:00	8	Radiación solar	198
162689	7	Sololá	701	Sololá	2	El tablón	6	Junio	2023-06-28T00:00:00	2024-11-06T09:00:00	2	Temperatura media	15.6
162690	7	Sololá	701	Sololá	2	El tablón	6	Junio	2023-06-28T00:00:00	2024-11-06T09:00:00	4	Temperatura máxima	15.7
162691	7	Sololá	701	Sololá	2	El tablón	6	Junio	2023-06-28T00:00:00	2024-11-06T09:00:00	3	Temperatura mínima	14.8
162692	7	Sololá	701	Sololá	2	El tablón	6	Junio	2023-06-28T00:00:00	2024-11-06T09:00:00	5	Humedad	84
162693	7	Sololá	701	Sololá	2	El tablón	6	Junio	2023-06-28T00:00:00	2024-11-06T09:00:00	6	Velocidad del viento	1.6
162694	7	Sololá	701	Sololá	2	El tablón	6	Junio	2023-06-28T00:00:00	2024-11-06T09:00:00	7	Dirección del viento	1.61
162695	7	Sololá	701	Sololá	2	El tablón	6	Junio	2023-06-28T00:00:00	2024-11-06T09:00:00	1	Precipitación	0
162696	7	Sololá	701	Sololá	2	El tablón	6	Junio	2023-06-28T00:00:00	2024-11-06T09:00:00	8	Radiación solar	297
162697	7	Sololá	701	Sololá	2	El tablón	6	Junio	2023-06-28T00:00:00	2024-11-06T10:00:00	2	Temperatura media	17.1
162698	7	Sololá	701	Sololá	2	El tablón	6	Junio	2023-06-28T00:00:00	2024-11-06T10:00:00	4	Temperatura máxima	17.1
162699	7	Sololá	701	Sololá	2	El tablón	6	Junio	2023-06-28T00:00:00	2024-11-06T10:00:00	3	Temperatura mínima	15.6
162700	7	Sololá	701	Sololá	2	El tablón	6	Junio	2023-06-28T00:00:00	2024-11-06T10:00:00	5	Humedad	80
162701	7	Sololá	701	Sololá	2	El tablón	6	Junio	2023-06-28T00:00:00	2024-11-06T10:00:00	6	Velocidad del viento	1.6
162702	7	Sololá	701	Sololá	2	El tablón	6	Junio	2023-06-28T00:00:00	2024-11-06T10:00:00	7	Dirección del viento	1.61
162703	7	Sololá	701	Sololá	2	El tablón	6	Junio	2023-06-28T00:00:00	2024-11-06T10:00:00	1	Precipitación	0
162704	7	Sololá	701	Sololá	2	El tablón	6	Junio	2023-06-28T00:00:00	2024-11-06T10:00:00	8	Radiación solar	386
162705	7	Sololá	701	Sololá	2	El tablón	6	Junio	2023-06-28T00:00:00	2024-11-06T11:00:00	2	Temperatura media	18
162706	7	Sololá	701	Sololá	2	El tablón	6	Junio	2023-06-28T00:00:00	2024-11-06T11:00:00	4	Temperatura máxima	18.7
162707	7	Sololá	701	Sololá	2	El tablón	6	Junio	2023-06-28T00:00:00	2024-11-06T11:00:00	3	Temperatura mínima	17.1
162708	7	Sololá	701	Sololá	2	El tablón	6	Junio	2023-06-28T00:00:00	2024-11-06T11:00:00	5	Humedad	78
162709	7	Sololá	701	Sololá	2	El tablón	6	Junio	2023-06-28T00:00:00	2024-11-06T11:00:00	6	Velocidad del viento	4.8
162710	7	Sololá	701	Sololá	2	El tablón	6	Junio	2023-06-28T00:00:00	2024-11-06T11:00:00	7	Dirección del viento	4.83
162711	7	Sololá	701	Sololá	2	El tablón	6	Junio	2023-06-28T00:00:00	2024-11-06T11:00:00	1	Precipitación	0
162712	7	Sololá	701	Sololá	2	El tablón	6	Junio	2023-06-28T00:00:00	2024-11-06T11:00:00	8	Radiación solar	898
162713	7	Sololá	701	Sololá	2	El tablón	6	Junio	2023-06-28T00:00:00	2024-11-06T12:00:00	2	Temperatura media	18.6
162714	7	Sololá	701	Sololá	2	El tablón	6	Junio	2023-06-28T00:00:00	2024-11-06T12:00:00	4	Temperatura máxima	19.1
162715	7	Sololá	701	Sololá	2	El tablón	6	Junio	2023-06-28T00:00:00	2024-11-06T12:00:00	3	Temperatura mínima	18
162716	7	Sololá	701	Sololá	2	El tablón	6	Junio	2023-06-28T00:00:00	2024-11-06T12:00:00	5	Humedad	75
162717	7	Sololá	701	Sololá	2	El tablón	6	Junio	2023-06-28T00:00:00	2024-11-06T12:00:00	6	Velocidad del viento	6.4
162718	7	Sololá	701	Sololá	2	El tablón	6	Junio	2023-06-28T00:00:00	2024-11-06T12:00:00	7	Dirección del viento	6.44
162719	7	Sololá	701	Sololá	2	El tablón	6	Junio	2023-06-28T00:00:00	2024-11-06T12:00:00	1	Precipitación	0
162720	7	Sololá	701	Sololá	2	El tablón	6	Junio	2023-06-28T00:00:00	2024-11-06T12:00:00	8	Radiación solar	914
162721	7	Sololá	701	Sololá	2	El tablón	6	Junio	2023-06-28T00:00:00	2024-11-06T13:00:00	2	Temperatura media	19.4
162722	7	Sololá	701	Sololá	2	El tablón	6	Junio	2023-06-28T00:00:00	2024-11-06T13:00:00	4	Temperatura máxima	19.5
162723	7	Sololá	701	Sololá	2	El tablón	6	Junio	2023-06-28T00:00:00	2024-11-06T13:00:00	3	Temperatura mínima	18.6
162724	7	Sololá	701	Sololá	2	El tablón	6	Junio	2023-06-28T00:00:00	2024-11-06T13:00:00	5	Humedad	78
162725	7	Sololá	701	Sololá	2	El tablón	6	Junio	2023-06-28T00:00:00	2024-11-06T13:00:00	6	Velocidad del viento	4.8
162726	7	Sololá	701	Sololá	2	El tablón	6	Junio	2023-06-28T00:00:00	2024-11-06T13:00:00	7	Dirección del viento	4.83
162727	7	Sololá	701	Sololá	2	El tablón	6	Junio	2023-06-28T00:00:00	2024-11-06T13:00:00	1	Precipitación	0
162728	7	Sololá	701	Sololá	2	El tablón	6	Junio	2023-06-28T00:00:00	2024-11-06T13:00:00	8	Radiación solar	796
162729	7	Sololá	701	Sololá	2	El tablón	6	Junio	2023-06-28T00:00:00	2024-11-06T14:00:00	2	Temperatura media	18.7
162730	7	Sololá	701	Sololá	2	El tablón	6	Junio	2023-06-28T00:00:00	2024-11-06T14:00:00	4	Temperatura máxima	19.5
162731	7	Sololá	701	Sololá	2	El tablón	6	Junio	2023-06-28T00:00:00	2024-11-06T14:00:00	3	Temperatura mínima	18.4
162732	7	Sololá	701	Sololá	2	El tablón	6	Junio	2023-06-28T00:00:00	2024-11-06T14:00:00	5	Humedad	80
162733	7	Sololá	701	Sololá	2	El tablón	6	Junio	2023-06-28T00:00:00	2024-11-06T14:00:00	6	Velocidad del viento	6.4
162734	7	Sololá	701	Sololá	2	El tablón	6	Junio	2023-06-28T00:00:00	2024-11-06T14:00:00	7	Dirección del viento	6.44
162735	7	Sololá	701	Sololá	2	El tablón	6	Junio	2023-06-28T00:00:00	2024-11-06T14:00:00	1	Precipitación	0
162736	7	Sololá	701	Sololá	2	El tablón	6	Junio	2023-06-28T00:00:00	2024-11-06T14:00:00	8	Radiación solar	642
162737	7	Sololá	701	Sololá	2	El tablón	6	Junio	2023-06-28T00:00:00	2024-11-06T15:00:00	2	Temperatura media	17.2
162738	7	Sololá	701	Sololá	2	El tablón	6	Junio	2023-06-28T00:00:00	2024-11-06T15:00:00	4	Temperatura máxima	18.7
162739	7	Sololá	701	Sololá	2	El tablón	6	Junio	2023-06-28T00:00:00	2024-11-06T15:00:00	3	Temperatura mínima	17.2
162740	7	Sololá	701	Sololá	2	El tablón	6	Junio	2023-06-28T00:00:00	2024-11-06T15:00:00	5	Humedad	87
162741	7	Sololá	701	Sololá	2	El tablón	6	Junio	2023-06-28T00:00:00	2024-11-06T15:00:00	6	Velocidad del viento	6.4
162742	7	Sololá	701	Sololá	2	El tablón	6	Junio	2023-06-28T00:00:00	2024-11-06T15:00:00	7	Dirección del viento	6.44
162743	7	Sololá	701	Sololá	2	El tablón	6	Junio	2023-06-28T00:00:00	2024-11-06T15:00:00	1	Precipitación	0
162744	7	Sololá	701	Sololá	2	El tablón	6	Junio	2023-06-28T00:00:00	2024-11-06T15:00:00	8	Radiación solar	322
162745	7	Sololá	701	Sololá	2	El tablón	6	Junio	2023-06-28T00:00:00	2024-11-06T16:00:00	2	Temperatura media	15.9
162746	7	Sololá	701	Sololá	2	El tablón	6	Junio	2023-06-28T00:00:00	2024-11-06T16:00:00	4	Temperatura máxima	17.2
162747	7	Sololá	701	Sololá	2	El tablón	6	Junio	2023-06-28T00:00:00	2024-11-06T16:00:00	3	Temperatura mínima	15.9
162748	7	Sololá	701	Sololá	2	El tablón	6	Junio	2023-06-28T00:00:00	2024-11-06T16:00:00	5	Humedad	88
162749	7	Sololá	701	Sololá	2	El tablón	6	Junio	2023-06-28T00:00:00	2024-11-06T16:00:00	6	Velocidad del viento	3.2
162750	7	Sololá	701	Sololá	2	El tablón	6	Junio	2023-06-28T00:00:00	2024-11-06T16:00:00	7	Dirección del viento	3.22
162751	7	Sololá	701	Sololá	2	El tablón	6	Junio	2023-06-28T00:00:00	2024-11-06T16:00:00	1	Precipitación	0.6
162752	7	Sololá	701	Sololá	2	El tablón	6	Junio	2023-06-28T00:00:00	2024-11-06T16:00:00	8	Radiación solar	125
162753	7	Sololá	701	Sololá	2	El tablón	6	Junio	2023-06-28T00:00:00	2024-11-06T17:00:00	2	Temperatura media	15.2
162754	7	Sololá	701	Sololá	2	El tablón	6	Junio	2023-06-28T00:00:00	2024-11-06T17:00:00	4	Temperatura máxima	15.9
162755	7	Sololá	701	Sololá	2	El tablón	6	Junio	2023-06-28T00:00:00	2024-11-06T17:00:00	3	Temperatura mínima	15.2
162756	7	Sololá	701	Sololá	2	El tablón	6	Junio	2023-06-28T00:00:00	2024-11-06T17:00:00	5	Humedad	88
162757	7	Sololá	701	Sololá	2	El tablón	6	Junio	2023-06-28T00:00:00	2024-11-06T17:00:00	6	Velocidad del viento	1.6
162758	7	Sololá	701	Sololá	2	El tablón	6	Junio	2023-06-28T00:00:00	2024-11-06T17:00:00	7	Dirección del viento	1.61
162759	7	Sololá	701	Sololá	2	El tablón	6	Junio	2023-06-28T00:00:00	2024-11-06T17:00:00	1	Precipitación	2.8
162760	7	Sololá	701	Sololá	2	El tablón	6	Junio	2023-06-28T00:00:00	2024-11-06T17:00:00	8	Radiación solar	39
162761	7	Sololá	701	Sololá	2	El tablón	6	Junio	2023-06-28T00:00:00	2024-11-06T18:00:00	2	Temperatura media	14.6
162762	7	Sololá	701	Sololá	2	El tablón	6	Junio	2023-06-28T00:00:00	2024-11-06T18:00:00	4	Temperatura máxima	15.2
162763	7	Sololá	701	Sololá	2	El tablón	6	Junio	2023-06-28T00:00:00	2024-11-06T18:00:00	3	Temperatura mínima	14.5
162764	7	Sololá	701	Sololá	2	El tablón	6	Junio	2023-06-28T00:00:00	2024-11-06T18:00:00	5	Humedad	88
162765	7	Sololá	701	Sololá	2	El tablón	6	Junio	2023-06-28T00:00:00	2024-11-06T18:00:00	6	Velocidad del viento	3.2
162766	7	Sololá	701	Sololá	2	El tablón	6	Junio	2023-06-28T00:00:00	2024-11-06T18:00:00	7	Dirección del viento	3.22
162767	7	Sololá	701	Sololá	2	El tablón	6	Junio	2023-06-28T00:00:00	2024-11-06T18:00:00	1	Precipitación	7.4
162768	7	Sololá	701	Sololá	2	El tablón	6	Junio	2023-06-28T00:00:00	2024-11-06T18:00:00	8	Radiación solar	14
162769	7	Sololá	701	Sololá	2	El tablón	6	Junio	2023-06-28T00:00:00	2024-11-06T19:00:00	2	Temperatura media	14.6
162770	7	Sololá	701	Sololá	2	El tablón	6	Junio	2023-06-28T00:00:00	2024-11-06T19:00:00	4	Temperatura máxima	14.7
162771	7	Sololá	701	Sololá	2	El tablón	6	Junio	2023-06-28T00:00:00	2024-11-06T19:00:00	3	Temperatura mínima	14.5
162772	7	Sololá	701	Sololá	2	El tablón	6	Junio	2023-06-28T00:00:00	2024-11-06T19:00:00	5	Humedad	89
162773	7	Sololá	701	Sololá	2	El tablón	6	Junio	2023-06-28T00:00:00	2024-11-06T19:00:00	6	Velocidad del viento	4.8
162774	7	Sololá	701	Sololá	2	El tablón	6	Junio	2023-06-28T00:00:00	2024-11-06T19:00:00	7	Dirección del viento	4.83
162775	7	Sololá	701	Sololá	2	El tablón	6	Junio	2023-06-28T00:00:00	2024-11-06T19:00:00	1	Precipitación	0.4
162776	7	Sololá	701	Sololá	2	El tablón	6	Junio	2023-06-28T00:00:00	2024-11-06T19:00:00	8	Radiación solar	0
162777	7	Sololá	701	Sololá	2	El tablón	6	Junio	2023-06-28T00:00:00	2024-11-06T20:00:00	2	Temperatura media	14.6
162778	7	Sololá	701	Sololá	2	El tablón	6	Junio	2023-06-28T00:00:00	2024-11-06T20:00:00	4	Temperatura máxima	14.7
162779	7	Sololá	701	Sololá	2	El tablón	6	Junio	2023-06-28T00:00:00	2024-11-06T20:00:00	3	Temperatura mínima	14.6
162780	7	Sololá	701	Sololá	2	El tablón	6	Junio	2023-06-28T00:00:00	2024-11-06T20:00:00	5	Humedad	89
162781	7	Sololá	701	Sololá	2	El tablón	6	Junio	2023-06-28T00:00:00	2024-11-06T20:00:00	6	Velocidad del viento	4.8
162782	7	Sololá	701	Sololá	2	El tablón	6	Junio	2023-06-28T00:00:00	2024-11-06T20:00:00	7	Dirección del viento	4.83
162783	7	Sololá	701	Sololá	2	El tablón	6	Junio	2023-06-28T00:00:00	2024-11-06T20:00:00	1	Precipitación	0
162784	7	Sololá	701	Sololá	2	El tablón	6	Junio	2023-06-28T00:00:00	2024-11-06T20:00:00	8	Radiación solar	0
162785	7	Sololá	701	Sololá	2	El tablón	6	Junio	2023-06-28T00:00:00	2024-11-06T21:00:00	2	Temperatura media	14.4
162786	7	Sololá	701	Sololá	2	El tablón	6	Junio	2023-06-28T00:00:00	2024-11-06T21:00:00	4	Temperatura máxima	14.6
162787	7	Sololá	701	Sololá	2	El tablón	6	Junio	2023-06-28T00:00:00	2024-11-06T21:00:00	3	Temperatura mínima	14.4
162788	7	Sololá	701	Sololá	2	El tablón	6	Junio	2023-06-28T00:00:00	2024-11-06T21:00:00	5	Humedad	89
162789	7	Sololá	701	Sololá	2	El tablón	6	Junio	2023-06-28T00:00:00	2024-11-06T21:00:00	6	Velocidad del viento	4.8
162790	7	Sololá	701	Sololá	2	El tablón	6	Junio	2023-06-28T00:00:00	2024-11-06T21:00:00	7	Dirección del viento	4.83
162791	7	Sololá	701	Sololá	2	El tablón	6	Junio	2023-06-28T00:00:00	2024-11-06T21:00:00	1	Precipitación	0
162792	7	Sololá	701	Sololá	2	El tablón	6	Junio	2023-06-28T00:00:00	2024-11-06T21:00:00	8	Radiación solar	0
162793	7	Sololá	701	Sololá	2	El tablón	6	Junio	2023-06-28T00:00:00	2024-11-06T22:00:00	2	Temperatura media	14.5
162794	7	Sololá	701	Sololá	2	El tablón	6	Junio	2023-06-28T00:00:00	2024-11-06T22:00:00	4	Temperatura máxima	14.5
162795	7	Sololá	701	Sololá	2	El tablón	6	Junio	2023-06-28T00:00:00	2024-11-06T22:00:00	3	Temperatura mínima	14.4
162796	7	Sololá	701	Sololá	2	El tablón	6	Junio	2023-06-28T00:00:00	2024-11-06T22:00:00	5	Humedad	89
162797	7	Sololá	701	Sololá	2	El tablón	6	Junio	2023-06-28T00:00:00	2024-11-06T22:00:00	6	Velocidad del viento	3.2
162798	7	Sololá	701	Sololá	2	El tablón	6	Junio	2023-06-28T00:00:00	2024-11-06T22:00:00	7	Dirección del viento	3.22
162799	7	Sololá	701	Sololá	2	El tablón	6	Junio	2023-06-28T00:00:00	2024-11-06T22:00:00	1	Precipitación	0
162800	7	Sololá	701	Sololá	2	El tablón	6	Junio	2023-06-28T00:00:00	2024-11-06T22:00:00	8	Radiación solar	0
162801	7	Sololá	701	Sololá	2	El tablón	6	Junio	2023-06-28T00:00:00	2024-11-06T23:00:00	2	Temperatura media	14.3
162802	7	Sololá	701	Sololá	2	El tablón	6	Junio	2023-06-28T00:00:00	2024-11-06T23:00:00	4	Temperatura máxima	14.5
162803	7	Sololá	701	Sololá	2	El tablón	6	Junio	2023-06-28T00:00:00	2024-11-06T23:00:00	3	Temperatura mínima	14.3
162804	7	Sololá	701	Sololá	2	El tablón	6	Junio	2023-06-28T00:00:00	2024-11-06T23:00:00	5	Humedad	89
162805	7	Sololá	701	Sololá	2	El tablón	6	Junio	2023-06-28T00:00:00	2024-11-06T23:00:00	6	Velocidad del viento	4.8
162806	7	Sololá	701	Sololá	2	El tablón	6	Junio	2023-06-28T00:00:00	2024-11-06T23:00:00	7	Dirección del viento	4.83
162807	7	Sololá	701	Sololá	2	El tablón	6	Junio	2023-06-28T00:00:00	2024-11-06T23:00:00	1	Precipitación	0
162808	7	Sololá	701	Sololá	2	El tablón	6	Junio	2023-06-28T00:00:00	2024-11-06T23:00:00	8	Radiación solar	0
162809	7	Sololá	701	Sololá	2	El tablón	6	Junio	2023-06-29T00:00:00	2024-11-06T00:00:00	2	Temperatura media	14.1
162810	7	Sololá	701	Sololá	2	El tablón	6	Junio	2023-06-29T00:00:00	2024-11-06T00:00:00	4	Temperatura máxima	14.4
162811	7	Sololá	701	Sololá	2	El tablón	6	Junio	2023-06-29T00:00:00	2024-11-06T00:00:00	3	Temperatura mínima	14.1
162812	7	Sololá	701	Sololá	2	El tablón	6	Junio	2023-06-29T00:00:00	2024-11-06T00:00:00	5	Humedad	89
162813	7	Sololá	701	Sololá	2	El tablón	6	Junio	2023-06-29T00:00:00	2024-11-06T00:00:00	6	Velocidad del viento	3.2
162814	7	Sololá	701	Sololá	2	El tablón	6	Junio	2023-06-29T00:00:00	2024-11-06T00:00:00	7	Dirección del viento	3.22
162815	7	Sololá	701	Sololá	2	El tablón	6	Junio	2023-06-29T00:00:00	2024-11-06T00:00:00	1	Precipitación	0
162816	7	Sololá	701	Sololá	2	El tablón	6	Junio	2023-06-29T00:00:00	2024-11-06T00:00:00	8	Radiación solar	0
162817	7	Sololá	701	Sololá	2	El tablón	6	Junio	2023-06-29T00:00:00	2024-11-06T01:00:00	2	Temperatura media	14.1
162818	7	Sololá	701	Sololá	2	El tablón	6	Junio	2023-06-29T00:00:00	2024-11-06T01:00:00	4	Temperatura máxima	14.1
162819	7	Sololá	701	Sololá	2	El tablón	6	Junio	2023-06-29T00:00:00	2024-11-06T01:00:00	3	Temperatura mínima	13.9
162820	7	Sololá	701	Sololá	2	El tablón	6	Junio	2023-06-29T00:00:00	2024-11-06T01:00:00	5	Humedad	88
162821	7	Sololá	701	Sololá	2	El tablón	6	Junio	2023-06-29T00:00:00	2024-11-06T01:00:00	6	Velocidad del viento	4.8
162822	7	Sololá	701	Sololá	2	El tablón	6	Junio	2023-06-29T00:00:00	2024-11-06T01:00:00	7	Dirección del viento	4.83
162823	7	Sololá	701	Sololá	2	El tablón	6	Junio	2023-06-29T00:00:00	2024-11-06T01:00:00	1	Precipitación	0
162824	7	Sololá	701	Sololá	2	El tablón	6	Junio	2023-06-29T00:00:00	2024-11-06T01:00:00	8	Radiación solar	0
162825	7	Sololá	701	Sololá	2	El tablón	6	Junio	2023-06-29T00:00:00	2024-11-06T02:00:00	2	Temperatura media	13.9
162826	7	Sololá	701	Sololá	2	El tablón	6	Junio	2023-06-29T00:00:00	2024-11-06T02:00:00	4	Temperatura máxima	14.2
162827	7	Sololá	701	Sololá	2	El tablón	6	Junio	2023-06-29T00:00:00	2024-11-06T02:00:00	3	Temperatura mínima	13.9
162828	7	Sololá	701	Sololá	2	El tablón	6	Junio	2023-06-29T00:00:00	2024-11-06T02:00:00	5	Humedad	89
162829	7	Sololá	701	Sololá	2	El tablón	6	Junio	2023-06-29T00:00:00	2024-11-06T02:00:00	6	Velocidad del viento	3.2
162830	7	Sololá	701	Sololá	2	El tablón	6	Junio	2023-06-29T00:00:00	2024-11-06T02:00:00	7	Dirección del viento	3.22
162831	7	Sololá	701	Sololá	2	El tablón	6	Junio	2023-06-29T00:00:00	2024-11-06T02:00:00	1	Precipitación	0
162832	7	Sololá	701	Sololá	2	El tablón	6	Junio	2023-06-29T00:00:00	2024-11-06T02:00:00	8	Radiación solar	0
162833	7	Sololá	701	Sololá	2	El tablón	6	Junio	2023-06-29T00:00:00	2024-11-06T03:00:00	2	Temperatura media	13.8
162834	7	Sololá	701	Sololá	2	El tablón	6	Junio	2023-06-29T00:00:00	2024-11-06T03:00:00	4	Temperatura máxima	14.1
162835	7	Sololá	701	Sololá	2	El tablón	6	Junio	2023-06-29T00:00:00	2024-11-06T03:00:00	3	Temperatura mínima	13.8
162836	7	Sololá	701	Sololá	2	El tablón	6	Junio	2023-06-29T00:00:00	2024-11-06T03:00:00	5	Humedad	89
162837	7	Sololá	701	Sololá	2	El tablón	6	Junio	2023-06-29T00:00:00	2024-11-06T03:00:00	6	Velocidad del viento	4.8
162838	7	Sololá	701	Sololá	2	El tablón	6	Junio	2023-06-29T00:00:00	2024-11-06T03:00:00	7	Dirección del viento	4.83
162839	7	Sololá	701	Sololá	2	El tablón	6	Junio	2023-06-29T00:00:00	2024-11-06T03:00:00	1	Precipitación	0
162840	7	Sololá	701	Sololá	2	El tablón	6	Junio	2023-06-29T00:00:00	2024-11-06T03:00:00	8	Radiación solar	0
162841	7	Sololá	701	Sololá	2	El tablón	6	Junio	2023-06-29T00:00:00	2024-11-06T04:00:00	2	Temperatura media	13.9
162842	7	Sololá	701	Sololá	2	El tablón	6	Junio	2023-06-29T00:00:00	2024-11-06T04:00:00	4	Temperatura máxima	14.1
162843	7	Sololá	701	Sololá	2	El tablón	6	Junio	2023-06-29T00:00:00	2024-11-06T04:00:00	3	Temperatura mínima	13.8
162844	7	Sololá	701	Sololá	2	El tablón	6	Junio	2023-06-29T00:00:00	2024-11-06T04:00:00	5	Humedad	89
162845	7	Sololá	701	Sololá	2	El tablón	6	Junio	2023-06-29T00:00:00	2024-11-06T04:00:00	6	Velocidad del viento	3.2
162846	7	Sololá	701	Sololá	2	El tablón	6	Junio	2023-06-29T00:00:00	2024-11-06T04:00:00	7	Dirección del viento	3.22
162847	7	Sololá	701	Sololá	2	El tablón	6	Junio	2023-06-29T00:00:00	2024-11-06T04:00:00	1	Precipitación	0
162848	7	Sololá	701	Sololá	2	El tablón	6	Junio	2023-06-29T00:00:00	2024-11-06T04:00:00	8	Radiación solar	0
162849	7	Sololá	701	Sololá	2	El tablón	6	Junio	2023-06-29T00:00:00	2024-11-06T05:00:00	2	Temperatura media	14
162850	7	Sololá	701	Sololá	2	El tablón	6	Junio	2023-06-29T00:00:00	2024-11-06T05:00:00	4	Temperatura máxima	14
162851	7	Sololá	701	Sololá	2	El tablón	6	Junio	2023-06-29T00:00:00	2024-11-06T05:00:00	3	Temperatura mínima	13.7
162852	7	Sololá	701	Sololá	2	El tablón	6	Junio	2023-06-29T00:00:00	2024-11-06T05:00:00	5	Humedad	88
162853	7	Sololá	701	Sololá	2	El tablón	6	Junio	2023-06-29T00:00:00	2024-11-06T05:00:00	6	Velocidad del viento	4.8
162854	7	Sololá	701	Sololá	2	El tablón	6	Junio	2023-06-29T00:00:00	2024-11-06T05:00:00	7	Dirección del viento	4.83
162855	7	Sololá	701	Sololá	2	El tablón	6	Junio	2023-06-29T00:00:00	2024-11-06T05:00:00	1	Precipitación	0
162856	7	Sololá	701	Sololá	2	El tablón	6	Junio	2023-06-29T00:00:00	2024-11-06T05:00:00	8	Radiación solar	0
162857	7	Sololá	701	Sololá	2	El tablón	6	Junio	2023-06-29T00:00:00	2024-11-06T06:00:00	2	Temperatura media	14.1
162858	7	Sololá	701	Sololá	2	El tablón	6	Junio	2023-06-29T00:00:00	2024-11-06T06:00:00	4	Temperatura máxima	14.1
162859	7	Sololá	701	Sololá	2	El tablón	6	Junio	2023-06-29T00:00:00	2024-11-06T06:00:00	3	Temperatura mínima	13.9
162860	7	Sololá	701	Sololá	2	El tablón	6	Junio	2023-06-29T00:00:00	2024-11-06T06:00:00	5	Humedad	88
162861	7	Sololá	701	Sololá	2	El tablón	6	Junio	2023-06-29T00:00:00	2024-11-06T06:00:00	6	Velocidad del viento	8
162862	7	Sololá	701	Sololá	2	El tablón	6	Junio	2023-06-29T00:00:00	2024-11-06T06:00:00	7	Dirección del viento	8.05
162863	7	Sololá	701	Sololá	2	El tablón	6	Junio	2023-06-29T00:00:00	2024-11-06T06:00:00	1	Precipitación	0
162864	7	Sololá	701	Sololá	2	El tablón	6	Junio	2023-06-29T00:00:00	2024-11-06T06:00:00	8	Radiación solar	0
162865	7	Sololá	701	Sololá	2	El tablón	6	Junio	2023-06-29T00:00:00	2024-11-06T07:00:00	2	Temperatura media	15.6
162866	7	Sololá	701	Sololá	2	El tablón	6	Junio	2023-06-29T00:00:00	2024-11-06T07:00:00	4	Temperatura máxima	15.6
162867	7	Sololá	701	Sololá	2	El tablón	6	Junio	2023-06-29T00:00:00	2024-11-06T07:00:00	3	Temperatura mínima	14.1
162868	7	Sololá	701	Sololá	2	El tablón	6	Junio	2023-06-29T00:00:00	2024-11-06T07:00:00	5	Humedad	86
162869	7	Sololá	701	Sololá	2	El tablón	6	Junio	2023-06-29T00:00:00	2024-11-06T07:00:00	6	Velocidad del viento	9.7
162870	7	Sololá	701	Sololá	2	El tablón	6	Junio	2023-06-29T00:00:00	2024-11-06T07:00:00	7	Dirección del viento	9.66
162871	7	Sololá	701	Sololá	2	El tablón	6	Junio	2023-06-29T00:00:00	2024-11-06T07:00:00	1	Precipitación	0
162872	7	Sololá	701	Sololá	2	El tablón	6	Junio	2023-06-29T00:00:00	2024-11-06T07:00:00	8	Radiación solar	81
162873	7	Sololá	701	Sololá	2	El tablón	6	Junio	2023-06-29T00:00:00	2024-11-06T08:00:00	2	Temperatura media	18.7
162874	7	Sololá	701	Sololá	2	El tablón	6	Junio	2023-06-29T00:00:00	2024-11-06T08:00:00	4	Temperatura máxima	18.7
162875	7	Sololá	701	Sololá	2	El tablón	6	Junio	2023-06-29T00:00:00	2024-11-06T08:00:00	3	Temperatura mínima	15.6
162876	7	Sololá	701	Sololá	2	El tablón	6	Junio	2023-06-29T00:00:00	2024-11-06T08:00:00	5	Humedad	71
162877	7	Sololá	701	Sololá	2	El tablón	6	Junio	2023-06-29T00:00:00	2024-11-06T08:00:00	6	Velocidad del viento	6.4
162878	7	Sololá	701	Sololá	2	El tablón	6	Junio	2023-06-29T00:00:00	2024-11-06T08:00:00	7	Dirección del viento	6.44
162879	7	Sololá	701	Sololá	2	El tablón	6	Junio	2023-06-29T00:00:00	2024-11-06T08:00:00	1	Precipitación	0
162880	7	Sololá	701	Sololá	2	El tablón	6	Junio	2023-06-29T00:00:00	2024-11-06T08:00:00	8	Radiación solar	336
162881	7	Sololá	701	Sololá	2	El tablón	6	Junio	2023-06-29T00:00:00	2024-11-06T09:00:00	2	Temperatura media	18.4
162882	7	Sololá	701	Sololá	2	El tablón	6	Junio	2023-06-29T00:00:00	2024-11-06T09:00:00	4	Temperatura máxima	18.7
162883	7	Sololá	701	Sololá	2	El tablón	6	Junio	2023-06-29T00:00:00	2024-11-06T09:00:00	3	Temperatura mínima	18.2
162884	7	Sololá	701	Sololá	2	El tablón	6	Junio	2023-06-29T00:00:00	2024-11-06T09:00:00	5	Humedad	77
162885	7	Sololá	701	Sololá	2	El tablón	6	Junio	2023-06-29T00:00:00	2024-11-06T09:00:00	6	Velocidad del viento	6.4
162886	7	Sololá	701	Sololá	2	El tablón	6	Junio	2023-06-29T00:00:00	2024-11-06T09:00:00	7	Dirección del viento	6.44
162887	7	Sololá	701	Sololá	2	El tablón	6	Junio	2023-06-29T00:00:00	2024-11-06T09:00:00	1	Precipitación	0
162888	7	Sololá	701	Sololá	2	El tablón	6	Junio	2023-06-29T00:00:00	2024-11-06T09:00:00	8	Radiación solar	402
162889	7	Sololá	701	Sololá	2	El tablón	6	Junio	2023-06-29T00:00:00	2024-11-06T10:00:00	2	Temperatura media	18.7
162890	7	Sololá	701	Sololá	2	El tablón	6	Junio	2023-06-29T00:00:00	2024-11-06T10:00:00	4	Temperatura máxima	19.1
162891	7	Sololá	701	Sololá	2	El tablón	6	Junio	2023-06-29T00:00:00	2024-11-06T10:00:00	3	Temperatura mínima	18.4
162892	7	Sololá	701	Sololá	2	El tablón	6	Junio	2023-06-29T00:00:00	2024-11-06T10:00:00	5	Humedad	75
162893	7	Sololá	701	Sololá	2	El tablón	6	Junio	2023-06-29T00:00:00	2024-11-06T10:00:00	6	Velocidad del viento	8
162894	7	Sololá	701	Sololá	2	El tablón	6	Junio	2023-06-29T00:00:00	2024-11-06T10:00:00	7	Dirección del viento	8.05
162895	7	Sololá	701	Sololá	2	El tablón	6	Junio	2023-06-29T00:00:00	2024-11-06T10:00:00	1	Precipitación	0
162896	7	Sololá	701	Sololá	2	El tablón	6	Junio	2023-06-29T00:00:00	2024-11-06T10:00:00	8	Radiación solar	463
162897	7	Sololá	701	Sololá	2	El tablón	6	Junio	2023-06-29T00:00:00	2024-11-06T11:00:00	2	Temperatura media	19.2
162898	7	Sololá	701	Sololá	2	El tablón	6	Junio	2023-06-29T00:00:00	2024-11-06T11:00:00	4	Temperatura máxima	19.4
162899	7	Sololá	701	Sololá	2	El tablón	6	Junio	2023-06-29T00:00:00	2024-11-06T11:00:00	3	Temperatura mínima	18.3
162900	7	Sololá	701	Sololá	2	El tablón	6	Junio	2023-06-29T00:00:00	2024-11-06T11:00:00	5	Humedad	70
162901	7	Sololá	701	Sololá	2	El tablón	6	Junio	2023-06-29T00:00:00	2024-11-06T11:00:00	6	Velocidad del viento	8
162902	7	Sololá	701	Sololá	2	El tablón	6	Junio	2023-06-29T00:00:00	2024-11-06T11:00:00	7	Dirección del viento	8.05
162903	7	Sololá	701	Sololá	2	El tablón	6	Junio	2023-06-29T00:00:00	2024-11-06T11:00:00	1	Precipitación	0
162904	7	Sololá	701	Sololá	2	El tablón	6	Junio	2023-06-29T00:00:00	2024-11-06T11:00:00	8	Radiación solar	463
162905	7	Sololá	701	Sololá	2	El tablón	6	Junio	2023-06-29T00:00:00	2024-11-06T12:00:00	2	Temperatura media	18
162906	7	Sololá	701	Sololá	2	El tablón	6	Junio	2023-06-29T00:00:00	2024-11-06T12:00:00	4	Temperatura máxima	19.9
162907	7	Sololá	701	Sololá	2	El tablón	6	Junio	2023-06-29T00:00:00	2024-11-06T12:00:00	3	Temperatura mínima	18
162908	7	Sololá	701	Sololá	2	El tablón	6	Junio	2023-06-29T00:00:00	2024-11-06T12:00:00	5	Humedad	85
162909	7	Sololá	701	Sololá	2	El tablón	6	Junio	2023-06-29T00:00:00	2024-11-06T12:00:00	6	Velocidad del viento	6.4
162910	7	Sololá	701	Sololá	2	El tablón	6	Junio	2023-06-29T00:00:00	2024-11-06T12:00:00	7	Dirección del viento	6.44
162911	7	Sololá	701	Sololá	2	El tablón	6	Junio	2023-06-29T00:00:00	2024-11-06T12:00:00	1	Precipitación	0
162912	7	Sololá	701	Sololá	2	El tablón	6	Junio	2023-06-29T00:00:00	2024-11-06T12:00:00	8	Radiación solar	546
162913	7	Sololá	701	Sololá	2	El tablón	6	Junio	2023-06-29T00:00:00	2024-11-06T13:00:00	2	Temperatura media	20.5
162914	7	Sololá	701	Sololá	2	El tablón	6	Junio	2023-06-29T00:00:00	2024-11-06T13:00:00	4	Temperatura máxima	20.6
162915	7	Sololá	701	Sololá	2	El tablón	6	Junio	2023-06-29T00:00:00	2024-11-06T13:00:00	3	Temperatura mínima	18
162916	7	Sololá	701	Sololá	2	El tablón	6	Junio	2023-06-29T00:00:00	2024-11-06T13:00:00	5	Humedad	77
162917	7	Sololá	701	Sololá	2	El tablón	6	Junio	2023-06-29T00:00:00	2024-11-06T13:00:00	6	Velocidad del viento	4.8
162918	7	Sololá	701	Sololá	2	El tablón	6	Junio	2023-06-29T00:00:00	2024-11-06T13:00:00	7	Dirección del viento	4.83
162919	7	Sololá	701	Sololá	2	El tablón	6	Junio	2023-06-29T00:00:00	2024-11-06T13:00:00	1	Precipitación	0
162920	7	Sololá	701	Sololá	2	El tablón	6	Junio	2023-06-29T00:00:00	2024-11-06T13:00:00	8	Radiación solar	529
162921	7	Sololá	701	Sololá	2	El tablón	6	Junio	2023-06-29T00:00:00	2024-11-06T14:00:00	2	Temperatura media	17.8
162922	7	Sololá	701	Sololá	2	El tablón	6	Junio	2023-06-29T00:00:00	2024-11-06T14:00:00	4	Temperatura máxima	20.6
162923	7	Sololá	701	Sololá	2	El tablón	6	Junio	2023-06-29T00:00:00	2024-11-06T14:00:00	3	Temperatura mínima	17.2
162924	7	Sololá	701	Sololá	2	El tablón	6	Junio	2023-06-29T00:00:00	2024-11-06T14:00:00	5	Humedad	88
162925	7	Sololá	701	Sololá	2	El tablón	6	Junio	2023-06-29T00:00:00	2024-11-06T14:00:00	6	Velocidad del viento	4.8
162926	7	Sololá	701	Sololá	2	El tablón	6	Junio	2023-06-29T00:00:00	2024-11-06T14:00:00	7	Dirección del viento	4.83
162927	7	Sololá	701	Sololá	2	El tablón	6	Junio	2023-06-29T00:00:00	2024-11-06T14:00:00	1	Precipitación	0
162928	7	Sololá	701	Sololá	2	El tablón	6	Junio	2023-06-29T00:00:00	2024-11-06T14:00:00	8	Radiación solar	344
162929	7	Sololá	701	Sololá	2	El tablón	6	Junio	2023-06-29T00:00:00	2024-11-06T15:00:00	2	Temperatura media	19.3
162930	7	Sololá	701	Sololá	2	El tablón	6	Junio	2023-06-29T00:00:00	2024-11-06T15:00:00	4	Temperatura máxima	19.3
162931	7	Sololá	701	Sololá	2	El tablón	6	Junio	2023-06-29T00:00:00	2024-11-06T15:00:00	3	Temperatura mínima	17.8
162932	7	Sololá	701	Sololá	2	El tablón	6	Junio	2023-06-29T00:00:00	2024-11-06T15:00:00	5	Humedad	79
162933	7	Sololá	701	Sololá	2	El tablón	6	Junio	2023-06-29T00:00:00	2024-11-06T15:00:00	6	Velocidad del viento	6.4
162934	7	Sololá	701	Sololá	2	El tablón	6	Junio	2023-06-29T00:00:00	2024-11-06T15:00:00	7	Dirección del viento	6.44
162935	7	Sololá	701	Sololá	2	El tablón	6	Junio	2023-06-29T00:00:00	2024-11-06T15:00:00	1	Precipitación	0
162936	7	Sololá	701	Sololá	2	El tablón	6	Junio	2023-06-29T00:00:00	2024-11-06T15:00:00	8	Radiación solar	394
162937	7	Sololá	701	Sololá	2	El tablón	6	Junio	2023-06-29T00:00:00	2024-11-06T16:00:00	2	Temperatura media	17.2
162938	7	Sololá	701	Sololá	2	El tablón	6	Junio	2023-06-29T00:00:00	2024-11-06T16:00:00	4	Temperatura máxima	19.3
162939	7	Sololá	701	Sololá	2	El tablón	6	Junio	2023-06-29T00:00:00	2024-11-06T16:00:00	3	Temperatura mínima	17.1
162940	7	Sololá	701	Sololá	2	El tablón	6	Junio	2023-06-29T00:00:00	2024-11-06T16:00:00	5	Humedad	88
162941	7	Sololá	701	Sololá	2	El tablón	6	Junio	2023-06-29T00:00:00	2024-11-06T16:00:00	6	Velocidad del viento	4.8
162942	7	Sololá	701	Sololá	2	El tablón	6	Junio	2023-06-29T00:00:00	2024-11-06T16:00:00	7	Dirección del viento	4.83
162943	7	Sololá	701	Sololá	2	El tablón	6	Junio	2023-06-29T00:00:00	2024-11-06T16:00:00	1	Precipitación	0
162944	7	Sololá	701	Sololá	2	El tablón	6	Junio	2023-06-29T00:00:00	2024-11-06T16:00:00	8	Radiación solar	207
162945	7	Sololá	701	Sololá	2	El tablón	6	Junio	2023-06-29T00:00:00	2024-11-06T17:00:00	2	Temperatura media	16.3
162946	7	Sololá	701	Sololá	2	El tablón	6	Junio	2023-06-29T00:00:00	2024-11-06T17:00:00	4	Temperatura máxima	17.9
162947	7	Sololá	701	Sololá	2	El tablón	6	Junio	2023-06-29T00:00:00	2024-11-06T17:00:00	3	Temperatura mínima	16.3
162948	7	Sololá	701	Sololá	2	El tablón	6	Junio	2023-06-29T00:00:00	2024-11-06T17:00:00	5	Humedad	88
162949	7	Sololá	701	Sololá	2	El tablón	6	Junio	2023-06-29T00:00:00	2024-11-06T17:00:00	6	Velocidad del viento	3.2
162950	7	Sololá	701	Sololá	2	El tablón	6	Junio	2023-06-29T00:00:00	2024-11-06T17:00:00	7	Dirección del viento	3.22
162951	7	Sololá	701	Sololá	2	El tablón	6	Junio	2023-06-29T00:00:00	2024-11-06T17:00:00	1	Precipitación	0
162952	7	Sololá	701	Sololá	2	El tablón	6	Junio	2023-06-29T00:00:00	2024-11-06T17:00:00	8	Radiación solar	157
162953	7	Sololá	701	Sololá	2	El tablón	6	Junio	2023-06-29T00:00:00	2024-11-06T18:00:00	2	Temperatura media	15.6
162954	7	Sololá	701	Sololá	2	El tablón	6	Junio	2023-06-29T00:00:00	2024-11-06T18:00:00	4	Temperatura máxima	16.3
162955	7	Sololá	701	Sololá	2	El tablón	6	Junio	2023-06-29T00:00:00	2024-11-06T18:00:00	3	Temperatura mínima	15.6
162956	7	Sololá	701	Sololá	2	El tablón	6	Junio	2023-06-29T00:00:00	2024-11-06T18:00:00	5	Humedad	88
162957	7	Sololá	701	Sololá	2	El tablón	6	Junio	2023-06-29T00:00:00	2024-11-06T18:00:00	6	Velocidad del viento	1.6
162958	7	Sololá	701	Sololá	2	El tablón	6	Junio	2023-06-29T00:00:00	2024-11-06T18:00:00	7	Dirección del viento	1.61
162959	7	Sololá	701	Sololá	2	El tablón	6	Junio	2023-06-29T00:00:00	2024-11-06T18:00:00	1	Precipitación	1
162960	7	Sololá	701	Sololá	2	El tablón	6	Junio	2023-06-29T00:00:00	2024-11-06T18:00:00	8	Radiación solar	18
162961	7	Sololá	701	Sololá	2	El tablón	6	Junio	2023-06-29T00:00:00	2024-11-06T19:00:00	2	Temperatura media	15.3
162962	7	Sololá	701	Sololá	2	El tablón	6	Junio	2023-06-29T00:00:00	2024-11-06T19:00:00	4	Temperatura máxima	15.7
162963	7	Sololá	701	Sololá	2	El tablón	6	Junio	2023-06-29T00:00:00	2024-11-06T19:00:00	3	Temperatura mínima	15.2
162964	7	Sololá	701	Sololá	2	El tablón	6	Junio	2023-06-29T00:00:00	2024-11-06T19:00:00	5	Humedad	88
162965	7	Sololá	701	Sololá	2	El tablón	6	Junio	2023-06-29T00:00:00	2024-11-06T19:00:00	6	Velocidad del viento	3.2
162966	7	Sololá	701	Sololá	2	El tablón	6	Junio	2023-06-29T00:00:00	2024-11-06T19:00:00	7	Dirección del viento	3.22
162967	7	Sololá	701	Sololá	2	El tablón	6	Junio	2023-06-29T00:00:00	2024-11-06T19:00:00	1	Precipitación	0
162968	7	Sololá	701	Sololá	2	El tablón	6	Junio	2023-06-29T00:00:00	2024-11-06T19:00:00	8	Radiación solar	0
162969	7	Sololá	701	Sololá	2	El tablón	6	Junio	2023-06-29T00:00:00	2024-11-06T20:00:00	2	Temperatura media	14.8
162970	7	Sololá	701	Sololá	2	El tablón	6	Junio	2023-06-29T00:00:00	2024-11-06T20:00:00	4	Temperatura máxima	15.3
162971	7	Sololá	701	Sololá	2	El tablón	6	Junio	2023-06-29T00:00:00	2024-11-06T20:00:00	3	Temperatura mínima	14.6
162972	7	Sololá	701	Sololá	2	El tablón	6	Junio	2023-06-29T00:00:00	2024-11-06T20:00:00	5	Humedad	88
162973	7	Sololá	701	Sololá	2	El tablón	6	Junio	2023-06-29T00:00:00	2024-11-06T20:00:00	6	Velocidad del viento	1.6
162974	7	Sololá	701	Sololá	2	El tablón	6	Junio	2023-06-29T00:00:00	2024-11-06T20:00:00	7	Dirección del viento	1.61
162975	7	Sololá	701	Sololá	2	El tablón	6	Junio	2023-06-29T00:00:00	2024-11-06T20:00:00	1	Precipitación	0
162976	7	Sololá	701	Sololá	2	El tablón	6	Junio	2023-06-29T00:00:00	2024-11-06T20:00:00	8	Radiación solar	0
162977	7	Sololá	701	Sololá	2	El tablón	6	Junio	2023-06-29T00:00:00	2024-11-06T21:00:00	2	Temperatura media	14.6
162978	7	Sololá	701	Sololá	2	El tablón	6	Junio	2023-06-29T00:00:00	2024-11-06T21:00:00	4	Temperatura máxima	14.8
162979	7	Sololá	701	Sololá	2	El tablón	6	Junio	2023-06-29T00:00:00	2024-11-06T21:00:00	3	Temperatura mínima	14.5
162980	7	Sololá	701	Sololá	2	El tablón	6	Junio	2023-06-29T00:00:00	2024-11-06T21:00:00	5	Humedad	84
162981	7	Sololá	701	Sololá	2	El tablón	6	Junio	2023-06-29T00:00:00	2024-11-06T21:00:00	6	Velocidad del viento	4.8
162982	7	Sololá	701	Sololá	2	El tablón	6	Junio	2023-06-29T00:00:00	2024-11-06T21:00:00	7	Dirección del viento	4.83
162983	7	Sololá	701	Sololá	2	El tablón	6	Junio	2023-06-29T00:00:00	2024-11-06T21:00:00	1	Precipitación	0
162984	7	Sololá	701	Sololá	2	El tablón	6	Junio	2023-06-29T00:00:00	2024-11-06T21:00:00	8	Radiación solar	0
162985	7	Sololá	701	Sololá	2	El tablón	6	Junio	2023-06-29T00:00:00	2024-11-06T22:00:00	2	Temperatura media	14.6
162986	7	Sololá	701	Sololá	2	El tablón	6	Junio	2023-06-29T00:00:00	2024-11-06T22:00:00	4	Temperatura máxima	14.8
162987	7	Sololá	701	Sololá	2	El tablón	6	Junio	2023-06-29T00:00:00	2024-11-06T22:00:00	3	Temperatura mínima	14.6
162988	7	Sololá	701	Sololá	2	El tablón	6	Junio	2023-06-29T00:00:00	2024-11-06T22:00:00	5	Humedad	85
162989	7	Sololá	701	Sololá	2	El tablón	6	Junio	2023-06-29T00:00:00	2024-11-06T22:00:00	6	Velocidad del viento	3.2
162990	7	Sololá	701	Sololá	2	El tablón	6	Junio	2023-06-29T00:00:00	2024-11-06T22:00:00	7	Dirección del viento	3.22
162991	7	Sololá	701	Sololá	2	El tablón	6	Junio	2023-06-29T00:00:00	2024-11-06T22:00:00	1	Precipitación	0
162992	7	Sololá	701	Sololá	2	El tablón	6	Junio	2023-06-29T00:00:00	2024-11-06T22:00:00	8	Radiación solar	0
162993	7	Sololá	701	Sololá	2	El tablón	6	Junio	2023-06-29T00:00:00	2024-11-06T23:00:00	2	Temperatura media	14.2
162994	7	Sololá	701	Sololá	2	El tablón	6	Junio	2023-06-29T00:00:00	2024-11-06T23:00:00	4	Temperatura máxima	14.6
162995	7	Sololá	701	Sololá	2	El tablón	6	Junio	2023-06-29T00:00:00	2024-11-06T23:00:00	3	Temperatura mínima	14.1
162996	7	Sololá	701	Sololá	2	El tablón	6	Junio	2023-06-29T00:00:00	2024-11-06T23:00:00	5	Humedad	86
162997	7	Sololá	701	Sololá	2	El tablón	6	Junio	2023-06-29T00:00:00	2024-11-06T23:00:00	6	Velocidad del viento	6.4
162998	7	Sololá	701	Sololá	2	El tablón	6	Junio	2023-06-29T00:00:00	2024-11-06T23:00:00	7	Dirección del viento	6.44
162999	7	Sololá	701	Sololá	2	El tablón	6	Junio	2023-06-29T00:00:00	2024-11-06T23:00:00	1	Precipitación	0
163000	7	Sololá	701	Sololá	2	El tablón	6	Junio	2023-06-29T00:00:00	2024-11-06T23:00:00	8	Radiación solar	0
163001	7	Sololá	701	Sololá	2	El tablón	6	Junio	2023-06-30T00:00:00	2024-11-06T00:00:00	2	Temperatura media	13.9
163002	7	Sololá	701	Sololá	2	El tablón	6	Junio	2023-06-30T00:00:00	2024-11-06T00:00:00	4	Temperatura máxima	14.3
163003	7	Sololá	701	Sololá	2	El tablón	6	Junio	2023-06-30T00:00:00	2024-11-06T00:00:00	3	Temperatura mínima	13.9
163004	7	Sololá	701	Sololá	2	El tablón	6	Junio	2023-06-30T00:00:00	2024-11-06T00:00:00	5	Humedad	85
163005	7	Sololá	701	Sololá	2	El tablón	6	Junio	2023-06-30T00:00:00	2024-11-06T00:00:00	6	Velocidad del viento	3.2
163006	7	Sololá	701	Sololá	2	El tablón	6	Junio	2023-06-30T00:00:00	2024-11-06T00:00:00	7	Dirección del viento	3.22
163007	7	Sololá	701	Sololá	2	El tablón	6	Junio	2023-06-30T00:00:00	2024-11-06T00:00:00	1	Precipitación	0
163008	7	Sololá	701	Sololá	2	El tablón	6	Junio	2023-06-30T00:00:00	2024-11-06T00:00:00	8	Radiación solar	0
163009	7	Sololá	701	Sololá	2	El tablón	6	Junio	2023-06-30T00:00:00	2024-11-06T01:00:00	2	Temperatura media	13.4
163010	7	Sololá	701	Sololá	2	El tablón	6	Junio	2023-06-30T00:00:00	2024-11-06T01:00:00	4	Temperatura máxima	13.9
163011	7	Sololá	701	Sololá	2	El tablón	6	Junio	2023-06-30T00:00:00	2024-11-06T01:00:00	3	Temperatura mínima	13.4
163012	7	Sololá	701	Sololá	2	El tablón	6	Junio	2023-06-30T00:00:00	2024-11-06T01:00:00	5	Humedad	87
163013	7	Sololá	701	Sololá	2	El tablón	6	Junio	2023-06-30T00:00:00	2024-11-06T01:00:00	6	Velocidad del viento	3.2
163014	7	Sololá	701	Sololá	2	El tablón	6	Junio	2023-06-30T00:00:00	2024-11-06T01:00:00	7	Dirección del viento	3.22
163015	7	Sololá	701	Sololá	2	El tablón	6	Junio	2023-06-30T00:00:00	2024-11-06T01:00:00	1	Precipitación	0
163016	7	Sololá	701	Sololá	2	El tablón	6	Junio	2023-06-30T00:00:00	2024-11-06T01:00:00	8	Radiación solar	0
163017	7	Sololá	701	Sololá	2	El tablón	6	Junio	2023-06-30T00:00:00	2024-11-06T02:00:00	2	Temperatura media	13.3
163018	7	Sololá	701	Sololá	2	El tablón	6	Junio	2023-06-30T00:00:00	2024-11-06T02:00:00	4	Temperatura máxima	13.6
163019	7	Sololá	701	Sololá	2	El tablón	6	Junio	2023-06-30T00:00:00	2024-11-06T02:00:00	3	Temperatura mínima	13.3
163020	7	Sololá	701	Sololá	2	El tablón	6	Junio	2023-06-30T00:00:00	2024-11-06T02:00:00	5	Humedad	87
163021	7	Sololá	701	Sololá	2	El tablón	6	Junio	2023-06-30T00:00:00	2024-11-06T02:00:00	6	Velocidad del viento	4.8
163022	7	Sololá	701	Sololá	2	El tablón	6	Junio	2023-06-30T00:00:00	2024-11-06T02:00:00	7	Dirección del viento	4.83
163023	7	Sololá	701	Sololá	2	El tablón	6	Junio	2023-06-30T00:00:00	2024-11-06T02:00:00	1	Precipitación	0
163024	7	Sololá	701	Sololá	2	El tablón	6	Junio	2023-06-30T00:00:00	2024-11-06T02:00:00	8	Radiación solar	0
163025	7	Sololá	701	Sololá	2	El tablón	6	Junio	2023-06-30T00:00:00	2024-11-06T03:00:00	2	Temperatura media	13
163026	7	Sololá	701	Sololá	2	El tablón	6	Junio	2023-06-30T00:00:00	2024-11-06T03:00:00	4	Temperatura máxima	13.3
163027	7	Sololá	701	Sololá	2	El tablón	6	Junio	2023-06-30T00:00:00	2024-11-06T03:00:00	3	Temperatura mínima	13
163028	7	Sololá	701	Sololá	2	El tablón	6	Junio	2023-06-30T00:00:00	2024-11-06T03:00:00	5	Humedad	87
163029	7	Sololá	701	Sololá	2	El tablón	6	Junio	2023-06-30T00:00:00	2024-11-06T03:00:00	6	Velocidad del viento	3.2
163030	7	Sololá	701	Sololá	2	El tablón	6	Junio	2023-06-30T00:00:00	2024-11-06T03:00:00	7	Dirección del viento	3.22
163031	7	Sololá	701	Sololá	2	El tablón	6	Junio	2023-06-30T00:00:00	2024-11-06T03:00:00	1	Precipitación	0
163032	7	Sololá	701	Sololá	2	El tablón	6	Junio	2023-06-30T00:00:00	2024-11-06T03:00:00	8	Radiación solar	0
163033	7	Sololá	701	Sololá	2	El tablón	6	Junio	2023-06-30T00:00:00	2024-11-06T04:00:00	2	Temperatura media	13.4
163034	7	Sololá	701	Sololá	2	El tablón	6	Junio	2023-06-30T00:00:00	2024-11-06T04:00:00	4	Temperatura máxima	13.5
163035	7	Sololá	701	Sololá	2	El tablón	6	Junio	2023-06-30T00:00:00	2024-11-06T04:00:00	3	Temperatura mínima	12.8
163036	7	Sololá	701	Sololá	2	El tablón	6	Junio	2023-06-30T00:00:00	2024-11-06T04:00:00	5	Humedad	87
163037	7	Sololá	701	Sololá	2	El tablón	6	Junio	2023-06-30T00:00:00	2024-11-06T04:00:00	6	Velocidad del viento	6.4
163038	7	Sololá	701	Sololá	2	El tablón	6	Junio	2023-06-30T00:00:00	2024-11-06T04:00:00	7	Dirección del viento	6.44
163039	7	Sololá	701	Sololá	2	El tablón	6	Junio	2023-06-30T00:00:00	2024-11-06T04:00:00	1	Precipitación	0
163040	7	Sololá	701	Sololá	2	El tablón	6	Junio	2023-06-30T00:00:00	2024-11-06T04:00:00	8	Radiación solar	0
163041	7	Sololá	701	Sololá	2	El tablón	6	Junio	2023-06-30T00:00:00	2024-11-06T05:00:00	2	Temperatura media	13.5
163042	7	Sololá	701	Sololá	2	El tablón	6	Junio	2023-06-30T00:00:00	2024-11-06T05:00:00	4	Temperatura máxima	13.6
163043	7	Sololá	701	Sololá	2	El tablón	6	Junio	2023-06-30T00:00:00	2024-11-06T05:00:00	3	Temperatura mínima	13.4
163044	7	Sololá	701	Sololá	2	El tablón	6	Junio	2023-06-30T00:00:00	2024-11-06T05:00:00	5	Humedad	87
163045	7	Sololá	701	Sololá	2	El tablón	6	Junio	2023-06-30T00:00:00	2024-11-06T05:00:00	6	Velocidad del viento	8
163046	7	Sololá	701	Sololá	2	El tablón	6	Junio	2023-06-30T00:00:00	2024-11-06T05:00:00	7	Dirección del viento	8.05
163047	7	Sololá	701	Sololá	2	El tablón	6	Junio	2023-06-30T00:00:00	2024-11-06T05:00:00	1	Precipitación	0
163048	7	Sololá	701	Sololá	2	El tablón	6	Junio	2023-06-30T00:00:00	2024-11-06T05:00:00	8	Radiación solar	0
163049	7	Sololá	701	Sololá	2	El tablón	6	Junio	2023-06-30T00:00:00	2024-11-06T06:00:00	2	Temperatura media	13.5
163050	7	Sololá	701	Sololá	2	El tablón	6	Junio	2023-06-30T00:00:00	2024-11-06T06:00:00	4	Temperatura máxima	13.5
163051	7	Sololá	701	Sololá	2	El tablón	6	Junio	2023-06-30T00:00:00	2024-11-06T06:00:00	3	Temperatura mínima	13.1
163052	7	Sololá	701	Sololá	2	El tablón	6	Junio	2023-06-30T00:00:00	2024-11-06T06:00:00	5	Humedad	87
163053	7	Sololá	701	Sololá	2	El tablón	6	Junio	2023-06-30T00:00:00	2024-11-06T06:00:00	6	Velocidad del viento	6.4
163054	7	Sololá	701	Sololá	2	El tablón	6	Junio	2023-06-30T00:00:00	2024-11-06T06:00:00	7	Dirección del viento	6.44
163055	7	Sololá	701	Sololá	2	El tablón	6	Junio	2023-06-30T00:00:00	2024-11-06T06:00:00	1	Precipitación	0
163056	7	Sololá	701	Sololá	2	El tablón	6	Junio	2023-06-30T00:00:00	2024-11-06T06:00:00	8	Radiación solar	2
163057	7	Sololá	701	Sololá	2	El tablón	6	Junio	2023-06-30T00:00:00	2024-11-06T07:00:00	2	Temperatura media	15.9
163058	7	Sololá	701	Sololá	2	El tablón	6	Junio	2023-06-30T00:00:00	2024-11-06T07:00:00	4	Temperatura máxima	15.9
163059	7	Sololá	701	Sololá	2	El tablón	6	Junio	2023-06-30T00:00:00	2024-11-06T07:00:00	3	Temperatura mínima	13.5
163060	7	Sololá	701	Sololá	2	El tablón	6	Junio	2023-06-30T00:00:00	2024-11-06T07:00:00	5	Humedad	78
163061	7	Sololá	701	Sololá	2	El tablón	6	Junio	2023-06-30T00:00:00	2024-11-06T07:00:00	6	Velocidad del viento	6.4
163062	7	Sololá	701	Sololá	2	El tablón	6	Junio	2023-06-30T00:00:00	2024-11-06T07:00:00	7	Dirección del viento	6.44
163063	7	Sololá	701	Sololá	2	El tablón	6	Junio	2023-06-30T00:00:00	2024-11-06T07:00:00	1	Precipitación	0
163064	7	Sololá	701	Sololá	2	El tablón	6	Junio	2023-06-30T00:00:00	2024-11-06T07:00:00	8	Radiación solar	149
163065	7	Sololá	701	Sololá	2	El tablón	6	Junio	2023-06-30T00:00:00	2024-11-06T08:00:00	2	Temperatura media	17.2
163066	7	Sololá	701	Sololá	2	El tablón	6	Junio	2023-06-30T00:00:00	2024-11-06T08:00:00	4	Temperatura máxima	17.2
163067	7	Sololá	701	Sololá	2	El tablón	6	Junio	2023-06-30T00:00:00	2024-11-06T08:00:00	3	Temperatura mínima	15.8
163068	7	Sololá	701	Sololá	2	El tablón	6	Junio	2023-06-30T00:00:00	2024-11-06T08:00:00	5	Humedad	76
163069	7	Sololá	701	Sololá	2	El tablón	6	Junio	2023-06-30T00:00:00	2024-11-06T08:00:00	6	Velocidad del viento	4.8
163070	7	Sololá	701	Sololá	2	El tablón	6	Junio	2023-06-30T00:00:00	2024-11-06T08:00:00	7	Dirección del viento	4.83
163071	7	Sololá	701	Sololá	2	El tablón	6	Junio	2023-06-30T00:00:00	2024-11-06T08:00:00	1	Precipitación	0
163072	7	Sololá	701	Sololá	2	El tablón	6	Junio	2023-06-30T00:00:00	2024-11-06T08:00:00	8	Radiación solar	317
163073	7	Sololá	701	Sololá	2	El tablón	6	Junio	2023-06-30T00:00:00	2024-11-06T09:00:00	2	Temperatura media	18.9
163074	7	Sololá	701	Sololá	2	El tablón	6	Junio	2023-06-30T00:00:00	2024-11-06T09:00:00	4	Temperatura máxima	19.2
163075	7	Sololá	701	Sololá	2	El tablón	6	Junio	2023-06-30T00:00:00	2024-11-06T09:00:00	3	Temperatura mínima	17.2
163076	7	Sololá	701	Sololá	2	El tablón	6	Junio	2023-06-30T00:00:00	2024-11-06T09:00:00	5	Humedad	70
163077	7	Sololá	701	Sololá	2	El tablón	6	Junio	2023-06-30T00:00:00	2024-11-06T09:00:00	6	Velocidad del viento	4.8
163078	7	Sololá	701	Sololá	2	El tablón	6	Junio	2023-06-30T00:00:00	2024-11-06T09:00:00	7	Dirección del viento	4.83
163079	7	Sololá	701	Sololá	2	El tablón	6	Junio	2023-06-30T00:00:00	2024-11-06T09:00:00	1	Precipitación	0
163080	7	Sololá	701	Sololá	2	El tablón	6	Junio	2023-06-30T00:00:00	2024-11-06T09:00:00	8	Radiación solar	534
163081	7	Sololá	701	Sololá	2	El tablón	6	Junio	2023-06-30T00:00:00	2024-11-06T10:00:00	2	Temperatura media	19.1
163082	7	Sololá	701	Sololá	2	El tablón	6	Junio	2023-06-30T00:00:00	2024-11-06T10:00:00	4	Temperatura máxima	19.3
163083	7	Sololá	701	Sololá	2	El tablón	6	Junio	2023-06-30T00:00:00	2024-11-06T10:00:00	3	Temperatura mínima	18.6
163084	7	Sololá	701	Sololá	2	El tablón	6	Junio	2023-06-30T00:00:00	2024-11-06T10:00:00	5	Humedad	69
163085	7	Sololá	701	Sololá	2	El tablón	6	Junio	2023-06-30T00:00:00	2024-11-06T10:00:00	6	Velocidad del viento	9.7
163086	7	Sololá	701	Sololá	2	El tablón	6	Junio	2023-06-30T00:00:00	2024-11-06T10:00:00	7	Dirección del viento	9.66
163087	7	Sololá	701	Sololá	2	El tablón	6	Junio	2023-06-30T00:00:00	2024-11-06T10:00:00	1	Precipitación	0
163088	7	Sololá	701	Sololá	2	El tablón	6	Junio	2023-06-30T00:00:00	2024-11-06T10:00:00	8	Radiación solar	713
163089	7	Sololá	701	Sololá	2	El tablón	6	Junio	2023-06-30T00:00:00	2024-11-06T11:00:00	2	Temperatura media	19.6
163090	7	Sololá	701	Sololá	2	El tablón	6	Junio	2023-06-30T00:00:00	2024-11-06T11:00:00	4	Temperatura máxima	19.9
163091	7	Sololá	701	Sololá	2	El tablón	6	Junio	2023-06-30T00:00:00	2024-11-06T11:00:00	3	Temperatura mínima	19.1
163092	7	Sololá	701	Sololá	2	El tablón	6	Junio	2023-06-30T00:00:00	2024-11-06T11:00:00	5	Humedad	67
163093	7	Sololá	701	Sololá	2	El tablón	6	Junio	2023-06-30T00:00:00	2024-11-06T11:00:00	6	Velocidad del viento	9.7
163094	7	Sololá	701	Sololá	2	El tablón	6	Junio	2023-06-30T00:00:00	2024-11-06T11:00:00	7	Dirección del viento	9.66
163095	7	Sololá	701	Sololá	2	El tablón	6	Junio	2023-06-30T00:00:00	2024-11-06T11:00:00	1	Precipitación	0
163096	7	Sololá	701	Sololá	2	El tablón	6	Junio	2023-06-30T00:00:00	2024-11-06T11:00:00	8	Radiación solar	886
163097	7	Sololá	701	Sololá	2	El tablón	6	Junio	2023-06-30T00:00:00	2024-11-06T12:00:00	2	Temperatura media	20.2
163098	7	Sololá	701	Sololá	2	El tablón	6	Junio	2023-06-30T00:00:00	2024-11-06T12:00:00	4	Temperatura máxima	20.2
163099	7	Sololá	701	Sololá	2	El tablón	6	Junio	2023-06-30T00:00:00	2024-11-06T12:00:00	3	Temperatura mínima	19.3
163100	7	Sololá	701	Sololá	2	El tablón	6	Junio	2023-06-30T00:00:00	2024-11-06T12:00:00	5	Humedad	63
163101	7	Sololá	701	Sololá	2	El tablón	6	Junio	2023-06-30T00:00:00	2024-11-06T12:00:00	6	Velocidad del viento	9.7
163102	7	Sololá	701	Sololá	2	El tablón	6	Junio	2023-06-30T00:00:00	2024-11-06T12:00:00	7	Dirección del viento	9.66
163103	7	Sololá	701	Sololá	2	El tablón	6	Junio	2023-06-30T00:00:00	2024-11-06T12:00:00	1	Precipitación	0
163104	7	Sololá	701	Sololá	2	El tablón	6	Junio	2023-06-30T00:00:00	2024-11-06T12:00:00	8	Radiación solar	952
163105	7	Sololá	701	Sololá	2	El tablón	6	Junio	2023-06-30T00:00:00	2024-11-06T13:00:00	2	Temperatura media	21
163106	7	Sololá	701	Sololá	2	El tablón	6	Junio	2023-06-30T00:00:00	2024-11-06T13:00:00	4	Temperatura máxima	21.1
163107	7	Sololá	701	Sololá	2	El tablón	6	Junio	2023-06-30T00:00:00	2024-11-06T13:00:00	3	Temperatura mínima	20.3
163108	7	Sololá	701	Sololá	2	El tablón	6	Junio	2023-06-30T00:00:00	2024-11-06T13:00:00	5	Humedad	60
163109	7	Sololá	701	Sololá	2	El tablón	6	Junio	2023-06-30T00:00:00	2024-11-06T13:00:00	6	Velocidad del viento	9.7
163110	7	Sololá	701	Sololá	2	El tablón	6	Junio	2023-06-30T00:00:00	2024-11-06T13:00:00	7	Dirección del viento	9.66
163111	7	Sololá	701	Sololá	2	El tablón	6	Junio	2023-06-30T00:00:00	2024-11-06T13:00:00	1	Precipitación	0
163112	7	Sololá	701	Sololá	2	El tablón	6	Junio	2023-06-30T00:00:00	2024-11-06T13:00:00	8	Radiación solar	980
163113	7	Sololá	701	Sololá	2	El tablón	6	Junio	2023-06-30T00:00:00	2024-11-06T14:00:00	2	Temperatura media	19.8
163114	7	Sololá	701	Sololá	2	El tablón	6	Junio	2023-06-30T00:00:00	2024-11-06T14:00:00	4	Temperatura máxima	21.7
163115	7	Sololá	701	Sololá	2	El tablón	6	Junio	2023-06-30T00:00:00	2024-11-06T14:00:00	3	Temperatura mínima	19.8
163116	7	Sololá	701	Sololá	2	El tablón	6	Junio	2023-06-30T00:00:00	2024-11-06T14:00:00	5	Humedad	65
163117	7	Sololá	701	Sololá	2	El tablón	6	Junio	2023-06-30T00:00:00	2024-11-06T14:00:00	6	Velocidad del viento	8
163118	7	Sololá	701	Sololá	2	El tablón	6	Junio	2023-06-30T00:00:00	2024-11-06T14:00:00	7	Dirección del viento	8.05
163119	7	Sololá	701	Sololá	2	El tablón	6	Junio	2023-06-30T00:00:00	2024-11-06T14:00:00	1	Precipitación	0
163120	7	Sololá	701	Sololá	2	El tablón	6	Junio	2023-06-30T00:00:00	2024-11-06T14:00:00	8	Radiación solar	634
163121	7	Sololá	701	Sololá	2	El tablón	6	Junio	2023-06-30T00:00:00	2024-11-06T15:00:00	2	Temperatura media	19.7
163122	7	Sololá	701	Sololá	2	El tablón	6	Junio	2023-06-30T00:00:00	2024-11-06T15:00:00	4	Temperatura máxima	19.8
163123	7	Sololá	701	Sololá	2	El tablón	6	Junio	2023-06-30T00:00:00	2024-11-06T15:00:00	3	Temperatura mínima	18.9
163124	7	Sololá	701	Sololá	2	El tablón	6	Junio	2023-06-30T00:00:00	2024-11-06T15:00:00	5	Humedad	74
163125	7	Sololá	701	Sololá	2	El tablón	6	Junio	2023-06-30T00:00:00	2024-11-06T15:00:00	6	Velocidad del viento	3.2
163126	7	Sololá	701	Sololá	2	El tablón	6	Junio	2023-06-30T00:00:00	2024-11-06T15:00:00	7	Dirección del viento	3.22
163127	7	Sololá	701	Sololá	2	El tablón	6	Junio	2023-06-30T00:00:00	2024-11-06T15:00:00	1	Precipitación	0
163128	7	Sololá	701	Sololá	2	El tablón	6	Junio	2023-06-30T00:00:00	2024-11-06T15:00:00	8	Radiación solar	176
163129	7	Sololá	701	Sololá	2	El tablón	6	Junio	2023-06-30T00:00:00	2024-11-06T16:00:00	2	Temperatura media	19.6
163130	7	Sololá	701	Sololá	2	El tablón	6	Junio	2023-06-30T00:00:00	2024-11-06T16:00:00	4	Temperatura máxima	19.9
163131	7	Sololá	701	Sololá	2	El tablón	6	Junio	2023-06-30T00:00:00	2024-11-06T16:00:00	3	Temperatura mínima	18.8
163132	7	Sololá	701	Sololá	2	El tablón	6	Junio	2023-06-30T00:00:00	2024-11-06T16:00:00	5	Humedad	80
163133	7	Sololá	701	Sololá	2	El tablón	6	Junio	2023-06-30T00:00:00	2024-11-06T16:00:00	6	Velocidad del viento	6.4
163134	7	Sololá	701	Sololá	2	El tablón	6	Junio	2023-06-30T00:00:00	2024-11-06T16:00:00	7	Dirección del viento	6.44
163135	7	Sololá	701	Sololá	2	El tablón	6	Junio	2023-06-30T00:00:00	2024-11-06T16:00:00	1	Precipitación	0
163136	7	Sololá	701	Sololá	2	El tablón	6	Junio	2023-06-30T00:00:00	2024-11-06T16:00:00	8	Radiación solar	450
163137	7	Sololá	701	Sololá	2	El tablón	6	Junio	2023-06-30T00:00:00	2024-11-06T17:00:00	2	Temperatura media	16.7
163138	7	Sololá	701	Sololá	2	El tablón	6	Junio	2023-06-30T00:00:00	2024-11-06T17:00:00	4	Temperatura máxima	19.6
163139	7	Sololá	701	Sololá	2	El tablón	6	Junio	2023-06-30T00:00:00	2024-11-06T17:00:00	3	Temperatura mínima	16.7
163140	7	Sololá	701	Sololá	2	El tablón	6	Junio	2023-06-30T00:00:00	2024-11-06T17:00:00	5	Humedad	87
163141	7	Sololá	701	Sololá	2	El tablón	6	Junio	2023-06-30T00:00:00	2024-11-06T17:00:00	6	Velocidad del viento	4.8
163142	7	Sololá	701	Sololá	2	El tablón	6	Junio	2023-06-30T00:00:00	2024-11-06T17:00:00	7	Dirección del viento	4.83
163143	7	Sololá	701	Sololá	2	El tablón	6	Junio	2023-06-30T00:00:00	2024-11-06T17:00:00	1	Precipitación	0
163144	7	Sololá	701	Sololá	2	El tablón	6	Junio	2023-06-30T00:00:00	2024-11-06T17:00:00	8	Radiación solar	106
163145	7	Sololá	701	Sololá	2	El tablón	6	Junio	2023-06-30T00:00:00	2024-11-06T18:00:00	2	Temperatura media	17
163146	7	Sololá	701	Sololá	2	El tablón	6	Junio	2023-06-30T00:00:00	2024-11-06T18:00:00	4	Temperatura máxima	17.4
163147	7	Sololá	701	Sololá	2	El tablón	6	Junio	2023-06-30T00:00:00	2024-11-06T18:00:00	3	Temperatura mínima	16.7
163148	7	Sololá	701	Sololá	2	El tablón	6	Junio	2023-06-30T00:00:00	2024-11-06T18:00:00	5	Humedad	73
163149	7	Sololá	701	Sololá	2	El tablón	6	Junio	2023-06-30T00:00:00	2024-11-06T18:00:00	6	Velocidad del viento	4.8
163150	7	Sololá	701	Sololá	2	El tablón	6	Junio	2023-06-30T00:00:00	2024-11-06T18:00:00	7	Dirección del viento	4.83
163151	7	Sololá	701	Sololá	2	El tablón	6	Junio	2023-06-30T00:00:00	2024-11-06T18:00:00	1	Precipitación	0
163152	7	Sololá	701	Sololá	2	El tablón	6	Junio	2023-06-30T00:00:00	2024-11-06T18:00:00	8	Radiación solar	69
163153	7	Sololá	701	Sololá	2	El tablón	6	Junio	2023-06-30T00:00:00	2024-11-06T19:00:00	2	Temperatura media	15.8
163154	7	Sololá	701	Sololá	2	El tablón	6	Junio	2023-06-30T00:00:00	2024-11-06T19:00:00	4	Temperatura máxima	17
163155	7	Sololá	701	Sololá	2	El tablón	6	Junio	2023-06-30T00:00:00	2024-11-06T19:00:00	3	Temperatura mínima	15.8
163156	7	Sololá	701	Sololá	2	El tablón	6	Junio	2023-06-30T00:00:00	2024-11-06T19:00:00	5	Humedad	83
163157	7	Sololá	701	Sololá	2	El tablón	6	Junio	2023-06-30T00:00:00	2024-11-06T19:00:00	6	Velocidad del viento	4.8
163158	7	Sololá	701	Sololá	2	El tablón	6	Junio	2023-06-30T00:00:00	2024-11-06T19:00:00	7	Dirección del viento	4.83
163159	7	Sololá	701	Sololá	2	El tablón	6	Junio	2023-06-30T00:00:00	2024-11-06T19:00:00	1	Precipitación	0
163160	7	Sololá	701	Sololá	2	El tablón	6	Junio	2023-06-30T00:00:00	2024-11-06T19:00:00	8	Radiación solar	0
163161	7	Sololá	701	Sololá	2	El tablón	6	Junio	2023-06-30T00:00:00	2024-11-06T20:00:00	2	Temperatura media	15.1
163162	7	Sololá	701	Sololá	2	El tablón	6	Junio	2023-06-30T00:00:00	2024-11-06T20:00:00	4	Temperatura máxima	15.8
163163	7	Sololá	701	Sololá	2	El tablón	6	Junio	2023-06-30T00:00:00	2024-11-06T20:00:00	3	Temperatura mínima	15.1
163164	7	Sololá	701	Sololá	2	El tablón	6	Junio	2023-06-30T00:00:00	2024-11-06T20:00:00	5	Humedad	85
163165	7	Sololá	701	Sololá	2	El tablón	6	Junio	2023-06-30T00:00:00	2024-11-06T20:00:00	6	Velocidad del viento	6.4
163166	7	Sololá	701	Sololá	2	El tablón	6	Junio	2023-06-30T00:00:00	2024-11-06T20:00:00	7	Dirección del viento	6.44
163167	7	Sololá	701	Sololá	2	El tablón	6	Junio	2023-06-30T00:00:00	2024-11-06T20:00:00	1	Precipitación	0
163168	7	Sololá	701	Sololá	2	El tablón	6	Junio	2023-06-30T00:00:00	2024-11-06T20:00:00	8	Radiación solar	0
163169	7	Sololá	701	Sololá	2	El tablón	6	Junio	2023-06-30T00:00:00	2024-11-06T21:00:00	2	Temperatura media	14.5
163170	7	Sololá	701	Sololá	2	El tablón	6	Junio	2023-06-30T00:00:00	2024-11-06T21:00:00	4	Temperatura máxima	15.1
163171	7	Sololá	701	Sololá	2	El tablón	6	Junio	2023-06-30T00:00:00	2024-11-06T21:00:00	3	Temperatura mínima	14.5
163172	7	Sololá	701	Sololá	2	El tablón	6	Junio	2023-06-30T00:00:00	2024-11-06T21:00:00	5	Humedad	86
163173	7	Sololá	701	Sololá	2	El tablón	6	Junio	2023-06-30T00:00:00	2024-11-06T21:00:00	6	Velocidad del viento	4.8
163174	7	Sololá	701	Sololá	2	El tablón	6	Junio	2023-06-30T00:00:00	2024-11-06T21:00:00	7	Dirección del viento	4.83
163175	7	Sololá	701	Sololá	2	El tablón	6	Junio	2023-06-30T00:00:00	2024-11-06T21:00:00	1	Precipitación	0
163176	7	Sololá	701	Sololá	2	El tablón	6	Junio	2023-06-30T00:00:00	2024-11-06T21:00:00	8	Radiación solar	0
163177	7	Sololá	701	Sololá	2	El tablón	6	Junio	2023-06-30T00:00:00	2024-11-06T22:00:00	2	Temperatura media	14.1
163178	7	Sololá	701	Sololá	2	El tablón	6	Junio	2023-06-30T00:00:00	2024-11-06T22:00:00	4	Temperatura máxima	14.5
163179	7	Sololá	701	Sololá	2	El tablón	6	Junio	2023-06-30T00:00:00	2024-11-06T22:00:00	3	Temperatura mínima	14.1
163180	7	Sololá	701	Sololá	2	El tablón	6	Junio	2023-06-30T00:00:00	2024-11-06T22:00:00	5	Humedad	86
163181	7	Sololá	701	Sololá	2	El tablón	6	Junio	2023-06-30T00:00:00	2024-11-06T22:00:00	6	Velocidad del viento	4.8
163182	7	Sololá	701	Sololá	2	El tablón	6	Junio	2023-06-30T00:00:00	2024-11-06T22:00:00	7	Dirección del viento	4.83
163183	7	Sololá	701	Sololá	2	El tablón	6	Junio	2023-06-30T00:00:00	2024-11-06T22:00:00	1	Precipitación	0
163184	7	Sololá	701	Sololá	2	El tablón	6	Junio	2023-06-30T00:00:00	2024-11-06T22:00:00	8	Radiación solar	0
163185	7	Sololá	701	Sololá	2	El tablón	6	Junio	2023-06-30T00:00:00	2024-11-06T23:00:00	2	Temperatura media	14.3
163186	7	Sololá	701	Sololá	2	El tablón	6	Junio	2023-06-30T00:00:00	2024-11-06T23:00:00	4	Temperatura máxima	14.3
163187	7	Sololá	701	Sololá	2	El tablón	6	Junio	2023-06-30T00:00:00	2024-11-06T23:00:00	3	Temperatura mínima	14.1
163188	7	Sololá	701	Sololá	2	El tablón	6	Junio	2023-06-30T00:00:00	2024-11-06T23:00:00	5	Humedad	86
163189	7	Sololá	701	Sololá	2	El tablón	6	Junio	2023-06-30T00:00:00	2024-11-06T23:00:00	6	Velocidad del viento	6.4
163190	7	Sololá	701	Sololá	2	El tablón	6	Junio	2023-06-30T00:00:00	2024-11-06T23:00:00	7	Dirección del viento	6.44
163191	7	Sololá	701	Sololá	2	El tablón	6	Junio	2023-06-30T00:00:00	2024-11-06T23:00:00	1	Precipitación	0
163192	7	Sololá	701	Sololá	2	El tablón	6	Junio	2023-06-30T00:00:00	2024-11-06T23:00:00	8	Radiación solar	0
163193	7	Sololá	701	Sololá	2	El tablón	7	Julio	2023-01-07T00:00:00	2024-11-06T00:00:00	2	Temperatura media	14.1
163194	7	Sololá	701	Sololá	2	El tablón	7	Julio	2023-01-07T00:00:00	2024-11-06T00:00:00	4	Temperatura máxima	14.3
163195	7	Sololá	701	Sololá	2	El tablón	7	Julio	2023-01-07T00:00:00	2024-11-06T00:00:00	3	Temperatura mínima	14.1
163196	7	Sololá	701	Sololá	2	El tablón	7	Julio	2023-01-07T00:00:00	2024-11-06T00:00:00	5	Humedad	86
163197	7	Sololá	701	Sololá	2	El tablón	7	Julio	2023-01-07T00:00:00	2024-11-06T00:00:00	6	Velocidad del viento	8
163198	7	Sololá	701	Sololá	2	El tablón	7	Julio	2023-01-07T00:00:00	2024-11-06T00:00:00	7	Dirección del viento	8.05
163199	7	Sololá	701	Sololá	2	El tablón	7	Julio	2023-01-07T00:00:00	2024-11-06T00:00:00	1	Precipitación	0
163200	7	Sololá	701	Sololá	2	El tablón	7	Julio	2023-01-07T00:00:00	2024-11-06T00:00:00	8	Radiación solar	0
163201	7	Sololá	701	Sololá	2	El tablón	7	Julio	2023-01-07T00:00:00	2024-11-06T01:00:00	2	Temperatura media	13.7
163202	7	Sololá	701	Sololá	2	El tablón	7	Julio	2023-01-07T00:00:00	2024-11-06T01:00:00	4	Temperatura máxima	14.1
163203	7	Sololá	701	Sololá	2	El tablón	7	Julio	2023-01-07T00:00:00	2024-11-06T01:00:00	3	Temperatura mínima	13.6
163204	7	Sololá	701	Sololá	2	El tablón	7	Julio	2023-01-07T00:00:00	2024-11-06T01:00:00	5	Humedad	87
163205	7	Sololá	701	Sololá	2	El tablón	7	Julio	2023-01-07T00:00:00	2024-11-06T01:00:00	6	Velocidad del viento	6.4
163206	7	Sololá	701	Sololá	2	El tablón	7	Julio	2023-01-07T00:00:00	2024-11-06T01:00:00	7	Dirección del viento	6.44
163207	7	Sololá	701	Sololá	2	El tablón	7	Julio	2023-01-07T00:00:00	2024-11-06T01:00:00	1	Precipitación	0
163208	7	Sololá	701	Sololá	2	El tablón	7	Julio	2023-01-07T00:00:00	2024-11-06T01:00:00	8	Radiación solar	0
163209	7	Sololá	701	Sololá	2	El tablón	7	Julio	2023-01-07T00:00:00	2024-11-06T02:00:00	2	Temperatura media	13.7
163210	7	Sololá	701	Sololá	2	El tablón	7	Julio	2023-01-07T00:00:00	2024-11-06T02:00:00	4	Temperatura máxima	13.9
163211	7	Sololá	701	Sololá	2	El tablón	7	Julio	2023-01-07T00:00:00	2024-11-06T02:00:00	3	Temperatura mínima	13.6
163212	7	Sololá	701	Sololá	2	El tablón	7	Julio	2023-01-07T00:00:00	2024-11-06T02:00:00	5	Humedad	86
163213	7	Sololá	701	Sololá	2	El tablón	7	Julio	2023-01-07T00:00:00	2024-11-06T02:00:00	6	Velocidad del viento	9.7
163214	7	Sololá	701	Sololá	2	El tablón	7	Julio	2023-01-07T00:00:00	2024-11-06T02:00:00	7	Dirección del viento	9.66
163215	7	Sololá	701	Sololá	2	El tablón	7	Julio	2023-01-07T00:00:00	2024-11-06T02:00:00	1	Precipitación	0
163216	7	Sololá	701	Sololá	2	El tablón	7	Julio	2023-01-07T00:00:00	2024-11-06T02:00:00	8	Radiación solar	0
163217	7	Sololá	701	Sololá	2	El tablón	7	Julio	2023-01-07T00:00:00	2024-11-06T03:00:00	2	Temperatura media	13.1
163218	7	Sololá	701	Sololá	2	El tablón	7	Julio	2023-01-07T00:00:00	2024-11-06T03:00:00	4	Temperatura máxima	13.8
163219	7	Sololá	701	Sololá	2	El tablón	7	Julio	2023-01-07T00:00:00	2024-11-06T03:00:00	3	Temperatura mínima	13.1
163220	7	Sololá	701	Sololá	2	El tablón	7	Julio	2023-01-07T00:00:00	2024-11-06T03:00:00	5	Humedad	86
163221	7	Sololá	701	Sololá	2	El tablón	7	Julio	2023-01-07T00:00:00	2024-11-06T03:00:00	6	Velocidad del viento	6.4
163222	7	Sololá	701	Sololá	2	El tablón	7	Julio	2023-01-07T00:00:00	2024-11-06T03:00:00	7	Dirección del viento	6.44
163223	7	Sololá	701	Sololá	2	El tablón	7	Julio	2023-01-07T00:00:00	2024-11-06T03:00:00	1	Precipitación	0
163224	7	Sololá	701	Sololá	2	El tablón	7	Julio	2023-01-07T00:00:00	2024-11-06T03:00:00	8	Radiación solar	0
163225	7	Sololá	701	Sololá	2	El tablón	7	Julio	2023-01-07T00:00:00	2024-11-06T04:00:00	2	Temperatura media	11.8
163226	7	Sololá	701	Sololá	2	El tablón	7	Julio	2023-01-07T00:00:00	2024-11-06T04:00:00	4	Temperatura máxima	13.1
163227	7	Sololá	701	Sololá	2	El tablón	7	Julio	2023-01-07T00:00:00	2024-11-06T04:00:00	3	Temperatura mínima	11.8
163228	7	Sololá	701	Sololá	2	El tablón	7	Julio	2023-01-07T00:00:00	2024-11-06T04:00:00	5	Humedad	87
163229	7	Sololá	701	Sololá	2	El tablón	7	Julio	2023-01-07T00:00:00	2024-11-06T04:00:00	6	Velocidad del viento	3.2
163230	7	Sololá	701	Sololá	2	El tablón	7	Julio	2023-01-07T00:00:00	2024-11-06T04:00:00	7	Dirección del viento	3.22
163231	7	Sololá	701	Sololá	2	El tablón	7	Julio	2023-01-07T00:00:00	2024-11-06T04:00:00	1	Precipitación	0
163232	7	Sololá	701	Sololá	2	El tablón	7	Julio	2023-01-07T00:00:00	2024-11-06T04:00:00	8	Radiación solar	0
163233	7	Sololá	701	Sololá	2	El tablón	7	Julio	2023-01-07T00:00:00	2024-11-06T05:00:00	2	Temperatura media	12.1
163234	7	Sololá	701	Sololá	2	El tablón	7	Julio	2023-01-07T00:00:00	2024-11-06T05:00:00	4	Temperatura máxima	12.4
163235	7	Sololá	701	Sololá	2	El tablón	7	Julio	2023-01-07T00:00:00	2024-11-06T05:00:00	3	Temperatura mínima	11.6
163236	7	Sololá	701	Sololá	2	El tablón	7	Julio	2023-01-07T00:00:00	2024-11-06T05:00:00	5	Humedad	84
163237	7	Sololá	701	Sololá	2	El tablón	7	Julio	2023-01-07T00:00:00	2024-11-06T05:00:00	6	Velocidad del viento	3.2
163238	7	Sololá	701	Sololá	2	El tablón	7	Julio	2023-01-07T00:00:00	2024-11-06T05:00:00	7	Dirección del viento	3.22
163239	7	Sololá	701	Sololá	2	El tablón	7	Julio	2023-01-07T00:00:00	2024-11-06T05:00:00	1	Precipitación	0
163240	7	Sololá	701	Sololá	2	El tablón	7	Julio	2023-01-07T00:00:00	2024-11-06T05:00:00	8	Radiación solar	0
163241	7	Sololá	701	Sololá	2	El tablón	7	Julio	2023-01-07T00:00:00	2024-11-06T06:00:00	2	Temperatura media	13
163242	7	Sololá	701	Sololá	2	El tablón	7	Julio	2023-01-07T00:00:00	2024-11-06T06:00:00	4	Temperatura máxima	13
163243	7	Sololá	701	Sololá	2	El tablón	7	Julio	2023-01-07T00:00:00	2024-11-06T06:00:00	3	Temperatura mínima	11.2
163244	7	Sololá	701	Sololá	2	El tablón	7	Julio	2023-01-07T00:00:00	2024-11-06T06:00:00	5	Humedad	84
163245	7	Sololá	701	Sololá	2	El tablón	7	Julio	2023-01-07T00:00:00	2024-11-06T06:00:00	6	Velocidad del viento	1.6
163246	7	Sololá	701	Sololá	2	El tablón	7	Julio	2023-01-07T00:00:00	2024-11-06T06:00:00	7	Dirección del viento	1.61
163247	7	Sololá	701	Sololá	2	El tablón	7	Julio	2023-01-07T00:00:00	2024-11-06T06:00:00	1	Precipitación	0
163248	7	Sololá	701	Sololá	2	El tablón	7	Julio	2023-01-07T00:00:00	2024-11-06T06:00:00	8	Radiación solar	3
163249	7	Sololá	701	Sololá	2	El tablón	7	Julio	2023-01-07T00:00:00	2024-11-06T07:00:00	2	Temperatura media	14.6
163250	7	Sololá	701	Sololá	2	El tablón	7	Julio	2023-01-07T00:00:00	2024-11-06T07:00:00	4	Temperatura máxima	14.6
163251	7	Sololá	701	Sololá	2	El tablón	7	Julio	2023-01-07T00:00:00	2024-11-06T07:00:00	3	Temperatura mínima	12.1
163252	7	Sololá	701	Sololá	2	El tablón	7	Julio	2023-01-07T00:00:00	2024-11-06T07:00:00	5	Humedad	83
163253	7	Sololá	701	Sololá	2	El tablón	7	Julio	2023-01-07T00:00:00	2024-11-06T07:00:00	6	Velocidad del viento	1.6
163254	7	Sololá	701	Sololá	2	El tablón	7	Julio	2023-01-07T00:00:00	2024-11-06T07:00:00	7	Dirección del viento	1.61
163255	7	Sololá	701	Sololá	2	El tablón	7	Julio	2023-01-07T00:00:00	2024-11-06T07:00:00	1	Precipitación	0
163256	7	Sololá	701	Sololá	2	El tablón	7	Julio	2023-01-07T00:00:00	2024-11-06T07:00:00	8	Radiación solar	107
163257	7	Sololá	701	Sololá	2	El tablón	7	Julio	2023-01-07T00:00:00	2024-11-06T08:00:00	2	Temperatura media	17.1
163258	7	Sololá	701	Sololá	2	El tablón	7	Julio	2023-01-07T00:00:00	2024-11-06T08:00:00	4	Temperatura máxima	17.3
163259	7	Sololá	701	Sololá	2	El tablón	7	Julio	2023-01-07T00:00:00	2024-11-06T08:00:00	3	Temperatura mínima	14.6
163260	7	Sololá	701	Sololá	2	El tablón	7	Julio	2023-01-07T00:00:00	2024-11-06T08:00:00	5	Humedad	73
163261	7	Sololá	701	Sololá	2	El tablón	7	Julio	2023-01-07T00:00:00	2024-11-06T08:00:00	6	Velocidad del viento	4.8
163262	7	Sololá	701	Sololá	2	El tablón	7	Julio	2023-01-07T00:00:00	2024-11-06T08:00:00	7	Dirección del viento	4.83
163263	7	Sololá	701	Sololá	2	El tablón	7	Julio	2023-01-07T00:00:00	2024-11-06T08:00:00	1	Precipitación	0
163264	7	Sololá	701	Sololá	2	El tablón	7	Julio	2023-01-07T00:00:00	2024-11-06T08:00:00	8	Radiación solar	321
163265	7	Sololá	701	Sololá	2	El tablón	7	Julio	2023-01-07T00:00:00	2024-11-06T09:00:00	2	Temperatura media	17.6
163266	7	Sololá	701	Sololá	2	El tablón	7	Julio	2023-01-07T00:00:00	2024-11-06T09:00:00	4	Temperatura máxima	18
163267	7	Sololá	701	Sololá	2	El tablón	7	Julio	2023-01-07T00:00:00	2024-11-06T09:00:00	3	Temperatura mínima	16.7
163268	7	Sololá	701	Sololá	2	El tablón	7	Julio	2023-01-07T00:00:00	2024-11-06T09:00:00	5	Humedad	73
163269	7	Sololá	701	Sololá	2	El tablón	7	Julio	2023-01-07T00:00:00	2024-11-06T09:00:00	6	Velocidad del viento	4.8
163270	7	Sololá	701	Sololá	2	El tablón	7	Julio	2023-01-07T00:00:00	2024-11-06T09:00:00	7	Dirección del viento	4.83
163271	7	Sololá	701	Sololá	2	El tablón	7	Julio	2023-01-07T00:00:00	2024-11-06T09:00:00	1	Precipitación	0
163272	7	Sololá	701	Sololá	2	El tablón	7	Julio	2023-01-07T00:00:00	2024-11-06T09:00:00	8	Radiación solar	519
163273	7	Sololá	701	Sololá	2	El tablón	7	Julio	2023-01-07T00:00:00	2024-11-06T10:00:00	2	Temperatura media	19.1
163274	7	Sololá	701	Sololá	2	El tablón	7	Julio	2023-01-07T00:00:00	2024-11-06T10:00:00	4	Temperatura máxima	19.2
163275	7	Sololá	701	Sololá	2	El tablón	7	Julio	2023-01-07T00:00:00	2024-11-06T10:00:00	3	Temperatura mínima	17.6
163276	7	Sololá	701	Sololá	2	El tablón	7	Julio	2023-01-07T00:00:00	2024-11-06T10:00:00	5	Humedad	67
163277	7	Sololá	701	Sololá	2	El tablón	7	Julio	2023-01-07T00:00:00	2024-11-06T10:00:00	6	Velocidad del viento	6.4
163278	7	Sololá	701	Sololá	2	El tablón	7	Julio	2023-01-07T00:00:00	2024-11-06T10:00:00	7	Dirección del viento	6.44
163279	7	Sololá	701	Sololá	2	El tablón	7	Julio	2023-01-07T00:00:00	2024-11-06T10:00:00	1	Precipitación	0
163280	7	Sololá	701	Sololá	2	El tablón	7	Julio	2023-01-07T00:00:00	2024-11-06T10:00:00	8	Radiación solar	734
163281	7	Sololá	701	Sololá	2	El tablón	7	Julio	2023-01-07T00:00:00	2024-11-06T11:00:00	2	Temperatura media	20.2
163282	7	Sololá	701	Sololá	2	El tablón	7	Julio	2023-01-07T00:00:00	2024-11-06T11:00:00	4	Temperatura máxima	20.2
163283	7	Sololá	701	Sololá	2	El tablón	7	Julio	2023-01-07T00:00:00	2024-11-06T11:00:00	3	Temperatura mínima	19.1
163284	7	Sololá	701	Sololá	2	El tablón	7	Julio	2023-01-07T00:00:00	2024-11-06T11:00:00	5	Humedad	66
163285	7	Sololá	701	Sololá	2	El tablón	7	Julio	2023-01-07T00:00:00	2024-11-06T11:00:00	6	Velocidad del viento	8
163286	7	Sololá	701	Sololá	2	El tablón	7	Julio	2023-01-07T00:00:00	2024-11-06T11:00:00	7	Dirección del viento	8.05
163287	7	Sololá	701	Sololá	2	El tablón	7	Julio	2023-01-07T00:00:00	2024-11-06T11:00:00	1	Precipitación	0
163288	7	Sololá	701	Sololá	2	El tablón	7	Julio	2023-01-07T00:00:00	2024-11-06T11:00:00	8	Radiación solar	877
163289	7	Sololá	701	Sololá	2	El tablón	7	Julio	2023-01-07T00:00:00	2024-11-06T12:00:00	2	Temperatura media	20.4
163290	7	Sololá	701	Sololá	2	El tablón	7	Julio	2023-01-07T00:00:00	2024-11-06T12:00:00	4	Temperatura máxima	20.5
163291	7	Sololá	701	Sololá	2	El tablón	7	Julio	2023-01-07T00:00:00	2024-11-06T12:00:00	3	Temperatura mínima	19.8
163292	7	Sololá	701	Sololá	2	El tablón	7	Julio	2023-01-07T00:00:00	2024-11-06T12:00:00	5	Humedad	61
163293	7	Sololá	701	Sololá	2	El tablón	7	Julio	2023-01-07T00:00:00	2024-11-06T12:00:00	6	Velocidad del viento	9.7
163294	7	Sololá	701	Sololá	2	El tablón	7	Julio	2023-01-07T00:00:00	2024-11-06T12:00:00	7	Dirección del viento	9.66
163295	7	Sololá	701	Sololá	2	El tablón	7	Julio	2023-01-07T00:00:00	2024-11-06T12:00:00	1	Precipitación	0
163296	7	Sololá	701	Sololá	2	El tablón	7	Julio	2023-01-07T00:00:00	2024-11-06T12:00:00	8	Radiación solar	978
163297	7	Sololá	701	Sololá	2	El tablón	7	Julio	2023-01-07T00:00:00	2024-11-06T13:00:00	2	Temperatura media	19.8
163298	7	Sololá	701	Sololá	2	El tablón	7	Julio	2023-01-07T00:00:00	2024-11-06T13:00:00	4	Temperatura máxima	21.4
163299	7	Sololá	701	Sololá	2	El tablón	7	Julio	2023-01-07T00:00:00	2024-11-06T13:00:00	3	Temperatura mínima	19.7
163300	7	Sololá	701	Sololá	2	El tablón	7	Julio	2023-01-07T00:00:00	2024-11-06T13:00:00	5	Humedad	80
163301	7	Sololá	701	Sololá	2	El tablón	7	Julio	2023-01-07T00:00:00	2024-11-06T13:00:00	6	Velocidad del viento	8
163302	7	Sololá	701	Sololá	2	El tablón	7	Julio	2023-01-07T00:00:00	2024-11-06T13:00:00	7	Dirección del viento	8.05
163303	7	Sololá	701	Sololá	2	El tablón	7	Julio	2023-01-07T00:00:00	2024-11-06T13:00:00	1	Precipitación	0
163304	7	Sololá	701	Sololá	2	El tablón	7	Julio	2023-01-07T00:00:00	2024-11-06T13:00:00	8	Radiación solar	994
163305	7	Sololá	701	Sololá	2	El tablón	7	Julio	2023-01-07T00:00:00	2024-11-06T14:00:00	2	Temperatura media	17.3
163306	7	Sololá	701	Sololá	2	El tablón	7	Julio	2023-01-07T00:00:00	2024-11-06T14:00:00	4	Temperatura máxima	19.9
163307	7	Sololá	701	Sololá	2	El tablón	7	Julio	2023-01-07T00:00:00	2024-11-06T14:00:00	3	Temperatura mínima	17.3
163308	7	Sololá	701	Sololá	2	El tablón	7	Julio	2023-01-07T00:00:00	2024-11-06T14:00:00	5	Humedad	87
163309	7	Sololá	701	Sololá	2	El tablón	7	Julio	2023-01-07T00:00:00	2024-11-06T14:00:00	6	Velocidad del viento	9.7
163310	7	Sololá	701	Sololá	2	El tablón	7	Julio	2023-01-07T00:00:00	2024-11-06T14:00:00	7	Dirección del viento	9.66
163311	7	Sololá	701	Sololá	2	El tablón	7	Julio	2023-01-07T00:00:00	2024-11-06T14:00:00	1	Precipitación	0
163312	7	Sololá	701	Sololá	2	El tablón	7	Julio	2023-01-07T00:00:00	2024-11-06T14:00:00	8	Radiación solar	434
163313	7	Sololá	701	Sololá	2	El tablón	7	Julio	2023-01-07T00:00:00	2024-11-06T15:00:00	2	Temperatura media	11.8
163314	7	Sololá	701	Sololá	2	El tablón	7	Julio	2023-01-07T00:00:00	2024-11-06T15:00:00	4	Temperatura máxima	17.6
163315	7	Sololá	701	Sololá	2	El tablón	7	Julio	2023-01-07T00:00:00	2024-11-06T15:00:00	3	Temperatura mínima	11.8
163316	7	Sololá	701	Sololá	2	El tablón	7	Julio	2023-01-07T00:00:00	2024-11-06T15:00:00	5	Humedad	88
163317	7	Sololá	701	Sololá	2	El tablón	7	Julio	2023-01-07T00:00:00	2024-11-06T15:00:00	6	Velocidad del viento	11.3
163318	7	Sololá	701	Sololá	2	El tablón	7	Julio	2023-01-07T00:00:00	2024-11-06T15:00:00	7	Dirección del viento	11.27
163319	7	Sololá	701	Sololá	2	El tablón	7	Julio	2023-01-07T00:00:00	2024-11-06T15:00:00	1	Precipitación	57
163320	7	Sololá	701	Sololá	2	El tablón	7	Julio	2023-01-07T00:00:00	2024-11-06T15:00:00	8	Radiación solar	61
163321	7	Sololá	701	Sololá	2	El tablón	7	Julio	2023-01-07T00:00:00	2024-11-06T16:00:00	2	Temperatura media	11.9
163322	7	Sololá	701	Sololá	2	El tablón	7	Julio	2023-01-07T00:00:00	2024-11-06T16:00:00	4	Temperatura máxima	12.1
163323	7	Sololá	701	Sololá	2	El tablón	7	Julio	2023-01-07T00:00:00	2024-11-06T16:00:00	3	Temperatura mínima	11.6
163324	7	Sololá	701	Sololá	2	El tablón	7	Julio	2023-01-07T00:00:00	2024-11-06T16:00:00	5	Humedad	88
163325	7	Sololá	701	Sololá	2	El tablón	7	Julio	2023-01-07T00:00:00	2024-11-06T16:00:00	6	Velocidad del viento	3.2
163326	7	Sololá	701	Sololá	2	El tablón	7	Julio	2023-01-07T00:00:00	2024-11-06T16:00:00	7	Dirección del viento	3.22
163327	7	Sololá	701	Sololá	2	El tablón	7	Julio	2023-01-07T00:00:00	2024-11-06T16:00:00	1	Precipitación	9.4
163328	7	Sololá	701	Sololá	2	El tablón	7	Julio	2023-01-07T00:00:00	2024-11-06T16:00:00	8	Radiación solar	11
163329	7	Sololá	701	Sololá	2	El tablón	7	Julio	2023-01-07T00:00:00	2024-11-06T17:00:00	2	Temperatura media	12.7
163330	7	Sololá	701	Sololá	2	El tablón	7	Julio	2023-01-07T00:00:00	2024-11-06T17:00:00	4	Temperatura máxima	12.7
163331	7	Sololá	701	Sololá	2	El tablón	7	Julio	2023-01-07T00:00:00	2024-11-06T17:00:00	3	Temperatura mínima	11.9
163332	7	Sololá	701	Sololá	2	El tablón	7	Julio	2023-01-07T00:00:00	2024-11-06T17:00:00	5	Humedad	87
163333	7	Sololá	701	Sololá	2	El tablón	7	Julio	2023-01-07T00:00:00	2024-11-06T17:00:00	6	Velocidad del viento	6.4
163334	7	Sololá	701	Sololá	2	El tablón	7	Julio	2023-01-07T00:00:00	2024-11-06T17:00:00	7	Dirección del viento	6.44
163335	7	Sololá	701	Sololá	2	El tablón	7	Julio	2023-01-07T00:00:00	2024-11-06T17:00:00	1	Precipitación	3.2
163336	7	Sololá	701	Sololá	2	El tablón	7	Julio	2023-01-07T00:00:00	2024-11-06T17:00:00	8	Radiación solar	19
163337	7	Sololá	701	Sololá	2	El tablón	7	Julio	2023-01-07T00:00:00	2024-11-06T18:00:00	2	Temperatura media	12.3
163338	7	Sololá	701	Sololá	2	El tablón	7	Julio	2023-01-07T00:00:00	2024-11-06T18:00:00	4	Temperatura máxima	12.7
163339	7	Sololá	701	Sololá	2	El tablón	7	Julio	2023-01-07T00:00:00	2024-11-06T18:00:00	3	Temperatura mínima	12.3
163340	7	Sololá	701	Sololá	2	El tablón	7	Julio	2023-01-07T00:00:00	2024-11-06T18:00:00	5	Humedad	88
163341	7	Sololá	701	Sololá	2	El tablón	7	Julio	2023-01-07T00:00:00	2024-11-06T18:00:00	6	Velocidad del viento	1.6
163342	7	Sololá	701	Sololá	2	El tablón	7	Julio	2023-01-07T00:00:00	2024-11-06T18:00:00	7	Dirección del viento	1.61
163343	7	Sololá	701	Sololá	2	El tablón	7	Julio	2023-01-07T00:00:00	2024-11-06T18:00:00	1	Precipitación	6.4
163344	7	Sololá	701	Sololá	2	El tablón	7	Julio	2023-01-07T00:00:00	2024-11-06T18:00:00	8	Radiación solar	3
163345	7	Sololá	701	Sololá	2	El tablón	7	Julio	2023-01-07T00:00:00	2024-11-06T19:00:00	2	Temperatura media	11.8
163346	7	Sololá	701	Sololá	2	El tablón	7	Julio	2023-01-07T00:00:00	2024-11-06T19:00:00	4	Temperatura máxima	12.3
163347	7	Sololá	701	Sololá	2	El tablón	7	Julio	2023-01-07T00:00:00	2024-11-06T19:00:00	3	Temperatura mínima	11.8
163348	7	Sololá	701	Sololá	2	El tablón	7	Julio	2023-01-07T00:00:00	2024-11-06T19:00:00	5	Humedad	87
163349	7	Sololá	701	Sololá	2	El tablón	7	Julio	2023-01-07T00:00:00	2024-11-06T19:00:00	6	Velocidad del viento	6.4
163350	7	Sololá	701	Sololá	2	El tablón	7	Julio	2023-01-07T00:00:00	2024-11-06T19:00:00	7	Dirección del viento	6.44
163351	7	Sololá	701	Sololá	2	El tablón	7	Julio	2023-01-07T00:00:00	2024-11-06T19:00:00	1	Precipitación	1
163352	7	Sololá	701	Sololá	2	El tablón	7	Julio	2023-01-07T00:00:00	2024-11-06T19:00:00	8	Radiación solar	0
163353	7	Sololá	701	Sololá	2	El tablón	7	Julio	2023-01-07T00:00:00	2024-11-06T20:00:00	2	Temperatura media	13.3
163354	7	Sololá	701	Sololá	2	El tablón	7	Julio	2023-01-07T00:00:00	2024-11-06T20:00:00	4	Temperatura máxima	13.3
163355	7	Sololá	701	Sololá	2	El tablón	7	Julio	2023-01-07T00:00:00	2024-11-06T20:00:00	3	Temperatura mínima	11.8
163356	7	Sololá	701	Sololá	2	El tablón	7	Julio	2023-01-07T00:00:00	2024-11-06T20:00:00	5	Humedad	88
163357	7	Sololá	701	Sololá	2	El tablón	7	Julio	2023-01-07T00:00:00	2024-11-06T20:00:00	6	Velocidad del viento	9.7
163358	7	Sololá	701	Sololá	2	El tablón	7	Julio	2023-01-07T00:00:00	2024-11-06T20:00:00	7	Dirección del viento	9.66
163359	7	Sololá	701	Sololá	2	El tablón	7	Julio	2023-01-07T00:00:00	2024-11-06T20:00:00	1	Precipitación	0
163360	7	Sololá	701	Sololá	2	El tablón	7	Julio	2023-01-07T00:00:00	2024-11-06T20:00:00	8	Radiación solar	0
163361	7	Sololá	701	Sololá	2	El tablón	7	Julio	2023-01-07T00:00:00	2024-11-06T21:00:00	2	Temperatura media	13.7
163362	7	Sololá	701	Sololá	2	El tablón	7	Julio	2023-01-07T00:00:00	2024-11-06T21:00:00	4	Temperatura máxima	13.7
163363	7	Sololá	701	Sololá	2	El tablón	7	Julio	2023-01-07T00:00:00	2024-11-06T21:00:00	3	Temperatura mínima	13.3
163364	7	Sololá	701	Sololá	2	El tablón	7	Julio	2023-01-07T00:00:00	2024-11-06T21:00:00	5	Humedad	88
163365	7	Sololá	701	Sololá	2	El tablón	7	Julio	2023-01-07T00:00:00	2024-11-06T21:00:00	6	Velocidad del viento	11.3
163366	7	Sololá	701	Sololá	2	El tablón	7	Julio	2023-01-07T00:00:00	2024-11-06T21:00:00	7	Dirección del viento	11.27
163367	7	Sololá	701	Sololá	2	El tablón	7	Julio	2023-01-07T00:00:00	2024-11-06T21:00:00	1	Precipitación	0
163368	7	Sololá	701	Sololá	2	El tablón	7	Julio	2023-01-07T00:00:00	2024-11-06T21:00:00	8	Radiación solar	0
163369	7	Sololá	701	Sololá	2	El tablón	7	Julio	2023-01-07T00:00:00	2024-11-06T22:00:00	2	Temperatura media	13.6
163370	7	Sololá	701	Sololá	2	El tablón	7	Julio	2023-01-07T00:00:00	2024-11-06T22:00:00	4	Temperatura máxima	13.7
163371	7	Sololá	701	Sololá	2	El tablón	7	Julio	2023-01-07T00:00:00	2024-11-06T22:00:00	3	Temperatura mínima	13.5
163372	7	Sololá	701	Sololá	2	El tablón	7	Julio	2023-01-07T00:00:00	2024-11-06T22:00:00	5	Humedad	86
163373	7	Sololá	701	Sololá	2	El tablón	7	Julio	2023-01-07T00:00:00	2024-11-06T22:00:00	6	Velocidad del viento	9.7
163374	7	Sololá	701	Sololá	2	El tablón	7	Julio	2023-01-07T00:00:00	2024-11-06T22:00:00	7	Dirección del viento	9.66
163375	7	Sololá	701	Sololá	2	El tablón	7	Julio	2023-01-07T00:00:00	2024-11-06T22:00:00	1	Precipitación	0
163376	7	Sololá	701	Sololá	2	El tablón	7	Julio	2023-01-07T00:00:00	2024-11-06T22:00:00	8	Radiación solar	0
163377	7	Sololá	701	Sololá	2	El tablón	7	Julio	2023-01-07T00:00:00	2024-11-06T23:00:00	2	Temperatura media	13.4
163378	7	Sololá	701	Sololá	2	El tablón	7	Julio	2023-01-07T00:00:00	2024-11-06T23:00:00	4	Temperatura máxima	13.7
163379	7	Sololá	701	Sololá	2	El tablón	7	Julio	2023-01-07T00:00:00	2024-11-06T23:00:00	3	Temperatura mínima	13.3
163380	7	Sololá	701	Sololá	2	El tablón	7	Julio	2023-01-07T00:00:00	2024-11-06T23:00:00	5	Humedad	86
163381	7	Sololá	701	Sololá	2	El tablón	7	Julio	2023-01-07T00:00:00	2024-11-06T23:00:00	6	Velocidad del viento	8
163382	7	Sololá	701	Sololá	2	El tablón	7	Julio	2023-01-07T00:00:00	2024-11-06T23:00:00	7	Dirección del viento	8.05
163383	7	Sololá	701	Sololá	2	El tablón	7	Julio	2023-01-07T00:00:00	2024-11-06T23:00:00	1	Precipitación	0
163384	7	Sololá	701	Sololá	2	El tablón	7	Julio	2023-01-07T00:00:00	2024-11-06T23:00:00	8	Radiación solar	0
163385	7	Sololá	701	Sololá	2	El tablón	7	Julio	2023-02-07T00:00:00	2024-11-06T00:00:00	2	Temperatura media	13.2
163386	7	Sololá	701	Sololá	2	El tablón	7	Julio	2023-02-07T00:00:00	2024-11-06T00:00:00	4	Temperatura máxima	13.6
163387	7	Sololá	701	Sololá	2	El tablón	7	Julio	2023-02-07T00:00:00	2024-11-06T00:00:00	3	Temperatura mínima	13.2
163388	7	Sololá	701	Sololá	2	El tablón	7	Julio	2023-02-07T00:00:00	2024-11-06T00:00:00	5	Humedad	87
163389	7	Sololá	701	Sololá	2	El tablón	7	Julio	2023-02-07T00:00:00	2024-11-06T00:00:00	6	Velocidad del viento	4.8
163390	7	Sololá	701	Sololá	2	El tablón	7	Julio	2023-02-07T00:00:00	2024-11-06T00:00:00	7	Dirección del viento	4.83
163391	7	Sololá	701	Sololá	2	El tablón	7	Julio	2023-02-07T00:00:00	2024-11-06T00:00:00	1	Precipitación	0
163392	7	Sololá	701	Sololá	2	El tablón	7	Julio	2023-02-07T00:00:00	2024-11-06T00:00:00	8	Radiación solar	0
163393	7	Sololá	701	Sololá	2	El tablón	7	Julio	2023-02-07T00:00:00	2024-11-06T01:00:00	2	Temperatura media	12.9
163394	7	Sololá	701	Sololá	2	El tablón	7	Julio	2023-02-07T00:00:00	2024-11-06T01:00:00	4	Temperatura máxima	13.2
163395	7	Sololá	701	Sololá	2	El tablón	7	Julio	2023-02-07T00:00:00	2024-11-06T01:00:00	3	Temperatura mínima	12.9
163396	7	Sololá	701	Sololá	2	El tablón	7	Julio	2023-02-07T00:00:00	2024-11-06T01:00:00	5	Humedad	88
163397	7	Sololá	701	Sololá	2	El tablón	7	Julio	2023-02-07T00:00:00	2024-11-06T01:00:00	6	Velocidad del viento	3.2
163398	7	Sololá	701	Sololá	2	El tablón	7	Julio	2023-02-07T00:00:00	2024-11-06T01:00:00	7	Dirección del viento	3.22
163399	7	Sololá	701	Sololá	2	El tablón	7	Julio	2023-02-07T00:00:00	2024-11-06T01:00:00	1	Precipitación	0
163400	7	Sololá	701	Sololá	2	El tablón	7	Julio	2023-02-07T00:00:00	2024-11-06T01:00:00	8	Radiación solar	0
163401	7	Sololá	701	Sololá	2	El tablón	7	Julio	2023-02-07T00:00:00	2024-11-06T02:00:00	2	Temperatura media	12.3
163402	7	Sololá	701	Sololá	2	El tablón	7	Julio	2023-02-07T00:00:00	2024-11-06T02:00:00	4	Temperatura máxima	12.9
163403	7	Sololá	701	Sololá	2	El tablón	7	Julio	2023-02-07T00:00:00	2024-11-06T02:00:00	3	Temperatura mínima	12.3
163404	7	Sololá	701	Sololá	2	El tablón	7	Julio	2023-02-07T00:00:00	2024-11-06T02:00:00	5	Humedad	88
163405	7	Sololá	701	Sololá	2	El tablón	7	Julio	2023-02-07T00:00:00	2024-11-06T02:00:00	6	Velocidad del viento	1.6
163406	7	Sololá	701	Sololá	2	El tablón	7	Julio	2023-02-07T00:00:00	2024-11-06T02:00:00	7	Dirección del viento	1.61
163407	7	Sololá	701	Sololá	2	El tablón	7	Julio	2023-02-07T00:00:00	2024-11-06T02:00:00	1	Precipitación	0
163408	7	Sololá	701	Sololá	2	El tablón	7	Julio	2023-02-07T00:00:00	2024-11-06T02:00:00	8	Radiación solar	0
163409	7	Sololá	701	Sololá	2	El tablón	7	Julio	2023-02-07T00:00:00	2024-11-06T03:00:00	2	Temperatura media	12.2
163410	7	Sololá	701	Sololá	2	El tablón	7	Julio	2023-02-07T00:00:00	2024-11-06T03:00:00	4	Temperatura máxima	12.3
163411	7	Sololá	701	Sololá	2	El tablón	7	Julio	2023-02-07T00:00:00	2024-11-06T03:00:00	3	Temperatura mínima	12
163412	7	Sololá	701	Sololá	2	El tablón	7	Julio	2023-02-07T00:00:00	2024-11-06T03:00:00	5	Humedad	88
163413	7	Sololá	701	Sololá	2	El tablón	7	Julio	2023-02-07T00:00:00	2024-11-06T03:00:00	6	Velocidad del viento	3.2
163414	7	Sololá	701	Sololá	2	El tablón	7	Julio	2023-02-07T00:00:00	2024-11-06T03:00:00	7	Dirección del viento	3.22
163415	7	Sololá	701	Sololá	2	El tablón	7	Julio	2023-02-07T00:00:00	2024-11-06T03:00:00	1	Precipitación	0
163416	7	Sololá	701	Sololá	2	El tablón	7	Julio	2023-02-07T00:00:00	2024-11-06T03:00:00	8	Radiación solar	0
163417	7	Sololá	701	Sololá	2	El tablón	7	Julio	2023-02-07T00:00:00	2024-11-06T04:00:00	2	Temperatura media	12.4
163418	7	Sololá	701	Sololá	2	El tablón	7	Julio	2023-02-07T00:00:00	2024-11-06T04:00:00	4	Temperatura máxima	12.4
163419	7	Sololá	701	Sololá	2	El tablón	7	Julio	2023-02-07T00:00:00	2024-11-06T04:00:00	3	Temperatura mínima	12.2
163420	7	Sololá	701	Sololá	2	El tablón	7	Julio	2023-02-07T00:00:00	2024-11-06T04:00:00	5	Humedad	88
163421	7	Sololá	701	Sololá	2	El tablón	7	Julio	2023-02-07T00:00:00	2024-11-06T04:00:00	6	Velocidad del viento	6.4
163422	7	Sololá	701	Sololá	2	El tablón	7	Julio	2023-02-07T00:00:00	2024-11-06T04:00:00	7	Dirección del viento	6.44
163423	7	Sololá	701	Sololá	2	El tablón	7	Julio	2023-02-07T00:00:00	2024-11-06T04:00:00	1	Precipitación	0
163424	7	Sololá	701	Sololá	2	El tablón	7	Julio	2023-02-07T00:00:00	2024-11-06T04:00:00	8	Radiación solar	0
163425	7	Sololá	701	Sololá	2	El tablón	7	Julio	2023-02-07T00:00:00	2024-11-06T05:00:00	2	Temperatura media	12.3
163426	7	Sololá	701	Sololá	2	El tablón	7	Julio	2023-02-07T00:00:00	2024-11-06T05:00:00	4	Temperatura máxima	12.5
163427	7	Sololá	701	Sololá	2	El tablón	7	Julio	2023-02-07T00:00:00	2024-11-06T05:00:00	3	Temperatura mínima	12.2
163428	7	Sololá	701	Sololá	2	El tablón	7	Julio	2023-02-07T00:00:00	2024-11-06T05:00:00	5	Humedad	87
163429	7	Sololá	701	Sololá	2	El tablón	7	Julio	2023-02-07T00:00:00	2024-11-06T05:00:00	6	Velocidad del viento	9.7
163430	7	Sololá	701	Sololá	2	El tablón	7	Julio	2023-02-07T00:00:00	2024-11-06T05:00:00	7	Dirección del viento	9.66
163431	7	Sololá	701	Sololá	2	El tablón	7	Julio	2023-02-07T00:00:00	2024-11-06T05:00:00	1	Precipitación	0
163432	7	Sololá	701	Sololá	2	El tablón	7	Julio	2023-02-07T00:00:00	2024-11-06T05:00:00	8	Radiación solar	0
163433	7	Sololá	701	Sololá	2	El tablón	7	Julio	2023-02-07T00:00:00	2024-11-06T06:00:00	2	Temperatura media	13.4
163434	7	Sololá	701	Sololá	2	El tablón	7	Julio	2023-02-07T00:00:00	2024-11-06T06:00:00	4	Temperatura máxima	13.4
163435	7	Sololá	701	Sololá	2	El tablón	7	Julio	2023-02-07T00:00:00	2024-11-06T06:00:00	3	Temperatura mínima	12.3
163436	7	Sololá	701	Sololá	2	El tablón	7	Julio	2023-02-07T00:00:00	2024-11-06T06:00:00	5	Humedad	79
163437	7	Sololá	701	Sololá	2	El tablón	7	Julio	2023-02-07T00:00:00	2024-11-06T06:00:00	6	Velocidad del viento	6.4
163438	7	Sololá	701	Sololá	2	El tablón	7	Julio	2023-02-07T00:00:00	2024-11-06T06:00:00	7	Dirección del viento	6.44
163439	7	Sololá	701	Sololá	2	El tablón	7	Julio	2023-02-07T00:00:00	2024-11-06T06:00:00	1	Precipitación	0
163440	7	Sololá	701	Sololá	2	El tablón	7	Julio	2023-02-07T00:00:00	2024-11-06T06:00:00	8	Radiación solar	6
163441	7	Sololá	701	Sololá	2	El tablón	7	Julio	2023-02-07T00:00:00	2024-11-06T07:00:00	2	Temperatura media	14.8
163442	7	Sololá	701	Sololá	2	El tablón	7	Julio	2023-02-07T00:00:00	2024-11-06T07:00:00	4	Temperatura máxima	14.9
163443	7	Sololá	701	Sololá	2	El tablón	7	Julio	2023-02-07T00:00:00	2024-11-06T07:00:00	3	Temperatura mínima	13.4
163444	7	Sololá	701	Sololá	2	El tablón	7	Julio	2023-02-07T00:00:00	2024-11-06T07:00:00	5	Humedad	74
163445	7	Sololá	701	Sololá	2	El tablón	7	Julio	2023-02-07T00:00:00	2024-11-06T07:00:00	6	Velocidad del viento	4.8
163446	7	Sololá	701	Sololá	2	El tablón	7	Julio	2023-02-07T00:00:00	2024-11-06T07:00:00	7	Dirección del viento	4.83
163447	7	Sololá	701	Sololá	2	El tablón	7	Julio	2023-02-07T00:00:00	2024-11-06T07:00:00	1	Precipitación	0
163448	7	Sololá	701	Sololá	2	El tablón	7	Julio	2023-02-07T00:00:00	2024-11-06T07:00:00	8	Radiación solar	94
163449	7	Sololá	701	Sololá	2	El tablón	7	Julio	2023-02-07T00:00:00	2024-11-06T08:00:00	2	Temperatura media	16.6
163450	7	Sololá	701	Sololá	2	El tablón	7	Julio	2023-02-07T00:00:00	2024-11-06T08:00:00	4	Temperatura máxima	16.6
163451	7	Sololá	701	Sololá	2	El tablón	7	Julio	2023-02-07T00:00:00	2024-11-06T08:00:00	3	Temperatura mínima	14.8
163452	7	Sololá	701	Sololá	2	El tablón	7	Julio	2023-02-07T00:00:00	2024-11-06T08:00:00	5	Humedad	69
163453	7	Sololá	701	Sololá	2	El tablón	7	Julio	2023-02-07T00:00:00	2024-11-06T08:00:00	6	Velocidad del viento	3.2
163454	7	Sololá	701	Sololá	2	El tablón	7	Julio	2023-02-07T00:00:00	2024-11-06T08:00:00	7	Dirección del viento	3.22
163455	7	Sololá	701	Sololá	2	El tablón	7	Julio	2023-02-07T00:00:00	2024-11-06T08:00:00	1	Precipitación	0
163456	7	Sololá	701	Sololá	2	El tablón	7	Julio	2023-02-07T00:00:00	2024-11-06T08:00:00	8	Radiación solar	211
163457	7	Sololá	701	Sololá	2	El tablón	7	Julio	2023-02-07T00:00:00	2024-11-06T09:00:00	2	Temperatura media	17.7
163458	7	Sololá	701	Sololá	2	El tablón	7	Julio	2023-02-07T00:00:00	2024-11-06T09:00:00	4	Temperatura máxima	17.8
163459	7	Sololá	701	Sololá	2	El tablón	7	Julio	2023-02-07T00:00:00	2024-11-06T09:00:00	3	Temperatura mínima	16.6
163460	7	Sololá	701	Sololá	2	El tablón	7	Julio	2023-02-07T00:00:00	2024-11-06T09:00:00	5	Humedad	68
163461	7	Sololá	701	Sololá	2	El tablón	7	Julio	2023-02-07T00:00:00	2024-11-06T09:00:00	6	Velocidad del viento	4.8
163462	7	Sololá	701	Sololá	2	El tablón	7	Julio	2023-02-07T00:00:00	2024-11-06T09:00:00	7	Dirección del viento	4.83
163463	7	Sololá	701	Sololá	2	El tablón	7	Julio	2023-02-07T00:00:00	2024-11-06T09:00:00	1	Precipitación	0
163464	7	Sololá	701	Sololá	2	El tablón	7	Julio	2023-02-07T00:00:00	2024-11-06T09:00:00	8	Radiación solar	486
163465	7	Sololá	701	Sololá	2	El tablón	7	Julio	2023-02-07T00:00:00	2024-11-06T10:00:00	2	Temperatura media	17.6
163466	7	Sololá	701	Sololá	2	El tablón	7	Julio	2023-02-07T00:00:00	2024-11-06T10:00:00	4	Temperatura máxima	17.9
163467	7	Sololá	701	Sololá	2	El tablón	7	Julio	2023-02-07T00:00:00	2024-11-06T10:00:00	3	Temperatura mínima	17.4
163468	7	Sololá	701	Sololá	2	El tablón	7	Julio	2023-02-07T00:00:00	2024-11-06T10:00:00	5	Humedad	70
163469	7	Sololá	701	Sololá	2	El tablón	7	Julio	2023-02-07T00:00:00	2024-11-06T10:00:00	6	Velocidad del viento	4.8
163470	7	Sololá	701	Sololá	2	El tablón	7	Julio	2023-02-07T00:00:00	2024-11-06T10:00:00	7	Dirección del viento	4.83
163471	7	Sololá	701	Sololá	2	El tablón	7	Julio	2023-02-07T00:00:00	2024-11-06T10:00:00	1	Precipitación	0
163472	7	Sololá	701	Sololá	2	El tablón	7	Julio	2023-02-07T00:00:00	2024-11-06T10:00:00	8	Radiación solar	471
163473	7	Sololá	701	Sololá	2	El tablón	7	Julio	2023-02-07T00:00:00	2024-11-06T11:00:00	2	Temperatura media	17
163474	7	Sololá	701	Sololá	2	El tablón	7	Julio	2023-02-07T00:00:00	2024-11-06T11:00:00	4	Temperatura máxima	17.6
163475	7	Sololá	701	Sololá	2	El tablón	7	Julio	2023-02-07T00:00:00	2024-11-06T11:00:00	3	Temperatura mínima	16.9
163476	7	Sololá	701	Sololá	2	El tablón	7	Julio	2023-02-07T00:00:00	2024-11-06T11:00:00	5	Humedad	72
163477	7	Sololá	701	Sololá	2	El tablón	7	Julio	2023-02-07T00:00:00	2024-11-06T11:00:00	6	Velocidad del viento	3.2
163478	7	Sololá	701	Sololá	2	El tablón	7	Julio	2023-02-07T00:00:00	2024-11-06T11:00:00	7	Dirección del viento	3.22
163479	7	Sololá	701	Sololá	2	El tablón	7	Julio	2023-02-07T00:00:00	2024-11-06T11:00:00	1	Precipitación	0
163480	7	Sololá	701	Sololá	2	El tablón	7	Julio	2023-02-07T00:00:00	2024-11-06T11:00:00	8	Radiación solar	224
163481	7	Sololá	701	Sololá	2	El tablón	7	Julio	2023-02-07T00:00:00	2024-11-06T12:00:00	2	Temperatura media	16.3
163482	7	Sololá	701	Sololá	2	El tablón	7	Julio	2023-02-07T00:00:00	2024-11-06T12:00:00	4	Temperatura máxima	17
163483	7	Sololá	701	Sololá	2	El tablón	7	Julio	2023-02-07T00:00:00	2024-11-06T12:00:00	3	Temperatura mínima	15.7
163484	7	Sololá	701	Sololá	2	El tablón	7	Julio	2023-02-07T00:00:00	2024-11-06T12:00:00	5	Humedad	86
163485	7	Sololá	701	Sololá	2	El tablón	7	Julio	2023-02-07T00:00:00	2024-11-06T12:00:00	6	Velocidad del viento	4.8
163486	7	Sololá	701	Sololá	2	El tablón	7	Julio	2023-02-07T00:00:00	2024-11-06T12:00:00	7	Dirección del viento	4.83
163487	7	Sololá	701	Sololá	2	El tablón	7	Julio	2023-02-07T00:00:00	2024-11-06T12:00:00	1	Precipitación	0
163488	7	Sololá	701	Sololá	2	El tablón	7	Julio	2023-02-07T00:00:00	2024-11-06T12:00:00	8	Radiación solar	251
163489	7	Sololá	701	Sololá	2	El tablón	7	Julio	2023-02-07T00:00:00	2024-11-06T13:00:00	2	Temperatura media	15.3
163490	7	Sololá	701	Sololá	2	El tablón	7	Julio	2023-02-07T00:00:00	2024-11-06T13:00:00	4	Temperatura máxima	16.6
163491	7	Sololá	701	Sololá	2	El tablón	7	Julio	2023-02-07T00:00:00	2024-11-06T13:00:00	3	Temperatura mínima	15.3
163492	7	Sololá	701	Sololá	2	El tablón	7	Julio	2023-02-07T00:00:00	2024-11-06T13:00:00	5	Humedad	87
163493	7	Sololá	701	Sololá	2	El tablón	7	Julio	2023-02-07T00:00:00	2024-11-06T13:00:00	6	Velocidad del viento	6.4
163494	7	Sololá	701	Sololá	2	El tablón	7	Julio	2023-02-07T00:00:00	2024-11-06T13:00:00	7	Dirección del viento	6.44
163495	7	Sololá	701	Sololá	2	El tablón	7	Julio	2023-02-07T00:00:00	2024-11-06T13:00:00	1	Precipitación	0
163496	7	Sololá	701	Sololá	2	El tablón	7	Julio	2023-02-07T00:00:00	2024-11-06T13:00:00	8	Radiación solar	350
163497	7	Sololá	701	Sololá	2	El tablón	7	Julio	2023-02-07T00:00:00	2024-11-06T14:00:00	2	Temperatura media	15.7
163498	7	Sololá	701	Sololá	2	El tablón	7	Julio	2023-02-07T00:00:00	2024-11-06T14:00:00	4	Temperatura máxima	15.8
163499	7	Sololá	701	Sololá	2	El tablón	7	Julio	2023-02-07T00:00:00	2024-11-06T14:00:00	3	Temperatura mínima	14.6
163500	7	Sololá	701	Sololá	2	El tablón	7	Julio	2023-02-07T00:00:00	2024-11-06T14:00:00	5	Humedad	87
163501	7	Sololá	701	Sololá	2	El tablón	7	Julio	2023-02-07T00:00:00	2024-11-06T14:00:00	6	Velocidad del viento	4.8
163502	7	Sololá	701	Sololá	2	El tablón	7	Julio	2023-02-07T00:00:00	2024-11-06T14:00:00	7	Dirección del viento	4.83
163503	7	Sololá	701	Sololá	2	El tablón	7	Julio	2023-02-07T00:00:00	2024-11-06T14:00:00	1	Precipitación	0
163504	7	Sololá	701	Sololá	2	El tablón	7	Julio	2023-02-07T00:00:00	2024-11-06T14:00:00	8	Radiación solar	222
163505	7	Sololá	701	Sololá	2	El tablón	7	Julio	2023-02-07T00:00:00	2024-11-06T15:00:00	2	Temperatura media	14.3
163506	7	Sololá	701	Sololá	2	El tablón	7	Julio	2023-02-07T00:00:00	2024-11-06T15:00:00	4	Temperatura máxima	15.7
163507	7	Sololá	701	Sololá	2	El tablón	7	Julio	2023-02-07T00:00:00	2024-11-06T15:00:00	3	Temperatura mínima	14.3
163508	7	Sololá	701	Sololá	2	El tablón	7	Julio	2023-02-07T00:00:00	2024-11-06T15:00:00	5	Humedad	88
163509	7	Sololá	701	Sololá	2	El tablón	7	Julio	2023-02-07T00:00:00	2024-11-06T15:00:00	6	Velocidad del viento	4.8
163510	7	Sololá	701	Sololá	2	El tablón	7	Julio	2023-02-07T00:00:00	2024-11-06T15:00:00	7	Dirección del viento	4.83
163511	7	Sololá	701	Sololá	2	El tablón	7	Julio	2023-02-07T00:00:00	2024-11-06T15:00:00	1	Precipitación	0
163512	7	Sololá	701	Sololá	2	El tablón	7	Julio	2023-02-07T00:00:00	2024-11-06T15:00:00	8	Radiación solar	119
163513	7	Sololá	701	Sololá	2	El tablón	7	Julio	2023-02-07T00:00:00	2024-11-06T16:00:00	2	Temperatura media	13.8
163514	7	Sololá	701	Sololá	2	El tablón	7	Julio	2023-02-07T00:00:00	2024-11-06T16:00:00	4	Temperatura máxima	14.3
163515	7	Sololá	701	Sololá	2	El tablón	7	Julio	2023-02-07T00:00:00	2024-11-06T16:00:00	3	Temperatura mínima	13.7
163516	7	Sololá	701	Sololá	2	El tablón	7	Julio	2023-02-07T00:00:00	2024-11-06T16:00:00	5	Humedad	87
163517	7	Sololá	701	Sololá	2	El tablón	7	Julio	2023-02-07T00:00:00	2024-11-06T16:00:00	6	Velocidad del viento	1.6
163518	7	Sololá	701	Sololá	2	El tablón	7	Julio	2023-02-07T00:00:00	2024-11-06T16:00:00	7	Dirección del viento	1.61
163519	7	Sololá	701	Sololá	2	El tablón	7	Julio	2023-02-07T00:00:00	2024-11-06T16:00:00	1	Precipitación	6.4
163520	7	Sololá	701	Sololá	2	El tablón	7	Julio	2023-02-07T00:00:00	2024-11-06T16:00:00	8	Radiación solar	70
163521	7	Sololá	701	Sololá	2	El tablón	7	Julio	2023-02-07T00:00:00	2024-11-06T17:00:00	2	Temperatura media	14.5
163522	7	Sololá	701	Sololá	2	El tablón	7	Julio	2023-02-07T00:00:00	2024-11-06T17:00:00	4	Temperatura máxima	14.6
163523	7	Sololá	701	Sololá	2	El tablón	7	Julio	2023-02-07T00:00:00	2024-11-06T17:00:00	3	Temperatura mínima	13.8
163524	7	Sololá	701	Sololá	2	El tablón	7	Julio	2023-02-07T00:00:00	2024-11-06T17:00:00	5	Humedad	88
163525	7	Sololá	701	Sololá	2	El tablón	7	Julio	2023-02-07T00:00:00	2024-11-06T17:00:00	6	Velocidad del viento	1.6
163526	7	Sololá	701	Sololá	2	El tablón	7	Julio	2023-02-07T00:00:00	2024-11-06T17:00:00	7	Dirección del viento	1.61
163527	7	Sololá	701	Sololá	2	El tablón	7	Julio	2023-02-07T00:00:00	2024-11-06T17:00:00	1	Precipitación	0
163528	7	Sololá	701	Sololá	2	El tablón	7	Julio	2023-02-07T00:00:00	2024-11-06T17:00:00	8	Radiación solar	135
163529	7	Sololá	701	Sololá	2	El tablón	7	Julio	2023-02-07T00:00:00	2024-11-06T18:00:00	2	Temperatura media	13.7
163530	7	Sololá	701	Sololá	2	El tablón	7	Julio	2023-02-07T00:00:00	2024-11-06T18:00:00	4	Temperatura máxima	14.5
163531	7	Sololá	701	Sololá	2	El tablón	7	Julio	2023-02-07T00:00:00	2024-11-06T18:00:00	3	Temperatura mínima	13.7
163532	7	Sololá	701	Sololá	2	El tablón	7	Julio	2023-02-07T00:00:00	2024-11-06T18:00:00	5	Humedad	88
163533	7	Sololá	701	Sololá	2	El tablón	7	Julio	2023-02-07T00:00:00	2024-11-06T18:00:00	6	Velocidad del viento	1.6
163534	7	Sololá	701	Sololá	2	El tablón	7	Julio	2023-02-07T00:00:00	2024-11-06T18:00:00	7	Dirección del viento	1.61
163535	7	Sololá	701	Sololá	2	El tablón	7	Julio	2023-02-07T00:00:00	2024-11-06T18:00:00	1	Precipitación	0
163536	7	Sololá	701	Sololá	2	El tablón	7	Julio	2023-02-07T00:00:00	2024-11-06T18:00:00	8	Radiación solar	50
163537	7	Sololá	701	Sololá	2	El tablón	7	Julio	2023-02-07T00:00:00	2024-11-06T19:00:00	2	Temperatura media	13.5
163538	7	Sololá	701	Sololá	2	El tablón	7	Julio	2023-02-07T00:00:00	2024-11-06T19:00:00	4	Temperatura máxima	13.7
163539	7	Sololá	701	Sololá	2	El tablón	7	Julio	2023-02-07T00:00:00	2024-11-06T19:00:00	3	Temperatura mínima	13.3
163540	7	Sololá	701	Sololá	2	El tablón	7	Julio	2023-02-07T00:00:00	2024-11-06T19:00:00	5	Humedad	87
163541	7	Sololá	701	Sololá	2	El tablón	7	Julio	2023-02-07T00:00:00	2024-11-06T19:00:00	6	Velocidad del viento	1.6
163542	7	Sololá	701	Sololá	2	El tablón	7	Julio	2023-02-07T00:00:00	2024-11-06T19:00:00	7	Dirección del viento	1.61
163543	7	Sololá	701	Sololá	2	El tablón	7	Julio	2023-02-07T00:00:00	2024-11-06T19:00:00	1	Precipitación	0
163544	7	Sololá	701	Sololá	2	El tablón	7	Julio	2023-02-07T00:00:00	2024-11-06T19:00:00	8	Radiación solar	0
163545	7	Sololá	701	Sololá	2	El tablón	7	Julio	2023-02-07T00:00:00	2024-11-06T20:00:00	2	Temperatura media	13.4
163546	7	Sololá	701	Sololá	2	El tablón	7	Julio	2023-02-07T00:00:00	2024-11-06T20:00:00	4	Temperatura máxima	13.6
163547	7	Sololá	701	Sololá	2	El tablón	7	Julio	2023-02-07T00:00:00	2024-11-06T20:00:00	3	Temperatura mínima	13.4
163548	7	Sololá	701	Sololá	2	El tablón	7	Julio	2023-02-07T00:00:00	2024-11-06T20:00:00	5	Humedad	87
163549	7	Sololá	701	Sololá	2	El tablón	7	Julio	2023-02-07T00:00:00	2024-11-06T20:00:00	6	Velocidad del viento	0
163550	7	Sololá	701	Sololá	2	El tablón	7	Julio	2023-02-07T00:00:00	2024-11-06T20:00:00	7	Dirección del viento	0
163551	7	Sololá	701	Sololá	2	El tablón	7	Julio	2023-02-07T00:00:00	2024-11-06T20:00:00	1	Precipitación	0.2
163552	7	Sololá	701	Sololá	2	El tablón	7	Julio	2023-02-07T00:00:00	2024-11-06T20:00:00	8	Radiación solar	0
163553	7	Sololá	701	Sololá	2	El tablón	7	Julio	2023-02-07T00:00:00	2024-11-06T21:00:00	2	Temperatura media	13.2
163554	7	Sololá	701	Sololá	2	El tablón	7	Julio	2023-02-07T00:00:00	2024-11-06T21:00:00	4	Temperatura máxima	13.5
163555	7	Sololá	701	Sololá	2	El tablón	7	Julio	2023-02-07T00:00:00	2024-11-06T21:00:00	3	Temperatura mínima	13.2
163556	7	Sololá	701	Sololá	2	El tablón	7	Julio	2023-02-07T00:00:00	2024-11-06T21:00:00	5	Humedad	88
163557	7	Sololá	701	Sololá	2	El tablón	7	Julio	2023-02-07T00:00:00	2024-11-06T21:00:00	6	Velocidad del viento	1.6
163558	7	Sololá	701	Sololá	2	El tablón	7	Julio	2023-02-07T00:00:00	2024-11-06T21:00:00	7	Dirección del viento	1.61
163559	7	Sololá	701	Sololá	2	El tablón	7	Julio	2023-02-07T00:00:00	2024-11-06T21:00:00	1	Precipitación	0
163560	7	Sololá	701	Sololá	2	El tablón	7	Julio	2023-02-07T00:00:00	2024-11-06T21:00:00	8	Radiación solar	0
163561	7	Sololá	701	Sololá	2	El tablón	7	Julio	2023-02-07T00:00:00	2024-11-06T22:00:00	2	Temperatura media	13.1
163562	7	Sololá	701	Sololá	2	El tablón	7	Julio	2023-02-07T00:00:00	2024-11-06T22:00:00	4	Temperatura máxima	13.2
163563	7	Sololá	701	Sololá	2	El tablón	7	Julio	2023-02-07T00:00:00	2024-11-06T22:00:00	3	Temperatura mínima	13
163564	7	Sololá	701	Sololá	2	El tablón	7	Julio	2023-02-07T00:00:00	2024-11-06T22:00:00	5	Humedad	89
163565	7	Sololá	701	Sololá	2	El tablón	7	Julio	2023-02-07T00:00:00	2024-11-06T22:00:00	6	Velocidad del viento	3.2
163566	7	Sololá	701	Sololá	2	El tablón	7	Julio	2023-02-07T00:00:00	2024-11-06T22:00:00	7	Dirección del viento	3.22
163567	7	Sololá	701	Sololá	2	El tablón	7	Julio	2023-02-07T00:00:00	2024-11-06T22:00:00	1	Precipitación	0
163568	7	Sololá	701	Sololá	2	El tablón	7	Julio	2023-02-07T00:00:00	2024-11-06T22:00:00	8	Radiación solar	0
163569	7	Sololá	701	Sololá	2	El tablón	7	Julio	2023-02-07T00:00:00	2024-11-06T23:00:00	2	Temperatura media	13.3
163570	7	Sololá	701	Sololá	2	El tablón	7	Julio	2023-02-07T00:00:00	2024-11-06T23:00:00	4	Temperatura máxima	13.3
163571	7	Sololá	701	Sololá	2	El tablón	7	Julio	2023-02-07T00:00:00	2024-11-06T23:00:00	3	Temperatura mínima	13.1
163572	7	Sololá	701	Sololá	2	El tablón	7	Julio	2023-02-07T00:00:00	2024-11-06T23:00:00	5	Humedad	89
163573	7	Sololá	701	Sololá	2	El tablón	7	Julio	2023-02-07T00:00:00	2024-11-06T23:00:00	6	Velocidad del viento	4.8
163574	7	Sololá	701	Sololá	2	El tablón	7	Julio	2023-02-07T00:00:00	2024-11-06T23:00:00	7	Dirección del viento	4.83
163575	7	Sololá	701	Sololá	2	El tablón	7	Julio	2023-02-07T00:00:00	2024-11-06T23:00:00	1	Precipitación	0
163576	7	Sololá	701	Sololá	2	El tablón	7	Julio	2023-02-07T00:00:00	2024-11-06T23:00:00	8	Radiación solar	0
163577	7	Sololá	701	Sololá	2	El tablón	7	Julio	2023-03-07T00:00:00	2024-11-06T00:00:00	2	Temperatura media	13.8
163578	7	Sololá	701	Sololá	2	El tablón	7	Julio	2023-03-07T00:00:00	2024-11-06T00:00:00	4	Temperatura máxima	13.8
163579	7	Sololá	701	Sololá	2	El tablón	7	Julio	2023-03-07T00:00:00	2024-11-06T00:00:00	3	Temperatura mínima	13.3
163580	7	Sololá	701	Sololá	2	El tablón	7	Julio	2023-03-07T00:00:00	2024-11-06T00:00:00	5	Humedad	88
163581	7	Sololá	701	Sololá	2	El tablón	7	Julio	2023-03-07T00:00:00	2024-11-06T00:00:00	6	Velocidad del viento	4.8
163582	7	Sololá	701	Sololá	2	El tablón	7	Julio	2023-03-07T00:00:00	2024-11-06T00:00:00	7	Dirección del viento	4.83
163583	7	Sololá	701	Sololá	2	El tablón	7	Julio	2023-03-07T00:00:00	2024-11-06T00:00:00	1	Precipitación	0
163584	7	Sololá	701	Sololá	2	El tablón	7	Julio	2023-03-07T00:00:00	2024-11-06T00:00:00	8	Radiación solar	0
163585	7	Sololá	701	Sololá	2	El tablón	7	Julio	2023-03-07T00:00:00	2024-11-06T01:00:00	2	Temperatura media	13.2
163586	7	Sololá	701	Sololá	2	El tablón	7	Julio	2023-03-07T00:00:00	2024-11-06T01:00:00	4	Temperatura máxima	13.8
163587	7	Sololá	701	Sololá	2	El tablón	7	Julio	2023-03-07T00:00:00	2024-11-06T01:00:00	3	Temperatura mínima	13.2
163588	7	Sololá	701	Sololá	2	El tablón	7	Julio	2023-03-07T00:00:00	2024-11-06T01:00:00	5	Humedad	89
163589	7	Sololá	701	Sololá	2	El tablón	7	Julio	2023-03-07T00:00:00	2024-11-06T01:00:00	6	Velocidad del viento	1.6
163590	7	Sololá	701	Sololá	2	El tablón	7	Julio	2023-03-07T00:00:00	2024-11-06T01:00:00	7	Dirección del viento	1.61
163591	7	Sololá	701	Sololá	2	El tablón	7	Julio	2023-03-07T00:00:00	2024-11-06T01:00:00	1	Precipitación	0
163592	7	Sololá	701	Sololá	2	El tablón	7	Julio	2023-03-07T00:00:00	2024-11-06T01:00:00	8	Radiación solar	0
163593	7	Sololá	701	Sololá	2	El tablón	7	Julio	2023-03-07T00:00:00	2024-11-06T02:00:00	2	Temperatura media	13.3
163594	7	Sololá	701	Sololá	2	El tablón	7	Julio	2023-03-07T00:00:00	2024-11-06T02:00:00	4	Temperatura máxima	13.3
163595	7	Sololá	701	Sololá	2	El tablón	7	Julio	2023-03-07T00:00:00	2024-11-06T02:00:00	3	Temperatura mínima	13.2
163596	7	Sololá	701	Sololá	2	El tablón	7	Julio	2023-03-07T00:00:00	2024-11-06T02:00:00	5	Humedad	89
163597	7	Sololá	701	Sololá	2	El tablón	7	Julio	2023-03-07T00:00:00	2024-11-06T02:00:00	6	Velocidad del viento	1.6
163598	7	Sololá	701	Sololá	2	El tablón	7	Julio	2023-03-07T00:00:00	2024-11-06T02:00:00	7	Dirección del viento	1.61
163599	7	Sololá	701	Sololá	2	El tablón	7	Julio	2023-03-07T00:00:00	2024-11-06T02:00:00	1	Precipitación	0
163600	7	Sololá	701	Sololá	2	El tablón	7	Julio	2023-03-07T00:00:00	2024-11-06T02:00:00	8	Radiación solar	0
163601	7	Sololá	701	Sololá	2	El tablón	7	Julio	2023-03-07T00:00:00	2024-11-06T03:00:00	2	Temperatura media	13.2
163602	7	Sololá	701	Sololá	2	El tablón	7	Julio	2023-03-07T00:00:00	2024-11-06T03:00:00	4	Temperatura máxima	13.4
163603	7	Sololá	701	Sololá	2	El tablón	7	Julio	2023-03-07T00:00:00	2024-11-06T03:00:00	3	Temperatura mínima	13.2
163604	7	Sololá	701	Sololá	2	El tablón	7	Julio	2023-03-07T00:00:00	2024-11-06T03:00:00	5	Humedad	89
163605	7	Sololá	701	Sololá	2	El tablón	7	Julio	2023-03-07T00:00:00	2024-11-06T03:00:00	6	Velocidad del viento	1.6
163606	7	Sololá	701	Sololá	2	El tablón	7	Julio	2023-03-07T00:00:00	2024-11-06T03:00:00	7	Dirección del viento	1.61
163607	7	Sololá	701	Sololá	2	El tablón	7	Julio	2023-03-07T00:00:00	2024-11-06T03:00:00	1	Precipitación	0
163608	7	Sololá	701	Sololá	2	El tablón	7	Julio	2023-03-07T00:00:00	2024-11-06T03:00:00	8	Radiación solar	0
163609	7	Sololá	701	Sololá	2	El tablón	7	Julio	2023-03-07T00:00:00	2024-11-06T04:00:00	2	Temperatura media	12.7
163610	7	Sololá	701	Sololá	2	El tablón	7	Julio	2023-03-07T00:00:00	2024-11-06T04:00:00	4	Temperatura máxima	13.2
163611	7	Sololá	701	Sololá	2	El tablón	7	Julio	2023-03-07T00:00:00	2024-11-06T04:00:00	3	Temperatura mínima	12.7
163612	7	Sololá	701	Sololá	2	El tablón	7	Julio	2023-03-07T00:00:00	2024-11-06T04:00:00	5	Humedad	89
163613	7	Sololá	701	Sololá	2	El tablón	7	Julio	2023-03-07T00:00:00	2024-11-06T04:00:00	6	Velocidad del viento	0
163614	7	Sololá	701	Sololá	2	El tablón	7	Julio	2023-03-07T00:00:00	2024-11-06T04:00:00	7	Dirección del viento	0
163615	7	Sololá	701	Sololá	2	El tablón	7	Julio	2023-03-07T00:00:00	2024-11-06T04:00:00	1	Precipitación	0
163616	7	Sololá	701	Sololá	2	El tablón	7	Julio	2023-03-07T00:00:00	2024-11-06T04:00:00	8	Radiación solar	0
163617	7	Sololá	701	Sololá	2	El tablón	7	Julio	2023-03-07T00:00:00	2024-11-06T05:00:00	2	Temperatura media	12.7
163618	7	Sololá	701	Sololá	2	El tablón	7	Julio	2023-03-07T00:00:00	2024-11-06T05:00:00	4	Temperatura máxima	12.7
163619	7	Sololá	701	Sololá	2	El tablón	7	Julio	2023-03-07T00:00:00	2024-11-06T05:00:00	3	Temperatura mínima	12.6
163620	7	Sololá	701	Sololá	2	El tablón	7	Julio	2023-03-07T00:00:00	2024-11-06T05:00:00	5	Humedad	88
163621	7	Sololá	701	Sololá	2	El tablón	7	Julio	2023-03-07T00:00:00	2024-11-06T05:00:00	6	Velocidad del viento	0
163622	7	Sololá	701	Sololá	2	El tablón	7	Julio	2023-03-07T00:00:00	2024-11-06T05:00:00	7	Dirección del viento	0
163623	7	Sololá	701	Sololá	2	El tablón	7	Julio	2023-03-07T00:00:00	2024-11-06T05:00:00	1	Precipitación	0
163624	7	Sololá	701	Sololá	2	El tablón	7	Julio	2023-03-07T00:00:00	2024-11-06T05:00:00	8	Radiación solar	0
163625	7	Sololá	701	Sololá	2	El tablón	7	Julio	2023-03-07T00:00:00	2024-11-06T06:00:00	2	Temperatura media	12.6
163626	7	Sololá	701	Sololá	2	El tablón	7	Julio	2023-03-07T00:00:00	2024-11-06T06:00:00	4	Temperatura máxima	12.7
163627	7	Sololá	701	Sololá	2	El tablón	7	Julio	2023-03-07T00:00:00	2024-11-06T06:00:00	3	Temperatura mínima	12.6
163628	7	Sololá	701	Sololá	2	El tablón	7	Julio	2023-03-07T00:00:00	2024-11-06T06:00:00	5	Humedad	88
163629	7	Sololá	701	Sololá	2	El tablón	7	Julio	2023-03-07T00:00:00	2024-11-06T06:00:00	6	Velocidad del viento	0
163630	7	Sololá	701	Sololá	2	El tablón	7	Julio	2023-03-07T00:00:00	2024-11-06T06:00:00	7	Dirección del viento	0
163631	7	Sololá	701	Sololá	2	El tablón	7	Julio	2023-03-07T00:00:00	2024-11-06T06:00:00	1	Precipitación	0
163632	7	Sololá	701	Sololá	2	El tablón	7	Julio	2023-03-07T00:00:00	2024-11-06T06:00:00	8	Radiación solar	0
163633	7	Sololá	701	Sololá	2	El tablón	7	Julio	2023-03-07T00:00:00	2024-11-06T07:00:00	2	Temperatura media	12.9
163634	7	Sololá	701	Sololá	2	El tablón	7	Julio	2023-03-07T00:00:00	2024-11-06T07:00:00	4	Temperatura máxima	12.9
163635	7	Sololá	701	Sololá	2	El tablón	7	Julio	2023-03-07T00:00:00	2024-11-06T07:00:00	3	Temperatura mínima	12.6
163636	7	Sololá	701	Sololá	2	El tablón	7	Julio	2023-03-07T00:00:00	2024-11-06T07:00:00	5	Humedad	87
163637	7	Sololá	701	Sololá	2	El tablón	7	Julio	2023-03-07T00:00:00	2024-11-06T07:00:00	6	Velocidad del viento	0
163638	7	Sololá	701	Sololá	2	El tablón	7	Julio	2023-03-07T00:00:00	2024-11-06T07:00:00	7	Dirección del viento	0
163639	7	Sololá	701	Sololá	2	El tablón	7	Julio	2023-03-07T00:00:00	2024-11-06T07:00:00	1	Precipitación	0
163640	7	Sololá	701	Sololá	2	El tablón	7	Julio	2023-03-07T00:00:00	2024-11-06T07:00:00	8	Radiación solar	30
163641	7	Sololá	701	Sololá	2	El tablón	7	Julio	2023-03-07T00:00:00	2024-11-06T08:00:00	2	Temperatura media	13.7
163642	7	Sololá	701	Sololá	2	El tablón	7	Julio	2023-03-07T00:00:00	2024-11-06T08:00:00	4	Temperatura máxima	13.8
163643	7	Sololá	701	Sololá	2	El tablón	7	Julio	2023-03-07T00:00:00	2024-11-06T08:00:00	3	Temperatura mínima	12.9
163644	7	Sololá	701	Sololá	2	El tablón	7	Julio	2023-03-07T00:00:00	2024-11-06T08:00:00	5	Humedad	88
163645	7	Sololá	701	Sololá	2	El tablón	7	Julio	2023-03-07T00:00:00	2024-11-06T08:00:00	6	Velocidad del viento	1.6
163646	7	Sololá	701	Sololá	2	El tablón	7	Julio	2023-03-07T00:00:00	2024-11-06T08:00:00	7	Dirección del viento	1.61
163647	7	Sololá	701	Sololá	2	El tablón	7	Julio	2023-03-07T00:00:00	2024-11-06T08:00:00	1	Precipitación	0
163648	7	Sololá	701	Sololá	2	El tablón	7	Julio	2023-03-07T00:00:00	2024-11-06T08:00:00	8	Radiación solar	128
163649	7	Sololá	701	Sololá	2	El tablón	7	Julio	2023-03-07T00:00:00	2024-11-06T09:00:00	2	Temperatura media	15.3
163650	7	Sololá	701	Sololá	2	El tablón	7	Julio	2023-03-07T00:00:00	2024-11-06T09:00:00	4	Temperatura máxima	15.3
163651	7	Sololá	701	Sololá	2	El tablón	7	Julio	2023-03-07T00:00:00	2024-11-06T09:00:00	3	Temperatura mínima	13.4
163652	7	Sololá	701	Sololá	2	El tablón	7	Julio	2023-03-07T00:00:00	2024-11-06T09:00:00	5	Humedad	89
163653	7	Sololá	701	Sololá	2	El tablón	7	Julio	2023-03-07T00:00:00	2024-11-06T09:00:00	6	Velocidad del viento	1.6
163654	7	Sololá	701	Sololá	2	El tablón	7	Julio	2023-03-07T00:00:00	2024-11-06T09:00:00	7	Dirección del viento	1.61
163655	7	Sololá	701	Sololá	2	El tablón	7	Julio	2023-03-07T00:00:00	2024-11-06T09:00:00	1	Precipitación	0
163656	7	Sololá	701	Sololá	2	El tablón	7	Julio	2023-03-07T00:00:00	2024-11-06T09:00:00	8	Radiación solar	222
163657	7	Sololá	701	Sololá	2	El tablón	7	Julio	2023-03-07T00:00:00	2024-11-06T10:00:00	2	Temperatura media	15.7
163658	7	Sololá	701	Sololá	2	El tablón	7	Julio	2023-03-07T00:00:00	2024-11-06T10:00:00	4	Temperatura máxima	15.7
163659	7	Sololá	701	Sololá	2	El tablón	7	Julio	2023-03-07T00:00:00	2024-11-06T10:00:00	3	Temperatura mínima	15.2
163660	7	Sololá	701	Sololá	2	El tablón	7	Julio	2023-03-07T00:00:00	2024-11-06T10:00:00	5	Humedad	88
163661	7	Sololá	701	Sololá	2	El tablón	7	Julio	2023-03-07T00:00:00	2024-11-06T10:00:00	6	Velocidad del viento	4.8
163662	7	Sololá	701	Sololá	2	El tablón	7	Julio	2023-03-07T00:00:00	2024-11-06T10:00:00	7	Dirección del viento	4.83
163663	7	Sololá	701	Sololá	2	El tablón	7	Julio	2023-03-07T00:00:00	2024-11-06T10:00:00	1	Precipitación	0
163664	7	Sololá	701	Sololá	2	El tablón	7	Julio	2023-03-07T00:00:00	2024-11-06T10:00:00	8	Radiación solar	291
163665	7	Sololá	701	Sololá	2	El tablón	7	Julio	2023-03-07T00:00:00	2024-11-06T11:00:00	2	Temperatura media	16.2
163666	7	Sololá	701	Sololá	2	El tablón	7	Julio	2023-03-07T00:00:00	2024-11-06T11:00:00	4	Temperatura máxima	17.3
163667	7	Sololá	701	Sololá	2	El tablón	7	Julio	2023-03-07T00:00:00	2024-11-06T11:00:00	3	Temperatura mínima	15.7
163668	7	Sololá	701	Sololá	2	El tablón	7	Julio	2023-03-07T00:00:00	2024-11-06T11:00:00	5	Humedad	88
163669	7	Sololá	701	Sololá	2	El tablón	7	Julio	2023-03-07T00:00:00	2024-11-06T11:00:00	6	Velocidad del viento	6.4
163670	7	Sololá	701	Sololá	2	El tablón	7	Julio	2023-03-07T00:00:00	2024-11-06T11:00:00	7	Dirección del viento	6.44
163671	7	Sololá	701	Sololá	2	El tablón	7	Julio	2023-03-07T00:00:00	2024-11-06T11:00:00	1	Precipitación	0
163672	7	Sololá	701	Sololá	2	El tablón	7	Julio	2023-03-07T00:00:00	2024-11-06T11:00:00	8	Radiación solar	485
163673	7	Sololá	701	Sololá	2	El tablón	7	Julio	2023-03-07T00:00:00	2024-11-06T12:00:00	2	Temperatura media	16.8
163674	7	Sololá	701	Sololá	2	El tablón	7	Julio	2023-03-07T00:00:00	2024-11-06T12:00:00	4	Temperatura máxima	17.1
163675	7	Sololá	701	Sololá	2	El tablón	7	Julio	2023-03-07T00:00:00	2024-11-06T12:00:00	3	Temperatura mínima	15.9
163676	7	Sololá	701	Sololá	2	El tablón	7	Julio	2023-03-07T00:00:00	2024-11-06T12:00:00	5	Humedad	87
163677	7	Sololá	701	Sololá	2	El tablón	7	Julio	2023-03-07T00:00:00	2024-11-06T12:00:00	6	Velocidad del viento	8
163678	7	Sololá	701	Sololá	2	El tablón	7	Julio	2023-03-07T00:00:00	2024-11-06T12:00:00	7	Dirección del viento	8.05
163679	7	Sololá	701	Sololá	2	El tablón	7	Julio	2023-03-07T00:00:00	2024-11-06T12:00:00	1	Precipitación	0
163680	7	Sololá	701	Sololá	2	El tablón	7	Julio	2023-03-07T00:00:00	2024-11-06T12:00:00	8	Radiación solar	421
163681	7	Sololá	701	Sololá	2	El tablón	7	Julio	2023-03-07T00:00:00	2024-11-06T13:00:00	2	Temperatura media	17.6
163682	7	Sololá	701	Sololá	2	El tablón	7	Julio	2023-03-07T00:00:00	2024-11-06T13:00:00	4	Temperatura máxima	18.2
163683	7	Sololá	701	Sololá	2	El tablón	7	Julio	2023-03-07T00:00:00	2024-11-06T13:00:00	3	Temperatura mínima	16.8
163684	7	Sololá	701	Sololá	2	El tablón	7	Julio	2023-03-07T00:00:00	2024-11-06T13:00:00	5	Humedad	87
163685	7	Sololá	701	Sololá	2	El tablón	7	Julio	2023-03-07T00:00:00	2024-11-06T13:00:00	6	Velocidad del viento	6.4
163686	7	Sololá	701	Sololá	2	El tablón	7	Julio	2023-03-07T00:00:00	2024-11-06T13:00:00	7	Dirección del viento	6.44
163687	7	Sololá	701	Sololá	2	El tablón	7	Julio	2023-03-07T00:00:00	2024-11-06T13:00:00	1	Precipitación	0
163688	7	Sololá	701	Sololá	2	El tablón	7	Julio	2023-03-07T00:00:00	2024-11-06T13:00:00	8	Radiación solar	619
163689	7	Sololá	701	Sololá	2	El tablón	7	Julio	2023-03-07T00:00:00	2024-11-06T14:00:00	2	Temperatura media	15.6
163690	7	Sololá	701	Sololá	2	El tablón	7	Julio	2023-03-07T00:00:00	2024-11-06T14:00:00	4	Temperatura máxima	17.6
163691	7	Sololá	701	Sololá	2	El tablón	7	Julio	2023-03-07T00:00:00	2024-11-06T14:00:00	3	Temperatura mínima	15.6
163692	7	Sololá	701	Sololá	2	El tablón	7	Julio	2023-03-07T00:00:00	2024-11-06T14:00:00	5	Humedad	88
163693	7	Sololá	701	Sololá	2	El tablón	7	Julio	2023-03-07T00:00:00	2024-11-06T14:00:00	6	Velocidad del viento	4.8
163694	7	Sololá	701	Sololá	2	El tablón	7	Julio	2023-03-07T00:00:00	2024-11-06T14:00:00	7	Dirección del viento	4.83
163695	7	Sololá	701	Sololá	2	El tablón	7	Julio	2023-03-07T00:00:00	2024-11-06T14:00:00	1	Precipitación	0
163696	7	Sololá	701	Sololá	2	El tablón	7	Julio	2023-03-07T00:00:00	2024-11-06T14:00:00	8	Radiación solar	170
163697	7	Sololá	701	Sololá	2	El tablón	7	Julio	2023-03-07T00:00:00	2024-11-06T15:00:00	2	Temperatura media	15.3
163698	7	Sololá	701	Sololá	2	El tablón	7	Julio	2023-03-07T00:00:00	2024-11-06T15:00:00	4	Temperatura máxima	15.6
163699	7	Sololá	701	Sololá	2	El tablón	7	Julio	2023-03-07T00:00:00	2024-11-06T15:00:00	3	Temperatura mínima	15.3
163700	7	Sololá	701	Sololá	2	El tablón	7	Julio	2023-03-07T00:00:00	2024-11-06T15:00:00	5	Humedad	88
163701	7	Sololá	701	Sololá	2	El tablón	7	Julio	2023-03-07T00:00:00	2024-11-06T15:00:00	6	Velocidad del viento	3.2
163702	7	Sololá	701	Sololá	2	El tablón	7	Julio	2023-03-07T00:00:00	2024-11-06T15:00:00	7	Dirección del viento	3.22
163703	7	Sololá	701	Sololá	2	El tablón	7	Julio	2023-03-07T00:00:00	2024-11-06T15:00:00	1	Precipitación	2
163704	7	Sololá	701	Sololá	2	El tablón	7	Julio	2023-03-07T00:00:00	2024-11-06T15:00:00	8	Radiación solar	104
163705	7	Sololá	701	Sololá	2	El tablón	7	Julio	2023-03-07T00:00:00	2024-11-06T16:00:00	2	Temperatura media	15.8
163706	7	Sololá	701	Sololá	2	El tablón	7	Julio	2023-03-07T00:00:00	2024-11-06T16:00:00	4	Temperatura máxima	15.8
163707	7	Sololá	701	Sololá	2	El tablón	7	Julio	2023-03-07T00:00:00	2024-11-06T16:00:00	3	Temperatura mínima	15.2
163708	7	Sololá	701	Sololá	2	El tablón	7	Julio	2023-03-07T00:00:00	2024-11-06T16:00:00	5	Humedad	88
163709	7	Sololá	701	Sololá	2	El tablón	7	Julio	2023-03-07T00:00:00	2024-11-06T16:00:00	6	Velocidad del viento	1.6
163710	7	Sololá	701	Sololá	2	El tablón	7	Julio	2023-03-07T00:00:00	2024-11-06T16:00:00	7	Dirección del viento	1.61
163711	7	Sololá	701	Sololá	2	El tablón	7	Julio	2023-03-07T00:00:00	2024-11-06T16:00:00	1	Precipitación	0.2
163712	7	Sololá	701	Sololá	2	El tablón	7	Julio	2023-03-07T00:00:00	2024-11-06T16:00:00	8	Radiación solar	195
163713	7	Sololá	701	Sololá	2	El tablón	7	Julio	2023-03-07T00:00:00	2024-11-06T17:00:00	2	Temperatura media	14.9
163714	7	Sololá	701	Sololá	2	El tablón	7	Julio	2023-03-07T00:00:00	2024-11-06T17:00:00	4	Temperatura máxima	16.2
163715	7	Sololá	701	Sololá	2	El tablón	7	Julio	2023-03-07T00:00:00	2024-11-06T17:00:00	3	Temperatura mínima	14.9
163716	7	Sololá	701	Sololá	2	El tablón	7	Julio	2023-03-07T00:00:00	2024-11-06T17:00:00	5	Humedad	88
163717	7	Sololá	701	Sololá	2	El tablón	7	Julio	2023-03-07T00:00:00	2024-11-06T17:00:00	6	Velocidad del viento	3.2
163718	7	Sololá	701	Sololá	2	El tablón	7	Julio	2023-03-07T00:00:00	2024-11-06T17:00:00	7	Dirección del viento	3.22
163719	7	Sololá	701	Sololá	2	El tablón	7	Julio	2023-03-07T00:00:00	2024-11-06T17:00:00	1	Precipitación	0
163720	7	Sololá	701	Sololá	2	El tablón	7	Julio	2023-03-07T00:00:00	2024-11-06T17:00:00	8	Radiación solar	87
163721	7	Sololá	701	Sololá	2	El tablón	7	Julio	2023-03-07T00:00:00	2024-11-06T18:00:00	2	Temperatura media	14.7
163722	7	Sololá	701	Sololá	2	El tablón	7	Julio	2023-03-07T00:00:00	2024-11-06T18:00:00	4	Temperatura máxima	15
163723	7	Sololá	701	Sololá	2	El tablón	7	Julio	2023-03-07T00:00:00	2024-11-06T18:00:00	3	Temperatura mínima	14.7
163724	7	Sololá	701	Sololá	2	El tablón	7	Julio	2023-03-07T00:00:00	2024-11-06T18:00:00	5	Humedad	88
163725	7	Sololá	701	Sololá	2	El tablón	7	Julio	2023-03-07T00:00:00	2024-11-06T18:00:00	6	Velocidad del viento	1.6
163726	7	Sololá	701	Sololá	2	El tablón	7	Julio	2023-03-07T00:00:00	2024-11-06T18:00:00	7	Dirección del viento	1.61
163727	7	Sololá	701	Sololá	2	El tablón	7	Julio	2023-03-07T00:00:00	2024-11-06T18:00:00	1	Precipitación	2.8
163728	7	Sololá	701	Sololá	2	El tablón	7	Julio	2023-03-07T00:00:00	2024-11-06T18:00:00	8	Radiación solar	8
163729	7	Sololá	701	Sololá	2	El tablón	7	Julio	2023-03-07T00:00:00	2024-11-06T19:00:00	2	Temperatura media	14.4
163730	7	Sololá	701	Sololá	2	El tablón	7	Julio	2023-03-07T00:00:00	2024-11-06T19:00:00	4	Temperatura máxima	14.7
163731	7	Sololá	701	Sololá	2	El tablón	7	Julio	2023-03-07T00:00:00	2024-11-06T19:00:00	3	Temperatura mínima	14.4
163732	7	Sololá	701	Sololá	2	El tablón	7	Julio	2023-03-07T00:00:00	2024-11-06T19:00:00	5	Humedad	87
163733	7	Sololá	701	Sololá	2	El tablón	7	Julio	2023-03-07T00:00:00	2024-11-06T19:00:00	6	Velocidad del viento	1.6
163734	7	Sololá	701	Sololá	2	El tablón	7	Julio	2023-03-07T00:00:00	2024-11-06T19:00:00	7	Dirección del viento	1.61
163735	7	Sololá	701	Sololá	2	El tablón	7	Julio	2023-03-07T00:00:00	2024-11-06T19:00:00	1	Precipitación	0
163736	7	Sololá	701	Sololá	2	El tablón	7	Julio	2023-03-07T00:00:00	2024-11-06T19:00:00	8	Radiación solar	0
163737	7	Sololá	701	Sololá	2	El tablón	7	Julio	2023-03-07T00:00:00	2024-11-06T20:00:00	2	Temperatura media	13.5
163738	7	Sololá	701	Sololá	2	El tablón	7	Julio	2023-03-07T00:00:00	2024-11-06T20:00:00	4	Temperatura máxima	14.4
163739	7	Sololá	701	Sololá	2	El tablón	7	Julio	2023-03-07T00:00:00	2024-11-06T20:00:00	3	Temperatura mínima	13.4
163740	7	Sololá	701	Sololá	2	El tablón	7	Julio	2023-03-07T00:00:00	2024-11-06T20:00:00	5	Humedad	87
163741	7	Sololá	701	Sololá	2	El tablón	7	Julio	2023-03-07T00:00:00	2024-11-06T20:00:00	6	Velocidad del viento	4.8
163742	7	Sololá	701	Sololá	2	El tablón	7	Julio	2023-03-07T00:00:00	2024-11-06T20:00:00	7	Dirección del viento	4.83
163743	7	Sololá	701	Sololá	2	El tablón	7	Julio	2023-03-07T00:00:00	2024-11-06T20:00:00	1	Precipitación	1.8
163744	7	Sololá	701	Sololá	2	El tablón	7	Julio	2023-03-07T00:00:00	2024-11-06T20:00:00	8	Radiación solar	0
163745	7	Sololá	701	Sololá	2	El tablón	7	Julio	2023-03-07T00:00:00	2024-11-06T21:00:00	2	Temperatura media	13.4
163746	7	Sololá	701	Sololá	2	El tablón	7	Julio	2023-03-07T00:00:00	2024-11-06T21:00:00	4	Temperatura máxima	13.6
163747	7	Sololá	701	Sololá	2	El tablón	7	Julio	2023-03-07T00:00:00	2024-11-06T21:00:00	3	Temperatura mínima	13.4
163748	7	Sololá	701	Sololá	2	El tablón	7	Julio	2023-03-07T00:00:00	2024-11-06T21:00:00	5	Humedad	87
163749	7	Sololá	701	Sololá	2	El tablón	7	Julio	2023-03-07T00:00:00	2024-11-06T21:00:00	6	Velocidad del viento	1.6
163750	7	Sololá	701	Sololá	2	El tablón	7	Julio	2023-03-07T00:00:00	2024-11-06T21:00:00	7	Dirección del viento	1.61
163751	7	Sololá	701	Sololá	2	El tablón	7	Julio	2023-03-07T00:00:00	2024-11-06T21:00:00	1	Precipitación	4.6
163752	7	Sololá	701	Sololá	2	El tablón	7	Julio	2023-03-07T00:00:00	2024-11-06T21:00:00	8	Radiación solar	0
163753	7	Sololá	701	Sololá	2	El tablón	7	Julio	2023-03-07T00:00:00	2024-11-06T22:00:00	2	Temperatura media	13.2
163754	7	Sololá	701	Sololá	2	El tablón	7	Julio	2023-03-07T00:00:00	2024-11-06T22:00:00	4	Temperatura máxima	13.4
163755	7	Sololá	701	Sololá	2	El tablón	7	Julio	2023-03-07T00:00:00	2024-11-06T22:00:00	3	Temperatura mínima	13.2
163756	7	Sololá	701	Sololá	2	El tablón	7	Julio	2023-03-07T00:00:00	2024-11-06T22:00:00	5	Humedad	87
163757	7	Sololá	701	Sololá	2	El tablón	7	Julio	2023-03-07T00:00:00	2024-11-06T22:00:00	6	Velocidad del viento	0
163758	7	Sololá	701	Sololá	2	El tablón	7	Julio	2023-03-07T00:00:00	2024-11-06T22:00:00	7	Dirección del viento	0
163759	7	Sololá	701	Sololá	2	El tablón	7	Julio	2023-03-07T00:00:00	2024-11-06T22:00:00	1	Precipitación	1.6
163760	7	Sololá	701	Sololá	2	El tablón	7	Julio	2023-03-07T00:00:00	2024-11-06T22:00:00	8	Radiación solar	0
163761	7	Sololá	701	Sololá	2	El tablón	7	Julio	2023-03-07T00:00:00	2024-11-06T23:00:00	2	Temperatura media	13.3
163762	7	Sololá	701	Sololá	2	El tablón	7	Julio	2023-03-07T00:00:00	2024-11-06T23:00:00	4	Temperatura máxima	13.3
163763	7	Sololá	701	Sololá	2	El tablón	7	Julio	2023-03-07T00:00:00	2024-11-06T23:00:00	3	Temperatura mínima	13.1
163764	7	Sololá	701	Sololá	2	El tablón	7	Julio	2023-03-07T00:00:00	2024-11-06T23:00:00	5	Humedad	86
163765	7	Sololá	701	Sololá	2	El tablón	7	Julio	2023-03-07T00:00:00	2024-11-06T23:00:00	6	Velocidad del viento	0
163766	7	Sololá	701	Sololá	2	El tablón	7	Julio	2023-03-07T00:00:00	2024-11-06T23:00:00	7	Dirección del viento	0
163767	7	Sololá	701	Sololá	2	El tablón	7	Julio	2023-03-07T00:00:00	2024-11-06T23:00:00	1	Precipitación	0.8
163768	7	Sololá	701	Sololá	2	El tablón	7	Julio	2023-03-07T00:00:00	2024-11-06T23:00:00	8	Radiación solar	0
163769	7	Sololá	701	Sololá	2	El tablón	7	Julio	2023-04-07T00:00:00	2024-11-06T00:00:00	2	Temperatura media	12.9
163770	7	Sololá	701	Sololá	2	El tablón	7	Julio	2023-04-07T00:00:00	2024-11-06T00:00:00	4	Temperatura máxima	13.3
163771	7	Sololá	701	Sololá	2	El tablón	7	Julio	2023-04-07T00:00:00	2024-11-06T00:00:00	3	Temperatura mínima	12.9
163772	7	Sololá	701	Sololá	2	El tablón	7	Julio	2023-04-07T00:00:00	2024-11-06T00:00:00	5	Humedad	87
163773	7	Sololá	701	Sololá	2	El tablón	7	Julio	2023-04-07T00:00:00	2024-11-06T00:00:00	6	Velocidad del viento	0
163774	7	Sololá	701	Sololá	2	El tablón	7	Julio	2023-04-07T00:00:00	2024-11-06T00:00:00	7	Dirección del viento	0
163775	7	Sololá	701	Sololá	2	El tablón	7	Julio	2023-04-07T00:00:00	2024-11-06T00:00:00	1	Precipitación	0.4
163776	7	Sololá	701	Sololá	2	El tablón	7	Julio	2023-04-07T00:00:00	2024-11-06T00:00:00	8	Radiación solar	0
163777	7	Sololá	701	Sololá	2	El tablón	7	Julio	2023-04-07T00:00:00	2024-11-06T01:00:00	2	Temperatura media	12.9
163778	7	Sololá	701	Sololá	2	El tablón	7	Julio	2023-04-07T00:00:00	2024-11-06T01:00:00	4	Temperatura máxima	13.1
163779	7	Sololá	701	Sololá	2	El tablón	7	Julio	2023-04-07T00:00:00	2024-11-06T01:00:00	3	Temperatura mínima	12.9
163780	7	Sololá	701	Sololá	2	El tablón	7	Julio	2023-04-07T00:00:00	2024-11-06T01:00:00	5	Humedad	86
163781	7	Sololá	701	Sololá	2	El tablón	7	Julio	2023-04-07T00:00:00	2024-11-06T01:00:00	6	Velocidad del viento	0
163782	7	Sololá	701	Sololá	2	El tablón	7	Julio	2023-04-07T00:00:00	2024-11-06T01:00:00	7	Dirección del viento	0
163783	7	Sololá	701	Sololá	2	El tablón	7	Julio	2023-04-07T00:00:00	2024-11-06T01:00:00	1	Precipitación	0.2
163784	7	Sololá	701	Sololá	2	El tablón	7	Julio	2023-04-07T00:00:00	2024-11-06T01:00:00	8	Radiación solar	0
163785	7	Sololá	701	Sololá	2	El tablón	7	Julio	2023-04-07T00:00:00	2024-11-06T02:00:00	2	Temperatura media	12.8
163786	7	Sololá	701	Sololá	2	El tablón	7	Julio	2023-04-07T00:00:00	2024-11-06T02:00:00	4	Temperatura máxima	13
163787	7	Sololá	701	Sololá	2	El tablón	7	Julio	2023-04-07T00:00:00	2024-11-06T02:00:00	3	Temperatura mínima	12.8
163788	7	Sololá	701	Sololá	2	El tablón	7	Julio	2023-04-07T00:00:00	2024-11-06T02:00:00	5	Humedad	87
163789	7	Sololá	701	Sololá	2	El tablón	7	Julio	2023-04-07T00:00:00	2024-11-06T02:00:00	6	Velocidad del viento	0
163790	7	Sololá	701	Sololá	2	El tablón	7	Julio	2023-04-07T00:00:00	2024-11-06T02:00:00	7	Dirección del viento	0
163791	7	Sololá	701	Sololá	2	El tablón	7	Julio	2023-04-07T00:00:00	2024-11-06T02:00:00	1	Precipitación	0
163792	7	Sololá	701	Sololá	2	El tablón	7	Julio	2023-04-07T00:00:00	2024-11-06T02:00:00	8	Radiación solar	0
163793	7	Sololá	701	Sololá	2	El tablón	7	Julio	2023-04-07T00:00:00	2024-11-06T03:00:00	2	Temperatura media	12.8
163794	7	Sololá	701	Sololá	2	El tablón	7	Julio	2023-04-07T00:00:00	2024-11-06T03:00:00	4	Temperatura máxima	12.9
163795	7	Sololá	701	Sololá	2	El tablón	7	Julio	2023-04-07T00:00:00	2024-11-06T03:00:00	3	Temperatura mínima	12.8
163796	7	Sololá	701	Sololá	2	El tablón	7	Julio	2023-04-07T00:00:00	2024-11-06T03:00:00	5	Humedad	87
163797	7	Sololá	701	Sololá	2	El tablón	7	Julio	2023-04-07T00:00:00	2024-11-06T03:00:00	6	Velocidad del viento	0
163798	7	Sololá	701	Sololá	2	El tablón	7	Julio	2023-04-07T00:00:00	2024-11-06T03:00:00	7	Dirección del viento	0
163799	7	Sololá	701	Sololá	2	El tablón	7	Julio	2023-04-07T00:00:00	2024-11-06T03:00:00	1	Precipitación	0
163800	7	Sololá	701	Sololá	2	El tablón	7	Julio	2023-04-07T00:00:00	2024-11-06T03:00:00	8	Radiación solar	0
163801	7	Sololá	701	Sololá	2	El tablón	7	Julio	2023-04-07T00:00:00	2024-11-06T04:00:00	2	Temperatura media	12.7
163802	7	Sololá	701	Sololá	2	El tablón	7	Julio	2023-04-07T00:00:00	2024-11-06T04:00:00	4	Temperatura máxima	12.8
163803	7	Sololá	701	Sololá	2	El tablón	7	Julio	2023-04-07T00:00:00	2024-11-06T04:00:00	3	Temperatura mínima	12.6
163804	7	Sololá	701	Sololá	2	El tablón	7	Julio	2023-04-07T00:00:00	2024-11-06T04:00:00	5	Humedad	88
163805	7	Sololá	701	Sololá	2	El tablón	7	Julio	2023-04-07T00:00:00	2024-11-06T04:00:00	6	Velocidad del viento	1.6
163806	7	Sololá	701	Sololá	2	El tablón	7	Julio	2023-04-07T00:00:00	2024-11-06T04:00:00	7	Dirección del viento	1.61
163807	7	Sololá	701	Sololá	2	El tablón	7	Julio	2023-04-07T00:00:00	2024-11-06T04:00:00	1	Precipitación	0
163808	7	Sololá	701	Sololá	2	El tablón	7	Julio	2023-04-07T00:00:00	2024-11-06T04:00:00	8	Radiación solar	0
163809	7	Sololá	701	Sololá	2	El tablón	7	Julio	2023-04-07T00:00:00	2024-11-06T05:00:00	2	Temperatura media	12.7
163810	7	Sololá	701	Sololá	2	El tablón	7	Julio	2023-04-07T00:00:00	2024-11-06T05:00:00	4	Temperatura máxima	12.7
163811	7	Sololá	701	Sololá	2	El tablón	7	Julio	2023-04-07T00:00:00	2024-11-06T05:00:00	3	Temperatura mínima	12.7
163812	7	Sololá	701	Sololá	2	El tablón	7	Julio	2023-04-07T00:00:00	2024-11-06T05:00:00	5	Humedad	88
163813	7	Sololá	701	Sololá	2	El tablón	7	Julio	2023-04-07T00:00:00	2024-11-06T05:00:00	6	Velocidad del viento	0
163814	7	Sololá	701	Sololá	2	El tablón	7	Julio	2023-04-07T00:00:00	2024-11-06T05:00:00	7	Dirección del viento	0
163815	7	Sololá	701	Sololá	2	El tablón	7	Julio	2023-04-07T00:00:00	2024-11-06T05:00:00	1	Precipitación	0
163816	7	Sololá	701	Sololá	2	El tablón	7	Julio	2023-04-07T00:00:00	2024-11-06T05:00:00	8	Radiación solar	0
163817	7	Sololá	701	Sololá	2	El tablón	7	Julio	2023-04-07T00:00:00	2024-11-06T06:00:00	2	Temperatura media	12.6
163818	7	Sololá	701	Sololá	2	El tablón	7	Julio	2023-04-07T00:00:00	2024-11-06T06:00:00	4	Temperatura máxima	12.7
163819	7	Sololá	701	Sololá	2	El tablón	7	Julio	2023-04-07T00:00:00	2024-11-06T06:00:00	3	Temperatura mínima	12.6
163820	7	Sololá	701	Sololá	2	El tablón	7	Julio	2023-04-07T00:00:00	2024-11-06T06:00:00	5	Humedad	89
163821	7	Sololá	701	Sololá	2	El tablón	7	Julio	2023-04-07T00:00:00	2024-11-06T06:00:00	6	Velocidad del viento	1.6
163822	7	Sololá	701	Sololá	2	El tablón	7	Julio	2023-04-07T00:00:00	2024-11-06T06:00:00	7	Dirección del viento	1.61
163823	7	Sololá	701	Sololá	2	El tablón	7	Julio	2023-04-07T00:00:00	2024-11-06T06:00:00	1	Precipitación	0
163824	7	Sololá	701	Sololá	2	El tablón	7	Julio	2023-04-07T00:00:00	2024-11-06T06:00:00	8	Radiación solar	2
163825	7	Sololá	701	Sololá	2	El tablón	7	Julio	2023-04-07T00:00:00	2024-11-06T07:00:00	2	Temperatura media	12.8
163826	7	Sololá	701	Sololá	2	El tablón	7	Julio	2023-04-07T00:00:00	2024-11-06T07:00:00	4	Temperatura máxima	12.8
163827	7	Sololá	701	Sololá	2	El tablón	7	Julio	2023-04-07T00:00:00	2024-11-06T07:00:00	3	Temperatura mínima	12.6
163828	7	Sololá	701	Sololá	2	El tablón	7	Julio	2023-04-07T00:00:00	2024-11-06T07:00:00	5	Humedad	88
163829	7	Sololá	701	Sololá	2	El tablón	7	Julio	2023-04-07T00:00:00	2024-11-06T07:00:00	6	Velocidad del viento	0
163830	7	Sololá	701	Sololá	2	El tablón	7	Julio	2023-04-07T00:00:00	2024-11-06T07:00:00	7	Dirección del viento	0
163831	7	Sololá	701	Sololá	2	El tablón	7	Julio	2023-04-07T00:00:00	2024-11-06T07:00:00	1	Precipitación	0
163832	7	Sololá	701	Sololá	2	El tablón	7	Julio	2023-04-07T00:00:00	2024-11-06T07:00:00	8	Radiación solar	52
163833	7	Sololá	701	Sololá	2	El tablón	7	Julio	2023-04-07T00:00:00	2024-11-06T08:00:00	2	Temperatura media	13.4
163834	7	Sololá	701	Sololá	2	El tablón	7	Julio	2023-04-07T00:00:00	2024-11-06T08:00:00	4	Temperatura máxima	13.4
163835	7	Sololá	701	Sololá	2	El tablón	7	Julio	2023-04-07T00:00:00	2024-11-06T08:00:00	3	Temperatura mínima	12.8
163836	7	Sololá	701	Sololá	2	El tablón	7	Julio	2023-04-07T00:00:00	2024-11-06T08:00:00	5	Humedad	89
163837	7	Sololá	701	Sololá	2	El tablón	7	Julio	2023-04-07T00:00:00	2024-11-06T08:00:00	6	Velocidad del viento	1.6
163838	7	Sololá	701	Sololá	2	El tablón	7	Julio	2023-04-07T00:00:00	2024-11-06T08:00:00	7	Dirección del viento	1.61
163839	7	Sololá	701	Sololá	2	El tablón	7	Julio	2023-04-07T00:00:00	2024-11-06T08:00:00	1	Precipitación	0
163840	7	Sololá	701	Sololá	2	El tablón	7	Julio	2023-04-07T00:00:00	2024-11-06T08:00:00	8	Radiación solar	109
163841	7	Sololá	701	Sololá	2	El tablón	7	Julio	2023-04-07T00:00:00	2024-11-06T09:00:00	2	Temperatura media	14.4
163842	7	Sololá	701	Sololá	2	El tablón	7	Julio	2023-04-07T00:00:00	2024-11-06T09:00:00	4	Temperatura máxima	14.4
163843	7	Sololá	701	Sololá	2	El tablón	7	Julio	2023-04-07T00:00:00	2024-11-06T09:00:00	3	Temperatura mínima	13.4
163844	7	Sololá	701	Sololá	2	El tablón	7	Julio	2023-04-07T00:00:00	2024-11-06T09:00:00	5	Humedad	89
163845	7	Sololá	701	Sololá	2	El tablón	7	Julio	2023-04-07T00:00:00	2024-11-06T09:00:00	6	Velocidad del viento	3.2
163846	7	Sololá	701	Sololá	2	El tablón	7	Julio	2023-04-07T00:00:00	2024-11-06T09:00:00	7	Dirección del viento	3.22
163847	7	Sololá	701	Sololá	2	El tablón	7	Julio	2023-04-07T00:00:00	2024-11-06T09:00:00	1	Precipitación	0
163848	7	Sololá	701	Sololá	2	El tablón	7	Julio	2023-04-07T00:00:00	2024-11-06T09:00:00	8	Radiación solar	274
163849	7	Sololá	701	Sololá	2	El tablón	7	Julio	2023-04-07T00:00:00	2024-11-06T10:00:00	2	Temperatura media	16.9
163850	7	Sololá	701	Sololá	2	El tablón	7	Julio	2023-04-07T00:00:00	2024-11-06T10:00:00	4	Temperatura máxima	17.5
163851	7	Sololá	701	Sololá	2	El tablón	7	Julio	2023-04-07T00:00:00	2024-11-06T10:00:00	3	Temperatura mínima	14.4
163852	7	Sololá	701	Sololá	2	El tablón	7	Julio	2023-04-07T00:00:00	2024-11-06T10:00:00	5	Humedad	86
163853	7	Sololá	701	Sololá	2	El tablón	7	Julio	2023-04-07T00:00:00	2024-11-06T10:00:00	6	Velocidad del viento	3.2
163854	7	Sololá	701	Sololá	2	El tablón	7	Julio	2023-04-07T00:00:00	2024-11-06T10:00:00	7	Dirección del viento	3.22
163855	7	Sololá	701	Sololá	2	El tablón	7	Julio	2023-04-07T00:00:00	2024-11-06T10:00:00	1	Precipitación	0
163856	7	Sololá	701	Sololá	2	El tablón	7	Julio	2023-04-07T00:00:00	2024-11-06T10:00:00	8	Radiación solar	532
163857	7	Sololá	701	Sololá	2	El tablón	7	Julio	2023-04-07T00:00:00	2024-11-06T11:00:00	2	Temperatura media	16.6
163858	7	Sololá	701	Sololá	2	El tablón	7	Julio	2023-04-07T00:00:00	2024-11-06T11:00:00	4	Temperatura máxima	17.8
163859	7	Sololá	701	Sololá	2	El tablón	7	Julio	2023-04-07T00:00:00	2024-11-06T11:00:00	3	Temperatura mínima	16.6
163860	7	Sololá	701	Sololá	2	El tablón	7	Julio	2023-04-07T00:00:00	2024-11-06T11:00:00	5	Humedad	86
163861	7	Sololá	701	Sololá	2	El tablón	7	Julio	2023-04-07T00:00:00	2024-11-06T11:00:00	6	Velocidad del viento	4.8
163862	7	Sololá	701	Sololá	2	El tablón	7	Julio	2023-04-07T00:00:00	2024-11-06T11:00:00	7	Dirección del viento	4.83
163863	7	Sololá	701	Sololá	2	El tablón	7	Julio	2023-04-07T00:00:00	2024-11-06T11:00:00	1	Precipitación	0
163864	7	Sololá	701	Sololá	2	El tablón	7	Julio	2023-04-07T00:00:00	2024-11-06T11:00:00	8	Radiación solar	448
163865	7	Sololá	701	Sololá	2	El tablón	7	Julio	2023-04-07T00:00:00	2024-11-06T12:00:00	2	Temperatura media	17.9
163866	7	Sololá	701	Sololá	2	El tablón	7	Julio	2023-04-07T00:00:00	2024-11-06T12:00:00	4	Temperatura máxima	17.9
163867	7	Sololá	701	Sololá	2	El tablón	7	Julio	2023-04-07T00:00:00	2024-11-06T12:00:00	3	Temperatura mínima	16.3
163868	7	Sololá	701	Sololá	2	El tablón	7	Julio	2023-04-07T00:00:00	2024-11-06T12:00:00	5	Humedad	83
163869	7	Sololá	701	Sololá	2	El tablón	7	Julio	2023-04-07T00:00:00	2024-11-06T12:00:00	6	Velocidad del viento	4.8
163870	7	Sololá	701	Sololá	2	El tablón	7	Julio	2023-04-07T00:00:00	2024-11-06T12:00:00	7	Dirección del viento	4.83
163871	7	Sololá	701	Sololá	2	El tablón	7	Julio	2023-04-07T00:00:00	2024-11-06T12:00:00	1	Precipitación	0
163872	7	Sololá	701	Sololá	2	El tablón	7	Julio	2023-04-07T00:00:00	2024-11-06T12:00:00	8	Radiación solar	522
163873	7	Sololá	701	Sololá	2	El tablón	7	Julio	2023-04-07T00:00:00	2024-11-06T13:00:00	2	Temperatura media	18
163874	7	Sololá	701	Sololá	2	El tablón	7	Julio	2023-04-07T00:00:00	2024-11-06T13:00:00	4	Temperatura máxima	18.3
163875	7	Sololá	701	Sololá	2	El tablón	7	Julio	2023-04-07T00:00:00	2024-11-06T13:00:00	3	Temperatura mínima	17.4
163876	7	Sololá	701	Sololá	2	El tablón	7	Julio	2023-04-07T00:00:00	2024-11-06T13:00:00	5	Humedad	83
163877	7	Sololá	701	Sololá	2	El tablón	7	Julio	2023-04-07T00:00:00	2024-11-06T13:00:00	6	Velocidad del viento	6.4
163878	7	Sololá	701	Sololá	2	El tablón	7	Julio	2023-04-07T00:00:00	2024-11-06T13:00:00	7	Dirección del viento	6.44
163879	7	Sololá	701	Sololá	2	El tablón	7	Julio	2023-04-07T00:00:00	2024-11-06T13:00:00	1	Precipitación	0
163880	7	Sololá	701	Sololá	2	El tablón	7	Julio	2023-04-07T00:00:00	2024-11-06T13:00:00	8	Radiación solar	482
163881	7	Sololá	701	Sololá	2	El tablón	7	Julio	2023-04-07T00:00:00	2024-11-06T14:00:00	2	Temperatura media	18.3
163882	7	Sololá	701	Sololá	2	El tablón	7	Julio	2023-04-07T00:00:00	2024-11-06T14:00:00	4	Temperatura máxima	18.7
163883	7	Sololá	701	Sololá	2	El tablón	7	Julio	2023-04-07T00:00:00	2024-11-06T14:00:00	3	Temperatura mínima	17.9
163884	7	Sololá	701	Sololá	2	El tablón	7	Julio	2023-04-07T00:00:00	2024-11-06T14:00:00	5	Humedad	82
163885	7	Sololá	701	Sololá	2	El tablón	7	Julio	2023-04-07T00:00:00	2024-11-06T14:00:00	6	Velocidad del viento	6.4
163886	7	Sololá	701	Sololá	2	El tablón	7	Julio	2023-04-07T00:00:00	2024-11-06T14:00:00	7	Dirección del viento	6.44
163887	7	Sololá	701	Sololá	2	El tablón	7	Julio	2023-04-07T00:00:00	2024-11-06T14:00:00	1	Precipitación	0
163888	7	Sololá	701	Sololá	2	El tablón	7	Julio	2023-04-07T00:00:00	2024-11-06T14:00:00	8	Radiación solar	718
163889	7	Sololá	701	Sololá	2	El tablón	7	Julio	2023-04-07T00:00:00	2024-11-06T15:00:00	2	Temperatura media	15.8
163890	7	Sololá	701	Sololá	2	El tablón	7	Julio	2023-04-07T00:00:00	2024-11-06T15:00:00	4	Temperatura máxima	18.3
163891	7	Sololá	701	Sololá	2	El tablón	7	Julio	2023-04-07T00:00:00	2024-11-06T15:00:00	3	Temperatura mínima	15.8
163892	7	Sololá	701	Sololá	2	El tablón	7	Julio	2023-04-07T00:00:00	2024-11-06T15:00:00	5	Humedad	88
163893	7	Sololá	701	Sololá	2	El tablón	7	Julio	2023-04-07T00:00:00	2024-11-06T15:00:00	6	Velocidad del viento	4.8
163894	7	Sololá	701	Sololá	2	El tablón	7	Julio	2023-04-07T00:00:00	2024-11-06T15:00:00	7	Dirección del viento	4.83
163895	7	Sololá	701	Sololá	2	El tablón	7	Julio	2023-04-07T00:00:00	2024-11-06T15:00:00	1	Precipitación	2.8
163896	7	Sololá	701	Sololá	2	El tablón	7	Julio	2023-04-07T00:00:00	2024-11-06T15:00:00	8	Radiación solar	185
163897	7	Sololá	701	Sololá	2	El tablón	7	Julio	2023-04-07T00:00:00	2024-11-06T16:00:00	2	Temperatura media	14.9
163898	7	Sololá	701	Sololá	2	El tablón	7	Julio	2023-04-07T00:00:00	2024-11-06T16:00:00	4	Temperatura máxima	15.8
163899	7	Sololá	701	Sololá	2	El tablón	7	Julio	2023-04-07T00:00:00	2024-11-06T16:00:00	3	Temperatura mínima	14.9
163900	7	Sololá	701	Sololá	2	El tablón	7	Julio	2023-04-07T00:00:00	2024-11-06T16:00:00	5	Humedad	89
163901	7	Sololá	701	Sololá	2	El tablón	7	Julio	2023-04-07T00:00:00	2024-11-06T16:00:00	6	Velocidad del viento	1.6
163902	7	Sololá	701	Sololá	2	El tablón	7	Julio	2023-04-07T00:00:00	2024-11-06T16:00:00	7	Dirección del viento	1.61
163903	7	Sololá	701	Sololá	2	El tablón	7	Julio	2023-04-07T00:00:00	2024-11-06T16:00:00	1	Precipitación	6.4
163904	7	Sololá	701	Sololá	2	El tablón	7	Julio	2023-04-07T00:00:00	2024-11-06T16:00:00	8	Radiación solar	90
163905	7	Sololá	701	Sololá	2	El tablón	7	Julio	2023-04-07T00:00:00	2024-11-06T17:00:00	2	Temperatura media	15.8
163906	7	Sololá	701	Sololá	2	El tablón	7	Julio	2023-04-07T00:00:00	2024-11-06T17:00:00	4	Temperatura máxima	15.8
163907	7	Sololá	701	Sololá	2	El tablón	7	Julio	2023-04-07T00:00:00	2024-11-06T17:00:00	3	Temperatura mínima	14.9
163908	7	Sololá	701	Sololá	2	El tablón	7	Julio	2023-04-07T00:00:00	2024-11-06T17:00:00	5	Humedad	89
163909	7	Sololá	701	Sololá	2	El tablón	7	Julio	2023-04-07T00:00:00	2024-11-06T17:00:00	6	Velocidad del viento	1.6
163910	7	Sololá	701	Sololá	2	El tablón	7	Julio	2023-04-07T00:00:00	2024-11-06T17:00:00	7	Dirección del viento	1.61
163911	7	Sololá	701	Sololá	2	El tablón	7	Julio	2023-04-07T00:00:00	2024-11-06T17:00:00	1	Precipitación	0.2
163912	7	Sololá	701	Sololá	2	El tablón	7	Julio	2023-04-07T00:00:00	2024-11-06T17:00:00	8	Radiación solar	154
163913	7	Sololá	701	Sololá	2	El tablón	7	Julio	2023-04-07T00:00:00	2024-11-06T18:00:00	2	Temperatura media	15.1
163914	7	Sololá	701	Sololá	2	El tablón	7	Julio	2023-04-07T00:00:00	2024-11-06T18:00:00	4	Temperatura máxima	15.8
163915	7	Sololá	701	Sololá	2	El tablón	7	Julio	2023-04-07T00:00:00	2024-11-06T18:00:00	3	Temperatura mínima	14.8
163916	7	Sololá	701	Sololá	2	El tablón	7	Julio	2023-04-07T00:00:00	2024-11-06T18:00:00	5	Humedad	88
163917	7	Sololá	701	Sololá	2	El tablón	7	Julio	2023-04-07T00:00:00	2024-11-06T18:00:00	6	Velocidad del viento	1.6
163918	7	Sololá	701	Sololá	2	El tablón	7	Julio	2023-04-07T00:00:00	2024-11-06T18:00:00	7	Dirección del viento	1.61
163919	7	Sololá	701	Sololá	2	El tablón	7	Julio	2023-04-07T00:00:00	2024-11-06T18:00:00	1	Precipitación	0
163920	7	Sololá	701	Sololá	2	El tablón	7	Julio	2023-04-07T00:00:00	2024-11-06T18:00:00	8	Radiación solar	42
163921	7	Sololá	701	Sololá	2	El tablón	7	Julio	2023-04-07T00:00:00	2024-11-06T19:00:00	2	Temperatura media	14.3
163922	7	Sololá	701	Sololá	2	El tablón	7	Julio	2023-04-07T00:00:00	2024-11-06T19:00:00	4	Temperatura máxima	15.1
163923	7	Sololá	701	Sololá	2	El tablón	7	Julio	2023-04-07T00:00:00	2024-11-06T19:00:00	3	Temperatura mínima	14.3
163924	7	Sololá	701	Sololá	2	El tablón	7	Julio	2023-04-07T00:00:00	2024-11-06T19:00:00	5	Humedad	88
163925	7	Sololá	701	Sololá	2	El tablón	7	Julio	2023-04-07T00:00:00	2024-11-06T19:00:00	6	Velocidad del viento	1.6
163926	7	Sololá	701	Sololá	2	El tablón	7	Julio	2023-04-07T00:00:00	2024-11-06T19:00:00	7	Dirección del viento	1.61
163927	7	Sololá	701	Sololá	2	El tablón	7	Julio	2023-04-07T00:00:00	2024-11-06T19:00:00	1	Precipitación	1.6
163928	7	Sololá	701	Sololá	2	El tablón	7	Julio	2023-04-07T00:00:00	2024-11-06T19:00:00	8	Radiación solar	0
163929	7	Sololá	701	Sololá	2	El tablón	7	Julio	2023-04-07T00:00:00	2024-11-06T20:00:00	2	Temperatura media	14
163930	7	Sololá	701	Sololá	2	El tablón	7	Julio	2023-04-07T00:00:00	2024-11-06T20:00:00	4	Temperatura máxima	14.3
163931	7	Sololá	701	Sololá	2	El tablón	7	Julio	2023-04-07T00:00:00	2024-11-06T20:00:00	3	Temperatura mínima	13.9
163932	7	Sololá	701	Sololá	2	El tablón	7	Julio	2023-04-07T00:00:00	2024-11-06T20:00:00	5	Humedad	88
163933	7	Sololá	701	Sololá	2	El tablón	7	Julio	2023-04-07T00:00:00	2024-11-06T20:00:00	6	Velocidad del viento	1.6
163934	7	Sololá	701	Sololá	2	El tablón	7	Julio	2023-04-07T00:00:00	2024-11-06T20:00:00	7	Dirección del viento	1.61
163935	7	Sololá	701	Sololá	2	El tablón	7	Julio	2023-04-07T00:00:00	2024-11-06T20:00:00	1	Precipitación	0.6
163936	7	Sololá	701	Sololá	2	El tablón	7	Julio	2023-04-07T00:00:00	2024-11-06T20:00:00	8	Radiación solar	0
163937	7	Sololá	701	Sololá	2	El tablón	7	Julio	2023-04-07T00:00:00	2024-11-06T21:00:00	2	Temperatura media	14.1
163938	7	Sololá	701	Sololá	2	El tablón	7	Julio	2023-04-07T00:00:00	2024-11-06T21:00:00	4	Temperatura máxima	14.1
163939	7	Sololá	701	Sololá	2	El tablón	7	Julio	2023-04-07T00:00:00	2024-11-06T21:00:00	3	Temperatura mínima	14
163940	7	Sololá	701	Sololá	2	El tablón	7	Julio	2023-04-07T00:00:00	2024-11-06T21:00:00	5	Humedad	89
163941	7	Sololá	701	Sololá	2	El tablón	7	Julio	2023-04-07T00:00:00	2024-11-06T21:00:00	6	Velocidad del viento	0
163942	7	Sololá	701	Sololá	2	El tablón	7	Julio	2023-04-07T00:00:00	2024-11-06T21:00:00	7	Dirección del viento	0
163943	7	Sololá	701	Sololá	2	El tablón	7	Julio	2023-04-07T00:00:00	2024-11-06T21:00:00	1	Precipitación	0.8
163944	7	Sololá	701	Sololá	2	El tablón	7	Julio	2023-04-07T00:00:00	2024-11-06T21:00:00	8	Radiación solar	0
163945	7	Sololá	701	Sololá	2	El tablón	7	Julio	2023-04-07T00:00:00	2024-11-06T22:00:00	2	Temperatura media	13.8
163946	7	Sololá	701	Sololá	2	El tablón	7	Julio	2023-04-07T00:00:00	2024-11-06T22:00:00	4	Temperatura máxima	14.2
163947	7	Sololá	701	Sololá	2	El tablón	7	Julio	2023-04-07T00:00:00	2024-11-06T22:00:00	3	Temperatura mínima	13.8
163948	7	Sololá	701	Sololá	2	El tablón	7	Julio	2023-04-07T00:00:00	2024-11-06T22:00:00	5	Humedad	88
163949	7	Sololá	701	Sololá	2	El tablón	7	Julio	2023-04-07T00:00:00	2024-11-06T22:00:00	6	Velocidad del viento	0
163950	7	Sololá	701	Sololá	2	El tablón	7	Julio	2023-04-07T00:00:00	2024-11-06T22:00:00	7	Dirección del viento	0
163951	7	Sololá	701	Sololá	2	El tablón	7	Julio	2023-04-07T00:00:00	2024-11-06T22:00:00	1	Precipitación	2.2
163952	7	Sololá	701	Sololá	2	El tablón	7	Julio	2023-04-07T00:00:00	2024-11-06T22:00:00	8	Radiación solar	0
163953	7	Sololá	701	Sololá	2	El tablón	7	Julio	2023-04-07T00:00:00	2024-11-06T23:00:00	2	Temperatura media	13.5
163954	7	Sololá	701	Sololá	2	El tablón	7	Julio	2023-04-07T00:00:00	2024-11-06T23:00:00	4	Temperatura máxima	13.8
163955	7	Sololá	701	Sololá	2	El tablón	7	Julio	2023-04-07T00:00:00	2024-11-06T23:00:00	3	Temperatura mínima	13.5
163956	7	Sololá	701	Sololá	2	El tablón	7	Julio	2023-04-07T00:00:00	2024-11-06T23:00:00	5	Humedad	88
163957	7	Sololá	701	Sololá	2	El tablón	7	Julio	2023-04-07T00:00:00	2024-11-06T23:00:00	6	Velocidad del viento	0
163958	7	Sololá	701	Sololá	2	El tablón	7	Julio	2023-04-07T00:00:00	2024-11-06T23:00:00	7	Dirección del viento	0
163959	7	Sololá	701	Sololá	2	El tablón	7	Julio	2023-04-07T00:00:00	2024-11-06T23:00:00	1	Precipitación	3.2
163960	7	Sololá	701	Sololá	2	El tablón	7	Julio	2023-04-07T00:00:00	2024-11-06T23:00:00	8	Radiación solar	0
163961	7	Sololá	701	Sololá	2	El tablón	7	Julio	2023-05-07T00:00:00	2024-11-06T00:00:00	2	Temperatura media	13.4
163962	7	Sololá	701	Sololá	2	El tablón	7	Julio	2023-05-07T00:00:00	2024-11-06T00:00:00	4	Temperatura máxima	13.6
163963	7	Sololá	701	Sololá	2	El tablón	7	Julio	2023-05-07T00:00:00	2024-11-06T00:00:00	3	Temperatura mínima	13.4
163964	7	Sololá	701	Sololá	2	El tablón	7	Julio	2023-05-07T00:00:00	2024-11-06T00:00:00	5	Humedad	88
163965	7	Sololá	701	Sololá	2	El tablón	7	Julio	2023-05-07T00:00:00	2024-11-06T00:00:00	6	Velocidad del viento	0
163966	7	Sololá	701	Sololá	2	El tablón	7	Julio	2023-05-07T00:00:00	2024-11-06T00:00:00	7	Dirección del viento	0
163967	7	Sololá	701	Sololá	2	El tablón	7	Julio	2023-05-07T00:00:00	2024-11-06T00:00:00	1	Precipitación	1.4
163968	7	Sololá	701	Sololá	2	El tablón	7	Julio	2023-05-07T00:00:00	2024-11-06T00:00:00	8	Radiación solar	0
163969	7	Sololá	701	Sololá	2	El tablón	7	Julio	2023-05-07T00:00:00	2024-11-06T01:00:00	2	Temperatura media	13.3
163970	7	Sololá	701	Sololá	2	El tablón	7	Julio	2023-05-07T00:00:00	2024-11-06T01:00:00	4	Temperatura máxima	13.4
163971	7	Sololá	701	Sololá	2	El tablón	7	Julio	2023-05-07T00:00:00	2024-11-06T01:00:00	3	Temperatura mínima	13.3
163972	7	Sololá	701	Sololá	2	El tablón	7	Julio	2023-05-07T00:00:00	2024-11-06T01:00:00	5	Humedad	88
163973	7	Sololá	701	Sololá	2	El tablón	7	Julio	2023-05-07T00:00:00	2024-11-06T01:00:00	6	Velocidad del viento	1.6
163974	7	Sololá	701	Sololá	2	El tablón	7	Julio	2023-05-07T00:00:00	2024-11-06T01:00:00	7	Dirección del viento	1.61
163975	7	Sololá	701	Sololá	2	El tablón	7	Julio	2023-05-07T00:00:00	2024-11-06T01:00:00	1	Precipitación	1
163976	7	Sololá	701	Sololá	2	El tablón	7	Julio	2023-05-07T00:00:00	2024-11-06T01:00:00	8	Radiación solar	0
163977	7	Sololá	701	Sololá	2	El tablón	7	Julio	2023-05-07T00:00:00	2024-11-06T02:00:00	2	Temperatura media	13.2
163978	7	Sololá	701	Sololá	2	El tablón	7	Julio	2023-05-07T00:00:00	2024-11-06T02:00:00	4	Temperatura máxima	13.3
163979	7	Sololá	701	Sololá	2	El tablón	7	Julio	2023-05-07T00:00:00	2024-11-06T02:00:00	3	Temperatura mínima	13.2
163980	7	Sololá	701	Sololá	2	El tablón	7	Julio	2023-05-07T00:00:00	2024-11-06T02:00:00	5	Humedad	89
163981	7	Sololá	701	Sololá	2	El tablón	7	Julio	2023-05-07T00:00:00	2024-11-06T02:00:00	6	Velocidad del viento	0
163982	7	Sololá	701	Sololá	2	El tablón	7	Julio	2023-05-07T00:00:00	2024-11-06T02:00:00	7	Dirección del viento	0
163983	7	Sololá	701	Sololá	2	El tablón	7	Julio	2023-05-07T00:00:00	2024-11-06T02:00:00	1	Precipitación	0
163984	7	Sololá	701	Sololá	2	El tablón	7	Julio	2023-05-07T00:00:00	2024-11-06T02:00:00	8	Radiación solar	0
163985	7	Sololá	701	Sololá	2	El tablón	7	Julio	2023-05-07T00:00:00	2024-11-06T03:00:00	2	Temperatura media	12.7
163986	7	Sololá	701	Sololá	2	El tablón	7	Julio	2023-05-07T00:00:00	2024-11-06T03:00:00	4	Temperatura máxima	13.2
163987	7	Sololá	701	Sololá	2	El tablón	7	Julio	2023-05-07T00:00:00	2024-11-06T03:00:00	3	Temperatura mínima	12.7
163988	7	Sololá	701	Sololá	2	El tablón	7	Julio	2023-05-07T00:00:00	2024-11-06T03:00:00	5	Humedad	89
163989	7	Sololá	701	Sololá	2	El tablón	7	Julio	2023-05-07T00:00:00	2024-11-06T03:00:00	6	Velocidad del viento	0
163990	7	Sololá	701	Sololá	2	El tablón	7	Julio	2023-05-07T00:00:00	2024-11-06T03:00:00	7	Dirección del viento	0
163991	7	Sololá	701	Sololá	2	El tablón	7	Julio	2023-05-07T00:00:00	2024-11-06T03:00:00	1	Precipitación	0
163992	7	Sololá	701	Sololá	2	El tablón	7	Julio	2023-05-07T00:00:00	2024-11-06T03:00:00	8	Radiación solar	0
163993	7	Sololá	701	Sololá	2	El tablón	7	Julio	2023-05-07T00:00:00	2024-11-06T04:00:00	2	Temperatura media	12.2
163994	7	Sololá	701	Sololá	2	El tablón	7	Julio	2023-05-07T00:00:00	2024-11-06T04:00:00	4	Temperatura máxima	12.7
163995	7	Sololá	701	Sololá	2	El tablón	7	Julio	2023-05-07T00:00:00	2024-11-06T04:00:00	3	Temperatura mínima	12.2
163996	7	Sololá	701	Sololá	2	El tablón	7	Julio	2023-05-07T00:00:00	2024-11-06T04:00:00	5	Humedad	88
163997	7	Sololá	701	Sololá	2	El tablón	7	Julio	2023-05-07T00:00:00	2024-11-06T04:00:00	6	Velocidad del viento	0
163998	7	Sololá	701	Sololá	2	El tablón	7	Julio	2023-05-07T00:00:00	2024-11-06T04:00:00	7	Dirección del viento	0
163999	7	Sololá	701	Sololá	2	El tablón	7	Julio	2023-05-07T00:00:00	2024-11-06T04:00:00	1	Precipitación	0
164000	7	Sololá	701	Sololá	2	El tablón	7	Julio	2023-05-07T00:00:00	2024-11-06T04:00:00	8	Radiación solar	0
164001	7	Sololá	701	Sololá	2	El tablón	7	Julio	2023-05-07T00:00:00	2024-11-06T05:00:00	2	Temperatura media	11.7
164002	7	Sololá	701	Sololá	2	El tablón	7	Julio	2023-05-07T00:00:00	2024-11-06T05:00:00	4	Temperatura máxima	12.2
164003	7	Sololá	701	Sololá	2	El tablón	7	Julio	2023-05-07T00:00:00	2024-11-06T05:00:00	3	Temperatura mínima	11.7
164004	7	Sololá	701	Sololá	2	El tablón	7	Julio	2023-05-07T00:00:00	2024-11-06T05:00:00	5	Humedad	88
164005	7	Sololá	701	Sololá	2	El tablón	7	Julio	2023-05-07T00:00:00	2024-11-06T05:00:00	6	Velocidad del viento	1.6
164006	7	Sololá	701	Sololá	2	El tablón	7	Julio	2023-05-07T00:00:00	2024-11-06T05:00:00	7	Dirección del viento	1.61
164007	7	Sololá	701	Sololá	2	El tablón	7	Julio	2023-05-07T00:00:00	2024-11-06T05:00:00	1	Precipitación	0
164008	7	Sololá	701	Sololá	2	El tablón	7	Julio	2023-05-07T00:00:00	2024-11-06T05:00:00	8	Radiación solar	0
164009	7	Sololá	701	Sololá	2	El tablón	7	Julio	2023-05-07T00:00:00	2024-11-06T06:00:00	2	Temperatura media	11.3
164010	7	Sololá	701	Sololá	2	El tablón	7	Julio	2023-05-07T00:00:00	2024-11-06T06:00:00	4	Temperatura máxima	11.8
164011	7	Sololá	701	Sololá	2	El tablón	7	Julio	2023-05-07T00:00:00	2024-11-06T06:00:00	3	Temperatura mínima	11.2
164012	7	Sololá	701	Sololá	2	El tablón	7	Julio	2023-05-07T00:00:00	2024-11-06T06:00:00	5	Humedad	88
164013	7	Sololá	701	Sololá	2	El tablón	7	Julio	2023-05-07T00:00:00	2024-11-06T06:00:00	6	Velocidad del viento	1.6
164014	7	Sololá	701	Sololá	2	El tablón	7	Julio	2023-05-07T00:00:00	2024-11-06T06:00:00	7	Dirección del viento	1.61
164015	7	Sololá	701	Sololá	2	El tablón	7	Julio	2023-05-07T00:00:00	2024-11-06T06:00:00	1	Precipitación	0.2
164016	7	Sololá	701	Sololá	2	El tablón	7	Julio	2023-05-07T00:00:00	2024-11-06T06:00:00	8	Radiación solar	1
164017	7	Sololá	701	Sololá	2	El tablón	7	Julio	2023-05-07T00:00:00	2024-11-06T07:00:00	2	Temperatura media	13.4
164018	7	Sololá	701	Sololá	2	El tablón	7	Julio	2023-05-07T00:00:00	2024-11-06T07:00:00	4	Temperatura máxima	13.4
164019	7	Sololá	701	Sololá	2	El tablón	7	Julio	2023-05-07T00:00:00	2024-11-06T07:00:00	3	Temperatura mínima	11.2
164020	7	Sololá	701	Sololá	2	El tablón	7	Julio	2023-05-07T00:00:00	2024-11-06T07:00:00	5	Humedad	89
164021	7	Sololá	701	Sololá	2	El tablón	7	Julio	2023-05-07T00:00:00	2024-11-06T07:00:00	6	Velocidad del viento	1.6
164022	7	Sololá	701	Sololá	2	El tablón	7	Julio	2023-05-07T00:00:00	2024-11-06T07:00:00	7	Dirección del viento	1.61
164023	7	Sololá	701	Sololá	2	El tablón	7	Julio	2023-05-07T00:00:00	2024-11-06T07:00:00	1	Precipitación	0
164024	7	Sololá	701	Sololá	2	El tablón	7	Julio	2023-05-07T00:00:00	2024-11-06T07:00:00	8	Radiación solar	96
164025	7	Sololá	701	Sololá	2	El tablón	7	Julio	2023-05-07T00:00:00	2024-11-06T08:00:00	2	Temperatura media	15.9
164026	7	Sololá	701	Sololá	2	El tablón	7	Julio	2023-05-07T00:00:00	2024-11-06T08:00:00	4	Temperatura máxima	15.9
164027	7	Sololá	701	Sololá	2	El tablón	7	Julio	2023-05-07T00:00:00	2024-11-06T08:00:00	3	Temperatura mínima	13.4
164028	7	Sololá	701	Sololá	2	El tablón	7	Julio	2023-05-07T00:00:00	2024-11-06T08:00:00	5	Humedad	85
164029	7	Sololá	701	Sololá	2	El tablón	7	Julio	2023-05-07T00:00:00	2024-11-06T08:00:00	6	Velocidad del viento	3.2
164030	7	Sololá	701	Sololá	2	El tablón	7	Julio	2023-05-07T00:00:00	2024-11-06T08:00:00	7	Dirección del viento	3.22
164031	7	Sololá	701	Sololá	2	El tablón	7	Julio	2023-05-07T00:00:00	2024-11-06T08:00:00	1	Precipitación	0
164032	7	Sololá	701	Sololá	2	El tablón	7	Julio	2023-05-07T00:00:00	2024-11-06T08:00:00	8	Radiación solar	298
164033	7	Sololá	701	Sololá	2	El tablón	7	Julio	2023-05-07T00:00:00	2024-11-06T09:00:00	2	Temperatura media	16.6
164034	7	Sololá	701	Sololá	2	El tablón	7	Julio	2023-05-07T00:00:00	2024-11-06T09:00:00	4	Temperatura máxima	16.8
164035	7	Sololá	701	Sololá	2	El tablón	7	Julio	2023-05-07T00:00:00	2024-11-06T09:00:00	3	Temperatura mínima	15.7
164036	7	Sololá	701	Sololá	2	El tablón	7	Julio	2023-05-07T00:00:00	2024-11-06T09:00:00	5	Humedad	84
164037	7	Sololá	701	Sololá	2	El tablón	7	Julio	2023-05-07T00:00:00	2024-11-06T09:00:00	6	Velocidad del viento	3.2
164038	7	Sololá	701	Sololá	2	El tablón	7	Julio	2023-05-07T00:00:00	2024-11-06T09:00:00	7	Dirección del viento	3.22
164039	7	Sololá	701	Sololá	2	El tablón	7	Julio	2023-05-07T00:00:00	2024-11-06T09:00:00	1	Precipitación	0
164040	7	Sololá	701	Sololá	2	El tablón	7	Julio	2023-05-07T00:00:00	2024-11-06T09:00:00	8	Radiación solar	467
164041	7	Sololá	701	Sololá	2	El tablón	7	Julio	2023-05-07T00:00:00	2024-11-06T10:00:00	2	Temperatura media	18.1
164042	7	Sololá	701	Sololá	2	El tablón	7	Julio	2023-05-07T00:00:00	2024-11-06T10:00:00	4	Temperatura máxima	18.2
164043	7	Sololá	701	Sololá	2	El tablón	7	Julio	2023-05-07T00:00:00	2024-11-06T10:00:00	3	Temperatura mínima	16.6
164044	7	Sololá	701	Sololá	2	El tablón	7	Julio	2023-05-07T00:00:00	2024-11-06T10:00:00	5	Humedad	80
164045	7	Sololá	701	Sololá	2	El tablón	7	Julio	2023-05-07T00:00:00	2024-11-06T10:00:00	6	Velocidad del viento	4.8
164046	7	Sololá	701	Sololá	2	El tablón	7	Julio	2023-05-07T00:00:00	2024-11-06T10:00:00	7	Dirección del viento	4.83
164047	7	Sololá	701	Sololá	2	El tablón	7	Julio	2023-05-07T00:00:00	2024-11-06T10:00:00	1	Precipitación	0
164048	7	Sololá	701	Sololá	2	El tablón	7	Julio	2023-05-07T00:00:00	2024-11-06T10:00:00	8	Radiación solar	683
164049	7	Sololá	701	Sololá	2	El tablón	7	Julio	2023-05-07T00:00:00	2024-11-06T11:00:00	2	Temperatura media	18.7
164050	7	Sololá	701	Sololá	2	El tablón	7	Julio	2023-05-07T00:00:00	2024-11-06T11:00:00	4	Temperatura máxima	19.2
164051	7	Sololá	701	Sololá	2	El tablón	7	Julio	2023-05-07T00:00:00	2024-11-06T11:00:00	3	Temperatura mínima	18.1
164052	7	Sololá	701	Sololá	2	El tablón	7	Julio	2023-05-07T00:00:00	2024-11-06T11:00:00	5	Humedad	78
164053	7	Sololá	701	Sololá	2	El tablón	7	Julio	2023-05-07T00:00:00	2024-11-06T11:00:00	6	Velocidad del viento	8
164054	7	Sololá	701	Sololá	2	El tablón	7	Julio	2023-05-07T00:00:00	2024-11-06T11:00:00	7	Dirección del viento	8.05
164055	7	Sololá	701	Sololá	2	El tablón	7	Julio	2023-05-07T00:00:00	2024-11-06T11:00:00	1	Precipitación	0
164056	7	Sololá	701	Sololá	2	El tablón	7	Julio	2023-05-07T00:00:00	2024-11-06T11:00:00	8	Radiación solar	882
164057	7	Sololá	701	Sololá	2	El tablón	7	Julio	2023-05-07T00:00:00	2024-11-06T12:00:00	2	Temperatura media	19.1
164058	7	Sololá	701	Sololá	2	El tablón	7	Julio	2023-05-07T00:00:00	2024-11-06T12:00:00	4	Temperatura máxima	19.3
164059	7	Sololá	701	Sololá	2	El tablón	7	Julio	2023-05-07T00:00:00	2024-11-06T12:00:00	3	Temperatura mínima	18.3
164060	7	Sololá	701	Sololá	2	El tablón	7	Julio	2023-05-07T00:00:00	2024-11-06T12:00:00	5	Humedad	76
164061	7	Sololá	701	Sololá	2	El tablón	7	Julio	2023-05-07T00:00:00	2024-11-06T12:00:00	6	Velocidad del viento	6.4
164062	7	Sololá	701	Sololá	2	El tablón	7	Julio	2023-05-07T00:00:00	2024-11-06T12:00:00	7	Dirección del viento	6.44
164063	7	Sololá	701	Sololá	2	El tablón	7	Julio	2023-05-07T00:00:00	2024-11-06T12:00:00	1	Precipitación	0
164064	7	Sololá	701	Sololá	2	El tablón	7	Julio	2023-05-07T00:00:00	2024-11-06T12:00:00	8	Radiación solar	798
164065	7	Sololá	701	Sololá	2	El tablón	7	Julio	2023-05-07T00:00:00	2024-11-06T13:00:00	2	Temperatura media	17.9
164066	7	Sololá	701	Sololá	2	El tablón	7	Julio	2023-05-07T00:00:00	2024-11-06T13:00:00	4	Temperatura máxima	19.5
164067	7	Sololá	701	Sololá	2	El tablón	7	Julio	2023-05-07T00:00:00	2024-11-06T13:00:00	3	Temperatura mínima	17.9
164068	7	Sololá	701	Sololá	2	El tablón	7	Julio	2023-05-07T00:00:00	2024-11-06T13:00:00	5	Humedad	86
164069	7	Sololá	701	Sololá	2	El tablón	7	Julio	2023-05-07T00:00:00	2024-11-06T13:00:00	6	Velocidad del viento	8
164070	7	Sololá	701	Sololá	2	El tablón	7	Julio	2023-05-07T00:00:00	2024-11-06T13:00:00	7	Dirección del viento	8.05
164071	7	Sololá	701	Sololá	2	El tablón	7	Julio	2023-05-07T00:00:00	2024-11-06T13:00:00	1	Precipitación	0
164072	7	Sololá	701	Sololá	2	El tablón	7	Julio	2023-05-07T00:00:00	2024-11-06T13:00:00	8	Radiación solar	514
164073	7	Sololá	701	Sololá	2	El tablón	7	Julio	2023-05-07T00:00:00	2024-11-06T14:00:00	2	Temperatura media	16.8
164074	7	Sololá	701	Sololá	2	El tablón	7	Julio	2023-05-07T00:00:00	2024-11-06T14:00:00	4	Temperatura máxima	18
164075	7	Sololá	701	Sololá	2	El tablón	7	Julio	2023-05-07T00:00:00	2024-11-06T14:00:00	3	Temperatura mínima	16.7
164076	7	Sololá	701	Sololá	2	El tablón	7	Julio	2023-05-07T00:00:00	2024-11-06T14:00:00	5	Humedad	88
164077	7	Sololá	701	Sololá	2	El tablón	7	Julio	2023-05-07T00:00:00	2024-11-06T14:00:00	6	Velocidad del viento	4.8
164078	7	Sololá	701	Sololá	2	El tablón	7	Julio	2023-05-07T00:00:00	2024-11-06T14:00:00	7	Dirección del viento	4.83
164079	7	Sololá	701	Sololá	2	El tablón	7	Julio	2023-05-07T00:00:00	2024-11-06T14:00:00	1	Precipitación	0
164080	7	Sololá	701	Sololá	2	El tablón	7	Julio	2023-05-07T00:00:00	2024-11-06T14:00:00	8	Radiación solar	209
164081	7	Sololá	701	Sololá	2	El tablón	7	Julio	2023-05-07T00:00:00	2024-11-06T15:00:00	2	Temperatura media	16.8
164082	7	Sololá	701	Sololá	2	El tablón	7	Julio	2023-05-07T00:00:00	2024-11-06T15:00:00	4	Temperatura máxima	16.9
164083	7	Sololá	701	Sololá	2	El tablón	7	Julio	2023-05-07T00:00:00	2024-11-06T15:00:00	3	Temperatura mínima	16.3
164084	7	Sololá	701	Sololá	2	El tablón	7	Julio	2023-05-07T00:00:00	2024-11-06T15:00:00	5	Humedad	88
164085	7	Sololá	701	Sololá	2	El tablón	7	Julio	2023-05-07T00:00:00	2024-11-06T15:00:00	6	Velocidad del viento	3.2
164086	7	Sololá	701	Sololá	2	El tablón	7	Julio	2023-05-07T00:00:00	2024-11-06T15:00:00	7	Dirección del viento	3.22
164087	7	Sololá	701	Sololá	2	El tablón	7	Julio	2023-05-07T00:00:00	2024-11-06T15:00:00	1	Precipitación	0
164088	7	Sololá	701	Sololá	2	El tablón	7	Julio	2023-05-07T00:00:00	2024-11-06T15:00:00	8	Radiación solar	139
164089	7	Sololá	701	Sololá	2	El tablón	7	Julio	2023-05-07T00:00:00	2024-11-06T16:00:00	2	Temperatura media	18.3
164090	7	Sololá	701	Sololá	2	El tablón	7	Julio	2023-05-07T00:00:00	2024-11-06T16:00:00	4	Temperatura máxima	19.2
164091	7	Sololá	701	Sololá	2	El tablón	7	Julio	2023-05-07T00:00:00	2024-11-06T16:00:00	3	Temperatura mínima	16.8
164092	7	Sololá	701	Sololá	2	El tablón	7	Julio	2023-05-07T00:00:00	2024-11-06T16:00:00	5	Humedad	86
164093	7	Sololá	701	Sololá	2	El tablón	7	Julio	2023-05-07T00:00:00	2024-11-06T16:00:00	6	Velocidad del viento	4.8
164094	7	Sololá	701	Sololá	2	El tablón	7	Julio	2023-05-07T00:00:00	2024-11-06T16:00:00	7	Dirección del viento	4.83
164095	7	Sololá	701	Sololá	2	El tablón	7	Julio	2023-05-07T00:00:00	2024-11-06T16:00:00	1	Precipitación	0
164096	7	Sololá	701	Sololá	2	El tablón	7	Julio	2023-05-07T00:00:00	2024-11-06T16:00:00	8	Radiación solar	387
164097	7	Sololá	701	Sololá	2	El tablón	7	Julio	2023-05-07T00:00:00	2024-11-06T17:00:00	2	Temperatura media	16.4
164098	7	Sololá	701	Sololá	2	El tablón	7	Julio	2023-05-07T00:00:00	2024-11-06T17:00:00	4	Temperatura máxima	18.3
164099	7	Sololá	701	Sololá	2	El tablón	7	Julio	2023-05-07T00:00:00	2024-11-06T17:00:00	3	Temperatura mínima	16.4
164100	7	Sololá	701	Sololá	2	El tablón	7	Julio	2023-05-07T00:00:00	2024-11-06T17:00:00	5	Humedad	88
164101	7	Sololá	701	Sololá	2	El tablón	7	Julio	2023-05-07T00:00:00	2024-11-06T17:00:00	6	Velocidad del viento	4.8
164102	7	Sololá	701	Sololá	2	El tablón	7	Julio	2023-05-07T00:00:00	2024-11-06T17:00:00	7	Dirección del viento	4.83
164103	7	Sololá	701	Sololá	2	El tablón	7	Julio	2023-05-07T00:00:00	2024-11-06T17:00:00	1	Precipitación	0
164104	7	Sololá	701	Sololá	2	El tablón	7	Julio	2023-05-07T00:00:00	2024-11-06T17:00:00	8	Radiación solar	182
164105	7	Sololá	701	Sololá	2	El tablón	7	Julio	2023-05-07T00:00:00	2024-11-06T18:00:00	2	Temperatura media	16.6
164106	7	Sololá	701	Sololá	2	El tablón	7	Julio	2023-05-07T00:00:00	2024-11-06T18:00:00	4	Temperatura máxima	16.7
164107	7	Sololá	701	Sololá	2	El tablón	7	Julio	2023-05-07T00:00:00	2024-11-06T18:00:00	3	Temperatura mínima	16.2
164108	7	Sololá	701	Sololá	2	El tablón	7	Julio	2023-05-07T00:00:00	2024-11-06T18:00:00	5	Humedad	57
164109	7	Sololá	701	Sololá	2	El tablón	7	Julio	2023-05-07T00:00:00	2024-11-06T18:00:00	6	Velocidad del viento	4.8
164110	7	Sololá	701	Sololá	2	El tablón	7	Julio	2023-05-07T00:00:00	2024-11-06T18:00:00	7	Dirección del viento	4.83
164111	7	Sololá	701	Sololá	2	El tablón	7	Julio	2023-05-07T00:00:00	2024-11-06T18:00:00	1	Precipitación	0
164112	7	Sololá	701	Sololá	2	El tablón	7	Julio	2023-05-07T00:00:00	2024-11-06T18:00:00	8	Radiación solar	106
164113	7	Sololá	701	Sololá	2	El tablón	7	Julio	2023-05-07T00:00:00	2024-11-06T19:00:00	2	Temperatura media	14.8
164114	7	Sololá	701	Sololá	2	El tablón	7	Julio	2023-05-07T00:00:00	2024-11-06T19:00:00	4	Temperatura máxima	16.6
164115	7	Sololá	701	Sololá	2	El tablón	7	Julio	2023-05-07T00:00:00	2024-11-06T19:00:00	3	Temperatura mínima	14.8
164116	7	Sololá	701	Sololá	2	El tablón	7	Julio	2023-05-07T00:00:00	2024-11-06T19:00:00	5	Humedad	69
164117	7	Sololá	701	Sololá	2	El tablón	7	Julio	2023-05-07T00:00:00	2024-11-06T19:00:00	6	Velocidad del viento	3.2
164118	7	Sololá	701	Sololá	2	El tablón	7	Julio	2023-05-07T00:00:00	2024-11-06T19:00:00	7	Dirección del viento	3.22
164119	7	Sololá	701	Sololá	2	El tablón	7	Julio	2023-05-07T00:00:00	2024-11-06T19:00:00	1	Precipitación	0
164120	7	Sololá	701	Sololá	2	El tablón	7	Julio	2023-05-07T00:00:00	2024-11-06T19:00:00	8	Radiación solar	0
164121	7	Sololá	701	Sololá	2	El tablón	7	Julio	2023-05-07T00:00:00	2024-11-06T20:00:00	2	Temperatura media	14.3
164122	7	Sololá	701	Sololá	2	El tablón	7	Julio	2023-05-07T00:00:00	2024-11-06T20:00:00	4	Temperatura máxima	14.8
164123	7	Sololá	701	Sololá	2	El tablón	7	Julio	2023-05-07T00:00:00	2024-11-06T20:00:00	3	Temperatura mínima	14.3
164124	7	Sololá	701	Sololá	2	El tablón	7	Julio	2023-05-07T00:00:00	2024-11-06T20:00:00	5	Humedad	77
164125	7	Sololá	701	Sololá	2	El tablón	7	Julio	2023-05-07T00:00:00	2024-11-06T20:00:00	6	Velocidad del viento	3.2
164126	7	Sololá	701	Sololá	2	El tablón	7	Julio	2023-05-07T00:00:00	2024-11-06T20:00:00	7	Dirección del viento	3.22
164127	7	Sololá	701	Sololá	2	El tablón	7	Julio	2023-05-07T00:00:00	2024-11-06T20:00:00	1	Precipitación	0
164128	7	Sololá	701	Sololá	2	El tablón	7	Julio	2023-05-07T00:00:00	2024-11-06T20:00:00	8	Radiación solar	0
164129	7	Sololá	701	Sololá	2	El tablón	7	Julio	2023-05-07T00:00:00	2024-11-06T21:00:00	2	Temperatura media	14.2
164130	7	Sololá	701	Sololá	2	El tablón	7	Julio	2023-05-07T00:00:00	2024-11-06T21:00:00	4	Temperatura máxima	14.4
164131	7	Sololá	701	Sololá	2	El tablón	7	Julio	2023-05-07T00:00:00	2024-11-06T21:00:00	3	Temperatura mínima	14.1
164132	7	Sololá	701	Sololá	2	El tablón	7	Julio	2023-05-07T00:00:00	2024-11-06T21:00:00	5	Humedad	85
164133	7	Sololá	701	Sololá	2	El tablón	7	Julio	2023-05-07T00:00:00	2024-11-06T21:00:00	6	Velocidad del viento	8
164134	7	Sololá	701	Sololá	2	El tablón	7	Julio	2023-05-07T00:00:00	2024-11-06T21:00:00	7	Dirección del viento	8.05
164135	7	Sololá	701	Sololá	2	El tablón	7	Julio	2023-05-07T00:00:00	2024-11-06T21:00:00	1	Precipitación	0
164136	7	Sololá	701	Sololá	2	El tablón	7	Julio	2023-05-07T00:00:00	2024-11-06T21:00:00	8	Radiación solar	0
164137	7	Sololá	701	Sololá	2	El tablón	7	Julio	2023-05-07T00:00:00	2024-11-06T22:00:00	2	Temperatura media	14.1
164138	7	Sololá	701	Sololá	2	El tablón	7	Julio	2023-05-07T00:00:00	2024-11-06T22:00:00	4	Temperatura máxima	14.2
164139	7	Sololá	701	Sololá	2	El tablón	7	Julio	2023-05-07T00:00:00	2024-11-06T22:00:00	3	Temperatura mínima	14.1
164140	7	Sololá	701	Sololá	2	El tablón	7	Julio	2023-05-07T00:00:00	2024-11-06T22:00:00	5	Humedad	87
164141	7	Sololá	701	Sololá	2	El tablón	7	Julio	2023-05-07T00:00:00	2024-11-06T22:00:00	6	Velocidad del viento	8
164142	7	Sololá	701	Sololá	2	El tablón	7	Julio	2023-05-07T00:00:00	2024-11-06T22:00:00	7	Dirección del viento	8.05
164143	7	Sololá	701	Sololá	2	El tablón	7	Julio	2023-05-07T00:00:00	2024-11-06T22:00:00	1	Precipitación	0
164144	7	Sololá	701	Sololá	2	El tablón	7	Julio	2023-05-07T00:00:00	2024-11-06T22:00:00	8	Radiación solar	0
164145	7	Sololá	701	Sololá	2	El tablón	7	Julio	2023-05-07T00:00:00	2024-11-06T23:00:00	2	Temperatura media	13.8
164146	7	Sololá	701	Sololá	2	El tablón	7	Julio	2023-05-07T00:00:00	2024-11-06T23:00:00	4	Temperatura máxima	14.1
164147	7	Sololá	701	Sololá	2	El tablón	7	Julio	2023-05-07T00:00:00	2024-11-06T23:00:00	3	Temperatura mínima	13.8
164148	7	Sololá	701	Sololá	2	El tablón	7	Julio	2023-05-07T00:00:00	2024-11-06T23:00:00	5	Humedad	87
164149	7	Sololá	701	Sololá	2	El tablón	7	Julio	2023-05-07T00:00:00	2024-11-06T23:00:00	6	Velocidad del viento	8
164150	7	Sololá	701	Sololá	2	El tablón	7	Julio	2023-05-07T00:00:00	2024-11-06T23:00:00	7	Dirección del viento	8.05
164151	7	Sololá	701	Sololá	2	El tablón	7	Julio	2023-05-07T00:00:00	2024-11-06T23:00:00	1	Precipitación	0
164152	7	Sololá	701	Sololá	2	El tablón	7	Julio	2023-05-07T00:00:00	2024-11-06T23:00:00	8	Radiación solar	0
164153	7	Sololá	701	Sololá	2	El tablón	7	Julio	2023-06-07T00:00:00	2024-11-06T00:00:00	2	Temperatura media	13.7
164154	7	Sololá	701	Sololá	2	El tablón	7	Julio	2023-06-07T00:00:00	2024-11-06T00:00:00	4	Temperatura máxima	13.8
164155	7	Sololá	701	Sololá	2	El tablón	7	Julio	2023-06-07T00:00:00	2024-11-06T00:00:00	3	Temperatura mínima	13.7
164156	7	Sololá	701	Sololá	2	El tablón	7	Julio	2023-06-07T00:00:00	2024-11-06T00:00:00	5	Humedad	87
164157	7	Sololá	701	Sololá	2	El tablón	7	Julio	2023-06-07T00:00:00	2024-11-06T00:00:00	6	Velocidad del viento	6.4
164158	7	Sololá	701	Sololá	2	El tablón	7	Julio	2023-06-07T00:00:00	2024-11-06T00:00:00	7	Dirección del viento	6.44
164159	7	Sololá	701	Sololá	2	El tablón	7	Julio	2023-06-07T00:00:00	2024-11-06T00:00:00	1	Precipitación	0
164160	7	Sololá	701	Sololá	2	El tablón	7	Julio	2023-06-07T00:00:00	2024-11-06T00:00:00	8	Radiación solar	0
164161	7	Sololá	701	Sololá	2	El tablón	7	Julio	2023-06-07T00:00:00	2024-11-06T01:00:00	2	Temperatura media	13.6
164162	7	Sololá	701	Sololá	2	El tablón	7	Julio	2023-06-07T00:00:00	2024-11-06T01:00:00	4	Temperatura máxima	13.8
164163	7	Sololá	701	Sololá	2	El tablón	7	Julio	2023-06-07T00:00:00	2024-11-06T01:00:00	3	Temperatura mínima	13.4
164164	7	Sololá	701	Sololá	2	El tablón	7	Julio	2023-06-07T00:00:00	2024-11-06T01:00:00	5	Humedad	86
164165	7	Sololá	701	Sololá	2	El tablón	7	Julio	2023-06-07T00:00:00	2024-11-06T01:00:00	6	Velocidad del viento	6.4
164166	7	Sololá	701	Sololá	2	El tablón	7	Julio	2023-06-07T00:00:00	2024-11-06T01:00:00	7	Dirección del viento	6.44
164167	7	Sololá	701	Sololá	2	El tablón	7	Julio	2023-06-07T00:00:00	2024-11-06T01:00:00	1	Precipitación	0
164168	7	Sololá	701	Sololá	2	El tablón	7	Julio	2023-06-07T00:00:00	2024-11-06T01:00:00	8	Radiación solar	0
164169	7	Sololá	701	Sololá	2	El tablón	7	Julio	2023-06-07T00:00:00	2024-11-06T02:00:00	2	Temperatura media	13.5
164170	7	Sololá	701	Sololá	2	El tablón	7	Julio	2023-06-07T00:00:00	2024-11-06T02:00:00	4	Temperatura máxima	13.8
164171	7	Sololá	701	Sololá	2	El tablón	7	Julio	2023-06-07T00:00:00	2024-11-06T02:00:00	3	Temperatura mínima	13.5
164172	7	Sololá	701	Sololá	2	El tablón	7	Julio	2023-06-07T00:00:00	2024-11-06T02:00:00	5	Humedad	85
164173	7	Sololá	701	Sololá	2	El tablón	7	Julio	2023-06-07T00:00:00	2024-11-06T02:00:00	6	Velocidad del viento	6.4
164174	7	Sololá	701	Sololá	2	El tablón	7	Julio	2023-06-07T00:00:00	2024-11-06T02:00:00	7	Dirección del viento	6.44
164175	7	Sololá	701	Sololá	2	El tablón	7	Julio	2023-06-07T00:00:00	2024-11-06T02:00:00	1	Precipitación	0
164176	7	Sololá	701	Sololá	2	El tablón	7	Julio	2023-06-07T00:00:00	2024-11-06T02:00:00	8	Radiación solar	0
164177	7	Sololá	701	Sololá	2	El tablón	7	Julio	2023-06-07T00:00:00	2024-11-06T03:00:00	2	Temperatura media	12
164178	7	Sololá	701	Sololá	2	El tablón	7	Julio	2023-06-07T00:00:00	2024-11-06T03:00:00	4	Temperatura máxima	13.5
164179	7	Sololá	701	Sololá	2	El tablón	7	Julio	2023-06-07T00:00:00	2024-11-06T03:00:00	3	Temperatura mínima	12
164180	7	Sololá	701	Sololá	2	El tablón	7	Julio	2023-06-07T00:00:00	2024-11-06T03:00:00	5	Humedad	88
164181	7	Sololá	701	Sololá	2	El tablón	7	Julio	2023-06-07T00:00:00	2024-11-06T03:00:00	6	Velocidad del viento	3.2
164182	7	Sololá	701	Sololá	2	El tablón	7	Julio	2023-06-07T00:00:00	2024-11-06T03:00:00	7	Dirección del viento	3.22
164183	7	Sololá	701	Sololá	2	El tablón	7	Julio	2023-06-07T00:00:00	2024-11-06T03:00:00	1	Precipitación	0
164184	7	Sololá	701	Sololá	2	El tablón	7	Julio	2023-06-07T00:00:00	2024-11-06T03:00:00	8	Radiación solar	0
164185	7	Sololá	701	Sololá	2	El tablón	7	Julio	2023-06-07T00:00:00	2024-11-06T04:00:00	2	Temperatura media	11.8
164186	7	Sololá	701	Sololá	2	El tablón	7	Julio	2023-06-07T00:00:00	2024-11-06T04:00:00	4	Temperatura máxima	12
164187	7	Sololá	701	Sololá	2	El tablón	7	Julio	2023-06-07T00:00:00	2024-11-06T04:00:00	3	Temperatura mínima	11.6
164188	7	Sololá	701	Sololá	2	El tablón	7	Julio	2023-06-07T00:00:00	2024-11-06T04:00:00	5	Humedad	86
164189	7	Sololá	701	Sololá	2	El tablón	7	Julio	2023-06-07T00:00:00	2024-11-06T04:00:00	6	Velocidad del viento	3.2
164190	7	Sololá	701	Sololá	2	El tablón	7	Julio	2023-06-07T00:00:00	2024-11-06T04:00:00	7	Dirección del viento	3.22
164191	7	Sololá	701	Sololá	2	El tablón	7	Julio	2023-06-07T00:00:00	2024-11-06T04:00:00	1	Precipitación	0
164192	7	Sololá	701	Sololá	2	El tablón	7	Julio	2023-06-07T00:00:00	2024-11-06T04:00:00	8	Radiación solar	0
164193	7	Sololá	701	Sololá	2	El tablón	7	Julio	2023-06-07T00:00:00	2024-11-06T05:00:00	2	Temperatura media	12.2
164194	7	Sololá	701	Sololá	2	El tablón	7	Julio	2023-06-07T00:00:00	2024-11-06T05:00:00	4	Temperatura máxima	12.2
164195	7	Sololá	701	Sololá	2	El tablón	7	Julio	2023-06-07T00:00:00	2024-11-06T05:00:00	3	Temperatura mínima	11.7
164196	7	Sololá	701	Sololá	2	El tablón	7	Julio	2023-06-07T00:00:00	2024-11-06T05:00:00	5	Humedad	87
164197	7	Sololá	701	Sololá	2	El tablón	7	Julio	2023-06-07T00:00:00	2024-11-06T05:00:00	6	Velocidad del viento	4.8
164198	7	Sololá	701	Sololá	2	El tablón	7	Julio	2023-06-07T00:00:00	2024-11-06T05:00:00	7	Dirección del viento	4.83
164199	7	Sololá	701	Sololá	2	El tablón	7	Julio	2023-06-07T00:00:00	2024-11-06T05:00:00	1	Precipitación	0
164200	7	Sololá	701	Sololá	2	El tablón	7	Julio	2023-06-07T00:00:00	2024-11-06T05:00:00	8	Radiación solar	0
164201	7	Sololá	701	Sololá	2	El tablón	7	Julio	2023-06-07T00:00:00	2024-11-06T06:00:00	2	Temperatura media	11.9
164202	7	Sololá	701	Sololá	2	El tablón	7	Julio	2023-06-07T00:00:00	2024-11-06T06:00:00	4	Temperatura máxima	12.3
164203	7	Sololá	701	Sololá	2	El tablón	7	Julio	2023-06-07T00:00:00	2024-11-06T06:00:00	3	Temperatura mínima	11.9
164204	7	Sololá	701	Sololá	2	El tablón	7	Julio	2023-06-07T00:00:00	2024-11-06T06:00:00	5	Humedad	88
164205	7	Sololá	701	Sololá	2	El tablón	7	Julio	2023-06-07T00:00:00	2024-11-06T06:00:00	6	Velocidad del viento	3.2
164206	7	Sololá	701	Sololá	2	El tablón	7	Julio	2023-06-07T00:00:00	2024-11-06T06:00:00	7	Dirección del viento	3.22
164207	7	Sololá	701	Sololá	2	El tablón	7	Julio	2023-06-07T00:00:00	2024-11-06T06:00:00	1	Precipitación	0
164208	7	Sololá	701	Sololá	2	El tablón	7	Julio	2023-06-07T00:00:00	2024-11-06T06:00:00	8	Radiación solar	2
164209	7	Sololá	701	Sololá	2	El tablón	7	Julio	2023-06-07T00:00:00	2024-11-06T07:00:00	2	Temperatura media	13.9
164210	7	Sololá	701	Sololá	2	El tablón	7	Julio	2023-06-07T00:00:00	2024-11-06T07:00:00	4	Temperatura máxima	13.9
164211	7	Sololá	701	Sololá	2	El tablón	7	Julio	2023-06-07T00:00:00	2024-11-06T07:00:00	3	Temperatura mínima	11.9
164212	7	Sololá	701	Sololá	2	El tablón	7	Julio	2023-06-07T00:00:00	2024-11-06T07:00:00	5	Humedad	85
164213	7	Sololá	701	Sololá	2	El tablón	7	Julio	2023-06-07T00:00:00	2024-11-06T07:00:00	6	Velocidad del viento	4.8
164214	7	Sololá	701	Sololá	2	El tablón	7	Julio	2023-06-07T00:00:00	2024-11-06T07:00:00	7	Dirección del viento	4.83
164215	7	Sololá	701	Sololá	2	El tablón	7	Julio	2023-06-07T00:00:00	2024-11-06T07:00:00	1	Precipitación	0
164216	7	Sololá	701	Sololá	2	El tablón	7	Julio	2023-06-07T00:00:00	2024-11-06T07:00:00	8	Radiación solar	97
164217	7	Sololá	701	Sololá	2	El tablón	7	Julio	2023-06-07T00:00:00	2024-11-06T08:00:00	2	Temperatura media	16.3
164218	7	Sololá	701	Sololá	2	El tablón	7	Julio	2023-06-07T00:00:00	2024-11-06T08:00:00	4	Temperatura máxima	16.3
164219	7	Sololá	701	Sololá	2	El tablón	7	Julio	2023-06-07T00:00:00	2024-11-06T08:00:00	3	Temperatura mínima	13.9
164220	7	Sololá	701	Sololá	2	El tablón	7	Julio	2023-06-07T00:00:00	2024-11-06T08:00:00	5	Humedad	78
164221	7	Sololá	701	Sololá	2	El tablón	7	Julio	2023-06-07T00:00:00	2024-11-06T08:00:00	6	Velocidad del viento	6.4
164222	7	Sololá	701	Sololá	2	El tablón	7	Julio	2023-06-07T00:00:00	2024-11-06T08:00:00	7	Dirección del viento	6.44
164223	7	Sololá	701	Sololá	2	El tablón	7	Julio	2023-06-07T00:00:00	2024-11-06T08:00:00	1	Precipitación	0
164224	7	Sololá	701	Sololá	2	El tablón	7	Julio	2023-06-07T00:00:00	2024-11-06T08:00:00	8	Radiación solar	293
164225	7	Sololá	701	Sololá	2	El tablón	7	Julio	2023-06-07T00:00:00	2024-11-06T09:00:00	2	Temperatura media	17.9
164226	7	Sololá	701	Sololá	2	El tablón	7	Julio	2023-06-07T00:00:00	2024-11-06T09:00:00	4	Temperatura máxima	18
164227	7	Sololá	701	Sololá	2	El tablón	7	Julio	2023-06-07T00:00:00	2024-11-06T09:00:00	3	Temperatura mínima	16.3
164228	7	Sololá	701	Sololá	2	El tablón	7	Julio	2023-06-07T00:00:00	2024-11-06T09:00:00	5	Humedad	73
164229	7	Sololá	701	Sololá	2	El tablón	7	Julio	2023-06-07T00:00:00	2024-11-06T09:00:00	6	Velocidad del viento	4.8
164230	7	Sololá	701	Sololá	2	El tablón	7	Julio	2023-06-07T00:00:00	2024-11-06T09:00:00	7	Dirección del viento	4.83
164231	7	Sololá	701	Sololá	2	El tablón	7	Julio	2023-06-07T00:00:00	2024-11-06T09:00:00	1	Precipitación	0
164232	7	Sololá	701	Sololá	2	El tablón	7	Julio	2023-06-07T00:00:00	2024-11-06T09:00:00	8	Radiación solar	541
164233	7	Sololá	701	Sololá	2	El tablón	7	Julio	2023-06-07T00:00:00	2024-11-06T10:00:00	2	Temperatura media	18.6
164234	7	Sololá	701	Sololá	2	El tablón	7	Julio	2023-06-07T00:00:00	2024-11-06T10:00:00	4	Temperatura máxima	18.9
164235	7	Sololá	701	Sololá	2	El tablón	7	Julio	2023-06-07T00:00:00	2024-11-06T10:00:00	3	Temperatura mínima	17.9
164236	7	Sololá	701	Sololá	2	El tablón	7	Julio	2023-06-07T00:00:00	2024-11-06T10:00:00	5	Humedad	75
164237	7	Sololá	701	Sololá	2	El tablón	7	Julio	2023-06-07T00:00:00	2024-11-06T10:00:00	6	Velocidad del viento	3.2
164238	7	Sololá	701	Sololá	2	El tablón	7	Julio	2023-06-07T00:00:00	2024-11-06T10:00:00	7	Dirección del viento	3.22
164239	7	Sololá	701	Sololá	2	El tablón	7	Julio	2023-06-07T00:00:00	2024-11-06T10:00:00	1	Precipitación	0
164240	7	Sololá	701	Sololá	2	El tablón	7	Julio	2023-06-07T00:00:00	2024-11-06T10:00:00	8	Radiación solar	572
164241	7	Sololá	701	Sololá	2	El tablón	7	Julio	2023-06-07T00:00:00	2024-11-06T11:00:00	2	Temperatura media	17.6
164242	7	Sololá	701	Sololá	2	El tablón	7	Julio	2023-06-07T00:00:00	2024-11-06T11:00:00	4	Temperatura máxima	18.7
164243	7	Sololá	701	Sololá	2	El tablón	7	Julio	2023-06-07T00:00:00	2024-11-06T11:00:00	3	Temperatura mínima	17.5
164244	7	Sololá	701	Sololá	2	El tablón	7	Julio	2023-06-07T00:00:00	2024-11-06T11:00:00	5	Humedad	79
164245	7	Sololá	701	Sololá	2	El tablón	7	Julio	2023-06-07T00:00:00	2024-11-06T11:00:00	6	Velocidad del viento	4.8
164246	7	Sololá	701	Sololá	2	El tablón	7	Julio	2023-06-07T00:00:00	2024-11-06T11:00:00	7	Dirección del viento	4.83
164247	7	Sololá	701	Sololá	2	El tablón	7	Julio	2023-06-07T00:00:00	2024-11-06T11:00:00	1	Precipitación	0
164248	7	Sololá	701	Sololá	2	El tablón	7	Julio	2023-06-07T00:00:00	2024-11-06T11:00:00	8	Radiación solar	305
164249	7	Sololá	701	Sololá	2	El tablón	7	Julio	2023-06-07T00:00:00	2024-11-06T12:00:00	2	Temperatura media	17.8
164250	7	Sololá	701	Sololá	2	El tablón	7	Julio	2023-06-07T00:00:00	2024-11-06T12:00:00	4	Temperatura máxima	18.3
164251	7	Sololá	701	Sololá	2	El tablón	7	Julio	2023-06-07T00:00:00	2024-11-06T12:00:00	3	Temperatura mínima	17.5
164252	7	Sololá	701	Sololá	2	El tablón	7	Julio	2023-06-07T00:00:00	2024-11-06T12:00:00	5	Humedad	80
164253	7	Sololá	701	Sololá	2	El tablón	7	Julio	2023-06-07T00:00:00	2024-11-06T12:00:00	6	Velocidad del viento	4.8
164254	7	Sololá	701	Sololá	2	El tablón	7	Julio	2023-06-07T00:00:00	2024-11-06T12:00:00	7	Dirección del viento	4.83
164255	7	Sololá	701	Sololá	2	El tablón	7	Julio	2023-06-07T00:00:00	2024-11-06T12:00:00	1	Precipitación	0
164256	7	Sololá	701	Sololá	2	El tablón	7	Julio	2023-06-07T00:00:00	2024-11-06T12:00:00	8	Radiación solar	326
164257	7	Sololá	701	Sololá	2	El tablón	7	Julio	2023-06-07T00:00:00	2024-11-06T13:00:00	2	Temperatura media	18.7
164258	7	Sololá	701	Sololá	2	El tablón	7	Julio	2023-06-07T00:00:00	2024-11-06T13:00:00	4	Temperatura máxima	18.7
164259	7	Sololá	701	Sololá	2	El tablón	7	Julio	2023-06-07T00:00:00	2024-11-06T13:00:00	3	Temperatura mínima	17.1
164260	7	Sololá	701	Sololá	2	El tablón	7	Julio	2023-06-07T00:00:00	2024-11-06T13:00:00	5	Humedad	84
164261	7	Sololá	701	Sololá	2	El tablón	7	Julio	2023-06-07T00:00:00	2024-11-06T13:00:00	6	Velocidad del viento	4.8
164262	7	Sololá	701	Sololá	2	El tablón	7	Julio	2023-06-07T00:00:00	2024-11-06T13:00:00	7	Dirección del viento	4.83
164263	7	Sololá	701	Sololá	2	El tablón	7	Julio	2023-06-07T00:00:00	2024-11-06T13:00:00	1	Precipitación	0
164264	7	Sololá	701	Sololá	2	El tablón	7	Julio	2023-06-07T00:00:00	2024-11-06T13:00:00	8	Radiación solar	316
164265	7	Sololá	701	Sololá	2	El tablón	7	Julio	2023-06-07T00:00:00	2024-11-06T14:00:00	2	Temperatura media	19.2
164266	7	Sololá	701	Sololá	2	El tablón	7	Julio	2023-06-07T00:00:00	2024-11-06T14:00:00	4	Temperatura máxima	20.4
164267	7	Sololá	701	Sololá	2	El tablón	7	Julio	2023-06-07T00:00:00	2024-11-06T14:00:00	3	Temperatura mínima	18.4
164268	7	Sololá	701	Sololá	2	El tablón	7	Julio	2023-06-07T00:00:00	2024-11-06T14:00:00	5	Humedad	78
164269	7	Sololá	701	Sololá	2	El tablón	7	Julio	2023-06-07T00:00:00	2024-11-06T14:00:00	6	Velocidad del viento	4.8
164270	7	Sololá	701	Sololá	2	El tablón	7	Julio	2023-06-07T00:00:00	2024-11-06T14:00:00	7	Dirección del viento	4.83
164271	7	Sololá	701	Sololá	2	El tablón	7	Julio	2023-06-07T00:00:00	2024-11-06T14:00:00	1	Precipitación	0
164272	7	Sololá	701	Sololá	2	El tablón	7	Julio	2023-06-07T00:00:00	2024-11-06T14:00:00	8	Radiación solar	500
164273	7	Sololá	701	Sololá	2	El tablón	7	Julio	2023-06-07T00:00:00	2024-11-06T15:00:00	2	Temperatura media	18.2
164274	7	Sololá	701	Sololá	2	El tablón	7	Julio	2023-06-07T00:00:00	2024-11-06T15:00:00	4	Temperatura máxima	20.1
164275	7	Sololá	701	Sololá	2	El tablón	7	Julio	2023-06-07T00:00:00	2024-11-06T15:00:00	3	Temperatura mínima	18.2
164276	7	Sololá	701	Sololá	2	El tablón	7	Julio	2023-06-07T00:00:00	2024-11-06T15:00:00	5	Humedad	86
164277	7	Sololá	701	Sololá	2	El tablón	7	Julio	2023-06-07T00:00:00	2024-11-06T15:00:00	6	Velocidad del viento	6.4
164278	7	Sololá	701	Sololá	2	El tablón	7	Julio	2023-06-07T00:00:00	2024-11-06T15:00:00	7	Dirección del viento	6.44
164279	7	Sololá	701	Sololá	2	El tablón	7	Julio	2023-06-07T00:00:00	2024-11-06T15:00:00	1	Precipitación	0
164280	7	Sololá	701	Sololá	2	El tablón	7	Julio	2023-06-07T00:00:00	2024-11-06T15:00:00	8	Radiación solar	404
164281	7	Sololá	701	Sololá	2	El tablón	7	Julio	2023-06-07T00:00:00	2024-11-06T16:00:00	2	Temperatura media	17.6
164282	7	Sololá	701	Sololá	2	El tablón	7	Julio	2023-06-07T00:00:00	2024-11-06T16:00:00	4	Temperatura máxima	18.9
164283	7	Sololá	701	Sololá	2	El tablón	7	Julio	2023-06-07T00:00:00	2024-11-06T16:00:00	3	Temperatura mínima	17.6
164284	7	Sololá	701	Sololá	2	El tablón	7	Julio	2023-06-07T00:00:00	2024-11-06T16:00:00	5	Humedad	87
164285	7	Sololá	701	Sololá	2	El tablón	7	Julio	2023-06-07T00:00:00	2024-11-06T16:00:00	6	Velocidad del viento	6.4
164286	7	Sololá	701	Sololá	2	El tablón	7	Julio	2023-06-07T00:00:00	2024-11-06T16:00:00	7	Dirección del viento	6.44
164287	7	Sololá	701	Sololá	2	El tablón	7	Julio	2023-06-07T00:00:00	2024-11-06T16:00:00	1	Precipitación	0
164288	7	Sololá	701	Sololá	2	El tablón	7	Julio	2023-06-07T00:00:00	2024-11-06T16:00:00	8	Radiación solar	500
164289	7	Sololá	701	Sololá	2	El tablón	7	Julio	2023-06-07T00:00:00	2024-11-06T17:00:00	2	Temperatura media	17.7
164290	7	Sololá	701	Sololá	2	El tablón	7	Julio	2023-06-07T00:00:00	2024-11-06T17:00:00	4	Temperatura máxima	18
164291	7	Sololá	701	Sololá	2	El tablón	7	Julio	2023-06-07T00:00:00	2024-11-06T17:00:00	3	Temperatura mínima	16.9
164292	7	Sololá	701	Sololá	2	El tablón	7	Julio	2023-06-07T00:00:00	2024-11-06T17:00:00	5	Humedad	81
164293	7	Sololá	701	Sololá	2	El tablón	7	Julio	2023-06-07T00:00:00	2024-11-06T17:00:00	6	Velocidad del viento	4.8
164294	7	Sololá	701	Sololá	2	El tablón	7	Julio	2023-06-07T00:00:00	2024-11-06T17:00:00	7	Dirección del viento	4.83
164295	7	Sololá	701	Sololá	2	El tablón	7	Julio	2023-06-07T00:00:00	2024-11-06T17:00:00	1	Precipitación	0
164296	7	Sololá	701	Sololá	2	El tablón	7	Julio	2023-06-07T00:00:00	2024-11-06T17:00:00	8	Radiación solar	247
164297	7	Sololá	701	Sololá	2	El tablón	7	Julio	2023-06-07T00:00:00	2024-11-06T18:00:00	2	Temperatura media	16.8
164298	7	Sololá	701	Sololá	2	El tablón	7	Julio	2023-06-07T00:00:00	2024-11-06T18:00:00	4	Temperatura máxima	17.9
164299	7	Sololá	701	Sololá	2	El tablón	7	Julio	2023-06-07T00:00:00	2024-11-06T18:00:00	3	Temperatura mínima	16.8
164300	7	Sololá	701	Sololá	2	El tablón	7	Julio	2023-06-07T00:00:00	2024-11-06T18:00:00	5	Humedad	87
164301	7	Sololá	701	Sololá	2	El tablón	7	Julio	2023-06-07T00:00:00	2024-11-06T18:00:00	6	Velocidad del viento	4.8
164302	7	Sololá	701	Sololá	2	El tablón	7	Julio	2023-06-07T00:00:00	2024-11-06T18:00:00	7	Dirección del viento	4.83
164303	7	Sololá	701	Sololá	2	El tablón	7	Julio	2023-06-07T00:00:00	2024-11-06T18:00:00	1	Precipitación	0
164304	7	Sololá	701	Sololá	2	El tablón	7	Julio	2023-06-07T00:00:00	2024-11-06T18:00:00	8	Radiación solar	146
164305	7	Sololá	701	Sololá	2	El tablón	7	Julio	2023-06-07T00:00:00	2024-11-06T19:00:00	2	Temperatura media	15.3
164306	7	Sololá	701	Sololá	2	El tablón	7	Julio	2023-06-07T00:00:00	2024-11-06T19:00:00	4	Temperatura máxima	16.8
164307	7	Sololá	701	Sololá	2	El tablón	7	Julio	2023-06-07T00:00:00	2024-11-06T19:00:00	3	Temperatura mínima	15.3
164308	7	Sololá	701	Sololá	2	El tablón	7	Julio	2023-06-07T00:00:00	2024-11-06T19:00:00	5	Humedad	88
164309	7	Sololá	701	Sololá	2	El tablón	7	Julio	2023-06-07T00:00:00	2024-11-06T19:00:00	6	Velocidad del viento	1.6
164310	7	Sololá	701	Sololá	2	El tablón	7	Julio	2023-06-07T00:00:00	2024-11-06T19:00:00	7	Dirección del viento	1.61
164311	7	Sololá	701	Sololá	2	El tablón	7	Julio	2023-06-07T00:00:00	2024-11-06T19:00:00	1	Precipitación	0
164312	7	Sololá	701	Sololá	2	El tablón	7	Julio	2023-06-07T00:00:00	2024-11-06T19:00:00	8	Radiación solar	0
164313	7	Sololá	701	Sololá	2	El tablón	7	Julio	2023-06-07T00:00:00	2024-11-06T20:00:00	2	Temperatura media	14.3
164314	7	Sololá	701	Sololá	2	El tablón	7	Julio	2023-06-07T00:00:00	2024-11-06T20:00:00	4	Temperatura máxima	15.3
164315	7	Sololá	701	Sololá	2	El tablón	7	Julio	2023-06-07T00:00:00	2024-11-06T20:00:00	3	Temperatura mínima	14.3
164316	7	Sololá	701	Sololá	2	El tablón	7	Julio	2023-06-07T00:00:00	2024-11-06T20:00:00	5	Humedad	86
164317	7	Sololá	701	Sololá	2	El tablón	7	Julio	2023-06-07T00:00:00	2024-11-06T20:00:00	6	Velocidad del viento	4.8
164318	7	Sololá	701	Sololá	2	El tablón	7	Julio	2023-06-07T00:00:00	2024-11-06T20:00:00	7	Dirección del viento	4.83
164319	7	Sololá	701	Sololá	2	El tablón	7	Julio	2023-06-07T00:00:00	2024-11-06T20:00:00	1	Precipitación	0
164320	7	Sololá	701	Sololá	2	El tablón	7	Julio	2023-06-07T00:00:00	2024-11-06T20:00:00	8	Radiación solar	0
164321	7	Sololá	701	Sololá	2	El tablón	7	Julio	2023-06-07T00:00:00	2024-11-06T21:00:00	2	Temperatura media	14.2
164322	7	Sololá	701	Sololá	2	El tablón	7	Julio	2023-06-07T00:00:00	2024-11-06T21:00:00	4	Temperatura máxima	14.3
164323	7	Sololá	701	Sololá	2	El tablón	7	Julio	2023-06-07T00:00:00	2024-11-06T21:00:00	3	Temperatura mínima	14.1
164324	7	Sololá	701	Sololá	2	El tablón	7	Julio	2023-06-07T00:00:00	2024-11-06T21:00:00	5	Humedad	86
164325	7	Sololá	701	Sololá	2	El tablón	7	Julio	2023-06-07T00:00:00	2024-11-06T21:00:00	6	Velocidad del viento	4.8
164326	7	Sololá	701	Sololá	2	El tablón	7	Julio	2023-06-07T00:00:00	2024-11-06T21:00:00	7	Dirección del viento	4.83
164327	7	Sololá	701	Sololá	2	El tablón	7	Julio	2023-06-07T00:00:00	2024-11-06T21:00:00	1	Precipitación	0
164328	7	Sololá	701	Sololá	2	El tablón	7	Julio	2023-06-07T00:00:00	2024-11-06T21:00:00	8	Radiación solar	0
164329	7	Sololá	701	Sololá	2	El tablón	7	Julio	2023-06-07T00:00:00	2024-11-06T22:00:00	2	Temperatura media	14.2
164330	7	Sololá	701	Sololá	2	El tablón	7	Julio	2023-06-07T00:00:00	2024-11-06T22:00:00	4	Temperatura máxima	14.3
164331	7	Sololá	701	Sololá	2	El tablón	7	Julio	2023-06-07T00:00:00	2024-11-06T22:00:00	3	Temperatura mínima	14.1
164332	7	Sololá	701	Sololá	2	El tablón	7	Julio	2023-06-07T00:00:00	2024-11-06T22:00:00	5	Humedad	87
164333	7	Sololá	701	Sololá	2	El tablón	7	Julio	2023-06-07T00:00:00	2024-11-06T22:00:00	6	Velocidad del viento	6.4
164334	7	Sololá	701	Sololá	2	El tablón	7	Julio	2023-06-07T00:00:00	2024-11-06T22:00:00	7	Dirección del viento	6.44
164335	7	Sololá	701	Sololá	2	El tablón	7	Julio	2023-06-07T00:00:00	2024-11-06T22:00:00	1	Precipitación	0
164336	7	Sololá	701	Sololá	2	El tablón	7	Julio	2023-06-07T00:00:00	2024-11-06T22:00:00	8	Radiación solar	0
164337	7	Sololá	701	Sololá	2	El tablón	7	Julio	2023-06-07T00:00:00	2024-11-06T23:00:00	2	Temperatura media	14.2
164338	7	Sololá	701	Sololá	2	El tablón	7	Julio	2023-06-07T00:00:00	2024-11-06T23:00:00	4	Temperatura máxima	14.3
164339	7	Sololá	701	Sololá	2	El tablón	7	Julio	2023-06-07T00:00:00	2024-11-06T23:00:00	3	Temperatura mínima	14.2
164340	7	Sololá	701	Sololá	2	El tablón	7	Julio	2023-06-07T00:00:00	2024-11-06T23:00:00	5	Humedad	86
164341	7	Sololá	701	Sololá	2	El tablón	7	Julio	2023-06-07T00:00:00	2024-11-06T23:00:00	6	Velocidad del viento	8
164342	7	Sololá	701	Sololá	2	El tablón	7	Julio	2023-06-07T00:00:00	2024-11-06T23:00:00	7	Dirección del viento	8.05
164343	7	Sololá	701	Sololá	2	El tablón	7	Julio	2023-06-07T00:00:00	2024-11-06T23:00:00	1	Precipitación	0
164344	7	Sololá	701	Sololá	2	El tablón	7	Julio	2023-06-07T00:00:00	2024-11-06T23:00:00	8	Radiación solar	0
164345	7	Sololá	701	Sololá	2	El tablón	7	Julio	2023-07-07T00:00:00	2024-11-06T00:00:00	2	Temperatura media	13.5
164346	7	Sololá	701	Sololá	2	El tablón	7	Julio	2023-07-07T00:00:00	2024-11-06T00:00:00	4	Temperatura máxima	14.2
164347	7	Sololá	701	Sololá	2	El tablón	7	Julio	2023-07-07T00:00:00	2024-11-06T00:00:00	3	Temperatura mínima	13.4
164348	7	Sololá	701	Sololá	2	El tablón	7	Julio	2023-07-07T00:00:00	2024-11-06T00:00:00	5	Humedad	87
164349	7	Sololá	701	Sololá	2	El tablón	7	Julio	2023-07-07T00:00:00	2024-11-06T00:00:00	6	Velocidad del viento	6.4
164350	7	Sololá	701	Sololá	2	El tablón	7	Julio	2023-07-07T00:00:00	2024-11-06T00:00:00	7	Dirección del viento	6.44
164351	7	Sololá	701	Sololá	2	El tablón	7	Julio	2023-07-07T00:00:00	2024-11-06T00:00:00	1	Precipitación	0
164352	7	Sololá	701	Sololá	2	El tablón	7	Julio	2023-07-07T00:00:00	2024-11-06T00:00:00	8	Radiación solar	0
164353	7	Sololá	701	Sololá	2	El tablón	7	Julio	2023-07-07T00:00:00	2024-11-06T01:00:00	2	Temperatura media	13.5
164354	7	Sololá	701	Sololá	2	El tablón	7	Julio	2023-07-07T00:00:00	2024-11-06T01:00:00	4	Temperatura máxima	13.6
164355	7	Sololá	701	Sololá	2	El tablón	7	Julio	2023-07-07T00:00:00	2024-11-06T01:00:00	3	Temperatura mínima	13.4
164356	7	Sololá	701	Sololá	2	El tablón	7	Julio	2023-07-07T00:00:00	2024-11-06T01:00:00	5	Humedad	87
164357	7	Sololá	701	Sololá	2	El tablón	7	Julio	2023-07-07T00:00:00	2024-11-06T01:00:00	6	Velocidad del viento	9.7
164358	7	Sololá	701	Sololá	2	El tablón	7	Julio	2023-07-07T00:00:00	2024-11-06T01:00:00	7	Dirección del viento	9.66
164359	7	Sololá	701	Sololá	2	El tablón	7	Julio	2023-07-07T00:00:00	2024-11-06T01:00:00	1	Precipitación	0
164360	7	Sololá	701	Sololá	2	El tablón	7	Julio	2023-07-07T00:00:00	2024-11-06T01:00:00	8	Radiación solar	0
164361	7	Sololá	701	Sololá	2	El tablón	7	Julio	2023-07-07T00:00:00	2024-11-06T02:00:00	2	Temperatura media	13.3
164362	7	Sololá	701	Sololá	2	El tablón	7	Julio	2023-07-07T00:00:00	2024-11-06T02:00:00	4	Temperatura máxima	13.5
164363	7	Sololá	701	Sololá	2	El tablón	7	Julio	2023-07-07T00:00:00	2024-11-06T02:00:00	3	Temperatura mínima	13.3
164364	7	Sololá	701	Sololá	2	El tablón	7	Julio	2023-07-07T00:00:00	2024-11-06T02:00:00	5	Humedad	86
164365	7	Sololá	701	Sololá	2	El tablón	7	Julio	2023-07-07T00:00:00	2024-11-06T02:00:00	6	Velocidad del viento	8
164366	7	Sololá	701	Sololá	2	El tablón	7	Julio	2023-07-07T00:00:00	2024-11-06T02:00:00	7	Dirección del viento	8.05
164367	7	Sololá	701	Sololá	2	El tablón	7	Julio	2023-07-07T00:00:00	2024-11-06T02:00:00	1	Precipitación	0
164368	7	Sololá	701	Sololá	2	El tablón	7	Julio	2023-07-07T00:00:00	2024-11-06T02:00:00	8	Radiación solar	0
164369	7	Sololá	701	Sololá	2	El tablón	7	Julio	2023-07-07T00:00:00	2024-11-06T03:00:00	2	Temperatura media	13.3
164370	7	Sololá	701	Sololá	2	El tablón	7	Julio	2023-07-07T00:00:00	2024-11-06T03:00:00	4	Temperatura máxima	13.4
164371	7	Sololá	701	Sololá	2	El tablón	7	Julio	2023-07-07T00:00:00	2024-11-06T03:00:00	3	Temperatura mínima	13.2
164372	7	Sololá	701	Sololá	2	El tablón	7	Julio	2023-07-07T00:00:00	2024-11-06T03:00:00	5	Humedad	86
164373	7	Sololá	701	Sololá	2	El tablón	7	Julio	2023-07-07T00:00:00	2024-11-06T03:00:00	6	Velocidad del viento	8
164374	7	Sololá	701	Sololá	2	El tablón	7	Julio	2023-07-07T00:00:00	2024-11-06T03:00:00	7	Dirección del viento	8.05
164375	7	Sololá	701	Sololá	2	El tablón	7	Julio	2023-07-07T00:00:00	2024-11-06T03:00:00	1	Precipitación	0
164376	7	Sololá	701	Sololá	2	El tablón	7	Julio	2023-07-07T00:00:00	2024-11-06T03:00:00	8	Radiación solar	0
164377	7	Sololá	701	Sololá	2	El tablón	7	Julio	2023-07-07T00:00:00	2024-11-06T04:00:00	2	Temperatura media	13.1
164378	7	Sololá	701	Sololá	2	El tablón	7	Julio	2023-07-07T00:00:00	2024-11-06T04:00:00	4	Temperatura máxima	13.3
164379	7	Sololá	701	Sololá	2	El tablón	7	Julio	2023-07-07T00:00:00	2024-11-06T04:00:00	3	Temperatura mínima	13.1
164380	7	Sololá	701	Sololá	2	El tablón	7	Julio	2023-07-07T00:00:00	2024-11-06T04:00:00	5	Humedad	86
164381	7	Sololá	701	Sololá	2	El tablón	7	Julio	2023-07-07T00:00:00	2024-11-06T04:00:00	6	Velocidad del viento	8
164382	7	Sololá	701	Sololá	2	El tablón	7	Julio	2023-07-07T00:00:00	2024-11-06T04:00:00	7	Dirección del viento	8.05
164383	7	Sololá	701	Sololá	2	El tablón	7	Julio	2023-07-07T00:00:00	2024-11-06T04:00:00	1	Precipitación	0
164384	7	Sololá	701	Sololá	2	El tablón	7	Julio	2023-07-07T00:00:00	2024-11-06T04:00:00	8	Radiación solar	0
164385	7	Sololá	701	Sololá	2	El tablón	7	Julio	2023-07-07T00:00:00	2024-11-06T05:00:00	2	Temperatura media	11.7
164386	7	Sololá	701	Sololá	2	El tablón	7	Julio	2023-07-07T00:00:00	2024-11-06T05:00:00	4	Temperatura máxima	13.1
164387	7	Sololá	701	Sololá	2	El tablón	7	Julio	2023-07-07T00:00:00	2024-11-06T05:00:00	3	Temperatura mínima	11.7
164388	7	Sololá	701	Sololá	2	El tablón	7	Julio	2023-07-07T00:00:00	2024-11-06T05:00:00	5	Humedad	88
164389	7	Sololá	701	Sololá	2	El tablón	7	Julio	2023-07-07T00:00:00	2024-11-06T05:00:00	6	Velocidad del viento	3.2
164390	7	Sololá	701	Sololá	2	El tablón	7	Julio	2023-07-07T00:00:00	2024-11-06T05:00:00	7	Dirección del viento	3.22
164391	7	Sololá	701	Sololá	2	El tablón	7	Julio	2023-07-07T00:00:00	2024-11-06T05:00:00	1	Precipitación	0
164392	7	Sololá	701	Sololá	2	El tablón	7	Julio	2023-07-07T00:00:00	2024-11-06T05:00:00	8	Radiación solar	0
164393	7	Sololá	701	Sololá	2	El tablón	7	Julio	2023-07-07T00:00:00	2024-11-06T06:00:00	2	Temperatura media	12.8
164394	7	Sololá	701	Sololá	2	El tablón	7	Julio	2023-07-07T00:00:00	2024-11-06T06:00:00	4	Temperatura máxima	12.8
164395	7	Sololá	701	Sololá	2	El tablón	7	Julio	2023-07-07T00:00:00	2024-11-06T06:00:00	3	Temperatura mínima	11.6
164396	7	Sololá	701	Sololá	2	El tablón	7	Julio	2023-07-07T00:00:00	2024-11-06T06:00:00	5	Humedad	86
164397	7	Sololá	701	Sololá	2	El tablón	7	Julio	2023-07-07T00:00:00	2024-11-06T06:00:00	6	Velocidad del viento	4.8
164398	7	Sololá	701	Sololá	2	El tablón	7	Julio	2023-07-07T00:00:00	2024-11-06T06:00:00	7	Dirección del viento	4.83
164399	7	Sololá	701	Sololá	2	El tablón	7	Julio	2023-07-07T00:00:00	2024-11-06T06:00:00	1	Precipitación	0
164400	7	Sololá	701	Sololá	2	El tablón	7	Julio	2023-07-07T00:00:00	2024-11-06T06:00:00	8	Radiación solar	2
164401	7	Sololá	701	Sololá	2	El tablón	7	Julio	2023-07-07T00:00:00	2024-11-06T07:00:00	2	Temperatura media	13.8
164402	7	Sololá	701	Sololá	2	El tablón	7	Julio	2023-07-07T00:00:00	2024-11-06T07:00:00	4	Temperatura máxima	13.8
164403	7	Sololá	701	Sololá	2	El tablón	7	Julio	2023-07-07T00:00:00	2024-11-06T07:00:00	3	Temperatura mínima	12.8
164404	7	Sololá	701	Sololá	2	El tablón	7	Julio	2023-07-07T00:00:00	2024-11-06T07:00:00	5	Humedad	85
164405	7	Sololá	701	Sololá	2	El tablón	7	Julio	2023-07-07T00:00:00	2024-11-06T07:00:00	6	Velocidad del viento	11.3
164406	7	Sololá	701	Sololá	2	El tablón	7	Julio	2023-07-07T00:00:00	2024-11-06T07:00:00	7	Dirección del viento	11.27
164407	7	Sololá	701	Sololá	2	El tablón	7	Julio	2023-07-07T00:00:00	2024-11-06T07:00:00	1	Precipitación	0
164408	7	Sololá	701	Sololá	2	El tablón	7	Julio	2023-07-07T00:00:00	2024-11-06T07:00:00	8	Radiación solar	67
164409	7	Sololá	701	Sololá	2	El tablón	7	Julio	2023-07-07T00:00:00	2024-11-06T08:00:00	2	Temperatura media	17.4
164410	7	Sololá	701	Sololá	2	El tablón	7	Julio	2023-07-07T00:00:00	2024-11-06T08:00:00	4	Temperatura máxima	17.4
164411	7	Sololá	701	Sololá	2	El tablón	7	Julio	2023-07-07T00:00:00	2024-11-06T08:00:00	3	Temperatura mínima	13.8
164412	7	Sololá	701	Sololá	2	El tablón	7	Julio	2023-07-07T00:00:00	2024-11-06T08:00:00	5	Humedad	69
164413	7	Sololá	701	Sololá	2	El tablón	7	Julio	2023-07-07T00:00:00	2024-11-06T08:00:00	6	Velocidad del viento	9.7
164414	7	Sololá	701	Sololá	2	El tablón	7	Julio	2023-07-07T00:00:00	2024-11-06T08:00:00	7	Dirección del viento	9.66
164415	7	Sololá	701	Sololá	2	El tablón	7	Julio	2023-07-07T00:00:00	2024-11-06T08:00:00	1	Precipitación	0
164416	7	Sololá	701	Sololá	2	El tablón	7	Julio	2023-07-07T00:00:00	2024-11-06T08:00:00	8	Radiación solar	347
164417	7	Sololá	701	Sololá	2	El tablón	7	Julio	2023-07-07T00:00:00	2024-11-06T09:00:00	2	Temperatura media	19.6
164418	7	Sololá	701	Sololá	2	El tablón	7	Julio	2023-07-07T00:00:00	2024-11-06T09:00:00	4	Temperatura máxima	19.6
164419	7	Sololá	701	Sololá	2	El tablón	7	Julio	2023-07-07T00:00:00	2024-11-06T09:00:00	3	Temperatura mínima	17.2
164420	7	Sololá	701	Sololá	2	El tablón	7	Julio	2023-07-07T00:00:00	2024-11-06T09:00:00	5	Humedad	66
164421	7	Sololá	701	Sololá	2	El tablón	7	Julio	2023-07-07T00:00:00	2024-11-06T09:00:00	6	Velocidad del viento	8
164422	7	Sololá	701	Sololá	2	El tablón	7	Julio	2023-07-07T00:00:00	2024-11-06T09:00:00	7	Dirección del viento	8.05
164423	7	Sololá	701	Sololá	2	El tablón	7	Julio	2023-07-07T00:00:00	2024-11-06T09:00:00	1	Precipitación	0
164424	7	Sololá	701	Sololá	2	El tablón	7	Julio	2023-07-07T00:00:00	2024-11-06T09:00:00	8	Radiación solar	552
164425	7	Sololá	701	Sololá	2	El tablón	7	Julio	2023-07-07T00:00:00	2024-11-06T10:00:00	2	Temperatura media	20.4
164426	7	Sololá	701	Sololá	2	El tablón	7	Julio	2023-07-07T00:00:00	2024-11-06T10:00:00	4	Temperatura máxima	20.4
164427	7	Sololá	701	Sololá	2	El tablón	7	Julio	2023-07-07T00:00:00	2024-11-06T10:00:00	3	Temperatura mínima	18.7
164428	7	Sololá	701	Sololá	2	El tablón	7	Julio	2023-07-07T00:00:00	2024-11-06T10:00:00	5	Humedad	66
164429	7	Sololá	701	Sololá	2	El tablón	7	Julio	2023-07-07T00:00:00	2024-11-06T10:00:00	6	Velocidad del viento	11.3
164430	7	Sololá	701	Sololá	2	El tablón	7	Julio	2023-07-07T00:00:00	2024-11-06T10:00:00	7	Dirección del viento	11.27
164431	7	Sololá	701	Sololá	2	El tablón	7	Julio	2023-07-07T00:00:00	2024-11-06T10:00:00	1	Precipitación	0
164432	7	Sololá	701	Sololá	2	El tablón	7	Julio	2023-07-07T00:00:00	2024-11-06T10:00:00	8	Radiación solar	738
164433	7	Sololá	701	Sololá	2	El tablón	7	Julio	2023-07-07T00:00:00	2024-11-06T11:00:00	2	Temperatura media	20.5
164434	7	Sololá	701	Sololá	2	El tablón	7	Julio	2023-07-07T00:00:00	2024-11-06T11:00:00	4	Temperatura máxima	20.7
164435	7	Sololá	701	Sololá	2	El tablón	7	Julio	2023-07-07T00:00:00	2024-11-06T11:00:00	3	Temperatura mínima	20.1
164436	7	Sololá	701	Sololá	2	El tablón	7	Julio	2023-07-07T00:00:00	2024-11-06T11:00:00	5	Humedad	69
164437	7	Sololá	701	Sololá	2	El tablón	7	Julio	2023-07-07T00:00:00	2024-11-06T11:00:00	6	Velocidad del viento	8
164438	7	Sololá	701	Sololá	2	El tablón	7	Julio	2023-07-07T00:00:00	2024-11-06T11:00:00	7	Dirección del viento	8.05
164439	7	Sololá	701	Sololá	2	El tablón	7	Julio	2023-07-07T00:00:00	2024-11-06T11:00:00	1	Precipitación	0
164440	7	Sololá	701	Sololá	2	El tablón	7	Julio	2023-07-07T00:00:00	2024-11-06T11:00:00	8	Radiación solar	854
164441	7	Sololá	701	Sololá	2	El tablón	7	Julio	2023-07-07T00:00:00	2024-11-06T12:00:00	2	Temperatura media	16.1
164442	7	Sololá	701	Sololá	2	El tablón	7	Julio	2023-07-07T00:00:00	2024-11-06T12:00:00	4	Temperatura máxima	20.4
164443	7	Sololá	701	Sololá	2	El tablón	7	Julio	2023-07-07T00:00:00	2024-11-06T12:00:00	3	Temperatura mínima	16.1
164444	7	Sololá	701	Sololá	2	El tablón	7	Julio	2023-07-07T00:00:00	2024-11-06T12:00:00	5	Humedad	87
164445	7	Sololá	701	Sololá	2	El tablón	7	Julio	2023-07-07T00:00:00	2024-11-06T12:00:00	6	Velocidad del viento	8
164446	7	Sololá	701	Sololá	2	El tablón	7	Julio	2023-07-07T00:00:00	2024-11-06T12:00:00	7	Dirección del viento	8.05
164447	7	Sololá	701	Sololá	2	El tablón	7	Julio	2023-07-07T00:00:00	2024-11-06T12:00:00	1	Precipitación	0
164448	7	Sololá	701	Sololá	2	El tablón	7	Julio	2023-07-07T00:00:00	2024-11-06T12:00:00	8	Radiación solar	501
164449	7	Sololá	701	Sololá	2	El tablón	7	Julio	2023-07-07T00:00:00	2024-11-06T13:00:00	2	Temperatura media	17.1
164450	7	Sololá	701	Sololá	2	El tablón	7	Julio	2023-07-07T00:00:00	2024-11-06T13:00:00	4	Temperatura máxima	17.1
164451	7	Sololá	701	Sololá	2	El tablón	7	Julio	2023-07-07T00:00:00	2024-11-06T13:00:00	3	Temperatura mínima	16.1
164452	7	Sololá	701	Sololá	2	El tablón	7	Julio	2023-07-07T00:00:00	2024-11-06T13:00:00	5	Humedad	87
164453	7	Sololá	701	Sololá	2	El tablón	7	Julio	2023-07-07T00:00:00	2024-11-06T13:00:00	6	Velocidad del viento	6.4
164454	7	Sololá	701	Sololá	2	El tablón	7	Julio	2023-07-07T00:00:00	2024-11-06T13:00:00	7	Dirección del viento	6.44
164455	7	Sololá	701	Sololá	2	El tablón	7	Julio	2023-07-07T00:00:00	2024-11-06T13:00:00	1	Precipitación	0
164456	7	Sololá	701	Sololá	2	El tablón	7	Julio	2023-07-07T00:00:00	2024-11-06T13:00:00	8	Radiación solar	432
164457	7	Sololá	701	Sololá	2	El tablón	7	Julio	2023-07-07T00:00:00	2024-11-06T14:00:00	2	Temperatura media	16.3
164458	7	Sololá	701	Sololá	2	El tablón	7	Julio	2023-07-07T00:00:00	2024-11-06T14:00:00	4	Temperatura máxima	18
164459	7	Sololá	701	Sololá	2	El tablón	7	Julio	2023-07-07T00:00:00	2024-11-06T14:00:00	3	Temperatura mínima	16.3
164460	7	Sololá	701	Sololá	2	El tablón	7	Julio	2023-07-07T00:00:00	2024-11-06T14:00:00	5	Humedad	88
164461	7	Sololá	701	Sololá	2	El tablón	7	Julio	2023-07-07T00:00:00	2024-11-06T14:00:00	6	Velocidad del viento	6.4
164462	7	Sololá	701	Sololá	2	El tablón	7	Julio	2023-07-07T00:00:00	2024-11-06T14:00:00	7	Dirección del viento	6.44
164463	7	Sololá	701	Sololá	2	El tablón	7	Julio	2023-07-07T00:00:00	2024-11-06T14:00:00	1	Precipitación	0
164464	7	Sololá	701	Sololá	2	El tablón	7	Julio	2023-07-07T00:00:00	2024-11-06T14:00:00	8	Radiación solar	305
164465	7	Sololá	701	Sololá	2	El tablón	7	Julio	2023-07-07T00:00:00	2024-11-06T15:00:00	2	Temperatura media	14.9
164466	7	Sololá	701	Sololá	2	El tablón	7	Julio	2023-07-07T00:00:00	2024-11-06T15:00:00	4	Temperatura máxima	16.3
164467	7	Sololá	701	Sololá	2	El tablón	7	Julio	2023-07-07T00:00:00	2024-11-06T15:00:00	3	Temperatura mínima	14.9
164468	7	Sololá	701	Sololá	2	El tablón	7	Julio	2023-07-07T00:00:00	2024-11-06T15:00:00	5	Humedad	88
164469	7	Sololá	701	Sololá	2	El tablón	7	Julio	2023-07-07T00:00:00	2024-11-06T15:00:00	6	Velocidad del viento	4.8
164470	7	Sololá	701	Sololá	2	El tablón	7	Julio	2023-07-07T00:00:00	2024-11-06T15:00:00	7	Dirección del viento	4.83
164471	7	Sololá	701	Sololá	2	El tablón	7	Julio	2023-07-07T00:00:00	2024-11-06T15:00:00	1	Precipitación	0.8
164472	7	Sololá	701	Sololá	2	El tablón	7	Julio	2023-07-07T00:00:00	2024-11-06T15:00:00	8	Radiación solar	70
164473	7	Sololá	701	Sololá	2	El tablón	7	Julio	2023-07-07T00:00:00	2024-11-06T16:00:00	2	Temperatura media	13.1
164474	7	Sololá	701	Sololá	2	El tablón	7	Julio	2023-07-07T00:00:00	2024-11-06T16:00:00	4	Temperatura máxima	14.9
164475	7	Sololá	701	Sololá	2	El tablón	7	Julio	2023-07-07T00:00:00	2024-11-06T16:00:00	3	Temperatura mínima	13.1
164476	7	Sololá	701	Sololá	2	El tablón	7	Julio	2023-07-07T00:00:00	2024-11-06T16:00:00	5	Humedad	88
164477	7	Sololá	701	Sololá	2	El tablón	7	Julio	2023-07-07T00:00:00	2024-11-06T16:00:00	6	Velocidad del viento	4.8
164478	7	Sololá	701	Sololá	2	El tablón	7	Julio	2023-07-07T00:00:00	2024-11-06T16:00:00	7	Dirección del viento	4.83
164479	7	Sololá	701	Sololá	2	El tablón	7	Julio	2023-07-07T00:00:00	2024-11-06T16:00:00	1	Precipitación	3
164480	7	Sololá	701	Sololá	2	El tablón	7	Julio	2023-07-07T00:00:00	2024-11-06T16:00:00	8	Radiación solar	18
164481	7	Sololá	701	Sololá	2	El tablón	7	Julio	2023-07-07T00:00:00	2024-11-06T17:00:00	2	Temperatura media	13.4
164482	7	Sololá	701	Sololá	2	El tablón	7	Julio	2023-07-07T00:00:00	2024-11-06T17:00:00	4	Temperatura máxima	13.4
164483	7	Sololá	701	Sololá	2	El tablón	7	Julio	2023-07-07T00:00:00	2024-11-06T17:00:00	3	Temperatura mínima	12.7
164484	7	Sololá	701	Sololá	2	El tablón	7	Julio	2023-07-07T00:00:00	2024-11-06T17:00:00	5	Humedad	87
164485	7	Sololá	701	Sololá	2	El tablón	7	Julio	2023-07-07T00:00:00	2024-11-06T17:00:00	6	Velocidad del viento	3.2
164486	7	Sololá	701	Sololá	2	El tablón	7	Julio	2023-07-07T00:00:00	2024-11-06T17:00:00	7	Dirección del viento	3.22
164487	7	Sololá	701	Sololá	2	El tablón	7	Julio	2023-07-07T00:00:00	2024-11-06T17:00:00	1	Precipitación	26.2
164488	7	Sololá	701	Sololá	2	El tablón	7	Julio	2023-07-07T00:00:00	2024-11-06T17:00:00	8	Radiación solar	7
164489	7	Sololá	701	Sololá	2	El tablón	7	Julio	2023-07-07T00:00:00	2024-11-06T18:00:00	2	Temperatura media	12.8
164490	7	Sololá	701	Sololá	2	El tablón	7	Julio	2023-07-07T00:00:00	2024-11-06T18:00:00	4	Temperatura máxima	13.4
164491	7	Sololá	701	Sololá	2	El tablón	7	Julio	2023-07-07T00:00:00	2024-11-06T18:00:00	3	Temperatura mínima	12.8
164492	7	Sololá	701	Sololá	2	El tablón	7	Julio	2023-07-07T00:00:00	2024-11-06T18:00:00	5	Humedad	87
164493	7	Sololá	701	Sololá	2	El tablón	7	Julio	2023-07-07T00:00:00	2024-11-06T18:00:00	6	Velocidad del viento	1.6
164494	7	Sololá	701	Sololá	2	El tablón	7	Julio	2023-07-07T00:00:00	2024-11-06T18:00:00	7	Dirección del viento	1.61
164495	7	Sololá	701	Sololá	2	El tablón	7	Julio	2023-07-07T00:00:00	2024-11-06T18:00:00	1	Precipitación	3.4
164496	7	Sololá	701	Sololá	2	El tablón	7	Julio	2023-07-07T00:00:00	2024-11-06T18:00:00	8	Radiación solar	6
164497	7	Sololá	701	Sololá	2	El tablón	7	Julio	2023-07-07T00:00:00	2024-11-06T19:00:00	2	Temperatura media	12.8
164498	7	Sololá	701	Sololá	2	El tablón	7	Julio	2023-07-07T00:00:00	2024-11-06T19:00:00	4	Temperatura máxima	13
164499	7	Sololá	701	Sololá	2	El tablón	7	Julio	2023-07-07T00:00:00	2024-11-06T19:00:00	3	Temperatura mínima	12.7
164500	7	Sololá	701	Sololá	2	El tablón	7	Julio	2023-07-07T00:00:00	2024-11-06T19:00:00	5	Humedad	87
164501	7	Sololá	701	Sololá	2	El tablón	7	Julio	2023-07-07T00:00:00	2024-11-06T19:00:00	6	Velocidad del viento	1.6
164502	7	Sololá	701	Sololá	2	El tablón	7	Julio	2023-07-07T00:00:00	2024-11-06T19:00:00	7	Dirección del viento	1.61
164503	7	Sololá	701	Sololá	2	El tablón	7	Julio	2023-07-07T00:00:00	2024-11-06T19:00:00	1	Precipitación	0.8
164504	7	Sololá	701	Sololá	2	El tablón	7	Julio	2023-07-07T00:00:00	2024-11-06T19:00:00	8	Radiación solar	0
164505	7	Sololá	701	Sololá	2	El tablón	7	Julio	2023-07-07T00:00:00	2024-11-06T20:00:00	2	Temperatura media	12.8
164506	7	Sololá	701	Sololá	2	El tablón	7	Julio	2023-07-07T00:00:00	2024-11-06T20:00:00	4	Temperatura máxima	12.9
164507	7	Sololá	701	Sololá	2	El tablón	7	Julio	2023-07-07T00:00:00	2024-11-06T20:00:00	3	Temperatura mínima	12.7
164508	7	Sololá	701	Sololá	2	El tablón	7	Julio	2023-07-07T00:00:00	2024-11-06T20:00:00	5	Humedad	86
164509	7	Sololá	701	Sololá	2	El tablón	7	Julio	2023-07-07T00:00:00	2024-11-06T20:00:00	6	Velocidad del viento	1.6
164510	7	Sololá	701	Sololá	2	El tablón	7	Julio	2023-07-07T00:00:00	2024-11-06T20:00:00	7	Dirección del viento	1.61
164511	7	Sololá	701	Sololá	2	El tablón	7	Julio	2023-07-07T00:00:00	2024-11-06T20:00:00	1	Precipitación	0
164512	7	Sololá	701	Sololá	2	El tablón	7	Julio	2023-07-07T00:00:00	2024-11-06T20:00:00	8	Radiación solar	0
164513	7	Sololá	701	Sololá	2	El tablón	7	Julio	2023-07-07T00:00:00	2024-11-06T21:00:00	2	Temperatura media	12.7
164514	7	Sololá	701	Sololá	2	El tablón	7	Julio	2023-07-07T00:00:00	2024-11-06T21:00:00	4	Temperatura máxima	12.9
164515	7	Sololá	701	Sololá	2	El tablón	7	Julio	2023-07-07T00:00:00	2024-11-06T21:00:00	3	Temperatura mínima	12.6
164516	7	Sololá	701	Sololá	2	El tablón	7	Julio	2023-07-07T00:00:00	2024-11-06T21:00:00	5	Humedad	86
164517	7	Sololá	701	Sololá	2	El tablón	7	Julio	2023-07-07T00:00:00	2024-11-06T21:00:00	6	Velocidad del viento	0
164518	7	Sololá	701	Sololá	2	El tablón	7	Julio	2023-07-07T00:00:00	2024-11-06T21:00:00	7	Dirección del viento	0
164519	7	Sololá	701	Sololá	2	El tablón	7	Julio	2023-07-07T00:00:00	2024-11-06T21:00:00	1	Precipitación	0
164520	7	Sololá	701	Sololá	2	El tablón	7	Julio	2023-07-07T00:00:00	2024-11-06T21:00:00	8	Radiación solar	0
164521	7	Sololá	701	Sololá	2	El tablón	7	Julio	2023-07-07T00:00:00	2024-11-06T22:00:00	2	Temperatura media	12.6
164522	7	Sololá	701	Sololá	2	El tablón	7	Julio	2023-07-07T00:00:00	2024-11-06T22:00:00	4	Temperatura máxima	12.8
164523	7	Sololá	701	Sololá	2	El tablón	7	Julio	2023-07-07T00:00:00	2024-11-06T22:00:00	3	Temperatura mínima	12.6
164524	7	Sololá	701	Sololá	2	El tablón	7	Julio	2023-07-07T00:00:00	2024-11-06T22:00:00	5	Humedad	86
164525	7	Sololá	701	Sololá	2	El tablón	7	Julio	2023-07-07T00:00:00	2024-11-06T22:00:00	6	Velocidad del viento	0
164526	7	Sololá	701	Sololá	2	El tablón	7	Julio	2023-07-07T00:00:00	2024-11-06T22:00:00	7	Dirección del viento	0
164527	7	Sololá	701	Sololá	2	El tablón	7	Julio	2023-07-07T00:00:00	2024-11-06T22:00:00	1	Precipitación	0
164528	7	Sololá	701	Sololá	2	El tablón	7	Julio	2023-07-07T00:00:00	2024-11-06T22:00:00	8	Radiación solar	0
164529	7	Sololá	701	Sololá	2	El tablón	7	Julio	2023-07-07T00:00:00	2024-11-06T23:00:00	2	Temperatura media	12.3
164530	7	Sololá	701	Sololá	2	El tablón	7	Julio	2023-07-07T00:00:00	2024-11-06T23:00:00	4	Temperatura máxima	12.6
164531	7	Sololá	701	Sololá	2	El tablón	7	Julio	2023-07-07T00:00:00	2024-11-06T23:00:00	3	Temperatura mínima	12.2
164532	7	Sololá	701	Sololá	2	El tablón	7	Julio	2023-07-07T00:00:00	2024-11-06T23:00:00	5	Humedad	86
164533	7	Sololá	701	Sololá	2	El tablón	7	Julio	2023-07-07T00:00:00	2024-11-06T23:00:00	6	Velocidad del viento	1.6
164534	7	Sololá	701	Sololá	2	El tablón	7	Julio	2023-07-07T00:00:00	2024-11-06T23:00:00	7	Dirección del viento	1.61
164535	7	Sololá	701	Sololá	2	El tablón	7	Julio	2023-07-07T00:00:00	2024-11-06T23:00:00	1	Precipitación	0
164536	7	Sololá	701	Sololá	2	El tablón	7	Julio	2023-07-07T00:00:00	2024-11-06T23:00:00	8	Radiación solar	0
164537	7	Sololá	701	Sololá	2	El tablón	7	Julio	2023-08-07T00:00:00	2024-11-06T00:00:00	2	Temperatura media	12.3
164538	7	Sololá	701	Sololá	2	El tablón	7	Julio	2023-08-07T00:00:00	2024-11-06T00:00:00	4	Temperatura máxima	12.3
164539	7	Sololá	701	Sololá	2	El tablón	7	Julio	2023-08-07T00:00:00	2024-11-06T00:00:00	3	Temperatura mínima	12.1
164540	7	Sololá	701	Sololá	2	El tablón	7	Julio	2023-08-07T00:00:00	2024-11-06T00:00:00	5	Humedad	86
164541	7	Sololá	701	Sololá	2	El tablón	7	Julio	2023-08-07T00:00:00	2024-11-06T00:00:00	6	Velocidad del viento	0
164542	7	Sololá	701	Sololá	2	El tablón	7	Julio	2023-08-07T00:00:00	2024-11-06T00:00:00	7	Dirección del viento	0
164543	7	Sololá	701	Sololá	2	El tablón	7	Julio	2023-08-07T00:00:00	2024-11-06T00:00:00	1	Precipitación	0.2
164544	7	Sololá	701	Sololá	2	El tablón	7	Julio	2023-08-07T00:00:00	2024-11-06T00:00:00	8	Radiación solar	0
164545	7	Sololá	701	Sololá	2	El tablón	7	Julio	2023-08-07T00:00:00	2024-11-06T01:00:00	2	Temperatura media	12.3
164546	7	Sololá	701	Sololá	2	El tablón	7	Julio	2023-08-07T00:00:00	2024-11-06T01:00:00	4	Temperatura máxima	12.4
164547	7	Sololá	701	Sololá	2	El tablón	7	Julio	2023-08-07T00:00:00	2024-11-06T01:00:00	3	Temperatura mínima	12.2
164548	7	Sololá	701	Sololá	2	El tablón	7	Julio	2023-08-07T00:00:00	2024-11-06T01:00:00	5	Humedad	87
164549	7	Sololá	701	Sololá	2	El tablón	7	Julio	2023-08-07T00:00:00	2024-11-06T01:00:00	6	Velocidad del viento	0
164550	7	Sololá	701	Sololá	2	El tablón	7	Julio	2023-08-07T00:00:00	2024-11-06T01:00:00	7	Dirección del viento	0
164551	7	Sololá	701	Sololá	2	El tablón	7	Julio	2023-08-07T00:00:00	2024-11-06T01:00:00	1	Precipitación	0.2
164552	7	Sololá	701	Sololá	2	El tablón	7	Julio	2023-08-07T00:00:00	2024-11-06T01:00:00	8	Radiación solar	0
164553	7	Sololá	701	Sololá	2	El tablón	7	Julio	2023-08-07T00:00:00	2024-11-06T02:00:00	2	Temperatura media	12.4
164554	7	Sololá	701	Sololá	2	El tablón	7	Julio	2023-08-07T00:00:00	2024-11-06T02:00:00	4	Temperatura máxima	12.4
164555	7	Sololá	701	Sololá	2	El tablón	7	Julio	2023-08-07T00:00:00	2024-11-06T02:00:00	3	Temperatura mínima	12.2
164556	7	Sololá	701	Sololá	2	El tablón	7	Julio	2023-08-07T00:00:00	2024-11-06T02:00:00	5	Humedad	87
164557	7	Sololá	701	Sololá	2	El tablón	7	Julio	2023-08-07T00:00:00	2024-11-06T02:00:00	6	Velocidad del viento	0
164558	7	Sololá	701	Sololá	2	El tablón	7	Julio	2023-08-07T00:00:00	2024-11-06T02:00:00	7	Dirección del viento	0
164559	7	Sololá	701	Sololá	2	El tablón	7	Julio	2023-08-07T00:00:00	2024-11-06T02:00:00	1	Precipitación	0
164560	7	Sololá	701	Sololá	2	El tablón	7	Julio	2023-08-07T00:00:00	2024-11-06T02:00:00	8	Radiación solar	0
164561	7	Sololá	701	Sololá	2	El tablón	7	Julio	2023-08-07T00:00:00	2024-11-06T03:00:00	2	Temperatura media	12.5
164562	7	Sololá	701	Sololá	2	El tablón	7	Julio	2023-08-07T00:00:00	2024-11-06T03:00:00	4	Temperatura máxima	12.5
164563	7	Sololá	701	Sololá	2	El tablón	7	Julio	2023-08-07T00:00:00	2024-11-06T03:00:00	3	Temperatura mínima	12.4
164564	7	Sololá	701	Sololá	2	El tablón	7	Julio	2023-08-07T00:00:00	2024-11-06T03:00:00	5	Humedad	87
164565	7	Sololá	701	Sololá	2	El tablón	7	Julio	2023-08-07T00:00:00	2024-11-06T03:00:00	6	Velocidad del viento	0
164566	7	Sololá	701	Sololá	2	El tablón	7	Julio	2023-08-07T00:00:00	2024-11-06T03:00:00	7	Dirección del viento	0
164567	7	Sololá	701	Sololá	2	El tablón	7	Julio	2023-08-07T00:00:00	2024-11-06T03:00:00	1	Precipitación	0
164568	7	Sololá	701	Sololá	2	El tablón	7	Julio	2023-08-07T00:00:00	2024-11-06T03:00:00	8	Radiación solar	0
164569	7	Sololá	701	Sololá	2	El tablón	7	Julio	2023-08-07T00:00:00	2024-11-06T04:00:00	2	Temperatura media	12.4
164570	7	Sololá	701	Sololá	2	El tablón	7	Julio	2023-08-07T00:00:00	2024-11-06T04:00:00	4	Temperatura máxima	12.5
164571	7	Sololá	701	Sololá	2	El tablón	7	Julio	2023-08-07T00:00:00	2024-11-06T04:00:00	3	Temperatura mínima	12.4
164572	7	Sololá	701	Sololá	2	El tablón	7	Julio	2023-08-07T00:00:00	2024-11-06T04:00:00	5	Humedad	87
164573	7	Sololá	701	Sololá	2	El tablón	7	Julio	2023-08-07T00:00:00	2024-11-06T04:00:00	6	Velocidad del viento	0
164574	7	Sololá	701	Sololá	2	El tablón	7	Julio	2023-08-07T00:00:00	2024-11-06T04:00:00	7	Dirección del viento	0
164575	7	Sololá	701	Sololá	2	El tablón	7	Julio	2023-08-07T00:00:00	2024-11-06T04:00:00	1	Precipitación	0.2
164576	7	Sololá	701	Sololá	2	El tablón	7	Julio	2023-08-07T00:00:00	2024-11-06T04:00:00	8	Radiación solar	0
164577	7	Sololá	701	Sololá	2	El tablón	7	Julio	2023-08-07T00:00:00	2024-11-06T05:00:00	2	Temperatura media	12.1
164578	7	Sololá	701	Sololá	2	El tablón	7	Julio	2023-08-07T00:00:00	2024-11-06T05:00:00	4	Temperatura máxima	12.4
164579	7	Sololá	701	Sololá	2	El tablón	7	Julio	2023-08-07T00:00:00	2024-11-06T05:00:00	3	Temperatura mínima	12.1
164580	7	Sololá	701	Sololá	2	El tablón	7	Julio	2023-08-07T00:00:00	2024-11-06T05:00:00	5	Humedad	87
164581	7	Sololá	701	Sololá	2	El tablón	7	Julio	2023-08-07T00:00:00	2024-11-06T05:00:00	6	Velocidad del viento	0
164582	7	Sololá	701	Sololá	2	El tablón	7	Julio	2023-08-07T00:00:00	2024-11-06T05:00:00	7	Dirección del viento	0
164583	7	Sololá	701	Sololá	2	El tablón	7	Julio	2023-08-07T00:00:00	2024-11-06T05:00:00	1	Precipitación	0
164584	7	Sololá	701	Sololá	2	El tablón	7	Julio	2023-08-07T00:00:00	2024-11-06T05:00:00	8	Radiación solar	0
164585	7	Sololá	701	Sololá	2	El tablón	7	Julio	2023-08-07T00:00:00	2024-11-06T06:00:00	2	Temperatura media	11.4
164586	7	Sololá	701	Sololá	2	El tablón	7	Julio	2023-08-07T00:00:00	2024-11-06T06:00:00	4	Temperatura máxima	12.1
164587	7	Sololá	701	Sololá	2	El tablón	7	Julio	2023-08-07T00:00:00	2024-11-06T06:00:00	3	Temperatura mínima	11.4
164588	7	Sololá	701	Sololá	2	El tablón	7	Julio	2023-08-07T00:00:00	2024-11-06T06:00:00	5	Humedad	87
164589	7	Sololá	701	Sololá	2	El tablón	7	Julio	2023-08-07T00:00:00	2024-11-06T06:00:00	6	Velocidad del viento	0
164590	7	Sololá	701	Sololá	2	El tablón	7	Julio	2023-08-07T00:00:00	2024-11-06T06:00:00	7	Dirección del viento	0
164591	7	Sololá	701	Sololá	2	El tablón	7	Julio	2023-08-07T00:00:00	2024-11-06T06:00:00	1	Precipitación	0
164592	7	Sololá	701	Sololá	2	El tablón	7	Julio	2023-08-07T00:00:00	2024-11-06T06:00:00	8	Radiación solar	2
164593	7	Sololá	701	Sololá	2	El tablón	7	Julio	2023-08-07T00:00:00	2024-11-06T07:00:00	2	Temperatura media	11.7
164594	7	Sololá	701	Sololá	2	El tablón	7	Julio	2023-08-07T00:00:00	2024-11-06T07:00:00	4	Temperatura máxima	11.8
164595	7	Sololá	701	Sololá	2	El tablón	7	Julio	2023-08-07T00:00:00	2024-11-06T07:00:00	3	Temperatura mínima	11.2
164596	7	Sololá	701	Sololá	2	El tablón	7	Julio	2023-08-07T00:00:00	2024-11-06T07:00:00	5	Humedad	87
164597	7	Sololá	701	Sololá	2	El tablón	7	Julio	2023-08-07T00:00:00	2024-11-06T07:00:00	6	Velocidad del viento	3.2
164598	7	Sololá	701	Sololá	2	El tablón	7	Julio	2023-08-07T00:00:00	2024-11-06T07:00:00	7	Dirección del viento	3.22
164599	7	Sololá	701	Sololá	2	El tablón	7	Julio	2023-08-07T00:00:00	2024-11-06T07:00:00	1	Precipitación	0
164600	7	Sololá	701	Sololá	2	El tablón	7	Julio	2023-08-07T00:00:00	2024-11-06T07:00:00	8	Radiación solar	51
164601	7	Sololá	701	Sololá	2	El tablón	7	Julio	2023-08-07T00:00:00	2024-11-06T08:00:00	2	Temperatura media	13.1
164602	7	Sololá	701	Sololá	2	El tablón	7	Julio	2023-08-07T00:00:00	2024-11-06T08:00:00	4	Temperatura máxima	13.1
164603	7	Sololá	701	Sololá	2	El tablón	7	Julio	2023-08-07T00:00:00	2024-11-06T08:00:00	3	Temperatura mínima	11.7
164604	7	Sololá	701	Sololá	2	El tablón	7	Julio	2023-08-07T00:00:00	2024-11-06T08:00:00	5	Humedad	88
164605	7	Sololá	701	Sololá	2	El tablón	7	Julio	2023-08-07T00:00:00	2024-11-06T08:00:00	6	Velocidad del viento	1.6
164606	7	Sololá	701	Sololá	2	El tablón	7	Julio	2023-08-07T00:00:00	2024-11-06T08:00:00	7	Dirección del viento	1.61
164607	7	Sololá	701	Sololá	2	El tablón	7	Julio	2023-08-07T00:00:00	2024-11-06T08:00:00	1	Precipitación	0
164608	7	Sololá	701	Sololá	2	El tablón	7	Julio	2023-08-07T00:00:00	2024-11-06T08:00:00	8	Radiación solar	128
164609	7	Sololá	701	Sololá	2	El tablón	7	Julio	2023-08-07T00:00:00	2024-11-06T09:00:00	2	Temperatura media	13.7
164610	7	Sololá	701	Sololá	2	El tablón	7	Julio	2023-08-07T00:00:00	2024-11-06T09:00:00	4	Temperatura máxima	13.8
164611	7	Sololá	701	Sololá	2	El tablón	7	Julio	2023-08-07T00:00:00	2024-11-06T09:00:00	3	Temperatura mínima	13.1
164612	7	Sololá	701	Sololá	2	El tablón	7	Julio	2023-08-07T00:00:00	2024-11-06T09:00:00	5	Humedad	89
164613	7	Sololá	701	Sololá	2	El tablón	7	Julio	2023-08-07T00:00:00	2024-11-06T09:00:00	6	Velocidad del viento	1.6
164614	7	Sololá	701	Sololá	2	El tablón	7	Julio	2023-08-07T00:00:00	2024-11-06T09:00:00	7	Dirección del viento	1.61
164615	7	Sololá	701	Sololá	2	El tablón	7	Julio	2023-08-07T00:00:00	2024-11-06T09:00:00	1	Precipitación	0
164616	7	Sololá	701	Sololá	2	El tablón	7	Julio	2023-08-07T00:00:00	2024-11-06T09:00:00	8	Radiación solar	235
164617	7	Sololá	701	Sololá	2	El tablón	7	Julio	2023-08-07T00:00:00	2024-11-06T10:00:00	2	Temperatura media	15.1
164618	7	Sololá	701	Sololá	2	El tablón	7	Julio	2023-08-07T00:00:00	2024-11-06T10:00:00	4	Temperatura máxima	15.2
164619	7	Sololá	701	Sololá	2	El tablón	7	Julio	2023-08-07T00:00:00	2024-11-06T10:00:00	3	Temperatura mínima	13.7
164620	7	Sololá	701	Sololá	2	El tablón	7	Julio	2023-08-07T00:00:00	2024-11-06T10:00:00	5	Humedad	89
164621	7	Sololá	701	Sololá	2	El tablón	7	Julio	2023-08-07T00:00:00	2024-11-06T10:00:00	6	Velocidad del viento	1.6
164622	7	Sololá	701	Sololá	2	El tablón	7	Julio	2023-08-07T00:00:00	2024-11-06T10:00:00	7	Dirección del viento	1.61
164623	7	Sololá	701	Sololá	2	El tablón	7	Julio	2023-08-07T00:00:00	2024-11-06T10:00:00	1	Precipitación	0
164624	7	Sololá	701	Sololá	2	El tablón	7	Julio	2023-08-07T00:00:00	2024-11-06T10:00:00	8	Radiación solar	307
164625	7	Sololá	701	Sololá	2	El tablón	7	Julio	2023-08-07T00:00:00	2024-11-06T11:00:00	2	Temperatura media	14.2
164626	7	Sololá	701	Sololá	2	El tablón	7	Julio	2023-08-07T00:00:00	2024-11-06T11:00:00	4	Temperatura máxima	15.3
164627	7	Sololá	701	Sololá	2	El tablón	7	Julio	2023-08-07T00:00:00	2024-11-06T11:00:00	3	Temperatura mínima	14.2
164628	7	Sololá	701	Sololá	2	El tablón	7	Julio	2023-08-07T00:00:00	2024-11-06T11:00:00	5	Humedad	89
164629	7	Sololá	701	Sololá	2	El tablón	7	Julio	2023-08-07T00:00:00	2024-11-06T11:00:00	6	Velocidad del viento	4.8
164630	7	Sololá	701	Sololá	2	El tablón	7	Julio	2023-08-07T00:00:00	2024-11-06T11:00:00	7	Dirección del viento	4.83
164631	7	Sololá	701	Sololá	2	El tablón	7	Julio	2023-08-07T00:00:00	2024-11-06T11:00:00	1	Precipitación	0.2
164632	7	Sololá	701	Sololá	2	El tablón	7	Julio	2023-08-07T00:00:00	2024-11-06T11:00:00	8	Radiación solar	197
164633	7	Sololá	701	Sololá	2	El tablón	7	Julio	2023-08-07T00:00:00	2024-11-06T12:00:00	2	Temperatura media	14.4
164634	7	Sololá	701	Sololá	2	El tablón	7	Julio	2023-08-07T00:00:00	2024-11-06T12:00:00	4	Temperatura máxima	14.5
164635	7	Sololá	701	Sololá	2	El tablón	7	Julio	2023-08-07T00:00:00	2024-11-06T12:00:00	3	Temperatura mínima	14.2
164636	7	Sololá	701	Sololá	2	El tablón	7	Julio	2023-08-07T00:00:00	2024-11-06T12:00:00	5	Humedad	89
164637	7	Sololá	701	Sololá	2	El tablón	7	Julio	2023-08-07T00:00:00	2024-11-06T12:00:00	6	Velocidad del viento	1.6
164638	7	Sololá	701	Sololá	2	El tablón	7	Julio	2023-08-07T00:00:00	2024-11-06T12:00:00	7	Dirección del viento	1.61
164639	7	Sololá	701	Sololá	2	El tablón	7	Julio	2023-08-07T00:00:00	2024-11-06T12:00:00	1	Precipitación	0.2
164640	7	Sololá	701	Sololá	2	El tablón	7	Julio	2023-08-07T00:00:00	2024-11-06T12:00:00	8	Radiación solar	180
164641	7	Sololá	701	Sololá	2	El tablón	7	Julio	2023-08-07T00:00:00	2024-11-06T13:00:00	2	Temperatura media	15.9
164642	7	Sololá	701	Sololá	2	El tablón	7	Julio	2023-08-07T00:00:00	2024-11-06T13:00:00	4	Temperatura máxima	16.3
164643	7	Sololá	701	Sololá	2	El tablón	7	Julio	2023-08-07T00:00:00	2024-11-06T13:00:00	3	Temperatura mínima	14.4
164644	7	Sololá	701	Sololá	2	El tablón	7	Julio	2023-08-07T00:00:00	2024-11-06T13:00:00	5	Humedad	88
164645	7	Sololá	701	Sololá	2	El tablón	7	Julio	2023-08-07T00:00:00	2024-11-06T13:00:00	6	Velocidad del viento	3.2
164646	7	Sololá	701	Sololá	2	El tablón	7	Julio	2023-08-07T00:00:00	2024-11-06T13:00:00	7	Dirección del viento	3.22
164647	7	Sololá	701	Sololá	2	El tablón	7	Julio	2023-08-07T00:00:00	2024-11-06T13:00:00	1	Precipitación	0
164648	7	Sololá	701	Sololá	2	El tablón	7	Julio	2023-08-07T00:00:00	2024-11-06T13:00:00	8	Radiación solar	345
164649	7	Sololá	701	Sololá	2	El tablón	7	Julio	2023-08-07T00:00:00	2024-11-06T14:00:00	2	Temperatura media	14.6
164650	7	Sololá	701	Sololá	2	El tablón	7	Julio	2023-08-07T00:00:00	2024-11-06T14:00:00	4	Temperatura máxima	15.9
164651	7	Sololá	701	Sololá	2	El tablón	7	Julio	2023-08-07T00:00:00	2024-11-06T14:00:00	3	Temperatura mínima	14.4
164652	7	Sololá	701	Sololá	2	El tablón	7	Julio	2023-08-07T00:00:00	2024-11-06T14:00:00	5	Humedad	89
164653	7	Sololá	701	Sololá	2	El tablón	7	Julio	2023-08-07T00:00:00	2024-11-06T14:00:00	6	Velocidad del viento	3.2
164654	7	Sololá	701	Sololá	2	El tablón	7	Julio	2023-08-07T00:00:00	2024-11-06T14:00:00	7	Dirección del viento	3.22
164655	7	Sololá	701	Sololá	2	El tablón	7	Julio	2023-08-07T00:00:00	2024-11-06T14:00:00	1	Precipitación	5
164656	7	Sololá	701	Sololá	2	El tablón	7	Julio	2023-08-07T00:00:00	2024-11-06T14:00:00	8	Radiación solar	215
164657	7	Sololá	701	Sololá	2	El tablón	7	Julio	2023-08-07T00:00:00	2024-11-06T15:00:00	2	Temperatura media	14.8
164658	7	Sololá	701	Sololá	2	El tablón	7	Julio	2023-08-07T00:00:00	2024-11-06T15:00:00	4	Temperatura máxima	15.5
164659	7	Sololá	701	Sololá	2	El tablón	7	Julio	2023-08-07T00:00:00	2024-11-06T15:00:00	3	Temperatura mínima	14.5
164660	7	Sololá	701	Sololá	2	El tablón	7	Julio	2023-08-07T00:00:00	2024-11-06T15:00:00	5	Humedad	89
164661	7	Sololá	701	Sololá	2	El tablón	7	Julio	2023-08-07T00:00:00	2024-11-06T15:00:00	6	Velocidad del viento	3.2
164662	7	Sololá	701	Sololá	2	El tablón	7	Julio	2023-08-07T00:00:00	2024-11-06T15:00:00	7	Dirección del viento	3.22
164663	7	Sololá	701	Sololá	2	El tablón	7	Julio	2023-08-07T00:00:00	2024-11-06T15:00:00	1	Precipitación	3.6
164664	7	Sololá	701	Sololá	2	El tablón	7	Julio	2023-08-07T00:00:00	2024-11-06T15:00:00	8	Radiación solar	303
164665	7	Sololá	701	Sololá	2	El tablón	7	Julio	2023-08-07T00:00:00	2024-11-06T16:00:00	2	Temperatura media	13.9
164666	7	Sololá	701	Sololá	2	El tablón	7	Julio	2023-08-07T00:00:00	2024-11-06T16:00:00	4	Temperatura máxima	14.8
164667	7	Sololá	701	Sololá	2	El tablón	7	Julio	2023-08-07T00:00:00	2024-11-06T16:00:00	3	Temperatura mínima	13.7
164668	7	Sololá	701	Sololá	2	El tablón	7	Julio	2023-08-07T00:00:00	2024-11-06T16:00:00	5	Humedad	88
164669	7	Sololá	701	Sololá	2	El tablón	7	Julio	2023-08-07T00:00:00	2024-11-06T16:00:00	6	Velocidad del viento	3.2
164670	7	Sololá	701	Sololá	2	El tablón	7	Julio	2023-08-07T00:00:00	2024-11-06T16:00:00	7	Dirección del viento	3.22
164671	7	Sololá	701	Sololá	2	El tablón	7	Julio	2023-08-07T00:00:00	2024-11-06T16:00:00	1	Precipitación	4.2
164672	7	Sololá	701	Sololá	2	El tablón	7	Julio	2023-08-07T00:00:00	2024-11-06T16:00:00	8	Radiación solar	153
164673	7	Sololá	701	Sololá	2	El tablón	7	Julio	2023-08-07T00:00:00	2024-11-06T17:00:00	2	Temperatura media	13.3
164674	7	Sololá	701	Sololá	2	El tablón	7	Julio	2023-08-07T00:00:00	2024-11-06T17:00:00	4	Temperatura máxima	13.9
164675	7	Sololá	701	Sololá	2	El tablón	7	Julio	2023-08-07T00:00:00	2024-11-06T17:00:00	3	Temperatura mínima	13.3
164676	7	Sololá	701	Sololá	2	El tablón	7	Julio	2023-08-07T00:00:00	2024-11-06T17:00:00	5	Humedad	88
164677	7	Sololá	701	Sololá	2	El tablón	7	Julio	2023-08-07T00:00:00	2024-11-06T17:00:00	6	Velocidad del viento	1.6
164678	7	Sololá	701	Sololá	2	El tablón	7	Julio	2023-08-07T00:00:00	2024-11-06T17:00:00	7	Dirección del viento	1.61
164679	7	Sololá	701	Sololá	2	El tablón	7	Julio	2023-08-07T00:00:00	2024-11-06T17:00:00	1	Precipitación	1.8
164680	7	Sololá	701	Sololá	2	El tablón	7	Julio	2023-08-07T00:00:00	2024-11-06T17:00:00	8	Radiación solar	30
164681	7	Sololá	701	Sololá	2	El tablón	7	Julio	2023-08-07T00:00:00	2024-11-06T18:00:00	2	Temperatura media	13.3
164682	7	Sololá	701	Sololá	2	El tablón	7	Julio	2023-08-07T00:00:00	2024-11-06T18:00:00	4	Temperatura máxima	13.4
164683	7	Sololá	701	Sololá	2	El tablón	7	Julio	2023-08-07T00:00:00	2024-11-06T18:00:00	3	Temperatura mínima	13.2
164684	7	Sololá	701	Sololá	2	El tablón	7	Julio	2023-08-07T00:00:00	2024-11-06T18:00:00	5	Humedad	88
164685	7	Sololá	701	Sololá	2	El tablón	7	Julio	2023-08-07T00:00:00	2024-11-06T18:00:00	6	Velocidad del viento	1.6
164686	7	Sololá	701	Sololá	2	El tablón	7	Julio	2023-08-07T00:00:00	2024-11-06T18:00:00	7	Dirección del viento	1.61
164687	7	Sololá	701	Sololá	2	El tablón	7	Julio	2023-08-07T00:00:00	2024-11-06T18:00:00	1	Precipitación	1.2
164688	7	Sololá	701	Sololá	2	El tablón	7	Julio	2023-08-07T00:00:00	2024-11-06T18:00:00	8	Radiación solar	20
164689	7	Sololá	701	Sololá	2	El tablón	7	Julio	2023-08-07T00:00:00	2024-11-06T19:00:00	2	Temperatura media	13.2
164690	7	Sololá	701	Sololá	2	El tablón	7	Julio	2023-08-07T00:00:00	2024-11-06T19:00:00	4	Temperatura máxima	13.4
164691	7	Sololá	701	Sololá	2	El tablón	7	Julio	2023-08-07T00:00:00	2024-11-06T19:00:00	3	Temperatura mínima	13.2
164692	7	Sololá	701	Sololá	2	El tablón	7	Julio	2023-08-07T00:00:00	2024-11-06T19:00:00	5	Humedad	88
164693	7	Sololá	701	Sololá	2	El tablón	7	Julio	2023-08-07T00:00:00	2024-11-06T19:00:00	6	Velocidad del viento	1.6
164694	7	Sololá	701	Sololá	2	El tablón	7	Julio	2023-08-07T00:00:00	2024-11-06T19:00:00	7	Dirección del viento	1.61
164695	7	Sololá	701	Sololá	2	El tablón	7	Julio	2023-08-07T00:00:00	2024-11-06T19:00:00	1	Precipitación	2
164696	7	Sololá	701	Sololá	2	El tablón	7	Julio	2023-08-07T00:00:00	2024-11-06T19:00:00	8	Radiación solar	0
164697	7	Sololá	701	Sololá	2	El tablón	7	Julio	2023-08-07T00:00:00	2024-11-06T20:00:00	2	Temperatura media	13.1
164698	7	Sololá	701	Sololá	2	El tablón	7	Julio	2023-08-07T00:00:00	2024-11-06T20:00:00	4	Temperatura máxima	13.3
164699	7	Sololá	701	Sololá	2	El tablón	7	Julio	2023-08-07T00:00:00	2024-11-06T20:00:00	3	Temperatura mínima	13.1
164700	7	Sololá	701	Sololá	2	El tablón	7	Julio	2023-08-07T00:00:00	2024-11-06T20:00:00	5	Humedad	88
164701	7	Sololá	701	Sololá	2	El tablón	7	Julio	2023-08-07T00:00:00	2024-11-06T20:00:00	6	Velocidad del viento	3.2
164702	7	Sololá	701	Sololá	2	El tablón	7	Julio	2023-08-07T00:00:00	2024-11-06T20:00:00	7	Dirección del viento	3.22
164703	7	Sololá	701	Sololá	2	El tablón	7	Julio	2023-08-07T00:00:00	2024-11-06T20:00:00	1	Precipitación	1.2
164704	7	Sololá	701	Sololá	2	El tablón	7	Julio	2023-08-07T00:00:00	2024-11-06T20:00:00	8	Radiación solar	0
164705	7	Sololá	701	Sololá	2	El tablón	7	Julio	2023-08-07T00:00:00	2024-11-06T21:00:00	2	Temperatura media	12.8
164706	7	Sololá	701	Sololá	2	El tablón	7	Julio	2023-08-07T00:00:00	2024-11-06T21:00:00	4	Temperatura máxima	13.2
164707	7	Sololá	701	Sololá	2	El tablón	7	Julio	2023-08-07T00:00:00	2024-11-06T21:00:00	3	Temperatura mínima	12.8
164708	7	Sololá	701	Sololá	2	El tablón	7	Julio	2023-08-07T00:00:00	2024-11-06T21:00:00	5	Humedad	89
164709	7	Sololá	701	Sololá	2	El tablón	7	Julio	2023-08-07T00:00:00	2024-11-06T21:00:00	6	Velocidad del viento	3.2
164710	7	Sololá	701	Sololá	2	El tablón	7	Julio	2023-08-07T00:00:00	2024-11-06T21:00:00	7	Dirección del viento	3.22
164711	7	Sololá	701	Sololá	2	El tablón	7	Julio	2023-08-07T00:00:00	2024-11-06T21:00:00	1	Precipitación	0.4
164712	7	Sololá	701	Sololá	2	El tablón	7	Julio	2023-08-07T00:00:00	2024-11-06T21:00:00	8	Radiación solar	0
164713	7	Sololá	701	Sololá	2	El tablón	7	Julio	2023-08-07T00:00:00	2024-11-06T22:00:00	2	Temperatura media	12.6
164714	7	Sololá	701	Sololá	2	El tablón	7	Julio	2023-08-07T00:00:00	2024-11-06T22:00:00	4	Temperatura máxima	12.8
164715	7	Sololá	701	Sololá	2	El tablón	7	Julio	2023-08-07T00:00:00	2024-11-06T22:00:00	3	Temperatura mínima	12.6
164716	7	Sololá	701	Sololá	2	El tablón	7	Julio	2023-08-07T00:00:00	2024-11-06T22:00:00	5	Humedad	89
164717	7	Sololá	701	Sololá	2	El tablón	7	Julio	2023-08-07T00:00:00	2024-11-06T22:00:00	6	Velocidad del viento	1.6
164718	7	Sololá	701	Sololá	2	El tablón	7	Julio	2023-08-07T00:00:00	2024-11-06T22:00:00	7	Dirección del viento	1.61
164719	7	Sololá	701	Sololá	2	El tablón	7	Julio	2023-08-07T00:00:00	2024-11-06T22:00:00	1	Precipitación	0
164720	7	Sololá	701	Sololá	2	El tablón	7	Julio	2023-08-07T00:00:00	2024-11-06T22:00:00	8	Radiación solar	0
164721	7	Sololá	701	Sololá	2	El tablón	7	Julio	2023-08-07T00:00:00	2024-11-06T23:00:00	2	Temperatura media	12.4
164722	7	Sololá	701	Sololá	2	El tablón	7	Julio	2023-08-07T00:00:00	2024-11-06T23:00:00	4	Temperatura máxima	12.6
164723	7	Sololá	701	Sololá	2	El tablón	7	Julio	2023-08-07T00:00:00	2024-11-06T23:00:00	3	Temperatura mínima	12.2
164724	7	Sololá	701	Sololá	2	El tablón	7	Julio	2023-08-07T00:00:00	2024-11-06T23:00:00	5	Humedad	89
164725	7	Sololá	701	Sololá	2	El tablón	7	Julio	2023-08-07T00:00:00	2024-11-06T23:00:00	6	Velocidad del viento	1.6
164726	7	Sololá	701	Sololá	2	El tablón	7	Julio	2023-08-07T00:00:00	2024-11-06T23:00:00	7	Dirección del viento	1.61
164727	7	Sololá	701	Sololá	2	El tablón	7	Julio	2023-08-07T00:00:00	2024-11-06T23:00:00	1	Precipitación	0
164728	7	Sololá	701	Sololá	2	El tablón	7	Julio	2023-08-07T00:00:00	2024-11-06T23:00:00	8	Radiación solar	0
164729	7	Sololá	701	Sololá	2	El tablón	7	Julio	2023-09-07T00:00:00	2024-11-06T00:00:00	2	Temperatura media	12.8
164730	7	Sololá	701	Sololá	2	El tablón	7	Julio	2023-09-07T00:00:00	2024-11-06T00:00:00	4	Temperatura máxima	12.8
164731	7	Sololá	701	Sololá	2	El tablón	7	Julio	2023-09-07T00:00:00	2024-11-06T00:00:00	3	Temperatura mínima	12.3
164732	7	Sololá	701	Sololá	2	El tablón	7	Julio	2023-09-07T00:00:00	2024-11-06T00:00:00	5	Humedad	89
164733	7	Sololá	701	Sololá	2	El tablón	7	Julio	2023-09-07T00:00:00	2024-11-06T00:00:00	6	Velocidad del viento	3.2
164734	7	Sololá	701	Sololá	2	El tablón	7	Julio	2023-09-07T00:00:00	2024-11-06T00:00:00	7	Dirección del viento	3.22
164735	7	Sololá	701	Sololá	2	El tablón	7	Julio	2023-09-07T00:00:00	2024-11-06T00:00:00	1	Precipitación	0
164736	7	Sololá	701	Sololá	2	El tablón	7	Julio	2023-09-07T00:00:00	2024-11-06T00:00:00	8	Radiación solar	0
164737	7	Sololá	701	Sololá	2	El tablón	7	Julio	2023-09-07T00:00:00	2024-11-06T01:00:00	2	Temperatura media	12.9
164738	7	Sololá	701	Sololá	2	El tablón	7	Julio	2023-09-07T00:00:00	2024-11-06T01:00:00	4	Temperatura máxima	13
164739	7	Sololá	701	Sololá	2	El tablón	7	Julio	2023-09-07T00:00:00	2024-11-06T01:00:00	3	Temperatura mínima	12.8
164740	7	Sololá	701	Sololá	2	El tablón	7	Julio	2023-09-07T00:00:00	2024-11-06T01:00:00	5	Humedad	89
164741	7	Sololá	701	Sololá	2	El tablón	7	Julio	2023-09-07T00:00:00	2024-11-06T01:00:00	6	Velocidad del viento	4.8
164742	7	Sololá	701	Sololá	2	El tablón	7	Julio	2023-09-07T00:00:00	2024-11-06T01:00:00	7	Dirección del viento	4.83
164743	7	Sololá	701	Sololá	2	El tablón	7	Julio	2023-09-07T00:00:00	2024-11-06T01:00:00	1	Precipitación	0
164744	7	Sololá	701	Sololá	2	El tablón	7	Julio	2023-09-07T00:00:00	2024-11-06T01:00:00	8	Radiación solar	0
164745	7	Sololá	701	Sololá	2	El tablón	7	Julio	2023-09-07T00:00:00	2024-11-06T02:00:00	2	Temperatura media	12.8
164746	7	Sololá	701	Sololá	2	El tablón	7	Julio	2023-09-07T00:00:00	2024-11-06T02:00:00	4	Temperatura máxima	13.1
164747	7	Sololá	701	Sololá	2	El tablón	7	Julio	2023-09-07T00:00:00	2024-11-06T02:00:00	3	Temperatura mínima	12.8
164748	7	Sololá	701	Sololá	2	El tablón	7	Julio	2023-09-07T00:00:00	2024-11-06T02:00:00	5	Humedad	89
164749	7	Sololá	701	Sololá	2	El tablón	7	Julio	2023-09-07T00:00:00	2024-11-06T02:00:00	6	Velocidad del viento	3.2
164750	7	Sololá	701	Sololá	2	El tablón	7	Julio	2023-09-07T00:00:00	2024-11-06T02:00:00	7	Dirección del viento	3.22
164751	7	Sololá	701	Sololá	2	El tablón	7	Julio	2023-09-07T00:00:00	2024-11-06T02:00:00	1	Precipitación	0
164752	7	Sololá	701	Sololá	2	El tablón	7	Julio	2023-09-07T00:00:00	2024-11-06T02:00:00	8	Radiación solar	0
164753	7	Sololá	701	Sololá	2	El tablón	7	Julio	2023-09-07T00:00:00	2024-11-06T03:00:00	2	Temperatura media	12.6
164754	7	Sololá	701	Sololá	2	El tablón	7	Julio	2023-09-07T00:00:00	2024-11-06T03:00:00	4	Temperatura máxima	12.8
164755	7	Sololá	701	Sololá	2	El tablón	7	Julio	2023-09-07T00:00:00	2024-11-06T03:00:00	3	Temperatura mínima	12.5
164756	7	Sololá	701	Sololá	2	El tablón	7	Julio	2023-09-07T00:00:00	2024-11-06T03:00:00	5	Humedad	89
164757	7	Sololá	701	Sololá	2	El tablón	7	Julio	2023-09-07T00:00:00	2024-11-06T03:00:00	6	Velocidad del viento	1.6
164758	7	Sololá	701	Sololá	2	El tablón	7	Julio	2023-09-07T00:00:00	2024-11-06T03:00:00	7	Dirección del viento	1.61
164759	7	Sololá	701	Sololá	2	El tablón	7	Julio	2023-09-07T00:00:00	2024-11-06T03:00:00	1	Precipitación	0
164760	7	Sololá	701	Sololá	2	El tablón	7	Julio	2023-09-07T00:00:00	2024-11-06T03:00:00	8	Radiación solar	0
164761	7	Sololá	701	Sololá	2	El tablón	7	Julio	2023-09-07T00:00:00	2024-11-06T04:00:00	2	Temperatura media	12.7
164762	7	Sololá	701	Sololá	2	El tablón	7	Julio	2023-09-07T00:00:00	2024-11-06T04:00:00	4	Temperatura máxima	12.9
164763	7	Sololá	701	Sololá	2	El tablón	7	Julio	2023-09-07T00:00:00	2024-11-06T04:00:00	3	Temperatura mínima	12.6
164764	7	Sololá	701	Sololá	2	El tablón	7	Julio	2023-09-07T00:00:00	2024-11-06T04:00:00	5	Humedad	89
164765	7	Sololá	701	Sololá	2	El tablón	7	Julio	2023-09-07T00:00:00	2024-11-06T04:00:00	6	Velocidad del viento	1.6
164766	7	Sololá	701	Sololá	2	El tablón	7	Julio	2023-09-07T00:00:00	2024-11-06T04:00:00	7	Dirección del viento	1.61
164767	7	Sololá	701	Sololá	2	El tablón	7	Julio	2023-09-07T00:00:00	2024-11-06T04:00:00	1	Precipitación	0
164768	7	Sololá	701	Sololá	2	El tablón	7	Julio	2023-09-07T00:00:00	2024-11-06T04:00:00	8	Radiación solar	0
164769	7	Sololá	701	Sololá	2	El tablón	7	Julio	2023-09-07T00:00:00	2024-11-06T05:00:00	2	Temperatura media	11.9
164770	7	Sololá	701	Sololá	2	El tablón	7	Julio	2023-09-07T00:00:00	2024-11-06T05:00:00	4	Temperatura máxima	12.6
164771	7	Sololá	701	Sololá	2	El tablón	7	Julio	2023-09-07T00:00:00	2024-11-06T05:00:00	3	Temperatura mínima	11.9
164772	7	Sololá	701	Sololá	2	El tablón	7	Julio	2023-09-07T00:00:00	2024-11-06T05:00:00	5	Humedad	89
164773	7	Sololá	701	Sololá	2	El tablón	7	Julio	2023-09-07T00:00:00	2024-11-06T05:00:00	6	Velocidad del viento	3.2
164774	7	Sololá	701	Sololá	2	El tablón	7	Julio	2023-09-07T00:00:00	2024-11-06T05:00:00	7	Dirección del viento	3.22
164775	7	Sololá	701	Sololá	2	El tablón	7	Julio	2023-09-07T00:00:00	2024-11-06T05:00:00	1	Precipitación	0
164776	7	Sololá	701	Sololá	2	El tablón	7	Julio	2023-09-07T00:00:00	2024-11-06T05:00:00	8	Radiación solar	0
164777	7	Sololá	701	Sololá	2	El tablón	7	Julio	2023-09-07T00:00:00	2024-11-06T06:00:00	2	Temperatura media	11.7
164778	7	Sololá	701	Sololá	2	El tablón	7	Julio	2023-09-07T00:00:00	2024-11-06T06:00:00	4	Temperatura máxima	11.9
164779	7	Sololá	701	Sololá	2	El tablón	7	Julio	2023-09-07T00:00:00	2024-11-06T06:00:00	3	Temperatura mínima	11.4
164780	7	Sololá	701	Sololá	2	El tablón	7	Julio	2023-09-07T00:00:00	2024-11-06T06:00:00	5	Humedad	90
164781	7	Sololá	701	Sololá	2	El tablón	7	Julio	2023-09-07T00:00:00	2024-11-06T06:00:00	6	Velocidad del viento	3.2
164782	7	Sololá	701	Sololá	2	El tablón	7	Julio	2023-09-07T00:00:00	2024-11-06T06:00:00	7	Dirección del viento	3.22
164783	7	Sololá	701	Sololá	2	El tablón	7	Julio	2023-09-07T00:00:00	2024-11-06T06:00:00	1	Precipitación	0
164784	7	Sololá	701	Sololá	2	El tablón	7	Julio	2023-09-07T00:00:00	2024-11-06T06:00:00	8	Radiación solar	3
164785	7	Sololá	701	Sololá	2	El tablón	7	Julio	2023-09-07T00:00:00	2024-11-06T07:00:00	2	Temperatura media	13.2
164786	7	Sololá	701	Sololá	2	El tablón	7	Julio	2023-09-07T00:00:00	2024-11-06T07:00:00	4	Temperatura máxima	13.2
164787	7	Sololá	701	Sololá	2	El tablón	7	Julio	2023-09-07T00:00:00	2024-11-06T07:00:00	3	Temperatura mínima	11.7
164788	7	Sololá	701	Sololá	2	El tablón	7	Julio	2023-09-07T00:00:00	2024-11-06T07:00:00	5	Humedad	89
164789	7	Sololá	701	Sololá	2	El tablón	7	Julio	2023-09-07T00:00:00	2024-11-06T07:00:00	6	Velocidad del viento	3.2
164790	7	Sololá	701	Sololá	2	El tablón	7	Julio	2023-09-07T00:00:00	2024-11-06T07:00:00	7	Dirección del viento	3.22
164791	7	Sololá	701	Sololá	2	El tablón	7	Julio	2023-09-07T00:00:00	2024-11-06T07:00:00	1	Precipitación	0
164792	7	Sololá	701	Sololá	2	El tablón	7	Julio	2023-09-07T00:00:00	2024-11-06T07:00:00	8	Radiación solar	94
164793	7	Sololá	701	Sololá	2	El tablón	7	Julio	2023-09-07T00:00:00	2024-11-06T08:00:00	2	Temperatura media	15.9
164794	7	Sololá	701	Sololá	2	El tablón	7	Julio	2023-09-07T00:00:00	2024-11-06T08:00:00	4	Temperatura máxima	15.9
164795	7	Sololá	701	Sololá	2	El tablón	7	Julio	2023-09-07T00:00:00	2024-11-06T08:00:00	3	Temperatura mínima	13.2
164796	7	Sololá	701	Sololá	2	El tablón	7	Julio	2023-09-07T00:00:00	2024-11-06T08:00:00	5	Humedad	83
164797	7	Sololá	701	Sololá	2	El tablón	7	Julio	2023-09-07T00:00:00	2024-11-06T08:00:00	6	Velocidad del viento	0
164798	7	Sololá	701	Sololá	2	El tablón	7	Julio	2023-09-07T00:00:00	2024-11-06T08:00:00	7	Dirección del viento	0
164799	7	Sololá	701	Sololá	2	El tablón	7	Julio	2023-09-07T00:00:00	2024-11-06T08:00:00	1	Precipitación	0
164800	7	Sololá	701	Sololá	2	El tablón	7	Julio	2023-09-07T00:00:00	2024-11-06T08:00:00	8	Radiación solar	203
164801	7	Sololá	701	Sololá	2	El tablón	7	Julio	2023-09-07T00:00:00	2024-11-06T09:00:00	2	Temperatura media	16.7
164802	7	Sololá	701	Sololá	2	El tablón	7	Julio	2023-09-07T00:00:00	2024-11-06T09:00:00	4	Temperatura máxima	17.2
164803	7	Sololá	701	Sololá	2	El tablón	7	Julio	2023-09-07T00:00:00	2024-11-06T09:00:00	3	Temperatura mínima	15.9
164804	7	Sololá	701	Sololá	2	El tablón	7	Julio	2023-09-07T00:00:00	2024-11-06T09:00:00	5	Humedad	83
164805	7	Sololá	701	Sololá	2	El tablón	7	Julio	2023-09-07T00:00:00	2024-11-06T09:00:00	6	Velocidad del viento	3.2
164806	7	Sololá	701	Sololá	2	El tablón	7	Julio	2023-09-07T00:00:00	2024-11-06T09:00:00	7	Dirección del viento	3.22
164807	7	Sololá	701	Sololá	2	El tablón	7	Julio	2023-09-07T00:00:00	2024-11-06T09:00:00	1	Precipitación	0
164808	7	Sololá	701	Sololá	2	El tablón	7	Julio	2023-09-07T00:00:00	2024-11-06T09:00:00	8	Radiación solar	403
164809	7	Sololá	701	Sololá	2	El tablón	7	Julio	2023-09-07T00:00:00	2024-11-06T10:00:00	2	Temperatura media	16.3
164810	7	Sololá	701	Sololá	2	El tablón	7	Julio	2023-09-07T00:00:00	2024-11-06T10:00:00	4	Temperatura máxima	17.3
164811	7	Sololá	701	Sololá	2	El tablón	7	Julio	2023-09-07T00:00:00	2024-11-06T10:00:00	3	Temperatura mínima	16.2
164812	7	Sololá	701	Sololá	2	El tablón	7	Julio	2023-09-07T00:00:00	2024-11-06T10:00:00	5	Humedad	82
164813	7	Sololá	701	Sololá	2	El tablón	7	Julio	2023-09-07T00:00:00	2024-11-06T10:00:00	6	Velocidad del viento	6.4
164814	7	Sololá	701	Sololá	2	El tablón	7	Julio	2023-09-07T00:00:00	2024-11-06T10:00:00	7	Dirección del viento	6.44
164815	7	Sololá	701	Sololá	2	El tablón	7	Julio	2023-09-07T00:00:00	2024-11-06T10:00:00	1	Precipitación	0
164816	7	Sololá	701	Sololá	2	El tablón	7	Julio	2023-09-07T00:00:00	2024-11-06T10:00:00	8	Radiación solar	343
164817	7	Sololá	701	Sololá	2	El tablón	7	Julio	2023-09-07T00:00:00	2024-11-06T11:00:00	2	Temperatura media	16.3
164818	7	Sololá	701	Sololá	2	El tablón	7	Julio	2023-09-07T00:00:00	2024-11-06T11:00:00	4	Temperatura máxima	16.8
164819	7	Sololá	701	Sololá	2	El tablón	7	Julio	2023-09-07T00:00:00	2024-11-06T11:00:00	3	Temperatura mínima	16.2
164820	7	Sololá	701	Sololá	2	El tablón	7	Julio	2023-09-07T00:00:00	2024-11-06T11:00:00	5	Humedad	84
164821	7	Sololá	701	Sololá	2	El tablón	7	Julio	2023-09-07T00:00:00	2024-11-06T11:00:00	6	Velocidad del viento	4.8
164822	7	Sololá	701	Sololá	2	El tablón	7	Julio	2023-09-07T00:00:00	2024-11-06T11:00:00	7	Dirección del viento	4.83
164823	7	Sololá	701	Sololá	2	El tablón	7	Julio	2023-09-07T00:00:00	2024-11-06T11:00:00	1	Precipitación	0
164824	7	Sololá	701	Sololá	2	El tablón	7	Julio	2023-09-07T00:00:00	2024-11-06T11:00:00	8	Radiación solar	223
164825	7	Sololá	701	Sololá	2	El tablón	7	Julio	2023-09-07T00:00:00	2024-11-06T12:00:00	2	Temperatura media	18.4
164826	7	Sololá	701	Sololá	2	El tablón	7	Julio	2023-09-07T00:00:00	2024-11-06T12:00:00	4	Temperatura máxima	18.4
164827	7	Sololá	701	Sololá	2	El tablón	7	Julio	2023-09-07T00:00:00	2024-11-06T12:00:00	3	Temperatura mínima	16
164828	7	Sololá	701	Sololá	2	El tablón	7	Julio	2023-09-07T00:00:00	2024-11-06T12:00:00	5	Humedad	77
164829	7	Sololá	701	Sololá	2	El tablón	7	Julio	2023-09-07T00:00:00	2024-11-06T12:00:00	6	Velocidad del viento	6.4
164830	7	Sololá	701	Sololá	2	El tablón	7	Julio	2023-09-07T00:00:00	2024-11-06T12:00:00	7	Dirección del viento	6.44
164831	7	Sololá	701	Sololá	2	El tablón	7	Julio	2023-09-07T00:00:00	2024-11-06T12:00:00	1	Precipitación	0
164832	7	Sololá	701	Sololá	2	El tablón	7	Julio	2023-09-07T00:00:00	2024-11-06T12:00:00	8	Radiación solar	478
164833	7	Sololá	701	Sololá	2	El tablón	7	Julio	2023-09-07T00:00:00	2024-11-06T13:00:00	2	Temperatura media	18.7
164834	7	Sololá	701	Sololá	2	El tablón	7	Julio	2023-09-07T00:00:00	2024-11-06T13:00:00	4	Temperatura máxima	19
164835	7	Sololá	701	Sololá	2	El tablón	7	Julio	2023-09-07T00:00:00	2024-11-06T13:00:00	3	Temperatura mínima	18.4
164836	7	Sololá	701	Sololá	2	El tablón	7	Julio	2023-09-07T00:00:00	2024-11-06T13:00:00	5	Humedad	75
164837	7	Sololá	701	Sololá	2	El tablón	7	Julio	2023-09-07T00:00:00	2024-11-06T13:00:00	6	Velocidad del viento	4.8
164838	7	Sololá	701	Sololá	2	El tablón	7	Julio	2023-09-07T00:00:00	2024-11-06T13:00:00	7	Dirección del viento	4.83
164839	7	Sololá	701	Sololá	2	El tablón	7	Julio	2023-09-07T00:00:00	2024-11-06T13:00:00	1	Precipitación	0
164840	7	Sololá	701	Sololá	2	El tablón	7	Julio	2023-09-07T00:00:00	2024-11-06T13:00:00	8	Radiación solar	415
164841	7	Sololá	701	Sololá	2	El tablón	7	Julio	2023-09-07T00:00:00	2024-11-06T14:00:00	2	Temperatura media	19.1
164842	7	Sololá	701	Sololá	2	El tablón	7	Julio	2023-09-07T00:00:00	2024-11-06T14:00:00	4	Temperatura máxima	19.2
164843	7	Sololá	701	Sololá	2	El tablón	7	Julio	2023-09-07T00:00:00	2024-11-06T14:00:00	3	Temperatura mínima	18.7
164844	7	Sololá	701	Sololá	2	El tablón	7	Julio	2023-09-07T00:00:00	2024-11-06T14:00:00	5	Humedad	76
164845	7	Sololá	701	Sololá	2	El tablón	7	Julio	2023-09-07T00:00:00	2024-11-06T14:00:00	6	Velocidad del viento	4.8
164846	7	Sololá	701	Sololá	2	El tablón	7	Julio	2023-09-07T00:00:00	2024-11-06T14:00:00	7	Dirección del viento	4.83
164847	7	Sololá	701	Sololá	2	El tablón	7	Julio	2023-09-07T00:00:00	2024-11-06T14:00:00	1	Precipitación	0
164848	7	Sololá	701	Sololá	2	El tablón	7	Julio	2023-09-07T00:00:00	2024-11-06T14:00:00	8	Radiación solar	367
164849	7	Sololá	701	Sololá	2	El tablón	7	Julio	2023-09-07T00:00:00	2024-11-06T15:00:00	2	Temperatura media	16.9
164850	7	Sololá	701	Sololá	2	El tablón	7	Julio	2023-09-07T00:00:00	2024-11-06T15:00:00	4	Temperatura máxima	19.1
164851	7	Sololá	701	Sololá	2	El tablón	7	Julio	2023-09-07T00:00:00	2024-11-06T15:00:00	3	Temperatura mínima	16.9
164852	7	Sololá	701	Sololá	2	El tablón	7	Julio	2023-09-07T00:00:00	2024-11-06T15:00:00	5	Humedad	87
164853	7	Sololá	701	Sololá	2	El tablón	7	Julio	2023-09-07T00:00:00	2024-11-06T15:00:00	6	Velocidad del viento	4.8
164854	7	Sololá	701	Sololá	2	El tablón	7	Julio	2023-09-07T00:00:00	2024-11-06T15:00:00	7	Dirección del viento	4.83
164855	7	Sololá	701	Sololá	2	El tablón	7	Julio	2023-09-07T00:00:00	2024-11-06T15:00:00	1	Precipitación	0.2
164856	7	Sololá	701	Sololá	2	El tablón	7	Julio	2023-09-07T00:00:00	2024-11-06T15:00:00	8	Radiación solar	126
164857	7	Sololá	701	Sololá	2	El tablón	7	Julio	2023-09-07T00:00:00	2024-11-06T16:00:00	2	Temperatura media	15.2
164858	7	Sololá	701	Sololá	2	El tablón	7	Julio	2023-09-07T00:00:00	2024-11-06T16:00:00	4	Temperatura máxima	16.9
164859	7	Sololá	701	Sololá	2	El tablón	7	Julio	2023-09-07T00:00:00	2024-11-06T16:00:00	3	Temperatura mínima	14.7
164860	7	Sololá	701	Sololá	2	El tablón	7	Julio	2023-09-07T00:00:00	2024-11-06T16:00:00	5	Humedad	88
164861	7	Sololá	701	Sololá	2	El tablón	7	Julio	2023-09-07T00:00:00	2024-11-06T16:00:00	6	Velocidad del viento	3.2
164862	7	Sololá	701	Sololá	2	El tablón	7	Julio	2023-09-07T00:00:00	2024-11-06T16:00:00	7	Dirección del viento	3.22
164863	7	Sololá	701	Sololá	2	El tablón	7	Julio	2023-09-07T00:00:00	2024-11-06T16:00:00	1	Precipitación	12.4
164864	7	Sololá	701	Sololá	2	El tablón	7	Julio	2023-09-07T00:00:00	2024-11-06T16:00:00	8	Radiación solar	56
164865	7	Sololá	701	Sololá	2	El tablón	7	Julio	2023-09-07T00:00:00	2024-11-06T17:00:00	2	Temperatura media	15.6
164866	7	Sololá	701	Sololá	2	El tablón	7	Julio	2023-09-07T00:00:00	2024-11-06T17:00:00	4	Temperatura máxima	15.6
164867	7	Sololá	701	Sololá	2	El tablón	7	Julio	2023-09-07T00:00:00	2024-11-06T17:00:00	3	Temperatura mínima	15.1
164868	7	Sololá	701	Sololá	2	El tablón	7	Julio	2023-09-07T00:00:00	2024-11-06T17:00:00	5	Humedad	83
164869	7	Sololá	701	Sololá	2	El tablón	7	Julio	2023-09-07T00:00:00	2024-11-06T17:00:00	6	Velocidad del viento	3.2
164870	7	Sololá	701	Sololá	2	El tablón	7	Julio	2023-09-07T00:00:00	2024-11-06T17:00:00	7	Dirección del viento	3.22
164871	7	Sololá	701	Sololá	2	El tablón	7	Julio	2023-09-07T00:00:00	2024-11-06T17:00:00	1	Precipitación	1.2
164872	7	Sololá	701	Sololá	2	El tablón	7	Julio	2023-09-07T00:00:00	2024-11-06T17:00:00	8	Radiación solar	122
164873	7	Sololá	701	Sololá	2	El tablón	7	Julio	2023-09-07T00:00:00	2024-11-06T18:00:00	2	Temperatura media	15.9
164874	7	Sololá	701	Sololá	2	El tablón	7	Julio	2023-09-07T00:00:00	2024-11-06T18:00:00	4	Temperatura máxima	16
164875	7	Sololá	701	Sololá	2	El tablón	7	Julio	2023-09-07T00:00:00	2024-11-06T18:00:00	3	Temperatura mínima	15.6
164876	7	Sololá	701	Sololá	2	El tablón	7	Julio	2023-09-07T00:00:00	2024-11-06T18:00:00	5	Humedad	85
164877	7	Sololá	701	Sololá	2	El tablón	7	Julio	2023-09-07T00:00:00	2024-11-06T18:00:00	6	Velocidad del viento	4.8
164878	7	Sololá	701	Sololá	2	El tablón	7	Julio	2023-09-07T00:00:00	2024-11-06T18:00:00	7	Dirección del viento	4.83
164879	7	Sololá	701	Sololá	2	El tablón	7	Julio	2023-09-07T00:00:00	2024-11-06T18:00:00	1	Precipitación	0
164880	7	Sololá	701	Sololá	2	El tablón	7	Julio	2023-09-07T00:00:00	2024-11-06T18:00:00	8	Radiación solar	82
164881	7	Sololá	701	Sololá	2	El tablón	7	Julio	2023-09-07T00:00:00	2024-11-06T19:00:00	2	Temperatura media	15.1
164882	7	Sololá	701	Sololá	2	El tablón	7	Julio	2023-09-07T00:00:00	2024-11-06T19:00:00	4	Temperatura máxima	15.9
164883	7	Sololá	701	Sololá	2	El tablón	7	Julio	2023-09-07T00:00:00	2024-11-06T19:00:00	3	Temperatura mínima	15.1
164884	7	Sololá	701	Sololá	2	El tablón	7	Julio	2023-09-07T00:00:00	2024-11-06T19:00:00	5	Humedad	87
164885	7	Sololá	701	Sololá	2	El tablón	7	Julio	2023-09-07T00:00:00	2024-11-06T19:00:00	6	Velocidad del viento	4.8
164886	7	Sololá	701	Sololá	2	El tablón	7	Julio	2023-09-07T00:00:00	2024-11-06T19:00:00	7	Dirección del viento	4.83
164887	7	Sololá	701	Sololá	2	El tablón	7	Julio	2023-09-07T00:00:00	2024-11-06T19:00:00	1	Precipitación	0
164888	7	Sololá	701	Sololá	2	El tablón	7	Julio	2023-09-07T00:00:00	2024-11-06T19:00:00	8	Radiación solar	0
164889	7	Sololá	701	Sololá	2	El tablón	7	Julio	2023-09-07T00:00:00	2024-11-06T20:00:00	2	Temperatura media	14.4
164890	7	Sololá	701	Sololá	2	El tablón	7	Julio	2023-09-07T00:00:00	2024-11-06T20:00:00	4	Temperatura máxima	15.1
164891	7	Sololá	701	Sololá	2	El tablón	7	Julio	2023-09-07T00:00:00	2024-11-06T20:00:00	3	Temperatura mínima	14.4
164892	7	Sololá	701	Sololá	2	El tablón	7	Julio	2023-09-07T00:00:00	2024-11-06T20:00:00	5	Humedad	88
164893	7	Sololá	701	Sololá	2	El tablón	7	Julio	2023-09-07T00:00:00	2024-11-06T20:00:00	6	Velocidad del viento	3.2
164894	7	Sololá	701	Sololá	2	El tablón	7	Julio	2023-09-07T00:00:00	2024-11-06T20:00:00	7	Dirección del viento	3.22
164895	7	Sololá	701	Sololá	2	El tablón	7	Julio	2023-09-07T00:00:00	2024-11-06T20:00:00	1	Precipitación	0
164896	7	Sololá	701	Sololá	2	El tablón	7	Julio	2023-09-07T00:00:00	2024-11-06T20:00:00	8	Radiación solar	0
164897	7	Sololá	701	Sololá	2	El tablón	7	Julio	2023-09-07T00:00:00	2024-11-06T21:00:00	2	Temperatura media	14.4
164898	7	Sololá	701	Sololá	2	El tablón	7	Julio	2023-09-07T00:00:00	2024-11-06T21:00:00	4	Temperatura máxima	14.4
164899	7	Sololá	701	Sololá	2	El tablón	7	Julio	2023-09-07T00:00:00	2024-11-06T21:00:00	3	Temperatura mínima	14.3
164900	7	Sololá	701	Sololá	2	El tablón	7	Julio	2023-09-07T00:00:00	2024-11-06T21:00:00	5	Humedad	88
164901	7	Sololá	701	Sololá	2	El tablón	7	Julio	2023-09-07T00:00:00	2024-11-06T21:00:00	6	Velocidad del viento	1.6
164902	7	Sololá	701	Sololá	2	El tablón	7	Julio	2023-09-07T00:00:00	2024-11-06T21:00:00	7	Dirección del viento	1.61
164903	7	Sololá	701	Sololá	2	El tablón	7	Julio	2023-09-07T00:00:00	2024-11-06T21:00:00	1	Precipitación	0
164904	7	Sololá	701	Sololá	2	El tablón	7	Julio	2023-09-07T00:00:00	2024-11-06T21:00:00	8	Radiación solar	0
164905	7	Sololá	701	Sololá	2	El tablón	7	Julio	2023-09-07T00:00:00	2024-11-06T22:00:00	2	Temperatura media	14.3
164906	7	Sololá	701	Sololá	2	El tablón	7	Julio	2023-09-07T00:00:00	2024-11-06T22:00:00	4	Temperatura máxima	14.5
164907	7	Sololá	701	Sololá	2	El tablón	7	Julio	2023-09-07T00:00:00	2024-11-06T22:00:00	3	Temperatura mínima	14.3
164908	7	Sololá	701	Sololá	2	El tablón	7	Julio	2023-09-07T00:00:00	2024-11-06T22:00:00	5	Humedad	88
164909	7	Sololá	701	Sololá	2	El tablón	7	Julio	2023-09-07T00:00:00	2024-11-06T22:00:00	6	Velocidad del viento	3.2
164910	7	Sololá	701	Sololá	2	El tablón	7	Julio	2023-09-07T00:00:00	2024-11-06T22:00:00	7	Dirección del viento	3.22
164911	7	Sololá	701	Sololá	2	El tablón	7	Julio	2023-09-07T00:00:00	2024-11-06T22:00:00	1	Precipitación	0
164912	7	Sololá	701	Sololá	2	El tablón	7	Julio	2023-09-07T00:00:00	2024-11-06T22:00:00	8	Radiación solar	0
164913	7	Sololá	701	Sololá	2	El tablón	7	Julio	2023-09-07T00:00:00	2024-11-06T23:00:00	2	Temperatura media	14.1
164914	7	Sololá	701	Sololá	2	El tablón	7	Julio	2023-09-07T00:00:00	2024-11-06T23:00:00	4	Temperatura máxima	14.3
164915	7	Sololá	701	Sololá	2	El tablón	7	Julio	2023-09-07T00:00:00	2024-11-06T23:00:00	3	Temperatura mínima	13.9
164916	7	Sololá	701	Sololá	2	El tablón	7	Julio	2023-09-07T00:00:00	2024-11-06T23:00:00	5	Humedad	89
164917	7	Sololá	701	Sololá	2	El tablón	7	Julio	2023-09-07T00:00:00	2024-11-06T23:00:00	6	Velocidad del viento	4.8
164918	7	Sololá	701	Sololá	2	El tablón	7	Julio	2023-09-07T00:00:00	2024-11-06T23:00:00	7	Dirección del viento	4.83
164919	7	Sololá	701	Sololá	2	El tablón	7	Julio	2023-09-07T00:00:00	2024-11-06T23:00:00	1	Precipitación	0
164920	7	Sololá	701	Sololá	2	El tablón	7	Julio	2023-09-07T00:00:00	2024-11-06T23:00:00	8	Radiación solar	0
164921	7	Sololá	701	Sololá	2	El tablón	7	Julio	2023-10-07T00:00:00	2024-11-06T00:00:00	2	Temperatura media	14.1
164922	7	Sololá	701	Sololá	2	El tablón	7	Julio	2023-10-07T00:00:00	2024-11-06T00:00:00	4	Temperatura máxima	14.1
164923	7	Sololá	701	Sololá	2	El tablón	7	Julio	2023-10-07T00:00:00	2024-11-06T00:00:00	3	Temperatura mínima	14
164924	7	Sololá	701	Sololá	2	El tablón	7	Julio	2023-10-07T00:00:00	2024-11-06T00:00:00	5	Humedad	88
164925	7	Sololá	701	Sololá	2	El tablón	7	Julio	2023-10-07T00:00:00	2024-11-06T00:00:00	6	Velocidad del viento	9.7
164926	7	Sololá	701	Sololá	2	El tablón	7	Julio	2023-10-07T00:00:00	2024-11-06T00:00:00	7	Dirección del viento	9.66
164927	7	Sololá	701	Sololá	2	El tablón	7	Julio	2023-10-07T00:00:00	2024-11-06T00:00:00	1	Precipitación	0
164928	7	Sololá	701	Sololá	2	El tablón	7	Julio	2023-10-07T00:00:00	2024-11-06T00:00:00	8	Radiación solar	0
164929	7	Sololá	701	Sololá	2	El tablón	7	Julio	2023-10-07T00:00:00	2024-11-06T01:00:00	2	Temperatura media	13.7
164930	7	Sololá	701	Sololá	2	El tablón	7	Julio	2023-10-07T00:00:00	2024-11-06T01:00:00	4	Temperatura máxima	14.2
164931	7	Sololá	701	Sololá	2	El tablón	7	Julio	2023-10-07T00:00:00	2024-11-06T01:00:00	3	Temperatura mínima	13.7
164932	7	Sololá	701	Sololá	2	El tablón	7	Julio	2023-10-07T00:00:00	2024-11-06T01:00:00	5	Humedad	87
164933	7	Sololá	701	Sololá	2	El tablón	7	Julio	2023-10-07T00:00:00	2024-11-06T01:00:00	6	Velocidad del viento	6.4
164934	7	Sololá	701	Sololá	2	El tablón	7	Julio	2023-10-07T00:00:00	2024-11-06T01:00:00	7	Dirección del viento	6.44
164935	7	Sololá	701	Sololá	2	El tablón	7	Julio	2023-10-07T00:00:00	2024-11-06T01:00:00	1	Precipitación	0
164936	7	Sololá	701	Sololá	2	El tablón	7	Julio	2023-10-07T00:00:00	2024-11-06T01:00:00	8	Radiación solar	0
164937	7	Sololá	701	Sololá	2	El tablón	7	Julio	2023-10-07T00:00:00	2024-11-06T02:00:00	2	Temperatura media	13.8
164938	7	Sololá	701	Sololá	2	El tablón	7	Julio	2023-10-07T00:00:00	2024-11-06T02:00:00	4	Temperatura máxima	14.6
164939	7	Sololá	701	Sololá	2	El tablón	7	Julio	2023-10-07T00:00:00	2024-11-06T02:00:00	3	Temperatura mínima	13.7
164940	7	Sololá	701	Sololá	2	El tablón	7	Julio	2023-10-07T00:00:00	2024-11-06T02:00:00	5	Humedad	84
164941	7	Sololá	701	Sololá	2	El tablón	7	Julio	2023-10-07T00:00:00	2024-11-06T02:00:00	6	Velocidad del viento	6.4
164942	7	Sololá	701	Sololá	2	El tablón	7	Julio	2023-10-07T00:00:00	2024-11-06T02:00:00	7	Dirección del viento	6.44
164943	7	Sololá	701	Sololá	2	El tablón	7	Julio	2023-10-07T00:00:00	2024-11-06T02:00:00	1	Precipitación	0
164944	7	Sololá	701	Sololá	2	El tablón	7	Julio	2023-10-07T00:00:00	2024-11-06T02:00:00	8	Radiación solar	0
164945	7	Sololá	701	Sololá	2	El tablón	7	Julio	2023-10-07T00:00:00	2024-11-06T03:00:00	2	Temperatura media	12.6
164946	7	Sololá	701	Sololá	2	El tablón	7	Julio	2023-10-07T00:00:00	2024-11-06T03:00:00	4	Temperatura máxima	13.8
164947	7	Sololá	701	Sololá	2	El tablón	7	Julio	2023-10-07T00:00:00	2024-11-06T03:00:00	3	Temperatura mínima	12.6
164948	7	Sololá	701	Sololá	2	El tablón	7	Julio	2023-10-07T00:00:00	2024-11-06T03:00:00	5	Humedad	88
164949	7	Sololá	701	Sololá	2	El tablón	7	Julio	2023-10-07T00:00:00	2024-11-06T03:00:00	6	Velocidad del viento	4.8
164950	7	Sololá	701	Sololá	2	El tablón	7	Julio	2023-10-07T00:00:00	2024-11-06T03:00:00	7	Dirección del viento	4.83
164951	7	Sololá	701	Sololá	2	El tablón	7	Julio	2023-10-07T00:00:00	2024-11-06T03:00:00	1	Precipitación	0
164952	7	Sololá	701	Sololá	2	El tablón	7	Julio	2023-10-07T00:00:00	2024-11-06T03:00:00	8	Radiación solar	0
164953	7	Sololá	701	Sololá	2	El tablón	7	Julio	2023-10-07T00:00:00	2024-11-06T04:00:00	2	Temperatura media	12.6
164954	7	Sololá	701	Sololá	2	El tablón	7	Julio	2023-10-07T00:00:00	2024-11-06T04:00:00	4	Temperatura máxima	12.6
164955	7	Sololá	701	Sololá	2	El tablón	7	Julio	2023-10-07T00:00:00	2024-11-06T04:00:00	3	Temperatura mínima	12.3
164956	7	Sololá	701	Sololá	2	El tablón	7	Julio	2023-10-07T00:00:00	2024-11-06T04:00:00	5	Humedad	89
164957	7	Sololá	701	Sololá	2	El tablón	7	Julio	2023-10-07T00:00:00	2024-11-06T04:00:00	6	Velocidad del viento	6.4
164958	7	Sololá	701	Sololá	2	El tablón	7	Julio	2023-10-07T00:00:00	2024-11-06T04:00:00	7	Dirección del viento	6.44
164959	7	Sololá	701	Sololá	2	El tablón	7	Julio	2023-10-07T00:00:00	2024-11-06T04:00:00	1	Precipitación	0
164960	7	Sololá	701	Sololá	2	El tablón	7	Julio	2023-10-07T00:00:00	2024-11-06T04:00:00	8	Radiación solar	0
164961	7	Sololá	701	Sololá	2	El tablón	7	Julio	2023-10-07T00:00:00	2024-11-06T05:00:00	2	Temperatura media	13.1
164962	7	Sololá	701	Sololá	2	El tablón	7	Julio	2023-10-07T00:00:00	2024-11-06T05:00:00	4	Temperatura máxima	13.1
164963	7	Sololá	701	Sololá	2	El tablón	7	Julio	2023-10-07T00:00:00	2024-11-06T05:00:00	3	Temperatura mínima	12.5
164964	7	Sololá	701	Sololá	2	El tablón	7	Julio	2023-10-07T00:00:00	2024-11-06T05:00:00	5	Humedad	88
164965	7	Sololá	701	Sololá	2	El tablón	7	Julio	2023-10-07T00:00:00	2024-11-06T05:00:00	6	Velocidad del viento	6.4
164966	7	Sololá	701	Sololá	2	El tablón	7	Julio	2023-10-07T00:00:00	2024-11-06T05:00:00	7	Dirección del viento	6.44
164967	7	Sololá	701	Sololá	2	El tablón	7	Julio	2023-10-07T00:00:00	2024-11-06T05:00:00	1	Precipitación	0
164968	7	Sololá	701	Sololá	2	El tablón	7	Julio	2023-10-07T00:00:00	2024-11-06T05:00:00	8	Radiación solar	0
164969	7	Sololá	701	Sololá	2	El tablón	7	Julio	2023-10-07T00:00:00	2024-11-06T06:00:00	2	Temperatura media	12.8
164970	7	Sololá	701	Sololá	2	El tablón	7	Julio	2023-10-07T00:00:00	2024-11-06T06:00:00	4	Temperatura máxima	13.1
164971	7	Sololá	701	Sololá	2	El tablón	7	Julio	2023-10-07T00:00:00	2024-11-06T06:00:00	3	Temperatura mínima	12.8
164972	7	Sololá	701	Sololá	2	El tablón	7	Julio	2023-10-07T00:00:00	2024-11-06T06:00:00	5	Humedad	88
164973	7	Sololá	701	Sololá	2	El tablón	7	Julio	2023-10-07T00:00:00	2024-11-06T06:00:00	6	Velocidad del viento	9.7
164974	7	Sololá	701	Sololá	2	El tablón	7	Julio	2023-10-07T00:00:00	2024-11-06T06:00:00	7	Dirección del viento	9.66
164975	7	Sololá	701	Sololá	2	El tablón	7	Julio	2023-10-07T00:00:00	2024-11-06T06:00:00	1	Precipitación	0
164976	7	Sololá	701	Sololá	2	El tablón	7	Julio	2023-10-07T00:00:00	2024-11-06T06:00:00	8	Radiación solar	0
164977	7	Sololá	701	Sololá	2	El tablón	7	Julio	2023-10-07T00:00:00	2024-11-06T07:00:00	2	Temperatura media	13.7
164978	7	Sololá	701	Sololá	2	El tablón	7	Julio	2023-10-07T00:00:00	2024-11-06T07:00:00	4	Temperatura máxima	13.7
164979	7	Sololá	701	Sololá	2	El tablón	7	Julio	2023-10-07T00:00:00	2024-11-06T07:00:00	3	Temperatura mínima	12.5
164980	7	Sololá	701	Sololá	2	El tablón	7	Julio	2023-10-07T00:00:00	2024-11-06T07:00:00	5	Humedad	85
164981	7	Sololá	701	Sololá	2	El tablón	7	Julio	2023-10-07T00:00:00	2024-11-06T07:00:00	6	Velocidad del viento	4.8
164982	7	Sololá	701	Sololá	2	El tablón	7	Julio	2023-10-07T00:00:00	2024-11-06T07:00:00	7	Dirección del viento	4.83
164983	7	Sololá	701	Sololá	2	El tablón	7	Julio	2023-10-07T00:00:00	2024-11-06T07:00:00	1	Precipitación	0
164984	7	Sololá	701	Sololá	2	El tablón	7	Julio	2023-10-07T00:00:00	2024-11-06T07:00:00	8	Radiación solar	51
164985	7	Sololá	701	Sololá	2	El tablón	7	Julio	2023-10-07T00:00:00	2024-11-06T08:00:00	2	Temperatura media	15.3
164986	7	Sololá	701	Sololá	2	El tablón	7	Julio	2023-10-07T00:00:00	2024-11-06T08:00:00	4	Temperatura máxima	15.7
164987	7	Sololá	701	Sololá	2	El tablón	7	Julio	2023-10-07T00:00:00	2024-11-06T08:00:00	3	Temperatura mínima	13.7
164988	7	Sololá	701	Sololá	2	El tablón	7	Julio	2023-10-07T00:00:00	2024-11-06T08:00:00	5	Humedad	81
164989	7	Sololá	701	Sololá	2	El tablón	7	Julio	2023-10-07T00:00:00	2024-11-06T08:00:00	6	Velocidad del viento	4.8
164990	7	Sololá	701	Sololá	2	El tablón	7	Julio	2023-10-07T00:00:00	2024-11-06T08:00:00	7	Dirección del viento	4.83
164991	7	Sololá	701	Sololá	2	El tablón	7	Julio	2023-10-07T00:00:00	2024-11-06T08:00:00	1	Precipitación	0
164992	7	Sololá	701	Sololá	2	El tablón	7	Julio	2023-10-07T00:00:00	2024-11-06T08:00:00	8	Radiación solar	199
164993	7	Sololá	701	Sololá	2	El tablón	7	Julio	2023-10-07T00:00:00	2024-11-06T09:00:00	2	Temperatura media	17.1
164994	7	Sololá	701	Sololá	2	El tablón	7	Julio	2023-10-07T00:00:00	2024-11-06T09:00:00	4	Temperatura máxima	17.2
164995	7	Sololá	701	Sololá	2	El tablón	7	Julio	2023-10-07T00:00:00	2024-11-06T09:00:00	3	Temperatura mínima	15.2
164996	7	Sololá	701	Sololá	2	El tablón	7	Julio	2023-10-07T00:00:00	2024-11-06T09:00:00	5	Humedad	75
164997	7	Sololá	701	Sololá	2	El tablón	7	Julio	2023-10-07T00:00:00	2024-11-06T09:00:00	6	Velocidad del viento	6.4
164998	7	Sololá	701	Sololá	2	El tablón	7	Julio	2023-10-07T00:00:00	2024-11-06T09:00:00	7	Dirección del viento	6.44
164999	7	Sololá	701	Sololá	2	El tablón	7	Julio	2023-10-07T00:00:00	2024-11-06T09:00:00	1	Precipitación	0
165000	7	Sololá	701	Sololá	2	El tablón	7	Julio	2023-10-07T00:00:00	2024-11-06T09:00:00	8	Radiación solar	483
165001	7	Sololá	701	Sololá	2	El tablón	7	Julio	2023-10-07T00:00:00	2024-11-06T10:00:00	2	Temperatura media	17.2
165002	7	Sololá	701	Sololá	2	El tablón	7	Julio	2023-10-07T00:00:00	2024-11-06T10:00:00	4	Temperatura máxima	17.7
165003	7	Sololá	701	Sololá	2	El tablón	7	Julio	2023-10-07T00:00:00	2024-11-06T10:00:00	3	Temperatura mínima	16.9
165004	7	Sololá	701	Sololá	2	El tablón	7	Julio	2023-10-07T00:00:00	2024-11-06T10:00:00	5	Humedad	76
165005	7	Sololá	701	Sololá	2	El tablón	7	Julio	2023-10-07T00:00:00	2024-11-06T10:00:00	6	Velocidad del viento	11.3
165006	7	Sololá	701	Sololá	2	El tablón	7	Julio	2023-10-07T00:00:00	2024-11-06T10:00:00	7	Dirección del viento	11.27
165007	7	Sololá	701	Sololá	2	El tablón	7	Julio	2023-10-07T00:00:00	2024-11-06T10:00:00	1	Precipitación	0
165008	7	Sololá	701	Sololá	2	El tablón	7	Julio	2023-10-07T00:00:00	2024-11-06T10:00:00	8	Radiación solar	694
165009	7	Sololá	701	Sololá	2	El tablón	7	Julio	2023-10-07T00:00:00	2024-11-06T11:00:00	2	Temperatura media	17.9
165010	7	Sololá	701	Sololá	2	El tablón	7	Julio	2023-10-07T00:00:00	2024-11-06T11:00:00	4	Temperatura máxima	18
165011	7	Sololá	701	Sololá	2	El tablón	7	Julio	2023-10-07T00:00:00	2024-11-06T11:00:00	3	Temperatura mínima	17
165012	7	Sololá	701	Sololá	2	El tablón	7	Julio	2023-10-07T00:00:00	2024-11-06T11:00:00	5	Humedad	74
165013	7	Sololá	701	Sololá	2	El tablón	7	Julio	2023-10-07T00:00:00	2024-11-06T11:00:00	6	Velocidad del viento	11.3
165014	7	Sololá	701	Sololá	2	El tablón	7	Julio	2023-10-07T00:00:00	2024-11-06T11:00:00	7	Dirección del viento	11.27
165015	7	Sololá	701	Sololá	2	El tablón	7	Julio	2023-10-07T00:00:00	2024-11-06T11:00:00	1	Precipitación	0
165016	7	Sololá	701	Sololá	2	El tablón	7	Julio	2023-10-07T00:00:00	2024-11-06T11:00:00	8	Radiación solar	791
165017	7	Sololá	701	Sololá	2	El tablón	7	Julio	2023-10-07T00:00:00	2024-11-06T12:00:00	2	Temperatura media	19.1
165018	7	Sololá	701	Sololá	2	El tablón	7	Julio	2023-10-07T00:00:00	2024-11-06T12:00:00	4	Temperatura máxima	19.1
165019	7	Sololá	701	Sololá	2	El tablón	7	Julio	2023-10-07T00:00:00	2024-11-06T12:00:00	3	Temperatura mínima	17.1
165020	7	Sololá	701	Sololá	2	El tablón	7	Julio	2023-10-07T00:00:00	2024-11-06T12:00:00	5	Humedad	69
165021	7	Sololá	701	Sololá	2	El tablón	7	Julio	2023-10-07T00:00:00	2024-11-06T12:00:00	6	Velocidad del viento	11.3
165022	7	Sololá	701	Sololá	2	El tablón	7	Julio	2023-10-07T00:00:00	2024-11-06T12:00:00	7	Dirección del viento	11.27
165023	7	Sololá	701	Sololá	2	El tablón	7	Julio	2023-10-07T00:00:00	2024-11-06T12:00:00	1	Precipitación	0
165024	7	Sololá	701	Sololá	2	El tablón	7	Julio	2023-10-07T00:00:00	2024-11-06T12:00:00	8	Radiación solar	761
165025	7	Sololá	701	Sololá	2	El tablón	7	Julio	2023-10-07T00:00:00	2024-11-06T13:00:00	2	Temperatura media	19.5
165026	7	Sololá	701	Sololá	2	El tablón	7	Julio	2023-10-07T00:00:00	2024-11-06T13:00:00	4	Temperatura máxima	19.8
165027	7	Sololá	701	Sololá	2	El tablón	7	Julio	2023-10-07T00:00:00	2024-11-06T13:00:00	3	Temperatura mínima	18.8
165028	7	Sololá	701	Sololá	2	El tablón	7	Julio	2023-10-07T00:00:00	2024-11-06T13:00:00	5	Humedad	72
165029	7	Sololá	701	Sololá	2	El tablón	7	Julio	2023-10-07T00:00:00	2024-11-06T13:00:00	6	Velocidad del viento	8
165030	7	Sololá	701	Sololá	2	El tablón	7	Julio	2023-10-07T00:00:00	2024-11-06T13:00:00	7	Dirección del viento	8.05
165031	7	Sololá	701	Sololá	2	El tablón	7	Julio	2023-10-07T00:00:00	2024-11-06T13:00:00	1	Precipitación	0
165032	7	Sololá	701	Sololá	2	El tablón	7	Julio	2023-10-07T00:00:00	2024-11-06T13:00:00	8	Radiación solar	636
165033	7	Sololá	701	Sololá	2	El tablón	7	Julio	2023-10-07T00:00:00	2024-11-06T14:00:00	2	Temperatura media	19.9
165034	7	Sololá	701	Sololá	2	El tablón	7	Julio	2023-10-07T00:00:00	2024-11-06T14:00:00	4	Temperatura máxima	20
165035	7	Sololá	701	Sololá	2	El tablón	7	Julio	2023-10-07T00:00:00	2024-11-06T14:00:00	3	Temperatura mínima	19.2
165036	7	Sololá	701	Sololá	2	El tablón	7	Julio	2023-10-07T00:00:00	2024-11-06T14:00:00	5	Humedad	70
165037	7	Sololá	701	Sololá	2	El tablón	7	Julio	2023-10-07T00:00:00	2024-11-06T14:00:00	6	Velocidad del viento	4.8
165038	7	Sololá	701	Sololá	2	El tablón	7	Julio	2023-10-07T00:00:00	2024-11-06T14:00:00	7	Dirección del viento	4.83
165039	7	Sololá	701	Sololá	2	El tablón	7	Julio	2023-10-07T00:00:00	2024-11-06T14:00:00	1	Precipitación	0
165040	7	Sololá	701	Sololá	2	El tablón	7	Julio	2023-10-07T00:00:00	2024-11-06T14:00:00	8	Radiación solar	425
165041	7	Sololá	701	Sololá	2	El tablón	7	Julio	2023-10-07T00:00:00	2024-11-06T15:00:00	2	Temperatura media	20.2
165042	7	Sololá	701	Sololá	2	El tablón	7	Julio	2023-10-07T00:00:00	2024-11-06T15:00:00	4	Temperatura máxima	20.9
165043	7	Sololá	701	Sololá	2	El tablón	7	Julio	2023-10-07T00:00:00	2024-11-06T15:00:00	3	Temperatura mínima	19.8
165044	7	Sololá	701	Sololá	2	El tablón	7	Julio	2023-10-07T00:00:00	2024-11-06T15:00:00	5	Humedad	65
165045	7	Sololá	701	Sololá	2	El tablón	7	Julio	2023-10-07T00:00:00	2024-11-06T15:00:00	6	Velocidad del viento	4.8
165046	7	Sololá	701	Sololá	2	El tablón	7	Julio	2023-10-07T00:00:00	2024-11-06T15:00:00	7	Dirección del viento	4.83
165047	7	Sololá	701	Sololá	2	El tablón	7	Julio	2023-10-07T00:00:00	2024-11-06T15:00:00	1	Precipitación	0
165048	7	Sololá	701	Sololá	2	El tablón	7	Julio	2023-10-07T00:00:00	2024-11-06T15:00:00	8	Radiación solar	435
165049	7	Sololá	701	Sololá	2	El tablón	7	Julio	2023-10-07T00:00:00	2024-11-06T16:00:00	2	Temperatura media	19.2
165050	7	Sololá	701	Sololá	2	El tablón	7	Julio	2023-10-07T00:00:00	2024-11-06T16:00:00	4	Temperatura máxima	20.8
165051	7	Sololá	701	Sololá	2	El tablón	7	Julio	2023-10-07T00:00:00	2024-11-06T16:00:00	3	Temperatura mínima	19.2
165052	7	Sololá	701	Sololá	2	El tablón	7	Julio	2023-10-07T00:00:00	2024-11-06T16:00:00	5	Humedad	84
165053	7	Sololá	701	Sololá	2	El tablón	7	Julio	2023-10-07T00:00:00	2024-11-06T16:00:00	6	Velocidad del viento	3.2
165054	7	Sololá	701	Sololá	2	El tablón	7	Julio	2023-10-07T00:00:00	2024-11-06T16:00:00	7	Dirección del viento	3.22
165055	7	Sololá	701	Sololá	2	El tablón	7	Julio	2023-10-07T00:00:00	2024-11-06T16:00:00	1	Precipitación	0
165056	7	Sololá	701	Sololá	2	El tablón	7	Julio	2023-10-07T00:00:00	2024-11-06T16:00:00	8	Radiación solar	366
165057	7	Sololá	701	Sololá	2	El tablón	7	Julio	2023-10-07T00:00:00	2024-11-06T17:00:00	2	Temperatura media	16.7
165058	7	Sololá	701	Sololá	2	El tablón	7	Julio	2023-10-07T00:00:00	2024-11-06T17:00:00	4	Temperatura máxima	19.2
165059	7	Sololá	701	Sololá	2	El tablón	7	Julio	2023-10-07T00:00:00	2024-11-06T17:00:00	3	Temperatura mínima	16.7
165060	7	Sololá	701	Sololá	2	El tablón	7	Julio	2023-10-07T00:00:00	2024-11-06T17:00:00	5	Humedad	88
165061	7	Sololá	701	Sololá	2	El tablón	7	Julio	2023-10-07T00:00:00	2024-11-06T17:00:00	6	Velocidad del viento	4.8
165062	7	Sololá	701	Sololá	2	El tablón	7	Julio	2023-10-07T00:00:00	2024-11-06T17:00:00	7	Dirección del viento	4.83
165063	7	Sololá	701	Sololá	2	El tablón	7	Julio	2023-10-07T00:00:00	2024-11-06T17:00:00	1	Precipitación	0
165064	7	Sololá	701	Sololá	2	El tablón	7	Julio	2023-10-07T00:00:00	2024-11-06T17:00:00	8	Radiación solar	94
165065	7	Sololá	701	Sololá	2	El tablón	7	Julio	2023-10-07T00:00:00	2024-11-06T18:00:00	2	Temperatura media	16.5
165066	7	Sololá	701	Sololá	2	El tablón	7	Julio	2023-10-07T00:00:00	2024-11-06T18:00:00	4	Temperatura máxima	16.7
165067	7	Sololá	701	Sololá	2	El tablón	7	Julio	2023-10-07T00:00:00	2024-11-06T18:00:00	3	Temperatura mínima	16.4
165068	7	Sololá	701	Sololá	2	El tablón	7	Julio	2023-10-07T00:00:00	2024-11-06T18:00:00	5	Humedad	88
165069	7	Sololá	701	Sololá	2	El tablón	7	Julio	2023-10-07T00:00:00	2024-11-06T18:00:00	6	Velocidad del viento	3.2
165070	7	Sololá	701	Sololá	2	El tablón	7	Julio	2023-10-07T00:00:00	2024-11-06T18:00:00	7	Dirección del viento	3.22
165071	7	Sololá	701	Sololá	2	El tablón	7	Julio	2023-10-07T00:00:00	2024-11-06T18:00:00	1	Precipitación	0
165072	7	Sololá	701	Sololá	2	El tablón	7	Julio	2023-10-07T00:00:00	2024-11-06T18:00:00	8	Radiación solar	53
165073	7	Sololá	701	Sololá	2	El tablón	7	Julio	2023-10-07T00:00:00	2024-11-06T19:00:00	2	Temperatura media	16.2
165074	7	Sololá	701	Sololá	2	El tablón	7	Julio	2023-10-07T00:00:00	2024-11-06T19:00:00	4	Temperatura máxima	16.5
165075	7	Sololá	701	Sololá	2	El tablón	7	Julio	2023-10-07T00:00:00	2024-11-06T19:00:00	3	Temperatura mínima	16.2
165076	7	Sololá	701	Sololá	2	El tablón	7	Julio	2023-10-07T00:00:00	2024-11-06T19:00:00	5	Humedad	88
165077	7	Sololá	701	Sololá	2	El tablón	7	Julio	2023-10-07T00:00:00	2024-11-06T19:00:00	6	Velocidad del viento	1.6
165078	7	Sololá	701	Sololá	2	El tablón	7	Julio	2023-10-07T00:00:00	2024-11-06T19:00:00	7	Dirección del viento	1.61
165079	7	Sololá	701	Sololá	2	El tablón	7	Julio	2023-10-07T00:00:00	2024-11-06T19:00:00	1	Precipitación	0
165080	7	Sololá	701	Sololá	2	El tablón	7	Julio	2023-10-07T00:00:00	2024-11-06T19:00:00	8	Radiación solar	0
165081	7	Sololá	701	Sololá	2	El tablón	7	Julio	2023-10-07T00:00:00	2024-11-06T20:00:00	2	Temperatura media	14.9
165082	7	Sololá	701	Sololá	2	El tablón	7	Julio	2023-10-07T00:00:00	2024-11-06T20:00:00	4	Temperatura máxima	16.2
165083	7	Sololá	701	Sololá	2	El tablón	7	Julio	2023-10-07T00:00:00	2024-11-06T20:00:00	3	Temperatura mínima	14.3
165084	7	Sololá	701	Sololá	2	El tablón	7	Julio	2023-10-07T00:00:00	2024-11-06T20:00:00	5	Humedad	78
165085	7	Sololá	701	Sololá	2	El tablón	7	Julio	2023-10-07T00:00:00	2024-11-06T20:00:00	6	Velocidad del viento	11.3
165086	7	Sololá	701	Sololá	2	El tablón	7	Julio	2023-10-07T00:00:00	2024-11-06T20:00:00	7	Dirección del viento	11.27
165087	7	Sololá	701	Sololá	2	El tablón	7	Julio	2023-10-07T00:00:00	2024-11-06T20:00:00	1	Precipitación	0.2
165088	7	Sololá	701	Sololá	2	El tablón	7	Julio	2023-10-07T00:00:00	2024-11-06T20:00:00	8	Radiación solar	0
165089	7	Sololá	701	Sololá	2	El tablón	7	Julio	2023-10-07T00:00:00	2024-11-06T21:00:00	2	Temperatura media	14.2
165090	7	Sololá	701	Sololá	2	El tablón	7	Julio	2023-10-07T00:00:00	2024-11-06T21:00:00	4	Temperatura máxima	14.9
165091	7	Sololá	701	Sololá	2	El tablón	7	Julio	2023-10-07T00:00:00	2024-11-06T21:00:00	3	Temperatura mínima	14.2
165092	7	Sololá	701	Sololá	2	El tablón	7	Julio	2023-10-07T00:00:00	2024-11-06T21:00:00	5	Humedad	87
165093	7	Sololá	701	Sololá	2	El tablón	7	Julio	2023-10-07T00:00:00	2024-11-06T21:00:00	6	Velocidad del viento	8
165094	7	Sololá	701	Sololá	2	El tablón	7	Julio	2023-10-07T00:00:00	2024-11-06T21:00:00	7	Dirección del viento	8.05
165095	7	Sololá	701	Sololá	2	El tablón	7	Julio	2023-10-07T00:00:00	2024-11-06T21:00:00	1	Precipitación	0.6
165096	7	Sololá	701	Sololá	2	El tablón	7	Julio	2023-10-07T00:00:00	2024-11-06T21:00:00	8	Radiación solar	0
165097	7	Sololá	701	Sololá	2	El tablón	7	Julio	2023-10-07T00:00:00	2024-11-06T22:00:00	2	Temperatura media	13.8
165098	7	Sololá	701	Sololá	2	El tablón	7	Julio	2023-10-07T00:00:00	2024-11-06T22:00:00	4	Temperatura máxima	14.2
165099	7	Sololá	701	Sololá	2	El tablón	7	Julio	2023-10-07T00:00:00	2024-11-06T22:00:00	3	Temperatura mínima	13.7
165100	7	Sololá	701	Sololá	2	El tablón	7	Julio	2023-10-07T00:00:00	2024-11-06T22:00:00	5	Humedad	88
165101	7	Sololá	701	Sololá	2	El tablón	7	Julio	2023-10-07T00:00:00	2024-11-06T22:00:00	6	Velocidad del viento	16.1
165102	7	Sololá	701	Sololá	2	El tablón	7	Julio	2023-10-07T00:00:00	2024-11-06T22:00:00	7	Dirección del viento	16.09
165103	7	Sololá	701	Sololá	2	El tablón	7	Julio	2023-10-07T00:00:00	2024-11-06T22:00:00	1	Precipitación	0.8
165104	7	Sololá	701	Sololá	2	El tablón	7	Julio	2023-10-07T00:00:00	2024-11-06T22:00:00	8	Radiación solar	0
165105	7	Sololá	701	Sololá	2	El tablón	7	Julio	2023-10-07T00:00:00	2024-11-06T23:00:00	2	Temperatura media	13.8
165106	7	Sololá	701	Sololá	2	El tablón	7	Julio	2023-10-07T00:00:00	2024-11-06T23:00:00	4	Temperatura máxima	14.1
165107	7	Sololá	701	Sololá	2	El tablón	7	Julio	2023-10-07T00:00:00	2024-11-06T23:00:00	3	Temperatura mínima	13.8
165108	7	Sololá	701	Sololá	2	El tablón	7	Julio	2023-10-07T00:00:00	2024-11-06T23:00:00	5	Humedad	82
165109	7	Sololá	701	Sololá	2	El tablón	7	Julio	2023-10-07T00:00:00	2024-11-06T23:00:00	6	Velocidad del viento	12.9
165110	7	Sololá	701	Sololá	2	El tablón	7	Julio	2023-10-07T00:00:00	2024-11-06T23:00:00	7	Dirección del viento	12.87
165111	7	Sololá	701	Sololá	2	El tablón	7	Julio	2023-10-07T00:00:00	2024-11-06T23:00:00	1	Precipitación	0.2
165112	7	Sololá	701	Sololá	2	El tablón	7	Julio	2023-10-07T00:00:00	2024-11-06T23:00:00	8	Radiación solar	0
165113	7	Sololá	701	Sololá	2	El tablón	7	Julio	2023-11-07T00:00:00	2024-11-06T00:00:00	2	Temperatura media	14.3
165114	7	Sololá	701	Sololá	2	El tablón	7	Julio	2023-11-07T00:00:00	2024-11-06T00:00:00	4	Temperatura máxima	14.3
165115	7	Sololá	701	Sololá	2	El tablón	7	Julio	2023-11-07T00:00:00	2024-11-06T00:00:00	3	Temperatura mínima	13.4
165116	7	Sololá	701	Sololá	2	El tablón	7	Julio	2023-11-07T00:00:00	2024-11-06T00:00:00	5	Humedad	79
165117	7	Sololá	701	Sololá	2	El tablón	7	Julio	2023-11-07T00:00:00	2024-11-06T00:00:00	6	Velocidad del viento	4.8
165118	7	Sololá	701	Sololá	2	El tablón	7	Julio	2023-11-07T00:00:00	2024-11-06T00:00:00	7	Dirección del viento	4.83
165119	7	Sololá	701	Sololá	2	El tablón	7	Julio	2023-11-07T00:00:00	2024-11-06T00:00:00	1	Precipitación	0
165120	7	Sololá	701	Sololá	2	El tablón	7	Julio	2023-11-07T00:00:00	2024-11-06T00:00:00	8	Radiación solar	0
165121	7	Sololá	701	Sololá	2	El tablón	7	Julio	2023-11-07T00:00:00	2024-11-06T01:00:00	2	Temperatura media	14.8
165122	7	Sololá	701	Sololá	2	El tablón	7	Julio	2023-11-07T00:00:00	2024-11-06T01:00:00	4	Temperatura máxima	15.2
165123	7	Sololá	701	Sololá	2	El tablón	7	Julio	2023-11-07T00:00:00	2024-11-06T01:00:00	3	Temperatura mínima	14.3
165124	7	Sololá	701	Sololá	2	El tablón	7	Julio	2023-11-07T00:00:00	2024-11-06T01:00:00	5	Humedad	80
165125	7	Sololá	701	Sololá	2	El tablón	7	Julio	2023-11-07T00:00:00	2024-11-06T01:00:00	6	Velocidad del viento	6.4
165126	7	Sololá	701	Sololá	2	El tablón	7	Julio	2023-11-07T00:00:00	2024-11-06T01:00:00	7	Dirección del viento	6.44
165127	7	Sololá	701	Sololá	2	El tablón	7	Julio	2023-11-07T00:00:00	2024-11-06T01:00:00	1	Precipitación	0
165128	7	Sololá	701	Sololá	2	El tablón	7	Julio	2023-11-07T00:00:00	2024-11-06T01:00:00	8	Radiación solar	0
165129	7	Sololá	701	Sololá	2	El tablón	7	Julio	2023-11-07T00:00:00	2024-11-06T02:00:00	2	Temperatura media	13.8
165130	7	Sololá	701	Sololá	2	El tablón	7	Julio	2023-11-07T00:00:00	2024-11-06T02:00:00	4	Temperatura máxima	14.8
165131	7	Sololá	701	Sololá	2	El tablón	7	Julio	2023-11-07T00:00:00	2024-11-06T02:00:00	3	Temperatura mínima	13.8
165132	7	Sololá	701	Sololá	2	El tablón	7	Julio	2023-11-07T00:00:00	2024-11-06T02:00:00	5	Humedad	84
165133	7	Sololá	701	Sololá	2	El tablón	7	Julio	2023-11-07T00:00:00	2024-11-06T02:00:00	6	Velocidad del viento	11.3
165134	7	Sololá	701	Sololá	2	El tablón	7	Julio	2023-11-07T00:00:00	2024-11-06T02:00:00	7	Dirección del viento	11.27
165135	7	Sololá	701	Sololá	2	El tablón	7	Julio	2023-11-07T00:00:00	2024-11-06T02:00:00	1	Precipitación	0
165136	7	Sololá	701	Sololá	2	El tablón	7	Julio	2023-11-07T00:00:00	2024-11-06T02:00:00	8	Radiación solar	0
165137	7	Sololá	701	Sololá	2	El tablón	7	Julio	2023-11-07T00:00:00	2024-11-06T03:00:00	2	Temperatura media	13.7
165138	7	Sololá	701	Sololá	2	El tablón	7	Julio	2023-11-07T00:00:00	2024-11-06T03:00:00	4	Temperatura máxima	13.8
165139	7	Sololá	701	Sololá	2	El tablón	7	Julio	2023-11-07T00:00:00	2024-11-06T03:00:00	3	Temperatura mínima	13.6
165140	7	Sololá	701	Sololá	2	El tablón	7	Julio	2023-11-07T00:00:00	2024-11-06T03:00:00	5	Humedad	84
165141	7	Sololá	701	Sololá	2	El tablón	7	Julio	2023-11-07T00:00:00	2024-11-06T03:00:00	6	Velocidad del viento	8
165142	7	Sololá	701	Sololá	2	El tablón	7	Julio	2023-11-07T00:00:00	2024-11-06T03:00:00	7	Dirección del viento	8.05
165143	7	Sololá	701	Sololá	2	El tablón	7	Julio	2023-11-07T00:00:00	2024-11-06T03:00:00	1	Precipitación	0
165144	7	Sololá	701	Sololá	2	El tablón	7	Julio	2023-11-07T00:00:00	2024-11-06T03:00:00	8	Radiación solar	0
165145	7	Sololá	701	Sololá	2	El tablón	7	Julio	2023-11-07T00:00:00	2024-11-06T04:00:00	2	Temperatura media	14.7
165146	7	Sololá	701	Sololá	2	El tablón	7	Julio	2023-11-07T00:00:00	2024-11-06T04:00:00	4	Temperatura máxima	14.7
165147	7	Sololá	701	Sololá	2	El tablón	7	Julio	2023-11-07T00:00:00	2024-11-06T04:00:00	3	Temperatura mínima	13.7
165148	7	Sololá	701	Sololá	2	El tablón	7	Julio	2023-11-07T00:00:00	2024-11-06T04:00:00	5	Humedad	77
165149	7	Sololá	701	Sololá	2	El tablón	7	Julio	2023-11-07T00:00:00	2024-11-06T04:00:00	6	Velocidad del viento	4.8
165150	7	Sololá	701	Sololá	2	El tablón	7	Julio	2023-11-07T00:00:00	2024-11-06T04:00:00	7	Dirección del viento	4.83
165151	7	Sololá	701	Sololá	2	El tablón	7	Julio	2023-11-07T00:00:00	2024-11-06T04:00:00	1	Precipitación	0
165152	7	Sololá	701	Sololá	2	El tablón	7	Julio	2023-11-07T00:00:00	2024-11-06T04:00:00	8	Radiación solar	0
165153	7	Sololá	701	Sololá	2	El tablón	7	Julio	2023-11-07T00:00:00	2024-11-06T05:00:00	2	Temperatura media	13.6
165154	7	Sololá	701	Sololá	2	El tablón	7	Julio	2023-11-07T00:00:00	2024-11-06T05:00:00	4	Temperatura máxima	14.7
165155	7	Sololá	701	Sololá	2	El tablón	7	Julio	2023-11-07T00:00:00	2024-11-06T05:00:00	3	Temperatura mínima	13.6
165156	7	Sololá	701	Sololá	2	El tablón	7	Julio	2023-11-07T00:00:00	2024-11-06T05:00:00	5	Humedad	86
165157	7	Sololá	701	Sololá	2	El tablón	7	Julio	2023-11-07T00:00:00	2024-11-06T05:00:00	6	Velocidad del viento	8
165158	7	Sololá	701	Sololá	2	El tablón	7	Julio	2023-11-07T00:00:00	2024-11-06T05:00:00	7	Dirección del viento	8.05
165159	7	Sololá	701	Sololá	2	El tablón	7	Julio	2023-11-07T00:00:00	2024-11-06T05:00:00	1	Precipitación	0
165160	7	Sololá	701	Sololá	2	El tablón	7	Julio	2023-11-07T00:00:00	2024-11-06T05:00:00	8	Radiación solar	0
165161	7	Sololá	701	Sololá	2	El tablón	7	Julio	2023-11-07T00:00:00	2024-11-06T06:00:00	2	Temperatura media	13.6
165162	7	Sololá	701	Sololá	2	El tablón	7	Julio	2023-11-07T00:00:00	2024-11-06T06:00:00	4	Temperatura máxima	13.7
165163	7	Sololá	701	Sololá	2	El tablón	7	Julio	2023-11-07T00:00:00	2024-11-06T06:00:00	3	Temperatura mínima	13.4
165164	7	Sololá	701	Sololá	2	El tablón	7	Julio	2023-11-07T00:00:00	2024-11-06T06:00:00	5	Humedad	87
165165	7	Sololá	701	Sololá	2	El tablón	7	Julio	2023-11-07T00:00:00	2024-11-06T06:00:00	6	Velocidad del viento	8
165166	7	Sololá	701	Sololá	2	El tablón	7	Julio	2023-11-07T00:00:00	2024-11-06T06:00:00	7	Dirección del viento	8.05
165167	7	Sololá	701	Sololá	2	El tablón	7	Julio	2023-11-07T00:00:00	2024-11-06T06:00:00	1	Precipitación	0
165168	7	Sololá	701	Sololá	2	El tablón	7	Julio	2023-11-07T00:00:00	2024-11-06T06:00:00	8	Radiación solar	1
165169	7	Sololá	701	Sololá	2	El tablón	7	Julio	2023-11-07T00:00:00	2024-11-06T07:00:00	2	Temperatura media	13.9
165170	7	Sololá	701	Sololá	2	El tablón	7	Julio	2023-11-07T00:00:00	2024-11-06T07:00:00	4	Temperatura máxima	13.9
165171	7	Sololá	701	Sololá	2	El tablón	7	Julio	2023-11-07T00:00:00	2024-11-06T07:00:00	3	Temperatura mínima	13.4
165172	7	Sololá	701	Sololá	2	El tablón	7	Julio	2023-11-07T00:00:00	2024-11-06T07:00:00	5	Humedad	86
165173	7	Sololá	701	Sololá	2	El tablón	7	Julio	2023-11-07T00:00:00	2024-11-06T07:00:00	6	Velocidad del viento	14.5
165174	7	Sololá	701	Sololá	2	El tablón	7	Julio	2023-11-07T00:00:00	2024-11-06T07:00:00	7	Dirección del viento	14.48
165175	7	Sololá	701	Sololá	2	El tablón	7	Julio	2023-11-07T00:00:00	2024-11-06T07:00:00	1	Precipitación	0
165176	7	Sololá	701	Sololá	2	El tablón	7	Julio	2023-11-07T00:00:00	2024-11-06T07:00:00	8	Radiación solar	53
165177	7	Sololá	701	Sololá	2	El tablón	7	Julio	2023-11-07T00:00:00	2024-11-06T08:00:00	2	Temperatura media	15.1
165178	7	Sololá	701	Sololá	2	El tablón	7	Julio	2023-11-07T00:00:00	2024-11-06T08:00:00	4	Temperatura máxima	15.2
165179	7	Sololá	701	Sololá	2	El tablón	7	Julio	2023-11-07T00:00:00	2024-11-06T08:00:00	3	Temperatura mínima	13.9
165180	7	Sololá	701	Sololá	2	El tablón	7	Julio	2023-11-07T00:00:00	2024-11-06T08:00:00	5	Humedad	83
165181	7	Sololá	701	Sololá	2	El tablón	7	Julio	2023-11-07T00:00:00	2024-11-06T08:00:00	6	Velocidad del viento	11.3
165182	7	Sololá	701	Sololá	2	El tablón	7	Julio	2023-11-07T00:00:00	2024-11-06T08:00:00	7	Dirección del viento	11.27
165183	7	Sololá	701	Sololá	2	El tablón	7	Julio	2023-11-07T00:00:00	2024-11-06T08:00:00	1	Precipitación	0
165184	7	Sololá	701	Sololá	2	El tablón	7	Julio	2023-11-07T00:00:00	2024-11-06T08:00:00	8	Radiación solar	189
165185	7	Sololá	701	Sololá	2	El tablón	7	Julio	2023-11-07T00:00:00	2024-11-06T09:00:00	2	Temperatura media	17.3
165186	7	Sololá	701	Sololá	2	El tablón	7	Julio	2023-11-07T00:00:00	2024-11-06T09:00:00	4	Temperatura máxima	17.3
165187	7	Sololá	701	Sololá	2	El tablón	7	Julio	2023-11-07T00:00:00	2024-11-06T09:00:00	3	Temperatura mínima	15.1
165188	7	Sololá	701	Sololá	2	El tablón	7	Julio	2023-11-07T00:00:00	2024-11-06T09:00:00	5	Humedad	77
165189	7	Sololá	701	Sololá	2	El tablón	7	Julio	2023-11-07T00:00:00	2024-11-06T09:00:00	6	Velocidad del viento	9.7
165190	7	Sololá	701	Sololá	2	El tablón	7	Julio	2023-11-07T00:00:00	2024-11-06T09:00:00	7	Dirección del viento	9.66
165191	7	Sololá	701	Sololá	2	El tablón	7	Julio	2023-11-07T00:00:00	2024-11-06T09:00:00	1	Precipitación	0
165192	7	Sololá	701	Sololá	2	El tablón	7	Julio	2023-11-07T00:00:00	2024-11-06T09:00:00	8	Radiación solar	379
165193	7	Sololá	701	Sololá	2	El tablón	7	Julio	2023-11-07T00:00:00	2024-11-06T10:00:00	2	Temperatura media	18.3
165194	7	Sololá	701	Sololá	2	El tablón	7	Julio	2023-11-07T00:00:00	2024-11-06T10:00:00	4	Temperatura máxima	18.3
165195	7	Sololá	701	Sololá	2	El tablón	7	Julio	2023-11-07T00:00:00	2024-11-06T10:00:00	3	Temperatura mínima	17.3
165196	7	Sololá	701	Sololá	2	El tablón	7	Julio	2023-11-07T00:00:00	2024-11-06T10:00:00	5	Humedad	76
165197	7	Sololá	701	Sololá	2	El tablón	7	Julio	2023-11-07T00:00:00	2024-11-06T10:00:00	6	Velocidad del viento	9.7
165198	7	Sololá	701	Sololá	2	El tablón	7	Julio	2023-11-07T00:00:00	2024-11-06T10:00:00	7	Dirección del viento	9.66
165199	7	Sololá	701	Sololá	2	El tablón	7	Julio	2023-11-07T00:00:00	2024-11-06T10:00:00	1	Precipitación	0.2
165200	7	Sololá	701	Sololá	2	El tablón	7	Julio	2023-11-07T00:00:00	2024-11-06T10:00:00	8	Radiación solar	693
165201	7	Sololá	701	Sololá	2	El tablón	7	Julio	2023-11-07T00:00:00	2024-11-06T11:00:00	2	Temperatura media	19.1
165202	7	Sololá	701	Sololá	2	El tablón	7	Julio	2023-11-07T00:00:00	2024-11-06T11:00:00	4	Temperatura máxima	19.1
165203	7	Sololá	701	Sololá	2	El tablón	7	Julio	2023-11-07T00:00:00	2024-11-06T11:00:00	3	Temperatura mínima	18.3
165204	7	Sololá	701	Sololá	2	El tablón	7	Julio	2023-11-07T00:00:00	2024-11-06T11:00:00	5	Humedad	70
165205	7	Sololá	701	Sololá	2	El tablón	7	Julio	2023-11-07T00:00:00	2024-11-06T11:00:00	6	Velocidad del viento	11.3
165206	7	Sololá	701	Sololá	2	El tablón	7	Julio	2023-11-07T00:00:00	2024-11-06T11:00:00	7	Dirección del viento	11.27
165207	7	Sololá	701	Sololá	2	El tablón	7	Julio	2023-11-07T00:00:00	2024-11-06T11:00:00	1	Precipitación	0
165208	7	Sololá	701	Sololá	2	El tablón	7	Julio	2023-11-07T00:00:00	2024-11-06T11:00:00	8	Radiación solar	863
165209	7	Sololá	701	Sololá	2	El tablón	7	Julio	2023-11-07T00:00:00	2024-11-06T12:00:00	2	Temperatura media	19.1
165210	7	Sololá	701	Sololá	2	El tablón	7	Julio	2023-11-07T00:00:00	2024-11-06T12:00:00	4	Temperatura máxima	19.4
165211	7	Sololá	701	Sololá	2	El tablón	7	Julio	2023-11-07T00:00:00	2024-11-06T12:00:00	3	Temperatura mínima	18.8
165212	7	Sololá	701	Sololá	2	El tablón	7	Julio	2023-11-07T00:00:00	2024-11-06T12:00:00	5	Humedad	72
165213	7	Sololá	701	Sololá	2	El tablón	7	Julio	2023-11-07T00:00:00	2024-11-06T12:00:00	6	Velocidad del viento	9.7
165214	7	Sololá	701	Sololá	2	El tablón	7	Julio	2023-11-07T00:00:00	2024-11-06T12:00:00	7	Dirección del viento	9.66
165215	7	Sololá	701	Sololá	2	El tablón	7	Julio	2023-11-07T00:00:00	2024-11-06T12:00:00	1	Precipitación	0
165216	7	Sololá	701	Sololá	2	El tablón	7	Julio	2023-11-07T00:00:00	2024-11-06T12:00:00	8	Radiación solar	574
165217	7	Sololá	701	Sololá	2	El tablón	7	Julio	2023-11-07T00:00:00	2024-11-06T13:00:00	2	Temperatura media	20.3
165218	7	Sololá	701	Sololá	2	El tablón	7	Julio	2023-11-07T00:00:00	2024-11-06T13:00:00	4	Temperatura máxima	20.3
165219	7	Sololá	701	Sololá	2	El tablón	7	Julio	2023-11-07T00:00:00	2024-11-06T13:00:00	3	Temperatura mínima	19.1
165220	7	Sololá	701	Sololá	2	El tablón	7	Julio	2023-11-07T00:00:00	2024-11-06T13:00:00	5	Humedad	68
165221	7	Sololá	701	Sololá	2	El tablón	7	Julio	2023-11-07T00:00:00	2024-11-06T13:00:00	6	Velocidad del viento	9.7
165222	7	Sololá	701	Sololá	2	El tablón	7	Julio	2023-11-07T00:00:00	2024-11-06T13:00:00	7	Dirección del viento	9.66
165223	7	Sololá	701	Sololá	2	El tablón	7	Julio	2023-11-07T00:00:00	2024-11-06T13:00:00	1	Precipitación	0
165224	7	Sololá	701	Sololá	2	El tablón	7	Julio	2023-11-07T00:00:00	2024-11-06T13:00:00	8	Radiación solar	651
165225	7	Sololá	701	Sololá	2	El tablón	7	Julio	2023-11-07T00:00:00	2024-11-06T14:00:00	2	Temperatura media	19.8
165226	7	Sololá	701	Sololá	2	El tablón	7	Julio	2023-11-07T00:00:00	2024-11-06T14:00:00	4	Temperatura máxima	20.8
165227	7	Sololá	701	Sololá	2	El tablón	7	Julio	2023-11-07T00:00:00	2024-11-06T14:00:00	3	Temperatura mínima	19.8
165228	7	Sololá	701	Sololá	2	El tablón	7	Julio	2023-11-07T00:00:00	2024-11-06T14:00:00	5	Humedad	67
165229	7	Sololá	701	Sololá	2	El tablón	7	Julio	2023-11-07T00:00:00	2024-11-06T14:00:00	6	Velocidad del viento	9.7
165230	7	Sololá	701	Sololá	2	El tablón	7	Julio	2023-11-07T00:00:00	2024-11-06T14:00:00	7	Dirección del viento	9.66
165231	7	Sololá	701	Sololá	2	El tablón	7	Julio	2023-11-07T00:00:00	2024-11-06T14:00:00	1	Precipitación	0
165232	7	Sololá	701	Sololá	2	El tablón	7	Julio	2023-11-07T00:00:00	2024-11-06T14:00:00	8	Radiación solar	561
165233	7	Sololá	701	Sololá	2	El tablón	7	Julio	2023-11-07T00:00:00	2024-11-06T15:00:00	2	Temperatura media	20.8
165234	7	Sololá	701	Sololá	2	El tablón	7	Julio	2023-11-07T00:00:00	2024-11-06T15:00:00	4	Temperatura máxima	20.8
165235	7	Sololá	701	Sololá	2	El tablón	7	Julio	2023-11-07T00:00:00	2024-11-06T15:00:00	3	Temperatura mínima	19.7
165236	7	Sololá	701	Sololá	2	El tablón	7	Julio	2023-11-07T00:00:00	2024-11-06T15:00:00	5	Humedad	65
165237	7	Sololá	701	Sololá	2	El tablón	7	Julio	2023-11-07T00:00:00	2024-11-06T15:00:00	6	Velocidad del viento	11.3
165238	7	Sololá	701	Sololá	2	El tablón	7	Julio	2023-11-07T00:00:00	2024-11-06T15:00:00	7	Dirección del viento	11.27
165239	7	Sololá	701	Sololá	2	El tablón	7	Julio	2023-11-07T00:00:00	2024-11-06T15:00:00	1	Precipitación	0
165240	7	Sololá	701	Sololá	2	El tablón	7	Julio	2023-11-07T00:00:00	2024-11-06T15:00:00	8	Radiación solar	773
165241	7	Sololá	701	Sololá	2	El tablón	7	Julio	2023-11-07T00:00:00	2024-11-06T16:00:00	2	Temperatura media	19.7
165242	7	Sololá	701	Sololá	2	El tablón	7	Julio	2023-11-07T00:00:00	2024-11-06T16:00:00	4	Temperatura máxima	21
165243	7	Sololá	701	Sololá	2	El tablón	7	Julio	2023-11-07T00:00:00	2024-11-06T16:00:00	3	Temperatura mínima	19.2
165244	7	Sololá	701	Sololá	2	El tablón	7	Julio	2023-11-07T00:00:00	2024-11-06T16:00:00	5	Humedad	72
165245	7	Sololá	701	Sololá	2	El tablón	7	Julio	2023-11-07T00:00:00	2024-11-06T16:00:00	6	Velocidad del viento	9.7
165246	7	Sololá	701	Sololá	2	El tablón	7	Julio	2023-11-07T00:00:00	2024-11-06T16:00:00	7	Dirección del viento	9.66
165247	7	Sololá	701	Sololá	2	El tablón	7	Julio	2023-11-07T00:00:00	2024-11-06T16:00:00	1	Precipitación	0
165248	7	Sololá	701	Sololá	2	El tablón	7	Julio	2023-11-07T00:00:00	2024-11-06T16:00:00	8	Radiación solar	544
165249	7	Sololá	701	Sololá	2	El tablón	7	Julio	2023-11-07T00:00:00	2024-11-06T17:00:00	2	Temperatura media	18.6
165250	7	Sololá	701	Sololá	2	El tablón	7	Julio	2023-11-07T00:00:00	2024-11-06T17:00:00	4	Temperatura máxima	19.9
165251	7	Sololá	701	Sololá	2	El tablón	7	Julio	2023-11-07T00:00:00	2024-11-06T17:00:00	3	Temperatura mínima	18.4
165252	7	Sololá	701	Sololá	2	El tablón	7	Julio	2023-11-07T00:00:00	2024-11-06T17:00:00	5	Humedad	76
165253	7	Sololá	701	Sololá	2	El tablón	7	Julio	2023-11-07T00:00:00	2024-11-06T17:00:00	6	Velocidad del viento	11.3
165254	7	Sololá	701	Sololá	2	El tablón	7	Julio	2023-11-07T00:00:00	2024-11-06T17:00:00	7	Dirección del viento	11.27
165255	7	Sololá	701	Sololá	2	El tablón	7	Julio	2023-11-07T00:00:00	2024-11-06T17:00:00	1	Precipitación	0
165256	7	Sololá	701	Sololá	2	El tablón	7	Julio	2023-11-07T00:00:00	2024-11-06T17:00:00	8	Radiación solar	376
165257	7	Sololá	701	Sololá	2	El tablón	7	Julio	2023-11-07T00:00:00	2024-11-06T18:00:00	2	Temperatura media	16.8
165258	7	Sololá	701	Sololá	2	El tablón	7	Julio	2023-11-07T00:00:00	2024-11-06T18:00:00	4	Temperatura máxima	18.6
165259	7	Sololá	701	Sololá	2	El tablón	7	Julio	2023-11-07T00:00:00	2024-11-06T18:00:00	3	Temperatura mínima	16.8
165260	7	Sololá	701	Sololá	2	El tablón	7	Julio	2023-11-07T00:00:00	2024-11-06T18:00:00	5	Humedad	79
165261	7	Sololá	701	Sololá	2	El tablón	7	Julio	2023-11-07T00:00:00	2024-11-06T18:00:00	6	Velocidad del viento	9.7
165262	7	Sololá	701	Sololá	2	El tablón	7	Julio	2023-11-07T00:00:00	2024-11-06T18:00:00	7	Dirección del viento	9.66
165263	7	Sololá	701	Sololá	2	El tablón	7	Julio	2023-11-07T00:00:00	2024-11-06T18:00:00	1	Precipitación	0
165264	7	Sololá	701	Sololá	2	El tablón	7	Julio	2023-11-07T00:00:00	2024-11-06T18:00:00	8	Radiación solar	58
165265	7	Sololá	701	Sololá	2	El tablón	7	Julio	2023-11-07T00:00:00	2024-11-06T19:00:00	2	Temperatura media	16
165266	7	Sololá	701	Sololá	2	El tablón	7	Julio	2023-11-07T00:00:00	2024-11-06T19:00:00	4	Temperatura máxima	16.8
165267	7	Sololá	701	Sololá	2	El tablón	7	Julio	2023-11-07T00:00:00	2024-11-06T19:00:00	3	Temperatura mínima	16
165268	7	Sololá	701	Sololá	2	El tablón	7	Julio	2023-11-07T00:00:00	2024-11-06T19:00:00	5	Humedad	81
165269	7	Sololá	701	Sololá	2	El tablón	7	Julio	2023-11-07T00:00:00	2024-11-06T19:00:00	6	Velocidad del viento	4.8
165270	7	Sololá	701	Sololá	2	El tablón	7	Julio	2023-11-07T00:00:00	2024-11-06T19:00:00	7	Dirección del viento	4.83
165271	7	Sololá	701	Sololá	2	El tablón	7	Julio	2023-11-07T00:00:00	2024-11-06T19:00:00	1	Precipitación	0
165272	7	Sololá	701	Sololá	2	El tablón	7	Julio	2023-11-07T00:00:00	2024-11-06T19:00:00	8	Radiación solar	0
165273	7	Sololá	701	Sololá	2	El tablón	7	Julio	2023-11-07T00:00:00	2024-11-06T20:00:00	2	Temperatura media	15.4
165274	7	Sololá	701	Sololá	2	El tablón	7	Julio	2023-11-07T00:00:00	2024-11-06T20:00:00	4	Temperatura máxima	16
165275	7	Sololá	701	Sololá	2	El tablón	7	Julio	2023-11-07T00:00:00	2024-11-06T20:00:00	3	Temperatura mínima	15.4
165276	7	Sololá	701	Sololá	2	El tablón	7	Julio	2023-11-07T00:00:00	2024-11-06T20:00:00	5	Humedad	84
165277	7	Sololá	701	Sololá	2	El tablón	7	Julio	2023-11-07T00:00:00	2024-11-06T20:00:00	6	Velocidad del viento	8
165278	7	Sololá	701	Sololá	2	El tablón	7	Julio	2023-11-07T00:00:00	2024-11-06T20:00:00	7	Dirección del viento	8.05
165279	7	Sololá	701	Sololá	2	El tablón	7	Julio	2023-11-07T00:00:00	2024-11-06T20:00:00	1	Precipitación	0
165280	7	Sololá	701	Sololá	2	El tablón	7	Julio	2023-11-07T00:00:00	2024-11-06T20:00:00	8	Radiación solar	0
165281	7	Sololá	701	Sololá	2	El tablón	7	Julio	2023-11-07T00:00:00	2024-11-06T21:00:00	2	Temperatura media	15.1
165282	7	Sololá	701	Sololá	2	El tablón	7	Julio	2023-11-07T00:00:00	2024-11-06T21:00:00	4	Temperatura máxima	15.4
165283	7	Sololá	701	Sololá	2	El tablón	7	Julio	2023-11-07T00:00:00	2024-11-06T21:00:00	3	Temperatura mínima	15.1
165284	7	Sololá	701	Sololá	2	El tablón	7	Julio	2023-11-07T00:00:00	2024-11-06T21:00:00	5	Humedad	85
165285	7	Sololá	701	Sololá	2	El tablón	7	Julio	2023-11-07T00:00:00	2024-11-06T21:00:00	6	Velocidad del viento	14.5
165286	7	Sololá	701	Sololá	2	El tablón	7	Julio	2023-11-07T00:00:00	2024-11-06T21:00:00	7	Dirección del viento	14.48
165287	7	Sololá	701	Sololá	2	El tablón	7	Julio	2023-11-07T00:00:00	2024-11-06T21:00:00	1	Precipitación	0
165288	7	Sololá	701	Sololá	2	El tablón	7	Julio	2023-11-07T00:00:00	2024-11-06T21:00:00	8	Radiación solar	0
165289	7	Sololá	701	Sololá	2	El tablón	7	Julio	2023-11-07T00:00:00	2024-11-06T22:00:00	2	Temperatura media	15.2
165290	7	Sololá	701	Sololá	2	El tablón	7	Julio	2023-11-07T00:00:00	2024-11-06T22:00:00	4	Temperatura máxima	15.2
165291	7	Sololá	701	Sololá	2	El tablón	7	Julio	2023-11-07T00:00:00	2024-11-06T22:00:00	3	Temperatura mínima	15.1
165292	7	Sololá	701	Sololá	2	El tablón	7	Julio	2023-11-07T00:00:00	2024-11-06T22:00:00	5	Humedad	84
165293	7	Sololá	701	Sololá	2	El tablón	7	Julio	2023-11-07T00:00:00	2024-11-06T22:00:00	6	Velocidad del viento	11.3
165294	7	Sololá	701	Sololá	2	El tablón	7	Julio	2023-11-07T00:00:00	2024-11-06T22:00:00	7	Dirección del viento	11.27
165295	7	Sololá	701	Sololá	2	El tablón	7	Julio	2023-11-07T00:00:00	2024-11-06T22:00:00	1	Precipitación	0
165296	7	Sololá	701	Sololá	2	El tablón	7	Julio	2023-11-07T00:00:00	2024-11-06T22:00:00	8	Radiación solar	0
165297	7	Sololá	701	Sololá	2	El tablón	7	Julio	2023-11-07T00:00:00	2024-11-06T23:00:00	2	Temperatura media	14.8
165298	7	Sololá	701	Sololá	2	El tablón	7	Julio	2023-11-07T00:00:00	2024-11-06T23:00:00	4	Temperatura máxima	15.2
165299	7	Sololá	701	Sololá	2	El tablón	7	Julio	2023-11-07T00:00:00	2024-11-06T23:00:00	3	Temperatura mínima	14.7
165300	7	Sololá	701	Sololá	2	El tablón	7	Julio	2023-11-07T00:00:00	2024-11-06T23:00:00	5	Humedad	85
165301	7	Sololá	701	Sololá	2	El tablón	7	Julio	2023-11-07T00:00:00	2024-11-06T23:00:00	6	Velocidad del viento	12.9
165302	7	Sololá	701	Sololá	2	El tablón	7	Julio	2023-11-07T00:00:00	2024-11-06T23:00:00	7	Dirección del viento	12.87
165303	7	Sololá	701	Sololá	2	El tablón	7	Julio	2023-11-07T00:00:00	2024-11-06T23:00:00	1	Precipitación	0
165304	7	Sololá	701	Sololá	2	El tablón	7	Julio	2023-11-07T00:00:00	2024-11-06T23:00:00	8	Radiación solar	0
165305	7	Sololá	701	Sololá	2	El tablón	7	Julio	2023-12-07T00:00:00	2024-11-06T00:00:00	2	Temperatura media	14.4
165306	7	Sololá	701	Sololá	2	El tablón	7	Julio	2023-12-07T00:00:00	2024-11-06T00:00:00	4	Temperatura máxima	14.8
165307	7	Sololá	701	Sololá	2	El tablón	7	Julio	2023-12-07T00:00:00	2024-11-06T00:00:00	3	Temperatura mínima	14.3
165308	7	Sololá	701	Sololá	2	El tablón	7	Julio	2023-12-07T00:00:00	2024-11-06T00:00:00	5	Humedad	86
165309	7	Sololá	701	Sololá	2	El tablón	7	Julio	2023-12-07T00:00:00	2024-11-06T00:00:00	6	Velocidad del viento	16.1
165310	7	Sololá	701	Sololá	2	El tablón	7	Julio	2023-12-07T00:00:00	2024-11-06T00:00:00	7	Dirección del viento	16.09
165311	7	Sololá	701	Sololá	2	El tablón	7	Julio	2023-12-07T00:00:00	2024-11-06T00:00:00	1	Precipitación	0
165312	7	Sololá	701	Sololá	2	El tablón	7	Julio	2023-12-07T00:00:00	2024-11-06T00:00:00	8	Radiación solar	0
165313	7	Sololá	701	Sololá	2	El tablón	7	Julio	2023-12-07T00:00:00	2024-11-06T01:00:00	2	Temperatura media	14.2
165314	7	Sololá	701	Sololá	2	El tablón	7	Julio	2023-12-07T00:00:00	2024-11-06T01:00:00	4	Temperatura máxima	14.5
165315	7	Sololá	701	Sololá	2	El tablón	7	Julio	2023-12-07T00:00:00	2024-11-06T01:00:00	3	Temperatura mínima	14
165316	7	Sololá	701	Sololá	2	El tablón	7	Julio	2023-12-07T00:00:00	2024-11-06T01:00:00	5	Humedad	85
165317	7	Sololá	701	Sololá	2	El tablón	7	Julio	2023-12-07T00:00:00	2024-11-06T01:00:00	6	Velocidad del viento	12.9
165318	7	Sololá	701	Sololá	2	El tablón	7	Julio	2023-12-07T00:00:00	2024-11-06T01:00:00	7	Dirección del viento	12.87
165319	7	Sololá	701	Sololá	2	El tablón	7	Julio	2023-12-07T00:00:00	2024-11-06T01:00:00	1	Precipitación	0
165320	7	Sololá	701	Sololá	2	El tablón	7	Julio	2023-12-07T00:00:00	2024-11-06T01:00:00	8	Radiación solar	0
165321	7	Sololá	701	Sololá	2	El tablón	7	Julio	2023-12-07T00:00:00	2024-11-06T02:00:00	2	Temperatura media	13.9
165322	7	Sololá	701	Sololá	2	El tablón	7	Julio	2023-12-07T00:00:00	2024-11-06T02:00:00	4	Temperatura máxima	14.7
165323	7	Sololá	701	Sololá	2	El tablón	7	Julio	2023-12-07T00:00:00	2024-11-06T02:00:00	3	Temperatura mínima	13.9
165324	7	Sololá	701	Sololá	2	El tablón	7	Julio	2023-12-07T00:00:00	2024-11-06T02:00:00	5	Humedad	86
165325	7	Sololá	701	Sololá	2	El tablón	7	Julio	2023-12-07T00:00:00	2024-11-06T02:00:00	6	Velocidad del viento	8
165326	7	Sololá	701	Sololá	2	El tablón	7	Julio	2023-12-07T00:00:00	2024-11-06T02:00:00	7	Dirección del viento	8.05
165327	7	Sololá	701	Sololá	2	El tablón	7	Julio	2023-12-07T00:00:00	2024-11-06T02:00:00	1	Precipitación	0
165328	7	Sololá	701	Sololá	2	El tablón	7	Julio	2023-12-07T00:00:00	2024-11-06T02:00:00	8	Radiación solar	0
165329	7	Sololá	701	Sololá	2	El tablón	7	Julio	2023-12-07T00:00:00	2024-11-06T03:00:00	2	Temperatura media	13.6
165330	7	Sololá	701	Sololá	2	El tablón	7	Julio	2023-12-07T00:00:00	2024-11-06T03:00:00	4	Temperatura máxima	13.9
165331	7	Sololá	701	Sololá	2	El tablón	7	Julio	2023-12-07T00:00:00	2024-11-06T03:00:00	3	Temperatura mínima	13.5
165332	7	Sololá	701	Sololá	2	El tablón	7	Julio	2023-12-07T00:00:00	2024-11-06T03:00:00	5	Humedad	87
165333	7	Sololá	701	Sololá	2	El tablón	7	Julio	2023-12-07T00:00:00	2024-11-06T03:00:00	6	Velocidad del viento	12.9
165334	7	Sololá	701	Sololá	2	El tablón	7	Julio	2023-12-07T00:00:00	2024-11-06T03:00:00	7	Dirección del viento	12.87
165335	7	Sololá	701	Sololá	2	El tablón	7	Julio	2023-12-07T00:00:00	2024-11-06T03:00:00	1	Precipitación	0
165336	7	Sololá	701	Sololá	2	El tablón	7	Julio	2023-12-07T00:00:00	2024-11-06T03:00:00	8	Radiación solar	0
165337	7	Sololá	701	Sololá	2	El tablón	7	Julio	2023-12-07T00:00:00	2024-11-06T04:00:00	2	Temperatura media	13.6
165338	7	Sololá	701	Sololá	2	El tablón	7	Julio	2023-12-07T00:00:00	2024-11-06T04:00:00	4	Temperatura máxima	13.7
165339	7	Sololá	701	Sololá	2	El tablón	7	Julio	2023-12-07T00:00:00	2024-11-06T04:00:00	3	Temperatura mínima	13.6
165340	7	Sololá	701	Sololá	2	El tablón	7	Julio	2023-12-07T00:00:00	2024-11-06T04:00:00	5	Humedad	88
165341	7	Sololá	701	Sololá	2	El tablón	7	Julio	2023-12-07T00:00:00	2024-11-06T04:00:00	6	Velocidad del viento	8
165342	7	Sololá	701	Sololá	2	El tablón	7	Julio	2023-12-07T00:00:00	2024-11-06T04:00:00	7	Dirección del viento	8.05
165343	7	Sololá	701	Sololá	2	El tablón	7	Julio	2023-12-07T00:00:00	2024-11-06T04:00:00	1	Precipitación	0
165344	7	Sololá	701	Sololá	2	El tablón	7	Julio	2023-12-07T00:00:00	2024-11-06T04:00:00	8	Radiación solar	0
165345	7	Sololá	701	Sololá	2	El tablón	7	Julio	2023-12-07T00:00:00	2024-11-06T05:00:00	2	Temperatura media	13.5
165346	7	Sololá	701	Sololá	2	El tablón	7	Julio	2023-12-07T00:00:00	2024-11-06T05:00:00	4	Temperatura máxima	13.6
165347	7	Sololá	701	Sololá	2	El tablón	7	Julio	2023-12-07T00:00:00	2024-11-06T05:00:00	3	Temperatura mínima	13.5
165348	7	Sololá	701	Sololá	2	El tablón	7	Julio	2023-12-07T00:00:00	2024-11-06T05:00:00	5	Humedad	88
165349	7	Sololá	701	Sololá	2	El tablón	7	Julio	2023-12-07T00:00:00	2024-11-06T05:00:00	6	Velocidad del viento	16.1
165350	7	Sololá	701	Sololá	2	El tablón	7	Julio	2023-12-07T00:00:00	2024-11-06T05:00:00	7	Dirección del viento	16.09
165351	7	Sololá	701	Sololá	2	El tablón	7	Julio	2023-12-07T00:00:00	2024-11-06T05:00:00	1	Precipitación	0
165352	7	Sololá	701	Sololá	2	El tablón	7	Julio	2023-12-07T00:00:00	2024-11-06T05:00:00	8	Radiación solar	0
165353	7	Sololá	701	Sololá	2	El tablón	7	Julio	2023-12-07T00:00:00	2024-11-06T06:00:00	2	Temperatura media	13
165354	7	Sololá	701	Sololá	2	El tablón	7	Julio	2023-12-07T00:00:00	2024-11-06T06:00:00	4	Temperatura máxima	13.6
165355	7	Sololá	701	Sololá	2	El tablón	7	Julio	2023-12-07T00:00:00	2024-11-06T06:00:00	3	Temperatura mínima	13
165356	7	Sololá	701	Sololá	2	El tablón	7	Julio	2023-12-07T00:00:00	2024-11-06T06:00:00	5	Humedad	88
165357	7	Sololá	701	Sololá	2	El tablón	7	Julio	2023-12-07T00:00:00	2024-11-06T06:00:00	6	Velocidad del viento	16.1
165358	7	Sololá	701	Sololá	2	El tablón	7	Julio	2023-12-07T00:00:00	2024-11-06T06:00:00	7	Dirección del viento	16.09
165359	7	Sololá	701	Sololá	2	El tablón	7	Julio	2023-12-07T00:00:00	2024-11-06T06:00:00	1	Precipitación	0
165360	7	Sololá	701	Sololá	2	El tablón	7	Julio	2023-12-07T00:00:00	2024-11-06T06:00:00	8	Radiación solar	2
165361	7	Sololá	701	Sololá	2	El tablón	7	Julio	2023-12-07T00:00:00	2024-11-06T07:00:00	2	Temperatura media	13.5
165362	7	Sololá	701	Sololá	2	El tablón	7	Julio	2023-12-07T00:00:00	2024-11-06T07:00:00	4	Temperatura máxima	13.5
165363	7	Sololá	701	Sololá	2	El tablón	7	Julio	2023-12-07T00:00:00	2024-11-06T07:00:00	3	Temperatura mínima	13
165364	7	Sololá	701	Sololá	2	El tablón	7	Julio	2023-12-07T00:00:00	2024-11-06T07:00:00	5	Humedad	86
165365	7	Sololá	701	Sololá	2	El tablón	7	Julio	2023-12-07T00:00:00	2024-11-06T07:00:00	6	Velocidad del viento	14.5
165366	7	Sololá	701	Sololá	2	El tablón	7	Julio	2023-12-07T00:00:00	2024-11-06T07:00:00	7	Dirección del viento	14.48
165367	7	Sololá	701	Sololá	2	El tablón	7	Julio	2023-12-07T00:00:00	2024-11-06T07:00:00	1	Precipitación	0
165368	7	Sololá	701	Sololá	2	El tablón	7	Julio	2023-12-07T00:00:00	2024-11-06T07:00:00	8	Radiación solar	96
165369	7	Sololá	701	Sololá	2	El tablón	7	Julio	2023-12-07T00:00:00	2024-11-06T08:00:00	2	Temperatura media	14.5
165370	7	Sololá	701	Sololá	2	El tablón	7	Julio	2023-12-07T00:00:00	2024-11-06T08:00:00	4	Temperatura máxima	14.5
165371	7	Sololá	701	Sololá	2	El tablón	7	Julio	2023-12-07T00:00:00	2024-11-06T08:00:00	3	Temperatura mínima	13.5
165372	7	Sololá	701	Sololá	2	El tablón	7	Julio	2023-12-07T00:00:00	2024-11-06T08:00:00	5	Humedad	85
165373	7	Sololá	701	Sololá	2	El tablón	7	Julio	2023-12-07T00:00:00	2024-11-06T08:00:00	6	Velocidad del viento	16.1
165374	7	Sololá	701	Sololá	2	El tablón	7	Julio	2023-12-07T00:00:00	2024-11-06T08:00:00	7	Dirección del viento	16.09
165375	7	Sololá	701	Sololá	2	El tablón	7	Julio	2023-12-07T00:00:00	2024-11-06T08:00:00	1	Precipitación	0
165376	7	Sololá	701	Sololá	2	El tablón	7	Julio	2023-12-07T00:00:00	2024-11-06T08:00:00	8	Radiación solar	302
165377	7	Sololá	701	Sololá	2	El tablón	7	Julio	2023-12-07T00:00:00	2024-11-06T09:00:00	2	Temperatura media	16.3
165378	7	Sololá	701	Sololá	2	El tablón	7	Julio	2023-12-07T00:00:00	2024-11-06T09:00:00	4	Temperatura máxima	16.3
165379	7	Sololá	701	Sololá	2	El tablón	7	Julio	2023-12-07T00:00:00	2024-11-06T09:00:00	3	Temperatura mínima	14.5
165380	7	Sololá	701	Sololá	2	El tablón	7	Julio	2023-12-07T00:00:00	2024-11-06T09:00:00	5	Humedad	80
165381	7	Sololá	701	Sololá	2	El tablón	7	Julio	2023-12-07T00:00:00	2024-11-06T09:00:00	6	Velocidad del viento	11.3
165382	7	Sololá	701	Sololá	2	El tablón	7	Julio	2023-12-07T00:00:00	2024-11-06T09:00:00	7	Dirección del viento	11.27
165383	7	Sololá	701	Sololá	2	El tablón	7	Julio	2023-12-07T00:00:00	2024-11-06T09:00:00	1	Precipitación	0
165384	7	Sololá	701	Sololá	2	El tablón	7	Julio	2023-12-07T00:00:00	2024-11-06T09:00:00	8	Radiación solar	481
165385	7	Sololá	701	Sololá	2	El tablón	7	Julio	2023-12-07T00:00:00	2024-11-06T10:00:00	2	Temperatura media	17.7
165386	7	Sololá	701	Sololá	2	El tablón	7	Julio	2023-12-07T00:00:00	2024-11-06T10:00:00	4	Temperatura máxima	17.8
165387	7	Sololá	701	Sololá	2	El tablón	7	Julio	2023-12-07T00:00:00	2024-11-06T10:00:00	3	Temperatura mínima	16.3
165388	7	Sololá	701	Sololá	2	El tablón	7	Julio	2023-12-07T00:00:00	2024-11-06T10:00:00	5	Humedad	74
165389	7	Sololá	701	Sololá	2	El tablón	7	Julio	2023-12-07T00:00:00	2024-11-06T10:00:00	6	Velocidad del viento	11.3
165390	7	Sololá	701	Sololá	2	El tablón	7	Julio	2023-12-07T00:00:00	2024-11-06T10:00:00	7	Dirección del viento	11.27
165391	7	Sololá	701	Sololá	2	El tablón	7	Julio	2023-12-07T00:00:00	2024-11-06T10:00:00	1	Precipitación	0
165392	7	Sololá	701	Sololá	2	El tablón	7	Julio	2023-12-07T00:00:00	2024-11-06T10:00:00	8	Radiación solar	661
165393	7	Sololá	701	Sololá	2	El tablón	7	Julio	2023-12-07T00:00:00	2024-11-06T11:00:00	2	Temperatura media	18.6
165394	7	Sololá	701	Sololá	2	El tablón	7	Julio	2023-12-07T00:00:00	2024-11-06T11:00:00	4	Temperatura máxima	18.7
165395	7	Sololá	701	Sololá	2	El tablón	7	Julio	2023-12-07T00:00:00	2024-11-06T11:00:00	3	Temperatura mínima	17.6
165396	7	Sololá	701	Sololá	2	El tablón	7	Julio	2023-12-07T00:00:00	2024-11-06T11:00:00	5	Humedad	73
165397	7	Sololá	701	Sololá	2	El tablón	7	Julio	2023-12-07T00:00:00	2024-11-06T11:00:00	6	Velocidad del viento	9.7
165398	7	Sololá	701	Sololá	2	El tablón	7	Julio	2023-12-07T00:00:00	2024-11-06T11:00:00	7	Dirección del viento	9.66
165399	7	Sololá	701	Sololá	2	El tablón	7	Julio	2023-12-07T00:00:00	2024-11-06T11:00:00	1	Precipitación	0
165400	7	Sololá	701	Sololá	2	El tablón	7	Julio	2023-12-07T00:00:00	2024-11-06T11:00:00	8	Radiación solar	738
165401	7	Sololá	701	Sololá	2	El tablón	7	Julio	2023-12-07T00:00:00	2024-11-06T12:00:00	2	Temperatura media	19.4
165402	7	Sololá	701	Sololá	2	El tablón	7	Julio	2023-12-07T00:00:00	2024-11-06T12:00:00	4	Temperatura máxima	19.4
165403	7	Sololá	701	Sololá	2	El tablón	7	Julio	2023-12-07T00:00:00	2024-11-06T12:00:00	3	Temperatura mínima	18.4
165404	7	Sololá	701	Sololá	2	El tablón	7	Julio	2023-12-07T00:00:00	2024-11-06T12:00:00	5	Humedad	67
165405	7	Sololá	701	Sololá	2	El tablón	7	Julio	2023-12-07T00:00:00	2024-11-06T12:00:00	6	Velocidad del viento	9.7
165406	7	Sololá	701	Sololá	2	El tablón	7	Julio	2023-12-07T00:00:00	2024-11-06T12:00:00	7	Dirección del viento	9.66
165407	7	Sololá	701	Sololá	2	El tablón	7	Julio	2023-12-07T00:00:00	2024-11-06T12:00:00	1	Precipitación	0
165408	7	Sololá	701	Sololá	2	El tablón	7	Julio	2023-12-07T00:00:00	2024-11-06T12:00:00	8	Radiación solar	664
165409	7	Sololá	701	Sololá	2	El tablón	7	Julio	2023-12-07T00:00:00	2024-11-06T13:00:00	2	Temperatura media	20.2
165410	7	Sololá	701	Sololá	2	El tablón	7	Julio	2023-12-07T00:00:00	2024-11-06T13:00:00	4	Temperatura máxima	20.2
165411	7	Sololá	701	Sololá	2	El tablón	7	Julio	2023-12-07T00:00:00	2024-11-06T13:00:00	3	Temperatura mínima	19.4
165412	7	Sololá	701	Sololá	2	El tablón	7	Julio	2023-12-07T00:00:00	2024-11-06T13:00:00	5	Humedad	62
165413	7	Sololá	701	Sololá	2	El tablón	7	Julio	2023-12-07T00:00:00	2024-11-06T13:00:00	6	Velocidad del viento	9.7
165414	7	Sololá	701	Sololá	2	El tablón	7	Julio	2023-12-07T00:00:00	2024-11-06T13:00:00	7	Dirección del viento	9.66
165415	7	Sololá	701	Sololá	2	El tablón	7	Julio	2023-12-07T00:00:00	2024-11-06T13:00:00	1	Precipitación	0
165416	7	Sololá	701	Sololá	2	El tablón	7	Julio	2023-12-07T00:00:00	2024-11-06T13:00:00	8	Radiación solar	866
165417	7	Sololá	701	Sololá	2	El tablón	7	Julio	2023-12-07T00:00:00	2024-11-06T14:00:00	2	Temperatura media	20.3
165418	7	Sololá	701	Sololá	2	El tablón	7	Julio	2023-12-07T00:00:00	2024-11-06T14:00:00	4	Temperatura máxima	20.9
165419	7	Sololá	701	Sololá	2	El tablón	7	Julio	2023-12-07T00:00:00	2024-11-06T14:00:00	3	Temperatura mínima	20.2
165420	7	Sololá	701	Sololá	2	El tablón	7	Julio	2023-12-07T00:00:00	2024-11-06T14:00:00	5	Humedad	63
165421	7	Sololá	701	Sololá	2	El tablón	7	Julio	2023-12-07T00:00:00	2024-11-06T14:00:00	6	Velocidad del viento	9.7
165422	7	Sololá	701	Sololá	2	El tablón	7	Julio	2023-12-07T00:00:00	2024-11-06T14:00:00	7	Dirección del viento	9.66
165423	7	Sololá	701	Sololá	2	El tablón	7	Julio	2023-12-07T00:00:00	2024-11-06T14:00:00	1	Precipitación	0
165424	7	Sololá	701	Sololá	2	El tablón	7	Julio	2023-12-07T00:00:00	2024-11-06T14:00:00	8	Radiación solar	922
165425	7	Sololá	701	Sololá	2	El tablón	7	Julio	2023-12-07T00:00:00	2024-11-06T15:00:00	2	Temperatura media	20.1
165426	7	Sololá	701	Sololá	2	El tablón	7	Julio	2023-12-07T00:00:00	2024-11-06T15:00:00	4	Temperatura máxima	20.6
165427	7	Sololá	701	Sololá	2	El tablón	7	Julio	2023-12-07T00:00:00	2024-11-06T15:00:00	3	Temperatura mínima	20.1
165428	7	Sololá	701	Sololá	2	El tablón	7	Julio	2023-12-07T00:00:00	2024-11-06T15:00:00	5	Humedad	63
165429	7	Sololá	701	Sololá	2	El tablón	7	Julio	2023-12-07T00:00:00	2024-11-06T15:00:00	6	Velocidad del viento	8
165430	7	Sololá	701	Sololá	2	El tablón	7	Julio	2023-12-07T00:00:00	2024-11-06T15:00:00	7	Dirección del viento	8.05
165431	7	Sololá	701	Sololá	2	El tablón	7	Julio	2023-12-07T00:00:00	2024-11-06T15:00:00	1	Precipitación	0
165432	7	Sololá	701	Sololá	2	El tablón	7	Julio	2023-12-07T00:00:00	2024-11-06T15:00:00	8	Radiación solar	619
165433	7	Sololá	701	Sololá	2	El tablón	7	Julio	2023-12-07T00:00:00	2024-11-06T16:00:00	2	Temperatura media	19.7
165434	7	Sololá	701	Sololá	2	El tablón	7	Julio	2023-12-07T00:00:00	2024-11-06T16:00:00	4	Temperatura máxima	20.8
165435	7	Sololá	701	Sololá	2	El tablón	7	Julio	2023-12-07T00:00:00	2024-11-06T16:00:00	3	Temperatura mínima	19.6
165436	7	Sololá	701	Sololá	2	El tablón	7	Julio	2023-12-07T00:00:00	2024-11-06T16:00:00	5	Humedad	66
165437	7	Sololá	701	Sololá	2	El tablón	7	Julio	2023-12-07T00:00:00	2024-11-06T16:00:00	6	Velocidad del viento	6.4
165438	7	Sololá	701	Sololá	2	El tablón	7	Julio	2023-12-07T00:00:00	2024-11-06T16:00:00	7	Dirección del viento	6.44
165439	7	Sololá	701	Sololá	2	El tablón	7	Julio	2023-12-07T00:00:00	2024-11-06T16:00:00	1	Precipitación	0
165440	7	Sololá	701	Sololá	2	El tablón	7	Julio	2023-12-07T00:00:00	2024-11-06T16:00:00	8	Radiación solar	462
165441	7	Sololá	701	Sololá	2	El tablón	7	Julio	2023-12-07T00:00:00	2024-11-06T17:00:00	2	Temperatura media	18.8
165442	7	Sololá	701	Sololá	2	El tablón	7	Julio	2023-12-07T00:00:00	2024-11-06T17:00:00	4	Temperatura máxima	20.1
165443	7	Sololá	701	Sololá	2	El tablón	7	Julio	2023-12-07T00:00:00	2024-11-06T17:00:00	3	Temperatura mínima	18.7
165444	7	Sololá	701	Sololá	2	El tablón	7	Julio	2023-12-07T00:00:00	2024-11-06T17:00:00	5	Humedad	73
165445	7	Sololá	701	Sololá	2	El tablón	7	Julio	2023-12-07T00:00:00	2024-11-06T17:00:00	6	Velocidad del viento	8
165446	7	Sololá	701	Sololá	2	El tablón	7	Julio	2023-12-07T00:00:00	2024-11-06T17:00:00	7	Dirección del viento	8.05
165447	7	Sololá	701	Sololá	2	El tablón	7	Julio	2023-12-07T00:00:00	2024-11-06T17:00:00	1	Precipitación	0
165448	7	Sololá	701	Sololá	2	El tablón	7	Julio	2023-12-07T00:00:00	2024-11-06T17:00:00	8	Radiación solar	356
165449	7	Sololá	701	Sololá	2	El tablón	7	Julio	2023-12-07T00:00:00	2024-11-06T18:00:00	2	Temperatura media	17.9
165450	7	Sololá	701	Sololá	2	El tablón	7	Julio	2023-12-07T00:00:00	2024-11-06T18:00:00	4	Temperatura máxima	18.8
165451	7	Sololá	701	Sololá	2	El tablón	7	Julio	2023-12-07T00:00:00	2024-11-06T18:00:00	3	Temperatura mínima	17.8
165452	7	Sololá	701	Sololá	2	El tablón	7	Julio	2023-12-07T00:00:00	2024-11-06T18:00:00	5	Humedad	79
165453	7	Sololá	701	Sololá	2	El tablón	7	Julio	2023-12-07T00:00:00	2024-11-06T18:00:00	6	Velocidad del viento	4.8
165454	7	Sololá	701	Sololá	2	El tablón	7	Julio	2023-12-07T00:00:00	2024-11-06T18:00:00	7	Dirección del viento	4.83
165455	7	Sololá	701	Sololá	2	El tablón	7	Julio	2023-12-07T00:00:00	2024-11-06T18:00:00	1	Precipitación	0
165456	7	Sololá	701	Sololá	2	El tablón	7	Julio	2023-12-07T00:00:00	2024-11-06T18:00:00	8	Radiación solar	124
165457	7	Sololá	701	Sololá	2	El tablón	7	Julio	2023-12-07T00:00:00	2024-11-06T19:00:00	2	Temperatura media	15.9
165458	7	Sololá	701	Sololá	2	El tablón	7	Julio	2023-12-07T00:00:00	2024-11-06T19:00:00	4	Temperatura máxima	17.9
165459	7	Sololá	701	Sololá	2	El tablón	7	Julio	2023-12-07T00:00:00	2024-11-06T19:00:00	3	Temperatura mínima	15.9
165460	7	Sololá	701	Sololá	2	El tablón	7	Julio	2023-12-07T00:00:00	2024-11-06T19:00:00	5	Humedad	88
165461	7	Sololá	701	Sololá	2	El tablón	7	Julio	2023-12-07T00:00:00	2024-11-06T19:00:00	6	Velocidad del viento	4.8
165462	7	Sololá	701	Sololá	2	El tablón	7	Julio	2023-12-07T00:00:00	2024-11-06T19:00:00	7	Dirección del viento	4.83
165463	7	Sololá	701	Sololá	2	El tablón	7	Julio	2023-12-07T00:00:00	2024-11-06T19:00:00	1	Precipitación	0.2
165464	7	Sololá	701	Sololá	2	El tablón	7	Julio	2023-12-07T00:00:00	2024-11-06T19:00:00	8	Radiación solar	0
165465	7	Sololá	701	Sololá	2	El tablón	7	Julio	2023-12-07T00:00:00	2024-11-06T20:00:00	2	Temperatura media	13.9
165466	7	Sololá	701	Sololá	2	El tablón	7	Julio	2023-12-07T00:00:00	2024-11-06T20:00:00	4	Temperatura máxima	15.9
165467	7	Sololá	701	Sololá	2	El tablón	7	Julio	2023-12-07T00:00:00	2024-11-06T20:00:00	3	Temperatura mínima	13.9
165468	7	Sololá	701	Sololá	2	El tablón	7	Julio	2023-12-07T00:00:00	2024-11-06T20:00:00	5	Humedad	88
165469	7	Sololá	701	Sololá	2	El tablón	7	Julio	2023-12-07T00:00:00	2024-11-06T20:00:00	6	Velocidad del viento	8
165470	7	Sololá	701	Sololá	2	El tablón	7	Julio	2023-12-07T00:00:00	2024-11-06T20:00:00	7	Dirección del viento	8.05
165471	7	Sololá	701	Sololá	2	El tablón	7	Julio	2023-12-07T00:00:00	2024-11-06T20:00:00	1	Precipitación	1.8
165472	7	Sololá	701	Sololá	2	El tablón	7	Julio	2023-12-07T00:00:00	2024-11-06T20:00:00	8	Radiación solar	0
165473	7	Sololá	701	Sololá	2	El tablón	7	Julio	2023-12-07T00:00:00	2024-11-06T21:00:00	2	Temperatura media	12.9
165474	7	Sololá	701	Sololá	2	El tablón	7	Julio	2023-12-07T00:00:00	2024-11-06T21:00:00	4	Temperatura máxima	13.9
165475	7	Sololá	701	Sololá	2	El tablón	7	Julio	2023-12-07T00:00:00	2024-11-06T21:00:00	3	Temperatura mínima	12.9
165476	7	Sololá	701	Sololá	2	El tablón	7	Julio	2023-12-07T00:00:00	2024-11-06T21:00:00	5	Humedad	88
165477	7	Sololá	701	Sololá	2	El tablón	7	Julio	2023-12-07T00:00:00	2024-11-06T21:00:00	6	Velocidad del viento	8
165478	7	Sololá	701	Sololá	2	El tablón	7	Julio	2023-12-07T00:00:00	2024-11-06T21:00:00	7	Dirección del viento	8.05
165479	7	Sololá	701	Sololá	2	El tablón	7	Julio	2023-12-07T00:00:00	2024-11-06T21:00:00	1	Precipitación	4.6
165480	7	Sololá	701	Sololá	2	El tablón	7	Julio	2023-12-07T00:00:00	2024-11-06T21:00:00	8	Radiación solar	0
165481	7	Sololá	701	Sololá	2	El tablón	7	Julio	2023-12-07T00:00:00	2024-11-06T22:00:00	2	Temperatura media	13.4
165482	7	Sololá	701	Sololá	2	El tablón	7	Julio	2023-12-07T00:00:00	2024-11-06T22:00:00	4	Temperatura máxima	13.4
165483	7	Sololá	701	Sololá	2	El tablón	7	Julio	2023-12-07T00:00:00	2024-11-06T22:00:00	3	Temperatura mínima	12.9
165484	7	Sololá	701	Sololá	2	El tablón	7	Julio	2023-12-07T00:00:00	2024-11-06T22:00:00	5	Humedad	88
165485	7	Sololá	701	Sololá	2	El tablón	7	Julio	2023-12-07T00:00:00	2024-11-06T22:00:00	6	Velocidad del viento	11.3
165486	7	Sololá	701	Sololá	2	El tablón	7	Julio	2023-12-07T00:00:00	2024-11-06T22:00:00	7	Dirección del viento	11.27
165487	7	Sololá	701	Sololá	2	El tablón	7	Julio	2023-12-07T00:00:00	2024-11-06T22:00:00	1	Precipitación	1
165488	7	Sololá	701	Sololá	2	El tablón	7	Julio	2023-12-07T00:00:00	2024-11-06T22:00:00	8	Radiación solar	0
165489	7	Sololá	701	Sololá	2	El tablón	7	Julio	2023-12-07T00:00:00	2024-11-06T23:00:00	2	Temperatura media	13.9
165490	7	Sololá	701	Sololá	2	El tablón	7	Julio	2023-12-07T00:00:00	2024-11-06T23:00:00	4	Temperatura máxima	14.1
165491	7	Sololá	701	Sololá	2	El tablón	7	Julio	2023-12-07T00:00:00	2024-11-06T23:00:00	3	Temperatura mínima	13.3
165492	7	Sololá	701	Sololá	2	El tablón	7	Julio	2023-12-07T00:00:00	2024-11-06T23:00:00	5	Humedad	88
165493	7	Sololá	701	Sololá	2	El tablón	7	Julio	2023-12-07T00:00:00	2024-11-06T23:00:00	6	Velocidad del viento	14.5
165494	7	Sololá	701	Sololá	2	El tablón	7	Julio	2023-12-07T00:00:00	2024-11-06T23:00:00	7	Dirección del viento	14.48
165495	7	Sololá	701	Sololá	2	El tablón	7	Julio	2023-12-07T00:00:00	2024-11-06T23:00:00	1	Precipitación	0.2
165496	7	Sololá	701	Sololá	2	El tablón	7	Julio	2023-12-07T00:00:00	2024-11-06T23:00:00	8	Radiación solar	0
165497	7	Sololá	701	Sololá	2	El tablón	7	Julio	2023-07-13T00:00:00	2024-11-06T00:00:00	2	Temperatura media	14.1
165498	7	Sololá	701	Sololá	2	El tablón	7	Julio	2023-07-13T00:00:00	2024-11-06T00:00:00	4	Temperatura máxima	14.1
165499	7	Sololá	701	Sololá	2	El tablón	7	Julio	2023-07-13T00:00:00	2024-11-06T00:00:00	3	Temperatura mínima	13.8
165500	7	Sololá	701	Sololá	2	El tablón	7	Julio	2023-07-13T00:00:00	2024-11-06T00:00:00	5	Humedad	87
165501	7	Sololá	701	Sololá	2	El tablón	7	Julio	2023-07-13T00:00:00	2024-11-06T00:00:00	6	Velocidad del viento	14.5
165502	7	Sololá	701	Sololá	2	El tablón	7	Julio	2023-07-13T00:00:00	2024-11-06T00:00:00	7	Dirección del viento	14.48
165503	7	Sololá	701	Sololá	2	El tablón	7	Julio	2023-07-13T00:00:00	2024-11-06T00:00:00	1	Precipitación	0
165504	7	Sololá	701	Sololá	2	El tablón	7	Julio	2023-07-13T00:00:00	2024-11-06T00:00:00	8	Radiación solar	0
165505	7	Sololá	701	Sololá	2	El tablón	7	Julio	2023-07-13T00:00:00	2024-11-06T01:00:00	2	Temperatura media	13.9
165506	7	Sololá	701	Sololá	2	El tablón	7	Julio	2023-07-13T00:00:00	2024-11-06T01:00:00	4	Temperatura máxima	14.2
165507	7	Sololá	701	Sololá	2	El tablón	7	Julio	2023-07-13T00:00:00	2024-11-06T01:00:00	3	Temperatura mínima	13.8
165508	7	Sololá	701	Sololá	2	El tablón	7	Julio	2023-07-13T00:00:00	2024-11-06T01:00:00	5	Humedad	87
165509	7	Sololá	701	Sololá	2	El tablón	7	Julio	2023-07-13T00:00:00	2024-11-06T01:00:00	6	Velocidad del viento	14.5
165510	7	Sololá	701	Sololá	2	El tablón	7	Julio	2023-07-13T00:00:00	2024-11-06T01:00:00	7	Dirección del viento	14.48
165511	7	Sololá	701	Sololá	2	El tablón	7	Julio	2023-07-13T00:00:00	2024-11-06T01:00:00	1	Precipitación	0
165512	7	Sololá	701	Sololá	2	El tablón	7	Julio	2023-07-13T00:00:00	2024-11-06T01:00:00	8	Radiación solar	0
165513	7	Sololá	701	Sololá	2	El tablón	7	Julio	2023-07-13T00:00:00	2024-11-06T02:00:00	2	Temperatura media	13.9
165514	7	Sololá	701	Sololá	2	El tablón	7	Julio	2023-07-13T00:00:00	2024-11-06T02:00:00	4	Temperatura máxima	14.1
165515	7	Sololá	701	Sololá	2	El tablón	7	Julio	2023-07-13T00:00:00	2024-11-06T02:00:00	3	Temperatura mínima	13.8
165516	7	Sololá	701	Sololá	2	El tablón	7	Julio	2023-07-13T00:00:00	2024-11-06T02:00:00	5	Humedad	83
165517	7	Sololá	701	Sololá	2	El tablón	7	Julio	2023-07-13T00:00:00	2024-11-06T02:00:00	6	Velocidad del viento	11.3
165518	7	Sololá	701	Sololá	2	El tablón	7	Julio	2023-07-13T00:00:00	2024-11-06T02:00:00	7	Dirección del viento	11.27
165519	7	Sololá	701	Sololá	2	El tablón	7	Julio	2023-07-13T00:00:00	2024-11-06T02:00:00	1	Precipitación	0
165520	7	Sololá	701	Sololá	2	El tablón	7	Julio	2023-07-13T00:00:00	2024-11-06T02:00:00	8	Radiación solar	0
165521	7	Sololá	701	Sololá	2	El tablón	7	Julio	2023-07-13T00:00:00	2024-11-06T03:00:00	2	Temperatura media	13.4
165522	7	Sololá	701	Sololá	2	El tablón	7	Julio	2023-07-13T00:00:00	2024-11-06T03:00:00	4	Temperatura máxima	14.2
165523	7	Sololá	701	Sololá	2	El tablón	7	Julio	2023-07-13T00:00:00	2024-11-06T03:00:00	3	Temperatura mínima	13.4
165524	7	Sololá	701	Sololá	2	El tablón	7	Julio	2023-07-13T00:00:00	2024-11-06T03:00:00	5	Humedad	84
165525	7	Sololá	701	Sololá	2	El tablón	7	Julio	2023-07-13T00:00:00	2024-11-06T03:00:00	6	Velocidad del viento	16.1
165526	7	Sololá	701	Sololá	2	El tablón	7	Julio	2023-07-13T00:00:00	2024-11-06T03:00:00	7	Dirección del viento	16.09
165527	7	Sololá	701	Sololá	2	El tablón	7	Julio	2023-07-13T00:00:00	2024-11-06T03:00:00	1	Precipitación	0
165528	7	Sololá	701	Sololá	2	El tablón	7	Julio	2023-07-13T00:00:00	2024-11-06T03:00:00	8	Radiación solar	0
165529	7	Sololá	701	Sololá	2	El tablón	7	Julio	2023-07-13T00:00:00	2024-11-06T04:00:00	2	Temperatura media	13.2
165530	7	Sololá	701	Sololá	2	El tablón	7	Julio	2023-07-13T00:00:00	2024-11-06T04:00:00	4	Temperatura máxima	13.4
165531	7	Sololá	701	Sololá	2	El tablón	7	Julio	2023-07-13T00:00:00	2024-11-06T04:00:00	3	Temperatura mínima	13.1
165532	7	Sololá	701	Sololá	2	El tablón	7	Julio	2023-07-13T00:00:00	2024-11-06T04:00:00	5	Humedad	83
165533	7	Sololá	701	Sololá	2	El tablón	7	Julio	2023-07-13T00:00:00	2024-11-06T04:00:00	6	Velocidad del viento	16.1
165534	7	Sololá	701	Sololá	2	El tablón	7	Julio	2023-07-13T00:00:00	2024-11-06T04:00:00	7	Dirección del viento	16.09
165535	7	Sololá	701	Sololá	2	El tablón	7	Julio	2023-07-13T00:00:00	2024-11-06T04:00:00	1	Precipitación	0
165536	7	Sololá	701	Sololá	2	El tablón	7	Julio	2023-07-13T00:00:00	2024-11-06T04:00:00	8	Radiación solar	0
165537	7	Sololá	701	Sololá	2	El tablón	7	Julio	2023-07-13T00:00:00	2024-11-06T05:00:00	2	Temperatura media	12.7
165538	7	Sololá	701	Sololá	2	El tablón	7	Julio	2023-07-13T00:00:00	2024-11-06T05:00:00	4	Temperatura máxima	13.6
165539	7	Sololá	701	Sololá	2	El tablón	7	Julio	2023-07-13T00:00:00	2024-11-06T05:00:00	3	Temperatura mínima	12.7
165540	7	Sololá	701	Sololá	2	El tablón	7	Julio	2023-07-13T00:00:00	2024-11-06T05:00:00	5	Humedad	84
165541	7	Sololá	701	Sololá	2	El tablón	7	Julio	2023-07-13T00:00:00	2024-11-06T05:00:00	6	Velocidad del viento	17.7
165542	7	Sololá	701	Sololá	2	El tablón	7	Julio	2023-07-13T00:00:00	2024-11-06T05:00:00	7	Dirección del viento	17.7
165543	7	Sololá	701	Sololá	2	El tablón	7	Julio	2023-07-13T00:00:00	2024-11-06T05:00:00	1	Precipitación	0
165544	7	Sololá	701	Sololá	2	El tablón	7	Julio	2023-07-13T00:00:00	2024-11-06T05:00:00	8	Radiación solar	0
165545	7	Sololá	701	Sololá	2	El tablón	7	Julio	2023-07-13T00:00:00	2024-11-06T06:00:00	2	Temperatura media	12.9
165546	7	Sololá	701	Sololá	2	El tablón	7	Julio	2023-07-13T00:00:00	2024-11-06T06:00:00	4	Temperatura máxima	12.9
165547	7	Sololá	701	Sololá	2	El tablón	7	Julio	2023-07-13T00:00:00	2024-11-06T06:00:00	3	Temperatura mínima	12.7
165548	7	Sololá	701	Sololá	2	El tablón	7	Julio	2023-07-13T00:00:00	2024-11-06T06:00:00	5	Humedad	85
165549	7	Sololá	701	Sololá	2	El tablón	7	Julio	2023-07-13T00:00:00	2024-11-06T06:00:00	6	Velocidad del viento	19.3
165550	7	Sololá	701	Sololá	2	El tablón	7	Julio	2023-07-13T00:00:00	2024-11-06T06:00:00	7	Dirección del viento	19.31
165551	7	Sololá	701	Sololá	2	El tablón	7	Julio	2023-07-13T00:00:00	2024-11-06T06:00:00	1	Precipitación	0
165552	7	Sololá	701	Sololá	2	El tablón	7	Julio	2023-07-13T00:00:00	2024-11-06T06:00:00	8	Radiación solar	2
165553	7	Sololá	701	Sololá	2	El tablón	7	Julio	2023-07-13T00:00:00	2024-11-06T07:00:00	2	Temperatura media	13.4
165554	7	Sololá	701	Sololá	2	El tablón	7	Julio	2023-07-13T00:00:00	2024-11-06T07:00:00	4	Temperatura máxima	13.6
165555	7	Sololá	701	Sololá	2	El tablón	7	Julio	2023-07-13T00:00:00	2024-11-06T07:00:00	3	Temperatura mínima	12.8
165556	7	Sololá	701	Sololá	2	El tablón	7	Julio	2023-07-13T00:00:00	2024-11-06T07:00:00	5	Humedad	88
165557	7	Sololá	701	Sololá	2	El tablón	7	Julio	2023-07-13T00:00:00	2024-11-06T07:00:00	6	Velocidad del viento	17.7
165558	7	Sololá	701	Sololá	2	El tablón	7	Julio	2023-07-13T00:00:00	2024-11-06T07:00:00	7	Dirección del viento	17.7
165559	7	Sololá	701	Sololá	2	El tablón	7	Julio	2023-07-13T00:00:00	2024-11-06T07:00:00	1	Precipitación	0
165560	7	Sololá	701	Sololá	2	El tablón	7	Julio	2023-07-13T00:00:00	2024-11-06T07:00:00	8	Radiación solar	92
165561	7	Sololá	701	Sololá	2	El tablón	7	Julio	2023-07-13T00:00:00	2024-11-06T08:00:00	2	Temperatura media	14.6
165562	7	Sololá	701	Sololá	2	El tablón	7	Julio	2023-07-13T00:00:00	2024-11-06T08:00:00	4	Temperatura máxima	14.7
165563	7	Sololá	701	Sololá	2	El tablón	7	Julio	2023-07-13T00:00:00	2024-11-06T08:00:00	3	Temperatura mínima	13.4
165564	7	Sololá	701	Sololá	2	El tablón	7	Julio	2023-07-13T00:00:00	2024-11-06T08:00:00	5	Humedad	83
165565	7	Sololá	701	Sololá	2	El tablón	7	Julio	2023-07-13T00:00:00	2024-11-06T08:00:00	6	Velocidad del viento	17.7
165566	7	Sololá	701	Sololá	2	El tablón	7	Julio	2023-07-13T00:00:00	2024-11-06T08:00:00	7	Dirección del viento	17.7
165567	7	Sololá	701	Sololá	2	El tablón	7	Julio	2023-07-13T00:00:00	2024-11-06T08:00:00	1	Precipitación	0
165568	7	Sololá	701	Sololá	2	El tablón	7	Julio	2023-07-13T00:00:00	2024-11-06T08:00:00	8	Radiación solar	266
165569	7	Sololá	701	Sololá	2	El tablón	7	Julio	2023-07-13T00:00:00	2024-11-06T09:00:00	2	Temperatura media	15.2
165570	7	Sololá	701	Sololá	2	El tablón	7	Julio	2023-07-13T00:00:00	2024-11-06T09:00:00	4	Temperatura máxima	15.4
165571	7	Sololá	701	Sololá	2	El tablón	7	Julio	2023-07-13T00:00:00	2024-11-06T09:00:00	3	Temperatura mínima	14.6
165572	7	Sololá	701	Sololá	2	El tablón	7	Julio	2023-07-13T00:00:00	2024-11-06T09:00:00	5	Humedad	80
165573	7	Sololá	701	Sololá	2	El tablón	7	Julio	2023-07-13T00:00:00	2024-11-06T09:00:00	6	Velocidad del viento	16.1
165574	7	Sololá	701	Sololá	2	El tablón	7	Julio	2023-07-13T00:00:00	2024-11-06T09:00:00	7	Dirección del viento	16.09
165575	7	Sololá	701	Sololá	2	El tablón	7	Julio	2023-07-13T00:00:00	2024-11-06T09:00:00	1	Precipitación	0
165576	7	Sololá	701	Sololá	2	El tablón	7	Julio	2023-07-13T00:00:00	2024-11-06T09:00:00	8	Radiación solar	478
165577	7	Sololá	701	Sololá	2	El tablón	7	Julio	2023-07-13T00:00:00	2024-11-06T10:00:00	2	Temperatura media	16.9
165578	7	Sololá	701	Sololá	2	El tablón	7	Julio	2023-07-13T00:00:00	2024-11-06T10:00:00	4	Temperatura máxima	16.9
165579	7	Sololá	701	Sololá	2	El tablón	7	Julio	2023-07-13T00:00:00	2024-11-06T10:00:00	3	Temperatura mínima	15.2
165580	7	Sololá	701	Sololá	2	El tablón	7	Julio	2023-07-13T00:00:00	2024-11-06T10:00:00	5	Humedad	77
165581	7	Sololá	701	Sololá	2	El tablón	7	Julio	2023-07-13T00:00:00	2024-11-06T10:00:00	6	Velocidad del viento	16.1
165582	7	Sololá	701	Sololá	2	El tablón	7	Julio	2023-07-13T00:00:00	2024-11-06T10:00:00	7	Dirección del viento	16.09
165583	7	Sololá	701	Sololá	2	El tablón	7	Julio	2023-07-13T00:00:00	2024-11-06T10:00:00	1	Precipitación	0
165584	7	Sololá	701	Sololá	2	El tablón	7	Julio	2023-07-13T00:00:00	2024-11-06T10:00:00	8	Radiación solar	694
165585	7	Sololá	701	Sololá	2	El tablón	7	Julio	2023-07-13T00:00:00	2024-11-06T11:00:00	2	Temperatura media	17.8
165586	7	Sololá	701	Sololá	2	El tablón	7	Julio	2023-07-13T00:00:00	2024-11-06T11:00:00	4	Temperatura máxima	17.8
165587	7	Sololá	701	Sololá	2	El tablón	7	Julio	2023-07-13T00:00:00	2024-11-06T11:00:00	3	Temperatura mínima	16.9
165588	7	Sololá	701	Sololá	2	El tablón	7	Julio	2023-07-13T00:00:00	2024-11-06T11:00:00	5	Humedad	75
165589	7	Sololá	701	Sololá	2	El tablón	7	Julio	2023-07-13T00:00:00	2024-11-06T11:00:00	6	Velocidad del viento	14.5
165590	7	Sololá	701	Sololá	2	El tablón	7	Julio	2023-07-13T00:00:00	2024-11-06T11:00:00	7	Dirección del viento	14.48
165591	7	Sololá	701	Sololá	2	El tablón	7	Julio	2023-07-13T00:00:00	2024-11-06T11:00:00	1	Precipitación	0
165592	7	Sololá	701	Sololá	2	El tablón	7	Julio	2023-07-13T00:00:00	2024-11-06T11:00:00	8	Radiación solar	899
165593	7	Sololá	701	Sololá	2	El tablón	7	Julio	2023-07-13T00:00:00	2024-11-06T12:00:00	2	Temperatura media	18
165594	7	Sololá	701	Sololá	2	El tablón	7	Julio	2023-07-13T00:00:00	2024-11-06T12:00:00	4	Temperatura máxima	18.2
165595	7	Sololá	701	Sololá	2	El tablón	7	Julio	2023-07-13T00:00:00	2024-11-06T12:00:00	3	Temperatura mínima	17.3
165596	7	Sololá	701	Sololá	2	El tablón	7	Julio	2023-07-13T00:00:00	2024-11-06T12:00:00	5	Humedad	69
165597	7	Sololá	701	Sololá	2	El tablón	7	Julio	2023-07-13T00:00:00	2024-11-06T12:00:00	6	Velocidad del viento	14.5
165598	7	Sololá	701	Sololá	2	El tablón	7	Julio	2023-07-13T00:00:00	2024-11-06T12:00:00	7	Dirección del viento	14.48
165599	7	Sololá	701	Sololá	2	El tablón	7	Julio	2023-07-13T00:00:00	2024-11-06T12:00:00	1	Precipitación	0
165600	7	Sololá	701	Sololá	2	El tablón	7	Julio	2023-07-13T00:00:00	2024-11-06T12:00:00	8	Radiación solar	953
165601	7	Sololá	701	Sololá	2	El tablón	7	Julio	2023-07-13T00:00:00	2024-11-06T13:00:00	2	Temperatura media	19.2
165602	7	Sololá	701	Sololá	2	El tablón	7	Julio	2023-07-13T00:00:00	2024-11-06T13:00:00	4	Temperatura máxima	19.3
165603	7	Sololá	701	Sololá	2	El tablón	7	Julio	2023-07-13T00:00:00	2024-11-06T13:00:00	3	Temperatura mínima	18
165604	7	Sololá	701	Sololá	2	El tablón	7	Julio	2023-07-13T00:00:00	2024-11-06T13:00:00	5	Humedad	64
165605	7	Sololá	701	Sololá	2	El tablón	7	Julio	2023-07-13T00:00:00	2024-11-06T13:00:00	6	Velocidad del viento	11.3
165606	7	Sololá	701	Sololá	2	El tablón	7	Julio	2023-07-13T00:00:00	2024-11-06T13:00:00	7	Dirección del viento	11.27
165607	7	Sololá	701	Sololá	2	El tablón	7	Julio	2023-07-13T00:00:00	2024-11-06T13:00:00	1	Precipitación	0
165608	7	Sololá	701	Sololá	2	El tablón	7	Julio	2023-07-13T00:00:00	2024-11-06T13:00:00	8	Radiación solar	970
165609	7	Sololá	701	Sololá	2	El tablón	7	Julio	2023-07-13T00:00:00	2024-11-06T14:00:00	2	Temperatura media	19.7
165610	7	Sololá	701	Sololá	2	El tablón	7	Julio	2023-07-13T00:00:00	2024-11-06T14:00:00	4	Temperatura máxima	20
165611	7	Sololá	701	Sololá	2	El tablón	7	Julio	2023-07-13T00:00:00	2024-11-06T14:00:00	3	Temperatura mínima	19.1
165612	7	Sololá	701	Sololá	2	El tablón	7	Julio	2023-07-13T00:00:00	2024-11-06T14:00:00	5	Humedad	62
165613	7	Sololá	701	Sololá	2	El tablón	7	Julio	2023-07-13T00:00:00	2024-11-06T14:00:00	6	Velocidad del viento	9.7
165614	7	Sololá	701	Sololá	2	El tablón	7	Julio	2023-07-13T00:00:00	2024-11-06T14:00:00	7	Dirección del viento	9.66
165615	7	Sololá	701	Sololá	2	El tablón	7	Julio	2023-07-13T00:00:00	2024-11-06T14:00:00	1	Precipitación	0
165616	7	Sololá	701	Sololá	2	El tablón	7	Julio	2023-07-13T00:00:00	2024-11-06T14:00:00	8	Radiación solar	924
165617	7	Sololá	701	Sololá	2	El tablón	7	Julio	2023-07-13T00:00:00	2024-11-06T15:00:00	2	Temperatura media	19.2
165618	7	Sololá	701	Sololá	2	El tablón	7	Julio	2023-07-13T00:00:00	2024-11-06T15:00:00	4	Temperatura máxima	20
165619	7	Sololá	701	Sololá	2	El tablón	7	Julio	2023-07-13T00:00:00	2024-11-06T15:00:00	3	Temperatura mínima	19.1
165620	7	Sololá	701	Sololá	2	El tablón	7	Julio	2023-07-13T00:00:00	2024-11-06T15:00:00	5	Humedad	68
165621	7	Sololá	701	Sololá	2	El tablón	7	Julio	2023-07-13T00:00:00	2024-11-06T15:00:00	6	Velocidad del viento	4.8
165622	7	Sololá	701	Sololá	2	El tablón	7	Julio	2023-07-13T00:00:00	2024-11-06T15:00:00	7	Dirección del viento	4.83
165623	7	Sololá	701	Sololá	2	El tablón	7	Julio	2023-07-13T00:00:00	2024-11-06T15:00:00	1	Precipitación	0
165624	7	Sololá	701	Sololá	2	El tablón	7	Julio	2023-07-13T00:00:00	2024-11-06T15:00:00	8	Radiación solar	293
165625	7	Sololá	701	Sololá	2	El tablón	7	Julio	2023-07-13T00:00:00	2024-11-06T16:00:00	2	Temperatura media	18.9
165626	7	Sololá	701	Sololá	2	El tablón	7	Julio	2023-07-13T00:00:00	2024-11-06T16:00:00	4	Temperatura máxima	19.7
165627	7	Sololá	701	Sololá	2	El tablón	7	Julio	2023-07-13T00:00:00	2024-11-06T16:00:00	3	Temperatura mínima	18.9
165628	7	Sololá	701	Sololá	2	El tablón	7	Julio	2023-07-13T00:00:00	2024-11-06T16:00:00	5	Humedad	69
165629	7	Sololá	701	Sololá	2	El tablón	7	Julio	2023-07-13T00:00:00	2024-11-06T16:00:00	6	Velocidad del viento	8
165630	7	Sololá	701	Sololá	2	El tablón	7	Julio	2023-07-13T00:00:00	2024-11-06T16:00:00	7	Dirección del viento	8.05
165631	7	Sololá	701	Sololá	2	El tablón	7	Julio	2023-07-13T00:00:00	2024-11-06T16:00:00	1	Precipitación	0
165632	7	Sololá	701	Sololá	2	El tablón	7	Julio	2023-07-13T00:00:00	2024-11-06T16:00:00	8	Radiación solar	489
165633	7	Sololá	701	Sololá	2	El tablón	7	Julio	2023-07-13T00:00:00	2024-11-06T17:00:00	2	Temperatura media	18.1
165634	7	Sololá	701	Sololá	2	El tablón	7	Julio	2023-07-13T00:00:00	2024-11-06T17:00:00	4	Temperatura máxima	19.2
165635	7	Sololá	701	Sololá	2	El tablón	7	Julio	2023-07-13T00:00:00	2024-11-06T17:00:00	3	Temperatura mínima	17.8
165636	7	Sololá	701	Sololá	2	El tablón	7	Julio	2023-07-13T00:00:00	2024-11-06T17:00:00	5	Humedad	74
165637	7	Sololá	701	Sololá	2	El tablón	7	Julio	2023-07-13T00:00:00	2024-11-06T17:00:00	6	Velocidad del viento	8
165638	7	Sololá	701	Sololá	2	El tablón	7	Julio	2023-07-13T00:00:00	2024-11-06T17:00:00	7	Dirección del viento	8.05
165639	7	Sololá	701	Sololá	2	El tablón	7	Julio	2023-07-13T00:00:00	2024-11-06T17:00:00	1	Precipitación	0
165640	7	Sololá	701	Sololá	2	El tablón	7	Julio	2023-07-13T00:00:00	2024-11-06T17:00:00	8	Radiación solar	281
165641	7	Sololá	701	Sololá	2	El tablón	7	Julio	2023-07-13T00:00:00	2024-11-06T18:00:00	2	Temperatura media	17.2
165642	7	Sololá	701	Sololá	2	El tablón	7	Julio	2023-07-13T00:00:00	2024-11-06T18:00:00	4	Temperatura máxima	18.3
165643	7	Sololá	701	Sololá	2	El tablón	7	Julio	2023-07-13T00:00:00	2024-11-06T18:00:00	3	Temperatura mínima	17.2
165644	7	Sololá	701	Sololá	2	El tablón	7	Julio	2023-07-13T00:00:00	2024-11-06T18:00:00	5	Humedad	76
165645	7	Sololá	701	Sololá	2	El tablón	7	Julio	2023-07-13T00:00:00	2024-11-06T18:00:00	6	Velocidad del viento	4.8
165646	7	Sololá	701	Sololá	2	El tablón	7	Julio	2023-07-13T00:00:00	2024-11-06T18:00:00	7	Dirección del viento	4.83
165647	7	Sololá	701	Sololá	2	El tablón	7	Julio	2023-07-13T00:00:00	2024-11-06T18:00:00	1	Precipitación	0
165648	7	Sololá	701	Sololá	2	El tablón	7	Julio	2023-07-13T00:00:00	2024-11-06T18:00:00	8	Radiación solar	123
165649	7	Sololá	701	Sololá	2	El tablón	7	Julio	2023-07-13T00:00:00	2024-11-06T19:00:00	2	Temperatura media	15.6
165650	7	Sololá	701	Sololá	2	El tablón	7	Julio	2023-07-13T00:00:00	2024-11-06T19:00:00	4	Temperatura máxima	17.2
165651	7	Sololá	701	Sololá	2	El tablón	7	Julio	2023-07-13T00:00:00	2024-11-06T19:00:00	3	Temperatura mínima	15.6
165652	7	Sololá	701	Sololá	2	El tablón	7	Julio	2023-07-13T00:00:00	2024-11-06T19:00:00	5	Humedad	85
165653	7	Sololá	701	Sololá	2	El tablón	7	Julio	2023-07-13T00:00:00	2024-11-06T19:00:00	6	Velocidad del viento	6.4
165654	7	Sololá	701	Sololá	2	El tablón	7	Julio	2023-07-13T00:00:00	2024-11-06T19:00:00	7	Dirección del viento	6.44
165655	7	Sololá	701	Sololá	2	El tablón	7	Julio	2023-07-13T00:00:00	2024-11-06T19:00:00	1	Precipitación	0
165656	7	Sololá	701	Sololá	2	El tablón	7	Julio	2023-07-13T00:00:00	2024-11-06T19:00:00	8	Radiación solar	0
165657	7	Sololá	701	Sololá	2	El tablón	7	Julio	2023-07-13T00:00:00	2024-11-06T20:00:00	2	Temperatura media	15.2
165658	7	Sololá	701	Sololá	2	El tablón	7	Julio	2023-07-13T00:00:00	2024-11-06T20:00:00	4	Temperatura máxima	15.6
165659	7	Sololá	701	Sololá	2	El tablón	7	Julio	2023-07-13T00:00:00	2024-11-06T20:00:00	3	Temperatura mínima	15.2
165660	7	Sololá	701	Sololá	2	El tablón	7	Julio	2023-07-13T00:00:00	2024-11-06T20:00:00	5	Humedad	85
165661	7	Sololá	701	Sololá	2	El tablón	7	Julio	2023-07-13T00:00:00	2024-11-06T20:00:00	6	Velocidad del viento	8
165662	7	Sololá	701	Sololá	2	El tablón	7	Julio	2023-07-13T00:00:00	2024-11-06T20:00:00	7	Dirección del viento	8.05
165663	7	Sololá	701	Sololá	2	El tablón	7	Julio	2023-07-13T00:00:00	2024-11-06T20:00:00	1	Precipitación	0
165664	7	Sololá	701	Sololá	2	El tablón	7	Julio	2023-07-13T00:00:00	2024-11-06T20:00:00	8	Radiación solar	0
165665	7	Sololá	701	Sololá	2	El tablón	7	Julio	2023-07-13T00:00:00	2024-11-06T21:00:00	2	Temperatura media	15.1
165666	7	Sololá	701	Sololá	2	El tablón	7	Julio	2023-07-13T00:00:00	2024-11-06T21:00:00	4	Temperatura máxima	15.2
165667	7	Sololá	701	Sololá	2	El tablón	7	Julio	2023-07-13T00:00:00	2024-11-06T21:00:00	3	Temperatura mínima	15.1
165668	7	Sololá	701	Sololá	2	El tablón	7	Julio	2023-07-13T00:00:00	2024-11-06T21:00:00	5	Humedad	85
165669	7	Sololá	701	Sololá	2	El tablón	7	Julio	2023-07-13T00:00:00	2024-11-06T21:00:00	6	Velocidad del viento	8
165670	7	Sololá	701	Sololá	2	El tablón	7	Julio	2023-07-13T00:00:00	2024-11-06T21:00:00	7	Dirección del viento	8.05
165671	7	Sololá	701	Sololá	2	El tablón	7	Julio	2023-07-13T00:00:00	2024-11-06T21:00:00	1	Precipitación	0
165672	7	Sololá	701	Sololá	2	El tablón	7	Julio	2023-07-13T00:00:00	2024-11-06T21:00:00	8	Radiación solar	0
165673	7	Sololá	701	Sololá	2	El tablón	7	Julio	2023-07-13T00:00:00	2024-11-06T22:00:00	2	Temperatura media	14.9
165674	7	Sololá	701	Sololá	2	El tablón	7	Julio	2023-07-13T00:00:00	2024-11-06T22:00:00	4	Temperatura máxima	15.2
165675	7	Sololá	701	Sololá	2	El tablón	7	Julio	2023-07-13T00:00:00	2024-11-06T22:00:00	3	Temperatura mínima	14.9
165676	7	Sololá	701	Sololá	2	El tablón	7	Julio	2023-07-13T00:00:00	2024-11-06T22:00:00	5	Humedad	86
165677	7	Sololá	701	Sololá	2	El tablón	7	Julio	2023-07-13T00:00:00	2024-11-06T22:00:00	6	Velocidad del viento	8
165678	7	Sololá	701	Sololá	2	El tablón	7	Julio	2023-07-13T00:00:00	2024-11-06T22:00:00	7	Dirección del viento	8.05
165679	7	Sololá	701	Sololá	2	El tablón	7	Julio	2023-07-13T00:00:00	2024-11-06T22:00:00	1	Precipitación	0.2
165680	7	Sololá	701	Sololá	2	El tablón	7	Julio	2023-07-13T00:00:00	2024-11-06T22:00:00	8	Radiación solar	0
165681	7	Sololá	701	Sololá	2	El tablón	7	Julio	2023-07-13T00:00:00	2024-11-06T23:00:00	2	Temperatura media	13.4
165682	7	Sololá	701	Sololá	2	El tablón	7	Julio	2023-07-13T00:00:00	2024-11-06T23:00:00	4	Temperatura máxima	14.9
165683	7	Sololá	701	Sololá	2	El tablón	7	Julio	2023-07-13T00:00:00	2024-11-06T23:00:00	3	Temperatura mínima	13.4
165684	7	Sololá	701	Sololá	2	El tablón	7	Julio	2023-07-13T00:00:00	2024-11-06T23:00:00	5	Humedad	88
165685	7	Sololá	701	Sololá	2	El tablón	7	Julio	2023-07-13T00:00:00	2024-11-06T23:00:00	6	Velocidad del viento	4.8
165686	7	Sololá	701	Sololá	2	El tablón	7	Julio	2023-07-13T00:00:00	2024-11-06T23:00:00	7	Dirección del viento	4.83
165687	7	Sololá	701	Sololá	2	El tablón	7	Julio	2023-07-13T00:00:00	2024-11-06T23:00:00	1	Precipitación	8.6
165688	7	Sololá	701	Sololá	2	El tablón	7	Julio	2023-07-13T00:00:00	2024-11-06T23:00:00	8	Radiación solar	0
165689	7	Sololá	701	Sololá	2	El tablón	7	Julio	2023-07-14T00:00:00	2024-11-06T00:00:00	2	Temperatura media	12
165690	7	Sololá	701	Sololá	2	El tablón	7	Julio	2023-07-14T00:00:00	2024-11-06T00:00:00	4	Temperatura máxima	13.4
165691	7	Sololá	701	Sololá	2	El tablón	7	Julio	2023-07-14T00:00:00	2024-11-06T00:00:00	3	Temperatura mínima	12
165692	7	Sololá	701	Sololá	2	El tablón	7	Julio	2023-07-14T00:00:00	2024-11-06T00:00:00	5	Humedad	88
165693	7	Sololá	701	Sololá	2	El tablón	7	Julio	2023-07-14T00:00:00	2024-11-06T00:00:00	6	Velocidad del viento	4.8
165694	7	Sololá	701	Sololá	2	El tablón	7	Julio	2023-07-14T00:00:00	2024-11-06T00:00:00	7	Dirección del viento	4.83
165695	7	Sololá	701	Sololá	2	El tablón	7	Julio	2023-07-14T00:00:00	2024-11-06T00:00:00	1	Precipitación	8.6
165696	7	Sololá	701	Sololá	2	El tablón	7	Julio	2023-07-14T00:00:00	2024-11-06T00:00:00	8	Radiación solar	0
165697	7	Sololá	701	Sololá	2	El tablón	7	Julio	2023-07-14T00:00:00	2024-11-06T01:00:00	2	Temperatura media	13.1
165698	7	Sololá	701	Sololá	2	El tablón	7	Julio	2023-07-14T00:00:00	2024-11-06T01:00:00	4	Temperatura máxima	13.1
165699	7	Sololá	701	Sololá	2	El tablón	7	Julio	2023-07-14T00:00:00	2024-11-06T01:00:00	3	Temperatura mínima	11.8
165700	7	Sololá	701	Sololá	2	El tablón	7	Julio	2023-07-14T00:00:00	2024-11-06T01:00:00	5	Humedad	88
165701	7	Sololá	701	Sololá	2	El tablón	7	Julio	2023-07-14T00:00:00	2024-11-06T01:00:00	6	Velocidad del viento	6.4
165702	7	Sololá	701	Sololá	2	El tablón	7	Julio	2023-07-14T00:00:00	2024-11-06T01:00:00	7	Dirección del viento	6.44
165703	7	Sololá	701	Sololá	2	El tablón	7	Julio	2023-07-14T00:00:00	2024-11-06T01:00:00	1	Precipitación	6.8
165704	7	Sololá	701	Sololá	2	El tablón	7	Julio	2023-07-14T00:00:00	2024-11-06T01:00:00	8	Radiación solar	0
165705	7	Sololá	701	Sololá	2	El tablón	7	Julio	2023-07-14T00:00:00	2024-11-06T02:00:00	2	Temperatura media	12.7
165706	7	Sololá	701	Sololá	2	El tablón	7	Julio	2023-07-14T00:00:00	2024-11-06T02:00:00	4	Temperatura máxima	13
165707	7	Sololá	701	Sololá	2	El tablón	7	Julio	2023-07-14T00:00:00	2024-11-06T02:00:00	3	Temperatura mínima	12.6
165708	7	Sololá	701	Sololá	2	El tablón	7	Julio	2023-07-14T00:00:00	2024-11-06T02:00:00	5	Humedad	88
165709	7	Sololá	701	Sololá	2	El tablón	7	Julio	2023-07-14T00:00:00	2024-11-06T02:00:00	6	Velocidad del viento	11.3
165710	7	Sololá	701	Sololá	2	El tablón	7	Julio	2023-07-14T00:00:00	2024-11-06T02:00:00	7	Dirección del viento	11.27
165711	7	Sololá	701	Sololá	2	El tablón	7	Julio	2023-07-14T00:00:00	2024-11-06T02:00:00	1	Precipitación	2.2
165712	7	Sololá	701	Sololá	2	El tablón	7	Julio	2023-07-14T00:00:00	2024-11-06T02:00:00	8	Radiación solar	0
165713	7	Sololá	701	Sololá	2	El tablón	7	Julio	2023-07-14T00:00:00	2024-11-06T03:00:00	2	Temperatura media	12.5
165714	7	Sololá	701	Sololá	2	El tablón	7	Julio	2023-07-14T00:00:00	2024-11-06T03:00:00	4	Temperatura máxima	12.7
165715	7	Sololá	701	Sololá	2	El tablón	7	Julio	2023-07-14T00:00:00	2024-11-06T03:00:00	3	Temperatura mínima	12.4
165716	7	Sololá	701	Sololá	2	El tablón	7	Julio	2023-07-14T00:00:00	2024-11-06T03:00:00	5	Humedad	86
165717	7	Sololá	701	Sololá	2	El tablón	7	Julio	2023-07-14T00:00:00	2024-11-06T03:00:00	6	Velocidad del viento	6.4
165718	7	Sololá	701	Sololá	2	El tablón	7	Julio	2023-07-14T00:00:00	2024-11-06T03:00:00	7	Dirección del viento	6.44
165719	7	Sololá	701	Sololá	2	El tablón	7	Julio	2023-07-14T00:00:00	2024-11-06T03:00:00	1	Precipitación	0
165720	7	Sololá	701	Sololá	2	El tablón	7	Julio	2023-07-14T00:00:00	2024-11-06T03:00:00	8	Radiación solar	0
165721	7	Sololá	701	Sololá	2	El tablón	7	Julio	2023-07-14T00:00:00	2024-11-06T04:00:00	2	Temperatura media	12.7
165722	7	Sololá	701	Sololá	2	El tablón	7	Julio	2023-07-14T00:00:00	2024-11-06T04:00:00	4	Temperatura máxima	12.9
165723	7	Sololá	701	Sololá	2	El tablón	7	Julio	2023-07-14T00:00:00	2024-11-06T04:00:00	3	Temperatura mínima	12.6
165724	7	Sololá	701	Sololá	2	El tablón	7	Julio	2023-07-14T00:00:00	2024-11-06T04:00:00	5	Humedad	85
165725	7	Sololá	701	Sololá	2	El tablón	7	Julio	2023-07-14T00:00:00	2024-11-06T04:00:00	6	Velocidad del viento	6.4
165726	7	Sololá	701	Sololá	2	El tablón	7	Julio	2023-07-14T00:00:00	2024-11-06T04:00:00	7	Dirección del viento	6.44
165727	7	Sololá	701	Sololá	2	El tablón	7	Julio	2023-07-14T00:00:00	2024-11-06T04:00:00	1	Precipitación	0
165728	7	Sololá	701	Sololá	2	El tablón	7	Julio	2023-07-14T00:00:00	2024-11-06T04:00:00	8	Radiación solar	0
165729	7	Sololá	701	Sololá	2	El tablón	7	Julio	2023-07-14T00:00:00	2024-11-06T05:00:00	2	Temperatura media	12.9
165730	7	Sololá	701	Sololá	2	El tablón	7	Julio	2023-07-14T00:00:00	2024-11-06T05:00:00	4	Temperatura máxima	13
165731	7	Sololá	701	Sololá	2	El tablón	7	Julio	2023-07-14T00:00:00	2024-11-06T05:00:00	3	Temperatura mínima	12.5
165732	7	Sololá	701	Sololá	2	El tablón	7	Julio	2023-07-14T00:00:00	2024-11-06T05:00:00	5	Humedad	85
165733	7	Sololá	701	Sololá	2	El tablón	7	Julio	2023-07-14T00:00:00	2024-11-06T05:00:00	6	Velocidad del viento	11.3
165734	7	Sololá	701	Sololá	2	El tablón	7	Julio	2023-07-14T00:00:00	2024-11-06T05:00:00	7	Dirección del viento	11.27
165735	7	Sololá	701	Sololá	2	El tablón	7	Julio	2023-07-14T00:00:00	2024-11-06T05:00:00	1	Precipitación	0
165736	7	Sololá	701	Sololá	2	El tablón	7	Julio	2023-07-14T00:00:00	2024-11-06T05:00:00	8	Radiación solar	0
165737	7	Sololá	701	Sololá	2	El tablón	7	Julio	2023-07-14T00:00:00	2024-11-06T06:00:00	2	Temperatura media	12.6
165738	7	Sololá	701	Sololá	2	El tablón	7	Julio	2023-07-14T00:00:00	2024-11-06T06:00:00	4	Temperatura máxima	12.9
165739	7	Sololá	701	Sololá	2	El tablón	7	Julio	2023-07-14T00:00:00	2024-11-06T06:00:00	3	Temperatura mínima	12.6
165740	7	Sololá	701	Sololá	2	El tablón	7	Julio	2023-07-14T00:00:00	2024-11-06T06:00:00	5	Humedad	87
165741	7	Sololá	701	Sololá	2	El tablón	7	Julio	2023-07-14T00:00:00	2024-11-06T06:00:00	6	Velocidad del viento	14.5
165742	7	Sololá	701	Sololá	2	El tablón	7	Julio	2023-07-14T00:00:00	2024-11-06T06:00:00	7	Dirección del viento	14.48
165743	7	Sololá	701	Sololá	2	El tablón	7	Julio	2023-07-14T00:00:00	2024-11-06T06:00:00	1	Precipitación	0
165744	7	Sololá	701	Sololá	2	El tablón	7	Julio	2023-07-14T00:00:00	2024-11-06T06:00:00	8	Radiación solar	3
165745	7	Sololá	701	Sololá	2	El tablón	7	Julio	2023-07-14T00:00:00	2024-11-06T07:00:00	2	Temperatura media	13
165746	7	Sololá	701	Sololá	2	El tablón	7	Julio	2023-07-14T00:00:00	2024-11-06T07:00:00	4	Temperatura máxima	13
165747	7	Sololá	701	Sololá	2	El tablón	7	Julio	2023-07-14T00:00:00	2024-11-06T07:00:00	3	Temperatura mínima	12.6
165748	7	Sololá	701	Sololá	2	El tablón	7	Julio	2023-07-14T00:00:00	2024-11-06T07:00:00	5	Humedad	85
165749	7	Sololá	701	Sololá	2	El tablón	7	Julio	2023-07-14T00:00:00	2024-11-06T07:00:00	6	Velocidad del viento	17.7
165750	7	Sololá	701	Sololá	2	El tablón	7	Julio	2023-07-14T00:00:00	2024-11-06T07:00:00	7	Dirección del viento	17.7
165751	7	Sololá	701	Sololá	2	El tablón	7	Julio	2023-07-14T00:00:00	2024-11-06T07:00:00	1	Precipitación	0
165752	7	Sololá	701	Sololá	2	El tablón	7	Julio	2023-07-14T00:00:00	2024-11-06T07:00:00	8	Radiación solar	86
165753	7	Sololá	701	Sololá	2	El tablón	7	Julio	2023-07-14T00:00:00	2024-11-06T08:00:00	2	Temperatura media	13.6
165754	7	Sololá	701	Sololá	2	El tablón	7	Julio	2023-07-14T00:00:00	2024-11-06T08:00:00	4	Temperatura máxima	13.7
165755	7	Sololá	701	Sololá	2	El tablón	7	Julio	2023-07-14T00:00:00	2024-11-06T08:00:00	3	Temperatura mínima	13
165756	7	Sololá	701	Sololá	2	El tablón	7	Julio	2023-07-14T00:00:00	2024-11-06T08:00:00	5	Humedad	83
165757	7	Sololá	701	Sololá	2	El tablón	7	Julio	2023-07-14T00:00:00	2024-11-06T08:00:00	6	Velocidad del viento	17.7
165758	7	Sololá	701	Sololá	2	El tablón	7	Julio	2023-07-14T00:00:00	2024-11-06T08:00:00	7	Dirección del viento	17.7
165759	7	Sololá	701	Sololá	2	El tablón	7	Julio	2023-07-14T00:00:00	2024-11-06T08:00:00	1	Precipitación	0
165760	7	Sololá	701	Sololá	2	El tablón	7	Julio	2023-07-14T00:00:00	2024-11-06T08:00:00	8	Radiación solar	211
165761	7	Sololá	701	Sololá	2	El tablón	7	Julio	2023-07-14T00:00:00	2024-11-06T09:00:00	2	Temperatura media	14.8
165762	7	Sololá	701	Sololá	2	El tablón	7	Julio	2023-07-14T00:00:00	2024-11-06T09:00:00	4	Temperatura máxima	14.8
165763	7	Sololá	701	Sololá	2	El tablón	7	Julio	2023-07-14T00:00:00	2024-11-06T09:00:00	3	Temperatura mínima	13.6
165764	7	Sololá	701	Sololá	2	El tablón	7	Julio	2023-07-14T00:00:00	2024-11-06T09:00:00	5	Humedad	79
165765	7	Sololá	701	Sololá	2	El tablón	7	Julio	2023-07-14T00:00:00	2024-11-06T09:00:00	6	Velocidad del viento	14.5
165766	7	Sololá	701	Sololá	2	El tablón	7	Julio	2023-07-14T00:00:00	2024-11-06T09:00:00	7	Dirección del viento	14.48
165767	7	Sololá	701	Sololá	2	El tablón	7	Julio	2023-07-14T00:00:00	2024-11-06T09:00:00	1	Precipitación	0
165768	7	Sololá	701	Sololá	2	El tablón	7	Julio	2023-07-14T00:00:00	2024-11-06T09:00:00	8	Radiación solar	340
165769	7	Sololá	701	Sololá	2	El tablón	7	Julio	2023-07-14T00:00:00	2024-11-06T10:00:00	2	Temperatura media	17.4
165770	7	Sololá	701	Sololá	2	El tablón	7	Julio	2023-07-14T00:00:00	2024-11-06T10:00:00	4	Temperatura máxima	17.4
165771	7	Sololá	701	Sololá	2	El tablón	7	Julio	2023-07-14T00:00:00	2024-11-06T10:00:00	3	Temperatura mínima	14.8
165772	7	Sololá	701	Sololá	2	El tablón	7	Julio	2023-07-14T00:00:00	2024-11-06T10:00:00	5	Humedad	71
165773	7	Sololá	701	Sololá	2	El tablón	7	Julio	2023-07-14T00:00:00	2024-11-06T10:00:00	6	Velocidad del viento	11.3
165774	7	Sololá	701	Sololá	2	El tablón	7	Julio	2023-07-14T00:00:00	2024-11-06T10:00:00	7	Dirección del viento	11.27
165775	7	Sololá	701	Sololá	2	El tablón	7	Julio	2023-07-14T00:00:00	2024-11-06T10:00:00	1	Precipitación	0
165776	7	Sololá	701	Sololá	2	El tablón	7	Julio	2023-07-14T00:00:00	2024-11-06T10:00:00	8	Radiación solar	731
165777	7	Sololá	701	Sololá	2	El tablón	7	Julio	2023-07-14T00:00:00	2024-11-06T11:00:00	2	Temperatura media	17.8
165778	7	Sololá	701	Sololá	2	El tablón	7	Julio	2023-07-14T00:00:00	2024-11-06T11:00:00	4	Temperatura máxima	17.8
165779	7	Sololá	701	Sololá	2	El tablón	7	Julio	2023-07-14T00:00:00	2024-11-06T11:00:00	3	Temperatura mínima	17.1
165780	7	Sololá	701	Sololá	2	El tablón	7	Julio	2023-07-14T00:00:00	2024-11-06T11:00:00	5	Humedad	70
165781	7	Sololá	701	Sololá	2	El tablón	7	Julio	2023-07-14T00:00:00	2024-11-06T11:00:00	6	Velocidad del viento	12.9
165782	7	Sololá	701	Sololá	2	El tablón	7	Julio	2023-07-14T00:00:00	2024-11-06T11:00:00	7	Dirección del viento	12.87
165783	7	Sololá	701	Sololá	2	El tablón	7	Julio	2023-07-14T00:00:00	2024-11-06T11:00:00	1	Precipitación	0
165784	7	Sololá	701	Sololá	2	El tablón	7	Julio	2023-07-14T00:00:00	2024-11-06T11:00:00	8	Radiación solar	742
165785	7	Sololá	701	Sololá	2	El tablón	7	Julio	2023-07-14T00:00:00	2024-11-06T12:00:00	2	Temperatura media	19.2
165786	7	Sololá	701	Sololá	2	El tablón	7	Julio	2023-07-14T00:00:00	2024-11-06T12:00:00	4	Temperatura máxima	19.2
165787	7	Sololá	701	Sololá	2	El tablón	7	Julio	2023-07-14T00:00:00	2024-11-06T12:00:00	3	Temperatura mínima	17.8
165788	7	Sololá	701	Sololá	2	El tablón	7	Julio	2023-07-14T00:00:00	2024-11-06T12:00:00	5	Humedad	65
165789	7	Sololá	701	Sololá	2	El tablón	7	Julio	2023-07-14T00:00:00	2024-11-06T12:00:00	6	Velocidad del viento	11.3
165790	7	Sololá	701	Sololá	2	El tablón	7	Julio	2023-07-14T00:00:00	2024-11-06T12:00:00	7	Dirección del viento	11.27
165791	7	Sololá	701	Sololá	2	El tablón	7	Julio	2023-07-14T00:00:00	2024-11-06T12:00:00	1	Precipitación	0
165792	7	Sololá	701	Sololá	2	El tablón	7	Julio	2023-07-14T00:00:00	2024-11-06T12:00:00	8	Radiación solar	926
165793	7	Sololá	701	Sololá	2	El tablón	7	Julio	2023-07-14T00:00:00	2024-11-06T13:00:00	2	Temperatura media	19.3
165794	7	Sololá	701	Sololá	2	El tablón	7	Julio	2023-07-14T00:00:00	2024-11-06T13:00:00	4	Temperatura máxima	19.4
165795	7	Sololá	701	Sololá	2	El tablón	7	Julio	2023-07-14T00:00:00	2024-11-06T13:00:00	3	Temperatura mínima	18.7
165796	7	Sololá	701	Sololá	2	El tablón	7	Julio	2023-07-14T00:00:00	2024-11-06T13:00:00	5	Humedad	64
165797	7	Sololá	701	Sololá	2	El tablón	7	Julio	2023-07-14T00:00:00	2024-11-06T13:00:00	6	Velocidad del viento	14.5
165798	7	Sololá	701	Sololá	2	El tablón	7	Julio	2023-07-14T00:00:00	2024-11-06T13:00:00	7	Dirección del viento	14.48
165799	7	Sololá	701	Sololá	2	El tablón	7	Julio	2023-07-14T00:00:00	2024-11-06T13:00:00	1	Precipitación	0
165800	7	Sololá	701	Sololá	2	El tablón	7	Julio	2023-07-14T00:00:00	2024-11-06T13:00:00	8	Radiación solar	932
165801	7	Sololá	701	Sololá	2	El tablón	7	Julio	2023-07-14T00:00:00	2024-11-06T14:00:00	2	Temperatura media	19.2
165802	7	Sololá	701	Sololá	2	El tablón	7	Julio	2023-07-14T00:00:00	2024-11-06T14:00:00	4	Temperatura máxima	19.3
165803	7	Sololá	701	Sololá	2	El tablón	7	Julio	2023-07-14T00:00:00	2024-11-06T14:00:00	3	Temperatura mínima	18.8
165804	7	Sololá	701	Sololá	2	El tablón	7	Julio	2023-07-14T00:00:00	2024-11-06T14:00:00	5	Humedad	65
165805	7	Sololá	701	Sololá	2	El tablón	7	Julio	2023-07-14T00:00:00	2024-11-06T14:00:00	6	Velocidad del viento	14.5
165806	7	Sololá	701	Sololá	2	El tablón	7	Julio	2023-07-14T00:00:00	2024-11-06T14:00:00	7	Dirección del viento	14.48
165807	7	Sololá	701	Sololá	2	El tablón	7	Julio	2023-07-14T00:00:00	2024-11-06T14:00:00	1	Precipitación	0
165808	7	Sololá	701	Sololá	2	El tablón	7	Julio	2023-07-14T00:00:00	2024-11-06T14:00:00	8	Radiación solar	808
165809	7	Sololá	701	Sololá	2	El tablón	7	Julio	2023-07-14T00:00:00	2024-11-06T15:00:00	2	Temperatura media	18.3
165810	7	Sololá	701	Sololá	2	El tablón	7	Julio	2023-07-14T00:00:00	2024-11-06T15:00:00	4	Temperatura máxima	19.3
165811	7	Sololá	701	Sololá	2	El tablón	7	Julio	2023-07-14T00:00:00	2024-11-06T15:00:00	3	Temperatura mínima	18.2
165812	7	Sololá	701	Sololá	2	El tablón	7	Julio	2023-07-14T00:00:00	2024-11-06T15:00:00	5	Humedad	71
165813	7	Sololá	701	Sololá	2	El tablón	7	Julio	2023-07-14T00:00:00	2024-11-06T15:00:00	6	Velocidad del viento	14.5
165814	7	Sololá	701	Sololá	2	El tablón	7	Julio	2023-07-14T00:00:00	2024-11-06T15:00:00	7	Dirección del viento	14.48
165815	7	Sololá	701	Sololá	2	El tablón	7	Julio	2023-07-14T00:00:00	2024-11-06T15:00:00	1	Precipitación	0
165816	7	Sololá	701	Sololá	2	El tablón	7	Julio	2023-07-14T00:00:00	2024-11-06T15:00:00	8	Radiación solar	667
165817	7	Sololá	701	Sololá	2	El tablón	7	Julio	2023-07-14T00:00:00	2024-11-06T16:00:00	2	Temperatura media	18.1
165818	7	Sololá	701	Sololá	2	El tablón	7	Julio	2023-07-14T00:00:00	2024-11-06T16:00:00	4	Temperatura máxima	19.1
165819	7	Sololá	701	Sololá	2	El tablón	7	Julio	2023-07-14T00:00:00	2024-11-06T16:00:00	3	Temperatura mínima	18
165820	7	Sololá	701	Sololá	2	El tablón	7	Julio	2023-07-14T00:00:00	2024-11-06T16:00:00	5	Humedad	72
165821	7	Sololá	701	Sololá	2	El tablón	7	Julio	2023-07-14T00:00:00	2024-11-06T16:00:00	6	Velocidad del viento	14.5
165822	7	Sololá	701	Sololá	2	El tablón	7	Julio	2023-07-14T00:00:00	2024-11-06T16:00:00	7	Dirección del viento	14.48
165823	7	Sololá	701	Sololá	2	El tablón	7	Julio	2023-07-14T00:00:00	2024-11-06T16:00:00	1	Precipitación	0
165824	7	Sololá	701	Sololá	2	El tablón	7	Julio	2023-07-14T00:00:00	2024-11-06T16:00:00	8	Radiación solar	445
165825	7	Sololá	701	Sololá	2	El tablón	7	Julio	2023-07-14T00:00:00	2024-11-06T17:00:00	2	Temperatura media	17.1
165826	7	Sololá	701	Sololá	2	El tablón	7	Julio	2023-07-14T00:00:00	2024-11-06T17:00:00	4	Temperatura máxima	18.1
165827	7	Sololá	701	Sololá	2	El tablón	7	Julio	2023-07-14T00:00:00	2024-11-06T17:00:00	3	Temperatura mínima	17
165828	7	Sololá	701	Sololá	2	El tablón	7	Julio	2023-07-14T00:00:00	2024-11-06T17:00:00	5	Humedad	74
165829	7	Sololá	701	Sololá	2	El tablón	7	Julio	2023-07-14T00:00:00	2024-11-06T17:00:00	6	Velocidad del viento	16.1
165830	7	Sololá	701	Sololá	2	El tablón	7	Julio	2023-07-14T00:00:00	2024-11-06T17:00:00	7	Dirección del viento	16.09
165831	7	Sololá	701	Sololá	2	El tablón	7	Julio	2023-07-14T00:00:00	2024-11-06T17:00:00	1	Precipitación	0
165832	7	Sololá	701	Sololá	2	El tablón	7	Julio	2023-07-14T00:00:00	2024-11-06T17:00:00	8	Radiación solar	286
165833	7	Sololá	701	Sololá	2	El tablón	7	Julio	2023-07-14T00:00:00	2024-11-06T18:00:00	2	Temperatura media	16.9
165834	7	Sololá	701	Sololá	2	El tablón	7	Julio	2023-07-14T00:00:00	2024-11-06T18:00:00	4	Temperatura máxima	17.4
165835	7	Sololá	701	Sololá	2	El tablón	7	Julio	2023-07-14T00:00:00	2024-11-06T18:00:00	3	Temperatura mínima	16.9
165836	7	Sololá	701	Sololá	2	El tablón	7	Julio	2023-07-14T00:00:00	2024-11-06T18:00:00	5	Humedad	77
165837	7	Sololá	701	Sololá	2	El tablón	7	Julio	2023-07-14T00:00:00	2024-11-06T18:00:00	6	Velocidad del viento	12.9
165838	7	Sololá	701	Sololá	2	El tablón	7	Julio	2023-07-14T00:00:00	2024-11-06T18:00:00	7	Dirección del viento	12.87
165839	7	Sololá	701	Sololá	2	El tablón	7	Julio	2023-07-14T00:00:00	2024-11-06T18:00:00	1	Precipitación	0
165840	7	Sololá	701	Sololá	2	El tablón	7	Julio	2023-07-14T00:00:00	2024-11-06T18:00:00	8	Radiación solar	193
165841	7	Sololá	701	Sololá	2	El tablón	7	Julio	2023-07-14T00:00:00	2024-11-06T19:00:00	2	Temperatura media	15.3
165842	7	Sololá	701	Sololá	2	El tablón	7	Julio	2023-07-14T00:00:00	2024-11-06T19:00:00	4	Temperatura máxima	16.9
165843	7	Sololá	701	Sololá	2	El tablón	7	Julio	2023-07-14T00:00:00	2024-11-06T19:00:00	3	Temperatura mínima	15.3
165844	7	Sololá	701	Sololá	2	El tablón	7	Julio	2023-07-14T00:00:00	2024-11-06T19:00:00	5	Humedad	83
165845	7	Sololá	701	Sololá	2	El tablón	7	Julio	2023-07-14T00:00:00	2024-11-06T19:00:00	6	Velocidad del viento	9.7
165846	7	Sololá	701	Sololá	2	El tablón	7	Julio	2023-07-14T00:00:00	2024-11-06T19:00:00	7	Dirección del viento	9.66
165847	7	Sololá	701	Sololá	2	El tablón	7	Julio	2023-07-14T00:00:00	2024-11-06T19:00:00	1	Precipitación	0
165848	7	Sololá	701	Sololá	2	El tablón	7	Julio	2023-07-14T00:00:00	2024-11-06T19:00:00	8	Radiación solar	0
165849	7	Sololá	701	Sololá	2	El tablón	7	Julio	2023-07-14T00:00:00	2024-11-06T20:00:00	2	Temperatura media	14.8
165850	7	Sololá	701	Sololá	2	El tablón	7	Julio	2023-07-14T00:00:00	2024-11-06T20:00:00	4	Temperatura máxima	15.3
165851	7	Sololá	701	Sololá	2	El tablón	7	Julio	2023-07-14T00:00:00	2024-11-06T20:00:00	3	Temperatura mínima	14.8
165852	7	Sololá	701	Sololá	2	El tablón	7	Julio	2023-07-14T00:00:00	2024-11-06T20:00:00	5	Humedad	86
165853	7	Sololá	701	Sololá	2	El tablón	7	Julio	2023-07-14T00:00:00	2024-11-06T20:00:00	6	Velocidad del viento	12.9
165854	7	Sololá	701	Sololá	2	El tablón	7	Julio	2023-07-14T00:00:00	2024-11-06T20:00:00	7	Dirección del viento	12.87
165855	7	Sololá	701	Sololá	2	El tablón	7	Julio	2023-07-14T00:00:00	2024-11-06T20:00:00	1	Precipitación	0
165856	7	Sololá	701	Sololá	2	El tablón	7	Julio	2023-07-14T00:00:00	2024-11-06T20:00:00	8	Radiación solar	0
165857	7	Sololá	701	Sololá	2	El tablón	7	Julio	2023-07-14T00:00:00	2024-11-06T21:00:00	2	Temperatura media	14.5
165858	7	Sololá	701	Sololá	2	El tablón	7	Julio	2023-07-14T00:00:00	2024-11-06T21:00:00	4	Temperatura máxima	14.8
165859	7	Sololá	701	Sololá	2	El tablón	7	Julio	2023-07-14T00:00:00	2024-11-06T21:00:00	3	Temperatura mínima	14.3
165860	7	Sololá	701	Sololá	2	El tablón	7	Julio	2023-07-14T00:00:00	2024-11-06T21:00:00	5	Humedad	86
165861	7	Sololá	701	Sololá	2	El tablón	7	Julio	2023-07-14T00:00:00	2024-11-06T21:00:00	6	Velocidad del viento	14.5
165862	7	Sololá	701	Sololá	2	El tablón	7	Julio	2023-07-14T00:00:00	2024-11-06T21:00:00	7	Dirección del viento	14.48
165863	7	Sololá	701	Sololá	2	El tablón	7	Julio	2023-07-14T00:00:00	2024-11-06T21:00:00	1	Precipitación	0
165864	7	Sololá	701	Sololá	2	El tablón	7	Julio	2023-07-14T00:00:00	2024-11-06T21:00:00	8	Radiación solar	0
165865	7	Sololá	701	Sololá	2	El tablón	7	Julio	2023-07-14T00:00:00	2024-11-06T22:00:00	2	Temperatura media	13.8
165866	7	Sololá	701	Sololá	2	El tablón	7	Julio	2023-07-14T00:00:00	2024-11-06T22:00:00	4	Temperatura máxima	14.5
165867	7	Sololá	701	Sololá	2	El tablón	7	Julio	2023-07-14T00:00:00	2024-11-06T22:00:00	3	Temperatura mínima	13.8
165868	7	Sololá	701	Sololá	2	El tablón	7	Julio	2023-07-14T00:00:00	2024-11-06T22:00:00	5	Humedad	86
165869	7	Sololá	701	Sololá	2	El tablón	7	Julio	2023-07-14T00:00:00	2024-11-06T22:00:00	6	Velocidad del viento	17.7
165870	7	Sololá	701	Sololá	2	El tablón	7	Julio	2023-07-14T00:00:00	2024-11-06T22:00:00	7	Dirección del viento	17.7
165871	7	Sololá	701	Sololá	2	El tablón	7	Julio	2023-07-14T00:00:00	2024-11-06T22:00:00	1	Precipitación	0
165872	7	Sololá	701	Sololá	2	El tablón	7	Julio	2023-07-14T00:00:00	2024-11-06T22:00:00	8	Radiación solar	0
165873	7	Sololá	701	Sololá	2	El tablón	7	Julio	2023-07-14T00:00:00	2024-11-06T23:00:00	2	Temperatura media	13.4
165874	7	Sololá	701	Sololá	2	El tablón	7	Julio	2023-07-14T00:00:00	2024-11-06T23:00:00	4	Temperatura máxima	13.7
165875	7	Sololá	701	Sololá	2	El tablón	7	Julio	2023-07-14T00:00:00	2024-11-06T23:00:00	3	Temperatura mínima	13.4
165876	7	Sololá	701	Sololá	2	El tablón	7	Julio	2023-07-14T00:00:00	2024-11-06T23:00:00	5	Humedad	86
165877	7	Sololá	701	Sololá	2	El tablón	7	Julio	2023-07-14T00:00:00	2024-11-06T23:00:00	6	Velocidad del viento	16.1
165878	7	Sololá	701	Sololá	2	El tablón	7	Julio	2023-07-14T00:00:00	2024-11-06T23:00:00	7	Dirección del viento	16.09
165879	7	Sololá	701	Sololá	2	El tablón	7	Julio	2023-07-14T00:00:00	2024-11-06T23:00:00	1	Precipitación	0
165880	7	Sololá	701	Sololá	2	El tablón	7	Julio	2023-07-14T00:00:00	2024-11-06T23:00:00	8	Radiación solar	0
165881	7	Sololá	701	Sololá	2	El tablón	7	Julio	2023-07-15T00:00:00	2024-11-06T00:00:00	2	Temperatura media	13.4
165882	7	Sololá	701	Sololá	2	El tablón	7	Julio	2023-07-15T00:00:00	2024-11-06T00:00:00	4	Temperatura máxima	13.5
165883	7	Sololá	701	Sololá	2	El tablón	7	Julio	2023-07-15T00:00:00	2024-11-06T00:00:00	3	Temperatura mínima	13.4
165884	7	Sololá	701	Sololá	2	El tablón	7	Julio	2023-07-15T00:00:00	2024-11-06T00:00:00	5	Humedad	86
165885	7	Sololá	701	Sololá	2	El tablón	7	Julio	2023-07-15T00:00:00	2024-11-06T00:00:00	6	Velocidad del viento	16.1
165886	7	Sololá	701	Sololá	2	El tablón	7	Julio	2023-07-15T00:00:00	2024-11-06T00:00:00	7	Dirección del viento	16.09
165887	7	Sololá	701	Sololá	2	El tablón	7	Julio	2023-07-15T00:00:00	2024-11-06T00:00:00	1	Precipitación	0
165888	7	Sololá	701	Sololá	2	El tablón	7	Julio	2023-07-15T00:00:00	2024-11-06T00:00:00	8	Radiación solar	0
165889	7	Sololá	701	Sololá	2	El tablón	7	Julio	2023-07-15T00:00:00	2024-11-06T01:00:00	2	Temperatura media	13.1
165890	7	Sololá	701	Sololá	2	El tablón	7	Julio	2023-07-15T00:00:00	2024-11-06T01:00:00	4	Temperatura máxima	13.4
165891	7	Sololá	701	Sololá	2	El tablón	7	Julio	2023-07-15T00:00:00	2024-11-06T01:00:00	3	Temperatura mínima	13.1
165892	7	Sololá	701	Sololá	2	El tablón	7	Julio	2023-07-15T00:00:00	2024-11-06T01:00:00	5	Humedad	86
165893	7	Sololá	701	Sololá	2	El tablón	7	Julio	2023-07-15T00:00:00	2024-11-06T01:00:00	6	Velocidad del viento	14.5
165894	7	Sololá	701	Sololá	2	El tablón	7	Julio	2023-07-15T00:00:00	2024-11-06T01:00:00	7	Dirección del viento	14.48
165895	7	Sololá	701	Sololá	2	El tablón	7	Julio	2023-07-15T00:00:00	2024-11-06T01:00:00	1	Precipitación	0
165896	7	Sololá	701	Sololá	2	El tablón	7	Julio	2023-07-15T00:00:00	2024-11-06T01:00:00	8	Radiación solar	0
165897	7	Sololá	701	Sololá	2	El tablón	7	Julio	2023-07-15T00:00:00	2024-11-06T02:00:00	2	Temperatura media	13
165898	7	Sololá	701	Sololá	2	El tablón	7	Julio	2023-07-15T00:00:00	2024-11-06T02:00:00	4	Temperatura máxima	13.1
165899	7	Sololá	701	Sololá	2	El tablón	7	Julio	2023-07-15T00:00:00	2024-11-06T02:00:00	3	Temperatura mínima	12.9
165900	7	Sololá	701	Sololá	2	El tablón	7	Julio	2023-07-15T00:00:00	2024-11-06T02:00:00	5	Humedad	85
165901	7	Sololá	701	Sololá	2	El tablón	7	Julio	2023-07-15T00:00:00	2024-11-06T02:00:00	6	Velocidad del viento	16.1
165902	7	Sololá	701	Sololá	2	El tablón	7	Julio	2023-07-15T00:00:00	2024-11-06T02:00:00	7	Dirección del viento	16.09
165903	7	Sololá	701	Sololá	2	El tablón	7	Julio	2023-07-15T00:00:00	2024-11-06T02:00:00	1	Precipitación	0
165904	7	Sololá	701	Sololá	2	El tablón	7	Julio	2023-07-15T00:00:00	2024-11-06T02:00:00	8	Radiación solar	0
165905	7	Sololá	701	Sololá	2	El tablón	7	Julio	2023-07-15T00:00:00	2024-11-06T03:00:00	2	Temperatura media	13.2
165906	7	Sololá	701	Sololá	2	El tablón	7	Julio	2023-07-15T00:00:00	2024-11-06T03:00:00	4	Temperatura máxima	13.3
165907	7	Sololá	701	Sololá	2	El tablón	7	Julio	2023-07-15T00:00:00	2024-11-06T03:00:00	3	Temperatura mínima	13
165908	7	Sololá	701	Sololá	2	El tablón	7	Julio	2023-07-15T00:00:00	2024-11-06T03:00:00	5	Humedad	85
165909	7	Sololá	701	Sololá	2	El tablón	7	Julio	2023-07-15T00:00:00	2024-11-06T03:00:00	6	Velocidad del viento	9.7
165910	7	Sololá	701	Sololá	2	El tablón	7	Julio	2023-07-15T00:00:00	2024-11-06T03:00:00	7	Dirección del viento	9.66
165911	7	Sololá	701	Sololá	2	El tablón	7	Julio	2023-07-15T00:00:00	2024-11-06T03:00:00	1	Precipitación	0
165912	7	Sololá	701	Sololá	2	El tablón	7	Julio	2023-07-15T00:00:00	2024-11-06T03:00:00	8	Radiación solar	0
165913	7	Sololá	701	Sololá	2	El tablón	7	Julio	2023-07-15T00:00:00	2024-11-06T04:00:00	2	Temperatura media	13.2
165914	7	Sololá	701	Sololá	2	El tablón	7	Julio	2023-07-15T00:00:00	2024-11-06T04:00:00	4	Temperatura máxima	13.2
165915	7	Sololá	701	Sololá	2	El tablón	7	Julio	2023-07-15T00:00:00	2024-11-06T04:00:00	3	Temperatura mínima	13
165916	7	Sololá	701	Sololá	2	El tablón	7	Julio	2023-07-15T00:00:00	2024-11-06T04:00:00	5	Humedad	86
165917	7	Sololá	701	Sololá	2	El tablón	7	Julio	2023-07-15T00:00:00	2024-11-06T04:00:00	6	Velocidad del viento	6.4
165918	7	Sololá	701	Sololá	2	El tablón	7	Julio	2023-07-15T00:00:00	2024-11-06T04:00:00	7	Dirección del viento	6.44
165919	7	Sololá	701	Sololá	2	El tablón	7	Julio	2023-07-15T00:00:00	2024-11-06T04:00:00	1	Precipitación	0
165920	7	Sololá	701	Sololá	2	El tablón	7	Julio	2023-07-15T00:00:00	2024-11-06T04:00:00	8	Radiación solar	0
165921	7	Sololá	701	Sololá	2	El tablón	7	Julio	2023-07-15T00:00:00	2024-11-06T05:00:00	2	Temperatura media	13.1
165922	7	Sololá	701	Sololá	2	El tablón	7	Julio	2023-07-15T00:00:00	2024-11-06T05:00:00	4	Temperatura máxima	13.2
165923	7	Sololá	701	Sololá	2	El tablón	7	Julio	2023-07-15T00:00:00	2024-11-06T05:00:00	3	Temperatura mínima	13.1
165924	7	Sololá	701	Sololá	2	El tablón	7	Julio	2023-07-15T00:00:00	2024-11-06T05:00:00	5	Humedad	87
165925	7	Sololá	701	Sololá	2	El tablón	7	Julio	2023-07-15T00:00:00	2024-11-06T05:00:00	6	Velocidad del viento	8
165926	7	Sololá	701	Sololá	2	El tablón	7	Julio	2023-07-15T00:00:00	2024-11-06T05:00:00	7	Dirección del viento	8.05
165927	7	Sololá	701	Sololá	2	El tablón	7	Julio	2023-07-15T00:00:00	2024-11-06T05:00:00	1	Precipitación	0
165928	7	Sololá	701	Sololá	2	El tablón	7	Julio	2023-07-15T00:00:00	2024-11-06T05:00:00	8	Radiación solar	0
165929	7	Sololá	701	Sololá	2	El tablón	7	Julio	2023-07-15T00:00:00	2024-11-06T06:00:00	2	Temperatura media	12.8
165930	7	Sololá	701	Sololá	2	El tablón	7	Julio	2023-07-15T00:00:00	2024-11-06T06:00:00	4	Temperatura máxima	13.1
165931	7	Sololá	701	Sololá	2	El tablón	7	Julio	2023-07-15T00:00:00	2024-11-06T06:00:00	3	Temperatura mínima	12.7
165932	7	Sololá	701	Sololá	2	El tablón	7	Julio	2023-07-15T00:00:00	2024-11-06T06:00:00	5	Humedad	88
165933	7	Sololá	701	Sololá	2	El tablón	7	Julio	2023-07-15T00:00:00	2024-11-06T06:00:00	6	Velocidad del viento	8
165934	7	Sololá	701	Sololá	2	El tablón	7	Julio	2023-07-15T00:00:00	2024-11-06T06:00:00	7	Dirección del viento	8.05
165935	7	Sololá	701	Sololá	2	El tablón	7	Julio	2023-07-15T00:00:00	2024-11-06T06:00:00	1	Precipitación	0
165936	7	Sololá	701	Sololá	2	El tablón	7	Julio	2023-07-15T00:00:00	2024-11-06T06:00:00	8	Radiación solar	1
165937	7	Sololá	701	Sololá	2	El tablón	7	Julio	2023-07-15T00:00:00	2024-11-06T07:00:00	2	Temperatura media	12.9
165938	7	Sololá	701	Sololá	2	El tablón	7	Julio	2023-07-15T00:00:00	2024-11-06T07:00:00	4	Temperatura máxima	12.9
165939	7	Sololá	701	Sololá	2	El tablón	7	Julio	2023-07-15T00:00:00	2024-11-06T07:00:00	3	Temperatura mínima	12.6
165940	7	Sololá	701	Sololá	2	El tablón	7	Julio	2023-07-15T00:00:00	2024-11-06T07:00:00	5	Humedad	89
165941	7	Sololá	701	Sololá	2	El tablón	7	Julio	2023-07-15T00:00:00	2024-11-06T07:00:00	6	Velocidad del viento	4.8
165942	7	Sololá	701	Sololá	2	El tablón	7	Julio	2023-07-15T00:00:00	2024-11-06T07:00:00	7	Dirección del viento	4.83
165943	7	Sololá	701	Sololá	2	El tablón	7	Julio	2023-07-15T00:00:00	2024-11-06T07:00:00	1	Precipitación	0
165944	7	Sololá	701	Sololá	2	El tablón	7	Julio	2023-07-15T00:00:00	2024-11-06T07:00:00	8	Radiación solar	46
165945	7	Sololá	701	Sololá	2	El tablón	7	Julio	2023-07-15T00:00:00	2024-11-06T08:00:00	2	Temperatura media	14.8
165946	7	Sololá	701	Sololá	2	El tablón	7	Julio	2023-07-15T00:00:00	2024-11-06T08:00:00	4	Temperatura máxima	14.8
165947	7	Sololá	701	Sololá	2	El tablón	7	Julio	2023-07-15T00:00:00	2024-11-06T08:00:00	3	Temperatura mínima	12.8
165948	7	Sololá	701	Sololá	2	El tablón	7	Julio	2023-07-15T00:00:00	2024-11-06T08:00:00	5	Humedad	85
165949	7	Sololá	701	Sololá	2	El tablón	7	Julio	2023-07-15T00:00:00	2024-11-06T08:00:00	6	Velocidad del viento	6.4
165950	7	Sololá	701	Sololá	2	El tablón	7	Julio	2023-07-15T00:00:00	2024-11-06T08:00:00	7	Dirección del viento	6.44
165951	7	Sololá	701	Sololá	2	El tablón	7	Julio	2023-07-15T00:00:00	2024-11-06T08:00:00	1	Precipitación	0
165952	7	Sololá	701	Sololá	2	El tablón	7	Julio	2023-07-15T00:00:00	2024-11-06T08:00:00	8	Radiación solar	196
165953	7	Sololá	701	Sololá	2	El tablón	7	Julio	2023-07-15T00:00:00	2024-11-06T09:00:00	2	Temperatura media	16.4
165954	7	Sololá	701	Sololá	2	El tablón	7	Julio	2023-07-15T00:00:00	2024-11-06T09:00:00	4	Temperatura máxima	16.4
165955	7	Sololá	701	Sololá	2	El tablón	7	Julio	2023-07-15T00:00:00	2024-11-06T09:00:00	3	Temperatura mínima	14.8
165956	7	Sololá	701	Sololá	2	El tablón	7	Julio	2023-07-15T00:00:00	2024-11-06T09:00:00	5	Humedad	76
165957	7	Sololá	701	Sololá	2	El tablón	7	Julio	2023-07-15T00:00:00	2024-11-06T09:00:00	6	Velocidad del viento	6.4
165958	7	Sololá	701	Sololá	2	El tablón	7	Julio	2023-07-15T00:00:00	2024-11-06T09:00:00	7	Dirección del viento	6.44
165959	7	Sololá	701	Sololá	2	El tablón	7	Julio	2023-07-15T00:00:00	2024-11-06T09:00:00	1	Precipitación	0
165960	7	Sololá	701	Sololá	2	El tablón	7	Julio	2023-07-15T00:00:00	2024-11-06T09:00:00	8	Radiación solar	339
165961	7	Sololá	701	Sololá	2	El tablón	7	Julio	2023-07-15T00:00:00	2024-11-06T10:00:00	2	Temperatura media	17.4
165962	7	Sololá	701	Sololá	2	El tablón	7	Julio	2023-07-15T00:00:00	2024-11-06T10:00:00	4	Temperatura máxima	17.6
165963	7	Sololá	701	Sololá	2	El tablón	7	Julio	2023-07-15T00:00:00	2024-11-06T10:00:00	3	Temperatura mínima	16.3
165964	7	Sololá	701	Sololá	2	El tablón	7	Julio	2023-07-15T00:00:00	2024-11-06T10:00:00	5	Humedad	74
165965	7	Sololá	701	Sololá	2	El tablón	7	Julio	2023-07-15T00:00:00	2024-11-06T10:00:00	6	Velocidad del viento	8
165966	7	Sololá	701	Sololá	2	El tablón	7	Julio	2023-07-15T00:00:00	2024-11-06T10:00:00	7	Dirección del viento	8.05
165967	7	Sololá	701	Sololá	2	El tablón	7	Julio	2023-07-15T00:00:00	2024-11-06T10:00:00	1	Precipitación	0
165968	7	Sololá	701	Sololá	2	El tablón	7	Julio	2023-07-15T00:00:00	2024-11-06T10:00:00	8	Radiación solar	502
165969	7	Sololá	701	Sololá	2	El tablón	7	Julio	2023-07-15T00:00:00	2024-11-06T11:00:00	2	Temperatura media	18.6
165970	7	Sololá	701	Sololá	2	El tablón	7	Julio	2023-07-15T00:00:00	2024-11-06T11:00:00	4	Temperatura máxima	18.8
165971	7	Sololá	701	Sololá	2	El tablón	7	Julio	2023-07-15T00:00:00	2024-11-06T11:00:00	3	Temperatura mínima	17.2
165972	7	Sololá	701	Sololá	2	El tablón	7	Julio	2023-07-15T00:00:00	2024-11-06T11:00:00	5	Humedad	71
165973	7	Sololá	701	Sololá	2	El tablón	7	Julio	2023-07-15T00:00:00	2024-11-06T11:00:00	6	Velocidad del viento	9.7
165974	7	Sololá	701	Sololá	2	El tablón	7	Julio	2023-07-15T00:00:00	2024-11-06T11:00:00	7	Dirección del viento	9.66
165975	7	Sololá	701	Sololá	2	El tablón	7	Julio	2023-07-15T00:00:00	2024-11-06T11:00:00	1	Precipitación	0
165976	7	Sololá	701	Sololá	2	El tablón	7	Julio	2023-07-15T00:00:00	2024-11-06T11:00:00	8	Radiación solar	681
165977	7	Sololá	701	Sololá	2	El tablón	7	Julio	2023-07-15T00:00:00	2024-11-06T12:00:00	2	Temperatura media	19.1
165978	7	Sololá	701	Sololá	2	El tablón	7	Julio	2023-07-15T00:00:00	2024-11-06T12:00:00	4	Temperatura máxima	19.2
165979	7	Sololá	701	Sololá	2	El tablón	7	Julio	2023-07-15T00:00:00	2024-11-06T12:00:00	3	Temperatura mínima	18.6
165980	7	Sololá	701	Sololá	2	El tablón	7	Julio	2023-07-15T00:00:00	2024-11-06T12:00:00	5	Humedad	69
165981	7	Sololá	701	Sololá	2	El tablón	7	Julio	2023-07-15T00:00:00	2024-11-06T12:00:00	6	Velocidad del viento	9.7
165982	7	Sololá	701	Sololá	2	El tablón	7	Julio	2023-07-15T00:00:00	2024-11-06T12:00:00	7	Dirección del viento	9.66
165983	7	Sololá	701	Sololá	2	El tablón	7	Julio	2023-07-15T00:00:00	2024-11-06T12:00:00	1	Precipitación	0
165984	7	Sololá	701	Sololá	2	El tablón	7	Julio	2023-07-15T00:00:00	2024-11-06T12:00:00	8	Radiación solar	796
165985	7	Sololá	701	Sololá	2	El tablón	7	Julio	2023-07-15T00:00:00	2024-11-06T13:00:00	2	Temperatura media	19.1
165986	7	Sololá	701	Sololá	2	El tablón	7	Julio	2023-07-15T00:00:00	2024-11-06T13:00:00	4	Temperatura máxima	19.3
165987	7	Sololá	701	Sololá	2	El tablón	7	Julio	2023-07-15T00:00:00	2024-11-06T13:00:00	3	Temperatura mínima	18.7
165988	7	Sololá	701	Sololá	2	El tablón	7	Julio	2023-07-15T00:00:00	2024-11-06T13:00:00	5	Humedad	78
165989	7	Sololá	701	Sololá	2	El tablón	7	Julio	2023-07-15T00:00:00	2024-11-06T13:00:00	6	Velocidad del viento	8
165990	7	Sololá	701	Sololá	2	El tablón	7	Julio	2023-07-15T00:00:00	2024-11-06T13:00:00	7	Dirección del viento	8.05
165991	7	Sololá	701	Sololá	2	El tablón	7	Julio	2023-07-15T00:00:00	2024-11-06T13:00:00	1	Precipitación	0
165992	7	Sololá	701	Sololá	2	El tablón	7	Julio	2023-07-15T00:00:00	2024-11-06T13:00:00	8	Radiación solar	688
165993	7	Sololá	701	Sololá	2	El tablón	7	Julio	2023-07-15T00:00:00	2024-11-06T14:00:00	2	Temperatura media	18
165994	7	Sololá	701	Sololá	2	El tablón	7	Julio	2023-07-15T00:00:00	2024-11-06T14:00:00	4	Temperatura máxima	19.1
165995	7	Sololá	701	Sololá	2	El tablón	7	Julio	2023-07-15T00:00:00	2024-11-06T14:00:00	3	Temperatura mínima	17.5
165996	7	Sololá	701	Sololá	2	El tablón	7	Julio	2023-07-15T00:00:00	2024-11-06T14:00:00	5	Humedad	74
165997	7	Sololá	701	Sololá	2	El tablón	7	Julio	2023-07-15T00:00:00	2024-11-06T14:00:00	6	Velocidad del viento	4.8
165998	7	Sololá	701	Sololá	2	El tablón	7	Julio	2023-07-15T00:00:00	2024-11-06T14:00:00	7	Dirección del viento	4.83
165999	7	Sololá	701	Sololá	2	El tablón	7	Julio	2023-07-15T00:00:00	2024-11-06T14:00:00	1	Precipitación	0
166000	7	Sololá	701	Sololá	2	El tablón	7	Julio	2023-07-15T00:00:00	2024-11-06T14:00:00	8	Radiación solar	253
166001	7	Sololá	701	Sololá	2	El tablón	7	Julio	2023-07-15T00:00:00	2024-11-06T15:00:00	2	Temperatura media	19.3
166002	7	Sololá	701	Sololá	2	El tablón	7	Julio	2023-07-15T00:00:00	2024-11-06T15:00:00	4	Temperatura máxima	19.7
166003	7	Sololá	701	Sololá	2	El tablón	7	Julio	2023-07-15T00:00:00	2024-11-06T15:00:00	3	Temperatura mínima	18
166004	7	Sololá	701	Sololá	2	El tablón	7	Julio	2023-07-15T00:00:00	2024-11-06T15:00:00	5	Humedad	68
166005	7	Sololá	701	Sololá	2	El tablón	7	Julio	2023-07-15T00:00:00	2024-11-06T15:00:00	6	Velocidad del viento	8
166006	7	Sololá	701	Sololá	2	El tablón	7	Julio	2023-07-15T00:00:00	2024-11-06T15:00:00	7	Dirección del viento	8.05
166007	7	Sololá	701	Sololá	2	El tablón	7	Julio	2023-07-15T00:00:00	2024-11-06T15:00:00	1	Precipitación	0
166008	7	Sololá	701	Sololá	2	El tablón	7	Julio	2023-07-15T00:00:00	2024-11-06T15:00:00	8	Radiación solar	594
166009	7	Sololá	701	Sololá	2	El tablón	7	Julio	2023-07-15T00:00:00	2024-11-06T16:00:00	2	Temperatura media	17.9
166010	7	Sololá	701	Sololá	2	El tablón	7	Julio	2023-07-15T00:00:00	2024-11-06T16:00:00	4	Temperatura máxima	20.1
166011	7	Sololá	701	Sololá	2	El tablón	7	Julio	2023-07-15T00:00:00	2024-11-06T16:00:00	3	Temperatura mínima	17.9
166012	7	Sololá	701	Sololá	2	El tablón	7	Julio	2023-07-15T00:00:00	2024-11-06T16:00:00	5	Humedad	73
166013	7	Sololá	701	Sololá	2	El tablón	7	Julio	2023-07-15T00:00:00	2024-11-06T16:00:00	6	Velocidad del viento	8
166014	7	Sololá	701	Sololá	2	El tablón	7	Julio	2023-07-15T00:00:00	2024-11-06T16:00:00	7	Dirección del viento	8.05
166015	7	Sololá	701	Sololá	2	El tablón	7	Julio	2023-07-15T00:00:00	2024-11-06T16:00:00	1	Precipitación	0
166016	7	Sololá	701	Sololá	2	El tablón	7	Julio	2023-07-15T00:00:00	2024-11-06T16:00:00	8	Radiación solar	414
166017	7	Sololá	701	Sololá	2	El tablón	7	Julio	2023-07-15T00:00:00	2024-11-06T17:00:00	2	Temperatura media	17.4
166018	7	Sololá	701	Sololá	2	El tablón	7	Julio	2023-07-15T00:00:00	2024-11-06T17:00:00	4	Temperatura máxima	18.1
166019	7	Sololá	701	Sololá	2	El tablón	7	Julio	2023-07-15T00:00:00	2024-11-06T17:00:00	3	Temperatura mínima	17.4
166020	7	Sololá	701	Sololá	2	El tablón	7	Julio	2023-07-15T00:00:00	2024-11-06T17:00:00	5	Humedad	71
166021	7	Sololá	701	Sololá	2	El tablón	7	Julio	2023-07-15T00:00:00	2024-11-06T17:00:00	6	Velocidad del viento	8
166022	7	Sololá	701	Sololá	2	El tablón	7	Julio	2023-07-15T00:00:00	2024-11-06T17:00:00	7	Dirección del viento	8.05
166023	7	Sololá	701	Sololá	2	El tablón	7	Julio	2023-07-15T00:00:00	2024-11-06T17:00:00	1	Precipitación	0
166024	7	Sololá	701	Sololá	2	El tablón	7	Julio	2023-07-15T00:00:00	2024-11-06T17:00:00	8	Radiación solar	200
166025	7	Sololá	701	Sololá	2	El tablón	7	Julio	2023-07-15T00:00:00	2024-11-06T18:00:00	2	Temperatura media	16.2
166026	7	Sololá	701	Sololá	2	El tablón	7	Julio	2023-07-15T00:00:00	2024-11-06T18:00:00	4	Temperatura máxima	17.4
166027	7	Sololá	701	Sololá	2	El tablón	7	Julio	2023-07-15T00:00:00	2024-11-06T18:00:00	3	Temperatura mínima	16.2
166028	7	Sololá	701	Sololá	2	El tablón	7	Julio	2023-07-15T00:00:00	2024-11-06T18:00:00	5	Humedad	79
166029	7	Sololá	701	Sololá	2	El tablón	7	Julio	2023-07-15T00:00:00	2024-11-06T18:00:00	6	Velocidad del viento	6.4
166030	7	Sololá	701	Sololá	2	El tablón	7	Julio	2023-07-15T00:00:00	2024-11-06T18:00:00	7	Dirección del viento	6.44
166031	7	Sololá	701	Sololá	2	El tablón	7	Julio	2023-07-15T00:00:00	2024-11-06T18:00:00	1	Precipitación	0
166032	7	Sololá	701	Sololá	2	El tablón	7	Julio	2023-07-15T00:00:00	2024-11-06T18:00:00	8	Radiación solar	91
166033	7	Sololá	701	Sololá	2	El tablón	7	Julio	2023-07-15T00:00:00	2024-11-06T19:00:00	2	Temperatura media	15.1
166034	7	Sololá	701	Sololá	2	El tablón	7	Julio	2023-07-15T00:00:00	2024-11-06T19:00:00	4	Temperatura máxima	16.2
166035	7	Sololá	701	Sololá	2	El tablón	7	Julio	2023-07-15T00:00:00	2024-11-06T19:00:00	3	Temperatura mínima	15.1
166036	7	Sololá	701	Sololá	2	El tablón	7	Julio	2023-07-15T00:00:00	2024-11-06T19:00:00	5	Humedad	85
166037	7	Sololá	701	Sololá	2	El tablón	7	Julio	2023-07-15T00:00:00	2024-11-06T19:00:00	6	Velocidad del viento	6.4
166038	7	Sololá	701	Sololá	2	El tablón	7	Julio	2023-07-15T00:00:00	2024-11-06T19:00:00	7	Dirección del viento	6.44
166039	7	Sololá	701	Sololá	2	El tablón	7	Julio	2023-07-15T00:00:00	2024-11-06T19:00:00	1	Precipitación	0
166040	7	Sololá	701	Sololá	2	El tablón	7	Julio	2023-07-15T00:00:00	2024-11-06T19:00:00	8	Radiación solar	0
166041	7	Sololá	701	Sololá	2	El tablón	7	Julio	2023-07-15T00:00:00	2024-11-06T20:00:00	2	Temperatura media	14.6
166042	7	Sololá	701	Sololá	2	El tablón	7	Julio	2023-07-15T00:00:00	2024-11-06T20:00:00	4	Temperatura máxima	15.1
166043	7	Sololá	701	Sololá	2	El tablón	7	Julio	2023-07-15T00:00:00	2024-11-06T20:00:00	3	Temperatura mínima	14.6
166044	7	Sololá	701	Sololá	2	El tablón	7	Julio	2023-07-15T00:00:00	2024-11-06T20:00:00	5	Humedad	87
166045	7	Sololá	701	Sololá	2	El tablón	7	Julio	2023-07-15T00:00:00	2024-11-06T20:00:00	6	Velocidad del viento	8
166046	7	Sololá	701	Sololá	2	El tablón	7	Julio	2023-07-15T00:00:00	2024-11-06T20:00:00	7	Dirección del viento	8.05
166047	7	Sololá	701	Sololá	2	El tablón	7	Julio	2023-07-15T00:00:00	2024-11-06T20:00:00	1	Precipitación	1
166048	7	Sololá	701	Sololá	2	El tablón	7	Julio	2023-07-15T00:00:00	2024-11-06T20:00:00	8	Radiación solar	0
166049	7	Sololá	701	Sololá	2	El tablón	7	Julio	2023-07-15T00:00:00	2024-11-06T21:00:00	2	Temperatura media	14.1
166050	7	Sololá	701	Sololá	2	El tablón	7	Julio	2023-07-15T00:00:00	2024-11-06T21:00:00	4	Temperatura máxima	14.6
166051	7	Sololá	701	Sololá	2	El tablón	7	Julio	2023-07-15T00:00:00	2024-11-06T21:00:00	3	Temperatura mínima	14
166052	7	Sololá	701	Sololá	2	El tablón	7	Julio	2023-07-15T00:00:00	2024-11-06T21:00:00	5	Humedad	88
166053	7	Sololá	701	Sololá	2	El tablón	7	Julio	2023-07-15T00:00:00	2024-11-06T21:00:00	6	Velocidad del viento	6.4
166054	7	Sololá	701	Sololá	2	El tablón	7	Julio	2023-07-15T00:00:00	2024-11-06T21:00:00	7	Dirección del viento	6.44
166055	7	Sololá	701	Sololá	2	El tablón	7	Julio	2023-07-15T00:00:00	2024-11-06T21:00:00	1	Precipitación	0.4
166056	7	Sololá	701	Sololá	2	El tablón	7	Julio	2023-07-15T00:00:00	2024-11-06T21:00:00	8	Radiación solar	0
166057	7	Sololá	701	Sololá	2	El tablón	7	Julio	2023-07-15T00:00:00	2024-11-06T22:00:00	2	Temperatura media	13.5
166058	7	Sololá	701	Sololá	2	El tablón	7	Julio	2023-07-15T00:00:00	2024-11-06T22:00:00	4	Temperatura máxima	14.1
166059	7	Sololá	701	Sololá	2	El tablón	7	Julio	2023-07-15T00:00:00	2024-11-06T22:00:00	3	Temperatura mínima	13.4
166060	7	Sololá	701	Sololá	2	El tablón	7	Julio	2023-07-15T00:00:00	2024-11-06T22:00:00	5	Humedad	88
166061	7	Sololá	701	Sololá	2	El tablón	7	Julio	2023-07-15T00:00:00	2024-11-06T22:00:00	6	Velocidad del viento	6.4
166062	7	Sololá	701	Sololá	2	El tablón	7	Julio	2023-07-15T00:00:00	2024-11-06T22:00:00	7	Dirección del viento	6.44
166063	7	Sololá	701	Sololá	2	El tablón	7	Julio	2023-07-15T00:00:00	2024-11-06T22:00:00	1	Precipitación	0
166064	7	Sololá	701	Sololá	2	El tablón	7	Julio	2023-07-15T00:00:00	2024-11-06T22:00:00	8	Radiación solar	0
166065	7	Sololá	701	Sololá	2	El tablón	7	Julio	2023-07-15T00:00:00	2024-11-06T23:00:00	2	Temperatura media	13.4
166066	7	Sololá	701	Sololá	2	El tablón	7	Julio	2023-07-15T00:00:00	2024-11-06T23:00:00	4	Temperatura máxima	13.6
166067	7	Sololá	701	Sololá	2	El tablón	7	Julio	2023-07-15T00:00:00	2024-11-06T23:00:00	3	Temperatura mínima	13.4
166068	7	Sololá	701	Sololá	2	El tablón	7	Julio	2023-07-15T00:00:00	2024-11-06T23:00:00	5	Humedad	88
166069	7	Sololá	701	Sololá	2	El tablón	7	Julio	2023-07-15T00:00:00	2024-11-06T23:00:00	6	Velocidad del viento	8
166070	7	Sololá	701	Sololá	2	El tablón	7	Julio	2023-07-15T00:00:00	2024-11-06T23:00:00	7	Dirección del viento	8.05
166071	7	Sololá	701	Sololá	2	El tablón	7	Julio	2023-07-15T00:00:00	2024-11-06T23:00:00	1	Precipitación	0
166072	7	Sololá	701	Sololá	2	El tablón	7	Julio	2023-07-15T00:00:00	2024-11-06T23:00:00	8	Radiación solar	0
166073	7	Sololá	701	Sololá	2	El tablón	7	Julio	2023-07-16T00:00:00	2024-11-06T00:00:00	2	Temperatura media	13.4
166074	7	Sololá	701	Sololá	2	El tablón	7	Julio	2023-07-16T00:00:00	2024-11-06T00:00:00	4	Temperatura máxima	13.7
166075	7	Sololá	701	Sololá	2	El tablón	7	Julio	2023-07-16T00:00:00	2024-11-06T00:00:00	3	Temperatura mínima	13.4
166076	7	Sololá	701	Sololá	2	El tablón	7	Julio	2023-07-16T00:00:00	2024-11-06T00:00:00	5	Humedad	88
166077	7	Sololá	701	Sololá	2	El tablón	7	Julio	2023-07-16T00:00:00	2024-11-06T00:00:00	6	Velocidad del viento	8
166078	7	Sololá	701	Sololá	2	El tablón	7	Julio	2023-07-16T00:00:00	2024-11-06T00:00:00	7	Dirección del viento	8.05
166079	7	Sololá	701	Sololá	2	El tablón	7	Julio	2023-07-16T00:00:00	2024-11-06T00:00:00	1	Precipitación	0
166080	7	Sololá	701	Sololá	2	El tablón	7	Julio	2023-07-16T00:00:00	2024-11-06T00:00:00	8	Radiación solar	0
166081	7	Sololá	701	Sololá	2	El tablón	7	Julio	2023-07-16T00:00:00	2024-11-06T01:00:00	2	Temperatura media	13.7
166082	7	Sololá	701	Sololá	2	El tablón	7	Julio	2023-07-16T00:00:00	2024-11-06T01:00:00	4	Temperatura máxima	13.7
166083	7	Sololá	701	Sololá	2	El tablón	7	Julio	2023-07-16T00:00:00	2024-11-06T01:00:00	3	Temperatura mínima	13.3
166084	7	Sololá	701	Sololá	2	El tablón	7	Julio	2023-07-16T00:00:00	2024-11-06T01:00:00	5	Humedad	87
166085	7	Sololá	701	Sololá	2	El tablón	7	Julio	2023-07-16T00:00:00	2024-11-06T01:00:00	6	Velocidad del viento	6.4
166086	7	Sololá	701	Sololá	2	El tablón	7	Julio	2023-07-16T00:00:00	2024-11-06T01:00:00	7	Dirección del viento	6.44
166087	7	Sololá	701	Sololá	2	El tablón	7	Julio	2023-07-16T00:00:00	2024-11-06T01:00:00	1	Precipitación	0
166088	7	Sololá	701	Sololá	2	El tablón	7	Julio	2023-07-16T00:00:00	2024-11-06T01:00:00	8	Radiación solar	0
166089	7	Sololá	701	Sololá	2	El tablón	7	Julio	2023-07-16T00:00:00	2024-11-06T02:00:00	2	Temperatura media	13.2
166090	7	Sololá	701	Sololá	2	El tablón	7	Julio	2023-07-16T00:00:00	2024-11-06T02:00:00	4	Temperatura máxima	13.7
166091	7	Sololá	701	Sololá	2	El tablón	7	Julio	2023-07-16T00:00:00	2024-11-06T02:00:00	3	Temperatura mínima	13.2
166092	7	Sololá	701	Sololá	2	El tablón	7	Julio	2023-07-16T00:00:00	2024-11-06T02:00:00	5	Humedad	88
166093	7	Sololá	701	Sololá	2	El tablón	7	Julio	2023-07-16T00:00:00	2024-11-06T02:00:00	6	Velocidad del viento	6.4
166094	7	Sololá	701	Sololá	2	El tablón	7	Julio	2023-07-16T00:00:00	2024-11-06T02:00:00	7	Dirección del viento	6.44
166095	7	Sololá	701	Sololá	2	El tablón	7	Julio	2023-07-16T00:00:00	2024-11-06T02:00:00	1	Precipitación	0.4
166096	7	Sololá	701	Sololá	2	El tablón	7	Julio	2023-07-16T00:00:00	2024-11-06T02:00:00	8	Radiación solar	0
166097	7	Sololá	701	Sololá	2	El tablón	7	Julio	2023-07-16T00:00:00	2024-11-06T03:00:00	2	Temperatura media	13.2
166098	7	Sololá	701	Sololá	2	El tablón	7	Julio	2023-07-16T00:00:00	2024-11-06T03:00:00	4	Temperatura máxima	13.3
166099	7	Sololá	701	Sololá	2	El tablón	7	Julio	2023-07-16T00:00:00	2024-11-06T03:00:00	3	Temperatura mínima	13.1
166100	7	Sololá	701	Sololá	2	El tablón	7	Julio	2023-07-16T00:00:00	2024-11-06T03:00:00	5	Humedad	88
166101	7	Sololá	701	Sololá	2	El tablón	7	Julio	2023-07-16T00:00:00	2024-11-06T03:00:00	6	Velocidad del viento	4.8
166102	7	Sololá	701	Sololá	2	El tablón	7	Julio	2023-07-16T00:00:00	2024-11-06T03:00:00	7	Dirección del viento	4.83
166103	7	Sololá	701	Sololá	2	El tablón	7	Julio	2023-07-16T00:00:00	2024-11-06T03:00:00	1	Precipitación	0.2
166104	7	Sololá	701	Sololá	2	El tablón	7	Julio	2023-07-16T00:00:00	2024-11-06T03:00:00	8	Radiación solar	0
166105	7	Sololá	701	Sololá	2	El tablón	7	Julio	2023-07-16T00:00:00	2024-11-06T04:00:00	2	Temperatura media	13.1
166106	7	Sololá	701	Sololá	2	El tablón	7	Julio	2023-07-16T00:00:00	2024-11-06T04:00:00	4	Temperatura máxima	13.2
166107	7	Sololá	701	Sololá	2	El tablón	7	Julio	2023-07-16T00:00:00	2024-11-06T04:00:00	3	Temperatura mínima	12.9
166108	7	Sololá	701	Sololá	2	El tablón	7	Julio	2023-07-16T00:00:00	2024-11-06T04:00:00	5	Humedad	88
166109	7	Sololá	701	Sololá	2	El tablón	7	Julio	2023-07-16T00:00:00	2024-11-06T04:00:00	6	Velocidad del viento	8
166110	7	Sololá	701	Sololá	2	El tablón	7	Julio	2023-07-16T00:00:00	2024-11-06T04:00:00	7	Dirección del viento	8.05
166111	7	Sololá	701	Sololá	2	El tablón	7	Julio	2023-07-16T00:00:00	2024-11-06T04:00:00	1	Precipitación	0
166112	7	Sololá	701	Sololá	2	El tablón	7	Julio	2023-07-16T00:00:00	2024-11-06T04:00:00	8	Radiación solar	0
166113	7	Sololá	701	Sololá	2	El tablón	7	Julio	2023-07-16T00:00:00	2024-11-06T05:00:00	2	Temperatura media	13
166114	7	Sololá	701	Sololá	2	El tablón	7	Julio	2023-07-16T00:00:00	2024-11-06T05:00:00	4	Temperatura máxima	13.2
166115	7	Sololá	701	Sololá	2	El tablón	7	Julio	2023-07-16T00:00:00	2024-11-06T05:00:00	3	Temperatura mínima	12.9
166116	7	Sololá	701	Sololá	2	El tablón	7	Julio	2023-07-16T00:00:00	2024-11-06T05:00:00	5	Humedad	88
166117	7	Sololá	701	Sololá	2	El tablón	7	Julio	2023-07-16T00:00:00	2024-11-06T05:00:00	6	Velocidad del viento	11.3
166118	7	Sololá	701	Sololá	2	El tablón	7	Julio	2023-07-16T00:00:00	2024-11-06T05:00:00	7	Dirección del viento	11.27
166119	7	Sololá	701	Sololá	2	El tablón	7	Julio	2023-07-16T00:00:00	2024-11-06T05:00:00	1	Precipitación	0
166120	7	Sololá	701	Sololá	2	El tablón	7	Julio	2023-07-16T00:00:00	2024-11-06T05:00:00	8	Radiación solar	0
166121	7	Sololá	701	Sololá	2	El tablón	7	Julio	2023-07-16T00:00:00	2024-11-06T06:00:00	2	Temperatura media	13.2
166122	7	Sololá	701	Sololá	2	El tablón	7	Julio	2023-07-16T00:00:00	2024-11-06T06:00:00	4	Temperatura máxima	13.2
166123	7	Sololá	701	Sololá	2	El tablón	7	Julio	2023-07-16T00:00:00	2024-11-06T06:00:00	3	Temperatura mínima	12.9
166124	7	Sololá	701	Sololá	2	El tablón	7	Julio	2023-07-16T00:00:00	2024-11-06T06:00:00	5	Humedad	88
166125	7	Sololá	701	Sololá	2	El tablón	7	Julio	2023-07-16T00:00:00	2024-11-06T06:00:00	6	Velocidad del viento	11.3
166126	7	Sololá	701	Sololá	2	El tablón	7	Julio	2023-07-16T00:00:00	2024-11-06T06:00:00	7	Dirección del viento	11.27
166127	7	Sololá	701	Sololá	2	El tablón	7	Julio	2023-07-16T00:00:00	2024-11-06T06:00:00	1	Precipitación	0
166128	7	Sololá	701	Sololá	2	El tablón	7	Julio	2023-07-16T00:00:00	2024-11-06T06:00:00	8	Radiación solar	2
166129	7	Sololá	701	Sololá	2	El tablón	7	Julio	2023-07-16T00:00:00	2024-11-06T07:00:00	2	Temperatura media	13.7
166130	7	Sololá	701	Sololá	2	El tablón	7	Julio	2023-07-16T00:00:00	2024-11-06T07:00:00	4	Temperatura máxima	13.7
166131	7	Sololá	701	Sololá	2	El tablón	7	Julio	2023-07-16T00:00:00	2024-11-06T07:00:00	3	Temperatura mínima	13.1
166132	7	Sololá	701	Sololá	2	El tablón	7	Julio	2023-07-16T00:00:00	2024-11-06T07:00:00	5	Humedad	87
166133	7	Sololá	701	Sololá	2	El tablón	7	Julio	2023-07-16T00:00:00	2024-11-06T07:00:00	6	Velocidad del viento	12.9
166134	7	Sololá	701	Sololá	2	El tablón	7	Julio	2023-07-16T00:00:00	2024-11-06T07:00:00	7	Dirección del viento	12.87
166135	7	Sololá	701	Sololá	2	El tablón	7	Julio	2023-07-16T00:00:00	2024-11-06T07:00:00	1	Precipitación	0
166136	7	Sololá	701	Sololá	2	El tablón	7	Julio	2023-07-16T00:00:00	2024-11-06T07:00:00	8	Radiación solar	74
166137	7	Sololá	701	Sololá	2	El tablón	7	Julio	2023-07-16T00:00:00	2024-11-06T08:00:00	2	Temperatura media	14.2
166138	7	Sololá	701	Sololá	2	El tablón	7	Julio	2023-07-16T00:00:00	2024-11-06T08:00:00	4	Temperatura máxima	14.4
166139	7	Sololá	701	Sololá	2	El tablón	7	Julio	2023-07-16T00:00:00	2024-11-06T08:00:00	3	Temperatura mínima	13.7
166140	7	Sololá	701	Sololá	2	El tablón	7	Julio	2023-07-16T00:00:00	2024-11-06T08:00:00	5	Humedad	86
166141	7	Sololá	701	Sololá	2	El tablón	7	Julio	2023-07-16T00:00:00	2024-11-06T08:00:00	6	Velocidad del viento	12.9
166142	7	Sololá	701	Sololá	2	El tablón	7	Julio	2023-07-16T00:00:00	2024-11-06T08:00:00	7	Dirección del viento	12.87
166143	7	Sololá	701	Sololá	2	El tablón	7	Julio	2023-07-16T00:00:00	2024-11-06T08:00:00	1	Precipitación	0
166144	7	Sololá	701	Sololá	2	El tablón	7	Julio	2023-07-16T00:00:00	2024-11-06T08:00:00	8	Radiación solar	161
166145	7	Sololá	701	Sololá	2	El tablón	7	Julio	2023-07-16T00:00:00	2024-11-06T09:00:00	2	Temperatura media	15.3
166146	7	Sololá	701	Sololá	2	El tablón	7	Julio	2023-07-16T00:00:00	2024-11-06T09:00:00	4	Temperatura máxima	15.3
166147	7	Sololá	701	Sololá	2	El tablón	7	Julio	2023-07-16T00:00:00	2024-11-06T09:00:00	3	Temperatura mínima	14.2
166148	7	Sololá	701	Sololá	2	El tablón	7	Julio	2023-07-16T00:00:00	2024-11-06T09:00:00	5	Humedad	85
166149	7	Sololá	701	Sololá	2	El tablón	7	Julio	2023-07-16T00:00:00	2024-11-06T09:00:00	6	Velocidad del viento	12.9
166150	7	Sololá	701	Sololá	2	El tablón	7	Julio	2023-07-16T00:00:00	2024-11-06T09:00:00	7	Dirección del viento	12.87
166151	7	Sololá	701	Sololá	2	El tablón	7	Julio	2023-07-16T00:00:00	2024-11-06T09:00:00	1	Precipitación	0
166152	7	Sololá	701	Sololá	2	El tablón	7	Julio	2023-07-16T00:00:00	2024-11-06T09:00:00	8	Radiación solar	289
166153	7	Sololá	701	Sololá	2	El tablón	7	Julio	2023-07-16T00:00:00	2024-11-06T10:00:00	2	Temperatura media	16.8
166154	7	Sololá	701	Sololá	2	El tablón	7	Julio	2023-07-16T00:00:00	2024-11-06T10:00:00	4	Temperatura máxima	16.8
166155	7	Sololá	701	Sololá	2	El tablón	7	Julio	2023-07-16T00:00:00	2024-11-06T10:00:00	3	Temperatura mínima	15.3
166156	7	Sololá	701	Sololá	2	El tablón	7	Julio	2023-07-16T00:00:00	2024-11-06T10:00:00	5	Humedad	79
166157	7	Sololá	701	Sololá	2	El tablón	7	Julio	2023-07-16T00:00:00	2024-11-06T10:00:00	6	Velocidad del viento	12.9
166158	7	Sololá	701	Sololá	2	El tablón	7	Julio	2023-07-16T00:00:00	2024-11-06T10:00:00	7	Dirección del viento	12.87
166159	7	Sololá	701	Sololá	2	El tablón	7	Julio	2023-07-16T00:00:00	2024-11-06T10:00:00	1	Precipitación	0
166160	7	Sololá	701	Sololá	2	El tablón	7	Julio	2023-07-16T00:00:00	2024-11-06T10:00:00	8	Radiación solar	661
166161	7	Sololá	701	Sololá	2	El tablón	7	Julio	2023-07-16T00:00:00	2024-11-06T11:00:00	2	Temperatura media	17.3
166162	7	Sololá	701	Sololá	2	El tablón	7	Julio	2023-07-16T00:00:00	2024-11-06T11:00:00	4	Temperatura máxima	17.9
166163	7	Sololá	701	Sololá	2	El tablón	7	Julio	2023-07-16T00:00:00	2024-11-06T11:00:00	3	Temperatura mínima	16.7
166164	7	Sololá	701	Sololá	2	El tablón	7	Julio	2023-07-16T00:00:00	2024-11-06T11:00:00	5	Humedad	78
166165	7	Sololá	701	Sololá	2	El tablón	7	Julio	2023-07-16T00:00:00	2024-11-06T11:00:00	6	Velocidad del viento	14.5
166166	7	Sololá	701	Sololá	2	El tablón	7	Julio	2023-07-16T00:00:00	2024-11-06T11:00:00	7	Dirección del viento	14.48
166167	7	Sololá	701	Sololá	2	El tablón	7	Julio	2023-07-16T00:00:00	2024-11-06T11:00:00	1	Precipitación	0
166168	7	Sololá	701	Sololá	2	El tablón	7	Julio	2023-07-16T00:00:00	2024-11-06T11:00:00	8	Radiación solar	746
166169	7	Sololá	701	Sololá	2	El tablón	7	Julio	2023-07-16T00:00:00	2024-11-06T12:00:00	2	Temperatura media	17.2
166170	7	Sololá	701	Sololá	2	El tablón	7	Julio	2023-07-16T00:00:00	2024-11-06T12:00:00	4	Temperatura máxima	17.4
166171	7	Sololá	701	Sololá	2	El tablón	7	Julio	2023-07-16T00:00:00	2024-11-06T12:00:00	3	Temperatura mínima	16.7
166172	7	Sololá	701	Sololá	2	El tablón	7	Julio	2023-07-16T00:00:00	2024-11-06T12:00:00	5	Humedad	79
166173	7	Sololá	701	Sololá	2	El tablón	7	Julio	2023-07-16T00:00:00	2024-11-06T12:00:00	6	Velocidad del viento	9.7
166174	7	Sololá	701	Sololá	2	El tablón	7	Julio	2023-07-16T00:00:00	2024-11-06T12:00:00	7	Dirección del viento	9.66
166175	7	Sololá	701	Sololá	2	El tablón	7	Julio	2023-07-16T00:00:00	2024-11-06T12:00:00	1	Precipitación	0
166176	7	Sololá	701	Sololá	2	El tablón	7	Julio	2023-07-16T00:00:00	2024-11-06T12:00:00	8	Radiación solar	453
166177	7	Sololá	701	Sololá	2	El tablón	7	Julio	2023-07-16T00:00:00	2024-11-06T13:00:00	2	Temperatura media	18.1
166178	7	Sololá	701	Sololá	2	El tablón	7	Julio	2023-07-16T00:00:00	2024-11-06T13:00:00	4	Temperatura máxima	18.2
166179	7	Sololá	701	Sololá	2	El tablón	7	Julio	2023-07-16T00:00:00	2024-11-06T13:00:00	3	Temperatura mínima	17.2
166180	7	Sololá	701	Sololá	2	El tablón	7	Julio	2023-07-16T00:00:00	2024-11-06T13:00:00	5	Humedad	76
166181	7	Sololá	701	Sololá	2	El tablón	7	Julio	2023-07-16T00:00:00	2024-11-06T13:00:00	6	Velocidad del viento	6.4
166182	7	Sololá	701	Sololá	2	El tablón	7	Julio	2023-07-16T00:00:00	2024-11-06T13:00:00	7	Dirección del viento	6.44
166183	7	Sololá	701	Sololá	2	El tablón	7	Julio	2023-07-16T00:00:00	2024-11-06T13:00:00	1	Precipitación	0
166184	7	Sololá	701	Sololá	2	El tablón	7	Julio	2023-07-16T00:00:00	2024-11-06T13:00:00	8	Radiación solar	468
166185	7	Sololá	701	Sololá	2	El tablón	7	Julio	2023-07-16T00:00:00	2024-11-06T14:00:00	2	Temperatura media	18.4
166186	7	Sololá	701	Sololá	2	El tablón	7	Julio	2023-07-16T00:00:00	2024-11-06T14:00:00	4	Temperatura máxima	18.8
166187	7	Sololá	701	Sololá	2	El tablón	7	Julio	2023-07-16T00:00:00	2024-11-06T14:00:00	3	Temperatura mínima	18.1
166188	7	Sololá	701	Sololá	2	El tablón	7	Julio	2023-07-16T00:00:00	2024-11-06T14:00:00	5	Humedad	77
166189	7	Sololá	701	Sololá	2	El tablón	7	Julio	2023-07-16T00:00:00	2024-11-06T14:00:00	6	Velocidad del viento	3.2
166190	7	Sololá	701	Sololá	2	El tablón	7	Julio	2023-07-16T00:00:00	2024-11-06T14:00:00	7	Dirección del viento	3.22
166191	7	Sololá	701	Sololá	2	El tablón	7	Julio	2023-07-16T00:00:00	2024-11-06T14:00:00	1	Precipitación	0
166192	7	Sololá	701	Sololá	2	El tablón	7	Julio	2023-07-16T00:00:00	2024-11-06T14:00:00	8	Radiación solar	263
166193	7	Sololá	701	Sololá	2	El tablón	7	Julio	2023-07-16T00:00:00	2024-11-06T15:00:00	2	Temperatura media	18.9
166194	7	Sololá	701	Sololá	2	El tablón	7	Julio	2023-07-16T00:00:00	2024-11-06T15:00:00	4	Temperatura máxima	18.9
166195	7	Sololá	701	Sololá	2	El tablón	7	Julio	2023-07-16T00:00:00	2024-11-06T15:00:00	3	Temperatura mínima	18.3
166196	7	Sololá	701	Sololá	2	El tablón	7	Julio	2023-07-16T00:00:00	2024-11-06T15:00:00	5	Humedad	72
166197	7	Sololá	701	Sololá	2	El tablón	7	Julio	2023-07-16T00:00:00	2024-11-06T15:00:00	6	Velocidad del viento	6.4
166198	7	Sololá	701	Sololá	2	El tablón	7	Julio	2023-07-16T00:00:00	2024-11-06T15:00:00	7	Dirección del viento	6.44
166199	7	Sololá	701	Sololá	2	El tablón	7	Julio	2023-07-16T00:00:00	2024-11-06T15:00:00	1	Precipitación	0
166200	7	Sololá	701	Sololá	2	El tablón	7	Julio	2023-07-16T00:00:00	2024-11-06T15:00:00	8	Radiación solar	313
166201	7	Sololá	701	Sololá	2	El tablón	7	Julio	2023-07-16T00:00:00	2024-11-06T16:00:00	2	Temperatura media	14.9
166202	7	Sololá	701	Sololá	2	El tablón	7	Julio	2023-07-16T00:00:00	2024-11-06T16:00:00	4	Temperatura máxima	18.9
166203	7	Sololá	701	Sololá	2	El tablón	7	Julio	2023-07-16T00:00:00	2024-11-06T16:00:00	3	Temperatura mínima	14.9
166204	7	Sololá	701	Sololá	2	El tablón	7	Julio	2023-07-16T00:00:00	2024-11-06T16:00:00	5	Humedad	88
166205	7	Sololá	701	Sololá	2	El tablón	7	Julio	2023-07-16T00:00:00	2024-11-06T16:00:00	6	Velocidad del viento	8
166206	7	Sololá	701	Sololá	2	El tablón	7	Julio	2023-07-16T00:00:00	2024-11-06T16:00:00	7	Dirección del viento	8.05
166207	7	Sololá	701	Sololá	2	El tablón	7	Julio	2023-07-16T00:00:00	2024-11-06T16:00:00	1	Precipitación	3.6
166208	7	Sololá	701	Sololá	2	El tablón	7	Julio	2023-07-16T00:00:00	2024-11-06T16:00:00	8	Radiación solar	119
166209	7	Sololá	701	Sololá	2	El tablón	7	Julio	2023-07-16T00:00:00	2024-11-06T17:00:00	2	Temperatura media	14.7
166210	7	Sololá	701	Sololá	2	El tablón	7	Julio	2023-07-16T00:00:00	2024-11-06T17:00:00	4	Temperatura máxima	15
166211	7	Sololá	701	Sololá	2	El tablón	7	Julio	2023-07-16T00:00:00	2024-11-06T17:00:00	3	Temperatura mínima	14.7
166212	7	Sololá	701	Sololá	2	El tablón	7	Julio	2023-07-16T00:00:00	2024-11-06T17:00:00	5	Humedad	88
166213	7	Sololá	701	Sololá	2	El tablón	7	Julio	2023-07-16T00:00:00	2024-11-06T17:00:00	6	Velocidad del viento	4.8
166214	7	Sololá	701	Sololá	2	El tablón	7	Julio	2023-07-16T00:00:00	2024-11-06T17:00:00	7	Dirección del viento	4.83
166215	7	Sololá	701	Sololá	2	El tablón	7	Julio	2023-07-16T00:00:00	2024-11-06T17:00:00	1	Precipitación	0
166216	7	Sololá	701	Sololá	2	El tablón	7	Julio	2023-07-16T00:00:00	2024-11-06T17:00:00	8	Radiación solar	12
166217	7	Sololá	701	Sololá	2	El tablón	7	Julio	2023-07-16T00:00:00	2024-11-06T18:00:00	2	Temperatura media	13.8
166218	7	Sololá	701	Sololá	2	El tablón	7	Julio	2023-07-16T00:00:00	2024-11-06T18:00:00	4	Temperatura máxima	14.8
166219	7	Sololá	701	Sololá	2	El tablón	7	Julio	2023-07-16T00:00:00	2024-11-06T18:00:00	3	Temperatura mínima	13.8
166220	7	Sololá	701	Sololá	2	El tablón	7	Julio	2023-07-16T00:00:00	2024-11-06T18:00:00	5	Humedad	88
166221	7	Sololá	701	Sololá	2	El tablón	7	Julio	2023-07-16T00:00:00	2024-11-06T18:00:00	6	Velocidad del viento	6.4
166222	7	Sololá	701	Sololá	2	El tablón	7	Julio	2023-07-16T00:00:00	2024-11-06T18:00:00	7	Dirección del viento	6.44
166223	7	Sololá	701	Sololá	2	El tablón	7	Julio	2023-07-16T00:00:00	2024-11-06T18:00:00	1	Precipitación	1.4
166224	7	Sololá	701	Sololá	2	El tablón	7	Julio	2023-07-16T00:00:00	2024-11-06T18:00:00	8	Radiación solar	1
166225	7	Sololá	701	Sololá	2	El tablón	7	Julio	2023-07-16T00:00:00	2024-11-06T19:00:00	2	Temperatura media	13.6
166226	7	Sololá	701	Sololá	2	El tablón	7	Julio	2023-07-16T00:00:00	2024-11-06T19:00:00	4	Temperatura máxima	13.8
166227	7	Sololá	701	Sololá	2	El tablón	7	Julio	2023-07-16T00:00:00	2024-11-06T19:00:00	3	Temperatura mínima	13.6
166228	7	Sololá	701	Sololá	2	El tablón	7	Julio	2023-07-16T00:00:00	2024-11-06T19:00:00	5	Humedad	88
166229	7	Sololá	701	Sololá	2	El tablón	7	Julio	2023-07-16T00:00:00	2024-11-06T19:00:00	6	Velocidad del viento	4.8
166230	7	Sololá	701	Sololá	2	El tablón	7	Julio	2023-07-16T00:00:00	2024-11-06T19:00:00	7	Dirección del viento	4.83
166231	7	Sololá	701	Sololá	2	El tablón	7	Julio	2023-07-16T00:00:00	2024-11-06T19:00:00	1	Precipitación	0.6
166232	7	Sololá	701	Sololá	2	El tablón	7	Julio	2023-07-16T00:00:00	2024-11-06T19:00:00	8	Radiación solar	0
166233	7	Sololá	701	Sololá	2	El tablón	7	Julio	2023-07-16T00:00:00	2024-11-06T20:00:00	2	Temperatura media	13.7
166234	7	Sololá	701	Sololá	2	El tablón	7	Julio	2023-07-16T00:00:00	2024-11-06T20:00:00	4	Temperatura máxima	13.9
166235	7	Sololá	701	Sololá	2	El tablón	7	Julio	2023-07-16T00:00:00	2024-11-06T20:00:00	3	Temperatura mínima	13.6
166236	7	Sololá	701	Sololá	2	El tablón	7	Julio	2023-07-16T00:00:00	2024-11-06T20:00:00	5	Humedad	88
166237	7	Sololá	701	Sololá	2	El tablón	7	Julio	2023-07-16T00:00:00	2024-11-06T20:00:00	6	Velocidad del viento	6.4
166238	7	Sololá	701	Sololá	2	El tablón	7	Julio	2023-07-16T00:00:00	2024-11-06T20:00:00	7	Dirección del viento	6.44
166239	7	Sololá	701	Sololá	2	El tablón	7	Julio	2023-07-16T00:00:00	2024-11-06T20:00:00	1	Precipitación	0.2
166240	7	Sololá	701	Sololá	2	El tablón	7	Julio	2023-07-16T00:00:00	2024-11-06T20:00:00	8	Radiación solar	0
166241	7	Sololá	701	Sololá	2	El tablón	7	Julio	2023-07-16T00:00:00	2024-11-06T21:00:00	2	Temperatura media	13.1
166242	7	Sololá	701	Sololá	2	El tablón	7	Julio	2023-07-16T00:00:00	2024-11-06T21:00:00	4	Temperatura máxima	13.7
166243	7	Sololá	701	Sololá	2	El tablón	7	Julio	2023-07-16T00:00:00	2024-11-06T21:00:00	3	Temperatura mínima	13
166244	7	Sololá	701	Sololá	2	El tablón	7	Julio	2023-07-16T00:00:00	2024-11-06T21:00:00	5	Humedad	86
166245	7	Sololá	701	Sololá	2	El tablón	7	Julio	2023-07-16T00:00:00	2024-11-06T21:00:00	6	Velocidad del viento	12.9
166246	7	Sololá	701	Sololá	2	El tablón	7	Julio	2023-07-16T00:00:00	2024-11-06T21:00:00	7	Dirección del viento	12.87
166247	7	Sololá	701	Sololá	2	El tablón	7	Julio	2023-07-16T00:00:00	2024-11-06T21:00:00	1	Precipitación	0
166248	7	Sololá	701	Sololá	2	El tablón	7	Julio	2023-07-16T00:00:00	2024-11-06T21:00:00	8	Radiación solar	0
166249	7	Sololá	701	Sololá	2	El tablón	7	Julio	2023-07-16T00:00:00	2024-11-06T22:00:00	2	Temperatura media	13.1
166250	7	Sololá	701	Sololá	2	El tablón	7	Julio	2023-07-16T00:00:00	2024-11-06T22:00:00	4	Temperatura máxima	13.2
166251	7	Sololá	701	Sololá	2	El tablón	7	Julio	2023-07-16T00:00:00	2024-11-06T22:00:00	3	Temperatura mínima	13.1
166252	7	Sololá	701	Sololá	2	El tablón	7	Julio	2023-07-16T00:00:00	2024-11-06T22:00:00	5	Humedad	88
166253	7	Sololá	701	Sololá	2	El tablón	7	Julio	2023-07-16T00:00:00	2024-11-06T22:00:00	6	Velocidad del viento	8
166254	7	Sololá	701	Sololá	2	El tablón	7	Julio	2023-07-16T00:00:00	2024-11-06T22:00:00	7	Dirección del viento	8.05
166255	7	Sololá	701	Sololá	2	El tablón	7	Julio	2023-07-16T00:00:00	2024-11-06T22:00:00	1	Precipitación	0
166256	7	Sololá	701	Sololá	2	El tablón	7	Julio	2023-07-16T00:00:00	2024-11-06T22:00:00	8	Radiación solar	0
166257	7	Sololá	701	Sololá	2	El tablón	7	Julio	2023-07-16T00:00:00	2024-11-06T23:00:00	2	Temperatura media	13.2
166258	7	Sololá	701	Sololá	2	El tablón	7	Julio	2023-07-16T00:00:00	2024-11-06T23:00:00	4	Temperatura máxima	13.4
166259	7	Sololá	701	Sololá	2	El tablón	7	Julio	2023-07-16T00:00:00	2024-11-06T23:00:00	3	Temperatura mínima	13.1
166260	7	Sololá	701	Sololá	2	El tablón	7	Julio	2023-07-16T00:00:00	2024-11-06T23:00:00	5	Humedad	87
166261	7	Sololá	701	Sololá	2	El tablón	7	Julio	2023-07-16T00:00:00	2024-11-06T23:00:00	6	Velocidad del viento	6.4
166262	7	Sololá	701	Sololá	2	El tablón	7	Julio	2023-07-16T00:00:00	2024-11-06T23:00:00	7	Dirección del viento	6.44
166263	7	Sololá	701	Sololá	2	El tablón	7	Julio	2023-07-16T00:00:00	2024-11-06T23:00:00	1	Precipitación	0
166264	7	Sololá	701	Sololá	2	El tablón	7	Julio	2023-07-16T00:00:00	2024-11-06T23:00:00	8	Radiación solar	0
166265	7	Sololá	701	Sololá	2	El tablón	7	Julio	2023-07-17T00:00:00	2024-11-06T00:00:00	2	Temperatura media	13.3
166266	7	Sololá	701	Sololá	2	El tablón	7	Julio	2023-07-17T00:00:00	2024-11-06T00:00:00	4	Temperatura máxima	13.3
166267	7	Sololá	701	Sololá	2	El tablón	7	Julio	2023-07-17T00:00:00	2024-11-06T00:00:00	3	Temperatura mínima	13.2
166268	7	Sololá	701	Sololá	2	El tablón	7	Julio	2023-07-17T00:00:00	2024-11-06T00:00:00	5	Humedad	85
166269	7	Sololá	701	Sololá	2	El tablón	7	Julio	2023-07-17T00:00:00	2024-11-06T00:00:00	6	Velocidad del viento	3.2
166270	7	Sololá	701	Sololá	2	El tablón	7	Julio	2023-07-17T00:00:00	2024-11-06T00:00:00	7	Dirección del viento	3.22
166271	7	Sololá	701	Sololá	2	El tablón	7	Julio	2023-07-17T00:00:00	2024-11-06T00:00:00	1	Precipitación	0
166272	7	Sololá	701	Sololá	2	El tablón	7	Julio	2023-07-17T00:00:00	2024-11-06T00:00:00	8	Radiación solar	0
166273	7	Sololá	701	Sololá	2	El tablón	7	Julio	2023-07-17T00:00:00	2024-11-06T01:00:00	2	Temperatura media	13.1
166274	7	Sololá	701	Sololá	2	El tablón	7	Julio	2023-07-17T00:00:00	2024-11-06T01:00:00	4	Temperatura máxima	13.3
166275	7	Sololá	701	Sololá	2	El tablón	7	Julio	2023-07-17T00:00:00	2024-11-06T01:00:00	3	Temperatura mínima	12.9
166276	7	Sololá	701	Sololá	2	El tablón	7	Julio	2023-07-17T00:00:00	2024-11-06T01:00:00	5	Humedad	87
166277	7	Sololá	701	Sololá	2	El tablón	7	Julio	2023-07-17T00:00:00	2024-11-06T01:00:00	6	Velocidad del viento	9.7
166278	7	Sololá	701	Sololá	2	El tablón	7	Julio	2023-07-17T00:00:00	2024-11-06T01:00:00	7	Dirección del viento	9.66
166279	7	Sololá	701	Sololá	2	El tablón	7	Julio	2023-07-17T00:00:00	2024-11-06T01:00:00	1	Precipitación	0
166280	7	Sololá	701	Sololá	2	El tablón	7	Julio	2023-07-17T00:00:00	2024-11-06T01:00:00	8	Radiación solar	0
166281	7	Sololá	701	Sololá	2	El tablón	7	Julio	2023-07-17T00:00:00	2024-11-06T02:00:00	2	Temperatura media	13.3
166282	7	Sololá	701	Sololá	2	El tablón	7	Julio	2023-07-17T00:00:00	2024-11-06T02:00:00	4	Temperatura máxima	13.4
166283	7	Sololá	701	Sololá	2	El tablón	7	Julio	2023-07-17T00:00:00	2024-11-06T02:00:00	3	Temperatura mínima	13.1
166284	7	Sololá	701	Sololá	2	El tablón	7	Julio	2023-07-17T00:00:00	2024-11-06T02:00:00	5	Humedad	86
166285	7	Sololá	701	Sololá	2	El tablón	7	Julio	2023-07-17T00:00:00	2024-11-06T02:00:00	6	Velocidad del viento	11.3
166286	7	Sololá	701	Sololá	2	El tablón	7	Julio	2023-07-17T00:00:00	2024-11-06T02:00:00	7	Dirección del viento	11.27
166287	7	Sololá	701	Sololá	2	El tablón	7	Julio	2023-07-17T00:00:00	2024-11-06T02:00:00	1	Precipitación	0
166288	7	Sololá	701	Sololá	2	El tablón	7	Julio	2023-07-17T00:00:00	2024-11-06T02:00:00	8	Radiación solar	0
166289	7	Sololá	701	Sololá	2	El tablón	7	Julio	2023-07-17T00:00:00	2024-11-06T03:00:00	2	Temperatura media	13.1
166290	7	Sololá	701	Sololá	2	El tablón	7	Julio	2023-07-17T00:00:00	2024-11-06T03:00:00	4	Temperatura máxima	13.4
166291	7	Sololá	701	Sololá	2	El tablón	7	Julio	2023-07-17T00:00:00	2024-11-06T03:00:00	3	Temperatura mínima	13.1
166292	7	Sololá	701	Sololá	2	El tablón	7	Julio	2023-07-17T00:00:00	2024-11-06T03:00:00	5	Humedad	87
166293	7	Sololá	701	Sololá	2	El tablón	7	Julio	2023-07-17T00:00:00	2024-11-06T03:00:00	6	Velocidad del viento	11.3
166294	7	Sololá	701	Sololá	2	El tablón	7	Julio	2023-07-17T00:00:00	2024-11-06T03:00:00	7	Dirección del viento	11.27
166295	7	Sololá	701	Sololá	2	El tablón	7	Julio	2023-07-17T00:00:00	2024-11-06T03:00:00	1	Precipitación	0
166296	7	Sololá	701	Sololá	2	El tablón	7	Julio	2023-07-17T00:00:00	2024-11-06T03:00:00	8	Radiación solar	0
166297	7	Sololá	701	Sololá	2	El tablón	7	Julio	2023-07-17T00:00:00	2024-11-06T04:00:00	2	Temperatura media	13.2
166298	7	Sololá	701	Sololá	2	El tablón	7	Julio	2023-07-17T00:00:00	2024-11-06T04:00:00	4	Temperatura máxima	13.2
166299	7	Sololá	701	Sololá	2	El tablón	7	Julio	2023-07-17T00:00:00	2024-11-06T04:00:00	3	Temperatura mínima	13.1
166300	7	Sololá	701	Sololá	2	El tablón	7	Julio	2023-07-17T00:00:00	2024-11-06T04:00:00	5	Humedad	86
166301	7	Sololá	701	Sololá	2	El tablón	7	Julio	2023-07-17T00:00:00	2024-11-06T04:00:00	6	Velocidad del viento	11.3
166302	7	Sololá	701	Sololá	2	El tablón	7	Julio	2023-07-17T00:00:00	2024-11-06T04:00:00	7	Dirección del viento	11.27
166303	7	Sololá	701	Sololá	2	El tablón	7	Julio	2023-07-17T00:00:00	2024-11-06T04:00:00	1	Precipitación	0
166304	7	Sololá	701	Sololá	2	El tablón	7	Julio	2023-07-17T00:00:00	2024-11-06T04:00:00	8	Radiación solar	0
166305	7	Sololá	701	Sololá	2	El tablón	7	Julio	2023-07-17T00:00:00	2024-11-06T05:00:00	2	Temperatura media	12.9
166306	7	Sololá	701	Sololá	2	El tablón	7	Julio	2023-07-17T00:00:00	2024-11-06T05:00:00	4	Temperatura máxima	13.2
166307	7	Sololá	701	Sololá	2	El tablón	7	Julio	2023-07-17T00:00:00	2024-11-06T05:00:00	3	Temperatura mínima	12.8
166308	7	Sololá	701	Sololá	2	El tablón	7	Julio	2023-07-17T00:00:00	2024-11-06T05:00:00	5	Humedad	83
166309	7	Sololá	701	Sololá	2	El tablón	7	Julio	2023-07-17T00:00:00	2024-11-06T05:00:00	6	Velocidad del viento	12.9
166310	7	Sololá	701	Sololá	2	El tablón	7	Julio	2023-07-17T00:00:00	2024-11-06T05:00:00	7	Dirección del viento	12.87
166311	7	Sololá	701	Sololá	2	El tablón	7	Julio	2023-07-17T00:00:00	2024-11-06T05:00:00	1	Precipitación	0
166312	7	Sololá	701	Sololá	2	El tablón	7	Julio	2023-07-17T00:00:00	2024-11-06T05:00:00	8	Radiación solar	0
166313	7	Sololá	701	Sololá	2	El tablón	7	Julio	2023-07-17T00:00:00	2024-11-06T06:00:00	2	Temperatura media	12.6
166314	7	Sololá	701	Sololá	2	El tablón	7	Julio	2023-07-17T00:00:00	2024-11-06T06:00:00	4	Temperatura máxima	12.9
166315	7	Sololá	701	Sololá	2	El tablón	7	Julio	2023-07-17T00:00:00	2024-11-06T06:00:00	3	Temperatura mínima	12.6
166316	7	Sololá	701	Sololá	2	El tablón	7	Julio	2023-07-17T00:00:00	2024-11-06T06:00:00	5	Humedad	83
166317	7	Sololá	701	Sololá	2	El tablón	7	Julio	2023-07-17T00:00:00	2024-11-06T06:00:00	6	Velocidad del viento	14.5
166318	7	Sololá	701	Sololá	2	El tablón	7	Julio	2023-07-17T00:00:00	2024-11-06T06:00:00	7	Dirección del viento	14.48
166319	7	Sololá	701	Sololá	2	El tablón	7	Julio	2023-07-17T00:00:00	2024-11-06T06:00:00	1	Precipitación	0
166320	7	Sololá	701	Sololá	2	El tablón	7	Julio	2023-07-17T00:00:00	2024-11-06T06:00:00	8	Radiación solar	1
166321	7	Sololá	701	Sololá	2	El tablón	7	Julio	2023-07-17T00:00:00	2024-11-06T07:00:00	2	Temperatura media	13.3
166322	7	Sololá	701	Sololá	2	El tablón	7	Julio	2023-07-17T00:00:00	2024-11-06T07:00:00	4	Temperatura máxima	13.3
166323	7	Sololá	701	Sololá	2	El tablón	7	Julio	2023-07-17T00:00:00	2024-11-06T07:00:00	3	Temperatura mínima	12.5
166324	7	Sololá	701	Sololá	2	El tablón	7	Julio	2023-07-17T00:00:00	2024-11-06T07:00:00	5	Humedad	81
166325	7	Sololá	701	Sololá	2	El tablón	7	Julio	2023-07-17T00:00:00	2024-11-06T07:00:00	6	Velocidad del viento	14.5
166326	7	Sololá	701	Sololá	2	El tablón	7	Julio	2023-07-17T00:00:00	2024-11-06T07:00:00	7	Dirección del viento	14.48
166327	7	Sololá	701	Sololá	2	El tablón	7	Julio	2023-07-17T00:00:00	2024-11-06T07:00:00	1	Precipitación	0
166328	7	Sololá	701	Sololá	2	El tablón	7	Julio	2023-07-17T00:00:00	2024-11-06T07:00:00	8	Radiación solar	86
166329	7	Sololá	701	Sololá	2	El tablón	7	Julio	2023-07-17T00:00:00	2024-11-06T08:00:00	2	Temperatura media	14.3
166330	7	Sololá	701	Sololá	2	El tablón	7	Julio	2023-07-17T00:00:00	2024-11-06T08:00:00	4	Temperatura máxima	14.3
166331	7	Sololá	701	Sololá	2	El tablón	7	Julio	2023-07-17T00:00:00	2024-11-06T08:00:00	3	Temperatura mínima	13.1
166332	7	Sololá	701	Sololá	2	El tablón	7	Julio	2023-07-17T00:00:00	2024-11-06T08:00:00	5	Humedad	79
166333	7	Sololá	701	Sololá	2	El tablón	7	Julio	2023-07-17T00:00:00	2024-11-06T08:00:00	6	Velocidad del viento	14.5
166334	7	Sololá	701	Sololá	2	El tablón	7	Julio	2023-07-17T00:00:00	2024-11-06T08:00:00	7	Dirección del viento	14.48
166335	7	Sololá	701	Sololá	2	El tablón	7	Julio	2023-07-17T00:00:00	2024-11-06T08:00:00	1	Precipitación	0
166336	7	Sololá	701	Sololá	2	El tablón	7	Julio	2023-07-17T00:00:00	2024-11-06T08:00:00	8	Radiación solar	292
166337	7	Sololá	701	Sololá	2	El tablón	7	Julio	2023-07-17T00:00:00	2024-11-06T09:00:00	2	Temperatura media	15.8
166338	7	Sololá	701	Sololá	2	El tablón	7	Julio	2023-07-17T00:00:00	2024-11-06T09:00:00	4	Temperatura máxima	15.8
166339	7	Sololá	701	Sololá	2	El tablón	7	Julio	2023-07-17T00:00:00	2024-11-06T09:00:00	3	Temperatura mínima	14.3
166340	7	Sololá	701	Sololá	2	El tablón	7	Julio	2023-07-17T00:00:00	2024-11-06T09:00:00	5	Humedad	72
166341	7	Sololá	701	Sololá	2	El tablón	7	Julio	2023-07-17T00:00:00	2024-11-06T09:00:00	6	Velocidad del viento	14.5
166342	7	Sololá	701	Sololá	2	El tablón	7	Julio	2023-07-17T00:00:00	2024-11-06T09:00:00	7	Dirección del viento	14.48
166343	7	Sololá	701	Sololá	2	El tablón	7	Julio	2023-07-17T00:00:00	2024-11-06T09:00:00	1	Precipitación	0
166344	7	Sololá	701	Sololá	2	El tablón	7	Julio	2023-07-17T00:00:00	2024-11-06T09:00:00	8	Radiación solar	536
166345	7	Sololá	701	Sololá	2	El tablón	7	Julio	2023-07-17T00:00:00	2024-11-06T10:00:00	2	Temperatura media	16.7
166346	7	Sololá	701	Sololá	2	El tablón	7	Julio	2023-07-17T00:00:00	2024-11-06T10:00:00	4	Temperatura máxima	16.8
166347	7	Sololá	701	Sololá	2	El tablón	7	Julio	2023-07-17T00:00:00	2024-11-06T10:00:00	3	Temperatura mínima	15.8
166348	7	Sololá	701	Sololá	2	El tablón	7	Julio	2023-07-17T00:00:00	2024-11-06T10:00:00	5	Humedad	69
166349	7	Sololá	701	Sololá	2	El tablón	7	Julio	2023-07-17T00:00:00	2024-11-06T10:00:00	6	Velocidad del viento	14.5
166350	7	Sololá	701	Sololá	2	El tablón	7	Julio	2023-07-17T00:00:00	2024-11-06T10:00:00	7	Dirección del viento	14.48
166351	7	Sololá	701	Sololá	2	El tablón	7	Julio	2023-07-17T00:00:00	2024-11-06T10:00:00	1	Precipitación	0
166352	7	Sololá	701	Sololá	2	El tablón	7	Julio	2023-07-17T00:00:00	2024-11-06T10:00:00	8	Radiación solar	733
166353	7	Sololá	701	Sololá	2	El tablón	7	Julio	2023-07-17T00:00:00	2024-11-06T11:00:00	2	Temperatura media	17.6
166354	7	Sololá	701	Sololá	2	El tablón	7	Julio	2023-07-17T00:00:00	2024-11-06T11:00:00	4	Temperatura máxima	17.6
166355	7	Sololá	701	Sololá	2	El tablón	7	Julio	2023-07-17T00:00:00	2024-11-06T11:00:00	3	Temperatura mínima	16.6
166356	7	Sololá	701	Sololá	2	El tablón	7	Julio	2023-07-17T00:00:00	2024-11-06T11:00:00	5	Humedad	67
166357	7	Sololá	701	Sololá	2	El tablón	7	Julio	2023-07-17T00:00:00	2024-11-06T11:00:00	6	Velocidad del viento	16.1
166358	7	Sololá	701	Sololá	2	El tablón	7	Julio	2023-07-17T00:00:00	2024-11-06T11:00:00	7	Dirección del viento	16.09
166359	7	Sololá	701	Sololá	2	El tablón	7	Julio	2023-07-17T00:00:00	2024-11-06T11:00:00	1	Precipitación	0
166360	7	Sololá	701	Sololá	2	El tablón	7	Julio	2023-07-17T00:00:00	2024-11-06T11:00:00	8	Radiación solar	841
166361	7	Sololá	701	Sololá	2	El tablón	7	Julio	2023-07-17T00:00:00	2024-11-06T12:00:00	2	Temperatura media	17.9
166362	7	Sololá	701	Sololá	2	El tablón	7	Julio	2023-07-17T00:00:00	2024-11-06T12:00:00	4	Temperatura máxima	18.2
166363	7	Sololá	701	Sololá	2	El tablón	7	Julio	2023-07-17T00:00:00	2024-11-06T12:00:00	3	Temperatura mínima	17.4
166364	7	Sololá	701	Sololá	2	El tablón	7	Julio	2023-07-17T00:00:00	2024-11-06T12:00:00	5	Humedad	62
166365	7	Sololá	701	Sololá	2	El tablón	7	Julio	2023-07-17T00:00:00	2024-11-06T12:00:00	6	Velocidad del viento	14.5
166366	7	Sololá	701	Sololá	2	El tablón	7	Julio	2023-07-17T00:00:00	2024-11-06T12:00:00	7	Dirección del viento	14.48
166367	7	Sololá	701	Sololá	2	El tablón	7	Julio	2023-07-17T00:00:00	2024-11-06T12:00:00	1	Precipitación	0
166368	7	Sololá	701	Sololá	2	El tablón	7	Julio	2023-07-17T00:00:00	2024-11-06T12:00:00	8	Radiación solar	931
166369	7	Sololá	701	Sololá	2	El tablón	7	Julio	2023-07-17T00:00:00	2024-11-06T13:00:00	2	Temperatura media	18.3
166370	7	Sololá	701	Sololá	2	El tablón	7	Julio	2023-07-17T00:00:00	2024-11-06T13:00:00	4	Temperatura máxima	18.3
166371	7	Sololá	701	Sololá	2	El tablón	7	Julio	2023-07-17T00:00:00	2024-11-06T13:00:00	3	Temperatura mínima	17.9
166372	7	Sololá	701	Sololá	2	El tablón	7	Julio	2023-07-17T00:00:00	2024-11-06T13:00:00	5	Humedad	64
166373	7	Sololá	701	Sololá	2	El tablón	7	Julio	2023-07-17T00:00:00	2024-11-06T13:00:00	6	Velocidad del viento	14.5
166374	7	Sololá	701	Sololá	2	El tablón	7	Julio	2023-07-17T00:00:00	2024-11-06T13:00:00	7	Dirección del viento	14.48
166375	7	Sololá	701	Sololá	2	El tablón	7	Julio	2023-07-17T00:00:00	2024-11-06T13:00:00	1	Precipitación	0
166376	7	Sololá	701	Sololá	2	El tablón	7	Julio	2023-07-17T00:00:00	2024-11-06T13:00:00	8	Radiación solar	955
166377	7	Sololá	701	Sololá	2	El tablón	7	Julio	2023-07-17T00:00:00	2024-11-06T14:00:00	2	Temperatura media	19
166378	7	Sololá	701	Sololá	2	El tablón	7	Julio	2023-07-17T00:00:00	2024-11-06T14:00:00	4	Temperatura máxima	19.3
166379	7	Sololá	701	Sololá	2	El tablón	7	Julio	2023-07-17T00:00:00	2024-11-06T14:00:00	3	Temperatura mínima	18.2
166380	7	Sololá	701	Sololá	2	El tablón	7	Julio	2023-07-17T00:00:00	2024-11-06T14:00:00	5	Humedad	64
166381	7	Sololá	701	Sololá	2	El tablón	7	Julio	2023-07-17T00:00:00	2024-11-06T14:00:00	6	Velocidad del viento	12.9
166382	7	Sololá	701	Sololá	2	El tablón	7	Julio	2023-07-17T00:00:00	2024-11-06T14:00:00	7	Dirección del viento	12.87
166383	7	Sololá	701	Sololá	2	El tablón	7	Julio	2023-07-17T00:00:00	2024-11-06T14:00:00	1	Precipitación	0
166384	7	Sololá	701	Sololá	2	El tablón	7	Julio	2023-07-17T00:00:00	2024-11-06T14:00:00	8	Radiación solar	905
166385	7	Sololá	701	Sololá	2	El tablón	7	Julio	2023-07-17T00:00:00	2024-11-06T15:00:00	2	Temperatura media	19
166386	7	Sololá	701	Sololá	2	El tablón	7	Julio	2023-07-17T00:00:00	2024-11-06T15:00:00	4	Temperatura máxima	19.1
166387	7	Sololá	701	Sololá	2	El tablón	7	Julio	2023-07-17T00:00:00	2024-11-06T15:00:00	3	Temperatura mínima	18.6
166388	7	Sololá	701	Sololá	2	El tablón	7	Julio	2023-07-17T00:00:00	2024-11-06T15:00:00	5	Humedad	62
166389	7	Sololá	701	Sololá	2	El tablón	7	Julio	2023-07-17T00:00:00	2024-11-06T15:00:00	6	Velocidad del viento	12.9
166390	7	Sololá	701	Sololá	2	El tablón	7	Julio	2023-07-17T00:00:00	2024-11-06T15:00:00	7	Dirección del viento	12.87
166391	7	Sololá	701	Sololá	2	El tablón	7	Julio	2023-07-17T00:00:00	2024-11-06T15:00:00	1	Precipitación	0
166392	7	Sololá	701	Sololá	2	El tablón	7	Julio	2023-07-17T00:00:00	2024-11-06T15:00:00	8	Radiación solar	728
166393	7	Sololá	701	Sololá	2	El tablón	7	Julio	2023-07-17T00:00:00	2024-11-06T16:00:00	2	Temperatura media	18.2
166394	7	Sololá	701	Sololá	2	El tablón	7	Julio	2023-07-17T00:00:00	2024-11-06T16:00:00	4	Temperatura máxima	19.2
166395	7	Sololá	701	Sololá	2	El tablón	7	Julio	2023-07-17T00:00:00	2024-11-06T16:00:00	3	Temperatura mínima	18.1
166396	7	Sololá	701	Sololá	2	El tablón	7	Julio	2023-07-17T00:00:00	2024-11-06T16:00:00	5	Humedad	67
166397	7	Sololá	701	Sololá	2	El tablón	7	Julio	2023-07-17T00:00:00	2024-11-06T16:00:00	6	Velocidad del viento	12.9
166398	7	Sololá	701	Sololá	2	El tablón	7	Julio	2023-07-17T00:00:00	2024-11-06T16:00:00	7	Dirección del viento	12.87
166399	7	Sololá	701	Sololá	2	El tablón	7	Julio	2023-07-17T00:00:00	2024-11-06T16:00:00	1	Precipitación	0
166400	7	Sololá	701	Sololá	2	El tablón	7	Julio	2023-07-17T00:00:00	2024-11-06T16:00:00	8	Radiación solar	568
166401	7	Sololá	701	Sololá	2	El tablón	7	Julio	2023-07-17T00:00:00	2024-11-06T17:00:00	2	Temperatura media	17.7
166402	7	Sololá	701	Sololá	2	El tablón	7	Julio	2023-07-17T00:00:00	2024-11-06T17:00:00	4	Temperatura máxima	18.6
166403	7	Sololá	701	Sololá	2	El tablón	7	Julio	2023-07-17T00:00:00	2024-11-06T17:00:00	3	Temperatura mínima	17.7
166404	7	Sololá	701	Sololá	2	El tablón	7	Julio	2023-07-17T00:00:00	2024-11-06T17:00:00	5	Humedad	67
166405	7	Sololá	701	Sololá	2	El tablón	7	Julio	2023-07-17T00:00:00	2024-11-06T17:00:00	6	Velocidad del viento	11.3
166406	7	Sololá	701	Sololá	2	El tablón	7	Julio	2023-07-17T00:00:00	2024-11-06T17:00:00	7	Dirección del viento	11.27
166407	7	Sololá	701	Sololá	2	El tablón	7	Julio	2023-07-17T00:00:00	2024-11-06T17:00:00	1	Precipitación	0
166408	7	Sololá	701	Sololá	2	El tablón	7	Julio	2023-07-17T00:00:00	2024-11-06T17:00:00	8	Radiación solar	370
166409	7	Sololá	701	Sololá	2	El tablón	7	Julio	2023-07-17T00:00:00	2024-11-06T18:00:00	2	Temperatura media	15.9
166410	7	Sololá	701	Sololá	2	El tablón	7	Julio	2023-07-17T00:00:00	2024-11-06T18:00:00	4	Temperatura máxima	17.8
166411	7	Sololá	701	Sololá	2	El tablón	7	Julio	2023-07-17T00:00:00	2024-11-06T18:00:00	3	Temperatura mínima	15.9
166412	7	Sololá	701	Sololá	2	El tablón	7	Julio	2023-07-17T00:00:00	2024-11-06T18:00:00	5	Humedad	76
166413	7	Sololá	701	Sololá	2	El tablón	7	Julio	2023-07-17T00:00:00	2024-11-06T18:00:00	6	Velocidad del viento	11.3
166414	7	Sololá	701	Sololá	2	El tablón	7	Julio	2023-07-17T00:00:00	2024-11-06T18:00:00	7	Dirección del viento	11.27
166415	7	Sololá	701	Sololá	2	El tablón	7	Julio	2023-07-17T00:00:00	2024-11-06T18:00:00	1	Precipitación	0
166416	7	Sololá	701	Sololá	2	El tablón	7	Julio	2023-07-17T00:00:00	2024-11-06T18:00:00	8	Radiación solar	131
166417	7	Sololá	701	Sololá	2	El tablón	7	Julio	2023-07-17T00:00:00	2024-11-06T19:00:00	2	Temperatura media	14.8
166418	7	Sololá	701	Sololá	2	El tablón	7	Julio	2023-07-17T00:00:00	2024-11-06T19:00:00	4	Temperatura máxima	15.9
166419	7	Sololá	701	Sololá	2	El tablón	7	Julio	2023-07-17T00:00:00	2024-11-06T19:00:00	3	Temperatura mínima	14.8
166420	7	Sololá	701	Sololá	2	El tablón	7	Julio	2023-07-17T00:00:00	2024-11-06T19:00:00	5	Humedad	84
166421	7	Sololá	701	Sololá	2	El tablón	7	Julio	2023-07-17T00:00:00	2024-11-06T19:00:00	6	Velocidad del viento	11.3
166422	7	Sololá	701	Sololá	2	El tablón	7	Julio	2023-07-17T00:00:00	2024-11-06T19:00:00	7	Dirección del viento	11.27
166423	7	Sololá	701	Sololá	2	El tablón	7	Julio	2023-07-17T00:00:00	2024-11-06T19:00:00	1	Precipitación	0
166424	7	Sololá	701	Sololá	2	El tablón	7	Julio	2023-07-17T00:00:00	2024-11-06T19:00:00	8	Radiación solar	0
166425	7	Sololá	701	Sololá	2	El tablón	7	Julio	2023-07-17T00:00:00	2024-11-06T20:00:00	2	Temperatura media	14.4
166426	7	Sololá	701	Sololá	2	El tablón	7	Julio	2023-07-17T00:00:00	2024-11-06T20:00:00	4	Temperatura máxima	14.8
166427	7	Sololá	701	Sololá	2	El tablón	7	Julio	2023-07-17T00:00:00	2024-11-06T20:00:00	3	Temperatura mínima	14.4
166428	7	Sololá	701	Sololá	2	El tablón	7	Julio	2023-07-17T00:00:00	2024-11-06T20:00:00	5	Humedad	83
166429	7	Sololá	701	Sololá	2	El tablón	7	Julio	2023-07-17T00:00:00	2024-11-06T20:00:00	6	Velocidad del viento	14.5
166430	7	Sololá	701	Sololá	2	El tablón	7	Julio	2023-07-17T00:00:00	2024-11-06T20:00:00	7	Dirección del viento	14.48
166431	7	Sololá	701	Sololá	2	El tablón	7	Julio	2023-07-17T00:00:00	2024-11-06T20:00:00	1	Precipitación	0
166432	7	Sololá	701	Sololá	2	El tablón	7	Julio	2023-07-17T00:00:00	2024-11-06T20:00:00	8	Radiación solar	0
166433	7	Sololá	701	Sololá	2	El tablón	7	Julio	2023-07-17T00:00:00	2024-11-06T21:00:00	2	Temperatura media	13.7
166434	7	Sololá	701	Sololá	2	El tablón	7	Julio	2023-07-17T00:00:00	2024-11-06T21:00:00	4	Temperatura máxima	14.4
166435	7	Sololá	701	Sololá	2	El tablón	7	Julio	2023-07-17T00:00:00	2024-11-06T21:00:00	3	Temperatura mínima	13.7
166436	7	Sololá	701	Sololá	2	El tablón	7	Julio	2023-07-17T00:00:00	2024-11-06T21:00:00	5	Humedad	86
166437	7	Sololá	701	Sololá	2	El tablón	7	Julio	2023-07-17T00:00:00	2024-11-06T21:00:00	6	Velocidad del viento	12.9
166438	7	Sololá	701	Sololá	2	El tablón	7	Julio	2023-07-17T00:00:00	2024-11-06T21:00:00	7	Dirección del viento	12.87
166439	7	Sololá	701	Sololá	2	El tablón	7	Julio	2023-07-17T00:00:00	2024-11-06T21:00:00	1	Precipitación	0
166440	7	Sololá	701	Sololá	2	El tablón	7	Julio	2023-07-17T00:00:00	2024-11-06T21:00:00	8	Radiación solar	0
166441	7	Sololá	701	Sololá	2	El tablón	7	Julio	2023-07-17T00:00:00	2024-11-06T22:00:00	2	Temperatura media	13.4
166442	7	Sololá	701	Sololá	2	El tablón	7	Julio	2023-07-17T00:00:00	2024-11-06T22:00:00	4	Temperatura máxima	13.8
166443	7	Sololá	701	Sololá	2	El tablón	7	Julio	2023-07-17T00:00:00	2024-11-06T22:00:00	3	Temperatura mínima	13.4
166444	7	Sololá	701	Sololá	2	El tablón	7	Julio	2023-07-17T00:00:00	2024-11-06T22:00:00	5	Humedad	86
166445	7	Sololá	701	Sololá	2	El tablón	7	Julio	2023-07-17T00:00:00	2024-11-06T22:00:00	6	Velocidad del viento	14.5
166446	7	Sololá	701	Sololá	2	El tablón	7	Julio	2023-07-17T00:00:00	2024-11-06T22:00:00	7	Dirección del viento	14.48
166447	7	Sololá	701	Sololá	2	El tablón	7	Julio	2023-07-17T00:00:00	2024-11-06T22:00:00	1	Precipitación	0
166448	7	Sololá	701	Sololá	2	El tablón	7	Julio	2023-07-17T00:00:00	2024-11-06T22:00:00	8	Radiación solar	0
166449	7	Sololá	701	Sololá	2	El tablón	7	Julio	2023-07-17T00:00:00	2024-11-06T23:00:00	2	Temperatura media	13.1
166450	7	Sololá	701	Sololá	2	El tablón	7	Julio	2023-07-17T00:00:00	2024-11-06T23:00:00	4	Temperatura máxima	13.4
166451	7	Sololá	701	Sololá	2	El tablón	7	Julio	2023-07-17T00:00:00	2024-11-06T23:00:00	3	Temperatura mínima	13.1
166452	7	Sololá	701	Sololá	2	El tablón	7	Julio	2023-07-17T00:00:00	2024-11-06T23:00:00	5	Humedad	85
166453	7	Sololá	701	Sololá	2	El tablón	7	Julio	2023-07-17T00:00:00	2024-11-06T23:00:00	6	Velocidad del viento	17.7
166454	7	Sololá	701	Sololá	2	El tablón	7	Julio	2023-07-17T00:00:00	2024-11-06T23:00:00	7	Dirección del viento	17.7
166455	7	Sololá	701	Sololá	2	El tablón	7	Julio	2023-07-17T00:00:00	2024-11-06T23:00:00	1	Precipitación	0
166456	7	Sololá	701	Sololá	2	El tablón	7	Julio	2023-07-17T00:00:00	2024-11-06T23:00:00	8	Radiación solar	0
166457	7	Sololá	701	Sololá	2	El tablón	7	Julio	2023-07-18T00:00:00	2024-11-06T00:00:00	2	Temperatura media	13.1
166458	7	Sololá	701	Sololá	2	El tablón	7	Julio	2023-07-18T00:00:00	2024-11-06T00:00:00	4	Temperatura máxima	13.1
166459	7	Sololá	701	Sololá	2	El tablón	7	Julio	2023-07-18T00:00:00	2024-11-06T00:00:00	3	Temperatura mínima	12.8
166460	7	Sololá	701	Sololá	2	El tablón	7	Julio	2023-07-18T00:00:00	2024-11-06T00:00:00	5	Humedad	82
166461	7	Sololá	701	Sololá	2	El tablón	7	Julio	2023-07-18T00:00:00	2024-11-06T00:00:00	6	Velocidad del viento	17.7
166462	7	Sololá	701	Sololá	2	El tablón	7	Julio	2023-07-18T00:00:00	2024-11-06T00:00:00	7	Dirección del viento	17.7
166463	7	Sololá	701	Sololá	2	El tablón	7	Julio	2023-07-18T00:00:00	2024-11-06T00:00:00	1	Precipitación	0
166464	7	Sololá	701	Sololá	2	El tablón	7	Julio	2023-07-18T00:00:00	2024-11-06T00:00:00	8	Radiación solar	0
166465	7	Sololá	701	Sololá	2	El tablón	7	Julio	2023-07-18T00:00:00	2024-11-06T01:00:00	2	Temperatura media	12.4
166466	7	Sololá	701	Sololá	2	El tablón	7	Julio	2023-07-18T00:00:00	2024-11-06T01:00:00	4	Temperatura máxima	13.1
166467	7	Sololá	701	Sololá	2	El tablón	7	Julio	2023-07-18T00:00:00	2024-11-06T01:00:00	3	Temperatura mínima	12.4
166468	7	Sololá	701	Sololá	2	El tablón	7	Julio	2023-07-18T00:00:00	2024-11-06T01:00:00	5	Humedad	86
166469	7	Sololá	701	Sololá	2	El tablón	7	Julio	2023-07-18T00:00:00	2024-11-06T01:00:00	6	Velocidad del viento	9.7
166470	7	Sololá	701	Sololá	2	El tablón	7	Julio	2023-07-18T00:00:00	2024-11-06T01:00:00	7	Dirección del viento	9.66
166471	7	Sololá	701	Sololá	2	El tablón	7	Julio	2023-07-18T00:00:00	2024-11-06T01:00:00	1	Precipitación	0
166472	7	Sololá	701	Sololá	2	El tablón	7	Julio	2023-07-18T00:00:00	2024-11-06T01:00:00	8	Radiación solar	0
166473	7	Sololá	701	Sololá	2	El tablón	7	Julio	2023-07-18T00:00:00	2024-11-06T02:00:00	2	Temperatura media	12.3
166474	7	Sololá	701	Sololá	2	El tablón	7	Julio	2023-07-18T00:00:00	2024-11-06T02:00:00	4	Temperatura máxima	12.6
166475	7	Sololá	701	Sololá	2	El tablón	7	Julio	2023-07-18T00:00:00	2024-11-06T02:00:00	3	Temperatura mínima	12.3
166476	7	Sololá	701	Sololá	2	El tablón	7	Julio	2023-07-18T00:00:00	2024-11-06T02:00:00	5	Humedad	88
166477	7	Sololá	701	Sololá	2	El tablón	7	Julio	2023-07-18T00:00:00	2024-11-06T02:00:00	6	Velocidad del viento	14.5
166478	7	Sololá	701	Sololá	2	El tablón	7	Julio	2023-07-18T00:00:00	2024-11-06T02:00:00	7	Dirección del viento	14.48
166479	7	Sololá	701	Sololá	2	El tablón	7	Julio	2023-07-18T00:00:00	2024-11-06T02:00:00	1	Precipitación	0
166480	7	Sololá	701	Sololá	2	El tablón	7	Julio	2023-07-18T00:00:00	2024-11-06T02:00:00	8	Radiación solar	0
166481	7	Sololá	701	Sololá	2	El tablón	7	Julio	2023-07-18T00:00:00	2024-11-06T03:00:00	2	Temperatura media	12.1
166482	7	Sololá	701	Sololá	2	El tablón	7	Julio	2023-07-18T00:00:00	2024-11-06T03:00:00	4	Temperatura máxima	12.3
166483	7	Sololá	701	Sololá	2	El tablón	7	Julio	2023-07-18T00:00:00	2024-11-06T03:00:00	3	Temperatura mínima	12.1
166484	7	Sololá	701	Sololá	2	El tablón	7	Julio	2023-07-18T00:00:00	2024-11-06T03:00:00	5	Humedad	88
166485	7	Sololá	701	Sololá	2	El tablón	7	Julio	2023-07-18T00:00:00	2024-11-06T03:00:00	6	Velocidad del viento	16.1
166486	7	Sololá	701	Sololá	2	El tablón	7	Julio	2023-07-18T00:00:00	2024-11-06T03:00:00	7	Dirección del viento	16.09
166487	7	Sololá	701	Sololá	2	El tablón	7	Julio	2023-07-18T00:00:00	2024-11-06T03:00:00	1	Precipitación	0
166488	7	Sololá	701	Sololá	2	El tablón	7	Julio	2023-07-18T00:00:00	2024-11-06T03:00:00	8	Radiación solar	0
166489	7	Sololá	701	Sololá	2	El tablón	7	Julio	2023-07-18T00:00:00	2024-11-06T04:00:00	2	Temperatura media	12.7
166490	7	Sololá	701	Sololá	2	El tablón	7	Julio	2023-07-18T00:00:00	2024-11-06T04:00:00	4	Temperatura máxima	12.7
166491	7	Sololá	701	Sololá	2	El tablón	7	Julio	2023-07-18T00:00:00	2024-11-06T04:00:00	3	Temperatura mínima	12.1
166492	7	Sololá	701	Sololá	2	El tablón	7	Julio	2023-07-18T00:00:00	2024-11-06T04:00:00	5	Humedad	88
166493	7	Sololá	701	Sololá	2	El tablón	7	Julio	2023-07-18T00:00:00	2024-11-06T04:00:00	6	Velocidad del viento	12.9
166494	7	Sololá	701	Sololá	2	El tablón	7	Julio	2023-07-18T00:00:00	2024-11-06T04:00:00	7	Dirección del viento	12.87
166495	7	Sololá	701	Sololá	2	El tablón	7	Julio	2023-07-18T00:00:00	2024-11-06T04:00:00	1	Precipitación	0
166496	7	Sololá	701	Sololá	2	El tablón	7	Julio	2023-07-18T00:00:00	2024-11-06T04:00:00	8	Radiación solar	0
166497	7	Sololá	701	Sololá	2	El tablón	7	Julio	2023-07-18T00:00:00	2024-11-06T05:00:00	2	Temperatura media	12.3
166498	7	Sololá	701	Sololá	2	El tablón	7	Julio	2023-07-18T00:00:00	2024-11-06T05:00:00	4	Temperatura máxima	12.9
166499	7	Sololá	701	Sololá	2	El tablón	7	Julio	2023-07-18T00:00:00	2024-11-06T05:00:00	3	Temperatura mínima	12.2
166500	7	Sololá	701	Sololá	2	El tablón	7	Julio	2023-07-18T00:00:00	2024-11-06T05:00:00	5	Humedad	88
166501	7	Sololá	701	Sololá	2	El tablón	7	Julio	2023-07-18T00:00:00	2024-11-06T05:00:00	6	Velocidad del viento	9.7
166502	7	Sololá	701	Sololá	2	El tablón	7	Julio	2023-07-18T00:00:00	2024-11-06T05:00:00	7	Dirección del viento	9.66
166503	7	Sololá	701	Sololá	2	El tablón	7	Julio	2023-07-18T00:00:00	2024-11-06T05:00:00	1	Precipitación	0
166504	7	Sololá	701	Sololá	2	El tablón	7	Julio	2023-07-18T00:00:00	2024-11-06T05:00:00	8	Radiación solar	0
166505	7	Sololá	701	Sololá	2	El tablón	7	Julio	2023-07-18T00:00:00	2024-11-06T06:00:00	2	Temperatura media	12.4
166506	7	Sololá	701	Sololá	2	El tablón	7	Julio	2023-07-18T00:00:00	2024-11-06T06:00:00	4	Temperatura máxima	12.5
166507	7	Sololá	701	Sololá	2	El tablón	7	Julio	2023-07-18T00:00:00	2024-11-06T06:00:00	3	Temperatura mínima	12.3
166508	7	Sololá	701	Sololá	2	El tablón	7	Julio	2023-07-18T00:00:00	2024-11-06T06:00:00	5	Humedad	88
166509	7	Sololá	701	Sololá	2	El tablón	7	Julio	2023-07-18T00:00:00	2024-11-06T06:00:00	6	Velocidad del viento	12.9
166510	7	Sololá	701	Sololá	2	El tablón	7	Julio	2023-07-18T00:00:00	2024-11-06T06:00:00	7	Dirección del viento	12.87
166511	7	Sololá	701	Sololá	2	El tablón	7	Julio	2023-07-18T00:00:00	2024-11-06T06:00:00	1	Precipitación	0
166512	7	Sololá	701	Sololá	2	El tablón	7	Julio	2023-07-18T00:00:00	2024-11-06T06:00:00	8	Radiación solar	1
166513	7	Sololá	701	Sololá	2	El tablón	7	Julio	2023-07-18T00:00:00	2024-11-06T07:00:00	2	Temperatura media	13.6
166514	7	Sololá	701	Sololá	2	El tablón	7	Julio	2023-07-18T00:00:00	2024-11-06T07:00:00	4	Temperatura máxima	13.6
166515	7	Sololá	701	Sololá	2	El tablón	7	Julio	2023-07-18T00:00:00	2024-11-06T07:00:00	3	Temperatura mínima	12.3
166516	7	Sololá	701	Sololá	2	El tablón	7	Julio	2023-07-18T00:00:00	2024-11-06T07:00:00	5	Humedad	86
166517	7	Sololá	701	Sololá	2	El tablón	7	Julio	2023-07-18T00:00:00	2024-11-06T07:00:00	6	Velocidad del viento	11.3
166518	7	Sololá	701	Sololá	2	El tablón	7	Julio	2023-07-18T00:00:00	2024-11-06T07:00:00	7	Dirección del viento	11.27
166519	7	Sololá	701	Sololá	2	El tablón	7	Julio	2023-07-18T00:00:00	2024-11-06T07:00:00	1	Precipitación	0
166520	7	Sololá	701	Sololá	2	El tablón	7	Julio	2023-07-18T00:00:00	2024-11-06T07:00:00	8	Radiación solar	95
166521	7	Sololá	701	Sololá	2	El tablón	7	Julio	2023-07-18T00:00:00	2024-11-06T08:00:00	2	Temperatura media	15
166522	7	Sololá	701	Sololá	2	El tablón	7	Julio	2023-07-18T00:00:00	2024-11-06T08:00:00	4	Temperatura máxima	15
166523	7	Sololá	701	Sololá	2	El tablón	7	Julio	2023-07-18T00:00:00	2024-11-06T08:00:00	3	Temperatura mínima	13.6
166524	7	Sololá	701	Sololá	2	El tablón	7	Julio	2023-07-18T00:00:00	2024-11-06T08:00:00	5	Humedad	79
166525	7	Sololá	701	Sololá	2	El tablón	7	Julio	2023-07-18T00:00:00	2024-11-06T08:00:00	6	Velocidad del viento	11.3
166526	7	Sololá	701	Sololá	2	El tablón	7	Julio	2023-07-18T00:00:00	2024-11-06T08:00:00	7	Dirección del viento	11.27
166527	7	Sololá	701	Sololá	2	El tablón	7	Julio	2023-07-18T00:00:00	2024-11-06T08:00:00	1	Precipitación	0
166528	7	Sololá	701	Sololá	2	El tablón	7	Julio	2023-07-18T00:00:00	2024-11-06T08:00:00	8	Radiación solar	296
166529	7	Sololá	701	Sololá	2	El tablón	7	Julio	2023-07-18T00:00:00	2024-11-06T09:00:00	2	Temperatura media	16.2
166530	7	Sololá	701	Sololá	2	El tablón	7	Julio	2023-07-18T00:00:00	2024-11-06T09:00:00	4	Temperatura máxima	16.2
166531	7	Sololá	701	Sololá	2	El tablón	7	Julio	2023-07-18T00:00:00	2024-11-06T09:00:00	3	Temperatura mínima	14.9
166532	7	Sololá	701	Sololá	2	El tablón	7	Julio	2023-07-18T00:00:00	2024-11-06T09:00:00	5	Humedad	77
166533	7	Sololá	701	Sololá	2	El tablón	7	Julio	2023-07-18T00:00:00	2024-11-06T09:00:00	6	Velocidad del viento	12.9
166534	7	Sololá	701	Sololá	2	El tablón	7	Julio	2023-07-18T00:00:00	2024-11-06T09:00:00	7	Dirección del viento	12.87
166535	7	Sololá	701	Sololá	2	El tablón	7	Julio	2023-07-18T00:00:00	2024-11-06T09:00:00	1	Precipitación	0
166536	7	Sololá	701	Sololá	2	El tablón	7	Julio	2023-07-18T00:00:00	2024-11-06T09:00:00	8	Radiación solar	523
166537	7	Sololá	701	Sololá	2	El tablón	7	Julio	2023-07-18T00:00:00	2024-11-06T10:00:00	2	Temperatura media	16.8
166538	7	Sololá	701	Sololá	2	El tablón	7	Julio	2023-07-18T00:00:00	2024-11-06T10:00:00	4	Temperatura máxima	16.8
166539	7	Sololá	701	Sololá	2	El tablón	7	Julio	2023-07-18T00:00:00	2024-11-06T10:00:00	3	Temperatura mínima	16.2
166540	7	Sololá	701	Sololá	2	El tablón	7	Julio	2023-07-18T00:00:00	2024-11-06T10:00:00	5	Humedad	68
166541	7	Sololá	701	Sololá	2	El tablón	7	Julio	2023-07-18T00:00:00	2024-11-06T10:00:00	6	Velocidad del viento	12.9
166542	7	Sololá	701	Sololá	2	El tablón	7	Julio	2023-07-18T00:00:00	2024-11-06T10:00:00	7	Dirección del viento	12.87
166543	7	Sololá	701	Sololá	2	El tablón	7	Julio	2023-07-18T00:00:00	2024-11-06T10:00:00	1	Precipitación	0
166544	7	Sololá	701	Sololá	2	El tablón	7	Julio	2023-07-18T00:00:00	2024-11-06T10:00:00	8	Radiación solar	717
166545	7	Sololá	701	Sololá	2	El tablón	7	Julio	2023-07-18T00:00:00	2024-11-06T11:00:00	2	Temperatura media	17.4
166546	7	Sololá	701	Sololá	2	El tablón	7	Julio	2023-07-18T00:00:00	2024-11-06T11:00:00	4	Temperatura máxima	17.7
166547	7	Sololá	701	Sololá	2	El tablón	7	Julio	2023-07-18T00:00:00	2024-11-06T11:00:00	3	Temperatura mínima	16.8
166548	7	Sololá	701	Sololá	2	El tablón	7	Julio	2023-07-18T00:00:00	2024-11-06T11:00:00	5	Humedad	66
166549	7	Sololá	701	Sololá	2	El tablón	7	Julio	2023-07-18T00:00:00	2024-11-06T11:00:00	6	Velocidad del viento	14.5
166550	7	Sololá	701	Sololá	2	El tablón	7	Julio	2023-07-18T00:00:00	2024-11-06T11:00:00	7	Dirección del viento	14.48
166551	7	Sololá	701	Sololá	2	El tablón	7	Julio	2023-07-18T00:00:00	2024-11-06T11:00:00	1	Precipitación	0
166552	7	Sololá	701	Sololá	2	El tablón	7	Julio	2023-07-18T00:00:00	2024-11-06T11:00:00	8	Radiación solar	839
166553	7	Sololá	701	Sololá	2	El tablón	7	Julio	2023-07-18T00:00:00	2024-11-06T12:00:00	2	Temperatura media	19
166554	7	Sololá	701	Sololá	2	El tablón	7	Julio	2023-07-18T00:00:00	2024-11-06T12:00:00	4	Temperatura máxima	19
166555	7	Sololá	701	Sololá	2	El tablón	7	Julio	2023-07-18T00:00:00	2024-11-06T12:00:00	3	Temperatura mínima	17.5
166556	7	Sololá	701	Sololá	2	El tablón	7	Julio	2023-07-18T00:00:00	2024-11-06T12:00:00	5	Humedad	63
166557	7	Sololá	701	Sololá	2	El tablón	7	Julio	2023-07-18T00:00:00	2024-11-06T12:00:00	6	Velocidad del viento	11.3
166558	7	Sololá	701	Sololá	2	El tablón	7	Julio	2023-07-18T00:00:00	2024-11-06T12:00:00	7	Dirección del viento	11.27
166559	7	Sololá	701	Sololá	2	El tablón	7	Julio	2023-07-18T00:00:00	2024-11-06T12:00:00	1	Precipitación	0
166560	7	Sololá	701	Sololá	2	El tablón	7	Julio	2023-07-18T00:00:00	2024-11-06T12:00:00	8	Radiación solar	946
166561	7	Sololá	701	Sololá	2	El tablón	7	Julio	2023-07-18T00:00:00	2024-11-06T13:00:00	2	Temperatura media	18.9
166562	7	Sololá	701	Sololá	2	El tablón	7	Julio	2023-07-18T00:00:00	2024-11-06T13:00:00	4	Temperatura máxima	19.6
166563	7	Sololá	701	Sololá	2	El tablón	7	Julio	2023-07-18T00:00:00	2024-11-06T13:00:00	3	Temperatura mínima	18.7
166564	7	Sololá	701	Sololá	2	El tablón	7	Julio	2023-07-18T00:00:00	2024-11-06T13:00:00	5	Humedad	60
166565	7	Sololá	701	Sololá	2	El tablón	7	Julio	2023-07-18T00:00:00	2024-11-06T13:00:00	6	Velocidad del viento	11.3
166566	7	Sololá	701	Sololá	2	El tablón	7	Julio	2023-07-18T00:00:00	2024-11-06T13:00:00	7	Dirección del viento	11.27
166567	7	Sololá	701	Sololá	2	El tablón	7	Julio	2023-07-18T00:00:00	2024-11-06T13:00:00	1	Precipitación	0
166568	7	Sololá	701	Sololá	2	El tablón	7	Julio	2023-07-18T00:00:00	2024-11-06T13:00:00	8	Radiación solar	982
166569	7	Sololá	701	Sololá	2	El tablón	7	Julio	2023-07-18T00:00:00	2024-11-06T14:00:00	2	Temperatura media	19.7
166570	7	Sololá	701	Sololá	2	El tablón	7	Julio	2023-07-18T00:00:00	2024-11-06T14:00:00	4	Temperatura máxima	19.7
166571	7	Sololá	701	Sololá	2	El tablón	7	Julio	2023-07-18T00:00:00	2024-11-06T14:00:00	3	Temperatura mínima	18.9
166572	7	Sololá	701	Sololá	2	El tablón	7	Julio	2023-07-18T00:00:00	2024-11-06T14:00:00	5	Humedad	57
166573	7	Sololá	701	Sololá	2	El tablón	7	Julio	2023-07-18T00:00:00	2024-11-06T14:00:00	6	Velocidad del viento	12.9
166574	7	Sololá	701	Sololá	2	El tablón	7	Julio	2023-07-18T00:00:00	2024-11-06T14:00:00	7	Dirección del viento	12.87
166575	7	Sololá	701	Sololá	2	El tablón	7	Julio	2023-07-18T00:00:00	2024-11-06T14:00:00	1	Precipitación	0
166576	7	Sololá	701	Sololá	2	El tablón	7	Julio	2023-07-18T00:00:00	2024-11-06T14:00:00	8	Radiación solar	927
166577	7	Sololá	701	Sololá	2	El tablón	7	Julio	2023-07-18T00:00:00	2024-11-06T15:00:00	2	Temperatura media	19.7
166578	7	Sololá	701	Sololá	2	El tablón	7	Julio	2023-07-18T00:00:00	2024-11-06T15:00:00	4	Temperatura máxima	19.8
166579	7	Sololá	701	Sololá	2	El tablón	7	Julio	2023-07-18T00:00:00	2024-11-06T15:00:00	3	Temperatura mínima	19.3
166580	7	Sololá	701	Sololá	2	El tablón	7	Julio	2023-07-18T00:00:00	2024-11-06T15:00:00	5	Humedad	61
166581	7	Sololá	701	Sololá	2	El tablón	7	Julio	2023-07-18T00:00:00	2024-11-06T15:00:00	6	Velocidad del viento	12.9
166582	7	Sololá	701	Sololá	2	El tablón	7	Julio	2023-07-18T00:00:00	2024-11-06T15:00:00	7	Dirección del viento	12.87
166583	7	Sololá	701	Sololá	2	El tablón	7	Julio	2023-07-18T00:00:00	2024-11-06T15:00:00	1	Precipitación	0
166584	7	Sololá	701	Sololá	2	El tablón	7	Julio	2023-07-18T00:00:00	2024-11-06T15:00:00	8	Radiación solar	833
166585	7	Sololá	701	Sololá	2	El tablón	7	Julio	2023-07-18T00:00:00	2024-11-06T16:00:00	2	Temperatura media	19.2
166586	7	Sololá	701	Sololá	2	El tablón	7	Julio	2023-07-18T00:00:00	2024-11-06T16:00:00	4	Temperatura máxima	19.8
166587	7	Sololá	701	Sololá	2	El tablón	7	Julio	2023-07-18T00:00:00	2024-11-06T16:00:00	3	Temperatura mínima	19.2
166588	7	Sololá	701	Sololá	2	El tablón	7	Julio	2023-07-18T00:00:00	2024-11-06T16:00:00	5	Humedad	56
166589	7	Sololá	701	Sololá	2	El tablón	7	Julio	2023-07-18T00:00:00	2024-11-06T16:00:00	6	Velocidad del viento	12.9
166590	7	Sololá	701	Sololá	2	El tablón	7	Julio	2023-07-18T00:00:00	2024-11-06T16:00:00	7	Dirección del viento	12.87
166591	7	Sololá	701	Sololá	2	El tablón	7	Julio	2023-07-18T00:00:00	2024-11-06T16:00:00	1	Precipitación	0
166592	7	Sololá	701	Sololá	2	El tablón	7	Julio	2023-07-18T00:00:00	2024-11-06T16:00:00	8	Radiación solar	760
166593	7	Sololá	701	Sololá	2	El tablón	7	Julio	2023-07-18T00:00:00	2024-11-06T17:00:00	2	Temperatura media	17.1
166594	7	Sololá	701	Sololá	2	El tablón	7	Julio	2023-07-18T00:00:00	2024-11-06T17:00:00	4	Temperatura máxima	19.2
166595	7	Sololá	701	Sololá	2	El tablón	7	Julio	2023-07-18T00:00:00	2024-11-06T17:00:00	3	Temperatura mínima	17.1
166596	7	Sololá	701	Sololá	2	El tablón	7	Julio	2023-07-18T00:00:00	2024-11-06T17:00:00	5	Humedad	67
166597	7	Sololá	701	Sololá	2	El tablón	7	Julio	2023-07-18T00:00:00	2024-11-06T17:00:00	6	Velocidad del viento	9.7
166598	7	Sololá	701	Sololá	2	El tablón	7	Julio	2023-07-18T00:00:00	2024-11-06T17:00:00	7	Dirección del viento	9.66
166599	7	Sololá	701	Sololá	2	El tablón	7	Julio	2023-07-18T00:00:00	2024-11-06T17:00:00	1	Precipitación	0
166600	7	Sololá	701	Sololá	2	El tablón	7	Julio	2023-07-18T00:00:00	2024-11-06T17:00:00	8	Radiación solar	191
166601	7	Sololá	701	Sololá	2	El tablón	7	Julio	2023-07-18T00:00:00	2024-11-06T18:00:00	2	Temperatura media	16.8
166602	7	Sololá	701	Sololá	2	El tablón	7	Julio	2023-07-18T00:00:00	2024-11-06T18:00:00	4	Temperatura máxima	17.2
166603	7	Sololá	701	Sololá	2	El tablón	7	Julio	2023-07-18T00:00:00	2024-11-06T18:00:00	3	Temperatura mínima	16.8
166604	7	Sololá	701	Sololá	2	El tablón	7	Julio	2023-07-18T00:00:00	2024-11-06T18:00:00	5	Humedad	71
166605	7	Sololá	701	Sololá	2	El tablón	7	Julio	2023-07-18T00:00:00	2024-11-06T18:00:00	6	Velocidad del viento	8
166606	7	Sololá	701	Sololá	2	El tablón	7	Julio	2023-07-18T00:00:00	2024-11-06T18:00:00	7	Dirección del viento	8.05
166607	7	Sololá	701	Sololá	2	El tablón	7	Julio	2023-07-18T00:00:00	2024-11-06T18:00:00	1	Precipitación	0
166608	7	Sololá	701	Sololá	2	El tablón	7	Julio	2023-07-18T00:00:00	2024-11-06T18:00:00	8	Radiación solar	167
166609	7	Sololá	701	Sololá	2	El tablón	7	Julio	2023-07-18T00:00:00	2024-11-06T19:00:00	2	Temperatura media	14.9
166610	7	Sololá	701	Sololá	2	El tablón	7	Julio	2023-07-18T00:00:00	2024-11-06T19:00:00	4	Temperatura máxima	16.8
166611	7	Sololá	701	Sololá	2	El tablón	7	Julio	2023-07-18T00:00:00	2024-11-06T19:00:00	3	Temperatura mínima	14.9
166612	7	Sololá	701	Sololá	2	El tablón	7	Julio	2023-07-18T00:00:00	2024-11-06T19:00:00	5	Humedad	79
166613	7	Sololá	701	Sololá	2	El tablón	7	Julio	2023-07-18T00:00:00	2024-11-06T19:00:00	6	Velocidad del viento	6.4
166614	7	Sololá	701	Sololá	2	El tablón	7	Julio	2023-07-18T00:00:00	2024-11-06T19:00:00	7	Dirección del viento	6.44
166615	7	Sololá	701	Sololá	2	El tablón	7	Julio	2023-07-18T00:00:00	2024-11-06T19:00:00	1	Precipitación	0
166616	7	Sololá	701	Sololá	2	El tablón	7	Julio	2023-07-18T00:00:00	2024-11-06T19:00:00	8	Radiación solar	0
166617	7	Sololá	701	Sololá	2	El tablón	7	Julio	2023-07-18T00:00:00	2024-11-06T20:00:00	2	Temperatura media	14.2
166618	7	Sololá	701	Sololá	2	El tablón	7	Julio	2023-07-18T00:00:00	2024-11-06T20:00:00	4	Temperatura máxima	14.9
166619	7	Sololá	701	Sololá	2	El tablón	7	Julio	2023-07-18T00:00:00	2024-11-06T20:00:00	3	Temperatura mínima	14.2
166620	7	Sololá	701	Sololá	2	El tablón	7	Julio	2023-07-18T00:00:00	2024-11-06T20:00:00	5	Humedad	80
166621	7	Sololá	701	Sololá	2	El tablón	7	Julio	2023-07-18T00:00:00	2024-11-06T20:00:00	6	Velocidad del viento	3.2
166622	7	Sololá	701	Sololá	2	El tablón	7	Julio	2023-07-18T00:00:00	2024-11-06T20:00:00	7	Dirección del viento	3.22
166623	7	Sololá	701	Sololá	2	El tablón	7	Julio	2023-07-18T00:00:00	2024-11-06T20:00:00	1	Precipitación	0
166624	7	Sololá	701	Sololá	2	El tablón	7	Julio	2023-07-18T00:00:00	2024-11-06T20:00:00	8	Radiación solar	0
166625	7	Sololá	701	Sololá	2	El tablón	7	Julio	2023-07-18T00:00:00	2024-11-06T21:00:00	2	Temperatura media	13.4
166626	7	Sololá	701	Sololá	2	El tablón	7	Julio	2023-07-18T00:00:00	2024-11-06T21:00:00	4	Temperatura máxima	14.2
166627	7	Sololá	701	Sololá	2	El tablón	7	Julio	2023-07-18T00:00:00	2024-11-06T21:00:00	3	Temperatura mínima	13.4
166628	7	Sololá	701	Sololá	2	El tablón	7	Julio	2023-07-18T00:00:00	2024-11-06T21:00:00	5	Humedad	81
166629	7	Sololá	701	Sololá	2	El tablón	7	Julio	2023-07-18T00:00:00	2024-11-06T21:00:00	6	Velocidad del viento	4.8
166630	7	Sololá	701	Sololá	2	El tablón	7	Julio	2023-07-18T00:00:00	2024-11-06T21:00:00	7	Dirección del viento	4.83
166631	7	Sololá	701	Sololá	2	El tablón	7	Julio	2023-07-18T00:00:00	2024-11-06T21:00:00	1	Precipitación	0
166632	7	Sololá	701	Sololá	2	El tablón	7	Julio	2023-07-18T00:00:00	2024-11-06T21:00:00	8	Radiación solar	0
166633	7	Sololá	701	Sololá	2	El tablón	7	Julio	2023-07-18T00:00:00	2024-11-06T22:00:00	2	Temperatura media	12.8
166634	7	Sololá	701	Sololá	2	El tablón	7	Julio	2023-07-18T00:00:00	2024-11-06T22:00:00	4	Temperatura máxima	13.4
166635	7	Sololá	701	Sololá	2	El tablón	7	Julio	2023-07-18T00:00:00	2024-11-06T22:00:00	3	Temperatura mínima	12.8
166636	7	Sololá	701	Sololá	2	El tablón	7	Julio	2023-07-18T00:00:00	2024-11-06T22:00:00	5	Humedad	83
166637	7	Sololá	701	Sololá	2	El tablón	7	Julio	2023-07-18T00:00:00	2024-11-06T22:00:00	6	Velocidad del viento	6.4
166638	7	Sololá	701	Sololá	2	El tablón	7	Julio	2023-07-18T00:00:00	2024-11-06T22:00:00	7	Dirección del viento	6.44
166639	7	Sololá	701	Sololá	2	El tablón	7	Julio	2023-07-18T00:00:00	2024-11-06T22:00:00	1	Precipitación	0
166640	7	Sololá	701	Sololá	2	El tablón	7	Julio	2023-07-18T00:00:00	2024-11-06T22:00:00	8	Radiación solar	0
166641	7	Sololá	701	Sololá	2	El tablón	7	Julio	2023-07-18T00:00:00	2024-11-06T23:00:00	2	Temperatura media	12.4
166642	7	Sololá	701	Sololá	2	El tablón	7	Julio	2023-07-18T00:00:00	2024-11-06T23:00:00	4	Temperatura máxima	12.8
166643	7	Sololá	701	Sololá	2	El tablón	7	Julio	2023-07-18T00:00:00	2024-11-06T23:00:00	3	Temperatura mínima	12.3
166644	7	Sololá	701	Sololá	2	El tablón	7	Julio	2023-07-18T00:00:00	2024-11-06T23:00:00	5	Humedad	86
166645	7	Sololá	701	Sololá	2	El tablón	7	Julio	2023-07-18T00:00:00	2024-11-06T23:00:00	6	Velocidad del viento	8
166646	7	Sololá	701	Sololá	2	El tablón	7	Julio	2023-07-18T00:00:00	2024-11-06T23:00:00	7	Dirección del viento	8.05
166647	7	Sololá	701	Sololá	2	El tablón	7	Julio	2023-07-18T00:00:00	2024-11-06T23:00:00	1	Precipitación	0
166648	7	Sololá	701	Sololá	2	El tablón	7	Julio	2023-07-18T00:00:00	2024-11-06T23:00:00	8	Radiación solar	0
166649	7	Sololá	701	Sololá	2	El tablón	7	Julio	2023-07-19T00:00:00	2024-11-06T00:00:00	2	Temperatura media	12.8
166650	7	Sololá	701	Sololá	2	El tablón	7	Julio	2023-07-19T00:00:00	2024-11-06T00:00:00	4	Temperatura máxima	12.8
166651	7	Sololá	701	Sololá	2	El tablón	7	Julio	2023-07-19T00:00:00	2024-11-06T00:00:00	3	Temperatura mínima	12.4
166652	7	Sololá	701	Sololá	2	El tablón	7	Julio	2023-07-19T00:00:00	2024-11-06T00:00:00	5	Humedad	85
166653	7	Sololá	701	Sololá	2	El tablón	7	Julio	2023-07-19T00:00:00	2024-11-06T00:00:00	6	Velocidad del viento	9.7
166654	7	Sololá	701	Sololá	2	El tablón	7	Julio	2023-07-19T00:00:00	2024-11-06T00:00:00	7	Dirección del viento	9.66
166655	7	Sololá	701	Sololá	2	El tablón	7	Julio	2023-07-19T00:00:00	2024-11-06T00:00:00	1	Precipitación	0
166656	7	Sololá	701	Sololá	2	El tablón	7	Julio	2023-07-19T00:00:00	2024-11-06T00:00:00	8	Radiación solar	0
166657	7	Sololá	701	Sololá	2	El tablón	7	Julio	2023-07-19T00:00:00	2024-11-06T01:00:00	2	Temperatura media	12.6
166658	7	Sololá	701	Sololá	2	El tablón	7	Julio	2023-07-19T00:00:00	2024-11-06T01:00:00	4	Temperatura máxima	12.8
166659	7	Sololá	701	Sololá	2	El tablón	7	Julio	2023-07-19T00:00:00	2024-11-06T01:00:00	3	Temperatura mínima	12.6
166660	7	Sololá	701	Sololá	2	El tablón	7	Julio	2023-07-19T00:00:00	2024-11-06T01:00:00	5	Humedad	85
166661	7	Sololá	701	Sololá	2	El tablón	7	Julio	2023-07-19T00:00:00	2024-11-06T01:00:00	6	Velocidad del viento	16.1
166662	7	Sololá	701	Sololá	2	El tablón	7	Julio	2023-07-19T00:00:00	2024-11-06T01:00:00	7	Dirección del viento	16.09
166663	7	Sololá	701	Sololá	2	El tablón	7	Julio	2023-07-19T00:00:00	2024-11-06T01:00:00	1	Precipitación	0
166664	7	Sololá	701	Sololá	2	El tablón	7	Julio	2023-07-19T00:00:00	2024-11-06T01:00:00	8	Radiación solar	0
166665	7	Sololá	701	Sololá	2	El tablón	7	Julio	2023-07-19T00:00:00	2024-11-06T02:00:00	2	Temperatura media	12.2
166666	7	Sololá	701	Sololá	2	El tablón	7	Julio	2023-07-19T00:00:00	2024-11-06T02:00:00	4	Temperatura máxima	12.7
166667	7	Sololá	701	Sololá	2	El tablón	7	Julio	2023-07-19T00:00:00	2024-11-06T02:00:00	3	Temperatura mínima	12.2
166668	7	Sololá	701	Sololá	2	El tablón	7	Julio	2023-07-19T00:00:00	2024-11-06T02:00:00	5	Humedad	78
166669	7	Sololá	701	Sololá	2	El tablón	7	Julio	2023-07-19T00:00:00	2024-11-06T02:00:00	6	Velocidad del viento	19.3
166670	7	Sololá	701	Sololá	2	El tablón	7	Julio	2023-07-19T00:00:00	2024-11-06T02:00:00	7	Dirección del viento	19.31
166671	7	Sololá	701	Sololá	2	El tablón	7	Julio	2023-07-19T00:00:00	2024-11-06T02:00:00	1	Precipitación	0
166672	7	Sololá	701	Sololá	2	El tablón	7	Julio	2023-07-19T00:00:00	2024-11-06T02:00:00	8	Radiación solar	0
166673	7	Sololá	701	Sololá	2	El tablón	7	Julio	2023-07-19T00:00:00	2024-11-06T03:00:00	2	Temperatura media	12.2
166674	7	Sololá	701	Sololá	2	El tablón	7	Julio	2023-07-19T00:00:00	2024-11-06T03:00:00	4	Temperatura máxima	12.3
166675	7	Sololá	701	Sololá	2	El tablón	7	Julio	2023-07-19T00:00:00	2024-11-06T03:00:00	3	Temperatura mínima	12.1
166676	7	Sololá	701	Sololá	2	El tablón	7	Julio	2023-07-19T00:00:00	2024-11-06T03:00:00	5	Humedad	60
166677	7	Sololá	701	Sololá	2	El tablón	7	Julio	2023-07-19T00:00:00	2024-11-06T03:00:00	6	Velocidad del viento	19.3
166678	7	Sololá	701	Sololá	2	El tablón	7	Julio	2023-07-19T00:00:00	2024-11-06T03:00:00	7	Dirección del viento	19.31
166679	7	Sololá	701	Sololá	2	El tablón	7	Julio	2023-07-19T00:00:00	2024-11-06T03:00:00	1	Precipitación	0
166680	7	Sololá	701	Sololá	2	El tablón	7	Julio	2023-07-19T00:00:00	2024-11-06T03:00:00	8	Radiación solar	0
166681	7	Sololá	701	Sololá	2	El tablón	7	Julio	2023-07-19T00:00:00	2024-11-06T04:00:00	2	Temperatura media	11.6
166682	7	Sololá	701	Sololá	2	El tablón	7	Julio	2023-07-19T00:00:00	2024-11-06T04:00:00	4	Temperatura máxima	12.3
166683	7	Sololá	701	Sololá	2	El tablón	7	Julio	2023-07-19T00:00:00	2024-11-06T04:00:00	3	Temperatura mínima	11.4
166684	7	Sololá	701	Sololá	2	El tablón	7	Julio	2023-07-19T00:00:00	2024-11-06T04:00:00	5	Humedad	67
166685	7	Sololá	701	Sololá	2	El tablón	7	Julio	2023-07-19T00:00:00	2024-11-06T04:00:00	6	Velocidad del viento	20.9
166686	7	Sololá	701	Sololá	2	El tablón	7	Julio	2023-07-19T00:00:00	2024-11-06T04:00:00	7	Dirección del viento	20.92
166687	7	Sololá	701	Sololá	2	El tablón	7	Julio	2023-07-19T00:00:00	2024-11-06T04:00:00	1	Precipitación	0
166688	7	Sololá	701	Sololá	2	El tablón	7	Julio	2023-07-19T00:00:00	2024-11-06T04:00:00	8	Radiación solar	0
166689	7	Sololá	701	Sololá	2	El tablón	7	Julio	2023-07-19T00:00:00	2024-11-06T05:00:00	2	Temperatura media	11.4
166690	7	Sololá	701	Sololá	2	El tablón	7	Julio	2023-07-19T00:00:00	2024-11-06T05:00:00	4	Temperatura máxima	11.9
166691	7	Sololá	701	Sololá	2	El tablón	7	Julio	2023-07-19T00:00:00	2024-11-06T05:00:00	3	Temperatura mínima	11.4
166692	7	Sololá	701	Sololá	2	El tablón	7	Julio	2023-07-19T00:00:00	2024-11-06T05:00:00	5	Humedad	71
166693	7	Sololá	701	Sololá	2	El tablón	7	Julio	2023-07-19T00:00:00	2024-11-06T05:00:00	6	Velocidad del viento	20.9
166694	7	Sololá	701	Sololá	2	El tablón	7	Julio	2023-07-19T00:00:00	2024-11-06T05:00:00	7	Dirección del viento	20.92
166695	7	Sololá	701	Sololá	2	El tablón	7	Julio	2023-07-19T00:00:00	2024-11-06T05:00:00	1	Precipitación	0
166696	7	Sololá	701	Sololá	2	El tablón	7	Julio	2023-07-19T00:00:00	2024-11-06T05:00:00	8	Radiación solar	0
166697	7	Sololá	701	Sololá	2	El tablón	7	Julio	2023-07-19T00:00:00	2024-11-06T06:00:00	2	Temperatura media	11.6
166698	7	Sololá	701	Sololá	2	El tablón	7	Julio	2023-07-19T00:00:00	2024-11-06T06:00:00	4	Temperatura máxima	11.7
166699	7	Sololá	701	Sololá	2	El tablón	7	Julio	2023-07-19T00:00:00	2024-11-06T06:00:00	3	Temperatura mínima	11.3
166700	7	Sololá	701	Sololá	2	El tablón	7	Julio	2023-07-19T00:00:00	2024-11-06T06:00:00	5	Humedad	80
166701	7	Sololá	701	Sololá	2	El tablón	7	Julio	2023-07-19T00:00:00	2024-11-06T06:00:00	6	Velocidad del viento	20.9
166702	7	Sololá	701	Sololá	2	El tablón	7	Julio	2023-07-19T00:00:00	2024-11-06T06:00:00	7	Dirección del viento	20.92
166703	7	Sololá	701	Sololá	2	El tablón	7	Julio	2023-07-19T00:00:00	2024-11-06T06:00:00	1	Precipitación	0
166704	7	Sololá	701	Sololá	2	El tablón	7	Julio	2023-07-19T00:00:00	2024-11-06T06:00:00	8	Radiación solar	2
166705	7	Sololá	701	Sololá	2	El tablón	7	Julio	2023-07-19T00:00:00	2024-11-06T07:00:00	2	Temperatura media	12.2
166706	7	Sololá	701	Sololá	2	El tablón	7	Julio	2023-07-19T00:00:00	2024-11-06T07:00:00	4	Temperatura máxima	12.3
166707	7	Sololá	701	Sololá	2	El tablón	7	Julio	2023-07-19T00:00:00	2024-11-06T07:00:00	3	Temperatura mínima	11.4
166708	7	Sololá	701	Sololá	2	El tablón	7	Julio	2023-07-19T00:00:00	2024-11-06T07:00:00	5	Humedad	84
166709	7	Sololá	701	Sololá	2	El tablón	7	Julio	2023-07-19T00:00:00	2024-11-06T07:00:00	6	Velocidad del viento	22.5
166710	7	Sololá	701	Sololá	2	El tablón	7	Julio	2023-07-19T00:00:00	2024-11-06T07:00:00	7	Dirección del viento	22.53
166711	7	Sololá	701	Sololá	2	El tablón	7	Julio	2023-07-19T00:00:00	2024-11-06T07:00:00	1	Precipitación	0
166712	7	Sololá	701	Sololá	2	El tablón	7	Julio	2023-07-19T00:00:00	2024-11-06T07:00:00	8	Radiación solar	110
166713	7	Sololá	701	Sololá	2	El tablón	7	Julio	2023-07-19T00:00:00	2024-11-06T08:00:00	2	Temperatura media	13
166714	7	Sololá	701	Sololá	2	El tablón	7	Julio	2023-07-19T00:00:00	2024-11-06T08:00:00	4	Temperatura máxima	13.2
166715	7	Sololá	701	Sololá	2	El tablón	7	Julio	2023-07-19T00:00:00	2024-11-06T08:00:00	3	Temperatura mínima	12.2
166716	7	Sololá	701	Sololá	2	El tablón	7	Julio	2023-07-19T00:00:00	2024-11-06T08:00:00	5	Humedad	86
166717	7	Sololá	701	Sololá	2	El tablón	7	Julio	2023-07-19T00:00:00	2024-11-06T08:00:00	6	Velocidad del viento	19.3
166718	7	Sololá	701	Sololá	2	El tablón	7	Julio	2023-07-19T00:00:00	2024-11-06T08:00:00	7	Dirección del viento	19.31
166719	7	Sololá	701	Sololá	2	El tablón	7	Julio	2023-07-19T00:00:00	2024-11-06T08:00:00	1	Precipitación	0
166720	7	Sololá	701	Sololá	2	El tablón	7	Julio	2023-07-19T00:00:00	2024-11-06T08:00:00	8	Radiación solar	208
166721	7	Sololá	701	Sololá	2	El tablón	7	Julio	2023-07-19T00:00:00	2024-11-06T09:00:00	2	Temperatura media	14.1
166722	7	Sololá	701	Sololá	2	El tablón	7	Julio	2023-07-19T00:00:00	2024-11-06T09:00:00	4	Temperatura máxima	14.2
166723	7	Sololá	701	Sololá	2	El tablón	7	Julio	2023-07-19T00:00:00	2024-11-06T09:00:00	3	Temperatura mínima	12.8
166724	7	Sololá	701	Sololá	2	El tablón	7	Julio	2023-07-19T00:00:00	2024-11-06T09:00:00	5	Humedad	82
166725	7	Sololá	701	Sololá	2	El tablón	7	Julio	2023-07-19T00:00:00	2024-11-06T09:00:00	6	Velocidad del viento	19.3
166726	7	Sololá	701	Sololá	2	El tablón	7	Julio	2023-07-19T00:00:00	2024-11-06T09:00:00	7	Dirección del viento	19.31
166727	7	Sololá	701	Sololá	2	El tablón	7	Julio	2023-07-19T00:00:00	2024-11-06T09:00:00	1	Precipitación	0
166728	7	Sololá	701	Sololá	2	El tablón	7	Julio	2023-07-19T00:00:00	2024-11-06T09:00:00	8	Radiación solar	352
166729	7	Sololá	701	Sololá	2	El tablón	7	Julio	2023-07-19T00:00:00	2024-11-06T10:00:00	2	Temperatura media	14.7
166730	7	Sololá	701	Sololá	2	El tablón	7	Julio	2023-07-19T00:00:00	2024-11-06T10:00:00	4	Temperatura máxima	14.7
166731	7	Sololá	701	Sololá	2	El tablón	7	Julio	2023-07-19T00:00:00	2024-11-06T10:00:00	3	Temperatura mínima	14
166732	7	Sololá	701	Sololá	2	El tablón	7	Julio	2023-07-19T00:00:00	2024-11-06T10:00:00	5	Humedad	77
166733	7	Sololá	701	Sololá	2	El tablón	7	Julio	2023-07-19T00:00:00	2024-11-06T10:00:00	6	Velocidad del viento	20.9
166734	7	Sololá	701	Sololá	2	El tablón	7	Julio	2023-07-19T00:00:00	2024-11-06T10:00:00	7	Dirección del viento	20.92
166735	7	Sololá	701	Sololá	2	El tablón	7	Julio	2023-07-19T00:00:00	2024-11-06T10:00:00	1	Precipitación	0
166736	7	Sololá	701	Sololá	2	El tablón	7	Julio	2023-07-19T00:00:00	2024-11-06T10:00:00	8	Radiación solar	435
166737	7	Sololá	701	Sololá	2	El tablón	7	Julio	2023-07-19T00:00:00	2024-11-06T11:00:00	2	Temperatura media	17.1
166738	7	Sololá	701	Sololá	2	El tablón	7	Julio	2023-07-19T00:00:00	2024-11-06T11:00:00	4	Temperatura máxima	17.1
166739	7	Sololá	701	Sololá	2	El tablón	7	Julio	2023-07-19T00:00:00	2024-11-06T11:00:00	3	Temperatura mínima	14.7
166740	7	Sololá	701	Sololá	2	El tablón	7	Julio	2023-07-19T00:00:00	2024-11-06T11:00:00	5	Humedad	70
166741	7	Sololá	701	Sololá	2	El tablón	7	Julio	2023-07-19T00:00:00	2024-11-06T11:00:00	6	Velocidad del viento	19.3
166742	7	Sololá	701	Sololá	2	El tablón	7	Julio	2023-07-19T00:00:00	2024-11-06T11:00:00	7	Dirección del viento	19.31
166743	7	Sololá	701	Sololá	2	El tablón	7	Julio	2023-07-19T00:00:00	2024-11-06T11:00:00	1	Precipitación	0
166744	7	Sololá	701	Sololá	2	El tablón	7	Julio	2023-07-19T00:00:00	2024-11-06T11:00:00	8	Radiación solar	836
166745	7	Sololá	701	Sololá	2	El tablón	7	Julio	2023-07-19T00:00:00	2024-11-06T12:00:00	2	Temperatura media	18.5
166746	7	Sololá	701	Sololá	2	El tablón	7	Julio	2023-07-19T00:00:00	2024-11-06T12:00:00	4	Temperatura máxima	18.5
166747	7	Sololá	701	Sololá	2	El tablón	7	Julio	2023-07-19T00:00:00	2024-11-06T12:00:00	3	Temperatura mínima	17
166748	7	Sololá	701	Sololá	2	El tablón	7	Julio	2023-07-19T00:00:00	2024-11-06T12:00:00	5	Humedad	69
166749	7	Sololá	701	Sololá	2	El tablón	7	Julio	2023-07-19T00:00:00	2024-11-06T12:00:00	6	Velocidad del viento	17.7
166750	7	Sololá	701	Sololá	2	El tablón	7	Julio	2023-07-19T00:00:00	2024-11-06T12:00:00	7	Dirección del viento	17.7
166751	7	Sololá	701	Sololá	2	El tablón	7	Julio	2023-07-19T00:00:00	2024-11-06T12:00:00	1	Precipitación	0
166752	7	Sololá	701	Sololá	2	El tablón	7	Julio	2023-07-19T00:00:00	2024-11-06T12:00:00	8	Radiación solar	915
166753	7	Sololá	701	Sololá	2	El tablón	7	Julio	2023-07-19T00:00:00	2024-11-06T13:00:00	2	Temperatura media	18.8
166754	7	Sololá	701	Sololá	2	El tablón	7	Julio	2023-07-19T00:00:00	2024-11-06T13:00:00	4	Temperatura máxima	19.2
166755	7	Sololá	701	Sololá	2	El tablón	7	Julio	2023-07-19T00:00:00	2024-11-06T13:00:00	3	Temperatura mínima	18.5
166756	7	Sololá	701	Sololá	2	El tablón	7	Julio	2023-07-19T00:00:00	2024-11-06T13:00:00	5	Humedad	68
166757	7	Sololá	701	Sololá	2	El tablón	7	Julio	2023-07-19T00:00:00	2024-11-06T13:00:00	6	Velocidad del viento	11.3
166758	7	Sololá	701	Sololá	2	El tablón	7	Julio	2023-07-19T00:00:00	2024-11-06T13:00:00	7	Dirección del viento	11.27
166759	7	Sololá	701	Sololá	2	El tablón	7	Julio	2023-07-19T00:00:00	2024-11-06T13:00:00	1	Precipitación	0
166760	7	Sololá	701	Sololá	2	El tablón	7	Julio	2023-07-19T00:00:00	2024-11-06T13:00:00	8	Radiación solar	937
166761	7	Sololá	701	Sololá	2	El tablón	7	Julio	2023-07-19T00:00:00	2024-11-06T14:00:00	2	Temperatura media	19
166762	7	Sololá	701	Sololá	2	El tablón	7	Julio	2023-07-19T00:00:00	2024-11-06T14:00:00	4	Temperatura máxima	19.3
166763	7	Sololá	701	Sololá	2	El tablón	7	Julio	2023-07-19T00:00:00	2024-11-06T14:00:00	3	Temperatura mínima	18.5
166764	7	Sololá	701	Sololá	2	El tablón	7	Julio	2023-07-19T00:00:00	2024-11-06T14:00:00	5	Humedad	65
166765	7	Sololá	701	Sololá	2	El tablón	7	Julio	2023-07-19T00:00:00	2024-11-06T14:00:00	6	Velocidad del viento	12.9
166766	7	Sololá	701	Sololá	2	El tablón	7	Julio	2023-07-19T00:00:00	2024-11-06T14:00:00	7	Dirección del viento	12.87
166767	7	Sololá	701	Sololá	2	El tablón	7	Julio	2023-07-19T00:00:00	2024-11-06T14:00:00	1	Precipitación	0
166768	7	Sololá	701	Sololá	2	El tablón	7	Julio	2023-07-19T00:00:00	2024-11-06T14:00:00	8	Radiación solar	888
166769	7	Sololá	701	Sololá	2	El tablón	7	Julio	2023-07-19T00:00:00	2024-11-06T15:00:00	2	Temperatura media	18.9
166770	7	Sololá	701	Sololá	2	El tablón	7	Julio	2023-07-19T00:00:00	2024-11-06T15:00:00	4	Temperatura máxima	19.4
166771	7	Sololá	701	Sololá	2	El tablón	7	Julio	2023-07-19T00:00:00	2024-11-06T15:00:00	3	Temperatura mínima	18.8
166772	7	Sololá	701	Sololá	2	El tablón	7	Julio	2023-07-19T00:00:00	2024-11-06T15:00:00	5	Humedad	64
166773	7	Sololá	701	Sololá	2	El tablón	7	Julio	2023-07-19T00:00:00	2024-11-06T15:00:00	6	Velocidad del viento	12.9
166774	7	Sololá	701	Sololá	2	El tablón	7	Julio	2023-07-19T00:00:00	2024-11-06T15:00:00	7	Dirección del viento	12.87
166775	7	Sololá	701	Sololá	2	El tablón	7	Julio	2023-07-19T00:00:00	2024-11-06T15:00:00	1	Precipitación	0
166776	7	Sololá	701	Sololá	2	El tablón	7	Julio	2023-07-19T00:00:00	2024-11-06T15:00:00	8	Radiación solar	787
166777	7	Sololá	701	Sololá	2	El tablón	7	Julio	2023-07-19T00:00:00	2024-11-06T16:00:00	2	Temperatura media	18.5
166778	7	Sololá	701	Sololá	2	El tablón	7	Julio	2023-07-19T00:00:00	2024-11-06T16:00:00	4	Temperatura máxima	19
166779	7	Sololá	701	Sololá	2	El tablón	7	Julio	2023-07-19T00:00:00	2024-11-06T16:00:00	3	Temperatura mínima	18.2
166780	7	Sololá	701	Sololá	2	El tablón	7	Julio	2023-07-19T00:00:00	2024-11-06T16:00:00	5	Humedad	69
166781	7	Sololá	701	Sololá	2	El tablón	7	Julio	2023-07-19T00:00:00	2024-11-06T16:00:00	6	Velocidad del viento	12.9
166782	7	Sololá	701	Sololá	2	El tablón	7	Julio	2023-07-19T00:00:00	2024-11-06T16:00:00	7	Dirección del viento	12.87
166783	7	Sololá	701	Sololá	2	El tablón	7	Julio	2023-07-19T00:00:00	2024-11-06T16:00:00	1	Precipitación	0
166784	7	Sololá	701	Sololá	2	El tablón	7	Julio	2023-07-19T00:00:00	2024-11-06T16:00:00	8	Radiación solar	501
166785	7	Sololá	701	Sololá	2	El tablón	7	Julio	2023-07-19T00:00:00	2024-11-06T17:00:00	2	Temperatura media	17.8
166786	7	Sololá	701	Sololá	2	El tablón	7	Julio	2023-07-19T00:00:00	2024-11-06T17:00:00	4	Temperatura máxima	18.8
166787	7	Sololá	701	Sololá	2	El tablón	7	Julio	2023-07-19T00:00:00	2024-11-06T17:00:00	3	Temperatura mínima	17.6
166788	7	Sololá	701	Sololá	2	El tablón	7	Julio	2023-07-19T00:00:00	2024-11-06T17:00:00	5	Humedad	74
166789	7	Sololá	701	Sololá	2	El tablón	7	Julio	2023-07-19T00:00:00	2024-11-06T17:00:00	6	Velocidad del viento	12.9
166790	7	Sololá	701	Sololá	2	El tablón	7	Julio	2023-07-19T00:00:00	2024-11-06T17:00:00	7	Dirección del viento	12.87
166791	7	Sololá	701	Sololá	2	El tablón	7	Julio	2023-07-19T00:00:00	2024-11-06T17:00:00	1	Precipitación	0
166792	7	Sololá	701	Sololá	2	El tablón	7	Julio	2023-07-19T00:00:00	2024-11-06T17:00:00	8	Radiación solar	421
166793	7	Sololá	701	Sololá	2	El tablón	7	Julio	2023-07-19T00:00:00	2024-11-06T18:00:00	2	Temperatura media	15.8
166794	7	Sololá	701	Sololá	2	El tablón	7	Julio	2023-07-19T00:00:00	2024-11-06T18:00:00	4	Temperatura máxima	17.8
166795	7	Sololá	701	Sololá	2	El tablón	7	Julio	2023-07-19T00:00:00	2024-11-06T18:00:00	3	Temperatura mínima	15.8
166796	7	Sololá	701	Sololá	2	El tablón	7	Julio	2023-07-19T00:00:00	2024-11-06T18:00:00	5	Humedad	81
166797	7	Sololá	701	Sololá	2	El tablón	7	Julio	2023-07-19T00:00:00	2024-11-06T18:00:00	6	Velocidad del viento	12.9
166798	7	Sololá	701	Sololá	2	El tablón	7	Julio	2023-07-19T00:00:00	2024-11-06T18:00:00	7	Dirección del viento	12.87
166799	7	Sololá	701	Sololá	2	El tablón	7	Julio	2023-07-19T00:00:00	2024-11-06T18:00:00	1	Precipitación	0
166800	7	Sololá	701	Sololá	2	El tablón	7	Julio	2023-07-19T00:00:00	2024-11-06T18:00:00	8	Radiación solar	153
166801	7	Sololá	701	Sololá	2	El tablón	7	Julio	2023-07-19T00:00:00	2024-11-06T19:00:00	2	Temperatura media	15.2
166802	7	Sololá	701	Sololá	2	El tablón	7	Julio	2023-07-19T00:00:00	2024-11-06T19:00:00	4	Temperatura máxima	15.8
166803	7	Sololá	701	Sololá	2	El tablón	7	Julio	2023-07-19T00:00:00	2024-11-06T19:00:00	3	Temperatura mínima	15.2
166804	7	Sololá	701	Sololá	2	El tablón	7	Julio	2023-07-19T00:00:00	2024-11-06T19:00:00	5	Humedad	85
166805	7	Sololá	701	Sololá	2	El tablón	7	Julio	2023-07-19T00:00:00	2024-11-06T19:00:00	6	Velocidad del viento	11.3
166806	7	Sololá	701	Sololá	2	El tablón	7	Julio	2023-07-19T00:00:00	2024-11-06T19:00:00	7	Dirección del viento	11.27
166807	7	Sololá	701	Sololá	2	El tablón	7	Julio	2023-07-19T00:00:00	2024-11-06T19:00:00	1	Precipitación	0
166808	7	Sololá	701	Sololá	2	El tablón	7	Julio	2023-07-19T00:00:00	2024-11-06T19:00:00	8	Radiación solar	0
166809	7	Sololá	701	Sololá	2	El tablón	7	Julio	2023-07-19T00:00:00	2024-11-06T20:00:00	2	Temperatura media	15.1
166810	7	Sololá	701	Sololá	2	El tablón	7	Julio	2023-07-19T00:00:00	2024-11-06T20:00:00	4	Temperatura máxima	15.3
166811	7	Sololá	701	Sololá	2	El tablón	7	Julio	2023-07-19T00:00:00	2024-11-06T20:00:00	3	Temperatura mínima	15.1
166812	7	Sololá	701	Sololá	2	El tablón	7	Julio	2023-07-19T00:00:00	2024-11-06T20:00:00	5	Humedad	85
166813	7	Sololá	701	Sololá	2	El tablón	7	Julio	2023-07-19T00:00:00	2024-11-06T20:00:00	6	Velocidad del viento	11.3
166814	7	Sololá	701	Sololá	2	El tablón	7	Julio	2023-07-19T00:00:00	2024-11-06T20:00:00	7	Dirección del viento	11.27
166815	7	Sololá	701	Sololá	2	El tablón	7	Julio	2023-07-19T00:00:00	2024-11-06T20:00:00	1	Precipitación	0
166816	7	Sololá	701	Sololá	2	El tablón	7	Julio	2023-07-19T00:00:00	2024-11-06T20:00:00	8	Radiación solar	0
166817	7	Sololá	701	Sololá	2	El tablón	7	Julio	2023-07-19T00:00:00	2024-11-06T21:00:00	2	Temperatura media	14.7
166818	7	Sololá	701	Sololá	2	El tablón	7	Julio	2023-07-19T00:00:00	2024-11-06T21:00:00	4	Temperatura máxima	15.1
166819	7	Sololá	701	Sololá	2	El tablón	7	Julio	2023-07-19T00:00:00	2024-11-06T21:00:00	3	Temperatura mínima	14.7
166820	7	Sololá	701	Sololá	2	El tablón	7	Julio	2023-07-19T00:00:00	2024-11-06T21:00:00	5	Humedad	87
166821	7	Sololá	701	Sololá	2	El tablón	7	Julio	2023-07-19T00:00:00	2024-11-06T21:00:00	6	Velocidad del viento	9.7
166822	7	Sololá	701	Sololá	2	El tablón	7	Julio	2023-07-19T00:00:00	2024-11-06T21:00:00	7	Dirección del viento	9.66
166823	7	Sololá	701	Sololá	2	El tablón	7	Julio	2023-07-19T00:00:00	2024-11-06T21:00:00	1	Precipitación	0
166824	7	Sololá	701	Sololá	2	El tablón	7	Julio	2023-07-19T00:00:00	2024-11-06T21:00:00	8	Radiación solar	0
166825	7	Sololá	701	Sololá	2	El tablón	7	Julio	2023-07-19T00:00:00	2024-11-06T22:00:00	2	Temperatura media	14
166826	7	Sololá	701	Sololá	2	El tablón	7	Julio	2023-07-19T00:00:00	2024-11-06T22:00:00	4	Temperatura máxima	14.7
166827	7	Sololá	701	Sololá	2	El tablón	7	Julio	2023-07-19T00:00:00	2024-11-06T22:00:00	3	Temperatura mínima	13.9
166828	7	Sololá	701	Sololá	2	El tablón	7	Julio	2023-07-19T00:00:00	2024-11-06T22:00:00	5	Humedad	88
166829	7	Sololá	701	Sololá	2	El tablón	7	Julio	2023-07-19T00:00:00	2024-11-06T22:00:00	6	Velocidad del viento	11.3
166830	7	Sololá	701	Sololá	2	El tablón	7	Julio	2023-07-19T00:00:00	2024-11-06T22:00:00	7	Dirección del viento	11.27
166831	7	Sololá	701	Sololá	2	El tablón	7	Julio	2023-07-19T00:00:00	2024-11-06T22:00:00	1	Precipitación	0
166832	7	Sololá	701	Sololá	2	El tablón	7	Julio	2023-07-19T00:00:00	2024-11-06T22:00:00	8	Radiación solar	0
166833	7	Sololá	701	Sololá	2	El tablón	7	Julio	2023-07-19T00:00:00	2024-11-06T23:00:00	2	Temperatura media	14.1
166834	7	Sololá	701	Sololá	2	El tablón	7	Julio	2023-07-19T00:00:00	2024-11-06T23:00:00	4	Temperatura máxima	14.1
166835	7	Sololá	701	Sololá	2	El tablón	7	Julio	2023-07-19T00:00:00	2024-11-06T23:00:00	3	Temperatura mínima	13.9
166836	7	Sololá	701	Sololá	2	El tablón	7	Julio	2023-07-19T00:00:00	2024-11-06T23:00:00	5	Humedad	87
166837	7	Sololá	701	Sololá	2	El tablón	7	Julio	2023-07-19T00:00:00	2024-11-06T23:00:00	6	Velocidad del viento	8
166838	7	Sololá	701	Sololá	2	El tablón	7	Julio	2023-07-19T00:00:00	2024-11-06T23:00:00	7	Dirección del viento	8.05
166839	7	Sololá	701	Sololá	2	El tablón	7	Julio	2023-07-19T00:00:00	2024-11-06T23:00:00	1	Precipitación	0
166840	7	Sololá	701	Sololá	2	El tablón	7	Julio	2023-07-19T00:00:00	2024-11-06T23:00:00	8	Radiación solar	0
166841	7	Sololá	701	Sololá	2	El tablón	7	Julio	2023-07-20T00:00:00	2024-11-06T00:00:00	2	Temperatura media	13.8
166842	7	Sololá	701	Sololá	2	El tablón	7	Julio	2023-07-20T00:00:00	2024-11-06T00:00:00	4	Temperatura máxima	14.1
166843	7	Sololá	701	Sololá	2	El tablón	7	Julio	2023-07-20T00:00:00	2024-11-06T00:00:00	3	Temperatura mínima	13.8
166844	7	Sololá	701	Sololá	2	El tablón	7	Julio	2023-07-20T00:00:00	2024-11-06T00:00:00	5	Humedad	87
166845	7	Sololá	701	Sololá	2	El tablón	7	Julio	2023-07-20T00:00:00	2024-11-06T00:00:00	6	Velocidad del viento	11.3
166846	7	Sololá	701	Sololá	2	El tablón	7	Julio	2023-07-20T00:00:00	2024-11-06T00:00:00	7	Dirección del viento	11.27
166847	7	Sololá	701	Sololá	2	El tablón	7	Julio	2023-07-20T00:00:00	2024-11-06T00:00:00	1	Precipitación	0
166848	7	Sololá	701	Sololá	2	El tablón	7	Julio	2023-07-20T00:00:00	2024-11-06T00:00:00	8	Radiación solar	0
166849	7	Sololá	701	Sololá	2	El tablón	7	Julio	2023-07-20T00:00:00	2024-11-06T01:00:00	2	Temperatura media	13.6
166850	7	Sololá	701	Sololá	2	El tablón	7	Julio	2023-07-20T00:00:00	2024-11-06T01:00:00	4	Temperatura máxima	13.8
166851	7	Sololá	701	Sololá	2	El tablón	7	Julio	2023-07-20T00:00:00	2024-11-06T01:00:00	3	Temperatura mínima	13.6
166852	7	Sololá	701	Sololá	2	El tablón	7	Julio	2023-07-20T00:00:00	2024-11-06T01:00:00	5	Humedad	87
166853	7	Sololá	701	Sololá	2	El tablón	7	Julio	2023-07-20T00:00:00	2024-11-06T01:00:00	6	Velocidad del viento	11.3
166854	7	Sololá	701	Sololá	2	El tablón	7	Julio	2023-07-20T00:00:00	2024-11-06T01:00:00	7	Dirección del viento	11.27
166855	7	Sololá	701	Sololá	2	El tablón	7	Julio	2023-07-20T00:00:00	2024-11-06T01:00:00	1	Precipitación	0
166856	7	Sololá	701	Sololá	2	El tablón	7	Julio	2023-07-20T00:00:00	2024-11-06T01:00:00	8	Radiación solar	0
166857	7	Sololá	701	Sololá	2	El tablón	7	Julio	2023-07-20T00:00:00	2024-11-06T02:00:00	2	Temperatura media	13.8
166858	7	Sololá	701	Sololá	2	El tablón	7	Julio	2023-07-20T00:00:00	2024-11-06T02:00:00	4	Temperatura máxima	13.8
166859	7	Sololá	701	Sololá	2	El tablón	7	Julio	2023-07-20T00:00:00	2024-11-06T02:00:00	3	Temperatura mínima	13.6
166860	7	Sololá	701	Sololá	2	El tablón	7	Julio	2023-07-20T00:00:00	2024-11-06T02:00:00	5	Humedad	86
166861	7	Sololá	701	Sololá	2	El tablón	7	Julio	2023-07-20T00:00:00	2024-11-06T02:00:00	6	Velocidad del viento	9.7
166862	7	Sololá	701	Sololá	2	El tablón	7	Julio	2023-07-20T00:00:00	2024-11-06T02:00:00	7	Dirección del viento	9.66
166863	7	Sololá	701	Sololá	2	El tablón	7	Julio	2023-07-20T00:00:00	2024-11-06T02:00:00	1	Precipitación	0
166864	7	Sololá	701	Sololá	2	El tablón	7	Julio	2023-07-20T00:00:00	2024-11-06T02:00:00	8	Radiación solar	0
166865	7	Sololá	701	Sololá	2	El tablón	7	Julio	2023-07-20T00:00:00	2024-11-06T03:00:00	2	Temperatura media	13.8
166866	7	Sololá	701	Sololá	2	El tablón	7	Julio	2023-07-20T00:00:00	2024-11-06T03:00:00	4	Temperatura máxima	13.9
166867	7	Sololá	701	Sololá	2	El tablón	7	Julio	2023-07-20T00:00:00	2024-11-06T03:00:00	3	Temperatura mínima	13.7
166868	7	Sololá	701	Sololá	2	El tablón	7	Julio	2023-07-20T00:00:00	2024-11-06T03:00:00	5	Humedad	87
166869	7	Sololá	701	Sololá	2	El tablón	7	Julio	2023-07-20T00:00:00	2024-11-06T03:00:00	6	Velocidad del viento	12.9
166870	7	Sololá	701	Sololá	2	El tablón	7	Julio	2023-07-20T00:00:00	2024-11-06T03:00:00	7	Dirección del viento	12.87
166871	7	Sololá	701	Sololá	2	El tablón	7	Julio	2023-07-20T00:00:00	2024-11-06T03:00:00	1	Precipitación	0
166872	7	Sololá	701	Sololá	2	El tablón	7	Julio	2023-07-20T00:00:00	2024-11-06T03:00:00	8	Radiación solar	0
166873	7	Sololá	701	Sololá	2	El tablón	7	Julio	2023-07-20T00:00:00	2024-11-06T04:00:00	2	Temperatura media	13.3
166874	7	Sololá	701	Sololá	2	El tablón	7	Julio	2023-07-20T00:00:00	2024-11-06T04:00:00	4	Temperatura máxima	13.8
166875	7	Sololá	701	Sololá	2	El tablón	7	Julio	2023-07-20T00:00:00	2024-11-06T04:00:00	3	Temperatura mínima	13.3
166876	7	Sololá	701	Sololá	2	El tablón	7	Julio	2023-07-20T00:00:00	2024-11-06T04:00:00	5	Humedad	87
166877	7	Sololá	701	Sololá	2	El tablón	7	Julio	2023-07-20T00:00:00	2024-11-06T04:00:00	6	Velocidad del viento	12.9
166878	7	Sololá	701	Sololá	2	El tablón	7	Julio	2023-07-20T00:00:00	2024-11-06T04:00:00	7	Dirección del viento	12.87
166879	7	Sololá	701	Sololá	2	El tablón	7	Julio	2023-07-20T00:00:00	2024-11-06T04:00:00	1	Precipitación	0
166880	7	Sololá	701	Sololá	2	El tablón	7	Julio	2023-07-20T00:00:00	2024-11-06T04:00:00	8	Radiación solar	0
166881	7	Sololá	701	Sololá	2	El tablón	7	Julio	2023-07-20T00:00:00	2024-11-06T05:00:00	2	Temperatura media	13.3
166882	7	Sololá	701	Sololá	2	El tablón	7	Julio	2023-07-20T00:00:00	2024-11-06T05:00:00	4	Temperatura máxima	13.4
166883	7	Sololá	701	Sololá	2	El tablón	7	Julio	2023-07-20T00:00:00	2024-11-06T05:00:00	3	Temperatura mínima	13.2
166884	7	Sololá	701	Sololá	2	El tablón	7	Julio	2023-07-20T00:00:00	2024-11-06T05:00:00	5	Humedad	87
166885	7	Sololá	701	Sololá	2	El tablón	7	Julio	2023-07-20T00:00:00	2024-11-06T05:00:00	6	Velocidad del viento	14.5
166886	7	Sololá	701	Sololá	2	El tablón	7	Julio	2023-07-20T00:00:00	2024-11-06T05:00:00	7	Dirección del viento	14.48
166887	7	Sololá	701	Sololá	2	El tablón	7	Julio	2023-07-20T00:00:00	2024-11-06T05:00:00	1	Precipitación	0
166888	7	Sololá	701	Sololá	2	El tablón	7	Julio	2023-07-20T00:00:00	2024-11-06T05:00:00	8	Radiación solar	0
166889	7	Sololá	701	Sololá	2	El tablón	7	Julio	2023-07-20T00:00:00	2024-11-06T06:00:00	2	Temperatura media	13.3
166890	7	Sololá	701	Sololá	2	El tablón	7	Julio	2023-07-20T00:00:00	2024-11-06T06:00:00	4	Temperatura máxima	13.3
166891	7	Sololá	701	Sololá	2	El tablón	7	Julio	2023-07-20T00:00:00	2024-11-06T06:00:00	3	Temperatura mínima	13.2
166892	7	Sololá	701	Sololá	2	El tablón	7	Julio	2023-07-20T00:00:00	2024-11-06T06:00:00	5	Humedad	87
166893	7	Sololá	701	Sololá	2	El tablón	7	Julio	2023-07-20T00:00:00	2024-11-06T06:00:00	6	Velocidad del viento	12.9
166894	7	Sololá	701	Sololá	2	El tablón	7	Julio	2023-07-20T00:00:00	2024-11-06T06:00:00	7	Dirección del viento	12.87
166895	7	Sololá	701	Sololá	2	El tablón	7	Julio	2023-07-20T00:00:00	2024-11-06T06:00:00	1	Precipitación	0
166896	7	Sololá	701	Sololá	2	El tablón	7	Julio	2023-07-20T00:00:00	2024-11-06T06:00:00	8	Radiación solar	2
166897	7	Sololá	701	Sololá	2	El tablón	7	Julio	2023-07-20T00:00:00	2024-11-06T07:00:00	2	Temperatura media	13.8
166898	7	Sololá	701	Sololá	2	El tablón	7	Julio	2023-07-20T00:00:00	2024-11-06T07:00:00	4	Temperatura máxima	13.8
166899	7	Sololá	701	Sololá	2	El tablón	7	Julio	2023-07-20T00:00:00	2024-11-06T07:00:00	3	Temperatura mínima	13.3
166900	7	Sololá	701	Sololá	2	El tablón	7	Julio	2023-07-20T00:00:00	2024-11-06T07:00:00	5	Humedad	87
166901	7	Sololá	701	Sololá	2	El tablón	7	Julio	2023-07-20T00:00:00	2024-11-06T07:00:00	6	Velocidad del viento	16.1
166902	7	Sololá	701	Sololá	2	El tablón	7	Julio	2023-07-20T00:00:00	2024-11-06T07:00:00	7	Dirección del viento	16.09
166903	7	Sololá	701	Sololá	2	El tablón	7	Julio	2023-07-20T00:00:00	2024-11-06T07:00:00	1	Precipitación	0
166904	7	Sololá	701	Sololá	2	El tablón	7	Julio	2023-07-20T00:00:00	2024-11-06T07:00:00	8	Radiación solar	77
166905	7	Sololá	701	Sololá	2	El tablón	7	Julio	2023-07-20T00:00:00	2024-11-06T08:00:00	2	Temperatura media	15.1
166906	7	Sololá	701	Sololá	2	El tablón	7	Julio	2023-07-20T00:00:00	2024-11-06T08:00:00	4	Temperatura máxima	15.1
166907	7	Sololá	701	Sololá	2	El tablón	7	Julio	2023-07-20T00:00:00	2024-11-06T08:00:00	3	Temperatura mínima	13.8
166908	7	Sololá	701	Sololá	2	El tablón	7	Julio	2023-07-20T00:00:00	2024-11-06T08:00:00	5	Humedad	83
166909	7	Sololá	701	Sololá	2	El tablón	7	Julio	2023-07-20T00:00:00	2024-11-06T08:00:00	6	Velocidad del viento	16.1
166910	7	Sololá	701	Sololá	2	El tablón	7	Julio	2023-07-20T00:00:00	2024-11-06T08:00:00	7	Dirección del viento	16.09
166911	7	Sololá	701	Sololá	2	El tablón	7	Julio	2023-07-20T00:00:00	2024-11-06T08:00:00	1	Precipitación	0
166912	7	Sololá	701	Sololá	2	El tablón	7	Julio	2023-07-20T00:00:00	2024-11-06T08:00:00	8	Radiación solar	326
166913	7	Sololá	701	Sololá	2	El tablón	7	Julio	2023-07-20T00:00:00	2024-11-06T09:00:00	2	Temperatura media	15.8
166914	7	Sololá	701	Sololá	2	El tablón	7	Julio	2023-07-20T00:00:00	2024-11-06T09:00:00	4	Temperatura máxima	15.8
166915	7	Sololá	701	Sololá	2	El tablón	7	Julio	2023-07-20T00:00:00	2024-11-06T09:00:00	3	Temperatura mínima	15.1
166916	7	Sololá	701	Sololá	2	El tablón	7	Julio	2023-07-20T00:00:00	2024-11-06T09:00:00	5	Humedad	81
166917	7	Sololá	701	Sololá	2	El tablón	7	Julio	2023-07-20T00:00:00	2024-11-06T09:00:00	6	Velocidad del viento	17.7
166918	7	Sololá	701	Sololá	2	El tablón	7	Julio	2023-07-20T00:00:00	2024-11-06T09:00:00	7	Dirección del viento	17.7
166919	7	Sololá	701	Sololá	2	El tablón	7	Julio	2023-07-20T00:00:00	2024-11-06T09:00:00	1	Precipitación	0
166920	7	Sololá	701	Sololá	2	El tablón	7	Julio	2023-07-20T00:00:00	2024-11-06T09:00:00	8	Radiación solar	531
166921	7	Sololá	701	Sololá	2	El tablón	7	Julio	2023-07-20T00:00:00	2024-11-06T10:00:00	2	Temperatura media	17.1
166922	7	Sololá	701	Sololá	2	El tablón	7	Julio	2023-07-20T00:00:00	2024-11-06T10:00:00	4	Temperatura máxima	17.2
166923	7	Sololá	701	Sololá	2	El tablón	7	Julio	2023-07-20T00:00:00	2024-11-06T10:00:00	3	Temperatura mínima	15.8
166924	7	Sololá	701	Sololá	2	El tablón	7	Julio	2023-07-20T00:00:00	2024-11-06T10:00:00	5	Humedad	78
166925	7	Sololá	701	Sololá	2	El tablón	7	Julio	2023-07-20T00:00:00	2024-11-06T10:00:00	6	Velocidad del viento	16.1
166926	7	Sololá	701	Sololá	2	El tablón	7	Julio	2023-07-20T00:00:00	2024-11-06T10:00:00	7	Dirección del viento	16.09
166927	7	Sololá	701	Sololá	2	El tablón	7	Julio	2023-07-20T00:00:00	2024-11-06T10:00:00	1	Precipitación	0
166928	7	Sololá	701	Sololá	2	El tablón	7	Julio	2023-07-20T00:00:00	2024-11-06T10:00:00	8	Radiación solar	708
166929	7	Sololá	701	Sololá	2	El tablón	7	Julio	2023-07-20T00:00:00	2024-11-06T11:00:00	2	Temperatura media	18.3
166930	7	Sololá	701	Sololá	2	El tablón	7	Julio	2023-07-20T00:00:00	2024-11-06T11:00:00	4	Temperatura máxima	18.4
166931	7	Sololá	701	Sololá	2	El tablón	7	Julio	2023-07-20T00:00:00	2024-11-06T11:00:00	3	Temperatura mínima	17.1
166932	7	Sololá	701	Sololá	2	El tablón	7	Julio	2023-07-20T00:00:00	2024-11-06T11:00:00	5	Humedad	75
166933	7	Sololá	701	Sololá	2	El tablón	7	Julio	2023-07-20T00:00:00	2024-11-06T11:00:00	6	Velocidad del viento	17.7
166934	7	Sololá	701	Sololá	2	El tablón	7	Julio	2023-07-20T00:00:00	2024-11-06T11:00:00	7	Dirección del viento	17.7
166935	7	Sololá	701	Sololá	2	El tablón	7	Julio	2023-07-20T00:00:00	2024-11-06T11:00:00	1	Precipitación	0
166936	7	Sololá	701	Sololá	2	El tablón	7	Julio	2023-07-20T00:00:00	2024-11-06T11:00:00	8	Radiación solar	855
166937	7	Sololá	701	Sololá	2	El tablón	7	Julio	2023-07-20T00:00:00	2024-11-06T12:00:00	2	Temperatura media	18.9
166938	7	Sololá	701	Sololá	2	El tablón	7	Julio	2023-07-20T00:00:00	2024-11-06T12:00:00	4	Temperatura máxima	19.1
166939	7	Sololá	701	Sololá	2	El tablón	7	Julio	2023-07-20T00:00:00	2024-11-06T12:00:00	3	Temperatura mínima	18.3
166940	7	Sololá	701	Sololá	2	El tablón	7	Julio	2023-07-20T00:00:00	2024-11-06T12:00:00	5	Humedad	73
166941	7	Sololá	701	Sololá	2	El tablón	7	Julio	2023-07-20T00:00:00	2024-11-06T12:00:00	6	Velocidad del viento	16.1
166942	7	Sololá	701	Sololá	2	El tablón	7	Julio	2023-07-20T00:00:00	2024-11-06T12:00:00	7	Dirección del viento	16.09
166943	7	Sololá	701	Sololá	2	El tablón	7	Julio	2023-07-20T00:00:00	2024-11-06T12:00:00	1	Precipitación	0
166944	7	Sololá	701	Sololá	2	El tablón	7	Julio	2023-07-20T00:00:00	2024-11-06T12:00:00	8	Radiación solar	919
166945	7	Sololá	701	Sololá	2	El tablón	7	Julio	2023-07-20T00:00:00	2024-11-06T13:00:00	2	Temperatura media	19.1
166946	7	Sololá	701	Sololá	2	El tablón	7	Julio	2023-07-20T00:00:00	2024-11-06T13:00:00	4	Temperatura máxima	19.3
166947	7	Sololá	701	Sololá	2	El tablón	7	Julio	2023-07-20T00:00:00	2024-11-06T13:00:00	3	Temperatura mínima	18.7
166948	7	Sololá	701	Sololá	2	El tablón	7	Julio	2023-07-20T00:00:00	2024-11-06T13:00:00	5	Humedad	72
166949	7	Sololá	701	Sololá	2	El tablón	7	Julio	2023-07-20T00:00:00	2024-11-06T13:00:00	6	Velocidad del viento	12.9
166950	7	Sololá	701	Sololá	2	El tablón	7	Julio	2023-07-20T00:00:00	2024-11-06T13:00:00	7	Dirección del viento	12.87
166951	7	Sololá	701	Sololá	2	El tablón	7	Julio	2023-07-20T00:00:00	2024-11-06T13:00:00	1	Precipitación	0
166952	7	Sololá	701	Sololá	2	El tablón	7	Julio	2023-07-20T00:00:00	2024-11-06T13:00:00	8	Radiación solar	883
166953	7	Sololá	701	Sololá	2	El tablón	7	Julio	2023-07-20T00:00:00	2024-11-06T14:00:00	2	Temperatura media	19.8
166954	7	Sololá	701	Sololá	2	El tablón	7	Julio	2023-07-20T00:00:00	2024-11-06T14:00:00	4	Temperatura máxima	19.9
166955	7	Sololá	701	Sololá	2	El tablón	7	Julio	2023-07-20T00:00:00	2024-11-06T14:00:00	3	Temperatura mínima	19.1
166956	7	Sololá	701	Sololá	2	El tablón	7	Julio	2023-07-20T00:00:00	2024-11-06T14:00:00	5	Humedad	70
166957	7	Sololá	701	Sololá	2	El tablón	7	Julio	2023-07-20T00:00:00	2024-11-06T14:00:00	6	Velocidad del viento	11.3
166958	7	Sololá	701	Sololá	2	El tablón	7	Julio	2023-07-20T00:00:00	2024-11-06T14:00:00	7	Dirección del viento	11.27
166959	7	Sololá	701	Sololá	2	El tablón	7	Julio	2023-07-20T00:00:00	2024-11-06T14:00:00	1	Precipitación	0
166960	7	Sololá	701	Sololá	2	El tablón	7	Julio	2023-07-20T00:00:00	2024-11-06T14:00:00	8	Radiación solar	896
166961	7	Sololá	701	Sololá	2	El tablón	7	Julio	2023-07-20T00:00:00	2024-11-06T15:00:00	2	Temperatura media	19.3
166962	7	Sololá	701	Sololá	2	El tablón	7	Julio	2023-07-20T00:00:00	2024-11-06T15:00:00	4	Temperatura máxima	20.1
166963	7	Sololá	701	Sololá	2	El tablón	7	Julio	2023-07-20T00:00:00	2024-11-06T15:00:00	3	Temperatura mínima	19.2
166964	7	Sololá	701	Sololá	2	El tablón	7	Julio	2023-07-20T00:00:00	2024-11-06T15:00:00	5	Humedad	70
166965	7	Sololá	701	Sololá	2	El tablón	7	Julio	2023-07-20T00:00:00	2024-11-06T15:00:00	6	Velocidad del viento	12.9
166966	7	Sololá	701	Sololá	2	El tablón	7	Julio	2023-07-20T00:00:00	2024-11-06T15:00:00	7	Dirección del viento	12.87
166967	7	Sololá	701	Sololá	2	El tablón	7	Julio	2023-07-20T00:00:00	2024-11-06T15:00:00	1	Precipitación	0
166968	7	Sololá	701	Sololá	2	El tablón	7	Julio	2023-07-20T00:00:00	2024-11-06T15:00:00	8	Radiación solar	756
166969	7	Sololá	701	Sololá	2	El tablón	7	Julio	2023-07-20T00:00:00	2024-11-06T16:00:00	2	Temperatura media	19.4
166970	7	Sololá	701	Sololá	2	El tablón	7	Julio	2023-07-20T00:00:00	2024-11-06T16:00:00	4	Temperatura máxima	19.4
166971	7	Sololá	701	Sololá	2	El tablón	7	Julio	2023-07-20T00:00:00	2024-11-06T16:00:00	3	Temperatura mínima	18.8
166972	7	Sololá	701	Sololá	2	El tablón	7	Julio	2023-07-20T00:00:00	2024-11-06T16:00:00	5	Humedad	69
166973	7	Sololá	701	Sololá	2	El tablón	7	Julio	2023-07-20T00:00:00	2024-11-06T16:00:00	6	Velocidad del viento	12.9
166974	7	Sololá	701	Sololá	2	El tablón	7	Julio	2023-07-20T00:00:00	2024-11-06T16:00:00	7	Dirección del viento	12.87
166975	7	Sololá	701	Sololá	2	El tablón	7	Julio	2023-07-20T00:00:00	2024-11-06T16:00:00	1	Precipitación	0
166976	7	Sololá	701	Sololá	2	El tablón	7	Julio	2023-07-20T00:00:00	2024-11-06T16:00:00	8	Radiación solar	653
166977	7	Sololá	701	Sololá	2	El tablón	7	Julio	2023-07-20T00:00:00	2024-11-06T17:00:00	2	Temperatura media	18.7
166978	7	Sololá	701	Sololá	2	El tablón	7	Julio	2023-07-20T00:00:00	2024-11-06T17:00:00	4	Temperatura máxima	19.6
166979	7	Sololá	701	Sololá	2	El tablón	7	Julio	2023-07-20T00:00:00	2024-11-06T17:00:00	3	Temperatura mínima	18.6
166980	7	Sololá	701	Sololá	2	El tablón	7	Julio	2023-07-20T00:00:00	2024-11-06T17:00:00	5	Humedad	70
166981	7	Sololá	701	Sololá	2	El tablón	7	Julio	2023-07-20T00:00:00	2024-11-06T17:00:00	6	Velocidad del viento	9.7
166982	7	Sololá	701	Sololá	2	El tablón	7	Julio	2023-07-20T00:00:00	2024-11-06T17:00:00	7	Dirección del viento	9.66
166983	7	Sololá	701	Sololá	2	El tablón	7	Julio	2023-07-20T00:00:00	2024-11-06T17:00:00	1	Precipitación	0
166984	7	Sololá	701	Sololá	2	El tablón	7	Julio	2023-07-20T00:00:00	2024-11-06T17:00:00	8	Radiación solar	395
166985	7	Sololá	701	Sololá	2	El tablón	7	Julio	2023-07-20T00:00:00	2024-11-06T18:00:00	2	Temperatura media	16.5
166986	7	Sololá	701	Sololá	2	El tablón	7	Julio	2023-07-20T00:00:00	2024-11-06T18:00:00	4	Temperatura máxima	19.1
166987	7	Sololá	701	Sololá	2	El tablón	7	Julio	2023-07-20T00:00:00	2024-11-06T18:00:00	3	Temperatura mínima	16.5
166988	7	Sololá	701	Sololá	2	El tablón	7	Julio	2023-07-20T00:00:00	2024-11-06T18:00:00	5	Humedad	81
166989	7	Sololá	701	Sololá	2	El tablón	7	Julio	2023-07-20T00:00:00	2024-11-06T18:00:00	6	Velocidad del viento	9.7
166990	7	Sololá	701	Sololá	2	El tablón	7	Julio	2023-07-20T00:00:00	2024-11-06T18:00:00	7	Dirección del viento	9.66
166991	7	Sololá	701	Sololá	2	El tablón	7	Julio	2023-07-20T00:00:00	2024-11-06T18:00:00	1	Precipitación	0
166992	7	Sololá	701	Sololá	2	El tablón	7	Julio	2023-07-20T00:00:00	2024-11-06T18:00:00	8	Radiación solar	206
166993	7	Sololá	701	Sololá	2	El tablón	7	Julio	2023-07-20T00:00:00	2024-11-06T19:00:00	2	Temperatura media	14.8
166994	7	Sololá	701	Sololá	2	El tablón	7	Julio	2023-07-20T00:00:00	2024-11-06T19:00:00	4	Temperatura máxima	16.5
166995	7	Sololá	701	Sololá	2	El tablón	7	Julio	2023-07-20T00:00:00	2024-11-06T19:00:00	3	Temperatura mínima	14.7
166996	7	Sololá	701	Sololá	2	El tablón	7	Julio	2023-07-20T00:00:00	2024-11-06T19:00:00	5	Humedad	85
166997	7	Sololá	701	Sololá	2	El tablón	7	Julio	2023-07-20T00:00:00	2024-11-06T19:00:00	6	Velocidad del viento	8
166998	7	Sololá	701	Sololá	2	El tablón	7	Julio	2023-07-20T00:00:00	2024-11-06T19:00:00	7	Dirección del viento	8.05
166999	7	Sololá	701	Sololá	2	El tablón	7	Julio	2023-07-20T00:00:00	2024-11-06T19:00:00	1	Precipitación	0
167000	7	Sololá	701	Sololá	2	El tablón	7	Julio	2023-07-20T00:00:00	2024-11-06T19:00:00	8	Radiación solar	0
167001	7	Sololá	701	Sololá	2	El tablón	7	Julio	2023-07-20T00:00:00	2024-11-06T20:00:00	2	Temperatura media	14.6
167002	7	Sololá	701	Sololá	2	El tablón	7	Julio	2023-07-20T00:00:00	2024-11-06T20:00:00	4	Temperatura máxima	14.8
167003	7	Sololá	701	Sololá	2	El tablón	7	Julio	2023-07-20T00:00:00	2024-11-06T20:00:00	3	Temperatura mínima	14.6
167004	7	Sololá	701	Sololá	2	El tablón	7	Julio	2023-07-20T00:00:00	2024-11-06T20:00:00	5	Humedad	85
167005	7	Sololá	701	Sololá	2	El tablón	7	Julio	2023-07-20T00:00:00	2024-11-06T20:00:00	6	Velocidad del viento	11.3
167006	7	Sololá	701	Sololá	2	El tablón	7	Julio	2023-07-20T00:00:00	2024-11-06T20:00:00	7	Dirección del viento	11.27
167007	7	Sololá	701	Sololá	2	El tablón	7	Julio	2023-07-20T00:00:00	2024-11-06T20:00:00	1	Precipitación	0
167008	7	Sololá	701	Sololá	2	El tablón	7	Julio	2023-07-20T00:00:00	2024-11-06T20:00:00	8	Radiación solar	0
167009	7	Sololá	701	Sololá	2	El tablón	7	Julio	2023-07-20T00:00:00	2024-11-06T21:00:00	2	Temperatura media	14.3
167010	7	Sololá	701	Sololá	2	El tablón	7	Julio	2023-07-20T00:00:00	2024-11-06T21:00:00	4	Temperatura máxima	14.6
167011	7	Sololá	701	Sololá	2	El tablón	7	Julio	2023-07-20T00:00:00	2024-11-06T21:00:00	3	Temperatura mínima	14.3
167012	7	Sololá	701	Sololá	2	El tablón	7	Julio	2023-07-20T00:00:00	2024-11-06T21:00:00	5	Humedad	86
167013	7	Sololá	701	Sololá	2	El tablón	7	Julio	2023-07-20T00:00:00	2024-11-06T21:00:00	6	Velocidad del viento	14.5
167014	7	Sololá	701	Sololá	2	El tablón	7	Julio	2023-07-20T00:00:00	2024-11-06T21:00:00	7	Dirección del viento	14.48
167015	7	Sololá	701	Sololá	2	El tablón	7	Julio	2023-07-20T00:00:00	2024-11-06T21:00:00	1	Precipitación	0
167016	7	Sololá	701	Sololá	2	El tablón	7	Julio	2023-07-20T00:00:00	2024-11-06T21:00:00	8	Radiación solar	0
167017	7	Sololá	701	Sololá	2	El tablón	7	Julio	2023-07-20T00:00:00	2024-11-06T22:00:00	2	Temperatura media	14.6
167018	7	Sololá	701	Sololá	2	El tablón	7	Julio	2023-07-20T00:00:00	2024-11-06T22:00:00	4	Temperatura máxima	14.6
167019	7	Sololá	701	Sololá	2	El tablón	7	Julio	2023-07-20T00:00:00	2024-11-06T22:00:00	3	Temperatura mínima	14.3
167020	7	Sololá	701	Sololá	2	El tablón	7	Julio	2023-07-20T00:00:00	2024-11-06T22:00:00	5	Humedad	84
167021	7	Sololá	701	Sololá	2	El tablón	7	Julio	2023-07-20T00:00:00	2024-11-06T22:00:00	6	Velocidad del viento	12.9
167022	7	Sololá	701	Sololá	2	El tablón	7	Julio	2023-07-20T00:00:00	2024-11-06T22:00:00	7	Dirección del viento	12.87
167023	7	Sololá	701	Sololá	2	El tablón	7	Julio	2023-07-20T00:00:00	2024-11-06T22:00:00	1	Precipitación	0
167024	7	Sololá	701	Sololá	2	El tablón	7	Julio	2023-07-20T00:00:00	2024-11-06T22:00:00	8	Radiación solar	0
167025	7	Sololá	701	Sololá	2	El tablón	7	Julio	2023-07-20T00:00:00	2024-11-06T23:00:00	2	Temperatura media	14.2
167026	7	Sololá	701	Sololá	2	El tablón	7	Julio	2023-07-20T00:00:00	2024-11-06T23:00:00	4	Temperatura máxima	14.6
167027	7	Sololá	701	Sololá	2	El tablón	7	Julio	2023-07-20T00:00:00	2024-11-06T23:00:00	3	Temperatura mínima	14.2
167028	7	Sololá	701	Sololá	2	El tablón	7	Julio	2023-07-20T00:00:00	2024-11-06T23:00:00	5	Humedad	86
167029	7	Sololá	701	Sololá	2	El tablón	7	Julio	2023-07-20T00:00:00	2024-11-06T23:00:00	6	Velocidad del viento	14.5
167030	7	Sololá	701	Sololá	2	El tablón	7	Julio	2023-07-20T00:00:00	2024-11-06T23:00:00	7	Dirección del viento	14.48
167031	7	Sololá	701	Sololá	2	El tablón	7	Julio	2023-07-20T00:00:00	2024-11-06T23:00:00	1	Precipitación	0
167032	7	Sololá	701	Sololá	2	El tablón	7	Julio	2023-07-20T00:00:00	2024-11-06T23:00:00	8	Radiación solar	0
167033	7	Sololá	701	Sololá	2	El tablón	7	Julio	2023-07-21T00:00:00	2024-11-06T00:00:00	2	Temperatura media	13.8
167034	7	Sololá	701	Sololá	2	El tablón	7	Julio	2023-07-21T00:00:00	2024-11-06T00:00:00	4	Temperatura máxima	14.2
167035	7	Sololá	701	Sololá	2	El tablón	7	Julio	2023-07-21T00:00:00	2024-11-06T00:00:00	3	Temperatura mínima	13.8
167036	7	Sololá	701	Sololá	2	El tablón	7	Julio	2023-07-21T00:00:00	2024-11-06T00:00:00	5	Humedad	85
167037	7	Sololá	701	Sololá	2	El tablón	7	Julio	2023-07-21T00:00:00	2024-11-06T00:00:00	6	Velocidad del viento	16.1
167038	7	Sololá	701	Sololá	2	El tablón	7	Julio	2023-07-21T00:00:00	2024-11-06T00:00:00	7	Dirección del viento	16.09
167039	7	Sololá	701	Sololá	2	El tablón	7	Julio	2023-07-21T00:00:00	2024-11-06T00:00:00	1	Precipitación	0
167040	7	Sololá	701	Sololá	2	El tablón	7	Julio	2023-07-21T00:00:00	2024-11-06T00:00:00	8	Radiación solar	0
167041	7	Sololá	701	Sololá	2	El tablón	7	Julio	2023-07-21T00:00:00	2024-11-06T01:00:00	2	Temperatura media	13.6
167042	7	Sololá	701	Sololá	2	El tablón	7	Julio	2023-07-21T00:00:00	2024-11-06T01:00:00	4	Temperatura máxima	13.8
167043	7	Sololá	701	Sololá	2	El tablón	7	Julio	2023-07-21T00:00:00	2024-11-06T01:00:00	3	Temperatura mínima	13.6
167044	7	Sololá	701	Sololá	2	El tablón	7	Julio	2023-07-21T00:00:00	2024-11-06T01:00:00	5	Humedad	86
167045	7	Sololá	701	Sololá	2	El tablón	7	Julio	2023-07-21T00:00:00	2024-11-06T01:00:00	6	Velocidad del viento	12.9
167046	7	Sololá	701	Sololá	2	El tablón	7	Julio	2023-07-21T00:00:00	2024-11-06T01:00:00	7	Dirección del viento	12.87
167047	7	Sololá	701	Sololá	2	El tablón	7	Julio	2023-07-21T00:00:00	2024-11-06T01:00:00	1	Precipitación	0
167048	7	Sololá	701	Sololá	2	El tablón	7	Julio	2023-07-21T00:00:00	2024-11-06T01:00:00	8	Radiación solar	0
167049	7	Sololá	701	Sololá	2	El tablón	7	Julio	2023-07-21T00:00:00	2024-11-06T02:00:00	2	Temperatura media	13.8
167050	7	Sololá	701	Sololá	2	El tablón	7	Julio	2023-07-21T00:00:00	2024-11-06T02:00:00	4	Temperatura máxima	13.8
167051	7	Sololá	701	Sololá	2	El tablón	7	Julio	2023-07-21T00:00:00	2024-11-06T02:00:00	3	Temperatura mínima	13.5
167052	7	Sololá	701	Sololá	2	El tablón	7	Julio	2023-07-21T00:00:00	2024-11-06T02:00:00	5	Humedad	85
167053	7	Sololá	701	Sololá	2	El tablón	7	Julio	2023-07-21T00:00:00	2024-11-06T02:00:00	6	Velocidad del viento	9.7
167054	7	Sololá	701	Sololá	2	El tablón	7	Julio	2023-07-21T00:00:00	2024-11-06T02:00:00	7	Dirección del viento	9.66
167055	7	Sololá	701	Sololá	2	El tablón	7	Julio	2023-07-21T00:00:00	2024-11-06T02:00:00	1	Precipitación	0
167056	7	Sololá	701	Sololá	2	El tablón	7	Julio	2023-07-21T00:00:00	2024-11-06T02:00:00	8	Radiación solar	0
167057	7	Sololá	701	Sololá	2	El tablón	7	Julio	2023-07-21T00:00:00	2024-11-06T03:00:00	2	Temperatura media	13.5
167058	7	Sololá	701	Sololá	2	El tablón	7	Julio	2023-07-21T00:00:00	2024-11-06T03:00:00	4	Temperatura máxima	13.9
167059	7	Sololá	701	Sololá	2	El tablón	7	Julio	2023-07-21T00:00:00	2024-11-06T03:00:00	3	Temperatura mínima	13.5
167060	7	Sololá	701	Sololá	2	El tablón	7	Julio	2023-07-21T00:00:00	2024-11-06T03:00:00	5	Humedad	86
167061	7	Sololá	701	Sololá	2	El tablón	7	Julio	2023-07-21T00:00:00	2024-11-06T03:00:00	6	Velocidad del viento	12.9
167062	7	Sololá	701	Sololá	2	El tablón	7	Julio	2023-07-21T00:00:00	2024-11-06T03:00:00	7	Dirección del viento	12.87
167063	7	Sololá	701	Sololá	2	El tablón	7	Julio	2023-07-21T00:00:00	2024-11-06T03:00:00	1	Precipitación	0
167064	7	Sololá	701	Sololá	2	El tablón	7	Julio	2023-07-21T00:00:00	2024-11-06T03:00:00	8	Radiación solar	0
167065	7	Sololá	701	Sololá	2	El tablón	7	Julio	2023-07-21T00:00:00	2024-11-06T04:00:00	2	Temperatura media	13.2
167066	7	Sololá	701	Sololá	2	El tablón	7	Julio	2023-07-21T00:00:00	2024-11-06T04:00:00	4	Temperatura máxima	13.6
167067	7	Sololá	701	Sololá	2	El tablón	7	Julio	2023-07-21T00:00:00	2024-11-06T04:00:00	3	Temperatura mínima	13.2
167068	7	Sololá	701	Sololá	2	El tablón	7	Julio	2023-07-21T00:00:00	2024-11-06T04:00:00	5	Humedad	87
167069	7	Sololá	701	Sololá	2	El tablón	7	Julio	2023-07-21T00:00:00	2024-11-06T04:00:00	6	Velocidad del viento	12.9
167070	7	Sololá	701	Sololá	2	El tablón	7	Julio	2023-07-21T00:00:00	2024-11-06T04:00:00	7	Dirección del viento	12.87
167071	7	Sololá	701	Sololá	2	El tablón	7	Julio	2023-07-21T00:00:00	2024-11-06T04:00:00	1	Precipitación	0
167072	7	Sololá	701	Sololá	2	El tablón	7	Julio	2023-07-21T00:00:00	2024-11-06T04:00:00	8	Radiación solar	0
167073	7	Sololá	701	Sololá	2	El tablón	7	Julio	2023-07-21T00:00:00	2024-11-06T05:00:00	2	Temperatura media	13
167074	7	Sololá	701	Sololá	2	El tablón	7	Julio	2023-07-21T00:00:00	2024-11-06T05:00:00	4	Temperatura máxima	13.2
167075	7	Sololá	701	Sololá	2	El tablón	7	Julio	2023-07-21T00:00:00	2024-11-06T05:00:00	3	Temperatura mínima	13
167076	7	Sololá	701	Sololá	2	El tablón	7	Julio	2023-07-21T00:00:00	2024-11-06T05:00:00	5	Humedad	88
167077	7	Sololá	701	Sololá	2	El tablón	7	Julio	2023-07-21T00:00:00	2024-11-06T05:00:00	6	Velocidad del viento	11.3
167078	7	Sololá	701	Sololá	2	El tablón	7	Julio	2023-07-21T00:00:00	2024-11-06T05:00:00	7	Dirección del viento	11.27
167079	7	Sololá	701	Sololá	2	El tablón	7	Julio	2023-07-21T00:00:00	2024-11-06T05:00:00	1	Precipitación	0
167080	7	Sololá	701	Sololá	2	El tablón	7	Julio	2023-07-21T00:00:00	2024-11-06T05:00:00	8	Radiación solar	0
167081	7	Sololá	701	Sololá	2	El tablón	7	Julio	2023-07-21T00:00:00	2024-11-06T06:00:00	2	Temperatura media	13.2
167082	7	Sololá	701	Sololá	2	El tablón	7	Julio	2023-07-21T00:00:00	2024-11-06T06:00:00	4	Temperatura máxima	13.2
167083	7	Sololá	701	Sololá	2	El tablón	7	Julio	2023-07-21T00:00:00	2024-11-06T06:00:00	3	Temperatura mínima	13
167084	7	Sololá	701	Sololá	2	El tablón	7	Julio	2023-07-21T00:00:00	2024-11-06T06:00:00	5	Humedad	88
167085	7	Sololá	701	Sololá	2	El tablón	7	Julio	2023-07-21T00:00:00	2024-11-06T06:00:00	6	Velocidad del viento	12.9
167086	7	Sololá	701	Sololá	2	El tablón	7	Julio	2023-07-21T00:00:00	2024-11-06T06:00:00	7	Dirección del viento	12.87
167087	7	Sololá	701	Sololá	2	El tablón	7	Julio	2023-07-21T00:00:00	2024-11-06T06:00:00	1	Precipitación	0
167088	7	Sololá	701	Sololá	2	El tablón	7	Julio	2023-07-21T00:00:00	2024-11-06T06:00:00	8	Radiación solar	1
167089	7	Sololá	701	Sololá	2	El tablón	7	Julio	2023-07-21T00:00:00	2024-11-06T07:00:00	2	Temperatura media	14.2
167090	7	Sololá	701	Sololá	2	El tablón	7	Julio	2023-07-21T00:00:00	2024-11-06T07:00:00	4	Temperatura máxima	14.2
167091	7	Sololá	701	Sololá	2	El tablón	7	Julio	2023-07-21T00:00:00	2024-11-06T07:00:00	3	Temperatura mínima	13.1
167092	7	Sololá	701	Sololá	2	El tablón	7	Julio	2023-07-21T00:00:00	2024-11-06T07:00:00	5	Humedad	87
167093	7	Sololá	701	Sololá	2	El tablón	7	Julio	2023-07-21T00:00:00	2024-11-06T07:00:00	6	Velocidad del viento	14.5
167094	7	Sololá	701	Sololá	2	El tablón	7	Julio	2023-07-21T00:00:00	2024-11-06T07:00:00	7	Dirección del viento	14.48
167095	7	Sololá	701	Sololá	2	El tablón	7	Julio	2023-07-21T00:00:00	2024-11-06T07:00:00	1	Precipitación	0
167096	7	Sololá	701	Sololá	2	El tablón	7	Julio	2023-07-21T00:00:00	2024-11-06T07:00:00	8	Radiación solar	88
167097	7	Sololá	701	Sololá	2	El tablón	7	Julio	2023-07-21T00:00:00	2024-11-06T08:00:00	2	Temperatura media	15.5
167098	7	Sololá	701	Sololá	2	El tablón	7	Julio	2023-07-21T00:00:00	2024-11-06T08:00:00	4	Temperatura máxima	15.6
167099	7	Sololá	701	Sololá	2	El tablón	7	Julio	2023-07-21T00:00:00	2024-11-06T08:00:00	3	Temperatura mínima	14.2
167100	7	Sololá	701	Sololá	2	El tablón	7	Julio	2023-07-21T00:00:00	2024-11-06T08:00:00	5	Humedad	84
167101	7	Sololá	701	Sololá	2	El tablón	7	Julio	2023-07-21T00:00:00	2024-11-06T08:00:00	6	Velocidad del viento	16.1
167102	7	Sololá	701	Sololá	2	El tablón	7	Julio	2023-07-21T00:00:00	2024-11-06T08:00:00	7	Dirección del viento	16.09
167103	7	Sololá	701	Sololá	2	El tablón	7	Julio	2023-07-21T00:00:00	2024-11-06T08:00:00	1	Precipitación	0
167104	7	Sololá	701	Sololá	2	El tablón	7	Julio	2023-07-21T00:00:00	2024-11-06T08:00:00	8	Radiación solar	316
167105	7	Sololá	701	Sololá	2	El tablón	7	Julio	2023-07-21T00:00:00	2024-11-06T09:00:00	2	Temperatura media	16.1
167106	7	Sololá	701	Sololá	2	El tablón	7	Julio	2023-07-21T00:00:00	2024-11-06T09:00:00	4	Temperatura máxima	16.5
167107	7	Sololá	701	Sololá	2	El tablón	7	Julio	2023-07-21T00:00:00	2024-11-06T09:00:00	3	Temperatura mínima	15.5
167108	7	Sololá	701	Sololá	2	El tablón	7	Julio	2023-07-21T00:00:00	2024-11-06T09:00:00	5	Humedad	80
167109	7	Sololá	701	Sololá	2	El tablón	7	Julio	2023-07-21T00:00:00	2024-11-06T09:00:00	6	Velocidad del viento	17.7
167110	7	Sololá	701	Sololá	2	El tablón	7	Julio	2023-07-21T00:00:00	2024-11-06T09:00:00	7	Dirección del viento	17.7
167111	7	Sololá	701	Sololá	2	El tablón	7	Julio	2023-07-21T00:00:00	2024-11-06T09:00:00	1	Precipitación	0
167112	7	Sololá	701	Sololá	2	El tablón	7	Julio	2023-07-21T00:00:00	2024-11-06T09:00:00	8	Radiación solar	527
167113	7	Sololá	701	Sololá	2	El tablón	7	Julio	2023-07-21T00:00:00	2024-11-06T10:00:00	2	Temperatura media	18.6
167114	7	Sololá	701	Sololá	2	El tablón	7	Julio	2023-07-21T00:00:00	2024-11-06T10:00:00	4	Temperatura máxima	18.7
167115	7	Sololá	701	Sololá	2	El tablón	7	Julio	2023-07-21T00:00:00	2024-11-06T10:00:00	3	Temperatura mínima	16.2
167116	7	Sololá	701	Sololá	2	El tablón	7	Julio	2023-07-21T00:00:00	2024-11-06T10:00:00	5	Humedad	73
167117	7	Sololá	701	Sololá	2	El tablón	7	Julio	2023-07-21T00:00:00	2024-11-06T10:00:00	6	Velocidad del viento	14.5
167118	7	Sololá	701	Sololá	2	El tablón	7	Julio	2023-07-21T00:00:00	2024-11-06T10:00:00	7	Dirección del viento	14.48
167119	7	Sololá	701	Sololá	2	El tablón	7	Julio	2023-07-21T00:00:00	2024-11-06T10:00:00	1	Precipitación	0
167120	7	Sololá	701	Sololá	2	El tablón	7	Julio	2023-07-21T00:00:00	2024-11-06T10:00:00	8	Radiación solar	701
167121	7	Sololá	701	Sololá	2	El tablón	7	Julio	2023-07-21T00:00:00	2024-11-06T11:00:00	2	Temperatura media	19.1
167122	7	Sololá	701	Sololá	2	El tablón	7	Julio	2023-07-21T00:00:00	2024-11-06T11:00:00	4	Temperatura máxima	19.2
167123	7	Sololá	701	Sololá	2	El tablón	7	Julio	2023-07-21T00:00:00	2024-11-06T11:00:00	3	Temperatura mínima	18.6
167124	7	Sololá	701	Sololá	2	El tablón	7	Julio	2023-07-21T00:00:00	2024-11-06T11:00:00	5	Humedad	71
167125	7	Sololá	701	Sololá	2	El tablón	7	Julio	2023-07-21T00:00:00	2024-11-06T11:00:00	6	Velocidad del viento	11.3
167126	7	Sololá	701	Sololá	2	El tablón	7	Julio	2023-07-21T00:00:00	2024-11-06T11:00:00	7	Dirección del viento	11.27
167127	7	Sololá	701	Sololá	2	El tablón	7	Julio	2023-07-21T00:00:00	2024-11-06T11:00:00	1	Precipitación	0
167128	7	Sololá	701	Sololá	2	El tablón	7	Julio	2023-07-21T00:00:00	2024-11-06T11:00:00	8	Radiación solar	837
167129	7	Sololá	701	Sololá	2	El tablón	7	Julio	2023-07-21T00:00:00	2024-11-06T12:00:00	2	Temperatura media	20.4
167130	7	Sololá	701	Sololá	2	El tablón	7	Julio	2023-07-21T00:00:00	2024-11-06T12:00:00	4	Temperatura máxima	20.4
167131	7	Sololá	701	Sololá	2	El tablón	7	Julio	2023-07-21T00:00:00	2024-11-06T12:00:00	3	Temperatura mínima	19.1
167132	7	Sololá	701	Sololá	2	El tablón	7	Julio	2023-07-21T00:00:00	2024-11-06T12:00:00	5	Humedad	64
167133	7	Sololá	701	Sololá	2	El tablón	7	Julio	2023-07-21T00:00:00	2024-11-06T12:00:00	6	Velocidad del viento	11.3
167134	7	Sololá	701	Sololá	2	El tablón	7	Julio	2023-07-21T00:00:00	2024-11-06T12:00:00	7	Dirección del viento	11.27
167135	7	Sololá	701	Sololá	2	El tablón	7	Julio	2023-07-21T00:00:00	2024-11-06T12:00:00	1	Precipitación	0
167136	7	Sololá	701	Sololá	2	El tablón	7	Julio	2023-07-21T00:00:00	2024-11-06T12:00:00	8	Radiación solar	924
167137	7	Sololá	701	Sololá	2	El tablón	7	Julio	2023-07-21T00:00:00	2024-11-06T13:00:00	2	Temperatura media	21.3
167138	7	Sololá	701	Sololá	2	El tablón	7	Julio	2023-07-21T00:00:00	2024-11-06T13:00:00	4	Temperatura máxima	21.5
167139	7	Sololá	701	Sololá	2	El tablón	7	Julio	2023-07-21T00:00:00	2024-11-06T13:00:00	3	Temperatura mínima	20.4
167140	7	Sololá	701	Sololá	2	El tablón	7	Julio	2023-07-21T00:00:00	2024-11-06T13:00:00	5	Humedad	60
167141	7	Sololá	701	Sololá	2	El tablón	7	Julio	2023-07-21T00:00:00	2024-11-06T13:00:00	6	Velocidad del viento	9.7
167142	7	Sololá	701	Sololá	2	El tablón	7	Julio	2023-07-21T00:00:00	2024-11-06T13:00:00	7	Dirección del viento	9.66
167143	7	Sololá	701	Sololá	2	El tablón	7	Julio	2023-07-21T00:00:00	2024-11-06T13:00:00	1	Precipitación	0
167144	7	Sololá	701	Sololá	2	El tablón	7	Julio	2023-07-21T00:00:00	2024-11-06T13:00:00	8	Radiación solar	952
167145	7	Sololá	701	Sololá	2	El tablón	7	Julio	2023-07-21T00:00:00	2024-11-06T14:00:00	2	Temperatura media	21.4
167146	7	Sololá	701	Sololá	2	El tablón	7	Julio	2023-07-21T00:00:00	2024-11-06T14:00:00	4	Temperatura máxima	21.9
167147	7	Sololá	701	Sololá	2	El tablón	7	Julio	2023-07-21T00:00:00	2024-11-06T14:00:00	3	Temperatura mínima	21.1
167148	7	Sololá	701	Sololá	2	El tablón	7	Julio	2023-07-21T00:00:00	2024-11-06T14:00:00	5	Humedad	61
167149	7	Sololá	701	Sololá	2	El tablón	7	Julio	2023-07-21T00:00:00	2024-11-06T14:00:00	6	Velocidad del viento	9.7
167150	7	Sololá	701	Sololá	2	El tablón	7	Julio	2023-07-21T00:00:00	2024-11-06T14:00:00	7	Dirección del viento	9.66
167151	7	Sololá	701	Sololá	2	El tablón	7	Julio	2023-07-21T00:00:00	2024-11-06T14:00:00	1	Precipitación	0
167152	7	Sololá	701	Sololá	2	El tablón	7	Julio	2023-07-21T00:00:00	2024-11-06T14:00:00	8	Radiación solar	884
167153	7	Sololá	701	Sololá	2	El tablón	7	Julio	2023-07-21T00:00:00	2024-11-06T15:00:00	2	Temperatura media	20.2
167154	7	Sololá	701	Sololá	2	El tablón	7	Julio	2023-07-21T00:00:00	2024-11-06T15:00:00	4	Temperatura máxima	21.6
167155	7	Sololá	701	Sololá	2	El tablón	7	Julio	2023-07-21T00:00:00	2024-11-06T15:00:00	3	Temperatura mínima	20.1
167156	7	Sololá	701	Sololá	2	El tablón	7	Julio	2023-07-21T00:00:00	2024-11-06T15:00:00	5	Humedad	75
167157	7	Sololá	701	Sololá	2	El tablón	7	Julio	2023-07-21T00:00:00	2024-11-06T15:00:00	6	Velocidad del viento	6.4
167158	7	Sololá	701	Sololá	2	El tablón	7	Julio	2023-07-21T00:00:00	2024-11-06T15:00:00	7	Dirección del viento	6.44
167159	7	Sololá	701	Sololá	2	El tablón	7	Julio	2023-07-21T00:00:00	2024-11-06T15:00:00	1	Precipitación	0
167160	7	Sololá	701	Sololá	2	El tablón	7	Julio	2023-07-21T00:00:00	2024-11-06T15:00:00	8	Radiación solar	322
167161	7	Sololá	701	Sololá	2	El tablón	7	Julio	2023-07-21T00:00:00	2024-11-06T16:00:00	2	Temperatura media	19.3
167162	7	Sololá	701	Sololá	2	El tablón	7	Julio	2023-07-21T00:00:00	2024-11-06T16:00:00	4	Temperatura máxima	20.3
167163	7	Sololá	701	Sololá	2	El tablón	7	Julio	2023-07-21T00:00:00	2024-11-06T16:00:00	3	Temperatura mínima	19.3
167164	7	Sololá	701	Sololá	2	El tablón	7	Julio	2023-07-21T00:00:00	2024-11-06T16:00:00	5	Humedad	81
167165	7	Sololá	701	Sololá	2	El tablón	7	Julio	2023-07-21T00:00:00	2024-11-06T16:00:00	6	Velocidad del viento	4.8
167166	7	Sololá	701	Sololá	2	El tablón	7	Julio	2023-07-21T00:00:00	2024-11-06T16:00:00	7	Dirección del viento	4.83
167167	7	Sololá	701	Sololá	2	El tablón	7	Julio	2023-07-21T00:00:00	2024-11-06T16:00:00	1	Precipitación	0
167168	7	Sololá	701	Sololá	2	El tablón	7	Julio	2023-07-21T00:00:00	2024-11-06T16:00:00	8	Radiación solar	283
167169	7	Sololá	701	Sololá	2	El tablón	7	Julio	2023-07-21T00:00:00	2024-11-06T17:00:00	2	Temperatura media	19.7
167170	7	Sololá	701	Sololá	2	El tablón	7	Julio	2023-07-21T00:00:00	2024-11-06T17:00:00	4	Temperatura máxima	19.7
167171	7	Sololá	701	Sololá	2	El tablón	7	Julio	2023-07-21T00:00:00	2024-11-06T17:00:00	3	Temperatura mínima	18.6
167172	7	Sololá	701	Sololá	2	El tablón	7	Julio	2023-07-21T00:00:00	2024-11-06T17:00:00	5	Humedad	70
167173	7	Sololá	701	Sololá	2	El tablón	7	Julio	2023-07-21T00:00:00	2024-11-06T17:00:00	6	Velocidad del viento	4.8
167174	7	Sololá	701	Sololá	2	El tablón	7	Julio	2023-07-21T00:00:00	2024-11-06T17:00:00	7	Dirección del viento	4.83
167175	7	Sololá	701	Sololá	2	El tablón	7	Julio	2023-07-21T00:00:00	2024-11-06T17:00:00	1	Precipitación	0
167176	7	Sololá	701	Sololá	2	El tablón	7	Julio	2023-07-21T00:00:00	2024-11-06T17:00:00	8	Radiación solar	200
167177	7	Sololá	701	Sololá	2	El tablón	7	Julio	2023-07-21T00:00:00	2024-11-06T18:00:00	2	Temperatura media	18.4
167178	7	Sololá	701	Sololá	2	El tablón	7	Julio	2023-07-21T00:00:00	2024-11-06T18:00:00	4	Temperatura máxima	19.9
167179	7	Sololá	701	Sololá	2	El tablón	7	Julio	2023-07-21T00:00:00	2024-11-06T18:00:00	3	Temperatura mínima	18.4
167180	7	Sololá	701	Sololá	2	El tablón	7	Julio	2023-07-21T00:00:00	2024-11-06T18:00:00	5	Humedad	78
167181	7	Sololá	701	Sololá	2	El tablón	7	Julio	2023-07-21T00:00:00	2024-11-06T18:00:00	6	Velocidad del viento	6.4
167182	7	Sololá	701	Sololá	2	El tablón	7	Julio	2023-07-21T00:00:00	2024-11-06T18:00:00	7	Dirección del viento	6.44
167183	7	Sololá	701	Sololá	2	El tablón	7	Julio	2023-07-21T00:00:00	2024-11-06T18:00:00	1	Precipitación	0
167184	7	Sololá	701	Sololá	2	El tablón	7	Julio	2023-07-21T00:00:00	2024-11-06T18:00:00	8	Radiación solar	148
167185	7	Sololá	701	Sololá	2	El tablón	7	Julio	2023-07-21T00:00:00	2024-11-06T19:00:00	2	Temperatura media	16.4
167186	7	Sololá	701	Sololá	2	El tablón	7	Julio	2023-07-21T00:00:00	2024-11-06T19:00:00	4	Temperatura máxima	18.4
167187	7	Sololá	701	Sololá	2	El tablón	7	Julio	2023-07-21T00:00:00	2024-11-06T19:00:00	3	Temperatura mínima	16.4
167188	7	Sololá	701	Sololá	2	El tablón	7	Julio	2023-07-21T00:00:00	2024-11-06T19:00:00	5	Humedad	84
167189	7	Sololá	701	Sololá	2	El tablón	7	Julio	2023-07-21T00:00:00	2024-11-06T19:00:00	6	Velocidad del viento	6.4
167190	7	Sololá	701	Sololá	2	El tablón	7	Julio	2023-07-21T00:00:00	2024-11-06T19:00:00	7	Dirección del viento	6.44
167191	7	Sololá	701	Sololá	2	El tablón	7	Julio	2023-07-21T00:00:00	2024-11-06T19:00:00	1	Precipitación	0
167192	7	Sololá	701	Sololá	2	El tablón	7	Julio	2023-07-21T00:00:00	2024-11-06T19:00:00	8	Radiación solar	0
167193	7	Sololá	701	Sololá	2	El tablón	7	Julio	2023-07-21T00:00:00	2024-11-06T20:00:00	2	Temperatura media	15.9
167194	7	Sololá	701	Sololá	2	El tablón	7	Julio	2023-07-21T00:00:00	2024-11-06T20:00:00	4	Temperatura máxima	16.4
167195	7	Sololá	701	Sololá	2	El tablón	7	Julio	2023-07-21T00:00:00	2024-11-06T20:00:00	3	Temperatura mínima	15.9
167196	7	Sololá	701	Sololá	2	El tablón	7	Julio	2023-07-21T00:00:00	2024-11-06T20:00:00	5	Humedad	86
167197	7	Sololá	701	Sololá	2	El tablón	7	Julio	2023-07-21T00:00:00	2024-11-06T20:00:00	6	Velocidad del viento	3.2
167198	7	Sololá	701	Sololá	2	El tablón	7	Julio	2023-07-21T00:00:00	2024-11-06T20:00:00	7	Dirección del viento	3.22
167199	7	Sololá	701	Sololá	2	El tablón	7	Julio	2023-07-21T00:00:00	2024-11-06T20:00:00	1	Precipitación	0
167200	7	Sololá	701	Sololá	2	El tablón	7	Julio	2023-07-21T00:00:00	2024-11-06T20:00:00	8	Radiación solar	0
167201	7	Sololá	701	Sololá	2	El tablón	7	Julio	2023-07-21T00:00:00	2024-11-06T21:00:00	2	Temperatura media	15.3
167202	7	Sololá	701	Sololá	2	El tablón	7	Julio	2023-07-21T00:00:00	2024-11-06T21:00:00	4	Temperatura máxima	15.9
167203	7	Sololá	701	Sololá	2	El tablón	7	Julio	2023-07-21T00:00:00	2024-11-06T21:00:00	3	Temperatura mínima	15.3
167204	7	Sololá	701	Sololá	2	El tablón	7	Julio	2023-07-21T00:00:00	2024-11-06T21:00:00	5	Humedad	86
167205	7	Sololá	701	Sololá	2	El tablón	7	Julio	2023-07-21T00:00:00	2024-11-06T21:00:00	6	Velocidad del viento	4.8
167206	7	Sololá	701	Sololá	2	El tablón	7	Julio	2023-07-21T00:00:00	2024-11-06T21:00:00	7	Dirección del viento	4.83
167207	7	Sololá	701	Sololá	2	El tablón	7	Julio	2023-07-21T00:00:00	2024-11-06T21:00:00	1	Precipitación	0
167208	7	Sololá	701	Sololá	2	El tablón	7	Julio	2023-07-21T00:00:00	2024-11-06T21:00:00	8	Radiación solar	0
167209	7	Sololá	701	Sololá	2	El tablón	7	Julio	2023-07-21T00:00:00	2024-11-06T22:00:00	2	Temperatura media	14.8
167210	7	Sololá	701	Sololá	2	El tablón	7	Julio	2023-07-21T00:00:00	2024-11-06T22:00:00	4	Temperatura máxima	15.3
167211	7	Sololá	701	Sololá	2	El tablón	7	Julio	2023-07-21T00:00:00	2024-11-06T22:00:00	3	Temperatura mínima	14.8
167212	7	Sololá	701	Sololá	2	El tablón	7	Julio	2023-07-21T00:00:00	2024-11-06T22:00:00	5	Humedad	87
167213	7	Sololá	701	Sololá	2	El tablón	7	Julio	2023-07-21T00:00:00	2024-11-06T22:00:00	6	Velocidad del viento	4.8
167214	7	Sololá	701	Sololá	2	El tablón	7	Julio	2023-07-21T00:00:00	2024-11-06T22:00:00	7	Dirección del viento	4.83
167215	7	Sololá	701	Sololá	2	El tablón	7	Julio	2023-07-21T00:00:00	2024-11-06T22:00:00	1	Precipitación	0
167216	7	Sololá	701	Sololá	2	El tablón	7	Julio	2023-07-21T00:00:00	2024-11-06T22:00:00	8	Radiación solar	0
167217	7	Sololá	701	Sololá	2	El tablón	7	Julio	2023-07-21T00:00:00	2024-11-06T23:00:00	2	Temperatura media	14.4
167218	7	Sololá	701	Sololá	2	El tablón	7	Julio	2023-07-21T00:00:00	2024-11-06T23:00:00	4	Temperatura máxima	14.8
167219	7	Sololá	701	Sololá	2	El tablón	7	Julio	2023-07-21T00:00:00	2024-11-06T23:00:00	3	Temperatura mínima	14.4
167220	7	Sololá	701	Sololá	2	El tablón	7	Julio	2023-07-21T00:00:00	2024-11-06T23:00:00	5	Humedad	87
167221	7	Sololá	701	Sololá	2	El tablón	7	Julio	2023-07-21T00:00:00	2024-11-06T23:00:00	6	Velocidad del viento	3.2
167222	7	Sololá	701	Sololá	2	El tablón	7	Julio	2023-07-21T00:00:00	2024-11-06T23:00:00	7	Dirección del viento	3.22
167223	7	Sololá	701	Sololá	2	El tablón	7	Julio	2023-07-21T00:00:00	2024-11-06T23:00:00	1	Precipitación	0
167224	7	Sololá	701	Sololá	2	El tablón	7	Julio	2023-07-21T00:00:00	2024-11-06T23:00:00	8	Radiación solar	0
167225	7	Sololá	701	Sololá	2	El tablón	7	Julio	2023-07-22T00:00:00	2024-11-06T00:00:00	2	Temperatura media	14.1
167226	7	Sololá	701	Sololá	2	El tablón	7	Julio	2023-07-22T00:00:00	2024-11-06T00:00:00	4	Temperatura máxima	14.5
167227	7	Sololá	701	Sololá	2	El tablón	7	Julio	2023-07-22T00:00:00	2024-11-06T00:00:00	3	Temperatura mínima	14.1
167228	7	Sololá	701	Sololá	2	El tablón	7	Julio	2023-07-22T00:00:00	2024-11-06T00:00:00	5	Humedad	87
167229	7	Sololá	701	Sololá	2	El tablón	7	Julio	2023-07-22T00:00:00	2024-11-06T00:00:00	6	Velocidad del viento	6.4
167230	7	Sololá	701	Sololá	2	El tablón	7	Julio	2023-07-22T00:00:00	2024-11-06T00:00:00	7	Dirección del viento	6.44
167231	7	Sololá	701	Sololá	2	El tablón	7	Julio	2023-07-22T00:00:00	2024-11-06T00:00:00	1	Precipitación	0
167232	7	Sololá	701	Sololá	2	El tablón	7	Julio	2023-07-22T00:00:00	2024-11-06T00:00:00	8	Radiación solar	0
167233	7	Sololá	701	Sololá	2	El tablón	7	Julio	2023-07-22T00:00:00	2024-11-06T01:00:00	2	Temperatura media	13.9
167234	7	Sololá	701	Sololá	2	El tablón	7	Julio	2023-07-22T00:00:00	2024-11-06T01:00:00	4	Temperatura máxima	14.2
167235	7	Sololá	701	Sololá	2	El tablón	7	Julio	2023-07-22T00:00:00	2024-11-06T01:00:00	3	Temperatura mínima	13.9
167236	7	Sololá	701	Sololá	2	El tablón	7	Julio	2023-07-22T00:00:00	2024-11-06T01:00:00	5	Humedad	87
167237	7	Sololá	701	Sololá	2	El tablón	7	Julio	2023-07-22T00:00:00	2024-11-06T01:00:00	6	Velocidad del viento	4.8
167238	7	Sololá	701	Sololá	2	El tablón	7	Julio	2023-07-22T00:00:00	2024-11-06T01:00:00	7	Dirección del viento	4.83
167239	7	Sololá	701	Sololá	2	El tablón	7	Julio	2023-07-22T00:00:00	2024-11-06T01:00:00	1	Precipitación	0
167240	7	Sololá	701	Sololá	2	El tablón	7	Julio	2023-07-22T00:00:00	2024-11-06T01:00:00	8	Radiación solar	0
167241	7	Sololá	701	Sololá	2	El tablón	7	Julio	2023-07-22T00:00:00	2024-11-06T02:00:00	2	Temperatura media	13.3
167242	7	Sololá	701	Sololá	2	El tablón	7	Julio	2023-07-22T00:00:00	2024-11-06T02:00:00	4	Temperatura máxima	13.9
167243	7	Sololá	701	Sololá	2	El tablón	7	Julio	2023-07-22T00:00:00	2024-11-06T02:00:00	3	Temperatura mínima	13.3
167244	7	Sololá	701	Sololá	2	El tablón	7	Julio	2023-07-22T00:00:00	2024-11-06T02:00:00	5	Humedad	88
167245	7	Sololá	701	Sololá	2	El tablón	7	Julio	2023-07-22T00:00:00	2024-11-06T02:00:00	6	Velocidad del viento	1.6
167246	7	Sololá	701	Sololá	2	El tablón	7	Julio	2023-07-22T00:00:00	2024-11-06T02:00:00	7	Dirección del viento	1.61
167247	7	Sololá	701	Sololá	2	El tablón	7	Julio	2023-07-22T00:00:00	2024-11-06T02:00:00	1	Precipitación	0
167248	7	Sololá	701	Sololá	2	El tablón	7	Julio	2023-07-22T00:00:00	2024-11-06T02:00:00	8	Radiación solar	0
167249	7	Sololá	701	Sololá	2	El tablón	7	Julio	2023-07-22T00:00:00	2024-11-06T03:00:00	2	Temperatura media	13.8
167250	7	Sololá	701	Sololá	2	El tablón	7	Julio	2023-07-22T00:00:00	2024-11-06T03:00:00	4	Temperatura máxima	14.1
167251	7	Sololá	701	Sololá	2	El tablón	7	Julio	2023-07-22T00:00:00	2024-11-06T03:00:00	3	Temperatura mínima	13.1
167252	7	Sololá	701	Sololá	2	El tablón	7	Julio	2023-07-22T00:00:00	2024-11-06T03:00:00	5	Humedad	86
167253	7	Sololá	701	Sololá	2	El tablón	7	Julio	2023-07-22T00:00:00	2024-11-06T03:00:00	6	Velocidad del viento	4.8
167254	7	Sololá	701	Sololá	2	El tablón	7	Julio	2023-07-22T00:00:00	2024-11-06T03:00:00	7	Dirección del viento	4.83
167255	7	Sololá	701	Sololá	2	El tablón	7	Julio	2023-07-22T00:00:00	2024-11-06T03:00:00	1	Precipitación	0
167256	7	Sololá	701	Sololá	2	El tablón	7	Julio	2023-07-22T00:00:00	2024-11-06T03:00:00	8	Radiación solar	0
167257	7	Sololá	701	Sololá	2	El tablón	7	Julio	2023-07-22T00:00:00	2024-11-06T04:00:00	2	Temperatura media	13.1
167258	7	Sololá	701	Sololá	2	El tablón	7	Julio	2023-07-22T00:00:00	2024-11-06T04:00:00	4	Temperatura máxima	13.8
167259	7	Sololá	701	Sololá	2	El tablón	7	Julio	2023-07-22T00:00:00	2024-11-06T04:00:00	3	Temperatura mínima	13
167260	7	Sololá	701	Sololá	2	El tablón	7	Julio	2023-07-22T00:00:00	2024-11-06T04:00:00	5	Humedad	87
167261	7	Sololá	701	Sololá	2	El tablón	7	Julio	2023-07-22T00:00:00	2024-11-06T04:00:00	6	Velocidad del viento	3.2
167262	7	Sololá	701	Sololá	2	El tablón	7	Julio	2023-07-22T00:00:00	2024-11-06T04:00:00	7	Dirección del viento	3.22
167263	7	Sololá	701	Sololá	2	El tablón	7	Julio	2023-07-22T00:00:00	2024-11-06T04:00:00	1	Precipitación	0
167264	7	Sololá	701	Sololá	2	El tablón	7	Julio	2023-07-22T00:00:00	2024-11-06T04:00:00	8	Radiación solar	0
167265	7	Sololá	701	Sololá	2	El tablón	7	Julio	2023-07-22T00:00:00	2024-11-06T05:00:00	2	Temperatura media	13.3
167266	7	Sololá	701	Sololá	2	El tablón	7	Julio	2023-07-22T00:00:00	2024-11-06T05:00:00	4	Temperatura máxima	13.3
167267	7	Sololá	701	Sololá	2	El tablón	7	Julio	2023-07-22T00:00:00	2024-11-06T05:00:00	3	Temperatura mínima	13
167268	7	Sololá	701	Sololá	2	El tablón	7	Julio	2023-07-22T00:00:00	2024-11-06T05:00:00	5	Humedad	86
167269	7	Sololá	701	Sololá	2	El tablón	7	Julio	2023-07-22T00:00:00	2024-11-06T05:00:00	6	Velocidad del viento	3.2
167270	7	Sololá	701	Sololá	2	El tablón	7	Julio	2023-07-22T00:00:00	2024-11-06T05:00:00	7	Dirección del viento	3.22
167271	7	Sololá	701	Sololá	2	El tablón	7	Julio	2023-07-22T00:00:00	2024-11-06T05:00:00	1	Precipitación	0
167272	7	Sololá	701	Sololá	2	El tablón	7	Julio	2023-07-22T00:00:00	2024-11-06T05:00:00	8	Radiación solar	0
167273	7	Sololá	701	Sololá	2	El tablón	7	Julio	2023-07-22T00:00:00	2024-11-06T06:00:00	2	Temperatura media	13.5
167274	7	Sololá	701	Sololá	2	El tablón	7	Julio	2023-07-22T00:00:00	2024-11-06T06:00:00	4	Temperatura máxima	13.8
167275	7	Sololá	701	Sololá	2	El tablón	7	Julio	2023-07-22T00:00:00	2024-11-06T06:00:00	3	Temperatura mínima	13.3
167276	7	Sololá	701	Sololá	2	El tablón	7	Julio	2023-07-22T00:00:00	2024-11-06T06:00:00	5	Humedad	86
167277	7	Sololá	701	Sololá	2	El tablón	7	Julio	2023-07-22T00:00:00	2024-11-06T06:00:00	6	Velocidad del viento	4.8
167278	7	Sololá	701	Sololá	2	El tablón	7	Julio	2023-07-22T00:00:00	2024-11-06T06:00:00	7	Dirección del viento	4.83
167279	7	Sololá	701	Sololá	2	El tablón	7	Julio	2023-07-22T00:00:00	2024-11-06T06:00:00	1	Precipitación	0
167280	7	Sololá	701	Sololá	2	El tablón	7	Julio	2023-07-22T00:00:00	2024-11-06T06:00:00	8	Radiación solar	1
167281	7	Sololá	701	Sololá	2	El tablón	7	Julio	2023-07-22T00:00:00	2024-11-06T07:00:00	2	Temperatura media	14.6
167282	7	Sololá	701	Sololá	2	El tablón	7	Julio	2023-07-22T00:00:00	2024-11-06T07:00:00	4	Temperatura máxima	14.6
167283	7	Sololá	701	Sololá	2	El tablón	7	Julio	2023-07-22T00:00:00	2024-11-06T07:00:00	3	Temperatura mínima	13.1
167284	7	Sololá	701	Sololá	2	El tablón	7	Julio	2023-07-22T00:00:00	2024-11-06T07:00:00	5	Humedad	84
167285	7	Sololá	701	Sololá	2	El tablón	7	Julio	2023-07-22T00:00:00	2024-11-06T07:00:00	6	Velocidad del viento	6.4
167286	7	Sololá	701	Sololá	2	El tablón	7	Julio	2023-07-22T00:00:00	2024-11-06T07:00:00	7	Dirección del viento	6.44
167287	7	Sololá	701	Sololá	2	El tablón	7	Julio	2023-07-22T00:00:00	2024-11-06T07:00:00	1	Precipitación	0
167288	7	Sololá	701	Sololá	2	El tablón	7	Julio	2023-07-22T00:00:00	2024-11-06T07:00:00	8	Radiación solar	90
167289	7	Sololá	701	Sololá	2	El tablón	7	Julio	2023-07-22T00:00:00	2024-11-06T08:00:00	2	Temperatura media	15.9
167290	7	Sololá	701	Sololá	2	El tablón	7	Julio	2023-07-22T00:00:00	2024-11-06T08:00:00	4	Temperatura máxima	16.1
167291	7	Sololá	701	Sololá	2	El tablón	7	Julio	2023-07-22T00:00:00	2024-11-06T08:00:00	3	Temperatura mínima	14.6
167292	7	Sololá	701	Sololá	2	El tablón	7	Julio	2023-07-22T00:00:00	2024-11-06T08:00:00	5	Humedad	80
167293	7	Sololá	701	Sololá	2	El tablón	7	Julio	2023-07-22T00:00:00	2024-11-06T08:00:00	6	Velocidad del viento	9.7
167294	7	Sololá	701	Sololá	2	El tablón	7	Julio	2023-07-22T00:00:00	2024-11-06T08:00:00	7	Dirección del viento	9.66
167295	7	Sololá	701	Sololá	2	El tablón	7	Julio	2023-07-22T00:00:00	2024-11-06T08:00:00	1	Precipitación	0
167296	7	Sololá	701	Sololá	2	El tablón	7	Julio	2023-07-22T00:00:00	2024-11-06T08:00:00	8	Radiación solar	282
167297	7	Sololá	701	Sololá	2	El tablón	7	Julio	2023-07-22T00:00:00	2024-11-06T09:00:00	2	Temperatura media	17.8
167298	7	Sololá	701	Sololá	2	El tablón	7	Julio	2023-07-22T00:00:00	2024-11-06T09:00:00	4	Temperatura máxima	17.8
167299	7	Sololá	701	Sololá	2	El tablón	7	Julio	2023-07-22T00:00:00	2024-11-06T09:00:00	3	Temperatura mínima	15.7
167300	7	Sololá	701	Sololá	2	El tablón	7	Julio	2023-07-22T00:00:00	2024-11-06T09:00:00	5	Humedad	74
167301	7	Sololá	701	Sololá	2	El tablón	7	Julio	2023-07-22T00:00:00	2024-11-06T09:00:00	6	Velocidad del viento	8
167302	7	Sololá	701	Sololá	2	El tablón	7	Julio	2023-07-22T00:00:00	2024-11-06T09:00:00	7	Dirección del viento	8.05
167303	7	Sololá	701	Sololá	2	El tablón	7	Julio	2023-07-22T00:00:00	2024-11-06T09:00:00	1	Precipitación	0
167304	7	Sololá	701	Sololá	2	El tablón	7	Julio	2023-07-22T00:00:00	2024-11-06T09:00:00	8	Radiación solar	487
167305	7	Sololá	701	Sololá	2	El tablón	7	Julio	2023-07-22T00:00:00	2024-11-06T10:00:00	2	Temperatura media	18.4
167306	7	Sololá	701	Sololá	2	El tablón	7	Julio	2023-07-22T00:00:00	2024-11-06T10:00:00	4	Temperatura máxima	18.4
167307	7	Sololá	701	Sololá	2	El tablón	7	Julio	2023-07-22T00:00:00	2024-11-06T10:00:00	3	Temperatura mínima	17.6
167308	7	Sololá	701	Sololá	2	El tablón	7	Julio	2023-07-22T00:00:00	2024-11-06T10:00:00	5	Humedad	72
167309	7	Sololá	701	Sololá	2	El tablón	7	Julio	2023-07-22T00:00:00	2024-11-06T10:00:00	6	Velocidad del viento	4.8
167310	7	Sololá	701	Sololá	2	El tablón	7	Julio	2023-07-22T00:00:00	2024-11-06T10:00:00	7	Dirección del viento	4.83
167311	7	Sololá	701	Sololá	2	El tablón	7	Julio	2023-07-22T00:00:00	2024-11-06T10:00:00	1	Precipitación	0
167312	7	Sololá	701	Sololá	2	El tablón	7	Julio	2023-07-22T00:00:00	2024-11-06T10:00:00	8	Radiación solar	439
167313	7	Sololá	701	Sololá	2	El tablón	7	Julio	2023-07-22T00:00:00	2024-11-06T11:00:00	2	Temperatura media	18.6
167314	7	Sololá	701	Sololá	2	El tablón	7	Julio	2023-07-22T00:00:00	2024-11-06T11:00:00	4	Temperatura máxima	18.7
167315	7	Sololá	701	Sololá	2	El tablón	7	Julio	2023-07-22T00:00:00	2024-11-06T11:00:00	3	Temperatura mínima	18.2
167316	7	Sololá	701	Sololá	2	El tablón	7	Julio	2023-07-22T00:00:00	2024-11-06T11:00:00	5	Humedad	76
167317	7	Sololá	701	Sololá	2	El tablón	7	Julio	2023-07-22T00:00:00	2024-11-06T11:00:00	6	Velocidad del viento	4.8
167318	7	Sololá	701	Sololá	2	El tablón	7	Julio	2023-07-22T00:00:00	2024-11-06T11:00:00	7	Dirección del viento	4.83
167319	7	Sololá	701	Sololá	2	El tablón	7	Julio	2023-07-22T00:00:00	2024-11-06T11:00:00	1	Precipitación	0
167320	7	Sololá	701	Sololá	2	El tablón	7	Julio	2023-07-22T00:00:00	2024-11-06T11:00:00	8	Radiación solar	471
167321	7	Sololá	701	Sololá	2	El tablón	7	Julio	2023-07-22T00:00:00	2024-11-06T12:00:00	2	Temperatura media	17.3
167322	7	Sololá	701	Sololá	2	El tablón	7	Julio	2023-07-22T00:00:00	2024-11-06T12:00:00	4	Temperatura máxima	18.6
167323	7	Sololá	701	Sololá	2	El tablón	7	Julio	2023-07-22T00:00:00	2024-11-06T12:00:00	3	Temperatura mínima	17.2
167324	7	Sololá	701	Sololá	2	El tablón	7	Julio	2023-07-22T00:00:00	2024-11-06T12:00:00	5	Humedad	81
167325	7	Sololá	701	Sololá	2	El tablón	7	Julio	2023-07-22T00:00:00	2024-11-06T12:00:00	6	Velocidad del viento	4.8
167326	7	Sololá	701	Sololá	2	El tablón	7	Julio	2023-07-22T00:00:00	2024-11-06T12:00:00	7	Dirección del viento	4.83
167327	7	Sololá	701	Sololá	2	El tablón	7	Julio	2023-07-22T00:00:00	2024-11-06T12:00:00	1	Precipitación	0
167328	7	Sololá	701	Sololá	2	El tablón	7	Julio	2023-07-22T00:00:00	2024-11-06T12:00:00	8	Radiación solar	238
167329	7	Sololá	701	Sololá	2	El tablón	7	Julio	2023-07-22T00:00:00	2024-11-06T13:00:00	2	Temperatura media	15.3
167330	7	Sololá	701	Sololá	2	El tablón	7	Julio	2023-07-22T00:00:00	2024-11-06T13:00:00	4	Temperatura máxima	17.3
167331	7	Sololá	701	Sololá	2	El tablón	7	Julio	2023-07-22T00:00:00	2024-11-06T13:00:00	3	Temperatura mínima	15.3
167332	7	Sololá	701	Sololá	2	El tablón	7	Julio	2023-07-22T00:00:00	2024-11-06T13:00:00	5	Humedad	88
167333	7	Sololá	701	Sololá	2	El tablón	7	Julio	2023-07-22T00:00:00	2024-11-06T13:00:00	6	Velocidad del viento	4.8
167334	7	Sololá	701	Sololá	2	El tablón	7	Julio	2023-07-22T00:00:00	2024-11-06T13:00:00	7	Dirección del viento	4.83
167335	7	Sololá	701	Sololá	2	El tablón	7	Julio	2023-07-22T00:00:00	2024-11-06T13:00:00	1	Precipitación	0.6
167336	7	Sololá	701	Sololá	2	El tablón	7	Julio	2023-07-22T00:00:00	2024-11-06T13:00:00	8	Radiación solar	89
167337	7	Sololá	701	Sololá	2	El tablón	7	Julio	2023-07-22T00:00:00	2024-11-06T14:00:00	2	Temperatura media	14.4
167338	7	Sololá	701	Sololá	2	El tablón	7	Julio	2023-07-22T00:00:00	2024-11-06T14:00:00	4	Temperatura máxima	15.3
167339	7	Sololá	701	Sololá	2	El tablón	7	Julio	2023-07-22T00:00:00	2024-11-06T14:00:00	3	Temperatura mínima	13.9
167340	7	Sololá	701	Sololá	2	El tablón	7	Julio	2023-07-22T00:00:00	2024-11-06T14:00:00	5	Humedad	88
167341	7	Sololá	701	Sololá	2	El tablón	7	Julio	2023-07-22T00:00:00	2024-11-06T14:00:00	6	Velocidad del viento	4.8
167342	7	Sololá	701	Sololá	2	El tablón	7	Julio	2023-07-22T00:00:00	2024-11-06T14:00:00	7	Dirección del viento	4.83
167343	7	Sololá	701	Sololá	2	El tablón	7	Julio	2023-07-22T00:00:00	2024-11-06T14:00:00	1	Precipitación	2.2
167344	7	Sololá	701	Sololá	2	El tablón	7	Julio	2023-07-22T00:00:00	2024-11-06T14:00:00	8	Radiación solar	114
167345	7	Sololá	701	Sololá	2	El tablón	7	Julio	2023-07-22T00:00:00	2024-11-06T15:00:00	2	Temperatura media	15.8
167346	7	Sololá	701	Sololá	2	El tablón	7	Julio	2023-07-22T00:00:00	2024-11-06T15:00:00	4	Temperatura máxima	15.9
167347	7	Sololá	701	Sololá	2	El tablón	7	Julio	2023-07-22T00:00:00	2024-11-06T15:00:00	3	Temperatura mínima	14.4
167348	7	Sololá	701	Sololá	2	El tablón	7	Julio	2023-07-22T00:00:00	2024-11-06T15:00:00	5	Humedad	87
167349	7	Sololá	701	Sololá	2	El tablón	7	Julio	2023-07-22T00:00:00	2024-11-06T15:00:00	6	Velocidad del viento	3.2
167350	7	Sololá	701	Sololá	2	El tablón	7	Julio	2023-07-22T00:00:00	2024-11-06T15:00:00	7	Dirección del viento	3.22
167351	7	Sololá	701	Sololá	2	El tablón	7	Julio	2023-07-22T00:00:00	2024-11-06T15:00:00	1	Precipitación	0
167352	7	Sololá	701	Sololá	2	El tablón	7	Julio	2023-07-22T00:00:00	2024-11-06T15:00:00	8	Radiación solar	315
167353	7	Sololá	701	Sololá	2	El tablón	7	Julio	2023-07-22T00:00:00	2024-11-06T16:00:00	2	Temperatura media	14.8
167354	7	Sololá	701	Sololá	2	El tablón	7	Julio	2023-07-22T00:00:00	2024-11-06T16:00:00	4	Temperatura máxima	15.8
167355	7	Sololá	701	Sololá	2	El tablón	7	Julio	2023-07-22T00:00:00	2024-11-06T16:00:00	3	Temperatura mínima	14.8
167356	7	Sololá	701	Sololá	2	El tablón	7	Julio	2023-07-22T00:00:00	2024-11-06T16:00:00	5	Humedad	88
167357	7	Sololá	701	Sololá	2	El tablón	7	Julio	2023-07-22T00:00:00	2024-11-06T16:00:00	6	Velocidad del viento	1.6
167358	7	Sololá	701	Sololá	2	El tablón	7	Julio	2023-07-22T00:00:00	2024-11-06T16:00:00	7	Dirección del viento	1.61
167359	7	Sololá	701	Sololá	2	El tablón	7	Julio	2023-07-22T00:00:00	2024-11-06T16:00:00	1	Precipitación	0
167360	7	Sololá	701	Sololá	2	El tablón	7	Julio	2023-07-22T00:00:00	2024-11-06T16:00:00	8	Radiación solar	74
167361	7	Sololá	701	Sololá	2	El tablón	7	Julio	2023-07-22T00:00:00	2024-11-06T17:00:00	2	Temperatura media	15.1
167362	7	Sololá	701	Sololá	2	El tablón	7	Julio	2023-07-22T00:00:00	2024-11-06T17:00:00	4	Temperatura máxima	15.1
167363	7	Sololá	701	Sololá	2	El tablón	7	Julio	2023-07-22T00:00:00	2024-11-06T17:00:00	3	Temperatura mínima	14.8
167364	7	Sololá	701	Sololá	2	El tablón	7	Julio	2023-07-22T00:00:00	2024-11-06T17:00:00	5	Humedad	87
167365	7	Sololá	701	Sololá	2	El tablón	7	Julio	2023-07-22T00:00:00	2024-11-06T17:00:00	6	Velocidad del viento	1.6
167366	7	Sololá	701	Sololá	2	El tablón	7	Julio	2023-07-22T00:00:00	2024-11-06T17:00:00	7	Dirección del viento	1.61
167367	7	Sololá	701	Sololá	2	El tablón	7	Julio	2023-07-22T00:00:00	2024-11-06T17:00:00	1	Precipitación	0
167368	7	Sololá	701	Sololá	2	El tablón	7	Julio	2023-07-22T00:00:00	2024-11-06T17:00:00	8	Radiación solar	40
167369	7	Sololá	701	Sololá	2	El tablón	7	Julio	2023-07-22T00:00:00	2024-11-06T18:00:00	2	Temperatura media	14.7
167370	7	Sololá	701	Sololá	2	El tablón	7	Julio	2023-07-22T00:00:00	2024-11-06T18:00:00	4	Temperatura máxima	15.1
167371	7	Sololá	701	Sololá	2	El tablón	7	Julio	2023-07-22T00:00:00	2024-11-06T18:00:00	3	Temperatura mínima	14.6
167372	7	Sololá	701	Sololá	2	El tablón	7	Julio	2023-07-22T00:00:00	2024-11-06T18:00:00	5	Humedad	88
167373	7	Sololá	701	Sololá	2	El tablón	7	Julio	2023-07-22T00:00:00	2024-11-06T18:00:00	6	Velocidad del viento	1.6
167374	7	Sololá	701	Sololá	2	El tablón	7	Julio	2023-07-22T00:00:00	2024-11-06T18:00:00	7	Dirección del viento	1.61
167375	7	Sololá	701	Sololá	2	El tablón	7	Julio	2023-07-22T00:00:00	2024-11-06T18:00:00	1	Precipitación	0
167376	7	Sololá	701	Sololá	2	El tablón	7	Julio	2023-07-22T00:00:00	2024-11-06T18:00:00	8	Radiación solar	38
167377	7	Sololá	701	Sololá	2	El tablón	7	Julio	2023-07-22T00:00:00	2024-11-06T19:00:00	2	Temperatura media	14.6
167378	7	Sololá	701	Sololá	2	El tablón	7	Julio	2023-07-22T00:00:00	2024-11-06T19:00:00	4	Temperatura máxima	14.8
167379	7	Sololá	701	Sololá	2	El tablón	7	Julio	2023-07-22T00:00:00	2024-11-06T19:00:00	3	Temperatura mínima	14.6
167380	7	Sololá	701	Sololá	2	El tablón	7	Julio	2023-07-22T00:00:00	2024-11-06T19:00:00	5	Humedad	88
167381	7	Sololá	701	Sololá	2	El tablón	7	Julio	2023-07-22T00:00:00	2024-11-06T19:00:00	6	Velocidad del viento	1.6
167382	7	Sololá	701	Sololá	2	El tablón	7	Julio	2023-07-22T00:00:00	2024-11-06T19:00:00	7	Dirección del viento	1.61
167383	7	Sololá	701	Sololá	2	El tablón	7	Julio	2023-07-22T00:00:00	2024-11-06T19:00:00	1	Precipitación	0
167384	7	Sololá	701	Sololá	2	El tablón	7	Julio	2023-07-22T00:00:00	2024-11-06T19:00:00	8	Radiación solar	0
167385	7	Sololá	701	Sololá	2	El tablón	7	Julio	2023-07-22T00:00:00	2024-11-06T20:00:00	2	Temperatura media	14.3
167386	7	Sololá	701	Sololá	2	El tablón	7	Julio	2023-07-22T00:00:00	2024-11-06T20:00:00	4	Temperatura máxima	14.6
167387	7	Sololá	701	Sololá	2	El tablón	7	Julio	2023-07-22T00:00:00	2024-11-06T20:00:00	3	Temperatura mínima	14.3
167388	7	Sololá	701	Sololá	2	El tablón	7	Julio	2023-07-22T00:00:00	2024-11-06T20:00:00	5	Humedad	88
167389	7	Sololá	701	Sololá	2	El tablón	7	Julio	2023-07-22T00:00:00	2024-11-06T20:00:00	6	Velocidad del viento	6.4
167390	7	Sololá	701	Sololá	2	El tablón	7	Julio	2023-07-22T00:00:00	2024-11-06T20:00:00	7	Dirección del viento	6.44
167391	7	Sololá	701	Sololá	2	El tablón	7	Julio	2023-07-22T00:00:00	2024-11-06T20:00:00	1	Precipitación	0.2
167392	7	Sololá	701	Sololá	2	El tablón	7	Julio	2023-07-22T00:00:00	2024-11-06T20:00:00	8	Radiación solar	0
167393	7	Sololá	701	Sololá	2	El tablón	7	Julio	2023-07-22T00:00:00	2024-11-06T21:00:00	2	Temperatura media	14.1
167394	7	Sololá	701	Sololá	2	El tablón	7	Julio	2023-07-22T00:00:00	2024-11-06T21:00:00	4	Temperatura máxima	14.3
167395	7	Sololá	701	Sololá	2	El tablón	7	Julio	2023-07-22T00:00:00	2024-11-06T21:00:00	3	Temperatura mínima	14.1
167396	7	Sololá	701	Sololá	2	El tablón	7	Julio	2023-07-22T00:00:00	2024-11-06T21:00:00	5	Humedad	87
167397	7	Sololá	701	Sololá	2	El tablón	7	Julio	2023-07-22T00:00:00	2024-11-06T21:00:00	6	Velocidad del viento	4.8
167398	7	Sololá	701	Sololá	2	El tablón	7	Julio	2023-07-22T00:00:00	2024-11-06T21:00:00	7	Dirección del viento	4.83
167399	7	Sololá	701	Sololá	2	El tablón	7	Julio	2023-07-22T00:00:00	2024-11-06T21:00:00	1	Precipitación	0
167400	7	Sololá	701	Sololá	2	El tablón	7	Julio	2023-07-22T00:00:00	2024-11-06T21:00:00	8	Radiación solar	0
167401	7	Sololá	701	Sololá	2	El tablón	7	Julio	2023-07-22T00:00:00	2024-11-06T22:00:00	2	Temperatura media	13.9
167402	7	Sololá	701	Sololá	2	El tablón	7	Julio	2023-07-22T00:00:00	2024-11-06T22:00:00	4	Temperatura máxima	14.1
167403	7	Sololá	701	Sololá	2	El tablón	7	Julio	2023-07-22T00:00:00	2024-11-06T22:00:00	3	Temperatura mínima	13.9
167404	7	Sololá	701	Sololá	2	El tablón	7	Julio	2023-07-22T00:00:00	2024-11-06T22:00:00	5	Humedad	87
167405	7	Sololá	701	Sololá	2	El tablón	7	Julio	2023-07-22T00:00:00	2024-11-06T22:00:00	6	Velocidad del viento	4.8
167406	7	Sololá	701	Sololá	2	El tablón	7	Julio	2023-07-22T00:00:00	2024-11-06T22:00:00	7	Dirección del viento	4.83
167407	7	Sololá	701	Sololá	2	El tablón	7	Julio	2023-07-22T00:00:00	2024-11-06T22:00:00	1	Precipitación	0
167408	7	Sololá	701	Sololá	2	El tablón	7	Julio	2023-07-22T00:00:00	2024-11-06T22:00:00	8	Radiación solar	0
167409	7	Sololá	701	Sololá	2	El tablón	7	Julio	2023-07-22T00:00:00	2024-11-06T23:00:00	2	Temperatura media	13.7
167410	7	Sololá	701	Sololá	2	El tablón	7	Julio	2023-07-22T00:00:00	2024-11-06T23:00:00	4	Temperatura máxima	13.9
167411	7	Sololá	701	Sololá	2	El tablón	7	Julio	2023-07-22T00:00:00	2024-11-06T23:00:00	3	Temperatura mínima	13.5
167412	7	Sololá	701	Sololá	2	El tablón	7	Julio	2023-07-22T00:00:00	2024-11-06T23:00:00	5	Humedad	88
167413	7	Sololá	701	Sololá	2	El tablón	7	Julio	2023-07-22T00:00:00	2024-11-06T23:00:00	6	Velocidad del viento	4.8
167414	7	Sololá	701	Sololá	2	El tablón	7	Julio	2023-07-22T00:00:00	2024-11-06T23:00:00	7	Dirección del viento	4.83
167415	7	Sololá	701	Sololá	2	El tablón	7	Julio	2023-07-22T00:00:00	2024-11-06T23:00:00	1	Precipitación	0
167416	7	Sololá	701	Sololá	2	El tablón	7	Julio	2023-07-22T00:00:00	2024-11-06T23:00:00	8	Radiación solar	0
167417	7	Sololá	701	Sololá	2	El tablón	7	Julio	2023-07-23T00:00:00	2024-11-06T00:00:00	2	Temperatura media	13.3
167418	7	Sololá	701	Sololá	2	El tablón	7	Julio	2023-07-23T00:00:00	2024-11-06T00:00:00	4	Temperatura máxima	13.7
167419	7	Sololá	701	Sololá	2	El tablón	7	Julio	2023-07-23T00:00:00	2024-11-06T00:00:00	3	Temperatura mínima	13.3
167420	7	Sololá	701	Sololá	2	El tablón	7	Julio	2023-07-23T00:00:00	2024-11-06T00:00:00	5	Humedad	88
167421	7	Sololá	701	Sololá	2	El tablón	7	Julio	2023-07-23T00:00:00	2024-11-06T00:00:00	6	Velocidad del viento	4.8
167422	7	Sololá	701	Sololá	2	El tablón	7	Julio	2023-07-23T00:00:00	2024-11-06T00:00:00	7	Dirección del viento	4.83
167423	7	Sololá	701	Sololá	2	El tablón	7	Julio	2023-07-23T00:00:00	2024-11-06T00:00:00	1	Precipitación	0
167424	7	Sololá	701	Sololá	2	El tablón	7	Julio	2023-07-23T00:00:00	2024-11-06T00:00:00	8	Radiación solar	0
167425	7	Sololá	701	Sololá	2	El tablón	7	Julio	2023-07-23T00:00:00	2024-11-06T01:00:00	2	Temperatura media	13.4
167426	7	Sololá	701	Sololá	2	El tablón	7	Julio	2023-07-23T00:00:00	2024-11-06T01:00:00	4	Temperatura máxima	13.4
167427	7	Sololá	701	Sololá	2	El tablón	7	Julio	2023-07-23T00:00:00	2024-11-06T01:00:00	3	Temperatura mínima	13.2
167428	7	Sololá	701	Sololá	2	El tablón	7	Julio	2023-07-23T00:00:00	2024-11-06T01:00:00	5	Humedad	88
167429	7	Sololá	701	Sololá	2	El tablón	7	Julio	2023-07-23T00:00:00	2024-11-06T01:00:00	6	Velocidad del viento	4.8
167430	7	Sololá	701	Sololá	2	El tablón	7	Julio	2023-07-23T00:00:00	2024-11-06T01:00:00	7	Dirección del viento	4.83
167431	7	Sololá	701	Sololá	2	El tablón	7	Julio	2023-07-23T00:00:00	2024-11-06T01:00:00	1	Precipitación	0
167432	7	Sololá	701	Sololá	2	El tablón	7	Julio	2023-07-23T00:00:00	2024-11-06T01:00:00	8	Radiación solar	0
167433	7	Sololá	701	Sololá	2	El tablón	7	Julio	2023-07-23T00:00:00	2024-11-06T02:00:00	2	Temperatura media	13.5
167434	7	Sololá	701	Sololá	2	El tablón	7	Julio	2023-07-23T00:00:00	2024-11-06T02:00:00	4	Temperatura máxima	13.6
167435	7	Sololá	701	Sololá	2	El tablón	7	Julio	2023-07-23T00:00:00	2024-11-06T02:00:00	3	Temperatura mínima	13.4
167436	7	Sololá	701	Sololá	2	El tablón	7	Julio	2023-07-23T00:00:00	2024-11-06T02:00:00	5	Humedad	88
167437	7	Sololá	701	Sololá	2	El tablón	7	Julio	2023-07-23T00:00:00	2024-11-06T02:00:00	6	Velocidad del viento	6.4
167438	7	Sololá	701	Sololá	2	El tablón	7	Julio	2023-07-23T00:00:00	2024-11-06T02:00:00	7	Dirección del viento	6.44
167439	7	Sololá	701	Sololá	2	El tablón	7	Julio	2023-07-23T00:00:00	2024-11-06T02:00:00	1	Precipitación	0
167440	7	Sololá	701	Sololá	2	El tablón	7	Julio	2023-07-23T00:00:00	2024-11-06T02:00:00	8	Radiación solar	0
167441	7	Sololá	701	Sololá	2	El tablón	7	Julio	2023-07-23T00:00:00	2024-11-06T03:00:00	2	Temperatura media	13.4
167442	7	Sololá	701	Sololá	2	El tablón	7	Julio	2023-07-23T00:00:00	2024-11-06T03:00:00	4	Temperatura máxima	13.6
167443	7	Sololá	701	Sololá	2	El tablón	7	Julio	2023-07-23T00:00:00	2024-11-06T03:00:00	3	Temperatura mínima	13.4
167444	7	Sololá	701	Sololá	2	El tablón	7	Julio	2023-07-23T00:00:00	2024-11-06T03:00:00	5	Humedad	88
167445	7	Sololá	701	Sololá	2	El tablón	7	Julio	2023-07-23T00:00:00	2024-11-06T03:00:00	6	Velocidad del viento	6.4
167446	7	Sololá	701	Sololá	2	El tablón	7	Julio	2023-07-23T00:00:00	2024-11-06T03:00:00	7	Dirección del viento	6.44
167447	7	Sololá	701	Sololá	2	El tablón	7	Julio	2023-07-23T00:00:00	2024-11-06T03:00:00	1	Precipitación	0
167448	7	Sololá	701	Sololá	2	El tablón	7	Julio	2023-07-23T00:00:00	2024-11-06T03:00:00	8	Radiación solar	0
167449	7	Sololá	701	Sololá	2	El tablón	7	Julio	2023-07-23T00:00:00	2024-11-06T04:00:00	2	Temperatura media	13.4
167450	7	Sololá	701	Sololá	2	El tablón	7	Julio	2023-07-23T00:00:00	2024-11-06T04:00:00	4	Temperatura máxima	13.4
167451	7	Sololá	701	Sololá	2	El tablón	7	Julio	2023-07-23T00:00:00	2024-11-06T04:00:00	3	Temperatura mínima	13.4
167452	7	Sololá	701	Sololá	2	El tablón	7	Julio	2023-07-23T00:00:00	2024-11-06T04:00:00	5	Humedad	88
167453	7	Sololá	701	Sololá	2	El tablón	7	Julio	2023-07-23T00:00:00	2024-11-06T04:00:00	6	Velocidad del viento	6.4
167454	7	Sololá	701	Sololá	2	El tablón	7	Julio	2023-07-23T00:00:00	2024-11-06T04:00:00	7	Dirección del viento	6.44
167455	7	Sololá	701	Sololá	2	El tablón	7	Julio	2023-07-23T00:00:00	2024-11-06T04:00:00	1	Precipitación	0
167456	7	Sololá	701	Sololá	2	El tablón	7	Julio	2023-07-23T00:00:00	2024-11-06T04:00:00	8	Radiación solar	0
167457	7	Sololá	701	Sololá	2	El tablón	7	Julio	2023-07-23T00:00:00	2024-11-06T05:00:00	2	Temperatura media	13.2
167458	7	Sololá	701	Sololá	2	El tablón	7	Julio	2023-07-23T00:00:00	2024-11-06T05:00:00	4	Temperatura máxima	13.4
167459	7	Sololá	701	Sololá	2	El tablón	7	Julio	2023-07-23T00:00:00	2024-11-06T05:00:00	3	Temperatura mínima	13.2
167460	7	Sololá	701	Sololá	2	El tablón	7	Julio	2023-07-23T00:00:00	2024-11-06T05:00:00	5	Humedad	88
167461	7	Sololá	701	Sololá	2	El tablón	7	Julio	2023-07-23T00:00:00	2024-11-06T05:00:00	6	Velocidad del viento	4.8
167462	7	Sololá	701	Sololá	2	El tablón	7	Julio	2023-07-23T00:00:00	2024-11-06T05:00:00	7	Dirección del viento	4.83
167463	7	Sololá	701	Sololá	2	El tablón	7	Julio	2023-07-23T00:00:00	2024-11-06T05:00:00	1	Precipitación	0
167464	7	Sololá	701	Sololá	2	El tablón	7	Julio	2023-07-23T00:00:00	2024-11-06T05:00:00	8	Radiación solar	0
167465	7	Sololá	701	Sololá	2	El tablón	7	Julio	2023-07-23T00:00:00	2024-11-06T06:00:00	2	Temperatura media	12.7
167466	7	Sololá	701	Sololá	2	El tablón	7	Julio	2023-07-23T00:00:00	2024-11-06T06:00:00	4	Temperatura máxima	13.2
167467	7	Sololá	701	Sololá	2	El tablón	7	Julio	2023-07-23T00:00:00	2024-11-06T06:00:00	3	Temperatura mínima	12.7
167468	7	Sololá	701	Sololá	2	El tablón	7	Julio	2023-07-23T00:00:00	2024-11-06T06:00:00	5	Humedad	88
167469	7	Sololá	701	Sololá	2	El tablón	7	Julio	2023-07-23T00:00:00	2024-11-06T06:00:00	6	Velocidad del viento	4.8
167470	7	Sololá	701	Sololá	2	El tablón	7	Julio	2023-07-23T00:00:00	2024-11-06T06:00:00	7	Dirección del viento	4.83
167471	7	Sololá	701	Sololá	2	El tablón	7	Julio	2023-07-23T00:00:00	2024-11-06T06:00:00	1	Precipitación	0
167472	7	Sololá	701	Sololá	2	El tablón	7	Julio	2023-07-23T00:00:00	2024-11-06T06:00:00	8	Radiación solar	1
167473	7	Sololá	701	Sololá	2	El tablón	7	Julio	2023-07-23T00:00:00	2024-11-06T07:00:00	2	Temperatura media	13.7
167474	7	Sololá	701	Sololá	2	El tablón	7	Julio	2023-07-23T00:00:00	2024-11-06T07:00:00	4	Temperatura máxima	13.7
167475	7	Sololá	701	Sololá	2	El tablón	7	Julio	2023-07-23T00:00:00	2024-11-06T07:00:00	3	Temperatura mínima	12.7
167476	7	Sololá	701	Sololá	2	El tablón	7	Julio	2023-07-23T00:00:00	2024-11-06T07:00:00	5	Humedad	88
167477	7	Sololá	701	Sololá	2	El tablón	7	Julio	2023-07-23T00:00:00	2024-11-06T07:00:00	6	Velocidad del viento	4.8
167478	7	Sololá	701	Sololá	2	El tablón	7	Julio	2023-07-23T00:00:00	2024-11-06T07:00:00	7	Dirección del viento	4.83
167479	7	Sololá	701	Sololá	2	El tablón	7	Julio	2023-07-23T00:00:00	2024-11-06T07:00:00	1	Precipitación	0
167480	7	Sololá	701	Sololá	2	El tablón	7	Julio	2023-07-23T00:00:00	2024-11-06T07:00:00	8	Radiación solar	73
167481	7	Sololá	701	Sololá	2	El tablón	7	Julio	2023-07-23T00:00:00	2024-11-06T08:00:00	2	Temperatura media	15.3
167482	7	Sololá	701	Sololá	2	El tablón	7	Julio	2023-07-23T00:00:00	2024-11-06T08:00:00	4	Temperatura máxima	15.6
167483	7	Sololá	701	Sololá	2	El tablón	7	Julio	2023-07-23T00:00:00	2024-11-06T08:00:00	3	Temperatura mínima	13.7
167484	7	Sololá	701	Sololá	2	El tablón	7	Julio	2023-07-23T00:00:00	2024-11-06T08:00:00	5	Humedad	83
167485	7	Sololá	701	Sololá	2	El tablón	7	Julio	2023-07-23T00:00:00	2024-11-06T08:00:00	6	Velocidad del viento	8
167486	7	Sololá	701	Sololá	2	El tablón	7	Julio	2023-07-23T00:00:00	2024-11-06T08:00:00	7	Dirección del viento	8.05
167487	7	Sololá	701	Sololá	2	El tablón	7	Julio	2023-07-23T00:00:00	2024-11-06T08:00:00	1	Precipitación	0
167488	7	Sololá	701	Sololá	2	El tablón	7	Julio	2023-07-23T00:00:00	2024-11-06T08:00:00	8	Radiación solar	238
167489	7	Sololá	701	Sololá	2	El tablón	7	Julio	2023-07-23T00:00:00	2024-11-06T09:00:00	2	Temperatura media	17.6
167490	7	Sololá	701	Sololá	2	El tablón	7	Julio	2023-07-23T00:00:00	2024-11-06T09:00:00	4	Temperatura máxima	17.6
167491	7	Sololá	701	Sololá	2	El tablón	7	Julio	2023-07-23T00:00:00	2024-11-06T09:00:00	3	Temperatura mínima	15.1
167492	7	Sololá	701	Sololá	2	El tablón	7	Julio	2023-07-23T00:00:00	2024-11-06T09:00:00	5	Humedad	77
167493	7	Sololá	701	Sololá	2	El tablón	7	Julio	2023-07-23T00:00:00	2024-11-06T09:00:00	6	Velocidad del viento	6.4
167494	7	Sololá	701	Sololá	2	El tablón	7	Julio	2023-07-23T00:00:00	2024-11-06T09:00:00	7	Dirección del viento	6.44
167495	7	Sololá	701	Sololá	2	El tablón	7	Julio	2023-07-23T00:00:00	2024-11-06T09:00:00	1	Precipitación	0
167496	7	Sololá	701	Sololá	2	El tablón	7	Julio	2023-07-23T00:00:00	2024-11-06T09:00:00	8	Radiación solar	396
167497	7	Sololá	701	Sololá	2	El tablón	7	Julio	2023-07-23T00:00:00	2024-11-06T10:00:00	2	Temperatura media	18.3
167498	7	Sololá	701	Sololá	2	El tablón	7	Julio	2023-07-23T00:00:00	2024-11-06T10:00:00	4	Temperatura máxima	18.6
167499	7	Sololá	701	Sololá	2	El tablón	7	Julio	2023-07-23T00:00:00	2024-11-06T10:00:00	3	Temperatura mínima	17.3
167500	7	Sololá	701	Sololá	2	El tablón	7	Julio	2023-07-23T00:00:00	2024-11-06T10:00:00	5	Humedad	75
167501	7	Sololá	701	Sololá	2	El tablón	7	Julio	2023-07-23T00:00:00	2024-11-06T10:00:00	6	Velocidad del viento	8
167502	7	Sololá	701	Sololá	2	El tablón	7	Julio	2023-07-23T00:00:00	2024-11-06T10:00:00	7	Dirección del viento	8.05
167503	7	Sololá	701	Sololá	2	El tablón	7	Julio	2023-07-23T00:00:00	2024-11-06T10:00:00	1	Precipitación	0
167504	7	Sololá	701	Sololá	2	El tablón	7	Julio	2023-07-23T00:00:00	2024-11-06T10:00:00	8	Radiación solar	703
167505	7	Sololá	701	Sololá	2	El tablón	7	Julio	2023-07-23T00:00:00	2024-11-06T11:00:00	2	Temperatura media	18
167506	7	Sololá	701	Sololá	2	El tablón	7	Julio	2023-07-23T00:00:00	2024-11-06T11:00:00	4	Temperatura máxima	18.8
167507	7	Sololá	701	Sololá	2	El tablón	7	Julio	2023-07-23T00:00:00	2024-11-06T11:00:00	3	Temperatura mínima	18
167508	7	Sololá	701	Sololá	2	El tablón	7	Julio	2023-07-23T00:00:00	2024-11-06T11:00:00	5	Humedad	77
167509	7	Sololá	701	Sololá	2	El tablón	7	Julio	2023-07-23T00:00:00	2024-11-06T11:00:00	6	Velocidad del viento	6.4
167510	7	Sololá	701	Sololá	2	El tablón	7	Julio	2023-07-23T00:00:00	2024-11-06T11:00:00	7	Dirección del viento	6.44
167511	7	Sololá	701	Sololá	2	El tablón	7	Julio	2023-07-23T00:00:00	2024-11-06T11:00:00	1	Precipitación	0
167512	7	Sololá	701	Sololá	2	El tablón	7	Julio	2023-07-23T00:00:00	2024-11-06T11:00:00	8	Radiación solar	397
167513	7	Sololá	701	Sololá	2	El tablón	7	Julio	2023-07-23T00:00:00	2024-11-06T12:00:00	2	Temperatura media	16.1
167514	7	Sololá	701	Sololá	2	El tablón	7	Julio	2023-07-23T00:00:00	2024-11-06T12:00:00	4	Temperatura máxima	18
167515	7	Sololá	701	Sololá	2	El tablón	7	Julio	2023-07-23T00:00:00	2024-11-06T12:00:00	3	Temperatura mínima	16.1
167516	7	Sololá	701	Sololá	2	El tablón	7	Julio	2023-07-23T00:00:00	2024-11-06T12:00:00	5	Humedad	86
167517	7	Sololá	701	Sololá	2	El tablón	7	Julio	2023-07-23T00:00:00	2024-11-06T12:00:00	6	Velocidad del viento	3.2
167518	7	Sololá	701	Sololá	2	El tablón	7	Julio	2023-07-23T00:00:00	2024-11-06T12:00:00	7	Dirección del viento	3.22
167519	7	Sololá	701	Sololá	2	El tablón	7	Julio	2023-07-23T00:00:00	2024-11-06T12:00:00	1	Precipitación	0.2
167520	7	Sololá	701	Sololá	2	El tablón	7	Julio	2023-07-23T00:00:00	2024-11-06T12:00:00	8	Radiación solar	96
167521	7	Sololá	701	Sololá	2	El tablón	7	Julio	2023-07-23T00:00:00	2024-11-06T13:00:00	2	Temperatura media	17.1
167522	7	Sololá	701	Sololá	2	El tablón	7	Julio	2023-07-23T00:00:00	2024-11-06T13:00:00	4	Temperatura máxima	17.2
167523	7	Sololá	701	Sololá	2	El tablón	7	Julio	2023-07-23T00:00:00	2024-11-06T13:00:00	3	Temperatura mínima	15.6
167524	7	Sololá	701	Sololá	2	El tablón	7	Julio	2023-07-23T00:00:00	2024-11-06T13:00:00	5	Humedad	86
167525	7	Sololá	701	Sololá	2	El tablón	7	Julio	2023-07-23T00:00:00	2024-11-06T13:00:00	6	Velocidad del viento	3.2
167526	7	Sololá	701	Sololá	2	El tablón	7	Julio	2023-07-23T00:00:00	2024-11-06T13:00:00	7	Dirección del viento	3.22
167527	7	Sololá	701	Sololá	2	El tablón	7	Julio	2023-07-23T00:00:00	2024-11-06T13:00:00	1	Precipitación	0.2
167528	7	Sololá	701	Sololá	2	El tablón	7	Julio	2023-07-23T00:00:00	2024-11-06T13:00:00	8	Radiación solar	250
167529	7	Sololá	701	Sololá	2	El tablón	7	Julio	2023-07-23T00:00:00	2024-11-06T14:00:00	2	Temperatura media	16.2
167530	7	Sololá	701	Sololá	2	El tablón	7	Julio	2023-07-23T00:00:00	2024-11-06T14:00:00	4	Temperatura máxima	17.1
167531	7	Sololá	701	Sololá	2	El tablón	7	Julio	2023-07-23T00:00:00	2024-11-06T14:00:00	3	Temperatura mínima	15.9
167532	7	Sololá	701	Sololá	2	El tablón	7	Julio	2023-07-23T00:00:00	2024-11-06T14:00:00	5	Humedad	88
167533	7	Sololá	701	Sololá	2	El tablón	7	Julio	2023-07-23T00:00:00	2024-11-06T14:00:00	6	Velocidad del viento	3.2
167534	7	Sololá	701	Sololá	2	El tablón	7	Julio	2023-07-23T00:00:00	2024-11-06T14:00:00	7	Dirección del viento	3.22
167535	7	Sololá	701	Sololá	2	El tablón	7	Julio	2023-07-23T00:00:00	2024-11-06T14:00:00	1	Precipitación	5
167536	7	Sololá	701	Sololá	2	El tablón	7	Julio	2023-07-23T00:00:00	2024-11-06T14:00:00	8	Radiación solar	215
167537	7	Sololá	701	Sololá	2	El tablón	7	Julio	2023-07-23T00:00:00	2024-11-06T15:00:00	2	Temperatura media	15.2
167538	7	Sololá	701	Sololá	2	El tablón	7	Julio	2023-07-23T00:00:00	2024-11-06T15:00:00	4	Temperatura máxima	16.1
167539	7	Sololá	701	Sololá	2	El tablón	7	Julio	2023-07-23T00:00:00	2024-11-06T15:00:00	3	Temperatura mínima	15.2
167540	7	Sololá	701	Sololá	2	El tablón	7	Julio	2023-07-23T00:00:00	2024-11-06T15:00:00	5	Humedad	88
167541	7	Sololá	701	Sololá	2	El tablón	7	Julio	2023-07-23T00:00:00	2024-11-06T15:00:00	6	Velocidad del viento	3.2
167542	7	Sololá	701	Sololá	2	El tablón	7	Julio	2023-07-23T00:00:00	2024-11-06T15:00:00	7	Dirección del viento	3.22
167543	7	Sololá	701	Sololá	2	El tablón	7	Julio	2023-07-23T00:00:00	2024-11-06T15:00:00	1	Precipitación	1.4
167544	7	Sololá	701	Sololá	2	El tablón	7	Julio	2023-07-23T00:00:00	2024-11-06T15:00:00	8	Radiación solar	142
167545	7	Sololá	701	Sololá	2	El tablón	7	Julio	2023-07-23T00:00:00	2024-11-06T16:00:00	2	Temperatura media	14.6
167546	7	Sololá	701	Sololá	2	El tablón	7	Julio	2023-07-23T00:00:00	2024-11-06T16:00:00	4	Temperatura máxima	15.2
167547	7	Sololá	701	Sololá	2	El tablón	7	Julio	2023-07-23T00:00:00	2024-11-06T16:00:00	3	Temperatura mínima	14.5
167548	7	Sololá	701	Sololá	2	El tablón	7	Julio	2023-07-23T00:00:00	2024-11-06T16:00:00	5	Humedad	87
167549	7	Sololá	701	Sololá	2	El tablón	7	Julio	2023-07-23T00:00:00	2024-11-06T16:00:00	6	Velocidad del viento	4.8
167550	7	Sololá	701	Sololá	2	El tablón	7	Julio	2023-07-23T00:00:00	2024-11-06T16:00:00	7	Dirección del viento	4.83
167551	7	Sololá	701	Sololá	2	El tablón	7	Julio	2023-07-23T00:00:00	2024-11-06T16:00:00	1	Precipitación	3.2
167552	7	Sololá	701	Sololá	2	El tablón	7	Julio	2023-07-23T00:00:00	2024-11-06T16:00:00	8	Radiación solar	94
167553	7	Sololá	701	Sololá	2	El tablón	7	Julio	2023-07-23T00:00:00	2024-11-06T17:00:00	2	Temperatura media	13.9
167554	7	Sololá	701	Sololá	2	El tablón	7	Julio	2023-07-23T00:00:00	2024-11-06T17:00:00	4	Temperatura máxima	14.6
167555	7	Sololá	701	Sololá	2	El tablón	7	Julio	2023-07-23T00:00:00	2024-11-06T17:00:00	3	Temperatura mínima	13.6
167556	7	Sololá	701	Sololá	2	El tablón	7	Julio	2023-07-23T00:00:00	2024-11-06T17:00:00	5	Humedad	88
167557	7	Sololá	701	Sololá	2	El tablón	7	Julio	2023-07-23T00:00:00	2024-11-06T17:00:00	6	Velocidad del viento	4.8
167558	7	Sololá	701	Sololá	2	El tablón	7	Julio	2023-07-23T00:00:00	2024-11-06T17:00:00	7	Dirección del viento	4.83
167559	7	Sololá	701	Sololá	2	El tablón	7	Julio	2023-07-23T00:00:00	2024-11-06T17:00:00	1	Precipitación	4.4
167560	7	Sololá	701	Sololá	2	El tablón	7	Julio	2023-07-23T00:00:00	2024-11-06T17:00:00	8	Radiación solar	74
167561	7	Sololá	701	Sololá	2	El tablón	7	Julio	2023-07-23T00:00:00	2024-11-06T18:00:00	2	Temperatura media	14.6
167562	7	Sololá	701	Sololá	2	El tablón	7	Julio	2023-07-23T00:00:00	2024-11-06T18:00:00	4	Temperatura máxima	14.6
167563	7	Sololá	701	Sololá	2	El tablón	7	Julio	2023-07-23T00:00:00	2024-11-06T18:00:00	3	Temperatura mínima	13.9
167564	7	Sololá	701	Sololá	2	El tablón	7	Julio	2023-07-23T00:00:00	2024-11-06T18:00:00	5	Humedad	88
167565	7	Sololá	701	Sololá	2	El tablón	7	Julio	2023-07-23T00:00:00	2024-11-06T18:00:00	6	Velocidad del viento	3.2
167566	7	Sololá	701	Sololá	2	El tablón	7	Julio	2023-07-23T00:00:00	2024-11-06T18:00:00	7	Dirección del viento	3.22
167567	7	Sololá	701	Sololá	2	El tablón	7	Julio	2023-07-23T00:00:00	2024-11-06T18:00:00	1	Precipitación	0
167568	7	Sololá	701	Sololá	2	El tablón	7	Julio	2023-07-23T00:00:00	2024-11-06T18:00:00	8	Radiación solar	108
167569	7	Sololá	701	Sololá	2	El tablón	7	Julio	2023-07-23T00:00:00	2024-11-06T19:00:00	2	Temperatura media	13.3
167570	7	Sololá	701	Sololá	2	El tablón	7	Julio	2023-07-23T00:00:00	2024-11-06T19:00:00	4	Temperatura máxima	14.7
167571	7	Sololá	701	Sololá	2	El tablón	7	Julio	2023-07-23T00:00:00	2024-11-06T19:00:00	3	Temperatura mínima	13.3
167572	7	Sololá	701	Sololá	2	El tablón	7	Julio	2023-07-23T00:00:00	2024-11-06T19:00:00	5	Humedad	89
167573	7	Sololá	701	Sololá	2	El tablón	7	Julio	2023-07-23T00:00:00	2024-11-06T19:00:00	6	Velocidad del viento	1.6
167574	7	Sololá	701	Sololá	2	El tablón	7	Julio	2023-07-23T00:00:00	2024-11-06T19:00:00	7	Dirección del viento	1.61
167575	7	Sololá	701	Sololá	2	El tablón	7	Julio	2023-07-23T00:00:00	2024-11-06T19:00:00	1	Precipitación	0
167576	7	Sololá	701	Sololá	2	El tablón	7	Julio	2023-07-23T00:00:00	2024-11-06T19:00:00	8	Radiación solar	0
167577	7	Sololá	701	Sololá	2	El tablón	7	Julio	2023-07-23T00:00:00	2024-11-06T20:00:00	2	Temperatura media	12.5
167578	7	Sololá	701	Sololá	2	El tablón	7	Julio	2023-07-23T00:00:00	2024-11-06T20:00:00	4	Temperatura máxima	13.4
167579	7	Sololá	701	Sololá	2	El tablón	7	Julio	2023-07-23T00:00:00	2024-11-06T20:00:00	3	Temperatura mínima	12.4
167580	7	Sololá	701	Sololá	2	El tablón	7	Julio	2023-07-23T00:00:00	2024-11-06T20:00:00	5	Humedad	89
167581	7	Sololá	701	Sololá	2	El tablón	7	Julio	2023-07-23T00:00:00	2024-11-06T20:00:00	6	Velocidad del viento	3.2
167582	7	Sololá	701	Sololá	2	El tablón	7	Julio	2023-07-23T00:00:00	2024-11-06T20:00:00	7	Dirección del viento	3.22
167583	7	Sololá	701	Sololá	2	El tablón	7	Julio	2023-07-23T00:00:00	2024-11-06T20:00:00	1	Precipitación	0
167584	7	Sololá	701	Sololá	2	El tablón	7	Julio	2023-07-23T00:00:00	2024-11-06T20:00:00	8	Radiación solar	0
167585	7	Sololá	701	Sololá	2	El tablón	7	Julio	2023-07-23T00:00:00	2024-11-06T21:00:00	2	Temperatura media	12.7
167586	7	Sololá	701	Sololá	2	El tablón	7	Julio	2023-07-23T00:00:00	2024-11-06T21:00:00	4	Temperatura máxima	12.8
167587	7	Sololá	701	Sololá	2	El tablón	7	Julio	2023-07-23T00:00:00	2024-11-06T21:00:00	3	Temperatura mínima	12.4
167588	7	Sololá	701	Sololá	2	El tablón	7	Julio	2023-07-23T00:00:00	2024-11-06T21:00:00	5	Humedad	89
167589	7	Sololá	701	Sololá	2	El tablón	7	Julio	2023-07-23T00:00:00	2024-11-06T21:00:00	6	Velocidad del viento	3.2
167590	7	Sololá	701	Sololá	2	El tablón	7	Julio	2023-07-23T00:00:00	2024-11-06T21:00:00	7	Dirección del viento	3.22
167591	7	Sololá	701	Sololá	2	El tablón	7	Julio	2023-07-23T00:00:00	2024-11-06T21:00:00	1	Precipitación	0
167592	7	Sololá	701	Sololá	2	El tablón	7	Julio	2023-07-23T00:00:00	2024-11-06T21:00:00	8	Radiación solar	0
167593	7	Sololá	701	Sololá	2	El tablón	7	Julio	2023-07-23T00:00:00	2024-11-06T22:00:00	2	Temperatura media	13.1
167594	7	Sololá	701	Sololá	2	El tablón	7	Julio	2023-07-23T00:00:00	2024-11-06T22:00:00	4	Temperatura máxima	13.2
167595	7	Sololá	701	Sololá	2	El tablón	7	Julio	2023-07-23T00:00:00	2024-11-06T22:00:00	3	Temperatura mínima	12.6
167596	7	Sololá	701	Sololá	2	El tablón	7	Julio	2023-07-23T00:00:00	2024-11-06T22:00:00	5	Humedad	88
167597	7	Sololá	701	Sololá	2	El tablón	7	Julio	2023-07-23T00:00:00	2024-11-06T22:00:00	6	Velocidad del viento	3.2
167598	7	Sololá	701	Sololá	2	El tablón	7	Julio	2023-07-23T00:00:00	2024-11-06T22:00:00	7	Dirección del viento	3.22
167599	7	Sololá	701	Sololá	2	El tablón	7	Julio	2023-07-23T00:00:00	2024-11-06T22:00:00	1	Precipitación	0
167600	7	Sololá	701	Sololá	2	El tablón	7	Julio	2023-07-23T00:00:00	2024-11-06T22:00:00	8	Radiación solar	0
167601	7	Sololá	701	Sololá	2	El tablón	7	Julio	2023-07-23T00:00:00	2024-11-06T23:00:00	2	Temperatura media	13.3
167602	7	Sololá	701	Sololá	2	El tablón	7	Julio	2023-07-23T00:00:00	2024-11-06T23:00:00	4	Temperatura máxima	13.3
167603	7	Sololá	701	Sololá	2	El tablón	7	Julio	2023-07-23T00:00:00	2024-11-06T23:00:00	3	Temperatura mínima	13.1
167604	7	Sololá	701	Sololá	2	El tablón	7	Julio	2023-07-23T00:00:00	2024-11-06T23:00:00	5	Humedad	88
167605	7	Sololá	701	Sololá	2	El tablón	7	Julio	2023-07-23T00:00:00	2024-11-06T23:00:00	6	Velocidad del viento	3.2
167606	7	Sololá	701	Sololá	2	El tablón	7	Julio	2023-07-23T00:00:00	2024-11-06T23:00:00	7	Dirección del viento	3.22
167607	7	Sololá	701	Sololá	2	El tablón	7	Julio	2023-07-23T00:00:00	2024-11-06T23:00:00	1	Precipitación	0
167608	7	Sololá	701	Sololá	2	El tablón	7	Julio	2023-07-23T00:00:00	2024-11-06T23:00:00	8	Radiación solar	0
167609	7	Sololá	701	Sololá	2	El tablón	7	Julio	2023-07-24T00:00:00	2024-11-06T00:00:00	2	Temperatura media	12.7
167610	7	Sololá	701	Sololá	2	El tablón	7	Julio	2023-07-24T00:00:00	2024-11-06T00:00:00	4	Temperatura máxima	13.2
167611	7	Sololá	701	Sololá	2	El tablón	7	Julio	2023-07-24T00:00:00	2024-11-06T00:00:00	3	Temperatura mínima	12.7
167612	7	Sololá	701	Sololá	2	El tablón	7	Julio	2023-07-24T00:00:00	2024-11-06T00:00:00	5	Humedad	88
167613	7	Sololá	701	Sololá	2	El tablón	7	Julio	2023-07-24T00:00:00	2024-11-06T00:00:00	6	Velocidad del viento	1.6
167614	7	Sololá	701	Sololá	2	El tablón	7	Julio	2023-07-24T00:00:00	2024-11-06T00:00:00	7	Dirección del viento	1.61
167615	7	Sololá	701	Sololá	2	El tablón	7	Julio	2023-07-24T00:00:00	2024-11-06T00:00:00	1	Precipitación	0
167616	7	Sololá	701	Sololá	2	El tablón	7	Julio	2023-07-24T00:00:00	2024-11-06T00:00:00	8	Radiación solar	0
167617	7	Sololá	701	Sololá	2	El tablón	7	Julio	2023-07-24T00:00:00	2024-11-06T01:00:00	2	Temperatura media	12.4
167618	7	Sololá	701	Sololá	2	El tablón	7	Julio	2023-07-24T00:00:00	2024-11-06T01:00:00	4	Temperatura máxima	12.7
167619	7	Sololá	701	Sololá	2	El tablón	7	Julio	2023-07-24T00:00:00	2024-11-06T01:00:00	3	Temperatura mínima	12.4
167620	7	Sololá	701	Sololá	2	El tablón	7	Julio	2023-07-24T00:00:00	2024-11-06T01:00:00	5	Humedad	88
167621	7	Sololá	701	Sololá	2	El tablón	7	Julio	2023-07-24T00:00:00	2024-11-06T01:00:00	6	Velocidad del viento	1.6
167622	7	Sololá	701	Sololá	2	El tablón	7	Julio	2023-07-24T00:00:00	2024-11-06T01:00:00	7	Dirección del viento	1.61
167623	7	Sololá	701	Sololá	2	El tablón	7	Julio	2023-07-24T00:00:00	2024-11-06T01:00:00	1	Precipitación	0
167624	7	Sololá	701	Sololá	2	El tablón	7	Julio	2023-07-24T00:00:00	2024-11-06T01:00:00	8	Radiación solar	0
167625	7	Sololá	701	Sololá	2	El tablón	7	Julio	2023-07-24T00:00:00	2024-11-06T02:00:00	2	Temperatura media	12.6
167626	7	Sololá	701	Sololá	2	El tablón	7	Julio	2023-07-24T00:00:00	2024-11-06T02:00:00	4	Temperatura máxima	12.8
167627	7	Sololá	701	Sololá	2	El tablón	7	Julio	2023-07-24T00:00:00	2024-11-06T02:00:00	3	Temperatura mínima	12.4
167628	7	Sololá	701	Sololá	2	El tablón	7	Julio	2023-07-24T00:00:00	2024-11-06T02:00:00	5	Humedad	88
167629	7	Sololá	701	Sololá	2	El tablón	7	Julio	2023-07-24T00:00:00	2024-11-06T02:00:00	6	Velocidad del viento	1.6
167630	7	Sololá	701	Sololá	2	El tablón	7	Julio	2023-07-24T00:00:00	2024-11-06T02:00:00	7	Dirección del viento	1.61
167631	7	Sololá	701	Sololá	2	El tablón	7	Julio	2023-07-24T00:00:00	2024-11-06T02:00:00	1	Precipitación	0.2
167632	7	Sololá	701	Sololá	2	El tablón	7	Julio	2023-07-24T00:00:00	2024-11-06T02:00:00	8	Radiación solar	0
167633	7	Sololá	701	Sololá	2	El tablón	7	Julio	2023-07-24T00:00:00	2024-11-06T03:00:00	2	Temperatura media	12.3
167634	7	Sololá	701	Sololá	2	El tablón	7	Julio	2023-07-24T00:00:00	2024-11-06T03:00:00	4	Temperatura máxima	12.6
167635	7	Sololá	701	Sololá	2	El tablón	7	Julio	2023-07-24T00:00:00	2024-11-06T03:00:00	3	Temperatura mínima	12.2
167636	7	Sololá	701	Sololá	2	El tablón	7	Julio	2023-07-24T00:00:00	2024-11-06T03:00:00	5	Humedad	88
167637	7	Sololá	701	Sololá	2	El tablón	7	Julio	2023-07-24T00:00:00	2024-11-06T03:00:00	6	Velocidad del viento	3.2
167638	7	Sololá	701	Sololá	2	El tablón	7	Julio	2023-07-24T00:00:00	2024-11-06T03:00:00	7	Dirección del viento	3.22
167639	7	Sololá	701	Sololá	2	El tablón	7	Julio	2023-07-24T00:00:00	2024-11-06T03:00:00	1	Precipitación	0
167640	7	Sololá	701	Sololá	2	El tablón	7	Julio	2023-07-24T00:00:00	2024-11-06T03:00:00	8	Radiación solar	0
167641	7	Sololá	701	Sololá	2	El tablón	7	Julio	2023-07-24T00:00:00	2024-11-06T04:00:00	2	Temperatura media	12.8
167642	7	Sololá	701	Sololá	2	El tablón	7	Julio	2023-07-24T00:00:00	2024-11-06T04:00:00	4	Temperatura máxima	12.8
167643	7	Sololá	701	Sololá	2	El tablón	7	Julio	2023-07-24T00:00:00	2024-11-06T04:00:00	3	Temperatura mínima	12.3
167644	7	Sololá	701	Sololá	2	El tablón	7	Julio	2023-07-24T00:00:00	2024-11-06T04:00:00	5	Humedad	89
167645	7	Sololá	701	Sololá	2	El tablón	7	Julio	2023-07-24T00:00:00	2024-11-06T04:00:00	6	Velocidad del viento	3.2
167646	7	Sololá	701	Sololá	2	El tablón	7	Julio	2023-07-24T00:00:00	2024-11-06T04:00:00	7	Dirección del viento	3.22
167647	7	Sololá	701	Sololá	2	El tablón	7	Julio	2023-07-24T00:00:00	2024-11-06T04:00:00	1	Precipitación	0
167648	7	Sololá	701	Sololá	2	El tablón	7	Julio	2023-07-24T00:00:00	2024-11-06T04:00:00	8	Radiación solar	0
167649	7	Sololá	701	Sololá	2	El tablón	7	Julio	2023-07-24T00:00:00	2024-11-06T05:00:00	2	Temperatura media	12.9
167650	7	Sololá	701	Sololá	2	El tablón	7	Julio	2023-07-24T00:00:00	2024-11-06T05:00:00	4	Temperatura máxima	12.9
167651	7	Sololá	701	Sololá	2	El tablón	7	Julio	2023-07-24T00:00:00	2024-11-06T05:00:00	3	Temperatura mínima	12.6
167652	7	Sololá	701	Sololá	2	El tablón	7	Julio	2023-07-24T00:00:00	2024-11-06T05:00:00	5	Humedad	89
167653	7	Sololá	701	Sololá	2	El tablón	7	Julio	2023-07-24T00:00:00	2024-11-06T05:00:00	6	Velocidad del viento	1.6
167654	7	Sololá	701	Sololá	2	El tablón	7	Julio	2023-07-24T00:00:00	2024-11-06T05:00:00	7	Dirección del viento	1.61
167655	7	Sololá	701	Sololá	2	El tablón	7	Julio	2023-07-24T00:00:00	2024-11-06T05:00:00	1	Precipitación	0.2
167656	7	Sololá	701	Sololá	2	El tablón	7	Julio	2023-07-24T00:00:00	2024-11-06T05:00:00	8	Radiación solar	0
167657	7	Sololá	701	Sololá	2	El tablón	7	Julio	2023-07-24T00:00:00	2024-11-06T06:00:00	2	Temperatura media	13
167658	7	Sololá	701	Sololá	2	El tablón	7	Julio	2023-07-24T00:00:00	2024-11-06T06:00:00	4	Temperatura máxima	13.1
167659	7	Sololá	701	Sololá	2	El tablón	7	Julio	2023-07-24T00:00:00	2024-11-06T06:00:00	3	Temperatura mínima	12.8
167660	7	Sololá	701	Sololá	2	El tablón	7	Julio	2023-07-24T00:00:00	2024-11-06T06:00:00	5	Humedad	89
167661	7	Sololá	701	Sololá	2	El tablón	7	Julio	2023-07-24T00:00:00	2024-11-06T06:00:00	6	Velocidad del viento	4.8
167662	7	Sololá	701	Sololá	2	El tablón	7	Julio	2023-07-24T00:00:00	2024-11-06T06:00:00	7	Dirección del viento	4.83
167663	7	Sololá	701	Sololá	2	El tablón	7	Julio	2023-07-24T00:00:00	2024-11-06T06:00:00	1	Precipitación	0
167664	7	Sololá	701	Sololá	2	El tablón	7	Julio	2023-07-24T00:00:00	2024-11-06T06:00:00	8	Radiación solar	3
167665	7	Sololá	701	Sololá	2	El tablón	7	Julio	2023-07-24T00:00:00	2024-11-06T07:00:00	2	Temperatura media	14.5
167666	7	Sololá	701	Sololá	2	El tablón	7	Julio	2023-07-24T00:00:00	2024-11-06T07:00:00	4	Temperatura máxima	14.5
167667	7	Sololá	701	Sololá	2	El tablón	7	Julio	2023-07-24T00:00:00	2024-11-06T07:00:00	3	Temperatura mínima	12.9
167668	7	Sololá	701	Sololá	2	El tablón	7	Julio	2023-07-24T00:00:00	2024-11-06T07:00:00	5	Humedad	88
167669	7	Sololá	701	Sololá	2	El tablón	7	Julio	2023-07-24T00:00:00	2024-11-06T07:00:00	6	Velocidad del viento	6.4
167670	7	Sololá	701	Sololá	2	El tablón	7	Julio	2023-07-24T00:00:00	2024-11-06T07:00:00	7	Dirección del viento	6.44
167671	7	Sololá	701	Sololá	2	El tablón	7	Julio	2023-07-24T00:00:00	2024-11-06T07:00:00	1	Precipitación	0
167672	7	Sololá	701	Sololá	2	El tablón	7	Julio	2023-07-24T00:00:00	2024-11-06T07:00:00	8	Radiación solar	117
167673	7	Sololá	701	Sololá	2	El tablón	7	Julio	2023-07-24T00:00:00	2024-11-06T08:00:00	2	Temperatura media	15.4
167674	7	Sololá	701	Sololá	2	El tablón	7	Julio	2023-07-24T00:00:00	2024-11-06T08:00:00	4	Temperatura máxima	15.4
167675	7	Sololá	701	Sololá	2	El tablón	7	Julio	2023-07-24T00:00:00	2024-11-06T08:00:00	3	Temperatura mínima	14.4
167676	7	Sololá	701	Sololá	2	El tablón	7	Julio	2023-07-24T00:00:00	2024-11-06T08:00:00	5	Humedad	86
167677	7	Sololá	701	Sololá	2	El tablón	7	Julio	2023-07-24T00:00:00	2024-11-06T08:00:00	6	Velocidad del viento	6.4
167678	7	Sololá	701	Sololá	2	El tablón	7	Julio	2023-07-24T00:00:00	2024-11-06T08:00:00	7	Dirección del viento	6.44
167679	7	Sololá	701	Sololá	2	El tablón	7	Julio	2023-07-24T00:00:00	2024-11-06T08:00:00	1	Precipitación	0
167680	7	Sololá	701	Sololá	2	El tablón	7	Julio	2023-07-24T00:00:00	2024-11-06T08:00:00	8	Radiación solar	241
167681	7	Sololá	701	Sololá	2	El tablón	7	Julio	2023-07-24T00:00:00	2024-11-06T09:00:00	2	Temperatura media	17.5
167682	7	Sololá	701	Sololá	2	El tablón	7	Julio	2023-07-24T00:00:00	2024-11-06T09:00:00	4	Temperatura máxima	17.5
167683	7	Sololá	701	Sololá	2	El tablón	7	Julio	2023-07-24T00:00:00	2024-11-06T09:00:00	3	Temperatura mínima	15.3
167684	7	Sololá	701	Sololá	2	El tablón	7	Julio	2023-07-24T00:00:00	2024-11-06T09:00:00	5	Humedad	80
167685	7	Sololá	701	Sololá	2	El tablón	7	Julio	2023-07-24T00:00:00	2024-11-06T09:00:00	6	Velocidad del viento	9.7
167686	7	Sololá	701	Sololá	2	El tablón	7	Julio	2023-07-24T00:00:00	2024-11-06T09:00:00	7	Dirección del viento	9.66
167687	7	Sololá	701	Sololá	2	El tablón	7	Julio	2023-07-24T00:00:00	2024-11-06T09:00:00	1	Precipitación	0
167688	7	Sololá	701	Sololá	2	El tablón	7	Julio	2023-07-24T00:00:00	2024-11-06T09:00:00	8	Radiación solar	518
167689	7	Sololá	701	Sololá	2	El tablón	7	Julio	2023-07-24T00:00:00	2024-11-06T10:00:00	2	Temperatura media	18.1
167690	7	Sololá	701	Sololá	2	El tablón	7	Julio	2023-07-24T00:00:00	2024-11-06T10:00:00	4	Temperatura máxima	18.1
167691	7	Sololá	701	Sololá	2	El tablón	7	Julio	2023-07-24T00:00:00	2024-11-06T10:00:00	3	Temperatura mínima	17.3
167692	7	Sololá	701	Sololá	2	El tablón	7	Julio	2023-07-24T00:00:00	2024-11-06T10:00:00	5	Humedad	75
167693	7	Sololá	701	Sololá	2	El tablón	7	Julio	2023-07-24T00:00:00	2024-11-06T10:00:00	6	Velocidad del viento	11.3
167694	7	Sololá	701	Sololá	2	El tablón	7	Julio	2023-07-24T00:00:00	2024-11-06T10:00:00	7	Dirección del viento	11.27
167695	7	Sololá	701	Sololá	2	El tablón	7	Julio	2023-07-24T00:00:00	2024-11-06T10:00:00	1	Precipitación	0
167696	7	Sololá	701	Sololá	2	El tablón	7	Julio	2023-07-24T00:00:00	2024-11-06T10:00:00	8	Radiación solar	692
167697	7	Sololá	701	Sololá	2	El tablón	7	Julio	2023-07-24T00:00:00	2024-11-06T11:00:00	2	Temperatura media	19.5
167698	7	Sololá	701	Sololá	2	El tablón	7	Julio	2023-07-24T00:00:00	2024-11-06T11:00:00	4	Temperatura máxima	19.5
167699	7	Sololá	701	Sololá	2	El tablón	7	Julio	2023-07-24T00:00:00	2024-11-06T11:00:00	3	Temperatura mínima	17.9
167700	7	Sololá	701	Sololá	2	El tablón	7	Julio	2023-07-24T00:00:00	2024-11-06T11:00:00	5	Humedad	69
167701	7	Sololá	701	Sololá	2	El tablón	7	Julio	2023-07-24T00:00:00	2024-11-06T11:00:00	6	Velocidad del viento	9.7
167702	7	Sololá	701	Sololá	2	El tablón	7	Julio	2023-07-24T00:00:00	2024-11-06T11:00:00	7	Dirección del viento	9.66
167703	7	Sololá	701	Sololá	2	El tablón	7	Julio	2023-07-24T00:00:00	2024-11-06T11:00:00	1	Precipitación	0
167704	7	Sololá	701	Sololá	2	El tablón	7	Julio	2023-07-24T00:00:00	2024-11-06T11:00:00	8	Radiación solar	883
167705	7	Sololá	701	Sololá	2	El tablón	7	Julio	2023-07-24T00:00:00	2024-11-06T12:00:00	2	Temperatura media	19.9
167706	7	Sololá	701	Sololá	2	El tablón	7	Julio	2023-07-24T00:00:00	2024-11-06T12:00:00	4	Temperatura máxima	19.9
167707	7	Sololá	701	Sololá	2	El tablón	7	Julio	2023-07-24T00:00:00	2024-11-06T12:00:00	3	Temperatura mínima	19.4
167708	7	Sololá	701	Sololá	2	El tablón	7	Julio	2023-07-24T00:00:00	2024-11-06T12:00:00	5	Humedad	71
167709	7	Sololá	701	Sololá	2	El tablón	7	Julio	2023-07-24T00:00:00	2024-11-06T12:00:00	6	Velocidad del viento	8
167710	7	Sololá	701	Sololá	2	El tablón	7	Julio	2023-07-24T00:00:00	2024-11-06T12:00:00	7	Dirección del viento	8.05
167711	7	Sololá	701	Sololá	2	El tablón	7	Julio	2023-07-24T00:00:00	2024-11-06T12:00:00	1	Precipitación	0
167712	7	Sololá	701	Sololá	2	El tablón	7	Julio	2023-07-24T00:00:00	2024-11-06T12:00:00	8	Radiación solar	634
167713	7	Sololá	701	Sololá	2	El tablón	7	Julio	2023-07-24T00:00:00	2024-11-06T13:00:00	2	Temperatura media	19
167714	7	Sololá	701	Sololá	2	El tablón	7	Julio	2023-07-24T00:00:00	2024-11-06T13:00:00	4	Temperatura máxima	20
167715	7	Sololá	701	Sololá	2	El tablón	7	Julio	2023-07-24T00:00:00	2024-11-06T13:00:00	3	Temperatura mínima	19
167716	7	Sololá	701	Sololá	2	El tablón	7	Julio	2023-07-24T00:00:00	2024-11-06T13:00:00	5	Humedad	78
167717	7	Sololá	701	Sololá	2	El tablón	7	Julio	2023-07-24T00:00:00	2024-11-06T13:00:00	6	Velocidad del viento	6.4
167718	7	Sololá	701	Sololá	2	El tablón	7	Julio	2023-07-24T00:00:00	2024-11-06T13:00:00	7	Dirección del viento	6.44
167719	7	Sololá	701	Sololá	2	El tablón	7	Julio	2023-07-24T00:00:00	2024-11-06T13:00:00	1	Precipitación	0
167720	7	Sololá	701	Sololá	2	El tablón	7	Julio	2023-07-24T00:00:00	2024-11-06T13:00:00	8	Radiación solar	407
167721	7	Sololá	701	Sololá	2	El tablón	7	Julio	2023-07-24T00:00:00	2024-11-06T14:00:00	2	Temperatura media	19.8
167722	7	Sololá	701	Sololá	2	El tablón	7	Julio	2023-07-24T00:00:00	2024-11-06T14:00:00	4	Temperatura máxima	19.9
167723	7	Sololá	701	Sololá	2	El tablón	7	Julio	2023-07-24T00:00:00	2024-11-06T14:00:00	3	Temperatura mínima	17.8
167724	7	Sololá	701	Sololá	2	El tablón	7	Julio	2023-07-24T00:00:00	2024-11-06T14:00:00	5	Humedad	75
167725	7	Sololá	701	Sololá	2	El tablón	7	Julio	2023-07-24T00:00:00	2024-11-06T14:00:00	6	Velocidad del viento	6.4
167726	7	Sololá	701	Sololá	2	El tablón	7	Julio	2023-07-24T00:00:00	2024-11-06T14:00:00	7	Dirección del viento	6.44
167727	7	Sololá	701	Sololá	2	El tablón	7	Julio	2023-07-24T00:00:00	2024-11-06T14:00:00	1	Precipitación	0
167728	7	Sololá	701	Sololá	2	El tablón	7	Julio	2023-07-24T00:00:00	2024-11-06T14:00:00	8	Radiación solar	494
167729	7	Sololá	701	Sololá	2	El tablón	7	Julio	2023-07-24T00:00:00	2024-11-06T15:00:00	2	Temperatura media	15.8
167730	7	Sololá	701	Sololá	2	El tablón	7	Julio	2023-07-24T00:00:00	2024-11-06T15:00:00	4	Temperatura máxima	19.9
167731	7	Sololá	701	Sololá	2	El tablón	7	Julio	2023-07-24T00:00:00	2024-11-06T15:00:00	3	Temperatura mínima	15.7
167732	7	Sololá	701	Sololá	2	El tablón	7	Julio	2023-07-24T00:00:00	2024-11-06T15:00:00	5	Humedad	88
167733	7	Sololá	701	Sololá	2	El tablón	7	Julio	2023-07-24T00:00:00	2024-11-06T15:00:00	6	Velocidad del viento	8
167734	7	Sololá	701	Sololá	2	El tablón	7	Julio	2023-07-24T00:00:00	2024-11-06T15:00:00	7	Dirección del viento	8.05
167735	7	Sololá	701	Sololá	2	El tablón	7	Julio	2023-07-24T00:00:00	2024-11-06T15:00:00	1	Precipitación	0
167736	7	Sololá	701	Sololá	2	El tablón	7	Julio	2023-07-24T00:00:00	2024-11-06T15:00:00	8	Radiación solar	202
167737	7	Sololá	701	Sololá	2	El tablón	7	Julio	2023-07-24T00:00:00	2024-11-06T16:00:00	2	Temperatura media	14.3
167738	7	Sololá	701	Sololá	2	El tablón	7	Julio	2023-07-24T00:00:00	2024-11-06T16:00:00	4	Temperatura máxima	15.8
167739	7	Sololá	701	Sololá	2	El tablón	7	Julio	2023-07-24T00:00:00	2024-11-06T16:00:00	3	Temperatura mínima	14.3
167740	7	Sololá	701	Sololá	2	El tablón	7	Julio	2023-07-24T00:00:00	2024-11-06T16:00:00	5	Humedad	88
167741	7	Sololá	701	Sololá	2	El tablón	7	Julio	2023-07-24T00:00:00	2024-11-06T16:00:00	6	Velocidad del viento	6.4
167742	7	Sololá	701	Sololá	2	El tablón	7	Julio	2023-07-24T00:00:00	2024-11-06T16:00:00	7	Dirección del viento	6.44
167743	7	Sololá	701	Sololá	2	El tablón	7	Julio	2023-07-24T00:00:00	2024-11-06T16:00:00	1	Precipitación	0
167744	7	Sololá	701	Sololá	2	El tablón	7	Julio	2023-07-24T00:00:00	2024-11-06T16:00:00	8	Radiación solar	67
167745	7	Sololá	701	Sololá	2	El tablón	7	Julio	2023-07-24T00:00:00	2024-11-06T17:00:00	2	Temperatura media	14.5
167746	7	Sololá	701	Sololá	2	El tablón	7	Julio	2023-07-24T00:00:00	2024-11-06T17:00:00	4	Temperatura máxima	14.6
167747	7	Sololá	701	Sololá	2	El tablón	7	Julio	2023-07-24T00:00:00	2024-11-06T17:00:00	3	Temperatura mínima	14.3
167748	7	Sololá	701	Sololá	2	El tablón	7	Julio	2023-07-24T00:00:00	2024-11-06T17:00:00	5	Humedad	87
167749	7	Sololá	701	Sololá	2	El tablón	7	Julio	2023-07-24T00:00:00	2024-11-06T17:00:00	6	Velocidad del viento	3.2
167750	7	Sololá	701	Sololá	2	El tablón	7	Julio	2023-07-24T00:00:00	2024-11-06T17:00:00	7	Dirección del viento	3.22
167751	7	Sololá	701	Sololá	2	El tablón	7	Julio	2023-07-24T00:00:00	2024-11-06T17:00:00	1	Precipitación	0
167752	7	Sololá	701	Sololá	2	El tablón	7	Julio	2023-07-24T00:00:00	2024-11-06T17:00:00	8	Radiación solar	108
167753	7	Sololá	701	Sololá	2	El tablón	7	Julio	2023-07-24T00:00:00	2024-11-06T18:00:00	2	Temperatura media	14.2
167754	7	Sololá	701	Sololá	2	El tablón	7	Julio	2023-07-24T00:00:00	2024-11-06T18:00:00	4	Temperatura máxima	14.8
167755	7	Sololá	701	Sololá	2	El tablón	7	Julio	2023-07-24T00:00:00	2024-11-06T18:00:00	3	Temperatura mínima	14.2
167756	7	Sololá	701	Sololá	2	El tablón	7	Julio	2023-07-24T00:00:00	2024-11-06T18:00:00	5	Humedad	88
167757	7	Sololá	701	Sololá	2	El tablón	7	Julio	2023-07-24T00:00:00	2024-11-06T18:00:00	6	Velocidad del viento	1.6
167758	7	Sololá	701	Sololá	2	El tablón	7	Julio	2023-07-24T00:00:00	2024-11-06T18:00:00	7	Dirección del viento	1.61
167759	7	Sololá	701	Sololá	2	El tablón	7	Julio	2023-07-24T00:00:00	2024-11-06T18:00:00	1	Precipitación	1.8
167760	7	Sololá	701	Sololá	2	El tablón	7	Julio	2023-07-24T00:00:00	2024-11-06T18:00:00	8	Radiación solar	29
167761	7	Sololá	701	Sololá	2	El tablón	7	Julio	2023-07-24T00:00:00	2024-11-06T19:00:00	2	Temperatura media	13.8
167762	7	Sololá	701	Sololá	2	El tablón	7	Julio	2023-07-24T00:00:00	2024-11-06T19:00:00	4	Temperatura máxima	14.2
167763	7	Sololá	701	Sololá	2	El tablón	7	Julio	2023-07-24T00:00:00	2024-11-06T19:00:00	3	Temperatura mínima	13.8
167764	7	Sololá	701	Sololá	2	El tablón	7	Julio	2023-07-24T00:00:00	2024-11-06T19:00:00	5	Humedad	87
167765	7	Sololá	701	Sololá	2	El tablón	7	Julio	2023-07-24T00:00:00	2024-11-06T19:00:00	6	Velocidad del viento	3.2
167766	7	Sololá	701	Sololá	2	El tablón	7	Julio	2023-07-24T00:00:00	2024-11-06T19:00:00	7	Dirección del viento	3.22
167767	7	Sololá	701	Sololá	2	El tablón	7	Julio	2023-07-24T00:00:00	2024-11-06T19:00:00	1	Precipitación	1.2
167768	7	Sololá	701	Sololá	2	El tablón	7	Julio	2023-07-24T00:00:00	2024-11-06T19:00:00	8	Radiación solar	0
167769	7	Sololá	701	Sololá	2	El tablón	7	Julio	2023-07-24T00:00:00	2024-11-06T20:00:00	2	Temperatura media	13.3
167770	7	Sololá	701	Sololá	2	El tablón	7	Julio	2023-07-24T00:00:00	2024-11-06T20:00:00	4	Temperatura máxima	13.8
167771	7	Sololá	701	Sololá	2	El tablón	7	Julio	2023-07-24T00:00:00	2024-11-06T20:00:00	3	Temperatura mínima	13.2
167772	7	Sololá	701	Sololá	2	El tablón	7	Julio	2023-07-24T00:00:00	2024-11-06T20:00:00	5	Humedad	89
167773	7	Sololá	701	Sololá	2	El tablón	7	Julio	2023-07-24T00:00:00	2024-11-06T20:00:00	6	Velocidad del viento	6.4
167774	7	Sololá	701	Sololá	2	El tablón	7	Julio	2023-07-24T00:00:00	2024-11-06T20:00:00	7	Dirección del viento	6.44
167775	7	Sololá	701	Sololá	2	El tablón	7	Julio	2023-07-24T00:00:00	2024-11-06T20:00:00	1	Precipitación	3.8
167776	7	Sololá	701	Sololá	2	El tablón	7	Julio	2023-07-24T00:00:00	2024-11-06T20:00:00	8	Radiación solar	0
167777	7	Sololá	701	Sololá	2	El tablón	7	Julio	2023-07-24T00:00:00	2024-11-06T21:00:00	2	Temperatura media	13.4
167778	7	Sololá	701	Sololá	2	El tablón	7	Julio	2023-07-24T00:00:00	2024-11-06T21:00:00	4	Temperatura máxima	13.5
167779	7	Sololá	701	Sololá	2	El tablón	7	Julio	2023-07-24T00:00:00	2024-11-06T21:00:00	3	Temperatura mínima	13.3
167780	7	Sololá	701	Sololá	2	El tablón	7	Julio	2023-07-24T00:00:00	2024-11-06T21:00:00	5	Humedad	89
167781	7	Sololá	701	Sololá	2	El tablón	7	Julio	2023-07-24T00:00:00	2024-11-06T21:00:00	6	Velocidad del viento	6.4
167782	7	Sololá	701	Sololá	2	El tablón	7	Julio	2023-07-24T00:00:00	2024-11-06T21:00:00	7	Dirección del viento	6.44
167783	7	Sololá	701	Sololá	2	El tablón	7	Julio	2023-07-24T00:00:00	2024-11-06T21:00:00	1	Precipitación	0
167784	7	Sololá	701	Sololá	2	El tablón	7	Julio	2023-07-24T00:00:00	2024-11-06T21:00:00	8	Radiación solar	0
167785	7	Sololá	701	Sololá	2	El tablón	7	Julio	2023-07-24T00:00:00	2024-11-06T22:00:00	2	Temperatura media	13.3
167786	7	Sololá	701	Sololá	2	El tablón	7	Julio	2023-07-24T00:00:00	2024-11-06T22:00:00	4	Temperatura máxima	13.4
167787	7	Sololá	701	Sololá	2	El tablón	7	Julio	2023-07-24T00:00:00	2024-11-06T22:00:00	3	Temperatura mínima	13.2
167788	7	Sololá	701	Sololá	2	El tablón	7	Julio	2023-07-24T00:00:00	2024-11-06T22:00:00	5	Humedad	88
167789	7	Sololá	701	Sololá	2	El tablón	7	Julio	2023-07-24T00:00:00	2024-11-06T22:00:00	6	Velocidad del viento	4.8
167790	7	Sololá	701	Sololá	2	El tablón	7	Julio	2023-07-24T00:00:00	2024-11-06T22:00:00	7	Dirección del viento	4.83
167791	7	Sololá	701	Sololá	2	El tablón	7	Julio	2023-07-24T00:00:00	2024-11-06T22:00:00	1	Precipitación	0
167792	7	Sololá	701	Sololá	2	El tablón	7	Julio	2023-07-24T00:00:00	2024-11-06T22:00:00	8	Radiación solar	0
167793	7	Sololá	701	Sololá	2	El tablón	7	Julio	2023-07-24T00:00:00	2024-11-06T23:00:00	2	Temperatura media	13.4
167794	7	Sololá	701	Sololá	2	El tablón	7	Julio	2023-07-24T00:00:00	2024-11-06T23:00:00	4	Temperatura máxima	13.4
167795	7	Sololá	701	Sololá	2	El tablón	7	Julio	2023-07-24T00:00:00	2024-11-06T23:00:00	3	Temperatura mínima	13.2
167796	7	Sololá	701	Sololá	2	El tablón	7	Julio	2023-07-24T00:00:00	2024-11-06T23:00:00	5	Humedad	88
167797	7	Sololá	701	Sololá	2	El tablón	7	Julio	2023-07-24T00:00:00	2024-11-06T23:00:00	6	Velocidad del viento	8
167798	7	Sololá	701	Sololá	2	El tablón	7	Julio	2023-07-24T00:00:00	2024-11-06T23:00:00	7	Dirección del viento	8.05
167799	7	Sololá	701	Sololá	2	El tablón	7	Julio	2023-07-24T00:00:00	2024-11-06T23:00:00	1	Precipitación	0
167800	7	Sololá	701	Sololá	2	El tablón	7	Julio	2023-07-24T00:00:00	2024-11-06T23:00:00	8	Radiación solar	0
167801	7	Sololá	701	Sololá	2	El tablón	7	Julio	2023-07-25T00:00:00	2024-11-06T00:00:00	2	Temperatura media	13.3
167802	7	Sololá	701	Sololá	2	El tablón	7	Julio	2023-07-25T00:00:00	2024-11-06T00:00:00	4	Temperatura máxima	13.4
167803	7	Sololá	701	Sololá	2	El tablón	7	Julio	2023-07-25T00:00:00	2024-11-06T00:00:00	3	Temperatura mínima	13.3
167804	7	Sololá	701	Sololá	2	El tablón	7	Julio	2023-07-25T00:00:00	2024-11-06T00:00:00	5	Humedad	88
167805	7	Sololá	701	Sololá	2	El tablón	7	Julio	2023-07-25T00:00:00	2024-11-06T00:00:00	6	Velocidad del viento	9.7
167806	7	Sololá	701	Sololá	2	El tablón	7	Julio	2023-07-25T00:00:00	2024-11-06T00:00:00	7	Dirección del viento	9.66
167807	7	Sololá	701	Sololá	2	El tablón	7	Julio	2023-07-25T00:00:00	2024-11-06T00:00:00	1	Precipitación	0
167808	7	Sololá	701	Sololá	2	El tablón	7	Julio	2023-07-25T00:00:00	2024-11-06T00:00:00	8	Radiación solar	0
167809	7	Sololá	701	Sololá	2	El tablón	7	Julio	2023-07-25T00:00:00	2024-11-06T01:00:00	2	Temperatura media	12.9
167810	7	Sololá	701	Sololá	2	El tablón	7	Julio	2023-07-25T00:00:00	2024-11-06T01:00:00	4	Temperatura máxima	13.3
167811	7	Sololá	701	Sololá	2	El tablón	7	Julio	2023-07-25T00:00:00	2024-11-06T01:00:00	3	Temperatura mínima	12.9
167812	7	Sololá	701	Sololá	2	El tablón	7	Julio	2023-07-25T00:00:00	2024-11-06T01:00:00	5	Humedad	89
167813	7	Sololá	701	Sololá	2	El tablón	7	Julio	2023-07-25T00:00:00	2024-11-06T01:00:00	6	Velocidad del viento	8
167814	7	Sololá	701	Sololá	2	El tablón	7	Julio	2023-07-25T00:00:00	2024-11-06T01:00:00	7	Dirección del viento	8.05
167815	7	Sololá	701	Sololá	2	El tablón	7	Julio	2023-07-25T00:00:00	2024-11-06T01:00:00	1	Precipitación	0.4
167816	7	Sololá	701	Sololá	2	El tablón	7	Julio	2023-07-25T00:00:00	2024-11-06T01:00:00	8	Radiación solar	0
167817	7	Sololá	701	Sololá	2	El tablón	7	Julio	2023-07-25T00:00:00	2024-11-06T02:00:00	2	Temperatura media	12.8
167818	7	Sololá	701	Sololá	2	El tablón	7	Julio	2023-07-25T00:00:00	2024-11-06T02:00:00	4	Temperatura máxima	12.9
167819	7	Sololá	701	Sololá	2	El tablón	7	Julio	2023-07-25T00:00:00	2024-11-06T02:00:00	3	Temperatura mínima	12.6
167820	7	Sololá	701	Sololá	2	El tablón	7	Julio	2023-07-25T00:00:00	2024-11-06T02:00:00	5	Humedad	86
167821	7	Sololá	701	Sololá	2	El tablón	7	Julio	2023-07-25T00:00:00	2024-11-06T02:00:00	6	Velocidad del viento	6.4
167822	7	Sololá	701	Sololá	2	El tablón	7	Julio	2023-07-25T00:00:00	2024-11-06T02:00:00	7	Dirección del viento	6.44
167823	7	Sololá	701	Sololá	2	El tablón	7	Julio	2023-07-25T00:00:00	2024-11-06T02:00:00	1	Precipitación	0.2
167824	7	Sololá	701	Sololá	2	El tablón	7	Julio	2023-07-25T00:00:00	2024-11-06T02:00:00	8	Radiación solar	0
167825	7	Sololá	701	Sololá	2	El tablón	7	Julio	2023-07-25T00:00:00	2024-11-06T03:00:00	2	Temperatura media	12.7
167826	7	Sololá	701	Sololá	2	El tablón	7	Julio	2023-07-25T00:00:00	2024-11-06T03:00:00	4	Temperatura máxima	13.3
167827	7	Sololá	701	Sololá	2	El tablón	7	Julio	2023-07-25T00:00:00	2024-11-06T03:00:00	3	Temperatura mínima	12.7
167828	7	Sololá	701	Sololá	2	El tablón	7	Julio	2023-07-25T00:00:00	2024-11-06T03:00:00	5	Humedad	86
167829	7	Sololá	701	Sololá	2	El tablón	7	Julio	2023-07-25T00:00:00	2024-11-06T03:00:00	6	Velocidad del viento	9.7
167830	7	Sololá	701	Sololá	2	El tablón	7	Julio	2023-07-25T00:00:00	2024-11-06T03:00:00	7	Dirección del viento	9.66
167831	7	Sololá	701	Sololá	2	El tablón	7	Julio	2023-07-25T00:00:00	2024-11-06T03:00:00	1	Precipitación	0
167832	7	Sololá	701	Sololá	2	El tablón	7	Julio	2023-07-25T00:00:00	2024-11-06T03:00:00	8	Radiación solar	0
167833	7	Sololá	701	Sololá	2	El tablón	7	Julio	2023-07-25T00:00:00	2024-11-06T04:00:00	2	Temperatura media	12.5
167834	7	Sololá	701	Sololá	2	El tablón	7	Julio	2023-07-25T00:00:00	2024-11-06T04:00:00	4	Temperatura máxima	12.7
167835	7	Sololá	701	Sololá	2	El tablón	7	Julio	2023-07-25T00:00:00	2024-11-06T04:00:00	3	Temperatura mínima	12.4
167836	7	Sololá	701	Sololá	2	El tablón	7	Julio	2023-07-25T00:00:00	2024-11-06T04:00:00	5	Humedad	87
167837	7	Sololá	701	Sololá	2	El tablón	7	Julio	2023-07-25T00:00:00	2024-11-06T04:00:00	6	Velocidad del viento	9.7
167838	7	Sololá	701	Sololá	2	El tablón	7	Julio	2023-07-25T00:00:00	2024-11-06T04:00:00	7	Dirección del viento	9.66
167839	7	Sololá	701	Sololá	2	El tablón	7	Julio	2023-07-25T00:00:00	2024-11-06T04:00:00	1	Precipitación	0
167840	7	Sololá	701	Sololá	2	El tablón	7	Julio	2023-07-25T00:00:00	2024-11-06T04:00:00	8	Radiación solar	0
167841	7	Sololá	701	Sololá	2	El tablón	7	Julio	2023-07-25T00:00:00	2024-11-06T05:00:00	2	Temperatura media	12.4
167842	7	Sololá	701	Sololá	2	El tablón	7	Julio	2023-07-25T00:00:00	2024-11-06T05:00:00	4	Temperatura máxima	12.7
167843	7	Sololá	701	Sololá	2	El tablón	7	Julio	2023-07-25T00:00:00	2024-11-06T05:00:00	3	Temperatura mínima	12.4
167844	7	Sololá	701	Sololá	2	El tablón	7	Julio	2023-07-25T00:00:00	2024-11-06T05:00:00	5	Humedad	87
167845	7	Sololá	701	Sololá	2	El tablón	7	Julio	2023-07-25T00:00:00	2024-11-06T05:00:00	6	Velocidad del viento	11.3
167846	7	Sololá	701	Sololá	2	El tablón	7	Julio	2023-07-25T00:00:00	2024-11-06T05:00:00	7	Dirección del viento	11.27
167847	7	Sololá	701	Sololá	2	El tablón	7	Julio	2023-07-25T00:00:00	2024-11-06T05:00:00	1	Precipitación	0
167848	7	Sololá	701	Sololá	2	El tablón	7	Julio	2023-07-25T00:00:00	2024-11-06T05:00:00	8	Radiación solar	0
167849	7	Sololá	701	Sololá	2	El tablón	7	Julio	2023-07-25T00:00:00	2024-11-06T06:00:00	2	Temperatura media	12.7
167850	7	Sololá	701	Sololá	2	El tablón	7	Julio	2023-07-25T00:00:00	2024-11-06T06:00:00	4	Temperatura máxima	12.8
167851	7	Sololá	701	Sololá	2	El tablón	7	Julio	2023-07-25T00:00:00	2024-11-06T06:00:00	3	Temperatura mínima	12.4
167852	7	Sololá	701	Sololá	2	El tablón	7	Julio	2023-07-25T00:00:00	2024-11-06T06:00:00	5	Humedad	88
167853	7	Sololá	701	Sololá	2	El tablón	7	Julio	2023-07-25T00:00:00	2024-11-06T06:00:00	6	Velocidad del viento	14.5
167854	7	Sololá	701	Sololá	2	El tablón	7	Julio	2023-07-25T00:00:00	2024-11-06T06:00:00	7	Dirección del viento	14.48
167855	7	Sololá	701	Sololá	2	El tablón	7	Julio	2023-07-25T00:00:00	2024-11-06T06:00:00	1	Precipitación	0
167856	7	Sololá	701	Sololá	2	El tablón	7	Julio	2023-07-25T00:00:00	2024-11-06T06:00:00	8	Radiación solar	1
167857	7	Sololá	701	Sololá	2	El tablón	7	Julio	2023-07-25T00:00:00	2024-11-06T07:00:00	2	Temperatura media	13.5
167858	7	Sololá	701	Sololá	2	El tablón	7	Julio	2023-07-25T00:00:00	2024-11-06T07:00:00	4	Temperatura máxima	13.5
167859	7	Sololá	701	Sololá	2	El tablón	7	Julio	2023-07-25T00:00:00	2024-11-06T07:00:00	3	Temperatura mínima	12.7
167860	7	Sololá	701	Sololá	2	El tablón	7	Julio	2023-07-25T00:00:00	2024-11-06T07:00:00	5	Humedad	84
167861	7	Sololá	701	Sololá	2	El tablón	7	Julio	2023-07-25T00:00:00	2024-11-06T07:00:00	6	Velocidad del viento	14.5
167862	7	Sololá	701	Sololá	2	El tablón	7	Julio	2023-07-25T00:00:00	2024-11-06T07:00:00	7	Dirección del viento	14.48
167863	7	Sololá	701	Sololá	2	El tablón	7	Julio	2023-07-25T00:00:00	2024-11-06T07:00:00	1	Precipitación	0
167864	7	Sololá	701	Sololá	2	El tablón	7	Julio	2023-07-25T00:00:00	2024-11-06T07:00:00	8	Radiación solar	92
167865	7	Sololá	701	Sololá	2	El tablón	7	Julio	2023-07-25T00:00:00	2024-11-06T08:00:00	2	Temperatura media	15.3
167866	7	Sololá	701	Sololá	2	El tablón	7	Julio	2023-07-25T00:00:00	2024-11-06T08:00:00	4	Temperatura máxima	15.6
167867	7	Sololá	701	Sololá	2	El tablón	7	Julio	2023-07-25T00:00:00	2024-11-06T08:00:00	3	Temperatura mínima	13.5
167868	7	Sololá	701	Sololá	2	El tablón	7	Julio	2023-07-25T00:00:00	2024-11-06T08:00:00	5	Humedad	78
167869	7	Sololá	701	Sololá	2	El tablón	7	Julio	2023-07-25T00:00:00	2024-11-06T08:00:00	6	Velocidad del viento	11.3
167870	7	Sololá	701	Sololá	2	El tablón	7	Julio	2023-07-25T00:00:00	2024-11-06T08:00:00	7	Dirección del viento	11.27
167871	7	Sololá	701	Sololá	2	El tablón	7	Julio	2023-07-25T00:00:00	2024-11-06T08:00:00	1	Precipitación	0
167872	7	Sololá	701	Sololá	2	El tablón	7	Julio	2023-07-25T00:00:00	2024-11-06T08:00:00	8	Radiación solar	259
167873	7	Sololá	701	Sololá	2	El tablón	7	Julio	2023-07-25T00:00:00	2024-11-06T09:00:00	2	Temperatura media	17.3
167874	7	Sololá	701	Sololá	2	El tablón	7	Julio	2023-07-25T00:00:00	2024-11-06T09:00:00	4	Temperatura máxima	17.3
167875	7	Sololá	701	Sololá	2	El tablón	7	Julio	2023-07-25T00:00:00	2024-11-06T09:00:00	3	Temperatura mínima	15.3
167876	7	Sololá	701	Sololá	2	El tablón	7	Julio	2023-07-25T00:00:00	2024-11-06T09:00:00	5	Humedad	73
167877	7	Sololá	701	Sololá	2	El tablón	7	Julio	2023-07-25T00:00:00	2024-11-06T09:00:00	6	Velocidad del viento	11.3
167878	7	Sololá	701	Sololá	2	El tablón	7	Julio	2023-07-25T00:00:00	2024-11-06T09:00:00	7	Dirección del viento	11.27
167879	7	Sololá	701	Sololá	2	El tablón	7	Julio	2023-07-25T00:00:00	2024-11-06T09:00:00	1	Precipitación	0
167880	7	Sololá	701	Sololá	2	El tablón	7	Julio	2023-07-25T00:00:00	2024-11-06T09:00:00	8	Radiación solar	498
167881	7	Sololá	701	Sololá	2	El tablón	7	Julio	2023-07-25T00:00:00	2024-11-06T10:00:00	2	Temperatura media	17.9
167882	7	Sololá	701	Sololá	2	El tablón	7	Julio	2023-07-25T00:00:00	2024-11-06T10:00:00	4	Temperatura máxima	18.1
167883	7	Sololá	701	Sololá	2	El tablón	7	Julio	2023-07-25T00:00:00	2024-11-06T10:00:00	3	Temperatura mínima	17.2
167884	7	Sololá	701	Sololá	2	El tablón	7	Julio	2023-07-25T00:00:00	2024-11-06T10:00:00	5	Humedad	70
167885	7	Sololá	701	Sololá	2	El tablón	7	Julio	2023-07-25T00:00:00	2024-11-06T10:00:00	6	Velocidad del viento	11.3
167886	7	Sololá	701	Sololá	2	El tablón	7	Julio	2023-07-25T00:00:00	2024-11-06T10:00:00	7	Dirección del viento	11.27
167887	7	Sololá	701	Sololá	2	El tablón	7	Julio	2023-07-25T00:00:00	2024-11-06T10:00:00	1	Precipitación	0
167888	7	Sololá	701	Sololá	2	El tablón	7	Julio	2023-07-25T00:00:00	2024-11-06T10:00:00	8	Radiación solar	686
167889	7	Sololá	701	Sololá	2	El tablón	7	Julio	2023-07-25T00:00:00	2024-11-06T11:00:00	2	Temperatura media	19.4
167890	7	Sololá	701	Sololá	2	El tablón	7	Julio	2023-07-25T00:00:00	2024-11-06T11:00:00	4	Temperatura máxima	19.8
167891	7	Sololá	701	Sololá	2	El tablón	7	Julio	2023-07-25T00:00:00	2024-11-06T11:00:00	3	Temperatura mínima	17.5
167892	7	Sololá	701	Sololá	2	El tablón	7	Julio	2023-07-25T00:00:00	2024-11-06T11:00:00	5	Humedad	59
167893	7	Sololá	701	Sololá	2	El tablón	7	Julio	2023-07-25T00:00:00	2024-11-06T11:00:00	6	Velocidad del viento	12.9
167894	7	Sololá	701	Sololá	2	El tablón	7	Julio	2023-07-25T00:00:00	2024-11-06T11:00:00	7	Dirección del viento	12.87
167895	7	Sololá	701	Sololá	2	El tablón	7	Julio	2023-07-25T00:00:00	2024-11-06T11:00:00	1	Precipitación	0
167896	7	Sololá	701	Sololá	2	El tablón	7	Julio	2023-07-25T00:00:00	2024-11-06T11:00:00	8	Radiación solar	861
167897	7	Sololá	701	Sololá	2	El tablón	7	Julio	2023-07-25T00:00:00	2024-11-06T12:00:00	2	Temperatura media	19.2
167898	7	Sololá	701	Sololá	2	El tablón	7	Julio	2023-07-25T00:00:00	2024-11-06T12:00:00	4	Temperatura máxima	20.1
167899	7	Sololá	701	Sololá	2	El tablón	7	Julio	2023-07-25T00:00:00	2024-11-06T12:00:00	3	Temperatura mínima	19.1
167900	7	Sololá	701	Sololá	2	El tablón	7	Julio	2023-07-25T00:00:00	2024-11-06T12:00:00	5	Humedad	59
167901	7	Sololá	701	Sololá	2	El tablón	7	Julio	2023-07-25T00:00:00	2024-11-06T12:00:00	6	Velocidad del viento	11.3
167902	7	Sololá	701	Sololá	2	El tablón	7	Julio	2023-07-25T00:00:00	2024-11-06T12:00:00	7	Dirección del viento	11.27
167903	7	Sololá	701	Sololá	2	El tablón	7	Julio	2023-07-25T00:00:00	2024-11-06T12:00:00	1	Precipitación	0
167904	7	Sololá	701	Sololá	2	El tablón	7	Julio	2023-07-25T00:00:00	2024-11-06T12:00:00	8	Radiación solar	903
167905	7	Sololá	701	Sololá	2	El tablón	7	Julio	2023-07-25T00:00:00	2024-11-06T13:00:00	2	Temperatura media	19.7
167906	7	Sololá	701	Sololá	2	El tablón	7	Julio	2023-07-25T00:00:00	2024-11-06T13:00:00	4	Temperatura máxima	20.1
167907	7	Sololá	701	Sololá	2	El tablón	7	Julio	2023-07-25T00:00:00	2024-11-06T13:00:00	3	Temperatura mínima	19.2
167908	7	Sololá	701	Sololá	2	El tablón	7	Julio	2023-07-25T00:00:00	2024-11-06T13:00:00	5	Humedad	56
167909	7	Sololá	701	Sololá	2	El tablón	7	Julio	2023-07-25T00:00:00	2024-11-06T13:00:00	6	Velocidad del viento	11.3
167910	7	Sololá	701	Sololá	2	El tablón	7	Julio	2023-07-25T00:00:00	2024-11-06T13:00:00	7	Dirección del viento	11.27
167911	7	Sololá	701	Sololá	2	El tablón	7	Julio	2023-07-25T00:00:00	2024-11-06T13:00:00	1	Precipitación	0
167912	7	Sololá	701	Sololá	2	El tablón	7	Julio	2023-07-25T00:00:00	2024-11-06T13:00:00	8	Radiación solar	942
167913	7	Sololá	701	Sololá	2	El tablón	7	Julio	2023-07-25T00:00:00	2024-11-06T14:00:00	2	Temperatura media	20.1
167914	7	Sololá	701	Sololá	2	El tablón	7	Julio	2023-07-25T00:00:00	2024-11-06T14:00:00	4	Temperatura máxima	20.5
167915	7	Sololá	701	Sololá	2	El tablón	7	Julio	2023-07-25T00:00:00	2024-11-06T14:00:00	3	Temperatura mínima	19.7
167916	7	Sololá	701	Sololá	2	El tablón	7	Julio	2023-07-25T00:00:00	2024-11-06T14:00:00	5	Humedad	56
167917	7	Sololá	701	Sololá	2	El tablón	7	Julio	2023-07-25T00:00:00	2024-11-06T14:00:00	6	Velocidad del viento	11.3
167918	7	Sololá	701	Sololá	2	El tablón	7	Julio	2023-07-25T00:00:00	2024-11-06T14:00:00	7	Dirección del viento	11.27
167919	7	Sololá	701	Sololá	2	El tablón	7	Julio	2023-07-25T00:00:00	2024-11-06T14:00:00	1	Precipitación	0
167920	7	Sololá	701	Sololá	2	El tablón	7	Julio	2023-07-25T00:00:00	2024-11-06T14:00:00	8	Radiación solar	893
167921	7	Sololá	701	Sololá	2	El tablón	7	Julio	2023-07-25T00:00:00	2024-11-06T15:00:00	2	Temperatura media	19.8
167922	7	Sololá	701	Sololá	2	El tablón	7	Julio	2023-07-25T00:00:00	2024-11-06T15:00:00	4	Temperatura máxima	20.7
167923	7	Sololá	701	Sololá	2	El tablón	7	Julio	2023-07-25T00:00:00	2024-11-06T15:00:00	3	Temperatura mínima	19.6
167924	7	Sololá	701	Sololá	2	El tablón	7	Julio	2023-07-25T00:00:00	2024-11-06T15:00:00	5	Humedad	62
167925	7	Sololá	701	Sololá	2	El tablón	7	Julio	2023-07-25T00:00:00	2024-11-06T15:00:00	6	Velocidad del viento	11.3
167926	7	Sololá	701	Sololá	2	El tablón	7	Julio	2023-07-25T00:00:00	2024-11-06T15:00:00	7	Dirección del viento	11.27
167927	7	Sololá	701	Sololá	2	El tablón	7	Julio	2023-07-25T00:00:00	2024-11-06T15:00:00	1	Precipitación	0
167928	7	Sololá	701	Sololá	2	El tablón	7	Julio	2023-07-25T00:00:00	2024-11-06T15:00:00	8	Radiación solar	804
167929	7	Sololá	701	Sololá	2	El tablón	7	Julio	2023-07-25T00:00:00	2024-11-06T16:00:00	2	Temperatura media	19.3
167930	7	Sololá	701	Sololá	2	El tablón	7	Julio	2023-07-25T00:00:00	2024-11-06T16:00:00	4	Temperatura máxima	20.1
167931	7	Sololá	701	Sololá	2	El tablón	7	Julio	2023-07-25T00:00:00	2024-11-06T16:00:00	3	Temperatura mínima	18.9
167932	7	Sololá	701	Sololá	2	El tablón	7	Julio	2023-07-25T00:00:00	2024-11-06T16:00:00	5	Humedad	62
167933	7	Sololá	701	Sololá	2	El tablón	7	Julio	2023-07-25T00:00:00	2024-11-06T16:00:00	6	Velocidad del viento	12.9
167934	7	Sololá	701	Sololá	2	El tablón	7	Julio	2023-07-25T00:00:00	2024-11-06T16:00:00	7	Dirección del viento	12.87
167935	7	Sololá	701	Sololá	2	El tablón	7	Julio	2023-07-25T00:00:00	2024-11-06T16:00:00	1	Precipitación	0
167936	7	Sololá	701	Sololá	2	El tablón	7	Julio	2023-07-25T00:00:00	2024-11-06T16:00:00	8	Radiación solar	642
167937	7	Sololá	701	Sololá	2	El tablón	7	Julio	2023-07-25T00:00:00	2024-11-06T17:00:00	2	Temperatura media	18.1
167938	7	Sololá	701	Sololá	2	El tablón	7	Julio	2023-07-25T00:00:00	2024-11-06T17:00:00	4	Temperatura máxima	19.4
167939	7	Sololá	701	Sololá	2	El tablón	7	Julio	2023-07-25T00:00:00	2024-11-06T17:00:00	3	Temperatura mínima	18.1
167940	7	Sololá	701	Sololá	2	El tablón	7	Julio	2023-07-25T00:00:00	2024-11-06T17:00:00	5	Humedad	66
167941	7	Sololá	701	Sololá	2	El tablón	7	Julio	2023-07-25T00:00:00	2024-11-06T17:00:00	6	Velocidad del viento	12.9
167942	7	Sololá	701	Sololá	2	El tablón	7	Julio	2023-07-25T00:00:00	2024-11-06T17:00:00	7	Dirección del viento	12.87
167943	7	Sololá	701	Sololá	2	El tablón	7	Julio	2023-07-25T00:00:00	2024-11-06T17:00:00	1	Precipitación	0
167944	7	Sololá	701	Sololá	2	El tablón	7	Julio	2023-07-25T00:00:00	2024-11-06T17:00:00	8	Radiación solar	425
167945	7	Sololá	701	Sololá	2	El tablón	7	Julio	2023-07-25T00:00:00	2024-11-06T18:00:00	2	Temperatura media	16.8
167946	7	Sololá	701	Sololá	2	El tablón	7	Julio	2023-07-25T00:00:00	2024-11-06T18:00:00	4	Temperatura máxima	18.1
167947	7	Sololá	701	Sololá	2	El tablón	7	Julio	2023-07-25T00:00:00	2024-11-06T18:00:00	3	Temperatura mínima	16.8
167948	7	Sololá	701	Sololá	2	El tablón	7	Julio	2023-07-25T00:00:00	2024-11-06T18:00:00	5	Humedad	72
167949	7	Sololá	701	Sololá	2	El tablón	7	Julio	2023-07-25T00:00:00	2024-11-06T18:00:00	6	Velocidad del viento	9.7
167950	7	Sololá	701	Sololá	2	El tablón	7	Julio	2023-07-25T00:00:00	2024-11-06T18:00:00	7	Dirección del viento	9.66
167951	7	Sololá	701	Sololá	2	El tablón	7	Julio	2023-07-25T00:00:00	2024-11-06T18:00:00	1	Precipitación	0
167952	7	Sololá	701	Sololá	2	El tablón	7	Julio	2023-07-25T00:00:00	2024-11-06T18:00:00	8	Radiación solar	199
167953	7	Sololá	701	Sololá	2	El tablón	7	Julio	2023-07-25T00:00:00	2024-11-06T19:00:00	2	Temperatura media	15.2
167954	7	Sololá	701	Sololá	2	El tablón	7	Julio	2023-07-25T00:00:00	2024-11-06T19:00:00	4	Temperatura máxima	16.8
167955	7	Sololá	701	Sololá	2	El tablón	7	Julio	2023-07-25T00:00:00	2024-11-06T19:00:00	3	Temperatura mínima	15.2
167956	7	Sololá	701	Sololá	2	El tablón	7	Julio	2023-07-25T00:00:00	2024-11-06T19:00:00	5	Humedad	80
167957	7	Sololá	701	Sololá	2	El tablón	7	Julio	2023-07-25T00:00:00	2024-11-06T19:00:00	6	Velocidad del viento	6.4
167958	7	Sololá	701	Sololá	2	El tablón	7	Julio	2023-07-25T00:00:00	2024-11-06T19:00:00	7	Dirección del viento	6.44
167959	7	Sololá	701	Sololá	2	El tablón	7	Julio	2023-07-25T00:00:00	2024-11-06T19:00:00	1	Precipitación	0
167960	7	Sololá	701	Sololá	2	El tablón	7	Julio	2023-07-25T00:00:00	2024-11-06T19:00:00	8	Radiación solar	0
167961	7	Sololá	701	Sololá	2	El tablón	7	Julio	2023-07-25T00:00:00	2024-11-06T20:00:00	2	Temperatura media	14.6
167962	7	Sololá	701	Sololá	2	El tablón	7	Julio	2023-07-25T00:00:00	2024-11-06T20:00:00	4	Temperatura máxima	15.2
167963	7	Sololá	701	Sololá	2	El tablón	7	Julio	2023-07-25T00:00:00	2024-11-06T20:00:00	3	Temperatura mínima	14.6
167964	7	Sololá	701	Sololá	2	El tablón	7	Julio	2023-07-25T00:00:00	2024-11-06T20:00:00	5	Humedad	85
167965	7	Sololá	701	Sololá	2	El tablón	7	Julio	2023-07-25T00:00:00	2024-11-06T20:00:00	6	Velocidad del viento	9.7
167966	7	Sololá	701	Sololá	2	El tablón	7	Julio	2023-07-25T00:00:00	2024-11-06T20:00:00	7	Dirección del viento	9.66
167967	7	Sololá	701	Sololá	2	El tablón	7	Julio	2023-07-25T00:00:00	2024-11-06T20:00:00	1	Precipitación	0
167968	7	Sololá	701	Sololá	2	El tablón	7	Julio	2023-07-25T00:00:00	2024-11-06T20:00:00	8	Radiación solar	0
167969	7	Sololá	701	Sololá	2	El tablón	7	Julio	2023-07-25T00:00:00	2024-11-06T21:00:00	2	Temperatura media	13.9
167970	7	Sololá	701	Sololá	2	El tablón	7	Julio	2023-07-25T00:00:00	2024-11-06T21:00:00	4	Temperatura máxima	14.6
167971	7	Sololá	701	Sololá	2	El tablón	7	Julio	2023-07-25T00:00:00	2024-11-06T21:00:00	3	Temperatura mínima	13.9
167972	7	Sololá	701	Sololá	2	El tablón	7	Julio	2023-07-25T00:00:00	2024-11-06T21:00:00	5	Humedad	85
167973	7	Sololá	701	Sololá	2	El tablón	7	Julio	2023-07-25T00:00:00	2024-11-06T21:00:00	6	Velocidad del viento	12.9
167974	7	Sololá	701	Sololá	2	El tablón	7	Julio	2023-07-25T00:00:00	2024-11-06T21:00:00	7	Dirección del viento	12.87
167975	7	Sololá	701	Sololá	2	El tablón	7	Julio	2023-07-25T00:00:00	2024-11-06T21:00:00	1	Precipitación	0
167976	7	Sololá	701	Sololá	2	El tablón	7	Julio	2023-07-25T00:00:00	2024-11-06T21:00:00	8	Radiación solar	0
167977	7	Sololá	701	Sololá	2	El tablón	7	Julio	2023-07-25T00:00:00	2024-11-06T22:00:00	2	Temperatura media	13.4
167978	7	Sololá	701	Sololá	2	El tablón	7	Julio	2023-07-25T00:00:00	2024-11-06T22:00:00	4	Temperatura máxima	14
167979	7	Sololá	701	Sololá	2	El tablón	7	Julio	2023-07-25T00:00:00	2024-11-06T22:00:00	3	Temperatura mínima	13.4
167980	7	Sololá	701	Sololá	2	El tablón	7	Julio	2023-07-25T00:00:00	2024-11-06T22:00:00	5	Humedad	82
167981	7	Sololá	701	Sololá	2	El tablón	7	Julio	2023-07-25T00:00:00	2024-11-06T22:00:00	6	Velocidad del viento	11.3
167982	7	Sololá	701	Sololá	2	El tablón	7	Julio	2023-07-25T00:00:00	2024-11-06T22:00:00	7	Dirección del viento	11.27
167983	7	Sololá	701	Sololá	2	El tablón	7	Julio	2023-07-25T00:00:00	2024-11-06T22:00:00	1	Precipitación	0
167984	7	Sololá	701	Sololá	2	El tablón	7	Julio	2023-07-25T00:00:00	2024-11-06T22:00:00	8	Radiación solar	0
167985	7	Sololá	701	Sololá	2	El tablón	7	Julio	2023-07-25T00:00:00	2024-11-06T23:00:00	2	Temperatura media	12.4
167986	7	Sololá	701	Sololá	2	El tablón	7	Julio	2023-07-25T00:00:00	2024-11-06T23:00:00	4	Temperatura máxima	13.4
167987	7	Sololá	701	Sololá	2	El tablón	7	Julio	2023-07-25T00:00:00	2024-11-06T23:00:00	3	Temperatura mínima	12.4
167988	7	Sololá	701	Sololá	2	El tablón	7	Julio	2023-07-25T00:00:00	2024-11-06T23:00:00	5	Humedad	74
167989	7	Sololá	701	Sololá	2	El tablón	7	Julio	2023-07-25T00:00:00	2024-11-06T23:00:00	6	Velocidad del viento	14.5
167990	7	Sololá	701	Sololá	2	El tablón	7	Julio	2023-07-25T00:00:00	2024-11-06T23:00:00	7	Dirección del viento	14.48
167991	7	Sololá	701	Sololá	2	El tablón	7	Julio	2023-07-25T00:00:00	2024-11-06T23:00:00	1	Precipitación	0
167992	7	Sololá	701	Sololá	2	El tablón	7	Julio	2023-07-25T00:00:00	2024-11-06T23:00:00	8	Radiación solar	0
167993	7	Sololá	701	Sololá	2	El tablón	7	Julio	2023-07-26T00:00:00	2024-11-06T00:00:00	2	Temperatura media	12.2
167994	7	Sololá	701	Sololá	2	El tablón	7	Julio	2023-07-26T00:00:00	2024-11-06T00:00:00	4	Temperatura máxima	12.4
167995	7	Sololá	701	Sololá	2	El tablón	7	Julio	2023-07-26T00:00:00	2024-11-06T00:00:00	3	Temperatura mínima	12.1
167996	7	Sololá	701	Sololá	2	El tablón	7	Julio	2023-07-26T00:00:00	2024-11-06T00:00:00	5	Humedad	64
167997	7	Sololá	701	Sololá	2	El tablón	7	Julio	2023-07-26T00:00:00	2024-11-06T00:00:00	6	Velocidad del viento	16.1
167998	7	Sololá	701	Sololá	2	El tablón	7	Julio	2023-07-26T00:00:00	2024-11-06T00:00:00	7	Dirección del viento	16.09
167999	7	Sololá	701	Sololá	2	El tablón	7	Julio	2023-07-26T00:00:00	2024-11-06T00:00:00	1	Precipitación	0
168000	7	Sololá	701	Sololá	2	El tablón	7	Julio	2023-07-26T00:00:00	2024-11-06T00:00:00	8	Radiación solar	0
168001	7	Sololá	701	Sololá	2	El tablón	7	Julio	2023-07-26T00:00:00	2024-11-06T01:00:00	2	Temperatura media	12.2
168002	7	Sololá	701	Sololá	2	El tablón	7	Julio	2023-07-26T00:00:00	2024-11-06T01:00:00	4	Temperatura máxima	12.3
168003	7	Sololá	701	Sololá	2	El tablón	7	Julio	2023-07-26T00:00:00	2024-11-06T01:00:00	3	Temperatura mínima	12.1
168004	7	Sololá	701	Sololá	2	El tablón	7	Julio	2023-07-26T00:00:00	2024-11-06T01:00:00	5	Humedad	66
168005	7	Sololá	701	Sololá	2	El tablón	7	Julio	2023-07-26T00:00:00	2024-11-06T01:00:00	6	Velocidad del viento	16.1
168006	7	Sololá	701	Sololá	2	El tablón	7	Julio	2023-07-26T00:00:00	2024-11-06T01:00:00	7	Dirección del viento	16.09
168007	7	Sololá	701	Sololá	2	El tablón	7	Julio	2023-07-26T00:00:00	2024-11-06T01:00:00	1	Precipitación	0
168008	7	Sololá	701	Sololá	2	El tablón	7	Julio	2023-07-26T00:00:00	2024-11-06T01:00:00	8	Radiación solar	0
168009	7	Sololá	701	Sololá	2	El tablón	7	Julio	2023-07-26T00:00:00	2024-11-06T02:00:00	2	Temperatura media	12.3
168010	7	Sololá	701	Sololá	2	El tablón	7	Julio	2023-07-26T00:00:00	2024-11-06T02:00:00	4	Temperatura máxima	12.4
168011	7	Sololá	701	Sololá	2	El tablón	7	Julio	2023-07-26T00:00:00	2024-11-06T02:00:00	3	Temperatura mínima	12.1
168012	7	Sololá	701	Sololá	2	El tablón	7	Julio	2023-07-26T00:00:00	2024-11-06T02:00:00	5	Humedad	70
168013	7	Sololá	701	Sololá	2	El tablón	7	Julio	2023-07-26T00:00:00	2024-11-06T02:00:00	6	Velocidad del viento	12.9
168014	7	Sololá	701	Sololá	2	El tablón	7	Julio	2023-07-26T00:00:00	2024-11-06T02:00:00	7	Dirección del viento	12.87
168015	7	Sololá	701	Sololá	2	El tablón	7	Julio	2023-07-26T00:00:00	2024-11-06T02:00:00	1	Precipitación	0
168016	7	Sololá	701	Sololá	2	El tablón	7	Julio	2023-07-26T00:00:00	2024-11-06T02:00:00	8	Radiación solar	0
168017	7	Sololá	701	Sololá	2	El tablón	7	Julio	2023-07-26T00:00:00	2024-11-06T03:00:00	2	Temperatura media	12.1
168018	7	Sololá	701	Sololá	2	El tablón	7	Julio	2023-07-26T00:00:00	2024-11-06T03:00:00	4	Temperatura máxima	12.3
168019	7	Sololá	701	Sololá	2	El tablón	7	Julio	2023-07-26T00:00:00	2024-11-06T03:00:00	3	Temperatura mínima	12.1
168020	7	Sololá	701	Sololá	2	El tablón	7	Julio	2023-07-26T00:00:00	2024-11-06T03:00:00	5	Humedad	72
168021	7	Sololá	701	Sololá	2	El tablón	7	Julio	2023-07-26T00:00:00	2024-11-06T03:00:00	6	Velocidad del viento	11.3
168022	7	Sololá	701	Sololá	2	El tablón	7	Julio	2023-07-26T00:00:00	2024-11-06T03:00:00	7	Dirección del viento	11.27
168023	7	Sololá	701	Sololá	2	El tablón	7	Julio	2023-07-26T00:00:00	2024-11-06T03:00:00	1	Precipitación	0
168024	7	Sololá	701	Sololá	2	El tablón	7	Julio	2023-07-26T00:00:00	2024-11-06T03:00:00	8	Radiación solar	0
168025	7	Sololá	701	Sololá	2	El tablón	7	Julio	2023-07-26T00:00:00	2024-11-06T04:00:00	2	Temperatura media	11.9
168026	7	Sololá	701	Sololá	2	El tablón	7	Julio	2023-07-26T00:00:00	2024-11-06T04:00:00	4	Temperatura máxima	12.3
168027	7	Sololá	701	Sololá	2	El tablón	7	Julio	2023-07-26T00:00:00	2024-11-06T04:00:00	3	Temperatura mínima	11.9
168028	7	Sololá	701	Sololá	2	El tablón	7	Julio	2023-07-26T00:00:00	2024-11-06T04:00:00	5	Humedad	76
168029	7	Sololá	701	Sololá	2	El tablón	7	Julio	2023-07-26T00:00:00	2024-11-06T04:00:00	6	Velocidad del viento	16.1
168030	7	Sololá	701	Sololá	2	El tablón	7	Julio	2023-07-26T00:00:00	2024-11-06T04:00:00	7	Dirección del viento	16.09
168031	7	Sololá	701	Sololá	2	El tablón	7	Julio	2023-07-26T00:00:00	2024-11-06T04:00:00	1	Precipitación	0
168032	7	Sololá	701	Sololá	2	El tablón	7	Julio	2023-07-26T00:00:00	2024-11-06T04:00:00	8	Radiación solar	0
168033	7	Sololá	701	Sololá	2	El tablón	7	Julio	2023-07-26T00:00:00	2024-11-06T05:00:00	2	Temperatura media	12.4
168034	7	Sololá	701	Sololá	2	El tablón	7	Julio	2023-07-26T00:00:00	2024-11-06T05:00:00	4	Temperatura máxima	12.4
168035	7	Sololá	701	Sololá	2	El tablón	7	Julio	2023-07-26T00:00:00	2024-11-06T05:00:00	3	Temperatura mínima	11.8
168036	7	Sololá	701	Sololá	2	El tablón	7	Julio	2023-07-26T00:00:00	2024-11-06T05:00:00	5	Humedad	75
168037	7	Sololá	701	Sololá	2	El tablón	7	Julio	2023-07-26T00:00:00	2024-11-06T05:00:00	6	Velocidad del viento	16.1
168038	7	Sololá	701	Sololá	2	El tablón	7	Julio	2023-07-26T00:00:00	2024-11-06T05:00:00	7	Dirección del viento	16.09
168039	7	Sololá	701	Sololá	2	El tablón	7	Julio	2023-07-26T00:00:00	2024-11-06T05:00:00	1	Precipitación	0
168040	7	Sololá	701	Sololá	2	El tablón	7	Julio	2023-07-26T00:00:00	2024-11-06T05:00:00	8	Radiación solar	0
168041	7	Sololá	701	Sololá	2	El tablón	7	Julio	2023-07-26T00:00:00	2024-11-06T06:00:00	2	Temperatura media	12.2
168042	7	Sololá	701	Sololá	2	El tablón	7	Julio	2023-07-26T00:00:00	2024-11-06T06:00:00	4	Temperatura máxima	12.5
168043	7	Sololá	701	Sololá	2	El tablón	7	Julio	2023-07-26T00:00:00	2024-11-06T06:00:00	3	Temperatura mínima	12.2
168044	7	Sololá	701	Sololá	2	El tablón	7	Julio	2023-07-26T00:00:00	2024-11-06T06:00:00	5	Humedad	70
168045	7	Sololá	701	Sololá	2	El tablón	7	Julio	2023-07-26T00:00:00	2024-11-06T06:00:00	6	Velocidad del viento	12.9
168046	7	Sololá	701	Sololá	2	El tablón	7	Julio	2023-07-26T00:00:00	2024-11-06T06:00:00	7	Dirección del viento	12.87
168047	7	Sololá	701	Sololá	2	El tablón	7	Julio	2023-07-26T00:00:00	2024-11-06T06:00:00	1	Precipitación	0
168048	7	Sololá	701	Sololá	2	El tablón	7	Julio	2023-07-26T00:00:00	2024-11-06T06:00:00	8	Radiación solar	1
168049	7	Sololá	701	Sololá	2	El tablón	7	Julio	2023-07-26T00:00:00	2024-11-06T07:00:00	2	Temperatura media	13.5
168050	7	Sololá	701	Sololá	2	El tablón	7	Julio	2023-07-26T00:00:00	2024-11-06T07:00:00	4	Temperatura máxima	13.5
168051	7	Sololá	701	Sololá	2	El tablón	7	Julio	2023-07-26T00:00:00	2024-11-06T07:00:00	3	Temperatura mínima	12.1
168052	7	Sololá	701	Sololá	2	El tablón	7	Julio	2023-07-26T00:00:00	2024-11-06T07:00:00	5	Humedad	62
168053	7	Sololá	701	Sololá	2	El tablón	7	Julio	2023-07-26T00:00:00	2024-11-06T07:00:00	6	Velocidad del viento	14.5
168054	7	Sololá	701	Sololá	2	El tablón	7	Julio	2023-07-26T00:00:00	2024-11-06T07:00:00	7	Dirección del viento	14.48
168055	7	Sololá	701	Sololá	2	El tablón	7	Julio	2023-07-26T00:00:00	2024-11-06T07:00:00	1	Precipitación	0
168056	7	Sololá	701	Sololá	2	El tablón	7	Julio	2023-07-26T00:00:00	2024-11-06T07:00:00	8	Radiación solar	93
168057	7	Sololá	701	Sololá	2	El tablón	7	Julio	2023-07-26T00:00:00	2024-11-06T08:00:00	2	Temperatura media	14.8
168058	7	Sololá	701	Sololá	2	El tablón	7	Julio	2023-07-26T00:00:00	2024-11-06T08:00:00	4	Temperatura máxima	14.9
168059	7	Sololá	701	Sololá	2	El tablón	7	Julio	2023-07-26T00:00:00	2024-11-06T08:00:00	3	Temperatura mínima	13.5
168060	7	Sololá	701	Sololá	2	El tablón	7	Julio	2023-07-26T00:00:00	2024-11-06T08:00:00	5	Humedad	62
168061	7	Sololá	701	Sololá	2	El tablón	7	Julio	2023-07-26T00:00:00	2024-11-06T08:00:00	6	Velocidad del viento	14.5
168062	7	Sololá	701	Sololá	2	El tablón	7	Julio	2023-07-26T00:00:00	2024-11-06T08:00:00	7	Dirección del viento	14.48
168063	7	Sololá	701	Sololá	2	El tablón	7	Julio	2023-07-26T00:00:00	2024-11-06T08:00:00	1	Precipitación	0
168064	7	Sololá	701	Sololá	2	El tablón	7	Julio	2023-07-26T00:00:00	2024-11-06T08:00:00	8	Radiación solar	311
168065	7	Sololá	701	Sololá	2	El tablón	7	Julio	2023-07-26T00:00:00	2024-11-06T09:00:00	2	Temperatura media	15.9
168066	7	Sololá	701	Sololá	2	El tablón	7	Julio	2023-07-26T00:00:00	2024-11-06T09:00:00	4	Temperatura máxima	16.2
168067	7	Sololá	701	Sololá	2	El tablón	7	Julio	2023-07-26T00:00:00	2024-11-06T09:00:00	3	Temperatura mínima	14.8
168068	7	Sololá	701	Sololá	2	El tablón	7	Julio	2023-07-26T00:00:00	2024-11-06T09:00:00	5	Humedad	63
168069	7	Sololá	701	Sololá	2	El tablón	7	Julio	2023-07-26T00:00:00	2024-11-06T09:00:00	6	Velocidad del viento	14.5
168070	7	Sololá	701	Sololá	2	El tablón	7	Julio	2023-07-26T00:00:00	2024-11-06T09:00:00	7	Dirección del viento	14.48
168071	7	Sololá	701	Sololá	2	El tablón	7	Julio	2023-07-26T00:00:00	2024-11-06T09:00:00	1	Precipitación	0
168072	7	Sololá	701	Sololá	2	El tablón	7	Julio	2023-07-26T00:00:00	2024-11-06T09:00:00	8	Radiación solar	527
168073	7	Sololá	701	Sololá	2	El tablón	7	Julio	2023-07-26T00:00:00	2024-11-06T10:00:00	2	Temperatura media	17.7
168074	7	Sololá	701	Sololá	2	El tablón	7	Julio	2023-07-26T00:00:00	2024-11-06T10:00:00	4	Temperatura máxima	17.7
168075	7	Sololá	701	Sololá	2	El tablón	7	Julio	2023-07-26T00:00:00	2024-11-06T10:00:00	3	Temperatura mínima	15.9
168076	7	Sololá	701	Sololá	2	El tablón	7	Julio	2023-07-26T00:00:00	2024-11-06T10:00:00	5	Humedad	62
168077	7	Sololá	701	Sololá	2	El tablón	7	Julio	2023-07-26T00:00:00	2024-11-06T10:00:00	6	Velocidad del viento	16.1
168078	7	Sololá	701	Sololá	2	El tablón	7	Julio	2023-07-26T00:00:00	2024-11-06T10:00:00	7	Dirección del viento	16.09
168079	7	Sololá	701	Sololá	2	El tablón	7	Julio	2023-07-26T00:00:00	2024-11-06T10:00:00	1	Precipitación	0
168080	7	Sololá	701	Sololá	2	El tablón	7	Julio	2023-07-26T00:00:00	2024-11-06T10:00:00	8	Radiación solar	704
168081	7	Sololá	701	Sololá	2	El tablón	7	Julio	2023-07-26T00:00:00	2024-11-06T11:00:00	2	Temperatura media	19.2
168082	7	Sololá	701	Sololá	2	El tablón	7	Julio	2023-07-26T00:00:00	2024-11-06T11:00:00	4	Temperatura máxima	19.2
168083	7	Sololá	701	Sololá	2	El tablón	7	Julio	2023-07-26T00:00:00	2024-11-06T11:00:00	3	Temperatura mínima	17.7
168084	7	Sololá	701	Sololá	2	El tablón	7	Julio	2023-07-26T00:00:00	2024-11-06T11:00:00	5	Humedad	62
168085	7	Sololá	701	Sololá	2	El tablón	7	Julio	2023-07-26T00:00:00	2024-11-06T11:00:00	6	Velocidad del viento	16.1
168086	7	Sololá	701	Sololá	2	El tablón	7	Julio	2023-07-26T00:00:00	2024-11-06T11:00:00	7	Dirección del viento	16.09
168087	7	Sololá	701	Sololá	2	El tablón	7	Julio	2023-07-26T00:00:00	2024-11-06T11:00:00	1	Precipitación	0
168088	7	Sololá	701	Sololá	2	El tablón	7	Julio	2023-07-26T00:00:00	2024-11-06T11:00:00	8	Radiación solar	846
168089	7	Sololá	701	Sololá	2	El tablón	7	Julio	2023-07-26T00:00:00	2024-11-06T12:00:00	2	Temperatura media	19.3
168090	7	Sololá	701	Sololá	2	El tablón	7	Julio	2023-07-26T00:00:00	2024-11-06T12:00:00	4	Temperatura máxima	19.6
168091	7	Sololá	701	Sololá	2	El tablón	7	Julio	2023-07-26T00:00:00	2024-11-06T12:00:00	3	Temperatura mínima	19.1
168092	7	Sololá	701	Sololá	2	El tablón	7	Julio	2023-07-26T00:00:00	2024-11-06T12:00:00	5	Humedad	59
168093	7	Sololá	701	Sololá	2	El tablón	7	Julio	2023-07-26T00:00:00	2024-11-06T12:00:00	6	Velocidad del viento	14.5
168094	7	Sololá	701	Sololá	2	El tablón	7	Julio	2023-07-26T00:00:00	2024-11-06T12:00:00	7	Dirección del viento	14.48
168095	7	Sololá	701	Sololá	2	El tablón	7	Julio	2023-07-26T00:00:00	2024-11-06T12:00:00	1	Precipitación	0
168096	7	Sololá	701	Sololá	2	El tablón	7	Julio	2023-07-26T00:00:00	2024-11-06T12:00:00	8	Radiación solar	925
168097	7	Sololá	701	Sololá	2	El tablón	7	Julio	2023-07-26T00:00:00	2024-11-06T13:00:00	2	Temperatura media	19.7
168098	7	Sololá	701	Sololá	2	El tablón	7	Julio	2023-07-26T00:00:00	2024-11-06T13:00:00	4	Temperatura máxima	20.3
168099	7	Sololá	701	Sololá	2	El tablón	7	Julio	2023-07-26T00:00:00	2024-11-06T13:00:00	3	Temperatura mínima	19.3
168100	7	Sololá	701	Sololá	2	El tablón	7	Julio	2023-07-26T00:00:00	2024-11-06T13:00:00	5	Humedad	59
168101	7	Sololá	701	Sololá	2	El tablón	7	Julio	2023-07-26T00:00:00	2024-11-06T13:00:00	6	Velocidad del viento	12.9
168102	7	Sololá	701	Sololá	2	El tablón	7	Julio	2023-07-26T00:00:00	2024-11-06T13:00:00	7	Dirección del viento	12.87
168103	7	Sololá	701	Sololá	2	El tablón	7	Julio	2023-07-26T00:00:00	2024-11-06T13:00:00	1	Precipitación	0
168104	7	Sololá	701	Sololá	2	El tablón	7	Julio	2023-07-26T00:00:00	2024-11-06T13:00:00	8	Radiación solar	941
168105	7	Sololá	701	Sololá	2	El tablón	7	Julio	2023-07-26T00:00:00	2024-11-06T14:00:00	2	Temperatura media	19.6
168106	7	Sololá	701	Sololá	2	El tablón	7	Julio	2023-07-26T00:00:00	2024-11-06T14:00:00	4	Temperatura máxima	19.9
168107	7	Sololá	701	Sololá	2	El tablón	7	Julio	2023-07-26T00:00:00	2024-11-06T14:00:00	3	Temperatura mínima	19.3
168108	7	Sololá	701	Sololá	2	El tablón	7	Julio	2023-07-26T00:00:00	2024-11-06T14:00:00	5	Humedad	63
168109	7	Sololá	701	Sololá	2	El tablón	7	Julio	2023-07-26T00:00:00	2024-11-06T14:00:00	6	Velocidad del viento	14.5
168110	7	Sololá	701	Sololá	2	El tablón	7	Julio	2023-07-26T00:00:00	2024-11-06T14:00:00	7	Dirección del viento	14.48
168111	7	Sololá	701	Sololá	2	El tablón	7	Julio	2023-07-26T00:00:00	2024-11-06T14:00:00	1	Precipitación	0
168112	7	Sololá	701	Sololá	2	El tablón	7	Julio	2023-07-26T00:00:00	2024-11-06T14:00:00	8	Radiación solar	898
168113	7	Sololá	701	Sololá	2	El tablón	7	Julio	2023-07-26T00:00:00	2024-11-06T15:00:00	2	Temperatura media	19.3
168114	7	Sololá	701	Sololá	2	El tablón	7	Julio	2023-07-26T00:00:00	2024-11-06T15:00:00	4	Temperatura máxima	19.8
168115	7	Sololá	701	Sololá	2	El tablón	7	Julio	2023-07-26T00:00:00	2024-11-06T15:00:00	3	Temperatura mínima	19.1
168116	7	Sololá	701	Sololá	2	El tablón	7	Julio	2023-07-26T00:00:00	2024-11-06T15:00:00	5	Humedad	69
168117	7	Sololá	701	Sololá	2	El tablón	7	Julio	2023-07-26T00:00:00	2024-11-06T15:00:00	6	Velocidad del viento	14.5
168118	7	Sololá	701	Sololá	2	El tablón	7	Julio	2023-07-26T00:00:00	2024-11-06T15:00:00	7	Dirección del viento	14.48
168119	7	Sololá	701	Sololá	2	El tablón	7	Julio	2023-07-26T00:00:00	2024-11-06T15:00:00	1	Precipitación	0
168120	7	Sololá	701	Sololá	2	El tablón	7	Julio	2023-07-26T00:00:00	2024-11-06T15:00:00	8	Radiación solar	807
168121	7	Sololá	701	Sololá	2	El tablón	7	Julio	2023-07-26T00:00:00	2024-11-06T16:00:00	2	Temperatura media	18.7
168122	7	Sololá	701	Sololá	2	El tablón	7	Julio	2023-07-26T00:00:00	2024-11-06T16:00:00	4	Temperatura máxima	19.7
168123	7	Sololá	701	Sololá	2	El tablón	7	Julio	2023-07-26T00:00:00	2024-11-06T16:00:00	3	Temperatura mínima	18.2
168124	7	Sololá	701	Sololá	2	El tablón	7	Julio	2023-07-26T00:00:00	2024-11-06T16:00:00	5	Humedad	71
168125	7	Sololá	701	Sololá	2	El tablón	7	Julio	2023-07-26T00:00:00	2024-11-06T16:00:00	6	Velocidad del viento	14.5
168126	7	Sololá	701	Sololá	2	El tablón	7	Julio	2023-07-26T00:00:00	2024-11-06T16:00:00	7	Dirección del viento	14.48
168127	7	Sololá	701	Sololá	2	El tablón	7	Julio	2023-07-26T00:00:00	2024-11-06T16:00:00	1	Precipitación	0
168128	7	Sololá	701	Sololá	2	El tablón	7	Julio	2023-07-26T00:00:00	2024-11-06T16:00:00	8	Radiación solar	634
168129	7	Sololá	701	Sololá	2	El tablón	7	Julio	2023-07-26T00:00:00	2024-11-06T17:00:00	2	Temperatura media	17.1
168130	7	Sololá	701	Sololá	2	El tablón	7	Julio	2023-07-26T00:00:00	2024-11-06T17:00:00	4	Temperatura máxima	18.8
168131	7	Sololá	701	Sololá	2	El tablón	7	Julio	2023-07-26T00:00:00	2024-11-06T17:00:00	3	Temperatura mínima	16.9
168132	7	Sololá	701	Sololá	2	El tablón	7	Julio	2023-07-26T00:00:00	2024-11-06T17:00:00	5	Humedad	73
168133	7	Sololá	701	Sololá	2	El tablón	7	Julio	2023-07-26T00:00:00	2024-11-06T17:00:00	6	Velocidad del viento	16.1
168134	7	Sololá	701	Sololá	2	El tablón	7	Julio	2023-07-26T00:00:00	2024-11-06T17:00:00	7	Dirección del viento	16.09
168135	7	Sololá	701	Sololá	2	El tablón	7	Julio	2023-07-26T00:00:00	2024-11-06T17:00:00	1	Precipitación	0
168136	7	Sololá	701	Sololá	2	El tablón	7	Julio	2023-07-26T00:00:00	2024-11-06T17:00:00	8	Radiación solar	409
168137	7	Sololá	701	Sololá	2	El tablón	7	Julio	2023-07-26T00:00:00	2024-11-06T18:00:00	2	Temperatura media	16
168138	7	Sololá	701	Sololá	2	El tablón	7	Julio	2023-07-26T00:00:00	2024-11-06T18:00:00	4	Temperatura máxima	17.3
168139	7	Sololá	701	Sololá	2	El tablón	7	Julio	2023-07-26T00:00:00	2024-11-06T18:00:00	3	Temperatura mínima	16
168140	7	Sololá	701	Sololá	2	El tablón	7	Julio	2023-07-26T00:00:00	2024-11-06T18:00:00	5	Humedad	77
168141	7	Sololá	701	Sololá	2	El tablón	7	Julio	2023-07-26T00:00:00	2024-11-06T18:00:00	6	Velocidad del viento	12.9
168142	7	Sololá	701	Sololá	2	El tablón	7	Julio	2023-07-26T00:00:00	2024-11-06T18:00:00	7	Dirección del viento	12.87
168143	7	Sololá	701	Sololá	2	El tablón	7	Julio	2023-07-26T00:00:00	2024-11-06T18:00:00	1	Precipitación	0
168144	7	Sololá	701	Sololá	2	El tablón	7	Julio	2023-07-26T00:00:00	2024-11-06T18:00:00	8	Radiación solar	195
168145	7	Sololá	701	Sololá	2	El tablón	7	Julio	2023-07-26T00:00:00	2024-11-06T19:00:00	2	Temperatura media	14.7
168146	7	Sololá	701	Sololá	2	El tablón	7	Julio	2023-07-26T00:00:00	2024-11-06T19:00:00	4	Temperatura máxima	16
168147	7	Sololá	701	Sololá	2	El tablón	7	Julio	2023-07-26T00:00:00	2024-11-06T19:00:00	3	Temperatura mínima	14.7
168148	7	Sololá	701	Sololá	2	El tablón	7	Julio	2023-07-26T00:00:00	2024-11-06T19:00:00	5	Humedad	82
168149	7	Sololá	701	Sololá	2	El tablón	7	Julio	2023-07-26T00:00:00	2024-11-06T19:00:00	6	Velocidad del viento	11.3
168150	7	Sololá	701	Sololá	2	El tablón	7	Julio	2023-07-26T00:00:00	2024-11-06T19:00:00	7	Dirección del viento	11.27
168151	7	Sololá	701	Sololá	2	El tablón	7	Julio	2023-07-26T00:00:00	2024-11-06T19:00:00	1	Precipitación	0
168152	7	Sololá	701	Sololá	2	El tablón	7	Julio	2023-07-26T00:00:00	2024-11-06T19:00:00	8	Radiación solar	0
168153	7	Sololá	701	Sololá	2	El tablón	7	Julio	2023-07-26T00:00:00	2024-11-06T20:00:00	2	Temperatura media	14.1
168154	7	Sololá	701	Sololá	2	El tablón	7	Julio	2023-07-26T00:00:00	2024-11-06T20:00:00	4	Temperatura máxima	14.7
168155	7	Sololá	701	Sololá	2	El tablón	7	Julio	2023-07-26T00:00:00	2024-11-06T20:00:00	3	Temperatura mínima	14.1
168156	7	Sololá	701	Sololá	2	El tablón	7	Julio	2023-07-26T00:00:00	2024-11-06T20:00:00	5	Humedad	83
168157	7	Sololá	701	Sololá	2	El tablón	7	Julio	2023-07-26T00:00:00	2024-11-06T20:00:00	6	Velocidad del viento	11.3
168158	7	Sololá	701	Sololá	2	El tablón	7	Julio	2023-07-26T00:00:00	2024-11-06T20:00:00	7	Dirección del viento	11.27
168159	7	Sololá	701	Sololá	2	El tablón	7	Julio	2023-07-26T00:00:00	2024-11-06T20:00:00	1	Precipitación	0
168160	7	Sololá	701	Sololá	2	El tablón	7	Julio	2023-07-26T00:00:00	2024-11-06T20:00:00	8	Radiación solar	0
168161	7	Sololá	701	Sololá	2	El tablón	7	Julio	2023-07-26T00:00:00	2024-11-06T21:00:00	2	Temperatura media	13.8
168162	7	Sololá	701	Sololá	2	El tablón	7	Julio	2023-07-26T00:00:00	2024-11-06T21:00:00	4	Temperatura máxima	14.1
168163	7	Sololá	701	Sololá	2	El tablón	7	Julio	2023-07-26T00:00:00	2024-11-06T21:00:00	3	Temperatura mínima	13.7
168164	7	Sololá	701	Sololá	2	El tablón	7	Julio	2023-07-26T00:00:00	2024-11-06T21:00:00	5	Humedad	84
168165	7	Sololá	701	Sololá	2	El tablón	7	Julio	2023-07-26T00:00:00	2024-11-06T21:00:00	6	Velocidad del viento	12.9
168166	7	Sololá	701	Sololá	2	El tablón	7	Julio	2023-07-26T00:00:00	2024-11-06T21:00:00	7	Dirección del viento	12.87
168167	7	Sololá	701	Sololá	2	El tablón	7	Julio	2023-07-26T00:00:00	2024-11-06T21:00:00	1	Precipitación	0
168168	7	Sololá	701	Sololá	2	El tablón	7	Julio	2023-07-26T00:00:00	2024-11-06T21:00:00	8	Radiación solar	0
168169	7	Sololá	701	Sololá	2	El tablón	7	Julio	2023-07-26T00:00:00	2024-11-06T22:00:00	2	Temperatura media	13.6
168170	7	Sololá	701	Sololá	2	El tablón	7	Julio	2023-07-26T00:00:00	2024-11-06T22:00:00	4	Temperatura máxima	13.8
168171	7	Sololá	701	Sololá	2	El tablón	7	Julio	2023-07-26T00:00:00	2024-11-06T22:00:00	3	Temperatura mínima	13.6
168172	7	Sololá	701	Sololá	2	El tablón	7	Julio	2023-07-26T00:00:00	2024-11-06T22:00:00	5	Humedad	85
168173	7	Sololá	701	Sololá	2	El tablón	7	Julio	2023-07-26T00:00:00	2024-11-06T22:00:00	6	Velocidad del viento	11.3
168174	7	Sololá	701	Sololá	2	El tablón	7	Julio	2023-07-26T00:00:00	2024-11-06T22:00:00	7	Dirección del viento	11.27
168175	7	Sololá	701	Sololá	2	El tablón	7	Julio	2023-07-26T00:00:00	2024-11-06T22:00:00	1	Precipitación	0
168176	7	Sololá	701	Sololá	2	El tablón	7	Julio	2023-07-26T00:00:00	2024-11-06T22:00:00	8	Radiación solar	0
168177	7	Sololá	701	Sololá	2	El tablón	7	Julio	2023-07-26T00:00:00	2024-11-06T23:00:00	2	Temperatura media	13.4
168178	7	Sololá	701	Sololá	2	El tablón	7	Julio	2023-07-26T00:00:00	2024-11-06T23:00:00	4	Temperatura máxima	13.7
168179	7	Sololá	701	Sololá	2	El tablón	7	Julio	2023-07-26T00:00:00	2024-11-06T23:00:00	3	Temperatura mínima	13.4
168180	7	Sololá	701	Sololá	2	El tablón	7	Julio	2023-07-26T00:00:00	2024-11-06T23:00:00	5	Humedad	86
168181	7	Sololá	701	Sololá	2	El tablón	7	Julio	2023-07-26T00:00:00	2024-11-06T23:00:00	6	Velocidad del viento	11.3
168182	7	Sololá	701	Sololá	2	El tablón	7	Julio	2023-07-26T00:00:00	2024-11-06T23:00:00	7	Dirección del viento	11.27
168183	7	Sololá	701	Sololá	2	El tablón	7	Julio	2023-07-26T00:00:00	2024-11-06T23:00:00	1	Precipitación	0
168184	7	Sololá	701	Sololá	2	El tablón	7	Julio	2023-07-26T00:00:00	2024-11-06T23:00:00	8	Radiación solar	0
168185	7	Sololá	701	Sololá	2	El tablón	7	Julio	2023-07-27T00:00:00	2024-11-06T00:00:00	2	Temperatura media	13.2
168186	7	Sololá	701	Sololá	2	El tablón	7	Julio	2023-07-27T00:00:00	2024-11-06T00:00:00	4	Temperatura máxima	13.4
168187	7	Sololá	701	Sololá	2	El tablón	7	Julio	2023-07-27T00:00:00	2024-11-06T00:00:00	3	Temperatura mínima	13.2
168188	7	Sololá	701	Sololá	2	El tablón	7	Julio	2023-07-27T00:00:00	2024-11-06T00:00:00	5	Humedad	86
168189	7	Sololá	701	Sololá	2	El tablón	7	Julio	2023-07-27T00:00:00	2024-11-06T00:00:00	6	Velocidad del viento	11.3
168190	7	Sololá	701	Sololá	2	El tablón	7	Julio	2023-07-27T00:00:00	2024-11-06T00:00:00	7	Dirección del viento	11.27
168191	7	Sololá	701	Sololá	2	El tablón	7	Julio	2023-07-27T00:00:00	2024-11-06T00:00:00	1	Precipitación	0
168192	7	Sololá	701	Sololá	2	El tablón	7	Julio	2023-07-27T00:00:00	2024-11-06T00:00:00	8	Radiación solar	0
168193	7	Sololá	701	Sololá	2	El tablón	7	Julio	2023-07-27T00:00:00	2024-11-06T01:00:00	2	Temperatura media	13.2
168194	7	Sololá	701	Sololá	2	El tablón	7	Julio	2023-07-27T00:00:00	2024-11-06T01:00:00	4	Temperatura máxima	13.2
168195	7	Sololá	701	Sololá	2	El tablón	7	Julio	2023-07-27T00:00:00	2024-11-06T01:00:00	3	Temperatura mínima	13.1
168196	7	Sololá	701	Sololá	2	El tablón	7	Julio	2023-07-27T00:00:00	2024-11-06T01:00:00	5	Humedad	86
168197	7	Sololá	701	Sololá	2	El tablón	7	Julio	2023-07-27T00:00:00	2024-11-06T01:00:00	6	Velocidad del viento	14.5
168198	7	Sololá	701	Sololá	2	El tablón	7	Julio	2023-07-27T00:00:00	2024-11-06T01:00:00	7	Dirección del viento	14.48
168199	7	Sololá	701	Sololá	2	El tablón	7	Julio	2023-07-27T00:00:00	2024-11-06T01:00:00	1	Precipitación	0
168200	7	Sololá	701	Sololá	2	El tablón	7	Julio	2023-07-27T00:00:00	2024-11-06T01:00:00	8	Radiación solar	0
168201	7	Sololá	701	Sololá	2	El tablón	7	Julio	2023-07-27T00:00:00	2024-11-06T02:00:00	2	Temperatura media	12.8
168202	7	Sololá	701	Sololá	2	El tablón	7	Julio	2023-07-27T00:00:00	2024-11-06T02:00:00	4	Temperatura máxima	13.2
168203	7	Sololá	701	Sololá	2	El tablón	7	Julio	2023-07-27T00:00:00	2024-11-06T02:00:00	3	Temperatura mínima	12.8
168204	7	Sololá	701	Sololá	2	El tablón	7	Julio	2023-07-27T00:00:00	2024-11-06T02:00:00	5	Humedad	86
168205	7	Sololá	701	Sololá	2	El tablón	7	Julio	2023-07-27T00:00:00	2024-11-06T02:00:00	6	Velocidad del viento	14.5
168206	7	Sololá	701	Sololá	2	El tablón	7	Julio	2023-07-27T00:00:00	2024-11-06T02:00:00	7	Dirección del viento	14.48
168207	7	Sololá	701	Sololá	2	El tablón	7	Julio	2023-07-27T00:00:00	2024-11-06T02:00:00	1	Precipitación	0
168208	7	Sololá	701	Sololá	2	El tablón	7	Julio	2023-07-27T00:00:00	2024-11-06T02:00:00	8	Radiación solar	0
168209	7	Sololá	701	Sololá	2	El tablón	7	Julio	2023-07-27T00:00:00	2024-11-06T03:00:00	2	Temperatura media	12.3
168210	7	Sololá	701	Sololá	2	El tablón	7	Julio	2023-07-27T00:00:00	2024-11-06T03:00:00	4	Temperatura máxima	12.8
168211	7	Sololá	701	Sololá	2	El tablón	7	Julio	2023-07-27T00:00:00	2024-11-06T03:00:00	3	Temperatura mínima	12.2
168212	7	Sololá	701	Sololá	2	El tablón	7	Julio	2023-07-27T00:00:00	2024-11-06T03:00:00	5	Humedad	86
168213	7	Sololá	701	Sololá	2	El tablón	7	Julio	2023-07-27T00:00:00	2024-11-06T03:00:00	6	Velocidad del viento	11.3
168214	7	Sololá	701	Sololá	2	El tablón	7	Julio	2023-07-27T00:00:00	2024-11-06T03:00:00	7	Dirección del viento	11.27
168215	7	Sololá	701	Sololá	2	El tablón	7	Julio	2023-07-27T00:00:00	2024-11-06T03:00:00	1	Precipitación	0
168216	7	Sololá	701	Sololá	2	El tablón	7	Julio	2023-07-27T00:00:00	2024-11-06T03:00:00	8	Radiación solar	0
168217	7	Sololá	701	Sololá	2	El tablón	7	Julio	2023-07-27T00:00:00	2024-11-06T04:00:00	2	Temperatura media	12
168218	7	Sololá	701	Sololá	2	El tablón	7	Julio	2023-07-27T00:00:00	2024-11-06T04:00:00	4	Temperatura máxima	12.4
168219	7	Sololá	701	Sololá	2	El tablón	7	Julio	2023-07-27T00:00:00	2024-11-06T04:00:00	3	Temperatura mínima	12
168220	7	Sololá	701	Sololá	2	El tablón	7	Julio	2023-07-27T00:00:00	2024-11-06T04:00:00	5	Humedad	87
168221	7	Sololá	701	Sololá	2	El tablón	7	Julio	2023-07-27T00:00:00	2024-11-06T04:00:00	6	Velocidad del viento	8
168222	7	Sololá	701	Sololá	2	El tablón	7	Julio	2023-07-27T00:00:00	2024-11-06T04:00:00	7	Dirección del viento	8.05
168223	7	Sololá	701	Sololá	2	El tablón	7	Julio	2023-07-27T00:00:00	2024-11-06T04:00:00	1	Precipitación	0
168224	7	Sololá	701	Sololá	2	El tablón	7	Julio	2023-07-27T00:00:00	2024-11-06T04:00:00	8	Radiación solar	0
168225	7	Sololá	701	Sololá	2	El tablón	7	Julio	2023-07-27T00:00:00	2024-11-06T05:00:00	2	Temperatura media	12.2
168226	7	Sololá	701	Sololá	2	El tablón	7	Julio	2023-07-27T00:00:00	2024-11-06T05:00:00	4	Temperatura máxima	12.2
168227	7	Sololá	701	Sololá	2	El tablón	7	Julio	2023-07-27T00:00:00	2024-11-06T05:00:00	3	Temperatura mínima	11.9
168228	7	Sololá	701	Sololá	2	El tablón	7	Julio	2023-07-27T00:00:00	2024-11-06T05:00:00	5	Humedad	84
168229	7	Sololá	701	Sololá	2	El tablón	7	Julio	2023-07-27T00:00:00	2024-11-06T05:00:00	6	Velocidad del viento	8
168230	7	Sololá	701	Sololá	2	El tablón	7	Julio	2023-07-27T00:00:00	2024-11-06T05:00:00	7	Dirección del viento	8.05
168231	7	Sololá	701	Sololá	2	El tablón	7	Julio	2023-07-27T00:00:00	2024-11-06T05:00:00	1	Precipitación	0
168232	7	Sololá	701	Sololá	2	El tablón	7	Julio	2023-07-27T00:00:00	2024-11-06T05:00:00	8	Radiación solar	0
168233	7	Sololá	701	Sololá	2	El tablón	7	Julio	2023-07-27T00:00:00	2024-11-06T06:00:00	2	Temperatura media	12.1
168234	7	Sololá	701	Sololá	2	El tablón	7	Julio	2023-07-27T00:00:00	2024-11-06T06:00:00	4	Temperatura máxima	12.2
168235	7	Sololá	701	Sololá	2	El tablón	7	Julio	2023-07-27T00:00:00	2024-11-06T06:00:00	3	Temperatura mínima	11.9
168236	7	Sololá	701	Sololá	2	El tablón	7	Julio	2023-07-27T00:00:00	2024-11-06T06:00:00	5	Humedad	86
168237	7	Sololá	701	Sololá	2	El tablón	7	Julio	2023-07-27T00:00:00	2024-11-06T06:00:00	6	Velocidad del viento	8
168238	7	Sololá	701	Sololá	2	El tablón	7	Julio	2023-07-27T00:00:00	2024-11-06T06:00:00	7	Dirección del viento	8.05
168239	7	Sololá	701	Sololá	2	El tablón	7	Julio	2023-07-27T00:00:00	2024-11-06T06:00:00	1	Precipitación	0
168240	7	Sololá	701	Sololá	2	El tablón	7	Julio	2023-07-27T00:00:00	2024-11-06T06:00:00	8	Radiación solar	1
168241	7	Sololá	701	Sololá	2	El tablón	7	Julio	2023-07-27T00:00:00	2024-11-06T07:00:00	2	Temperatura media	14.1
168242	7	Sololá	701	Sololá	2	El tablón	7	Julio	2023-07-27T00:00:00	2024-11-06T07:00:00	4	Temperatura máxima	14.1
168243	7	Sololá	701	Sololá	2	El tablón	7	Julio	2023-07-27T00:00:00	2024-11-06T07:00:00	3	Temperatura mínima	12.1
168244	7	Sololá	701	Sololá	2	El tablón	7	Julio	2023-07-27T00:00:00	2024-11-06T07:00:00	5	Humedad	78
168245	7	Sololá	701	Sololá	2	El tablón	7	Julio	2023-07-27T00:00:00	2024-11-06T07:00:00	6	Velocidad del viento	6.4
168246	7	Sololá	701	Sololá	2	El tablón	7	Julio	2023-07-27T00:00:00	2024-11-06T07:00:00	7	Dirección del viento	6.44
168247	7	Sololá	701	Sololá	2	El tablón	7	Julio	2023-07-27T00:00:00	2024-11-06T07:00:00	1	Precipitación	0
168248	7	Sololá	701	Sololá	2	El tablón	7	Julio	2023-07-27T00:00:00	2024-11-06T07:00:00	8	Radiación solar	91
168249	7	Sololá	701	Sololá	2	El tablón	7	Julio	2023-07-27T00:00:00	2024-11-06T08:00:00	2	Temperatura media	15.9
168250	7	Sololá	701	Sololá	2	El tablón	7	Julio	2023-07-27T00:00:00	2024-11-06T08:00:00	4	Temperatura máxima	15.9
168251	7	Sololá	701	Sololá	2	El tablón	7	Julio	2023-07-27T00:00:00	2024-11-06T08:00:00	3	Temperatura mínima	14.1
168252	7	Sololá	701	Sololá	2	El tablón	7	Julio	2023-07-27T00:00:00	2024-11-06T08:00:00	5	Humedad	76
168253	7	Sololá	701	Sololá	2	El tablón	7	Julio	2023-07-27T00:00:00	2024-11-06T08:00:00	6	Velocidad del viento	8
168254	7	Sololá	701	Sololá	2	El tablón	7	Julio	2023-07-27T00:00:00	2024-11-06T08:00:00	7	Dirección del viento	8.05
168255	7	Sololá	701	Sololá	2	El tablón	7	Julio	2023-07-27T00:00:00	2024-11-06T08:00:00	1	Precipitación	0
168256	7	Sololá	701	Sololá	2	El tablón	7	Julio	2023-07-27T00:00:00	2024-11-06T08:00:00	8	Radiación solar	308
168257	7	Sololá	701	Sololá	2	El tablón	7	Julio	2023-07-27T00:00:00	2024-11-06T09:00:00	2	Temperatura media	16.8
168258	7	Sololá	701	Sololá	2	El tablón	7	Julio	2023-07-27T00:00:00	2024-11-06T09:00:00	4	Temperatura máxima	16.8
168259	7	Sololá	701	Sololá	2	El tablón	7	Julio	2023-07-27T00:00:00	2024-11-06T09:00:00	3	Temperatura mínima	15.9
168260	7	Sololá	701	Sololá	2	El tablón	7	Julio	2023-07-27T00:00:00	2024-11-06T09:00:00	5	Humedad	74
168261	7	Sololá	701	Sololá	2	El tablón	7	Julio	2023-07-27T00:00:00	2024-11-06T09:00:00	6	Velocidad del viento	11.3
168262	7	Sololá	701	Sololá	2	El tablón	7	Julio	2023-07-27T00:00:00	2024-11-06T09:00:00	7	Dirección del viento	11.27
168263	7	Sololá	701	Sololá	2	El tablón	7	Julio	2023-07-27T00:00:00	2024-11-06T09:00:00	1	Precipitación	0
168264	7	Sololá	701	Sololá	2	El tablón	7	Julio	2023-07-27T00:00:00	2024-11-06T09:00:00	8	Radiación solar	517
168265	7	Sololá	701	Sololá	2	El tablón	7	Julio	2023-07-27T00:00:00	2024-11-06T10:00:00	2	Temperatura media	17.6
168266	7	Sololá	701	Sololá	2	El tablón	7	Julio	2023-07-27T00:00:00	2024-11-06T10:00:00	4	Temperatura máxima	17.6
168267	7	Sololá	701	Sololá	2	El tablón	7	Julio	2023-07-27T00:00:00	2024-11-06T10:00:00	3	Temperatura mínima	16.5
168268	7	Sololá	701	Sololá	2	El tablón	7	Julio	2023-07-27T00:00:00	2024-11-06T10:00:00	5	Humedad	74
168269	7	Sololá	701	Sololá	2	El tablón	7	Julio	2023-07-27T00:00:00	2024-11-06T10:00:00	6	Velocidad del viento	12.9
168270	7	Sololá	701	Sololá	2	El tablón	7	Julio	2023-07-27T00:00:00	2024-11-06T10:00:00	7	Dirección del viento	12.87
168271	7	Sololá	701	Sololá	2	El tablón	7	Julio	2023-07-27T00:00:00	2024-11-06T10:00:00	1	Precipitación	0
168272	7	Sololá	701	Sololá	2	El tablón	7	Julio	2023-07-27T00:00:00	2024-11-06T10:00:00	8	Radiación solar	702
168273	7	Sololá	701	Sololá	2	El tablón	7	Julio	2023-07-27T00:00:00	2024-11-06T11:00:00	2	Temperatura media	18.3
168274	7	Sololá	701	Sololá	2	El tablón	7	Julio	2023-07-27T00:00:00	2024-11-06T11:00:00	4	Temperatura máxima	18.6
168275	7	Sololá	701	Sololá	2	El tablón	7	Julio	2023-07-27T00:00:00	2024-11-06T11:00:00	3	Temperatura mínima	17.5
168276	7	Sololá	701	Sololá	2	El tablón	7	Julio	2023-07-27T00:00:00	2024-11-06T11:00:00	5	Humedad	71
168277	7	Sololá	701	Sololá	2	El tablón	7	Julio	2023-07-27T00:00:00	2024-11-06T11:00:00	6	Velocidad del viento	14.5
168278	7	Sololá	701	Sololá	2	El tablón	7	Julio	2023-07-27T00:00:00	2024-11-06T11:00:00	7	Dirección del viento	14.48
168279	7	Sololá	701	Sololá	2	El tablón	7	Julio	2023-07-27T00:00:00	2024-11-06T11:00:00	1	Precipitación	0
168280	7	Sololá	701	Sololá	2	El tablón	7	Julio	2023-07-27T00:00:00	2024-11-06T11:00:00	8	Radiación solar	843
168281	7	Sololá	701	Sololá	2	El tablón	7	Julio	2023-07-27T00:00:00	2024-11-06T12:00:00	2	Temperatura media	18.9
168282	7	Sololá	701	Sololá	2	El tablón	7	Julio	2023-07-27T00:00:00	2024-11-06T12:00:00	4	Temperatura máxima	19.1
168283	7	Sololá	701	Sololá	2	El tablón	7	Julio	2023-07-27T00:00:00	2024-11-06T12:00:00	3	Temperatura mínima	18.2
168284	7	Sololá	701	Sololá	2	El tablón	7	Julio	2023-07-27T00:00:00	2024-11-06T12:00:00	5	Humedad	70
168285	7	Sololá	701	Sololá	2	El tablón	7	Julio	2023-07-27T00:00:00	2024-11-06T12:00:00	6	Velocidad del viento	14.5
168286	7	Sololá	701	Sololá	2	El tablón	7	Julio	2023-07-27T00:00:00	2024-11-06T12:00:00	7	Dirección del viento	14.48
168287	7	Sololá	701	Sololá	2	El tablón	7	Julio	2023-07-27T00:00:00	2024-11-06T12:00:00	1	Precipitación	0
168288	7	Sololá	701	Sololá	2	El tablón	7	Julio	2023-07-27T00:00:00	2024-11-06T12:00:00	8	Radiación solar	936
168289	7	Sololá	701	Sololá	2	El tablón	7	Julio	2023-07-27T00:00:00	2024-11-06T13:00:00	2	Temperatura media	19.7
168290	7	Sololá	701	Sololá	2	El tablón	7	Julio	2023-07-27T00:00:00	2024-11-06T13:00:00	4	Temperatura máxima	20.1
168291	7	Sololá	701	Sololá	2	El tablón	7	Julio	2023-07-27T00:00:00	2024-11-06T13:00:00	3	Temperatura mínima	18.9
168292	7	Sololá	701	Sololá	2	El tablón	7	Julio	2023-07-27T00:00:00	2024-11-06T13:00:00	5	Humedad	66
168293	7	Sololá	701	Sololá	2	El tablón	7	Julio	2023-07-27T00:00:00	2024-11-06T13:00:00	6	Velocidad del viento	11.3
168294	7	Sololá	701	Sololá	2	El tablón	7	Julio	2023-07-27T00:00:00	2024-11-06T13:00:00	7	Dirección del viento	11.27
168295	7	Sololá	701	Sololá	2	El tablón	7	Julio	2023-07-27T00:00:00	2024-11-06T13:00:00	1	Precipitación	0
168296	7	Sololá	701	Sololá	2	El tablón	7	Julio	2023-07-27T00:00:00	2024-11-06T13:00:00	8	Radiación solar	959
168297	7	Sololá	701	Sololá	2	El tablón	7	Julio	2023-07-27T00:00:00	2024-11-06T14:00:00	2	Temperatura media	20.3
168298	7	Sololá	701	Sololá	2	El tablón	7	Julio	2023-07-27T00:00:00	2024-11-06T14:00:00	4	Temperatura máxima	20.3
168299	7	Sololá	701	Sololá	2	El tablón	7	Julio	2023-07-27T00:00:00	2024-11-06T14:00:00	3	Temperatura mínima	19.6
168300	7	Sololá	701	Sololá	2	El tablón	7	Julio	2023-07-27T00:00:00	2024-11-06T14:00:00	5	Humedad	63
168301	7	Sololá	701	Sololá	2	El tablón	7	Julio	2023-07-27T00:00:00	2024-11-06T14:00:00	6	Velocidad del viento	9.7
168302	7	Sololá	701	Sololá	2	El tablón	7	Julio	2023-07-27T00:00:00	2024-11-06T14:00:00	7	Dirección del viento	9.66
168303	7	Sololá	701	Sololá	2	El tablón	7	Julio	2023-07-27T00:00:00	2024-11-06T14:00:00	1	Precipitación	0
168304	7	Sololá	701	Sololá	2	El tablón	7	Julio	2023-07-27T00:00:00	2024-11-06T14:00:00	8	Radiación solar	898
168305	7	Sololá	701	Sololá	2	El tablón	7	Julio	2023-07-27T00:00:00	2024-11-06T15:00:00	2	Temperatura media	19.4
168306	7	Sololá	701	Sololá	2	El tablón	7	Julio	2023-07-27T00:00:00	2024-11-06T15:00:00	4	Temperatura máxima	20.4
168307	7	Sololá	701	Sololá	2	El tablón	7	Julio	2023-07-27T00:00:00	2024-11-06T15:00:00	3	Temperatura mínima	19.4
168308	7	Sololá	701	Sololá	2	El tablón	7	Julio	2023-07-27T00:00:00	2024-11-06T15:00:00	5	Humedad	58
168309	7	Sololá	701	Sololá	2	El tablón	7	Julio	2023-07-27T00:00:00	2024-11-06T15:00:00	6	Velocidad del viento	11.3
168310	7	Sololá	701	Sololá	2	El tablón	7	Julio	2023-07-27T00:00:00	2024-11-06T15:00:00	7	Dirección del viento	11.27
168311	7	Sololá	701	Sololá	2	El tablón	7	Julio	2023-07-27T00:00:00	2024-11-06T15:00:00	1	Precipitación	0
168312	7	Sololá	701	Sololá	2	El tablón	7	Julio	2023-07-27T00:00:00	2024-11-06T15:00:00	8	Radiación solar	759
168313	7	Sololá	701	Sololá	2	El tablón	7	Julio	2023-07-27T00:00:00	2024-11-06T16:00:00	2	Temperatura media	18.9
168314	7	Sololá	701	Sololá	2	El tablón	7	Julio	2023-07-27T00:00:00	2024-11-06T16:00:00	4	Temperatura máxima	20.3
168315	7	Sololá	701	Sololá	2	El tablón	7	Julio	2023-07-27T00:00:00	2024-11-06T16:00:00	3	Temperatura mínima	18.9
168316	7	Sololá	701	Sololá	2	El tablón	7	Julio	2023-07-27T00:00:00	2024-11-06T16:00:00	5	Humedad	65
168317	7	Sololá	701	Sololá	2	El tablón	7	Julio	2023-07-27T00:00:00	2024-11-06T16:00:00	6	Velocidad del viento	9.7
168318	7	Sololá	701	Sololá	2	El tablón	7	Julio	2023-07-27T00:00:00	2024-11-06T16:00:00	7	Dirección del viento	9.66
168319	7	Sololá	701	Sololá	2	El tablón	7	Julio	2023-07-27T00:00:00	2024-11-06T16:00:00	1	Precipitación	0
168320	7	Sololá	701	Sololá	2	El tablón	7	Julio	2023-07-27T00:00:00	2024-11-06T16:00:00	8	Radiación solar	558
168321	7	Sololá	701	Sololá	2	El tablón	7	Julio	2023-07-27T00:00:00	2024-11-06T17:00:00	2	Temperatura media	19.2
168322	7	Sololá	701	Sololá	2	El tablón	7	Julio	2023-07-27T00:00:00	2024-11-06T17:00:00	4	Temperatura máxima	20.1
168323	7	Sololá	701	Sololá	2	El tablón	7	Julio	2023-07-27T00:00:00	2024-11-06T17:00:00	3	Temperatura mínima	18.8
168324	7	Sololá	701	Sololá	2	El tablón	7	Julio	2023-07-27T00:00:00	2024-11-06T17:00:00	5	Humedad	63
168325	7	Sololá	701	Sololá	2	El tablón	7	Julio	2023-07-27T00:00:00	2024-11-06T17:00:00	6	Velocidad del viento	9.7
168326	7	Sololá	701	Sololá	2	El tablón	7	Julio	2023-07-27T00:00:00	2024-11-06T17:00:00	7	Dirección del viento	9.66
168327	7	Sololá	701	Sololá	2	El tablón	7	Julio	2023-07-27T00:00:00	2024-11-06T17:00:00	1	Precipitación	0
168328	7	Sololá	701	Sololá	2	El tablón	7	Julio	2023-07-27T00:00:00	2024-11-06T17:00:00	8	Radiación solar	432
168329	7	Sololá	701	Sololá	2	El tablón	7	Julio	2023-07-27T00:00:00	2024-11-06T18:00:00	2	Temperatura media	18.2
168330	7	Sololá	701	Sololá	2	El tablón	7	Julio	2023-07-27T00:00:00	2024-11-06T18:00:00	4	Temperatura máxima	19.2
168331	7	Sololá	701	Sololá	2	El tablón	7	Julio	2023-07-27T00:00:00	2024-11-06T18:00:00	3	Temperatura mínima	18.2
168332	7	Sololá	701	Sololá	2	El tablón	7	Julio	2023-07-27T00:00:00	2024-11-06T18:00:00	5	Humedad	72
168333	7	Sololá	701	Sololá	2	El tablón	7	Julio	2023-07-27T00:00:00	2024-11-06T18:00:00	6	Velocidad del viento	8
168334	7	Sololá	701	Sololá	2	El tablón	7	Julio	2023-07-27T00:00:00	2024-11-06T18:00:00	7	Dirección del viento	8.05
168335	7	Sololá	701	Sololá	2	El tablón	7	Julio	2023-07-27T00:00:00	2024-11-06T18:00:00	1	Precipitación	0
168336	7	Sololá	701	Sololá	2	El tablón	7	Julio	2023-07-27T00:00:00	2024-11-06T18:00:00	8	Radiación solar	252
168337	7	Sololá	701	Sololá	2	El tablón	7	Julio	2023-07-27T00:00:00	2024-11-06T19:00:00	2	Temperatura media	16.4
168338	7	Sololá	701	Sololá	2	El tablón	7	Julio	2023-07-27T00:00:00	2024-11-06T19:00:00	4	Temperatura máxima	18.2
168339	7	Sololá	701	Sololá	2	El tablón	7	Julio	2023-07-27T00:00:00	2024-11-06T19:00:00	3	Temperatura mínima	16.4
168340	7	Sololá	701	Sololá	2	El tablón	7	Julio	2023-07-27T00:00:00	2024-11-06T19:00:00	5	Humedad	81
168341	7	Sololá	701	Sololá	2	El tablón	7	Julio	2023-07-27T00:00:00	2024-11-06T19:00:00	6	Velocidad del viento	4.8
168342	7	Sololá	701	Sololá	2	El tablón	7	Julio	2023-07-27T00:00:00	2024-11-06T19:00:00	7	Dirección del viento	4.83
168343	7	Sololá	701	Sololá	2	El tablón	7	Julio	2023-07-27T00:00:00	2024-11-06T19:00:00	1	Precipitación	0
168344	7	Sololá	701	Sololá	2	El tablón	7	Julio	2023-07-27T00:00:00	2024-11-06T19:00:00	8	Radiación solar	0
168345	7	Sololá	701	Sololá	2	El tablón	7	Julio	2023-07-27T00:00:00	2024-11-06T20:00:00	2	Temperatura media	15.3
168346	7	Sololá	701	Sololá	2	El tablón	7	Julio	2023-07-27T00:00:00	2024-11-06T20:00:00	4	Temperatura máxima	16.4
168347	7	Sololá	701	Sololá	2	El tablón	7	Julio	2023-07-27T00:00:00	2024-11-06T20:00:00	3	Temperatura mínima	15.3
168348	7	Sololá	701	Sololá	2	El tablón	7	Julio	2023-07-27T00:00:00	2024-11-06T20:00:00	5	Humedad	83
168349	7	Sololá	701	Sololá	2	El tablón	7	Julio	2023-07-27T00:00:00	2024-11-06T20:00:00	6	Velocidad del viento	6.4
168350	7	Sololá	701	Sololá	2	El tablón	7	Julio	2023-07-27T00:00:00	2024-11-06T20:00:00	7	Dirección del viento	6.44
168351	7	Sololá	701	Sololá	2	El tablón	7	Julio	2023-07-27T00:00:00	2024-11-06T20:00:00	1	Precipitación	0
168352	7	Sololá	701	Sololá	2	El tablón	7	Julio	2023-07-27T00:00:00	2024-11-06T20:00:00	8	Radiación solar	0
168353	7	Sololá	701	Sololá	2	El tablón	7	Julio	2023-07-27T00:00:00	2024-11-06T21:00:00	2	Temperatura media	14.7
168354	7	Sololá	701	Sololá	2	El tablón	7	Julio	2023-07-27T00:00:00	2024-11-06T21:00:00	4	Temperatura máxima	15.3
168355	7	Sololá	701	Sololá	2	El tablón	7	Julio	2023-07-27T00:00:00	2024-11-06T21:00:00	3	Temperatura mínima	14.7
168356	7	Sololá	701	Sololá	2	El tablón	7	Julio	2023-07-27T00:00:00	2024-11-06T21:00:00	5	Humedad	85
168357	7	Sololá	701	Sololá	2	El tablón	7	Julio	2023-07-27T00:00:00	2024-11-06T21:00:00	6	Velocidad del viento	12.9
168358	7	Sololá	701	Sololá	2	El tablón	7	Julio	2023-07-27T00:00:00	2024-11-06T21:00:00	7	Dirección del viento	12.87
168359	7	Sololá	701	Sololá	2	El tablón	7	Julio	2023-07-27T00:00:00	2024-11-06T21:00:00	1	Precipitación	0
168360	7	Sololá	701	Sololá	2	El tablón	7	Julio	2023-07-27T00:00:00	2024-11-06T21:00:00	8	Radiación solar	0
168361	7	Sololá	701	Sololá	2	El tablón	7	Julio	2023-07-27T00:00:00	2024-11-06T22:00:00	2	Temperatura media	14.1
168362	7	Sololá	701	Sololá	2	El tablón	7	Julio	2023-07-27T00:00:00	2024-11-06T22:00:00	4	Temperatura máxima	14.8
168363	7	Sololá	701	Sololá	2	El tablón	7	Julio	2023-07-27T00:00:00	2024-11-06T22:00:00	3	Temperatura mínima	14.1
168364	7	Sololá	701	Sololá	2	El tablón	7	Julio	2023-07-27T00:00:00	2024-11-06T22:00:00	5	Humedad	86
168365	7	Sololá	701	Sololá	2	El tablón	7	Julio	2023-07-27T00:00:00	2024-11-06T22:00:00	6	Velocidad del viento	11.3
168366	7	Sololá	701	Sololá	2	El tablón	7	Julio	2023-07-27T00:00:00	2024-11-06T22:00:00	7	Dirección del viento	11.27
168367	7	Sololá	701	Sololá	2	El tablón	7	Julio	2023-07-27T00:00:00	2024-11-06T22:00:00	1	Precipitación	0
168368	7	Sololá	701	Sololá	2	El tablón	7	Julio	2023-07-27T00:00:00	2024-11-06T22:00:00	8	Radiación solar	0
168369	7	Sololá	701	Sololá	2	El tablón	7	Julio	2023-07-27T00:00:00	2024-11-06T23:00:00	2	Temperatura media	13.6
168370	7	Sololá	701	Sololá	2	El tablón	7	Julio	2023-07-27T00:00:00	2024-11-06T23:00:00	4	Temperatura máxima	14.1
168371	7	Sololá	701	Sololá	2	El tablón	7	Julio	2023-07-27T00:00:00	2024-11-06T23:00:00	3	Temperatura mínima	13.6
168372	7	Sololá	701	Sololá	2	El tablón	7	Julio	2023-07-27T00:00:00	2024-11-06T23:00:00	5	Humedad	88
168373	7	Sololá	701	Sololá	2	El tablón	7	Julio	2023-07-27T00:00:00	2024-11-06T23:00:00	6	Velocidad del viento	14.5
168374	7	Sololá	701	Sololá	2	El tablón	7	Julio	2023-07-27T00:00:00	2024-11-06T23:00:00	7	Dirección del viento	14.48
168375	7	Sololá	701	Sololá	2	El tablón	7	Julio	2023-07-27T00:00:00	2024-11-06T23:00:00	1	Precipitación	0
168376	7	Sololá	701	Sololá	2	El tablón	7	Julio	2023-07-27T00:00:00	2024-11-06T23:00:00	8	Radiación solar	0
168377	7	Sololá	701	Sololá	2	El tablón	7	Julio	2023-07-28T00:00:00	2024-11-06T00:00:00	2	Temperatura media	13.7
168378	7	Sololá	701	Sololá	2	El tablón	7	Julio	2023-07-28T00:00:00	2024-11-06T00:00:00	4	Temperatura máxima	13.7
168379	7	Sololá	701	Sololá	2	El tablón	7	Julio	2023-07-28T00:00:00	2024-11-06T00:00:00	3	Temperatura mínima	13.6
168380	7	Sololá	701	Sololá	2	El tablón	7	Julio	2023-07-28T00:00:00	2024-11-06T00:00:00	5	Humedad	86
168381	7	Sololá	701	Sololá	2	El tablón	7	Julio	2023-07-28T00:00:00	2024-11-06T00:00:00	6	Velocidad del viento	12.9
168382	7	Sololá	701	Sololá	2	El tablón	7	Julio	2023-07-28T00:00:00	2024-11-06T00:00:00	7	Dirección del viento	12.87
168383	7	Sololá	701	Sololá	2	El tablón	7	Julio	2023-07-28T00:00:00	2024-11-06T00:00:00	1	Precipitación	0
168384	7	Sololá	701	Sololá	2	El tablón	7	Julio	2023-07-28T00:00:00	2024-11-06T00:00:00	8	Radiación solar	0
168385	7	Sololá	701	Sololá	2	El tablón	7	Julio	2023-07-28T00:00:00	2024-11-06T01:00:00	2	Temperatura media	13.6
168386	7	Sololá	701	Sololá	2	El tablón	7	Julio	2023-07-28T00:00:00	2024-11-06T01:00:00	4	Temperatura máxima	13.8
168387	7	Sololá	701	Sololá	2	El tablón	7	Julio	2023-07-28T00:00:00	2024-11-06T01:00:00	3	Temperatura mínima	13.6
168388	7	Sololá	701	Sololá	2	El tablón	7	Julio	2023-07-28T00:00:00	2024-11-06T01:00:00	5	Humedad	85
168389	7	Sololá	701	Sololá	2	El tablón	7	Julio	2023-07-28T00:00:00	2024-11-06T01:00:00	6	Velocidad del viento	14.5
168390	7	Sololá	701	Sololá	2	El tablón	7	Julio	2023-07-28T00:00:00	2024-11-06T01:00:00	7	Dirección del viento	14.48
168391	7	Sololá	701	Sololá	2	El tablón	7	Julio	2023-07-28T00:00:00	2024-11-06T01:00:00	1	Precipitación	0
168392	7	Sololá	701	Sololá	2	El tablón	7	Julio	2023-07-28T00:00:00	2024-11-06T01:00:00	8	Radiación solar	0
168393	7	Sololá	701	Sololá	2	El tablón	7	Julio	2023-07-28T00:00:00	2024-11-06T02:00:00	2	Temperatura media	13.4
168394	7	Sololá	701	Sololá	2	El tablón	7	Julio	2023-07-28T00:00:00	2024-11-06T02:00:00	4	Temperatura máxima	13.6
168395	7	Sololá	701	Sololá	2	El tablón	7	Julio	2023-07-28T00:00:00	2024-11-06T02:00:00	3	Temperatura mínima	13.3
168396	7	Sololá	701	Sololá	2	El tablón	7	Julio	2023-07-28T00:00:00	2024-11-06T02:00:00	5	Humedad	85
168397	7	Sololá	701	Sololá	2	El tablón	7	Julio	2023-07-28T00:00:00	2024-11-06T02:00:00	6	Velocidad del viento	14.5
168398	7	Sololá	701	Sololá	2	El tablón	7	Julio	2023-07-28T00:00:00	2024-11-06T02:00:00	7	Dirección del viento	14.48
168399	7	Sololá	701	Sololá	2	El tablón	7	Julio	2023-07-28T00:00:00	2024-11-06T02:00:00	1	Precipitación	0
168400	7	Sololá	701	Sololá	2	El tablón	7	Julio	2023-07-28T00:00:00	2024-11-06T02:00:00	8	Radiación solar	0
168401	7	Sololá	701	Sololá	2	El tablón	7	Julio	2023-07-28T00:00:00	2024-11-06T03:00:00	2	Temperatura media	13.3
168402	7	Sololá	701	Sololá	2	El tablón	7	Julio	2023-07-28T00:00:00	2024-11-06T03:00:00	4	Temperatura máxima	13.4
168403	7	Sololá	701	Sololá	2	El tablón	7	Julio	2023-07-28T00:00:00	2024-11-06T03:00:00	3	Temperatura mínima	13.2
168404	7	Sololá	701	Sololá	2	El tablón	7	Julio	2023-07-28T00:00:00	2024-11-06T03:00:00	5	Humedad	86
168405	7	Sololá	701	Sololá	2	El tablón	7	Julio	2023-07-28T00:00:00	2024-11-06T03:00:00	6	Velocidad del viento	14.5
168406	7	Sololá	701	Sololá	2	El tablón	7	Julio	2023-07-28T00:00:00	2024-11-06T03:00:00	7	Dirección del viento	14.48
168407	7	Sololá	701	Sololá	2	El tablón	7	Julio	2023-07-28T00:00:00	2024-11-06T03:00:00	1	Precipitación	0
168408	7	Sololá	701	Sololá	2	El tablón	7	Julio	2023-07-28T00:00:00	2024-11-06T03:00:00	8	Radiación solar	0
168409	7	Sololá	701	Sololá	2	El tablón	7	Julio	2023-07-28T00:00:00	2024-11-06T04:00:00	2	Temperatura media	13.1
168410	7	Sololá	701	Sololá	2	El tablón	7	Julio	2023-07-28T00:00:00	2024-11-06T04:00:00	4	Temperatura máxima	13.3
168411	7	Sololá	701	Sololá	2	El tablón	7	Julio	2023-07-28T00:00:00	2024-11-06T04:00:00	3	Temperatura mínima	13.1
168412	7	Sololá	701	Sololá	2	El tablón	7	Julio	2023-07-28T00:00:00	2024-11-06T04:00:00	5	Humedad	87
168413	7	Sololá	701	Sololá	2	El tablón	7	Julio	2023-07-28T00:00:00	2024-11-06T04:00:00	6	Velocidad del viento	11.3
168414	7	Sololá	701	Sololá	2	El tablón	7	Julio	2023-07-28T00:00:00	2024-11-06T04:00:00	7	Dirección del viento	11.27
168415	7	Sololá	701	Sololá	2	El tablón	7	Julio	2023-07-28T00:00:00	2024-11-06T04:00:00	1	Precipitación	0
168416	7	Sololá	701	Sololá	2	El tablón	7	Julio	2023-07-28T00:00:00	2024-11-06T04:00:00	8	Radiación solar	0
168417	7	Sololá	701	Sololá	2	El tablón	7	Julio	2023-07-28T00:00:00	2024-11-06T05:00:00	2	Temperatura media	13.2
168418	7	Sololá	701	Sololá	2	El tablón	7	Julio	2023-07-28T00:00:00	2024-11-06T05:00:00	4	Temperatura máxima	13.2
168419	7	Sololá	701	Sololá	2	El tablón	7	Julio	2023-07-28T00:00:00	2024-11-06T05:00:00	3	Temperatura mínima	13.1
168420	7	Sololá	701	Sololá	2	El tablón	7	Julio	2023-07-28T00:00:00	2024-11-06T05:00:00	5	Humedad	87
168421	7	Sololá	701	Sololá	2	El tablón	7	Julio	2023-07-28T00:00:00	2024-11-06T05:00:00	6	Velocidad del viento	12.9
168422	7	Sololá	701	Sololá	2	El tablón	7	Julio	2023-07-28T00:00:00	2024-11-06T05:00:00	7	Dirección del viento	12.87
168423	7	Sololá	701	Sololá	2	El tablón	7	Julio	2023-07-28T00:00:00	2024-11-06T05:00:00	1	Precipitación	0
168424	7	Sololá	701	Sololá	2	El tablón	7	Julio	2023-07-28T00:00:00	2024-11-06T05:00:00	8	Radiación solar	0
168425	7	Sololá	701	Sololá	2	El tablón	7	Julio	2023-07-28T00:00:00	2024-11-06T06:00:00	2	Temperatura media	13.4
168426	7	Sololá	701	Sololá	2	El tablón	7	Julio	2023-07-28T00:00:00	2024-11-06T06:00:00	4	Temperatura máxima	13.4
168427	7	Sololá	701	Sololá	2	El tablón	7	Julio	2023-07-28T00:00:00	2024-11-06T06:00:00	3	Temperatura mínima	13.1
168428	7	Sololá	701	Sololá	2	El tablón	7	Julio	2023-07-28T00:00:00	2024-11-06T06:00:00	5	Humedad	86
168429	7	Sololá	701	Sololá	2	El tablón	7	Julio	2023-07-28T00:00:00	2024-11-06T06:00:00	6	Velocidad del viento	14.5
168430	7	Sololá	701	Sololá	2	El tablón	7	Julio	2023-07-28T00:00:00	2024-11-06T06:00:00	7	Dirección del viento	14.48
168431	7	Sololá	701	Sololá	2	El tablón	7	Julio	2023-07-28T00:00:00	2024-11-06T06:00:00	1	Precipitación	0
168432	7	Sololá	701	Sololá	2	El tablón	7	Julio	2023-07-28T00:00:00	2024-11-06T06:00:00	8	Radiación solar	0
168433	7	Sololá	701	Sololá	2	El tablón	7	Julio	2023-07-28T00:00:00	2024-11-06T07:00:00	2	Temperatura media	13.7
168434	7	Sololá	701	Sololá	2	El tablón	7	Julio	2023-07-28T00:00:00	2024-11-06T07:00:00	4	Temperatura máxima	13.9
168435	7	Sololá	701	Sololá	2	El tablón	7	Julio	2023-07-28T00:00:00	2024-11-06T07:00:00	3	Temperatura mínima	13.2
168436	7	Sololá	701	Sololá	2	El tablón	7	Julio	2023-07-28T00:00:00	2024-11-06T07:00:00	5	Humedad	87
168437	7	Sololá	701	Sololá	2	El tablón	7	Julio	2023-07-28T00:00:00	2024-11-06T07:00:00	6	Velocidad del viento	14.5
168438	7	Sololá	701	Sololá	2	El tablón	7	Julio	2023-07-28T00:00:00	2024-11-06T07:00:00	7	Dirección del viento	14.48
168439	7	Sololá	701	Sololá	2	El tablón	7	Julio	2023-07-28T00:00:00	2024-11-06T07:00:00	1	Precipitación	0
168440	7	Sololá	701	Sololá	2	El tablón	7	Julio	2023-07-28T00:00:00	2024-11-06T07:00:00	8	Radiación solar	74
168441	7	Sololá	701	Sololá	2	El tablón	7	Julio	2023-07-28T00:00:00	2024-11-06T08:00:00	2	Temperatura media	14.7
168442	7	Sololá	701	Sololá	2	El tablón	7	Julio	2023-07-28T00:00:00	2024-11-06T08:00:00	4	Temperatura máxima	14.7
168443	7	Sololá	701	Sololá	2	El tablón	7	Julio	2023-07-28T00:00:00	2024-11-06T08:00:00	3	Temperatura mínima	13.6
168444	7	Sololá	701	Sololá	2	El tablón	7	Julio	2023-07-28T00:00:00	2024-11-06T08:00:00	5	Humedad	82
168445	7	Sololá	701	Sololá	2	El tablón	7	Julio	2023-07-28T00:00:00	2024-11-06T08:00:00	6	Velocidad del viento	16.1
168446	7	Sololá	701	Sololá	2	El tablón	7	Julio	2023-07-28T00:00:00	2024-11-06T08:00:00	7	Dirección del viento	16.09
168447	7	Sololá	701	Sololá	2	El tablón	7	Julio	2023-07-28T00:00:00	2024-11-06T08:00:00	1	Precipitación	0
168448	7	Sololá	701	Sololá	2	El tablón	7	Julio	2023-07-28T00:00:00	2024-11-06T08:00:00	8	Radiación solar	324
168449	7	Sololá	701	Sololá	2	El tablón	7	Julio	2023-07-28T00:00:00	2024-11-06T09:00:00	2	Temperatura media	15.9
168450	7	Sololá	701	Sololá	2	El tablón	7	Julio	2023-07-28T00:00:00	2024-11-06T09:00:00	4	Temperatura máxima	16.1
168451	7	Sololá	701	Sololá	2	El tablón	7	Julio	2023-07-28T00:00:00	2024-11-06T09:00:00	3	Temperatura mínima	14.7
168452	7	Sololá	701	Sololá	2	El tablón	7	Julio	2023-07-28T00:00:00	2024-11-06T09:00:00	5	Humedad	76
168453	7	Sololá	701	Sololá	2	El tablón	7	Julio	2023-07-28T00:00:00	2024-11-06T09:00:00	6	Velocidad del viento	17.7
168454	7	Sololá	701	Sololá	2	El tablón	7	Julio	2023-07-28T00:00:00	2024-11-06T09:00:00	7	Dirección del viento	17.7
168455	7	Sololá	701	Sololá	2	El tablón	7	Julio	2023-07-28T00:00:00	2024-11-06T09:00:00	1	Precipitación	0
168456	7	Sololá	701	Sololá	2	El tablón	7	Julio	2023-07-28T00:00:00	2024-11-06T09:00:00	8	Radiación solar	538
168457	7	Sololá	701	Sololá	2	El tablón	7	Julio	2023-07-28T00:00:00	2024-11-06T10:00:00	2	Temperatura media	17.5
168458	7	Sololá	701	Sololá	2	El tablón	7	Julio	2023-07-28T00:00:00	2024-11-06T10:00:00	4	Temperatura máxima	17.5
168459	7	Sololá	701	Sololá	2	El tablón	7	Julio	2023-07-28T00:00:00	2024-11-06T10:00:00	3	Temperatura mínima	15.9
168460	7	Sololá	701	Sololá	2	El tablón	7	Julio	2023-07-28T00:00:00	2024-11-06T10:00:00	5	Humedad	70
168461	7	Sololá	701	Sololá	2	El tablón	7	Julio	2023-07-28T00:00:00	2024-11-06T10:00:00	6	Velocidad del viento	17.7
168462	7	Sololá	701	Sololá	2	El tablón	7	Julio	2023-07-28T00:00:00	2024-11-06T10:00:00	7	Dirección del viento	17.7
168463	7	Sololá	701	Sololá	2	El tablón	7	Julio	2023-07-28T00:00:00	2024-11-06T10:00:00	1	Precipitación	0
168464	7	Sololá	701	Sololá	2	El tablón	7	Julio	2023-07-28T00:00:00	2024-11-06T10:00:00	8	Radiación solar	710
168465	7	Sololá	701	Sololá	2	El tablón	7	Julio	2023-07-28T00:00:00	2024-11-06T11:00:00	2	Temperatura media	18.3
168466	7	Sololá	701	Sololá	2	El tablón	7	Julio	2023-07-28T00:00:00	2024-11-06T11:00:00	4	Temperatura máxima	18.6
168467	7	Sololá	701	Sololá	2	El tablón	7	Julio	2023-07-28T00:00:00	2024-11-06T11:00:00	3	Temperatura mínima	17.1
168468	7	Sololá	701	Sololá	2	El tablón	7	Julio	2023-07-28T00:00:00	2024-11-06T11:00:00	5	Humedad	70
168469	7	Sololá	701	Sololá	2	El tablón	7	Julio	2023-07-28T00:00:00	2024-11-06T11:00:00	6	Velocidad del viento	16.1
168470	7	Sololá	701	Sololá	2	El tablón	7	Julio	2023-07-28T00:00:00	2024-11-06T11:00:00	7	Dirección del viento	16.09
168471	7	Sololá	701	Sololá	2	El tablón	7	Julio	2023-07-28T00:00:00	2024-11-06T11:00:00	1	Precipitación	0
168472	7	Sololá	701	Sololá	2	El tablón	7	Julio	2023-07-28T00:00:00	2024-11-06T11:00:00	8	Radiación solar	846
168473	7	Sololá	701	Sololá	2	El tablón	7	Julio	2023-07-28T00:00:00	2024-11-06T12:00:00	2	Temperatura media	18.8
168474	7	Sololá	701	Sololá	2	El tablón	7	Julio	2023-07-28T00:00:00	2024-11-06T12:00:00	4	Temperatura máxima	19.3
168475	7	Sololá	701	Sololá	2	El tablón	7	Julio	2023-07-28T00:00:00	2024-11-06T12:00:00	3	Temperatura mínima	18.4
168476	7	Sololá	701	Sololá	2	El tablón	7	Julio	2023-07-28T00:00:00	2024-11-06T12:00:00	5	Humedad	69
168477	7	Sololá	701	Sololá	2	El tablón	7	Julio	2023-07-28T00:00:00	2024-11-06T12:00:00	6	Velocidad del viento	14.5
168478	7	Sololá	701	Sololá	2	El tablón	7	Julio	2023-07-28T00:00:00	2024-11-06T12:00:00	7	Dirección del viento	14.48
168479	7	Sololá	701	Sololá	2	El tablón	7	Julio	2023-07-28T00:00:00	2024-11-06T12:00:00	1	Precipitación	0
168480	7	Sololá	701	Sololá	2	El tablón	7	Julio	2023-07-28T00:00:00	2024-11-06T12:00:00	8	Radiación solar	947
168481	7	Sololá	701	Sololá	2	El tablón	7	Julio	2023-07-28T00:00:00	2024-11-06T13:00:00	2	Temperatura media	20
168482	7	Sololá	701	Sololá	2	El tablón	7	Julio	2023-07-28T00:00:00	2024-11-06T13:00:00	4	Temperatura máxima	20
168483	7	Sololá	701	Sololá	2	El tablón	7	Julio	2023-07-28T00:00:00	2024-11-06T13:00:00	3	Temperatura mínima	18.2
168484	7	Sololá	701	Sololá	2	El tablón	7	Julio	2023-07-28T00:00:00	2024-11-06T13:00:00	5	Humedad	67
168485	7	Sololá	701	Sololá	2	El tablón	7	Julio	2023-07-28T00:00:00	2024-11-06T13:00:00	6	Velocidad del viento	14.5
168486	7	Sololá	701	Sololá	2	El tablón	7	Julio	2023-07-28T00:00:00	2024-11-06T13:00:00	7	Dirección del viento	14.48
168487	7	Sololá	701	Sololá	2	El tablón	7	Julio	2023-07-28T00:00:00	2024-11-06T13:00:00	1	Precipitación	0
168488	7	Sololá	701	Sololá	2	El tablón	7	Julio	2023-07-28T00:00:00	2024-11-06T13:00:00	8	Radiación solar	936
168489	7	Sololá	701	Sololá	2	El tablón	7	Julio	2023-07-28T00:00:00	2024-11-06T14:00:00	2	Temperatura media	20.4
168490	7	Sololá	701	Sololá	2	El tablón	7	Julio	2023-07-28T00:00:00	2024-11-06T14:00:00	4	Temperatura máxima	20.6
168491	7	Sololá	701	Sololá	2	El tablón	7	Julio	2023-07-28T00:00:00	2024-11-06T14:00:00	3	Temperatura mínima	19.8
168492	7	Sololá	701	Sololá	2	El tablón	7	Julio	2023-07-28T00:00:00	2024-11-06T14:00:00	5	Humedad	60
168493	7	Sololá	701	Sololá	2	El tablón	7	Julio	2023-07-28T00:00:00	2024-11-06T14:00:00	6	Velocidad del viento	11.3
168494	7	Sololá	701	Sololá	2	El tablón	7	Julio	2023-07-28T00:00:00	2024-11-06T14:00:00	7	Dirección del viento	11.27
168495	7	Sololá	701	Sololá	2	El tablón	7	Julio	2023-07-28T00:00:00	2024-11-06T14:00:00	1	Precipitación	0
168496	7	Sololá	701	Sololá	2	El tablón	7	Julio	2023-07-28T00:00:00	2024-11-06T14:00:00	8	Radiación solar	894
168497	7	Sololá	701	Sololá	2	El tablón	7	Julio	2023-07-28T00:00:00	2024-11-06T15:00:00	2	Temperatura media	20
168498	7	Sololá	701	Sololá	2	El tablón	7	Julio	2023-07-28T00:00:00	2024-11-06T15:00:00	4	Temperatura máxima	20.4
168499	7	Sololá	701	Sololá	2	El tablón	7	Julio	2023-07-28T00:00:00	2024-11-06T15:00:00	3	Temperatura mínima	19.8
168500	7	Sololá	701	Sololá	2	El tablón	7	Julio	2023-07-28T00:00:00	2024-11-06T15:00:00	5	Humedad	63
168501	7	Sololá	701	Sololá	2	El tablón	7	Julio	2023-07-28T00:00:00	2024-11-06T15:00:00	6	Velocidad del viento	12.9
168502	7	Sololá	701	Sololá	2	El tablón	7	Julio	2023-07-28T00:00:00	2024-11-06T15:00:00	7	Dirección del viento	12.87
168503	7	Sololá	701	Sololá	2	El tablón	7	Julio	2023-07-28T00:00:00	2024-11-06T15:00:00	1	Precipitación	0
168504	7	Sololá	701	Sololá	2	El tablón	7	Julio	2023-07-28T00:00:00	2024-11-06T15:00:00	8	Radiación solar	764
168505	7	Sololá	701	Sololá	2	El tablón	7	Julio	2023-07-28T00:00:00	2024-11-06T16:00:00	2	Temperatura media	18.9
168506	7	Sololá	701	Sololá	2	El tablón	7	Julio	2023-07-28T00:00:00	2024-11-06T16:00:00	4	Temperatura máxima	20.3
168507	7	Sololá	701	Sololá	2	El tablón	7	Julio	2023-07-28T00:00:00	2024-11-06T16:00:00	3	Temperatura mínima	18.7
168508	7	Sololá	701	Sololá	2	El tablón	7	Julio	2023-07-28T00:00:00	2024-11-06T16:00:00	5	Humedad	70
168509	7	Sololá	701	Sololá	2	El tablón	7	Julio	2023-07-28T00:00:00	2024-11-06T16:00:00	6	Velocidad del viento	11.3
168510	7	Sololá	701	Sololá	2	El tablón	7	Julio	2023-07-28T00:00:00	2024-11-06T16:00:00	7	Dirección del viento	11.27
168511	7	Sololá	701	Sololá	2	El tablón	7	Julio	2023-07-28T00:00:00	2024-11-06T16:00:00	1	Precipitación	0
168512	7	Sololá	701	Sololá	2	El tablón	7	Julio	2023-07-28T00:00:00	2024-11-06T16:00:00	8	Radiación solar	453
168513	7	Sololá	701	Sololá	2	El tablón	7	Julio	2023-07-28T00:00:00	2024-11-06T17:00:00	2	Temperatura media	18.3
168514	7	Sololá	701	Sololá	2	El tablón	7	Julio	2023-07-28T00:00:00	2024-11-06T17:00:00	4	Temperatura máxima	19.8
168515	7	Sololá	701	Sololá	2	El tablón	7	Julio	2023-07-28T00:00:00	2024-11-06T17:00:00	3	Temperatura mínima	18.3
168516	7	Sololá	701	Sololá	2	El tablón	7	Julio	2023-07-28T00:00:00	2024-11-06T17:00:00	5	Humedad	74
168517	7	Sololá	701	Sololá	2	El tablón	7	Julio	2023-07-28T00:00:00	2024-11-06T17:00:00	6	Velocidad del viento	11.3
168518	7	Sololá	701	Sololá	2	El tablón	7	Julio	2023-07-28T00:00:00	2024-11-06T17:00:00	7	Dirección del viento	11.27
168519	7	Sololá	701	Sololá	2	El tablón	7	Julio	2023-07-28T00:00:00	2024-11-06T17:00:00	1	Precipitación	0
168520	7	Sololá	701	Sololá	2	El tablón	7	Julio	2023-07-28T00:00:00	2024-11-06T17:00:00	8	Radiación solar	355
168521	7	Sololá	701	Sololá	2	El tablón	7	Julio	2023-07-28T00:00:00	2024-11-06T18:00:00	2	Temperatura media	17.6
168522	7	Sololá	701	Sololá	2	El tablón	7	Julio	2023-07-28T00:00:00	2024-11-06T18:00:00	4	Temperatura máxima	18.3
168523	7	Sololá	701	Sololá	2	El tablón	7	Julio	2023-07-28T00:00:00	2024-11-06T18:00:00	3	Temperatura mínima	17.6
168524	7	Sololá	701	Sololá	2	El tablón	7	Julio	2023-07-28T00:00:00	2024-11-06T18:00:00	5	Humedad	79
168525	7	Sololá	701	Sololá	2	El tablón	7	Julio	2023-07-28T00:00:00	2024-11-06T18:00:00	6	Velocidad del viento	9.7
168526	7	Sololá	701	Sololá	2	El tablón	7	Julio	2023-07-28T00:00:00	2024-11-06T18:00:00	7	Dirección del viento	9.66
168527	7	Sololá	701	Sololá	2	El tablón	7	Julio	2023-07-28T00:00:00	2024-11-06T18:00:00	1	Precipitación	0
168528	7	Sololá	701	Sololá	2	El tablón	7	Julio	2023-07-28T00:00:00	2024-11-06T18:00:00	8	Radiación solar	123
168529	7	Sololá	701	Sololá	2	El tablón	7	Julio	2023-07-28T00:00:00	2024-11-06T19:00:00	2	Temperatura media	16.3
168530	7	Sololá	701	Sololá	2	El tablón	7	Julio	2023-07-28T00:00:00	2024-11-06T19:00:00	4	Temperatura máxima	17.6
168531	7	Sololá	701	Sololá	2	El tablón	7	Julio	2023-07-28T00:00:00	2024-11-06T19:00:00	3	Temperatura mínima	16.3
168532	7	Sololá	701	Sololá	2	El tablón	7	Julio	2023-07-28T00:00:00	2024-11-06T19:00:00	5	Humedad	86
168533	7	Sololá	701	Sololá	2	El tablón	7	Julio	2023-07-28T00:00:00	2024-11-06T19:00:00	6	Velocidad del viento	6.4
168534	7	Sololá	701	Sololá	2	El tablón	7	Julio	2023-07-28T00:00:00	2024-11-06T19:00:00	7	Dirección del viento	6.44
168535	7	Sololá	701	Sololá	2	El tablón	7	Julio	2023-07-28T00:00:00	2024-11-06T19:00:00	1	Precipitación	0.2
168536	7	Sololá	701	Sololá	2	El tablón	7	Julio	2023-07-28T00:00:00	2024-11-06T19:00:00	8	Radiación solar	0
168537	7	Sololá	701	Sololá	2	El tablón	7	Julio	2023-07-28T00:00:00	2024-11-06T20:00:00	2	Temperatura media	15.3
168538	7	Sololá	701	Sololá	2	El tablón	7	Julio	2023-07-28T00:00:00	2024-11-06T20:00:00	4	Temperatura máxima	16.3
168539	7	Sololá	701	Sololá	2	El tablón	7	Julio	2023-07-28T00:00:00	2024-11-06T20:00:00	3	Temperatura mínima	15.2
168540	7	Sololá	701	Sololá	2	El tablón	7	Julio	2023-07-28T00:00:00	2024-11-06T20:00:00	5	Humedad	87
168541	7	Sololá	701	Sololá	2	El tablón	7	Julio	2023-07-28T00:00:00	2024-11-06T20:00:00	6	Velocidad del viento	9.7
168542	7	Sololá	701	Sololá	2	El tablón	7	Julio	2023-07-28T00:00:00	2024-11-06T20:00:00	7	Dirección del viento	9.66
168543	7	Sololá	701	Sololá	2	El tablón	7	Julio	2023-07-28T00:00:00	2024-11-06T20:00:00	1	Precipitación	2.4
168544	7	Sololá	701	Sololá	2	El tablón	7	Julio	2023-07-28T00:00:00	2024-11-06T20:00:00	8	Radiación solar	0
168545	7	Sololá	701	Sololá	2	El tablón	7	Julio	2023-07-28T00:00:00	2024-11-06T21:00:00	2	Temperatura media	15.1
168546	7	Sololá	701	Sololá	2	El tablón	7	Julio	2023-07-28T00:00:00	2024-11-06T21:00:00	4	Temperatura máxima	15.3
168547	7	Sololá	701	Sololá	2	El tablón	7	Julio	2023-07-28T00:00:00	2024-11-06T21:00:00	3	Temperatura mínima	15.1
168548	7	Sololá	701	Sololá	2	El tablón	7	Julio	2023-07-28T00:00:00	2024-11-06T21:00:00	5	Humedad	88
168549	7	Sololá	701	Sololá	2	El tablón	7	Julio	2023-07-28T00:00:00	2024-11-06T21:00:00	6	Velocidad del viento	8
168550	7	Sololá	701	Sololá	2	El tablón	7	Julio	2023-07-28T00:00:00	2024-11-06T21:00:00	7	Dirección del viento	8.05
168551	7	Sololá	701	Sololá	2	El tablón	7	Julio	2023-07-28T00:00:00	2024-11-06T21:00:00	1	Precipitación	0
168552	7	Sololá	701	Sololá	2	El tablón	7	Julio	2023-07-28T00:00:00	2024-11-06T21:00:00	8	Radiación solar	0
168553	7	Sololá	701	Sololá	2	El tablón	7	Julio	2023-07-28T00:00:00	2024-11-06T22:00:00	2	Temperatura media	14.9
168554	7	Sololá	701	Sololá	2	El tablón	7	Julio	2023-07-28T00:00:00	2024-11-06T22:00:00	4	Temperatura máxima	15.2
168555	7	Sololá	701	Sololá	2	El tablón	7	Julio	2023-07-28T00:00:00	2024-11-06T22:00:00	3	Temperatura mínima	14.9
168556	7	Sololá	701	Sololá	2	El tablón	7	Julio	2023-07-28T00:00:00	2024-11-06T22:00:00	5	Humedad	88
168557	7	Sololá	701	Sololá	2	El tablón	7	Julio	2023-07-28T00:00:00	2024-11-06T22:00:00	6	Velocidad del viento	4.8
168558	7	Sololá	701	Sololá	2	El tablón	7	Julio	2023-07-28T00:00:00	2024-11-06T22:00:00	7	Dirección del viento	4.83
168559	7	Sololá	701	Sololá	2	El tablón	7	Julio	2023-07-28T00:00:00	2024-11-06T22:00:00	1	Precipitación	0
168560	7	Sololá	701	Sololá	2	El tablón	7	Julio	2023-07-28T00:00:00	2024-11-06T22:00:00	8	Radiación solar	0
168561	7	Sololá	701	Sololá	2	El tablón	7	Julio	2023-07-28T00:00:00	2024-11-06T23:00:00	2	Temperatura media	14.1
168562	7	Sololá	701	Sololá	2	El tablón	7	Julio	2023-07-28T00:00:00	2024-11-06T23:00:00	4	Temperatura máxima	14.9
168563	7	Sololá	701	Sololá	2	El tablón	7	Julio	2023-07-28T00:00:00	2024-11-06T23:00:00	3	Temperatura mínima	14.1
168564	7	Sololá	701	Sololá	2	El tablón	7	Julio	2023-07-28T00:00:00	2024-11-06T23:00:00	5	Humedad	87
168565	7	Sololá	701	Sololá	2	El tablón	7	Julio	2023-07-28T00:00:00	2024-11-06T23:00:00	6	Velocidad del viento	11.3
168566	7	Sololá	701	Sololá	2	El tablón	7	Julio	2023-07-28T00:00:00	2024-11-06T23:00:00	7	Dirección del viento	11.27
168567	7	Sololá	701	Sololá	2	El tablón	7	Julio	2023-07-28T00:00:00	2024-11-06T23:00:00	1	Precipitación	2.4
168568	7	Sololá	701	Sololá	2	El tablón	7	Julio	2023-07-28T00:00:00	2024-11-06T23:00:00	8	Radiación solar	0
168569	7	Sololá	701	Sololá	2	El tablón	7	Julio	2023-07-29T00:00:00	2024-11-06T00:00:00	2	Temperatura media	14
168570	7	Sololá	701	Sololá	2	El tablón	7	Julio	2023-07-29T00:00:00	2024-11-06T00:00:00	4	Temperatura máxima	14.2
168571	7	Sololá	701	Sololá	2	El tablón	7	Julio	2023-07-29T00:00:00	2024-11-06T00:00:00	3	Temperatura mínima	13.9
168572	7	Sololá	701	Sololá	2	El tablón	7	Julio	2023-07-29T00:00:00	2024-11-06T00:00:00	5	Humedad	83
168573	7	Sololá	701	Sololá	2	El tablón	7	Julio	2023-07-29T00:00:00	2024-11-06T00:00:00	6	Velocidad del viento	14.5
168574	7	Sololá	701	Sololá	2	El tablón	7	Julio	2023-07-29T00:00:00	2024-11-06T00:00:00	7	Dirección del viento	14.48
168575	7	Sololá	701	Sololá	2	El tablón	7	Julio	2023-07-29T00:00:00	2024-11-06T00:00:00	1	Precipitación	0
168576	7	Sololá	701	Sololá	2	El tablón	7	Julio	2023-07-29T00:00:00	2024-11-06T00:00:00	8	Radiación solar	0
168577	7	Sololá	701	Sololá	2	El tablón	7	Julio	2023-07-29T00:00:00	2024-11-06T01:00:00	2	Temperatura media	13.8
168578	7	Sololá	701	Sololá	2	El tablón	7	Julio	2023-07-29T00:00:00	2024-11-06T01:00:00	4	Temperatura máxima	14.1
168579	7	Sololá	701	Sololá	2	El tablón	7	Julio	2023-07-29T00:00:00	2024-11-06T01:00:00	3	Temperatura mínima	13.8
168580	7	Sololá	701	Sololá	2	El tablón	7	Julio	2023-07-29T00:00:00	2024-11-06T01:00:00	5	Humedad	87
168581	7	Sololá	701	Sololá	2	El tablón	7	Julio	2023-07-29T00:00:00	2024-11-06T01:00:00	6	Velocidad del viento	11.3
168582	7	Sololá	701	Sololá	2	El tablón	7	Julio	2023-07-29T00:00:00	2024-11-06T01:00:00	7	Dirección del viento	11.27
168583	7	Sololá	701	Sololá	2	El tablón	7	Julio	2023-07-29T00:00:00	2024-11-06T01:00:00	1	Precipitación	0
168584	7	Sololá	701	Sololá	2	El tablón	7	Julio	2023-07-29T00:00:00	2024-11-06T01:00:00	8	Radiación solar	0
168585	7	Sololá	701	Sololá	2	El tablón	7	Julio	2023-07-29T00:00:00	2024-11-06T02:00:00	2	Temperatura media	13.7
168586	7	Sololá	701	Sololá	2	El tablón	7	Julio	2023-07-29T00:00:00	2024-11-06T02:00:00	4	Temperatura máxima	13.8
168587	7	Sololá	701	Sololá	2	El tablón	7	Julio	2023-07-29T00:00:00	2024-11-06T02:00:00	3	Temperatura mínima	13.7
168588	7	Sololá	701	Sololá	2	El tablón	7	Julio	2023-07-29T00:00:00	2024-11-06T02:00:00	5	Humedad	88
168589	7	Sololá	701	Sololá	2	El tablón	7	Julio	2023-07-29T00:00:00	2024-11-06T02:00:00	6	Velocidad del viento	8
168590	7	Sololá	701	Sololá	2	El tablón	7	Julio	2023-07-29T00:00:00	2024-11-06T02:00:00	7	Dirección del viento	8.05
168591	7	Sololá	701	Sololá	2	El tablón	7	Julio	2023-07-29T00:00:00	2024-11-06T02:00:00	1	Precipitación	0
168592	7	Sololá	701	Sololá	2	El tablón	7	Julio	2023-07-29T00:00:00	2024-11-06T02:00:00	8	Radiación solar	0
168593	7	Sololá	701	Sololá	2	El tablón	7	Julio	2023-07-29T00:00:00	2024-11-06T03:00:00	2	Temperatura media	13.7
168594	7	Sololá	701	Sololá	2	El tablón	7	Julio	2023-07-29T00:00:00	2024-11-06T03:00:00	4	Temperatura máxima	13.8
168595	7	Sololá	701	Sololá	2	El tablón	7	Julio	2023-07-29T00:00:00	2024-11-06T03:00:00	3	Temperatura mínima	13.6
168596	7	Sololá	701	Sololá	2	El tablón	7	Julio	2023-07-29T00:00:00	2024-11-06T03:00:00	5	Humedad	88
168597	7	Sololá	701	Sololá	2	El tablón	7	Julio	2023-07-29T00:00:00	2024-11-06T03:00:00	6	Velocidad del viento	9.7
168598	7	Sololá	701	Sololá	2	El tablón	7	Julio	2023-07-29T00:00:00	2024-11-06T03:00:00	7	Dirección del viento	9.66
168599	7	Sololá	701	Sololá	2	El tablón	7	Julio	2023-07-29T00:00:00	2024-11-06T03:00:00	1	Precipitación	1.6
168600	7	Sololá	701	Sololá	2	El tablón	7	Julio	2023-07-29T00:00:00	2024-11-06T03:00:00	8	Radiación solar	0
168601	7	Sololá	701	Sololá	2	El tablón	7	Julio	2023-07-29T00:00:00	2024-11-06T04:00:00	2	Temperatura media	13.6
168602	7	Sololá	701	Sololá	2	El tablón	7	Julio	2023-07-29T00:00:00	2024-11-06T04:00:00	4	Temperatura máxima	13.7
168603	7	Sololá	701	Sololá	2	El tablón	7	Julio	2023-07-29T00:00:00	2024-11-06T04:00:00	3	Temperatura mínima	13.6
168604	7	Sololá	701	Sololá	2	El tablón	7	Julio	2023-07-29T00:00:00	2024-11-06T04:00:00	5	Humedad	88
168605	7	Sololá	701	Sololá	2	El tablón	7	Julio	2023-07-29T00:00:00	2024-11-06T04:00:00	6	Velocidad del viento	14.5
168606	7	Sololá	701	Sololá	2	El tablón	7	Julio	2023-07-29T00:00:00	2024-11-06T04:00:00	7	Dirección del viento	14.48
168607	7	Sololá	701	Sololá	2	El tablón	7	Julio	2023-07-29T00:00:00	2024-11-06T04:00:00	1	Precipitación	2.6
168608	7	Sololá	701	Sololá	2	El tablón	7	Julio	2023-07-29T00:00:00	2024-11-06T04:00:00	8	Radiación solar	0
168609	7	Sololá	701	Sololá	2	El tablón	7	Julio	2023-07-29T00:00:00	2024-11-06T05:00:00	2	Temperatura media	13.6
168610	7	Sololá	701	Sololá	2	El tablón	7	Julio	2023-07-29T00:00:00	2024-11-06T05:00:00	4	Temperatura máxima	13.6
168611	7	Sololá	701	Sololá	2	El tablón	7	Julio	2023-07-29T00:00:00	2024-11-06T05:00:00	3	Temperatura mínima	13.4
168612	7	Sololá	701	Sololá	2	El tablón	7	Julio	2023-07-29T00:00:00	2024-11-06T05:00:00	5	Humedad	88
168613	7	Sololá	701	Sololá	2	El tablón	7	Julio	2023-07-29T00:00:00	2024-11-06T05:00:00	6	Velocidad del viento	11.3
168614	7	Sololá	701	Sololá	2	El tablón	7	Julio	2023-07-29T00:00:00	2024-11-06T05:00:00	7	Dirección del viento	11.27
168615	7	Sololá	701	Sololá	2	El tablón	7	Julio	2023-07-29T00:00:00	2024-11-06T05:00:00	1	Precipitación	2.2
168616	7	Sololá	701	Sololá	2	El tablón	7	Julio	2023-07-29T00:00:00	2024-11-06T05:00:00	8	Radiación solar	0
168617	7	Sololá	701	Sololá	2	El tablón	7	Julio	2023-07-29T00:00:00	2024-11-06T06:00:00	2	Temperatura media	13.6
168618	7	Sololá	701	Sololá	2	El tablón	7	Julio	2023-07-29T00:00:00	2024-11-06T06:00:00	4	Temperatura máxima	13.7
168619	7	Sololá	701	Sololá	2	El tablón	7	Julio	2023-07-29T00:00:00	2024-11-06T06:00:00	3	Temperatura mínima	13.5
168620	7	Sololá	701	Sololá	2	El tablón	7	Julio	2023-07-29T00:00:00	2024-11-06T06:00:00	5	Humedad	88
168621	7	Sololá	701	Sololá	2	El tablón	7	Julio	2023-07-29T00:00:00	2024-11-06T06:00:00	6	Velocidad del viento	11.3
168622	7	Sololá	701	Sololá	2	El tablón	7	Julio	2023-07-29T00:00:00	2024-11-06T06:00:00	7	Dirección del viento	11.27
168623	7	Sololá	701	Sololá	2	El tablón	7	Julio	2023-07-29T00:00:00	2024-11-06T06:00:00	1	Precipitación	1.2
168624	7	Sololá	701	Sololá	2	El tablón	7	Julio	2023-07-29T00:00:00	2024-11-06T06:00:00	8	Radiación solar	0
168625	7	Sololá	701	Sololá	2	El tablón	7	Julio	2023-07-29T00:00:00	2024-11-06T07:00:00	2	Temperatura media	13.7
168626	7	Sololá	701	Sololá	2	El tablón	7	Julio	2023-07-29T00:00:00	2024-11-06T07:00:00	4	Temperatura máxima	13.7
168627	7	Sololá	701	Sololá	2	El tablón	7	Julio	2023-07-29T00:00:00	2024-11-06T07:00:00	3	Temperatura mínima	13.5
168628	7	Sololá	701	Sololá	2	El tablón	7	Julio	2023-07-29T00:00:00	2024-11-06T07:00:00	5	Humedad	88
168629	7	Sololá	701	Sololá	2	El tablón	7	Julio	2023-07-29T00:00:00	2024-11-06T07:00:00	6	Velocidad del viento	12.9
168630	7	Sololá	701	Sololá	2	El tablón	7	Julio	2023-07-29T00:00:00	2024-11-06T07:00:00	7	Dirección del viento	12.87
168631	7	Sololá	701	Sololá	2	El tablón	7	Julio	2023-07-29T00:00:00	2024-11-06T07:00:00	1	Precipitación	0.6
168632	7	Sololá	701	Sololá	2	El tablón	7	Julio	2023-07-29T00:00:00	2024-11-06T07:00:00	8	Radiación solar	42
168633	7	Sololá	701	Sololá	2	El tablón	7	Julio	2023-07-29T00:00:00	2024-11-06T08:00:00	2	Temperatura media	14.1
168634	7	Sololá	701	Sololá	2	El tablón	7	Julio	2023-07-29T00:00:00	2024-11-06T08:00:00	4	Temperatura máxima	14.1
168635	7	Sololá	701	Sololá	2	El tablón	7	Julio	2023-07-29T00:00:00	2024-11-06T08:00:00	3	Temperatura mínima	13.7
168636	7	Sololá	701	Sololá	2	El tablón	7	Julio	2023-07-29T00:00:00	2024-11-06T08:00:00	5	Humedad	88
168637	7	Sololá	701	Sololá	2	El tablón	7	Julio	2023-07-29T00:00:00	2024-11-06T08:00:00	6	Velocidad del viento	12.9
168638	7	Sololá	701	Sololá	2	El tablón	7	Julio	2023-07-29T00:00:00	2024-11-06T08:00:00	7	Dirección del viento	12.87
168639	7	Sololá	701	Sololá	2	El tablón	7	Julio	2023-07-29T00:00:00	2024-11-06T08:00:00	1	Precipitación	0
168640	7	Sololá	701	Sololá	2	El tablón	7	Julio	2023-07-29T00:00:00	2024-11-06T08:00:00	8	Radiación solar	116
168641	7	Sololá	701	Sololá	2	El tablón	7	Julio	2023-07-29T00:00:00	2024-11-06T09:00:00	2	Temperatura media	14.4
168642	7	Sololá	701	Sololá	2	El tablón	7	Julio	2023-07-29T00:00:00	2024-11-06T09:00:00	4	Temperatura máxima	14.4
168643	7	Sololá	701	Sololá	2	El tablón	7	Julio	2023-07-29T00:00:00	2024-11-06T09:00:00	3	Temperatura mínima	14.1
168644	7	Sololá	701	Sololá	2	El tablón	7	Julio	2023-07-29T00:00:00	2024-11-06T09:00:00	5	Humedad	88
168645	7	Sololá	701	Sololá	2	El tablón	7	Julio	2023-07-29T00:00:00	2024-11-06T09:00:00	6	Velocidad del viento	9.7
168646	7	Sololá	701	Sololá	2	El tablón	7	Julio	2023-07-29T00:00:00	2024-11-06T09:00:00	7	Dirección del viento	9.66
168647	7	Sololá	701	Sololá	2	El tablón	7	Julio	2023-07-29T00:00:00	2024-11-06T09:00:00	1	Precipitación	0
168648	7	Sololá	701	Sololá	2	El tablón	7	Julio	2023-07-29T00:00:00	2024-11-06T09:00:00	8	Radiación solar	225
168649	7	Sololá	701	Sololá	2	El tablón	7	Julio	2023-07-29T00:00:00	2024-11-06T10:00:00	2	Temperatura media	14.8
168650	7	Sololá	701	Sololá	2	El tablón	7	Julio	2023-07-29T00:00:00	2024-11-06T10:00:00	4	Temperatura máxima	15.1
168651	7	Sololá	701	Sololá	2	El tablón	7	Julio	2023-07-29T00:00:00	2024-11-06T10:00:00	3	Temperatura mínima	14.4
168652	7	Sololá	701	Sololá	2	El tablón	7	Julio	2023-07-29T00:00:00	2024-11-06T10:00:00	5	Humedad	88
168653	7	Sololá	701	Sololá	2	El tablón	7	Julio	2023-07-29T00:00:00	2024-11-06T10:00:00	6	Velocidad del viento	9.7
168654	7	Sololá	701	Sololá	2	El tablón	7	Julio	2023-07-29T00:00:00	2024-11-06T10:00:00	7	Dirección del viento	9.66
168655	7	Sololá	701	Sololá	2	El tablón	7	Julio	2023-07-29T00:00:00	2024-11-06T10:00:00	1	Precipitación	0.2
168656	7	Sololá	701	Sololá	2	El tablón	7	Julio	2023-07-29T00:00:00	2024-11-06T10:00:00	8	Radiación solar	273
168657	7	Sololá	701	Sololá	2	El tablón	7	Julio	2023-07-29T00:00:00	2024-11-06T11:00:00	2	Temperatura media	15.3
168658	7	Sololá	701	Sololá	2	El tablón	7	Julio	2023-07-29T00:00:00	2024-11-06T11:00:00	4	Temperatura máxima	15.3
168659	7	Sololá	701	Sololá	2	El tablón	7	Julio	2023-07-29T00:00:00	2024-11-06T11:00:00	3	Temperatura mínima	14.6
168660	7	Sololá	701	Sololá	2	El tablón	7	Julio	2023-07-29T00:00:00	2024-11-06T11:00:00	5	Humedad	88
168661	7	Sololá	701	Sololá	2	El tablón	7	Julio	2023-07-29T00:00:00	2024-11-06T11:00:00	6	Velocidad del viento	9.7
168662	7	Sololá	701	Sololá	2	El tablón	7	Julio	2023-07-29T00:00:00	2024-11-06T11:00:00	7	Dirección del viento	9.66
168663	7	Sololá	701	Sololá	2	El tablón	7	Julio	2023-07-29T00:00:00	2024-11-06T11:00:00	1	Precipitación	0.4
168664	7	Sololá	701	Sololá	2	El tablón	7	Julio	2023-07-29T00:00:00	2024-11-06T11:00:00	8	Radiación solar	283
168665	7	Sololá	701	Sololá	2	El tablón	7	Julio	2023-07-29T00:00:00	2024-11-06T12:00:00	2	Temperatura media	14.8
168666	7	Sololá	701	Sololá	2	El tablón	7	Julio	2023-07-29T00:00:00	2024-11-06T12:00:00	4	Temperatura máxima	15.6
168667	7	Sololá	701	Sololá	2	El tablón	7	Julio	2023-07-29T00:00:00	2024-11-06T12:00:00	3	Temperatura mínima	14.8
168668	7	Sololá	701	Sololá	2	El tablón	7	Julio	2023-07-29T00:00:00	2024-11-06T12:00:00	5	Humedad	88
168669	7	Sololá	701	Sololá	2	El tablón	7	Julio	2023-07-29T00:00:00	2024-11-06T12:00:00	6	Velocidad del viento	8
168670	7	Sololá	701	Sololá	2	El tablón	7	Julio	2023-07-29T00:00:00	2024-11-06T12:00:00	7	Dirección del viento	8.05
168671	7	Sololá	701	Sololá	2	El tablón	7	Julio	2023-07-29T00:00:00	2024-11-06T12:00:00	1	Precipitación	0.2
168672	7	Sololá	701	Sololá	2	El tablón	7	Julio	2023-07-29T00:00:00	2024-11-06T12:00:00	8	Radiación solar	229
168673	7	Sololá	701	Sololá	2	El tablón	7	Julio	2023-07-29T00:00:00	2024-11-06T13:00:00	2	Temperatura media	14.8
168674	7	Sololá	701	Sololá	2	El tablón	7	Julio	2023-07-29T00:00:00	2024-11-06T13:00:00	4	Temperatura máxima	14.8
168675	7	Sololá	701	Sololá	2	El tablón	7	Julio	2023-07-29T00:00:00	2024-11-06T13:00:00	3	Temperatura mínima	14.4
168676	7	Sololá	701	Sololá	2	El tablón	7	Julio	2023-07-29T00:00:00	2024-11-06T13:00:00	5	Humedad	88
168677	7	Sololá	701	Sololá	2	El tablón	7	Julio	2023-07-29T00:00:00	2024-11-06T13:00:00	6	Velocidad del viento	6.4
168678	7	Sololá	701	Sololá	2	El tablón	7	Julio	2023-07-29T00:00:00	2024-11-06T13:00:00	7	Dirección del viento	6.44
168679	7	Sololá	701	Sololá	2	El tablón	7	Julio	2023-07-29T00:00:00	2024-11-06T13:00:00	1	Precipitación	3
168680	7	Sololá	701	Sololá	2	El tablón	7	Julio	2023-07-29T00:00:00	2024-11-06T13:00:00	8	Radiación solar	183
168681	7	Sololá	701	Sololá	2	El tablón	7	Julio	2023-07-29T00:00:00	2024-11-06T14:00:00	2	Temperatura media	14.7
168682	7	Sololá	701	Sololá	2	El tablón	7	Julio	2023-07-29T00:00:00	2024-11-06T14:00:00	4	Temperatura máxima	14.8
168683	7	Sololá	701	Sololá	2	El tablón	7	Julio	2023-07-29T00:00:00	2024-11-06T14:00:00	3	Temperatura mínima	13.9
168684	7	Sololá	701	Sololá	2	El tablón	7	Julio	2023-07-29T00:00:00	2024-11-06T14:00:00	5	Humedad	87
168685	7	Sololá	701	Sololá	2	El tablón	7	Julio	2023-07-29T00:00:00	2024-11-06T14:00:00	6	Velocidad del viento	4.8
168686	7	Sololá	701	Sololá	2	El tablón	7	Julio	2023-07-29T00:00:00	2024-11-06T14:00:00	7	Dirección del viento	4.83
168687	7	Sololá	701	Sololá	2	El tablón	7	Julio	2023-07-29T00:00:00	2024-11-06T14:00:00	1	Precipitación	5.6
168688	7	Sololá	701	Sololá	2	El tablón	7	Julio	2023-07-29T00:00:00	2024-11-06T14:00:00	8	Radiación solar	183
168689	7	Sololá	701	Sololá	2	El tablón	7	Julio	2023-07-29T00:00:00	2024-11-06T15:00:00	2	Temperatura media	15.9
168690	7	Sololá	701	Sololá	2	El tablón	7	Julio	2023-07-29T00:00:00	2024-11-06T15:00:00	4	Temperatura máxima	16.1
168691	7	Sololá	701	Sololá	2	El tablón	7	Julio	2023-07-29T00:00:00	2024-11-06T15:00:00	3	Temperatura mínima	14.7
168692	7	Sololá	701	Sololá	2	El tablón	7	Julio	2023-07-29T00:00:00	2024-11-06T15:00:00	5	Humedad	86
168693	7	Sololá	701	Sololá	2	El tablón	7	Julio	2023-07-29T00:00:00	2024-11-06T15:00:00	6	Velocidad del viento	4.8
168694	7	Sololá	701	Sololá	2	El tablón	7	Julio	2023-07-29T00:00:00	2024-11-06T15:00:00	7	Dirección del viento	4.83
168695	7	Sololá	701	Sololá	2	El tablón	7	Julio	2023-07-29T00:00:00	2024-11-06T15:00:00	1	Precipitación	0
168696	7	Sololá	701	Sololá	2	El tablón	7	Julio	2023-07-29T00:00:00	2024-11-06T15:00:00	8	Radiación solar	260
168697	7	Sololá	701	Sololá	2	El tablón	7	Julio	2023-07-29T00:00:00	2024-11-06T16:00:00	2	Temperatura media	17.2
168698	7	Sololá	701	Sololá	2	El tablón	7	Julio	2023-07-29T00:00:00	2024-11-06T16:00:00	4	Temperatura máxima	17.7
168699	7	Sololá	701	Sololá	2	El tablón	7	Julio	2023-07-29T00:00:00	2024-11-06T16:00:00	3	Temperatura mínima	15.8
168700	7	Sololá	701	Sololá	2	El tablón	7	Julio	2023-07-29T00:00:00	2024-11-06T16:00:00	5	Humedad	82
168701	7	Sololá	701	Sololá	2	El tablón	7	Julio	2023-07-29T00:00:00	2024-11-06T16:00:00	6	Velocidad del viento	4.8
168702	7	Sololá	701	Sololá	2	El tablón	7	Julio	2023-07-29T00:00:00	2024-11-06T16:00:00	7	Dirección del viento	4.83
168703	7	Sololá	701	Sololá	2	El tablón	7	Julio	2023-07-29T00:00:00	2024-11-06T16:00:00	1	Precipitación	0
168704	7	Sololá	701	Sololá	2	El tablón	7	Julio	2023-07-29T00:00:00	2024-11-06T16:00:00	8	Radiación solar	310
168705	7	Sololá	701	Sololá	2	El tablón	7	Julio	2023-07-29T00:00:00	2024-11-06T17:00:00	2	Temperatura media	16.3
168706	7	Sololá	701	Sololá	2	El tablón	7	Julio	2023-07-29T00:00:00	2024-11-06T17:00:00	4	Temperatura máxima	17.2
168707	7	Sololá	701	Sololá	2	El tablón	7	Julio	2023-07-29T00:00:00	2024-11-06T17:00:00	3	Temperatura mínima	16.3
168708	7	Sololá	701	Sololá	2	El tablón	7	Julio	2023-07-29T00:00:00	2024-11-06T17:00:00	5	Humedad	84
168709	7	Sololá	701	Sololá	2	El tablón	7	Julio	2023-07-29T00:00:00	2024-11-06T17:00:00	6	Velocidad del viento	4.8
168710	7	Sololá	701	Sololá	2	El tablón	7	Julio	2023-07-29T00:00:00	2024-11-06T17:00:00	7	Dirección del viento	4.83
168711	7	Sololá	701	Sololá	2	El tablón	7	Julio	2023-07-29T00:00:00	2024-11-06T17:00:00	1	Precipitación	0
168712	7	Sololá	701	Sololá	2	El tablón	7	Julio	2023-07-29T00:00:00	2024-11-06T17:00:00	8	Radiación solar	137
168713	7	Sololá	701	Sololá	2	El tablón	7	Julio	2023-07-29T00:00:00	2024-11-06T18:00:00	2	Temperatura media	15.9
168714	7	Sololá	701	Sololá	2	El tablón	7	Julio	2023-07-29T00:00:00	2024-11-06T18:00:00	4	Temperatura máxima	16.3
168715	7	Sololá	701	Sololá	2	El tablón	7	Julio	2023-07-29T00:00:00	2024-11-06T18:00:00	3	Temperatura mínima	15.9
168716	7	Sololá	701	Sololá	2	El tablón	7	Julio	2023-07-29T00:00:00	2024-11-06T18:00:00	5	Humedad	87
168717	7	Sololá	701	Sololá	2	El tablón	7	Julio	2023-07-29T00:00:00	2024-11-06T18:00:00	6	Velocidad del viento	1.6
168718	7	Sololá	701	Sololá	2	El tablón	7	Julio	2023-07-29T00:00:00	2024-11-06T18:00:00	7	Dirección del viento	1.61
168719	7	Sololá	701	Sololá	2	El tablón	7	Julio	2023-07-29T00:00:00	2024-11-06T18:00:00	1	Precipitación	0.2
168720	7	Sololá	701	Sololá	2	El tablón	7	Julio	2023-07-29T00:00:00	2024-11-06T18:00:00	8	Radiación solar	31
168721	7	Sololá	701	Sololá	2	El tablón	7	Julio	2023-07-29T00:00:00	2024-11-06T19:00:00	2	Temperatura media	14.5
168722	7	Sololá	701	Sololá	2	El tablón	7	Julio	2023-07-29T00:00:00	2024-11-06T19:00:00	4	Temperatura máxima	15.9
168723	7	Sololá	701	Sololá	2	El tablón	7	Julio	2023-07-29T00:00:00	2024-11-06T19:00:00	3	Temperatura mínima	14.5
168724	7	Sololá	701	Sololá	2	El tablón	7	Julio	2023-07-29T00:00:00	2024-11-06T19:00:00	5	Humedad	88
168725	7	Sololá	701	Sololá	2	El tablón	7	Julio	2023-07-29T00:00:00	2024-11-06T19:00:00	6	Velocidad del viento	1.6
168726	7	Sololá	701	Sololá	2	El tablón	7	Julio	2023-07-29T00:00:00	2024-11-06T19:00:00	7	Dirección del viento	1.61
168727	7	Sololá	701	Sololá	2	El tablón	7	Julio	2023-07-29T00:00:00	2024-11-06T19:00:00	1	Precipitación	2.6
168728	7	Sololá	701	Sololá	2	El tablón	7	Julio	2023-07-29T00:00:00	2024-11-06T19:00:00	8	Radiación solar	0
168729	7	Sololá	701	Sololá	2	El tablón	7	Julio	2023-07-29T00:00:00	2024-11-06T20:00:00	2	Temperatura media	14.1
168730	7	Sololá	701	Sololá	2	El tablón	7	Julio	2023-07-29T00:00:00	2024-11-06T20:00:00	4	Temperatura máxima	14.6
168731	7	Sololá	701	Sololá	2	El tablón	7	Julio	2023-07-29T00:00:00	2024-11-06T20:00:00	3	Temperatura mínima	14.1
168732	7	Sololá	701	Sololá	2	El tablón	7	Julio	2023-07-29T00:00:00	2024-11-06T20:00:00	5	Humedad	88
168733	7	Sololá	701	Sololá	2	El tablón	7	Julio	2023-07-29T00:00:00	2024-11-06T20:00:00	6	Velocidad del viento	3.2
168734	7	Sololá	701	Sololá	2	El tablón	7	Julio	2023-07-29T00:00:00	2024-11-06T20:00:00	7	Dirección del viento	3.22
168735	7	Sololá	701	Sololá	2	El tablón	7	Julio	2023-07-29T00:00:00	2024-11-06T20:00:00	1	Precipitación	1
168736	7	Sololá	701	Sololá	2	El tablón	7	Julio	2023-07-29T00:00:00	2024-11-06T20:00:00	8	Radiación solar	0
168737	7	Sololá	701	Sololá	2	El tablón	7	Julio	2023-07-29T00:00:00	2024-11-06T21:00:00	2	Temperatura media	13.2
168738	7	Sololá	701	Sololá	2	El tablón	7	Julio	2023-07-29T00:00:00	2024-11-06T21:00:00	4	Temperatura máxima	14.2
168739	7	Sololá	701	Sololá	2	El tablón	7	Julio	2023-07-29T00:00:00	2024-11-06T21:00:00	3	Temperatura mínima	13.2
168740	7	Sololá	701	Sololá	2	El tablón	7	Julio	2023-07-29T00:00:00	2024-11-06T21:00:00	5	Humedad	88
168741	7	Sololá	701	Sololá	2	El tablón	7	Julio	2023-07-29T00:00:00	2024-11-06T21:00:00	6	Velocidad del viento	3.2
168742	7	Sololá	701	Sololá	2	El tablón	7	Julio	2023-07-29T00:00:00	2024-11-06T21:00:00	7	Dirección del viento	3.22
168743	7	Sololá	701	Sololá	2	El tablón	7	Julio	2023-07-29T00:00:00	2024-11-06T21:00:00	1	Precipitación	4.6
168744	7	Sololá	701	Sololá	2	El tablón	7	Julio	2023-07-29T00:00:00	2024-11-06T21:00:00	8	Radiación solar	0
168745	7	Sololá	701	Sololá	2	El tablón	7	Julio	2023-07-29T00:00:00	2024-11-06T22:00:00	2	Temperatura media	13.1
168746	7	Sololá	701	Sololá	2	El tablón	7	Julio	2023-07-29T00:00:00	2024-11-06T22:00:00	4	Temperatura máxima	13.3
168747	7	Sololá	701	Sololá	2	El tablón	7	Julio	2023-07-29T00:00:00	2024-11-06T22:00:00	3	Temperatura mínima	13.1
168748	7	Sololá	701	Sololá	2	El tablón	7	Julio	2023-07-29T00:00:00	2024-11-06T22:00:00	5	Humedad	88
168749	7	Sololá	701	Sololá	2	El tablón	7	Julio	2023-07-29T00:00:00	2024-11-06T22:00:00	6	Velocidad del viento	4.8
168750	7	Sololá	701	Sololá	2	El tablón	7	Julio	2023-07-29T00:00:00	2024-11-06T22:00:00	7	Dirección del viento	4.83
168751	7	Sololá	701	Sololá	2	El tablón	7	Julio	2023-07-29T00:00:00	2024-11-06T22:00:00	1	Precipitación	2.6
168752	7	Sololá	701	Sololá	2	El tablón	7	Julio	2023-07-29T00:00:00	2024-11-06T22:00:00	8	Radiación solar	0
168753	7	Sololá	701	Sololá	2	El tablón	7	Julio	2023-07-29T00:00:00	2024-11-06T23:00:00	2	Temperatura media	13.3
168754	7	Sololá	701	Sololá	2	El tablón	7	Julio	2023-07-29T00:00:00	2024-11-06T23:00:00	4	Temperatura máxima	13.3
168755	7	Sololá	701	Sololá	2	El tablón	7	Julio	2023-07-29T00:00:00	2024-11-06T23:00:00	3	Temperatura mínima	13
168756	7	Sololá	701	Sololá	2	El tablón	7	Julio	2023-07-29T00:00:00	2024-11-06T23:00:00	5	Humedad	89
168757	7	Sololá	701	Sololá	2	El tablón	7	Julio	2023-07-29T00:00:00	2024-11-06T23:00:00	6	Velocidad del viento	4.8
168758	7	Sololá	701	Sololá	2	El tablón	7	Julio	2023-07-29T00:00:00	2024-11-06T23:00:00	7	Dirección del viento	4.83
168759	7	Sololá	701	Sololá	2	El tablón	7	Julio	2023-07-29T00:00:00	2024-11-06T23:00:00	1	Precipitación	0
168760	7	Sololá	701	Sololá	2	El tablón	7	Julio	2023-07-29T00:00:00	2024-11-06T23:00:00	8	Radiación solar	0
168761	7	Sololá	701	Sololá	2	El tablón	7	Julio	2023-07-30T00:00:00	2024-11-06T00:00:00	2	Temperatura media	13.8
168762	7	Sololá	701	Sololá	2	El tablón	7	Julio	2023-07-30T00:00:00	2024-11-06T00:00:00	4	Temperatura máxima	13.8
168763	7	Sololá	701	Sololá	2	El tablón	7	Julio	2023-07-30T00:00:00	2024-11-06T00:00:00	3	Temperatura mínima	13.3
168764	7	Sololá	701	Sololá	2	El tablón	7	Julio	2023-07-30T00:00:00	2024-11-06T00:00:00	5	Humedad	89
168765	7	Sololá	701	Sololá	2	El tablón	7	Julio	2023-07-30T00:00:00	2024-11-06T00:00:00	6	Velocidad del viento	6.4
168766	7	Sololá	701	Sololá	2	El tablón	7	Julio	2023-07-30T00:00:00	2024-11-06T00:00:00	7	Dirección del viento	6.44
168767	7	Sololá	701	Sololá	2	El tablón	7	Julio	2023-07-30T00:00:00	2024-11-06T00:00:00	1	Precipitación	0
168768	7	Sololá	701	Sololá	2	El tablón	7	Julio	2023-07-30T00:00:00	2024-11-06T00:00:00	8	Radiación solar	0
168769	7	Sololá	701	Sololá	2	El tablón	7	Julio	2023-07-30T00:00:00	2024-11-06T01:00:00	2	Temperatura media	13.4
168770	7	Sololá	701	Sololá	2	El tablón	7	Julio	2023-07-30T00:00:00	2024-11-06T01:00:00	4	Temperatura máxima	13.8
168771	7	Sololá	701	Sololá	2	El tablón	7	Julio	2023-07-30T00:00:00	2024-11-06T01:00:00	3	Temperatura mínima	13.4
168772	7	Sololá	701	Sololá	2	El tablón	7	Julio	2023-07-30T00:00:00	2024-11-06T01:00:00	5	Humedad	89
168773	7	Sololá	701	Sololá	2	El tablón	7	Julio	2023-07-30T00:00:00	2024-11-06T01:00:00	6	Velocidad del viento	8
168774	7	Sololá	701	Sololá	2	El tablón	7	Julio	2023-07-30T00:00:00	2024-11-06T01:00:00	7	Dirección del viento	8.05
168775	7	Sololá	701	Sololá	2	El tablón	7	Julio	2023-07-30T00:00:00	2024-11-06T01:00:00	1	Precipitación	0
168776	7	Sololá	701	Sololá	2	El tablón	7	Julio	2023-07-30T00:00:00	2024-11-06T01:00:00	8	Radiación solar	0
168777	7	Sololá	701	Sololá	2	El tablón	7	Julio	2023-07-30T00:00:00	2024-11-06T02:00:00	2	Temperatura media	12.9
168778	7	Sololá	701	Sololá	2	El tablón	7	Julio	2023-07-30T00:00:00	2024-11-06T02:00:00	4	Temperatura máxima	13.4
168779	7	Sololá	701	Sololá	2	El tablón	7	Julio	2023-07-30T00:00:00	2024-11-06T02:00:00	3	Temperatura mínima	12.9
168780	7	Sololá	701	Sololá	2	El tablón	7	Julio	2023-07-30T00:00:00	2024-11-06T02:00:00	5	Humedad	89
168781	7	Sololá	701	Sololá	2	El tablón	7	Julio	2023-07-30T00:00:00	2024-11-06T02:00:00	6	Velocidad del viento	11.3
168782	7	Sololá	701	Sololá	2	El tablón	7	Julio	2023-07-30T00:00:00	2024-11-06T02:00:00	7	Dirección del viento	11.27
168783	7	Sololá	701	Sololá	2	El tablón	7	Julio	2023-07-30T00:00:00	2024-11-06T02:00:00	1	Precipitación	0
168784	7	Sololá	701	Sololá	2	El tablón	7	Julio	2023-07-30T00:00:00	2024-11-06T02:00:00	8	Radiación solar	0
168785	7	Sololá	701	Sololá	2	El tablón	7	Julio	2023-07-30T00:00:00	2024-11-06T03:00:00	2	Temperatura media	12.6
168786	7	Sololá	701	Sololá	2	El tablón	7	Julio	2023-07-30T00:00:00	2024-11-06T03:00:00	4	Temperatura máxima	12.9
168787	7	Sololá	701	Sololá	2	El tablón	7	Julio	2023-07-30T00:00:00	2024-11-06T03:00:00	3	Temperatura mínima	12.6
168788	7	Sololá	701	Sololá	2	El tablón	7	Julio	2023-07-30T00:00:00	2024-11-06T03:00:00	5	Humedad	89
168789	7	Sololá	701	Sololá	2	El tablón	7	Julio	2023-07-30T00:00:00	2024-11-06T03:00:00	6	Velocidad del viento	8
168790	7	Sololá	701	Sololá	2	El tablón	7	Julio	2023-07-30T00:00:00	2024-11-06T03:00:00	7	Dirección del viento	8.05
168791	7	Sololá	701	Sololá	2	El tablón	7	Julio	2023-07-30T00:00:00	2024-11-06T03:00:00	1	Precipitación	0
168792	7	Sololá	701	Sololá	2	El tablón	7	Julio	2023-07-30T00:00:00	2024-11-06T03:00:00	8	Radiación solar	0
168793	7	Sololá	701	Sololá	2	El tablón	7	Julio	2023-07-30T00:00:00	2024-11-06T04:00:00	2	Temperatura media	12.8
168794	7	Sololá	701	Sololá	2	El tablón	7	Julio	2023-07-30T00:00:00	2024-11-06T04:00:00	4	Temperatura máxima	12.8
168795	7	Sololá	701	Sololá	2	El tablón	7	Julio	2023-07-30T00:00:00	2024-11-06T04:00:00	3	Temperatura mínima	12.5
168796	7	Sololá	701	Sololá	2	El tablón	7	Julio	2023-07-30T00:00:00	2024-11-06T04:00:00	5	Humedad	89
168797	7	Sololá	701	Sololá	2	El tablón	7	Julio	2023-07-30T00:00:00	2024-11-06T04:00:00	6	Velocidad del viento	6.4
168798	7	Sololá	701	Sololá	2	El tablón	7	Julio	2023-07-30T00:00:00	2024-11-06T04:00:00	7	Dirección del viento	6.44
168799	7	Sololá	701	Sololá	2	El tablón	7	Julio	2023-07-30T00:00:00	2024-11-06T04:00:00	1	Precipitación	0
168800	7	Sololá	701	Sololá	2	El tablón	7	Julio	2023-07-30T00:00:00	2024-11-06T04:00:00	8	Radiación solar	0
168801	7	Sololá	701	Sololá	2	El tablón	7	Julio	2023-07-30T00:00:00	2024-11-06T05:00:00	2	Temperatura media	13.3
168802	7	Sololá	701	Sololá	2	El tablón	7	Julio	2023-07-30T00:00:00	2024-11-06T05:00:00	4	Temperatura máxima	13.3
168803	7	Sololá	701	Sololá	2	El tablón	7	Julio	2023-07-30T00:00:00	2024-11-06T05:00:00	3	Temperatura mínima	12.8
168804	7	Sololá	701	Sololá	2	El tablón	7	Julio	2023-07-30T00:00:00	2024-11-06T05:00:00	5	Humedad	89
168805	7	Sololá	701	Sololá	2	El tablón	7	Julio	2023-07-30T00:00:00	2024-11-06T05:00:00	6	Velocidad del viento	8
168806	7	Sololá	701	Sololá	2	El tablón	7	Julio	2023-07-30T00:00:00	2024-11-06T05:00:00	7	Dirección del viento	8.05
168807	7	Sololá	701	Sololá	2	El tablón	7	Julio	2023-07-30T00:00:00	2024-11-06T05:00:00	1	Precipitación	0
168808	7	Sololá	701	Sololá	2	El tablón	7	Julio	2023-07-30T00:00:00	2024-11-06T05:00:00	8	Radiación solar	0
168809	7	Sololá	701	Sololá	2	El tablón	7	Julio	2023-07-30T00:00:00	2024-11-06T06:00:00	2	Temperatura media	12.9
168810	7	Sololá	701	Sololá	2	El tablón	7	Julio	2023-07-30T00:00:00	2024-11-06T06:00:00	4	Temperatura máxima	13.3
168811	7	Sololá	701	Sololá	2	El tablón	7	Julio	2023-07-30T00:00:00	2024-11-06T06:00:00	3	Temperatura mínima	12.8
168812	7	Sololá	701	Sololá	2	El tablón	7	Julio	2023-07-30T00:00:00	2024-11-06T06:00:00	5	Humedad	89
168813	7	Sololá	701	Sololá	2	El tablón	7	Julio	2023-07-30T00:00:00	2024-11-06T06:00:00	6	Velocidad del viento	8
168814	7	Sololá	701	Sololá	2	El tablón	7	Julio	2023-07-30T00:00:00	2024-11-06T06:00:00	7	Dirección del viento	8.05
168815	7	Sololá	701	Sololá	2	El tablón	7	Julio	2023-07-30T00:00:00	2024-11-06T06:00:00	1	Precipitación	0
168816	7	Sololá	701	Sololá	2	El tablón	7	Julio	2023-07-30T00:00:00	2024-11-06T06:00:00	8	Radiación solar	1
168817	7	Sololá	701	Sololá	2	El tablón	7	Julio	2023-07-30T00:00:00	2024-11-06T07:00:00	2	Temperatura media	14.2
168818	7	Sololá	701	Sololá	2	El tablón	7	Julio	2023-07-30T00:00:00	2024-11-06T07:00:00	4	Temperatura máxima	14.2
168819	7	Sololá	701	Sololá	2	El tablón	7	Julio	2023-07-30T00:00:00	2024-11-06T07:00:00	3	Temperatura mínima	12.8
168820	7	Sololá	701	Sololá	2	El tablón	7	Julio	2023-07-30T00:00:00	2024-11-06T07:00:00	5	Humedad	86
168821	7	Sololá	701	Sololá	2	El tablón	7	Julio	2023-07-30T00:00:00	2024-11-06T07:00:00	6	Velocidad del viento	9.7
168822	7	Sololá	701	Sololá	2	El tablón	7	Julio	2023-07-30T00:00:00	2024-11-06T07:00:00	7	Dirección del viento	9.66
168823	7	Sololá	701	Sololá	2	El tablón	7	Julio	2023-07-30T00:00:00	2024-11-06T07:00:00	1	Precipitación	0
168824	7	Sololá	701	Sololá	2	El tablón	7	Julio	2023-07-30T00:00:00	2024-11-06T07:00:00	8	Radiación solar	100
168825	7	Sololá	701	Sololá	2	El tablón	7	Julio	2023-07-30T00:00:00	2024-11-06T08:00:00	2	Temperatura media	16.3
168826	7	Sololá	701	Sololá	2	El tablón	7	Julio	2023-07-30T00:00:00	2024-11-06T08:00:00	4	Temperatura máxima	16.3
168827	7	Sololá	701	Sololá	2	El tablón	7	Julio	2023-07-30T00:00:00	2024-11-06T08:00:00	3	Temperatura mínima	14.2
168828	7	Sololá	701	Sololá	2	El tablón	7	Julio	2023-07-30T00:00:00	2024-11-06T08:00:00	5	Humedad	80
168829	7	Sololá	701	Sololá	2	El tablón	7	Julio	2023-07-30T00:00:00	2024-11-06T08:00:00	6	Velocidad del viento	11.3
168830	7	Sololá	701	Sololá	2	El tablón	7	Julio	2023-07-30T00:00:00	2024-11-06T08:00:00	7	Dirección del viento	11.27
168831	7	Sololá	701	Sololá	2	El tablón	7	Julio	2023-07-30T00:00:00	2024-11-06T08:00:00	1	Precipitación	0
168832	7	Sololá	701	Sololá	2	El tablón	7	Julio	2023-07-30T00:00:00	2024-11-06T08:00:00	8	Radiación solar	308
168833	7	Sololá	701	Sololá	2	El tablón	7	Julio	2023-07-30T00:00:00	2024-11-06T09:00:00	2	Temperatura media	17.8
168834	7	Sololá	701	Sololá	2	El tablón	7	Julio	2023-07-30T00:00:00	2024-11-06T09:00:00	4	Temperatura máxima	17.9
168835	7	Sololá	701	Sololá	2	El tablón	7	Julio	2023-07-30T00:00:00	2024-11-06T09:00:00	3	Temperatura mínima	16.3
168836	7	Sololá	701	Sololá	2	El tablón	7	Julio	2023-07-30T00:00:00	2024-11-06T09:00:00	5	Humedad	76
168837	7	Sololá	701	Sololá	2	El tablón	7	Julio	2023-07-30T00:00:00	2024-11-06T09:00:00	6	Velocidad del viento	9.7
168838	7	Sololá	701	Sololá	2	El tablón	7	Julio	2023-07-30T00:00:00	2024-11-06T09:00:00	7	Dirección del viento	9.66
168839	7	Sololá	701	Sololá	2	El tablón	7	Julio	2023-07-30T00:00:00	2024-11-06T09:00:00	1	Precipitación	0
168840	7	Sololá	701	Sololá	2	El tablón	7	Julio	2023-07-30T00:00:00	2024-11-06T09:00:00	8	Radiación solar	524
168841	7	Sololá	701	Sololá	2	El tablón	7	Julio	2023-07-30T00:00:00	2024-11-06T10:00:00	2	Temperatura media	18.8
168842	7	Sololá	701	Sololá	2	El tablón	7	Julio	2023-07-30T00:00:00	2024-11-06T10:00:00	4	Temperatura máxima	18.8
168843	7	Sololá	701	Sololá	2	El tablón	7	Julio	2023-07-30T00:00:00	2024-11-06T10:00:00	3	Temperatura mínima	17.8
168844	7	Sololá	701	Sololá	2	El tablón	7	Julio	2023-07-30T00:00:00	2024-11-06T10:00:00	5	Humedad	75
168845	7	Sololá	701	Sololá	2	El tablón	7	Julio	2023-07-30T00:00:00	2024-11-06T10:00:00	6	Velocidad del viento	11.3
168846	7	Sololá	701	Sololá	2	El tablón	7	Julio	2023-07-30T00:00:00	2024-11-06T10:00:00	7	Dirección del viento	11.27
168847	7	Sololá	701	Sololá	2	El tablón	7	Julio	2023-07-30T00:00:00	2024-11-06T10:00:00	1	Precipitación	0
168848	7	Sololá	701	Sololá	2	El tablón	7	Julio	2023-07-30T00:00:00	2024-11-06T10:00:00	8	Radiación solar	709
168849	7	Sololá	701	Sololá	2	El tablón	7	Julio	2023-07-30T00:00:00	2024-11-06T11:00:00	2	Temperatura media	19.1
168850	7	Sololá	701	Sololá	2	El tablón	7	Julio	2023-07-30T00:00:00	2024-11-06T11:00:00	4	Temperatura máxima	19.3
168851	7	Sololá	701	Sololá	2	El tablón	7	Julio	2023-07-30T00:00:00	2024-11-06T11:00:00	3	Temperatura mínima	18.6
168852	7	Sololá	701	Sololá	2	El tablón	7	Julio	2023-07-30T00:00:00	2024-11-06T11:00:00	5	Humedad	74
168853	7	Sololá	701	Sololá	2	El tablón	7	Julio	2023-07-30T00:00:00	2024-11-06T11:00:00	6	Velocidad del viento	12.9
168854	7	Sololá	701	Sololá	2	El tablón	7	Julio	2023-07-30T00:00:00	2024-11-06T11:00:00	7	Dirección del viento	12.87
168855	7	Sololá	701	Sololá	2	El tablón	7	Julio	2023-07-30T00:00:00	2024-11-06T11:00:00	1	Precipitación	0
168856	7	Sololá	701	Sololá	2	El tablón	7	Julio	2023-07-30T00:00:00	2024-11-06T11:00:00	8	Radiación solar	853
168857	7	Sololá	701	Sololá	2	El tablón	7	Julio	2023-07-30T00:00:00	2024-11-06T12:00:00	2	Temperatura media	20
168858	7	Sololá	701	Sololá	2	El tablón	7	Julio	2023-07-30T00:00:00	2024-11-06T12:00:00	4	Temperatura máxima	20.4
168859	7	Sololá	701	Sololá	2	El tablón	7	Julio	2023-07-30T00:00:00	2024-11-06T12:00:00	3	Temperatura mínima	19
168860	7	Sololá	701	Sololá	2	El tablón	7	Julio	2023-07-30T00:00:00	2024-11-06T12:00:00	5	Humedad	70
168861	7	Sololá	701	Sololá	2	El tablón	7	Julio	2023-07-30T00:00:00	2024-11-06T12:00:00	6	Velocidad del viento	11.3
168862	7	Sololá	701	Sololá	2	El tablón	7	Julio	2023-07-30T00:00:00	2024-11-06T12:00:00	7	Dirección del viento	11.27
168863	7	Sololá	701	Sololá	2	El tablón	7	Julio	2023-07-30T00:00:00	2024-11-06T12:00:00	1	Precipitación	0
168864	7	Sololá	701	Sololá	2	El tablón	7	Julio	2023-07-30T00:00:00	2024-11-06T12:00:00	8	Radiación solar	960
168865	7	Sololá	701	Sololá	2	El tablón	7	Julio	2023-07-30T00:00:00	2024-11-06T13:00:00	2	Temperatura media	19.2
168866	7	Sololá	701	Sololá	2	El tablón	7	Julio	2023-07-30T00:00:00	2024-11-06T13:00:00	4	Temperatura máxima	20.6
168867	7	Sololá	701	Sololá	2	El tablón	7	Julio	2023-07-30T00:00:00	2024-11-06T13:00:00	3	Temperatura mínima	19.2
168868	7	Sololá	701	Sololá	2	El tablón	7	Julio	2023-07-30T00:00:00	2024-11-06T13:00:00	5	Humedad	76
168869	7	Sololá	701	Sololá	2	El tablón	7	Julio	2023-07-30T00:00:00	2024-11-06T13:00:00	6	Velocidad del viento	8
168870	7	Sololá	701	Sololá	2	El tablón	7	Julio	2023-07-30T00:00:00	2024-11-06T13:00:00	7	Dirección del viento	8.05
168871	7	Sololá	701	Sololá	2	El tablón	7	Julio	2023-07-30T00:00:00	2024-11-06T13:00:00	1	Precipitación	0
168872	7	Sololá	701	Sololá	2	El tablón	7	Julio	2023-07-30T00:00:00	2024-11-06T13:00:00	8	Radiación solar	489
168873	7	Sololá	701	Sololá	2	El tablón	7	Julio	2023-07-30T00:00:00	2024-11-06T14:00:00	2	Temperatura media	18.9
168874	7	Sololá	701	Sololá	2	El tablón	7	Julio	2023-07-30T00:00:00	2024-11-06T14:00:00	4	Temperatura máxima	19.2
168875	7	Sololá	701	Sololá	2	El tablón	7	Julio	2023-07-30T00:00:00	2024-11-06T14:00:00	3	Temperatura mínima	17.8
168876	7	Sololá	701	Sololá	2	El tablón	7	Julio	2023-07-30T00:00:00	2024-11-06T14:00:00	5	Humedad	75
168877	7	Sololá	701	Sololá	2	El tablón	7	Julio	2023-07-30T00:00:00	2024-11-06T14:00:00	6	Velocidad del viento	4.8
168878	7	Sololá	701	Sololá	2	El tablón	7	Julio	2023-07-30T00:00:00	2024-11-06T14:00:00	7	Dirección del viento	4.83
168879	7	Sololá	701	Sololá	2	El tablón	7	Julio	2023-07-30T00:00:00	2024-11-06T14:00:00	1	Precipitación	0
168880	7	Sololá	701	Sololá	2	El tablón	7	Julio	2023-07-30T00:00:00	2024-11-06T14:00:00	8	Radiación solar	238
168881	7	Sololá	701	Sololá	2	El tablón	7	Julio	2023-07-30T00:00:00	2024-11-06T15:00:00	2	Temperatura media	18.3
168882	7	Sololá	701	Sololá	2	El tablón	7	Julio	2023-07-30T00:00:00	2024-11-06T15:00:00	4	Temperatura máxima	19.1
168883	7	Sololá	701	Sololá	2	El tablón	7	Julio	2023-07-30T00:00:00	2024-11-06T15:00:00	3	Temperatura mínima	18.3
168884	7	Sololá	701	Sololá	2	El tablón	7	Julio	2023-07-30T00:00:00	2024-11-06T15:00:00	5	Humedad	76
168885	7	Sololá	701	Sololá	2	El tablón	7	Julio	2023-07-30T00:00:00	2024-11-06T15:00:00	6	Velocidad del viento	4.8
168886	7	Sololá	701	Sololá	2	El tablón	7	Julio	2023-07-30T00:00:00	2024-11-06T15:00:00	7	Dirección del viento	4.83
168887	7	Sololá	701	Sololá	2	El tablón	7	Julio	2023-07-30T00:00:00	2024-11-06T15:00:00	1	Precipitación	0
168888	7	Sololá	701	Sololá	2	El tablón	7	Julio	2023-07-30T00:00:00	2024-11-06T15:00:00	8	Radiación solar	197
168889	7	Sololá	701	Sololá	2	El tablón	7	Julio	2023-07-30T00:00:00	2024-11-06T16:00:00	2	Temperatura media	17.8
168890	7	Sololá	701	Sololá	2	El tablón	7	Julio	2023-07-30T00:00:00	2024-11-06T16:00:00	4	Temperatura máxima	19.6
168891	7	Sololá	701	Sololá	2	El tablón	7	Julio	2023-07-30T00:00:00	2024-11-06T16:00:00	3	Temperatura mínima	17.8
168892	7	Sololá	701	Sololá	2	El tablón	7	Julio	2023-07-30T00:00:00	2024-11-06T16:00:00	5	Humedad	86
168893	7	Sololá	701	Sololá	2	El tablón	7	Julio	2023-07-30T00:00:00	2024-11-06T16:00:00	6	Velocidad del viento	6.4
168894	7	Sololá	701	Sololá	2	El tablón	7	Julio	2023-07-30T00:00:00	2024-11-06T16:00:00	7	Dirección del viento	6.44
168895	7	Sololá	701	Sololá	2	El tablón	7	Julio	2023-07-30T00:00:00	2024-11-06T16:00:00	1	Precipitación	0
168896	7	Sololá	701	Sololá	2	El tablón	7	Julio	2023-07-30T00:00:00	2024-11-06T16:00:00	8	Radiación solar	337
168897	7	Sololá	701	Sololá	2	El tablón	7	Julio	2023-07-30T00:00:00	2024-11-06T17:00:00	2	Temperatura media	17.1
168898	7	Sololá	701	Sololá	2	El tablón	7	Julio	2023-07-30T00:00:00	2024-11-06T17:00:00	4	Temperatura máxima	17.9
168899	7	Sololá	701	Sololá	2	El tablón	7	Julio	2023-07-30T00:00:00	2024-11-06T17:00:00	3	Temperatura mínima	17
168900	7	Sololá	701	Sololá	2	El tablón	7	Julio	2023-07-30T00:00:00	2024-11-06T17:00:00	5	Humedad	88
168901	7	Sololá	701	Sololá	2	El tablón	7	Julio	2023-07-30T00:00:00	2024-11-06T17:00:00	6	Velocidad del viento	3.2
168902	7	Sololá	701	Sololá	2	El tablón	7	Julio	2023-07-30T00:00:00	2024-11-06T17:00:00	7	Dirección del viento	3.22
168903	7	Sololá	701	Sololá	2	El tablón	7	Julio	2023-07-30T00:00:00	2024-11-06T17:00:00	1	Precipitación	0
168904	7	Sololá	701	Sololá	2	El tablón	7	Julio	2023-07-30T00:00:00	2024-11-06T17:00:00	8	Radiación solar	108
168905	7	Sololá	701	Sololá	2	El tablón	7	Julio	2023-07-30T00:00:00	2024-11-06T18:00:00	2	Temperatura media	17.5
168906	7	Sololá	701	Sololá	2	El tablón	7	Julio	2023-07-30T00:00:00	2024-11-06T18:00:00	4	Temperatura máxima	18.2
168907	7	Sololá	701	Sololá	2	El tablón	7	Julio	2023-07-30T00:00:00	2024-11-06T18:00:00	3	Temperatura mínima	17.1
168908	7	Sololá	701	Sololá	2	El tablón	7	Julio	2023-07-30T00:00:00	2024-11-06T18:00:00	5	Humedad	80
168909	7	Sololá	701	Sololá	2	El tablón	7	Julio	2023-07-30T00:00:00	2024-11-06T18:00:00	6	Velocidad del viento	6.4
168910	7	Sololá	701	Sololá	2	El tablón	7	Julio	2023-07-30T00:00:00	2024-11-06T18:00:00	7	Dirección del viento	6.44
168911	7	Sololá	701	Sololá	2	El tablón	7	Julio	2023-07-30T00:00:00	2024-11-06T18:00:00	1	Precipitación	0
168912	7	Sololá	701	Sololá	2	El tablón	7	Julio	2023-07-30T00:00:00	2024-11-06T18:00:00	8	Radiación solar	144
168913	7	Sololá	701	Sololá	2	El tablón	7	Julio	2023-07-30T00:00:00	2024-11-06T19:00:00	2	Temperatura media	16
168914	7	Sololá	701	Sololá	2	El tablón	7	Julio	2023-07-30T00:00:00	2024-11-06T19:00:00	4	Temperatura máxima	17.5
168915	7	Sololá	701	Sololá	2	El tablón	7	Julio	2023-07-30T00:00:00	2024-11-06T19:00:00	3	Temperatura mínima	16
168916	7	Sololá	701	Sololá	2	El tablón	7	Julio	2023-07-30T00:00:00	2024-11-06T19:00:00	5	Humedad	85
168917	7	Sololá	701	Sololá	2	El tablón	7	Julio	2023-07-30T00:00:00	2024-11-06T19:00:00	6	Velocidad del viento	4.8
168918	7	Sololá	701	Sololá	2	El tablón	7	Julio	2023-07-30T00:00:00	2024-11-06T19:00:00	7	Dirección del viento	4.83
168919	7	Sololá	701	Sololá	2	El tablón	7	Julio	2023-07-30T00:00:00	2024-11-06T19:00:00	1	Precipitación	0
168920	7	Sololá	701	Sololá	2	El tablón	7	Julio	2023-07-30T00:00:00	2024-11-06T19:00:00	8	Radiación solar	0
168921	7	Sololá	701	Sololá	2	El tablón	7	Julio	2023-07-30T00:00:00	2024-11-06T20:00:00	2	Temperatura media	15.3
168922	7	Sololá	701	Sololá	2	El tablón	7	Julio	2023-07-30T00:00:00	2024-11-06T20:00:00	4	Temperatura máxima	16
168923	7	Sololá	701	Sololá	2	El tablón	7	Julio	2023-07-30T00:00:00	2024-11-06T20:00:00	3	Temperatura mínima	15.3
168924	7	Sololá	701	Sololá	2	El tablón	7	Julio	2023-07-30T00:00:00	2024-11-06T20:00:00	5	Humedad	87
168925	7	Sololá	701	Sololá	2	El tablón	7	Julio	2023-07-30T00:00:00	2024-11-06T20:00:00	6	Velocidad del viento	3.2
168926	7	Sololá	701	Sololá	2	El tablón	7	Julio	2023-07-30T00:00:00	2024-11-06T20:00:00	7	Dirección del viento	3.22
168927	7	Sololá	701	Sololá	2	El tablón	7	Julio	2023-07-30T00:00:00	2024-11-06T20:00:00	1	Precipitación	0
168928	7	Sololá	701	Sololá	2	El tablón	7	Julio	2023-07-30T00:00:00	2024-11-06T20:00:00	8	Radiación solar	0
168929	7	Sololá	701	Sololá	2	El tablón	7	Julio	2023-07-30T00:00:00	2024-11-06T21:00:00	2	Temperatura media	14.8
168930	7	Sololá	701	Sololá	2	El tablón	7	Julio	2023-07-30T00:00:00	2024-11-06T21:00:00	4	Temperatura máxima	15.3
168931	7	Sololá	701	Sololá	2	El tablón	7	Julio	2023-07-30T00:00:00	2024-11-06T21:00:00	3	Temperatura mínima	14.8
168932	7	Sololá	701	Sololá	2	El tablón	7	Julio	2023-07-30T00:00:00	2024-11-06T21:00:00	5	Humedad	88
168933	7	Sololá	701	Sololá	2	El tablón	7	Julio	2023-07-30T00:00:00	2024-11-06T21:00:00	6	Velocidad del viento	3.2
168934	7	Sololá	701	Sololá	2	El tablón	7	Julio	2023-07-30T00:00:00	2024-11-06T21:00:00	7	Dirección del viento	3.22
168935	7	Sololá	701	Sololá	2	El tablón	7	Julio	2023-07-30T00:00:00	2024-11-06T21:00:00	1	Precipitación	0.2
168936	7	Sololá	701	Sololá	2	El tablón	7	Julio	2023-07-30T00:00:00	2024-11-06T21:00:00	8	Radiación solar	0
168937	7	Sololá	701	Sololá	2	El tablón	7	Julio	2023-07-30T00:00:00	2024-11-06T22:00:00	2	Temperatura media	13.9
168938	7	Sololá	701	Sololá	2	El tablón	7	Julio	2023-07-30T00:00:00	2024-11-06T22:00:00	4	Temperatura máxima	14.8
168939	7	Sololá	701	Sololá	2	El tablón	7	Julio	2023-07-30T00:00:00	2024-11-06T22:00:00	3	Temperatura mínima	13.7
168940	7	Sololá	701	Sololá	2	El tablón	7	Julio	2023-07-30T00:00:00	2024-11-06T22:00:00	5	Humedad	88
168941	7	Sololá	701	Sololá	2	El tablón	7	Julio	2023-07-30T00:00:00	2024-11-06T22:00:00	6	Velocidad del viento	6.4
168942	7	Sololá	701	Sololá	2	El tablón	7	Julio	2023-07-30T00:00:00	2024-11-06T22:00:00	7	Dirección del viento	6.44
168943	7	Sololá	701	Sololá	2	El tablón	7	Julio	2023-07-30T00:00:00	2024-11-06T22:00:00	1	Precipitación	0.6
168944	7	Sololá	701	Sololá	2	El tablón	7	Julio	2023-07-30T00:00:00	2024-11-06T22:00:00	8	Radiación solar	0
168945	7	Sololá	701	Sololá	2	El tablón	7	Julio	2023-07-30T00:00:00	2024-11-06T23:00:00	2	Temperatura media	14.1
168946	7	Sololá	701	Sololá	2	El tablón	7	Julio	2023-07-30T00:00:00	2024-11-06T23:00:00	4	Temperatura máxima	14.1
168947	7	Sololá	701	Sololá	2	El tablón	7	Julio	2023-07-30T00:00:00	2024-11-06T23:00:00	3	Temperatura mínima	13.9
168948	7	Sololá	701	Sololá	2	El tablón	7	Julio	2023-07-30T00:00:00	2024-11-06T23:00:00	5	Humedad	88
168949	7	Sololá	701	Sololá	2	El tablón	7	Julio	2023-07-30T00:00:00	2024-11-06T23:00:00	6	Velocidad del viento	3.2
168950	7	Sololá	701	Sololá	2	El tablón	7	Julio	2023-07-30T00:00:00	2024-11-06T23:00:00	7	Dirección del viento	3.22
168951	7	Sololá	701	Sololá	2	El tablón	7	Julio	2023-07-30T00:00:00	2024-11-06T23:00:00	1	Precipitación	0
168952	7	Sololá	701	Sololá	2	El tablón	7	Julio	2023-07-30T00:00:00	2024-11-06T23:00:00	8	Radiación solar	0
168953	7	Sololá	701	Sololá	2	El tablón	7	Julio	2023-07-31T00:00:00	2024-11-06T00:00:00	2	Temperatura media	13.8
168954	7	Sololá	701	Sololá	2	El tablón	7	Julio	2023-07-31T00:00:00	2024-11-06T00:00:00	4	Temperatura máxima	14.1
168955	7	Sololá	701	Sololá	2	El tablón	7	Julio	2023-07-31T00:00:00	2024-11-06T00:00:00	3	Temperatura mínima	13.8
168956	7	Sololá	701	Sololá	2	El tablón	7	Julio	2023-07-31T00:00:00	2024-11-06T00:00:00	5	Humedad	88
168957	7	Sololá	701	Sololá	2	El tablón	7	Julio	2023-07-31T00:00:00	2024-11-06T00:00:00	6	Velocidad del viento	3.2
168958	7	Sololá	701	Sololá	2	El tablón	7	Julio	2023-07-31T00:00:00	2024-11-06T00:00:00	7	Dirección del viento	3.22
168959	7	Sololá	701	Sololá	2	El tablón	7	Julio	2023-07-31T00:00:00	2024-11-06T00:00:00	1	Precipitación	0.6
168960	7	Sololá	701	Sololá	2	El tablón	7	Julio	2023-07-31T00:00:00	2024-11-06T00:00:00	8	Radiación solar	0
168961	7	Sololá	701	Sololá	2	El tablón	7	Julio	2023-07-31T00:00:00	2024-11-06T01:00:00	2	Temperatura media	13.5
168962	7	Sololá	701	Sololá	2	El tablón	7	Julio	2023-07-31T00:00:00	2024-11-06T01:00:00	4	Temperatura máxima	13.8
168963	7	Sololá	701	Sololá	2	El tablón	7	Julio	2023-07-31T00:00:00	2024-11-06T01:00:00	3	Temperatura mínima	13.5
168964	7	Sololá	701	Sololá	2	El tablón	7	Julio	2023-07-31T00:00:00	2024-11-06T01:00:00	5	Humedad	88
168965	7	Sololá	701	Sololá	2	El tablón	7	Julio	2023-07-31T00:00:00	2024-11-06T01:00:00	6	Velocidad del viento	4.8
168966	7	Sololá	701	Sololá	2	El tablón	7	Julio	2023-07-31T00:00:00	2024-11-06T01:00:00	7	Dirección del viento	4.83
168967	7	Sololá	701	Sololá	2	El tablón	7	Julio	2023-07-31T00:00:00	2024-11-06T01:00:00	1	Precipitación	0
168968	7	Sololá	701	Sololá	2	El tablón	7	Julio	2023-07-31T00:00:00	2024-11-06T01:00:00	8	Radiación solar	0
168969	7	Sololá	701	Sololá	2	El tablón	7	Julio	2023-07-31T00:00:00	2024-11-06T02:00:00	2	Temperatura media	12.2
168970	7	Sololá	701	Sololá	2	El tablón	7	Julio	2023-07-31T00:00:00	2024-11-06T02:00:00	4	Temperatura máxima	13.5
168971	7	Sololá	701	Sololá	2	El tablón	7	Julio	2023-07-31T00:00:00	2024-11-06T02:00:00	3	Temperatura mínima	12.2
168972	7	Sololá	701	Sololá	2	El tablón	7	Julio	2023-07-31T00:00:00	2024-11-06T02:00:00	5	Humedad	89
168973	7	Sololá	701	Sololá	2	El tablón	7	Julio	2023-07-31T00:00:00	2024-11-06T02:00:00	6	Velocidad del viento	8
168974	7	Sololá	701	Sololá	2	El tablón	7	Julio	2023-07-31T00:00:00	2024-11-06T02:00:00	7	Dirección del viento	8.05
168975	7	Sololá	701	Sololá	2	El tablón	7	Julio	2023-07-31T00:00:00	2024-11-06T02:00:00	1	Precipitación	3.2
168976	7	Sololá	701	Sololá	2	El tablón	7	Julio	2023-07-31T00:00:00	2024-11-06T02:00:00	8	Radiación solar	0
168977	7	Sololá	701	Sololá	2	El tablón	7	Julio	2023-07-31T00:00:00	2024-11-06T03:00:00	2	Temperatura media	12.3
168978	7	Sololá	701	Sololá	2	El tablón	7	Julio	2023-07-31T00:00:00	2024-11-06T03:00:00	4	Temperatura máxima	12.3
168979	7	Sololá	701	Sololá	2	El tablón	7	Julio	2023-07-31T00:00:00	2024-11-06T03:00:00	3	Temperatura mínima	11.9
168980	7	Sololá	701	Sololá	2	El tablón	7	Julio	2023-07-31T00:00:00	2024-11-06T03:00:00	5	Humedad	89
168981	7	Sololá	701	Sololá	2	El tablón	7	Julio	2023-07-31T00:00:00	2024-11-06T03:00:00	6	Velocidad del viento	4.8
168982	7	Sololá	701	Sololá	2	El tablón	7	Julio	2023-07-31T00:00:00	2024-11-06T03:00:00	7	Dirección del viento	4.83
168983	7	Sololá	701	Sololá	2	El tablón	7	Julio	2023-07-31T00:00:00	2024-11-06T03:00:00	1	Precipitación	2.2
168984	7	Sololá	701	Sololá	2	El tablón	7	Julio	2023-07-31T00:00:00	2024-11-06T03:00:00	8	Radiación solar	0
168985	7	Sololá	701	Sololá	2	El tablón	7	Julio	2023-07-31T00:00:00	2024-11-06T04:00:00	2	Temperatura media	13.3
168986	7	Sololá	701	Sololá	2	El tablón	7	Julio	2023-07-31T00:00:00	2024-11-06T04:00:00	4	Temperatura máxima	13.3
168987	7	Sololá	701	Sololá	2	El tablón	7	Julio	2023-07-31T00:00:00	2024-11-06T04:00:00	3	Temperatura mínima	12.3
168988	7	Sololá	701	Sololá	2	El tablón	7	Julio	2023-07-31T00:00:00	2024-11-06T04:00:00	5	Humedad	83
168989	7	Sololá	701	Sololá	2	El tablón	7	Julio	2023-07-31T00:00:00	2024-11-06T04:00:00	6	Velocidad del viento	6.4
168990	7	Sololá	701	Sololá	2	El tablón	7	Julio	2023-07-31T00:00:00	2024-11-06T04:00:00	7	Dirección del viento	6.44
168991	7	Sololá	701	Sololá	2	El tablón	7	Julio	2023-07-31T00:00:00	2024-11-06T04:00:00	1	Precipitación	0
168992	7	Sololá	701	Sololá	2	El tablón	7	Julio	2023-07-31T00:00:00	2024-11-06T04:00:00	8	Radiación solar	0
168993	7	Sololá	701	Sololá	2	El tablón	7	Julio	2023-07-31T00:00:00	2024-11-06T05:00:00	2	Temperatura media	12.1
168994	7	Sololá	701	Sololá	2	El tablón	7	Julio	2023-07-31T00:00:00	2024-11-06T05:00:00	4	Temperatura máxima	13.4
168995	7	Sololá	701	Sololá	2	El tablón	7	Julio	2023-07-31T00:00:00	2024-11-06T05:00:00	3	Temperatura mínima	12
168996	7	Sololá	701	Sololá	2	El tablón	7	Julio	2023-07-31T00:00:00	2024-11-06T05:00:00	5	Humedad	88
168997	7	Sololá	701	Sololá	2	El tablón	7	Julio	2023-07-31T00:00:00	2024-11-06T05:00:00	6	Velocidad del viento	4.8
168998	7	Sololá	701	Sololá	2	El tablón	7	Julio	2023-07-31T00:00:00	2024-11-06T05:00:00	7	Dirección del viento	4.83
168999	7	Sololá	701	Sololá	2	El tablón	7	Julio	2023-07-31T00:00:00	2024-11-06T05:00:00	1	Precipitación	0.2
169000	7	Sololá	701	Sololá	2	El tablón	7	Julio	2023-07-31T00:00:00	2024-11-06T05:00:00	8	Radiación solar	0
169001	7	Sololá	701	Sololá	2	El tablón	7	Julio	2023-07-31T00:00:00	2024-11-06T06:00:00	2	Temperatura media	13.1
169002	7	Sololá	701	Sololá	2	El tablón	7	Julio	2023-07-31T00:00:00	2024-11-06T06:00:00	4	Temperatura máxima	13.1
169003	7	Sololá	701	Sololá	2	El tablón	7	Julio	2023-07-31T00:00:00	2024-11-06T06:00:00	3	Temperatura mínima	11.9
169004	7	Sololá	701	Sololá	2	El tablón	7	Julio	2023-07-31T00:00:00	2024-11-06T06:00:00	5	Humedad	83
169005	7	Sololá	701	Sololá	2	El tablón	7	Julio	2023-07-31T00:00:00	2024-11-06T06:00:00	6	Velocidad del viento	4.8
169006	7	Sololá	701	Sololá	2	El tablón	7	Julio	2023-07-31T00:00:00	2024-11-06T06:00:00	7	Dirección del viento	4.83
169007	7	Sololá	701	Sololá	2	El tablón	7	Julio	2023-07-31T00:00:00	2024-11-06T06:00:00	1	Precipitación	0
169008	7	Sololá	701	Sololá	2	El tablón	7	Julio	2023-07-31T00:00:00	2024-11-06T06:00:00	8	Radiación solar	1
169009	7	Sololá	701	Sololá	2	El tablón	7	Julio	2023-07-31T00:00:00	2024-11-06T07:00:00	2	Temperatura media	14.7
169010	7	Sololá	701	Sololá	2	El tablón	7	Julio	2023-07-31T00:00:00	2024-11-06T07:00:00	4	Temperatura máxima	14.7
169011	7	Sololá	701	Sololá	2	El tablón	7	Julio	2023-07-31T00:00:00	2024-11-06T07:00:00	3	Temperatura mínima	13.1
169012	7	Sololá	701	Sololá	2	El tablón	7	Julio	2023-07-31T00:00:00	2024-11-06T07:00:00	5	Humedad	78
169013	7	Sololá	701	Sololá	2	El tablón	7	Julio	2023-07-31T00:00:00	2024-11-06T07:00:00	6	Velocidad del viento	8
169014	7	Sololá	701	Sololá	2	El tablón	7	Julio	2023-07-31T00:00:00	2024-11-06T07:00:00	7	Dirección del viento	8.05
169015	7	Sololá	701	Sololá	2	El tablón	7	Julio	2023-07-31T00:00:00	2024-11-06T07:00:00	1	Precipitación	0
169016	7	Sololá	701	Sololá	2	El tablón	7	Julio	2023-07-31T00:00:00	2024-11-06T07:00:00	8	Radiación solar	90
169017	7	Sololá	701	Sololá	2	El tablón	7	Julio	2023-07-31T00:00:00	2024-11-06T08:00:00	2	Temperatura media	16.4
169018	7	Sololá	701	Sololá	2	El tablón	7	Julio	2023-07-31T00:00:00	2024-11-06T08:00:00	4	Temperatura máxima	16.5
169019	7	Sololá	701	Sololá	2	El tablón	7	Julio	2023-07-31T00:00:00	2024-11-06T08:00:00	3	Temperatura mínima	14.7
169020	7	Sololá	701	Sololá	2	El tablón	7	Julio	2023-07-31T00:00:00	2024-11-06T08:00:00	5	Humedad	75
169021	7	Sololá	701	Sololá	2	El tablón	7	Julio	2023-07-31T00:00:00	2024-11-06T08:00:00	6	Velocidad del viento	9.7
169022	7	Sololá	701	Sololá	2	El tablón	7	Julio	2023-07-31T00:00:00	2024-11-06T08:00:00	7	Dirección del viento	9.66
169023	7	Sololá	701	Sololá	2	El tablón	7	Julio	2023-07-31T00:00:00	2024-11-06T08:00:00	1	Precipitación	0
169024	7	Sololá	701	Sololá	2	El tablón	7	Julio	2023-07-31T00:00:00	2024-11-06T08:00:00	8	Radiación solar	237
169025	7	Sololá	701	Sololá	2	El tablón	7	Julio	2023-07-31T00:00:00	2024-11-06T09:00:00	2	Temperatura media	17.4
169026	7	Sololá	701	Sololá	2	El tablón	7	Julio	2023-07-31T00:00:00	2024-11-06T09:00:00	4	Temperatura máxima	17.4
169027	7	Sololá	701	Sololá	2	El tablón	7	Julio	2023-07-31T00:00:00	2024-11-06T09:00:00	3	Temperatura mínima	16.3
169028	7	Sololá	701	Sololá	2	El tablón	7	Julio	2023-07-31T00:00:00	2024-11-06T09:00:00	5	Humedad	71
169029	7	Sololá	701	Sololá	2	El tablón	7	Julio	2023-07-31T00:00:00	2024-11-06T09:00:00	6	Velocidad del viento	6.4
169030	7	Sololá	701	Sololá	2	El tablón	7	Julio	2023-07-31T00:00:00	2024-11-06T09:00:00	7	Dirección del viento	6.44
169031	7	Sololá	701	Sololá	2	El tablón	7	Julio	2023-07-31T00:00:00	2024-11-06T09:00:00	1	Precipitación	0
169032	7	Sololá	701	Sololá	2	El tablón	7	Julio	2023-07-31T00:00:00	2024-11-06T09:00:00	8	Radiación solar	285
169033	7	Sololá	701	Sololá	2	El tablón	7	Julio	2023-07-31T00:00:00	2024-11-06T10:00:00	2	Temperatura media	20.1
169034	7	Sololá	701	Sololá	2	El tablón	7	Julio	2023-07-31T00:00:00	2024-11-06T10:00:00	4	Temperatura máxima	20.1
169035	7	Sololá	701	Sololá	2	El tablón	7	Julio	2023-07-31T00:00:00	2024-11-06T10:00:00	3	Temperatura mínima	17.4
169036	7	Sololá	701	Sololá	2	El tablón	7	Julio	2023-07-31T00:00:00	2024-11-06T10:00:00	5	Humedad	67
169037	7	Sololá	701	Sololá	2	El tablón	7	Julio	2023-07-31T00:00:00	2024-11-06T10:00:00	6	Velocidad del viento	6.4
169038	7	Sololá	701	Sololá	2	El tablón	7	Julio	2023-07-31T00:00:00	2024-11-06T10:00:00	7	Dirección del viento	6.44
169039	7	Sololá	701	Sololá	2	El tablón	7	Julio	2023-07-31T00:00:00	2024-11-06T10:00:00	1	Precipitación	0
169040	7	Sololá	701	Sololá	2	El tablón	7	Julio	2023-07-31T00:00:00	2024-11-06T10:00:00	8	Radiación solar	712
169041	7	Sololá	701	Sololá	2	El tablón	7	Julio	2023-07-31T00:00:00	2024-11-06T11:00:00	2	Temperatura media	19.8
169042	7	Sololá	701	Sololá	2	El tablón	7	Julio	2023-07-31T00:00:00	2024-11-06T11:00:00	4	Temperatura máxima	20.3
169043	7	Sololá	701	Sololá	2	El tablón	7	Julio	2023-07-31T00:00:00	2024-11-06T11:00:00	3	Temperatura mínima	18.9
169044	7	Sololá	701	Sololá	2	El tablón	7	Julio	2023-07-31T00:00:00	2024-11-06T11:00:00	5	Humedad	66
169045	7	Sololá	701	Sololá	2	El tablón	7	Julio	2023-07-31T00:00:00	2024-11-06T11:00:00	6	Velocidad del viento	12.9
169046	7	Sololá	701	Sololá	2	El tablón	7	Julio	2023-07-31T00:00:00	2024-11-06T11:00:00	7	Dirección del viento	12.87
169047	7	Sololá	701	Sololá	2	El tablón	7	Julio	2023-07-31T00:00:00	2024-11-06T11:00:00	1	Precipitación	0
169048	7	Sololá	701	Sololá	2	El tablón	7	Julio	2023-07-31T00:00:00	2024-11-06T11:00:00	8	Radiación solar	738
169049	7	Sololá	701	Sololá	2	El tablón	7	Julio	2023-07-31T00:00:00	2024-11-06T12:00:00	2	Temperatura media	19.9
169050	7	Sololá	701	Sololá	2	El tablón	7	Julio	2023-07-31T00:00:00	2024-11-06T12:00:00	4	Temperatura máxima	20.1
169051	7	Sololá	701	Sololá	2	El tablón	7	Julio	2023-07-31T00:00:00	2024-11-06T12:00:00	3	Temperatura mínima	19.2
169052	7	Sololá	701	Sololá	2	El tablón	7	Julio	2023-07-31T00:00:00	2024-11-06T12:00:00	5	Humedad	69
169053	7	Sololá	701	Sololá	2	El tablón	7	Julio	2023-07-31T00:00:00	2024-11-06T12:00:00	6	Velocidad del viento	11.3
169054	7	Sololá	701	Sololá	2	El tablón	7	Julio	2023-07-31T00:00:00	2024-11-06T12:00:00	7	Dirección del viento	11.27
169055	7	Sololá	701	Sololá	2	El tablón	7	Julio	2023-07-31T00:00:00	2024-11-06T12:00:00	1	Precipitación	0
169056	7	Sololá	701	Sololá	2	El tablón	7	Julio	2023-07-31T00:00:00	2024-11-06T12:00:00	8	Radiación solar	627
169057	7	Sololá	701	Sololá	2	El tablón	7	Julio	2023-07-31T00:00:00	2024-11-06T13:00:00	2	Temperatura media	20.9
169058	7	Sololá	701	Sololá	2	El tablón	7	Julio	2023-07-31T00:00:00	2024-11-06T13:00:00	4	Temperatura máxima	20.9
169059	7	Sololá	701	Sololá	2	El tablón	7	Julio	2023-07-31T00:00:00	2024-11-06T13:00:00	3	Temperatura mínima	19.9
169060	7	Sololá	701	Sololá	2	El tablón	7	Julio	2023-07-31T00:00:00	2024-11-06T13:00:00	5	Humedad	63
169061	7	Sololá	701	Sololá	2	El tablón	7	Julio	2023-07-31T00:00:00	2024-11-06T13:00:00	6	Velocidad del viento	11.3
169062	7	Sololá	701	Sololá	2	El tablón	7	Julio	2023-07-31T00:00:00	2024-11-06T13:00:00	7	Dirección del viento	11.27
169063	7	Sololá	701	Sololá	2	El tablón	7	Julio	2023-07-31T00:00:00	2024-11-06T13:00:00	1	Precipitación	0
169064	7	Sololá	701	Sololá	2	El tablón	7	Julio	2023-07-31T00:00:00	2024-11-06T13:00:00	8	Radiación solar	942
169065	7	Sololá	701	Sololá	2	El tablón	7	Julio	2023-07-31T00:00:00	2024-11-06T14:00:00	2	Temperatura media	21.4
169066	7	Sololá	701	Sololá	2	El tablón	7	Julio	2023-07-31T00:00:00	2024-11-06T14:00:00	4	Temperatura máxima	21.5
169067	7	Sololá	701	Sololá	2	El tablón	7	Julio	2023-07-31T00:00:00	2024-11-06T14:00:00	3	Temperatura mínima	20.6
169068	7	Sololá	701	Sololá	2	El tablón	7	Julio	2023-07-31T00:00:00	2024-11-06T14:00:00	5	Humedad	64
169069	7	Sololá	701	Sololá	2	El tablón	7	Julio	2023-07-31T00:00:00	2024-11-06T14:00:00	6	Velocidad del viento	9.7
169070	7	Sololá	701	Sololá	2	El tablón	7	Julio	2023-07-31T00:00:00	2024-11-06T14:00:00	7	Dirección del viento	9.66
169071	7	Sololá	701	Sololá	2	El tablón	7	Julio	2023-07-31T00:00:00	2024-11-06T14:00:00	1	Precipitación	0
169072	7	Sololá	701	Sololá	2	El tablón	7	Julio	2023-07-31T00:00:00	2024-11-06T14:00:00	8	Radiación solar	967
169073	7	Sololá	701	Sololá	2	El tablón	7	Julio	2023-07-31T00:00:00	2024-11-06T15:00:00	2	Temperatura media	21.1
169074	7	Sololá	701	Sololá	2	El tablón	7	Julio	2023-07-31T00:00:00	2024-11-06T15:00:00	4	Temperatura máxima	21.4
169075	7	Sololá	701	Sololá	2	El tablón	7	Julio	2023-07-31T00:00:00	2024-11-06T15:00:00	3	Temperatura mínima	21.1
169076	7	Sololá	701	Sololá	2	El tablón	7	Julio	2023-07-31T00:00:00	2024-11-06T15:00:00	5	Humedad	67
169077	7	Sololá	701	Sololá	2	El tablón	7	Julio	2023-07-31T00:00:00	2024-11-06T15:00:00	6	Velocidad del viento	8
169078	7	Sololá	701	Sololá	2	El tablón	7	Julio	2023-07-31T00:00:00	2024-11-06T15:00:00	7	Dirección del viento	8.05
169079	7	Sololá	701	Sololá	2	El tablón	7	Julio	2023-07-31T00:00:00	2024-11-06T15:00:00	1	Precipitación	0
169080	7	Sololá	701	Sololá	2	El tablón	7	Julio	2023-07-31T00:00:00	2024-11-06T15:00:00	8	Radiación solar	830
169081	7	Sololá	701	Sololá	2	El tablón	7	Julio	2023-07-31T00:00:00	2024-11-06T16:00:00	2	Temperatura media	20.7
169082	7	Sololá	701	Sololá	2	El tablón	7	Julio	2023-07-31T00:00:00	2024-11-06T16:00:00	4	Temperatura máxima	21.1
169083	7	Sololá	701	Sololá	2	El tablón	7	Julio	2023-07-31T00:00:00	2024-11-06T16:00:00	3	Temperatura mínima	20.4
169084	7	Sololá	701	Sololá	2	El tablón	7	Julio	2023-07-31T00:00:00	2024-11-06T16:00:00	5	Humedad	66
169085	7	Sololá	701	Sololá	2	El tablón	7	Julio	2023-07-31T00:00:00	2024-11-06T16:00:00	6	Velocidad del viento	9.7
169086	7	Sololá	701	Sololá	2	El tablón	7	Julio	2023-07-31T00:00:00	2024-11-06T16:00:00	7	Dirección del viento	9.66
169087	7	Sololá	701	Sololá	2	El tablón	7	Julio	2023-07-31T00:00:00	2024-11-06T16:00:00	1	Precipitación	0
169088	7	Sololá	701	Sololá	2	El tablón	7	Julio	2023-07-31T00:00:00	2024-11-06T16:00:00	8	Radiación solar	702
169089	7	Sololá	701	Sololá	2	El tablón	7	Julio	2023-07-31T00:00:00	2024-11-06T17:00:00	2	Temperatura media	17.6
169090	7	Sololá	701	Sololá	2	El tablón	7	Julio	2023-07-31T00:00:00	2024-11-06T17:00:00	4	Temperatura máxima	20.8
169091	7	Sololá	701	Sololá	2	El tablón	7	Julio	2023-07-31T00:00:00	2024-11-06T17:00:00	3	Temperatura mínima	17.6
169092	7	Sololá	701	Sololá	2	El tablón	7	Julio	2023-07-31T00:00:00	2024-11-06T17:00:00	5	Humedad	86
169093	7	Sololá	701	Sololá	2	El tablón	7	Julio	2023-07-31T00:00:00	2024-11-06T17:00:00	6	Velocidad del viento	6.4
169094	7	Sololá	701	Sololá	2	El tablón	7	Julio	2023-07-31T00:00:00	2024-11-06T17:00:00	7	Dirección del viento	6.44
169095	7	Sololá	701	Sololá	2	El tablón	7	Julio	2023-07-31T00:00:00	2024-11-06T17:00:00	1	Precipitación	0
169096	7	Sololá	701	Sololá	2	El tablón	7	Julio	2023-07-31T00:00:00	2024-11-06T17:00:00	8	Radiación solar	376
169097	7	Sololá	701	Sololá	2	El tablón	7	Julio	2023-07-31T00:00:00	2024-11-06T18:00:00	2	Temperatura media	16.8
169098	7	Sololá	701	Sololá	2	El tablón	7	Julio	2023-07-31T00:00:00	2024-11-06T18:00:00	4	Temperatura máxima	17.6
169099	7	Sololá	701	Sololá	2	El tablón	7	Julio	2023-07-31T00:00:00	2024-11-06T18:00:00	3	Temperatura mínima	16.8
169100	7	Sololá	701	Sololá	2	El tablón	7	Julio	2023-07-31T00:00:00	2024-11-06T18:00:00	5	Humedad	87
169101	7	Sololá	701	Sololá	2	El tablón	7	Julio	2023-07-31T00:00:00	2024-11-06T18:00:00	6	Velocidad del viento	4.8
169102	7	Sololá	701	Sololá	2	El tablón	7	Julio	2023-07-31T00:00:00	2024-11-06T18:00:00	7	Dirección del viento	4.83
169103	7	Sololá	701	Sololá	2	El tablón	7	Julio	2023-07-31T00:00:00	2024-11-06T18:00:00	1	Precipitación	3.8
169104	7	Sololá	701	Sololá	2	El tablón	7	Julio	2023-07-31T00:00:00	2024-11-06T18:00:00	8	Radiación solar	102
169105	7	Sololá	701	Sololá	2	El tablón	7	Julio	2023-07-31T00:00:00	2024-11-06T19:00:00	2	Temperatura media	15.1
169106	7	Sololá	701	Sololá	2	El tablón	7	Julio	2023-07-31T00:00:00	2024-11-06T19:00:00	4	Temperatura máxima	16.8
169107	7	Sololá	701	Sololá	2	El tablón	7	Julio	2023-07-31T00:00:00	2024-11-06T19:00:00	3	Temperatura mínima	14.8
169108	7	Sololá	701	Sololá	2	El tablón	7	Julio	2023-07-31T00:00:00	2024-11-06T19:00:00	5	Humedad	88
169109	7	Sololá	701	Sololá	2	El tablón	7	Julio	2023-07-31T00:00:00	2024-11-06T19:00:00	6	Velocidad del viento	4.8
169110	7	Sololá	701	Sololá	2	El tablón	7	Julio	2023-07-31T00:00:00	2024-11-06T19:00:00	7	Dirección del viento	4.83
169111	7	Sololá	701	Sololá	2	El tablón	7	Julio	2023-07-31T00:00:00	2024-11-06T19:00:00	1	Precipitación	1.6
169112	7	Sololá	701	Sololá	2	El tablón	7	Julio	2023-07-31T00:00:00	2024-11-06T19:00:00	8	Radiación solar	0
169113	7	Sololá	701	Sololá	2	El tablón	7	Julio	2023-07-31T00:00:00	2024-11-06T20:00:00	2	Temperatura media	14.9
169114	7	Sololá	701	Sololá	2	El tablón	7	Julio	2023-07-31T00:00:00	2024-11-06T20:00:00	4	Temperatura máxima	15.1
169115	7	Sololá	701	Sololá	2	El tablón	7	Julio	2023-07-31T00:00:00	2024-11-06T20:00:00	3	Temperatura mínima	14.8
169116	7	Sololá	701	Sololá	2	El tablón	7	Julio	2023-07-31T00:00:00	2024-11-06T20:00:00	5	Humedad	88
169117	7	Sololá	701	Sololá	2	El tablón	7	Julio	2023-07-31T00:00:00	2024-11-06T20:00:00	6	Velocidad del viento	4.8
169118	7	Sololá	701	Sololá	2	El tablón	7	Julio	2023-07-31T00:00:00	2024-11-06T20:00:00	7	Dirección del viento	4.83
169119	7	Sololá	701	Sololá	2	El tablón	7	Julio	2023-07-31T00:00:00	2024-11-06T20:00:00	1	Precipitación	0
169120	7	Sololá	701	Sololá	2	El tablón	7	Julio	2023-07-31T00:00:00	2024-11-06T20:00:00	8	Radiación solar	0
169121	7	Sololá	701	Sololá	2	El tablón	7	Julio	2023-07-31T00:00:00	2024-11-06T21:00:00	2	Temperatura media	14.7
169122	7	Sololá	701	Sololá	2	El tablón	7	Julio	2023-07-31T00:00:00	2024-11-06T21:00:00	4	Temperatura máxima	14.9
169123	7	Sololá	701	Sololá	2	El tablón	7	Julio	2023-07-31T00:00:00	2024-11-06T21:00:00	3	Temperatura mínima	14.7
169124	7	Sololá	701	Sololá	2	El tablón	7	Julio	2023-07-31T00:00:00	2024-11-06T21:00:00	5	Humedad	87
169125	7	Sololá	701	Sololá	2	El tablón	7	Julio	2023-07-31T00:00:00	2024-11-06T21:00:00	6	Velocidad del viento	9.7
169126	7	Sololá	701	Sololá	2	El tablón	7	Julio	2023-07-31T00:00:00	2024-11-06T21:00:00	7	Dirección del viento	9.66
169127	7	Sololá	701	Sololá	2	El tablón	7	Julio	2023-07-31T00:00:00	2024-11-06T21:00:00	1	Precipitación	0.2
169128	7	Sololá	701	Sololá	2	El tablón	7	Julio	2023-07-31T00:00:00	2024-11-06T21:00:00	8	Radiación solar	0
169129	7	Sololá	701	Sololá	2	El tablón	7	Julio	2023-07-31T00:00:00	2024-11-06T22:00:00	2	Temperatura media	14
169130	7	Sololá	701	Sololá	2	El tablón	7	Julio	2023-07-31T00:00:00	2024-11-06T22:00:00	4	Temperatura máxima	14.7
169131	7	Sololá	701	Sololá	2	El tablón	7	Julio	2023-07-31T00:00:00	2024-11-06T22:00:00	3	Temperatura mínima	13.9
169132	7	Sololá	701	Sololá	2	El tablón	7	Julio	2023-07-31T00:00:00	2024-11-06T22:00:00	5	Humedad	88
169133	7	Sololá	701	Sololá	2	El tablón	7	Julio	2023-07-31T00:00:00	2024-11-06T22:00:00	6	Velocidad del viento	4.8
169134	7	Sololá	701	Sololá	2	El tablón	7	Julio	2023-07-31T00:00:00	2024-11-06T22:00:00	7	Dirección del viento	4.83
169135	7	Sololá	701	Sololá	2	El tablón	7	Julio	2023-07-31T00:00:00	2024-11-06T22:00:00	1	Precipitación	0
169136	7	Sololá	701	Sololá	2	El tablón	7	Julio	2023-07-31T00:00:00	2024-11-06T22:00:00	8	Radiación solar	0
169137	7	Sololá	701	Sololá	2	El tablón	7	Julio	2023-07-31T00:00:00	2024-11-06T23:00:00	2	Temperatura media	14
169138	7	Sololá	701	Sololá	2	El tablón	7	Julio	2023-07-31T00:00:00	2024-11-06T23:00:00	4	Temperatura máxima	14
169139	7	Sololá	701	Sololá	2	El tablón	7	Julio	2023-07-31T00:00:00	2024-11-06T23:00:00	3	Temperatura mínima	13.8
169140	7	Sololá	701	Sololá	2	El tablón	7	Julio	2023-07-31T00:00:00	2024-11-06T23:00:00	5	Humedad	88
169141	7	Sololá	701	Sololá	2	El tablón	7	Julio	2023-07-31T00:00:00	2024-11-06T23:00:00	6	Velocidad del viento	6.4
169142	7	Sololá	701	Sololá	2	El tablón	7	Julio	2023-07-31T00:00:00	2024-11-06T23:00:00	7	Dirección del viento	6.44
169143	7	Sololá	701	Sololá	2	El tablón	7	Julio	2023-07-31T00:00:00	2024-11-06T23:00:00	1	Precipitación	0
169144	7	Sololá	701	Sololá	2	El tablón	7	Julio	2023-07-31T00:00:00	2024-11-06T23:00:00	8	Radiación solar	0
169145	7	Sololá	701	Sololá	2	El tablón	8	Agosto	2023-01-08T00:00:00	2024-11-06T00:00:00	2	Temperatura media	14.3
169146	7	Sololá	701	Sololá	2	El tablón	8	Agosto	2023-01-08T00:00:00	2024-11-06T00:00:00	4	Temperatura máxima	14.3
169147	7	Sololá	701	Sololá	2	El tablón	8	Agosto	2023-01-08T00:00:00	2024-11-06T00:00:00	3	Temperatura mínima	14
169148	7	Sololá	701	Sololá	2	El tablón	8	Agosto	2023-01-08T00:00:00	2024-11-06T00:00:00	5	Humedad	88
169149	7	Sololá	701	Sololá	2	El tablón	8	Agosto	2023-01-08T00:00:00	2024-11-06T00:00:00	6	Velocidad del viento	6.4
169150	7	Sololá	701	Sololá	2	El tablón	8	Agosto	2023-01-08T00:00:00	2024-11-06T00:00:00	7	Dirección del viento	6.44
169151	7	Sololá	701	Sololá	2	El tablón	8	Agosto	2023-01-08T00:00:00	2024-11-06T00:00:00	1	Precipitación	0
169152	7	Sololá	701	Sololá	2	El tablón	8	Agosto	2023-01-08T00:00:00	2024-11-06T00:00:00	8	Radiación solar	0
169153	7	Sololá	701	Sololá	2	El tablón	8	Agosto	2023-01-08T00:00:00	2024-11-06T01:00:00	2	Temperatura media	14.1
169154	7	Sololá	701	Sololá	2	El tablón	8	Agosto	2023-01-08T00:00:00	2024-11-06T01:00:00	4	Temperatura máxima	14.3
169155	7	Sololá	701	Sololá	2	El tablón	8	Agosto	2023-01-08T00:00:00	2024-11-06T01:00:00	3	Temperatura mínima	14.1
169156	7	Sololá	701	Sololá	2	El tablón	8	Agosto	2023-01-08T00:00:00	2024-11-06T01:00:00	5	Humedad	88
169157	7	Sololá	701	Sololá	2	El tablón	8	Agosto	2023-01-08T00:00:00	2024-11-06T01:00:00	6	Velocidad del viento	6.4
169158	7	Sololá	701	Sololá	2	El tablón	8	Agosto	2023-01-08T00:00:00	2024-11-06T01:00:00	7	Dirección del viento	6.44
169159	7	Sololá	701	Sololá	2	El tablón	8	Agosto	2023-01-08T00:00:00	2024-11-06T01:00:00	1	Precipitación	0
169160	7	Sololá	701	Sololá	2	El tablón	8	Agosto	2023-01-08T00:00:00	2024-11-06T01:00:00	8	Radiación solar	0
169161	7	Sololá	701	Sololá	2	El tablón	8	Agosto	2023-01-08T00:00:00	2024-11-06T02:00:00	2	Temperatura media	13.7
169162	7	Sololá	701	Sololá	2	El tablón	8	Agosto	2023-01-08T00:00:00	2024-11-06T02:00:00	4	Temperatura máxima	14.1
169163	7	Sololá	701	Sololá	2	El tablón	8	Agosto	2023-01-08T00:00:00	2024-11-06T02:00:00	3	Temperatura mínima	13.7
169164	7	Sololá	701	Sololá	2	El tablón	8	Agosto	2023-01-08T00:00:00	2024-11-06T02:00:00	5	Humedad	88
169165	7	Sololá	701	Sololá	2	El tablón	8	Agosto	2023-01-08T00:00:00	2024-11-06T02:00:00	6	Velocidad del viento	6.4
169166	7	Sololá	701	Sololá	2	El tablón	8	Agosto	2023-01-08T00:00:00	2024-11-06T02:00:00	7	Dirección del viento	6.44
169167	7	Sololá	701	Sololá	2	El tablón	8	Agosto	2023-01-08T00:00:00	2024-11-06T02:00:00	1	Precipitación	0
169168	7	Sololá	701	Sololá	2	El tablón	8	Agosto	2023-01-08T00:00:00	2024-11-06T02:00:00	8	Radiación solar	0
169169	7	Sololá	701	Sololá	2	El tablón	8	Agosto	2023-01-08T00:00:00	2024-11-06T03:00:00	2	Temperatura media	13.2
169170	7	Sololá	701	Sololá	2	El tablón	8	Agosto	2023-01-08T00:00:00	2024-11-06T03:00:00	4	Temperatura máxima	13.7
169171	7	Sololá	701	Sololá	2	El tablón	8	Agosto	2023-01-08T00:00:00	2024-11-06T03:00:00	3	Temperatura mínima	13.2
169172	7	Sololá	701	Sololá	2	El tablón	8	Agosto	2023-01-08T00:00:00	2024-11-06T03:00:00	5	Humedad	88
169173	7	Sololá	701	Sololá	2	El tablón	8	Agosto	2023-01-08T00:00:00	2024-11-06T03:00:00	6	Velocidad del viento	8
169174	7	Sololá	701	Sololá	2	El tablón	8	Agosto	2023-01-08T00:00:00	2024-11-06T03:00:00	7	Dirección del viento	8.05
169175	7	Sololá	701	Sololá	2	El tablón	8	Agosto	2023-01-08T00:00:00	2024-11-06T03:00:00	1	Precipitación	0.6
169176	7	Sololá	701	Sololá	2	El tablón	8	Agosto	2023-01-08T00:00:00	2024-11-06T03:00:00	8	Radiación solar	0
169177	7	Sololá	701	Sololá	2	El tablón	8	Agosto	2023-01-08T00:00:00	2024-11-06T04:00:00	2	Temperatura media	13.3
169178	7	Sololá	701	Sololá	2	El tablón	8	Agosto	2023-01-08T00:00:00	2024-11-06T04:00:00	4	Temperatura máxima	13.3
169179	7	Sololá	701	Sololá	2	El tablón	8	Agosto	2023-01-08T00:00:00	2024-11-06T04:00:00	3	Temperatura mínima	13.2
169180	7	Sololá	701	Sololá	2	El tablón	8	Agosto	2023-01-08T00:00:00	2024-11-06T04:00:00	5	Humedad	88
169181	7	Sololá	701	Sololá	2	El tablón	8	Agosto	2023-01-08T00:00:00	2024-11-06T04:00:00	6	Velocidad del viento	6.4
169182	7	Sololá	701	Sololá	2	El tablón	8	Agosto	2023-01-08T00:00:00	2024-11-06T04:00:00	7	Dirección del viento	6.44
169183	7	Sololá	701	Sololá	2	El tablón	8	Agosto	2023-01-08T00:00:00	2024-11-06T04:00:00	1	Precipitación	0
169184	7	Sololá	701	Sololá	2	El tablón	8	Agosto	2023-01-08T00:00:00	2024-11-06T04:00:00	8	Radiación solar	0
169185	7	Sololá	701	Sololá	2	El tablón	8	Agosto	2023-01-08T00:00:00	2024-11-06T05:00:00	2	Temperatura media	13.4
169186	7	Sololá	701	Sololá	2	El tablón	8	Agosto	2023-01-08T00:00:00	2024-11-06T05:00:00	4	Temperatura máxima	13.4
169187	7	Sololá	701	Sololá	2	El tablón	8	Agosto	2023-01-08T00:00:00	2024-11-06T05:00:00	3	Temperatura mínima	12.9
169188	7	Sololá	701	Sololá	2	El tablón	8	Agosto	2023-01-08T00:00:00	2024-11-06T05:00:00	5	Humedad	88
169189	7	Sololá	701	Sololá	2	El tablón	8	Agosto	2023-01-08T00:00:00	2024-11-06T05:00:00	6	Velocidad del viento	3.2
169190	7	Sololá	701	Sololá	2	El tablón	8	Agosto	2023-01-08T00:00:00	2024-11-06T05:00:00	7	Dirección del viento	3.22
169191	7	Sololá	701	Sololá	2	El tablón	8	Agosto	2023-01-08T00:00:00	2024-11-06T05:00:00	1	Precipitación	0
169192	7	Sololá	701	Sololá	2	El tablón	8	Agosto	2023-01-08T00:00:00	2024-11-06T05:00:00	8	Radiación solar	0
169193	7	Sololá	701	Sololá	2	El tablón	8	Agosto	2023-01-08T00:00:00	2024-11-06T06:00:00	2	Temperatura media	13.2
169194	7	Sololá	701	Sololá	2	El tablón	8	Agosto	2023-01-08T00:00:00	2024-11-06T06:00:00	4	Temperatura máxima	13.6
169195	7	Sololá	701	Sololá	2	El tablón	8	Agosto	2023-01-08T00:00:00	2024-11-06T06:00:00	3	Temperatura mínima	13.2
169196	7	Sololá	701	Sololá	2	El tablón	8	Agosto	2023-01-08T00:00:00	2024-11-06T06:00:00	5	Humedad	88
169197	7	Sololá	701	Sololá	2	El tablón	8	Agosto	2023-01-08T00:00:00	2024-11-06T06:00:00	6	Velocidad del viento	8
169198	7	Sololá	701	Sololá	2	El tablón	8	Agosto	2023-01-08T00:00:00	2024-11-06T06:00:00	7	Dirección del viento	8.05
169199	7	Sololá	701	Sololá	2	El tablón	8	Agosto	2023-01-08T00:00:00	2024-11-06T06:00:00	1	Precipitación	0
169200	7	Sololá	701	Sololá	2	El tablón	8	Agosto	2023-01-08T00:00:00	2024-11-06T06:00:00	8	Radiación solar	1
169201	7	Sololá	701	Sololá	2	El tablón	8	Agosto	2023-01-08T00:00:00	2024-11-06T07:00:00	2	Temperatura media	13.6
169202	7	Sololá	701	Sololá	2	El tablón	8	Agosto	2023-01-08T00:00:00	2024-11-06T07:00:00	4	Temperatura máxima	13.6
169203	7	Sololá	701	Sololá	2	El tablón	8	Agosto	2023-01-08T00:00:00	2024-11-06T07:00:00	3	Temperatura mínima	13.2
169204	7	Sololá	701	Sololá	2	El tablón	8	Agosto	2023-01-08T00:00:00	2024-11-06T07:00:00	5	Humedad	87
169205	7	Sololá	701	Sololá	2	El tablón	8	Agosto	2023-01-08T00:00:00	2024-11-06T07:00:00	6	Velocidad del viento	6.4
169206	7	Sololá	701	Sololá	2	El tablón	8	Agosto	2023-01-08T00:00:00	2024-11-06T07:00:00	7	Dirección del viento	6.44
169207	7	Sololá	701	Sololá	2	El tablón	8	Agosto	2023-01-08T00:00:00	2024-11-06T07:00:00	1	Precipitación	0
169208	7	Sololá	701	Sololá	2	El tablón	8	Agosto	2023-01-08T00:00:00	2024-11-06T07:00:00	8	Radiación solar	37
169209	7	Sololá	701	Sololá	2	El tablón	8	Agosto	2023-01-08T00:00:00	2024-11-06T08:00:00	2	Temperatura media	16.5
169210	7	Sololá	701	Sololá	2	El tablón	8	Agosto	2023-01-08T00:00:00	2024-11-06T08:00:00	4	Temperatura máxima	16.6
169211	7	Sololá	701	Sololá	2	El tablón	8	Agosto	2023-01-08T00:00:00	2024-11-06T08:00:00	3	Temperatura mínima	13.6
169212	7	Sololá	701	Sololá	2	El tablón	8	Agosto	2023-01-08T00:00:00	2024-11-06T08:00:00	5	Humedad	80
169213	7	Sololá	701	Sololá	2	El tablón	8	Agosto	2023-01-08T00:00:00	2024-11-06T08:00:00	6	Velocidad del viento	6.4
169214	7	Sololá	701	Sololá	2	El tablón	8	Agosto	2023-01-08T00:00:00	2024-11-06T08:00:00	7	Dirección del viento	6.44
169215	7	Sololá	701	Sololá	2	El tablón	8	Agosto	2023-01-08T00:00:00	2024-11-06T08:00:00	1	Precipitación	0
169216	7	Sololá	701	Sololá	2	El tablón	8	Agosto	2023-01-08T00:00:00	2024-11-06T08:00:00	8	Radiación solar	392
169217	7	Sololá	701	Sololá	2	El tablón	8	Agosto	2023-01-08T00:00:00	2024-11-06T09:00:00	2	Temperatura media	17.1
169218	7	Sololá	701	Sololá	2	El tablón	8	Agosto	2023-01-08T00:00:00	2024-11-06T09:00:00	4	Temperatura máxima	17.1
169219	7	Sololá	701	Sololá	2	El tablón	8	Agosto	2023-01-08T00:00:00	2024-11-06T09:00:00	3	Temperatura mínima	15.6
169220	7	Sololá	701	Sololá	2	El tablón	8	Agosto	2023-01-08T00:00:00	2024-11-06T09:00:00	5	Humedad	78
169221	7	Sololá	701	Sololá	2	El tablón	8	Agosto	2023-01-08T00:00:00	2024-11-06T09:00:00	6	Velocidad del viento	8
169222	7	Sololá	701	Sololá	2	El tablón	8	Agosto	2023-01-08T00:00:00	2024-11-06T09:00:00	7	Dirección del viento	8.05
169223	7	Sololá	701	Sololá	2	El tablón	8	Agosto	2023-01-08T00:00:00	2024-11-06T09:00:00	1	Precipitación	0
169224	7	Sololá	701	Sololá	2	El tablón	8	Agosto	2023-01-08T00:00:00	2024-11-06T09:00:00	8	Radiación solar	395
169225	7	Sololá	701	Sololá	2	El tablón	8	Agosto	2023-01-08T00:00:00	2024-11-06T10:00:00	2	Temperatura media	18.3
169226	7	Sololá	701	Sololá	2	El tablón	8	Agosto	2023-01-08T00:00:00	2024-11-06T10:00:00	4	Temperatura máxima	18.3
169227	7	Sololá	701	Sololá	2	El tablón	8	Agosto	2023-01-08T00:00:00	2024-11-06T10:00:00	3	Temperatura mínima	17.1
169228	7	Sololá	701	Sololá	2	El tablón	8	Agosto	2023-01-08T00:00:00	2024-11-06T10:00:00	5	Humedad	72
169229	7	Sololá	701	Sololá	2	El tablón	8	Agosto	2023-01-08T00:00:00	2024-11-06T10:00:00	6	Velocidad del viento	9.7
169230	7	Sololá	701	Sololá	2	El tablón	8	Agosto	2023-01-08T00:00:00	2024-11-06T10:00:00	7	Dirección del viento	9.66
169231	7	Sololá	701	Sololá	2	El tablón	8	Agosto	2023-01-08T00:00:00	2024-11-06T10:00:00	1	Precipitación	0
169232	7	Sololá	701	Sololá	2	El tablón	8	Agosto	2023-01-08T00:00:00	2024-11-06T10:00:00	8	Radiación solar	707
169233	7	Sololá	701	Sololá	2	El tablón	8	Agosto	2023-01-08T00:00:00	2024-11-06T11:00:00	2	Temperatura media	20.1
169234	7	Sololá	701	Sololá	2	El tablón	8	Agosto	2023-01-08T00:00:00	2024-11-06T11:00:00	4	Temperatura máxima	20.3
169235	7	Sololá	701	Sololá	2	El tablón	8	Agosto	2023-01-08T00:00:00	2024-11-06T11:00:00	3	Temperatura mínima	18.3
169236	7	Sololá	701	Sololá	2	El tablón	8	Agosto	2023-01-08T00:00:00	2024-11-06T11:00:00	5	Humedad	67
169237	7	Sololá	701	Sololá	2	El tablón	8	Agosto	2023-01-08T00:00:00	2024-11-06T11:00:00	6	Velocidad del viento	9.7
169238	7	Sololá	701	Sololá	2	El tablón	8	Agosto	2023-01-08T00:00:00	2024-11-06T11:00:00	7	Dirección del viento	9.66
169239	7	Sololá	701	Sololá	2	El tablón	8	Agosto	2023-01-08T00:00:00	2024-11-06T11:00:00	1	Precipitación	0
169240	7	Sololá	701	Sololá	2	El tablón	8	Agosto	2023-01-08T00:00:00	2024-11-06T11:00:00	8	Radiación solar	909
169241	7	Sololá	701	Sololá	2	El tablón	8	Agosto	2023-01-08T00:00:00	2024-11-06T12:00:00	2	Temperatura media	19.3
169242	7	Sololá	701	Sololá	2	El tablón	8	Agosto	2023-01-08T00:00:00	2024-11-06T12:00:00	4	Temperatura máxima	20.1
169243	7	Sololá	701	Sololá	2	El tablón	8	Agosto	2023-01-08T00:00:00	2024-11-06T12:00:00	3	Temperatura mínima	18.8
169244	7	Sololá	701	Sololá	2	El tablón	8	Agosto	2023-01-08T00:00:00	2024-11-06T12:00:00	5	Humedad	72
169245	7	Sololá	701	Sololá	2	El tablón	8	Agosto	2023-01-08T00:00:00	2024-11-06T12:00:00	6	Velocidad del viento	6.4
169246	7	Sololá	701	Sololá	2	El tablón	8	Agosto	2023-01-08T00:00:00	2024-11-06T12:00:00	7	Dirección del viento	6.44
169247	7	Sololá	701	Sololá	2	El tablón	8	Agosto	2023-01-08T00:00:00	2024-11-06T12:00:00	1	Precipitación	0
169248	7	Sololá	701	Sololá	2	El tablón	8	Agosto	2023-01-08T00:00:00	2024-11-06T12:00:00	8	Radiación solar	361
169249	7	Sololá	701	Sololá	2	El tablón	8	Agosto	2023-01-08T00:00:00	2024-11-06T13:00:00	2	Temperatura media	19.6
169250	7	Sololá	701	Sololá	2	El tablón	8	Agosto	2023-01-08T00:00:00	2024-11-06T13:00:00	4	Temperatura máxima	19.8
169251	7	Sololá	701	Sololá	2	El tablón	8	Agosto	2023-01-08T00:00:00	2024-11-06T13:00:00	3	Temperatura mínima	18.8
169252	7	Sololá	701	Sololá	2	El tablón	8	Agosto	2023-01-08T00:00:00	2024-11-06T13:00:00	5	Humedad	69
169253	7	Sololá	701	Sololá	2	El tablón	8	Agosto	2023-01-08T00:00:00	2024-11-06T13:00:00	6	Velocidad del viento	6.4
169254	7	Sololá	701	Sololá	2	El tablón	8	Agosto	2023-01-08T00:00:00	2024-11-06T13:00:00	7	Dirección del viento	6.44
169255	7	Sololá	701	Sololá	2	El tablón	8	Agosto	2023-01-08T00:00:00	2024-11-06T13:00:00	1	Precipitación	0
169256	7	Sololá	701	Sololá	2	El tablón	8	Agosto	2023-01-08T00:00:00	2024-11-06T13:00:00	8	Radiación solar	426
169257	7	Sololá	701	Sololá	2	El tablón	8	Agosto	2023-01-08T00:00:00	2024-11-06T14:00:00	2	Temperatura media	20.3
169258	7	Sololá	701	Sololá	2	El tablón	8	Agosto	2023-01-08T00:00:00	2024-11-06T14:00:00	4	Temperatura máxima	20.4
169259	7	Sololá	701	Sololá	2	El tablón	8	Agosto	2023-01-08T00:00:00	2024-11-06T14:00:00	3	Temperatura mínima	18.6
169260	7	Sololá	701	Sololá	2	El tablón	8	Agosto	2023-01-08T00:00:00	2024-11-06T14:00:00	5	Humedad	68
169261	7	Sololá	701	Sololá	2	El tablón	8	Agosto	2023-01-08T00:00:00	2024-11-06T14:00:00	6	Velocidad del viento	4.8
169262	7	Sololá	701	Sololá	2	El tablón	8	Agosto	2023-01-08T00:00:00	2024-11-06T14:00:00	7	Dirección del viento	4.83
169263	7	Sololá	701	Sololá	2	El tablón	8	Agosto	2023-01-08T00:00:00	2024-11-06T14:00:00	1	Precipitación	0
169264	7	Sololá	701	Sololá	2	El tablón	8	Agosto	2023-01-08T00:00:00	2024-11-06T14:00:00	8	Radiación solar	320
169265	7	Sololá	701	Sololá	2	El tablón	8	Agosto	2023-01-08T00:00:00	2024-11-06T15:00:00	2	Temperatura media	18.6
169266	7	Sololá	701	Sololá	2	El tablón	8	Agosto	2023-01-08T00:00:00	2024-11-06T15:00:00	4	Temperatura máxima	20.3
169267	7	Sololá	701	Sololá	2	El tablón	8	Agosto	2023-01-08T00:00:00	2024-11-06T15:00:00	3	Temperatura mínima	18.5
169268	7	Sololá	701	Sololá	2	El tablón	8	Agosto	2023-01-08T00:00:00	2024-11-06T15:00:00	5	Humedad	86
169269	7	Sololá	701	Sololá	2	El tablón	8	Agosto	2023-01-08T00:00:00	2024-11-06T15:00:00	6	Velocidad del viento	4.8
169270	7	Sololá	701	Sololá	2	El tablón	8	Agosto	2023-01-08T00:00:00	2024-11-06T15:00:00	7	Dirección del viento	4.83
169271	7	Sololá	701	Sololá	2	El tablón	8	Agosto	2023-01-08T00:00:00	2024-11-06T15:00:00	1	Precipitación	0
169272	7	Sololá	701	Sololá	2	El tablón	8	Agosto	2023-01-08T00:00:00	2024-11-06T15:00:00	8	Radiación solar	283
169273	7	Sololá	701	Sololá	2	El tablón	8	Agosto	2023-01-08T00:00:00	2024-11-06T16:00:00	2	Temperatura media	16.8
169274	7	Sololá	701	Sololá	2	El tablón	8	Agosto	2023-01-08T00:00:00	2024-11-06T16:00:00	4	Temperatura máxima	18.9
169275	7	Sololá	701	Sololá	2	El tablón	8	Agosto	2023-01-08T00:00:00	2024-11-06T16:00:00	3	Temperatura mínima	16.8
169276	7	Sololá	701	Sololá	2	El tablón	8	Agosto	2023-01-08T00:00:00	2024-11-06T16:00:00	5	Humedad	88
169277	7	Sololá	701	Sololá	2	El tablón	8	Agosto	2023-01-08T00:00:00	2024-11-06T16:00:00	6	Velocidad del viento	6.4
169278	7	Sololá	701	Sololá	2	El tablón	8	Agosto	2023-01-08T00:00:00	2024-11-06T16:00:00	7	Dirección del viento	6.44
169279	7	Sololá	701	Sololá	2	El tablón	8	Agosto	2023-01-08T00:00:00	2024-11-06T16:00:00	1	Precipitación	0
169280	7	Sololá	701	Sololá	2	El tablón	8	Agosto	2023-01-08T00:00:00	2024-11-06T16:00:00	8	Radiación solar	266
169281	7	Sololá	701	Sololá	2	El tablón	8	Agosto	2023-01-08T00:00:00	2024-11-06T17:00:00	2	Temperatura media	14.6
169282	7	Sololá	701	Sololá	2	El tablón	8	Agosto	2023-01-08T00:00:00	2024-11-06T17:00:00	4	Temperatura máxima	16.8
169283	7	Sololá	701	Sololá	2	El tablón	8	Agosto	2023-01-08T00:00:00	2024-11-06T17:00:00	3	Temperatura mínima	14.6
169284	7	Sololá	701	Sololá	2	El tablón	8	Agosto	2023-01-08T00:00:00	2024-11-06T17:00:00	5	Humedad	88
169285	7	Sololá	701	Sololá	2	El tablón	8	Agosto	2023-01-08T00:00:00	2024-11-06T17:00:00	6	Velocidad del viento	6.4
169286	7	Sololá	701	Sololá	2	El tablón	8	Agosto	2023-01-08T00:00:00	2024-11-06T17:00:00	7	Dirección del viento	6.44
169287	7	Sololá	701	Sololá	2	El tablón	8	Agosto	2023-01-08T00:00:00	2024-11-06T17:00:00	1	Precipitación	0.2
169288	7	Sololá	701	Sololá	2	El tablón	8	Agosto	2023-01-08T00:00:00	2024-11-06T17:00:00	8	Radiación solar	71
169289	7	Sololá	701	Sololá	2	El tablón	8	Agosto	2023-01-08T00:00:00	2024-11-06T18:00:00	2	Temperatura media	14.6
169290	7	Sololá	701	Sololá	2	El tablón	8	Agosto	2023-01-08T00:00:00	2024-11-06T18:00:00	4	Temperatura máxima	14.7
169291	7	Sololá	701	Sololá	2	El tablón	8	Agosto	2023-01-08T00:00:00	2024-11-06T18:00:00	3	Temperatura mínima	14.4
169292	7	Sololá	701	Sololá	2	El tablón	8	Agosto	2023-01-08T00:00:00	2024-11-06T18:00:00	5	Humedad	88
169293	7	Sololá	701	Sololá	2	El tablón	8	Agosto	2023-01-08T00:00:00	2024-11-06T18:00:00	6	Velocidad del viento	1.6
169294	7	Sololá	701	Sololá	2	El tablón	8	Agosto	2023-01-08T00:00:00	2024-11-06T18:00:00	7	Dirección del viento	1.61
169295	7	Sololá	701	Sololá	2	El tablón	8	Agosto	2023-01-08T00:00:00	2024-11-06T18:00:00	1	Precipitación	0.2
169296	7	Sololá	701	Sololá	2	El tablón	8	Agosto	2023-01-08T00:00:00	2024-11-06T18:00:00	8	Radiación solar	40
169297	7	Sololá	701	Sololá	2	El tablón	8	Agosto	2023-01-08T00:00:00	2024-11-06T19:00:00	2	Temperatura media	14.7
169298	7	Sololá	701	Sololá	2	El tablón	8	Agosto	2023-01-08T00:00:00	2024-11-06T19:00:00	4	Temperatura máxima	14.9
169299	7	Sololá	701	Sololá	2	El tablón	8	Agosto	2023-01-08T00:00:00	2024-11-06T19:00:00	3	Temperatura mínima	14.6
169300	7	Sololá	701	Sololá	2	El tablón	8	Agosto	2023-01-08T00:00:00	2024-11-06T19:00:00	5	Humedad	87
169301	7	Sololá	701	Sololá	2	El tablón	8	Agosto	2023-01-08T00:00:00	2024-11-06T19:00:00	6	Velocidad del viento	6.4
169302	7	Sololá	701	Sololá	2	El tablón	8	Agosto	2023-01-08T00:00:00	2024-11-06T19:00:00	7	Dirección del viento	6.44
169303	7	Sololá	701	Sololá	2	El tablón	8	Agosto	2023-01-08T00:00:00	2024-11-06T19:00:00	1	Precipitación	0
169304	7	Sololá	701	Sololá	2	El tablón	8	Agosto	2023-01-08T00:00:00	2024-11-06T19:00:00	8	Radiación solar	0
169305	7	Sololá	701	Sololá	2	El tablón	8	Agosto	2023-01-08T00:00:00	2024-11-06T20:00:00	2	Temperatura media	14.6
169306	7	Sololá	701	Sololá	2	El tablón	8	Agosto	2023-01-08T00:00:00	2024-11-06T20:00:00	4	Temperatura máxima	14.7
169307	7	Sololá	701	Sololá	2	El tablón	8	Agosto	2023-01-08T00:00:00	2024-11-06T20:00:00	3	Temperatura mínima	14.5
169308	7	Sololá	701	Sololá	2	El tablón	8	Agosto	2023-01-08T00:00:00	2024-11-06T20:00:00	5	Humedad	88
169309	7	Sololá	701	Sololá	2	El tablón	8	Agosto	2023-01-08T00:00:00	2024-11-06T20:00:00	6	Velocidad del viento	4.8
169310	7	Sololá	701	Sololá	2	El tablón	8	Agosto	2023-01-08T00:00:00	2024-11-06T20:00:00	7	Dirección del viento	4.83
169311	7	Sololá	701	Sololá	2	El tablón	8	Agosto	2023-01-08T00:00:00	2024-11-06T20:00:00	1	Precipitación	0
169312	7	Sololá	701	Sololá	2	El tablón	8	Agosto	2023-01-08T00:00:00	2024-11-06T20:00:00	8	Radiación solar	0
169313	7	Sololá	701	Sololá	2	El tablón	8	Agosto	2023-01-08T00:00:00	2024-11-06T21:00:00	2	Temperatura media	14.3
169314	7	Sololá	701	Sololá	2	El tablón	8	Agosto	2023-01-08T00:00:00	2024-11-06T21:00:00	4	Temperatura máxima	14.6
169315	7	Sololá	701	Sololá	2	El tablón	8	Agosto	2023-01-08T00:00:00	2024-11-06T21:00:00	3	Temperatura mínima	14.3
169316	7	Sololá	701	Sololá	2	El tablón	8	Agosto	2023-01-08T00:00:00	2024-11-06T21:00:00	5	Humedad	88
169317	7	Sololá	701	Sololá	2	El tablón	8	Agosto	2023-01-08T00:00:00	2024-11-06T21:00:00	6	Velocidad del viento	4.8
169318	7	Sololá	701	Sololá	2	El tablón	8	Agosto	2023-01-08T00:00:00	2024-11-06T21:00:00	7	Dirección del viento	4.83
169319	7	Sololá	701	Sololá	2	El tablón	8	Agosto	2023-01-08T00:00:00	2024-11-06T21:00:00	1	Precipitación	0.6
169320	7	Sololá	701	Sololá	2	El tablón	8	Agosto	2023-01-08T00:00:00	2024-11-06T21:00:00	8	Radiación solar	0
169321	7	Sololá	701	Sololá	2	El tablón	8	Agosto	2023-01-08T00:00:00	2024-11-06T22:00:00	2	Temperatura media	12.4
169322	7	Sololá	701	Sololá	2	El tablón	8	Agosto	2023-01-08T00:00:00	2024-11-06T22:00:00	4	Temperatura máxima	14.3
169323	7	Sololá	701	Sololá	2	El tablón	8	Agosto	2023-01-08T00:00:00	2024-11-06T22:00:00	3	Temperatura mínima	12.4
169324	7	Sololá	701	Sololá	2	El tablón	8	Agosto	2023-01-08T00:00:00	2024-11-06T22:00:00	5	Humedad	89
169325	7	Sololá	701	Sololá	2	El tablón	8	Agosto	2023-01-08T00:00:00	2024-11-06T22:00:00	6	Velocidad del viento	6.4
169326	7	Sololá	701	Sololá	2	El tablón	8	Agosto	2023-01-08T00:00:00	2024-11-06T22:00:00	7	Dirección del viento	6.44
169327	7	Sololá	701	Sololá	2	El tablón	8	Agosto	2023-01-08T00:00:00	2024-11-06T22:00:00	1	Precipitación	10.6
169328	7	Sololá	701	Sololá	2	El tablón	8	Agosto	2023-01-08T00:00:00	2024-11-06T22:00:00	8	Radiación solar	0
169329	7	Sololá	701	Sololá	2	El tablón	8	Agosto	2023-01-08T00:00:00	2024-11-06T23:00:00	2	Temperatura media	12.6
169330	7	Sololá	701	Sololá	2	El tablón	8	Agosto	2023-01-08T00:00:00	2024-11-06T23:00:00	4	Temperatura máxima	12.7
169331	7	Sololá	701	Sololá	2	El tablón	8	Agosto	2023-01-08T00:00:00	2024-11-06T23:00:00	3	Temperatura mínima	12.4
169332	7	Sololá	701	Sololá	2	El tablón	8	Agosto	2023-01-08T00:00:00	2024-11-06T23:00:00	5	Humedad	88
169333	7	Sololá	701	Sololá	2	El tablón	8	Agosto	2023-01-08T00:00:00	2024-11-06T23:00:00	6	Velocidad del viento	6.4
169334	7	Sololá	701	Sololá	2	El tablón	8	Agosto	2023-01-08T00:00:00	2024-11-06T23:00:00	7	Dirección del viento	6.44
169335	7	Sololá	701	Sololá	2	El tablón	8	Agosto	2023-01-08T00:00:00	2024-11-06T23:00:00	1	Precipitación	0.2
169336	7	Sololá	701	Sololá	2	El tablón	8	Agosto	2023-01-08T00:00:00	2024-11-06T23:00:00	8	Radiación solar	0
169337	7	Sololá	701	Sololá	2	El tablón	8	Agosto	2023-02-08T00:00:00	2024-11-06T00:00:00	2	Temperatura media	12.8
169338	7	Sololá	701	Sololá	2	El tablón	8	Agosto	2023-02-08T00:00:00	2024-11-06T00:00:00	4	Temperatura máxima	12.9
169339	7	Sololá	701	Sololá	2	El tablón	8	Agosto	2023-02-08T00:00:00	2024-11-06T00:00:00	3	Temperatura mínima	12.6
169340	7	Sololá	701	Sololá	2	El tablón	8	Agosto	2023-02-08T00:00:00	2024-11-06T00:00:00	5	Humedad	85
169341	7	Sololá	701	Sololá	2	El tablón	8	Agosto	2023-02-08T00:00:00	2024-11-06T00:00:00	6	Velocidad del viento	6.4
169342	7	Sololá	701	Sololá	2	El tablón	8	Agosto	2023-02-08T00:00:00	2024-11-06T00:00:00	7	Dirección del viento	6.44
169343	7	Sololá	701	Sololá	2	El tablón	8	Agosto	2023-02-08T00:00:00	2024-11-06T00:00:00	1	Precipitación	0
169344	7	Sololá	701	Sololá	2	El tablón	8	Agosto	2023-02-08T00:00:00	2024-11-06T00:00:00	8	Radiación solar	0
169345	7	Sololá	701	Sololá	2	El tablón	8	Agosto	2023-02-08T00:00:00	2024-11-06T01:00:00	2	Temperatura media	12.9
169346	7	Sololá	701	Sololá	2	El tablón	8	Agosto	2023-02-08T00:00:00	2024-11-06T01:00:00	4	Temperatura máxima	13.1
169347	7	Sololá	701	Sololá	2	El tablón	8	Agosto	2023-02-08T00:00:00	2024-11-06T01:00:00	3	Temperatura mínima	12.7
169348	7	Sololá	701	Sololá	2	El tablón	8	Agosto	2023-02-08T00:00:00	2024-11-06T01:00:00	5	Humedad	85
169349	7	Sololá	701	Sololá	2	El tablón	8	Agosto	2023-02-08T00:00:00	2024-11-06T01:00:00	6	Velocidad del viento	4.8
169350	7	Sololá	701	Sololá	2	El tablón	8	Agosto	2023-02-08T00:00:00	2024-11-06T01:00:00	7	Dirección del viento	4.83
169351	7	Sololá	701	Sololá	2	El tablón	8	Agosto	2023-02-08T00:00:00	2024-11-06T01:00:00	1	Precipitación	0
169352	7	Sololá	701	Sololá	2	El tablón	8	Agosto	2023-02-08T00:00:00	2024-11-06T01:00:00	8	Radiación solar	0
169353	7	Sololá	701	Sololá	2	El tablón	8	Agosto	2023-02-08T00:00:00	2024-11-06T02:00:00	2	Temperatura media	13.6
169354	7	Sololá	701	Sololá	2	El tablón	8	Agosto	2023-02-08T00:00:00	2024-11-06T02:00:00	4	Temperatura máxima	13.6
169355	7	Sololá	701	Sololá	2	El tablón	8	Agosto	2023-02-08T00:00:00	2024-11-06T02:00:00	3	Temperatura mínima	12.9
169356	7	Sololá	701	Sololá	2	El tablón	8	Agosto	2023-02-08T00:00:00	2024-11-06T02:00:00	5	Humedad	81
169357	7	Sololá	701	Sololá	2	El tablón	8	Agosto	2023-02-08T00:00:00	2024-11-06T02:00:00	6	Velocidad del viento	4.8
169358	7	Sololá	701	Sololá	2	El tablón	8	Agosto	2023-02-08T00:00:00	2024-11-06T02:00:00	7	Dirección del viento	4.83
169359	7	Sololá	701	Sololá	2	El tablón	8	Agosto	2023-02-08T00:00:00	2024-11-06T02:00:00	1	Precipitación	0
169360	7	Sololá	701	Sololá	2	El tablón	8	Agosto	2023-02-08T00:00:00	2024-11-06T02:00:00	8	Radiación solar	0
169361	7	Sololá	701	Sololá	2	El tablón	8	Agosto	2023-02-08T00:00:00	2024-11-06T03:00:00	2	Temperatura media	13.1
169362	7	Sololá	701	Sololá	2	El tablón	8	Agosto	2023-02-08T00:00:00	2024-11-06T03:00:00	4	Temperatura máxima	13.6
169363	7	Sololá	701	Sololá	2	El tablón	8	Agosto	2023-02-08T00:00:00	2024-11-06T03:00:00	3	Temperatura mínima	13.1
169364	7	Sololá	701	Sololá	2	El tablón	8	Agosto	2023-02-08T00:00:00	2024-11-06T03:00:00	5	Humedad	82
169365	7	Sololá	701	Sololá	2	El tablón	8	Agosto	2023-02-08T00:00:00	2024-11-06T03:00:00	6	Velocidad del viento	4.8
169366	7	Sololá	701	Sololá	2	El tablón	8	Agosto	2023-02-08T00:00:00	2024-11-06T03:00:00	7	Dirección del viento	4.83
169367	7	Sololá	701	Sololá	2	El tablón	8	Agosto	2023-02-08T00:00:00	2024-11-06T03:00:00	1	Precipitación	0
169368	7	Sololá	701	Sololá	2	El tablón	8	Agosto	2023-02-08T00:00:00	2024-11-06T03:00:00	8	Radiación solar	0
169369	7	Sololá	701	Sololá	2	El tablón	8	Agosto	2023-02-08T00:00:00	2024-11-06T04:00:00	2	Temperatura media	12.9
169370	7	Sololá	701	Sololá	2	El tablón	8	Agosto	2023-02-08T00:00:00	2024-11-06T04:00:00	4	Temperatura máxima	13.2
169371	7	Sololá	701	Sololá	2	El tablón	8	Agosto	2023-02-08T00:00:00	2024-11-06T04:00:00	3	Temperatura mínima	12.8
169372	7	Sololá	701	Sololá	2	El tablón	8	Agosto	2023-02-08T00:00:00	2024-11-06T04:00:00	5	Humedad	84
169373	7	Sololá	701	Sololá	2	El tablón	8	Agosto	2023-02-08T00:00:00	2024-11-06T04:00:00	6	Velocidad del viento	6.4
169374	7	Sololá	701	Sololá	2	El tablón	8	Agosto	2023-02-08T00:00:00	2024-11-06T04:00:00	7	Dirección del viento	6.44
169375	7	Sololá	701	Sololá	2	El tablón	8	Agosto	2023-02-08T00:00:00	2024-11-06T04:00:00	1	Precipitación	0
169376	7	Sololá	701	Sololá	2	El tablón	8	Agosto	2023-02-08T00:00:00	2024-11-06T04:00:00	8	Radiación solar	0
169377	7	Sololá	701	Sololá	2	El tablón	8	Agosto	2023-02-08T00:00:00	2024-11-06T05:00:00	2	Temperatura media	12.7
169378	7	Sololá	701	Sololá	2	El tablón	8	Agosto	2023-02-08T00:00:00	2024-11-06T05:00:00	4	Temperatura máxima	12.9
169379	7	Sololá	701	Sololá	2	El tablón	8	Agosto	2023-02-08T00:00:00	2024-11-06T05:00:00	3	Temperatura mínima	12.6
169380	7	Sololá	701	Sololá	2	El tablón	8	Agosto	2023-02-08T00:00:00	2024-11-06T05:00:00	5	Humedad	85
169381	7	Sololá	701	Sololá	2	El tablón	8	Agosto	2023-02-08T00:00:00	2024-11-06T05:00:00	6	Velocidad del viento	8
169382	7	Sololá	701	Sololá	2	El tablón	8	Agosto	2023-02-08T00:00:00	2024-11-06T05:00:00	7	Dirección del viento	8.05
169383	7	Sololá	701	Sololá	2	El tablón	8	Agosto	2023-02-08T00:00:00	2024-11-06T05:00:00	1	Precipitación	0
169384	7	Sololá	701	Sololá	2	El tablón	8	Agosto	2023-02-08T00:00:00	2024-11-06T05:00:00	8	Radiación solar	0
169385	7	Sololá	701	Sololá	2	El tablón	8	Agosto	2023-02-08T00:00:00	2024-11-06T06:00:00	2	Temperatura media	12.8
169386	7	Sololá	701	Sololá	2	El tablón	8	Agosto	2023-02-08T00:00:00	2024-11-06T06:00:00	4	Temperatura máxima	12.9
169387	7	Sololá	701	Sololá	2	El tablón	8	Agosto	2023-02-08T00:00:00	2024-11-06T06:00:00	3	Temperatura mínima	12.7
169388	7	Sololá	701	Sololá	2	El tablón	8	Agosto	2023-02-08T00:00:00	2024-11-06T06:00:00	5	Humedad	84
169389	7	Sololá	701	Sololá	2	El tablón	8	Agosto	2023-02-08T00:00:00	2024-11-06T06:00:00	6	Velocidad del viento	8
169390	7	Sololá	701	Sololá	2	El tablón	8	Agosto	2023-02-08T00:00:00	2024-11-06T06:00:00	7	Dirección del viento	8.05
169391	7	Sololá	701	Sololá	2	El tablón	8	Agosto	2023-02-08T00:00:00	2024-11-06T06:00:00	1	Precipitación	0
169392	7	Sololá	701	Sololá	2	El tablón	8	Agosto	2023-02-08T00:00:00	2024-11-06T06:00:00	8	Radiación solar	0
169393	7	Sololá	701	Sololá	2	El tablón	8	Agosto	2023-02-08T00:00:00	2024-11-06T07:00:00	2	Temperatura media	13.1
169394	7	Sololá	701	Sololá	2	El tablón	8	Agosto	2023-02-08T00:00:00	2024-11-06T07:00:00	4	Temperatura máxima	13.1
169395	7	Sololá	701	Sololá	2	El tablón	8	Agosto	2023-02-08T00:00:00	2024-11-06T07:00:00	3	Temperatura mínima	12.8
169396	7	Sololá	701	Sololá	2	El tablón	8	Agosto	2023-02-08T00:00:00	2024-11-06T07:00:00	5	Humedad	84
169397	7	Sololá	701	Sololá	2	El tablón	8	Agosto	2023-02-08T00:00:00	2024-11-06T07:00:00	6	Velocidad del viento	4.8
169398	7	Sololá	701	Sololá	2	El tablón	8	Agosto	2023-02-08T00:00:00	2024-11-06T07:00:00	7	Dirección del viento	4.83
169399	7	Sololá	701	Sololá	2	El tablón	8	Agosto	2023-02-08T00:00:00	2024-11-06T07:00:00	1	Precipitación	0
169400	7	Sololá	701	Sololá	2	El tablón	8	Agosto	2023-02-08T00:00:00	2024-11-06T07:00:00	8	Radiación solar	15
169401	7	Sololá	701	Sololá	2	El tablón	8	Agosto	2023-02-08T00:00:00	2024-11-06T08:00:00	2	Temperatura media	13.8
169402	7	Sololá	701	Sololá	2	El tablón	8	Agosto	2023-02-08T00:00:00	2024-11-06T08:00:00	4	Temperatura máxima	13.8
169403	7	Sololá	701	Sololá	2	El tablón	8	Agosto	2023-02-08T00:00:00	2024-11-06T08:00:00	3	Temperatura mínima	13.1
169404	7	Sololá	701	Sololá	2	El tablón	8	Agosto	2023-02-08T00:00:00	2024-11-06T08:00:00	5	Humedad	85
169405	7	Sololá	701	Sololá	2	El tablón	8	Agosto	2023-02-08T00:00:00	2024-11-06T08:00:00	6	Velocidad del viento	1.6
169406	7	Sololá	701	Sololá	2	El tablón	8	Agosto	2023-02-08T00:00:00	2024-11-06T08:00:00	7	Dirección del viento	1.61
169407	7	Sololá	701	Sololá	2	El tablón	8	Agosto	2023-02-08T00:00:00	2024-11-06T08:00:00	1	Precipitación	0
169408	7	Sololá	701	Sololá	2	El tablón	8	Agosto	2023-02-08T00:00:00	2024-11-06T08:00:00	8	Radiación solar	84
169409	7	Sololá	701	Sololá	2	El tablón	8	Agosto	2023-02-08T00:00:00	2024-11-06T09:00:00	2	Temperatura media	15.3
169410	7	Sololá	701	Sololá	2	El tablón	8	Agosto	2023-02-08T00:00:00	2024-11-06T09:00:00	4	Temperatura máxima	15.3
169411	7	Sololá	701	Sololá	2	El tablón	8	Agosto	2023-02-08T00:00:00	2024-11-06T09:00:00	3	Temperatura mínima	13.8
169412	7	Sololá	701	Sololá	2	El tablón	8	Agosto	2023-02-08T00:00:00	2024-11-06T09:00:00	5	Humedad	82
169413	7	Sololá	701	Sololá	2	El tablón	8	Agosto	2023-02-08T00:00:00	2024-11-06T09:00:00	6	Velocidad del viento	3.2
169414	7	Sololá	701	Sololá	2	El tablón	8	Agosto	2023-02-08T00:00:00	2024-11-06T09:00:00	7	Dirección del viento	3.22
169415	7	Sololá	701	Sololá	2	El tablón	8	Agosto	2023-02-08T00:00:00	2024-11-06T09:00:00	1	Precipitación	0
169416	7	Sololá	701	Sololá	2	El tablón	8	Agosto	2023-02-08T00:00:00	2024-11-06T09:00:00	8	Radiación solar	238
169417	7	Sololá	701	Sololá	2	El tablón	8	Agosto	2023-02-08T00:00:00	2024-11-06T10:00:00	2	Temperatura media	15.6
169418	7	Sololá	701	Sololá	2	El tablón	8	Agosto	2023-02-08T00:00:00	2024-11-06T10:00:00	4	Temperatura máxima	15.7
169419	7	Sololá	701	Sololá	2	El tablón	8	Agosto	2023-02-08T00:00:00	2024-11-06T10:00:00	3	Temperatura mínima	15.2
169420	7	Sololá	701	Sololá	2	El tablón	8	Agosto	2023-02-08T00:00:00	2024-11-06T10:00:00	5	Humedad	82
169421	7	Sololá	701	Sololá	2	El tablón	8	Agosto	2023-02-08T00:00:00	2024-11-06T10:00:00	6	Velocidad del viento	6.4
169422	7	Sololá	701	Sololá	2	El tablón	8	Agosto	2023-02-08T00:00:00	2024-11-06T10:00:00	7	Dirección del viento	6.44
169423	7	Sololá	701	Sololá	2	El tablón	8	Agosto	2023-02-08T00:00:00	2024-11-06T10:00:00	1	Precipitación	0
169424	7	Sololá	701	Sololá	2	El tablón	8	Agosto	2023-02-08T00:00:00	2024-11-06T10:00:00	8	Radiación solar	348
169425	7	Sololá	701	Sololá	2	El tablón	8	Agosto	2023-02-08T00:00:00	2024-11-06T11:00:00	2	Temperatura media	15.4
169426	7	Sololá	701	Sololá	2	El tablón	8	Agosto	2023-02-08T00:00:00	2024-11-06T11:00:00	4	Temperatura máxima	16.1
169427	7	Sololá	701	Sololá	2	El tablón	8	Agosto	2023-02-08T00:00:00	2024-11-06T11:00:00	3	Temperatura mínima	15.4
169428	7	Sololá	701	Sololá	2	El tablón	8	Agosto	2023-02-08T00:00:00	2024-11-06T11:00:00	5	Humedad	84
169429	7	Sololá	701	Sololá	2	El tablón	8	Agosto	2023-02-08T00:00:00	2024-11-06T11:00:00	6	Velocidad del viento	6.4
169430	7	Sololá	701	Sololá	2	El tablón	8	Agosto	2023-02-08T00:00:00	2024-11-06T11:00:00	7	Dirección del viento	6.44
169431	7	Sololá	701	Sololá	2	El tablón	8	Agosto	2023-02-08T00:00:00	2024-11-06T11:00:00	1	Precipitación	0
169432	7	Sololá	701	Sololá	2	El tablón	8	Agosto	2023-02-08T00:00:00	2024-11-06T11:00:00	8	Radiación solar	319
169433	7	Sololá	701	Sololá	2	El tablón	8	Agosto	2023-02-08T00:00:00	2024-11-06T12:00:00	2	Temperatura media	15.1
169434	7	Sololá	701	Sololá	2	El tablón	8	Agosto	2023-02-08T00:00:00	2024-11-06T12:00:00	4	Temperatura máxima	15.6
169435	7	Sololá	701	Sololá	2	El tablón	8	Agosto	2023-02-08T00:00:00	2024-11-06T12:00:00	3	Temperatura mínima	15.1
169436	7	Sololá	701	Sololá	2	El tablón	8	Agosto	2023-02-08T00:00:00	2024-11-06T12:00:00	5	Humedad	85
169437	7	Sololá	701	Sololá	2	El tablón	8	Agosto	2023-02-08T00:00:00	2024-11-06T12:00:00	6	Velocidad del viento	4.8
169438	7	Sololá	701	Sololá	2	El tablón	8	Agosto	2023-02-08T00:00:00	2024-11-06T12:00:00	7	Dirección del viento	4.83
169439	7	Sololá	701	Sololá	2	El tablón	8	Agosto	2023-02-08T00:00:00	2024-11-06T12:00:00	1	Precipitación	0
169440	7	Sololá	701	Sololá	2	El tablón	8	Agosto	2023-02-08T00:00:00	2024-11-06T12:00:00	8	Radiación solar	187
169441	7	Sololá	701	Sololá	2	El tablón	8	Agosto	2023-02-08T00:00:00	2024-11-06T13:00:00	2	Temperatura media	14.9
169442	7	Sololá	701	Sololá	2	El tablón	8	Agosto	2023-02-08T00:00:00	2024-11-06T13:00:00	4	Temperatura máxima	15.1
169443	7	Sololá	701	Sololá	2	El tablón	8	Agosto	2023-02-08T00:00:00	2024-11-06T13:00:00	3	Temperatura mínima	14.8
169444	7	Sololá	701	Sololá	2	El tablón	8	Agosto	2023-02-08T00:00:00	2024-11-06T13:00:00	5	Humedad	85
169445	7	Sololá	701	Sololá	2	El tablón	8	Agosto	2023-02-08T00:00:00	2024-11-06T13:00:00	6	Velocidad del viento	3.2
169446	7	Sololá	701	Sololá	2	El tablón	8	Agosto	2023-02-08T00:00:00	2024-11-06T13:00:00	7	Dirección del viento	3.22
169447	7	Sololá	701	Sololá	2	El tablón	8	Agosto	2023-02-08T00:00:00	2024-11-06T13:00:00	1	Precipitación	0
169448	7	Sololá	701	Sololá	2	El tablón	8	Agosto	2023-02-08T00:00:00	2024-11-06T13:00:00	8	Radiación solar	100
169449	7	Sololá	701	Sololá	2	El tablón	8	Agosto	2023-02-08T00:00:00	2024-11-06T14:00:00	2	Temperatura media	14.8
169450	7	Sololá	701	Sololá	2	El tablón	8	Agosto	2023-02-08T00:00:00	2024-11-06T14:00:00	4	Temperatura máxima	15.2
169451	7	Sololá	701	Sololá	2	El tablón	8	Agosto	2023-02-08T00:00:00	2024-11-06T14:00:00	3	Temperatura mínima	14.8
169452	7	Sololá	701	Sololá	2	El tablón	8	Agosto	2023-02-08T00:00:00	2024-11-06T14:00:00	5	Humedad	87
169453	7	Sololá	701	Sololá	2	El tablón	8	Agosto	2023-02-08T00:00:00	2024-11-06T14:00:00	6	Velocidad del viento	3.2
169454	7	Sololá	701	Sololá	2	El tablón	8	Agosto	2023-02-08T00:00:00	2024-11-06T14:00:00	7	Dirección del viento	3.22
169455	7	Sololá	701	Sololá	2	El tablón	8	Agosto	2023-02-08T00:00:00	2024-11-06T14:00:00	1	Precipitación	0
169456	7	Sololá	701	Sololá	2	El tablón	8	Agosto	2023-02-08T00:00:00	2024-11-06T14:00:00	8	Radiación solar	106
169457	7	Sololá	701	Sololá	2	El tablón	8	Agosto	2023-02-08T00:00:00	2024-11-06T15:00:00	2	Temperatura media	15.9
169458	7	Sololá	701	Sololá	2	El tablón	8	Agosto	2023-02-08T00:00:00	2024-11-06T15:00:00	4	Temperatura máxima	15.9
169459	7	Sololá	701	Sololá	2	El tablón	8	Agosto	2023-02-08T00:00:00	2024-11-06T15:00:00	3	Temperatura mínima	14.8
169460	7	Sololá	701	Sololá	2	El tablón	8	Agosto	2023-02-08T00:00:00	2024-11-06T15:00:00	5	Humedad	82
169461	7	Sololá	701	Sololá	2	El tablón	8	Agosto	2023-02-08T00:00:00	2024-11-06T15:00:00	6	Velocidad del viento	4.8
169462	7	Sololá	701	Sololá	2	El tablón	8	Agosto	2023-02-08T00:00:00	2024-11-06T15:00:00	7	Dirección del viento	4.83
169463	7	Sololá	701	Sololá	2	El tablón	8	Agosto	2023-02-08T00:00:00	2024-11-06T15:00:00	1	Precipitación	0
169464	7	Sololá	701	Sololá	2	El tablón	8	Agosto	2023-02-08T00:00:00	2024-11-06T15:00:00	8	Radiación solar	192
169465	7	Sololá	701	Sololá	2	El tablón	8	Agosto	2023-02-08T00:00:00	2024-11-06T16:00:00	2	Temperatura media	15.9
169466	7	Sololá	701	Sololá	2	El tablón	8	Agosto	2023-02-08T00:00:00	2024-11-06T16:00:00	4	Temperatura máxima	16
169467	7	Sololá	701	Sololá	2	El tablón	8	Agosto	2023-02-08T00:00:00	2024-11-06T16:00:00	3	Temperatura mínima	15.8
169468	7	Sololá	701	Sololá	2	El tablón	8	Agosto	2023-02-08T00:00:00	2024-11-06T16:00:00	5	Humedad	84
169469	7	Sololá	701	Sololá	2	El tablón	8	Agosto	2023-02-08T00:00:00	2024-11-06T16:00:00	6	Velocidad del viento	3.2
169470	7	Sololá	701	Sololá	2	El tablón	8	Agosto	2023-02-08T00:00:00	2024-11-06T16:00:00	7	Dirección del viento	3.22
169471	7	Sololá	701	Sololá	2	El tablón	8	Agosto	2023-02-08T00:00:00	2024-11-06T16:00:00	1	Precipitación	0
169472	7	Sololá	701	Sololá	2	El tablón	8	Agosto	2023-02-08T00:00:00	2024-11-06T16:00:00	8	Radiación solar	134
169473	7	Sololá	701	Sololá	2	El tablón	8	Agosto	2023-02-08T00:00:00	2024-11-06T17:00:00	2	Temperatura media	15.4
169474	7	Sololá	701	Sololá	2	El tablón	8	Agosto	2023-02-08T00:00:00	2024-11-06T17:00:00	4	Temperatura máxima	16
169475	7	Sololá	701	Sololá	2	El tablón	8	Agosto	2023-02-08T00:00:00	2024-11-06T17:00:00	3	Temperatura mínima	15.4
169476	7	Sololá	701	Sololá	2	El tablón	8	Agosto	2023-02-08T00:00:00	2024-11-06T17:00:00	5	Humedad	83
169477	7	Sololá	701	Sololá	2	El tablón	8	Agosto	2023-02-08T00:00:00	2024-11-06T17:00:00	6	Velocidad del viento	3.2
169478	7	Sololá	701	Sololá	2	El tablón	8	Agosto	2023-02-08T00:00:00	2024-11-06T17:00:00	7	Dirección del viento	3.22
169479	7	Sololá	701	Sololá	2	El tablón	8	Agosto	2023-02-08T00:00:00	2024-11-06T17:00:00	1	Precipitación	0
169480	7	Sololá	701	Sololá	2	El tablón	8	Agosto	2023-02-08T00:00:00	2024-11-06T17:00:00	8	Radiación solar	117
169481	7	Sololá	701	Sololá	2	El tablón	8	Agosto	2023-02-08T00:00:00	2024-11-06T18:00:00	2	Temperatura media	14.6
169482	7	Sololá	701	Sololá	2	El tablón	8	Agosto	2023-02-08T00:00:00	2024-11-06T18:00:00	4	Temperatura máxima	15.4
169483	7	Sololá	701	Sololá	2	El tablón	8	Agosto	2023-02-08T00:00:00	2024-11-06T18:00:00	3	Temperatura mínima	14.6
169484	7	Sololá	701	Sololá	2	El tablón	8	Agosto	2023-02-08T00:00:00	2024-11-06T18:00:00	5	Humedad	85
169485	7	Sololá	701	Sololá	2	El tablón	8	Agosto	2023-02-08T00:00:00	2024-11-06T18:00:00	6	Velocidad del viento	3.2
169486	7	Sololá	701	Sololá	2	El tablón	8	Agosto	2023-02-08T00:00:00	2024-11-06T18:00:00	7	Dirección del viento	3.22
169487	7	Sololá	701	Sololá	2	El tablón	8	Agosto	2023-02-08T00:00:00	2024-11-06T18:00:00	1	Precipitación	0
169488	7	Sololá	701	Sololá	2	El tablón	8	Agosto	2023-02-08T00:00:00	2024-11-06T18:00:00	8	Radiación solar	20
169489	7	Sololá	701	Sololá	2	El tablón	8	Agosto	2023-02-08T00:00:00	2024-11-06T19:00:00	2	Temperatura media	14
169490	7	Sololá	701	Sololá	2	El tablón	8	Agosto	2023-02-08T00:00:00	2024-11-06T19:00:00	4	Temperatura máxima	14.6
169491	7	Sololá	701	Sololá	2	El tablón	8	Agosto	2023-02-08T00:00:00	2024-11-06T19:00:00	3	Temperatura mínima	14
169492	7	Sololá	701	Sololá	2	El tablón	8	Agosto	2023-02-08T00:00:00	2024-11-06T19:00:00	5	Humedad	87
169493	7	Sololá	701	Sololá	2	El tablón	8	Agosto	2023-02-08T00:00:00	2024-11-06T19:00:00	6	Velocidad del viento	4.8
169494	7	Sololá	701	Sololá	2	El tablón	8	Agosto	2023-02-08T00:00:00	2024-11-06T19:00:00	7	Dirección del viento	4.83
169495	7	Sololá	701	Sololá	2	El tablón	8	Agosto	2023-02-08T00:00:00	2024-11-06T19:00:00	1	Precipitación	0
169496	7	Sololá	701	Sololá	2	El tablón	8	Agosto	2023-02-08T00:00:00	2024-11-06T19:00:00	8	Radiación solar	0
169497	7	Sololá	701	Sololá	2	El tablón	8	Agosto	2023-02-08T00:00:00	2024-11-06T20:00:00	2	Temperatura media	14.1
169498	7	Sololá	701	Sololá	2	El tablón	8	Agosto	2023-02-08T00:00:00	2024-11-06T20:00:00	4	Temperatura máxima	14.1
169499	7	Sololá	701	Sololá	2	El tablón	8	Agosto	2023-02-08T00:00:00	2024-11-06T20:00:00	3	Temperatura mínima	14
169500	7	Sololá	701	Sololá	2	El tablón	8	Agosto	2023-02-08T00:00:00	2024-11-06T20:00:00	5	Humedad	86
169501	7	Sololá	701	Sololá	2	El tablón	8	Agosto	2023-02-08T00:00:00	2024-11-06T20:00:00	6	Velocidad del viento	1.6
169502	7	Sololá	701	Sololá	2	El tablón	8	Agosto	2023-02-08T00:00:00	2024-11-06T20:00:00	7	Dirección del viento	1.61
169503	7	Sololá	701	Sololá	2	El tablón	8	Agosto	2023-02-08T00:00:00	2024-11-06T20:00:00	1	Precipitación	0
169504	7	Sololá	701	Sololá	2	El tablón	8	Agosto	2023-02-08T00:00:00	2024-11-06T20:00:00	8	Radiación solar	0
169505	7	Sololá	701	Sololá	2	El tablón	8	Agosto	2023-02-08T00:00:00	2024-11-06T21:00:00	2	Temperatura media	14.2
169506	7	Sololá	701	Sololá	2	El tablón	8	Agosto	2023-02-08T00:00:00	2024-11-06T21:00:00	4	Temperatura máxima	14.2
169507	7	Sololá	701	Sololá	2	El tablón	8	Agosto	2023-02-08T00:00:00	2024-11-06T21:00:00	3	Temperatura mínima	14.1
169508	7	Sololá	701	Sololá	2	El tablón	8	Agosto	2023-02-08T00:00:00	2024-11-06T21:00:00	5	Humedad	85
169509	7	Sololá	701	Sololá	2	El tablón	8	Agosto	2023-02-08T00:00:00	2024-11-06T21:00:00	6	Velocidad del viento	4.8
169510	7	Sololá	701	Sololá	2	El tablón	8	Agosto	2023-02-08T00:00:00	2024-11-06T21:00:00	7	Dirección del viento	4.83
169511	7	Sololá	701	Sololá	2	El tablón	8	Agosto	2023-02-08T00:00:00	2024-11-06T21:00:00	1	Precipitación	0
169512	7	Sololá	701	Sololá	2	El tablón	8	Agosto	2023-02-08T00:00:00	2024-11-06T21:00:00	8	Radiación solar	0
169513	7	Sololá	701	Sololá	2	El tablón	8	Agosto	2023-02-08T00:00:00	2024-11-06T22:00:00	2	Temperatura media	14.3
169514	7	Sololá	701	Sololá	2	El tablón	8	Agosto	2023-02-08T00:00:00	2024-11-06T22:00:00	4	Temperatura máxima	14.3
169515	7	Sololá	701	Sololá	2	El tablón	8	Agosto	2023-02-08T00:00:00	2024-11-06T22:00:00	3	Temperatura mínima	14.2
169516	7	Sololá	701	Sololá	2	El tablón	8	Agosto	2023-02-08T00:00:00	2024-11-06T22:00:00	5	Humedad	86
169517	7	Sololá	701	Sololá	2	El tablón	8	Agosto	2023-02-08T00:00:00	2024-11-06T22:00:00	6	Velocidad del viento	3.2
169518	7	Sololá	701	Sololá	2	El tablón	8	Agosto	2023-02-08T00:00:00	2024-11-06T22:00:00	7	Dirección del viento	3.22
169519	7	Sololá	701	Sololá	2	El tablón	8	Agosto	2023-02-08T00:00:00	2024-11-06T22:00:00	1	Precipitación	0
169520	7	Sololá	701	Sololá	2	El tablón	8	Agosto	2023-02-08T00:00:00	2024-11-06T22:00:00	8	Radiación solar	0
169521	7	Sololá	701	Sololá	2	El tablón	8	Agosto	2023-02-08T00:00:00	2024-11-06T23:00:00	2	Temperatura media	14.2
169522	7	Sololá	701	Sololá	2	El tablón	8	Agosto	2023-02-08T00:00:00	2024-11-06T23:00:00	4	Temperatura máxima	14.3
169523	7	Sololá	701	Sololá	2	El tablón	8	Agosto	2023-02-08T00:00:00	2024-11-06T23:00:00	3	Temperatura mínima	14.2
169524	7	Sololá	701	Sololá	2	El tablón	8	Agosto	2023-02-08T00:00:00	2024-11-06T23:00:00	5	Humedad	86
169525	7	Sololá	701	Sololá	2	El tablón	8	Agosto	2023-02-08T00:00:00	2024-11-06T23:00:00	6	Velocidad del viento	3.2
169526	7	Sololá	701	Sololá	2	El tablón	8	Agosto	2023-02-08T00:00:00	2024-11-06T23:00:00	7	Dirección del viento	3.22
169527	7	Sololá	701	Sololá	2	El tablón	8	Agosto	2023-02-08T00:00:00	2024-11-06T23:00:00	1	Precipitación	0
169528	7	Sololá	701	Sololá	2	El tablón	8	Agosto	2023-02-08T00:00:00	2024-11-06T23:00:00	8	Radiación solar	0
169529	7	Sololá	701	Sololá	2	El tablón	8	Agosto	2023-03-08T00:00:00	2024-11-06T00:00:00	2	Temperatura media	13.6
169530	7	Sololá	701	Sololá	2	El tablón	8	Agosto	2023-03-08T00:00:00	2024-11-06T00:00:00	4	Temperatura máxima	14.2
169531	7	Sololá	701	Sololá	2	El tablón	8	Agosto	2023-03-08T00:00:00	2024-11-06T00:00:00	3	Temperatura mínima	13.6
169532	7	Sololá	701	Sololá	2	El tablón	8	Agosto	2023-03-08T00:00:00	2024-11-06T00:00:00	5	Humedad	88
169533	7	Sololá	701	Sololá	2	El tablón	8	Agosto	2023-03-08T00:00:00	2024-11-06T00:00:00	6	Velocidad del viento	1.6
169534	7	Sololá	701	Sololá	2	El tablón	8	Agosto	2023-03-08T00:00:00	2024-11-06T00:00:00	7	Dirección del viento	1.61
169535	7	Sololá	701	Sololá	2	El tablón	8	Agosto	2023-03-08T00:00:00	2024-11-06T00:00:00	1	Precipitación	0
169536	7	Sololá	701	Sololá	2	El tablón	8	Agosto	2023-03-08T00:00:00	2024-11-06T00:00:00	8	Radiación solar	0
169537	7	Sololá	701	Sololá	2	El tablón	8	Agosto	2023-03-08T00:00:00	2024-11-06T01:00:00	2	Temperatura media	13.4
169538	7	Sololá	701	Sololá	2	El tablón	8	Agosto	2023-03-08T00:00:00	2024-11-06T01:00:00	4	Temperatura máxima	13.6
169539	7	Sololá	701	Sololá	2	El tablón	8	Agosto	2023-03-08T00:00:00	2024-11-06T01:00:00	3	Temperatura mínima	13.3
169540	7	Sololá	701	Sololá	2	El tablón	8	Agosto	2023-03-08T00:00:00	2024-11-06T01:00:00	5	Humedad	88
169541	7	Sololá	701	Sololá	2	El tablón	8	Agosto	2023-03-08T00:00:00	2024-11-06T01:00:00	6	Velocidad del viento	0
169542	7	Sololá	701	Sololá	2	El tablón	8	Agosto	2023-03-08T00:00:00	2024-11-06T01:00:00	7	Dirección del viento	0
169543	7	Sololá	701	Sololá	2	El tablón	8	Agosto	2023-03-08T00:00:00	2024-11-06T01:00:00	1	Precipitación	0
169544	7	Sololá	701	Sololá	2	El tablón	8	Agosto	2023-03-08T00:00:00	2024-11-06T01:00:00	8	Radiación solar	0
169545	7	Sololá	701	Sololá	2	El tablón	8	Agosto	2023-03-08T00:00:00	2024-11-06T02:00:00	2	Temperatura media	12.9
169546	7	Sololá	701	Sololá	2	El tablón	8	Agosto	2023-03-08T00:00:00	2024-11-06T02:00:00	4	Temperatura máxima	13.6
169547	7	Sololá	701	Sololá	2	El tablón	8	Agosto	2023-03-08T00:00:00	2024-11-06T02:00:00	3	Temperatura mínima	12.9
169548	7	Sololá	701	Sololá	2	El tablón	8	Agosto	2023-03-08T00:00:00	2024-11-06T02:00:00	5	Humedad	88
169549	7	Sololá	701	Sololá	2	El tablón	8	Agosto	2023-03-08T00:00:00	2024-11-06T02:00:00	6	Velocidad del viento	1.6
169550	7	Sololá	701	Sololá	2	El tablón	8	Agosto	2023-03-08T00:00:00	2024-11-06T02:00:00	7	Dirección del viento	1.61
169551	7	Sololá	701	Sololá	2	El tablón	8	Agosto	2023-03-08T00:00:00	2024-11-06T02:00:00	1	Precipitación	0
169552	7	Sololá	701	Sololá	2	El tablón	8	Agosto	2023-03-08T00:00:00	2024-11-06T02:00:00	8	Radiación solar	0
169553	7	Sololá	701	Sololá	2	El tablón	8	Agosto	2023-03-08T00:00:00	2024-11-06T03:00:00	2	Temperatura media	13.2
169554	7	Sololá	701	Sololá	2	El tablón	8	Agosto	2023-03-08T00:00:00	2024-11-06T03:00:00	4	Temperatura máxima	13.2
169555	7	Sololá	701	Sololá	2	El tablón	8	Agosto	2023-03-08T00:00:00	2024-11-06T03:00:00	3	Temperatura mínima	12.6
169556	7	Sololá	701	Sololá	2	El tablón	8	Agosto	2023-03-08T00:00:00	2024-11-06T03:00:00	5	Humedad	87
169557	7	Sololá	701	Sololá	2	El tablón	8	Agosto	2023-03-08T00:00:00	2024-11-06T03:00:00	6	Velocidad del viento	3.2
169558	7	Sololá	701	Sololá	2	El tablón	8	Agosto	2023-03-08T00:00:00	2024-11-06T03:00:00	7	Dirección del viento	3.22
169559	7	Sololá	701	Sololá	2	El tablón	8	Agosto	2023-03-08T00:00:00	2024-11-06T03:00:00	1	Precipitación	0
169560	7	Sololá	701	Sololá	2	El tablón	8	Agosto	2023-03-08T00:00:00	2024-11-06T03:00:00	8	Radiación solar	0
169561	7	Sololá	701	Sololá	2	El tablón	8	Agosto	2023-03-08T00:00:00	2024-11-06T04:00:00	2	Temperatura media	12.8
169562	7	Sololá	701	Sololá	2	El tablón	8	Agosto	2023-03-08T00:00:00	2024-11-06T04:00:00	4	Temperatura máxima	13.2
169563	7	Sololá	701	Sololá	2	El tablón	8	Agosto	2023-03-08T00:00:00	2024-11-06T04:00:00	3	Temperatura mínima	12.8
169564	7	Sololá	701	Sololá	2	El tablón	8	Agosto	2023-03-08T00:00:00	2024-11-06T04:00:00	5	Humedad	88
169565	7	Sololá	701	Sololá	2	El tablón	8	Agosto	2023-03-08T00:00:00	2024-11-06T04:00:00	6	Velocidad del viento	4.8
169566	7	Sololá	701	Sololá	2	El tablón	8	Agosto	2023-03-08T00:00:00	2024-11-06T04:00:00	7	Dirección del viento	4.83
169567	7	Sololá	701	Sololá	2	El tablón	8	Agosto	2023-03-08T00:00:00	2024-11-06T04:00:00	1	Precipitación	0
169568	7	Sololá	701	Sololá	2	El tablón	8	Agosto	2023-03-08T00:00:00	2024-11-06T04:00:00	8	Radiación solar	0
169569	7	Sololá	701	Sololá	2	El tablón	8	Agosto	2023-03-08T00:00:00	2024-11-06T05:00:00	2	Temperatura media	12.1
169570	7	Sololá	701	Sololá	2	El tablón	8	Agosto	2023-03-08T00:00:00	2024-11-06T05:00:00	4	Temperatura máxima	12.8
169571	7	Sololá	701	Sololá	2	El tablón	8	Agosto	2023-03-08T00:00:00	2024-11-06T05:00:00	3	Temperatura mínima	12.1
169572	7	Sololá	701	Sololá	2	El tablón	8	Agosto	2023-03-08T00:00:00	2024-11-06T05:00:00	5	Humedad	88
169573	7	Sololá	701	Sololá	2	El tablón	8	Agosto	2023-03-08T00:00:00	2024-11-06T05:00:00	6	Velocidad del viento	3.2
169574	7	Sololá	701	Sololá	2	El tablón	8	Agosto	2023-03-08T00:00:00	2024-11-06T05:00:00	7	Dirección del viento	3.22
169575	7	Sololá	701	Sololá	2	El tablón	8	Agosto	2023-03-08T00:00:00	2024-11-06T05:00:00	1	Precipitación	0
169576	7	Sololá	701	Sololá	2	El tablón	8	Agosto	2023-03-08T00:00:00	2024-11-06T05:00:00	8	Radiación solar	0
169577	7	Sololá	701	Sololá	2	El tablón	8	Agosto	2023-03-08T00:00:00	2024-11-06T06:00:00	2	Temperatura media	11.8
169578	7	Sololá	701	Sololá	2	El tablón	8	Agosto	2023-03-08T00:00:00	2024-11-06T06:00:00	4	Temperatura máxima	12.2
169579	7	Sololá	701	Sololá	2	El tablón	8	Agosto	2023-03-08T00:00:00	2024-11-06T06:00:00	3	Temperatura mínima	11.8
169580	7	Sololá	701	Sololá	2	El tablón	8	Agosto	2023-03-08T00:00:00	2024-11-06T06:00:00	5	Humedad	88
169581	7	Sololá	701	Sololá	2	El tablón	8	Agosto	2023-03-08T00:00:00	2024-11-06T06:00:00	6	Velocidad del viento	4.8
169582	7	Sololá	701	Sololá	2	El tablón	8	Agosto	2023-03-08T00:00:00	2024-11-06T06:00:00	7	Dirección del viento	4.83
169583	7	Sololá	701	Sololá	2	El tablón	8	Agosto	2023-03-08T00:00:00	2024-11-06T06:00:00	1	Precipitación	0
169584	7	Sololá	701	Sololá	2	El tablón	8	Agosto	2023-03-08T00:00:00	2024-11-06T06:00:00	8	Radiación solar	1
169585	7	Sololá	701	Sololá	2	El tablón	8	Agosto	2023-03-08T00:00:00	2024-11-06T07:00:00	2	Temperatura media	14.3
169586	7	Sololá	701	Sololá	2	El tablón	8	Agosto	2023-03-08T00:00:00	2024-11-06T07:00:00	4	Temperatura máxima	14.3
169587	7	Sololá	701	Sololá	2	El tablón	8	Agosto	2023-03-08T00:00:00	2024-11-06T07:00:00	3	Temperatura mínima	11.6
169588	7	Sololá	701	Sololá	2	El tablón	8	Agosto	2023-03-08T00:00:00	2024-11-06T07:00:00	5	Humedad	83
169589	7	Sololá	701	Sololá	2	El tablón	8	Agosto	2023-03-08T00:00:00	2024-11-06T07:00:00	6	Velocidad del viento	3.2
169590	7	Sololá	701	Sololá	2	El tablón	8	Agosto	2023-03-08T00:00:00	2024-11-06T07:00:00	7	Dirección del viento	3.22
169591	7	Sololá	701	Sololá	2	El tablón	8	Agosto	2023-03-08T00:00:00	2024-11-06T07:00:00	1	Precipitación	0
169592	7	Sololá	701	Sololá	2	El tablón	8	Agosto	2023-03-08T00:00:00	2024-11-06T07:00:00	8	Radiación solar	89
169593	7	Sololá	701	Sololá	2	El tablón	8	Agosto	2023-03-08T00:00:00	2024-11-06T08:00:00	2	Temperatura media	16.7
169594	7	Sololá	701	Sololá	2	El tablón	8	Agosto	2023-03-08T00:00:00	2024-11-06T08:00:00	4	Temperatura máxima	17.1
169595	7	Sololá	701	Sololá	2	El tablón	8	Agosto	2023-03-08T00:00:00	2024-11-06T08:00:00	3	Temperatura mínima	14.3
169596	7	Sololá	701	Sololá	2	El tablón	8	Agosto	2023-03-08T00:00:00	2024-11-06T08:00:00	5	Humedad	77
169597	7	Sololá	701	Sololá	2	El tablón	8	Agosto	2023-03-08T00:00:00	2024-11-06T08:00:00	6	Velocidad del viento	3.2
169598	7	Sololá	701	Sololá	2	El tablón	8	Agosto	2023-03-08T00:00:00	2024-11-06T08:00:00	7	Dirección del viento	3.22
169599	7	Sololá	701	Sololá	2	El tablón	8	Agosto	2023-03-08T00:00:00	2024-11-06T08:00:00	1	Precipitación	0
169600	7	Sololá	701	Sololá	2	El tablón	8	Agosto	2023-03-08T00:00:00	2024-11-06T08:00:00	8	Radiación solar	293
169601	7	Sololá	701	Sololá	2	El tablón	8	Agosto	2023-03-08T00:00:00	2024-11-06T09:00:00	2	Temperatura media	17.4
169602	7	Sololá	701	Sololá	2	El tablón	8	Agosto	2023-03-08T00:00:00	2024-11-06T09:00:00	4	Temperatura máxima	17.4
169603	7	Sololá	701	Sololá	2	El tablón	8	Agosto	2023-03-08T00:00:00	2024-11-06T09:00:00	3	Temperatura mínima	16.6
169604	7	Sololá	701	Sololá	2	El tablón	8	Agosto	2023-03-08T00:00:00	2024-11-06T09:00:00	5	Humedad	77
169605	7	Sololá	701	Sololá	2	El tablón	8	Agosto	2023-03-08T00:00:00	2024-11-06T09:00:00	6	Velocidad del viento	6.4
169606	7	Sololá	701	Sololá	2	El tablón	8	Agosto	2023-03-08T00:00:00	2024-11-06T09:00:00	7	Dirección del viento	6.44
169607	7	Sololá	701	Sololá	2	El tablón	8	Agosto	2023-03-08T00:00:00	2024-11-06T09:00:00	1	Precipitación	0
169608	7	Sololá	701	Sololá	2	El tablón	8	Agosto	2023-03-08T00:00:00	2024-11-06T09:00:00	8	Radiación solar	518
169609	7	Sololá	701	Sololá	2	El tablón	8	Agosto	2023-03-08T00:00:00	2024-11-06T10:00:00	2	Temperatura media	18
169610	7	Sololá	701	Sololá	2	El tablón	8	Agosto	2023-03-08T00:00:00	2024-11-06T10:00:00	4	Temperatura máxima	18
169611	7	Sololá	701	Sololá	2	El tablón	8	Agosto	2023-03-08T00:00:00	2024-11-06T10:00:00	3	Temperatura mínima	17.3
169612	7	Sololá	701	Sololá	2	El tablón	8	Agosto	2023-03-08T00:00:00	2024-11-06T10:00:00	5	Humedad	78
169613	7	Sololá	701	Sololá	2	El tablón	8	Agosto	2023-03-08T00:00:00	2024-11-06T10:00:00	6	Velocidad del viento	3.2
169614	7	Sololá	701	Sololá	2	El tablón	8	Agosto	2023-03-08T00:00:00	2024-11-06T10:00:00	7	Dirección del viento	3.22
169615	7	Sololá	701	Sololá	2	El tablón	8	Agosto	2023-03-08T00:00:00	2024-11-06T10:00:00	1	Precipitación	0
169616	7	Sololá	701	Sololá	2	El tablón	8	Agosto	2023-03-08T00:00:00	2024-11-06T10:00:00	8	Radiación solar	325
169617	7	Sololá	701	Sololá	2	El tablón	8	Agosto	2023-03-08T00:00:00	2024-11-06T11:00:00	2	Temperatura media	17.4
169618	7	Sololá	701	Sololá	2	El tablón	8	Agosto	2023-03-08T00:00:00	2024-11-06T11:00:00	4	Temperatura máxima	18.4
169619	7	Sololá	701	Sololá	2	El tablón	8	Agosto	2023-03-08T00:00:00	2024-11-06T11:00:00	3	Temperatura mínima	17.3
169620	7	Sololá	701	Sololá	2	El tablón	8	Agosto	2023-03-08T00:00:00	2024-11-06T11:00:00	5	Humedad	81
169621	7	Sololá	701	Sololá	2	El tablón	8	Agosto	2023-03-08T00:00:00	2024-11-06T11:00:00	6	Velocidad del viento	3.2
169622	7	Sololá	701	Sololá	2	El tablón	8	Agosto	2023-03-08T00:00:00	2024-11-06T11:00:00	7	Dirección del viento	3.22
169623	7	Sololá	701	Sololá	2	El tablón	8	Agosto	2023-03-08T00:00:00	2024-11-06T11:00:00	1	Precipitación	0
169624	7	Sololá	701	Sololá	2	El tablón	8	Agosto	2023-03-08T00:00:00	2024-11-06T11:00:00	8	Radiación solar	267
169625	7	Sololá	701	Sololá	2	El tablón	8	Agosto	2023-03-08T00:00:00	2024-11-06T12:00:00	2	Temperatura media	17.3
169626	7	Sololá	701	Sololá	2	El tablón	8	Agosto	2023-03-08T00:00:00	2024-11-06T12:00:00	4	Temperatura máxima	17.6
169627	7	Sololá	701	Sololá	2	El tablón	8	Agosto	2023-03-08T00:00:00	2024-11-06T12:00:00	3	Temperatura mínima	17.3
169628	7	Sololá	701	Sololá	2	El tablón	8	Agosto	2023-03-08T00:00:00	2024-11-06T12:00:00	5	Humedad	86
169629	7	Sololá	701	Sololá	2	El tablón	8	Agosto	2023-03-08T00:00:00	2024-11-06T12:00:00	6	Velocidad del viento	4.8
169630	7	Sololá	701	Sololá	2	El tablón	8	Agosto	2023-03-08T00:00:00	2024-11-06T12:00:00	7	Dirección del viento	4.83
169631	7	Sololá	701	Sololá	2	El tablón	8	Agosto	2023-03-08T00:00:00	2024-11-06T12:00:00	1	Precipitación	0
169632	7	Sololá	701	Sololá	2	El tablón	8	Agosto	2023-03-08T00:00:00	2024-11-06T12:00:00	8	Radiación solar	254
169633	7	Sololá	701	Sololá	2	El tablón	8	Agosto	2023-03-08T00:00:00	2024-11-06T13:00:00	2	Temperatura media	14.1
169634	7	Sololá	701	Sololá	2	El tablón	8	Agosto	2023-03-08T00:00:00	2024-11-06T13:00:00	4	Temperatura máxima	17.3
169635	7	Sololá	701	Sololá	2	El tablón	8	Agosto	2023-03-08T00:00:00	2024-11-06T13:00:00	3	Temperatura mínima	14
169636	7	Sololá	701	Sololá	2	El tablón	8	Agosto	2023-03-08T00:00:00	2024-11-06T13:00:00	5	Humedad	87
169637	7	Sololá	701	Sololá	2	El tablón	8	Agosto	2023-03-08T00:00:00	2024-11-06T13:00:00	6	Velocidad del viento	4.8
169638	7	Sololá	701	Sololá	2	El tablón	8	Agosto	2023-03-08T00:00:00	2024-11-06T13:00:00	7	Dirección del viento	4.83
169639	7	Sololá	701	Sololá	2	El tablón	8	Agosto	2023-03-08T00:00:00	2024-11-06T13:00:00	1	Precipitación	4.2
169640	7	Sololá	701	Sololá	2	El tablón	8	Agosto	2023-03-08T00:00:00	2024-11-06T13:00:00	8	Radiación solar	91
169641	7	Sololá	701	Sololá	2	El tablón	8	Agosto	2023-03-08T00:00:00	2024-11-06T14:00:00	2	Temperatura media	13.4
169642	7	Sololá	701	Sololá	2	El tablón	8	Agosto	2023-03-08T00:00:00	2024-11-06T14:00:00	4	Temperatura máxima	14.1
169643	7	Sololá	701	Sololá	2	El tablón	8	Agosto	2023-03-08T00:00:00	2024-11-06T14:00:00	3	Temperatura mínima	12.9
169644	7	Sololá	701	Sololá	2	El tablón	8	Agosto	2023-03-08T00:00:00	2024-11-06T14:00:00	5	Humedad	88
169645	7	Sololá	701	Sololá	2	El tablón	8	Agosto	2023-03-08T00:00:00	2024-11-06T14:00:00	6	Velocidad del viento	6.4
169646	7	Sololá	701	Sololá	2	El tablón	8	Agosto	2023-03-08T00:00:00	2024-11-06T14:00:00	7	Dirección del viento	6.44
169647	7	Sololá	701	Sololá	2	El tablón	8	Agosto	2023-03-08T00:00:00	2024-11-06T14:00:00	1	Precipitación	10
169648	7	Sololá	701	Sololá	2	El tablón	8	Agosto	2023-03-08T00:00:00	2024-11-06T14:00:00	8	Radiación solar	60
169649	7	Sololá	701	Sololá	2	El tablón	8	Agosto	2023-03-08T00:00:00	2024-11-06T15:00:00	2	Temperatura media	15
169650	7	Sololá	701	Sololá	2	El tablón	8	Agosto	2023-03-08T00:00:00	2024-11-06T15:00:00	4	Temperatura máxima	15
169651	7	Sololá	701	Sololá	2	El tablón	8	Agosto	2023-03-08T00:00:00	2024-11-06T15:00:00	3	Temperatura mínima	13.3
169652	7	Sololá	701	Sololá	2	El tablón	8	Agosto	2023-03-08T00:00:00	2024-11-06T15:00:00	5	Humedad	87
169653	7	Sololá	701	Sololá	2	El tablón	8	Agosto	2023-03-08T00:00:00	2024-11-06T15:00:00	6	Velocidad del viento	4.8
169654	7	Sololá	701	Sololá	2	El tablón	8	Agosto	2023-03-08T00:00:00	2024-11-06T15:00:00	7	Dirección del viento	4.83
169655	7	Sololá	701	Sololá	2	El tablón	8	Agosto	2023-03-08T00:00:00	2024-11-06T15:00:00	1	Precipitación	1.2
169656	7	Sololá	701	Sololá	2	El tablón	8	Agosto	2023-03-08T00:00:00	2024-11-06T15:00:00	8	Radiación solar	201
169657	7	Sololá	701	Sololá	2	El tablón	8	Agosto	2023-03-08T00:00:00	2024-11-06T16:00:00	2	Temperatura media	14.7
169658	7	Sololá	701	Sololá	2	El tablón	8	Agosto	2023-03-08T00:00:00	2024-11-06T16:00:00	4	Temperatura máxima	15.3
169659	7	Sololá	701	Sololá	2	El tablón	8	Agosto	2023-03-08T00:00:00	2024-11-06T16:00:00	3	Temperatura mínima	14.7
169660	7	Sololá	701	Sololá	2	El tablón	8	Agosto	2023-03-08T00:00:00	2024-11-06T16:00:00	5	Humedad	87
169661	7	Sololá	701	Sololá	2	El tablón	8	Agosto	2023-03-08T00:00:00	2024-11-06T16:00:00	6	Velocidad del viento	1.6
169662	7	Sololá	701	Sololá	2	El tablón	8	Agosto	2023-03-08T00:00:00	2024-11-06T16:00:00	7	Dirección del viento	1.61
169663	7	Sololá	701	Sololá	2	El tablón	8	Agosto	2023-03-08T00:00:00	2024-11-06T16:00:00	1	Precipitación	2.6
169664	7	Sololá	701	Sololá	2	El tablón	8	Agosto	2023-03-08T00:00:00	2024-11-06T16:00:00	8	Radiación solar	155
169665	7	Sololá	701	Sololá	2	El tablón	8	Agosto	2023-03-08T00:00:00	2024-11-06T17:00:00	2	Temperatura media	15.1
169666	7	Sololá	701	Sololá	2	El tablón	8	Agosto	2023-03-08T00:00:00	2024-11-06T17:00:00	4	Temperatura máxima	15.3
169667	7	Sololá	701	Sololá	2	El tablón	8	Agosto	2023-03-08T00:00:00	2024-11-06T17:00:00	3	Temperatura mínima	14.6
169668	7	Sololá	701	Sololá	2	El tablón	8	Agosto	2023-03-08T00:00:00	2024-11-06T17:00:00	5	Humedad	88
169669	7	Sololá	701	Sololá	2	El tablón	8	Agosto	2023-03-08T00:00:00	2024-11-06T17:00:00	6	Velocidad del viento	1.6
169670	7	Sololá	701	Sololá	2	El tablón	8	Agosto	2023-03-08T00:00:00	2024-11-06T17:00:00	7	Dirección del viento	1.61
169671	7	Sololá	701	Sololá	2	El tablón	8	Agosto	2023-03-08T00:00:00	2024-11-06T17:00:00	1	Precipitación	0.2
169672	7	Sololá	701	Sololá	2	El tablón	8	Agosto	2023-03-08T00:00:00	2024-11-06T17:00:00	8	Radiación solar	122
169673	7	Sololá	701	Sololá	2	El tablón	8	Agosto	2023-03-08T00:00:00	2024-11-06T18:00:00	2	Temperatura media	13.6
169674	7	Sololá	701	Sololá	2	El tablón	8	Agosto	2023-03-08T00:00:00	2024-11-06T18:00:00	4	Temperatura máxima	15
169675	7	Sololá	701	Sololá	2	El tablón	8	Agosto	2023-03-08T00:00:00	2024-11-06T18:00:00	3	Temperatura mínima	13.6
169676	7	Sololá	701	Sololá	2	El tablón	8	Agosto	2023-03-08T00:00:00	2024-11-06T18:00:00	5	Humedad	88
169677	7	Sololá	701	Sololá	2	El tablón	8	Agosto	2023-03-08T00:00:00	2024-11-06T18:00:00	6	Velocidad del viento	1.6
169678	7	Sololá	701	Sololá	2	El tablón	8	Agosto	2023-03-08T00:00:00	2024-11-06T18:00:00	7	Dirección del viento	1.61
169679	7	Sololá	701	Sololá	2	El tablón	8	Agosto	2023-03-08T00:00:00	2024-11-06T18:00:00	1	Precipitación	0.4
169680	7	Sololá	701	Sololá	2	El tablón	8	Agosto	2023-03-08T00:00:00	2024-11-06T18:00:00	8	Radiación solar	23
169681	7	Sololá	701	Sololá	2	El tablón	8	Agosto	2023-03-08T00:00:00	2024-11-06T19:00:00	2	Temperatura media	13.6
169682	7	Sololá	701	Sololá	2	El tablón	8	Agosto	2023-03-08T00:00:00	2024-11-06T19:00:00	4	Temperatura máxima	13.6
169683	7	Sololá	701	Sololá	2	El tablón	8	Agosto	2023-03-08T00:00:00	2024-11-06T19:00:00	3	Temperatura mínima	13.5
169684	7	Sololá	701	Sololá	2	El tablón	8	Agosto	2023-03-08T00:00:00	2024-11-06T19:00:00	5	Humedad	88
169685	7	Sololá	701	Sololá	2	El tablón	8	Agosto	2023-03-08T00:00:00	2024-11-06T19:00:00	6	Velocidad del viento	4.8
169686	7	Sololá	701	Sololá	2	El tablón	8	Agosto	2023-03-08T00:00:00	2024-11-06T19:00:00	7	Dirección del viento	4.83
169687	7	Sololá	701	Sololá	2	El tablón	8	Agosto	2023-03-08T00:00:00	2024-11-06T19:00:00	1	Precipitación	1
169688	7	Sololá	701	Sololá	2	El tablón	8	Agosto	2023-03-08T00:00:00	2024-11-06T19:00:00	8	Radiación solar	0
169689	7	Sololá	701	Sololá	2	El tablón	8	Agosto	2023-03-08T00:00:00	2024-11-06T20:00:00	2	Temperatura media	13.3
169690	7	Sololá	701	Sololá	2	El tablón	8	Agosto	2023-03-08T00:00:00	2024-11-06T20:00:00	4	Temperatura máxima	13.6
169691	7	Sololá	701	Sololá	2	El tablón	8	Agosto	2023-03-08T00:00:00	2024-11-06T20:00:00	3	Temperatura mínima	13.3
169692	7	Sololá	701	Sololá	2	El tablón	8	Agosto	2023-03-08T00:00:00	2024-11-06T20:00:00	5	Humedad	89
169693	7	Sololá	701	Sololá	2	El tablón	8	Agosto	2023-03-08T00:00:00	2024-11-06T20:00:00	6	Velocidad del viento	6.4
169694	7	Sololá	701	Sololá	2	El tablón	8	Agosto	2023-03-08T00:00:00	2024-11-06T20:00:00	7	Dirección del viento	6.44
169695	7	Sololá	701	Sololá	2	El tablón	8	Agosto	2023-03-08T00:00:00	2024-11-06T20:00:00	1	Precipitación	3.6
169696	7	Sololá	701	Sololá	2	El tablón	8	Agosto	2023-03-08T00:00:00	2024-11-06T20:00:00	8	Radiación solar	0
169697	7	Sololá	701	Sololá	2	El tablón	8	Agosto	2023-03-08T00:00:00	2024-11-06T21:00:00	2	Temperatura media	13.2
169698	7	Sololá	701	Sololá	2	El tablón	8	Agosto	2023-03-08T00:00:00	2024-11-06T21:00:00	4	Temperatura máxima	13.3
169699	7	Sololá	701	Sololá	2	El tablón	8	Agosto	2023-03-08T00:00:00	2024-11-06T21:00:00	3	Temperatura mínima	13.2
169700	7	Sololá	701	Sololá	2	El tablón	8	Agosto	2023-03-08T00:00:00	2024-11-06T21:00:00	5	Humedad	88
169701	7	Sololá	701	Sololá	2	El tablón	8	Agosto	2023-03-08T00:00:00	2024-11-06T21:00:00	6	Velocidad del viento	9.7
169702	7	Sololá	701	Sololá	2	El tablón	8	Agosto	2023-03-08T00:00:00	2024-11-06T21:00:00	7	Dirección del viento	9.66
169703	7	Sololá	701	Sololá	2	El tablón	8	Agosto	2023-03-08T00:00:00	2024-11-06T21:00:00	1	Precipitación	4
169704	7	Sololá	701	Sololá	2	El tablón	8	Agosto	2023-03-08T00:00:00	2024-11-06T21:00:00	8	Radiación solar	0
169705	7	Sololá	701	Sololá	2	El tablón	8	Agosto	2023-03-08T00:00:00	2024-11-06T22:00:00	2	Temperatura media	12.5
169706	7	Sololá	701	Sololá	2	El tablón	8	Agosto	2023-03-08T00:00:00	2024-11-06T22:00:00	4	Temperatura máxima	13.3
169707	7	Sololá	701	Sololá	2	El tablón	8	Agosto	2023-03-08T00:00:00	2024-11-06T22:00:00	3	Temperatura mínima	12.5
169708	7	Sololá	701	Sololá	2	El tablón	8	Agosto	2023-03-08T00:00:00	2024-11-06T22:00:00	5	Humedad	88
169709	7	Sololá	701	Sololá	2	El tablón	8	Agosto	2023-03-08T00:00:00	2024-11-06T22:00:00	6	Velocidad del viento	8
169710	7	Sololá	701	Sololá	2	El tablón	8	Agosto	2023-03-08T00:00:00	2024-11-06T22:00:00	7	Dirección del viento	8.05
169711	7	Sololá	701	Sololá	2	El tablón	8	Agosto	2023-03-08T00:00:00	2024-11-06T22:00:00	1	Precipitación	0.6
169712	7	Sololá	701	Sololá	2	El tablón	8	Agosto	2023-03-08T00:00:00	2024-11-06T22:00:00	8	Radiación solar	0
169713	7	Sololá	701	Sololá	2	El tablón	8	Agosto	2023-03-08T00:00:00	2024-11-06T23:00:00	2	Temperatura media	12.3
169714	7	Sololá	701	Sololá	2	El tablón	8	Agosto	2023-03-08T00:00:00	2024-11-06T23:00:00	4	Temperatura máxima	12.5
169715	7	Sololá	701	Sololá	2	El tablón	8	Agosto	2023-03-08T00:00:00	2024-11-06T23:00:00	3	Temperatura mínima	12.2
169716	7	Sololá	701	Sololá	2	El tablón	8	Agosto	2023-03-08T00:00:00	2024-11-06T23:00:00	5	Humedad	88
169717	7	Sololá	701	Sololá	2	El tablón	8	Agosto	2023-03-08T00:00:00	2024-11-06T23:00:00	6	Velocidad del viento	4.8
169718	7	Sololá	701	Sololá	2	El tablón	8	Agosto	2023-03-08T00:00:00	2024-11-06T23:00:00	7	Dirección del viento	4.83
169719	7	Sololá	701	Sololá	2	El tablón	8	Agosto	2023-03-08T00:00:00	2024-11-06T23:00:00	1	Precipitación	0
169720	7	Sololá	701	Sololá	2	El tablón	8	Agosto	2023-03-08T00:00:00	2024-11-06T23:00:00	8	Radiación solar	0
169721	7	Sololá	701	Sololá	2	El tablón	8	Agosto	2023-04-08T00:00:00	2024-11-06T00:00:00	2	Temperatura media	12.8
169722	7	Sololá	701	Sololá	2	El tablón	8	Agosto	2023-04-08T00:00:00	2024-11-06T00:00:00	4	Temperatura máxima	12.8
169723	7	Sololá	701	Sololá	2	El tablón	8	Agosto	2023-04-08T00:00:00	2024-11-06T00:00:00	3	Temperatura mínima	12.2
169724	7	Sololá	701	Sololá	2	El tablón	8	Agosto	2023-04-08T00:00:00	2024-11-06T00:00:00	5	Humedad	86
169725	7	Sololá	701	Sololá	2	El tablón	8	Agosto	2023-04-08T00:00:00	2024-11-06T00:00:00	6	Velocidad del viento	6.4
169726	7	Sololá	701	Sololá	2	El tablón	8	Agosto	2023-04-08T00:00:00	2024-11-06T00:00:00	7	Dirección del viento	6.44
169727	7	Sololá	701	Sololá	2	El tablón	8	Agosto	2023-04-08T00:00:00	2024-11-06T00:00:00	1	Precipitación	0
169728	7	Sololá	701	Sololá	2	El tablón	8	Agosto	2023-04-08T00:00:00	2024-11-06T00:00:00	8	Radiación solar	0
169729	7	Sololá	701	Sololá	2	El tablón	8	Agosto	2023-04-08T00:00:00	2024-11-06T01:00:00	2	Temperatura media	13.1
169730	7	Sololá	701	Sololá	2	El tablón	8	Agosto	2023-04-08T00:00:00	2024-11-06T01:00:00	4	Temperatura máxima	13.1
169731	7	Sololá	701	Sololá	2	El tablón	8	Agosto	2023-04-08T00:00:00	2024-11-06T01:00:00	3	Temperatura mínima	12.7
169732	7	Sololá	701	Sololá	2	El tablón	8	Agosto	2023-04-08T00:00:00	2024-11-06T01:00:00	5	Humedad	84
169733	7	Sololá	701	Sololá	2	El tablón	8	Agosto	2023-04-08T00:00:00	2024-11-06T01:00:00	6	Velocidad del viento	9.7
169734	7	Sololá	701	Sololá	2	El tablón	8	Agosto	2023-04-08T00:00:00	2024-11-06T01:00:00	7	Dirección del viento	9.66
169735	7	Sololá	701	Sololá	2	El tablón	8	Agosto	2023-04-08T00:00:00	2024-11-06T01:00:00	1	Precipitación	0
169736	7	Sololá	701	Sololá	2	El tablón	8	Agosto	2023-04-08T00:00:00	2024-11-06T01:00:00	8	Radiación solar	0
169737	7	Sololá	701	Sololá	2	El tablón	8	Agosto	2023-04-08T00:00:00	2024-11-06T02:00:00	2	Temperatura media	12.5
169738	7	Sololá	701	Sololá	2	El tablón	8	Agosto	2023-04-08T00:00:00	2024-11-06T02:00:00	4	Temperatura máxima	13.1
169739	7	Sololá	701	Sololá	2	El tablón	8	Agosto	2023-04-08T00:00:00	2024-11-06T02:00:00	3	Temperatura mínima	12.4
169740	7	Sololá	701	Sololá	2	El tablón	8	Agosto	2023-04-08T00:00:00	2024-11-06T02:00:00	5	Humedad	86
169741	7	Sololá	701	Sololá	2	El tablón	8	Agosto	2023-04-08T00:00:00	2024-11-06T02:00:00	6	Velocidad del viento	4.8
169742	7	Sololá	701	Sololá	2	El tablón	8	Agosto	2023-04-08T00:00:00	2024-11-06T02:00:00	7	Dirección del viento	4.83
169743	7	Sololá	701	Sololá	2	El tablón	8	Agosto	2023-04-08T00:00:00	2024-11-06T02:00:00	1	Precipitación	0
169744	7	Sololá	701	Sololá	2	El tablón	8	Agosto	2023-04-08T00:00:00	2024-11-06T02:00:00	8	Radiación solar	0
169745	7	Sololá	701	Sololá	2	El tablón	8	Agosto	2023-04-08T00:00:00	2024-11-06T03:00:00	2	Temperatura media	12.1
169746	7	Sololá	701	Sololá	2	El tablón	8	Agosto	2023-04-08T00:00:00	2024-11-06T03:00:00	4	Temperatura máxima	12.5
169747	7	Sololá	701	Sololá	2	El tablón	8	Agosto	2023-04-08T00:00:00	2024-11-06T03:00:00	3	Temperatura mínima	12
169748	7	Sololá	701	Sololá	2	El tablón	8	Agosto	2023-04-08T00:00:00	2024-11-06T03:00:00	5	Humedad	87
169749	7	Sololá	701	Sololá	2	El tablón	8	Agosto	2023-04-08T00:00:00	2024-11-06T03:00:00	6	Velocidad del viento	6.4
169750	7	Sololá	701	Sololá	2	El tablón	8	Agosto	2023-04-08T00:00:00	2024-11-06T03:00:00	7	Dirección del viento	6.44
169751	7	Sololá	701	Sololá	2	El tablón	8	Agosto	2023-04-08T00:00:00	2024-11-06T03:00:00	1	Precipitación	0
169752	7	Sololá	701	Sololá	2	El tablón	8	Agosto	2023-04-08T00:00:00	2024-11-06T03:00:00	8	Radiación solar	0
169753	7	Sololá	701	Sololá	2	El tablón	8	Agosto	2023-04-08T00:00:00	2024-11-06T04:00:00	2	Temperatura media	11.6
169754	7	Sololá	701	Sololá	2	El tablón	8	Agosto	2023-04-08T00:00:00	2024-11-06T04:00:00	4	Temperatura máxima	12.3
169755	7	Sololá	701	Sololá	2	El tablón	8	Agosto	2023-04-08T00:00:00	2024-11-06T04:00:00	3	Temperatura mínima	11.6
169756	7	Sololá	701	Sololá	2	El tablón	8	Agosto	2023-04-08T00:00:00	2024-11-06T04:00:00	5	Humedad	88
169757	7	Sololá	701	Sololá	2	El tablón	8	Agosto	2023-04-08T00:00:00	2024-11-06T04:00:00	6	Velocidad del viento	4.8
169758	7	Sololá	701	Sololá	2	El tablón	8	Agosto	2023-04-08T00:00:00	2024-11-06T04:00:00	7	Dirección del viento	4.83
169759	7	Sololá	701	Sololá	2	El tablón	8	Agosto	2023-04-08T00:00:00	2024-11-06T04:00:00	1	Precipitación	0
169760	7	Sololá	701	Sololá	2	El tablón	8	Agosto	2023-04-08T00:00:00	2024-11-06T04:00:00	8	Radiación solar	0
169761	7	Sololá	701	Sololá	2	El tablón	8	Agosto	2023-04-08T00:00:00	2024-11-06T05:00:00	2	Temperatura media	12.3
169762	7	Sololá	701	Sololá	2	El tablón	8	Agosto	2023-04-08T00:00:00	2024-11-06T05:00:00	4	Temperatura máxima	12.3
169763	7	Sololá	701	Sololá	2	El tablón	8	Agosto	2023-04-08T00:00:00	2024-11-06T05:00:00	3	Temperatura mínima	11.6
169764	7	Sololá	701	Sololá	2	El tablón	8	Agosto	2023-04-08T00:00:00	2024-11-06T05:00:00	5	Humedad	87
169765	7	Sololá	701	Sololá	2	El tablón	8	Agosto	2023-04-08T00:00:00	2024-11-06T05:00:00	6	Velocidad del viento	3.2
169766	7	Sololá	701	Sololá	2	El tablón	8	Agosto	2023-04-08T00:00:00	2024-11-06T05:00:00	7	Dirección del viento	3.22
169767	7	Sololá	701	Sololá	2	El tablón	8	Agosto	2023-04-08T00:00:00	2024-11-06T05:00:00	1	Precipitación	0
169768	7	Sololá	701	Sololá	2	El tablón	8	Agosto	2023-04-08T00:00:00	2024-11-06T05:00:00	8	Radiación solar	0
169769	7	Sololá	701	Sololá	2	El tablón	8	Agosto	2023-04-08T00:00:00	2024-11-06T06:00:00	2	Temperatura media	12.4
169770	7	Sololá	701	Sololá	2	El tablón	8	Agosto	2023-04-08T00:00:00	2024-11-06T06:00:00	4	Temperatura máxima	12.4
169771	7	Sololá	701	Sololá	2	El tablón	8	Agosto	2023-04-08T00:00:00	2024-11-06T06:00:00	3	Temperatura mínima	12.2
169772	7	Sololá	701	Sololá	2	El tablón	8	Agosto	2023-04-08T00:00:00	2024-11-06T06:00:00	5	Humedad	87
169773	7	Sololá	701	Sololá	2	El tablón	8	Agosto	2023-04-08T00:00:00	2024-11-06T06:00:00	6	Velocidad del viento	4.8
169774	7	Sololá	701	Sololá	2	El tablón	8	Agosto	2023-04-08T00:00:00	2024-11-06T06:00:00	7	Dirección del viento	4.83
169775	7	Sololá	701	Sololá	2	El tablón	8	Agosto	2023-04-08T00:00:00	2024-11-06T06:00:00	1	Precipitación	0
169776	7	Sololá	701	Sololá	2	El tablón	8	Agosto	2023-04-08T00:00:00	2024-11-06T06:00:00	8	Radiación solar	0
169777	7	Sololá	701	Sololá	2	El tablón	8	Agosto	2023-04-08T00:00:00	2024-11-06T07:00:00	2	Temperatura media	13.2
169778	7	Sololá	701	Sololá	2	El tablón	8	Agosto	2023-04-08T00:00:00	2024-11-06T07:00:00	4	Temperatura máxima	13.2
169779	7	Sololá	701	Sololá	2	El tablón	8	Agosto	2023-04-08T00:00:00	2024-11-06T07:00:00	3	Temperatura mínima	12.4
169780	7	Sololá	701	Sololá	2	El tablón	8	Agosto	2023-04-08T00:00:00	2024-11-06T07:00:00	5	Humedad	87
169781	7	Sololá	701	Sololá	2	El tablón	8	Agosto	2023-04-08T00:00:00	2024-11-06T07:00:00	6	Velocidad del viento	3.2
169782	7	Sololá	701	Sololá	2	El tablón	8	Agosto	2023-04-08T00:00:00	2024-11-06T07:00:00	7	Dirección del viento	3.22
169783	7	Sololá	701	Sololá	2	El tablón	8	Agosto	2023-04-08T00:00:00	2024-11-06T07:00:00	1	Precipitación	0
169784	7	Sololá	701	Sololá	2	El tablón	8	Agosto	2023-04-08T00:00:00	2024-11-06T07:00:00	8	Radiación solar	59
169785	7	Sololá	701	Sololá	2	El tablón	8	Agosto	2023-04-08T00:00:00	2024-11-06T08:00:00	2	Temperatura media	15.2
169786	7	Sololá	701	Sololá	2	El tablón	8	Agosto	2023-04-08T00:00:00	2024-11-06T08:00:00	4	Temperatura máxima	15.2
169787	7	Sololá	701	Sololá	2	El tablón	8	Agosto	2023-04-08T00:00:00	2024-11-06T08:00:00	3	Temperatura mínima	13.2
169788	7	Sololá	701	Sololá	2	El tablón	8	Agosto	2023-04-08T00:00:00	2024-11-06T08:00:00	5	Humedad	83
169789	7	Sololá	701	Sololá	2	El tablón	8	Agosto	2023-04-08T00:00:00	2024-11-06T08:00:00	6	Velocidad del viento	3.2
169790	7	Sololá	701	Sololá	2	El tablón	8	Agosto	2023-04-08T00:00:00	2024-11-06T08:00:00	7	Dirección del viento	3.22
169791	7	Sololá	701	Sololá	2	El tablón	8	Agosto	2023-04-08T00:00:00	2024-11-06T08:00:00	1	Precipitación	0
169792	7	Sololá	701	Sololá	2	El tablón	8	Agosto	2023-04-08T00:00:00	2024-11-06T08:00:00	8	Radiación solar	174
169793	7	Sololá	701	Sololá	2	El tablón	8	Agosto	2023-04-08T00:00:00	2024-11-06T09:00:00	2	Temperatura media	17.7
169794	7	Sololá	701	Sololá	2	El tablón	8	Agosto	2023-04-08T00:00:00	2024-11-06T09:00:00	4	Temperatura máxima	17.7
169795	7	Sololá	701	Sololá	2	El tablón	8	Agosto	2023-04-08T00:00:00	2024-11-06T09:00:00	3	Temperatura mínima	15.2
169796	7	Sololá	701	Sololá	2	El tablón	8	Agosto	2023-04-08T00:00:00	2024-11-06T09:00:00	5	Humedad	75
169797	7	Sololá	701	Sololá	2	El tablón	8	Agosto	2023-04-08T00:00:00	2024-11-06T09:00:00	6	Velocidad del viento	3.2
169798	7	Sololá	701	Sololá	2	El tablón	8	Agosto	2023-04-08T00:00:00	2024-11-06T09:00:00	7	Dirección del viento	3.22
169799	7	Sololá	701	Sololá	2	El tablón	8	Agosto	2023-04-08T00:00:00	2024-11-06T09:00:00	1	Precipitación	0
169800	7	Sololá	701	Sololá	2	El tablón	8	Agosto	2023-04-08T00:00:00	2024-11-06T09:00:00	8	Radiación solar	416
169801	7	Sololá	701	Sololá	2	El tablón	8	Agosto	2023-04-08T00:00:00	2024-11-06T10:00:00	2	Temperatura media	20.1
169802	7	Sololá	701	Sololá	2	El tablón	8	Agosto	2023-04-08T00:00:00	2024-11-06T10:00:00	4	Temperatura máxima	20.1
169803	7	Sololá	701	Sololá	2	El tablón	8	Agosto	2023-04-08T00:00:00	2024-11-06T10:00:00	3	Temperatura mínima	17.7
169804	7	Sololá	701	Sololá	2	El tablón	8	Agosto	2023-04-08T00:00:00	2024-11-06T10:00:00	5	Humedad	66
169805	7	Sololá	701	Sololá	2	El tablón	8	Agosto	2023-04-08T00:00:00	2024-11-06T10:00:00	6	Velocidad del viento	3.2
169806	7	Sololá	701	Sololá	2	El tablón	8	Agosto	2023-04-08T00:00:00	2024-11-06T10:00:00	7	Dirección del viento	3.22
169807	7	Sololá	701	Sololá	2	El tablón	8	Agosto	2023-04-08T00:00:00	2024-11-06T10:00:00	1	Precipitación	0
169808	7	Sololá	701	Sololá	2	El tablón	8	Agosto	2023-04-08T00:00:00	2024-11-06T10:00:00	8	Radiación solar	816
169809	7	Sololá	701	Sololá	2	El tablón	8	Agosto	2023-04-08T00:00:00	2024-11-06T11:00:00	2	Temperatura media	19.8
169810	7	Sololá	701	Sololá	2	El tablón	8	Agosto	2023-04-08T00:00:00	2024-11-06T11:00:00	4	Temperatura máxima	20.7
169811	7	Sololá	701	Sololá	2	El tablón	8	Agosto	2023-04-08T00:00:00	2024-11-06T11:00:00	3	Temperatura mínima	19.3
169812	7	Sololá	701	Sololá	2	El tablón	8	Agosto	2023-04-08T00:00:00	2024-11-06T11:00:00	5	Humedad	73
169813	7	Sololá	701	Sololá	2	El tablón	8	Agosto	2023-04-08T00:00:00	2024-11-06T11:00:00	6	Velocidad del viento	3.2
169814	7	Sololá	701	Sololá	2	El tablón	8	Agosto	2023-04-08T00:00:00	2024-11-06T11:00:00	7	Dirección del viento	3.22
169815	7	Sololá	701	Sololá	2	El tablón	8	Agosto	2023-04-08T00:00:00	2024-11-06T11:00:00	1	Precipitación	0
169816	7	Sololá	701	Sololá	2	El tablón	8	Agosto	2023-04-08T00:00:00	2024-11-06T11:00:00	8	Radiación solar	737
169817	7	Sololá	701	Sololá	2	El tablón	8	Agosto	2023-04-08T00:00:00	2024-11-06T12:00:00	2	Temperatura media	19.8
169818	7	Sololá	701	Sololá	2	El tablón	8	Agosto	2023-04-08T00:00:00	2024-11-06T12:00:00	4	Temperatura máxima	20.7
169819	7	Sololá	701	Sololá	2	El tablón	8	Agosto	2023-04-08T00:00:00	2024-11-06T12:00:00	3	Temperatura mínima	19.5
169820	7	Sololá	701	Sololá	2	El tablón	8	Agosto	2023-04-08T00:00:00	2024-11-06T12:00:00	5	Humedad	72
169821	7	Sololá	701	Sololá	2	El tablón	8	Agosto	2023-04-08T00:00:00	2024-11-06T12:00:00	6	Velocidad del viento	6.4
169822	7	Sololá	701	Sololá	2	El tablón	8	Agosto	2023-04-08T00:00:00	2024-11-06T12:00:00	7	Dirección del viento	6.44
169823	7	Sololá	701	Sololá	2	El tablón	8	Agosto	2023-04-08T00:00:00	2024-11-06T12:00:00	1	Precipitación	0
169824	7	Sololá	701	Sololá	2	El tablón	8	Agosto	2023-04-08T00:00:00	2024-11-06T12:00:00	8	Radiación solar	680
169825	7	Sololá	701	Sololá	2	El tablón	8	Agosto	2023-04-08T00:00:00	2024-11-06T13:00:00	2	Temperatura media	19
169826	7	Sololá	701	Sololá	2	El tablón	8	Agosto	2023-04-08T00:00:00	2024-11-06T13:00:00	4	Temperatura máxima	19.8
169827	7	Sololá	701	Sololá	2	El tablón	8	Agosto	2023-04-08T00:00:00	2024-11-06T13:00:00	3	Temperatura mínima	18.9
169828	7	Sololá	701	Sololá	2	El tablón	8	Agosto	2023-04-08T00:00:00	2024-11-06T13:00:00	5	Humedad	74
169829	7	Sololá	701	Sololá	2	El tablón	8	Agosto	2023-04-08T00:00:00	2024-11-06T13:00:00	6	Velocidad del viento	11.3
169830	7	Sololá	701	Sololá	2	El tablón	8	Agosto	2023-04-08T00:00:00	2024-11-06T13:00:00	7	Dirección del viento	11.27
169831	7	Sololá	701	Sololá	2	El tablón	8	Agosto	2023-04-08T00:00:00	2024-11-06T13:00:00	1	Precipitación	0
169832	7	Sololá	701	Sololá	2	El tablón	8	Agosto	2023-04-08T00:00:00	2024-11-06T13:00:00	8	Radiación solar	582
169833	7	Sololá	701	Sololá	2	El tablón	8	Agosto	2023-04-08T00:00:00	2024-11-06T14:00:00	2	Temperatura media	19.2
169834	7	Sololá	701	Sololá	2	El tablón	8	Agosto	2023-04-08T00:00:00	2024-11-06T14:00:00	4	Temperatura máxima	19.5
169835	7	Sololá	701	Sololá	2	El tablón	8	Agosto	2023-04-08T00:00:00	2024-11-06T14:00:00	3	Temperatura mínima	18.9
169836	7	Sololá	701	Sololá	2	El tablón	8	Agosto	2023-04-08T00:00:00	2024-11-06T14:00:00	5	Humedad	67
169837	7	Sololá	701	Sololá	2	El tablón	8	Agosto	2023-04-08T00:00:00	2024-11-06T14:00:00	6	Velocidad del viento	9.7
169838	7	Sololá	701	Sololá	2	El tablón	8	Agosto	2023-04-08T00:00:00	2024-11-06T14:00:00	7	Dirección del viento	9.66
169839	7	Sololá	701	Sololá	2	El tablón	8	Agosto	2023-04-08T00:00:00	2024-11-06T14:00:00	1	Precipitación	0
169840	7	Sololá	701	Sololá	2	El tablón	8	Agosto	2023-04-08T00:00:00	2024-11-06T14:00:00	8	Radiación solar	487
169841	7	Sololá	701	Sololá	2	El tablón	8	Agosto	2023-04-08T00:00:00	2024-11-06T15:00:00	2	Temperatura media	20.5
169842	7	Sololá	701	Sololá	2	El tablón	8	Agosto	2023-04-08T00:00:00	2024-11-06T15:00:00	4	Temperatura máxima	20.6
169843	7	Sololá	701	Sololá	2	El tablón	8	Agosto	2023-04-08T00:00:00	2024-11-06T15:00:00	3	Temperatura mínima	18.7
169844	7	Sololá	701	Sololá	2	El tablón	8	Agosto	2023-04-08T00:00:00	2024-11-06T15:00:00	5	Humedad	61
169845	7	Sololá	701	Sololá	2	El tablón	8	Agosto	2023-04-08T00:00:00	2024-11-06T15:00:00	6	Velocidad del viento	8
169846	7	Sololá	701	Sololá	2	El tablón	8	Agosto	2023-04-08T00:00:00	2024-11-06T15:00:00	7	Dirección del viento	8.05
169847	7	Sololá	701	Sololá	2	El tablón	8	Agosto	2023-04-08T00:00:00	2024-11-06T15:00:00	1	Precipitación	0
169848	7	Sololá	701	Sololá	2	El tablón	8	Agosto	2023-04-08T00:00:00	2024-11-06T15:00:00	8	Radiación solar	735
169849	7	Sololá	701	Sololá	2	El tablón	8	Agosto	2023-04-08T00:00:00	2024-11-06T16:00:00	2	Temperatura media	19.7
169850	7	Sololá	701	Sololá	2	El tablón	8	Agosto	2023-04-08T00:00:00	2024-11-06T16:00:00	4	Temperatura máxima	20.7
169851	7	Sololá	701	Sololá	2	El tablón	8	Agosto	2023-04-08T00:00:00	2024-11-06T16:00:00	3	Temperatura mínima	19.7
169852	7	Sololá	701	Sololá	2	El tablón	8	Agosto	2023-04-08T00:00:00	2024-11-06T16:00:00	5	Humedad	80
169853	7	Sololá	701	Sololá	2	El tablón	8	Agosto	2023-04-08T00:00:00	2024-11-06T16:00:00	6	Velocidad del viento	6.4
169854	7	Sololá	701	Sololá	2	El tablón	8	Agosto	2023-04-08T00:00:00	2024-11-06T16:00:00	7	Dirección del viento	6.44
169855	7	Sololá	701	Sololá	2	El tablón	8	Agosto	2023-04-08T00:00:00	2024-11-06T16:00:00	1	Precipitación	0
169856	7	Sololá	701	Sololá	2	El tablón	8	Agosto	2023-04-08T00:00:00	2024-11-06T16:00:00	8	Radiación solar	436
169857	7	Sololá	701	Sololá	2	El tablón	8	Agosto	2023-04-08T00:00:00	2024-11-06T17:00:00	2	Temperatura media	18.3
169858	7	Sololá	701	Sololá	2	El tablón	8	Agosto	2023-04-08T00:00:00	2024-11-06T17:00:00	4	Temperatura máxima	19.7
169859	7	Sololá	701	Sololá	2	El tablón	8	Agosto	2023-04-08T00:00:00	2024-11-06T17:00:00	3	Temperatura mínima	18.1
169860	7	Sololá	701	Sololá	2	El tablón	8	Agosto	2023-04-08T00:00:00	2024-11-06T17:00:00	5	Humedad	84
169861	7	Sololá	701	Sololá	2	El tablón	8	Agosto	2023-04-08T00:00:00	2024-11-06T17:00:00	6	Velocidad del viento	4.8
169862	7	Sololá	701	Sololá	2	El tablón	8	Agosto	2023-04-08T00:00:00	2024-11-06T17:00:00	7	Dirección del viento	4.83
169863	7	Sololá	701	Sololá	2	El tablón	8	Agosto	2023-04-08T00:00:00	2024-11-06T17:00:00	1	Precipitación	0
169864	7	Sololá	701	Sololá	2	El tablón	8	Agosto	2023-04-08T00:00:00	2024-11-06T17:00:00	8	Radiación solar	225
169865	7	Sololá	701	Sololá	2	El tablón	8	Agosto	2023-04-08T00:00:00	2024-11-06T18:00:00	2	Temperatura media	16.8
169866	7	Sololá	701	Sololá	2	El tablón	8	Agosto	2023-04-08T00:00:00	2024-11-06T18:00:00	4	Temperatura máxima	18.6
169867	7	Sololá	701	Sololá	2	El tablón	8	Agosto	2023-04-08T00:00:00	2024-11-06T18:00:00	3	Temperatura mínima	16.8
169868	7	Sololá	701	Sololá	2	El tablón	8	Agosto	2023-04-08T00:00:00	2024-11-06T18:00:00	5	Humedad	86
169869	7	Sololá	701	Sololá	2	El tablón	8	Agosto	2023-04-08T00:00:00	2024-11-06T18:00:00	6	Velocidad del viento	4.8
169870	7	Sololá	701	Sololá	2	El tablón	8	Agosto	2023-04-08T00:00:00	2024-11-06T18:00:00	7	Dirección del viento	4.83
169871	7	Sololá	701	Sololá	2	El tablón	8	Agosto	2023-04-08T00:00:00	2024-11-06T18:00:00	1	Precipitación	0
169872	7	Sololá	701	Sololá	2	El tablón	8	Agosto	2023-04-08T00:00:00	2024-11-06T18:00:00	8	Radiación solar	156
169873	7	Sololá	701	Sololá	2	El tablón	8	Agosto	2023-04-08T00:00:00	2024-11-06T19:00:00	2	Temperatura media	15.2
169874	7	Sololá	701	Sololá	2	El tablón	8	Agosto	2023-04-08T00:00:00	2024-11-06T19:00:00	4	Temperatura máxima	16.8
169875	7	Sololá	701	Sololá	2	El tablón	8	Agosto	2023-04-08T00:00:00	2024-11-06T19:00:00	3	Temperatura mínima	15.2
169876	7	Sololá	701	Sololá	2	El tablón	8	Agosto	2023-04-08T00:00:00	2024-11-06T19:00:00	5	Humedad	88
169877	7	Sololá	701	Sololá	2	El tablón	8	Agosto	2023-04-08T00:00:00	2024-11-06T19:00:00	6	Velocidad del viento	1.6
169878	7	Sololá	701	Sololá	2	El tablón	8	Agosto	2023-04-08T00:00:00	2024-11-06T19:00:00	7	Dirección del viento	1.61
169879	7	Sololá	701	Sololá	2	El tablón	8	Agosto	2023-04-08T00:00:00	2024-11-06T19:00:00	1	Precipitación	0
169880	7	Sololá	701	Sololá	2	El tablón	8	Agosto	2023-04-08T00:00:00	2024-11-06T19:00:00	8	Radiación solar	0
169881	7	Sololá	701	Sololá	2	El tablón	8	Agosto	2023-04-08T00:00:00	2024-11-06T20:00:00	2	Temperatura media	14.8
169882	7	Sololá	701	Sololá	2	El tablón	8	Agosto	2023-04-08T00:00:00	2024-11-06T20:00:00	4	Temperatura máxima	15.2
169883	7	Sololá	701	Sololá	2	El tablón	8	Agosto	2023-04-08T00:00:00	2024-11-06T20:00:00	3	Temperatura mínima	14.8
169884	7	Sololá	701	Sololá	2	El tablón	8	Agosto	2023-04-08T00:00:00	2024-11-06T20:00:00	5	Humedad	88
169885	7	Sololá	701	Sololá	2	El tablón	8	Agosto	2023-04-08T00:00:00	2024-11-06T20:00:00	6	Velocidad del viento	1.6
169886	7	Sololá	701	Sololá	2	El tablón	8	Agosto	2023-04-08T00:00:00	2024-11-06T20:00:00	7	Dirección del viento	1.61
169887	7	Sololá	701	Sololá	2	El tablón	8	Agosto	2023-04-08T00:00:00	2024-11-06T20:00:00	1	Precipitación	0
169888	7	Sololá	701	Sololá	2	El tablón	8	Agosto	2023-04-08T00:00:00	2024-11-06T20:00:00	8	Radiación solar	0
169889	7	Sololá	701	Sololá	2	El tablón	8	Agosto	2023-04-08T00:00:00	2024-11-06T21:00:00	2	Temperatura media	14.3
169890	7	Sololá	701	Sololá	2	El tablón	8	Agosto	2023-04-08T00:00:00	2024-11-06T21:00:00	4	Temperatura máxima	14.8
169891	7	Sololá	701	Sololá	2	El tablón	8	Agosto	2023-04-08T00:00:00	2024-11-06T21:00:00	3	Temperatura mínima	13.9
169892	7	Sololá	701	Sololá	2	El tablón	8	Agosto	2023-04-08T00:00:00	2024-11-06T21:00:00	5	Humedad	85
169893	7	Sololá	701	Sololá	2	El tablón	8	Agosto	2023-04-08T00:00:00	2024-11-06T21:00:00	6	Velocidad del viento	3.2
169894	7	Sololá	701	Sololá	2	El tablón	8	Agosto	2023-04-08T00:00:00	2024-11-06T21:00:00	7	Dirección del viento	3.22
169895	7	Sololá	701	Sololá	2	El tablón	8	Agosto	2023-04-08T00:00:00	2024-11-06T21:00:00	1	Precipitación	0
169896	7	Sololá	701	Sololá	2	El tablón	8	Agosto	2023-04-08T00:00:00	2024-11-06T21:00:00	8	Radiación solar	0
169897	7	Sololá	701	Sololá	2	El tablón	8	Agosto	2023-04-08T00:00:00	2024-11-06T22:00:00	2	Temperatura media	14.7
169898	7	Sololá	701	Sololá	2	El tablón	8	Agosto	2023-04-08T00:00:00	2024-11-06T22:00:00	4	Temperatura máxima	14.8
169899	7	Sololá	701	Sololá	2	El tablón	8	Agosto	2023-04-08T00:00:00	2024-11-06T22:00:00	3	Temperatura mínima	14.3
169900	7	Sololá	701	Sololá	2	El tablón	8	Agosto	2023-04-08T00:00:00	2024-11-06T22:00:00	5	Humedad	84
169901	7	Sololá	701	Sololá	2	El tablón	8	Agosto	2023-04-08T00:00:00	2024-11-06T22:00:00	6	Velocidad del viento	4.8
169902	7	Sololá	701	Sololá	2	El tablón	8	Agosto	2023-04-08T00:00:00	2024-11-06T22:00:00	7	Dirección del viento	4.83
169903	7	Sololá	701	Sololá	2	El tablón	8	Agosto	2023-04-08T00:00:00	2024-11-06T22:00:00	1	Precipitación	0
169904	7	Sololá	701	Sololá	2	El tablón	8	Agosto	2023-04-08T00:00:00	2024-11-06T22:00:00	8	Radiación solar	0
169905	7	Sololá	701	Sololá	2	El tablón	8	Agosto	2023-04-08T00:00:00	2024-11-06T23:00:00	2	Temperatura media	13.9
169906	7	Sololá	701	Sololá	2	El tablón	8	Agosto	2023-04-08T00:00:00	2024-11-06T23:00:00	4	Temperatura máxima	14.6
169907	7	Sololá	701	Sololá	2	El tablón	8	Agosto	2023-04-08T00:00:00	2024-11-06T23:00:00	3	Temperatura mínima	13.9
169908	7	Sololá	701	Sololá	2	El tablón	8	Agosto	2023-04-08T00:00:00	2024-11-06T23:00:00	5	Humedad	87
169909	7	Sololá	701	Sololá	2	El tablón	8	Agosto	2023-04-08T00:00:00	2024-11-06T23:00:00	6	Velocidad del viento	3.2
169910	7	Sololá	701	Sololá	2	El tablón	8	Agosto	2023-04-08T00:00:00	2024-11-06T23:00:00	7	Dirección del viento	3.22
169911	7	Sololá	701	Sololá	2	El tablón	8	Agosto	2023-04-08T00:00:00	2024-11-06T23:00:00	1	Precipitación	0
169912	7	Sololá	701	Sololá	2	El tablón	8	Agosto	2023-04-08T00:00:00	2024-11-06T23:00:00	8	Radiación solar	0
169913	7	Sololá	701	Sololá	2	El tablón	8	Agosto	2023-05-08T00:00:00	2024-11-06T00:00:00	2	Temperatura media	13.8
169914	7	Sololá	701	Sololá	2	El tablón	8	Agosto	2023-05-08T00:00:00	2024-11-06T00:00:00	4	Temperatura máxima	13.9
169915	7	Sololá	701	Sololá	2	El tablón	8	Agosto	2023-05-08T00:00:00	2024-11-06T00:00:00	3	Temperatura mínima	13.7
169916	7	Sololá	701	Sololá	2	El tablón	8	Agosto	2023-05-08T00:00:00	2024-11-06T00:00:00	5	Humedad	88
169917	7	Sololá	701	Sololá	2	El tablón	8	Agosto	2023-05-08T00:00:00	2024-11-06T00:00:00	6	Velocidad del viento	4.8
169918	7	Sololá	701	Sololá	2	El tablón	8	Agosto	2023-05-08T00:00:00	2024-11-06T00:00:00	7	Dirección del viento	4.83
169919	7	Sololá	701	Sololá	2	El tablón	8	Agosto	2023-05-08T00:00:00	2024-11-06T00:00:00	1	Precipitación	0
169920	7	Sololá	701	Sololá	2	El tablón	8	Agosto	2023-05-08T00:00:00	2024-11-06T00:00:00	8	Radiación solar	0
169921	7	Sololá	701	Sololá	2	El tablón	8	Agosto	2023-05-08T00:00:00	2024-11-06T01:00:00	2	Temperatura media	13.6
169922	7	Sololá	701	Sololá	2	El tablón	8	Agosto	2023-05-08T00:00:00	2024-11-06T01:00:00	4	Temperatura máxima	13.8
169923	7	Sololá	701	Sololá	2	El tablón	8	Agosto	2023-05-08T00:00:00	2024-11-06T01:00:00	3	Temperatura mínima	13.6
169924	7	Sololá	701	Sololá	2	El tablón	8	Agosto	2023-05-08T00:00:00	2024-11-06T01:00:00	5	Humedad	88
169925	7	Sololá	701	Sololá	2	El tablón	8	Agosto	2023-05-08T00:00:00	2024-11-06T01:00:00	6	Velocidad del viento	4.8
169926	7	Sololá	701	Sololá	2	El tablón	8	Agosto	2023-05-08T00:00:00	2024-11-06T01:00:00	7	Dirección del viento	4.83
169927	7	Sololá	701	Sololá	2	El tablón	8	Agosto	2023-05-08T00:00:00	2024-11-06T01:00:00	1	Precipitación	0
169928	7	Sololá	701	Sololá	2	El tablón	8	Agosto	2023-05-08T00:00:00	2024-11-06T01:00:00	8	Radiación solar	0
169929	7	Sololá	701	Sololá	2	El tablón	8	Agosto	2023-05-08T00:00:00	2024-11-06T02:00:00	2	Temperatura media	13.6
169930	7	Sololá	701	Sololá	2	El tablón	8	Agosto	2023-05-08T00:00:00	2024-11-06T02:00:00	4	Temperatura máxima	13.7
169931	7	Sololá	701	Sololá	2	El tablón	8	Agosto	2023-05-08T00:00:00	2024-11-06T02:00:00	3	Temperatura mínima	13.6
169932	7	Sololá	701	Sololá	2	El tablón	8	Agosto	2023-05-08T00:00:00	2024-11-06T02:00:00	5	Humedad	87
169933	7	Sololá	701	Sololá	2	El tablón	8	Agosto	2023-05-08T00:00:00	2024-11-06T02:00:00	6	Velocidad del viento	4.8
169934	7	Sololá	701	Sololá	2	El tablón	8	Agosto	2023-05-08T00:00:00	2024-11-06T02:00:00	7	Dirección del viento	4.83
169935	7	Sololá	701	Sololá	2	El tablón	8	Agosto	2023-05-08T00:00:00	2024-11-06T02:00:00	1	Precipitación	0
169936	7	Sololá	701	Sololá	2	El tablón	8	Agosto	2023-05-08T00:00:00	2024-11-06T02:00:00	8	Radiación solar	0
169937	7	Sololá	701	Sololá	2	El tablón	8	Agosto	2023-05-08T00:00:00	2024-11-06T03:00:00	2	Temperatura media	13.6
169938	7	Sololá	701	Sololá	2	El tablón	8	Agosto	2023-05-08T00:00:00	2024-11-06T03:00:00	4	Temperatura máxima	13.6
169939	7	Sololá	701	Sololá	2	El tablón	8	Agosto	2023-05-08T00:00:00	2024-11-06T03:00:00	3	Temperatura mínima	13.3
169940	7	Sololá	701	Sololá	2	El tablón	8	Agosto	2023-05-08T00:00:00	2024-11-06T03:00:00	5	Humedad	87
169941	7	Sololá	701	Sololá	2	El tablón	8	Agosto	2023-05-08T00:00:00	2024-11-06T03:00:00	6	Velocidad del viento	6.4
169942	7	Sololá	701	Sololá	2	El tablón	8	Agosto	2023-05-08T00:00:00	2024-11-06T03:00:00	7	Dirección del viento	6.44
169943	7	Sololá	701	Sololá	2	El tablón	8	Agosto	2023-05-08T00:00:00	2024-11-06T03:00:00	1	Precipitación	0
169944	7	Sololá	701	Sololá	2	El tablón	8	Agosto	2023-05-08T00:00:00	2024-11-06T03:00:00	8	Radiación solar	0
169945	7	Sololá	701	Sololá	2	El tablón	8	Agosto	2023-05-08T00:00:00	2024-11-06T04:00:00	2	Temperatura media	13.4
169946	7	Sololá	701	Sololá	2	El tablón	8	Agosto	2023-05-08T00:00:00	2024-11-06T04:00:00	4	Temperatura máxima	13.6
169947	7	Sololá	701	Sololá	2	El tablón	8	Agosto	2023-05-08T00:00:00	2024-11-06T04:00:00	3	Temperatura mínima	13.3
169948	7	Sololá	701	Sololá	2	El tablón	8	Agosto	2023-05-08T00:00:00	2024-11-06T04:00:00	5	Humedad	87
169949	7	Sololá	701	Sololá	2	El tablón	8	Agosto	2023-05-08T00:00:00	2024-11-06T04:00:00	6	Velocidad del viento	6.4
169950	7	Sololá	701	Sololá	2	El tablón	8	Agosto	2023-05-08T00:00:00	2024-11-06T04:00:00	7	Dirección del viento	6.44
169951	7	Sololá	701	Sololá	2	El tablón	8	Agosto	2023-05-08T00:00:00	2024-11-06T04:00:00	1	Precipitación	0
169952	7	Sololá	701	Sololá	2	El tablón	8	Agosto	2023-05-08T00:00:00	2024-11-06T04:00:00	8	Radiación solar	0
169953	7	Sololá	701	Sololá	2	El tablón	8	Agosto	2023-05-08T00:00:00	2024-11-06T05:00:00	2	Temperatura media	13.4
169954	7	Sololá	701	Sololá	2	El tablón	8	Agosto	2023-05-08T00:00:00	2024-11-06T05:00:00	4	Temperatura máxima	13.6
169955	7	Sololá	701	Sololá	2	El tablón	8	Agosto	2023-05-08T00:00:00	2024-11-06T05:00:00	3	Temperatura mínima	13.3
169956	7	Sololá	701	Sololá	2	El tablón	8	Agosto	2023-05-08T00:00:00	2024-11-06T05:00:00	5	Humedad	87
169957	7	Sololá	701	Sololá	2	El tablón	8	Agosto	2023-05-08T00:00:00	2024-11-06T05:00:00	6	Velocidad del viento	9.7
169958	7	Sololá	701	Sololá	2	El tablón	8	Agosto	2023-05-08T00:00:00	2024-11-06T05:00:00	7	Dirección del viento	9.66
169959	7	Sololá	701	Sololá	2	El tablón	8	Agosto	2023-05-08T00:00:00	2024-11-06T05:00:00	1	Precipitación	0
169960	7	Sololá	701	Sololá	2	El tablón	8	Agosto	2023-05-08T00:00:00	2024-11-06T05:00:00	8	Radiación solar	0
169961	7	Sololá	701	Sololá	2	El tablón	8	Agosto	2023-05-08T00:00:00	2024-11-06T06:00:00	2	Temperatura media	13.2
169962	7	Sololá	701	Sololá	2	El tablón	8	Agosto	2023-05-08T00:00:00	2024-11-06T06:00:00	4	Temperatura máxima	13.6
169963	7	Sololá	701	Sololá	2	El tablón	8	Agosto	2023-05-08T00:00:00	2024-11-06T06:00:00	3	Temperatura mínima	13.2
169964	7	Sololá	701	Sololá	2	El tablón	8	Agosto	2023-05-08T00:00:00	2024-11-06T06:00:00	5	Humedad	88
169965	7	Sololá	701	Sololá	2	El tablón	8	Agosto	2023-05-08T00:00:00	2024-11-06T06:00:00	6	Velocidad del viento	6.4
169966	7	Sololá	701	Sololá	2	El tablón	8	Agosto	2023-05-08T00:00:00	2024-11-06T06:00:00	7	Dirección del viento	6.44
169967	7	Sololá	701	Sololá	2	El tablón	8	Agosto	2023-05-08T00:00:00	2024-11-06T06:00:00	1	Precipitación	0
169968	7	Sololá	701	Sololá	2	El tablón	8	Agosto	2023-05-08T00:00:00	2024-11-06T06:00:00	8	Radiación solar	1
169969	7	Sololá	701	Sololá	2	El tablón	8	Agosto	2023-05-08T00:00:00	2024-11-06T07:00:00	2	Temperatura media	13.7
169970	7	Sololá	701	Sololá	2	El tablón	8	Agosto	2023-05-08T00:00:00	2024-11-06T07:00:00	4	Temperatura máxima	13.7
169971	7	Sololá	701	Sololá	2	El tablón	8	Agosto	2023-05-08T00:00:00	2024-11-06T07:00:00	3	Temperatura mínima	13.2
169972	7	Sololá	701	Sololá	2	El tablón	8	Agosto	2023-05-08T00:00:00	2024-11-06T07:00:00	5	Humedad	88
169973	7	Sololá	701	Sololá	2	El tablón	8	Agosto	2023-05-08T00:00:00	2024-11-06T07:00:00	6	Velocidad del viento	6.4
169974	7	Sololá	701	Sololá	2	El tablón	8	Agosto	2023-05-08T00:00:00	2024-11-06T07:00:00	7	Dirección del viento	6.44
169975	7	Sololá	701	Sololá	2	El tablón	8	Agosto	2023-05-08T00:00:00	2024-11-06T07:00:00	1	Precipitación	0
169976	7	Sololá	701	Sololá	2	El tablón	8	Agosto	2023-05-08T00:00:00	2024-11-06T07:00:00	8	Radiación solar	33
169977	7	Sololá	701	Sololá	2	El tablón	8	Agosto	2023-05-08T00:00:00	2024-11-06T08:00:00	2	Temperatura media	16.7
169978	7	Sololá	701	Sololá	2	El tablón	8	Agosto	2023-05-08T00:00:00	2024-11-06T08:00:00	4	Temperatura máxima	16.7
169979	7	Sololá	701	Sololá	2	El tablón	8	Agosto	2023-05-08T00:00:00	2024-11-06T08:00:00	3	Temperatura mínima	13.7
169980	7	Sololá	701	Sololá	2	El tablón	8	Agosto	2023-05-08T00:00:00	2024-11-06T08:00:00	5	Humedad	80
169981	7	Sololá	701	Sololá	2	El tablón	8	Agosto	2023-05-08T00:00:00	2024-11-06T08:00:00	6	Velocidad del viento	9.7
169982	7	Sololá	701	Sololá	2	El tablón	8	Agosto	2023-05-08T00:00:00	2024-11-06T08:00:00	7	Dirección del viento	9.66
169983	7	Sololá	701	Sololá	2	El tablón	8	Agosto	2023-05-08T00:00:00	2024-11-06T08:00:00	1	Precipitación	0
169984	7	Sololá	701	Sololá	2	El tablón	8	Agosto	2023-05-08T00:00:00	2024-11-06T08:00:00	8	Radiación solar	319
169985	7	Sololá	701	Sololá	2	El tablón	8	Agosto	2023-05-08T00:00:00	2024-11-06T09:00:00	2	Temperatura media	18.6
169986	7	Sololá	701	Sololá	2	El tablón	8	Agosto	2023-05-08T00:00:00	2024-11-06T09:00:00	4	Temperatura máxima	18.6
169987	7	Sololá	701	Sololá	2	El tablón	8	Agosto	2023-05-08T00:00:00	2024-11-06T09:00:00	3	Temperatura mínima	16.7
169988	7	Sololá	701	Sololá	2	El tablón	8	Agosto	2023-05-08T00:00:00	2024-11-06T09:00:00	5	Humedad	68
169989	7	Sololá	701	Sololá	2	El tablón	8	Agosto	2023-05-08T00:00:00	2024-11-06T09:00:00	6	Velocidad del viento	6.4
169990	7	Sololá	701	Sololá	2	El tablón	8	Agosto	2023-05-08T00:00:00	2024-11-06T09:00:00	7	Dirección del viento	6.44
169991	7	Sololá	701	Sololá	2	El tablón	8	Agosto	2023-05-08T00:00:00	2024-11-06T09:00:00	1	Precipitación	0
169992	7	Sololá	701	Sololá	2	El tablón	8	Agosto	2023-05-08T00:00:00	2024-11-06T09:00:00	8	Radiación solar	504
169993	7	Sololá	701	Sololá	2	El tablón	8	Agosto	2023-05-08T00:00:00	2024-11-06T10:00:00	2	Temperatura media	19.4
169994	7	Sololá	701	Sololá	2	El tablón	8	Agosto	2023-05-08T00:00:00	2024-11-06T10:00:00	4	Temperatura máxima	19.4
169995	7	Sololá	701	Sololá	2	El tablón	8	Agosto	2023-05-08T00:00:00	2024-11-06T10:00:00	3	Temperatura mínima	18.6
169996	7	Sololá	701	Sololá	2	El tablón	8	Agosto	2023-05-08T00:00:00	2024-11-06T10:00:00	5	Humedad	61
169997	7	Sololá	701	Sololá	2	El tablón	8	Agosto	2023-05-08T00:00:00	2024-11-06T10:00:00	6	Velocidad del viento	6.4
169998	7	Sololá	701	Sololá	2	El tablón	8	Agosto	2023-05-08T00:00:00	2024-11-06T10:00:00	7	Dirección del viento	6.44
169999	7	Sololá	701	Sololá	2	El tablón	8	Agosto	2023-05-08T00:00:00	2024-11-06T10:00:00	1	Precipitación	0
170000	7	Sololá	701	Sololá	2	El tablón	8	Agosto	2023-05-08T00:00:00	2024-11-06T10:00:00	8	Radiación solar	722
170001	7	Sololá	701	Sololá	2	El tablón	8	Agosto	2023-05-08T00:00:00	2024-11-06T11:00:00	2	Temperatura media	20.1
170002	7	Sololá	701	Sololá	2	El tablón	8	Agosto	2023-05-08T00:00:00	2024-11-06T11:00:00	4	Temperatura máxima	20.4
170003	7	Sololá	701	Sololá	2	El tablón	8	Agosto	2023-05-08T00:00:00	2024-11-06T11:00:00	3	Temperatura mínima	19.4
170004	7	Sololá	701	Sololá	2	El tablón	8	Agosto	2023-05-08T00:00:00	2024-11-06T11:00:00	5	Humedad	55
170005	7	Sololá	701	Sololá	2	El tablón	8	Agosto	2023-05-08T00:00:00	2024-11-06T11:00:00	6	Velocidad del viento	9.7
170006	7	Sololá	701	Sololá	2	El tablón	8	Agosto	2023-05-08T00:00:00	2024-11-06T11:00:00	7	Dirección del viento	9.66
170007	7	Sololá	701	Sololá	2	El tablón	8	Agosto	2023-05-08T00:00:00	2024-11-06T11:00:00	1	Precipitación	0
170008	7	Sololá	701	Sololá	2	El tablón	8	Agosto	2023-05-08T00:00:00	2024-11-06T11:00:00	8	Radiación solar	900
170009	7	Sololá	701	Sololá	2	El tablón	8	Agosto	2023-05-08T00:00:00	2024-11-06T12:00:00	2	Temperatura media	20.7
170010	7	Sololá	701	Sololá	2	El tablón	8	Agosto	2023-05-08T00:00:00	2024-11-06T12:00:00	4	Temperatura máxima	20.9
170011	7	Sololá	701	Sololá	2	El tablón	8	Agosto	2023-05-08T00:00:00	2024-11-06T12:00:00	3	Temperatura mínima	20.1
170012	7	Sololá	701	Sololá	2	El tablón	8	Agosto	2023-05-08T00:00:00	2024-11-06T12:00:00	5	Humedad	49
170013	7	Sololá	701	Sololá	2	El tablón	8	Agosto	2023-05-08T00:00:00	2024-11-06T12:00:00	6	Velocidad del viento	11.3
170014	7	Sololá	701	Sololá	2	El tablón	8	Agosto	2023-05-08T00:00:00	2024-11-06T12:00:00	7	Dirección del viento	11.27
170015	7	Sololá	701	Sololá	2	El tablón	8	Agosto	2023-05-08T00:00:00	2024-11-06T12:00:00	1	Precipitación	0
170016	7	Sololá	701	Sololá	2	El tablón	8	Agosto	2023-05-08T00:00:00	2024-11-06T12:00:00	8	Radiación solar	936
170017	7	Sololá	701	Sololá	2	El tablón	8	Agosto	2023-05-08T00:00:00	2024-11-06T13:00:00	2	Temperatura media	20.7
170018	7	Sololá	701	Sololá	2	El tablón	8	Agosto	2023-05-08T00:00:00	2024-11-06T13:00:00	4	Temperatura máxima	21.3
170019	7	Sololá	701	Sololá	2	El tablón	8	Agosto	2023-05-08T00:00:00	2024-11-06T13:00:00	3	Temperatura mínima	20.4
170020	7	Sololá	701	Sololá	2	El tablón	8	Agosto	2023-05-08T00:00:00	2024-11-06T13:00:00	5	Humedad	52
170021	7	Sololá	701	Sololá	2	El tablón	8	Agosto	2023-05-08T00:00:00	2024-11-06T13:00:00	6	Velocidad del viento	11.3
170022	7	Sololá	701	Sololá	2	El tablón	8	Agosto	2023-05-08T00:00:00	2024-11-06T13:00:00	7	Dirección del viento	11.27
170023	7	Sololá	701	Sololá	2	El tablón	8	Agosto	2023-05-08T00:00:00	2024-11-06T13:00:00	1	Precipitación	0
170024	7	Sololá	701	Sololá	2	El tablón	8	Agosto	2023-05-08T00:00:00	2024-11-06T13:00:00	8	Radiación solar	946
170025	7	Sololá	701	Sololá	2	El tablón	8	Agosto	2023-05-08T00:00:00	2024-11-06T14:00:00	2	Temperatura media	21.2
170026	7	Sololá	701	Sololá	2	El tablón	8	Agosto	2023-05-08T00:00:00	2024-11-06T14:00:00	4	Temperatura máxima	21.3
170027	7	Sololá	701	Sololá	2	El tablón	8	Agosto	2023-05-08T00:00:00	2024-11-06T14:00:00	3	Temperatura mínima	20.7
170028	7	Sololá	701	Sololá	2	El tablón	8	Agosto	2023-05-08T00:00:00	2024-11-06T14:00:00	5	Humedad	51
170029	7	Sololá	701	Sololá	2	El tablón	8	Agosto	2023-05-08T00:00:00	2024-11-06T14:00:00	6	Velocidad del viento	9.7
170030	7	Sololá	701	Sololá	2	El tablón	8	Agosto	2023-05-08T00:00:00	2024-11-06T14:00:00	7	Dirección del viento	9.66
170031	7	Sololá	701	Sololá	2	El tablón	8	Agosto	2023-05-08T00:00:00	2024-11-06T14:00:00	1	Precipitación	0
170032	7	Sololá	701	Sololá	2	El tablón	8	Agosto	2023-05-08T00:00:00	2024-11-06T14:00:00	8	Radiación solar	905
170033	7	Sololá	701	Sololá	2	El tablón	8	Agosto	2023-05-08T00:00:00	2024-11-06T15:00:00	2	Temperatura media	21.1
170034	7	Sololá	701	Sololá	2	El tablón	8	Agosto	2023-05-08T00:00:00	2024-11-06T15:00:00	4	Temperatura máxima	21.4
170035	7	Sololá	701	Sololá	2	El tablón	8	Agosto	2023-05-08T00:00:00	2024-11-06T15:00:00	3	Temperatura mínima	20.6
170036	7	Sololá	701	Sololá	2	El tablón	8	Agosto	2023-05-08T00:00:00	2024-11-06T15:00:00	5	Humedad	56
170037	7	Sololá	701	Sololá	2	El tablón	8	Agosto	2023-05-08T00:00:00	2024-11-06T15:00:00	6	Velocidad del viento	9.7
170038	7	Sololá	701	Sololá	2	El tablón	8	Agosto	2023-05-08T00:00:00	2024-11-06T15:00:00	7	Dirección del viento	9.66
170039	7	Sololá	701	Sololá	2	El tablón	8	Agosto	2023-05-08T00:00:00	2024-11-06T15:00:00	1	Precipitación	0
170040	7	Sololá	701	Sololá	2	El tablón	8	Agosto	2023-05-08T00:00:00	2024-11-06T15:00:00	8	Radiación solar	723
170041	7	Sololá	701	Sololá	2	El tablón	8	Agosto	2023-05-08T00:00:00	2024-11-06T16:00:00	2	Temperatura media	20.7
170042	7	Sololá	701	Sololá	2	El tablón	8	Agosto	2023-05-08T00:00:00	2024-11-06T16:00:00	4	Temperatura máxima	21.2
170043	7	Sololá	701	Sololá	2	El tablón	8	Agosto	2023-05-08T00:00:00	2024-11-06T16:00:00	3	Temperatura mínima	20.7
170044	7	Sololá	701	Sololá	2	El tablón	8	Agosto	2023-05-08T00:00:00	2024-11-06T16:00:00	5	Humedad	48
170045	7	Sololá	701	Sololá	2	El tablón	8	Agosto	2023-05-08T00:00:00	2024-11-06T16:00:00	6	Velocidad del viento	9.7
170046	7	Sololá	701	Sololá	2	El tablón	8	Agosto	2023-05-08T00:00:00	2024-11-06T16:00:00	7	Dirección del viento	9.66
170047	7	Sololá	701	Sololá	2	El tablón	8	Agosto	2023-05-08T00:00:00	2024-11-06T16:00:00	1	Precipitación	0
170048	7	Sololá	701	Sololá	2	El tablón	8	Agosto	2023-05-08T00:00:00	2024-11-06T16:00:00	8	Radiación solar	638
170049	7	Sololá	701	Sololá	2	El tablón	8	Agosto	2023-05-08T00:00:00	2024-11-06T17:00:00	2	Temperatura media	20.2
170050	7	Sololá	701	Sololá	2	El tablón	8	Agosto	2023-05-08T00:00:00	2024-11-06T17:00:00	4	Temperatura máxima	20.7
170051	7	Sololá	701	Sololá	2	El tablón	8	Agosto	2023-05-08T00:00:00	2024-11-06T17:00:00	3	Temperatura mínima	20.2
170052	7	Sololá	701	Sololá	2	El tablón	8	Agosto	2023-05-08T00:00:00	2024-11-06T17:00:00	5	Humedad	58
170053	7	Sololá	701	Sololá	2	El tablón	8	Agosto	2023-05-08T00:00:00	2024-11-06T17:00:00	6	Velocidad del viento	9.7
170054	7	Sololá	701	Sololá	2	El tablón	8	Agosto	2023-05-08T00:00:00	2024-11-06T17:00:00	7	Dirección del viento	9.66
170055	7	Sololá	701	Sololá	2	El tablón	8	Agosto	2023-05-08T00:00:00	2024-11-06T17:00:00	1	Precipitación	0
170056	7	Sololá	701	Sololá	2	El tablón	8	Agosto	2023-05-08T00:00:00	2024-11-06T17:00:00	8	Radiación solar	425
170057	7	Sololá	701	Sololá	2	El tablón	8	Agosto	2023-05-08T00:00:00	2024-11-06T18:00:00	2	Temperatura media	18.8
170058	7	Sololá	701	Sololá	2	El tablón	8	Agosto	2023-05-08T00:00:00	2024-11-06T18:00:00	4	Temperatura máxima	20.2
170059	7	Sololá	701	Sololá	2	El tablón	8	Agosto	2023-05-08T00:00:00	2024-11-06T18:00:00	3	Temperatura mínima	18.8
170060	7	Sololá	701	Sololá	2	El tablón	8	Agosto	2023-05-08T00:00:00	2024-11-06T18:00:00	5	Humedad	68
170061	7	Sololá	701	Sololá	2	El tablón	8	Agosto	2023-05-08T00:00:00	2024-11-06T18:00:00	6	Velocidad del viento	8
170062	7	Sololá	701	Sololá	2	El tablón	8	Agosto	2023-05-08T00:00:00	2024-11-06T18:00:00	7	Dirección del viento	8.05
170063	7	Sololá	701	Sololá	2	El tablón	8	Agosto	2023-05-08T00:00:00	2024-11-06T18:00:00	1	Precipitación	0
170064	7	Sololá	701	Sololá	2	El tablón	8	Agosto	2023-05-08T00:00:00	2024-11-06T18:00:00	8	Radiación solar	188
170065	7	Sololá	701	Sololá	2	El tablón	8	Agosto	2023-05-08T00:00:00	2024-11-06T19:00:00	2	Temperatura media	16.6
170066	7	Sololá	701	Sololá	2	El tablón	8	Agosto	2023-05-08T00:00:00	2024-11-06T19:00:00	4	Temperatura máxima	18.8
170067	7	Sololá	701	Sololá	2	El tablón	8	Agosto	2023-05-08T00:00:00	2024-11-06T19:00:00	3	Temperatura mínima	16.6
170068	7	Sololá	701	Sololá	2	El tablón	8	Agosto	2023-05-08T00:00:00	2024-11-06T19:00:00	5	Humedad	77
170069	7	Sololá	701	Sololá	2	El tablón	8	Agosto	2023-05-08T00:00:00	2024-11-06T19:00:00	6	Velocidad del viento	8
170070	7	Sololá	701	Sololá	2	El tablón	8	Agosto	2023-05-08T00:00:00	2024-11-06T19:00:00	7	Dirección del viento	8.05
170071	7	Sololá	701	Sololá	2	El tablón	8	Agosto	2023-05-08T00:00:00	2024-11-06T19:00:00	1	Precipitación	0
170072	7	Sololá	701	Sololá	2	El tablón	8	Agosto	2023-05-08T00:00:00	2024-11-06T19:00:00	8	Radiación solar	0
170073	7	Sololá	701	Sololá	2	El tablón	8	Agosto	2023-05-08T00:00:00	2024-11-06T20:00:00	2	Temperatura media	15.6
170074	7	Sololá	701	Sololá	2	El tablón	8	Agosto	2023-05-08T00:00:00	2024-11-06T20:00:00	4	Temperatura máxima	16.6
170075	7	Sololá	701	Sololá	2	El tablón	8	Agosto	2023-05-08T00:00:00	2024-11-06T20:00:00	3	Temperatura mínima	15.6
170076	7	Sololá	701	Sololá	2	El tablón	8	Agosto	2023-05-08T00:00:00	2024-11-06T20:00:00	5	Humedad	80
170077	7	Sololá	701	Sololá	2	El tablón	8	Agosto	2023-05-08T00:00:00	2024-11-06T20:00:00	6	Velocidad del viento	9.7
170078	7	Sololá	701	Sololá	2	El tablón	8	Agosto	2023-05-08T00:00:00	2024-11-06T20:00:00	7	Dirección del viento	9.66
170079	7	Sololá	701	Sololá	2	El tablón	8	Agosto	2023-05-08T00:00:00	2024-11-06T20:00:00	1	Precipitación	0
170080	7	Sololá	701	Sololá	2	El tablón	8	Agosto	2023-05-08T00:00:00	2024-11-06T20:00:00	8	Radiación solar	0
170081	7	Sololá	701	Sololá	2	El tablón	8	Agosto	2023-05-08T00:00:00	2024-11-06T21:00:00	2	Temperatura media	14.9
170082	7	Sololá	701	Sololá	2	El tablón	8	Agosto	2023-05-08T00:00:00	2024-11-06T21:00:00	4	Temperatura máxima	15.6
170083	7	Sololá	701	Sololá	2	El tablón	8	Agosto	2023-05-08T00:00:00	2024-11-06T21:00:00	3	Temperatura mínima	14.9
170084	7	Sololá	701	Sololá	2	El tablón	8	Agosto	2023-05-08T00:00:00	2024-11-06T21:00:00	5	Humedad	85
170085	7	Sololá	701	Sololá	2	El tablón	8	Agosto	2023-05-08T00:00:00	2024-11-06T21:00:00	6	Velocidad del viento	4.8
170086	7	Sololá	701	Sololá	2	El tablón	8	Agosto	2023-05-08T00:00:00	2024-11-06T21:00:00	7	Dirección del viento	4.83
170087	7	Sololá	701	Sololá	2	El tablón	8	Agosto	2023-05-08T00:00:00	2024-11-06T21:00:00	1	Precipitación	0
170088	7	Sololá	701	Sololá	2	El tablón	8	Agosto	2023-05-08T00:00:00	2024-11-06T21:00:00	8	Radiación solar	0
170089	7	Sololá	701	Sololá	2	El tablón	8	Agosto	2023-05-08T00:00:00	2024-11-06T22:00:00	2	Temperatura media	14.7
170090	7	Sololá	701	Sololá	2	El tablón	8	Agosto	2023-05-08T00:00:00	2024-11-06T22:00:00	4	Temperatura máxima	14.9
170091	7	Sololá	701	Sololá	2	El tablón	8	Agosto	2023-05-08T00:00:00	2024-11-06T22:00:00	3	Temperatura mínima	14.7
170092	7	Sololá	701	Sololá	2	El tablón	8	Agosto	2023-05-08T00:00:00	2024-11-06T22:00:00	5	Humedad	85
170093	7	Sololá	701	Sololá	2	El tablón	8	Agosto	2023-05-08T00:00:00	2024-11-06T22:00:00	6	Velocidad del viento	4.8
170094	7	Sololá	701	Sololá	2	El tablón	8	Agosto	2023-05-08T00:00:00	2024-11-06T22:00:00	7	Dirección del viento	4.83
170095	7	Sololá	701	Sololá	2	El tablón	8	Agosto	2023-05-08T00:00:00	2024-11-06T22:00:00	1	Precipitación	0
170096	7	Sololá	701	Sololá	2	El tablón	8	Agosto	2023-05-08T00:00:00	2024-11-06T22:00:00	8	Radiación solar	0
170097	7	Sololá	701	Sololá	2	El tablón	8	Agosto	2023-05-08T00:00:00	2024-11-06T23:00:00	2	Temperatura media	14.2
170098	7	Sololá	701	Sololá	2	El tablón	8	Agosto	2023-05-08T00:00:00	2024-11-06T23:00:00	4	Temperatura máxima	14.8
170099	7	Sololá	701	Sololá	2	El tablón	8	Agosto	2023-05-08T00:00:00	2024-11-06T23:00:00	3	Temperatura mínima	14.2
170100	7	Sololá	701	Sololá	2	El tablón	8	Agosto	2023-05-08T00:00:00	2024-11-06T23:00:00	5	Humedad	85
170101	7	Sololá	701	Sololá	2	El tablón	8	Agosto	2023-05-08T00:00:00	2024-11-06T23:00:00	6	Velocidad del viento	6.4
170102	7	Sololá	701	Sololá	2	El tablón	8	Agosto	2023-05-08T00:00:00	2024-11-06T23:00:00	7	Dirección del viento	6.44
170103	7	Sololá	701	Sololá	2	El tablón	8	Agosto	2023-05-08T00:00:00	2024-11-06T23:00:00	1	Precipitación	0
170104	7	Sololá	701	Sololá	2	El tablón	8	Agosto	2023-05-08T00:00:00	2024-11-06T23:00:00	8	Radiación solar	0
170105	7	Sololá	701	Sololá	2	El tablón	8	Agosto	2023-06-08T00:00:00	2024-11-06T00:00:00	2	Temperatura media	13.5
170106	7	Sololá	701	Sololá	2	El tablón	8	Agosto	2023-06-08T00:00:00	2024-11-06T00:00:00	4	Temperatura máxima	14.2
170107	7	Sololá	701	Sololá	2	El tablón	8	Agosto	2023-06-08T00:00:00	2024-11-06T00:00:00	3	Temperatura mínima	13.5
170108	7	Sololá	701	Sololá	2	El tablón	8	Agosto	2023-06-08T00:00:00	2024-11-06T00:00:00	5	Humedad	85
170109	7	Sololá	701	Sololá	2	El tablón	8	Agosto	2023-06-08T00:00:00	2024-11-06T00:00:00	6	Velocidad del viento	4.8
170110	7	Sololá	701	Sololá	2	El tablón	8	Agosto	2023-06-08T00:00:00	2024-11-06T00:00:00	7	Dirección del viento	4.83
170111	7	Sololá	701	Sololá	2	El tablón	8	Agosto	2023-06-08T00:00:00	2024-11-06T00:00:00	1	Precipitación	0
170112	7	Sololá	701	Sololá	2	El tablón	8	Agosto	2023-06-08T00:00:00	2024-11-06T00:00:00	8	Radiación solar	0
170113	7	Sololá	701	Sololá	2	El tablón	8	Agosto	2023-06-08T00:00:00	2024-11-06T01:00:00	2	Temperatura media	13.2
170114	7	Sololá	701	Sololá	2	El tablón	8	Agosto	2023-06-08T00:00:00	2024-11-06T01:00:00	4	Temperatura máxima	13.5
170115	7	Sololá	701	Sololá	2	El tablón	8	Agosto	2023-06-08T00:00:00	2024-11-06T01:00:00	3	Temperatura mínima	13.2
170116	7	Sololá	701	Sololá	2	El tablón	8	Agosto	2023-06-08T00:00:00	2024-11-06T01:00:00	5	Humedad	85
170117	7	Sololá	701	Sololá	2	El tablón	8	Agosto	2023-06-08T00:00:00	2024-11-06T01:00:00	6	Velocidad del viento	6.4
170118	7	Sololá	701	Sololá	2	El tablón	8	Agosto	2023-06-08T00:00:00	2024-11-06T01:00:00	7	Dirección del viento	6.44
170119	7	Sololá	701	Sololá	2	El tablón	8	Agosto	2023-06-08T00:00:00	2024-11-06T01:00:00	1	Precipitación	0
170120	7	Sololá	701	Sololá	2	El tablón	8	Agosto	2023-06-08T00:00:00	2024-11-06T01:00:00	8	Radiación solar	0
170121	7	Sololá	701	Sololá	2	El tablón	8	Agosto	2023-06-08T00:00:00	2024-11-06T02:00:00	2	Temperatura media	13.1
170122	7	Sololá	701	Sololá	2	El tablón	8	Agosto	2023-06-08T00:00:00	2024-11-06T02:00:00	4	Temperatura máxima	13.3
170123	7	Sololá	701	Sololá	2	El tablón	8	Agosto	2023-06-08T00:00:00	2024-11-06T02:00:00	3	Temperatura mínima	13.1
170124	7	Sololá	701	Sololá	2	El tablón	8	Agosto	2023-06-08T00:00:00	2024-11-06T02:00:00	5	Humedad	82
170125	7	Sololá	701	Sololá	2	El tablón	8	Agosto	2023-06-08T00:00:00	2024-11-06T02:00:00	6	Velocidad del viento	6.4
170126	7	Sololá	701	Sololá	2	El tablón	8	Agosto	2023-06-08T00:00:00	2024-11-06T02:00:00	7	Dirección del viento	6.44
170127	7	Sololá	701	Sololá	2	El tablón	8	Agosto	2023-06-08T00:00:00	2024-11-06T02:00:00	1	Precipitación	0
170128	7	Sololá	701	Sololá	2	El tablón	8	Agosto	2023-06-08T00:00:00	2024-11-06T02:00:00	8	Radiación solar	0
170129	7	Sololá	701	Sololá	2	El tablón	8	Agosto	2023-06-08T00:00:00	2024-11-06T03:00:00	2	Temperatura media	13.2
170130	7	Sololá	701	Sololá	2	El tablón	8	Agosto	2023-06-08T00:00:00	2024-11-06T03:00:00	4	Temperatura máxima	13.2
170131	7	Sololá	701	Sololá	2	El tablón	8	Agosto	2023-06-08T00:00:00	2024-11-06T03:00:00	3	Temperatura mínima	13
170132	7	Sololá	701	Sololá	2	El tablón	8	Agosto	2023-06-08T00:00:00	2024-11-06T03:00:00	5	Humedad	82
170133	7	Sololá	701	Sololá	2	El tablón	8	Agosto	2023-06-08T00:00:00	2024-11-06T03:00:00	6	Velocidad del viento	8
170134	7	Sololá	701	Sololá	2	El tablón	8	Agosto	2023-06-08T00:00:00	2024-11-06T03:00:00	7	Dirección del viento	8.05
170135	7	Sololá	701	Sololá	2	El tablón	8	Agosto	2023-06-08T00:00:00	2024-11-06T03:00:00	1	Precipitación	0
170136	7	Sololá	701	Sololá	2	El tablón	8	Agosto	2023-06-08T00:00:00	2024-11-06T03:00:00	8	Radiación solar	0
170137	7	Sololá	701	Sololá	2	El tablón	8	Agosto	2023-06-08T00:00:00	2024-11-06T04:00:00	2	Temperatura media	13.1
170138	7	Sololá	701	Sololá	2	El tablón	8	Agosto	2023-06-08T00:00:00	2024-11-06T04:00:00	4	Temperatura máxima	13.7
170139	7	Sololá	701	Sololá	2	El tablón	8	Agosto	2023-06-08T00:00:00	2024-11-06T04:00:00	3	Temperatura mínima	13.1
170140	7	Sololá	701	Sololá	2	El tablón	8	Agosto	2023-06-08T00:00:00	2024-11-06T04:00:00	5	Humedad	82
170141	7	Sololá	701	Sololá	2	El tablón	8	Agosto	2023-06-08T00:00:00	2024-11-06T04:00:00	6	Velocidad del viento	4.8
170142	7	Sololá	701	Sololá	2	El tablón	8	Agosto	2023-06-08T00:00:00	2024-11-06T04:00:00	7	Dirección del viento	4.83
170143	7	Sololá	701	Sololá	2	El tablón	8	Agosto	2023-06-08T00:00:00	2024-11-06T04:00:00	1	Precipitación	0
170144	7	Sololá	701	Sololá	2	El tablón	8	Agosto	2023-06-08T00:00:00	2024-11-06T04:00:00	8	Radiación solar	0
170145	7	Sololá	701	Sololá	2	El tablón	8	Agosto	2023-06-08T00:00:00	2024-11-06T05:00:00	2	Temperatura media	12.6
170146	7	Sololá	701	Sololá	2	El tablón	8	Agosto	2023-06-08T00:00:00	2024-11-06T05:00:00	4	Temperatura máxima	13.1
170147	7	Sololá	701	Sololá	2	El tablón	8	Agosto	2023-06-08T00:00:00	2024-11-06T05:00:00	3	Temperatura mínima	12.6
170148	7	Sololá	701	Sololá	2	El tablón	8	Agosto	2023-06-08T00:00:00	2024-11-06T05:00:00	5	Humedad	84
170149	7	Sololá	701	Sololá	2	El tablón	8	Agosto	2023-06-08T00:00:00	2024-11-06T05:00:00	6	Velocidad del viento	3.2
170150	7	Sololá	701	Sololá	2	El tablón	8	Agosto	2023-06-08T00:00:00	2024-11-06T05:00:00	7	Dirección del viento	3.22
170151	7	Sololá	701	Sololá	2	El tablón	8	Agosto	2023-06-08T00:00:00	2024-11-06T05:00:00	1	Precipitación	0
170152	7	Sololá	701	Sololá	2	El tablón	8	Agosto	2023-06-08T00:00:00	2024-11-06T05:00:00	8	Radiación solar	0
170153	7	Sololá	701	Sololá	2	El tablón	8	Agosto	2023-06-08T00:00:00	2024-11-06T06:00:00	2	Temperatura media	13
170154	7	Sololá	701	Sololá	2	El tablón	8	Agosto	2023-06-08T00:00:00	2024-11-06T06:00:00	4	Temperatura máxima	13
170155	7	Sololá	701	Sololá	2	El tablón	8	Agosto	2023-06-08T00:00:00	2024-11-06T06:00:00	3	Temperatura mínima	12.4
170156	7	Sololá	701	Sololá	2	El tablón	8	Agosto	2023-06-08T00:00:00	2024-11-06T06:00:00	5	Humedad	83
170157	7	Sololá	701	Sololá	2	El tablón	8	Agosto	2023-06-08T00:00:00	2024-11-06T06:00:00	6	Velocidad del viento	8
170158	7	Sololá	701	Sololá	2	El tablón	8	Agosto	2023-06-08T00:00:00	2024-11-06T06:00:00	7	Dirección del viento	8.05
170159	7	Sololá	701	Sololá	2	El tablón	8	Agosto	2023-06-08T00:00:00	2024-11-06T06:00:00	1	Precipitación	0
170160	7	Sololá	701	Sololá	2	El tablón	8	Agosto	2023-06-08T00:00:00	2024-11-06T06:00:00	8	Radiación solar	1
170161	7	Sololá	701	Sololá	2	El tablón	8	Agosto	2023-06-08T00:00:00	2024-11-06T07:00:00	2	Temperatura media	14.7
170162	7	Sololá	701	Sololá	2	El tablón	8	Agosto	2023-06-08T00:00:00	2024-11-06T07:00:00	4	Temperatura máxima	14.7
170163	7	Sololá	701	Sololá	2	El tablón	8	Agosto	2023-06-08T00:00:00	2024-11-06T07:00:00	3	Temperatura mínima	13.1
170164	7	Sololá	701	Sololá	2	El tablón	8	Agosto	2023-06-08T00:00:00	2024-11-06T07:00:00	5	Humedad	78
170165	7	Sololá	701	Sololá	2	El tablón	8	Agosto	2023-06-08T00:00:00	2024-11-06T07:00:00	6	Velocidad del viento	8
170166	7	Sololá	701	Sololá	2	El tablón	8	Agosto	2023-06-08T00:00:00	2024-11-06T07:00:00	7	Dirección del viento	8.05
170167	7	Sololá	701	Sololá	2	El tablón	8	Agosto	2023-06-08T00:00:00	2024-11-06T07:00:00	1	Precipitación	0
170168	7	Sololá	701	Sololá	2	El tablón	8	Agosto	2023-06-08T00:00:00	2024-11-06T07:00:00	8	Radiación solar	84
170169	7	Sololá	701	Sololá	2	El tablón	8	Agosto	2023-06-08T00:00:00	2024-11-06T08:00:00	2	Temperatura media	16.6
170170	7	Sololá	701	Sololá	2	El tablón	8	Agosto	2023-06-08T00:00:00	2024-11-06T08:00:00	4	Temperatura máxima	16.6
170171	7	Sololá	701	Sololá	2	El tablón	8	Agosto	2023-06-08T00:00:00	2024-11-06T08:00:00	3	Temperatura mínima	14.7
170172	7	Sololá	701	Sololá	2	El tablón	8	Agosto	2023-06-08T00:00:00	2024-11-06T08:00:00	5	Humedad	74
170173	7	Sololá	701	Sololá	2	El tablón	8	Agosto	2023-06-08T00:00:00	2024-11-06T08:00:00	6	Velocidad del viento	9.7
170174	7	Sololá	701	Sololá	2	El tablón	8	Agosto	2023-06-08T00:00:00	2024-11-06T08:00:00	7	Dirección del viento	9.66
170175	7	Sololá	701	Sololá	2	El tablón	8	Agosto	2023-06-08T00:00:00	2024-11-06T08:00:00	1	Precipitación	0
170176	7	Sololá	701	Sololá	2	El tablón	8	Agosto	2023-06-08T00:00:00	2024-11-06T08:00:00	8	Radiación solar	308
170177	7	Sololá	701	Sololá	2	El tablón	8	Agosto	2023-06-08T00:00:00	2024-11-06T09:00:00	2	Temperatura media	17.6
170178	7	Sololá	701	Sololá	2	El tablón	8	Agosto	2023-06-08T00:00:00	2024-11-06T09:00:00	4	Temperatura máxima	18.1
170179	7	Sololá	701	Sololá	2	El tablón	8	Agosto	2023-06-08T00:00:00	2024-11-06T09:00:00	3	Temperatura mínima	16.6
170180	7	Sololá	701	Sololá	2	El tablón	8	Agosto	2023-06-08T00:00:00	2024-11-06T09:00:00	5	Humedad	69
170181	7	Sololá	701	Sololá	2	El tablón	8	Agosto	2023-06-08T00:00:00	2024-11-06T09:00:00	6	Velocidad del viento	9.7
170182	7	Sololá	701	Sololá	2	El tablón	8	Agosto	2023-06-08T00:00:00	2024-11-06T09:00:00	7	Dirección del viento	9.66
170183	7	Sololá	701	Sololá	2	El tablón	8	Agosto	2023-06-08T00:00:00	2024-11-06T09:00:00	1	Precipitación	0
170184	7	Sololá	701	Sololá	2	El tablón	8	Agosto	2023-06-08T00:00:00	2024-11-06T09:00:00	8	Radiación solar	528
170185	7	Sololá	701	Sololá	2	El tablón	8	Agosto	2023-06-08T00:00:00	2024-11-06T10:00:00	2	Temperatura media	19.3
170186	7	Sololá	701	Sololá	2	El tablón	8	Agosto	2023-06-08T00:00:00	2024-11-06T10:00:00	4	Temperatura máxima	19.5
170187	7	Sololá	701	Sololá	2	El tablón	8	Agosto	2023-06-08T00:00:00	2024-11-06T10:00:00	3	Temperatura mínima	17.6
170188	7	Sololá	701	Sololá	2	El tablón	8	Agosto	2023-06-08T00:00:00	2024-11-06T10:00:00	5	Humedad	62
170189	7	Sololá	701	Sololá	2	El tablón	8	Agosto	2023-06-08T00:00:00	2024-11-06T10:00:00	6	Velocidad del viento	12.9
170190	7	Sololá	701	Sololá	2	El tablón	8	Agosto	2023-06-08T00:00:00	2024-11-06T10:00:00	7	Dirección del viento	12.87
170191	7	Sololá	701	Sololá	2	El tablón	8	Agosto	2023-06-08T00:00:00	2024-11-06T10:00:00	1	Precipitación	0
170192	7	Sololá	701	Sololá	2	El tablón	8	Agosto	2023-06-08T00:00:00	2024-11-06T10:00:00	8	Radiación solar	715
170193	7	Sololá	701	Sololá	2	El tablón	8	Agosto	2023-06-08T00:00:00	2024-11-06T11:00:00	2	Temperatura media	19.5
170194	7	Sololá	701	Sololá	2	El tablón	8	Agosto	2023-06-08T00:00:00	2024-11-06T11:00:00	4	Temperatura máxima	19.9
170195	7	Sololá	701	Sololá	2	El tablón	8	Agosto	2023-06-08T00:00:00	2024-11-06T11:00:00	3	Temperatura mínima	19.3
170196	7	Sololá	701	Sololá	2	El tablón	8	Agosto	2023-06-08T00:00:00	2024-11-06T11:00:00	5	Humedad	59
170197	7	Sololá	701	Sololá	2	El tablón	8	Agosto	2023-06-08T00:00:00	2024-11-06T11:00:00	6	Velocidad del viento	11.3
170198	7	Sololá	701	Sololá	2	El tablón	8	Agosto	2023-06-08T00:00:00	2024-11-06T11:00:00	7	Dirección del viento	11.27
170199	7	Sololá	701	Sololá	2	El tablón	8	Agosto	2023-06-08T00:00:00	2024-11-06T11:00:00	1	Precipitación	0
170200	7	Sololá	701	Sololá	2	El tablón	8	Agosto	2023-06-08T00:00:00	2024-11-06T11:00:00	8	Radiación solar	856
170201	7	Sololá	701	Sololá	2	El tablón	8	Agosto	2023-06-08T00:00:00	2024-11-06T12:00:00	2	Temperatura media	20.1
170202	7	Sololá	701	Sololá	2	El tablón	8	Agosto	2023-06-08T00:00:00	2024-11-06T12:00:00	4	Temperatura máxima	20.6
170203	7	Sololá	701	Sololá	2	El tablón	8	Agosto	2023-06-08T00:00:00	2024-11-06T12:00:00	3	Temperatura mínima	19.5
170204	7	Sololá	701	Sololá	2	El tablón	8	Agosto	2023-06-08T00:00:00	2024-11-06T12:00:00	5	Humedad	58
170205	7	Sololá	701	Sololá	2	El tablón	8	Agosto	2023-06-08T00:00:00	2024-11-06T12:00:00	6	Velocidad del viento	11.3
170206	7	Sololá	701	Sololá	2	El tablón	8	Agosto	2023-06-08T00:00:00	2024-11-06T12:00:00	7	Dirección del viento	11.27
170207	7	Sololá	701	Sololá	2	El tablón	8	Agosto	2023-06-08T00:00:00	2024-11-06T12:00:00	1	Precipitación	0
170208	7	Sololá	701	Sololá	2	El tablón	8	Agosto	2023-06-08T00:00:00	2024-11-06T12:00:00	8	Radiación solar	931
170209	7	Sololá	701	Sololá	2	El tablón	8	Agosto	2023-06-08T00:00:00	2024-11-06T13:00:00	2	Temperatura media	20.8
170210	7	Sololá	701	Sololá	2	El tablón	8	Agosto	2023-06-08T00:00:00	2024-11-06T13:00:00	4	Temperatura máxima	21.2
170211	7	Sololá	701	Sololá	2	El tablón	8	Agosto	2023-06-08T00:00:00	2024-11-06T13:00:00	3	Temperatura mínima	20.1
170212	7	Sololá	701	Sololá	2	El tablón	8	Agosto	2023-06-08T00:00:00	2024-11-06T13:00:00	5	Humedad	52
170213	7	Sololá	701	Sololá	2	El tablón	8	Agosto	2023-06-08T00:00:00	2024-11-06T13:00:00	6	Velocidad del viento	11.3
170214	7	Sololá	701	Sololá	2	El tablón	8	Agosto	2023-06-08T00:00:00	2024-11-06T13:00:00	7	Dirección del viento	11.27
170215	7	Sololá	701	Sololá	2	El tablón	8	Agosto	2023-06-08T00:00:00	2024-11-06T13:00:00	1	Precipitación	0
170216	7	Sololá	701	Sololá	2	El tablón	8	Agosto	2023-06-08T00:00:00	2024-11-06T13:00:00	8	Radiación solar	949
170217	7	Sololá	701	Sololá	2	El tablón	8	Agosto	2023-06-08T00:00:00	2024-11-06T14:00:00	2	Temperatura media	21.6
170218	7	Sololá	701	Sololá	2	El tablón	8	Agosto	2023-06-08T00:00:00	2024-11-06T14:00:00	4	Temperatura máxima	21.7
170219	7	Sololá	701	Sololá	2	El tablón	8	Agosto	2023-06-08T00:00:00	2024-11-06T14:00:00	3	Temperatura mínima	20.8
170220	7	Sololá	701	Sololá	2	El tablón	8	Agosto	2023-06-08T00:00:00	2024-11-06T14:00:00	5	Humedad	53
170221	7	Sololá	701	Sololá	2	El tablón	8	Agosto	2023-06-08T00:00:00	2024-11-06T14:00:00	6	Velocidad del viento	9.7
170222	7	Sololá	701	Sololá	2	El tablón	8	Agosto	2023-06-08T00:00:00	2024-11-06T14:00:00	7	Dirección del viento	9.66
170223	7	Sololá	701	Sololá	2	El tablón	8	Agosto	2023-06-08T00:00:00	2024-11-06T14:00:00	1	Precipitación	0
170224	7	Sololá	701	Sololá	2	El tablón	8	Agosto	2023-06-08T00:00:00	2024-11-06T14:00:00	8	Radiación solar	917
170225	7	Sololá	701	Sololá	2	El tablón	8	Agosto	2023-06-08T00:00:00	2024-11-06T15:00:00	2	Temperatura media	21.5
170226	7	Sololá	701	Sololá	2	El tablón	8	Agosto	2023-06-08T00:00:00	2024-11-06T15:00:00	4	Temperatura máxima	21.9
170227	7	Sololá	701	Sololá	2	El tablón	8	Agosto	2023-06-08T00:00:00	2024-11-06T15:00:00	3	Temperatura mínima	20.9
170228	7	Sololá	701	Sololá	2	El tablón	8	Agosto	2023-06-08T00:00:00	2024-11-06T15:00:00	5	Humedad	56
170229	7	Sololá	701	Sololá	2	El tablón	8	Agosto	2023-06-08T00:00:00	2024-11-06T15:00:00	6	Velocidad del viento	11.3
170230	7	Sololá	701	Sololá	2	El tablón	8	Agosto	2023-06-08T00:00:00	2024-11-06T15:00:00	7	Dirección del viento	11.27
170231	7	Sololá	701	Sololá	2	El tablón	8	Agosto	2023-06-08T00:00:00	2024-11-06T15:00:00	1	Precipitación	0
170232	7	Sololá	701	Sololá	2	El tablón	8	Agosto	2023-06-08T00:00:00	2024-11-06T15:00:00	8	Radiación solar	811
170233	7	Sololá	701	Sololá	2	El tablón	8	Agosto	2023-06-08T00:00:00	2024-11-06T16:00:00	2	Temperatura media	20.4
170234	7	Sololá	701	Sololá	2	El tablón	8	Agosto	2023-06-08T00:00:00	2024-11-06T16:00:00	4	Temperatura máxima	21.8
170235	7	Sololá	701	Sololá	2	El tablón	8	Agosto	2023-06-08T00:00:00	2024-11-06T16:00:00	3	Temperatura mínima	20.4
170236	7	Sololá	701	Sololá	2	El tablón	8	Agosto	2023-06-08T00:00:00	2024-11-06T16:00:00	5	Humedad	60
170237	7	Sololá	701	Sololá	2	El tablón	8	Agosto	2023-06-08T00:00:00	2024-11-06T16:00:00	6	Velocidad del viento	9.7
170238	7	Sololá	701	Sololá	2	El tablón	8	Agosto	2023-06-08T00:00:00	2024-11-06T16:00:00	7	Dirección del viento	9.66
170239	7	Sololá	701	Sololá	2	El tablón	8	Agosto	2023-06-08T00:00:00	2024-11-06T16:00:00	1	Precipitación	0
170240	7	Sololá	701	Sololá	2	El tablón	8	Agosto	2023-06-08T00:00:00	2024-11-06T16:00:00	8	Radiación solar	695
170241	7	Sololá	701	Sololá	2	El tablón	8	Agosto	2023-06-08T00:00:00	2024-11-06T17:00:00	2	Temperatura media	18.2
170242	7	Sololá	701	Sololá	2	El tablón	8	Agosto	2023-06-08T00:00:00	2024-11-06T17:00:00	4	Temperatura máxima	20.7
170243	7	Sololá	701	Sololá	2	El tablón	8	Agosto	2023-06-08T00:00:00	2024-11-06T17:00:00	3	Temperatura mínima	18.2
170244	7	Sololá	701	Sololá	2	El tablón	8	Agosto	2023-06-08T00:00:00	2024-11-06T17:00:00	5	Humedad	71
170245	7	Sololá	701	Sololá	2	El tablón	8	Agosto	2023-06-08T00:00:00	2024-11-06T17:00:00	6	Velocidad del viento	8
170246	7	Sololá	701	Sololá	2	El tablón	8	Agosto	2023-06-08T00:00:00	2024-11-06T17:00:00	7	Dirección del viento	8.05
170247	7	Sololá	701	Sololá	2	El tablón	8	Agosto	2023-06-08T00:00:00	2024-11-06T17:00:00	1	Precipitación	0
170248	7	Sololá	701	Sololá	2	El tablón	8	Agosto	2023-06-08T00:00:00	2024-11-06T17:00:00	8	Radiación solar	203
170249	7	Sololá	701	Sololá	2	El tablón	8	Agosto	2023-06-08T00:00:00	2024-11-06T18:00:00	2	Temperatura media	17.1
170250	7	Sololá	701	Sololá	2	El tablón	8	Agosto	2023-06-08T00:00:00	2024-11-06T18:00:00	4	Temperatura máxima	18.2
170251	7	Sololá	701	Sololá	2	El tablón	8	Agosto	2023-06-08T00:00:00	2024-11-06T18:00:00	3	Temperatura mínima	17.1
170252	7	Sololá	701	Sololá	2	El tablón	8	Agosto	2023-06-08T00:00:00	2024-11-06T18:00:00	5	Humedad	79
170253	7	Sololá	701	Sololá	2	El tablón	8	Agosto	2023-06-08T00:00:00	2024-11-06T18:00:00	6	Velocidad del viento	6.4
170254	7	Sololá	701	Sololá	2	El tablón	8	Agosto	2023-06-08T00:00:00	2024-11-06T18:00:00	7	Dirección del viento	6.44
170255	7	Sololá	701	Sololá	2	El tablón	8	Agosto	2023-06-08T00:00:00	2024-11-06T18:00:00	1	Precipitación	0
170256	7	Sololá	701	Sololá	2	El tablón	8	Agosto	2023-06-08T00:00:00	2024-11-06T18:00:00	8	Radiación solar	51
170257	7	Sololá	701	Sololá	2	El tablón	8	Agosto	2023-06-08T00:00:00	2024-11-06T19:00:00	2	Temperatura media	16.3
170258	7	Sololá	701	Sololá	2	El tablón	8	Agosto	2023-06-08T00:00:00	2024-11-06T19:00:00	4	Temperatura máxima	17.1
170259	7	Sololá	701	Sololá	2	El tablón	8	Agosto	2023-06-08T00:00:00	2024-11-06T19:00:00	3	Temperatura mínima	16.3
170260	7	Sololá	701	Sololá	2	El tablón	8	Agosto	2023-06-08T00:00:00	2024-11-06T19:00:00	5	Humedad	83
170261	7	Sololá	701	Sololá	2	El tablón	8	Agosto	2023-06-08T00:00:00	2024-11-06T19:00:00	6	Velocidad del viento	4.8
170262	7	Sololá	701	Sololá	2	El tablón	8	Agosto	2023-06-08T00:00:00	2024-11-06T19:00:00	7	Dirección del viento	4.83
170263	7	Sololá	701	Sololá	2	El tablón	8	Agosto	2023-06-08T00:00:00	2024-11-06T19:00:00	1	Precipitación	0
170264	7	Sololá	701	Sololá	2	El tablón	8	Agosto	2023-06-08T00:00:00	2024-11-06T19:00:00	8	Radiación solar	0
170265	7	Sololá	701	Sololá	2	El tablón	8	Agosto	2023-06-08T00:00:00	2024-11-06T20:00:00	2	Temperatura media	15.6
170266	7	Sololá	701	Sololá	2	El tablón	8	Agosto	2023-06-08T00:00:00	2024-11-06T20:00:00	4	Temperatura máxima	16.3
170267	7	Sololá	701	Sololá	2	El tablón	8	Agosto	2023-06-08T00:00:00	2024-11-06T20:00:00	3	Temperatura mínima	15.6
170268	7	Sololá	701	Sololá	2	El tablón	8	Agosto	2023-06-08T00:00:00	2024-11-06T20:00:00	5	Humedad	85
170269	7	Sololá	701	Sololá	2	El tablón	8	Agosto	2023-06-08T00:00:00	2024-11-06T20:00:00	6	Velocidad del viento	8
170270	7	Sololá	701	Sololá	2	El tablón	8	Agosto	2023-06-08T00:00:00	2024-11-06T20:00:00	7	Dirección del viento	8.05
170271	7	Sololá	701	Sololá	2	El tablón	8	Agosto	2023-06-08T00:00:00	2024-11-06T20:00:00	1	Precipitación	0
170272	7	Sololá	701	Sololá	2	El tablón	8	Agosto	2023-06-08T00:00:00	2024-11-06T20:00:00	8	Radiación solar	0
170273	7	Sololá	701	Sololá	2	El tablón	8	Agosto	2023-06-08T00:00:00	2024-11-06T21:00:00	2	Temperatura media	15.1
170274	7	Sololá	701	Sololá	2	El tablón	8	Agosto	2023-06-08T00:00:00	2024-11-06T21:00:00	4	Temperatura máxima	15.6
170275	7	Sololá	701	Sololá	2	El tablón	8	Agosto	2023-06-08T00:00:00	2024-11-06T21:00:00	3	Temperatura mínima	15.1
170276	7	Sololá	701	Sololá	2	El tablón	8	Agosto	2023-06-08T00:00:00	2024-11-06T21:00:00	5	Humedad	85
170277	7	Sololá	701	Sololá	2	El tablón	8	Agosto	2023-06-08T00:00:00	2024-11-06T21:00:00	6	Velocidad del viento	6.4
170278	7	Sololá	701	Sololá	2	El tablón	8	Agosto	2023-06-08T00:00:00	2024-11-06T21:00:00	7	Dirección del viento	6.44
170279	7	Sololá	701	Sololá	2	El tablón	8	Agosto	2023-06-08T00:00:00	2024-11-06T21:00:00	1	Precipitación	0
170280	7	Sololá	701	Sololá	2	El tablón	8	Agosto	2023-06-08T00:00:00	2024-11-06T21:00:00	8	Radiación solar	0
170281	7	Sololá	701	Sololá	2	El tablón	8	Agosto	2023-06-08T00:00:00	2024-11-06T22:00:00	2	Temperatura media	14.7
170282	7	Sololá	701	Sololá	2	El tablón	8	Agosto	2023-06-08T00:00:00	2024-11-06T22:00:00	4	Temperatura máxima	15.1
170283	7	Sololá	701	Sololá	2	El tablón	8	Agosto	2023-06-08T00:00:00	2024-11-06T22:00:00	3	Temperatura mínima	14.7
170284	7	Sololá	701	Sololá	2	El tablón	8	Agosto	2023-06-08T00:00:00	2024-11-06T22:00:00	5	Humedad	85
170285	7	Sololá	701	Sololá	2	El tablón	8	Agosto	2023-06-08T00:00:00	2024-11-06T22:00:00	6	Velocidad del viento	9.7
170286	7	Sololá	701	Sololá	2	El tablón	8	Agosto	2023-06-08T00:00:00	2024-11-06T22:00:00	7	Dirección del viento	9.66
170287	7	Sololá	701	Sololá	2	El tablón	8	Agosto	2023-06-08T00:00:00	2024-11-06T22:00:00	1	Precipitación	0
170288	7	Sololá	701	Sololá	2	El tablón	8	Agosto	2023-06-08T00:00:00	2024-11-06T22:00:00	8	Radiación solar	0
170289	7	Sololá	701	Sololá	2	El tablón	8	Agosto	2023-06-08T00:00:00	2024-11-06T23:00:00	2	Temperatura media	14.1
170290	7	Sololá	701	Sololá	2	El tablón	8	Agosto	2023-06-08T00:00:00	2024-11-06T23:00:00	4	Temperatura máxima	14.7
170291	7	Sololá	701	Sololá	2	El tablón	8	Agosto	2023-06-08T00:00:00	2024-11-06T23:00:00	3	Temperatura mínima	14
170292	7	Sololá	701	Sololá	2	El tablón	8	Agosto	2023-06-08T00:00:00	2024-11-06T23:00:00	5	Humedad	86
170293	7	Sololá	701	Sololá	2	El tablón	8	Agosto	2023-06-08T00:00:00	2024-11-06T23:00:00	6	Velocidad del viento	9.7
170294	7	Sololá	701	Sololá	2	El tablón	8	Agosto	2023-06-08T00:00:00	2024-11-06T23:00:00	7	Dirección del viento	9.66
170295	7	Sololá	701	Sololá	2	El tablón	8	Agosto	2023-06-08T00:00:00	2024-11-06T23:00:00	1	Precipitación	0
170296	7	Sololá	701	Sololá	2	El tablón	8	Agosto	2023-06-08T00:00:00	2024-11-06T23:00:00	8	Radiación solar	0
170297	7	Sololá	701	Sololá	2	El tablón	8	Agosto	2023-07-08T00:00:00	2024-11-06T00:00:00	2	Temperatura media	13.6
170298	7	Sololá	701	Sololá	2	El tablón	8	Agosto	2023-07-08T00:00:00	2024-11-06T00:00:00	4	Temperatura máxima	14.1
170299	7	Sololá	701	Sololá	2	El tablón	8	Agosto	2023-07-08T00:00:00	2024-11-06T00:00:00	3	Temperatura mínima	13.6
170300	7	Sololá	701	Sololá	2	El tablón	8	Agosto	2023-07-08T00:00:00	2024-11-06T00:00:00	5	Humedad	86
170301	7	Sololá	701	Sololá	2	El tablón	8	Agosto	2023-07-08T00:00:00	2024-11-06T00:00:00	6	Velocidad del viento	6.4
170302	7	Sololá	701	Sololá	2	El tablón	8	Agosto	2023-07-08T00:00:00	2024-11-06T00:00:00	7	Dirección del viento	6.44
170303	7	Sololá	701	Sololá	2	El tablón	8	Agosto	2023-07-08T00:00:00	2024-11-06T00:00:00	1	Precipitación	0
170304	7	Sololá	701	Sololá	2	El tablón	8	Agosto	2023-07-08T00:00:00	2024-11-06T00:00:00	8	Radiación solar	0
170305	7	Sololá	701	Sololá	2	El tablón	8	Agosto	2023-07-08T00:00:00	2024-11-06T01:00:00	2	Temperatura media	13.7
170306	7	Sololá	701	Sololá	2	El tablón	8	Agosto	2023-07-08T00:00:00	2024-11-06T01:00:00	4	Temperatura máxima	13.7
170307	7	Sololá	701	Sololá	2	El tablón	8	Agosto	2023-07-08T00:00:00	2024-11-06T01:00:00	3	Temperatura mínima	13.4
170308	7	Sololá	701	Sololá	2	El tablón	8	Agosto	2023-07-08T00:00:00	2024-11-06T01:00:00	5	Humedad	86
170309	7	Sololá	701	Sololá	2	El tablón	8	Agosto	2023-07-08T00:00:00	2024-11-06T01:00:00	6	Velocidad del viento	4.8
170310	7	Sololá	701	Sololá	2	El tablón	8	Agosto	2023-07-08T00:00:00	2024-11-06T01:00:00	7	Dirección del viento	4.83
170311	7	Sololá	701	Sololá	2	El tablón	8	Agosto	2023-07-08T00:00:00	2024-11-06T01:00:00	1	Precipitación	0
170312	7	Sololá	701	Sololá	2	El tablón	8	Agosto	2023-07-08T00:00:00	2024-11-06T01:00:00	8	Radiación solar	0
170313	7	Sololá	701	Sololá	2	El tablón	8	Agosto	2023-07-08T00:00:00	2024-11-06T02:00:00	2	Temperatura media	14.6
170314	7	Sololá	701	Sololá	2	El tablón	8	Agosto	2023-07-08T00:00:00	2024-11-06T02:00:00	4	Temperatura máxima	14.6
170315	7	Sololá	701	Sololá	2	El tablón	8	Agosto	2023-07-08T00:00:00	2024-11-06T02:00:00	3	Temperatura mínima	13.7
170316	7	Sololá	701	Sololá	2	El tablón	8	Agosto	2023-07-08T00:00:00	2024-11-06T02:00:00	5	Humedad	80
170317	7	Sololá	701	Sololá	2	El tablón	8	Agosto	2023-07-08T00:00:00	2024-11-06T02:00:00	6	Velocidad del viento	6.4
170318	7	Sololá	701	Sololá	2	El tablón	8	Agosto	2023-07-08T00:00:00	2024-11-06T02:00:00	7	Dirección del viento	6.44
170319	7	Sololá	701	Sololá	2	El tablón	8	Agosto	2023-07-08T00:00:00	2024-11-06T02:00:00	1	Precipitación	0
170320	7	Sololá	701	Sololá	2	El tablón	8	Agosto	2023-07-08T00:00:00	2024-11-06T02:00:00	8	Radiación solar	0
170321	7	Sololá	701	Sololá	2	El tablón	8	Agosto	2023-07-08T00:00:00	2024-11-06T03:00:00	2	Temperatura media	13.8
170322	7	Sololá	701	Sololá	2	El tablón	8	Agosto	2023-07-08T00:00:00	2024-11-06T03:00:00	4	Temperatura máxima	14.7
170323	7	Sololá	701	Sololá	2	El tablón	8	Agosto	2023-07-08T00:00:00	2024-11-06T03:00:00	3	Temperatura mínima	13.8
170324	7	Sololá	701	Sololá	2	El tablón	8	Agosto	2023-07-08T00:00:00	2024-11-06T03:00:00	5	Humedad	84
170325	7	Sololá	701	Sololá	2	El tablón	8	Agosto	2023-07-08T00:00:00	2024-11-06T03:00:00	6	Velocidad del viento	8
170326	7	Sololá	701	Sololá	2	El tablón	8	Agosto	2023-07-08T00:00:00	2024-11-06T03:00:00	7	Dirección del viento	8.05
170327	7	Sololá	701	Sololá	2	El tablón	8	Agosto	2023-07-08T00:00:00	2024-11-06T03:00:00	1	Precipitación	0
170328	7	Sololá	701	Sololá	2	El tablón	8	Agosto	2023-07-08T00:00:00	2024-11-06T03:00:00	8	Radiación solar	0
170329	7	Sololá	701	Sololá	2	El tablón	8	Agosto	2023-07-08T00:00:00	2024-11-06T04:00:00	2	Temperatura media	13.1
170330	7	Sololá	701	Sololá	2	El tablón	8	Agosto	2023-07-08T00:00:00	2024-11-06T04:00:00	4	Temperatura máxima	13.8
170331	7	Sololá	701	Sololá	2	El tablón	8	Agosto	2023-07-08T00:00:00	2024-11-06T04:00:00	3	Temperatura mínima	13.1
170332	7	Sololá	701	Sololá	2	El tablón	8	Agosto	2023-07-08T00:00:00	2024-11-06T04:00:00	5	Humedad	86
170333	7	Sololá	701	Sololá	2	El tablón	8	Agosto	2023-07-08T00:00:00	2024-11-06T04:00:00	6	Velocidad del viento	11.3
170334	7	Sololá	701	Sololá	2	El tablón	8	Agosto	2023-07-08T00:00:00	2024-11-06T04:00:00	7	Dirección del viento	11.27
170335	7	Sololá	701	Sololá	2	El tablón	8	Agosto	2023-07-08T00:00:00	2024-11-06T04:00:00	1	Precipitación	0
170336	7	Sololá	701	Sololá	2	El tablón	8	Agosto	2023-07-08T00:00:00	2024-11-06T04:00:00	8	Radiación solar	0
170337	7	Sololá	701	Sololá	2	El tablón	8	Agosto	2023-07-08T00:00:00	2024-11-06T05:00:00	2	Temperatura media	13.1
170338	7	Sololá	701	Sololá	2	El tablón	8	Agosto	2023-07-08T00:00:00	2024-11-06T05:00:00	4	Temperatura máxima	13.1
170339	7	Sololá	701	Sololá	2	El tablón	8	Agosto	2023-07-08T00:00:00	2024-11-06T05:00:00	3	Temperatura mínima	12.9
170340	7	Sololá	701	Sololá	2	El tablón	8	Agosto	2023-07-08T00:00:00	2024-11-06T05:00:00	5	Humedad	87
170341	7	Sololá	701	Sololá	2	El tablón	8	Agosto	2023-07-08T00:00:00	2024-11-06T05:00:00	6	Velocidad del viento	9.7
170342	7	Sololá	701	Sololá	2	El tablón	8	Agosto	2023-07-08T00:00:00	2024-11-06T05:00:00	7	Dirección del viento	9.66
170343	7	Sololá	701	Sololá	2	El tablón	8	Agosto	2023-07-08T00:00:00	2024-11-06T05:00:00	1	Precipitación	0
170344	7	Sololá	701	Sololá	2	El tablón	8	Agosto	2023-07-08T00:00:00	2024-11-06T05:00:00	8	Radiación solar	0
170345	7	Sololá	701	Sololá	2	El tablón	8	Agosto	2023-07-08T00:00:00	2024-11-06T06:00:00	2	Temperatura media	13.2
170346	7	Sololá	701	Sololá	2	El tablón	8	Agosto	2023-07-08T00:00:00	2024-11-06T06:00:00	4	Temperatura máxima	13.3
170347	7	Sololá	701	Sololá	2	El tablón	8	Agosto	2023-07-08T00:00:00	2024-11-06T06:00:00	3	Temperatura mínima	13.1
170348	7	Sololá	701	Sololá	2	El tablón	8	Agosto	2023-07-08T00:00:00	2024-11-06T06:00:00	5	Humedad	88
170349	7	Sololá	701	Sololá	2	El tablón	8	Agosto	2023-07-08T00:00:00	2024-11-06T06:00:00	6	Velocidad del viento	12.9
170350	7	Sololá	701	Sololá	2	El tablón	8	Agosto	2023-07-08T00:00:00	2024-11-06T06:00:00	7	Dirección del viento	12.87
170351	7	Sololá	701	Sololá	2	El tablón	8	Agosto	2023-07-08T00:00:00	2024-11-06T06:00:00	1	Precipitación	0
170352	7	Sololá	701	Sololá	2	El tablón	8	Agosto	2023-07-08T00:00:00	2024-11-06T06:00:00	8	Radiación solar	0
170353	7	Sololá	701	Sololá	2	El tablón	8	Agosto	2023-07-08T00:00:00	2024-11-06T07:00:00	2	Temperatura media	14
170354	7	Sololá	701	Sololá	2	El tablón	8	Agosto	2023-07-08T00:00:00	2024-11-06T07:00:00	4	Temperatura máxima	14
170355	7	Sololá	701	Sololá	2	El tablón	8	Agosto	2023-07-08T00:00:00	2024-11-06T07:00:00	3	Temperatura mínima	13.2
170356	7	Sololá	701	Sololá	2	El tablón	8	Agosto	2023-07-08T00:00:00	2024-11-06T07:00:00	5	Humedad	85
170357	7	Sololá	701	Sololá	2	El tablón	8	Agosto	2023-07-08T00:00:00	2024-11-06T07:00:00	6	Velocidad del viento	16.1
170358	7	Sololá	701	Sololá	2	El tablón	8	Agosto	2023-07-08T00:00:00	2024-11-06T07:00:00	7	Dirección del viento	16.09
170359	7	Sololá	701	Sololá	2	El tablón	8	Agosto	2023-07-08T00:00:00	2024-11-06T07:00:00	1	Precipitación	0
170360	7	Sololá	701	Sololá	2	El tablón	8	Agosto	2023-07-08T00:00:00	2024-11-06T07:00:00	8	Radiación solar	63
170361	7	Sololá	701	Sololá	2	El tablón	8	Agosto	2023-07-08T00:00:00	2024-11-06T08:00:00	2	Temperatura media	15.1
170362	7	Sololá	701	Sololá	2	El tablón	8	Agosto	2023-07-08T00:00:00	2024-11-06T08:00:00	4	Temperatura máxima	15.1
170363	7	Sololá	701	Sololá	2	El tablón	8	Agosto	2023-07-08T00:00:00	2024-11-06T08:00:00	3	Temperatura mínima	14.1
170364	7	Sololá	701	Sololá	2	El tablón	8	Agosto	2023-07-08T00:00:00	2024-11-06T08:00:00	5	Humedad	81
170365	7	Sololá	701	Sololá	2	El tablón	8	Agosto	2023-07-08T00:00:00	2024-11-06T08:00:00	6	Velocidad del viento	16.1
170366	7	Sololá	701	Sololá	2	El tablón	8	Agosto	2023-07-08T00:00:00	2024-11-06T08:00:00	7	Dirección del viento	16.09
170367	7	Sololá	701	Sololá	2	El tablón	8	Agosto	2023-07-08T00:00:00	2024-11-06T08:00:00	1	Precipitación	0
170368	7	Sololá	701	Sololá	2	El tablón	8	Agosto	2023-07-08T00:00:00	2024-11-06T08:00:00	8	Radiación solar	303
170369	7	Sololá	701	Sololá	2	El tablón	8	Agosto	2023-07-08T00:00:00	2024-11-06T09:00:00	2	Temperatura media	17.2
170370	7	Sololá	701	Sololá	2	El tablón	8	Agosto	2023-07-08T00:00:00	2024-11-06T09:00:00	4	Temperatura máxima	17.2
170371	7	Sololá	701	Sololá	2	El tablón	8	Agosto	2023-07-08T00:00:00	2024-11-06T09:00:00	3	Temperatura mínima	15.1
170372	7	Sololá	701	Sololá	2	El tablón	8	Agosto	2023-07-08T00:00:00	2024-11-06T09:00:00	5	Humedad	75
170373	7	Sololá	701	Sololá	2	El tablón	8	Agosto	2023-07-08T00:00:00	2024-11-06T09:00:00	6	Velocidad del viento	11.3
170374	7	Sololá	701	Sololá	2	El tablón	8	Agosto	2023-07-08T00:00:00	2024-11-06T09:00:00	7	Dirección del viento	11.27
170375	7	Sololá	701	Sololá	2	El tablón	8	Agosto	2023-07-08T00:00:00	2024-11-06T09:00:00	1	Precipitación	0
170376	7	Sololá	701	Sololá	2	El tablón	8	Agosto	2023-07-08T00:00:00	2024-11-06T09:00:00	8	Radiación solar	520
170377	7	Sololá	701	Sololá	2	El tablón	8	Agosto	2023-07-08T00:00:00	2024-11-06T10:00:00	2	Temperatura media	18.2
170378	7	Sololá	701	Sololá	2	El tablón	8	Agosto	2023-07-08T00:00:00	2024-11-06T10:00:00	4	Temperatura máxima	18.2
170379	7	Sololá	701	Sololá	2	El tablón	8	Agosto	2023-07-08T00:00:00	2024-11-06T10:00:00	3	Temperatura mínima	17.2
170380	7	Sololá	701	Sololá	2	El tablón	8	Agosto	2023-07-08T00:00:00	2024-11-06T10:00:00	5	Humedad	72
170381	7	Sololá	701	Sololá	2	El tablón	8	Agosto	2023-07-08T00:00:00	2024-11-06T10:00:00	6	Velocidad del viento	11.3
170382	7	Sololá	701	Sololá	2	El tablón	8	Agosto	2023-07-08T00:00:00	2024-11-06T10:00:00	7	Dirección del viento	11.27
170383	7	Sololá	701	Sololá	2	El tablón	8	Agosto	2023-07-08T00:00:00	2024-11-06T10:00:00	1	Precipitación	0
170384	7	Sololá	701	Sololá	2	El tablón	8	Agosto	2023-07-08T00:00:00	2024-11-06T10:00:00	8	Radiación solar	708
170385	7	Sololá	701	Sololá	2	El tablón	8	Agosto	2023-07-08T00:00:00	2024-11-06T11:00:00	2	Temperatura media	18.4
170386	7	Sololá	701	Sololá	2	El tablón	8	Agosto	2023-07-08T00:00:00	2024-11-06T11:00:00	4	Temperatura máxima	18.8
170387	7	Sololá	701	Sololá	2	El tablón	8	Agosto	2023-07-08T00:00:00	2024-11-06T11:00:00	3	Temperatura mínima	18.2
170388	7	Sololá	701	Sololá	2	El tablón	8	Agosto	2023-07-08T00:00:00	2024-11-06T11:00:00	5	Humedad	73
170389	7	Sololá	701	Sololá	2	El tablón	8	Agosto	2023-07-08T00:00:00	2024-11-06T11:00:00	6	Velocidad del viento	12.9
170390	7	Sololá	701	Sololá	2	El tablón	8	Agosto	2023-07-08T00:00:00	2024-11-06T11:00:00	7	Dirección del viento	12.87
170391	7	Sololá	701	Sololá	2	El tablón	8	Agosto	2023-07-08T00:00:00	2024-11-06T11:00:00	1	Precipitación	0
170392	7	Sololá	701	Sololá	2	El tablón	8	Agosto	2023-07-08T00:00:00	2024-11-06T11:00:00	8	Radiación solar	841
170393	7	Sololá	701	Sololá	2	El tablón	8	Agosto	2023-07-08T00:00:00	2024-11-06T12:00:00	2	Temperatura media	19.3
170394	7	Sololá	701	Sololá	2	El tablón	8	Agosto	2023-07-08T00:00:00	2024-11-06T12:00:00	4	Temperatura máxima	19.3
170395	7	Sololá	701	Sololá	2	El tablón	8	Agosto	2023-07-08T00:00:00	2024-11-06T12:00:00	3	Temperatura mínima	18.4
170396	7	Sololá	701	Sololá	2	El tablón	8	Agosto	2023-07-08T00:00:00	2024-11-06T12:00:00	5	Humedad	69
170397	7	Sololá	701	Sololá	2	El tablón	8	Agosto	2023-07-08T00:00:00	2024-11-06T12:00:00	6	Velocidad del viento	11.3
170398	7	Sololá	701	Sololá	2	El tablón	8	Agosto	2023-07-08T00:00:00	2024-11-06T12:00:00	7	Dirección del viento	11.27
170399	7	Sololá	701	Sololá	2	El tablón	8	Agosto	2023-07-08T00:00:00	2024-11-06T12:00:00	1	Precipitación	0
170400	7	Sololá	701	Sololá	2	El tablón	8	Agosto	2023-07-08T00:00:00	2024-11-06T12:00:00	8	Radiación solar	958
170401	7	Sololá	701	Sololá	2	El tablón	8	Agosto	2023-07-08T00:00:00	2024-11-06T13:00:00	2	Temperatura media	19.8
170402	7	Sololá	701	Sololá	2	El tablón	8	Agosto	2023-07-08T00:00:00	2024-11-06T13:00:00	4	Temperatura máxima	20.2
170403	7	Sololá	701	Sololá	2	El tablón	8	Agosto	2023-07-08T00:00:00	2024-11-06T13:00:00	3	Temperatura mínima	19.2
170404	7	Sololá	701	Sololá	2	El tablón	8	Agosto	2023-07-08T00:00:00	2024-11-06T13:00:00	5	Humedad	66
170405	7	Sololá	701	Sololá	2	El tablón	8	Agosto	2023-07-08T00:00:00	2024-11-06T13:00:00	6	Velocidad del viento	9.7
170406	7	Sololá	701	Sololá	2	El tablón	8	Agosto	2023-07-08T00:00:00	2024-11-06T13:00:00	7	Dirección del viento	9.66
170407	7	Sololá	701	Sololá	2	El tablón	8	Agosto	2023-07-08T00:00:00	2024-11-06T13:00:00	1	Precipitación	0
170408	7	Sololá	701	Sololá	2	El tablón	8	Agosto	2023-07-08T00:00:00	2024-11-06T13:00:00	8	Radiación solar	865
170409	7	Sololá	701	Sololá	2	El tablón	8	Agosto	2023-07-08T00:00:00	2024-11-06T14:00:00	2	Temperatura media	20.2
170410	7	Sololá	701	Sololá	2	El tablón	8	Agosto	2023-07-08T00:00:00	2024-11-06T14:00:00	4	Temperatura máxima	21.1
170411	7	Sololá	701	Sololá	2	El tablón	8	Agosto	2023-07-08T00:00:00	2024-11-06T14:00:00	3	Temperatura mínima	19.7
170412	7	Sololá	701	Sololá	2	El tablón	8	Agosto	2023-07-08T00:00:00	2024-11-06T14:00:00	5	Humedad	66
170413	7	Sololá	701	Sololá	2	El tablón	8	Agosto	2023-07-08T00:00:00	2024-11-06T14:00:00	6	Velocidad del viento	11.3
170414	7	Sololá	701	Sololá	2	El tablón	8	Agosto	2023-07-08T00:00:00	2024-11-06T14:00:00	7	Dirección del viento	11.27
170415	7	Sololá	701	Sololá	2	El tablón	8	Agosto	2023-07-08T00:00:00	2024-11-06T14:00:00	1	Precipitación	0
170416	7	Sololá	701	Sololá	2	El tablón	8	Agosto	2023-07-08T00:00:00	2024-11-06T14:00:00	8	Radiación solar	756
170417	7	Sololá	701	Sololá	2	El tablón	8	Agosto	2023-07-08T00:00:00	2024-11-06T15:00:00	2	Temperatura media	19.6
170418	7	Sololá	701	Sololá	2	El tablón	8	Agosto	2023-07-08T00:00:00	2024-11-06T15:00:00	4	Temperatura máxima	20.7
170419	7	Sololá	701	Sololá	2	El tablón	8	Agosto	2023-07-08T00:00:00	2024-11-06T15:00:00	3	Temperatura mínima	19.4
170420	7	Sololá	701	Sololá	2	El tablón	8	Agosto	2023-07-08T00:00:00	2024-11-06T15:00:00	5	Humedad	68
170421	7	Sololá	701	Sololá	2	El tablón	8	Agosto	2023-07-08T00:00:00	2024-11-06T15:00:00	6	Velocidad del viento	9.7
170422	7	Sololá	701	Sololá	2	El tablón	8	Agosto	2023-07-08T00:00:00	2024-11-06T15:00:00	7	Dirección del viento	9.66
170423	7	Sololá	701	Sololá	2	El tablón	8	Agosto	2023-07-08T00:00:00	2024-11-06T15:00:00	1	Precipitación	0
170424	7	Sololá	701	Sololá	2	El tablón	8	Agosto	2023-07-08T00:00:00	2024-11-06T15:00:00	8	Radiación solar	651
170425	7	Sololá	701	Sololá	2	El tablón	8	Agosto	2023-07-08T00:00:00	2024-11-06T16:00:00	2	Temperatura media	20.2
170426	7	Sololá	701	Sololá	2	El tablón	8	Agosto	2023-07-08T00:00:00	2024-11-06T16:00:00	4	Temperatura máxima	20.9
170427	7	Sololá	701	Sololá	2	El tablón	8	Agosto	2023-07-08T00:00:00	2024-11-06T16:00:00	3	Temperatura mínima	19.6
170428	7	Sololá	701	Sololá	2	El tablón	8	Agosto	2023-07-08T00:00:00	2024-11-06T16:00:00	5	Humedad	63
170429	7	Sololá	701	Sololá	2	El tablón	8	Agosto	2023-07-08T00:00:00	2024-11-06T16:00:00	6	Velocidad del viento	8
170430	7	Sololá	701	Sololá	2	El tablón	8	Agosto	2023-07-08T00:00:00	2024-11-06T16:00:00	7	Dirección del viento	8.05
170431	7	Sololá	701	Sololá	2	El tablón	8	Agosto	2023-07-08T00:00:00	2024-11-06T16:00:00	1	Precipitación	0
170432	7	Sololá	701	Sololá	2	El tablón	8	Agosto	2023-07-08T00:00:00	2024-11-06T16:00:00	8	Radiación solar	619
170433	7	Sololá	701	Sololá	2	El tablón	8	Agosto	2023-07-08T00:00:00	2024-11-06T17:00:00	2	Temperatura media	19.1
170434	7	Sololá	701	Sololá	2	El tablón	8	Agosto	2023-07-08T00:00:00	2024-11-06T17:00:00	4	Temperatura máxima	20.6
170435	7	Sololá	701	Sololá	2	El tablón	8	Agosto	2023-07-08T00:00:00	2024-11-06T17:00:00	3	Temperatura mínima	19.1
170436	7	Sololá	701	Sololá	2	El tablón	8	Agosto	2023-07-08T00:00:00	2024-11-06T17:00:00	5	Humedad	71
170437	7	Sololá	701	Sololá	2	El tablón	8	Agosto	2023-07-08T00:00:00	2024-11-06T17:00:00	6	Velocidad del viento	8
170438	7	Sololá	701	Sololá	2	El tablón	8	Agosto	2023-07-08T00:00:00	2024-11-06T17:00:00	7	Dirección del viento	8.05
170439	7	Sololá	701	Sololá	2	El tablón	8	Agosto	2023-07-08T00:00:00	2024-11-06T17:00:00	1	Precipitación	0
170440	7	Sololá	701	Sololá	2	El tablón	8	Agosto	2023-07-08T00:00:00	2024-11-06T17:00:00	8	Radiación solar	357
170441	7	Sololá	701	Sololá	2	El tablón	8	Agosto	2023-07-08T00:00:00	2024-11-06T18:00:00	2	Temperatura media	18.6
170442	7	Sololá	701	Sololá	2	El tablón	8	Agosto	2023-07-08T00:00:00	2024-11-06T18:00:00	4	Temperatura máxima	19.2
170443	7	Sololá	701	Sololá	2	El tablón	8	Agosto	2023-07-08T00:00:00	2024-11-06T18:00:00	3	Temperatura mínima	18.4
170444	7	Sololá	701	Sololá	2	El tablón	8	Agosto	2023-07-08T00:00:00	2024-11-06T18:00:00	5	Humedad	71
170445	7	Sololá	701	Sololá	2	El tablón	8	Agosto	2023-07-08T00:00:00	2024-11-06T18:00:00	6	Velocidad del viento	6.4
170446	7	Sololá	701	Sololá	2	El tablón	8	Agosto	2023-07-08T00:00:00	2024-11-06T18:00:00	7	Dirección del viento	6.44
170447	7	Sololá	701	Sololá	2	El tablón	8	Agosto	2023-07-08T00:00:00	2024-11-06T18:00:00	1	Precipitación	0
170448	7	Sololá	701	Sololá	2	El tablón	8	Agosto	2023-07-08T00:00:00	2024-11-06T18:00:00	8	Radiación solar	157
170449	7	Sololá	701	Sololá	2	El tablón	8	Agosto	2023-07-08T00:00:00	2024-11-06T19:00:00	2	Temperatura media	16.4
170450	7	Sololá	701	Sololá	2	El tablón	8	Agosto	2023-07-08T00:00:00	2024-11-06T19:00:00	4	Temperatura máxima	18.6
170451	7	Sololá	701	Sololá	2	El tablón	8	Agosto	2023-07-08T00:00:00	2024-11-06T19:00:00	3	Temperatura mínima	16.4
170452	7	Sololá	701	Sololá	2	El tablón	8	Agosto	2023-07-08T00:00:00	2024-11-06T19:00:00	5	Humedad	81
170453	7	Sololá	701	Sololá	2	El tablón	8	Agosto	2023-07-08T00:00:00	2024-11-06T19:00:00	6	Velocidad del viento	4.8
170454	7	Sololá	701	Sololá	2	El tablón	8	Agosto	2023-07-08T00:00:00	2024-11-06T19:00:00	7	Dirección del viento	4.83
170455	7	Sololá	701	Sololá	2	El tablón	8	Agosto	2023-07-08T00:00:00	2024-11-06T19:00:00	1	Precipitación	0
170456	7	Sololá	701	Sololá	2	El tablón	8	Agosto	2023-07-08T00:00:00	2024-11-06T19:00:00	8	Radiación solar	0
170457	7	Sololá	701	Sololá	2	El tablón	8	Agosto	2023-07-08T00:00:00	2024-11-06T20:00:00	2	Temperatura media	15.7
170458	7	Sololá	701	Sololá	2	El tablón	8	Agosto	2023-07-08T00:00:00	2024-11-06T20:00:00	4	Temperatura máxima	16.4
170459	7	Sololá	701	Sololá	2	El tablón	8	Agosto	2023-07-08T00:00:00	2024-11-06T20:00:00	3	Temperatura mínima	15.7
170460	7	Sololá	701	Sololá	2	El tablón	8	Agosto	2023-07-08T00:00:00	2024-11-06T20:00:00	5	Humedad	85
170461	7	Sololá	701	Sololá	2	El tablón	8	Agosto	2023-07-08T00:00:00	2024-11-06T20:00:00	6	Velocidad del viento	6.4
170462	7	Sololá	701	Sololá	2	El tablón	8	Agosto	2023-07-08T00:00:00	2024-11-06T20:00:00	7	Dirección del viento	6.44
170463	7	Sololá	701	Sololá	2	El tablón	8	Agosto	2023-07-08T00:00:00	2024-11-06T20:00:00	1	Precipitación	0
170464	7	Sololá	701	Sololá	2	El tablón	8	Agosto	2023-07-08T00:00:00	2024-11-06T20:00:00	8	Radiación solar	0
170465	7	Sololá	701	Sololá	2	El tablón	8	Agosto	2023-07-08T00:00:00	2024-11-06T21:00:00	2	Temperatura media	15.6
170466	7	Sololá	701	Sololá	2	El tablón	8	Agosto	2023-07-08T00:00:00	2024-11-06T21:00:00	4	Temperatura máxima	15.8
170467	7	Sololá	701	Sololá	2	El tablón	8	Agosto	2023-07-08T00:00:00	2024-11-06T21:00:00	3	Temperatura mínima	15.5
170468	7	Sololá	701	Sololá	2	El tablón	8	Agosto	2023-07-08T00:00:00	2024-11-06T21:00:00	5	Humedad	86
170469	7	Sololá	701	Sololá	2	El tablón	8	Agosto	2023-07-08T00:00:00	2024-11-06T21:00:00	6	Velocidad del viento	8
170470	7	Sololá	701	Sololá	2	El tablón	8	Agosto	2023-07-08T00:00:00	2024-11-06T21:00:00	7	Dirección del viento	8.05
170471	7	Sololá	701	Sololá	2	El tablón	8	Agosto	2023-07-08T00:00:00	2024-11-06T21:00:00	1	Precipitación	0
170472	7	Sololá	701	Sololá	2	El tablón	8	Agosto	2023-07-08T00:00:00	2024-11-06T21:00:00	8	Radiación solar	0
170473	7	Sololá	701	Sololá	2	El tablón	8	Agosto	2023-07-08T00:00:00	2024-11-06T22:00:00	2	Temperatura media	15.4
170474	7	Sololá	701	Sololá	2	El tablón	8	Agosto	2023-07-08T00:00:00	2024-11-06T22:00:00	4	Temperatura máxima	15.6
170475	7	Sololá	701	Sololá	2	El tablón	8	Agosto	2023-07-08T00:00:00	2024-11-06T22:00:00	3	Temperatura mínima	15.4
170476	7	Sololá	701	Sololá	2	El tablón	8	Agosto	2023-07-08T00:00:00	2024-11-06T22:00:00	5	Humedad	86
170477	7	Sololá	701	Sololá	2	El tablón	8	Agosto	2023-07-08T00:00:00	2024-11-06T22:00:00	6	Velocidad del viento	6.4
170478	7	Sololá	701	Sololá	2	El tablón	8	Agosto	2023-07-08T00:00:00	2024-11-06T22:00:00	7	Dirección del viento	6.44
170479	7	Sololá	701	Sololá	2	El tablón	8	Agosto	2023-07-08T00:00:00	2024-11-06T22:00:00	1	Precipitación	0
170480	7	Sololá	701	Sololá	2	El tablón	8	Agosto	2023-07-08T00:00:00	2024-11-06T22:00:00	8	Radiación solar	0
170481	7	Sololá	701	Sololá	2	El tablón	8	Agosto	2023-07-08T00:00:00	2024-11-06T23:00:00	2	Temperatura media	15
170482	7	Sololá	701	Sololá	2	El tablón	8	Agosto	2023-07-08T00:00:00	2024-11-06T23:00:00	4	Temperatura máxima	15.4
170483	7	Sololá	701	Sololá	2	El tablón	8	Agosto	2023-07-08T00:00:00	2024-11-06T23:00:00	3	Temperatura mínima	14.9
170484	7	Sololá	701	Sololá	2	El tablón	8	Agosto	2023-07-08T00:00:00	2024-11-06T23:00:00	5	Humedad	86
170485	7	Sololá	701	Sololá	2	El tablón	8	Agosto	2023-07-08T00:00:00	2024-11-06T23:00:00	6	Velocidad del viento	11.3
170486	7	Sololá	701	Sololá	2	El tablón	8	Agosto	2023-07-08T00:00:00	2024-11-06T23:00:00	7	Dirección del viento	11.27
170487	7	Sololá	701	Sololá	2	El tablón	8	Agosto	2023-07-08T00:00:00	2024-11-06T23:00:00	1	Precipitación	0
170488	7	Sololá	701	Sololá	2	El tablón	8	Agosto	2023-07-08T00:00:00	2024-11-06T23:00:00	8	Radiación solar	0
170489	7	Sololá	701	Sololá	2	El tablón	8	Agosto	2023-08-08T00:00:00	2024-11-06T00:00:00	2	Temperatura media	14.5
170490	7	Sololá	701	Sololá	2	El tablón	8	Agosto	2023-08-08T00:00:00	2024-11-06T00:00:00	4	Temperatura máxima	15
170491	7	Sololá	701	Sololá	2	El tablón	8	Agosto	2023-08-08T00:00:00	2024-11-06T00:00:00	3	Temperatura mínima	14.5
170492	7	Sololá	701	Sololá	2	El tablón	8	Agosto	2023-08-08T00:00:00	2024-11-06T00:00:00	5	Humedad	87
170493	7	Sololá	701	Sololá	2	El tablón	8	Agosto	2023-08-08T00:00:00	2024-11-06T00:00:00	6	Velocidad del viento	6.4
170494	7	Sololá	701	Sololá	2	El tablón	8	Agosto	2023-08-08T00:00:00	2024-11-06T00:00:00	7	Dirección del viento	6.44
170495	7	Sololá	701	Sololá	2	El tablón	8	Agosto	2023-08-08T00:00:00	2024-11-06T00:00:00	1	Precipitación	0
170496	7	Sololá	701	Sololá	2	El tablón	8	Agosto	2023-08-08T00:00:00	2024-11-06T00:00:00	8	Radiación solar	0
170497	7	Sololá	701	Sololá	2	El tablón	8	Agosto	2023-08-08T00:00:00	2024-11-06T01:00:00	2	Temperatura media	14.6
170498	7	Sololá	701	Sololá	2	El tablón	8	Agosto	2023-08-08T00:00:00	2024-11-06T01:00:00	4	Temperatura máxima	14.6
170499	7	Sololá	701	Sololá	2	El tablón	8	Agosto	2023-08-08T00:00:00	2024-11-06T01:00:00	3	Temperatura mínima	14.4
170500	7	Sololá	701	Sololá	2	El tablón	8	Agosto	2023-08-08T00:00:00	2024-11-06T01:00:00	5	Humedad	87
170501	7	Sololá	701	Sololá	2	El tablón	8	Agosto	2023-08-08T00:00:00	2024-11-06T01:00:00	6	Velocidad del viento	4.8
170502	7	Sololá	701	Sololá	2	El tablón	8	Agosto	2023-08-08T00:00:00	2024-11-06T01:00:00	7	Dirección del viento	4.83
170503	7	Sololá	701	Sololá	2	El tablón	8	Agosto	2023-08-08T00:00:00	2024-11-06T01:00:00	1	Precipitación	0
170504	7	Sololá	701	Sololá	2	El tablón	8	Agosto	2023-08-08T00:00:00	2024-11-06T01:00:00	8	Radiación solar	0
170505	7	Sololá	701	Sololá	2	El tablón	8	Agosto	2023-08-08T00:00:00	2024-11-06T02:00:00	2	Temperatura media	14.3
170506	7	Sololá	701	Sololá	2	El tablón	8	Agosto	2023-08-08T00:00:00	2024-11-06T02:00:00	4	Temperatura máxima	14.6
170507	7	Sololá	701	Sololá	2	El tablón	8	Agosto	2023-08-08T00:00:00	2024-11-06T02:00:00	3	Temperatura mínima	14.3
170508	7	Sololá	701	Sololá	2	El tablón	8	Agosto	2023-08-08T00:00:00	2024-11-06T02:00:00	5	Humedad	87
170509	7	Sololá	701	Sololá	2	El tablón	8	Agosto	2023-08-08T00:00:00	2024-11-06T02:00:00	6	Velocidad del viento	6.4
170510	7	Sololá	701	Sololá	2	El tablón	8	Agosto	2023-08-08T00:00:00	2024-11-06T02:00:00	7	Dirección del viento	6.44
170511	7	Sololá	701	Sololá	2	El tablón	8	Agosto	2023-08-08T00:00:00	2024-11-06T02:00:00	1	Precipitación	0
170512	7	Sololá	701	Sololá	2	El tablón	8	Agosto	2023-08-08T00:00:00	2024-11-06T02:00:00	8	Radiación solar	0
170513	7	Sololá	701	Sololá	2	El tablón	8	Agosto	2023-08-08T00:00:00	2024-11-06T03:00:00	2	Temperatura media	14.3
170514	7	Sololá	701	Sololá	2	El tablón	8	Agosto	2023-08-08T00:00:00	2024-11-06T03:00:00	4	Temperatura máxima	14.4
170515	7	Sololá	701	Sololá	2	El tablón	8	Agosto	2023-08-08T00:00:00	2024-11-06T03:00:00	3	Temperatura mínima	14.3
170516	7	Sololá	701	Sololá	2	El tablón	8	Agosto	2023-08-08T00:00:00	2024-11-06T03:00:00	5	Humedad	86
170517	7	Sololá	701	Sololá	2	El tablón	8	Agosto	2023-08-08T00:00:00	2024-11-06T03:00:00	6	Velocidad del viento	6.4
170518	7	Sololá	701	Sololá	2	El tablón	8	Agosto	2023-08-08T00:00:00	2024-11-06T03:00:00	7	Dirección del viento	6.44
170519	7	Sololá	701	Sololá	2	El tablón	8	Agosto	2023-08-08T00:00:00	2024-11-06T03:00:00	1	Precipitación	0
170520	7	Sololá	701	Sololá	2	El tablón	8	Agosto	2023-08-08T00:00:00	2024-11-06T03:00:00	8	Radiación solar	0
170521	7	Sololá	701	Sololá	2	El tablón	8	Agosto	2023-08-08T00:00:00	2024-11-06T04:00:00	2	Temperatura media	14.7
170522	7	Sololá	701	Sololá	2	El tablón	8	Agosto	2023-08-08T00:00:00	2024-11-06T04:00:00	4	Temperatura máxima	14.7
170523	7	Sololá	701	Sololá	2	El tablón	8	Agosto	2023-08-08T00:00:00	2024-11-06T04:00:00	3	Temperatura mínima	14.3
170524	7	Sololá	701	Sololá	2	El tablón	8	Agosto	2023-08-08T00:00:00	2024-11-06T04:00:00	5	Humedad	83
170525	7	Sololá	701	Sololá	2	El tablón	8	Agosto	2023-08-08T00:00:00	2024-11-06T04:00:00	6	Velocidad del viento	9.7
170526	7	Sololá	701	Sololá	2	El tablón	8	Agosto	2023-08-08T00:00:00	2024-11-06T04:00:00	7	Dirección del viento	9.66
170527	7	Sololá	701	Sololá	2	El tablón	8	Agosto	2023-08-08T00:00:00	2024-11-06T04:00:00	1	Precipitación	0
170528	7	Sololá	701	Sololá	2	El tablón	8	Agosto	2023-08-08T00:00:00	2024-11-06T04:00:00	8	Radiación solar	0
170529	7	Sololá	701	Sololá	2	El tablón	8	Agosto	2023-08-08T00:00:00	2024-11-06T05:00:00	2	Temperatura media	14.8
170530	7	Sololá	701	Sololá	2	El tablón	8	Agosto	2023-08-08T00:00:00	2024-11-06T05:00:00	4	Temperatura máxima	14.8
170531	7	Sololá	701	Sololá	2	El tablón	8	Agosto	2023-08-08T00:00:00	2024-11-06T05:00:00	3	Temperatura mínima	14.6
170532	7	Sololá	701	Sololá	2	El tablón	8	Agosto	2023-08-08T00:00:00	2024-11-06T05:00:00	5	Humedad	82
170533	7	Sololá	701	Sololá	2	El tablón	8	Agosto	2023-08-08T00:00:00	2024-11-06T05:00:00	6	Velocidad del viento	14.5
170534	7	Sololá	701	Sololá	2	El tablón	8	Agosto	2023-08-08T00:00:00	2024-11-06T05:00:00	7	Dirección del viento	14.48
170535	7	Sololá	701	Sololá	2	El tablón	8	Agosto	2023-08-08T00:00:00	2024-11-06T05:00:00	1	Precipitación	0
170536	7	Sololá	701	Sololá	2	El tablón	8	Agosto	2023-08-08T00:00:00	2024-11-06T05:00:00	8	Radiación solar	0
170537	7	Sololá	701	Sololá	2	El tablón	8	Agosto	2023-08-08T00:00:00	2024-11-06T06:00:00	2	Temperatura media	14
170538	7	Sololá	701	Sololá	2	El tablón	8	Agosto	2023-08-08T00:00:00	2024-11-06T06:00:00	4	Temperatura máxima	14.8
170539	7	Sololá	701	Sololá	2	El tablón	8	Agosto	2023-08-08T00:00:00	2024-11-06T06:00:00	3	Temperatura mínima	13.9
170540	7	Sololá	701	Sololá	2	El tablón	8	Agosto	2023-08-08T00:00:00	2024-11-06T06:00:00	5	Humedad	86
170541	7	Sololá	701	Sololá	2	El tablón	8	Agosto	2023-08-08T00:00:00	2024-11-06T06:00:00	6	Velocidad del viento	12.9
170542	7	Sololá	701	Sololá	2	El tablón	8	Agosto	2023-08-08T00:00:00	2024-11-06T06:00:00	7	Dirección del viento	12.87
170543	7	Sololá	701	Sololá	2	El tablón	8	Agosto	2023-08-08T00:00:00	2024-11-06T06:00:00	1	Precipitación	0
170544	7	Sololá	701	Sololá	2	El tablón	8	Agosto	2023-08-08T00:00:00	2024-11-06T06:00:00	8	Radiación solar	1
170545	7	Sololá	701	Sololá	2	El tablón	8	Agosto	2023-08-08T00:00:00	2024-11-06T07:00:00	2	Temperatura media	15.1
170546	7	Sololá	701	Sololá	2	El tablón	8	Agosto	2023-08-08T00:00:00	2024-11-06T07:00:00	4	Temperatura máxima	15.1
170547	7	Sololá	701	Sololá	2	El tablón	8	Agosto	2023-08-08T00:00:00	2024-11-06T07:00:00	3	Temperatura mínima	13.9
170548	7	Sololá	701	Sololá	2	El tablón	8	Agosto	2023-08-08T00:00:00	2024-11-06T07:00:00	5	Humedad	84
170549	7	Sololá	701	Sololá	2	El tablón	8	Agosto	2023-08-08T00:00:00	2024-11-06T07:00:00	6	Velocidad del viento	12.9
170550	7	Sololá	701	Sololá	2	El tablón	8	Agosto	2023-08-08T00:00:00	2024-11-06T07:00:00	7	Dirección del viento	12.87
170551	7	Sololá	701	Sololá	2	El tablón	8	Agosto	2023-08-08T00:00:00	2024-11-06T07:00:00	1	Precipitación	0
170552	7	Sololá	701	Sololá	2	El tablón	8	Agosto	2023-08-08T00:00:00	2024-11-06T07:00:00	8	Radiación solar	71
170553	7	Sololá	701	Sololá	2	El tablón	8	Agosto	2023-08-08T00:00:00	2024-11-06T08:00:00	2	Temperatura media	15.9
170554	7	Sololá	701	Sololá	2	El tablón	8	Agosto	2023-08-08T00:00:00	2024-11-06T08:00:00	4	Temperatura máxima	15.9
170555	7	Sololá	701	Sololá	2	El tablón	8	Agosto	2023-08-08T00:00:00	2024-11-06T08:00:00	3	Temperatura mínima	15.1
170556	7	Sololá	701	Sololá	2	El tablón	8	Agosto	2023-08-08T00:00:00	2024-11-06T08:00:00	5	Humedad	82
170557	7	Sololá	701	Sololá	2	El tablón	8	Agosto	2023-08-08T00:00:00	2024-11-06T08:00:00	6	Velocidad del viento	12.9
170558	7	Sololá	701	Sololá	2	El tablón	8	Agosto	2023-08-08T00:00:00	2024-11-06T08:00:00	7	Dirección del viento	12.87
170559	7	Sololá	701	Sololá	2	El tablón	8	Agosto	2023-08-08T00:00:00	2024-11-06T08:00:00	1	Precipitación	0
170560	7	Sololá	701	Sololá	2	El tablón	8	Agosto	2023-08-08T00:00:00	2024-11-06T08:00:00	8	Radiación solar	199
170561	7	Sololá	701	Sololá	2	El tablón	8	Agosto	2023-08-08T00:00:00	2024-11-06T09:00:00	2	Temperatura media	16.4
170562	7	Sololá	701	Sololá	2	El tablón	8	Agosto	2023-08-08T00:00:00	2024-11-06T09:00:00	4	Temperatura máxima	16.7
170563	7	Sololá	701	Sololá	2	El tablón	8	Agosto	2023-08-08T00:00:00	2024-11-06T09:00:00	3	Temperatura mínima	15.9
170564	7	Sololá	701	Sololá	2	El tablón	8	Agosto	2023-08-08T00:00:00	2024-11-06T09:00:00	5	Humedad	79
170565	7	Sololá	701	Sololá	2	El tablón	8	Agosto	2023-08-08T00:00:00	2024-11-06T09:00:00	6	Velocidad del viento	11.3
170566	7	Sololá	701	Sololá	2	El tablón	8	Agosto	2023-08-08T00:00:00	2024-11-06T09:00:00	7	Dirección del viento	11.27
170567	7	Sololá	701	Sololá	2	El tablón	8	Agosto	2023-08-08T00:00:00	2024-11-06T09:00:00	1	Precipitación	0
170568	7	Sololá	701	Sololá	2	El tablón	8	Agosto	2023-08-08T00:00:00	2024-11-06T09:00:00	8	Radiación solar	232
170569	7	Sololá	701	Sololá	2	El tablón	8	Agosto	2023-08-08T00:00:00	2024-11-06T10:00:00	2	Temperatura media	19
170570	7	Sololá	701	Sololá	2	El tablón	8	Agosto	2023-08-08T00:00:00	2024-11-06T10:00:00	4	Temperatura máxima	19
170571	7	Sololá	701	Sololá	2	El tablón	8	Agosto	2023-08-08T00:00:00	2024-11-06T10:00:00	3	Temperatura mínima	16.4
170572	7	Sololá	701	Sololá	2	El tablón	8	Agosto	2023-08-08T00:00:00	2024-11-06T10:00:00	5	Humedad	72
170573	7	Sololá	701	Sololá	2	El tablón	8	Agosto	2023-08-08T00:00:00	2024-11-06T10:00:00	6	Velocidad del viento	12.9
170574	7	Sololá	701	Sololá	2	El tablón	8	Agosto	2023-08-08T00:00:00	2024-11-06T10:00:00	7	Dirección del viento	12.87
170575	7	Sololá	701	Sololá	2	El tablón	8	Agosto	2023-08-08T00:00:00	2024-11-06T10:00:00	1	Precipitación	0
170576	7	Sololá	701	Sololá	2	El tablón	8	Agosto	2023-08-08T00:00:00	2024-11-06T10:00:00	8	Radiación solar	675
170577	7	Sololá	701	Sololá	2	El tablón	8	Agosto	2023-08-08T00:00:00	2024-11-06T11:00:00	2	Temperatura media	19.3
170578	7	Sololá	701	Sololá	2	El tablón	8	Agosto	2023-08-08T00:00:00	2024-11-06T11:00:00	4	Temperatura máxima	19.5
170579	7	Sololá	701	Sololá	2	El tablón	8	Agosto	2023-08-08T00:00:00	2024-11-06T11:00:00	3	Temperatura mínima	18.9
170580	7	Sololá	701	Sololá	2	El tablón	8	Agosto	2023-08-08T00:00:00	2024-11-06T11:00:00	5	Humedad	72
170581	7	Sololá	701	Sololá	2	El tablón	8	Agosto	2023-08-08T00:00:00	2024-11-06T11:00:00	6	Velocidad del viento	12.9
170582	7	Sololá	701	Sololá	2	El tablón	8	Agosto	2023-08-08T00:00:00	2024-11-06T11:00:00	7	Dirección del viento	12.87
170583	7	Sololá	701	Sololá	2	El tablón	8	Agosto	2023-08-08T00:00:00	2024-11-06T11:00:00	1	Precipitación	0
170584	7	Sololá	701	Sololá	2	El tablón	8	Agosto	2023-08-08T00:00:00	2024-11-06T11:00:00	8	Radiación solar	933
170585	7	Sololá	701	Sololá	2	El tablón	8	Agosto	2023-08-08T00:00:00	2024-11-06T12:00:00	2	Temperatura media	19.8
170586	7	Sololá	701	Sololá	2	El tablón	8	Agosto	2023-08-08T00:00:00	2024-11-06T12:00:00	4	Temperatura máxima	19.8
170587	7	Sololá	701	Sololá	2	El tablón	8	Agosto	2023-08-08T00:00:00	2024-11-06T12:00:00	3	Temperatura mínima	18.9
170588	7	Sololá	701	Sololá	2	El tablón	8	Agosto	2023-08-08T00:00:00	2024-11-06T12:00:00	5	Humedad	68
170589	7	Sololá	701	Sololá	2	El tablón	8	Agosto	2023-08-08T00:00:00	2024-11-06T12:00:00	6	Velocidad del viento	12.9
170590	7	Sololá	701	Sololá	2	El tablón	8	Agosto	2023-08-08T00:00:00	2024-11-06T12:00:00	7	Dirección del viento	12.87
170591	7	Sololá	701	Sololá	2	El tablón	8	Agosto	2023-08-08T00:00:00	2024-11-06T12:00:00	1	Precipitación	0
170592	7	Sololá	701	Sololá	2	El tablón	8	Agosto	2023-08-08T00:00:00	2024-11-06T12:00:00	8	Radiación solar	892
170593	7	Sololá	701	Sololá	2	El tablón	8	Agosto	2023-08-08T00:00:00	2024-11-06T13:00:00	2	Temperatura media	21.1
170594	7	Sololá	701	Sololá	2	El tablón	8	Agosto	2023-08-08T00:00:00	2024-11-06T13:00:00	4	Temperatura máxima	21.1
170595	7	Sololá	701	Sololá	2	El tablón	8	Agosto	2023-08-08T00:00:00	2024-11-06T13:00:00	3	Temperatura mínima	19.8
170596	7	Sololá	701	Sololá	2	El tablón	8	Agosto	2023-08-08T00:00:00	2024-11-06T13:00:00	5	Humedad	66
170597	7	Sololá	701	Sololá	2	El tablón	8	Agosto	2023-08-08T00:00:00	2024-11-06T13:00:00	6	Velocidad del viento	9.7
170598	7	Sololá	701	Sololá	2	El tablón	8	Agosto	2023-08-08T00:00:00	2024-11-06T13:00:00	7	Dirección del viento	9.66
170599	7	Sololá	701	Sololá	2	El tablón	8	Agosto	2023-08-08T00:00:00	2024-11-06T13:00:00	1	Precipitación	0
170600	7	Sololá	701	Sololá	2	El tablón	8	Agosto	2023-08-08T00:00:00	2024-11-06T13:00:00	8	Radiación solar	988
170601	7	Sololá	701	Sololá	2	El tablón	8	Agosto	2023-08-08T00:00:00	2024-11-06T14:00:00	2	Temperatura media	20.8
170602	7	Sololá	701	Sololá	2	El tablón	8	Agosto	2023-08-08T00:00:00	2024-11-06T14:00:00	4	Temperatura máxima	21.5
170603	7	Sololá	701	Sololá	2	El tablón	8	Agosto	2023-08-08T00:00:00	2024-11-06T14:00:00	3	Temperatura mínima	20.6
170604	7	Sololá	701	Sololá	2	El tablón	8	Agosto	2023-08-08T00:00:00	2024-11-06T14:00:00	5	Humedad	62
170605	7	Sololá	701	Sololá	2	El tablón	8	Agosto	2023-08-08T00:00:00	2024-11-06T14:00:00	6	Velocidad del viento	8
170606	7	Sololá	701	Sololá	2	El tablón	8	Agosto	2023-08-08T00:00:00	2024-11-06T14:00:00	7	Dirección del viento	8.05
170607	7	Sololá	701	Sololá	2	El tablón	8	Agosto	2023-08-08T00:00:00	2024-11-06T14:00:00	1	Precipitación	0
170608	7	Sololá	701	Sololá	2	El tablón	8	Agosto	2023-08-08T00:00:00	2024-11-06T14:00:00	8	Radiación solar	761
170609	7	Sololá	701	Sololá	2	El tablón	8	Agosto	2023-08-08T00:00:00	2024-11-06T15:00:00	2	Temperatura media	19.9
170610	7	Sololá	701	Sololá	2	El tablón	8	Agosto	2023-08-08T00:00:00	2024-11-06T15:00:00	4	Temperatura máxima	20.8
170611	7	Sololá	701	Sololá	2	El tablón	8	Agosto	2023-08-08T00:00:00	2024-11-06T15:00:00	3	Temperatura mínima	19.5
170612	7	Sololá	701	Sololá	2	El tablón	8	Agosto	2023-08-08T00:00:00	2024-11-06T15:00:00	5	Humedad	79
170613	7	Sololá	701	Sololá	2	El tablón	8	Agosto	2023-08-08T00:00:00	2024-11-06T15:00:00	6	Velocidad del viento	6.4
170614	7	Sololá	701	Sololá	2	El tablón	8	Agosto	2023-08-08T00:00:00	2024-11-06T15:00:00	7	Dirección del viento	6.44
170615	7	Sololá	701	Sololá	2	El tablón	8	Agosto	2023-08-08T00:00:00	2024-11-06T15:00:00	1	Precipitación	0
170616	7	Sololá	701	Sololá	2	El tablón	8	Agosto	2023-08-08T00:00:00	2024-11-06T15:00:00	8	Radiación solar	511
170617	7	Sololá	701	Sololá	2	El tablón	8	Agosto	2023-08-08T00:00:00	2024-11-06T16:00:00	2	Temperatura media	20.1
170618	7	Sololá	701	Sololá	2	El tablón	8	Agosto	2023-08-08T00:00:00	2024-11-06T16:00:00	4	Temperatura máxima	20.8
170619	7	Sololá	701	Sololá	2	El tablón	8	Agosto	2023-08-08T00:00:00	2024-11-06T16:00:00	3	Temperatura mínima	19.7
170620	7	Sololá	701	Sololá	2	El tablón	8	Agosto	2023-08-08T00:00:00	2024-11-06T16:00:00	5	Humedad	75
170621	7	Sololá	701	Sololá	2	El tablón	8	Agosto	2023-08-08T00:00:00	2024-11-06T16:00:00	6	Velocidad del viento	4.8
170622	7	Sololá	701	Sololá	2	El tablón	8	Agosto	2023-08-08T00:00:00	2024-11-06T16:00:00	7	Dirección del viento	4.83
170623	7	Sololá	701	Sololá	2	El tablón	8	Agosto	2023-08-08T00:00:00	2024-11-06T16:00:00	1	Precipitación	0
170624	7	Sololá	701	Sololá	2	El tablón	8	Agosto	2023-08-08T00:00:00	2024-11-06T16:00:00	8	Radiación solar	550
170625	7	Sololá	701	Sololá	2	El tablón	8	Agosto	2023-08-08T00:00:00	2024-11-06T17:00:00	2	Temperatura media	19.3
170626	7	Sololá	701	Sololá	2	El tablón	8	Agosto	2023-08-08T00:00:00	2024-11-06T17:00:00	4	Temperatura máxima	20.4
170627	7	Sololá	701	Sololá	2	El tablón	8	Agosto	2023-08-08T00:00:00	2024-11-06T17:00:00	3	Temperatura mínima	18.6
170628	7	Sololá	701	Sololá	2	El tablón	8	Agosto	2023-08-08T00:00:00	2024-11-06T17:00:00	5	Humedad	65
170629	7	Sololá	701	Sololá	2	El tablón	8	Agosto	2023-08-08T00:00:00	2024-11-06T17:00:00	6	Velocidad del viento	3.2
170630	7	Sololá	701	Sololá	2	El tablón	8	Agosto	2023-08-08T00:00:00	2024-11-06T17:00:00	7	Dirección del viento	3.22
170631	7	Sololá	701	Sololá	2	El tablón	8	Agosto	2023-08-08T00:00:00	2024-11-06T17:00:00	1	Precipitación	0
170632	7	Sololá	701	Sololá	2	El tablón	8	Agosto	2023-08-08T00:00:00	2024-11-06T17:00:00	8	Radiación solar	246
170633	7	Sololá	701	Sololá	2	El tablón	8	Agosto	2023-08-08T00:00:00	2024-11-06T18:00:00	2	Temperatura media	17.7
170634	7	Sololá	701	Sololá	2	El tablón	8	Agosto	2023-08-08T00:00:00	2024-11-06T18:00:00	4	Temperatura máxima	19.8
170635	7	Sololá	701	Sololá	2	El tablón	8	Agosto	2023-08-08T00:00:00	2024-11-06T18:00:00	3	Temperatura mínima	17.7
170636	7	Sololá	701	Sololá	2	El tablón	8	Agosto	2023-08-08T00:00:00	2024-11-06T18:00:00	5	Humedad	65
170637	7	Sololá	701	Sololá	2	El tablón	8	Agosto	2023-08-08T00:00:00	2024-11-06T18:00:00	6	Velocidad del viento	6.4
170638	7	Sololá	701	Sololá	2	El tablón	8	Agosto	2023-08-08T00:00:00	2024-11-06T18:00:00	7	Dirección del viento	6.44
170639	7	Sololá	701	Sololá	2	El tablón	8	Agosto	2023-08-08T00:00:00	2024-11-06T18:00:00	1	Precipitación	0
170640	7	Sololá	701	Sololá	2	El tablón	8	Agosto	2023-08-08T00:00:00	2024-11-06T18:00:00	8	Radiación solar	163
170641	7	Sololá	701	Sololá	2	El tablón	8	Agosto	2023-08-08T00:00:00	2024-11-06T19:00:00	2	Temperatura media	15.9
170642	7	Sololá	701	Sololá	2	El tablón	8	Agosto	2023-08-08T00:00:00	2024-11-06T19:00:00	4	Temperatura máxima	17.7
170643	7	Sololá	701	Sololá	2	El tablón	8	Agosto	2023-08-08T00:00:00	2024-11-06T19:00:00	3	Temperatura mínima	15.9
170644	7	Sololá	701	Sololá	2	El tablón	8	Agosto	2023-08-08T00:00:00	2024-11-06T19:00:00	5	Humedad	86
170645	7	Sololá	701	Sololá	2	El tablón	8	Agosto	2023-08-08T00:00:00	2024-11-06T19:00:00	6	Velocidad del viento	3.2
170646	7	Sololá	701	Sololá	2	El tablón	8	Agosto	2023-08-08T00:00:00	2024-11-06T19:00:00	7	Dirección del viento	3.22
170647	7	Sololá	701	Sololá	2	El tablón	8	Agosto	2023-08-08T00:00:00	2024-11-06T19:00:00	1	Precipitación	0
170648	7	Sololá	701	Sololá	2	El tablón	8	Agosto	2023-08-08T00:00:00	2024-11-06T19:00:00	8	Radiación solar	0
170649	7	Sololá	701	Sololá	2	El tablón	8	Agosto	2023-08-08T00:00:00	2024-11-06T20:00:00	2	Temperatura media	15.3
170650	7	Sololá	701	Sololá	2	El tablón	8	Agosto	2023-08-08T00:00:00	2024-11-06T20:00:00	4	Temperatura máxima	15.9
170651	7	Sololá	701	Sololá	2	El tablón	8	Agosto	2023-08-08T00:00:00	2024-11-06T20:00:00	3	Temperatura mínima	15.3
170652	7	Sololá	701	Sololá	2	El tablón	8	Agosto	2023-08-08T00:00:00	2024-11-06T20:00:00	5	Humedad	81
170653	7	Sololá	701	Sololá	2	El tablón	8	Agosto	2023-08-08T00:00:00	2024-11-06T20:00:00	6	Velocidad del viento	1.6
170654	7	Sololá	701	Sololá	2	El tablón	8	Agosto	2023-08-08T00:00:00	2024-11-06T20:00:00	7	Dirección del viento	1.61
170655	7	Sololá	701	Sololá	2	El tablón	8	Agosto	2023-08-08T00:00:00	2024-11-06T20:00:00	1	Precipitación	0
170656	7	Sololá	701	Sololá	2	El tablón	8	Agosto	2023-08-08T00:00:00	2024-11-06T20:00:00	8	Radiación solar	0
170657	7	Sololá	701	Sololá	2	El tablón	8	Agosto	2023-08-08T00:00:00	2024-11-06T21:00:00	2	Temperatura media	14.2
170658	7	Sololá	701	Sololá	2	El tablón	8	Agosto	2023-08-08T00:00:00	2024-11-06T21:00:00	4	Temperatura máxima	15.2
170659	7	Sololá	701	Sololá	2	El tablón	8	Agosto	2023-08-08T00:00:00	2024-11-06T21:00:00	3	Temperatura mínima	14.2
170660	7	Sololá	701	Sololá	2	El tablón	8	Agosto	2023-08-08T00:00:00	2024-11-06T21:00:00	5	Humedad	87
170661	7	Sololá	701	Sololá	2	El tablón	8	Agosto	2023-08-08T00:00:00	2024-11-06T21:00:00	6	Velocidad del viento	1.6
170662	7	Sololá	701	Sololá	2	El tablón	8	Agosto	2023-08-08T00:00:00	2024-11-06T21:00:00	7	Dirección del viento	1.61
170663	7	Sololá	701	Sololá	2	El tablón	8	Agosto	2023-08-08T00:00:00	2024-11-06T21:00:00	1	Precipitación	0
170664	7	Sololá	701	Sololá	2	El tablón	8	Agosto	2023-08-08T00:00:00	2024-11-06T21:00:00	8	Radiación solar	0
170665	7	Sololá	701	Sololá	2	El tablón	8	Agosto	2023-08-08T00:00:00	2024-11-06T22:00:00	2	Temperatura media	14.5
170666	7	Sololá	701	Sololá	2	El tablón	8	Agosto	2023-08-08T00:00:00	2024-11-06T22:00:00	4	Temperatura máxima	14.6
170667	7	Sololá	701	Sololá	2	El tablón	8	Agosto	2023-08-08T00:00:00	2024-11-06T22:00:00	3	Temperatura mínima	14.2
170668	7	Sololá	701	Sololá	2	El tablón	8	Agosto	2023-08-08T00:00:00	2024-11-06T22:00:00	5	Humedad	85
170669	7	Sololá	701	Sololá	2	El tablón	8	Agosto	2023-08-08T00:00:00	2024-11-06T22:00:00	6	Velocidad del viento	4.8
170670	7	Sololá	701	Sololá	2	El tablón	8	Agosto	2023-08-08T00:00:00	2024-11-06T22:00:00	7	Dirección del viento	4.83
170671	7	Sololá	701	Sololá	2	El tablón	8	Agosto	2023-08-08T00:00:00	2024-11-06T22:00:00	1	Precipitación	0
170672	7	Sololá	701	Sololá	2	El tablón	8	Agosto	2023-08-08T00:00:00	2024-11-06T22:00:00	8	Radiación solar	0
170673	7	Sololá	701	Sololá	2	El tablón	8	Agosto	2023-08-08T00:00:00	2024-11-06T23:00:00	2	Temperatura media	14.3
170674	7	Sololá	701	Sololá	2	El tablón	8	Agosto	2023-08-08T00:00:00	2024-11-06T23:00:00	4	Temperatura máxima	14.7
170675	7	Sololá	701	Sololá	2	El tablón	8	Agosto	2023-08-08T00:00:00	2024-11-06T23:00:00	3	Temperatura mínima	14
170676	7	Sololá	701	Sololá	2	El tablón	8	Agosto	2023-08-08T00:00:00	2024-11-06T23:00:00	5	Humedad	86
170677	7	Sololá	701	Sololá	2	El tablón	8	Agosto	2023-08-08T00:00:00	2024-11-06T23:00:00	6	Velocidad del viento	6.4
170678	7	Sololá	701	Sololá	2	El tablón	8	Agosto	2023-08-08T00:00:00	2024-11-06T23:00:00	7	Dirección del viento	6.44
170679	7	Sololá	701	Sololá	2	El tablón	8	Agosto	2023-08-08T00:00:00	2024-11-06T23:00:00	1	Precipitación	0
170680	7	Sololá	701	Sololá	2	El tablón	8	Agosto	2023-08-08T00:00:00	2024-11-06T23:00:00	8	Radiación solar	0
170681	7	Sololá	701	Sololá	2	El tablón	8	Agosto	2023-09-08T00:00:00	2024-11-06T00:00:00	2	Temperatura media	14
170682	7	Sololá	701	Sololá	2	El tablón	8	Agosto	2023-09-08T00:00:00	2024-11-06T00:00:00	4	Temperatura máxima	14.3
170683	7	Sololá	701	Sololá	2	El tablón	8	Agosto	2023-09-08T00:00:00	2024-11-06T00:00:00	3	Temperatura mínima	14
170684	7	Sololá	701	Sololá	2	El tablón	8	Agosto	2023-09-08T00:00:00	2024-11-06T00:00:00	5	Humedad	86
170685	7	Sololá	701	Sololá	2	El tablón	8	Agosto	2023-09-08T00:00:00	2024-11-06T00:00:00	6	Velocidad del viento	4.8
170686	7	Sololá	701	Sololá	2	El tablón	8	Agosto	2023-09-08T00:00:00	2024-11-06T00:00:00	7	Dirección del viento	4.83
170687	7	Sololá	701	Sololá	2	El tablón	8	Agosto	2023-09-08T00:00:00	2024-11-06T00:00:00	1	Precipitación	0
170688	7	Sololá	701	Sololá	2	El tablón	8	Agosto	2023-09-08T00:00:00	2024-11-06T00:00:00	8	Radiación solar	0
170689	7	Sololá	701	Sololá	2	El tablón	8	Agosto	2023-09-08T00:00:00	2024-11-06T01:00:00	2	Temperatura media	14.1
170690	7	Sololá	701	Sololá	2	El tablón	8	Agosto	2023-09-08T00:00:00	2024-11-06T01:00:00	4	Temperatura máxima	14.1
170691	7	Sololá	701	Sololá	2	El tablón	8	Agosto	2023-09-08T00:00:00	2024-11-06T01:00:00	3	Temperatura mínima	13.8
170692	7	Sololá	701	Sololá	2	El tablón	8	Agosto	2023-09-08T00:00:00	2024-11-06T01:00:00	5	Humedad	86
170693	7	Sololá	701	Sololá	2	El tablón	8	Agosto	2023-09-08T00:00:00	2024-11-06T01:00:00	6	Velocidad del viento	4.8
170694	7	Sololá	701	Sololá	2	El tablón	8	Agosto	2023-09-08T00:00:00	2024-11-06T01:00:00	7	Dirección del viento	4.83
170695	7	Sololá	701	Sololá	2	El tablón	8	Agosto	2023-09-08T00:00:00	2024-11-06T01:00:00	1	Precipitación	0
170696	7	Sololá	701	Sololá	2	El tablón	8	Agosto	2023-09-08T00:00:00	2024-11-06T01:00:00	8	Radiación solar	0
170697	7	Sololá	701	Sololá	2	El tablón	8	Agosto	2023-09-08T00:00:00	2024-11-06T02:00:00	2	Temperatura media	13.4
170698	7	Sololá	701	Sololá	2	El tablón	8	Agosto	2023-09-08T00:00:00	2024-11-06T02:00:00	4	Temperatura máxima	14.1
170699	7	Sololá	701	Sololá	2	El tablón	8	Agosto	2023-09-08T00:00:00	2024-11-06T02:00:00	3	Temperatura mínima	13.4
170700	7	Sololá	701	Sololá	2	El tablón	8	Agosto	2023-09-08T00:00:00	2024-11-06T02:00:00	5	Humedad	86
170701	7	Sololá	701	Sololá	2	El tablón	8	Agosto	2023-09-08T00:00:00	2024-11-06T02:00:00	6	Velocidad del viento	6.4
170702	7	Sololá	701	Sololá	2	El tablón	8	Agosto	2023-09-08T00:00:00	2024-11-06T02:00:00	7	Dirección del viento	6.44
170703	7	Sololá	701	Sololá	2	El tablón	8	Agosto	2023-09-08T00:00:00	2024-11-06T02:00:00	1	Precipitación	0
170704	7	Sololá	701	Sololá	2	El tablón	8	Agosto	2023-09-08T00:00:00	2024-11-06T02:00:00	8	Radiación solar	0
170705	7	Sololá	701	Sololá	2	El tablón	8	Agosto	2023-09-08T00:00:00	2024-11-06T03:00:00	2	Temperatura media	13.4
170706	7	Sololá	701	Sololá	2	El tablón	8	Agosto	2023-09-08T00:00:00	2024-11-06T03:00:00	4	Temperatura máxima	13.4
170707	7	Sololá	701	Sololá	2	El tablón	8	Agosto	2023-09-08T00:00:00	2024-11-06T03:00:00	3	Temperatura mínima	12.5
170708	7	Sololá	701	Sololá	2	El tablón	8	Agosto	2023-09-08T00:00:00	2024-11-06T03:00:00	5	Humedad	85
170709	7	Sololá	701	Sololá	2	El tablón	8	Agosto	2023-09-08T00:00:00	2024-11-06T03:00:00	6	Velocidad del viento	3.2
170710	7	Sololá	701	Sololá	2	El tablón	8	Agosto	2023-09-08T00:00:00	2024-11-06T03:00:00	7	Dirección del viento	3.22
170711	7	Sololá	701	Sololá	2	El tablón	8	Agosto	2023-09-08T00:00:00	2024-11-06T03:00:00	1	Precipitación	0
170712	7	Sololá	701	Sololá	2	El tablón	8	Agosto	2023-09-08T00:00:00	2024-11-06T03:00:00	8	Radiación solar	0
170713	7	Sololá	701	Sololá	2	El tablón	8	Agosto	2023-09-08T00:00:00	2024-11-06T04:00:00	2	Temperatura media	13.4
170714	7	Sololá	701	Sololá	2	El tablón	8	Agosto	2023-09-08T00:00:00	2024-11-06T04:00:00	4	Temperatura máxima	13.5
170715	7	Sololá	701	Sololá	2	El tablón	8	Agosto	2023-09-08T00:00:00	2024-11-06T04:00:00	3	Temperatura mínima	13.1
170716	7	Sololá	701	Sololá	2	El tablón	8	Agosto	2023-09-08T00:00:00	2024-11-06T04:00:00	5	Humedad	87
170717	7	Sololá	701	Sololá	2	El tablón	8	Agosto	2023-09-08T00:00:00	2024-11-06T04:00:00	6	Velocidad del viento	6.4
170718	7	Sololá	701	Sololá	2	El tablón	8	Agosto	2023-09-08T00:00:00	2024-11-06T04:00:00	7	Dirección del viento	6.44
170719	7	Sololá	701	Sololá	2	El tablón	8	Agosto	2023-09-08T00:00:00	2024-11-06T04:00:00	1	Precipitación	0
170720	7	Sololá	701	Sololá	2	El tablón	8	Agosto	2023-09-08T00:00:00	2024-11-06T04:00:00	8	Radiación solar	0
170721	7	Sololá	701	Sololá	2	El tablón	8	Agosto	2023-09-08T00:00:00	2024-11-06T05:00:00	2	Temperatura media	13.4
170722	7	Sololá	701	Sololá	2	El tablón	8	Agosto	2023-09-08T00:00:00	2024-11-06T05:00:00	4	Temperatura máxima	13.6
170723	7	Sololá	701	Sololá	2	El tablón	8	Agosto	2023-09-08T00:00:00	2024-11-06T05:00:00	3	Temperatura mínima	13.4
170724	7	Sololá	701	Sololá	2	El tablón	8	Agosto	2023-09-08T00:00:00	2024-11-06T05:00:00	5	Humedad	85
170725	7	Sololá	701	Sololá	2	El tablón	8	Agosto	2023-09-08T00:00:00	2024-11-06T05:00:00	6	Velocidad del viento	6.4
170726	7	Sololá	701	Sololá	2	El tablón	8	Agosto	2023-09-08T00:00:00	2024-11-06T05:00:00	7	Dirección del viento	6.44
170727	7	Sololá	701	Sololá	2	El tablón	8	Agosto	2023-09-08T00:00:00	2024-11-06T05:00:00	1	Precipitación	0
170728	7	Sololá	701	Sololá	2	El tablón	8	Agosto	2023-09-08T00:00:00	2024-11-06T05:00:00	8	Radiación solar	0
170729	7	Sololá	701	Sololá	2	El tablón	8	Agosto	2023-09-08T00:00:00	2024-11-06T06:00:00	2	Temperatura media	12.9
170730	7	Sololá	701	Sololá	2	El tablón	8	Agosto	2023-09-08T00:00:00	2024-11-06T06:00:00	4	Temperatura máxima	13.4
170731	7	Sololá	701	Sololá	2	El tablón	8	Agosto	2023-09-08T00:00:00	2024-11-06T06:00:00	3	Temperatura mínima	12.8
170732	7	Sololá	701	Sololá	2	El tablón	8	Agosto	2023-09-08T00:00:00	2024-11-06T06:00:00	5	Humedad	87
170733	7	Sololá	701	Sololá	2	El tablón	8	Agosto	2023-09-08T00:00:00	2024-11-06T06:00:00	6	Velocidad del viento	4.8
170734	7	Sololá	701	Sololá	2	El tablón	8	Agosto	2023-09-08T00:00:00	2024-11-06T06:00:00	7	Dirección del viento	4.83
170735	7	Sololá	701	Sololá	2	El tablón	8	Agosto	2023-09-08T00:00:00	2024-11-06T06:00:00	1	Precipitación	0
170736	7	Sololá	701	Sololá	2	El tablón	8	Agosto	2023-09-08T00:00:00	2024-11-06T06:00:00	8	Radiación solar	0
170737	7	Sololá	701	Sololá	2	El tablón	8	Agosto	2023-09-08T00:00:00	2024-11-06T07:00:00	2	Temperatura media	14.8
170738	7	Sololá	701	Sololá	2	El tablón	8	Agosto	2023-09-08T00:00:00	2024-11-06T07:00:00	4	Temperatura máxima	14.9
170739	7	Sololá	701	Sololá	2	El tablón	8	Agosto	2023-09-08T00:00:00	2024-11-06T07:00:00	3	Temperatura mínima	12.9
170740	7	Sololá	701	Sololá	2	El tablón	8	Agosto	2023-09-08T00:00:00	2024-11-06T07:00:00	5	Humedad	81
170741	7	Sololá	701	Sololá	2	El tablón	8	Agosto	2023-09-08T00:00:00	2024-11-06T07:00:00	6	Velocidad del viento	6.4
170742	7	Sololá	701	Sololá	2	El tablón	8	Agosto	2023-09-08T00:00:00	2024-11-06T07:00:00	7	Dirección del viento	6.44
170743	7	Sololá	701	Sololá	2	El tablón	8	Agosto	2023-09-08T00:00:00	2024-11-06T07:00:00	1	Precipitación	0
170744	7	Sololá	701	Sololá	2	El tablón	8	Agosto	2023-09-08T00:00:00	2024-11-06T07:00:00	8	Radiación solar	81
170745	7	Sololá	701	Sololá	2	El tablón	8	Agosto	2023-09-08T00:00:00	2024-11-06T08:00:00	2	Temperatura media	17.1
170746	7	Sololá	701	Sololá	2	El tablón	8	Agosto	2023-09-08T00:00:00	2024-11-06T08:00:00	4	Temperatura máxima	17.1
170747	7	Sololá	701	Sololá	2	El tablón	8	Agosto	2023-09-08T00:00:00	2024-11-06T08:00:00	3	Temperatura mínima	14.8
170748	7	Sololá	701	Sololá	2	El tablón	8	Agosto	2023-09-08T00:00:00	2024-11-06T08:00:00	5	Humedad	65
170749	7	Sololá	701	Sololá	2	El tablón	8	Agosto	2023-09-08T00:00:00	2024-11-06T08:00:00	6	Velocidad del viento	8
170750	7	Sololá	701	Sololá	2	El tablón	8	Agosto	2023-09-08T00:00:00	2024-11-06T08:00:00	7	Dirección del viento	8.05
170751	7	Sololá	701	Sololá	2	El tablón	8	Agosto	2023-09-08T00:00:00	2024-11-06T08:00:00	1	Precipitación	0
170752	7	Sololá	701	Sololá	2	El tablón	8	Agosto	2023-09-08T00:00:00	2024-11-06T08:00:00	8	Radiación solar	344
170753	7	Sololá	701	Sololá	2	El tablón	8	Agosto	2023-09-08T00:00:00	2024-11-06T09:00:00	2	Temperatura media	18.6
170754	7	Sololá	701	Sololá	2	El tablón	8	Agosto	2023-09-08T00:00:00	2024-11-06T09:00:00	4	Temperatura máxima	18.6
170755	7	Sololá	701	Sololá	2	El tablón	8	Agosto	2023-09-08T00:00:00	2024-11-06T09:00:00	3	Temperatura mínima	17.1
170756	7	Sololá	701	Sololá	2	El tablón	8	Agosto	2023-09-08T00:00:00	2024-11-06T09:00:00	5	Humedad	65
170757	7	Sololá	701	Sololá	2	El tablón	8	Agosto	2023-09-08T00:00:00	2024-11-06T09:00:00	6	Velocidad del viento	6.4
170758	7	Sololá	701	Sololá	2	El tablón	8	Agosto	2023-09-08T00:00:00	2024-11-06T09:00:00	7	Dirección del viento	6.44
170759	7	Sololá	701	Sololá	2	El tablón	8	Agosto	2023-09-08T00:00:00	2024-11-06T09:00:00	1	Precipitación	0
170760	7	Sololá	701	Sololá	2	El tablón	8	Agosto	2023-09-08T00:00:00	2024-11-06T09:00:00	8	Radiación solar	550
170761	7	Sololá	701	Sololá	2	El tablón	8	Agosto	2023-09-08T00:00:00	2024-11-06T10:00:00	2	Temperatura media	19.4
170762	7	Sololá	701	Sololá	2	El tablón	8	Agosto	2023-09-08T00:00:00	2024-11-06T10:00:00	4	Temperatura máxima	19.6
170763	7	Sololá	701	Sololá	2	El tablón	8	Agosto	2023-09-08T00:00:00	2024-11-06T10:00:00	3	Temperatura mínima	18.6
170764	7	Sololá	701	Sololá	2	El tablón	8	Agosto	2023-09-08T00:00:00	2024-11-06T10:00:00	5	Humedad	62
170765	7	Sololá	701	Sololá	2	El tablón	8	Agosto	2023-09-08T00:00:00	2024-11-06T10:00:00	6	Velocidad del viento	6.4
170766	7	Sololá	701	Sololá	2	El tablón	8	Agosto	2023-09-08T00:00:00	2024-11-06T10:00:00	7	Dirección del viento	6.44
170767	7	Sololá	701	Sololá	2	El tablón	8	Agosto	2023-09-08T00:00:00	2024-11-06T10:00:00	1	Precipitación	0
170768	7	Sololá	701	Sololá	2	El tablón	8	Agosto	2023-09-08T00:00:00	2024-11-06T10:00:00	8	Radiación solar	605
170769	7	Sololá	701	Sololá	2	El tablón	8	Agosto	2023-09-08T00:00:00	2024-11-06T11:00:00	2	Temperatura media	20
170770	7	Sololá	701	Sololá	2	El tablón	8	Agosto	2023-09-08T00:00:00	2024-11-06T11:00:00	4	Temperatura máxima	20.8
170771	7	Sololá	701	Sololá	2	El tablón	8	Agosto	2023-09-08T00:00:00	2024-11-06T11:00:00	3	Temperatura mínima	19.3
170772	7	Sololá	701	Sololá	2	El tablón	8	Agosto	2023-09-08T00:00:00	2024-11-06T11:00:00	5	Humedad	68
170773	7	Sololá	701	Sololá	2	El tablón	8	Agosto	2023-09-08T00:00:00	2024-11-06T11:00:00	6	Velocidad del viento	4.8
170774	7	Sololá	701	Sololá	2	El tablón	8	Agosto	2023-09-08T00:00:00	2024-11-06T11:00:00	7	Dirección del viento	4.83
170775	7	Sololá	701	Sololá	2	El tablón	8	Agosto	2023-09-08T00:00:00	2024-11-06T11:00:00	1	Precipitación	0
170776	7	Sololá	701	Sololá	2	El tablón	8	Agosto	2023-09-08T00:00:00	2024-11-06T11:00:00	8	Radiación solar	914
170777	7	Sololá	701	Sololá	2	El tablón	8	Agosto	2023-09-08T00:00:00	2024-11-06T12:00:00	2	Temperatura media	20.8
170778	7	Sololá	701	Sololá	2	El tablón	8	Agosto	2023-09-08T00:00:00	2024-11-06T12:00:00	4	Temperatura máxima	21.2
170779	7	Sololá	701	Sololá	2	El tablón	8	Agosto	2023-09-08T00:00:00	2024-11-06T12:00:00	3	Temperatura mínima	19.6
170780	7	Sololá	701	Sololá	2	El tablón	8	Agosto	2023-09-08T00:00:00	2024-11-06T12:00:00	5	Humedad	69
170781	7	Sololá	701	Sololá	2	El tablón	8	Agosto	2023-09-08T00:00:00	2024-11-06T12:00:00	6	Velocidad del viento	6.4
170782	7	Sololá	701	Sololá	2	El tablón	8	Agosto	2023-09-08T00:00:00	2024-11-06T12:00:00	7	Dirección del viento	6.44
170783	7	Sololá	701	Sololá	2	El tablón	8	Agosto	2023-09-08T00:00:00	2024-11-06T12:00:00	1	Precipitación	0
170784	7	Sololá	701	Sololá	2	El tablón	8	Agosto	2023-09-08T00:00:00	2024-11-06T12:00:00	8	Radiación solar	826
170785	7	Sololá	701	Sololá	2	El tablón	8	Agosto	2023-09-08T00:00:00	2024-11-06T13:00:00	2	Temperatura media	19.7
170786	7	Sololá	701	Sololá	2	El tablón	8	Agosto	2023-09-08T00:00:00	2024-11-06T13:00:00	4	Temperatura máxima	20.8
170787	7	Sololá	701	Sololá	2	El tablón	8	Agosto	2023-09-08T00:00:00	2024-11-06T13:00:00	3	Temperatura mínima	19.7
170788	7	Sololá	701	Sololá	2	El tablón	8	Agosto	2023-09-08T00:00:00	2024-11-06T13:00:00	5	Humedad	81
170789	7	Sololá	701	Sololá	2	El tablón	8	Agosto	2023-09-08T00:00:00	2024-11-06T13:00:00	6	Velocidad del viento	6.4
170790	7	Sololá	701	Sololá	2	El tablón	8	Agosto	2023-09-08T00:00:00	2024-11-06T13:00:00	7	Dirección del viento	6.44
170791	7	Sololá	701	Sololá	2	El tablón	8	Agosto	2023-09-08T00:00:00	2024-11-06T13:00:00	1	Precipitación	0
170792	7	Sololá	701	Sololá	2	El tablón	8	Agosto	2023-09-08T00:00:00	2024-11-06T13:00:00	8	Radiación solar	613
170793	7	Sololá	701	Sololá	2	El tablón	8	Agosto	2023-09-08T00:00:00	2024-11-06T14:00:00	2	Temperatura media	19
170794	7	Sololá	701	Sololá	2	El tablón	8	Agosto	2023-09-08T00:00:00	2024-11-06T14:00:00	4	Temperatura máxima	19.7
170795	7	Sololá	701	Sololá	2	El tablón	8	Agosto	2023-09-08T00:00:00	2024-11-06T14:00:00	3	Temperatura mínima	19
170796	7	Sololá	701	Sololá	2	El tablón	8	Agosto	2023-09-08T00:00:00	2024-11-06T14:00:00	5	Humedad	82
170797	7	Sololá	701	Sololá	2	El tablón	8	Agosto	2023-09-08T00:00:00	2024-11-06T14:00:00	6	Velocidad del viento	9.7
170798	7	Sololá	701	Sololá	2	El tablón	8	Agosto	2023-09-08T00:00:00	2024-11-06T14:00:00	7	Dirección del viento	9.66
170799	7	Sololá	701	Sololá	2	El tablón	8	Agosto	2023-09-08T00:00:00	2024-11-06T14:00:00	1	Precipitación	0
170800	7	Sololá	701	Sololá	2	El tablón	8	Agosto	2023-09-08T00:00:00	2024-11-06T14:00:00	8	Radiación solar	702
170801	7	Sololá	701	Sololá	2	El tablón	8	Agosto	2023-09-08T00:00:00	2024-11-06T15:00:00	2	Temperatura media	16.2
170802	7	Sololá	701	Sololá	2	El tablón	8	Agosto	2023-09-08T00:00:00	2024-11-06T15:00:00	4	Temperatura máxima	19
170803	7	Sololá	701	Sololá	2	El tablón	8	Agosto	2023-09-08T00:00:00	2024-11-06T15:00:00	3	Temperatura mínima	16
170804	7	Sololá	701	Sololá	2	El tablón	8	Agosto	2023-09-08T00:00:00	2024-11-06T15:00:00	5	Humedad	88
170805	7	Sololá	701	Sololá	2	El tablón	8	Agosto	2023-09-08T00:00:00	2024-11-06T15:00:00	6	Velocidad del viento	3.2
170806	7	Sololá	701	Sololá	2	El tablón	8	Agosto	2023-09-08T00:00:00	2024-11-06T15:00:00	7	Dirección del viento	3.22
170807	7	Sololá	701	Sololá	2	El tablón	8	Agosto	2023-09-08T00:00:00	2024-11-06T15:00:00	1	Precipitación	1
170808	7	Sololá	701	Sololá	2	El tablón	8	Agosto	2023-09-08T00:00:00	2024-11-06T15:00:00	8	Radiación solar	88
170809	7	Sololá	701	Sololá	2	El tablón	8	Agosto	2023-09-08T00:00:00	2024-11-06T16:00:00	2	Temperatura media	16.2
170810	7	Sololá	701	Sololá	2	El tablón	8	Agosto	2023-09-08T00:00:00	2024-11-06T16:00:00	4	Temperatura máxima	16.4
170811	7	Sololá	701	Sololá	2	El tablón	8	Agosto	2023-09-08T00:00:00	2024-11-06T16:00:00	3	Temperatura mínima	15.1
170812	7	Sololá	701	Sololá	2	El tablón	8	Agosto	2023-09-08T00:00:00	2024-11-06T16:00:00	5	Humedad	87
170813	7	Sololá	701	Sololá	2	El tablón	8	Agosto	2023-09-08T00:00:00	2024-11-06T16:00:00	6	Velocidad del viento	3.2
170814	7	Sololá	701	Sololá	2	El tablón	8	Agosto	2023-09-08T00:00:00	2024-11-06T16:00:00	7	Dirección del viento	3.22
170815	7	Sololá	701	Sololá	2	El tablón	8	Agosto	2023-09-08T00:00:00	2024-11-06T16:00:00	1	Precipitación	9
170816	7	Sololá	701	Sololá	2	El tablón	8	Agosto	2023-09-08T00:00:00	2024-11-06T16:00:00	8	Radiación solar	158
170817	7	Sololá	701	Sololá	2	El tablón	8	Agosto	2023-09-08T00:00:00	2024-11-06T17:00:00	2	Temperatura media	15.7
170818	7	Sololá	701	Sololá	2	El tablón	8	Agosto	2023-09-08T00:00:00	2024-11-06T17:00:00	4	Temperatura máxima	16.6
170819	7	Sololá	701	Sololá	2	El tablón	8	Agosto	2023-09-08T00:00:00	2024-11-06T17:00:00	3	Temperatura mínima	15.7
170820	7	Sololá	701	Sololá	2	El tablón	8	Agosto	2023-09-08T00:00:00	2024-11-06T17:00:00	5	Humedad	87
170821	7	Sololá	701	Sololá	2	El tablón	8	Agosto	2023-09-08T00:00:00	2024-11-06T17:00:00	6	Velocidad del viento	3.2
170822	7	Sololá	701	Sololá	2	El tablón	8	Agosto	2023-09-08T00:00:00	2024-11-06T17:00:00	7	Dirección del viento	3.22
170823	7	Sololá	701	Sololá	2	El tablón	8	Agosto	2023-09-08T00:00:00	2024-11-06T17:00:00	1	Precipitación	0
170824	7	Sololá	701	Sololá	2	El tablón	8	Agosto	2023-09-08T00:00:00	2024-11-06T17:00:00	8	Radiación solar	159
170825	7	Sololá	701	Sololá	2	El tablón	8	Agosto	2023-09-08T00:00:00	2024-11-06T18:00:00	2	Temperatura media	16.1
170826	7	Sololá	701	Sololá	2	El tablón	8	Agosto	2023-09-08T00:00:00	2024-11-06T18:00:00	4	Temperatura máxima	16.1
170827	7	Sololá	701	Sololá	2	El tablón	8	Agosto	2023-09-08T00:00:00	2024-11-06T18:00:00	3	Temperatura mínima	15.6
170828	7	Sololá	701	Sololá	2	El tablón	8	Agosto	2023-09-08T00:00:00	2024-11-06T18:00:00	5	Humedad	88
170829	7	Sololá	701	Sololá	2	El tablón	8	Agosto	2023-09-08T00:00:00	2024-11-06T18:00:00	6	Velocidad del viento	1.6
170830	7	Sololá	701	Sololá	2	El tablón	8	Agosto	2023-09-08T00:00:00	2024-11-06T18:00:00	7	Dirección del viento	1.61
170831	7	Sololá	701	Sololá	2	El tablón	8	Agosto	2023-09-08T00:00:00	2024-11-06T18:00:00	1	Precipitación	0.6
170832	7	Sololá	701	Sololá	2	El tablón	8	Agosto	2023-09-08T00:00:00	2024-11-06T18:00:00	8	Radiación solar	131
170833	7	Sololá	701	Sololá	2	El tablón	8	Agosto	2023-09-08T00:00:00	2024-11-06T19:00:00	2	Temperatura media	15.2
170834	7	Sololá	701	Sololá	2	El tablón	8	Agosto	2023-09-08T00:00:00	2024-11-06T19:00:00	4	Temperatura máxima	16.1
170835	7	Sololá	701	Sololá	2	El tablón	8	Agosto	2023-09-08T00:00:00	2024-11-06T19:00:00	3	Temperatura mínima	15.2
170836	7	Sololá	701	Sololá	2	El tablón	8	Agosto	2023-09-08T00:00:00	2024-11-06T19:00:00	5	Humedad	88
170837	7	Sololá	701	Sololá	2	El tablón	8	Agosto	2023-09-08T00:00:00	2024-11-06T19:00:00	6	Velocidad del viento	1.6
170838	7	Sololá	701	Sololá	2	El tablón	8	Agosto	2023-09-08T00:00:00	2024-11-06T19:00:00	7	Dirección del viento	1.61
170839	7	Sololá	701	Sololá	2	El tablón	8	Agosto	2023-09-08T00:00:00	2024-11-06T19:00:00	1	Precipitación	0
170840	7	Sololá	701	Sololá	2	El tablón	8	Agosto	2023-09-08T00:00:00	2024-11-06T19:00:00	8	Radiación solar	0
170841	7	Sololá	701	Sololá	2	El tablón	8	Agosto	2023-09-08T00:00:00	2024-11-06T20:00:00	2	Temperatura media	14.8
170842	7	Sololá	701	Sololá	2	El tablón	8	Agosto	2023-09-08T00:00:00	2024-11-06T20:00:00	4	Temperatura máxima	15.2
170843	7	Sololá	701	Sololá	2	El tablón	8	Agosto	2023-09-08T00:00:00	2024-11-06T20:00:00	3	Temperatura mínima	14.3
170844	7	Sololá	701	Sololá	2	El tablón	8	Agosto	2023-09-08T00:00:00	2024-11-06T20:00:00	5	Humedad	88
170845	7	Sololá	701	Sololá	2	El tablón	8	Agosto	2023-09-08T00:00:00	2024-11-06T20:00:00	6	Velocidad del viento	3.2
170846	7	Sololá	701	Sololá	2	El tablón	8	Agosto	2023-09-08T00:00:00	2024-11-06T20:00:00	7	Dirección del viento	3.22
170847	7	Sololá	701	Sololá	2	El tablón	8	Agosto	2023-09-08T00:00:00	2024-11-06T20:00:00	1	Precipitación	0
170848	7	Sololá	701	Sololá	2	El tablón	8	Agosto	2023-09-08T00:00:00	2024-11-06T20:00:00	8	Radiación solar	0
170849	7	Sololá	701	Sololá	2	El tablón	8	Agosto	2023-09-08T00:00:00	2024-11-06T21:00:00	2	Temperatura media	14.6
170850	7	Sololá	701	Sololá	2	El tablón	8	Agosto	2023-09-08T00:00:00	2024-11-06T21:00:00	4	Temperatura máxima	14.9
170851	7	Sololá	701	Sololá	2	El tablón	8	Agosto	2023-09-08T00:00:00	2024-11-06T21:00:00	3	Temperatura mínima	14.5
170852	7	Sololá	701	Sololá	2	El tablón	8	Agosto	2023-09-08T00:00:00	2024-11-06T21:00:00	5	Humedad	86
170853	7	Sololá	701	Sololá	2	El tablón	8	Agosto	2023-09-08T00:00:00	2024-11-06T21:00:00	6	Velocidad del viento	6.4
170854	7	Sololá	701	Sololá	2	El tablón	8	Agosto	2023-09-08T00:00:00	2024-11-06T21:00:00	7	Dirección del viento	6.44
170855	7	Sololá	701	Sololá	2	El tablón	8	Agosto	2023-09-08T00:00:00	2024-11-06T21:00:00	1	Precipitación	0
170856	7	Sololá	701	Sololá	2	El tablón	8	Agosto	2023-09-08T00:00:00	2024-11-06T21:00:00	8	Radiación solar	0
170857	7	Sololá	701	Sololá	2	El tablón	8	Agosto	2023-09-08T00:00:00	2024-11-06T22:00:00	2	Temperatura media	14.4
170858	7	Sololá	701	Sololá	2	El tablón	8	Agosto	2023-09-08T00:00:00	2024-11-06T22:00:00	4	Temperatura máxima	14.7
170859	7	Sololá	701	Sololá	2	El tablón	8	Agosto	2023-09-08T00:00:00	2024-11-06T22:00:00	3	Temperatura mínima	14.4
170860	7	Sololá	701	Sololá	2	El tablón	8	Agosto	2023-09-08T00:00:00	2024-11-06T22:00:00	5	Humedad	88
170861	7	Sololá	701	Sololá	2	El tablón	8	Agosto	2023-09-08T00:00:00	2024-11-06T22:00:00	6	Velocidad del viento	4.8
170862	7	Sololá	701	Sololá	2	El tablón	8	Agosto	2023-09-08T00:00:00	2024-11-06T22:00:00	7	Dirección del viento	4.83
170863	7	Sololá	701	Sololá	2	El tablón	8	Agosto	2023-09-08T00:00:00	2024-11-06T22:00:00	1	Precipitación	0
170864	7	Sololá	701	Sololá	2	El tablón	8	Agosto	2023-09-08T00:00:00	2024-11-06T22:00:00	8	Radiación solar	0
170865	7	Sololá	701	Sololá	2	El tablón	8	Agosto	2023-09-08T00:00:00	2024-11-06T23:00:00	2	Temperatura media	14.5
170866	7	Sololá	701	Sololá	2	El tablón	8	Agosto	2023-09-08T00:00:00	2024-11-06T23:00:00	4	Temperatura máxima	14.6
170867	7	Sololá	701	Sololá	2	El tablón	8	Agosto	2023-09-08T00:00:00	2024-11-06T23:00:00	3	Temperatura mínima	14.4
170868	7	Sololá	701	Sololá	2	El tablón	8	Agosto	2023-09-08T00:00:00	2024-11-06T23:00:00	5	Humedad	87
170869	7	Sololá	701	Sololá	2	El tablón	8	Agosto	2023-09-08T00:00:00	2024-11-06T23:00:00	6	Velocidad del viento	6.4
170870	7	Sololá	701	Sololá	2	El tablón	8	Agosto	2023-09-08T00:00:00	2024-11-06T23:00:00	7	Dirección del viento	6.44
170871	7	Sololá	701	Sololá	2	El tablón	8	Agosto	2023-09-08T00:00:00	2024-11-06T23:00:00	1	Precipitación	0
170872	7	Sololá	701	Sololá	2	El tablón	8	Agosto	2023-09-08T00:00:00	2024-11-06T23:00:00	8	Radiación solar	0
170873	7	Sololá	701	Sololá	2	El tablón	8	Agosto	2023-10-08T00:00:00	2024-11-06T00:00:00	2	Temperatura media	13.2
170874	7	Sololá	701	Sololá	2	El tablón	8	Agosto	2023-10-08T00:00:00	2024-11-06T00:00:00	4	Temperatura máxima	14.5
170875	7	Sololá	701	Sololá	2	El tablón	8	Agosto	2023-10-08T00:00:00	2024-11-06T00:00:00	3	Temperatura mínima	13.2
170876	7	Sololá	701	Sololá	2	El tablón	8	Agosto	2023-10-08T00:00:00	2024-11-06T00:00:00	5	Humedad	88
170877	7	Sololá	701	Sololá	2	El tablón	8	Agosto	2023-10-08T00:00:00	2024-11-06T00:00:00	6	Velocidad del viento	3.2
170878	7	Sololá	701	Sololá	2	El tablón	8	Agosto	2023-10-08T00:00:00	2024-11-06T00:00:00	7	Dirección del viento	3.22
170879	7	Sololá	701	Sololá	2	El tablón	8	Agosto	2023-10-08T00:00:00	2024-11-06T00:00:00	1	Precipitación	0
170880	7	Sololá	701	Sololá	2	El tablón	8	Agosto	2023-10-08T00:00:00	2024-11-06T00:00:00	8	Radiación solar	0
170881	7	Sololá	701	Sololá	2	El tablón	8	Agosto	2023-10-08T00:00:00	2024-11-06T01:00:00	2	Temperatura media	13.3
170882	7	Sololá	701	Sololá	2	El tablón	8	Agosto	2023-10-08T00:00:00	2024-11-06T01:00:00	4	Temperatura máxima	13.3
170883	7	Sololá	701	Sololá	2	El tablón	8	Agosto	2023-10-08T00:00:00	2024-11-06T01:00:00	3	Temperatura mínima	12.9
170884	7	Sololá	701	Sololá	2	El tablón	8	Agosto	2023-10-08T00:00:00	2024-11-06T01:00:00	5	Humedad	88
170885	7	Sololá	701	Sololá	2	El tablón	8	Agosto	2023-10-08T00:00:00	2024-11-06T01:00:00	6	Velocidad del viento	3.2
170886	7	Sololá	701	Sololá	2	El tablón	8	Agosto	2023-10-08T00:00:00	2024-11-06T01:00:00	7	Dirección del viento	3.22
170887	7	Sololá	701	Sololá	2	El tablón	8	Agosto	2023-10-08T00:00:00	2024-11-06T01:00:00	1	Precipitación	0
170888	7	Sololá	701	Sololá	2	El tablón	8	Agosto	2023-10-08T00:00:00	2024-11-06T01:00:00	8	Radiación solar	0
170889	7	Sololá	701	Sololá	2	El tablón	8	Agosto	2023-10-08T00:00:00	2024-11-06T02:00:00	2	Temperatura media	13.3
170890	7	Sololá	701	Sololá	2	El tablón	8	Agosto	2023-10-08T00:00:00	2024-11-06T02:00:00	4	Temperatura máxima	13.4
170891	7	Sololá	701	Sololá	2	El tablón	8	Agosto	2023-10-08T00:00:00	2024-11-06T02:00:00	3	Temperatura mínima	13.2
170892	7	Sololá	701	Sololá	2	El tablón	8	Agosto	2023-10-08T00:00:00	2024-11-06T02:00:00	5	Humedad	87
170893	7	Sololá	701	Sololá	2	El tablón	8	Agosto	2023-10-08T00:00:00	2024-11-06T02:00:00	6	Velocidad del viento	3.2
170894	7	Sololá	701	Sololá	2	El tablón	8	Agosto	2023-10-08T00:00:00	2024-11-06T02:00:00	7	Dirección del viento	3.22
170895	7	Sololá	701	Sololá	2	El tablón	8	Agosto	2023-10-08T00:00:00	2024-11-06T02:00:00	1	Precipitación	0
170896	7	Sololá	701	Sololá	2	El tablón	8	Agosto	2023-10-08T00:00:00	2024-11-06T02:00:00	8	Radiación solar	0
170897	7	Sololá	701	Sololá	2	El tablón	8	Agosto	2023-10-08T00:00:00	2024-11-06T03:00:00	2	Temperatura media	12.6
170898	7	Sololá	701	Sololá	2	El tablón	8	Agosto	2023-10-08T00:00:00	2024-11-06T03:00:00	4	Temperatura máxima	13.4
170899	7	Sololá	701	Sololá	2	El tablón	8	Agosto	2023-10-08T00:00:00	2024-11-06T03:00:00	3	Temperatura mínima	12.5
170900	7	Sololá	701	Sololá	2	El tablón	8	Agosto	2023-10-08T00:00:00	2024-11-06T03:00:00	5	Humedad	88
170901	7	Sololá	701	Sololá	2	El tablón	8	Agosto	2023-10-08T00:00:00	2024-11-06T03:00:00	6	Velocidad del viento	3.2
170902	7	Sololá	701	Sololá	2	El tablón	8	Agosto	2023-10-08T00:00:00	2024-11-06T03:00:00	7	Dirección del viento	3.22
170903	7	Sololá	701	Sololá	2	El tablón	8	Agosto	2023-10-08T00:00:00	2024-11-06T03:00:00	1	Precipitación	0
170904	7	Sololá	701	Sololá	2	El tablón	8	Agosto	2023-10-08T00:00:00	2024-11-06T03:00:00	8	Radiación solar	0
170905	7	Sololá	701	Sololá	2	El tablón	8	Agosto	2023-10-08T00:00:00	2024-11-06T04:00:00	2	Temperatura media	13.4
170906	7	Sololá	701	Sololá	2	El tablón	8	Agosto	2023-10-08T00:00:00	2024-11-06T04:00:00	4	Temperatura máxima	13.5
170907	7	Sololá	701	Sololá	2	El tablón	8	Agosto	2023-10-08T00:00:00	2024-11-06T04:00:00	3	Temperatura mínima	12.4
170908	7	Sololá	701	Sololá	2	El tablón	8	Agosto	2023-10-08T00:00:00	2024-11-06T04:00:00	5	Humedad	86
170909	7	Sololá	701	Sololá	2	El tablón	8	Agosto	2023-10-08T00:00:00	2024-11-06T04:00:00	6	Velocidad del viento	3.2
170910	7	Sololá	701	Sololá	2	El tablón	8	Agosto	2023-10-08T00:00:00	2024-11-06T04:00:00	7	Dirección del viento	3.22
170911	7	Sololá	701	Sololá	2	El tablón	8	Agosto	2023-10-08T00:00:00	2024-11-06T04:00:00	1	Precipitación	0
170912	7	Sololá	701	Sololá	2	El tablón	8	Agosto	2023-10-08T00:00:00	2024-11-06T04:00:00	8	Radiación solar	0
170913	7	Sololá	701	Sololá	2	El tablón	8	Agosto	2023-10-08T00:00:00	2024-11-06T05:00:00	2	Temperatura media	13
170914	7	Sololá	701	Sololá	2	El tablón	8	Agosto	2023-10-08T00:00:00	2024-11-06T05:00:00	4	Temperatura máxima	13.4
170915	7	Sololá	701	Sololá	2	El tablón	8	Agosto	2023-10-08T00:00:00	2024-11-06T05:00:00	3	Temperatura mínima	12.8
170916	7	Sololá	701	Sololá	2	El tablón	8	Agosto	2023-10-08T00:00:00	2024-11-06T05:00:00	5	Humedad	87
170917	7	Sololá	701	Sololá	2	El tablón	8	Agosto	2023-10-08T00:00:00	2024-11-06T05:00:00	6	Velocidad del viento	0
170918	7	Sololá	701	Sololá	2	El tablón	8	Agosto	2023-10-08T00:00:00	2024-11-06T05:00:00	7	Dirección del viento	0
170919	7	Sololá	701	Sololá	2	El tablón	8	Agosto	2023-10-08T00:00:00	2024-11-06T05:00:00	1	Precipitación	0
170920	7	Sololá	701	Sololá	2	El tablón	8	Agosto	2023-10-08T00:00:00	2024-11-06T05:00:00	8	Radiación solar	0
170921	7	Sololá	701	Sololá	2	El tablón	8	Agosto	2023-10-08T00:00:00	2024-11-06T06:00:00	2	Temperatura media	12.7
170922	7	Sololá	701	Sololá	2	El tablón	8	Agosto	2023-10-08T00:00:00	2024-11-06T06:00:00	4	Temperatura máxima	13.1
170923	7	Sololá	701	Sololá	2	El tablón	8	Agosto	2023-10-08T00:00:00	2024-11-06T06:00:00	3	Temperatura mínima	12.6
170924	7	Sololá	701	Sololá	2	El tablón	8	Agosto	2023-10-08T00:00:00	2024-11-06T06:00:00	5	Humedad	87
170925	7	Sololá	701	Sololá	2	El tablón	8	Agosto	2023-10-08T00:00:00	2024-11-06T06:00:00	6	Velocidad del viento	1.6
170926	7	Sololá	701	Sololá	2	El tablón	8	Agosto	2023-10-08T00:00:00	2024-11-06T06:00:00	7	Dirección del viento	1.61
170927	7	Sololá	701	Sololá	2	El tablón	8	Agosto	2023-10-08T00:00:00	2024-11-06T06:00:00	1	Precipitación	0
170928	7	Sololá	701	Sololá	2	El tablón	8	Agosto	2023-10-08T00:00:00	2024-11-06T06:00:00	8	Radiación solar	0
170929	7	Sololá	701	Sololá	2	El tablón	8	Agosto	2023-10-08T00:00:00	2024-11-06T07:00:00	2	Temperatura media	13.7
170930	7	Sololá	701	Sololá	2	El tablón	8	Agosto	2023-10-08T00:00:00	2024-11-06T07:00:00	4	Temperatura máxima	13.7
170931	7	Sololá	701	Sololá	2	El tablón	8	Agosto	2023-10-08T00:00:00	2024-11-06T07:00:00	3	Temperatura mínima	12.5
170932	7	Sololá	701	Sololá	2	El tablón	8	Agosto	2023-10-08T00:00:00	2024-11-06T07:00:00	5	Humedad	88
170933	7	Sololá	701	Sololá	2	El tablón	8	Agosto	2023-10-08T00:00:00	2024-11-06T07:00:00	6	Velocidad del viento	3.2
170934	7	Sololá	701	Sololá	2	El tablón	8	Agosto	2023-10-08T00:00:00	2024-11-06T07:00:00	7	Dirección del viento	3.22
170935	7	Sololá	701	Sololá	2	El tablón	8	Agosto	2023-10-08T00:00:00	2024-11-06T07:00:00	1	Precipitación	0
170936	7	Sololá	701	Sololá	2	El tablón	8	Agosto	2023-10-08T00:00:00	2024-11-06T07:00:00	8	Radiación solar	92
170937	7	Sololá	701	Sololá	2	El tablón	8	Agosto	2023-10-08T00:00:00	2024-11-06T08:00:00	2	Temperatura media	17
170938	7	Sololá	701	Sololá	2	El tablón	8	Agosto	2023-10-08T00:00:00	2024-11-06T08:00:00	4	Temperatura máxima	17
170939	7	Sololá	701	Sololá	2	El tablón	8	Agosto	2023-10-08T00:00:00	2024-11-06T08:00:00	3	Temperatura mínima	13.7
170940	7	Sololá	701	Sololá	2	El tablón	8	Agosto	2023-10-08T00:00:00	2024-11-06T08:00:00	5	Humedad	79
170941	7	Sololá	701	Sololá	2	El tablón	8	Agosto	2023-10-08T00:00:00	2024-11-06T08:00:00	6	Velocidad del viento	3.2
170942	7	Sololá	701	Sololá	2	El tablón	8	Agosto	2023-10-08T00:00:00	2024-11-06T08:00:00	7	Dirección del viento	3.22
170943	7	Sololá	701	Sololá	2	El tablón	8	Agosto	2023-10-08T00:00:00	2024-11-06T08:00:00	1	Precipitación	0
170944	7	Sololá	701	Sololá	2	El tablón	8	Agosto	2023-10-08T00:00:00	2024-11-06T08:00:00	8	Radiación solar	294
170945	7	Sololá	701	Sololá	2	El tablón	8	Agosto	2023-10-08T00:00:00	2024-11-06T09:00:00	2	Temperatura media	18.6
170946	7	Sololá	701	Sololá	2	El tablón	8	Agosto	2023-10-08T00:00:00	2024-11-06T09:00:00	4	Temperatura máxima	18.9
170947	7	Sololá	701	Sololá	2	El tablón	8	Agosto	2023-10-08T00:00:00	2024-11-06T09:00:00	3	Temperatura mínima	17
170948	7	Sololá	701	Sololá	2	El tablón	8	Agosto	2023-10-08T00:00:00	2024-11-06T09:00:00	5	Humedad	76
170949	7	Sololá	701	Sololá	2	El tablón	8	Agosto	2023-10-08T00:00:00	2024-11-06T09:00:00	6	Velocidad del viento	1.6
170950	7	Sololá	701	Sololá	2	El tablón	8	Agosto	2023-10-08T00:00:00	2024-11-06T09:00:00	7	Dirección del viento	1.61
170951	7	Sololá	701	Sololá	2	El tablón	8	Agosto	2023-10-08T00:00:00	2024-11-06T09:00:00	1	Precipitación	0
170952	7	Sololá	701	Sololá	2	El tablón	8	Agosto	2023-10-08T00:00:00	2024-11-06T09:00:00	8	Radiación solar	527
170953	7	Sololá	701	Sololá	2	El tablón	8	Agosto	2023-10-08T00:00:00	2024-11-06T10:00:00	2	Temperatura media	17.8
170954	7	Sololá	701	Sololá	2	El tablón	8	Agosto	2023-10-08T00:00:00	2024-11-06T10:00:00	4	Temperatura máxima	19.2
170955	7	Sololá	701	Sololá	2	El tablón	8	Agosto	2023-10-08T00:00:00	2024-11-06T10:00:00	3	Temperatura mínima	17.8
170956	7	Sololá	701	Sololá	2	El tablón	8	Agosto	2023-10-08T00:00:00	2024-11-06T10:00:00	5	Humedad	81
170957	7	Sololá	701	Sololá	2	El tablón	8	Agosto	2023-10-08T00:00:00	2024-11-06T10:00:00	6	Velocidad del viento	4.8
170958	7	Sololá	701	Sololá	2	El tablón	8	Agosto	2023-10-08T00:00:00	2024-11-06T10:00:00	7	Dirección del viento	4.83
170959	7	Sololá	701	Sololá	2	El tablón	8	Agosto	2023-10-08T00:00:00	2024-11-06T10:00:00	1	Precipitación	0
170960	7	Sololá	701	Sololá	2	El tablón	8	Agosto	2023-10-08T00:00:00	2024-11-06T10:00:00	8	Radiación solar	610
170961	7	Sololá	701	Sololá	2	El tablón	8	Agosto	2023-10-08T00:00:00	2024-11-06T11:00:00	2	Temperatura media	20.1
170962	7	Sololá	701	Sololá	2	El tablón	8	Agosto	2023-10-08T00:00:00	2024-11-06T11:00:00	4	Temperatura máxima	20.1
170963	7	Sololá	701	Sololá	2	El tablón	8	Agosto	2023-10-08T00:00:00	2024-11-06T11:00:00	3	Temperatura mínima	17.7
170964	7	Sololá	701	Sololá	2	El tablón	8	Agosto	2023-10-08T00:00:00	2024-11-06T11:00:00	5	Humedad	77
170965	7	Sololá	701	Sololá	2	El tablón	8	Agosto	2023-10-08T00:00:00	2024-11-06T11:00:00	6	Velocidad del viento	4.8
170966	7	Sololá	701	Sololá	2	El tablón	8	Agosto	2023-10-08T00:00:00	2024-11-06T11:00:00	7	Dirección del viento	4.83
170967	7	Sololá	701	Sololá	2	El tablón	8	Agosto	2023-10-08T00:00:00	2024-11-06T11:00:00	1	Precipitación	0
170968	7	Sololá	701	Sololá	2	El tablón	8	Agosto	2023-10-08T00:00:00	2024-11-06T11:00:00	8	Radiación solar	594
170969	7	Sololá	701	Sololá	2	El tablón	8	Agosto	2023-10-08T00:00:00	2024-11-06T12:00:00	2	Temperatura media	20.2
170970	7	Sololá	701	Sololá	2	El tablón	8	Agosto	2023-10-08T00:00:00	2024-11-06T12:00:00	4	Temperatura máxima	20.2
170971	7	Sololá	701	Sololá	2	El tablón	8	Agosto	2023-10-08T00:00:00	2024-11-06T12:00:00	3	Temperatura mínima	18.3
170972	7	Sololá	701	Sololá	2	El tablón	8	Agosto	2023-10-08T00:00:00	2024-11-06T12:00:00	5	Humedad	76
170973	7	Sololá	701	Sololá	2	El tablón	8	Agosto	2023-10-08T00:00:00	2024-11-06T12:00:00	6	Velocidad del viento	8
170974	7	Sololá	701	Sololá	2	El tablón	8	Agosto	2023-10-08T00:00:00	2024-11-06T12:00:00	7	Dirección del viento	8.05
170975	7	Sololá	701	Sololá	2	El tablón	8	Agosto	2023-10-08T00:00:00	2024-11-06T12:00:00	1	Precipitación	0
170976	7	Sololá	701	Sololá	2	El tablón	8	Agosto	2023-10-08T00:00:00	2024-11-06T12:00:00	8	Radiación solar	626
170977	7	Sololá	701	Sololá	2	El tablón	8	Agosto	2023-10-08T00:00:00	2024-11-06T13:00:00	2	Temperatura media	17.7
170978	7	Sololá	701	Sololá	2	El tablón	8	Agosto	2023-10-08T00:00:00	2024-11-06T13:00:00	4	Temperatura máxima	20.3
170979	7	Sololá	701	Sololá	2	El tablón	8	Agosto	2023-10-08T00:00:00	2024-11-06T13:00:00	3	Temperatura mínima	17.7
170980	7	Sololá	701	Sololá	2	El tablón	8	Agosto	2023-10-08T00:00:00	2024-11-06T13:00:00	5	Humedad	86
170981	7	Sololá	701	Sololá	2	El tablón	8	Agosto	2023-10-08T00:00:00	2024-11-06T13:00:00	6	Velocidad del viento	6.4
170982	7	Sololá	701	Sololá	2	El tablón	8	Agosto	2023-10-08T00:00:00	2024-11-06T13:00:00	7	Dirección del viento	6.44
170983	7	Sololá	701	Sololá	2	El tablón	8	Agosto	2023-10-08T00:00:00	2024-11-06T13:00:00	1	Precipitación	0
170984	7	Sololá	701	Sololá	2	El tablón	8	Agosto	2023-10-08T00:00:00	2024-11-06T13:00:00	8	Radiación solar	338
170985	7	Sololá	701	Sololá	2	El tablón	8	Agosto	2023-10-08T00:00:00	2024-11-06T14:00:00	2	Temperatura media	17.2
170986	7	Sololá	701	Sololá	2	El tablón	8	Agosto	2023-10-08T00:00:00	2024-11-06T14:00:00	4	Temperatura máxima	17.7
170987	7	Sololá	701	Sololá	2	El tablón	8	Agosto	2023-10-08T00:00:00	2024-11-06T14:00:00	3	Temperatura mínima	17.2
170988	7	Sololá	701	Sololá	2	El tablón	8	Agosto	2023-10-08T00:00:00	2024-11-06T14:00:00	5	Humedad	88
170989	7	Sololá	701	Sololá	2	El tablón	8	Agosto	2023-10-08T00:00:00	2024-11-06T14:00:00	6	Velocidad del viento	3.2
170990	7	Sololá	701	Sololá	2	El tablón	8	Agosto	2023-10-08T00:00:00	2024-11-06T14:00:00	7	Dirección del viento	3.22
170991	7	Sololá	701	Sololá	2	El tablón	8	Agosto	2023-10-08T00:00:00	2024-11-06T14:00:00	1	Precipitación	0.2
170992	7	Sololá	701	Sololá	2	El tablón	8	Agosto	2023-10-08T00:00:00	2024-11-06T14:00:00	8	Radiación solar	133
170993	7	Sololá	701	Sololá	2	El tablón	8	Agosto	2023-10-08T00:00:00	2024-11-06T15:00:00	2	Temperatura media	16.6
170994	7	Sololá	701	Sololá	2	El tablón	8	Agosto	2023-10-08T00:00:00	2024-11-06T15:00:00	4	Temperatura máxima	17.1
170995	7	Sololá	701	Sololá	2	El tablón	8	Agosto	2023-10-08T00:00:00	2024-11-06T15:00:00	3	Temperatura mínima	16.5
170996	7	Sololá	701	Sololá	2	El tablón	8	Agosto	2023-10-08T00:00:00	2024-11-06T15:00:00	5	Humedad	88
170997	7	Sololá	701	Sololá	2	El tablón	8	Agosto	2023-10-08T00:00:00	2024-11-06T15:00:00	6	Velocidad del viento	3.2
170998	7	Sololá	701	Sololá	2	El tablón	8	Agosto	2023-10-08T00:00:00	2024-11-06T15:00:00	7	Dirección del viento	3.22
170999	7	Sololá	701	Sololá	2	El tablón	8	Agosto	2023-10-08T00:00:00	2024-11-06T15:00:00	1	Precipitación	0.2
171000	7	Sololá	701	Sololá	2	El tablón	8	Agosto	2023-10-08T00:00:00	2024-11-06T15:00:00	8	Radiación solar	119
171001	7	Sololá	701	Sololá	2	El tablón	8	Agosto	2023-10-08T00:00:00	2024-11-06T16:00:00	2	Temperatura media	17
171002	7	Sololá	701	Sololá	2	El tablón	8	Agosto	2023-10-08T00:00:00	2024-11-06T16:00:00	4	Temperatura máxima	17
171003	7	Sololá	701	Sololá	2	El tablón	8	Agosto	2023-10-08T00:00:00	2024-11-06T16:00:00	3	Temperatura mínima	16.4
171004	7	Sololá	701	Sololá	2	El tablón	8	Agosto	2023-10-08T00:00:00	2024-11-06T16:00:00	5	Humedad	87
171005	7	Sololá	701	Sololá	2	El tablón	8	Agosto	2023-10-08T00:00:00	2024-11-06T16:00:00	6	Velocidad del viento	1.6
171006	7	Sololá	701	Sololá	2	El tablón	8	Agosto	2023-10-08T00:00:00	2024-11-06T16:00:00	7	Dirección del viento	1.61
171007	7	Sololá	701	Sololá	2	El tablón	8	Agosto	2023-10-08T00:00:00	2024-11-06T16:00:00	1	Precipitación	0.2
171008	7	Sololá	701	Sololá	2	El tablón	8	Agosto	2023-10-08T00:00:00	2024-11-06T16:00:00	8	Radiación solar	203
171009	7	Sololá	701	Sololá	2	El tablón	8	Agosto	2023-10-08T00:00:00	2024-11-06T17:00:00	2	Temperatura media	17.6
171010	7	Sololá	701	Sololá	2	El tablón	8	Agosto	2023-10-08T00:00:00	2024-11-06T17:00:00	4	Temperatura máxima	18.2
171011	7	Sololá	701	Sololá	2	El tablón	8	Agosto	2023-10-08T00:00:00	2024-11-06T17:00:00	3	Temperatura mínima	17
171012	7	Sololá	701	Sololá	2	El tablón	8	Agosto	2023-10-08T00:00:00	2024-11-06T17:00:00	5	Humedad	78
171013	7	Sololá	701	Sololá	2	El tablón	8	Agosto	2023-10-08T00:00:00	2024-11-06T17:00:00	6	Velocidad del viento	3.2
171014	7	Sololá	701	Sololá	2	El tablón	8	Agosto	2023-10-08T00:00:00	2024-11-06T17:00:00	7	Dirección del viento	3.22
171015	7	Sololá	701	Sololá	2	El tablón	8	Agosto	2023-10-08T00:00:00	2024-11-06T17:00:00	1	Precipitación	0
171016	7	Sololá	701	Sololá	2	El tablón	8	Agosto	2023-10-08T00:00:00	2024-11-06T17:00:00	8	Radiación solar	240
171017	7	Sololá	701	Sololá	2	El tablón	8	Agosto	2023-10-08T00:00:00	2024-11-06T18:00:00	2	Temperatura media	16.3
171018	7	Sololá	701	Sololá	2	El tablón	8	Agosto	2023-10-08T00:00:00	2024-11-06T18:00:00	4	Temperatura máxima	17.6
171019	7	Sololá	701	Sololá	2	El tablón	8	Agosto	2023-10-08T00:00:00	2024-11-06T18:00:00	3	Temperatura mínima	16.3
171020	7	Sololá	701	Sololá	2	El tablón	8	Agosto	2023-10-08T00:00:00	2024-11-06T18:00:00	5	Humedad	85
171021	7	Sololá	701	Sololá	2	El tablón	8	Agosto	2023-10-08T00:00:00	2024-11-06T18:00:00	6	Velocidad del viento	9.7
171022	7	Sololá	701	Sololá	2	El tablón	8	Agosto	2023-10-08T00:00:00	2024-11-06T18:00:00	7	Dirección del viento	9.66
171023	7	Sololá	701	Sololá	2	El tablón	8	Agosto	2023-10-08T00:00:00	2024-11-06T18:00:00	1	Precipitación	0
171024	7	Sololá	701	Sololá	2	El tablón	8	Agosto	2023-10-08T00:00:00	2024-11-06T18:00:00	8	Radiación solar	48
171025	7	Sololá	701	Sololá	2	El tablón	8	Agosto	2023-10-08T00:00:00	2024-11-06T19:00:00	2	Temperatura media	15.8
171026	7	Sololá	701	Sololá	2	El tablón	8	Agosto	2023-10-08T00:00:00	2024-11-06T19:00:00	4	Temperatura máxima	16.3
171027	7	Sololá	701	Sololá	2	El tablón	8	Agosto	2023-10-08T00:00:00	2024-11-06T19:00:00	3	Temperatura mínima	15.8
171028	7	Sololá	701	Sololá	2	El tablón	8	Agosto	2023-10-08T00:00:00	2024-11-06T19:00:00	5	Humedad	86
171029	7	Sololá	701	Sololá	2	El tablón	8	Agosto	2023-10-08T00:00:00	2024-11-06T19:00:00	6	Velocidad del viento	6.4
171030	7	Sololá	701	Sololá	2	El tablón	8	Agosto	2023-10-08T00:00:00	2024-11-06T19:00:00	7	Dirección del viento	6.44
171031	7	Sololá	701	Sololá	2	El tablón	8	Agosto	2023-10-08T00:00:00	2024-11-06T19:00:00	1	Precipitación	0
171032	7	Sololá	701	Sololá	2	El tablón	8	Agosto	2023-10-08T00:00:00	2024-11-06T19:00:00	8	Radiación solar	0
171033	7	Sololá	701	Sololá	2	El tablón	8	Agosto	2023-10-08T00:00:00	2024-11-06T20:00:00	2	Temperatura media	15.8
171034	7	Sololá	701	Sololá	2	El tablón	8	Agosto	2023-10-08T00:00:00	2024-11-06T20:00:00	4	Temperatura máxima	15.9
171035	7	Sololá	701	Sololá	2	El tablón	8	Agosto	2023-10-08T00:00:00	2024-11-06T20:00:00	3	Temperatura mínima	15.8
171036	7	Sololá	701	Sololá	2	El tablón	8	Agosto	2023-10-08T00:00:00	2024-11-06T20:00:00	5	Humedad	84
171037	7	Sololá	701	Sololá	2	El tablón	8	Agosto	2023-10-08T00:00:00	2024-11-06T20:00:00	6	Velocidad del viento	8
171038	7	Sololá	701	Sololá	2	El tablón	8	Agosto	2023-10-08T00:00:00	2024-11-06T20:00:00	7	Dirección del viento	8.05
171039	7	Sololá	701	Sololá	2	El tablón	8	Agosto	2023-10-08T00:00:00	2024-11-06T20:00:00	1	Precipitación	0
171040	7	Sololá	701	Sololá	2	El tablón	8	Agosto	2023-10-08T00:00:00	2024-11-06T20:00:00	8	Radiación solar	0
171041	7	Sololá	701	Sololá	2	El tablón	8	Agosto	2023-10-08T00:00:00	2024-11-06T21:00:00	2	Temperatura media	16
171042	7	Sololá	701	Sololá	2	El tablón	8	Agosto	2023-10-08T00:00:00	2024-11-06T21:00:00	4	Temperatura máxima	16.2
171043	7	Sololá	701	Sololá	2	El tablón	8	Agosto	2023-10-08T00:00:00	2024-11-06T21:00:00	3	Temperatura mínima	15.8
171044	7	Sololá	701	Sololá	2	El tablón	8	Agosto	2023-10-08T00:00:00	2024-11-06T21:00:00	5	Humedad	80
171045	7	Sololá	701	Sololá	2	El tablón	8	Agosto	2023-10-08T00:00:00	2024-11-06T21:00:00	6	Velocidad del viento	9.7
171046	7	Sololá	701	Sololá	2	El tablón	8	Agosto	2023-10-08T00:00:00	2024-11-06T21:00:00	7	Dirección del viento	9.66
171047	7	Sololá	701	Sololá	2	El tablón	8	Agosto	2023-10-08T00:00:00	2024-11-06T21:00:00	1	Precipitación	0
171048	7	Sololá	701	Sololá	2	El tablón	8	Agosto	2023-10-08T00:00:00	2024-11-06T21:00:00	8	Radiación solar	0
171049	7	Sololá	701	Sololá	2	El tablón	8	Agosto	2023-10-08T00:00:00	2024-11-06T22:00:00	2	Temperatura media	15.4
171050	7	Sololá	701	Sololá	2	El tablón	8	Agosto	2023-10-08T00:00:00	2024-11-06T22:00:00	4	Temperatura máxima	16
171051	7	Sololá	701	Sololá	2	El tablón	8	Agosto	2023-10-08T00:00:00	2024-11-06T22:00:00	3	Temperatura mínima	15.3
171052	7	Sololá	701	Sololá	2	El tablón	8	Agosto	2023-10-08T00:00:00	2024-11-06T22:00:00	5	Humedad	86
171053	7	Sololá	701	Sololá	2	El tablón	8	Agosto	2023-10-08T00:00:00	2024-11-06T22:00:00	6	Velocidad del viento	4.8
171054	7	Sololá	701	Sololá	2	El tablón	8	Agosto	2023-10-08T00:00:00	2024-11-06T22:00:00	7	Dirección del viento	4.83
171055	7	Sololá	701	Sololá	2	El tablón	8	Agosto	2023-10-08T00:00:00	2024-11-06T22:00:00	1	Precipitación	0
171056	7	Sololá	701	Sololá	2	El tablón	8	Agosto	2023-10-08T00:00:00	2024-11-06T22:00:00	8	Radiación solar	0
171057	7	Sololá	701	Sololá	2	El tablón	8	Agosto	2023-10-08T00:00:00	2024-11-06T23:00:00	2	Temperatura media	15.1
171058	7	Sololá	701	Sololá	2	El tablón	8	Agosto	2023-10-08T00:00:00	2024-11-06T23:00:00	4	Temperatura máxima	15.4
171059	7	Sololá	701	Sololá	2	El tablón	8	Agosto	2023-10-08T00:00:00	2024-11-06T23:00:00	3	Temperatura mínima	15.1
171060	7	Sololá	701	Sololá	2	El tablón	8	Agosto	2023-10-08T00:00:00	2024-11-06T23:00:00	5	Humedad	87
171061	7	Sololá	701	Sololá	2	El tablón	8	Agosto	2023-10-08T00:00:00	2024-11-06T23:00:00	6	Velocidad del viento	6.4
171062	7	Sololá	701	Sololá	2	El tablón	8	Agosto	2023-10-08T00:00:00	2024-11-06T23:00:00	7	Dirección del viento	6.44
171063	7	Sololá	701	Sololá	2	El tablón	8	Agosto	2023-10-08T00:00:00	2024-11-06T23:00:00	1	Precipitación	0
171064	7	Sololá	701	Sololá	2	El tablón	8	Agosto	2023-10-08T00:00:00	2024-11-06T23:00:00	8	Radiación solar	0
171065	7	Sololá	701	Sololá	2	El tablón	8	Agosto	2023-11-08T00:00:00	2024-11-06T00:00:00	2	Temperatura media	14.7
171066	7	Sololá	701	Sololá	2	El tablón	8	Agosto	2023-11-08T00:00:00	2024-11-06T00:00:00	4	Temperatura máxima	15.1
171067	7	Sololá	701	Sololá	2	El tablón	8	Agosto	2023-11-08T00:00:00	2024-11-06T00:00:00	3	Temperatura mínima	14.6
171068	7	Sololá	701	Sololá	2	El tablón	8	Agosto	2023-11-08T00:00:00	2024-11-06T00:00:00	5	Humedad	86
171069	7	Sololá	701	Sololá	2	El tablón	8	Agosto	2023-11-08T00:00:00	2024-11-06T00:00:00	6	Velocidad del viento	6.4
171070	7	Sololá	701	Sololá	2	El tablón	8	Agosto	2023-11-08T00:00:00	2024-11-06T00:00:00	7	Dirección del viento	6.44
171071	7	Sololá	701	Sololá	2	El tablón	8	Agosto	2023-11-08T00:00:00	2024-11-06T00:00:00	1	Precipitación	0
171072	7	Sololá	701	Sololá	2	El tablón	8	Agosto	2023-11-08T00:00:00	2024-11-06T00:00:00	8	Radiación solar	0
171073	7	Sololá	701	Sololá	2	El tablón	8	Agosto	2023-11-08T00:00:00	2024-11-06T01:00:00	2	Temperatura media	14.9
171074	7	Sololá	701	Sololá	2	El tablón	8	Agosto	2023-11-08T00:00:00	2024-11-06T01:00:00	4	Temperatura máxima	14.9
171075	7	Sololá	701	Sololá	2	El tablón	8	Agosto	2023-11-08T00:00:00	2024-11-06T01:00:00	3	Temperatura mínima	14.7
171076	7	Sololá	701	Sololá	2	El tablón	8	Agosto	2023-11-08T00:00:00	2024-11-06T01:00:00	5	Humedad	82
171077	7	Sololá	701	Sololá	2	El tablón	8	Agosto	2023-11-08T00:00:00	2024-11-06T01:00:00	6	Velocidad del viento	8
171078	7	Sololá	701	Sololá	2	El tablón	8	Agosto	2023-11-08T00:00:00	2024-11-06T01:00:00	7	Dirección del viento	8.05
171079	7	Sololá	701	Sololá	2	El tablón	8	Agosto	2023-11-08T00:00:00	2024-11-06T01:00:00	1	Precipitación	0
171080	7	Sololá	701	Sololá	2	El tablón	8	Agosto	2023-11-08T00:00:00	2024-11-06T01:00:00	8	Radiación solar	0
171081	7	Sololá	701	Sololá	2	El tablón	8	Agosto	2023-11-08T00:00:00	2024-11-06T02:00:00	2	Temperatura media	14.9
171082	7	Sololá	701	Sololá	2	El tablón	8	Agosto	2023-11-08T00:00:00	2024-11-06T02:00:00	4	Temperatura máxima	15.1
171083	7	Sololá	701	Sololá	2	El tablón	8	Agosto	2023-11-08T00:00:00	2024-11-06T02:00:00	3	Temperatura mínima	14.7
171084	7	Sololá	701	Sololá	2	El tablón	8	Agosto	2023-11-08T00:00:00	2024-11-06T02:00:00	5	Humedad	75
171085	7	Sololá	701	Sololá	2	El tablón	8	Agosto	2023-11-08T00:00:00	2024-11-06T02:00:00	6	Velocidad del viento	3.2
171086	7	Sololá	701	Sololá	2	El tablón	8	Agosto	2023-11-08T00:00:00	2024-11-06T02:00:00	7	Dirección del viento	3.22
171087	7	Sololá	701	Sololá	2	El tablón	8	Agosto	2023-11-08T00:00:00	2024-11-06T02:00:00	1	Precipitación	0
171088	7	Sololá	701	Sololá	2	El tablón	8	Agosto	2023-11-08T00:00:00	2024-11-06T02:00:00	8	Radiación solar	0
171089	7	Sololá	701	Sololá	2	El tablón	8	Agosto	2023-11-08T00:00:00	2024-11-06T03:00:00	2	Temperatura media	15.1
171090	7	Sololá	701	Sololá	2	El tablón	8	Agosto	2023-11-08T00:00:00	2024-11-06T03:00:00	4	Temperatura máxima	15.3
171091	7	Sololá	701	Sololá	2	El tablón	8	Agosto	2023-11-08T00:00:00	2024-11-06T03:00:00	3	Temperatura mínima	14.8
171092	7	Sololá	701	Sololá	2	El tablón	8	Agosto	2023-11-08T00:00:00	2024-11-06T03:00:00	5	Humedad	71
171093	7	Sololá	701	Sololá	2	El tablón	8	Agosto	2023-11-08T00:00:00	2024-11-06T03:00:00	6	Velocidad del viento	4.8
171094	7	Sololá	701	Sololá	2	El tablón	8	Agosto	2023-11-08T00:00:00	2024-11-06T03:00:00	7	Dirección del viento	4.83
171095	7	Sololá	701	Sololá	2	El tablón	8	Agosto	2023-11-08T00:00:00	2024-11-06T03:00:00	1	Precipitación	0
171096	7	Sololá	701	Sololá	2	El tablón	8	Agosto	2023-11-08T00:00:00	2024-11-06T03:00:00	8	Radiación solar	0
171097	7	Sololá	701	Sololá	2	El tablón	8	Agosto	2023-11-08T00:00:00	2024-11-06T04:00:00	2	Temperatura media	14.3
171098	7	Sololá	701	Sololá	2	El tablón	8	Agosto	2023-11-08T00:00:00	2024-11-06T04:00:00	4	Temperatura máxima	15.3
171099	7	Sololá	701	Sololá	2	El tablón	8	Agosto	2023-11-08T00:00:00	2024-11-06T04:00:00	3	Temperatura mínima	14.3
171100	7	Sololá	701	Sololá	2	El tablón	8	Agosto	2023-11-08T00:00:00	2024-11-06T04:00:00	5	Humedad	72
171101	7	Sololá	701	Sololá	2	El tablón	8	Agosto	2023-11-08T00:00:00	2024-11-06T04:00:00	6	Velocidad del viento	4.8
171102	7	Sololá	701	Sololá	2	El tablón	8	Agosto	2023-11-08T00:00:00	2024-11-06T04:00:00	7	Dirección del viento	4.83
171103	7	Sololá	701	Sololá	2	El tablón	8	Agosto	2023-11-08T00:00:00	2024-11-06T04:00:00	1	Precipitación	0
171104	7	Sololá	701	Sololá	2	El tablón	8	Agosto	2023-11-08T00:00:00	2024-11-06T04:00:00	8	Radiación solar	0
171105	7	Sololá	701	Sololá	2	El tablón	8	Agosto	2023-11-08T00:00:00	2024-11-06T05:00:00	2	Temperatura media	14.6
171106	7	Sololá	701	Sololá	2	El tablón	8	Agosto	2023-11-08T00:00:00	2024-11-06T05:00:00	4	Temperatura máxima	14.9
171107	7	Sololá	701	Sololá	2	El tablón	8	Agosto	2023-11-08T00:00:00	2024-11-06T05:00:00	3	Temperatura mínima	14.3
171108	7	Sololá	701	Sololá	2	El tablón	8	Agosto	2023-11-08T00:00:00	2024-11-06T05:00:00	5	Humedad	72
171109	7	Sololá	701	Sololá	2	El tablón	8	Agosto	2023-11-08T00:00:00	2024-11-06T05:00:00	6	Velocidad del viento	3.2
171110	7	Sololá	701	Sololá	2	El tablón	8	Agosto	2023-11-08T00:00:00	2024-11-06T05:00:00	7	Dirección del viento	3.22
171111	7	Sololá	701	Sololá	2	El tablón	8	Agosto	2023-11-08T00:00:00	2024-11-06T05:00:00	1	Precipitación	0
171112	7	Sololá	701	Sololá	2	El tablón	8	Agosto	2023-11-08T00:00:00	2024-11-06T05:00:00	8	Radiación solar	0
171113	7	Sololá	701	Sololá	2	El tablón	8	Agosto	2023-11-08T00:00:00	2024-11-06T06:00:00	2	Temperatura media	13.7
171114	7	Sololá	701	Sololá	2	El tablón	8	Agosto	2023-11-08T00:00:00	2024-11-06T06:00:00	4	Temperatura máxima	14.6
171115	7	Sololá	701	Sololá	2	El tablón	8	Agosto	2023-11-08T00:00:00	2024-11-06T06:00:00	3	Temperatura mínima	13.7
171116	7	Sololá	701	Sololá	2	El tablón	8	Agosto	2023-11-08T00:00:00	2024-11-06T06:00:00	5	Humedad	78
171117	7	Sololá	701	Sololá	2	El tablón	8	Agosto	2023-11-08T00:00:00	2024-11-06T06:00:00	6	Velocidad del viento	1.6
171118	7	Sololá	701	Sololá	2	El tablón	8	Agosto	2023-11-08T00:00:00	2024-11-06T06:00:00	7	Dirección del viento	1.61
171119	7	Sololá	701	Sololá	2	El tablón	8	Agosto	2023-11-08T00:00:00	2024-11-06T06:00:00	1	Precipitación	0
171120	7	Sololá	701	Sololá	2	El tablón	8	Agosto	2023-11-08T00:00:00	2024-11-06T06:00:00	8	Radiación solar	0
171121	7	Sololá	701	Sololá	2	El tablón	8	Agosto	2023-11-08T00:00:00	2024-11-06T07:00:00	2	Temperatura media	15.8
171122	7	Sololá	701	Sololá	2	El tablón	8	Agosto	2023-11-08T00:00:00	2024-11-06T07:00:00	4	Temperatura máxima	15.8
171123	7	Sololá	701	Sololá	2	El tablón	8	Agosto	2023-11-08T00:00:00	2024-11-06T07:00:00	3	Temperatura mínima	13.7
171124	7	Sololá	701	Sololá	2	El tablón	8	Agosto	2023-11-08T00:00:00	2024-11-06T07:00:00	5	Humedad	71
171125	7	Sololá	701	Sololá	2	El tablón	8	Agosto	2023-11-08T00:00:00	2024-11-06T07:00:00	6	Velocidad del viento	4.8
171126	7	Sololá	701	Sololá	2	El tablón	8	Agosto	2023-11-08T00:00:00	2024-11-06T07:00:00	7	Dirección del viento	4.83
171127	7	Sololá	701	Sololá	2	El tablón	8	Agosto	2023-11-08T00:00:00	2024-11-06T07:00:00	1	Precipitación	0
171128	7	Sololá	701	Sololá	2	El tablón	8	Agosto	2023-11-08T00:00:00	2024-11-06T07:00:00	8	Radiación solar	81
171129	7	Sololá	701	Sololá	2	El tablón	8	Agosto	2023-11-08T00:00:00	2024-11-06T08:00:00	2	Temperatura media	18.2
171130	7	Sololá	701	Sololá	2	El tablón	8	Agosto	2023-11-08T00:00:00	2024-11-06T08:00:00	4	Temperatura máxima	18.2
171131	7	Sololá	701	Sololá	2	El tablón	8	Agosto	2023-11-08T00:00:00	2024-11-06T08:00:00	3	Temperatura mínima	15.8
171132	7	Sololá	701	Sololá	2	El tablón	8	Agosto	2023-11-08T00:00:00	2024-11-06T08:00:00	5	Humedad	59
171133	7	Sololá	701	Sololá	2	El tablón	8	Agosto	2023-11-08T00:00:00	2024-11-06T08:00:00	6	Velocidad del viento	4.8
171134	7	Sololá	701	Sololá	2	El tablón	8	Agosto	2023-11-08T00:00:00	2024-11-06T08:00:00	7	Dirección del viento	4.83
171135	7	Sololá	701	Sololá	2	El tablón	8	Agosto	2023-11-08T00:00:00	2024-11-06T08:00:00	1	Precipitación	0
171136	7	Sololá	701	Sololá	2	El tablón	8	Agosto	2023-11-08T00:00:00	2024-11-06T08:00:00	8	Radiación solar	313
171137	7	Sololá	701	Sololá	2	El tablón	8	Agosto	2023-11-08T00:00:00	2024-11-06T09:00:00	2	Temperatura media	18.9
171138	7	Sololá	701	Sololá	2	El tablón	8	Agosto	2023-11-08T00:00:00	2024-11-06T09:00:00	4	Temperatura máxima	19.5
171139	7	Sololá	701	Sololá	2	El tablón	8	Agosto	2023-11-08T00:00:00	2024-11-06T09:00:00	3	Temperatura mínima	18.2
171140	7	Sololá	701	Sololá	2	El tablón	8	Agosto	2023-11-08T00:00:00	2024-11-06T09:00:00	5	Humedad	57
171141	7	Sololá	701	Sololá	2	El tablón	8	Agosto	2023-11-08T00:00:00	2024-11-06T09:00:00	6	Velocidad del viento	6.4
171142	7	Sololá	701	Sololá	2	El tablón	8	Agosto	2023-11-08T00:00:00	2024-11-06T09:00:00	7	Dirección del viento	6.44
171143	7	Sololá	701	Sololá	2	El tablón	8	Agosto	2023-11-08T00:00:00	2024-11-06T09:00:00	1	Precipitación	0
171144	7	Sololá	701	Sololá	2	El tablón	8	Agosto	2023-11-08T00:00:00	2024-11-06T09:00:00	8	Radiación solar	443
171145	7	Sololá	701	Sololá	2	El tablón	8	Agosto	2023-11-08T00:00:00	2024-11-06T10:00:00	2	Temperatura media	19.2
171146	7	Sololá	701	Sololá	2	El tablón	8	Agosto	2023-11-08T00:00:00	2024-11-06T10:00:00	4	Temperatura máxima	19.8
171147	7	Sololá	701	Sololá	2	El tablón	8	Agosto	2023-11-08T00:00:00	2024-11-06T10:00:00	3	Temperatura mínima	18.9
171148	7	Sololá	701	Sololá	2	El tablón	8	Agosto	2023-11-08T00:00:00	2024-11-06T10:00:00	5	Humedad	62
171149	7	Sololá	701	Sololá	2	El tablón	8	Agosto	2023-11-08T00:00:00	2024-11-06T10:00:00	6	Velocidad del viento	8
171150	7	Sololá	701	Sololá	2	El tablón	8	Agosto	2023-11-08T00:00:00	2024-11-06T10:00:00	7	Dirección del viento	8.05
171151	7	Sololá	701	Sololá	2	El tablón	8	Agosto	2023-11-08T00:00:00	2024-11-06T10:00:00	1	Precipitación	0
171152	7	Sololá	701	Sololá	2	El tablón	8	Agosto	2023-11-08T00:00:00	2024-11-06T10:00:00	8	Radiación solar	552
171153	7	Sololá	701	Sololá	2	El tablón	8	Agosto	2023-11-08T00:00:00	2024-11-06T11:00:00	2	Temperatura media	19.7
171154	7	Sololá	701	Sololá	2	El tablón	8	Agosto	2023-11-08T00:00:00	2024-11-06T11:00:00	4	Temperatura máxima	19.7
171155	7	Sololá	701	Sololá	2	El tablón	8	Agosto	2023-11-08T00:00:00	2024-11-06T11:00:00	3	Temperatura mínima	19.1
171156	7	Sololá	701	Sololá	2	El tablón	8	Agosto	2023-11-08T00:00:00	2024-11-06T11:00:00	5	Humedad	58
171157	7	Sololá	701	Sololá	2	El tablón	8	Agosto	2023-11-08T00:00:00	2024-11-06T11:00:00	6	Velocidad del viento	6.4
171158	7	Sololá	701	Sololá	2	El tablón	8	Agosto	2023-11-08T00:00:00	2024-11-06T11:00:00	7	Dirección del viento	6.44
171159	7	Sololá	701	Sololá	2	El tablón	8	Agosto	2023-11-08T00:00:00	2024-11-06T11:00:00	1	Precipitación	0
171160	7	Sololá	701	Sololá	2	El tablón	8	Agosto	2023-11-08T00:00:00	2024-11-06T11:00:00	8	Radiación solar	597
171161	7	Sololá	701	Sololá	2	El tablón	8	Agosto	2023-11-08T00:00:00	2024-11-06T12:00:00	2	Temperatura media	20.3
171162	7	Sololá	701	Sololá	2	El tablón	8	Agosto	2023-11-08T00:00:00	2024-11-06T12:00:00	4	Temperatura máxima	20.9
171163	7	Sololá	701	Sololá	2	El tablón	8	Agosto	2023-11-08T00:00:00	2024-11-06T12:00:00	3	Temperatura mínima	19.7
171164	7	Sololá	701	Sololá	2	El tablón	8	Agosto	2023-11-08T00:00:00	2024-11-06T12:00:00	5	Humedad	73
171165	7	Sololá	701	Sololá	2	El tablón	8	Agosto	2023-11-08T00:00:00	2024-11-06T12:00:00	6	Velocidad del viento	6.4
171166	7	Sololá	701	Sololá	2	El tablón	8	Agosto	2023-11-08T00:00:00	2024-11-06T12:00:00	7	Dirección del viento	6.44
171167	7	Sololá	701	Sololá	2	El tablón	8	Agosto	2023-11-08T00:00:00	2024-11-06T12:00:00	1	Precipitación	0
171168	7	Sololá	701	Sololá	2	El tablón	8	Agosto	2023-11-08T00:00:00	2024-11-06T12:00:00	8	Radiación solar	805
171169	7	Sololá	701	Sololá	2	El tablón	8	Agosto	2023-11-08T00:00:00	2024-11-06T13:00:00	2	Temperatura media	19.3
171170	7	Sololá	701	Sololá	2	El tablón	8	Agosto	2023-11-08T00:00:00	2024-11-06T13:00:00	4	Temperatura máxima	20.4
171171	7	Sololá	701	Sololá	2	El tablón	8	Agosto	2023-11-08T00:00:00	2024-11-06T13:00:00	3	Temperatura mínima	19.2
171172	7	Sololá	701	Sololá	2	El tablón	8	Agosto	2023-11-08T00:00:00	2024-11-06T13:00:00	5	Humedad	80
171173	7	Sololá	701	Sololá	2	El tablón	8	Agosto	2023-11-08T00:00:00	2024-11-06T13:00:00	6	Velocidad del viento	6.4
171174	7	Sololá	701	Sololá	2	El tablón	8	Agosto	2023-11-08T00:00:00	2024-11-06T13:00:00	7	Dirección del viento	6.44
171175	7	Sololá	701	Sololá	2	El tablón	8	Agosto	2023-11-08T00:00:00	2024-11-06T13:00:00	1	Precipitación	0
171176	7	Sololá	701	Sololá	2	El tablón	8	Agosto	2023-11-08T00:00:00	2024-11-06T13:00:00	8	Radiación solar	701
171177	7	Sololá	701	Sololá	2	El tablón	8	Agosto	2023-11-08T00:00:00	2024-11-06T14:00:00	2	Temperatura media	20
171178	7	Sololá	701	Sololá	2	El tablón	8	Agosto	2023-11-08T00:00:00	2024-11-06T14:00:00	4	Temperatura máxima	20
171179	7	Sololá	701	Sololá	2	El tablón	8	Agosto	2023-11-08T00:00:00	2024-11-06T14:00:00	3	Temperatura mínima	19.2
171180	7	Sololá	701	Sololá	2	El tablón	8	Agosto	2023-11-08T00:00:00	2024-11-06T14:00:00	5	Humedad	76
171181	7	Sololá	701	Sololá	2	El tablón	8	Agosto	2023-11-08T00:00:00	2024-11-06T14:00:00	6	Velocidad del viento	6.4
171182	7	Sololá	701	Sololá	2	El tablón	8	Agosto	2023-11-08T00:00:00	2024-11-06T14:00:00	7	Dirección del viento	6.44
171183	7	Sololá	701	Sololá	2	El tablón	8	Agosto	2023-11-08T00:00:00	2024-11-06T14:00:00	1	Precipitación	0
171184	7	Sololá	701	Sololá	2	El tablón	8	Agosto	2023-11-08T00:00:00	2024-11-06T14:00:00	8	Radiación solar	769
171185	7	Sololá	701	Sololá	2	El tablón	8	Agosto	2023-11-08T00:00:00	2024-11-06T15:00:00	2	Temperatura media	19.3
171186	7	Sololá	701	Sololá	2	El tablón	8	Agosto	2023-11-08T00:00:00	2024-11-06T15:00:00	4	Temperatura máxima	21
171187	7	Sololá	701	Sololá	2	El tablón	8	Agosto	2023-11-08T00:00:00	2024-11-06T15:00:00	3	Temperatura mínima	19.3
171188	7	Sololá	701	Sololá	2	El tablón	8	Agosto	2023-11-08T00:00:00	2024-11-06T15:00:00	5	Humedad	80
171189	7	Sololá	701	Sololá	2	El tablón	8	Agosto	2023-11-08T00:00:00	2024-11-06T15:00:00	6	Velocidad del viento	8
171190	7	Sololá	701	Sololá	2	El tablón	8	Agosto	2023-11-08T00:00:00	2024-11-06T15:00:00	7	Dirección del viento	8.05
171191	7	Sololá	701	Sololá	2	El tablón	8	Agosto	2023-11-08T00:00:00	2024-11-06T15:00:00	1	Precipitación	0
171192	7	Sololá	701	Sololá	2	El tablón	8	Agosto	2023-11-08T00:00:00	2024-11-06T15:00:00	8	Radiación solar	668
171193	7	Sololá	701	Sololá	2	El tablón	8	Agosto	2023-11-08T00:00:00	2024-11-06T16:00:00	2	Temperatura media	18.4
171194	7	Sololá	701	Sololá	2	El tablón	8	Agosto	2023-11-08T00:00:00	2024-11-06T16:00:00	4	Temperatura máxima	19.4
171195	7	Sololá	701	Sololá	2	El tablón	8	Agosto	2023-11-08T00:00:00	2024-11-06T16:00:00	3	Temperatura mínima	18.4
171196	7	Sololá	701	Sololá	2	El tablón	8	Agosto	2023-11-08T00:00:00	2024-11-06T16:00:00	5	Humedad	84
171197	7	Sololá	701	Sololá	2	El tablón	8	Agosto	2023-11-08T00:00:00	2024-11-06T16:00:00	6	Velocidad del viento	8
171198	7	Sololá	701	Sololá	2	El tablón	8	Agosto	2023-11-08T00:00:00	2024-11-06T16:00:00	7	Dirección del viento	8.05
171199	7	Sololá	701	Sololá	2	El tablón	8	Agosto	2023-11-08T00:00:00	2024-11-06T16:00:00	1	Precipitación	0
171200	7	Sololá	701	Sololá	2	El tablón	8	Agosto	2023-11-08T00:00:00	2024-11-06T16:00:00	8	Radiación solar	568
171201	7	Sololá	701	Sololá	2	El tablón	8	Agosto	2023-11-08T00:00:00	2024-11-06T17:00:00	2	Temperatura media	19.2
171202	7	Sololá	701	Sololá	2	El tablón	8	Agosto	2023-11-08T00:00:00	2024-11-06T17:00:00	4	Temperatura máxima	19.5
171203	7	Sololá	701	Sololá	2	El tablón	8	Agosto	2023-11-08T00:00:00	2024-11-06T17:00:00	3	Temperatura mínima	18.4
171204	7	Sololá	701	Sololá	2	El tablón	8	Agosto	2023-11-08T00:00:00	2024-11-06T17:00:00	5	Humedad	79
171205	7	Sololá	701	Sololá	2	El tablón	8	Agosto	2023-11-08T00:00:00	2024-11-06T17:00:00	6	Velocidad del viento	3.2
171206	7	Sololá	701	Sololá	2	El tablón	8	Agosto	2023-11-08T00:00:00	2024-11-06T17:00:00	7	Dirección del viento	3.22
171207	7	Sololá	701	Sololá	2	El tablón	8	Agosto	2023-11-08T00:00:00	2024-11-06T17:00:00	1	Precipitación	0
171208	7	Sololá	701	Sololá	2	El tablón	8	Agosto	2023-11-08T00:00:00	2024-11-06T17:00:00	8	Radiación solar	301
171209	7	Sololá	701	Sololá	2	El tablón	8	Agosto	2023-11-08T00:00:00	2024-11-06T18:00:00	2	Temperatura media	17.9
171210	7	Sololá	701	Sololá	2	El tablón	8	Agosto	2023-11-08T00:00:00	2024-11-06T18:00:00	4	Temperatura máxima	19.2
171211	7	Sololá	701	Sololá	2	El tablón	8	Agosto	2023-11-08T00:00:00	2024-11-06T18:00:00	3	Temperatura mínima	17.9
171212	7	Sololá	701	Sololá	2	El tablón	8	Agosto	2023-11-08T00:00:00	2024-11-06T18:00:00	5	Humedad	78
171213	7	Sololá	701	Sololá	2	El tablón	8	Agosto	2023-11-08T00:00:00	2024-11-06T18:00:00	6	Velocidad del viento	4.8
171214	7	Sololá	701	Sololá	2	El tablón	8	Agosto	2023-11-08T00:00:00	2024-11-06T18:00:00	7	Dirección del viento	4.83
171215	7	Sololá	701	Sololá	2	El tablón	8	Agosto	2023-11-08T00:00:00	2024-11-06T18:00:00	1	Precipitación	0
171216	7	Sololá	701	Sololá	2	El tablón	8	Agosto	2023-11-08T00:00:00	2024-11-06T18:00:00	8	Radiación solar	68
171217	7	Sololá	701	Sololá	2	El tablón	8	Agosto	2023-11-08T00:00:00	2024-11-06T19:00:00	2	Temperatura media	16.7
171218	7	Sololá	701	Sololá	2	El tablón	8	Agosto	2023-11-08T00:00:00	2024-11-06T19:00:00	4	Temperatura máxima	17.9
171219	7	Sololá	701	Sololá	2	El tablón	8	Agosto	2023-11-08T00:00:00	2024-11-06T19:00:00	3	Temperatura mínima	16.7
171220	7	Sololá	701	Sololá	2	El tablón	8	Agosto	2023-11-08T00:00:00	2024-11-06T19:00:00	5	Humedad	85
171221	7	Sololá	701	Sololá	2	El tablón	8	Agosto	2023-11-08T00:00:00	2024-11-06T19:00:00	6	Velocidad del viento	4.8
171222	7	Sololá	701	Sololá	2	El tablón	8	Agosto	2023-11-08T00:00:00	2024-11-06T19:00:00	7	Dirección del viento	4.83
171223	7	Sololá	701	Sololá	2	El tablón	8	Agosto	2023-11-08T00:00:00	2024-11-06T19:00:00	1	Precipitación	0
171224	7	Sololá	701	Sololá	2	El tablón	8	Agosto	2023-11-08T00:00:00	2024-11-06T19:00:00	8	Radiación solar	0
171225	7	Sololá	701	Sololá	2	El tablón	8	Agosto	2023-11-08T00:00:00	2024-11-06T20:00:00	2	Temperatura media	16.3
171226	7	Sololá	701	Sololá	2	El tablón	8	Agosto	2023-11-08T00:00:00	2024-11-06T20:00:00	4	Temperatura máxima	16.7
171227	7	Sololá	701	Sololá	2	El tablón	8	Agosto	2023-11-08T00:00:00	2024-11-06T20:00:00	3	Temperatura mínima	16.3
171228	7	Sololá	701	Sololá	2	El tablón	8	Agosto	2023-11-08T00:00:00	2024-11-06T20:00:00	5	Humedad	86
171229	7	Sololá	701	Sololá	2	El tablón	8	Agosto	2023-11-08T00:00:00	2024-11-06T20:00:00	6	Velocidad del viento	6.4
171230	7	Sololá	701	Sololá	2	El tablón	8	Agosto	2023-11-08T00:00:00	2024-11-06T20:00:00	7	Dirección del viento	6.44
171231	7	Sololá	701	Sololá	2	El tablón	8	Agosto	2023-11-08T00:00:00	2024-11-06T20:00:00	1	Precipitación	0
171232	7	Sololá	701	Sololá	2	El tablón	8	Agosto	2023-11-08T00:00:00	2024-11-06T20:00:00	8	Radiación solar	0
171233	7	Sololá	701	Sololá	2	El tablón	8	Agosto	2023-11-08T00:00:00	2024-11-06T21:00:00	2	Temperatura media	16
171234	7	Sololá	701	Sololá	2	El tablón	8	Agosto	2023-11-08T00:00:00	2024-11-06T21:00:00	4	Temperatura máxima	16.3
171235	7	Sololá	701	Sololá	2	El tablón	8	Agosto	2023-11-08T00:00:00	2024-11-06T21:00:00	3	Temperatura mínima	16
171236	7	Sololá	701	Sololá	2	El tablón	8	Agosto	2023-11-08T00:00:00	2024-11-06T21:00:00	5	Humedad	85
171237	7	Sololá	701	Sololá	2	El tablón	8	Agosto	2023-11-08T00:00:00	2024-11-06T21:00:00	6	Velocidad del viento	8
171238	7	Sololá	701	Sololá	2	El tablón	8	Agosto	2023-11-08T00:00:00	2024-11-06T21:00:00	7	Dirección del viento	8.05
171239	7	Sololá	701	Sololá	2	El tablón	8	Agosto	2023-11-08T00:00:00	2024-11-06T21:00:00	1	Precipitación	0
171240	7	Sololá	701	Sololá	2	El tablón	8	Agosto	2023-11-08T00:00:00	2024-11-06T21:00:00	8	Radiación solar	0
171241	7	Sololá	701	Sololá	2	El tablón	8	Agosto	2023-11-08T00:00:00	2024-11-06T22:00:00	2	Temperatura media	15.3
171242	7	Sololá	701	Sololá	2	El tablón	8	Agosto	2023-11-08T00:00:00	2024-11-06T22:00:00	4	Temperatura máxima	16.1
171243	7	Sololá	701	Sololá	2	El tablón	8	Agosto	2023-11-08T00:00:00	2024-11-06T22:00:00	3	Temperatura mínima	15.3
171244	7	Sololá	701	Sololá	2	El tablón	8	Agosto	2023-11-08T00:00:00	2024-11-06T22:00:00	5	Humedad	86
171245	7	Sololá	701	Sololá	2	El tablón	8	Agosto	2023-11-08T00:00:00	2024-11-06T22:00:00	6	Velocidad del viento	4.8
171246	7	Sololá	701	Sololá	2	El tablón	8	Agosto	2023-11-08T00:00:00	2024-11-06T22:00:00	7	Dirección del viento	4.83
171247	7	Sololá	701	Sololá	2	El tablón	8	Agosto	2023-11-08T00:00:00	2024-11-06T22:00:00	1	Precipitación	0
171248	7	Sololá	701	Sololá	2	El tablón	8	Agosto	2023-11-08T00:00:00	2024-11-06T22:00:00	8	Radiación solar	0
171249	7	Sololá	701	Sololá	2	El tablón	8	Agosto	2023-11-08T00:00:00	2024-11-06T23:00:00	2	Temperatura media	14.8
171250	7	Sololá	701	Sololá	2	El tablón	8	Agosto	2023-11-08T00:00:00	2024-11-06T23:00:00	4	Temperatura máxima	15.3
171251	7	Sololá	701	Sololá	2	El tablón	8	Agosto	2023-11-08T00:00:00	2024-11-06T23:00:00	3	Temperatura mínima	14.8
171252	7	Sololá	701	Sololá	2	El tablón	8	Agosto	2023-11-08T00:00:00	2024-11-06T23:00:00	5	Humedad	86
171253	7	Sololá	701	Sololá	2	El tablón	8	Agosto	2023-11-08T00:00:00	2024-11-06T23:00:00	6	Velocidad del viento	6.4
171254	7	Sololá	701	Sololá	2	El tablón	8	Agosto	2023-11-08T00:00:00	2024-11-06T23:00:00	7	Dirección del viento	6.44
171255	7	Sololá	701	Sololá	2	El tablón	8	Agosto	2023-11-08T00:00:00	2024-11-06T23:00:00	1	Precipitación	0
171256	7	Sololá	701	Sololá	2	El tablón	8	Agosto	2023-11-08T00:00:00	2024-11-06T23:00:00	8	Radiación solar	0
171257	7	Sololá	701	Sololá	2	El tablón	8	Agosto	2023-12-08T00:00:00	2024-11-06T00:00:00	2	Temperatura media	14.3
171258	7	Sololá	701	Sololá	2	El tablón	8	Agosto	2023-12-08T00:00:00	2024-11-06T00:00:00	4	Temperatura máxima	14.8
171259	7	Sololá	701	Sololá	2	El tablón	8	Agosto	2023-12-08T00:00:00	2024-11-06T00:00:00	3	Temperatura mínima	14.3
171260	7	Sololá	701	Sololá	2	El tablón	8	Agosto	2023-12-08T00:00:00	2024-11-06T00:00:00	5	Humedad	87
171261	7	Sololá	701	Sololá	2	El tablón	8	Agosto	2023-12-08T00:00:00	2024-11-06T00:00:00	6	Velocidad del viento	8
171262	7	Sololá	701	Sololá	2	El tablón	8	Agosto	2023-12-08T00:00:00	2024-11-06T00:00:00	7	Dirección del viento	8.05
171263	7	Sololá	701	Sololá	2	El tablón	8	Agosto	2023-12-08T00:00:00	2024-11-06T00:00:00	1	Precipitación	0
171264	7	Sololá	701	Sololá	2	El tablón	8	Agosto	2023-12-08T00:00:00	2024-11-06T00:00:00	8	Radiación solar	0
171265	7	Sololá	701	Sololá	2	El tablón	8	Agosto	2023-12-08T00:00:00	2024-11-06T01:00:00	2	Temperatura media	14.3
171266	7	Sololá	701	Sololá	2	El tablón	8	Agosto	2023-12-08T00:00:00	2024-11-06T01:00:00	4	Temperatura máxima	14.4
171267	7	Sololá	701	Sololá	2	El tablón	8	Agosto	2023-12-08T00:00:00	2024-11-06T01:00:00	3	Temperatura mínima	14.3
171268	7	Sololá	701	Sololá	2	El tablón	8	Agosto	2023-12-08T00:00:00	2024-11-06T01:00:00	5	Humedad	85
171269	7	Sololá	701	Sololá	2	El tablón	8	Agosto	2023-12-08T00:00:00	2024-11-06T01:00:00	6	Velocidad del viento	11.3
171270	7	Sololá	701	Sololá	2	El tablón	8	Agosto	2023-12-08T00:00:00	2024-11-06T01:00:00	7	Dirección del viento	11.27
171271	7	Sololá	701	Sololá	2	El tablón	8	Agosto	2023-12-08T00:00:00	2024-11-06T01:00:00	1	Precipitación	0
171272	7	Sololá	701	Sololá	2	El tablón	8	Agosto	2023-12-08T00:00:00	2024-11-06T01:00:00	8	Radiación solar	0
171273	7	Sololá	701	Sololá	2	El tablón	8	Agosto	2023-12-08T00:00:00	2024-11-06T02:00:00	2	Temperatura media	14
171274	7	Sololá	701	Sololá	2	El tablón	8	Agosto	2023-12-08T00:00:00	2024-11-06T02:00:00	4	Temperatura máxima	14.3
171275	7	Sololá	701	Sololá	2	El tablón	8	Agosto	2023-12-08T00:00:00	2024-11-06T02:00:00	3	Temperatura mínima	13.8
171276	7	Sololá	701	Sololá	2	El tablón	8	Agosto	2023-12-08T00:00:00	2024-11-06T02:00:00	5	Humedad	85
171277	7	Sololá	701	Sololá	2	El tablón	8	Agosto	2023-12-08T00:00:00	2024-11-06T02:00:00	6	Velocidad del viento	6.4
171278	7	Sololá	701	Sololá	2	El tablón	8	Agosto	2023-12-08T00:00:00	2024-11-06T02:00:00	7	Dirección del viento	6.44
171279	7	Sololá	701	Sololá	2	El tablón	8	Agosto	2023-12-08T00:00:00	2024-11-06T02:00:00	1	Precipitación	0
171280	7	Sololá	701	Sololá	2	El tablón	8	Agosto	2023-12-08T00:00:00	2024-11-06T02:00:00	8	Radiación solar	0
171281	7	Sololá	701	Sololá	2	El tablón	8	Agosto	2023-12-08T00:00:00	2024-11-06T03:00:00	2	Temperatura media	14
171282	7	Sololá	701	Sololá	2	El tablón	8	Agosto	2023-12-08T00:00:00	2024-11-06T03:00:00	4	Temperatura máxima	14.2
171283	7	Sololá	701	Sololá	2	El tablón	8	Agosto	2023-12-08T00:00:00	2024-11-06T03:00:00	3	Temperatura mínima	13.9
171284	7	Sololá	701	Sololá	2	El tablón	8	Agosto	2023-12-08T00:00:00	2024-11-06T03:00:00	5	Humedad	83
171285	7	Sololá	701	Sololá	2	El tablón	8	Agosto	2023-12-08T00:00:00	2024-11-06T03:00:00	6	Velocidad del viento	8
171286	7	Sololá	701	Sololá	2	El tablón	8	Agosto	2023-12-08T00:00:00	2024-11-06T03:00:00	7	Dirección del viento	8.05
171287	7	Sololá	701	Sololá	2	El tablón	8	Agosto	2023-12-08T00:00:00	2024-11-06T03:00:00	1	Precipitación	0
171288	7	Sololá	701	Sololá	2	El tablón	8	Agosto	2023-12-08T00:00:00	2024-11-06T03:00:00	8	Radiación solar	0
171289	7	Sololá	701	Sololá	2	El tablón	8	Agosto	2023-12-08T00:00:00	2024-11-06T04:00:00	2	Temperatura media	13.6
171290	7	Sololá	701	Sololá	2	El tablón	8	Agosto	2023-12-08T00:00:00	2024-11-06T04:00:00	4	Temperatura máxima	14.2
171291	7	Sololá	701	Sololá	2	El tablón	8	Agosto	2023-12-08T00:00:00	2024-11-06T04:00:00	3	Temperatura mínima	13.5
171292	7	Sololá	701	Sololá	2	El tablón	8	Agosto	2023-12-08T00:00:00	2024-11-06T04:00:00	5	Humedad	86
171293	7	Sololá	701	Sololá	2	El tablón	8	Agosto	2023-12-08T00:00:00	2024-11-06T04:00:00	6	Velocidad del viento	4.8
171294	7	Sololá	701	Sololá	2	El tablón	8	Agosto	2023-12-08T00:00:00	2024-11-06T04:00:00	7	Dirección del viento	4.83
171295	7	Sololá	701	Sololá	2	El tablón	8	Agosto	2023-12-08T00:00:00	2024-11-06T04:00:00	1	Precipitación	0
171296	7	Sololá	701	Sololá	2	El tablón	8	Agosto	2023-12-08T00:00:00	2024-11-06T04:00:00	8	Radiación solar	0
171297	7	Sololá	701	Sololá	2	El tablón	8	Agosto	2023-12-08T00:00:00	2024-11-06T05:00:00	2	Temperatura media	13.9
171298	7	Sololá	701	Sololá	2	El tablón	8	Agosto	2023-12-08T00:00:00	2024-11-06T05:00:00	4	Temperatura máxima	14.1
171299	7	Sololá	701	Sololá	2	El tablón	8	Agosto	2023-12-08T00:00:00	2024-11-06T05:00:00	3	Temperatura mínima	13.6
171300	7	Sololá	701	Sololá	2	El tablón	8	Agosto	2023-12-08T00:00:00	2024-11-06T05:00:00	5	Humedad	85
171301	7	Sololá	701	Sololá	2	El tablón	8	Agosto	2023-12-08T00:00:00	2024-11-06T05:00:00	6	Velocidad del viento	6.4
171302	7	Sololá	701	Sololá	2	El tablón	8	Agosto	2023-12-08T00:00:00	2024-11-06T05:00:00	7	Dirección del viento	6.44
171303	7	Sololá	701	Sololá	2	El tablón	8	Agosto	2023-12-08T00:00:00	2024-11-06T05:00:00	1	Precipitación	0
171304	7	Sololá	701	Sololá	2	El tablón	8	Agosto	2023-12-08T00:00:00	2024-11-06T05:00:00	8	Radiación solar	0
171305	7	Sololá	701	Sololá	2	El tablón	8	Agosto	2023-12-08T00:00:00	2024-11-06T06:00:00	2	Temperatura media	13.8
171306	7	Sololá	701	Sololá	2	El tablón	8	Agosto	2023-12-08T00:00:00	2024-11-06T06:00:00	4	Temperatura máxima	14.1
171307	7	Sololá	701	Sololá	2	El tablón	8	Agosto	2023-12-08T00:00:00	2024-11-06T06:00:00	3	Temperatura mínima	13.8
171308	7	Sololá	701	Sololá	2	El tablón	8	Agosto	2023-12-08T00:00:00	2024-11-06T06:00:00	5	Humedad	86
171309	7	Sololá	701	Sololá	2	El tablón	8	Agosto	2023-12-08T00:00:00	2024-11-06T06:00:00	6	Velocidad del viento	9.7
171310	7	Sololá	701	Sololá	2	El tablón	8	Agosto	2023-12-08T00:00:00	2024-11-06T06:00:00	7	Dirección del viento	9.66
171311	7	Sololá	701	Sololá	2	El tablón	8	Agosto	2023-12-08T00:00:00	2024-11-06T06:00:00	1	Precipitación	0
171312	7	Sololá	701	Sololá	2	El tablón	8	Agosto	2023-12-08T00:00:00	2024-11-06T06:00:00	8	Radiación solar	2
171313	7	Sololá	701	Sololá	2	El tablón	8	Agosto	2023-12-08T00:00:00	2024-11-06T07:00:00	2	Temperatura media	14.6
171314	7	Sololá	701	Sololá	2	El tablón	8	Agosto	2023-12-08T00:00:00	2024-11-06T07:00:00	4	Temperatura máxima	14.6
171315	7	Sololá	701	Sololá	2	El tablón	8	Agosto	2023-12-08T00:00:00	2024-11-06T07:00:00	3	Temperatura mínima	13.8
171316	7	Sololá	701	Sololá	2	El tablón	8	Agosto	2023-12-08T00:00:00	2024-11-06T07:00:00	5	Humedad	82
171317	7	Sololá	701	Sololá	2	El tablón	8	Agosto	2023-12-08T00:00:00	2024-11-06T07:00:00	6	Velocidad del viento	8
171318	7	Sololá	701	Sololá	2	El tablón	8	Agosto	2023-12-08T00:00:00	2024-11-06T07:00:00	7	Dirección del viento	8.05
171319	7	Sololá	701	Sololá	2	El tablón	8	Agosto	2023-12-08T00:00:00	2024-11-06T07:00:00	1	Precipitación	0
171320	7	Sololá	701	Sololá	2	El tablón	8	Agosto	2023-12-08T00:00:00	2024-11-06T07:00:00	8	Radiación solar	48
171321	7	Sololá	701	Sololá	2	El tablón	8	Agosto	2023-12-08T00:00:00	2024-11-06T08:00:00	2	Temperatura media	16.4
171322	7	Sololá	701	Sololá	2	El tablón	8	Agosto	2023-12-08T00:00:00	2024-11-06T08:00:00	4	Temperatura máxima	16.4
171323	7	Sololá	701	Sololá	2	El tablón	8	Agosto	2023-12-08T00:00:00	2024-11-06T08:00:00	3	Temperatura mínima	14.6
171324	7	Sololá	701	Sololá	2	El tablón	8	Agosto	2023-12-08T00:00:00	2024-11-06T08:00:00	5	Humedad	75
171325	7	Sololá	701	Sololá	2	El tablón	8	Agosto	2023-12-08T00:00:00	2024-11-06T08:00:00	6	Velocidad del viento	6.4
171326	7	Sololá	701	Sololá	2	El tablón	8	Agosto	2023-12-08T00:00:00	2024-11-06T08:00:00	7	Dirección del viento	6.44
171327	7	Sololá	701	Sololá	2	El tablón	8	Agosto	2023-12-08T00:00:00	2024-11-06T08:00:00	1	Precipitación	0
171328	7	Sololá	701	Sololá	2	El tablón	8	Agosto	2023-12-08T00:00:00	2024-11-06T08:00:00	8	Radiación solar	167
171329	7	Sololá	701	Sololá	2	El tablón	8	Agosto	2023-12-08T00:00:00	2024-11-06T09:00:00	2	Temperatura media	18.6
171330	7	Sololá	701	Sololá	2	El tablón	8	Agosto	2023-12-08T00:00:00	2024-11-06T09:00:00	4	Temperatura máxima	18.7
171331	7	Sololá	701	Sololá	2	El tablón	8	Agosto	2023-12-08T00:00:00	2024-11-06T09:00:00	3	Temperatura mínima	16.4
171332	7	Sololá	701	Sololá	2	El tablón	8	Agosto	2023-12-08T00:00:00	2024-11-06T09:00:00	5	Humedad	70
171333	7	Sololá	701	Sololá	2	El tablón	8	Agosto	2023-12-08T00:00:00	2024-11-06T09:00:00	6	Velocidad del viento	9.7
171334	7	Sololá	701	Sololá	2	El tablón	8	Agosto	2023-12-08T00:00:00	2024-11-06T09:00:00	7	Dirección del viento	9.66
171335	7	Sololá	701	Sololá	2	El tablón	8	Agosto	2023-12-08T00:00:00	2024-11-06T09:00:00	1	Precipitación	0
171336	7	Sololá	701	Sololá	2	El tablón	8	Agosto	2023-12-08T00:00:00	2024-11-06T09:00:00	8	Radiación solar	423
171337	7	Sololá	701	Sololá	2	El tablón	8	Agosto	2023-12-08T00:00:00	2024-11-06T10:00:00	2	Temperatura media	20.3
171338	7	Sololá	701	Sololá	2	El tablón	8	Agosto	2023-12-08T00:00:00	2024-11-06T10:00:00	4	Temperatura máxima	20.4
171339	7	Sololá	701	Sololá	2	El tablón	8	Agosto	2023-12-08T00:00:00	2024-11-06T10:00:00	3	Temperatura mínima	18.6
171340	7	Sololá	701	Sololá	2	El tablón	8	Agosto	2023-12-08T00:00:00	2024-11-06T10:00:00	5	Humedad	66
171341	7	Sololá	701	Sololá	2	El tablón	8	Agosto	2023-12-08T00:00:00	2024-11-06T10:00:00	6	Velocidad del viento	8
171342	7	Sololá	701	Sololá	2	El tablón	8	Agosto	2023-12-08T00:00:00	2024-11-06T10:00:00	7	Dirección del viento	8.05
171343	7	Sololá	701	Sololá	2	El tablón	8	Agosto	2023-12-08T00:00:00	2024-11-06T10:00:00	1	Precipitación	0
171344	7	Sololá	701	Sololá	2	El tablón	8	Agosto	2023-12-08T00:00:00	2024-11-06T10:00:00	8	Radiación solar	726
171345	7	Sololá	701	Sololá	2	El tablón	8	Agosto	2023-12-08T00:00:00	2024-11-06T11:00:00	2	Temperatura media	21.2
171346	7	Sololá	701	Sololá	2	El tablón	8	Agosto	2023-12-08T00:00:00	2024-11-06T11:00:00	4	Temperatura máxima	21.5
171347	7	Sololá	701	Sololá	2	El tablón	8	Agosto	2023-12-08T00:00:00	2024-11-06T11:00:00	3	Temperatura mínima	20
171348	7	Sololá	701	Sololá	2	El tablón	8	Agosto	2023-12-08T00:00:00	2024-11-06T11:00:00	5	Humedad	64
171349	7	Sololá	701	Sololá	2	El tablón	8	Agosto	2023-12-08T00:00:00	2024-11-06T11:00:00	6	Velocidad del viento	9.7
171350	7	Sololá	701	Sololá	2	El tablón	8	Agosto	2023-12-08T00:00:00	2024-11-06T11:00:00	7	Dirección del viento	9.66
171351	7	Sololá	701	Sololá	2	El tablón	8	Agosto	2023-12-08T00:00:00	2024-11-06T11:00:00	1	Precipitación	0
171352	7	Sololá	701	Sololá	2	El tablón	8	Agosto	2023-12-08T00:00:00	2024-11-06T11:00:00	8	Radiación solar	854
171353	7	Sololá	701	Sololá	2	El tablón	8	Agosto	2023-12-08T00:00:00	2024-11-06T12:00:00	2	Temperatura media	21
171354	7	Sololá	701	Sololá	2	El tablón	8	Agosto	2023-12-08T00:00:00	2024-11-06T12:00:00	4	Temperatura máxima	21.2
171355	7	Sololá	701	Sololá	2	El tablón	8	Agosto	2023-12-08T00:00:00	2024-11-06T12:00:00	3	Temperatura mínima	20.6
171356	7	Sololá	701	Sololá	2	El tablón	8	Agosto	2023-12-08T00:00:00	2024-11-06T12:00:00	5	Humedad	64
171357	7	Sololá	701	Sololá	2	El tablón	8	Agosto	2023-12-08T00:00:00	2024-11-06T12:00:00	6	Velocidad del viento	11.3
171358	7	Sololá	701	Sololá	2	El tablón	8	Agosto	2023-12-08T00:00:00	2024-11-06T12:00:00	7	Dirección del viento	11.27
171359	7	Sololá	701	Sololá	2	El tablón	8	Agosto	2023-12-08T00:00:00	2024-11-06T12:00:00	1	Precipitación	0
171360	7	Sololá	701	Sololá	2	El tablón	8	Agosto	2023-12-08T00:00:00	2024-11-06T12:00:00	8	Radiación solar	986
171361	7	Sololá	701	Sololá	2	El tablón	8	Agosto	2023-12-08T00:00:00	2024-11-06T13:00:00	2	Temperatura media	20.8
171362	7	Sololá	701	Sololá	2	El tablón	8	Agosto	2023-12-08T00:00:00	2024-11-06T13:00:00	4	Temperatura máxima	21.7
171363	7	Sololá	701	Sololá	2	El tablón	8	Agosto	2023-12-08T00:00:00	2024-11-06T13:00:00	3	Temperatura mínima	19.6
171364	7	Sololá	701	Sololá	2	El tablón	8	Agosto	2023-12-08T00:00:00	2024-11-06T13:00:00	5	Humedad	65
171365	7	Sololá	701	Sololá	2	El tablón	8	Agosto	2023-12-08T00:00:00	2024-11-06T13:00:00	6	Velocidad del viento	8
171366	7	Sololá	701	Sololá	2	El tablón	8	Agosto	2023-12-08T00:00:00	2024-11-06T13:00:00	7	Dirección del viento	8.05
171367	7	Sololá	701	Sololá	2	El tablón	8	Agosto	2023-12-08T00:00:00	2024-11-06T13:00:00	1	Precipitación	0
171368	7	Sololá	701	Sololá	2	El tablón	8	Agosto	2023-12-08T00:00:00	2024-11-06T13:00:00	8	Radiación solar	896
171369	7	Sololá	701	Sololá	2	El tablón	8	Agosto	2023-12-08T00:00:00	2024-11-06T14:00:00	2	Temperatura media	21.6
171370	7	Sololá	701	Sololá	2	El tablón	8	Agosto	2023-12-08T00:00:00	2024-11-06T14:00:00	4	Temperatura máxima	22.3
171371	7	Sololá	701	Sololá	2	El tablón	8	Agosto	2023-12-08T00:00:00	2024-11-06T14:00:00	3	Temperatura mínima	20.8
171372	7	Sololá	701	Sololá	2	El tablón	8	Agosto	2023-12-08T00:00:00	2024-11-06T14:00:00	5	Humedad	65
171373	7	Sololá	701	Sololá	2	El tablón	8	Agosto	2023-12-08T00:00:00	2024-11-06T14:00:00	6	Velocidad del viento	9.7
171374	7	Sololá	701	Sololá	2	El tablón	8	Agosto	2023-12-08T00:00:00	2024-11-06T14:00:00	7	Dirección del viento	9.66
171375	7	Sololá	701	Sololá	2	El tablón	8	Agosto	2023-12-08T00:00:00	2024-11-06T14:00:00	1	Precipitación	0
171376	7	Sololá	701	Sololá	2	El tablón	8	Agosto	2023-12-08T00:00:00	2024-11-06T14:00:00	8	Radiación solar	783
171377	7	Sololá	701	Sololá	2	El tablón	8	Agosto	2023-12-08T00:00:00	2024-11-06T15:00:00	2	Temperatura media	21.2
171378	7	Sololá	701	Sololá	2	El tablón	8	Agosto	2023-12-08T00:00:00	2024-11-06T15:00:00	4	Temperatura máxima	21.7
171379	7	Sololá	701	Sololá	2	El tablón	8	Agosto	2023-12-08T00:00:00	2024-11-06T15:00:00	3	Temperatura mínima	20.6
171380	7	Sololá	701	Sololá	2	El tablón	8	Agosto	2023-12-08T00:00:00	2024-11-06T15:00:00	5	Humedad	62
171381	7	Sololá	701	Sololá	2	El tablón	8	Agosto	2023-12-08T00:00:00	2024-11-06T15:00:00	6	Velocidad del viento	9.7
171382	7	Sololá	701	Sololá	2	El tablón	8	Agosto	2023-12-08T00:00:00	2024-11-06T15:00:00	7	Dirección del viento	9.66
171383	7	Sololá	701	Sololá	2	El tablón	8	Agosto	2023-12-08T00:00:00	2024-11-06T15:00:00	1	Precipitación	0
171384	7	Sololá	701	Sololá	2	El tablón	8	Agosto	2023-12-08T00:00:00	2024-11-06T15:00:00	8	Radiación solar	687
171385	7	Sololá	701	Sololá	2	El tablón	8	Agosto	2023-12-08T00:00:00	2024-11-06T16:00:00	2	Temperatura media	20.8
171386	7	Sololá	701	Sololá	2	El tablón	8	Agosto	2023-12-08T00:00:00	2024-11-06T16:00:00	4	Temperatura máxima	21.4
171387	7	Sololá	701	Sololá	2	El tablón	8	Agosto	2023-12-08T00:00:00	2024-11-06T16:00:00	3	Temperatura mínima	20.3
171388	7	Sololá	701	Sololá	2	El tablón	8	Agosto	2023-12-08T00:00:00	2024-11-06T16:00:00	5	Humedad	57
171389	7	Sololá	701	Sololá	2	El tablón	8	Agosto	2023-12-08T00:00:00	2024-11-06T16:00:00	6	Velocidad del viento	9.7
171390	7	Sololá	701	Sololá	2	El tablón	8	Agosto	2023-12-08T00:00:00	2024-11-06T16:00:00	7	Dirección del viento	9.66
171391	7	Sololá	701	Sololá	2	El tablón	8	Agosto	2023-12-08T00:00:00	2024-11-06T16:00:00	1	Precipitación	0
171392	7	Sololá	701	Sololá	2	El tablón	8	Agosto	2023-12-08T00:00:00	2024-11-06T16:00:00	8	Radiación solar	424
171393	7	Sololá	701	Sololá	2	El tablón	8	Agosto	2023-12-08T00:00:00	2024-11-06T17:00:00	2	Temperatura media	20.4
171394	7	Sololá	701	Sololá	2	El tablón	8	Agosto	2023-12-08T00:00:00	2024-11-06T17:00:00	4	Temperatura máxima	21
171395	7	Sololá	701	Sololá	2	El tablón	8	Agosto	2023-12-08T00:00:00	2024-11-06T17:00:00	3	Temperatura mínima	20.4
171396	7	Sololá	701	Sololá	2	El tablón	8	Agosto	2023-12-08T00:00:00	2024-11-06T17:00:00	5	Humedad	66
171397	7	Sololá	701	Sololá	2	El tablón	8	Agosto	2023-12-08T00:00:00	2024-11-06T17:00:00	6	Velocidad del viento	8
171398	7	Sololá	701	Sololá	2	El tablón	8	Agosto	2023-12-08T00:00:00	2024-11-06T17:00:00	7	Dirección del viento	8.05
171399	7	Sololá	701	Sololá	2	El tablón	8	Agosto	2023-12-08T00:00:00	2024-11-06T17:00:00	1	Precipitación	0
171400	7	Sololá	701	Sololá	2	El tablón	8	Agosto	2023-12-08T00:00:00	2024-11-06T17:00:00	8	Radiación solar	360
171401	7	Sololá	701	Sololá	2	El tablón	8	Agosto	2023-12-08T00:00:00	2024-11-06T18:00:00	2	Temperatura media	17.1
171402	7	Sololá	701	Sololá	2	El tablón	8	Agosto	2023-12-08T00:00:00	2024-11-06T18:00:00	4	Temperatura máxima	20.4
171403	7	Sololá	701	Sololá	2	El tablón	8	Agosto	2023-12-08T00:00:00	2024-11-06T18:00:00	3	Temperatura mínima	17.1
171404	7	Sololá	701	Sololá	2	El tablón	8	Agosto	2023-12-08T00:00:00	2024-11-06T18:00:00	5	Humedad	84
171405	7	Sololá	701	Sololá	2	El tablón	8	Agosto	2023-12-08T00:00:00	2024-11-06T18:00:00	6	Velocidad del viento	8
171406	7	Sololá	701	Sololá	2	El tablón	8	Agosto	2023-12-08T00:00:00	2024-11-06T18:00:00	7	Dirección del viento	8.05
171407	7	Sololá	701	Sololá	2	El tablón	8	Agosto	2023-12-08T00:00:00	2024-11-06T18:00:00	1	Precipitación	0
171408	7	Sololá	701	Sololá	2	El tablón	8	Agosto	2023-12-08T00:00:00	2024-11-06T18:00:00	8	Radiación solar	93
171409	7	Sololá	701	Sololá	2	El tablón	8	Agosto	2023-12-08T00:00:00	2024-11-06T19:00:00	2	Temperatura media	16
171410	7	Sololá	701	Sololá	2	El tablón	8	Agosto	2023-12-08T00:00:00	2024-11-06T19:00:00	4	Temperatura máxima	17.1
171411	7	Sololá	701	Sololá	2	El tablón	8	Agosto	2023-12-08T00:00:00	2024-11-06T19:00:00	3	Temperatura mínima	16
171412	7	Sololá	701	Sololá	2	El tablón	8	Agosto	2023-12-08T00:00:00	2024-11-06T19:00:00	5	Humedad	86
171413	7	Sololá	701	Sololá	2	El tablón	8	Agosto	2023-12-08T00:00:00	2024-11-06T19:00:00	6	Velocidad del viento	6.4
171414	7	Sololá	701	Sololá	2	El tablón	8	Agosto	2023-12-08T00:00:00	2024-11-06T19:00:00	7	Dirección del viento	6.44
171415	7	Sololá	701	Sololá	2	El tablón	8	Agosto	2023-12-08T00:00:00	2024-11-06T19:00:00	1	Precipitación	0
171416	7	Sololá	701	Sololá	2	El tablón	8	Agosto	2023-12-08T00:00:00	2024-11-06T19:00:00	8	Radiación solar	0
171417	7	Sololá	701	Sololá	2	El tablón	8	Agosto	2023-12-08T00:00:00	2024-11-06T20:00:00	2	Temperatura media	15.7
171418	7	Sololá	701	Sololá	2	El tablón	8	Agosto	2023-12-08T00:00:00	2024-11-06T20:00:00	4	Temperatura máxima	16
171419	7	Sololá	701	Sololá	2	El tablón	8	Agosto	2023-12-08T00:00:00	2024-11-06T20:00:00	3	Temperatura mínima	15.7
171420	7	Sololá	701	Sololá	2	El tablón	8	Agosto	2023-12-08T00:00:00	2024-11-06T20:00:00	5	Humedad	86
171421	7	Sololá	701	Sololá	2	El tablón	8	Agosto	2023-12-08T00:00:00	2024-11-06T20:00:00	6	Velocidad del viento	9.7
171422	7	Sololá	701	Sololá	2	El tablón	8	Agosto	2023-12-08T00:00:00	2024-11-06T20:00:00	7	Dirección del viento	9.66
171423	7	Sololá	701	Sololá	2	El tablón	8	Agosto	2023-12-08T00:00:00	2024-11-06T20:00:00	1	Precipitación	0
171424	7	Sololá	701	Sololá	2	El tablón	8	Agosto	2023-12-08T00:00:00	2024-11-06T20:00:00	8	Radiación solar	0
171425	7	Sololá	701	Sololá	2	El tablón	8	Agosto	2023-12-08T00:00:00	2024-11-06T21:00:00	2	Temperatura media	14.9
171426	7	Sololá	701	Sololá	2	El tablón	8	Agosto	2023-12-08T00:00:00	2024-11-06T21:00:00	4	Temperatura máxima	15.7
171427	7	Sololá	701	Sololá	2	El tablón	8	Agosto	2023-12-08T00:00:00	2024-11-06T21:00:00	3	Temperatura mínima	14.8
171428	7	Sololá	701	Sololá	2	El tablón	8	Agosto	2023-12-08T00:00:00	2024-11-06T21:00:00	5	Humedad	86
171429	7	Sololá	701	Sololá	2	El tablón	8	Agosto	2023-12-08T00:00:00	2024-11-06T21:00:00	6	Velocidad del viento	11.3
171430	7	Sololá	701	Sololá	2	El tablón	8	Agosto	2023-12-08T00:00:00	2024-11-06T21:00:00	7	Dirección del viento	11.27
171431	7	Sololá	701	Sololá	2	El tablón	8	Agosto	2023-12-08T00:00:00	2024-11-06T21:00:00	1	Precipitación	0
171432	7	Sololá	701	Sololá	2	El tablón	8	Agosto	2023-12-08T00:00:00	2024-11-06T21:00:00	8	Radiación solar	0
171433	7	Sololá	701	Sololá	2	El tablón	8	Agosto	2023-12-08T00:00:00	2024-11-06T22:00:00	2	Temperatura media	14.3
171434	7	Sololá	701	Sololá	2	El tablón	8	Agosto	2023-12-08T00:00:00	2024-11-06T22:00:00	4	Temperatura máxima	14.9
171435	7	Sololá	701	Sololá	2	El tablón	8	Agosto	2023-12-08T00:00:00	2024-11-06T22:00:00	3	Temperatura mínima	14.3
171436	7	Sololá	701	Sololá	2	El tablón	8	Agosto	2023-12-08T00:00:00	2024-11-06T22:00:00	5	Humedad	87
171437	7	Sololá	701	Sololá	2	El tablón	8	Agosto	2023-12-08T00:00:00	2024-11-06T22:00:00	6	Velocidad del viento	8
171438	7	Sololá	701	Sololá	2	El tablón	8	Agosto	2023-12-08T00:00:00	2024-11-06T22:00:00	7	Dirección del viento	8.05
171439	7	Sololá	701	Sololá	2	El tablón	8	Agosto	2023-12-08T00:00:00	2024-11-06T22:00:00	1	Precipitación	0
171440	7	Sololá	701	Sololá	2	El tablón	8	Agosto	2023-12-08T00:00:00	2024-11-06T22:00:00	8	Radiación solar	0
171441	7	Sololá	701	Sololá	2	El tablón	8	Agosto	2023-12-08T00:00:00	2024-11-06T23:00:00	2	Temperatura media	14.1
171442	7	Sololá	701	Sololá	2	El tablón	8	Agosto	2023-12-08T00:00:00	2024-11-06T23:00:00	4	Temperatura máxima	14.4
171443	7	Sololá	701	Sololá	2	El tablón	8	Agosto	2023-12-08T00:00:00	2024-11-06T23:00:00	3	Temperatura mínima	14.1
171444	7	Sololá	701	Sololá	2	El tablón	8	Agosto	2023-12-08T00:00:00	2024-11-06T23:00:00	5	Humedad	86
171445	7	Sololá	701	Sololá	2	El tablón	8	Agosto	2023-12-08T00:00:00	2024-11-06T23:00:00	6	Velocidad del viento	11.3
171446	7	Sololá	701	Sololá	2	El tablón	8	Agosto	2023-12-08T00:00:00	2024-11-06T23:00:00	7	Dirección del viento	11.27
171447	7	Sololá	701	Sololá	2	El tablón	8	Agosto	2023-12-08T00:00:00	2024-11-06T23:00:00	1	Precipitación	0
171448	7	Sololá	701	Sololá	2	El tablón	8	Agosto	2023-12-08T00:00:00	2024-11-06T23:00:00	8	Radiación solar	0
171449	7	Sololá	701	Sololá	2	El tablón	8	Agosto	2023-08-13T00:00:00	2024-11-06T00:00:00	2	Temperatura media	13.3
171450	7	Sololá	701	Sololá	2	El tablón	8	Agosto	2023-08-13T00:00:00	2024-11-06T00:00:00	4	Temperatura máxima	14.1
171451	7	Sololá	701	Sololá	2	El tablón	8	Agosto	2023-08-13T00:00:00	2024-11-06T00:00:00	3	Temperatura mínima	13.3
171452	7	Sololá	701	Sololá	2	El tablón	8	Agosto	2023-08-13T00:00:00	2024-11-06T00:00:00	5	Humedad	84
171453	7	Sololá	701	Sololá	2	El tablón	8	Agosto	2023-08-13T00:00:00	2024-11-06T00:00:00	6	Velocidad del viento	12.9
171454	7	Sololá	701	Sololá	2	El tablón	8	Agosto	2023-08-13T00:00:00	2024-11-06T00:00:00	7	Dirección del viento	12.87
171455	7	Sololá	701	Sololá	2	El tablón	8	Agosto	2023-08-13T00:00:00	2024-11-06T00:00:00	1	Precipitación	0
171456	7	Sololá	701	Sololá	2	El tablón	8	Agosto	2023-08-13T00:00:00	2024-11-06T00:00:00	8	Radiación solar	0
171457	7	Sololá	701	Sololá	2	El tablón	8	Agosto	2023-08-13T00:00:00	2024-11-06T01:00:00	2	Temperatura media	13.2
171458	7	Sololá	701	Sololá	2	El tablón	8	Agosto	2023-08-13T00:00:00	2024-11-06T01:00:00	4	Temperatura máxima	13.3
171459	7	Sololá	701	Sololá	2	El tablón	8	Agosto	2023-08-13T00:00:00	2024-11-06T01:00:00	3	Temperatura mínima	12.9
171460	7	Sololá	701	Sololá	2	El tablón	8	Agosto	2023-08-13T00:00:00	2024-11-06T01:00:00	5	Humedad	82
171461	7	Sololá	701	Sololá	2	El tablón	8	Agosto	2023-08-13T00:00:00	2024-11-06T01:00:00	6	Velocidad del viento	14.5
171462	7	Sololá	701	Sololá	2	El tablón	8	Agosto	2023-08-13T00:00:00	2024-11-06T01:00:00	7	Dirección del viento	14.48
171463	7	Sololá	701	Sololá	2	El tablón	8	Agosto	2023-08-13T00:00:00	2024-11-06T01:00:00	1	Precipitación	0
171464	7	Sololá	701	Sololá	2	El tablón	8	Agosto	2023-08-13T00:00:00	2024-11-06T01:00:00	8	Radiación solar	0
171465	7	Sololá	701	Sololá	2	El tablón	8	Agosto	2023-08-13T00:00:00	2024-11-06T02:00:00	2	Temperatura media	13.1
171466	7	Sololá	701	Sololá	2	El tablón	8	Agosto	2023-08-13T00:00:00	2024-11-06T02:00:00	4	Temperatura máxima	13.3
171467	7	Sololá	701	Sololá	2	El tablón	8	Agosto	2023-08-13T00:00:00	2024-11-06T02:00:00	3	Temperatura mínima	13.1
171468	7	Sololá	701	Sololá	2	El tablón	8	Agosto	2023-08-13T00:00:00	2024-11-06T02:00:00	5	Humedad	80
171469	7	Sololá	701	Sololá	2	El tablón	8	Agosto	2023-08-13T00:00:00	2024-11-06T02:00:00	6	Velocidad del viento	16.1
171470	7	Sololá	701	Sololá	2	El tablón	8	Agosto	2023-08-13T00:00:00	2024-11-06T02:00:00	7	Dirección del viento	16.09
171471	7	Sololá	701	Sololá	2	El tablón	8	Agosto	2023-08-13T00:00:00	2024-11-06T02:00:00	1	Precipitación	0
171472	7	Sololá	701	Sololá	2	El tablón	8	Agosto	2023-08-13T00:00:00	2024-11-06T02:00:00	8	Radiación solar	0
171473	7	Sololá	701	Sololá	2	El tablón	8	Agosto	2023-08-13T00:00:00	2024-11-06T03:00:00	2	Temperatura media	12.9
171474	7	Sololá	701	Sololá	2	El tablón	8	Agosto	2023-08-13T00:00:00	2024-11-06T03:00:00	4	Temperatura máxima	13.1
171475	7	Sololá	701	Sololá	2	El tablón	8	Agosto	2023-08-13T00:00:00	2024-11-06T03:00:00	3	Temperatura mínima	12.9
171476	7	Sololá	701	Sololá	2	El tablón	8	Agosto	2023-08-13T00:00:00	2024-11-06T03:00:00	5	Humedad	83
171477	7	Sololá	701	Sololá	2	El tablón	8	Agosto	2023-08-13T00:00:00	2024-11-06T03:00:00	6	Velocidad del viento	16.1
171478	7	Sololá	701	Sololá	2	El tablón	8	Agosto	2023-08-13T00:00:00	2024-11-06T03:00:00	7	Dirección del viento	16.09
171479	7	Sololá	701	Sololá	2	El tablón	8	Agosto	2023-08-13T00:00:00	2024-11-06T03:00:00	1	Precipitación	0
171480	7	Sololá	701	Sololá	2	El tablón	8	Agosto	2023-08-13T00:00:00	2024-11-06T03:00:00	8	Radiación solar	0
171481	7	Sololá	701	Sololá	2	El tablón	8	Agosto	2023-08-13T00:00:00	2024-11-06T04:00:00	2	Temperatura media	13.6
171482	7	Sololá	701	Sololá	2	El tablón	8	Agosto	2023-08-13T00:00:00	2024-11-06T04:00:00	4	Temperatura máxima	13.6
171483	7	Sololá	701	Sololá	2	El tablón	8	Agosto	2023-08-13T00:00:00	2024-11-06T04:00:00	3	Temperatura mínima	12.6
171484	7	Sololá	701	Sololá	2	El tablón	8	Agosto	2023-08-13T00:00:00	2024-11-06T04:00:00	5	Humedad	80
171485	7	Sololá	701	Sololá	2	El tablón	8	Agosto	2023-08-13T00:00:00	2024-11-06T04:00:00	6	Velocidad del viento	16.1
171486	7	Sololá	701	Sololá	2	El tablón	8	Agosto	2023-08-13T00:00:00	2024-11-06T04:00:00	7	Dirección del viento	16.09
171487	7	Sololá	701	Sololá	2	El tablón	8	Agosto	2023-08-13T00:00:00	2024-11-06T04:00:00	1	Precipitación	0
171488	7	Sololá	701	Sololá	2	El tablón	8	Agosto	2023-08-13T00:00:00	2024-11-06T04:00:00	8	Radiación solar	0
171489	7	Sololá	701	Sololá	2	El tablón	8	Agosto	2023-08-13T00:00:00	2024-11-06T05:00:00	2	Temperatura media	13.5
171490	7	Sololá	701	Sololá	2	El tablón	8	Agosto	2023-08-13T00:00:00	2024-11-06T05:00:00	4	Temperatura máxima	14.2
171491	7	Sololá	701	Sololá	2	El tablón	8	Agosto	2023-08-13T00:00:00	2024-11-06T05:00:00	3	Temperatura mínima	13.5
171492	7	Sololá	701	Sololá	2	El tablón	8	Agosto	2023-08-13T00:00:00	2024-11-06T05:00:00	5	Humedad	83
171493	7	Sololá	701	Sololá	2	El tablón	8	Agosto	2023-08-13T00:00:00	2024-11-06T05:00:00	6	Velocidad del viento	14.5
171494	7	Sololá	701	Sololá	2	El tablón	8	Agosto	2023-08-13T00:00:00	2024-11-06T05:00:00	7	Dirección del viento	14.48
171495	7	Sololá	701	Sololá	2	El tablón	8	Agosto	2023-08-13T00:00:00	2024-11-06T05:00:00	1	Precipitación	0
171496	7	Sololá	701	Sololá	2	El tablón	8	Agosto	2023-08-13T00:00:00	2024-11-06T05:00:00	8	Radiación solar	0
171497	7	Sololá	701	Sololá	2	El tablón	8	Agosto	2023-08-13T00:00:00	2024-11-06T06:00:00	2	Temperatura media	13.8
171498	7	Sololá	701	Sololá	2	El tablón	8	Agosto	2023-08-13T00:00:00	2024-11-06T06:00:00	4	Temperatura máxima	13.8
171499	7	Sololá	701	Sololá	2	El tablón	8	Agosto	2023-08-13T00:00:00	2024-11-06T06:00:00	3	Temperatura mínima	13.4
171500	7	Sololá	701	Sololá	2	El tablón	8	Agosto	2023-08-13T00:00:00	2024-11-06T06:00:00	5	Humedad	84
171501	7	Sololá	701	Sololá	2	El tablón	8	Agosto	2023-08-13T00:00:00	2024-11-06T06:00:00	6	Velocidad del viento	14.5
171502	7	Sololá	701	Sololá	2	El tablón	8	Agosto	2023-08-13T00:00:00	2024-11-06T06:00:00	7	Dirección del viento	14.48
171503	7	Sololá	701	Sololá	2	El tablón	8	Agosto	2023-08-13T00:00:00	2024-11-06T06:00:00	1	Precipitación	0
171504	7	Sololá	701	Sololá	2	El tablón	8	Agosto	2023-08-13T00:00:00	2024-11-06T06:00:00	8	Radiación solar	0
171505	7	Sololá	701	Sololá	2	El tablón	8	Agosto	2023-08-13T00:00:00	2024-11-06T07:00:00	2	Temperatura media	14.1
171506	7	Sololá	701	Sololá	2	El tablón	8	Agosto	2023-08-13T00:00:00	2024-11-06T07:00:00	4	Temperatura máxima	14.2
171507	7	Sololá	701	Sololá	2	El tablón	8	Agosto	2023-08-13T00:00:00	2024-11-06T07:00:00	3	Temperatura mínima	13.7
171508	7	Sololá	701	Sololá	2	El tablón	8	Agosto	2023-08-13T00:00:00	2024-11-06T07:00:00	5	Humedad	84
171509	7	Sololá	701	Sololá	2	El tablón	8	Agosto	2023-08-13T00:00:00	2024-11-06T07:00:00	6	Velocidad del viento	17.7
171510	7	Sololá	701	Sololá	2	El tablón	8	Agosto	2023-08-13T00:00:00	2024-11-06T07:00:00	7	Dirección del viento	17.7
171511	7	Sololá	701	Sololá	2	El tablón	8	Agosto	2023-08-13T00:00:00	2024-11-06T07:00:00	1	Precipitación	0
171512	7	Sololá	701	Sololá	2	El tablón	8	Agosto	2023-08-13T00:00:00	2024-11-06T07:00:00	8	Radiación solar	43
171513	7	Sololá	701	Sololá	2	El tablón	8	Agosto	2023-08-13T00:00:00	2024-11-06T08:00:00	2	Temperatura media	15.3
171514	7	Sololá	701	Sololá	2	El tablón	8	Agosto	2023-08-13T00:00:00	2024-11-06T08:00:00	4	Temperatura máxima	15.3
171515	7	Sololá	701	Sololá	2	El tablón	8	Agosto	2023-08-13T00:00:00	2024-11-06T08:00:00	3	Temperatura mínima	14.2
171516	7	Sololá	701	Sololá	2	El tablón	8	Agosto	2023-08-13T00:00:00	2024-11-06T08:00:00	5	Humedad	83
171517	7	Sololá	701	Sololá	2	El tablón	8	Agosto	2023-08-13T00:00:00	2024-11-06T08:00:00	6	Velocidad del viento	14.5
171518	7	Sololá	701	Sololá	2	El tablón	8	Agosto	2023-08-13T00:00:00	2024-11-06T08:00:00	7	Dirección del viento	14.48
171519	7	Sololá	701	Sololá	2	El tablón	8	Agosto	2023-08-13T00:00:00	2024-11-06T08:00:00	1	Precipitación	0
171520	7	Sololá	701	Sololá	2	El tablón	8	Agosto	2023-08-13T00:00:00	2024-11-06T08:00:00	8	Radiación solar	205
171521	7	Sololá	701	Sololá	2	El tablón	8	Agosto	2023-08-13T00:00:00	2024-11-06T09:00:00	2	Temperatura media	15.5
171522	7	Sololá	701	Sololá	2	El tablón	8	Agosto	2023-08-13T00:00:00	2024-11-06T09:00:00	4	Temperatura máxima	16.1
171523	7	Sololá	701	Sololá	2	El tablón	8	Agosto	2023-08-13T00:00:00	2024-11-06T09:00:00	3	Temperatura mínima	15.3
171524	7	Sololá	701	Sololá	2	El tablón	8	Agosto	2023-08-13T00:00:00	2024-11-06T09:00:00	5	Humedad	82
171525	7	Sololá	701	Sololá	2	El tablón	8	Agosto	2023-08-13T00:00:00	2024-11-06T09:00:00	6	Velocidad del viento	11.3
171526	7	Sololá	701	Sololá	2	El tablón	8	Agosto	2023-08-13T00:00:00	2024-11-06T09:00:00	7	Dirección del viento	11.27
171527	7	Sololá	701	Sololá	2	El tablón	8	Agosto	2023-08-13T00:00:00	2024-11-06T09:00:00	1	Precipitación	0
171528	7	Sololá	701	Sololá	2	El tablón	8	Agosto	2023-08-13T00:00:00	2024-11-06T09:00:00	8	Radiación solar	350
171529	7	Sololá	701	Sololá	2	El tablón	8	Agosto	2023-08-13T00:00:00	2024-11-06T10:00:00	2	Temperatura media	16.2
171530	7	Sololá	701	Sololá	2	El tablón	8	Agosto	2023-08-13T00:00:00	2024-11-06T10:00:00	4	Temperatura máxima	16.4
171531	7	Sololá	701	Sololá	2	El tablón	8	Agosto	2023-08-13T00:00:00	2024-11-06T10:00:00	3	Temperatura mínima	15.3
171532	7	Sololá	701	Sololá	2	El tablón	8	Agosto	2023-08-13T00:00:00	2024-11-06T10:00:00	5	Humedad	80
171533	7	Sololá	701	Sololá	2	El tablón	8	Agosto	2023-08-13T00:00:00	2024-11-06T10:00:00	6	Velocidad del viento	9.7
171534	7	Sololá	701	Sololá	2	El tablón	8	Agosto	2023-08-13T00:00:00	2024-11-06T10:00:00	7	Dirección del viento	9.66
171535	7	Sololá	701	Sololá	2	El tablón	8	Agosto	2023-08-13T00:00:00	2024-11-06T10:00:00	1	Precipitación	0
171536	7	Sololá	701	Sololá	2	El tablón	8	Agosto	2023-08-13T00:00:00	2024-11-06T10:00:00	8	Radiación solar	303
171537	7	Sololá	701	Sololá	2	El tablón	8	Agosto	2023-08-13T00:00:00	2024-11-06T11:00:00	2	Temperatura media	18.1
171538	7	Sololá	701	Sololá	2	El tablón	8	Agosto	2023-08-13T00:00:00	2024-11-06T11:00:00	4	Temperatura máxima	18.2
171539	7	Sololá	701	Sololá	2	El tablón	8	Agosto	2023-08-13T00:00:00	2024-11-06T11:00:00	3	Temperatura mínima	16.2
171540	7	Sololá	701	Sololá	2	El tablón	8	Agosto	2023-08-13T00:00:00	2024-11-06T11:00:00	5	Humedad	75
171541	7	Sololá	701	Sololá	2	El tablón	8	Agosto	2023-08-13T00:00:00	2024-11-06T11:00:00	6	Velocidad del viento	8
171542	7	Sololá	701	Sololá	2	El tablón	8	Agosto	2023-08-13T00:00:00	2024-11-06T11:00:00	7	Dirección del viento	8.05
171543	7	Sololá	701	Sololá	2	El tablón	8	Agosto	2023-08-13T00:00:00	2024-11-06T11:00:00	1	Precipitación	0
171544	7	Sololá	701	Sololá	2	El tablón	8	Agosto	2023-08-13T00:00:00	2024-11-06T11:00:00	8	Radiación solar	685
171545	7	Sololá	701	Sololá	2	El tablón	8	Agosto	2023-08-13T00:00:00	2024-11-06T12:00:00	2	Temperatura media	17.8
171546	7	Sololá	701	Sololá	2	El tablón	8	Agosto	2023-08-13T00:00:00	2024-11-06T12:00:00	4	Temperatura máxima	18.1
171547	7	Sololá	701	Sololá	2	El tablón	8	Agosto	2023-08-13T00:00:00	2024-11-06T12:00:00	3	Temperatura mínima	17.3
171548	7	Sololá	701	Sololá	2	El tablón	8	Agosto	2023-08-13T00:00:00	2024-11-06T12:00:00	5	Humedad	75
171549	7	Sololá	701	Sololá	2	El tablón	8	Agosto	2023-08-13T00:00:00	2024-11-06T12:00:00	6	Velocidad del viento	8
171550	7	Sololá	701	Sololá	2	El tablón	8	Agosto	2023-08-13T00:00:00	2024-11-06T12:00:00	7	Dirección del viento	8.05
171551	7	Sololá	701	Sololá	2	El tablón	8	Agosto	2023-08-13T00:00:00	2024-11-06T12:00:00	1	Precipitación	0
171552	7	Sololá	701	Sololá	2	El tablón	8	Agosto	2023-08-13T00:00:00	2024-11-06T12:00:00	8	Radiación solar	375
171553	7	Sololá	701	Sololá	2	El tablón	8	Agosto	2023-08-13T00:00:00	2024-11-06T13:00:00	2	Temperatura media	18.3
171554	7	Sololá	701	Sololá	2	El tablón	8	Agosto	2023-08-13T00:00:00	2024-11-06T13:00:00	4	Temperatura máxima	18.4
171555	7	Sololá	701	Sololá	2	El tablón	8	Agosto	2023-08-13T00:00:00	2024-11-06T13:00:00	3	Temperatura mínima	17.5
171556	7	Sololá	701	Sololá	2	El tablón	8	Agosto	2023-08-13T00:00:00	2024-11-06T13:00:00	5	Humedad	74
171557	7	Sololá	701	Sololá	2	El tablón	8	Agosto	2023-08-13T00:00:00	2024-11-06T13:00:00	6	Velocidad del viento	6.4
171558	7	Sololá	701	Sololá	2	El tablón	8	Agosto	2023-08-13T00:00:00	2024-11-06T13:00:00	7	Dirección del viento	6.44
171559	7	Sololá	701	Sololá	2	El tablón	8	Agosto	2023-08-13T00:00:00	2024-11-06T13:00:00	1	Precipitación	0
171560	7	Sololá	701	Sololá	2	El tablón	8	Agosto	2023-08-13T00:00:00	2024-11-06T13:00:00	8	Radiación solar	340
171561	7	Sololá	701	Sololá	2	El tablón	8	Agosto	2023-08-13T00:00:00	2024-11-06T14:00:00	2	Temperatura media	19.4
171562	7	Sololá	701	Sololá	2	El tablón	8	Agosto	2023-08-13T00:00:00	2024-11-06T14:00:00	4	Temperatura máxima	20.2
171563	7	Sololá	701	Sololá	2	El tablón	8	Agosto	2023-08-13T00:00:00	2024-11-06T14:00:00	3	Temperatura mínima	18.3
171564	7	Sololá	701	Sololá	2	El tablón	8	Agosto	2023-08-13T00:00:00	2024-11-06T14:00:00	5	Humedad	70
171565	7	Sololá	701	Sololá	2	El tablón	8	Agosto	2023-08-13T00:00:00	2024-11-06T14:00:00	6	Velocidad del viento	11.3
171566	7	Sololá	701	Sololá	2	El tablón	8	Agosto	2023-08-13T00:00:00	2024-11-06T14:00:00	7	Dirección del viento	11.27
171567	7	Sololá	701	Sololá	2	El tablón	8	Agosto	2023-08-13T00:00:00	2024-11-06T14:00:00	1	Precipitación	0
171568	7	Sololá	701	Sololá	2	El tablón	8	Agosto	2023-08-13T00:00:00	2024-11-06T14:00:00	8	Radiación solar	820
171569	7	Sololá	701	Sololá	2	El tablón	8	Agosto	2023-08-13T00:00:00	2024-11-06T15:00:00	2	Temperatura media	18
171570	7	Sololá	701	Sololá	2	El tablón	8	Agosto	2023-08-13T00:00:00	2024-11-06T15:00:00	4	Temperatura máxima	20.4
171571	7	Sololá	701	Sololá	2	El tablón	8	Agosto	2023-08-13T00:00:00	2024-11-06T15:00:00	3	Temperatura mínima	17.9
171572	7	Sololá	701	Sololá	2	El tablón	8	Agosto	2023-08-13T00:00:00	2024-11-06T15:00:00	5	Humedad	84
171573	7	Sololá	701	Sololá	2	El tablón	8	Agosto	2023-08-13T00:00:00	2024-11-06T15:00:00	6	Velocidad del viento	8
171574	7	Sololá	701	Sololá	2	El tablón	8	Agosto	2023-08-13T00:00:00	2024-11-06T15:00:00	7	Dirección del viento	8.05
171575	7	Sololá	701	Sololá	2	El tablón	8	Agosto	2023-08-13T00:00:00	2024-11-06T15:00:00	1	Precipitación	0
171576	7	Sololá	701	Sololá	2	El tablón	8	Agosto	2023-08-13T00:00:00	2024-11-06T15:00:00	8	Radiación solar	494
171577	7	Sololá	701	Sololá	2	El tablón	8	Agosto	2023-08-13T00:00:00	2024-11-06T16:00:00	2	Temperatura media	18.8
171578	7	Sololá	701	Sololá	2	El tablón	8	Agosto	2023-08-13T00:00:00	2024-11-06T16:00:00	4	Temperatura máxima	19.2
171579	7	Sololá	701	Sololá	2	El tablón	8	Agosto	2023-08-13T00:00:00	2024-11-06T16:00:00	3	Temperatura mínima	17.9
171580	7	Sololá	701	Sololá	2	El tablón	8	Agosto	2023-08-13T00:00:00	2024-11-06T16:00:00	5	Humedad	75
171581	7	Sololá	701	Sololá	2	El tablón	8	Agosto	2023-08-13T00:00:00	2024-11-06T16:00:00	6	Velocidad del viento	6.4
171582	7	Sololá	701	Sololá	2	El tablón	8	Agosto	2023-08-13T00:00:00	2024-11-06T16:00:00	7	Dirección del viento	6.44
171583	7	Sololá	701	Sololá	2	El tablón	8	Agosto	2023-08-13T00:00:00	2024-11-06T16:00:00	1	Precipitación	0
171584	7	Sololá	701	Sololá	2	El tablón	8	Agosto	2023-08-13T00:00:00	2024-11-06T16:00:00	8	Radiación solar	378
171585	7	Sololá	701	Sololá	2	El tablón	8	Agosto	2023-08-13T00:00:00	2024-11-06T17:00:00	2	Temperatura media	16.4
171586	7	Sololá	701	Sololá	2	El tablón	8	Agosto	2023-08-13T00:00:00	2024-11-06T17:00:00	4	Temperatura máxima	19.5
171587	7	Sololá	701	Sololá	2	El tablón	8	Agosto	2023-08-13T00:00:00	2024-11-06T17:00:00	3	Temperatura mínima	16.3
171588	7	Sololá	701	Sololá	2	El tablón	8	Agosto	2023-08-13T00:00:00	2024-11-06T17:00:00	5	Humedad	88
171589	7	Sololá	701	Sololá	2	El tablón	8	Agosto	2023-08-13T00:00:00	2024-11-06T17:00:00	6	Velocidad del viento	4.8
171590	7	Sololá	701	Sololá	2	El tablón	8	Agosto	2023-08-13T00:00:00	2024-11-06T17:00:00	7	Dirección del viento	4.83
171591	7	Sololá	701	Sololá	2	El tablón	8	Agosto	2023-08-13T00:00:00	2024-11-06T17:00:00	1	Precipitación	0
171592	7	Sololá	701	Sololá	2	El tablón	8	Agosto	2023-08-13T00:00:00	2024-11-06T17:00:00	8	Radiación solar	155
171593	7	Sololá	701	Sololá	2	El tablón	8	Agosto	2023-08-13T00:00:00	2024-11-06T18:00:00	2	Temperatura media	16.3
171594	7	Sololá	701	Sololá	2	El tablón	8	Agosto	2023-08-13T00:00:00	2024-11-06T18:00:00	4	Temperatura máxima	16.6
171595	7	Sololá	701	Sololá	2	El tablón	8	Agosto	2023-08-13T00:00:00	2024-11-06T18:00:00	3	Temperatura mínima	16
171596	7	Sololá	701	Sololá	2	El tablón	8	Agosto	2023-08-13T00:00:00	2024-11-06T18:00:00	5	Humedad	88
171597	7	Sololá	701	Sololá	2	El tablón	8	Agosto	2023-08-13T00:00:00	2024-11-06T18:00:00	6	Velocidad del viento	4.8
171598	7	Sololá	701	Sololá	2	El tablón	8	Agosto	2023-08-13T00:00:00	2024-11-06T18:00:00	7	Dirección del viento	4.83
171599	7	Sololá	701	Sololá	2	El tablón	8	Agosto	2023-08-13T00:00:00	2024-11-06T18:00:00	1	Precipitación	0
171600	7	Sololá	701	Sololá	2	El tablón	8	Agosto	2023-08-13T00:00:00	2024-11-06T18:00:00	8	Radiación solar	122
171601	7	Sololá	701	Sololá	2	El tablón	8	Agosto	2023-08-13T00:00:00	2024-11-06T19:00:00	2	Temperatura media	13.2
171602	7	Sololá	701	Sololá	2	El tablón	8	Agosto	2023-08-13T00:00:00	2024-11-06T19:00:00	4	Temperatura máxima	16.3
171603	7	Sololá	701	Sololá	2	El tablón	8	Agosto	2023-08-13T00:00:00	2024-11-06T19:00:00	3	Temperatura mínima	13.2
171604	7	Sololá	701	Sololá	2	El tablón	8	Agosto	2023-08-13T00:00:00	2024-11-06T19:00:00	5	Humedad	88
171605	7	Sololá	701	Sololá	2	El tablón	8	Agosto	2023-08-13T00:00:00	2024-11-06T19:00:00	6	Velocidad del viento	8
171606	7	Sololá	701	Sololá	2	El tablón	8	Agosto	2023-08-13T00:00:00	2024-11-06T19:00:00	7	Dirección del viento	8.05
171607	7	Sololá	701	Sololá	2	El tablón	8	Agosto	2023-08-13T00:00:00	2024-11-06T19:00:00	1	Precipitación	7.8
171608	7	Sololá	701	Sololá	2	El tablón	8	Agosto	2023-08-13T00:00:00	2024-11-06T19:00:00	8	Radiación solar	0
171609	7	Sololá	701	Sololá	2	El tablón	8	Agosto	2023-08-13T00:00:00	2024-11-06T20:00:00	2	Temperatura media	13.6
171610	7	Sololá	701	Sololá	2	El tablón	8	Agosto	2023-08-13T00:00:00	2024-11-06T20:00:00	4	Temperatura máxima	13.6
171611	7	Sololá	701	Sololá	2	El tablón	8	Agosto	2023-08-13T00:00:00	2024-11-06T20:00:00	3	Temperatura mínima	13.2
171612	7	Sololá	701	Sololá	2	El tablón	8	Agosto	2023-08-13T00:00:00	2024-11-06T20:00:00	5	Humedad	88
171613	7	Sololá	701	Sololá	2	El tablón	8	Agosto	2023-08-13T00:00:00	2024-11-06T20:00:00	6	Velocidad del viento	4.8
171614	7	Sololá	701	Sololá	2	El tablón	8	Agosto	2023-08-13T00:00:00	2024-11-06T20:00:00	7	Dirección del viento	4.83
171615	7	Sololá	701	Sololá	2	El tablón	8	Agosto	2023-08-13T00:00:00	2024-11-06T20:00:00	1	Precipitación	0
171616	7	Sololá	701	Sololá	2	El tablón	8	Agosto	2023-08-13T00:00:00	2024-11-06T20:00:00	8	Radiación solar	0
171617	7	Sololá	701	Sololá	2	El tablón	8	Agosto	2023-08-13T00:00:00	2024-11-06T21:00:00	2	Temperatura media	13.8
171618	7	Sololá	701	Sololá	2	El tablón	8	Agosto	2023-08-13T00:00:00	2024-11-06T21:00:00	4	Temperatura máxima	13.9
171619	7	Sololá	701	Sololá	2	El tablón	8	Agosto	2023-08-13T00:00:00	2024-11-06T21:00:00	3	Temperatura mínima	13.5
171620	7	Sololá	701	Sololá	2	El tablón	8	Agosto	2023-08-13T00:00:00	2024-11-06T21:00:00	5	Humedad	88
171621	7	Sololá	701	Sololá	2	El tablón	8	Agosto	2023-08-13T00:00:00	2024-11-06T21:00:00	6	Velocidad del viento	8
171622	7	Sololá	701	Sololá	2	El tablón	8	Agosto	2023-08-13T00:00:00	2024-11-06T21:00:00	7	Dirección del viento	8.05
171623	7	Sololá	701	Sololá	2	El tablón	8	Agosto	2023-08-13T00:00:00	2024-11-06T21:00:00	1	Precipitación	0.2
171624	7	Sololá	701	Sololá	2	El tablón	8	Agosto	2023-08-13T00:00:00	2024-11-06T21:00:00	8	Radiación solar	0
171625	7	Sololá	701	Sololá	2	El tablón	8	Agosto	2023-08-13T00:00:00	2024-11-06T22:00:00	2	Temperatura media	13.8
171626	7	Sololá	701	Sololá	2	El tablón	8	Agosto	2023-08-13T00:00:00	2024-11-06T22:00:00	4	Temperatura máxima	14
171627	7	Sololá	701	Sololá	2	El tablón	8	Agosto	2023-08-13T00:00:00	2024-11-06T22:00:00	3	Temperatura mínima	13.8
171628	7	Sololá	701	Sololá	2	El tablón	8	Agosto	2023-08-13T00:00:00	2024-11-06T22:00:00	5	Humedad	88
171629	7	Sololá	701	Sololá	2	El tablón	8	Agosto	2023-08-13T00:00:00	2024-11-06T22:00:00	6	Velocidad del viento	8
171630	7	Sololá	701	Sololá	2	El tablón	8	Agosto	2023-08-13T00:00:00	2024-11-06T22:00:00	7	Dirección del viento	8.05
171631	7	Sololá	701	Sololá	2	El tablón	8	Agosto	2023-08-13T00:00:00	2024-11-06T22:00:00	1	Precipitación	0
171632	7	Sololá	701	Sololá	2	El tablón	8	Agosto	2023-08-13T00:00:00	2024-11-06T22:00:00	8	Radiación solar	0
171633	7	Sololá	701	Sololá	2	El tablón	8	Agosto	2023-08-13T00:00:00	2024-11-06T23:00:00	2	Temperatura media	13.7
171634	7	Sololá	701	Sololá	2	El tablón	8	Agosto	2023-08-13T00:00:00	2024-11-06T23:00:00	4	Temperatura máxima	13.9
171635	7	Sololá	701	Sololá	2	El tablón	8	Agosto	2023-08-13T00:00:00	2024-11-06T23:00:00	3	Temperatura mínima	13.7
171636	7	Sololá	701	Sololá	2	El tablón	8	Agosto	2023-08-13T00:00:00	2024-11-06T23:00:00	5	Humedad	88
171637	7	Sololá	701	Sololá	2	El tablón	8	Agosto	2023-08-13T00:00:00	2024-11-06T23:00:00	6	Velocidad del viento	6.4
171638	7	Sololá	701	Sololá	2	El tablón	8	Agosto	2023-08-13T00:00:00	2024-11-06T23:00:00	7	Dirección del viento	6.44
171639	7	Sololá	701	Sololá	2	El tablón	8	Agosto	2023-08-13T00:00:00	2024-11-06T23:00:00	1	Precipitación	0
171640	7	Sololá	701	Sololá	2	El tablón	8	Agosto	2023-08-13T00:00:00	2024-11-06T23:00:00	8	Radiación solar	0
171641	7	Sololá	701	Sololá	2	El tablón	8	Agosto	2023-08-14T00:00:00	2024-11-06T00:00:00	2	Temperatura media	13.8
171642	7	Sololá	701	Sololá	2	El tablón	8	Agosto	2023-08-14T00:00:00	2024-11-06T00:00:00	4	Temperatura máxima	13.8
171643	7	Sololá	701	Sololá	2	El tablón	8	Agosto	2023-08-14T00:00:00	2024-11-06T00:00:00	3	Temperatura mínima	13.7
171644	7	Sololá	701	Sololá	2	El tablón	8	Agosto	2023-08-14T00:00:00	2024-11-06T00:00:00	5	Humedad	88
171645	7	Sololá	701	Sololá	2	El tablón	8	Agosto	2023-08-14T00:00:00	2024-11-06T00:00:00	6	Velocidad del viento	4.8
171646	7	Sololá	701	Sololá	2	El tablón	8	Agosto	2023-08-14T00:00:00	2024-11-06T00:00:00	7	Dirección del viento	4.83
171647	7	Sololá	701	Sololá	2	El tablón	8	Agosto	2023-08-14T00:00:00	2024-11-06T00:00:00	1	Precipitación	0
171648	7	Sololá	701	Sololá	2	El tablón	8	Agosto	2023-08-14T00:00:00	2024-11-06T00:00:00	8	Radiación solar	0
171649	7	Sololá	701	Sololá	2	El tablón	8	Agosto	2023-08-14T00:00:00	2024-11-06T01:00:00	2	Temperatura media	13.6
171650	7	Sololá	701	Sololá	2	El tablón	8	Agosto	2023-08-14T00:00:00	2024-11-06T01:00:00	4	Temperatura máxima	13.8
171651	7	Sololá	701	Sololá	2	El tablón	8	Agosto	2023-08-14T00:00:00	2024-11-06T01:00:00	3	Temperatura mínima	13.6
171652	7	Sololá	701	Sololá	2	El tablón	8	Agosto	2023-08-14T00:00:00	2024-11-06T01:00:00	5	Humedad	88
171653	7	Sololá	701	Sololá	2	El tablón	8	Agosto	2023-08-14T00:00:00	2024-11-06T01:00:00	6	Velocidad del viento	6.4
171654	7	Sololá	701	Sololá	2	El tablón	8	Agosto	2023-08-14T00:00:00	2024-11-06T01:00:00	7	Dirección del viento	6.44
171655	7	Sololá	701	Sololá	2	El tablón	8	Agosto	2023-08-14T00:00:00	2024-11-06T01:00:00	1	Precipitación	0
171656	7	Sololá	701	Sololá	2	El tablón	8	Agosto	2023-08-14T00:00:00	2024-11-06T01:00:00	8	Radiación solar	0
171657	7	Sololá	701	Sololá	2	El tablón	8	Agosto	2023-08-14T00:00:00	2024-11-06T02:00:00	2	Temperatura media	13.1
171658	7	Sololá	701	Sololá	2	El tablón	8	Agosto	2023-08-14T00:00:00	2024-11-06T02:00:00	4	Temperatura máxima	13.7
171659	7	Sololá	701	Sololá	2	El tablón	8	Agosto	2023-08-14T00:00:00	2024-11-06T02:00:00	3	Temperatura mínima	13.1
171660	7	Sololá	701	Sololá	2	El tablón	8	Agosto	2023-08-14T00:00:00	2024-11-06T02:00:00	5	Humedad	88
171661	7	Sololá	701	Sololá	2	El tablón	8	Agosto	2023-08-14T00:00:00	2024-11-06T02:00:00	6	Velocidad del viento	6.4
171662	7	Sololá	701	Sololá	2	El tablón	8	Agosto	2023-08-14T00:00:00	2024-11-06T02:00:00	7	Dirección del viento	6.44
171663	7	Sololá	701	Sololá	2	El tablón	8	Agosto	2023-08-14T00:00:00	2024-11-06T02:00:00	1	Precipitación	0
171664	7	Sololá	701	Sololá	2	El tablón	8	Agosto	2023-08-14T00:00:00	2024-11-06T02:00:00	8	Radiación solar	0
171665	7	Sololá	701	Sololá	2	El tablón	8	Agosto	2023-08-14T00:00:00	2024-11-06T03:00:00	2	Temperatura media	12.9
171666	7	Sololá	701	Sololá	2	El tablón	8	Agosto	2023-08-14T00:00:00	2024-11-06T03:00:00	4	Temperatura máxima	13.1
171667	7	Sololá	701	Sololá	2	El tablón	8	Agosto	2023-08-14T00:00:00	2024-11-06T03:00:00	3	Temperatura mínima	12.9
171668	7	Sololá	701	Sololá	2	El tablón	8	Agosto	2023-08-14T00:00:00	2024-11-06T03:00:00	5	Humedad	86
171669	7	Sololá	701	Sololá	2	El tablón	8	Agosto	2023-08-14T00:00:00	2024-11-06T03:00:00	6	Velocidad del viento	8
171670	7	Sololá	701	Sololá	2	El tablón	8	Agosto	2023-08-14T00:00:00	2024-11-06T03:00:00	7	Dirección del viento	8.05
171671	7	Sololá	701	Sololá	2	El tablón	8	Agosto	2023-08-14T00:00:00	2024-11-06T03:00:00	1	Precipitación	0
171672	7	Sololá	701	Sololá	2	El tablón	8	Agosto	2023-08-14T00:00:00	2024-11-06T03:00:00	8	Radiación solar	0
171673	7	Sololá	701	Sololá	2	El tablón	8	Agosto	2023-08-14T00:00:00	2024-11-06T04:00:00	2	Temperatura media	12.6
171674	7	Sololá	701	Sololá	2	El tablón	8	Agosto	2023-08-14T00:00:00	2024-11-06T04:00:00	4	Temperatura máxima	12.9
171675	7	Sololá	701	Sololá	2	El tablón	8	Agosto	2023-08-14T00:00:00	2024-11-06T04:00:00	3	Temperatura mínima	12.6
171676	7	Sololá	701	Sololá	2	El tablón	8	Agosto	2023-08-14T00:00:00	2024-11-06T04:00:00	5	Humedad	87
171677	7	Sololá	701	Sololá	2	El tablón	8	Agosto	2023-08-14T00:00:00	2024-11-06T04:00:00	6	Velocidad del viento	6.4
171678	7	Sololá	701	Sololá	2	El tablón	8	Agosto	2023-08-14T00:00:00	2024-11-06T04:00:00	7	Dirección del viento	6.44
171679	7	Sololá	701	Sololá	2	El tablón	8	Agosto	2023-08-14T00:00:00	2024-11-06T04:00:00	1	Precipitación	0
171680	7	Sololá	701	Sololá	2	El tablón	8	Agosto	2023-08-14T00:00:00	2024-11-06T04:00:00	8	Radiación solar	0
171681	7	Sololá	701	Sololá	2	El tablón	8	Agosto	2023-08-14T00:00:00	2024-11-06T05:00:00	2	Temperatura media	12.9
171682	7	Sololá	701	Sololá	2	El tablón	8	Agosto	2023-08-14T00:00:00	2024-11-06T05:00:00	4	Temperatura máxima	12.9
171683	7	Sololá	701	Sololá	2	El tablón	8	Agosto	2023-08-14T00:00:00	2024-11-06T05:00:00	3	Temperatura mínima	12.6
171684	7	Sololá	701	Sololá	2	El tablón	8	Agosto	2023-08-14T00:00:00	2024-11-06T05:00:00	5	Humedad	87
171685	7	Sololá	701	Sololá	2	El tablón	8	Agosto	2023-08-14T00:00:00	2024-11-06T05:00:00	6	Velocidad del viento	9.7
171686	7	Sololá	701	Sololá	2	El tablón	8	Agosto	2023-08-14T00:00:00	2024-11-06T05:00:00	7	Dirección del viento	9.66
171687	7	Sololá	701	Sololá	2	El tablón	8	Agosto	2023-08-14T00:00:00	2024-11-06T05:00:00	1	Precipitación	0
171688	7	Sololá	701	Sololá	2	El tablón	8	Agosto	2023-08-14T00:00:00	2024-11-06T05:00:00	8	Radiación solar	0
171689	7	Sololá	701	Sololá	2	El tablón	8	Agosto	2023-08-14T00:00:00	2024-11-06T06:00:00	2	Temperatura media	13
171690	7	Sololá	701	Sololá	2	El tablón	8	Agosto	2023-08-14T00:00:00	2024-11-06T06:00:00	4	Temperatura máxima	13.1
171691	7	Sololá	701	Sololá	2	El tablón	8	Agosto	2023-08-14T00:00:00	2024-11-06T06:00:00	3	Temperatura mínima	12.8
171692	7	Sololá	701	Sololá	2	El tablón	8	Agosto	2023-08-14T00:00:00	2024-11-06T06:00:00	5	Humedad	87
171693	7	Sololá	701	Sololá	2	El tablón	8	Agosto	2023-08-14T00:00:00	2024-11-06T06:00:00	6	Velocidad del viento	9.7
171694	7	Sololá	701	Sololá	2	El tablón	8	Agosto	2023-08-14T00:00:00	2024-11-06T06:00:00	7	Dirección del viento	9.66
171695	7	Sololá	701	Sololá	2	El tablón	8	Agosto	2023-08-14T00:00:00	2024-11-06T06:00:00	1	Precipitación	0
171696	7	Sololá	701	Sololá	2	El tablón	8	Agosto	2023-08-14T00:00:00	2024-11-06T06:00:00	8	Radiación solar	0
171697	7	Sololá	701	Sololá	2	El tablón	8	Agosto	2023-08-14T00:00:00	2024-11-06T07:00:00	2	Temperatura media	13.4
171698	7	Sololá	701	Sololá	2	El tablón	8	Agosto	2023-08-14T00:00:00	2024-11-06T07:00:00	4	Temperatura máxima	13.4
171699	7	Sololá	701	Sololá	2	El tablón	8	Agosto	2023-08-14T00:00:00	2024-11-06T07:00:00	3	Temperatura mínima	13
171700	7	Sololá	701	Sololá	2	El tablón	8	Agosto	2023-08-14T00:00:00	2024-11-06T07:00:00	5	Humedad	86
171701	7	Sololá	701	Sololá	2	El tablón	8	Agosto	2023-08-14T00:00:00	2024-11-06T07:00:00	6	Velocidad del viento	8
171702	7	Sololá	701	Sololá	2	El tablón	8	Agosto	2023-08-14T00:00:00	2024-11-06T07:00:00	7	Dirección del viento	8.05
171703	7	Sololá	701	Sololá	2	El tablón	8	Agosto	2023-08-14T00:00:00	2024-11-06T07:00:00	1	Precipitación	0
171704	7	Sololá	701	Sololá	2	El tablón	8	Agosto	2023-08-14T00:00:00	2024-11-06T07:00:00	8	Radiación solar	31
171705	7	Sololá	701	Sololá	2	El tablón	8	Agosto	2023-08-14T00:00:00	2024-11-06T08:00:00	2	Temperatura media	14.1
171706	7	Sololá	701	Sololá	2	El tablón	8	Agosto	2023-08-14T00:00:00	2024-11-06T08:00:00	4	Temperatura máxima	14.1
171707	7	Sololá	701	Sololá	2	El tablón	8	Agosto	2023-08-14T00:00:00	2024-11-06T08:00:00	3	Temperatura mínima	13.4
171708	7	Sololá	701	Sololá	2	El tablón	8	Agosto	2023-08-14T00:00:00	2024-11-06T08:00:00	5	Humedad	84
171709	7	Sololá	701	Sololá	2	El tablón	8	Agosto	2023-08-14T00:00:00	2024-11-06T08:00:00	6	Velocidad del viento	9.7
171710	7	Sololá	701	Sololá	2	El tablón	8	Agosto	2023-08-14T00:00:00	2024-11-06T08:00:00	7	Dirección del viento	9.66
171711	7	Sololá	701	Sololá	2	El tablón	8	Agosto	2023-08-14T00:00:00	2024-11-06T08:00:00	1	Precipitación	0
171712	7	Sololá	701	Sololá	2	El tablón	8	Agosto	2023-08-14T00:00:00	2024-11-06T08:00:00	8	Radiación solar	139
171713	7	Sololá	701	Sololá	2	El tablón	8	Agosto	2023-08-14T00:00:00	2024-11-06T09:00:00	2	Temperatura media	15
171714	7	Sololá	701	Sololá	2	El tablón	8	Agosto	2023-08-14T00:00:00	2024-11-06T09:00:00	4	Temperatura máxima	15
171715	7	Sololá	701	Sololá	2	El tablón	8	Agosto	2023-08-14T00:00:00	2024-11-06T09:00:00	3	Temperatura mínima	14
171716	7	Sololá	701	Sololá	2	El tablón	8	Agosto	2023-08-14T00:00:00	2024-11-06T09:00:00	5	Humedad	81
171717	7	Sololá	701	Sololá	2	El tablón	8	Agosto	2023-08-14T00:00:00	2024-11-06T09:00:00	6	Velocidad del viento	12.9
171718	7	Sololá	701	Sololá	2	El tablón	8	Agosto	2023-08-14T00:00:00	2024-11-06T09:00:00	7	Dirección del viento	12.87
171719	7	Sololá	701	Sololá	2	El tablón	8	Agosto	2023-08-14T00:00:00	2024-11-06T09:00:00	1	Precipitación	0
171720	7	Sololá	701	Sololá	2	El tablón	8	Agosto	2023-08-14T00:00:00	2024-11-06T09:00:00	8	Radiación solar	211
171721	7	Sololá	701	Sololá	2	El tablón	8	Agosto	2023-08-14T00:00:00	2024-11-06T10:00:00	2	Temperatura media	16.7
171722	7	Sololá	701	Sololá	2	El tablón	8	Agosto	2023-08-14T00:00:00	2024-11-06T10:00:00	4	Temperatura máxima	16.8
171723	7	Sololá	701	Sololá	2	El tablón	8	Agosto	2023-08-14T00:00:00	2024-11-06T10:00:00	3	Temperatura mínima	15
171724	7	Sololá	701	Sololá	2	El tablón	8	Agosto	2023-08-14T00:00:00	2024-11-06T10:00:00	5	Humedad	75
171725	7	Sololá	701	Sololá	2	El tablón	8	Agosto	2023-08-14T00:00:00	2024-11-06T10:00:00	6	Velocidad del viento	11.3
171726	7	Sololá	701	Sololá	2	El tablón	8	Agosto	2023-08-14T00:00:00	2024-11-06T10:00:00	7	Dirección del viento	11.27
171727	7	Sololá	701	Sololá	2	El tablón	8	Agosto	2023-08-14T00:00:00	2024-11-06T10:00:00	1	Precipitación	0
171728	7	Sololá	701	Sololá	2	El tablón	8	Agosto	2023-08-14T00:00:00	2024-11-06T10:00:00	8	Radiación solar	711
171729	7	Sololá	701	Sololá	2	El tablón	8	Agosto	2023-08-14T00:00:00	2024-11-06T11:00:00	2	Temperatura media	17.5
171730	7	Sololá	701	Sololá	2	El tablón	8	Agosto	2023-08-14T00:00:00	2024-11-06T11:00:00	4	Temperatura máxima	17.8
171731	7	Sololá	701	Sololá	2	El tablón	8	Agosto	2023-08-14T00:00:00	2024-11-06T11:00:00	3	Temperatura mínima	16.7
171732	7	Sololá	701	Sololá	2	El tablón	8	Agosto	2023-08-14T00:00:00	2024-11-06T11:00:00	5	Humedad	69
171733	7	Sololá	701	Sololá	2	El tablón	8	Agosto	2023-08-14T00:00:00	2024-11-06T11:00:00	6	Velocidad del viento	9.7
171734	7	Sololá	701	Sololá	2	El tablón	8	Agosto	2023-08-14T00:00:00	2024-11-06T11:00:00	7	Dirección del viento	9.66
171735	7	Sololá	701	Sololá	2	El tablón	8	Agosto	2023-08-14T00:00:00	2024-11-06T11:00:00	1	Precipitación	0
171736	7	Sololá	701	Sololá	2	El tablón	8	Agosto	2023-08-14T00:00:00	2024-11-06T11:00:00	8	Radiación solar	802
171737	7	Sololá	701	Sololá	2	El tablón	8	Agosto	2023-08-14T00:00:00	2024-11-06T12:00:00	2	Temperatura media	18.4
171738	7	Sololá	701	Sololá	2	El tablón	8	Agosto	2023-08-14T00:00:00	2024-11-06T12:00:00	4	Temperatura máxima	18.8
171739	7	Sololá	701	Sololá	2	El tablón	8	Agosto	2023-08-14T00:00:00	2024-11-06T12:00:00	3	Temperatura mínima	17.5
171740	7	Sololá	701	Sololá	2	El tablón	8	Agosto	2023-08-14T00:00:00	2024-11-06T12:00:00	5	Humedad	69
171741	7	Sololá	701	Sololá	2	El tablón	8	Agosto	2023-08-14T00:00:00	2024-11-06T12:00:00	6	Velocidad del viento	9.7
171742	7	Sololá	701	Sololá	2	El tablón	8	Agosto	2023-08-14T00:00:00	2024-11-06T12:00:00	7	Dirección del viento	9.66
171743	7	Sololá	701	Sololá	2	El tablón	8	Agosto	2023-08-14T00:00:00	2024-11-06T12:00:00	1	Precipitación	0
171744	7	Sololá	701	Sololá	2	El tablón	8	Agosto	2023-08-14T00:00:00	2024-11-06T12:00:00	8	Radiación solar	1033
171745	7	Sololá	701	Sololá	2	El tablón	8	Agosto	2023-08-14T00:00:00	2024-11-06T13:00:00	2	Temperatura media	19.4
171746	7	Sololá	701	Sololá	2	El tablón	8	Agosto	2023-08-14T00:00:00	2024-11-06T13:00:00	4	Temperatura máxima	19.4
171747	7	Sololá	701	Sololá	2	El tablón	8	Agosto	2023-08-14T00:00:00	2024-11-06T13:00:00	3	Temperatura mínima	18.4
171748	7	Sololá	701	Sololá	2	El tablón	8	Agosto	2023-08-14T00:00:00	2024-11-06T13:00:00	5	Humedad	63
171749	7	Sololá	701	Sololá	2	El tablón	8	Agosto	2023-08-14T00:00:00	2024-11-06T13:00:00	6	Velocidad del viento	9.7
171750	7	Sololá	701	Sololá	2	El tablón	8	Agosto	2023-08-14T00:00:00	2024-11-06T13:00:00	7	Dirección del viento	9.66
171751	7	Sololá	701	Sololá	2	El tablón	8	Agosto	2023-08-14T00:00:00	2024-11-06T13:00:00	1	Precipitación	0
171752	7	Sololá	701	Sololá	2	El tablón	8	Agosto	2023-08-14T00:00:00	2024-11-06T13:00:00	8	Radiación solar	995
171753	7	Sololá	701	Sololá	2	El tablón	8	Agosto	2023-08-14T00:00:00	2024-11-06T14:00:00	2	Temperatura media	19.7
171754	7	Sololá	701	Sololá	2	El tablón	8	Agosto	2023-08-14T00:00:00	2024-11-06T14:00:00	4	Temperatura máxima	20
171755	7	Sololá	701	Sololá	2	El tablón	8	Agosto	2023-08-14T00:00:00	2024-11-06T14:00:00	3	Temperatura mínima	19.3
171756	7	Sololá	701	Sololá	2	El tablón	8	Agosto	2023-08-14T00:00:00	2024-11-06T14:00:00	5	Humedad	65
171757	7	Sololá	701	Sololá	2	El tablón	8	Agosto	2023-08-14T00:00:00	2024-11-06T14:00:00	6	Velocidad del viento	9.7
171758	7	Sololá	701	Sololá	2	El tablón	8	Agosto	2023-08-14T00:00:00	2024-11-06T14:00:00	7	Dirección del viento	9.66
171759	7	Sololá	701	Sololá	2	El tablón	8	Agosto	2023-08-14T00:00:00	2024-11-06T14:00:00	1	Precipitación	0
171760	7	Sololá	701	Sololá	2	El tablón	8	Agosto	2023-08-14T00:00:00	2024-11-06T14:00:00	8	Radiación solar	910
171761	7	Sololá	701	Sololá	2	El tablón	8	Agosto	2023-08-14T00:00:00	2024-11-06T15:00:00	2	Temperatura media	17.7
171762	7	Sololá	701	Sololá	2	El tablón	8	Agosto	2023-08-14T00:00:00	2024-11-06T15:00:00	4	Temperatura máxima	19.7
171763	7	Sololá	701	Sololá	2	El tablón	8	Agosto	2023-08-14T00:00:00	2024-11-06T15:00:00	3	Temperatura mínima	17.7
171764	7	Sololá	701	Sololá	2	El tablón	8	Agosto	2023-08-14T00:00:00	2024-11-06T15:00:00	5	Humedad	74
171765	7	Sololá	701	Sololá	2	El tablón	8	Agosto	2023-08-14T00:00:00	2024-11-06T15:00:00	6	Velocidad del viento	11.3
171766	7	Sololá	701	Sololá	2	El tablón	8	Agosto	2023-08-14T00:00:00	2024-11-06T15:00:00	7	Dirección del viento	11.27
171767	7	Sololá	701	Sololá	2	El tablón	8	Agosto	2023-08-14T00:00:00	2024-11-06T15:00:00	1	Precipitación	0
171768	7	Sololá	701	Sololá	2	El tablón	8	Agosto	2023-08-14T00:00:00	2024-11-06T15:00:00	8	Radiación solar	348
171769	7	Sololá	701	Sololá	2	El tablón	8	Agosto	2023-08-14T00:00:00	2024-11-06T16:00:00	2	Temperatura media	17.9
171770	7	Sololá	701	Sololá	2	El tablón	8	Agosto	2023-08-14T00:00:00	2024-11-06T16:00:00	4	Temperatura máxima	18.7
171771	7	Sololá	701	Sololá	2	El tablón	8	Agosto	2023-08-14T00:00:00	2024-11-06T16:00:00	3	Temperatura mínima	17.4
171772	7	Sololá	701	Sololá	2	El tablón	8	Agosto	2023-08-14T00:00:00	2024-11-06T16:00:00	5	Humedad	76
171773	7	Sololá	701	Sololá	2	El tablón	8	Agosto	2023-08-14T00:00:00	2024-11-06T16:00:00	6	Velocidad del viento	9.7
171774	7	Sololá	701	Sololá	2	El tablón	8	Agosto	2023-08-14T00:00:00	2024-11-06T16:00:00	7	Dirección del viento	9.66
171775	7	Sololá	701	Sololá	2	El tablón	8	Agosto	2023-08-14T00:00:00	2024-11-06T16:00:00	1	Precipitación	0
171776	7	Sololá	701	Sololá	2	El tablón	8	Agosto	2023-08-14T00:00:00	2024-11-06T16:00:00	8	Radiación solar	432
171777	7	Sololá	701	Sololá	2	El tablón	8	Agosto	2023-08-14T00:00:00	2024-11-06T17:00:00	2	Temperatura media	16.9
171778	7	Sololá	701	Sololá	2	El tablón	8	Agosto	2023-08-14T00:00:00	2024-11-06T17:00:00	4	Temperatura máxima	17.9
171779	7	Sololá	701	Sololá	2	El tablón	8	Agosto	2023-08-14T00:00:00	2024-11-06T17:00:00	3	Temperatura mínima	16.9
171780	7	Sololá	701	Sololá	2	El tablón	8	Agosto	2023-08-14T00:00:00	2024-11-06T17:00:00	5	Humedad	77
171781	7	Sololá	701	Sololá	2	El tablón	8	Agosto	2023-08-14T00:00:00	2024-11-06T17:00:00	6	Velocidad del viento	6.4
171782	7	Sololá	701	Sololá	2	El tablón	8	Agosto	2023-08-14T00:00:00	2024-11-06T17:00:00	7	Dirección del viento	6.44
171783	7	Sololá	701	Sololá	2	El tablón	8	Agosto	2023-08-14T00:00:00	2024-11-06T17:00:00	1	Precipitación	0
171784	7	Sololá	701	Sololá	2	El tablón	8	Agosto	2023-08-14T00:00:00	2024-11-06T17:00:00	8	Radiación solar	146
171785	7	Sololá	701	Sololá	2	El tablón	8	Agosto	2023-08-14T00:00:00	2024-11-06T18:00:00	2	Temperatura media	15.6
171786	7	Sololá	701	Sololá	2	El tablón	8	Agosto	2023-08-14T00:00:00	2024-11-06T18:00:00	4	Temperatura máxima	16.9
171787	7	Sololá	701	Sololá	2	El tablón	8	Agosto	2023-08-14T00:00:00	2024-11-06T18:00:00	3	Temperatura mínima	15.6
171788	7	Sololá	701	Sololá	2	El tablón	8	Agosto	2023-08-14T00:00:00	2024-11-06T18:00:00	5	Humedad	83
171789	7	Sololá	701	Sololá	2	El tablón	8	Agosto	2023-08-14T00:00:00	2024-11-06T18:00:00	6	Velocidad del viento	6.4
171790	7	Sololá	701	Sololá	2	El tablón	8	Agosto	2023-08-14T00:00:00	2024-11-06T18:00:00	7	Dirección del viento	6.44
171791	7	Sololá	701	Sololá	2	El tablón	8	Agosto	2023-08-14T00:00:00	2024-11-06T18:00:00	1	Precipitación	0
171792	7	Sololá	701	Sololá	2	El tablón	8	Agosto	2023-08-14T00:00:00	2024-11-06T18:00:00	8	Radiación solar	69
171793	7	Sololá	701	Sololá	2	El tablón	8	Agosto	2023-08-14T00:00:00	2024-11-06T19:00:00	2	Temperatura media	14.6
171794	7	Sololá	701	Sololá	2	El tablón	8	Agosto	2023-08-14T00:00:00	2024-11-06T19:00:00	4	Temperatura máxima	15.6
171795	7	Sololá	701	Sololá	2	El tablón	8	Agosto	2023-08-14T00:00:00	2024-11-06T19:00:00	3	Temperatura mínima	14.6
171796	7	Sololá	701	Sololá	2	El tablón	8	Agosto	2023-08-14T00:00:00	2024-11-06T19:00:00	5	Humedad	85
171797	7	Sololá	701	Sololá	2	El tablón	8	Agosto	2023-08-14T00:00:00	2024-11-06T19:00:00	6	Velocidad del viento	3.2
171798	7	Sololá	701	Sololá	2	El tablón	8	Agosto	2023-08-14T00:00:00	2024-11-06T19:00:00	7	Dirección del viento	3.22
171799	7	Sololá	701	Sololá	2	El tablón	8	Agosto	2023-08-14T00:00:00	2024-11-06T19:00:00	1	Precipitación	0
171800	7	Sololá	701	Sololá	2	El tablón	8	Agosto	2023-08-14T00:00:00	2024-11-06T19:00:00	8	Radiación solar	0
171801	7	Sololá	701	Sololá	2	El tablón	8	Agosto	2023-08-14T00:00:00	2024-11-06T20:00:00	2	Temperatura media	14.3
171802	7	Sololá	701	Sololá	2	El tablón	8	Agosto	2023-08-14T00:00:00	2024-11-06T20:00:00	4	Temperatura máxima	14.6
171803	7	Sololá	701	Sololá	2	El tablón	8	Agosto	2023-08-14T00:00:00	2024-11-06T20:00:00	3	Temperatura mínima	14.2
171804	7	Sololá	701	Sololá	2	El tablón	8	Agosto	2023-08-14T00:00:00	2024-11-06T20:00:00	5	Humedad	86
171805	7	Sololá	701	Sololá	2	El tablón	8	Agosto	2023-08-14T00:00:00	2024-11-06T20:00:00	6	Velocidad del viento	4.8
171806	7	Sololá	701	Sololá	2	El tablón	8	Agosto	2023-08-14T00:00:00	2024-11-06T20:00:00	7	Dirección del viento	4.83
171807	7	Sololá	701	Sololá	2	El tablón	8	Agosto	2023-08-14T00:00:00	2024-11-06T20:00:00	1	Precipitación	0
171808	7	Sololá	701	Sololá	2	El tablón	8	Agosto	2023-08-14T00:00:00	2024-11-06T20:00:00	8	Radiación solar	0
171809	7	Sololá	701	Sololá	2	El tablón	8	Agosto	2023-08-14T00:00:00	2024-11-06T21:00:00	2	Temperatura media	13.8
171810	7	Sololá	701	Sololá	2	El tablón	8	Agosto	2023-08-14T00:00:00	2024-11-06T21:00:00	4	Temperatura máxima	14.5
171811	7	Sololá	701	Sololá	2	El tablón	8	Agosto	2023-08-14T00:00:00	2024-11-06T21:00:00	3	Temperatura mínima	13.8
171812	7	Sololá	701	Sololá	2	El tablón	8	Agosto	2023-08-14T00:00:00	2024-11-06T21:00:00	5	Humedad	88
171813	7	Sololá	701	Sololá	2	El tablón	8	Agosto	2023-08-14T00:00:00	2024-11-06T21:00:00	6	Velocidad del viento	3.2
171814	7	Sololá	701	Sololá	2	El tablón	8	Agosto	2023-08-14T00:00:00	2024-11-06T21:00:00	7	Dirección del viento	3.22
171815	7	Sololá	701	Sololá	2	El tablón	8	Agosto	2023-08-14T00:00:00	2024-11-06T21:00:00	1	Precipitación	1.4
171816	7	Sololá	701	Sololá	2	El tablón	8	Agosto	2023-08-14T00:00:00	2024-11-06T21:00:00	8	Radiación solar	0
171817	7	Sololá	701	Sololá	2	El tablón	8	Agosto	2023-08-14T00:00:00	2024-11-06T22:00:00	2	Temperatura media	13.6
171818	7	Sololá	701	Sololá	2	El tablón	8	Agosto	2023-08-14T00:00:00	2024-11-06T22:00:00	4	Temperatura máxima	13.9
171819	7	Sololá	701	Sololá	2	El tablón	8	Agosto	2023-08-14T00:00:00	2024-11-06T22:00:00	3	Temperatura mínima	13.6
171820	7	Sololá	701	Sololá	2	El tablón	8	Agosto	2023-08-14T00:00:00	2024-11-06T22:00:00	5	Humedad	88
171821	7	Sololá	701	Sololá	2	El tablón	8	Agosto	2023-08-14T00:00:00	2024-11-06T22:00:00	6	Velocidad del viento	8
171822	7	Sololá	701	Sololá	2	El tablón	8	Agosto	2023-08-14T00:00:00	2024-11-06T22:00:00	7	Dirección del viento	8.05
171823	7	Sololá	701	Sololá	2	El tablón	8	Agosto	2023-08-14T00:00:00	2024-11-06T22:00:00	1	Precipitación	0.4
171824	7	Sololá	701	Sololá	2	El tablón	8	Agosto	2023-08-14T00:00:00	2024-11-06T22:00:00	8	Radiación solar	0
171825	7	Sololá	701	Sololá	2	El tablón	8	Agosto	2023-08-14T00:00:00	2024-11-06T23:00:00	2	Temperatura media	13.6
171826	7	Sololá	701	Sololá	2	El tablón	8	Agosto	2023-08-14T00:00:00	2024-11-06T23:00:00	4	Temperatura máxima	13.7
171827	7	Sololá	701	Sololá	2	El tablón	8	Agosto	2023-08-14T00:00:00	2024-11-06T23:00:00	3	Temperatura mínima	13.5
171828	7	Sololá	701	Sololá	2	El tablón	8	Agosto	2023-08-14T00:00:00	2024-11-06T23:00:00	5	Humedad	88
171829	7	Sololá	701	Sololá	2	El tablón	8	Agosto	2023-08-14T00:00:00	2024-11-06T23:00:00	6	Velocidad del viento	4.8
171830	7	Sololá	701	Sololá	2	El tablón	8	Agosto	2023-08-14T00:00:00	2024-11-06T23:00:00	7	Dirección del viento	4.83
171831	7	Sololá	701	Sololá	2	El tablón	8	Agosto	2023-08-14T00:00:00	2024-11-06T23:00:00	1	Precipitación	0
171832	7	Sololá	701	Sololá	2	El tablón	8	Agosto	2023-08-14T00:00:00	2024-11-06T23:00:00	8	Radiación solar	0
171833	7	Sololá	701	Sololá	2	El tablón	8	Agosto	2023-08-15T00:00:00	2024-11-06T00:00:00	2	Temperatura media	12.9
171834	7	Sololá	701	Sololá	2	El tablón	8	Agosto	2023-08-15T00:00:00	2024-11-06T00:00:00	4	Temperatura máxima	13.6
171835	7	Sololá	701	Sololá	2	El tablón	8	Agosto	2023-08-15T00:00:00	2024-11-06T00:00:00	3	Temperatura mínima	12.9
171836	7	Sololá	701	Sololá	2	El tablón	8	Agosto	2023-08-15T00:00:00	2024-11-06T00:00:00	5	Humedad	88
171837	7	Sololá	701	Sololá	2	El tablón	8	Agosto	2023-08-15T00:00:00	2024-11-06T00:00:00	6	Velocidad del viento	1.6
171838	7	Sololá	701	Sololá	2	El tablón	8	Agosto	2023-08-15T00:00:00	2024-11-06T00:00:00	7	Dirección del viento	1.61
171839	7	Sololá	701	Sololá	2	El tablón	8	Agosto	2023-08-15T00:00:00	2024-11-06T00:00:00	1	Precipitación	8
171840	7	Sololá	701	Sololá	2	El tablón	8	Agosto	2023-08-15T00:00:00	2024-11-06T00:00:00	8	Radiación solar	0
171841	7	Sololá	701	Sololá	2	El tablón	8	Agosto	2023-08-15T00:00:00	2024-11-06T01:00:00	2	Temperatura media	12.3
171842	7	Sololá	701	Sololá	2	El tablón	8	Agosto	2023-08-15T00:00:00	2024-11-06T01:00:00	4	Temperatura máxima	12.9
171843	7	Sololá	701	Sololá	2	El tablón	8	Agosto	2023-08-15T00:00:00	2024-11-06T01:00:00	3	Temperatura mínima	12.3
171844	7	Sololá	701	Sololá	2	El tablón	8	Agosto	2023-08-15T00:00:00	2024-11-06T01:00:00	5	Humedad	88
171845	7	Sololá	701	Sololá	2	El tablón	8	Agosto	2023-08-15T00:00:00	2024-11-06T01:00:00	6	Velocidad del viento	8
171846	7	Sololá	701	Sololá	2	El tablón	8	Agosto	2023-08-15T00:00:00	2024-11-06T01:00:00	7	Dirección del viento	8.05
171847	7	Sololá	701	Sololá	2	El tablón	8	Agosto	2023-08-15T00:00:00	2024-11-06T01:00:00	1	Precipitación	2
171848	7	Sololá	701	Sololá	2	El tablón	8	Agosto	2023-08-15T00:00:00	2024-11-06T01:00:00	8	Radiación solar	0
171849	7	Sololá	701	Sololá	2	El tablón	8	Agosto	2023-08-15T00:00:00	2024-11-06T02:00:00	2	Temperatura media	12.1
171850	7	Sololá	701	Sololá	2	El tablón	8	Agosto	2023-08-15T00:00:00	2024-11-06T02:00:00	4	Temperatura máxima	12.3
171851	7	Sololá	701	Sololá	2	El tablón	8	Agosto	2023-08-15T00:00:00	2024-11-06T02:00:00	3	Temperatura mínima	12.1
171852	7	Sololá	701	Sololá	2	El tablón	8	Agosto	2023-08-15T00:00:00	2024-11-06T02:00:00	5	Humedad	88
171853	7	Sololá	701	Sololá	2	El tablón	8	Agosto	2023-08-15T00:00:00	2024-11-06T02:00:00	6	Velocidad del viento	8
171854	7	Sololá	701	Sololá	2	El tablón	8	Agosto	2023-08-15T00:00:00	2024-11-06T02:00:00	7	Dirección del viento	8.05
171855	7	Sololá	701	Sololá	2	El tablón	8	Agosto	2023-08-15T00:00:00	2024-11-06T02:00:00	1	Precipitación	0
171856	7	Sololá	701	Sololá	2	El tablón	8	Agosto	2023-08-15T00:00:00	2024-11-06T02:00:00	8	Radiación solar	0
171857	7	Sololá	701	Sololá	2	El tablón	8	Agosto	2023-08-15T00:00:00	2024-11-06T03:00:00	2	Temperatura media	11.9
171858	7	Sololá	701	Sololá	2	El tablón	8	Agosto	2023-08-15T00:00:00	2024-11-06T03:00:00	4	Temperatura máxima	12.1
171859	7	Sololá	701	Sololá	2	El tablón	8	Agosto	2023-08-15T00:00:00	2024-11-06T03:00:00	3	Temperatura mínima	11.9
171860	7	Sololá	701	Sololá	2	El tablón	8	Agosto	2023-08-15T00:00:00	2024-11-06T03:00:00	5	Humedad	88
171861	7	Sololá	701	Sololá	2	El tablón	8	Agosto	2023-08-15T00:00:00	2024-11-06T03:00:00	6	Velocidad del viento	4.8
171862	7	Sololá	701	Sololá	2	El tablón	8	Agosto	2023-08-15T00:00:00	2024-11-06T03:00:00	7	Dirección del viento	4.83
171863	7	Sololá	701	Sololá	2	El tablón	8	Agosto	2023-08-15T00:00:00	2024-11-06T03:00:00	1	Precipitación	0
171864	7	Sololá	701	Sololá	2	El tablón	8	Agosto	2023-08-15T00:00:00	2024-11-06T03:00:00	8	Radiación solar	0
171865	7	Sololá	701	Sololá	2	El tablón	8	Agosto	2023-08-15T00:00:00	2024-11-06T04:00:00	2	Temperatura media	11.9
171866	7	Sololá	701	Sololá	2	El tablón	8	Agosto	2023-08-15T00:00:00	2024-11-06T04:00:00	4	Temperatura máxima	12
171867	7	Sololá	701	Sololá	2	El tablón	8	Agosto	2023-08-15T00:00:00	2024-11-06T04:00:00	3	Temperatura mínima	11.9
171868	7	Sololá	701	Sololá	2	El tablón	8	Agosto	2023-08-15T00:00:00	2024-11-06T04:00:00	5	Humedad	88
171869	7	Sololá	701	Sololá	2	El tablón	8	Agosto	2023-08-15T00:00:00	2024-11-06T04:00:00	6	Velocidad del viento	4.8
171870	7	Sololá	701	Sololá	2	El tablón	8	Agosto	2023-08-15T00:00:00	2024-11-06T04:00:00	7	Dirección del viento	4.83
171871	7	Sololá	701	Sololá	2	El tablón	8	Agosto	2023-08-15T00:00:00	2024-11-06T04:00:00	1	Precipitación	0
171872	7	Sololá	701	Sololá	2	El tablón	8	Agosto	2023-08-15T00:00:00	2024-11-06T04:00:00	8	Radiación solar	0
171873	7	Sololá	701	Sololá	2	El tablón	8	Agosto	2023-08-15T00:00:00	2024-11-06T05:00:00	2	Temperatura media	11.9
171874	7	Sololá	701	Sololá	2	El tablón	8	Agosto	2023-08-15T00:00:00	2024-11-06T05:00:00	4	Temperatura máxima	12
171875	7	Sololá	701	Sololá	2	El tablón	8	Agosto	2023-08-15T00:00:00	2024-11-06T05:00:00	3	Temperatura mínima	11.9
171876	7	Sololá	701	Sololá	2	El tablón	8	Agosto	2023-08-15T00:00:00	2024-11-06T05:00:00	5	Humedad	88
171877	7	Sololá	701	Sololá	2	El tablón	8	Agosto	2023-08-15T00:00:00	2024-11-06T05:00:00	6	Velocidad del viento	6.4
171878	7	Sololá	701	Sololá	2	El tablón	8	Agosto	2023-08-15T00:00:00	2024-11-06T05:00:00	7	Dirección del viento	6.44
171879	7	Sololá	701	Sololá	2	El tablón	8	Agosto	2023-08-15T00:00:00	2024-11-06T05:00:00	1	Precipitación	0
171880	7	Sololá	701	Sololá	2	El tablón	8	Agosto	2023-08-15T00:00:00	2024-11-06T05:00:00	8	Radiación solar	0
171881	7	Sololá	701	Sololá	2	El tablón	8	Agosto	2023-08-15T00:00:00	2024-11-06T06:00:00	2	Temperatura media	12.2
171882	7	Sololá	701	Sololá	2	El tablón	8	Agosto	2023-08-15T00:00:00	2024-11-06T06:00:00	4	Temperatura máxima	12.2
171883	7	Sololá	701	Sololá	2	El tablón	8	Agosto	2023-08-15T00:00:00	2024-11-06T06:00:00	3	Temperatura mínima	11.8
171884	7	Sololá	701	Sololá	2	El tablón	8	Agosto	2023-08-15T00:00:00	2024-11-06T06:00:00	5	Humedad	88
171885	7	Sololá	701	Sololá	2	El tablón	8	Agosto	2023-08-15T00:00:00	2024-11-06T06:00:00	6	Velocidad del viento	8
171886	7	Sololá	701	Sololá	2	El tablón	8	Agosto	2023-08-15T00:00:00	2024-11-06T06:00:00	7	Dirección del viento	8.05
171887	7	Sololá	701	Sololá	2	El tablón	8	Agosto	2023-08-15T00:00:00	2024-11-06T06:00:00	1	Precipitación	0
171888	7	Sololá	701	Sololá	2	El tablón	8	Agosto	2023-08-15T00:00:00	2024-11-06T06:00:00	8	Radiación solar	1
171889	7	Sololá	701	Sololá	2	El tablón	8	Agosto	2023-08-15T00:00:00	2024-11-06T07:00:00	2	Temperatura media	13.2
171890	7	Sololá	701	Sololá	2	El tablón	8	Agosto	2023-08-15T00:00:00	2024-11-06T07:00:00	4	Temperatura máxima	13.2
171891	7	Sololá	701	Sololá	2	El tablón	8	Agosto	2023-08-15T00:00:00	2024-11-06T07:00:00	3	Temperatura mínima	12.2
171892	7	Sololá	701	Sololá	2	El tablón	8	Agosto	2023-08-15T00:00:00	2024-11-06T07:00:00	5	Humedad	85
171893	7	Sololá	701	Sololá	2	El tablón	8	Agosto	2023-08-15T00:00:00	2024-11-06T07:00:00	6	Velocidad del viento	6.4
171894	7	Sololá	701	Sololá	2	El tablón	8	Agosto	2023-08-15T00:00:00	2024-11-06T07:00:00	7	Dirección del viento	6.44
171895	7	Sololá	701	Sololá	2	El tablón	8	Agosto	2023-08-15T00:00:00	2024-11-06T07:00:00	1	Precipitación	0
171896	7	Sololá	701	Sololá	2	El tablón	8	Agosto	2023-08-15T00:00:00	2024-11-06T07:00:00	8	Radiación solar	57
171897	7	Sololá	701	Sololá	2	El tablón	8	Agosto	2023-08-15T00:00:00	2024-11-06T08:00:00	2	Temperatura media	16.3
171898	7	Sololá	701	Sololá	2	El tablón	8	Agosto	2023-08-15T00:00:00	2024-11-06T08:00:00	4	Temperatura máxima	16.3
171899	7	Sololá	701	Sololá	2	El tablón	8	Agosto	2023-08-15T00:00:00	2024-11-06T08:00:00	3	Temperatura mínima	13.2
171900	7	Sololá	701	Sololá	2	El tablón	8	Agosto	2023-08-15T00:00:00	2024-11-06T08:00:00	5	Humedad	72
171901	7	Sololá	701	Sololá	2	El tablón	8	Agosto	2023-08-15T00:00:00	2024-11-06T08:00:00	6	Velocidad del viento	3.2
171902	7	Sololá	701	Sololá	2	El tablón	8	Agosto	2023-08-15T00:00:00	2024-11-06T08:00:00	7	Dirección del viento	3.22
171903	7	Sololá	701	Sololá	2	El tablón	8	Agosto	2023-08-15T00:00:00	2024-11-06T08:00:00	1	Precipitación	0
171904	7	Sololá	701	Sololá	2	El tablón	8	Agosto	2023-08-15T00:00:00	2024-11-06T08:00:00	8	Radiación solar	267
171905	7	Sololá	701	Sololá	2	El tablón	8	Agosto	2023-08-15T00:00:00	2024-11-06T09:00:00	2	Temperatura media	18.4
171906	7	Sololá	701	Sololá	2	El tablón	8	Agosto	2023-08-15T00:00:00	2024-11-06T09:00:00	4	Temperatura máxima	18.4
171907	7	Sololá	701	Sololá	2	El tablón	8	Agosto	2023-08-15T00:00:00	2024-11-06T09:00:00	3	Temperatura mínima	16.2
171908	7	Sololá	701	Sololá	2	El tablón	8	Agosto	2023-08-15T00:00:00	2024-11-06T09:00:00	5	Humedad	66
171909	7	Sololá	701	Sololá	2	El tablón	8	Agosto	2023-08-15T00:00:00	2024-11-06T09:00:00	6	Velocidad del viento	3.2
171910	7	Sololá	701	Sololá	2	El tablón	8	Agosto	2023-08-15T00:00:00	2024-11-06T09:00:00	7	Dirección del viento	3.22
171911	7	Sololá	701	Sololá	2	El tablón	8	Agosto	2023-08-15T00:00:00	2024-11-06T09:00:00	1	Precipitación	0
171912	7	Sololá	701	Sololá	2	El tablón	8	Agosto	2023-08-15T00:00:00	2024-11-06T09:00:00	8	Radiación solar	583
171913	7	Sololá	701	Sololá	2	El tablón	8	Agosto	2023-08-15T00:00:00	2024-11-06T10:00:00	2	Temperatura media	14.8
171914	7	Sololá	701	Sololá	2	El tablón	8	Agosto	2023-08-15T00:00:00	2024-11-06T10:00:00	4	Temperatura máxima	18.6
171915	7	Sololá	701	Sololá	2	El tablón	8	Agosto	2023-08-15T00:00:00	2024-11-06T10:00:00	3	Temperatura mínima	14.8
171916	7	Sololá	701	Sololá	2	El tablón	8	Agosto	2023-08-15T00:00:00	2024-11-06T10:00:00	5	Humedad	82
171917	7	Sololá	701	Sololá	2	El tablón	8	Agosto	2023-08-15T00:00:00	2024-11-06T10:00:00	6	Velocidad del viento	6.4
171918	7	Sololá	701	Sololá	2	El tablón	8	Agosto	2023-08-15T00:00:00	2024-11-06T10:00:00	7	Dirección del viento	6.44
171919	7	Sololá	701	Sololá	2	El tablón	8	Agosto	2023-08-15T00:00:00	2024-11-06T10:00:00	1	Precipitación	0
171920	7	Sololá	701	Sololá	2	El tablón	8	Agosto	2023-08-15T00:00:00	2024-11-06T10:00:00	8	Radiación solar	141
171921	7	Sololá	701	Sololá	2	El tablón	8	Agosto	2023-08-15T00:00:00	2024-11-06T11:00:00	2	Temperatura media	15.4
171922	7	Sololá	701	Sololá	2	El tablón	8	Agosto	2023-08-15T00:00:00	2024-11-06T11:00:00	4	Temperatura máxima	15.5
171923	7	Sololá	701	Sololá	2	El tablón	8	Agosto	2023-08-15T00:00:00	2024-11-06T11:00:00	3	Temperatura mínima	14.7
171924	7	Sololá	701	Sololá	2	El tablón	8	Agosto	2023-08-15T00:00:00	2024-11-06T11:00:00	5	Humedad	81
171925	7	Sololá	701	Sololá	2	El tablón	8	Agosto	2023-08-15T00:00:00	2024-11-06T11:00:00	6	Velocidad del viento	6.4
171926	7	Sololá	701	Sololá	2	El tablón	8	Agosto	2023-08-15T00:00:00	2024-11-06T11:00:00	7	Dirección del viento	6.44
171927	7	Sololá	701	Sololá	2	El tablón	8	Agosto	2023-08-15T00:00:00	2024-11-06T11:00:00	1	Precipitación	0
171928	7	Sololá	701	Sololá	2	El tablón	8	Agosto	2023-08-15T00:00:00	2024-11-06T11:00:00	8	Radiación solar	174
171929	7	Sololá	701	Sololá	2	El tablón	8	Agosto	2023-08-15T00:00:00	2024-11-06T12:00:00	2	Temperatura media	16.5
171930	7	Sololá	701	Sololá	2	El tablón	8	Agosto	2023-08-15T00:00:00	2024-11-06T12:00:00	4	Temperatura máxima	16.6
171931	7	Sololá	701	Sololá	2	El tablón	8	Agosto	2023-08-15T00:00:00	2024-11-06T12:00:00	3	Temperatura mínima	15.4
171932	7	Sololá	701	Sololá	2	El tablón	8	Agosto	2023-08-15T00:00:00	2024-11-06T12:00:00	5	Humedad	76
171933	7	Sololá	701	Sololá	2	El tablón	8	Agosto	2023-08-15T00:00:00	2024-11-06T12:00:00	6	Velocidad del viento	6.4
171934	7	Sololá	701	Sololá	2	El tablón	8	Agosto	2023-08-15T00:00:00	2024-11-06T12:00:00	7	Dirección del viento	6.44
171935	7	Sololá	701	Sololá	2	El tablón	8	Agosto	2023-08-15T00:00:00	2024-11-06T12:00:00	1	Precipitación	0
171936	7	Sololá	701	Sololá	2	El tablón	8	Agosto	2023-08-15T00:00:00	2024-11-06T12:00:00	8	Radiación solar	341
171937	7	Sololá	701	Sololá	2	El tablón	8	Agosto	2023-08-15T00:00:00	2024-11-06T13:00:00	2	Temperatura media	16.1
171938	7	Sololá	701	Sololá	2	El tablón	8	Agosto	2023-08-15T00:00:00	2024-11-06T13:00:00	4	Temperatura máxima	18.1
171939	7	Sololá	701	Sololá	2	El tablón	8	Agosto	2023-08-15T00:00:00	2024-11-06T13:00:00	3	Temperatura mínima	16.1
171940	7	Sololá	701	Sololá	2	El tablón	8	Agosto	2023-08-15T00:00:00	2024-11-06T13:00:00	5	Humedad	82
171941	7	Sololá	701	Sololá	2	El tablón	8	Agosto	2023-08-15T00:00:00	2024-11-06T13:00:00	6	Velocidad del viento	6.4
171942	7	Sololá	701	Sololá	2	El tablón	8	Agosto	2023-08-15T00:00:00	2024-11-06T13:00:00	7	Dirección del viento	6.44
171943	7	Sololá	701	Sololá	2	El tablón	8	Agosto	2023-08-15T00:00:00	2024-11-06T13:00:00	1	Precipitación	0
171944	7	Sololá	701	Sololá	2	El tablón	8	Agosto	2023-08-15T00:00:00	2024-11-06T13:00:00	8	Radiación solar	395
171945	7	Sololá	701	Sololá	2	El tablón	8	Agosto	2023-08-15T00:00:00	2024-11-06T14:00:00	2	Temperatura media	15.1
171946	7	Sololá	701	Sololá	2	El tablón	8	Agosto	2023-08-15T00:00:00	2024-11-06T14:00:00	4	Temperatura máxima	16.1
171947	7	Sololá	701	Sololá	2	El tablón	8	Agosto	2023-08-15T00:00:00	2024-11-06T14:00:00	3	Temperatura mínima	14.9
171948	7	Sololá	701	Sololá	2	El tablón	8	Agosto	2023-08-15T00:00:00	2024-11-06T14:00:00	5	Humedad	84
171949	7	Sololá	701	Sololá	2	El tablón	8	Agosto	2023-08-15T00:00:00	2024-11-06T14:00:00	6	Velocidad del viento	4.8
171950	7	Sololá	701	Sololá	2	El tablón	8	Agosto	2023-08-15T00:00:00	2024-11-06T14:00:00	7	Dirección del viento	4.83
171951	7	Sololá	701	Sololá	2	El tablón	8	Agosto	2023-08-15T00:00:00	2024-11-06T14:00:00	1	Precipitación	0
171952	7	Sololá	701	Sololá	2	El tablón	8	Agosto	2023-08-15T00:00:00	2024-11-06T14:00:00	8	Radiación solar	57
171953	7	Sololá	701	Sololá	2	El tablón	8	Agosto	2023-08-15T00:00:00	2024-11-06T15:00:00	2	Temperatura media	16.4
171954	7	Sololá	701	Sololá	2	El tablón	8	Agosto	2023-08-15T00:00:00	2024-11-06T15:00:00	4	Temperatura máxima	16.4
171955	7	Sololá	701	Sololá	2	El tablón	8	Agosto	2023-08-15T00:00:00	2024-11-06T15:00:00	3	Temperatura mínima	15.1
171956	7	Sololá	701	Sololá	2	El tablón	8	Agosto	2023-08-15T00:00:00	2024-11-06T15:00:00	5	Humedad	77
171957	7	Sololá	701	Sololá	2	El tablón	8	Agosto	2023-08-15T00:00:00	2024-11-06T15:00:00	6	Velocidad del viento	8
171958	7	Sololá	701	Sololá	2	El tablón	8	Agosto	2023-08-15T00:00:00	2024-11-06T15:00:00	7	Dirección del viento	8.05
171959	7	Sololá	701	Sololá	2	El tablón	8	Agosto	2023-08-15T00:00:00	2024-11-06T15:00:00	1	Precipitación	0
171960	7	Sololá	701	Sololá	2	El tablón	8	Agosto	2023-08-15T00:00:00	2024-11-06T15:00:00	8	Radiación solar	335
171961	7	Sololá	701	Sololá	2	El tablón	8	Agosto	2023-08-15T00:00:00	2024-11-06T16:00:00	2	Temperatura media	15.6
171962	7	Sololá	701	Sololá	2	El tablón	8	Agosto	2023-08-15T00:00:00	2024-11-06T16:00:00	4	Temperatura máxima	16.8
171963	7	Sololá	701	Sololá	2	El tablón	8	Agosto	2023-08-15T00:00:00	2024-11-06T16:00:00	3	Temperatura mínima	15.6
171964	7	Sololá	701	Sololá	2	El tablón	8	Agosto	2023-08-15T00:00:00	2024-11-06T16:00:00	5	Humedad	82
171965	7	Sololá	701	Sololá	2	El tablón	8	Agosto	2023-08-15T00:00:00	2024-11-06T16:00:00	6	Velocidad del viento	6.4
171966	7	Sololá	701	Sololá	2	El tablón	8	Agosto	2023-08-15T00:00:00	2024-11-06T16:00:00	7	Dirección del viento	6.44
171967	7	Sololá	701	Sololá	2	El tablón	8	Agosto	2023-08-15T00:00:00	2024-11-06T16:00:00	1	Precipitación	0
171968	7	Sololá	701	Sololá	2	El tablón	8	Agosto	2023-08-15T00:00:00	2024-11-06T16:00:00	8	Radiación solar	185
171969	7	Sololá	701	Sololá	2	El tablón	8	Agosto	2023-08-15T00:00:00	2024-11-06T17:00:00	2	Temperatura media	15.4
171970	7	Sololá	701	Sololá	2	El tablón	8	Agosto	2023-08-15T00:00:00	2024-11-06T17:00:00	4	Temperatura máxima	15.9
171971	7	Sololá	701	Sololá	2	El tablón	8	Agosto	2023-08-15T00:00:00	2024-11-06T17:00:00	3	Temperatura mínima	15.4
171972	7	Sololá	701	Sololá	2	El tablón	8	Agosto	2023-08-15T00:00:00	2024-11-06T17:00:00	5	Humedad	84
171973	7	Sololá	701	Sololá	2	El tablón	8	Agosto	2023-08-15T00:00:00	2024-11-06T17:00:00	6	Velocidad del viento	4.8
171974	7	Sololá	701	Sololá	2	El tablón	8	Agosto	2023-08-15T00:00:00	2024-11-06T17:00:00	7	Dirección del viento	4.83
171975	7	Sololá	701	Sololá	2	El tablón	8	Agosto	2023-08-15T00:00:00	2024-11-06T17:00:00	1	Precipitación	0
171976	7	Sololá	701	Sololá	2	El tablón	8	Agosto	2023-08-15T00:00:00	2024-11-06T17:00:00	8	Radiación solar	171
171977	7	Sololá	701	Sololá	2	El tablón	8	Agosto	2023-08-15T00:00:00	2024-11-06T18:00:00	2	Temperatura media	15.3
171978	7	Sololá	701	Sololá	2	El tablón	8	Agosto	2023-08-15T00:00:00	2024-11-06T18:00:00	4	Temperatura máxima	15.5
171979	7	Sololá	701	Sololá	2	El tablón	8	Agosto	2023-08-15T00:00:00	2024-11-06T18:00:00	3	Temperatura mínima	15.3
171980	7	Sololá	701	Sololá	2	El tablón	8	Agosto	2023-08-15T00:00:00	2024-11-06T18:00:00	5	Humedad	84
171981	7	Sololá	701	Sololá	2	El tablón	8	Agosto	2023-08-15T00:00:00	2024-11-06T18:00:00	6	Velocidad del viento	3.2
171982	7	Sololá	701	Sololá	2	El tablón	8	Agosto	2023-08-15T00:00:00	2024-11-06T18:00:00	7	Dirección del viento	3.22
171983	7	Sololá	701	Sololá	2	El tablón	8	Agosto	2023-08-15T00:00:00	2024-11-06T18:00:00	1	Precipitación	0
171984	7	Sololá	701	Sololá	2	El tablón	8	Agosto	2023-08-15T00:00:00	2024-11-06T18:00:00	8	Radiación solar	66
171985	7	Sololá	701	Sololá	2	El tablón	8	Agosto	2023-08-15T00:00:00	2024-11-06T19:00:00	2	Temperatura media	14.7
171986	7	Sololá	701	Sololá	2	El tablón	8	Agosto	2023-08-15T00:00:00	2024-11-06T19:00:00	4	Temperatura máxima	15.3
171987	7	Sololá	701	Sololá	2	El tablón	8	Agosto	2023-08-15T00:00:00	2024-11-06T19:00:00	3	Temperatura mínima	14.7
171988	7	Sololá	701	Sololá	2	El tablón	8	Agosto	2023-08-15T00:00:00	2024-11-06T19:00:00	5	Humedad	83
171989	7	Sololá	701	Sololá	2	El tablón	8	Agosto	2023-08-15T00:00:00	2024-11-06T19:00:00	6	Velocidad del viento	3.2
171990	7	Sololá	701	Sololá	2	El tablón	8	Agosto	2023-08-15T00:00:00	2024-11-06T19:00:00	7	Dirección del viento	3.22
171991	7	Sololá	701	Sololá	2	El tablón	8	Agosto	2023-08-15T00:00:00	2024-11-06T19:00:00	1	Precipitación	0
171992	7	Sololá	701	Sololá	2	El tablón	8	Agosto	2023-08-15T00:00:00	2024-11-06T19:00:00	8	Radiación solar	0
171993	7	Sololá	701	Sololá	2	El tablón	8	Agosto	2023-08-15T00:00:00	2024-11-06T20:00:00	2	Temperatura media	14.6
171994	7	Sololá	701	Sololá	2	El tablón	8	Agosto	2023-08-15T00:00:00	2024-11-06T20:00:00	4	Temperatura máxima	14.7
171995	7	Sololá	701	Sololá	2	El tablón	8	Agosto	2023-08-15T00:00:00	2024-11-06T20:00:00	3	Temperatura mínima	14.6
171996	7	Sololá	701	Sololá	2	El tablón	8	Agosto	2023-08-15T00:00:00	2024-11-06T20:00:00	5	Humedad	81
171997	7	Sololá	701	Sololá	2	El tablón	8	Agosto	2023-08-15T00:00:00	2024-11-06T20:00:00	6	Velocidad del viento	1.6
171998	7	Sololá	701	Sololá	2	El tablón	8	Agosto	2023-08-15T00:00:00	2024-11-06T20:00:00	7	Dirección del viento	1.61
171999	7	Sololá	701	Sololá	2	El tablón	8	Agosto	2023-08-15T00:00:00	2024-11-06T20:00:00	1	Precipitación	0
172000	7	Sololá	701	Sololá	2	El tablón	8	Agosto	2023-08-15T00:00:00	2024-11-06T20:00:00	8	Radiación solar	0
172001	7	Sololá	701	Sololá	2	El tablón	8	Agosto	2023-08-15T00:00:00	2024-11-06T21:00:00	2	Temperatura media	14.3
172002	7	Sololá	701	Sololá	2	El tablón	8	Agosto	2023-08-15T00:00:00	2024-11-06T21:00:00	4	Temperatura máxima	14.7
172003	7	Sololá	701	Sololá	2	El tablón	8	Agosto	2023-08-15T00:00:00	2024-11-06T21:00:00	3	Temperatura mínima	14.3
172004	7	Sololá	701	Sololá	2	El tablón	8	Agosto	2023-08-15T00:00:00	2024-11-06T21:00:00	5	Humedad	85
172005	7	Sololá	701	Sololá	2	El tablón	8	Agosto	2023-08-15T00:00:00	2024-11-06T21:00:00	6	Velocidad del viento	1.6
172006	7	Sololá	701	Sololá	2	El tablón	8	Agosto	2023-08-15T00:00:00	2024-11-06T21:00:00	7	Dirección del viento	1.61
172007	7	Sololá	701	Sololá	2	El tablón	8	Agosto	2023-08-15T00:00:00	2024-11-06T21:00:00	1	Precipitación	0
172008	7	Sololá	701	Sololá	2	El tablón	8	Agosto	2023-08-15T00:00:00	2024-11-06T21:00:00	8	Radiación solar	0
172009	7	Sololá	701	Sololá	2	El tablón	8	Agosto	2023-08-15T00:00:00	2024-11-06T22:00:00	2	Temperatura media	14
172010	7	Sololá	701	Sololá	2	El tablón	8	Agosto	2023-08-15T00:00:00	2024-11-06T22:00:00	4	Temperatura máxima	14.3
172011	7	Sololá	701	Sololá	2	El tablón	8	Agosto	2023-08-15T00:00:00	2024-11-06T22:00:00	3	Temperatura mínima	14
172012	7	Sololá	701	Sololá	2	El tablón	8	Agosto	2023-08-15T00:00:00	2024-11-06T22:00:00	5	Humedad	86
172013	7	Sololá	701	Sololá	2	El tablón	8	Agosto	2023-08-15T00:00:00	2024-11-06T22:00:00	6	Velocidad del viento	1.6
172014	7	Sololá	701	Sololá	2	El tablón	8	Agosto	2023-08-15T00:00:00	2024-11-06T22:00:00	7	Dirección del viento	1.61
172015	7	Sololá	701	Sololá	2	El tablón	8	Agosto	2023-08-15T00:00:00	2024-11-06T22:00:00	1	Precipitación	0
172016	7	Sololá	701	Sololá	2	El tablón	8	Agosto	2023-08-15T00:00:00	2024-11-06T22:00:00	8	Radiación solar	0
172017	7	Sololá	701	Sololá	2	El tablón	8	Agosto	2023-08-15T00:00:00	2024-11-06T23:00:00	2	Temperatura media	13.7
172018	7	Sololá	701	Sololá	2	El tablón	8	Agosto	2023-08-15T00:00:00	2024-11-06T23:00:00	4	Temperatura máxima	14
172019	7	Sololá	701	Sololá	2	El tablón	8	Agosto	2023-08-15T00:00:00	2024-11-06T23:00:00	3	Temperatura mínima	13.6
172020	7	Sololá	701	Sololá	2	El tablón	8	Agosto	2023-08-15T00:00:00	2024-11-06T23:00:00	5	Humedad	86
172021	7	Sololá	701	Sololá	2	El tablón	8	Agosto	2023-08-15T00:00:00	2024-11-06T23:00:00	6	Velocidad del viento	1.6
172022	7	Sololá	701	Sololá	2	El tablón	8	Agosto	2023-08-15T00:00:00	2024-11-06T23:00:00	7	Dirección del viento	1.61
172023	7	Sololá	701	Sololá	2	El tablón	8	Agosto	2023-08-15T00:00:00	2024-11-06T23:00:00	1	Precipitación	0
172024	7	Sololá	701	Sololá	2	El tablón	8	Agosto	2023-08-15T00:00:00	2024-11-06T23:00:00	8	Radiación solar	0
172025	7	Sololá	701	Sololá	2	El tablón	8	Agosto	2023-08-16T00:00:00	2024-11-06T00:00:00	2	Temperatura media	13
172026	7	Sololá	701	Sololá	2	El tablón	8	Agosto	2023-08-16T00:00:00	2024-11-06T00:00:00	4	Temperatura máxima	13.8
172027	7	Sololá	701	Sololá	2	El tablón	8	Agosto	2023-08-16T00:00:00	2024-11-06T00:00:00	3	Temperatura mínima	13
172028	7	Sololá	701	Sololá	2	El tablón	8	Agosto	2023-08-16T00:00:00	2024-11-06T00:00:00	5	Humedad	87
172029	7	Sololá	701	Sololá	2	El tablón	8	Agosto	2023-08-16T00:00:00	2024-11-06T00:00:00	6	Velocidad del viento	4.8
172030	7	Sololá	701	Sololá	2	El tablón	8	Agosto	2023-08-16T00:00:00	2024-11-06T00:00:00	7	Dirección del viento	4.83
172031	7	Sololá	701	Sololá	2	El tablón	8	Agosto	2023-08-16T00:00:00	2024-11-06T00:00:00	1	Precipitación	0
172032	7	Sololá	701	Sololá	2	El tablón	8	Agosto	2023-08-16T00:00:00	2024-11-06T00:00:00	8	Radiación solar	0
172033	7	Sololá	701	Sololá	2	El tablón	8	Agosto	2023-08-16T00:00:00	2024-11-06T01:00:00	2	Temperatura media	12.8
172034	7	Sololá	701	Sololá	2	El tablón	8	Agosto	2023-08-16T00:00:00	2024-11-06T01:00:00	4	Temperatura máxima	13.2
172035	7	Sololá	701	Sololá	2	El tablón	8	Agosto	2023-08-16T00:00:00	2024-11-06T01:00:00	3	Temperatura mínima	12.8
172036	7	Sololá	701	Sololá	2	El tablón	8	Agosto	2023-08-16T00:00:00	2024-11-06T01:00:00	5	Humedad	88
172037	7	Sololá	701	Sololá	2	El tablón	8	Agosto	2023-08-16T00:00:00	2024-11-06T01:00:00	6	Velocidad del viento	4.8
172038	7	Sololá	701	Sololá	2	El tablón	8	Agosto	2023-08-16T00:00:00	2024-11-06T01:00:00	7	Dirección del viento	4.83
172039	7	Sololá	701	Sololá	2	El tablón	8	Agosto	2023-08-16T00:00:00	2024-11-06T01:00:00	1	Precipitación	0
172040	7	Sololá	701	Sololá	2	El tablón	8	Agosto	2023-08-16T00:00:00	2024-11-06T01:00:00	8	Radiación solar	0
172041	7	Sololá	701	Sololá	2	El tablón	8	Agosto	2023-08-16T00:00:00	2024-11-06T02:00:00	2	Temperatura media	12.8
172042	7	Sololá	701	Sololá	2	El tablón	8	Agosto	2023-08-16T00:00:00	2024-11-06T02:00:00	4	Temperatura máxima	13.3
172043	7	Sololá	701	Sololá	2	El tablón	8	Agosto	2023-08-16T00:00:00	2024-11-06T02:00:00	3	Temperatura mínima	12.7
172044	7	Sololá	701	Sololá	2	El tablón	8	Agosto	2023-08-16T00:00:00	2024-11-06T02:00:00	5	Humedad	86
172045	7	Sololá	701	Sololá	2	El tablón	8	Agosto	2023-08-16T00:00:00	2024-11-06T02:00:00	6	Velocidad del viento	3.2
172046	7	Sololá	701	Sololá	2	El tablón	8	Agosto	2023-08-16T00:00:00	2024-11-06T02:00:00	7	Dirección del viento	3.22
172047	7	Sololá	701	Sololá	2	El tablón	8	Agosto	2023-08-16T00:00:00	2024-11-06T02:00:00	1	Precipitación	0
172048	7	Sololá	701	Sololá	2	El tablón	8	Agosto	2023-08-16T00:00:00	2024-11-06T02:00:00	8	Radiación solar	0
172049	7	Sololá	701	Sololá	2	El tablón	8	Agosto	2023-08-16T00:00:00	2024-11-06T03:00:00	2	Temperatura media	12.9
172050	7	Sololá	701	Sololá	2	El tablón	8	Agosto	2023-08-16T00:00:00	2024-11-06T03:00:00	4	Temperatura máxima	13.1
172051	7	Sololá	701	Sololá	2	El tablón	8	Agosto	2023-08-16T00:00:00	2024-11-06T03:00:00	3	Temperatura mínima	12.7
172052	7	Sololá	701	Sololá	2	El tablón	8	Agosto	2023-08-16T00:00:00	2024-11-06T03:00:00	5	Humedad	86
172053	7	Sololá	701	Sololá	2	El tablón	8	Agosto	2023-08-16T00:00:00	2024-11-06T03:00:00	6	Velocidad del viento	3.2
172054	7	Sololá	701	Sololá	2	El tablón	8	Agosto	2023-08-16T00:00:00	2024-11-06T03:00:00	7	Dirección del viento	3.22
172055	7	Sololá	701	Sololá	2	El tablón	8	Agosto	2023-08-16T00:00:00	2024-11-06T03:00:00	1	Precipitación	0
172056	7	Sololá	701	Sololá	2	El tablón	8	Agosto	2023-08-16T00:00:00	2024-11-06T03:00:00	8	Radiación solar	0
172057	7	Sololá	701	Sololá	2	El tablón	8	Agosto	2023-08-16T00:00:00	2024-11-06T04:00:00	2	Temperatura media	12.8
172058	7	Sololá	701	Sololá	2	El tablón	8	Agosto	2023-08-16T00:00:00	2024-11-06T04:00:00	4	Temperatura máxima	12.9
172059	7	Sololá	701	Sololá	2	El tablón	8	Agosto	2023-08-16T00:00:00	2024-11-06T04:00:00	3	Temperatura mínima	12.6
172060	7	Sololá	701	Sololá	2	El tablón	8	Agosto	2023-08-16T00:00:00	2024-11-06T04:00:00	5	Humedad	88
172061	7	Sololá	701	Sololá	2	El tablón	8	Agosto	2023-08-16T00:00:00	2024-11-06T04:00:00	6	Velocidad del viento	4.8
172062	7	Sololá	701	Sololá	2	El tablón	8	Agosto	2023-08-16T00:00:00	2024-11-06T04:00:00	7	Dirección del viento	4.83
172063	7	Sololá	701	Sololá	2	El tablón	8	Agosto	2023-08-16T00:00:00	2024-11-06T04:00:00	1	Precipitación	0
172064	7	Sololá	701	Sololá	2	El tablón	8	Agosto	2023-08-16T00:00:00	2024-11-06T04:00:00	8	Radiación solar	0
172065	7	Sololá	701	Sololá	2	El tablón	8	Agosto	2023-08-16T00:00:00	2024-11-06T05:00:00	2	Temperatura media	13.4
172066	7	Sololá	701	Sololá	2	El tablón	8	Agosto	2023-08-16T00:00:00	2024-11-06T05:00:00	4	Temperatura máxima	13.4
172067	7	Sololá	701	Sololá	2	El tablón	8	Agosto	2023-08-16T00:00:00	2024-11-06T05:00:00	3	Temperatura mínima	12.8
172068	7	Sololá	701	Sololá	2	El tablón	8	Agosto	2023-08-16T00:00:00	2024-11-06T05:00:00	5	Humedad	83
172069	7	Sololá	701	Sololá	2	El tablón	8	Agosto	2023-08-16T00:00:00	2024-11-06T05:00:00	6	Velocidad del viento	8
172070	7	Sololá	701	Sololá	2	El tablón	8	Agosto	2023-08-16T00:00:00	2024-11-06T05:00:00	7	Dirección del viento	8.05
172071	7	Sololá	701	Sololá	2	El tablón	8	Agosto	2023-08-16T00:00:00	2024-11-06T05:00:00	1	Precipitación	0
172072	7	Sololá	701	Sololá	2	El tablón	8	Agosto	2023-08-16T00:00:00	2024-11-06T05:00:00	8	Radiación solar	0
172073	7	Sololá	701	Sololá	2	El tablón	8	Agosto	2023-08-16T00:00:00	2024-11-06T06:00:00	2	Temperatura media	13.5
172074	7	Sololá	701	Sololá	2	El tablón	8	Agosto	2023-08-16T00:00:00	2024-11-06T06:00:00	4	Temperatura máxima	13.6
172075	7	Sololá	701	Sololá	2	El tablón	8	Agosto	2023-08-16T00:00:00	2024-11-06T06:00:00	3	Temperatura mínima	13.4
172076	7	Sololá	701	Sololá	2	El tablón	8	Agosto	2023-08-16T00:00:00	2024-11-06T06:00:00	5	Humedad	80
172077	7	Sololá	701	Sololá	2	El tablón	8	Agosto	2023-08-16T00:00:00	2024-11-06T06:00:00	6	Velocidad del viento	6.4
172078	7	Sololá	701	Sololá	2	El tablón	8	Agosto	2023-08-16T00:00:00	2024-11-06T06:00:00	7	Dirección del viento	6.44
172079	7	Sololá	701	Sololá	2	El tablón	8	Agosto	2023-08-16T00:00:00	2024-11-06T06:00:00	1	Precipitación	0
172080	7	Sololá	701	Sololá	2	El tablón	8	Agosto	2023-08-16T00:00:00	2024-11-06T06:00:00	8	Radiación solar	1
172081	7	Sololá	701	Sololá	2	El tablón	8	Agosto	2023-08-16T00:00:00	2024-11-06T07:00:00	2	Temperatura media	14.1
172082	7	Sololá	701	Sololá	2	El tablón	8	Agosto	2023-08-16T00:00:00	2024-11-06T07:00:00	4	Temperatura máxima	14.1
172083	7	Sololá	701	Sololá	2	El tablón	8	Agosto	2023-08-16T00:00:00	2024-11-06T07:00:00	3	Temperatura mínima	13.4
172084	7	Sololá	701	Sololá	2	El tablón	8	Agosto	2023-08-16T00:00:00	2024-11-06T07:00:00	5	Humedad	79
172085	7	Sololá	701	Sololá	2	El tablón	8	Agosto	2023-08-16T00:00:00	2024-11-06T07:00:00	6	Velocidad del viento	4.8
172086	7	Sololá	701	Sololá	2	El tablón	8	Agosto	2023-08-16T00:00:00	2024-11-06T07:00:00	7	Dirección del viento	4.83
172087	7	Sololá	701	Sololá	2	El tablón	8	Agosto	2023-08-16T00:00:00	2024-11-06T07:00:00	1	Precipitación	0
172088	7	Sololá	701	Sololá	2	El tablón	8	Agosto	2023-08-16T00:00:00	2024-11-06T07:00:00	8	Radiación solar	51
172089	7	Sololá	701	Sololá	2	El tablón	8	Agosto	2023-08-16T00:00:00	2024-11-06T08:00:00	2	Temperatura media	14.9
172090	7	Sololá	701	Sololá	2	El tablón	8	Agosto	2023-08-16T00:00:00	2024-11-06T08:00:00	4	Temperatura máxima	14.9
172091	7	Sololá	701	Sololá	2	El tablón	8	Agosto	2023-08-16T00:00:00	2024-11-06T08:00:00	3	Temperatura mínima	14.1
172092	7	Sololá	701	Sololá	2	El tablón	8	Agosto	2023-08-16T00:00:00	2024-11-06T08:00:00	5	Humedad	82
172093	7	Sololá	701	Sololá	2	El tablón	8	Agosto	2023-08-16T00:00:00	2024-11-06T08:00:00	6	Velocidad del viento	3.2
172094	7	Sololá	701	Sololá	2	El tablón	8	Agosto	2023-08-16T00:00:00	2024-11-06T08:00:00	7	Dirección del viento	3.22
172095	7	Sololá	701	Sololá	2	El tablón	8	Agosto	2023-08-16T00:00:00	2024-11-06T08:00:00	1	Precipitación	0
172096	7	Sololá	701	Sololá	2	El tablón	8	Agosto	2023-08-16T00:00:00	2024-11-06T08:00:00	8	Radiación solar	184
172097	7	Sololá	701	Sololá	2	El tablón	8	Agosto	2023-08-16T00:00:00	2024-11-06T09:00:00	2	Temperatura media	16.2
172098	7	Sololá	701	Sololá	2	El tablón	8	Agosto	2023-08-16T00:00:00	2024-11-06T09:00:00	4	Temperatura máxima	16.2
172099	7	Sololá	701	Sololá	2	El tablón	8	Agosto	2023-08-16T00:00:00	2024-11-06T09:00:00	3	Temperatura mínima	15
172100	7	Sololá	701	Sololá	2	El tablón	8	Agosto	2023-08-16T00:00:00	2024-11-06T09:00:00	5	Humedad	76
172101	7	Sololá	701	Sololá	2	El tablón	8	Agosto	2023-08-16T00:00:00	2024-11-06T09:00:00	6	Velocidad del viento	11.3
172102	7	Sololá	701	Sololá	2	El tablón	8	Agosto	2023-08-16T00:00:00	2024-11-06T09:00:00	7	Dirección del viento	11.27
172103	7	Sololá	701	Sololá	2	El tablón	8	Agosto	2023-08-16T00:00:00	2024-11-06T09:00:00	1	Precipitación	0
172104	7	Sololá	701	Sololá	2	El tablón	8	Agosto	2023-08-16T00:00:00	2024-11-06T09:00:00	8	Radiación solar	587
172105	7	Sololá	701	Sololá	2	El tablón	8	Agosto	2023-08-16T00:00:00	2024-11-06T10:00:00	2	Temperatura media	17.1
172106	7	Sololá	701	Sololá	2	El tablón	8	Agosto	2023-08-16T00:00:00	2024-11-06T10:00:00	4	Temperatura máxima	17.1
172107	7	Sololá	701	Sololá	2	El tablón	8	Agosto	2023-08-16T00:00:00	2024-11-06T10:00:00	3	Temperatura mínima	16
172108	7	Sololá	701	Sololá	2	El tablón	8	Agosto	2023-08-16T00:00:00	2024-11-06T10:00:00	5	Humedad	74
172109	7	Sololá	701	Sololá	2	El tablón	8	Agosto	2023-08-16T00:00:00	2024-11-06T10:00:00	6	Velocidad del viento	12.9
172110	7	Sololá	701	Sololá	2	El tablón	8	Agosto	2023-08-16T00:00:00	2024-11-06T10:00:00	7	Dirección del viento	12.87
172111	7	Sololá	701	Sololá	2	El tablón	8	Agosto	2023-08-16T00:00:00	2024-11-06T10:00:00	1	Precipitación	0
172112	7	Sololá	701	Sololá	2	El tablón	8	Agosto	2023-08-16T00:00:00	2024-11-06T10:00:00	8	Radiación solar	653
172113	7	Sololá	701	Sololá	2	El tablón	8	Agosto	2023-08-16T00:00:00	2024-11-06T11:00:00	2	Temperatura media	18.6
172114	7	Sololá	701	Sololá	2	El tablón	8	Agosto	2023-08-16T00:00:00	2024-11-06T11:00:00	4	Temperatura máxima	18.6
172115	7	Sololá	701	Sololá	2	El tablón	8	Agosto	2023-08-16T00:00:00	2024-11-06T11:00:00	3	Temperatura mínima	17.1
172116	7	Sololá	701	Sololá	2	El tablón	8	Agosto	2023-08-16T00:00:00	2024-11-06T11:00:00	5	Humedad	72
172117	7	Sololá	701	Sololá	2	El tablón	8	Agosto	2023-08-16T00:00:00	2024-11-06T11:00:00	6	Velocidad del viento	11.3
172118	7	Sololá	701	Sololá	2	El tablón	8	Agosto	2023-08-16T00:00:00	2024-11-06T11:00:00	7	Dirección del viento	11.27
172119	7	Sololá	701	Sololá	2	El tablón	8	Agosto	2023-08-16T00:00:00	2024-11-06T11:00:00	1	Precipitación	0
172120	7	Sololá	701	Sololá	2	El tablón	8	Agosto	2023-08-16T00:00:00	2024-11-06T11:00:00	8	Radiación solar	842
172121	7	Sololá	701	Sololá	2	El tablón	8	Agosto	2023-08-16T00:00:00	2024-11-06T12:00:00	2	Temperatura media	17.8
172122	7	Sololá	701	Sololá	2	El tablón	8	Agosto	2023-08-16T00:00:00	2024-11-06T12:00:00	4	Temperatura máxima	19.6
172123	7	Sololá	701	Sololá	2	El tablón	8	Agosto	2023-08-16T00:00:00	2024-11-06T12:00:00	3	Temperatura mínima	17.8
172124	7	Sololá	701	Sololá	2	El tablón	8	Agosto	2023-08-16T00:00:00	2024-11-06T12:00:00	5	Humedad	74
172125	7	Sololá	701	Sololá	2	El tablón	8	Agosto	2023-08-16T00:00:00	2024-11-06T12:00:00	6	Velocidad del viento	9.7
172126	7	Sololá	701	Sololá	2	El tablón	8	Agosto	2023-08-16T00:00:00	2024-11-06T12:00:00	7	Dirección del viento	9.66
172127	7	Sololá	701	Sololá	2	El tablón	8	Agosto	2023-08-16T00:00:00	2024-11-06T12:00:00	1	Precipitación	0
172128	7	Sololá	701	Sololá	2	El tablón	8	Agosto	2023-08-16T00:00:00	2024-11-06T12:00:00	8	Radiación solar	727
172129	7	Sololá	701	Sololá	2	El tablón	8	Agosto	2023-08-16T00:00:00	2024-11-06T13:00:00	2	Temperatura media	18.4
172130	7	Sololá	701	Sololá	2	El tablón	8	Agosto	2023-08-16T00:00:00	2024-11-06T13:00:00	4	Temperatura máxima	19.3
172131	7	Sololá	701	Sololá	2	El tablón	8	Agosto	2023-08-16T00:00:00	2024-11-06T13:00:00	3	Temperatura mínima	17.8
172132	7	Sololá	701	Sololá	2	El tablón	8	Agosto	2023-08-16T00:00:00	2024-11-06T13:00:00	5	Humedad	78
172133	7	Sololá	701	Sololá	2	El tablón	8	Agosto	2023-08-16T00:00:00	2024-11-06T13:00:00	6	Velocidad del viento	8
172134	7	Sololá	701	Sololá	2	El tablón	8	Agosto	2023-08-16T00:00:00	2024-11-06T13:00:00	7	Dirección del viento	8.05
172135	7	Sololá	701	Sololá	2	El tablón	8	Agosto	2023-08-16T00:00:00	2024-11-06T13:00:00	1	Precipitación	0
172136	7	Sololá	701	Sololá	2	El tablón	8	Agosto	2023-08-16T00:00:00	2024-11-06T13:00:00	8	Radiación solar	416
172137	7	Sololá	701	Sololá	2	El tablón	8	Agosto	2023-08-16T00:00:00	2024-11-06T14:00:00	2	Temperatura media	19.1
172138	7	Sololá	701	Sololá	2	El tablón	8	Agosto	2023-08-16T00:00:00	2024-11-06T14:00:00	4	Temperatura máxima	19.1
172139	7	Sololá	701	Sololá	2	El tablón	8	Agosto	2023-08-16T00:00:00	2024-11-06T14:00:00	3	Temperatura mínima	17.4
172140	7	Sololá	701	Sololá	2	El tablón	8	Agosto	2023-08-16T00:00:00	2024-11-06T14:00:00	5	Humedad	69
172141	7	Sololá	701	Sololá	2	El tablón	8	Agosto	2023-08-16T00:00:00	2024-11-06T14:00:00	6	Velocidad del viento	4.8
172142	7	Sololá	701	Sololá	2	El tablón	8	Agosto	2023-08-16T00:00:00	2024-11-06T14:00:00	7	Dirección del viento	4.83
172143	7	Sololá	701	Sololá	2	El tablón	8	Agosto	2023-08-16T00:00:00	2024-11-06T14:00:00	1	Precipitación	0
172144	7	Sololá	701	Sololá	2	El tablón	8	Agosto	2023-08-16T00:00:00	2024-11-06T14:00:00	8	Radiación solar	287
172145	7	Sololá	701	Sololá	2	El tablón	8	Agosto	2023-08-16T00:00:00	2024-11-06T15:00:00	2	Temperatura media	17.1
172146	7	Sololá	701	Sololá	2	El tablón	8	Agosto	2023-08-16T00:00:00	2024-11-06T15:00:00	4	Temperatura máxima	20.2
172147	7	Sololá	701	Sololá	2	El tablón	8	Agosto	2023-08-16T00:00:00	2024-11-06T15:00:00	3	Temperatura mínima	17.1
172148	7	Sololá	701	Sololá	2	El tablón	8	Agosto	2023-08-16T00:00:00	2024-11-06T15:00:00	5	Humedad	86
172149	7	Sololá	701	Sololá	2	El tablón	8	Agosto	2023-08-16T00:00:00	2024-11-06T15:00:00	6	Velocidad del viento	6.4
172150	7	Sololá	701	Sololá	2	El tablón	8	Agosto	2023-08-16T00:00:00	2024-11-06T15:00:00	7	Dirección del viento	6.44
172151	7	Sololá	701	Sololá	2	El tablón	8	Agosto	2023-08-16T00:00:00	2024-11-06T15:00:00	1	Precipitación	0
172152	7	Sololá	701	Sololá	2	El tablón	8	Agosto	2023-08-16T00:00:00	2024-11-06T15:00:00	8	Radiación solar	464
172153	7	Sololá	701	Sololá	2	El tablón	8	Agosto	2023-08-16T00:00:00	2024-11-06T16:00:00	2	Temperatura media	17.6
172154	7	Sololá	701	Sololá	2	El tablón	8	Agosto	2023-08-16T00:00:00	2024-11-06T16:00:00	4	Temperatura máxima	17.8
172155	7	Sololá	701	Sololá	2	El tablón	8	Agosto	2023-08-16T00:00:00	2024-11-06T16:00:00	3	Temperatura mínima	16.8
172156	7	Sololá	701	Sololá	2	El tablón	8	Agosto	2023-08-16T00:00:00	2024-11-06T16:00:00	5	Humedad	84
172157	7	Sololá	701	Sololá	2	El tablón	8	Agosto	2023-08-16T00:00:00	2024-11-06T16:00:00	6	Velocidad del viento	4.8
172158	7	Sololá	701	Sololá	2	El tablón	8	Agosto	2023-08-16T00:00:00	2024-11-06T16:00:00	7	Dirección del viento	4.83
172159	7	Sololá	701	Sololá	2	El tablón	8	Agosto	2023-08-16T00:00:00	2024-11-06T16:00:00	1	Precipitación	0
172160	7	Sololá	701	Sololá	2	El tablón	8	Agosto	2023-08-16T00:00:00	2024-11-06T16:00:00	8	Radiación solar	193
172161	7	Sololá	701	Sololá	2	El tablón	8	Agosto	2023-08-16T00:00:00	2024-11-06T17:00:00	2	Temperatura media	16.4
172162	7	Sololá	701	Sololá	2	El tablón	8	Agosto	2023-08-16T00:00:00	2024-11-06T17:00:00	4	Temperatura máxima	17.6
172163	7	Sololá	701	Sololá	2	El tablón	8	Agosto	2023-08-16T00:00:00	2024-11-06T17:00:00	3	Temperatura mínima	16.4
172164	7	Sololá	701	Sololá	2	El tablón	8	Agosto	2023-08-16T00:00:00	2024-11-06T17:00:00	5	Humedad	86
172165	7	Sololá	701	Sololá	2	El tablón	8	Agosto	2023-08-16T00:00:00	2024-11-06T17:00:00	6	Velocidad del viento	3.2
172166	7	Sololá	701	Sololá	2	El tablón	8	Agosto	2023-08-16T00:00:00	2024-11-06T17:00:00	7	Dirección del viento	3.22
172167	7	Sololá	701	Sololá	2	El tablón	8	Agosto	2023-08-16T00:00:00	2024-11-06T17:00:00	1	Precipitación	0
172168	7	Sololá	701	Sololá	2	El tablón	8	Agosto	2023-08-16T00:00:00	2024-11-06T17:00:00	8	Radiación solar	75
172169	7	Sololá	701	Sololá	2	El tablón	8	Agosto	2023-08-16T00:00:00	2024-11-06T18:00:00	2	Temperatura media	15.8
172170	7	Sololá	701	Sololá	2	El tablón	8	Agosto	2023-08-16T00:00:00	2024-11-06T18:00:00	4	Temperatura máxima	16.4
172171	7	Sololá	701	Sololá	2	El tablón	8	Agosto	2023-08-16T00:00:00	2024-11-06T18:00:00	3	Temperatura mínima	15.8
172172	7	Sololá	701	Sololá	2	El tablón	8	Agosto	2023-08-16T00:00:00	2024-11-06T18:00:00	5	Humedad	83
172173	7	Sololá	701	Sololá	2	El tablón	8	Agosto	2023-08-16T00:00:00	2024-11-06T18:00:00	6	Velocidad del viento	3.2
172174	7	Sololá	701	Sololá	2	El tablón	8	Agosto	2023-08-16T00:00:00	2024-11-06T18:00:00	7	Dirección del viento	3.22
172175	7	Sololá	701	Sololá	2	El tablón	8	Agosto	2023-08-16T00:00:00	2024-11-06T18:00:00	1	Precipitación	0
172176	7	Sololá	701	Sololá	2	El tablón	8	Agosto	2023-08-16T00:00:00	2024-11-06T18:00:00	8	Radiación solar	51
172177	7	Sololá	701	Sololá	2	El tablón	8	Agosto	2023-08-16T00:00:00	2024-11-06T19:00:00	2	Temperatura media	14.8
172178	7	Sololá	701	Sololá	2	El tablón	8	Agosto	2023-08-16T00:00:00	2024-11-06T19:00:00	4	Temperatura máxima	15.8
172179	7	Sololá	701	Sololá	2	El tablón	8	Agosto	2023-08-16T00:00:00	2024-11-06T19:00:00	3	Temperatura mínima	14.8
172180	7	Sololá	701	Sololá	2	El tablón	8	Agosto	2023-08-16T00:00:00	2024-11-06T19:00:00	5	Humedad	84
172181	7	Sololá	701	Sololá	2	El tablón	8	Agosto	2023-08-16T00:00:00	2024-11-06T19:00:00	6	Velocidad del viento	4.8
172182	7	Sololá	701	Sololá	2	El tablón	8	Agosto	2023-08-16T00:00:00	2024-11-06T19:00:00	7	Dirección del viento	4.83
172183	7	Sololá	701	Sololá	2	El tablón	8	Agosto	2023-08-16T00:00:00	2024-11-06T19:00:00	1	Precipitación	0
172184	7	Sololá	701	Sololá	2	El tablón	8	Agosto	2023-08-16T00:00:00	2024-11-06T19:00:00	8	Radiación solar	0
172185	7	Sololá	701	Sololá	2	El tablón	8	Agosto	2023-08-16T00:00:00	2024-11-06T20:00:00	2	Temperatura media	14.6
172186	7	Sololá	701	Sololá	2	El tablón	8	Agosto	2023-08-16T00:00:00	2024-11-06T20:00:00	4	Temperatura máxima	14.8
172187	7	Sololá	701	Sololá	2	El tablón	8	Agosto	2023-08-16T00:00:00	2024-11-06T20:00:00	3	Temperatura mínima	14.6
172188	7	Sololá	701	Sololá	2	El tablón	8	Agosto	2023-08-16T00:00:00	2024-11-06T20:00:00	5	Humedad	86
172189	7	Sololá	701	Sololá	2	El tablón	8	Agosto	2023-08-16T00:00:00	2024-11-06T20:00:00	6	Velocidad del viento	3.2
172190	7	Sololá	701	Sololá	2	El tablón	8	Agosto	2023-08-16T00:00:00	2024-11-06T20:00:00	7	Dirección del viento	3.22
172191	7	Sololá	701	Sololá	2	El tablón	8	Agosto	2023-08-16T00:00:00	2024-11-06T20:00:00	1	Precipitación	0
172192	7	Sololá	701	Sololá	2	El tablón	8	Agosto	2023-08-16T00:00:00	2024-11-06T20:00:00	8	Radiación solar	0
172193	7	Sololá	701	Sololá	2	El tablón	8	Agosto	2023-08-16T00:00:00	2024-11-06T21:00:00	2	Temperatura media	14.3
172194	7	Sololá	701	Sololá	2	El tablón	8	Agosto	2023-08-16T00:00:00	2024-11-06T21:00:00	4	Temperatura máxima	14.6
172195	7	Sololá	701	Sololá	2	El tablón	8	Agosto	2023-08-16T00:00:00	2024-11-06T21:00:00	3	Temperatura mínima	14.3
172196	7	Sololá	701	Sololá	2	El tablón	8	Agosto	2023-08-16T00:00:00	2024-11-06T21:00:00	5	Humedad	86
172197	7	Sololá	701	Sololá	2	El tablón	8	Agosto	2023-08-16T00:00:00	2024-11-06T21:00:00	6	Velocidad del viento	3.2
172198	7	Sololá	701	Sololá	2	El tablón	8	Agosto	2023-08-16T00:00:00	2024-11-06T21:00:00	7	Dirección del viento	3.22
172199	7	Sololá	701	Sololá	2	El tablón	8	Agosto	2023-08-16T00:00:00	2024-11-06T21:00:00	1	Precipitación	0
172200	7	Sololá	701	Sololá	2	El tablón	8	Agosto	2023-08-16T00:00:00	2024-11-06T21:00:00	8	Radiación solar	0
172201	7	Sololá	701	Sololá	2	El tablón	8	Agosto	2023-08-16T00:00:00	2024-11-06T22:00:00	2	Temperatura media	13.8
172202	7	Sololá	701	Sololá	2	El tablón	8	Agosto	2023-08-16T00:00:00	2024-11-06T22:00:00	4	Temperatura máxima	14.3
172203	7	Sololá	701	Sololá	2	El tablón	8	Agosto	2023-08-16T00:00:00	2024-11-06T22:00:00	3	Temperatura mínima	13.7
172204	7	Sololá	701	Sololá	2	El tablón	8	Agosto	2023-08-16T00:00:00	2024-11-06T22:00:00	5	Humedad	86
172205	7	Sololá	701	Sololá	2	El tablón	8	Agosto	2023-08-16T00:00:00	2024-11-06T22:00:00	6	Velocidad del viento	3.2
172206	7	Sololá	701	Sololá	2	El tablón	8	Agosto	2023-08-16T00:00:00	2024-11-06T22:00:00	7	Dirección del viento	3.22
172207	7	Sololá	701	Sololá	2	El tablón	8	Agosto	2023-08-16T00:00:00	2024-11-06T22:00:00	1	Precipitación	0
172208	7	Sololá	701	Sololá	2	El tablón	8	Agosto	2023-08-16T00:00:00	2024-11-06T22:00:00	8	Radiación solar	0
172209	7	Sololá	701	Sololá	2	El tablón	8	Agosto	2023-08-16T00:00:00	2024-11-06T23:00:00	2	Temperatura media	13.9
172210	7	Sololá	701	Sololá	2	El tablón	8	Agosto	2023-08-16T00:00:00	2024-11-06T23:00:00	4	Temperatura máxima	13.9
172211	7	Sololá	701	Sololá	2	El tablón	8	Agosto	2023-08-16T00:00:00	2024-11-06T23:00:00	3	Temperatura mínima	13.8
172212	7	Sololá	701	Sololá	2	El tablón	8	Agosto	2023-08-16T00:00:00	2024-11-06T23:00:00	5	Humedad	86
172213	7	Sololá	701	Sololá	2	El tablón	8	Agosto	2023-08-16T00:00:00	2024-11-06T23:00:00	6	Velocidad del viento	3.2
172214	7	Sololá	701	Sololá	2	El tablón	8	Agosto	2023-08-16T00:00:00	2024-11-06T23:00:00	7	Dirección del viento	3.22
172215	7	Sololá	701	Sololá	2	El tablón	8	Agosto	2023-08-16T00:00:00	2024-11-06T23:00:00	1	Precipitación	0
172216	7	Sololá	701	Sololá	2	El tablón	8	Agosto	2023-08-16T00:00:00	2024-11-06T23:00:00	8	Radiación solar	0
172217	7	Sololá	701	Sololá	2	El tablón	8	Agosto	2023-08-17T00:00:00	2024-11-06T00:00:00	2	Temperatura media	13.6
172218	7	Sololá	701	Sololá	2	El tablón	8	Agosto	2023-08-17T00:00:00	2024-11-06T00:00:00	4	Temperatura máxima	14
172219	7	Sololá	701	Sololá	2	El tablón	8	Agosto	2023-08-17T00:00:00	2024-11-06T00:00:00	3	Temperatura mínima	13.6
172220	7	Sololá	701	Sololá	2	El tablón	8	Agosto	2023-08-17T00:00:00	2024-11-06T00:00:00	5	Humedad	86
172221	7	Sololá	701	Sololá	2	El tablón	8	Agosto	2023-08-17T00:00:00	2024-11-06T00:00:00	6	Velocidad del viento	6.4
172222	7	Sololá	701	Sololá	2	El tablón	8	Agosto	2023-08-17T00:00:00	2024-11-06T00:00:00	7	Dirección del viento	6.44
172223	7	Sololá	701	Sololá	2	El tablón	8	Agosto	2023-08-17T00:00:00	2024-11-06T00:00:00	1	Precipitación	0
172224	7	Sololá	701	Sololá	2	El tablón	8	Agosto	2023-08-17T00:00:00	2024-11-06T00:00:00	8	Radiación solar	0
172225	7	Sololá	701	Sololá	2	El tablón	8	Agosto	2023-08-17T00:00:00	2024-11-06T01:00:00	2	Temperatura media	13.3
172226	7	Sololá	701	Sololá	2	El tablón	8	Agosto	2023-08-17T00:00:00	2024-11-06T01:00:00	4	Temperatura máxima	13.6
172227	7	Sololá	701	Sololá	2	El tablón	8	Agosto	2023-08-17T00:00:00	2024-11-06T01:00:00	3	Temperatura mínima	13.3
172228	7	Sololá	701	Sololá	2	El tablón	8	Agosto	2023-08-17T00:00:00	2024-11-06T01:00:00	5	Humedad	86
172229	7	Sololá	701	Sololá	2	El tablón	8	Agosto	2023-08-17T00:00:00	2024-11-06T01:00:00	6	Velocidad del viento	6.4
172230	7	Sololá	701	Sololá	2	El tablón	8	Agosto	2023-08-17T00:00:00	2024-11-06T01:00:00	7	Dirección del viento	6.44
172231	7	Sololá	701	Sololá	2	El tablón	8	Agosto	2023-08-17T00:00:00	2024-11-06T01:00:00	1	Precipitación	0
172232	7	Sololá	701	Sololá	2	El tablón	8	Agosto	2023-08-17T00:00:00	2024-11-06T01:00:00	8	Radiación solar	0
172233	7	Sololá	701	Sololá	2	El tablón	8	Agosto	2023-08-17T00:00:00	2024-11-06T02:00:00	2	Temperatura media	12.8
172234	7	Sololá	701	Sololá	2	El tablón	8	Agosto	2023-08-17T00:00:00	2024-11-06T02:00:00	4	Temperatura máxima	13.3
172235	7	Sololá	701	Sololá	2	El tablón	8	Agosto	2023-08-17T00:00:00	2024-11-06T02:00:00	3	Temperatura mínima	12.8
172236	7	Sololá	701	Sololá	2	El tablón	8	Agosto	2023-08-17T00:00:00	2024-11-06T02:00:00	5	Humedad	87
172237	7	Sololá	701	Sololá	2	El tablón	8	Agosto	2023-08-17T00:00:00	2024-11-06T02:00:00	6	Velocidad del viento	4.8
172238	7	Sololá	701	Sololá	2	El tablón	8	Agosto	2023-08-17T00:00:00	2024-11-06T02:00:00	7	Dirección del viento	4.83
172239	7	Sololá	701	Sololá	2	El tablón	8	Agosto	2023-08-17T00:00:00	2024-11-06T02:00:00	1	Precipitación	0
172240	7	Sololá	701	Sololá	2	El tablón	8	Agosto	2023-08-17T00:00:00	2024-11-06T02:00:00	8	Radiación solar	0
172241	7	Sololá	701	Sololá	2	El tablón	8	Agosto	2023-08-17T00:00:00	2024-11-06T03:00:00	2	Temperatura media	12.9
172242	7	Sololá	701	Sololá	2	El tablón	8	Agosto	2023-08-17T00:00:00	2024-11-06T03:00:00	4	Temperatura máxima	12.9
172243	7	Sololá	701	Sololá	2	El tablón	8	Agosto	2023-08-17T00:00:00	2024-11-06T03:00:00	3	Temperatura mínima	12.6
172244	7	Sololá	701	Sololá	2	El tablón	8	Agosto	2023-08-17T00:00:00	2024-11-06T03:00:00	5	Humedad	86
172245	7	Sololá	701	Sololá	2	El tablón	8	Agosto	2023-08-17T00:00:00	2024-11-06T03:00:00	6	Velocidad del viento	6.4
172246	7	Sololá	701	Sololá	2	El tablón	8	Agosto	2023-08-17T00:00:00	2024-11-06T03:00:00	7	Dirección del viento	6.44
172247	7	Sololá	701	Sololá	2	El tablón	8	Agosto	2023-08-17T00:00:00	2024-11-06T03:00:00	1	Precipitación	0
172248	7	Sololá	701	Sololá	2	El tablón	8	Agosto	2023-08-17T00:00:00	2024-11-06T03:00:00	8	Radiación solar	0
172249	7	Sololá	701	Sololá	2	El tablón	8	Agosto	2023-08-17T00:00:00	2024-11-06T04:00:00	2	Temperatura media	12.9
172250	7	Sololá	701	Sololá	2	El tablón	8	Agosto	2023-08-17T00:00:00	2024-11-06T04:00:00	4	Temperatura máxima	12.9
172251	7	Sololá	701	Sololá	2	El tablón	8	Agosto	2023-08-17T00:00:00	2024-11-06T04:00:00	3	Temperatura mínima	12.7
172252	7	Sololá	701	Sololá	2	El tablón	8	Agosto	2023-08-17T00:00:00	2024-11-06T04:00:00	5	Humedad	86
172253	7	Sololá	701	Sololá	2	El tablón	8	Agosto	2023-08-17T00:00:00	2024-11-06T04:00:00	6	Velocidad del viento	8
172254	7	Sololá	701	Sololá	2	El tablón	8	Agosto	2023-08-17T00:00:00	2024-11-06T04:00:00	7	Dirección del viento	8.05
172255	7	Sololá	701	Sololá	2	El tablón	8	Agosto	2023-08-17T00:00:00	2024-11-06T04:00:00	1	Precipitación	0
172256	7	Sololá	701	Sololá	2	El tablón	8	Agosto	2023-08-17T00:00:00	2024-11-06T04:00:00	8	Radiación solar	0
172257	7	Sololá	701	Sololá	2	El tablón	8	Agosto	2023-08-17T00:00:00	2024-11-06T05:00:00	2	Temperatura media	12.6
172258	7	Sololá	701	Sololá	2	El tablón	8	Agosto	2023-08-17T00:00:00	2024-11-06T05:00:00	4	Temperatura máxima	12.9
172259	7	Sololá	701	Sololá	2	El tablón	8	Agosto	2023-08-17T00:00:00	2024-11-06T05:00:00	3	Temperatura mínima	12.6
172260	7	Sololá	701	Sololá	2	El tablón	8	Agosto	2023-08-17T00:00:00	2024-11-06T05:00:00	5	Humedad	86
172261	7	Sololá	701	Sololá	2	El tablón	8	Agosto	2023-08-17T00:00:00	2024-11-06T05:00:00	6	Velocidad del viento	8
172262	7	Sololá	701	Sololá	2	El tablón	8	Agosto	2023-08-17T00:00:00	2024-11-06T05:00:00	7	Dirección del viento	8.05
172263	7	Sololá	701	Sololá	2	El tablón	8	Agosto	2023-08-17T00:00:00	2024-11-06T05:00:00	1	Precipitación	0
172264	7	Sololá	701	Sololá	2	El tablón	8	Agosto	2023-08-17T00:00:00	2024-11-06T05:00:00	8	Radiación solar	0
172265	7	Sololá	701	Sololá	2	El tablón	8	Agosto	2023-08-17T00:00:00	2024-11-06T06:00:00	2	Temperatura media	11.3
172266	7	Sololá	701	Sololá	2	El tablón	8	Agosto	2023-08-17T00:00:00	2024-11-06T06:00:00	4	Temperatura máxima	12.6
172267	7	Sololá	701	Sololá	2	El tablón	8	Agosto	2023-08-17T00:00:00	2024-11-06T06:00:00	3	Temperatura mínima	11.3
172268	7	Sololá	701	Sololá	2	El tablón	8	Agosto	2023-08-17T00:00:00	2024-11-06T06:00:00	5	Humedad	85
172269	7	Sololá	701	Sololá	2	El tablón	8	Agosto	2023-08-17T00:00:00	2024-11-06T06:00:00	6	Velocidad del viento	1.6
172270	7	Sololá	701	Sololá	2	El tablón	8	Agosto	2023-08-17T00:00:00	2024-11-06T06:00:00	7	Dirección del viento	1.61
172271	7	Sololá	701	Sololá	2	El tablón	8	Agosto	2023-08-17T00:00:00	2024-11-06T06:00:00	1	Precipitación	0
172272	7	Sololá	701	Sololá	2	El tablón	8	Agosto	2023-08-17T00:00:00	2024-11-06T06:00:00	8	Radiación solar	0
172273	7	Sololá	701	Sololá	2	El tablón	8	Agosto	2023-08-17T00:00:00	2024-11-06T07:00:00	2	Temperatura media	13.3
172274	7	Sololá	701	Sololá	2	El tablón	8	Agosto	2023-08-17T00:00:00	2024-11-06T07:00:00	4	Temperatura máxima	13.3
172275	7	Sololá	701	Sololá	2	El tablón	8	Agosto	2023-08-17T00:00:00	2024-11-06T07:00:00	3	Temperatura mínima	11.3
172276	7	Sololá	701	Sololá	2	El tablón	8	Agosto	2023-08-17T00:00:00	2024-11-06T07:00:00	5	Humedad	86
172277	7	Sololá	701	Sololá	2	El tablón	8	Agosto	2023-08-17T00:00:00	2024-11-06T07:00:00	6	Velocidad del viento	4.8
172278	7	Sololá	701	Sololá	2	El tablón	8	Agosto	2023-08-17T00:00:00	2024-11-06T07:00:00	7	Dirección del viento	4.83
172279	7	Sololá	701	Sololá	2	El tablón	8	Agosto	2023-08-17T00:00:00	2024-11-06T07:00:00	1	Precipitación	0
172280	7	Sololá	701	Sololá	2	El tablón	8	Agosto	2023-08-17T00:00:00	2024-11-06T07:00:00	8	Radiación solar	45
172281	7	Sololá	701	Sololá	2	El tablón	8	Agosto	2023-08-17T00:00:00	2024-11-06T08:00:00	2	Temperatura media	15
172282	7	Sololá	701	Sololá	2	El tablón	8	Agosto	2023-08-17T00:00:00	2024-11-06T08:00:00	4	Temperatura máxima	15
172283	7	Sololá	701	Sololá	2	El tablón	8	Agosto	2023-08-17T00:00:00	2024-11-06T08:00:00	3	Temperatura mínima	13.3
172284	7	Sololá	701	Sololá	2	El tablón	8	Agosto	2023-08-17T00:00:00	2024-11-06T08:00:00	5	Humedad	82
172285	7	Sololá	701	Sololá	2	El tablón	8	Agosto	2023-08-17T00:00:00	2024-11-06T08:00:00	6	Velocidad del viento	6.4
172286	7	Sololá	701	Sololá	2	El tablón	8	Agosto	2023-08-17T00:00:00	2024-11-06T08:00:00	7	Dirección del viento	6.44
172287	7	Sololá	701	Sololá	2	El tablón	8	Agosto	2023-08-17T00:00:00	2024-11-06T08:00:00	1	Precipitación	0
172288	7	Sololá	701	Sololá	2	El tablón	8	Agosto	2023-08-17T00:00:00	2024-11-06T08:00:00	8	Radiación solar	259
172289	7	Sololá	701	Sololá	2	El tablón	8	Agosto	2023-08-17T00:00:00	2024-11-06T09:00:00	2	Temperatura media	15.7
172290	7	Sololá	701	Sololá	2	El tablón	8	Agosto	2023-08-17T00:00:00	2024-11-06T09:00:00	4	Temperatura máxima	16.1
172291	7	Sololá	701	Sololá	2	El tablón	8	Agosto	2023-08-17T00:00:00	2024-11-06T09:00:00	3	Temperatura mínima	14.8
172292	7	Sololá	701	Sololá	2	El tablón	8	Agosto	2023-08-17T00:00:00	2024-11-06T09:00:00	5	Humedad	76
172293	7	Sololá	701	Sololá	2	El tablón	8	Agosto	2023-08-17T00:00:00	2024-11-06T09:00:00	6	Velocidad del viento	9.7
172294	7	Sololá	701	Sololá	2	El tablón	8	Agosto	2023-08-17T00:00:00	2024-11-06T09:00:00	7	Dirección del viento	9.66
172295	7	Sololá	701	Sololá	2	El tablón	8	Agosto	2023-08-17T00:00:00	2024-11-06T09:00:00	1	Precipitación	0
172296	7	Sololá	701	Sololá	2	El tablón	8	Agosto	2023-08-17T00:00:00	2024-11-06T09:00:00	8	Radiación solar	417
172297	7	Sololá	701	Sololá	2	El tablón	8	Agosto	2023-08-17T00:00:00	2024-11-06T10:00:00	2	Temperatura media	17.7
172298	7	Sololá	701	Sololá	2	El tablón	8	Agosto	2023-08-17T00:00:00	2024-11-06T10:00:00	4	Temperatura máxima	17.9
172299	7	Sololá	701	Sololá	2	El tablón	8	Agosto	2023-08-17T00:00:00	2024-11-06T10:00:00	3	Temperatura mínima	15.7
172300	7	Sololá	701	Sololá	2	El tablón	8	Agosto	2023-08-17T00:00:00	2024-11-06T10:00:00	5	Humedad	71
172301	7	Sololá	701	Sololá	2	El tablón	8	Agosto	2023-08-17T00:00:00	2024-11-06T10:00:00	6	Velocidad del viento	11.3
172302	7	Sololá	701	Sololá	2	El tablón	8	Agosto	2023-08-17T00:00:00	2024-11-06T10:00:00	7	Dirección del viento	11.27
172303	7	Sololá	701	Sololá	2	El tablón	8	Agosto	2023-08-17T00:00:00	2024-11-06T10:00:00	1	Precipitación	0
172304	7	Sololá	701	Sololá	2	El tablón	8	Agosto	2023-08-17T00:00:00	2024-11-06T10:00:00	8	Radiación solar	712
172305	7	Sololá	701	Sololá	2	El tablón	8	Agosto	2023-08-17T00:00:00	2024-11-06T11:00:00	2	Temperatura media	18.4
172306	7	Sololá	701	Sololá	2	El tablón	8	Agosto	2023-08-17T00:00:00	2024-11-06T11:00:00	4	Temperatura máxima	18.4
172307	7	Sololá	701	Sololá	2	El tablón	8	Agosto	2023-08-17T00:00:00	2024-11-06T11:00:00	3	Temperatura mínima	17.7
172308	7	Sololá	701	Sololá	2	El tablón	8	Agosto	2023-08-17T00:00:00	2024-11-06T11:00:00	5	Humedad	66
172309	7	Sololá	701	Sololá	2	El tablón	8	Agosto	2023-08-17T00:00:00	2024-11-06T11:00:00	6	Velocidad del viento	12.9
172310	7	Sololá	701	Sololá	2	El tablón	8	Agosto	2023-08-17T00:00:00	2024-11-06T11:00:00	7	Dirección del viento	12.87
172311	7	Sololá	701	Sololá	2	El tablón	8	Agosto	2023-08-17T00:00:00	2024-11-06T11:00:00	1	Precipitación	0
172312	7	Sololá	701	Sololá	2	El tablón	8	Agosto	2023-08-17T00:00:00	2024-11-06T11:00:00	8	Radiación solar	853
172313	7	Sololá	701	Sololá	2	El tablón	8	Agosto	2023-08-17T00:00:00	2024-11-06T12:00:00	2	Temperatura media	19.3
172314	7	Sololá	701	Sololá	2	El tablón	8	Agosto	2023-08-17T00:00:00	2024-11-06T12:00:00	4	Temperatura máxima	19.3
172315	7	Sololá	701	Sololá	2	El tablón	8	Agosto	2023-08-17T00:00:00	2024-11-06T12:00:00	3	Temperatura mínima	18.4
172316	7	Sololá	701	Sololá	2	El tablón	8	Agosto	2023-08-17T00:00:00	2024-11-06T12:00:00	5	Humedad	65
172317	7	Sololá	701	Sololá	2	El tablón	8	Agosto	2023-08-17T00:00:00	2024-11-06T12:00:00	6	Velocidad del viento	11.3
172318	7	Sololá	701	Sololá	2	El tablón	8	Agosto	2023-08-17T00:00:00	2024-11-06T12:00:00	7	Dirección del viento	11.27
172319	7	Sololá	701	Sololá	2	El tablón	8	Agosto	2023-08-17T00:00:00	2024-11-06T12:00:00	1	Precipitación	0
172320	7	Sololá	701	Sololá	2	El tablón	8	Agosto	2023-08-17T00:00:00	2024-11-06T12:00:00	8	Radiación solar	932
172321	7	Sololá	701	Sololá	2	El tablón	8	Agosto	2023-08-17T00:00:00	2024-11-06T13:00:00	2	Temperatura media	19.6
172322	7	Sololá	701	Sololá	2	El tablón	8	Agosto	2023-08-17T00:00:00	2024-11-06T13:00:00	4	Temperatura máxima	20.3
172323	7	Sololá	701	Sololá	2	El tablón	8	Agosto	2023-08-17T00:00:00	2024-11-06T13:00:00	3	Temperatura mínima	19.2
172324	7	Sololá	701	Sololá	2	El tablón	8	Agosto	2023-08-17T00:00:00	2024-11-06T13:00:00	5	Humedad	63
172325	7	Sololá	701	Sololá	2	El tablón	8	Agosto	2023-08-17T00:00:00	2024-11-06T13:00:00	6	Velocidad del viento	11.3
172326	7	Sololá	701	Sololá	2	El tablón	8	Agosto	2023-08-17T00:00:00	2024-11-06T13:00:00	7	Dirección del viento	11.27
172327	7	Sololá	701	Sololá	2	El tablón	8	Agosto	2023-08-17T00:00:00	2024-11-06T13:00:00	1	Precipitación	0
172328	7	Sololá	701	Sololá	2	El tablón	8	Agosto	2023-08-17T00:00:00	2024-11-06T13:00:00	8	Radiación solar	1013
172329	7	Sololá	701	Sololá	2	El tablón	8	Agosto	2023-08-17T00:00:00	2024-11-06T14:00:00	2	Temperatura media	20.2
172330	7	Sololá	701	Sololá	2	El tablón	8	Agosto	2023-08-17T00:00:00	2024-11-06T14:00:00	4	Temperatura máxima	20.4
172331	7	Sololá	701	Sololá	2	El tablón	8	Agosto	2023-08-17T00:00:00	2024-11-06T14:00:00	3	Temperatura mínima	19.2
172332	7	Sololá	701	Sololá	2	El tablón	8	Agosto	2023-08-17T00:00:00	2024-11-06T14:00:00	5	Humedad	56
172333	7	Sololá	701	Sololá	2	El tablón	8	Agosto	2023-08-17T00:00:00	2024-11-06T14:00:00	6	Velocidad del viento	11.3
172334	7	Sololá	701	Sololá	2	El tablón	8	Agosto	2023-08-17T00:00:00	2024-11-06T14:00:00	7	Dirección del viento	11.27
172335	7	Sololá	701	Sololá	2	El tablón	8	Agosto	2023-08-17T00:00:00	2024-11-06T14:00:00	1	Precipitación	0
172336	7	Sololá	701	Sololá	2	El tablón	8	Agosto	2023-08-17T00:00:00	2024-11-06T14:00:00	8	Radiación solar	918
172337	7	Sololá	701	Sololá	2	El tablón	8	Agosto	2023-08-17T00:00:00	2024-11-06T15:00:00	2	Temperatura media	19.8
172338	7	Sololá	701	Sololá	2	El tablón	8	Agosto	2023-08-17T00:00:00	2024-11-06T15:00:00	4	Temperatura máxima	20.8
172339	7	Sololá	701	Sololá	2	El tablón	8	Agosto	2023-08-17T00:00:00	2024-11-06T15:00:00	3	Temperatura mínima	19.2
172340	7	Sololá	701	Sololá	2	El tablón	8	Agosto	2023-08-17T00:00:00	2024-11-06T15:00:00	5	Humedad	63
172341	7	Sololá	701	Sololá	2	El tablón	8	Agosto	2023-08-17T00:00:00	2024-11-06T15:00:00	6	Velocidad del viento	9.7
172342	7	Sololá	701	Sololá	2	El tablón	8	Agosto	2023-08-17T00:00:00	2024-11-06T15:00:00	7	Dirección del viento	9.66
172343	7	Sololá	701	Sololá	2	El tablón	8	Agosto	2023-08-17T00:00:00	2024-11-06T15:00:00	1	Precipitación	0
172344	7	Sololá	701	Sololá	2	El tablón	8	Agosto	2023-08-17T00:00:00	2024-11-06T15:00:00	8	Radiación solar	651
172345	7	Sololá	701	Sololá	2	El tablón	8	Agosto	2023-08-17T00:00:00	2024-11-06T16:00:00	2	Temperatura media	19.6
172346	7	Sololá	701	Sololá	2	El tablón	8	Agosto	2023-08-17T00:00:00	2024-11-06T16:00:00	4	Temperatura máxima	19.8
172347	7	Sololá	701	Sololá	2	El tablón	8	Agosto	2023-08-17T00:00:00	2024-11-06T16:00:00	3	Temperatura mínima	18.8
172348	7	Sololá	701	Sololá	2	El tablón	8	Agosto	2023-08-17T00:00:00	2024-11-06T16:00:00	5	Humedad	62
172349	7	Sololá	701	Sololá	2	El tablón	8	Agosto	2023-08-17T00:00:00	2024-11-06T16:00:00	6	Velocidad del viento	8
172350	7	Sololá	701	Sololá	2	El tablón	8	Agosto	2023-08-17T00:00:00	2024-11-06T16:00:00	7	Dirección del viento	8.05
172351	7	Sololá	701	Sololá	2	El tablón	8	Agosto	2023-08-17T00:00:00	2024-11-06T16:00:00	1	Precipitación	0
172352	7	Sololá	701	Sololá	2	El tablón	8	Agosto	2023-08-17T00:00:00	2024-11-06T16:00:00	8	Radiación solar	419
172353	7	Sololá	701	Sololá	2	El tablón	8	Agosto	2023-08-17T00:00:00	2024-11-06T17:00:00	2	Temperatura media	19.4
172354	7	Sololá	701	Sololá	2	El tablón	8	Agosto	2023-08-17T00:00:00	2024-11-06T17:00:00	4	Temperatura máxima	19.6
172355	7	Sololá	701	Sololá	2	El tablón	8	Agosto	2023-08-17T00:00:00	2024-11-06T17:00:00	3	Temperatura mínima	19.3
172356	7	Sololá	701	Sololá	2	El tablón	8	Agosto	2023-08-17T00:00:00	2024-11-06T17:00:00	5	Humedad	65
172357	7	Sololá	701	Sololá	2	El tablón	8	Agosto	2023-08-17T00:00:00	2024-11-06T17:00:00	6	Velocidad del viento	6.4
172358	7	Sololá	701	Sololá	2	El tablón	8	Agosto	2023-08-17T00:00:00	2024-11-06T17:00:00	7	Dirección del viento	6.44
172359	7	Sololá	701	Sololá	2	El tablón	8	Agosto	2023-08-17T00:00:00	2024-11-06T17:00:00	1	Precipitación	0
172360	7	Sololá	701	Sololá	2	El tablón	8	Agosto	2023-08-17T00:00:00	2024-11-06T17:00:00	8	Radiación solar	383
172361	7	Sololá	701	Sololá	2	El tablón	8	Agosto	2023-08-17T00:00:00	2024-11-06T18:00:00	2	Temperatura media	17.4
172362	7	Sololá	701	Sololá	2	El tablón	8	Agosto	2023-08-17T00:00:00	2024-11-06T18:00:00	4	Temperatura máxima	19.6
172363	7	Sololá	701	Sololá	2	El tablón	8	Agosto	2023-08-17T00:00:00	2024-11-06T18:00:00	3	Temperatura mínima	17.4
172364	7	Sololá	701	Sololá	2	El tablón	8	Agosto	2023-08-17T00:00:00	2024-11-06T18:00:00	5	Humedad	81
172365	7	Sololá	701	Sololá	2	El tablón	8	Agosto	2023-08-17T00:00:00	2024-11-06T18:00:00	6	Velocidad del viento	4.8
172366	7	Sololá	701	Sololá	2	El tablón	8	Agosto	2023-08-17T00:00:00	2024-11-06T18:00:00	7	Dirección del viento	4.83
172367	7	Sololá	701	Sololá	2	El tablón	8	Agosto	2023-08-17T00:00:00	2024-11-06T18:00:00	1	Precipitación	0
172368	7	Sololá	701	Sololá	2	El tablón	8	Agosto	2023-08-17T00:00:00	2024-11-06T18:00:00	8	Radiación solar	185
172369	7	Sololá	701	Sololá	2	El tablón	8	Agosto	2023-08-17T00:00:00	2024-11-06T19:00:00	2	Temperatura media	16
172370	7	Sololá	701	Sololá	2	El tablón	8	Agosto	2023-08-17T00:00:00	2024-11-06T19:00:00	4	Temperatura máxima	17.4
172371	7	Sololá	701	Sololá	2	El tablón	8	Agosto	2023-08-17T00:00:00	2024-11-06T19:00:00	3	Temperatura mínima	16
172372	7	Sololá	701	Sololá	2	El tablón	8	Agosto	2023-08-17T00:00:00	2024-11-06T19:00:00	5	Humedad	85
172373	7	Sololá	701	Sololá	2	El tablón	8	Agosto	2023-08-17T00:00:00	2024-11-06T19:00:00	6	Velocidad del viento	3.2
172374	7	Sololá	701	Sololá	2	El tablón	8	Agosto	2023-08-17T00:00:00	2024-11-06T19:00:00	7	Dirección del viento	3.22
172375	7	Sololá	701	Sololá	2	El tablón	8	Agosto	2023-08-17T00:00:00	2024-11-06T19:00:00	1	Precipitación	0
172376	7	Sololá	701	Sololá	2	El tablón	8	Agosto	2023-08-17T00:00:00	2024-11-06T19:00:00	8	Radiación solar	0
172377	7	Sololá	701	Sololá	2	El tablón	8	Agosto	2023-08-17T00:00:00	2024-11-06T20:00:00	2	Temperatura media	14.9
172378	7	Sololá	701	Sololá	2	El tablón	8	Agosto	2023-08-17T00:00:00	2024-11-06T20:00:00	4	Temperatura máxima	16
172379	7	Sololá	701	Sololá	2	El tablón	8	Agosto	2023-08-17T00:00:00	2024-11-06T20:00:00	3	Temperatura mínima	14.9
172380	7	Sololá	701	Sololá	2	El tablón	8	Agosto	2023-08-17T00:00:00	2024-11-06T20:00:00	5	Humedad	86
172381	7	Sololá	701	Sololá	2	El tablón	8	Agosto	2023-08-17T00:00:00	2024-11-06T20:00:00	6	Velocidad del viento	6.4
172382	7	Sololá	701	Sololá	2	El tablón	8	Agosto	2023-08-17T00:00:00	2024-11-06T20:00:00	7	Dirección del viento	6.44
172383	7	Sololá	701	Sololá	2	El tablón	8	Agosto	2023-08-17T00:00:00	2024-11-06T20:00:00	1	Precipitación	0
172384	7	Sololá	701	Sololá	2	El tablón	8	Agosto	2023-08-17T00:00:00	2024-11-06T20:00:00	8	Radiación solar	0
172385	7	Sololá	701	Sololá	2	El tablón	8	Agosto	2023-08-17T00:00:00	2024-11-06T21:00:00	2	Temperatura media	14.6
172386	7	Sololá	701	Sololá	2	El tablón	8	Agosto	2023-08-17T00:00:00	2024-11-06T21:00:00	4	Temperatura máxima	14.9
172387	7	Sololá	701	Sololá	2	El tablón	8	Agosto	2023-08-17T00:00:00	2024-11-06T21:00:00	3	Temperatura mínima	14.6
172388	7	Sololá	701	Sololá	2	El tablón	8	Agosto	2023-08-17T00:00:00	2024-11-06T21:00:00	5	Humedad	86
172389	7	Sololá	701	Sololá	2	El tablón	8	Agosto	2023-08-17T00:00:00	2024-11-06T21:00:00	6	Velocidad del viento	9.7
172390	7	Sololá	701	Sololá	2	El tablón	8	Agosto	2023-08-17T00:00:00	2024-11-06T21:00:00	7	Dirección del viento	9.66
172391	7	Sololá	701	Sololá	2	El tablón	8	Agosto	2023-08-17T00:00:00	2024-11-06T21:00:00	1	Precipitación	0
172392	7	Sololá	701	Sololá	2	El tablón	8	Agosto	2023-08-17T00:00:00	2024-11-06T21:00:00	8	Radiación solar	0
172393	7	Sololá	701	Sololá	2	El tablón	8	Agosto	2023-08-17T00:00:00	2024-11-06T22:00:00	2	Temperatura media	14.3
172394	7	Sololá	701	Sololá	2	El tablón	8	Agosto	2023-08-17T00:00:00	2024-11-06T22:00:00	4	Temperatura máxima	14.6
172395	7	Sololá	701	Sololá	2	El tablón	8	Agosto	2023-08-17T00:00:00	2024-11-06T22:00:00	3	Temperatura mínima	14.2
172396	7	Sololá	701	Sololá	2	El tablón	8	Agosto	2023-08-17T00:00:00	2024-11-06T22:00:00	5	Humedad	86
172397	7	Sololá	701	Sololá	2	El tablón	8	Agosto	2023-08-17T00:00:00	2024-11-06T22:00:00	6	Velocidad del viento	4.8
172398	7	Sololá	701	Sololá	2	El tablón	8	Agosto	2023-08-17T00:00:00	2024-11-06T22:00:00	7	Dirección del viento	4.83
172399	7	Sololá	701	Sololá	2	El tablón	8	Agosto	2023-08-17T00:00:00	2024-11-06T22:00:00	1	Precipitación	0
172400	7	Sololá	701	Sololá	2	El tablón	8	Agosto	2023-08-17T00:00:00	2024-11-06T22:00:00	8	Radiación solar	0
172401	7	Sololá	701	Sololá	2	El tablón	8	Agosto	2023-08-17T00:00:00	2024-11-06T23:00:00	2	Temperatura media	13.4
172402	7	Sololá	701	Sololá	2	El tablón	8	Agosto	2023-08-17T00:00:00	2024-11-06T23:00:00	4	Temperatura máxima	14.3
172403	7	Sololá	701	Sololá	2	El tablón	8	Agosto	2023-08-17T00:00:00	2024-11-06T23:00:00	3	Temperatura mínima	13.4
172404	7	Sololá	701	Sololá	2	El tablón	8	Agosto	2023-08-17T00:00:00	2024-11-06T23:00:00	5	Humedad	87
172405	7	Sololá	701	Sololá	2	El tablón	8	Agosto	2023-08-17T00:00:00	2024-11-06T23:00:00	6	Velocidad del viento	4.8
172406	7	Sololá	701	Sololá	2	El tablón	8	Agosto	2023-08-17T00:00:00	2024-11-06T23:00:00	7	Dirección del viento	4.83
172407	7	Sololá	701	Sololá	2	El tablón	8	Agosto	2023-08-17T00:00:00	2024-11-06T23:00:00	1	Precipitación	0
172408	7	Sololá	701	Sololá	2	El tablón	8	Agosto	2023-08-17T00:00:00	2024-11-06T23:00:00	8	Radiación solar	0
172409	7	Sololá	701	Sololá	2	El tablón	8	Agosto	2023-08-18T00:00:00	2024-11-06T00:00:00	2	Temperatura media	13.4
172410	7	Sololá	701	Sololá	2	El tablón	8	Agosto	2023-08-18T00:00:00	2024-11-06T00:00:00	4	Temperatura máxima	13.4
172411	7	Sololá	701	Sololá	2	El tablón	8	Agosto	2023-08-18T00:00:00	2024-11-06T00:00:00	3	Temperatura mínima	13.2
172412	7	Sololá	701	Sololá	2	El tablón	8	Agosto	2023-08-18T00:00:00	2024-11-06T00:00:00	5	Humedad	87
172413	7	Sololá	701	Sololá	2	El tablón	8	Agosto	2023-08-18T00:00:00	2024-11-06T00:00:00	6	Velocidad del viento	9.7
172414	7	Sololá	701	Sololá	2	El tablón	8	Agosto	2023-08-18T00:00:00	2024-11-06T00:00:00	7	Dirección del viento	9.66
172415	7	Sololá	701	Sololá	2	El tablón	8	Agosto	2023-08-18T00:00:00	2024-11-06T00:00:00	1	Precipitación	0
172416	7	Sololá	701	Sololá	2	El tablón	8	Agosto	2023-08-18T00:00:00	2024-11-06T00:00:00	8	Radiación solar	0
172417	7	Sololá	701	Sololá	2	El tablón	8	Agosto	2023-08-18T00:00:00	2024-11-06T01:00:00	2	Temperatura media	13.2
172418	7	Sololá	701	Sololá	2	El tablón	8	Agosto	2023-08-18T00:00:00	2024-11-06T01:00:00	4	Temperatura máxima	13.4
172419	7	Sololá	701	Sololá	2	El tablón	8	Agosto	2023-08-18T00:00:00	2024-11-06T01:00:00	3	Temperatura mínima	13.2
172420	7	Sololá	701	Sololá	2	El tablón	8	Agosto	2023-08-18T00:00:00	2024-11-06T01:00:00	5	Humedad	87
172421	7	Sololá	701	Sololá	2	El tablón	8	Agosto	2023-08-18T00:00:00	2024-11-06T01:00:00	6	Velocidad del viento	8
172422	7	Sololá	701	Sololá	2	El tablón	8	Agosto	2023-08-18T00:00:00	2024-11-06T01:00:00	7	Dirección del viento	8.05
172423	7	Sololá	701	Sololá	2	El tablón	8	Agosto	2023-08-18T00:00:00	2024-11-06T01:00:00	1	Precipitación	0
172424	7	Sololá	701	Sololá	2	El tablón	8	Agosto	2023-08-18T00:00:00	2024-11-06T01:00:00	8	Radiación solar	0
172425	7	Sololá	701	Sololá	2	El tablón	8	Agosto	2023-08-18T00:00:00	2024-11-06T02:00:00	2	Temperatura media	13.8
172426	7	Sololá	701	Sololá	2	El tablón	8	Agosto	2023-08-18T00:00:00	2024-11-06T02:00:00	4	Temperatura máxima	13.8
172427	7	Sololá	701	Sololá	2	El tablón	8	Agosto	2023-08-18T00:00:00	2024-11-06T02:00:00	3	Temperatura mínima	13.2
172428	7	Sololá	701	Sololá	2	El tablón	8	Agosto	2023-08-18T00:00:00	2024-11-06T02:00:00	5	Humedad	87
172429	7	Sololá	701	Sololá	2	El tablón	8	Agosto	2023-08-18T00:00:00	2024-11-06T02:00:00	6	Velocidad del viento	8
172430	7	Sololá	701	Sololá	2	El tablón	8	Agosto	2023-08-18T00:00:00	2024-11-06T02:00:00	7	Dirección del viento	8.05
172431	7	Sololá	701	Sololá	2	El tablón	8	Agosto	2023-08-18T00:00:00	2024-11-06T02:00:00	1	Precipitación	0
172432	7	Sololá	701	Sololá	2	El tablón	8	Agosto	2023-08-18T00:00:00	2024-11-06T02:00:00	8	Radiación solar	0
172433	7	Sololá	701	Sololá	2	El tablón	8	Agosto	2023-08-18T00:00:00	2024-11-06T03:00:00	2	Temperatura media	13.6
172434	7	Sololá	701	Sololá	2	El tablón	8	Agosto	2023-08-18T00:00:00	2024-11-06T03:00:00	4	Temperatura máxima	13.8
172435	7	Sololá	701	Sololá	2	El tablón	8	Agosto	2023-08-18T00:00:00	2024-11-06T03:00:00	3	Temperatura mínima	13.6
172436	7	Sololá	701	Sololá	2	El tablón	8	Agosto	2023-08-18T00:00:00	2024-11-06T03:00:00	5	Humedad	87
172437	7	Sololá	701	Sololá	2	El tablón	8	Agosto	2023-08-18T00:00:00	2024-11-06T03:00:00	6	Velocidad del viento	6.4
172438	7	Sololá	701	Sololá	2	El tablón	8	Agosto	2023-08-18T00:00:00	2024-11-06T03:00:00	7	Dirección del viento	6.44
172439	7	Sololá	701	Sololá	2	El tablón	8	Agosto	2023-08-18T00:00:00	2024-11-06T03:00:00	1	Precipitación	0
172440	7	Sololá	701	Sololá	2	El tablón	8	Agosto	2023-08-18T00:00:00	2024-11-06T03:00:00	8	Radiación solar	0
172441	7	Sololá	701	Sololá	2	El tablón	8	Agosto	2023-08-18T00:00:00	2024-11-06T04:00:00	2	Temperatura media	13.1
172442	7	Sololá	701	Sololá	2	El tablón	8	Agosto	2023-08-18T00:00:00	2024-11-06T04:00:00	4	Temperatura máxima	13.7
172443	7	Sololá	701	Sololá	2	El tablón	8	Agosto	2023-08-18T00:00:00	2024-11-06T04:00:00	3	Temperatura mínima	13.1
172444	7	Sololá	701	Sololá	2	El tablón	8	Agosto	2023-08-18T00:00:00	2024-11-06T04:00:00	5	Humedad	88
172445	7	Sololá	701	Sololá	2	El tablón	8	Agosto	2023-08-18T00:00:00	2024-11-06T04:00:00	6	Velocidad del viento	8
172446	7	Sololá	701	Sololá	2	El tablón	8	Agosto	2023-08-18T00:00:00	2024-11-06T04:00:00	7	Dirección del viento	8.05
172447	7	Sololá	701	Sololá	2	El tablón	8	Agosto	2023-08-18T00:00:00	2024-11-06T04:00:00	1	Precipitación	0
172448	7	Sololá	701	Sololá	2	El tablón	8	Agosto	2023-08-18T00:00:00	2024-11-06T04:00:00	8	Radiación solar	0
172449	7	Sololá	701	Sololá	2	El tablón	8	Agosto	2023-08-18T00:00:00	2024-11-06T05:00:00	2	Temperatura media	13.1
172450	7	Sololá	701	Sololá	2	El tablón	8	Agosto	2023-08-18T00:00:00	2024-11-06T05:00:00	4	Temperatura máxima	13.1
172451	7	Sololá	701	Sololá	2	El tablón	8	Agosto	2023-08-18T00:00:00	2024-11-06T05:00:00	3	Temperatura mínima	13.1
172452	7	Sololá	701	Sololá	2	El tablón	8	Agosto	2023-08-18T00:00:00	2024-11-06T05:00:00	5	Humedad	88
172453	7	Sololá	701	Sololá	2	El tablón	8	Agosto	2023-08-18T00:00:00	2024-11-06T05:00:00	6	Velocidad del viento	9.7
172454	7	Sololá	701	Sololá	2	El tablón	8	Agosto	2023-08-18T00:00:00	2024-11-06T05:00:00	7	Dirección del viento	9.66
172455	7	Sololá	701	Sololá	2	El tablón	8	Agosto	2023-08-18T00:00:00	2024-11-06T05:00:00	1	Precipitación	0
172456	7	Sololá	701	Sololá	2	El tablón	8	Agosto	2023-08-18T00:00:00	2024-11-06T05:00:00	8	Radiación solar	0
172457	7	Sololá	701	Sololá	2	El tablón	8	Agosto	2023-08-18T00:00:00	2024-11-06T06:00:00	2	Temperatura media	13.1
172458	7	Sololá	701	Sololá	2	El tablón	8	Agosto	2023-08-18T00:00:00	2024-11-06T06:00:00	4	Temperatura máxima	13.3
172459	7	Sololá	701	Sololá	2	El tablón	8	Agosto	2023-08-18T00:00:00	2024-11-06T06:00:00	3	Temperatura mínima	13.1
172460	7	Sololá	701	Sololá	2	El tablón	8	Agosto	2023-08-18T00:00:00	2024-11-06T06:00:00	5	Humedad	87
172461	7	Sololá	701	Sololá	2	El tablón	8	Agosto	2023-08-18T00:00:00	2024-11-06T06:00:00	6	Velocidad del viento	6.4
172462	7	Sololá	701	Sololá	2	El tablón	8	Agosto	2023-08-18T00:00:00	2024-11-06T06:00:00	7	Dirección del viento	6.44
172463	7	Sololá	701	Sololá	2	El tablón	8	Agosto	2023-08-18T00:00:00	2024-11-06T06:00:00	1	Precipitación	0
172464	7	Sololá	701	Sololá	2	El tablón	8	Agosto	2023-08-18T00:00:00	2024-11-06T06:00:00	8	Radiación solar	0
172465	7	Sololá	701	Sololá	2	El tablón	8	Agosto	2023-08-18T00:00:00	2024-11-06T07:00:00	2	Temperatura media	14.4
172466	7	Sololá	701	Sololá	2	El tablón	8	Agosto	2023-08-18T00:00:00	2024-11-06T07:00:00	4	Temperatura máxima	14.4
172467	7	Sololá	701	Sololá	2	El tablón	8	Agosto	2023-08-18T00:00:00	2024-11-06T07:00:00	3	Temperatura mínima	13
172468	7	Sololá	701	Sololá	2	El tablón	8	Agosto	2023-08-18T00:00:00	2024-11-06T07:00:00	5	Humedad	85
172469	7	Sololá	701	Sololá	2	El tablón	8	Agosto	2023-08-18T00:00:00	2024-11-06T07:00:00	6	Velocidad del viento	4.8
172470	7	Sololá	701	Sololá	2	El tablón	8	Agosto	2023-08-18T00:00:00	2024-11-06T07:00:00	7	Dirección del viento	4.83
172471	7	Sololá	701	Sololá	2	El tablón	8	Agosto	2023-08-18T00:00:00	2024-11-06T07:00:00	1	Precipitación	0
172472	7	Sololá	701	Sololá	2	El tablón	8	Agosto	2023-08-18T00:00:00	2024-11-06T07:00:00	8	Radiación solar	73
172473	7	Sololá	701	Sololá	2	El tablón	8	Agosto	2023-08-18T00:00:00	2024-11-06T08:00:00	2	Temperatura media	15.2
172474	7	Sololá	701	Sololá	2	El tablón	8	Agosto	2023-08-18T00:00:00	2024-11-06T08:00:00	4	Temperatura máxima	15.4
172475	7	Sololá	701	Sololá	2	El tablón	8	Agosto	2023-08-18T00:00:00	2024-11-06T08:00:00	3	Temperatura mínima	14.3
172476	7	Sololá	701	Sololá	2	El tablón	8	Agosto	2023-08-18T00:00:00	2024-11-06T08:00:00	5	Humedad	82
172477	7	Sololá	701	Sololá	2	El tablón	8	Agosto	2023-08-18T00:00:00	2024-11-06T08:00:00	6	Velocidad del viento	6.4
172478	7	Sololá	701	Sololá	2	El tablón	8	Agosto	2023-08-18T00:00:00	2024-11-06T08:00:00	7	Dirección del viento	6.44
172479	7	Sololá	701	Sololá	2	El tablón	8	Agosto	2023-08-18T00:00:00	2024-11-06T08:00:00	1	Precipitación	0
172480	7	Sololá	701	Sololá	2	El tablón	8	Agosto	2023-08-18T00:00:00	2024-11-06T08:00:00	8	Radiación solar	241
172481	7	Sololá	701	Sololá	2	El tablón	8	Agosto	2023-08-18T00:00:00	2024-11-06T09:00:00	2	Temperatura media	16.9
172482	7	Sololá	701	Sololá	2	El tablón	8	Agosto	2023-08-18T00:00:00	2024-11-06T09:00:00	4	Temperatura máxima	17.2
172483	7	Sololá	701	Sololá	2	El tablón	8	Agosto	2023-08-18T00:00:00	2024-11-06T09:00:00	3	Temperatura mínima	15.2
172484	7	Sololá	701	Sololá	2	El tablón	8	Agosto	2023-08-18T00:00:00	2024-11-06T09:00:00	5	Humedad	77
172485	7	Sololá	701	Sololá	2	El tablón	8	Agosto	2023-08-18T00:00:00	2024-11-06T09:00:00	6	Velocidad del viento	9.7
172486	7	Sololá	701	Sololá	2	El tablón	8	Agosto	2023-08-18T00:00:00	2024-11-06T09:00:00	7	Dirección del viento	9.66
172487	7	Sololá	701	Sololá	2	El tablón	8	Agosto	2023-08-18T00:00:00	2024-11-06T09:00:00	1	Precipitación	0
172488	7	Sololá	701	Sololá	2	El tablón	8	Agosto	2023-08-18T00:00:00	2024-11-06T09:00:00	8	Radiación solar	519
172489	7	Sololá	701	Sololá	2	El tablón	8	Agosto	2023-08-18T00:00:00	2024-11-06T10:00:00	2	Temperatura media	17.4
172490	7	Sololá	701	Sololá	2	El tablón	8	Agosto	2023-08-18T00:00:00	2024-11-06T10:00:00	4	Temperatura máxima	17.5
172491	7	Sololá	701	Sololá	2	El tablón	8	Agosto	2023-08-18T00:00:00	2024-11-06T10:00:00	3	Temperatura mínima	16.8
172492	7	Sololá	701	Sololá	2	El tablón	8	Agosto	2023-08-18T00:00:00	2024-11-06T10:00:00	5	Humedad	76
172493	7	Sololá	701	Sololá	2	El tablón	8	Agosto	2023-08-18T00:00:00	2024-11-06T10:00:00	6	Velocidad del viento	11.3
172494	7	Sololá	701	Sololá	2	El tablón	8	Agosto	2023-08-18T00:00:00	2024-11-06T10:00:00	7	Dirección del viento	11.27
172495	7	Sololá	701	Sololá	2	El tablón	8	Agosto	2023-08-18T00:00:00	2024-11-06T10:00:00	1	Precipitación	0
172496	7	Sololá	701	Sololá	2	El tablón	8	Agosto	2023-08-18T00:00:00	2024-11-06T10:00:00	8	Radiación solar	758
172497	7	Sololá	701	Sololá	2	El tablón	8	Agosto	2023-08-18T00:00:00	2024-11-06T11:00:00	2	Temperatura media	18.8
172498	7	Sololá	701	Sololá	2	El tablón	8	Agosto	2023-08-18T00:00:00	2024-11-06T11:00:00	4	Temperatura máxima	18.8
172499	7	Sololá	701	Sololá	2	El tablón	8	Agosto	2023-08-18T00:00:00	2024-11-06T11:00:00	3	Temperatura mínima	17.4
172500	7	Sololá	701	Sololá	2	El tablón	8	Agosto	2023-08-18T00:00:00	2024-11-06T11:00:00	5	Humedad	70
172501	7	Sololá	701	Sololá	2	El tablón	8	Agosto	2023-08-18T00:00:00	2024-11-06T11:00:00	6	Velocidad del viento	11.3
172502	7	Sololá	701	Sololá	2	El tablón	8	Agosto	2023-08-18T00:00:00	2024-11-06T11:00:00	7	Dirección del viento	11.27
172503	7	Sololá	701	Sololá	2	El tablón	8	Agosto	2023-08-18T00:00:00	2024-11-06T11:00:00	1	Precipitación	0
172504	7	Sololá	701	Sololá	2	El tablón	8	Agosto	2023-08-18T00:00:00	2024-11-06T11:00:00	8	Radiación solar	829
172505	7	Sololá	701	Sololá	2	El tablón	8	Agosto	2023-08-18T00:00:00	2024-11-06T12:00:00	2	Temperatura media	19
172506	7	Sololá	701	Sololá	2	El tablón	8	Agosto	2023-08-18T00:00:00	2024-11-06T12:00:00	4	Temperatura máxima	19.3
172507	7	Sololá	701	Sololá	2	El tablón	8	Agosto	2023-08-18T00:00:00	2024-11-06T12:00:00	3	Temperatura mínima	18.7
172508	7	Sololá	701	Sololá	2	El tablón	8	Agosto	2023-08-18T00:00:00	2024-11-06T12:00:00	5	Humedad	69
172509	7	Sololá	701	Sololá	2	El tablón	8	Agosto	2023-08-18T00:00:00	2024-11-06T12:00:00	6	Velocidad del viento	9.7
172510	7	Sololá	701	Sololá	2	El tablón	8	Agosto	2023-08-18T00:00:00	2024-11-06T12:00:00	7	Dirección del viento	9.66
172511	7	Sololá	701	Sololá	2	El tablón	8	Agosto	2023-08-18T00:00:00	2024-11-06T12:00:00	1	Precipitación	0
172512	7	Sololá	701	Sololá	2	El tablón	8	Agosto	2023-08-18T00:00:00	2024-11-06T12:00:00	8	Radiación solar	619
172513	7	Sololá	701	Sololá	2	El tablón	8	Agosto	2023-08-18T00:00:00	2024-11-06T13:00:00	2	Temperatura media	18.9
172514	7	Sololá	701	Sololá	2	El tablón	8	Agosto	2023-08-18T00:00:00	2024-11-06T13:00:00	4	Temperatura máxima	19.1
172515	7	Sololá	701	Sololá	2	El tablón	8	Agosto	2023-08-18T00:00:00	2024-11-06T13:00:00	3	Temperatura mínima	17.7
172516	7	Sololá	701	Sololá	2	El tablón	8	Agosto	2023-08-18T00:00:00	2024-11-06T13:00:00	5	Humedad	69
172517	7	Sololá	701	Sololá	2	El tablón	8	Agosto	2023-08-18T00:00:00	2024-11-06T13:00:00	6	Velocidad del viento	8
172518	7	Sololá	701	Sololá	2	El tablón	8	Agosto	2023-08-18T00:00:00	2024-11-06T13:00:00	7	Dirección del viento	8.05
172519	7	Sololá	701	Sololá	2	El tablón	8	Agosto	2023-08-18T00:00:00	2024-11-06T13:00:00	1	Precipitación	0
172520	7	Sololá	701	Sololá	2	El tablón	8	Agosto	2023-08-18T00:00:00	2024-11-06T13:00:00	8	Radiación solar	389
172521	7	Sololá	701	Sololá	2	El tablón	8	Agosto	2023-08-18T00:00:00	2024-11-06T14:00:00	2	Temperatura media	18.3
172522	7	Sololá	701	Sololá	2	El tablón	8	Agosto	2023-08-18T00:00:00	2024-11-06T14:00:00	4	Temperatura máxima	19.8
172523	7	Sololá	701	Sololá	2	El tablón	8	Agosto	2023-08-18T00:00:00	2024-11-06T14:00:00	3	Temperatura mínima	18.3
172524	7	Sololá	701	Sololá	2	El tablón	8	Agosto	2023-08-18T00:00:00	2024-11-06T14:00:00	5	Humedad	75
172525	7	Sololá	701	Sololá	2	El tablón	8	Agosto	2023-08-18T00:00:00	2024-11-06T14:00:00	6	Velocidad del viento	8
172526	7	Sololá	701	Sololá	2	El tablón	8	Agosto	2023-08-18T00:00:00	2024-11-06T14:00:00	7	Dirección del viento	8.05
172527	7	Sololá	701	Sololá	2	El tablón	8	Agosto	2023-08-18T00:00:00	2024-11-06T14:00:00	1	Precipitación	0
172528	7	Sololá	701	Sololá	2	El tablón	8	Agosto	2023-08-18T00:00:00	2024-11-06T14:00:00	8	Radiación solar	489
172529	7	Sololá	701	Sololá	2	El tablón	8	Agosto	2023-08-18T00:00:00	2024-11-06T15:00:00	2	Temperatura media	18.9
172530	7	Sololá	701	Sololá	2	El tablón	8	Agosto	2023-08-18T00:00:00	2024-11-06T15:00:00	4	Temperatura máxima	19.3
172531	7	Sololá	701	Sololá	2	El tablón	8	Agosto	2023-08-18T00:00:00	2024-11-06T15:00:00	3	Temperatura mínima	18.2
172532	7	Sololá	701	Sololá	2	El tablón	8	Agosto	2023-08-18T00:00:00	2024-11-06T15:00:00	5	Humedad	68
172533	7	Sololá	701	Sololá	2	El tablón	8	Agosto	2023-08-18T00:00:00	2024-11-06T15:00:00	6	Velocidad del viento	9.7
172534	7	Sololá	701	Sololá	2	El tablón	8	Agosto	2023-08-18T00:00:00	2024-11-06T15:00:00	7	Dirección del viento	9.66
172535	7	Sololá	701	Sololá	2	El tablón	8	Agosto	2023-08-18T00:00:00	2024-11-06T15:00:00	1	Precipitación	0
172536	7	Sololá	701	Sololá	2	El tablón	8	Agosto	2023-08-18T00:00:00	2024-11-06T15:00:00	8	Radiación solar	576
172537	7	Sololá	701	Sololá	2	El tablón	8	Agosto	2023-08-18T00:00:00	2024-11-06T16:00:00	2	Temperatura media	19.7
172538	7	Sololá	701	Sololá	2	El tablón	8	Agosto	2023-08-18T00:00:00	2024-11-06T16:00:00	4	Temperatura máxima	20
172539	7	Sololá	701	Sololá	2	El tablón	8	Agosto	2023-08-18T00:00:00	2024-11-06T16:00:00	3	Temperatura mínima	18.9
172540	7	Sololá	701	Sololá	2	El tablón	8	Agosto	2023-08-18T00:00:00	2024-11-06T16:00:00	5	Humedad	52
172541	7	Sololá	701	Sololá	2	El tablón	8	Agosto	2023-08-18T00:00:00	2024-11-06T16:00:00	6	Velocidad del viento	9.7
172542	7	Sololá	701	Sololá	2	El tablón	8	Agosto	2023-08-18T00:00:00	2024-11-06T16:00:00	7	Dirección del viento	9.66
172543	7	Sololá	701	Sololá	2	El tablón	8	Agosto	2023-08-18T00:00:00	2024-11-06T16:00:00	1	Precipitación	0
172544	7	Sololá	701	Sololá	2	El tablón	8	Agosto	2023-08-18T00:00:00	2024-11-06T16:00:00	8	Radiación solar	635
172545	7	Sololá	701	Sololá	2	El tablón	8	Agosto	2023-08-18T00:00:00	2024-11-06T17:00:00	2	Temperatura media	18.6
172546	7	Sololá	701	Sololá	2	El tablón	8	Agosto	2023-08-18T00:00:00	2024-11-06T17:00:00	4	Temperatura máxima	19.9
172547	7	Sololá	701	Sololá	2	El tablón	8	Agosto	2023-08-18T00:00:00	2024-11-06T17:00:00	3	Temperatura mínima	18.3
172548	7	Sololá	701	Sololá	2	El tablón	8	Agosto	2023-08-18T00:00:00	2024-11-06T17:00:00	5	Humedad	63
172549	7	Sololá	701	Sololá	2	El tablón	8	Agosto	2023-08-18T00:00:00	2024-11-06T17:00:00	6	Velocidad del viento	9.7
172550	7	Sololá	701	Sololá	2	El tablón	8	Agosto	2023-08-18T00:00:00	2024-11-06T17:00:00	7	Dirección del viento	9.66
172551	7	Sololá	701	Sololá	2	El tablón	8	Agosto	2023-08-18T00:00:00	2024-11-06T17:00:00	1	Precipitación	0
172552	7	Sololá	701	Sololá	2	El tablón	8	Agosto	2023-08-18T00:00:00	2024-11-06T17:00:00	8	Radiación solar	395
172553	7	Sololá	701	Sololá	2	El tablón	8	Agosto	2023-08-18T00:00:00	2024-11-06T18:00:00	2	Temperatura media	17.1
172554	7	Sololá	701	Sololá	2	El tablón	8	Agosto	2023-08-18T00:00:00	2024-11-06T18:00:00	4	Temperatura máxima	18.7
172555	7	Sololá	701	Sololá	2	El tablón	8	Agosto	2023-08-18T00:00:00	2024-11-06T18:00:00	3	Temperatura mínima	17.1
172556	7	Sololá	701	Sololá	2	El tablón	8	Agosto	2023-08-18T00:00:00	2024-11-06T18:00:00	5	Humedad	76
172557	7	Sololá	701	Sololá	2	El tablón	8	Agosto	2023-08-18T00:00:00	2024-11-06T18:00:00	6	Velocidad del viento	8
172558	7	Sololá	701	Sololá	2	El tablón	8	Agosto	2023-08-18T00:00:00	2024-11-06T18:00:00	7	Dirección del viento	8.05
172559	7	Sololá	701	Sololá	2	El tablón	8	Agosto	2023-08-18T00:00:00	2024-11-06T18:00:00	1	Precipitación	0
172560	7	Sololá	701	Sololá	2	El tablón	8	Agosto	2023-08-18T00:00:00	2024-11-06T18:00:00	8	Radiación solar	114
172561	7	Sololá	701	Sololá	2	El tablón	8	Agosto	2023-08-18T00:00:00	2024-11-06T19:00:00	2	Temperatura media	15.3
172562	7	Sololá	701	Sololá	2	El tablón	8	Agosto	2023-08-18T00:00:00	2024-11-06T19:00:00	4	Temperatura máxima	17.1
172563	7	Sololá	701	Sololá	2	El tablón	8	Agosto	2023-08-18T00:00:00	2024-11-06T19:00:00	3	Temperatura mínima	15.3
172564	7	Sololá	701	Sololá	2	El tablón	8	Agosto	2023-08-18T00:00:00	2024-11-06T19:00:00	5	Humedad	82
172565	7	Sololá	701	Sololá	2	El tablón	8	Agosto	2023-08-18T00:00:00	2024-11-06T19:00:00	6	Velocidad del viento	8
172566	7	Sololá	701	Sololá	2	El tablón	8	Agosto	2023-08-18T00:00:00	2024-11-06T19:00:00	7	Dirección del viento	8.05
172567	7	Sololá	701	Sololá	2	El tablón	8	Agosto	2023-08-18T00:00:00	2024-11-06T19:00:00	1	Precipitación	0
172568	7	Sololá	701	Sololá	2	El tablón	8	Agosto	2023-08-18T00:00:00	2024-11-06T19:00:00	8	Radiación solar	0
172569	7	Sololá	701	Sololá	2	El tablón	8	Agosto	2023-08-18T00:00:00	2024-11-06T20:00:00	2	Temperatura media	14.7
172570	7	Sololá	701	Sololá	2	El tablón	8	Agosto	2023-08-18T00:00:00	2024-11-06T20:00:00	4	Temperatura máxima	15.3
172571	7	Sololá	701	Sololá	2	El tablón	8	Agosto	2023-08-18T00:00:00	2024-11-06T20:00:00	3	Temperatura mínima	14.7
172572	7	Sololá	701	Sololá	2	El tablón	8	Agosto	2023-08-18T00:00:00	2024-11-06T20:00:00	5	Humedad	84
172573	7	Sololá	701	Sololá	2	El tablón	8	Agosto	2023-08-18T00:00:00	2024-11-06T20:00:00	6	Velocidad del viento	9.7
172574	7	Sololá	701	Sololá	2	El tablón	8	Agosto	2023-08-18T00:00:00	2024-11-06T20:00:00	7	Dirección del viento	9.66
172575	7	Sololá	701	Sololá	2	El tablón	8	Agosto	2023-08-18T00:00:00	2024-11-06T20:00:00	1	Precipitación	0
172576	7	Sololá	701	Sololá	2	El tablón	8	Agosto	2023-08-18T00:00:00	2024-11-06T20:00:00	8	Radiación solar	0
172577	7	Sololá	701	Sololá	2	El tablón	8	Agosto	2023-08-18T00:00:00	2024-11-06T21:00:00	2	Temperatura media	14.1
172578	7	Sololá	701	Sololá	2	El tablón	8	Agosto	2023-08-18T00:00:00	2024-11-06T21:00:00	4	Temperatura máxima	14.7
172579	7	Sololá	701	Sololá	2	El tablón	8	Agosto	2023-08-18T00:00:00	2024-11-06T21:00:00	3	Temperatura mínima	14.1
172580	7	Sololá	701	Sololá	2	El tablón	8	Agosto	2023-08-18T00:00:00	2024-11-06T21:00:00	5	Humedad	85
172581	7	Sololá	701	Sololá	2	El tablón	8	Agosto	2023-08-18T00:00:00	2024-11-06T21:00:00	6	Velocidad del viento	9.7
172582	7	Sololá	701	Sololá	2	El tablón	8	Agosto	2023-08-18T00:00:00	2024-11-06T21:00:00	7	Dirección del viento	9.66
172583	7	Sololá	701	Sololá	2	El tablón	8	Agosto	2023-08-18T00:00:00	2024-11-06T21:00:00	1	Precipitación	0
172584	7	Sololá	701	Sololá	2	El tablón	8	Agosto	2023-08-18T00:00:00	2024-11-06T21:00:00	8	Radiación solar	0
172585	7	Sololá	701	Sololá	2	El tablón	8	Agosto	2023-08-18T00:00:00	2024-11-06T22:00:00	2	Temperatura media	13.4
172586	7	Sololá	701	Sololá	2	El tablón	8	Agosto	2023-08-18T00:00:00	2024-11-06T22:00:00	4	Temperatura máxima	14.1
172587	7	Sololá	701	Sololá	2	El tablón	8	Agosto	2023-08-18T00:00:00	2024-11-06T22:00:00	3	Temperatura mínima	13.4
172588	7	Sololá	701	Sololá	2	El tablón	8	Agosto	2023-08-18T00:00:00	2024-11-06T22:00:00	5	Humedad	86
172589	7	Sololá	701	Sololá	2	El tablón	8	Agosto	2023-08-18T00:00:00	2024-11-06T22:00:00	6	Velocidad del viento	14.5
172590	7	Sololá	701	Sololá	2	El tablón	8	Agosto	2023-08-18T00:00:00	2024-11-06T22:00:00	7	Dirección del viento	14.48
172591	7	Sololá	701	Sololá	2	El tablón	8	Agosto	2023-08-18T00:00:00	2024-11-06T22:00:00	1	Precipitación	0
172592	7	Sololá	701	Sololá	2	El tablón	8	Agosto	2023-08-18T00:00:00	2024-11-06T22:00:00	8	Radiación solar	0
172593	7	Sololá	701	Sololá	2	El tablón	8	Agosto	2023-08-18T00:00:00	2024-11-06T23:00:00	2	Temperatura media	13.3
172594	7	Sololá	701	Sololá	2	El tablón	8	Agosto	2023-08-18T00:00:00	2024-11-06T23:00:00	4	Temperatura máxima	13.4
172595	7	Sololá	701	Sololá	2	El tablón	8	Agosto	2023-08-18T00:00:00	2024-11-06T23:00:00	3	Temperatura mínima	13.2
172596	7	Sololá	701	Sololá	2	El tablón	8	Agosto	2023-08-18T00:00:00	2024-11-06T23:00:00	5	Humedad	83
172597	7	Sololá	701	Sololá	2	El tablón	8	Agosto	2023-08-18T00:00:00	2024-11-06T23:00:00	6	Velocidad del viento	11.3
172598	7	Sololá	701	Sololá	2	El tablón	8	Agosto	2023-08-18T00:00:00	2024-11-06T23:00:00	7	Dirección del viento	11.27
172599	7	Sololá	701	Sololá	2	El tablón	8	Agosto	2023-08-18T00:00:00	2024-11-06T23:00:00	1	Precipitación	0
172600	7	Sololá	701	Sololá	2	El tablón	8	Agosto	2023-08-18T00:00:00	2024-11-06T23:00:00	8	Radiación solar	0
172601	7	Sololá	701	Sololá	2	El tablón	8	Agosto	2023-08-19T00:00:00	2024-11-06T00:00:00	2	Temperatura media	13.1
172602	7	Sololá	701	Sololá	2	El tablón	8	Agosto	2023-08-19T00:00:00	2024-11-06T00:00:00	4	Temperatura máxima	13.3
172603	7	Sololá	701	Sololá	2	El tablón	8	Agosto	2023-08-19T00:00:00	2024-11-06T00:00:00	3	Temperatura mínima	12.9
172604	7	Sololá	701	Sololá	2	El tablón	8	Agosto	2023-08-19T00:00:00	2024-11-06T00:00:00	5	Humedad	84
172605	7	Sololá	701	Sololá	2	El tablón	8	Agosto	2023-08-19T00:00:00	2024-11-06T00:00:00	6	Velocidad del viento	14.5
172606	7	Sololá	701	Sololá	2	El tablón	8	Agosto	2023-08-19T00:00:00	2024-11-06T00:00:00	7	Dirección del viento	14.48
172607	7	Sololá	701	Sololá	2	El tablón	8	Agosto	2023-08-19T00:00:00	2024-11-06T00:00:00	1	Precipitación	0
172608	7	Sololá	701	Sololá	2	El tablón	8	Agosto	2023-08-19T00:00:00	2024-11-06T00:00:00	8	Radiación solar	0
172609	7	Sololá	701	Sololá	2	El tablón	8	Agosto	2023-08-19T00:00:00	2024-11-06T01:00:00	2	Temperatura media	12.6
172610	7	Sololá	701	Sololá	2	El tablón	8	Agosto	2023-08-19T00:00:00	2024-11-06T01:00:00	4	Temperatura máxima	13.1
172611	7	Sololá	701	Sololá	2	El tablón	8	Agosto	2023-08-19T00:00:00	2024-11-06T01:00:00	3	Temperatura mínima	12.6
172612	7	Sololá	701	Sololá	2	El tablón	8	Agosto	2023-08-19T00:00:00	2024-11-06T01:00:00	5	Humedad	84
172613	7	Sololá	701	Sololá	2	El tablón	8	Agosto	2023-08-19T00:00:00	2024-11-06T01:00:00	6	Velocidad del viento	14.5
172614	7	Sololá	701	Sololá	2	El tablón	8	Agosto	2023-08-19T00:00:00	2024-11-06T01:00:00	7	Dirección del viento	14.48
172615	7	Sololá	701	Sololá	2	El tablón	8	Agosto	2023-08-19T00:00:00	2024-11-06T01:00:00	1	Precipitación	0
172616	7	Sololá	701	Sololá	2	El tablón	8	Agosto	2023-08-19T00:00:00	2024-11-06T01:00:00	8	Radiación solar	0
172617	7	Sololá	701	Sololá	2	El tablón	8	Agosto	2023-08-19T00:00:00	2024-11-06T02:00:00	2	Temperatura media	12.2
172618	7	Sololá	701	Sololá	2	El tablón	8	Agosto	2023-08-19T00:00:00	2024-11-06T02:00:00	4	Temperatura máxima	12.6
172619	7	Sololá	701	Sololá	2	El tablón	8	Agosto	2023-08-19T00:00:00	2024-11-06T02:00:00	3	Temperatura mínima	12.1
172620	7	Sololá	701	Sololá	2	El tablón	8	Agosto	2023-08-19T00:00:00	2024-11-06T02:00:00	5	Humedad	84
172621	7	Sololá	701	Sololá	2	El tablón	8	Agosto	2023-08-19T00:00:00	2024-11-06T02:00:00	6	Velocidad del viento	12.9
172622	7	Sololá	701	Sololá	2	El tablón	8	Agosto	2023-08-19T00:00:00	2024-11-06T02:00:00	7	Dirección del viento	12.87
172623	7	Sololá	701	Sololá	2	El tablón	8	Agosto	2023-08-19T00:00:00	2024-11-06T02:00:00	1	Precipitación	0
172624	7	Sololá	701	Sololá	2	El tablón	8	Agosto	2023-08-19T00:00:00	2024-11-06T02:00:00	8	Radiación solar	0
172625	7	Sololá	701	Sololá	2	El tablón	8	Agosto	2023-08-19T00:00:00	2024-11-06T03:00:00	2	Temperatura media	11.8
172626	7	Sololá	701	Sololá	2	El tablón	8	Agosto	2023-08-19T00:00:00	2024-11-06T03:00:00	4	Temperatura máxima	12.2
172627	7	Sololá	701	Sololá	2	El tablón	8	Agosto	2023-08-19T00:00:00	2024-11-06T03:00:00	3	Temperatura mínima	11.8
172628	7	Sololá	701	Sololá	2	El tablón	8	Agosto	2023-08-19T00:00:00	2024-11-06T03:00:00	5	Humedad	83
172629	7	Sololá	701	Sololá	2	El tablón	8	Agosto	2023-08-19T00:00:00	2024-11-06T03:00:00	6	Velocidad del viento	11.3
172630	7	Sololá	701	Sololá	2	El tablón	8	Agosto	2023-08-19T00:00:00	2024-11-06T03:00:00	7	Dirección del viento	11.27
172631	7	Sololá	701	Sololá	2	El tablón	8	Agosto	2023-08-19T00:00:00	2024-11-06T03:00:00	1	Precipitación	0
172632	7	Sololá	701	Sololá	2	El tablón	8	Agosto	2023-08-19T00:00:00	2024-11-06T03:00:00	8	Radiación solar	0
172633	7	Sololá	701	Sololá	2	El tablón	8	Agosto	2023-08-19T00:00:00	2024-11-06T04:00:00	2	Temperatura media	11.7
172634	7	Sololá	701	Sololá	2	El tablón	8	Agosto	2023-08-19T00:00:00	2024-11-06T04:00:00	4	Temperatura máxima	11.8
172635	7	Sololá	701	Sololá	2	El tablón	8	Agosto	2023-08-19T00:00:00	2024-11-06T04:00:00	3	Temperatura mínima	11.6
172636	7	Sololá	701	Sololá	2	El tablón	8	Agosto	2023-08-19T00:00:00	2024-11-06T04:00:00	5	Humedad	77
172637	7	Sololá	701	Sololá	2	El tablón	8	Agosto	2023-08-19T00:00:00	2024-11-06T04:00:00	6	Velocidad del viento	9.7
172638	7	Sololá	701	Sololá	2	El tablón	8	Agosto	2023-08-19T00:00:00	2024-11-06T04:00:00	7	Dirección del viento	9.66
172639	7	Sololá	701	Sololá	2	El tablón	8	Agosto	2023-08-19T00:00:00	2024-11-06T04:00:00	1	Precipitación	0
172640	7	Sololá	701	Sololá	2	El tablón	8	Agosto	2023-08-19T00:00:00	2024-11-06T04:00:00	8	Radiación solar	0
172641	7	Sololá	701	Sololá	2	El tablón	8	Agosto	2023-08-19T00:00:00	2024-11-06T05:00:00	2	Temperatura media	11.9
172642	7	Sololá	701	Sololá	2	El tablón	8	Agosto	2023-08-19T00:00:00	2024-11-06T05:00:00	4	Temperatura máxima	12.2
172643	7	Sololá	701	Sololá	2	El tablón	8	Agosto	2023-08-19T00:00:00	2024-11-06T05:00:00	3	Temperatura mínima	11.7
172644	7	Sololá	701	Sololá	2	El tablón	8	Agosto	2023-08-19T00:00:00	2024-11-06T05:00:00	5	Humedad	72
172645	7	Sololá	701	Sololá	2	El tablón	8	Agosto	2023-08-19T00:00:00	2024-11-06T05:00:00	6	Velocidad del viento	9.7
172646	7	Sololá	701	Sololá	2	El tablón	8	Agosto	2023-08-19T00:00:00	2024-11-06T05:00:00	7	Dirección del viento	9.66
172647	7	Sololá	701	Sololá	2	El tablón	8	Agosto	2023-08-19T00:00:00	2024-11-06T05:00:00	1	Precipitación	0
172648	7	Sololá	701	Sololá	2	El tablón	8	Agosto	2023-08-19T00:00:00	2024-11-06T05:00:00	8	Radiación solar	0
172649	7	Sololá	701	Sololá	2	El tablón	8	Agosto	2023-08-19T00:00:00	2024-11-06T06:00:00	2	Temperatura media	11.9
172650	7	Sololá	701	Sololá	2	El tablón	8	Agosto	2023-08-19T00:00:00	2024-11-06T06:00:00	4	Temperatura máxima	12.2
172651	7	Sololá	701	Sololá	2	El tablón	8	Agosto	2023-08-19T00:00:00	2024-11-06T06:00:00	3	Temperatura mínima	11.8
172652	7	Sololá	701	Sololá	2	El tablón	8	Agosto	2023-08-19T00:00:00	2024-11-06T06:00:00	5	Humedad	78
172653	7	Sololá	701	Sololá	2	El tablón	8	Agosto	2023-08-19T00:00:00	2024-11-06T06:00:00	6	Velocidad del viento	16.1
172654	7	Sololá	701	Sololá	2	El tablón	8	Agosto	2023-08-19T00:00:00	2024-11-06T06:00:00	7	Dirección del viento	16.09
172655	7	Sololá	701	Sololá	2	El tablón	8	Agosto	2023-08-19T00:00:00	2024-11-06T06:00:00	1	Precipitación	0
172656	7	Sololá	701	Sololá	2	El tablón	8	Agosto	2023-08-19T00:00:00	2024-11-06T06:00:00	8	Radiación solar	2
172657	7	Sololá	701	Sololá	2	El tablón	8	Agosto	2023-08-19T00:00:00	2024-11-06T07:00:00	2	Temperatura media	12.3
172658	7	Sololá	701	Sololá	2	El tablón	8	Agosto	2023-08-19T00:00:00	2024-11-06T07:00:00	4	Temperatura máxima	12.3
172659	7	Sololá	701	Sololá	2	El tablón	8	Agosto	2023-08-19T00:00:00	2024-11-06T07:00:00	3	Temperatura mínima	11.8
172660	7	Sololá	701	Sololá	2	El tablón	8	Agosto	2023-08-19T00:00:00	2024-11-06T07:00:00	5	Humedad	80
172661	7	Sololá	701	Sololá	2	El tablón	8	Agosto	2023-08-19T00:00:00	2024-11-06T07:00:00	6	Velocidad del viento	16.1
172662	7	Sololá	701	Sololá	2	El tablón	8	Agosto	2023-08-19T00:00:00	2024-11-06T07:00:00	7	Dirección del viento	16.09
172663	7	Sololá	701	Sololá	2	El tablón	8	Agosto	2023-08-19T00:00:00	2024-11-06T07:00:00	1	Precipitación	0
172664	7	Sololá	701	Sololá	2	El tablón	8	Agosto	2023-08-19T00:00:00	2024-11-06T07:00:00	8	Radiación solar	68
172665	7	Sololá	701	Sololá	2	El tablón	8	Agosto	2023-08-19T00:00:00	2024-11-06T08:00:00	2	Temperatura media	13.5
172666	7	Sololá	701	Sololá	2	El tablón	8	Agosto	2023-08-19T00:00:00	2024-11-06T08:00:00	4	Temperatura máxima	13.6
172667	7	Sololá	701	Sololá	2	El tablón	8	Agosto	2023-08-19T00:00:00	2024-11-06T08:00:00	3	Temperatura mínima	12.3
172668	7	Sololá	701	Sololá	2	El tablón	8	Agosto	2023-08-19T00:00:00	2024-11-06T08:00:00	5	Humedad	80
172669	7	Sololá	701	Sololá	2	El tablón	8	Agosto	2023-08-19T00:00:00	2024-11-06T08:00:00	6	Velocidad del viento	19.3
172670	7	Sololá	701	Sololá	2	El tablón	8	Agosto	2023-08-19T00:00:00	2024-11-06T08:00:00	7	Dirección del viento	19.31
172671	7	Sololá	701	Sololá	2	El tablón	8	Agosto	2023-08-19T00:00:00	2024-11-06T08:00:00	1	Precipitación	0
172672	7	Sololá	701	Sololá	2	El tablón	8	Agosto	2023-08-19T00:00:00	2024-11-06T08:00:00	8	Radiación solar	301
172673	7	Sololá	701	Sololá	2	El tablón	8	Agosto	2023-08-19T00:00:00	2024-11-06T09:00:00	2	Temperatura media	15.9
172674	7	Sololá	701	Sololá	2	El tablón	8	Agosto	2023-08-19T00:00:00	2024-11-06T09:00:00	4	Temperatura máxima	15.9
172675	7	Sololá	701	Sololá	2	El tablón	8	Agosto	2023-08-19T00:00:00	2024-11-06T09:00:00	3	Temperatura mínima	13.5
172676	7	Sololá	701	Sololá	2	El tablón	8	Agosto	2023-08-19T00:00:00	2024-11-06T09:00:00	5	Humedad	72
172677	7	Sololá	701	Sololá	2	El tablón	8	Agosto	2023-08-19T00:00:00	2024-11-06T09:00:00	6	Velocidad del viento	16.1
172678	7	Sololá	701	Sololá	2	El tablón	8	Agosto	2023-08-19T00:00:00	2024-11-06T09:00:00	7	Dirección del viento	16.09
172679	7	Sololá	701	Sololá	2	El tablón	8	Agosto	2023-08-19T00:00:00	2024-11-06T09:00:00	1	Precipitación	0
172680	7	Sololá	701	Sololá	2	El tablón	8	Agosto	2023-08-19T00:00:00	2024-11-06T09:00:00	8	Radiación solar	522
172681	7	Sololá	701	Sololá	2	El tablón	8	Agosto	2023-08-19T00:00:00	2024-11-06T10:00:00	2	Temperatura media	16.8
172682	7	Sololá	701	Sololá	2	El tablón	8	Agosto	2023-08-19T00:00:00	2024-11-06T10:00:00	4	Temperatura máxima	16.8
172683	7	Sololá	701	Sololá	2	El tablón	8	Agosto	2023-08-19T00:00:00	2024-11-06T10:00:00	3	Temperatura mínima	15.9
172684	7	Sololá	701	Sololá	2	El tablón	8	Agosto	2023-08-19T00:00:00	2024-11-06T10:00:00	5	Humedad	69
172685	7	Sololá	701	Sololá	2	El tablón	8	Agosto	2023-08-19T00:00:00	2024-11-06T10:00:00	6	Velocidad del viento	11.3
172686	7	Sololá	701	Sololá	2	El tablón	8	Agosto	2023-08-19T00:00:00	2024-11-06T10:00:00	7	Dirección del viento	11.27
172687	7	Sololá	701	Sololá	2	El tablón	8	Agosto	2023-08-19T00:00:00	2024-11-06T10:00:00	1	Precipitación	0
172688	7	Sololá	701	Sololá	2	El tablón	8	Agosto	2023-08-19T00:00:00	2024-11-06T10:00:00	8	Radiación solar	709
172689	7	Sololá	701	Sololá	2	El tablón	8	Agosto	2023-08-19T00:00:00	2024-11-06T11:00:00	2	Temperatura media	18.9
172690	7	Sololá	701	Sololá	2	El tablón	8	Agosto	2023-08-19T00:00:00	2024-11-06T11:00:00	4	Temperatura máxima	18.9
172691	7	Sololá	701	Sololá	2	El tablón	8	Agosto	2023-08-19T00:00:00	2024-11-06T11:00:00	3	Temperatura mínima	16.8
172692	7	Sololá	701	Sololá	2	El tablón	8	Agosto	2023-08-19T00:00:00	2024-11-06T11:00:00	5	Humedad	66
172693	7	Sololá	701	Sololá	2	El tablón	8	Agosto	2023-08-19T00:00:00	2024-11-06T11:00:00	6	Velocidad del viento	11.3
172694	7	Sololá	701	Sololá	2	El tablón	8	Agosto	2023-08-19T00:00:00	2024-11-06T11:00:00	7	Dirección del viento	11.27
172695	7	Sololá	701	Sololá	2	El tablón	8	Agosto	2023-08-19T00:00:00	2024-11-06T11:00:00	1	Precipitación	0
172696	7	Sololá	701	Sololá	2	El tablón	8	Agosto	2023-08-19T00:00:00	2024-11-06T11:00:00	8	Radiación solar	862
172697	7	Sololá	701	Sololá	2	El tablón	8	Agosto	2023-08-19T00:00:00	2024-11-06T12:00:00	2	Temperatura media	19.1
172698	7	Sololá	701	Sololá	2	El tablón	8	Agosto	2023-08-19T00:00:00	2024-11-06T12:00:00	4	Temperatura máxima	19.8
172699	7	Sololá	701	Sololá	2	El tablón	8	Agosto	2023-08-19T00:00:00	2024-11-06T12:00:00	3	Temperatura mínima	18.8
172700	7	Sololá	701	Sololá	2	El tablón	8	Agosto	2023-08-19T00:00:00	2024-11-06T12:00:00	5	Humedad	65
172701	7	Sololá	701	Sololá	2	El tablón	8	Agosto	2023-08-19T00:00:00	2024-11-06T12:00:00	6	Velocidad del viento	12.9
172702	7	Sololá	701	Sololá	2	El tablón	8	Agosto	2023-08-19T00:00:00	2024-11-06T12:00:00	7	Dirección del viento	12.87
172703	7	Sololá	701	Sololá	2	El tablón	8	Agosto	2023-08-19T00:00:00	2024-11-06T12:00:00	1	Precipitación	0
172704	7	Sololá	701	Sololá	2	El tablón	8	Agosto	2023-08-19T00:00:00	2024-11-06T12:00:00	8	Radiación solar	931
172705	7	Sololá	701	Sololá	2	El tablón	8	Agosto	2023-08-19T00:00:00	2024-11-06T13:00:00	2	Temperatura media	19.3
172706	7	Sololá	701	Sololá	2	El tablón	8	Agosto	2023-08-19T00:00:00	2024-11-06T13:00:00	4	Temperatura máxima	19.3
172707	7	Sololá	701	Sololá	2	El tablón	8	Agosto	2023-08-19T00:00:00	2024-11-06T13:00:00	3	Temperatura mínima	18.8
172708	7	Sololá	701	Sololá	2	El tablón	8	Agosto	2023-08-19T00:00:00	2024-11-06T13:00:00	5	Humedad	67
172709	7	Sololá	701	Sololá	2	El tablón	8	Agosto	2023-08-19T00:00:00	2024-11-06T13:00:00	6	Velocidad del viento	12.9
172710	7	Sololá	701	Sololá	2	El tablón	8	Agosto	2023-08-19T00:00:00	2024-11-06T13:00:00	7	Dirección del viento	12.87
172711	7	Sololá	701	Sololá	2	El tablón	8	Agosto	2023-08-19T00:00:00	2024-11-06T13:00:00	1	Precipitación	0
172712	7	Sololá	701	Sololá	2	El tablón	8	Agosto	2023-08-19T00:00:00	2024-11-06T13:00:00	8	Radiación solar	908
172713	7	Sololá	701	Sololá	2	El tablón	8	Agosto	2023-08-19T00:00:00	2024-11-06T14:00:00	2	Temperatura media	19.4
172714	7	Sololá	701	Sololá	2	El tablón	8	Agosto	2023-08-19T00:00:00	2024-11-06T14:00:00	4	Temperatura máxima	19.9
172715	7	Sololá	701	Sololá	2	El tablón	8	Agosto	2023-08-19T00:00:00	2024-11-06T14:00:00	3	Temperatura mínima	18.3
172716	7	Sololá	701	Sololá	2	El tablón	8	Agosto	2023-08-19T00:00:00	2024-11-06T14:00:00	5	Humedad	62
172717	7	Sololá	701	Sololá	2	El tablón	8	Agosto	2023-08-19T00:00:00	2024-11-06T14:00:00	6	Velocidad del viento	11.3
172718	7	Sololá	701	Sololá	2	El tablón	8	Agosto	2023-08-19T00:00:00	2024-11-06T14:00:00	7	Dirección del viento	11.27
172719	7	Sololá	701	Sololá	2	El tablón	8	Agosto	2023-08-19T00:00:00	2024-11-06T14:00:00	1	Precipitación	0
172720	7	Sololá	701	Sololá	2	El tablón	8	Agosto	2023-08-19T00:00:00	2024-11-06T14:00:00	8	Radiación solar	764
172721	7	Sololá	701	Sololá	2	El tablón	8	Agosto	2023-08-19T00:00:00	2024-11-06T15:00:00	2	Temperatura media	19.9
172722	7	Sololá	701	Sololá	2	El tablón	8	Agosto	2023-08-19T00:00:00	2024-11-06T15:00:00	4	Temperatura máxima	20.3
172723	7	Sololá	701	Sololá	2	El tablón	8	Agosto	2023-08-19T00:00:00	2024-11-06T15:00:00	3	Temperatura mínima	19.3
172724	7	Sololá	701	Sololá	2	El tablón	8	Agosto	2023-08-19T00:00:00	2024-11-06T15:00:00	5	Humedad	64
172725	7	Sololá	701	Sololá	2	El tablón	8	Agosto	2023-08-19T00:00:00	2024-11-06T15:00:00	6	Velocidad del viento	9.7
172726	7	Sololá	701	Sololá	2	El tablón	8	Agosto	2023-08-19T00:00:00	2024-11-06T15:00:00	7	Dirección del viento	9.66
172727	7	Sololá	701	Sololá	2	El tablón	8	Agosto	2023-08-19T00:00:00	2024-11-06T15:00:00	1	Precipitación	0
172728	7	Sololá	701	Sololá	2	El tablón	8	Agosto	2023-08-19T00:00:00	2024-11-06T15:00:00	8	Radiación solar	847
172729	7	Sololá	701	Sololá	2	El tablón	8	Agosto	2023-08-19T00:00:00	2024-11-06T16:00:00	2	Temperatura media	18.4
172730	7	Sololá	701	Sololá	2	El tablón	8	Agosto	2023-08-19T00:00:00	2024-11-06T16:00:00	4	Temperatura máxima	19.9
172731	7	Sololá	701	Sololá	2	El tablón	8	Agosto	2023-08-19T00:00:00	2024-11-06T16:00:00	3	Temperatura mínima	17.7
172732	7	Sololá	701	Sololá	2	El tablón	8	Agosto	2023-08-19T00:00:00	2024-11-06T16:00:00	5	Humedad	70
172733	7	Sololá	701	Sololá	2	El tablón	8	Agosto	2023-08-19T00:00:00	2024-11-06T16:00:00	6	Velocidad del viento	11.3
172734	7	Sololá	701	Sololá	2	El tablón	8	Agosto	2023-08-19T00:00:00	2024-11-06T16:00:00	7	Dirección del viento	11.27
172735	7	Sololá	701	Sololá	2	El tablón	8	Agosto	2023-08-19T00:00:00	2024-11-06T16:00:00	1	Precipitación	0
172736	7	Sololá	701	Sololá	2	El tablón	8	Agosto	2023-08-19T00:00:00	2024-11-06T16:00:00	8	Radiación solar	575
172737	7	Sololá	701	Sololá	2	El tablón	8	Agosto	2023-08-19T00:00:00	2024-11-06T17:00:00	2	Temperatura media	18.7
172738	7	Sololá	701	Sololá	2	El tablón	8	Agosto	2023-08-19T00:00:00	2024-11-06T17:00:00	4	Temperatura máxima	19.4
172739	7	Sololá	701	Sololá	2	El tablón	8	Agosto	2023-08-19T00:00:00	2024-11-06T17:00:00	3	Temperatura mínima	18.2
172740	7	Sololá	701	Sololá	2	El tablón	8	Agosto	2023-08-19T00:00:00	2024-11-06T17:00:00	5	Humedad	67
172741	7	Sololá	701	Sololá	2	El tablón	8	Agosto	2023-08-19T00:00:00	2024-11-06T17:00:00	6	Velocidad del viento	6.4
172742	7	Sololá	701	Sololá	2	El tablón	8	Agosto	2023-08-19T00:00:00	2024-11-06T17:00:00	7	Dirección del viento	6.44
172743	7	Sololá	701	Sololá	2	El tablón	8	Agosto	2023-08-19T00:00:00	2024-11-06T17:00:00	1	Precipitación	0
172744	7	Sololá	701	Sololá	2	El tablón	8	Agosto	2023-08-19T00:00:00	2024-11-06T17:00:00	8	Radiación solar	339
172745	7	Sololá	701	Sololá	2	El tablón	8	Agosto	2023-08-19T00:00:00	2024-11-06T18:00:00	2	Temperatura media	15.9
172746	7	Sololá	701	Sololá	2	El tablón	8	Agosto	2023-08-19T00:00:00	2024-11-06T18:00:00	4	Temperatura máxima	18.7
172747	7	Sololá	701	Sololá	2	El tablón	8	Agosto	2023-08-19T00:00:00	2024-11-06T18:00:00	3	Temperatura mínima	15.9
172748	7	Sololá	701	Sololá	2	El tablón	8	Agosto	2023-08-19T00:00:00	2024-11-06T18:00:00	5	Humedad	81
172749	7	Sololá	701	Sololá	2	El tablón	8	Agosto	2023-08-19T00:00:00	2024-11-06T18:00:00	6	Velocidad del viento	8
172750	7	Sololá	701	Sololá	2	El tablón	8	Agosto	2023-08-19T00:00:00	2024-11-06T18:00:00	7	Dirección del viento	8.05
172751	7	Sololá	701	Sololá	2	El tablón	8	Agosto	2023-08-19T00:00:00	2024-11-06T18:00:00	1	Precipitación	0
172752	7	Sololá	701	Sololá	2	El tablón	8	Agosto	2023-08-19T00:00:00	2024-11-06T18:00:00	8	Radiación solar	74
172753	7	Sololá	701	Sololá	2	El tablón	8	Agosto	2023-08-19T00:00:00	2024-11-06T19:00:00	2	Temperatura media	14.6
172754	7	Sololá	701	Sololá	2	El tablón	8	Agosto	2023-08-19T00:00:00	2024-11-06T19:00:00	4	Temperatura máxima	15.9
172755	7	Sololá	701	Sololá	2	El tablón	8	Agosto	2023-08-19T00:00:00	2024-11-06T19:00:00	3	Temperatura mínima	14.6
172756	7	Sololá	701	Sololá	2	El tablón	8	Agosto	2023-08-19T00:00:00	2024-11-06T19:00:00	5	Humedad	85
172757	7	Sololá	701	Sololá	2	El tablón	8	Agosto	2023-08-19T00:00:00	2024-11-06T19:00:00	6	Velocidad del viento	8
172758	7	Sololá	701	Sololá	2	El tablón	8	Agosto	2023-08-19T00:00:00	2024-11-06T19:00:00	7	Dirección del viento	8.05
172759	7	Sololá	701	Sololá	2	El tablón	8	Agosto	2023-08-19T00:00:00	2024-11-06T19:00:00	1	Precipitación	0
172760	7	Sololá	701	Sololá	2	El tablón	8	Agosto	2023-08-19T00:00:00	2024-11-06T19:00:00	8	Radiación solar	0
172761	7	Sololá	701	Sololá	2	El tablón	8	Agosto	2023-08-19T00:00:00	2024-11-06T20:00:00	2	Temperatura media	13.3
172762	7	Sololá	701	Sololá	2	El tablón	8	Agosto	2023-08-19T00:00:00	2024-11-06T20:00:00	4	Temperatura máxima	14.6
172763	7	Sololá	701	Sololá	2	El tablón	8	Agosto	2023-08-19T00:00:00	2024-11-06T20:00:00	3	Temperatura mínima	13.3
172764	7	Sololá	701	Sololá	2	El tablón	8	Agosto	2023-08-19T00:00:00	2024-11-06T20:00:00	5	Humedad	86
172765	7	Sololá	701	Sololá	2	El tablón	8	Agosto	2023-08-19T00:00:00	2024-11-06T20:00:00	6	Velocidad del viento	11.3
172766	7	Sololá	701	Sololá	2	El tablón	8	Agosto	2023-08-19T00:00:00	2024-11-06T20:00:00	7	Dirección del viento	11.27
172767	7	Sololá	701	Sololá	2	El tablón	8	Agosto	2023-08-19T00:00:00	2024-11-06T20:00:00	1	Precipitación	0
172768	7	Sololá	701	Sololá	2	El tablón	8	Agosto	2023-08-19T00:00:00	2024-11-06T20:00:00	8	Radiación solar	0
172769	7	Sololá	701	Sololá	2	El tablón	8	Agosto	2023-08-19T00:00:00	2024-11-06T21:00:00	2	Temperatura media	12.9
172770	7	Sololá	701	Sololá	2	El tablón	8	Agosto	2023-08-19T00:00:00	2024-11-06T21:00:00	4	Temperatura máxima	13.3
172771	7	Sololá	701	Sololá	2	El tablón	8	Agosto	2023-08-19T00:00:00	2024-11-06T21:00:00	3	Temperatura mínima	12.8
172772	7	Sololá	701	Sololá	2	El tablón	8	Agosto	2023-08-19T00:00:00	2024-11-06T21:00:00	5	Humedad	86
172773	7	Sololá	701	Sololá	2	El tablón	8	Agosto	2023-08-19T00:00:00	2024-11-06T21:00:00	6	Velocidad del viento	14.5
172774	7	Sololá	701	Sololá	2	El tablón	8	Agosto	2023-08-19T00:00:00	2024-11-06T21:00:00	7	Dirección del viento	14.48
172775	7	Sololá	701	Sololá	2	El tablón	8	Agosto	2023-08-19T00:00:00	2024-11-06T21:00:00	1	Precipitación	0
172776	7	Sololá	701	Sololá	2	El tablón	8	Agosto	2023-08-19T00:00:00	2024-11-06T21:00:00	8	Radiación solar	0
172777	7	Sololá	701	Sololá	2	El tablón	8	Agosto	2023-08-19T00:00:00	2024-11-06T22:00:00	2	Temperatura media	12.7
172778	7	Sololá	701	Sololá	2	El tablón	8	Agosto	2023-08-19T00:00:00	2024-11-06T22:00:00	4	Temperatura máxima	12.9
172779	7	Sololá	701	Sololá	2	El tablón	8	Agosto	2023-08-19T00:00:00	2024-11-06T22:00:00	3	Temperatura mínima	12.6
172780	7	Sololá	701	Sololá	2	El tablón	8	Agosto	2023-08-19T00:00:00	2024-11-06T22:00:00	5	Humedad	85
172781	7	Sololá	701	Sololá	2	El tablón	8	Agosto	2023-08-19T00:00:00	2024-11-06T22:00:00	6	Velocidad del viento	12.9
172782	7	Sololá	701	Sololá	2	El tablón	8	Agosto	2023-08-19T00:00:00	2024-11-06T22:00:00	7	Dirección del viento	12.87
172783	7	Sololá	701	Sololá	2	El tablón	8	Agosto	2023-08-19T00:00:00	2024-11-06T22:00:00	1	Precipitación	0
172784	7	Sololá	701	Sololá	2	El tablón	8	Agosto	2023-08-19T00:00:00	2024-11-06T22:00:00	8	Radiación solar	0
172785	7	Sololá	701	Sololá	2	El tablón	8	Agosto	2023-08-19T00:00:00	2024-11-06T23:00:00	2	Temperatura media	12.3
172786	7	Sololá	701	Sololá	2	El tablón	8	Agosto	2023-08-19T00:00:00	2024-11-06T23:00:00	4	Temperatura máxima	12.7
172787	7	Sololá	701	Sololá	2	El tablón	8	Agosto	2023-08-19T00:00:00	2024-11-06T23:00:00	3	Temperatura mínima	12.3
172788	7	Sololá	701	Sololá	2	El tablón	8	Agosto	2023-08-19T00:00:00	2024-11-06T23:00:00	5	Humedad	84
172789	7	Sololá	701	Sololá	2	El tablón	8	Agosto	2023-08-19T00:00:00	2024-11-06T23:00:00	6	Velocidad del viento	16.1
172790	7	Sololá	701	Sololá	2	El tablón	8	Agosto	2023-08-19T00:00:00	2024-11-06T23:00:00	7	Dirección del viento	16.09
172791	7	Sololá	701	Sololá	2	El tablón	8	Agosto	2023-08-19T00:00:00	2024-11-06T23:00:00	1	Precipitación	0
172792	7	Sololá	701	Sololá	2	El tablón	8	Agosto	2023-08-19T00:00:00	2024-11-06T23:00:00	8	Radiación solar	0
172793	7	Sololá	701	Sololá	2	El tablón	8	Agosto	2023-08-20T00:00:00	2024-11-06T00:00:00	2	Temperatura media	12.1
172794	7	Sololá	701	Sololá	2	El tablón	8	Agosto	2023-08-20T00:00:00	2024-11-06T00:00:00	4	Temperatura máxima	12.3
172795	7	Sololá	701	Sololá	2	El tablón	8	Agosto	2023-08-20T00:00:00	2024-11-06T00:00:00	3	Temperatura mínima	12.1
172796	7	Sololá	701	Sololá	2	El tablón	8	Agosto	2023-08-20T00:00:00	2024-11-06T00:00:00	5	Humedad	83
172797	7	Sololá	701	Sololá	2	El tablón	8	Agosto	2023-08-20T00:00:00	2024-11-06T00:00:00	6	Velocidad del viento	17.7
172798	7	Sololá	701	Sololá	2	El tablón	8	Agosto	2023-08-20T00:00:00	2024-11-06T00:00:00	7	Dirección del viento	17.7
172799	7	Sololá	701	Sololá	2	El tablón	8	Agosto	2023-08-20T00:00:00	2024-11-06T00:00:00	1	Precipitación	0
172800	7	Sololá	701	Sololá	2	El tablón	8	Agosto	2023-08-20T00:00:00	2024-11-06T00:00:00	8	Radiación solar	0
172801	7	Sololá	701	Sololá	2	El tablón	8	Agosto	2023-08-20T00:00:00	2024-11-06T01:00:00	2	Temperatura media	11.9
172802	7	Sololá	701	Sololá	2	El tablón	8	Agosto	2023-08-20T00:00:00	2024-11-06T01:00:00	4	Temperatura máxima	12.1
172803	7	Sololá	701	Sololá	2	El tablón	8	Agosto	2023-08-20T00:00:00	2024-11-06T01:00:00	3	Temperatura mínima	11.9
172804	7	Sololá	701	Sololá	2	El tablón	8	Agosto	2023-08-20T00:00:00	2024-11-06T01:00:00	5	Humedad	84
172805	7	Sololá	701	Sololá	2	El tablón	8	Agosto	2023-08-20T00:00:00	2024-11-06T01:00:00	6	Velocidad del viento	17.7
172806	7	Sololá	701	Sololá	2	El tablón	8	Agosto	2023-08-20T00:00:00	2024-11-06T01:00:00	7	Dirección del viento	17.7
172807	7	Sololá	701	Sololá	2	El tablón	8	Agosto	2023-08-20T00:00:00	2024-11-06T01:00:00	1	Precipitación	0
172808	7	Sololá	701	Sololá	2	El tablón	8	Agosto	2023-08-20T00:00:00	2024-11-06T01:00:00	8	Radiación solar	0
172809	7	Sololá	701	Sololá	2	El tablón	8	Agosto	2023-08-20T00:00:00	2024-11-06T02:00:00	2	Temperatura media	12.1
172810	7	Sololá	701	Sololá	2	El tablón	8	Agosto	2023-08-20T00:00:00	2024-11-06T02:00:00	4	Temperatura máxima	12.2
172811	7	Sololá	701	Sololá	2	El tablón	8	Agosto	2023-08-20T00:00:00	2024-11-06T02:00:00	3	Temperatura mínima	11.9
172812	7	Sololá	701	Sololá	2	El tablón	8	Agosto	2023-08-20T00:00:00	2024-11-06T02:00:00	5	Humedad	80
172813	7	Sololá	701	Sololá	2	El tablón	8	Agosto	2023-08-20T00:00:00	2024-11-06T02:00:00	6	Velocidad del viento	14.5
172814	7	Sololá	701	Sololá	2	El tablón	8	Agosto	2023-08-20T00:00:00	2024-11-06T02:00:00	7	Dirección del viento	14.48
172815	7	Sololá	701	Sololá	2	El tablón	8	Agosto	2023-08-20T00:00:00	2024-11-06T02:00:00	1	Precipitación	0
172816	7	Sololá	701	Sololá	2	El tablón	8	Agosto	2023-08-20T00:00:00	2024-11-06T02:00:00	8	Radiación solar	0
172817	7	Sololá	701	Sololá	2	El tablón	8	Agosto	2023-08-20T00:00:00	2024-11-06T03:00:00	2	Temperatura media	12.4
172818	7	Sololá	701	Sololá	2	El tablón	8	Agosto	2023-08-20T00:00:00	2024-11-06T03:00:00	4	Temperatura máxima	12.5
172819	7	Sololá	701	Sololá	2	El tablón	8	Agosto	2023-08-20T00:00:00	2024-11-06T03:00:00	3	Temperatura mínima	12.1
172820	7	Sololá	701	Sololá	2	El tablón	8	Agosto	2023-08-20T00:00:00	2024-11-06T03:00:00	5	Humedad	72
172821	7	Sololá	701	Sololá	2	El tablón	8	Agosto	2023-08-20T00:00:00	2024-11-06T03:00:00	6	Velocidad del viento	16.1
172822	7	Sololá	701	Sololá	2	El tablón	8	Agosto	2023-08-20T00:00:00	2024-11-06T03:00:00	7	Dirección del viento	16.09
172823	7	Sololá	701	Sololá	2	El tablón	8	Agosto	2023-08-20T00:00:00	2024-11-06T03:00:00	1	Precipitación	0
172824	7	Sololá	701	Sololá	2	El tablón	8	Agosto	2023-08-20T00:00:00	2024-11-06T03:00:00	8	Radiación solar	0
172825	7	Sololá	701	Sololá	2	El tablón	8	Agosto	2023-08-20T00:00:00	2024-11-06T04:00:00	2	Temperatura media	12.3
172826	7	Sololá	701	Sololá	2	El tablón	8	Agosto	2023-08-20T00:00:00	2024-11-06T04:00:00	4	Temperatura máxima	12.4
172827	7	Sololá	701	Sololá	2	El tablón	8	Agosto	2023-08-20T00:00:00	2024-11-06T04:00:00	3	Temperatura mínima	12.3
172828	7	Sololá	701	Sololá	2	El tablón	8	Agosto	2023-08-20T00:00:00	2024-11-06T04:00:00	5	Humedad	73
172829	7	Sololá	701	Sololá	2	El tablón	8	Agosto	2023-08-20T00:00:00	2024-11-06T04:00:00	6	Velocidad del viento	14.5
172830	7	Sololá	701	Sololá	2	El tablón	8	Agosto	2023-08-20T00:00:00	2024-11-06T04:00:00	7	Dirección del viento	14.48
172831	7	Sololá	701	Sololá	2	El tablón	8	Agosto	2023-08-20T00:00:00	2024-11-06T04:00:00	1	Precipitación	0
172832	7	Sololá	701	Sololá	2	El tablón	8	Agosto	2023-08-20T00:00:00	2024-11-06T04:00:00	8	Radiación solar	0
172833	7	Sololá	701	Sololá	2	El tablón	8	Agosto	2023-08-20T00:00:00	2024-11-06T05:00:00	2	Temperatura media	11.9
172834	7	Sololá	701	Sololá	2	El tablón	8	Agosto	2023-08-20T00:00:00	2024-11-06T05:00:00	4	Temperatura máxima	12.3
172835	7	Sololá	701	Sololá	2	El tablón	8	Agosto	2023-08-20T00:00:00	2024-11-06T05:00:00	3	Temperatura mínima	11.9
172836	7	Sololá	701	Sololá	2	El tablón	8	Agosto	2023-08-20T00:00:00	2024-11-06T05:00:00	5	Humedad	74
172837	7	Sololá	701	Sololá	2	El tablón	8	Agosto	2023-08-20T00:00:00	2024-11-06T05:00:00	6	Velocidad del viento	11.3
172838	7	Sololá	701	Sololá	2	El tablón	8	Agosto	2023-08-20T00:00:00	2024-11-06T05:00:00	7	Dirección del viento	11.27
172839	7	Sololá	701	Sololá	2	El tablón	8	Agosto	2023-08-20T00:00:00	2024-11-06T05:00:00	1	Precipitación	0
172840	7	Sololá	701	Sololá	2	El tablón	8	Agosto	2023-08-20T00:00:00	2024-11-06T05:00:00	8	Radiación solar	0
172841	7	Sololá	701	Sololá	2	El tablón	8	Agosto	2023-08-20T00:00:00	2024-11-06T06:00:00	2	Temperatura media	11.9
172842	7	Sololá	701	Sololá	2	El tablón	8	Agosto	2023-08-20T00:00:00	2024-11-06T06:00:00	4	Temperatura máxima	12.1
172843	7	Sololá	701	Sololá	2	El tablón	8	Agosto	2023-08-20T00:00:00	2024-11-06T06:00:00	3	Temperatura mínima	11.8
172844	7	Sololá	701	Sololá	2	El tablón	8	Agosto	2023-08-20T00:00:00	2024-11-06T06:00:00	5	Humedad	71
172845	7	Sololá	701	Sololá	2	El tablón	8	Agosto	2023-08-20T00:00:00	2024-11-06T06:00:00	6	Velocidad del viento	12.9
172846	7	Sololá	701	Sololá	2	El tablón	8	Agosto	2023-08-20T00:00:00	2024-11-06T06:00:00	7	Dirección del viento	12.87
172847	7	Sololá	701	Sololá	2	El tablón	8	Agosto	2023-08-20T00:00:00	2024-11-06T06:00:00	1	Precipitación	0
172848	7	Sololá	701	Sololá	2	El tablón	8	Agosto	2023-08-20T00:00:00	2024-11-06T06:00:00	8	Radiación solar	0
172849	7	Sololá	701	Sololá	2	El tablón	8	Agosto	2023-08-20T00:00:00	2024-11-06T07:00:00	2	Temperatura media	13.5
172850	7	Sololá	701	Sololá	2	El tablón	8	Agosto	2023-08-20T00:00:00	2024-11-06T07:00:00	4	Temperatura máxima	13.6
172851	7	Sololá	701	Sololá	2	El tablón	8	Agosto	2023-08-20T00:00:00	2024-11-06T07:00:00	3	Temperatura mínima	11.8
172852	7	Sololá	701	Sololá	2	El tablón	8	Agosto	2023-08-20T00:00:00	2024-11-06T07:00:00	5	Humedad	66
172853	7	Sololá	701	Sololá	2	El tablón	8	Agosto	2023-08-20T00:00:00	2024-11-06T07:00:00	6	Velocidad del viento	11.3
172854	7	Sololá	701	Sololá	2	El tablón	8	Agosto	2023-08-20T00:00:00	2024-11-06T07:00:00	7	Dirección del viento	11.27
172855	7	Sololá	701	Sololá	2	El tablón	8	Agosto	2023-08-20T00:00:00	2024-11-06T07:00:00	1	Precipitación	0
172856	7	Sololá	701	Sololá	2	El tablón	8	Agosto	2023-08-20T00:00:00	2024-11-06T07:00:00	8	Radiación solar	79
172857	7	Sololá	701	Sololá	2	El tablón	8	Agosto	2023-08-20T00:00:00	2024-11-06T08:00:00	2	Temperatura media	15.4
172858	7	Sololá	701	Sololá	2	El tablón	8	Agosto	2023-08-20T00:00:00	2024-11-06T08:00:00	4	Temperatura máxima	15.4
172859	7	Sololá	701	Sololá	2	El tablón	8	Agosto	2023-08-20T00:00:00	2024-11-06T08:00:00	3	Temperatura mínima	13.5
172860	7	Sololá	701	Sololá	2	El tablón	8	Agosto	2023-08-20T00:00:00	2024-11-06T08:00:00	5	Humedad	63
172861	7	Sololá	701	Sololá	2	El tablón	8	Agosto	2023-08-20T00:00:00	2024-11-06T08:00:00	6	Velocidad del viento	12.9
172862	7	Sololá	701	Sololá	2	El tablón	8	Agosto	2023-08-20T00:00:00	2024-11-06T08:00:00	7	Dirección del viento	12.87
172863	7	Sololá	701	Sololá	2	El tablón	8	Agosto	2023-08-20T00:00:00	2024-11-06T08:00:00	1	Precipitación	0
172864	7	Sololá	701	Sololá	2	El tablón	8	Agosto	2023-08-20T00:00:00	2024-11-06T08:00:00	8	Radiación solar	306
172865	7	Sololá	701	Sololá	2	El tablón	8	Agosto	2023-08-20T00:00:00	2024-11-06T09:00:00	2	Temperatura media	17.3
172866	7	Sololá	701	Sololá	2	El tablón	8	Agosto	2023-08-20T00:00:00	2024-11-06T09:00:00	4	Temperatura máxima	17.3
172867	7	Sololá	701	Sololá	2	El tablón	8	Agosto	2023-08-20T00:00:00	2024-11-06T09:00:00	3	Temperatura mínima	15.5
172868	7	Sololá	701	Sololá	2	El tablón	8	Agosto	2023-08-20T00:00:00	2024-11-06T09:00:00	5	Humedad	58
172869	7	Sololá	701	Sololá	2	El tablón	8	Agosto	2023-08-20T00:00:00	2024-11-06T09:00:00	6	Velocidad del viento	12.9
172870	7	Sololá	701	Sololá	2	El tablón	8	Agosto	2023-08-20T00:00:00	2024-11-06T09:00:00	7	Dirección del viento	12.87
172871	7	Sololá	701	Sololá	2	El tablón	8	Agosto	2023-08-20T00:00:00	2024-11-06T09:00:00	1	Precipitación	0
172872	7	Sololá	701	Sololá	2	El tablón	8	Agosto	2023-08-20T00:00:00	2024-11-06T09:00:00	8	Radiación solar	527
172873	7	Sololá	701	Sololá	2	El tablón	8	Agosto	2023-08-20T00:00:00	2024-11-06T10:00:00	2	Temperatura media	18.2
172874	7	Sololá	701	Sololá	2	El tablón	8	Agosto	2023-08-20T00:00:00	2024-11-06T10:00:00	4	Temperatura máxima	18.2
172875	7	Sololá	701	Sololá	2	El tablón	8	Agosto	2023-08-20T00:00:00	2024-11-06T10:00:00	3	Temperatura mínima	17.3
172876	7	Sololá	701	Sololá	2	El tablón	8	Agosto	2023-08-20T00:00:00	2024-11-06T10:00:00	5	Humedad	60
172877	7	Sololá	701	Sololá	2	El tablón	8	Agosto	2023-08-20T00:00:00	2024-11-06T10:00:00	6	Velocidad del viento	12.9
172878	7	Sololá	701	Sololá	2	El tablón	8	Agosto	2023-08-20T00:00:00	2024-11-06T10:00:00	7	Dirección del viento	12.87
172879	7	Sololá	701	Sololá	2	El tablón	8	Agosto	2023-08-20T00:00:00	2024-11-06T10:00:00	1	Precipitación	0
172880	7	Sololá	701	Sololá	2	El tablón	8	Agosto	2023-08-20T00:00:00	2024-11-06T10:00:00	8	Radiación solar	715
172881	7	Sololá	701	Sololá	2	El tablón	8	Agosto	2023-08-20T00:00:00	2024-11-06T11:00:00	2	Temperatura media	18.8
172882	7	Sololá	701	Sololá	2	El tablón	8	Agosto	2023-08-20T00:00:00	2024-11-06T11:00:00	4	Temperatura máxima	18.8
172883	7	Sololá	701	Sololá	2	El tablón	8	Agosto	2023-08-20T00:00:00	2024-11-06T11:00:00	3	Temperatura mínima	18.1
172884	7	Sololá	701	Sololá	2	El tablón	8	Agosto	2023-08-20T00:00:00	2024-11-06T11:00:00	5	Humedad	61
172885	7	Sololá	701	Sololá	2	El tablón	8	Agosto	2023-08-20T00:00:00	2024-11-06T11:00:00	6	Velocidad del viento	14.5
172886	7	Sololá	701	Sololá	2	El tablón	8	Agosto	2023-08-20T00:00:00	2024-11-06T11:00:00	7	Dirección del viento	14.48
172887	7	Sololá	701	Sololá	2	El tablón	8	Agosto	2023-08-20T00:00:00	2024-11-06T11:00:00	1	Precipitación	0
172888	7	Sololá	701	Sololá	2	El tablón	8	Agosto	2023-08-20T00:00:00	2024-11-06T11:00:00	8	Radiación solar	849
172889	7	Sololá	701	Sololá	2	El tablón	8	Agosto	2023-08-20T00:00:00	2024-11-06T12:00:00	2	Temperatura media	19.4
172890	7	Sololá	701	Sololá	2	El tablón	8	Agosto	2023-08-20T00:00:00	2024-11-06T12:00:00	4	Temperatura máxima	19.7
172891	7	Sololá	701	Sololá	2	El tablón	8	Agosto	2023-08-20T00:00:00	2024-11-06T12:00:00	3	Temperatura mínima	18.7
172892	7	Sololá	701	Sololá	2	El tablón	8	Agosto	2023-08-20T00:00:00	2024-11-06T12:00:00	5	Humedad	59
172893	7	Sololá	701	Sololá	2	El tablón	8	Agosto	2023-08-20T00:00:00	2024-11-06T12:00:00	6	Velocidad del viento	14.5
172894	7	Sololá	701	Sololá	2	El tablón	8	Agosto	2023-08-20T00:00:00	2024-11-06T12:00:00	7	Dirección del viento	14.48
172895	7	Sololá	701	Sololá	2	El tablón	8	Agosto	2023-08-20T00:00:00	2024-11-06T12:00:00	1	Precipitación	0
172896	7	Sololá	701	Sololá	2	El tablón	8	Agosto	2023-08-20T00:00:00	2024-11-06T12:00:00	8	Radiación solar	925
172897	7	Sololá	701	Sololá	2	El tablón	8	Agosto	2023-08-20T00:00:00	2024-11-06T13:00:00	2	Temperatura media	20.2
172898	7	Sololá	701	Sololá	2	El tablón	8	Agosto	2023-08-20T00:00:00	2024-11-06T13:00:00	4	Temperatura máxima	20.3
172899	7	Sololá	701	Sololá	2	El tablón	8	Agosto	2023-08-20T00:00:00	2024-11-06T13:00:00	3	Temperatura mínima	18.9
172900	7	Sololá	701	Sololá	2	El tablón	8	Agosto	2023-08-20T00:00:00	2024-11-06T13:00:00	5	Humedad	61
172901	7	Sololá	701	Sololá	2	El tablón	8	Agosto	2023-08-20T00:00:00	2024-11-06T13:00:00	6	Velocidad del viento	12.9
172902	7	Sololá	701	Sololá	2	El tablón	8	Agosto	2023-08-20T00:00:00	2024-11-06T13:00:00	7	Dirección del viento	12.87
172903	7	Sololá	701	Sololá	2	El tablón	8	Agosto	2023-08-20T00:00:00	2024-11-06T13:00:00	1	Precipitación	0
172904	7	Sololá	701	Sololá	2	El tablón	8	Agosto	2023-08-20T00:00:00	2024-11-06T13:00:00	8	Radiación solar	943
172905	7	Sololá	701	Sololá	2	El tablón	8	Agosto	2023-08-20T00:00:00	2024-11-06T14:00:00	2	Temperatura media	20.6
172906	7	Sololá	701	Sololá	2	El tablón	8	Agosto	2023-08-20T00:00:00	2024-11-06T14:00:00	4	Temperatura máxima	20.9
172907	7	Sololá	701	Sololá	2	El tablón	8	Agosto	2023-08-20T00:00:00	2024-11-06T14:00:00	3	Temperatura mínima	20.2
172908	7	Sololá	701	Sololá	2	El tablón	8	Agosto	2023-08-20T00:00:00	2024-11-06T14:00:00	5	Humedad	70
172909	7	Sololá	701	Sololá	2	El tablón	8	Agosto	2023-08-20T00:00:00	2024-11-06T14:00:00	6	Velocidad del viento	9.7
172910	7	Sololá	701	Sololá	2	El tablón	8	Agosto	2023-08-20T00:00:00	2024-11-06T14:00:00	7	Dirección del viento	9.66
172911	7	Sololá	701	Sololá	2	El tablón	8	Agosto	2023-08-20T00:00:00	2024-11-06T14:00:00	1	Precipitación	0
172912	7	Sololá	701	Sololá	2	El tablón	8	Agosto	2023-08-20T00:00:00	2024-11-06T14:00:00	8	Radiación solar	903
172913	7	Sololá	701	Sololá	2	El tablón	8	Agosto	2023-08-20T00:00:00	2024-11-06T15:00:00	2	Temperatura media	20.2
172914	7	Sololá	701	Sololá	2	El tablón	8	Agosto	2023-08-20T00:00:00	2024-11-06T15:00:00	4	Temperatura máxima	20.6
172915	7	Sololá	701	Sololá	2	El tablón	8	Agosto	2023-08-20T00:00:00	2024-11-06T15:00:00	3	Temperatura mínima	17.8
172916	7	Sololá	701	Sololá	2	El tablón	8	Agosto	2023-08-20T00:00:00	2024-11-06T15:00:00	5	Humedad	65
172917	7	Sololá	701	Sololá	2	El tablón	8	Agosto	2023-08-20T00:00:00	2024-11-06T15:00:00	6	Velocidad del viento	8
172918	7	Sololá	701	Sololá	2	El tablón	8	Agosto	2023-08-20T00:00:00	2024-11-06T15:00:00	7	Dirección del viento	8.05
172919	7	Sololá	701	Sololá	2	El tablón	8	Agosto	2023-08-20T00:00:00	2024-11-06T15:00:00	1	Precipitación	0
172920	7	Sololá	701	Sololá	2	El tablón	8	Agosto	2023-08-20T00:00:00	2024-11-06T15:00:00	8	Radiación solar	458
172921	7	Sololá	701	Sololá	2	El tablón	8	Agosto	2023-08-20T00:00:00	2024-11-06T16:00:00	2	Temperatura media	19.6
172922	7	Sololá	701	Sololá	2	El tablón	8	Agosto	2023-08-20T00:00:00	2024-11-06T16:00:00	4	Temperatura máxima	20.2
172923	7	Sololá	701	Sololá	2	El tablón	8	Agosto	2023-08-20T00:00:00	2024-11-06T16:00:00	3	Temperatura mínima	18.5
172924	7	Sololá	701	Sololá	2	El tablón	8	Agosto	2023-08-20T00:00:00	2024-11-06T16:00:00	5	Humedad	68
172925	7	Sololá	701	Sololá	2	El tablón	8	Agosto	2023-08-20T00:00:00	2024-11-06T16:00:00	6	Velocidad del viento	9.7
172926	7	Sololá	701	Sololá	2	El tablón	8	Agosto	2023-08-20T00:00:00	2024-11-06T16:00:00	7	Dirección del viento	9.66
172927	7	Sololá	701	Sololá	2	El tablón	8	Agosto	2023-08-20T00:00:00	2024-11-06T16:00:00	1	Precipitación	0
172928	7	Sololá	701	Sololá	2	El tablón	8	Agosto	2023-08-20T00:00:00	2024-11-06T16:00:00	8	Radiación solar	523
172929	7	Sololá	701	Sololá	2	El tablón	8	Agosto	2023-08-20T00:00:00	2024-11-06T17:00:00	2	Temperatura media	18.1
172930	7	Sololá	701	Sololá	2	El tablón	8	Agosto	2023-08-20T00:00:00	2024-11-06T17:00:00	4	Temperatura máxima	19.6
172931	7	Sololá	701	Sololá	2	El tablón	8	Agosto	2023-08-20T00:00:00	2024-11-06T17:00:00	3	Temperatura mínima	17.8
172932	7	Sololá	701	Sololá	2	El tablón	8	Agosto	2023-08-20T00:00:00	2024-11-06T17:00:00	5	Humedad	72
172933	7	Sololá	701	Sololá	2	El tablón	8	Agosto	2023-08-20T00:00:00	2024-11-06T17:00:00	6	Velocidad del viento	11.3
172934	7	Sololá	701	Sololá	2	El tablón	8	Agosto	2023-08-20T00:00:00	2024-11-06T17:00:00	7	Dirección del viento	11.27
172935	7	Sololá	701	Sololá	2	El tablón	8	Agosto	2023-08-20T00:00:00	2024-11-06T17:00:00	1	Precipitación	0
172936	7	Sololá	701	Sololá	2	El tablón	8	Agosto	2023-08-20T00:00:00	2024-11-06T17:00:00	8	Radiación solar	358
172937	7	Sololá	701	Sololá	2	El tablón	8	Agosto	2023-08-20T00:00:00	2024-11-06T18:00:00	2	Temperatura media	16.6
172938	7	Sololá	701	Sololá	2	El tablón	8	Agosto	2023-08-20T00:00:00	2024-11-06T18:00:00	4	Temperatura máxima	18.2
172939	7	Sololá	701	Sololá	2	El tablón	8	Agosto	2023-08-20T00:00:00	2024-11-06T18:00:00	3	Temperatura mínima	16.6
172940	7	Sololá	701	Sololá	2	El tablón	8	Agosto	2023-08-20T00:00:00	2024-11-06T18:00:00	5	Humedad	76
172941	7	Sololá	701	Sololá	2	El tablón	8	Agosto	2023-08-20T00:00:00	2024-11-06T18:00:00	6	Velocidad del viento	8
172942	7	Sololá	701	Sololá	2	El tablón	8	Agosto	2023-08-20T00:00:00	2024-11-06T18:00:00	7	Dirección del viento	8.05
172943	7	Sololá	701	Sololá	2	El tablón	8	Agosto	2023-08-20T00:00:00	2024-11-06T18:00:00	1	Precipitación	0
172944	7	Sololá	701	Sololá	2	El tablón	8	Agosto	2023-08-20T00:00:00	2024-11-06T18:00:00	8	Radiación solar	116
172945	7	Sololá	701	Sololá	2	El tablón	8	Agosto	2023-08-20T00:00:00	2024-11-06T19:00:00	2	Temperatura media	15.6
172946	7	Sololá	701	Sololá	2	El tablón	8	Agosto	2023-08-20T00:00:00	2024-11-06T19:00:00	4	Temperatura máxima	16.6
172947	7	Sololá	701	Sololá	2	El tablón	8	Agosto	2023-08-20T00:00:00	2024-11-06T19:00:00	3	Temperatura mínima	15.6
172948	7	Sololá	701	Sololá	2	El tablón	8	Agosto	2023-08-20T00:00:00	2024-11-06T19:00:00	5	Humedad	83
172949	7	Sololá	701	Sololá	2	El tablón	8	Agosto	2023-08-20T00:00:00	2024-11-06T19:00:00	6	Velocidad del viento	6.4
172950	7	Sololá	701	Sololá	2	El tablón	8	Agosto	2023-08-20T00:00:00	2024-11-06T19:00:00	7	Dirección del viento	6.44
172951	7	Sololá	701	Sololá	2	El tablón	8	Agosto	2023-08-20T00:00:00	2024-11-06T19:00:00	1	Precipitación	0
172952	7	Sololá	701	Sololá	2	El tablón	8	Agosto	2023-08-20T00:00:00	2024-11-06T19:00:00	8	Radiación solar	0
172953	7	Sololá	701	Sololá	2	El tablón	8	Agosto	2023-08-20T00:00:00	2024-11-06T20:00:00	2	Temperatura media	14.8
172954	7	Sololá	701	Sololá	2	El tablón	8	Agosto	2023-08-20T00:00:00	2024-11-06T20:00:00	4	Temperatura máxima	15.6
172955	7	Sololá	701	Sololá	2	El tablón	8	Agosto	2023-08-20T00:00:00	2024-11-06T20:00:00	3	Temperatura mínima	14.8
172956	7	Sololá	701	Sololá	2	El tablón	8	Agosto	2023-08-20T00:00:00	2024-11-06T20:00:00	5	Humedad	85
172957	7	Sololá	701	Sololá	2	El tablón	8	Agosto	2023-08-20T00:00:00	2024-11-06T20:00:00	6	Velocidad del viento	8
172958	7	Sololá	701	Sololá	2	El tablón	8	Agosto	2023-08-20T00:00:00	2024-11-06T20:00:00	7	Dirección del viento	8.05
172959	7	Sololá	701	Sololá	2	El tablón	8	Agosto	2023-08-20T00:00:00	2024-11-06T20:00:00	1	Precipitación	0
172960	7	Sololá	701	Sololá	2	El tablón	8	Agosto	2023-08-20T00:00:00	2024-11-06T20:00:00	8	Radiación solar	0
172961	7	Sololá	701	Sololá	2	El tablón	8	Agosto	2023-08-20T00:00:00	2024-11-06T21:00:00	2	Temperatura media	14.4
172962	7	Sololá	701	Sololá	2	El tablón	8	Agosto	2023-08-20T00:00:00	2024-11-06T21:00:00	4	Temperatura máxima	14.8
172963	7	Sololá	701	Sololá	2	El tablón	8	Agosto	2023-08-20T00:00:00	2024-11-06T21:00:00	3	Temperatura mínima	14.4
172964	7	Sololá	701	Sololá	2	El tablón	8	Agosto	2023-08-20T00:00:00	2024-11-06T21:00:00	5	Humedad	86
172965	7	Sololá	701	Sololá	2	El tablón	8	Agosto	2023-08-20T00:00:00	2024-11-06T21:00:00	6	Velocidad del viento	6.4
172966	7	Sololá	701	Sololá	2	El tablón	8	Agosto	2023-08-20T00:00:00	2024-11-06T21:00:00	7	Dirección del viento	6.44
172967	7	Sololá	701	Sololá	2	El tablón	8	Agosto	2023-08-20T00:00:00	2024-11-06T21:00:00	1	Precipitación	0
172968	7	Sololá	701	Sololá	2	El tablón	8	Agosto	2023-08-20T00:00:00	2024-11-06T21:00:00	8	Radiación solar	0
172969	7	Sololá	701	Sololá	2	El tablón	8	Agosto	2023-08-20T00:00:00	2024-11-06T22:00:00	2	Temperatura media	14.1
172970	7	Sololá	701	Sololá	2	El tablón	8	Agosto	2023-08-20T00:00:00	2024-11-06T22:00:00	4	Temperatura máxima	14.5
172971	7	Sololá	701	Sololá	2	El tablón	8	Agosto	2023-08-20T00:00:00	2024-11-06T22:00:00	3	Temperatura mínima	14.1
172972	7	Sololá	701	Sololá	2	El tablón	8	Agosto	2023-08-20T00:00:00	2024-11-06T22:00:00	5	Humedad	86
172973	7	Sololá	701	Sololá	2	El tablón	8	Agosto	2023-08-20T00:00:00	2024-11-06T22:00:00	6	Velocidad del viento	9.7
172974	7	Sololá	701	Sololá	2	El tablón	8	Agosto	2023-08-20T00:00:00	2024-11-06T22:00:00	7	Dirección del viento	9.66
172975	7	Sololá	701	Sololá	2	El tablón	8	Agosto	2023-08-20T00:00:00	2024-11-06T22:00:00	1	Precipitación	0
172976	7	Sololá	701	Sololá	2	El tablón	8	Agosto	2023-08-20T00:00:00	2024-11-06T22:00:00	8	Radiación solar	0
172977	7	Sololá	701	Sololá	2	El tablón	8	Agosto	2023-08-20T00:00:00	2024-11-06T23:00:00	2	Temperatura media	14
172978	7	Sololá	701	Sololá	2	El tablón	8	Agosto	2023-08-20T00:00:00	2024-11-06T23:00:00	4	Temperatura máxima	14.1
172979	7	Sololá	701	Sololá	2	El tablón	8	Agosto	2023-08-20T00:00:00	2024-11-06T23:00:00	3	Temperatura mínima	14
172980	7	Sololá	701	Sololá	2	El tablón	8	Agosto	2023-08-20T00:00:00	2024-11-06T23:00:00	5	Humedad	85
172981	7	Sololá	701	Sololá	2	El tablón	8	Agosto	2023-08-20T00:00:00	2024-11-06T23:00:00	6	Velocidad del viento	11.3
172982	7	Sololá	701	Sololá	2	El tablón	8	Agosto	2023-08-20T00:00:00	2024-11-06T23:00:00	7	Dirección del viento	11.27
172983	7	Sololá	701	Sololá	2	El tablón	8	Agosto	2023-08-20T00:00:00	2024-11-06T23:00:00	1	Precipitación	0
172984	7	Sololá	701	Sololá	2	El tablón	8	Agosto	2023-08-20T00:00:00	2024-11-06T23:00:00	8	Radiación solar	0
172985	7	Sololá	701	Sololá	2	El tablón	8	Agosto	2023-08-21T00:00:00	2024-11-06T00:00:00	2	Temperatura media	13.6
172986	7	Sololá	701	Sololá	2	El tablón	8	Agosto	2023-08-21T00:00:00	2024-11-06T00:00:00	4	Temperatura máxima	14
172987	7	Sololá	701	Sololá	2	El tablón	8	Agosto	2023-08-21T00:00:00	2024-11-06T00:00:00	3	Temperatura mínima	13.6
172988	7	Sololá	701	Sololá	2	El tablón	8	Agosto	2023-08-21T00:00:00	2024-11-06T00:00:00	5	Humedad	87
172989	7	Sololá	701	Sololá	2	El tablón	8	Agosto	2023-08-21T00:00:00	2024-11-06T00:00:00	6	Velocidad del viento	11.3
172990	7	Sololá	701	Sololá	2	El tablón	8	Agosto	2023-08-21T00:00:00	2024-11-06T00:00:00	7	Dirección del viento	11.27
172991	7	Sololá	701	Sololá	2	El tablón	8	Agosto	2023-08-21T00:00:00	2024-11-06T00:00:00	1	Precipitación	0
172992	7	Sololá	701	Sololá	2	El tablón	8	Agosto	2023-08-21T00:00:00	2024-11-06T00:00:00	8	Radiación solar	0
172993	7	Sololá	701	Sololá	2	El tablón	8	Agosto	2023-08-21T00:00:00	2024-11-06T01:00:00	2	Temperatura media	13.6
172994	7	Sololá	701	Sololá	2	El tablón	8	Agosto	2023-08-21T00:00:00	2024-11-06T01:00:00	4	Temperatura máxima	13.6
172995	7	Sololá	701	Sololá	2	El tablón	8	Agosto	2023-08-21T00:00:00	2024-11-06T01:00:00	3	Temperatura mínima	13.4
172996	7	Sololá	701	Sololá	2	El tablón	8	Agosto	2023-08-21T00:00:00	2024-11-06T01:00:00	5	Humedad	86
172997	7	Sololá	701	Sololá	2	El tablón	8	Agosto	2023-08-21T00:00:00	2024-11-06T01:00:00	6	Velocidad del viento	9.7
172998	7	Sololá	701	Sololá	2	El tablón	8	Agosto	2023-08-21T00:00:00	2024-11-06T01:00:00	7	Dirección del viento	9.66
172999	7	Sololá	701	Sololá	2	El tablón	8	Agosto	2023-08-21T00:00:00	2024-11-06T01:00:00	1	Precipitación	0
173000	7	Sololá	701	Sololá	2	El tablón	8	Agosto	2023-08-21T00:00:00	2024-11-06T01:00:00	8	Radiación solar	0
173001	7	Sololá	701	Sololá	2	El tablón	8	Agosto	2023-08-21T00:00:00	2024-11-06T02:00:00	2	Temperatura media	13.2
173002	7	Sololá	701	Sololá	2	El tablón	8	Agosto	2023-08-21T00:00:00	2024-11-06T02:00:00	4	Temperatura máxima	13.6
173003	7	Sololá	701	Sololá	2	El tablón	8	Agosto	2023-08-21T00:00:00	2024-11-06T02:00:00	3	Temperatura mínima	13.2
173004	7	Sololá	701	Sololá	2	El tablón	8	Agosto	2023-08-21T00:00:00	2024-11-06T02:00:00	5	Humedad	87
173005	7	Sololá	701	Sololá	2	El tablón	8	Agosto	2023-08-21T00:00:00	2024-11-06T02:00:00	6	Velocidad del viento	9.7
173006	7	Sololá	701	Sololá	2	El tablón	8	Agosto	2023-08-21T00:00:00	2024-11-06T02:00:00	7	Dirección del viento	9.66
173007	7	Sololá	701	Sololá	2	El tablón	8	Agosto	2023-08-21T00:00:00	2024-11-06T02:00:00	1	Precipitación	0
173008	7	Sololá	701	Sololá	2	El tablón	8	Agosto	2023-08-21T00:00:00	2024-11-06T02:00:00	8	Radiación solar	0
173009	7	Sololá	701	Sololá	2	El tablón	8	Agosto	2023-08-21T00:00:00	2024-11-06T03:00:00	2	Temperatura media	12.8
173010	7	Sololá	701	Sololá	2	El tablón	8	Agosto	2023-08-21T00:00:00	2024-11-06T03:00:00	4	Temperatura máxima	13.2
173011	7	Sololá	701	Sololá	2	El tablón	8	Agosto	2023-08-21T00:00:00	2024-11-06T03:00:00	3	Temperatura mínima	12.8
173012	7	Sololá	701	Sololá	2	El tablón	8	Agosto	2023-08-21T00:00:00	2024-11-06T03:00:00	5	Humedad	87
173013	7	Sololá	701	Sololá	2	El tablón	8	Agosto	2023-08-21T00:00:00	2024-11-06T03:00:00	6	Velocidad del viento	9.7
173014	7	Sololá	701	Sololá	2	El tablón	8	Agosto	2023-08-21T00:00:00	2024-11-06T03:00:00	7	Dirección del viento	9.66
173015	7	Sololá	701	Sololá	2	El tablón	8	Agosto	2023-08-21T00:00:00	2024-11-06T03:00:00	1	Precipitación	0
173016	7	Sololá	701	Sololá	2	El tablón	8	Agosto	2023-08-21T00:00:00	2024-11-06T03:00:00	8	Radiación solar	0
173017	7	Sololá	701	Sololá	2	El tablón	8	Agosto	2023-08-21T00:00:00	2024-11-06T04:00:00	2	Temperatura media	12.7
173018	7	Sololá	701	Sololá	2	El tablón	8	Agosto	2023-08-21T00:00:00	2024-11-06T04:00:00	4	Temperatura máxima	12.9
173019	7	Sololá	701	Sololá	2	El tablón	8	Agosto	2023-08-21T00:00:00	2024-11-06T04:00:00	3	Temperatura mínima	12.6
173020	7	Sololá	701	Sololá	2	El tablón	8	Agosto	2023-08-21T00:00:00	2024-11-06T04:00:00	5	Humedad	87
173021	7	Sololá	701	Sololá	2	El tablón	8	Agosto	2023-08-21T00:00:00	2024-11-06T04:00:00	6	Velocidad del viento	12.9
173022	7	Sololá	701	Sololá	2	El tablón	8	Agosto	2023-08-21T00:00:00	2024-11-06T04:00:00	7	Dirección del viento	12.87
173023	7	Sololá	701	Sololá	2	El tablón	8	Agosto	2023-08-21T00:00:00	2024-11-06T04:00:00	1	Precipitación	0
173024	7	Sololá	701	Sololá	2	El tablón	8	Agosto	2023-08-21T00:00:00	2024-11-06T04:00:00	8	Radiación solar	0
173025	7	Sololá	701	Sololá	2	El tablón	8	Agosto	2023-08-21T00:00:00	2024-11-06T05:00:00	2	Temperatura media	12.8
173026	7	Sololá	701	Sololá	2	El tablón	8	Agosto	2023-08-21T00:00:00	2024-11-06T05:00:00	4	Temperatura máxima	12.8
173027	7	Sololá	701	Sololá	2	El tablón	8	Agosto	2023-08-21T00:00:00	2024-11-06T05:00:00	3	Temperatura mínima	12.7
173028	7	Sololá	701	Sololá	2	El tablón	8	Agosto	2023-08-21T00:00:00	2024-11-06T05:00:00	5	Humedad	86
173029	7	Sololá	701	Sololá	2	El tablón	8	Agosto	2023-08-21T00:00:00	2024-11-06T05:00:00	6	Velocidad del viento	11.3
173030	7	Sololá	701	Sololá	2	El tablón	8	Agosto	2023-08-21T00:00:00	2024-11-06T05:00:00	7	Dirección del viento	11.27
173031	7	Sololá	701	Sololá	2	El tablón	8	Agosto	2023-08-21T00:00:00	2024-11-06T05:00:00	1	Precipitación	0
173032	7	Sololá	701	Sololá	2	El tablón	8	Agosto	2023-08-21T00:00:00	2024-11-06T05:00:00	8	Radiación solar	0
173033	7	Sololá	701	Sololá	2	El tablón	8	Agosto	2023-08-21T00:00:00	2024-11-06T06:00:00	2	Temperatura media	13.1
173034	7	Sololá	701	Sololá	2	El tablón	8	Agosto	2023-08-21T00:00:00	2024-11-06T06:00:00	4	Temperatura máxima	13.2
173035	7	Sololá	701	Sololá	2	El tablón	8	Agosto	2023-08-21T00:00:00	2024-11-06T06:00:00	3	Temperatura mínima	12.8
173036	7	Sololá	701	Sololá	2	El tablón	8	Agosto	2023-08-21T00:00:00	2024-11-06T06:00:00	5	Humedad	84
173037	7	Sololá	701	Sololá	2	El tablón	8	Agosto	2023-08-21T00:00:00	2024-11-06T06:00:00	6	Velocidad del viento	6.4
173038	7	Sololá	701	Sololá	2	El tablón	8	Agosto	2023-08-21T00:00:00	2024-11-06T06:00:00	7	Dirección del viento	6.44
173039	7	Sololá	701	Sololá	2	El tablón	8	Agosto	2023-08-21T00:00:00	2024-11-06T06:00:00	1	Precipitación	0
173040	7	Sololá	701	Sololá	2	El tablón	8	Agosto	2023-08-21T00:00:00	2024-11-06T06:00:00	8	Radiación solar	0
173041	7	Sololá	701	Sololá	2	El tablón	8	Agosto	2023-08-21T00:00:00	2024-11-06T07:00:00	2	Temperatura media	13.7
173042	7	Sololá	701	Sololá	2	El tablón	8	Agosto	2023-08-21T00:00:00	2024-11-06T07:00:00	4	Temperatura máxima	13.7
173043	7	Sololá	701	Sololá	2	El tablón	8	Agosto	2023-08-21T00:00:00	2024-11-06T07:00:00	3	Temperatura mínima	13.1
173044	7	Sololá	701	Sololá	2	El tablón	8	Agosto	2023-08-21T00:00:00	2024-11-06T07:00:00	5	Humedad	83
173045	7	Sololá	701	Sololá	2	El tablón	8	Agosto	2023-08-21T00:00:00	2024-11-06T07:00:00	6	Velocidad del viento	11.3
173046	7	Sololá	701	Sololá	2	El tablón	8	Agosto	2023-08-21T00:00:00	2024-11-06T07:00:00	7	Dirección del viento	11.27
173047	7	Sololá	701	Sololá	2	El tablón	8	Agosto	2023-08-21T00:00:00	2024-11-06T07:00:00	1	Precipitación	0
173048	7	Sololá	701	Sololá	2	El tablón	8	Agosto	2023-08-21T00:00:00	2024-11-06T07:00:00	8	Radiación solar	36
173049	7	Sololá	701	Sololá	2	El tablón	8	Agosto	2023-08-21T00:00:00	2024-11-06T08:00:00	2	Temperatura media	15.2
173050	7	Sololá	701	Sololá	2	El tablón	8	Agosto	2023-08-21T00:00:00	2024-11-06T08:00:00	4	Temperatura máxima	15.2
173051	7	Sololá	701	Sololá	2	El tablón	8	Agosto	2023-08-21T00:00:00	2024-11-06T08:00:00	3	Temperatura mínima	13.7
173052	7	Sololá	701	Sololá	2	El tablón	8	Agosto	2023-08-21T00:00:00	2024-11-06T08:00:00	5	Humedad	78
173053	7	Sololá	701	Sololá	2	El tablón	8	Agosto	2023-08-21T00:00:00	2024-11-06T08:00:00	6	Velocidad del viento	4.8
173054	7	Sololá	701	Sololá	2	El tablón	8	Agosto	2023-08-21T00:00:00	2024-11-06T08:00:00	7	Dirección del viento	4.83
173055	7	Sololá	701	Sololá	2	El tablón	8	Agosto	2023-08-21T00:00:00	2024-11-06T08:00:00	1	Precipitación	0
173056	7	Sololá	701	Sololá	2	El tablón	8	Agosto	2023-08-21T00:00:00	2024-11-06T08:00:00	8	Radiación solar	171
173057	7	Sololá	701	Sololá	2	El tablón	8	Agosto	2023-08-21T00:00:00	2024-11-06T09:00:00	2	Temperatura media	18.1
173058	7	Sololá	701	Sololá	2	El tablón	8	Agosto	2023-08-21T00:00:00	2024-11-06T09:00:00	4	Temperatura máxima	18.4
173059	7	Sololá	701	Sololá	2	El tablón	8	Agosto	2023-08-21T00:00:00	2024-11-06T09:00:00	3	Temperatura mínima	15.2
173060	7	Sololá	701	Sololá	2	El tablón	8	Agosto	2023-08-21T00:00:00	2024-11-06T09:00:00	5	Humedad	69
173061	7	Sololá	701	Sololá	2	El tablón	8	Agosto	2023-08-21T00:00:00	2024-11-06T09:00:00	6	Velocidad del viento	3.2
173062	7	Sololá	701	Sololá	2	El tablón	8	Agosto	2023-08-21T00:00:00	2024-11-06T09:00:00	7	Dirección del viento	3.22
173063	7	Sololá	701	Sololá	2	El tablón	8	Agosto	2023-08-21T00:00:00	2024-11-06T09:00:00	1	Precipitación	0
173064	7	Sololá	701	Sololá	2	El tablón	8	Agosto	2023-08-21T00:00:00	2024-11-06T09:00:00	8	Radiación solar	334
173065	7	Sololá	701	Sololá	2	El tablón	8	Agosto	2023-08-21T00:00:00	2024-11-06T10:00:00	2	Temperatura media	18.8
173066	7	Sololá	701	Sololá	2	El tablón	8	Agosto	2023-08-21T00:00:00	2024-11-06T10:00:00	4	Temperatura máxima	18.8
173067	7	Sololá	701	Sololá	2	El tablón	8	Agosto	2023-08-21T00:00:00	2024-11-06T10:00:00	3	Temperatura mínima	18.1
173068	7	Sololá	701	Sololá	2	El tablón	8	Agosto	2023-08-21T00:00:00	2024-11-06T10:00:00	5	Humedad	65
173069	7	Sololá	701	Sololá	2	El tablón	8	Agosto	2023-08-21T00:00:00	2024-11-06T10:00:00	6	Velocidad del viento	6.4
173070	7	Sololá	701	Sololá	2	El tablón	8	Agosto	2023-08-21T00:00:00	2024-11-06T10:00:00	7	Dirección del viento	6.44
173071	7	Sololá	701	Sololá	2	El tablón	8	Agosto	2023-08-21T00:00:00	2024-11-06T10:00:00	1	Precipitación	0
173072	7	Sololá	701	Sololá	2	El tablón	8	Agosto	2023-08-21T00:00:00	2024-11-06T10:00:00	8	Radiación solar	433
173073	7	Sololá	701	Sololá	2	El tablón	8	Agosto	2023-08-21T00:00:00	2024-11-06T11:00:00	2	Temperatura media	19.1
173074	7	Sololá	701	Sololá	2	El tablón	8	Agosto	2023-08-21T00:00:00	2024-11-06T11:00:00	4	Temperatura máxima	20.1
173075	7	Sololá	701	Sololá	2	El tablón	8	Agosto	2023-08-21T00:00:00	2024-11-06T11:00:00	3	Temperatura mínima	18.8
173076	7	Sololá	701	Sololá	2	El tablón	8	Agosto	2023-08-21T00:00:00	2024-11-06T11:00:00	5	Humedad	65
173077	7	Sololá	701	Sololá	2	El tablón	8	Agosto	2023-08-21T00:00:00	2024-11-06T11:00:00	6	Velocidad del viento	11.3
173078	7	Sololá	701	Sololá	2	El tablón	8	Agosto	2023-08-21T00:00:00	2024-11-06T11:00:00	7	Dirección del viento	11.27
173079	7	Sololá	701	Sololá	2	El tablón	8	Agosto	2023-08-21T00:00:00	2024-11-06T11:00:00	1	Precipitación	0
173080	7	Sololá	701	Sololá	2	El tablón	8	Agosto	2023-08-21T00:00:00	2024-11-06T11:00:00	8	Radiación solar	654
173081	7	Sololá	701	Sololá	2	El tablón	8	Agosto	2023-08-21T00:00:00	2024-11-06T12:00:00	2	Temperatura media	20.5
173082	7	Sololá	701	Sololá	2	El tablón	8	Agosto	2023-08-21T00:00:00	2024-11-06T12:00:00	4	Temperatura máxima	20.5
173083	7	Sololá	701	Sololá	2	El tablón	8	Agosto	2023-08-21T00:00:00	2024-11-06T12:00:00	3	Temperatura mínima	19.1
173084	7	Sololá	701	Sololá	2	El tablón	8	Agosto	2023-08-21T00:00:00	2024-11-06T12:00:00	5	Humedad	62
173085	7	Sololá	701	Sololá	2	El tablón	8	Agosto	2023-08-21T00:00:00	2024-11-06T12:00:00	6	Velocidad del viento	9.7
173086	7	Sololá	701	Sololá	2	El tablón	8	Agosto	2023-08-21T00:00:00	2024-11-06T12:00:00	7	Dirección del viento	9.66
173087	7	Sololá	701	Sololá	2	El tablón	8	Agosto	2023-08-21T00:00:00	2024-11-06T12:00:00	1	Precipitación	0
173088	7	Sololá	701	Sololá	2	El tablón	8	Agosto	2023-08-21T00:00:00	2024-11-06T12:00:00	8	Radiación solar	746
173089	7	Sololá	701	Sololá	2	El tablón	8	Agosto	2023-08-21T00:00:00	2024-11-06T13:00:00	2	Temperatura media	18.5
173090	7	Sololá	701	Sololá	2	El tablón	8	Agosto	2023-08-21T00:00:00	2024-11-06T13:00:00	4	Temperatura máxima	21
173091	7	Sololá	701	Sololá	2	El tablón	8	Agosto	2023-08-21T00:00:00	2024-11-06T13:00:00	3	Temperatura mínima	18.5
173092	7	Sololá	701	Sololá	2	El tablón	8	Agosto	2023-08-21T00:00:00	2024-11-06T13:00:00	5	Humedad	78
173093	7	Sololá	701	Sololá	2	El tablón	8	Agosto	2023-08-21T00:00:00	2024-11-06T13:00:00	6	Velocidad del viento	6.4
173094	7	Sololá	701	Sololá	2	El tablón	8	Agosto	2023-08-21T00:00:00	2024-11-06T13:00:00	7	Dirección del viento	6.44
173095	7	Sololá	701	Sololá	2	El tablón	8	Agosto	2023-08-21T00:00:00	2024-11-06T13:00:00	1	Precipitación	0
173096	7	Sololá	701	Sololá	2	El tablón	8	Agosto	2023-08-21T00:00:00	2024-11-06T13:00:00	8	Radiación solar	483
173097	7	Sololá	701	Sololá	2	El tablón	8	Agosto	2023-08-21T00:00:00	2024-11-06T14:00:00	2	Temperatura media	18.7
173098	7	Sololá	701	Sololá	2	El tablón	8	Agosto	2023-08-21T00:00:00	2024-11-06T14:00:00	4	Temperatura máxima	19.5
173099	7	Sololá	701	Sololá	2	El tablón	8	Agosto	2023-08-21T00:00:00	2024-11-06T14:00:00	3	Temperatura mínima	18.5
173100	7	Sololá	701	Sololá	2	El tablón	8	Agosto	2023-08-21T00:00:00	2024-11-06T14:00:00	5	Humedad	82
173101	7	Sololá	701	Sololá	2	El tablón	8	Agosto	2023-08-21T00:00:00	2024-11-06T14:00:00	6	Velocidad del viento	6.4
173102	7	Sololá	701	Sololá	2	El tablón	8	Agosto	2023-08-21T00:00:00	2024-11-06T14:00:00	7	Dirección del viento	6.44
173103	7	Sololá	701	Sololá	2	El tablón	8	Agosto	2023-08-21T00:00:00	2024-11-06T14:00:00	1	Precipitación	0
173104	7	Sololá	701	Sololá	2	El tablón	8	Agosto	2023-08-21T00:00:00	2024-11-06T14:00:00	8	Radiación solar	569
173105	7	Sololá	701	Sololá	2	El tablón	8	Agosto	2023-08-21T00:00:00	2024-11-06T15:00:00	2	Temperatura media	17.8
173106	7	Sololá	701	Sololá	2	El tablón	8	Agosto	2023-08-21T00:00:00	2024-11-06T15:00:00	4	Temperatura máxima	19.6
173107	7	Sololá	701	Sololá	2	El tablón	8	Agosto	2023-08-21T00:00:00	2024-11-06T15:00:00	3	Temperatura mínima	17.8
173108	7	Sololá	701	Sololá	2	El tablón	8	Agosto	2023-08-21T00:00:00	2024-11-06T15:00:00	5	Humedad	86
173109	7	Sololá	701	Sololá	2	El tablón	8	Agosto	2023-08-21T00:00:00	2024-11-06T15:00:00	6	Velocidad del viento	6.4
173110	7	Sololá	701	Sololá	2	El tablón	8	Agosto	2023-08-21T00:00:00	2024-11-06T15:00:00	7	Dirección del viento	6.44
173111	7	Sololá	701	Sololá	2	El tablón	8	Agosto	2023-08-21T00:00:00	2024-11-06T15:00:00	1	Precipitación	0
173112	7	Sololá	701	Sololá	2	El tablón	8	Agosto	2023-08-21T00:00:00	2024-11-06T15:00:00	8	Radiación solar	349
173113	7	Sololá	701	Sololá	2	El tablón	8	Agosto	2023-08-21T00:00:00	2024-11-06T16:00:00	2	Temperatura media	16.1
173114	7	Sololá	701	Sololá	2	El tablón	8	Agosto	2023-08-21T00:00:00	2024-11-06T16:00:00	4	Temperatura máxima	17.8
173115	7	Sololá	701	Sololá	2	El tablón	8	Agosto	2023-08-21T00:00:00	2024-11-06T16:00:00	3	Temperatura mínima	16.1
173116	7	Sololá	701	Sololá	2	El tablón	8	Agosto	2023-08-21T00:00:00	2024-11-06T16:00:00	5	Humedad	88
173117	7	Sololá	701	Sololá	2	El tablón	8	Agosto	2023-08-21T00:00:00	2024-11-06T16:00:00	6	Velocidad del viento	8
173118	7	Sololá	701	Sololá	2	El tablón	8	Agosto	2023-08-21T00:00:00	2024-11-06T16:00:00	7	Dirección del viento	8.05
173119	7	Sololá	701	Sololá	2	El tablón	8	Agosto	2023-08-21T00:00:00	2024-11-06T16:00:00	1	Precipitación	0
173120	7	Sololá	701	Sololá	2	El tablón	8	Agosto	2023-08-21T00:00:00	2024-11-06T16:00:00	8	Radiación solar	138
173121	7	Sololá	701	Sololá	2	El tablón	8	Agosto	2023-08-21T00:00:00	2024-11-06T17:00:00	2	Temperatura media	15
173122	7	Sololá	701	Sololá	2	El tablón	8	Agosto	2023-08-21T00:00:00	2024-11-06T17:00:00	4	Temperatura máxima	16.1
173123	7	Sololá	701	Sololá	2	El tablón	8	Agosto	2023-08-21T00:00:00	2024-11-06T17:00:00	3	Temperatura mínima	15
173124	7	Sololá	701	Sololá	2	El tablón	8	Agosto	2023-08-21T00:00:00	2024-11-06T17:00:00	5	Humedad	87
173125	7	Sololá	701	Sololá	2	El tablón	8	Agosto	2023-08-21T00:00:00	2024-11-06T17:00:00	6	Velocidad del viento	4.8
173126	7	Sololá	701	Sololá	2	El tablón	8	Agosto	2023-08-21T00:00:00	2024-11-06T17:00:00	7	Dirección del viento	4.83
173127	7	Sololá	701	Sololá	2	El tablón	8	Agosto	2023-08-21T00:00:00	2024-11-06T17:00:00	1	Precipitación	5
173128	7	Sololá	701	Sololá	2	El tablón	8	Agosto	2023-08-21T00:00:00	2024-11-06T17:00:00	8	Radiación solar	10
173129	7	Sololá	701	Sololá	2	El tablón	8	Agosto	2023-08-21T00:00:00	2024-11-06T18:00:00	2	Temperatura media	14.5
173130	7	Sololá	701	Sololá	2	El tablón	8	Agosto	2023-08-21T00:00:00	2024-11-06T18:00:00	4	Temperatura máxima	15.1
173131	7	Sololá	701	Sololá	2	El tablón	8	Agosto	2023-08-21T00:00:00	2024-11-06T18:00:00	3	Temperatura mínima	14.4
173132	7	Sololá	701	Sololá	2	El tablón	8	Agosto	2023-08-21T00:00:00	2024-11-06T18:00:00	5	Humedad	88
173133	7	Sololá	701	Sololá	2	El tablón	8	Agosto	2023-08-21T00:00:00	2024-11-06T18:00:00	6	Velocidad del viento	4.8
173134	7	Sololá	701	Sololá	2	El tablón	8	Agosto	2023-08-21T00:00:00	2024-11-06T18:00:00	7	Dirección del viento	4.83
173135	7	Sololá	701	Sololá	2	El tablón	8	Agosto	2023-08-21T00:00:00	2024-11-06T18:00:00	1	Precipitación	0
173136	7	Sololá	701	Sololá	2	El tablón	8	Agosto	2023-08-21T00:00:00	2024-11-06T18:00:00	8	Radiación solar	15
173137	7	Sololá	701	Sololá	2	El tablón	8	Agosto	2023-08-21T00:00:00	2024-11-06T19:00:00	2	Temperatura media	14.5
173138	7	Sololá	701	Sololá	2	El tablón	8	Agosto	2023-08-21T00:00:00	2024-11-06T19:00:00	4	Temperatura máxima	14.6
173139	7	Sololá	701	Sololá	2	El tablón	8	Agosto	2023-08-21T00:00:00	2024-11-06T19:00:00	3	Temperatura mínima	14.4
173140	7	Sololá	701	Sololá	2	El tablón	8	Agosto	2023-08-21T00:00:00	2024-11-06T19:00:00	5	Humedad	88
173141	7	Sololá	701	Sololá	2	El tablón	8	Agosto	2023-08-21T00:00:00	2024-11-06T19:00:00	6	Velocidad del viento	3.2
173142	7	Sololá	701	Sololá	2	El tablón	8	Agosto	2023-08-21T00:00:00	2024-11-06T19:00:00	7	Dirección del viento	3.22
173143	7	Sololá	701	Sololá	2	El tablón	8	Agosto	2023-08-21T00:00:00	2024-11-06T19:00:00	1	Precipitación	0
173144	7	Sololá	701	Sololá	2	El tablón	8	Agosto	2023-08-21T00:00:00	2024-11-06T19:00:00	8	Radiación solar	0
173145	7	Sololá	701	Sololá	2	El tablón	8	Agosto	2023-08-21T00:00:00	2024-11-06T20:00:00	2	Temperatura media	14.2
173146	7	Sololá	701	Sololá	2	El tablón	8	Agosto	2023-08-21T00:00:00	2024-11-06T20:00:00	4	Temperatura máxima	14.5
173147	7	Sololá	701	Sololá	2	El tablón	8	Agosto	2023-08-21T00:00:00	2024-11-06T20:00:00	3	Temperatura mínima	14.2
173148	7	Sololá	701	Sololá	2	El tablón	8	Agosto	2023-08-21T00:00:00	2024-11-06T20:00:00	5	Humedad	88
173149	7	Sololá	701	Sololá	2	El tablón	8	Agosto	2023-08-21T00:00:00	2024-11-06T20:00:00	6	Velocidad del viento	4.8
173150	7	Sololá	701	Sololá	2	El tablón	8	Agosto	2023-08-21T00:00:00	2024-11-06T20:00:00	7	Dirección del viento	4.83
173151	7	Sololá	701	Sololá	2	El tablón	8	Agosto	2023-08-21T00:00:00	2024-11-06T20:00:00	1	Precipitación	0
173152	7	Sololá	701	Sololá	2	El tablón	8	Agosto	2023-08-21T00:00:00	2024-11-06T20:00:00	8	Radiación solar	0
173153	7	Sololá	701	Sololá	2	El tablón	8	Agosto	2023-08-21T00:00:00	2024-11-06T21:00:00	2	Temperatura media	14.2
173154	7	Sololá	701	Sololá	2	El tablón	8	Agosto	2023-08-21T00:00:00	2024-11-06T21:00:00	4	Temperatura máxima	14.3
173155	7	Sololá	701	Sololá	2	El tablón	8	Agosto	2023-08-21T00:00:00	2024-11-06T21:00:00	3	Temperatura mínima	14.2
173156	7	Sololá	701	Sololá	2	El tablón	8	Agosto	2023-08-21T00:00:00	2024-11-06T21:00:00	5	Humedad	88
173157	7	Sololá	701	Sololá	2	El tablón	8	Agosto	2023-08-21T00:00:00	2024-11-06T21:00:00	6	Velocidad del viento	6.4
173158	7	Sololá	701	Sololá	2	El tablón	8	Agosto	2023-08-21T00:00:00	2024-11-06T21:00:00	7	Dirección del viento	6.44
173159	7	Sololá	701	Sololá	2	El tablón	8	Agosto	2023-08-21T00:00:00	2024-11-06T21:00:00	1	Precipitación	0
173160	7	Sololá	701	Sololá	2	El tablón	8	Agosto	2023-08-21T00:00:00	2024-11-06T21:00:00	8	Radiación solar	0
173161	7	Sololá	701	Sololá	2	El tablón	8	Agosto	2023-08-21T00:00:00	2024-11-06T22:00:00	2	Temperatura media	14.2
173162	7	Sololá	701	Sololá	2	El tablón	8	Agosto	2023-08-21T00:00:00	2024-11-06T22:00:00	4	Temperatura máxima	14.3
173163	7	Sololá	701	Sololá	2	El tablón	8	Agosto	2023-08-21T00:00:00	2024-11-06T22:00:00	3	Temperatura mínima	14.1
173164	7	Sololá	701	Sololá	2	El tablón	8	Agosto	2023-08-21T00:00:00	2024-11-06T22:00:00	5	Humedad	87
173165	7	Sololá	701	Sololá	2	El tablón	8	Agosto	2023-08-21T00:00:00	2024-11-06T22:00:00	6	Velocidad del viento	8
173166	7	Sololá	701	Sololá	2	El tablón	8	Agosto	2023-08-21T00:00:00	2024-11-06T22:00:00	7	Dirección del viento	8.05
173167	7	Sololá	701	Sololá	2	El tablón	8	Agosto	2023-08-21T00:00:00	2024-11-06T22:00:00	1	Precipitación	0.2
173168	7	Sololá	701	Sololá	2	El tablón	8	Agosto	2023-08-21T00:00:00	2024-11-06T22:00:00	8	Radiación solar	0
173169	7	Sololá	701	Sololá	2	El tablón	8	Agosto	2023-08-21T00:00:00	2024-11-06T23:00:00	2	Temperatura media	14.1
173170	7	Sololá	701	Sololá	2	El tablón	8	Agosto	2023-08-21T00:00:00	2024-11-06T23:00:00	4	Temperatura máxima	14.2
173171	7	Sololá	701	Sololá	2	El tablón	8	Agosto	2023-08-21T00:00:00	2024-11-06T23:00:00	3	Temperatura mínima	13.9
173172	7	Sololá	701	Sololá	2	El tablón	8	Agosto	2023-08-21T00:00:00	2024-11-06T23:00:00	5	Humedad	87
173173	7	Sololá	701	Sololá	2	El tablón	8	Agosto	2023-08-21T00:00:00	2024-11-06T23:00:00	6	Velocidad del viento	8
173174	7	Sololá	701	Sololá	2	El tablón	8	Agosto	2023-08-21T00:00:00	2024-11-06T23:00:00	7	Dirección del viento	8.05
173175	7	Sololá	701	Sololá	2	El tablón	8	Agosto	2023-08-21T00:00:00	2024-11-06T23:00:00	1	Precipitación	0
173176	7	Sololá	701	Sololá	2	El tablón	8	Agosto	2023-08-21T00:00:00	2024-11-06T23:00:00	8	Radiación solar	0
173177	7	Sololá	701	Sololá	2	El tablón	8	Agosto	2023-08-22T00:00:00	2024-11-06T00:00:00	2	Temperatura media	13.6
173178	7	Sololá	701	Sololá	2	El tablón	8	Agosto	2023-08-22T00:00:00	2024-11-06T00:00:00	4	Temperatura máxima	14.1
173179	7	Sololá	701	Sololá	2	El tablón	8	Agosto	2023-08-22T00:00:00	2024-11-06T00:00:00	3	Temperatura mínima	13.6
173180	7	Sololá	701	Sololá	2	El tablón	8	Agosto	2023-08-22T00:00:00	2024-11-06T00:00:00	5	Humedad	88
173181	7	Sololá	701	Sololá	2	El tablón	8	Agosto	2023-08-22T00:00:00	2024-11-06T00:00:00	6	Velocidad del viento	8
173182	7	Sololá	701	Sololá	2	El tablón	8	Agosto	2023-08-22T00:00:00	2024-11-06T00:00:00	7	Dirección del viento	8.05
173183	7	Sololá	701	Sololá	2	El tablón	8	Agosto	2023-08-22T00:00:00	2024-11-06T00:00:00	1	Precipitación	0
173184	7	Sololá	701	Sololá	2	El tablón	8	Agosto	2023-08-22T00:00:00	2024-11-06T00:00:00	8	Radiación solar	0
173185	7	Sololá	701	Sololá	2	El tablón	8	Agosto	2023-08-22T00:00:00	2024-11-06T01:00:00	2	Temperatura media	13.6
173186	7	Sololá	701	Sololá	2	El tablón	8	Agosto	2023-08-22T00:00:00	2024-11-06T01:00:00	4	Temperatura máxima	13.6
173187	7	Sololá	701	Sololá	2	El tablón	8	Agosto	2023-08-22T00:00:00	2024-11-06T01:00:00	3	Temperatura mínima	13.5
173188	7	Sololá	701	Sololá	2	El tablón	8	Agosto	2023-08-22T00:00:00	2024-11-06T01:00:00	5	Humedad	86
173189	7	Sololá	701	Sololá	2	El tablón	8	Agosto	2023-08-22T00:00:00	2024-11-06T01:00:00	6	Velocidad del viento	9.7
173190	7	Sololá	701	Sololá	2	El tablón	8	Agosto	2023-08-22T00:00:00	2024-11-06T01:00:00	7	Dirección del viento	9.66
173191	7	Sololá	701	Sololá	2	El tablón	8	Agosto	2023-08-22T00:00:00	2024-11-06T01:00:00	1	Precipitación	0
173192	7	Sololá	701	Sololá	2	El tablón	8	Agosto	2023-08-22T00:00:00	2024-11-06T01:00:00	8	Radiación solar	0
173193	7	Sololá	701	Sololá	2	El tablón	8	Agosto	2023-08-22T00:00:00	2024-11-06T02:00:00	2	Temperatura media	13
173194	7	Sololá	701	Sololá	2	El tablón	8	Agosto	2023-08-22T00:00:00	2024-11-06T02:00:00	4	Temperatura máxima	13.6
173195	7	Sololá	701	Sololá	2	El tablón	8	Agosto	2023-08-22T00:00:00	2024-11-06T02:00:00	3	Temperatura mínima	13
173196	7	Sololá	701	Sololá	2	El tablón	8	Agosto	2023-08-22T00:00:00	2024-11-06T02:00:00	5	Humedad	87
173197	7	Sololá	701	Sololá	2	El tablón	8	Agosto	2023-08-22T00:00:00	2024-11-06T02:00:00	6	Velocidad del viento	12.9
173198	7	Sololá	701	Sololá	2	El tablón	8	Agosto	2023-08-22T00:00:00	2024-11-06T02:00:00	7	Dirección del viento	12.87
173199	7	Sololá	701	Sololá	2	El tablón	8	Agosto	2023-08-22T00:00:00	2024-11-06T02:00:00	1	Precipitación	0
173200	7	Sololá	701	Sololá	2	El tablón	8	Agosto	2023-08-22T00:00:00	2024-11-06T02:00:00	8	Radiación solar	0
173201	7	Sololá	701	Sololá	2	El tablón	8	Agosto	2023-08-22T00:00:00	2024-11-06T03:00:00	2	Temperatura media	13.1
173202	7	Sololá	701	Sololá	2	El tablón	8	Agosto	2023-08-22T00:00:00	2024-11-06T03:00:00	4	Temperatura máxima	13.2
173203	7	Sololá	701	Sololá	2	El tablón	8	Agosto	2023-08-22T00:00:00	2024-11-06T03:00:00	3	Temperatura mínima	13
173204	7	Sololá	701	Sololá	2	El tablón	8	Agosto	2023-08-22T00:00:00	2024-11-06T03:00:00	5	Humedad	85
173205	7	Sololá	701	Sololá	2	El tablón	8	Agosto	2023-08-22T00:00:00	2024-11-06T03:00:00	6	Velocidad del viento	8
173206	7	Sololá	701	Sololá	2	El tablón	8	Agosto	2023-08-22T00:00:00	2024-11-06T03:00:00	7	Dirección del viento	8.05
173207	7	Sololá	701	Sololá	2	El tablón	8	Agosto	2023-08-22T00:00:00	2024-11-06T03:00:00	1	Precipitación	0
173208	7	Sololá	701	Sololá	2	El tablón	8	Agosto	2023-08-22T00:00:00	2024-11-06T03:00:00	8	Radiación solar	0
173209	7	Sololá	701	Sololá	2	El tablón	8	Agosto	2023-08-22T00:00:00	2024-11-06T04:00:00	2	Temperatura media	12.7
173210	7	Sololá	701	Sololá	2	El tablón	8	Agosto	2023-08-22T00:00:00	2024-11-06T04:00:00	4	Temperatura máxima	13.1
173211	7	Sololá	701	Sololá	2	El tablón	8	Agosto	2023-08-22T00:00:00	2024-11-06T04:00:00	3	Temperatura mínima	12.6
173212	7	Sololá	701	Sololá	2	El tablón	8	Agosto	2023-08-22T00:00:00	2024-11-06T04:00:00	5	Humedad	83
173213	7	Sololá	701	Sololá	2	El tablón	8	Agosto	2023-08-22T00:00:00	2024-11-06T04:00:00	6	Velocidad del viento	11.3
173214	7	Sololá	701	Sololá	2	El tablón	8	Agosto	2023-08-22T00:00:00	2024-11-06T04:00:00	7	Dirección del viento	11.27
173215	7	Sololá	701	Sololá	2	El tablón	8	Agosto	2023-08-22T00:00:00	2024-11-06T04:00:00	1	Precipitación	0
173216	7	Sololá	701	Sololá	2	El tablón	8	Agosto	2023-08-22T00:00:00	2024-11-06T04:00:00	8	Radiación solar	0
173217	7	Sololá	701	Sololá	2	El tablón	8	Agosto	2023-08-22T00:00:00	2024-11-06T05:00:00	2	Temperatura media	12.9
173218	7	Sololá	701	Sololá	2	El tablón	8	Agosto	2023-08-22T00:00:00	2024-11-06T05:00:00	4	Temperatura máxima	13.3
173219	7	Sololá	701	Sololá	2	El tablón	8	Agosto	2023-08-22T00:00:00	2024-11-06T05:00:00	3	Temperatura mínima	12.7
173220	7	Sololá	701	Sololá	2	El tablón	8	Agosto	2023-08-22T00:00:00	2024-11-06T05:00:00	5	Humedad	83
173221	7	Sololá	701	Sololá	2	El tablón	8	Agosto	2023-08-22T00:00:00	2024-11-06T05:00:00	6	Velocidad del viento	9.7
173222	7	Sololá	701	Sololá	2	El tablón	8	Agosto	2023-08-22T00:00:00	2024-11-06T05:00:00	7	Dirección del viento	9.66
173223	7	Sololá	701	Sololá	2	El tablón	8	Agosto	2023-08-22T00:00:00	2024-11-06T05:00:00	1	Precipitación	0
173224	7	Sololá	701	Sololá	2	El tablón	8	Agosto	2023-08-22T00:00:00	2024-11-06T05:00:00	8	Radiación solar	0
173225	7	Sololá	701	Sololá	2	El tablón	8	Agosto	2023-08-22T00:00:00	2024-11-06T06:00:00	2	Temperatura media	13.4
173226	7	Sololá	701	Sololá	2	El tablón	8	Agosto	2023-08-22T00:00:00	2024-11-06T06:00:00	4	Temperatura máxima	13.4
173227	7	Sololá	701	Sololá	2	El tablón	8	Agosto	2023-08-22T00:00:00	2024-11-06T06:00:00	3	Temperatura mínima	12.9
173228	7	Sololá	701	Sololá	2	El tablón	8	Agosto	2023-08-22T00:00:00	2024-11-06T06:00:00	5	Humedad	80
173229	7	Sololá	701	Sololá	2	El tablón	8	Agosto	2023-08-22T00:00:00	2024-11-06T06:00:00	6	Velocidad del viento	8
173230	7	Sololá	701	Sololá	2	El tablón	8	Agosto	2023-08-22T00:00:00	2024-11-06T06:00:00	7	Dirección del viento	8.05
173231	7	Sololá	701	Sololá	2	El tablón	8	Agosto	2023-08-22T00:00:00	2024-11-06T06:00:00	1	Precipitación	0
173232	7	Sololá	701	Sololá	2	El tablón	8	Agosto	2023-08-22T00:00:00	2024-11-06T06:00:00	8	Radiación solar	0
173233	7	Sololá	701	Sololá	2	El tablón	8	Agosto	2023-08-22T00:00:00	2024-11-06T07:00:00	2	Temperatura media	14.1
173234	7	Sololá	701	Sololá	2	El tablón	8	Agosto	2023-08-22T00:00:00	2024-11-06T07:00:00	4	Temperatura máxima	14.1
173235	7	Sololá	701	Sololá	2	El tablón	8	Agosto	2023-08-22T00:00:00	2024-11-06T07:00:00	3	Temperatura mínima	13.4
173236	7	Sololá	701	Sololá	2	El tablón	8	Agosto	2023-08-22T00:00:00	2024-11-06T07:00:00	5	Humedad	80
173237	7	Sololá	701	Sololá	2	El tablón	8	Agosto	2023-08-22T00:00:00	2024-11-06T07:00:00	6	Velocidad del viento	4.8
173238	7	Sololá	701	Sololá	2	El tablón	8	Agosto	2023-08-22T00:00:00	2024-11-06T07:00:00	7	Dirección del viento	4.83
173239	7	Sololá	701	Sololá	2	El tablón	8	Agosto	2023-08-22T00:00:00	2024-11-06T07:00:00	1	Precipitación	0
173240	7	Sololá	701	Sololá	2	El tablón	8	Agosto	2023-08-22T00:00:00	2024-11-06T07:00:00	8	Radiación solar	71
173241	7	Sololá	701	Sololá	2	El tablón	8	Agosto	2023-08-22T00:00:00	2024-11-06T08:00:00	2	Temperatura media	16.1
173242	7	Sololá	701	Sololá	2	El tablón	8	Agosto	2023-08-22T00:00:00	2024-11-06T08:00:00	4	Temperatura máxima	16.1
173243	7	Sololá	701	Sololá	2	El tablón	8	Agosto	2023-08-22T00:00:00	2024-11-06T08:00:00	3	Temperatura mínima	14.1
173244	7	Sololá	701	Sololá	2	El tablón	8	Agosto	2023-08-22T00:00:00	2024-11-06T08:00:00	5	Humedad	78
173245	7	Sololá	701	Sololá	2	El tablón	8	Agosto	2023-08-22T00:00:00	2024-11-06T08:00:00	6	Velocidad del viento	9.7
173246	7	Sololá	701	Sololá	2	El tablón	8	Agosto	2023-08-22T00:00:00	2024-11-06T08:00:00	7	Dirección del viento	9.66
173247	7	Sololá	701	Sololá	2	El tablón	8	Agosto	2023-08-22T00:00:00	2024-11-06T08:00:00	1	Precipitación	0
173248	7	Sololá	701	Sololá	2	El tablón	8	Agosto	2023-08-22T00:00:00	2024-11-06T08:00:00	8	Radiación solar	294
173249	7	Sololá	701	Sololá	2	El tablón	8	Agosto	2023-08-22T00:00:00	2024-11-06T09:00:00	2	Temperatura media	17.1
173250	7	Sololá	701	Sololá	2	El tablón	8	Agosto	2023-08-22T00:00:00	2024-11-06T09:00:00	4	Temperatura máxima	17.1
173251	7	Sololá	701	Sololá	2	El tablón	8	Agosto	2023-08-22T00:00:00	2024-11-06T09:00:00	3	Temperatura mínima	15.1
173252	7	Sololá	701	Sololá	2	El tablón	8	Agosto	2023-08-22T00:00:00	2024-11-06T09:00:00	5	Humedad	78
173253	7	Sololá	701	Sololá	2	El tablón	8	Agosto	2023-08-22T00:00:00	2024-11-06T09:00:00	6	Velocidad del viento	12.9
173254	7	Sololá	701	Sololá	2	El tablón	8	Agosto	2023-08-22T00:00:00	2024-11-06T09:00:00	7	Dirección del viento	12.87
173255	7	Sololá	701	Sololá	2	El tablón	8	Agosto	2023-08-22T00:00:00	2024-11-06T09:00:00	1	Precipitación	0
173256	7	Sololá	701	Sololá	2	El tablón	8	Agosto	2023-08-22T00:00:00	2024-11-06T09:00:00	8	Radiación solar	513
173257	7	Sololá	701	Sololá	2	El tablón	8	Agosto	2023-08-22T00:00:00	2024-11-06T10:00:00	2	Temperatura media	18.5
173258	7	Sololá	701	Sololá	2	El tablón	8	Agosto	2023-08-22T00:00:00	2024-11-06T10:00:00	4	Temperatura máxima	18.5
173259	7	Sololá	701	Sololá	2	El tablón	8	Agosto	2023-08-22T00:00:00	2024-11-06T10:00:00	3	Temperatura mínima	17.1
173260	7	Sololá	701	Sololá	2	El tablón	8	Agosto	2023-08-22T00:00:00	2024-11-06T10:00:00	5	Humedad	70
173261	7	Sololá	701	Sololá	2	El tablón	8	Agosto	2023-08-22T00:00:00	2024-11-06T10:00:00	6	Velocidad del viento	11.3
173262	7	Sololá	701	Sololá	2	El tablón	8	Agosto	2023-08-22T00:00:00	2024-11-06T10:00:00	7	Dirección del viento	11.27
173263	7	Sololá	701	Sololá	2	El tablón	8	Agosto	2023-08-22T00:00:00	2024-11-06T10:00:00	1	Precipitación	0
173264	7	Sololá	701	Sololá	2	El tablón	8	Agosto	2023-08-22T00:00:00	2024-11-06T10:00:00	8	Radiación solar	733
173265	7	Sololá	701	Sololá	2	El tablón	8	Agosto	2023-08-22T00:00:00	2024-11-06T11:00:00	2	Temperatura media	19.7
173266	7	Sololá	701	Sololá	2	El tablón	8	Agosto	2023-08-22T00:00:00	2024-11-06T11:00:00	4	Temperatura máxima	19.8
173267	7	Sololá	701	Sololá	2	El tablón	8	Agosto	2023-08-22T00:00:00	2024-11-06T11:00:00	3	Temperatura mínima	18.6
173268	7	Sololá	701	Sololá	2	El tablón	8	Agosto	2023-08-22T00:00:00	2024-11-06T11:00:00	5	Humedad	62
173269	7	Sololá	701	Sololá	2	El tablón	8	Agosto	2023-08-22T00:00:00	2024-11-06T11:00:00	6	Velocidad del viento	11.3
173270	7	Sololá	701	Sololá	2	El tablón	8	Agosto	2023-08-22T00:00:00	2024-11-06T11:00:00	7	Dirección del viento	11.27
173271	7	Sololá	701	Sololá	2	El tablón	8	Agosto	2023-08-22T00:00:00	2024-11-06T11:00:00	1	Precipitación	0
173272	7	Sololá	701	Sololá	2	El tablón	8	Agosto	2023-08-22T00:00:00	2024-11-06T11:00:00	8	Radiación solar	852
173273	7	Sololá	701	Sololá	2	El tablón	8	Agosto	2023-08-22T00:00:00	2024-11-06T12:00:00	2	Temperatura media	20
173274	7	Sololá	701	Sololá	2	El tablón	8	Agosto	2023-08-22T00:00:00	2024-11-06T12:00:00	4	Temperatura máxima	20.2
173275	7	Sololá	701	Sololá	2	El tablón	8	Agosto	2023-08-22T00:00:00	2024-11-06T12:00:00	3	Temperatura mínima	19.6
173276	7	Sololá	701	Sololá	2	El tablón	8	Agosto	2023-08-22T00:00:00	2024-11-06T12:00:00	5	Humedad	62
173277	7	Sololá	701	Sololá	2	El tablón	8	Agosto	2023-08-22T00:00:00	2024-11-06T12:00:00	6	Velocidad del viento	11.3
173278	7	Sololá	701	Sololá	2	El tablón	8	Agosto	2023-08-22T00:00:00	2024-11-06T12:00:00	7	Dirección del viento	11.27
173279	7	Sololá	701	Sololá	2	El tablón	8	Agosto	2023-08-22T00:00:00	2024-11-06T12:00:00	1	Precipitación	0
173280	7	Sololá	701	Sololá	2	El tablón	8	Agosto	2023-08-22T00:00:00	2024-11-06T12:00:00	8	Radiación solar	921
173281	7	Sololá	701	Sololá	2	El tablón	8	Agosto	2023-08-22T00:00:00	2024-11-06T13:00:00	2	Temperatura media	20.3
173282	7	Sololá	701	Sololá	2	El tablón	8	Agosto	2023-08-22T00:00:00	2024-11-06T13:00:00	4	Temperatura máxima	20.9
173283	7	Sololá	701	Sololá	2	El tablón	8	Agosto	2023-08-22T00:00:00	2024-11-06T13:00:00	3	Temperatura mínima	20
173284	7	Sololá	701	Sololá	2	El tablón	8	Agosto	2023-08-22T00:00:00	2024-11-06T13:00:00	5	Humedad	63
173285	7	Sololá	701	Sololá	2	El tablón	8	Agosto	2023-08-22T00:00:00	2024-11-06T13:00:00	6	Velocidad del viento	11.3
173286	7	Sololá	701	Sololá	2	El tablón	8	Agosto	2023-08-22T00:00:00	2024-11-06T13:00:00	7	Dirección del viento	11.27
173287	7	Sololá	701	Sololá	2	El tablón	8	Agosto	2023-08-22T00:00:00	2024-11-06T13:00:00	1	Precipitación	0
173288	7	Sololá	701	Sololá	2	El tablón	8	Agosto	2023-08-22T00:00:00	2024-11-06T13:00:00	8	Radiación solar	1001
173289	7	Sololá	701	Sololá	2	El tablón	8	Agosto	2023-08-22T00:00:00	2024-11-06T14:00:00	2	Temperatura media	19.4
173290	7	Sololá	701	Sololá	2	El tablón	8	Agosto	2023-08-22T00:00:00	2024-11-06T14:00:00	4	Temperatura máxima	20.4
173291	7	Sololá	701	Sololá	2	El tablón	8	Agosto	2023-08-22T00:00:00	2024-11-06T14:00:00	3	Temperatura mínima	19.3
173292	7	Sololá	701	Sololá	2	El tablón	8	Agosto	2023-08-22T00:00:00	2024-11-06T14:00:00	5	Humedad	63
173293	7	Sololá	701	Sololá	2	El tablón	8	Agosto	2023-08-22T00:00:00	2024-11-06T14:00:00	6	Velocidad del viento	9.7
173294	7	Sololá	701	Sololá	2	El tablón	8	Agosto	2023-08-22T00:00:00	2024-11-06T14:00:00	7	Dirección del viento	9.66
173295	7	Sololá	701	Sololá	2	El tablón	8	Agosto	2023-08-22T00:00:00	2024-11-06T14:00:00	1	Precipitación	0
173296	7	Sololá	701	Sololá	2	El tablón	8	Agosto	2023-08-22T00:00:00	2024-11-06T14:00:00	8	Radiación solar	716
173297	7	Sololá	701	Sololá	2	El tablón	8	Agosto	2023-08-22T00:00:00	2024-11-06T15:00:00	2	Temperatura media	19.3
173298	7	Sololá	701	Sololá	2	El tablón	8	Agosto	2023-08-22T00:00:00	2024-11-06T15:00:00	4	Temperatura máxima	19.6
173299	7	Sololá	701	Sololá	2	El tablón	8	Agosto	2023-08-22T00:00:00	2024-11-06T15:00:00	3	Temperatura mínima	18.9
173300	7	Sololá	701	Sololá	2	El tablón	8	Agosto	2023-08-22T00:00:00	2024-11-06T15:00:00	5	Humedad	66
173301	7	Sololá	701	Sololá	2	El tablón	8	Agosto	2023-08-22T00:00:00	2024-11-06T15:00:00	6	Velocidad del viento	8
173302	7	Sololá	701	Sololá	2	El tablón	8	Agosto	2023-08-22T00:00:00	2024-11-06T15:00:00	7	Dirección del viento	8.05
173303	7	Sololá	701	Sololá	2	El tablón	8	Agosto	2023-08-22T00:00:00	2024-11-06T15:00:00	1	Precipitación	0
173304	7	Sololá	701	Sololá	2	El tablón	8	Agosto	2023-08-22T00:00:00	2024-11-06T15:00:00	8	Radiación solar	467
173305	7	Sololá	701	Sololá	2	El tablón	8	Agosto	2023-08-22T00:00:00	2024-11-06T16:00:00	2	Temperatura media	18.1
173306	7	Sololá	701	Sololá	2	El tablón	8	Agosto	2023-08-22T00:00:00	2024-11-06T16:00:00	4	Temperatura máxima	19.4
173307	7	Sololá	701	Sololá	2	El tablón	8	Agosto	2023-08-22T00:00:00	2024-11-06T16:00:00	3	Temperatura mínima	17.9
173308	7	Sololá	701	Sololá	2	El tablón	8	Agosto	2023-08-22T00:00:00	2024-11-06T16:00:00	5	Humedad	72
173309	7	Sololá	701	Sololá	2	El tablón	8	Agosto	2023-08-22T00:00:00	2024-11-06T16:00:00	6	Velocidad del viento	6.4
173310	7	Sololá	701	Sololá	2	El tablón	8	Agosto	2023-08-22T00:00:00	2024-11-06T16:00:00	7	Dirección del viento	6.44
173311	7	Sololá	701	Sololá	2	El tablón	8	Agosto	2023-08-22T00:00:00	2024-11-06T16:00:00	1	Precipitación	0
173312	7	Sololá	701	Sololá	2	El tablón	8	Agosto	2023-08-22T00:00:00	2024-11-06T16:00:00	8	Radiación solar	213
173313	7	Sololá	701	Sololá	2	El tablón	8	Agosto	2023-08-22T00:00:00	2024-11-06T17:00:00	2	Temperatura media	17.1
173314	7	Sololá	701	Sololá	2	El tablón	8	Agosto	2023-08-22T00:00:00	2024-11-06T17:00:00	4	Temperatura máxima	19
173315	7	Sololá	701	Sololá	2	El tablón	8	Agosto	2023-08-22T00:00:00	2024-11-06T17:00:00	3	Temperatura mínima	17.1
173316	7	Sololá	701	Sololá	2	El tablón	8	Agosto	2023-08-22T00:00:00	2024-11-06T17:00:00	5	Humedad	86
173317	7	Sololá	701	Sololá	2	El tablón	8	Agosto	2023-08-22T00:00:00	2024-11-06T17:00:00	6	Velocidad del viento	4.8
173318	7	Sololá	701	Sololá	2	El tablón	8	Agosto	2023-08-22T00:00:00	2024-11-06T17:00:00	7	Dirección del viento	4.83
173319	7	Sololá	701	Sololá	2	El tablón	8	Agosto	2023-08-22T00:00:00	2024-11-06T17:00:00	1	Precipitación	0
173320	7	Sololá	701	Sololá	2	El tablón	8	Agosto	2023-08-22T00:00:00	2024-11-06T17:00:00	8	Radiación solar	198
173321	7	Sololá	701	Sololá	2	El tablón	8	Agosto	2023-08-22T00:00:00	2024-11-06T18:00:00	2	Temperatura media	16.4
173322	7	Sololá	701	Sololá	2	El tablón	8	Agosto	2023-08-22T00:00:00	2024-11-06T18:00:00	4	Temperatura máxima	17.1
173323	7	Sololá	701	Sololá	2	El tablón	8	Agosto	2023-08-22T00:00:00	2024-11-06T18:00:00	3	Temperatura mínima	16.3
173324	7	Sololá	701	Sololá	2	El tablón	8	Agosto	2023-08-22T00:00:00	2024-11-06T18:00:00	5	Humedad	86
173325	7	Sololá	701	Sololá	2	El tablón	8	Agosto	2023-08-22T00:00:00	2024-11-06T18:00:00	6	Velocidad del viento	3.2
173326	7	Sololá	701	Sololá	2	El tablón	8	Agosto	2023-08-22T00:00:00	2024-11-06T18:00:00	7	Dirección del viento	3.22
173327	7	Sololá	701	Sololá	2	El tablón	8	Agosto	2023-08-22T00:00:00	2024-11-06T18:00:00	1	Precipitación	0
173328	7	Sololá	701	Sololá	2	El tablón	8	Agosto	2023-08-22T00:00:00	2024-11-06T18:00:00	8	Radiación solar	68
173329	7	Sololá	701	Sololá	2	El tablón	8	Agosto	2023-08-22T00:00:00	2024-11-06T19:00:00	2	Temperatura media	15.4
173330	7	Sololá	701	Sololá	2	El tablón	8	Agosto	2023-08-22T00:00:00	2024-11-06T19:00:00	4	Temperatura máxima	16.4
173331	7	Sololá	701	Sololá	2	El tablón	8	Agosto	2023-08-22T00:00:00	2024-11-06T19:00:00	3	Temperatura mínima	15.3
173332	7	Sololá	701	Sololá	2	El tablón	8	Agosto	2023-08-22T00:00:00	2024-11-06T19:00:00	5	Humedad	85
173333	7	Sololá	701	Sololá	2	El tablón	8	Agosto	2023-08-22T00:00:00	2024-11-06T19:00:00	6	Velocidad del viento	4.8
173334	7	Sololá	701	Sololá	2	El tablón	8	Agosto	2023-08-22T00:00:00	2024-11-06T19:00:00	7	Dirección del viento	4.83
173335	7	Sololá	701	Sololá	2	El tablón	8	Agosto	2023-08-22T00:00:00	2024-11-06T19:00:00	1	Precipitación	0
173336	7	Sololá	701	Sololá	2	El tablón	8	Agosto	2023-08-22T00:00:00	2024-11-06T19:00:00	8	Radiación solar	0
173337	7	Sololá	701	Sololá	2	El tablón	8	Agosto	2023-08-22T00:00:00	2024-11-06T20:00:00	2	Temperatura media	14.7
173338	7	Sololá	701	Sololá	2	El tablón	8	Agosto	2023-08-22T00:00:00	2024-11-06T20:00:00	4	Temperatura máxima	15.4
173339	7	Sololá	701	Sololá	2	El tablón	8	Agosto	2023-08-22T00:00:00	2024-11-06T20:00:00	3	Temperatura mínima	14.7
173340	7	Sololá	701	Sololá	2	El tablón	8	Agosto	2023-08-22T00:00:00	2024-11-06T20:00:00	5	Humedad	87
173341	7	Sololá	701	Sololá	2	El tablón	8	Agosto	2023-08-22T00:00:00	2024-11-06T20:00:00	6	Velocidad del viento	6.4
173342	7	Sololá	701	Sololá	2	El tablón	8	Agosto	2023-08-22T00:00:00	2024-11-06T20:00:00	7	Dirección del viento	6.44
173343	7	Sololá	701	Sololá	2	El tablón	8	Agosto	2023-08-22T00:00:00	2024-11-06T20:00:00	1	Precipitación	0
173344	7	Sololá	701	Sololá	2	El tablón	8	Agosto	2023-08-22T00:00:00	2024-11-06T20:00:00	8	Radiación solar	0
173345	7	Sololá	701	Sololá	2	El tablón	8	Agosto	2023-08-22T00:00:00	2024-11-06T21:00:00	2	Temperatura media	14
173346	7	Sololá	701	Sololá	2	El tablón	8	Agosto	2023-08-22T00:00:00	2024-11-06T21:00:00	4	Temperatura máxima	14.7
173347	7	Sololá	701	Sololá	2	El tablón	8	Agosto	2023-08-22T00:00:00	2024-11-06T21:00:00	3	Temperatura mínima	14
173348	7	Sololá	701	Sololá	2	El tablón	8	Agosto	2023-08-22T00:00:00	2024-11-06T21:00:00	5	Humedad	85
173349	7	Sololá	701	Sololá	2	El tablón	8	Agosto	2023-08-22T00:00:00	2024-11-06T21:00:00	6	Velocidad del viento	9.7
173350	7	Sololá	701	Sololá	2	El tablón	8	Agosto	2023-08-22T00:00:00	2024-11-06T21:00:00	7	Dirección del viento	9.66
173351	7	Sololá	701	Sololá	2	El tablón	8	Agosto	2023-08-22T00:00:00	2024-11-06T21:00:00	1	Precipitación	0
173352	7	Sololá	701	Sololá	2	El tablón	8	Agosto	2023-08-22T00:00:00	2024-11-06T21:00:00	8	Radiación solar	0
173353	7	Sololá	701	Sololá	2	El tablón	8	Agosto	2023-08-22T00:00:00	2024-11-06T22:00:00	2	Temperatura media	13.5
173354	7	Sololá	701	Sololá	2	El tablón	8	Agosto	2023-08-22T00:00:00	2024-11-06T22:00:00	4	Temperatura máxima	14
173355	7	Sololá	701	Sololá	2	El tablón	8	Agosto	2023-08-22T00:00:00	2024-11-06T22:00:00	3	Temperatura mínima	13.5
173356	7	Sololá	701	Sololá	2	El tablón	8	Agosto	2023-08-22T00:00:00	2024-11-06T22:00:00	5	Humedad	86
173357	7	Sololá	701	Sololá	2	El tablón	8	Agosto	2023-08-22T00:00:00	2024-11-06T22:00:00	6	Velocidad del viento	8
173358	7	Sololá	701	Sololá	2	El tablón	8	Agosto	2023-08-22T00:00:00	2024-11-06T22:00:00	7	Dirección del viento	8.05
173359	7	Sololá	701	Sololá	2	El tablón	8	Agosto	2023-08-22T00:00:00	2024-11-06T22:00:00	1	Precipitación	0
173360	7	Sololá	701	Sololá	2	El tablón	8	Agosto	2023-08-22T00:00:00	2024-11-06T22:00:00	8	Radiación solar	0
173361	7	Sololá	701	Sololá	2	El tablón	8	Agosto	2023-08-22T00:00:00	2024-11-06T23:00:00	2	Temperatura media	13.1
173362	7	Sololá	701	Sololá	2	El tablón	8	Agosto	2023-08-22T00:00:00	2024-11-06T23:00:00	4	Temperatura máxima	13.6
173363	7	Sololá	701	Sololá	2	El tablón	8	Agosto	2023-08-22T00:00:00	2024-11-06T23:00:00	3	Temperatura mínima	13.1
173364	7	Sololá	701	Sololá	2	El tablón	8	Agosto	2023-08-22T00:00:00	2024-11-06T23:00:00	5	Humedad	86
173365	7	Sololá	701	Sololá	2	El tablón	8	Agosto	2023-08-22T00:00:00	2024-11-06T23:00:00	6	Velocidad del viento	9.7
173366	7	Sololá	701	Sololá	2	El tablón	8	Agosto	2023-08-22T00:00:00	2024-11-06T23:00:00	7	Dirección del viento	9.66
173367	7	Sololá	701	Sololá	2	El tablón	8	Agosto	2023-08-22T00:00:00	2024-11-06T23:00:00	1	Precipitación	0
173368	7	Sololá	701	Sololá	2	El tablón	8	Agosto	2023-08-22T00:00:00	2024-11-06T23:00:00	8	Radiación solar	0
173369	7	Sololá	701	Sololá	2	El tablón	8	Agosto	2023-08-23T00:00:00	2024-11-06T00:00:00	2	Temperatura media	12.9
173370	7	Sololá	701	Sololá	2	El tablón	8	Agosto	2023-08-23T00:00:00	2024-11-06T00:00:00	4	Temperatura máxima	13.2
173371	7	Sololá	701	Sololá	2	El tablón	8	Agosto	2023-08-23T00:00:00	2024-11-06T00:00:00	3	Temperatura mínima	12.9
173372	7	Sololá	701	Sololá	2	El tablón	8	Agosto	2023-08-23T00:00:00	2024-11-06T00:00:00	5	Humedad	86
173373	7	Sololá	701	Sololá	2	El tablón	8	Agosto	2023-08-23T00:00:00	2024-11-06T00:00:00	6	Velocidad del viento	8
173374	7	Sololá	701	Sololá	2	El tablón	8	Agosto	2023-08-23T00:00:00	2024-11-06T00:00:00	7	Dirección del viento	8.05
173375	7	Sololá	701	Sololá	2	El tablón	8	Agosto	2023-08-23T00:00:00	2024-11-06T00:00:00	1	Precipitación	0
173376	7	Sololá	701	Sololá	2	El tablón	8	Agosto	2023-08-23T00:00:00	2024-11-06T00:00:00	8	Radiación solar	0
173377	7	Sololá	701	Sololá	2	El tablón	8	Agosto	2023-08-23T00:00:00	2024-11-06T01:00:00	2	Temperatura media	12.6
173378	7	Sololá	701	Sololá	2	El tablón	8	Agosto	2023-08-23T00:00:00	2024-11-06T01:00:00	4	Temperatura máxima	12.9
173379	7	Sololá	701	Sololá	2	El tablón	8	Agosto	2023-08-23T00:00:00	2024-11-06T01:00:00	3	Temperatura mínima	12.6
173380	7	Sololá	701	Sololá	2	El tablón	8	Agosto	2023-08-23T00:00:00	2024-11-06T01:00:00	5	Humedad	87
173381	7	Sololá	701	Sololá	2	El tablón	8	Agosto	2023-08-23T00:00:00	2024-11-06T01:00:00	6	Velocidad del viento	12.9
173382	7	Sololá	701	Sololá	2	El tablón	8	Agosto	2023-08-23T00:00:00	2024-11-06T01:00:00	7	Dirección del viento	12.87
173383	7	Sololá	701	Sololá	2	El tablón	8	Agosto	2023-08-23T00:00:00	2024-11-06T01:00:00	1	Precipitación	0
173384	7	Sololá	701	Sololá	2	El tablón	8	Agosto	2023-08-23T00:00:00	2024-11-06T01:00:00	8	Radiación solar	0
173385	7	Sololá	701	Sololá	2	El tablón	8	Agosto	2023-08-23T00:00:00	2024-11-06T02:00:00	2	Temperatura media	12.3
173386	7	Sololá	701	Sololá	2	El tablón	8	Agosto	2023-08-23T00:00:00	2024-11-06T02:00:00	4	Temperatura máxima	12.7
173387	7	Sololá	701	Sololá	2	El tablón	8	Agosto	2023-08-23T00:00:00	2024-11-06T02:00:00	3	Temperatura mínima	12.3
173388	7	Sololá	701	Sololá	2	El tablón	8	Agosto	2023-08-23T00:00:00	2024-11-06T02:00:00	5	Humedad	84
173389	7	Sololá	701	Sololá	2	El tablón	8	Agosto	2023-08-23T00:00:00	2024-11-06T02:00:00	6	Velocidad del viento	16.1
173390	7	Sololá	701	Sololá	2	El tablón	8	Agosto	2023-08-23T00:00:00	2024-11-06T02:00:00	7	Dirección del viento	16.09
173391	7	Sololá	701	Sololá	2	El tablón	8	Agosto	2023-08-23T00:00:00	2024-11-06T02:00:00	1	Precipitación	0
173392	7	Sololá	701	Sololá	2	El tablón	8	Agosto	2023-08-23T00:00:00	2024-11-06T02:00:00	8	Radiación solar	0
173393	7	Sololá	701	Sololá	2	El tablón	8	Agosto	2023-08-23T00:00:00	2024-11-06T03:00:00	2	Temperatura media	11.9
173394	7	Sololá	701	Sololá	2	El tablón	8	Agosto	2023-08-23T00:00:00	2024-11-06T03:00:00	4	Temperatura máxima	12.3
173395	7	Sololá	701	Sololá	2	El tablón	8	Agosto	2023-08-23T00:00:00	2024-11-06T03:00:00	3	Temperatura mínima	11.9
173396	7	Sololá	701	Sololá	2	El tablón	8	Agosto	2023-08-23T00:00:00	2024-11-06T03:00:00	5	Humedad	85
173397	7	Sololá	701	Sololá	2	El tablón	8	Agosto	2023-08-23T00:00:00	2024-11-06T03:00:00	6	Velocidad del viento	12.9
173398	7	Sololá	701	Sololá	2	El tablón	8	Agosto	2023-08-23T00:00:00	2024-11-06T03:00:00	7	Dirección del viento	12.87
173399	7	Sololá	701	Sololá	2	El tablón	8	Agosto	2023-08-23T00:00:00	2024-11-06T03:00:00	1	Precipitación	0
173400	7	Sololá	701	Sololá	2	El tablón	8	Agosto	2023-08-23T00:00:00	2024-11-06T03:00:00	8	Radiación solar	0
173401	7	Sololá	701	Sololá	2	El tablón	8	Agosto	2023-08-23T00:00:00	2024-11-06T04:00:00	2	Temperatura media	12.2
173402	7	Sololá	701	Sololá	2	El tablón	8	Agosto	2023-08-23T00:00:00	2024-11-06T04:00:00	4	Temperatura máxima	12.2
173403	7	Sololá	701	Sololá	2	El tablón	8	Agosto	2023-08-23T00:00:00	2024-11-06T04:00:00	3	Temperatura mínima	11.9
173404	7	Sololá	701	Sololá	2	El tablón	8	Agosto	2023-08-23T00:00:00	2024-11-06T04:00:00	5	Humedad	85
173405	7	Sololá	701	Sololá	2	El tablón	8	Agosto	2023-08-23T00:00:00	2024-11-06T04:00:00	6	Velocidad del viento	14.5
173406	7	Sololá	701	Sololá	2	El tablón	8	Agosto	2023-08-23T00:00:00	2024-11-06T04:00:00	7	Dirección del viento	14.48
173407	7	Sololá	701	Sololá	2	El tablón	8	Agosto	2023-08-23T00:00:00	2024-11-06T04:00:00	1	Precipitación	0
173408	7	Sololá	701	Sololá	2	El tablón	8	Agosto	2023-08-23T00:00:00	2024-11-06T04:00:00	8	Radiación solar	0
173409	7	Sololá	701	Sololá	2	El tablón	8	Agosto	2023-08-23T00:00:00	2024-11-06T05:00:00	2	Temperatura media	12.7
173410	7	Sololá	701	Sololá	2	El tablón	8	Agosto	2023-08-23T00:00:00	2024-11-06T05:00:00	4	Temperatura máxima	12.7
173411	7	Sololá	701	Sololá	2	El tablón	8	Agosto	2023-08-23T00:00:00	2024-11-06T05:00:00	3	Temperatura mínima	12.2
173412	7	Sololá	701	Sololá	2	El tablón	8	Agosto	2023-08-23T00:00:00	2024-11-06T05:00:00	5	Humedad	81
173413	7	Sololá	701	Sololá	2	El tablón	8	Agosto	2023-08-23T00:00:00	2024-11-06T05:00:00	6	Velocidad del viento	11.3
173414	7	Sololá	701	Sololá	2	El tablón	8	Agosto	2023-08-23T00:00:00	2024-11-06T05:00:00	7	Dirección del viento	11.27
173415	7	Sololá	701	Sololá	2	El tablón	8	Agosto	2023-08-23T00:00:00	2024-11-06T05:00:00	1	Precipitación	0
173416	7	Sololá	701	Sololá	2	El tablón	8	Agosto	2023-08-23T00:00:00	2024-11-06T05:00:00	8	Radiación solar	0
173417	7	Sololá	701	Sololá	2	El tablón	8	Agosto	2023-08-23T00:00:00	2024-11-06T06:00:00	2	Temperatura media	12.9
173418	7	Sololá	701	Sololá	2	El tablón	8	Agosto	2023-08-23T00:00:00	2024-11-06T06:00:00	4	Temperatura máxima	12.9
173419	7	Sololá	701	Sololá	2	El tablón	8	Agosto	2023-08-23T00:00:00	2024-11-06T06:00:00	3	Temperatura mínima	12.7
173420	7	Sololá	701	Sololá	2	El tablón	8	Agosto	2023-08-23T00:00:00	2024-11-06T06:00:00	5	Humedad	80
173421	7	Sololá	701	Sololá	2	El tablón	8	Agosto	2023-08-23T00:00:00	2024-11-06T06:00:00	6	Velocidad del viento	6.4
173422	7	Sololá	701	Sololá	2	El tablón	8	Agosto	2023-08-23T00:00:00	2024-11-06T06:00:00	7	Dirección del viento	6.44
173423	7	Sololá	701	Sololá	2	El tablón	8	Agosto	2023-08-23T00:00:00	2024-11-06T06:00:00	1	Precipitación	0
173424	7	Sololá	701	Sololá	2	El tablón	8	Agosto	2023-08-23T00:00:00	2024-11-06T06:00:00	8	Radiación solar	0
173425	7	Sololá	701	Sololá	2	El tablón	8	Agosto	2023-08-23T00:00:00	2024-11-06T07:00:00	2	Temperatura media	13.5
173426	7	Sololá	701	Sololá	2	El tablón	8	Agosto	2023-08-23T00:00:00	2024-11-06T07:00:00	4	Temperatura máxima	13.5
173427	7	Sololá	701	Sololá	2	El tablón	8	Agosto	2023-08-23T00:00:00	2024-11-06T07:00:00	3	Temperatura mínima	12.9
173428	7	Sololá	701	Sololá	2	El tablón	8	Agosto	2023-08-23T00:00:00	2024-11-06T07:00:00	5	Humedad	78
173429	7	Sololá	701	Sololá	2	El tablón	8	Agosto	2023-08-23T00:00:00	2024-11-06T07:00:00	6	Velocidad del viento	6.4
173430	7	Sololá	701	Sololá	2	El tablón	8	Agosto	2023-08-23T00:00:00	2024-11-06T07:00:00	7	Dirección del viento	6.44
173431	7	Sololá	701	Sololá	2	El tablón	8	Agosto	2023-08-23T00:00:00	2024-11-06T07:00:00	1	Precipitación	0
173432	7	Sololá	701	Sololá	2	El tablón	8	Agosto	2023-08-23T00:00:00	2024-11-06T07:00:00	8	Radiación solar	38
173433	7	Sololá	701	Sololá	2	El tablón	8	Agosto	2023-08-23T00:00:00	2024-11-06T08:00:00	2	Temperatura media	14.7
173434	7	Sololá	701	Sololá	2	El tablón	8	Agosto	2023-08-23T00:00:00	2024-11-06T08:00:00	4	Temperatura máxima	14.7
173435	7	Sololá	701	Sololá	2	El tablón	8	Agosto	2023-08-23T00:00:00	2024-11-06T08:00:00	3	Temperatura mínima	13.5
173436	7	Sololá	701	Sololá	2	El tablón	8	Agosto	2023-08-23T00:00:00	2024-11-06T08:00:00	5	Humedad	80
173437	7	Sololá	701	Sololá	2	El tablón	8	Agosto	2023-08-23T00:00:00	2024-11-06T08:00:00	6	Velocidad del viento	8
173438	7	Sololá	701	Sololá	2	El tablón	8	Agosto	2023-08-23T00:00:00	2024-11-06T08:00:00	7	Dirección del viento	8.05
173439	7	Sololá	701	Sololá	2	El tablón	8	Agosto	2023-08-23T00:00:00	2024-11-06T08:00:00	1	Precipitación	0
173440	7	Sololá	701	Sololá	2	El tablón	8	Agosto	2023-08-23T00:00:00	2024-11-06T08:00:00	8	Radiación solar	178
173441	7	Sololá	701	Sololá	2	El tablón	8	Agosto	2023-08-23T00:00:00	2024-11-06T09:00:00	2	Temperatura media	16.2
173442	7	Sololá	701	Sololá	2	El tablón	8	Agosto	2023-08-23T00:00:00	2024-11-06T09:00:00	4	Temperatura máxima	16.7
173443	7	Sololá	701	Sololá	2	El tablón	8	Agosto	2023-08-23T00:00:00	2024-11-06T09:00:00	3	Temperatura mínima	14.7
173444	7	Sololá	701	Sololá	2	El tablón	8	Agosto	2023-08-23T00:00:00	2024-11-06T09:00:00	5	Humedad	71
173445	7	Sololá	701	Sololá	2	El tablón	8	Agosto	2023-08-23T00:00:00	2024-11-06T09:00:00	6	Velocidad del viento	4.8
173446	7	Sololá	701	Sololá	2	El tablón	8	Agosto	2023-08-23T00:00:00	2024-11-06T09:00:00	7	Dirección del viento	4.83
173447	7	Sololá	701	Sololá	2	El tablón	8	Agosto	2023-08-23T00:00:00	2024-11-06T09:00:00	1	Precipitación	0
173448	7	Sololá	701	Sololá	2	El tablón	8	Agosto	2023-08-23T00:00:00	2024-11-06T09:00:00	8	Radiación solar	346
173449	7	Sololá	701	Sololá	2	El tablón	8	Agosto	2023-08-23T00:00:00	2024-11-06T10:00:00	2	Temperatura media	17.3
173450	7	Sololá	701	Sololá	2	El tablón	8	Agosto	2023-08-23T00:00:00	2024-11-06T10:00:00	4	Temperatura máxima	17.6
173451	7	Sololá	701	Sololá	2	El tablón	8	Agosto	2023-08-23T00:00:00	2024-11-06T10:00:00	3	Temperatura mínima	16.2
173452	7	Sololá	701	Sololá	2	El tablón	8	Agosto	2023-08-23T00:00:00	2024-11-06T10:00:00	5	Humedad	67
173453	7	Sololá	701	Sololá	2	El tablón	8	Agosto	2023-08-23T00:00:00	2024-11-06T10:00:00	6	Velocidad del viento	6.4
173454	7	Sololá	701	Sololá	2	El tablón	8	Agosto	2023-08-23T00:00:00	2024-11-06T10:00:00	7	Dirección del viento	6.44
173455	7	Sololá	701	Sololá	2	El tablón	8	Agosto	2023-08-23T00:00:00	2024-11-06T10:00:00	1	Precipitación	0
173456	7	Sololá	701	Sololá	2	El tablón	8	Agosto	2023-08-23T00:00:00	2024-11-06T10:00:00	8	Radiación solar	396
173457	7	Sololá	701	Sololá	2	El tablón	8	Agosto	2023-08-23T00:00:00	2024-11-06T11:00:00	2	Temperatura media	17.2
173458	7	Sololá	701	Sololá	2	El tablón	8	Agosto	2023-08-23T00:00:00	2024-11-06T11:00:00	4	Temperatura máxima	17.6
173459	7	Sololá	701	Sololá	2	El tablón	8	Agosto	2023-08-23T00:00:00	2024-11-06T11:00:00	3	Temperatura mínima	16.8
173460	7	Sololá	701	Sololá	2	El tablón	8	Agosto	2023-08-23T00:00:00	2024-11-06T11:00:00	5	Humedad	63
173461	7	Sololá	701	Sololá	2	El tablón	8	Agosto	2023-08-23T00:00:00	2024-11-06T11:00:00	6	Velocidad del viento	8
173462	7	Sololá	701	Sololá	2	El tablón	8	Agosto	2023-08-23T00:00:00	2024-11-06T11:00:00	7	Dirección del viento	8.05
173463	7	Sololá	701	Sololá	2	El tablón	8	Agosto	2023-08-23T00:00:00	2024-11-06T11:00:00	1	Precipitación	0
173464	7	Sololá	701	Sololá	2	El tablón	8	Agosto	2023-08-23T00:00:00	2024-11-06T11:00:00	8	Radiación solar	431
173465	7	Sololá	701	Sololá	2	El tablón	8	Agosto	2023-08-23T00:00:00	2024-11-06T12:00:00	2	Temperatura media	18.1
173466	7	Sololá	701	Sololá	2	El tablón	8	Agosto	2023-08-23T00:00:00	2024-11-06T12:00:00	4	Temperatura máxima	18.3
173467	7	Sololá	701	Sololá	2	El tablón	8	Agosto	2023-08-23T00:00:00	2024-11-06T12:00:00	3	Temperatura mínima	17.2
173468	7	Sololá	701	Sololá	2	El tablón	8	Agosto	2023-08-23T00:00:00	2024-11-06T12:00:00	5	Humedad	64
173469	7	Sololá	701	Sololá	2	El tablón	8	Agosto	2023-08-23T00:00:00	2024-11-06T12:00:00	6	Velocidad del viento	8
173470	7	Sololá	701	Sololá	2	El tablón	8	Agosto	2023-08-23T00:00:00	2024-11-06T12:00:00	7	Dirección del viento	8.05
173471	7	Sololá	701	Sololá	2	El tablón	8	Agosto	2023-08-23T00:00:00	2024-11-06T12:00:00	1	Precipitación	0
173472	7	Sololá	701	Sololá	2	El tablón	8	Agosto	2023-08-23T00:00:00	2024-11-06T12:00:00	8	Radiación solar	547
173473	7	Sololá	701	Sololá	2	El tablón	8	Agosto	2023-08-23T00:00:00	2024-11-06T13:00:00	2	Temperatura media	18.3
173474	7	Sololá	701	Sololá	2	El tablón	8	Agosto	2023-08-23T00:00:00	2024-11-06T13:00:00	4	Temperatura máxima	18.3
173475	7	Sololá	701	Sololá	2	El tablón	8	Agosto	2023-08-23T00:00:00	2024-11-06T13:00:00	3	Temperatura mínima	17.9
173476	7	Sololá	701	Sololá	2	El tablón	8	Agosto	2023-08-23T00:00:00	2024-11-06T13:00:00	5	Humedad	68
173477	7	Sololá	701	Sololá	2	El tablón	8	Agosto	2023-08-23T00:00:00	2024-11-06T13:00:00	6	Velocidad del viento	9.7
173478	7	Sololá	701	Sololá	2	El tablón	8	Agosto	2023-08-23T00:00:00	2024-11-06T13:00:00	7	Dirección del viento	9.66
173479	7	Sololá	701	Sololá	2	El tablón	8	Agosto	2023-08-23T00:00:00	2024-11-06T13:00:00	1	Precipitación	0
173480	7	Sololá	701	Sololá	2	El tablón	8	Agosto	2023-08-23T00:00:00	2024-11-06T13:00:00	8	Radiación solar	605
173481	7	Sololá	701	Sololá	2	El tablón	8	Agosto	2023-08-23T00:00:00	2024-11-06T14:00:00	2	Temperatura media	18.1
173482	7	Sololá	701	Sololá	2	El tablón	8	Agosto	2023-08-23T00:00:00	2024-11-06T14:00:00	4	Temperatura máxima	18.9
173483	7	Sololá	701	Sololá	2	El tablón	8	Agosto	2023-08-23T00:00:00	2024-11-06T14:00:00	3	Temperatura mínima	18.1
173484	7	Sololá	701	Sololá	2	El tablón	8	Agosto	2023-08-23T00:00:00	2024-11-06T14:00:00	5	Humedad	68
173485	7	Sololá	701	Sololá	2	El tablón	8	Agosto	2023-08-23T00:00:00	2024-11-06T14:00:00	6	Velocidad del viento	8
173486	7	Sololá	701	Sololá	2	El tablón	8	Agosto	2023-08-23T00:00:00	2024-11-06T14:00:00	7	Dirección del viento	8.05
173487	7	Sololá	701	Sololá	2	El tablón	8	Agosto	2023-08-23T00:00:00	2024-11-06T14:00:00	1	Precipitación	0
173488	7	Sololá	701	Sololá	2	El tablón	8	Agosto	2023-08-23T00:00:00	2024-11-06T14:00:00	8	Radiación solar	613
173489	7	Sololá	701	Sololá	2	El tablón	8	Agosto	2023-08-23T00:00:00	2024-11-06T15:00:00	2	Temperatura media	17.8
173490	7	Sololá	701	Sololá	2	El tablón	8	Agosto	2023-08-23T00:00:00	2024-11-06T15:00:00	4	Temperatura máxima	18.3
173491	7	Sololá	701	Sololá	2	El tablón	8	Agosto	2023-08-23T00:00:00	2024-11-06T15:00:00	3	Temperatura mínima	17.6
173492	7	Sololá	701	Sololá	2	El tablón	8	Agosto	2023-08-23T00:00:00	2024-11-06T15:00:00	5	Humedad	69
173493	7	Sololá	701	Sololá	2	El tablón	8	Agosto	2023-08-23T00:00:00	2024-11-06T15:00:00	6	Velocidad del viento	8
173494	7	Sololá	701	Sololá	2	El tablón	8	Agosto	2023-08-23T00:00:00	2024-11-06T15:00:00	7	Dirección del viento	8.05
173495	7	Sololá	701	Sololá	2	El tablón	8	Agosto	2023-08-23T00:00:00	2024-11-06T15:00:00	1	Precipitación	0
173496	7	Sololá	701	Sololá	2	El tablón	8	Agosto	2023-08-23T00:00:00	2024-11-06T15:00:00	8	Radiación solar	430
173497	7	Sololá	701	Sololá	2	El tablón	8	Agosto	2023-08-23T00:00:00	2024-11-06T16:00:00	2	Temperatura media	17.5
173498	7	Sololá	701	Sololá	2	El tablón	8	Agosto	2023-08-23T00:00:00	2024-11-06T16:00:00	4	Temperatura máxima	17.8
173499	7	Sololá	701	Sololá	2	El tablón	8	Agosto	2023-08-23T00:00:00	2024-11-06T16:00:00	3	Temperatura mínima	17.2
173500	7	Sololá	701	Sololá	2	El tablón	8	Agosto	2023-08-23T00:00:00	2024-11-06T16:00:00	5	Humedad	69
173501	7	Sololá	701	Sololá	2	El tablón	8	Agosto	2023-08-23T00:00:00	2024-11-06T16:00:00	6	Velocidad del viento	8
173502	7	Sololá	701	Sololá	2	El tablón	8	Agosto	2023-08-23T00:00:00	2024-11-06T16:00:00	7	Dirección del viento	8.05
173503	7	Sololá	701	Sololá	2	El tablón	8	Agosto	2023-08-23T00:00:00	2024-11-06T16:00:00	1	Precipitación	0
173504	7	Sololá	701	Sololá	2	El tablón	8	Agosto	2023-08-23T00:00:00	2024-11-06T16:00:00	8	Radiación solar	329
173505	7	Sololá	701	Sololá	2	El tablón	8	Agosto	2023-08-23T00:00:00	2024-11-06T17:00:00	2	Temperatura media	17.2
173506	7	Sololá	701	Sololá	2	El tablón	8	Agosto	2023-08-23T00:00:00	2024-11-06T17:00:00	4	Temperatura máxima	17.6
173507	7	Sololá	701	Sololá	2	El tablón	8	Agosto	2023-08-23T00:00:00	2024-11-06T17:00:00	3	Temperatura mínima	17.1
173508	7	Sololá	701	Sololá	2	El tablón	8	Agosto	2023-08-23T00:00:00	2024-11-06T17:00:00	5	Humedad	74
173509	7	Sololá	701	Sololá	2	El tablón	8	Agosto	2023-08-23T00:00:00	2024-11-06T17:00:00	6	Velocidad del viento	6.4
173510	7	Sololá	701	Sololá	2	El tablón	8	Agosto	2023-08-23T00:00:00	2024-11-06T17:00:00	7	Dirección del viento	6.44
173511	7	Sololá	701	Sololá	2	El tablón	8	Agosto	2023-08-23T00:00:00	2024-11-06T17:00:00	1	Precipitación	0
173512	7	Sololá	701	Sololá	2	El tablón	8	Agosto	2023-08-23T00:00:00	2024-11-06T17:00:00	8	Radiación solar	190
173513	7	Sololá	701	Sololá	2	El tablón	8	Agosto	2023-08-23T00:00:00	2024-11-06T18:00:00	2	Temperatura media	15.6
173514	7	Sololá	701	Sololá	2	El tablón	8	Agosto	2023-08-23T00:00:00	2024-11-06T18:00:00	4	Temperatura máxima	17.2
173515	7	Sololá	701	Sololá	2	El tablón	8	Agosto	2023-08-23T00:00:00	2024-11-06T18:00:00	3	Temperatura mínima	15.6
173516	7	Sololá	701	Sololá	2	El tablón	8	Agosto	2023-08-23T00:00:00	2024-11-06T18:00:00	5	Humedad	80
173517	7	Sololá	701	Sololá	2	El tablón	8	Agosto	2023-08-23T00:00:00	2024-11-06T18:00:00	6	Velocidad del viento	3.2
173518	7	Sololá	701	Sololá	2	El tablón	8	Agosto	2023-08-23T00:00:00	2024-11-06T18:00:00	7	Dirección del viento	3.22
173519	7	Sololá	701	Sololá	2	El tablón	8	Agosto	2023-08-23T00:00:00	2024-11-06T18:00:00	1	Precipitación	0
173520	7	Sololá	701	Sololá	2	El tablón	8	Agosto	2023-08-23T00:00:00	2024-11-06T18:00:00	8	Radiación solar	69
173521	7	Sololá	701	Sololá	2	El tablón	8	Agosto	2023-08-23T00:00:00	2024-11-06T19:00:00	2	Temperatura media	14.8
173522	7	Sololá	701	Sololá	2	El tablón	8	Agosto	2023-08-23T00:00:00	2024-11-06T19:00:00	4	Temperatura máxima	15.6
173523	7	Sololá	701	Sololá	2	El tablón	8	Agosto	2023-08-23T00:00:00	2024-11-06T19:00:00	3	Temperatura mínima	14.8
173524	7	Sololá	701	Sololá	2	El tablón	8	Agosto	2023-08-23T00:00:00	2024-11-06T19:00:00	5	Humedad	85
173525	7	Sololá	701	Sololá	2	El tablón	8	Agosto	2023-08-23T00:00:00	2024-11-06T19:00:00	6	Velocidad del viento	4.8
173526	7	Sololá	701	Sololá	2	El tablón	8	Agosto	2023-08-23T00:00:00	2024-11-06T19:00:00	7	Dirección del viento	4.83
173527	7	Sololá	701	Sololá	2	El tablón	8	Agosto	2023-08-23T00:00:00	2024-11-06T19:00:00	1	Precipitación	0
173528	7	Sololá	701	Sololá	2	El tablón	8	Agosto	2023-08-23T00:00:00	2024-11-06T19:00:00	8	Radiación solar	0
173529	7	Sololá	701	Sololá	2	El tablón	8	Agosto	2023-08-23T00:00:00	2024-11-06T20:00:00	2	Temperatura media	14.4
173530	7	Sololá	701	Sololá	2	El tablón	8	Agosto	2023-08-23T00:00:00	2024-11-06T20:00:00	4	Temperatura máxima	14.8
173531	7	Sololá	701	Sololá	2	El tablón	8	Agosto	2023-08-23T00:00:00	2024-11-06T20:00:00	3	Temperatura mínima	14.4
173532	7	Sololá	701	Sololá	2	El tablón	8	Agosto	2023-08-23T00:00:00	2024-11-06T20:00:00	5	Humedad	86
173533	7	Sololá	701	Sololá	2	El tablón	8	Agosto	2023-08-23T00:00:00	2024-11-06T20:00:00	6	Velocidad del viento	4.8
173534	7	Sololá	701	Sololá	2	El tablón	8	Agosto	2023-08-23T00:00:00	2024-11-06T20:00:00	7	Dirección del viento	4.83
173535	7	Sololá	701	Sololá	2	El tablón	8	Agosto	2023-08-23T00:00:00	2024-11-06T20:00:00	1	Precipitación	0
173536	7	Sololá	701	Sololá	2	El tablón	8	Agosto	2023-08-23T00:00:00	2024-11-06T20:00:00	8	Radiación solar	0
173537	7	Sololá	701	Sololá	2	El tablón	8	Agosto	2023-08-23T00:00:00	2024-11-06T21:00:00	2	Temperatura media	14
173538	7	Sololá	701	Sololá	2	El tablón	8	Agosto	2023-08-23T00:00:00	2024-11-06T21:00:00	4	Temperatura máxima	14.4
173539	7	Sololá	701	Sololá	2	El tablón	8	Agosto	2023-08-23T00:00:00	2024-11-06T21:00:00	3	Temperatura mínima	13.9
173540	7	Sololá	701	Sololá	2	El tablón	8	Agosto	2023-08-23T00:00:00	2024-11-06T21:00:00	5	Humedad	87
173541	7	Sololá	701	Sololá	2	El tablón	8	Agosto	2023-08-23T00:00:00	2024-11-06T21:00:00	6	Velocidad del viento	6.4
173542	7	Sololá	701	Sololá	2	El tablón	8	Agosto	2023-08-23T00:00:00	2024-11-06T21:00:00	7	Dirección del viento	6.44
173543	7	Sololá	701	Sololá	2	El tablón	8	Agosto	2023-08-23T00:00:00	2024-11-06T21:00:00	1	Precipitación	0
173544	7	Sololá	701	Sololá	2	El tablón	8	Agosto	2023-08-23T00:00:00	2024-11-06T21:00:00	8	Radiación solar	0
173545	7	Sololá	701	Sololá	2	El tablón	8	Agosto	2023-08-23T00:00:00	2024-11-06T22:00:00	2	Temperatura media	13.7
173546	7	Sololá	701	Sololá	2	El tablón	8	Agosto	2023-08-23T00:00:00	2024-11-06T22:00:00	4	Temperatura máxima	14.2
173547	7	Sololá	701	Sololá	2	El tablón	8	Agosto	2023-08-23T00:00:00	2024-11-06T22:00:00	3	Temperatura mínima	13.7
173548	7	Sololá	701	Sololá	2	El tablón	8	Agosto	2023-08-23T00:00:00	2024-11-06T22:00:00	5	Humedad	87
173549	7	Sololá	701	Sololá	2	El tablón	8	Agosto	2023-08-23T00:00:00	2024-11-06T22:00:00	6	Velocidad del viento	9.7
173550	7	Sololá	701	Sololá	2	El tablón	8	Agosto	2023-08-23T00:00:00	2024-11-06T22:00:00	7	Dirección del viento	9.66
173551	7	Sololá	701	Sololá	2	El tablón	8	Agosto	2023-08-23T00:00:00	2024-11-06T22:00:00	1	Precipitación	0
173552	7	Sololá	701	Sololá	2	El tablón	8	Agosto	2023-08-23T00:00:00	2024-11-06T22:00:00	8	Radiación solar	0
173553	7	Sololá	701	Sololá	2	El tablón	8	Agosto	2023-08-23T00:00:00	2024-11-06T23:00:00	2	Temperatura media	13.4
173554	7	Sololá	701	Sololá	2	El tablón	8	Agosto	2023-08-23T00:00:00	2024-11-06T23:00:00	4	Temperatura máxima	13.7
173555	7	Sololá	701	Sololá	2	El tablón	8	Agosto	2023-08-23T00:00:00	2024-11-06T23:00:00	3	Temperatura mínima	13.2
173556	7	Sololá	701	Sololá	2	El tablón	8	Agosto	2023-08-23T00:00:00	2024-11-06T23:00:00	5	Humedad	87
173557	7	Sololá	701	Sololá	2	El tablón	8	Agosto	2023-08-23T00:00:00	2024-11-06T23:00:00	6	Velocidad del viento	14.5
173558	7	Sololá	701	Sololá	2	El tablón	8	Agosto	2023-08-23T00:00:00	2024-11-06T23:00:00	7	Dirección del viento	14.48
173559	7	Sololá	701	Sololá	2	El tablón	8	Agosto	2023-08-23T00:00:00	2024-11-06T23:00:00	1	Precipitación	0
173560	7	Sololá	701	Sololá	2	El tablón	8	Agosto	2023-08-23T00:00:00	2024-11-06T23:00:00	8	Radiación solar	0
173561	7	Sololá	701	Sololá	2	El tablón	8	Agosto	2023-08-24T00:00:00	2024-11-06T00:00:00	2	Temperatura media	13.9
173562	7	Sololá	701	Sololá	2	El tablón	8	Agosto	2023-08-24T00:00:00	2024-11-06T00:00:00	4	Temperatura máxima	13.9
173563	7	Sololá	701	Sololá	2	El tablón	8	Agosto	2023-08-24T00:00:00	2024-11-06T00:00:00	3	Temperatura mínima	13.4
173564	7	Sololá	701	Sololá	2	El tablón	8	Agosto	2023-08-24T00:00:00	2024-11-06T00:00:00	5	Humedad	84
173565	7	Sololá	701	Sololá	2	El tablón	8	Agosto	2023-08-24T00:00:00	2024-11-06T00:00:00	6	Velocidad del viento	8
173566	7	Sololá	701	Sololá	2	El tablón	8	Agosto	2023-08-24T00:00:00	2024-11-06T00:00:00	7	Dirección del viento	8.05
173567	7	Sololá	701	Sololá	2	El tablón	8	Agosto	2023-08-24T00:00:00	2024-11-06T00:00:00	1	Precipitación	0
173568	7	Sololá	701	Sololá	2	El tablón	8	Agosto	2023-08-24T00:00:00	2024-11-06T00:00:00	8	Radiación solar	0
173569	7	Sololá	701	Sololá	2	El tablón	8	Agosto	2023-08-24T00:00:00	2024-11-06T01:00:00	2	Temperatura media	12.7
173570	7	Sololá	701	Sololá	2	El tablón	8	Agosto	2023-08-24T00:00:00	2024-11-06T01:00:00	4	Temperatura máxima	13.9
173571	7	Sololá	701	Sololá	2	El tablón	8	Agosto	2023-08-24T00:00:00	2024-11-06T01:00:00	3	Temperatura mínima	12.7
173572	7	Sololá	701	Sololá	2	El tablón	8	Agosto	2023-08-24T00:00:00	2024-11-06T01:00:00	5	Humedad	87
173573	7	Sololá	701	Sololá	2	El tablón	8	Agosto	2023-08-24T00:00:00	2024-11-06T01:00:00	6	Velocidad del viento	4.8
173574	7	Sololá	701	Sololá	2	El tablón	8	Agosto	2023-08-24T00:00:00	2024-11-06T01:00:00	7	Dirección del viento	4.83
173575	7	Sololá	701	Sololá	2	El tablón	8	Agosto	2023-08-24T00:00:00	2024-11-06T01:00:00	1	Precipitación	0
173576	7	Sololá	701	Sololá	2	El tablón	8	Agosto	2023-08-24T00:00:00	2024-11-06T01:00:00	8	Radiación solar	0
173577	7	Sololá	701	Sololá	2	El tablón	8	Agosto	2023-08-24T00:00:00	2024-11-06T02:00:00	2	Temperatura media	11.9
173578	7	Sololá	701	Sololá	2	El tablón	8	Agosto	2023-08-24T00:00:00	2024-11-06T02:00:00	4	Temperatura máxima	12.7
173579	7	Sololá	701	Sololá	2	El tablón	8	Agosto	2023-08-24T00:00:00	2024-11-06T02:00:00	3	Temperatura mínima	11.9
173580	7	Sololá	701	Sololá	2	El tablón	8	Agosto	2023-08-24T00:00:00	2024-11-06T02:00:00	5	Humedad	88
173581	7	Sololá	701	Sololá	2	El tablón	8	Agosto	2023-08-24T00:00:00	2024-11-06T02:00:00	6	Velocidad del viento	1.6
173582	7	Sololá	701	Sololá	2	El tablón	8	Agosto	2023-08-24T00:00:00	2024-11-06T02:00:00	7	Dirección del viento	1.61
173583	7	Sololá	701	Sololá	2	El tablón	8	Agosto	2023-08-24T00:00:00	2024-11-06T02:00:00	1	Precipitación	0
173584	7	Sololá	701	Sololá	2	El tablón	8	Agosto	2023-08-24T00:00:00	2024-11-06T02:00:00	8	Radiación solar	0
173585	7	Sololá	701	Sololá	2	El tablón	8	Agosto	2023-08-24T00:00:00	2024-11-06T03:00:00	2	Temperatura media	12.1
173586	7	Sololá	701	Sololá	2	El tablón	8	Agosto	2023-08-24T00:00:00	2024-11-06T03:00:00	4	Temperatura máxima	12.1
173587	7	Sololá	701	Sololá	2	El tablón	8	Agosto	2023-08-24T00:00:00	2024-11-06T03:00:00	3	Temperatura mínima	11.9
173588	7	Sololá	701	Sololá	2	El tablón	8	Agosto	2023-08-24T00:00:00	2024-11-06T03:00:00	5	Humedad	88
173589	7	Sololá	701	Sololá	2	El tablón	8	Agosto	2023-08-24T00:00:00	2024-11-06T03:00:00	6	Velocidad del viento	0
173590	7	Sololá	701	Sololá	2	El tablón	8	Agosto	2023-08-24T00:00:00	2024-11-06T03:00:00	7	Dirección del viento	0
173591	7	Sololá	701	Sololá	2	El tablón	8	Agosto	2023-08-24T00:00:00	2024-11-06T03:00:00	1	Precipitación	0
173592	7	Sololá	701	Sololá	2	El tablón	8	Agosto	2023-08-24T00:00:00	2024-11-06T03:00:00	8	Radiación solar	0
173593	7	Sololá	701	Sololá	2	El tablón	8	Agosto	2023-08-24T00:00:00	2024-11-06T04:00:00	2	Temperatura media	11.8
173594	7	Sololá	701	Sololá	2	El tablón	8	Agosto	2023-08-24T00:00:00	2024-11-06T04:00:00	4	Temperatura máxima	12.4
173595	7	Sololá	701	Sololá	2	El tablón	8	Agosto	2023-08-24T00:00:00	2024-11-06T04:00:00	3	Temperatura mínima	11.8
173596	7	Sololá	701	Sololá	2	El tablón	8	Agosto	2023-08-24T00:00:00	2024-11-06T04:00:00	5	Humedad	88
173597	7	Sololá	701	Sololá	2	El tablón	8	Agosto	2023-08-24T00:00:00	2024-11-06T04:00:00	6	Velocidad del viento	0
173598	7	Sololá	701	Sololá	2	El tablón	8	Agosto	2023-08-24T00:00:00	2024-11-06T04:00:00	7	Dirección del viento	0
173599	7	Sololá	701	Sololá	2	El tablón	8	Agosto	2023-08-24T00:00:00	2024-11-06T04:00:00	1	Precipitación	0
173600	7	Sololá	701	Sololá	2	El tablón	8	Agosto	2023-08-24T00:00:00	2024-11-06T04:00:00	8	Radiación solar	0
173601	7	Sololá	701	Sololá	2	El tablón	8	Agosto	2023-08-24T00:00:00	2024-11-06T05:00:00	2	Temperatura media	11.6
173602	7	Sololá	701	Sololá	2	El tablón	8	Agosto	2023-08-24T00:00:00	2024-11-06T05:00:00	4	Temperatura máxima	12
173603	7	Sololá	701	Sololá	2	El tablón	8	Agosto	2023-08-24T00:00:00	2024-11-06T05:00:00	3	Temperatura mínima	11.6
173604	7	Sololá	701	Sololá	2	El tablón	8	Agosto	2023-08-24T00:00:00	2024-11-06T05:00:00	5	Humedad	88
173605	7	Sololá	701	Sololá	2	El tablón	8	Agosto	2023-08-24T00:00:00	2024-11-06T05:00:00	6	Velocidad del viento	0
173606	7	Sololá	701	Sololá	2	El tablón	8	Agosto	2023-08-24T00:00:00	2024-11-06T05:00:00	7	Dirección del viento	0
173607	7	Sololá	701	Sololá	2	El tablón	8	Agosto	2023-08-24T00:00:00	2024-11-06T05:00:00	1	Precipitación	0
173608	7	Sololá	701	Sololá	2	El tablón	8	Agosto	2023-08-24T00:00:00	2024-11-06T05:00:00	8	Radiación solar	0
173609	7	Sololá	701	Sololá	2	El tablón	8	Agosto	2023-08-24T00:00:00	2024-11-06T06:00:00	2	Temperatura media	11.3
173610	7	Sololá	701	Sololá	2	El tablón	8	Agosto	2023-08-24T00:00:00	2024-11-06T06:00:00	4	Temperatura máxima	11.7
173611	7	Sololá	701	Sololá	2	El tablón	8	Agosto	2023-08-24T00:00:00	2024-11-06T06:00:00	3	Temperatura mínima	11.3
173612	7	Sololá	701	Sololá	2	El tablón	8	Agosto	2023-08-24T00:00:00	2024-11-06T06:00:00	5	Humedad	88
173613	7	Sololá	701	Sololá	2	El tablón	8	Agosto	2023-08-24T00:00:00	2024-11-06T06:00:00	6	Velocidad del viento	1.6
173614	7	Sololá	701	Sololá	2	El tablón	8	Agosto	2023-08-24T00:00:00	2024-11-06T06:00:00	7	Dirección del viento	1.61
173615	7	Sololá	701	Sololá	2	El tablón	8	Agosto	2023-08-24T00:00:00	2024-11-06T06:00:00	1	Precipitación	0
173616	7	Sololá	701	Sololá	2	El tablón	8	Agosto	2023-08-24T00:00:00	2024-11-06T06:00:00	8	Radiación solar	0
173617	7	Sololá	701	Sololá	2	El tablón	8	Agosto	2023-08-24T00:00:00	2024-11-06T07:00:00	2	Temperatura media	13.3
173618	7	Sololá	701	Sololá	2	El tablón	8	Agosto	2023-08-24T00:00:00	2024-11-06T07:00:00	4	Temperatura máxima	13.3
173619	7	Sololá	701	Sololá	2	El tablón	8	Agosto	2023-08-24T00:00:00	2024-11-06T07:00:00	3	Temperatura mínima	11.3
173620	7	Sololá	701	Sololá	2	El tablón	8	Agosto	2023-08-24T00:00:00	2024-11-06T07:00:00	5	Humedad	84
173621	7	Sololá	701	Sololá	2	El tablón	8	Agosto	2023-08-24T00:00:00	2024-11-06T07:00:00	6	Velocidad del viento	3.2
173622	7	Sololá	701	Sololá	2	El tablón	8	Agosto	2023-08-24T00:00:00	2024-11-06T07:00:00	7	Dirección del viento	3.22
173623	7	Sololá	701	Sololá	2	El tablón	8	Agosto	2023-08-24T00:00:00	2024-11-06T07:00:00	1	Precipitación	0
173624	7	Sololá	701	Sololá	2	El tablón	8	Agosto	2023-08-24T00:00:00	2024-11-06T07:00:00	8	Radiación solar	35
173625	7	Sololá	701	Sololá	2	El tablón	8	Agosto	2023-08-24T00:00:00	2024-11-06T08:00:00	2	Temperatura media	15.2
173626	7	Sololá	701	Sololá	2	El tablón	8	Agosto	2023-08-24T00:00:00	2024-11-06T08:00:00	4	Temperatura máxima	15.2
173627	7	Sololá	701	Sololá	2	El tablón	8	Agosto	2023-08-24T00:00:00	2024-11-06T08:00:00	3	Temperatura mínima	13.3
173628	7	Sololá	701	Sololá	2	El tablón	8	Agosto	2023-08-24T00:00:00	2024-11-06T08:00:00	5	Humedad	79
173629	7	Sololá	701	Sololá	2	El tablón	8	Agosto	2023-08-24T00:00:00	2024-11-06T08:00:00	6	Velocidad del viento	3.2
173630	7	Sololá	701	Sololá	2	El tablón	8	Agosto	2023-08-24T00:00:00	2024-11-06T08:00:00	7	Dirección del viento	3.22
173631	7	Sololá	701	Sololá	2	El tablón	8	Agosto	2023-08-24T00:00:00	2024-11-06T08:00:00	1	Precipitación	0
173632	7	Sololá	701	Sololá	2	El tablón	8	Agosto	2023-08-24T00:00:00	2024-11-06T08:00:00	8	Radiación solar	161
173633	7	Sololá	701	Sololá	2	El tablón	8	Agosto	2023-08-24T00:00:00	2024-11-06T09:00:00	2	Temperatura media	15.4
173634	7	Sololá	701	Sololá	2	El tablón	8	Agosto	2023-08-24T00:00:00	2024-11-06T09:00:00	4	Temperatura máxima	15.4
173635	7	Sololá	701	Sololá	2	El tablón	8	Agosto	2023-08-24T00:00:00	2024-11-06T09:00:00	3	Temperatura mínima	15.1
173636	7	Sololá	701	Sololá	2	El tablón	8	Agosto	2023-08-24T00:00:00	2024-11-06T09:00:00	5	Humedad	81
173637	7	Sololá	701	Sololá	2	El tablón	8	Agosto	2023-08-24T00:00:00	2024-11-06T09:00:00	6	Velocidad del viento	4.8
173638	7	Sololá	701	Sololá	2	El tablón	8	Agosto	2023-08-24T00:00:00	2024-11-06T09:00:00	7	Dirección del viento	4.83
173639	7	Sololá	701	Sololá	2	El tablón	8	Agosto	2023-08-24T00:00:00	2024-11-06T09:00:00	1	Precipitación	0
173640	7	Sololá	701	Sololá	2	El tablón	8	Agosto	2023-08-24T00:00:00	2024-11-06T09:00:00	8	Radiación solar	192
173641	7	Sololá	701	Sololá	2	El tablón	8	Agosto	2023-08-24T00:00:00	2024-11-06T10:00:00	2	Temperatura media	16.5
173642	7	Sololá	701	Sololá	2	El tablón	8	Agosto	2023-08-24T00:00:00	2024-11-06T10:00:00	4	Temperatura máxima	16.5
173643	7	Sololá	701	Sololá	2	El tablón	8	Agosto	2023-08-24T00:00:00	2024-11-06T10:00:00	3	Temperatura mínima	15.4
173644	7	Sololá	701	Sololá	2	El tablón	8	Agosto	2023-08-24T00:00:00	2024-11-06T10:00:00	5	Humedad	77
173645	7	Sololá	701	Sololá	2	El tablón	8	Agosto	2023-08-24T00:00:00	2024-11-06T10:00:00	6	Velocidad del viento	4.8
173646	7	Sololá	701	Sololá	2	El tablón	8	Agosto	2023-08-24T00:00:00	2024-11-06T10:00:00	7	Dirección del viento	4.83
173647	7	Sololá	701	Sololá	2	El tablón	8	Agosto	2023-08-24T00:00:00	2024-11-06T10:00:00	1	Precipitación	0
173648	7	Sololá	701	Sololá	2	El tablón	8	Agosto	2023-08-24T00:00:00	2024-11-06T10:00:00	8	Radiación solar	251
173649	7	Sololá	701	Sololá	2	El tablón	8	Agosto	2023-08-24T00:00:00	2024-11-06T11:00:00	2	Temperatura media	16.5
173650	7	Sololá	701	Sololá	2	El tablón	8	Agosto	2023-08-24T00:00:00	2024-11-06T11:00:00	4	Temperatura máxima	16.7
173651	7	Sololá	701	Sololá	2	El tablón	8	Agosto	2023-08-24T00:00:00	2024-11-06T11:00:00	3	Temperatura mínima	16.5
173652	7	Sololá	701	Sololá	2	El tablón	8	Agosto	2023-08-24T00:00:00	2024-11-06T11:00:00	5	Humedad	80
173653	7	Sololá	701	Sololá	2	El tablón	8	Agosto	2023-08-24T00:00:00	2024-11-06T11:00:00	6	Velocidad del viento	4.8
173654	7	Sololá	701	Sololá	2	El tablón	8	Agosto	2023-08-24T00:00:00	2024-11-06T11:00:00	7	Dirección del viento	4.83
173655	7	Sololá	701	Sololá	2	El tablón	8	Agosto	2023-08-24T00:00:00	2024-11-06T11:00:00	1	Precipitación	0
173656	7	Sololá	701	Sololá	2	El tablón	8	Agosto	2023-08-24T00:00:00	2024-11-06T11:00:00	8	Radiación solar	343
173657	7	Sololá	701	Sololá	2	El tablón	8	Agosto	2023-08-24T00:00:00	2024-11-06T12:00:00	2	Temperatura media	16.5
173658	7	Sololá	701	Sololá	2	El tablón	8	Agosto	2023-08-24T00:00:00	2024-11-06T12:00:00	4	Temperatura máxima	16.6
173659	7	Sololá	701	Sololá	2	El tablón	8	Agosto	2023-08-24T00:00:00	2024-11-06T12:00:00	3	Temperatura mínima	15.7
173660	7	Sololá	701	Sololá	2	El tablón	8	Agosto	2023-08-24T00:00:00	2024-11-06T12:00:00	5	Humedad	86
173661	7	Sololá	701	Sololá	2	El tablón	8	Agosto	2023-08-24T00:00:00	2024-11-06T12:00:00	6	Velocidad del viento	4.8
173662	7	Sololá	701	Sololá	2	El tablón	8	Agosto	2023-08-24T00:00:00	2024-11-06T12:00:00	7	Dirección del viento	4.83
173663	7	Sololá	701	Sololá	2	El tablón	8	Agosto	2023-08-24T00:00:00	2024-11-06T12:00:00	1	Precipitación	0
173664	7	Sololá	701	Sololá	2	El tablón	8	Agosto	2023-08-24T00:00:00	2024-11-06T12:00:00	8	Radiación solar	414
173665	7	Sololá	701	Sololá	2	El tablón	8	Agosto	2023-08-24T00:00:00	2024-11-06T13:00:00	2	Temperatura media	16.7
173666	7	Sololá	701	Sololá	2	El tablón	8	Agosto	2023-08-24T00:00:00	2024-11-06T13:00:00	4	Temperatura máxima	17.3
173667	7	Sololá	701	Sololá	2	El tablón	8	Agosto	2023-08-24T00:00:00	2024-11-06T13:00:00	3	Temperatura mínima	16.5
173668	7	Sololá	701	Sololá	2	El tablón	8	Agosto	2023-08-24T00:00:00	2024-11-06T13:00:00	5	Humedad	85
173669	7	Sololá	701	Sololá	2	El tablón	8	Agosto	2023-08-24T00:00:00	2024-11-06T13:00:00	6	Velocidad del viento	6.4
173670	7	Sololá	701	Sololá	2	El tablón	8	Agosto	2023-08-24T00:00:00	2024-11-06T13:00:00	7	Dirección del viento	6.44
173671	7	Sololá	701	Sololá	2	El tablón	8	Agosto	2023-08-24T00:00:00	2024-11-06T13:00:00	1	Precipitación	0
173672	7	Sololá	701	Sololá	2	El tablón	8	Agosto	2023-08-24T00:00:00	2024-11-06T13:00:00	8	Radiación solar	554
173673	7	Sololá	701	Sololá	2	El tablón	8	Agosto	2023-08-24T00:00:00	2024-11-06T14:00:00	2	Temperatura media	15.3
173674	7	Sololá	701	Sololá	2	El tablón	8	Agosto	2023-08-24T00:00:00	2024-11-06T14:00:00	4	Temperatura máxima	16.7
173675	7	Sololá	701	Sololá	2	El tablón	8	Agosto	2023-08-24T00:00:00	2024-11-06T14:00:00	3	Temperatura mínima	15.3
173676	7	Sololá	701	Sololá	2	El tablón	8	Agosto	2023-08-24T00:00:00	2024-11-06T14:00:00	5	Humedad	87
173677	7	Sololá	701	Sololá	2	El tablón	8	Agosto	2023-08-24T00:00:00	2024-11-06T14:00:00	6	Velocidad del viento	6.4
173678	7	Sololá	701	Sololá	2	El tablón	8	Agosto	2023-08-24T00:00:00	2024-11-06T14:00:00	7	Dirección del viento	6.44
173679	7	Sololá	701	Sololá	2	El tablón	8	Agosto	2023-08-24T00:00:00	2024-11-06T14:00:00	1	Precipitación	0
173680	7	Sololá	701	Sololá	2	El tablón	8	Agosto	2023-08-24T00:00:00	2024-11-06T14:00:00	8	Radiación solar	269
173681	7	Sololá	701	Sololá	2	El tablón	8	Agosto	2023-08-24T00:00:00	2024-11-06T15:00:00	2	Temperatura media	15.2
173682	7	Sololá	701	Sololá	2	El tablón	8	Agosto	2023-08-24T00:00:00	2024-11-06T15:00:00	4	Temperatura máxima	15.3
173683	7	Sololá	701	Sololá	2	El tablón	8	Agosto	2023-08-24T00:00:00	2024-11-06T15:00:00	3	Temperatura mínima	14.8
173684	7	Sololá	701	Sololá	2	El tablón	8	Agosto	2023-08-24T00:00:00	2024-11-06T15:00:00	5	Humedad	87
173685	7	Sololá	701	Sololá	2	El tablón	8	Agosto	2023-08-24T00:00:00	2024-11-06T15:00:00	6	Velocidad del viento	3.2
173686	7	Sololá	701	Sololá	2	El tablón	8	Agosto	2023-08-24T00:00:00	2024-11-06T15:00:00	7	Dirección del viento	3.22
173687	7	Sololá	701	Sololá	2	El tablón	8	Agosto	2023-08-24T00:00:00	2024-11-06T15:00:00	1	Precipitación	0
173688	7	Sololá	701	Sololá	2	El tablón	8	Agosto	2023-08-24T00:00:00	2024-11-06T15:00:00	8	Radiación solar	143
173689	7	Sololá	701	Sololá	2	El tablón	8	Agosto	2023-08-24T00:00:00	2024-11-06T16:00:00	2	Temperatura media	14.3
173690	7	Sololá	701	Sololá	2	El tablón	8	Agosto	2023-08-24T00:00:00	2024-11-06T16:00:00	4	Temperatura máxima	15.2
173691	7	Sololá	701	Sololá	2	El tablón	8	Agosto	2023-08-24T00:00:00	2024-11-06T16:00:00	3	Temperatura mínima	14.2
173692	7	Sololá	701	Sololá	2	El tablón	8	Agosto	2023-08-24T00:00:00	2024-11-06T16:00:00	5	Humedad	88
173693	7	Sololá	701	Sololá	2	El tablón	8	Agosto	2023-08-24T00:00:00	2024-11-06T16:00:00	6	Velocidad del viento	3.2
173694	7	Sololá	701	Sololá	2	El tablón	8	Agosto	2023-08-24T00:00:00	2024-11-06T16:00:00	7	Dirección del viento	3.22
173695	7	Sololá	701	Sololá	2	El tablón	8	Agosto	2023-08-24T00:00:00	2024-11-06T16:00:00	1	Precipitación	3.4
173696	7	Sololá	701	Sololá	2	El tablón	8	Agosto	2023-08-24T00:00:00	2024-11-06T16:00:00	8	Radiación solar	89
173697	7	Sololá	701	Sololá	2	El tablón	8	Agosto	2023-08-24T00:00:00	2024-11-06T17:00:00	2	Temperatura media	14.4
173698	7	Sololá	701	Sololá	2	El tablón	8	Agosto	2023-08-24T00:00:00	2024-11-06T17:00:00	4	Temperatura máxima	14.4
173699	7	Sololá	701	Sololá	2	El tablón	8	Agosto	2023-08-24T00:00:00	2024-11-06T17:00:00	3	Temperatura mínima	14.2
173700	7	Sololá	701	Sololá	2	El tablón	8	Agosto	2023-08-24T00:00:00	2024-11-06T17:00:00	5	Humedad	88
173701	7	Sololá	701	Sololá	2	El tablón	8	Agosto	2023-08-24T00:00:00	2024-11-06T17:00:00	6	Velocidad del viento	0
173702	7	Sololá	701	Sololá	2	El tablón	8	Agosto	2023-08-24T00:00:00	2024-11-06T17:00:00	7	Dirección del viento	0
173703	7	Sololá	701	Sololá	2	El tablón	8	Agosto	2023-08-24T00:00:00	2024-11-06T17:00:00	1	Precipitación	1.6
173704	7	Sololá	701	Sololá	2	El tablón	8	Agosto	2023-08-24T00:00:00	2024-11-06T17:00:00	8	Radiación solar	90
173705	7	Sololá	701	Sololá	2	El tablón	8	Agosto	2023-08-24T00:00:00	2024-11-06T18:00:00	2	Temperatura media	14.6
173706	7	Sololá	701	Sololá	2	El tablón	8	Agosto	2023-08-24T00:00:00	2024-11-06T18:00:00	4	Temperatura máxima	14.7
173707	7	Sololá	701	Sololá	2	El tablón	8	Agosto	2023-08-24T00:00:00	2024-11-06T18:00:00	3	Temperatura mínima	14.4
173708	7	Sololá	701	Sololá	2	El tablón	8	Agosto	2023-08-24T00:00:00	2024-11-06T18:00:00	5	Humedad	88
173709	7	Sololá	701	Sololá	2	El tablón	8	Agosto	2023-08-24T00:00:00	2024-11-06T18:00:00	6	Velocidad del viento	1.6
173710	7	Sololá	701	Sololá	2	El tablón	8	Agosto	2023-08-24T00:00:00	2024-11-06T18:00:00	7	Dirección del viento	1.61
173711	7	Sololá	701	Sololá	2	El tablón	8	Agosto	2023-08-24T00:00:00	2024-11-06T18:00:00	1	Precipitación	0
173712	7	Sololá	701	Sololá	2	El tablón	8	Agosto	2023-08-24T00:00:00	2024-11-06T18:00:00	8	Radiación solar	50
173713	7	Sololá	701	Sololá	2	El tablón	8	Agosto	2023-08-24T00:00:00	2024-11-06T19:00:00	2	Temperatura media	14.2
173714	7	Sololá	701	Sololá	2	El tablón	8	Agosto	2023-08-24T00:00:00	2024-11-06T19:00:00	4	Temperatura máxima	14.6
173715	7	Sololá	701	Sololá	2	El tablón	8	Agosto	2023-08-24T00:00:00	2024-11-06T19:00:00	3	Temperatura mínima	14.2
173716	7	Sololá	701	Sololá	2	El tablón	8	Agosto	2023-08-24T00:00:00	2024-11-06T19:00:00	5	Humedad	88
173717	7	Sololá	701	Sololá	2	El tablón	8	Agosto	2023-08-24T00:00:00	2024-11-06T19:00:00	6	Velocidad del viento	0
173718	7	Sololá	701	Sololá	2	El tablón	8	Agosto	2023-08-24T00:00:00	2024-11-06T19:00:00	7	Dirección del viento	0
173719	7	Sololá	701	Sololá	2	El tablón	8	Agosto	2023-08-24T00:00:00	2024-11-06T19:00:00	1	Precipitación	0
173720	7	Sololá	701	Sololá	2	El tablón	8	Agosto	2023-08-24T00:00:00	2024-11-06T19:00:00	8	Radiación solar	0
173721	7	Sololá	701	Sololá	2	El tablón	8	Agosto	2023-08-24T00:00:00	2024-11-06T20:00:00	2	Temperatura media	14
173722	7	Sololá	701	Sololá	2	El tablón	8	Agosto	2023-08-24T00:00:00	2024-11-06T20:00:00	4	Temperatura máxima	14.2
173723	7	Sololá	701	Sololá	2	El tablón	8	Agosto	2023-08-24T00:00:00	2024-11-06T20:00:00	3	Temperatura mínima	13.9
173724	7	Sololá	701	Sololá	2	El tablón	8	Agosto	2023-08-24T00:00:00	2024-11-06T20:00:00	5	Humedad	88
173725	7	Sololá	701	Sololá	2	El tablón	8	Agosto	2023-08-24T00:00:00	2024-11-06T20:00:00	6	Velocidad del viento	1.6
173726	7	Sololá	701	Sololá	2	El tablón	8	Agosto	2023-08-24T00:00:00	2024-11-06T20:00:00	7	Dirección del viento	1.61
173727	7	Sololá	701	Sololá	2	El tablón	8	Agosto	2023-08-24T00:00:00	2024-11-06T20:00:00	1	Precipitación	0
173728	7	Sololá	701	Sololá	2	El tablón	8	Agosto	2023-08-24T00:00:00	2024-11-06T20:00:00	8	Radiación solar	0
173729	7	Sololá	701	Sololá	2	El tablón	8	Agosto	2023-08-24T00:00:00	2024-11-06T21:00:00	2	Temperatura media	13.9
173730	7	Sololá	701	Sololá	2	El tablón	8	Agosto	2023-08-24T00:00:00	2024-11-06T21:00:00	4	Temperatura máxima	14
173731	7	Sololá	701	Sololá	2	El tablón	8	Agosto	2023-08-24T00:00:00	2024-11-06T21:00:00	3	Temperatura mínima	13.6
173732	7	Sololá	701	Sololá	2	El tablón	8	Agosto	2023-08-24T00:00:00	2024-11-06T21:00:00	5	Humedad	88
173733	7	Sololá	701	Sololá	2	El tablón	8	Agosto	2023-08-24T00:00:00	2024-11-06T21:00:00	6	Velocidad del viento	3.2
173734	7	Sololá	701	Sololá	2	El tablón	8	Agosto	2023-08-24T00:00:00	2024-11-06T21:00:00	7	Dirección del viento	3.22
173735	7	Sololá	701	Sololá	2	El tablón	8	Agosto	2023-08-24T00:00:00	2024-11-06T21:00:00	1	Precipitación	0
173736	7	Sololá	701	Sololá	2	El tablón	8	Agosto	2023-08-24T00:00:00	2024-11-06T21:00:00	8	Radiación solar	0
173737	7	Sololá	701	Sololá	2	El tablón	8	Agosto	2023-08-24T00:00:00	2024-11-06T22:00:00	2	Temperatura media	13.5
173738	7	Sololá	701	Sololá	2	El tablón	8	Agosto	2023-08-24T00:00:00	2024-11-06T22:00:00	4	Temperatura máxima	14.1
173739	7	Sololá	701	Sololá	2	El tablón	8	Agosto	2023-08-24T00:00:00	2024-11-06T22:00:00	3	Temperatura mínima	13.5
173740	7	Sololá	701	Sololá	2	El tablón	8	Agosto	2023-08-24T00:00:00	2024-11-06T22:00:00	5	Humedad	88
173741	7	Sololá	701	Sololá	2	El tablón	8	Agosto	2023-08-24T00:00:00	2024-11-06T22:00:00	6	Velocidad del viento	3.2
173742	7	Sololá	701	Sololá	2	El tablón	8	Agosto	2023-08-24T00:00:00	2024-11-06T22:00:00	7	Dirección del viento	3.22
173743	7	Sololá	701	Sololá	2	El tablón	8	Agosto	2023-08-24T00:00:00	2024-11-06T22:00:00	1	Precipitación	0
173744	7	Sololá	701	Sololá	2	El tablón	8	Agosto	2023-08-24T00:00:00	2024-11-06T22:00:00	8	Radiación solar	0
173745	7	Sololá	701	Sololá	2	El tablón	8	Agosto	2023-08-24T00:00:00	2024-11-06T23:00:00	2	Temperatura media	12.8
173746	7	Sololá	701	Sololá	2	El tablón	8	Agosto	2023-08-24T00:00:00	2024-11-06T23:00:00	4	Temperatura máxima	13.6
173747	7	Sololá	701	Sololá	2	El tablón	8	Agosto	2023-08-24T00:00:00	2024-11-06T23:00:00	3	Temperatura mínima	12.8
173748	7	Sololá	701	Sololá	2	El tablón	8	Agosto	2023-08-24T00:00:00	2024-11-06T23:00:00	5	Humedad	88
173749	7	Sololá	701	Sololá	2	El tablón	8	Agosto	2023-08-24T00:00:00	2024-11-06T23:00:00	6	Velocidad del viento	3.2
173750	7	Sololá	701	Sololá	2	El tablón	8	Agosto	2023-08-24T00:00:00	2024-11-06T23:00:00	7	Dirección del viento	3.22
173751	7	Sololá	701	Sololá	2	El tablón	8	Agosto	2023-08-24T00:00:00	2024-11-06T23:00:00	1	Precipitación	0
173752	7	Sololá	701	Sololá	2	El tablón	8	Agosto	2023-08-24T00:00:00	2024-11-06T23:00:00	8	Radiación solar	0
173753	7	Sololá	701	Sololá	2	El tablón	8	Agosto	2023-08-25T00:00:00	2024-11-06T00:00:00	2	Temperatura media	11.7
173754	7	Sololá	701	Sololá	2	El tablón	8	Agosto	2023-08-25T00:00:00	2024-11-06T00:00:00	4	Temperatura máxima	12.8
173755	7	Sololá	701	Sololá	2	El tablón	8	Agosto	2023-08-25T00:00:00	2024-11-06T00:00:00	3	Temperatura mínima	11.7
173756	7	Sololá	701	Sololá	2	El tablón	8	Agosto	2023-08-25T00:00:00	2024-11-06T00:00:00	5	Humedad	88
173757	7	Sololá	701	Sololá	2	El tablón	8	Agosto	2023-08-25T00:00:00	2024-11-06T00:00:00	6	Velocidad del viento	1.6
173758	7	Sololá	701	Sololá	2	El tablón	8	Agosto	2023-08-25T00:00:00	2024-11-06T00:00:00	7	Dirección del viento	1.61
173759	7	Sololá	701	Sololá	2	El tablón	8	Agosto	2023-08-25T00:00:00	2024-11-06T00:00:00	1	Precipitación	0
173760	7	Sololá	701	Sololá	2	El tablón	8	Agosto	2023-08-25T00:00:00	2024-11-06T00:00:00	8	Radiación solar	0
173761	7	Sololá	701	Sololá	2	El tablón	8	Agosto	2023-08-25T00:00:00	2024-11-06T01:00:00	2	Temperatura media	11.6
173762	7	Sololá	701	Sololá	2	El tablón	8	Agosto	2023-08-25T00:00:00	2024-11-06T01:00:00	4	Temperatura máxima	11.9
173763	7	Sololá	701	Sololá	2	El tablón	8	Agosto	2023-08-25T00:00:00	2024-11-06T01:00:00	3	Temperatura mínima	11.6
173764	7	Sololá	701	Sololá	2	El tablón	8	Agosto	2023-08-25T00:00:00	2024-11-06T01:00:00	5	Humedad	88
173765	7	Sololá	701	Sololá	2	El tablón	8	Agosto	2023-08-25T00:00:00	2024-11-06T01:00:00	6	Velocidad del viento	1.6
173766	7	Sololá	701	Sololá	2	El tablón	8	Agosto	2023-08-25T00:00:00	2024-11-06T01:00:00	7	Dirección del viento	1.61
173767	7	Sololá	701	Sololá	2	El tablón	8	Agosto	2023-08-25T00:00:00	2024-11-06T01:00:00	1	Precipitación	0
173768	7	Sololá	701	Sololá	2	El tablón	8	Agosto	2023-08-25T00:00:00	2024-11-06T01:00:00	8	Radiación solar	0
173769	7	Sololá	701	Sololá	2	El tablón	8	Agosto	2023-08-25T00:00:00	2024-11-06T02:00:00	2	Temperatura media	12.4
173770	7	Sololá	701	Sololá	2	El tablón	8	Agosto	2023-08-25T00:00:00	2024-11-06T02:00:00	4	Temperatura máxima	12.4
173771	7	Sololá	701	Sololá	2	El tablón	8	Agosto	2023-08-25T00:00:00	2024-11-06T02:00:00	3	Temperatura mínima	11.7
173772	7	Sololá	701	Sololá	2	El tablón	8	Agosto	2023-08-25T00:00:00	2024-11-06T02:00:00	5	Humedad	88
173773	7	Sololá	701	Sololá	2	El tablón	8	Agosto	2023-08-25T00:00:00	2024-11-06T02:00:00	6	Velocidad del viento	3.2
173774	7	Sololá	701	Sololá	2	El tablón	8	Agosto	2023-08-25T00:00:00	2024-11-06T02:00:00	7	Dirección del viento	3.22
173775	7	Sololá	701	Sololá	2	El tablón	8	Agosto	2023-08-25T00:00:00	2024-11-06T02:00:00	1	Precipitación	0
173776	7	Sololá	701	Sololá	2	El tablón	8	Agosto	2023-08-25T00:00:00	2024-11-06T02:00:00	8	Radiación solar	0
173777	7	Sololá	701	Sololá	2	El tablón	8	Agosto	2023-08-25T00:00:00	2024-11-06T03:00:00	2	Temperatura media	12.8
173778	7	Sololá	701	Sololá	2	El tablón	8	Agosto	2023-08-25T00:00:00	2024-11-06T03:00:00	4	Temperatura máxima	12.9
173779	7	Sololá	701	Sololá	2	El tablón	8	Agosto	2023-08-25T00:00:00	2024-11-06T03:00:00	3	Temperatura mínima	12.4
173780	7	Sololá	701	Sololá	2	El tablón	8	Agosto	2023-08-25T00:00:00	2024-11-06T03:00:00	5	Humedad	88
173781	7	Sololá	701	Sololá	2	El tablón	8	Agosto	2023-08-25T00:00:00	2024-11-06T03:00:00	6	Velocidad del viento	3.2
173782	7	Sololá	701	Sololá	2	El tablón	8	Agosto	2023-08-25T00:00:00	2024-11-06T03:00:00	7	Dirección del viento	3.22
173783	7	Sololá	701	Sololá	2	El tablón	8	Agosto	2023-08-25T00:00:00	2024-11-06T03:00:00	1	Precipitación	0
173784	7	Sololá	701	Sololá	2	El tablón	8	Agosto	2023-08-25T00:00:00	2024-11-06T03:00:00	8	Radiación solar	0
173785	7	Sololá	701	Sololá	2	El tablón	8	Agosto	2023-08-25T00:00:00	2024-11-06T04:00:00	2	Temperatura media	12.4
173786	7	Sololá	701	Sololá	2	El tablón	8	Agosto	2023-08-25T00:00:00	2024-11-06T04:00:00	4	Temperatura máxima	12.9
173787	7	Sololá	701	Sololá	2	El tablón	8	Agosto	2023-08-25T00:00:00	2024-11-06T04:00:00	3	Temperatura mínima	12.4
173788	7	Sololá	701	Sololá	2	El tablón	8	Agosto	2023-08-25T00:00:00	2024-11-06T04:00:00	5	Humedad	89
173789	7	Sololá	701	Sololá	2	El tablón	8	Agosto	2023-08-25T00:00:00	2024-11-06T04:00:00	6	Velocidad del viento	3.2
173790	7	Sololá	701	Sololá	2	El tablón	8	Agosto	2023-08-25T00:00:00	2024-11-06T04:00:00	7	Dirección del viento	3.22
173791	7	Sololá	701	Sololá	2	El tablón	8	Agosto	2023-08-25T00:00:00	2024-11-06T04:00:00	1	Precipitación	0
173792	7	Sololá	701	Sololá	2	El tablón	8	Agosto	2023-08-25T00:00:00	2024-11-06T04:00:00	8	Radiación solar	0
173793	7	Sololá	701	Sololá	2	El tablón	8	Agosto	2023-08-25T00:00:00	2024-11-06T05:00:00	2	Temperatura media	12.3
173794	7	Sololá	701	Sololá	2	El tablón	8	Agosto	2023-08-25T00:00:00	2024-11-06T05:00:00	4	Temperatura máxima	12.5
173795	7	Sololá	701	Sololá	2	El tablón	8	Agosto	2023-08-25T00:00:00	2024-11-06T05:00:00	3	Temperatura mínima	12.3
173796	7	Sololá	701	Sololá	2	El tablón	8	Agosto	2023-08-25T00:00:00	2024-11-06T05:00:00	5	Humedad	89
173797	7	Sololá	701	Sololá	2	El tablón	8	Agosto	2023-08-25T00:00:00	2024-11-06T05:00:00	6	Velocidad del viento	1.6
173798	7	Sololá	701	Sololá	2	El tablón	8	Agosto	2023-08-25T00:00:00	2024-11-06T05:00:00	7	Dirección del viento	1.61
173799	7	Sololá	701	Sololá	2	El tablón	8	Agosto	2023-08-25T00:00:00	2024-11-06T05:00:00	1	Precipitación	0
173800	7	Sololá	701	Sololá	2	El tablón	8	Agosto	2023-08-25T00:00:00	2024-11-06T05:00:00	8	Radiación solar	0
173801	7	Sololá	701	Sololá	2	El tablón	8	Agosto	2023-08-25T00:00:00	2024-11-06T06:00:00	2	Temperatura media	12.2
173802	7	Sololá	701	Sololá	2	El tablón	8	Agosto	2023-08-25T00:00:00	2024-11-06T06:00:00	4	Temperatura máxima	12.3
173803	7	Sololá	701	Sololá	2	El tablón	8	Agosto	2023-08-25T00:00:00	2024-11-06T06:00:00	3	Temperatura mínima	12.2
173804	7	Sololá	701	Sololá	2	El tablón	8	Agosto	2023-08-25T00:00:00	2024-11-06T06:00:00	5	Humedad	89
173805	7	Sololá	701	Sololá	2	El tablón	8	Agosto	2023-08-25T00:00:00	2024-11-06T06:00:00	6	Velocidad del viento	4.8
173806	7	Sololá	701	Sololá	2	El tablón	8	Agosto	2023-08-25T00:00:00	2024-11-06T06:00:00	7	Dirección del viento	4.83
173807	7	Sololá	701	Sololá	2	El tablón	8	Agosto	2023-08-25T00:00:00	2024-11-06T06:00:00	1	Precipitación	0
173808	7	Sololá	701	Sololá	2	El tablón	8	Agosto	2023-08-25T00:00:00	2024-11-06T06:00:00	8	Radiación solar	1
173809	7	Sololá	701	Sololá	2	El tablón	8	Agosto	2023-08-25T00:00:00	2024-11-06T07:00:00	2	Temperatura media	12.4
173810	7	Sololá	701	Sololá	2	El tablón	8	Agosto	2023-08-25T00:00:00	2024-11-06T07:00:00	4	Temperatura máxima	12.4
173811	7	Sololá	701	Sololá	2	El tablón	8	Agosto	2023-08-25T00:00:00	2024-11-06T07:00:00	3	Temperatura mínima	12.1
173812	7	Sololá	701	Sololá	2	El tablón	8	Agosto	2023-08-25T00:00:00	2024-11-06T07:00:00	5	Humedad	88
173813	7	Sololá	701	Sololá	2	El tablón	8	Agosto	2023-08-25T00:00:00	2024-11-06T07:00:00	6	Velocidad del viento	3.2
173814	7	Sololá	701	Sololá	2	El tablón	8	Agosto	2023-08-25T00:00:00	2024-11-06T07:00:00	7	Dirección del viento	3.22
173815	7	Sololá	701	Sololá	2	El tablón	8	Agosto	2023-08-25T00:00:00	2024-11-06T07:00:00	1	Precipitación	0
173816	7	Sololá	701	Sololá	2	El tablón	8	Agosto	2023-08-25T00:00:00	2024-11-06T07:00:00	8	Radiación solar	50
173817	7	Sololá	701	Sololá	2	El tablón	8	Agosto	2023-08-25T00:00:00	2024-11-06T08:00:00	2	Temperatura media	14.8
173818	7	Sololá	701	Sololá	2	El tablón	8	Agosto	2023-08-25T00:00:00	2024-11-06T08:00:00	4	Temperatura máxima	14.8
173819	7	Sololá	701	Sololá	2	El tablón	8	Agosto	2023-08-25T00:00:00	2024-11-06T08:00:00	3	Temperatura mínima	12.3
173820	7	Sololá	701	Sololá	2	El tablón	8	Agosto	2023-08-25T00:00:00	2024-11-06T08:00:00	5	Humedad	86
173821	7	Sololá	701	Sololá	2	El tablón	8	Agosto	2023-08-25T00:00:00	2024-11-06T08:00:00	6	Velocidad del viento	1.6
173822	7	Sololá	701	Sololá	2	El tablón	8	Agosto	2023-08-25T00:00:00	2024-11-06T08:00:00	7	Dirección del viento	1.61
173823	7	Sololá	701	Sololá	2	El tablón	8	Agosto	2023-08-25T00:00:00	2024-11-06T08:00:00	1	Precipitación	0
173824	7	Sololá	701	Sololá	2	El tablón	8	Agosto	2023-08-25T00:00:00	2024-11-06T08:00:00	8	Radiación solar	144
173825	7	Sololá	701	Sololá	2	El tablón	8	Agosto	2023-08-25T00:00:00	2024-11-06T09:00:00	2	Temperatura media	18.7
173826	7	Sololá	701	Sololá	2	El tablón	8	Agosto	2023-08-25T00:00:00	2024-11-06T09:00:00	4	Temperatura máxima	18.7
173827	7	Sololá	701	Sololá	2	El tablón	8	Agosto	2023-08-25T00:00:00	2024-11-06T09:00:00	3	Temperatura mínima	14.8
173828	7	Sololá	701	Sololá	2	El tablón	8	Agosto	2023-08-25T00:00:00	2024-11-06T09:00:00	5	Humedad	75
173829	7	Sololá	701	Sololá	2	El tablón	8	Agosto	2023-08-25T00:00:00	2024-11-06T09:00:00	6	Velocidad del viento	1.6
173830	7	Sololá	701	Sololá	2	El tablón	8	Agosto	2023-08-25T00:00:00	2024-11-06T09:00:00	7	Dirección del viento	1.61
173831	7	Sololá	701	Sololá	2	El tablón	8	Agosto	2023-08-25T00:00:00	2024-11-06T09:00:00	1	Precipitación	0
173832	7	Sololá	701	Sololá	2	El tablón	8	Agosto	2023-08-25T00:00:00	2024-11-06T09:00:00	8	Radiación solar	552
173833	7	Sololá	701	Sololá	2	El tablón	8	Agosto	2023-08-25T00:00:00	2024-11-06T10:00:00	2	Temperatura media	17.7
173834	7	Sololá	701	Sololá	2	El tablón	8	Agosto	2023-08-25T00:00:00	2024-11-06T10:00:00	4	Temperatura máxima	18.7
173835	7	Sololá	701	Sololá	2	El tablón	8	Agosto	2023-08-25T00:00:00	2024-11-06T10:00:00	3	Temperatura mínima	17.1
173836	7	Sololá	701	Sololá	2	El tablón	8	Agosto	2023-08-25T00:00:00	2024-11-06T10:00:00	5	Humedad	83
173837	7	Sololá	701	Sololá	2	El tablón	8	Agosto	2023-08-25T00:00:00	2024-11-06T10:00:00	6	Velocidad del viento	4.8
173838	7	Sololá	701	Sololá	2	El tablón	8	Agosto	2023-08-25T00:00:00	2024-11-06T10:00:00	7	Dirección del viento	4.83
173839	7	Sololá	701	Sololá	2	El tablón	8	Agosto	2023-08-25T00:00:00	2024-11-06T10:00:00	1	Precipitación	0
173840	7	Sololá	701	Sololá	2	El tablón	8	Agosto	2023-08-25T00:00:00	2024-11-06T10:00:00	8	Radiación solar	684
173841	7	Sololá	701	Sololá	2	El tablón	8	Agosto	2023-08-25T00:00:00	2024-11-06T11:00:00	2	Temperatura media	17.3
173842	7	Sololá	701	Sololá	2	El tablón	8	Agosto	2023-08-25T00:00:00	2024-11-06T11:00:00	4	Temperatura máxima	17.8
173843	7	Sololá	701	Sololá	2	El tablón	8	Agosto	2023-08-25T00:00:00	2024-11-06T11:00:00	3	Temperatura mínima	17.1
173844	7	Sololá	701	Sololá	2	El tablón	8	Agosto	2023-08-25T00:00:00	2024-11-06T11:00:00	5	Humedad	83
173845	7	Sololá	701	Sololá	2	El tablón	8	Agosto	2023-08-25T00:00:00	2024-11-06T11:00:00	6	Velocidad del viento	6.4
173846	7	Sololá	701	Sololá	2	El tablón	8	Agosto	2023-08-25T00:00:00	2024-11-06T11:00:00	7	Dirección del viento	6.44
173847	7	Sololá	701	Sololá	2	El tablón	8	Agosto	2023-08-25T00:00:00	2024-11-06T11:00:00	1	Precipitación	0
173848	7	Sololá	701	Sololá	2	El tablón	8	Agosto	2023-08-25T00:00:00	2024-11-06T11:00:00	8	Radiación solar	660
173849	7	Sololá	701	Sololá	2	El tablón	8	Agosto	2023-08-25T00:00:00	2024-11-06T12:00:00	2	Temperatura media	18.7
173850	7	Sololá	701	Sololá	2	El tablón	8	Agosto	2023-08-25T00:00:00	2024-11-06T12:00:00	4	Temperatura máxima	18.7
173851	7	Sololá	701	Sololá	2	El tablón	8	Agosto	2023-08-25T00:00:00	2024-11-06T12:00:00	3	Temperatura mínima	17.3
173852	7	Sololá	701	Sololá	2	El tablón	8	Agosto	2023-08-25T00:00:00	2024-11-06T12:00:00	5	Humedad	78
173853	7	Sololá	701	Sololá	2	El tablón	8	Agosto	2023-08-25T00:00:00	2024-11-06T12:00:00	6	Velocidad del viento	6.4
173854	7	Sololá	701	Sololá	2	El tablón	8	Agosto	2023-08-25T00:00:00	2024-11-06T12:00:00	7	Dirección del viento	6.44
173855	7	Sololá	701	Sololá	2	El tablón	8	Agosto	2023-08-25T00:00:00	2024-11-06T12:00:00	1	Precipitación	0
173856	7	Sololá	701	Sololá	2	El tablón	8	Agosto	2023-08-25T00:00:00	2024-11-06T12:00:00	8	Radiación solar	696
173857	7	Sololá	701	Sololá	2	El tablón	8	Agosto	2023-08-25T00:00:00	2024-11-06T13:00:00	2	Temperatura media	18.1
173858	7	Sololá	701	Sololá	2	El tablón	8	Agosto	2023-08-25T00:00:00	2024-11-06T13:00:00	4	Temperatura máxima	19.2
173859	7	Sololá	701	Sololá	2	El tablón	8	Agosto	2023-08-25T00:00:00	2024-11-06T13:00:00	3	Temperatura mínima	18
173860	7	Sololá	701	Sololá	2	El tablón	8	Agosto	2023-08-25T00:00:00	2024-11-06T13:00:00	5	Humedad	83
173861	7	Sololá	701	Sololá	2	El tablón	8	Agosto	2023-08-25T00:00:00	2024-11-06T13:00:00	6	Velocidad del viento	8
173862	7	Sololá	701	Sololá	2	El tablón	8	Agosto	2023-08-25T00:00:00	2024-11-06T13:00:00	7	Dirección del viento	8.05
173863	7	Sololá	701	Sololá	2	El tablón	8	Agosto	2023-08-25T00:00:00	2024-11-06T13:00:00	1	Precipitación	0
173864	7	Sololá	701	Sololá	2	El tablón	8	Agosto	2023-08-25T00:00:00	2024-11-06T13:00:00	8	Radiación solar	789
173865	7	Sololá	701	Sololá	2	El tablón	8	Agosto	2023-08-25T00:00:00	2024-11-06T14:00:00	2	Temperatura media	17.6
173866	7	Sololá	701	Sololá	2	El tablón	8	Agosto	2023-08-25T00:00:00	2024-11-06T14:00:00	4	Temperatura máxima	18.1
173867	7	Sololá	701	Sololá	2	El tablón	8	Agosto	2023-08-25T00:00:00	2024-11-06T14:00:00	3	Temperatura mínima	17.2
173868	7	Sololá	701	Sololá	2	El tablón	8	Agosto	2023-08-25T00:00:00	2024-11-06T14:00:00	5	Humedad	85
173869	7	Sololá	701	Sololá	2	El tablón	8	Agosto	2023-08-25T00:00:00	2024-11-06T14:00:00	6	Velocidad del viento	6.4
173870	7	Sololá	701	Sololá	2	El tablón	8	Agosto	2023-08-25T00:00:00	2024-11-06T14:00:00	7	Dirección del viento	6.44
173871	7	Sololá	701	Sololá	2	El tablón	8	Agosto	2023-08-25T00:00:00	2024-11-06T14:00:00	1	Precipitación	0
173872	7	Sololá	701	Sololá	2	El tablón	8	Agosto	2023-08-25T00:00:00	2024-11-06T14:00:00	8	Radiación solar	468
173873	7	Sololá	701	Sololá	2	El tablón	8	Agosto	2023-08-25T00:00:00	2024-11-06T15:00:00	2	Temperatura media	17.4
173874	7	Sololá	701	Sololá	2	El tablón	8	Agosto	2023-08-25T00:00:00	2024-11-06T15:00:00	4	Temperatura máxima	17.9
173875	7	Sololá	701	Sololá	2	El tablón	8	Agosto	2023-08-25T00:00:00	2024-11-06T15:00:00	3	Temperatura mínima	17.1
173876	7	Sololá	701	Sololá	2	El tablón	8	Agosto	2023-08-25T00:00:00	2024-11-06T15:00:00	5	Humedad	86
173877	7	Sololá	701	Sololá	2	El tablón	8	Agosto	2023-08-25T00:00:00	2024-11-06T15:00:00	6	Velocidad del viento	6.4
173878	7	Sololá	701	Sololá	2	El tablón	8	Agosto	2023-08-25T00:00:00	2024-11-06T15:00:00	7	Dirección del viento	6.44
173879	7	Sololá	701	Sololá	2	El tablón	8	Agosto	2023-08-25T00:00:00	2024-11-06T15:00:00	1	Precipitación	0
173880	7	Sololá	701	Sololá	2	El tablón	8	Agosto	2023-08-25T00:00:00	2024-11-06T15:00:00	8	Radiación solar	413
173881	7	Sololá	701	Sololá	2	El tablón	8	Agosto	2023-08-25T00:00:00	2024-11-06T16:00:00	2	Temperatura media	16.3
173882	7	Sololá	701	Sololá	2	El tablón	8	Agosto	2023-08-25T00:00:00	2024-11-06T16:00:00	4	Temperatura máxima	17.4
173883	7	Sololá	701	Sololá	2	El tablón	8	Agosto	2023-08-25T00:00:00	2024-11-06T16:00:00	3	Temperatura mínima	16.3
173884	7	Sololá	701	Sololá	2	El tablón	8	Agosto	2023-08-25T00:00:00	2024-11-06T16:00:00	5	Humedad	87
173885	7	Sololá	701	Sololá	2	El tablón	8	Agosto	2023-08-25T00:00:00	2024-11-06T16:00:00	6	Velocidad del viento	6.4
173886	7	Sololá	701	Sololá	2	El tablón	8	Agosto	2023-08-25T00:00:00	2024-11-06T16:00:00	7	Dirección del viento	6.44
173887	7	Sololá	701	Sololá	2	El tablón	8	Agosto	2023-08-25T00:00:00	2024-11-06T16:00:00	1	Precipitación	0
173888	7	Sololá	701	Sololá	2	El tablón	8	Agosto	2023-08-25T00:00:00	2024-11-06T16:00:00	8	Radiación solar	213
173889	7	Sololá	701	Sololá	2	El tablón	8	Agosto	2023-08-25T00:00:00	2024-11-06T17:00:00	2	Temperatura media	15.8
173890	7	Sololá	701	Sololá	2	El tablón	8	Agosto	2023-08-25T00:00:00	2024-11-06T17:00:00	4	Temperatura máxima	16.3
173891	7	Sololá	701	Sololá	2	El tablón	8	Agosto	2023-08-25T00:00:00	2024-11-06T17:00:00	3	Temperatura mínima	15.8
173892	7	Sololá	701	Sololá	2	El tablón	8	Agosto	2023-08-25T00:00:00	2024-11-06T17:00:00	5	Humedad	88
173893	7	Sololá	701	Sololá	2	El tablón	8	Agosto	2023-08-25T00:00:00	2024-11-06T17:00:00	6	Velocidad del viento	4.8
173894	7	Sololá	701	Sololá	2	El tablón	8	Agosto	2023-08-25T00:00:00	2024-11-06T17:00:00	7	Dirección del viento	4.83
173895	7	Sololá	701	Sololá	2	El tablón	8	Agosto	2023-08-25T00:00:00	2024-11-06T17:00:00	1	Precipitación	0
173896	7	Sololá	701	Sololá	2	El tablón	8	Agosto	2023-08-25T00:00:00	2024-11-06T17:00:00	8	Radiación solar	95
173897	7	Sololá	701	Sololá	2	El tablón	8	Agosto	2023-08-25T00:00:00	2024-11-06T18:00:00	2	Temperatura media	16
173898	7	Sololá	701	Sololá	2	El tablón	8	Agosto	2023-08-25T00:00:00	2024-11-06T18:00:00	4	Temperatura máxima	16
173899	7	Sololá	701	Sololá	2	El tablón	8	Agosto	2023-08-25T00:00:00	2024-11-06T18:00:00	3	Temperatura mínima	15.8
173900	7	Sololá	701	Sololá	2	El tablón	8	Agosto	2023-08-25T00:00:00	2024-11-06T18:00:00	5	Humedad	88
173901	7	Sololá	701	Sololá	2	El tablón	8	Agosto	2023-08-25T00:00:00	2024-11-06T18:00:00	6	Velocidad del viento	3.2
173902	7	Sololá	701	Sololá	2	El tablón	8	Agosto	2023-08-25T00:00:00	2024-11-06T18:00:00	7	Dirección del viento	3.22
173903	7	Sololá	701	Sololá	2	El tablón	8	Agosto	2023-08-25T00:00:00	2024-11-06T18:00:00	1	Precipitación	0
173904	7	Sololá	701	Sololá	2	El tablón	8	Agosto	2023-08-25T00:00:00	2024-11-06T18:00:00	8	Radiación solar	71
173905	7	Sololá	701	Sololá	2	El tablón	8	Agosto	2023-08-25T00:00:00	2024-11-06T19:00:00	2	Temperatura media	15.3
173906	7	Sololá	701	Sololá	2	El tablón	8	Agosto	2023-08-25T00:00:00	2024-11-06T19:00:00	4	Temperatura máxima	16.1
173907	7	Sololá	701	Sololá	2	El tablón	8	Agosto	2023-08-25T00:00:00	2024-11-06T19:00:00	3	Temperatura mínima	15.3
173908	7	Sololá	701	Sololá	2	El tablón	8	Agosto	2023-08-25T00:00:00	2024-11-06T19:00:00	5	Humedad	88
173909	7	Sololá	701	Sololá	2	El tablón	8	Agosto	2023-08-25T00:00:00	2024-11-06T19:00:00	6	Velocidad del viento	0
173910	7	Sololá	701	Sololá	2	El tablón	8	Agosto	2023-08-25T00:00:00	2024-11-06T19:00:00	7	Dirección del viento	0
173911	7	Sololá	701	Sololá	2	El tablón	8	Agosto	2023-08-25T00:00:00	2024-11-06T19:00:00	1	Precipitación	0
173912	7	Sololá	701	Sololá	2	El tablón	8	Agosto	2023-08-25T00:00:00	2024-11-06T19:00:00	8	Radiación solar	0
173913	7	Sololá	701	Sololá	2	El tablón	8	Agosto	2023-08-25T00:00:00	2024-11-06T20:00:00	2	Temperatura media	14.7
173914	7	Sololá	701	Sololá	2	El tablón	8	Agosto	2023-08-25T00:00:00	2024-11-06T20:00:00	4	Temperatura máxima	15.3
173915	7	Sololá	701	Sololá	2	El tablón	8	Agosto	2023-08-25T00:00:00	2024-11-06T20:00:00	3	Temperatura mínima	14.7
173916	7	Sololá	701	Sololá	2	El tablón	8	Agosto	2023-08-25T00:00:00	2024-11-06T20:00:00	5	Humedad	88
173917	7	Sololá	701	Sololá	2	El tablón	8	Agosto	2023-08-25T00:00:00	2024-11-06T20:00:00	6	Velocidad del viento	0
173918	7	Sololá	701	Sololá	2	El tablón	8	Agosto	2023-08-25T00:00:00	2024-11-06T20:00:00	7	Dirección del viento	0
173919	7	Sololá	701	Sololá	2	El tablón	8	Agosto	2023-08-25T00:00:00	2024-11-06T20:00:00	1	Precipitación	0
173920	7	Sololá	701	Sololá	2	El tablón	8	Agosto	2023-08-25T00:00:00	2024-11-06T20:00:00	8	Radiación solar	0
173921	7	Sololá	701	Sololá	2	El tablón	8	Agosto	2023-08-25T00:00:00	2024-11-06T21:00:00	2	Temperatura media	14.8
173922	7	Sololá	701	Sololá	2	El tablón	8	Agosto	2023-08-25T00:00:00	2024-11-06T21:00:00	4	Temperatura máxima	14.9
173923	7	Sololá	701	Sololá	2	El tablón	8	Agosto	2023-08-25T00:00:00	2024-11-06T21:00:00	3	Temperatura mínima	14.7
173924	7	Sololá	701	Sololá	2	El tablón	8	Agosto	2023-08-25T00:00:00	2024-11-06T21:00:00	5	Humedad	87
173925	7	Sololá	701	Sololá	2	El tablón	8	Agosto	2023-08-25T00:00:00	2024-11-06T21:00:00	6	Velocidad del viento	0
173926	7	Sololá	701	Sololá	2	El tablón	8	Agosto	2023-08-25T00:00:00	2024-11-06T21:00:00	7	Dirección del viento	0
173927	7	Sololá	701	Sololá	2	El tablón	8	Agosto	2023-08-25T00:00:00	2024-11-06T21:00:00	1	Precipitación	0
173928	7	Sololá	701	Sololá	2	El tablón	8	Agosto	2023-08-25T00:00:00	2024-11-06T21:00:00	8	Radiación solar	0
173929	7	Sololá	701	Sololá	2	El tablón	8	Agosto	2023-08-25T00:00:00	2024-11-06T22:00:00	2	Temperatura media	14.7
173930	7	Sololá	701	Sololá	2	El tablón	8	Agosto	2023-08-25T00:00:00	2024-11-06T22:00:00	4	Temperatura máxima	14.8
173931	7	Sololá	701	Sololá	2	El tablón	8	Agosto	2023-08-25T00:00:00	2024-11-06T22:00:00	3	Temperatura mínima	14.7
173932	7	Sololá	701	Sololá	2	El tablón	8	Agosto	2023-08-25T00:00:00	2024-11-06T22:00:00	5	Humedad	87
173933	7	Sololá	701	Sololá	2	El tablón	8	Agosto	2023-08-25T00:00:00	2024-11-06T22:00:00	6	Velocidad del viento	0
173934	7	Sololá	701	Sololá	2	El tablón	8	Agosto	2023-08-25T00:00:00	2024-11-06T22:00:00	7	Dirección del viento	0
173935	7	Sololá	701	Sololá	2	El tablón	8	Agosto	2023-08-25T00:00:00	2024-11-06T22:00:00	1	Precipitación	0
173936	7	Sololá	701	Sololá	2	El tablón	8	Agosto	2023-08-25T00:00:00	2024-11-06T22:00:00	8	Radiación solar	0
173937	7	Sololá	701	Sololá	2	El tablón	8	Agosto	2023-08-25T00:00:00	2024-11-06T23:00:00	2	Temperatura media	14.5
173938	7	Sololá	701	Sololá	2	El tablón	8	Agosto	2023-08-25T00:00:00	2024-11-06T23:00:00	4	Temperatura máxima	14.7
173939	7	Sololá	701	Sololá	2	El tablón	8	Agosto	2023-08-25T00:00:00	2024-11-06T23:00:00	3	Temperatura mínima	14.4
173940	7	Sololá	701	Sololá	2	El tablón	8	Agosto	2023-08-25T00:00:00	2024-11-06T23:00:00	5	Humedad	87
173941	7	Sololá	701	Sololá	2	El tablón	8	Agosto	2023-08-25T00:00:00	2024-11-06T23:00:00	6	Velocidad del viento	0
173942	7	Sololá	701	Sololá	2	El tablón	8	Agosto	2023-08-25T00:00:00	2024-11-06T23:00:00	7	Dirección del viento	0
173943	7	Sololá	701	Sololá	2	El tablón	8	Agosto	2023-08-25T00:00:00	2024-11-06T23:00:00	1	Precipitación	0
173944	7	Sololá	701	Sololá	2	El tablón	8	Agosto	2023-08-25T00:00:00	2024-11-06T23:00:00	8	Radiación solar	0
173945	7	Sololá	701	Sololá	2	El tablón	8	Agosto	2023-08-26T00:00:00	2024-11-06T00:00:00	2	Temperatura media	14.4
173946	7	Sololá	701	Sololá	2	El tablón	8	Agosto	2023-08-26T00:00:00	2024-11-06T00:00:00	4	Temperatura máxima	14.5
173947	7	Sololá	701	Sololá	2	El tablón	8	Agosto	2023-08-26T00:00:00	2024-11-06T00:00:00	3	Temperatura mínima	14.3
173948	7	Sololá	701	Sololá	2	El tablón	8	Agosto	2023-08-26T00:00:00	2024-11-06T00:00:00	5	Humedad	87
173949	7	Sololá	701	Sololá	2	El tablón	8	Agosto	2023-08-26T00:00:00	2024-11-06T00:00:00	6	Velocidad del viento	0
173950	7	Sololá	701	Sololá	2	El tablón	8	Agosto	2023-08-26T00:00:00	2024-11-06T00:00:00	7	Dirección del viento	0
173951	7	Sololá	701	Sololá	2	El tablón	8	Agosto	2023-08-26T00:00:00	2024-11-06T00:00:00	1	Precipitación	0
173952	7	Sololá	701	Sololá	2	El tablón	8	Agosto	2023-08-26T00:00:00	2024-11-06T00:00:00	8	Radiación solar	0
173953	7	Sololá	701	Sololá	2	El tablón	8	Agosto	2023-08-26T00:00:00	2024-11-06T01:00:00	2	Temperatura media	13.4
173954	7	Sololá	701	Sololá	2	El tablón	8	Agosto	2023-08-26T00:00:00	2024-11-06T01:00:00	4	Temperatura máxima	14.4
173955	7	Sololá	701	Sololá	2	El tablón	8	Agosto	2023-08-26T00:00:00	2024-11-06T01:00:00	3	Temperatura mínima	13.4
173956	7	Sololá	701	Sololá	2	El tablón	8	Agosto	2023-08-26T00:00:00	2024-11-06T01:00:00	5	Humedad	88
173957	7	Sololá	701	Sololá	2	El tablón	8	Agosto	2023-08-26T00:00:00	2024-11-06T01:00:00	6	Velocidad del viento	0
173958	7	Sololá	701	Sololá	2	El tablón	8	Agosto	2023-08-26T00:00:00	2024-11-06T01:00:00	7	Dirección del viento	0
173959	7	Sololá	701	Sololá	2	El tablón	8	Agosto	2023-08-26T00:00:00	2024-11-06T01:00:00	1	Precipitación	0
173960	7	Sololá	701	Sololá	2	El tablón	8	Agosto	2023-08-26T00:00:00	2024-11-06T01:00:00	8	Radiación solar	0
173961	7	Sololá	701	Sololá	2	El tablón	8	Agosto	2023-08-26T00:00:00	2024-11-06T02:00:00	2	Temperatura media	12.9
173962	7	Sololá	701	Sololá	2	El tablón	8	Agosto	2023-08-26T00:00:00	2024-11-06T02:00:00	4	Temperatura máxima	13.4
173963	7	Sololá	701	Sololá	2	El tablón	8	Agosto	2023-08-26T00:00:00	2024-11-06T02:00:00	3	Temperatura mínima	12.9
173964	7	Sololá	701	Sololá	2	El tablón	8	Agosto	2023-08-26T00:00:00	2024-11-06T02:00:00	5	Humedad	89
173965	7	Sololá	701	Sololá	2	El tablón	8	Agosto	2023-08-26T00:00:00	2024-11-06T02:00:00	6	Velocidad del viento	0
173966	7	Sololá	701	Sololá	2	El tablón	8	Agosto	2023-08-26T00:00:00	2024-11-06T02:00:00	7	Dirección del viento	0
173967	7	Sololá	701	Sololá	2	El tablón	8	Agosto	2023-08-26T00:00:00	2024-11-06T02:00:00	1	Precipitación	0
173968	7	Sololá	701	Sololá	2	El tablón	8	Agosto	2023-08-26T00:00:00	2024-11-06T02:00:00	8	Radiación solar	0
173969	7	Sololá	701	Sololá	2	El tablón	8	Agosto	2023-08-26T00:00:00	2024-11-06T03:00:00	2	Temperatura media	12.7
173970	7	Sololá	701	Sololá	2	El tablón	8	Agosto	2023-08-26T00:00:00	2024-11-06T03:00:00	4	Temperatura máxima	12.9
173971	7	Sololá	701	Sololá	2	El tablón	8	Agosto	2023-08-26T00:00:00	2024-11-06T03:00:00	3	Temperatura mínima	12.7
173972	7	Sololá	701	Sololá	2	El tablón	8	Agosto	2023-08-26T00:00:00	2024-11-06T03:00:00	5	Humedad	89
173973	7	Sololá	701	Sololá	2	El tablón	8	Agosto	2023-08-26T00:00:00	2024-11-06T03:00:00	6	Velocidad del viento	1.6
173974	7	Sololá	701	Sololá	2	El tablón	8	Agosto	2023-08-26T00:00:00	2024-11-06T03:00:00	7	Dirección del viento	1.61
173975	7	Sololá	701	Sololá	2	El tablón	8	Agosto	2023-08-26T00:00:00	2024-11-06T03:00:00	1	Precipitación	0
173976	7	Sololá	701	Sololá	2	El tablón	8	Agosto	2023-08-26T00:00:00	2024-11-06T03:00:00	8	Radiación solar	0
173977	7	Sololá	701	Sololá	2	El tablón	8	Agosto	2023-08-26T00:00:00	2024-11-06T04:00:00	2	Temperatura media	11.9
173978	7	Sololá	701	Sololá	2	El tablón	8	Agosto	2023-08-26T00:00:00	2024-11-06T04:00:00	4	Temperatura máxima	12.7
173979	7	Sololá	701	Sololá	2	El tablón	8	Agosto	2023-08-26T00:00:00	2024-11-06T04:00:00	3	Temperatura mínima	11.8
173980	7	Sololá	701	Sololá	2	El tablón	8	Agosto	2023-08-26T00:00:00	2024-11-06T04:00:00	5	Humedad	88
173981	7	Sololá	701	Sololá	2	El tablón	8	Agosto	2023-08-26T00:00:00	2024-11-06T04:00:00	6	Velocidad del viento	3.2
173982	7	Sololá	701	Sololá	2	El tablón	8	Agosto	2023-08-26T00:00:00	2024-11-06T04:00:00	7	Dirección del viento	3.22
173983	7	Sololá	701	Sololá	2	El tablón	8	Agosto	2023-08-26T00:00:00	2024-11-06T04:00:00	1	Precipitación	0
173984	7	Sololá	701	Sololá	2	El tablón	8	Agosto	2023-08-26T00:00:00	2024-11-06T04:00:00	8	Radiación solar	0
173985	7	Sololá	701	Sololá	2	El tablón	8	Agosto	2023-08-26T00:00:00	2024-11-06T05:00:00	2	Temperatura media	12.6
173986	7	Sololá	701	Sololá	2	El tablón	8	Agosto	2023-08-26T00:00:00	2024-11-06T05:00:00	4	Temperatura máxima	12.6
173987	7	Sololá	701	Sololá	2	El tablón	8	Agosto	2023-08-26T00:00:00	2024-11-06T05:00:00	3	Temperatura mínima	11.9
173988	7	Sololá	701	Sololá	2	El tablón	8	Agosto	2023-08-26T00:00:00	2024-11-06T05:00:00	5	Humedad	89
173989	7	Sololá	701	Sololá	2	El tablón	8	Agosto	2023-08-26T00:00:00	2024-11-06T05:00:00	6	Velocidad del viento	1.6
173990	7	Sololá	701	Sololá	2	El tablón	8	Agosto	2023-08-26T00:00:00	2024-11-06T05:00:00	7	Dirección del viento	1.61
173991	7	Sololá	701	Sololá	2	El tablón	8	Agosto	2023-08-26T00:00:00	2024-11-06T05:00:00	1	Precipitación	0
173992	7	Sololá	701	Sololá	2	El tablón	8	Agosto	2023-08-26T00:00:00	2024-11-06T05:00:00	8	Radiación solar	0
173993	7	Sololá	701	Sololá	2	El tablón	8	Agosto	2023-08-26T00:00:00	2024-11-06T06:00:00	2	Temperatura media	12.4
173994	7	Sololá	701	Sololá	2	El tablón	8	Agosto	2023-08-26T00:00:00	2024-11-06T06:00:00	4	Temperatura máxima	12.8
173995	7	Sololá	701	Sololá	2	El tablón	8	Agosto	2023-08-26T00:00:00	2024-11-06T06:00:00	3	Temperatura mínima	12.4
173996	7	Sololá	701	Sololá	2	El tablón	8	Agosto	2023-08-26T00:00:00	2024-11-06T06:00:00	5	Humedad	89
173997	7	Sololá	701	Sololá	2	El tablón	8	Agosto	2023-08-26T00:00:00	2024-11-06T06:00:00	6	Velocidad del viento	1.6
173998	7	Sololá	701	Sololá	2	El tablón	8	Agosto	2023-08-26T00:00:00	2024-11-06T06:00:00	7	Dirección del viento	1.61
173999	7	Sololá	701	Sololá	2	El tablón	8	Agosto	2023-08-26T00:00:00	2024-11-06T06:00:00	1	Precipitación	0
174000	7	Sololá	701	Sololá	2	El tablón	8	Agosto	2023-08-26T00:00:00	2024-11-06T06:00:00	8	Radiación solar	0
174001	7	Sololá	701	Sololá	2	El tablón	8	Agosto	2023-08-26T00:00:00	2024-11-06T07:00:00	2	Temperatura media	14.3
174002	7	Sololá	701	Sololá	2	El tablón	8	Agosto	2023-08-26T00:00:00	2024-11-06T07:00:00	4	Temperatura máxima	14.3
174003	7	Sololá	701	Sololá	2	El tablón	8	Agosto	2023-08-26T00:00:00	2024-11-06T07:00:00	3	Temperatura mínima	12.4
174004	7	Sololá	701	Sololá	2	El tablón	8	Agosto	2023-08-26T00:00:00	2024-11-06T07:00:00	5	Humedad	88
174005	7	Sololá	701	Sololá	2	El tablón	8	Agosto	2023-08-26T00:00:00	2024-11-06T07:00:00	6	Velocidad del viento	3.2
174006	7	Sololá	701	Sololá	2	El tablón	8	Agosto	2023-08-26T00:00:00	2024-11-06T07:00:00	7	Dirección del viento	3.22
174007	7	Sololá	701	Sololá	2	El tablón	8	Agosto	2023-08-26T00:00:00	2024-11-06T07:00:00	1	Precipitación	0
174008	7	Sololá	701	Sololá	2	El tablón	8	Agosto	2023-08-26T00:00:00	2024-11-06T07:00:00	8	Radiación solar	96
174009	7	Sololá	701	Sololá	2	El tablón	8	Agosto	2023-08-26T00:00:00	2024-11-06T08:00:00	2	Temperatura media	17.2
174010	7	Sololá	701	Sololá	2	El tablón	8	Agosto	2023-08-26T00:00:00	2024-11-06T08:00:00	4	Temperatura máxima	17.2
174011	7	Sololá	701	Sololá	2	El tablón	8	Agosto	2023-08-26T00:00:00	2024-11-06T08:00:00	3	Temperatura mínima	14.3
174012	7	Sololá	701	Sololá	2	El tablón	8	Agosto	2023-08-26T00:00:00	2024-11-06T08:00:00	5	Humedad	80
174013	7	Sololá	701	Sololá	2	El tablón	8	Agosto	2023-08-26T00:00:00	2024-11-06T08:00:00	6	Velocidad del viento	1.6
174014	7	Sololá	701	Sololá	2	El tablón	8	Agosto	2023-08-26T00:00:00	2024-11-06T08:00:00	7	Dirección del viento	1.61
174015	7	Sololá	701	Sololá	2	El tablón	8	Agosto	2023-08-26T00:00:00	2024-11-06T08:00:00	1	Precipitación	0
174016	7	Sololá	701	Sololá	2	El tablón	8	Agosto	2023-08-26T00:00:00	2024-11-06T08:00:00	8	Radiación solar	292
174017	7	Sololá	701	Sololá	2	El tablón	8	Agosto	2023-08-26T00:00:00	2024-11-06T09:00:00	2	Temperatura media	18.5
174018	7	Sololá	701	Sololá	2	El tablón	8	Agosto	2023-08-26T00:00:00	2024-11-06T09:00:00	4	Temperatura máxima	18.6
174019	7	Sololá	701	Sololá	2	El tablón	8	Agosto	2023-08-26T00:00:00	2024-11-06T09:00:00	3	Temperatura mínima	17.2
174020	7	Sololá	701	Sololá	2	El tablón	8	Agosto	2023-08-26T00:00:00	2024-11-06T09:00:00	5	Humedad	80
174021	7	Sololá	701	Sololá	2	El tablón	8	Agosto	2023-08-26T00:00:00	2024-11-06T09:00:00	6	Velocidad del viento	3.2
174022	7	Sololá	701	Sololá	2	El tablón	8	Agosto	2023-08-26T00:00:00	2024-11-06T09:00:00	7	Dirección del viento	3.22
174023	7	Sololá	701	Sololá	2	El tablón	8	Agosto	2023-08-26T00:00:00	2024-11-06T09:00:00	1	Precipitación	0
174024	7	Sololá	701	Sololá	2	El tablón	8	Agosto	2023-08-26T00:00:00	2024-11-06T09:00:00	8	Radiación solar	506
174025	7	Sololá	701	Sololá	2	El tablón	8	Agosto	2023-08-26T00:00:00	2024-11-06T10:00:00	2	Temperatura media	18.6
174026	7	Sololá	701	Sololá	2	El tablón	8	Agosto	2023-08-26T00:00:00	2024-11-06T10:00:00	4	Temperatura máxima	18.6
174027	7	Sololá	701	Sololá	2	El tablón	8	Agosto	2023-08-26T00:00:00	2024-11-06T10:00:00	3	Temperatura mínima	18.1
174028	7	Sololá	701	Sololá	2	El tablón	8	Agosto	2023-08-26T00:00:00	2024-11-06T10:00:00	5	Humedad	81
174029	7	Sololá	701	Sololá	2	El tablón	8	Agosto	2023-08-26T00:00:00	2024-11-06T10:00:00	6	Velocidad del viento	6.4
174030	7	Sololá	701	Sololá	2	El tablón	8	Agosto	2023-08-26T00:00:00	2024-11-06T10:00:00	7	Dirección del viento	6.44
174031	7	Sololá	701	Sololá	2	El tablón	8	Agosto	2023-08-26T00:00:00	2024-11-06T10:00:00	1	Precipitación	0
174032	7	Sololá	701	Sololá	2	El tablón	8	Agosto	2023-08-26T00:00:00	2024-11-06T10:00:00	8	Radiación solar	718
174033	7	Sololá	701	Sololá	2	El tablón	8	Agosto	2023-08-26T00:00:00	2024-11-06T11:00:00	2	Temperatura media	19.3
174034	7	Sololá	701	Sololá	2	El tablón	8	Agosto	2023-08-26T00:00:00	2024-11-06T11:00:00	4	Temperatura máxima	19.5
174035	7	Sololá	701	Sololá	2	El tablón	8	Agosto	2023-08-26T00:00:00	2024-11-06T11:00:00	3	Temperatura mínima	18.4
174036	7	Sololá	701	Sololá	2	El tablón	8	Agosto	2023-08-26T00:00:00	2024-11-06T11:00:00	5	Humedad	75
174037	7	Sololá	701	Sololá	2	El tablón	8	Agosto	2023-08-26T00:00:00	2024-11-06T11:00:00	6	Velocidad del viento	6.4
174038	7	Sololá	701	Sololá	2	El tablón	8	Agosto	2023-08-26T00:00:00	2024-11-06T11:00:00	7	Dirección del viento	6.44
174039	7	Sololá	701	Sololá	2	El tablón	8	Agosto	2023-08-26T00:00:00	2024-11-06T11:00:00	1	Precipitación	0
174040	7	Sololá	701	Sololá	2	El tablón	8	Agosto	2023-08-26T00:00:00	2024-11-06T11:00:00	8	Radiación solar	845
174041	7	Sololá	701	Sololá	2	El tablón	8	Agosto	2023-08-26T00:00:00	2024-11-06T12:00:00	2	Temperatura media	19.1
174042	7	Sololá	701	Sololá	2	El tablón	8	Agosto	2023-08-26T00:00:00	2024-11-06T12:00:00	4	Temperatura máxima	19.6
174043	7	Sololá	701	Sololá	2	El tablón	8	Agosto	2023-08-26T00:00:00	2024-11-06T12:00:00	3	Temperatura mínima	18.9
174044	7	Sololá	701	Sololá	2	El tablón	8	Agosto	2023-08-26T00:00:00	2024-11-06T12:00:00	5	Humedad	80
174045	7	Sololá	701	Sololá	2	El tablón	8	Agosto	2023-08-26T00:00:00	2024-11-06T12:00:00	6	Velocidad del viento	9.7
174046	7	Sololá	701	Sololá	2	El tablón	8	Agosto	2023-08-26T00:00:00	2024-11-06T12:00:00	7	Dirección del viento	9.66
174047	7	Sololá	701	Sololá	2	El tablón	8	Agosto	2023-08-26T00:00:00	2024-11-06T12:00:00	1	Precipitación	0
174048	7	Sololá	701	Sololá	2	El tablón	8	Agosto	2023-08-26T00:00:00	2024-11-06T12:00:00	8	Radiación solar	925
174049	7	Sololá	701	Sololá	2	El tablón	8	Agosto	2023-08-26T00:00:00	2024-11-06T13:00:00	2	Temperatura media	18.3
174050	7	Sololá	701	Sololá	2	El tablón	8	Agosto	2023-08-26T00:00:00	2024-11-06T13:00:00	4	Temperatura máxima	19.3
174051	7	Sololá	701	Sololá	2	El tablón	8	Agosto	2023-08-26T00:00:00	2024-11-06T13:00:00	3	Temperatura mínima	18.3
174052	7	Sololá	701	Sololá	2	El tablón	8	Agosto	2023-08-26T00:00:00	2024-11-06T13:00:00	5	Humedad	84
174053	7	Sololá	701	Sololá	2	El tablón	8	Agosto	2023-08-26T00:00:00	2024-11-06T13:00:00	6	Velocidad del viento	9.7
174054	7	Sololá	701	Sololá	2	El tablón	8	Agosto	2023-08-26T00:00:00	2024-11-06T13:00:00	7	Dirección del viento	9.66
174055	7	Sololá	701	Sololá	2	El tablón	8	Agosto	2023-08-26T00:00:00	2024-11-06T13:00:00	1	Precipitación	0
174056	7	Sololá	701	Sololá	2	El tablón	8	Agosto	2023-08-26T00:00:00	2024-11-06T13:00:00	8	Radiación solar	827
174057	7	Sololá	701	Sololá	2	El tablón	8	Agosto	2023-08-26T00:00:00	2024-11-06T14:00:00	2	Temperatura media	18.3
174058	7	Sololá	701	Sololá	2	El tablón	8	Agosto	2023-08-26T00:00:00	2024-11-06T14:00:00	4	Temperatura máxima	18.6
174059	7	Sololá	701	Sololá	2	El tablón	8	Agosto	2023-08-26T00:00:00	2024-11-06T14:00:00	3	Temperatura mínima	18.1
174060	7	Sololá	701	Sololá	2	El tablón	8	Agosto	2023-08-26T00:00:00	2024-11-06T14:00:00	5	Humedad	83
174061	7	Sololá	701	Sololá	2	El tablón	8	Agosto	2023-08-26T00:00:00	2024-11-06T14:00:00	6	Velocidad del viento	8
174062	7	Sololá	701	Sololá	2	El tablón	8	Agosto	2023-08-26T00:00:00	2024-11-06T14:00:00	7	Dirección del viento	8.05
174063	7	Sololá	701	Sololá	2	El tablón	8	Agosto	2023-08-26T00:00:00	2024-11-06T14:00:00	1	Precipitación	0
174064	7	Sololá	701	Sololá	2	El tablón	8	Agosto	2023-08-26T00:00:00	2024-11-06T14:00:00	8	Radiación solar	375
174065	7	Sololá	701	Sololá	2	El tablón	8	Agosto	2023-08-26T00:00:00	2024-11-06T15:00:00	2	Temperatura media	17.4
174066	7	Sololá	701	Sololá	2	El tablón	8	Agosto	2023-08-26T00:00:00	2024-11-06T15:00:00	4	Temperatura máxima	18.4
174067	7	Sololá	701	Sololá	2	El tablón	8	Agosto	2023-08-26T00:00:00	2024-11-06T15:00:00	3	Temperatura mínima	17.4
174068	7	Sololá	701	Sololá	2	El tablón	8	Agosto	2023-08-26T00:00:00	2024-11-06T15:00:00	5	Humedad	86
174069	7	Sololá	701	Sololá	2	El tablón	8	Agosto	2023-08-26T00:00:00	2024-11-06T15:00:00	6	Velocidad del viento	8
174070	7	Sololá	701	Sololá	2	El tablón	8	Agosto	2023-08-26T00:00:00	2024-11-06T15:00:00	7	Dirección del viento	8.05
174071	7	Sololá	701	Sololá	2	El tablón	8	Agosto	2023-08-26T00:00:00	2024-11-06T15:00:00	1	Precipitación	0
174072	7	Sololá	701	Sololá	2	El tablón	8	Agosto	2023-08-26T00:00:00	2024-11-06T15:00:00	8	Radiación solar	352
174073	7	Sololá	701	Sololá	2	El tablón	8	Agosto	2023-08-26T00:00:00	2024-11-06T16:00:00	2	Temperatura media	16.4
174074	7	Sololá	701	Sololá	2	El tablón	8	Agosto	2023-08-26T00:00:00	2024-11-06T16:00:00	4	Temperatura máxima	17.4
174075	7	Sololá	701	Sololá	2	El tablón	8	Agosto	2023-08-26T00:00:00	2024-11-06T16:00:00	3	Temperatura mínima	16.4
174076	7	Sololá	701	Sololá	2	El tablón	8	Agosto	2023-08-26T00:00:00	2024-11-06T16:00:00	5	Humedad	88
174077	7	Sololá	701	Sololá	2	El tablón	8	Agosto	2023-08-26T00:00:00	2024-11-06T16:00:00	6	Velocidad del viento	8
174078	7	Sololá	701	Sololá	2	El tablón	8	Agosto	2023-08-26T00:00:00	2024-11-06T16:00:00	7	Dirección del viento	8.05
174079	7	Sololá	701	Sololá	2	El tablón	8	Agosto	2023-08-26T00:00:00	2024-11-06T16:00:00	1	Precipitación	0
174080	7	Sololá	701	Sololá	2	El tablón	8	Agosto	2023-08-26T00:00:00	2024-11-06T16:00:00	8	Radiación solar	182
174081	7	Sololá	701	Sololá	2	El tablón	8	Agosto	2023-08-26T00:00:00	2024-11-06T17:00:00	2	Temperatura media	16.4
174082	7	Sololá	701	Sololá	2	El tablón	8	Agosto	2023-08-26T00:00:00	2024-11-06T17:00:00	4	Temperatura máxima	16.5
174083	7	Sololá	701	Sololá	2	El tablón	8	Agosto	2023-08-26T00:00:00	2024-11-06T17:00:00	3	Temperatura mínima	16.2
174084	7	Sololá	701	Sololá	2	El tablón	8	Agosto	2023-08-26T00:00:00	2024-11-06T17:00:00	5	Humedad	88
174085	7	Sololá	701	Sololá	2	El tablón	8	Agosto	2023-08-26T00:00:00	2024-11-06T17:00:00	6	Velocidad del viento	6.4
174086	7	Sololá	701	Sololá	2	El tablón	8	Agosto	2023-08-26T00:00:00	2024-11-06T17:00:00	7	Dirección del viento	6.44
174087	7	Sololá	701	Sololá	2	El tablón	8	Agosto	2023-08-26T00:00:00	2024-11-06T17:00:00	1	Precipitación	0
174088	7	Sololá	701	Sololá	2	El tablón	8	Agosto	2023-08-26T00:00:00	2024-11-06T17:00:00	8	Radiación solar	172
174089	7	Sololá	701	Sololá	2	El tablón	8	Agosto	2023-08-26T00:00:00	2024-11-06T18:00:00	2	Temperatura media	16.2
174090	7	Sololá	701	Sololá	2	El tablón	8	Agosto	2023-08-26T00:00:00	2024-11-06T18:00:00	4	Temperatura máxima	16.7
174091	7	Sololá	701	Sololá	2	El tablón	8	Agosto	2023-08-26T00:00:00	2024-11-06T18:00:00	3	Temperatura mínima	16.2
174092	7	Sololá	701	Sololá	2	El tablón	8	Agosto	2023-08-26T00:00:00	2024-11-06T18:00:00	5	Humedad	88
174093	7	Sololá	701	Sololá	2	El tablón	8	Agosto	2023-08-26T00:00:00	2024-11-06T18:00:00	6	Velocidad del viento	4.8
174094	7	Sololá	701	Sololá	2	El tablón	8	Agosto	2023-08-26T00:00:00	2024-11-06T18:00:00	7	Dirección del viento	4.83
174095	7	Sololá	701	Sololá	2	El tablón	8	Agosto	2023-08-26T00:00:00	2024-11-06T18:00:00	1	Precipitación	0
174096	7	Sololá	701	Sololá	2	El tablón	8	Agosto	2023-08-26T00:00:00	2024-11-06T18:00:00	8	Radiación solar	111
174097	7	Sololá	701	Sololá	2	El tablón	8	Agosto	2023-08-26T00:00:00	2024-11-06T19:00:00	2	Temperatura media	15.5
174098	7	Sololá	701	Sololá	2	El tablón	8	Agosto	2023-08-26T00:00:00	2024-11-06T19:00:00	4	Temperatura máxima	16.2
174099	7	Sololá	701	Sololá	2	El tablón	8	Agosto	2023-08-26T00:00:00	2024-11-06T19:00:00	3	Temperatura mínima	15.5
174100	7	Sololá	701	Sololá	2	El tablón	8	Agosto	2023-08-26T00:00:00	2024-11-06T19:00:00	5	Humedad	88
174101	7	Sololá	701	Sololá	2	El tablón	8	Agosto	2023-08-26T00:00:00	2024-11-06T19:00:00	6	Velocidad del viento	1.6
174102	7	Sololá	701	Sololá	2	El tablón	8	Agosto	2023-08-26T00:00:00	2024-11-06T19:00:00	7	Dirección del viento	1.61
174103	7	Sololá	701	Sololá	2	El tablón	8	Agosto	2023-08-26T00:00:00	2024-11-06T19:00:00	1	Precipitación	0
174104	7	Sololá	701	Sololá	2	El tablón	8	Agosto	2023-08-26T00:00:00	2024-11-06T19:00:00	8	Radiación solar	0
174105	7	Sololá	701	Sololá	2	El tablón	8	Agosto	2023-08-26T00:00:00	2024-11-06T20:00:00	2	Temperatura media	15.4
174106	7	Sololá	701	Sololá	2	El tablón	8	Agosto	2023-08-26T00:00:00	2024-11-06T20:00:00	4	Temperatura máxima	15.6
174107	7	Sololá	701	Sololá	2	El tablón	8	Agosto	2023-08-26T00:00:00	2024-11-06T20:00:00	3	Temperatura mínima	15.3
174108	7	Sololá	701	Sololá	2	El tablón	8	Agosto	2023-08-26T00:00:00	2024-11-06T20:00:00	5	Humedad	88
174109	7	Sololá	701	Sololá	2	El tablón	8	Agosto	2023-08-26T00:00:00	2024-11-06T20:00:00	6	Velocidad del viento	0
174110	7	Sololá	701	Sololá	2	El tablón	8	Agosto	2023-08-26T00:00:00	2024-11-06T20:00:00	7	Dirección del viento	0
174111	7	Sololá	701	Sololá	2	El tablón	8	Agosto	2023-08-26T00:00:00	2024-11-06T20:00:00	1	Precipitación	0
174112	7	Sololá	701	Sololá	2	El tablón	8	Agosto	2023-08-26T00:00:00	2024-11-06T20:00:00	8	Radiación solar	0
174113	7	Sololá	701	Sololá	2	El tablón	8	Agosto	2023-08-26T00:00:00	2024-11-06T21:00:00	2	Temperatura media	15.2
174114	7	Sololá	701	Sololá	2	El tablón	8	Agosto	2023-08-26T00:00:00	2024-11-06T21:00:00	4	Temperatura máxima	15.5
174115	7	Sololá	701	Sololá	2	El tablón	8	Agosto	2023-08-26T00:00:00	2024-11-06T21:00:00	3	Temperatura mínima	15.2
174116	7	Sololá	701	Sololá	2	El tablón	8	Agosto	2023-08-26T00:00:00	2024-11-06T21:00:00	5	Humedad	88
174117	7	Sololá	701	Sololá	2	El tablón	8	Agosto	2023-08-26T00:00:00	2024-11-06T21:00:00	6	Velocidad del viento	1.6
174118	7	Sololá	701	Sololá	2	El tablón	8	Agosto	2023-08-26T00:00:00	2024-11-06T21:00:00	7	Dirección del viento	1.61
174119	7	Sololá	701	Sololá	2	El tablón	8	Agosto	2023-08-26T00:00:00	2024-11-06T21:00:00	1	Precipitación	0
174120	7	Sololá	701	Sololá	2	El tablón	8	Agosto	2023-08-26T00:00:00	2024-11-06T21:00:00	8	Radiación solar	0
174121	7	Sololá	701	Sololá	2	El tablón	8	Agosto	2023-08-26T00:00:00	2024-11-06T22:00:00	2	Temperatura media	14.8
174122	7	Sololá	701	Sololá	2	El tablón	8	Agosto	2023-08-26T00:00:00	2024-11-06T22:00:00	4	Temperatura máxima	15.2
174123	7	Sololá	701	Sololá	2	El tablón	8	Agosto	2023-08-26T00:00:00	2024-11-06T22:00:00	3	Temperatura mínima	14.8
174124	7	Sololá	701	Sololá	2	El tablón	8	Agosto	2023-08-26T00:00:00	2024-11-06T22:00:00	5	Humedad	88
174125	7	Sololá	701	Sololá	2	El tablón	8	Agosto	2023-08-26T00:00:00	2024-11-06T22:00:00	6	Velocidad del viento	1.6
174126	7	Sololá	701	Sololá	2	El tablón	8	Agosto	2023-08-26T00:00:00	2024-11-06T22:00:00	7	Dirección del viento	1.61
174127	7	Sololá	701	Sololá	2	El tablón	8	Agosto	2023-08-26T00:00:00	2024-11-06T22:00:00	1	Precipitación	0
174128	7	Sololá	701	Sololá	2	El tablón	8	Agosto	2023-08-26T00:00:00	2024-11-06T22:00:00	8	Radiación solar	0
174129	7	Sololá	701	Sololá	2	El tablón	8	Agosto	2023-08-26T00:00:00	2024-11-06T23:00:00	2	Temperatura media	14.9
174130	7	Sololá	701	Sololá	2	El tablón	8	Agosto	2023-08-26T00:00:00	2024-11-06T23:00:00	4	Temperatura máxima	15
174131	7	Sololá	701	Sololá	2	El tablón	8	Agosto	2023-08-26T00:00:00	2024-11-06T23:00:00	3	Temperatura mínima	14.8
174132	7	Sololá	701	Sololá	2	El tablón	8	Agosto	2023-08-26T00:00:00	2024-11-06T23:00:00	5	Humedad	88
174133	7	Sololá	701	Sololá	2	El tablón	8	Agosto	2023-08-26T00:00:00	2024-11-06T23:00:00	6	Velocidad del viento	0
174134	7	Sololá	701	Sololá	2	El tablón	8	Agosto	2023-08-26T00:00:00	2024-11-06T23:00:00	7	Dirección del viento	0
174135	7	Sololá	701	Sololá	2	El tablón	8	Agosto	2023-08-26T00:00:00	2024-11-06T23:00:00	1	Precipitación	0
174136	7	Sololá	701	Sololá	2	El tablón	8	Agosto	2023-08-26T00:00:00	2024-11-06T23:00:00	8	Radiación solar	0
174137	7	Sololá	701	Sololá	2	El tablón	8	Agosto	2023-08-27T00:00:00	2024-11-06T00:00:00	2	Temperatura media	14.7
174138	7	Sololá	701	Sololá	2	El tablón	8	Agosto	2023-08-27T00:00:00	2024-11-06T00:00:00	4	Temperatura máxima	14.9
174139	7	Sololá	701	Sololá	2	El tablón	8	Agosto	2023-08-27T00:00:00	2024-11-06T00:00:00	3	Temperatura mínima	14.7
174140	7	Sololá	701	Sololá	2	El tablón	8	Agosto	2023-08-27T00:00:00	2024-11-06T00:00:00	5	Humedad	88
174141	7	Sololá	701	Sololá	2	El tablón	8	Agosto	2023-08-27T00:00:00	2024-11-06T00:00:00	6	Velocidad del viento	0
174142	7	Sololá	701	Sololá	2	El tablón	8	Agosto	2023-08-27T00:00:00	2024-11-06T00:00:00	7	Dirección del viento	0
174143	7	Sololá	701	Sololá	2	El tablón	8	Agosto	2023-08-27T00:00:00	2024-11-06T00:00:00	1	Precipitación	0
174144	7	Sololá	701	Sololá	2	El tablón	8	Agosto	2023-08-27T00:00:00	2024-11-06T00:00:00	8	Radiación solar	0
174145	7	Sololá	701	Sololá	2	El tablón	8	Agosto	2023-08-27T00:00:00	2024-11-06T01:00:00	2	Temperatura media	14.4
174146	7	Sololá	701	Sololá	2	El tablón	8	Agosto	2023-08-27T00:00:00	2024-11-06T01:00:00	4	Temperatura máxima	14.7
174147	7	Sololá	701	Sololá	2	El tablón	8	Agosto	2023-08-27T00:00:00	2024-11-06T01:00:00	3	Temperatura mínima	14.3
174148	7	Sololá	701	Sololá	2	El tablón	8	Agosto	2023-08-27T00:00:00	2024-11-06T01:00:00	5	Humedad	87
174149	7	Sololá	701	Sololá	2	El tablón	8	Agosto	2023-08-27T00:00:00	2024-11-06T01:00:00	6	Velocidad del viento	0
174150	7	Sololá	701	Sololá	2	El tablón	8	Agosto	2023-08-27T00:00:00	2024-11-06T01:00:00	7	Dirección del viento	0
174151	7	Sololá	701	Sololá	2	El tablón	8	Agosto	2023-08-27T00:00:00	2024-11-06T01:00:00	1	Precipitación	0
174152	7	Sololá	701	Sololá	2	El tablón	8	Agosto	2023-08-27T00:00:00	2024-11-06T01:00:00	8	Radiación solar	0
174153	7	Sololá	701	Sololá	2	El tablón	8	Agosto	2023-08-27T00:00:00	2024-11-06T02:00:00	2	Temperatura media	14.2
174154	7	Sololá	701	Sololá	2	El tablón	8	Agosto	2023-08-27T00:00:00	2024-11-06T02:00:00	4	Temperatura máxima	14.5
174155	7	Sololá	701	Sololá	2	El tablón	8	Agosto	2023-08-27T00:00:00	2024-11-06T02:00:00	3	Temperatura mínima	14.2
174156	7	Sololá	701	Sololá	2	El tablón	8	Agosto	2023-08-27T00:00:00	2024-11-06T02:00:00	5	Humedad	88
174157	7	Sololá	701	Sololá	2	El tablón	8	Agosto	2023-08-27T00:00:00	2024-11-06T02:00:00	6	Velocidad del viento	0
174158	7	Sololá	701	Sololá	2	El tablón	8	Agosto	2023-08-27T00:00:00	2024-11-06T02:00:00	7	Dirección del viento	0
174159	7	Sololá	701	Sololá	2	El tablón	8	Agosto	2023-08-27T00:00:00	2024-11-06T02:00:00	1	Precipitación	0
174160	7	Sololá	701	Sololá	2	El tablón	8	Agosto	2023-08-27T00:00:00	2024-11-06T02:00:00	8	Radiación solar	0
174161	7	Sololá	701	Sololá	2	El tablón	8	Agosto	2023-08-27T00:00:00	2024-11-06T03:00:00	2	Temperatura media	14.1
174162	7	Sololá	701	Sololá	2	El tablón	8	Agosto	2023-08-27T00:00:00	2024-11-06T03:00:00	4	Temperatura máxima	14.2
174163	7	Sololá	701	Sololá	2	El tablón	8	Agosto	2023-08-27T00:00:00	2024-11-06T03:00:00	3	Temperatura mínima	14.1
174164	7	Sololá	701	Sololá	2	El tablón	8	Agosto	2023-08-27T00:00:00	2024-11-06T03:00:00	5	Humedad	87
174165	7	Sololá	701	Sololá	2	El tablón	8	Agosto	2023-08-27T00:00:00	2024-11-06T03:00:00	6	Velocidad del viento	0
174166	7	Sololá	701	Sololá	2	El tablón	8	Agosto	2023-08-27T00:00:00	2024-11-06T03:00:00	7	Dirección del viento	0
174167	7	Sololá	701	Sololá	2	El tablón	8	Agosto	2023-08-27T00:00:00	2024-11-06T03:00:00	1	Precipitación	0
174168	7	Sololá	701	Sololá	2	El tablón	8	Agosto	2023-08-27T00:00:00	2024-11-06T03:00:00	8	Radiación solar	0
174169	7	Sololá	701	Sololá	2	El tablón	8	Agosto	2023-08-27T00:00:00	2024-11-06T04:00:00	2	Temperatura media	13.4
174170	7	Sololá	701	Sololá	2	El tablón	8	Agosto	2023-08-27T00:00:00	2024-11-06T04:00:00	4	Temperatura máxima	14.1
174171	7	Sololá	701	Sololá	2	El tablón	8	Agosto	2023-08-27T00:00:00	2024-11-06T04:00:00	3	Temperatura mínima	13.4
174172	7	Sololá	701	Sololá	2	El tablón	8	Agosto	2023-08-27T00:00:00	2024-11-06T04:00:00	5	Humedad	88
174173	7	Sololá	701	Sololá	2	El tablón	8	Agosto	2023-08-27T00:00:00	2024-11-06T04:00:00	6	Velocidad del viento	1.6
174174	7	Sololá	701	Sololá	2	El tablón	8	Agosto	2023-08-27T00:00:00	2024-11-06T04:00:00	7	Dirección del viento	1.61
174175	7	Sololá	701	Sololá	2	El tablón	8	Agosto	2023-08-27T00:00:00	2024-11-06T04:00:00	1	Precipitación	0
174176	7	Sololá	701	Sololá	2	El tablón	8	Agosto	2023-08-27T00:00:00	2024-11-06T04:00:00	8	Radiación solar	0
174177	7	Sololá	701	Sololá	2	El tablón	8	Agosto	2023-08-27T00:00:00	2024-11-06T05:00:00	2	Temperatura media	13.4
174178	7	Sololá	701	Sololá	2	El tablón	8	Agosto	2023-08-27T00:00:00	2024-11-06T05:00:00	4	Temperatura máxima	13.4
174179	7	Sololá	701	Sololá	2	El tablón	8	Agosto	2023-08-27T00:00:00	2024-11-06T05:00:00	3	Temperatura mínima	13.3
174180	7	Sololá	701	Sololá	2	El tablón	8	Agosto	2023-08-27T00:00:00	2024-11-06T05:00:00	5	Humedad	89
174181	7	Sololá	701	Sololá	2	El tablón	8	Agosto	2023-08-27T00:00:00	2024-11-06T05:00:00	6	Velocidad del viento	0
174182	7	Sololá	701	Sololá	2	El tablón	8	Agosto	2023-08-27T00:00:00	2024-11-06T05:00:00	7	Dirección del viento	0
174183	7	Sololá	701	Sololá	2	El tablón	8	Agosto	2023-08-27T00:00:00	2024-11-06T05:00:00	1	Precipitación	0
174184	7	Sololá	701	Sololá	2	El tablón	8	Agosto	2023-08-27T00:00:00	2024-11-06T05:00:00	8	Radiación solar	0
174185	7	Sololá	701	Sololá	2	El tablón	8	Agosto	2023-08-27T00:00:00	2024-11-06T06:00:00	2	Temperatura media	12.9
174186	7	Sololá	701	Sololá	2	El tablón	8	Agosto	2023-08-27T00:00:00	2024-11-06T06:00:00	4	Temperatura máxima	13.4
174187	7	Sololá	701	Sololá	2	El tablón	8	Agosto	2023-08-27T00:00:00	2024-11-06T06:00:00	3	Temperatura mínima	12.8
174188	7	Sololá	701	Sololá	2	El tablón	8	Agosto	2023-08-27T00:00:00	2024-11-06T06:00:00	5	Humedad	88
174189	7	Sololá	701	Sololá	2	El tablón	8	Agosto	2023-08-27T00:00:00	2024-11-06T06:00:00	6	Velocidad del viento	0
174190	7	Sololá	701	Sololá	2	El tablón	8	Agosto	2023-08-27T00:00:00	2024-11-06T06:00:00	7	Dirección del viento	0
174191	7	Sololá	701	Sololá	2	El tablón	8	Agosto	2023-08-27T00:00:00	2024-11-06T06:00:00	1	Precipitación	0
174192	7	Sololá	701	Sololá	2	El tablón	8	Agosto	2023-08-27T00:00:00	2024-11-06T06:00:00	8	Radiación solar	0
174193	7	Sololá	701	Sololá	2	El tablón	8	Agosto	2023-08-27T00:00:00	2024-11-06T07:00:00	2	Temperatura media	13.4
174194	7	Sololá	701	Sololá	2	El tablón	8	Agosto	2023-08-27T00:00:00	2024-11-06T07:00:00	4	Temperatura máxima	13.4
174195	7	Sololá	701	Sololá	2	El tablón	8	Agosto	2023-08-27T00:00:00	2024-11-06T07:00:00	3	Temperatura mínima	12.7
174196	7	Sololá	701	Sololá	2	El tablón	8	Agosto	2023-08-27T00:00:00	2024-11-06T07:00:00	5	Humedad	89
174197	7	Sololá	701	Sololá	2	El tablón	8	Agosto	2023-08-27T00:00:00	2024-11-06T07:00:00	6	Velocidad del viento	1.6
174198	7	Sololá	701	Sololá	2	El tablón	8	Agosto	2023-08-27T00:00:00	2024-11-06T07:00:00	7	Dirección del viento	1.61
174199	7	Sololá	701	Sololá	2	El tablón	8	Agosto	2023-08-27T00:00:00	2024-11-06T07:00:00	1	Precipitación	0
174200	7	Sololá	701	Sololá	2	El tablón	8	Agosto	2023-08-27T00:00:00	2024-11-06T07:00:00	8	Radiación solar	63
174201	7	Sololá	701	Sololá	2	El tablón	8	Agosto	2023-08-27T00:00:00	2024-11-06T08:00:00	2	Temperatura media	16.7
174202	7	Sololá	701	Sololá	2	El tablón	8	Agosto	2023-08-27T00:00:00	2024-11-06T08:00:00	4	Temperatura máxima	16.7
174203	7	Sololá	701	Sololá	2	El tablón	8	Agosto	2023-08-27T00:00:00	2024-11-06T08:00:00	3	Temperatura mínima	13.5
174204	7	Sololá	701	Sololá	2	El tablón	8	Agosto	2023-08-27T00:00:00	2024-11-06T08:00:00	5	Humedad	80
174205	7	Sololá	701	Sololá	2	El tablón	8	Agosto	2023-08-27T00:00:00	2024-11-06T08:00:00	6	Velocidad del viento	3.2
174206	7	Sololá	701	Sololá	2	El tablón	8	Agosto	2023-08-27T00:00:00	2024-11-06T08:00:00	7	Dirección del viento	3.22
174207	7	Sololá	701	Sololá	2	El tablón	8	Agosto	2023-08-27T00:00:00	2024-11-06T08:00:00	1	Precipitación	0
174208	7	Sololá	701	Sololá	2	El tablón	8	Agosto	2023-08-27T00:00:00	2024-11-06T08:00:00	8	Radiación solar	295
174209	7	Sololá	701	Sololá	2	El tablón	8	Agosto	2023-08-27T00:00:00	2024-11-06T09:00:00	2	Temperatura media	17.7
174210	7	Sololá	701	Sololá	2	El tablón	8	Agosto	2023-08-27T00:00:00	2024-11-06T09:00:00	4	Temperatura máxima	17.9
174211	7	Sololá	701	Sololá	2	El tablón	8	Agosto	2023-08-27T00:00:00	2024-11-06T09:00:00	3	Temperatura mínima	16.7
174212	7	Sololá	701	Sololá	2	El tablón	8	Agosto	2023-08-27T00:00:00	2024-11-06T09:00:00	5	Humedad	81
174213	7	Sololá	701	Sololá	2	El tablón	8	Agosto	2023-08-27T00:00:00	2024-11-06T09:00:00	6	Velocidad del viento	4.8
174214	7	Sololá	701	Sololá	2	El tablón	8	Agosto	2023-08-27T00:00:00	2024-11-06T09:00:00	7	Dirección del viento	4.83
174215	7	Sololá	701	Sololá	2	El tablón	8	Agosto	2023-08-27T00:00:00	2024-11-06T09:00:00	1	Precipitación	0
174216	7	Sololá	701	Sololá	2	El tablón	8	Agosto	2023-08-27T00:00:00	2024-11-06T09:00:00	8	Radiación solar	514
174217	7	Sololá	701	Sololá	2	El tablón	8	Agosto	2023-08-27T00:00:00	2024-11-06T10:00:00	2	Temperatura media	18.1
174218	7	Sololá	701	Sololá	2	El tablón	8	Agosto	2023-08-27T00:00:00	2024-11-06T10:00:00	4	Temperatura máxima	18.2
174219	7	Sololá	701	Sololá	2	El tablón	8	Agosto	2023-08-27T00:00:00	2024-11-06T10:00:00	3	Temperatura mínima	17.6
174220	7	Sololá	701	Sololá	2	El tablón	8	Agosto	2023-08-27T00:00:00	2024-11-06T10:00:00	5	Humedad	81
174221	7	Sololá	701	Sololá	2	El tablón	8	Agosto	2023-08-27T00:00:00	2024-11-06T10:00:00	6	Velocidad del viento	6.4
174222	7	Sololá	701	Sololá	2	El tablón	8	Agosto	2023-08-27T00:00:00	2024-11-06T10:00:00	7	Dirección del viento	6.44
174223	7	Sololá	701	Sololá	2	El tablón	8	Agosto	2023-08-27T00:00:00	2024-11-06T10:00:00	1	Precipitación	0
174224	7	Sololá	701	Sololá	2	El tablón	8	Agosto	2023-08-27T00:00:00	2024-11-06T10:00:00	8	Radiación solar	709
174225	7	Sololá	701	Sololá	2	El tablón	8	Agosto	2023-08-27T00:00:00	2024-11-06T11:00:00	2	Temperatura media	18.6
174226	7	Sololá	701	Sololá	2	El tablón	8	Agosto	2023-08-27T00:00:00	2024-11-06T11:00:00	4	Temperatura máxima	18.7
174227	7	Sololá	701	Sololá	2	El tablón	8	Agosto	2023-08-27T00:00:00	2024-11-06T11:00:00	3	Temperatura mínima	18.1
174228	7	Sololá	701	Sololá	2	El tablón	8	Agosto	2023-08-27T00:00:00	2024-11-06T11:00:00	5	Humedad	80
174229	7	Sololá	701	Sololá	2	El tablón	8	Agosto	2023-08-27T00:00:00	2024-11-06T11:00:00	6	Velocidad del viento	6.4
174230	7	Sololá	701	Sololá	2	El tablón	8	Agosto	2023-08-27T00:00:00	2024-11-06T11:00:00	7	Dirección del viento	6.44
174231	7	Sololá	701	Sololá	2	El tablón	8	Agosto	2023-08-27T00:00:00	2024-11-06T11:00:00	1	Precipitación	0
174232	7	Sololá	701	Sololá	2	El tablón	8	Agosto	2023-08-27T00:00:00	2024-11-06T11:00:00	8	Radiación solar	827
174233	7	Sololá	701	Sololá	2	El tablón	8	Agosto	2023-08-27T00:00:00	2024-11-06T12:00:00	2	Temperatura media	18.6
174234	7	Sololá	701	Sololá	2	El tablón	8	Agosto	2023-08-27T00:00:00	2024-11-06T12:00:00	4	Temperatura máxima	18.7
174235	7	Sololá	701	Sololá	2	El tablón	8	Agosto	2023-08-27T00:00:00	2024-11-06T12:00:00	3	Temperatura mínima	18.3
174236	7	Sololá	701	Sololá	2	El tablón	8	Agosto	2023-08-27T00:00:00	2024-11-06T12:00:00	5	Humedad	83
174237	7	Sololá	701	Sololá	2	El tablón	8	Agosto	2023-08-27T00:00:00	2024-11-06T12:00:00	6	Velocidad del viento	6.4
174238	7	Sololá	701	Sololá	2	El tablón	8	Agosto	2023-08-27T00:00:00	2024-11-06T12:00:00	7	Dirección del viento	6.44
174239	7	Sololá	701	Sololá	2	El tablón	8	Agosto	2023-08-27T00:00:00	2024-11-06T12:00:00	1	Precipitación	0
174240	7	Sololá	701	Sololá	2	El tablón	8	Agosto	2023-08-27T00:00:00	2024-11-06T12:00:00	8	Radiación solar	515
174241	7	Sololá	701	Sololá	2	El tablón	8	Agosto	2023-08-27T00:00:00	2024-11-06T13:00:00	2	Temperatura media	17.9
174242	7	Sololá	701	Sololá	2	El tablón	8	Agosto	2023-08-27T00:00:00	2024-11-06T13:00:00	4	Temperatura máxima	18.8
174243	7	Sololá	701	Sololá	2	El tablón	8	Agosto	2023-08-27T00:00:00	2024-11-06T13:00:00	3	Temperatura mínima	17.8
174244	7	Sololá	701	Sololá	2	El tablón	8	Agosto	2023-08-27T00:00:00	2024-11-06T13:00:00	5	Humedad	84
174245	7	Sololá	701	Sololá	2	El tablón	8	Agosto	2023-08-27T00:00:00	2024-11-06T13:00:00	6	Velocidad del viento	8
174246	7	Sololá	701	Sololá	2	El tablón	8	Agosto	2023-08-27T00:00:00	2024-11-06T13:00:00	7	Dirección del viento	8.05
174247	7	Sololá	701	Sololá	2	El tablón	8	Agosto	2023-08-27T00:00:00	2024-11-06T13:00:00	1	Precipitación	0
174248	7	Sololá	701	Sololá	2	El tablón	8	Agosto	2023-08-27T00:00:00	2024-11-06T13:00:00	8	Radiación solar	405
174249	7	Sololá	701	Sololá	2	El tablón	8	Agosto	2023-08-27T00:00:00	2024-11-06T14:00:00	2	Temperatura media	17.9
174250	7	Sololá	701	Sololá	2	El tablón	8	Agosto	2023-08-27T00:00:00	2024-11-06T14:00:00	4	Temperatura máxima	18.3
174251	7	Sololá	701	Sololá	2	El tablón	8	Agosto	2023-08-27T00:00:00	2024-11-06T14:00:00	3	Temperatura mínima	17.5
174252	7	Sololá	701	Sololá	2	El tablón	8	Agosto	2023-08-27T00:00:00	2024-11-06T14:00:00	5	Humedad	85
174253	7	Sololá	701	Sololá	2	El tablón	8	Agosto	2023-08-27T00:00:00	2024-11-06T14:00:00	6	Velocidad del viento	8
174254	7	Sololá	701	Sololá	2	El tablón	8	Agosto	2023-08-27T00:00:00	2024-11-06T14:00:00	7	Dirección del viento	8.05
174255	7	Sololá	701	Sololá	2	El tablón	8	Agosto	2023-08-27T00:00:00	2024-11-06T14:00:00	1	Precipitación	0
174256	7	Sololá	701	Sololá	2	El tablón	8	Agosto	2023-08-27T00:00:00	2024-11-06T14:00:00	8	Radiación solar	432
174257	7	Sololá	701	Sololá	2	El tablón	8	Agosto	2023-08-27T00:00:00	2024-11-06T15:00:00	2	Temperatura media	17.2
174258	7	Sololá	701	Sololá	2	El tablón	8	Agosto	2023-08-27T00:00:00	2024-11-06T15:00:00	4	Temperatura máxima	18.1
174259	7	Sololá	701	Sololá	2	El tablón	8	Agosto	2023-08-27T00:00:00	2024-11-06T15:00:00	3	Temperatura mínima	17.1
174260	7	Sololá	701	Sololá	2	El tablón	8	Agosto	2023-08-27T00:00:00	2024-11-06T15:00:00	5	Humedad	86
174261	7	Sololá	701	Sololá	2	El tablón	8	Agosto	2023-08-27T00:00:00	2024-11-06T15:00:00	6	Velocidad del viento	8
174262	7	Sololá	701	Sololá	2	El tablón	8	Agosto	2023-08-27T00:00:00	2024-11-06T15:00:00	7	Dirección del viento	8.05
174263	7	Sololá	701	Sololá	2	El tablón	8	Agosto	2023-08-27T00:00:00	2024-11-06T15:00:00	1	Precipitación	0
174264	7	Sololá	701	Sololá	2	El tablón	8	Agosto	2023-08-27T00:00:00	2024-11-06T15:00:00	8	Radiación solar	288
174265	7	Sololá	701	Sololá	2	El tablón	8	Agosto	2023-08-27T00:00:00	2024-11-06T16:00:00	2	Temperatura media	17.2
174266	7	Sololá	701	Sololá	2	El tablón	8	Agosto	2023-08-27T00:00:00	2024-11-06T16:00:00	4	Temperatura máxima	18.3
174267	7	Sololá	701	Sololá	2	El tablón	8	Agosto	2023-08-27T00:00:00	2024-11-06T16:00:00	3	Temperatura mínima	16.8
174268	7	Sololá	701	Sololá	2	El tablón	8	Agosto	2023-08-27T00:00:00	2024-11-06T16:00:00	5	Humedad	87
174269	7	Sololá	701	Sololá	2	El tablón	8	Agosto	2023-08-27T00:00:00	2024-11-06T16:00:00	6	Velocidad del viento	6.4
174270	7	Sololá	701	Sololá	2	El tablón	8	Agosto	2023-08-27T00:00:00	2024-11-06T16:00:00	7	Dirección del viento	6.44
174271	7	Sololá	701	Sololá	2	El tablón	8	Agosto	2023-08-27T00:00:00	2024-11-06T16:00:00	1	Precipitación	0
174272	7	Sololá	701	Sololá	2	El tablón	8	Agosto	2023-08-27T00:00:00	2024-11-06T16:00:00	8	Radiación solar	268
174273	7	Sololá	701	Sololá	2	El tablón	8	Agosto	2023-08-27T00:00:00	2024-11-06T17:00:00	2	Temperatura media	16.6
174274	7	Sololá	701	Sololá	2	El tablón	8	Agosto	2023-08-27T00:00:00	2024-11-06T17:00:00	4	Temperatura máxima	17.2
174275	7	Sololá	701	Sololá	2	El tablón	8	Agosto	2023-08-27T00:00:00	2024-11-06T17:00:00	3	Temperatura mínima	16.3
174276	7	Sololá	701	Sololá	2	El tablón	8	Agosto	2023-08-27T00:00:00	2024-11-06T17:00:00	5	Humedad	88
174277	7	Sololá	701	Sololá	2	El tablón	8	Agosto	2023-08-27T00:00:00	2024-11-06T17:00:00	6	Velocidad del viento	6.4
174278	7	Sololá	701	Sololá	2	El tablón	8	Agosto	2023-08-27T00:00:00	2024-11-06T17:00:00	7	Dirección del viento	6.44
174279	7	Sololá	701	Sololá	2	El tablón	8	Agosto	2023-08-27T00:00:00	2024-11-06T17:00:00	1	Precipitación	0
174280	7	Sololá	701	Sololá	2	El tablón	8	Agosto	2023-08-27T00:00:00	2024-11-06T17:00:00	8	Radiación solar	138
174281	7	Sololá	701	Sololá	2	El tablón	8	Agosto	2023-08-27T00:00:00	2024-11-06T18:00:00	2	Temperatura media	15.7
174282	7	Sololá	701	Sololá	2	El tablón	8	Agosto	2023-08-27T00:00:00	2024-11-06T18:00:00	4	Temperatura máxima	16.6
174283	7	Sololá	701	Sololá	2	El tablón	8	Agosto	2023-08-27T00:00:00	2024-11-06T18:00:00	3	Temperatura mínima	15.6
174284	7	Sololá	701	Sololá	2	El tablón	8	Agosto	2023-08-27T00:00:00	2024-11-06T18:00:00	5	Humedad	88
174285	7	Sololá	701	Sololá	2	El tablón	8	Agosto	2023-08-27T00:00:00	2024-11-06T18:00:00	6	Velocidad del viento	4.8
174286	7	Sololá	701	Sololá	2	El tablón	8	Agosto	2023-08-27T00:00:00	2024-11-06T18:00:00	7	Dirección del viento	4.83
174287	7	Sololá	701	Sololá	2	El tablón	8	Agosto	2023-08-27T00:00:00	2024-11-06T18:00:00	1	Precipitación	0
174288	7	Sololá	701	Sololá	2	El tablón	8	Agosto	2023-08-27T00:00:00	2024-11-06T18:00:00	8	Radiación solar	23
174289	7	Sololá	701	Sololá	2	El tablón	8	Agosto	2023-08-27T00:00:00	2024-11-06T19:00:00	2	Temperatura media	15.4
174290	7	Sololá	701	Sololá	2	El tablón	8	Agosto	2023-08-27T00:00:00	2024-11-06T19:00:00	4	Temperatura máxima	15.6
174291	7	Sololá	701	Sololá	2	El tablón	8	Agosto	2023-08-27T00:00:00	2024-11-06T19:00:00	3	Temperatura mínima	15.3
174292	7	Sololá	701	Sololá	2	El tablón	8	Agosto	2023-08-27T00:00:00	2024-11-06T19:00:00	5	Humedad	88
174293	7	Sololá	701	Sololá	2	El tablón	8	Agosto	2023-08-27T00:00:00	2024-11-06T19:00:00	6	Velocidad del viento	3.2
174294	7	Sololá	701	Sololá	2	El tablón	8	Agosto	2023-08-27T00:00:00	2024-11-06T19:00:00	7	Dirección del viento	3.22
174295	7	Sololá	701	Sololá	2	El tablón	8	Agosto	2023-08-27T00:00:00	2024-11-06T19:00:00	1	Precipitación	0
174296	7	Sololá	701	Sololá	2	El tablón	8	Agosto	2023-08-27T00:00:00	2024-11-06T19:00:00	8	Radiación solar	0
174297	7	Sololá	701	Sololá	2	El tablón	8	Agosto	2023-08-27T00:00:00	2024-11-06T20:00:00	2	Temperatura media	14.3
174298	7	Sololá	701	Sololá	2	El tablón	8	Agosto	2023-08-27T00:00:00	2024-11-06T20:00:00	4	Temperatura máxima	15.4
174299	7	Sololá	701	Sololá	2	El tablón	8	Agosto	2023-08-27T00:00:00	2024-11-06T20:00:00	3	Temperatura mínima	14.3
174300	7	Sololá	701	Sololá	2	El tablón	8	Agosto	2023-08-27T00:00:00	2024-11-06T20:00:00	5	Humedad	88
174301	7	Sololá	701	Sololá	2	El tablón	8	Agosto	2023-08-27T00:00:00	2024-11-06T20:00:00	6	Velocidad del viento	3.2
174302	7	Sololá	701	Sololá	2	El tablón	8	Agosto	2023-08-27T00:00:00	2024-11-06T20:00:00	7	Dirección del viento	3.22
174303	7	Sololá	701	Sololá	2	El tablón	8	Agosto	2023-08-27T00:00:00	2024-11-06T20:00:00	1	Precipitación	0
174304	7	Sololá	701	Sololá	2	El tablón	8	Agosto	2023-08-27T00:00:00	2024-11-06T20:00:00	8	Radiación solar	0
174305	7	Sololá	701	Sololá	2	El tablón	8	Agosto	2023-08-27T00:00:00	2024-11-06T21:00:00	2	Temperatura media	14.4
174306	7	Sololá	701	Sololá	2	El tablón	8	Agosto	2023-08-27T00:00:00	2024-11-06T21:00:00	4	Temperatura máxima	14.6
174307	7	Sololá	701	Sololá	2	El tablón	8	Agosto	2023-08-27T00:00:00	2024-11-06T21:00:00	3	Temperatura mínima	14.3
174308	7	Sololá	701	Sololá	2	El tablón	8	Agosto	2023-08-27T00:00:00	2024-11-06T21:00:00	5	Humedad	88
174309	7	Sololá	701	Sololá	2	El tablón	8	Agosto	2023-08-27T00:00:00	2024-11-06T21:00:00	6	Velocidad del viento	1.6
174310	7	Sololá	701	Sololá	2	El tablón	8	Agosto	2023-08-27T00:00:00	2024-11-06T21:00:00	7	Dirección del viento	1.61
174311	7	Sololá	701	Sololá	2	El tablón	8	Agosto	2023-08-27T00:00:00	2024-11-06T21:00:00	1	Precipitación	0
174312	7	Sololá	701	Sololá	2	El tablón	8	Agosto	2023-08-27T00:00:00	2024-11-06T21:00:00	8	Radiación solar	0
174313	7	Sololá	701	Sololá	2	El tablón	8	Agosto	2023-08-27T00:00:00	2024-11-06T22:00:00	2	Temperatura media	13.9
174314	7	Sololá	701	Sololá	2	El tablón	8	Agosto	2023-08-27T00:00:00	2024-11-06T22:00:00	4	Temperatura máxima	14.4
174315	7	Sololá	701	Sololá	2	El tablón	8	Agosto	2023-08-27T00:00:00	2024-11-06T22:00:00	3	Temperatura mínima	13.9
174316	7	Sololá	701	Sololá	2	El tablón	8	Agosto	2023-08-27T00:00:00	2024-11-06T22:00:00	5	Humedad	87
174317	7	Sololá	701	Sololá	2	El tablón	8	Agosto	2023-08-27T00:00:00	2024-11-06T22:00:00	6	Velocidad del viento	3.2
174318	7	Sololá	701	Sololá	2	El tablón	8	Agosto	2023-08-27T00:00:00	2024-11-06T22:00:00	7	Dirección del viento	3.22
174319	7	Sololá	701	Sololá	2	El tablón	8	Agosto	2023-08-27T00:00:00	2024-11-06T22:00:00	1	Precipitación	0.4
174320	7	Sololá	701	Sololá	2	El tablón	8	Agosto	2023-08-27T00:00:00	2024-11-06T22:00:00	8	Radiación solar	0
174321	7	Sololá	701	Sololá	2	El tablón	8	Agosto	2023-08-27T00:00:00	2024-11-06T23:00:00	2	Temperatura media	13.8
174322	7	Sololá	701	Sololá	2	El tablón	8	Agosto	2023-08-27T00:00:00	2024-11-06T23:00:00	4	Temperatura máxima	13.9
174323	7	Sololá	701	Sololá	2	El tablón	8	Agosto	2023-08-27T00:00:00	2024-11-06T23:00:00	3	Temperatura mínima	13.7
174324	7	Sololá	701	Sololá	2	El tablón	8	Agosto	2023-08-27T00:00:00	2024-11-06T23:00:00	5	Humedad	87
174325	7	Sololá	701	Sololá	2	El tablón	8	Agosto	2023-08-27T00:00:00	2024-11-06T23:00:00	6	Velocidad del viento	0
174326	7	Sololá	701	Sololá	2	El tablón	8	Agosto	2023-08-27T00:00:00	2024-11-06T23:00:00	7	Dirección del viento	0
174327	7	Sololá	701	Sololá	2	El tablón	8	Agosto	2023-08-27T00:00:00	2024-11-06T23:00:00	1	Precipitación	1
174328	7	Sololá	701	Sololá	2	El tablón	8	Agosto	2023-08-27T00:00:00	2024-11-06T23:00:00	8	Radiación solar	0
174329	7	Sololá	701	Sololá	2	El tablón	8	Agosto	2023-08-28T00:00:00	2024-11-06T00:00:00	2	Temperatura media	13.6
174330	7	Sololá	701	Sololá	2	El tablón	8	Agosto	2023-08-28T00:00:00	2024-11-06T00:00:00	4	Temperatura máxima	13.8
174331	7	Sololá	701	Sololá	2	El tablón	8	Agosto	2023-08-28T00:00:00	2024-11-06T00:00:00	3	Temperatura mínima	13.6
174332	7	Sololá	701	Sololá	2	El tablón	8	Agosto	2023-08-28T00:00:00	2024-11-06T00:00:00	5	Humedad	87
174333	7	Sololá	701	Sololá	2	El tablón	8	Agosto	2023-08-28T00:00:00	2024-11-06T00:00:00	6	Velocidad del viento	1.6
174334	7	Sololá	701	Sololá	2	El tablón	8	Agosto	2023-08-28T00:00:00	2024-11-06T00:00:00	7	Dirección del viento	1.61
174335	7	Sololá	701	Sololá	2	El tablón	8	Agosto	2023-08-28T00:00:00	2024-11-06T00:00:00	1	Precipitación	0.8
174336	7	Sololá	701	Sololá	2	El tablón	8	Agosto	2023-08-28T00:00:00	2024-11-06T00:00:00	8	Radiación solar	0
174337	7	Sololá	701	Sololá	2	El tablón	8	Agosto	2023-08-28T00:00:00	2024-11-06T01:00:00	2	Temperatura media	13.6
174338	7	Sololá	701	Sololá	2	El tablón	8	Agosto	2023-08-28T00:00:00	2024-11-06T01:00:00	4	Temperatura máxima	13.6
174339	7	Sololá	701	Sololá	2	El tablón	8	Agosto	2023-08-28T00:00:00	2024-11-06T01:00:00	3	Temperatura mínima	13.4
174340	7	Sololá	701	Sololá	2	El tablón	8	Agosto	2023-08-28T00:00:00	2024-11-06T01:00:00	5	Humedad	87
174341	7	Sololá	701	Sololá	2	El tablón	8	Agosto	2023-08-28T00:00:00	2024-11-06T01:00:00	6	Velocidad del viento	1.6
174342	7	Sololá	701	Sololá	2	El tablón	8	Agosto	2023-08-28T00:00:00	2024-11-06T01:00:00	7	Dirección del viento	1.61
174343	7	Sololá	701	Sololá	2	El tablón	8	Agosto	2023-08-28T00:00:00	2024-11-06T01:00:00	1	Precipitación	0
174344	7	Sololá	701	Sololá	2	El tablón	8	Agosto	2023-08-28T00:00:00	2024-11-06T01:00:00	8	Radiación solar	0
174345	7	Sololá	701	Sololá	2	El tablón	8	Agosto	2023-08-28T00:00:00	2024-11-06T02:00:00	2	Temperatura media	12.8
174346	7	Sololá	701	Sololá	2	El tablón	8	Agosto	2023-08-28T00:00:00	2024-11-06T02:00:00	4	Temperatura máxima	13.6
174347	7	Sololá	701	Sololá	2	El tablón	8	Agosto	2023-08-28T00:00:00	2024-11-06T02:00:00	3	Temperatura mínima	12.8
174348	7	Sololá	701	Sololá	2	El tablón	8	Agosto	2023-08-28T00:00:00	2024-11-06T02:00:00	5	Humedad	87
174349	7	Sololá	701	Sololá	2	El tablón	8	Agosto	2023-08-28T00:00:00	2024-11-06T02:00:00	6	Velocidad del viento	3.2
174350	7	Sololá	701	Sololá	2	El tablón	8	Agosto	2023-08-28T00:00:00	2024-11-06T02:00:00	7	Dirección del viento	3.22
174351	7	Sololá	701	Sololá	2	El tablón	8	Agosto	2023-08-28T00:00:00	2024-11-06T02:00:00	1	Precipitación	1.4
174352	7	Sololá	701	Sololá	2	El tablón	8	Agosto	2023-08-28T00:00:00	2024-11-06T02:00:00	8	Radiación solar	0
174353	7	Sololá	701	Sololá	2	El tablón	8	Agosto	2023-08-28T00:00:00	2024-11-06T03:00:00	2	Temperatura media	12.1
174354	7	Sololá	701	Sololá	2	El tablón	8	Agosto	2023-08-28T00:00:00	2024-11-06T03:00:00	4	Temperatura máxima	12.8
174355	7	Sololá	701	Sololá	2	El tablón	8	Agosto	2023-08-28T00:00:00	2024-11-06T03:00:00	3	Temperatura mínima	12
174356	7	Sololá	701	Sololá	2	El tablón	8	Agosto	2023-08-28T00:00:00	2024-11-06T03:00:00	5	Humedad	86
174357	7	Sololá	701	Sololá	2	El tablón	8	Agosto	2023-08-28T00:00:00	2024-11-06T03:00:00	6	Velocidad del viento	3.2
174358	7	Sololá	701	Sololá	2	El tablón	8	Agosto	2023-08-28T00:00:00	2024-11-06T03:00:00	7	Dirección del viento	3.22
174359	7	Sololá	701	Sololá	2	El tablón	8	Agosto	2023-08-28T00:00:00	2024-11-06T03:00:00	1	Precipitación	0.2
174360	7	Sololá	701	Sololá	2	El tablón	8	Agosto	2023-08-28T00:00:00	2024-11-06T03:00:00	8	Radiación solar	0
174361	7	Sololá	701	Sololá	2	El tablón	8	Agosto	2023-08-28T00:00:00	2024-11-06T04:00:00	2	Temperatura media	12.1
174362	7	Sololá	701	Sololá	2	El tablón	8	Agosto	2023-08-28T00:00:00	2024-11-06T04:00:00	4	Temperatura máxima	12.2
174363	7	Sololá	701	Sololá	2	El tablón	8	Agosto	2023-08-28T00:00:00	2024-11-06T04:00:00	3	Temperatura mínima	12.1
174364	7	Sololá	701	Sololá	2	El tablón	8	Agosto	2023-08-28T00:00:00	2024-11-06T04:00:00	5	Humedad	86
174365	7	Sololá	701	Sololá	2	El tablón	8	Agosto	2023-08-28T00:00:00	2024-11-06T04:00:00	6	Velocidad del viento	1.6
174366	7	Sololá	701	Sololá	2	El tablón	8	Agosto	2023-08-28T00:00:00	2024-11-06T04:00:00	7	Dirección del viento	1.61
174367	7	Sololá	701	Sololá	2	El tablón	8	Agosto	2023-08-28T00:00:00	2024-11-06T04:00:00	1	Precipitación	0.2
174368	7	Sololá	701	Sololá	2	El tablón	8	Agosto	2023-08-28T00:00:00	2024-11-06T04:00:00	8	Radiación solar	0
174369	7	Sololá	701	Sololá	2	El tablón	8	Agosto	2023-08-28T00:00:00	2024-11-06T05:00:00	2	Temperatura media	12.4
174370	7	Sololá	701	Sololá	2	El tablón	8	Agosto	2023-08-28T00:00:00	2024-11-06T05:00:00	4	Temperatura máxima	12.4
174371	7	Sololá	701	Sololá	2	El tablón	8	Agosto	2023-08-28T00:00:00	2024-11-06T05:00:00	3	Temperatura mínima	12
174372	7	Sololá	701	Sololá	2	El tablón	8	Agosto	2023-08-28T00:00:00	2024-11-06T05:00:00	5	Humedad	88
174373	7	Sololá	701	Sololá	2	El tablón	8	Agosto	2023-08-28T00:00:00	2024-11-06T05:00:00	6	Velocidad del viento	3.2
174374	7	Sololá	701	Sololá	2	El tablón	8	Agosto	2023-08-28T00:00:00	2024-11-06T05:00:00	7	Dirección del viento	3.22
174375	7	Sololá	701	Sololá	2	El tablón	8	Agosto	2023-08-28T00:00:00	2024-11-06T05:00:00	1	Precipitación	0
174376	7	Sololá	701	Sololá	2	El tablón	8	Agosto	2023-08-28T00:00:00	2024-11-06T05:00:00	8	Radiación solar	0
174377	7	Sololá	701	Sololá	2	El tablón	8	Agosto	2023-08-28T00:00:00	2024-11-06T06:00:00	2	Temperatura media	12.2
174378	7	Sololá	701	Sololá	2	El tablón	8	Agosto	2023-08-28T00:00:00	2024-11-06T06:00:00	4	Temperatura máxima	12.5
174379	7	Sololá	701	Sololá	2	El tablón	8	Agosto	2023-08-28T00:00:00	2024-11-06T06:00:00	3	Temperatura mínima	12
174380	7	Sololá	701	Sololá	2	El tablón	8	Agosto	2023-08-28T00:00:00	2024-11-06T06:00:00	5	Humedad	88
174381	7	Sololá	701	Sololá	2	El tablón	8	Agosto	2023-08-28T00:00:00	2024-11-06T06:00:00	6	Velocidad del viento	4.8
174382	7	Sololá	701	Sololá	2	El tablón	8	Agosto	2023-08-28T00:00:00	2024-11-06T06:00:00	7	Dirección del viento	4.83
174383	7	Sololá	701	Sololá	2	El tablón	8	Agosto	2023-08-28T00:00:00	2024-11-06T06:00:00	1	Precipitación	0.2
174384	7	Sololá	701	Sololá	2	El tablón	8	Agosto	2023-08-28T00:00:00	2024-11-06T06:00:00	8	Radiación solar	0
174385	7	Sololá	701	Sololá	2	El tablón	8	Agosto	2023-08-28T00:00:00	2024-11-06T07:00:00	2	Temperatura media	13.3
174386	7	Sololá	701	Sololá	2	El tablón	8	Agosto	2023-08-28T00:00:00	2024-11-06T07:00:00	4	Temperatura máxima	13.3
174387	7	Sololá	701	Sololá	2	El tablón	8	Agosto	2023-08-28T00:00:00	2024-11-06T07:00:00	3	Temperatura mínima	12.1
174388	7	Sololá	701	Sololá	2	El tablón	8	Agosto	2023-08-28T00:00:00	2024-11-06T07:00:00	5	Humedad	89
174389	7	Sololá	701	Sololá	2	El tablón	8	Agosto	2023-08-28T00:00:00	2024-11-06T07:00:00	6	Velocidad del viento	3.2
174390	7	Sololá	701	Sololá	2	El tablón	8	Agosto	2023-08-28T00:00:00	2024-11-06T07:00:00	7	Dirección del viento	3.22
174391	7	Sololá	701	Sololá	2	El tablón	8	Agosto	2023-08-28T00:00:00	2024-11-06T07:00:00	1	Precipitación	0
174392	7	Sololá	701	Sololá	2	El tablón	8	Agosto	2023-08-28T00:00:00	2024-11-06T07:00:00	8	Radiación solar	65
174393	7	Sololá	701	Sololá	2	El tablón	8	Agosto	2023-08-28T00:00:00	2024-11-06T08:00:00	2	Temperatura media	15.2
174394	7	Sololá	701	Sololá	2	El tablón	8	Agosto	2023-08-28T00:00:00	2024-11-06T08:00:00	4	Temperatura máxima	15.2
174395	7	Sololá	701	Sololá	2	El tablón	8	Agosto	2023-08-28T00:00:00	2024-11-06T08:00:00	3	Temperatura mínima	13.3
174396	7	Sololá	701	Sololá	2	El tablón	8	Agosto	2023-08-28T00:00:00	2024-11-06T08:00:00	5	Humedad	87
174397	7	Sololá	701	Sololá	2	El tablón	8	Agosto	2023-08-28T00:00:00	2024-11-06T08:00:00	6	Velocidad del viento	1.6
174398	7	Sololá	701	Sololá	2	El tablón	8	Agosto	2023-08-28T00:00:00	2024-11-06T08:00:00	7	Dirección del viento	1.61
174399	7	Sololá	701	Sololá	2	El tablón	8	Agosto	2023-08-28T00:00:00	2024-11-06T08:00:00	1	Precipitación	0
174400	7	Sololá	701	Sololá	2	El tablón	8	Agosto	2023-08-28T00:00:00	2024-11-06T08:00:00	8	Radiación solar	272
174401	7	Sololá	701	Sololá	2	El tablón	8	Agosto	2023-08-28T00:00:00	2024-11-06T09:00:00	2	Temperatura media	16
174402	7	Sololá	701	Sololá	2	El tablón	8	Agosto	2023-08-28T00:00:00	2024-11-06T09:00:00	4	Temperatura máxima	16
174403	7	Sololá	701	Sololá	2	El tablón	8	Agosto	2023-08-28T00:00:00	2024-11-06T09:00:00	3	Temperatura mínima	14.9
174404	7	Sololá	701	Sololá	2	El tablón	8	Agosto	2023-08-28T00:00:00	2024-11-06T09:00:00	5	Humedad	87
174405	7	Sololá	701	Sololá	2	El tablón	8	Agosto	2023-08-28T00:00:00	2024-11-06T09:00:00	6	Velocidad del viento	4.8
174406	7	Sololá	701	Sololá	2	El tablón	8	Agosto	2023-08-28T00:00:00	2024-11-06T09:00:00	7	Dirección del viento	4.83
174407	7	Sololá	701	Sololá	2	El tablón	8	Agosto	2023-08-28T00:00:00	2024-11-06T09:00:00	1	Precipitación	0
174408	7	Sololá	701	Sololá	2	El tablón	8	Agosto	2023-08-28T00:00:00	2024-11-06T09:00:00	8	Radiación solar	425
174409	7	Sololá	701	Sololá	2	El tablón	8	Agosto	2023-08-28T00:00:00	2024-11-06T10:00:00	2	Temperatura media	17.1
174410	7	Sololá	701	Sololá	2	El tablón	8	Agosto	2023-08-28T00:00:00	2024-11-06T10:00:00	4	Temperatura máxima	17.1
174411	7	Sololá	701	Sololá	2	El tablón	8	Agosto	2023-08-28T00:00:00	2024-11-06T10:00:00	3	Temperatura mínima	16
174412	7	Sololá	701	Sololá	2	El tablón	8	Agosto	2023-08-28T00:00:00	2024-11-06T10:00:00	5	Humedad	83
174413	7	Sololá	701	Sololá	2	El tablón	8	Agosto	2023-08-28T00:00:00	2024-11-06T10:00:00	6	Velocidad del viento	6.4
174414	7	Sololá	701	Sololá	2	El tablón	8	Agosto	2023-08-28T00:00:00	2024-11-06T10:00:00	7	Dirección del viento	6.44
174415	7	Sololá	701	Sololá	2	El tablón	8	Agosto	2023-08-28T00:00:00	2024-11-06T10:00:00	1	Precipitación	0
174416	7	Sololá	701	Sololá	2	El tablón	8	Agosto	2023-08-28T00:00:00	2024-11-06T10:00:00	8	Radiación solar	718
174417	7	Sololá	701	Sololá	2	El tablón	8	Agosto	2023-08-28T00:00:00	2024-11-06T11:00:00	2	Temperatura media	17.6
174418	7	Sololá	701	Sololá	2	El tablón	8	Agosto	2023-08-28T00:00:00	2024-11-06T11:00:00	4	Temperatura máxima	17.9
174419	7	Sololá	701	Sololá	2	El tablón	8	Agosto	2023-08-28T00:00:00	2024-11-06T11:00:00	3	Temperatura mínima	17
174420	7	Sololá	701	Sololá	2	El tablón	8	Agosto	2023-08-28T00:00:00	2024-11-06T11:00:00	5	Humedad	81
174421	7	Sololá	701	Sololá	2	El tablón	8	Agosto	2023-08-28T00:00:00	2024-11-06T11:00:00	6	Velocidad del viento	8
174422	7	Sololá	701	Sololá	2	El tablón	8	Agosto	2023-08-28T00:00:00	2024-11-06T11:00:00	7	Dirección del viento	8.05
174423	7	Sololá	701	Sololá	2	El tablón	8	Agosto	2023-08-28T00:00:00	2024-11-06T11:00:00	1	Precipitación	0
174424	7	Sololá	701	Sololá	2	El tablón	8	Agosto	2023-08-28T00:00:00	2024-11-06T11:00:00	8	Radiación solar	714
174425	7	Sololá	701	Sololá	2	El tablón	8	Agosto	2023-08-28T00:00:00	2024-11-06T12:00:00	2	Temperatura media	16.5
174426	7	Sololá	701	Sololá	2	El tablón	8	Agosto	2023-08-28T00:00:00	2024-11-06T12:00:00	4	Temperatura máxima	17.9
174427	7	Sololá	701	Sololá	2	El tablón	8	Agosto	2023-08-28T00:00:00	2024-11-06T12:00:00	3	Temperatura mínima	16.5
174428	7	Sololá	701	Sololá	2	El tablón	8	Agosto	2023-08-28T00:00:00	2024-11-06T12:00:00	5	Humedad	87
174429	7	Sololá	701	Sololá	2	El tablón	8	Agosto	2023-08-28T00:00:00	2024-11-06T12:00:00	6	Velocidad del viento	8
174430	7	Sololá	701	Sololá	2	El tablón	8	Agosto	2023-08-28T00:00:00	2024-11-06T12:00:00	7	Dirección del viento	8.05
174431	7	Sololá	701	Sololá	2	El tablón	8	Agosto	2023-08-28T00:00:00	2024-11-06T12:00:00	1	Precipitación	0
174432	7	Sololá	701	Sololá	2	El tablón	8	Agosto	2023-08-28T00:00:00	2024-11-06T12:00:00	8	Radiación solar	530
174433	7	Sololá	701	Sololá	2	El tablón	8	Agosto	2023-08-28T00:00:00	2024-11-06T13:00:00	2	Temperatura media	15.9
174434	7	Sololá	701	Sololá	2	El tablón	8	Agosto	2023-08-28T00:00:00	2024-11-06T13:00:00	4	Temperatura máxima	16.6
174435	7	Sololá	701	Sololá	2	El tablón	8	Agosto	2023-08-28T00:00:00	2024-11-06T13:00:00	3	Temperatura mínima	15.9
174436	7	Sololá	701	Sololá	2	El tablón	8	Agosto	2023-08-28T00:00:00	2024-11-06T13:00:00	5	Humedad	88
174437	7	Sololá	701	Sololá	2	El tablón	8	Agosto	2023-08-28T00:00:00	2024-11-06T13:00:00	6	Velocidad del viento	6.4
174438	7	Sololá	701	Sololá	2	El tablón	8	Agosto	2023-08-28T00:00:00	2024-11-06T13:00:00	7	Dirección del viento	6.44
174439	7	Sololá	701	Sololá	2	El tablón	8	Agosto	2023-08-28T00:00:00	2024-11-06T13:00:00	1	Precipitación	0
174440	7	Sololá	701	Sololá	2	El tablón	8	Agosto	2023-08-28T00:00:00	2024-11-06T13:00:00	8	Radiación solar	235
174441	7	Sololá	701	Sololá	2	El tablón	8	Agosto	2023-08-28T00:00:00	2024-11-06T14:00:00	2	Temperatura media	15.7
174442	7	Sololá	701	Sololá	2	El tablón	8	Agosto	2023-08-28T00:00:00	2024-11-06T14:00:00	4	Temperatura máxima	16.1
174443	7	Sololá	701	Sololá	2	El tablón	8	Agosto	2023-08-28T00:00:00	2024-11-06T14:00:00	3	Temperatura mínima	15.7
174444	7	Sololá	701	Sololá	2	El tablón	8	Agosto	2023-08-28T00:00:00	2024-11-06T14:00:00	5	Humedad	88
174445	7	Sololá	701	Sololá	2	El tablón	8	Agosto	2023-08-28T00:00:00	2024-11-06T14:00:00	6	Velocidad del viento	8
174446	7	Sololá	701	Sololá	2	El tablón	8	Agosto	2023-08-28T00:00:00	2024-11-06T14:00:00	7	Dirección del viento	8.05
174447	7	Sololá	701	Sololá	2	El tablón	8	Agosto	2023-08-28T00:00:00	2024-11-06T14:00:00	1	Precipitación	0
174448	7	Sololá	701	Sololá	2	El tablón	8	Agosto	2023-08-28T00:00:00	2024-11-06T14:00:00	8	Radiación solar	188
174449	7	Sololá	701	Sololá	2	El tablón	8	Agosto	2023-08-28T00:00:00	2024-11-06T15:00:00	2	Temperatura media	14.7
174450	7	Sololá	701	Sololá	2	El tablón	8	Agosto	2023-08-28T00:00:00	2024-11-06T15:00:00	4	Temperatura máxima	15.7
174451	7	Sololá	701	Sololá	2	El tablón	8	Agosto	2023-08-28T00:00:00	2024-11-06T15:00:00	3	Temperatura mínima	14.7
174452	7	Sololá	701	Sololá	2	El tablón	8	Agosto	2023-08-28T00:00:00	2024-11-06T15:00:00	5	Humedad	88
174453	7	Sololá	701	Sololá	2	El tablón	8	Agosto	2023-08-28T00:00:00	2024-11-06T15:00:00	6	Velocidad del viento	6.4
174454	7	Sololá	701	Sololá	2	El tablón	8	Agosto	2023-08-28T00:00:00	2024-11-06T15:00:00	7	Dirección del viento	6.44
174455	7	Sololá	701	Sololá	2	El tablón	8	Agosto	2023-08-28T00:00:00	2024-11-06T15:00:00	1	Precipitación	0
174456	7	Sololá	701	Sololá	2	El tablón	8	Agosto	2023-08-28T00:00:00	2024-11-06T15:00:00	8	Radiación solar	41
174457	7	Sololá	701	Sololá	2	El tablón	8	Agosto	2023-08-28T00:00:00	2024-11-06T16:00:00	2	Temperatura media	14.4
174458	7	Sololá	701	Sololá	2	El tablón	8	Agosto	2023-08-28T00:00:00	2024-11-06T16:00:00	4	Temperatura máxima	14.7
174459	7	Sololá	701	Sololá	2	El tablón	8	Agosto	2023-08-28T00:00:00	2024-11-06T16:00:00	3	Temperatura mínima	14.3
174460	7	Sololá	701	Sololá	2	El tablón	8	Agosto	2023-08-28T00:00:00	2024-11-06T16:00:00	5	Humedad	88
174461	7	Sololá	701	Sololá	2	El tablón	8	Agosto	2023-08-28T00:00:00	2024-11-06T16:00:00	6	Velocidad del viento	3.2
174462	7	Sololá	701	Sololá	2	El tablón	8	Agosto	2023-08-28T00:00:00	2024-11-06T16:00:00	7	Dirección del viento	3.22
174463	7	Sololá	701	Sololá	2	El tablón	8	Agosto	2023-08-28T00:00:00	2024-11-06T16:00:00	1	Precipitación	0.2
174464	7	Sololá	701	Sololá	2	El tablón	8	Agosto	2023-08-28T00:00:00	2024-11-06T16:00:00	8	Radiación solar	77
174465	7	Sololá	701	Sololá	2	El tablón	8	Agosto	2023-08-28T00:00:00	2024-11-06T17:00:00	2	Temperatura media	14.1
174466	7	Sololá	701	Sololá	2	El tablón	8	Agosto	2023-08-28T00:00:00	2024-11-06T17:00:00	4	Temperatura máxima	14.5
174467	7	Sololá	701	Sololá	2	El tablón	8	Agosto	2023-08-28T00:00:00	2024-11-06T17:00:00	3	Temperatura mínima	14.1
174468	7	Sololá	701	Sololá	2	El tablón	8	Agosto	2023-08-28T00:00:00	2024-11-06T17:00:00	5	Humedad	87
174469	7	Sololá	701	Sololá	2	El tablón	8	Agosto	2023-08-28T00:00:00	2024-11-06T17:00:00	6	Velocidad del viento	3.2
174470	7	Sololá	701	Sololá	2	El tablón	8	Agosto	2023-08-28T00:00:00	2024-11-06T17:00:00	7	Dirección del viento	3.22
174471	7	Sololá	701	Sololá	2	El tablón	8	Agosto	2023-08-28T00:00:00	2024-11-06T17:00:00	1	Precipitación	1
174472	7	Sololá	701	Sololá	2	El tablón	8	Agosto	2023-08-28T00:00:00	2024-11-06T17:00:00	8	Radiación solar	30
174473	7	Sololá	701	Sololá	2	El tablón	8	Agosto	2023-08-28T00:00:00	2024-11-06T18:00:00	2	Temperatura media	13.7
174474	7	Sololá	701	Sololá	2	El tablón	8	Agosto	2023-08-28T00:00:00	2024-11-06T18:00:00	4	Temperatura máxima	14.1
174475	7	Sololá	701	Sololá	2	El tablón	8	Agosto	2023-08-28T00:00:00	2024-11-06T18:00:00	3	Temperatura mínima	13.7
174476	7	Sololá	701	Sololá	2	El tablón	8	Agosto	2023-08-28T00:00:00	2024-11-06T18:00:00	5	Humedad	87
174477	7	Sololá	701	Sololá	2	El tablón	8	Agosto	2023-08-28T00:00:00	2024-11-06T18:00:00	6	Velocidad del viento	3.2
174478	7	Sololá	701	Sololá	2	El tablón	8	Agosto	2023-08-28T00:00:00	2024-11-06T18:00:00	7	Dirección del viento	3.22
174479	7	Sololá	701	Sololá	2	El tablón	8	Agosto	2023-08-28T00:00:00	2024-11-06T18:00:00	1	Precipitación	0.4
174480	7	Sololá	701	Sololá	2	El tablón	8	Agosto	2023-08-28T00:00:00	2024-11-06T18:00:00	8	Radiación solar	17
174481	7	Sololá	701	Sololá	2	El tablón	8	Agosto	2023-08-28T00:00:00	2024-11-06T19:00:00	2	Temperatura media	13.3
174482	7	Sololá	701	Sololá	2	El tablón	8	Agosto	2023-08-28T00:00:00	2024-11-06T19:00:00	4	Temperatura máxima	13.7
174483	7	Sololá	701	Sololá	2	El tablón	8	Agosto	2023-08-28T00:00:00	2024-11-06T19:00:00	3	Temperatura mínima	13.3
174484	7	Sololá	701	Sololá	2	El tablón	8	Agosto	2023-08-28T00:00:00	2024-11-06T19:00:00	5	Humedad	86
174485	7	Sololá	701	Sololá	2	El tablón	8	Agosto	2023-08-28T00:00:00	2024-11-06T19:00:00	6	Velocidad del viento	1.6
174486	7	Sololá	701	Sololá	2	El tablón	8	Agosto	2023-08-28T00:00:00	2024-11-06T19:00:00	7	Dirección del viento	1.61
174487	7	Sololá	701	Sololá	2	El tablón	8	Agosto	2023-08-28T00:00:00	2024-11-06T19:00:00	1	Precipitación	0
174488	7	Sololá	701	Sololá	2	El tablón	8	Agosto	2023-08-28T00:00:00	2024-11-06T19:00:00	8	Radiación solar	0
174489	7	Sololá	701	Sololá	2	El tablón	8	Agosto	2023-08-28T00:00:00	2024-11-06T20:00:00	2	Temperatura media	13.2
174490	7	Sololá	701	Sololá	2	El tablón	8	Agosto	2023-08-28T00:00:00	2024-11-06T20:00:00	4	Temperatura máxima	13.4
174491	7	Sololá	701	Sololá	2	El tablón	8	Agosto	2023-08-28T00:00:00	2024-11-06T20:00:00	3	Temperatura mínima	13.2
174492	7	Sololá	701	Sololá	2	El tablón	8	Agosto	2023-08-28T00:00:00	2024-11-06T20:00:00	5	Humedad	86
174493	7	Sololá	701	Sololá	2	El tablón	8	Agosto	2023-08-28T00:00:00	2024-11-06T20:00:00	6	Velocidad del viento	1.6
174494	7	Sololá	701	Sololá	2	El tablón	8	Agosto	2023-08-28T00:00:00	2024-11-06T20:00:00	7	Dirección del viento	1.61
174495	7	Sololá	701	Sololá	2	El tablón	8	Agosto	2023-08-28T00:00:00	2024-11-06T20:00:00	1	Precipitación	0
174496	7	Sololá	701	Sololá	2	El tablón	8	Agosto	2023-08-28T00:00:00	2024-11-06T20:00:00	8	Radiación solar	0
174497	7	Sololá	701	Sololá	2	El tablón	8	Agosto	2023-08-28T00:00:00	2024-11-06T21:00:00	2	Temperatura media	13
174498	7	Sololá	701	Sololá	2	El tablón	8	Agosto	2023-08-28T00:00:00	2024-11-06T21:00:00	4	Temperatura máxima	13.2
174499	7	Sololá	701	Sololá	2	El tablón	8	Agosto	2023-08-28T00:00:00	2024-11-06T21:00:00	3	Temperatura mínima	13
174500	7	Sololá	701	Sololá	2	El tablón	8	Agosto	2023-08-28T00:00:00	2024-11-06T21:00:00	5	Humedad	86
174501	7	Sololá	701	Sololá	2	El tablón	8	Agosto	2023-08-28T00:00:00	2024-11-06T21:00:00	6	Velocidad del viento	3.2
174502	7	Sololá	701	Sololá	2	El tablón	8	Agosto	2023-08-28T00:00:00	2024-11-06T21:00:00	7	Dirección del viento	3.22
174503	7	Sololá	701	Sololá	2	El tablón	8	Agosto	2023-08-28T00:00:00	2024-11-06T21:00:00	1	Precipitación	0.2
174504	7	Sololá	701	Sololá	2	El tablón	8	Agosto	2023-08-28T00:00:00	2024-11-06T21:00:00	8	Radiación solar	0
174505	7	Sololá	701	Sololá	2	El tablón	8	Agosto	2023-08-28T00:00:00	2024-11-06T22:00:00	2	Temperatura media	12.9
174506	7	Sololá	701	Sololá	2	El tablón	8	Agosto	2023-08-28T00:00:00	2024-11-06T22:00:00	4	Temperatura máxima	13.1
174507	7	Sololá	701	Sololá	2	El tablón	8	Agosto	2023-08-28T00:00:00	2024-11-06T22:00:00	3	Temperatura mínima	12.8
174508	7	Sololá	701	Sololá	2	El tablón	8	Agosto	2023-08-28T00:00:00	2024-11-06T22:00:00	5	Humedad	86
174509	7	Sololá	701	Sololá	2	El tablón	8	Agosto	2023-08-28T00:00:00	2024-11-06T22:00:00	6	Velocidad del viento	0
174510	7	Sololá	701	Sololá	2	El tablón	8	Agosto	2023-08-28T00:00:00	2024-11-06T22:00:00	7	Dirección del viento	0
174511	7	Sololá	701	Sololá	2	El tablón	8	Agosto	2023-08-28T00:00:00	2024-11-06T22:00:00	1	Precipitación	0
174512	7	Sololá	701	Sololá	2	El tablón	8	Agosto	2023-08-28T00:00:00	2024-11-06T22:00:00	8	Radiación solar	0
174513	7	Sololá	701	Sololá	2	El tablón	8	Agosto	2023-08-28T00:00:00	2024-11-06T23:00:00	2	Temperatura media	12.7
174514	7	Sololá	701	Sololá	2	El tablón	8	Agosto	2023-08-28T00:00:00	2024-11-06T23:00:00	4	Temperatura máxima	12.9
174515	7	Sololá	701	Sololá	2	El tablón	8	Agosto	2023-08-28T00:00:00	2024-11-06T23:00:00	3	Temperatura mínima	12.6
174516	7	Sololá	701	Sololá	2	El tablón	8	Agosto	2023-08-28T00:00:00	2024-11-06T23:00:00	5	Humedad	86
174517	7	Sololá	701	Sololá	2	El tablón	8	Agosto	2023-08-28T00:00:00	2024-11-06T23:00:00	6	Velocidad del viento	0
174518	7	Sololá	701	Sololá	2	El tablón	8	Agosto	2023-08-28T00:00:00	2024-11-06T23:00:00	7	Dirección del viento	0
174519	7	Sololá	701	Sololá	2	El tablón	8	Agosto	2023-08-28T00:00:00	2024-11-06T23:00:00	1	Precipitación	0
174520	7	Sololá	701	Sololá	2	El tablón	8	Agosto	2023-08-28T00:00:00	2024-11-06T23:00:00	8	Radiación solar	0
174521	7	Sololá	701	Sololá	2	El tablón	8	Agosto	2023-08-29T00:00:00	2024-11-06T00:00:00	2	Temperatura media	12.7
174522	7	Sololá	701	Sololá	2	El tablón	8	Agosto	2023-08-29T00:00:00	2024-11-06T00:00:00	4	Temperatura máxima	12.7
174523	7	Sololá	701	Sololá	2	El tablón	8	Agosto	2023-08-29T00:00:00	2024-11-06T00:00:00	3	Temperatura mínima	12.5
174524	7	Sololá	701	Sololá	2	El tablón	8	Agosto	2023-08-29T00:00:00	2024-11-06T00:00:00	5	Humedad	86
174525	7	Sololá	701	Sololá	2	El tablón	8	Agosto	2023-08-29T00:00:00	2024-11-06T00:00:00	6	Velocidad del viento	1.6
174526	7	Sololá	701	Sololá	2	El tablón	8	Agosto	2023-08-29T00:00:00	2024-11-06T00:00:00	7	Dirección del viento	1.61
174527	7	Sololá	701	Sololá	2	El tablón	8	Agosto	2023-08-29T00:00:00	2024-11-06T00:00:00	1	Precipitación	0
174528	7	Sololá	701	Sololá	2	El tablón	8	Agosto	2023-08-29T00:00:00	2024-11-06T00:00:00	8	Radiación solar	0
174529	7	Sololá	701	Sololá	2	El tablón	8	Agosto	2023-08-29T00:00:00	2024-11-06T01:00:00	2	Temperatura media	12.4
174530	7	Sololá	701	Sololá	2	El tablón	8	Agosto	2023-08-29T00:00:00	2024-11-06T01:00:00	4	Temperatura máxima	12.7
174531	7	Sololá	701	Sololá	2	El tablón	8	Agosto	2023-08-29T00:00:00	2024-11-06T01:00:00	3	Temperatura mínima	12.4
174532	7	Sololá	701	Sololá	2	El tablón	8	Agosto	2023-08-29T00:00:00	2024-11-06T01:00:00	5	Humedad	87
174533	7	Sololá	701	Sololá	2	El tablón	8	Agosto	2023-08-29T00:00:00	2024-11-06T01:00:00	6	Velocidad del viento	1.6
174534	7	Sololá	701	Sololá	2	El tablón	8	Agosto	2023-08-29T00:00:00	2024-11-06T01:00:00	7	Dirección del viento	1.61
174535	7	Sololá	701	Sololá	2	El tablón	8	Agosto	2023-08-29T00:00:00	2024-11-06T01:00:00	1	Precipitación	0
174536	7	Sololá	701	Sololá	2	El tablón	8	Agosto	2023-08-29T00:00:00	2024-11-06T01:00:00	8	Radiación solar	0
174537	7	Sololá	701	Sololá	2	El tablón	8	Agosto	2023-08-29T00:00:00	2024-11-06T02:00:00	2	Temperatura media	12.3
174538	7	Sololá	701	Sololá	2	El tablón	8	Agosto	2023-08-29T00:00:00	2024-11-06T02:00:00	4	Temperatura máxima	12.4
174539	7	Sololá	701	Sololá	2	El tablón	8	Agosto	2023-08-29T00:00:00	2024-11-06T02:00:00	3	Temperatura mínima	12.2
174540	7	Sololá	701	Sololá	2	El tablón	8	Agosto	2023-08-29T00:00:00	2024-11-06T02:00:00	5	Humedad	87
174541	7	Sololá	701	Sololá	2	El tablón	8	Agosto	2023-08-29T00:00:00	2024-11-06T02:00:00	6	Velocidad del viento	3.2
174542	7	Sololá	701	Sololá	2	El tablón	8	Agosto	2023-08-29T00:00:00	2024-11-06T02:00:00	7	Dirección del viento	3.22
174543	7	Sololá	701	Sololá	2	El tablón	8	Agosto	2023-08-29T00:00:00	2024-11-06T02:00:00	1	Precipitación	0
174544	7	Sololá	701	Sololá	2	El tablón	8	Agosto	2023-08-29T00:00:00	2024-11-06T02:00:00	8	Radiación solar	0
174545	7	Sololá	701	Sololá	2	El tablón	8	Agosto	2023-08-29T00:00:00	2024-11-06T03:00:00	2	Temperatura media	12.2
174546	7	Sololá	701	Sololá	2	El tablón	8	Agosto	2023-08-29T00:00:00	2024-11-06T03:00:00	4	Temperatura máxima	12.4
174547	7	Sololá	701	Sololá	2	El tablón	8	Agosto	2023-08-29T00:00:00	2024-11-06T03:00:00	3	Temperatura mínima	12.1
174548	7	Sololá	701	Sololá	2	El tablón	8	Agosto	2023-08-29T00:00:00	2024-11-06T03:00:00	5	Humedad	88
174549	7	Sololá	701	Sololá	2	El tablón	8	Agosto	2023-08-29T00:00:00	2024-11-06T03:00:00	6	Velocidad del viento	1.6
174550	7	Sololá	701	Sololá	2	El tablón	8	Agosto	2023-08-29T00:00:00	2024-11-06T03:00:00	7	Dirección del viento	1.61
174551	7	Sololá	701	Sololá	2	El tablón	8	Agosto	2023-08-29T00:00:00	2024-11-06T03:00:00	1	Precipitación	0
174552	7	Sololá	701	Sololá	2	El tablón	8	Agosto	2023-08-29T00:00:00	2024-11-06T03:00:00	8	Radiación solar	0
174553	7	Sololá	701	Sololá	2	El tablón	8	Agosto	2023-08-29T00:00:00	2024-11-06T04:00:00	2	Temperatura media	12.5
174554	7	Sololá	701	Sololá	2	El tablón	8	Agosto	2023-08-29T00:00:00	2024-11-06T04:00:00	4	Temperatura máxima	12.5
174555	7	Sololá	701	Sololá	2	El tablón	8	Agosto	2023-08-29T00:00:00	2024-11-06T04:00:00	3	Temperatura mínima	12.2
174556	7	Sololá	701	Sololá	2	El tablón	8	Agosto	2023-08-29T00:00:00	2024-11-06T04:00:00	5	Humedad	89
174557	7	Sololá	701	Sololá	2	El tablón	8	Agosto	2023-08-29T00:00:00	2024-11-06T04:00:00	6	Velocidad del viento	0
174558	7	Sololá	701	Sololá	2	El tablón	8	Agosto	2023-08-29T00:00:00	2024-11-06T04:00:00	7	Dirección del viento	0
174559	7	Sololá	701	Sololá	2	El tablón	8	Agosto	2023-08-29T00:00:00	2024-11-06T04:00:00	1	Precipitación	0
174560	7	Sololá	701	Sololá	2	El tablón	8	Agosto	2023-08-29T00:00:00	2024-11-06T04:00:00	8	Radiación solar	0
174561	7	Sololá	701	Sololá	2	El tablón	8	Agosto	2023-08-29T00:00:00	2024-11-06T05:00:00	2	Temperatura media	12.2
174562	7	Sololá	701	Sololá	2	El tablón	8	Agosto	2023-08-29T00:00:00	2024-11-06T05:00:00	4	Temperatura máxima	12.5
174563	7	Sololá	701	Sololá	2	El tablón	8	Agosto	2023-08-29T00:00:00	2024-11-06T05:00:00	3	Temperatura mínima	12.2
174564	7	Sololá	701	Sololá	2	El tablón	8	Agosto	2023-08-29T00:00:00	2024-11-06T05:00:00	5	Humedad	89
174565	7	Sololá	701	Sololá	2	El tablón	8	Agosto	2023-08-29T00:00:00	2024-11-06T05:00:00	6	Velocidad del viento	0
174566	7	Sololá	701	Sololá	2	El tablón	8	Agosto	2023-08-29T00:00:00	2024-11-06T05:00:00	7	Dirección del viento	0
174567	7	Sololá	701	Sololá	2	El tablón	8	Agosto	2023-08-29T00:00:00	2024-11-06T05:00:00	1	Precipitación	0
174568	7	Sololá	701	Sololá	2	El tablón	8	Agosto	2023-08-29T00:00:00	2024-11-06T05:00:00	8	Radiación solar	0
174569	7	Sololá	701	Sololá	2	El tablón	8	Agosto	2023-08-29T00:00:00	2024-11-06T06:00:00	2	Temperatura media	11.8
174570	7	Sololá	701	Sololá	2	El tablón	8	Agosto	2023-08-29T00:00:00	2024-11-06T06:00:00	4	Temperatura máxima	12.2
174571	7	Sololá	701	Sololá	2	El tablón	8	Agosto	2023-08-29T00:00:00	2024-11-06T06:00:00	3	Temperatura mínima	11.8
174572	7	Sololá	701	Sololá	2	El tablón	8	Agosto	2023-08-29T00:00:00	2024-11-06T06:00:00	5	Humedad	89
174573	7	Sololá	701	Sololá	2	El tablón	8	Agosto	2023-08-29T00:00:00	2024-11-06T06:00:00	6	Velocidad del viento	0
174574	7	Sololá	701	Sololá	2	El tablón	8	Agosto	2023-08-29T00:00:00	2024-11-06T06:00:00	7	Dirección del viento	0
174575	7	Sololá	701	Sololá	2	El tablón	8	Agosto	2023-08-29T00:00:00	2024-11-06T06:00:00	1	Precipitación	0
174576	7	Sololá	701	Sololá	2	El tablón	8	Agosto	2023-08-29T00:00:00	2024-11-06T06:00:00	8	Radiación solar	0
174577	7	Sololá	701	Sololá	2	El tablón	8	Agosto	2023-08-29T00:00:00	2024-11-06T07:00:00	2	Temperatura media	12.6
174578	7	Sololá	701	Sololá	2	El tablón	8	Agosto	2023-08-29T00:00:00	2024-11-06T07:00:00	4	Temperatura máxima	12.6
174579	7	Sololá	701	Sololá	2	El tablón	8	Agosto	2023-08-29T00:00:00	2024-11-06T07:00:00	3	Temperatura mínima	11.8
174580	7	Sololá	701	Sololá	2	El tablón	8	Agosto	2023-08-29T00:00:00	2024-11-06T07:00:00	5	Humedad	88
174581	7	Sololá	701	Sololá	2	El tablón	8	Agosto	2023-08-29T00:00:00	2024-11-06T07:00:00	6	Velocidad del viento	0
174582	7	Sololá	701	Sololá	2	El tablón	8	Agosto	2023-08-29T00:00:00	2024-11-06T07:00:00	7	Dirección del viento	0
174583	7	Sololá	701	Sololá	2	El tablón	8	Agosto	2023-08-29T00:00:00	2024-11-06T07:00:00	1	Precipitación	0
174584	7	Sololá	701	Sololá	2	El tablón	8	Agosto	2023-08-29T00:00:00	2024-11-06T07:00:00	8	Radiación solar	49
174585	7	Sololá	701	Sololá	2	El tablón	8	Agosto	2023-08-29T00:00:00	2024-11-06T08:00:00	2	Temperatura media	13.2
174586	7	Sololá	701	Sololá	2	El tablón	8	Agosto	2023-08-29T00:00:00	2024-11-06T08:00:00	4	Temperatura máxima	13.2
174587	7	Sololá	701	Sololá	2	El tablón	8	Agosto	2023-08-29T00:00:00	2024-11-06T08:00:00	3	Temperatura mínima	12.6
174588	7	Sololá	701	Sololá	2	El tablón	8	Agosto	2023-08-29T00:00:00	2024-11-06T08:00:00	5	Humedad	89
174589	7	Sololá	701	Sololá	2	El tablón	8	Agosto	2023-08-29T00:00:00	2024-11-06T08:00:00	6	Velocidad del viento	0
174590	7	Sololá	701	Sololá	2	El tablón	8	Agosto	2023-08-29T00:00:00	2024-11-06T08:00:00	7	Dirección del viento	0
174591	7	Sololá	701	Sololá	2	El tablón	8	Agosto	2023-08-29T00:00:00	2024-11-06T08:00:00	1	Precipitación	0
174592	7	Sololá	701	Sololá	2	El tablón	8	Agosto	2023-08-29T00:00:00	2024-11-06T08:00:00	8	Radiación solar	82
174593	7	Sololá	701	Sololá	2	El tablón	8	Agosto	2023-08-29T00:00:00	2024-11-06T09:00:00	2	Temperatura media	15.2
174594	7	Sololá	701	Sololá	2	El tablón	8	Agosto	2023-08-29T00:00:00	2024-11-06T09:00:00	4	Temperatura máxima	15.2
174595	7	Sololá	701	Sololá	2	El tablón	8	Agosto	2023-08-29T00:00:00	2024-11-06T09:00:00	3	Temperatura mínima	13.2
174596	7	Sololá	701	Sololá	2	El tablón	8	Agosto	2023-08-29T00:00:00	2024-11-06T09:00:00	5	Humedad	88
174597	7	Sololá	701	Sololá	2	El tablón	8	Agosto	2023-08-29T00:00:00	2024-11-06T09:00:00	6	Velocidad del viento	1.6
174598	7	Sololá	701	Sololá	2	El tablón	8	Agosto	2023-08-29T00:00:00	2024-11-06T09:00:00	7	Dirección del viento	1.61
174599	7	Sololá	701	Sololá	2	El tablón	8	Agosto	2023-08-29T00:00:00	2024-11-06T09:00:00	1	Precipitación	0
174600	7	Sololá	701	Sololá	2	El tablón	8	Agosto	2023-08-29T00:00:00	2024-11-06T09:00:00	8	Radiación solar	261
174601	7	Sololá	701	Sololá	2	El tablón	8	Agosto	2023-08-29T00:00:00	2024-11-06T10:00:00	2	Temperatura media	17.9
174602	7	Sololá	701	Sololá	2	El tablón	8	Agosto	2023-08-29T00:00:00	2024-11-06T10:00:00	4	Temperatura máxima	17.9
174603	7	Sololá	701	Sololá	2	El tablón	8	Agosto	2023-08-29T00:00:00	2024-11-06T10:00:00	3	Temperatura mínima	15.2
174604	7	Sololá	701	Sololá	2	El tablón	8	Agosto	2023-08-29T00:00:00	2024-11-06T10:00:00	5	Humedad	83
174605	7	Sololá	701	Sololá	2	El tablón	8	Agosto	2023-08-29T00:00:00	2024-11-06T10:00:00	6	Velocidad del viento	3.2
174606	7	Sololá	701	Sololá	2	El tablón	8	Agosto	2023-08-29T00:00:00	2024-11-06T10:00:00	7	Dirección del viento	3.22
174607	7	Sololá	701	Sololá	2	El tablón	8	Agosto	2023-08-29T00:00:00	2024-11-06T10:00:00	1	Precipitación	0
174608	7	Sololá	701	Sololá	2	El tablón	8	Agosto	2023-08-29T00:00:00	2024-11-06T10:00:00	8	Radiación solar	591
174609	7	Sololá	701	Sololá	2	El tablón	8	Agosto	2023-08-29T00:00:00	2024-11-06T11:00:00	2	Temperatura media	17.9
174610	7	Sololá	701	Sololá	2	El tablón	8	Agosto	2023-08-29T00:00:00	2024-11-06T11:00:00	4	Temperatura máxima	18.3
174611	7	Sololá	701	Sololá	2	El tablón	8	Agosto	2023-08-29T00:00:00	2024-11-06T11:00:00	3	Temperatura mínima	17.7
174612	7	Sololá	701	Sololá	2	El tablón	8	Agosto	2023-08-29T00:00:00	2024-11-06T11:00:00	5	Humedad	81
174613	7	Sololá	701	Sololá	2	El tablón	8	Agosto	2023-08-29T00:00:00	2024-11-06T11:00:00	6	Velocidad del viento	6.4
174614	7	Sololá	701	Sololá	2	El tablón	8	Agosto	2023-08-29T00:00:00	2024-11-06T11:00:00	7	Dirección del viento	6.44
174615	7	Sololá	701	Sololá	2	El tablón	8	Agosto	2023-08-29T00:00:00	2024-11-06T11:00:00	1	Precipitación	0
174616	7	Sololá	701	Sololá	2	El tablón	8	Agosto	2023-08-29T00:00:00	2024-11-06T11:00:00	8	Radiación solar	832
174617	7	Sololá	701	Sololá	2	El tablón	8	Agosto	2023-08-29T00:00:00	2024-11-06T12:00:00	2	Temperatura media	17.8
174618	7	Sololá	701	Sololá	2	El tablón	8	Agosto	2023-08-29T00:00:00	2024-11-06T12:00:00	4	Temperatura máxima	18.1
174619	7	Sololá	701	Sololá	2	El tablón	8	Agosto	2023-08-29T00:00:00	2024-11-06T12:00:00	3	Temperatura mínima	17.4
174620	7	Sololá	701	Sololá	2	El tablón	8	Agosto	2023-08-29T00:00:00	2024-11-06T12:00:00	5	Humedad	84
174621	7	Sololá	701	Sololá	2	El tablón	8	Agosto	2023-08-29T00:00:00	2024-11-06T12:00:00	6	Velocidad del viento	8
174622	7	Sololá	701	Sololá	2	El tablón	8	Agosto	2023-08-29T00:00:00	2024-11-06T12:00:00	7	Dirección del viento	8.05
174623	7	Sololá	701	Sololá	2	El tablón	8	Agosto	2023-08-29T00:00:00	2024-11-06T12:00:00	1	Precipitación	0
174624	7	Sololá	701	Sololá	2	El tablón	8	Agosto	2023-08-29T00:00:00	2024-11-06T12:00:00	8	Radiación solar	982
174625	7	Sololá	701	Sololá	2	El tablón	8	Agosto	2023-08-29T00:00:00	2024-11-06T13:00:00	2	Temperatura media	16.5
174626	7	Sololá	701	Sololá	2	El tablón	8	Agosto	2023-08-29T00:00:00	2024-11-06T13:00:00	4	Temperatura máxima	18.2
174627	7	Sololá	701	Sololá	2	El tablón	8	Agosto	2023-08-29T00:00:00	2024-11-06T13:00:00	3	Temperatura mínima	16.4
174628	7	Sololá	701	Sololá	2	El tablón	8	Agosto	2023-08-29T00:00:00	2024-11-06T13:00:00	5	Humedad	87
174629	7	Sololá	701	Sololá	2	El tablón	8	Agosto	2023-08-29T00:00:00	2024-11-06T13:00:00	6	Velocidad del viento	8
174630	7	Sololá	701	Sololá	2	El tablón	8	Agosto	2023-08-29T00:00:00	2024-11-06T13:00:00	7	Dirección del viento	8.05
174631	7	Sololá	701	Sololá	2	El tablón	8	Agosto	2023-08-29T00:00:00	2024-11-06T13:00:00	1	Precipitación	0
174632	7	Sololá	701	Sololá	2	El tablón	8	Agosto	2023-08-29T00:00:00	2024-11-06T13:00:00	8	Radiación solar	336
174633	7	Sololá	701	Sololá	2	El tablón	8	Agosto	2023-08-29T00:00:00	2024-11-06T14:00:00	2	Temperatura media	16.9
174634	7	Sololá	701	Sololá	2	El tablón	8	Agosto	2023-08-29T00:00:00	2024-11-06T14:00:00	4	Temperatura máxima	16.9
174635	7	Sololá	701	Sololá	2	El tablón	8	Agosto	2023-08-29T00:00:00	2024-11-06T14:00:00	3	Temperatura mínima	16.3
174636	7	Sololá	701	Sololá	2	El tablón	8	Agosto	2023-08-29T00:00:00	2024-11-06T14:00:00	5	Humedad	87
174637	7	Sololá	701	Sololá	2	El tablón	8	Agosto	2023-08-29T00:00:00	2024-11-06T14:00:00	6	Velocidad del viento	4.8
174638	7	Sololá	701	Sololá	2	El tablón	8	Agosto	2023-08-29T00:00:00	2024-11-06T14:00:00	7	Dirección del viento	4.83
174639	7	Sololá	701	Sololá	2	El tablón	8	Agosto	2023-08-29T00:00:00	2024-11-06T14:00:00	1	Precipitación	0
174640	7	Sololá	701	Sololá	2	El tablón	8	Agosto	2023-08-29T00:00:00	2024-11-06T14:00:00	8	Radiación solar	266
174641	7	Sololá	701	Sololá	2	El tablón	8	Agosto	2023-08-29T00:00:00	2024-11-06T15:00:00	2	Temperatura media	15.8
174642	7	Sololá	701	Sololá	2	El tablón	8	Agosto	2023-08-29T00:00:00	2024-11-06T15:00:00	4	Temperatura máxima	16.9
174643	7	Sololá	701	Sololá	2	El tablón	8	Agosto	2023-08-29T00:00:00	2024-11-06T15:00:00	3	Temperatura mínima	15.7
174644	7	Sololá	701	Sololá	2	El tablón	8	Agosto	2023-08-29T00:00:00	2024-11-06T15:00:00	5	Humedad	88
174645	7	Sololá	701	Sololá	2	El tablón	8	Agosto	2023-08-29T00:00:00	2024-11-06T15:00:00	6	Velocidad del viento	4.8
174646	7	Sololá	701	Sololá	2	El tablón	8	Agosto	2023-08-29T00:00:00	2024-11-06T15:00:00	7	Dirección del viento	4.83
174647	7	Sololá	701	Sololá	2	El tablón	8	Agosto	2023-08-29T00:00:00	2024-11-06T15:00:00	1	Precipitación	0
174648	7	Sololá	701	Sololá	2	El tablón	8	Agosto	2023-08-29T00:00:00	2024-11-06T15:00:00	8	Radiación solar	114
174649	7	Sololá	701	Sololá	2	El tablón	8	Agosto	2023-08-29T00:00:00	2024-11-06T16:00:00	2	Temperatura media	15.7
174650	7	Sololá	701	Sololá	2	El tablón	8	Agosto	2023-08-29T00:00:00	2024-11-06T16:00:00	4	Temperatura máxima	15.8
174651	7	Sololá	701	Sololá	2	El tablón	8	Agosto	2023-08-29T00:00:00	2024-11-06T16:00:00	3	Temperatura mínima	15.6
174652	7	Sololá	701	Sololá	2	El tablón	8	Agosto	2023-08-29T00:00:00	2024-11-06T16:00:00	5	Humedad	88
174653	7	Sololá	701	Sololá	2	El tablón	8	Agosto	2023-08-29T00:00:00	2024-11-06T16:00:00	6	Velocidad del viento	1.6
174654	7	Sololá	701	Sololá	2	El tablón	8	Agosto	2023-08-29T00:00:00	2024-11-06T16:00:00	7	Dirección del viento	1.61
174655	7	Sololá	701	Sololá	2	El tablón	8	Agosto	2023-08-29T00:00:00	2024-11-06T16:00:00	1	Precipitación	0
174656	7	Sololá	701	Sololá	2	El tablón	8	Agosto	2023-08-29T00:00:00	2024-11-06T16:00:00	8	Radiación solar	91
174657	7	Sololá	701	Sololá	2	El tablón	8	Agosto	2023-08-29T00:00:00	2024-11-06T17:00:00	2	Temperatura media	15.2
174658	7	Sololá	701	Sololá	2	El tablón	8	Agosto	2023-08-29T00:00:00	2024-11-06T17:00:00	4	Temperatura máxima	15.7
174659	7	Sololá	701	Sololá	2	El tablón	8	Agosto	2023-08-29T00:00:00	2024-11-06T17:00:00	3	Temperatura mínima	15.2
174660	7	Sololá	701	Sololá	2	El tablón	8	Agosto	2023-08-29T00:00:00	2024-11-06T17:00:00	5	Humedad	88
174661	7	Sololá	701	Sololá	2	El tablón	8	Agosto	2023-08-29T00:00:00	2024-11-06T17:00:00	6	Velocidad del viento	1.6
174662	7	Sololá	701	Sololá	2	El tablón	8	Agosto	2023-08-29T00:00:00	2024-11-06T17:00:00	7	Dirección del viento	1.61
174663	7	Sololá	701	Sololá	2	El tablón	8	Agosto	2023-08-29T00:00:00	2024-11-06T17:00:00	1	Precipitación	0
174664	7	Sololá	701	Sololá	2	El tablón	8	Agosto	2023-08-29T00:00:00	2024-11-06T17:00:00	8	Radiación solar	28
174665	7	Sololá	701	Sololá	2	El tablón	8	Agosto	2023-08-29T00:00:00	2024-11-06T18:00:00	2	Temperatura media	15.1
174666	7	Sololá	701	Sololá	2	El tablón	8	Agosto	2023-08-29T00:00:00	2024-11-06T18:00:00	4	Temperatura máxima	15.3
174667	7	Sololá	701	Sololá	2	El tablón	8	Agosto	2023-08-29T00:00:00	2024-11-06T18:00:00	3	Temperatura mínima	15.1
174668	7	Sololá	701	Sololá	2	El tablón	8	Agosto	2023-08-29T00:00:00	2024-11-06T18:00:00	5	Humedad	88
174669	7	Sololá	701	Sololá	2	El tablón	8	Agosto	2023-08-29T00:00:00	2024-11-06T18:00:00	6	Velocidad del viento	1.6
174670	7	Sololá	701	Sololá	2	El tablón	8	Agosto	2023-08-29T00:00:00	2024-11-06T18:00:00	7	Dirección del viento	1.61
174671	7	Sololá	701	Sololá	2	El tablón	8	Agosto	2023-08-29T00:00:00	2024-11-06T18:00:00	1	Precipitación	0.2
174672	7	Sololá	701	Sololá	2	El tablón	8	Agosto	2023-08-29T00:00:00	2024-11-06T18:00:00	8	Radiación solar	11
174673	7	Sololá	701	Sololá	2	El tablón	8	Agosto	2023-08-29T00:00:00	2024-11-06T19:00:00	2	Temperatura media	14.6
174674	7	Sololá	701	Sololá	2	El tablón	8	Agosto	2023-08-29T00:00:00	2024-11-06T19:00:00	4	Temperatura máxima	15.1
174675	7	Sololá	701	Sololá	2	El tablón	8	Agosto	2023-08-29T00:00:00	2024-11-06T19:00:00	3	Temperatura mínima	14.5
174676	7	Sololá	701	Sololá	2	El tablón	8	Agosto	2023-08-29T00:00:00	2024-11-06T19:00:00	5	Humedad	87
174677	7	Sololá	701	Sololá	2	El tablón	8	Agosto	2023-08-29T00:00:00	2024-11-06T19:00:00	6	Velocidad del viento	3.2
174678	7	Sololá	701	Sololá	2	El tablón	8	Agosto	2023-08-29T00:00:00	2024-11-06T19:00:00	7	Dirección del viento	3.22
174679	7	Sololá	701	Sololá	2	El tablón	8	Agosto	2023-08-29T00:00:00	2024-11-06T19:00:00	1	Precipitación	0
174680	7	Sololá	701	Sololá	2	El tablón	8	Agosto	2023-08-29T00:00:00	2024-11-06T19:00:00	8	Radiación solar	0
174681	7	Sololá	701	Sololá	2	El tablón	8	Agosto	2023-08-29T00:00:00	2024-11-06T20:00:00	2	Temperatura media	14.3
174682	7	Sololá	701	Sololá	2	El tablón	8	Agosto	2023-08-29T00:00:00	2024-11-06T20:00:00	4	Temperatura máxima	14.6
174683	7	Sololá	701	Sololá	2	El tablón	8	Agosto	2023-08-29T00:00:00	2024-11-06T20:00:00	3	Temperatura mínima	14.3
174684	7	Sololá	701	Sololá	2	El tablón	8	Agosto	2023-08-29T00:00:00	2024-11-06T20:00:00	5	Humedad	87
174685	7	Sololá	701	Sololá	2	El tablón	8	Agosto	2023-08-29T00:00:00	2024-11-06T20:00:00	6	Velocidad del viento	1.6
174686	7	Sololá	701	Sololá	2	El tablón	8	Agosto	2023-08-29T00:00:00	2024-11-06T20:00:00	7	Dirección del viento	1.61
174687	7	Sololá	701	Sololá	2	El tablón	8	Agosto	2023-08-29T00:00:00	2024-11-06T20:00:00	1	Precipitación	0
174688	7	Sololá	701	Sololá	2	El tablón	8	Agosto	2023-08-29T00:00:00	2024-11-06T20:00:00	8	Radiación solar	0
174689	7	Sololá	701	Sololá	2	El tablón	8	Agosto	2023-08-29T00:00:00	2024-11-06T21:00:00	2	Temperatura media	14.2
174690	7	Sololá	701	Sololá	2	El tablón	8	Agosto	2023-08-29T00:00:00	2024-11-06T21:00:00	4	Temperatura máxima	14.3
174691	7	Sololá	701	Sololá	2	El tablón	8	Agosto	2023-08-29T00:00:00	2024-11-06T21:00:00	3	Temperatura mínima	13.9
174692	7	Sololá	701	Sololá	2	El tablón	8	Agosto	2023-08-29T00:00:00	2024-11-06T21:00:00	5	Humedad	87
174693	7	Sololá	701	Sololá	2	El tablón	8	Agosto	2023-08-29T00:00:00	2024-11-06T21:00:00	6	Velocidad del viento	1.6
174694	7	Sololá	701	Sololá	2	El tablón	8	Agosto	2023-08-29T00:00:00	2024-11-06T21:00:00	7	Dirección del viento	1.61
174695	7	Sololá	701	Sololá	2	El tablón	8	Agosto	2023-08-29T00:00:00	2024-11-06T21:00:00	1	Precipitación	0
174696	7	Sololá	701	Sololá	2	El tablón	8	Agosto	2023-08-29T00:00:00	2024-11-06T21:00:00	8	Radiación solar	0
174697	7	Sololá	701	Sololá	2	El tablón	8	Agosto	2023-08-29T00:00:00	2024-11-06T22:00:00	2	Temperatura media	14.3
174698	7	Sololá	701	Sololá	2	El tablón	8	Agosto	2023-08-29T00:00:00	2024-11-06T22:00:00	4	Temperatura máxima	14.3
174699	7	Sololá	701	Sololá	2	El tablón	8	Agosto	2023-08-29T00:00:00	2024-11-06T22:00:00	3	Temperatura mínima	14.2
174700	7	Sololá	701	Sololá	2	El tablón	8	Agosto	2023-08-29T00:00:00	2024-11-06T22:00:00	5	Humedad	87
174701	7	Sololá	701	Sololá	2	El tablón	8	Agosto	2023-08-29T00:00:00	2024-11-06T22:00:00	6	Velocidad del viento	1.6
174702	7	Sololá	701	Sololá	2	El tablón	8	Agosto	2023-08-29T00:00:00	2024-11-06T22:00:00	7	Dirección del viento	1.61
174703	7	Sololá	701	Sololá	2	El tablón	8	Agosto	2023-08-29T00:00:00	2024-11-06T22:00:00	1	Precipitación	0
174704	7	Sololá	701	Sololá	2	El tablón	8	Agosto	2023-08-29T00:00:00	2024-11-06T22:00:00	8	Radiación solar	0
174705	7	Sololá	701	Sololá	2	El tablón	8	Agosto	2023-08-29T00:00:00	2024-11-06T23:00:00	2	Temperatura media	13.7
174706	7	Sololá	701	Sololá	2	El tablón	8	Agosto	2023-08-29T00:00:00	2024-11-06T23:00:00	4	Temperatura máxima	14.3
174707	7	Sololá	701	Sololá	2	El tablón	8	Agosto	2023-08-29T00:00:00	2024-11-06T23:00:00	3	Temperatura mínima	13.7
174708	7	Sololá	701	Sololá	2	El tablón	8	Agosto	2023-08-29T00:00:00	2024-11-06T23:00:00	5	Humedad	88
174709	7	Sololá	701	Sololá	2	El tablón	8	Agosto	2023-08-29T00:00:00	2024-11-06T23:00:00	6	Velocidad del viento	1.6
174710	7	Sololá	701	Sololá	2	El tablón	8	Agosto	2023-08-29T00:00:00	2024-11-06T23:00:00	7	Dirección del viento	1.61
174711	7	Sololá	701	Sololá	2	El tablón	8	Agosto	2023-08-29T00:00:00	2024-11-06T23:00:00	1	Precipitación	0.2
174712	7	Sololá	701	Sololá	2	El tablón	8	Agosto	2023-08-29T00:00:00	2024-11-06T23:00:00	8	Radiación solar	0
174713	7	Sololá	701	Sololá	2	El tablón	8	Agosto	2023-08-30T00:00:00	2024-11-06T00:00:00	2	Temperatura media	13.6
174714	7	Sololá	701	Sololá	2	El tablón	8	Agosto	2023-08-30T00:00:00	2024-11-06T00:00:00	4	Temperatura máxima	13.7
174715	7	Sololá	701	Sololá	2	El tablón	8	Agosto	2023-08-30T00:00:00	2024-11-06T00:00:00	3	Temperatura mínima	13.5
174716	7	Sololá	701	Sololá	2	El tablón	8	Agosto	2023-08-30T00:00:00	2024-11-06T00:00:00	5	Humedad	88
174717	7	Sololá	701	Sololá	2	El tablón	8	Agosto	2023-08-30T00:00:00	2024-11-06T00:00:00	6	Velocidad del viento	1.6
174718	7	Sololá	701	Sololá	2	El tablón	8	Agosto	2023-08-30T00:00:00	2024-11-06T00:00:00	7	Dirección del viento	1.61
174719	7	Sololá	701	Sololá	2	El tablón	8	Agosto	2023-08-30T00:00:00	2024-11-06T00:00:00	1	Precipitación	0.2
174720	7	Sololá	701	Sololá	2	El tablón	8	Agosto	2023-08-30T00:00:00	2024-11-06T00:00:00	8	Radiación solar	0
174721	7	Sololá	701	Sololá	2	El tablón	8	Agosto	2023-08-30T00:00:00	2024-11-06T01:00:00	2	Temperatura media	13.7
174722	7	Sololá	701	Sololá	2	El tablón	8	Agosto	2023-08-30T00:00:00	2024-11-06T01:00:00	4	Temperatura máxima	13.7
174723	7	Sololá	701	Sololá	2	El tablón	8	Agosto	2023-08-30T00:00:00	2024-11-06T01:00:00	3	Temperatura mínima	13.5
174724	7	Sololá	701	Sololá	2	El tablón	8	Agosto	2023-08-30T00:00:00	2024-11-06T01:00:00	5	Humedad	88
174725	7	Sololá	701	Sololá	2	El tablón	8	Agosto	2023-08-30T00:00:00	2024-11-06T01:00:00	6	Velocidad del viento	3.2
174726	7	Sololá	701	Sololá	2	El tablón	8	Agosto	2023-08-30T00:00:00	2024-11-06T01:00:00	7	Dirección del viento	3.22
174727	7	Sololá	701	Sololá	2	El tablón	8	Agosto	2023-08-30T00:00:00	2024-11-06T01:00:00	1	Precipitación	0.2
174728	7	Sololá	701	Sololá	2	El tablón	8	Agosto	2023-08-30T00:00:00	2024-11-06T01:00:00	8	Radiación solar	0
174729	7	Sololá	701	Sololá	2	El tablón	8	Agosto	2023-08-30T00:00:00	2024-11-06T02:00:00	2	Temperatura media	13.4
174730	7	Sololá	701	Sololá	2	El tablón	8	Agosto	2023-08-30T00:00:00	2024-11-06T02:00:00	4	Temperatura máxima	13.7
174731	7	Sololá	701	Sololá	2	El tablón	8	Agosto	2023-08-30T00:00:00	2024-11-06T02:00:00	3	Temperatura mínima	13.4
174732	7	Sololá	701	Sololá	2	El tablón	8	Agosto	2023-08-30T00:00:00	2024-11-06T02:00:00	5	Humedad	89
174733	7	Sololá	701	Sololá	2	El tablón	8	Agosto	2023-08-30T00:00:00	2024-11-06T02:00:00	6	Velocidad del viento	1.6
174734	7	Sololá	701	Sololá	2	El tablón	8	Agosto	2023-08-30T00:00:00	2024-11-06T02:00:00	7	Dirección del viento	1.61
174735	7	Sololá	701	Sololá	2	El tablón	8	Agosto	2023-08-30T00:00:00	2024-11-06T02:00:00	1	Precipitación	0.6
174736	7	Sololá	701	Sololá	2	El tablón	8	Agosto	2023-08-30T00:00:00	2024-11-06T02:00:00	8	Radiación solar	0
174737	7	Sololá	701	Sololá	2	El tablón	8	Agosto	2023-08-30T00:00:00	2024-11-06T03:00:00	2	Temperatura media	13.1
174738	7	Sololá	701	Sololá	2	El tablón	8	Agosto	2023-08-30T00:00:00	2024-11-06T03:00:00	4	Temperatura máxima	13.4
174739	7	Sololá	701	Sololá	2	El tablón	8	Agosto	2023-08-30T00:00:00	2024-11-06T03:00:00	3	Temperatura mínima	13.1
174740	7	Sololá	701	Sololá	2	El tablón	8	Agosto	2023-08-30T00:00:00	2024-11-06T03:00:00	5	Humedad	89
174741	7	Sololá	701	Sololá	2	El tablón	8	Agosto	2023-08-30T00:00:00	2024-11-06T03:00:00	6	Velocidad del viento	4.8
174742	7	Sololá	701	Sololá	2	El tablón	8	Agosto	2023-08-30T00:00:00	2024-11-06T03:00:00	7	Dirección del viento	4.83
174743	7	Sololá	701	Sololá	2	El tablón	8	Agosto	2023-08-30T00:00:00	2024-11-06T03:00:00	1	Precipitación	0.4
174744	7	Sololá	701	Sololá	2	El tablón	8	Agosto	2023-08-30T00:00:00	2024-11-06T03:00:00	8	Radiación solar	0
174745	7	Sololá	701	Sololá	2	El tablón	8	Agosto	2023-08-30T00:00:00	2024-11-06T04:00:00	2	Temperatura media	13.2
174746	7	Sololá	701	Sololá	2	El tablón	8	Agosto	2023-08-30T00:00:00	2024-11-06T04:00:00	4	Temperatura máxima	13.3
174747	7	Sololá	701	Sololá	2	El tablón	8	Agosto	2023-08-30T00:00:00	2024-11-06T04:00:00	3	Temperatura mínima	13.1
174748	7	Sololá	701	Sololá	2	El tablón	8	Agosto	2023-08-30T00:00:00	2024-11-06T04:00:00	5	Humedad	89
174749	7	Sololá	701	Sololá	2	El tablón	8	Agosto	2023-08-30T00:00:00	2024-11-06T04:00:00	6	Velocidad del viento	4.8
174750	7	Sololá	701	Sololá	2	El tablón	8	Agosto	2023-08-30T00:00:00	2024-11-06T04:00:00	7	Dirección del viento	4.83
174751	7	Sololá	701	Sololá	2	El tablón	8	Agosto	2023-08-30T00:00:00	2024-11-06T04:00:00	1	Precipitación	0
174752	7	Sololá	701	Sololá	2	El tablón	8	Agosto	2023-08-30T00:00:00	2024-11-06T04:00:00	8	Radiación solar	0
174753	7	Sololá	701	Sololá	2	El tablón	8	Agosto	2023-08-30T00:00:00	2024-11-06T05:00:00	2	Temperatura media	13.3
174754	7	Sololá	701	Sololá	2	El tablón	8	Agosto	2023-08-30T00:00:00	2024-11-06T05:00:00	4	Temperatura máxima	13.3
174755	7	Sololá	701	Sololá	2	El tablón	8	Agosto	2023-08-30T00:00:00	2024-11-06T05:00:00	3	Temperatura mínima	13.2
174756	7	Sololá	701	Sololá	2	El tablón	8	Agosto	2023-08-30T00:00:00	2024-11-06T05:00:00	5	Humedad	89
174757	7	Sololá	701	Sololá	2	El tablón	8	Agosto	2023-08-30T00:00:00	2024-11-06T05:00:00	6	Velocidad del viento	4.8
174758	7	Sololá	701	Sololá	2	El tablón	8	Agosto	2023-08-30T00:00:00	2024-11-06T05:00:00	7	Dirección del viento	4.83
174759	7	Sololá	701	Sololá	2	El tablón	8	Agosto	2023-08-30T00:00:00	2024-11-06T05:00:00	1	Precipitación	0
174760	7	Sololá	701	Sololá	2	El tablón	8	Agosto	2023-08-30T00:00:00	2024-11-06T05:00:00	8	Radiación solar	0
174761	7	Sololá	701	Sololá	2	El tablón	8	Agosto	2023-08-30T00:00:00	2024-11-06T06:00:00	2	Temperatura media	13.1
174762	7	Sololá	701	Sololá	2	El tablón	8	Agosto	2023-08-30T00:00:00	2024-11-06T06:00:00	4	Temperatura máxima	13.3
174763	7	Sololá	701	Sololá	2	El tablón	8	Agosto	2023-08-30T00:00:00	2024-11-06T06:00:00	3	Temperatura mínima	13.1
174764	7	Sololá	701	Sololá	2	El tablón	8	Agosto	2023-08-30T00:00:00	2024-11-06T06:00:00	5	Humedad	89
174765	7	Sololá	701	Sololá	2	El tablón	8	Agosto	2023-08-30T00:00:00	2024-11-06T06:00:00	6	Velocidad del viento	3.2
174766	7	Sololá	701	Sololá	2	El tablón	8	Agosto	2023-08-30T00:00:00	2024-11-06T06:00:00	7	Dirección del viento	3.22
174767	7	Sololá	701	Sololá	2	El tablón	8	Agosto	2023-08-30T00:00:00	2024-11-06T06:00:00	1	Precipitación	0
174768	7	Sololá	701	Sololá	2	El tablón	8	Agosto	2023-08-30T00:00:00	2024-11-06T06:00:00	8	Radiación solar	0
174769	7	Sololá	701	Sololá	2	El tablón	8	Agosto	2023-08-30T00:00:00	2024-11-06T07:00:00	2	Temperatura media	13.3
174770	7	Sololá	701	Sololá	2	El tablón	8	Agosto	2023-08-30T00:00:00	2024-11-06T07:00:00	4	Temperatura máxima	13.3
174771	7	Sololá	701	Sololá	2	El tablón	8	Agosto	2023-08-30T00:00:00	2024-11-06T07:00:00	3	Temperatura mínima	13.1
174772	7	Sololá	701	Sololá	2	El tablón	8	Agosto	2023-08-30T00:00:00	2024-11-06T07:00:00	5	Humedad	89
174773	7	Sololá	701	Sololá	2	El tablón	8	Agosto	2023-08-30T00:00:00	2024-11-06T07:00:00	6	Velocidad del viento	3.2
174774	7	Sololá	701	Sololá	2	El tablón	8	Agosto	2023-08-30T00:00:00	2024-11-06T07:00:00	7	Dirección del viento	3.22
174775	7	Sololá	701	Sololá	2	El tablón	8	Agosto	2023-08-30T00:00:00	2024-11-06T07:00:00	1	Precipitación	0
174776	7	Sololá	701	Sololá	2	El tablón	8	Agosto	2023-08-30T00:00:00	2024-11-06T07:00:00	8	Radiación solar	30
174777	7	Sololá	701	Sololá	2	El tablón	8	Agosto	2023-08-30T00:00:00	2024-11-06T08:00:00	2	Temperatura media	15.2
174778	7	Sololá	701	Sololá	2	El tablón	8	Agosto	2023-08-30T00:00:00	2024-11-06T08:00:00	4	Temperatura máxima	15.2
174779	7	Sololá	701	Sololá	2	El tablón	8	Agosto	2023-08-30T00:00:00	2024-11-06T08:00:00	3	Temperatura mínima	13.3
174780	7	Sololá	701	Sololá	2	El tablón	8	Agosto	2023-08-30T00:00:00	2024-11-06T08:00:00	5	Humedad	86
174781	7	Sololá	701	Sololá	2	El tablón	8	Agosto	2023-08-30T00:00:00	2024-11-06T08:00:00	6	Velocidad del viento	1.6
174782	7	Sololá	701	Sololá	2	El tablón	8	Agosto	2023-08-30T00:00:00	2024-11-06T08:00:00	7	Dirección del viento	1.61
174783	7	Sololá	701	Sololá	2	El tablón	8	Agosto	2023-08-30T00:00:00	2024-11-06T08:00:00	1	Precipitación	0
174784	7	Sololá	701	Sololá	2	El tablón	8	Agosto	2023-08-30T00:00:00	2024-11-06T08:00:00	8	Radiación solar	130
174785	7	Sololá	701	Sololá	2	El tablón	8	Agosto	2023-08-30T00:00:00	2024-11-06T09:00:00	2	Temperatura media	16.8
174786	7	Sololá	701	Sololá	2	El tablón	8	Agosto	2023-08-30T00:00:00	2024-11-06T09:00:00	4	Temperatura máxima	16.8
174787	7	Sololá	701	Sololá	2	El tablón	8	Agosto	2023-08-30T00:00:00	2024-11-06T09:00:00	3	Temperatura mínima	15.2
174788	7	Sololá	701	Sololá	2	El tablón	8	Agosto	2023-08-30T00:00:00	2024-11-06T09:00:00	5	Humedad	81
174789	7	Sololá	701	Sololá	2	El tablón	8	Agosto	2023-08-30T00:00:00	2024-11-06T09:00:00	6	Velocidad del viento	1.6
174790	7	Sololá	701	Sololá	2	El tablón	8	Agosto	2023-08-30T00:00:00	2024-11-06T09:00:00	7	Dirección del viento	1.61
174791	7	Sololá	701	Sololá	2	El tablón	8	Agosto	2023-08-30T00:00:00	2024-11-06T09:00:00	1	Precipitación	0
174792	7	Sololá	701	Sololá	2	El tablón	8	Agosto	2023-08-30T00:00:00	2024-11-06T09:00:00	8	Radiación solar	237
174793	7	Sololá	701	Sololá	2	El tablón	8	Agosto	2023-08-30T00:00:00	2024-11-06T10:00:00	2	Temperatura media	18.7
174794	7	Sololá	701	Sololá	2	El tablón	8	Agosto	2023-08-30T00:00:00	2024-11-06T10:00:00	4	Temperatura máxima	18.8
174795	7	Sololá	701	Sololá	2	El tablón	8	Agosto	2023-08-30T00:00:00	2024-11-06T10:00:00	3	Temperatura mínima	16.8
174796	7	Sololá	701	Sololá	2	El tablón	8	Agosto	2023-08-30T00:00:00	2024-11-06T10:00:00	5	Humedad	75
174797	7	Sololá	701	Sololá	2	El tablón	8	Agosto	2023-08-30T00:00:00	2024-11-06T10:00:00	6	Velocidad del viento	3.2
174798	7	Sololá	701	Sololá	2	El tablón	8	Agosto	2023-08-30T00:00:00	2024-11-06T10:00:00	7	Dirección del viento	3.22
174799	7	Sololá	701	Sololá	2	El tablón	8	Agosto	2023-08-30T00:00:00	2024-11-06T10:00:00	1	Precipitación	0
174800	7	Sololá	701	Sololá	2	El tablón	8	Agosto	2023-08-30T00:00:00	2024-11-06T10:00:00	8	Radiación solar	493
174801	7	Sololá	701	Sololá	2	El tablón	8	Agosto	2023-08-30T00:00:00	2024-11-06T11:00:00	2	Temperatura media	17.9
174802	7	Sololá	701	Sololá	2	El tablón	8	Agosto	2023-08-30T00:00:00	2024-11-06T11:00:00	4	Temperatura máxima	18.8
174803	7	Sololá	701	Sololá	2	El tablón	8	Agosto	2023-08-30T00:00:00	2024-11-06T11:00:00	3	Temperatura mínima	17.9
174804	7	Sololá	701	Sololá	2	El tablón	8	Agosto	2023-08-30T00:00:00	2024-11-06T11:00:00	5	Humedad	81
174805	7	Sololá	701	Sololá	2	El tablón	8	Agosto	2023-08-30T00:00:00	2024-11-06T11:00:00	6	Velocidad del viento	6.4
174806	7	Sololá	701	Sololá	2	El tablón	8	Agosto	2023-08-30T00:00:00	2024-11-06T11:00:00	7	Dirección del viento	6.44
174807	7	Sololá	701	Sololá	2	El tablón	8	Agosto	2023-08-30T00:00:00	2024-11-06T11:00:00	1	Precipitación	0
174808	7	Sololá	701	Sololá	2	El tablón	8	Agosto	2023-08-30T00:00:00	2024-11-06T11:00:00	8	Radiación solar	628
174809	7	Sololá	701	Sololá	2	El tablón	8	Agosto	2023-08-30T00:00:00	2024-11-06T12:00:00	2	Temperatura media	19.4
174810	7	Sololá	701	Sololá	2	El tablón	8	Agosto	2023-08-30T00:00:00	2024-11-06T12:00:00	4	Temperatura máxima	19.4
174811	7	Sololá	701	Sololá	2	El tablón	8	Agosto	2023-08-30T00:00:00	2024-11-06T12:00:00	3	Temperatura mínima	17.9
174812	7	Sololá	701	Sololá	2	El tablón	8	Agosto	2023-08-30T00:00:00	2024-11-06T12:00:00	5	Humedad	78
174813	7	Sololá	701	Sololá	2	El tablón	8	Agosto	2023-08-30T00:00:00	2024-11-06T12:00:00	6	Velocidad del viento	6.4
174814	7	Sololá	701	Sololá	2	El tablón	8	Agosto	2023-08-30T00:00:00	2024-11-06T12:00:00	7	Dirección del viento	6.44
174815	7	Sololá	701	Sololá	2	El tablón	8	Agosto	2023-08-30T00:00:00	2024-11-06T12:00:00	1	Precipitación	0
174816	7	Sololá	701	Sololá	2	El tablón	8	Agosto	2023-08-30T00:00:00	2024-11-06T12:00:00	8	Radiación solar	810
174817	7	Sololá	701	Sololá	2	El tablón	8	Agosto	2023-08-30T00:00:00	2024-11-06T13:00:00	2	Temperatura media	18.5
174818	7	Sololá	701	Sololá	2	El tablón	8	Agosto	2023-08-30T00:00:00	2024-11-06T13:00:00	4	Temperatura máxima	19.6
174819	7	Sololá	701	Sololá	2	El tablón	8	Agosto	2023-08-30T00:00:00	2024-11-06T13:00:00	3	Temperatura mínima	18.2
174820	7	Sololá	701	Sololá	2	El tablón	8	Agosto	2023-08-30T00:00:00	2024-11-06T13:00:00	5	Humedad	82
174821	7	Sololá	701	Sololá	2	El tablón	8	Agosto	2023-08-30T00:00:00	2024-11-06T13:00:00	6	Velocidad del viento	6.4
174822	7	Sololá	701	Sololá	2	El tablón	8	Agosto	2023-08-30T00:00:00	2024-11-06T13:00:00	7	Dirección del viento	6.44
174823	7	Sololá	701	Sololá	2	El tablón	8	Agosto	2023-08-30T00:00:00	2024-11-06T13:00:00	1	Precipitación	0
174824	7	Sololá	701	Sololá	2	El tablón	8	Agosto	2023-08-30T00:00:00	2024-11-06T13:00:00	8	Radiación solar	659
174825	7	Sololá	701	Sololá	2	El tablón	8	Agosto	2023-08-30T00:00:00	2024-11-06T14:00:00	2	Temperatura media	17.9
174826	7	Sololá	701	Sololá	2	El tablón	8	Agosto	2023-08-30T00:00:00	2024-11-06T14:00:00	4	Temperatura máxima	18.4
174827	7	Sololá	701	Sololá	2	El tablón	8	Agosto	2023-08-30T00:00:00	2024-11-06T14:00:00	3	Temperatura mínima	17.6
174828	7	Sololá	701	Sololá	2	El tablón	8	Agosto	2023-08-30T00:00:00	2024-11-06T14:00:00	5	Humedad	85
174829	7	Sololá	701	Sololá	2	El tablón	8	Agosto	2023-08-30T00:00:00	2024-11-06T14:00:00	6	Velocidad del viento	6.4
174830	7	Sololá	701	Sololá	2	El tablón	8	Agosto	2023-08-30T00:00:00	2024-11-06T14:00:00	7	Dirección del viento	6.44
174831	7	Sololá	701	Sololá	2	El tablón	8	Agosto	2023-08-30T00:00:00	2024-11-06T14:00:00	1	Precipitación	0
174832	7	Sololá	701	Sololá	2	El tablón	8	Agosto	2023-08-30T00:00:00	2024-11-06T14:00:00	8	Radiación solar	418
174833	7	Sololá	701	Sololá	2	El tablón	8	Agosto	2023-08-30T00:00:00	2024-11-06T15:00:00	2	Temperatura media	17
174834	7	Sololá	701	Sololá	2	El tablón	8	Agosto	2023-08-30T00:00:00	2024-11-06T15:00:00	4	Temperatura máxima	17.9
174835	7	Sololá	701	Sololá	2	El tablón	8	Agosto	2023-08-30T00:00:00	2024-11-06T15:00:00	3	Temperatura mínima	17
174836	7	Sololá	701	Sololá	2	El tablón	8	Agosto	2023-08-30T00:00:00	2024-11-06T15:00:00	5	Humedad	86
174837	7	Sololá	701	Sololá	2	El tablón	8	Agosto	2023-08-30T00:00:00	2024-11-06T15:00:00	6	Velocidad del viento	6.4
174838	7	Sololá	701	Sololá	2	El tablón	8	Agosto	2023-08-30T00:00:00	2024-11-06T15:00:00	7	Dirección del viento	6.44
174839	7	Sololá	701	Sololá	2	El tablón	8	Agosto	2023-08-30T00:00:00	2024-11-06T15:00:00	1	Precipitación	0
174840	7	Sololá	701	Sololá	2	El tablón	8	Agosto	2023-08-30T00:00:00	2024-11-06T15:00:00	8	Radiación solar	306
174841	7	Sololá	701	Sololá	2	El tablón	8	Agosto	2023-08-30T00:00:00	2024-11-06T16:00:00	2	Temperatura media	16.7
174842	7	Sololá	701	Sololá	2	El tablón	8	Agosto	2023-08-30T00:00:00	2024-11-06T16:00:00	4	Temperatura máxima	17
174843	7	Sololá	701	Sololá	2	El tablón	8	Agosto	2023-08-30T00:00:00	2024-11-06T16:00:00	3	Temperatura mínima	16.6
174844	7	Sololá	701	Sololá	2	El tablón	8	Agosto	2023-08-30T00:00:00	2024-11-06T16:00:00	5	Humedad	87
174845	7	Sololá	701	Sololá	2	El tablón	8	Agosto	2023-08-30T00:00:00	2024-11-06T16:00:00	6	Velocidad del viento	3.2
174846	7	Sololá	701	Sololá	2	El tablón	8	Agosto	2023-08-30T00:00:00	2024-11-06T16:00:00	7	Dirección del viento	3.22
174847	7	Sololá	701	Sololá	2	El tablón	8	Agosto	2023-08-30T00:00:00	2024-11-06T16:00:00	1	Precipitación	0
174848	7	Sololá	701	Sololá	2	El tablón	8	Agosto	2023-08-30T00:00:00	2024-11-06T16:00:00	8	Radiación solar	161
174849	7	Sololá	701	Sololá	2	El tablón	8	Agosto	2023-08-30T00:00:00	2024-11-06T17:00:00	2	Temperatura media	16
174850	7	Sololá	701	Sololá	2	El tablón	8	Agosto	2023-08-30T00:00:00	2024-11-06T17:00:00	4	Temperatura máxima	16.7
174851	7	Sololá	701	Sololá	2	El tablón	8	Agosto	2023-08-30T00:00:00	2024-11-06T17:00:00	3	Temperatura mínima	15.9
174852	7	Sololá	701	Sololá	2	El tablón	8	Agosto	2023-08-30T00:00:00	2024-11-06T17:00:00	5	Humedad	87
174853	7	Sololá	701	Sololá	2	El tablón	8	Agosto	2023-08-30T00:00:00	2024-11-06T17:00:00	6	Velocidad del viento	1.6
174854	7	Sololá	701	Sololá	2	El tablón	8	Agosto	2023-08-30T00:00:00	2024-11-06T17:00:00	7	Dirección del viento	1.61
174855	7	Sololá	701	Sololá	2	El tablón	8	Agosto	2023-08-30T00:00:00	2024-11-06T17:00:00	1	Precipitación	0
174856	7	Sololá	701	Sololá	2	El tablón	8	Agosto	2023-08-30T00:00:00	2024-11-06T17:00:00	8	Radiación solar	52
174857	7	Sololá	701	Sololá	2	El tablón	8	Agosto	2023-08-30T00:00:00	2024-11-06T18:00:00	2	Temperatura media	15.8
174858	7	Sololá	701	Sololá	2	El tablón	8	Agosto	2023-08-30T00:00:00	2024-11-06T18:00:00	4	Temperatura máxima	16.1
174859	7	Sololá	701	Sololá	2	El tablón	8	Agosto	2023-08-30T00:00:00	2024-11-06T18:00:00	3	Temperatura mínima	15.7
174860	7	Sololá	701	Sololá	2	El tablón	8	Agosto	2023-08-30T00:00:00	2024-11-06T18:00:00	5	Humedad	88
174861	7	Sololá	701	Sololá	2	El tablón	8	Agosto	2023-08-30T00:00:00	2024-11-06T18:00:00	6	Velocidad del viento	1.6
174862	7	Sololá	701	Sololá	2	El tablón	8	Agosto	2023-08-30T00:00:00	2024-11-06T18:00:00	7	Dirección del viento	1.61
174863	7	Sololá	701	Sololá	2	El tablón	8	Agosto	2023-08-30T00:00:00	2024-11-06T18:00:00	1	Precipitación	0
174864	7	Sololá	701	Sololá	2	El tablón	8	Agosto	2023-08-30T00:00:00	2024-11-06T18:00:00	8	Radiación solar	15
174865	7	Sololá	701	Sololá	2	El tablón	8	Agosto	2023-08-30T00:00:00	2024-11-06T19:00:00	2	Temperatura media	15.2
174866	7	Sololá	701	Sololá	2	El tablón	8	Agosto	2023-08-30T00:00:00	2024-11-06T19:00:00	4	Temperatura máxima	15.8
174867	7	Sololá	701	Sololá	2	El tablón	8	Agosto	2023-08-30T00:00:00	2024-11-06T19:00:00	3	Temperatura mínima	15.2
174868	7	Sololá	701	Sololá	2	El tablón	8	Agosto	2023-08-30T00:00:00	2024-11-06T19:00:00	5	Humedad	88
174869	7	Sololá	701	Sololá	2	El tablón	8	Agosto	2023-08-30T00:00:00	2024-11-06T19:00:00	6	Velocidad del viento	1.6
174870	7	Sololá	701	Sololá	2	El tablón	8	Agosto	2023-08-30T00:00:00	2024-11-06T19:00:00	7	Dirección del viento	1.61
174871	7	Sololá	701	Sololá	2	El tablón	8	Agosto	2023-08-30T00:00:00	2024-11-06T19:00:00	1	Precipitación	0
174872	7	Sololá	701	Sololá	2	El tablón	8	Agosto	2023-08-30T00:00:00	2024-11-06T19:00:00	8	Radiación solar	0
174873	7	Sololá	701	Sololá	2	El tablón	8	Agosto	2023-08-30T00:00:00	2024-11-06T20:00:00	2	Temperatura media	14.6
174874	7	Sololá	701	Sololá	2	El tablón	8	Agosto	2023-08-30T00:00:00	2024-11-06T20:00:00	4	Temperatura máxima	15.2
174875	7	Sololá	701	Sololá	2	El tablón	8	Agosto	2023-08-30T00:00:00	2024-11-06T20:00:00	3	Temperatura mínima	14.6
174876	7	Sololá	701	Sololá	2	El tablón	8	Agosto	2023-08-30T00:00:00	2024-11-06T20:00:00	5	Humedad	88
174877	7	Sololá	701	Sololá	2	El tablón	8	Agosto	2023-08-30T00:00:00	2024-11-06T20:00:00	6	Velocidad del viento	3.2
174878	7	Sololá	701	Sololá	2	El tablón	8	Agosto	2023-08-30T00:00:00	2024-11-06T20:00:00	7	Dirección del viento	3.22
174879	7	Sololá	701	Sololá	2	El tablón	8	Agosto	2023-08-30T00:00:00	2024-11-06T20:00:00	1	Precipitación	0
174880	7	Sololá	701	Sololá	2	El tablón	8	Agosto	2023-08-30T00:00:00	2024-11-06T20:00:00	8	Radiación solar	0
174881	7	Sololá	701	Sololá	2	El tablón	8	Agosto	2023-08-30T00:00:00	2024-11-06T21:00:00	2	Temperatura media	14.7
174882	7	Sololá	701	Sololá	2	El tablón	8	Agosto	2023-08-30T00:00:00	2024-11-06T21:00:00	4	Temperatura máxima	14.8
174883	7	Sololá	701	Sololá	2	El tablón	8	Agosto	2023-08-30T00:00:00	2024-11-06T21:00:00	3	Temperatura mínima	14.6
174884	7	Sololá	701	Sololá	2	El tablón	8	Agosto	2023-08-30T00:00:00	2024-11-06T21:00:00	5	Humedad	88
174885	7	Sololá	701	Sololá	2	El tablón	8	Agosto	2023-08-30T00:00:00	2024-11-06T21:00:00	6	Velocidad del viento	0
174886	7	Sololá	701	Sololá	2	El tablón	8	Agosto	2023-08-30T00:00:00	2024-11-06T21:00:00	7	Dirección del viento	0
174887	7	Sololá	701	Sololá	2	El tablón	8	Agosto	2023-08-30T00:00:00	2024-11-06T21:00:00	1	Precipitación	0
174888	7	Sololá	701	Sololá	2	El tablón	8	Agosto	2023-08-30T00:00:00	2024-11-06T21:00:00	8	Radiación solar	0
174889	7	Sololá	701	Sololá	2	El tablón	8	Agosto	2023-08-30T00:00:00	2024-11-06T22:00:00	2	Temperatura media	14.1
174890	7	Sololá	701	Sololá	2	El tablón	8	Agosto	2023-08-30T00:00:00	2024-11-06T22:00:00	4	Temperatura máxima	14.7
174891	7	Sololá	701	Sololá	2	El tablón	8	Agosto	2023-08-30T00:00:00	2024-11-06T22:00:00	3	Temperatura mínima	14.1
174892	7	Sololá	701	Sololá	2	El tablón	8	Agosto	2023-08-30T00:00:00	2024-11-06T22:00:00	5	Humedad	88
174893	7	Sololá	701	Sololá	2	El tablón	8	Agosto	2023-08-30T00:00:00	2024-11-06T22:00:00	6	Velocidad del viento	1.6
174894	7	Sololá	701	Sololá	2	El tablón	8	Agosto	2023-08-30T00:00:00	2024-11-06T22:00:00	7	Dirección del viento	1.61
174895	7	Sololá	701	Sololá	2	El tablón	8	Agosto	2023-08-30T00:00:00	2024-11-06T22:00:00	1	Precipitación	0
174896	7	Sololá	701	Sololá	2	El tablón	8	Agosto	2023-08-30T00:00:00	2024-11-06T22:00:00	8	Radiación solar	0
174897	7	Sololá	701	Sololá	2	El tablón	8	Agosto	2023-08-30T00:00:00	2024-11-06T23:00:00	2	Temperatura media	14
174898	7	Sololá	701	Sololá	2	El tablón	8	Agosto	2023-08-30T00:00:00	2024-11-06T23:00:00	4	Temperatura máxima	14.1
174899	7	Sololá	701	Sololá	2	El tablón	8	Agosto	2023-08-30T00:00:00	2024-11-06T23:00:00	3	Temperatura mínima	13.9
174900	7	Sololá	701	Sololá	2	El tablón	8	Agosto	2023-08-30T00:00:00	2024-11-06T23:00:00	5	Humedad	88
174901	7	Sololá	701	Sololá	2	El tablón	8	Agosto	2023-08-30T00:00:00	2024-11-06T23:00:00	6	Velocidad del viento	1.6
174902	7	Sololá	701	Sololá	2	El tablón	8	Agosto	2023-08-30T00:00:00	2024-11-06T23:00:00	7	Dirección del viento	1.61
174903	7	Sololá	701	Sololá	2	El tablón	8	Agosto	2023-08-30T00:00:00	2024-11-06T23:00:00	1	Precipitación	0
174904	7	Sololá	701	Sololá	2	El tablón	8	Agosto	2023-08-30T00:00:00	2024-11-06T23:00:00	8	Radiación solar	0
174905	7	Sololá	701	Sololá	2	El tablón	8	Agosto	2023-08-31T00:00:00	2024-11-06T00:00:00	2	Temperatura media	14.2
174906	7	Sololá	701	Sololá	2	El tablón	8	Agosto	2023-08-31T00:00:00	2024-11-06T00:00:00	4	Temperatura máxima	14.3
174907	7	Sololá	701	Sololá	2	El tablón	8	Agosto	2023-08-31T00:00:00	2024-11-06T00:00:00	3	Temperatura mínima	13.9
174908	7	Sololá	701	Sololá	2	El tablón	8	Agosto	2023-08-31T00:00:00	2024-11-06T00:00:00	5	Humedad	87
174909	7	Sololá	701	Sololá	2	El tablón	8	Agosto	2023-08-31T00:00:00	2024-11-06T00:00:00	6	Velocidad del viento	3.2
174910	7	Sololá	701	Sololá	2	El tablón	8	Agosto	2023-08-31T00:00:00	2024-11-06T00:00:00	7	Dirección del viento	3.22
174911	7	Sololá	701	Sololá	2	El tablón	8	Agosto	2023-08-31T00:00:00	2024-11-06T00:00:00	1	Precipitación	0
174912	7	Sololá	701	Sololá	2	El tablón	8	Agosto	2023-08-31T00:00:00	2024-11-06T00:00:00	8	Radiación solar	0
174913	7	Sololá	701	Sololá	2	El tablón	8	Agosto	2023-08-31T00:00:00	2024-11-06T01:00:00	2	Temperatura media	14.9
174914	7	Sololá	701	Sololá	2	El tablón	8	Agosto	2023-08-31T00:00:00	2024-11-06T01:00:00	4	Temperatura máxima	14.9
174915	7	Sololá	701	Sololá	2	El tablón	8	Agosto	2023-08-31T00:00:00	2024-11-06T01:00:00	3	Temperatura mínima	14.1
174916	7	Sololá	701	Sololá	2	El tablón	8	Agosto	2023-08-31T00:00:00	2024-11-06T01:00:00	5	Humedad	85
174917	7	Sololá	701	Sololá	2	El tablón	8	Agosto	2023-08-31T00:00:00	2024-11-06T01:00:00	6	Velocidad del viento	3.2
174918	7	Sololá	701	Sololá	2	El tablón	8	Agosto	2023-08-31T00:00:00	2024-11-06T01:00:00	7	Dirección del viento	3.22
174919	7	Sololá	701	Sololá	2	El tablón	8	Agosto	2023-08-31T00:00:00	2024-11-06T01:00:00	1	Precipitación	0
174920	7	Sololá	701	Sololá	2	El tablón	8	Agosto	2023-08-31T00:00:00	2024-11-06T01:00:00	8	Radiación solar	0
174921	7	Sololá	701	Sololá	2	El tablón	8	Agosto	2023-08-31T00:00:00	2024-11-06T02:00:00	2	Temperatura media	14.4
174922	7	Sololá	701	Sololá	2	El tablón	8	Agosto	2023-08-31T00:00:00	2024-11-06T02:00:00	4	Temperatura máxima	14.9
174923	7	Sololá	701	Sololá	2	El tablón	8	Agosto	2023-08-31T00:00:00	2024-11-06T02:00:00	3	Temperatura mínima	14.4
174924	7	Sololá	701	Sololá	2	El tablón	8	Agosto	2023-08-31T00:00:00	2024-11-06T02:00:00	5	Humedad	86
174925	7	Sololá	701	Sololá	2	El tablón	8	Agosto	2023-08-31T00:00:00	2024-11-06T02:00:00	6	Velocidad del viento	0
174926	7	Sololá	701	Sololá	2	El tablón	8	Agosto	2023-08-31T00:00:00	2024-11-06T02:00:00	7	Dirección del viento	0
174927	7	Sololá	701	Sololá	2	El tablón	8	Agosto	2023-08-31T00:00:00	2024-11-06T02:00:00	1	Precipitación	0
174928	7	Sololá	701	Sololá	2	El tablón	8	Agosto	2023-08-31T00:00:00	2024-11-06T02:00:00	8	Radiación solar	0
174929	7	Sololá	701	Sololá	2	El tablón	8	Agosto	2023-08-31T00:00:00	2024-11-06T03:00:00	2	Temperatura media	13.6
174930	7	Sololá	701	Sololá	2	El tablón	8	Agosto	2023-08-31T00:00:00	2024-11-06T03:00:00	4	Temperatura máxima	14.4
174931	7	Sololá	701	Sololá	2	El tablón	8	Agosto	2023-08-31T00:00:00	2024-11-06T03:00:00	3	Temperatura mínima	13.3
174932	7	Sololá	701	Sololá	2	El tablón	8	Agosto	2023-08-31T00:00:00	2024-11-06T03:00:00	5	Humedad	88
174933	7	Sololá	701	Sololá	2	El tablón	8	Agosto	2023-08-31T00:00:00	2024-11-06T03:00:00	6	Velocidad del viento	1.6
174934	7	Sololá	701	Sololá	2	El tablón	8	Agosto	2023-08-31T00:00:00	2024-11-06T03:00:00	7	Dirección del viento	1.61
174935	7	Sololá	701	Sololá	2	El tablón	8	Agosto	2023-08-31T00:00:00	2024-11-06T03:00:00	1	Precipitación	0
174936	7	Sololá	701	Sololá	2	El tablón	8	Agosto	2023-08-31T00:00:00	2024-11-06T03:00:00	8	Radiación solar	0
174937	7	Sololá	701	Sololá	2	El tablón	8	Agosto	2023-08-31T00:00:00	2024-11-06T04:00:00	2	Temperatura media	13.3
174938	7	Sololá	701	Sololá	2	El tablón	8	Agosto	2023-08-31T00:00:00	2024-11-06T04:00:00	4	Temperatura máxima	13.7
174939	7	Sololá	701	Sololá	2	El tablón	8	Agosto	2023-08-31T00:00:00	2024-11-06T04:00:00	3	Temperatura mínima	13.2
174940	7	Sololá	701	Sololá	2	El tablón	8	Agosto	2023-08-31T00:00:00	2024-11-06T04:00:00	5	Humedad	88
174941	7	Sololá	701	Sololá	2	El tablón	8	Agosto	2023-08-31T00:00:00	2024-11-06T04:00:00	6	Velocidad del viento	3.2
174942	7	Sololá	701	Sololá	2	El tablón	8	Agosto	2023-08-31T00:00:00	2024-11-06T04:00:00	7	Dirección del viento	3.22
174943	7	Sololá	701	Sololá	2	El tablón	8	Agosto	2023-08-31T00:00:00	2024-11-06T04:00:00	1	Precipitación	0
174944	7	Sololá	701	Sololá	2	El tablón	8	Agosto	2023-08-31T00:00:00	2024-11-06T04:00:00	8	Radiación solar	0
174945	7	Sololá	701	Sololá	2	El tablón	8	Agosto	2023-08-31T00:00:00	2024-11-06T05:00:00	2	Temperatura media	13.2
174946	7	Sololá	701	Sololá	2	El tablón	8	Agosto	2023-08-31T00:00:00	2024-11-06T05:00:00	4	Temperatura máxima	13.3
174947	7	Sololá	701	Sololá	2	El tablón	8	Agosto	2023-08-31T00:00:00	2024-11-06T05:00:00	3	Temperatura mínima	13.2
174948	7	Sololá	701	Sololá	2	El tablón	8	Agosto	2023-08-31T00:00:00	2024-11-06T05:00:00	5	Humedad	88
174949	7	Sololá	701	Sololá	2	El tablón	8	Agosto	2023-08-31T00:00:00	2024-11-06T05:00:00	6	Velocidad del viento	3.2
174950	7	Sololá	701	Sololá	2	El tablón	8	Agosto	2023-08-31T00:00:00	2024-11-06T05:00:00	7	Dirección del viento	3.22
174951	7	Sololá	701	Sololá	2	El tablón	8	Agosto	2023-08-31T00:00:00	2024-11-06T05:00:00	1	Precipitación	0
174952	7	Sololá	701	Sololá	2	El tablón	8	Agosto	2023-08-31T00:00:00	2024-11-06T05:00:00	8	Radiación solar	0
174953	7	Sololá	701	Sololá	2	El tablón	8	Agosto	2023-08-31T00:00:00	2024-11-06T06:00:00	2	Temperatura media	12.8
174954	7	Sololá	701	Sololá	2	El tablón	8	Agosto	2023-08-31T00:00:00	2024-11-06T06:00:00	4	Temperatura máxima	13.4
174955	7	Sololá	701	Sololá	2	El tablón	8	Agosto	2023-08-31T00:00:00	2024-11-06T06:00:00	3	Temperatura mínima	12.8
174956	7	Sololá	701	Sololá	2	El tablón	8	Agosto	2023-08-31T00:00:00	2024-11-06T06:00:00	5	Humedad	88
174957	7	Sololá	701	Sololá	2	El tablón	8	Agosto	2023-08-31T00:00:00	2024-11-06T06:00:00	6	Velocidad del viento	1.6
174958	7	Sololá	701	Sololá	2	El tablón	8	Agosto	2023-08-31T00:00:00	2024-11-06T06:00:00	7	Dirección del viento	1.61
174959	7	Sololá	701	Sololá	2	El tablón	8	Agosto	2023-08-31T00:00:00	2024-11-06T06:00:00	1	Precipitación	0
174960	7	Sololá	701	Sololá	2	El tablón	8	Agosto	2023-08-31T00:00:00	2024-11-06T06:00:00	8	Radiación solar	0
174961	7	Sololá	701	Sololá	2	El tablón	8	Agosto	2023-08-31T00:00:00	2024-11-06T07:00:00	2	Temperatura media	13.3
174962	7	Sololá	701	Sololá	2	El tablón	8	Agosto	2023-08-31T00:00:00	2024-11-06T07:00:00	4	Temperatura máxima	13.3
174963	7	Sololá	701	Sololá	2	El tablón	8	Agosto	2023-08-31T00:00:00	2024-11-06T07:00:00	3	Temperatura mínima	12.6
174964	7	Sololá	701	Sololá	2	El tablón	8	Agosto	2023-08-31T00:00:00	2024-11-06T07:00:00	5	Humedad	88
174965	7	Sololá	701	Sololá	2	El tablón	8	Agosto	2023-08-31T00:00:00	2024-11-06T07:00:00	6	Velocidad del viento	3.2
174966	7	Sololá	701	Sololá	2	El tablón	8	Agosto	2023-08-31T00:00:00	2024-11-06T07:00:00	7	Dirección del viento	3.22
174967	7	Sololá	701	Sololá	2	El tablón	8	Agosto	2023-08-31T00:00:00	2024-11-06T07:00:00	1	Precipitación	0
174968	7	Sololá	701	Sololá	2	El tablón	8	Agosto	2023-08-31T00:00:00	2024-11-06T07:00:00	8	Radiación solar	47
174969	7	Sololá	701	Sololá	2	El tablón	8	Agosto	2023-08-31T00:00:00	2024-11-06T08:00:00	2	Temperatura media	17.5
174970	7	Sololá	701	Sololá	2	El tablón	8	Agosto	2023-08-31T00:00:00	2024-11-06T08:00:00	4	Temperatura máxima	17.5
174971	7	Sololá	701	Sololá	2	El tablón	8	Agosto	2023-08-31T00:00:00	2024-11-06T08:00:00	3	Temperatura mínima	13.3
174972	7	Sololá	701	Sololá	2	El tablón	8	Agosto	2023-08-31T00:00:00	2024-11-06T08:00:00	5	Humedad	73
174973	7	Sololá	701	Sololá	2	El tablón	8	Agosto	2023-08-31T00:00:00	2024-11-06T08:00:00	6	Velocidad del viento	1.6
174974	7	Sololá	701	Sololá	2	El tablón	8	Agosto	2023-08-31T00:00:00	2024-11-06T08:00:00	7	Dirección del viento	1.61
174975	7	Sololá	701	Sololá	2	El tablón	8	Agosto	2023-08-31T00:00:00	2024-11-06T08:00:00	1	Precipitación	0
174976	7	Sololá	701	Sololá	2	El tablón	8	Agosto	2023-08-31T00:00:00	2024-11-06T08:00:00	8	Radiación solar	287
174977	7	Sololá	701	Sololá	2	El tablón	8	Agosto	2023-08-31T00:00:00	2024-11-06T09:00:00	2	Temperatura media	19.7
174978	7	Sololá	701	Sololá	2	El tablón	8	Agosto	2023-08-31T00:00:00	2024-11-06T09:00:00	4	Temperatura máxima	19.7
174979	7	Sololá	701	Sololá	2	El tablón	8	Agosto	2023-08-31T00:00:00	2024-11-06T09:00:00	3	Temperatura mínima	17.6
174980	7	Sololá	701	Sololá	2	El tablón	8	Agosto	2023-08-31T00:00:00	2024-11-06T09:00:00	5	Humedad	64
174981	7	Sololá	701	Sololá	2	El tablón	8	Agosto	2023-08-31T00:00:00	2024-11-06T09:00:00	6	Velocidad del viento	1.6
174982	7	Sololá	701	Sololá	2	El tablón	8	Agosto	2023-08-31T00:00:00	2024-11-06T09:00:00	7	Dirección del viento	1.61
174983	7	Sololá	701	Sololá	2	El tablón	8	Agosto	2023-08-31T00:00:00	2024-11-06T09:00:00	1	Precipitación	0
174984	7	Sololá	701	Sololá	2	El tablón	8	Agosto	2023-08-31T00:00:00	2024-11-06T09:00:00	8	Radiación solar	517
174985	7	Sololá	701	Sololá	2	El tablón	8	Agosto	2023-08-31T00:00:00	2024-11-06T10:00:00	2	Temperatura media	19.9
174986	7	Sololá	701	Sololá	2	El tablón	8	Agosto	2023-08-31T00:00:00	2024-11-06T10:00:00	4	Temperatura máxima	20.6
174987	7	Sololá	701	Sololá	2	El tablón	8	Agosto	2023-08-31T00:00:00	2024-11-06T10:00:00	3	Temperatura mínima	19.7
174988	7	Sololá	701	Sololá	2	El tablón	8	Agosto	2023-08-31T00:00:00	2024-11-06T10:00:00	5	Humedad	76
174989	7	Sololá	701	Sololá	2	El tablón	8	Agosto	2023-08-31T00:00:00	2024-11-06T10:00:00	6	Velocidad del viento	3.2
174990	7	Sololá	701	Sololá	2	El tablón	8	Agosto	2023-08-31T00:00:00	2024-11-06T10:00:00	7	Dirección del viento	3.22
174991	7	Sololá	701	Sololá	2	El tablón	8	Agosto	2023-08-31T00:00:00	2024-11-06T10:00:00	1	Precipitación	0
174992	7	Sololá	701	Sololá	2	El tablón	8	Agosto	2023-08-31T00:00:00	2024-11-06T10:00:00	8	Radiación solar	542
174993	7	Sololá	701	Sololá	2	El tablón	8	Agosto	2023-08-31T00:00:00	2024-11-06T11:00:00	2	Temperatura media	20.7
174994	7	Sololá	701	Sololá	2	El tablón	8	Agosto	2023-08-31T00:00:00	2024-11-06T11:00:00	4	Temperatura máxima	20.8
174995	7	Sololá	701	Sololá	2	El tablón	8	Agosto	2023-08-31T00:00:00	2024-11-06T11:00:00	3	Temperatura mínima	19.8
174996	7	Sololá	701	Sololá	2	El tablón	8	Agosto	2023-08-31T00:00:00	2024-11-06T11:00:00	5	Humedad	72
174997	7	Sololá	701	Sololá	2	El tablón	8	Agosto	2023-08-31T00:00:00	2024-11-06T11:00:00	6	Velocidad del viento	4.8
174998	7	Sololá	701	Sololá	2	El tablón	8	Agosto	2023-08-31T00:00:00	2024-11-06T11:00:00	7	Dirección del viento	4.83
174999	7	Sololá	701	Sololá	2	El tablón	8	Agosto	2023-08-31T00:00:00	2024-11-06T11:00:00	1	Precipitación	0
175000	7	Sololá	701	Sololá	2	El tablón	8	Agosto	2023-08-31T00:00:00	2024-11-06T11:00:00	8	Radiación solar	766
175001	7	Sololá	701	Sololá	2	El tablón	8	Agosto	2023-08-31T00:00:00	2024-11-06T12:00:00	2	Temperatura media	19.8
175002	7	Sololá	701	Sololá	2	El tablón	8	Agosto	2023-08-31T00:00:00	2024-11-06T12:00:00	4	Temperatura máxima	20.9
175003	7	Sololá	701	Sololá	2	El tablón	8	Agosto	2023-08-31T00:00:00	2024-11-06T12:00:00	3	Temperatura mínima	19.7
175004	7	Sololá	701	Sololá	2	El tablón	8	Agosto	2023-08-31T00:00:00	2024-11-06T12:00:00	5	Humedad	79
175005	7	Sololá	701	Sololá	2	El tablón	8	Agosto	2023-08-31T00:00:00	2024-11-06T12:00:00	6	Velocidad del viento	8
175006	7	Sololá	701	Sololá	2	El tablón	8	Agosto	2023-08-31T00:00:00	2024-11-06T12:00:00	7	Dirección del viento	8.05
175007	7	Sololá	701	Sololá	2	El tablón	8	Agosto	2023-08-31T00:00:00	2024-11-06T12:00:00	1	Precipitación	0
175008	7	Sololá	701	Sololá	2	El tablón	8	Agosto	2023-08-31T00:00:00	2024-11-06T12:00:00	8	Radiación solar	950
175009	7	Sololá	701	Sololá	2	El tablón	8	Agosto	2023-08-31T00:00:00	2024-11-06T13:00:00	2	Temperatura media	18.3
175010	7	Sololá	701	Sololá	2	El tablón	8	Agosto	2023-08-31T00:00:00	2024-11-06T13:00:00	4	Temperatura máxima	20.1
175011	7	Sololá	701	Sololá	2	El tablón	8	Agosto	2023-08-31T00:00:00	2024-11-06T13:00:00	3	Temperatura mínima	18.2
175012	7	Sololá	701	Sololá	2	El tablón	8	Agosto	2023-08-31T00:00:00	2024-11-06T13:00:00	5	Humedad	85
175013	7	Sololá	701	Sololá	2	El tablón	8	Agosto	2023-08-31T00:00:00	2024-11-06T13:00:00	6	Velocidad del viento	6.4
175014	7	Sololá	701	Sololá	2	El tablón	8	Agosto	2023-08-31T00:00:00	2024-11-06T13:00:00	7	Dirección del viento	6.44
175015	7	Sololá	701	Sololá	2	El tablón	8	Agosto	2023-08-31T00:00:00	2024-11-06T13:00:00	1	Precipitación	0
175016	7	Sololá	701	Sololá	2	El tablón	8	Agosto	2023-08-31T00:00:00	2024-11-06T13:00:00	8	Radiación solar	474
175017	7	Sololá	701	Sololá	2	El tablón	8	Agosto	2023-08-31T00:00:00	2024-11-06T14:00:00	2	Temperatura media	15.2
175018	7	Sololá	701	Sololá	2	El tablón	8	Agosto	2023-08-31T00:00:00	2024-11-06T14:00:00	4	Temperatura máxima	18.5
175019	7	Sololá	701	Sololá	2	El tablón	8	Agosto	2023-08-31T00:00:00	2024-11-06T14:00:00	3	Temperatura mínima	15.2
175020	7	Sololá	701	Sololá	2	El tablón	8	Agosto	2023-08-31T00:00:00	2024-11-06T14:00:00	5	Humedad	88
175021	7	Sololá	701	Sololá	2	El tablón	8	Agosto	2023-08-31T00:00:00	2024-11-06T14:00:00	6	Velocidad del viento	4.8
175022	7	Sololá	701	Sololá	2	El tablón	8	Agosto	2023-08-31T00:00:00	2024-11-06T14:00:00	7	Dirección del viento	4.83
175023	7	Sololá	701	Sololá	2	El tablón	8	Agosto	2023-08-31T00:00:00	2024-11-06T14:00:00	1	Precipitación	23
175024	7	Sololá	701	Sololá	2	El tablón	8	Agosto	2023-08-31T00:00:00	2024-11-06T14:00:00	8	Radiación solar	103
175025	7	Sololá	701	Sololá	2	El tablón	8	Agosto	2023-08-31T00:00:00	2024-11-06T15:00:00	2	Temperatura media	14.3
175026	7	Sololá	701	Sololá	2	El tablón	8	Agosto	2023-08-31T00:00:00	2024-11-06T15:00:00	4	Temperatura máxima	15.1
175027	7	Sololá	701	Sololá	2	El tablón	8	Agosto	2023-08-31T00:00:00	2024-11-06T15:00:00	3	Temperatura mínima	14.3
175028	7	Sololá	701	Sololá	2	El tablón	8	Agosto	2023-08-31T00:00:00	2024-11-06T15:00:00	5	Humedad	88
175029	7	Sololá	701	Sololá	2	El tablón	8	Agosto	2023-08-31T00:00:00	2024-11-06T15:00:00	6	Velocidad del viento	3.2
175030	7	Sololá	701	Sololá	2	El tablón	8	Agosto	2023-08-31T00:00:00	2024-11-06T15:00:00	7	Dirección del viento	3.22
175031	7	Sololá	701	Sololá	2	El tablón	8	Agosto	2023-08-31T00:00:00	2024-11-06T15:00:00	1	Precipitación	2.4
175032	7	Sololá	701	Sololá	2	El tablón	8	Agosto	2023-08-31T00:00:00	2024-11-06T15:00:00	8	Radiación solar	33
175033	7	Sololá	701	Sololá	2	El tablón	8	Agosto	2023-08-31T00:00:00	2024-11-06T16:00:00	2	Temperatura media	14.2
175034	7	Sololá	701	Sololá	2	El tablón	8	Agosto	2023-08-31T00:00:00	2024-11-06T16:00:00	4	Temperatura máxima	14.4
175035	7	Sololá	701	Sololá	2	El tablón	8	Agosto	2023-08-31T00:00:00	2024-11-06T16:00:00	3	Temperatura mínima	14.2
175036	7	Sololá	701	Sololá	2	El tablón	8	Agosto	2023-08-31T00:00:00	2024-11-06T16:00:00	5	Humedad	88
175037	7	Sololá	701	Sololá	2	El tablón	8	Agosto	2023-08-31T00:00:00	2024-11-06T16:00:00	6	Velocidad del viento	3.2
175038	7	Sololá	701	Sololá	2	El tablón	8	Agosto	2023-08-31T00:00:00	2024-11-06T16:00:00	7	Dirección del viento	3.22
175039	7	Sololá	701	Sololá	2	El tablón	8	Agosto	2023-08-31T00:00:00	2024-11-06T16:00:00	1	Precipitación	0
175040	7	Sololá	701	Sololá	2	El tablón	8	Agosto	2023-08-31T00:00:00	2024-11-06T16:00:00	8	Radiación solar	48
175041	7	Sololá	701	Sololá	2	El tablón	8	Agosto	2023-08-31T00:00:00	2024-11-06T17:00:00	2	Temperatura media	15.2
175042	7	Sololá	701	Sololá	2	El tablón	8	Agosto	2023-08-31T00:00:00	2024-11-06T17:00:00	4	Temperatura máxima	15.4
175043	7	Sololá	701	Sololá	2	El tablón	8	Agosto	2023-08-31T00:00:00	2024-11-06T17:00:00	3	Temperatura mínima	14.2
175044	7	Sololá	701	Sololá	2	El tablón	8	Agosto	2023-08-31T00:00:00	2024-11-06T17:00:00	5	Humedad	88
175045	7	Sololá	701	Sololá	2	El tablón	8	Agosto	2023-08-31T00:00:00	2024-11-06T17:00:00	6	Velocidad del viento	3.2
175046	7	Sololá	701	Sololá	2	El tablón	8	Agosto	2023-08-31T00:00:00	2024-11-06T17:00:00	7	Dirección del viento	3.22
175047	7	Sololá	701	Sololá	2	El tablón	8	Agosto	2023-08-31T00:00:00	2024-11-06T17:00:00	1	Precipitación	0
175048	7	Sololá	701	Sololá	2	El tablón	8	Agosto	2023-08-31T00:00:00	2024-11-06T17:00:00	8	Radiación solar	44
175049	7	Sololá	701	Sololá	2	El tablón	8	Agosto	2023-08-31T00:00:00	2024-11-06T18:00:00	2	Temperatura media	14.3
175050	7	Sololá	701	Sololá	2	El tablón	8	Agosto	2023-08-31T00:00:00	2024-11-06T18:00:00	4	Temperatura máxima	15.2
175051	7	Sololá	701	Sololá	2	El tablón	8	Agosto	2023-08-31T00:00:00	2024-11-06T18:00:00	3	Temperatura mínima	14.3
175052	7	Sololá	701	Sololá	2	El tablón	8	Agosto	2023-08-31T00:00:00	2024-11-06T18:00:00	5	Humedad	88
175053	7	Sololá	701	Sololá	2	El tablón	8	Agosto	2023-08-31T00:00:00	2024-11-06T18:00:00	6	Velocidad del viento	1.6
175054	7	Sololá	701	Sololá	2	El tablón	8	Agosto	2023-08-31T00:00:00	2024-11-06T18:00:00	7	Dirección del viento	1.61
175055	7	Sololá	701	Sololá	2	El tablón	8	Agosto	2023-08-31T00:00:00	2024-11-06T18:00:00	1	Precipitación	0
175056	7	Sololá	701	Sololá	2	El tablón	8	Agosto	2023-08-31T00:00:00	2024-11-06T18:00:00	8	Radiación solar	3
175057	7	Sololá	701	Sololá	2	El tablón	8	Agosto	2023-08-31T00:00:00	2024-11-06T19:00:00	2	Temperatura media	13.8
175058	7	Sololá	701	Sololá	2	El tablón	8	Agosto	2023-08-31T00:00:00	2024-11-06T19:00:00	4	Temperatura máxima	14.6
175059	7	Sololá	701	Sololá	2	El tablón	8	Agosto	2023-08-31T00:00:00	2024-11-06T19:00:00	3	Temperatura mínima	13.8
175060	7	Sololá	701	Sololá	2	El tablón	8	Agosto	2023-08-31T00:00:00	2024-11-06T19:00:00	5	Humedad	88
175061	7	Sololá	701	Sololá	2	El tablón	8	Agosto	2023-08-31T00:00:00	2024-11-06T19:00:00	6	Velocidad del viento	1.6
175062	7	Sololá	701	Sololá	2	El tablón	8	Agosto	2023-08-31T00:00:00	2024-11-06T19:00:00	7	Dirección del viento	1.61
175063	7	Sololá	701	Sololá	2	El tablón	8	Agosto	2023-08-31T00:00:00	2024-11-06T19:00:00	1	Precipitación	0.2
175064	7	Sololá	701	Sololá	2	El tablón	8	Agosto	2023-08-31T00:00:00	2024-11-06T19:00:00	8	Radiación solar	0
175065	7	Sololá	701	Sololá	2	El tablón	8	Agosto	2023-08-31T00:00:00	2024-11-06T20:00:00	2	Temperatura media	13.7
175066	7	Sololá	701	Sololá	2	El tablón	8	Agosto	2023-08-31T00:00:00	2024-11-06T20:00:00	4	Temperatura máxima	14
175067	7	Sololá	701	Sololá	2	El tablón	8	Agosto	2023-08-31T00:00:00	2024-11-06T20:00:00	3	Temperatura mínima	13.7
175068	7	Sololá	701	Sololá	2	El tablón	8	Agosto	2023-08-31T00:00:00	2024-11-06T20:00:00	5	Humedad	88
175069	7	Sololá	701	Sololá	2	El tablón	8	Agosto	2023-08-31T00:00:00	2024-11-06T20:00:00	6	Velocidad del viento	3.2
175070	7	Sololá	701	Sololá	2	El tablón	8	Agosto	2023-08-31T00:00:00	2024-11-06T20:00:00	7	Dirección del viento	3.22
175071	7	Sololá	701	Sololá	2	El tablón	8	Agosto	2023-08-31T00:00:00	2024-11-06T20:00:00	1	Precipitación	1.6
175072	7	Sololá	701	Sololá	2	El tablón	8	Agosto	2023-08-31T00:00:00	2024-11-06T20:00:00	8	Radiación solar	0
175073	7	Sololá	701	Sololá	2	El tablón	8	Agosto	2023-08-31T00:00:00	2024-11-06T21:00:00	2	Temperatura media	13.3
175074	7	Sololá	701	Sololá	2	El tablón	8	Agosto	2023-08-31T00:00:00	2024-11-06T21:00:00	4	Temperatura máxima	13.7
175075	7	Sololá	701	Sololá	2	El tablón	8	Agosto	2023-08-31T00:00:00	2024-11-06T21:00:00	3	Temperatura mínima	13.2
175076	7	Sololá	701	Sololá	2	El tablón	8	Agosto	2023-08-31T00:00:00	2024-11-06T21:00:00	5	Humedad	88
175077	7	Sololá	701	Sololá	2	El tablón	8	Agosto	2023-08-31T00:00:00	2024-11-06T21:00:00	6	Velocidad del viento	3.2
175078	7	Sololá	701	Sololá	2	El tablón	8	Agosto	2023-08-31T00:00:00	2024-11-06T21:00:00	7	Dirección del viento	3.22
175079	7	Sololá	701	Sololá	2	El tablón	8	Agosto	2023-08-31T00:00:00	2024-11-06T21:00:00	1	Precipitación	0.2
175080	7	Sololá	701	Sololá	2	El tablón	8	Agosto	2023-08-31T00:00:00	2024-11-06T21:00:00	8	Radiación solar	0
175081	7	Sololá	701	Sololá	2	El tablón	8	Agosto	2023-08-31T00:00:00	2024-11-06T22:00:00	2	Temperatura media	13.7
175082	7	Sololá	701	Sololá	2	El tablón	8	Agosto	2023-08-31T00:00:00	2024-11-06T22:00:00	4	Temperatura máxima	13.8
175083	7	Sololá	701	Sololá	2	El tablón	8	Agosto	2023-08-31T00:00:00	2024-11-06T22:00:00	3	Temperatura mínima	13.3
175084	7	Sololá	701	Sololá	2	El tablón	8	Agosto	2023-08-31T00:00:00	2024-11-06T22:00:00	5	Humedad	88
175085	7	Sololá	701	Sololá	2	El tablón	8	Agosto	2023-08-31T00:00:00	2024-11-06T22:00:00	6	Velocidad del viento	1.6
175086	7	Sololá	701	Sololá	2	El tablón	8	Agosto	2023-08-31T00:00:00	2024-11-06T22:00:00	7	Dirección del viento	1.61
175087	7	Sololá	701	Sololá	2	El tablón	8	Agosto	2023-08-31T00:00:00	2024-11-06T22:00:00	1	Precipitación	0
175088	7	Sololá	701	Sololá	2	El tablón	8	Agosto	2023-08-31T00:00:00	2024-11-06T22:00:00	8	Radiación solar	0
175089	7	Sololá	701	Sololá	2	El tablón	8	Agosto	2023-08-31T00:00:00	2024-11-06T23:00:00	2	Temperatura media	13.4
175090	7	Sololá	701	Sololá	2	El tablón	8	Agosto	2023-08-31T00:00:00	2024-11-06T23:00:00	4	Temperatura máxima	13.8
175091	7	Sololá	701	Sololá	2	El tablón	8	Agosto	2023-08-31T00:00:00	2024-11-06T23:00:00	3	Temperatura mínima	13.4
175092	7	Sololá	701	Sololá	2	El tablón	8	Agosto	2023-08-31T00:00:00	2024-11-06T23:00:00	5	Humedad	89
175093	7	Sololá	701	Sololá	2	El tablón	8	Agosto	2023-08-31T00:00:00	2024-11-06T23:00:00	6	Velocidad del viento	1.6
175094	7	Sololá	701	Sololá	2	El tablón	8	Agosto	2023-08-31T00:00:00	2024-11-06T23:00:00	7	Dirección del viento	1.61
175095	7	Sololá	701	Sololá	2	El tablón	8	Agosto	2023-08-31T00:00:00	2024-11-06T23:00:00	1	Precipitación	0
175096	7	Sololá	701	Sololá	2	El tablón	8	Agosto	2023-08-31T00:00:00	2024-11-06T23:00:00	8	Radiación solar	0
175097	7	Sololá	701	Sololá	2	El tablón	9	Septiembre	2023-01-09T00:00:00	2024-11-06T00:00:00	2	Temperatura media	13.1
175098	7	Sololá	701	Sololá	2	El tablón	9	Septiembre	2023-01-09T00:00:00	2024-11-06T00:00:00	4	Temperatura máxima	13.4
175099	7	Sololá	701	Sololá	2	El tablón	9	Septiembre	2023-01-09T00:00:00	2024-11-06T00:00:00	3	Temperatura mínima	13.1
175100	7	Sololá	701	Sololá	2	El tablón	9	Septiembre	2023-01-09T00:00:00	2024-11-06T00:00:00	5	Humedad	87
175101	7	Sololá	701	Sololá	2	El tablón	9	Septiembre	2023-01-09T00:00:00	2024-11-06T00:00:00	6	Velocidad del viento	4.8
175102	7	Sololá	701	Sololá	2	El tablón	9	Septiembre	2023-01-09T00:00:00	2024-11-06T00:00:00	7	Dirección del viento	4.83
175103	7	Sololá	701	Sololá	2	El tablón	9	Septiembre	2023-01-09T00:00:00	2024-11-06T00:00:00	1	Precipitación	0.2
175104	7	Sololá	701	Sololá	2	El tablón	9	Septiembre	2023-01-09T00:00:00	2024-11-06T00:00:00	8	Radiación solar	0
175105	7	Sololá	701	Sololá	2	El tablón	9	Septiembre	2023-01-09T00:00:00	2024-11-06T01:00:00	2	Temperatura media	12.8
175106	7	Sololá	701	Sololá	2	El tablón	9	Septiembre	2023-01-09T00:00:00	2024-11-06T01:00:00	4	Temperatura máxima	13
175107	7	Sololá	701	Sololá	2	El tablón	9	Septiembre	2023-01-09T00:00:00	2024-11-06T01:00:00	3	Temperatura mínima	12.2
175108	7	Sololá	701	Sololá	2	El tablón	9	Septiembre	2023-01-09T00:00:00	2024-11-06T01:00:00	5	Humedad	85
175109	7	Sololá	701	Sololá	2	El tablón	9	Septiembre	2023-01-09T00:00:00	2024-11-06T01:00:00	6	Velocidad del viento	11.3
175110	7	Sololá	701	Sololá	2	El tablón	9	Septiembre	2023-01-09T00:00:00	2024-11-06T01:00:00	7	Dirección del viento	11.27
175111	7	Sololá	701	Sololá	2	El tablón	9	Septiembre	2023-01-09T00:00:00	2024-11-06T01:00:00	1	Precipitación	1.4
175112	7	Sololá	701	Sololá	2	El tablón	9	Septiembre	2023-01-09T00:00:00	2024-11-06T01:00:00	8	Radiación solar	0
175113	7	Sololá	701	Sololá	2	El tablón	9	Septiembre	2023-01-09T00:00:00	2024-11-06T02:00:00	2	Temperatura media	13.7
175114	7	Sololá	701	Sololá	2	El tablón	9	Septiembre	2023-01-09T00:00:00	2024-11-06T02:00:00	4	Temperatura máxima	13.9
175115	7	Sololá	701	Sololá	2	El tablón	9	Septiembre	2023-01-09T00:00:00	2024-11-06T02:00:00	3	Temperatura mínima	12.8
175116	7	Sololá	701	Sololá	2	El tablón	9	Septiembre	2023-01-09T00:00:00	2024-11-06T02:00:00	5	Humedad	81
175117	7	Sololá	701	Sololá	2	El tablón	9	Septiembre	2023-01-09T00:00:00	2024-11-06T02:00:00	6	Velocidad del viento	6.4
175118	7	Sololá	701	Sololá	2	El tablón	9	Septiembre	2023-01-09T00:00:00	2024-11-06T02:00:00	7	Dirección del viento	6.44
175119	7	Sololá	701	Sololá	2	El tablón	9	Septiembre	2023-01-09T00:00:00	2024-11-06T02:00:00	1	Precipitación	0
175120	7	Sololá	701	Sololá	2	El tablón	9	Septiembre	2023-01-09T00:00:00	2024-11-06T02:00:00	8	Radiación solar	0
175121	7	Sololá	701	Sololá	2	El tablón	9	Septiembre	2023-01-09T00:00:00	2024-11-06T03:00:00	2	Temperatura media	12.4
175122	7	Sololá	701	Sololá	2	El tablón	9	Septiembre	2023-01-09T00:00:00	2024-11-06T03:00:00	4	Temperatura máxima	13.7
175123	7	Sololá	701	Sololá	2	El tablón	9	Septiembre	2023-01-09T00:00:00	2024-11-06T03:00:00	3	Temperatura mínima	12.4
175124	7	Sololá	701	Sololá	2	El tablón	9	Septiembre	2023-01-09T00:00:00	2024-11-06T03:00:00	5	Humedad	86
175125	7	Sololá	701	Sololá	2	El tablón	9	Septiembre	2023-01-09T00:00:00	2024-11-06T03:00:00	6	Velocidad del viento	4.8
175126	7	Sololá	701	Sololá	2	El tablón	9	Septiembre	2023-01-09T00:00:00	2024-11-06T03:00:00	7	Dirección del viento	4.83
175127	7	Sololá	701	Sololá	2	El tablón	9	Septiembre	2023-01-09T00:00:00	2024-11-06T03:00:00	1	Precipitación	0
175128	7	Sololá	701	Sololá	2	El tablón	9	Septiembre	2023-01-09T00:00:00	2024-11-06T03:00:00	8	Radiación solar	0
175129	7	Sololá	701	Sololá	2	El tablón	9	Septiembre	2023-01-09T00:00:00	2024-11-06T04:00:00	2	Temperatura media	13
175130	7	Sololá	701	Sololá	2	El tablón	9	Septiembre	2023-01-09T00:00:00	2024-11-06T04:00:00	4	Temperatura máxima	13.1
175131	7	Sololá	701	Sololá	2	El tablón	9	Septiembre	2023-01-09T00:00:00	2024-11-06T04:00:00	3	Temperatura mínima	12.3
175132	7	Sololá	701	Sololá	2	El tablón	9	Septiembre	2023-01-09T00:00:00	2024-11-06T04:00:00	5	Humedad	84
175133	7	Sololá	701	Sololá	2	El tablón	9	Septiembre	2023-01-09T00:00:00	2024-11-06T04:00:00	6	Velocidad del viento	6.4
175134	7	Sololá	701	Sololá	2	El tablón	9	Septiembre	2023-01-09T00:00:00	2024-11-06T04:00:00	7	Dirección del viento	6.44
175135	7	Sololá	701	Sololá	2	El tablón	9	Septiembre	2023-01-09T00:00:00	2024-11-06T04:00:00	1	Precipitación	0
175136	7	Sololá	701	Sololá	2	El tablón	9	Septiembre	2023-01-09T00:00:00	2024-11-06T04:00:00	8	Radiación solar	0
175137	7	Sololá	701	Sololá	2	El tablón	9	Septiembre	2023-01-09T00:00:00	2024-11-06T05:00:00	2	Temperatura media	13.4
175138	7	Sololá	701	Sololá	2	El tablón	9	Septiembre	2023-01-09T00:00:00	2024-11-06T05:00:00	4	Temperatura máxima	13.9
175139	7	Sololá	701	Sololá	2	El tablón	9	Septiembre	2023-01-09T00:00:00	2024-11-06T05:00:00	3	Temperatura mínima	13
175140	7	Sololá	701	Sololá	2	El tablón	9	Septiembre	2023-01-09T00:00:00	2024-11-06T05:00:00	5	Humedad	82
175141	7	Sololá	701	Sololá	2	El tablón	9	Septiembre	2023-01-09T00:00:00	2024-11-06T05:00:00	6	Velocidad del viento	6.4
175142	7	Sololá	701	Sololá	2	El tablón	9	Septiembre	2023-01-09T00:00:00	2024-11-06T05:00:00	7	Dirección del viento	6.44
175143	7	Sololá	701	Sololá	2	El tablón	9	Septiembre	2023-01-09T00:00:00	2024-11-06T05:00:00	1	Precipitación	0
175144	7	Sololá	701	Sololá	2	El tablón	9	Septiembre	2023-01-09T00:00:00	2024-11-06T05:00:00	8	Radiación solar	0
175145	7	Sololá	701	Sololá	2	El tablón	9	Septiembre	2023-01-09T00:00:00	2024-11-06T06:00:00	2	Temperatura media	14.2
175146	7	Sololá	701	Sololá	2	El tablón	9	Septiembre	2023-01-09T00:00:00	2024-11-06T06:00:00	4	Temperatura máxima	14.2
175147	7	Sololá	701	Sololá	2	El tablón	9	Septiembre	2023-01-09T00:00:00	2024-11-06T06:00:00	3	Temperatura mínima	13.3
175148	7	Sololá	701	Sololá	2	El tablón	9	Septiembre	2023-01-09T00:00:00	2024-11-06T06:00:00	5	Humedad	78
175149	7	Sololá	701	Sololá	2	El tablón	9	Septiembre	2023-01-09T00:00:00	2024-11-06T06:00:00	6	Velocidad del viento	8
175150	7	Sololá	701	Sololá	2	El tablón	9	Septiembre	2023-01-09T00:00:00	2024-11-06T06:00:00	7	Dirección del viento	8.05
175151	7	Sololá	701	Sololá	2	El tablón	9	Septiembre	2023-01-09T00:00:00	2024-11-06T06:00:00	1	Precipitación	0
175152	7	Sololá	701	Sololá	2	El tablón	9	Septiembre	2023-01-09T00:00:00	2024-11-06T06:00:00	8	Radiación solar	0
175153	7	Sololá	701	Sololá	2	El tablón	9	Septiembre	2023-01-09T00:00:00	2024-11-06T07:00:00	2	Temperatura media	15.4
175154	7	Sololá	701	Sololá	2	El tablón	9	Septiembre	2023-01-09T00:00:00	2024-11-06T07:00:00	4	Temperatura máxima	15.4
175155	7	Sololá	701	Sololá	2	El tablón	9	Septiembre	2023-01-09T00:00:00	2024-11-06T07:00:00	3	Temperatura mínima	14
175156	7	Sololá	701	Sololá	2	El tablón	9	Septiembre	2023-01-09T00:00:00	2024-11-06T07:00:00	5	Humedad	73
175157	7	Sololá	701	Sololá	2	El tablón	9	Septiembre	2023-01-09T00:00:00	2024-11-06T07:00:00	6	Velocidad del viento	8
175158	7	Sololá	701	Sololá	2	El tablón	9	Septiembre	2023-01-09T00:00:00	2024-11-06T07:00:00	7	Dirección del viento	8.05
175159	7	Sololá	701	Sololá	2	El tablón	9	Septiembre	2023-01-09T00:00:00	2024-11-06T07:00:00	1	Precipitación	0
175160	7	Sololá	701	Sololá	2	El tablón	9	Septiembre	2023-01-09T00:00:00	2024-11-06T07:00:00	8	Radiación solar	70
175161	7	Sololá	701	Sololá	2	El tablón	9	Septiembre	2023-01-09T00:00:00	2024-11-06T08:00:00	2	Temperatura media	17.4
175162	7	Sololá	701	Sololá	2	El tablón	9	Septiembre	2023-01-09T00:00:00	2024-11-06T08:00:00	4	Temperatura máxima	17.4
175163	7	Sololá	701	Sololá	2	El tablón	9	Septiembre	2023-01-09T00:00:00	2024-11-06T08:00:00	3	Temperatura mínima	15.4
175164	7	Sololá	701	Sololá	2	El tablón	9	Septiembre	2023-01-09T00:00:00	2024-11-06T08:00:00	5	Humedad	68
175165	7	Sololá	701	Sololá	2	El tablón	9	Septiembre	2023-01-09T00:00:00	2024-11-06T08:00:00	6	Velocidad del viento	11.3
175166	7	Sololá	701	Sololá	2	El tablón	9	Septiembre	2023-01-09T00:00:00	2024-11-06T08:00:00	7	Dirección del viento	11.27
175167	7	Sololá	701	Sololá	2	El tablón	9	Septiembre	2023-01-09T00:00:00	2024-11-06T08:00:00	1	Precipitación	0
175168	7	Sololá	701	Sololá	2	El tablón	9	Septiembre	2023-01-09T00:00:00	2024-11-06T08:00:00	8	Radiación solar	314
175169	7	Sololá	701	Sololá	2	El tablón	9	Septiembre	2023-01-09T00:00:00	2024-11-06T09:00:00	2	Temperatura media	18.1
175170	7	Sololá	701	Sololá	2	El tablón	9	Septiembre	2023-01-09T00:00:00	2024-11-06T09:00:00	4	Temperatura máxima	18.1
175171	7	Sololá	701	Sololá	2	El tablón	9	Septiembre	2023-01-09T00:00:00	2024-11-06T09:00:00	3	Temperatura mínima	17.4
175172	7	Sololá	701	Sololá	2	El tablón	9	Septiembre	2023-01-09T00:00:00	2024-11-06T09:00:00	5	Humedad	68
175173	7	Sololá	701	Sololá	2	El tablón	9	Septiembre	2023-01-09T00:00:00	2024-11-06T09:00:00	6	Velocidad del viento	12.9
175174	7	Sololá	701	Sololá	2	El tablón	9	Septiembre	2023-01-09T00:00:00	2024-11-06T09:00:00	7	Dirección del viento	12.87
175175	7	Sololá	701	Sololá	2	El tablón	9	Septiembre	2023-01-09T00:00:00	2024-11-06T09:00:00	1	Precipitación	0
175176	7	Sololá	701	Sololá	2	El tablón	9	Septiembre	2023-01-09T00:00:00	2024-11-06T09:00:00	8	Radiación solar	508
175177	7	Sololá	701	Sololá	2	El tablón	9	Septiembre	2023-01-09T00:00:00	2024-11-06T10:00:00	2	Temperatura media	19.3
175178	7	Sololá	701	Sololá	2	El tablón	9	Septiembre	2023-01-09T00:00:00	2024-11-06T10:00:00	4	Temperatura máxima	19.3
175179	7	Sololá	701	Sololá	2	El tablón	9	Septiembre	2023-01-09T00:00:00	2024-11-06T10:00:00	3	Temperatura mínima	17.9
175180	7	Sololá	701	Sololá	2	El tablón	9	Septiembre	2023-01-09T00:00:00	2024-11-06T10:00:00	5	Humedad	68
175181	7	Sololá	701	Sololá	2	El tablón	9	Septiembre	2023-01-09T00:00:00	2024-11-06T10:00:00	6	Velocidad del viento	14.5
175182	7	Sololá	701	Sololá	2	El tablón	9	Septiembre	2023-01-09T00:00:00	2024-11-06T10:00:00	7	Dirección del viento	14.48
175183	7	Sololá	701	Sololá	2	El tablón	9	Septiembre	2023-01-09T00:00:00	2024-11-06T10:00:00	1	Precipitación	0
175184	7	Sololá	701	Sololá	2	El tablón	9	Septiembre	2023-01-09T00:00:00	2024-11-06T10:00:00	8	Radiación solar	693
175185	7	Sololá	701	Sololá	2	El tablón	9	Septiembre	2023-01-09T00:00:00	2024-11-06T11:00:00	2	Temperatura media	20.2
175186	7	Sololá	701	Sololá	2	El tablón	9	Septiembre	2023-01-09T00:00:00	2024-11-06T11:00:00	4	Temperatura máxima	20.3
175187	7	Sololá	701	Sololá	2	El tablón	9	Septiembre	2023-01-09T00:00:00	2024-11-06T11:00:00	3	Temperatura mínima	18.9
175188	7	Sololá	701	Sololá	2	El tablón	9	Septiembre	2023-01-09T00:00:00	2024-11-06T11:00:00	5	Humedad	66
175189	7	Sololá	701	Sololá	2	El tablón	9	Septiembre	2023-01-09T00:00:00	2024-11-06T11:00:00	6	Velocidad del viento	14.5
175190	7	Sololá	701	Sololá	2	El tablón	9	Septiembre	2023-01-09T00:00:00	2024-11-06T11:00:00	7	Dirección del viento	14.48
175191	7	Sololá	701	Sololá	2	El tablón	9	Septiembre	2023-01-09T00:00:00	2024-11-06T11:00:00	1	Precipitación	0
175192	7	Sololá	701	Sololá	2	El tablón	9	Septiembre	2023-01-09T00:00:00	2024-11-06T11:00:00	8	Radiación solar	815
175193	7	Sololá	701	Sololá	2	El tablón	9	Septiembre	2023-01-09T00:00:00	2024-11-06T12:00:00	2	Temperatura media	21.6
175194	7	Sololá	701	Sololá	2	El tablón	9	Septiembre	2023-01-09T00:00:00	2024-11-06T12:00:00	4	Temperatura máxima	21.6
175195	7	Sololá	701	Sololá	2	El tablón	9	Septiembre	2023-01-09T00:00:00	2024-11-06T12:00:00	3	Temperatura mínima	19.9
175196	7	Sololá	701	Sololá	2	El tablón	9	Septiembre	2023-01-09T00:00:00	2024-11-06T12:00:00	5	Humedad	62
175197	7	Sololá	701	Sololá	2	El tablón	9	Septiembre	2023-01-09T00:00:00	2024-11-06T12:00:00	6	Velocidad del viento	11.3
175198	7	Sololá	701	Sololá	2	El tablón	9	Septiembre	2023-01-09T00:00:00	2024-11-06T12:00:00	7	Dirección del viento	11.27
175199	7	Sololá	701	Sololá	2	El tablón	9	Septiembre	2023-01-09T00:00:00	2024-11-06T12:00:00	1	Precipitación	0
175200	7	Sololá	701	Sololá	2	El tablón	9	Septiembre	2023-01-09T00:00:00	2024-11-06T12:00:00	8	Radiación solar	923
175201	7	Sololá	701	Sololá	2	El tablón	9	Septiembre	2023-01-09T00:00:00	2024-11-06T13:00:00	2	Temperatura media	20.8
175202	7	Sololá	701	Sololá	2	El tablón	9	Septiembre	2023-01-09T00:00:00	2024-11-06T13:00:00	4	Temperatura máxima	21.8
175203	7	Sololá	701	Sololá	2	El tablón	9	Septiembre	2023-01-09T00:00:00	2024-11-06T13:00:00	3	Temperatura mínima	20.8
175204	7	Sololá	701	Sololá	2	El tablón	9	Septiembre	2023-01-09T00:00:00	2024-11-06T13:00:00	5	Humedad	64
175205	7	Sololá	701	Sololá	2	El tablón	9	Septiembre	2023-01-09T00:00:00	2024-11-06T13:00:00	6	Velocidad del viento	9.7
175206	7	Sololá	701	Sololá	2	El tablón	9	Septiembre	2023-01-09T00:00:00	2024-11-06T13:00:00	7	Dirección del viento	9.66
175207	7	Sololá	701	Sololá	2	El tablón	9	Septiembre	2023-01-09T00:00:00	2024-11-06T13:00:00	1	Precipitación	0
175208	7	Sololá	701	Sololá	2	El tablón	9	Septiembre	2023-01-09T00:00:00	2024-11-06T13:00:00	8	Radiación solar	963
175209	7	Sololá	701	Sololá	2	El tablón	9	Septiembre	2023-01-09T00:00:00	2024-11-06T14:00:00	2	Temperatura media	21.6
175210	7	Sololá	701	Sololá	2	El tablón	9	Septiembre	2023-01-09T00:00:00	2024-11-06T14:00:00	4	Temperatura máxima	21.7
175211	7	Sololá	701	Sololá	2	El tablón	9	Septiembre	2023-01-09T00:00:00	2024-11-06T14:00:00	3	Temperatura mínima	20.9
175212	7	Sololá	701	Sololá	2	El tablón	9	Septiembre	2023-01-09T00:00:00	2024-11-06T14:00:00	5	Humedad	63
175213	7	Sololá	701	Sololá	2	El tablón	9	Septiembre	2023-01-09T00:00:00	2024-11-06T14:00:00	6	Velocidad del viento	11.3
175214	7	Sololá	701	Sololá	2	El tablón	9	Septiembre	2023-01-09T00:00:00	2024-11-06T14:00:00	7	Dirección del viento	11.27
175215	7	Sololá	701	Sololá	2	El tablón	9	Septiembre	2023-01-09T00:00:00	2024-11-06T14:00:00	1	Precipitación	0
175216	7	Sololá	701	Sololá	2	El tablón	9	Septiembre	2023-01-09T00:00:00	2024-11-06T14:00:00	8	Radiación solar	960
175217	7	Sololá	701	Sololá	2	El tablón	9	Septiembre	2023-01-09T00:00:00	2024-11-06T15:00:00	2	Temperatura media	21.9
175218	7	Sololá	701	Sololá	2	El tablón	9	Septiembre	2023-01-09T00:00:00	2024-11-06T15:00:00	4	Temperatura máxima	22.3
175219	7	Sololá	701	Sololá	2	El tablón	9	Septiembre	2023-01-09T00:00:00	2024-11-06T15:00:00	3	Temperatura mínima	21.4
175220	7	Sololá	701	Sololá	2	El tablón	9	Septiembre	2023-01-09T00:00:00	2024-11-06T15:00:00	5	Humedad	73
175221	7	Sololá	701	Sololá	2	El tablón	9	Septiembre	2023-01-09T00:00:00	2024-11-06T15:00:00	6	Velocidad del viento	8
175222	7	Sololá	701	Sololá	2	El tablón	9	Septiembre	2023-01-09T00:00:00	2024-11-06T15:00:00	7	Dirección del viento	8.05
175223	7	Sololá	701	Sololá	2	El tablón	9	Septiembre	2023-01-09T00:00:00	2024-11-06T15:00:00	1	Precipitación	0
175224	7	Sololá	701	Sololá	2	El tablón	9	Septiembre	2023-01-09T00:00:00	2024-11-06T15:00:00	8	Radiación solar	807
175225	7	Sololá	701	Sololá	2	El tablón	9	Septiembre	2023-01-09T00:00:00	2024-11-06T16:00:00	2	Temperatura media	20.2
175226	7	Sololá	701	Sololá	2	El tablón	9	Septiembre	2023-01-09T00:00:00	2024-11-06T16:00:00	4	Temperatura máxima	21.9
175227	7	Sololá	701	Sololá	2	El tablón	9	Septiembre	2023-01-09T00:00:00	2024-11-06T16:00:00	3	Temperatura mínima	20.2
175228	7	Sololá	701	Sololá	2	El tablón	9	Septiembre	2023-01-09T00:00:00	2024-11-06T16:00:00	5	Humedad	81
175229	7	Sololá	701	Sololá	2	El tablón	9	Septiembre	2023-01-09T00:00:00	2024-11-06T16:00:00	6	Velocidad del viento	6.4
175230	7	Sololá	701	Sololá	2	El tablón	9	Septiembre	2023-01-09T00:00:00	2024-11-06T16:00:00	7	Dirección del viento	6.44
175231	7	Sololá	701	Sololá	2	El tablón	9	Septiembre	2023-01-09T00:00:00	2024-11-06T16:00:00	1	Precipitación	0
175232	7	Sololá	701	Sololá	2	El tablón	9	Septiembre	2023-01-09T00:00:00	2024-11-06T16:00:00	8	Radiación solar	638
175233	7	Sololá	701	Sololá	2	El tablón	9	Septiembre	2023-01-09T00:00:00	2024-11-06T17:00:00	2	Temperatura media	19.2
175234	7	Sololá	701	Sololá	2	El tablón	9	Septiembre	2023-01-09T00:00:00	2024-11-06T17:00:00	4	Temperatura máxima	20.2
175235	7	Sololá	701	Sololá	2	El tablón	9	Septiembre	2023-01-09T00:00:00	2024-11-06T17:00:00	3	Temperatura mínima	18.7
175236	7	Sololá	701	Sololá	2	El tablón	9	Septiembre	2023-01-09T00:00:00	2024-11-06T17:00:00	5	Humedad	77
175237	7	Sololá	701	Sololá	2	El tablón	9	Septiembre	2023-01-09T00:00:00	2024-11-06T17:00:00	6	Velocidad del viento	4.8
175238	7	Sololá	701	Sololá	2	El tablón	9	Septiembre	2023-01-09T00:00:00	2024-11-06T17:00:00	7	Dirección del viento	4.83
175239	7	Sololá	701	Sololá	2	El tablón	9	Septiembre	2023-01-09T00:00:00	2024-11-06T17:00:00	1	Precipitación	0
175240	7	Sololá	701	Sololá	2	El tablón	9	Septiembre	2023-01-09T00:00:00	2024-11-06T17:00:00	8	Radiación solar	277
175241	7	Sololá	701	Sololá	2	El tablón	9	Septiembre	2023-01-09T00:00:00	2024-11-06T18:00:00	2	Temperatura media	17.8
175242	7	Sololá	701	Sololá	2	El tablón	9	Septiembre	2023-01-09T00:00:00	2024-11-06T18:00:00	4	Temperatura máxima	19.4
175243	7	Sololá	701	Sololá	2	El tablón	9	Septiembre	2023-01-09T00:00:00	2024-11-06T18:00:00	3	Temperatura mínima	17.8
175244	7	Sololá	701	Sololá	2	El tablón	9	Septiembre	2023-01-09T00:00:00	2024-11-06T18:00:00	5	Humedad	79
175245	7	Sololá	701	Sololá	2	El tablón	9	Septiembre	2023-01-09T00:00:00	2024-11-06T18:00:00	6	Velocidad del viento	6.4
175246	7	Sololá	701	Sololá	2	El tablón	9	Septiembre	2023-01-09T00:00:00	2024-11-06T18:00:00	7	Dirección del viento	6.44
175247	7	Sololá	701	Sololá	2	El tablón	9	Septiembre	2023-01-09T00:00:00	2024-11-06T18:00:00	1	Precipitación	0
175248	7	Sololá	701	Sololá	2	El tablón	9	Septiembre	2023-01-09T00:00:00	2024-11-06T18:00:00	8	Radiación solar	86
175249	7	Sololá	701	Sololá	2	El tablón	9	Septiembre	2023-01-09T00:00:00	2024-11-06T19:00:00	2	Temperatura media	14
175250	7	Sololá	701	Sololá	2	El tablón	9	Septiembre	2023-01-09T00:00:00	2024-11-06T19:00:00	4	Temperatura máxima	17.8
175251	7	Sololá	701	Sololá	2	El tablón	9	Septiembre	2023-01-09T00:00:00	2024-11-06T19:00:00	3	Temperatura mínima	14
175252	7	Sololá	701	Sololá	2	El tablón	9	Septiembre	2023-01-09T00:00:00	2024-11-06T19:00:00	5	Humedad	88
175253	7	Sololá	701	Sololá	2	El tablón	9	Septiembre	2023-01-09T00:00:00	2024-11-06T19:00:00	6	Velocidad del viento	8
175254	7	Sololá	701	Sololá	2	El tablón	9	Septiembre	2023-01-09T00:00:00	2024-11-06T19:00:00	7	Dirección del viento	8.05
175255	7	Sololá	701	Sololá	2	El tablón	9	Septiembre	2023-01-09T00:00:00	2024-11-06T19:00:00	1	Precipitación	5.4
175256	7	Sololá	701	Sololá	2	El tablón	9	Septiembre	2023-01-09T00:00:00	2024-11-06T19:00:00	8	Radiación solar	0
175257	7	Sololá	701	Sololá	2	El tablón	9	Septiembre	2023-01-09T00:00:00	2024-11-06T20:00:00	2	Temperatura media	14.8
175258	7	Sololá	701	Sololá	2	El tablón	9	Septiembre	2023-01-09T00:00:00	2024-11-06T20:00:00	4	Temperatura máxima	14.8
175259	7	Sololá	701	Sololá	2	El tablón	9	Septiembre	2023-01-09T00:00:00	2024-11-06T20:00:00	3	Temperatura mínima	13.4
175260	7	Sololá	701	Sololá	2	El tablón	9	Septiembre	2023-01-09T00:00:00	2024-11-06T20:00:00	5	Humedad	87
175261	7	Sololá	701	Sololá	2	El tablón	9	Septiembre	2023-01-09T00:00:00	2024-11-06T20:00:00	6	Velocidad del viento	12.9
175262	7	Sololá	701	Sololá	2	El tablón	9	Septiembre	2023-01-09T00:00:00	2024-11-06T20:00:00	7	Dirección del viento	12.87
175263	7	Sololá	701	Sololá	2	El tablón	9	Septiembre	2023-01-09T00:00:00	2024-11-06T20:00:00	1	Precipitación	0
175264	7	Sololá	701	Sololá	2	El tablón	9	Septiembre	2023-01-09T00:00:00	2024-11-06T20:00:00	8	Radiación solar	0
175265	7	Sololá	701	Sololá	2	El tablón	9	Septiembre	2023-01-09T00:00:00	2024-11-06T21:00:00	2	Temperatura media	14.3
175266	7	Sololá	701	Sololá	2	El tablón	9	Septiembre	2023-01-09T00:00:00	2024-11-06T21:00:00	4	Temperatura máxima	14.9
175267	7	Sololá	701	Sololá	2	El tablón	9	Septiembre	2023-01-09T00:00:00	2024-11-06T21:00:00	3	Temperatura mínima	14.1
175268	7	Sololá	701	Sololá	2	El tablón	9	Septiembre	2023-01-09T00:00:00	2024-11-06T21:00:00	5	Humedad	88
175269	7	Sololá	701	Sololá	2	El tablón	9	Septiembre	2023-01-09T00:00:00	2024-11-06T21:00:00	6	Velocidad del viento	8
175270	7	Sololá	701	Sololá	2	El tablón	9	Septiembre	2023-01-09T00:00:00	2024-11-06T21:00:00	7	Dirección del viento	8.05
175271	7	Sololá	701	Sololá	2	El tablón	9	Septiembre	2023-01-09T00:00:00	2024-11-06T21:00:00	1	Precipitación	0.4
175272	7	Sololá	701	Sololá	2	El tablón	9	Septiembre	2023-01-09T00:00:00	2024-11-06T21:00:00	8	Radiación solar	0
175273	7	Sololá	701	Sololá	2	El tablón	9	Septiembre	2023-01-09T00:00:00	2024-11-06T22:00:00	2	Temperatura media	13.5
175274	7	Sololá	701	Sololá	2	El tablón	9	Septiembre	2023-01-09T00:00:00	2024-11-06T22:00:00	4	Temperatura máxima	14.3
175275	7	Sololá	701	Sololá	2	El tablón	9	Septiembre	2023-01-09T00:00:00	2024-11-06T22:00:00	3	Temperatura mínima	13.5
175276	7	Sololá	701	Sololá	2	El tablón	9	Septiembre	2023-01-09T00:00:00	2024-11-06T22:00:00	5	Humedad	86
175277	7	Sololá	701	Sololá	2	El tablón	9	Septiembre	2023-01-09T00:00:00	2024-11-06T22:00:00	6	Velocidad del viento	8
175278	7	Sololá	701	Sololá	2	El tablón	9	Septiembre	2023-01-09T00:00:00	2024-11-06T22:00:00	7	Dirección del viento	8.05
175279	7	Sololá	701	Sololá	2	El tablón	9	Septiembre	2023-01-09T00:00:00	2024-11-06T22:00:00	1	Precipitación	0
175280	7	Sololá	701	Sololá	2	El tablón	9	Septiembre	2023-01-09T00:00:00	2024-11-06T22:00:00	8	Radiación solar	0
175281	7	Sololá	701	Sololá	2	El tablón	9	Septiembre	2023-01-09T00:00:00	2024-11-06T23:00:00	2	Temperatura media	13.7
175282	7	Sololá	701	Sololá	2	El tablón	9	Septiembre	2023-01-09T00:00:00	2024-11-06T23:00:00	4	Temperatura máxima	13.8
175283	7	Sololá	701	Sololá	2	El tablón	9	Septiembre	2023-01-09T00:00:00	2024-11-06T23:00:00	3	Temperatura mínima	13.4
175284	7	Sololá	701	Sololá	2	El tablón	9	Septiembre	2023-01-09T00:00:00	2024-11-06T23:00:00	5	Humedad	87
175285	7	Sololá	701	Sololá	2	El tablón	9	Septiembre	2023-01-09T00:00:00	2024-11-06T23:00:00	6	Velocidad del viento	11.3
175286	7	Sololá	701	Sololá	2	El tablón	9	Septiembre	2023-01-09T00:00:00	2024-11-06T23:00:00	7	Dirección del viento	11.27
175287	7	Sololá	701	Sololá	2	El tablón	9	Septiembre	2023-01-09T00:00:00	2024-11-06T23:00:00	1	Precipitación	0.2
175288	7	Sololá	701	Sololá	2	El tablón	9	Septiembre	2023-01-09T00:00:00	2024-11-06T23:00:00	8	Radiación solar	0
175289	7	Sololá	701	Sololá	2	El tablón	9	Septiembre	2023-02-09T00:00:00	2024-11-06T00:00:00	2	Temperatura media	13.7
175290	7	Sololá	701	Sololá	2	El tablón	9	Septiembre	2023-02-09T00:00:00	2024-11-06T00:00:00	4	Temperatura máxima	13.7
175291	7	Sololá	701	Sololá	2	El tablón	9	Septiembre	2023-02-09T00:00:00	2024-11-06T00:00:00	3	Temperatura mínima	13.7
175292	7	Sololá	701	Sololá	2	El tablón	9	Septiembre	2023-02-09T00:00:00	2024-11-06T00:00:00	5	Humedad	88
175293	7	Sololá	701	Sololá	2	El tablón	9	Septiembre	2023-02-09T00:00:00	2024-11-06T00:00:00	6	Velocidad del viento	9.7
175294	7	Sololá	701	Sololá	2	El tablón	9	Septiembre	2023-02-09T00:00:00	2024-11-06T00:00:00	7	Dirección del viento	9.66
175295	7	Sololá	701	Sololá	2	El tablón	9	Septiembre	2023-02-09T00:00:00	2024-11-06T00:00:00	1	Precipitación	0
175296	7	Sololá	701	Sololá	2	El tablón	9	Septiembre	2023-02-09T00:00:00	2024-11-06T00:00:00	8	Radiación solar	0
175297	7	Sololá	701	Sololá	2	El tablón	9	Septiembre	2023-02-09T00:00:00	2024-11-06T01:00:00	2	Temperatura media	13.9
175298	7	Sololá	701	Sololá	2	El tablón	9	Septiembre	2023-02-09T00:00:00	2024-11-06T01:00:00	4	Temperatura máxima	14
175299	7	Sololá	701	Sololá	2	El tablón	9	Septiembre	2023-02-09T00:00:00	2024-11-06T01:00:00	3	Temperatura mínima	13.7
175300	7	Sololá	701	Sololá	2	El tablón	9	Septiembre	2023-02-09T00:00:00	2024-11-06T01:00:00	5	Humedad	87
175301	7	Sololá	701	Sololá	2	El tablón	9	Septiembre	2023-02-09T00:00:00	2024-11-06T01:00:00	6	Velocidad del viento	8
175302	7	Sololá	701	Sololá	2	El tablón	9	Septiembre	2023-02-09T00:00:00	2024-11-06T01:00:00	7	Dirección del viento	8.05
175303	7	Sololá	701	Sololá	2	El tablón	9	Septiembre	2023-02-09T00:00:00	2024-11-06T01:00:00	1	Precipitación	0
175304	7	Sololá	701	Sololá	2	El tablón	9	Septiembre	2023-02-09T00:00:00	2024-11-06T01:00:00	8	Radiación solar	0
175305	7	Sololá	701	Sololá	2	El tablón	9	Septiembre	2023-02-09T00:00:00	2024-11-06T02:00:00	2	Temperatura media	13.8
175306	7	Sololá	701	Sololá	2	El tablón	9	Septiembre	2023-02-09T00:00:00	2024-11-06T02:00:00	4	Temperatura máxima	13.9
175307	7	Sololá	701	Sololá	2	El tablón	9	Septiembre	2023-02-09T00:00:00	2024-11-06T02:00:00	3	Temperatura mínima	13.8
175308	7	Sololá	701	Sololá	2	El tablón	9	Septiembre	2023-02-09T00:00:00	2024-11-06T02:00:00	5	Humedad	87
175309	7	Sololá	701	Sololá	2	El tablón	9	Septiembre	2023-02-09T00:00:00	2024-11-06T02:00:00	6	Velocidad del viento	9.7
175310	7	Sololá	701	Sololá	2	El tablón	9	Septiembre	2023-02-09T00:00:00	2024-11-06T02:00:00	7	Dirección del viento	9.66
175311	7	Sololá	701	Sololá	2	El tablón	9	Septiembre	2023-02-09T00:00:00	2024-11-06T02:00:00	1	Precipitación	0
175312	7	Sololá	701	Sololá	2	El tablón	9	Septiembre	2023-02-09T00:00:00	2024-11-06T02:00:00	8	Radiación solar	0
175313	7	Sololá	701	Sololá	2	El tablón	9	Septiembre	2023-02-09T00:00:00	2024-11-06T03:00:00	2	Temperatura media	13.6
175314	7	Sololá	701	Sololá	2	El tablón	9	Septiembre	2023-02-09T00:00:00	2024-11-06T03:00:00	4	Temperatura máxima	13.8
175315	7	Sololá	701	Sololá	2	El tablón	9	Septiembre	2023-02-09T00:00:00	2024-11-06T03:00:00	3	Temperatura mínima	13.6
175316	7	Sololá	701	Sololá	2	El tablón	9	Septiembre	2023-02-09T00:00:00	2024-11-06T03:00:00	5	Humedad	86
175317	7	Sololá	701	Sololá	2	El tablón	9	Septiembre	2023-02-09T00:00:00	2024-11-06T03:00:00	6	Velocidad del viento	8
175318	7	Sololá	701	Sololá	2	El tablón	9	Septiembre	2023-02-09T00:00:00	2024-11-06T03:00:00	7	Dirección del viento	8.05
175319	7	Sololá	701	Sololá	2	El tablón	9	Septiembre	2023-02-09T00:00:00	2024-11-06T03:00:00	1	Precipitación	0
175320	7	Sololá	701	Sololá	2	El tablón	9	Septiembre	2023-02-09T00:00:00	2024-11-06T03:00:00	8	Radiación solar	0
175321	7	Sololá	701	Sololá	2	El tablón	9	Septiembre	2023-02-09T00:00:00	2024-11-06T04:00:00	2	Temperatura media	13.3
175322	7	Sololá	701	Sololá	2	El tablón	9	Septiembre	2023-02-09T00:00:00	2024-11-06T04:00:00	4	Temperatura máxima	13.7
175323	7	Sololá	701	Sololá	2	El tablón	9	Septiembre	2023-02-09T00:00:00	2024-11-06T04:00:00	3	Temperatura mínima	13.3
175324	7	Sololá	701	Sololá	2	El tablón	9	Septiembre	2023-02-09T00:00:00	2024-11-06T04:00:00	5	Humedad	86
175325	7	Sololá	701	Sololá	2	El tablón	9	Septiembre	2023-02-09T00:00:00	2024-11-06T04:00:00	6	Velocidad del viento	8
175326	7	Sololá	701	Sololá	2	El tablón	9	Septiembre	2023-02-09T00:00:00	2024-11-06T04:00:00	7	Dirección del viento	8.05
175327	7	Sololá	701	Sololá	2	El tablón	9	Septiembre	2023-02-09T00:00:00	2024-11-06T04:00:00	1	Precipitación	0
175328	7	Sololá	701	Sololá	2	El tablón	9	Septiembre	2023-02-09T00:00:00	2024-11-06T04:00:00	8	Radiación solar	0
175329	7	Sololá	701	Sololá	2	El tablón	9	Septiembre	2023-02-09T00:00:00	2024-11-06T05:00:00	2	Temperatura media	13.2
175330	7	Sololá	701	Sololá	2	El tablón	9	Septiembre	2023-02-09T00:00:00	2024-11-06T05:00:00	4	Temperatura máxima	13.4
175331	7	Sololá	701	Sololá	2	El tablón	9	Septiembre	2023-02-09T00:00:00	2024-11-06T05:00:00	3	Temperatura mínima	13.2
175332	7	Sololá	701	Sololá	2	El tablón	9	Septiembre	2023-02-09T00:00:00	2024-11-06T05:00:00	5	Humedad	86
175333	7	Sololá	701	Sololá	2	El tablón	9	Septiembre	2023-02-09T00:00:00	2024-11-06T05:00:00	6	Velocidad del viento	9.7
175334	7	Sololá	701	Sololá	2	El tablón	9	Septiembre	2023-02-09T00:00:00	2024-11-06T05:00:00	7	Dirección del viento	9.66
175335	7	Sololá	701	Sololá	2	El tablón	9	Septiembre	2023-02-09T00:00:00	2024-11-06T05:00:00	1	Precipitación	0
175336	7	Sololá	701	Sololá	2	El tablón	9	Septiembre	2023-02-09T00:00:00	2024-11-06T05:00:00	8	Radiación solar	0
175337	7	Sololá	701	Sololá	2	El tablón	9	Septiembre	2023-02-09T00:00:00	2024-11-06T06:00:00	2	Temperatura media	13.9
175338	7	Sololá	701	Sololá	2	El tablón	9	Septiembre	2023-02-09T00:00:00	2024-11-06T06:00:00	4	Temperatura máxima	13.9
175339	7	Sololá	701	Sololá	2	El tablón	9	Septiembre	2023-02-09T00:00:00	2024-11-06T06:00:00	3	Temperatura mínima	13.2
175340	7	Sololá	701	Sololá	2	El tablón	9	Septiembre	2023-02-09T00:00:00	2024-11-06T06:00:00	5	Humedad	82
175341	7	Sololá	701	Sololá	2	El tablón	9	Septiembre	2023-02-09T00:00:00	2024-11-06T06:00:00	6	Velocidad del viento	4.8
175342	7	Sololá	701	Sololá	2	El tablón	9	Septiembre	2023-02-09T00:00:00	2024-11-06T06:00:00	7	Dirección del viento	4.83
175343	7	Sololá	701	Sololá	2	El tablón	9	Septiembre	2023-02-09T00:00:00	2024-11-06T06:00:00	1	Precipitación	0
175344	7	Sololá	701	Sololá	2	El tablón	9	Septiembre	2023-02-09T00:00:00	2024-11-06T06:00:00	8	Radiación solar	1
175345	7	Sololá	701	Sololá	2	El tablón	9	Septiembre	2023-02-09T00:00:00	2024-11-06T07:00:00	2	Temperatura media	15.2
175346	7	Sololá	701	Sololá	2	El tablón	9	Septiembre	2023-02-09T00:00:00	2024-11-06T07:00:00	4	Temperatura máxima	15.2
175347	7	Sololá	701	Sololá	2	El tablón	9	Septiembre	2023-02-09T00:00:00	2024-11-06T07:00:00	3	Temperatura mínima	13.8
175348	7	Sololá	701	Sololá	2	El tablón	9	Septiembre	2023-02-09T00:00:00	2024-11-06T07:00:00	5	Humedad	80
175349	7	Sololá	701	Sololá	2	El tablón	9	Septiembre	2023-02-09T00:00:00	2024-11-06T07:00:00	6	Velocidad del viento	4.8
175350	7	Sololá	701	Sololá	2	El tablón	9	Septiembre	2023-02-09T00:00:00	2024-11-06T07:00:00	7	Dirección del viento	4.83
175351	7	Sololá	701	Sololá	2	El tablón	9	Septiembre	2023-02-09T00:00:00	2024-11-06T07:00:00	1	Precipitación	0
175352	7	Sololá	701	Sololá	2	El tablón	9	Septiembre	2023-02-09T00:00:00	2024-11-06T07:00:00	8	Radiación solar	89
175353	7	Sololá	701	Sololá	2	El tablón	9	Septiembre	2023-02-09T00:00:00	2024-11-06T08:00:00	2	Temperatura media	17.1
175354	7	Sololá	701	Sololá	2	El tablón	9	Septiembre	2023-02-09T00:00:00	2024-11-06T08:00:00	4	Temperatura máxima	17.3
175355	7	Sololá	701	Sololá	2	El tablón	9	Septiembre	2023-02-09T00:00:00	2024-11-06T08:00:00	3	Temperatura mínima	15.2
175356	7	Sololá	701	Sololá	2	El tablón	9	Septiembre	2023-02-09T00:00:00	2024-11-06T08:00:00	5	Humedad	72
175357	7	Sololá	701	Sololá	2	El tablón	9	Septiembre	2023-02-09T00:00:00	2024-11-06T08:00:00	6	Velocidad del viento	3.2
175358	7	Sololá	701	Sololá	2	El tablón	9	Septiembre	2023-02-09T00:00:00	2024-11-06T08:00:00	7	Dirección del viento	3.22
175359	7	Sololá	701	Sololá	2	El tablón	9	Septiembre	2023-02-09T00:00:00	2024-11-06T08:00:00	1	Precipitación	0
175360	7	Sololá	701	Sololá	2	El tablón	9	Septiembre	2023-02-09T00:00:00	2024-11-06T08:00:00	8	Radiación solar	293
175361	7	Sololá	701	Sololá	2	El tablón	9	Septiembre	2023-02-09T00:00:00	2024-11-06T09:00:00	2	Temperatura media	18.2
175362	7	Sololá	701	Sololá	2	El tablón	9	Septiembre	2023-02-09T00:00:00	2024-11-06T09:00:00	4	Temperatura máxima	18.2
175363	7	Sololá	701	Sololá	2	El tablón	9	Septiembre	2023-02-09T00:00:00	2024-11-06T09:00:00	3	Temperatura mínima	17
175364	7	Sololá	701	Sololá	2	El tablón	9	Septiembre	2023-02-09T00:00:00	2024-11-06T09:00:00	5	Humedad	72
175365	7	Sololá	701	Sololá	2	El tablón	9	Septiembre	2023-02-09T00:00:00	2024-11-06T09:00:00	6	Velocidad del viento	4.8
175366	7	Sololá	701	Sololá	2	El tablón	9	Septiembre	2023-02-09T00:00:00	2024-11-06T09:00:00	7	Dirección del viento	4.83
175367	7	Sololá	701	Sololá	2	El tablón	9	Septiembre	2023-02-09T00:00:00	2024-11-06T09:00:00	1	Precipitación	0
175368	7	Sololá	701	Sololá	2	El tablón	9	Septiembre	2023-02-09T00:00:00	2024-11-06T09:00:00	8	Radiación solar	493
175369	7	Sololá	701	Sololá	2	El tablón	9	Septiembre	2023-02-09T00:00:00	2024-11-06T10:00:00	2	Temperatura media	18.9
175370	7	Sololá	701	Sololá	2	El tablón	9	Septiembre	2023-02-09T00:00:00	2024-11-06T10:00:00	4	Temperatura máxima	19.1
175371	7	Sololá	701	Sololá	2	El tablón	9	Septiembre	2023-02-09T00:00:00	2024-11-06T10:00:00	3	Temperatura mínima	18
175372	7	Sololá	701	Sololá	2	El tablón	9	Septiembre	2023-02-09T00:00:00	2024-11-06T10:00:00	5	Humedad	70
175373	7	Sololá	701	Sololá	2	El tablón	9	Septiembre	2023-02-09T00:00:00	2024-11-06T10:00:00	6	Velocidad del viento	6.4
175374	7	Sololá	701	Sololá	2	El tablón	9	Septiembre	2023-02-09T00:00:00	2024-11-06T10:00:00	7	Dirección del viento	6.44
175375	7	Sololá	701	Sololá	2	El tablón	9	Septiembre	2023-02-09T00:00:00	2024-11-06T10:00:00	1	Precipitación	0
175376	7	Sololá	701	Sololá	2	El tablón	9	Septiembre	2023-02-09T00:00:00	2024-11-06T10:00:00	8	Radiación solar	692
175377	7	Sololá	701	Sololá	2	El tablón	9	Septiembre	2023-02-09T00:00:00	2024-11-06T11:00:00	2	Temperatura media	19.2
175378	7	Sololá	701	Sololá	2	El tablón	9	Septiembre	2023-02-09T00:00:00	2024-11-06T11:00:00	4	Temperatura máxima	19.3
175379	7	Sololá	701	Sololá	2	El tablón	9	Septiembre	2023-02-09T00:00:00	2024-11-06T11:00:00	3	Temperatura mínima	18.3
175380	7	Sololá	701	Sololá	2	El tablón	9	Septiembre	2023-02-09T00:00:00	2024-11-06T11:00:00	5	Humedad	71
175381	7	Sololá	701	Sololá	2	El tablón	9	Septiembre	2023-02-09T00:00:00	2024-11-06T11:00:00	6	Velocidad del viento	8
175382	7	Sololá	701	Sololá	2	El tablón	9	Septiembre	2023-02-09T00:00:00	2024-11-06T11:00:00	7	Dirección del viento	8.05
175383	7	Sololá	701	Sololá	2	El tablón	9	Septiembre	2023-02-09T00:00:00	2024-11-06T11:00:00	1	Precipitación	0
175384	7	Sololá	701	Sololá	2	El tablón	9	Septiembre	2023-02-09T00:00:00	2024-11-06T11:00:00	8	Radiación solar	419
175385	7	Sololá	701	Sololá	2	El tablón	9	Septiembre	2023-02-09T00:00:00	2024-11-06T12:00:00	2	Temperatura media	19.3
175386	7	Sololá	701	Sololá	2	El tablón	9	Septiembre	2023-02-09T00:00:00	2024-11-06T12:00:00	4	Temperatura máxima	19.9
175387	7	Sololá	701	Sololá	2	El tablón	9	Septiembre	2023-02-09T00:00:00	2024-11-06T12:00:00	3	Temperatura mínima	19.2
175388	7	Sololá	701	Sololá	2	El tablón	9	Septiembre	2023-02-09T00:00:00	2024-11-06T12:00:00	5	Humedad	69
175389	7	Sololá	701	Sololá	2	El tablón	9	Septiembre	2023-02-09T00:00:00	2024-11-06T12:00:00	6	Velocidad del viento	9.7
175390	7	Sololá	701	Sololá	2	El tablón	9	Septiembre	2023-02-09T00:00:00	2024-11-06T12:00:00	7	Dirección del viento	9.66
175391	7	Sololá	701	Sololá	2	El tablón	9	Septiembre	2023-02-09T00:00:00	2024-11-06T12:00:00	1	Precipitación	0
175392	7	Sololá	701	Sololá	2	El tablón	9	Septiembre	2023-02-09T00:00:00	2024-11-06T12:00:00	8	Radiación solar	575
175393	7	Sololá	701	Sololá	2	El tablón	9	Septiembre	2023-02-09T00:00:00	2024-11-06T13:00:00	2	Temperatura media	19.5
175394	7	Sololá	701	Sololá	2	El tablón	9	Septiembre	2023-02-09T00:00:00	2024-11-06T13:00:00	4	Temperatura máxima	20.1
175395	7	Sololá	701	Sololá	2	El tablón	9	Septiembre	2023-02-09T00:00:00	2024-11-06T13:00:00	3	Temperatura mínima	18.9
175396	7	Sololá	701	Sololá	2	El tablón	9	Septiembre	2023-02-09T00:00:00	2024-11-06T13:00:00	5	Humedad	66
175397	7	Sololá	701	Sololá	2	El tablón	9	Septiembre	2023-02-09T00:00:00	2024-11-06T13:00:00	6	Velocidad del viento	9.7
175398	7	Sololá	701	Sololá	2	El tablón	9	Septiembre	2023-02-09T00:00:00	2024-11-06T13:00:00	7	Dirección del viento	9.66
175399	7	Sololá	701	Sololá	2	El tablón	9	Septiembre	2023-02-09T00:00:00	2024-11-06T13:00:00	1	Precipitación	0
175400	7	Sololá	701	Sololá	2	El tablón	9	Septiembre	2023-02-09T00:00:00	2024-11-06T13:00:00	8	Radiación solar	621
175401	7	Sololá	701	Sololá	2	El tablón	9	Septiembre	2023-02-09T00:00:00	2024-11-06T14:00:00	2	Temperatura media	20.2
175402	7	Sololá	701	Sololá	2	El tablón	9	Septiembre	2023-02-09T00:00:00	2024-11-06T14:00:00	4	Temperatura máxima	20.5
175403	7	Sololá	701	Sololá	2	El tablón	9	Septiembre	2023-02-09T00:00:00	2024-11-06T14:00:00	3	Temperatura mínima	19.4
175404	7	Sololá	701	Sololá	2	El tablón	9	Septiembre	2023-02-09T00:00:00	2024-11-06T14:00:00	5	Humedad	63
175405	7	Sololá	701	Sololá	2	El tablón	9	Septiembre	2023-02-09T00:00:00	2024-11-06T14:00:00	6	Velocidad del viento	11.3
175406	7	Sololá	701	Sololá	2	El tablón	9	Septiembre	2023-02-09T00:00:00	2024-11-06T14:00:00	7	Dirección del viento	11.27
175407	7	Sololá	701	Sololá	2	El tablón	9	Septiembre	2023-02-09T00:00:00	2024-11-06T14:00:00	1	Precipitación	0
175408	7	Sololá	701	Sololá	2	El tablón	9	Septiembre	2023-02-09T00:00:00	2024-11-06T14:00:00	8	Radiación solar	753
175409	7	Sololá	701	Sololá	2	El tablón	9	Septiembre	2023-02-09T00:00:00	2024-11-06T15:00:00	2	Temperatura media	16.4
175410	7	Sololá	701	Sololá	2	El tablón	9	Septiembre	2023-02-09T00:00:00	2024-11-06T15:00:00	4	Temperatura máxima	20.2
175411	7	Sololá	701	Sololá	2	El tablón	9	Septiembre	2023-02-09T00:00:00	2024-11-06T15:00:00	3	Temperatura mínima	15.9
175412	7	Sololá	701	Sololá	2	El tablón	9	Septiembre	2023-02-09T00:00:00	2024-11-06T15:00:00	5	Humedad	84
175413	7	Sololá	701	Sololá	2	El tablón	9	Septiembre	2023-02-09T00:00:00	2024-11-06T15:00:00	6	Velocidad del viento	9.7
175414	7	Sololá	701	Sololá	2	El tablón	9	Septiembre	2023-02-09T00:00:00	2024-11-06T15:00:00	7	Dirección del viento	9.66
175415	7	Sololá	701	Sololá	2	El tablón	9	Septiembre	2023-02-09T00:00:00	2024-11-06T15:00:00	1	Precipitación	0
175416	7	Sololá	701	Sololá	2	El tablón	9	Septiembre	2023-02-09T00:00:00	2024-11-06T15:00:00	8	Radiación solar	290
175417	7	Sololá	701	Sololá	2	El tablón	9	Septiembre	2023-02-09T00:00:00	2024-11-06T16:00:00	2	Temperatura media	16.9
175418	7	Sololá	701	Sololá	2	El tablón	9	Septiembre	2023-02-09T00:00:00	2024-11-06T16:00:00	4	Temperatura máxima	18.3
175419	7	Sololá	701	Sololá	2	El tablón	9	Septiembre	2023-02-09T00:00:00	2024-11-06T16:00:00	3	Temperatura mínima	16.4
175420	7	Sololá	701	Sololá	2	El tablón	9	Septiembre	2023-02-09T00:00:00	2024-11-06T16:00:00	5	Humedad	82
175421	7	Sololá	701	Sololá	2	El tablón	9	Septiembre	2023-02-09T00:00:00	2024-11-06T16:00:00	6	Velocidad del viento	6.4
175422	7	Sololá	701	Sololá	2	El tablón	9	Septiembre	2023-02-09T00:00:00	2024-11-06T16:00:00	7	Dirección del viento	6.44
175423	7	Sololá	701	Sololá	2	El tablón	9	Septiembre	2023-02-09T00:00:00	2024-11-06T16:00:00	1	Precipitación	0
175424	7	Sololá	701	Sololá	2	El tablón	9	Septiembre	2023-02-09T00:00:00	2024-11-06T16:00:00	8	Radiación solar	202
175425	7	Sololá	701	Sololá	2	El tablón	9	Septiembre	2023-02-09T00:00:00	2024-11-06T17:00:00	2	Temperatura media	16.2
175426	7	Sololá	701	Sololá	2	El tablón	9	Septiembre	2023-02-09T00:00:00	2024-11-06T17:00:00	4	Temperatura máxima	17
175427	7	Sololá	701	Sololá	2	El tablón	9	Septiembre	2023-02-09T00:00:00	2024-11-06T17:00:00	3	Temperatura mínima	16.2
175428	7	Sololá	701	Sololá	2	El tablón	9	Septiembre	2023-02-09T00:00:00	2024-11-06T17:00:00	5	Humedad	80
175429	7	Sololá	701	Sololá	2	El tablón	9	Septiembre	2023-02-09T00:00:00	2024-11-06T17:00:00	6	Velocidad del viento	4.8
175430	7	Sololá	701	Sololá	2	El tablón	9	Septiembre	2023-02-09T00:00:00	2024-11-06T17:00:00	7	Dirección del viento	4.83
175431	7	Sololá	701	Sololá	2	El tablón	9	Septiembre	2023-02-09T00:00:00	2024-11-06T17:00:00	1	Precipitación	0
175432	7	Sololá	701	Sololá	2	El tablón	9	Septiembre	2023-02-09T00:00:00	2024-11-06T17:00:00	8	Radiación solar	84
175433	7	Sololá	701	Sololá	2	El tablón	9	Septiembre	2023-02-09T00:00:00	2024-11-06T18:00:00	2	Temperatura media	15.5
175434	7	Sololá	701	Sololá	2	El tablón	9	Septiembre	2023-02-09T00:00:00	2024-11-06T18:00:00	4	Temperatura máxima	16.2
175435	7	Sololá	701	Sololá	2	El tablón	9	Septiembre	2023-02-09T00:00:00	2024-11-06T18:00:00	3	Temperatura mínima	15.5
175436	7	Sololá	701	Sololá	2	El tablón	9	Septiembre	2023-02-09T00:00:00	2024-11-06T18:00:00	5	Humedad	81
175437	7	Sololá	701	Sololá	2	El tablón	9	Septiembre	2023-02-09T00:00:00	2024-11-06T18:00:00	6	Velocidad del viento	6.4
175438	7	Sololá	701	Sololá	2	El tablón	9	Septiembre	2023-02-09T00:00:00	2024-11-06T18:00:00	7	Dirección del viento	6.44
175439	7	Sololá	701	Sololá	2	El tablón	9	Septiembre	2023-02-09T00:00:00	2024-11-06T18:00:00	1	Precipitación	0
175440	7	Sololá	701	Sololá	2	El tablón	9	Septiembre	2023-02-09T00:00:00	2024-11-06T18:00:00	8	Radiación solar	45
175441	7	Sololá	701	Sololá	2	El tablón	9	Septiembre	2023-02-09T00:00:00	2024-11-06T19:00:00	2	Temperatura media	15.3
175442	7	Sololá	701	Sololá	2	El tablón	9	Septiembre	2023-02-09T00:00:00	2024-11-06T19:00:00	4	Temperatura máxima	15.5
175443	7	Sololá	701	Sololá	2	El tablón	9	Septiembre	2023-02-09T00:00:00	2024-11-06T19:00:00	3	Temperatura mínima	15.3
175444	7	Sololá	701	Sololá	2	El tablón	9	Septiembre	2023-02-09T00:00:00	2024-11-06T19:00:00	5	Humedad	83
175445	7	Sololá	701	Sololá	2	El tablón	9	Septiembre	2023-02-09T00:00:00	2024-11-06T19:00:00	6	Velocidad del viento	4.8
175446	7	Sololá	701	Sololá	2	El tablón	9	Septiembre	2023-02-09T00:00:00	2024-11-06T19:00:00	7	Dirección del viento	4.83
175447	7	Sololá	701	Sololá	2	El tablón	9	Septiembre	2023-02-09T00:00:00	2024-11-06T19:00:00	1	Precipitación	0
175448	7	Sololá	701	Sololá	2	El tablón	9	Septiembre	2023-02-09T00:00:00	2024-11-06T19:00:00	8	Radiación solar	0
175449	7	Sololá	701	Sololá	2	El tablón	9	Septiembre	2023-02-09T00:00:00	2024-11-06T20:00:00	2	Temperatura media	14.4
175450	7	Sololá	701	Sololá	2	El tablón	9	Septiembre	2023-02-09T00:00:00	2024-11-06T20:00:00	4	Temperatura máxima	15.3
175451	7	Sololá	701	Sololá	2	El tablón	9	Septiembre	2023-02-09T00:00:00	2024-11-06T20:00:00	3	Temperatura mínima	14.4
175452	7	Sololá	701	Sololá	2	El tablón	9	Septiembre	2023-02-09T00:00:00	2024-11-06T20:00:00	5	Humedad	86
175453	7	Sololá	701	Sololá	2	El tablón	9	Septiembre	2023-02-09T00:00:00	2024-11-06T20:00:00	6	Velocidad del viento	8
175454	7	Sololá	701	Sololá	2	El tablón	9	Septiembre	2023-02-09T00:00:00	2024-11-06T20:00:00	7	Dirección del viento	8.05
175455	7	Sololá	701	Sololá	2	El tablón	9	Septiembre	2023-02-09T00:00:00	2024-11-06T20:00:00	1	Precipitación	0.2
175456	7	Sololá	701	Sololá	2	El tablón	9	Septiembre	2023-02-09T00:00:00	2024-11-06T20:00:00	8	Radiación solar	0
175457	7	Sololá	701	Sololá	2	El tablón	9	Septiembre	2023-02-09T00:00:00	2024-11-06T21:00:00	2	Temperatura media	13.9
175458	7	Sololá	701	Sololá	2	El tablón	9	Septiembre	2023-02-09T00:00:00	2024-11-06T21:00:00	4	Temperatura máxima	14.4
175459	7	Sololá	701	Sololá	2	El tablón	9	Septiembre	2023-02-09T00:00:00	2024-11-06T21:00:00	3	Temperatura mínima	13.7
175460	7	Sololá	701	Sololá	2	El tablón	9	Septiembre	2023-02-09T00:00:00	2024-11-06T21:00:00	5	Humedad	88
175461	7	Sololá	701	Sololá	2	El tablón	9	Septiembre	2023-02-09T00:00:00	2024-11-06T21:00:00	6	Velocidad del viento	8
175462	7	Sololá	701	Sololá	2	El tablón	9	Septiembre	2023-02-09T00:00:00	2024-11-06T21:00:00	7	Dirección del viento	8.05
175463	7	Sololá	701	Sololá	2	El tablón	9	Septiembre	2023-02-09T00:00:00	2024-11-06T21:00:00	1	Precipitación	0
175464	7	Sololá	701	Sololá	2	El tablón	9	Septiembre	2023-02-09T00:00:00	2024-11-06T21:00:00	8	Radiación solar	0
175465	7	Sololá	701	Sololá	2	El tablón	9	Septiembre	2023-02-09T00:00:00	2024-11-06T22:00:00	2	Temperatura media	14.2
175466	7	Sololá	701	Sololá	2	El tablón	9	Septiembre	2023-02-09T00:00:00	2024-11-06T22:00:00	4	Temperatura máxima	14.2
175467	7	Sololá	701	Sololá	2	El tablón	9	Septiembre	2023-02-09T00:00:00	2024-11-06T22:00:00	3	Temperatura mínima	13.9
175468	7	Sololá	701	Sololá	2	El tablón	9	Septiembre	2023-02-09T00:00:00	2024-11-06T22:00:00	5	Humedad	87
175469	7	Sololá	701	Sololá	2	El tablón	9	Septiembre	2023-02-09T00:00:00	2024-11-06T22:00:00	6	Velocidad del viento	6.4
175470	7	Sololá	701	Sololá	2	El tablón	9	Septiembre	2023-02-09T00:00:00	2024-11-06T22:00:00	7	Dirección del viento	6.44
175471	7	Sololá	701	Sololá	2	El tablón	9	Septiembre	2023-02-09T00:00:00	2024-11-06T22:00:00	1	Precipitación	0
175472	7	Sololá	701	Sololá	2	El tablón	9	Septiembre	2023-02-09T00:00:00	2024-11-06T22:00:00	8	Radiación solar	0
175473	7	Sololá	701	Sololá	2	El tablón	9	Septiembre	2023-02-09T00:00:00	2024-11-06T23:00:00	2	Temperatura media	14.3
175474	7	Sololá	701	Sololá	2	El tablón	9	Septiembre	2023-02-09T00:00:00	2024-11-06T23:00:00	4	Temperatura máxima	14.3
175475	7	Sololá	701	Sololá	2	El tablón	9	Septiembre	2023-02-09T00:00:00	2024-11-06T23:00:00	3	Temperatura mínima	14.2
175476	7	Sololá	701	Sololá	2	El tablón	9	Septiembre	2023-02-09T00:00:00	2024-11-06T23:00:00	5	Humedad	86
175477	7	Sololá	701	Sololá	2	El tablón	9	Septiembre	2023-02-09T00:00:00	2024-11-06T23:00:00	6	Velocidad del viento	8
175478	7	Sololá	701	Sololá	2	El tablón	9	Septiembre	2023-02-09T00:00:00	2024-11-06T23:00:00	7	Dirección del viento	8.05
175479	7	Sololá	701	Sololá	2	El tablón	9	Septiembre	2023-02-09T00:00:00	2024-11-06T23:00:00	1	Precipitación	0.2
175480	7	Sololá	701	Sololá	2	El tablón	9	Septiembre	2023-02-09T00:00:00	2024-11-06T23:00:00	8	Radiación solar	0
175481	7	Sololá	701	Sololá	2	El tablón	9	Septiembre	2023-03-09T00:00:00	2024-11-06T00:00:00	2	Temperatura media	13.9
175482	7	Sololá	701	Sololá	2	El tablón	9	Septiembre	2023-03-09T00:00:00	2024-11-06T00:00:00	4	Temperatura máxima	14.3
175483	7	Sololá	701	Sololá	2	El tablón	9	Septiembre	2023-03-09T00:00:00	2024-11-06T00:00:00	3	Temperatura mínima	13.9
175484	7	Sololá	701	Sololá	2	El tablón	9	Septiembre	2023-03-09T00:00:00	2024-11-06T00:00:00	5	Humedad	87
175485	7	Sololá	701	Sololá	2	El tablón	9	Septiembre	2023-03-09T00:00:00	2024-11-06T00:00:00	6	Velocidad del viento	11.3
175486	7	Sololá	701	Sololá	2	El tablón	9	Septiembre	2023-03-09T00:00:00	2024-11-06T00:00:00	7	Dirección del viento	11.27
175487	7	Sololá	701	Sololá	2	El tablón	9	Septiembre	2023-03-09T00:00:00	2024-11-06T00:00:00	1	Precipitación	0
175488	7	Sololá	701	Sololá	2	El tablón	9	Septiembre	2023-03-09T00:00:00	2024-11-06T00:00:00	8	Radiación solar	0
175489	7	Sololá	701	Sololá	2	El tablón	9	Septiembre	2023-03-09T00:00:00	2024-11-06T01:00:00	2	Temperatura media	13.6
175490	7	Sololá	701	Sololá	2	El tablón	9	Septiembre	2023-03-09T00:00:00	2024-11-06T01:00:00	4	Temperatura máxima	13.9
175491	7	Sololá	701	Sololá	2	El tablón	9	Septiembre	2023-03-09T00:00:00	2024-11-06T01:00:00	3	Temperatura mínima	13.5
175492	7	Sololá	701	Sololá	2	El tablón	9	Septiembre	2023-03-09T00:00:00	2024-11-06T01:00:00	5	Humedad	88
175493	7	Sololá	701	Sololá	2	El tablón	9	Septiembre	2023-03-09T00:00:00	2024-11-06T01:00:00	6	Velocidad del viento	8
175494	7	Sololá	701	Sololá	2	El tablón	9	Septiembre	2023-03-09T00:00:00	2024-11-06T01:00:00	7	Dirección del viento	8.05
175495	7	Sololá	701	Sololá	2	El tablón	9	Septiembre	2023-03-09T00:00:00	2024-11-06T01:00:00	1	Precipitación	0
175496	7	Sololá	701	Sololá	2	El tablón	9	Septiembre	2023-03-09T00:00:00	2024-11-06T01:00:00	8	Radiación solar	0
175497	7	Sololá	701	Sololá	2	El tablón	9	Septiembre	2023-03-09T00:00:00	2024-11-06T02:00:00	2	Temperatura media	13.5
175498	7	Sololá	701	Sololá	2	El tablón	9	Septiembre	2023-03-09T00:00:00	2024-11-06T02:00:00	4	Temperatura máxima	13.7
175499	7	Sololá	701	Sololá	2	El tablón	9	Septiembre	2023-03-09T00:00:00	2024-11-06T02:00:00	3	Temperatura mínima	13.5
175500	7	Sololá	701	Sololá	2	El tablón	9	Septiembre	2023-03-09T00:00:00	2024-11-06T02:00:00	5	Humedad	87
175501	7	Sololá	701	Sololá	2	El tablón	9	Septiembre	2023-03-09T00:00:00	2024-11-06T02:00:00	6	Velocidad del viento	9.7
175502	7	Sololá	701	Sololá	2	El tablón	9	Septiembre	2023-03-09T00:00:00	2024-11-06T02:00:00	7	Dirección del viento	9.66
175503	7	Sololá	701	Sololá	2	El tablón	9	Septiembre	2023-03-09T00:00:00	2024-11-06T02:00:00	1	Precipitación	0
175504	7	Sololá	701	Sololá	2	El tablón	9	Septiembre	2023-03-09T00:00:00	2024-11-06T02:00:00	8	Radiación solar	0
175505	7	Sololá	701	Sololá	2	El tablón	9	Septiembre	2023-03-09T00:00:00	2024-11-06T03:00:00	2	Temperatura media	13.2
175506	7	Sololá	701	Sololá	2	El tablón	9	Septiembre	2023-03-09T00:00:00	2024-11-06T03:00:00	4	Temperatura máxima	13.5
175507	7	Sololá	701	Sololá	2	El tablón	9	Septiembre	2023-03-09T00:00:00	2024-11-06T03:00:00	3	Temperatura mínima	13.2
175508	7	Sololá	701	Sololá	2	El tablón	9	Septiembre	2023-03-09T00:00:00	2024-11-06T03:00:00	5	Humedad	88
175509	7	Sololá	701	Sololá	2	El tablón	9	Septiembre	2023-03-09T00:00:00	2024-11-06T03:00:00	6	Velocidad del viento	9.7
175510	7	Sololá	701	Sololá	2	El tablón	9	Septiembre	2023-03-09T00:00:00	2024-11-06T03:00:00	7	Dirección del viento	9.66
175511	7	Sololá	701	Sololá	2	El tablón	9	Septiembre	2023-03-09T00:00:00	2024-11-06T03:00:00	1	Precipitación	0
175512	7	Sololá	701	Sololá	2	El tablón	9	Septiembre	2023-03-09T00:00:00	2024-11-06T03:00:00	8	Radiación solar	0
175513	7	Sololá	701	Sololá	2	El tablón	9	Septiembre	2023-03-09T00:00:00	2024-11-06T04:00:00	2	Temperatura media	13
175514	7	Sololá	701	Sololá	2	El tablón	9	Septiembre	2023-03-09T00:00:00	2024-11-06T04:00:00	4	Temperatura máxima	13.2
175515	7	Sololá	701	Sololá	2	El tablón	9	Septiembre	2023-03-09T00:00:00	2024-11-06T04:00:00	3	Temperatura mínima	12.9
175516	7	Sololá	701	Sololá	2	El tablón	9	Septiembre	2023-03-09T00:00:00	2024-11-06T04:00:00	5	Humedad	88
175517	7	Sololá	701	Sololá	2	El tablón	9	Septiembre	2023-03-09T00:00:00	2024-11-06T04:00:00	6	Velocidad del viento	11.3
175518	7	Sololá	701	Sololá	2	El tablón	9	Septiembre	2023-03-09T00:00:00	2024-11-06T04:00:00	7	Dirección del viento	11.27
175519	7	Sololá	701	Sololá	2	El tablón	9	Septiembre	2023-03-09T00:00:00	2024-11-06T04:00:00	1	Precipitación	0
175520	7	Sololá	701	Sololá	2	El tablón	9	Septiembre	2023-03-09T00:00:00	2024-11-06T04:00:00	8	Radiación solar	0
175521	7	Sololá	701	Sololá	2	El tablón	9	Septiembre	2023-03-09T00:00:00	2024-11-06T05:00:00	2	Temperatura media	13.2
175522	7	Sololá	701	Sololá	2	El tablón	9	Septiembre	2023-03-09T00:00:00	2024-11-06T05:00:00	4	Temperatura máxima	13.2
175523	7	Sololá	701	Sololá	2	El tablón	9	Septiembre	2023-03-09T00:00:00	2024-11-06T05:00:00	3	Temperatura mínima	13
175524	7	Sololá	701	Sololá	2	El tablón	9	Septiembre	2023-03-09T00:00:00	2024-11-06T05:00:00	5	Humedad	87
175525	7	Sololá	701	Sololá	2	El tablón	9	Septiembre	2023-03-09T00:00:00	2024-11-06T05:00:00	6	Velocidad del viento	8
175526	7	Sololá	701	Sololá	2	El tablón	9	Septiembre	2023-03-09T00:00:00	2024-11-06T05:00:00	7	Dirección del viento	8.05
175527	7	Sololá	701	Sololá	2	El tablón	9	Septiembre	2023-03-09T00:00:00	2024-11-06T05:00:00	1	Precipitación	0
175528	7	Sololá	701	Sololá	2	El tablón	9	Septiembre	2023-03-09T00:00:00	2024-11-06T05:00:00	8	Radiación solar	0
175529	7	Sololá	701	Sololá	2	El tablón	9	Septiembre	2023-03-09T00:00:00	2024-11-06T06:00:00	2	Temperatura media	12.9
175530	7	Sololá	701	Sololá	2	El tablón	9	Septiembre	2023-03-09T00:00:00	2024-11-06T06:00:00	4	Temperatura máxima	13.2
175531	7	Sololá	701	Sololá	2	El tablón	9	Septiembre	2023-03-09T00:00:00	2024-11-06T06:00:00	3	Temperatura mínima	12.9
175532	7	Sololá	701	Sololá	2	El tablón	9	Septiembre	2023-03-09T00:00:00	2024-11-06T06:00:00	5	Humedad	88
175533	7	Sololá	701	Sololá	2	El tablón	9	Septiembre	2023-03-09T00:00:00	2024-11-06T06:00:00	6	Velocidad del viento	11.3
175534	7	Sololá	701	Sololá	2	El tablón	9	Septiembre	2023-03-09T00:00:00	2024-11-06T06:00:00	7	Dirección del viento	11.27
175535	7	Sololá	701	Sololá	2	El tablón	9	Septiembre	2023-03-09T00:00:00	2024-11-06T06:00:00	1	Precipitación	0
175536	7	Sololá	701	Sololá	2	El tablón	9	Septiembre	2023-03-09T00:00:00	2024-11-06T06:00:00	8	Radiación solar	0
175537	7	Sololá	701	Sololá	2	El tablón	9	Septiembre	2023-03-09T00:00:00	2024-11-06T07:00:00	2	Temperatura media	13.9
175538	7	Sololá	701	Sololá	2	El tablón	9	Septiembre	2023-03-09T00:00:00	2024-11-06T07:00:00	4	Temperatura máxima	13.9
175539	7	Sololá	701	Sololá	2	El tablón	9	Septiembre	2023-03-09T00:00:00	2024-11-06T07:00:00	3	Temperatura mínima	12.9
175540	7	Sololá	701	Sololá	2	El tablón	9	Septiembre	2023-03-09T00:00:00	2024-11-06T07:00:00	5	Humedad	86
175541	7	Sololá	701	Sololá	2	El tablón	9	Septiembre	2023-03-09T00:00:00	2024-11-06T07:00:00	6	Velocidad del viento	14.5
175542	7	Sololá	701	Sololá	2	El tablón	9	Septiembre	2023-03-09T00:00:00	2024-11-06T07:00:00	7	Dirección del viento	14.48
175543	7	Sololá	701	Sololá	2	El tablón	9	Septiembre	2023-03-09T00:00:00	2024-11-06T07:00:00	1	Precipitación	0
175544	7	Sololá	701	Sololá	2	El tablón	9	Septiembre	2023-03-09T00:00:00	2024-11-06T07:00:00	8	Radiación solar	71
175545	7	Sololá	701	Sololá	2	El tablón	9	Septiembre	2023-03-09T00:00:00	2024-11-06T08:00:00	2	Temperatura media	16.2
175546	7	Sololá	701	Sololá	2	El tablón	9	Septiembre	2023-03-09T00:00:00	2024-11-06T08:00:00	4	Temperatura máxima	16.2
175547	7	Sololá	701	Sololá	2	El tablón	9	Septiembre	2023-03-09T00:00:00	2024-11-06T08:00:00	3	Temperatura mínima	13.9
175548	7	Sololá	701	Sololá	2	El tablón	9	Septiembre	2023-03-09T00:00:00	2024-11-06T08:00:00	5	Humedad	77
175549	7	Sololá	701	Sololá	2	El tablón	9	Septiembre	2023-03-09T00:00:00	2024-11-06T08:00:00	6	Velocidad del viento	8
175550	7	Sololá	701	Sololá	2	El tablón	9	Septiembre	2023-03-09T00:00:00	2024-11-06T08:00:00	7	Dirección del viento	8.05
175551	7	Sololá	701	Sololá	2	El tablón	9	Septiembre	2023-03-09T00:00:00	2024-11-06T08:00:00	1	Precipitación	0
175552	7	Sololá	701	Sololá	2	El tablón	9	Septiembre	2023-03-09T00:00:00	2024-11-06T08:00:00	8	Radiación solar	239
175553	7	Sololá	701	Sololá	2	El tablón	9	Septiembre	2023-03-09T00:00:00	2024-11-06T09:00:00	2	Temperatura media	17.8
175554	7	Sololá	701	Sololá	2	El tablón	9	Septiembre	2023-03-09T00:00:00	2024-11-06T09:00:00	4	Temperatura máxima	17.8
175555	7	Sololá	701	Sololá	2	El tablón	9	Septiembre	2023-03-09T00:00:00	2024-11-06T09:00:00	3	Temperatura mínima	16.2
175556	7	Sololá	701	Sololá	2	El tablón	9	Septiembre	2023-03-09T00:00:00	2024-11-06T09:00:00	5	Humedad	72
175557	7	Sololá	701	Sololá	2	El tablón	9	Septiembre	2023-03-09T00:00:00	2024-11-06T09:00:00	6	Velocidad del viento	8
175558	7	Sololá	701	Sololá	2	El tablón	9	Septiembre	2023-03-09T00:00:00	2024-11-06T09:00:00	7	Dirección del viento	8.05
175559	7	Sololá	701	Sololá	2	El tablón	9	Septiembre	2023-03-09T00:00:00	2024-11-06T09:00:00	1	Precipitación	0
175560	7	Sololá	701	Sololá	2	El tablón	9	Septiembre	2023-03-09T00:00:00	2024-11-06T09:00:00	8	Radiación solar	464
175561	7	Sololá	701	Sololá	2	El tablón	9	Septiembre	2023-03-09T00:00:00	2024-11-06T10:00:00	2	Temperatura media	19.3
175562	7	Sololá	701	Sololá	2	El tablón	9	Septiembre	2023-03-09T00:00:00	2024-11-06T10:00:00	4	Temperatura máxima	19.3
175563	7	Sololá	701	Sololá	2	El tablón	9	Septiembre	2023-03-09T00:00:00	2024-11-06T10:00:00	3	Temperatura mínima	17.8
175564	7	Sololá	701	Sololá	2	El tablón	9	Septiembre	2023-03-09T00:00:00	2024-11-06T10:00:00	5	Humedad	67
175565	7	Sololá	701	Sololá	2	El tablón	9	Septiembre	2023-03-09T00:00:00	2024-11-06T10:00:00	6	Velocidad del viento	9.7
175566	7	Sololá	701	Sololá	2	El tablón	9	Septiembre	2023-03-09T00:00:00	2024-11-06T10:00:00	7	Dirección del viento	9.66
175567	7	Sololá	701	Sololá	2	El tablón	9	Septiembre	2023-03-09T00:00:00	2024-11-06T10:00:00	1	Precipitación	0
175568	7	Sololá	701	Sololá	2	El tablón	9	Septiembre	2023-03-09T00:00:00	2024-11-06T10:00:00	8	Radiación solar	672
175569	7	Sololá	701	Sololá	2	El tablón	9	Septiembre	2023-03-09T00:00:00	2024-11-06T11:00:00	2	Temperatura media	18.8
175570	7	Sololá	701	Sololá	2	El tablón	9	Septiembre	2023-03-09T00:00:00	2024-11-06T11:00:00	4	Temperatura máxima	19.8
175571	7	Sololá	701	Sololá	2	El tablón	9	Septiembre	2023-03-09T00:00:00	2024-11-06T11:00:00	3	Temperatura mínima	18.8
175572	7	Sololá	701	Sololá	2	El tablón	9	Septiembre	2023-03-09T00:00:00	2024-11-06T11:00:00	5	Humedad	69
175573	7	Sololá	701	Sololá	2	El tablón	9	Septiembre	2023-03-09T00:00:00	2024-11-06T11:00:00	6	Velocidad del viento	9.7
175574	7	Sololá	701	Sololá	2	El tablón	9	Septiembre	2023-03-09T00:00:00	2024-11-06T11:00:00	7	Dirección del viento	9.66
175575	7	Sololá	701	Sololá	2	El tablón	9	Septiembre	2023-03-09T00:00:00	2024-11-06T11:00:00	1	Precipitación	0
175576	7	Sololá	701	Sololá	2	El tablón	9	Septiembre	2023-03-09T00:00:00	2024-11-06T11:00:00	8	Radiación solar	601
175577	7	Sololá	701	Sololá	2	El tablón	9	Septiembre	2023-03-09T00:00:00	2024-11-06T12:00:00	2	Temperatura media	19.9
175578	7	Sololá	701	Sololá	2	El tablón	9	Septiembre	2023-03-09T00:00:00	2024-11-06T12:00:00	4	Temperatura máxima	20.4
175579	7	Sololá	701	Sololá	2	El tablón	9	Septiembre	2023-03-09T00:00:00	2024-11-06T12:00:00	3	Temperatura mínima	18.6
175580	7	Sololá	701	Sololá	2	El tablón	9	Septiembre	2023-03-09T00:00:00	2024-11-06T12:00:00	5	Humedad	65
175581	7	Sololá	701	Sololá	2	El tablón	9	Septiembre	2023-03-09T00:00:00	2024-11-06T12:00:00	6	Velocidad del viento	9.7
175582	7	Sololá	701	Sololá	2	El tablón	9	Septiembre	2023-03-09T00:00:00	2024-11-06T12:00:00	7	Dirección del viento	9.66
175583	7	Sololá	701	Sololá	2	El tablón	9	Septiembre	2023-03-09T00:00:00	2024-11-06T12:00:00	1	Precipitación	0
175584	7	Sololá	701	Sololá	2	El tablón	9	Septiembre	2023-03-09T00:00:00	2024-11-06T12:00:00	8	Radiación solar	955
175585	7	Sololá	701	Sololá	2	El tablón	9	Septiembre	2023-03-09T00:00:00	2024-11-06T13:00:00	2	Temperatura media	20.2
175586	7	Sololá	701	Sololá	2	El tablón	9	Septiembre	2023-03-09T00:00:00	2024-11-06T13:00:00	4	Temperatura máxima	20.9
175587	7	Sololá	701	Sololá	2	El tablón	9	Septiembre	2023-03-09T00:00:00	2024-11-06T13:00:00	3	Temperatura mínima	19.6
175588	7	Sololá	701	Sololá	2	El tablón	9	Septiembre	2023-03-09T00:00:00	2024-11-06T13:00:00	5	Humedad	64
175589	7	Sololá	701	Sololá	2	El tablón	9	Septiembre	2023-03-09T00:00:00	2024-11-06T13:00:00	6	Velocidad del viento	8
175590	7	Sololá	701	Sololá	2	El tablón	9	Septiembre	2023-03-09T00:00:00	2024-11-06T13:00:00	7	Dirección del viento	8.05
175591	7	Sololá	701	Sololá	2	El tablón	9	Septiembre	2023-03-09T00:00:00	2024-11-06T13:00:00	1	Precipitación	0
175592	7	Sololá	701	Sololá	2	El tablón	9	Septiembre	2023-03-09T00:00:00	2024-11-06T13:00:00	8	Radiación solar	883
175593	7	Sololá	701	Sololá	2	El tablón	9	Septiembre	2023-03-09T00:00:00	2024-11-06T14:00:00	2	Temperatura media	20
175594	7	Sololá	701	Sololá	2	El tablón	9	Septiembre	2023-03-09T00:00:00	2024-11-06T14:00:00	4	Temperatura máxima	20.9
175595	7	Sololá	701	Sololá	2	El tablón	9	Septiembre	2023-03-09T00:00:00	2024-11-06T14:00:00	3	Temperatura mínima	19.8
175596	7	Sololá	701	Sololá	2	El tablón	9	Septiembre	2023-03-09T00:00:00	2024-11-06T14:00:00	5	Humedad	63
175597	7	Sololá	701	Sololá	2	El tablón	9	Septiembre	2023-03-09T00:00:00	2024-11-06T14:00:00	6	Velocidad del viento	9.7
175598	7	Sololá	701	Sololá	2	El tablón	9	Septiembre	2023-03-09T00:00:00	2024-11-06T14:00:00	7	Dirección del viento	9.66
175599	7	Sololá	701	Sololá	2	El tablón	9	Septiembre	2023-03-09T00:00:00	2024-11-06T14:00:00	1	Precipitación	0
175600	7	Sololá	701	Sololá	2	El tablón	9	Septiembre	2023-03-09T00:00:00	2024-11-06T14:00:00	8	Radiación solar	818
175601	7	Sololá	701	Sololá	2	El tablón	9	Septiembre	2023-03-09T00:00:00	2024-11-06T15:00:00	2	Temperatura media	18.6
175602	7	Sololá	701	Sololá	2	El tablón	9	Septiembre	2023-03-09T00:00:00	2024-11-06T15:00:00	4	Temperatura máxima	20.8
175603	7	Sololá	701	Sololá	2	El tablón	9	Septiembre	2023-03-09T00:00:00	2024-11-06T15:00:00	3	Temperatura mínima	18.6
175604	7	Sololá	701	Sololá	2	El tablón	9	Septiembre	2023-03-09T00:00:00	2024-11-06T15:00:00	5	Humedad	84
175605	7	Sololá	701	Sololá	2	El tablón	9	Septiembre	2023-03-09T00:00:00	2024-11-06T15:00:00	6	Velocidad del viento	8
175606	7	Sololá	701	Sololá	2	El tablón	9	Septiembre	2023-03-09T00:00:00	2024-11-06T15:00:00	7	Dirección del viento	8.05
175607	7	Sololá	701	Sololá	2	El tablón	9	Septiembre	2023-03-09T00:00:00	2024-11-06T15:00:00	1	Precipitación	0
175608	7	Sololá	701	Sololá	2	El tablón	9	Septiembre	2023-03-09T00:00:00	2024-11-06T15:00:00	8	Radiación solar	609
175609	7	Sololá	701	Sololá	2	El tablón	9	Septiembre	2023-03-09T00:00:00	2024-11-06T16:00:00	2	Temperatura media	17.5
175610	7	Sololá	701	Sololá	2	El tablón	9	Septiembre	2023-03-09T00:00:00	2024-11-06T16:00:00	4	Temperatura máxima	18.9
175611	7	Sololá	701	Sololá	2	El tablón	9	Septiembre	2023-03-09T00:00:00	2024-11-06T16:00:00	3	Temperatura mínima	17.5
175612	7	Sololá	701	Sololá	2	El tablón	9	Septiembre	2023-03-09T00:00:00	2024-11-06T16:00:00	5	Humedad	86
175613	7	Sololá	701	Sololá	2	El tablón	9	Septiembre	2023-03-09T00:00:00	2024-11-06T16:00:00	6	Velocidad del viento	6.4
175614	7	Sololá	701	Sololá	2	El tablón	9	Septiembre	2023-03-09T00:00:00	2024-11-06T16:00:00	7	Dirección del viento	6.44
175615	7	Sololá	701	Sololá	2	El tablón	9	Septiembre	2023-03-09T00:00:00	2024-11-06T16:00:00	1	Precipitación	0
175616	7	Sololá	701	Sololá	2	El tablón	9	Septiembre	2023-03-09T00:00:00	2024-11-06T16:00:00	8	Radiación solar	296
175617	7	Sololá	701	Sololá	2	El tablón	9	Septiembre	2023-03-09T00:00:00	2024-11-06T17:00:00	2	Temperatura media	14.7
175618	7	Sololá	701	Sololá	2	El tablón	9	Septiembre	2023-03-09T00:00:00	2024-11-06T17:00:00	4	Temperatura máxima	17.5
175619	7	Sololá	701	Sololá	2	El tablón	9	Septiembre	2023-03-09T00:00:00	2024-11-06T17:00:00	3	Temperatura mínima	14.4
175620	7	Sololá	701	Sololá	2	El tablón	9	Septiembre	2023-03-09T00:00:00	2024-11-06T17:00:00	5	Humedad	87
175621	7	Sololá	701	Sololá	2	El tablón	9	Septiembre	2023-03-09T00:00:00	2024-11-06T17:00:00	6	Velocidad del viento	6.4
175622	7	Sololá	701	Sololá	2	El tablón	9	Septiembre	2023-03-09T00:00:00	2024-11-06T17:00:00	7	Dirección del viento	6.44
175623	7	Sololá	701	Sololá	2	El tablón	9	Septiembre	2023-03-09T00:00:00	2024-11-06T17:00:00	1	Precipitación	8.2
175624	7	Sololá	701	Sololá	2	El tablón	9	Septiembre	2023-03-09T00:00:00	2024-11-06T17:00:00	8	Radiación solar	80
175625	7	Sololá	701	Sololá	2	El tablón	9	Septiembre	2023-03-09T00:00:00	2024-11-06T18:00:00	2	Temperatura media	14.6
175626	7	Sololá	701	Sololá	2	El tablón	9	Septiembre	2023-03-09T00:00:00	2024-11-06T18:00:00	4	Temperatura máxima	15.6
175627	7	Sololá	701	Sololá	2	El tablón	9	Septiembre	2023-03-09T00:00:00	2024-11-06T18:00:00	3	Temperatura mínima	14.6
175628	7	Sololá	701	Sololá	2	El tablón	9	Septiembre	2023-03-09T00:00:00	2024-11-06T18:00:00	5	Humedad	88
175629	7	Sololá	701	Sololá	2	El tablón	9	Septiembre	2023-03-09T00:00:00	2024-11-06T18:00:00	6	Velocidad del viento	4.8
175630	7	Sololá	701	Sololá	2	El tablón	9	Septiembre	2023-03-09T00:00:00	2024-11-06T18:00:00	7	Dirección del viento	4.83
175631	7	Sololá	701	Sololá	2	El tablón	9	Septiembre	2023-03-09T00:00:00	2024-11-06T18:00:00	1	Precipitación	0.2
175632	7	Sololá	701	Sololá	2	El tablón	9	Septiembre	2023-03-09T00:00:00	2024-11-06T18:00:00	8	Radiación solar	70
175633	7	Sololá	701	Sololá	2	El tablón	9	Septiembre	2023-03-09T00:00:00	2024-11-06T19:00:00	2	Temperatura media	14.2
175634	7	Sololá	701	Sololá	2	El tablón	9	Septiembre	2023-03-09T00:00:00	2024-11-06T19:00:00	4	Temperatura máxima	14.6
175635	7	Sololá	701	Sololá	2	El tablón	9	Septiembre	2023-03-09T00:00:00	2024-11-06T19:00:00	3	Temperatura mínima	14.1
175636	7	Sololá	701	Sololá	2	El tablón	9	Septiembre	2023-03-09T00:00:00	2024-11-06T19:00:00	5	Humedad	88
175637	7	Sololá	701	Sololá	2	El tablón	9	Septiembre	2023-03-09T00:00:00	2024-11-06T19:00:00	6	Velocidad del viento	3.2
175638	7	Sololá	701	Sololá	2	El tablón	9	Septiembre	2023-03-09T00:00:00	2024-11-06T19:00:00	7	Dirección del viento	3.22
175639	7	Sololá	701	Sololá	2	El tablón	9	Septiembre	2023-03-09T00:00:00	2024-11-06T19:00:00	1	Precipitación	0.2
175640	7	Sololá	701	Sololá	2	El tablón	9	Septiembre	2023-03-09T00:00:00	2024-11-06T19:00:00	8	Radiación solar	0
175641	7	Sololá	701	Sololá	2	El tablón	9	Septiembre	2023-03-09T00:00:00	2024-11-06T20:00:00	2	Temperatura media	13.9
175642	7	Sololá	701	Sololá	2	El tablón	9	Septiembre	2023-03-09T00:00:00	2024-11-06T20:00:00	4	Temperatura máxima	14.2
175643	7	Sololá	701	Sololá	2	El tablón	9	Septiembre	2023-03-09T00:00:00	2024-11-06T20:00:00	3	Temperatura mínima	13.9
175644	7	Sololá	701	Sololá	2	El tablón	9	Septiembre	2023-03-09T00:00:00	2024-11-06T20:00:00	5	Humedad	88
175645	7	Sololá	701	Sololá	2	El tablón	9	Septiembre	2023-03-09T00:00:00	2024-11-06T20:00:00	6	Velocidad del viento	0
175646	7	Sololá	701	Sololá	2	El tablón	9	Septiembre	2023-03-09T00:00:00	2024-11-06T20:00:00	7	Dirección del viento	0
175647	7	Sololá	701	Sololá	2	El tablón	9	Septiembre	2023-03-09T00:00:00	2024-11-06T20:00:00	1	Precipitación	0
175648	7	Sololá	701	Sololá	2	El tablón	9	Septiembre	2023-03-09T00:00:00	2024-11-06T20:00:00	8	Radiación solar	0
175649	7	Sololá	701	Sololá	2	El tablón	9	Septiembre	2023-03-09T00:00:00	2024-11-06T21:00:00	2	Temperatura media	13.6
175650	7	Sololá	701	Sololá	2	El tablón	9	Septiembre	2023-03-09T00:00:00	2024-11-06T21:00:00	4	Temperatura máxima	13.9
175651	7	Sololá	701	Sololá	2	El tablón	9	Septiembre	2023-03-09T00:00:00	2024-11-06T21:00:00	3	Temperatura mínima	13.6
175652	7	Sololá	701	Sololá	2	El tablón	9	Septiembre	2023-03-09T00:00:00	2024-11-06T21:00:00	5	Humedad	88
175653	7	Sololá	701	Sololá	2	El tablón	9	Septiembre	2023-03-09T00:00:00	2024-11-06T21:00:00	6	Velocidad del viento	3.2
175654	7	Sololá	701	Sololá	2	El tablón	9	Septiembre	2023-03-09T00:00:00	2024-11-06T21:00:00	7	Dirección del viento	3.22
175655	7	Sololá	701	Sololá	2	El tablón	9	Septiembre	2023-03-09T00:00:00	2024-11-06T21:00:00	1	Precipitación	1
175656	7	Sololá	701	Sololá	2	El tablón	9	Septiembre	2023-03-09T00:00:00	2024-11-06T21:00:00	8	Radiación solar	0
175657	7	Sololá	701	Sololá	2	El tablón	9	Septiembre	2023-03-09T00:00:00	2024-11-06T22:00:00	2	Temperatura media	13.2
175658	7	Sololá	701	Sololá	2	El tablón	9	Septiembre	2023-03-09T00:00:00	2024-11-06T22:00:00	4	Temperatura máxima	13.6
175659	7	Sololá	701	Sololá	2	El tablón	9	Septiembre	2023-03-09T00:00:00	2024-11-06T22:00:00	3	Temperatura mínima	13.2
175660	7	Sololá	701	Sololá	2	El tablón	9	Septiembre	2023-03-09T00:00:00	2024-11-06T22:00:00	5	Humedad	88
175661	7	Sololá	701	Sololá	2	El tablón	9	Septiembre	2023-03-09T00:00:00	2024-11-06T22:00:00	6	Velocidad del viento	3.2
175662	7	Sololá	701	Sololá	2	El tablón	9	Septiembre	2023-03-09T00:00:00	2024-11-06T22:00:00	7	Dirección del viento	3.22
175663	7	Sololá	701	Sololá	2	El tablón	9	Septiembre	2023-03-09T00:00:00	2024-11-06T22:00:00	1	Precipitación	2.8
175664	7	Sololá	701	Sololá	2	El tablón	9	Septiembre	2023-03-09T00:00:00	2024-11-06T22:00:00	8	Radiación solar	0
175665	7	Sololá	701	Sololá	2	El tablón	9	Septiembre	2023-03-09T00:00:00	2024-11-06T23:00:00	2	Temperatura media	12.9
175666	7	Sololá	701	Sololá	2	El tablón	9	Septiembre	2023-03-09T00:00:00	2024-11-06T23:00:00	4	Temperatura máxima	13.2
175667	7	Sololá	701	Sololá	2	El tablón	9	Septiembre	2023-03-09T00:00:00	2024-11-06T23:00:00	3	Temperatura mínima	12.9
175668	7	Sololá	701	Sololá	2	El tablón	9	Septiembre	2023-03-09T00:00:00	2024-11-06T23:00:00	5	Humedad	88
175669	7	Sololá	701	Sololá	2	El tablón	9	Septiembre	2023-03-09T00:00:00	2024-11-06T23:00:00	6	Velocidad del viento	3.2
175670	7	Sololá	701	Sololá	2	El tablón	9	Septiembre	2023-03-09T00:00:00	2024-11-06T23:00:00	7	Dirección del viento	3.22
175671	7	Sololá	701	Sololá	2	El tablón	9	Septiembre	2023-03-09T00:00:00	2024-11-06T23:00:00	1	Precipitación	2.2
175672	7	Sololá	701	Sololá	2	El tablón	9	Septiembre	2023-03-09T00:00:00	2024-11-06T23:00:00	8	Radiación solar	0
175673	7	Sololá	701	Sololá	2	El tablón	9	Septiembre	2023-04-09T00:00:00	2024-11-06T00:00:00	2	Temperatura media	13.1
175674	7	Sololá	701	Sololá	2	El tablón	9	Septiembre	2023-04-09T00:00:00	2024-11-06T00:00:00	4	Temperatura máxima	13.2
175675	7	Sololá	701	Sololá	2	El tablón	9	Septiembre	2023-04-09T00:00:00	2024-11-06T00:00:00	3	Temperatura mínima	12.9
175676	7	Sololá	701	Sololá	2	El tablón	9	Septiembre	2023-04-09T00:00:00	2024-11-06T00:00:00	5	Humedad	88
175677	7	Sololá	701	Sololá	2	El tablón	9	Septiembre	2023-04-09T00:00:00	2024-11-06T00:00:00	6	Velocidad del viento	8
175678	7	Sololá	701	Sololá	2	El tablón	9	Septiembre	2023-04-09T00:00:00	2024-11-06T00:00:00	7	Dirección del viento	8.05
175679	7	Sololá	701	Sololá	2	El tablón	9	Septiembre	2023-04-09T00:00:00	2024-11-06T00:00:00	1	Precipitación	0.6
175680	7	Sololá	701	Sololá	2	El tablón	9	Septiembre	2023-04-09T00:00:00	2024-11-06T00:00:00	8	Radiación solar	0
175681	7	Sololá	701	Sololá	2	El tablón	9	Septiembre	2023-04-09T00:00:00	2024-11-06T01:00:00	2	Temperatura media	12.9
175682	7	Sololá	701	Sololá	2	El tablón	9	Septiembre	2023-04-09T00:00:00	2024-11-06T01:00:00	4	Temperatura máxima	13.2
175683	7	Sololá	701	Sololá	2	El tablón	9	Septiembre	2023-04-09T00:00:00	2024-11-06T01:00:00	3	Temperatura mínima	12.8
175684	7	Sololá	701	Sololá	2	El tablón	9	Septiembre	2023-04-09T00:00:00	2024-11-06T01:00:00	5	Humedad	88
175685	7	Sololá	701	Sololá	2	El tablón	9	Septiembre	2023-04-09T00:00:00	2024-11-06T01:00:00	6	Velocidad del viento	8
175686	7	Sololá	701	Sololá	2	El tablón	9	Septiembre	2023-04-09T00:00:00	2024-11-06T01:00:00	7	Dirección del viento	8.05
175687	7	Sololá	701	Sololá	2	El tablón	9	Septiembre	2023-04-09T00:00:00	2024-11-06T01:00:00	1	Precipitación	0.2
175688	7	Sololá	701	Sololá	2	El tablón	9	Septiembre	2023-04-09T00:00:00	2024-11-06T01:00:00	8	Radiación solar	0
175689	7	Sololá	701	Sololá	2	El tablón	9	Septiembre	2023-04-09T00:00:00	2024-11-06T02:00:00	2	Temperatura media	12.5
175690	7	Sololá	701	Sololá	2	El tablón	9	Septiembre	2023-04-09T00:00:00	2024-11-06T02:00:00	4	Temperatura máxima	12.9
175691	7	Sololá	701	Sololá	2	El tablón	9	Septiembre	2023-04-09T00:00:00	2024-11-06T02:00:00	3	Temperatura mínima	12.5
175692	7	Sololá	701	Sololá	2	El tablón	9	Septiembre	2023-04-09T00:00:00	2024-11-06T02:00:00	5	Humedad	89
175693	7	Sololá	701	Sololá	2	El tablón	9	Septiembre	2023-04-09T00:00:00	2024-11-06T02:00:00	6	Velocidad del viento	6.4
175694	7	Sololá	701	Sololá	2	El tablón	9	Septiembre	2023-04-09T00:00:00	2024-11-06T02:00:00	7	Dirección del viento	6.44
175695	7	Sololá	701	Sololá	2	El tablón	9	Septiembre	2023-04-09T00:00:00	2024-11-06T02:00:00	1	Precipitación	0
175696	7	Sololá	701	Sololá	2	El tablón	9	Septiembre	2023-04-09T00:00:00	2024-11-06T02:00:00	8	Radiación solar	0
175697	7	Sololá	701	Sololá	2	El tablón	9	Septiembre	2023-04-09T00:00:00	2024-11-06T03:00:00	2	Temperatura media	12.2
175698	7	Sololá	701	Sololá	2	El tablón	9	Septiembre	2023-04-09T00:00:00	2024-11-06T03:00:00	4	Temperatura máxima	12.5
175699	7	Sololá	701	Sololá	2	El tablón	9	Septiembre	2023-04-09T00:00:00	2024-11-06T03:00:00	3	Temperatura mínima	12.2
175700	7	Sololá	701	Sololá	2	El tablón	9	Septiembre	2023-04-09T00:00:00	2024-11-06T03:00:00	5	Humedad	88
175701	7	Sololá	701	Sololá	2	El tablón	9	Septiembre	2023-04-09T00:00:00	2024-11-06T03:00:00	6	Velocidad del viento	6.4
175702	7	Sololá	701	Sololá	2	El tablón	9	Septiembre	2023-04-09T00:00:00	2024-11-06T03:00:00	7	Dirección del viento	6.44
175703	7	Sololá	701	Sololá	2	El tablón	9	Septiembre	2023-04-09T00:00:00	2024-11-06T03:00:00	1	Precipitación	0
175704	7	Sololá	701	Sololá	2	El tablón	9	Septiembre	2023-04-09T00:00:00	2024-11-06T03:00:00	8	Radiación solar	0
175705	7	Sololá	701	Sololá	2	El tablón	9	Septiembre	2023-04-09T00:00:00	2024-11-06T04:00:00	2	Temperatura media	12.2
175706	7	Sololá	701	Sololá	2	El tablón	9	Septiembre	2023-04-09T00:00:00	2024-11-06T04:00:00	4	Temperatura máxima	12.3
175707	7	Sololá	701	Sololá	2	El tablón	9	Septiembre	2023-04-09T00:00:00	2024-11-06T04:00:00	3	Temperatura mínima	12.2
175708	7	Sololá	701	Sololá	2	El tablón	9	Septiembre	2023-04-09T00:00:00	2024-11-06T04:00:00	5	Humedad	87
175709	7	Sololá	701	Sololá	2	El tablón	9	Septiembre	2023-04-09T00:00:00	2024-11-06T04:00:00	6	Velocidad del viento	6.4
175710	7	Sololá	701	Sololá	2	El tablón	9	Septiembre	2023-04-09T00:00:00	2024-11-06T04:00:00	7	Dirección del viento	6.44
175711	7	Sololá	701	Sololá	2	El tablón	9	Septiembre	2023-04-09T00:00:00	2024-11-06T04:00:00	1	Precipitación	0
175712	7	Sololá	701	Sololá	2	El tablón	9	Septiembre	2023-04-09T00:00:00	2024-11-06T04:00:00	8	Radiación solar	0
175713	7	Sololá	701	Sololá	2	El tablón	9	Septiembre	2023-04-09T00:00:00	2024-11-06T05:00:00	2	Temperatura media	11.3
175714	7	Sololá	701	Sololá	2	El tablón	9	Septiembre	2023-04-09T00:00:00	2024-11-06T05:00:00	4	Temperatura máxima	12.2
175715	7	Sololá	701	Sololá	2	El tablón	9	Septiembre	2023-04-09T00:00:00	2024-11-06T05:00:00	3	Temperatura mínima	11.2
175716	7	Sololá	701	Sololá	2	El tablón	9	Septiembre	2023-04-09T00:00:00	2024-11-06T05:00:00	5	Humedad	89
175717	7	Sololá	701	Sololá	2	El tablón	9	Septiembre	2023-04-09T00:00:00	2024-11-06T05:00:00	6	Velocidad del viento	1.6
175718	7	Sololá	701	Sololá	2	El tablón	9	Septiembre	2023-04-09T00:00:00	2024-11-06T05:00:00	7	Dirección del viento	1.61
175719	7	Sololá	701	Sololá	2	El tablón	9	Septiembre	2023-04-09T00:00:00	2024-11-06T05:00:00	1	Precipitación	0
175720	7	Sololá	701	Sololá	2	El tablón	9	Septiembre	2023-04-09T00:00:00	2024-11-06T05:00:00	8	Radiación solar	0
175721	7	Sololá	701	Sololá	2	El tablón	9	Septiembre	2023-04-09T00:00:00	2024-11-06T06:00:00	2	Temperatura media	11.2
175722	7	Sololá	701	Sololá	2	El tablón	9	Septiembre	2023-04-09T00:00:00	2024-11-06T06:00:00	4	Temperatura máxima	11.4
175723	7	Sololá	701	Sololá	2	El tablón	9	Septiembre	2023-04-09T00:00:00	2024-11-06T06:00:00	3	Temperatura mínima	11.1
175724	7	Sololá	701	Sololá	2	El tablón	9	Septiembre	2023-04-09T00:00:00	2024-11-06T06:00:00	5	Humedad	89
175725	7	Sololá	701	Sololá	2	El tablón	9	Septiembre	2023-04-09T00:00:00	2024-11-06T06:00:00	6	Velocidad del viento	3.2
175726	7	Sololá	701	Sololá	2	El tablón	9	Septiembre	2023-04-09T00:00:00	2024-11-06T06:00:00	7	Dirección del viento	3.22
175727	7	Sololá	701	Sololá	2	El tablón	9	Septiembre	2023-04-09T00:00:00	2024-11-06T06:00:00	1	Precipitación	0
175728	7	Sololá	701	Sololá	2	El tablón	9	Septiembre	2023-04-09T00:00:00	2024-11-06T06:00:00	8	Radiación solar	0
175729	7	Sololá	701	Sololá	2	El tablón	9	Septiembre	2023-04-09T00:00:00	2024-11-06T07:00:00	2	Temperatura media	12.8
175730	7	Sololá	701	Sololá	2	El tablón	9	Septiembre	2023-04-09T00:00:00	2024-11-06T07:00:00	4	Temperatura máxima	12.8
175731	7	Sololá	701	Sololá	2	El tablón	9	Septiembre	2023-04-09T00:00:00	2024-11-06T07:00:00	3	Temperatura mínima	11.2
175732	7	Sololá	701	Sololá	2	El tablón	9	Septiembre	2023-04-09T00:00:00	2024-11-06T07:00:00	5	Humedad	87
175733	7	Sololá	701	Sololá	2	El tablón	9	Septiembre	2023-04-09T00:00:00	2024-11-06T07:00:00	6	Velocidad del viento	4.8
175734	7	Sololá	701	Sololá	2	El tablón	9	Septiembre	2023-04-09T00:00:00	2024-11-06T07:00:00	7	Dirección del viento	4.83
175735	7	Sololá	701	Sololá	2	El tablón	9	Septiembre	2023-04-09T00:00:00	2024-11-06T07:00:00	1	Precipitación	0
175736	7	Sololá	701	Sololá	2	El tablón	9	Septiembre	2023-04-09T00:00:00	2024-11-06T07:00:00	8	Radiación solar	73
175737	7	Sololá	701	Sololá	2	El tablón	9	Septiembre	2023-04-09T00:00:00	2024-11-06T08:00:00	2	Temperatura media	15.2
175738	7	Sololá	701	Sololá	2	El tablón	9	Septiembre	2023-04-09T00:00:00	2024-11-06T08:00:00	4	Temperatura máxima	15.2
175739	7	Sololá	701	Sololá	2	El tablón	9	Septiembre	2023-04-09T00:00:00	2024-11-06T08:00:00	3	Temperatura mínima	12.7
175740	7	Sololá	701	Sololá	2	El tablón	9	Septiembre	2023-04-09T00:00:00	2024-11-06T08:00:00	5	Humedad	81
175741	7	Sololá	701	Sololá	2	El tablón	9	Septiembre	2023-04-09T00:00:00	2024-11-06T08:00:00	6	Velocidad del viento	8
175742	7	Sololá	701	Sololá	2	El tablón	9	Septiembre	2023-04-09T00:00:00	2024-11-06T08:00:00	7	Dirección del viento	8.05
175743	7	Sololá	701	Sololá	2	El tablón	9	Septiembre	2023-04-09T00:00:00	2024-11-06T08:00:00	1	Precipitación	0
175744	7	Sololá	701	Sololá	2	El tablón	9	Septiembre	2023-04-09T00:00:00	2024-11-06T08:00:00	8	Radiación solar	281
175745	7	Sololá	701	Sololá	2	El tablón	9	Septiembre	2023-04-09T00:00:00	2024-11-06T09:00:00	2	Temperatura media	16.3
175746	7	Sololá	701	Sololá	2	El tablón	9	Septiembre	2023-04-09T00:00:00	2024-11-06T09:00:00	4	Temperatura máxima	16.3
175747	7	Sololá	701	Sololá	2	El tablón	9	Septiembre	2023-04-09T00:00:00	2024-11-06T09:00:00	3	Temperatura mínima	15.2
175748	7	Sololá	701	Sololá	2	El tablón	9	Septiembre	2023-04-09T00:00:00	2024-11-06T09:00:00	5	Humedad	78
175749	7	Sololá	701	Sololá	2	El tablón	9	Septiembre	2023-04-09T00:00:00	2024-11-06T09:00:00	6	Velocidad del viento	9.7
175750	7	Sololá	701	Sololá	2	El tablón	9	Septiembre	2023-04-09T00:00:00	2024-11-06T09:00:00	7	Dirección del viento	9.66
175751	7	Sololá	701	Sololá	2	El tablón	9	Septiembre	2023-04-09T00:00:00	2024-11-06T09:00:00	1	Precipitación	0
175752	7	Sololá	701	Sololá	2	El tablón	9	Septiembre	2023-04-09T00:00:00	2024-11-06T09:00:00	8	Radiación solar	492
175753	7	Sololá	701	Sololá	2	El tablón	9	Septiembre	2023-04-09T00:00:00	2024-11-06T10:00:00	2	Temperatura media	18.1
175754	7	Sololá	701	Sololá	2	El tablón	9	Septiembre	2023-04-09T00:00:00	2024-11-06T10:00:00	4	Temperatura máxima	18.1
175755	7	Sololá	701	Sololá	2	El tablón	9	Septiembre	2023-04-09T00:00:00	2024-11-06T10:00:00	3	Temperatura mínima	16.3
175756	7	Sololá	701	Sololá	2	El tablón	9	Septiembre	2023-04-09T00:00:00	2024-11-06T10:00:00	5	Humedad	72
175757	7	Sololá	701	Sololá	2	El tablón	9	Septiembre	2023-04-09T00:00:00	2024-11-06T10:00:00	6	Velocidad del viento	6.4
175758	7	Sololá	701	Sololá	2	El tablón	9	Septiembre	2023-04-09T00:00:00	2024-11-06T10:00:00	7	Dirección del viento	6.44
175759	7	Sololá	701	Sololá	2	El tablón	9	Septiembre	2023-04-09T00:00:00	2024-11-06T10:00:00	1	Precipitación	0
175760	7	Sololá	701	Sololá	2	El tablón	9	Septiembre	2023-04-09T00:00:00	2024-11-06T10:00:00	8	Radiación solar	695
175761	7	Sololá	701	Sololá	2	El tablón	9	Septiembre	2023-04-09T00:00:00	2024-11-06T11:00:00	2	Temperatura media	19.2
175762	7	Sololá	701	Sololá	2	El tablón	9	Septiembre	2023-04-09T00:00:00	2024-11-06T11:00:00	4	Temperatura máxima	19.4
175763	7	Sololá	701	Sololá	2	El tablón	9	Septiembre	2023-04-09T00:00:00	2024-11-06T11:00:00	3	Temperatura mínima	18.1
175764	7	Sololá	701	Sololá	2	El tablón	9	Septiembre	2023-04-09T00:00:00	2024-11-06T11:00:00	5	Humedad	65
175765	7	Sololá	701	Sololá	2	El tablón	9	Septiembre	2023-04-09T00:00:00	2024-11-06T11:00:00	6	Velocidad del viento	8
175766	7	Sololá	701	Sololá	2	El tablón	9	Septiembre	2023-04-09T00:00:00	2024-11-06T11:00:00	7	Dirección del viento	8.05
175767	7	Sololá	701	Sololá	2	El tablón	9	Septiembre	2023-04-09T00:00:00	2024-11-06T11:00:00	1	Precipitación	0
175768	7	Sololá	701	Sololá	2	El tablón	9	Septiembre	2023-04-09T00:00:00	2024-11-06T11:00:00	8	Radiación solar	816
175769	7	Sololá	701	Sololá	2	El tablón	9	Septiembre	2023-04-09T00:00:00	2024-11-06T12:00:00	2	Temperatura media	20.2
175770	7	Sololá	701	Sololá	2	El tablón	9	Septiembre	2023-04-09T00:00:00	2024-11-06T12:00:00	4	Temperatura máxima	20.2
175771	7	Sololá	701	Sololá	2	El tablón	9	Septiembre	2023-04-09T00:00:00	2024-11-06T12:00:00	3	Temperatura mínima	19.1
175772	7	Sololá	701	Sololá	2	El tablón	9	Septiembre	2023-04-09T00:00:00	2024-11-06T12:00:00	5	Humedad	66
175773	7	Sololá	701	Sololá	2	El tablón	9	Septiembre	2023-04-09T00:00:00	2024-11-06T12:00:00	6	Velocidad del viento	6.4
175774	7	Sololá	701	Sololá	2	El tablón	9	Septiembre	2023-04-09T00:00:00	2024-11-06T12:00:00	7	Dirección del viento	6.44
175775	7	Sololá	701	Sololá	2	El tablón	9	Septiembre	2023-04-09T00:00:00	2024-11-06T12:00:00	1	Precipitación	0
175776	7	Sololá	701	Sololá	2	El tablón	9	Septiembre	2023-04-09T00:00:00	2024-11-06T12:00:00	8	Radiación solar	896
175777	7	Sololá	701	Sololá	2	El tablón	9	Septiembre	2023-04-09T00:00:00	2024-11-06T13:00:00	2	Temperatura media	20
175778	7	Sololá	701	Sololá	2	El tablón	9	Septiembre	2023-04-09T00:00:00	2024-11-06T13:00:00	4	Temperatura máxima	20.6
175779	7	Sololá	701	Sololá	2	El tablón	9	Septiembre	2023-04-09T00:00:00	2024-11-06T13:00:00	3	Temperatura mínima	19.7
175780	7	Sololá	701	Sololá	2	El tablón	9	Septiembre	2023-04-09T00:00:00	2024-11-06T13:00:00	5	Humedad	67
175781	7	Sololá	701	Sololá	2	El tablón	9	Septiembre	2023-04-09T00:00:00	2024-11-06T13:00:00	6	Velocidad del viento	6.4
175782	7	Sololá	701	Sololá	2	El tablón	9	Septiembre	2023-04-09T00:00:00	2024-11-06T13:00:00	7	Dirección del viento	6.44
175783	7	Sololá	701	Sololá	2	El tablón	9	Septiembre	2023-04-09T00:00:00	2024-11-06T13:00:00	1	Precipitación	0
175784	7	Sololá	701	Sololá	2	El tablón	9	Septiembre	2023-04-09T00:00:00	2024-11-06T13:00:00	8	Radiación solar	763
175785	7	Sololá	701	Sololá	2	El tablón	9	Septiembre	2023-04-09T00:00:00	2024-11-06T14:00:00	2	Temperatura media	16.9
175786	7	Sololá	701	Sololá	2	El tablón	9	Septiembre	2023-04-09T00:00:00	2024-11-06T14:00:00	4	Temperatura máxima	20.1
175787	7	Sololá	701	Sololá	2	El tablón	9	Septiembre	2023-04-09T00:00:00	2024-11-06T14:00:00	3	Temperatura mínima	16.9
175788	7	Sololá	701	Sololá	2	El tablón	9	Septiembre	2023-04-09T00:00:00	2024-11-06T14:00:00	5	Humedad	87
175789	7	Sololá	701	Sololá	2	El tablón	9	Septiembre	2023-04-09T00:00:00	2024-11-06T14:00:00	6	Velocidad del viento	9.7
175790	7	Sololá	701	Sololá	2	El tablón	9	Septiembre	2023-04-09T00:00:00	2024-11-06T14:00:00	7	Dirección del viento	9.66
175791	7	Sololá	701	Sololá	2	El tablón	9	Septiembre	2023-04-09T00:00:00	2024-11-06T14:00:00	1	Precipitación	0
175792	7	Sololá	701	Sololá	2	El tablón	9	Septiembre	2023-04-09T00:00:00	2024-11-06T14:00:00	8	Radiación solar	303
175793	7	Sololá	701	Sololá	2	El tablón	9	Septiembre	2023-04-09T00:00:00	2024-11-06T15:00:00	2	Temperatura media	15.8
175794	7	Sololá	701	Sololá	2	El tablón	9	Septiembre	2023-04-09T00:00:00	2024-11-06T15:00:00	4	Temperatura máxima	16.9
175795	7	Sololá	701	Sololá	2	El tablón	9	Septiembre	2023-04-09T00:00:00	2024-11-06T15:00:00	3	Temperatura mínima	14.9
175796	7	Sololá	701	Sololá	2	El tablón	9	Septiembre	2023-04-09T00:00:00	2024-11-06T15:00:00	5	Humedad	88
175797	7	Sololá	701	Sololá	2	El tablón	9	Septiembre	2023-04-09T00:00:00	2024-11-06T15:00:00	6	Velocidad del viento	8
175798	7	Sololá	701	Sololá	2	El tablón	9	Septiembre	2023-04-09T00:00:00	2024-11-06T15:00:00	7	Dirección del viento	8.05
175799	7	Sololá	701	Sololá	2	El tablón	9	Septiembre	2023-04-09T00:00:00	2024-11-06T15:00:00	1	Precipitación	0
175800	7	Sololá	701	Sololá	2	El tablón	9	Septiembre	2023-04-09T00:00:00	2024-11-06T15:00:00	8	Radiación solar	196
175801	7	Sololá	701	Sololá	2	El tablón	9	Septiembre	2023-04-09T00:00:00	2024-11-06T16:00:00	2	Temperatura media	15
175802	7	Sololá	701	Sololá	2	El tablón	9	Septiembre	2023-04-09T00:00:00	2024-11-06T16:00:00	4	Temperatura máxima	16.2
175803	7	Sololá	701	Sololá	2	El tablón	9	Septiembre	2023-04-09T00:00:00	2024-11-06T16:00:00	3	Temperatura mínima	15
175804	7	Sololá	701	Sololá	2	El tablón	9	Septiembre	2023-04-09T00:00:00	2024-11-06T16:00:00	5	Humedad	88
175805	7	Sololá	701	Sololá	2	El tablón	9	Septiembre	2023-04-09T00:00:00	2024-11-06T16:00:00	6	Velocidad del viento	4.8
175806	7	Sololá	701	Sololá	2	El tablón	9	Septiembre	2023-04-09T00:00:00	2024-11-06T16:00:00	7	Dirección del viento	4.83
175807	7	Sololá	701	Sololá	2	El tablón	9	Septiembre	2023-04-09T00:00:00	2024-11-06T16:00:00	1	Precipitación	0.8
175808	7	Sololá	701	Sololá	2	El tablón	9	Septiembre	2023-04-09T00:00:00	2024-11-06T16:00:00	8	Radiación solar	199
175809	7	Sololá	701	Sololá	2	El tablón	9	Septiembre	2023-04-09T00:00:00	2024-11-06T17:00:00	2	Temperatura media	13.6
175810	7	Sololá	701	Sololá	2	El tablón	9	Septiembre	2023-04-09T00:00:00	2024-11-06T17:00:00	4	Temperatura máxima	15
175811	7	Sololá	701	Sololá	2	El tablón	9	Septiembre	2023-04-09T00:00:00	2024-11-06T17:00:00	3	Temperatura mínima	13.6
175812	7	Sololá	701	Sololá	2	El tablón	9	Septiembre	2023-04-09T00:00:00	2024-11-06T17:00:00	5	Humedad	87
175813	7	Sololá	701	Sololá	2	El tablón	9	Septiembre	2023-04-09T00:00:00	2024-11-06T17:00:00	6	Velocidad del viento	6.4
175814	7	Sololá	701	Sololá	2	El tablón	9	Septiembre	2023-04-09T00:00:00	2024-11-06T17:00:00	7	Dirección del viento	6.44
175815	7	Sololá	701	Sololá	2	El tablón	9	Septiembre	2023-04-09T00:00:00	2024-11-06T17:00:00	1	Precipitación	0.8
175816	7	Sololá	701	Sololá	2	El tablón	9	Septiembre	2023-04-09T00:00:00	2024-11-06T17:00:00	8	Radiación solar	36
175817	7	Sololá	701	Sololá	2	El tablón	9	Septiembre	2023-04-09T00:00:00	2024-11-06T18:00:00	2	Temperatura media	13.1
175818	7	Sololá	701	Sololá	2	El tablón	9	Septiembre	2023-04-09T00:00:00	2024-11-06T18:00:00	4	Temperatura máxima	13.7
175819	7	Sololá	701	Sololá	2	El tablón	9	Septiembre	2023-04-09T00:00:00	2024-11-06T18:00:00	3	Temperatura mínima	13.1
175820	7	Sololá	701	Sololá	2	El tablón	9	Septiembre	2023-04-09T00:00:00	2024-11-06T18:00:00	5	Humedad	86
175821	7	Sololá	701	Sololá	2	El tablón	9	Septiembre	2023-04-09T00:00:00	2024-11-06T18:00:00	6	Velocidad del viento	3.2
175822	7	Sololá	701	Sololá	2	El tablón	9	Septiembre	2023-04-09T00:00:00	2024-11-06T18:00:00	7	Dirección del viento	3.22
175823	7	Sololá	701	Sololá	2	El tablón	9	Septiembre	2023-04-09T00:00:00	2024-11-06T18:00:00	1	Precipitación	3.8
175824	7	Sololá	701	Sololá	2	El tablón	9	Septiembre	2023-04-09T00:00:00	2024-11-06T18:00:00	8	Radiación solar	14
175825	7	Sololá	701	Sololá	2	El tablón	9	Septiembre	2023-04-09T00:00:00	2024-11-06T19:00:00	2	Temperatura media	13.2
175826	7	Sololá	701	Sololá	2	El tablón	9	Septiembre	2023-04-09T00:00:00	2024-11-06T19:00:00	4	Temperatura máxima	13.2
175827	7	Sololá	701	Sololá	2	El tablón	9	Septiembre	2023-04-09T00:00:00	2024-11-06T19:00:00	3	Temperatura mínima	13.1
175828	7	Sololá	701	Sololá	2	El tablón	9	Septiembre	2023-04-09T00:00:00	2024-11-06T19:00:00	5	Humedad	86
175829	7	Sololá	701	Sololá	2	El tablón	9	Septiembre	2023-04-09T00:00:00	2024-11-06T19:00:00	6	Velocidad del viento	1.6
175830	7	Sololá	701	Sololá	2	El tablón	9	Septiembre	2023-04-09T00:00:00	2024-11-06T19:00:00	7	Dirección del viento	1.61
175831	7	Sololá	701	Sololá	2	El tablón	9	Septiembre	2023-04-09T00:00:00	2024-11-06T19:00:00	1	Precipitación	3.2
175832	7	Sololá	701	Sololá	2	El tablón	9	Septiembre	2023-04-09T00:00:00	2024-11-06T19:00:00	8	Radiación solar	0
175833	7	Sololá	701	Sololá	2	El tablón	9	Septiembre	2023-04-09T00:00:00	2024-11-06T20:00:00	2	Temperatura media	13.2
175834	7	Sololá	701	Sololá	2	El tablón	9	Septiembre	2023-04-09T00:00:00	2024-11-06T20:00:00	4	Temperatura máxima	13.3
175835	7	Sololá	701	Sololá	2	El tablón	9	Septiembre	2023-04-09T00:00:00	2024-11-06T20:00:00	3	Temperatura mínima	13.1
175836	7	Sololá	701	Sololá	2	El tablón	9	Septiembre	2023-04-09T00:00:00	2024-11-06T20:00:00	5	Humedad	86
175837	7	Sololá	701	Sololá	2	El tablón	9	Septiembre	2023-04-09T00:00:00	2024-11-06T20:00:00	6	Velocidad del viento	0
175838	7	Sololá	701	Sololá	2	El tablón	9	Septiembre	2023-04-09T00:00:00	2024-11-06T20:00:00	7	Dirección del viento	0
175839	7	Sololá	701	Sololá	2	El tablón	9	Septiembre	2023-04-09T00:00:00	2024-11-06T20:00:00	1	Precipitación	0.2
175840	7	Sololá	701	Sololá	2	El tablón	9	Septiembre	2023-04-09T00:00:00	2024-11-06T20:00:00	8	Radiación solar	0
175841	7	Sololá	701	Sololá	2	El tablón	9	Septiembre	2023-04-09T00:00:00	2024-11-06T21:00:00	2	Temperatura media	13.2
175842	7	Sololá	701	Sololá	2	El tablón	9	Septiembre	2023-04-09T00:00:00	2024-11-06T21:00:00	4	Temperatura máxima	13.3
175843	7	Sololá	701	Sololá	2	El tablón	9	Septiembre	2023-04-09T00:00:00	2024-11-06T21:00:00	3	Temperatura mínima	13.1
175844	7	Sololá	701	Sololá	2	El tablón	9	Septiembre	2023-04-09T00:00:00	2024-11-06T21:00:00	5	Humedad	87
175845	7	Sololá	701	Sololá	2	El tablón	9	Septiembre	2023-04-09T00:00:00	2024-11-06T21:00:00	6	Velocidad del viento	0
175846	7	Sololá	701	Sololá	2	El tablón	9	Septiembre	2023-04-09T00:00:00	2024-11-06T21:00:00	7	Dirección del viento	0
175847	7	Sololá	701	Sololá	2	El tablón	9	Septiembre	2023-04-09T00:00:00	2024-11-06T21:00:00	1	Precipitación	0.8
175848	7	Sololá	701	Sololá	2	El tablón	9	Septiembre	2023-04-09T00:00:00	2024-11-06T21:00:00	8	Radiación solar	0
175849	7	Sololá	701	Sololá	2	El tablón	9	Septiembre	2023-04-09T00:00:00	2024-11-06T22:00:00	2	Temperatura media	13.2
175850	7	Sololá	701	Sololá	2	El tablón	9	Septiembre	2023-04-09T00:00:00	2024-11-06T22:00:00	4	Temperatura máxima	13.3
175851	7	Sololá	701	Sololá	2	El tablón	9	Septiembre	2023-04-09T00:00:00	2024-11-06T22:00:00	3	Temperatura mínima	13.1
175852	7	Sololá	701	Sololá	2	El tablón	9	Septiembre	2023-04-09T00:00:00	2024-11-06T22:00:00	5	Humedad	87
175853	7	Sololá	701	Sololá	2	El tablón	9	Septiembre	2023-04-09T00:00:00	2024-11-06T22:00:00	6	Velocidad del viento	0
175854	7	Sololá	701	Sololá	2	El tablón	9	Septiembre	2023-04-09T00:00:00	2024-11-06T22:00:00	7	Dirección del viento	0
175855	7	Sololá	701	Sololá	2	El tablón	9	Septiembre	2023-04-09T00:00:00	2024-11-06T22:00:00	1	Precipitación	0.2
175856	7	Sololá	701	Sololá	2	El tablón	9	Septiembre	2023-04-09T00:00:00	2024-11-06T22:00:00	8	Radiación solar	0
175857	7	Sololá	701	Sololá	2	El tablón	9	Septiembre	2023-04-09T00:00:00	2024-11-06T23:00:00	2	Temperatura media	12.8
175858	7	Sololá	701	Sololá	2	El tablón	9	Septiembre	2023-04-09T00:00:00	2024-11-06T23:00:00	4	Temperatura máxima	13.2
175859	7	Sololá	701	Sololá	2	El tablón	9	Septiembre	2023-04-09T00:00:00	2024-11-06T23:00:00	3	Temperatura mínima	12.8
175860	7	Sololá	701	Sololá	2	El tablón	9	Septiembre	2023-04-09T00:00:00	2024-11-06T23:00:00	5	Humedad	88
175861	7	Sololá	701	Sololá	2	El tablón	9	Septiembre	2023-04-09T00:00:00	2024-11-06T23:00:00	6	Velocidad del viento	1.6
175862	7	Sololá	701	Sololá	2	El tablón	9	Septiembre	2023-04-09T00:00:00	2024-11-06T23:00:00	7	Dirección del viento	1.61
175863	7	Sololá	701	Sololá	2	El tablón	9	Septiembre	2023-04-09T00:00:00	2024-11-06T23:00:00	1	Precipitación	0.2
175864	7	Sololá	701	Sololá	2	El tablón	9	Septiembre	2023-04-09T00:00:00	2024-11-06T23:00:00	8	Radiación solar	0
175865	7	Sololá	701	Sololá	2	El tablón	9	Septiembre	2023-05-09T00:00:00	2024-11-06T00:00:00	2	Temperatura media	12.9
175866	7	Sololá	701	Sololá	2	El tablón	9	Septiembre	2023-05-09T00:00:00	2024-11-06T00:00:00	4	Temperatura máxima	12.9
175867	7	Sololá	701	Sololá	2	El tablón	9	Septiembre	2023-05-09T00:00:00	2024-11-06T00:00:00	3	Temperatura mínima	12.8
175868	7	Sololá	701	Sololá	2	El tablón	9	Septiembre	2023-05-09T00:00:00	2024-11-06T00:00:00	5	Humedad	89
175869	7	Sololá	701	Sololá	2	El tablón	9	Septiembre	2023-05-09T00:00:00	2024-11-06T00:00:00	6	Velocidad del viento	1.6
175870	7	Sololá	701	Sololá	2	El tablón	9	Septiembre	2023-05-09T00:00:00	2024-11-06T00:00:00	7	Dirección del viento	1.61
175871	7	Sololá	701	Sololá	2	El tablón	9	Septiembre	2023-05-09T00:00:00	2024-11-06T00:00:00	1	Precipitación	0
175872	7	Sololá	701	Sololá	2	El tablón	9	Septiembre	2023-05-09T00:00:00	2024-11-06T00:00:00	8	Radiación solar	0
175873	7	Sololá	701	Sololá	2	El tablón	9	Septiembre	2023-05-09T00:00:00	2024-11-06T01:00:00	2	Temperatura media	12.4
175874	7	Sololá	701	Sololá	2	El tablón	9	Septiembre	2023-05-09T00:00:00	2024-11-06T01:00:00	4	Temperatura máxima	13
175875	7	Sololá	701	Sololá	2	El tablón	9	Septiembre	2023-05-09T00:00:00	2024-11-06T01:00:00	3	Temperatura mínima	12.4
175876	7	Sololá	701	Sololá	2	El tablón	9	Septiembre	2023-05-09T00:00:00	2024-11-06T01:00:00	5	Humedad	89
175877	7	Sololá	701	Sololá	2	El tablón	9	Septiembre	2023-05-09T00:00:00	2024-11-06T01:00:00	6	Velocidad del viento	3.2
175878	7	Sololá	701	Sololá	2	El tablón	9	Septiembre	2023-05-09T00:00:00	2024-11-06T01:00:00	7	Dirección del viento	3.22
175879	7	Sololá	701	Sololá	2	El tablón	9	Septiembre	2023-05-09T00:00:00	2024-11-06T01:00:00	1	Precipitación	0
175880	7	Sololá	701	Sololá	2	El tablón	9	Septiembre	2023-05-09T00:00:00	2024-11-06T01:00:00	8	Radiación solar	0
175881	7	Sololá	701	Sololá	2	El tablón	9	Septiembre	2023-05-09T00:00:00	2024-11-06T02:00:00	2	Temperatura media	12.3
175882	7	Sololá	701	Sololá	2	El tablón	9	Septiembre	2023-05-09T00:00:00	2024-11-06T02:00:00	4	Temperatura máxima	12.4
175883	7	Sololá	701	Sololá	2	El tablón	9	Septiembre	2023-05-09T00:00:00	2024-11-06T02:00:00	3	Temperatura mínima	12.3
175884	7	Sololá	701	Sololá	2	El tablón	9	Septiembre	2023-05-09T00:00:00	2024-11-06T02:00:00	5	Humedad	89
175885	7	Sololá	701	Sololá	2	El tablón	9	Septiembre	2023-05-09T00:00:00	2024-11-06T02:00:00	6	Velocidad del viento	1.6
175886	7	Sololá	701	Sololá	2	El tablón	9	Septiembre	2023-05-09T00:00:00	2024-11-06T02:00:00	7	Dirección del viento	1.61
175887	7	Sololá	701	Sololá	2	El tablón	9	Septiembre	2023-05-09T00:00:00	2024-11-06T02:00:00	1	Precipitación	0
175888	7	Sololá	701	Sololá	2	El tablón	9	Septiembre	2023-05-09T00:00:00	2024-11-06T02:00:00	8	Radiación solar	0
175889	7	Sololá	701	Sololá	2	El tablón	9	Septiembre	2023-05-09T00:00:00	2024-11-06T03:00:00	2	Temperatura media	11.7
175890	7	Sololá	701	Sololá	2	El tablón	9	Septiembre	2023-05-09T00:00:00	2024-11-06T03:00:00	4	Temperatura máxima	12.3
175891	7	Sololá	701	Sololá	2	El tablón	9	Septiembre	2023-05-09T00:00:00	2024-11-06T03:00:00	3	Temperatura mínima	11.7
175892	7	Sololá	701	Sololá	2	El tablón	9	Septiembre	2023-05-09T00:00:00	2024-11-06T03:00:00	5	Humedad	89
175893	7	Sololá	701	Sololá	2	El tablón	9	Septiembre	2023-05-09T00:00:00	2024-11-06T03:00:00	6	Velocidad del viento	3.2
175894	7	Sololá	701	Sololá	2	El tablón	9	Septiembre	2023-05-09T00:00:00	2024-11-06T03:00:00	7	Dirección del viento	3.22
175895	7	Sololá	701	Sololá	2	El tablón	9	Septiembre	2023-05-09T00:00:00	2024-11-06T03:00:00	1	Precipitación	0
175896	7	Sololá	701	Sololá	2	El tablón	9	Septiembre	2023-05-09T00:00:00	2024-11-06T03:00:00	8	Radiación solar	0
175897	7	Sololá	701	Sololá	2	El tablón	9	Septiembre	2023-05-09T00:00:00	2024-11-06T04:00:00	2	Temperatura media	11.4
175898	7	Sololá	701	Sololá	2	El tablón	9	Septiembre	2023-05-09T00:00:00	2024-11-06T04:00:00	4	Temperatura máxima	11.7
175899	7	Sololá	701	Sololá	2	El tablón	9	Septiembre	2023-05-09T00:00:00	2024-11-06T04:00:00	3	Temperatura mínima	11.2
175900	7	Sololá	701	Sololá	2	El tablón	9	Septiembre	2023-05-09T00:00:00	2024-11-06T04:00:00	5	Humedad	89
175901	7	Sololá	701	Sololá	2	El tablón	9	Septiembre	2023-05-09T00:00:00	2024-11-06T04:00:00	6	Velocidad del viento	3.2
175902	7	Sololá	701	Sololá	2	El tablón	9	Septiembre	2023-05-09T00:00:00	2024-11-06T04:00:00	7	Dirección del viento	3.22
175903	7	Sololá	701	Sololá	2	El tablón	9	Septiembre	2023-05-09T00:00:00	2024-11-06T04:00:00	1	Precipitación	0
175904	7	Sololá	701	Sololá	2	El tablón	9	Septiembre	2023-05-09T00:00:00	2024-11-06T04:00:00	8	Radiación solar	0
175905	7	Sololá	701	Sololá	2	El tablón	9	Septiembre	2023-05-09T00:00:00	2024-11-06T05:00:00	2	Temperatura media	10.6
175906	7	Sololá	701	Sololá	2	El tablón	9	Septiembre	2023-05-09T00:00:00	2024-11-06T05:00:00	4	Temperatura máxima	11.7
175907	7	Sololá	701	Sololá	2	El tablón	9	Septiembre	2023-05-09T00:00:00	2024-11-06T05:00:00	3	Temperatura mínima	10.6
175908	7	Sololá	701	Sololá	2	El tablón	9	Septiembre	2023-05-09T00:00:00	2024-11-06T05:00:00	5	Humedad	89
175909	7	Sololá	701	Sololá	2	El tablón	9	Septiembre	2023-05-09T00:00:00	2024-11-06T05:00:00	6	Velocidad del viento	3.2
175910	7	Sololá	701	Sololá	2	El tablón	9	Septiembre	2023-05-09T00:00:00	2024-11-06T05:00:00	7	Dirección del viento	3.22
175911	7	Sololá	701	Sololá	2	El tablón	9	Septiembre	2023-05-09T00:00:00	2024-11-06T05:00:00	1	Precipitación	0
175912	7	Sololá	701	Sololá	2	El tablón	9	Septiembre	2023-05-09T00:00:00	2024-11-06T05:00:00	8	Radiación solar	0
175913	7	Sololá	701	Sololá	2	El tablón	9	Septiembre	2023-05-09T00:00:00	2024-11-06T06:00:00	2	Temperatura media	11.1
175914	7	Sololá	701	Sololá	2	El tablón	9	Septiembre	2023-05-09T00:00:00	2024-11-06T06:00:00	4	Temperatura máxima	11.1
175915	7	Sololá	701	Sololá	2	El tablón	9	Septiembre	2023-05-09T00:00:00	2024-11-06T06:00:00	3	Temperatura mínima	10.6
175916	7	Sololá	701	Sololá	2	El tablón	9	Septiembre	2023-05-09T00:00:00	2024-11-06T06:00:00	5	Humedad	89
175917	7	Sololá	701	Sololá	2	El tablón	9	Septiembre	2023-05-09T00:00:00	2024-11-06T06:00:00	6	Velocidad del viento	1.6
175918	7	Sololá	701	Sololá	2	El tablón	9	Septiembre	2023-05-09T00:00:00	2024-11-06T06:00:00	7	Dirección del viento	1.61
175919	7	Sololá	701	Sololá	2	El tablón	9	Septiembre	2023-05-09T00:00:00	2024-11-06T06:00:00	1	Precipitación	0
175920	7	Sololá	701	Sololá	2	El tablón	9	Septiembre	2023-05-09T00:00:00	2024-11-06T06:00:00	8	Radiación solar	0
175921	7	Sololá	701	Sololá	2	El tablón	9	Septiembre	2023-05-09T00:00:00	2024-11-06T07:00:00	2	Temperatura media	12.9
175922	7	Sololá	701	Sololá	2	El tablón	9	Septiembre	2023-05-09T00:00:00	2024-11-06T07:00:00	4	Temperatura máxima	12.9
175923	7	Sololá	701	Sololá	2	El tablón	9	Septiembre	2023-05-09T00:00:00	2024-11-06T07:00:00	3	Temperatura mínima	10.9
175924	7	Sololá	701	Sololá	2	El tablón	9	Septiembre	2023-05-09T00:00:00	2024-11-06T07:00:00	5	Humedad	87
175925	7	Sololá	701	Sololá	2	El tablón	9	Septiembre	2023-05-09T00:00:00	2024-11-06T07:00:00	6	Velocidad del viento	3.2
175926	7	Sololá	701	Sololá	2	El tablón	9	Septiembre	2023-05-09T00:00:00	2024-11-06T07:00:00	7	Dirección del viento	3.22
175927	7	Sololá	701	Sololá	2	El tablón	9	Septiembre	2023-05-09T00:00:00	2024-11-06T07:00:00	1	Precipitación	0
175928	7	Sololá	701	Sololá	2	El tablón	9	Septiembre	2023-05-09T00:00:00	2024-11-06T07:00:00	8	Radiación solar	82
175929	7	Sololá	701	Sololá	2	El tablón	9	Septiembre	2023-05-09T00:00:00	2024-11-06T08:00:00	2	Temperatura media	16.8
175930	7	Sololá	701	Sololá	2	El tablón	9	Septiembre	2023-05-09T00:00:00	2024-11-06T08:00:00	4	Temperatura máxima	16.8
175931	7	Sololá	701	Sololá	2	El tablón	9	Septiembre	2023-05-09T00:00:00	2024-11-06T08:00:00	3	Temperatura mínima	12.9
175932	7	Sololá	701	Sololá	2	El tablón	9	Septiembre	2023-05-09T00:00:00	2024-11-06T08:00:00	5	Humedad	75
175933	7	Sololá	701	Sololá	2	El tablón	9	Septiembre	2023-05-09T00:00:00	2024-11-06T08:00:00	6	Velocidad del viento	3.2
175934	7	Sololá	701	Sololá	2	El tablón	9	Septiembre	2023-05-09T00:00:00	2024-11-06T08:00:00	7	Dirección del viento	3.22
175935	7	Sololá	701	Sololá	2	El tablón	9	Septiembre	2023-05-09T00:00:00	2024-11-06T08:00:00	1	Precipitación	0
175936	7	Sololá	701	Sololá	2	El tablón	9	Septiembre	2023-05-09T00:00:00	2024-11-06T08:00:00	8	Radiación solar	306
175937	7	Sololá	701	Sololá	2	El tablón	9	Septiembre	2023-05-09T00:00:00	2024-11-06T09:00:00	2	Temperatura media	18
175938	7	Sololá	701	Sololá	2	El tablón	9	Septiembre	2023-05-09T00:00:00	2024-11-06T09:00:00	4	Temperatura máxima	18
175939	7	Sololá	701	Sololá	2	El tablón	9	Septiembre	2023-05-09T00:00:00	2024-11-06T09:00:00	3	Temperatura mínima	16.7
175940	7	Sololá	701	Sololá	2	El tablón	9	Septiembre	2023-05-09T00:00:00	2024-11-06T09:00:00	5	Humedad	75
175941	7	Sololá	701	Sololá	2	El tablón	9	Septiembre	2023-05-09T00:00:00	2024-11-06T09:00:00	6	Velocidad del viento	4.8
175942	7	Sololá	701	Sololá	2	El tablón	9	Septiembre	2023-05-09T00:00:00	2024-11-06T09:00:00	7	Dirección del viento	4.83
175943	7	Sololá	701	Sololá	2	El tablón	9	Septiembre	2023-05-09T00:00:00	2024-11-06T09:00:00	1	Precipitación	0
175944	7	Sololá	701	Sololá	2	El tablón	9	Septiembre	2023-05-09T00:00:00	2024-11-06T09:00:00	8	Radiación solar	485
175945	7	Sololá	701	Sololá	2	El tablón	9	Septiembre	2023-05-09T00:00:00	2024-11-06T10:00:00	2	Temperatura media	18.2
175946	7	Sololá	701	Sololá	2	El tablón	9	Septiembre	2023-05-09T00:00:00	2024-11-06T10:00:00	4	Temperatura máxima	18.2
175947	7	Sololá	701	Sololá	2	El tablón	9	Septiembre	2023-05-09T00:00:00	2024-11-06T10:00:00	3	Temperatura mínima	17.7
175948	7	Sololá	701	Sololá	2	El tablón	9	Septiembre	2023-05-09T00:00:00	2024-11-06T10:00:00	5	Humedad	78
175949	7	Sololá	701	Sololá	2	El tablón	9	Septiembre	2023-05-09T00:00:00	2024-11-06T10:00:00	6	Velocidad del viento	6.4
175950	7	Sololá	701	Sololá	2	El tablón	9	Septiembre	2023-05-09T00:00:00	2024-11-06T10:00:00	7	Dirección del viento	6.44
175951	7	Sololá	701	Sololá	2	El tablón	9	Septiembre	2023-05-09T00:00:00	2024-11-06T10:00:00	1	Precipitación	0
175952	7	Sololá	701	Sololá	2	El tablón	9	Septiembre	2023-05-09T00:00:00	2024-11-06T10:00:00	8	Radiación solar	653
175953	7	Sololá	701	Sololá	2	El tablón	9	Septiembre	2023-05-09T00:00:00	2024-11-06T11:00:00	2	Temperatura media	18.4
175954	7	Sololá	701	Sololá	2	El tablón	9	Septiembre	2023-05-09T00:00:00	2024-11-06T11:00:00	4	Temperatura máxima	18.4
175955	7	Sololá	701	Sololá	2	El tablón	9	Septiembre	2023-05-09T00:00:00	2024-11-06T11:00:00	3	Temperatura mínima	17.4
175956	7	Sololá	701	Sololá	2	El tablón	9	Septiembre	2023-05-09T00:00:00	2024-11-06T11:00:00	5	Humedad	79
175957	7	Sololá	701	Sololá	2	El tablón	9	Septiembre	2023-05-09T00:00:00	2024-11-06T11:00:00	6	Velocidad del viento	6.4
175958	7	Sololá	701	Sololá	2	El tablón	9	Septiembre	2023-05-09T00:00:00	2024-11-06T11:00:00	7	Dirección del viento	6.44
175959	7	Sololá	701	Sololá	2	El tablón	9	Septiembre	2023-05-09T00:00:00	2024-11-06T11:00:00	1	Precipitación	0
175960	7	Sololá	701	Sololá	2	El tablón	9	Septiembre	2023-05-09T00:00:00	2024-11-06T11:00:00	8	Radiación solar	634
175961	7	Sololá	701	Sololá	2	El tablón	9	Septiembre	2023-05-09T00:00:00	2024-11-06T12:00:00	2	Temperatura media	17.1
175962	7	Sololá	701	Sololá	2	El tablón	9	Septiembre	2023-05-09T00:00:00	2024-11-06T12:00:00	4	Temperatura máxima	18.7
175963	7	Sololá	701	Sololá	2	El tablón	9	Septiembre	2023-05-09T00:00:00	2024-11-06T12:00:00	3	Temperatura mínima	17.1
175964	7	Sololá	701	Sololá	2	El tablón	9	Septiembre	2023-05-09T00:00:00	2024-11-06T12:00:00	5	Humedad	85
175965	7	Sololá	701	Sololá	2	El tablón	9	Septiembre	2023-05-09T00:00:00	2024-11-06T12:00:00	6	Velocidad del viento	6.4
175966	7	Sololá	701	Sololá	2	El tablón	9	Septiembre	2023-05-09T00:00:00	2024-11-06T12:00:00	7	Dirección del viento	6.44
175967	7	Sololá	701	Sololá	2	El tablón	9	Septiembre	2023-05-09T00:00:00	2024-11-06T12:00:00	1	Precipitación	0
175968	7	Sololá	701	Sololá	2	El tablón	9	Septiembre	2023-05-09T00:00:00	2024-11-06T12:00:00	8	Radiación solar	672
175969	7	Sololá	701	Sololá	2	El tablón	9	Septiembre	2023-05-09T00:00:00	2024-11-06T13:00:00	2	Temperatura media	17.8
175970	7	Sololá	701	Sololá	2	El tablón	9	Septiembre	2023-05-09T00:00:00	2024-11-06T13:00:00	4	Temperatura máxima	17.9
175971	7	Sololá	701	Sololá	2	El tablón	9	Septiembre	2023-05-09T00:00:00	2024-11-06T13:00:00	3	Temperatura mínima	16.6
175972	7	Sololá	701	Sololá	2	El tablón	9	Septiembre	2023-05-09T00:00:00	2024-11-06T13:00:00	5	Humedad	84
175973	7	Sololá	701	Sololá	2	El tablón	9	Septiembre	2023-05-09T00:00:00	2024-11-06T13:00:00	6	Velocidad del viento	6.4
175974	7	Sololá	701	Sololá	2	El tablón	9	Septiembre	2023-05-09T00:00:00	2024-11-06T13:00:00	7	Dirección del viento	6.44
175975	7	Sololá	701	Sololá	2	El tablón	9	Septiembre	2023-05-09T00:00:00	2024-11-06T13:00:00	1	Precipitación	0
175976	7	Sololá	701	Sololá	2	El tablón	9	Septiembre	2023-05-09T00:00:00	2024-11-06T13:00:00	8	Radiación solar	500
175977	7	Sololá	701	Sololá	2	El tablón	9	Septiembre	2023-05-09T00:00:00	2024-11-06T14:00:00	2	Temperatura media	16.6
175978	7	Sololá	701	Sololá	2	El tablón	9	Septiembre	2023-05-09T00:00:00	2024-11-06T14:00:00	4	Temperatura máxima	18
175979	7	Sololá	701	Sololá	2	El tablón	9	Septiembre	2023-05-09T00:00:00	2024-11-06T14:00:00	3	Temperatura mínima	16.6
175980	7	Sololá	701	Sololá	2	El tablón	9	Septiembre	2023-05-09T00:00:00	2024-11-06T14:00:00	5	Humedad	87
175981	7	Sololá	701	Sololá	2	El tablón	9	Septiembre	2023-05-09T00:00:00	2024-11-06T14:00:00	6	Velocidad del viento	8
175982	7	Sololá	701	Sololá	2	El tablón	9	Septiembre	2023-05-09T00:00:00	2024-11-06T14:00:00	7	Dirección del viento	8.05
175983	7	Sololá	701	Sololá	2	El tablón	9	Septiembre	2023-05-09T00:00:00	2024-11-06T14:00:00	1	Precipitación	0.8
175984	7	Sololá	701	Sololá	2	El tablón	9	Septiembre	2023-05-09T00:00:00	2024-11-06T14:00:00	8	Radiación solar	351
175985	7	Sololá	701	Sololá	2	El tablón	9	Septiembre	2023-05-09T00:00:00	2024-11-06T15:00:00	2	Temperatura media	13.9
175986	7	Sololá	701	Sololá	2	El tablón	9	Septiembre	2023-05-09T00:00:00	2024-11-06T15:00:00	4	Temperatura máxima	16.6
175987	7	Sololá	701	Sololá	2	El tablón	9	Septiembre	2023-05-09T00:00:00	2024-11-06T15:00:00	3	Temperatura mínima	13.6
175988	7	Sololá	701	Sololá	2	El tablón	9	Septiembre	2023-05-09T00:00:00	2024-11-06T15:00:00	5	Humedad	88
175989	7	Sololá	701	Sololá	2	El tablón	9	Septiembre	2023-05-09T00:00:00	2024-11-06T15:00:00	6	Velocidad del viento	6.4
175990	7	Sololá	701	Sololá	2	El tablón	9	Septiembre	2023-05-09T00:00:00	2024-11-06T15:00:00	7	Dirección del viento	6.44
175991	7	Sololá	701	Sololá	2	El tablón	9	Septiembre	2023-05-09T00:00:00	2024-11-06T15:00:00	1	Precipitación	6.8
175992	7	Sololá	701	Sololá	2	El tablón	9	Septiembre	2023-05-09T00:00:00	2024-11-06T15:00:00	8	Radiación solar	36
175993	7	Sololá	701	Sololá	2	El tablón	9	Septiembre	2023-05-09T00:00:00	2024-11-06T16:00:00	2	Temperatura media	13.7
175994	7	Sololá	701	Sololá	2	El tablón	9	Septiembre	2023-05-09T00:00:00	2024-11-06T16:00:00	4	Temperatura máxima	14.2
175995	7	Sololá	701	Sololá	2	El tablón	9	Septiembre	2023-05-09T00:00:00	2024-11-06T16:00:00	3	Temperatura mínima	13.7
175996	7	Sololá	701	Sololá	2	El tablón	9	Septiembre	2023-05-09T00:00:00	2024-11-06T16:00:00	5	Humedad	88
175997	7	Sololá	701	Sololá	2	El tablón	9	Septiembre	2023-05-09T00:00:00	2024-11-06T16:00:00	6	Velocidad del viento	1.6
175998	7	Sololá	701	Sololá	2	El tablón	9	Septiembre	2023-05-09T00:00:00	2024-11-06T16:00:00	7	Dirección del viento	1.61
175999	7	Sololá	701	Sololá	2	El tablón	9	Septiembre	2023-05-09T00:00:00	2024-11-06T16:00:00	1	Precipitación	0
176000	7	Sololá	701	Sololá	2	El tablón	9	Septiembre	2023-05-09T00:00:00	2024-11-06T16:00:00	8	Radiación solar	25
176001	7	Sololá	701	Sololá	2	El tablón	9	Septiembre	2023-05-09T00:00:00	2024-11-06T17:00:00	2	Temperatura media	13.6
176002	7	Sololá	701	Sololá	2	El tablón	9	Septiembre	2023-05-09T00:00:00	2024-11-06T17:00:00	4	Temperatura máxima	13.7
176003	7	Sololá	701	Sololá	2	El tablón	9	Septiembre	2023-05-09T00:00:00	2024-11-06T17:00:00	3	Temperatura mínima	13.5
176004	7	Sololá	701	Sololá	2	El tablón	9	Septiembre	2023-05-09T00:00:00	2024-11-06T17:00:00	5	Humedad	88
176005	7	Sololá	701	Sololá	2	El tablón	9	Septiembre	2023-05-09T00:00:00	2024-11-06T17:00:00	6	Velocidad del viento	3.2
176006	7	Sololá	701	Sololá	2	El tablón	9	Septiembre	2023-05-09T00:00:00	2024-11-06T17:00:00	7	Dirección del viento	3.22
176007	7	Sololá	701	Sololá	2	El tablón	9	Septiembre	2023-05-09T00:00:00	2024-11-06T17:00:00	1	Precipitación	0.6
176008	7	Sololá	701	Sololá	2	El tablón	9	Septiembre	2023-05-09T00:00:00	2024-11-06T17:00:00	8	Radiación solar	16
176009	7	Sololá	701	Sololá	2	El tablón	9	Septiembre	2023-05-09T00:00:00	2024-11-06T18:00:00	2	Temperatura media	13.2
176010	7	Sololá	701	Sololá	2	El tablón	9	Septiembre	2023-05-09T00:00:00	2024-11-06T18:00:00	4	Temperatura máxima	13.6
176011	7	Sololá	701	Sololá	2	El tablón	9	Septiembre	2023-05-09T00:00:00	2024-11-06T18:00:00	3	Temperatura mínima	13.2
176012	7	Sololá	701	Sololá	2	El tablón	9	Septiembre	2023-05-09T00:00:00	2024-11-06T18:00:00	5	Humedad	88
176013	7	Sololá	701	Sololá	2	El tablón	9	Septiembre	2023-05-09T00:00:00	2024-11-06T18:00:00	6	Velocidad del viento	1.6
176014	7	Sololá	701	Sololá	2	El tablón	9	Septiembre	2023-05-09T00:00:00	2024-11-06T18:00:00	7	Dirección del viento	1.61
176015	7	Sololá	701	Sololá	2	El tablón	9	Septiembre	2023-05-09T00:00:00	2024-11-06T18:00:00	1	Precipitación	0
176016	7	Sololá	701	Sololá	2	El tablón	9	Septiembre	2023-05-09T00:00:00	2024-11-06T18:00:00	8	Radiación solar	4
176017	7	Sololá	701	Sololá	2	El tablón	9	Septiembre	2023-05-09T00:00:00	2024-11-06T19:00:00	2	Temperatura media	12.9
176018	7	Sololá	701	Sololá	2	El tablón	9	Septiembre	2023-05-09T00:00:00	2024-11-06T19:00:00	4	Temperatura máxima	13.2
176019	7	Sololá	701	Sololá	2	El tablón	9	Septiembre	2023-05-09T00:00:00	2024-11-06T19:00:00	3	Temperatura mínima	12.6
176020	7	Sololá	701	Sololá	2	El tablón	9	Septiembre	2023-05-09T00:00:00	2024-11-06T19:00:00	5	Humedad	89
176021	7	Sololá	701	Sololá	2	El tablón	9	Septiembre	2023-05-09T00:00:00	2024-11-06T19:00:00	6	Velocidad del viento	4.8
176022	7	Sololá	701	Sololá	2	El tablón	9	Septiembre	2023-05-09T00:00:00	2024-11-06T19:00:00	7	Dirección del viento	4.83
176023	7	Sololá	701	Sololá	2	El tablón	9	Septiembre	2023-05-09T00:00:00	2024-11-06T19:00:00	1	Precipitación	0
176024	7	Sololá	701	Sololá	2	El tablón	9	Septiembre	2023-05-09T00:00:00	2024-11-06T19:00:00	8	Radiación solar	0
176025	7	Sololá	701	Sololá	2	El tablón	9	Septiembre	2023-05-09T00:00:00	2024-11-06T20:00:00	2	Temperatura media	13.5
176026	7	Sololá	701	Sololá	2	El tablón	9	Septiembre	2023-05-09T00:00:00	2024-11-06T20:00:00	4	Temperatura máxima	13.5
176027	7	Sololá	701	Sololá	2	El tablón	9	Septiembre	2023-05-09T00:00:00	2024-11-06T20:00:00	3	Temperatura mínima	12.9
176028	7	Sololá	701	Sololá	2	El tablón	9	Septiembre	2023-05-09T00:00:00	2024-11-06T20:00:00	5	Humedad	88
176029	7	Sololá	701	Sololá	2	El tablón	9	Septiembre	2023-05-09T00:00:00	2024-11-06T20:00:00	6	Velocidad del viento	6.4
176030	7	Sololá	701	Sololá	2	El tablón	9	Septiembre	2023-05-09T00:00:00	2024-11-06T20:00:00	7	Dirección del viento	6.44
176031	7	Sololá	701	Sololá	2	El tablón	9	Septiembre	2023-05-09T00:00:00	2024-11-06T20:00:00	1	Precipitación	0.2
176032	7	Sololá	701	Sololá	2	El tablón	9	Septiembre	2023-05-09T00:00:00	2024-11-06T20:00:00	8	Radiación solar	0
176033	7	Sololá	701	Sololá	2	El tablón	9	Septiembre	2023-05-09T00:00:00	2024-11-06T21:00:00	2	Temperatura media	13.3
176034	7	Sololá	701	Sololá	2	El tablón	9	Septiembre	2023-05-09T00:00:00	2024-11-06T21:00:00	4	Temperatura máxima	13.6
176035	7	Sololá	701	Sololá	2	El tablón	9	Septiembre	2023-05-09T00:00:00	2024-11-06T21:00:00	3	Temperatura mínima	13.3
176036	7	Sololá	701	Sololá	2	El tablón	9	Septiembre	2023-05-09T00:00:00	2024-11-06T21:00:00	5	Humedad	89
176037	7	Sololá	701	Sololá	2	El tablón	9	Septiembre	2023-05-09T00:00:00	2024-11-06T21:00:00	6	Velocidad del viento	4.8
176038	7	Sololá	701	Sololá	2	El tablón	9	Septiembre	2023-05-09T00:00:00	2024-11-06T21:00:00	7	Dirección del viento	4.83
176039	7	Sololá	701	Sololá	2	El tablón	9	Septiembre	2023-05-09T00:00:00	2024-11-06T21:00:00	1	Precipitación	0
176040	7	Sololá	701	Sololá	2	El tablón	9	Septiembre	2023-05-09T00:00:00	2024-11-06T21:00:00	8	Radiación solar	0
176041	7	Sololá	701	Sololá	2	El tablón	9	Septiembre	2023-05-09T00:00:00	2024-11-06T22:00:00	2	Temperatura media	13.3
176042	7	Sololá	701	Sololá	2	El tablón	9	Septiembre	2023-05-09T00:00:00	2024-11-06T22:00:00	4	Temperatura máxima	13.6
176043	7	Sololá	701	Sololá	2	El tablón	9	Septiembre	2023-05-09T00:00:00	2024-11-06T22:00:00	3	Temperatura mínima	13.3
176044	7	Sololá	701	Sololá	2	El tablón	9	Septiembre	2023-05-09T00:00:00	2024-11-06T22:00:00	5	Humedad	88
176045	7	Sololá	701	Sololá	2	El tablón	9	Septiembre	2023-05-09T00:00:00	2024-11-06T22:00:00	6	Velocidad del viento	6.4
176046	7	Sololá	701	Sololá	2	El tablón	9	Septiembre	2023-05-09T00:00:00	2024-11-06T22:00:00	7	Dirección del viento	6.44
176047	7	Sololá	701	Sololá	2	El tablón	9	Septiembre	2023-05-09T00:00:00	2024-11-06T22:00:00	1	Precipitación	0
176048	7	Sololá	701	Sololá	2	El tablón	9	Septiembre	2023-05-09T00:00:00	2024-11-06T22:00:00	8	Radiación solar	0
176049	7	Sololá	701	Sololá	2	El tablón	9	Septiembre	2023-05-09T00:00:00	2024-11-06T23:00:00	2	Temperatura media	13.2
176050	7	Sololá	701	Sololá	2	El tablón	9	Septiembre	2023-05-09T00:00:00	2024-11-06T23:00:00	4	Temperatura máxima	13.3
176051	7	Sololá	701	Sololá	2	El tablón	9	Septiembre	2023-05-09T00:00:00	2024-11-06T23:00:00	3	Temperatura mínima	12.9
176052	7	Sololá	701	Sololá	2	El tablón	9	Septiembre	2023-05-09T00:00:00	2024-11-06T23:00:00	5	Humedad	88
176053	7	Sololá	701	Sololá	2	El tablón	9	Septiembre	2023-05-09T00:00:00	2024-11-06T23:00:00	6	Velocidad del viento	4.8
176054	7	Sololá	701	Sololá	2	El tablón	9	Septiembre	2023-05-09T00:00:00	2024-11-06T23:00:00	7	Dirección del viento	4.83
176055	7	Sololá	701	Sololá	2	El tablón	9	Septiembre	2023-05-09T00:00:00	2024-11-06T23:00:00	1	Precipitación	0
176056	7	Sololá	701	Sololá	2	El tablón	9	Septiembre	2023-05-09T00:00:00	2024-11-06T23:00:00	8	Radiación solar	0
176057	7	Sololá	701	Sololá	2	El tablón	9	Septiembre	2023-06-09T00:00:00	2024-11-06T00:00:00	2	Temperatura media	13.1
176058	7	Sololá	701	Sololá	2	El tablón	9	Septiembre	2023-06-09T00:00:00	2024-11-06T00:00:00	4	Temperatura máxima	13.3
176059	7	Sololá	701	Sololá	2	El tablón	9	Septiembre	2023-06-09T00:00:00	2024-11-06T00:00:00	3	Temperatura mínima	13.1
176060	7	Sololá	701	Sololá	2	El tablón	9	Septiembre	2023-06-09T00:00:00	2024-11-06T00:00:00	5	Humedad	88
176061	7	Sololá	701	Sololá	2	El tablón	9	Septiembre	2023-06-09T00:00:00	2024-11-06T00:00:00	6	Velocidad del viento	6.4
176062	7	Sololá	701	Sololá	2	El tablón	9	Septiembre	2023-06-09T00:00:00	2024-11-06T00:00:00	7	Dirección del viento	6.44
176063	7	Sololá	701	Sololá	2	El tablón	9	Septiembre	2023-06-09T00:00:00	2024-11-06T00:00:00	1	Precipitación	0
176064	7	Sololá	701	Sololá	2	El tablón	9	Septiembre	2023-06-09T00:00:00	2024-11-06T00:00:00	8	Radiación solar	0
176065	7	Sololá	701	Sololá	2	El tablón	9	Septiembre	2023-06-09T00:00:00	2024-11-06T01:00:00	2	Temperatura media	13.2
176066	7	Sololá	701	Sololá	2	El tablón	9	Septiembre	2023-06-09T00:00:00	2024-11-06T01:00:00	4	Temperatura máxima	13.2
176067	7	Sololá	701	Sololá	2	El tablón	9	Septiembre	2023-06-09T00:00:00	2024-11-06T01:00:00	3	Temperatura mínima	13.1
176068	7	Sololá	701	Sololá	2	El tablón	9	Septiembre	2023-06-09T00:00:00	2024-11-06T01:00:00	5	Humedad	88
176069	7	Sololá	701	Sololá	2	El tablón	9	Septiembre	2023-06-09T00:00:00	2024-11-06T01:00:00	6	Velocidad del viento	8
176070	7	Sololá	701	Sololá	2	El tablón	9	Septiembre	2023-06-09T00:00:00	2024-11-06T01:00:00	7	Dirección del viento	8.05
176071	7	Sololá	701	Sololá	2	El tablón	9	Septiembre	2023-06-09T00:00:00	2024-11-06T01:00:00	1	Precipitación	0
176072	7	Sololá	701	Sololá	2	El tablón	9	Septiembre	2023-06-09T00:00:00	2024-11-06T01:00:00	8	Radiación solar	0
176073	7	Sololá	701	Sololá	2	El tablón	9	Septiembre	2023-06-09T00:00:00	2024-11-06T02:00:00	2	Temperatura media	13.1
176074	7	Sololá	701	Sololá	2	El tablón	9	Septiembre	2023-06-09T00:00:00	2024-11-06T02:00:00	4	Temperatura máxima	13.2
176075	7	Sololá	701	Sololá	2	El tablón	9	Septiembre	2023-06-09T00:00:00	2024-11-06T02:00:00	3	Temperatura mínima	13.1
176076	7	Sololá	701	Sololá	2	El tablón	9	Septiembre	2023-06-09T00:00:00	2024-11-06T02:00:00	5	Humedad	88
176077	7	Sololá	701	Sololá	2	El tablón	9	Septiembre	2023-06-09T00:00:00	2024-11-06T02:00:00	6	Velocidad del viento	4.8
176078	7	Sololá	701	Sololá	2	El tablón	9	Septiembre	2023-06-09T00:00:00	2024-11-06T02:00:00	7	Dirección del viento	4.83
176079	7	Sololá	701	Sololá	2	El tablón	9	Septiembre	2023-06-09T00:00:00	2024-11-06T02:00:00	1	Precipitación	0
176080	7	Sololá	701	Sololá	2	El tablón	9	Septiembre	2023-06-09T00:00:00	2024-11-06T02:00:00	8	Radiación solar	0
176081	7	Sololá	701	Sololá	2	El tablón	9	Septiembre	2023-06-09T00:00:00	2024-11-06T03:00:00	2	Temperatura media	13.2
176082	7	Sololá	701	Sololá	2	El tablón	9	Septiembre	2023-06-09T00:00:00	2024-11-06T03:00:00	4	Temperatura máxima	13.2
176083	7	Sololá	701	Sololá	2	El tablón	9	Septiembre	2023-06-09T00:00:00	2024-11-06T03:00:00	3	Temperatura mínima	12.9
176084	7	Sololá	701	Sololá	2	El tablón	9	Septiembre	2023-06-09T00:00:00	2024-11-06T03:00:00	5	Humedad	87
176085	7	Sololá	701	Sololá	2	El tablón	9	Septiembre	2023-06-09T00:00:00	2024-11-06T03:00:00	6	Velocidad del viento	3.2
176086	7	Sololá	701	Sololá	2	El tablón	9	Septiembre	2023-06-09T00:00:00	2024-11-06T03:00:00	7	Dirección del viento	3.22
176087	7	Sololá	701	Sololá	2	El tablón	9	Septiembre	2023-06-09T00:00:00	2024-11-06T03:00:00	1	Precipitación	0
176088	7	Sololá	701	Sololá	2	El tablón	9	Septiembre	2023-06-09T00:00:00	2024-11-06T03:00:00	8	Radiación solar	0
176089	7	Sololá	701	Sololá	2	El tablón	9	Septiembre	2023-06-09T00:00:00	2024-11-06T04:00:00	2	Temperatura media	12.7
176090	7	Sololá	701	Sololá	2	El tablón	9	Septiembre	2023-06-09T00:00:00	2024-11-06T04:00:00	4	Temperatura máxima	13.3
176091	7	Sololá	701	Sololá	2	El tablón	9	Septiembre	2023-06-09T00:00:00	2024-11-06T04:00:00	3	Temperatura mínima	12.6
176092	7	Sololá	701	Sololá	2	El tablón	9	Septiembre	2023-06-09T00:00:00	2024-11-06T04:00:00	5	Humedad	88
176093	7	Sololá	701	Sololá	2	El tablón	9	Septiembre	2023-06-09T00:00:00	2024-11-06T04:00:00	6	Velocidad del viento	3.2
176094	7	Sololá	701	Sololá	2	El tablón	9	Septiembre	2023-06-09T00:00:00	2024-11-06T04:00:00	7	Dirección del viento	3.22
176095	7	Sololá	701	Sololá	2	El tablón	9	Septiembre	2023-06-09T00:00:00	2024-11-06T04:00:00	1	Precipitación	0
176096	7	Sololá	701	Sololá	2	El tablón	9	Septiembre	2023-06-09T00:00:00	2024-11-06T04:00:00	8	Radiación solar	0
176097	7	Sololá	701	Sololá	2	El tablón	9	Septiembre	2023-06-09T00:00:00	2024-11-06T05:00:00	2	Temperatura media	13.3
176098	7	Sololá	701	Sololá	2	El tablón	9	Septiembre	2023-06-09T00:00:00	2024-11-06T05:00:00	4	Temperatura máxima	13.3
176099	7	Sololá	701	Sololá	2	El tablón	9	Septiembre	2023-06-09T00:00:00	2024-11-06T05:00:00	3	Temperatura mínima	12.4
176100	7	Sololá	701	Sololá	2	El tablón	9	Septiembre	2023-06-09T00:00:00	2024-11-06T05:00:00	5	Humedad	86
176101	7	Sololá	701	Sololá	2	El tablón	9	Septiembre	2023-06-09T00:00:00	2024-11-06T05:00:00	6	Velocidad del viento	4.8
176102	7	Sololá	701	Sololá	2	El tablón	9	Septiembre	2023-06-09T00:00:00	2024-11-06T05:00:00	7	Dirección del viento	4.83
176103	7	Sololá	701	Sololá	2	El tablón	9	Septiembre	2023-06-09T00:00:00	2024-11-06T05:00:00	1	Precipitación	0
176104	7	Sololá	701	Sololá	2	El tablón	9	Septiembre	2023-06-09T00:00:00	2024-11-06T05:00:00	8	Radiación solar	0
176105	7	Sololá	701	Sololá	2	El tablón	9	Septiembre	2023-06-09T00:00:00	2024-11-06T06:00:00	2	Temperatura media	13.2
176106	7	Sololá	701	Sololá	2	El tablón	9	Septiembre	2023-06-09T00:00:00	2024-11-06T06:00:00	4	Temperatura máxima	13.4
176107	7	Sololá	701	Sololá	2	El tablón	9	Septiembre	2023-06-09T00:00:00	2024-11-06T06:00:00	3	Temperatura mínima	13.2
176108	7	Sololá	701	Sololá	2	El tablón	9	Septiembre	2023-06-09T00:00:00	2024-11-06T06:00:00	5	Humedad	85
176109	7	Sololá	701	Sololá	2	El tablón	9	Septiembre	2023-06-09T00:00:00	2024-11-06T06:00:00	6	Velocidad del viento	3.2
176110	7	Sololá	701	Sololá	2	El tablón	9	Septiembre	2023-06-09T00:00:00	2024-11-06T06:00:00	7	Dirección del viento	3.22
176111	7	Sololá	701	Sololá	2	El tablón	9	Septiembre	2023-06-09T00:00:00	2024-11-06T06:00:00	1	Precipitación	0
176112	7	Sololá	701	Sololá	2	El tablón	9	Septiembre	2023-06-09T00:00:00	2024-11-06T06:00:00	8	Radiación solar	0
176113	7	Sololá	701	Sololá	2	El tablón	9	Septiembre	2023-06-09T00:00:00	2024-11-06T07:00:00	2	Temperatura media	13.4
176114	7	Sololá	701	Sololá	2	El tablón	9	Septiembre	2023-06-09T00:00:00	2024-11-06T07:00:00	4	Temperatura máxima	13.4
176115	7	Sololá	701	Sololá	2	El tablón	9	Septiembre	2023-06-09T00:00:00	2024-11-06T07:00:00	3	Temperatura mínima	13.2
176116	7	Sololá	701	Sololá	2	El tablón	9	Septiembre	2023-06-09T00:00:00	2024-11-06T07:00:00	5	Humedad	85
176117	7	Sololá	701	Sololá	2	El tablón	9	Septiembre	2023-06-09T00:00:00	2024-11-06T07:00:00	6	Velocidad del viento	3.2
176118	7	Sololá	701	Sololá	2	El tablón	9	Septiembre	2023-06-09T00:00:00	2024-11-06T07:00:00	7	Dirección del viento	3.22
176119	7	Sololá	701	Sololá	2	El tablón	9	Septiembre	2023-06-09T00:00:00	2024-11-06T07:00:00	1	Precipitación	0
176120	7	Sololá	701	Sololá	2	El tablón	9	Septiembre	2023-06-09T00:00:00	2024-11-06T07:00:00	8	Radiación solar	42
176121	7	Sololá	701	Sololá	2	El tablón	9	Septiembre	2023-06-09T00:00:00	2024-11-06T08:00:00	2	Temperatura media	14.7
176122	7	Sololá	701	Sololá	2	El tablón	9	Septiembre	2023-06-09T00:00:00	2024-11-06T08:00:00	4	Temperatura máxima	14.7
176123	7	Sololá	701	Sololá	2	El tablón	9	Septiembre	2023-06-09T00:00:00	2024-11-06T08:00:00	3	Temperatura mínima	13.4
176124	7	Sololá	701	Sololá	2	El tablón	9	Septiembre	2023-06-09T00:00:00	2024-11-06T08:00:00	5	Humedad	83
176125	7	Sololá	701	Sololá	2	El tablón	9	Septiembre	2023-06-09T00:00:00	2024-11-06T08:00:00	6	Velocidad del viento	4.8
176126	7	Sololá	701	Sololá	2	El tablón	9	Septiembre	2023-06-09T00:00:00	2024-11-06T08:00:00	7	Dirección del viento	4.83
176127	7	Sololá	701	Sololá	2	El tablón	9	Septiembre	2023-06-09T00:00:00	2024-11-06T08:00:00	1	Precipitación	0
176128	7	Sololá	701	Sololá	2	El tablón	9	Septiembre	2023-06-09T00:00:00	2024-11-06T08:00:00	8	Radiación solar	183
176129	7	Sololá	701	Sololá	2	El tablón	9	Septiembre	2023-06-09T00:00:00	2024-11-06T09:00:00	2	Temperatura media	15.6
176130	7	Sololá	701	Sololá	2	El tablón	9	Septiembre	2023-06-09T00:00:00	2024-11-06T09:00:00	4	Temperatura máxima	15.6
176131	7	Sololá	701	Sololá	2	El tablón	9	Septiembre	2023-06-09T00:00:00	2024-11-06T09:00:00	3	Temperatura mínima	14.7
176132	7	Sololá	701	Sololá	2	El tablón	9	Septiembre	2023-06-09T00:00:00	2024-11-06T09:00:00	5	Humedad	80
176133	7	Sololá	701	Sololá	2	El tablón	9	Septiembre	2023-06-09T00:00:00	2024-11-06T09:00:00	6	Velocidad del viento	3.2
176134	7	Sololá	701	Sololá	2	El tablón	9	Septiembre	2023-06-09T00:00:00	2024-11-06T09:00:00	7	Dirección del viento	3.22
176135	7	Sololá	701	Sololá	2	El tablón	9	Septiembre	2023-06-09T00:00:00	2024-11-06T09:00:00	1	Precipitación	0
176136	7	Sololá	701	Sololá	2	El tablón	9	Septiembre	2023-06-09T00:00:00	2024-11-06T09:00:00	8	Radiación solar	211
176137	7	Sololá	701	Sololá	2	El tablón	9	Septiembre	2023-06-09T00:00:00	2024-11-06T10:00:00	2	Temperatura media	16.3
176138	7	Sololá	701	Sololá	2	El tablón	9	Septiembre	2023-06-09T00:00:00	2024-11-06T10:00:00	4	Temperatura máxima	16.7
176139	7	Sololá	701	Sololá	2	El tablón	9	Septiembre	2023-06-09T00:00:00	2024-11-06T10:00:00	3	Temperatura mínima	15.6
176140	7	Sololá	701	Sololá	2	El tablón	9	Septiembre	2023-06-09T00:00:00	2024-11-06T10:00:00	5	Humedad	80
176141	7	Sololá	701	Sololá	2	El tablón	9	Septiembre	2023-06-09T00:00:00	2024-11-06T10:00:00	6	Velocidad del viento	3.2
176142	7	Sololá	701	Sololá	2	El tablón	9	Septiembre	2023-06-09T00:00:00	2024-11-06T10:00:00	7	Dirección del viento	3.22
176143	7	Sololá	701	Sololá	2	El tablón	9	Septiembre	2023-06-09T00:00:00	2024-11-06T10:00:00	1	Precipitación	0
176144	7	Sololá	701	Sololá	2	El tablón	9	Septiembre	2023-06-09T00:00:00	2024-11-06T10:00:00	8	Radiación solar	331
176145	7	Sololá	701	Sololá	2	El tablón	9	Septiembre	2023-06-09T00:00:00	2024-11-06T11:00:00	2	Temperatura media	16.9
176146	7	Sololá	701	Sololá	2	El tablón	9	Septiembre	2023-06-09T00:00:00	2024-11-06T11:00:00	4	Temperatura máxima	16.9
176147	7	Sololá	701	Sololá	2	El tablón	9	Septiembre	2023-06-09T00:00:00	2024-11-06T11:00:00	3	Temperatura mínima	16.3
176148	7	Sololá	701	Sololá	2	El tablón	9	Septiembre	2023-06-09T00:00:00	2024-11-06T11:00:00	5	Humedad	80
176149	7	Sololá	701	Sololá	2	El tablón	9	Septiembre	2023-06-09T00:00:00	2024-11-06T11:00:00	6	Velocidad del viento	6.4
176150	7	Sololá	701	Sololá	2	El tablón	9	Septiembre	2023-06-09T00:00:00	2024-11-06T11:00:00	7	Dirección del viento	6.44
176151	7	Sololá	701	Sololá	2	El tablón	9	Septiembre	2023-06-09T00:00:00	2024-11-06T11:00:00	1	Precipitación	0
176152	7	Sololá	701	Sololá	2	El tablón	9	Septiembre	2023-06-09T00:00:00	2024-11-06T11:00:00	8	Radiación solar	429
176153	7	Sololá	701	Sololá	2	El tablón	9	Septiembre	2023-06-09T00:00:00	2024-11-06T12:00:00	2	Temperatura media	18.2
176154	7	Sololá	701	Sololá	2	El tablón	9	Septiembre	2023-06-09T00:00:00	2024-11-06T12:00:00	4	Temperatura máxima	18.2
176155	7	Sololá	701	Sololá	2	El tablón	9	Septiembre	2023-06-09T00:00:00	2024-11-06T12:00:00	3	Temperatura mínima	16.7
176156	7	Sololá	701	Sololá	2	El tablón	9	Septiembre	2023-06-09T00:00:00	2024-11-06T12:00:00	5	Humedad	80
176157	7	Sololá	701	Sololá	2	El tablón	9	Septiembre	2023-06-09T00:00:00	2024-11-06T12:00:00	6	Velocidad del viento	4.8
176158	7	Sololá	701	Sololá	2	El tablón	9	Septiembre	2023-06-09T00:00:00	2024-11-06T12:00:00	7	Dirección del viento	4.83
176159	7	Sololá	701	Sololá	2	El tablón	9	Septiembre	2023-06-09T00:00:00	2024-11-06T12:00:00	1	Precipitación	0
176160	7	Sololá	701	Sololá	2	El tablón	9	Septiembre	2023-06-09T00:00:00	2024-11-06T12:00:00	8	Radiación solar	555
176161	7	Sololá	701	Sololá	2	El tablón	9	Septiembre	2023-06-09T00:00:00	2024-11-06T13:00:00	2	Temperatura media	18.7
176162	7	Sololá	701	Sololá	2	El tablón	9	Septiembre	2023-06-09T00:00:00	2024-11-06T13:00:00	4	Temperatura máxima	18.9
176163	7	Sololá	701	Sololá	2	El tablón	9	Septiembre	2023-06-09T00:00:00	2024-11-06T13:00:00	3	Temperatura mínima	18.1
176164	7	Sololá	701	Sololá	2	El tablón	9	Septiembre	2023-06-09T00:00:00	2024-11-06T13:00:00	5	Humedad	77
176165	7	Sololá	701	Sololá	2	El tablón	9	Septiembre	2023-06-09T00:00:00	2024-11-06T13:00:00	6	Velocidad del viento	6.4
176166	7	Sololá	701	Sololá	2	El tablón	9	Septiembre	2023-06-09T00:00:00	2024-11-06T13:00:00	7	Dirección del viento	6.44
176167	7	Sololá	701	Sololá	2	El tablón	9	Septiembre	2023-06-09T00:00:00	2024-11-06T13:00:00	1	Precipitación	0
176168	7	Sololá	701	Sololá	2	El tablón	9	Septiembre	2023-06-09T00:00:00	2024-11-06T13:00:00	8	Radiación solar	512
176169	7	Sololá	701	Sololá	2	El tablón	9	Septiembre	2023-06-09T00:00:00	2024-11-06T14:00:00	2	Temperatura media	19.3
176170	7	Sololá	701	Sololá	2	El tablón	9	Septiembre	2023-06-09T00:00:00	2024-11-06T14:00:00	4	Temperatura máxima	19.7
176171	7	Sololá	701	Sololá	2	El tablón	9	Septiembre	2023-06-09T00:00:00	2024-11-06T14:00:00	3	Temperatura mínima	18.6
176172	7	Sololá	701	Sololá	2	El tablón	9	Septiembre	2023-06-09T00:00:00	2024-11-06T14:00:00	5	Humedad	76
176173	7	Sololá	701	Sololá	2	El tablón	9	Septiembre	2023-06-09T00:00:00	2024-11-06T14:00:00	6	Velocidad del viento	6.4
176174	7	Sololá	701	Sololá	2	El tablón	9	Septiembre	2023-06-09T00:00:00	2024-11-06T14:00:00	7	Dirección del viento	6.44
176175	7	Sololá	701	Sololá	2	El tablón	9	Septiembre	2023-06-09T00:00:00	2024-11-06T14:00:00	1	Precipitación	0
176176	7	Sololá	701	Sololá	2	El tablón	9	Septiembre	2023-06-09T00:00:00	2024-11-06T14:00:00	8	Radiación solar	698
176177	7	Sololá	701	Sololá	2	El tablón	9	Septiembre	2023-06-09T00:00:00	2024-11-06T15:00:00	2	Temperatura media	19.2
176178	7	Sololá	701	Sololá	2	El tablón	9	Septiembre	2023-06-09T00:00:00	2024-11-06T15:00:00	4	Temperatura máxima	19.5
176179	7	Sololá	701	Sololá	2	El tablón	9	Septiembre	2023-06-09T00:00:00	2024-11-06T15:00:00	3	Temperatura mínima	18.4
176180	7	Sololá	701	Sololá	2	El tablón	9	Septiembre	2023-06-09T00:00:00	2024-11-06T15:00:00	5	Humedad	79
176181	7	Sololá	701	Sololá	2	El tablón	9	Septiembre	2023-06-09T00:00:00	2024-11-06T15:00:00	6	Velocidad del viento	8
176182	7	Sololá	701	Sololá	2	El tablón	9	Septiembre	2023-06-09T00:00:00	2024-11-06T15:00:00	7	Dirección del viento	8.05
176183	7	Sololá	701	Sololá	2	El tablón	9	Septiembre	2023-06-09T00:00:00	2024-11-06T15:00:00	1	Precipitación	0
176184	7	Sololá	701	Sololá	2	El tablón	9	Septiembre	2023-06-09T00:00:00	2024-11-06T15:00:00	8	Radiación solar	722
176185	7	Sololá	701	Sololá	2	El tablón	9	Septiembre	2023-06-09T00:00:00	2024-11-06T16:00:00	2	Temperatura media	15.1
176186	7	Sololá	701	Sololá	2	El tablón	9	Septiembre	2023-06-09T00:00:00	2024-11-06T16:00:00	4	Temperatura máxima	19.6
176187	7	Sololá	701	Sololá	2	El tablón	9	Septiembre	2023-06-09T00:00:00	2024-11-06T16:00:00	3	Temperatura mínima	15
176188	7	Sololá	701	Sololá	2	El tablón	9	Septiembre	2023-06-09T00:00:00	2024-11-06T16:00:00	5	Humedad	86
176189	7	Sololá	701	Sololá	2	El tablón	9	Septiembre	2023-06-09T00:00:00	2024-11-06T16:00:00	6	Velocidad del viento	6.4
176190	7	Sololá	701	Sololá	2	El tablón	9	Septiembre	2023-06-09T00:00:00	2024-11-06T16:00:00	7	Dirección del viento	6.44
176191	7	Sololá	701	Sololá	2	El tablón	9	Septiembre	2023-06-09T00:00:00	2024-11-06T16:00:00	1	Precipitación	2.4
176192	7	Sololá	701	Sololá	2	El tablón	9	Septiembre	2023-06-09T00:00:00	2024-11-06T16:00:00	8	Radiación solar	151
176193	7	Sololá	701	Sololá	2	El tablón	9	Septiembre	2023-06-09T00:00:00	2024-11-06T17:00:00	2	Temperatura media	16
176194	7	Sololá	701	Sololá	2	El tablón	9	Septiembre	2023-06-09T00:00:00	2024-11-06T17:00:00	4	Temperatura máxima	16.1
176195	7	Sololá	701	Sololá	2	El tablón	9	Septiembre	2023-06-09T00:00:00	2024-11-06T17:00:00	3	Temperatura mínima	15.1
176196	7	Sololá	701	Sololá	2	El tablón	9	Septiembre	2023-06-09T00:00:00	2024-11-06T17:00:00	5	Humedad	87
176197	7	Sololá	701	Sololá	2	El tablón	9	Septiembre	2023-06-09T00:00:00	2024-11-06T17:00:00	6	Velocidad del viento	4.8
176198	7	Sololá	701	Sololá	2	El tablón	9	Septiembre	2023-06-09T00:00:00	2024-11-06T17:00:00	7	Dirección del viento	4.83
176199	7	Sololá	701	Sololá	2	El tablón	9	Septiembre	2023-06-09T00:00:00	2024-11-06T17:00:00	1	Precipitación	0.2
176200	7	Sololá	701	Sololá	2	El tablón	9	Septiembre	2023-06-09T00:00:00	2024-11-06T17:00:00	8	Radiación solar	96
176201	7	Sololá	701	Sololá	2	El tablón	9	Septiembre	2023-06-09T00:00:00	2024-11-06T18:00:00	2	Temperatura media	17.1
176202	7	Sololá	701	Sololá	2	El tablón	9	Septiembre	2023-06-09T00:00:00	2024-11-06T18:00:00	4	Temperatura máxima	17.3
176203	7	Sololá	701	Sololá	2	El tablón	9	Septiembre	2023-06-09T00:00:00	2024-11-06T18:00:00	3	Temperatura mínima	16
176204	7	Sololá	701	Sololá	2	El tablón	9	Septiembre	2023-06-09T00:00:00	2024-11-06T18:00:00	5	Humedad	84
176205	7	Sololá	701	Sololá	2	El tablón	9	Septiembre	2023-06-09T00:00:00	2024-11-06T18:00:00	6	Velocidad del viento	3.2
176206	7	Sololá	701	Sololá	2	El tablón	9	Septiembre	2023-06-09T00:00:00	2024-11-06T18:00:00	7	Dirección del viento	3.22
176207	7	Sololá	701	Sololá	2	El tablón	9	Septiembre	2023-06-09T00:00:00	2024-11-06T18:00:00	1	Precipitación	0
176208	7	Sololá	701	Sololá	2	El tablón	9	Septiembre	2023-06-09T00:00:00	2024-11-06T18:00:00	8	Radiación solar	198
176209	7	Sololá	701	Sololá	2	El tablón	9	Septiembre	2023-06-09T00:00:00	2024-11-06T19:00:00	2	Temperatura media	15.2
176210	7	Sololá	701	Sololá	2	El tablón	9	Septiembre	2023-06-09T00:00:00	2024-11-06T19:00:00	4	Temperatura máxima	17.1
176211	7	Sololá	701	Sololá	2	El tablón	9	Septiembre	2023-06-09T00:00:00	2024-11-06T19:00:00	3	Temperatura mínima	15.2
176212	7	Sololá	701	Sololá	2	El tablón	9	Septiembre	2023-06-09T00:00:00	2024-11-06T19:00:00	5	Humedad	87
176213	7	Sololá	701	Sololá	2	El tablón	9	Septiembre	2023-06-09T00:00:00	2024-11-06T19:00:00	6	Velocidad del viento	4.8
176214	7	Sololá	701	Sololá	2	El tablón	9	Septiembre	2023-06-09T00:00:00	2024-11-06T19:00:00	7	Dirección del viento	4.83
176215	7	Sololá	701	Sololá	2	El tablón	9	Septiembre	2023-06-09T00:00:00	2024-11-06T19:00:00	1	Precipitación	0
176216	7	Sololá	701	Sololá	2	El tablón	9	Septiembre	2023-06-09T00:00:00	2024-11-06T19:00:00	8	Radiación solar	0
176217	7	Sololá	701	Sololá	2	El tablón	9	Septiembre	2023-06-09T00:00:00	2024-11-06T20:00:00	2	Temperatura media	14.7
176218	7	Sololá	701	Sololá	2	El tablón	9	Septiembre	2023-06-09T00:00:00	2024-11-06T20:00:00	4	Temperatura máxima	15.2
176219	7	Sololá	701	Sololá	2	El tablón	9	Septiembre	2023-06-09T00:00:00	2024-11-06T20:00:00	3	Temperatura mínima	14.7
176220	7	Sololá	701	Sololá	2	El tablón	9	Septiembre	2023-06-09T00:00:00	2024-11-06T20:00:00	5	Humedad	86
176221	7	Sololá	701	Sololá	2	El tablón	9	Septiembre	2023-06-09T00:00:00	2024-11-06T20:00:00	6	Velocidad del viento	4.8
176222	7	Sololá	701	Sololá	2	El tablón	9	Septiembre	2023-06-09T00:00:00	2024-11-06T20:00:00	7	Dirección del viento	4.83
176223	7	Sololá	701	Sololá	2	El tablón	9	Septiembre	2023-06-09T00:00:00	2024-11-06T20:00:00	1	Precipitación	0
176224	7	Sololá	701	Sololá	2	El tablón	9	Septiembre	2023-06-09T00:00:00	2024-11-06T20:00:00	8	Radiación solar	0
176225	7	Sololá	701	Sololá	2	El tablón	9	Septiembre	2023-06-09T00:00:00	2024-11-06T21:00:00	2	Temperatura media	14.1
176226	7	Sololá	701	Sololá	2	El tablón	9	Septiembre	2023-06-09T00:00:00	2024-11-06T21:00:00	4	Temperatura máxima	14.7
176227	7	Sololá	701	Sololá	2	El tablón	9	Septiembre	2023-06-09T00:00:00	2024-11-06T21:00:00	3	Temperatura mínima	14.1
176228	7	Sololá	701	Sololá	2	El tablón	9	Septiembre	2023-06-09T00:00:00	2024-11-06T21:00:00	5	Humedad	88
176229	7	Sololá	701	Sololá	2	El tablón	9	Septiembre	2023-06-09T00:00:00	2024-11-06T21:00:00	6	Velocidad del viento	3.2
176230	7	Sololá	701	Sololá	2	El tablón	9	Septiembre	2023-06-09T00:00:00	2024-11-06T21:00:00	7	Dirección del viento	3.22
176231	7	Sololá	701	Sololá	2	El tablón	9	Septiembre	2023-06-09T00:00:00	2024-11-06T21:00:00	1	Precipitación	0
176232	7	Sololá	701	Sololá	2	El tablón	9	Septiembre	2023-06-09T00:00:00	2024-11-06T21:00:00	8	Radiación solar	0
176233	7	Sololá	701	Sololá	2	El tablón	9	Septiembre	2023-06-09T00:00:00	2024-11-06T22:00:00	2	Temperatura media	14.1
176234	7	Sololá	701	Sololá	2	El tablón	9	Septiembre	2023-06-09T00:00:00	2024-11-06T22:00:00	4	Temperatura máxima	14.3
176235	7	Sololá	701	Sololá	2	El tablón	9	Septiembre	2023-06-09T00:00:00	2024-11-06T22:00:00	3	Temperatura mínima	14
176236	7	Sololá	701	Sololá	2	El tablón	9	Septiembre	2023-06-09T00:00:00	2024-11-06T22:00:00	5	Humedad	88
176237	7	Sololá	701	Sololá	2	El tablón	9	Septiembre	2023-06-09T00:00:00	2024-11-06T22:00:00	6	Velocidad del viento	4.8
176238	7	Sololá	701	Sololá	2	El tablón	9	Septiembre	2023-06-09T00:00:00	2024-11-06T22:00:00	7	Dirección del viento	4.83
176239	7	Sololá	701	Sololá	2	El tablón	9	Septiembre	2023-06-09T00:00:00	2024-11-06T22:00:00	1	Precipitación	0
176240	7	Sololá	701	Sololá	2	El tablón	9	Septiembre	2023-06-09T00:00:00	2024-11-06T22:00:00	8	Radiación solar	0
176241	7	Sololá	701	Sololá	2	El tablón	9	Septiembre	2023-06-09T00:00:00	2024-11-06T23:00:00	2	Temperatura media	13.9
176242	7	Sololá	701	Sololá	2	El tablón	9	Septiembre	2023-06-09T00:00:00	2024-11-06T23:00:00	4	Temperatura máxima	14.2
176243	7	Sololá	701	Sololá	2	El tablón	9	Septiembre	2023-06-09T00:00:00	2024-11-06T23:00:00	3	Temperatura mínima	13.9
176244	7	Sololá	701	Sololá	2	El tablón	9	Septiembre	2023-06-09T00:00:00	2024-11-06T23:00:00	5	Humedad	88
176245	7	Sololá	701	Sololá	2	El tablón	9	Septiembre	2023-06-09T00:00:00	2024-11-06T23:00:00	6	Velocidad del viento	4.8
176246	7	Sololá	701	Sololá	2	El tablón	9	Septiembre	2023-06-09T00:00:00	2024-11-06T23:00:00	7	Dirección del viento	4.83
176247	7	Sololá	701	Sololá	2	El tablón	9	Septiembre	2023-06-09T00:00:00	2024-11-06T23:00:00	1	Precipitación	0
176248	7	Sololá	701	Sololá	2	El tablón	9	Septiembre	2023-06-09T00:00:00	2024-11-06T23:00:00	8	Radiación solar	0
176249	7	Sololá	701	Sololá	2	El tablón	9	Septiembre	2023-07-09T00:00:00	2024-11-06T00:00:00	2	Temperatura media	14.3
176250	7	Sololá	701	Sololá	2	El tablón	9	Septiembre	2023-07-09T00:00:00	2024-11-06T00:00:00	4	Temperatura máxima	14.3
176251	7	Sololá	701	Sololá	2	El tablón	9	Septiembre	2023-07-09T00:00:00	2024-11-06T00:00:00	3	Temperatura mínima	13.9
176252	7	Sololá	701	Sololá	2	El tablón	9	Septiembre	2023-07-09T00:00:00	2024-11-06T00:00:00	5	Humedad	87
176253	7	Sololá	701	Sololá	2	El tablón	9	Septiembre	2023-07-09T00:00:00	2024-11-06T00:00:00	6	Velocidad del viento	6.4
176254	7	Sololá	701	Sololá	2	El tablón	9	Septiembre	2023-07-09T00:00:00	2024-11-06T00:00:00	7	Dirección del viento	6.44
176255	7	Sololá	701	Sololá	2	El tablón	9	Septiembre	2023-07-09T00:00:00	2024-11-06T00:00:00	1	Precipitación	0
176256	7	Sololá	701	Sololá	2	El tablón	9	Septiembre	2023-07-09T00:00:00	2024-11-06T00:00:00	8	Radiación solar	0
176257	7	Sololá	701	Sololá	2	El tablón	9	Septiembre	2023-07-09T00:00:00	2024-11-06T01:00:00	2	Temperatura media	13.7
176258	7	Sololá	701	Sololá	2	El tablón	9	Septiembre	2023-07-09T00:00:00	2024-11-06T01:00:00	4	Temperatura máxima	14.3
176259	7	Sololá	701	Sololá	2	El tablón	9	Septiembre	2023-07-09T00:00:00	2024-11-06T01:00:00	3	Temperatura mínima	13.5
176260	7	Sololá	701	Sololá	2	El tablón	9	Septiembre	2023-07-09T00:00:00	2024-11-06T01:00:00	5	Humedad	88
176261	7	Sololá	701	Sololá	2	El tablón	9	Septiembre	2023-07-09T00:00:00	2024-11-06T01:00:00	6	Velocidad del viento	3.2
176262	7	Sololá	701	Sololá	2	El tablón	9	Septiembre	2023-07-09T00:00:00	2024-11-06T01:00:00	7	Dirección del viento	3.22
176263	7	Sololá	701	Sololá	2	El tablón	9	Septiembre	2023-07-09T00:00:00	2024-11-06T01:00:00	1	Precipitación	0
176264	7	Sololá	701	Sololá	2	El tablón	9	Septiembre	2023-07-09T00:00:00	2024-11-06T01:00:00	8	Radiación solar	0
176265	7	Sololá	701	Sololá	2	El tablón	9	Septiembre	2023-07-09T00:00:00	2024-11-06T02:00:00	2	Temperatura media	13.4
176266	7	Sololá	701	Sololá	2	El tablón	9	Septiembre	2023-07-09T00:00:00	2024-11-06T02:00:00	4	Temperatura máxima	13.8
176267	7	Sololá	701	Sololá	2	El tablón	9	Septiembre	2023-07-09T00:00:00	2024-11-06T02:00:00	3	Temperatura mínima	13.4
176268	7	Sololá	701	Sololá	2	El tablón	9	Septiembre	2023-07-09T00:00:00	2024-11-06T02:00:00	5	Humedad	88
176269	7	Sololá	701	Sololá	2	El tablón	9	Septiembre	2023-07-09T00:00:00	2024-11-06T02:00:00	6	Velocidad del viento	1.6
176270	7	Sololá	701	Sololá	2	El tablón	9	Septiembre	2023-07-09T00:00:00	2024-11-06T02:00:00	7	Dirección del viento	1.61
176271	7	Sololá	701	Sololá	2	El tablón	9	Septiembre	2023-07-09T00:00:00	2024-11-06T02:00:00	1	Precipitación	0
176272	7	Sololá	701	Sololá	2	El tablón	9	Septiembre	2023-07-09T00:00:00	2024-11-06T02:00:00	8	Radiación solar	0
176273	7	Sololá	701	Sololá	2	El tablón	9	Septiembre	2023-07-09T00:00:00	2024-11-06T03:00:00	2	Temperatura media	13.4
176274	7	Sololá	701	Sololá	2	El tablón	9	Septiembre	2023-07-09T00:00:00	2024-11-06T03:00:00	4	Temperatura máxima	13.6
176275	7	Sololá	701	Sololá	2	El tablón	9	Septiembre	2023-07-09T00:00:00	2024-11-06T03:00:00	3	Temperatura mínima	13.3
176276	7	Sololá	701	Sololá	2	El tablón	9	Septiembre	2023-07-09T00:00:00	2024-11-06T03:00:00	5	Humedad	88
176277	7	Sololá	701	Sololá	2	El tablón	9	Septiembre	2023-07-09T00:00:00	2024-11-06T03:00:00	6	Velocidad del viento	4.8
176278	7	Sololá	701	Sololá	2	El tablón	9	Septiembre	2023-07-09T00:00:00	2024-11-06T03:00:00	7	Dirección del viento	4.83
176279	7	Sololá	701	Sololá	2	El tablón	9	Septiembre	2023-07-09T00:00:00	2024-11-06T03:00:00	1	Precipitación	0
176280	7	Sololá	701	Sololá	2	El tablón	9	Septiembre	2023-07-09T00:00:00	2024-11-06T03:00:00	8	Radiación solar	0
176281	7	Sololá	701	Sololá	2	El tablón	9	Septiembre	2023-07-09T00:00:00	2024-11-06T04:00:00	2	Temperatura media	13.3
176282	7	Sololá	701	Sololá	2	El tablón	9	Septiembre	2023-07-09T00:00:00	2024-11-06T04:00:00	4	Temperatura máxima	13.4
176283	7	Sololá	701	Sololá	2	El tablón	9	Septiembre	2023-07-09T00:00:00	2024-11-06T04:00:00	3	Temperatura mínima	13.2
176284	7	Sololá	701	Sololá	2	El tablón	9	Septiembre	2023-07-09T00:00:00	2024-11-06T04:00:00	5	Humedad	88
176285	7	Sololá	701	Sololá	2	El tablón	9	Septiembre	2023-07-09T00:00:00	2024-11-06T04:00:00	6	Velocidad del viento	3.2
176286	7	Sololá	701	Sololá	2	El tablón	9	Septiembre	2023-07-09T00:00:00	2024-11-06T04:00:00	7	Dirección del viento	3.22
176287	7	Sololá	701	Sololá	2	El tablón	9	Septiembre	2023-07-09T00:00:00	2024-11-06T04:00:00	1	Precipitación	0
176288	7	Sololá	701	Sololá	2	El tablón	9	Septiembre	2023-07-09T00:00:00	2024-11-06T04:00:00	8	Radiación solar	0
176289	7	Sololá	701	Sololá	2	El tablón	9	Septiembre	2023-07-09T00:00:00	2024-11-06T05:00:00	2	Temperatura media	13.1
176290	7	Sololá	701	Sololá	2	El tablón	9	Septiembre	2023-07-09T00:00:00	2024-11-06T05:00:00	4	Temperatura máxima	13.4
176291	7	Sololá	701	Sololá	2	El tablón	9	Septiembre	2023-07-09T00:00:00	2024-11-06T05:00:00	3	Temperatura mínima	12.8
176292	7	Sololá	701	Sololá	2	El tablón	9	Septiembre	2023-07-09T00:00:00	2024-11-06T05:00:00	5	Humedad	89
176293	7	Sololá	701	Sololá	2	El tablón	9	Septiembre	2023-07-09T00:00:00	2024-11-06T05:00:00	6	Velocidad del viento	3.2
176294	7	Sololá	701	Sololá	2	El tablón	9	Septiembre	2023-07-09T00:00:00	2024-11-06T05:00:00	7	Dirección del viento	3.22
176295	7	Sololá	701	Sololá	2	El tablón	9	Septiembre	2023-07-09T00:00:00	2024-11-06T05:00:00	1	Precipitación	0
176296	7	Sololá	701	Sololá	2	El tablón	9	Septiembre	2023-07-09T00:00:00	2024-11-06T05:00:00	8	Radiación solar	0
176297	7	Sololá	701	Sololá	2	El tablón	9	Septiembre	2023-07-09T00:00:00	2024-11-06T06:00:00	2	Temperatura media	13.4
176298	7	Sololá	701	Sololá	2	El tablón	9	Septiembre	2023-07-09T00:00:00	2024-11-06T06:00:00	4	Temperatura máxima	13.4
176299	7	Sololá	701	Sololá	2	El tablón	9	Septiembre	2023-07-09T00:00:00	2024-11-06T06:00:00	3	Temperatura mínima	13.1
176300	7	Sololá	701	Sololá	2	El tablón	9	Septiembre	2023-07-09T00:00:00	2024-11-06T06:00:00	5	Humedad	88
176301	7	Sololá	701	Sololá	2	El tablón	9	Septiembre	2023-07-09T00:00:00	2024-11-06T06:00:00	6	Velocidad del viento	6.4
176302	7	Sololá	701	Sololá	2	El tablón	9	Septiembre	2023-07-09T00:00:00	2024-11-06T06:00:00	7	Dirección del viento	6.44
176303	7	Sololá	701	Sololá	2	El tablón	9	Septiembre	2023-07-09T00:00:00	2024-11-06T06:00:00	1	Precipitación	0
176304	7	Sololá	701	Sololá	2	El tablón	9	Septiembre	2023-07-09T00:00:00	2024-11-06T06:00:00	8	Radiación solar	0
176305	7	Sololá	701	Sololá	2	El tablón	9	Septiembre	2023-07-09T00:00:00	2024-11-06T07:00:00	2	Temperatura media	14.3
176306	7	Sololá	701	Sololá	2	El tablón	9	Septiembre	2023-07-09T00:00:00	2024-11-06T07:00:00	4	Temperatura máxima	14.3
176307	7	Sololá	701	Sololá	2	El tablón	9	Septiembre	2023-07-09T00:00:00	2024-11-06T07:00:00	3	Temperatura mínima	13.4
176308	7	Sololá	701	Sololá	2	El tablón	9	Septiembre	2023-07-09T00:00:00	2024-11-06T07:00:00	5	Humedad	88
176309	7	Sololá	701	Sololá	2	El tablón	9	Septiembre	2023-07-09T00:00:00	2024-11-06T07:00:00	6	Velocidad del viento	6.4
176310	7	Sololá	701	Sololá	2	El tablón	9	Septiembre	2023-07-09T00:00:00	2024-11-06T07:00:00	7	Dirección del viento	6.44
176311	7	Sololá	701	Sololá	2	El tablón	9	Septiembre	2023-07-09T00:00:00	2024-11-06T07:00:00	1	Precipitación	0
176312	7	Sololá	701	Sololá	2	El tablón	9	Septiembre	2023-07-09T00:00:00	2024-11-06T07:00:00	8	Radiación solar	66
176313	7	Sololá	701	Sololá	2	El tablón	9	Septiembre	2023-07-09T00:00:00	2024-11-06T08:00:00	2	Temperatura media	16.6
176314	7	Sololá	701	Sololá	2	El tablón	9	Septiembre	2023-07-09T00:00:00	2024-11-06T08:00:00	4	Temperatura máxima	16.6
176315	7	Sololá	701	Sololá	2	El tablón	9	Septiembre	2023-07-09T00:00:00	2024-11-06T08:00:00	3	Temperatura mínima	14.4
176316	7	Sololá	701	Sololá	2	El tablón	9	Septiembre	2023-07-09T00:00:00	2024-11-06T08:00:00	5	Humedad	84
176317	7	Sololá	701	Sololá	2	El tablón	9	Septiembre	2023-07-09T00:00:00	2024-11-06T08:00:00	6	Velocidad del viento	8
176318	7	Sololá	701	Sololá	2	El tablón	9	Septiembre	2023-07-09T00:00:00	2024-11-06T08:00:00	7	Dirección del viento	8.05
176319	7	Sololá	701	Sololá	2	El tablón	9	Septiembre	2023-07-09T00:00:00	2024-11-06T08:00:00	1	Precipitación	0
176320	7	Sololá	701	Sololá	2	El tablón	9	Septiembre	2023-07-09T00:00:00	2024-11-06T08:00:00	8	Radiación solar	300
176321	7	Sololá	701	Sololá	2	El tablón	9	Septiembre	2023-07-09T00:00:00	2024-11-06T09:00:00	2	Temperatura media	18
176322	7	Sololá	701	Sololá	2	El tablón	9	Septiembre	2023-07-09T00:00:00	2024-11-06T09:00:00	4	Temperatura máxima	18.1
176323	7	Sololá	701	Sololá	2	El tablón	9	Septiembre	2023-07-09T00:00:00	2024-11-06T09:00:00	3	Temperatura mínima	16.6
176324	7	Sololá	701	Sololá	2	El tablón	9	Septiembre	2023-07-09T00:00:00	2024-11-06T09:00:00	5	Humedad	76
176325	7	Sololá	701	Sololá	2	El tablón	9	Septiembre	2023-07-09T00:00:00	2024-11-06T09:00:00	6	Velocidad del viento	8
176326	7	Sololá	701	Sololá	2	El tablón	9	Septiembre	2023-07-09T00:00:00	2024-11-06T09:00:00	7	Dirección del viento	8.05
176327	7	Sololá	701	Sololá	2	El tablón	9	Septiembre	2023-07-09T00:00:00	2024-11-06T09:00:00	1	Precipitación	0
176328	7	Sololá	701	Sololá	2	El tablón	9	Septiembre	2023-07-09T00:00:00	2024-11-06T09:00:00	8	Radiación solar	495
176329	7	Sololá	701	Sololá	2	El tablón	9	Septiembre	2023-07-09T00:00:00	2024-11-06T10:00:00	2	Temperatura media	19.4
176330	7	Sololá	701	Sololá	2	El tablón	9	Septiembre	2023-07-09T00:00:00	2024-11-06T10:00:00	4	Temperatura máxima	19.4
176331	7	Sololá	701	Sololá	2	El tablón	9	Septiembre	2023-07-09T00:00:00	2024-11-06T10:00:00	3	Temperatura mínima	17.9
176332	7	Sololá	701	Sololá	2	El tablón	9	Septiembre	2023-07-09T00:00:00	2024-11-06T10:00:00	5	Humedad	65
176333	7	Sololá	701	Sololá	2	El tablón	9	Septiembre	2023-07-09T00:00:00	2024-11-06T10:00:00	6	Velocidad del viento	8
176334	7	Sololá	701	Sololá	2	El tablón	9	Septiembre	2023-07-09T00:00:00	2024-11-06T10:00:00	7	Dirección del viento	8.05
176335	7	Sololá	701	Sololá	2	El tablón	9	Septiembre	2023-07-09T00:00:00	2024-11-06T10:00:00	1	Precipitación	0
176336	7	Sololá	701	Sololá	2	El tablón	9	Septiembre	2023-07-09T00:00:00	2024-11-06T10:00:00	8	Radiación solar	647
176337	7	Sololá	701	Sololá	2	El tablón	9	Septiembre	2023-07-09T00:00:00	2024-11-06T11:00:00	2	Temperatura media	20.4
176338	7	Sololá	701	Sololá	2	El tablón	9	Septiembre	2023-07-09T00:00:00	2024-11-06T11:00:00	4	Temperatura máxima	20.6
176339	7	Sololá	701	Sololá	2	El tablón	9	Septiembre	2023-07-09T00:00:00	2024-11-06T11:00:00	3	Temperatura mínima	19.4
176340	7	Sololá	701	Sololá	2	El tablón	9	Septiembre	2023-07-09T00:00:00	2024-11-06T11:00:00	5	Humedad	57
176341	7	Sololá	701	Sololá	2	El tablón	9	Septiembre	2023-07-09T00:00:00	2024-11-06T11:00:00	6	Velocidad del viento	9.7
176342	7	Sololá	701	Sololá	2	El tablón	9	Septiembre	2023-07-09T00:00:00	2024-11-06T11:00:00	7	Dirección del viento	9.66
176343	7	Sololá	701	Sololá	2	El tablón	9	Septiembre	2023-07-09T00:00:00	2024-11-06T11:00:00	1	Precipitación	0
176344	7	Sololá	701	Sololá	2	El tablón	9	Septiembre	2023-07-09T00:00:00	2024-11-06T11:00:00	8	Radiación solar	734
176345	7	Sololá	701	Sololá	2	El tablón	9	Septiembre	2023-07-09T00:00:00	2024-11-06T12:00:00	2	Temperatura media	21.2
176346	7	Sololá	701	Sololá	2	El tablón	9	Septiembre	2023-07-09T00:00:00	2024-11-06T12:00:00	4	Temperatura máxima	21.6
176347	7	Sololá	701	Sololá	2	El tablón	9	Septiembre	2023-07-09T00:00:00	2024-11-06T12:00:00	3	Temperatura mínima	20.4
176348	7	Sololá	701	Sololá	2	El tablón	9	Septiembre	2023-07-09T00:00:00	2024-11-06T12:00:00	5	Humedad	56
176349	7	Sololá	701	Sololá	2	El tablón	9	Septiembre	2023-07-09T00:00:00	2024-11-06T12:00:00	6	Velocidad del viento	9.7
176350	7	Sololá	701	Sololá	2	El tablón	9	Septiembre	2023-07-09T00:00:00	2024-11-06T12:00:00	7	Dirección del viento	9.66
176351	7	Sololá	701	Sololá	2	El tablón	9	Septiembre	2023-07-09T00:00:00	2024-11-06T12:00:00	1	Precipitación	0
176352	7	Sololá	701	Sololá	2	El tablón	9	Septiembre	2023-07-09T00:00:00	2024-11-06T12:00:00	8	Radiación solar	838
176353	7	Sololá	701	Sololá	2	El tablón	9	Septiembre	2023-07-09T00:00:00	2024-11-06T13:00:00	2	Temperatura media	21.9
176354	7	Sololá	701	Sololá	2	El tablón	9	Septiembre	2023-07-09T00:00:00	2024-11-06T13:00:00	4	Temperatura máxima	22.3
176355	7	Sololá	701	Sololá	2	El tablón	9	Septiembre	2023-07-09T00:00:00	2024-11-06T13:00:00	3	Temperatura mínima	21.2
176356	7	Sololá	701	Sololá	2	El tablón	9	Septiembre	2023-07-09T00:00:00	2024-11-06T13:00:00	5	Humedad	59
176357	7	Sololá	701	Sololá	2	El tablón	9	Septiembre	2023-07-09T00:00:00	2024-11-06T13:00:00	6	Velocidad del viento	9.7
176358	7	Sololá	701	Sololá	2	El tablón	9	Septiembre	2023-07-09T00:00:00	2024-11-06T13:00:00	7	Dirección del viento	9.66
176359	7	Sololá	701	Sololá	2	El tablón	9	Septiembre	2023-07-09T00:00:00	2024-11-06T13:00:00	1	Precipitación	0
176360	7	Sololá	701	Sololá	2	El tablón	9	Septiembre	2023-07-09T00:00:00	2024-11-06T13:00:00	8	Radiación solar	876
176361	7	Sololá	701	Sololá	2	El tablón	9	Septiembre	2023-07-09T00:00:00	2024-11-06T14:00:00	2	Temperatura media	18.9
176362	7	Sololá	701	Sololá	2	El tablón	9	Septiembre	2023-07-09T00:00:00	2024-11-06T14:00:00	4	Temperatura máxima	22.5
176363	7	Sololá	701	Sololá	2	El tablón	9	Septiembre	2023-07-09T00:00:00	2024-11-06T14:00:00	3	Temperatura mínima	18.9
176364	7	Sololá	701	Sololá	2	El tablón	9	Septiembre	2023-07-09T00:00:00	2024-11-06T14:00:00	5	Humedad	85
176365	7	Sololá	701	Sololá	2	El tablón	9	Septiembre	2023-07-09T00:00:00	2024-11-06T14:00:00	6	Velocidad del viento	9.7
176366	7	Sololá	701	Sololá	2	El tablón	9	Septiembre	2023-07-09T00:00:00	2024-11-06T14:00:00	7	Dirección del viento	9.66
176367	7	Sololá	701	Sololá	2	El tablón	9	Septiembre	2023-07-09T00:00:00	2024-11-06T14:00:00	1	Precipitación	0
176368	7	Sololá	701	Sololá	2	El tablón	9	Septiembre	2023-07-09T00:00:00	2024-11-06T14:00:00	8	Radiación solar	860
176369	7	Sololá	701	Sololá	2	El tablón	9	Septiembre	2023-07-09T00:00:00	2024-11-06T15:00:00	2	Temperatura media	17.6
176370	7	Sololá	701	Sololá	2	El tablón	9	Septiembre	2023-07-09T00:00:00	2024-11-06T15:00:00	4	Temperatura máxima	18.8
176371	7	Sololá	701	Sololá	2	El tablón	9	Septiembre	2023-07-09T00:00:00	2024-11-06T15:00:00	3	Temperatura mínima	17.5
176372	7	Sololá	701	Sololá	2	El tablón	9	Septiembre	2023-07-09T00:00:00	2024-11-06T15:00:00	5	Humedad	87
176373	7	Sololá	701	Sololá	2	El tablón	9	Septiembre	2023-07-09T00:00:00	2024-11-06T15:00:00	6	Velocidad del viento	8
176374	7	Sololá	701	Sololá	2	El tablón	9	Septiembre	2023-07-09T00:00:00	2024-11-06T15:00:00	7	Dirección del viento	8.05
176375	7	Sololá	701	Sololá	2	El tablón	9	Septiembre	2023-07-09T00:00:00	2024-11-06T15:00:00	1	Precipitación	0
176376	7	Sololá	701	Sololá	2	El tablón	9	Septiembre	2023-07-09T00:00:00	2024-11-06T15:00:00	8	Radiación solar	378
176377	7	Sololá	701	Sololá	2	El tablón	9	Septiembre	2023-07-09T00:00:00	2024-11-06T16:00:00	2	Temperatura media	17.4
176378	7	Sololá	701	Sololá	2	El tablón	9	Septiembre	2023-07-09T00:00:00	2024-11-06T16:00:00	4	Temperatura máxima	17.8
176379	7	Sololá	701	Sololá	2	El tablón	9	Septiembre	2023-07-09T00:00:00	2024-11-06T16:00:00	3	Temperatura mínima	17.2
176380	7	Sololá	701	Sololá	2	El tablón	9	Septiembre	2023-07-09T00:00:00	2024-11-06T16:00:00	5	Humedad	87
176381	7	Sololá	701	Sololá	2	El tablón	9	Septiembre	2023-07-09T00:00:00	2024-11-06T16:00:00	6	Velocidad del viento	6.4
176382	7	Sololá	701	Sololá	2	El tablón	9	Septiembre	2023-07-09T00:00:00	2024-11-06T16:00:00	7	Dirección del viento	6.44
176383	7	Sololá	701	Sololá	2	El tablón	9	Septiembre	2023-07-09T00:00:00	2024-11-06T16:00:00	1	Precipitación	0
176384	7	Sololá	701	Sololá	2	El tablón	9	Septiembre	2023-07-09T00:00:00	2024-11-06T16:00:00	8	Radiación solar	253
176385	7	Sololá	701	Sololá	2	El tablón	9	Septiembre	2023-07-09T00:00:00	2024-11-06T17:00:00	2	Temperatura media	16.3
176386	7	Sololá	701	Sololá	2	El tablón	9	Septiembre	2023-07-09T00:00:00	2024-11-06T17:00:00	4	Temperatura máxima	17.4
176387	7	Sololá	701	Sololá	2	El tablón	9	Septiembre	2023-07-09T00:00:00	2024-11-06T17:00:00	3	Temperatura mínima	16.3
176388	7	Sololá	701	Sololá	2	El tablón	9	Septiembre	2023-07-09T00:00:00	2024-11-06T17:00:00	5	Humedad	88
176389	7	Sololá	701	Sololá	2	El tablón	9	Septiembre	2023-07-09T00:00:00	2024-11-06T17:00:00	6	Velocidad del viento	4.8
176390	7	Sololá	701	Sololá	2	El tablón	9	Septiembre	2023-07-09T00:00:00	2024-11-06T17:00:00	7	Dirección del viento	4.83
176391	7	Sololá	701	Sololá	2	El tablón	9	Septiembre	2023-07-09T00:00:00	2024-11-06T17:00:00	1	Precipitación	0
176392	7	Sololá	701	Sololá	2	El tablón	9	Septiembre	2023-07-09T00:00:00	2024-11-06T17:00:00	8	Radiación solar	100
176393	7	Sololá	701	Sololá	2	El tablón	9	Septiembre	2023-07-09T00:00:00	2024-11-06T18:00:00	2	Temperatura media	14.7
176394	7	Sololá	701	Sololá	2	El tablón	9	Septiembre	2023-07-09T00:00:00	2024-11-06T18:00:00	4	Temperatura máxima	16.3
176395	7	Sololá	701	Sololá	2	El tablón	9	Septiembre	2023-07-09T00:00:00	2024-11-06T18:00:00	3	Temperatura mínima	14.7
176396	7	Sololá	701	Sololá	2	El tablón	9	Septiembre	2023-07-09T00:00:00	2024-11-06T18:00:00	5	Humedad	85
176397	7	Sololá	701	Sololá	2	El tablón	9	Septiembre	2023-07-09T00:00:00	2024-11-06T18:00:00	6	Velocidad del viento	6.4
176398	7	Sololá	701	Sololá	2	El tablón	9	Septiembre	2023-07-09T00:00:00	2024-11-06T18:00:00	7	Dirección del viento	6.44
176399	7	Sololá	701	Sololá	2	El tablón	9	Septiembre	2023-07-09T00:00:00	2024-11-06T18:00:00	1	Precipitación	0
176400	7	Sololá	701	Sololá	2	El tablón	9	Septiembre	2023-07-09T00:00:00	2024-11-06T18:00:00	8	Radiación solar	22
176401	7	Sololá	701	Sololá	2	El tablón	9	Septiembre	2023-07-09T00:00:00	2024-11-06T19:00:00	2	Temperatura media	14.9
176402	7	Sololá	701	Sololá	2	El tablón	9	Septiembre	2023-07-09T00:00:00	2024-11-06T19:00:00	4	Temperatura máxima	14.9
176403	7	Sololá	701	Sololá	2	El tablón	9	Septiembre	2023-07-09T00:00:00	2024-11-06T19:00:00	3	Temperatura mínima	14.3
176404	7	Sololá	701	Sololá	2	El tablón	9	Septiembre	2023-07-09T00:00:00	2024-11-06T19:00:00	5	Humedad	87
176405	7	Sololá	701	Sololá	2	El tablón	9	Septiembre	2023-07-09T00:00:00	2024-11-06T19:00:00	6	Velocidad del viento	3.2
176406	7	Sololá	701	Sololá	2	El tablón	9	Septiembre	2023-07-09T00:00:00	2024-11-06T19:00:00	7	Dirección del viento	3.22
176407	7	Sololá	701	Sololá	2	El tablón	9	Septiembre	2023-07-09T00:00:00	2024-11-06T19:00:00	1	Precipitación	0
176408	7	Sololá	701	Sololá	2	El tablón	9	Septiembre	2023-07-09T00:00:00	2024-11-06T19:00:00	8	Radiación solar	0
176409	7	Sololá	701	Sololá	2	El tablón	9	Septiembre	2023-07-09T00:00:00	2024-11-06T20:00:00	2	Temperatura media	14.1
176410	7	Sololá	701	Sololá	2	El tablón	9	Septiembre	2023-07-09T00:00:00	2024-11-06T20:00:00	4	Temperatura máxima	15
176411	7	Sololá	701	Sololá	2	El tablón	9	Septiembre	2023-07-09T00:00:00	2024-11-06T20:00:00	3	Temperatura mínima	13.9
176412	7	Sololá	701	Sololá	2	El tablón	9	Septiembre	2023-07-09T00:00:00	2024-11-06T20:00:00	5	Humedad	88
176413	7	Sololá	701	Sololá	2	El tablón	9	Septiembre	2023-07-09T00:00:00	2024-11-06T20:00:00	6	Velocidad del viento	6.4
176414	7	Sololá	701	Sololá	2	El tablón	9	Septiembre	2023-07-09T00:00:00	2024-11-06T20:00:00	7	Dirección del viento	6.44
176415	7	Sololá	701	Sololá	2	El tablón	9	Septiembre	2023-07-09T00:00:00	2024-11-06T20:00:00	1	Precipitación	0
176416	7	Sololá	701	Sololá	2	El tablón	9	Septiembre	2023-07-09T00:00:00	2024-11-06T20:00:00	8	Radiación solar	0
176417	7	Sololá	701	Sololá	2	El tablón	9	Septiembre	2023-07-09T00:00:00	2024-11-06T21:00:00	2	Temperatura media	14.4
176418	7	Sololá	701	Sololá	2	El tablón	9	Septiembre	2023-07-09T00:00:00	2024-11-06T21:00:00	4	Temperatura máxima	14.5
176419	7	Sololá	701	Sololá	2	El tablón	9	Septiembre	2023-07-09T00:00:00	2024-11-06T21:00:00	3	Temperatura mínima	14.1
176420	7	Sololá	701	Sololá	2	El tablón	9	Septiembre	2023-07-09T00:00:00	2024-11-06T21:00:00	5	Humedad	86
176421	7	Sololá	701	Sololá	2	El tablón	9	Septiembre	2023-07-09T00:00:00	2024-11-06T21:00:00	6	Velocidad del viento	8
176422	7	Sololá	701	Sololá	2	El tablón	9	Septiembre	2023-07-09T00:00:00	2024-11-06T21:00:00	7	Dirección del viento	8.05
176423	7	Sololá	701	Sololá	2	El tablón	9	Septiembre	2023-07-09T00:00:00	2024-11-06T21:00:00	1	Precipitación	0
176424	7	Sololá	701	Sololá	2	El tablón	9	Septiembre	2023-07-09T00:00:00	2024-11-06T21:00:00	8	Radiación solar	0
176425	7	Sololá	701	Sololá	2	El tablón	9	Septiembre	2023-07-09T00:00:00	2024-11-06T22:00:00	2	Temperatura media	14.2
176426	7	Sololá	701	Sololá	2	El tablón	9	Septiembre	2023-07-09T00:00:00	2024-11-06T22:00:00	4	Temperatura máxima	14.4
176427	7	Sololá	701	Sololá	2	El tablón	9	Septiembre	2023-07-09T00:00:00	2024-11-06T22:00:00	3	Temperatura mínima	14.2
176428	7	Sololá	701	Sololá	2	El tablón	9	Septiembre	2023-07-09T00:00:00	2024-11-06T22:00:00	5	Humedad	87
176429	7	Sololá	701	Sololá	2	El tablón	9	Septiembre	2023-07-09T00:00:00	2024-11-06T22:00:00	6	Velocidad del viento	9.7
176430	7	Sololá	701	Sololá	2	El tablón	9	Septiembre	2023-07-09T00:00:00	2024-11-06T22:00:00	7	Dirección del viento	9.66
176431	7	Sololá	701	Sololá	2	El tablón	9	Septiembre	2023-07-09T00:00:00	2024-11-06T22:00:00	1	Precipitación	0
176432	7	Sololá	701	Sololá	2	El tablón	9	Septiembre	2023-07-09T00:00:00	2024-11-06T22:00:00	8	Radiación solar	0
176433	7	Sololá	701	Sololá	2	El tablón	9	Septiembre	2023-07-09T00:00:00	2024-11-06T23:00:00	2	Temperatura media	13.9
176434	7	Sololá	701	Sololá	2	El tablón	9	Septiembre	2023-07-09T00:00:00	2024-11-06T23:00:00	4	Temperatura máxima	14.2
176435	7	Sololá	701	Sololá	2	El tablón	9	Septiembre	2023-07-09T00:00:00	2024-11-06T23:00:00	3	Temperatura mínima	13.8
176436	7	Sololá	701	Sololá	2	El tablón	9	Septiembre	2023-07-09T00:00:00	2024-11-06T23:00:00	5	Humedad	85
176437	7	Sololá	701	Sololá	2	El tablón	9	Septiembre	2023-07-09T00:00:00	2024-11-06T23:00:00	6	Velocidad del viento	8
176438	7	Sololá	701	Sololá	2	El tablón	9	Septiembre	2023-07-09T00:00:00	2024-11-06T23:00:00	7	Dirección del viento	8.05
176439	7	Sololá	701	Sololá	2	El tablón	9	Septiembre	2023-07-09T00:00:00	2024-11-06T23:00:00	1	Precipitación	0
176440	7	Sololá	701	Sololá	2	El tablón	9	Septiembre	2023-07-09T00:00:00	2024-11-06T23:00:00	8	Radiación solar	0
176441	7	Sololá	701	Sololá	2	El tablón	9	Septiembre	2023-08-09T00:00:00	2024-11-06T00:00:00	2	Temperatura media	13.2
176442	7	Sololá	701	Sololá	2	El tablón	9	Septiembre	2023-08-09T00:00:00	2024-11-06T00:00:00	4	Temperatura máxima	13.9
176443	7	Sololá	701	Sololá	2	El tablón	9	Septiembre	2023-08-09T00:00:00	2024-11-06T00:00:00	3	Temperatura mínima	13.2
176444	7	Sololá	701	Sololá	2	El tablón	9	Septiembre	2023-08-09T00:00:00	2024-11-06T00:00:00	5	Humedad	85
176445	7	Sololá	701	Sololá	2	El tablón	9	Septiembre	2023-08-09T00:00:00	2024-11-06T00:00:00	6	Velocidad del viento	8
176446	7	Sololá	701	Sololá	2	El tablón	9	Septiembre	2023-08-09T00:00:00	2024-11-06T00:00:00	7	Dirección del viento	8.05
176447	7	Sololá	701	Sololá	2	El tablón	9	Septiembre	2023-08-09T00:00:00	2024-11-06T00:00:00	1	Precipitación	0
176448	7	Sololá	701	Sololá	2	El tablón	9	Septiembre	2023-08-09T00:00:00	2024-11-06T00:00:00	8	Radiación solar	0
176449	7	Sololá	701	Sololá	2	El tablón	9	Septiembre	2023-08-09T00:00:00	2024-11-06T01:00:00	2	Temperatura media	13.1
176450	7	Sololá	701	Sololá	2	El tablón	9	Septiembre	2023-08-09T00:00:00	2024-11-06T01:00:00	4	Temperatura máxima	13.3
176451	7	Sololá	701	Sololá	2	El tablón	9	Septiembre	2023-08-09T00:00:00	2024-11-06T01:00:00	3	Temperatura mínima	13.1
176452	7	Sololá	701	Sololá	2	El tablón	9	Septiembre	2023-08-09T00:00:00	2024-11-06T01:00:00	5	Humedad	86
176453	7	Sololá	701	Sololá	2	El tablón	9	Septiembre	2023-08-09T00:00:00	2024-11-06T01:00:00	6	Velocidad del viento	9.7
176454	7	Sololá	701	Sololá	2	El tablón	9	Septiembre	2023-08-09T00:00:00	2024-11-06T01:00:00	7	Dirección del viento	9.66
176455	7	Sololá	701	Sololá	2	El tablón	9	Septiembre	2023-08-09T00:00:00	2024-11-06T01:00:00	1	Precipitación	0
176456	7	Sololá	701	Sololá	2	El tablón	9	Septiembre	2023-08-09T00:00:00	2024-11-06T01:00:00	8	Radiación solar	0
176457	7	Sololá	701	Sololá	2	El tablón	9	Septiembre	2023-08-09T00:00:00	2024-11-06T02:00:00	2	Temperatura media	13.1
176458	7	Sololá	701	Sololá	2	El tablón	9	Septiembre	2023-08-09T00:00:00	2024-11-06T02:00:00	4	Temperatura máxima	13.2
176459	7	Sololá	701	Sololá	2	El tablón	9	Septiembre	2023-08-09T00:00:00	2024-11-06T02:00:00	3	Temperatura mínima	13
176460	7	Sololá	701	Sololá	2	El tablón	9	Septiembre	2023-08-09T00:00:00	2024-11-06T02:00:00	5	Humedad	84
176461	7	Sololá	701	Sololá	2	El tablón	9	Septiembre	2023-08-09T00:00:00	2024-11-06T02:00:00	6	Velocidad del viento	9.7
176462	7	Sololá	701	Sololá	2	El tablón	9	Septiembre	2023-08-09T00:00:00	2024-11-06T02:00:00	7	Dirección del viento	9.66
176463	7	Sololá	701	Sololá	2	El tablón	9	Septiembre	2023-08-09T00:00:00	2024-11-06T02:00:00	1	Precipitación	0
176464	7	Sololá	701	Sololá	2	El tablón	9	Septiembre	2023-08-09T00:00:00	2024-11-06T02:00:00	8	Radiación solar	0
176465	7	Sololá	701	Sololá	2	El tablón	9	Septiembre	2023-08-09T00:00:00	2024-11-06T03:00:00	2	Temperatura media	13.1
176466	7	Sololá	701	Sololá	2	El tablón	9	Septiembre	2023-08-09T00:00:00	2024-11-06T03:00:00	4	Temperatura máxima	13.3
176467	7	Sololá	701	Sololá	2	El tablón	9	Septiembre	2023-08-09T00:00:00	2024-11-06T03:00:00	3	Temperatura mínima	12.9
176468	7	Sololá	701	Sololá	2	El tablón	9	Septiembre	2023-08-09T00:00:00	2024-11-06T03:00:00	5	Humedad	85
176469	7	Sololá	701	Sololá	2	El tablón	9	Septiembre	2023-08-09T00:00:00	2024-11-06T03:00:00	6	Velocidad del viento	8
176470	7	Sololá	701	Sololá	2	El tablón	9	Septiembre	2023-08-09T00:00:00	2024-11-06T03:00:00	7	Dirección del viento	8.05
176471	7	Sololá	701	Sololá	2	El tablón	9	Septiembre	2023-08-09T00:00:00	2024-11-06T03:00:00	1	Precipitación	0
176472	7	Sololá	701	Sololá	2	El tablón	9	Septiembre	2023-08-09T00:00:00	2024-11-06T03:00:00	8	Radiación solar	0
176473	7	Sololá	701	Sololá	2	El tablón	9	Septiembre	2023-08-09T00:00:00	2024-11-06T04:00:00	2	Temperatura media	12.7
176474	7	Sololá	701	Sololá	2	El tablón	9	Septiembre	2023-08-09T00:00:00	2024-11-06T04:00:00	4	Temperatura máxima	13.1
176475	7	Sololá	701	Sololá	2	El tablón	9	Septiembre	2023-08-09T00:00:00	2024-11-06T04:00:00	3	Temperatura mínima	12.7
176476	7	Sololá	701	Sololá	2	El tablón	9	Septiembre	2023-08-09T00:00:00	2024-11-06T04:00:00	5	Humedad	85
176477	7	Sololá	701	Sololá	2	El tablón	9	Septiembre	2023-08-09T00:00:00	2024-11-06T04:00:00	6	Velocidad del viento	8
176478	7	Sololá	701	Sololá	2	El tablón	9	Septiembre	2023-08-09T00:00:00	2024-11-06T04:00:00	7	Dirección del viento	8.05
176479	7	Sololá	701	Sololá	2	El tablón	9	Septiembre	2023-08-09T00:00:00	2024-11-06T04:00:00	1	Precipitación	0
176480	7	Sololá	701	Sololá	2	El tablón	9	Septiembre	2023-08-09T00:00:00	2024-11-06T04:00:00	8	Radiación solar	0
176481	7	Sololá	701	Sololá	2	El tablón	9	Septiembre	2023-08-09T00:00:00	2024-11-06T05:00:00	2	Temperatura media	12.7
176482	7	Sololá	701	Sololá	2	El tablón	9	Septiembre	2023-08-09T00:00:00	2024-11-06T05:00:00	4	Temperatura máxima	12.8
176483	7	Sololá	701	Sololá	2	El tablón	9	Septiembre	2023-08-09T00:00:00	2024-11-06T05:00:00	3	Temperatura mínima	12.6
176484	7	Sololá	701	Sololá	2	El tablón	9	Septiembre	2023-08-09T00:00:00	2024-11-06T05:00:00	5	Humedad	83
176485	7	Sololá	701	Sololá	2	El tablón	9	Septiembre	2023-08-09T00:00:00	2024-11-06T05:00:00	6	Velocidad del viento	9.7
176486	7	Sololá	701	Sololá	2	El tablón	9	Septiembre	2023-08-09T00:00:00	2024-11-06T05:00:00	7	Dirección del viento	9.66
176487	7	Sololá	701	Sololá	2	El tablón	9	Septiembre	2023-08-09T00:00:00	2024-11-06T05:00:00	1	Precipitación	0
176488	7	Sololá	701	Sololá	2	El tablón	9	Septiembre	2023-08-09T00:00:00	2024-11-06T05:00:00	8	Radiación solar	0
176489	7	Sololá	701	Sololá	2	El tablón	9	Septiembre	2023-08-09T00:00:00	2024-11-06T06:00:00	2	Temperatura media	13.1
176490	7	Sololá	701	Sololá	2	El tablón	9	Septiembre	2023-08-09T00:00:00	2024-11-06T06:00:00	4	Temperatura máxima	13.1
176491	7	Sololá	701	Sololá	2	El tablón	9	Septiembre	2023-08-09T00:00:00	2024-11-06T06:00:00	3	Temperatura mínima	12.6
176492	7	Sololá	701	Sololá	2	El tablón	9	Septiembre	2023-08-09T00:00:00	2024-11-06T06:00:00	5	Humedad	81
176493	7	Sololá	701	Sololá	2	El tablón	9	Septiembre	2023-08-09T00:00:00	2024-11-06T06:00:00	6	Velocidad del viento	9.7
176494	7	Sololá	701	Sololá	2	El tablón	9	Septiembre	2023-08-09T00:00:00	2024-11-06T06:00:00	7	Dirección del viento	9.66
176495	7	Sololá	701	Sololá	2	El tablón	9	Septiembre	2023-08-09T00:00:00	2024-11-06T06:00:00	1	Precipitación	0
176496	7	Sololá	701	Sololá	2	El tablón	9	Septiembre	2023-08-09T00:00:00	2024-11-06T06:00:00	8	Radiación solar	0
176497	7	Sololá	701	Sololá	2	El tablón	9	Septiembre	2023-08-09T00:00:00	2024-11-06T07:00:00	2	Temperatura media	15.1
176498	7	Sololá	701	Sololá	2	El tablón	9	Septiembre	2023-08-09T00:00:00	2024-11-06T07:00:00	4	Temperatura máxima	15.1
176499	7	Sololá	701	Sololá	2	El tablón	9	Septiembre	2023-08-09T00:00:00	2024-11-06T07:00:00	3	Temperatura mínima	13.1
176500	7	Sololá	701	Sololá	2	El tablón	9	Septiembre	2023-08-09T00:00:00	2024-11-06T07:00:00	5	Humedad	74
176501	7	Sololá	701	Sololá	2	El tablón	9	Septiembre	2023-08-09T00:00:00	2024-11-06T07:00:00	6	Velocidad del viento	8
176502	7	Sololá	701	Sololá	2	El tablón	9	Septiembre	2023-08-09T00:00:00	2024-11-06T07:00:00	7	Dirección del viento	8.05
176503	7	Sololá	701	Sololá	2	El tablón	9	Septiembre	2023-08-09T00:00:00	2024-11-06T07:00:00	1	Precipitación	0
176504	7	Sololá	701	Sololá	2	El tablón	9	Septiembre	2023-08-09T00:00:00	2024-11-06T07:00:00	8	Radiación solar	77
176505	7	Sololá	701	Sololá	2	El tablón	9	Septiembre	2023-08-09T00:00:00	2024-11-06T08:00:00	2	Temperatura media	18
176506	7	Sololá	701	Sololá	2	El tablón	9	Septiembre	2023-08-09T00:00:00	2024-11-06T08:00:00	4	Temperatura máxima	18
176507	7	Sololá	701	Sololá	2	El tablón	9	Septiembre	2023-08-09T00:00:00	2024-11-06T08:00:00	3	Temperatura mínima	15.1
176508	7	Sololá	701	Sololá	2	El tablón	9	Septiembre	2023-08-09T00:00:00	2024-11-06T08:00:00	5	Humedad	65
176509	7	Sololá	701	Sololá	2	El tablón	9	Septiembre	2023-08-09T00:00:00	2024-11-06T08:00:00	6	Velocidad del viento	8
176510	7	Sololá	701	Sololá	2	El tablón	9	Septiembre	2023-08-09T00:00:00	2024-11-06T08:00:00	7	Dirección del viento	8.05
176511	7	Sololá	701	Sololá	2	El tablón	9	Septiembre	2023-08-09T00:00:00	2024-11-06T08:00:00	1	Precipitación	0
176512	7	Sololá	701	Sololá	2	El tablón	9	Septiembre	2023-08-09T00:00:00	2024-11-06T08:00:00	8	Radiación solar	294
176513	7	Sololá	701	Sololá	2	El tablón	9	Septiembre	2023-08-09T00:00:00	2024-11-06T09:00:00	2	Temperatura media	18.9
176514	7	Sololá	701	Sololá	2	El tablón	9	Septiembre	2023-08-09T00:00:00	2024-11-06T09:00:00	4	Temperatura máxima	19
176515	7	Sololá	701	Sololá	2	El tablón	9	Septiembre	2023-08-09T00:00:00	2024-11-06T09:00:00	3	Temperatura mínima	17.9
176516	7	Sololá	701	Sololá	2	El tablón	9	Septiembre	2023-08-09T00:00:00	2024-11-06T09:00:00	5	Humedad	63
176517	7	Sololá	701	Sololá	2	El tablón	9	Septiembre	2023-08-09T00:00:00	2024-11-06T09:00:00	6	Velocidad del viento	8
176518	7	Sololá	701	Sololá	2	El tablón	9	Septiembre	2023-08-09T00:00:00	2024-11-06T09:00:00	7	Dirección del viento	8.05
176519	7	Sololá	701	Sololá	2	El tablón	9	Septiembre	2023-08-09T00:00:00	2024-11-06T09:00:00	1	Precipitación	0
176520	7	Sololá	701	Sololá	2	El tablón	9	Septiembre	2023-08-09T00:00:00	2024-11-06T09:00:00	8	Radiación solar	434
176521	7	Sololá	701	Sololá	2	El tablón	9	Septiembre	2023-08-09T00:00:00	2024-11-06T10:00:00	2	Temperatura media	19.5
176522	7	Sololá	701	Sololá	2	El tablón	9	Septiembre	2023-08-09T00:00:00	2024-11-06T10:00:00	4	Temperatura máxima	19.6
176523	7	Sololá	701	Sololá	2	El tablón	9	Septiembre	2023-08-09T00:00:00	2024-11-06T10:00:00	3	Temperatura mínima	18.8
176524	7	Sololá	701	Sololá	2	El tablón	9	Septiembre	2023-08-09T00:00:00	2024-11-06T10:00:00	5	Humedad	65
176525	7	Sololá	701	Sololá	2	El tablón	9	Septiembre	2023-08-09T00:00:00	2024-11-06T10:00:00	6	Velocidad del viento	8
176526	7	Sololá	701	Sololá	2	El tablón	9	Septiembre	2023-08-09T00:00:00	2024-11-06T10:00:00	7	Dirección del viento	8.05
176527	7	Sololá	701	Sololá	2	El tablón	9	Septiembre	2023-08-09T00:00:00	2024-11-06T10:00:00	1	Precipitación	0
176528	7	Sololá	701	Sololá	2	El tablón	9	Septiembre	2023-08-09T00:00:00	2024-11-06T10:00:00	8	Radiación solar	638
176529	7	Sololá	701	Sololá	2	El tablón	9	Septiembre	2023-08-09T00:00:00	2024-11-06T11:00:00	2	Temperatura media	19.4
176530	7	Sololá	701	Sololá	2	El tablón	9	Septiembre	2023-08-09T00:00:00	2024-11-06T11:00:00	4	Temperatura máxima	19.9
176531	7	Sololá	701	Sololá	2	El tablón	9	Septiembre	2023-08-09T00:00:00	2024-11-06T11:00:00	3	Temperatura mínima	19.2
176532	7	Sololá	701	Sololá	2	El tablón	9	Septiembre	2023-08-09T00:00:00	2024-11-06T11:00:00	5	Humedad	67
176533	7	Sololá	701	Sololá	2	El tablón	9	Septiembre	2023-08-09T00:00:00	2024-11-06T11:00:00	6	Velocidad del viento	11.3
176534	7	Sololá	701	Sololá	2	El tablón	9	Septiembre	2023-08-09T00:00:00	2024-11-06T11:00:00	7	Dirección del viento	11.27
176535	7	Sololá	701	Sololá	2	El tablón	9	Septiembre	2023-08-09T00:00:00	2024-11-06T11:00:00	1	Precipitación	0
176536	7	Sololá	701	Sololá	2	El tablón	9	Septiembre	2023-08-09T00:00:00	2024-11-06T11:00:00	8	Radiación solar	755
176537	7	Sololá	701	Sololá	2	El tablón	9	Septiembre	2023-08-09T00:00:00	2024-11-06T12:00:00	2	Temperatura media	20.2
176538	7	Sololá	701	Sololá	2	El tablón	9	Septiembre	2023-08-09T00:00:00	2024-11-06T12:00:00	4	Temperatura máxima	20.7
176539	7	Sololá	701	Sololá	2	El tablón	9	Septiembre	2023-08-09T00:00:00	2024-11-06T12:00:00	3	Temperatura mínima	19.3
176540	7	Sololá	701	Sololá	2	El tablón	9	Septiembre	2023-08-09T00:00:00	2024-11-06T12:00:00	5	Humedad	67
176541	7	Sololá	701	Sololá	2	El tablón	9	Septiembre	2023-08-09T00:00:00	2024-11-06T12:00:00	6	Velocidad del viento	9.7
176542	7	Sololá	701	Sololá	2	El tablón	9	Septiembre	2023-08-09T00:00:00	2024-11-06T12:00:00	7	Dirección del viento	9.66
176543	7	Sololá	701	Sololá	2	El tablón	9	Septiembre	2023-08-09T00:00:00	2024-11-06T12:00:00	1	Precipitación	0
176544	7	Sololá	701	Sololá	2	El tablón	9	Septiembre	2023-08-09T00:00:00	2024-11-06T12:00:00	8	Radiación solar	939
176545	7	Sololá	701	Sololá	2	El tablón	9	Septiembre	2023-08-09T00:00:00	2024-11-06T13:00:00	2	Temperatura media	20.2
176546	7	Sololá	701	Sololá	2	El tablón	9	Septiembre	2023-08-09T00:00:00	2024-11-06T13:00:00	4	Temperatura máxima	20.9
176547	7	Sololá	701	Sololá	2	El tablón	9	Septiembre	2023-08-09T00:00:00	2024-11-06T13:00:00	3	Temperatura mínima	19.9
176548	7	Sololá	701	Sololá	2	El tablón	9	Septiembre	2023-08-09T00:00:00	2024-11-06T13:00:00	5	Humedad	65
176549	7	Sololá	701	Sololá	2	El tablón	9	Septiembre	2023-08-09T00:00:00	2024-11-06T13:00:00	6	Velocidad del viento	9.7
176550	7	Sololá	701	Sololá	2	El tablón	9	Septiembre	2023-08-09T00:00:00	2024-11-06T13:00:00	7	Dirección del viento	9.66
176551	7	Sololá	701	Sololá	2	El tablón	9	Septiembre	2023-08-09T00:00:00	2024-11-06T13:00:00	1	Precipitación	0
176552	7	Sololá	701	Sololá	2	El tablón	9	Septiembre	2023-08-09T00:00:00	2024-11-06T13:00:00	8	Radiación solar	963
176553	7	Sololá	701	Sololá	2	El tablón	9	Septiembre	2023-08-09T00:00:00	2024-11-06T14:00:00	2	Temperatura media	20.2
176554	7	Sololá	701	Sololá	2	El tablón	9	Septiembre	2023-08-09T00:00:00	2024-11-06T14:00:00	4	Temperatura máxima	21.2
176555	7	Sololá	701	Sololá	2	El tablón	9	Septiembre	2023-08-09T00:00:00	2024-11-06T14:00:00	3	Temperatura mínima	20.2
176556	7	Sololá	701	Sololá	2	El tablón	9	Septiembre	2023-08-09T00:00:00	2024-11-06T14:00:00	5	Humedad	65
176557	7	Sololá	701	Sololá	2	El tablón	9	Septiembre	2023-08-09T00:00:00	2024-11-06T14:00:00	6	Velocidad del viento	8
176558	7	Sololá	701	Sololá	2	El tablón	9	Septiembre	2023-08-09T00:00:00	2024-11-06T14:00:00	7	Dirección del viento	8.05
176559	7	Sololá	701	Sololá	2	El tablón	9	Septiembre	2023-08-09T00:00:00	2024-11-06T14:00:00	1	Precipitación	0
176560	7	Sololá	701	Sololá	2	El tablón	9	Septiembre	2023-08-09T00:00:00	2024-11-06T14:00:00	8	Radiación solar	872
176561	7	Sololá	701	Sololá	2	El tablón	9	Septiembre	2023-08-09T00:00:00	2024-11-06T15:00:00	2	Temperatura media	18.6
176562	7	Sololá	701	Sololá	2	El tablón	9	Septiembre	2023-08-09T00:00:00	2024-11-06T15:00:00	4	Temperatura máxima	20.8
176563	7	Sololá	701	Sololá	2	El tablón	9	Septiembre	2023-08-09T00:00:00	2024-11-06T15:00:00	3	Temperatura mínima	18.6
176564	7	Sololá	701	Sololá	2	El tablón	9	Septiembre	2023-08-09T00:00:00	2024-11-06T15:00:00	5	Humedad	83
176565	7	Sololá	701	Sololá	2	El tablón	9	Septiembre	2023-08-09T00:00:00	2024-11-06T15:00:00	6	Velocidad del viento	6.4
176566	7	Sololá	701	Sololá	2	El tablón	9	Septiembre	2023-08-09T00:00:00	2024-11-06T15:00:00	7	Dirección del viento	6.44
176567	7	Sololá	701	Sololá	2	El tablón	9	Septiembre	2023-08-09T00:00:00	2024-11-06T15:00:00	1	Precipitación	0
176568	7	Sololá	701	Sololá	2	El tablón	9	Septiembre	2023-08-09T00:00:00	2024-11-06T15:00:00	8	Radiación solar	541
176569	7	Sololá	701	Sololá	2	El tablón	9	Septiembre	2023-08-09T00:00:00	2024-11-06T16:00:00	2	Temperatura media	17.2
176570	7	Sololá	701	Sololá	2	El tablón	9	Septiembre	2023-08-09T00:00:00	2024-11-06T16:00:00	4	Temperatura máxima	18.9
176571	7	Sololá	701	Sololá	2	El tablón	9	Septiembre	2023-08-09T00:00:00	2024-11-06T16:00:00	3	Temperatura mínima	17.2
176572	7	Sololá	701	Sololá	2	El tablón	9	Septiembre	2023-08-09T00:00:00	2024-11-06T16:00:00	5	Humedad	87
176573	7	Sololá	701	Sololá	2	El tablón	9	Septiembre	2023-08-09T00:00:00	2024-11-06T16:00:00	6	Velocidad del viento	6.4
176574	7	Sololá	701	Sololá	2	El tablón	9	Septiembre	2023-08-09T00:00:00	2024-11-06T16:00:00	7	Dirección del viento	6.44
176575	7	Sololá	701	Sololá	2	El tablón	9	Septiembre	2023-08-09T00:00:00	2024-11-06T16:00:00	1	Precipitación	0
176576	7	Sololá	701	Sololá	2	El tablón	9	Septiembre	2023-08-09T00:00:00	2024-11-06T16:00:00	8	Radiación solar	163
176577	7	Sololá	701	Sololá	2	El tablón	9	Septiembre	2023-08-09T00:00:00	2024-11-06T17:00:00	2	Temperatura media	16
176578	7	Sololá	701	Sololá	2	El tablón	9	Septiembre	2023-08-09T00:00:00	2024-11-06T17:00:00	4	Temperatura máxima	17.2
176579	7	Sololá	701	Sololá	2	El tablón	9	Septiembre	2023-08-09T00:00:00	2024-11-06T17:00:00	3	Temperatura mínima	16
176580	7	Sololá	701	Sololá	2	El tablón	9	Septiembre	2023-08-09T00:00:00	2024-11-06T17:00:00	5	Humedad	88
176581	7	Sololá	701	Sololá	2	El tablón	9	Septiembre	2023-08-09T00:00:00	2024-11-06T17:00:00	6	Velocidad del viento	4.8
176582	7	Sololá	701	Sololá	2	El tablón	9	Septiembre	2023-08-09T00:00:00	2024-11-06T17:00:00	7	Dirección del viento	4.83
176583	7	Sololá	701	Sololá	2	El tablón	9	Septiembre	2023-08-09T00:00:00	2024-11-06T17:00:00	1	Precipitación	0
176584	7	Sololá	701	Sololá	2	El tablón	9	Septiembre	2023-08-09T00:00:00	2024-11-06T17:00:00	8	Radiación solar	53
176585	7	Sololá	701	Sololá	2	El tablón	9	Septiembre	2023-08-09T00:00:00	2024-11-06T18:00:00	2	Temperatura media	15.7
176586	7	Sololá	701	Sololá	2	El tablón	9	Septiembre	2023-08-09T00:00:00	2024-11-06T18:00:00	4	Temperatura máxima	16.3
176587	7	Sololá	701	Sololá	2	El tablón	9	Septiembre	2023-08-09T00:00:00	2024-11-06T18:00:00	3	Temperatura mínima	15.7
176588	7	Sololá	701	Sololá	2	El tablón	9	Septiembre	2023-08-09T00:00:00	2024-11-06T18:00:00	5	Humedad	87
176589	7	Sololá	701	Sololá	2	El tablón	9	Septiembre	2023-08-09T00:00:00	2024-11-06T18:00:00	6	Velocidad del viento	1.6
176590	7	Sololá	701	Sololá	2	El tablón	9	Septiembre	2023-08-09T00:00:00	2024-11-06T18:00:00	7	Dirección del viento	1.61
176591	7	Sololá	701	Sololá	2	El tablón	9	Septiembre	2023-08-09T00:00:00	2024-11-06T18:00:00	1	Precipitación	0
176592	7	Sololá	701	Sololá	2	El tablón	9	Septiembre	2023-08-09T00:00:00	2024-11-06T18:00:00	8	Radiación solar	24
176593	7	Sololá	701	Sololá	2	El tablón	9	Septiembre	2023-08-09T00:00:00	2024-11-06T19:00:00	2	Temperatura media	14.1
176594	7	Sololá	701	Sololá	2	El tablón	9	Septiembre	2023-08-09T00:00:00	2024-11-06T19:00:00	4	Temperatura máxima	15.7
176595	7	Sololá	701	Sololá	2	El tablón	9	Septiembre	2023-08-09T00:00:00	2024-11-06T19:00:00	3	Temperatura mínima	14.1
176596	7	Sololá	701	Sololá	2	El tablón	9	Septiembre	2023-08-09T00:00:00	2024-11-06T19:00:00	5	Humedad	88
176597	7	Sololá	701	Sololá	2	El tablón	9	Septiembre	2023-08-09T00:00:00	2024-11-06T19:00:00	6	Velocidad del viento	6.4
176598	7	Sololá	701	Sololá	2	El tablón	9	Septiembre	2023-08-09T00:00:00	2024-11-06T19:00:00	7	Dirección del viento	6.44
176599	7	Sololá	701	Sololá	2	El tablón	9	Septiembre	2023-08-09T00:00:00	2024-11-06T19:00:00	1	Precipitación	1.8
176600	7	Sololá	701	Sololá	2	El tablón	9	Septiembre	2023-08-09T00:00:00	2024-11-06T19:00:00	8	Radiación solar	0
176601	7	Sololá	701	Sololá	2	El tablón	9	Septiembre	2023-08-09T00:00:00	2024-11-06T20:00:00	2	Temperatura media	14
176602	7	Sololá	701	Sololá	2	El tablón	9	Septiembre	2023-08-09T00:00:00	2024-11-06T20:00:00	4	Temperatura máxima	14.2
176603	7	Sololá	701	Sololá	2	El tablón	9	Septiembre	2023-08-09T00:00:00	2024-11-06T20:00:00	3	Temperatura mínima	13.9
176604	7	Sololá	701	Sololá	2	El tablón	9	Septiembre	2023-08-09T00:00:00	2024-11-06T20:00:00	5	Humedad	88
176605	7	Sololá	701	Sololá	2	El tablón	9	Septiembre	2023-08-09T00:00:00	2024-11-06T20:00:00	6	Velocidad del viento	3.2
176606	7	Sololá	701	Sololá	2	El tablón	9	Septiembre	2023-08-09T00:00:00	2024-11-06T20:00:00	7	Dirección del viento	3.22
176607	7	Sololá	701	Sololá	2	El tablón	9	Septiembre	2023-08-09T00:00:00	2024-11-06T20:00:00	1	Precipitación	0.8
176608	7	Sololá	701	Sololá	2	El tablón	9	Septiembre	2023-08-09T00:00:00	2024-11-06T20:00:00	8	Radiación solar	0
176609	7	Sololá	701	Sololá	2	El tablón	9	Septiembre	2023-08-09T00:00:00	2024-11-06T21:00:00	2	Temperatura media	13.7
176610	7	Sololá	701	Sololá	2	El tablón	9	Septiembre	2023-08-09T00:00:00	2024-11-06T21:00:00	4	Temperatura máxima	14
176611	7	Sololá	701	Sololá	2	El tablón	9	Septiembre	2023-08-09T00:00:00	2024-11-06T21:00:00	3	Temperatura mínima	13.6
176612	7	Sololá	701	Sololá	2	El tablón	9	Septiembre	2023-08-09T00:00:00	2024-11-06T21:00:00	5	Humedad	88
176613	7	Sololá	701	Sololá	2	El tablón	9	Septiembre	2023-08-09T00:00:00	2024-11-06T21:00:00	6	Velocidad del viento	1.6
176614	7	Sololá	701	Sololá	2	El tablón	9	Septiembre	2023-08-09T00:00:00	2024-11-06T21:00:00	7	Dirección del viento	1.61
176615	7	Sololá	701	Sololá	2	El tablón	9	Septiembre	2023-08-09T00:00:00	2024-11-06T21:00:00	1	Precipitación	0.4
176616	7	Sololá	701	Sololá	2	El tablón	9	Septiembre	2023-08-09T00:00:00	2024-11-06T21:00:00	8	Radiación solar	0
176617	7	Sololá	701	Sololá	2	El tablón	9	Septiembre	2023-08-09T00:00:00	2024-11-06T22:00:00	2	Temperatura media	13.7
176618	7	Sololá	701	Sololá	2	El tablón	9	Septiembre	2023-08-09T00:00:00	2024-11-06T22:00:00	4	Temperatura máxima	13.7
176619	7	Sololá	701	Sololá	2	El tablón	9	Septiembre	2023-08-09T00:00:00	2024-11-06T22:00:00	3	Temperatura mínima	13.5
176620	7	Sololá	701	Sololá	2	El tablón	9	Septiembre	2023-08-09T00:00:00	2024-11-06T22:00:00	5	Humedad	88
176621	7	Sololá	701	Sololá	2	El tablón	9	Septiembre	2023-08-09T00:00:00	2024-11-06T22:00:00	6	Velocidad del viento	3.2
176622	7	Sololá	701	Sololá	2	El tablón	9	Septiembre	2023-08-09T00:00:00	2024-11-06T22:00:00	7	Dirección del viento	3.22
176623	7	Sololá	701	Sololá	2	El tablón	9	Septiembre	2023-08-09T00:00:00	2024-11-06T22:00:00	1	Precipitación	0
176624	7	Sololá	701	Sololá	2	El tablón	9	Septiembre	2023-08-09T00:00:00	2024-11-06T22:00:00	8	Radiación solar	0
176625	7	Sololá	701	Sololá	2	El tablón	9	Septiembre	2023-08-09T00:00:00	2024-11-06T23:00:00	2	Temperatura media	13.7
176626	7	Sololá	701	Sololá	2	El tablón	9	Septiembre	2023-08-09T00:00:00	2024-11-06T23:00:00	4	Temperatura máxima	13.9
176627	7	Sololá	701	Sololá	2	El tablón	9	Septiembre	2023-08-09T00:00:00	2024-11-06T23:00:00	3	Temperatura mínima	13.7
176628	7	Sololá	701	Sololá	2	El tablón	9	Septiembre	2023-08-09T00:00:00	2024-11-06T23:00:00	5	Humedad	88
176629	7	Sololá	701	Sololá	2	El tablón	9	Septiembre	2023-08-09T00:00:00	2024-11-06T23:00:00	6	Velocidad del viento	3.2
176630	7	Sololá	701	Sololá	2	El tablón	9	Septiembre	2023-08-09T00:00:00	2024-11-06T23:00:00	7	Dirección del viento	3.22
176631	7	Sololá	701	Sololá	2	El tablón	9	Septiembre	2023-08-09T00:00:00	2024-11-06T23:00:00	1	Precipitación	0
176632	7	Sololá	701	Sololá	2	El tablón	9	Septiembre	2023-08-09T00:00:00	2024-11-06T23:00:00	8	Radiación solar	0
176633	7	Sololá	701	Sololá	2	El tablón	9	Septiembre	2023-09-09T00:00:00	2024-11-06T00:00:00	2	Temperatura media	13.2
176634	7	Sololá	701	Sololá	2	El tablón	9	Septiembre	2023-09-09T00:00:00	2024-11-06T00:00:00	4	Temperatura máxima	13.8
176635	7	Sololá	701	Sololá	2	El tablón	9	Septiembre	2023-09-09T00:00:00	2024-11-06T00:00:00	3	Temperatura mínima	13.2
176636	7	Sololá	701	Sololá	2	El tablón	9	Septiembre	2023-09-09T00:00:00	2024-11-06T00:00:00	5	Humedad	88
176637	7	Sololá	701	Sololá	2	El tablón	9	Septiembre	2023-09-09T00:00:00	2024-11-06T00:00:00	6	Velocidad del viento	1.6
176638	7	Sololá	701	Sololá	2	El tablón	9	Septiembre	2023-09-09T00:00:00	2024-11-06T00:00:00	7	Dirección del viento	1.61
176639	7	Sololá	701	Sololá	2	El tablón	9	Septiembre	2023-09-09T00:00:00	2024-11-06T00:00:00	1	Precipitación	0
176640	7	Sololá	701	Sololá	2	El tablón	9	Septiembre	2023-09-09T00:00:00	2024-11-06T00:00:00	8	Radiación solar	0
176641	7	Sololá	701	Sololá	2	El tablón	9	Septiembre	2023-09-09T00:00:00	2024-11-06T01:00:00	2	Temperatura media	13.3
176642	7	Sololá	701	Sololá	2	El tablón	9	Septiembre	2023-09-09T00:00:00	2024-11-06T01:00:00	4	Temperatura máxima	13.3
176643	7	Sololá	701	Sololá	2	El tablón	9	Septiembre	2023-09-09T00:00:00	2024-11-06T01:00:00	3	Temperatura mínima	13.2
176644	7	Sololá	701	Sololá	2	El tablón	9	Septiembre	2023-09-09T00:00:00	2024-11-06T01:00:00	5	Humedad	88
176645	7	Sololá	701	Sololá	2	El tablón	9	Septiembre	2023-09-09T00:00:00	2024-11-06T01:00:00	6	Velocidad del viento	6.4
176646	7	Sololá	701	Sololá	2	El tablón	9	Septiembre	2023-09-09T00:00:00	2024-11-06T01:00:00	7	Dirección del viento	6.44
176647	7	Sololá	701	Sololá	2	El tablón	9	Septiembre	2023-09-09T00:00:00	2024-11-06T01:00:00	1	Precipitación	0
176648	7	Sololá	701	Sololá	2	El tablón	9	Septiembre	2023-09-09T00:00:00	2024-11-06T01:00:00	8	Radiación solar	0
176649	7	Sololá	701	Sololá	2	El tablón	9	Septiembre	2023-09-09T00:00:00	2024-11-06T02:00:00	2	Temperatura media	13.3
176650	7	Sololá	701	Sololá	2	El tablón	9	Septiembre	2023-09-09T00:00:00	2024-11-06T02:00:00	4	Temperatura máxima	13.3
176651	7	Sololá	701	Sololá	2	El tablón	9	Septiembre	2023-09-09T00:00:00	2024-11-06T02:00:00	3	Temperatura mínima	13.3
176652	7	Sololá	701	Sololá	2	El tablón	9	Septiembre	2023-09-09T00:00:00	2024-11-06T02:00:00	5	Humedad	88
176653	7	Sololá	701	Sololá	2	El tablón	9	Septiembre	2023-09-09T00:00:00	2024-11-06T02:00:00	6	Velocidad del viento	6.4
176654	7	Sololá	701	Sololá	2	El tablón	9	Septiembre	2023-09-09T00:00:00	2024-11-06T02:00:00	7	Dirección del viento	6.44
176655	7	Sololá	701	Sololá	2	El tablón	9	Septiembre	2023-09-09T00:00:00	2024-11-06T02:00:00	1	Precipitación	0
176656	7	Sololá	701	Sololá	2	El tablón	9	Septiembre	2023-09-09T00:00:00	2024-11-06T02:00:00	8	Radiación solar	0
176657	7	Sololá	701	Sololá	2	El tablón	9	Septiembre	2023-09-09T00:00:00	2024-11-06T03:00:00	2	Temperatura media	13.1
176658	7	Sololá	701	Sololá	2	El tablón	9	Septiembre	2023-09-09T00:00:00	2024-11-06T03:00:00	4	Temperatura máxima	13.3
176659	7	Sololá	701	Sololá	2	El tablón	9	Septiembre	2023-09-09T00:00:00	2024-11-06T03:00:00	3	Temperatura mínima	13.1
176660	7	Sololá	701	Sololá	2	El tablón	9	Septiembre	2023-09-09T00:00:00	2024-11-06T03:00:00	5	Humedad	89
176661	7	Sololá	701	Sololá	2	El tablón	9	Septiembre	2023-09-09T00:00:00	2024-11-06T03:00:00	6	Velocidad del viento	6.4
176662	7	Sololá	701	Sololá	2	El tablón	9	Septiembre	2023-09-09T00:00:00	2024-11-06T03:00:00	7	Dirección del viento	6.44
176663	7	Sololá	701	Sololá	2	El tablón	9	Septiembre	2023-09-09T00:00:00	2024-11-06T03:00:00	1	Precipitación	0.2
176664	7	Sololá	701	Sololá	2	El tablón	9	Septiembre	2023-09-09T00:00:00	2024-11-06T03:00:00	8	Radiación solar	0
176665	7	Sololá	701	Sololá	2	El tablón	9	Septiembre	2023-09-09T00:00:00	2024-11-06T04:00:00	2	Temperatura media	12.7
176666	7	Sololá	701	Sololá	2	El tablón	9	Septiembre	2023-09-09T00:00:00	2024-11-06T04:00:00	4	Temperatura máxima	13.2
176667	7	Sololá	701	Sololá	2	El tablón	9	Septiembre	2023-09-09T00:00:00	2024-11-06T04:00:00	3	Temperatura mínima	12.7
176668	7	Sololá	701	Sololá	2	El tablón	9	Septiembre	2023-09-09T00:00:00	2024-11-06T04:00:00	5	Humedad	88
176669	7	Sololá	701	Sololá	2	El tablón	9	Septiembre	2023-09-09T00:00:00	2024-11-06T04:00:00	6	Velocidad del viento	6.4
176670	7	Sololá	701	Sololá	2	El tablón	9	Septiembre	2023-09-09T00:00:00	2024-11-06T04:00:00	7	Dirección del viento	6.44
176671	7	Sololá	701	Sololá	2	El tablón	9	Septiembre	2023-09-09T00:00:00	2024-11-06T04:00:00	1	Precipitación	0
176672	7	Sololá	701	Sololá	2	El tablón	9	Septiembre	2023-09-09T00:00:00	2024-11-06T04:00:00	8	Radiación solar	0
176673	7	Sololá	701	Sololá	2	El tablón	9	Septiembre	2023-09-09T00:00:00	2024-11-06T05:00:00	2	Temperatura media	12
176674	7	Sololá	701	Sololá	2	El tablón	9	Septiembre	2023-09-09T00:00:00	2024-11-06T05:00:00	4	Temperatura máxima	12.7
176675	7	Sololá	701	Sololá	2	El tablón	9	Septiembre	2023-09-09T00:00:00	2024-11-06T05:00:00	3	Temperatura mínima	12
176676	7	Sololá	701	Sololá	2	El tablón	9	Septiembre	2023-09-09T00:00:00	2024-11-06T05:00:00	5	Humedad	88
176677	7	Sololá	701	Sololá	2	El tablón	9	Septiembre	2023-09-09T00:00:00	2024-11-06T05:00:00	6	Velocidad del viento	3.2
176678	7	Sololá	701	Sololá	2	El tablón	9	Septiembre	2023-09-09T00:00:00	2024-11-06T05:00:00	7	Dirección del viento	3.22
176679	7	Sololá	701	Sololá	2	El tablón	9	Septiembre	2023-09-09T00:00:00	2024-11-06T05:00:00	1	Precipitación	0.4
176680	7	Sololá	701	Sololá	2	El tablón	9	Septiembre	2023-09-09T00:00:00	2024-11-06T05:00:00	8	Radiación solar	0
176681	7	Sololá	701	Sololá	2	El tablón	9	Septiembre	2023-09-09T00:00:00	2024-11-06T06:00:00	2	Temperatura media	12.3
176682	7	Sololá	701	Sololá	2	El tablón	9	Septiembre	2023-09-09T00:00:00	2024-11-06T06:00:00	4	Temperatura máxima	12.4
176683	7	Sololá	701	Sololá	2	El tablón	9	Septiembre	2023-09-09T00:00:00	2024-11-06T06:00:00	3	Temperatura mínima	11.8
176684	7	Sololá	701	Sololá	2	El tablón	9	Septiembre	2023-09-09T00:00:00	2024-11-06T06:00:00	5	Humedad	86
176685	7	Sololá	701	Sololá	2	El tablón	9	Septiembre	2023-09-09T00:00:00	2024-11-06T06:00:00	6	Velocidad del viento	4.8
176686	7	Sololá	701	Sololá	2	El tablón	9	Septiembre	2023-09-09T00:00:00	2024-11-06T06:00:00	7	Dirección del viento	4.83
176687	7	Sololá	701	Sololá	2	El tablón	9	Septiembre	2023-09-09T00:00:00	2024-11-06T06:00:00	1	Precipitación	0
176688	7	Sololá	701	Sololá	2	El tablón	9	Septiembre	2023-09-09T00:00:00	2024-11-06T06:00:00	8	Radiación solar	1
176689	7	Sololá	701	Sololá	2	El tablón	9	Septiembre	2023-09-09T00:00:00	2024-11-06T07:00:00	2	Temperatura media	13.4
176690	7	Sololá	701	Sololá	2	El tablón	9	Septiembre	2023-09-09T00:00:00	2024-11-06T07:00:00	4	Temperatura máxima	13.4
176691	7	Sololá	701	Sololá	2	El tablón	9	Septiembre	2023-09-09T00:00:00	2024-11-06T07:00:00	3	Temperatura mínima	12.3
176692	7	Sololá	701	Sololá	2	El tablón	9	Septiembre	2023-09-09T00:00:00	2024-11-06T07:00:00	5	Humedad	86
176693	7	Sololá	701	Sololá	2	El tablón	9	Septiembre	2023-09-09T00:00:00	2024-11-06T07:00:00	6	Velocidad del viento	3.2
176694	7	Sololá	701	Sololá	2	El tablón	9	Septiembre	2023-09-09T00:00:00	2024-11-06T07:00:00	7	Dirección del viento	3.22
176695	7	Sololá	701	Sololá	2	El tablón	9	Septiembre	2023-09-09T00:00:00	2024-11-06T07:00:00	1	Precipitación	0
176696	7	Sololá	701	Sololá	2	El tablón	9	Septiembre	2023-09-09T00:00:00	2024-11-06T07:00:00	8	Radiación solar	64
176697	7	Sololá	701	Sololá	2	El tablón	9	Septiembre	2023-09-09T00:00:00	2024-11-06T08:00:00	2	Temperatura media	15.8
176698	7	Sololá	701	Sololá	2	El tablón	9	Septiembre	2023-09-09T00:00:00	2024-11-06T08:00:00	4	Temperatura máxima	15.8
176699	7	Sololá	701	Sololá	2	El tablón	9	Septiembre	2023-09-09T00:00:00	2024-11-06T08:00:00	3	Temperatura mínima	13.4
176700	7	Sololá	701	Sololá	2	El tablón	9	Septiembre	2023-09-09T00:00:00	2024-11-06T08:00:00	5	Humedad	78
176701	7	Sololá	701	Sololá	2	El tablón	9	Septiembre	2023-09-09T00:00:00	2024-11-06T08:00:00	6	Velocidad del viento	1.6
176702	7	Sololá	701	Sololá	2	El tablón	9	Septiembre	2023-09-09T00:00:00	2024-11-06T08:00:00	7	Dirección del viento	1.61
176703	7	Sololá	701	Sololá	2	El tablón	9	Septiembre	2023-09-09T00:00:00	2024-11-06T08:00:00	1	Precipitación	0
176704	7	Sololá	701	Sololá	2	El tablón	9	Septiembre	2023-09-09T00:00:00	2024-11-06T08:00:00	8	Radiación solar	270
176705	7	Sololá	701	Sololá	2	El tablón	9	Septiembre	2023-09-09T00:00:00	2024-11-06T09:00:00	2	Temperatura media	16.2
176706	7	Sololá	701	Sololá	2	El tablón	9	Septiembre	2023-09-09T00:00:00	2024-11-06T09:00:00	4	Temperatura máxima	16.3
176707	7	Sololá	701	Sololá	2	El tablón	9	Septiembre	2023-09-09T00:00:00	2024-11-06T09:00:00	3	Temperatura mínima	15.1
176708	7	Sololá	701	Sololá	2	El tablón	9	Septiembre	2023-09-09T00:00:00	2024-11-06T09:00:00	5	Humedad	77
176709	7	Sololá	701	Sololá	2	El tablón	9	Septiembre	2023-09-09T00:00:00	2024-11-06T09:00:00	6	Velocidad del viento	3.2
176710	7	Sololá	701	Sololá	2	El tablón	9	Septiembre	2023-09-09T00:00:00	2024-11-06T09:00:00	7	Dirección del viento	3.22
176711	7	Sololá	701	Sololá	2	El tablón	9	Septiembre	2023-09-09T00:00:00	2024-11-06T09:00:00	1	Precipitación	0
176712	7	Sololá	701	Sololá	2	El tablón	9	Septiembre	2023-09-09T00:00:00	2024-11-06T09:00:00	8	Radiación solar	315
176713	7	Sololá	701	Sololá	2	El tablón	9	Septiembre	2023-09-09T00:00:00	2024-11-06T10:00:00	2	Temperatura media	16.6
176714	7	Sololá	701	Sololá	2	El tablón	9	Septiembre	2023-09-09T00:00:00	2024-11-06T10:00:00	4	Temperatura máxima	16.8
176715	7	Sololá	701	Sololá	2	El tablón	9	Septiembre	2023-09-09T00:00:00	2024-11-06T10:00:00	3	Temperatura mínima	16.2
176716	7	Sololá	701	Sololá	2	El tablón	9	Septiembre	2023-09-09T00:00:00	2024-11-06T10:00:00	5	Humedad	82
176717	7	Sololá	701	Sololá	2	El tablón	9	Septiembre	2023-09-09T00:00:00	2024-11-06T10:00:00	6	Velocidad del viento	3.2
176718	7	Sololá	701	Sololá	2	El tablón	9	Septiembre	2023-09-09T00:00:00	2024-11-06T10:00:00	7	Dirección del viento	3.22
176719	7	Sololá	701	Sololá	2	El tablón	9	Septiembre	2023-09-09T00:00:00	2024-11-06T10:00:00	1	Precipitación	0
176720	7	Sololá	701	Sololá	2	El tablón	9	Septiembre	2023-09-09T00:00:00	2024-11-06T10:00:00	8	Radiación solar	338
176721	7	Sololá	701	Sololá	2	El tablón	9	Septiembre	2023-09-09T00:00:00	2024-11-06T11:00:00	2	Temperatura media	17.4
176722	7	Sololá	701	Sololá	2	El tablón	9	Septiembre	2023-09-09T00:00:00	2024-11-06T11:00:00	4	Temperatura máxima	17.4
176723	7	Sololá	701	Sololá	2	El tablón	9	Septiembre	2023-09-09T00:00:00	2024-11-06T11:00:00	3	Temperatura mínima	15.9
176724	7	Sololá	701	Sololá	2	El tablón	9	Septiembre	2023-09-09T00:00:00	2024-11-06T11:00:00	5	Humedad	79
176725	7	Sololá	701	Sololá	2	El tablón	9	Septiembre	2023-09-09T00:00:00	2024-11-06T11:00:00	6	Velocidad del viento	3.2
176726	7	Sololá	701	Sololá	2	El tablón	9	Septiembre	2023-09-09T00:00:00	2024-11-06T11:00:00	7	Dirección del viento	3.22
176727	7	Sololá	701	Sololá	2	El tablón	9	Septiembre	2023-09-09T00:00:00	2024-11-06T11:00:00	1	Precipitación	0
176728	7	Sololá	701	Sololá	2	El tablón	9	Septiembre	2023-09-09T00:00:00	2024-11-06T11:00:00	8	Radiación solar	301
176729	7	Sololá	701	Sololá	2	El tablón	9	Septiembre	2023-09-09T00:00:00	2024-11-06T12:00:00	2	Temperatura media	17.9
176730	7	Sololá	701	Sololá	2	El tablón	9	Septiembre	2023-09-09T00:00:00	2024-11-06T12:00:00	4	Temperatura máxima	18
176731	7	Sololá	701	Sololá	2	El tablón	9	Septiembre	2023-09-09T00:00:00	2024-11-06T12:00:00	3	Temperatura mínima	16.7
176732	7	Sololá	701	Sololá	2	El tablón	9	Septiembre	2023-09-09T00:00:00	2024-11-06T12:00:00	5	Humedad	77
176733	7	Sololá	701	Sololá	2	El tablón	9	Septiembre	2023-09-09T00:00:00	2024-11-06T12:00:00	6	Velocidad del viento	4.8
176734	7	Sololá	701	Sololá	2	El tablón	9	Septiembre	2023-09-09T00:00:00	2024-11-06T12:00:00	7	Dirección del viento	4.83
176735	7	Sololá	701	Sololá	2	El tablón	9	Septiembre	2023-09-09T00:00:00	2024-11-06T12:00:00	1	Precipitación	0
176736	7	Sololá	701	Sololá	2	El tablón	9	Septiembre	2023-09-09T00:00:00	2024-11-06T12:00:00	8	Radiación solar	412
176737	7	Sololá	701	Sololá	2	El tablón	9	Septiembre	2023-09-09T00:00:00	2024-11-06T13:00:00	2	Temperatura media	16.8
176738	7	Sololá	701	Sololá	2	El tablón	9	Septiembre	2023-09-09T00:00:00	2024-11-06T13:00:00	4	Temperatura máxima	17.9
176739	7	Sololá	701	Sololá	2	El tablón	9	Septiembre	2023-09-09T00:00:00	2024-11-06T13:00:00	3	Temperatura mínima	16.7
176740	7	Sololá	701	Sololá	2	El tablón	9	Septiembre	2023-09-09T00:00:00	2024-11-06T13:00:00	5	Humedad	83
176741	7	Sololá	701	Sololá	2	El tablón	9	Septiembre	2023-09-09T00:00:00	2024-11-06T13:00:00	6	Velocidad del viento	3.2
176742	7	Sololá	701	Sololá	2	El tablón	9	Septiembre	2023-09-09T00:00:00	2024-11-06T13:00:00	7	Dirección del viento	3.22
176743	7	Sololá	701	Sololá	2	El tablón	9	Septiembre	2023-09-09T00:00:00	2024-11-06T13:00:00	1	Precipitación	0
176744	7	Sololá	701	Sololá	2	El tablón	9	Septiembre	2023-09-09T00:00:00	2024-11-06T13:00:00	8	Radiación solar	197
176745	7	Sololá	701	Sololá	2	El tablón	9	Septiembre	2023-09-09T00:00:00	2024-11-06T14:00:00	2	Temperatura media	17.1
176746	7	Sololá	701	Sololá	2	El tablón	9	Septiembre	2023-09-09T00:00:00	2024-11-06T14:00:00	4	Temperatura máxima	17.7
176747	7	Sololá	701	Sololá	2	El tablón	9	Septiembre	2023-09-09T00:00:00	2024-11-06T14:00:00	3	Temperatura mínima	16.8
176748	7	Sololá	701	Sololá	2	El tablón	9	Septiembre	2023-09-09T00:00:00	2024-11-06T14:00:00	5	Humedad	85
176749	7	Sololá	701	Sololá	2	El tablón	9	Septiembre	2023-09-09T00:00:00	2024-11-06T14:00:00	6	Velocidad del viento	3.2
176750	7	Sololá	701	Sololá	2	El tablón	9	Septiembre	2023-09-09T00:00:00	2024-11-06T14:00:00	7	Dirección del viento	3.22
176751	7	Sololá	701	Sololá	2	El tablón	9	Septiembre	2023-09-09T00:00:00	2024-11-06T14:00:00	1	Precipitación	0
176752	7	Sololá	701	Sololá	2	El tablón	9	Septiembre	2023-09-09T00:00:00	2024-11-06T14:00:00	8	Radiación solar	217
176753	7	Sololá	701	Sololá	2	El tablón	9	Septiembre	2023-09-09T00:00:00	2024-11-06T15:00:00	2	Temperatura media	16.2
176754	7	Sololá	701	Sololá	2	El tablón	9	Septiembre	2023-09-09T00:00:00	2024-11-06T15:00:00	4	Temperatura máxima	17.2
176755	7	Sololá	701	Sololá	2	El tablón	9	Septiembre	2023-09-09T00:00:00	2024-11-06T15:00:00	3	Temperatura mínima	16.2
176756	7	Sololá	701	Sololá	2	El tablón	9	Septiembre	2023-09-09T00:00:00	2024-11-06T15:00:00	5	Humedad	87
176757	7	Sololá	701	Sololá	2	El tablón	9	Septiembre	2023-09-09T00:00:00	2024-11-06T15:00:00	6	Velocidad del viento	3.2
176758	7	Sololá	701	Sololá	2	El tablón	9	Septiembre	2023-09-09T00:00:00	2024-11-06T15:00:00	7	Dirección del viento	3.22
176759	7	Sololá	701	Sololá	2	El tablón	9	Septiembre	2023-09-09T00:00:00	2024-11-06T15:00:00	1	Precipitación	0.6
176760	7	Sololá	701	Sololá	2	El tablón	9	Septiembre	2023-09-09T00:00:00	2024-11-06T15:00:00	8	Radiación solar	142
176761	7	Sololá	701	Sololá	2	El tablón	9	Septiembre	2023-09-09T00:00:00	2024-11-06T16:00:00	2	Temperatura media	14.6
176762	7	Sololá	701	Sololá	2	El tablón	9	Septiembre	2023-09-09T00:00:00	2024-11-06T16:00:00	4	Temperatura máxima	16.2
176763	7	Sololá	701	Sololá	2	El tablón	9	Septiembre	2023-09-09T00:00:00	2024-11-06T16:00:00	3	Temperatura mínima	14.6
176764	7	Sololá	701	Sololá	2	El tablón	9	Septiembre	2023-09-09T00:00:00	2024-11-06T16:00:00	5	Humedad	88
176765	7	Sololá	701	Sololá	2	El tablón	9	Septiembre	2023-09-09T00:00:00	2024-11-06T16:00:00	6	Velocidad del viento	3.2
176766	7	Sololá	701	Sololá	2	El tablón	9	Septiembre	2023-09-09T00:00:00	2024-11-06T16:00:00	7	Dirección del viento	3.22
176767	7	Sololá	701	Sololá	2	El tablón	9	Septiembre	2023-09-09T00:00:00	2024-11-06T16:00:00	1	Precipitación	0.6
176768	7	Sololá	701	Sololá	2	El tablón	9	Septiembre	2023-09-09T00:00:00	2024-11-06T16:00:00	8	Radiación solar	55
176769	7	Sololá	701	Sololá	2	El tablón	9	Septiembre	2023-09-09T00:00:00	2024-11-06T17:00:00	2	Temperatura media	13.9
176770	7	Sololá	701	Sololá	2	El tablón	9	Septiembre	2023-09-09T00:00:00	2024-11-06T17:00:00	4	Temperatura máxima	14.6
176771	7	Sololá	701	Sololá	2	El tablón	9	Septiembre	2023-09-09T00:00:00	2024-11-06T17:00:00	3	Temperatura mínima	13.9
176772	7	Sololá	701	Sololá	2	El tablón	9	Septiembre	2023-09-09T00:00:00	2024-11-06T17:00:00	5	Humedad	88
176773	7	Sololá	701	Sololá	2	El tablón	9	Septiembre	2023-09-09T00:00:00	2024-11-06T17:00:00	6	Velocidad del viento	1.6
176774	7	Sololá	701	Sololá	2	El tablón	9	Septiembre	2023-09-09T00:00:00	2024-11-06T17:00:00	7	Dirección del viento	1.61
176775	7	Sololá	701	Sololá	2	El tablón	9	Septiembre	2023-09-09T00:00:00	2024-11-06T17:00:00	1	Precipitación	0
176776	7	Sololá	701	Sololá	2	El tablón	9	Septiembre	2023-09-09T00:00:00	2024-11-06T17:00:00	8	Radiación solar	20
176777	7	Sololá	701	Sololá	2	El tablón	9	Septiembre	2023-09-09T00:00:00	2024-11-06T18:00:00	2	Temperatura media	14.3
176778	7	Sololá	701	Sololá	2	El tablón	9	Septiembre	2023-09-09T00:00:00	2024-11-06T18:00:00	4	Temperatura máxima	14.3
176779	7	Sololá	701	Sololá	2	El tablón	9	Septiembre	2023-09-09T00:00:00	2024-11-06T18:00:00	3	Temperatura mínima	13.9
176780	7	Sololá	701	Sololá	2	El tablón	9	Septiembre	2023-09-09T00:00:00	2024-11-06T18:00:00	5	Humedad	88
176781	7	Sololá	701	Sololá	2	El tablón	9	Septiembre	2023-09-09T00:00:00	2024-11-06T18:00:00	6	Velocidad del viento	1.6
176782	7	Sololá	701	Sololá	2	El tablón	9	Septiembre	2023-09-09T00:00:00	2024-11-06T18:00:00	7	Dirección del viento	1.61
176783	7	Sololá	701	Sololá	2	El tablón	9	Septiembre	2023-09-09T00:00:00	2024-11-06T18:00:00	1	Precipitación	0
176784	7	Sololá	701	Sololá	2	El tablón	9	Septiembre	2023-09-09T00:00:00	2024-11-06T18:00:00	8	Radiación solar	10
176785	7	Sololá	701	Sololá	2	El tablón	9	Septiembre	2023-09-09T00:00:00	2024-11-06T19:00:00	2	Temperatura media	14
176786	7	Sololá	701	Sololá	2	El tablón	9	Septiembre	2023-09-09T00:00:00	2024-11-06T19:00:00	4	Temperatura máxima	14.3
176787	7	Sololá	701	Sololá	2	El tablón	9	Septiembre	2023-09-09T00:00:00	2024-11-06T19:00:00	3	Temperatura mínima	13.9
176788	7	Sololá	701	Sololá	2	El tablón	9	Septiembre	2023-09-09T00:00:00	2024-11-06T19:00:00	5	Humedad	88
176789	7	Sololá	701	Sololá	2	El tablón	9	Septiembre	2023-09-09T00:00:00	2024-11-06T19:00:00	6	Velocidad del viento	1.6
176790	7	Sololá	701	Sololá	2	El tablón	9	Septiembre	2023-09-09T00:00:00	2024-11-06T19:00:00	7	Dirección del viento	1.61
176791	7	Sololá	701	Sololá	2	El tablón	9	Septiembre	2023-09-09T00:00:00	2024-11-06T19:00:00	1	Precipitación	0
176792	7	Sololá	701	Sololá	2	El tablón	9	Septiembre	2023-09-09T00:00:00	2024-11-06T19:00:00	8	Radiación solar	0
176793	7	Sololá	701	Sololá	2	El tablón	9	Septiembre	2023-09-09T00:00:00	2024-11-06T20:00:00	2	Temperatura media	14.1
176794	7	Sololá	701	Sololá	2	El tablón	9	Septiembre	2023-09-09T00:00:00	2024-11-06T20:00:00	4	Temperatura máxima	14.1
176795	7	Sololá	701	Sololá	2	El tablón	9	Septiembre	2023-09-09T00:00:00	2024-11-06T20:00:00	3	Temperatura mínima	13.8
176796	7	Sololá	701	Sololá	2	El tablón	9	Septiembre	2023-09-09T00:00:00	2024-11-06T20:00:00	5	Humedad	87
176797	7	Sololá	701	Sololá	2	El tablón	9	Septiembre	2023-09-09T00:00:00	2024-11-06T20:00:00	6	Velocidad del viento	1.6
176798	7	Sololá	701	Sololá	2	El tablón	9	Septiembre	2023-09-09T00:00:00	2024-11-06T20:00:00	7	Dirección del viento	1.61
176799	7	Sololá	701	Sololá	2	El tablón	9	Septiembre	2023-09-09T00:00:00	2024-11-06T20:00:00	1	Precipitación	0
176800	7	Sololá	701	Sololá	2	El tablón	9	Septiembre	2023-09-09T00:00:00	2024-11-06T20:00:00	8	Radiación solar	0
176801	7	Sololá	701	Sololá	2	El tablón	9	Septiembre	2023-09-09T00:00:00	2024-11-06T21:00:00	2	Temperatura media	13.8
176802	7	Sololá	701	Sololá	2	El tablón	9	Septiembre	2023-09-09T00:00:00	2024-11-06T21:00:00	4	Temperatura máxima	14.2
176803	7	Sololá	701	Sololá	2	El tablón	9	Septiembre	2023-09-09T00:00:00	2024-11-06T21:00:00	3	Temperatura mínima	13.8
176804	7	Sololá	701	Sololá	2	El tablón	9	Septiembre	2023-09-09T00:00:00	2024-11-06T21:00:00	5	Humedad	88
176805	7	Sololá	701	Sololá	2	El tablón	9	Septiembre	2023-09-09T00:00:00	2024-11-06T21:00:00	6	Velocidad del viento	1.6
176806	7	Sololá	701	Sololá	2	El tablón	9	Septiembre	2023-09-09T00:00:00	2024-11-06T21:00:00	7	Dirección del viento	1.61
176807	7	Sololá	701	Sololá	2	El tablón	9	Septiembre	2023-09-09T00:00:00	2024-11-06T21:00:00	1	Precipitación	0.2
176808	7	Sololá	701	Sololá	2	El tablón	9	Septiembre	2023-09-09T00:00:00	2024-11-06T21:00:00	8	Radiación solar	0
176809	7	Sololá	701	Sololá	2	El tablón	9	Septiembre	2023-09-09T00:00:00	2024-11-06T22:00:00	2	Temperatura media	13.9
176810	7	Sololá	701	Sololá	2	El tablón	9	Septiembre	2023-09-09T00:00:00	2024-11-06T22:00:00	4	Temperatura máxima	14
176811	7	Sololá	701	Sololá	2	El tablón	9	Septiembre	2023-09-09T00:00:00	2024-11-06T22:00:00	3	Temperatura mínima	13.8
176812	7	Sololá	701	Sololá	2	El tablón	9	Septiembre	2023-09-09T00:00:00	2024-11-06T22:00:00	5	Humedad	88
176813	7	Sololá	701	Sololá	2	El tablón	9	Septiembre	2023-09-09T00:00:00	2024-11-06T22:00:00	6	Velocidad del viento	0
176814	7	Sololá	701	Sololá	2	El tablón	9	Septiembre	2023-09-09T00:00:00	2024-11-06T22:00:00	7	Dirección del viento	0
176815	7	Sololá	701	Sololá	2	El tablón	9	Septiembre	2023-09-09T00:00:00	2024-11-06T22:00:00	1	Precipitación	0
176816	7	Sololá	701	Sololá	2	El tablón	9	Septiembre	2023-09-09T00:00:00	2024-11-06T22:00:00	8	Radiación solar	0
176817	7	Sololá	701	Sololá	2	El tablón	9	Septiembre	2023-09-09T00:00:00	2024-11-06T23:00:00	2	Temperatura media	13.4
176818	7	Sololá	701	Sololá	2	El tablón	9	Septiembre	2023-09-09T00:00:00	2024-11-06T23:00:00	4	Temperatura máxima	13.9
176819	7	Sololá	701	Sololá	2	El tablón	9	Septiembre	2023-09-09T00:00:00	2024-11-06T23:00:00	3	Temperatura mínima	13.4
176820	7	Sololá	701	Sololá	2	El tablón	9	Septiembre	2023-09-09T00:00:00	2024-11-06T23:00:00	5	Humedad	88
176821	7	Sololá	701	Sololá	2	El tablón	9	Septiembre	2023-09-09T00:00:00	2024-11-06T23:00:00	6	Velocidad del viento	1.6
176822	7	Sololá	701	Sololá	2	El tablón	9	Septiembre	2023-09-09T00:00:00	2024-11-06T23:00:00	7	Dirección del viento	1.61
176823	7	Sololá	701	Sololá	2	El tablón	9	Septiembre	2023-09-09T00:00:00	2024-11-06T23:00:00	1	Precipitación	0
176824	7	Sololá	701	Sololá	2	El tablón	9	Septiembre	2023-09-09T00:00:00	2024-11-06T23:00:00	8	Radiación solar	0
176825	7	Sololá	701	Sololá	2	El tablón	9	Septiembre	2023-10-09T00:00:00	2024-11-06T00:00:00	2	Temperatura media	13.4
176826	7	Sololá	701	Sololá	2	El tablón	9	Septiembre	2023-10-09T00:00:00	2024-11-06T00:00:00	4	Temperatura máxima	13.7
176827	7	Sololá	701	Sololá	2	El tablón	9	Septiembre	2023-10-09T00:00:00	2024-11-06T00:00:00	3	Temperatura mínima	13.4
176828	7	Sololá	701	Sololá	2	El tablón	9	Septiembre	2023-10-09T00:00:00	2024-11-06T00:00:00	5	Humedad	88
176829	7	Sololá	701	Sololá	2	El tablón	9	Septiembre	2023-10-09T00:00:00	2024-11-06T00:00:00	6	Velocidad del viento	6.4
176830	7	Sololá	701	Sololá	2	El tablón	9	Septiembre	2023-10-09T00:00:00	2024-11-06T00:00:00	7	Dirección del viento	6.44
176831	7	Sololá	701	Sololá	2	El tablón	9	Septiembre	2023-10-09T00:00:00	2024-11-06T00:00:00	1	Precipitación	0
176832	7	Sololá	701	Sololá	2	El tablón	9	Septiembre	2023-10-09T00:00:00	2024-11-06T00:00:00	8	Radiación solar	0
176833	7	Sololá	701	Sololá	2	El tablón	9	Septiembre	2023-10-09T00:00:00	2024-11-06T01:00:00	2	Temperatura media	13.3
176834	7	Sololá	701	Sololá	2	El tablón	9	Septiembre	2023-10-09T00:00:00	2024-11-06T01:00:00	4	Temperatura máxima	13.5
176835	7	Sololá	701	Sololá	2	El tablón	9	Septiembre	2023-10-09T00:00:00	2024-11-06T01:00:00	3	Temperatura mínima	13.3
176836	7	Sololá	701	Sololá	2	El tablón	9	Septiembre	2023-10-09T00:00:00	2024-11-06T01:00:00	5	Humedad	88
176837	7	Sololá	701	Sololá	2	El tablón	9	Septiembre	2023-10-09T00:00:00	2024-11-06T01:00:00	6	Velocidad del viento	4.8
176838	7	Sololá	701	Sololá	2	El tablón	9	Septiembre	2023-10-09T00:00:00	2024-11-06T01:00:00	7	Dirección del viento	4.83
176839	7	Sololá	701	Sololá	2	El tablón	9	Septiembre	2023-10-09T00:00:00	2024-11-06T01:00:00	1	Precipitación	0
176840	7	Sololá	701	Sololá	2	El tablón	9	Septiembre	2023-10-09T00:00:00	2024-11-06T01:00:00	8	Radiación solar	0
176841	7	Sololá	701	Sololá	2	El tablón	9	Septiembre	2023-10-09T00:00:00	2024-11-06T02:00:00	2	Temperatura media	13.2
176842	7	Sololá	701	Sololá	2	El tablón	9	Septiembre	2023-10-09T00:00:00	2024-11-06T02:00:00	4	Temperatura máxima	13.4
176843	7	Sololá	701	Sololá	2	El tablón	9	Septiembre	2023-10-09T00:00:00	2024-11-06T02:00:00	3	Temperatura mínima	13.2
176844	7	Sololá	701	Sololá	2	El tablón	9	Septiembre	2023-10-09T00:00:00	2024-11-06T02:00:00	5	Humedad	88
176845	7	Sololá	701	Sololá	2	El tablón	9	Septiembre	2023-10-09T00:00:00	2024-11-06T02:00:00	6	Velocidad del viento	3.2
176846	7	Sololá	701	Sololá	2	El tablón	9	Septiembre	2023-10-09T00:00:00	2024-11-06T02:00:00	7	Dirección del viento	3.22
176847	7	Sololá	701	Sololá	2	El tablón	9	Septiembre	2023-10-09T00:00:00	2024-11-06T02:00:00	1	Precipitación	0
176848	7	Sololá	701	Sololá	2	El tablón	9	Septiembre	2023-10-09T00:00:00	2024-11-06T02:00:00	8	Radiación solar	0
176849	7	Sololá	701	Sololá	2	El tablón	9	Septiembre	2023-10-09T00:00:00	2024-11-06T03:00:00	2	Temperatura media	13.1
176850	7	Sololá	701	Sololá	2	El tablón	9	Septiembre	2023-10-09T00:00:00	2024-11-06T03:00:00	4	Temperatura máxima	13.2
176851	7	Sololá	701	Sololá	2	El tablón	9	Septiembre	2023-10-09T00:00:00	2024-11-06T03:00:00	3	Temperatura mínima	13.1
176852	7	Sololá	701	Sololá	2	El tablón	9	Septiembre	2023-10-09T00:00:00	2024-11-06T03:00:00	5	Humedad	87
176853	7	Sololá	701	Sololá	2	El tablón	9	Septiembre	2023-10-09T00:00:00	2024-11-06T03:00:00	6	Velocidad del viento	3.2
176854	7	Sololá	701	Sololá	2	El tablón	9	Septiembre	2023-10-09T00:00:00	2024-11-06T03:00:00	7	Dirección del viento	3.22
176855	7	Sololá	701	Sololá	2	El tablón	9	Septiembre	2023-10-09T00:00:00	2024-11-06T03:00:00	1	Precipitación	0
176856	7	Sololá	701	Sololá	2	El tablón	9	Septiembre	2023-10-09T00:00:00	2024-11-06T03:00:00	8	Radiación solar	0
176857	7	Sololá	701	Sololá	2	El tablón	9	Septiembre	2023-10-09T00:00:00	2024-11-06T04:00:00	2	Temperatura media	12.8
176858	7	Sololá	701	Sololá	2	El tablón	9	Septiembre	2023-10-09T00:00:00	2024-11-06T04:00:00	4	Temperatura máxima	13.1
176859	7	Sololá	701	Sololá	2	El tablón	9	Septiembre	2023-10-09T00:00:00	2024-11-06T04:00:00	3	Temperatura mínima	12.8
176860	7	Sololá	701	Sololá	2	El tablón	9	Septiembre	2023-10-09T00:00:00	2024-11-06T04:00:00	5	Humedad	88
176861	7	Sololá	701	Sololá	2	El tablón	9	Septiembre	2023-10-09T00:00:00	2024-11-06T04:00:00	6	Velocidad del viento	1.6
176862	7	Sololá	701	Sololá	2	El tablón	9	Septiembre	2023-10-09T00:00:00	2024-11-06T04:00:00	7	Dirección del viento	1.61
176863	7	Sololá	701	Sololá	2	El tablón	9	Septiembre	2023-10-09T00:00:00	2024-11-06T04:00:00	1	Precipitación	0
176864	7	Sololá	701	Sololá	2	El tablón	9	Septiembre	2023-10-09T00:00:00	2024-11-06T04:00:00	8	Radiación solar	0
176865	7	Sololá	701	Sololá	2	El tablón	9	Septiembre	2023-10-09T00:00:00	2024-11-06T05:00:00	2	Temperatura media	12.7
176866	7	Sololá	701	Sololá	2	El tablón	9	Septiembre	2023-10-09T00:00:00	2024-11-06T05:00:00	4	Temperatura máxima	12.8
176867	7	Sololá	701	Sololá	2	El tablón	9	Septiembre	2023-10-09T00:00:00	2024-11-06T05:00:00	3	Temperatura mínima	12.7
176868	7	Sololá	701	Sololá	2	El tablón	9	Septiembre	2023-10-09T00:00:00	2024-11-06T05:00:00	5	Humedad	88
176869	7	Sololá	701	Sololá	2	El tablón	9	Septiembre	2023-10-09T00:00:00	2024-11-06T05:00:00	6	Velocidad del viento	3.2
176870	7	Sololá	701	Sololá	2	El tablón	9	Septiembre	2023-10-09T00:00:00	2024-11-06T05:00:00	7	Dirección del viento	3.22
176871	7	Sololá	701	Sololá	2	El tablón	9	Septiembre	2023-10-09T00:00:00	2024-11-06T05:00:00	1	Precipitación	0
176872	7	Sololá	701	Sololá	2	El tablón	9	Septiembre	2023-10-09T00:00:00	2024-11-06T05:00:00	8	Radiación solar	0
176873	7	Sololá	701	Sololá	2	El tablón	9	Septiembre	2023-10-09T00:00:00	2024-11-06T06:00:00	2	Temperatura media	12.8
176874	7	Sololá	701	Sololá	2	El tablón	9	Septiembre	2023-10-09T00:00:00	2024-11-06T06:00:00	4	Temperatura máxima	12.8
176875	7	Sololá	701	Sololá	2	El tablón	9	Septiembre	2023-10-09T00:00:00	2024-11-06T06:00:00	3	Temperatura mínima	12.7
176876	7	Sololá	701	Sololá	2	El tablón	9	Septiembre	2023-10-09T00:00:00	2024-11-06T06:00:00	5	Humedad	88
176877	7	Sololá	701	Sololá	2	El tablón	9	Septiembre	2023-10-09T00:00:00	2024-11-06T06:00:00	6	Velocidad del viento	8
176878	7	Sololá	701	Sololá	2	El tablón	9	Septiembre	2023-10-09T00:00:00	2024-11-06T06:00:00	7	Dirección del viento	8.05
176879	7	Sololá	701	Sololá	2	El tablón	9	Septiembre	2023-10-09T00:00:00	2024-11-06T06:00:00	1	Precipitación	0
176880	7	Sololá	701	Sololá	2	El tablón	9	Septiembre	2023-10-09T00:00:00	2024-11-06T06:00:00	8	Radiación solar	0
176881	7	Sololá	701	Sololá	2	El tablón	9	Septiembre	2023-10-09T00:00:00	2024-11-06T07:00:00	2	Temperatura media	13.4
176882	7	Sololá	701	Sololá	2	El tablón	9	Septiembre	2023-10-09T00:00:00	2024-11-06T07:00:00	4	Temperatura máxima	13.4
176883	7	Sololá	701	Sololá	2	El tablón	9	Septiembre	2023-10-09T00:00:00	2024-11-06T07:00:00	3	Temperatura mínima	12.8
176884	7	Sololá	701	Sololá	2	El tablón	9	Septiembre	2023-10-09T00:00:00	2024-11-06T07:00:00	5	Humedad	87
176885	7	Sololá	701	Sololá	2	El tablón	9	Septiembre	2023-10-09T00:00:00	2024-11-06T07:00:00	6	Velocidad del viento	6.4
176886	7	Sololá	701	Sololá	2	El tablón	9	Septiembre	2023-10-09T00:00:00	2024-11-06T07:00:00	7	Dirección del viento	6.44
176887	7	Sololá	701	Sololá	2	El tablón	9	Septiembre	2023-10-09T00:00:00	2024-11-06T07:00:00	1	Precipitación	0
176888	7	Sololá	701	Sololá	2	El tablón	9	Septiembre	2023-10-09T00:00:00	2024-11-06T07:00:00	8	Radiación solar	21
176889	7	Sololá	701	Sololá	2	El tablón	9	Septiembre	2023-10-09T00:00:00	2024-11-06T08:00:00	2	Temperatura media	14.3
176890	7	Sololá	701	Sololá	2	El tablón	9	Septiembre	2023-10-09T00:00:00	2024-11-06T08:00:00	4	Temperatura máxima	14.3
176891	7	Sololá	701	Sololá	2	El tablón	9	Septiembre	2023-10-09T00:00:00	2024-11-06T08:00:00	3	Temperatura mínima	13.4
176892	7	Sololá	701	Sololá	2	El tablón	9	Septiembre	2023-10-09T00:00:00	2024-11-06T08:00:00	5	Humedad	85
176893	7	Sololá	701	Sololá	2	El tablón	9	Septiembre	2023-10-09T00:00:00	2024-11-06T08:00:00	6	Velocidad del viento	6.4
176894	7	Sololá	701	Sololá	2	El tablón	9	Septiembre	2023-10-09T00:00:00	2024-11-06T08:00:00	7	Dirección del viento	6.44
176895	7	Sololá	701	Sololá	2	El tablón	9	Septiembre	2023-10-09T00:00:00	2024-11-06T08:00:00	1	Precipitación	0
176896	7	Sololá	701	Sololá	2	El tablón	9	Septiembre	2023-10-09T00:00:00	2024-11-06T08:00:00	8	Radiación solar	100
176897	7	Sololá	701	Sololá	2	El tablón	9	Septiembre	2023-10-09T00:00:00	2024-11-06T09:00:00	2	Temperatura media	14.7
176898	7	Sololá	701	Sololá	2	El tablón	9	Septiembre	2023-10-09T00:00:00	2024-11-06T09:00:00	4	Temperatura máxima	14.7
176899	7	Sololá	701	Sololá	2	El tablón	9	Septiembre	2023-10-09T00:00:00	2024-11-06T09:00:00	3	Temperatura mínima	14.3
176900	7	Sololá	701	Sololá	2	El tablón	9	Septiembre	2023-10-09T00:00:00	2024-11-06T09:00:00	5	Humedad	85
176901	7	Sololá	701	Sololá	2	El tablón	9	Septiembre	2023-10-09T00:00:00	2024-11-06T09:00:00	6	Velocidad del viento	4.8
176902	7	Sololá	701	Sololá	2	El tablón	9	Septiembre	2023-10-09T00:00:00	2024-11-06T09:00:00	7	Dirección del viento	4.83
176903	7	Sololá	701	Sololá	2	El tablón	9	Septiembre	2023-10-09T00:00:00	2024-11-06T09:00:00	1	Precipitación	0
176904	7	Sololá	701	Sololá	2	El tablón	9	Septiembre	2023-10-09T00:00:00	2024-11-06T09:00:00	8	Radiación solar	183
176905	7	Sololá	701	Sololá	2	El tablón	9	Septiembre	2023-10-09T00:00:00	2024-11-06T10:00:00	2	Temperatura media	16.4
176906	7	Sololá	701	Sololá	2	El tablón	9	Septiembre	2023-10-09T00:00:00	2024-11-06T10:00:00	4	Temperatura máxima	16.4
176907	7	Sololá	701	Sololá	2	El tablón	9	Septiembre	2023-10-09T00:00:00	2024-11-06T10:00:00	3	Temperatura mínima	14.7
176908	7	Sololá	701	Sololá	2	El tablón	9	Septiembre	2023-10-09T00:00:00	2024-11-06T10:00:00	5	Humedad	80
176909	7	Sololá	701	Sololá	2	El tablón	9	Septiembre	2023-10-09T00:00:00	2024-11-06T10:00:00	6	Velocidad del viento	8
176910	7	Sololá	701	Sololá	2	El tablón	9	Septiembre	2023-10-09T00:00:00	2024-11-06T10:00:00	7	Dirección del viento	8.05
176911	7	Sololá	701	Sololá	2	El tablón	9	Septiembre	2023-10-09T00:00:00	2024-11-06T10:00:00	1	Precipitación	0
176912	7	Sololá	701	Sololá	2	El tablón	9	Septiembre	2023-10-09T00:00:00	2024-11-06T10:00:00	8	Radiación solar	342
176913	7	Sololá	701	Sololá	2	El tablón	9	Septiembre	2023-10-09T00:00:00	2024-11-06T11:00:00	2	Temperatura media	18.8
176914	7	Sololá	701	Sololá	2	El tablón	9	Septiembre	2023-10-09T00:00:00	2024-11-06T11:00:00	4	Temperatura máxima	18.9
176915	7	Sololá	701	Sololá	2	El tablón	9	Septiembre	2023-10-09T00:00:00	2024-11-06T11:00:00	3	Temperatura mínima	16.4
176916	7	Sololá	701	Sololá	2	El tablón	9	Septiembre	2023-10-09T00:00:00	2024-11-06T11:00:00	5	Humedad	69
176917	7	Sololá	701	Sololá	2	El tablón	9	Septiembre	2023-10-09T00:00:00	2024-11-06T11:00:00	6	Velocidad del viento	4.8
176918	7	Sololá	701	Sololá	2	El tablón	9	Septiembre	2023-10-09T00:00:00	2024-11-06T11:00:00	7	Dirección del viento	4.83
176919	7	Sololá	701	Sololá	2	El tablón	9	Septiembre	2023-10-09T00:00:00	2024-11-06T11:00:00	1	Precipitación	0
176920	7	Sololá	701	Sololá	2	El tablón	9	Septiembre	2023-10-09T00:00:00	2024-11-06T11:00:00	8	Radiación solar	645
176921	7	Sololá	701	Sololá	2	El tablón	9	Septiembre	2023-10-09T00:00:00	2024-11-06T12:00:00	2	Temperatura media	18.1
176922	7	Sololá	701	Sololá	2	El tablón	9	Septiembre	2023-10-09T00:00:00	2024-11-06T12:00:00	4	Temperatura máxima	19.1
176923	7	Sololá	701	Sololá	2	El tablón	9	Septiembre	2023-10-09T00:00:00	2024-11-06T12:00:00	3	Temperatura mínima	18.1
176924	7	Sololá	701	Sololá	2	El tablón	9	Septiembre	2023-10-09T00:00:00	2024-11-06T12:00:00	5	Humedad	78
176925	7	Sololá	701	Sololá	2	El tablón	9	Septiembre	2023-10-09T00:00:00	2024-11-06T12:00:00	6	Velocidad del viento	4.8
176926	7	Sololá	701	Sololá	2	El tablón	9	Septiembre	2023-10-09T00:00:00	2024-11-06T12:00:00	7	Dirección del viento	4.83
176927	7	Sololá	701	Sololá	2	El tablón	9	Septiembre	2023-10-09T00:00:00	2024-11-06T12:00:00	1	Precipitación	0
176928	7	Sololá	701	Sololá	2	El tablón	9	Septiembre	2023-10-09T00:00:00	2024-11-06T12:00:00	8	Radiación solar	381
176929	7	Sololá	701	Sololá	2	El tablón	9	Septiembre	2023-10-09T00:00:00	2024-11-06T13:00:00	2	Temperatura media	18.3
176930	7	Sololá	701	Sololá	2	El tablón	9	Septiembre	2023-10-09T00:00:00	2024-11-06T13:00:00	4	Temperatura máxima	19.2
176931	7	Sololá	701	Sololá	2	El tablón	9	Septiembre	2023-10-09T00:00:00	2024-11-06T13:00:00	3	Temperatura mínima	18.1
176932	7	Sololá	701	Sololá	2	El tablón	9	Septiembre	2023-10-09T00:00:00	2024-11-06T13:00:00	5	Humedad	79
176933	7	Sololá	701	Sololá	2	El tablón	9	Septiembre	2023-10-09T00:00:00	2024-11-06T13:00:00	6	Velocidad del viento	6.4
176934	7	Sololá	701	Sololá	2	El tablón	9	Septiembre	2023-10-09T00:00:00	2024-11-06T13:00:00	7	Dirección del viento	6.44
176935	7	Sololá	701	Sololá	2	El tablón	9	Septiembre	2023-10-09T00:00:00	2024-11-06T13:00:00	1	Precipitación	0
176936	7	Sololá	701	Sololá	2	El tablón	9	Septiembre	2023-10-09T00:00:00	2024-11-06T13:00:00	8	Radiación solar	471
176937	7	Sololá	701	Sololá	2	El tablón	9	Septiembre	2023-10-09T00:00:00	2024-11-06T14:00:00	2	Temperatura media	19.4
176938	7	Sololá	701	Sololá	2	El tablón	9	Septiembre	2023-10-09T00:00:00	2024-11-06T14:00:00	4	Temperatura máxima	20.5
176939	7	Sololá	701	Sololá	2	El tablón	9	Septiembre	2023-10-09T00:00:00	2024-11-06T14:00:00	3	Temperatura mínima	18.2
176940	7	Sololá	701	Sololá	2	El tablón	9	Septiembre	2023-10-09T00:00:00	2024-11-06T14:00:00	5	Humedad	81
176941	7	Sololá	701	Sololá	2	El tablón	9	Septiembre	2023-10-09T00:00:00	2024-11-06T14:00:00	6	Velocidad del viento	6.4
176942	7	Sololá	701	Sololá	2	El tablón	9	Septiembre	2023-10-09T00:00:00	2024-11-06T14:00:00	7	Dirección del viento	6.44
176943	7	Sololá	701	Sololá	2	El tablón	9	Septiembre	2023-10-09T00:00:00	2024-11-06T14:00:00	1	Precipitación	0
176944	7	Sololá	701	Sololá	2	El tablón	9	Septiembre	2023-10-09T00:00:00	2024-11-06T14:00:00	8	Radiación solar	566
176945	7	Sololá	701	Sololá	2	El tablón	9	Septiembre	2023-10-09T00:00:00	2024-11-06T15:00:00	2	Temperatura media	18.9
176946	7	Sololá	701	Sololá	2	El tablón	9	Septiembre	2023-10-09T00:00:00	2024-11-06T15:00:00	4	Temperatura máxima	20
176947	7	Sololá	701	Sololá	2	El tablón	9	Septiembre	2023-10-09T00:00:00	2024-11-06T15:00:00	3	Temperatura mínima	18.3
176948	7	Sololá	701	Sololá	2	El tablón	9	Septiembre	2023-10-09T00:00:00	2024-11-06T15:00:00	5	Humedad	83
176949	7	Sololá	701	Sololá	2	El tablón	9	Septiembre	2023-10-09T00:00:00	2024-11-06T15:00:00	6	Velocidad del viento	4.8
176950	7	Sololá	701	Sololá	2	El tablón	9	Septiembre	2023-10-09T00:00:00	2024-11-06T15:00:00	7	Dirección del viento	4.83
176951	7	Sololá	701	Sololá	2	El tablón	9	Septiembre	2023-10-09T00:00:00	2024-11-06T15:00:00	1	Precipitación	0
176952	7	Sololá	701	Sololá	2	El tablón	9	Septiembre	2023-10-09T00:00:00	2024-11-06T15:00:00	8	Radiación solar	535
176953	7	Sololá	701	Sololá	2	El tablón	9	Septiembre	2023-10-09T00:00:00	2024-11-06T16:00:00	2	Temperatura media	17.4
176954	7	Sololá	701	Sololá	2	El tablón	9	Septiembre	2023-10-09T00:00:00	2024-11-06T16:00:00	4	Temperatura máxima	18.9
176955	7	Sololá	701	Sololá	2	El tablón	9	Septiembre	2023-10-09T00:00:00	2024-11-06T16:00:00	3	Temperatura mínima	17.4
176956	7	Sololá	701	Sololá	2	El tablón	9	Septiembre	2023-10-09T00:00:00	2024-11-06T16:00:00	5	Humedad	83
176957	7	Sololá	701	Sololá	2	El tablón	9	Septiembre	2023-10-09T00:00:00	2024-11-06T16:00:00	6	Velocidad del viento	4.8
176958	7	Sololá	701	Sololá	2	El tablón	9	Septiembre	2023-10-09T00:00:00	2024-11-06T16:00:00	7	Dirección del viento	4.83
176959	7	Sololá	701	Sololá	2	El tablón	9	Septiembre	2023-10-09T00:00:00	2024-11-06T16:00:00	1	Precipitación	0
176960	7	Sololá	701	Sololá	2	El tablón	9	Septiembre	2023-10-09T00:00:00	2024-11-06T16:00:00	8	Radiación solar	229
176961	7	Sololá	701	Sololá	2	El tablón	9	Septiembre	2023-10-09T00:00:00	2024-11-06T17:00:00	2	Temperatura media	16.8
176962	7	Sololá	701	Sololá	2	El tablón	9	Septiembre	2023-10-09T00:00:00	2024-11-06T17:00:00	4	Temperatura máxima	17.7
176963	7	Sololá	701	Sololá	2	El tablón	9	Septiembre	2023-10-09T00:00:00	2024-11-06T17:00:00	3	Temperatura mínima	16.8
176964	7	Sololá	701	Sololá	2	El tablón	9	Septiembre	2023-10-09T00:00:00	2024-11-06T17:00:00	5	Humedad	87
176965	7	Sololá	701	Sololá	2	El tablón	9	Septiembre	2023-10-09T00:00:00	2024-11-06T17:00:00	6	Velocidad del viento	3.2
176966	7	Sololá	701	Sololá	2	El tablón	9	Septiembre	2023-10-09T00:00:00	2024-11-06T17:00:00	7	Dirección del viento	3.22
176967	7	Sololá	701	Sololá	2	El tablón	9	Septiembre	2023-10-09T00:00:00	2024-11-06T17:00:00	1	Precipitación	0
176968	7	Sololá	701	Sololá	2	El tablón	9	Septiembre	2023-10-09T00:00:00	2024-11-06T17:00:00	8	Radiación solar	111
176969	7	Sololá	701	Sololá	2	El tablón	9	Septiembre	2023-10-09T00:00:00	2024-11-06T18:00:00	2	Temperatura media	15.4
176970	7	Sololá	701	Sololá	2	El tablón	9	Septiembre	2023-10-09T00:00:00	2024-11-06T18:00:00	4	Temperatura máxima	16.8
176971	7	Sololá	701	Sololá	2	El tablón	9	Septiembre	2023-10-09T00:00:00	2024-11-06T18:00:00	3	Temperatura mínima	15.4
176972	7	Sololá	701	Sololá	2	El tablón	9	Septiembre	2023-10-09T00:00:00	2024-11-06T18:00:00	5	Humedad	88
176973	7	Sololá	701	Sololá	2	El tablón	9	Septiembre	2023-10-09T00:00:00	2024-11-06T18:00:00	6	Velocidad del viento	3.2
176974	7	Sololá	701	Sololá	2	El tablón	9	Septiembre	2023-10-09T00:00:00	2024-11-06T18:00:00	7	Dirección del viento	3.22
176975	7	Sololá	701	Sololá	2	El tablón	9	Septiembre	2023-10-09T00:00:00	2024-11-06T18:00:00	1	Precipitación	0
176976	7	Sololá	701	Sololá	2	El tablón	9	Septiembre	2023-10-09T00:00:00	2024-11-06T18:00:00	8	Radiación solar	28
176977	7	Sololá	701	Sololá	2	El tablón	9	Septiembre	2023-10-09T00:00:00	2024-11-06T19:00:00	2	Temperatura media	14.4
176978	7	Sololá	701	Sololá	2	El tablón	9	Septiembre	2023-10-09T00:00:00	2024-11-06T19:00:00	4	Temperatura máxima	15.4
176979	7	Sololá	701	Sololá	2	El tablón	9	Septiembre	2023-10-09T00:00:00	2024-11-06T19:00:00	3	Temperatura mínima	14.4
176980	7	Sololá	701	Sololá	2	El tablón	9	Septiembre	2023-10-09T00:00:00	2024-11-06T19:00:00	5	Humedad	88
176981	7	Sololá	701	Sololá	2	El tablón	9	Septiembre	2023-10-09T00:00:00	2024-11-06T19:00:00	6	Velocidad del viento	3.2
176982	7	Sololá	701	Sololá	2	El tablón	9	Septiembre	2023-10-09T00:00:00	2024-11-06T19:00:00	7	Dirección del viento	3.22
176983	7	Sololá	701	Sololá	2	El tablón	9	Septiembre	2023-10-09T00:00:00	2024-11-06T19:00:00	1	Precipitación	11.8
176984	7	Sololá	701	Sololá	2	El tablón	9	Septiembre	2023-10-09T00:00:00	2024-11-06T19:00:00	8	Radiación solar	0
176985	7	Sololá	701	Sololá	2	El tablón	9	Septiembre	2023-10-09T00:00:00	2024-11-06T20:00:00	2	Temperatura media	14.2
176986	7	Sololá	701	Sololá	2	El tablón	9	Septiembre	2023-10-09T00:00:00	2024-11-06T20:00:00	4	Temperatura máxima	14.4
176987	7	Sololá	701	Sololá	2	El tablón	9	Septiembre	2023-10-09T00:00:00	2024-11-06T20:00:00	3	Temperatura mínima	14.2
176988	7	Sololá	701	Sololá	2	El tablón	9	Septiembre	2023-10-09T00:00:00	2024-11-06T20:00:00	5	Humedad	88
176989	7	Sololá	701	Sololá	2	El tablón	9	Septiembre	2023-10-09T00:00:00	2024-11-06T20:00:00	6	Velocidad del viento	4.8
176990	7	Sololá	701	Sololá	2	El tablón	9	Septiembre	2023-10-09T00:00:00	2024-11-06T20:00:00	7	Dirección del viento	4.83
176991	7	Sololá	701	Sololá	2	El tablón	9	Septiembre	2023-10-09T00:00:00	2024-11-06T20:00:00	1	Precipitación	8
176992	7	Sololá	701	Sololá	2	El tablón	9	Septiembre	2023-10-09T00:00:00	2024-11-06T20:00:00	8	Radiación solar	0
176993	7	Sololá	701	Sololá	2	El tablón	9	Septiembre	2023-10-09T00:00:00	2024-11-06T21:00:00	2	Temperatura media	14.2
176994	7	Sololá	701	Sololá	2	El tablón	9	Septiembre	2023-10-09T00:00:00	2024-11-06T21:00:00	4	Temperatura máxima	14.3
176995	7	Sololá	701	Sololá	2	El tablón	9	Septiembre	2023-10-09T00:00:00	2024-11-06T21:00:00	3	Temperatura mínima	14.2
176996	7	Sololá	701	Sololá	2	El tablón	9	Septiembre	2023-10-09T00:00:00	2024-11-06T21:00:00	5	Humedad	88
176997	7	Sololá	701	Sololá	2	El tablón	9	Septiembre	2023-10-09T00:00:00	2024-11-06T21:00:00	6	Velocidad del viento	4.8
176998	7	Sololá	701	Sololá	2	El tablón	9	Septiembre	2023-10-09T00:00:00	2024-11-06T21:00:00	7	Dirección del viento	4.83
176999	7	Sololá	701	Sololá	2	El tablón	9	Septiembre	2023-10-09T00:00:00	2024-11-06T21:00:00	1	Precipitación	0
177000	7	Sololá	701	Sololá	2	El tablón	9	Septiembre	2023-10-09T00:00:00	2024-11-06T21:00:00	8	Radiación solar	0
177001	7	Sololá	701	Sololá	2	El tablón	9	Septiembre	2023-10-09T00:00:00	2024-11-06T22:00:00	2	Temperatura media	13.9
177002	7	Sololá	701	Sololá	2	El tablón	9	Septiembre	2023-10-09T00:00:00	2024-11-06T22:00:00	4	Temperatura máxima	14.2
177003	7	Sololá	701	Sololá	2	El tablón	9	Septiembre	2023-10-09T00:00:00	2024-11-06T22:00:00	3	Temperatura mínima	13.8
177004	7	Sololá	701	Sololá	2	El tablón	9	Septiembre	2023-10-09T00:00:00	2024-11-06T22:00:00	5	Humedad	88
177005	7	Sololá	701	Sololá	2	El tablón	9	Septiembre	2023-10-09T00:00:00	2024-11-06T22:00:00	6	Velocidad del viento	4.8
177006	7	Sololá	701	Sololá	2	El tablón	9	Septiembre	2023-10-09T00:00:00	2024-11-06T22:00:00	7	Dirección del viento	4.83
177007	7	Sololá	701	Sololá	2	El tablón	9	Septiembre	2023-10-09T00:00:00	2024-11-06T22:00:00	1	Precipitación	0
177008	7	Sololá	701	Sololá	2	El tablón	9	Septiembre	2023-10-09T00:00:00	2024-11-06T22:00:00	8	Radiación solar	0
177009	7	Sololá	701	Sololá	2	El tablón	9	Septiembre	2023-10-09T00:00:00	2024-11-06T23:00:00	2	Temperatura media	13.8
177010	7	Sololá	701	Sololá	2	El tablón	9	Septiembre	2023-10-09T00:00:00	2024-11-06T23:00:00	4	Temperatura máxima	13.9
177011	7	Sololá	701	Sololá	2	El tablón	9	Septiembre	2023-10-09T00:00:00	2024-11-06T23:00:00	3	Temperatura mínima	13.8
177012	7	Sololá	701	Sololá	2	El tablón	9	Septiembre	2023-10-09T00:00:00	2024-11-06T23:00:00	5	Humedad	88
177013	7	Sololá	701	Sololá	2	El tablón	9	Septiembre	2023-10-09T00:00:00	2024-11-06T23:00:00	6	Velocidad del viento	4.8
177014	7	Sololá	701	Sololá	2	El tablón	9	Septiembre	2023-10-09T00:00:00	2024-11-06T23:00:00	7	Dirección del viento	4.83
177015	7	Sololá	701	Sololá	2	El tablón	9	Septiembre	2023-10-09T00:00:00	2024-11-06T23:00:00	1	Precipitación	0
177016	7	Sololá	701	Sololá	2	El tablón	9	Septiembre	2023-10-09T00:00:00	2024-11-06T23:00:00	8	Radiación solar	0
177017	7	Sololá	701	Sololá	2	El tablón	9	Septiembre	2023-11-09T00:00:00	2024-11-06T00:00:00	2	Temperatura media	13.3
177018	7	Sololá	701	Sololá	2	El tablón	9	Septiembre	2023-11-09T00:00:00	2024-11-06T00:00:00	4	Temperatura máxima	13.8
177019	7	Sololá	701	Sololá	2	El tablón	9	Septiembre	2023-11-09T00:00:00	2024-11-06T00:00:00	3	Temperatura mínima	13.3
177020	7	Sololá	701	Sololá	2	El tablón	9	Septiembre	2023-11-09T00:00:00	2024-11-06T00:00:00	5	Humedad	88
177021	7	Sololá	701	Sololá	2	El tablón	9	Septiembre	2023-11-09T00:00:00	2024-11-06T00:00:00	6	Velocidad del viento	3.2
177022	7	Sololá	701	Sololá	2	El tablón	9	Septiembre	2023-11-09T00:00:00	2024-11-06T00:00:00	7	Dirección del viento	3.22
177023	7	Sololá	701	Sololá	2	El tablón	9	Septiembre	2023-11-09T00:00:00	2024-11-06T00:00:00	1	Precipitación	0
177024	7	Sololá	701	Sololá	2	El tablón	9	Septiembre	2023-11-09T00:00:00	2024-11-06T00:00:00	8	Radiación solar	0
177025	7	Sololá	701	Sololá	2	El tablón	9	Septiembre	2023-11-09T00:00:00	2024-11-06T01:00:00	2	Temperatura media	12.9
177026	7	Sololá	701	Sololá	2	El tablón	9	Septiembre	2023-11-09T00:00:00	2024-11-06T01:00:00	4	Temperatura máxima	13.3
177027	7	Sololá	701	Sololá	2	El tablón	9	Septiembre	2023-11-09T00:00:00	2024-11-06T01:00:00	3	Temperatura mínima	12.8
177028	7	Sololá	701	Sololá	2	El tablón	9	Septiembre	2023-11-09T00:00:00	2024-11-06T01:00:00	5	Humedad	88
177029	7	Sololá	701	Sololá	2	El tablón	9	Septiembre	2023-11-09T00:00:00	2024-11-06T01:00:00	6	Velocidad del viento	3.2
177030	7	Sololá	701	Sololá	2	El tablón	9	Septiembre	2023-11-09T00:00:00	2024-11-06T01:00:00	7	Dirección del viento	3.22
177031	7	Sololá	701	Sololá	2	El tablón	9	Septiembre	2023-11-09T00:00:00	2024-11-06T01:00:00	1	Precipitación	0
177032	7	Sololá	701	Sololá	2	El tablón	9	Septiembre	2023-11-09T00:00:00	2024-11-06T01:00:00	8	Radiación solar	0
177033	7	Sololá	701	Sololá	2	El tablón	9	Septiembre	2023-11-09T00:00:00	2024-11-06T02:00:00	2	Temperatura media	12.7
177034	7	Sololá	701	Sololá	2	El tablón	9	Septiembre	2023-11-09T00:00:00	2024-11-06T02:00:00	4	Temperatura máxima	13
177035	7	Sololá	701	Sololá	2	El tablón	9	Septiembre	2023-11-09T00:00:00	2024-11-06T02:00:00	3	Temperatura mínima	12.7
177036	7	Sololá	701	Sololá	2	El tablón	9	Septiembre	2023-11-09T00:00:00	2024-11-06T02:00:00	5	Humedad	89
177037	7	Sololá	701	Sololá	2	El tablón	9	Septiembre	2023-11-09T00:00:00	2024-11-06T02:00:00	6	Velocidad del viento	1.6
177038	7	Sololá	701	Sololá	2	El tablón	9	Septiembre	2023-11-09T00:00:00	2024-11-06T02:00:00	7	Dirección del viento	1.61
177039	7	Sololá	701	Sololá	2	El tablón	9	Septiembre	2023-11-09T00:00:00	2024-11-06T02:00:00	1	Precipitación	0
177040	7	Sololá	701	Sololá	2	El tablón	9	Septiembre	2023-11-09T00:00:00	2024-11-06T02:00:00	8	Radiación solar	0
177041	7	Sololá	701	Sololá	2	El tablón	9	Septiembre	2023-11-09T00:00:00	2024-11-06T03:00:00	2	Temperatura media	12.5
177042	7	Sololá	701	Sololá	2	El tablón	9	Septiembre	2023-11-09T00:00:00	2024-11-06T03:00:00	4	Temperatura máxima	12.7
177043	7	Sololá	701	Sololá	2	El tablón	9	Septiembre	2023-11-09T00:00:00	2024-11-06T03:00:00	3	Temperatura mínima	12.5
177044	7	Sololá	701	Sololá	2	El tablón	9	Septiembre	2023-11-09T00:00:00	2024-11-06T03:00:00	5	Humedad	88
177045	7	Sololá	701	Sololá	2	El tablón	9	Septiembre	2023-11-09T00:00:00	2024-11-06T03:00:00	6	Velocidad del viento	3.2
177046	7	Sololá	701	Sololá	2	El tablón	9	Septiembre	2023-11-09T00:00:00	2024-11-06T03:00:00	7	Dirección del viento	3.22
177047	7	Sololá	701	Sololá	2	El tablón	9	Septiembre	2023-11-09T00:00:00	2024-11-06T03:00:00	1	Precipitación	0
177048	7	Sololá	701	Sololá	2	El tablón	9	Septiembre	2023-11-09T00:00:00	2024-11-06T03:00:00	8	Radiación solar	0
177049	7	Sololá	701	Sololá	2	El tablón	9	Septiembre	2023-11-09T00:00:00	2024-11-06T04:00:00	2	Temperatura media	12.3
177050	7	Sololá	701	Sololá	2	El tablón	9	Septiembre	2023-11-09T00:00:00	2024-11-06T04:00:00	4	Temperatura máxima	12.6
177051	7	Sololá	701	Sololá	2	El tablón	9	Septiembre	2023-11-09T00:00:00	2024-11-06T04:00:00	3	Temperatura mínima	12.2
177052	7	Sololá	701	Sololá	2	El tablón	9	Septiembre	2023-11-09T00:00:00	2024-11-06T04:00:00	5	Humedad	88
177053	7	Sololá	701	Sololá	2	El tablón	9	Septiembre	2023-11-09T00:00:00	2024-11-06T04:00:00	6	Velocidad del viento	6.4
177054	7	Sololá	701	Sololá	2	El tablón	9	Septiembre	2023-11-09T00:00:00	2024-11-06T04:00:00	7	Dirección del viento	6.44
177055	7	Sololá	701	Sololá	2	El tablón	9	Septiembre	2023-11-09T00:00:00	2024-11-06T04:00:00	1	Precipitación	0
177056	7	Sololá	701	Sololá	2	El tablón	9	Septiembre	2023-11-09T00:00:00	2024-11-06T04:00:00	8	Radiación solar	0
177057	7	Sololá	701	Sololá	2	El tablón	9	Septiembre	2023-11-09T00:00:00	2024-11-06T05:00:00	2	Temperatura media	12.6
177058	7	Sololá	701	Sololá	2	El tablón	9	Septiembre	2023-11-09T00:00:00	2024-11-06T05:00:00	4	Temperatura máxima	12.9
177059	7	Sololá	701	Sololá	2	El tablón	9	Septiembre	2023-11-09T00:00:00	2024-11-06T05:00:00	3	Temperatura mínima	12.3
177060	7	Sololá	701	Sololá	2	El tablón	9	Septiembre	2023-11-09T00:00:00	2024-11-06T05:00:00	5	Humedad	87
177061	7	Sololá	701	Sololá	2	El tablón	9	Septiembre	2023-11-09T00:00:00	2024-11-06T05:00:00	6	Velocidad del viento	6.4
177062	7	Sololá	701	Sololá	2	El tablón	9	Septiembre	2023-11-09T00:00:00	2024-11-06T05:00:00	7	Dirección del viento	6.44
177063	7	Sololá	701	Sololá	2	El tablón	9	Septiembre	2023-11-09T00:00:00	2024-11-06T05:00:00	1	Precipitación	0.2
177064	7	Sololá	701	Sololá	2	El tablón	9	Septiembre	2023-11-09T00:00:00	2024-11-06T05:00:00	8	Radiación solar	0
177065	7	Sololá	701	Sololá	2	El tablón	9	Septiembre	2023-11-09T00:00:00	2024-11-06T06:00:00	2	Temperatura media	12.5
177066	7	Sololá	701	Sololá	2	El tablón	9	Septiembre	2023-11-09T00:00:00	2024-11-06T06:00:00	4	Temperatura máxima	12.6
177067	7	Sololá	701	Sololá	2	El tablón	9	Septiembre	2023-11-09T00:00:00	2024-11-06T06:00:00	3	Temperatura mínima	12.4
177068	7	Sololá	701	Sololá	2	El tablón	9	Septiembre	2023-11-09T00:00:00	2024-11-06T06:00:00	5	Humedad	88
177069	7	Sololá	701	Sololá	2	El tablón	9	Septiembre	2023-11-09T00:00:00	2024-11-06T06:00:00	6	Velocidad del viento	4.8
177070	7	Sololá	701	Sololá	2	El tablón	9	Septiembre	2023-11-09T00:00:00	2024-11-06T06:00:00	7	Dirección del viento	4.83
177071	7	Sololá	701	Sololá	2	El tablón	9	Septiembre	2023-11-09T00:00:00	2024-11-06T06:00:00	1	Precipitación	0
177072	7	Sololá	701	Sololá	2	El tablón	9	Septiembre	2023-11-09T00:00:00	2024-11-06T06:00:00	8	Radiación solar	0
177073	7	Sololá	701	Sololá	2	El tablón	9	Septiembre	2023-11-09T00:00:00	2024-11-06T07:00:00	2	Temperatura media	13.4
177074	7	Sololá	701	Sololá	2	El tablón	9	Septiembre	2023-11-09T00:00:00	2024-11-06T07:00:00	4	Temperatura máxima	13.4
177075	7	Sololá	701	Sololá	2	El tablón	9	Septiembre	2023-11-09T00:00:00	2024-11-06T07:00:00	3	Temperatura mínima	12.4
177076	7	Sololá	701	Sololá	2	El tablón	9	Septiembre	2023-11-09T00:00:00	2024-11-06T07:00:00	5	Humedad	87
177077	7	Sololá	701	Sololá	2	El tablón	9	Septiembre	2023-11-09T00:00:00	2024-11-06T07:00:00	6	Velocidad del viento	3.2
177078	7	Sololá	701	Sololá	2	El tablón	9	Septiembre	2023-11-09T00:00:00	2024-11-06T07:00:00	7	Dirección del viento	3.22
177079	7	Sololá	701	Sololá	2	El tablón	9	Septiembre	2023-11-09T00:00:00	2024-11-06T07:00:00	1	Precipitación	0
177080	7	Sololá	701	Sololá	2	El tablón	9	Septiembre	2023-11-09T00:00:00	2024-11-06T07:00:00	8	Radiación solar	66
177081	7	Sololá	701	Sololá	2	El tablón	9	Septiembre	2023-11-09T00:00:00	2024-11-06T08:00:00	2	Temperatura media	15.4
177082	7	Sololá	701	Sololá	2	El tablón	9	Septiembre	2023-11-09T00:00:00	2024-11-06T08:00:00	4	Temperatura máxima	15.4
177083	7	Sololá	701	Sololá	2	El tablón	9	Septiembre	2023-11-09T00:00:00	2024-11-06T08:00:00	3	Temperatura mínima	13.4
177084	7	Sololá	701	Sololá	2	El tablón	9	Septiembre	2023-11-09T00:00:00	2024-11-06T08:00:00	5	Humedad	83
177085	7	Sololá	701	Sololá	2	El tablón	9	Septiembre	2023-11-09T00:00:00	2024-11-06T08:00:00	6	Velocidad del viento	6.4
177086	7	Sololá	701	Sololá	2	El tablón	9	Septiembre	2023-11-09T00:00:00	2024-11-06T08:00:00	7	Dirección del viento	6.44
177087	7	Sololá	701	Sololá	2	El tablón	9	Septiembre	2023-11-09T00:00:00	2024-11-06T08:00:00	1	Precipitación	0
177088	7	Sololá	701	Sololá	2	El tablón	9	Septiembre	2023-11-09T00:00:00	2024-11-06T08:00:00	8	Radiación solar	319
177089	7	Sololá	701	Sololá	2	El tablón	9	Septiembre	2023-11-09T00:00:00	2024-11-06T09:00:00	2	Temperatura media	17
177090	7	Sololá	701	Sololá	2	El tablón	9	Septiembre	2023-11-09T00:00:00	2024-11-06T09:00:00	4	Temperatura máxima	17
177091	7	Sololá	701	Sololá	2	El tablón	9	Septiembre	2023-11-09T00:00:00	2024-11-06T09:00:00	3	Temperatura mínima	15.4
177092	7	Sololá	701	Sololá	2	El tablón	9	Septiembre	2023-11-09T00:00:00	2024-11-06T09:00:00	5	Humedad	76
177093	7	Sololá	701	Sololá	2	El tablón	9	Septiembre	2023-11-09T00:00:00	2024-11-06T09:00:00	6	Velocidad del viento	8
177094	7	Sololá	701	Sololá	2	El tablón	9	Septiembre	2023-11-09T00:00:00	2024-11-06T09:00:00	7	Dirección del viento	8.05
177095	7	Sololá	701	Sololá	2	El tablón	9	Septiembre	2023-11-09T00:00:00	2024-11-06T09:00:00	1	Precipitación	0
177096	7	Sololá	701	Sololá	2	El tablón	9	Septiembre	2023-11-09T00:00:00	2024-11-06T09:00:00	8	Radiación solar	432
177097	7	Sololá	701	Sololá	2	El tablón	9	Septiembre	2023-11-09T00:00:00	2024-11-06T10:00:00	2	Temperatura media	17.9
177098	7	Sololá	701	Sololá	2	El tablón	9	Septiembre	2023-11-09T00:00:00	2024-11-06T10:00:00	4	Temperatura máxima	18.4
177099	7	Sololá	701	Sololá	2	El tablón	9	Septiembre	2023-11-09T00:00:00	2024-11-06T10:00:00	3	Temperatura mínima	17
177100	7	Sololá	701	Sololá	2	El tablón	9	Septiembre	2023-11-09T00:00:00	2024-11-06T10:00:00	5	Humedad	72
177101	7	Sololá	701	Sololá	2	El tablón	9	Septiembre	2023-11-09T00:00:00	2024-11-06T10:00:00	6	Velocidad del viento	8
177102	7	Sololá	701	Sololá	2	El tablón	9	Septiembre	2023-11-09T00:00:00	2024-11-06T10:00:00	7	Dirección del viento	8.05
177103	7	Sololá	701	Sololá	2	El tablón	9	Septiembre	2023-11-09T00:00:00	2024-11-06T10:00:00	1	Precipitación	0
177104	7	Sololá	701	Sololá	2	El tablón	9	Septiembre	2023-11-09T00:00:00	2024-11-06T10:00:00	8	Radiación solar	626
177105	7	Sololá	701	Sololá	2	El tablón	9	Septiembre	2023-11-09T00:00:00	2024-11-06T11:00:00	2	Temperatura media	18.8
177106	7	Sololá	701	Sololá	2	El tablón	9	Septiembre	2023-11-09T00:00:00	2024-11-06T11:00:00	4	Temperatura máxima	18.9
177107	7	Sololá	701	Sololá	2	El tablón	9	Septiembre	2023-11-09T00:00:00	2024-11-06T11:00:00	3	Temperatura mínima	18
177108	7	Sololá	701	Sololá	2	El tablón	9	Septiembre	2023-11-09T00:00:00	2024-11-06T11:00:00	5	Humedad	68
177109	7	Sololá	701	Sololá	2	El tablón	9	Septiembre	2023-11-09T00:00:00	2024-11-06T11:00:00	6	Velocidad del viento	9.7
177110	7	Sololá	701	Sololá	2	El tablón	9	Septiembre	2023-11-09T00:00:00	2024-11-06T11:00:00	7	Dirección del viento	9.66
177111	7	Sololá	701	Sololá	2	El tablón	9	Septiembre	2023-11-09T00:00:00	2024-11-06T11:00:00	1	Precipitación	0
177112	7	Sololá	701	Sololá	2	El tablón	9	Septiembre	2023-11-09T00:00:00	2024-11-06T11:00:00	8	Radiación solar	719
177113	7	Sololá	701	Sololá	2	El tablón	9	Septiembre	2023-11-09T00:00:00	2024-11-06T12:00:00	2	Temperatura media	19.9
177114	7	Sololá	701	Sololá	2	El tablón	9	Septiembre	2023-11-09T00:00:00	2024-11-06T12:00:00	4	Temperatura máxima	19.9
177115	7	Sololá	701	Sololá	2	El tablón	9	Septiembre	2023-11-09T00:00:00	2024-11-06T12:00:00	3	Temperatura mínima	18.8
177116	7	Sololá	701	Sololá	2	El tablón	9	Septiembre	2023-11-09T00:00:00	2024-11-06T12:00:00	5	Humedad	65
177117	7	Sololá	701	Sololá	2	El tablón	9	Septiembre	2023-11-09T00:00:00	2024-11-06T12:00:00	6	Velocidad del viento	8
177118	7	Sololá	701	Sololá	2	El tablón	9	Septiembre	2023-11-09T00:00:00	2024-11-06T12:00:00	7	Dirección del viento	8.05
177119	7	Sololá	701	Sololá	2	El tablón	9	Septiembre	2023-11-09T00:00:00	2024-11-06T12:00:00	1	Precipitación	0
177120	7	Sololá	701	Sololá	2	El tablón	9	Septiembre	2023-11-09T00:00:00	2024-11-06T12:00:00	8	Radiación solar	928
177121	7	Sololá	701	Sololá	2	El tablón	9	Septiembre	2023-11-09T00:00:00	2024-11-06T13:00:00	2	Temperatura media	19.1
177122	7	Sololá	701	Sololá	2	El tablón	9	Septiembre	2023-11-09T00:00:00	2024-11-06T13:00:00	4	Temperatura máxima	19.9
177123	7	Sololá	701	Sololá	2	El tablón	9	Septiembre	2023-11-09T00:00:00	2024-11-06T13:00:00	3	Temperatura mínima	18.4
177124	7	Sololá	701	Sololá	2	El tablón	9	Septiembre	2023-11-09T00:00:00	2024-11-06T13:00:00	5	Humedad	71
177125	7	Sololá	701	Sololá	2	El tablón	9	Septiembre	2023-11-09T00:00:00	2024-11-06T13:00:00	6	Velocidad del viento	9.7
177126	7	Sololá	701	Sololá	2	El tablón	9	Septiembre	2023-11-09T00:00:00	2024-11-06T13:00:00	7	Dirección del viento	9.66
177127	7	Sololá	701	Sololá	2	El tablón	9	Septiembre	2023-11-09T00:00:00	2024-11-06T13:00:00	1	Precipitación	0
177128	7	Sololá	701	Sololá	2	El tablón	9	Septiembre	2023-11-09T00:00:00	2024-11-06T13:00:00	8	Radiación solar	477
177129	7	Sololá	701	Sololá	2	El tablón	9	Septiembre	2023-11-09T00:00:00	2024-11-06T14:00:00	2	Temperatura media	20.4
177130	7	Sololá	701	Sololá	2	El tablón	9	Septiembre	2023-11-09T00:00:00	2024-11-06T14:00:00	4	Temperatura máxima	20.8
177131	7	Sololá	701	Sololá	2	El tablón	9	Septiembre	2023-11-09T00:00:00	2024-11-06T14:00:00	3	Temperatura mínima	19.1
177132	7	Sololá	701	Sololá	2	El tablón	9	Septiembre	2023-11-09T00:00:00	2024-11-06T14:00:00	5	Humedad	68
177133	7	Sololá	701	Sololá	2	El tablón	9	Septiembre	2023-11-09T00:00:00	2024-11-06T14:00:00	6	Velocidad del viento	8
177134	7	Sololá	701	Sololá	2	El tablón	9	Septiembre	2023-11-09T00:00:00	2024-11-06T14:00:00	7	Dirección del viento	8.05
177135	7	Sololá	701	Sololá	2	El tablón	9	Septiembre	2023-11-09T00:00:00	2024-11-06T14:00:00	1	Precipitación	0
177136	7	Sololá	701	Sololá	2	El tablón	9	Septiembre	2023-11-09T00:00:00	2024-11-06T14:00:00	8	Radiación solar	745
177137	7	Sololá	701	Sololá	2	El tablón	9	Septiembre	2023-11-09T00:00:00	2024-11-06T15:00:00	2	Temperatura media	18.9
177138	7	Sololá	701	Sololá	2	El tablón	9	Septiembre	2023-11-09T00:00:00	2024-11-06T15:00:00	4	Temperatura máxima	20.7
177139	7	Sololá	701	Sololá	2	El tablón	9	Septiembre	2023-11-09T00:00:00	2024-11-06T15:00:00	3	Temperatura mínima	18.9
177140	7	Sololá	701	Sololá	2	El tablón	9	Septiembre	2023-11-09T00:00:00	2024-11-06T15:00:00	5	Humedad	84
177141	7	Sololá	701	Sololá	2	El tablón	9	Septiembre	2023-11-09T00:00:00	2024-11-06T15:00:00	6	Velocidad del viento	8
177142	7	Sololá	701	Sololá	2	El tablón	9	Septiembre	2023-11-09T00:00:00	2024-11-06T15:00:00	7	Dirección del viento	8.05
177143	7	Sololá	701	Sololá	2	El tablón	9	Septiembre	2023-11-09T00:00:00	2024-11-06T15:00:00	1	Precipitación	0
177144	7	Sololá	701	Sololá	2	El tablón	9	Septiembre	2023-11-09T00:00:00	2024-11-06T15:00:00	8	Radiación solar	602
177145	7	Sololá	701	Sololá	2	El tablón	9	Septiembre	2023-11-09T00:00:00	2024-11-06T16:00:00	2	Temperatura media	16.9
177146	7	Sololá	701	Sololá	2	El tablón	9	Septiembre	2023-11-09T00:00:00	2024-11-06T16:00:00	4	Temperatura máxima	18.9
177147	7	Sololá	701	Sololá	2	El tablón	9	Septiembre	2023-11-09T00:00:00	2024-11-06T16:00:00	3	Temperatura mínima	16.9
177148	7	Sololá	701	Sololá	2	El tablón	9	Septiembre	2023-11-09T00:00:00	2024-11-06T16:00:00	5	Humedad	87
177149	7	Sololá	701	Sololá	2	El tablón	9	Septiembre	2023-11-09T00:00:00	2024-11-06T16:00:00	6	Velocidad del viento	4.8
177150	7	Sololá	701	Sololá	2	El tablón	9	Septiembre	2023-11-09T00:00:00	2024-11-06T16:00:00	7	Dirección del viento	4.83
177151	7	Sololá	701	Sololá	2	El tablón	9	Septiembre	2023-11-09T00:00:00	2024-11-06T16:00:00	1	Precipitación	0
177152	7	Sololá	701	Sololá	2	El tablón	9	Septiembre	2023-11-09T00:00:00	2024-11-06T16:00:00	8	Radiación solar	160
177153	7	Sololá	701	Sololá	2	El tablón	9	Septiembre	2023-11-09T00:00:00	2024-11-06T17:00:00	2	Temperatura media	16.6
177154	7	Sololá	701	Sololá	2	El tablón	9	Septiembre	2023-11-09T00:00:00	2024-11-06T17:00:00	4	Temperatura máxima	16.9
177155	7	Sololá	701	Sololá	2	El tablón	9	Septiembre	2023-11-09T00:00:00	2024-11-06T17:00:00	3	Temperatura mínima	16.6
177156	7	Sololá	701	Sololá	2	El tablón	9	Septiembre	2023-11-09T00:00:00	2024-11-06T17:00:00	5	Humedad	82
177157	7	Sololá	701	Sololá	2	El tablón	9	Septiembre	2023-11-09T00:00:00	2024-11-06T17:00:00	6	Velocidad del viento	4.8
177158	7	Sololá	701	Sololá	2	El tablón	9	Septiembre	2023-11-09T00:00:00	2024-11-06T17:00:00	7	Dirección del viento	4.83
177159	7	Sololá	701	Sololá	2	El tablón	9	Septiembre	2023-11-09T00:00:00	2024-11-06T17:00:00	1	Precipitación	0
177160	7	Sololá	701	Sololá	2	El tablón	9	Septiembre	2023-11-09T00:00:00	2024-11-06T17:00:00	8	Radiación solar	50
177161	7	Sololá	701	Sololá	2	El tablón	9	Septiembre	2023-11-09T00:00:00	2024-11-06T18:00:00	2	Temperatura media	15.7
177162	7	Sololá	701	Sololá	2	El tablón	9	Septiembre	2023-11-09T00:00:00	2024-11-06T18:00:00	4	Temperatura máxima	16.6
177163	7	Sololá	701	Sololá	2	El tablón	9	Septiembre	2023-11-09T00:00:00	2024-11-06T18:00:00	3	Temperatura mínima	15.7
177164	7	Sololá	701	Sololá	2	El tablón	9	Septiembre	2023-11-09T00:00:00	2024-11-06T18:00:00	5	Humedad	86
177165	7	Sololá	701	Sololá	2	El tablón	9	Septiembre	2023-11-09T00:00:00	2024-11-06T18:00:00	6	Velocidad del viento	4.8
177166	7	Sololá	701	Sololá	2	El tablón	9	Septiembre	2023-11-09T00:00:00	2024-11-06T18:00:00	7	Dirección del viento	4.83
177167	7	Sololá	701	Sololá	2	El tablón	9	Septiembre	2023-11-09T00:00:00	2024-11-06T18:00:00	1	Precipitación	1.2
177168	7	Sololá	701	Sololá	2	El tablón	9	Septiembre	2023-11-09T00:00:00	2024-11-06T18:00:00	8	Radiación solar	9
177169	7	Sololá	701	Sololá	2	El tablón	9	Septiembre	2023-11-09T00:00:00	2024-11-06T19:00:00	2	Temperatura media	13.9
177170	7	Sololá	701	Sololá	2	El tablón	9	Septiembre	2023-11-09T00:00:00	2024-11-06T19:00:00	4	Temperatura máxima	15.6
177171	7	Sololá	701	Sololá	2	El tablón	9	Septiembre	2023-11-09T00:00:00	2024-11-06T19:00:00	3	Temperatura mínima	13.7
177172	7	Sololá	701	Sololá	2	El tablón	9	Septiembre	2023-11-09T00:00:00	2024-11-06T19:00:00	5	Humedad	88
177173	7	Sololá	701	Sololá	2	El tablón	9	Septiembre	2023-11-09T00:00:00	2024-11-06T19:00:00	6	Velocidad del viento	6.4
177174	7	Sololá	701	Sololá	2	El tablón	9	Septiembre	2023-11-09T00:00:00	2024-11-06T19:00:00	7	Dirección del viento	6.44
177175	7	Sololá	701	Sololá	2	El tablón	9	Septiembre	2023-11-09T00:00:00	2024-11-06T19:00:00	1	Precipitación	8.8
177176	7	Sololá	701	Sololá	2	El tablón	9	Septiembre	2023-11-09T00:00:00	2024-11-06T19:00:00	8	Radiación solar	0
177177	7	Sololá	701	Sololá	2	El tablón	9	Septiembre	2023-11-09T00:00:00	2024-11-06T20:00:00	2	Temperatura media	14.1
177178	7	Sololá	701	Sololá	2	El tablón	9	Septiembre	2023-11-09T00:00:00	2024-11-06T20:00:00	4	Temperatura máxima	14.1
177179	7	Sololá	701	Sololá	2	El tablón	9	Septiembre	2023-11-09T00:00:00	2024-11-06T20:00:00	3	Temperatura mínima	13.9
177180	7	Sololá	701	Sololá	2	El tablón	9	Septiembre	2023-11-09T00:00:00	2024-11-06T20:00:00	5	Humedad	88
177181	7	Sololá	701	Sololá	2	El tablón	9	Septiembre	2023-11-09T00:00:00	2024-11-06T20:00:00	6	Velocidad del viento	6.4
177182	7	Sololá	701	Sololá	2	El tablón	9	Septiembre	2023-11-09T00:00:00	2024-11-06T20:00:00	7	Dirección del viento	6.44
177183	7	Sololá	701	Sololá	2	El tablón	9	Septiembre	2023-11-09T00:00:00	2024-11-06T20:00:00	1	Precipitación	1
177184	7	Sololá	701	Sololá	2	El tablón	9	Septiembre	2023-11-09T00:00:00	2024-11-06T20:00:00	8	Radiación solar	0
177185	7	Sololá	701	Sololá	2	El tablón	9	Septiembre	2023-11-09T00:00:00	2024-11-06T21:00:00	2	Temperatura media	13.9
177186	7	Sololá	701	Sololá	2	El tablón	9	Septiembre	2023-11-09T00:00:00	2024-11-06T21:00:00	4	Temperatura máxima	14.1
177187	7	Sololá	701	Sololá	2	El tablón	9	Septiembre	2023-11-09T00:00:00	2024-11-06T21:00:00	3	Temperatura mínima	13.9
177188	7	Sololá	701	Sololá	2	El tablón	9	Septiembre	2023-11-09T00:00:00	2024-11-06T21:00:00	5	Humedad	88
177189	7	Sololá	701	Sololá	2	El tablón	9	Septiembre	2023-11-09T00:00:00	2024-11-06T21:00:00	6	Velocidad del viento	6.4
177190	7	Sololá	701	Sololá	2	El tablón	9	Septiembre	2023-11-09T00:00:00	2024-11-06T21:00:00	7	Dirección del viento	6.44
177191	7	Sololá	701	Sololá	2	El tablón	9	Septiembre	2023-11-09T00:00:00	2024-11-06T21:00:00	1	Precipitación	0.2
177192	7	Sololá	701	Sololá	2	El tablón	9	Septiembre	2023-11-09T00:00:00	2024-11-06T21:00:00	8	Radiación solar	0
177193	7	Sololá	701	Sololá	2	El tablón	9	Septiembre	2023-11-09T00:00:00	2024-11-06T22:00:00	2	Temperatura media	13.8
177194	7	Sololá	701	Sololá	2	El tablón	9	Septiembre	2023-11-09T00:00:00	2024-11-06T22:00:00	4	Temperatura máxima	13.9
177195	7	Sololá	701	Sololá	2	El tablón	9	Septiembre	2023-11-09T00:00:00	2024-11-06T22:00:00	3	Temperatura mínima	13.7
177196	7	Sololá	701	Sololá	2	El tablón	9	Septiembre	2023-11-09T00:00:00	2024-11-06T22:00:00	5	Humedad	88
177197	7	Sololá	701	Sololá	2	El tablón	9	Septiembre	2023-11-09T00:00:00	2024-11-06T22:00:00	6	Velocidad del viento	4.8
177198	7	Sololá	701	Sololá	2	El tablón	9	Septiembre	2023-11-09T00:00:00	2024-11-06T22:00:00	7	Dirección del viento	4.83
177199	7	Sololá	701	Sololá	2	El tablón	9	Septiembre	2023-11-09T00:00:00	2024-11-06T22:00:00	1	Precipitación	0
177200	7	Sololá	701	Sololá	2	El tablón	9	Septiembre	2023-11-09T00:00:00	2024-11-06T22:00:00	8	Radiación solar	0
177201	7	Sololá	701	Sololá	2	El tablón	9	Septiembre	2023-11-09T00:00:00	2024-11-06T23:00:00	2	Temperatura media	13.5
177202	7	Sololá	701	Sololá	2	El tablón	9	Septiembre	2023-11-09T00:00:00	2024-11-06T23:00:00	4	Temperatura máxima	13.8
177203	7	Sololá	701	Sololá	2	El tablón	9	Septiembre	2023-11-09T00:00:00	2024-11-06T23:00:00	3	Temperatura mínima	13.4
177204	7	Sololá	701	Sololá	2	El tablón	9	Septiembre	2023-11-09T00:00:00	2024-11-06T23:00:00	5	Humedad	88
177205	7	Sololá	701	Sololá	2	El tablón	9	Septiembre	2023-11-09T00:00:00	2024-11-06T23:00:00	6	Velocidad del viento	4.8
177206	7	Sololá	701	Sololá	2	El tablón	9	Septiembre	2023-11-09T00:00:00	2024-11-06T23:00:00	7	Dirección del viento	4.83
177207	7	Sololá	701	Sololá	2	El tablón	9	Septiembre	2023-11-09T00:00:00	2024-11-06T23:00:00	1	Precipitación	0
177208	7	Sololá	701	Sololá	2	El tablón	9	Septiembre	2023-11-09T00:00:00	2024-11-06T23:00:00	8	Radiación solar	0
177209	7	Sololá	701	Sololá	2	El tablón	9	Septiembre	2023-12-09T00:00:00	2024-11-06T00:00:00	2	Temperatura media	13.2
177210	7	Sololá	701	Sololá	2	El tablón	9	Septiembre	2023-12-09T00:00:00	2024-11-06T00:00:00	4	Temperatura máxima	13.5
177211	7	Sololá	701	Sololá	2	El tablón	9	Septiembre	2023-12-09T00:00:00	2024-11-06T00:00:00	3	Temperatura mínima	13.2
177212	7	Sololá	701	Sololá	2	El tablón	9	Septiembre	2023-12-09T00:00:00	2024-11-06T00:00:00	5	Humedad	89
177213	7	Sololá	701	Sololá	2	El tablón	9	Septiembre	2023-12-09T00:00:00	2024-11-06T00:00:00	6	Velocidad del viento	1.6
177214	7	Sololá	701	Sololá	2	El tablón	9	Septiembre	2023-12-09T00:00:00	2024-11-06T00:00:00	7	Dirección del viento	1.61
177215	7	Sololá	701	Sololá	2	El tablón	9	Septiembre	2023-12-09T00:00:00	2024-11-06T00:00:00	1	Precipitación	0.2
177216	7	Sololá	701	Sololá	2	El tablón	9	Septiembre	2023-12-09T00:00:00	2024-11-06T00:00:00	8	Radiación solar	0
177217	7	Sololá	701	Sololá	2	El tablón	9	Septiembre	2023-12-09T00:00:00	2024-11-06T01:00:00	2	Temperatura media	13.3
177218	7	Sololá	701	Sololá	2	El tablón	9	Septiembre	2023-12-09T00:00:00	2024-11-06T01:00:00	4	Temperatura máxima	13.3
177219	7	Sololá	701	Sololá	2	El tablón	9	Septiembre	2023-12-09T00:00:00	2024-11-06T01:00:00	3	Temperatura mínima	13.1
177220	7	Sololá	701	Sololá	2	El tablón	9	Septiembre	2023-12-09T00:00:00	2024-11-06T01:00:00	5	Humedad	88
177221	7	Sololá	701	Sololá	2	El tablón	9	Septiembre	2023-12-09T00:00:00	2024-11-06T01:00:00	6	Velocidad del viento	3.2
177222	7	Sololá	701	Sololá	2	El tablón	9	Septiembre	2023-12-09T00:00:00	2024-11-06T01:00:00	7	Dirección del viento	3.22
177223	7	Sololá	701	Sololá	2	El tablón	9	Septiembre	2023-12-09T00:00:00	2024-11-06T01:00:00	1	Precipitación	0
177224	7	Sololá	701	Sololá	2	El tablón	9	Septiembre	2023-12-09T00:00:00	2024-11-06T01:00:00	8	Radiación solar	0
177225	7	Sololá	701	Sololá	2	El tablón	9	Septiembre	2023-12-09T00:00:00	2024-11-06T02:00:00	2	Temperatura media	13.3
177226	7	Sololá	701	Sololá	2	El tablón	9	Septiembre	2023-12-09T00:00:00	2024-11-06T02:00:00	4	Temperatura máxima	13.5
177227	7	Sololá	701	Sololá	2	El tablón	9	Septiembre	2023-12-09T00:00:00	2024-11-06T02:00:00	3	Temperatura mínima	13.3
177228	7	Sololá	701	Sololá	2	El tablón	9	Septiembre	2023-12-09T00:00:00	2024-11-06T02:00:00	5	Humedad	89
177229	7	Sololá	701	Sololá	2	El tablón	9	Septiembre	2023-12-09T00:00:00	2024-11-06T02:00:00	6	Velocidad del viento	4.8
177230	7	Sololá	701	Sololá	2	El tablón	9	Septiembre	2023-12-09T00:00:00	2024-11-06T02:00:00	7	Dirección del viento	4.83
177231	7	Sololá	701	Sololá	2	El tablón	9	Septiembre	2023-12-09T00:00:00	2024-11-06T02:00:00	1	Precipitación	0
177232	7	Sololá	701	Sololá	2	El tablón	9	Septiembre	2023-12-09T00:00:00	2024-11-06T02:00:00	8	Radiación solar	0
177233	7	Sololá	701	Sololá	2	El tablón	9	Septiembre	2023-12-09T00:00:00	2024-11-06T03:00:00	2	Temperatura media	12.9
177234	7	Sololá	701	Sololá	2	El tablón	9	Septiembre	2023-12-09T00:00:00	2024-11-06T03:00:00	4	Temperatura máxima	13.3
177235	7	Sololá	701	Sololá	2	El tablón	9	Septiembre	2023-12-09T00:00:00	2024-11-06T03:00:00	3	Temperatura mínima	12.9
177236	7	Sololá	701	Sololá	2	El tablón	9	Septiembre	2023-12-09T00:00:00	2024-11-06T03:00:00	5	Humedad	88
177237	7	Sololá	701	Sololá	2	El tablón	9	Septiembre	2023-12-09T00:00:00	2024-11-06T03:00:00	6	Velocidad del viento	1.6
177238	7	Sololá	701	Sololá	2	El tablón	9	Septiembre	2023-12-09T00:00:00	2024-11-06T03:00:00	7	Dirección del viento	1.61
177239	7	Sololá	701	Sololá	2	El tablón	9	Septiembre	2023-12-09T00:00:00	2024-11-06T03:00:00	1	Precipitación	0
177240	7	Sololá	701	Sololá	2	El tablón	9	Septiembre	2023-12-09T00:00:00	2024-11-06T03:00:00	8	Radiación solar	0
177241	7	Sololá	701	Sololá	2	El tablón	9	Septiembre	2023-12-09T00:00:00	2024-11-06T04:00:00	2	Temperatura media	12.4
177242	7	Sololá	701	Sololá	2	El tablón	9	Septiembre	2023-12-09T00:00:00	2024-11-06T04:00:00	4	Temperatura máxima	12.9
177243	7	Sololá	701	Sololá	2	El tablón	9	Septiembre	2023-12-09T00:00:00	2024-11-06T04:00:00	3	Temperatura mínima	12.3
177244	7	Sololá	701	Sololá	2	El tablón	9	Septiembre	2023-12-09T00:00:00	2024-11-06T04:00:00	5	Humedad	88
177245	7	Sololá	701	Sololá	2	El tablón	9	Septiembre	2023-12-09T00:00:00	2024-11-06T04:00:00	6	Velocidad del viento	3.2
177246	7	Sololá	701	Sololá	2	El tablón	9	Septiembre	2023-12-09T00:00:00	2024-11-06T04:00:00	7	Dirección del viento	3.22
177247	7	Sololá	701	Sololá	2	El tablón	9	Septiembre	2023-12-09T00:00:00	2024-11-06T04:00:00	1	Precipitación	0
177248	7	Sololá	701	Sololá	2	El tablón	9	Septiembre	2023-12-09T00:00:00	2024-11-06T04:00:00	8	Radiación solar	0
177249	7	Sololá	701	Sololá	2	El tablón	9	Septiembre	2023-12-09T00:00:00	2024-11-06T05:00:00	2	Temperatura media	12.6
177250	7	Sololá	701	Sololá	2	El tablón	9	Septiembre	2023-12-09T00:00:00	2024-11-06T05:00:00	4	Temperatura máxima	12.7
177251	7	Sololá	701	Sololá	2	El tablón	9	Septiembre	2023-12-09T00:00:00	2024-11-06T05:00:00	3	Temperatura mínima	12.4
177252	7	Sololá	701	Sololá	2	El tablón	9	Septiembre	2023-12-09T00:00:00	2024-11-06T05:00:00	5	Humedad	88
177253	7	Sololá	701	Sololá	2	El tablón	9	Septiembre	2023-12-09T00:00:00	2024-11-06T05:00:00	6	Velocidad del viento	4.8
177254	7	Sololá	701	Sololá	2	El tablón	9	Septiembre	2023-12-09T00:00:00	2024-11-06T05:00:00	7	Dirección del viento	4.83
177255	7	Sololá	701	Sololá	2	El tablón	9	Septiembre	2023-12-09T00:00:00	2024-11-06T05:00:00	1	Precipitación	0
177256	7	Sololá	701	Sololá	2	El tablón	9	Septiembre	2023-12-09T00:00:00	2024-11-06T05:00:00	8	Radiación solar	0
177257	7	Sololá	701	Sololá	2	El tablón	9	Septiembre	2023-12-09T00:00:00	2024-11-06T06:00:00	2	Temperatura media	12.4
177258	7	Sololá	701	Sololá	2	El tablón	9	Septiembre	2023-12-09T00:00:00	2024-11-06T06:00:00	4	Temperatura máxima	12.7
177259	7	Sololá	701	Sololá	2	El tablón	9	Septiembre	2023-12-09T00:00:00	2024-11-06T06:00:00	3	Temperatura mínima	12.3
177260	7	Sololá	701	Sololá	2	El tablón	9	Septiembre	2023-12-09T00:00:00	2024-11-06T06:00:00	5	Humedad	87
177261	7	Sololá	701	Sololá	2	El tablón	9	Septiembre	2023-12-09T00:00:00	2024-11-06T06:00:00	6	Velocidad del viento	4.8
177262	7	Sololá	701	Sololá	2	El tablón	9	Septiembre	2023-12-09T00:00:00	2024-11-06T06:00:00	7	Dirección del viento	4.83
177263	7	Sololá	701	Sololá	2	El tablón	9	Septiembre	2023-12-09T00:00:00	2024-11-06T06:00:00	1	Precipitación	0
177264	7	Sololá	701	Sololá	2	El tablón	9	Septiembre	2023-12-09T00:00:00	2024-11-06T06:00:00	8	Radiación solar	0
177265	7	Sololá	701	Sololá	2	El tablón	9	Septiembre	2023-12-09T00:00:00	2024-11-06T07:00:00	2	Temperatura media	13.9
177266	7	Sololá	701	Sololá	2	El tablón	9	Septiembre	2023-12-09T00:00:00	2024-11-06T07:00:00	4	Temperatura máxima	13.9
177267	7	Sololá	701	Sololá	2	El tablón	9	Septiembre	2023-12-09T00:00:00	2024-11-06T07:00:00	3	Temperatura mínima	12.4
177268	7	Sololá	701	Sololá	2	El tablón	9	Septiembre	2023-12-09T00:00:00	2024-11-06T07:00:00	5	Humedad	84
177269	7	Sololá	701	Sololá	2	El tablón	9	Septiembre	2023-12-09T00:00:00	2024-11-06T07:00:00	6	Velocidad del viento	8
177270	7	Sololá	701	Sololá	2	El tablón	9	Septiembre	2023-12-09T00:00:00	2024-11-06T07:00:00	7	Dirección del viento	8.05
177271	7	Sololá	701	Sololá	2	El tablón	9	Septiembre	2023-12-09T00:00:00	2024-11-06T07:00:00	1	Precipitación	0
177272	7	Sololá	701	Sololá	2	El tablón	9	Septiembre	2023-12-09T00:00:00	2024-11-06T07:00:00	8	Radiación solar	75
177273	7	Sololá	701	Sololá	2	El tablón	9	Septiembre	2023-12-09T00:00:00	2024-11-06T08:00:00	2	Temperatura media	16.6
177274	7	Sololá	701	Sololá	2	El tablón	9	Septiembre	2023-12-09T00:00:00	2024-11-06T08:00:00	4	Temperatura máxima	16.6
177275	7	Sololá	701	Sololá	2	El tablón	9	Septiembre	2023-12-09T00:00:00	2024-11-06T08:00:00	3	Temperatura mínima	13.9
177276	7	Sololá	701	Sololá	2	El tablón	9	Septiembre	2023-12-09T00:00:00	2024-11-06T08:00:00	5	Humedad	76
177277	7	Sololá	701	Sololá	2	El tablón	9	Septiembre	2023-12-09T00:00:00	2024-11-06T08:00:00	6	Velocidad del viento	6.4
177278	7	Sololá	701	Sololá	2	El tablón	9	Septiembre	2023-12-09T00:00:00	2024-11-06T08:00:00	7	Dirección del viento	6.44
177279	7	Sololá	701	Sololá	2	El tablón	9	Septiembre	2023-12-09T00:00:00	2024-11-06T08:00:00	1	Precipitación	0
177280	7	Sololá	701	Sololá	2	El tablón	9	Septiembre	2023-12-09T00:00:00	2024-11-06T08:00:00	8	Radiación solar	309
177281	7	Sololá	701	Sololá	2	El tablón	9	Septiembre	2023-12-09T00:00:00	2024-11-06T09:00:00	2	Temperatura media	16.8
177282	7	Sololá	701	Sololá	2	El tablón	9	Septiembre	2023-12-09T00:00:00	2024-11-06T09:00:00	4	Temperatura máxima	17.2
177283	7	Sololá	701	Sololá	2	El tablón	9	Septiembre	2023-12-09T00:00:00	2024-11-06T09:00:00	3	Temperatura mínima	16.6
177284	7	Sololá	701	Sololá	2	El tablón	9	Septiembre	2023-12-09T00:00:00	2024-11-06T09:00:00	5	Humedad	77
177285	7	Sololá	701	Sololá	2	El tablón	9	Septiembre	2023-12-09T00:00:00	2024-11-06T09:00:00	6	Velocidad del viento	9.7
177286	7	Sololá	701	Sololá	2	El tablón	9	Septiembre	2023-12-09T00:00:00	2024-11-06T09:00:00	7	Dirección del viento	9.66
177287	7	Sololá	701	Sololá	2	El tablón	9	Septiembre	2023-12-09T00:00:00	2024-11-06T09:00:00	1	Precipitación	0
177288	7	Sololá	701	Sololá	2	El tablón	9	Septiembre	2023-12-09T00:00:00	2024-11-06T09:00:00	8	Radiación solar	431
177289	7	Sololá	701	Sololá	2	El tablón	9	Septiembre	2023-12-09T00:00:00	2024-11-06T10:00:00	2	Temperatura media	18.8
177290	7	Sololá	701	Sololá	2	El tablón	9	Septiembre	2023-12-09T00:00:00	2024-11-06T10:00:00	4	Temperatura máxima	18.9
177291	7	Sololá	701	Sololá	2	El tablón	9	Septiembre	2023-12-09T00:00:00	2024-11-06T10:00:00	3	Temperatura mínima	16.8
177292	7	Sololá	701	Sololá	2	El tablón	9	Septiembre	2023-12-09T00:00:00	2024-11-06T10:00:00	5	Humedad	70
177293	7	Sololá	701	Sololá	2	El tablón	9	Septiembre	2023-12-09T00:00:00	2024-11-06T10:00:00	6	Velocidad del viento	6.4
177294	7	Sololá	701	Sololá	2	El tablón	9	Septiembre	2023-12-09T00:00:00	2024-11-06T10:00:00	7	Dirección del viento	6.44
177295	7	Sololá	701	Sololá	2	El tablón	9	Septiembre	2023-12-09T00:00:00	2024-11-06T10:00:00	1	Precipitación	0
177296	7	Sololá	701	Sololá	2	El tablón	9	Septiembre	2023-12-09T00:00:00	2024-11-06T10:00:00	8	Radiación solar	638
177297	7	Sololá	701	Sololá	2	El tablón	9	Septiembre	2023-12-09T00:00:00	2024-11-06T11:00:00	2	Temperatura media	19.1
177298	7	Sololá	701	Sololá	2	El tablón	9	Septiembre	2023-12-09T00:00:00	2024-11-06T11:00:00	4	Temperatura máxima	19.5
177299	7	Sololá	701	Sololá	2	El tablón	9	Septiembre	2023-12-09T00:00:00	2024-11-06T11:00:00	3	Temperatura mínima	18.8
177300	7	Sololá	701	Sololá	2	El tablón	9	Septiembre	2023-12-09T00:00:00	2024-11-06T11:00:00	5	Humedad	77
177301	7	Sololá	701	Sololá	2	El tablón	9	Septiembre	2023-12-09T00:00:00	2024-11-06T11:00:00	6	Velocidad del viento	4.8
177302	7	Sololá	701	Sololá	2	El tablón	9	Septiembre	2023-12-09T00:00:00	2024-11-06T11:00:00	7	Dirección del viento	4.83
177303	7	Sololá	701	Sololá	2	El tablón	9	Septiembre	2023-12-09T00:00:00	2024-11-06T11:00:00	1	Precipitación	0
177304	7	Sololá	701	Sololá	2	El tablón	9	Septiembre	2023-12-09T00:00:00	2024-11-06T11:00:00	8	Radiación solar	550
177305	7	Sololá	701	Sololá	2	El tablón	9	Septiembre	2023-12-09T00:00:00	2024-11-06T12:00:00	2	Temperatura media	18.1
177306	7	Sololá	701	Sololá	2	El tablón	9	Septiembre	2023-12-09T00:00:00	2024-11-06T12:00:00	4	Temperatura máxima	19.1
177307	7	Sololá	701	Sololá	2	El tablón	9	Septiembre	2023-12-09T00:00:00	2024-11-06T12:00:00	3	Temperatura mínima	17.9
177308	7	Sololá	701	Sololá	2	El tablón	9	Septiembre	2023-12-09T00:00:00	2024-11-06T12:00:00	5	Humedad	83
177309	7	Sololá	701	Sololá	2	El tablón	9	Septiembre	2023-12-09T00:00:00	2024-11-06T12:00:00	6	Velocidad del viento	4.8
177310	7	Sololá	701	Sololá	2	El tablón	9	Septiembre	2023-12-09T00:00:00	2024-11-06T12:00:00	7	Dirección del viento	4.83
177311	7	Sololá	701	Sololá	2	El tablón	9	Septiembre	2023-12-09T00:00:00	2024-11-06T12:00:00	1	Precipitación	0
177312	7	Sololá	701	Sololá	2	El tablón	9	Septiembre	2023-12-09T00:00:00	2024-11-06T12:00:00	8	Radiación solar	269
177313	7	Sololá	701	Sololá	2	El tablón	9	Septiembre	2023-12-09T00:00:00	2024-11-06T13:00:00	2	Temperatura media	19.8
177314	7	Sololá	701	Sololá	2	El tablón	9	Septiembre	2023-12-09T00:00:00	2024-11-06T13:00:00	4	Temperatura máxima	19.8
177315	7	Sololá	701	Sololá	2	El tablón	9	Septiembre	2023-12-09T00:00:00	2024-11-06T13:00:00	3	Temperatura mínima	17.9
177316	7	Sololá	701	Sololá	2	El tablón	9	Septiembre	2023-12-09T00:00:00	2024-11-06T13:00:00	5	Humedad	78
177317	7	Sololá	701	Sololá	2	El tablón	9	Septiembre	2023-12-09T00:00:00	2024-11-06T13:00:00	6	Velocidad del viento	6.4
177318	7	Sololá	701	Sololá	2	El tablón	9	Septiembre	2023-12-09T00:00:00	2024-11-06T13:00:00	7	Dirección del viento	6.44
177319	7	Sololá	701	Sololá	2	El tablón	9	Septiembre	2023-12-09T00:00:00	2024-11-06T13:00:00	1	Precipitación	0
177320	7	Sololá	701	Sololá	2	El tablón	9	Septiembre	2023-12-09T00:00:00	2024-11-06T13:00:00	8	Radiación solar	754
177321	7	Sololá	701	Sololá	2	El tablón	9	Septiembre	2023-12-09T00:00:00	2024-11-06T14:00:00	2	Temperatura media	18.3
177322	7	Sololá	701	Sololá	2	El tablón	9	Septiembre	2023-12-09T00:00:00	2024-11-06T14:00:00	4	Temperatura máxima	20.7
177323	7	Sololá	701	Sololá	2	El tablón	9	Septiembre	2023-12-09T00:00:00	2024-11-06T14:00:00	3	Temperatura mínima	18.3
177324	7	Sololá	701	Sololá	2	El tablón	9	Septiembre	2023-12-09T00:00:00	2024-11-06T14:00:00	5	Humedad	86
177325	7	Sololá	701	Sololá	2	El tablón	9	Septiembre	2023-12-09T00:00:00	2024-11-06T14:00:00	6	Velocidad del viento	8
177326	7	Sololá	701	Sololá	2	El tablón	9	Septiembre	2023-12-09T00:00:00	2024-11-06T14:00:00	7	Dirección del viento	8.05
177327	7	Sololá	701	Sololá	2	El tablón	9	Septiembre	2023-12-09T00:00:00	2024-11-06T14:00:00	1	Precipitación	0
177328	7	Sololá	701	Sololá	2	El tablón	9	Septiembre	2023-12-09T00:00:00	2024-11-06T14:00:00	8	Radiación solar	702
177329	7	Sololá	701	Sololá	2	El tablón	9	Septiembre	2023-12-09T00:00:00	2024-11-06T15:00:00	2	Temperatura media	18.3
177330	7	Sololá	701	Sololá	2	El tablón	9	Septiembre	2023-12-09T00:00:00	2024-11-06T15:00:00	4	Temperatura máxima	18.7
177331	7	Sololá	701	Sololá	2	El tablón	9	Septiembre	2023-12-09T00:00:00	2024-11-06T15:00:00	3	Temperatura mínima	17.7
177332	7	Sololá	701	Sololá	2	El tablón	9	Septiembre	2023-12-09T00:00:00	2024-11-06T15:00:00	5	Humedad	85
177333	7	Sololá	701	Sololá	2	El tablón	9	Septiembre	2023-12-09T00:00:00	2024-11-06T15:00:00	6	Velocidad del viento	8
177334	7	Sololá	701	Sololá	2	El tablón	9	Septiembre	2023-12-09T00:00:00	2024-11-06T15:00:00	7	Dirección del viento	8.05
177335	7	Sololá	701	Sololá	2	El tablón	9	Septiembre	2023-12-09T00:00:00	2024-11-06T15:00:00	1	Precipitación	0
177336	7	Sololá	701	Sololá	2	El tablón	9	Septiembre	2023-12-09T00:00:00	2024-11-06T15:00:00	8	Radiación solar	431
177337	7	Sololá	701	Sololá	2	El tablón	9	Septiembre	2023-12-09T00:00:00	2024-11-06T16:00:00	2	Temperatura media	18.4
177338	7	Sololá	701	Sololá	2	El tablón	9	Septiembre	2023-12-09T00:00:00	2024-11-06T16:00:00	4	Temperatura máxima	18.7
177339	7	Sololá	701	Sololá	2	El tablón	9	Septiembre	2023-12-09T00:00:00	2024-11-06T16:00:00	3	Temperatura mínima	17.7
177340	7	Sololá	701	Sololá	2	El tablón	9	Septiembre	2023-12-09T00:00:00	2024-11-06T16:00:00	5	Humedad	86
177341	7	Sololá	701	Sololá	2	El tablón	9	Septiembre	2023-12-09T00:00:00	2024-11-06T16:00:00	6	Velocidad del viento	6.4
177342	7	Sololá	701	Sololá	2	El tablón	9	Septiembre	2023-12-09T00:00:00	2024-11-06T16:00:00	7	Dirección del viento	6.44
177343	7	Sololá	701	Sololá	2	El tablón	9	Septiembre	2023-12-09T00:00:00	2024-11-06T16:00:00	1	Precipitación	0
177344	7	Sololá	701	Sololá	2	El tablón	9	Septiembre	2023-12-09T00:00:00	2024-11-06T16:00:00	8	Radiación solar	373
177345	7	Sololá	701	Sololá	2	El tablón	9	Septiembre	2023-12-09T00:00:00	2024-11-06T17:00:00	2	Temperatura media	16.9
177346	7	Sololá	701	Sololá	2	El tablón	9	Septiembre	2023-12-09T00:00:00	2024-11-06T17:00:00	4	Temperatura máxima	18.4
177347	7	Sololá	701	Sololá	2	El tablón	9	Septiembre	2023-12-09T00:00:00	2024-11-06T17:00:00	3	Temperatura mínima	16.9
177348	7	Sololá	701	Sololá	2	El tablón	9	Septiembre	2023-12-09T00:00:00	2024-11-06T17:00:00	5	Humedad	87
177349	7	Sololá	701	Sololá	2	El tablón	9	Septiembre	2023-12-09T00:00:00	2024-11-06T17:00:00	6	Velocidad del viento	3.2
177350	7	Sololá	701	Sololá	2	El tablón	9	Septiembre	2023-12-09T00:00:00	2024-11-06T17:00:00	7	Dirección del viento	3.22
177351	7	Sololá	701	Sololá	2	El tablón	9	Septiembre	2023-12-09T00:00:00	2024-11-06T17:00:00	1	Precipitación	0
177352	7	Sololá	701	Sololá	2	El tablón	9	Septiembre	2023-12-09T00:00:00	2024-11-06T17:00:00	8	Radiación solar	108
177353	7	Sololá	701	Sololá	2	El tablón	9	Septiembre	2023-12-09T00:00:00	2024-11-06T18:00:00	2	Temperatura media	16.4
177354	7	Sololá	701	Sololá	2	El tablón	9	Septiembre	2023-12-09T00:00:00	2024-11-06T18:00:00	4	Temperatura máxima	17.1
177355	7	Sololá	701	Sololá	2	El tablón	9	Septiembre	2023-12-09T00:00:00	2024-11-06T18:00:00	3	Temperatura mínima	16.4
177356	7	Sololá	701	Sololá	2	El tablón	9	Septiembre	2023-12-09T00:00:00	2024-11-06T18:00:00	5	Humedad	88
177357	7	Sololá	701	Sololá	2	El tablón	9	Septiembre	2023-12-09T00:00:00	2024-11-06T18:00:00	6	Velocidad del viento	3.2
177358	7	Sololá	701	Sololá	2	El tablón	9	Septiembre	2023-12-09T00:00:00	2024-11-06T18:00:00	7	Dirección del viento	3.22
177359	7	Sololá	701	Sololá	2	El tablón	9	Septiembre	2023-12-09T00:00:00	2024-11-06T18:00:00	1	Precipitación	0
177360	7	Sololá	701	Sololá	2	El tablón	9	Septiembre	2023-12-09T00:00:00	2024-11-06T18:00:00	8	Radiación solar	44
177361	7	Sololá	701	Sololá	2	El tablón	9	Septiembre	2023-12-09T00:00:00	2024-11-06T19:00:00	2	Temperatura media	15.9
177362	7	Sololá	701	Sololá	2	El tablón	9	Septiembre	2023-12-09T00:00:00	2024-11-06T19:00:00	4	Temperatura máxima	16.4
177363	7	Sololá	701	Sololá	2	El tablón	9	Septiembre	2023-12-09T00:00:00	2024-11-06T19:00:00	3	Temperatura mínima	15.9
177364	7	Sololá	701	Sololá	2	El tablón	9	Septiembre	2023-12-09T00:00:00	2024-11-06T19:00:00	5	Humedad	86
177365	7	Sololá	701	Sololá	2	El tablón	9	Septiembre	2023-12-09T00:00:00	2024-11-06T19:00:00	6	Velocidad del viento	3.2
177366	7	Sololá	701	Sololá	2	El tablón	9	Septiembre	2023-12-09T00:00:00	2024-11-06T19:00:00	7	Dirección del viento	3.22
177367	7	Sololá	701	Sololá	2	El tablón	9	Septiembre	2023-12-09T00:00:00	2024-11-06T19:00:00	1	Precipitación	0
177368	7	Sololá	701	Sololá	2	El tablón	9	Septiembre	2023-12-09T00:00:00	2024-11-06T19:00:00	8	Radiación solar	0
177369	7	Sololá	701	Sololá	2	El tablón	9	Septiembre	2023-12-09T00:00:00	2024-11-06T20:00:00	2	Temperatura media	15.2
177370	7	Sololá	701	Sololá	2	El tablón	9	Septiembre	2023-12-09T00:00:00	2024-11-06T20:00:00	4	Temperatura máxima	15.9
177371	7	Sololá	701	Sololá	2	El tablón	9	Septiembre	2023-12-09T00:00:00	2024-11-06T20:00:00	3	Temperatura mínima	15.2
177372	7	Sololá	701	Sololá	2	El tablón	9	Septiembre	2023-12-09T00:00:00	2024-11-06T20:00:00	5	Humedad	87
177373	7	Sololá	701	Sololá	2	El tablón	9	Septiembre	2023-12-09T00:00:00	2024-11-06T20:00:00	6	Velocidad del viento	3.2
177374	7	Sololá	701	Sololá	2	El tablón	9	Septiembre	2023-12-09T00:00:00	2024-11-06T20:00:00	7	Dirección del viento	3.22
177375	7	Sololá	701	Sololá	2	El tablón	9	Septiembre	2023-12-09T00:00:00	2024-11-06T20:00:00	1	Precipitación	0
177376	7	Sololá	701	Sololá	2	El tablón	9	Septiembre	2023-12-09T00:00:00	2024-11-06T20:00:00	8	Radiación solar	0
177377	7	Sololá	701	Sololá	2	El tablón	9	Septiembre	2023-12-09T00:00:00	2024-11-06T21:00:00	2	Temperatura media	15.1
177378	7	Sololá	701	Sololá	2	El tablón	9	Septiembre	2023-12-09T00:00:00	2024-11-06T21:00:00	4	Temperatura máxima	15.2
177379	7	Sololá	701	Sololá	2	El tablón	9	Septiembre	2023-12-09T00:00:00	2024-11-06T21:00:00	3	Temperatura mínima	14.9
177380	7	Sololá	701	Sololá	2	El tablón	9	Septiembre	2023-12-09T00:00:00	2024-11-06T21:00:00	5	Humedad	88
177381	7	Sololá	701	Sololá	2	El tablón	9	Septiembre	2023-12-09T00:00:00	2024-11-06T21:00:00	6	Velocidad del viento	1.6
177382	7	Sololá	701	Sololá	2	El tablón	9	Septiembre	2023-12-09T00:00:00	2024-11-06T21:00:00	7	Dirección del viento	1.61
177383	7	Sololá	701	Sololá	2	El tablón	9	Septiembre	2023-12-09T00:00:00	2024-11-06T21:00:00	1	Precipitación	0
177384	7	Sololá	701	Sololá	2	El tablón	9	Septiembre	2023-12-09T00:00:00	2024-11-06T21:00:00	8	Radiación solar	0
177385	7	Sololá	701	Sololá	2	El tablón	9	Septiembre	2023-12-09T00:00:00	2024-11-06T22:00:00	2	Temperatura media	14.8
177386	7	Sololá	701	Sololá	2	El tablón	9	Septiembre	2023-12-09T00:00:00	2024-11-06T22:00:00	4	Temperatura máxima	15.2
177387	7	Sololá	701	Sololá	2	El tablón	9	Septiembre	2023-12-09T00:00:00	2024-11-06T22:00:00	3	Temperatura mínima	14.8
177388	7	Sololá	701	Sololá	2	El tablón	9	Septiembre	2023-12-09T00:00:00	2024-11-06T22:00:00	5	Humedad	88
177389	7	Sololá	701	Sololá	2	El tablón	9	Septiembre	2023-12-09T00:00:00	2024-11-06T22:00:00	6	Velocidad del viento	1.6
177390	7	Sololá	701	Sololá	2	El tablón	9	Septiembre	2023-12-09T00:00:00	2024-11-06T22:00:00	7	Dirección del viento	1.61
177391	7	Sololá	701	Sololá	2	El tablón	9	Septiembre	2023-12-09T00:00:00	2024-11-06T22:00:00	1	Precipitación	0
177392	7	Sololá	701	Sololá	2	El tablón	9	Septiembre	2023-12-09T00:00:00	2024-11-06T22:00:00	8	Radiación solar	0
177393	7	Sololá	701	Sololá	2	El tablón	9	Septiembre	2023-12-09T00:00:00	2024-11-06T23:00:00	2	Temperatura media	14.6
177394	7	Sololá	701	Sololá	2	El tablón	9	Septiembre	2023-12-09T00:00:00	2024-11-06T23:00:00	4	Temperatura máxima	14.8
177395	7	Sololá	701	Sololá	2	El tablón	9	Septiembre	2023-12-09T00:00:00	2024-11-06T23:00:00	3	Temperatura mínima	14.6
177396	7	Sololá	701	Sololá	2	El tablón	9	Septiembre	2023-12-09T00:00:00	2024-11-06T23:00:00	5	Humedad	88
177397	7	Sololá	701	Sololá	2	El tablón	9	Septiembre	2023-12-09T00:00:00	2024-11-06T23:00:00	6	Velocidad del viento	3.2
177398	7	Sololá	701	Sololá	2	El tablón	9	Septiembre	2023-12-09T00:00:00	2024-11-06T23:00:00	7	Dirección del viento	3.22
177399	7	Sololá	701	Sololá	2	El tablón	9	Septiembre	2023-12-09T00:00:00	2024-11-06T23:00:00	1	Precipitación	0
177400	7	Sololá	701	Sololá	2	El tablón	9	Septiembre	2023-12-09T00:00:00	2024-11-06T23:00:00	8	Radiación solar	0
177401	7	Sololá	701	Sololá	2	El tablón	9	Septiembre	2023-09-13T00:00:00	2024-11-06T00:00:00	2	Temperatura media	14.8
177402	7	Sololá	701	Sololá	2	El tablón	9	Septiembre	2023-09-13T00:00:00	2024-11-06T00:00:00	4	Temperatura máxima	14.9
177403	7	Sololá	701	Sololá	2	El tablón	9	Septiembre	2023-09-13T00:00:00	2024-11-06T00:00:00	3	Temperatura mínima	14.6
177404	7	Sololá	701	Sololá	2	El tablón	9	Septiembre	2023-09-13T00:00:00	2024-11-06T00:00:00	5	Humedad	88
177405	7	Sololá	701	Sololá	2	El tablón	9	Septiembre	2023-09-13T00:00:00	2024-11-06T00:00:00	6	Velocidad del viento	3.2
177406	7	Sololá	701	Sololá	2	El tablón	9	Septiembre	2023-09-13T00:00:00	2024-11-06T00:00:00	7	Dirección del viento	3.22
177407	7	Sololá	701	Sololá	2	El tablón	9	Septiembre	2023-09-13T00:00:00	2024-11-06T00:00:00	1	Precipitación	0
177408	7	Sololá	701	Sololá	2	El tablón	9	Septiembre	2023-09-13T00:00:00	2024-11-06T00:00:00	8	Radiación solar	0
177409	7	Sololá	701	Sololá	2	El tablón	9	Septiembre	2023-09-13T00:00:00	2024-11-06T01:00:00	2	Temperatura media	14.7
177410	7	Sololá	701	Sololá	2	El tablón	9	Septiembre	2023-09-13T00:00:00	2024-11-06T01:00:00	4	Temperatura máxima	14.8
177411	7	Sololá	701	Sololá	2	El tablón	9	Septiembre	2023-09-13T00:00:00	2024-11-06T01:00:00	3	Temperatura mínima	14.7
177412	7	Sololá	701	Sololá	2	El tablón	9	Septiembre	2023-09-13T00:00:00	2024-11-06T01:00:00	5	Humedad	88
177413	7	Sololá	701	Sololá	2	El tablón	9	Septiembre	2023-09-13T00:00:00	2024-11-06T01:00:00	6	Velocidad del viento	1.6
177414	7	Sololá	701	Sololá	2	El tablón	9	Septiembre	2023-09-13T00:00:00	2024-11-06T01:00:00	7	Dirección del viento	1.61
177415	7	Sololá	701	Sololá	2	El tablón	9	Septiembre	2023-09-13T00:00:00	2024-11-06T01:00:00	1	Precipitación	0
177416	7	Sololá	701	Sololá	2	El tablón	9	Septiembre	2023-09-13T00:00:00	2024-11-06T01:00:00	8	Radiación solar	0
177417	7	Sololá	701	Sololá	2	El tablón	9	Septiembre	2023-09-13T00:00:00	2024-11-06T02:00:00	2	Temperatura media	14
177418	7	Sololá	701	Sololá	2	El tablón	9	Septiembre	2023-09-13T00:00:00	2024-11-06T02:00:00	4	Temperatura máxima	14.7
177419	7	Sololá	701	Sololá	2	El tablón	9	Septiembre	2023-09-13T00:00:00	2024-11-06T02:00:00	3	Temperatura mínima	14
177420	7	Sololá	701	Sololá	2	El tablón	9	Septiembre	2023-09-13T00:00:00	2024-11-06T02:00:00	5	Humedad	88
177421	7	Sololá	701	Sololá	2	El tablón	9	Septiembre	2023-09-13T00:00:00	2024-11-06T02:00:00	6	Velocidad del viento	1.6
177422	7	Sololá	701	Sololá	2	El tablón	9	Septiembre	2023-09-13T00:00:00	2024-11-06T02:00:00	7	Dirección del viento	1.61
177423	7	Sololá	701	Sololá	2	El tablón	9	Septiembre	2023-09-13T00:00:00	2024-11-06T02:00:00	1	Precipitación	0.6
177424	7	Sololá	701	Sololá	2	El tablón	9	Septiembre	2023-09-13T00:00:00	2024-11-06T02:00:00	8	Radiación solar	0
177425	7	Sololá	701	Sololá	2	El tablón	9	Septiembre	2023-09-13T00:00:00	2024-11-06T03:00:00	2	Temperatura media	13.6
177426	7	Sololá	701	Sololá	2	El tablón	9	Septiembre	2023-09-13T00:00:00	2024-11-06T03:00:00	4	Temperatura máxima	14
177427	7	Sololá	701	Sololá	2	El tablón	9	Septiembre	2023-09-13T00:00:00	2024-11-06T03:00:00	3	Temperatura mínima	13.6
177428	7	Sololá	701	Sololá	2	El tablón	9	Septiembre	2023-09-13T00:00:00	2024-11-06T03:00:00	5	Humedad	88
177429	7	Sololá	701	Sololá	2	El tablón	9	Septiembre	2023-09-13T00:00:00	2024-11-06T03:00:00	6	Velocidad del viento	4.8
177430	7	Sololá	701	Sololá	2	El tablón	9	Septiembre	2023-09-13T00:00:00	2024-11-06T03:00:00	7	Dirección del viento	4.83
177431	7	Sololá	701	Sololá	2	El tablón	9	Septiembre	2023-09-13T00:00:00	2024-11-06T03:00:00	1	Precipitación	4
177432	7	Sololá	701	Sololá	2	El tablón	9	Septiembre	2023-09-13T00:00:00	2024-11-06T03:00:00	8	Radiación solar	0
177433	7	Sololá	701	Sololá	2	El tablón	9	Septiembre	2023-09-13T00:00:00	2024-11-06T04:00:00	2	Temperatura media	13.4
177434	7	Sololá	701	Sololá	2	El tablón	9	Septiembre	2023-09-13T00:00:00	2024-11-06T04:00:00	4	Temperatura máxima	13.6
177435	7	Sololá	701	Sololá	2	El tablón	9	Septiembre	2023-09-13T00:00:00	2024-11-06T04:00:00	3	Temperatura mínima	13.4
177436	7	Sololá	701	Sololá	2	El tablón	9	Septiembre	2023-09-13T00:00:00	2024-11-06T04:00:00	5	Humedad	88
177437	7	Sololá	701	Sololá	2	El tablón	9	Septiembre	2023-09-13T00:00:00	2024-11-06T04:00:00	6	Velocidad del viento	4.8
177438	7	Sololá	701	Sololá	2	El tablón	9	Septiembre	2023-09-13T00:00:00	2024-11-06T04:00:00	7	Dirección del viento	4.83
177439	7	Sololá	701	Sololá	2	El tablón	9	Septiembre	2023-09-13T00:00:00	2024-11-06T04:00:00	1	Precipitación	0.8
177440	7	Sololá	701	Sololá	2	El tablón	9	Septiembre	2023-09-13T00:00:00	2024-11-06T04:00:00	8	Radiación solar	0
177441	7	Sololá	701	Sololá	2	El tablón	9	Septiembre	2023-09-13T00:00:00	2024-11-06T05:00:00	2	Temperatura media	13.5
177442	7	Sololá	701	Sololá	2	El tablón	9	Septiembre	2023-09-13T00:00:00	2024-11-06T05:00:00	4	Temperatura máxima	13.7
177443	7	Sololá	701	Sololá	2	El tablón	9	Septiembre	2023-09-13T00:00:00	2024-11-06T05:00:00	3	Temperatura mínima	13.4
177444	7	Sololá	701	Sololá	2	El tablón	9	Septiembre	2023-09-13T00:00:00	2024-11-06T05:00:00	5	Humedad	88
177445	7	Sololá	701	Sololá	2	El tablón	9	Septiembre	2023-09-13T00:00:00	2024-11-06T05:00:00	6	Velocidad del viento	4.8
177446	7	Sololá	701	Sololá	2	El tablón	9	Septiembre	2023-09-13T00:00:00	2024-11-06T05:00:00	7	Dirección del viento	4.83
177447	7	Sololá	701	Sololá	2	El tablón	9	Septiembre	2023-09-13T00:00:00	2024-11-06T05:00:00	1	Precipitación	0
177448	7	Sololá	701	Sololá	2	El tablón	9	Septiembre	2023-09-13T00:00:00	2024-11-06T05:00:00	8	Radiación solar	0
177449	7	Sololá	701	Sololá	2	El tablón	9	Septiembre	2023-09-13T00:00:00	2024-11-06T06:00:00	2	Temperatura media	13.6
177450	7	Sololá	701	Sololá	2	El tablón	9	Septiembre	2023-09-13T00:00:00	2024-11-06T06:00:00	4	Temperatura máxima	13.7
177451	7	Sololá	701	Sololá	2	El tablón	9	Septiembre	2023-09-13T00:00:00	2024-11-06T06:00:00	3	Temperatura mínima	13.3
177452	7	Sololá	701	Sololá	2	El tablón	9	Septiembre	2023-09-13T00:00:00	2024-11-06T06:00:00	5	Humedad	88
177453	7	Sololá	701	Sololá	2	El tablón	9	Septiembre	2023-09-13T00:00:00	2024-11-06T06:00:00	6	Velocidad del viento	6.4
177454	7	Sololá	701	Sololá	2	El tablón	9	Septiembre	2023-09-13T00:00:00	2024-11-06T06:00:00	7	Dirección del viento	6.44
177455	7	Sololá	701	Sololá	2	El tablón	9	Septiembre	2023-09-13T00:00:00	2024-11-06T06:00:00	1	Precipitación	0
177456	7	Sololá	701	Sololá	2	El tablón	9	Septiembre	2023-09-13T00:00:00	2024-11-06T06:00:00	8	Radiación solar	0
177457	7	Sololá	701	Sololá	2	El tablón	9	Septiembre	2023-09-13T00:00:00	2024-11-06T07:00:00	2	Temperatura media	14.5
177458	7	Sololá	701	Sololá	2	El tablón	9	Septiembre	2023-09-13T00:00:00	2024-11-06T07:00:00	4	Temperatura máxima	14.5
177459	7	Sololá	701	Sololá	2	El tablón	9	Septiembre	2023-09-13T00:00:00	2024-11-06T07:00:00	3	Temperatura mínima	13.4
177460	7	Sololá	701	Sololá	2	El tablón	9	Septiembre	2023-09-13T00:00:00	2024-11-06T07:00:00	5	Humedad	85
177461	7	Sololá	701	Sololá	2	El tablón	9	Septiembre	2023-09-13T00:00:00	2024-11-06T07:00:00	6	Velocidad del viento	4.8
177462	7	Sololá	701	Sololá	2	El tablón	9	Septiembre	2023-09-13T00:00:00	2024-11-06T07:00:00	7	Dirección del viento	4.83
177463	7	Sololá	701	Sololá	2	El tablón	9	Septiembre	2023-09-13T00:00:00	2024-11-06T07:00:00	1	Precipitación	0
177464	7	Sololá	701	Sololá	2	El tablón	9	Septiembre	2023-09-13T00:00:00	2024-11-06T07:00:00	8	Radiación solar	53
177465	7	Sololá	701	Sololá	2	El tablón	9	Septiembre	2023-09-13T00:00:00	2024-11-06T08:00:00	2	Temperatura media	15.6
177466	7	Sololá	701	Sololá	2	El tablón	9	Septiembre	2023-09-13T00:00:00	2024-11-06T08:00:00	4	Temperatura máxima	15.6
177467	7	Sololá	701	Sololá	2	El tablón	9	Septiembre	2023-09-13T00:00:00	2024-11-06T08:00:00	3	Temperatura mínima	14.4
177468	7	Sololá	701	Sololá	2	El tablón	9	Septiembre	2023-09-13T00:00:00	2024-11-06T08:00:00	5	Humedad	83
177469	7	Sololá	701	Sololá	2	El tablón	9	Septiembre	2023-09-13T00:00:00	2024-11-06T08:00:00	6	Velocidad del viento	3.2
177470	7	Sololá	701	Sololá	2	El tablón	9	Septiembre	2023-09-13T00:00:00	2024-11-06T08:00:00	7	Dirección del viento	3.22
177471	7	Sololá	701	Sololá	2	El tablón	9	Septiembre	2023-09-13T00:00:00	2024-11-06T08:00:00	1	Precipitación	0
177472	7	Sololá	701	Sololá	2	El tablón	9	Septiembre	2023-09-13T00:00:00	2024-11-06T08:00:00	8	Radiación solar	135
177473	7	Sololá	701	Sololá	2	El tablón	9	Septiembre	2023-09-13T00:00:00	2024-11-06T09:00:00	2	Temperatura media	19.9
177474	7	Sololá	701	Sololá	2	El tablón	9	Septiembre	2023-09-13T00:00:00	2024-11-06T09:00:00	4	Temperatura máxima	19.9
177475	7	Sololá	701	Sololá	2	El tablón	9	Septiembre	2023-09-13T00:00:00	2024-11-06T09:00:00	3	Temperatura mínima	15.6
177476	7	Sololá	701	Sololá	2	El tablón	9	Septiembre	2023-09-13T00:00:00	2024-11-06T09:00:00	5	Humedad	69
177477	7	Sololá	701	Sololá	2	El tablón	9	Septiembre	2023-09-13T00:00:00	2024-11-06T09:00:00	6	Velocidad del viento	3.2
177478	7	Sololá	701	Sololá	2	El tablón	9	Septiembre	2023-09-13T00:00:00	2024-11-06T09:00:00	7	Dirección del viento	3.22
177479	7	Sololá	701	Sololá	2	El tablón	9	Septiembre	2023-09-13T00:00:00	2024-11-06T09:00:00	1	Precipitación	0
177480	7	Sololá	701	Sololá	2	El tablón	9	Septiembre	2023-09-13T00:00:00	2024-11-06T09:00:00	8	Radiación solar	482
177481	7	Sololá	701	Sololá	2	El tablón	9	Septiembre	2023-09-13T00:00:00	2024-11-06T10:00:00	2	Temperatura media	19.2
177482	7	Sololá	701	Sololá	2	El tablón	9	Septiembre	2023-09-13T00:00:00	2024-11-06T10:00:00	4	Temperatura máxima	20
177483	7	Sololá	701	Sololá	2	El tablón	9	Septiembre	2023-09-13T00:00:00	2024-11-06T10:00:00	3	Temperatura mínima	18.3
177484	7	Sololá	701	Sololá	2	El tablón	9	Septiembre	2023-09-13T00:00:00	2024-11-06T10:00:00	5	Humedad	78
177485	7	Sololá	701	Sololá	2	El tablón	9	Septiembre	2023-09-13T00:00:00	2024-11-06T10:00:00	6	Velocidad del viento	4.8
177486	7	Sololá	701	Sololá	2	El tablón	9	Septiembre	2023-09-13T00:00:00	2024-11-06T10:00:00	7	Dirección del viento	4.83
177487	7	Sololá	701	Sololá	2	El tablón	9	Septiembre	2023-09-13T00:00:00	2024-11-06T10:00:00	1	Precipitación	0.2
177488	7	Sololá	701	Sololá	2	El tablón	9	Septiembre	2023-09-13T00:00:00	2024-11-06T10:00:00	8	Radiación solar	578
177489	7	Sololá	701	Sololá	2	El tablón	9	Septiembre	2023-09-13T00:00:00	2024-11-06T11:00:00	2	Temperatura media	20.1
177490	7	Sololá	701	Sololá	2	El tablón	9	Septiembre	2023-09-13T00:00:00	2024-11-06T11:00:00	4	Temperatura máxima	20.2
177491	7	Sololá	701	Sololá	2	El tablón	9	Septiembre	2023-09-13T00:00:00	2024-11-06T11:00:00	3	Temperatura mínima	19.1
177492	7	Sololá	701	Sololá	2	El tablón	9	Septiembre	2023-09-13T00:00:00	2024-11-06T11:00:00	5	Humedad	70
177493	7	Sololá	701	Sololá	2	El tablón	9	Septiembre	2023-09-13T00:00:00	2024-11-06T11:00:00	6	Velocidad del viento	9.7
177494	7	Sololá	701	Sololá	2	El tablón	9	Septiembre	2023-09-13T00:00:00	2024-11-06T11:00:00	7	Dirección del viento	9.66
177495	7	Sololá	701	Sololá	2	El tablón	9	Septiembre	2023-09-13T00:00:00	2024-11-06T11:00:00	1	Precipitación	0
177496	7	Sololá	701	Sololá	2	El tablón	9	Septiembre	2023-09-13T00:00:00	2024-11-06T11:00:00	8	Radiación solar	790
177497	7	Sololá	701	Sololá	2	El tablón	9	Septiembre	2023-09-13T00:00:00	2024-11-06T12:00:00	2	Temperatura media	20.2
177498	7	Sololá	701	Sololá	2	El tablón	9	Septiembre	2023-09-13T00:00:00	2024-11-06T12:00:00	4	Temperatura máxima	20.8
177499	7	Sololá	701	Sololá	2	El tablón	9	Septiembre	2023-09-13T00:00:00	2024-11-06T12:00:00	3	Temperatura mínima	19.6
177500	7	Sololá	701	Sololá	2	El tablón	9	Septiembre	2023-09-13T00:00:00	2024-11-06T12:00:00	5	Humedad	78
177501	7	Sololá	701	Sololá	2	El tablón	9	Septiembre	2023-09-13T00:00:00	2024-11-06T12:00:00	6	Velocidad del viento	9.7
177502	7	Sololá	701	Sololá	2	El tablón	9	Septiembre	2023-09-13T00:00:00	2024-11-06T12:00:00	7	Dirección del viento	9.66
177503	7	Sololá	701	Sololá	2	El tablón	9	Septiembre	2023-09-13T00:00:00	2024-11-06T12:00:00	1	Precipitación	0
177504	7	Sololá	701	Sololá	2	El tablón	9	Septiembre	2023-09-13T00:00:00	2024-11-06T12:00:00	8	Radiación solar	737
177505	7	Sololá	701	Sololá	2	El tablón	9	Septiembre	2023-09-13T00:00:00	2024-11-06T13:00:00	2	Temperatura media	19.6
177506	7	Sololá	701	Sololá	2	El tablón	9	Septiembre	2023-09-13T00:00:00	2024-11-06T13:00:00	4	Temperatura máxima	20.2
177507	7	Sololá	701	Sololá	2	El tablón	9	Septiembre	2023-09-13T00:00:00	2024-11-06T13:00:00	3	Temperatura mínima	18.4
177508	7	Sololá	701	Sololá	2	El tablón	9	Septiembre	2023-09-13T00:00:00	2024-11-06T13:00:00	5	Humedad	84
177509	7	Sololá	701	Sololá	2	El tablón	9	Septiembre	2023-09-13T00:00:00	2024-11-06T13:00:00	6	Velocidad del viento	8
177510	7	Sololá	701	Sololá	2	El tablón	9	Septiembre	2023-09-13T00:00:00	2024-11-06T13:00:00	7	Dirección del viento	8.05
177511	7	Sololá	701	Sololá	2	El tablón	9	Septiembre	2023-09-13T00:00:00	2024-11-06T13:00:00	1	Precipitación	0
177512	7	Sololá	701	Sololá	2	El tablón	9	Septiembre	2023-09-13T00:00:00	2024-11-06T13:00:00	8	Radiación solar	799
177513	7	Sololá	701	Sololá	2	El tablón	9	Septiembre	2023-09-13T00:00:00	2024-11-06T14:00:00	2	Temperatura media	17.4
177514	7	Sololá	701	Sololá	2	El tablón	9	Septiembre	2023-09-13T00:00:00	2024-11-06T14:00:00	4	Temperatura máxima	19.6
177515	7	Sololá	701	Sololá	2	El tablón	9	Septiembre	2023-09-13T00:00:00	2024-11-06T14:00:00	3	Temperatura mínima	17.4
177516	7	Sololá	701	Sololá	2	El tablón	9	Septiembre	2023-09-13T00:00:00	2024-11-06T14:00:00	5	Humedad	87
177517	7	Sololá	701	Sololá	2	El tablón	9	Septiembre	2023-09-13T00:00:00	2024-11-06T14:00:00	6	Velocidad del viento	8
177518	7	Sololá	701	Sololá	2	El tablón	9	Septiembre	2023-09-13T00:00:00	2024-11-06T14:00:00	7	Dirección del viento	8.05
177519	7	Sololá	701	Sololá	2	El tablón	9	Septiembre	2023-09-13T00:00:00	2024-11-06T14:00:00	1	Precipitación	0
177520	7	Sololá	701	Sololá	2	El tablón	9	Septiembre	2023-09-13T00:00:00	2024-11-06T14:00:00	8	Radiación solar	364
177521	7	Sololá	701	Sololá	2	El tablón	9	Septiembre	2023-09-13T00:00:00	2024-11-06T15:00:00	2	Temperatura media	16.5
177522	7	Sololá	701	Sololá	2	El tablón	9	Septiembre	2023-09-13T00:00:00	2024-11-06T15:00:00	4	Temperatura máxima	18.2
177523	7	Sololá	701	Sololá	2	El tablón	9	Septiembre	2023-09-13T00:00:00	2024-11-06T15:00:00	3	Temperatura mínima	16.5
177524	7	Sololá	701	Sololá	2	El tablón	9	Septiembre	2023-09-13T00:00:00	2024-11-06T15:00:00	5	Humedad	88
177525	7	Sololá	701	Sololá	2	El tablón	9	Septiembre	2023-09-13T00:00:00	2024-11-06T15:00:00	6	Velocidad del viento	6.4
177526	7	Sololá	701	Sololá	2	El tablón	9	Septiembre	2023-09-13T00:00:00	2024-11-06T15:00:00	7	Dirección del viento	6.44
177527	7	Sololá	701	Sololá	2	El tablón	9	Septiembre	2023-09-13T00:00:00	2024-11-06T15:00:00	1	Precipitación	0
177528	7	Sololá	701	Sololá	2	El tablón	9	Septiembre	2023-09-13T00:00:00	2024-11-06T15:00:00	8	Radiación solar	175
177529	7	Sololá	701	Sololá	2	El tablón	9	Septiembre	2023-09-13T00:00:00	2024-11-06T16:00:00	2	Temperatura media	15.7
177530	7	Sololá	701	Sololá	2	El tablón	9	Septiembre	2023-09-13T00:00:00	2024-11-06T16:00:00	4	Temperatura máxima	16.4
177531	7	Sololá	701	Sololá	2	El tablón	9	Septiembre	2023-09-13T00:00:00	2024-11-06T16:00:00	3	Temperatura mínima	15.4
177532	7	Sololá	701	Sololá	2	El tablón	9	Septiembre	2023-09-13T00:00:00	2024-11-06T16:00:00	5	Humedad	88
177533	7	Sololá	701	Sololá	2	El tablón	9	Septiembre	2023-09-13T00:00:00	2024-11-06T16:00:00	6	Velocidad del viento	3.2
177534	7	Sololá	701	Sololá	2	El tablón	9	Septiembre	2023-09-13T00:00:00	2024-11-06T16:00:00	7	Dirección del viento	3.22
177535	7	Sololá	701	Sololá	2	El tablón	9	Septiembre	2023-09-13T00:00:00	2024-11-06T16:00:00	1	Precipitación	0
177536	7	Sololá	701	Sololá	2	El tablón	9	Septiembre	2023-09-13T00:00:00	2024-11-06T16:00:00	8	Radiación solar	40
177537	7	Sololá	701	Sololá	2	El tablón	9	Septiembre	2023-09-13T00:00:00	2024-11-06T17:00:00	2	Temperatura media	15.9
177538	7	Sololá	701	Sololá	2	El tablón	9	Septiembre	2023-09-13T00:00:00	2024-11-06T17:00:00	4	Temperatura máxima	16.1
177539	7	Sololá	701	Sololá	2	El tablón	9	Septiembre	2023-09-13T00:00:00	2024-11-06T17:00:00	3	Temperatura mínima	15.7
177540	7	Sololá	701	Sololá	2	El tablón	9	Septiembre	2023-09-13T00:00:00	2024-11-06T17:00:00	5	Humedad	88
177541	7	Sololá	701	Sololá	2	El tablón	9	Septiembre	2023-09-13T00:00:00	2024-11-06T17:00:00	6	Velocidad del viento	0
177542	7	Sololá	701	Sololá	2	El tablón	9	Septiembre	2023-09-13T00:00:00	2024-11-06T17:00:00	7	Dirección del viento	0
177543	7	Sololá	701	Sololá	2	El tablón	9	Septiembre	2023-09-13T00:00:00	2024-11-06T17:00:00	1	Precipitación	0.8
177544	7	Sololá	701	Sololá	2	El tablón	9	Septiembre	2023-09-13T00:00:00	2024-11-06T17:00:00	8	Radiación solar	48
177545	7	Sololá	701	Sololá	2	El tablón	9	Septiembre	2023-09-13T00:00:00	2024-11-06T18:00:00	2	Temperatura media	15.4
177546	7	Sololá	701	Sololá	2	El tablón	9	Septiembre	2023-09-13T00:00:00	2024-11-06T18:00:00	4	Temperatura máxima	15.9
177547	7	Sololá	701	Sololá	2	El tablón	9	Septiembre	2023-09-13T00:00:00	2024-11-06T18:00:00	3	Temperatura mínima	15.4
177548	7	Sololá	701	Sololá	2	El tablón	9	Septiembre	2023-09-13T00:00:00	2024-11-06T18:00:00	5	Humedad	88
177549	7	Sololá	701	Sololá	2	El tablón	9	Septiembre	2023-09-13T00:00:00	2024-11-06T18:00:00	6	Velocidad del viento	1.6
177550	7	Sololá	701	Sololá	2	El tablón	9	Septiembre	2023-09-13T00:00:00	2024-11-06T18:00:00	7	Dirección del viento	1.61
177551	7	Sololá	701	Sololá	2	El tablón	9	Septiembre	2023-09-13T00:00:00	2024-11-06T18:00:00	1	Precipitación	2.2
177552	7	Sololá	701	Sololá	2	El tablón	9	Septiembre	2023-09-13T00:00:00	2024-11-06T18:00:00	8	Radiación solar	21
177553	7	Sololá	701	Sololá	2	El tablón	9	Septiembre	2023-09-13T00:00:00	2024-11-06T19:00:00	2	Temperatura media	14.9
177554	7	Sololá	701	Sololá	2	El tablón	9	Septiembre	2023-09-13T00:00:00	2024-11-06T19:00:00	4	Temperatura máxima	15.4
177555	7	Sololá	701	Sololá	2	El tablón	9	Septiembre	2023-09-13T00:00:00	2024-11-06T19:00:00	3	Temperatura mínima	14.8
177556	7	Sololá	701	Sololá	2	El tablón	9	Septiembre	2023-09-13T00:00:00	2024-11-06T19:00:00	5	Humedad	88
177557	7	Sololá	701	Sololá	2	El tablón	9	Septiembre	2023-09-13T00:00:00	2024-11-06T19:00:00	6	Velocidad del viento	4.8
177558	7	Sololá	701	Sololá	2	El tablón	9	Septiembre	2023-09-13T00:00:00	2024-11-06T19:00:00	7	Dirección del viento	4.83
177559	7	Sololá	701	Sololá	2	El tablón	9	Septiembre	2023-09-13T00:00:00	2024-11-06T19:00:00	1	Precipitación	0.4
177560	7	Sololá	701	Sololá	2	El tablón	9	Septiembre	2023-09-13T00:00:00	2024-11-06T19:00:00	8	Radiación solar	0
177561	7	Sololá	701	Sololá	2	El tablón	9	Septiembre	2023-09-13T00:00:00	2024-11-06T20:00:00	2	Temperatura media	14.6
177562	7	Sololá	701	Sololá	2	El tablón	9	Septiembre	2023-09-13T00:00:00	2024-11-06T20:00:00	4	Temperatura máxima	14.9
177563	7	Sololá	701	Sololá	2	El tablón	9	Septiembre	2023-09-13T00:00:00	2024-11-06T20:00:00	3	Temperatura mínima	14.5
177564	7	Sololá	701	Sololá	2	El tablón	9	Septiembre	2023-09-13T00:00:00	2024-11-06T20:00:00	5	Humedad	88
177565	7	Sololá	701	Sololá	2	El tablón	9	Septiembre	2023-09-13T00:00:00	2024-11-06T20:00:00	6	Velocidad del viento	3.2
177566	7	Sololá	701	Sololá	2	El tablón	9	Septiembre	2023-09-13T00:00:00	2024-11-06T20:00:00	7	Dirección del viento	3.22
177567	7	Sololá	701	Sololá	2	El tablón	9	Septiembre	2023-09-13T00:00:00	2024-11-06T20:00:00	1	Precipitación	1.2
177568	7	Sololá	701	Sololá	2	El tablón	9	Septiembre	2023-09-13T00:00:00	2024-11-06T20:00:00	8	Radiación solar	0
177569	7	Sololá	701	Sololá	2	El tablón	9	Septiembre	2023-09-13T00:00:00	2024-11-06T21:00:00	2	Temperatura media	14.5
177570	7	Sololá	701	Sololá	2	El tablón	9	Septiembre	2023-09-13T00:00:00	2024-11-06T21:00:00	4	Temperatura máxima	14.6
177571	7	Sololá	701	Sololá	2	El tablón	9	Septiembre	2023-09-13T00:00:00	2024-11-06T21:00:00	3	Temperatura mínima	14.4
177572	7	Sololá	701	Sololá	2	El tablón	9	Septiembre	2023-09-13T00:00:00	2024-11-06T21:00:00	5	Humedad	88
177573	7	Sololá	701	Sololá	2	El tablón	9	Septiembre	2023-09-13T00:00:00	2024-11-06T21:00:00	6	Velocidad del viento	3.2
177574	7	Sololá	701	Sololá	2	El tablón	9	Septiembre	2023-09-13T00:00:00	2024-11-06T21:00:00	7	Dirección del viento	3.22
177575	7	Sololá	701	Sololá	2	El tablón	9	Septiembre	2023-09-13T00:00:00	2024-11-06T21:00:00	1	Precipitación	0
177576	7	Sololá	701	Sololá	2	El tablón	9	Septiembre	2023-09-13T00:00:00	2024-11-06T21:00:00	8	Radiación solar	0
177577	7	Sololá	701	Sololá	2	El tablón	9	Septiembre	2023-09-13T00:00:00	2024-11-06T22:00:00	2	Temperatura media	14.4
177578	7	Sololá	701	Sololá	2	El tablón	9	Septiembre	2023-09-13T00:00:00	2024-11-06T22:00:00	4	Temperatura máxima	14.6
177579	7	Sololá	701	Sololá	2	El tablón	9	Septiembre	2023-09-13T00:00:00	2024-11-06T22:00:00	3	Temperatura mínima	14.4
177580	7	Sololá	701	Sololá	2	El tablón	9	Septiembre	2023-09-13T00:00:00	2024-11-06T22:00:00	5	Humedad	88
177581	7	Sololá	701	Sololá	2	El tablón	9	Septiembre	2023-09-13T00:00:00	2024-11-06T22:00:00	6	Velocidad del viento	4.8
177582	7	Sololá	701	Sololá	2	El tablón	9	Septiembre	2023-09-13T00:00:00	2024-11-06T22:00:00	7	Dirección del viento	4.83
177583	7	Sololá	701	Sololá	2	El tablón	9	Septiembre	2023-09-13T00:00:00	2024-11-06T22:00:00	1	Precipitación	0
177584	7	Sololá	701	Sololá	2	El tablón	9	Septiembre	2023-09-13T00:00:00	2024-11-06T22:00:00	8	Radiación solar	0
177585	7	Sololá	701	Sololá	2	El tablón	9	Septiembre	2023-09-13T00:00:00	2024-11-06T23:00:00	2	Temperatura media	14.1
177586	7	Sololá	701	Sololá	2	El tablón	9	Septiembre	2023-09-13T00:00:00	2024-11-06T23:00:00	4	Temperatura máxima	14.4
177587	7	Sololá	701	Sololá	2	El tablón	9	Septiembre	2023-09-13T00:00:00	2024-11-06T23:00:00	3	Temperatura mínima	14.1
177588	7	Sololá	701	Sololá	2	El tablón	9	Septiembre	2023-09-13T00:00:00	2024-11-06T23:00:00	5	Humedad	89
177589	7	Sololá	701	Sololá	2	El tablón	9	Septiembre	2023-09-13T00:00:00	2024-11-06T23:00:00	6	Velocidad del viento	6.4
177590	7	Sololá	701	Sololá	2	El tablón	9	Septiembre	2023-09-13T00:00:00	2024-11-06T23:00:00	7	Dirección del viento	6.44
177591	7	Sololá	701	Sololá	2	El tablón	9	Septiembre	2023-09-13T00:00:00	2024-11-06T23:00:00	1	Precipitación	0.2
177592	7	Sololá	701	Sololá	2	El tablón	9	Septiembre	2023-09-13T00:00:00	2024-11-06T23:00:00	8	Radiación solar	0
177593	7	Sololá	701	Sololá	2	El tablón	9	Septiembre	2023-09-14T00:00:00	2024-11-06T00:00:00	2	Temperatura media	13.6
177594	7	Sololá	701	Sololá	2	El tablón	9	Septiembre	2023-09-14T00:00:00	2024-11-06T00:00:00	4	Temperatura máxima	14.2
177595	7	Sololá	701	Sololá	2	El tablón	9	Septiembre	2023-09-14T00:00:00	2024-11-06T00:00:00	3	Temperatura mínima	13.6
177596	7	Sololá	701	Sololá	2	El tablón	9	Septiembre	2023-09-14T00:00:00	2024-11-06T00:00:00	5	Humedad	88
177597	7	Sololá	701	Sololá	2	El tablón	9	Septiembre	2023-09-14T00:00:00	2024-11-06T00:00:00	6	Velocidad del viento	8
177598	7	Sololá	701	Sololá	2	El tablón	9	Septiembre	2023-09-14T00:00:00	2024-11-06T00:00:00	7	Dirección del viento	8.05
177599	7	Sololá	701	Sololá	2	El tablón	9	Septiembre	2023-09-14T00:00:00	2024-11-06T00:00:00	1	Precipitación	0.2
177600	7	Sololá	701	Sololá	2	El tablón	9	Septiembre	2023-09-14T00:00:00	2024-11-06T00:00:00	8	Radiación solar	0
177601	7	Sololá	701	Sololá	2	El tablón	9	Septiembre	2023-09-14T00:00:00	2024-11-06T01:00:00	2	Temperatura media	13.5
177602	7	Sololá	701	Sololá	2	El tablón	9	Septiembre	2023-09-14T00:00:00	2024-11-06T01:00:00	4	Temperatura máxima	13.6
177603	7	Sololá	701	Sololá	2	El tablón	9	Septiembre	2023-09-14T00:00:00	2024-11-06T01:00:00	3	Temperatura mínima	13.4
177604	7	Sololá	701	Sololá	2	El tablón	9	Septiembre	2023-09-14T00:00:00	2024-11-06T01:00:00	5	Humedad	88
177605	7	Sololá	701	Sololá	2	El tablón	9	Septiembre	2023-09-14T00:00:00	2024-11-06T01:00:00	6	Velocidad del viento	9.7
177606	7	Sololá	701	Sololá	2	El tablón	9	Septiembre	2023-09-14T00:00:00	2024-11-06T01:00:00	7	Dirección del viento	9.66
177607	7	Sololá	701	Sololá	2	El tablón	9	Septiembre	2023-09-14T00:00:00	2024-11-06T01:00:00	1	Precipitación	0
177608	7	Sololá	701	Sololá	2	El tablón	9	Septiembre	2023-09-14T00:00:00	2024-11-06T01:00:00	8	Radiación solar	0
177609	7	Sololá	701	Sololá	2	El tablón	9	Septiembre	2023-09-14T00:00:00	2024-11-06T02:00:00	2	Temperatura media	13.3
177610	7	Sololá	701	Sololá	2	El tablón	9	Septiembre	2023-09-14T00:00:00	2024-11-06T02:00:00	4	Temperatura máxima	13.5
177611	7	Sololá	701	Sololá	2	El tablón	9	Septiembre	2023-09-14T00:00:00	2024-11-06T02:00:00	3	Temperatura mínima	13.3
177612	7	Sololá	701	Sololá	2	El tablón	9	Septiembre	2023-09-14T00:00:00	2024-11-06T02:00:00	5	Humedad	88
177613	7	Sololá	701	Sololá	2	El tablón	9	Septiembre	2023-09-14T00:00:00	2024-11-06T02:00:00	6	Velocidad del viento	8
177614	7	Sololá	701	Sololá	2	El tablón	9	Septiembre	2023-09-14T00:00:00	2024-11-06T02:00:00	7	Dirección del viento	8.05
177615	7	Sololá	701	Sololá	2	El tablón	9	Septiembre	2023-09-14T00:00:00	2024-11-06T02:00:00	1	Precipitación	0
177616	7	Sololá	701	Sololá	2	El tablón	9	Septiembre	2023-09-14T00:00:00	2024-11-06T02:00:00	8	Radiación solar	0
177617	7	Sololá	701	Sololá	2	El tablón	9	Septiembre	2023-09-14T00:00:00	2024-11-06T03:00:00	2	Temperatura media	12.8
177618	7	Sololá	701	Sololá	2	El tablón	9	Septiembre	2023-09-14T00:00:00	2024-11-06T03:00:00	4	Temperatura máxima	13.3
177619	7	Sololá	701	Sololá	2	El tablón	9	Septiembre	2023-09-14T00:00:00	2024-11-06T03:00:00	3	Temperatura mínima	12.8
177620	7	Sololá	701	Sololá	2	El tablón	9	Septiembre	2023-09-14T00:00:00	2024-11-06T03:00:00	5	Humedad	88
177621	7	Sololá	701	Sololá	2	El tablón	9	Septiembre	2023-09-14T00:00:00	2024-11-06T03:00:00	6	Velocidad del viento	4.8
177622	7	Sololá	701	Sololá	2	El tablón	9	Septiembre	2023-09-14T00:00:00	2024-11-06T03:00:00	7	Dirección del viento	4.83
177623	7	Sololá	701	Sololá	2	El tablón	9	Septiembre	2023-09-14T00:00:00	2024-11-06T03:00:00	1	Precipitación	0
177624	7	Sololá	701	Sololá	2	El tablón	9	Septiembre	2023-09-14T00:00:00	2024-11-06T03:00:00	8	Radiación solar	0
177625	7	Sololá	701	Sololá	2	El tablón	9	Septiembre	2023-09-14T00:00:00	2024-11-06T04:00:00	2	Temperatura media	12.9
177626	7	Sololá	701	Sololá	2	El tablón	9	Septiembre	2023-09-14T00:00:00	2024-11-06T04:00:00	4	Temperatura máxima	13
177627	7	Sololá	701	Sololá	2	El tablón	9	Septiembre	2023-09-14T00:00:00	2024-11-06T04:00:00	3	Temperatura mínima	12.5
177628	7	Sololá	701	Sololá	2	El tablón	9	Septiembre	2023-09-14T00:00:00	2024-11-06T04:00:00	5	Humedad	88
177629	7	Sololá	701	Sololá	2	El tablón	9	Septiembre	2023-09-14T00:00:00	2024-11-06T04:00:00	6	Velocidad del viento	3.2
177630	7	Sololá	701	Sololá	2	El tablón	9	Septiembre	2023-09-14T00:00:00	2024-11-06T04:00:00	7	Dirección del viento	3.22
177631	7	Sololá	701	Sololá	2	El tablón	9	Septiembre	2023-09-14T00:00:00	2024-11-06T04:00:00	1	Precipitación	0
177632	7	Sololá	701	Sololá	2	El tablón	9	Septiembre	2023-09-14T00:00:00	2024-11-06T04:00:00	8	Radiación solar	0
177633	7	Sololá	701	Sololá	2	El tablón	9	Septiembre	2023-09-14T00:00:00	2024-11-06T05:00:00	2	Temperatura media	13.2
177634	7	Sololá	701	Sololá	2	El tablón	9	Septiembre	2023-09-14T00:00:00	2024-11-06T05:00:00	4	Temperatura máxima	13.3
177635	7	Sololá	701	Sololá	2	El tablón	9	Septiembre	2023-09-14T00:00:00	2024-11-06T05:00:00	3	Temperatura mínima	12.9
177636	7	Sololá	701	Sololá	2	El tablón	9	Septiembre	2023-09-14T00:00:00	2024-11-06T05:00:00	5	Humedad	88
177637	7	Sololá	701	Sololá	2	El tablón	9	Septiembre	2023-09-14T00:00:00	2024-11-06T05:00:00	6	Velocidad del viento	3.2
177638	7	Sololá	701	Sololá	2	El tablón	9	Septiembre	2023-09-14T00:00:00	2024-11-06T05:00:00	7	Dirección del viento	3.22
177639	7	Sololá	701	Sololá	2	El tablón	9	Septiembre	2023-09-14T00:00:00	2024-11-06T05:00:00	1	Precipitación	0
177640	7	Sololá	701	Sololá	2	El tablón	9	Septiembre	2023-09-14T00:00:00	2024-11-06T05:00:00	8	Radiación solar	0
177641	7	Sololá	701	Sololá	2	El tablón	9	Septiembre	2023-09-14T00:00:00	2024-11-06T06:00:00	2	Temperatura media	13.1
177642	7	Sololá	701	Sololá	2	El tablón	9	Septiembre	2023-09-14T00:00:00	2024-11-06T06:00:00	4	Temperatura máxima	13.3
177643	7	Sololá	701	Sololá	2	El tablón	9	Septiembre	2023-09-14T00:00:00	2024-11-06T06:00:00	3	Temperatura mínima	13
177644	7	Sololá	701	Sololá	2	El tablón	9	Septiembre	2023-09-14T00:00:00	2024-11-06T06:00:00	5	Humedad	88
177645	7	Sololá	701	Sololá	2	El tablón	9	Septiembre	2023-09-14T00:00:00	2024-11-06T06:00:00	6	Velocidad del viento	1.6
177646	7	Sololá	701	Sololá	2	El tablón	9	Septiembre	2023-09-14T00:00:00	2024-11-06T06:00:00	7	Dirección del viento	1.61
177647	7	Sololá	701	Sololá	2	El tablón	9	Septiembre	2023-09-14T00:00:00	2024-11-06T06:00:00	1	Precipitación	0
177648	7	Sololá	701	Sololá	2	El tablón	9	Septiembre	2023-09-14T00:00:00	2024-11-06T06:00:00	8	Radiación solar	0
177649	7	Sololá	701	Sololá	2	El tablón	9	Septiembre	2023-09-14T00:00:00	2024-11-06T07:00:00	2	Temperatura media	13.7
177650	7	Sololá	701	Sololá	2	El tablón	9	Septiembre	2023-09-14T00:00:00	2024-11-06T07:00:00	4	Temperatura máxima	13.7
177651	7	Sololá	701	Sololá	2	El tablón	9	Septiembre	2023-09-14T00:00:00	2024-11-06T07:00:00	3	Temperatura mínima	12.9
177652	7	Sololá	701	Sololá	2	El tablón	9	Septiembre	2023-09-14T00:00:00	2024-11-06T07:00:00	5	Humedad	87
177653	7	Sololá	701	Sololá	2	El tablón	9	Septiembre	2023-09-14T00:00:00	2024-11-06T07:00:00	6	Velocidad del viento	1.6
177654	7	Sololá	701	Sololá	2	El tablón	9	Septiembre	2023-09-14T00:00:00	2024-11-06T07:00:00	7	Dirección del viento	1.61
177655	7	Sololá	701	Sololá	2	El tablón	9	Septiembre	2023-09-14T00:00:00	2024-11-06T07:00:00	1	Precipitación	0
177656	7	Sololá	701	Sololá	2	El tablón	9	Septiembre	2023-09-14T00:00:00	2024-11-06T07:00:00	8	Radiación solar	57
177657	7	Sololá	701	Sololá	2	El tablón	9	Septiembre	2023-09-14T00:00:00	2024-11-06T08:00:00	2	Temperatura media	14.1
177658	7	Sololá	701	Sololá	2	El tablón	9	Septiembre	2023-09-14T00:00:00	2024-11-06T08:00:00	4	Temperatura máxima	14.1
177659	7	Sololá	701	Sololá	2	El tablón	9	Septiembre	2023-09-14T00:00:00	2024-11-06T08:00:00	3	Temperatura mínima	13.7
177660	7	Sololá	701	Sololá	2	El tablón	9	Septiembre	2023-09-14T00:00:00	2024-11-06T08:00:00	5	Humedad	88
177661	7	Sololá	701	Sololá	2	El tablón	9	Septiembre	2023-09-14T00:00:00	2024-11-06T08:00:00	6	Velocidad del viento	1.6
177662	7	Sololá	701	Sololá	2	El tablón	9	Septiembre	2023-09-14T00:00:00	2024-11-06T08:00:00	7	Dirección del viento	1.61
177663	7	Sololá	701	Sololá	2	El tablón	9	Septiembre	2023-09-14T00:00:00	2024-11-06T08:00:00	1	Precipitación	0
177664	7	Sololá	701	Sololá	2	El tablón	9	Septiembre	2023-09-14T00:00:00	2024-11-06T08:00:00	8	Radiación solar	130
177665	7	Sololá	701	Sololá	2	El tablón	9	Septiembre	2023-09-14T00:00:00	2024-11-06T09:00:00	2	Temperatura media	15.3
177666	7	Sololá	701	Sololá	2	El tablón	9	Septiembre	2023-09-14T00:00:00	2024-11-06T09:00:00	4	Temperatura máxima	15.3
177667	7	Sololá	701	Sololá	2	El tablón	9	Septiembre	2023-09-14T00:00:00	2024-11-06T09:00:00	3	Temperatura mínima	14.1
177668	7	Sololá	701	Sololá	2	El tablón	9	Septiembre	2023-09-14T00:00:00	2024-11-06T09:00:00	5	Humedad	84
177669	7	Sololá	701	Sololá	2	El tablón	9	Septiembre	2023-09-14T00:00:00	2024-11-06T09:00:00	6	Velocidad del viento	3.2
177670	7	Sololá	701	Sololá	2	El tablón	9	Septiembre	2023-09-14T00:00:00	2024-11-06T09:00:00	7	Dirección del viento	3.22
177671	7	Sololá	701	Sololá	2	El tablón	9	Septiembre	2023-09-14T00:00:00	2024-11-06T09:00:00	1	Precipitación	0
177672	7	Sololá	701	Sololá	2	El tablón	9	Septiembre	2023-09-14T00:00:00	2024-11-06T09:00:00	8	Radiación solar	197
177673	7	Sololá	701	Sololá	2	El tablón	9	Septiembre	2023-09-14T00:00:00	2024-11-06T10:00:00	2	Temperatura media	17.3
177674	7	Sololá	701	Sololá	2	El tablón	9	Septiembre	2023-09-14T00:00:00	2024-11-06T10:00:00	4	Temperatura máxima	18
177675	7	Sololá	701	Sololá	2	El tablón	9	Septiembre	2023-09-14T00:00:00	2024-11-06T10:00:00	3	Temperatura mínima	15.3
177676	7	Sololá	701	Sololá	2	El tablón	9	Septiembre	2023-09-14T00:00:00	2024-11-06T10:00:00	5	Humedad	78
177677	7	Sololá	701	Sololá	2	El tablón	9	Septiembre	2023-09-14T00:00:00	2024-11-06T10:00:00	6	Velocidad del viento	3.2
177678	7	Sololá	701	Sololá	2	El tablón	9	Septiembre	2023-09-14T00:00:00	2024-11-06T10:00:00	7	Dirección del viento	3.22
177679	7	Sololá	701	Sololá	2	El tablón	9	Septiembre	2023-09-14T00:00:00	2024-11-06T10:00:00	1	Precipitación	0
177680	7	Sololá	701	Sololá	2	El tablón	9	Septiembre	2023-09-14T00:00:00	2024-11-06T10:00:00	8	Radiación solar	490
177681	7	Sololá	701	Sololá	2	El tablón	9	Septiembre	2023-09-14T00:00:00	2024-11-06T11:00:00	2	Temperatura media	19
177682	7	Sololá	701	Sololá	2	El tablón	9	Septiembre	2023-09-14T00:00:00	2024-11-06T11:00:00	4	Temperatura máxima	19
177683	7	Sololá	701	Sololá	2	El tablón	9	Septiembre	2023-09-14T00:00:00	2024-11-06T11:00:00	3	Temperatura mínima	17.1
177684	7	Sololá	701	Sololá	2	El tablón	9	Septiembre	2023-09-14T00:00:00	2024-11-06T11:00:00	5	Humedad	72
177685	7	Sololá	701	Sololá	2	El tablón	9	Septiembre	2023-09-14T00:00:00	2024-11-06T11:00:00	6	Velocidad del viento	3.2
177686	7	Sololá	701	Sololá	2	El tablón	9	Septiembre	2023-09-14T00:00:00	2024-11-06T11:00:00	7	Dirección del viento	3.22
177687	7	Sololá	701	Sololá	2	El tablón	9	Septiembre	2023-09-14T00:00:00	2024-11-06T11:00:00	1	Precipitación	0
177688	7	Sololá	701	Sololá	2	El tablón	9	Septiembre	2023-09-14T00:00:00	2024-11-06T11:00:00	8	Radiación solar	433
177689	7	Sololá	701	Sololá	2	El tablón	9	Septiembre	2023-09-14T00:00:00	2024-11-06T12:00:00	2	Temperatura media	19.3
177690	7	Sololá	701	Sololá	2	El tablón	9	Septiembre	2023-09-14T00:00:00	2024-11-06T12:00:00	4	Temperatura máxima	19.7
177691	7	Sololá	701	Sololá	2	El tablón	9	Septiembre	2023-09-14T00:00:00	2024-11-06T12:00:00	3	Temperatura mínima	19.1
177692	7	Sololá	701	Sololá	2	El tablón	9	Septiembre	2023-09-14T00:00:00	2024-11-06T12:00:00	5	Humedad	75
177693	7	Sololá	701	Sololá	2	El tablón	9	Septiembre	2023-09-14T00:00:00	2024-11-06T12:00:00	6	Velocidad del viento	4.8
177694	7	Sololá	701	Sololá	2	El tablón	9	Septiembre	2023-09-14T00:00:00	2024-11-06T12:00:00	7	Dirección del viento	4.83
177695	7	Sololá	701	Sololá	2	El tablón	9	Septiembre	2023-09-14T00:00:00	2024-11-06T12:00:00	1	Precipitación	0
177696	7	Sololá	701	Sololá	2	El tablón	9	Septiembre	2023-09-14T00:00:00	2024-11-06T12:00:00	8	Radiación solar	660
177697	7	Sololá	701	Sololá	2	El tablón	9	Septiembre	2023-09-14T00:00:00	2024-11-06T13:00:00	2	Temperatura media	19.9
177698	7	Sololá	701	Sololá	2	El tablón	9	Septiembre	2023-09-14T00:00:00	2024-11-06T13:00:00	4	Temperatura máxima	20.2
177699	7	Sololá	701	Sololá	2	El tablón	9	Septiembre	2023-09-14T00:00:00	2024-11-06T13:00:00	3	Temperatura mínima	19.1
177700	7	Sololá	701	Sololá	2	El tablón	9	Septiembre	2023-09-14T00:00:00	2024-11-06T13:00:00	5	Humedad	73
177701	7	Sololá	701	Sololá	2	El tablón	9	Septiembre	2023-09-14T00:00:00	2024-11-06T13:00:00	6	Velocidad del viento	6.4
177702	7	Sololá	701	Sololá	2	El tablón	9	Septiembre	2023-09-14T00:00:00	2024-11-06T13:00:00	7	Dirección del viento	6.44
177703	7	Sololá	701	Sololá	2	El tablón	9	Septiembre	2023-09-14T00:00:00	2024-11-06T13:00:00	1	Precipitación	0
177704	7	Sololá	701	Sololá	2	El tablón	9	Septiembre	2023-09-14T00:00:00	2024-11-06T13:00:00	8	Radiación solar	760
177705	7	Sololá	701	Sololá	2	El tablón	9	Septiembre	2023-09-14T00:00:00	2024-11-06T14:00:00	2	Temperatura media	18.9
177706	7	Sololá	701	Sololá	2	El tablón	9	Septiembre	2023-09-14T00:00:00	2024-11-06T14:00:00	4	Temperatura máxima	20
177707	7	Sololá	701	Sololá	2	El tablón	9	Septiembre	2023-09-14T00:00:00	2024-11-06T14:00:00	3	Temperatura mínima	18.7
177708	7	Sololá	701	Sololá	2	El tablón	9	Septiembre	2023-09-14T00:00:00	2024-11-06T14:00:00	5	Humedad	84
177709	7	Sololá	701	Sololá	2	El tablón	9	Septiembre	2023-09-14T00:00:00	2024-11-06T14:00:00	6	Velocidad del viento	4.8
177710	7	Sololá	701	Sololá	2	El tablón	9	Septiembre	2023-09-14T00:00:00	2024-11-06T14:00:00	7	Dirección del viento	4.83
177711	7	Sololá	701	Sololá	2	El tablón	9	Septiembre	2023-09-14T00:00:00	2024-11-06T14:00:00	1	Precipitación	0
177712	7	Sololá	701	Sololá	2	El tablón	9	Septiembre	2023-09-14T00:00:00	2024-11-06T14:00:00	8	Radiación solar	309
177713	7	Sololá	701	Sololá	2	El tablón	9	Septiembre	2023-09-14T00:00:00	2024-11-06T15:00:00	2	Temperatura media	17.3
177714	7	Sololá	701	Sololá	2	El tablón	9	Septiembre	2023-09-14T00:00:00	2024-11-06T15:00:00	4	Temperatura máxima	19.2
177715	7	Sololá	701	Sololá	2	El tablón	9	Septiembre	2023-09-14T00:00:00	2024-11-06T15:00:00	3	Temperatura mínima	17.3
177716	7	Sololá	701	Sololá	2	El tablón	9	Septiembre	2023-09-14T00:00:00	2024-11-06T15:00:00	5	Humedad	87
177717	7	Sololá	701	Sololá	2	El tablón	9	Septiembre	2023-09-14T00:00:00	2024-11-06T15:00:00	6	Velocidad del viento	6.4
177718	7	Sololá	701	Sololá	2	El tablón	9	Septiembre	2023-09-14T00:00:00	2024-11-06T15:00:00	7	Dirección del viento	6.44
177719	7	Sololá	701	Sololá	2	El tablón	9	Septiembre	2023-09-14T00:00:00	2024-11-06T15:00:00	1	Precipitación	0
177720	7	Sololá	701	Sololá	2	El tablón	9	Septiembre	2023-09-14T00:00:00	2024-11-06T15:00:00	8	Radiación solar	245
177721	7	Sololá	701	Sololá	2	El tablón	9	Septiembre	2023-09-14T00:00:00	2024-11-06T16:00:00	2	Temperatura media	17
177722	7	Sololá	701	Sololá	2	El tablón	9	Septiembre	2023-09-14T00:00:00	2024-11-06T16:00:00	4	Temperatura máxima	18.4
177723	7	Sololá	701	Sololá	2	El tablón	9	Septiembre	2023-09-14T00:00:00	2024-11-06T16:00:00	3	Temperatura mínima	17
177724	7	Sololá	701	Sololá	2	El tablón	9	Septiembre	2023-09-14T00:00:00	2024-11-06T16:00:00	5	Humedad	88
177725	7	Sololá	701	Sololá	2	El tablón	9	Septiembre	2023-09-14T00:00:00	2024-11-06T16:00:00	6	Velocidad del viento	4.8
177726	7	Sololá	701	Sololá	2	El tablón	9	Septiembre	2023-09-14T00:00:00	2024-11-06T16:00:00	7	Dirección del viento	4.83
177727	7	Sololá	701	Sololá	2	El tablón	9	Septiembre	2023-09-14T00:00:00	2024-11-06T16:00:00	1	Precipitación	0
177728	7	Sololá	701	Sololá	2	El tablón	9	Septiembre	2023-09-14T00:00:00	2024-11-06T16:00:00	8	Radiación solar	347
177729	7	Sololá	701	Sololá	2	El tablón	9	Septiembre	2023-09-14T00:00:00	2024-11-06T17:00:00	2	Temperatura media	16.3
177730	7	Sololá	701	Sololá	2	El tablón	9	Septiembre	2023-09-14T00:00:00	2024-11-06T17:00:00	4	Temperatura máxima	17
177731	7	Sololá	701	Sololá	2	El tablón	9	Septiembre	2023-09-14T00:00:00	2024-11-06T17:00:00	3	Temperatura mínima	16.3
177732	7	Sololá	701	Sololá	2	El tablón	9	Septiembre	2023-09-14T00:00:00	2024-11-06T17:00:00	5	Humedad	88
177733	7	Sololá	701	Sololá	2	El tablón	9	Septiembre	2023-09-14T00:00:00	2024-11-06T17:00:00	6	Velocidad del viento	4.8
177734	7	Sololá	701	Sololá	2	El tablón	9	Septiembre	2023-09-14T00:00:00	2024-11-06T17:00:00	7	Dirección del viento	4.83
177735	7	Sololá	701	Sololá	2	El tablón	9	Septiembre	2023-09-14T00:00:00	2024-11-06T17:00:00	1	Precipitación	0
177736	7	Sololá	701	Sololá	2	El tablón	9	Septiembre	2023-09-14T00:00:00	2024-11-06T17:00:00	8	Radiación solar	165
177737	7	Sololá	701	Sololá	2	El tablón	9	Septiembre	2023-09-14T00:00:00	2024-11-06T18:00:00	2	Temperatura media	16.1
177738	7	Sololá	701	Sololá	2	El tablón	9	Septiembre	2023-09-14T00:00:00	2024-11-06T18:00:00	4	Temperatura máxima	16.3
177739	7	Sololá	701	Sololá	2	El tablón	9	Septiembre	2023-09-14T00:00:00	2024-11-06T18:00:00	3	Temperatura mínima	16.1
177740	7	Sololá	701	Sololá	2	El tablón	9	Septiembre	2023-09-14T00:00:00	2024-11-06T18:00:00	5	Humedad	88
177741	7	Sololá	701	Sololá	2	El tablón	9	Septiembre	2023-09-14T00:00:00	2024-11-06T18:00:00	6	Velocidad del viento	1.6
177742	7	Sololá	701	Sololá	2	El tablón	9	Septiembre	2023-09-14T00:00:00	2024-11-06T18:00:00	7	Dirección del viento	1.61
177743	7	Sololá	701	Sololá	2	El tablón	9	Septiembre	2023-09-14T00:00:00	2024-11-06T18:00:00	1	Precipitación	0
177744	7	Sololá	701	Sololá	2	El tablón	9	Septiembre	2023-09-14T00:00:00	2024-11-06T18:00:00	8	Radiación solar	47
177745	7	Sololá	701	Sololá	2	El tablón	9	Septiembre	2023-09-14T00:00:00	2024-11-06T19:00:00	2	Temperatura media	15.2
177746	7	Sololá	701	Sololá	2	El tablón	9	Septiembre	2023-09-14T00:00:00	2024-11-06T19:00:00	4	Temperatura máxima	16.1
177747	7	Sololá	701	Sololá	2	El tablón	9	Septiembre	2023-09-14T00:00:00	2024-11-06T19:00:00	3	Temperatura mínima	15.2
177748	7	Sololá	701	Sololá	2	El tablón	9	Septiembre	2023-09-14T00:00:00	2024-11-06T19:00:00	5	Humedad	88
177749	7	Sololá	701	Sololá	2	El tablón	9	Septiembre	2023-09-14T00:00:00	2024-11-06T19:00:00	6	Velocidad del viento	0
177750	7	Sololá	701	Sololá	2	El tablón	9	Septiembre	2023-09-14T00:00:00	2024-11-06T19:00:00	7	Dirección del viento	0
177751	7	Sololá	701	Sololá	2	El tablón	9	Septiembre	2023-09-14T00:00:00	2024-11-06T19:00:00	1	Precipitación	0
177752	7	Sololá	701	Sololá	2	El tablón	9	Septiembre	2023-09-14T00:00:00	2024-11-06T19:00:00	8	Radiación solar	0
177753	7	Sololá	701	Sololá	2	El tablón	9	Septiembre	2023-09-14T00:00:00	2024-11-06T20:00:00	2	Temperatura media	15.1
177754	7	Sololá	701	Sololá	2	El tablón	9	Septiembre	2023-09-14T00:00:00	2024-11-06T20:00:00	4	Temperatura máxima	15.2
177755	7	Sololá	701	Sololá	2	El tablón	9	Septiembre	2023-09-14T00:00:00	2024-11-06T20:00:00	3	Temperatura mínima	15
177756	7	Sololá	701	Sololá	2	El tablón	9	Septiembre	2023-09-14T00:00:00	2024-11-06T20:00:00	5	Humedad	88
177757	7	Sololá	701	Sololá	2	El tablón	9	Septiembre	2023-09-14T00:00:00	2024-11-06T20:00:00	6	Velocidad del viento	3.2
177758	7	Sololá	701	Sololá	2	El tablón	9	Septiembre	2023-09-14T00:00:00	2024-11-06T20:00:00	7	Dirección del viento	3.22
177759	7	Sololá	701	Sololá	2	El tablón	9	Septiembre	2023-09-14T00:00:00	2024-11-06T20:00:00	1	Precipitación	0
177760	7	Sololá	701	Sololá	2	El tablón	9	Septiembre	2023-09-14T00:00:00	2024-11-06T20:00:00	8	Radiación solar	0
177761	7	Sololá	701	Sololá	2	El tablón	9	Septiembre	2023-09-14T00:00:00	2024-11-06T21:00:00	2	Temperatura media	15.1
177762	7	Sololá	701	Sololá	2	El tablón	9	Septiembre	2023-09-14T00:00:00	2024-11-06T21:00:00	4	Temperatura máxima	15.2
177763	7	Sololá	701	Sololá	2	El tablón	9	Septiembre	2023-09-14T00:00:00	2024-11-06T21:00:00	3	Temperatura mínima	14.9
177764	7	Sololá	701	Sololá	2	El tablón	9	Septiembre	2023-09-14T00:00:00	2024-11-06T21:00:00	5	Humedad	88
177765	7	Sololá	701	Sololá	2	El tablón	9	Septiembre	2023-09-14T00:00:00	2024-11-06T21:00:00	6	Velocidad del viento	3.2
177766	7	Sololá	701	Sololá	2	El tablón	9	Septiembre	2023-09-14T00:00:00	2024-11-06T21:00:00	7	Dirección del viento	3.22
177767	7	Sololá	701	Sololá	2	El tablón	9	Septiembre	2023-09-14T00:00:00	2024-11-06T21:00:00	1	Precipitación	0
177768	7	Sololá	701	Sololá	2	El tablón	9	Septiembre	2023-09-14T00:00:00	2024-11-06T21:00:00	8	Radiación solar	0
177769	7	Sololá	701	Sololá	2	El tablón	9	Septiembre	2023-09-14T00:00:00	2024-11-06T22:00:00	2	Temperatura media	15.1
177770	7	Sololá	701	Sololá	2	El tablón	9	Septiembre	2023-09-14T00:00:00	2024-11-06T22:00:00	4	Temperatura máxima	15.2
177771	7	Sololá	701	Sololá	2	El tablón	9	Septiembre	2023-09-14T00:00:00	2024-11-06T22:00:00	3	Temperatura mínima	15.1
177772	7	Sololá	701	Sololá	2	El tablón	9	Septiembre	2023-09-14T00:00:00	2024-11-06T22:00:00	5	Humedad	88
177773	7	Sololá	701	Sololá	2	El tablón	9	Septiembre	2023-09-14T00:00:00	2024-11-06T22:00:00	6	Velocidad del viento	4.8
177774	7	Sololá	701	Sololá	2	El tablón	9	Septiembre	2023-09-14T00:00:00	2024-11-06T22:00:00	7	Dirección del viento	4.83
177775	7	Sololá	701	Sololá	2	El tablón	9	Septiembre	2023-09-14T00:00:00	2024-11-06T22:00:00	1	Precipitación	0
177776	7	Sololá	701	Sololá	2	El tablón	9	Septiembre	2023-09-14T00:00:00	2024-11-06T22:00:00	8	Radiación solar	0
177777	7	Sololá	701	Sololá	2	El tablón	9	Septiembre	2023-09-14T00:00:00	2024-11-06T23:00:00	2	Temperatura media	14.6
177778	7	Sololá	701	Sololá	2	El tablón	9	Septiembre	2023-09-14T00:00:00	2024-11-06T23:00:00	4	Temperatura máxima	15.2
177779	7	Sololá	701	Sololá	2	El tablón	9	Septiembre	2023-09-14T00:00:00	2024-11-06T23:00:00	3	Temperatura mínima	14.6
177780	7	Sololá	701	Sololá	2	El tablón	9	Septiembre	2023-09-14T00:00:00	2024-11-06T23:00:00	5	Humedad	88
177781	7	Sololá	701	Sololá	2	El tablón	9	Septiembre	2023-09-14T00:00:00	2024-11-06T23:00:00	6	Velocidad del viento	3.2
177782	7	Sololá	701	Sololá	2	El tablón	9	Septiembre	2023-09-14T00:00:00	2024-11-06T23:00:00	7	Dirección del viento	3.22
177783	7	Sololá	701	Sololá	2	El tablón	9	Septiembre	2023-09-14T00:00:00	2024-11-06T23:00:00	1	Precipitación	0
177784	7	Sololá	701	Sololá	2	El tablón	9	Septiembre	2023-09-14T00:00:00	2024-11-06T23:00:00	8	Radiación solar	0
177785	7	Sololá	701	Sololá	2	El tablón	9	Septiembre	2023-09-15T00:00:00	2024-11-06T00:00:00	2	Temperatura media	14.2
177786	7	Sololá	701	Sololá	2	El tablón	9	Septiembre	2023-09-15T00:00:00	2024-11-06T00:00:00	4	Temperatura máxima	14.7
177787	7	Sololá	701	Sololá	2	El tablón	9	Septiembre	2023-09-15T00:00:00	2024-11-06T00:00:00	3	Temperatura mínima	14.2
177788	7	Sololá	701	Sololá	2	El tablón	9	Septiembre	2023-09-15T00:00:00	2024-11-06T00:00:00	5	Humedad	88
177789	7	Sololá	701	Sololá	2	El tablón	9	Septiembre	2023-09-15T00:00:00	2024-11-06T00:00:00	6	Velocidad del viento	4.8
177790	7	Sololá	701	Sololá	2	El tablón	9	Septiembre	2023-09-15T00:00:00	2024-11-06T00:00:00	7	Dirección del viento	4.83
177791	7	Sololá	701	Sololá	2	El tablón	9	Septiembre	2023-09-15T00:00:00	2024-11-06T00:00:00	1	Precipitación	0
177792	7	Sololá	701	Sololá	2	El tablón	9	Septiembre	2023-09-15T00:00:00	2024-11-06T00:00:00	8	Radiación solar	0
177793	7	Sololá	701	Sololá	2	El tablón	9	Septiembre	2023-09-15T00:00:00	2024-11-06T01:00:00	2	Temperatura media	14.2
177794	7	Sololá	701	Sololá	2	El tablón	9	Septiembre	2023-09-15T00:00:00	2024-11-06T01:00:00	4	Temperatura máxima	14.3
177795	7	Sololá	701	Sololá	2	El tablón	9	Septiembre	2023-09-15T00:00:00	2024-11-06T01:00:00	3	Temperatura mínima	14.2
177796	7	Sololá	701	Sololá	2	El tablón	9	Septiembre	2023-09-15T00:00:00	2024-11-06T01:00:00	5	Humedad	88
177797	7	Sololá	701	Sololá	2	El tablón	9	Septiembre	2023-09-15T00:00:00	2024-11-06T01:00:00	6	Velocidad del viento	6.4
177798	7	Sololá	701	Sololá	2	El tablón	9	Septiembre	2023-09-15T00:00:00	2024-11-06T01:00:00	7	Dirección del viento	6.44
177799	7	Sololá	701	Sololá	2	El tablón	9	Septiembre	2023-09-15T00:00:00	2024-11-06T01:00:00	1	Precipitación	0
177800	7	Sololá	701	Sololá	2	El tablón	9	Septiembre	2023-09-15T00:00:00	2024-11-06T01:00:00	8	Radiación solar	0
177801	7	Sololá	701	Sololá	2	El tablón	9	Septiembre	2023-09-15T00:00:00	2024-11-06T02:00:00	2	Temperatura media	13.8
177802	7	Sololá	701	Sololá	2	El tablón	9	Septiembre	2023-09-15T00:00:00	2024-11-06T02:00:00	4	Temperatura máxima	14.2
177803	7	Sololá	701	Sololá	2	El tablón	9	Septiembre	2023-09-15T00:00:00	2024-11-06T02:00:00	3	Temperatura mínima	13.7
177804	7	Sololá	701	Sololá	2	El tablón	9	Septiembre	2023-09-15T00:00:00	2024-11-06T02:00:00	5	Humedad	88
177805	7	Sololá	701	Sololá	2	El tablón	9	Septiembre	2023-09-15T00:00:00	2024-11-06T02:00:00	6	Velocidad del viento	4.8
177806	7	Sololá	701	Sololá	2	El tablón	9	Septiembre	2023-09-15T00:00:00	2024-11-06T02:00:00	7	Dirección del viento	4.83
177807	7	Sololá	701	Sololá	2	El tablón	9	Septiembre	2023-09-15T00:00:00	2024-11-06T02:00:00	1	Precipitación	0
177808	7	Sololá	701	Sololá	2	El tablón	9	Septiembre	2023-09-15T00:00:00	2024-11-06T02:00:00	8	Radiación solar	0
177809	7	Sololá	701	Sololá	2	El tablón	9	Septiembre	2023-09-15T00:00:00	2024-11-06T03:00:00	2	Temperatura media	13.3
177810	7	Sololá	701	Sololá	2	El tablón	9	Septiembre	2023-09-15T00:00:00	2024-11-06T03:00:00	4	Temperatura máxima	13.8
177811	7	Sololá	701	Sololá	2	El tablón	9	Septiembre	2023-09-15T00:00:00	2024-11-06T03:00:00	3	Temperatura mínima	13.2
177812	7	Sololá	701	Sololá	2	El tablón	9	Septiembre	2023-09-15T00:00:00	2024-11-06T03:00:00	5	Humedad	89
177813	7	Sololá	701	Sololá	2	El tablón	9	Septiembre	2023-09-15T00:00:00	2024-11-06T03:00:00	6	Velocidad del viento	1.6
177814	7	Sololá	701	Sololá	2	El tablón	9	Septiembre	2023-09-15T00:00:00	2024-11-06T03:00:00	7	Dirección del viento	1.61
177815	7	Sololá	701	Sololá	2	El tablón	9	Septiembre	2023-09-15T00:00:00	2024-11-06T03:00:00	1	Precipitación	0
177816	7	Sololá	701	Sololá	2	El tablón	9	Septiembre	2023-09-15T00:00:00	2024-11-06T03:00:00	8	Radiación solar	0
177817	7	Sololá	701	Sololá	2	El tablón	9	Septiembre	2023-09-15T00:00:00	2024-11-06T04:00:00	2	Temperatura media	13
177818	7	Sololá	701	Sololá	2	El tablón	9	Septiembre	2023-09-15T00:00:00	2024-11-06T04:00:00	4	Temperatura máxima	13.3
177819	7	Sololá	701	Sololá	2	El tablón	9	Septiembre	2023-09-15T00:00:00	2024-11-06T04:00:00	3	Temperatura mínima	12.8
177820	7	Sololá	701	Sololá	2	El tablón	9	Septiembre	2023-09-15T00:00:00	2024-11-06T04:00:00	5	Humedad	89
177821	7	Sololá	701	Sololá	2	El tablón	9	Septiembre	2023-09-15T00:00:00	2024-11-06T04:00:00	6	Velocidad del viento	3.2
177822	7	Sololá	701	Sololá	2	El tablón	9	Septiembre	2023-09-15T00:00:00	2024-11-06T04:00:00	7	Dirección del viento	3.22
177823	7	Sololá	701	Sololá	2	El tablón	9	Septiembre	2023-09-15T00:00:00	2024-11-06T04:00:00	1	Precipitación	0
177824	7	Sololá	701	Sololá	2	El tablón	9	Septiembre	2023-09-15T00:00:00	2024-11-06T04:00:00	8	Radiación solar	0
177825	7	Sololá	701	Sololá	2	El tablón	9	Septiembre	2023-09-15T00:00:00	2024-11-06T05:00:00	2	Temperatura media	12.4
177826	7	Sololá	701	Sololá	2	El tablón	9	Septiembre	2023-09-15T00:00:00	2024-11-06T05:00:00	4	Temperatura máxima	13
177827	7	Sololá	701	Sololá	2	El tablón	9	Septiembre	2023-09-15T00:00:00	2024-11-06T05:00:00	3	Temperatura mínima	12.4
177828	7	Sololá	701	Sololá	2	El tablón	9	Septiembre	2023-09-15T00:00:00	2024-11-06T05:00:00	5	Humedad	89
177829	7	Sololá	701	Sololá	2	El tablón	9	Septiembre	2023-09-15T00:00:00	2024-11-06T05:00:00	6	Velocidad del viento	4.8
177830	7	Sololá	701	Sololá	2	El tablón	9	Septiembre	2023-09-15T00:00:00	2024-11-06T05:00:00	7	Dirección del viento	4.83
177831	7	Sololá	701	Sololá	2	El tablón	9	Septiembre	2023-09-15T00:00:00	2024-11-06T05:00:00	1	Precipitación	0
177832	7	Sololá	701	Sololá	2	El tablón	9	Septiembre	2023-09-15T00:00:00	2024-11-06T05:00:00	8	Radiación solar	0
177833	7	Sololá	701	Sololá	2	El tablón	9	Septiembre	2023-09-15T00:00:00	2024-11-06T06:00:00	2	Temperatura media	12.4
177834	7	Sololá	701	Sololá	2	El tablón	9	Septiembre	2023-09-15T00:00:00	2024-11-06T06:00:00	4	Temperatura máxima	12.5
177835	7	Sololá	701	Sololá	2	El tablón	9	Septiembre	2023-09-15T00:00:00	2024-11-06T06:00:00	3	Temperatura mínima	12.3
177836	7	Sololá	701	Sololá	2	El tablón	9	Septiembre	2023-09-15T00:00:00	2024-11-06T06:00:00	5	Humedad	89
177837	7	Sololá	701	Sololá	2	El tablón	9	Septiembre	2023-09-15T00:00:00	2024-11-06T06:00:00	6	Velocidad del viento	3.2
177838	7	Sololá	701	Sololá	2	El tablón	9	Septiembre	2023-09-15T00:00:00	2024-11-06T06:00:00	7	Dirección del viento	3.22
177839	7	Sololá	701	Sololá	2	El tablón	9	Septiembre	2023-09-15T00:00:00	2024-11-06T06:00:00	1	Precipitación	0
177840	7	Sololá	701	Sololá	2	El tablón	9	Septiembre	2023-09-15T00:00:00	2024-11-06T06:00:00	8	Radiación solar	0
177841	7	Sololá	701	Sololá	2	El tablón	9	Septiembre	2023-09-15T00:00:00	2024-11-06T07:00:00	2	Temperatura media	13.3
177842	7	Sololá	701	Sololá	2	El tablón	9	Septiembre	2023-09-15T00:00:00	2024-11-06T07:00:00	4	Temperatura máxima	13.3
177843	7	Sololá	701	Sololá	2	El tablón	9	Septiembre	2023-09-15T00:00:00	2024-11-06T07:00:00	3	Temperatura mínima	12.4
177844	7	Sololá	701	Sololá	2	El tablón	9	Septiembre	2023-09-15T00:00:00	2024-11-06T07:00:00	5	Humedad	88
177845	7	Sololá	701	Sololá	2	El tablón	9	Septiembre	2023-09-15T00:00:00	2024-11-06T07:00:00	6	Velocidad del viento	4.8
177846	7	Sololá	701	Sololá	2	El tablón	9	Septiembre	2023-09-15T00:00:00	2024-11-06T07:00:00	7	Dirección del viento	4.83
177847	7	Sololá	701	Sololá	2	El tablón	9	Septiembre	2023-09-15T00:00:00	2024-11-06T07:00:00	1	Precipitación	0
177848	7	Sololá	701	Sololá	2	El tablón	9	Septiembre	2023-09-15T00:00:00	2024-11-06T07:00:00	8	Radiación solar	68
177849	7	Sololá	701	Sololá	2	El tablón	9	Septiembre	2023-09-15T00:00:00	2024-11-06T08:00:00	2	Temperatura media	14.9
177850	7	Sololá	701	Sololá	2	El tablón	9	Septiembre	2023-09-15T00:00:00	2024-11-06T08:00:00	4	Temperatura máxima	14.9
177851	7	Sololá	701	Sololá	2	El tablón	9	Septiembre	2023-09-15T00:00:00	2024-11-06T08:00:00	3	Temperatura mínima	13.3
177852	7	Sololá	701	Sololá	2	El tablón	9	Septiembre	2023-09-15T00:00:00	2024-11-06T08:00:00	5	Humedad	84
177853	7	Sololá	701	Sololá	2	El tablón	9	Septiembre	2023-09-15T00:00:00	2024-11-06T08:00:00	6	Velocidad del viento	3.2
177854	7	Sololá	701	Sololá	2	El tablón	9	Septiembre	2023-09-15T00:00:00	2024-11-06T08:00:00	7	Dirección del viento	3.22
177855	7	Sololá	701	Sololá	2	El tablón	9	Septiembre	2023-09-15T00:00:00	2024-11-06T08:00:00	1	Precipitación	0
177856	7	Sololá	701	Sololá	2	El tablón	9	Septiembre	2023-09-15T00:00:00	2024-11-06T08:00:00	8	Radiación solar	165
177857	7	Sololá	701	Sololá	2	El tablón	9	Septiembre	2023-09-15T00:00:00	2024-11-06T09:00:00	2	Temperatura media	17.9
177858	7	Sololá	701	Sololá	2	El tablón	9	Septiembre	2023-09-15T00:00:00	2024-11-06T09:00:00	4	Temperatura máxima	17.9
177859	7	Sololá	701	Sololá	2	El tablón	9	Septiembre	2023-09-15T00:00:00	2024-11-06T09:00:00	3	Temperatura mínima	14.9
177860	7	Sololá	701	Sololá	2	El tablón	9	Septiembre	2023-09-15T00:00:00	2024-11-06T09:00:00	5	Humedad	73
177861	7	Sololá	701	Sololá	2	El tablón	9	Septiembre	2023-09-15T00:00:00	2024-11-06T09:00:00	6	Velocidad del viento	3.2
177862	7	Sololá	701	Sololá	2	El tablón	9	Septiembre	2023-09-15T00:00:00	2024-11-06T09:00:00	7	Dirección del viento	3.22
177863	7	Sololá	701	Sololá	2	El tablón	9	Septiembre	2023-09-15T00:00:00	2024-11-06T09:00:00	1	Precipitación	0
177864	7	Sololá	701	Sololá	2	El tablón	9	Septiembre	2023-09-15T00:00:00	2024-11-06T09:00:00	8	Radiación solar	448
177865	7	Sololá	701	Sololá	2	El tablón	9	Septiembre	2023-09-15T00:00:00	2024-11-06T10:00:00	2	Temperatura media	18.7
177866	7	Sololá	701	Sololá	2	El tablón	9	Septiembre	2023-09-15T00:00:00	2024-11-06T10:00:00	4	Temperatura máxima	18.9
177867	7	Sololá	701	Sololá	2	El tablón	9	Septiembre	2023-09-15T00:00:00	2024-11-06T10:00:00	3	Temperatura mínima	17.9
177868	7	Sololá	701	Sololá	2	El tablón	9	Septiembre	2023-09-15T00:00:00	2024-11-06T10:00:00	5	Humedad	67
177869	7	Sololá	701	Sololá	2	El tablón	9	Septiembre	2023-09-15T00:00:00	2024-11-06T10:00:00	6	Velocidad del viento	6.4
177870	7	Sololá	701	Sololá	2	El tablón	9	Septiembre	2023-09-15T00:00:00	2024-11-06T10:00:00	7	Dirección del viento	6.44
177871	7	Sololá	701	Sololá	2	El tablón	9	Septiembre	2023-09-15T00:00:00	2024-11-06T10:00:00	1	Precipitación	0
177872	7	Sololá	701	Sololá	2	El tablón	9	Septiembre	2023-09-15T00:00:00	2024-11-06T10:00:00	8	Radiación solar	645
177873	7	Sololá	701	Sololá	2	El tablón	9	Septiembre	2023-09-15T00:00:00	2024-11-06T11:00:00	2	Temperatura media	19.4
177874	7	Sololá	701	Sololá	2	El tablón	9	Septiembre	2023-09-15T00:00:00	2024-11-06T11:00:00	4	Temperatura máxima	19.4
177875	7	Sololá	701	Sololá	2	El tablón	9	Septiembre	2023-09-15T00:00:00	2024-11-06T11:00:00	3	Temperatura mínima	18.1
177876	7	Sololá	701	Sololá	2	El tablón	9	Septiembre	2023-09-15T00:00:00	2024-11-06T11:00:00	5	Humedad	66
177877	7	Sololá	701	Sololá	2	El tablón	9	Septiembre	2023-09-15T00:00:00	2024-11-06T11:00:00	6	Velocidad del viento	6.4
177878	7	Sololá	701	Sololá	2	El tablón	9	Septiembre	2023-09-15T00:00:00	2024-11-06T11:00:00	7	Dirección del viento	6.44
177879	7	Sololá	701	Sololá	2	El tablón	9	Septiembre	2023-09-15T00:00:00	2024-11-06T11:00:00	1	Precipitación	0
177880	7	Sololá	701	Sololá	2	El tablón	9	Septiembre	2023-09-15T00:00:00	2024-11-06T11:00:00	8	Radiación solar	654
177881	7	Sololá	701	Sololá	2	El tablón	9	Septiembre	2023-09-15T00:00:00	2024-11-06T12:00:00	2	Temperatura media	20.6
177882	7	Sololá	701	Sololá	2	El tablón	9	Septiembre	2023-09-15T00:00:00	2024-11-06T12:00:00	4	Temperatura máxima	20.6
177883	7	Sololá	701	Sololá	2	El tablón	9	Septiembre	2023-09-15T00:00:00	2024-11-06T12:00:00	3	Temperatura mínima	19.4
177884	7	Sololá	701	Sololá	2	El tablón	9	Septiembre	2023-09-15T00:00:00	2024-11-06T12:00:00	5	Humedad	61
177885	7	Sololá	701	Sololá	2	El tablón	9	Septiembre	2023-09-15T00:00:00	2024-11-06T12:00:00	6	Velocidad del viento	8
177886	7	Sololá	701	Sololá	2	El tablón	9	Septiembre	2023-09-15T00:00:00	2024-11-06T12:00:00	7	Dirección del viento	8.05
177887	7	Sololá	701	Sololá	2	El tablón	9	Septiembre	2023-09-15T00:00:00	2024-11-06T12:00:00	1	Precipitación	0
177888	7	Sololá	701	Sololá	2	El tablón	9	Septiembre	2023-09-15T00:00:00	2024-11-06T12:00:00	8	Radiación solar	895
177889	7	Sololá	701	Sololá	2	El tablón	9	Septiembre	2023-09-15T00:00:00	2024-11-06T13:00:00	2	Temperatura media	20.8
177890	7	Sololá	701	Sololá	2	El tablón	9	Septiembre	2023-09-15T00:00:00	2024-11-06T13:00:00	4	Temperatura máxima	20.9
177891	7	Sololá	701	Sololá	2	El tablón	9	Septiembre	2023-09-15T00:00:00	2024-11-06T13:00:00	3	Temperatura mínima	20.4
177892	7	Sololá	701	Sololá	2	El tablón	9	Septiembre	2023-09-15T00:00:00	2024-11-06T13:00:00	5	Humedad	55
177893	7	Sololá	701	Sololá	2	El tablón	9	Septiembre	2023-09-15T00:00:00	2024-11-06T13:00:00	6	Velocidad del viento	6.4
177894	7	Sololá	701	Sololá	2	El tablón	9	Septiembre	2023-09-15T00:00:00	2024-11-06T13:00:00	7	Dirección del viento	6.44
177895	7	Sololá	701	Sololá	2	El tablón	9	Septiembre	2023-09-15T00:00:00	2024-11-06T13:00:00	1	Precipitación	0
177896	7	Sololá	701	Sololá	2	El tablón	9	Septiembre	2023-09-15T00:00:00	2024-11-06T13:00:00	8	Radiación solar	954
177897	7	Sololá	701	Sololá	2	El tablón	9	Septiembre	2023-09-15T00:00:00	2024-11-06T14:00:00	2	Temperatura media	17.4
177898	7	Sololá	701	Sololá	2	El tablón	9	Septiembre	2023-09-15T00:00:00	2024-11-06T14:00:00	4	Temperatura máxima	22
177899	7	Sololá	701	Sololá	2	El tablón	9	Septiembre	2023-09-15T00:00:00	2024-11-06T14:00:00	3	Temperatura mínima	17.4
177900	7	Sololá	701	Sololá	2	El tablón	9	Septiembre	2023-09-15T00:00:00	2024-11-06T14:00:00	5	Humedad	85
177901	7	Sololá	701	Sololá	2	El tablón	9	Septiembre	2023-09-15T00:00:00	2024-11-06T14:00:00	6	Velocidad del viento	6.4
177902	7	Sololá	701	Sololá	2	El tablón	9	Septiembre	2023-09-15T00:00:00	2024-11-06T14:00:00	7	Dirección del viento	6.44
177903	7	Sololá	701	Sololá	2	El tablón	9	Septiembre	2023-09-15T00:00:00	2024-11-06T14:00:00	1	Precipitación	0
177904	7	Sololá	701	Sololá	2	El tablón	9	Septiembre	2023-09-15T00:00:00	2024-11-06T14:00:00	8	Radiación solar	427
177905	7	Sololá	701	Sololá	2	El tablón	9	Septiembre	2023-09-15T00:00:00	2024-11-06T15:00:00	2	Temperatura media	18.8
177906	7	Sololá	701	Sololá	2	El tablón	9	Septiembre	2023-09-15T00:00:00	2024-11-06T15:00:00	4	Temperatura máxima	19.1
177907	7	Sololá	701	Sololá	2	El tablón	9	Septiembre	2023-09-15T00:00:00	2024-11-06T15:00:00	3	Temperatura mínima	17.3
177908	7	Sololá	701	Sololá	2	El tablón	9	Septiembre	2023-09-15T00:00:00	2024-11-06T15:00:00	5	Humedad	76
177909	7	Sololá	701	Sololá	2	El tablón	9	Septiembre	2023-09-15T00:00:00	2024-11-06T15:00:00	6	Velocidad del viento	6.4
177910	7	Sololá	701	Sololá	2	El tablón	9	Septiembre	2023-09-15T00:00:00	2024-11-06T15:00:00	7	Dirección del viento	6.44
177911	7	Sololá	701	Sololá	2	El tablón	9	Septiembre	2023-09-15T00:00:00	2024-11-06T15:00:00	1	Precipitación	0
177912	7	Sololá	701	Sololá	2	El tablón	9	Septiembre	2023-09-15T00:00:00	2024-11-06T15:00:00	8	Radiación solar	359
177913	7	Sololá	701	Sololá	2	El tablón	9	Septiembre	2023-09-15T00:00:00	2024-11-06T16:00:00	2	Temperatura media	17.3
177914	7	Sololá	701	Sololá	2	El tablón	9	Septiembre	2023-09-15T00:00:00	2024-11-06T16:00:00	4	Temperatura máxima	18.9
177915	7	Sololá	701	Sololá	2	El tablón	9	Septiembre	2023-09-15T00:00:00	2024-11-06T16:00:00	3	Temperatura mínima	17.3
177916	7	Sololá	701	Sololá	2	El tablón	9	Septiembre	2023-09-15T00:00:00	2024-11-06T16:00:00	5	Humedad	86
177917	7	Sololá	701	Sololá	2	El tablón	9	Septiembre	2023-09-15T00:00:00	2024-11-06T16:00:00	6	Velocidad del viento	4.8
177918	7	Sololá	701	Sololá	2	El tablón	9	Septiembre	2023-09-15T00:00:00	2024-11-06T16:00:00	7	Dirección del viento	4.83
177919	7	Sololá	701	Sololá	2	El tablón	9	Septiembre	2023-09-15T00:00:00	2024-11-06T16:00:00	1	Precipitación	0
177920	7	Sololá	701	Sololá	2	El tablón	9	Septiembre	2023-09-15T00:00:00	2024-11-06T16:00:00	8	Radiación solar	259
177921	7	Sololá	701	Sololá	2	El tablón	9	Septiembre	2023-09-15T00:00:00	2024-11-06T17:00:00	2	Temperatura media	15.8
177922	7	Sololá	701	Sololá	2	El tablón	9	Septiembre	2023-09-15T00:00:00	2024-11-06T17:00:00	4	Temperatura máxima	17.3
177923	7	Sololá	701	Sololá	2	El tablón	9	Septiembre	2023-09-15T00:00:00	2024-11-06T17:00:00	3	Temperatura mínima	15.8
177924	7	Sololá	701	Sololá	2	El tablón	9	Septiembre	2023-09-15T00:00:00	2024-11-06T17:00:00	5	Humedad	88
177925	7	Sololá	701	Sololá	2	El tablón	9	Septiembre	2023-09-15T00:00:00	2024-11-06T17:00:00	6	Velocidad del viento	3.2
177926	7	Sololá	701	Sololá	2	El tablón	9	Septiembre	2023-09-15T00:00:00	2024-11-06T17:00:00	7	Dirección del viento	3.22
177927	7	Sololá	701	Sololá	2	El tablón	9	Septiembre	2023-09-15T00:00:00	2024-11-06T17:00:00	1	Precipitación	0
177928	7	Sololá	701	Sololá	2	El tablón	9	Septiembre	2023-09-15T00:00:00	2024-11-06T17:00:00	8	Radiación solar	102
177929	7	Sololá	701	Sololá	2	El tablón	9	Septiembre	2023-09-15T00:00:00	2024-11-06T18:00:00	2	Temperatura media	15.6
177930	7	Sololá	701	Sololá	2	El tablón	9	Septiembre	2023-09-15T00:00:00	2024-11-06T18:00:00	4	Temperatura máxima	16.2
177931	7	Sololá	701	Sololá	2	El tablón	9	Septiembre	2023-09-15T00:00:00	2024-11-06T18:00:00	3	Temperatura mínima	15.6
177932	7	Sololá	701	Sololá	2	El tablón	9	Septiembre	2023-09-15T00:00:00	2024-11-06T18:00:00	5	Humedad	86
177933	7	Sololá	701	Sololá	2	El tablón	9	Septiembre	2023-09-15T00:00:00	2024-11-06T18:00:00	6	Velocidad del viento	1.6
177934	7	Sololá	701	Sololá	2	El tablón	9	Septiembre	2023-09-15T00:00:00	2024-11-06T18:00:00	7	Dirección del viento	1.61
177935	7	Sololá	701	Sololá	2	El tablón	9	Septiembre	2023-09-15T00:00:00	2024-11-06T18:00:00	1	Precipitación	0
177936	7	Sololá	701	Sololá	2	El tablón	9	Septiembre	2023-09-15T00:00:00	2024-11-06T18:00:00	8	Radiación solar	39
177937	7	Sololá	701	Sololá	2	El tablón	9	Septiembre	2023-09-15T00:00:00	2024-11-06T19:00:00	2	Temperatura media	15
177938	7	Sololá	701	Sololá	2	El tablón	9	Septiembre	2023-09-15T00:00:00	2024-11-06T19:00:00	4	Temperatura máxima	15.6
177939	7	Sololá	701	Sololá	2	El tablón	9	Septiembre	2023-09-15T00:00:00	2024-11-06T19:00:00	3	Temperatura mínima	15
177940	7	Sololá	701	Sololá	2	El tablón	9	Septiembre	2023-09-15T00:00:00	2024-11-06T19:00:00	5	Humedad	86
177941	7	Sololá	701	Sololá	2	El tablón	9	Septiembre	2023-09-15T00:00:00	2024-11-06T19:00:00	6	Velocidad del viento	3.2
177942	7	Sololá	701	Sololá	2	El tablón	9	Septiembre	2023-09-15T00:00:00	2024-11-06T19:00:00	7	Dirección del viento	3.22
177943	7	Sololá	701	Sololá	2	El tablón	9	Septiembre	2023-09-15T00:00:00	2024-11-06T19:00:00	1	Precipitación	0
177944	7	Sololá	701	Sololá	2	El tablón	9	Septiembre	2023-09-15T00:00:00	2024-11-06T19:00:00	8	Radiación solar	0
177945	7	Sololá	701	Sololá	2	El tablón	9	Septiembre	2023-09-15T00:00:00	2024-11-06T20:00:00	2	Temperatura media	15.2
177946	7	Sololá	701	Sololá	2	El tablón	9	Septiembre	2023-09-15T00:00:00	2024-11-06T20:00:00	4	Temperatura máxima	15.2
177947	7	Sololá	701	Sololá	2	El tablón	9	Septiembre	2023-09-15T00:00:00	2024-11-06T20:00:00	3	Temperatura mínima	14.9
177948	7	Sololá	701	Sololá	2	El tablón	9	Septiembre	2023-09-15T00:00:00	2024-11-06T20:00:00	5	Humedad	86
177949	7	Sololá	701	Sololá	2	El tablón	9	Septiembre	2023-09-15T00:00:00	2024-11-06T20:00:00	6	Velocidad del viento	3.2
177950	7	Sololá	701	Sololá	2	El tablón	9	Septiembre	2023-09-15T00:00:00	2024-11-06T20:00:00	7	Dirección del viento	3.22
177951	7	Sololá	701	Sololá	2	El tablón	9	Septiembre	2023-09-15T00:00:00	2024-11-06T20:00:00	1	Precipitación	0
177952	7	Sololá	701	Sololá	2	El tablón	9	Septiembre	2023-09-15T00:00:00	2024-11-06T20:00:00	8	Radiación solar	0
177953	7	Sololá	701	Sololá	2	El tablón	9	Septiembre	2023-09-15T00:00:00	2024-11-06T21:00:00	2	Temperatura media	14.3
177954	7	Sololá	701	Sololá	2	El tablón	9	Septiembre	2023-09-15T00:00:00	2024-11-06T21:00:00	4	Temperatura máxima	15.2
177955	7	Sololá	701	Sololá	2	El tablón	9	Septiembre	2023-09-15T00:00:00	2024-11-06T21:00:00	3	Temperatura mínima	14.3
177956	7	Sololá	701	Sololá	2	El tablón	9	Septiembre	2023-09-15T00:00:00	2024-11-06T21:00:00	5	Humedad	87
177957	7	Sololá	701	Sololá	2	El tablón	9	Septiembre	2023-09-15T00:00:00	2024-11-06T21:00:00	6	Velocidad del viento	3.2
177958	7	Sololá	701	Sololá	2	El tablón	9	Septiembre	2023-09-15T00:00:00	2024-11-06T21:00:00	7	Dirección del viento	3.22
177959	7	Sololá	701	Sololá	2	El tablón	9	Septiembre	2023-09-15T00:00:00	2024-11-06T21:00:00	1	Precipitación	0
177960	7	Sololá	701	Sololá	2	El tablón	9	Septiembre	2023-09-15T00:00:00	2024-11-06T21:00:00	8	Radiación solar	0
177961	7	Sololá	701	Sololá	2	El tablón	9	Septiembre	2023-09-15T00:00:00	2024-11-06T22:00:00	2	Temperatura media	13.8
177962	7	Sololá	701	Sololá	2	El tablón	9	Septiembre	2023-09-15T00:00:00	2024-11-06T22:00:00	4	Temperatura máxima	14.3
177963	7	Sololá	701	Sololá	2	El tablón	9	Septiembre	2023-09-15T00:00:00	2024-11-06T22:00:00	3	Temperatura mínima	13.8
177964	7	Sololá	701	Sololá	2	El tablón	9	Septiembre	2023-09-15T00:00:00	2024-11-06T22:00:00	5	Humedad	88
177965	7	Sololá	701	Sololá	2	El tablón	9	Septiembre	2023-09-15T00:00:00	2024-11-06T22:00:00	6	Velocidad del viento	3.2
177966	7	Sololá	701	Sololá	2	El tablón	9	Septiembre	2023-09-15T00:00:00	2024-11-06T22:00:00	7	Dirección del viento	3.22
177967	7	Sololá	701	Sololá	2	El tablón	9	Septiembre	2023-09-15T00:00:00	2024-11-06T22:00:00	1	Precipitación	0
177968	7	Sololá	701	Sololá	2	El tablón	9	Septiembre	2023-09-15T00:00:00	2024-11-06T22:00:00	8	Radiación solar	0
177969	7	Sololá	701	Sololá	2	El tablón	9	Septiembre	2023-09-15T00:00:00	2024-11-06T23:00:00	2	Temperatura media	13.7
177970	7	Sololá	701	Sololá	2	El tablón	9	Septiembre	2023-09-15T00:00:00	2024-11-06T23:00:00	4	Temperatura máxima	13.8
177971	7	Sololá	701	Sololá	2	El tablón	9	Septiembre	2023-09-15T00:00:00	2024-11-06T23:00:00	3	Temperatura mínima	13.7
177972	7	Sololá	701	Sololá	2	El tablón	9	Septiembre	2023-09-15T00:00:00	2024-11-06T23:00:00	5	Humedad	87
177973	7	Sololá	701	Sololá	2	El tablón	9	Septiembre	2023-09-15T00:00:00	2024-11-06T23:00:00	6	Velocidad del viento	3.2
177974	7	Sololá	701	Sololá	2	El tablón	9	Septiembre	2023-09-15T00:00:00	2024-11-06T23:00:00	7	Dirección del viento	3.22
177975	7	Sololá	701	Sololá	2	El tablón	9	Septiembre	2023-09-15T00:00:00	2024-11-06T23:00:00	1	Precipitación	0
177976	7	Sololá	701	Sololá	2	El tablón	9	Septiembre	2023-09-15T00:00:00	2024-11-06T23:00:00	8	Radiación solar	0
177977	7	Sololá	701	Sololá	2	El tablón	9	Septiembre	2023-09-16T00:00:00	2024-11-06T00:00:00	2	Temperatura media	13.4
177978	7	Sololá	701	Sololá	2	El tablón	9	Septiembre	2023-09-16T00:00:00	2024-11-06T00:00:00	4	Temperatura máxima	13.8
177979	7	Sololá	701	Sololá	2	El tablón	9	Septiembre	2023-09-16T00:00:00	2024-11-06T00:00:00	3	Temperatura mínima	13.4
177980	7	Sololá	701	Sololá	2	El tablón	9	Septiembre	2023-09-16T00:00:00	2024-11-06T00:00:00	5	Humedad	87
177981	7	Sololá	701	Sololá	2	El tablón	9	Septiembre	2023-09-16T00:00:00	2024-11-06T00:00:00	6	Velocidad del viento	4.8
177982	7	Sololá	701	Sololá	2	El tablón	9	Septiembre	2023-09-16T00:00:00	2024-11-06T00:00:00	7	Dirección del viento	4.83
177983	7	Sololá	701	Sololá	2	El tablón	9	Septiembre	2023-09-16T00:00:00	2024-11-06T00:00:00	1	Precipitación	0
177984	7	Sololá	701	Sololá	2	El tablón	9	Septiembre	2023-09-16T00:00:00	2024-11-06T00:00:00	8	Radiación solar	0
177985	7	Sololá	701	Sololá	2	El tablón	9	Septiembre	2023-09-16T00:00:00	2024-11-06T01:00:00	2	Temperatura media	13.1
177986	7	Sololá	701	Sololá	2	El tablón	9	Septiembre	2023-09-16T00:00:00	2024-11-06T01:00:00	4	Temperatura máxima	13.4
177987	7	Sololá	701	Sololá	2	El tablón	9	Septiembre	2023-09-16T00:00:00	2024-11-06T01:00:00	3	Temperatura mínima	13.1
177988	7	Sololá	701	Sololá	2	El tablón	9	Septiembre	2023-09-16T00:00:00	2024-11-06T01:00:00	5	Humedad	86
177989	7	Sololá	701	Sololá	2	El tablón	9	Septiembre	2023-09-16T00:00:00	2024-11-06T01:00:00	6	Velocidad del viento	4.8
177990	7	Sololá	701	Sololá	2	El tablón	9	Septiembre	2023-09-16T00:00:00	2024-11-06T01:00:00	7	Dirección del viento	4.83
177991	7	Sololá	701	Sololá	2	El tablón	9	Septiembre	2023-09-16T00:00:00	2024-11-06T01:00:00	1	Precipitación	0
177992	7	Sololá	701	Sololá	2	El tablón	9	Septiembre	2023-09-16T00:00:00	2024-11-06T01:00:00	8	Radiación solar	0
177993	7	Sololá	701	Sololá	2	El tablón	9	Septiembre	2023-09-16T00:00:00	2024-11-06T02:00:00	2	Temperatura media	12.7
177994	7	Sololá	701	Sololá	2	El tablón	9	Septiembre	2023-09-16T00:00:00	2024-11-06T02:00:00	4	Temperatura máxima	13.1
177995	7	Sololá	701	Sololá	2	El tablón	9	Septiembre	2023-09-16T00:00:00	2024-11-06T02:00:00	3	Temperatura mínima	12.6
177996	7	Sololá	701	Sololá	2	El tablón	9	Septiembre	2023-09-16T00:00:00	2024-11-06T02:00:00	5	Humedad	87
177997	7	Sololá	701	Sololá	2	El tablón	9	Septiembre	2023-09-16T00:00:00	2024-11-06T02:00:00	6	Velocidad del viento	6.4
177998	7	Sololá	701	Sololá	2	El tablón	9	Septiembre	2023-09-16T00:00:00	2024-11-06T02:00:00	7	Dirección del viento	6.44
177999	7	Sololá	701	Sololá	2	El tablón	9	Septiembre	2023-09-16T00:00:00	2024-11-06T02:00:00	1	Precipitación	0
178000	7	Sololá	701	Sololá	2	El tablón	9	Septiembre	2023-09-16T00:00:00	2024-11-06T02:00:00	8	Radiación solar	0
178001	7	Sololá	701	Sololá	2	El tablón	9	Septiembre	2023-09-16T00:00:00	2024-11-06T03:00:00	2	Temperatura media	12.8
178002	7	Sololá	701	Sololá	2	El tablón	9	Septiembre	2023-09-16T00:00:00	2024-11-06T03:00:00	4	Temperatura máxima	12.8
178003	7	Sololá	701	Sololá	2	El tablón	9	Septiembre	2023-09-16T00:00:00	2024-11-06T03:00:00	3	Temperatura mínima	12.7
178004	7	Sololá	701	Sololá	2	El tablón	9	Septiembre	2023-09-16T00:00:00	2024-11-06T03:00:00	5	Humedad	86
178005	7	Sololá	701	Sololá	2	El tablón	9	Septiembre	2023-09-16T00:00:00	2024-11-06T03:00:00	6	Velocidad del viento	9.7
178006	7	Sololá	701	Sololá	2	El tablón	9	Septiembre	2023-09-16T00:00:00	2024-11-06T03:00:00	7	Dirección del viento	9.66
178007	7	Sololá	701	Sololá	2	El tablón	9	Septiembre	2023-09-16T00:00:00	2024-11-06T03:00:00	1	Precipitación	0
178008	7	Sololá	701	Sololá	2	El tablón	9	Septiembre	2023-09-16T00:00:00	2024-11-06T03:00:00	8	Radiación solar	0
178009	7	Sololá	701	Sololá	2	El tablón	9	Septiembre	2023-09-16T00:00:00	2024-11-06T04:00:00	2	Temperatura media	12.8
178010	7	Sololá	701	Sololá	2	El tablón	9	Septiembre	2023-09-16T00:00:00	2024-11-06T04:00:00	4	Temperatura máxima	12.8
178011	7	Sololá	701	Sololá	2	El tablón	9	Septiembre	2023-09-16T00:00:00	2024-11-06T04:00:00	3	Temperatura mínima	12.6
178012	7	Sololá	701	Sololá	2	El tablón	9	Septiembre	2023-09-16T00:00:00	2024-11-06T04:00:00	5	Humedad	85
178013	7	Sololá	701	Sololá	2	El tablón	9	Septiembre	2023-09-16T00:00:00	2024-11-06T04:00:00	6	Velocidad del viento	8
178014	7	Sololá	701	Sololá	2	El tablón	9	Septiembre	2023-09-16T00:00:00	2024-11-06T04:00:00	7	Dirección del viento	8.05
178015	7	Sololá	701	Sololá	2	El tablón	9	Septiembre	2023-09-16T00:00:00	2024-11-06T04:00:00	1	Precipitación	0
178016	7	Sololá	701	Sololá	2	El tablón	9	Septiembre	2023-09-16T00:00:00	2024-11-06T04:00:00	8	Radiación solar	0
178017	7	Sololá	701	Sololá	2	El tablón	9	Septiembre	2023-09-16T00:00:00	2024-11-06T05:00:00	2	Temperatura media	12.5
178018	7	Sololá	701	Sololá	2	El tablón	9	Septiembre	2023-09-16T00:00:00	2024-11-06T05:00:00	4	Temperatura máxima	12.9
178019	7	Sololá	701	Sololá	2	El tablón	9	Septiembre	2023-09-16T00:00:00	2024-11-06T05:00:00	3	Temperatura mínima	12.4
178020	7	Sololá	701	Sololá	2	El tablón	9	Septiembre	2023-09-16T00:00:00	2024-11-06T05:00:00	5	Humedad	87
178021	7	Sololá	701	Sololá	2	El tablón	9	Septiembre	2023-09-16T00:00:00	2024-11-06T05:00:00	6	Velocidad del viento	6.4
178022	7	Sololá	701	Sololá	2	El tablón	9	Septiembre	2023-09-16T00:00:00	2024-11-06T05:00:00	7	Dirección del viento	6.44
178023	7	Sololá	701	Sololá	2	El tablón	9	Septiembre	2023-09-16T00:00:00	2024-11-06T05:00:00	1	Precipitación	0
178024	7	Sololá	701	Sololá	2	El tablón	9	Septiembre	2023-09-16T00:00:00	2024-11-06T05:00:00	8	Radiación solar	0
178025	7	Sololá	701	Sololá	2	El tablón	9	Septiembre	2023-09-16T00:00:00	2024-11-06T06:00:00	2	Temperatura media	12.7
178026	7	Sololá	701	Sololá	2	El tablón	9	Septiembre	2023-09-16T00:00:00	2024-11-06T06:00:00	4	Temperatura máxima	12.7
178027	7	Sololá	701	Sololá	2	El tablón	9	Septiembre	2023-09-16T00:00:00	2024-11-06T06:00:00	3	Temperatura mínima	12.3
178028	7	Sololá	701	Sololá	2	El tablón	9	Septiembre	2023-09-16T00:00:00	2024-11-06T06:00:00	5	Humedad	85
178029	7	Sololá	701	Sololá	2	El tablón	9	Septiembre	2023-09-16T00:00:00	2024-11-06T06:00:00	6	Velocidad del viento	8
178030	7	Sololá	701	Sololá	2	El tablón	9	Septiembre	2023-09-16T00:00:00	2024-11-06T06:00:00	7	Dirección del viento	8.05
178031	7	Sololá	701	Sololá	2	El tablón	9	Septiembre	2023-09-16T00:00:00	2024-11-06T06:00:00	1	Precipitación	0
178032	7	Sololá	701	Sololá	2	El tablón	9	Septiembre	2023-09-16T00:00:00	2024-11-06T06:00:00	8	Radiación solar	1
178033	7	Sololá	701	Sololá	2	El tablón	9	Septiembre	2023-09-16T00:00:00	2024-11-06T07:00:00	2	Temperatura media	14.1
178034	7	Sololá	701	Sololá	2	El tablón	9	Septiembre	2023-09-16T00:00:00	2024-11-06T07:00:00	4	Temperatura máxima	14.1
178035	7	Sololá	701	Sololá	2	El tablón	9	Septiembre	2023-09-16T00:00:00	2024-11-06T07:00:00	3	Temperatura mínima	12.6
178036	7	Sololá	701	Sololá	2	El tablón	9	Septiembre	2023-09-16T00:00:00	2024-11-06T07:00:00	5	Humedad	81
178037	7	Sololá	701	Sololá	2	El tablón	9	Septiembre	2023-09-16T00:00:00	2024-11-06T07:00:00	6	Velocidad del viento	8
178038	7	Sololá	701	Sololá	2	El tablón	9	Septiembre	2023-09-16T00:00:00	2024-11-06T07:00:00	7	Dirección del viento	8.05
178039	7	Sololá	701	Sololá	2	El tablón	9	Septiembre	2023-09-16T00:00:00	2024-11-06T07:00:00	1	Precipitación	0
178040	7	Sololá	701	Sololá	2	El tablón	9	Septiembre	2023-09-16T00:00:00	2024-11-06T07:00:00	8	Radiación solar	78
178041	7	Sololá	701	Sololá	2	El tablón	9	Septiembre	2023-09-16T00:00:00	2024-11-06T08:00:00	2	Temperatura media	15.2
178042	7	Sololá	701	Sololá	2	El tablón	9	Septiembre	2023-09-16T00:00:00	2024-11-06T08:00:00	4	Temperatura máxima	15.3
178043	7	Sololá	701	Sololá	2	El tablón	9	Septiembre	2023-09-16T00:00:00	2024-11-06T08:00:00	3	Temperatura mínima	14.1
178044	7	Sololá	701	Sololá	2	El tablón	9	Septiembre	2023-09-16T00:00:00	2024-11-06T08:00:00	5	Humedad	81
178045	7	Sololá	701	Sololá	2	El tablón	9	Septiembre	2023-09-16T00:00:00	2024-11-06T08:00:00	6	Velocidad del viento	11.3
178046	7	Sololá	701	Sololá	2	El tablón	9	Septiembre	2023-09-16T00:00:00	2024-11-06T08:00:00	7	Dirección del viento	11.27
178047	7	Sololá	701	Sololá	2	El tablón	9	Septiembre	2023-09-16T00:00:00	2024-11-06T08:00:00	1	Precipitación	0
178048	7	Sololá	701	Sololá	2	El tablón	9	Septiembre	2023-09-16T00:00:00	2024-11-06T08:00:00	8	Radiación solar	280
178049	7	Sololá	701	Sololá	2	El tablón	9	Septiembre	2023-09-16T00:00:00	2024-11-06T09:00:00	2	Temperatura media	16.3
178050	7	Sololá	701	Sololá	2	El tablón	9	Septiembre	2023-09-16T00:00:00	2024-11-06T09:00:00	4	Temperatura máxima	16.3
178051	7	Sololá	701	Sololá	2	El tablón	9	Septiembre	2023-09-16T00:00:00	2024-11-06T09:00:00	3	Temperatura mínima	15.2
178052	7	Sololá	701	Sololá	2	El tablón	9	Septiembre	2023-09-16T00:00:00	2024-11-06T09:00:00	5	Humedad	77
178053	7	Sololá	701	Sololá	2	El tablón	9	Septiembre	2023-09-16T00:00:00	2024-11-06T09:00:00	6	Velocidad del viento	12.9
178054	7	Sololá	701	Sololá	2	El tablón	9	Septiembre	2023-09-16T00:00:00	2024-11-06T09:00:00	7	Dirección del viento	12.87
178055	7	Sololá	701	Sololá	2	El tablón	9	Septiembre	2023-09-16T00:00:00	2024-11-06T09:00:00	1	Precipitación	0
178056	7	Sololá	701	Sololá	2	El tablón	9	Septiembre	2023-09-16T00:00:00	2024-11-06T09:00:00	8	Radiación solar	448
178057	7	Sololá	701	Sololá	2	El tablón	9	Septiembre	2023-09-16T00:00:00	2024-11-06T10:00:00	2	Temperatura media	18.4
178058	7	Sololá	701	Sololá	2	El tablón	9	Septiembre	2023-09-16T00:00:00	2024-11-06T10:00:00	4	Temperatura máxima	18.4
178059	7	Sololá	701	Sololá	2	El tablón	9	Septiembre	2023-09-16T00:00:00	2024-11-06T10:00:00	3	Temperatura mínima	16.3
178060	7	Sololá	701	Sololá	2	El tablón	9	Septiembre	2023-09-16T00:00:00	2024-11-06T10:00:00	5	Humedad	70
178061	7	Sololá	701	Sololá	2	El tablón	9	Septiembre	2023-09-16T00:00:00	2024-11-06T10:00:00	6	Velocidad del viento	12.9
178062	7	Sololá	701	Sololá	2	El tablón	9	Septiembre	2023-09-16T00:00:00	2024-11-06T10:00:00	7	Dirección del viento	12.87
178063	7	Sololá	701	Sololá	2	El tablón	9	Septiembre	2023-09-16T00:00:00	2024-11-06T10:00:00	1	Precipitación	0
178064	7	Sololá	701	Sololá	2	El tablón	9	Septiembre	2023-09-16T00:00:00	2024-11-06T10:00:00	8	Radiación solar	598
178065	7	Sololá	701	Sololá	2	El tablón	9	Septiembre	2023-09-16T00:00:00	2024-11-06T11:00:00	2	Temperatura media	19.4
178066	7	Sololá	701	Sololá	2	El tablón	9	Septiembre	2023-09-16T00:00:00	2024-11-06T11:00:00	4	Temperatura máxima	19.4
178067	7	Sololá	701	Sololá	2	El tablón	9	Septiembre	2023-09-16T00:00:00	2024-11-06T11:00:00	3	Temperatura mínima	18.4
178068	7	Sololá	701	Sololá	2	El tablón	9	Septiembre	2023-09-16T00:00:00	2024-11-06T11:00:00	5	Humedad	69
178069	7	Sololá	701	Sololá	2	El tablón	9	Septiembre	2023-09-16T00:00:00	2024-11-06T11:00:00	6	Velocidad del viento	9.7
178070	7	Sololá	701	Sololá	2	El tablón	9	Septiembre	2023-09-16T00:00:00	2024-11-06T11:00:00	7	Dirección del viento	9.66
178071	7	Sololá	701	Sololá	2	El tablón	9	Septiembre	2023-09-16T00:00:00	2024-11-06T11:00:00	1	Precipitación	0
178072	7	Sololá	701	Sololá	2	El tablón	9	Septiembre	2023-09-16T00:00:00	2024-11-06T11:00:00	8	Radiación solar	780
178073	7	Sololá	701	Sololá	2	El tablón	9	Septiembre	2023-09-16T00:00:00	2024-11-06T12:00:00	2	Temperatura media	19.7
178074	7	Sololá	701	Sololá	2	El tablón	9	Septiembre	2023-09-16T00:00:00	2024-11-06T12:00:00	4	Temperatura máxima	19.8
178075	7	Sololá	701	Sololá	2	El tablón	9	Septiembre	2023-09-16T00:00:00	2024-11-06T12:00:00	3	Temperatura mínima	19.2
178076	7	Sololá	701	Sololá	2	El tablón	9	Septiembre	2023-09-16T00:00:00	2024-11-06T12:00:00	5	Humedad	69
178077	7	Sololá	701	Sololá	2	El tablón	9	Septiembre	2023-09-16T00:00:00	2024-11-06T12:00:00	6	Velocidad del viento	11.3
178078	7	Sololá	701	Sololá	2	El tablón	9	Septiembre	2023-09-16T00:00:00	2024-11-06T12:00:00	7	Dirección del viento	11.27
178079	7	Sololá	701	Sololá	2	El tablón	9	Septiembre	2023-09-16T00:00:00	2024-11-06T12:00:00	1	Precipitación	0
178080	7	Sololá	701	Sololá	2	El tablón	9	Septiembre	2023-09-16T00:00:00	2024-11-06T12:00:00	8	Radiación solar	985
178081	7	Sololá	701	Sololá	2	El tablón	9	Septiembre	2023-09-16T00:00:00	2024-11-06T13:00:00	2	Temperatura media	19.6
178082	7	Sololá	701	Sololá	2	El tablón	9	Septiembre	2023-09-16T00:00:00	2024-11-06T13:00:00	4	Temperatura máxima	19.9
178083	7	Sololá	701	Sololá	2	El tablón	9	Septiembre	2023-09-16T00:00:00	2024-11-06T13:00:00	3	Temperatura mínima	18.7
178084	7	Sololá	701	Sololá	2	El tablón	9	Septiembre	2023-09-16T00:00:00	2024-11-06T13:00:00	5	Humedad	67
178085	7	Sololá	701	Sololá	2	El tablón	9	Septiembre	2023-09-16T00:00:00	2024-11-06T13:00:00	6	Velocidad del viento	9.7
178086	7	Sololá	701	Sololá	2	El tablón	9	Septiembre	2023-09-16T00:00:00	2024-11-06T13:00:00	7	Dirección del viento	9.66
178087	7	Sololá	701	Sololá	2	El tablón	9	Septiembre	2023-09-16T00:00:00	2024-11-06T13:00:00	1	Precipitación	0
178088	7	Sololá	701	Sololá	2	El tablón	9	Septiembre	2023-09-16T00:00:00	2024-11-06T13:00:00	8	Radiación solar	565
178089	7	Sololá	701	Sololá	2	El tablón	9	Septiembre	2023-09-16T00:00:00	2024-11-06T14:00:00	2	Temperatura media	20.6
178090	7	Sololá	701	Sololá	2	El tablón	9	Septiembre	2023-09-16T00:00:00	2024-11-06T14:00:00	4	Temperatura máxima	20.9
178091	7	Sololá	701	Sololá	2	El tablón	9	Septiembre	2023-09-16T00:00:00	2024-11-06T14:00:00	3	Temperatura mínima	19.3
178092	7	Sololá	701	Sololá	2	El tablón	9	Septiembre	2023-09-16T00:00:00	2024-11-06T14:00:00	5	Humedad	61
178093	7	Sololá	701	Sololá	2	El tablón	9	Septiembre	2023-09-16T00:00:00	2024-11-06T14:00:00	6	Velocidad del viento	9.7
178094	7	Sololá	701	Sololá	2	El tablón	9	Septiembre	2023-09-16T00:00:00	2024-11-06T14:00:00	7	Dirección del viento	9.66
178095	7	Sololá	701	Sololá	2	El tablón	9	Septiembre	2023-09-16T00:00:00	2024-11-06T14:00:00	1	Precipitación	0
178096	7	Sololá	701	Sololá	2	El tablón	9	Septiembre	2023-09-16T00:00:00	2024-11-06T14:00:00	8	Radiación solar	904
178097	7	Sololá	701	Sololá	2	El tablón	9	Septiembre	2023-09-16T00:00:00	2024-11-06T15:00:00	2	Temperatura media	21
178098	7	Sololá	701	Sololá	2	El tablón	9	Septiembre	2023-09-16T00:00:00	2024-11-06T15:00:00	4	Temperatura máxima	21.1
178099	7	Sololá	701	Sololá	2	El tablón	9	Septiembre	2023-09-16T00:00:00	2024-11-06T15:00:00	3	Temperatura mínima	20.4
178100	7	Sololá	701	Sololá	2	El tablón	9	Septiembre	2023-09-16T00:00:00	2024-11-06T15:00:00	5	Humedad	62
178101	7	Sololá	701	Sololá	2	El tablón	9	Septiembre	2023-09-16T00:00:00	2024-11-06T15:00:00	6	Velocidad del viento	9.7
178102	7	Sololá	701	Sololá	2	El tablón	9	Septiembre	2023-09-16T00:00:00	2024-11-06T15:00:00	7	Dirección del viento	9.66
178103	7	Sololá	701	Sololá	2	El tablón	9	Septiembre	2023-09-16T00:00:00	2024-11-06T15:00:00	1	Precipitación	0
178104	7	Sololá	701	Sololá	2	El tablón	9	Septiembre	2023-09-16T00:00:00	2024-11-06T15:00:00	8	Radiación solar	741
178105	7	Sololá	701	Sololá	2	El tablón	9	Septiembre	2023-09-16T00:00:00	2024-11-06T16:00:00	2	Temperatura media	18.6
178106	7	Sololá	701	Sololá	2	El tablón	9	Septiembre	2023-09-16T00:00:00	2024-11-06T16:00:00	4	Temperatura máxima	21
178107	7	Sololá	701	Sololá	2	El tablón	9	Septiembre	2023-09-16T00:00:00	2024-11-06T16:00:00	3	Temperatura mínima	18.6
178108	7	Sololá	701	Sololá	2	El tablón	9	Septiembre	2023-09-16T00:00:00	2024-11-06T16:00:00	5	Humedad	75
178109	7	Sololá	701	Sololá	2	El tablón	9	Septiembre	2023-09-16T00:00:00	2024-11-06T16:00:00	6	Velocidad del viento	4.8
178110	7	Sololá	701	Sololá	2	El tablón	9	Septiembre	2023-09-16T00:00:00	2024-11-06T16:00:00	7	Dirección del viento	4.83
178111	7	Sololá	701	Sololá	2	El tablón	9	Septiembre	2023-09-16T00:00:00	2024-11-06T16:00:00	1	Precipitación	0
178112	7	Sololá	701	Sololá	2	El tablón	9	Septiembre	2023-09-16T00:00:00	2024-11-06T16:00:00	8	Radiación solar	156
178113	7	Sololá	701	Sololá	2	El tablón	9	Septiembre	2023-09-16T00:00:00	2024-11-06T17:00:00	2	Temperatura media	18.6
178114	7	Sololá	701	Sololá	2	El tablón	9	Septiembre	2023-09-16T00:00:00	2024-11-06T17:00:00	4	Temperatura máxima	19.7
178115	7	Sololá	701	Sololá	2	El tablón	9	Septiembre	2023-09-16T00:00:00	2024-11-06T17:00:00	3	Temperatura mínima	18.5
178116	7	Sololá	701	Sololá	2	El tablón	9	Septiembre	2023-09-16T00:00:00	2024-11-06T17:00:00	5	Humedad	70
178117	7	Sololá	701	Sololá	2	El tablón	9	Septiembre	2023-09-16T00:00:00	2024-11-06T17:00:00	6	Velocidad del viento	6.4
178118	7	Sololá	701	Sololá	2	El tablón	9	Septiembre	2023-09-16T00:00:00	2024-11-06T17:00:00	7	Dirección del viento	6.44
178119	7	Sololá	701	Sololá	2	El tablón	9	Septiembre	2023-09-16T00:00:00	2024-11-06T17:00:00	1	Precipitación	0
178120	7	Sololá	701	Sololá	2	El tablón	9	Septiembre	2023-09-16T00:00:00	2024-11-06T17:00:00	8	Radiación solar	232
178121	7	Sololá	701	Sololá	2	El tablón	9	Septiembre	2023-09-16T00:00:00	2024-11-06T18:00:00	2	Temperatura media	17.4
178122	7	Sololá	701	Sololá	2	El tablón	9	Septiembre	2023-09-16T00:00:00	2024-11-06T18:00:00	4	Temperatura máxima	19.1
178123	7	Sololá	701	Sololá	2	El tablón	9	Septiembre	2023-09-16T00:00:00	2024-11-06T18:00:00	3	Temperatura mínima	17.4
178124	7	Sololá	701	Sololá	2	El tablón	9	Septiembre	2023-09-16T00:00:00	2024-11-06T18:00:00	5	Humedad	81
178125	7	Sololá	701	Sololá	2	El tablón	9	Septiembre	2023-09-16T00:00:00	2024-11-06T18:00:00	6	Velocidad del viento	3.2
178126	7	Sololá	701	Sololá	2	El tablón	9	Septiembre	2023-09-16T00:00:00	2024-11-06T18:00:00	7	Dirección del viento	3.22
178127	7	Sololá	701	Sololá	2	El tablón	9	Septiembre	2023-09-16T00:00:00	2024-11-06T18:00:00	1	Precipitación	0
178128	7	Sololá	701	Sololá	2	El tablón	9	Septiembre	2023-09-16T00:00:00	2024-11-06T18:00:00	8	Radiación solar	88
178129	7	Sololá	701	Sololá	2	El tablón	9	Septiembre	2023-09-16T00:00:00	2024-11-06T19:00:00	2	Temperatura media	15.8
178130	7	Sololá	701	Sololá	2	El tablón	9	Septiembre	2023-09-16T00:00:00	2024-11-06T19:00:00	4	Temperatura máxima	17.4
178131	7	Sololá	701	Sololá	2	El tablón	9	Septiembre	2023-09-16T00:00:00	2024-11-06T19:00:00	3	Temperatura mínima	15.8
178132	7	Sololá	701	Sololá	2	El tablón	9	Septiembre	2023-09-16T00:00:00	2024-11-06T19:00:00	5	Humedad	85
178133	7	Sololá	701	Sololá	2	El tablón	9	Septiembre	2023-09-16T00:00:00	2024-11-06T19:00:00	6	Velocidad del viento	3.2
178134	7	Sololá	701	Sololá	2	El tablón	9	Septiembre	2023-09-16T00:00:00	2024-11-06T19:00:00	7	Dirección del viento	3.22
178135	7	Sololá	701	Sololá	2	El tablón	9	Septiembre	2023-09-16T00:00:00	2024-11-06T19:00:00	1	Precipitación	0
178136	7	Sololá	701	Sololá	2	El tablón	9	Septiembre	2023-09-16T00:00:00	2024-11-06T19:00:00	8	Radiación solar	0
178137	7	Sololá	701	Sololá	2	El tablón	9	Septiembre	2023-09-16T00:00:00	2024-11-06T20:00:00	2	Temperatura media	15.2
178138	7	Sololá	701	Sololá	2	El tablón	9	Septiembre	2023-09-16T00:00:00	2024-11-06T20:00:00	4	Temperatura máxima	15.8
178139	7	Sololá	701	Sololá	2	El tablón	9	Septiembre	2023-09-16T00:00:00	2024-11-06T20:00:00	3	Temperatura mínima	15.2
178140	7	Sololá	701	Sololá	2	El tablón	9	Septiembre	2023-09-16T00:00:00	2024-11-06T20:00:00	5	Humedad	87
178141	7	Sololá	701	Sololá	2	El tablón	9	Septiembre	2023-09-16T00:00:00	2024-11-06T20:00:00	6	Velocidad del viento	3.2
178142	7	Sololá	701	Sololá	2	El tablón	9	Septiembre	2023-09-16T00:00:00	2024-11-06T20:00:00	7	Dirección del viento	3.22
178143	7	Sololá	701	Sololá	2	El tablón	9	Septiembre	2023-09-16T00:00:00	2024-11-06T20:00:00	1	Precipitación	0
178144	7	Sololá	701	Sololá	2	El tablón	9	Septiembre	2023-09-16T00:00:00	2024-11-06T20:00:00	8	Radiación solar	0
178145	7	Sololá	701	Sololá	2	El tablón	9	Septiembre	2023-09-16T00:00:00	2024-11-06T21:00:00	2	Temperatura media	14.6
178146	7	Sololá	701	Sololá	2	El tablón	9	Septiembre	2023-09-16T00:00:00	2024-11-06T21:00:00	4	Temperatura máxima	15.3
178147	7	Sololá	701	Sololá	2	El tablón	9	Septiembre	2023-09-16T00:00:00	2024-11-06T21:00:00	3	Temperatura mínima	14.6
178148	7	Sololá	701	Sololá	2	El tablón	9	Septiembre	2023-09-16T00:00:00	2024-11-06T21:00:00	5	Humedad	88
178149	7	Sololá	701	Sololá	2	El tablón	9	Septiembre	2023-09-16T00:00:00	2024-11-06T21:00:00	6	Velocidad del viento	8
178150	7	Sololá	701	Sololá	2	El tablón	9	Septiembre	2023-09-16T00:00:00	2024-11-06T21:00:00	7	Dirección del viento	8.05
178151	7	Sololá	701	Sololá	2	El tablón	9	Septiembre	2023-09-16T00:00:00	2024-11-06T21:00:00	1	Precipitación	0
178152	7	Sololá	701	Sololá	2	El tablón	9	Septiembre	2023-09-16T00:00:00	2024-11-06T21:00:00	8	Radiación solar	0
178153	7	Sololá	701	Sololá	2	El tablón	9	Septiembre	2023-09-16T00:00:00	2024-11-06T22:00:00	2	Temperatura media	14.5
178154	7	Sololá	701	Sololá	2	El tablón	9	Septiembre	2023-09-16T00:00:00	2024-11-06T22:00:00	4	Temperatura máxima	14.6
178155	7	Sololá	701	Sololá	2	El tablón	9	Septiembre	2023-09-16T00:00:00	2024-11-06T22:00:00	3	Temperatura mínima	14.3
178156	7	Sololá	701	Sololá	2	El tablón	9	Septiembre	2023-09-16T00:00:00	2024-11-06T22:00:00	5	Humedad	87
178157	7	Sololá	701	Sololá	2	El tablón	9	Septiembre	2023-09-16T00:00:00	2024-11-06T22:00:00	6	Velocidad del viento	9.7
178158	7	Sololá	701	Sololá	2	El tablón	9	Septiembre	2023-09-16T00:00:00	2024-11-06T22:00:00	7	Dirección del viento	9.66
178159	7	Sololá	701	Sololá	2	El tablón	9	Septiembre	2023-09-16T00:00:00	2024-11-06T22:00:00	1	Precipitación	0
178160	7	Sololá	701	Sololá	2	El tablón	9	Septiembre	2023-09-16T00:00:00	2024-11-06T22:00:00	8	Radiación solar	0
178161	7	Sololá	701	Sololá	2	El tablón	9	Septiembre	2023-09-16T00:00:00	2024-11-06T23:00:00	2	Temperatura media	14.3
178162	7	Sololá	701	Sololá	2	El tablón	9	Septiembre	2023-09-16T00:00:00	2024-11-06T23:00:00	4	Temperatura máxima	14.5
178163	7	Sololá	701	Sololá	2	El tablón	9	Septiembre	2023-09-16T00:00:00	2024-11-06T23:00:00	3	Temperatura mínima	14.3
178164	7	Sololá	701	Sololá	2	El tablón	9	Septiembre	2023-09-16T00:00:00	2024-11-06T23:00:00	5	Humedad	86
178165	7	Sololá	701	Sololá	2	El tablón	9	Septiembre	2023-09-16T00:00:00	2024-11-06T23:00:00	6	Velocidad del viento	6.4
178166	7	Sololá	701	Sololá	2	El tablón	9	Septiembre	2023-09-16T00:00:00	2024-11-06T23:00:00	7	Dirección del viento	6.44
178167	7	Sololá	701	Sololá	2	El tablón	9	Septiembre	2023-09-16T00:00:00	2024-11-06T23:00:00	1	Precipitación	0
178168	7	Sololá	701	Sololá	2	El tablón	9	Septiembre	2023-09-16T00:00:00	2024-11-06T23:00:00	8	Radiación solar	0
178169	7	Sololá	701	Sololá	2	El tablón	9	Septiembre	2023-09-17T00:00:00	2024-11-06T00:00:00	2	Temperatura media	13.6
178170	7	Sololá	701	Sololá	2	El tablón	9	Septiembre	2023-09-17T00:00:00	2024-11-06T00:00:00	4	Temperatura máxima	14.3
178171	7	Sololá	701	Sololá	2	El tablón	9	Septiembre	2023-09-17T00:00:00	2024-11-06T00:00:00	3	Temperatura mínima	13.6
178172	7	Sololá	701	Sololá	2	El tablón	9	Septiembre	2023-09-17T00:00:00	2024-11-06T00:00:00	5	Humedad	87
178173	7	Sololá	701	Sololá	2	El tablón	9	Septiembre	2023-09-17T00:00:00	2024-11-06T00:00:00	6	Velocidad del viento	8
178174	7	Sololá	701	Sololá	2	El tablón	9	Septiembre	2023-09-17T00:00:00	2024-11-06T00:00:00	7	Dirección del viento	8.05
178175	7	Sololá	701	Sololá	2	El tablón	9	Septiembre	2023-09-17T00:00:00	2024-11-06T00:00:00	1	Precipitación	0
178176	7	Sololá	701	Sololá	2	El tablón	9	Septiembre	2023-09-17T00:00:00	2024-11-06T00:00:00	8	Radiación solar	0
178177	7	Sololá	701	Sololá	2	El tablón	9	Septiembre	2023-09-17T00:00:00	2024-11-06T01:00:00	2	Temperatura media	12.9
178178	7	Sololá	701	Sololá	2	El tablón	9	Septiembre	2023-09-17T00:00:00	2024-11-06T01:00:00	4	Temperatura máxima	13.7
178179	7	Sololá	701	Sololá	2	El tablón	9	Septiembre	2023-09-17T00:00:00	2024-11-06T01:00:00	3	Temperatura mínima	12.9
178180	7	Sololá	701	Sololá	2	El tablón	9	Septiembre	2023-09-17T00:00:00	2024-11-06T01:00:00	5	Humedad	86
178181	7	Sololá	701	Sololá	2	El tablón	9	Septiembre	2023-09-17T00:00:00	2024-11-06T01:00:00	6	Velocidad del viento	6.4
178182	7	Sololá	701	Sololá	2	El tablón	9	Septiembre	2023-09-17T00:00:00	2024-11-06T01:00:00	7	Dirección del viento	6.44
178183	7	Sololá	701	Sololá	2	El tablón	9	Septiembre	2023-09-17T00:00:00	2024-11-06T01:00:00	1	Precipitación	0
178184	7	Sololá	701	Sololá	2	El tablón	9	Septiembre	2023-09-17T00:00:00	2024-11-06T01:00:00	8	Radiación solar	0
178185	7	Sololá	701	Sololá	2	El tablón	9	Septiembre	2023-09-17T00:00:00	2024-11-06T02:00:00	2	Temperatura media	12.3
178186	7	Sololá	701	Sololá	2	El tablón	9	Septiembre	2023-09-17T00:00:00	2024-11-06T02:00:00	4	Temperatura máxima	12.9
178187	7	Sololá	701	Sololá	2	El tablón	9	Septiembre	2023-09-17T00:00:00	2024-11-06T02:00:00	3	Temperatura mínima	12.2
178188	7	Sololá	701	Sololá	2	El tablón	9	Septiembre	2023-09-17T00:00:00	2024-11-06T02:00:00	5	Humedad	86
178189	7	Sololá	701	Sololá	2	El tablón	9	Septiembre	2023-09-17T00:00:00	2024-11-06T02:00:00	6	Velocidad del viento	4.8
178190	7	Sololá	701	Sololá	2	El tablón	9	Septiembre	2023-09-17T00:00:00	2024-11-06T02:00:00	7	Dirección del viento	4.83
178191	7	Sololá	701	Sololá	2	El tablón	9	Septiembre	2023-09-17T00:00:00	2024-11-06T02:00:00	1	Precipitación	0
178192	7	Sololá	701	Sololá	2	El tablón	9	Septiembre	2023-09-17T00:00:00	2024-11-06T02:00:00	8	Radiación solar	0
178193	7	Sololá	701	Sololá	2	El tablón	9	Septiembre	2023-09-17T00:00:00	2024-11-06T03:00:00	2	Temperatura media	12.1
178194	7	Sololá	701	Sololá	2	El tablón	9	Septiembre	2023-09-17T00:00:00	2024-11-06T03:00:00	4	Temperatura máxima	12.3
178195	7	Sololá	701	Sololá	2	El tablón	9	Septiembre	2023-09-17T00:00:00	2024-11-06T03:00:00	3	Temperatura mínima	12.1
178196	7	Sololá	701	Sololá	2	El tablón	9	Septiembre	2023-09-17T00:00:00	2024-11-06T03:00:00	5	Humedad	86
178197	7	Sololá	701	Sololá	2	El tablón	9	Septiembre	2023-09-17T00:00:00	2024-11-06T03:00:00	6	Velocidad del viento	4.8
178198	7	Sololá	701	Sololá	2	El tablón	9	Septiembre	2023-09-17T00:00:00	2024-11-06T03:00:00	7	Dirección del viento	4.83
178199	7	Sololá	701	Sololá	2	El tablón	9	Septiembre	2023-09-17T00:00:00	2024-11-06T03:00:00	1	Precipitación	0
178200	7	Sololá	701	Sololá	2	El tablón	9	Septiembre	2023-09-17T00:00:00	2024-11-06T03:00:00	8	Radiación solar	0
178201	7	Sololá	701	Sololá	2	El tablón	9	Septiembre	2023-09-17T00:00:00	2024-11-06T04:00:00	2	Temperatura media	12.4
178202	7	Sololá	701	Sololá	2	El tablón	9	Septiembre	2023-09-17T00:00:00	2024-11-06T04:00:00	4	Temperatura máxima	12.4
178203	7	Sololá	701	Sololá	2	El tablón	9	Septiembre	2023-09-17T00:00:00	2024-11-06T04:00:00	3	Temperatura mínima	11.9
178204	7	Sololá	701	Sololá	2	El tablón	9	Septiembre	2023-09-17T00:00:00	2024-11-06T04:00:00	5	Humedad	83
178205	7	Sololá	701	Sololá	2	El tablón	9	Septiembre	2023-09-17T00:00:00	2024-11-06T04:00:00	6	Velocidad del viento	6.4
178206	7	Sololá	701	Sololá	2	El tablón	9	Septiembre	2023-09-17T00:00:00	2024-11-06T04:00:00	7	Dirección del viento	6.44
178207	7	Sololá	701	Sololá	2	El tablón	9	Septiembre	2023-09-17T00:00:00	2024-11-06T04:00:00	1	Precipitación	0
178208	7	Sololá	701	Sololá	2	El tablón	9	Septiembre	2023-09-17T00:00:00	2024-11-06T04:00:00	8	Radiación solar	0
178209	7	Sololá	701	Sololá	2	El tablón	9	Septiembre	2023-09-17T00:00:00	2024-11-06T05:00:00	2	Temperatura media	10.8
178210	7	Sololá	701	Sololá	2	El tablón	9	Septiembre	2023-09-17T00:00:00	2024-11-06T05:00:00	4	Temperatura máxima	12.4
178211	7	Sololá	701	Sololá	2	El tablón	9	Septiembre	2023-09-17T00:00:00	2024-11-06T05:00:00	3	Temperatura mínima	10.8
178212	7	Sololá	701	Sololá	2	El tablón	9	Septiembre	2023-09-17T00:00:00	2024-11-06T05:00:00	5	Humedad	86
178213	7	Sololá	701	Sololá	2	El tablón	9	Septiembre	2023-09-17T00:00:00	2024-11-06T05:00:00	6	Velocidad del viento	4.8
178214	7	Sololá	701	Sololá	2	El tablón	9	Septiembre	2023-09-17T00:00:00	2024-11-06T05:00:00	7	Dirección del viento	4.83
178215	7	Sololá	701	Sololá	2	El tablón	9	Septiembre	2023-09-17T00:00:00	2024-11-06T05:00:00	1	Precipitación	0
178216	7	Sololá	701	Sololá	2	El tablón	9	Septiembre	2023-09-17T00:00:00	2024-11-06T05:00:00	8	Radiación solar	0
178217	7	Sololá	701	Sololá	2	El tablón	9	Septiembre	2023-09-17T00:00:00	2024-11-06T06:00:00	2	Temperatura media	11.8
178218	7	Sololá	701	Sololá	2	El tablón	9	Septiembre	2023-09-17T00:00:00	2024-11-06T06:00:00	4	Temperatura máxima	11.8
178219	7	Sololá	701	Sololá	2	El tablón	9	Septiembre	2023-09-17T00:00:00	2024-11-06T06:00:00	3	Temperatura mínima	10.6
178220	7	Sololá	701	Sololá	2	El tablón	9	Septiembre	2023-09-17T00:00:00	2024-11-06T06:00:00	5	Humedad	81
178221	7	Sololá	701	Sololá	2	El tablón	9	Septiembre	2023-09-17T00:00:00	2024-11-06T06:00:00	6	Velocidad del viento	4.8
178222	7	Sololá	701	Sololá	2	El tablón	9	Septiembre	2023-09-17T00:00:00	2024-11-06T06:00:00	7	Dirección del viento	4.83
178223	7	Sololá	701	Sololá	2	El tablón	9	Septiembre	2023-09-17T00:00:00	2024-11-06T06:00:00	1	Precipitación	0
178224	7	Sololá	701	Sololá	2	El tablón	9	Septiembre	2023-09-17T00:00:00	2024-11-06T06:00:00	8	Radiación solar	0
178225	7	Sololá	701	Sololá	2	El tablón	9	Septiembre	2023-09-17T00:00:00	2024-11-06T07:00:00	2	Temperatura media	12.9
178226	7	Sololá	701	Sololá	2	El tablón	9	Septiembre	2023-09-17T00:00:00	2024-11-06T07:00:00	4	Temperatura máxima	12.9
178227	7	Sololá	701	Sololá	2	El tablón	9	Septiembre	2023-09-17T00:00:00	2024-11-06T07:00:00	3	Temperatura mínima	11.8
178228	7	Sololá	701	Sololá	2	El tablón	9	Septiembre	2023-09-17T00:00:00	2024-11-06T07:00:00	5	Humedad	81
178229	7	Sololá	701	Sololá	2	El tablón	9	Septiembre	2023-09-17T00:00:00	2024-11-06T07:00:00	6	Velocidad del viento	8
178230	7	Sololá	701	Sololá	2	El tablón	9	Septiembre	2023-09-17T00:00:00	2024-11-06T07:00:00	7	Dirección del viento	8.05
178231	7	Sololá	701	Sololá	2	El tablón	9	Septiembre	2023-09-17T00:00:00	2024-11-06T07:00:00	1	Precipitación	0
178232	7	Sololá	701	Sololá	2	El tablón	9	Septiembre	2023-09-17T00:00:00	2024-11-06T07:00:00	8	Radiación solar	61
178233	7	Sololá	701	Sololá	2	El tablón	9	Septiembre	2023-09-17T00:00:00	2024-11-06T08:00:00	2	Temperatura media	14.9
178234	7	Sololá	701	Sololá	2	El tablón	9	Septiembre	2023-09-17T00:00:00	2024-11-06T08:00:00	4	Temperatura máxima	14.9
178235	7	Sololá	701	Sololá	2	El tablón	9	Septiembre	2023-09-17T00:00:00	2024-11-06T08:00:00	3	Temperatura mínima	12.9
178236	7	Sololá	701	Sololá	2	El tablón	9	Septiembre	2023-09-17T00:00:00	2024-11-06T08:00:00	5	Humedad	78
178237	7	Sololá	701	Sololá	2	El tablón	9	Septiembre	2023-09-17T00:00:00	2024-11-06T08:00:00	6	Velocidad del viento	11.3
178238	7	Sololá	701	Sololá	2	El tablón	9	Septiembre	2023-09-17T00:00:00	2024-11-06T08:00:00	7	Dirección del viento	11.27
178239	7	Sololá	701	Sololá	2	El tablón	9	Septiembre	2023-09-17T00:00:00	2024-11-06T08:00:00	1	Precipitación	0
178240	7	Sololá	701	Sololá	2	El tablón	9	Septiembre	2023-09-17T00:00:00	2024-11-06T08:00:00	8	Radiación solar	263
178241	7	Sololá	701	Sololá	2	El tablón	9	Septiembre	2023-09-17T00:00:00	2024-11-06T09:00:00	2	Temperatura media	17.2
178242	7	Sololá	701	Sololá	2	El tablón	9	Septiembre	2023-09-17T00:00:00	2024-11-06T09:00:00	4	Temperatura máxima	17.2
178243	7	Sololá	701	Sololá	2	El tablón	9	Septiembre	2023-09-17T00:00:00	2024-11-06T09:00:00	3	Temperatura mínima	14.9
178244	7	Sololá	701	Sololá	2	El tablón	9	Septiembre	2023-09-17T00:00:00	2024-11-06T09:00:00	5	Humedad	71
178245	7	Sololá	701	Sololá	2	El tablón	9	Septiembre	2023-09-17T00:00:00	2024-11-06T09:00:00	6	Velocidad del viento	6.4
178246	7	Sololá	701	Sololá	2	El tablón	9	Septiembre	2023-09-17T00:00:00	2024-11-06T09:00:00	7	Dirección del viento	6.44
178247	7	Sololá	701	Sololá	2	El tablón	9	Septiembre	2023-09-17T00:00:00	2024-11-06T09:00:00	1	Precipitación	0
178248	7	Sololá	701	Sololá	2	El tablón	9	Septiembre	2023-09-17T00:00:00	2024-11-06T09:00:00	8	Radiación solar	430
178249	7	Sololá	701	Sololá	2	El tablón	9	Septiembre	2023-09-17T00:00:00	2024-11-06T10:00:00	2	Temperatura media	17.7
178250	7	Sololá	701	Sololá	2	El tablón	9	Septiembre	2023-09-17T00:00:00	2024-11-06T10:00:00	4	Temperatura máxima	18.6
178251	7	Sololá	701	Sololá	2	El tablón	9	Septiembre	2023-09-17T00:00:00	2024-11-06T10:00:00	3	Temperatura mínima	17.1
178252	7	Sololá	701	Sololá	2	El tablón	9	Septiembre	2023-09-17T00:00:00	2024-11-06T10:00:00	5	Humedad	74
178253	7	Sololá	701	Sololá	2	El tablón	9	Septiembre	2023-09-17T00:00:00	2024-11-06T10:00:00	6	Velocidad del viento	4.8
178254	7	Sololá	701	Sololá	2	El tablón	9	Septiembre	2023-09-17T00:00:00	2024-11-06T10:00:00	7	Dirección del viento	4.83
178255	7	Sololá	701	Sololá	2	El tablón	9	Septiembre	2023-09-17T00:00:00	2024-11-06T10:00:00	1	Precipitación	0
178256	7	Sololá	701	Sololá	2	El tablón	9	Septiembre	2023-09-17T00:00:00	2024-11-06T10:00:00	8	Radiación solar	532
178257	7	Sololá	701	Sololá	2	El tablón	9	Septiembre	2023-09-17T00:00:00	2024-11-06T11:00:00	2	Temperatura media	18.9
178258	7	Sololá	701	Sololá	2	El tablón	9	Septiembre	2023-09-17T00:00:00	2024-11-06T11:00:00	4	Temperatura máxima	19.1
178259	7	Sololá	701	Sololá	2	El tablón	9	Septiembre	2023-09-17T00:00:00	2024-11-06T11:00:00	3	Temperatura mínima	17.7
178260	7	Sololá	701	Sololá	2	El tablón	9	Septiembre	2023-09-17T00:00:00	2024-11-06T11:00:00	5	Humedad	64
178261	7	Sololá	701	Sololá	2	El tablón	9	Septiembre	2023-09-17T00:00:00	2024-11-06T11:00:00	6	Velocidad del viento	6.4
178262	7	Sololá	701	Sololá	2	El tablón	9	Septiembre	2023-09-17T00:00:00	2024-11-06T11:00:00	7	Dirección del viento	6.44
178263	7	Sololá	701	Sololá	2	El tablón	9	Septiembre	2023-09-17T00:00:00	2024-11-06T11:00:00	1	Precipitación	0
178264	7	Sololá	701	Sololá	2	El tablón	9	Septiembre	2023-09-17T00:00:00	2024-11-06T11:00:00	8	Radiación solar	799
178265	7	Sololá	701	Sololá	2	El tablón	9	Septiembre	2023-09-17T00:00:00	2024-11-06T12:00:00	2	Temperatura media	19.4
178266	7	Sololá	701	Sololá	2	El tablón	9	Septiembre	2023-09-17T00:00:00	2024-11-06T12:00:00	4	Temperatura máxima	19.6
178267	7	Sololá	701	Sololá	2	El tablón	9	Septiembre	2023-09-17T00:00:00	2024-11-06T12:00:00	3	Temperatura mínima	18.8
178268	7	Sololá	701	Sololá	2	El tablón	9	Septiembre	2023-09-17T00:00:00	2024-11-06T12:00:00	5	Humedad	67
178269	7	Sololá	701	Sololá	2	El tablón	9	Septiembre	2023-09-17T00:00:00	2024-11-06T12:00:00	6	Velocidad del viento	6.4
178270	7	Sololá	701	Sololá	2	El tablón	9	Septiembre	2023-09-17T00:00:00	2024-11-06T12:00:00	7	Dirección del viento	6.44
178271	7	Sololá	701	Sololá	2	El tablón	9	Septiembre	2023-09-17T00:00:00	2024-11-06T12:00:00	1	Precipitación	0
178272	7	Sololá	701	Sololá	2	El tablón	9	Septiembre	2023-09-17T00:00:00	2024-11-06T12:00:00	8	Radiación solar	896
178273	7	Sololá	701	Sololá	2	El tablón	9	Septiembre	2023-09-17T00:00:00	2024-11-06T13:00:00	2	Temperatura media	20.1
178274	7	Sololá	701	Sololá	2	El tablón	9	Septiembre	2023-09-17T00:00:00	2024-11-06T13:00:00	4	Temperatura máxima	20.4
178275	7	Sololá	701	Sololá	2	El tablón	9	Septiembre	2023-09-17T00:00:00	2024-11-06T13:00:00	3	Temperatura mínima	19.3
178276	7	Sololá	701	Sololá	2	El tablón	9	Septiembre	2023-09-17T00:00:00	2024-11-06T13:00:00	5	Humedad	69
178277	7	Sololá	701	Sololá	2	El tablón	9	Septiembre	2023-09-17T00:00:00	2024-11-06T13:00:00	6	Velocidad del viento	6.4
178278	7	Sololá	701	Sololá	2	El tablón	9	Septiembre	2023-09-17T00:00:00	2024-11-06T13:00:00	7	Dirección del viento	6.44
178279	7	Sololá	701	Sololá	2	El tablón	9	Septiembre	2023-09-17T00:00:00	2024-11-06T13:00:00	1	Precipitación	0
178280	7	Sololá	701	Sololá	2	El tablón	9	Septiembre	2023-09-17T00:00:00	2024-11-06T13:00:00	8	Radiación solar	883
178281	7	Sololá	701	Sololá	2	El tablón	9	Septiembre	2023-09-17T00:00:00	2024-11-06T14:00:00	2	Temperatura media	19.1
178282	7	Sololá	701	Sololá	2	El tablón	9	Septiembre	2023-09-17T00:00:00	2024-11-06T14:00:00	4	Temperatura máxima	20.8
178283	7	Sololá	701	Sololá	2	El tablón	9	Septiembre	2023-09-17T00:00:00	2024-11-06T14:00:00	3	Temperatura mínima	19.1
178284	7	Sololá	701	Sololá	2	El tablón	9	Septiembre	2023-09-17T00:00:00	2024-11-06T14:00:00	5	Humedad	79
178285	7	Sololá	701	Sololá	2	El tablón	9	Septiembre	2023-09-17T00:00:00	2024-11-06T14:00:00	6	Velocidad del viento	6.4
178286	7	Sololá	701	Sololá	2	El tablón	9	Septiembre	2023-09-17T00:00:00	2024-11-06T14:00:00	7	Dirección del viento	6.44
178287	7	Sololá	701	Sololá	2	El tablón	9	Septiembre	2023-09-17T00:00:00	2024-11-06T14:00:00	1	Precipitación	0
178288	7	Sololá	701	Sololá	2	El tablón	9	Septiembre	2023-09-17T00:00:00	2024-11-06T14:00:00	8	Radiación solar	623
178289	7	Sololá	701	Sololá	2	El tablón	9	Septiembre	2023-09-17T00:00:00	2024-11-06T15:00:00	2	Temperatura media	19.2
178290	7	Sololá	701	Sololá	2	El tablón	9	Septiembre	2023-09-17T00:00:00	2024-11-06T15:00:00	4	Temperatura máxima	19.4
178291	7	Sololá	701	Sololá	2	El tablón	9	Septiembre	2023-09-17T00:00:00	2024-11-06T15:00:00	3	Temperatura mínima	18.4
178292	7	Sololá	701	Sololá	2	El tablón	9	Septiembre	2023-09-17T00:00:00	2024-11-06T15:00:00	5	Humedad	78
178293	7	Sololá	701	Sololá	2	El tablón	9	Septiembre	2023-09-17T00:00:00	2024-11-06T15:00:00	6	Velocidad del viento	4.8
178294	7	Sololá	701	Sololá	2	El tablón	9	Septiembre	2023-09-17T00:00:00	2024-11-06T15:00:00	7	Dirección del viento	4.83
178295	7	Sololá	701	Sololá	2	El tablón	9	Septiembre	2023-09-17T00:00:00	2024-11-06T15:00:00	1	Precipitación	0
178296	7	Sololá	701	Sololá	2	El tablón	9	Septiembre	2023-09-17T00:00:00	2024-11-06T15:00:00	8	Radiación solar	241
178297	7	Sololá	701	Sololá	2	El tablón	9	Septiembre	2023-09-17T00:00:00	2024-11-06T16:00:00	2	Temperatura media	20.1
178298	7	Sololá	701	Sololá	2	El tablón	9	Septiembre	2023-09-17T00:00:00	2024-11-06T16:00:00	4	Temperatura máxima	20.9
178299	7	Sololá	701	Sololá	2	El tablón	9	Septiembre	2023-09-17T00:00:00	2024-11-06T16:00:00	3	Temperatura mínima	19.2
178300	7	Sololá	701	Sololá	2	El tablón	9	Septiembre	2023-09-17T00:00:00	2024-11-06T16:00:00	5	Humedad	63
178301	7	Sololá	701	Sololá	2	El tablón	9	Septiembre	2023-09-17T00:00:00	2024-11-06T16:00:00	6	Velocidad del viento	8
178302	7	Sololá	701	Sololá	2	El tablón	9	Septiembre	2023-09-17T00:00:00	2024-11-06T16:00:00	7	Dirección del viento	8.05
178303	7	Sololá	701	Sololá	2	El tablón	9	Septiembre	2023-09-17T00:00:00	2024-11-06T16:00:00	1	Precipitación	0
178304	7	Sololá	701	Sololá	2	El tablón	9	Septiembre	2023-09-17T00:00:00	2024-11-06T16:00:00	8	Radiación solar	445
178305	7	Sololá	701	Sololá	2	El tablón	9	Septiembre	2023-09-17T00:00:00	2024-11-06T17:00:00	2	Temperatura media	19.8
178306	7	Sololá	701	Sololá	2	El tablón	9	Septiembre	2023-09-17T00:00:00	2024-11-06T17:00:00	4	Temperatura máxima	20.6
178307	7	Sololá	701	Sololá	2	El tablón	9	Septiembre	2023-09-17T00:00:00	2024-11-06T17:00:00	3	Temperatura mínima	19.8
178308	7	Sololá	701	Sololá	2	El tablón	9	Septiembre	2023-09-17T00:00:00	2024-11-06T17:00:00	5	Humedad	59
178309	7	Sololá	701	Sololá	2	El tablón	9	Septiembre	2023-09-17T00:00:00	2024-11-06T17:00:00	6	Velocidad del viento	6.4
178310	7	Sololá	701	Sololá	2	El tablón	9	Septiembre	2023-09-17T00:00:00	2024-11-06T17:00:00	7	Dirección del viento	6.44
178311	7	Sololá	701	Sololá	2	El tablón	9	Septiembre	2023-09-17T00:00:00	2024-11-06T17:00:00	1	Precipitación	0
178312	7	Sololá	701	Sololá	2	El tablón	9	Septiembre	2023-09-17T00:00:00	2024-11-06T17:00:00	8	Radiación solar	322
178313	7	Sololá	701	Sololá	2	El tablón	9	Septiembre	2023-09-17T00:00:00	2024-11-06T18:00:00	2	Temperatura media	17.3
178314	7	Sololá	701	Sololá	2	El tablón	9	Septiembre	2023-09-17T00:00:00	2024-11-06T18:00:00	4	Temperatura máxima	19.7
178315	7	Sololá	701	Sololá	2	El tablón	9	Septiembre	2023-09-17T00:00:00	2024-11-06T18:00:00	3	Temperatura mínima	17.3
178316	7	Sololá	701	Sololá	2	El tablón	9	Septiembre	2023-09-17T00:00:00	2024-11-06T18:00:00	5	Humedad	83
178317	7	Sololá	701	Sololá	2	El tablón	9	Septiembre	2023-09-17T00:00:00	2024-11-06T18:00:00	6	Velocidad del viento	4.8
178318	7	Sololá	701	Sololá	2	El tablón	9	Septiembre	2023-09-17T00:00:00	2024-11-06T18:00:00	7	Dirección del viento	4.83
178319	7	Sololá	701	Sololá	2	El tablón	9	Septiembre	2023-09-17T00:00:00	2024-11-06T18:00:00	1	Precipitación	0
178320	7	Sololá	701	Sololá	2	El tablón	9	Septiembre	2023-09-17T00:00:00	2024-11-06T18:00:00	8	Radiación solar	83
178321	7	Sololá	701	Sololá	2	El tablón	9	Septiembre	2023-09-17T00:00:00	2024-11-06T19:00:00	2	Temperatura media	15.8
178322	7	Sololá	701	Sololá	2	El tablón	9	Septiembre	2023-09-17T00:00:00	2024-11-06T19:00:00	4	Temperatura máxima	17.3
178323	7	Sololá	701	Sololá	2	El tablón	9	Septiembre	2023-09-17T00:00:00	2024-11-06T19:00:00	3	Temperatura mínima	15.7
178324	7	Sololá	701	Sololá	2	El tablón	9	Septiembre	2023-09-17T00:00:00	2024-11-06T19:00:00	5	Humedad	84
178325	7	Sololá	701	Sololá	2	El tablón	9	Septiembre	2023-09-17T00:00:00	2024-11-06T19:00:00	6	Velocidad del viento	1.6
178326	7	Sololá	701	Sololá	2	El tablón	9	Septiembre	2023-09-17T00:00:00	2024-11-06T19:00:00	7	Dirección del viento	1.61
178327	7	Sololá	701	Sololá	2	El tablón	9	Septiembre	2023-09-17T00:00:00	2024-11-06T19:00:00	1	Precipitación	0
178328	7	Sololá	701	Sololá	2	El tablón	9	Septiembre	2023-09-17T00:00:00	2024-11-06T19:00:00	8	Radiación solar	0
178329	7	Sololá	701	Sololá	2	El tablón	9	Septiembre	2023-09-17T00:00:00	2024-11-06T20:00:00	2	Temperatura media	15.4
178330	7	Sololá	701	Sololá	2	El tablón	9	Septiembre	2023-09-17T00:00:00	2024-11-06T20:00:00	4	Temperatura máxima	15.8
178331	7	Sololá	701	Sololá	2	El tablón	9	Septiembre	2023-09-17T00:00:00	2024-11-06T20:00:00	3	Temperatura mínima	15.3
178332	7	Sololá	701	Sololá	2	El tablón	9	Septiembre	2023-09-17T00:00:00	2024-11-06T20:00:00	5	Humedad	86
178333	7	Sololá	701	Sololá	2	El tablón	9	Septiembre	2023-09-17T00:00:00	2024-11-06T20:00:00	6	Velocidad del viento	4.8
178334	7	Sololá	701	Sololá	2	El tablón	9	Septiembre	2023-09-17T00:00:00	2024-11-06T20:00:00	7	Dirección del viento	4.83
178335	7	Sololá	701	Sololá	2	El tablón	9	Septiembre	2023-09-17T00:00:00	2024-11-06T20:00:00	1	Precipitación	0
178336	7	Sololá	701	Sololá	2	El tablón	9	Septiembre	2023-09-17T00:00:00	2024-11-06T20:00:00	8	Radiación solar	0
178337	7	Sololá	701	Sololá	2	El tablón	9	Septiembre	2023-09-17T00:00:00	2024-11-06T21:00:00	2	Temperatura media	15.2
178338	7	Sololá	701	Sololá	2	El tablón	9	Septiembre	2023-09-17T00:00:00	2024-11-06T21:00:00	4	Temperatura máxima	15.5
178339	7	Sololá	701	Sololá	2	El tablón	9	Septiembre	2023-09-17T00:00:00	2024-11-06T21:00:00	3	Temperatura mínima	15.2
178340	7	Sololá	701	Sololá	2	El tablón	9	Septiembre	2023-09-17T00:00:00	2024-11-06T21:00:00	5	Humedad	87
178341	7	Sololá	701	Sololá	2	El tablón	9	Septiembre	2023-09-17T00:00:00	2024-11-06T21:00:00	6	Velocidad del viento	4.8
178342	7	Sololá	701	Sololá	2	El tablón	9	Septiembre	2023-09-17T00:00:00	2024-11-06T21:00:00	7	Dirección del viento	4.83
178343	7	Sololá	701	Sololá	2	El tablón	9	Septiembre	2023-09-17T00:00:00	2024-11-06T21:00:00	1	Precipitación	0
178344	7	Sololá	701	Sololá	2	El tablón	9	Septiembre	2023-09-17T00:00:00	2024-11-06T21:00:00	8	Radiación solar	0
178345	7	Sololá	701	Sololá	2	El tablón	9	Septiembre	2023-09-17T00:00:00	2024-11-06T22:00:00	2	Temperatura media	14.6
178346	7	Sololá	701	Sololá	2	El tablón	9	Septiembre	2023-09-17T00:00:00	2024-11-06T22:00:00	4	Temperatura máxima	15.2
178347	7	Sololá	701	Sololá	2	El tablón	9	Septiembre	2023-09-17T00:00:00	2024-11-06T22:00:00	3	Temperatura mínima	14.6
178348	7	Sololá	701	Sololá	2	El tablón	9	Septiembre	2023-09-17T00:00:00	2024-11-06T22:00:00	5	Humedad	88
178349	7	Sololá	701	Sololá	2	El tablón	9	Septiembre	2023-09-17T00:00:00	2024-11-06T22:00:00	6	Velocidad del viento	3.2
178350	7	Sololá	701	Sololá	2	El tablón	9	Septiembre	2023-09-17T00:00:00	2024-11-06T22:00:00	7	Dirección del viento	3.22
178351	7	Sololá	701	Sololá	2	El tablón	9	Septiembre	2023-09-17T00:00:00	2024-11-06T22:00:00	1	Precipitación	1.4
178352	7	Sololá	701	Sololá	2	El tablón	9	Septiembre	2023-09-17T00:00:00	2024-11-06T22:00:00	8	Radiación solar	0
178353	7	Sololá	701	Sololá	2	El tablón	9	Septiembre	2023-09-17T00:00:00	2024-11-06T23:00:00	2	Temperatura media	14.1
178354	7	Sololá	701	Sololá	2	El tablón	9	Septiembre	2023-09-17T00:00:00	2024-11-06T23:00:00	4	Temperatura máxima	14.6
178355	7	Sololá	701	Sololá	2	El tablón	9	Septiembre	2023-09-17T00:00:00	2024-11-06T23:00:00	3	Temperatura mínima	14.1
178356	7	Sololá	701	Sololá	2	El tablón	9	Septiembre	2023-09-17T00:00:00	2024-11-06T23:00:00	5	Humedad	88
178357	7	Sololá	701	Sololá	2	El tablón	9	Septiembre	2023-09-17T00:00:00	2024-11-06T23:00:00	6	Velocidad del viento	3.2
178358	7	Sololá	701	Sololá	2	El tablón	9	Septiembre	2023-09-17T00:00:00	2024-11-06T23:00:00	7	Dirección del viento	3.22
178359	7	Sololá	701	Sololá	2	El tablón	9	Septiembre	2023-09-17T00:00:00	2024-11-06T23:00:00	1	Precipitación	0.2
178360	7	Sololá	701	Sololá	2	El tablón	9	Septiembre	2023-09-17T00:00:00	2024-11-06T23:00:00	8	Radiación solar	0
178361	7	Sololá	701	Sololá	2	El tablón	9	Septiembre	2023-09-18T00:00:00	2024-11-06T00:00:00	2	Temperatura media	13.3
178362	7	Sololá	701	Sololá	2	El tablón	9	Septiembre	2023-09-18T00:00:00	2024-11-06T00:00:00	4	Temperatura máxima	14.1
178363	7	Sololá	701	Sololá	2	El tablón	9	Septiembre	2023-09-18T00:00:00	2024-11-06T00:00:00	3	Temperatura mínima	13.2
178364	7	Sololá	701	Sololá	2	El tablón	9	Septiembre	2023-09-18T00:00:00	2024-11-06T00:00:00	5	Humedad	88
178365	7	Sololá	701	Sololá	2	El tablón	9	Septiembre	2023-09-18T00:00:00	2024-11-06T00:00:00	6	Velocidad del viento	3.2
178366	7	Sololá	701	Sololá	2	El tablón	9	Septiembre	2023-09-18T00:00:00	2024-11-06T00:00:00	7	Dirección del viento	3.22
178367	7	Sololá	701	Sololá	2	El tablón	9	Septiembre	2023-09-18T00:00:00	2024-11-06T00:00:00	1	Precipitación	1.2
178368	7	Sololá	701	Sololá	2	El tablón	9	Septiembre	2023-09-18T00:00:00	2024-11-06T00:00:00	8	Radiación solar	0
178369	7	Sololá	701	Sololá	2	El tablón	9	Septiembre	2023-09-18T00:00:00	2024-11-06T01:00:00	2	Temperatura media	12.8
178370	7	Sololá	701	Sololá	2	El tablón	9	Septiembre	2023-09-18T00:00:00	2024-11-06T01:00:00	4	Temperatura máxima	13.3
178371	7	Sololá	701	Sololá	2	El tablón	9	Septiembre	2023-09-18T00:00:00	2024-11-06T01:00:00	3	Temperatura mínima	12.7
178372	7	Sololá	701	Sololá	2	El tablón	9	Septiembre	2023-09-18T00:00:00	2024-11-06T01:00:00	5	Humedad	88
178373	7	Sololá	701	Sololá	2	El tablón	9	Septiembre	2023-09-18T00:00:00	2024-11-06T01:00:00	6	Velocidad del viento	6.4
178374	7	Sololá	701	Sololá	2	El tablón	9	Septiembre	2023-09-18T00:00:00	2024-11-06T01:00:00	7	Dirección del viento	6.44
178375	7	Sololá	701	Sololá	2	El tablón	9	Septiembre	2023-09-18T00:00:00	2024-11-06T01:00:00	1	Precipitación	0
178376	7	Sololá	701	Sololá	2	El tablón	9	Septiembre	2023-09-18T00:00:00	2024-11-06T01:00:00	8	Radiación solar	0
178377	7	Sololá	701	Sololá	2	El tablón	9	Septiembre	2023-09-18T00:00:00	2024-11-06T02:00:00	2	Temperatura media	12.7
178378	7	Sololá	701	Sololá	2	El tablón	9	Septiembre	2023-09-18T00:00:00	2024-11-06T02:00:00	4	Temperatura máxima	12.8
178379	7	Sololá	701	Sololá	2	El tablón	9	Septiembre	2023-09-18T00:00:00	2024-11-06T02:00:00	3	Temperatura mínima	12.7
178380	7	Sololá	701	Sololá	2	El tablón	9	Septiembre	2023-09-18T00:00:00	2024-11-06T02:00:00	5	Humedad	81
178381	7	Sololá	701	Sololá	2	El tablón	9	Septiembre	2023-09-18T00:00:00	2024-11-06T02:00:00	6	Velocidad del viento	9.7
178382	7	Sololá	701	Sololá	2	El tablón	9	Septiembre	2023-09-18T00:00:00	2024-11-06T02:00:00	7	Dirección del viento	9.66
178383	7	Sololá	701	Sololá	2	El tablón	9	Septiembre	2023-09-18T00:00:00	2024-11-06T02:00:00	1	Precipitación	0
178384	7	Sololá	701	Sololá	2	El tablón	9	Septiembre	2023-09-18T00:00:00	2024-11-06T02:00:00	8	Radiación solar	0
178385	7	Sololá	701	Sololá	2	El tablón	9	Septiembre	2023-09-18T00:00:00	2024-11-06T03:00:00	2	Temperatura media	12.5
178386	7	Sololá	701	Sololá	2	El tablón	9	Septiembre	2023-09-18T00:00:00	2024-11-06T03:00:00	4	Temperatura máxima	12.8
178387	7	Sololá	701	Sololá	2	El tablón	9	Septiembre	2023-09-18T00:00:00	2024-11-06T03:00:00	3	Temperatura mínima	12.5
178388	7	Sololá	701	Sololá	2	El tablón	9	Septiembre	2023-09-18T00:00:00	2024-11-06T03:00:00	5	Humedad	85
178389	7	Sololá	701	Sololá	2	El tablón	9	Septiembre	2023-09-18T00:00:00	2024-11-06T03:00:00	6	Velocidad del viento	9.7
178390	7	Sololá	701	Sololá	2	El tablón	9	Septiembre	2023-09-18T00:00:00	2024-11-06T03:00:00	7	Dirección del viento	9.66
178391	7	Sololá	701	Sololá	2	El tablón	9	Septiembre	2023-09-18T00:00:00	2024-11-06T03:00:00	1	Precipitación	0
178392	7	Sololá	701	Sololá	2	El tablón	9	Septiembre	2023-09-18T00:00:00	2024-11-06T03:00:00	8	Radiación solar	0
178393	7	Sololá	701	Sololá	2	El tablón	9	Septiembre	2023-09-18T00:00:00	2024-11-06T04:00:00	2	Temperatura media	12.3
178394	7	Sololá	701	Sololá	2	El tablón	9	Septiembre	2023-09-18T00:00:00	2024-11-06T04:00:00	4	Temperatura máxima	12.5
178395	7	Sololá	701	Sololá	2	El tablón	9	Septiembre	2023-09-18T00:00:00	2024-11-06T04:00:00	3	Temperatura mínima	12.3
178396	7	Sololá	701	Sololá	2	El tablón	9	Septiembre	2023-09-18T00:00:00	2024-11-06T04:00:00	5	Humedad	86
178397	7	Sololá	701	Sololá	2	El tablón	9	Septiembre	2023-09-18T00:00:00	2024-11-06T04:00:00	6	Velocidad del viento	12.9
178398	7	Sololá	701	Sololá	2	El tablón	9	Septiembre	2023-09-18T00:00:00	2024-11-06T04:00:00	7	Dirección del viento	12.87
178399	7	Sololá	701	Sololá	2	El tablón	9	Septiembre	2023-09-18T00:00:00	2024-11-06T04:00:00	1	Precipitación	0
178400	7	Sololá	701	Sololá	2	El tablón	9	Septiembre	2023-09-18T00:00:00	2024-11-06T04:00:00	8	Radiación solar	0
178401	7	Sololá	701	Sololá	2	El tablón	9	Septiembre	2023-09-18T00:00:00	2024-11-06T05:00:00	2	Temperatura media	12.3
178402	7	Sololá	701	Sololá	2	El tablón	9	Septiembre	2023-09-18T00:00:00	2024-11-06T05:00:00	4	Temperatura máxima	12.5
178403	7	Sololá	701	Sololá	2	El tablón	9	Septiembre	2023-09-18T00:00:00	2024-11-06T05:00:00	3	Temperatura mínima	12.3
178404	7	Sololá	701	Sololá	2	El tablón	9	Septiembre	2023-09-18T00:00:00	2024-11-06T05:00:00	5	Humedad	87
178405	7	Sololá	701	Sololá	2	El tablón	9	Septiembre	2023-09-18T00:00:00	2024-11-06T05:00:00	6	Velocidad del viento	17.7
178406	7	Sololá	701	Sololá	2	El tablón	9	Septiembre	2023-09-18T00:00:00	2024-11-06T05:00:00	7	Dirección del viento	17.7
178407	7	Sololá	701	Sololá	2	El tablón	9	Septiembre	2023-09-18T00:00:00	2024-11-06T05:00:00	1	Precipitación	0
178408	7	Sololá	701	Sololá	2	El tablón	9	Septiembre	2023-09-18T00:00:00	2024-11-06T05:00:00	8	Radiación solar	0
178409	7	Sololá	701	Sololá	2	El tablón	9	Septiembre	2023-09-18T00:00:00	2024-11-06T06:00:00	2	Temperatura media	12.3
178410	7	Sololá	701	Sololá	2	El tablón	9	Septiembre	2023-09-18T00:00:00	2024-11-06T06:00:00	4	Temperatura máxima	12.3
178411	7	Sololá	701	Sololá	2	El tablón	9	Septiembre	2023-09-18T00:00:00	2024-11-06T06:00:00	3	Temperatura mínima	12.2
178412	7	Sololá	701	Sololá	2	El tablón	9	Septiembre	2023-09-18T00:00:00	2024-11-06T06:00:00	5	Humedad	85
178413	7	Sololá	701	Sololá	2	El tablón	9	Septiembre	2023-09-18T00:00:00	2024-11-06T06:00:00	6	Velocidad del viento	17.7
178414	7	Sololá	701	Sololá	2	El tablón	9	Septiembre	2023-09-18T00:00:00	2024-11-06T06:00:00	7	Dirección del viento	17.7
178415	7	Sololá	701	Sololá	2	El tablón	9	Septiembre	2023-09-18T00:00:00	2024-11-06T06:00:00	1	Precipitación	0
178416	7	Sololá	701	Sololá	2	El tablón	9	Septiembre	2023-09-18T00:00:00	2024-11-06T06:00:00	8	Radiación solar	0
178417	7	Sololá	701	Sololá	2	El tablón	9	Septiembre	2023-09-18T00:00:00	2024-11-06T07:00:00	2	Temperatura media	12.9
178418	7	Sololá	701	Sololá	2	El tablón	9	Septiembre	2023-09-18T00:00:00	2024-11-06T07:00:00	4	Temperatura máxima	12.9
178419	7	Sololá	701	Sololá	2	El tablón	9	Septiembre	2023-09-18T00:00:00	2024-11-06T07:00:00	3	Temperatura mínima	12.3
178420	7	Sololá	701	Sololá	2	El tablón	9	Septiembre	2023-09-18T00:00:00	2024-11-06T07:00:00	5	Humedad	85
178421	7	Sololá	701	Sololá	2	El tablón	9	Septiembre	2023-09-18T00:00:00	2024-11-06T07:00:00	6	Velocidad del viento	16.1
178422	7	Sololá	701	Sololá	2	El tablón	9	Septiembre	2023-09-18T00:00:00	2024-11-06T07:00:00	7	Dirección del viento	16.09
178423	7	Sololá	701	Sololá	2	El tablón	9	Septiembre	2023-09-18T00:00:00	2024-11-06T07:00:00	1	Precipitación	0
178424	7	Sololá	701	Sololá	2	El tablón	9	Septiembre	2023-09-18T00:00:00	2024-11-06T07:00:00	8	Radiación solar	55
178425	7	Sololá	701	Sololá	2	El tablón	9	Septiembre	2023-09-18T00:00:00	2024-11-06T08:00:00	2	Temperatura media	13.8
178426	7	Sololá	701	Sololá	2	El tablón	9	Septiembre	2023-09-18T00:00:00	2024-11-06T08:00:00	4	Temperatura máxima	13.8
178427	7	Sololá	701	Sololá	2	El tablón	9	Septiembre	2023-09-18T00:00:00	2024-11-06T08:00:00	3	Temperatura mínima	12.8
178428	7	Sololá	701	Sololá	2	El tablón	9	Septiembre	2023-09-18T00:00:00	2024-11-06T08:00:00	5	Humedad	82
178429	7	Sololá	701	Sololá	2	El tablón	9	Septiembre	2023-09-18T00:00:00	2024-11-06T08:00:00	6	Velocidad del viento	16.1
178430	7	Sololá	701	Sololá	2	El tablón	9	Septiembre	2023-09-18T00:00:00	2024-11-06T08:00:00	7	Dirección del viento	16.09
178431	7	Sololá	701	Sololá	2	El tablón	9	Septiembre	2023-09-18T00:00:00	2024-11-06T08:00:00	1	Precipitación	0
178432	7	Sololá	701	Sololá	2	El tablón	9	Septiembre	2023-09-18T00:00:00	2024-11-06T08:00:00	8	Radiación solar	172
178433	7	Sololá	701	Sololá	2	El tablón	9	Septiembre	2023-09-18T00:00:00	2024-11-06T09:00:00	2	Temperatura media	16.3
178434	7	Sololá	701	Sololá	2	El tablón	9	Septiembre	2023-09-18T00:00:00	2024-11-06T09:00:00	4	Temperatura máxima	16.3
178435	7	Sololá	701	Sololá	2	El tablón	9	Septiembre	2023-09-18T00:00:00	2024-11-06T09:00:00	3	Temperatura mínima	13.8
178436	7	Sololá	701	Sololá	2	El tablón	9	Septiembre	2023-09-18T00:00:00	2024-11-06T09:00:00	5	Humedad	68
178437	7	Sololá	701	Sololá	2	El tablón	9	Septiembre	2023-09-18T00:00:00	2024-11-06T09:00:00	6	Velocidad del viento	14.5
178438	7	Sololá	701	Sololá	2	El tablón	9	Septiembre	2023-09-18T00:00:00	2024-11-06T09:00:00	7	Dirección del viento	14.48
178439	7	Sololá	701	Sololá	2	El tablón	9	Septiembre	2023-09-18T00:00:00	2024-11-06T09:00:00	1	Precipitación	0
178440	7	Sololá	701	Sololá	2	El tablón	9	Septiembre	2023-09-18T00:00:00	2024-11-06T09:00:00	8	Radiación solar	451
178441	7	Sololá	701	Sololá	2	El tablón	9	Septiembre	2023-09-18T00:00:00	2024-11-06T10:00:00	2	Temperatura media	18.6
178442	7	Sololá	701	Sololá	2	El tablón	9	Septiembre	2023-09-18T00:00:00	2024-11-06T10:00:00	4	Temperatura máxima	18.6
178443	7	Sololá	701	Sololá	2	El tablón	9	Septiembre	2023-09-18T00:00:00	2024-11-06T10:00:00	3	Temperatura mínima	16.3
178444	7	Sololá	701	Sololá	2	El tablón	9	Septiembre	2023-09-18T00:00:00	2024-11-06T10:00:00	5	Humedad	64
178445	7	Sololá	701	Sololá	2	El tablón	9	Septiembre	2023-09-18T00:00:00	2024-11-06T10:00:00	6	Velocidad del viento	12.9
178446	7	Sololá	701	Sololá	2	El tablón	9	Septiembre	2023-09-18T00:00:00	2024-11-06T10:00:00	7	Dirección del viento	12.87
178447	7	Sololá	701	Sololá	2	El tablón	9	Septiembre	2023-09-18T00:00:00	2024-11-06T10:00:00	1	Precipitación	0
178448	7	Sololá	701	Sololá	2	El tablón	9	Septiembre	2023-09-18T00:00:00	2024-11-06T10:00:00	8	Radiación solar	587
178449	7	Sololá	701	Sololá	2	El tablón	9	Septiembre	2023-09-18T00:00:00	2024-11-06T11:00:00	2	Temperatura media	19.4
178450	7	Sololá	701	Sololá	2	El tablón	9	Septiembre	2023-09-18T00:00:00	2024-11-06T11:00:00	4	Temperatura máxima	19.6
178451	7	Sololá	701	Sololá	2	El tablón	9	Septiembre	2023-09-18T00:00:00	2024-11-06T11:00:00	3	Temperatura mínima	18.4
178452	7	Sololá	701	Sololá	2	El tablón	9	Septiembre	2023-09-18T00:00:00	2024-11-06T11:00:00	5	Humedad	62
178453	7	Sololá	701	Sololá	2	El tablón	9	Septiembre	2023-09-18T00:00:00	2024-11-06T11:00:00	6	Velocidad del viento	9.7
178454	7	Sololá	701	Sololá	2	El tablón	9	Septiembre	2023-09-18T00:00:00	2024-11-06T11:00:00	7	Dirección del viento	9.66
178455	7	Sololá	701	Sololá	2	El tablón	9	Septiembre	2023-09-18T00:00:00	2024-11-06T11:00:00	1	Precipitación	0
178456	7	Sololá	701	Sololá	2	El tablón	9	Septiembre	2023-09-18T00:00:00	2024-11-06T11:00:00	8	Radiación solar	815
178457	7	Sololá	701	Sololá	2	El tablón	9	Septiembre	2023-09-18T00:00:00	2024-11-06T12:00:00	2	Temperatura media	19.1
178458	7	Sololá	701	Sololá	2	El tablón	9	Septiembre	2023-09-18T00:00:00	2024-11-06T12:00:00	4	Temperatura máxima	20.3
178459	7	Sololá	701	Sololá	2	El tablón	9	Septiembre	2023-09-18T00:00:00	2024-11-06T12:00:00	3	Temperatura mínima	19.1
178460	7	Sololá	701	Sololá	2	El tablón	9	Septiembre	2023-09-18T00:00:00	2024-11-06T12:00:00	5	Humedad	73
178461	7	Sololá	701	Sololá	2	El tablón	9	Septiembre	2023-09-18T00:00:00	2024-11-06T12:00:00	6	Velocidad del viento	6.4
178462	7	Sololá	701	Sololá	2	El tablón	9	Septiembre	2023-09-18T00:00:00	2024-11-06T12:00:00	7	Dirección del viento	6.44
178463	7	Sololá	701	Sololá	2	El tablón	9	Septiembre	2023-09-18T00:00:00	2024-11-06T12:00:00	1	Precipitación	0
178464	7	Sololá	701	Sololá	2	El tablón	9	Septiembre	2023-09-18T00:00:00	2024-11-06T12:00:00	8	Radiación solar	557
178465	7	Sololá	701	Sololá	2	El tablón	9	Septiembre	2023-09-18T00:00:00	2024-11-06T13:00:00	2	Temperatura media	17.7
178466	7	Sololá	701	Sololá	2	El tablón	9	Septiembre	2023-09-18T00:00:00	2024-11-06T13:00:00	4	Temperatura máxima	19.1
178467	7	Sololá	701	Sololá	2	El tablón	9	Septiembre	2023-09-18T00:00:00	2024-11-06T13:00:00	3	Temperatura mínima	17.4
178468	7	Sololá	701	Sololá	2	El tablón	9	Septiembre	2023-09-18T00:00:00	2024-11-06T13:00:00	5	Humedad	84
178469	7	Sololá	701	Sololá	2	El tablón	9	Septiembre	2023-09-18T00:00:00	2024-11-06T13:00:00	6	Velocidad del viento	4.8
178470	7	Sololá	701	Sololá	2	El tablón	9	Septiembre	2023-09-18T00:00:00	2024-11-06T13:00:00	7	Dirección del viento	4.83
178471	7	Sololá	701	Sololá	2	El tablón	9	Septiembre	2023-09-18T00:00:00	2024-11-06T13:00:00	1	Precipitación	0
178472	7	Sololá	701	Sololá	2	El tablón	9	Septiembre	2023-09-18T00:00:00	2024-11-06T13:00:00	8	Radiación solar	321
178473	7	Sololá	701	Sololá	2	El tablón	9	Septiembre	2023-09-18T00:00:00	2024-11-06T14:00:00	2	Temperatura media	17.9
178474	7	Sololá	701	Sololá	2	El tablón	9	Septiembre	2023-09-18T00:00:00	2024-11-06T14:00:00	4	Temperatura máxima	18.8
178475	7	Sololá	701	Sololá	2	El tablón	9	Septiembre	2023-09-18T00:00:00	2024-11-06T14:00:00	3	Temperatura mínima	17.6
178476	7	Sololá	701	Sololá	2	El tablón	9	Septiembre	2023-09-18T00:00:00	2024-11-06T14:00:00	5	Humedad	84
178477	7	Sololá	701	Sololá	2	El tablón	9	Septiembre	2023-09-18T00:00:00	2024-11-06T14:00:00	6	Velocidad del viento	4.8
178478	7	Sololá	701	Sololá	2	El tablón	9	Septiembre	2023-09-18T00:00:00	2024-11-06T14:00:00	7	Dirección del viento	4.83
178479	7	Sololá	701	Sololá	2	El tablón	9	Septiembre	2023-09-18T00:00:00	2024-11-06T14:00:00	1	Precipitación	0
178480	7	Sololá	701	Sololá	2	El tablón	9	Septiembre	2023-09-18T00:00:00	2024-11-06T14:00:00	8	Radiación solar	454
178481	7	Sololá	701	Sololá	2	El tablón	9	Septiembre	2023-09-18T00:00:00	2024-11-06T15:00:00	2	Temperatura media	18.3
178482	7	Sololá	701	Sololá	2	El tablón	9	Septiembre	2023-09-18T00:00:00	2024-11-06T15:00:00	4	Temperatura máxima	19.4
178483	7	Sololá	701	Sololá	2	El tablón	9	Septiembre	2023-09-18T00:00:00	2024-11-06T15:00:00	3	Temperatura mínima	17.9
178484	7	Sololá	701	Sololá	2	El tablón	9	Septiembre	2023-09-18T00:00:00	2024-11-06T15:00:00	5	Humedad	73
178485	7	Sololá	701	Sololá	2	El tablón	9	Septiembre	2023-09-18T00:00:00	2024-11-06T15:00:00	6	Velocidad del viento	6.4
178486	7	Sololá	701	Sololá	2	El tablón	9	Septiembre	2023-09-18T00:00:00	2024-11-06T15:00:00	7	Dirección del viento	6.44
178487	7	Sololá	701	Sololá	2	El tablón	9	Septiembre	2023-09-18T00:00:00	2024-11-06T15:00:00	1	Precipitación	0
178488	7	Sololá	701	Sololá	2	El tablón	9	Septiembre	2023-09-18T00:00:00	2024-11-06T15:00:00	8	Radiación solar	381
178489	7	Sololá	701	Sololá	2	El tablón	9	Septiembre	2023-09-18T00:00:00	2024-11-06T16:00:00	2	Temperatura media	16.9
178490	7	Sololá	701	Sololá	2	El tablón	9	Septiembre	2023-09-18T00:00:00	2024-11-06T16:00:00	4	Temperatura máxima	18.3
178491	7	Sololá	701	Sololá	2	El tablón	9	Septiembre	2023-09-18T00:00:00	2024-11-06T16:00:00	3	Temperatura mínima	16.9
178492	7	Sololá	701	Sololá	2	El tablón	9	Septiembre	2023-09-18T00:00:00	2024-11-06T16:00:00	5	Humedad	86
178493	7	Sololá	701	Sololá	2	El tablón	9	Septiembre	2023-09-18T00:00:00	2024-11-06T16:00:00	6	Velocidad del viento	4.8
178494	7	Sololá	701	Sololá	2	El tablón	9	Septiembre	2023-09-18T00:00:00	2024-11-06T16:00:00	7	Dirección del viento	4.83
178495	7	Sololá	701	Sololá	2	El tablón	9	Septiembre	2023-09-18T00:00:00	2024-11-06T16:00:00	1	Precipitación	0
178496	7	Sololá	701	Sololá	2	El tablón	9	Septiembre	2023-09-18T00:00:00	2024-11-06T16:00:00	8	Radiación solar	149
178497	7	Sololá	701	Sololá	2	El tablón	9	Septiembre	2023-09-18T00:00:00	2024-11-06T17:00:00	2	Temperatura media	16.4
178498	7	Sololá	701	Sololá	2	El tablón	9	Septiembre	2023-09-18T00:00:00	2024-11-06T17:00:00	4	Temperatura máxima	16.9
178499	7	Sololá	701	Sololá	2	El tablón	9	Septiembre	2023-09-18T00:00:00	2024-11-06T17:00:00	3	Temperatura mínima	16.4
178500	7	Sololá	701	Sololá	2	El tablón	9	Septiembre	2023-09-18T00:00:00	2024-11-06T17:00:00	5	Humedad	85
178501	7	Sololá	701	Sololá	2	El tablón	9	Septiembre	2023-09-18T00:00:00	2024-11-06T17:00:00	6	Velocidad del viento	3.2
178502	7	Sololá	701	Sololá	2	El tablón	9	Septiembre	2023-09-18T00:00:00	2024-11-06T17:00:00	7	Dirección del viento	3.22
178503	7	Sololá	701	Sololá	2	El tablón	9	Septiembre	2023-09-18T00:00:00	2024-11-06T17:00:00	1	Precipitación	0
178504	7	Sololá	701	Sololá	2	El tablón	9	Septiembre	2023-09-18T00:00:00	2024-11-06T17:00:00	8	Radiación solar	97
178505	7	Sololá	701	Sololá	2	El tablón	9	Septiembre	2023-09-18T00:00:00	2024-11-06T18:00:00	2	Temperatura media	15.6
178506	7	Sololá	701	Sololá	2	El tablón	9	Septiembre	2023-09-18T00:00:00	2024-11-06T18:00:00	4	Temperatura máxima	16.4
178507	7	Sololá	701	Sololá	2	El tablón	9	Septiembre	2023-09-18T00:00:00	2024-11-06T18:00:00	3	Temperatura mínima	15.6
178508	7	Sololá	701	Sololá	2	El tablón	9	Septiembre	2023-09-18T00:00:00	2024-11-06T18:00:00	5	Humedad	82
178509	7	Sololá	701	Sololá	2	El tablón	9	Septiembre	2023-09-18T00:00:00	2024-11-06T18:00:00	6	Velocidad del viento	1.6
178510	7	Sololá	701	Sololá	2	El tablón	9	Septiembre	2023-09-18T00:00:00	2024-11-06T18:00:00	7	Dirección del viento	1.61
178511	7	Sololá	701	Sololá	2	El tablón	9	Septiembre	2023-09-18T00:00:00	2024-11-06T18:00:00	1	Precipitación	0
178512	7	Sololá	701	Sololá	2	El tablón	9	Septiembre	2023-09-18T00:00:00	2024-11-06T18:00:00	8	Radiación solar	18
178513	7	Sololá	701	Sololá	2	El tablón	9	Septiembre	2023-09-18T00:00:00	2024-11-06T19:00:00	2	Temperatura media	14.7
178514	7	Sololá	701	Sololá	2	El tablón	9	Septiembre	2023-09-18T00:00:00	2024-11-06T19:00:00	4	Temperatura máxima	15.6
178515	7	Sololá	701	Sololá	2	El tablón	9	Septiembre	2023-09-18T00:00:00	2024-11-06T19:00:00	3	Temperatura mínima	14.7
178516	7	Sololá	701	Sololá	2	El tablón	9	Septiembre	2023-09-18T00:00:00	2024-11-06T19:00:00	5	Humedad	85
178517	7	Sololá	701	Sololá	2	El tablón	9	Septiembre	2023-09-18T00:00:00	2024-11-06T19:00:00	6	Velocidad del viento	3.2
178518	7	Sololá	701	Sololá	2	El tablón	9	Septiembre	2023-09-18T00:00:00	2024-11-06T19:00:00	7	Dirección del viento	3.22
178519	7	Sololá	701	Sololá	2	El tablón	9	Septiembre	2023-09-18T00:00:00	2024-11-06T19:00:00	1	Precipitación	0
178520	7	Sololá	701	Sololá	2	El tablón	9	Septiembre	2023-09-18T00:00:00	2024-11-06T19:00:00	8	Radiación solar	0
178521	7	Sololá	701	Sololá	2	El tablón	9	Septiembre	2023-09-18T00:00:00	2024-11-06T20:00:00	2	Temperatura media	14.3
178522	7	Sololá	701	Sololá	2	El tablón	9	Septiembre	2023-09-18T00:00:00	2024-11-06T20:00:00	4	Temperatura máxima	14.7
178523	7	Sololá	701	Sololá	2	El tablón	9	Septiembre	2023-09-18T00:00:00	2024-11-06T20:00:00	3	Temperatura mínima	14.3
178524	7	Sololá	701	Sololá	2	El tablón	9	Septiembre	2023-09-18T00:00:00	2024-11-06T20:00:00	5	Humedad	87
178525	7	Sololá	701	Sololá	2	El tablón	9	Septiembre	2023-09-18T00:00:00	2024-11-06T20:00:00	6	Velocidad del viento	3.2
178526	7	Sololá	701	Sololá	2	El tablón	9	Septiembre	2023-09-18T00:00:00	2024-11-06T20:00:00	7	Dirección del viento	3.22
178527	7	Sololá	701	Sololá	2	El tablón	9	Septiembre	2023-09-18T00:00:00	2024-11-06T20:00:00	1	Precipitación	0.6
178528	7	Sololá	701	Sololá	2	El tablón	9	Septiembre	2023-09-18T00:00:00	2024-11-06T20:00:00	8	Radiación solar	0
178529	7	Sololá	701	Sololá	2	El tablón	9	Septiembre	2023-09-18T00:00:00	2024-11-06T21:00:00	2	Temperatura media	13.6
178530	7	Sololá	701	Sololá	2	El tablón	9	Septiembre	2023-09-18T00:00:00	2024-11-06T21:00:00	4	Temperatura máxima	14.3
178531	7	Sololá	701	Sololá	2	El tablón	9	Septiembre	2023-09-18T00:00:00	2024-11-06T21:00:00	3	Temperatura mínima	13.6
178532	7	Sololá	701	Sololá	2	El tablón	9	Septiembre	2023-09-18T00:00:00	2024-11-06T21:00:00	5	Humedad	88
178533	7	Sololá	701	Sololá	2	El tablón	9	Septiembre	2023-09-18T00:00:00	2024-11-06T21:00:00	6	Velocidad del viento	4.8
178534	7	Sololá	701	Sololá	2	El tablón	9	Septiembre	2023-09-18T00:00:00	2024-11-06T21:00:00	7	Dirección del viento	4.83
178535	7	Sololá	701	Sololá	2	El tablón	9	Septiembre	2023-09-18T00:00:00	2024-11-06T21:00:00	1	Precipitación	0.2
178536	7	Sololá	701	Sololá	2	El tablón	9	Septiembre	2023-09-18T00:00:00	2024-11-06T21:00:00	8	Radiación solar	0
178537	7	Sololá	701	Sololá	2	El tablón	9	Septiembre	2023-09-18T00:00:00	2024-11-06T22:00:00	2	Temperatura media	13.3
178538	7	Sololá	701	Sololá	2	El tablón	9	Septiembre	2023-09-18T00:00:00	2024-11-06T22:00:00	4	Temperatura máxima	13.6
178539	7	Sololá	701	Sololá	2	El tablón	9	Septiembre	2023-09-18T00:00:00	2024-11-06T22:00:00	3	Temperatura mínima	13.2
178540	7	Sololá	701	Sololá	2	El tablón	9	Septiembre	2023-09-18T00:00:00	2024-11-06T22:00:00	5	Humedad	88
178541	7	Sololá	701	Sololá	2	El tablón	9	Septiembre	2023-09-18T00:00:00	2024-11-06T22:00:00	6	Velocidad del viento	6.4
178542	7	Sololá	701	Sololá	2	El tablón	9	Septiembre	2023-09-18T00:00:00	2024-11-06T22:00:00	7	Dirección del viento	6.44
178543	7	Sololá	701	Sololá	2	El tablón	9	Septiembre	2023-09-18T00:00:00	2024-11-06T22:00:00	1	Precipitación	0
178544	7	Sololá	701	Sololá	2	El tablón	9	Septiembre	2023-09-18T00:00:00	2024-11-06T22:00:00	8	Radiación solar	0
178545	7	Sololá	701	Sololá	2	El tablón	9	Septiembre	2023-09-18T00:00:00	2024-11-06T23:00:00	2	Temperatura media	13.2
178546	7	Sololá	701	Sololá	2	El tablón	9	Septiembre	2023-09-18T00:00:00	2024-11-06T23:00:00	4	Temperatura máxima	13.3
178547	7	Sololá	701	Sololá	2	El tablón	9	Septiembre	2023-09-18T00:00:00	2024-11-06T23:00:00	3	Temperatura mínima	13.1
178548	7	Sololá	701	Sololá	2	El tablón	9	Septiembre	2023-09-18T00:00:00	2024-11-06T23:00:00	5	Humedad	88
178549	7	Sololá	701	Sololá	2	El tablón	9	Septiembre	2023-09-18T00:00:00	2024-11-06T23:00:00	6	Velocidad del viento	6.4
178550	7	Sololá	701	Sololá	2	El tablón	9	Septiembre	2023-09-18T00:00:00	2024-11-06T23:00:00	7	Dirección del viento	6.44
178551	7	Sololá	701	Sololá	2	El tablón	9	Septiembre	2023-09-18T00:00:00	2024-11-06T23:00:00	1	Precipitación	0
178552	7	Sololá	701	Sololá	2	El tablón	9	Septiembre	2023-09-18T00:00:00	2024-11-06T23:00:00	8	Radiación solar	0
178553	7	Sololá	701	Sololá	2	El tablón	9	Septiembre	2023-09-19T00:00:00	2024-11-06T00:00:00	2	Temperatura media	12.9
178554	7	Sololá	701	Sololá	2	El tablón	9	Septiembre	2023-09-19T00:00:00	2024-11-06T00:00:00	4	Temperatura máxima	13.2
178555	7	Sololá	701	Sololá	2	El tablón	9	Septiembre	2023-09-19T00:00:00	2024-11-06T00:00:00	3	Temperatura mínima	12.9
178556	7	Sololá	701	Sololá	2	El tablón	9	Septiembre	2023-09-19T00:00:00	2024-11-06T00:00:00	5	Humedad	88
178557	7	Sololá	701	Sololá	2	El tablón	9	Septiembre	2023-09-19T00:00:00	2024-11-06T00:00:00	6	Velocidad del viento	4.8
178558	7	Sololá	701	Sololá	2	El tablón	9	Septiembre	2023-09-19T00:00:00	2024-11-06T00:00:00	7	Dirección del viento	4.83
178559	7	Sololá	701	Sololá	2	El tablón	9	Septiembre	2023-09-19T00:00:00	2024-11-06T00:00:00	1	Precipitación	0
178560	7	Sololá	701	Sololá	2	El tablón	9	Septiembre	2023-09-19T00:00:00	2024-11-06T00:00:00	8	Radiación solar	0
178561	7	Sololá	701	Sololá	2	El tablón	9	Septiembre	2023-09-19T00:00:00	2024-11-06T01:00:00	2	Temperatura media	12.6
178562	7	Sololá	701	Sololá	2	El tablón	9	Septiembre	2023-09-19T00:00:00	2024-11-06T01:00:00	4	Temperatura máxima	12.9
178563	7	Sololá	701	Sololá	2	El tablón	9	Septiembre	2023-09-19T00:00:00	2024-11-06T01:00:00	3	Temperatura mínima	12.6
178564	7	Sololá	701	Sololá	2	El tablón	9	Septiembre	2023-09-19T00:00:00	2024-11-06T01:00:00	5	Humedad	87
178565	7	Sololá	701	Sololá	2	El tablón	9	Septiembre	2023-09-19T00:00:00	2024-11-06T01:00:00	6	Velocidad del viento	8
178566	7	Sololá	701	Sololá	2	El tablón	9	Septiembre	2023-09-19T00:00:00	2024-11-06T01:00:00	7	Dirección del viento	8.05
178567	7	Sololá	701	Sololá	2	El tablón	9	Septiembre	2023-09-19T00:00:00	2024-11-06T01:00:00	1	Precipitación	0
178568	7	Sololá	701	Sololá	2	El tablón	9	Septiembre	2023-09-19T00:00:00	2024-11-06T01:00:00	8	Radiación solar	0
178569	7	Sololá	701	Sololá	2	El tablón	9	Septiembre	2023-09-19T00:00:00	2024-11-06T02:00:00	2	Temperatura media	12.6
178570	7	Sololá	701	Sololá	2	El tablón	9	Septiembre	2023-09-19T00:00:00	2024-11-06T02:00:00	4	Temperatura máxima	12.8
178571	7	Sololá	701	Sololá	2	El tablón	9	Septiembre	2023-09-19T00:00:00	2024-11-06T02:00:00	3	Temperatura mínima	12.6
178572	7	Sololá	701	Sololá	2	El tablón	9	Septiembre	2023-09-19T00:00:00	2024-11-06T02:00:00	5	Humedad	87
178573	7	Sololá	701	Sololá	2	El tablón	9	Septiembre	2023-09-19T00:00:00	2024-11-06T02:00:00	6	Velocidad del viento	9.7
178574	7	Sololá	701	Sololá	2	El tablón	9	Septiembre	2023-09-19T00:00:00	2024-11-06T02:00:00	7	Dirección del viento	9.66
178575	7	Sololá	701	Sololá	2	El tablón	9	Septiembre	2023-09-19T00:00:00	2024-11-06T02:00:00	1	Precipitación	0
178576	7	Sololá	701	Sololá	2	El tablón	9	Septiembre	2023-09-19T00:00:00	2024-11-06T02:00:00	8	Radiación solar	0
178577	7	Sololá	701	Sololá	2	El tablón	9	Septiembre	2023-09-19T00:00:00	2024-11-06T03:00:00	2	Temperatura media	12.3
178578	7	Sololá	701	Sololá	2	El tablón	9	Septiembre	2023-09-19T00:00:00	2024-11-06T03:00:00	4	Temperatura máxima	12.6
178579	7	Sololá	701	Sololá	2	El tablón	9	Septiembre	2023-09-19T00:00:00	2024-11-06T03:00:00	3	Temperatura mínima	12.3
178580	7	Sololá	701	Sololá	2	El tablón	9	Septiembre	2023-09-19T00:00:00	2024-11-06T03:00:00	5	Humedad	86
178581	7	Sololá	701	Sololá	2	El tablón	9	Septiembre	2023-09-19T00:00:00	2024-11-06T03:00:00	6	Velocidad del viento	11.3
178582	7	Sololá	701	Sololá	2	El tablón	9	Septiembre	2023-09-19T00:00:00	2024-11-06T03:00:00	7	Dirección del viento	11.27
178583	7	Sololá	701	Sololá	2	El tablón	9	Septiembre	2023-09-19T00:00:00	2024-11-06T03:00:00	1	Precipitación	0
178584	7	Sololá	701	Sololá	2	El tablón	9	Septiembre	2023-09-19T00:00:00	2024-11-06T03:00:00	8	Radiación solar	0
178585	7	Sololá	701	Sololá	2	El tablón	9	Septiembre	2023-09-19T00:00:00	2024-11-06T04:00:00	2	Temperatura media	12.2
178586	7	Sololá	701	Sololá	2	El tablón	9	Septiembre	2023-09-19T00:00:00	2024-11-06T04:00:00	4	Temperatura máxima	12.3
178587	7	Sololá	701	Sololá	2	El tablón	9	Septiembre	2023-09-19T00:00:00	2024-11-06T04:00:00	3	Temperatura mínima	12
178588	7	Sololá	701	Sololá	2	El tablón	9	Septiembre	2023-09-19T00:00:00	2024-11-06T04:00:00	5	Humedad	85
178589	7	Sololá	701	Sololá	2	El tablón	9	Septiembre	2023-09-19T00:00:00	2024-11-06T04:00:00	6	Velocidad del viento	12.9
178590	7	Sololá	701	Sololá	2	El tablón	9	Septiembre	2023-09-19T00:00:00	2024-11-06T04:00:00	7	Dirección del viento	12.87
178591	7	Sololá	701	Sololá	2	El tablón	9	Septiembre	2023-09-19T00:00:00	2024-11-06T04:00:00	1	Precipitación	0
178592	7	Sololá	701	Sololá	2	El tablón	9	Septiembre	2023-09-19T00:00:00	2024-11-06T04:00:00	8	Radiación solar	0
178593	7	Sololá	701	Sololá	2	El tablón	9	Septiembre	2023-09-19T00:00:00	2024-11-06T05:00:00	2	Temperatura media	12.2
178594	7	Sololá	701	Sololá	2	El tablón	9	Septiembre	2023-09-19T00:00:00	2024-11-06T05:00:00	4	Temperatura máxima	12.3
178595	7	Sololá	701	Sololá	2	El tablón	9	Septiembre	2023-09-19T00:00:00	2024-11-06T05:00:00	3	Temperatura mínima	12
178596	7	Sololá	701	Sololá	2	El tablón	9	Septiembre	2023-09-19T00:00:00	2024-11-06T05:00:00	5	Humedad	81
178597	7	Sololá	701	Sololá	2	El tablón	9	Septiembre	2023-09-19T00:00:00	2024-11-06T05:00:00	6	Velocidad del viento	14.5
178598	7	Sololá	701	Sololá	2	El tablón	9	Septiembre	2023-09-19T00:00:00	2024-11-06T05:00:00	7	Dirección del viento	14.48
178599	7	Sololá	701	Sololá	2	El tablón	9	Septiembre	2023-09-19T00:00:00	2024-11-06T05:00:00	1	Precipitación	0
178600	7	Sololá	701	Sololá	2	El tablón	9	Septiembre	2023-09-19T00:00:00	2024-11-06T05:00:00	8	Radiación solar	0
178601	7	Sololá	701	Sololá	2	El tablón	9	Septiembre	2023-09-19T00:00:00	2024-11-06T06:00:00	2	Temperatura media	12.2
178602	7	Sololá	701	Sololá	2	El tablón	9	Septiembre	2023-09-19T00:00:00	2024-11-06T06:00:00	4	Temperatura máxima	12.2
178603	7	Sololá	701	Sololá	2	El tablón	9	Septiembre	2023-09-19T00:00:00	2024-11-06T06:00:00	3	Temperatura mínima	12
178604	7	Sololá	701	Sololá	2	El tablón	9	Septiembre	2023-09-19T00:00:00	2024-11-06T06:00:00	5	Humedad	76
178605	7	Sololá	701	Sololá	2	El tablón	9	Septiembre	2023-09-19T00:00:00	2024-11-06T06:00:00	6	Velocidad del viento	12.9
178606	7	Sololá	701	Sololá	2	El tablón	9	Septiembre	2023-09-19T00:00:00	2024-11-06T06:00:00	7	Dirección del viento	12.87
178607	7	Sololá	701	Sololá	2	El tablón	9	Septiembre	2023-09-19T00:00:00	2024-11-06T06:00:00	1	Precipitación	0
178608	7	Sololá	701	Sololá	2	El tablón	9	Septiembre	2023-09-19T00:00:00	2024-11-06T06:00:00	8	Radiación solar	0
178609	7	Sololá	701	Sololá	2	El tablón	9	Septiembre	2023-09-19T00:00:00	2024-11-06T07:00:00	2	Temperatura media	13.6
178610	7	Sololá	701	Sololá	2	El tablón	9	Septiembre	2023-09-19T00:00:00	2024-11-06T07:00:00	4	Temperatura máxima	13.6
178611	7	Sololá	701	Sololá	2	El tablón	9	Septiembre	2023-09-19T00:00:00	2024-11-06T07:00:00	3	Temperatura mínima	12.2
178612	7	Sololá	701	Sololá	2	El tablón	9	Septiembre	2023-09-19T00:00:00	2024-11-06T07:00:00	5	Humedad	69
178613	7	Sololá	701	Sololá	2	El tablón	9	Septiembre	2023-09-19T00:00:00	2024-11-06T07:00:00	6	Velocidad del viento	11.3
178614	7	Sololá	701	Sololá	2	El tablón	9	Septiembre	2023-09-19T00:00:00	2024-11-06T07:00:00	7	Dirección del viento	11.27
178615	7	Sololá	701	Sololá	2	El tablón	9	Septiembre	2023-09-19T00:00:00	2024-11-06T07:00:00	1	Precipitación	0
178616	7	Sololá	701	Sololá	2	El tablón	9	Septiembre	2023-09-19T00:00:00	2024-11-06T07:00:00	8	Radiación solar	77
178617	7	Sololá	701	Sololá	2	El tablón	9	Septiembre	2023-09-19T00:00:00	2024-11-06T08:00:00	2	Temperatura media	15.6
178618	7	Sololá	701	Sololá	2	El tablón	9	Septiembre	2023-09-19T00:00:00	2024-11-06T08:00:00	4	Temperatura máxima	15.6
178619	7	Sololá	701	Sololá	2	El tablón	9	Septiembre	2023-09-19T00:00:00	2024-11-06T08:00:00	3	Temperatura mínima	13.6
178620	7	Sololá	701	Sololá	2	El tablón	9	Septiembre	2023-09-19T00:00:00	2024-11-06T08:00:00	5	Humedad	64
178621	7	Sololá	701	Sololá	2	El tablón	9	Septiembre	2023-09-19T00:00:00	2024-11-06T08:00:00	6	Velocidad del viento	8
178622	7	Sololá	701	Sololá	2	El tablón	9	Septiembre	2023-09-19T00:00:00	2024-11-06T08:00:00	7	Dirección del viento	8.05
178623	7	Sololá	701	Sololá	2	El tablón	9	Septiembre	2023-09-19T00:00:00	2024-11-06T08:00:00	1	Precipitación	0
178624	7	Sololá	701	Sololá	2	El tablón	9	Septiembre	2023-09-19T00:00:00	2024-11-06T08:00:00	8	Radiación solar	273
178625	7	Sololá	701	Sololá	2	El tablón	9	Septiembre	2023-09-19T00:00:00	2024-11-06T09:00:00	2	Temperatura media	17.4
178626	7	Sololá	701	Sololá	2	El tablón	9	Septiembre	2023-09-19T00:00:00	2024-11-06T09:00:00	4	Temperatura máxima	17.4
178627	7	Sololá	701	Sololá	2	El tablón	9	Septiembre	2023-09-19T00:00:00	2024-11-06T09:00:00	3	Temperatura mínima	15.6
178628	7	Sololá	701	Sololá	2	El tablón	9	Septiembre	2023-09-19T00:00:00	2024-11-06T09:00:00	5	Humedad	54
178629	7	Sololá	701	Sololá	2	El tablón	9	Septiembre	2023-09-19T00:00:00	2024-11-06T09:00:00	6	Velocidad del viento	9.7
178630	7	Sololá	701	Sololá	2	El tablón	9	Septiembre	2023-09-19T00:00:00	2024-11-06T09:00:00	7	Dirección del viento	9.66
178631	7	Sololá	701	Sololá	2	El tablón	9	Septiembre	2023-09-19T00:00:00	2024-11-06T09:00:00	1	Precipitación	0
178632	7	Sololá	701	Sololá	2	El tablón	9	Septiembre	2023-09-19T00:00:00	2024-11-06T09:00:00	8	Radiación solar	495
178633	7	Sololá	701	Sololá	2	El tablón	9	Septiembre	2023-09-19T00:00:00	2024-11-06T10:00:00	2	Temperatura media	18.8
178634	7	Sololá	701	Sololá	2	El tablón	9	Septiembre	2023-09-19T00:00:00	2024-11-06T10:00:00	4	Temperatura máxima	18.9
178635	7	Sololá	701	Sololá	2	El tablón	9	Septiembre	2023-09-19T00:00:00	2024-11-06T10:00:00	3	Temperatura mínima	17.1
178636	7	Sololá	701	Sololá	2	El tablón	9	Septiembre	2023-09-19T00:00:00	2024-11-06T10:00:00	5	Humedad	51
178637	7	Sololá	701	Sololá	2	El tablón	9	Septiembre	2023-09-19T00:00:00	2024-11-06T10:00:00	6	Velocidad del viento	4.8
178638	7	Sololá	701	Sololá	2	El tablón	9	Septiembre	2023-09-19T00:00:00	2024-11-06T10:00:00	7	Dirección del viento	4.83
178639	7	Sololá	701	Sololá	2	El tablón	9	Septiembre	2023-09-19T00:00:00	2024-11-06T10:00:00	1	Precipitación	0.4
178640	7	Sololá	701	Sololá	2	El tablón	9	Septiembre	2023-09-19T00:00:00	2024-11-06T10:00:00	8	Radiación solar	619
178641	7	Sololá	701	Sololá	2	El tablón	9	Septiembre	2023-09-19T00:00:00	2024-11-06T11:00:00	2	Temperatura media	19.3
178642	7	Sololá	701	Sololá	2	El tablón	9	Septiembre	2023-09-19T00:00:00	2024-11-06T11:00:00	4	Temperatura máxima	19.3
178643	7	Sololá	701	Sololá	2	El tablón	9	Septiembre	2023-09-19T00:00:00	2024-11-06T11:00:00	3	Temperatura mínima	18.6
178644	7	Sololá	701	Sololá	2	El tablón	9	Septiembre	2023-09-19T00:00:00	2024-11-06T11:00:00	5	Humedad	52
178645	7	Sololá	701	Sololá	2	El tablón	9	Septiembre	2023-09-19T00:00:00	2024-11-06T11:00:00	6	Velocidad del viento	9.7
178646	7	Sololá	701	Sololá	2	El tablón	9	Septiembre	2023-09-19T00:00:00	2024-11-06T11:00:00	7	Dirección del viento	9.66
178647	7	Sololá	701	Sololá	2	El tablón	9	Septiembre	2023-09-19T00:00:00	2024-11-06T11:00:00	1	Precipitación	0
178648	7	Sololá	701	Sololá	2	El tablón	9	Septiembre	2023-09-19T00:00:00	2024-11-06T11:00:00	8	Radiación solar	837
178649	7	Sololá	701	Sololá	2	El tablón	9	Septiembre	2023-09-19T00:00:00	2024-11-06T12:00:00	2	Temperatura media	20.4
178650	7	Sololá	701	Sololá	2	El tablón	9	Septiembre	2023-09-19T00:00:00	2024-11-06T12:00:00	4	Temperatura máxima	20.5
178651	7	Sololá	701	Sololá	2	El tablón	9	Septiembre	2023-09-19T00:00:00	2024-11-06T12:00:00	3	Temperatura mínima	19.3
178652	7	Sololá	701	Sololá	2	El tablón	9	Septiembre	2023-09-19T00:00:00	2024-11-06T12:00:00	5	Humedad	47
178653	7	Sololá	701	Sololá	2	El tablón	9	Septiembre	2023-09-19T00:00:00	2024-11-06T12:00:00	6	Velocidad del viento	9.7
178654	7	Sololá	701	Sololá	2	El tablón	9	Septiembre	2023-09-19T00:00:00	2024-11-06T12:00:00	7	Dirección del viento	9.66
178655	7	Sololá	701	Sololá	2	El tablón	9	Septiembre	2023-09-19T00:00:00	2024-11-06T12:00:00	1	Precipitación	0
178656	7	Sololá	701	Sololá	2	El tablón	9	Septiembre	2023-09-19T00:00:00	2024-11-06T12:00:00	8	Radiación solar	910
178657	7	Sololá	701	Sololá	2	El tablón	9	Septiembre	2023-09-19T00:00:00	2024-11-06T13:00:00	2	Temperatura media	20.6
178658	7	Sololá	701	Sololá	2	El tablón	9	Septiembre	2023-09-19T00:00:00	2024-11-06T13:00:00	4	Temperatura máxima	20.6
178659	7	Sololá	701	Sololá	2	El tablón	9	Septiembre	2023-09-19T00:00:00	2024-11-06T13:00:00	3	Temperatura mínima	19.8
178660	7	Sololá	701	Sololá	2	El tablón	9	Septiembre	2023-09-19T00:00:00	2024-11-06T13:00:00	5	Humedad	48
178661	7	Sololá	701	Sololá	2	El tablón	9	Septiembre	2023-09-19T00:00:00	2024-11-06T13:00:00	6	Velocidad del viento	9.7
178662	7	Sololá	701	Sololá	2	El tablón	9	Septiembre	2023-09-19T00:00:00	2024-11-06T13:00:00	7	Dirección del viento	9.66
178663	7	Sololá	701	Sololá	2	El tablón	9	Septiembre	2023-09-19T00:00:00	2024-11-06T13:00:00	1	Precipitación	0
178664	7	Sololá	701	Sololá	2	El tablón	9	Septiembre	2023-09-19T00:00:00	2024-11-06T13:00:00	8	Radiación solar	913
178665	7	Sololá	701	Sololá	2	El tablón	9	Septiembre	2023-09-19T00:00:00	2024-11-06T14:00:00	2	Temperatura media	19.4
178666	7	Sololá	701	Sololá	2	El tablón	9	Septiembre	2023-09-19T00:00:00	2024-11-06T14:00:00	4	Temperatura máxima	20.8
178667	7	Sololá	701	Sololá	2	El tablón	9	Septiembre	2023-09-19T00:00:00	2024-11-06T14:00:00	3	Temperatura mínima	19.4
178668	7	Sololá	701	Sololá	2	El tablón	9	Septiembre	2023-09-19T00:00:00	2024-11-06T14:00:00	5	Humedad	57
178669	7	Sololá	701	Sololá	2	El tablón	9	Septiembre	2023-09-19T00:00:00	2024-11-06T14:00:00	6	Velocidad del viento	8
178670	7	Sololá	701	Sololá	2	El tablón	9	Septiembre	2023-09-19T00:00:00	2024-11-06T14:00:00	7	Dirección del viento	8.05
178671	7	Sololá	701	Sololá	2	El tablón	9	Septiembre	2023-09-19T00:00:00	2024-11-06T14:00:00	1	Precipitación	0
178672	7	Sololá	701	Sololá	2	El tablón	9	Septiembre	2023-09-19T00:00:00	2024-11-06T14:00:00	8	Radiación solar	720
178673	7	Sololá	701	Sololá	2	El tablón	9	Septiembre	2023-09-19T00:00:00	2024-11-06T15:00:00	2	Temperatura media	18.3
178674	7	Sololá	701	Sololá	2	El tablón	9	Septiembre	2023-09-19T00:00:00	2024-11-06T15:00:00	4	Temperatura máxima	19.6
178675	7	Sololá	701	Sololá	2	El tablón	9	Septiembre	2023-09-19T00:00:00	2024-11-06T15:00:00	3	Temperatura mínima	18.3
178676	7	Sololá	701	Sololá	2	El tablón	9	Septiembre	2023-09-19T00:00:00	2024-11-06T15:00:00	5	Humedad	79
178677	7	Sololá	701	Sololá	2	El tablón	9	Septiembre	2023-09-19T00:00:00	2024-11-06T15:00:00	6	Velocidad del viento	4.8
178678	7	Sololá	701	Sololá	2	El tablón	9	Septiembre	2023-09-19T00:00:00	2024-11-06T15:00:00	7	Dirección del viento	4.83
178679	7	Sololá	701	Sololá	2	El tablón	9	Septiembre	2023-09-19T00:00:00	2024-11-06T15:00:00	1	Precipitación	0
178680	7	Sololá	701	Sololá	2	El tablón	9	Septiembre	2023-09-19T00:00:00	2024-11-06T15:00:00	8	Radiación solar	266
178681	7	Sololá	701	Sololá	2	El tablón	9	Septiembre	2023-09-19T00:00:00	2024-11-06T16:00:00	2	Temperatura media	18.8
178682	7	Sololá	701	Sololá	2	El tablón	9	Septiembre	2023-09-19T00:00:00	2024-11-06T16:00:00	4	Temperatura máxima	18.8
178683	7	Sololá	701	Sololá	2	El tablón	9	Septiembre	2023-09-19T00:00:00	2024-11-06T16:00:00	3	Temperatura mínima	17.3
178684	7	Sololá	701	Sololá	2	El tablón	9	Septiembre	2023-09-19T00:00:00	2024-11-06T16:00:00	5	Humedad	75
178685	7	Sololá	701	Sololá	2	El tablón	9	Septiembre	2023-09-19T00:00:00	2024-11-06T16:00:00	6	Velocidad del viento	4.8
178686	7	Sololá	701	Sololá	2	El tablón	9	Septiembre	2023-09-19T00:00:00	2024-11-06T16:00:00	7	Dirección del viento	4.83
178687	7	Sololá	701	Sololá	2	El tablón	9	Septiembre	2023-09-19T00:00:00	2024-11-06T16:00:00	1	Precipitación	0
178688	7	Sololá	701	Sololá	2	El tablón	9	Septiembre	2023-09-19T00:00:00	2024-11-06T16:00:00	8	Radiación solar	247
178689	7	Sololá	701	Sololá	2	El tablón	9	Septiembre	2023-09-19T00:00:00	2024-11-06T17:00:00	2	Temperatura media	17.3
178690	7	Sololá	701	Sololá	2	El tablón	9	Septiembre	2023-09-19T00:00:00	2024-11-06T17:00:00	4	Temperatura máxima	19
178691	7	Sololá	701	Sololá	2	El tablón	9	Septiembre	2023-09-19T00:00:00	2024-11-06T17:00:00	3	Temperatura mínima	17.3
178692	7	Sololá	701	Sololá	2	El tablón	9	Septiembre	2023-09-19T00:00:00	2024-11-06T17:00:00	5	Humedad	84
178693	7	Sololá	701	Sololá	2	El tablón	9	Septiembre	2023-09-19T00:00:00	2024-11-06T17:00:00	6	Velocidad del viento	3.2
178694	7	Sololá	701	Sololá	2	El tablón	9	Septiembre	2023-09-19T00:00:00	2024-11-06T17:00:00	7	Dirección del viento	3.22
178695	7	Sololá	701	Sololá	2	El tablón	9	Septiembre	2023-09-19T00:00:00	2024-11-06T17:00:00	1	Precipitación	0
178696	7	Sololá	701	Sololá	2	El tablón	9	Septiembre	2023-09-19T00:00:00	2024-11-06T17:00:00	8	Radiación solar	211
178697	7	Sololá	701	Sololá	2	El tablón	9	Septiembre	2023-09-19T00:00:00	2024-11-06T18:00:00	2	Temperatura media	16.4
178698	7	Sololá	701	Sololá	2	El tablón	9	Septiembre	2023-09-19T00:00:00	2024-11-06T18:00:00	4	Temperatura máxima	17.3
178699	7	Sololá	701	Sololá	2	El tablón	9	Septiembre	2023-09-19T00:00:00	2024-11-06T18:00:00	3	Temperatura mínima	16.4
178700	7	Sololá	701	Sololá	2	El tablón	9	Septiembre	2023-09-19T00:00:00	2024-11-06T18:00:00	5	Humedad	73
178701	7	Sololá	701	Sololá	2	El tablón	9	Septiembre	2023-09-19T00:00:00	2024-11-06T18:00:00	6	Velocidad del viento	4.8
178702	7	Sololá	701	Sololá	2	El tablón	9	Septiembre	2023-09-19T00:00:00	2024-11-06T18:00:00	7	Dirección del viento	4.83
178703	7	Sololá	701	Sololá	2	El tablón	9	Septiembre	2023-09-19T00:00:00	2024-11-06T18:00:00	1	Precipitación	0
178704	7	Sololá	701	Sololá	2	El tablón	9	Septiembre	2023-09-19T00:00:00	2024-11-06T18:00:00	8	Radiación solar	49
178705	7	Sololá	701	Sololá	2	El tablón	9	Septiembre	2023-09-19T00:00:00	2024-11-06T19:00:00	2	Temperatura media	14.6
178706	7	Sololá	701	Sololá	2	El tablón	9	Septiembre	2023-09-19T00:00:00	2024-11-06T19:00:00	4	Temperatura máxima	16.4
178707	7	Sololá	701	Sololá	2	El tablón	9	Septiembre	2023-09-19T00:00:00	2024-11-06T19:00:00	3	Temperatura mínima	14.6
178708	7	Sololá	701	Sololá	2	El tablón	9	Septiembre	2023-09-19T00:00:00	2024-11-06T19:00:00	5	Humedad	83
178709	7	Sololá	701	Sololá	2	El tablón	9	Septiembre	2023-09-19T00:00:00	2024-11-06T19:00:00	6	Velocidad del viento	3.2
178710	7	Sololá	701	Sololá	2	El tablón	9	Septiembre	2023-09-19T00:00:00	2024-11-06T19:00:00	7	Dirección del viento	3.22
178711	7	Sololá	701	Sololá	2	El tablón	9	Septiembre	2023-09-19T00:00:00	2024-11-06T19:00:00	1	Precipitación	0
178712	7	Sololá	701	Sololá	2	El tablón	9	Septiembre	2023-09-19T00:00:00	2024-11-06T19:00:00	8	Radiación solar	0
178713	7	Sololá	701	Sololá	2	El tablón	9	Septiembre	2023-09-19T00:00:00	2024-11-06T20:00:00	2	Temperatura media	14.2
178714	7	Sololá	701	Sololá	2	El tablón	9	Septiembre	2023-09-19T00:00:00	2024-11-06T20:00:00	4	Temperatura máxima	14.6
178715	7	Sololá	701	Sololá	2	El tablón	9	Septiembre	2023-09-19T00:00:00	2024-11-06T20:00:00	3	Temperatura mínima	14.2
178716	7	Sololá	701	Sololá	2	El tablón	9	Septiembre	2023-09-19T00:00:00	2024-11-06T20:00:00	5	Humedad	86
178717	7	Sololá	701	Sololá	2	El tablón	9	Septiembre	2023-09-19T00:00:00	2024-11-06T20:00:00	6	Velocidad del viento	3.2
178718	7	Sololá	701	Sololá	2	El tablón	9	Septiembre	2023-09-19T00:00:00	2024-11-06T20:00:00	7	Dirección del viento	3.22
178719	7	Sololá	701	Sololá	2	El tablón	9	Septiembre	2023-09-19T00:00:00	2024-11-06T20:00:00	1	Precipitación	0
178720	7	Sololá	701	Sololá	2	El tablón	9	Septiembre	2023-09-19T00:00:00	2024-11-06T20:00:00	8	Radiación solar	0
178721	7	Sololá	701	Sololá	2	El tablón	9	Septiembre	2023-09-19T00:00:00	2024-11-06T21:00:00	2	Temperatura media	13.9
178722	7	Sololá	701	Sololá	2	El tablón	9	Septiembre	2023-09-19T00:00:00	2024-11-06T21:00:00	4	Temperatura máxima	14.2
178723	7	Sololá	701	Sololá	2	El tablón	9	Septiembre	2023-09-19T00:00:00	2024-11-06T21:00:00	3	Temperatura mínima	13.9
178724	7	Sololá	701	Sololá	2	El tablón	9	Septiembre	2023-09-19T00:00:00	2024-11-06T21:00:00	5	Humedad	87
178725	7	Sololá	701	Sololá	2	El tablón	9	Septiembre	2023-09-19T00:00:00	2024-11-06T21:00:00	6	Velocidad del viento	4.8
178726	7	Sololá	701	Sololá	2	El tablón	9	Septiembre	2023-09-19T00:00:00	2024-11-06T21:00:00	7	Dirección del viento	4.83
178727	7	Sololá	701	Sololá	2	El tablón	9	Septiembre	2023-09-19T00:00:00	2024-11-06T21:00:00	1	Precipitación	0
178728	7	Sololá	701	Sololá	2	El tablón	9	Septiembre	2023-09-19T00:00:00	2024-11-06T21:00:00	8	Radiación solar	0
178729	7	Sololá	701	Sololá	2	El tablón	9	Septiembre	2023-09-19T00:00:00	2024-11-06T22:00:00	2	Temperatura media	13.7
178730	7	Sololá	701	Sololá	2	El tablón	9	Septiembre	2023-09-19T00:00:00	2024-11-06T22:00:00	4	Temperatura máxima	13.9
178731	7	Sololá	701	Sololá	2	El tablón	9	Septiembre	2023-09-19T00:00:00	2024-11-06T22:00:00	3	Temperatura mínima	13.6
178732	7	Sololá	701	Sololá	2	El tablón	9	Septiembre	2023-09-19T00:00:00	2024-11-06T22:00:00	5	Humedad	87
178733	7	Sololá	701	Sololá	2	El tablón	9	Septiembre	2023-09-19T00:00:00	2024-11-06T22:00:00	6	Velocidad del viento	6.4
178734	7	Sololá	701	Sololá	2	El tablón	9	Septiembre	2023-09-19T00:00:00	2024-11-06T22:00:00	7	Dirección del viento	6.44
178735	7	Sololá	701	Sololá	2	El tablón	9	Septiembre	2023-09-19T00:00:00	2024-11-06T22:00:00	1	Precipitación	0
178736	7	Sololá	701	Sololá	2	El tablón	9	Septiembre	2023-09-19T00:00:00	2024-11-06T22:00:00	8	Radiación solar	0
178737	7	Sololá	701	Sololá	2	El tablón	9	Septiembre	2023-09-19T00:00:00	2024-11-06T23:00:00	2	Temperatura media	13.4
178738	7	Sololá	701	Sololá	2	El tablón	9	Septiembre	2023-09-19T00:00:00	2024-11-06T23:00:00	4	Temperatura máxima	13.7
178739	7	Sololá	701	Sololá	2	El tablón	9	Septiembre	2023-09-19T00:00:00	2024-11-06T23:00:00	3	Temperatura mínima	13.3
178740	7	Sololá	701	Sololá	2	El tablón	9	Septiembre	2023-09-19T00:00:00	2024-11-06T23:00:00	5	Humedad	87
178741	7	Sololá	701	Sololá	2	El tablón	9	Septiembre	2023-09-19T00:00:00	2024-11-06T23:00:00	6	Velocidad del viento	8
178742	7	Sololá	701	Sololá	2	El tablón	9	Septiembre	2023-09-19T00:00:00	2024-11-06T23:00:00	7	Dirección del viento	8.05
178743	7	Sololá	701	Sololá	2	El tablón	9	Septiembre	2023-09-19T00:00:00	2024-11-06T23:00:00	1	Precipitación	0
178744	7	Sololá	701	Sololá	2	El tablón	9	Septiembre	2023-09-19T00:00:00	2024-11-06T23:00:00	8	Radiación solar	0
178745	7	Sololá	701	Sololá	2	El tablón	9	Septiembre	2023-09-20T00:00:00	2024-11-06T00:00:00	2	Temperatura media	13.1
178746	7	Sololá	701	Sololá	2	El tablón	9	Septiembre	2023-09-20T00:00:00	2024-11-06T00:00:00	4	Temperatura máxima	13.4
178747	7	Sololá	701	Sololá	2	El tablón	9	Septiembre	2023-09-20T00:00:00	2024-11-06T00:00:00	3	Temperatura mínima	13.1
178748	7	Sololá	701	Sololá	2	El tablón	9	Septiembre	2023-09-20T00:00:00	2024-11-06T00:00:00	5	Humedad	87
178749	7	Sololá	701	Sololá	2	El tablón	9	Septiembre	2023-09-20T00:00:00	2024-11-06T00:00:00	6	Velocidad del viento	8
178750	7	Sololá	701	Sololá	2	El tablón	9	Septiembre	2023-09-20T00:00:00	2024-11-06T00:00:00	7	Dirección del viento	8.05
178751	7	Sololá	701	Sololá	2	El tablón	9	Septiembre	2023-09-20T00:00:00	2024-11-06T00:00:00	1	Precipitación	0
178752	7	Sololá	701	Sololá	2	El tablón	9	Septiembre	2023-09-20T00:00:00	2024-11-06T00:00:00	8	Radiación solar	0
178753	7	Sololá	701	Sololá	2	El tablón	9	Septiembre	2023-09-20T00:00:00	2024-11-06T01:00:00	2	Temperatura media	12.9
178754	7	Sololá	701	Sololá	2	El tablón	9	Septiembre	2023-09-20T00:00:00	2024-11-06T01:00:00	4	Temperatura máxima	13.1
178755	7	Sololá	701	Sololá	2	El tablón	9	Septiembre	2023-09-20T00:00:00	2024-11-06T01:00:00	3	Temperatura mínima	12.9
178756	7	Sololá	701	Sololá	2	El tablón	9	Septiembre	2023-09-20T00:00:00	2024-11-06T01:00:00	5	Humedad	86
178757	7	Sololá	701	Sololá	2	El tablón	9	Septiembre	2023-09-20T00:00:00	2024-11-06T01:00:00	6	Velocidad del viento	12.9
178758	7	Sololá	701	Sololá	2	El tablón	9	Septiembre	2023-09-20T00:00:00	2024-11-06T01:00:00	7	Dirección del viento	12.87
178759	7	Sololá	701	Sololá	2	El tablón	9	Septiembre	2023-09-20T00:00:00	2024-11-06T01:00:00	1	Precipitación	0
178760	7	Sololá	701	Sololá	2	El tablón	9	Septiembre	2023-09-20T00:00:00	2024-11-06T01:00:00	8	Radiación solar	0
178761	7	Sololá	701	Sololá	2	El tablón	9	Septiembre	2023-09-20T00:00:00	2024-11-06T02:00:00	2	Temperatura media	12.6
178762	7	Sololá	701	Sololá	2	El tablón	9	Septiembre	2023-09-20T00:00:00	2024-11-06T02:00:00	4	Temperatura máxima	12.9
178763	7	Sololá	701	Sololá	2	El tablón	9	Septiembre	2023-09-20T00:00:00	2024-11-06T02:00:00	3	Temperatura mínima	12.4
178764	7	Sololá	701	Sololá	2	El tablón	9	Septiembre	2023-09-20T00:00:00	2024-11-06T02:00:00	5	Humedad	86
178765	7	Sololá	701	Sololá	2	El tablón	9	Septiembre	2023-09-20T00:00:00	2024-11-06T02:00:00	6	Velocidad del viento	11.3
178766	7	Sololá	701	Sololá	2	El tablón	9	Septiembre	2023-09-20T00:00:00	2024-11-06T02:00:00	7	Dirección del viento	11.27
178767	7	Sololá	701	Sololá	2	El tablón	9	Septiembre	2023-09-20T00:00:00	2024-11-06T02:00:00	1	Precipitación	0
178768	7	Sololá	701	Sololá	2	El tablón	9	Septiembre	2023-09-20T00:00:00	2024-11-06T02:00:00	8	Radiación solar	0
178769	7	Sololá	701	Sololá	2	El tablón	9	Septiembre	2023-09-20T00:00:00	2024-11-06T03:00:00	2	Temperatura media	12.4
178770	7	Sololá	701	Sololá	2	El tablón	9	Septiembre	2023-09-20T00:00:00	2024-11-06T03:00:00	4	Temperatura máxima	12.7
178771	7	Sololá	701	Sololá	2	El tablón	9	Septiembre	2023-09-20T00:00:00	2024-11-06T03:00:00	3	Temperatura mínima	12.4
178772	7	Sololá	701	Sololá	2	El tablón	9	Septiembre	2023-09-20T00:00:00	2024-11-06T03:00:00	5	Humedad	86
178773	7	Sololá	701	Sololá	2	El tablón	9	Septiembre	2023-09-20T00:00:00	2024-11-06T03:00:00	6	Velocidad del viento	6.4
178774	7	Sololá	701	Sololá	2	El tablón	9	Septiembre	2023-09-20T00:00:00	2024-11-06T03:00:00	7	Dirección del viento	6.44
178775	7	Sololá	701	Sololá	2	El tablón	9	Septiembre	2023-09-20T00:00:00	2024-11-06T03:00:00	1	Precipitación	0
178776	7	Sololá	701	Sololá	2	El tablón	9	Septiembre	2023-09-20T00:00:00	2024-11-06T03:00:00	8	Radiación solar	0
178777	7	Sololá	701	Sololá	2	El tablón	9	Septiembre	2023-09-20T00:00:00	2024-11-06T04:00:00	2	Temperatura media	11.7
178778	7	Sololá	701	Sololá	2	El tablón	9	Septiembre	2023-09-20T00:00:00	2024-11-06T04:00:00	4	Temperatura máxima	12.4
178779	7	Sololá	701	Sololá	2	El tablón	9	Septiembre	2023-09-20T00:00:00	2024-11-06T04:00:00	3	Temperatura mínima	11.7
178780	7	Sololá	701	Sololá	2	El tablón	9	Septiembre	2023-09-20T00:00:00	2024-11-06T04:00:00	5	Humedad	88
178781	7	Sololá	701	Sololá	2	El tablón	9	Septiembre	2023-09-20T00:00:00	2024-11-06T04:00:00	6	Velocidad del viento	3.2
178782	7	Sololá	701	Sololá	2	El tablón	9	Septiembre	2023-09-20T00:00:00	2024-11-06T04:00:00	7	Dirección del viento	3.22
178783	7	Sololá	701	Sololá	2	El tablón	9	Septiembre	2023-09-20T00:00:00	2024-11-06T04:00:00	1	Precipitación	0
178784	7	Sololá	701	Sololá	2	El tablón	9	Septiembre	2023-09-20T00:00:00	2024-11-06T04:00:00	8	Radiación solar	0
178785	7	Sololá	701	Sololá	2	El tablón	9	Septiembre	2023-09-20T00:00:00	2024-11-06T05:00:00	2	Temperatura media	12.2
178786	7	Sololá	701	Sololá	2	El tablón	9	Septiembre	2023-09-20T00:00:00	2024-11-06T05:00:00	4	Temperatura máxima	12.3
178787	7	Sololá	701	Sololá	2	El tablón	9	Septiembre	2023-09-20T00:00:00	2024-11-06T05:00:00	3	Temperatura mínima	11.7
178788	7	Sololá	701	Sololá	2	El tablón	9	Septiembre	2023-09-20T00:00:00	2024-11-06T05:00:00	5	Humedad	85
178789	7	Sololá	701	Sololá	2	El tablón	9	Septiembre	2023-09-20T00:00:00	2024-11-06T05:00:00	6	Velocidad del viento	4.8
178790	7	Sololá	701	Sololá	2	El tablón	9	Septiembre	2023-09-20T00:00:00	2024-11-06T05:00:00	7	Dirección del viento	4.83
178791	7	Sololá	701	Sololá	2	El tablón	9	Septiembre	2023-09-20T00:00:00	2024-11-06T05:00:00	1	Precipitación	0
178792	7	Sololá	701	Sololá	2	El tablón	9	Septiembre	2023-09-20T00:00:00	2024-11-06T05:00:00	8	Radiación solar	0
178793	7	Sololá	701	Sololá	2	El tablón	9	Septiembre	2023-09-20T00:00:00	2024-11-06T06:00:00	2	Temperatura media	11.7
178794	7	Sololá	701	Sololá	2	El tablón	9	Septiembre	2023-09-20T00:00:00	2024-11-06T06:00:00	4	Temperatura máxima	12.4
178795	7	Sololá	701	Sololá	2	El tablón	9	Septiembre	2023-09-20T00:00:00	2024-11-06T06:00:00	3	Temperatura mínima	11.7
178796	7	Sololá	701	Sololá	2	El tablón	9	Septiembre	2023-09-20T00:00:00	2024-11-06T06:00:00	5	Humedad	86
178797	7	Sololá	701	Sololá	2	El tablón	9	Septiembre	2023-09-20T00:00:00	2024-11-06T06:00:00	6	Velocidad del viento	3.2
178798	7	Sololá	701	Sololá	2	El tablón	9	Septiembre	2023-09-20T00:00:00	2024-11-06T06:00:00	7	Dirección del viento	3.22
178799	7	Sololá	701	Sololá	2	El tablón	9	Septiembre	2023-09-20T00:00:00	2024-11-06T06:00:00	1	Precipitación	0
178800	7	Sololá	701	Sololá	2	El tablón	9	Septiembre	2023-09-20T00:00:00	2024-11-06T06:00:00	8	Radiación solar	0
178801	7	Sololá	701	Sololá	2	El tablón	9	Septiembre	2023-09-20T00:00:00	2024-11-06T07:00:00	2	Temperatura media	13.2
178802	7	Sololá	701	Sololá	2	El tablón	9	Septiembre	2023-09-20T00:00:00	2024-11-06T07:00:00	4	Temperatura máxima	13.2
178803	7	Sololá	701	Sololá	2	El tablón	9	Septiembre	2023-09-20T00:00:00	2024-11-06T07:00:00	3	Temperatura mínima	11.7
178804	7	Sololá	701	Sololá	2	El tablón	9	Septiembre	2023-09-20T00:00:00	2024-11-06T07:00:00	5	Humedad	83
178805	7	Sololá	701	Sololá	2	El tablón	9	Septiembre	2023-09-20T00:00:00	2024-11-06T07:00:00	6	Velocidad del viento	4.8
178806	7	Sololá	701	Sololá	2	El tablón	9	Septiembre	2023-09-20T00:00:00	2024-11-06T07:00:00	7	Dirección del viento	4.83
178807	7	Sololá	701	Sololá	2	El tablón	9	Septiembre	2023-09-20T00:00:00	2024-11-06T07:00:00	1	Precipitación	0
178808	7	Sololá	701	Sololá	2	El tablón	9	Septiembre	2023-09-20T00:00:00	2024-11-06T07:00:00	8	Radiación solar	56
178809	7	Sololá	701	Sololá	2	El tablón	9	Septiembre	2023-09-20T00:00:00	2024-11-06T08:00:00	2	Temperatura media	15.9
178810	7	Sololá	701	Sololá	2	El tablón	9	Septiembre	2023-09-20T00:00:00	2024-11-06T08:00:00	4	Temperatura máxima	15.9
178811	7	Sololá	701	Sololá	2	El tablón	9	Septiembre	2023-09-20T00:00:00	2024-11-06T08:00:00	3	Temperatura mínima	13.2
178812	7	Sololá	701	Sololá	2	El tablón	9	Septiembre	2023-09-20T00:00:00	2024-11-06T08:00:00	5	Humedad	77
178813	7	Sololá	701	Sololá	2	El tablón	9	Septiembre	2023-09-20T00:00:00	2024-11-06T08:00:00	6	Velocidad del viento	8
178814	7	Sololá	701	Sololá	2	El tablón	9	Septiembre	2023-09-20T00:00:00	2024-11-06T08:00:00	7	Dirección del viento	8.05
178815	7	Sololá	701	Sololá	2	El tablón	9	Septiembre	2023-09-20T00:00:00	2024-11-06T08:00:00	1	Precipitación	0
178816	7	Sololá	701	Sololá	2	El tablón	9	Septiembre	2023-09-20T00:00:00	2024-11-06T08:00:00	8	Radiación solar	229
178817	7	Sololá	701	Sololá	2	El tablón	9	Septiembre	2023-09-20T00:00:00	2024-11-06T09:00:00	2	Temperatura media	18.5
178818	7	Sololá	701	Sololá	2	El tablón	9	Septiembre	2023-09-20T00:00:00	2024-11-06T09:00:00	4	Temperatura máxima	18.5
178819	7	Sololá	701	Sololá	2	El tablón	9	Septiembre	2023-09-20T00:00:00	2024-11-06T09:00:00	3	Temperatura mínima	15.9
178820	7	Sololá	701	Sololá	2	El tablón	9	Septiembre	2023-09-20T00:00:00	2024-11-06T09:00:00	5	Humedad	68
178821	7	Sololá	701	Sololá	2	El tablón	9	Septiembre	2023-09-20T00:00:00	2024-11-06T09:00:00	6	Velocidad del viento	6.4
178822	7	Sololá	701	Sololá	2	El tablón	9	Septiembre	2023-09-20T00:00:00	2024-11-06T09:00:00	7	Dirección del viento	6.44
178823	7	Sololá	701	Sololá	2	El tablón	9	Septiembre	2023-09-20T00:00:00	2024-11-06T09:00:00	1	Precipitación	0
178824	7	Sololá	701	Sololá	2	El tablón	9	Septiembre	2023-09-20T00:00:00	2024-11-06T09:00:00	8	Radiación solar	450
178825	7	Sololá	701	Sololá	2	El tablón	9	Septiembre	2023-09-20T00:00:00	2024-11-06T10:00:00	2	Temperatura media	19.4
178826	7	Sololá	701	Sololá	2	El tablón	9	Septiembre	2023-09-20T00:00:00	2024-11-06T10:00:00	4	Temperatura máxima	19.6
178827	7	Sololá	701	Sololá	2	El tablón	9	Septiembre	2023-09-20T00:00:00	2024-11-06T10:00:00	3	Temperatura mínima	18.4
178828	7	Sololá	701	Sololá	2	El tablón	9	Septiembre	2023-09-20T00:00:00	2024-11-06T10:00:00	5	Humedad	66
178829	7	Sololá	701	Sololá	2	El tablón	9	Septiembre	2023-09-20T00:00:00	2024-11-06T10:00:00	6	Velocidad del viento	8
178830	7	Sololá	701	Sololá	2	El tablón	9	Septiembre	2023-09-20T00:00:00	2024-11-06T10:00:00	7	Dirección del viento	8.05
178831	7	Sololá	701	Sololá	2	El tablón	9	Septiembre	2023-09-20T00:00:00	2024-11-06T10:00:00	1	Precipitación	0
178832	7	Sololá	701	Sololá	2	El tablón	9	Septiembre	2023-09-20T00:00:00	2024-11-06T10:00:00	8	Radiación solar	627
178833	7	Sololá	701	Sololá	2	El tablón	9	Septiembre	2023-09-20T00:00:00	2024-11-06T11:00:00	2	Temperatura media	19.5
178834	7	Sololá	701	Sololá	2	El tablón	9	Septiembre	2023-09-20T00:00:00	2024-11-06T11:00:00	4	Temperatura máxima	19.8
178835	7	Sololá	701	Sololá	2	El tablón	9	Septiembre	2023-09-20T00:00:00	2024-11-06T11:00:00	3	Temperatura mínima	19.2
178836	7	Sololá	701	Sololá	2	El tablón	9	Septiembre	2023-09-20T00:00:00	2024-11-06T11:00:00	5	Humedad	65
178837	7	Sololá	701	Sololá	2	El tablón	9	Septiembre	2023-09-20T00:00:00	2024-11-06T11:00:00	6	Velocidad del viento	9.7
178838	7	Sololá	701	Sololá	2	El tablón	9	Septiembre	2023-09-20T00:00:00	2024-11-06T11:00:00	7	Dirección del viento	9.66
178839	7	Sololá	701	Sololá	2	El tablón	9	Septiembre	2023-09-20T00:00:00	2024-11-06T11:00:00	1	Precipitación	0
178840	7	Sololá	701	Sololá	2	El tablón	9	Septiembre	2023-09-20T00:00:00	2024-11-06T11:00:00	8	Radiación solar	793
178841	7	Sololá	701	Sololá	2	El tablón	9	Septiembre	2023-09-20T00:00:00	2024-11-06T12:00:00	2	Temperatura media	19.7
178842	7	Sololá	701	Sololá	2	El tablón	9	Septiembre	2023-09-20T00:00:00	2024-11-06T12:00:00	4	Temperatura máxima	19.9
178843	7	Sololá	701	Sololá	2	El tablón	9	Septiembre	2023-09-20T00:00:00	2024-11-06T12:00:00	3	Temperatura mínima	19.3
178844	7	Sololá	701	Sololá	2	El tablón	9	Septiembre	2023-09-20T00:00:00	2024-11-06T12:00:00	5	Humedad	65
178845	7	Sololá	701	Sololá	2	El tablón	9	Septiembre	2023-09-20T00:00:00	2024-11-06T12:00:00	6	Velocidad del viento	9.7
178846	7	Sololá	701	Sololá	2	El tablón	9	Septiembre	2023-09-20T00:00:00	2024-11-06T12:00:00	7	Dirección del viento	9.66
178847	7	Sololá	701	Sololá	2	El tablón	9	Septiembre	2023-09-20T00:00:00	2024-11-06T12:00:00	1	Precipitación	0
178848	7	Sololá	701	Sololá	2	El tablón	9	Septiembre	2023-09-20T00:00:00	2024-11-06T12:00:00	8	Radiación solar	705
178849	7	Sololá	701	Sololá	2	El tablón	9	Septiembre	2023-09-20T00:00:00	2024-11-06T13:00:00	2	Temperatura media	20.8
178850	7	Sololá	701	Sololá	2	El tablón	9	Septiembre	2023-09-20T00:00:00	2024-11-06T13:00:00	4	Temperatura máxima	20.9
178851	7	Sololá	701	Sololá	2	El tablón	9	Septiembre	2023-09-20T00:00:00	2024-11-06T13:00:00	3	Temperatura mínima	19.1
178852	7	Sololá	701	Sololá	2	El tablón	9	Septiembre	2023-09-20T00:00:00	2024-11-06T13:00:00	5	Humedad	59
178853	7	Sololá	701	Sololá	2	El tablón	9	Septiembre	2023-09-20T00:00:00	2024-11-06T13:00:00	6	Velocidad del viento	9.7
178854	7	Sololá	701	Sololá	2	El tablón	9	Septiembre	2023-09-20T00:00:00	2024-11-06T13:00:00	7	Dirección del viento	9.66
178855	7	Sololá	701	Sololá	2	El tablón	9	Septiembre	2023-09-20T00:00:00	2024-11-06T13:00:00	1	Precipitación	0
178856	7	Sololá	701	Sololá	2	El tablón	9	Septiembre	2023-09-20T00:00:00	2024-11-06T13:00:00	8	Radiación solar	758
178857	7	Sololá	701	Sololá	2	El tablón	9	Septiembre	2023-09-20T00:00:00	2024-11-06T14:00:00	2	Temperatura media	18.7
178858	7	Sololá	701	Sololá	2	El tablón	9	Septiembre	2023-09-20T00:00:00	2024-11-06T14:00:00	4	Temperatura máxima	20.8
178859	7	Sololá	701	Sololá	2	El tablón	9	Septiembre	2023-09-20T00:00:00	2024-11-06T14:00:00	3	Temperatura mínima	18.7
178860	7	Sololá	701	Sololá	2	El tablón	9	Septiembre	2023-09-20T00:00:00	2024-11-06T14:00:00	5	Humedad	77
178861	7	Sololá	701	Sololá	2	El tablón	9	Septiembre	2023-09-20T00:00:00	2024-11-06T14:00:00	6	Velocidad del viento	6.4
178862	7	Sololá	701	Sololá	2	El tablón	9	Septiembre	2023-09-20T00:00:00	2024-11-06T14:00:00	7	Dirección del viento	6.44
178863	7	Sololá	701	Sololá	2	El tablón	9	Septiembre	2023-09-20T00:00:00	2024-11-06T14:00:00	1	Precipitación	0
178864	7	Sololá	701	Sololá	2	El tablón	9	Septiembre	2023-09-20T00:00:00	2024-11-06T14:00:00	8	Radiación solar	262
178865	7	Sololá	701	Sololá	2	El tablón	9	Septiembre	2023-09-20T00:00:00	2024-11-06T15:00:00	2	Temperatura media	18.1
178866	7	Sololá	701	Sololá	2	El tablón	9	Septiembre	2023-09-20T00:00:00	2024-11-06T15:00:00	4	Temperatura máxima	18.7
178867	7	Sololá	701	Sololá	2	El tablón	9	Septiembre	2023-09-20T00:00:00	2024-11-06T15:00:00	3	Temperatura mínima	18.1
178868	7	Sololá	701	Sololá	2	El tablón	9	Septiembre	2023-09-20T00:00:00	2024-11-06T15:00:00	5	Humedad	84
178869	7	Sololá	701	Sololá	2	El tablón	9	Septiembre	2023-09-20T00:00:00	2024-11-06T15:00:00	6	Velocidad del viento	4.8
178870	7	Sololá	701	Sololá	2	El tablón	9	Septiembre	2023-09-20T00:00:00	2024-11-06T15:00:00	7	Dirección del viento	4.83
178871	7	Sololá	701	Sololá	2	El tablón	9	Septiembre	2023-09-20T00:00:00	2024-11-06T15:00:00	1	Precipitación	0
178872	7	Sololá	701	Sololá	2	El tablón	9	Septiembre	2023-09-20T00:00:00	2024-11-06T15:00:00	8	Radiación solar	267
178873	7	Sololá	701	Sololá	2	El tablón	9	Septiembre	2023-09-20T00:00:00	2024-11-06T16:00:00	2	Temperatura media	17.1
178874	7	Sololá	701	Sololá	2	El tablón	9	Septiembre	2023-09-20T00:00:00	2024-11-06T16:00:00	4	Temperatura máxima	18.1
178875	7	Sololá	701	Sololá	2	El tablón	9	Septiembre	2023-09-20T00:00:00	2024-11-06T16:00:00	3	Temperatura mínima	16.7
178876	7	Sololá	701	Sololá	2	El tablón	9	Septiembre	2023-09-20T00:00:00	2024-11-06T16:00:00	5	Humedad	86
178877	7	Sololá	701	Sololá	2	El tablón	9	Septiembre	2023-09-20T00:00:00	2024-11-06T16:00:00	6	Velocidad del viento	6.4
178878	7	Sololá	701	Sololá	2	El tablón	9	Septiembre	2023-09-20T00:00:00	2024-11-06T16:00:00	7	Dirección del viento	6.44
178879	7	Sololá	701	Sololá	2	El tablón	9	Septiembre	2023-09-20T00:00:00	2024-11-06T16:00:00	1	Precipitación	0
178880	7	Sololá	701	Sololá	2	El tablón	9	Septiembre	2023-09-20T00:00:00	2024-11-06T16:00:00	8	Radiación solar	232
178881	7	Sololá	701	Sololá	2	El tablón	9	Septiembre	2023-09-20T00:00:00	2024-11-06T17:00:00	2	Temperatura media	15.1
178882	7	Sololá	701	Sololá	2	El tablón	9	Septiembre	2023-09-20T00:00:00	2024-11-06T17:00:00	4	Temperatura máxima	17.2
178883	7	Sololá	701	Sololá	2	El tablón	9	Septiembre	2023-09-20T00:00:00	2024-11-06T17:00:00	3	Temperatura mínima	15.1
178884	7	Sololá	701	Sololá	2	El tablón	9	Septiembre	2023-09-20T00:00:00	2024-11-06T17:00:00	5	Humedad	87
178885	7	Sololá	701	Sololá	2	El tablón	9	Septiembre	2023-09-20T00:00:00	2024-11-06T17:00:00	6	Velocidad del viento	4.8
178886	7	Sololá	701	Sololá	2	El tablón	9	Septiembre	2023-09-20T00:00:00	2024-11-06T17:00:00	7	Dirección del viento	4.83
178887	7	Sololá	701	Sololá	2	El tablón	9	Septiembre	2023-09-20T00:00:00	2024-11-06T17:00:00	1	Precipitación	0.4
178888	7	Sololá	701	Sololá	2	El tablón	9	Septiembre	2023-09-20T00:00:00	2024-11-06T17:00:00	8	Radiación solar	55
178889	7	Sololá	701	Sololá	2	El tablón	9	Septiembre	2023-09-20T00:00:00	2024-11-06T18:00:00	2	Temperatura media	14.5
178890	7	Sololá	701	Sololá	2	El tablón	9	Septiembre	2023-09-20T00:00:00	2024-11-06T18:00:00	4	Temperatura máxima	15.1
178891	7	Sololá	701	Sololá	2	El tablón	9	Septiembre	2023-09-20T00:00:00	2024-11-06T18:00:00	3	Temperatura mínima	14.5
178892	7	Sololá	701	Sololá	2	El tablón	9	Septiembre	2023-09-20T00:00:00	2024-11-06T18:00:00	5	Humedad	86
178893	7	Sololá	701	Sololá	2	El tablón	9	Septiembre	2023-09-20T00:00:00	2024-11-06T18:00:00	6	Velocidad del viento	1.6
178894	7	Sololá	701	Sololá	2	El tablón	9	Septiembre	2023-09-20T00:00:00	2024-11-06T18:00:00	7	Dirección del viento	1.61
178895	7	Sololá	701	Sololá	2	El tablón	9	Septiembre	2023-09-20T00:00:00	2024-11-06T18:00:00	1	Precipitación	0
178896	7	Sololá	701	Sololá	2	El tablón	9	Septiembre	2023-09-20T00:00:00	2024-11-06T18:00:00	8	Radiación solar	16
178897	7	Sololá	701	Sololá	2	El tablón	9	Septiembre	2023-09-20T00:00:00	2024-11-06T19:00:00	2	Temperatura media	13.9
178898	7	Sololá	701	Sololá	2	El tablón	9	Septiembre	2023-09-20T00:00:00	2024-11-06T19:00:00	4	Temperatura máxima	14.5
178899	7	Sololá	701	Sololá	2	El tablón	9	Septiembre	2023-09-20T00:00:00	2024-11-06T19:00:00	3	Temperatura mínima	13.9
178900	7	Sololá	701	Sololá	2	El tablón	9	Septiembre	2023-09-20T00:00:00	2024-11-06T19:00:00	5	Humedad	87
178901	7	Sololá	701	Sololá	2	El tablón	9	Septiembre	2023-09-20T00:00:00	2024-11-06T19:00:00	6	Velocidad del viento	1.6
178902	7	Sololá	701	Sololá	2	El tablón	9	Septiembre	2023-09-20T00:00:00	2024-11-06T19:00:00	7	Dirección del viento	1.61
178903	7	Sololá	701	Sololá	2	El tablón	9	Septiembre	2023-09-20T00:00:00	2024-11-06T19:00:00	1	Precipitación	0
178904	7	Sololá	701	Sololá	2	El tablón	9	Septiembre	2023-09-20T00:00:00	2024-11-06T19:00:00	8	Radiación solar	0
178905	7	Sololá	701	Sololá	2	El tablón	9	Septiembre	2023-09-20T00:00:00	2024-11-06T20:00:00	2	Temperatura media	13.2
178906	7	Sololá	701	Sololá	2	El tablón	9	Septiembre	2023-09-20T00:00:00	2024-11-06T20:00:00	4	Temperatura máxima	13.8
178907	7	Sololá	701	Sololá	2	El tablón	9	Septiembre	2023-09-20T00:00:00	2024-11-06T20:00:00	3	Temperatura mínima	13.2
178908	7	Sololá	701	Sololá	2	El tablón	9	Septiembre	2023-09-20T00:00:00	2024-11-06T20:00:00	5	Humedad	86
178909	7	Sololá	701	Sololá	2	El tablón	9	Septiembre	2023-09-20T00:00:00	2024-11-06T20:00:00	6	Velocidad del viento	1.6
178910	7	Sololá	701	Sololá	2	El tablón	9	Septiembre	2023-09-20T00:00:00	2024-11-06T20:00:00	7	Dirección del viento	1.61
178911	7	Sololá	701	Sololá	2	El tablón	9	Septiembre	2023-09-20T00:00:00	2024-11-06T20:00:00	1	Precipitación	0
178912	7	Sololá	701	Sololá	2	El tablón	9	Septiembre	2023-09-20T00:00:00	2024-11-06T20:00:00	8	Radiación solar	0
178913	7	Sololá	701	Sololá	2	El tablón	9	Septiembre	2023-09-20T00:00:00	2024-11-06T21:00:00	2	Temperatura media	14
178914	7	Sololá	701	Sololá	2	El tablón	9	Septiembre	2023-09-20T00:00:00	2024-11-06T21:00:00	4	Temperatura máxima	14
178915	7	Sololá	701	Sololá	2	El tablón	9	Septiembre	2023-09-20T00:00:00	2024-11-06T21:00:00	3	Temperatura mínima	12.9
178916	7	Sololá	701	Sololá	2	El tablón	9	Septiembre	2023-09-20T00:00:00	2024-11-06T21:00:00	5	Humedad	88
178917	7	Sololá	701	Sololá	2	El tablón	9	Septiembre	2023-09-20T00:00:00	2024-11-06T21:00:00	6	Velocidad del viento	3.2
178918	7	Sololá	701	Sololá	2	El tablón	9	Septiembre	2023-09-20T00:00:00	2024-11-06T21:00:00	7	Dirección del viento	3.22
178919	7	Sololá	701	Sololá	2	El tablón	9	Septiembre	2023-09-20T00:00:00	2024-11-06T21:00:00	1	Precipitación	0
178920	7	Sololá	701	Sololá	2	El tablón	9	Septiembre	2023-09-20T00:00:00	2024-11-06T21:00:00	8	Radiación solar	0
178921	7	Sololá	701	Sololá	2	El tablón	9	Septiembre	2023-09-20T00:00:00	2024-11-06T22:00:00	2	Temperatura media	14.7
178922	7	Sololá	701	Sololá	2	El tablón	9	Septiembre	2023-09-20T00:00:00	2024-11-06T22:00:00	4	Temperatura máxima	14.7
178923	7	Sololá	701	Sololá	2	El tablón	9	Septiembre	2023-09-20T00:00:00	2024-11-06T22:00:00	3	Temperatura mínima	13.9
178924	7	Sololá	701	Sololá	2	El tablón	9	Septiembre	2023-09-20T00:00:00	2024-11-06T22:00:00	5	Humedad	88
178925	7	Sololá	701	Sololá	2	El tablón	9	Septiembre	2023-09-20T00:00:00	2024-11-06T22:00:00	6	Velocidad del viento	4.8
178926	7	Sololá	701	Sololá	2	El tablón	9	Septiembre	2023-09-20T00:00:00	2024-11-06T22:00:00	7	Dirección del viento	4.83
178927	7	Sololá	701	Sololá	2	El tablón	9	Septiembre	2023-09-20T00:00:00	2024-11-06T22:00:00	1	Precipitación	0
178928	7	Sololá	701	Sololá	2	El tablón	9	Septiembre	2023-09-20T00:00:00	2024-11-06T22:00:00	8	Radiación solar	0
178929	7	Sololá	701	Sololá	2	El tablón	9	Septiembre	2023-09-20T00:00:00	2024-11-06T23:00:00	2	Temperatura media	14.1
178930	7	Sololá	701	Sololá	2	El tablón	9	Septiembre	2023-09-20T00:00:00	2024-11-06T23:00:00	4	Temperatura máxima	14.7
178931	7	Sololá	701	Sololá	2	El tablón	9	Septiembre	2023-09-20T00:00:00	2024-11-06T23:00:00	3	Temperatura mínima	14.1
178932	7	Sololá	701	Sololá	2	El tablón	9	Septiembre	2023-09-20T00:00:00	2024-11-06T23:00:00	5	Humedad	88
178933	7	Sololá	701	Sololá	2	El tablón	9	Septiembre	2023-09-20T00:00:00	2024-11-06T23:00:00	6	Velocidad del viento	3.2
178934	7	Sololá	701	Sololá	2	El tablón	9	Septiembre	2023-09-20T00:00:00	2024-11-06T23:00:00	7	Dirección del viento	3.22
178935	7	Sololá	701	Sololá	2	El tablón	9	Septiembre	2023-09-20T00:00:00	2024-11-06T23:00:00	1	Precipitación	0.4
178936	7	Sololá	701	Sololá	2	El tablón	9	Septiembre	2023-09-20T00:00:00	2024-11-06T23:00:00	8	Radiación solar	0
178937	7	Sololá	701	Sololá	2	El tablón	9	Septiembre	2023-09-21T00:00:00	2024-11-06T00:00:00	2	Temperatura media	13.5
178938	7	Sololá	701	Sololá	2	El tablón	9	Septiembre	2023-09-21T00:00:00	2024-11-06T00:00:00	4	Temperatura máxima	14.1
178939	7	Sololá	701	Sololá	2	El tablón	9	Septiembre	2023-09-21T00:00:00	2024-11-06T00:00:00	3	Temperatura mínima	13.4
178940	7	Sololá	701	Sololá	2	El tablón	9	Septiembre	2023-09-21T00:00:00	2024-11-06T00:00:00	5	Humedad	88
178941	7	Sololá	701	Sololá	2	El tablón	9	Septiembre	2023-09-21T00:00:00	2024-11-06T00:00:00	6	Velocidad del viento	6.4
178942	7	Sololá	701	Sololá	2	El tablón	9	Septiembre	2023-09-21T00:00:00	2024-11-06T00:00:00	7	Dirección del viento	6.44
178943	7	Sololá	701	Sololá	2	El tablón	9	Septiembre	2023-09-21T00:00:00	2024-11-06T00:00:00	1	Precipitación	0
178944	7	Sololá	701	Sololá	2	El tablón	9	Septiembre	2023-09-21T00:00:00	2024-11-06T00:00:00	8	Radiación solar	0
178945	7	Sololá	701	Sololá	2	El tablón	9	Septiembre	2023-09-21T00:00:00	2024-11-06T01:00:00	2	Temperatura media	13.2
178946	7	Sololá	701	Sololá	2	El tablón	9	Septiembre	2023-09-21T00:00:00	2024-11-06T01:00:00	4	Temperatura máxima	13.5
178947	7	Sololá	701	Sololá	2	El tablón	9	Septiembre	2023-09-21T00:00:00	2024-11-06T01:00:00	3	Temperatura mínima	13.1
178948	7	Sololá	701	Sololá	2	El tablón	9	Septiembre	2023-09-21T00:00:00	2024-11-06T01:00:00	5	Humedad	88
178949	7	Sololá	701	Sololá	2	El tablón	9	Septiembre	2023-09-21T00:00:00	2024-11-06T01:00:00	6	Velocidad del viento	4.8
178950	7	Sololá	701	Sololá	2	El tablón	9	Septiembre	2023-09-21T00:00:00	2024-11-06T01:00:00	7	Dirección del viento	4.83
178951	7	Sololá	701	Sololá	2	El tablón	9	Septiembre	2023-09-21T00:00:00	2024-11-06T01:00:00	1	Precipitación	0
178952	7	Sololá	701	Sololá	2	El tablón	9	Septiembre	2023-09-21T00:00:00	2024-11-06T01:00:00	8	Radiación solar	0
178953	7	Sololá	701	Sololá	2	El tablón	9	Septiembre	2023-09-21T00:00:00	2024-11-06T02:00:00	2	Temperatura media	12.8
178954	7	Sololá	701	Sololá	2	El tablón	9	Septiembre	2023-09-21T00:00:00	2024-11-06T02:00:00	4	Temperatura máxima	13.2
178955	7	Sololá	701	Sololá	2	El tablón	9	Septiembre	2023-09-21T00:00:00	2024-11-06T02:00:00	3	Temperatura mínima	12.8
178956	7	Sololá	701	Sololá	2	El tablón	9	Septiembre	2023-09-21T00:00:00	2024-11-06T02:00:00	5	Humedad	88
178957	7	Sololá	701	Sololá	2	El tablón	9	Septiembre	2023-09-21T00:00:00	2024-11-06T02:00:00	6	Velocidad del viento	4.8
178958	7	Sololá	701	Sololá	2	El tablón	9	Septiembre	2023-09-21T00:00:00	2024-11-06T02:00:00	7	Dirección del viento	4.83
178959	7	Sololá	701	Sololá	2	El tablón	9	Septiembre	2023-09-21T00:00:00	2024-11-06T02:00:00	1	Precipitación	0
178960	7	Sololá	701	Sololá	2	El tablón	9	Septiembre	2023-09-21T00:00:00	2024-11-06T02:00:00	8	Radiación solar	0
178961	7	Sololá	701	Sololá	2	El tablón	9	Septiembre	2023-09-21T00:00:00	2024-11-06T03:00:00	2	Temperatura media	13
178962	7	Sololá	701	Sololá	2	El tablón	9	Septiembre	2023-09-21T00:00:00	2024-11-06T03:00:00	4	Temperatura máxima	13.3
178963	7	Sololá	701	Sololá	2	El tablón	9	Septiembre	2023-09-21T00:00:00	2024-11-06T03:00:00	3	Temperatura mínima	12.8
178964	7	Sololá	701	Sololá	2	El tablón	9	Septiembre	2023-09-21T00:00:00	2024-11-06T03:00:00	5	Humedad	87
178965	7	Sololá	701	Sololá	2	El tablón	9	Septiembre	2023-09-21T00:00:00	2024-11-06T03:00:00	6	Velocidad del viento	8
178966	7	Sololá	701	Sololá	2	El tablón	9	Septiembre	2023-09-21T00:00:00	2024-11-06T03:00:00	7	Dirección del viento	8.05
178967	7	Sololá	701	Sololá	2	El tablón	9	Septiembre	2023-09-21T00:00:00	2024-11-06T03:00:00	1	Precipitación	0
178968	7	Sololá	701	Sololá	2	El tablón	9	Septiembre	2023-09-21T00:00:00	2024-11-06T03:00:00	8	Radiación solar	0
178969	7	Sololá	701	Sololá	2	El tablón	9	Septiembre	2023-09-21T00:00:00	2024-11-06T04:00:00	2	Temperatura media	12.4
178970	7	Sololá	701	Sololá	2	El tablón	9	Septiembre	2023-09-21T00:00:00	2024-11-06T04:00:00	4	Temperatura máxima	13
178971	7	Sololá	701	Sololá	2	El tablón	9	Septiembre	2023-09-21T00:00:00	2024-11-06T04:00:00	3	Temperatura mínima	12.4
178972	7	Sololá	701	Sololá	2	El tablón	9	Septiembre	2023-09-21T00:00:00	2024-11-06T04:00:00	5	Humedad	86
178973	7	Sololá	701	Sololá	2	El tablón	9	Septiembre	2023-09-21T00:00:00	2024-11-06T04:00:00	6	Velocidad del viento	9.7
178974	7	Sololá	701	Sololá	2	El tablón	9	Septiembre	2023-09-21T00:00:00	2024-11-06T04:00:00	7	Dirección del viento	9.66
178975	7	Sololá	701	Sololá	2	El tablón	9	Septiembre	2023-09-21T00:00:00	2024-11-06T04:00:00	1	Precipitación	0
178976	7	Sololá	701	Sololá	2	El tablón	9	Septiembre	2023-09-21T00:00:00	2024-11-06T04:00:00	8	Radiación solar	0
178977	7	Sololá	701	Sololá	2	El tablón	9	Septiembre	2023-09-21T00:00:00	2024-11-06T05:00:00	2	Temperatura media	12.6
178978	7	Sololá	701	Sololá	2	El tablón	9	Septiembre	2023-09-21T00:00:00	2024-11-06T05:00:00	4	Temperatura máxima	12.7
178979	7	Sololá	701	Sololá	2	El tablón	9	Septiembre	2023-09-21T00:00:00	2024-11-06T05:00:00	3	Temperatura mínima	12.3
178980	7	Sololá	701	Sololá	2	El tablón	9	Septiembre	2023-09-21T00:00:00	2024-11-06T05:00:00	5	Humedad	82
178981	7	Sololá	701	Sololá	2	El tablón	9	Septiembre	2023-09-21T00:00:00	2024-11-06T05:00:00	6	Velocidad del viento	6.4
178982	7	Sololá	701	Sololá	2	El tablón	9	Septiembre	2023-09-21T00:00:00	2024-11-06T05:00:00	7	Dirección del viento	6.44
178983	7	Sololá	701	Sololá	2	El tablón	9	Septiembre	2023-09-21T00:00:00	2024-11-06T05:00:00	1	Precipitación	0
178984	7	Sololá	701	Sololá	2	El tablón	9	Septiembre	2023-09-21T00:00:00	2024-11-06T05:00:00	8	Radiación solar	0
178985	7	Sololá	701	Sololá	2	El tablón	9	Septiembre	2023-09-21T00:00:00	2024-11-06T06:00:00	2	Temperatura media	12.9
178986	7	Sololá	701	Sololá	2	El tablón	9	Septiembre	2023-09-21T00:00:00	2024-11-06T06:00:00	4	Temperatura máxima	12.9
178987	7	Sololá	701	Sololá	2	El tablón	9	Septiembre	2023-09-21T00:00:00	2024-11-06T06:00:00	3	Temperatura mínima	12.6
178988	7	Sololá	701	Sololá	2	El tablón	9	Septiembre	2023-09-21T00:00:00	2024-11-06T06:00:00	5	Humedad	82
178989	7	Sololá	701	Sololá	2	El tablón	9	Septiembre	2023-09-21T00:00:00	2024-11-06T06:00:00	6	Velocidad del viento	6.4
178990	7	Sololá	701	Sololá	2	El tablón	9	Septiembre	2023-09-21T00:00:00	2024-11-06T06:00:00	7	Dirección del viento	6.44
178991	7	Sololá	701	Sololá	2	El tablón	9	Septiembre	2023-09-21T00:00:00	2024-11-06T06:00:00	1	Precipitación	0
178992	7	Sololá	701	Sololá	2	El tablón	9	Septiembre	2023-09-21T00:00:00	2024-11-06T06:00:00	8	Radiación solar	0
178993	7	Sololá	701	Sololá	2	El tablón	9	Septiembre	2023-09-21T00:00:00	2024-11-06T07:00:00	2	Temperatura media	13.8
178994	7	Sololá	701	Sololá	2	El tablón	9	Septiembre	2023-09-21T00:00:00	2024-11-06T07:00:00	4	Temperatura máxima	13.8
178995	7	Sololá	701	Sololá	2	El tablón	9	Septiembre	2023-09-21T00:00:00	2024-11-06T07:00:00	3	Temperatura mínima	12.9
178996	7	Sololá	701	Sololá	2	El tablón	9	Septiembre	2023-09-21T00:00:00	2024-11-06T07:00:00	5	Humedad	84
178997	7	Sololá	701	Sololá	2	El tablón	9	Septiembre	2023-09-21T00:00:00	2024-11-06T07:00:00	6	Velocidad del viento	12.9
178998	7	Sololá	701	Sololá	2	El tablón	9	Septiembre	2023-09-21T00:00:00	2024-11-06T07:00:00	7	Dirección del viento	12.87
178999	7	Sololá	701	Sololá	2	El tablón	9	Septiembre	2023-09-21T00:00:00	2024-11-06T07:00:00	1	Precipitación	0
179000	7	Sololá	701	Sololá	2	El tablón	9	Septiembre	2023-09-21T00:00:00	2024-11-06T07:00:00	8	Radiación solar	67
179001	7	Sololá	701	Sololá	2	El tablón	9	Septiembre	2023-09-21T00:00:00	2024-11-06T08:00:00	2	Temperatura media	15.3
179002	7	Sololá	701	Sololá	2	El tablón	9	Septiembre	2023-09-21T00:00:00	2024-11-06T08:00:00	4	Temperatura máxima	15.3
179003	7	Sololá	701	Sololá	2	El tablón	9	Septiembre	2023-09-21T00:00:00	2024-11-06T08:00:00	3	Temperatura mínima	13.8
179004	7	Sololá	701	Sololá	2	El tablón	9	Septiembre	2023-09-21T00:00:00	2024-11-06T08:00:00	5	Humedad	81
179005	7	Sololá	701	Sololá	2	El tablón	9	Septiembre	2023-09-21T00:00:00	2024-11-06T08:00:00	6	Velocidad del viento	11.3
179006	7	Sololá	701	Sololá	2	El tablón	9	Septiembre	2023-09-21T00:00:00	2024-11-06T08:00:00	7	Dirección del viento	11.27
179007	7	Sololá	701	Sololá	2	El tablón	9	Septiembre	2023-09-21T00:00:00	2024-11-06T08:00:00	1	Precipitación	0
179008	7	Sololá	701	Sololá	2	El tablón	9	Septiembre	2023-09-21T00:00:00	2024-11-06T08:00:00	8	Radiación solar	207
179009	7	Sololá	701	Sololá	2	El tablón	9	Septiembre	2023-09-21T00:00:00	2024-11-06T09:00:00	2	Temperatura media	17.4
179010	7	Sololá	701	Sololá	2	El tablón	9	Septiembre	2023-09-21T00:00:00	2024-11-06T09:00:00	4	Temperatura máxima	17.4
179011	7	Sololá	701	Sololá	2	El tablón	9	Septiembre	2023-09-21T00:00:00	2024-11-06T09:00:00	3	Temperatura mínima	15.3
179012	7	Sololá	701	Sololá	2	El tablón	9	Septiembre	2023-09-21T00:00:00	2024-11-06T09:00:00	5	Humedad	77
179013	7	Sololá	701	Sololá	2	El tablón	9	Septiembre	2023-09-21T00:00:00	2024-11-06T09:00:00	6	Velocidad del viento	12.9
179014	7	Sololá	701	Sololá	2	El tablón	9	Septiembre	2023-09-21T00:00:00	2024-11-06T09:00:00	7	Dirección del viento	12.87
179015	7	Sololá	701	Sololá	2	El tablón	9	Septiembre	2023-09-21T00:00:00	2024-11-06T09:00:00	1	Precipitación	0
179016	7	Sololá	701	Sololá	2	El tablón	9	Septiembre	2023-09-21T00:00:00	2024-11-06T09:00:00	8	Radiación solar	504
179017	7	Sololá	701	Sololá	2	El tablón	9	Septiembre	2023-09-21T00:00:00	2024-11-06T10:00:00	2	Temperatura media	19.1
179018	7	Sololá	701	Sololá	2	El tablón	9	Septiembre	2023-09-21T00:00:00	2024-11-06T10:00:00	4	Temperatura máxima	19.1
179019	7	Sololá	701	Sololá	2	El tablón	9	Septiembre	2023-09-21T00:00:00	2024-11-06T10:00:00	3	Temperatura mínima	17.4
179020	7	Sololá	701	Sololá	2	El tablón	9	Septiembre	2023-09-21T00:00:00	2024-11-06T10:00:00	5	Humedad	71
179021	7	Sololá	701	Sololá	2	El tablón	9	Septiembre	2023-09-21T00:00:00	2024-11-06T10:00:00	6	Velocidad del viento	9.7
179022	7	Sololá	701	Sololá	2	El tablón	9	Septiembre	2023-09-21T00:00:00	2024-11-06T10:00:00	7	Dirección del viento	9.66
179023	7	Sololá	701	Sololá	2	El tablón	9	Septiembre	2023-09-21T00:00:00	2024-11-06T10:00:00	1	Precipitación	0
179024	7	Sololá	701	Sololá	2	El tablón	9	Septiembre	2023-09-21T00:00:00	2024-11-06T10:00:00	8	Radiación solar	640
179025	7	Sololá	701	Sololá	2	El tablón	9	Septiembre	2023-09-21T00:00:00	2024-11-06T11:00:00	2	Temperatura media	18.6
179026	7	Sololá	701	Sololá	2	El tablón	9	Septiembre	2023-09-21T00:00:00	2024-11-06T11:00:00	4	Temperatura máxima	19.1
179027	7	Sololá	701	Sololá	2	El tablón	9	Septiembre	2023-09-21T00:00:00	2024-11-06T11:00:00	3	Temperatura mínima	18
179028	7	Sololá	701	Sololá	2	El tablón	9	Septiembre	2023-09-21T00:00:00	2024-11-06T11:00:00	5	Humedad	74
179029	7	Sololá	701	Sololá	2	El tablón	9	Septiembre	2023-09-21T00:00:00	2024-11-06T11:00:00	6	Velocidad del viento	9.7
179030	7	Sololá	701	Sololá	2	El tablón	9	Septiembre	2023-09-21T00:00:00	2024-11-06T11:00:00	7	Dirección del viento	9.66
179031	7	Sololá	701	Sololá	2	El tablón	9	Septiembre	2023-09-21T00:00:00	2024-11-06T11:00:00	1	Precipitación	0
179032	7	Sololá	701	Sololá	2	El tablón	9	Septiembre	2023-09-21T00:00:00	2024-11-06T11:00:00	8	Radiación solar	471
179033	7	Sololá	701	Sololá	2	El tablón	9	Septiembre	2023-09-21T00:00:00	2024-11-06T12:00:00	2	Temperatura media	20.1
179034	7	Sololá	701	Sololá	2	El tablón	9	Septiembre	2023-09-21T00:00:00	2024-11-06T12:00:00	4	Temperatura máxima	20.2
179035	7	Sololá	701	Sololá	2	El tablón	9	Septiembre	2023-09-21T00:00:00	2024-11-06T12:00:00	3	Temperatura mínima	18.6
179036	7	Sololá	701	Sololá	2	El tablón	9	Septiembre	2023-09-21T00:00:00	2024-11-06T12:00:00	5	Humedad	69
179037	7	Sololá	701	Sololá	2	El tablón	9	Septiembre	2023-09-21T00:00:00	2024-11-06T12:00:00	6	Velocidad del viento	9.7
179038	7	Sololá	701	Sololá	2	El tablón	9	Septiembre	2023-09-21T00:00:00	2024-11-06T12:00:00	7	Dirección del viento	9.66
179039	7	Sololá	701	Sololá	2	El tablón	9	Septiembre	2023-09-21T00:00:00	2024-11-06T12:00:00	1	Precipitación	0
179040	7	Sololá	701	Sololá	2	El tablón	9	Septiembre	2023-09-21T00:00:00	2024-11-06T12:00:00	8	Radiación solar	890
179041	7	Sololá	701	Sololá	2	El tablón	9	Septiembre	2023-09-21T00:00:00	2024-11-06T13:00:00	2	Temperatura media	20.1
179042	7	Sololá	701	Sololá	2	El tablón	9	Septiembre	2023-09-21T00:00:00	2024-11-06T13:00:00	4	Temperatura máxima	20.3
179043	7	Sololá	701	Sololá	2	El tablón	9	Septiembre	2023-09-21T00:00:00	2024-11-06T13:00:00	3	Temperatura mínima	19.8
179044	7	Sololá	701	Sololá	2	El tablón	9	Septiembre	2023-09-21T00:00:00	2024-11-06T13:00:00	5	Humedad	69
179045	7	Sololá	701	Sololá	2	El tablón	9	Septiembre	2023-09-21T00:00:00	2024-11-06T13:00:00	6	Velocidad del viento	11.3
179046	7	Sololá	701	Sololá	2	El tablón	9	Septiembre	2023-09-21T00:00:00	2024-11-06T13:00:00	7	Dirección del viento	11.27
179047	7	Sololá	701	Sololá	2	El tablón	9	Septiembre	2023-09-21T00:00:00	2024-11-06T13:00:00	1	Precipitación	0
179048	7	Sololá	701	Sololá	2	El tablón	9	Septiembre	2023-09-21T00:00:00	2024-11-06T13:00:00	8	Radiación solar	813
179049	7	Sololá	701	Sololá	2	El tablón	9	Septiembre	2023-09-21T00:00:00	2024-11-06T14:00:00	2	Temperatura media	20.7
179050	7	Sololá	701	Sololá	2	El tablón	9	Septiembre	2023-09-21T00:00:00	2024-11-06T14:00:00	4	Temperatura máxima	21.1
179051	7	Sololá	701	Sololá	2	El tablón	9	Septiembre	2023-09-21T00:00:00	2024-11-06T14:00:00	3	Temperatura mínima	20.1
179052	7	Sololá	701	Sololá	2	El tablón	9	Septiembre	2023-09-21T00:00:00	2024-11-06T14:00:00	5	Humedad	66
179053	7	Sololá	701	Sololá	2	El tablón	9	Septiembre	2023-09-21T00:00:00	2024-11-06T14:00:00	6	Velocidad del viento	11.3
179054	7	Sololá	701	Sololá	2	El tablón	9	Septiembre	2023-09-21T00:00:00	2024-11-06T14:00:00	7	Dirección del viento	11.27
179055	7	Sololá	701	Sololá	2	El tablón	9	Septiembre	2023-09-21T00:00:00	2024-11-06T14:00:00	1	Precipitación	0
179056	7	Sololá	701	Sololá	2	El tablón	9	Septiembre	2023-09-21T00:00:00	2024-11-06T14:00:00	8	Radiación solar	882
179057	7	Sololá	701	Sololá	2	El tablón	9	Septiembre	2023-09-21T00:00:00	2024-11-06T15:00:00	2	Temperatura media	19.8
179058	7	Sololá	701	Sololá	2	El tablón	9	Septiembre	2023-09-21T00:00:00	2024-11-06T15:00:00	4	Temperatura máxima	20.9
179059	7	Sololá	701	Sololá	2	El tablón	9	Septiembre	2023-09-21T00:00:00	2024-11-06T15:00:00	3	Temperatura mínima	19.8
179060	7	Sololá	701	Sololá	2	El tablón	9	Septiembre	2023-09-21T00:00:00	2024-11-06T15:00:00	5	Humedad	69
179061	7	Sololá	701	Sololá	2	El tablón	9	Septiembre	2023-09-21T00:00:00	2024-11-06T15:00:00	6	Velocidad del viento	11.3
179062	7	Sololá	701	Sololá	2	El tablón	9	Septiembre	2023-09-21T00:00:00	2024-11-06T15:00:00	7	Dirección del viento	11.27
179063	7	Sololá	701	Sololá	2	El tablón	9	Septiembre	2023-09-21T00:00:00	2024-11-06T15:00:00	1	Precipitación	0
179064	7	Sololá	701	Sololá	2	El tablón	9	Septiembre	2023-09-21T00:00:00	2024-11-06T15:00:00	8	Radiación solar	673
179065	7	Sololá	701	Sololá	2	El tablón	9	Septiembre	2023-09-21T00:00:00	2024-11-06T16:00:00	2	Temperatura media	20.5
179066	7	Sololá	701	Sololá	2	El tablón	9	Septiembre	2023-09-21T00:00:00	2024-11-06T16:00:00	4	Temperatura máxima	20.5
179067	7	Sololá	701	Sololá	2	El tablón	9	Septiembre	2023-09-21T00:00:00	2024-11-06T16:00:00	3	Temperatura mínima	19.6
179068	7	Sololá	701	Sololá	2	El tablón	9	Septiembre	2023-09-21T00:00:00	2024-11-06T16:00:00	5	Humedad	68
179069	7	Sololá	701	Sololá	2	El tablón	9	Septiembre	2023-09-21T00:00:00	2024-11-06T16:00:00	6	Velocidad del viento	8
179070	7	Sololá	701	Sololá	2	El tablón	9	Septiembre	2023-09-21T00:00:00	2024-11-06T16:00:00	7	Dirección del viento	8.05
179071	7	Sololá	701	Sololá	2	El tablón	9	Septiembre	2023-09-21T00:00:00	2024-11-06T16:00:00	1	Precipitación	0
179072	7	Sololá	701	Sololá	2	El tablón	9	Septiembre	2023-09-21T00:00:00	2024-11-06T16:00:00	8	Radiación solar	352
179073	7	Sololá	701	Sololá	2	El tablón	9	Septiembre	2023-09-21T00:00:00	2024-11-06T17:00:00	2	Temperatura media	19.4
179074	7	Sololá	701	Sololá	2	El tablón	9	Septiembre	2023-09-21T00:00:00	2024-11-06T17:00:00	4	Temperatura máxima	20.5
179075	7	Sololá	701	Sololá	2	El tablón	9	Septiembre	2023-09-21T00:00:00	2024-11-06T17:00:00	3	Temperatura mínima	19.4
179076	7	Sololá	701	Sololá	2	El tablón	9	Septiembre	2023-09-21T00:00:00	2024-11-06T17:00:00	5	Humedad	81
179077	7	Sololá	701	Sololá	2	El tablón	9	Septiembre	2023-09-21T00:00:00	2024-11-06T17:00:00	6	Velocidad del viento	8
179078	7	Sololá	701	Sololá	2	El tablón	9	Septiembre	2023-09-21T00:00:00	2024-11-06T17:00:00	7	Dirección del viento	8.05
179079	7	Sololá	701	Sololá	2	El tablón	9	Septiembre	2023-09-21T00:00:00	2024-11-06T17:00:00	1	Precipitación	0
179080	7	Sololá	701	Sololá	2	El tablón	9	Septiembre	2023-09-21T00:00:00	2024-11-06T17:00:00	8	Radiación solar	293
179081	7	Sololá	701	Sololá	2	El tablón	9	Septiembre	2023-09-21T00:00:00	2024-11-06T18:00:00	2	Temperatura media	16.2
179082	7	Sololá	701	Sololá	2	El tablón	9	Septiembre	2023-09-21T00:00:00	2024-11-06T18:00:00	4	Temperatura máxima	19.4
179083	7	Sololá	701	Sololá	2	El tablón	9	Septiembre	2023-09-21T00:00:00	2024-11-06T18:00:00	3	Temperatura mínima	16.2
179084	7	Sololá	701	Sololá	2	El tablón	9	Septiembre	2023-09-21T00:00:00	2024-11-06T18:00:00	5	Humedad	87
179085	7	Sololá	701	Sololá	2	El tablón	9	Septiembre	2023-09-21T00:00:00	2024-11-06T18:00:00	6	Velocidad del viento	3.2
179086	7	Sololá	701	Sololá	2	El tablón	9	Septiembre	2023-09-21T00:00:00	2024-11-06T18:00:00	7	Dirección del viento	3.22
179087	7	Sololá	701	Sololá	2	El tablón	9	Septiembre	2023-09-21T00:00:00	2024-11-06T18:00:00	1	Precipitación	0
179088	7	Sololá	701	Sololá	2	El tablón	9	Septiembre	2023-09-21T00:00:00	2024-11-06T18:00:00	8	Radiación solar	39
179089	7	Sololá	701	Sololá	2	El tablón	9	Septiembre	2023-09-21T00:00:00	2024-11-06T19:00:00	2	Temperatura media	15.8
179090	7	Sololá	701	Sololá	2	El tablón	9	Septiembre	2023-09-21T00:00:00	2024-11-06T19:00:00	4	Temperatura máxima	16.3
179091	7	Sololá	701	Sololá	2	El tablón	9	Septiembre	2023-09-21T00:00:00	2024-11-06T19:00:00	3	Temperatura mínima	15.8
179092	7	Sololá	701	Sololá	2	El tablón	9	Septiembre	2023-09-21T00:00:00	2024-11-06T19:00:00	5	Humedad	87
179093	7	Sololá	701	Sololá	2	El tablón	9	Septiembre	2023-09-21T00:00:00	2024-11-06T19:00:00	6	Velocidad del viento	3.2
179094	7	Sololá	701	Sololá	2	El tablón	9	Septiembre	2023-09-21T00:00:00	2024-11-06T19:00:00	7	Dirección del viento	3.22
179095	7	Sololá	701	Sololá	2	El tablón	9	Septiembre	2023-09-21T00:00:00	2024-11-06T19:00:00	1	Precipitación	0
179096	7	Sololá	701	Sololá	2	El tablón	9	Septiembre	2023-09-21T00:00:00	2024-11-06T19:00:00	8	Radiación solar	0
179097	7	Sololá	701	Sololá	2	El tablón	9	Septiembre	2023-09-21T00:00:00	2024-11-06T20:00:00	2	Temperatura media	15.2
179098	7	Sololá	701	Sololá	2	El tablón	9	Septiembre	2023-09-21T00:00:00	2024-11-06T20:00:00	4	Temperatura máxima	15.8
179099	7	Sololá	701	Sololá	2	El tablón	9	Septiembre	2023-09-21T00:00:00	2024-11-06T20:00:00	3	Temperatura mínima	15.2
179100	7	Sololá	701	Sololá	2	El tablón	9	Septiembre	2023-09-21T00:00:00	2024-11-06T20:00:00	5	Humedad	87
179101	7	Sololá	701	Sololá	2	El tablón	9	Septiembre	2023-09-21T00:00:00	2024-11-06T20:00:00	6	Velocidad del viento	4.8
179102	7	Sololá	701	Sololá	2	El tablón	9	Septiembre	2023-09-21T00:00:00	2024-11-06T20:00:00	7	Dirección del viento	4.83
179103	7	Sololá	701	Sololá	2	El tablón	9	Septiembre	2023-09-21T00:00:00	2024-11-06T20:00:00	1	Precipitación	0
179104	7	Sololá	701	Sololá	2	El tablón	9	Septiembre	2023-09-21T00:00:00	2024-11-06T20:00:00	8	Radiación solar	0
179105	7	Sololá	701	Sololá	2	El tablón	9	Septiembre	2023-09-21T00:00:00	2024-11-06T21:00:00	2	Temperatura media	15.4
179106	7	Sololá	701	Sololá	2	El tablón	9	Septiembre	2023-09-21T00:00:00	2024-11-06T21:00:00	4	Temperatura máxima	15.5
179107	7	Sololá	701	Sololá	2	El tablón	9	Septiembre	2023-09-21T00:00:00	2024-11-06T21:00:00	3	Temperatura mínima	15.2
179108	7	Sololá	701	Sololá	2	El tablón	9	Septiembre	2023-09-21T00:00:00	2024-11-06T21:00:00	5	Humedad	88
179109	7	Sololá	701	Sololá	2	El tablón	9	Septiembre	2023-09-21T00:00:00	2024-11-06T21:00:00	6	Velocidad del viento	3.2
179110	7	Sololá	701	Sololá	2	El tablón	9	Septiembre	2023-09-21T00:00:00	2024-11-06T21:00:00	7	Dirección del viento	3.22
179111	7	Sololá	701	Sololá	2	El tablón	9	Septiembre	2023-09-21T00:00:00	2024-11-06T21:00:00	1	Precipitación	0
179112	7	Sololá	701	Sololá	2	El tablón	9	Septiembre	2023-09-21T00:00:00	2024-11-06T21:00:00	8	Radiación solar	0
179113	7	Sololá	701	Sololá	2	El tablón	9	Septiembre	2023-09-21T00:00:00	2024-11-06T22:00:00	2	Temperatura media	14.2
179114	7	Sololá	701	Sololá	2	El tablón	9	Septiembre	2023-09-21T00:00:00	2024-11-06T22:00:00	4	Temperatura máxima	15.4
179115	7	Sololá	701	Sololá	2	El tablón	9	Septiembre	2023-09-21T00:00:00	2024-11-06T22:00:00	3	Temperatura mínima	14.2
179116	7	Sololá	701	Sololá	2	El tablón	9	Septiembre	2023-09-21T00:00:00	2024-11-06T22:00:00	5	Humedad	86
179117	7	Sololá	701	Sololá	2	El tablón	9	Septiembre	2023-09-21T00:00:00	2024-11-06T22:00:00	6	Velocidad del viento	6.4
179118	7	Sololá	701	Sololá	2	El tablón	9	Septiembre	2023-09-21T00:00:00	2024-11-06T22:00:00	7	Dirección del viento	6.44
179119	7	Sololá	701	Sololá	2	El tablón	9	Septiembre	2023-09-21T00:00:00	2024-11-06T22:00:00	1	Precipitación	19.2
179120	7	Sololá	701	Sololá	2	El tablón	9	Septiembre	2023-09-21T00:00:00	2024-11-06T22:00:00	8	Radiación solar	0
179121	7	Sololá	701	Sololá	2	El tablón	9	Septiembre	2023-09-21T00:00:00	2024-11-06T23:00:00	2	Temperatura media	13.8
179122	7	Sololá	701	Sololá	2	El tablón	9	Septiembre	2023-09-21T00:00:00	2024-11-06T23:00:00	4	Temperatura máxima	14.2
179123	7	Sololá	701	Sololá	2	El tablón	9	Septiembre	2023-09-21T00:00:00	2024-11-06T23:00:00	3	Temperatura mínima	13.8
179124	7	Sololá	701	Sololá	2	El tablón	9	Septiembre	2023-09-21T00:00:00	2024-11-06T23:00:00	5	Humedad	86
179125	7	Sololá	701	Sololá	2	El tablón	9	Septiembre	2023-09-21T00:00:00	2024-11-06T23:00:00	6	Velocidad del viento	3.2
179126	7	Sololá	701	Sololá	2	El tablón	9	Septiembre	2023-09-21T00:00:00	2024-11-06T23:00:00	7	Dirección del viento	3.22
179127	7	Sololá	701	Sololá	2	El tablón	9	Septiembre	2023-09-21T00:00:00	2024-11-06T23:00:00	1	Precipitación	6
179128	7	Sololá	701	Sololá	2	El tablón	9	Septiembre	2023-09-21T00:00:00	2024-11-06T23:00:00	8	Radiación solar	0
179129	7	Sololá	701	Sololá	2	El tablón	9	Septiembre	2023-09-22T00:00:00	2024-11-06T00:00:00	2	Temperatura media	13.4
179130	7	Sololá	701	Sololá	2	El tablón	9	Septiembre	2023-09-22T00:00:00	2024-11-06T00:00:00	4	Temperatura máxima	13.8
179131	7	Sololá	701	Sololá	2	El tablón	9	Septiembre	2023-09-22T00:00:00	2024-11-06T00:00:00	3	Temperatura mínima	13.4
179132	7	Sololá	701	Sololá	2	El tablón	9	Septiembre	2023-09-22T00:00:00	2024-11-06T00:00:00	5	Humedad	87
179133	7	Sololá	701	Sololá	2	El tablón	9	Septiembre	2023-09-22T00:00:00	2024-11-06T00:00:00	6	Velocidad del viento	4.8
179134	7	Sololá	701	Sololá	2	El tablón	9	Septiembre	2023-09-22T00:00:00	2024-11-06T00:00:00	7	Dirección del viento	4.83
179135	7	Sololá	701	Sololá	2	El tablón	9	Septiembre	2023-09-22T00:00:00	2024-11-06T00:00:00	1	Precipitación	0
179136	7	Sololá	701	Sololá	2	El tablón	9	Septiembre	2023-09-22T00:00:00	2024-11-06T00:00:00	8	Radiación solar	0
179137	7	Sololá	701	Sololá	2	El tablón	9	Septiembre	2023-09-22T00:00:00	2024-11-06T01:00:00	2	Temperatura media	13.6
179138	7	Sololá	701	Sololá	2	El tablón	9	Septiembre	2023-09-22T00:00:00	2024-11-06T01:00:00	4	Temperatura máxima	13.6
179139	7	Sololá	701	Sololá	2	El tablón	9	Septiembre	2023-09-22T00:00:00	2024-11-06T01:00:00	3	Temperatura mínima	13.4
179140	7	Sololá	701	Sololá	2	El tablón	9	Septiembre	2023-09-22T00:00:00	2024-11-06T01:00:00	5	Humedad	87
179141	7	Sololá	701	Sololá	2	El tablón	9	Septiembre	2023-09-22T00:00:00	2024-11-06T01:00:00	6	Velocidad del viento	4.8
179142	7	Sololá	701	Sololá	2	El tablón	9	Septiembre	2023-09-22T00:00:00	2024-11-06T01:00:00	7	Dirección del viento	4.83
179143	7	Sololá	701	Sololá	2	El tablón	9	Septiembre	2023-09-22T00:00:00	2024-11-06T01:00:00	1	Precipitación	0.2
179144	7	Sololá	701	Sololá	2	El tablón	9	Septiembre	2023-09-22T00:00:00	2024-11-06T01:00:00	8	Radiación solar	0
179145	7	Sololá	701	Sololá	2	El tablón	9	Septiembre	2023-09-22T00:00:00	2024-11-06T02:00:00	2	Temperatura media	13.7
179146	7	Sololá	701	Sololá	2	El tablón	9	Septiembre	2023-09-22T00:00:00	2024-11-06T02:00:00	4	Temperatura máxima	13.7
179147	7	Sololá	701	Sololá	2	El tablón	9	Septiembre	2023-09-22T00:00:00	2024-11-06T02:00:00	3	Temperatura mínima	13.5
179148	7	Sololá	701	Sololá	2	El tablón	9	Septiembre	2023-09-22T00:00:00	2024-11-06T02:00:00	5	Humedad	87
179149	7	Sololá	701	Sololá	2	El tablón	9	Septiembre	2023-09-22T00:00:00	2024-11-06T02:00:00	6	Velocidad del viento	4.8
179150	7	Sololá	701	Sololá	2	El tablón	9	Septiembre	2023-09-22T00:00:00	2024-11-06T02:00:00	7	Dirección del viento	4.83
179151	7	Sololá	701	Sololá	2	El tablón	9	Septiembre	2023-09-22T00:00:00	2024-11-06T02:00:00	1	Precipitación	0.2
179152	7	Sololá	701	Sololá	2	El tablón	9	Septiembre	2023-09-22T00:00:00	2024-11-06T02:00:00	8	Radiación solar	0
179153	7	Sololá	701	Sololá	2	El tablón	9	Septiembre	2023-09-22T00:00:00	2024-11-06T03:00:00	2	Temperatura media	13.5
179154	7	Sololá	701	Sololá	2	El tablón	9	Septiembre	2023-09-22T00:00:00	2024-11-06T03:00:00	4	Temperatura máxima	13.7
179155	7	Sololá	701	Sololá	2	El tablón	9	Septiembre	2023-09-22T00:00:00	2024-11-06T03:00:00	3	Temperatura mínima	13.4
179156	7	Sololá	701	Sololá	2	El tablón	9	Septiembre	2023-09-22T00:00:00	2024-11-06T03:00:00	5	Humedad	88
179157	7	Sololá	701	Sololá	2	El tablón	9	Septiembre	2023-09-22T00:00:00	2024-11-06T03:00:00	6	Velocidad del viento	6.4
179158	7	Sololá	701	Sololá	2	El tablón	9	Septiembre	2023-09-22T00:00:00	2024-11-06T03:00:00	7	Dirección del viento	6.44
179159	7	Sololá	701	Sololá	2	El tablón	9	Septiembre	2023-09-22T00:00:00	2024-11-06T03:00:00	1	Precipitación	0
179160	7	Sololá	701	Sololá	2	El tablón	9	Septiembre	2023-09-22T00:00:00	2024-11-06T03:00:00	8	Radiación solar	0
179161	7	Sololá	701	Sololá	2	El tablón	9	Septiembre	2023-09-22T00:00:00	2024-11-06T04:00:00	2	Temperatura media	13.3
179162	7	Sololá	701	Sololá	2	El tablón	9	Septiembre	2023-09-22T00:00:00	2024-11-06T04:00:00	4	Temperatura máxima	13.6
179163	7	Sololá	701	Sololá	2	El tablón	9	Septiembre	2023-09-22T00:00:00	2024-11-06T04:00:00	3	Temperatura mínima	13.3
179164	7	Sololá	701	Sololá	2	El tablón	9	Septiembre	2023-09-22T00:00:00	2024-11-06T04:00:00	5	Humedad	88
179165	7	Sololá	701	Sololá	2	El tablón	9	Septiembre	2023-09-22T00:00:00	2024-11-06T04:00:00	6	Velocidad del viento	9.7
179166	7	Sololá	701	Sololá	2	El tablón	9	Septiembre	2023-09-22T00:00:00	2024-11-06T04:00:00	7	Dirección del viento	9.66
179167	7	Sololá	701	Sololá	2	El tablón	9	Septiembre	2023-09-22T00:00:00	2024-11-06T04:00:00	1	Precipitación	0
179168	7	Sololá	701	Sololá	2	El tablón	9	Septiembre	2023-09-22T00:00:00	2024-11-06T04:00:00	8	Radiación solar	0
179169	7	Sololá	701	Sololá	2	El tablón	9	Septiembre	2023-09-22T00:00:00	2024-11-06T05:00:00	2	Temperatura media	13.3
179170	7	Sololá	701	Sololá	2	El tablón	9	Septiembre	2023-09-22T00:00:00	2024-11-06T05:00:00	4	Temperatura máxima	13.4
179171	7	Sololá	701	Sololá	2	El tablón	9	Septiembre	2023-09-22T00:00:00	2024-11-06T05:00:00	3	Temperatura mínima	13.3
179172	7	Sololá	701	Sololá	2	El tablón	9	Septiembre	2023-09-22T00:00:00	2024-11-06T05:00:00	5	Humedad	88
179173	7	Sololá	701	Sololá	2	El tablón	9	Septiembre	2023-09-22T00:00:00	2024-11-06T05:00:00	6	Velocidad del viento	8
179174	7	Sololá	701	Sololá	2	El tablón	9	Septiembre	2023-09-22T00:00:00	2024-11-06T05:00:00	7	Dirección del viento	8.05
179175	7	Sololá	701	Sololá	2	El tablón	9	Septiembre	2023-09-22T00:00:00	2024-11-06T05:00:00	1	Precipitación	0
179176	7	Sololá	701	Sololá	2	El tablón	9	Septiembre	2023-09-22T00:00:00	2024-11-06T05:00:00	8	Radiación solar	0
179177	7	Sololá	701	Sololá	2	El tablón	9	Septiembre	2023-09-22T00:00:00	2024-11-06T06:00:00	2	Temperatura media	13.7
179178	7	Sololá	701	Sololá	2	El tablón	9	Septiembre	2023-09-22T00:00:00	2024-11-06T06:00:00	4	Temperatura máxima	13.7
179179	7	Sololá	701	Sololá	2	El tablón	9	Septiembre	2023-09-22T00:00:00	2024-11-06T06:00:00	3	Temperatura mínima	13.3
179180	7	Sololá	701	Sololá	2	El tablón	9	Septiembre	2023-09-22T00:00:00	2024-11-06T06:00:00	5	Humedad	87
179181	7	Sololá	701	Sololá	2	El tablón	9	Septiembre	2023-09-22T00:00:00	2024-11-06T06:00:00	6	Velocidad del viento	6.4
179182	7	Sololá	701	Sololá	2	El tablón	9	Septiembre	2023-09-22T00:00:00	2024-11-06T06:00:00	7	Dirección del viento	6.44
179183	7	Sololá	701	Sololá	2	El tablón	9	Septiembre	2023-09-22T00:00:00	2024-11-06T06:00:00	1	Precipitación	0
179184	7	Sololá	701	Sololá	2	El tablón	9	Septiembre	2023-09-22T00:00:00	2024-11-06T06:00:00	8	Radiación solar	0
179185	7	Sololá	701	Sololá	2	El tablón	9	Septiembre	2023-09-22T00:00:00	2024-11-06T07:00:00	2	Temperatura media	13.9
179186	7	Sololá	701	Sololá	2	El tablón	9	Septiembre	2023-09-22T00:00:00	2024-11-06T07:00:00	4	Temperatura máxima	13.9
179187	7	Sololá	701	Sololá	2	El tablón	9	Septiembre	2023-09-22T00:00:00	2024-11-06T07:00:00	3	Temperatura mínima	13.5
179188	7	Sololá	701	Sololá	2	El tablón	9	Septiembre	2023-09-22T00:00:00	2024-11-06T07:00:00	5	Humedad	87
179189	7	Sololá	701	Sololá	2	El tablón	9	Septiembre	2023-09-22T00:00:00	2024-11-06T07:00:00	6	Velocidad del viento	8
179190	7	Sololá	701	Sololá	2	El tablón	9	Septiembre	2023-09-22T00:00:00	2024-11-06T07:00:00	7	Dirección del viento	8.05
179191	7	Sololá	701	Sololá	2	El tablón	9	Septiembre	2023-09-22T00:00:00	2024-11-06T07:00:00	1	Precipitación	0
179192	7	Sololá	701	Sololá	2	El tablón	9	Septiembre	2023-09-22T00:00:00	2024-11-06T07:00:00	8	Radiación solar	39
179193	7	Sololá	701	Sololá	2	El tablón	9	Septiembre	2023-09-22T00:00:00	2024-11-06T08:00:00	2	Temperatura media	16.1
179194	7	Sololá	701	Sololá	2	El tablón	9	Septiembre	2023-09-22T00:00:00	2024-11-06T08:00:00	4	Temperatura máxima	16.1
179195	7	Sololá	701	Sololá	2	El tablón	9	Septiembre	2023-09-22T00:00:00	2024-11-06T08:00:00	3	Temperatura mínima	14
179196	7	Sololá	701	Sololá	2	El tablón	9	Septiembre	2023-09-22T00:00:00	2024-11-06T08:00:00	5	Humedad	81
179197	7	Sololá	701	Sololá	2	El tablón	9	Septiembre	2023-09-22T00:00:00	2024-11-06T08:00:00	6	Velocidad del viento	12.9
179198	7	Sololá	701	Sololá	2	El tablón	9	Septiembre	2023-09-22T00:00:00	2024-11-06T08:00:00	7	Dirección del viento	12.87
179199	7	Sololá	701	Sololá	2	El tablón	9	Septiembre	2023-09-22T00:00:00	2024-11-06T08:00:00	1	Precipitación	0
179200	7	Sololá	701	Sololá	2	El tablón	9	Septiembre	2023-09-22T00:00:00	2024-11-06T08:00:00	8	Radiación solar	257
179201	7	Sololá	701	Sololá	2	El tablón	9	Septiembre	2023-09-22T00:00:00	2024-11-06T09:00:00	2	Temperatura media	17.7
179202	7	Sololá	701	Sololá	2	El tablón	9	Septiembre	2023-09-22T00:00:00	2024-11-06T09:00:00	4	Temperatura máxima	17.8
179203	7	Sololá	701	Sololá	2	El tablón	9	Septiembre	2023-09-22T00:00:00	2024-11-06T09:00:00	3	Temperatura mínima	16.1
179204	7	Sololá	701	Sololá	2	El tablón	9	Septiembre	2023-09-22T00:00:00	2024-11-06T09:00:00	5	Humedad	75
179205	7	Sololá	701	Sololá	2	El tablón	9	Septiembre	2023-09-22T00:00:00	2024-11-06T09:00:00	6	Velocidad del viento	9.7
179206	7	Sololá	701	Sololá	2	El tablón	9	Septiembre	2023-09-22T00:00:00	2024-11-06T09:00:00	7	Dirección del viento	9.66
179207	7	Sololá	701	Sololá	2	El tablón	9	Septiembre	2023-09-22T00:00:00	2024-11-06T09:00:00	1	Precipitación	0
179208	7	Sololá	701	Sololá	2	El tablón	9	Septiembre	2023-09-22T00:00:00	2024-11-06T09:00:00	8	Radiación solar	424
179209	7	Sololá	701	Sololá	2	El tablón	9	Septiembre	2023-09-22T00:00:00	2024-11-06T10:00:00	2	Temperatura media	16.9
179210	7	Sololá	701	Sololá	2	El tablón	9	Septiembre	2023-09-22T00:00:00	2024-11-06T10:00:00	4	Temperatura máxima	18.3
179211	7	Sololá	701	Sololá	2	El tablón	9	Septiembre	2023-09-22T00:00:00	2024-11-06T10:00:00	3	Temperatura mínima	16.9
179212	7	Sololá	701	Sololá	2	El tablón	9	Septiembre	2023-09-22T00:00:00	2024-11-06T10:00:00	5	Humedad	76
179213	7	Sololá	701	Sololá	2	El tablón	9	Septiembre	2023-09-22T00:00:00	2024-11-06T10:00:00	6	Velocidad del viento	9.7
179214	7	Sololá	701	Sololá	2	El tablón	9	Septiembre	2023-09-22T00:00:00	2024-11-06T10:00:00	7	Dirección del viento	9.66
179215	7	Sololá	701	Sololá	2	El tablón	9	Septiembre	2023-09-22T00:00:00	2024-11-06T10:00:00	1	Precipitación	0
179216	7	Sololá	701	Sololá	2	El tablón	9	Septiembre	2023-09-22T00:00:00	2024-11-06T10:00:00	8	Radiación solar	496
179217	7	Sololá	701	Sololá	2	El tablón	9	Septiembre	2023-09-22T00:00:00	2024-11-06T11:00:00	2	Temperatura media	18.8
179218	7	Sololá	701	Sololá	2	El tablón	9	Septiembre	2023-09-22T00:00:00	2024-11-06T11:00:00	4	Temperatura máxima	19.1
179219	7	Sololá	701	Sololá	2	El tablón	9	Septiembre	2023-09-22T00:00:00	2024-11-06T11:00:00	3	Temperatura mínima	16.8
179220	7	Sololá	701	Sololá	2	El tablón	9	Septiembre	2023-09-22T00:00:00	2024-11-06T11:00:00	5	Humedad	72
179221	7	Sololá	701	Sololá	2	El tablón	9	Septiembre	2023-09-22T00:00:00	2024-11-06T11:00:00	6	Velocidad del viento	8
179222	7	Sololá	701	Sololá	2	El tablón	9	Septiembre	2023-09-22T00:00:00	2024-11-06T11:00:00	7	Dirección del viento	8.05
179223	7	Sololá	701	Sololá	2	El tablón	9	Septiembre	2023-09-22T00:00:00	2024-11-06T11:00:00	1	Precipitación	0
179224	7	Sololá	701	Sololá	2	El tablón	9	Septiembre	2023-09-22T00:00:00	2024-11-06T11:00:00	8	Radiación solar	880
179225	7	Sololá	701	Sololá	2	El tablón	9	Septiembre	2023-09-22T00:00:00	2024-11-06T12:00:00	2	Temperatura media	19.2
179226	7	Sololá	701	Sololá	2	El tablón	9	Septiembre	2023-09-22T00:00:00	2024-11-06T12:00:00	4	Temperatura máxima	19.7
179227	7	Sololá	701	Sololá	2	El tablón	9	Septiembre	2023-09-22T00:00:00	2024-11-06T12:00:00	3	Temperatura mínima	18.7
179228	7	Sololá	701	Sololá	2	El tablón	9	Septiembre	2023-09-22T00:00:00	2024-11-06T12:00:00	5	Humedad	69
179229	7	Sololá	701	Sololá	2	El tablón	9	Septiembre	2023-09-22T00:00:00	2024-11-06T12:00:00	6	Velocidad del viento	8
179230	7	Sololá	701	Sololá	2	El tablón	9	Septiembre	2023-09-22T00:00:00	2024-11-06T12:00:00	7	Dirección del viento	8.05
179231	7	Sololá	701	Sololá	2	El tablón	9	Septiembre	2023-09-22T00:00:00	2024-11-06T12:00:00	1	Precipitación	0
179232	7	Sololá	701	Sololá	2	El tablón	9	Septiembre	2023-09-22T00:00:00	2024-11-06T12:00:00	8	Radiación solar	795
179233	7	Sololá	701	Sololá	2	El tablón	9	Septiembre	2023-09-22T00:00:00	2024-11-06T13:00:00	2	Temperatura media	18.8
179234	7	Sololá	701	Sololá	2	El tablón	9	Septiembre	2023-09-22T00:00:00	2024-11-06T13:00:00	4	Temperatura máxima	19.2
179235	7	Sololá	701	Sololá	2	El tablón	9	Septiembre	2023-09-22T00:00:00	2024-11-06T13:00:00	3	Temperatura mínima	18.6
179236	7	Sololá	701	Sololá	2	El tablón	9	Septiembre	2023-09-22T00:00:00	2024-11-06T13:00:00	5	Humedad	70
179237	7	Sololá	701	Sololá	2	El tablón	9	Septiembre	2023-09-22T00:00:00	2024-11-06T13:00:00	6	Velocidad del viento	6.4
179238	7	Sololá	701	Sololá	2	El tablón	9	Septiembre	2023-09-22T00:00:00	2024-11-06T13:00:00	7	Dirección del viento	6.44
179239	7	Sololá	701	Sololá	2	El tablón	9	Septiembre	2023-09-22T00:00:00	2024-11-06T13:00:00	1	Precipitación	0
179240	7	Sololá	701	Sololá	2	El tablón	9	Septiembre	2023-09-22T00:00:00	2024-11-06T13:00:00	8	Radiación solar	251
179241	7	Sololá	701	Sololá	2	El tablón	9	Septiembre	2023-09-22T00:00:00	2024-11-06T14:00:00	2	Temperatura media	19.7
179242	7	Sololá	701	Sololá	2	El tablón	9	Septiembre	2023-09-22T00:00:00	2024-11-06T14:00:00	4	Temperatura máxima	20.8
179243	7	Sololá	701	Sololá	2	El tablón	9	Septiembre	2023-09-22T00:00:00	2024-11-06T14:00:00	3	Temperatura mínima	18.5
179244	7	Sololá	701	Sololá	2	El tablón	9	Septiembre	2023-09-22T00:00:00	2024-11-06T14:00:00	5	Humedad	67
179245	7	Sololá	701	Sololá	2	El tablón	9	Septiembre	2023-09-22T00:00:00	2024-11-06T14:00:00	6	Velocidad del viento	8
179246	7	Sololá	701	Sololá	2	El tablón	9	Septiembre	2023-09-22T00:00:00	2024-11-06T14:00:00	7	Dirección del viento	8.05
179247	7	Sololá	701	Sololá	2	El tablón	9	Septiembre	2023-09-22T00:00:00	2024-11-06T14:00:00	1	Precipitación	0
179248	7	Sololá	701	Sololá	2	El tablón	9	Septiembre	2023-09-22T00:00:00	2024-11-06T14:00:00	8	Radiación solar	607
179249	7	Sololá	701	Sololá	2	El tablón	9	Septiembre	2023-09-22T00:00:00	2024-11-06T15:00:00	2	Temperatura media	18.8
179250	7	Sololá	701	Sololá	2	El tablón	9	Septiembre	2023-09-22T00:00:00	2024-11-06T15:00:00	4	Temperatura máxima	20.6
179251	7	Sololá	701	Sololá	2	El tablón	9	Septiembre	2023-09-22T00:00:00	2024-11-06T15:00:00	3	Temperatura mínima	18.8
179252	7	Sololá	701	Sololá	2	El tablón	9	Septiembre	2023-09-22T00:00:00	2024-11-06T15:00:00	5	Humedad	73
179253	7	Sololá	701	Sololá	2	El tablón	9	Septiembre	2023-09-22T00:00:00	2024-11-06T15:00:00	6	Velocidad del viento	8
179254	7	Sololá	701	Sololá	2	El tablón	9	Septiembre	2023-09-22T00:00:00	2024-11-06T15:00:00	7	Dirección del viento	8.05
179255	7	Sololá	701	Sololá	2	El tablón	9	Septiembre	2023-09-22T00:00:00	2024-11-06T15:00:00	1	Precipitación	0
179256	7	Sololá	701	Sololá	2	El tablón	9	Septiembre	2023-09-22T00:00:00	2024-11-06T15:00:00	8	Radiación solar	429
179257	7	Sololá	701	Sololá	2	El tablón	9	Septiembre	2023-09-22T00:00:00	2024-11-06T16:00:00	2	Temperatura media	18.9
179258	7	Sololá	701	Sololá	2	El tablón	9	Septiembre	2023-09-22T00:00:00	2024-11-06T16:00:00	4	Temperatura máxima	19.7
179259	7	Sololá	701	Sololá	2	El tablón	9	Septiembre	2023-09-22T00:00:00	2024-11-06T16:00:00	3	Temperatura mínima	18.8
179260	7	Sololá	701	Sololá	2	El tablón	9	Septiembre	2023-09-22T00:00:00	2024-11-06T16:00:00	5	Humedad	73
179261	7	Sololá	701	Sololá	2	El tablón	9	Septiembre	2023-09-22T00:00:00	2024-11-06T16:00:00	6	Velocidad del viento	9.7
179262	7	Sololá	701	Sololá	2	El tablón	9	Septiembre	2023-09-22T00:00:00	2024-11-06T16:00:00	7	Dirección del viento	9.66
179263	7	Sololá	701	Sololá	2	El tablón	9	Septiembre	2023-09-22T00:00:00	2024-11-06T16:00:00	1	Precipitación	0
179264	7	Sololá	701	Sololá	2	El tablón	9	Septiembre	2023-09-22T00:00:00	2024-11-06T16:00:00	8	Radiación solar	523
179265	7	Sololá	701	Sololá	2	El tablón	9	Septiembre	2023-09-22T00:00:00	2024-11-06T17:00:00	2	Temperatura media	18.6
179266	7	Sololá	701	Sololá	2	El tablón	9	Septiembre	2023-09-22T00:00:00	2024-11-06T17:00:00	4	Temperatura máxima	19.3
179267	7	Sololá	701	Sololá	2	El tablón	9	Septiembre	2023-09-22T00:00:00	2024-11-06T17:00:00	3	Temperatura mínima	18.6
179268	7	Sololá	701	Sololá	2	El tablón	9	Septiembre	2023-09-22T00:00:00	2024-11-06T17:00:00	5	Humedad	71
179269	7	Sololá	701	Sololá	2	El tablón	9	Septiembre	2023-09-22T00:00:00	2024-11-06T17:00:00	6	Velocidad del viento	8
179270	7	Sololá	701	Sololá	2	El tablón	9	Septiembre	2023-09-22T00:00:00	2024-11-06T17:00:00	7	Dirección del viento	8.05
179271	7	Sololá	701	Sololá	2	El tablón	9	Septiembre	2023-09-22T00:00:00	2024-11-06T17:00:00	1	Precipitación	0
179272	7	Sololá	701	Sololá	2	El tablón	9	Septiembre	2023-09-22T00:00:00	2024-11-06T17:00:00	8	Radiación solar	309
179273	7	Sololá	701	Sololá	2	El tablón	9	Septiembre	2023-09-22T00:00:00	2024-11-06T18:00:00	2	Temperatura media	17.7
179274	7	Sololá	701	Sololá	2	El tablón	9	Septiembre	2023-09-22T00:00:00	2024-11-06T18:00:00	4	Temperatura máxima	18.6
179275	7	Sololá	701	Sololá	2	El tablón	9	Septiembre	2023-09-22T00:00:00	2024-11-06T18:00:00	3	Temperatura mínima	17.7
179276	7	Sololá	701	Sololá	2	El tablón	9	Septiembre	2023-09-22T00:00:00	2024-11-06T18:00:00	5	Humedad	78
179277	7	Sololá	701	Sololá	2	El tablón	9	Septiembre	2023-09-22T00:00:00	2024-11-06T18:00:00	6	Velocidad del viento	4.8
179278	7	Sololá	701	Sololá	2	El tablón	9	Septiembre	2023-09-22T00:00:00	2024-11-06T18:00:00	7	Dirección del viento	4.83
179279	7	Sololá	701	Sololá	2	El tablón	9	Septiembre	2023-09-22T00:00:00	2024-11-06T18:00:00	1	Precipitación	0
179280	7	Sololá	701	Sololá	2	El tablón	9	Septiembre	2023-09-22T00:00:00	2024-11-06T18:00:00	8	Radiación solar	123
179281	7	Sololá	701	Sololá	2	El tablón	9	Septiembre	2023-09-22T00:00:00	2024-11-06T19:00:00	2	Temperatura media	16
179282	7	Sololá	701	Sololá	2	El tablón	9	Septiembre	2023-09-22T00:00:00	2024-11-06T19:00:00	4	Temperatura máxima	17.7
179283	7	Sololá	701	Sololá	2	El tablón	9	Septiembre	2023-09-22T00:00:00	2024-11-06T19:00:00	3	Temperatura mínima	16
179284	7	Sololá	701	Sololá	2	El tablón	9	Septiembre	2023-09-22T00:00:00	2024-11-06T19:00:00	5	Humedad	86
179285	7	Sololá	701	Sololá	2	El tablón	9	Septiembre	2023-09-22T00:00:00	2024-11-06T19:00:00	6	Velocidad del viento	3.2
179286	7	Sololá	701	Sololá	2	El tablón	9	Septiembre	2023-09-22T00:00:00	2024-11-06T19:00:00	7	Dirección del viento	3.22
179287	7	Sololá	701	Sololá	2	El tablón	9	Septiembre	2023-09-22T00:00:00	2024-11-06T19:00:00	1	Precipitación	0
179288	7	Sololá	701	Sololá	2	El tablón	9	Septiembre	2023-09-22T00:00:00	2024-11-06T19:00:00	8	Radiación solar	0
179289	7	Sololá	701	Sololá	2	El tablón	9	Septiembre	2023-09-22T00:00:00	2024-11-06T20:00:00	2	Temperatura media	14.7
179290	7	Sololá	701	Sololá	2	El tablón	9	Septiembre	2023-09-22T00:00:00	2024-11-06T20:00:00	4	Temperatura máxima	16.1
179291	7	Sololá	701	Sololá	2	El tablón	9	Septiembre	2023-09-22T00:00:00	2024-11-06T20:00:00	3	Temperatura mínima	14.7
179292	7	Sololá	701	Sololá	2	El tablón	9	Septiembre	2023-09-22T00:00:00	2024-11-06T20:00:00	5	Humedad	87
179293	7	Sololá	701	Sololá	2	El tablón	9	Septiembre	2023-09-22T00:00:00	2024-11-06T20:00:00	6	Velocidad del viento	3.2
179294	7	Sololá	701	Sololá	2	El tablón	9	Septiembre	2023-09-22T00:00:00	2024-11-06T20:00:00	7	Dirección del viento	3.22
179295	7	Sololá	701	Sololá	2	El tablón	9	Septiembre	2023-09-22T00:00:00	2024-11-06T20:00:00	1	Precipitación	6.8
179296	7	Sololá	701	Sololá	2	El tablón	9	Septiembre	2023-09-22T00:00:00	2024-11-06T20:00:00	8	Radiación solar	0
179297	7	Sololá	701	Sololá	2	El tablón	9	Septiembre	2023-09-22T00:00:00	2024-11-06T21:00:00	2	Temperatura media	14.3
179298	7	Sololá	701	Sololá	2	El tablón	9	Septiembre	2023-09-22T00:00:00	2024-11-06T21:00:00	4	Temperatura máxima	14.7
179299	7	Sololá	701	Sololá	2	El tablón	9	Septiembre	2023-09-22T00:00:00	2024-11-06T21:00:00	3	Temperatura mínima	14.3
179300	7	Sololá	701	Sololá	2	El tablón	9	Septiembre	2023-09-22T00:00:00	2024-11-06T21:00:00	5	Humedad	88
179301	7	Sololá	701	Sololá	2	El tablón	9	Septiembre	2023-09-22T00:00:00	2024-11-06T21:00:00	6	Velocidad del viento	4.8
179302	7	Sololá	701	Sololá	2	El tablón	9	Septiembre	2023-09-22T00:00:00	2024-11-06T21:00:00	7	Dirección del viento	4.83
179303	7	Sololá	701	Sololá	2	El tablón	9	Septiembre	2023-09-22T00:00:00	2024-11-06T21:00:00	1	Precipitación	0
179304	7	Sololá	701	Sololá	2	El tablón	9	Septiembre	2023-09-22T00:00:00	2024-11-06T21:00:00	8	Radiación solar	0
179305	7	Sololá	701	Sololá	2	El tablón	9	Septiembre	2023-09-22T00:00:00	2024-11-06T22:00:00	2	Temperatura media	14.2
179306	7	Sololá	701	Sololá	2	El tablón	9	Septiembre	2023-09-22T00:00:00	2024-11-06T22:00:00	4	Temperatura máxima	14.3
179307	7	Sololá	701	Sololá	2	El tablón	9	Septiembre	2023-09-22T00:00:00	2024-11-06T22:00:00	3	Temperatura mínima	14.2
179308	7	Sololá	701	Sololá	2	El tablón	9	Septiembre	2023-09-22T00:00:00	2024-11-06T22:00:00	5	Humedad	87
179309	7	Sololá	701	Sololá	2	El tablón	9	Septiembre	2023-09-22T00:00:00	2024-11-06T22:00:00	6	Velocidad del viento	4.8
179310	7	Sololá	701	Sololá	2	El tablón	9	Septiembre	2023-09-22T00:00:00	2024-11-06T22:00:00	7	Dirección del viento	4.83
179311	7	Sololá	701	Sololá	2	El tablón	9	Septiembre	2023-09-22T00:00:00	2024-11-06T22:00:00	1	Precipitación	0
179312	7	Sololá	701	Sololá	2	El tablón	9	Septiembre	2023-09-22T00:00:00	2024-11-06T22:00:00	8	Radiación solar	0
179313	7	Sololá	701	Sololá	2	El tablón	9	Septiembre	2023-09-22T00:00:00	2024-11-06T23:00:00	2	Temperatura media	13.6
179314	7	Sololá	701	Sololá	2	El tablón	9	Septiembre	2023-09-22T00:00:00	2024-11-06T23:00:00	4	Temperatura máxima	14.3
179315	7	Sololá	701	Sololá	2	El tablón	9	Septiembre	2023-09-22T00:00:00	2024-11-06T23:00:00	3	Temperatura mínima	13.5
179316	7	Sololá	701	Sololá	2	El tablón	9	Septiembre	2023-09-22T00:00:00	2024-11-06T23:00:00	5	Humedad	87
179317	7	Sololá	701	Sololá	2	El tablón	9	Septiembre	2023-09-22T00:00:00	2024-11-06T23:00:00	6	Velocidad del viento	6.4
179318	7	Sololá	701	Sololá	2	El tablón	9	Septiembre	2023-09-22T00:00:00	2024-11-06T23:00:00	7	Dirección del viento	6.44
179319	7	Sololá	701	Sololá	2	El tablón	9	Septiembre	2023-09-22T00:00:00	2024-11-06T23:00:00	1	Precipitación	0
179320	7	Sololá	701	Sololá	2	El tablón	9	Septiembre	2023-09-22T00:00:00	2024-11-06T23:00:00	8	Radiación solar	0
179321	7	Sololá	701	Sololá	2	El tablón	9	Septiembre	2023-09-23T00:00:00	2024-11-06T00:00:00	2	Temperatura media	13.2
179322	7	Sololá	701	Sololá	2	El tablón	9	Septiembre	2023-09-23T00:00:00	2024-11-06T00:00:00	4	Temperatura máxima	13.6
179323	7	Sololá	701	Sololá	2	El tablón	9	Septiembre	2023-09-23T00:00:00	2024-11-06T00:00:00	3	Temperatura mínima	13.2
179324	7	Sololá	701	Sololá	2	El tablón	9	Septiembre	2023-09-23T00:00:00	2024-11-06T00:00:00	5	Humedad	86
179325	7	Sololá	701	Sololá	2	El tablón	9	Septiembre	2023-09-23T00:00:00	2024-11-06T00:00:00	6	Velocidad del viento	6.4
179326	7	Sololá	701	Sololá	2	El tablón	9	Septiembre	2023-09-23T00:00:00	2024-11-06T00:00:00	7	Dirección del viento	6.44
179327	7	Sololá	701	Sololá	2	El tablón	9	Septiembre	2023-09-23T00:00:00	2024-11-06T00:00:00	1	Precipitación	0
179328	7	Sololá	701	Sololá	2	El tablón	9	Septiembre	2023-09-23T00:00:00	2024-11-06T00:00:00	8	Radiación solar	0
179329	7	Sololá	701	Sololá	2	El tablón	9	Septiembre	2023-09-23T00:00:00	2024-11-06T01:00:00	2	Temperatura media	13.2
179330	7	Sololá	701	Sololá	2	El tablón	9	Septiembre	2023-09-23T00:00:00	2024-11-06T01:00:00	4	Temperatura máxima	13.3
179331	7	Sololá	701	Sololá	2	El tablón	9	Septiembre	2023-09-23T00:00:00	2024-11-06T01:00:00	3	Temperatura mínima	12.9
179332	7	Sololá	701	Sololá	2	El tablón	9	Septiembre	2023-09-23T00:00:00	2024-11-06T01:00:00	5	Humedad	87
179333	7	Sololá	701	Sololá	2	El tablón	9	Septiembre	2023-09-23T00:00:00	2024-11-06T01:00:00	6	Velocidad del viento	8
179334	7	Sololá	701	Sololá	2	El tablón	9	Septiembre	2023-09-23T00:00:00	2024-11-06T01:00:00	7	Dirección del viento	8.05
179335	7	Sololá	701	Sololá	2	El tablón	9	Septiembre	2023-09-23T00:00:00	2024-11-06T01:00:00	1	Precipitación	0
179336	7	Sololá	701	Sololá	2	El tablón	9	Septiembre	2023-09-23T00:00:00	2024-11-06T01:00:00	8	Radiación solar	0
179337	7	Sololá	701	Sololá	2	El tablón	9	Septiembre	2023-09-23T00:00:00	2024-11-06T02:00:00	2	Temperatura media	13.2
179338	7	Sololá	701	Sololá	2	El tablón	9	Septiembre	2023-09-23T00:00:00	2024-11-06T02:00:00	4	Temperatura máxima	13.3
179339	7	Sololá	701	Sololá	2	El tablón	9	Septiembre	2023-09-23T00:00:00	2024-11-06T02:00:00	3	Temperatura mínima	13.2
179340	7	Sololá	701	Sololá	2	El tablón	9	Septiembre	2023-09-23T00:00:00	2024-11-06T02:00:00	5	Humedad	84
179341	7	Sololá	701	Sololá	2	El tablón	9	Septiembre	2023-09-23T00:00:00	2024-11-06T02:00:00	6	Velocidad del viento	9.7
179342	7	Sololá	701	Sololá	2	El tablón	9	Septiembre	2023-09-23T00:00:00	2024-11-06T02:00:00	7	Dirección del viento	9.66
179343	7	Sololá	701	Sololá	2	El tablón	9	Septiembre	2023-09-23T00:00:00	2024-11-06T02:00:00	1	Precipitación	0
179344	7	Sololá	701	Sololá	2	El tablón	9	Septiembre	2023-09-23T00:00:00	2024-11-06T02:00:00	8	Radiación solar	0
179345	7	Sololá	701	Sololá	2	El tablón	9	Septiembre	2023-09-23T00:00:00	2024-11-06T03:00:00	2	Temperatura media	13.4
179346	7	Sololá	701	Sololá	2	El tablón	9	Septiembre	2023-09-23T00:00:00	2024-11-06T03:00:00	4	Temperatura máxima	13.4
179347	7	Sololá	701	Sololá	2	El tablón	9	Septiembre	2023-09-23T00:00:00	2024-11-06T03:00:00	3	Temperatura mínima	13
179348	7	Sololá	701	Sololá	2	El tablón	9	Septiembre	2023-09-23T00:00:00	2024-11-06T03:00:00	5	Humedad	81
179349	7	Sololá	701	Sololá	2	El tablón	9	Septiembre	2023-09-23T00:00:00	2024-11-06T03:00:00	6	Velocidad del viento	8
179350	7	Sololá	701	Sololá	2	El tablón	9	Septiembre	2023-09-23T00:00:00	2024-11-06T03:00:00	7	Dirección del viento	8.05
179351	7	Sololá	701	Sololá	2	El tablón	9	Septiembre	2023-09-23T00:00:00	2024-11-06T03:00:00	1	Precipitación	0
179352	7	Sololá	701	Sololá	2	El tablón	9	Septiembre	2023-09-23T00:00:00	2024-11-06T03:00:00	8	Radiación solar	0
179353	7	Sololá	701	Sololá	2	El tablón	9	Septiembre	2023-09-23T00:00:00	2024-11-06T04:00:00	2	Temperatura media	12.7
179354	7	Sololá	701	Sololá	2	El tablón	9	Septiembre	2023-09-23T00:00:00	2024-11-06T04:00:00	4	Temperatura máxima	13.4
179355	7	Sololá	701	Sololá	2	El tablón	9	Septiembre	2023-09-23T00:00:00	2024-11-06T04:00:00	3	Temperatura mínima	12.6
179356	7	Sololá	701	Sololá	2	El tablón	9	Septiembre	2023-09-23T00:00:00	2024-11-06T04:00:00	5	Humedad	81
179357	7	Sololá	701	Sololá	2	El tablón	9	Septiembre	2023-09-23T00:00:00	2024-11-06T04:00:00	6	Velocidad del viento	4.8
179358	7	Sololá	701	Sololá	2	El tablón	9	Septiembre	2023-09-23T00:00:00	2024-11-06T04:00:00	7	Dirección del viento	4.83
179359	7	Sololá	701	Sololá	2	El tablón	9	Septiembre	2023-09-23T00:00:00	2024-11-06T04:00:00	1	Precipitación	0
179360	7	Sololá	701	Sololá	2	El tablón	9	Septiembre	2023-09-23T00:00:00	2024-11-06T04:00:00	8	Radiación solar	0
179361	7	Sololá	701	Sololá	2	El tablón	9	Septiembre	2023-09-23T00:00:00	2024-11-06T05:00:00	2	Temperatura media	12.2
179362	7	Sololá	701	Sololá	2	El tablón	9	Septiembre	2023-09-23T00:00:00	2024-11-06T05:00:00	4	Temperatura máxima	13.2
179363	7	Sololá	701	Sololá	2	El tablón	9	Septiembre	2023-09-23T00:00:00	2024-11-06T05:00:00	3	Temperatura mínima	11.9
179364	7	Sololá	701	Sololá	2	El tablón	9	Septiembre	2023-09-23T00:00:00	2024-11-06T05:00:00	5	Humedad	79
179365	7	Sololá	701	Sololá	2	El tablón	9	Septiembre	2023-09-23T00:00:00	2024-11-06T05:00:00	6	Velocidad del viento	6.4
179366	7	Sololá	701	Sololá	2	El tablón	9	Septiembre	2023-09-23T00:00:00	2024-11-06T05:00:00	7	Dirección del viento	6.44
179367	7	Sololá	701	Sololá	2	El tablón	9	Septiembre	2023-09-23T00:00:00	2024-11-06T05:00:00	1	Precipitación	0
179368	7	Sololá	701	Sololá	2	El tablón	9	Septiembre	2023-09-23T00:00:00	2024-11-06T05:00:00	8	Radiación solar	0
179369	7	Sololá	701	Sololá	2	El tablón	9	Septiembre	2023-09-23T00:00:00	2024-11-06T06:00:00	2	Temperatura media	12.9
179370	7	Sololá	701	Sololá	2	El tablón	9	Septiembre	2023-09-23T00:00:00	2024-11-06T06:00:00	4	Temperatura máxima	13.1
179371	7	Sololá	701	Sololá	2	El tablón	9	Septiembre	2023-09-23T00:00:00	2024-11-06T06:00:00	3	Temperatura mínima	12.2
179372	7	Sololá	701	Sololá	2	El tablón	9	Septiembre	2023-09-23T00:00:00	2024-11-06T06:00:00	5	Humedad	75
179373	7	Sololá	701	Sololá	2	El tablón	9	Septiembre	2023-09-23T00:00:00	2024-11-06T06:00:00	6	Velocidad del viento	4.8
179374	7	Sololá	701	Sololá	2	El tablón	9	Septiembre	2023-09-23T00:00:00	2024-11-06T06:00:00	7	Dirección del viento	4.83
179375	7	Sololá	701	Sololá	2	El tablón	9	Septiembre	2023-09-23T00:00:00	2024-11-06T06:00:00	1	Precipitación	0
179376	7	Sololá	701	Sololá	2	El tablón	9	Septiembre	2023-09-23T00:00:00	2024-11-06T06:00:00	8	Radiación solar	0
179377	7	Sololá	701	Sololá	2	El tablón	9	Septiembre	2023-09-23T00:00:00	2024-11-06T07:00:00	2	Temperatura media	14.7
179378	7	Sololá	701	Sololá	2	El tablón	9	Septiembre	2023-09-23T00:00:00	2024-11-06T07:00:00	4	Temperatura máxima	14.7
179379	7	Sololá	701	Sololá	2	El tablón	9	Septiembre	2023-09-23T00:00:00	2024-11-06T07:00:00	3	Temperatura mínima	12.2
179380	7	Sololá	701	Sololá	2	El tablón	9	Septiembre	2023-09-23T00:00:00	2024-11-06T07:00:00	5	Humedad	70
179381	7	Sololá	701	Sololá	2	El tablón	9	Septiembre	2023-09-23T00:00:00	2024-11-06T07:00:00	6	Velocidad del viento	6.4
179382	7	Sololá	701	Sololá	2	El tablón	9	Septiembre	2023-09-23T00:00:00	2024-11-06T07:00:00	7	Dirección del viento	6.44
179383	7	Sololá	701	Sololá	2	El tablón	9	Septiembre	2023-09-23T00:00:00	2024-11-06T07:00:00	1	Precipitación	0
179384	7	Sololá	701	Sololá	2	El tablón	9	Septiembre	2023-09-23T00:00:00	2024-11-06T07:00:00	8	Radiación solar	62
179385	7	Sololá	701	Sololá	2	El tablón	9	Septiembre	2023-09-23T00:00:00	2024-11-06T08:00:00	2	Temperatura media	15.9
179386	7	Sololá	701	Sololá	2	El tablón	9	Septiembre	2023-09-23T00:00:00	2024-11-06T08:00:00	4	Temperatura máxima	16.1
179387	7	Sololá	701	Sololá	2	El tablón	9	Septiembre	2023-09-23T00:00:00	2024-11-06T08:00:00	3	Temperatura mínima	14.7
179388	7	Sololá	701	Sololá	2	El tablón	9	Septiembre	2023-09-23T00:00:00	2024-11-06T08:00:00	5	Humedad	74
179389	7	Sololá	701	Sololá	2	El tablón	9	Septiembre	2023-09-23T00:00:00	2024-11-06T08:00:00	6	Velocidad del viento	9.7
179390	7	Sololá	701	Sololá	2	El tablón	9	Septiembre	2023-09-23T00:00:00	2024-11-06T08:00:00	7	Dirección del viento	9.66
179391	7	Sololá	701	Sololá	2	El tablón	9	Septiembre	2023-09-23T00:00:00	2024-11-06T08:00:00	1	Precipitación	0
179392	7	Sololá	701	Sololá	2	El tablón	9	Septiembre	2023-09-23T00:00:00	2024-11-06T08:00:00	8	Radiación solar	237
179393	7	Sololá	701	Sololá	2	El tablón	9	Septiembre	2023-09-23T00:00:00	2024-11-06T09:00:00	2	Temperatura media	17.7
179394	7	Sololá	701	Sololá	2	El tablón	9	Septiembre	2023-09-23T00:00:00	2024-11-06T09:00:00	4	Temperatura máxima	17.7
179395	7	Sololá	701	Sololá	2	El tablón	9	Septiembre	2023-09-23T00:00:00	2024-11-06T09:00:00	3	Temperatura mínima	15.8
179396	7	Sololá	701	Sololá	2	El tablón	9	Septiembre	2023-09-23T00:00:00	2024-11-06T09:00:00	5	Humedad	64
179397	7	Sololá	701	Sololá	2	El tablón	9	Septiembre	2023-09-23T00:00:00	2024-11-06T09:00:00	6	Velocidad del viento	9.7
179398	7	Sololá	701	Sololá	2	El tablón	9	Septiembre	2023-09-23T00:00:00	2024-11-06T09:00:00	7	Dirección del viento	9.66
179399	7	Sololá	701	Sololá	2	El tablón	9	Septiembre	2023-09-23T00:00:00	2024-11-06T09:00:00	1	Precipitación	0
179400	7	Sololá	701	Sololá	2	El tablón	9	Septiembre	2023-09-23T00:00:00	2024-11-06T09:00:00	8	Radiación solar	401
179401	7	Sololá	701	Sololá	2	El tablón	9	Septiembre	2023-09-23T00:00:00	2024-11-06T10:00:00	2	Temperatura media	19.2
179402	7	Sololá	701	Sololá	2	El tablón	9	Septiembre	2023-09-23T00:00:00	2024-11-06T10:00:00	4	Temperatura máxima	19.3
179403	7	Sololá	701	Sololá	2	El tablón	9	Septiembre	2023-09-23T00:00:00	2024-11-06T10:00:00	3	Temperatura mínima	17.6
179404	7	Sololá	701	Sololá	2	El tablón	9	Septiembre	2023-09-23T00:00:00	2024-11-06T10:00:00	5	Humedad	60
179405	7	Sololá	701	Sololá	2	El tablón	9	Septiembre	2023-09-23T00:00:00	2024-11-06T10:00:00	6	Velocidad del viento	9.7
179406	7	Sololá	701	Sololá	2	El tablón	9	Septiembre	2023-09-23T00:00:00	2024-11-06T10:00:00	7	Dirección del viento	9.66
179407	7	Sololá	701	Sololá	2	El tablón	9	Septiembre	2023-09-23T00:00:00	2024-11-06T10:00:00	1	Precipitación	0
179408	7	Sololá	701	Sololá	2	El tablón	9	Septiembre	2023-09-23T00:00:00	2024-11-06T10:00:00	8	Radiación solar	636
179409	7	Sololá	701	Sololá	2	El tablón	9	Septiembre	2023-09-23T00:00:00	2024-11-06T11:00:00	2	Temperatura media	19.1
179410	7	Sololá	701	Sololá	2	El tablón	9	Septiembre	2023-09-23T00:00:00	2024-11-06T11:00:00	4	Temperatura máxima	20
179411	7	Sololá	701	Sololá	2	El tablón	9	Septiembre	2023-09-23T00:00:00	2024-11-06T11:00:00	3	Temperatura mínima	19.1
179412	7	Sololá	701	Sololá	2	El tablón	9	Septiembre	2023-09-23T00:00:00	2024-11-06T11:00:00	5	Humedad	61
179413	7	Sololá	701	Sololá	2	El tablón	9	Septiembre	2023-09-23T00:00:00	2024-11-06T11:00:00	6	Velocidad del viento	11.3
179414	7	Sololá	701	Sololá	2	El tablón	9	Septiembre	2023-09-23T00:00:00	2024-11-06T11:00:00	7	Dirección del viento	11.27
179415	7	Sololá	701	Sololá	2	El tablón	9	Septiembre	2023-09-23T00:00:00	2024-11-06T11:00:00	1	Precipitación	0
179416	7	Sololá	701	Sololá	2	El tablón	9	Septiembre	2023-09-23T00:00:00	2024-11-06T11:00:00	8	Radiación solar	848
179417	7	Sololá	701	Sololá	2	El tablón	9	Septiembre	2023-09-23T00:00:00	2024-11-06T12:00:00	2	Temperatura media	20.5
179418	7	Sololá	701	Sololá	2	El tablón	9	Septiembre	2023-09-23T00:00:00	2024-11-06T12:00:00	4	Temperatura máxima	20.5
179419	7	Sololá	701	Sololá	2	El tablón	9	Septiembre	2023-09-23T00:00:00	2024-11-06T12:00:00	3	Temperatura mínima	19.2
179420	7	Sololá	701	Sololá	2	El tablón	9	Septiembre	2023-09-23T00:00:00	2024-11-06T12:00:00	5	Humedad	63
179421	7	Sololá	701	Sololá	2	El tablón	9	Septiembre	2023-09-23T00:00:00	2024-11-06T12:00:00	6	Velocidad del viento	11.3
179422	7	Sololá	701	Sololá	2	El tablón	9	Septiembre	2023-09-23T00:00:00	2024-11-06T12:00:00	7	Dirección del viento	11.27
179423	7	Sololá	701	Sololá	2	El tablón	9	Septiembre	2023-09-23T00:00:00	2024-11-06T12:00:00	1	Precipitación	0
179424	7	Sololá	701	Sololá	2	El tablón	9	Septiembre	2023-09-23T00:00:00	2024-11-06T12:00:00	8	Radiación solar	923
179425	7	Sololá	701	Sololá	2	El tablón	9	Septiembre	2023-09-23T00:00:00	2024-11-06T13:00:00	2	Temperatura media	20.1
179426	7	Sololá	701	Sololá	2	El tablón	9	Septiembre	2023-09-23T00:00:00	2024-11-06T13:00:00	4	Temperatura máxima	20.8
179427	7	Sololá	701	Sololá	2	El tablón	9	Septiembre	2023-09-23T00:00:00	2024-11-06T13:00:00	3	Temperatura mínima	19.6
179428	7	Sololá	701	Sololá	2	El tablón	9	Septiembre	2023-09-23T00:00:00	2024-11-06T13:00:00	5	Humedad	63
179429	7	Sololá	701	Sololá	2	El tablón	9	Septiembre	2023-09-23T00:00:00	2024-11-06T13:00:00	6	Velocidad del viento	9.7
179430	7	Sololá	701	Sololá	2	El tablón	9	Septiembre	2023-09-23T00:00:00	2024-11-06T13:00:00	7	Dirección del viento	9.66
179431	7	Sololá	701	Sololá	2	El tablón	9	Septiembre	2023-09-23T00:00:00	2024-11-06T13:00:00	1	Precipitación	0
179432	7	Sololá	701	Sololá	2	El tablón	9	Septiembre	2023-09-23T00:00:00	2024-11-06T13:00:00	8	Radiación solar	844
179433	7	Sololá	701	Sololá	2	El tablón	9	Septiembre	2023-09-23T00:00:00	2024-11-06T14:00:00	2	Temperatura media	21.2
179434	7	Sololá	701	Sololá	2	El tablón	9	Septiembre	2023-09-23T00:00:00	2024-11-06T14:00:00	4	Temperatura máxima	21.2
179435	7	Sololá	701	Sololá	2	El tablón	9	Septiembre	2023-09-23T00:00:00	2024-11-06T14:00:00	3	Temperatura mínima	20.1
179436	7	Sololá	701	Sololá	2	El tablón	9	Septiembre	2023-09-23T00:00:00	2024-11-06T14:00:00	5	Humedad	58
179437	7	Sololá	701	Sololá	2	El tablón	9	Septiembre	2023-09-23T00:00:00	2024-11-06T14:00:00	6	Velocidad del viento	8
179438	7	Sololá	701	Sololá	2	El tablón	9	Septiembre	2023-09-23T00:00:00	2024-11-06T14:00:00	7	Dirección del viento	8.05
179439	7	Sololá	701	Sololá	2	El tablón	9	Septiembre	2023-09-23T00:00:00	2024-11-06T14:00:00	1	Precipitación	0
179440	7	Sololá	701	Sololá	2	El tablón	9	Septiembre	2023-09-23T00:00:00	2024-11-06T14:00:00	8	Radiación solar	892
179441	7	Sololá	701	Sololá	2	El tablón	9	Septiembre	2023-09-23T00:00:00	2024-11-06T15:00:00	2	Temperatura media	18.6
179442	7	Sololá	701	Sololá	2	El tablón	9	Septiembre	2023-09-23T00:00:00	2024-11-06T15:00:00	4	Temperatura máxima	22.2
179443	7	Sololá	701	Sololá	2	El tablón	9	Septiembre	2023-09-23T00:00:00	2024-11-06T15:00:00	3	Temperatura mínima	18.6
179444	7	Sololá	701	Sololá	2	El tablón	9	Septiembre	2023-09-23T00:00:00	2024-11-06T15:00:00	5	Humedad	85
179445	7	Sololá	701	Sololá	2	El tablón	9	Septiembre	2023-09-23T00:00:00	2024-11-06T15:00:00	6	Velocidad del viento	6.4
179446	7	Sololá	701	Sololá	2	El tablón	9	Septiembre	2023-09-23T00:00:00	2024-11-06T15:00:00	7	Dirección del viento	6.44
179447	7	Sololá	701	Sololá	2	El tablón	9	Septiembre	2023-09-23T00:00:00	2024-11-06T15:00:00	1	Precipitación	0
179448	7	Sololá	701	Sololá	2	El tablón	9	Septiembre	2023-09-23T00:00:00	2024-11-06T15:00:00	8	Radiación solar	477
179449	7	Sololá	701	Sololá	2	El tablón	9	Septiembre	2023-09-23T00:00:00	2024-11-06T16:00:00	2	Temperatura media	18.6
179450	7	Sololá	701	Sololá	2	El tablón	9	Septiembre	2023-09-23T00:00:00	2024-11-06T16:00:00	4	Temperatura máxima	18.8
179451	7	Sololá	701	Sololá	2	El tablón	9	Septiembre	2023-09-23T00:00:00	2024-11-06T16:00:00	3	Temperatura mínima	18
179452	7	Sololá	701	Sololá	2	El tablón	9	Septiembre	2023-09-23T00:00:00	2024-11-06T16:00:00	5	Humedad	84
179453	7	Sololá	701	Sololá	2	El tablón	9	Septiembre	2023-09-23T00:00:00	2024-11-06T16:00:00	6	Velocidad del viento	6.4
179454	7	Sololá	701	Sololá	2	El tablón	9	Septiembre	2023-09-23T00:00:00	2024-11-06T16:00:00	7	Dirección del viento	6.44
179455	7	Sololá	701	Sololá	2	El tablón	9	Septiembre	2023-09-23T00:00:00	2024-11-06T16:00:00	1	Precipitación	0
179456	7	Sololá	701	Sololá	2	El tablón	9	Septiembre	2023-09-23T00:00:00	2024-11-06T16:00:00	8	Radiación solar	302
179457	7	Sololá	701	Sololá	2	El tablón	9	Septiembre	2023-09-23T00:00:00	2024-11-06T17:00:00	2	Temperatura media	18.2
179458	7	Sololá	701	Sololá	2	El tablón	9	Septiembre	2023-09-23T00:00:00	2024-11-06T17:00:00	4	Temperatura máxima	18.6
179459	7	Sololá	701	Sololá	2	El tablón	9	Septiembre	2023-09-23T00:00:00	2024-11-06T17:00:00	3	Temperatura mínima	17.5
179460	7	Sololá	701	Sololá	2	El tablón	9	Septiembre	2023-09-23T00:00:00	2024-11-06T17:00:00	5	Humedad	86
179461	7	Sololá	701	Sololá	2	El tablón	9	Septiembre	2023-09-23T00:00:00	2024-11-06T17:00:00	6	Velocidad del viento	4.8
179462	7	Sololá	701	Sololá	2	El tablón	9	Septiembre	2023-09-23T00:00:00	2024-11-06T17:00:00	7	Dirección del viento	4.83
179463	7	Sololá	701	Sololá	2	El tablón	9	Septiembre	2023-09-23T00:00:00	2024-11-06T17:00:00	1	Precipitación	0
179464	7	Sololá	701	Sololá	2	El tablón	9	Septiembre	2023-09-23T00:00:00	2024-11-06T17:00:00	8	Radiación solar	165
179465	7	Sololá	701	Sololá	2	El tablón	9	Septiembre	2023-09-23T00:00:00	2024-11-06T18:00:00	2	Temperatura media	16.3
179466	7	Sololá	701	Sololá	2	El tablón	9	Septiembre	2023-09-23T00:00:00	2024-11-06T18:00:00	4	Temperatura máxima	18.2
179467	7	Sololá	701	Sololá	2	El tablón	9	Septiembre	2023-09-23T00:00:00	2024-11-06T18:00:00	3	Temperatura mínima	16.3
179468	7	Sololá	701	Sololá	2	El tablón	9	Septiembre	2023-09-23T00:00:00	2024-11-06T18:00:00	5	Humedad	87
179469	7	Sololá	701	Sololá	2	El tablón	9	Septiembre	2023-09-23T00:00:00	2024-11-06T18:00:00	6	Velocidad del viento	3.2
179470	7	Sololá	701	Sololá	2	El tablón	9	Septiembre	2023-09-23T00:00:00	2024-11-06T18:00:00	7	Dirección del viento	3.22
179471	7	Sololá	701	Sololá	2	El tablón	9	Septiembre	2023-09-23T00:00:00	2024-11-06T18:00:00	1	Precipitación	0
179472	7	Sololá	701	Sololá	2	El tablón	9	Septiembre	2023-09-23T00:00:00	2024-11-06T18:00:00	8	Radiación solar	22
179473	7	Sololá	701	Sololá	2	El tablón	9	Septiembre	2023-09-23T00:00:00	2024-11-06T19:00:00	2	Temperatura media	15.4
179474	7	Sololá	701	Sololá	2	El tablón	9	Septiembre	2023-09-23T00:00:00	2024-11-06T19:00:00	4	Temperatura máxima	16.3
179475	7	Sololá	701	Sololá	2	El tablón	9	Septiembre	2023-09-23T00:00:00	2024-11-06T19:00:00	3	Temperatura mínima	15.4
179476	7	Sololá	701	Sololá	2	El tablón	9	Septiembre	2023-09-23T00:00:00	2024-11-06T19:00:00	5	Humedad	87
179477	7	Sololá	701	Sololá	2	El tablón	9	Septiembre	2023-09-23T00:00:00	2024-11-06T19:00:00	6	Velocidad del viento	1.6
179478	7	Sololá	701	Sololá	2	El tablón	9	Septiembre	2023-09-23T00:00:00	2024-11-06T19:00:00	7	Dirección del viento	1.61
179479	7	Sololá	701	Sololá	2	El tablón	9	Septiembre	2023-09-23T00:00:00	2024-11-06T19:00:00	1	Precipitación	0
179480	7	Sololá	701	Sololá	2	El tablón	9	Septiembre	2023-09-23T00:00:00	2024-11-06T19:00:00	8	Radiación solar	0
179481	7	Sololá	701	Sololá	2	El tablón	9	Septiembre	2023-09-23T00:00:00	2024-11-06T20:00:00	2	Temperatura media	15.3
179482	7	Sololá	701	Sololá	2	El tablón	9	Septiembre	2023-09-23T00:00:00	2024-11-06T20:00:00	4	Temperatura máxima	15.5
179483	7	Sololá	701	Sololá	2	El tablón	9	Septiembre	2023-09-23T00:00:00	2024-11-06T20:00:00	3	Temperatura mínima	15.3
179484	7	Sololá	701	Sololá	2	El tablón	9	Septiembre	2023-09-23T00:00:00	2024-11-06T20:00:00	5	Humedad	87
179485	7	Sololá	701	Sololá	2	El tablón	9	Septiembre	2023-09-23T00:00:00	2024-11-06T20:00:00	6	Velocidad del viento	1.6
179486	7	Sololá	701	Sololá	2	El tablón	9	Septiembre	2023-09-23T00:00:00	2024-11-06T20:00:00	7	Dirección del viento	1.61
179487	7	Sololá	701	Sololá	2	El tablón	9	Septiembre	2023-09-23T00:00:00	2024-11-06T20:00:00	1	Precipitación	0
179488	7	Sololá	701	Sololá	2	El tablón	9	Septiembre	2023-09-23T00:00:00	2024-11-06T20:00:00	8	Radiación solar	0
179489	7	Sololá	701	Sololá	2	El tablón	9	Septiembre	2023-09-23T00:00:00	2024-11-06T21:00:00	2	Temperatura media	14.9
179490	7	Sololá	701	Sololá	2	El tablón	9	Septiembre	2023-09-23T00:00:00	2024-11-06T21:00:00	4	Temperatura máxima	15.3
179491	7	Sololá	701	Sololá	2	El tablón	9	Septiembre	2023-09-23T00:00:00	2024-11-06T21:00:00	3	Temperatura mínima	14.9
179492	7	Sololá	701	Sololá	2	El tablón	9	Septiembre	2023-09-23T00:00:00	2024-11-06T21:00:00	5	Humedad	87
179493	7	Sololá	701	Sololá	2	El tablón	9	Septiembre	2023-09-23T00:00:00	2024-11-06T21:00:00	6	Velocidad del viento	1.6
179494	7	Sololá	701	Sololá	2	El tablón	9	Septiembre	2023-09-23T00:00:00	2024-11-06T21:00:00	7	Dirección del viento	1.61
179495	7	Sololá	701	Sololá	2	El tablón	9	Septiembre	2023-09-23T00:00:00	2024-11-06T21:00:00	1	Precipitación	0
179496	7	Sololá	701	Sololá	2	El tablón	9	Septiembre	2023-09-23T00:00:00	2024-11-06T21:00:00	8	Radiación solar	0
179497	7	Sololá	701	Sololá	2	El tablón	9	Septiembre	2023-09-23T00:00:00	2024-11-06T22:00:00	2	Temperatura media	14.3
179498	7	Sololá	701	Sololá	2	El tablón	9	Septiembre	2023-09-23T00:00:00	2024-11-06T22:00:00	4	Temperatura máxima	15
179499	7	Sololá	701	Sololá	2	El tablón	9	Septiembre	2023-09-23T00:00:00	2024-11-06T22:00:00	3	Temperatura mínima	14.3
179500	7	Sololá	701	Sololá	2	El tablón	9	Septiembre	2023-09-23T00:00:00	2024-11-06T22:00:00	5	Humedad	88
179501	7	Sololá	701	Sololá	2	El tablón	9	Septiembre	2023-09-23T00:00:00	2024-11-06T22:00:00	6	Velocidad del viento	3.2
179502	7	Sololá	701	Sololá	2	El tablón	9	Septiembre	2023-09-23T00:00:00	2024-11-06T22:00:00	7	Dirección del viento	3.22
179503	7	Sololá	701	Sololá	2	El tablón	9	Septiembre	2023-09-23T00:00:00	2024-11-06T22:00:00	1	Precipitación	0
179504	7	Sololá	701	Sololá	2	El tablón	9	Septiembre	2023-09-23T00:00:00	2024-11-06T22:00:00	8	Radiación solar	0
179505	7	Sololá	701	Sololá	2	El tablón	9	Septiembre	2023-09-23T00:00:00	2024-11-06T23:00:00	2	Temperatura media	14.3
179506	7	Sololá	701	Sololá	2	El tablón	9	Septiembre	2023-09-23T00:00:00	2024-11-06T23:00:00	4	Temperatura máxima	14.3
179507	7	Sololá	701	Sololá	2	El tablón	9	Septiembre	2023-09-23T00:00:00	2024-11-06T23:00:00	3	Temperatura mínima	14.2
179508	7	Sololá	701	Sololá	2	El tablón	9	Septiembre	2023-09-23T00:00:00	2024-11-06T23:00:00	5	Humedad	87
179509	7	Sololá	701	Sololá	2	El tablón	9	Septiembre	2023-09-23T00:00:00	2024-11-06T23:00:00	6	Velocidad del viento	3.2
179510	7	Sololá	701	Sololá	2	El tablón	9	Septiembre	2023-09-23T00:00:00	2024-11-06T23:00:00	7	Dirección del viento	3.22
179511	7	Sololá	701	Sololá	2	El tablón	9	Septiembre	2023-09-23T00:00:00	2024-11-06T23:00:00	1	Precipitación	0
179512	7	Sololá	701	Sololá	2	El tablón	9	Septiembre	2023-09-23T00:00:00	2024-11-06T23:00:00	8	Radiación solar	0
179513	7	Sololá	701	Sololá	2	El tablón	9	Septiembre	2023-09-24T00:00:00	2024-11-06T00:00:00	2	Temperatura media	13.8
179514	7	Sololá	701	Sololá	2	El tablón	9	Septiembre	2023-09-24T00:00:00	2024-11-06T00:00:00	4	Temperatura máxima	14.5
179515	7	Sololá	701	Sololá	2	El tablón	9	Septiembre	2023-09-24T00:00:00	2024-11-06T00:00:00	3	Temperatura mínima	13.8
179516	7	Sololá	701	Sololá	2	El tablón	9	Septiembre	2023-09-24T00:00:00	2024-11-06T00:00:00	5	Humedad	87
179517	7	Sololá	701	Sololá	2	El tablón	9	Septiembre	2023-09-24T00:00:00	2024-11-06T00:00:00	6	Velocidad del viento	1.6
179518	7	Sololá	701	Sololá	2	El tablón	9	Septiembre	2023-09-24T00:00:00	2024-11-06T00:00:00	7	Dirección del viento	1.61
179519	7	Sololá	701	Sololá	2	El tablón	9	Septiembre	2023-09-24T00:00:00	2024-11-06T00:00:00	1	Precipitación	0
179520	7	Sololá	701	Sololá	2	El tablón	9	Septiembre	2023-09-24T00:00:00	2024-11-06T00:00:00	8	Radiación solar	0
179521	7	Sololá	701	Sololá	2	El tablón	9	Septiembre	2023-09-24T00:00:00	2024-11-06T01:00:00	2	Temperatura media	13.4
179522	7	Sololá	701	Sololá	2	El tablón	9	Septiembre	2023-09-24T00:00:00	2024-11-06T01:00:00	4	Temperatura máxima	13.8
179523	7	Sololá	701	Sololá	2	El tablón	9	Septiembre	2023-09-24T00:00:00	2024-11-06T01:00:00	3	Temperatura mínima	13.4
179524	7	Sololá	701	Sololá	2	El tablón	9	Septiembre	2023-09-24T00:00:00	2024-11-06T01:00:00	5	Humedad	87
179525	7	Sololá	701	Sololá	2	El tablón	9	Septiembre	2023-09-24T00:00:00	2024-11-06T01:00:00	6	Velocidad del viento	3.2
179526	7	Sololá	701	Sololá	2	El tablón	9	Septiembre	2023-09-24T00:00:00	2024-11-06T01:00:00	7	Dirección del viento	3.22
179527	7	Sololá	701	Sololá	2	El tablón	9	Septiembre	2023-09-24T00:00:00	2024-11-06T01:00:00	1	Precipitación	0
179528	7	Sololá	701	Sololá	2	El tablón	9	Septiembre	2023-09-24T00:00:00	2024-11-06T01:00:00	8	Radiación solar	0
179529	7	Sololá	701	Sololá	2	El tablón	9	Septiembre	2023-09-24T00:00:00	2024-11-06T02:00:00	2	Temperatura media	12.7
179530	7	Sololá	701	Sololá	2	El tablón	9	Septiembre	2023-09-24T00:00:00	2024-11-06T02:00:00	4	Temperatura máxima	13.4
179531	7	Sololá	701	Sololá	2	El tablón	9	Septiembre	2023-09-24T00:00:00	2024-11-06T02:00:00	3	Temperatura mínima	12.7
179532	7	Sololá	701	Sololá	2	El tablón	9	Septiembre	2023-09-24T00:00:00	2024-11-06T02:00:00	5	Humedad	88
179533	7	Sololá	701	Sololá	2	El tablón	9	Septiembre	2023-09-24T00:00:00	2024-11-06T02:00:00	6	Velocidad del viento	3.2
179534	7	Sololá	701	Sololá	2	El tablón	9	Septiembre	2023-09-24T00:00:00	2024-11-06T02:00:00	7	Dirección del viento	3.22
179535	7	Sololá	701	Sololá	2	El tablón	9	Septiembre	2023-09-24T00:00:00	2024-11-06T02:00:00	1	Precipitación	0
179536	7	Sololá	701	Sololá	2	El tablón	9	Septiembre	2023-09-24T00:00:00	2024-11-06T02:00:00	8	Radiación solar	0
179537	7	Sololá	701	Sololá	2	El tablón	9	Septiembre	2023-09-24T00:00:00	2024-11-06T03:00:00	2	Temperatura media	12.7
179538	7	Sololá	701	Sololá	2	El tablón	9	Septiembre	2023-09-24T00:00:00	2024-11-06T03:00:00	4	Temperatura máxima	12.8
179539	7	Sololá	701	Sololá	2	El tablón	9	Septiembre	2023-09-24T00:00:00	2024-11-06T03:00:00	3	Temperatura mínima	12.6
179540	7	Sololá	701	Sololá	2	El tablón	9	Septiembre	2023-09-24T00:00:00	2024-11-06T03:00:00	5	Humedad	87
179541	7	Sololá	701	Sololá	2	El tablón	9	Septiembre	2023-09-24T00:00:00	2024-11-06T03:00:00	6	Velocidad del viento	3.2
179542	7	Sololá	701	Sololá	2	El tablón	9	Septiembre	2023-09-24T00:00:00	2024-11-06T03:00:00	7	Dirección del viento	3.22
179543	7	Sololá	701	Sololá	2	El tablón	9	Septiembre	2023-09-24T00:00:00	2024-11-06T03:00:00	1	Precipitación	0
179544	7	Sololá	701	Sololá	2	El tablón	9	Septiembre	2023-09-24T00:00:00	2024-11-06T03:00:00	8	Radiación solar	0
179545	7	Sololá	701	Sololá	2	El tablón	9	Septiembre	2023-09-24T00:00:00	2024-11-06T04:00:00	2	Temperatura media	11.9
179546	7	Sololá	701	Sololá	2	El tablón	9	Septiembre	2023-09-24T00:00:00	2024-11-06T04:00:00	4	Temperatura máxima	12.7
179547	7	Sololá	701	Sololá	2	El tablón	9	Septiembre	2023-09-24T00:00:00	2024-11-06T04:00:00	3	Temperatura mínima	11.9
179548	7	Sololá	701	Sololá	2	El tablón	9	Septiembre	2023-09-24T00:00:00	2024-11-06T04:00:00	5	Humedad	87
179549	7	Sololá	701	Sololá	2	El tablón	9	Septiembre	2023-09-24T00:00:00	2024-11-06T04:00:00	6	Velocidad del viento	3.2
179550	7	Sololá	701	Sololá	2	El tablón	9	Septiembre	2023-09-24T00:00:00	2024-11-06T04:00:00	7	Dirección del viento	3.22
179551	7	Sololá	701	Sololá	2	El tablón	9	Septiembre	2023-09-24T00:00:00	2024-11-06T04:00:00	1	Precipitación	0
179552	7	Sololá	701	Sololá	2	El tablón	9	Septiembre	2023-09-24T00:00:00	2024-11-06T04:00:00	8	Radiación solar	0
179553	7	Sololá	701	Sololá	2	El tablón	9	Septiembre	2023-09-24T00:00:00	2024-11-06T05:00:00	2	Temperatura media	11.3
179554	7	Sololá	701	Sololá	2	El tablón	9	Septiembre	2023-09-24T00:00:00	2024-11-06T05:00:00	4	Temperatura máxima	11.9
179555	7	Sololá	701	Sololá	2	El tablón	9	Septiembre	2023-09-24T00:00:00	2024-11-06T05:00:00	3	Temperatura mínima	11.3
179556	7	Sololá	701	Sololá	2	El tablón	9	Septiembre	2023-09-24T00:00:00	2024-11-06T05:00:00	5	Humedad	88
179557	7	Sololá	701	Sololá	2	El tablón	9	Septiembre	2023-09-24T00:00:00	2024-11-06T05:00:00	6	Velocidad del viento	4.8
179558	7	Sololá	701	Sololá	2	El tablón	9	Septiembre	2023-09-24T00:00:00	2024-11-06T05:00:00	7	Dirección del viento	4.83
179559	7	Sololá	701	Sololá	2	El tablón	9	Septiembre	2023-09-24T00:00:00	2024-11-06T05:00:00	1	Precipitación	0
179560	7	Sololá	701	Sololá	2	El tablón	9	Septiembre	2023-09-24T00:00:00	2024-11-06T05:00:00	8	Radiación solar	0
179561	7	Sololá	701	Sololá	2	El tablón	9	Septiembre	2023-09-24T00:00:00	2024-11-06T06:00:00	2	Temperatura media	11.4
179562	7	Sololá	701	Sololá	2	El tablón	9	Septiembre	2023-09-24T00:00:00	2024-11-06T06:00:00	4	Temperatura máxima	11.7
179563	7	Sololá	701	Sololá	2	El tablón	9	Septiembre	2023-09-24T00:00:00	2024-11-06T06:00:00	3	Temperatura mínima	11.3
179564	7	Sololá	701	Sololá	2	El tablón	9	Septiembre	2023-09-24T00:00:00	2024-11-06T06:00:00	5	Humedad	87
179565	7	Sololá	701	Sololá	2	El tablón	9	Septiembre	2023-09-24T00:00:00	2024-11-06T06:00:00	6	Velocidad del viento	4.8
179566	7	Sololá	701	Sololá	2	El tablón	9	Septiembre	2023-09-24T00:00:00	2024-11-06T06:00:00	7	Dirección del viento	4.83
179567	7	Sololá	701	Sololá	2	El tablón	9	Septiembre	2023-09-24T00:00:00	2024-11-06T06:00:00	1	Precipitación	0
179568	7	Sololá	701	Sololá	2	El tablón	9	Septiembre	2023-09-24T00:00:00	2024-11-06T06:00:00	8	Radiación solar	2
179569	7	Sololá	701	Sololá	2	El tablón	9	Septiembre	2023-09-24T00:00:00	2024-11-06T07:00:00	2	Temperatura media	12.9
179570	7	Sololá	701	Sololá	2	El tablón	9	Septiembre	2023-09-24T00:00:00	2024-11-06T07:00:00	4	Temperatura máxima	12.9
179571	7	Sololá	701	Sololá	2	El tablón	9	Septiembre	2023-09-24T00:00:00	2024-11-06T07:00:00	3	Temperatura mínima	11.2
179572	7	Sololá	701	Sololá	2	El tablón	9	Septiembre	2023-09-24T00:00:00	2024-11-06T07:00:00	5	Humedad	85
179573	7	Sololá	701	Sololá	2	El tablón	9	Septiembre	2023-09-24T00:00:00	2024-11-06T07:00:00	6	Velocidad del viento	3.2
179574	7	Sololá	701	Sololá	2	El tablón	9	Septiembre	2023-09-24T00:00:00	2024-11-06T07:00:00	7	Dirección del viento	3.22
179575	7	Sololá	701	Sololá	2	El tablón	9	Septiembre	2023-09-24T00:00:00	2024-11-06T07:00:00	1	Precipitación	0
179576	7	Sololá	701	Sololá	2	El tablón	9	Septiembre	2023-09-24T00:00:00	2024-11-06T07:00:00	8	Radiación solar	85
179577	7	Sololá	701	Sololá	2	El tablón	9	Septiembre	2023-09-24T00:00:00	2024-11-06T08:00:00	2	Temperatura media	14.5
179578	7	Sololá	701	Sololá	2	El tablón	9	Septiembre	2023-09-24T00:00:00	2024-11-06T08:00:00	4	Temperatura máxima	14.5
179579	7	Sololá	701	Sololá	2	El tablón	9	Septiembre	2023-09-24T00:00:00	2024-11-06T08:00:00	3	Temperatura mínima	12.9
179580	7	Sololá	701	Sololá	2	El tablón	9	Septiembre	2023-09-24T00:00:00	2024-11-06T08:00:00	5	Humedad	86
179581	7	Sololá	701	Sololá	2	El tablón	9	Septiembre	2023-09-24T00:00:00	2024-11-06T08:00:00	6	Velocidad del viento	3.2
179582	7	Sololá	701	Sololá	2	El tablón	9	Septiembre	2023-09-24T00:00:00	2024-11-06T08:00:00	7	Dirección del viento	3.22
179583	7	Sololá	701	Sololá	2	El tablón	9	Septiembre	2023-09-24T00:00:00	2024-11-06T08:00:00	1	Precipitación	0
179584	7	Sololá	701	Sololá	2	El tablón	9	Septiembre	2023-09-24T00:00:00	2024-11-06T08:00:00	8	Radiación solar	207
179585	7	Sololá	701	Sololá	2	El tablón	9	Septiembre	2023-09-24T00:00:00	2024-11-06T09:00:00	2	Temperatura media	15.5
179586	7	Sololá	701	Sololá	2	El tablón	9	Septiembre	2023-09-24T00:00:00	2024-11-06T09:00:00	4	Temperatura máxima	15.6
179587	7	Sololá	701	Sololá	2	El tablón	9	Septiembre	2023-09-24T00:00:00	2024-11-06T09:00:00	3	Temperatura mínima	14.5
179588	7	Sololá	701	Sololá	2	El tablón	9	Septiembre	2023-09-24T00:00:00	2024-11-06T09:00:00	5	Humedad	81
179589	7	Sololá	701	Sololá	2	El tablón	9	Septiembre	2023-09-24T00:00:00	2024-11-06T09:00:00	6	Velocidad del viento	1.6
179590	7	Sololá	701	Sololá	2	El tablón	9	Septiembre	2023-09-24T00:00:00	2024-11-06T09:00:00	7	Dirección del viento	1.61
179591	7	Sololá	701	Sololá	2	El tablón	9	Septiembre	2023-09-24T00:00:00	2024-11-06T09:00:00	1	Precipitación	0
179592	7	Sololá	701	Sololá	2	El tablón	9	Septiembre	2023-09-24T00:00:00	2024-11-06T09:00:00	8	Radiación solar	219
179593	7	Sololá	701	Sololá	2	El tablón	9	Septiembre	2023-09-24T00:00:00	2024-11-06T10:00:00	2	Temperatura media	17.8
179594	7	Sololá	701	Sololá	2	El tablón	9	Septiembre	2023-09-24T00:00:00	2024-11-06T10:00:00	4	Temperatura máxima	17.8
179595	7	Sololá	701	Sololá	2	El tablón	9	Septiembre	2023-09-24T00:00:00	2024-11-06T10:00:00	3	Temperatura mínima	15.4
179596	7	Sololá	701	Sololá	2	El tablón	9	Septiembre	2023-09-24T00:00:00	2024-11-06T10:00:00	5	Humedad	72
179597	7	Sololá	701	Sololá	2	El tablón	9	Septiembre	2023-09-24T00:00:00	2024-11-06T10:00:00	6	Velocidad del viento	3.2
179598	7	Sololá	701	Sololá	2	El tablón	9	Septiembre	2023-09-24T00:00:00	2024-11-06T10:00:00	7	Dirección del viento	3.22
179599	7	Sololá	701	Sololá	2	El tablón	9	Septiembre	2023-09-24T00:00:00	2024-11-06T10:00:00	1	Precipitación	0
179600	7	Sololá	701	Sololá	2	El tablón	9	Septiembre	2023-09-24T00:00:00	2024-11-06T10:00:00	8	Radiación solar	376
179601	7	Sololá	701	Sololá	2	El tablón	9	Septiembre	2023-09-24T00:00:00	2024-11-06T11:00:00	2	Temperatura media	19
179602	7	Sololá	701	Sololá	2	El tablón	9	Septiembre	2023-09-24T00:00:00	2024-11-06T11:00:00	4	Temperatura máxima	19.3
179603	7	Sololá	701	Sololá	2	El tablón	9	Septiembre	2023-09-24T00:00:00	2024-11-06T11:00:00	3	Temperatura mínima	17.7
179604	7	Sololá	701	Sololá	2	El tablón	9	Septiembre	2023-09-24T00:00:00	2024-11-06T11:00:00	5	Humedad	68
179605	7	Sololá	701	Sololá	2	El tablón	9	Septiembre	2023-09-24T00:00:00	2024-11-06T11:00:00	6	Velocidad del viento	6.4
179606	7	Sololá	701	Sololá	2	El tablón	9	Septiembre	2023-09-24T00:00:00	2024-11-06T11:00:00	7	Dirección del viento	6.44
179607	7	Sololá	701	Sololá	2	El tablón	9	Septiembre	2023-09-24T00:00:00	2024-11-06T11:00:00	1	Precipitación	0
179608	7	Sololá	701	Sololá	2	El tablón	9	Septiembre	2023-09-24T00:00:00	2024-11-06T11:00:00	8	Radiación solar	854
179609	7	Sololá	701	Sololá	2	El tablón	9	Septiembre	2023-09-24T00:00:00	2024-11-06T12:00:00	2	Temperatura media	18.4
179610	7	Sololá	701	Sololá	2	El tablón	9	Septiembre	2023-09-24T00:00:00	2024-11-06T12:00:00	4	Temperatura máxima	19.1
179611	7	Sololá	701	Sololá	2	El tablón	9	Septiembre	2023-09-24T00:00:00	2024-11-06T12:00:00	3	Temperatura mínima	18.2
179612	7	Sololá	701	Sololá	2	El tablón	9	Septiembre	2023-09-24T00:00:00	2024-11-06T12:00:00	5	Humedad	80
179613	7	Sololá	701	Sololá	2	El tablón	9	Septiembre	2023-09-24T00:00:00	2024-11-06T12:00:00	6	Velocidad del viento	8
179614	7	Sololá	701	Sololá	2	El tablón	9	Septiembre	2023-09-24T00:00:00	2024-11-06T12:00:00	7	Dirección del viento	8.05
179615	7	Sololá	701	Sololá	2	El tablón	9	Septiembre	2023-09-24T00:00:00	2024-11-06T12:00:00	1	Precipitación	0
179616	7	Sololá	701	Sololá	2	El tablón	9	Septiembre	2023-09-24T00:00:00	2024-11-06T12:00:00	8	Radiación solar	974
179617	7	Sololá	701	Sololá	2	El tablón	9	Septiembre	2023-09-24T00:00:00	2024-11-06T13:00:00	2	Temperatura media	16.8
179618	7	Sololá	701	Sololá	2	El tablón	9	Septiembre	2023-09-24T00:00:00	2024-11-06T13:00:00	4	Temperatura máxima	18.6
179619	7	Sololá	701	Sololá	2	El tablón	9	Septiembre	2023-09-24T00:00:00	2024-11-06T13:00:00	3	Temperatura mínima	16.8
179620	7	Sololá	701	Sololá	2	El tablón	9	Septiembre	2023-09-24T00:00:00	2024-11-06T13:00:00	5	Humedad	86
179621	7	Sololá	701	Sololá	2	El tablón	9	Septiembre	2023-09-24T00:00:00	2024-11-06T13:00:00	6	Velocidad del viento	6.4
179622	7	Sololá	701	Sololá	2	El tablón	9	Septiembre	2023-09-24T00:00:00	2024-11-06T13:00:00	7	Dirección del viento	6.44
179623	7	Sololá	701	Sololá	2	El tablón	9	Septiembre	2023-09-24T00:00:00	2024-11-06T13:00:00	1	Precipitación	0
179624	7	Sololá	701	Sololá	2	El tablón	9	Septiembre	2023-09-24T00:00:00	2024-11-06T13:00:00	8	Radiación solar	376
179625	7	Sololá	701	Sololá	2	El tablón	9	Septiembre	2023-09-24T00:00:00	2024-11-06T14:00:00	2	Temperatura media	14.7
179626	7	Sololá	701	Sololá	2	El tablón	9	Septiembre	2023-09-24T00:00:00	2024-11-06T14:00:00	4	Temperatura máxima	16.8
179627	7	Sololá	701	Sololá	2	El tablón	9	Septiembre	2023-09-24T00:00:00	2024-11-06T14:00:00	3	Temperatura mínima	14.7
179628	7	Sololá	701	Sololá	2	El tablón	9	Septiembre	2023-09-24T00:00:00	2024-11-06T14:00:00	5	Humedad	87
179629	7	Sololá	701	Sololá	2	El tablón	9	Septiembre	2023-09-24T00:00:00	2024-11-06T14:00:00	6	Velocidad del viento	6.4
179630	7	Sololá	701	Sololá	2	El tablón	9	Septiembre	2023-09-24T00:00:00	2024-11-06T14:00:00	7	Dirección del viento	6.44
179631	7	Sololá	701	Sololá	2	El tablón	9	Septiembre	2023-09-24T00:00:00	2024-11-06T14:00:00	1	Precipitación	9
179632	7	Sololá	701	Sololá	2	El tablón	9	Septiembre	2023-09-24T00:00:00	2024-11-06T14:00:00	8	Radiación solar	178
179633	7	Sololá	701	Sololá	2	El tablón	9	Septiembre	2023-09-24T00:00:00	2024-11-06T15:00:00	2	Temperatura media	14.8
179634	7	Sololá	701	Sololá	2	El tablón	9	Septiembre	2023-09-24T00:00:00	2024-11-06T15:00:00	4	Temperatura máxima	14.8
179635	7	Sololá	701	Sololá	2	El tablón	9	Septiembre	2023-09-24T00:00:00	2024-11-06T15:00:00	3	Temperatura mínima	13.9
179636	7	Sololá	701	Sololá	2	El tablón	9	Septiembre	2023-09-24T00:00:00	2024-11-06T15:00:00	5	Humedad	87
179637	7	Sololá	701	Sololá	2	El tablón	9	Septiembre	2023-09-24T00:00:00	2024-11-06T15:00:00	6	Velocidad del viento	3.2
179638	7	Sololá	701	Sololá	2	El tablón	9	Septiembre	2023-09-24T00:00:00	2024-11-06T15:00:00	7	Dirección del viento	3.22
179639	7	Sololá	701	Sololá	2	El tablón	9	Septiembre	2023-09-24T00:00:00	2024-11-06T15:00:00	1	Precipitación	3.2
179640	7	Sololá	701	Sololá	2	El tablón	9	Septiembre	2023-09-24T00:00:00	2024-11-06T15:00:00	8	Radiación solar	167
179641	7	Sololá	701	Sololá	2	El tablón	9	Septiembre	2023-09-24T00:00:00	2024-11-06T16:00:00	2	Temperatura media	15.2
179642	7	Sololá	701	Sololá	2	El tablón	9	Septiembre	2023-09-24T00:00:00	2024-11-06T16:00:00	4	Temperatura máxima	16.2
179643	7	Sololá	701	Sololá	2	El tablón	9	Septiembre	2023-09-24T00:00:00	2024-11-06T16:00:00	3	Temperatura mínima	14.9
179644	7	Sololá	701	Sololá	2	El tablón	9	Septiembre	2023-09-24T00:00:00	2024-11-06T16:00:00	5	Humedad	87
179645	7	Sololá	701	Sololá	2	El tablón	9	Septiembre	2023-09-24T00:00:00	2024-11-06T16:00:00	6	Velocidad del viento	4.8
179646	7	Sololá	701	Sololá	2	El tablón	9	Septiembre	2023-09-24T00:00:00	2024-11-06T16:00:00	7	Dirección del viento	4.83
179647	7	Sololá	701	Sololá	2	El tablón	9	Septiembre	2023-09-24T00:00:00	2024-11-06T16:00:00	1	Precipitación	0.2
179648	7	Sololá	701	Sololá	2	El tablón	9	Septiembre	2023-09-24T00:00:00	2024-11-06T16:00:00	8	Radiación solar	305
179649	7	Sololá	701	Sololá	2	El tablón	9	Septiembre	2023-09-24T00:00:00	2024-11-06T17:00:00	2	Temperatura media	14.4
179650	7	Sololá	701	Sololá	2	El tablón	9	Septiembre	2023-09-24T00:00:00	2024-11-06T17:00:00	4	Temperatura máxima	15.2
179651	7	Sololá	701	Sololá	2	El tablón	9	Septiembre	2023-09-24T00:00:00	2024-11-06T17:00:00	3	Temperatura mínima	14.4
179652	7	Sololá	701	Sololá	2	El tablón	9	Septiembre	2023-09-24T00:00:00	2024-11-06T17:00:00	5	Humedad	88
179653	7	Sololá	701	Sololá	2	El tablón	9	Septiembre	2023-09-24T00:00:00	2024-11-06T17:00:00	6	Velocidad del viento	1.6
179654	7	Sololá	701	Sololá	2	El tablón	9	Septiembre	2023-09-24T00:00:00	2024-11-06T17:00:00	7	Dirección del viento	1.61
179655	7	Sololá	701	Sololá	2	El tablón	9	Septiembre	2023-09-24T00:00:00	2024-11-06T17:00:00	1	Precipitación	0
179656	7	Sololá	701	Sololá	2	El tablón	9	Septiembre	2023-09-24T00:00:00	2024-11-06T17:00:00	8	Radiación solar	42
179657	7	Sololá	701	Sololá	2	El tablón	9	Septiembre	2023-09-24T00:00:00	2024-11-06T18:00:00	2	Temperatura media	14.6
179658	7	Sololá	701	Sololá	2	El tablón	9	Septiembre	2023-09-24T00:00:00	2024-11-06T18:00:00	4	Temperatura máxima	14.6
179659	7	Sololá	701	Sololá	2	El tablón	9	Septiembre	2023-09-24T00:00:00	2024-11-06T18:00:00	3	Temperatura mínima	14.4
179660	7	Sololá	701	Sololá	2	El tablón	9	Septiembre	2023-09-24T00:00:00	2024-11-06T18:00:00	5	Humedad	87
179661	7	Sololá	701	Sololá	2	El tablón	9	Septiembre	2023-09-24T00:00:00	2024-11-06T18:00:00	6	Velocidad del viento	3.2
179662	7	Sololá	701	Sololá	2	El tablón	9	Septiembre	2023-09-24T00:00:00	2024-11-06T18:00:00	7	Dirección del viento	3.22
179663	7	Sololá	701	Sololá	2	El tablón	9	Septiembre	2023-09-24T00:00:00	2024-11-06T18:00:00	1	Precipitación	0
179664	7	Sololá	701	Sololá	2	El tablón	9	Septiembre	2023-09-24T00:00:00	2024-11-06T18:00:00	8	Radiación solar	5
179665	7	Sololá	701	Sololá	2	El tablón	9	Septiembre	2023-09-24T00:00:00	2024-11-06T19:00:00	2	Temperatura media	14.4
179666	7	Sololá	701	Sololá	2	El tablón	9	Septiembre	2023-09-24T00:00:00	2024-11-06T19:00:00	4	Temperatura máxima	14.7
179667	7	Sololá	701	Sololá	2	El tablón	9	Septiembre	2023-09-24T00:00:00	2024-11-06T19:00:00	3	Temperatura mínima	14.4
179668	7	Sololá	701	Sololá	2	El tablón	9	Septiembre	2023-09-24T00:00:00	2024-11-06T19:00:00	5	Humedad	87
179669	7	Sololá	701	Sololá	2	El tablón	9	Septiembre	2023-09-24T00:00:00	2024-11-06T19:00:00	6	Velocidad del viento	1.6
179670	7	Sololá	701	Sololá	2	El tablón	9	Septiembre	2023-09-24T00:00:00	2024-11-06T19:00:00	7	Dirección del viento	1.61
179671	7	Sololá	701	Sololá	2	El tablón	9	Septiembre	2023-09-24T00:00:00	2024-11-06T19:00:00	1	Precipitación	0
179672	7	Sololá	701	Sololá	2	El tablón	9	Septiembre	2023-09-24T00:00:00	2024-11-06T19:00:00	8	Radiación solar	0
179673	7	Sololá	701	Sololá	2	El tablón	9	Septiembre	2023-09-24T00:00:00	2024-11-06T20:00:00	2	Temperatura media	13.9
179674	7	Sololá	701	Sololá	2	El tablón	9	Septiembre	2023-09-24T00:00:00	2024-11-06T20:00:00	4	Temperatura máxima	14.4
179675	7	Sololá	701	Sololá	2	El tablón	9	Septiembre	2023-09-24T00:00:00	2024-11-06T20:00:00	3	Temperatura mínima	13.9
179676	7	Sololá	701	Sololá	2	El tablón	9	Septiembre	2023-09-24T00:00:00	2024-11-06T20:00:00	5	Humedad	87
179677	7	Sololá	701	Sololá	2	El tablón	9	Septiembre	2023-09-24T00:00:00	2024-11-06T20:00:00	6	Velocidad del viento	1.6
179678	7	Sololá	701	Sololá	2	El tablón	9	Septiembre	2023-09-24T00:00:00	2024-11-06T20:00:00	7	Dirección del viento	1.61
179679	7	Sololá	701	Sololá	2	El tablón	9	Septiembre	2023-09-24T00:00:00	2024-11-06T20:00:00	1	Precipitación	2
179680	7	Sololá	701	Sololá	2	El tablón	9	Septiembre	2023-09-24T00:00:00	2024-11-06T20:00:00	8	Radiación solar	0
179681	7	Sololá	701	Sololá	2	El tablón	9	Septiembre	2023-09-24T00:00:00	2024-11-06T21:00:00	2	Temperatura media	13.9
179682	7	Sololá	701	Sololá	2	El tablón	9	Septiembre	2023-09-24T00:00:00	2024-11-06T21:00:00	4	Temperatura máxima	14
179683	7	Sololá	701	Sololá	2	El tablón	9	Septiembre	2023-09-24T00:00:00	2024-11-06T21:00:00	3	Temperatura mínima	13.7
179684	7	Sololá	701	Sololá	2	El tablón	9	Septiembre	2023-09-24T00:00:00	2024-11-06T21:00:00	5	Humedad	88
179685	7	Sololá	701	Sololá	2	El tablón	9	Septiembre	2023-09-24T00:00:00	2024-11-06T21:00:00	6	Velocidad del viento	3.2
179686	7	Sololá	701	Sololá	2	El tablón	9	Septiembre	2023-09-24T00:00:00	2024-11-06T21:00:00	7	Dirección del viento	3.22
179687	7	Sololá	701	Sololá	2	El tablón	9	Septiembre	2023-09-24T00:00:00	2024-11-06T21:00:00	1	Precipitación	0.4
179688	7	Sololá	701	Sololá	2	El tablón	9	Septiembre	2023-09-24T00:00:00	2024-11-06T21:00:00	8	Radiación solar	0
179689	7	Sololá	701	Sololá	2	El tablón	9	Septiembre	2023-09-24T00:00:00	2024-11-06T22:00:00	2	Temperatura media	13.7
179690	7	Sololá	701	Sololá	2	El tablón	9	Septiembre	2023-09-24T00:00:00	2024-11-06T22:00:00	4	Temperatura máxima	13.9
179691	7	Sololá	701	Sololá	2	El tablón	9	Septiembre	2023-09-24T00:00:00	2024-11-06T22:00:00	3	Temperatura mínima	13.6
179692	7	Sololá	701	Sololá	2	El tablón	9	Septiembre	2023-09-24T00:00:00	2024-11-06T22:00:00	5	Humedad	87
179693	7	Sololá	701	Sololá	2	El tablón	9	Septiembre	2023-09-24T00:00:00	2024-11-06T22:00:00	6	Velocidad del viento	1.6
179694	7	Sololá	701	Sololá	2	El tablón	9	Septiembre	2023-09-24T00:00:00	2024-11-06T22:00:00	7	Dirección del viento	1.61
179695	7	Sololá	701	Sololá	2	El tablón	9	Septiembre	2023-09-24T00:00:00	2024-11-06T22:00:00	1	Precipitación	1.6
179696	7	Sololá	701	Sololá	2	El tablón	9	Septiembre	2023-09-24T00:00:00	2024-11-06T22:00:00	8	Radiación solar	0
179697	7	Sololá	701	Sololá	2	El tablón	9	Septiembre	2023-09-24T00:00:00	2024-11-06T23:00:00	2	Temperatura media	13.6
179698	7	Sololá	701	Sololá	2	El tablón	9	Septiembre	2023-09-24T00:00:00	2024-11-06T23:00:00	4	Temperatura máxima	13.6
179699	7	Sololá	701	Sololá	2	El tablón	9	Septiembre	2023-09-24T00:00:00	2024-11-06T23:00:00	3	Temperatura mínima	13.4
179700	7	Sololá	701	Sololá	2	El tablón	9	Septiembre	2023-09-24T00:00:00	2024-11-06T23:00:00	5	Humedad	87
179701	7	Sololá	701	Sololá	2	El tablón	9	Septiembre	2023-09-24T00:00:00	2024-11-06T23:00:00	6	Velocidad del viento	1.6
179702	7	Sololá	701	Sololá	2	El tablón	9	Septiembre	2023-09-24T00:00:00	2024-11-06T23:00:00	7	Dirección del viento	1.61
179703	7	Sololá	701	Sololá	2	El tablón	9	Septiembre	2023-09-24T00:00:00	2024-11-06T23:00:00	1	Precipitación	0
179704	7	Sololá	701	Sololá	2	El tablón	9	Septiembre	2023-09-24T00:00:00	2024-11-06T23:00:00	8	Radiación solar	0
179705	7	Sololá	701	Sololá	2	El tablón	9	Septiembre	2023-09-25T00:00:00	2024-11-06T00:00:00	2	Temperatura media	13.6
179706	7	Sololá	701	Sololá	2	El tablón	9	Septiembre	2023-09-25T00:00:00	2024-11-06T00:00:00	4	Temperatura máxima	13.7
179707	7	Sololá	701	Sololá	2	El tablón	9	Septiembre	2023-09-25T00:00:00	2024-11-06T00:00:00	3	Temperatura mínima	13.5
179708	7	Sololá	701	Sololá	2	El tablón	9	Septiembre	2023-09-25T00:00:00	2024-11-06T00:00:00	5	Humedad	87
179709	7	Sololá	701	Sololá	2	El tablón	9	Septiembre	2023-09-25T00:00:00	2024-11-06T00:00:00	6	Velocidad del viento	1.6
179710	7	Sololá	701	Sololá	2	El tablón	9	Septiembre	2023-09-25T00:00:00	2024-11-06T00:00:00	7	Dirección del viento	1.61
179711	7	Sololá	701	Sololá	2	El tablón	9	Septiembre	2023-09-25T00:00:00	2024-11-06T00:00:00	1	Precipitación	0
179712	7	Sololá	701	Sololá	2	El tablón	9	Septiembre	2023-09-25T00:00:00	2024-11-06T00:00:00	8	Radiación solar	0
179713	7	Sololá	701	Sololá	2	El tablón	9	Septiembre	2023-09-25T00:00:00	2024-11-06T01:00:00	2	Temperatura media	13
179714	7	Sololá	701	Sololá	2	El tablón	9	Septiembre	2023-09-25T00:00:00	2024-11-06T01:00:00	4	Temperatura máxima	13.6
179715	7	Sololá	701	Sololá	2	El tablón	9	Septiembre	2023-09-25T00:00:00	2024-11-06T01:00:00	3	Temperatura mínima	13
179716	7	Sololá	701	Sololá	2	El tablón	9	Septiembre	2023-09-25T00:00:00	2024-11-06T01:00:00	5	Humedad	87
179717	7	Sololá	701	Sololá	2	El tablón	9	Septiembre	2023-09-25T00:00:00	2024-11-06T01:00:00	6	Velocidad del viento	1.6
179718	7	Sololá	701	Sololá	2	El tablón	9	Septiembre	2023-09-25T00:00:00	2024-11-06T01:00:00	7	Dirección del viento	1.61
179719	7	Sololá	701	Sololá	2	El tablón	9	Septiembre	2023-09-25T00:00:00	2024-11-06T01:00:00	1	Precipitación	8
179720	7	Sololá	701	Sololá	2	El tablón	9	Septiembre	2023-09-25T00:00:00	2024-11-06T01:00:00	8	Radiación solar	0
179721	7	Sololá	701	Sololá	2	El tablón	9	Septiembre	2023-09-25T00:00:00	2024-11-06T02:00:00	2	Temperatura media	12.7
179722	7	Sololá	701	Sololá	2	El tablón	9	Septiembre	2023-09-25T00:00:00	2024-11-06T02:00:00	4	Temperatura máxima	13.1
179723	7	Sololá	701	Sololá	2	El tablón	9	Septiembre	2023-09-25T00:00:00	2024-11-06T02:00:00	3	Temperatura mínima	12.7
179724	7	Sololá	701	Sololá	2	El tablón	9	Septiembre	2023-09-25T00:00:00	2024-11-06T02:00:00	5	Humedad	86
179725	7	Sololá	701	Sololá	2	El tablón	9	Septiembre	2023-09-25T00:00:00	2024-11-06T02:00:00	6	Velocidad del viento	1.6
179726	7	Sololá	701	Sololá	2	El tablón	9	Septiembre	2023-09-25T00:00:00	2024-11-06T02:00:00	7	Dirección del viento	1.61
179727	7	Sololá	701	Sololá	2	El tablón	9	Septiembre	2023-09-25T00:00:00	2024-11-06T02:00:00	1	Precipitación	0.2
179728	7	Sololá	701	Sololá	2	El tablón	9	Septiembre	2023-09-25T00:00:00	2024-11-06T02:00:00	8	Radiación solar	0
179729	7	Sololá	701	Sololá	2	El tablón	9	Septiembre	2023-09-25T00:00:00	2024-11-06T03:00:00	2	Temperatura media	12.5
179730	7	Sololá	701	Sololá	2	El tablón	9	Septiembre	2023-09-25T00:00:00	2024-11-06T03:00:00	4	Temperatura máxima	12.8
179731	7	Sololá	701	Sololá	2	El tablón	9	Septiembre	2023-09-25T00:00:00	2024-11-06T03:00:00	3	Temperatura mínima	12.5
179732	7	Sololá	701	Sololá	2	El tablón	9	Septiembre	2023-09-25T00:00:00	2024-11-06T03:00:00	5	Humedad	87
179733	7	Sololá	701	Sololá	2	El tablón	9	Septiembre	2023-09-25T00:00:00	2024-11-06T03:00:00	6	Velocidad del viento	1.6
179734	7	Sololá	701	Sololá	2	El tablón	9	Septiembre	2023-09-25T00:00:00	2024-11-06T03:00:00	7	Dirección del viento	1.61
179735	7	Sololá	701	Sololá	2	El tablón	9	Septiembre	2023-09-25T00:00:00	2024-11-06T03:00:00	1	Precipitación	0.2
179736	7	Sololá	701	Sololá	2	El tablón	9	Septiembre	2023-09-25T00:00:00	2024-11-06T03:00:00	8	Radiación solar	0
179737	7	Sololá	701	Sololá	2	El tablón	9	Septiembre	2023-09-25T00:00:00	2024-11-06T04:00:00	2	Temperatura media	12.5
179738	7	Sololá	701	Sololá	2	El tablón	9	Septiembre	2023-09-25T00:00:00	2024-11-06T04:00:00	4	Temperatura máxima	12.5
179739	7	Sololá	701	Sololá	2	El tablón	9	Septiembre	2023-09-25T00:00:00	2024-11-06T04:00:00	3	Temperatura mínima	12.3
179740	7	Sololá	701	Sololá	2	El tablón	9	Septiembre	2023-09-25T00:00:00	2024-11-06T04:00:00	5	Humedad	88
179741	7	Sololá	701	Sololá	2	El tablón	9	Septiembre	2023-09-25T00:00:00	2024-11-06T04:00:00	6	Velocidad del viento	3.2
179742	7	Sololá	701	Sololá	2	El tablón	9	Septiembre	2023-09-25T00:00:00	2024-11-06T04:00:00	7	Dirección del viento	3.22
179743	7	Sololá	701	Sololá	2	El tablón	9	Septiembre	2023-09-25T00:00:00	2024-11-06T04:00:00	1	Precipitación	0
179744	7	Sololá	701	Sololá	2	El tablón	9	Septiembre	2023-09-25T00:00:00	2024-11-06T04:00:00	8	Radiación solar	0
179745	7	Sololá	701	Sololá	2	El tablón	9	Septiembre	2023-09-25T00:00:00	2024-11-06T05:00:00	2	Temperatura media	12.3
179746	7	Sololá	701	Sololá	2	El tablón	9	Septiembre	2023-09-25T00:00:00	2024-11-06T05:00:00	4	Temperatura máxima	12.6
179747	7	Sololá	701	Sololá	2	El tablón	9	Septiembre	2023-09-25T00:00:00	2024-11-06T05:00:00	3	Temperatura mínima	12.3
179748	7	Sololá	701	Sololá	2	El tablón	9	Septiembre	2023-09-25T00:00:00	2024-11-06T05:00:00	5	Humedad	88
179749	7	Sololá	701	Sololá	2	El tablón	9	Septiembre	2023-09-25T00:00:00	2024-11-06T05:00:00	6	Velocidad del viento	1.6
179750	7	Sololá	701	Sololá	2	El tablón	9	Septiembre	2023-09-25T00:00:00	2024-11-06T05:00:00	7	Dirección del viento	1.61
179751	7	Sololá	701	Sololá	2	El tablón	9	Septiembre	2023-09-25T00:00:00	2024-11-06T05:00:00	1	Precipitación	0
179752	7	Sololá	701	Sololá	2	El tablón	9	Septiembre	2023-09-25T00:00:00	2024-11-06T05:00:00	8	Radiación solar	0
179753	7	Sololá	701	Sololá	2	El tablón	9	Septiembre	2023-09-25T00:00:00	2024-11-06T06:00:00	2	Temperatura media	12.2
179754	7	Sololá	701	Sololá	2	El tablón	9	Septiembre	2023-09-25T00:00:00	2024-11-06T06:00:00	4	Temperatura máxima	12.3
179755	7	Sololá	701	Sololá	2	El tablón	9	Septiembre	2023-09-25T00:00:00	2024-11-06T06:00:00	3	Temperatura mínima	12.2
179756	7	Sololá	701	Sololá	2	El tablón	9	Septiembre	2023-09-25T00:00:00	2024-11-06T06:00:00	5	Humedad	87
179757	7	Sololá	701	Sololá	2	El tablón	9	Septiembre	2023-09-25T00:00:00	2024-11-06T06:00:00	6	Velocidad del viento	0
179758	7	Sololá	701	Sololá	2	El tablón	9	Septiembre	2023-09-25T00:00:00	2024-11-06T06:00:00	7	Dirección del viento	0
179759	7	Sololá	701	Sololá	2	El tablón	9	Septiembre	2023-09-25T00:00:00	2024-11-06T06:00:00	1	Precipitación	0
179760	7	Sololá	701	Sololá	2	El tablón	9	Septiembre	2023-09-25T00:00:00	2024-11-06T06:00:00	8	Radiación solar	0
179761	7	Sololá	701	Sololá	2	El tablón	9	Septiembre	2023-09-25T00:00:00	2024-11-06T07:00:00	2	Temperatura media	12.4
179762	7	Sololá	701	Sololá	2	El tablón	9	Septiembre	2023-09-25T00:00:00	2024-11-06T07:00:00	4	Temperatura máxima	12.4
179763	7	Sololá	701	Sololá	2	El tablón	9	Septiembre	2023-09-25T00:00:00	2024-11-06T07:00:00	3	Temperatura mínima	12.1
179764	7	Sololá	701	Sololá	2	El tablón	9	Septiembre	2023-09-25T00:00:00	2024-11-06T07:00:00	5	Humedad	88
179765	7	Sololá	701	Sololá	2	El tablón	9	Septiembre	2023-09-25T00:00:00	2024-11-06T07:00:00	6	Velocidad del viento	0
179766	7	Sololá	701	Sololá	2	El tablón	9	Septiembre	2023-09-25T00:00:00	2024-11-06T07:00:00	7	Dirección del viento	0
179767	7	Sololá	701	Sololá	2	El tablón	9	Septiembre	2023-09-25T00:00:00	2024-11-06T07:00:00	1	Precipitación	0
179768	7	Sololá	701	Sololá	2	El tablón	9	Septiembre	2023-09-25T00:00:00	2024-11-06T07:00:00	8	Radiación solar	40
179769	7	Sololá	701	Sololá	2	El tablón	9	Septiembre	2023-09-25T00:00:00	2024-11-06T08:00:00	2	Temperatura media	14.6
179770	7	Sololá	701	Sololá	2	El tablón	9	Septiembre	2023-09-25T00:00:00	2024-11-06T08:00:00	4	Temperatura máxima	14.6
179771	7	Sololá	701	Sololá	2	El tablón	9	Septiembre	2023-09-25T00:00:00	2024-11-06T08:00:00	3	Temperatura mínima	12.4
179772	7	Sololá	701	Sololá	2	El tablón	9	Septiembre	2023-09-25T00:00:00	2024-11-06T08:00:00	5	Humedad	84
179773	7	Sololá	701	Sololá	2	El tablón	9	Septiembre	2023-09-25T00:00:00	2024-11-06T08:00:00	6	Velocidad del viento	3.2
179774	7	Sololá	701	Sololá	2	El tablón	9	Septiembre	2023-09-25T00:00:00	2024-11-06T08:00:00	7	Dirección del viento	3.22
179775	7	Sololá	701	Sololá	2	El tablón	9	Septiembre	2023-09-25T00:00:00	2024-11-06T08:00:00	1	Precipitación	0
179776	7	Sololá	701	Sololá	2	El tablón	9	Septiembre	2023-09-25T00:00:00	2024-11-06T08:00:00	8	Radiación solar	247
179777	7	Sololá	701	Sololá	2	El tablón	9	Septiembre	2023-09-25T00:00:00	2024-11-06T09:00:00	2	Temperatura media	16.3
179778	7	Sololá	701	Sololá	2	El tablón	9	Septiembre	2023-09-25T00:00:00	2024-11-06T09:00:00	4	Temperatura máxima	16.3
179779	7	Sololá	701	Sololá	2	El tablón	9	Septiembre	2023-09-25T00:00:00	2024-11-06T09:00:00	3	Temperatura mínima	14.6
179780	7	Sololá	701	Sololá	2	El tablón	9	Septiembre	2023-09-25T00:00:00	2024-11-06T09:00:00	5	Humedad	80
179781	7	Sololá	701	Sololá	2	El tablón	9	Septiembre	2023-09-25T00:00:00	2024-11-06T09:00:00	6	Velocidad del viento	3.2
179782	7	Sololá	701	Sololá	2	El tablón	9	Septiembre	2023-09-25T00:00:00	2024-11-06T09:00:00	7	Dirección del viento	3.22
179783	7	Sololá	701	Sololá	2	El tablón	9	Septiembre	2023-09-25T00:00:00	2024-11-06T09:00:00	1	Precipitación	0
179784	7	Sololá	701	Sololá	2	El tablón	9	Septiembre	2023-09-25T00:00:00	2024-11-06T09:00:00	8	Radiación solar	259
179785	7	Sololá	701	Sololá	2	El tablón	9	Septiembre	2023-09-25T00:00:00	2024-11-06T10:00:00	2	Temperatura media	19.4
179786	7	Sololá	701	Sololá	2	El tablón	9	Septiembre	2023-09-25T00:00:00	2024-11-06T10:00:00	4	Temperatura máxima	19.4
179787	7	Sololá	701	Sololá	2	El tablón	9	Septiembre	2023-09-25T00:00:00	2024-11-06T10:00:00	3	Temperatura mínima	16.3
179788	7	Sololá	701	Sololá	2	El tablón	9	Septiembre	2023-09-25T00:00:00	2024-11-06T10:00:00	5	Humedad	68
179789	7	Sololá	701	Sololá	2	El tablón	9	Septiembre	2023-09-25T00:00:00	2024-11-06T10:00:00	6	Velocidad del viento	3.2
179790	7	Sololá	701	Sololá	2	El tablón	9	Septiembre	2023-09-25T00:00:00	2024-11-06T10:00:00	7	Dirección del viento	3.22
179791	7	Sololá	701	Sololá	2	El tablón	9	Septiembre	2023-09-25T00:00:00	2024-11-06T10:00:00	1	Precipitación	0
179792	7	Sololá	701	Sololá	2	El tablón	9	Septiembre	2023-09-25T00:00:00	2024-11-06T10:00:00	8	Radiación solar	682
179793	7	Sololá	701	Sololá	2	El tablón	9	Septiembre	2023-09-25T00:00:00	2024-11-06T11:00:00	2	Temperatura media	19.2
179794	7	Sololá	701	Sololá	2	El tablón	9	Septiembre	2023-09-25T00:00:00	2024-11-06T11:00:00	4	Temperatura máxima	19.7
179795	7	Sololá	701	Sololá	2	El tablón	9	Septiembre	2023-09-25T00:00:00	2024-11-06T11:00:00	3	Temperatura mínima	19.2
179796	7	Sololá	701	Sololá	2	El tablón	9	Septiembre	2023-09-25T00:00:00	2024-11-06T11:00:00	5	Humedad	71
179797	7	Sololá	701	Sololá	2	El tablón	9	Septiembre	2023-09-25T00:00:00	2024-11-06T11:00:00	6	Velocidad del viento	6.4
179798	7	Sololá	701	Sololá	2	El tablón	9	Septiembre	2023-09-25T00:00:00	2024-11-06T11:00:00	7	Dirección del viento	6.44
179799	7	Sololá	701	Sololá	2	El tablón	9	Septiembre	2023-09-25T00:00:00	2024-11-06T11:00:00	1	Precipitación	0
179800	7	Sololá	701	Sololá	2	El tablón	9	Septiembre	2023-09-25T00:00:00	2024-11-06T11:00:00	8	Radiación solar	896
179801	7	Sololá	701	Sololá	2	El tablón	9	Septiembre	2023-09-25T00:00:00	2024-11-06T12:00:00	2	Temperatura media	18.8
179802	7	Sololá	701	Sololá	2	El tablón	9	Septiembre	2023-09-25T00:00:00	2024-11-06T12:00:00	4	Temperatura máxima	19.2
179803	7	Sololá	701	Sololá	2	El tablón	9	Septiembre	2023-09-25T00:00:00	2024-11-06T12:00:00	3	Temperatura mínima	18.2
179804	7	Sololá	701	Sololá	2	El tablón	9	Septiembre	2023-09-25T00:00:00	2024-11-06T12:00:00	5	Humedad	72
179805	7	Sololá	701	Sololá	2	El tablón	9	Septiembre	2023-09-25T00:00:00	2024-11-06T12:00:00	6	Velocidad del viento	8
179806	7	Sololá	701	Sololá	2	El tablón	9	Septiembre	2023-09-25T00:00:00	2024-11-06T12:00:00	7	Dirección del viento	8.05
179807	7	Sololá	701	Sololá	2	El tablón	9	Septiembre	2023-09-25T00:00:00	2024-11-06T12:00:00	1	Precipitación	0
179808	7	Sololá	701	Sololá	2	El tablón	9	Septiembre	2023-09-25T00:00:00	2024-11-06T12:00:00	8	Radiación solar	842
179809	7	Sololá	701	Sololá	2	El tablón	9	Septiembre	2023-09-25T00:00:00	2024-11-06T13:00:00	2	Temperatura media	16.7
179810	7	Sololá	701	Sololá	2	El tablón	9	Septiembre	2023-09-25T00:00:00	2024-11-06T13:00:00	4	Temperatura máxima	18.8
179811	7	Sololá	701	Sololá	2	El tablón	9	Septiembre	2023-09-25T00:00:00	2024-11-06T13:00:00	3	Temperatura mínima	16.2
179812	7	Sololá	701	Sololá	2	El tablón	9	Septiembre	2023-09-25T00:00:00	2024-11-06T13:00:00	5	Humedad	87
179813	7	Sololá	701	Sololá	2	El tablón	9	Septiembre	2023-09-25T00:00:00	2024-11-06T13:00:00	6	Velocidad del viento	6.4
179814	7	Sololá	701	Sololá	2	El tablón	9	Septiembre	2023-09-25T00:00:00	2024-11-06T13:00:00	7	Dirección del viento	6.44
179815	7	Sololá	701	Sololá	2	El tablón	9	Septiembre	2023-09-25T00:00:00	2024-11-06T13:00:00	1	Precipitación	0
179816	7	Sololá	701	Sololá	2	El tablón	9	Septiembre	2023-09-25T00:00:00	2024-11-06T13:00:00	8	Radiación solar	499
179817	7	Sololá	701	Sololá	2	El tablón	9	Septiembre	2023-09-25T00:00:00	2024-11-06T14:00:00	2	Temperatura media	15.1
179818	7	Sololá	701	Sololá	2	El tablón	9	Septiembre	2023-09-25T00:00:00	2024-11-06T14:00:00	4	Temperatura máxima	16.8
179819	7	Sololá	701	Sololá	2	El tablón	9	Septiembre	2023-09-25T00:00:00	2024-11-06T14:00:00	3	Temperatura mínima	15.1
179820	7	Sololá	701	Sololá	2	El tablón	9	Septiembre	2023-09-25T00:00:00	2024-11-06T14:00:00	5	Humedad	88
179821	7	Sololá	701	Sololá	2	El tablón	9	Septiembre	2023-09-25T00:00:00	2024-11-06T14:00:00	6	Velocidad del viento	6.4
179822	7	Sololá	701	Sololá	2	El tablón	9	Septiembre	2023-09-25T00:00:00	2024-11-06T14:00:00	7	Dirección del viento	6.44
179823	7	Sololá	701	Sololá	2	El tablón	9	Septiembre	2023-09-25T00:00:00	2024-11-06T14:00:00	1	Precipitación	0
179824	7	Sololá	701	Sololá	2	El tablón	9	Septiembre	2023-09-25T00:00:00	2024-11-06T14:00:00	8	Radiación solar	168
179825	7	Sololá	701	Sololá	2	El tablón	9	Septiembre	2023-09-25T00:00:00	2024-11-06T15:00:00	2	Temperatura media	15
179826	7	Sololá	701	Sololá	2	El tablón	9	Septiembre	2023-09-25T00:00:00	2024-11-06T15:00:00	4	Temperatura máxima	15.1
179827	7	Sololá	701	Sololá	2	El tablón	9	Septiembre	2023-09-25T00:00:00	2024-11-06T15:00:00	3	Temperatura mínima	14.6
179828	7	Sololá	701	Sololá	2	El tablón	9	Septiembre	2023-09-25T00:00:00	2024-11-06T15:00:00	5	Humedad	87
179829	7	Sololá	701	Sololá	2	El tablón	9	Septiembre	2023-09-25T00:00:00	2024-11-06T15:00:00	6	Velocidad del viento	1.6
179830	7	Sololá	701	Sololá	2	El tablón	9	Septiembre	2023-09-25T00:00:00	2024-11-06T15:00:00	7	Dirección del viento	1.61
179831	7	Sololá	701	Sololá	2	El tablón	9	Septiembre	2023-09-25T00:00:00	2024-11-06T15:00:00	1	Precipitación	0
179832	7	Sololá	701	Sololá	2	El tablón	9	Septiembre	2023-09-25T00:00:00	2024-11-06T15:00:00	8	Radiación solar	74
179833	7	Sololá	701	Sololá	2	El tablón	9	Septiembre	2023-09-25T00:00:00	2024-11-06T16:00:00	2	Temperatura media	14.7
179834	7	Sololá	701	Sololá	2	El tablón	9	Septiembre	2023-09-25T00:00:00	2024-11-06T16:00:00	4	Temperatura máxima	15.2
179835	7	Sololá	701	Sololá	2	El tablón	9	Septiembre	2023-09-25T00:00:00	2024-11-06T16:00:00	3	Temperatura mínima	14.7
179836	7	Sololá	701	Sololá	2	El tablón	9	Septiembre	2023-09-25T00:00:00	2024-11-06T16:00:00	5	Humedad	87
179837	7	Sololá	701	Sololá	2	El tablón	9	Septiembre	2023-09-25T00:00:00	2024-11-06T16:00:00	6	Velocidad del viento	1.6
179838	7	Sololá	701	Sololá	2	El tablón	9	Septiembre	2023-09-25T00:00:00	2024-11-06T16:00:00	7	Dirección del viento	1.61
179839	7	Sololá	701	Sololá	2	El tablón	9	Septiembre	2023-09-25T00:00:00	2024-11-06T16:00:00	1	Precipitación	0
179840	7	Sololá	701	Sololá	2	El tablón	9	Septiembre	2023-09-25T00:00:00	2024-11-06T16:00:00	8	Radiación solar	62
179841	7	Sololá	701	Sololá	2	El tablón	9	Septiembre	2023-09-25T00:00:00	2024-11-06T17:00:00	2	Temperatura media	14.8
179842	7	Sololá	701	Sololá	2	El tablón	9	Septiembre	2023-09-25T00:00:00	2024-11-06T17:00:00	4	Temperatura máxima	15.1
179843	7	Sololá	701	Sololá	2	El tablón	9	Septiembre	2023-09-25T00:00:00	2024-11-06T17:00:00	3	Temperatura mínima	14.7
179844	7	Sololá	701	Sololá	2	El tablón	9	Septiembre	2023-09-25T00:00:00	2024-11-06T17:00:00	5	Humedad	88
179845	7	Sololá	701	Sololá	2	El tablón	9	Septiembre	2023-09-25T00:00:00	2024-11-06T17:00:00	6	Velocidad del viento	1.6
179846	7	Sololá	701	Sololá	2	El tablón	9	Septiembre	2023-09-25T00:00:00	2024-11-06T17:00:00	7	Dirección del viento	1.61
179847	7	Sololá	701	Sololá	2	El tablón	9	Septiembre	2023-09-25T00:00:00	2024-11-06T17:00:00	1	Precipitación	0
179848	7	Sololá	701	Sololá	2	El tablón	9	Septiembre	2023-09-25T00:00:00	2024-11-06T17:00:00	8	Radiación solar	56
179849	7	Sololá	701	Sololá	2	El tablón	9	Septiembre	2023-09-25T00:00:00	2024-11-06T18:00:00	2	Temperatura media	14.4
179850	7	Sololá	701	Sololá	2	El tablón	9	Septiembre	2023-09-25T00:00:00	2024-11-06T18:00:00	4	Temperatura máxima	14.9
179851	7	Sololá	701	Sololá	2	El tablón	9	Septiembre	2023-09-25T00:00:00	2024-11-06T18:00:00	3	Temperatura mínima	14.3
179852	7	Sololá	701	Sololá	2	El tablón	9	Septiembre	2023-09-25T00:00:00	2024-11-06T18:00:00	5	Humedad	87
179853	7	Sololá	701	Sololá	2	El tablón	9	Septiembre	2023-09-25T00:00:00	2024-11-06T18:00:00	6	Velocidad del viento	1.6
179854	7	Sololá	701	Sololá	2	El tablón	9	Septiembre	2023-09-25T00:00:00	2024-11-06T18:00:00	7	Dirección del viento	1.61
179855	7	Sololá	701	Sololá	2	El tablón	9	Septiembre	2023-09-25T00:00:00	2024-11-06T18:00:00	1	Precipitación	0
179856	7	Sololá	701	Sololá	2	El tablón	9	Septiembre	2023-09-25T00:00:00	2024-11-06T18:00:00	8	Radiación solar	15
179857	7	Sololá	701	Sololá	2	El tablón	9	Septiembre	2023-09-25T00:00:00	2024-11-06T19:00:00	2	Temperatura media	14.3
179858	7	Sololá	701	Sololá	2	El tablón	9	Septiembre	2023-09-25T00:00:00	2024-11-06T19:00:00	4	Temperatura máxima	14.4
179859	7	Sololá	701	Sololá	2	El tablón	9	Septiembre	2023-09-25T00:00:00	2024-11-06T19:00:00	3	Temperatura mínima	14.3
179860	7	Sololá	701	Sololá	2	El tablón	9	Septiembre	2023-09-25T00:00:00	2024-11-06T19:00:00	5	Humedad	87
179861	7	Sololá	701	Sololá	2	El tablón	9	Septiembre	2023-09-25T00:00:00	2024-11-06T19:00:00	6	Velocidad del viento	1.6
179862	7	Sololá	701	Sololá	2	El tablón	9	Septiembre	2023-09-25T00:00:00	2024-11-06T19:00:00	7	Dirección del viento	1.61
179863	7	Sololá	701	Sololá	2	El tablón	9	Septiembre	2023-09-25T00:00:00	2024-11-06T19:00:00	1	Precipitación	0
179864	7	Sololá	701	Sololá	2	El tablón	9	Septiembre	2023-09-25T00:00:00	2024-11-06T19:00:00	8	Radiación solar	0
179865	7	Sololá	701	Sololá	2	El tablón	9	Septiembre	2023-09-25T00:00:00	2024-11-06T20:00:00	2	Temperatura media	13.9
179866	7	Sololá	701	Sololá	2	El tablón	9	Septiembre	2023-09-25T00:00:00	2024-11-06T20:00:00	4	Temperatura máxima	14.3
179867	7	Sololá	701	Sololá	2	El tablón	9	Septiembre	2023-09-25T00:00:00	2024-11-06T20:00:00	3	Temperatura mínima	13.9
179868	7	Sololá	701	Sololá	2	El tablón	9	Septiembre	2023-09-25T00:00:00	2024-11-06T20:00:00	5	Humedad	87
179869	7	Sololá	701	Sololá	2	El tablón	9	Septiembre	2023-09-25T00:00:00	2024-11-06T20:00:00	6	Velocidad del viento	1.6
179870	7	Sololá	701	Sololá	2	El tablón	9	Septiembre	2023-09-25T00:00:00	2024-11-06T20:00:00	7	Dirección del viento	1.61
179871	7	Sololá	701	Sololá	2	El tablón	9	Septiembre	2023-09-25T00:00:00	2024-11-06T20:00:00	1	Precipitación	0
179872	7	Sololá	701	Sololá	2	El tablón	9	Septiembre	2023-09-25T00:00:00	2024-11-06T20:00:00	8	Radiación solar	0
179873	7	Sololá	701	Sololá	2	El tablón	9	Septiembre	2023-09-25T00:00:00	2024-11-06T21:00:00	2	Temperatura media	14.1
179874	7	Sololá	701	Sololá	2	El tablón	9	Septiembre	2023-09-25T00:00:00	2024-11-06T21:00:00	4	Temperatura máxima	14.1
179875	7	Sololá	701	Sololá	2	El tablón	9	Septiembre	2023-09-25T00:00:00	2024-11-06T21:00:00	3	Temperatura mínima	13.5
179876	7	Sololá	701	Sololá	2	El tablón	9	Septiembre	2023-09-25T00:00:00	2024-11-06T21:00:00	5	Humedad	88
179877	7	Sololá	701	Sololá	2	El tablón	9	Septiembre	2023-09-25T00:00:00	2024-11-06T21:00:00	6	Velocidad del viento	3.2
179878	7	Sololá	701	Sololá	2	El tablón	9	Septiembre	2023-09-25T00:00:00	2024-11-06T21:00:00	7	Dirección del viento	3.22
179879	7	Sololá	701	Sololá	2	El tablón	9	Septiembre	2023-09-25T00:00:00	2024-11-06T21:00:00	1	Precipitación	0
179880	7	Sololá	701	Sololá	2	El tablón	9	Septiembre	2023-09-25T00:00:00	2024-11-06T21:00:00	8	Radiación solar	0
179881	7	Sololá	701	Sololá	2	El tablón	9	Septiembre	2023-09-25T00:00:00	2024-11-06T22:00:00	2	Temperatura media	13.9
179882	7	Sololá	701	Sololá	2	El tablón	9	Septiembre	2023-09-25T00:00:00	2024-11-06T22:00:00	4	Temperatura máxima	14.2
179883	7	Sololá	701	Sololá	2	El tablón	9	Septiembre	2023-09-25T00:00:00	2024-11-06T22:00:00	3	Temperatura mínima	13.9
179884	7	Sololá	701	Sololá	2	El tablón	9	Septiembre	2023-09-25T00:00:00	2024-11-06T22:00:00	5	Humedad	88
179885	7	Sololá	701	Sololá	2	El tablón	9	Septiembre	2023-09-25T00:00:00	2024-11-06T22:00:00	6	Velocidad del viento	1.6
179886	7	Sololá	701	Sololá	2	El tablón	9	Septiembre	2023-09-25T00:00:00	2024-11-06T22:00:00	7	Dirección del viento	1.61
179887	7	Sololá	701	Sololá	2	El tablón	9	Septiembre	2023-09-25T00:00:00	2024-11-06T22:00:00	1	Precipitación	0
179888	7	Sololá	701	Sololá	2	El tablón	9	Septiembre	2023-09-25T00:00:00	2024-11-06T22:00:00	8	Radiación solar	0
179889	7	Sololá	701	Sololá	2	El tablón	9	Septiembre	2023-09-25T00:00:00	2024-11-06T23:00:00	2	Temperatura media	13.6
179890	7	Sololá	701	Sololá	2	El tablón	9	Septiembre	2023-09-25T00:00:00	2024-11-06T23:00:00	4	Temperatura máxima	14.1
179891	7	Sololá	701	Sololá	2	El tablón	9	Septiembre	2023-09-25T00:00:00	2024-11-06T23:00:00	3	Temperatura mínima	13.6
179892	7	Sololá	701	Sololá	2	El tablón	9	Septiembre	2023-09-25T00:00:00	2024-11-06T23:00:00	5	Humedad	88
179893	7	Sololá	701	Sololá	2	El tablón	9	Septiembre	2023-09-25T00:00:00	2024-11-06T23:00:00	6	Velocidad del viento	0
179894	7	Sololá	701	Sololá	2	El tablón	9	Septiembre	2023-09-25T00:00:00	2024-11-06T23:00:00	7	Dirección del viento	0
179895	7	Sololá	701	Sololá	2	El tablón	9	Septiembre	2023-09-25T00:00:00	2024-11-06T23:00:00	1	Precipitación	0
179896	7	Sololá	701	Sololá	2	El tablón	9	Septiembre	2023-09-25T00:00:00	2024-11-06T23:00:00	8	Radiación solar	0
179897	7	Sololá	701	Sololá	2	El tablón	9	Septiembre	2023-09-26T00:00:00	2024-11-06T00:00:00	2	Temperatura media	13.4
179898	7	Sololá	701	Sololá	2	El tablón	9	Septiembre	2023-09-26T00:00:00	2024-11-06T00:00:00	4	Temperatura máxima	13.7
179899	7	Sololá	701	Sololá	2	El tablón	9	Septiembre	2023-09-26T00:00:00	2024-11-06T00:00:00	3	Temperatura mínima	13.3
179900	7	Sololá	701	Sololá	2	El tablón	9	Septiembre	2023-09-26T00:00:00	2024-11-06T00:00:00	5	Humedad	88
179901	7	Sololá	701	Sololá	2	El tablón	9	Septiembre	2023-09-26T00:00:00	2024-11-06T00:00:00	6	Velocidad del viento	0
179902	7	Sololá	701	Sololá	2	El tablón	9	Septiembre	2023-09-26T00:00:00	2024-11-06T00:00:00	7	Dirección del viento	0
179903	7	Sololá	701	Sololá	2	El tablón	9	Septiembre	2023-09-26T00:00:00	2024-11-06T00:00:00	1	Precipitación	0
179904	7	Sololá	701	Sololá	2	El tablón	9	Septiembre	2023-09-26T00:00:00	2024-11-06T00:00:00	8	Radiación solar	0
179905	7	Sololá	701	Sololá	2	El tablón	9	Septiembre	2023-09-26T00:00:00	2024-11-06T01:00:00	2	Temperatura media	13.4
179906	7	Sololá	701	Sololá	2	El tablón	9	Septiembre	2023-09-26T00:00:00	2024-11-06T01:00:00	4	Temperatura máxima	13.5
179907	7	Sololá	701	Sololá	2	El tablón	9	Septiembre	2023-09-26T00:00:00	2024-11-06T01:00:00	3	Temperatura mínima	13.3
179908	7	Sololá	701	Sololá	2	El tablón	9	Septiembre	2023-09-26T00:00:00	2024-11-06T01:00:00	5	Humedad	88
179909	7	Sololá	701	Sololá	2	El tablón	9	Septiembre	2023-09-26T00:00:00	2024-11-06T01:00:00	6	Velocidad del viento	0
179910	7	Sololá	701	Sololá	2	El tablón	9	Septiembre	2023-09-26T00:00:00	2024-11-06T01:00:00	7	Dirección del viento	0
179911	7	Sololá	701	Sololá	2	El tablón	9	Septiembre	2023-09-26T00:00:00	2024-11-06T01:00:00	1	Precipitación	0
179912	7	Sololá	701	Sololá	2	El tablón	9	Septiembre	2023-09-26T00:00:00	2024-11-06T01:00:00	8	Radiación solar	0
179913	7	Sololá	701	Sololá	2	El tablón	9	Septiembre	2023-09-26T00:00:00	2024-11-06T02:00:00	2	Temperatura media	13.1
179914	7	Sololá	701	Sololá	2	El tablón	9	Septiembre	2023-09-26T00:00:00	2024-11-06T02:00:00	4	Temperatura máxima	13.5
179915	7	Sololá	701	Sololá	2	El tablón	9	Septiembre	2023-09-26T00:00:00	2024-11-06T02:00:00	3	Temperatura mínima	13.1
179916	7	Sololá	701	Sololá	2	El tablón	9	Septiembre	2023-09-26T00:00:00	2024-11-06T02:00:00	5	Humedad	87
179917	7	Sololá	701	Sololá	2	El tablón	9	Septiembre	2023-09-26T00:00:00	2024-11-06T02:00:00	6	Velocidad del viento	1.6
179918	7	Sololá	701	Sololá	2	El tablón	9	Septiembre	2023-09-26T00:00:00	2024-11-06T02:00:00	7	Dirección del viento	1.61
179919	7	Sololá	701	Sololá	2	El tablón	9	Septiembre	2023-09-26T00:00:00	2024-11-06T02:00:00	1	Precipitación	0.6
179920	7	Sololá	701	Sololá	2	El tablón	9	Septiembre	2023-09-26T00:00:00	2024-11-06T02:00:00	8	Radiación solar	0
179921	7	Sololá	701	Sololá	2	El tablón	9	Septiembre	2023-09-26T00:00:00	2024-11-06T03:00:00	2	Temperatura media	12
179922	7	Sololá	701	Sololá	2	El tablón	9	Septiembre	2023-09-26T00:00:00	2024-11-06T03:00:00	4	Temperatura máxima	13.1
179923	7	Sololá	701	Sololá	2	El tablón	9	Septiembre	2023-09-26T00:00:00	2024-11-06T03:00:00	3	Temperatura mínima	11.9
179924	7	Sololá	701	Sololá	2	El tablón	9	Septiembre	2023-09-26T00:00:00	2024-11-06T03:00:00	5	Humedad	87
179925	7	Sololá	701	Sololá	2	El tablón	9	Septiembre	2023-09-26T00:00:00	2024-11-06T03:00:00	6	Velocidad del viento	4.8
179926	7	Sololá	701	Sololá	2	El tablón	9	Septiembre	2023-09-26T00:00:00	2024-11-06T03:00:00	7	Dirección del viento	4.83
179927	7	Sololá	701	Sololá	2	El tablón	9	Septiembre	2023-09-26T00:00:00	2024-11-06T03:00:00	1	Precipitación	0.6
179928	7	Sololá	701	Sololá	2	El tablón	9	Septiembre	2023-09-26T00:00:00	2024-11-06T03:00:00	8	Radiación solar	0
179929	7	Sololá	701	Sololá	2	El tablón	9	Septiembre	2023-09-26T00:00:00	2024-11-06T04:00:00	2	Temperatura media	12.3
179930	7	Sololá	701	Sololá	2	El tablón	9	Septiembre	2023-09-26T00:00:00	2024-11-06T04:00:00	4	Temperatura máxima	12.3
179931	7	Sololá	701	Sololá	2	El tablón	9	Septiembre	2023-09-26T00:00:00	2024-11-06T04:00:00	3	Temperatura mínima	12
179932	7	Sololá	701	Sololá	2	El tablón	9	Septiembre	2023-09-26T00:00:00	2024-11-06T04:00:00	5	Humedad	88
179933	7	Sololá	701	Sololá	2	El tablón	9	Septiembre	2023-09-26T00:00:00	2024-11-06T04:00:00	6	Velocidad del viento	1.6
179934	7	Sololá	701	Sololá	2	El tablón	9	Septiembre	2023-09-26T00:00:00	2024-11-06T04:00:00	7	Dirección del viento	1.61
179935	7	Sololá	701	Sololá	2	El tablón	9	Septiembre	2023-09-26T00:00:00	2024-11-06T04:00:00	1	Precipitación	0
179936	7	Sololá	701	Sololá	2	El tablón	9	Septiembre	2023-09-26T00:00:00	2024-11-06T04:00:00	8	Radiación solar	0
179937	7	Sololá	701	Sololá	2	El tablón	9	Septiembre	2023-09-26T00:00:00	2024-11-06T05:00:00	2	Temperatura media	11.8
179938	7	Sololá	701	Sololá	2	El tablón	9	Septiembre	2023-09-26T00:00:00	2024-11-06T05:00:00	4	Temperatura máxima	12.3
179939	7	Sololá	701	Sololá	2	El tablón	9	Septiembre	2023-09-26T00:00:00	2024-11-06T05:00:00	3	Temperatura mínima	11.8
179940	7	Sololá	701	Sololá	2	El tablón	9	Septiembre	2023-09-26T00:00:00	2024-11-06T05:00:00	5	Humedad	88
179941	7	Sololá	701	Sololá	2	El tablón	9	Septiembre	2023-09-26T00:00:00	2024-11-06T05:00:00	6	Velocidad del viento	3.2
179942	7	Sololá	701	Sololá	2	El tablón	9	Septiembre	2023-09-26T00:00:00	2024-11-06T05:00:00	7	Dirección del viento	3.22
179943	7	Sololá	701	Sololá	2	El tablón	9	Septiembre	2023-09-26T00:00:00	2024-11-06T05:00:00	1	Precipitación	0
179944	7	Sololá	701	Sololá	2	El tablón	9	Septiembre	2023-09-26T00:00:00	2024-11-06T05:00:00	8	Radiación solar	0
179945	7	Sololá	701	Sololá	2	El tablón	9	Septiembre	2023-09-26T00:00:00	2024-11-06T06:00:00	2	Temperatura media	11.7
179946	7	Sololá	701	Sololá	2	El tablón	9	Septiembre	2023-09-26T00:00:00	2024-11-06T06:00:00	4	Temperatura máxima	11.8
179947	7	Sololá	701	Sololá	2	El tablón	9	Septiembre	2023-09-26T00:00:00	2024-11-06T06:00:00	3	Temperatura mínima	11.2
179948	7	Sololá	701	Sololá	2	El tablón	9	Septiembre	2023-09-26T00:00:00	2024-11-06T06:00:00	5	Humedad	89
179949	7	Sololá	701	Sololá	2	El tablón	9	Septiembre	2023-09-26T00:00:00	2024-11-06T06:00:00	6	Velocidad del viento	3.2
179950	7	Sololá	701	Sololá	2	El tablón	9	Septiembre	2023-09-26T00:00:00	2024-11-06T06:00:00	7	Dirección del viento	3.22
179951	7	Sololá	701	Sololá	2	El tablón	9	Septiembre	2023-09-26T00:00:00	2024-11-06T06:00:00	1	Precipitación	0
179952	7	Sololá	701	Sololá	2	El tablón	9	Septiembre	2023-09-26T00:00:00	2024-11-06T06:00:00	8	Radiación solar	0
179953	7	Sololá	701	Sololá	2	El tablón	9	Septiembre	2023-09-26T00:00:00	2024-11-06T07:00:00	2	Temperatura media	13
179954	7	Sololá	701	Sololá	2	El tablón	9	Septiembre	2023-09-26T00:00:00	2024-11-06T07:00:00	4	Temperatura máxima	13
179955	7	Sololá	701	Sololá	2	El tablón	9	Septiembre	2023-09-26T00:00:00	2024-11-06T07:00:00	3	Temperatura mínima	11.4
179956	7	Sololá	701	Sololá	2	El tablón	9	Septiembre	2023-09-26T00:00:00	2024-11-06T07:00:00	5	Humedad	87
179957	7	Sololá	701	Sololá	2	El tablón	9	Septiembre	2023-09-26T00:00:00	2024-11-06T07:00:00	6	Velocidad del viento	4.8
179958	7	Sololá	701	Sololá	2	El tablón	9	Septiembre	2023-09-26T00:00:00	2024-11-06T07:00:00	7	Dirección del viento	4.83
179959	7	Sololá	701	Sololá	2	El tablón	9	Septiembre	2023-09-26T00:00:00	2024-11-06T07:00:00	1	Precipitación	0.2
179960	7	Sololá	701	Sololá	2	El tablón	9	Septiembre	2023-09-26T00:00:00	2024-11-06T07:00:00	8	Radiación solar	65
179961	7	Sololá	701	Sololá	2	El tablón	9	Septiembre	2023-09-26T00:00:00	2024-11-06T08:00:00	2	Temperatura media	16.5
179962	7	Sololá	701	Sololá	2	El tablón	9	Septiembre	2023-09-26T00:00:00	2024-11-06T08:00:00	4	Temperatura máxima	16.5
179963	7	Sololá	701	Sololá	2	El tablón	9	Septiembre	2023-09-26T00:00:00	2024-11-06T08:00:00	3	Temperatura mínima	13
179964	7	Sololá	701	Sololá	2	El tablón	9	Septiembre	2023-09-26T00:00:00	2024-11-06T08:00:00	5	Humedad	77
179965	7	Sololá	701	Sololá	2	El tablón	9	Septiembre	2023-09-26T00:00:00	2024-11-06T08:00:00	6	Velocidad del viento	3.2
179966	7	Sololá	701	Sololá	2	El tablón	9	Septiembre	2023-09-26T00:00:00	2024-11-06T08:00:00	7	Dirección del viento	3.22
179967	7	Sololá	701	Sololá	2	El tablón	9	Septiembre	2023-09-26T00:00:00	2024-11-06T08:00:00	1	Precipitación	0
179968	7	Sololá	701	Sololá	2	El tablón	9	Septiembre	2023-09-26T00:00:00	2024-11-06T08:00:00	8	Radiación solar	236
179969	7	Sololá	701	Sololá	2	El tablón	9	Septiembre	2023-09-26T00:00:00	2024-11-06T09:00:00	2	Temperatura media	18
179970	7	Sololá	701	Sololá	2	El tablón	9	Septiembre	2023-09-26T00:00:00	2024-11-06T09:00:00	4	Temperatura máxima	18.1
179971	7	Sololá	701	Sololá	2	El tablón	9	Septiembre	2023-09-26T00:00:00	2024-11-06T09:00:00	3	Temperatura mínima	16.5
179972	7	Sololá	701	Sololá	2	El tablón	9	Septiembre	2023-09-26T00:00:00	2024-11-06T09:00:00	5	Humedad	78
179973	7	Sololá	701	Sololá	2	El tablón	9	Septiembre	2023-09-26T00:00:00	2024-11-06T09:00:00	6	Velocidad del viento	4.8
179974	7	Sololá	701	Sololá	2	El tablón	9	Septiembre	2023-09-26T00:00:00	2024-11-06T09:00:00	7	Dirección del viento	4.83
179975	7	Sololá	701	Sololá	2	El tablón	9	Septiembre	2023-09-26T00:00:00	2024-11-06T09:00:00	1	Precipitación	0
179976	7	Sololá	701	Sololá	2	El tablón	9	Septiembre	2023-09-26T00:00:00	2024-11-06T09:00:00	8	Radiación solar	392
179977	7	Sololá	701	Sololá	2	El tablón	9	Septiembre	2023-09-26T00:00:00	2024-11-06T10:00:00	2	Temperatura media	18.6
179978	7	Sololá	701	Sololá	2	El tablón	9	Septiembre	2023-09-26T00:00:00	2024-11-06T10:00:00	4	Temperatura máxima	19.4
179979	7	Sololá	701	Sololá	2	El tablón	9	Septiembre	2023-09-26T00:00:00	2024-11-06T10:00:00	3	Temperatura mínima	17.9
179980	7	Sololá	701	Sololá	2	El tablón	9	Septiembre	2023-09-26T00:00:00	2024-11-06T10:00:00	5	Humedad	72
179981	7	Sololá	701	Sololá	2	El tablón	9	Septiembre	2023-09-26T00:00:00	2024-11-06T10:00:00	6	Velocidad del viento	8
179982	7	Sololá	701	Sololá	2	El tablón	9	Septiembre	2023-09-26T00:00:00	2024-11-06T10:00:00	7	Dirección del viento	8.05
179983	7	Sololá	701	Sololá	2	El tablón	9	Septiembre	2023-09-26T00:00:00	2024-11-06T10:00:00	1	Precipitación	0
179984	7	Sololá	701	Sololá	2	El tablón	9	Septiembre	2023-09-26T00:00:00	2024-11-06T10:00:00	8	Radiación solar	600
179985	7	Sololá	701	Sololá	2	El tablón	9	Septiembre	2023-09-26T00:00:00	2024-11-06T11:00:00	2	Temperatura media	20.1
179986	7	Sololá	701	Sololá	2	El tablón	9	Septiembre	2023-09-26T00:00:00	2024-11-06T11:00:00	4	Temperatura máxima	20.1
179987	7	Sololá	701	Sololá	2	El tablón	9	Septiembre	2023-09-26T00:00:00	2024-11-06T11:00:00	3	Temperatura mínima	18.5
179988	7	Sololá	701	Sololá	2	El tablón	9	Septiembre	2023-09-26T00:00:00	2024-11-06T11:00:00	5	Humedad	64
179989	7	Sololá	701	Sololá	2	El tablón	9	Septiembre	2023-09-26T00:00:00	2024-11-06T11:00:00	6	Velocidad del viento	8
179990	7	Sololá	701	Sololá	2	El tablón	9	Septiembre	2023-09-26T00:00:00	2024-11-06T11:00:00	7	Dirección del viento	8.05
179991	7	Sololá	701	Sololá	2	El tablón	9	Septiembre	2023-09-26T00:00:00	2024-11-06T11:00:00	1	Precipitación	0
179992	7	Sololá	701	Sololá	2	El tablón	9	Septiembre	2023-09-26T00:00:00	2024-11-06T11:00:00	8	Radiación solar	789
179993	7	Sololá	701	Sololá	2	El tablón	9	Septiembre	2023-09-26T00:00:00	2024-11-06T12:00:00	2	Temperatura media	19
179994	7	Sololá	701	Sololá	2	El tablón	9	Septiembre	2023-09-26T00:00:00	2024-11-06T12:00:00	4	Temperatura máxima	21.1
179995	7	Sololá	701	Sololá	2	El tablón	9	Septiembre	2023-09-26T00:00:00	2024-11-06T12:00:00	3	Temperatura mínima	19
179996	7	Sololá	701	Sololá	2	El tablón	9	Septiembre	2023-09-26T00:00:00	2024-11-06T12:00:00	5	Humedad	78
179997	7	Sololá	701	Sololá	2	El tablón	9	Septiembre	2023-09-26T00:00:00	2024-11-06T12:00:00	6	Velocidad del viento	4.8
179998	7	Sololá	701	Sololá	2	El tablón	9	Septiembre	2023-09-26T00:00:00	2024-11-06T12:00:00	7	Dirección del viento	4.83
179999	7	Sololá	701	Sololá	2	El tablón	9	Septiembre	2023-09-26T00:00:00	2024-11-06T12:00:00	1	Precipitación	0
180000	7	Sololá	701	Sololá	2	El tablón	9	Septiembre	2023-09-26T00:00:00	2024-11-06T12:00:00	8	Radiación solar	492
180001	7	Sololá	701	Sololá	2	El tablón	9	Septiembre	2023-09-26T00:00:00	2024-11-06T13:00:00	2	Temperatura media	19.4
180002	7	Sololá	701	Sololá	2	El tablón	9	Septiembre	2023-09-26T00:00:00	2024-11-06T13:00:00	4	Temperatura máxima	19.8
180003	7	Sololá	701	Sololá	2	El tablón	9	Septiembre	2023-09-26T00:00:00	2024-11-06T13:00:00	3	Temperatura mínima	19
180004	7	Sololá	701	Sololá	2	El tablón	9	Septiembre	2023-09-26T00:00:00	2024-11-06T13:00:00	5	Humedad	82
180005	7	Sololá	701	Sololá	2	El tablón	9	Septiembre	2023-09-26T00:00:00	2024-11-06T13:00:00	6	Velocidad del viento	8
180006	7	Sololá	701	Sololá	2	El tablón	9	Septiembre	2023-09-26T00:00:00	2024-11-06T13:00:00	7	Dirección del viento	8.05
180007	7	Sololá	701	Sololá	2	El tablón	9	Septiembre	2023-09-26T00:00:00	2024-11-06T13:00:00	1	Precipitación	0
180008	7	Sololá	701	Sololá	2	El tablón	9	Septiembre	2023-09-26T00:00:00	2024-11-06T13:00:00	8	Radiación solar	1020
180009	7	Sololá	701	Sololá	2	El tablón	9	Septiembre	2023-09-26T00:00:00	2024-11-06T14:00:00	2	Temperatura media	17.6
180010	7	Sololá	701	Sololá	2	El tablón	9	Septiembre	2023-09-26T00:00:00	2024-11-06T14:00:00	4	Temperatura máxima	19.6
180011	7	Sololá	701	Sololá	2	El tablón	9	Septiembre	2023-09-26T00:00:00	2024-11-06T14:00:00	3	Temperatura mínima	17.5
180012	7	Sololá	701	Sololá	2	El tablón	9	Septiembre	2023-09-26T00:00:00	2024-11-06T14:00:00	5	Humedad	87
180013	7	Sololá	701	Sololá	2	El tablón	9	Septiembre	2023-09-26T00:00:00	2024-11-06T14:00:00	6	Velocidad del viento	9.7
180014	7	Sololá	701	Sololá	2	El tablón	9	Septiembre	2023-09-26T00:00:00	2024-11-06T14:00:00	7	Dirección del viento	9.66
180015	7	Sololá	701	Sololá	2	El tablón	9	Septiembre	2023-09-26T00:00:00	2024-11-06T14:00:00	1	Precipitación	0
180016	7	Sololá	701	Sololá	2	El tablón	9	Septiembre	2023-09-26T00:00:00	2024-11-06T14:00:00	8	Radiación solar	565
180017	7	Sololá	701	Sololá	2	El tablón	9	Septiembre	2023-09-26T00:00:00	2024-11-06T15:00:00	2	Temperatura media	17.1
180018	7	Sololá	701	Sololá	2	El tablón	9	Septiembre	2023-09-26T00:00:00	2024-11-06T15:00:00	4	Temperatura máxima	17.8
180019	7	Sololá	701	Sololá	2	El tablón	9	Septiembre	2023-09-26T00:00:00	2024-11-06T15:00:00	3	Temperatura mínima	17.1
180020	7	Sololá	701	Sololá	2	El tablón	9	Septiembre	2023-09-26T00:00:00	2024-11-06T15:00:00	5	Humedad	87
180021	7	Sololá	701	Sololá	2	El tablón	9	Septiembre	2023-09-26T00:00:00	2024-11-06T15:00:00	6	Velocidad del viento	6.4
180022	7	Sololá	701	Sololá	2	El tablón	9	Septiembre	2023-09-26T00:00:00	2024-11-06T15:00:00	7	Dirección del viento	6.44
180023	7	Sololá	701	Sololá	2	El tablón	9	Septiembre	2023-09-26T00:00:00	2024-11-06T15:00:00	1	Precipitación	0
180024	7	Sololá	701	Sololá	2	El tablón	9	Septiembre	2023-09-26T00:00:00	2024-11-06T15:00:00	8	Radiación solar	201
180025	7	Sololá	701	Sololá	2	El tablón	9	Septiembre	2023-09-26T00:00:00	2024-11-06T16:00:00	2	Temperatura media	16.1
180026	7	Sololá	701	Sololá	2	El tablón	9	Septiembre	2023-09-26T00:00:00	2024-11-06T16:00:00	4	Temperatura máxima	17.1
180027	7	Sololá	701	Sololá	2	El tablón	9	Septiembre	2023-09-26T00:00:00	2024-11-06T16:00:00	3	Temperatura mínima	16.1
180028	7	Sololá	701	Sololá	2	El tablón	9	Septiembre	2023-09-26T00:00:00	2024-11-06T16:00:00	5	Humedad	87
180029	7	Sololá	701	Sololá	2	El tablón	9	Septiembre	2023-09-26T00:00:00	2024-11-06T16:00:00	6	Velocidad del viento	3.2
180030	7	Sololá	701	Sololá	2	El tablón	9	Septiembre	2023-09-26T00:00:00	2024-11-06T16:00:00	7	Dirección del viento	3.22
180031	7	Sololá	701	Sololá	2	El tablón	9	Septiembre	2023-09-26T00:00:00	2024-11-06T16:00:00	1	Precipitación	1.2
180032	7	Sololá	701	Sololá	2	El tablón	9	Septiembre	2023-09-26T00:00:00	2024-11-06T16:00:00	8	Radiación solar	99
180033	7	Sololá	701	Sololá	2	El tablón	9	Septiembre	2023-09-26T00:00:00	2024-11-06T17:00:00	2	Temperatura media	14.2
180034	7	Sololá	701	Sololá	2	El tablón	9	Septiembre	2023-09-26T00:00:00	2024-11-06T17:00:00	4	Temperatura máxima	16
180035	7	Sololá	701	Sololá	2	El tablón	9	Septiembre	2023-09-26T00:00:00	2024-11-06T17:00:00	3	Temperatura mínima	14.2
180036	7	Sololá	701	Sololá	2	El tablón	9	Septiembre	2023-09-26T00:00:00	2024-11-06T17:00:00	5	Humedad	87
180037	7	Sololá	701	Sololá	2	El tablón	9	Septiembre	2023-09-26T00:00:00	2024-11-06T17:00:00	6	Velocidad del viento	3.2
180038	7	Sololá	701	Sololá	2	El tablón	9	Septiembre	2023-09-26T00:00:00	2024-11-06T17:00:00	7	Dirección del viento	3.22
180039	7	Sololá	701	Sololá	2	El tablón	9	Septiembre	2023-09-26T00:00:00	2024-11-06T17:00:00	1	Precipitación	17.2
180040	7	Sololá	701	Sololá	2	El tablón	9	Septiembre	2023-09-26T00:00:00	2024-11-06T17:00:00	8	Radiación solar	7
180041	7	Sololá	701	Sololá	2	El tablón	9	Septiembre	2023-09-26T00:00:00	2024-11-06T18:00:00	2	Temperatura media	14.1
180042	7	Sololá	701	Sololá	2	El tablón	9	Septiembre	2023-09-26T00:00:00	2024-11-06T18:00:00	4	Temperatura máxima	14.2
180043	7	Sololá	701	Sololá	2	El tablón	9	Septiembre	2023-09-26T00:00:00	2024-11-06T18:00:00	3	Temperatura mínima	13.9
180044	7	Sololá	701	Sololá	2	El tablón	9	Septiembre	2023-09-26T00:00:00	2024-11-06T18:00:00	5	Humedad	86
180045	7	Sololá	701	Sololá	2	El tablón	9	Septiembre	2023-09-26T00:00:00	2024-11-06T18:00:00	6	Velocidad del viento	1.6
180046	7	Sololá	701	Sololá	2	El tablón	9	Septiembre	2023-09-26T00:00:00	2024-11-06T18:00:00	7	Dirección del viento	1.61
180047	7	Sololá	701	Sololá	2	El tablón	9	Septiembre	2023-09-26T00:00:00	2024-11-06T18:00:00	1	Precipitación	0.8
180048	7	Sololá	701	Sololá	2	El tablón	9	Septiembre	2023-09-26T00:00:00	2024-11-06T18:00:00	8	Radiación solar	0
180049	7	Sololá	701	Sololá	2	El tablón	9	Septiembre	2023-09-26T00:00:00	2024-11-06T19:00:00	2	Temperatura media	14.1
180050	7	Sololá	701	Sololá	2	El tablón	9	Septiembre	2023-09-26T00:00:00	2024-11-06T19:00:00	4	Temperatura máxima	14.2
180051	7	Sololá	701	Sololá	2	El tablón	9	Septiembre	2023-09-26T00:00:00	2024-11-06T19:00:00	3	Temperatura mínima	14
180052	7	Sololá	701	Sololá	2	El tablón	9	Septiembre	2023-09-26T00:00:00	2024-11-06T19:00:00	5	Humedad	87
180053	7	Sololá	701	Sololá	2	El tablón	9	Septiembre	2023-09-26T00:00:00	2024-11-06T19:00:00	6	Velocidad del viento	1.6
180054	7	Sololá	701	Sololá	2	El tablón	9	Septiembre	2023-09-26T00:00:00	2024-11-06T19:00:00	7	Dirección del viento	1.61
180055	7	Sololá	701	Sololá	2	El tablón	9	Septiembre	2023-09-26T00:00:00	2024-11-06T19:00:00	1	Precipitación	1.2
180056	7	Sololá	701	Sololá	2	El tablón	9	Septiembre	2023-09-26T00:00:00	2024-11-06T19:00:00	8	Radiación solar	0
180057	7	Sololá	701	Sololá	2	El tablón	9	Septiembre	2023-09-26T00:00:00	2024-11-06T20:00:00	2	Temperatura media	14
180058	7	Sololá	701	Sololá	2	El tablón	9	Septiembre	2023-09-26T00:00:00	2024-11-06T20:00:00	4	Temperatura máxima	14.1
180059	7	Sololá	701	Sololá	2	El tablón	9	Septiembre	2023-09-26T00:00:00	2024-11-06T20:00:00	3	Temperatura mínima	13.9
180060	7	Sololá	701	Sololá	2	El tablón	9	Septiembre	2023-09-26T00:00:00	2024-11-06T20:00:00	5	Humedad	87
180061	7	Sololá	701	Sololá	2	El tablón	9	Septiembre	2023-09-26T00:00:00	2024-11-06T20:00:00	6	Velocidad del viento	1.6
180062	7	Sololá	701	Sololá	2	El tablón	9	Septiembre	2023-09-26T00:00:00	2024-11-06T20:00:00	7	Dirección del viento	1.61
180063	7	Sololá	701	Sololá	2	El tablón	9	Septiembre	2023-09-26T00:00:00	2024-11-06T20:00:00	1	Precipitación	1
180064	7	Sololá	701	Sololá	2	El tablón	9	Septiembre	2023-09-26T00:00:00	2024-11-06T20:00:00	8	Radiación solar	0
180065	7	Sololá	701	Sololá	2	El tablón	9	Septiembre	2023-09-26T00:00:00	2024-11-06T21:00:00	2	Temperatura media	13.4
180066	7	Sololá	701	Sololá	2	El tablón	9	Septiembre	2023-09-26T00:00:00	2024-11-06T21:00:00	4	Temperatura máxima	14
180067	7	Sololá	701	Sololá	2	El tablón	9	Septiembre	2023-09-26T00:00:00	2024-11-06T21:00:00	3	Temperatura mínima	13.4
180068	7	Sololá	701	Sololá	2	El tablón	9	Septiembre	2023-09-26T00:00:00	2024-11-06T21:00:00	5	Humedad	88
180069	7	Sololá	701	Sololá	2	El tablón	9	Septiembre	2023-09-26T00:00:00	2024-11-06T21:00:00	6	Velocidad del viento	3.2
180070	7	Sololá	701	Sololá	2	El tablón	9	Septiembre	2023-09-26T00:00:00	2024-11-06T21:00:00	7	Dirección del viento	3.22
180071	7	Sololá	701	Sololá	2	El tablón	9	Septiembre	2023-09-26T00:00:00	2024-11-06T21:00:00	1	Precipitación	0
180072	7	Sololá	701	Sololá	2	El tablón	9	Septiembre	2023-09-26T00:00:00	2024-11-06T21:00:00	8	Radiación solar	0
180073	7	Sololá	701	Sololá	2	El tablón	9	Septiembre	2023-09-26T00:00:00	2024-11-06T22:00:00	2	Temperatura media	13.5
180074	7	Sololá	701	Sololá	2	El tablón	9	Septiembre	2023-09-26T00:00:00	2024-11-06T22:00:00	4	Temperatura máxima	13.5
180075	7	Sololá	701	Sololá	2	El tablón	9	Septiembre	2023-09-26T00:00:00	2024-11-06T22:00:00	3	Temperatura mínima	13.4
180076	7	Sololá	701	Sololá	2	El tablón	9	Septiembre	2023-09-26T00:00:00	2024-11-06T22:00:00	5	Humedad	88
180077	7	Sololá	701	Sololá	2	El tablón	9	Septiembre	2023-09-26T00:00:00	2024-11-06T22:00:00	6	Velocidad del viento	4.8
180078	7	Sololá	701	Sololá	2	El tablón	9	Septiembre	2023-09-26T00:00:00	2024-11-06T22:00:00	7	Dirección del viento	4.83
180079	7	Sololá	701	Sololá	2	El tablón	9	Septiembre	2023-09-26T00:00:00	2024-11-06T22:00:00	1	Precipitación	0
180080	7	Sololá	701	Sololá	2	El tablón	9	Septiembre	2023-09-26T00:00:00	2024-11-06T22:00:00	8	Radiación solar	0
180081	7	Sololá	701	Sololá	2	El tablón	9	Septiembre	2023-09-26T00:00:00	2024-11-06T23:00:00	2	Temperatura media	13
180082	7	Sololá	701	Sololá	2	El tablón	9	Septiembre	2023-09-26T00:00:00	2024-11-06T23:00:00	4	Temperatura máxima	13.5
180083	7	Sololá	701	Sololá	2	El tablón	9	Septiembre	2023-09-26T00:00:00	2024-11-06T23:00:00	3	Temperatura mínima	13
180084	7	Sololá	701	Sololá	2	El tablón	9	Septiembre	2023-09-26T00:00:00	2024-11-06T23:00:00	5	Humedad	88
180085	7	Sololá	701	Sololá	2	El tablón	9	Septiembre	2023-09-26T00:00:00	2024-11-06T23:00:00	6	Velocidad del viento	3.2
180086	7	Sololá	701	Sololá	2	El tablón	9	Septiembre	2023-09-26T00:00:00	2024-11-06T23:00:00	7	Dirección del viento	3.22
180087	7	Sololá	701	Sololá	2	El tablón	9	Septiembre	2023-09-26T00:00:00	2024-11-06T23:00:00	1	Precipitación	0
180088	7	Sololá	701	Sololá	2	El tablón	9	Septiembre	2023-09-26T00:00:00	2024-11-06T23:00:00	8	Radiación solar	0
180089	7	Sololá	701	Sololá	2	El tablón	9	Septiembre	2023-09-27T00:00:00	2024-11-06T00:00:00	2	Temperatura media	13
180090	7	Sololá	701	Sololá	2	El tablón	9	Septiembre	2023-09-27T00:00:00	2024-11-06T00:00:00	4	Temperatura máxima	13.3
180091	7	Sololá	701	Sololá	2	El tablón	9	Septiembre	2023-09-27T00:00:00	2024-11-06T00:00:00	3	Temperatura mínima	12.9
180092	7	Sololá	701	Sololá	2	El tablón	9	Septiembre	2023-09-27T00:00:00	2024-11-06T00:00:00	5	Humedad	88
180093	7	Sololá	701	Sololá	2	El tablón	9	Septiembre	2023-09-27T00:00:00	2024-11-06T00:00:00	6	Velocidad del viento	4.8
180094	7	Sololá	701	Sololá	2	El tablón	9	Septiembre	2023-09-27T00:00:00	2024-11-06T00:00:00	7	Dirección del viento	4.83
180095	7	Sololá	701	Sololá	2	El tablón	9	Septiembre	2023-09-27T00:00:00	2024-11-06T00:00:00	1	Precipitación	0
180096	7	Sololá	701	Sololá	2	El tablón	9	Septiembre	2023-09-27T00:00:00	2024-11-06T00:00:00	8	Radiación solar	0
180097	7	Sololá	701	Sololá	2	El tablón	9	Septiembre	2023-09-27T00:00:00	2024-11-06T01:00:00	2	Temperatura media	12.9
180098	7	Sololá	701	Sololá	2	El tablón	9	Septiembre	2023-09-27T00:00:00	2024-11-06T01:00:00	4	Temperatura máxima	13.2
180099	7	Sololá	701	Sololá	2	El tablón	9	Septiembre	2023-09-27T00:00:00	2024-11-06T01:00:00	3	Temperatura mínima	12.9
180100	7	Sololá	701	Sololá	2	El tablón	9	Septiembre	2023-09-27T00:00:00	2024-11-06T01:00:00	5	Humedad	88
180101	7	Sololá	701	Sololá	2	El tablón	9	Septiembre	2023-09-27T00:00:00	2024-11-06T01:00:00	6	Velocidad del viento	4.8
180102	7	Sololá	701	Sololá	2	El tablón	9	Septiembre	2023-09-27T00:00:00	2024-11-06T01:00:00	7	Dirección del viento	4.83
180103	7	Sololá	701	Sololá	2	El tablón	9	Septiembre	2023-09-27T00:00:00	2024-11-06T01:00:00	1	Precipitación	0
180104	7	Sololá	701	Sololá	2	El tablón	9	Septiembre	2023-09-27T00:00:00	2024-11-06T01:00:00	8	Radiación solar	0
180105	7	Sololá	701	Sololá	2	El tablón	9	Septiembre	2023-09-27T00:00:00	2024-11-06T02:00:00	2	Temperatura media	13.1
180106	7	Sololá	701	Sololá	2	El tablón	9	Septiembre	2023-09-27T00:00:00	2024-11-06T02:00:00	4	Temperatura máxima	13.1
180107	7	Sololá	701	Sololá	2	El tablón	9	Septiembre	2023-09-27T00:00:00	2024-11-06T02:00:00	3	Temperatura mínima	12.8
180108	7	Sololá	701	Sololá	2	El tablón	9	Septiembre	2023-09-27T00:00:00	2024-11-06T02:00:00	5	Humedad	88
180109	7	Sololá	701	Sololá	2	El tablón	9	Septiembre	2023-09-27T00:00:00	2024-11-06T02:00:00	6	Velocidad del viento	1.6
180110	7	Sololá	701	Sololá	2	El tablón	9	Septiembre	2023-09-27T00:00:00	2024-11-06T02:00:00	7	Dirección del viento	1.61
180111	7	Sololá	701	Sololá	2	El tablón	9	Septiembre	2023-09-27T00:00:00	2024-11-06T02:00:00	1	Precipitación	0
180112	7	Sololá	701	Sololá	2	El tablón	9	Septiembre	2023-09-27T00:00:00	2024-11-06T02:00:00	8	Radiación solar	0
180113	7	Sololá	701	Sololá	2	El tablón	9	Septiembre	2023-09-27T00:00:00	2024-11-06T03:00:00	2	Temperatura media	12.5
180114	7	Sololá	701	Sololá	2	El tablón	9	Septiembre	2023-09-27T00:00:00	2024-11-06T03:00:00	4	Temperatura máxima	13.1
180115	7	Sololá	701	Sololá	2	El tablón	9	Septiembre	2023-09-27T00:00:00	2024-11-06T03:00:00	3	Temperatura mínima	12.4
180116	7	Sololá	701	Sololá	2	El tablón	9	Septiembre	2023-09-27T00:00:00	2024-11-06T03:00:00	5	Humedad	88
180117	7	Sololá	701	Sololá	2	El tablón	9	Septiembre	2023-09-27T00:00:00	2024-11-06T03:00:00	6	Velocidad del viento	1.6
180118	7	Sololá	701	Sololá	2	El tablón	9	Septiembre	2023-09-27T00:00:00	2024-11-06T03:00:00	7	Dirección del viento	1.61
180119	7	Sololá	701	Sololá	2	El tablón	9	Septiembre	2023-09-27T00:00:00	2024-11-06T03:00:00	1	Precipitación	0
180120	7	Sololá	701	Sololá	2	El tablón	9	Septiembre	2023-09-27T00:00:00	2024-11-06T03:00:00	8	Radiación solar	0
180121	7	Sololá	701	Sololá	2	El tablón	9	Septiembre	2023-09-27T00:00:00	2024-11-06T04:00:00	2	Temperatura media	12.2
180122	7	Sololá	701	Sololá	2	El tablón	9	Septiembre	2023-09-27T00:00:00	2024-11-06T04:00:00	4	Temperatura máxima	12.5
180123	7	Sololá	701	Sololá	2	El tablón	9	Septiembre	2023-09-27T00:00:00	2024-11-06T04:00:00	3	Temperatura mínima	12.1
180124	7	Sololá	701	Sololá	2	El tablón	9	Septiembre	2023-09-27T00:00:00	2024-11-06T04:00:00	5	Humedad	88
180125	7	Sololá	701	Sololá	2	El tablón	9	Septiembre	2023-09-27T00:00:00	2024-11-06T04:00:00	6	Velocidad del viento	1.6
180126	7	Sololá	701	Sololá	2	El tablón	9	Septiembre	2023-09-27T00:00:00	2024-11-06T04:00:00	7	Dirección del viento	1.61
180127	7	Sololá	701	Sololá	2	El tablón	9	Septiembre	2023-09-27T00:00:00	2024-11-06T04:00:00	1	Precipitación	0
180128	7	Sololá	701	Sololá	2	El tablón	9	Septiembre	2023-09-27T00:00:00	2024-11-06T04:00:00	8	Radiación solar	0
180129	7	Sololá	701	Sololá	2	El tablón	9	Septiembre	2023-09-27T00:00:00	2024-11-06T05:00:00	2	Temperatura media	12.4
180130	7	Sololá	701	Sololá	2	El tablón	9	Septiembre	2023-09-27T00:00:00	2024-11-06T05:00:00	4	Temperatura máxima	12.6
180131	7	Sololá	701	Sololá	2	El tablón	9	Septiembre	2023-09-27T00:00:00	2024-11-06T05:00:00	3	Temperatura mínima	12.2
180132	7	Sololá	701	Sololá	2	El tablón	9	Septiembre	2023-09-27T00:00:00	2024-11-06T05:00:00	5	Humedad	88
180133	7	Sololá	701	Sololá	2	El tablón	9	Septiembre	2023-09-27T00:00:00	2024-11-06T05:00:00	6	Velocidad del viento	4.8
180134	7	Sololá	701	Sololá	2	El tablón	9	Septiembre	2023-09-27T00:00:00	2024-11-06T05:00:00	7	Dirección del viento	4.83
180135	7	Sololá	701	Sololá	2	El tablón	9	Septiembre	2023-09-27T00:00:00	2024-11-06T05:00:00	1	Precipitación	0
180136	7	Sololá	701	Sololá	2	El tablón	9	Septiembre	2023-09-27T00:00:00	2024-11-06T05:00:00	8	Radiación solar	0
180137	7	Sololá	701	Sololá	2	El tablón	9	Septiembre	2023-09-27T00:00:00	2024-11-06T06:00:00	2	Temperatura media	11.8
180138	7	Sololá	701	Sololá	2	El tablón	9	Septiembre	2023-09-27T00:00:00	2024-11-06T06:00:00	4	Temperatura máxima	12.4
180139	7	Sololá	701	Sololá	2	El tablón	9	Septiembre	2023-09-27T00:00:00	2024-11-06T06:00:00	3	Temperatura mínima	11.8
180140	7	Sololá	701	Sololá	2	El tablón	9	Septiembre	2023-09-27T00:00:00	2024-11-06T06:00:00	5	Humedad	88
180141	7	Sololá	701	Sololá	2	El tablón	9	Septiembre	2023-09-27T00:00:00	2024-11-06T06:00:00	6	Velocidad del viento	3.2
180142	7	Sololá	701	Sololá	2	El tablón	9	Septiembre	2023-09-27T00:00:00	2024-11-06T06:00:00	7	Dirección del viento	3.22
180143	7	Sololá	701	Sololá	2	El tablón	9	Septiembre	2023-09-27T00:00:00	2024-11-06T06:00:00	1	Precipitación	0
180144	7	Sololá	701	Sololá	2	El tablón	9	Septiembre	2023-09-27T00:00:00	2024-11-06T06:00:00	8	Radiación solar	0
180145	7	Sololá	701	Sololá	2	El tablón	9	Septiembre	2023-09-27T00:00:00	2024-11-06T07:00:00	2	Temperatura media	12.7
180146	7	Sololá	701	Sololá	2	El tablón	9	Septiembre	2023-09-27T00:00:00	2024-11-06T07:00:00	4	Temperatura máxima	12.7
180147	7	Sololá	701	Sololá	2	El tablón	9	Septiembre	2023-09-27T00:00:00	2024-11-06T07:00:00	3	Temperatura mínima	11.6
180148	7	Sololá	701	Sololá	2	El tablón	9	Septiembre	2023-09-27T00:00:00	2024-11-06T07:00:00	5	Humedad	88
180149	7	Sololá	701	Sololá	2	El tablón	9	Septiembre	2023-09-27T00:00:00	2024-11-06T07:00:00	6	Velocidad del viento	3.2
180150	7	Sololá	701	Sololá	2	El tablón	9	Septiembre	2023-09-27T00:00:00	2024-11-06T07:00:00	7	Dirección del viento	3.22
180151	7	Sololá	701	Sololá	2	El tablón	9	Septiembre	2023-09-27T00:00:00	2024-11-06T07:00:00	1	Precipitación	0
180152	7	Sololá	701	Sololá	2	El tablón	9	Septiembre	2023-09-27T00:00:00	2024-11-06T07:00:00	8	Radiación solar	57
180153	7	Sololá	701	Sololá	2	El tablón	9	Septiembre	2023-09-27T00:00:00	2024-11-06T08:00:00	2	Temperatura media	16.4
180154	7	Sololá	701	Sololá	2	El tablón	9	Septiembre	2023-09-27T00:00:00	2024-11-06T08:00:00	4	Temperatura máxima	16.4
180155	7	Sololá	701	Sololá	2	El tablón	9	Septiembre	2023-09-27T00:00:00	2024-11-06T08:00:00	3	Temperatura mínima	12.7
180156	7	Sololá	701	Sololá	2	El tablón	9	Septiembre	2023-09-27T00:00:00	2024-11-06T08:00:00	5	Humedad	82
180157	7	Sololá	701	Sololá	2	El tablón	9	Septiembre	2023-09-27T00:00:00	2024-11-06T08:00:00	6	Velocidad del viento	1.6
180158	7	Sololá	701	Sololá	2	El tablón	9	Septiembre	2023-09-27T00:00:00	2024-11-06T08:00:00	7	Dirección del viento	1.61
180159	7	Sololá	701	Sololá	2	El tablón	9	Septiembre	2023-09-27T00:00:00	2024-11-06T08:00:00	1	Precipitación	0
180160	7	Sololá	701	Sololá	2	El tablón	9	Septiembre	2023-09-27T00:00:00	2024-11-06T08:00:00	8	Radiación solar	228
180161	7	Sololá	701	Sololá	2	El tablón	9	Septiembre	2023-09-27T00:00:00	2024-11-06T09:00:00	2	Temperatura media	17.7
180162	7	Sololá	701	Sololá	2	El tablón	9	Septiembre	2023-09-27T00:00:00	2024-11-06T09:00:00	4	Temperatura máxima	17.8
180163	7	Sololá	701	Sololá	2	El tablón	9	Septiembre	2023-09-27T00:00:00	2024-11-06T09:00:00	3	Temperatura mínima	16.4
180164	7	Sololá	701	Sololá	2	El tablón	9	Septiembre	2023-09-27T00:00:00	2024-11-06T09:00:00	5	Humedad	80
180165	7	Sololá	701	Sololá	2	El tablón	9	Septiembre	2023-09-27T00:00:00	2024-11-06T09:00:00	6	Velocidad del viento	1.6
180166	7	Sololá	701	Sololá	2	El tablón	9	Septiembre	2023-09-27T00:00:00	2024-11-06T09:00:00	7	Dirección del viento	1.61
180167	7	Sololá	701	Sololá	2	El tablón	9	Septiembre	2023-09-27T00:00:00	2024-11-06T09:00:00	1	Precipitación	0
180168	7	Sololá	701	Sololá	2	El tablón	9	Septiembre	2023-09-27T00:00:00	2024-11-06T09:00:00	8	Radiación solar	395
180169	7	Sololá	701	Sololá	2	El tablón	9	Septiembre	2023-09-27T00:00:00	2024-11-06T10:00:00	2	Temperatura media	18.1
180170	7	Sololá	701	Sololá	2	El tablón	9	Septiembre	2023-09-27T00:00:00	2024-11-06T10:00:00	4	Temperatura máxima	19
180171	7	Sololá	701	Sololá	2	El tablón	9	Septiembre	2023-09-27T00:00:00	2024-11-06T10:00:00	3	Temperatura mínima	17.7
180172	7	Sololá	701	Sololá	2	El tablón	9	Septiembre	2023-09-27T00:00:00	2024-11-06T10:00:00	5	Humedad	81
180173	7	Sololá	701	Sololá	2	El tablón	9	Septiembre	2023-09-27T00:00:00	2024-11-06T10:00:00	6	Velocidad del viento	4.8
180174	7	Sololá	701	Sololá	2	El tablón	9	Septiembre	2023-09-27T00:00:00	2024-11-06T10:00:00	7	Dirección del viento	4.83
180175	7	Sololá	701	Sololá	2	El tablón	9	Septiembre	2023-09-27T00:00:00	2024-11-06T10:00:00	1	Precipitación	0
180176	7	Sololá	701	Sololá	2	El tablón	9	Septiembre	2023-09-27T00:00:00	2024-11-06T10:00:00	8	Radiación solar	569
180177	7	Sololá	701	Sololá	2	El tablón	9	Septiembre	2023-09-27T00:00:00	2024-11-06T11:00:00	2	Temperatura media	18.4
180178	7	Sololá	701	Sololá	2	El tablón	9	Septiembre	2023-09-27T00:00:00	2024-11-06T11:00:00	4	Temperatura máxima	18.8
180179	7	Sololá	701	Sololá	2	El tablón	9	Septiembre	2023-09-27T00:00:00	2024-11-06T11:00:00	3	Temperatura mínima	17.9
180180	7	Sololá	701	Sololá	2	El tablón	9	Septiembre	2023-09-27T00:00:00	2024-11-06T11:00:00	5	Humedad	80
180181	7	Sololá	701	Sololá	2	El tablón	9	Septiembre	2023-09-27T00:00:00	2024-11-06T11:00:00	6	Velocidad del viento	4.8
180182	7	Sololá	701	Sololá	2	El tablón	9	Septiembre	2023-09-27T00:00:00	2024-11-06T11:00:00	7	Dirección del viento	4.83
180183	7	Sololá	701	Sololá	2	El tablón	9	Septiembre	2023-09-27T00:00:00	2024-11-06T11:00:00	1	Precipitación	0
180184	7	Sololá	701	Sololá	2	El tablón	9	Septiembre	2023-09-27T00:00:00	2024-11-06T11:00:00	8	Radiación solar	467
180185	7	Sololá	701	Sololá	2	El tablón	9	Septiembre	2023-09-27T00:00:00	2024-11-06T12:00:00	2	Temperatura media	19.4
180186	7	Sololá	701	Sololá	2	El tablón	9	Septiembre	2023-09-27T00:00:00	2024-11-06T12:00:00	4	Temperatura máxima	19.4
180187	7	Sololá	701	Sololá	2	El tablón	9	Septiembre	2023-09-27T00:00:00	2024-11-06T12:00:00	3	Temperatura mínima	18.3
180188	7	Sololá	701	Sololá	2	El tablón	9	Septiembre	2023-09-27T00:00:00	2024-11-06T12:00:00	5	Humedad	76
180189	7	Sololá	701	Sololá	2	El tablón	9	Septiembre	2023-09-27T00:00:00	2024-11-06T12:00:00	6	Velocidad del viento	8
180190	7	Sololá	701	Sololá	2	El tablón	9	Septiembre	2023-09-27T00:00:00	2024-11-06T12:00:00	7	Dirección del viento	8.05
180191	7	Sololá	701	Sololá	2	El tablón	9	Septiembre	2023-09-27T00:00:00	2024-11-06T12:00:00	1	Precipitación	0
180192	7	Sololá	701	Sololá	2	El tablón	9	Septiembre	2023-09-27T00:00:00	2024-11-06T12:00:00	8	Radiación solar	765
180193	7	Sololá	701	Sololá	2	El tablón	9	Septiembre	2023-09-27T00:00:00	2024-11-06T13:00:00	2	Temperatura media	19.6
180194	7	Sololá	701	Sololá	2	El tablón	9	Septiembre	2023-09-27T00:00:00	2024-11-06T13:00:00	4	Temperatura máxima	20.1
180195	7	Sololá	701	Sololá	2	El tablón	9	Septiembre	2023-09-27T00:00:00	2024-11-06T13:00:00	3	Temperatura mínima	19.4
180196	7	Sololá	701	Sololá	2	El tablón	9	Septiembre	2023-09-27T00:00:00	2024-11-06T13:00:00	5	Humedad	79
180197	7	Sololá	701	Sololá	2	El tablón	9	Septiembre	2023-09-27T00:00:00	2024-11-06T13:00:00	6	Velocidad del viento	8
180198	7	Sololá	701	Sololá	2	El tablón	9	Septiembre	2023-09-27T00:00:00	2024-11-06T13:00:00	7	Dirección del viento	8.05
180199	7	Sololá	701	Sololá	2	El tablón	9	Septiembre	2023-09-27T00:00:00	2024-11-06T13:00:00	1	Precipitación	0
180200	7	Sololá	701	Sololá	2	El tablón	9	Septiembre	2023-09-27T00:00:00	2024-11-06T13:00:00	8	Radiación solar	981
180201	7	Sololá	701	Sololá	2	El tablón	9	Septiembre	2023-09-27T00:00:00	2024-11-06T14:00:00	2	Temperatura media	18.2
180202	7	Sololá	701	Sololá	2	El tablón	9	Septiembre	2023-09-27T00:00:00	2024-11-06T14:00:00	4	Temperatura máxima	19.9
180203	7	Sololá	701	Sololá	2	El tablón	9	Septiembre	2023-09-27T00:00:00	2024-11-06T14:00:00	3	Temperatura mínima	18.2
180204	7	Sololá	701	Sololá	2	El tablón	9	Septiembre	2023-09-27T00:00:00	2024-11-06T14:00:00	5	Humedad	86
180205	7	Sololá	701	Sololá	2	El tablón	9	Septiembre	2023-09-27T00:00:00	2024-11-06T14:00:00	6	Velocidad del viento	8
180206	7	Sololá	701	Sololá	2	El tablón	9	Septiembre	2023-09-27T00:00:00	2024-11-06T14:00:00	7	Dirección del viento	8.05
180207	7	Sololá	701	Sololá	2	El tablón	9	Septiembre	2023-09-27T00:00:00	2024-11-06T14:00:00	1	Precipitación	0
180208	7	Sololá	701	Sololá	2	El tablón	9	Septiembre	2023-09-27T00:00:00	2024-11-06T14:00:00	8	Radiación solar	607
180209	7	Sololá	701	Sololá	2	El tablón	9	Septiembre	2023-09-27T00:00:00	2024-11-06T15:00:00	2	Temperatura media	14.9
180210	7	Sololá	701	Sololá	2	El tablón	9	Septiembre	2023-09-27T00:00:00	2024-11-06T15:00:00	4	Temperatura máxima	18.2
180211	7	Sololá	701	Sololá	2	El tablón	9	Septiembre	2023-09-27T00:00:00	2024-11-06T15:00:00	3	Temperatura mínima	14.9
180212	7	Sololá	701	Sololá	2	El tablón	9	Septiembre	2023-09-27T00:00:00	2024-11-06T15:00:00	5	Humedad	87
180213	7	Sololá	701	Sololá	2	El tablón	9	Septiembre	2023-09-27T00:00:00	2024-11-06T15:00:00	6	Velocidad del viento	4.8
180214	7	Sololá	701	Sololá	2	El tablón	9	Septiembre	2023-09-27T00:00:00	2024-11-06T15:00:00	7	Dirección del viento	4.83
180215	7	Sololá	701	Sololá	2	El tablón	9	Septiembre	2023-09-27T00:00:00	2024-11-06T15:00:00	1	Precipitación	19
180216	7	Sololá	701	Sololá	2	El tablón	9	Septiembre	2023-09-27T00:00:00	2024-11-06T15:00:00	8	Radiación solar	25
180217	7	Sololá	701	Sololá	2	El tablón	9	Septiembre	2023-09-27T00:00:00	2024-11-06T16:00:00	2	Temperatura media	14.9
180218	7	Sololá	701	Sololá	2	El tablón	9	Septiembre	2023-09-27T00:00:00	2024-11-06T16:00:00	4	Temperatura máxima	15.2
180219	7	Sololá	701	Sololá	2	El tablón	9	Septiembre	2023-09-27T00:00:00	2024-11-06T16:00:00	3	Temperatura mínima	14.9
180220	7	Sololá	701	Sololá	2	El tablón	9	Septiembre	2023-09-27T00:00:00	2024-11-06T16:00:00	5	Humedad	87
180221	7	Sololá	701	Sololá	2	El tablón	9	Septiembre	2023-09-27T00:00:00	2024-11-06T16:00:00	6	Velocidad del viento	1.6
180222	7	Sololá	701	Sololá	2	El tablón	9	Septiembre	2023-09-27T00:00:00	2024-11-06T16:00:00	7	Dirección del viento	1.61
180223	7	Sololá	701	Sololá	2	El tablón	9	Septiembre	2023-09-27T00:00:00	2024-11-06T16:00:00	1	Precipitación	1.4
180224	7	Sololá	701	Sololá	2	El tablón	9	Septiembre	2023-09-27T00:00:00	2024-11-06T16:00:00	8	Radiación solar	15
180225	7	Sololá	701	Sololá	2	El tablón	9	Septiembre	2023-09-27T00:00:00	2024-11-06T17:00:00	2	Temperatura media	14.7
180226	7	Sololá	701	Sololá	2	El tablón	9	Septiembre	2023-09-27T00:00:00	2024-11-06T17:00:00	4	Temperatura máxima	15
180227	7	Sololá	701	Sololá	2	El tablón	9	Septiembre	2023-09-27T00:00:00	2024-11-06T17:00:00	3	Temperatura mínima	14.6
180228	7	Sololá	701	Sololá	2	El tablón	9	Septiembre	2023-09-27T00:00:00	2024-11-06T17:00:00	5	Humedad	86
180229	7	Sololá	701	Sololá	2	El tablón	9	Septiembre	2023-09-27T00:00:00	2024-11-06T17:00:00	6	Velocidad del viento	1.6
180230	7	Sololá	701	Sololá	2	El tablón	9	Septiembre	2023-09-27T00:00:00	2024-11-06T17:00:00	7	Dirección del viento	1.61
180231	7	Sololá	701	Sololá	2	El tablón	9	Septiembre	2023-09-27T00:00:00	2024-11-06T17:00:00	1	Precipitación	2.6
180232	7	Sololá	701	Sololá	2	El tablón	9	Septiembre	2023-09-27T00:00:00	2024-11-06T17:00:00	8	Radiación solar	20
180233	7	Sololá	701	Sololá	2	El tablón	9	Septiembre	2023-09-27T00:00:00	2024-11-06T18:00:00	2	Temperatura media	14.8
180234	7	Sololá	701	Sololá	2	El tablón	9	Septiembre	2023-09-27T00:00:00	2024-11-06T18:00:00	4	Temperatura máxima	14.9
180235	7	Sololá	701	Sololá	2	El tablón	9	Septiembre	2023-09-27T00:00:00	2024-11-06T18:00:00	3	Temperatura mínima	14.7
180236	7	Sololá	701	Sololá	2	El tablón	9	Septiembre	2023-09-27T00:00:00	2024-11-06T18:00:00	5	Humedad	88
180237	7	Sololá	701	Sololá	2	El tablón	9	Septiembre	2023-09-27T00:00:00	2024-11-06T18:00:00	6	Velocidad del viento	4.8
180238	7	Sololá	701	Sololá	2	El tablón	9	Septiembre	2023-09-27T00:00:00	2024-11-06T18:00:00	7	Dirección del viento	4.83
180239	7	Sololá	701	Sololá	2	El tablón	9	Septiembre	2023-09-27T00:00:00	2024-11-06T18:00:00	1	Precipitación	0.2
180240	7	Sololá	701	Sololá	2	El tablón	9	Septiembre	2023-09-27T00:00:00	2024-11-06T18:00:00	8	Radiación solar	6
180241	7	Sololá	701	Sololá	2	El tablón	9	Septiembre	2023-09-27T00:00:00	2024-11-06T19:00:00	2	Temperatura media	14.4
180242	7	Sololá	701	Sololá	2	El tablón	9	Septiembre	2023-09-27T00:00:00	2024-11-06T19:00:00	4	Temperatura máxima	14.8
180243	7	Sololá	701	Sololá	2	El tablón	9	Septiembre	2023-09-27T00:00:00	2024-11-06T19:00:00	3	Temperatura mínima	14.4
180244	7	Sololá	701	Sololá	2	El tablón	9	Septiembre	2023-09-27T00:00:00	2024-11-06T19:00:00	5	Humedad	88
180245	7	Sololá	701	Sololá	2	El tablón	9	Septiembre	2023-09-27T00:00:00	2024-11-06T19:00:00	6	Velocidad del viento	4.8
180246	7	Sololá	701	Sololá	2	El tablón	9	Septiembre	2023-09-27T00:00:00	2024-11-06T19:00:00	7	Dirección del viento	4.83
180247	7	Sololá	701	Sololá	2	El tablón	9	Septiembre	2023-09-27T00:00:00	2024-11-06T19:00:00	1	Precipitación	0.6
180248	7	Sololá	701	Sololá	2	El tablón	9	Septiembre	2023-09-27T00:00:00	2024-11-06T19:00:00	8	Radiación solar	0
180249	7	Sololá	701	Sololá	2	El tablón	9	Septiembre	2023-09-27T00:00:00	2024-11-06T20:00:00	2	Temperatura media	14
180250	7	Sololá	701	Sololá	2	El tablón	9	Septiembre	2023-09-27T00:00:00	2024-11-06T20:00:00	4	Temperatura máxima	14.5
180251	7	Sololá	701	Sololá	2	El tablón	9	Septiembre	2023-09-27T00:00:00	2024-11-06T20:00:00	3	Temperatura mínima	13.9
180252	7	Sololá	701	Sololá	2	El tablón	9	Septiembre	2023-09-27T00:00:00	2024-11-06T20:00:00	5	Humedad	88
180253	7	Sololá	701	Sololá	2	El tablón	9	Septiembre	2023-09-27T00:00:00	2024-11-06T20:00:00	6	Velocidad del viento	3.2
180254	7	Sololá	701	Sololá	2	El tablón	9	Septiembre	2023-09-27T00:00:00	2024-11-06T20:00:00	7	Dirección del viento	3.22
180255	7	Sololá	701	Sololá	2	El tablón	9	Septiembre	2023-09-27T00:00:00	2024-11-06T20:00:00	1	Precipitación	1
180256	7	Sololá	701	Sololá	2	El tablón	9	Septiembre	2023-09-27T00:00:00	2024-11-06T20:00:00	8	Radiación solar	0
180257	7	Sololá	701	Sololá	2	El tablón	9	Septiembre	2023-09-27T00:00:00	2024-11-06T21:00:00	2	Temperatura media	13.9
180258	7	Sololá	701	Sololá	2	El tablón	9	Septiembre	2023-09-27T00:00:00	2024-11-06T21:00:00	4	Temperatura máxima	14
180259	7	Sololá	701	Sololá	2	El tablón	9	Septiembre	2023-09-27T00:00:00	2024-11-06T21:00:00	3	Temperatura mínima	13.8
180260	7	Sololá	701	Sololá	2	El tablón	9	Septiembre	2023-09-27T00:00:00	2024-11-06T21:00:00	5	Humedad	88
180261	7	Sololá	701	Sololá	2	El tablón	9	Septiembre	2023-09-27T00:00:00	2024-11-06T21:00:00	6	Velocidad del viento	8
180262	7	Sololá	701	Sololá	2	El tablón	9	Septiembre	2023-09-27T00:00:00	2024-11-06T21:00:00	7	Dirección del viento	8.05
180263	7	Sololá	701	Sololá	2	El tablón	9	Septiembre	2023-09-27T00:00:00	2024-11-06T21:00:00	1	Precipitación	0.4
180264	7	Sololá	701	Sololá	2	El tablón	9	Septiembre	2023-09-27T00:00:00	2024-11-06T21:00:00	8	Radiación solar	0
180265	7	Sololá	701	Sololá	2	El tablón	9	Septiembre	2023-09-27T00:00:00	2024-11-06T22:00:00	2	Temperatura media	13.7
180266	7	Sololá	701	Sololá	2	El tablón	9	Septiembre	2023-09-27T00:00:00	2024-11-06T22:00:00	4	Temperatura máxima	13.9
180267	7	Sololá	701	Sololá	2	El tablón	9	Septiembre	2023-09-27T00:00:00	2024-11-06T22:00:00	3	Temperatura mínima	13.6
180268	7	Sololá	701	Sololá	2	El tablón	9	Septiembre	2023-09-27T00:00:00	2024-11-06T22:00:00	5	Humedad	88
180269	7	Sololá	701	Sololá	2	El tablón	9	Septiembre	2023-09-27T00:00:00	2024-11-06T22:00:00	6	Velocidad del viento	6.4
180270	7	Sololá	701	Sololá	2	El tablón	9	Septiembre	2023-09-27T00:00:00	2024-11-06T22:00:00	7	Dirección del viento	6.44
180271	7	Sololá	701	Sololá	2	El tablón	9	Septiembre	2023-09-27T00:00:00	2024-11-06T22:00:00	1	Precipitación	0.2
180272	7	Sololá	701	Sololá	2	El tablón	9	Septiembre	2023-09-27T00:00:00	2024-11-06T22:00:00	8	Radiación solar	0
180273	7	Sololá	701	Sololá	2	El tablón	9	Septiembre	2023-09-27T00:00:00	2024-11-06T23:00:00	2	Temperatura media	13.7
180274	7	Sololá	701	Sololá	2	El tablón	9	Septiembre	2023-09-27T00:00:00	2024-11-06T23:00:00	4	Temperatura máxima	13.8
180275	7	Sololá	701	Sololá	2	El tablón	9	Septiembre	2023-09-27T00:00:00	2024-11-06T23:00:00	3	Temperatura mínima	13.7
180276	7	Sololá	701	Sololá	2	El tablón	9	Septiembre	2023-09-27T00:00:00	2024-11-06T23:00:00	5	Humedad	88
180277	7	Sololá	701	Sololá	2	El tablón	9	Septiembre	2023-09-27T00:00:00	2024-11-06T23:00:00	6	Velocidad del viento	9.7
180278	7	Sololá	701	Sololá	2	El tablón	9	Septiembre	2023-09-27T00:00:00	2024-11-06T23:00:00	7	Dirección del viento	9.66
180279	7	Sololá	701	Sololá	2	El tablón	9	Septiembre	2023-09-27T00:00:00	2024-11-06T23:00:00	1	Precipitación	0
180280	7	Sololá	701	Sololá	2	El tablón	9	Septiembre	2023-09-27T00:00:00	2024-11-06T23:00:00	8	Radiación solar	0
180281	7	Sololá	701	Sololá	2	El tablón	9	Septiembre	2023-09-28T00:00:00	2024-11-06T00:00:00	2	Temperatura media	13.7
180282	7	Sololá	701	Sololá	2	El tablón	9	Septiembre	2023-09-28T00:00:00	2024-11-06T00:00:00	4	Temperatura máxima	13.7
180283	7	Sololá	701	Sololá	2	El tablón	9	Septiembre	2023-09-28T00:00:00	2024-11-06T00:00:00	3	Temperatura mínima	13.7
180284	7	Sololá	701	Sololá	2	El tablón	9	Septiembre	2023-09-28T00:00:00	2024-11-06T00:00:00	5	Humedad	88
180285	7	Sololá	701	Sololá	2	El tablón	9	Septiembre	2023-09-28T00:00:00	2024-11-06T00:00:00	6	Velocidad del viento	9.7
180286	7	Sololá	701	Sololá	2	El tablón	9	Septiembre	2023-09-28T00:00:00	2024-11-06T00:00:00	7	Dirección del viento	9.66
180287	7	Sololá	701	Sololá	2	El tablón	9	Septiembre	2023-09-28T00:00:00	2024-11-06T00:00:00	1	Precipitación	0.2
180288	7	Sololá	701	Sololá	2	El tablón	9	Septiembre	2023-09-28T00:00:00	2024-11-06T00:00:00	8	Radiación solar	0
180289	7	Sololá	701	Sololá	2	El tablón	9	Septiembre	2023-09-28T00:00:00	2024-11-06T01:00:00	2	Temperatura media	13.7
180290	7	Sololá	701	Sololá	2	El tablón	9	Septiembre	2023-09-28T00:00:00	2024-11-06T01:00:00	4	Temperatura máxima	13.7
180291	7	Sololá	701	Sololá	2	El tablón	9	Septiembre	2023-09-28T00:00:00	2024-11-06T01:00:00	3	Temperatura mínima	13.6
180292	7	Sololá	701	Sololá	2	El tablón	9	Septiembre	2023-09-28T00:00:00	2024-11-06T01:00:00	5	Humedad	88
180293	7	Sololá	701	Sololá	2	El tablón	9	Septiembre	2023-09-28T00:00:00	2024-11-06T01:00:00	6	Velocidad del viento	9.7
180294	7	Sololá	701	Sololá	2	El tablón	9	Septiembre	2023-09-28T00:00:00	2024-11-06T01:00:00	7	Dirección del viento	9.66
180295	7	Sololá	701	Sololá	2	El tablón	9	Septiembre	2023-09-28T00:00:00	2024-11-06T01:00:00	1	Precipitación	0
180296	7	Sololá	701	Sololá	2	El tablón	9	Septiembre	2023-09-28T00:00:00	2024-11-06T01:00:00	8	Radiación solar	0
180297	7	Sololá	701	Sololá	2	El tablón	9	Septiembre	2023-09-28T00:00:00	2024-11-06T02:00:00	2	Temperatura media	13.7
180298	7	Sololá	701	Sololá	2	El tablón	9	Septiembre	2023-09-28T00:00:00	2024-11-06T02:00:00	4	Temperatura máxima	13.8
180299	7	Sololá	701	Sololá	2	El tablón	9	Septiembre	2023-09-28T00:00:00	2024-11-06T02:00:00	3	Temperatura mínima	13.7
180300	7	Sololá	701	Sololá	2	El tablón	9	Septiembre	2023-09-28T00:00:00	2024-11-06T02:00:00	5	Humedad	88
180301	7	Sololá	701	Sololá	2	El tablón	9	Septiembre	2023-09-28T00:00:00	2024-11-06T02:00:00	6	Velocidad del viento	6.4
180302	7	Sololá	701	Sololá	2	El tablón	9	Septiembre	2023-09-28T00:00:00	2024-11-06T02:00:00	7	Dirección del viento	6.44
180303	7	Sololá	701	Sololá	2	El tablón	9	Septiembre	2023-09-28T00:00:00	2024-11-06T02:00:00	1	Precipitación	0
180304	7	Sololá	701	Sololá	2	El tablón	9	Septiembre	2023-09-28T00:00:00	2024-11-06T02:00:00	8	Radiación solar	0
180305	7	Sololá	701	Sololá	2	El tablón	9	Septiembre	2023-09-28T00:00:00	2024-11-06T03:00:00	2	Temperatura media	13.5
180306	7	Sololá	701	Sololá	2	El tablón	9	Septiembre	2023-09-28T00:00:00	2024-11-06T03:00:00	4	Temperatura máxima	13.7
180307	7	Sololá	701	Sololá	2	El tablón	9	Septiembre	2023-09-28T00:00:00	2024-11-06T03:00:00	3	Temperatura mínima	13.5
180308	7	Sololá	701	Sololá	2	El tablón	9	Septiembre	2023-09-28T00:00:00	2024-11-06T03:00:00	5	Humedad	88
180309	7	Sololá	701	Sololá	2	El tablón	9	Septiembre	2023-09-28T00:00:00	2024-11-06T03:00:00	6	Velocidad del viento	4.8
180310	7	Sololá	701	Sololá	2	El tablón	9	Septiembre	2023-09-28T00:00:00	2024-11-06T03:00:00	7	Dirección del viento	4.83
180311	7	Sololá	701	Sololá	2	El tablón	9	Septiembre	2023-09-28T00:00:00	2024-11-06T03:00:00	1	Precipitación	0
180312	7	Sololá	701	Sololá	2	El tablón	9	Septiembre	2023-09-28T00:00:00	2024-11-06T03:00:00	8	Radiación solar	0
180313	7	Sololá	701	Sololá	2	El tablón	9	Septiembre	2023-09-28T00:00:00	2024-11-06T04:00:00	2	Temperatura media	13.4
180314	7	Sololá	701	Sololá	2	El tablón	9	Septiembre	2023-09-28T00:00:00	2024-11-06T04:00:00	4	Temperatura máxima	13.6
180315	7	Sololá	701	Sololá	2	El tablón	9	Septiembre	2023-09-28T00:00:00	2024-11-06T04:00:00	3	Temperatura mínima	13.4
180316	7	Sololá	701	Sololá	2	El tablón	9	Septiembre	2023-09-28T00:00:00	2024-11-06T04:00:00	5	Humedad	88
180317	7	Sololá	701	Sololá	2	El tablón	9	Septiembre	2023-09-28T00:00:00	2024-11-06T04:00:00	6	Velocidad del viento	6.4
180318	7	Sololá	701	Sololá	2	El tablón	9	Septiembre	2023-09-28T00:00:00	2024-11-06T04:00:00	7	Dirección del viento	6.44
180319	7	Sololá	701	Sololá	2	El tablón	9	Septiembre	2023-09-28T00:00:00	2024-11-06T04:00:00	1	Precipitación	0
180320	7	Sololá	701	Sololá	2	El tablón	9	Septiembre	2023-09-28T00:00:00	2024-11-06T04:00:00	8	Radiación solar	0
180321	7	Sololá	701	Sololá	2	El tablón	9	Septiembre	2023-09-28T00:00:00	2024-11-06T05:00:00	2	Temperatura media	13.2
180322	7	Sololá	701	Sololá	2	El tablón	9	Septiembre	2023-09-28T00:00:00	2024-11-06T05:00:00	4	Temperatura máxima	13.4
180323	7	Sololá	701	Sololá	2	El tablón	9	Septiembre	2023-09-28T00:00:00	2024-11-06T05:00:00	3	Temperatura mínima	13.2
180324	7	Sololá	701	Sololá	2	El tablón	9	Septiembre	2023-09-28T00:00:00	2024-11-06T05:00:00	5	Humedad	88
180325	7	Sololá	701	Sololá	2	El tablón	9	Septiembre	2023-09-28T00:00:00	2024-11-06T05:00:00	6	Velocidad del viento	4.8
180326	7	Sololá	701	Sololá	2	El tablón	9	Septiembre	2023-09-28T00:00:00	2024-11-06T05:00:00	7	Dirección del viento	4.83
180327	7	Sololá	701	Sololá	2	El tablón	9	Septiembre	2023-09-28T00:00:00	2024-11-06T05:00:00	1	Precipitación	0
180328	7	Sololá	701	Sololá	2	El tablón	9	Septiembre	2023-09-28T00:00:00	2024-11-06T05:00:00	8	Radiación solar	0
180329	7	Sololá	701	Sololá	2	El tablón	9	Septiembre	2023-09-28T00:00:00	2024-11-06T06:00:00	2	Temperatura media	12.3
180330	7	Sololá	701	Sololá	2	El tablón	9	Septiembre	2023-09-28T00:00:00	2024-11-06T06:00:00	4	Temperatura máxima	13.3
180331	7	Sololá	701	Sololá	2	El tablón	9	Septiembre	2023-09-28T00:00:00	2024-11-06T06:00:00	3	Temperatura mínima	12.2
180332	7	Sololá	701	Sololá	2	El tablón	9	Septiembre	2023-09-28T00:00:00	2024-11-06T06:00:00	5	Humedad	88
180333	7	Sololá	701	Sololá	2	El tablón	9	Septiembre	2023-09-28T00:00:00	2024-11-06T06:00:00	6	Velocidad del viento	3.2
180334	7	Sololá	701	Sololá	2	El tablón	9	Septiembre	2023-09-28T00:00:00	2024-11-06T06:00:00	7	Dirección del viento	3.22
180335	7	Sololá	701	Sololá	2	El tablón	9	Septiembre	2023-09-28T00:00:00	2024-11-06T06:00:00	1	Precipitación	0
180336	7	Sololá	701	Sololá	2	El tablón	9	Septiembre	2023-09-28T00:00:00	2024-11-06T06:00:00	8	Radiación solar	0
180337	7	Sololá	701	Sololá	2	El tablón	9	Septiembre	2023-09-28T00:00:00	2024-11-06T07:00:00	2	Temperatura media	13
180338	7	Sololá	701	Sololá	2	El tablón	9	Septiembre	2023-09-28T00:00:00	2024-11-06T07:00:00	4	Temperatura máxima	13
180339	7	Sololá	701	Sololá	2	El tablón	9	Septiembre	2023-09-28T00:00:00	2024-11-06T07:00:00	3	Temperatura mínima	11.9
180340	7	Sololá	701	Sololá	2	El tablón	9	Septiembre	2023-09-28T00:00:00	2024-11-06T07:00:00	5	Humedad	88
180341	7	Sololá	701	Sololá	2	El tablón	9	Septiembre	2023-09-28T00:00:00	2024-11-06T07:00:00	6	Velocidad del viento	3.2
180342	7	Sololá	701	Sololá	2	El tablón	9	Septiembre	2023-09-28T00:00:00	2024-11-06T07:00:00	7	Dirección del viento	3.22
180343	7	Sololá	701	Sololá	2	El tablón	9	Septiembre	2023-09-28T00:00:00	2024-11-06T07:00:00	1	Precipitación	0
180344	7	Sololá	701	Sololá	2	El tablón	9	Septiembre	2023-09-28T00:00:00	2024-11-06T07:00:00	8	Radiación solar	57
180345	7	Sololá	701	Sololá	2	El tablón	9	Septiembre	2023-09-28T00:00:00	2024-11-06T08:00:00	2	Temperatura media	17.5
180346	7	Sololá	701	Sololá	2	El tablón	9	Septiembre	2023-09-28T00:00:00	2024-11-06T08:00:00	4	Temperatura máxima	17.5
180347	7	Sololá	701	Sololá	2	El tablón	9	Septiembre	2023-09-28T00:00:00	2024-11-06T08:00:00	3	Temperatura mínima	13.1
180348	7	Sololá	701	Sololá	2	El tablón	9	Septiembre	2023-09-28T00:00:00	2024-11-06T08:00:00	5	Humedad	79
180349	7	Sololá	701	Sololá	2	El tablón	9	Septiembre	2023-09-28T00:00:00	2024-11-06T08:00:00	6	Velocidad del viento	1.6
180350	7	Sololá	701	Sololá	2	El tablón	9	Septiembre	2023-09-28T00:00:00	2024-11-06T08:00:00	7	Dirección del viento	1.61
180351	7	Sololá	701	Sololá	2	El tablón	9	Septiembre	2023-09-28T00:00:00	2024-11-06T08:00:00	1	Precipitación	0
180352	7	Sololá	701	Sololá	2	El tablón	9	Septiembre	2023-09-28T00:00:00	2024-11-06T08:00:00	8	Radiación solar	231
180353	7	Sololá	701	Sololá	2	El tablón	9	Septiembre	2023-09-28T00:00:00	2024-11-06T09:00:00	2	Temperatura media	16.9
180354	7	Sololá	701	Sololá	2	El tablón	9	Septiembre	2023-09-28T00:00:00	2024-11-06T09:00:00	4	Temperatura máxima	17.9
180355	7	Sololá	701	Sololá	2	El tablón	9	Septiembre	2023-09-28T00:00:00	2024-11-06T09:00:00	3	Temperatura mínima	16.1
180356	7	Sololá	701	Sololá	2	El tablón	9	Septiembre	2023-09-28T00:00:00	2024-11-06T09:00:00	5	Humedad	80
180357	7	Sololá	701	Sololá	2	El tablón	9	Septiembre	2023-09-28T00:00:00	2024-11-06T09:00:00	6	Velocidad del viento	9.7
180358	7	Sololá	701	Sololá	2	El tablón	9	Septiembre	2023-09-28T00:00:00	2024-11-06T09:00:00	7	Dirección del viento	9.66
180359	7	Sololá	701	Sololá	2	El tablón	9	Septiembre	2023-09-28T00:00:00	2024-11-06T09:00:00	1	Precipitación	0
180360	7	Sololá	701	Sololá	2	El tablón	9	Septiembre	2023-09-28T00:00:00	2024-11-06T09:00:00	8	Radiación solar	381
180361	7	Sololá	701	Sololá	2	El tablón	9	Septiembre	2023-09-28T00:00:00	2024-11-06T10:00:00	2	Temperatura media	18.8
180362	7	Sololá	701	Sololá	2	El tablón	9	Septiembre	2023-09-28T00:00:00	2024-11-06T10:00:00	4	Temperatura máxima	18.8
180363	7	Sololá	701	Sololá	2	El tablón	9	Septiembre	2023-09-28T00:00:00	2024-11-06T10:00:00	3	Temperatura mínima	16.9
180364	7	Sololá	701	Sololá	2	El tablón	9	Septiembre	2023-09-28T00:00:00	2024-11-06T10:00:00	5	Humedad	75
180365	7	Sololá	701	Sololá	2	El tablón	9	Septiembre	2023-09-28T00:00:00	2024-11-06T10:00:00	6	Velocidad del viento	8
180366	7	Sololá	701	Sololá	2	El tablón	9	Septiembre	2023-09-28T00:00:00	2024-11-06T10:00:00	7	Dirección del viento	8.05
180367	7	Sololá	701	Sololá	2	El tablón	9	Septiembre	2023-09-28T00:00:00	2024-11-06T10:00:00	1	Precipitación	0
180368	7	Sololá	701	Sololá	2	El tablón	9	Septiembre	2023-09-28T00:00:00	2024-11-06T10:00:00	8	Radiación solar	669
180369	7	Sololá	701	Sololá	2	El tablón	9	Septiembre	2023-09-28T00:00:00	2024-11-06T11:00:00	2	Temperatura media	19.7
180370	7	Sololá	701	Sololá	2	El tablón	9	Septiembre	2023-09-28T00:00:00	2024-11-06T11:00:00	4	Temperatura máxima	19.9
180371	7	Sololá	701	Sololá	2	El tablón	9	Septiembre	2023-09-28T00:00:00	2024-11-06T11:00:00	3	Temperatura mínima	18.7
180372	7	Sololá	701	Sololá	2	El tablón	9	Septiembre	2023-09-28T00:00:00	2024-11-06T11:00:00	5	Humedad	69
180373	7	Sololá	701	Sololá	2	El tablón	9	Septiembre	2023-09-28T00:00:00	2024-11-06T11:00:00	6	Velocidad del viento	6.4
180374	7	Sololá	701	Sololá	2	El tablón	9	Septiembre	2023-09-28T00:00:00	2024-11-06T11:00:00	7	Dirección del viento	6.44
180375	7	Sololá	701	Sololá	2	El tablón	9	Septiembre	2023-09-28T00:00:00	2024-11-06T11:00:00	1	Precipitación	0
180376	7	Sololá	701	Sololá	2	El tablón	9	Septiembre	2023-09-28T00:00:00	2024-11-06T11:00:00	8	Radiación solar	802
180377	7	Sololá	701	Sololá	2	El tablón	9	Septiembre	2023-09-28T00:00:00	2024-11-06T12:00:00	2	Temperatura media	19.5
180378	7	Sololá	701	Sololá	2	El tablón	9	Septiembre	2023-09-28T00:00:00	2024-11-06T12:00:00	4	Temperatura máxima	20.2
180379	7	Sololá	701	Sololá	2	El tablón	9	Septiembre	2023-09-28T00:00:00	2024-11-06T12:00:00	3	Temperatura mínima	19.3
180380	7	Sololá	701	Sololá	2	El tablón	9	Septiembre	2023-09-28T00:00:00	2024-11-06T12:00:00	5	Humedad	79
180381	7	Sololá	701	Sololá	2	El tablón	9	Septiembre	2023-09-28T00:00:00	2024-11-06T12:00:00	6	Velocidad del viento	6.4
180382	7	Sololá	701	Sololá	2	El tablón	9	Septiembre	2023-09-28T00:00:00	2024-11-06T12:00:00	7	Dirección del viento	6.44
180383	7	Sololá	701	Sololá	2	El tablón	9	Septiembre	2023-09-28T00:00:00	2024-11-06T12:00:00	1	Precipitación	0
180384	7	Sololá	701	Sololá	2	El tablón	9	Septiembre	2023-09-28T00:00:00	2024-11-06T12:00:00	8	Radiación solar	631
180385	7	Sololá	701	Sololá	2	El tablón	9	Septiembre	2023-09-28T00:00:00	2024-11-06T13:00:00	2	Temperatura media	20.1
180386	7	Sololá	701	Sololá	2	El tablón	9	Septiembre	2023-09-28T00:00:00	2024-11-06T13:00:00	4	Temperatura máxima	20.7
180387	7	Sololá	701	Sololá	2	El tablón	9	Septiembre	2023-09-28T00:00:00	2024-11-06T13:00:00	3	Temperatura mínima	19.5
180388	7	Sololá	701	Sololá	2	El tablón	9	Septiembre	2023-09-28T00:00:00	2024-11-06T13:00:00	5	Humedad	81
180389	7	Sololá	701	Sololá	2	El tablón	9	Septiembre	2023-09-28T00:00:00	2024-11-06T13:00:00	6	Velocidad del viento	6.4
180390	7	Sololá	701	Sololá	2	El tablón	9	Septiembre	2023-09-28T00:00:00	2024-11-06T13:00:00	7	Dirección del viento	6.44
180391	7	Sololá	701	Sololá	2	El tablón	9	Septiembre	2023-09-28T00:00:00	2024-11-06T13:00:00	1	Precipitación	0
180392	7	Sololá	701	Sololá	2	El tablón	9	Septiembre	2023-09-28T00:00:00	2024-11-06T13:00:00	8	Radiación solar	649
180393	7	Sololá	701	Sololá	2	El tablón	9	Septiembre	2023-09-28T00:00:00	2024-11-06T14:00:00	2	Temperatura media	17.6
180394	7	Sololá	701	Sololá	2	El tablón	9	Septiembre	2023-09-28T00:00:00	2024-11-06T14:00:00	4	Temperatura máxima	20.1
180395	7	Sololá	701	Sololá	2	El tablón	9	Septiembre	2023-09-28T00:00:00	2024-11-06T14:00:00	3	Temperatura mínima	17.5
180396	7	Sololá	701	Sololá	2	El tablón	9	Septiembre	2023-09-28T00:00:00	2024-11-06T14:00:00	5	Humedad	87
180397	7	Sololá	701	Sololá	2	El tablón	9	Septiembre	2023-09-28T00:00:00	2024-11-06T14:00:00	6	Velocidad del viento	4.8
180398	7	Sololá	701	Sololá	2	El tablón	9	Septiembre	2023-09-28T00:00:00	2024-11-06T14:00:00	7	Dirección del viento	4.83
180399	7	Sololá	701	Sololá	2	El tablón	9	Septiembre	2023-09-28T00:00:00	2024-11-06T14:00:00	1	Precipitación	0
180400	7	Sololá	701	Sololá	2	El tablón	9	Septiembre	2023-09-28T00:00:00	2024-11-06T14:00:00	8	Radiación solar	161
180401	7	Sololá	701	Sololá	2	El tablón	9	Septiembre	2023-09-28T00:00:00	2024-11-06T15:00:00	2	Temperatura media	16.7
180402	7	Sololá	701	Sololá	2	El tablón	9	Septiembre	2023-09-28T00:00:00	2024-11-06T15:00:00	4	Temperatura máxima	17.7
180403	7	Sololá	701	Sololá	2	El tablón	9	Septiembre	2023-09-28T00:00:00	2024-11-06T15:00:00	3	Temperatura mínima	16.7
180404	7	Sololá	701	Sololá	2	El tablón	9	Septiembre	2023-09-28T00:00:00	2024-11-06T15:00:00	5	Humedad	87
180405	7	Sololá	701	Sololá	2	El tablón	9	Septiembre	2023-09-28T00:00:00	2024-11-06T15:00:00	6	Velocidad del viento	8
180406	7	Sololá	701	Sololá	2	El tablón	9	Septiembre	2023-09-28T00:00:00	2024-11-06T15:00:00	7	Dirección del viento	8.05
180407	7	Sololá	701	Sololá	2	El tablón	9	Septiembre	2023-09-28T00:00:00	2024-11-06T15:00:00	1	Precipitación	0
180408	7	Sololá	701	Sololá	2	El tablón	9	Septiembre	2023-09-28T00:00:00	2024-11-06T15:00:00	8	Radiación solar	135
180409	7	Sololá	701	Sololá	2	El tablón	9	Septiembre	2023-09-28T00:00:00	2024-11-06T16:00:00	2	Temperatura media	15.1
180410	7	Sololá	701	Sololá	2	El tablón	9	Septiembre	2023-09-28T00:00:00	2024-11-06T16:00:00	4	Temperatura máxima	16.7
180411	7	Sololá	701	Sololá	2	El tablón	9	Septiembre	2023-09-28T00:00:00	2024-11-06T16:00:00	3	Temperatura mínima	14.8
180412	7	Sololá	701	Sololá	2	El tablón	9	Septiembre	2023-09-28T00:00:00	2024-11-06T16:00:00	5	Humedad	86
180413	7	Sololá	701	Sololá	2	El tablón	9	Septiembre	2023-09-28T00:00:00	2024-11-06T16:00:00	6	Velocidad del viento	6.4
180414	7	Sololá	701	Sololá	2	El tablón	9	Septiembre	2023-09-28T00:00:00	2024-11-06T16:00:00	7	Dirección del viento	6.44
180415	7	Sololá	701	Sololá	2	El tablón	9	Septiembre	2023-09-28T00:00:00	2024-11-06T16:00:00	1	Precipitación	0
180416	7	Sololá	701	Sololá	2	El tablón	9	Septiembre	2023-09-28T00:00:00	2024-11-06T16:00:00	8	Radiación solar	19
180417	7	Sololá	701	Sololá	2	El tablón	9	Septiembre	2023-09-28T00:00:00	2024-11-06T17:00:00	2	Temperatura media	15.1
180418	7	Sololá	701	Sololá	2	El tablón	9	Septiembre	2023-09-28T00:00:00	2024-11-06T17:00:00	4	Temperatura máxima	15.3
180419	7	Sololá	701	Sololá	2	El tablón	9	Septiembre	2023-09-28T00:00:00	2024-11-06T17:00:00	3	Temperatura mínima	15.1
180420	7	Sololá	701	Sololá	2	El tablón	9	Septiembre	2023-09-28T00:00:00	2024-11-06T17:00:00	5	Humedad	86
180421	7	Sololá	701	Sololá	2	El tablón	9	Septiembre	2023-09-28T00:00:00	2024-11-06T17:00:00	6	Velocidad del viento	3.2
180422	7	Sololá	701	Sololá	2	El tablón	9	Septiembre	2023-09-28T00:00:00	2024-11-06T17:00:00	7	Dirección del viento	3.22
180423	7	Sololá	701	Sololá	2	El tablón	9	Septiembre	2023-09-28T00:00:00	2024-11-06T17:00:00	1	Precipitación	0
180424	7	Sololá	701	Sololá	2	El tablón	9	Septiembre	2023-09-28T00:00:00	2024-11-06T17:00:00	8	Radiación solar	26
180425	7	Sololá	701	Sololá	2	El tablón	9	Septiembre	2023-09-28T00:00:00	2024-11-06T18:00:00	2	Temperatura media	15.1
180426	7	Sololá	701	Sololá	2	El tablón	9	Septiembre	2023-09-28T00:00:00	2024-11-06T18:00:00	4	Temperatura máxima	15.2
180427	7	Sololá	701	Sololá	2	El tablón	9	Septiembre	2023-09-28T00:00:00	2024-11-06T18:00:00	3	Temperatura mínima	15.1
180428	7	Sololá	701	Sololá	2	El tablón	9	Septiembre	2023-09-28T00:00:00	2024-11-06T18:00:00	5	Humedad	87
180429	7	Sololá	701	Sololá	2	El tablón	9	Septiembre	2023-09-28T00:00:00	2024-11-06T18:00:00	6	Velocidad del viento	1.6
180430	7	Sololá	701	Sololá	2	El tablón	9	Septiembre	2023-09-28T00:00:00	2024-11-06T18:00:00	7	Dirección del viento	1.61
180431	7	Sololá	701	Sololá	2	El tablón	9	Septiembre	2023-09-28T00:00:00	2024-11-06T18:00:00	1	Precipitación	0
180432	7	Sololá	701	Sololá	2	El tablón	9	Septiembre	2023-09-28T00:00:00	2024-11-06T18:00:00	8	Radiación solar	2
180433	7	Sololá	701	Sololá	2	El tablón	9	Septiembre	2023-09-28T00:00:00	2024-11-06T19:00:00	2	Temperatura media	15.1
180434	7	Sololá	701	Sololá	2	El tablón	9	Septiembre	2023-09-28T00:00:00	2024-11-06T19:00:00	4	Temperatura máxima	15.2
180435	7	Sololá	701	Sololá	2	El tablón	9	Septiembre	2023-09-28T00:00:00	2024-11-06T19:00:00	3	Temperatura mínima	15
180436	7	Sololá	701	Sololá	2	El tablón	9	Septiembre	2023-09-28T00:00:00	2024-11-06T19:00:00	5	Humedad	87
180437	7	Sololá	701	Sololá	2	El tablón	9	Septiembre	2023-09-28T00:00:00	2024-11-06T19:00:00	6	Velocidad del viento	1.6
180438	7	Sololá	701	Sololá	2	El tablón	9	Septiembre	2023-09-28T00:00:00	2024-11-06T19:00:00	7	Dirección del viento	1.61
180439	7	Sololá	701	Sololá	2	El tablón	9	Septiembre	2023-09-28T00:00:00	2024-11-06T19:00:00	1	Precipitación	0
180440	7	Sololá	701	Sololá	2	El tablón	9	Septiembre	2023-09-28T00:00:00	2024-11-06T19:00:00	8	Radiación solar	0
180441	7	Sololá	701	Sololá	2	El tablón	9	Septiembre	2023-09-28T00:00:00	2024-11-06T20:00:00	2	Temperatura media	14.9
180442	7	Sololá	701	Sololá	2	El tablón	9	Septiembre	2023-09-28T00:00:00	2024-11-06T20:00:00	4	Temperatura máxima	15.1
180443	7	Sololá	701	Sololá	2	El tablón	9	Septiembre	2023-09-28T00:00:00	2024-11-06T20:00:00	3	Temperatura mínima	14.9
180444	7	Sololá	701	Sololá	2	El tablón	9	Septiembre	2023-09-28T00:00:00	2024-11-06T20:00:00	5	Humedad	86
180445	7	Sololá	701	Sololá	2	El tablón	9	Septiembre	2023-09-28T00:00:00	2024-11-06T20:00:00	6	Velocidad del viento	0
180446	7	Sololá	701	Sololá	2	El tablón	9	Septiembre	2023-09-28T00:00:00	2024-11-06T20:00:00	7	Dirección del viento	0
180447	7	Sololá	701	Sololá	2	El tablón	9	Septiembre	2023-09-28T00:00:00	2024-11-06T20:00:00	1	Precipitación	0
180448	7	Sololá	701	Sololá	2	El tablón	9	Septiembre	2023-09-28T00:00:00	2024-11-06T20:00:00	8	Radiación solar	0
180449	7	Sololá	701	Sololá	2	El tablón	9	Septiembre	2023-09-28T00:00:00	2024-11-06T21:00:00	2	Temperatura media	14.7
180450	7	Sololá	701	Sololá	2	El tablón	9	Septiembre	2023-09-28T00:00:00	2024-11-06T21:00:00	4	Temperatura máxima	14.9
180451	7	Sololá	701	Sololá	2	El tablón	9	Septiembre	2023-09-28T00:00:00	2024-11-06T21:00:00	3	Temperatura mínima	14.7
180452	7	Sololá	701	Sololá	2	El tablón	9	Septiembre	2023-09-28T00:00:00	2024-11-06T21:00:00	5	Humedad	86
180453	7	Sololá	701	Sololá	2	El tablón	9	Septiembre	2023-09-28T00:00:00	2024-11-06T21:00:00	6	Velocidad del viento	0
180454	7	Sololá	701	Sololá	2	El tablón	9	Septiembre	2023-09-28T00:00:00	2024-11-06T21:00:00	7	Dirección del viento	0
180455	7	Sololá	701	Sololá	2	El tablón	9	Septiembre	2023-09-28T00:00:00	2024-11-06T21:00:00	1	Precipitación	0
180456	7	Sololá	701	Sololá	2	El tablón	9	Septiembre	2023-09-28T00:00:00	2024-11-06T21:00:00	8	Radiación solar	0
180457	7	Sololá	701	Sololá	2	El tablón	9	Septiembre	2023-09-28T00:00:00	2024-11-06T22:00:00	2	Temperatura media	14.4
180458	7	Sololá	701	Sololá	2	El tablón	9	Septiembre	2023-09-28T00:00:00	2024-11-06T22:00:00	4	Temperatura máxima	14.7
180459	7	Sololá	701	Sololá	2	El tablón	9	Septiembre	2023-09-28T00:00:00	2024-11-06T22:00:00	3	Temperatura mínima	14.4
180460	7	Sololá	701	Sololá	2	El tablón	9	Septiembre	2023-09-28T00:00:00	2024-11-06T22:00:00	5	Humedad	87
180461	7	Sololá	701	Sololá	2	El tablón	9	Septiembre	2023-09-28T00:00:00	2024-11-06T22:00:00	6	Velocidad del viento	0
180462	7	Sololá	701	Sololá	2	El tablón	9	Septiembre	2023-09-28T00:00:00	2024-11-06T22:00:00	7	Dirección del viento	0
180463	7	Sololá	701	Sololá	2	El tablón	9	Septiembre	2023-09-28T00:00:00	2024-11-06T22:00:00	1	Precipitación	0
180464	7	Sololá	701	Sololá	2	El tablón	9	Septiembre	2023-09-28T00:00:00	2024-11-06T22:00:00	8	Radiación solar	0
180465	7	Sololá	701	Sololá	2	El tablón	9	Septiembre	2023-09-28T00:00:00	2024-11-06T23:00:00	2	Temperatura media	14.3
180466	7	Sololá	701	Sololá	2	El tablón	9	Septiembre	2023-09-28T00:00:00	2024-11-06T23:00:00	4	Temperatura máxima	14.4
180467	7	Sololá	701	Sololá	2	El tablón	9	Septiembre	2023-09-28T00:00:00	2024-11-06T23:00:00	3	Temperatura mínima	14.3
180468	7	Sololá	701	Sololá	2	El tablón	9	Septiembre	2023-09-28T00:00:00	2024-11-06T23:00:00	5	Humedad	88
180469	7	Sololá	701	Sololá	2	El tablón	9	Septiembre	2023-09-28T00:00:00	2024-11-06T23:00:00	6	Velocidad del viento	1.6
180470	7	Sololá	701	Sololá	2	El tablón	9	Septiembre	2023-09-28T00:00:00	2024-11-06T23:00:00	7	Dirección del viento	1.61
180471	7	Sololá	701	Sololá	2	El tablón	9	Septiembre	2023-09-28T00:00:00	2024-11-06T23:00:00	1	Precipitación	0.6
180472	7	Sololá	701	Sololá	2	El tablón	9	Septiembre	2023-09-28T00:00:00	2024-11-06T23:00:00	8	Radiación solar	0
180473	7	Sololá	701	Sololá	2	El tablón	9	Septiembre	2023-09-29T00:00:00	2024-11-06T00:00:00	2	Temperatura media	14.2
180474	7	Sololá	701	Sololá	2	El tablón	9	Septiembre	2023-09-29T00:00:00	2024-11-06T00:00:00	4	Temperatura máxima	14.4
180475	7	Sololá	701	Sololá	2	El tablón	9	Septiembre	2023-09-29T00:00:00	2024-11-06T00:00:00	3	Temperatura mínima	14.2
180476	7	Sololá	701	Sololá	2	El tablón	9	Septiembre	2023-09-29T00:00:00	2024-11-06T00:00:00	5	Humedad	88
180477	7	Sololá	701	Sololá	2	El tablón	9	Septiembre	2023-09-29T00:00:00	2024-11-06T00:00:00	6	Velocidad del viento	1.6
180478	7	Sololá	701	Sololá	2	El tablón	9	Septiembre	2023-09-29T00:00:00	2024-11-06T00:00:00	7	Dirección del viento	1.61
180479	7	Sololá	701	Sololá	2	El tablón	9	Septiembre	2023-09-29T00:00:00	2024-11-06T00:00:00	1	Precipitación	0.2
180480	7	Sololá	701	Sololá	2	El tablón	9	Septiembre	2023-09-29T00:00:00	2024-11-06T00:00:00	8	Radiación solar	0
180481	7	Sololá	701	Sololá	2	El tablón	9	Septiembre	2023-09-29T00:00:00	2024-11-06T01:00:00	2	Temperatura media	14
180482	7	Sololá	701	Sololá	2	El tablón	9	Septiembre	2023-09-29T00:00:00	2024-11-06T01:00:00	4	Temperatura máxima	14.2
180483	7	Sololá	701	Sololá	2	El tablón	9	Septiembre	2023-09-29T00:00:00	2024-11-06T01:00:00	3	Temperatura mínima	13.9
180484	7	Sololá	701	Sololá	2	El tablón	9	Septiembre	2023-09-29T00:00:00	2024-11-06T01:00:00	5	Humedad	88
180485	7	Sololá	701	Sololá	2	El tablón	9	Septiembre	2023-09-29T00:00:00	2024-11-06T01:00:00	6	Velocidad del viento	4.8
180486	7	Sololá	701	Sololá	2	El tablón	9	Septiembre	2023-09-29T00:00:00	2024-11-06T01:00:00	7	Dirección del viento	4.83
180487	7	Sololá	701	Sololá	2	El tablón	9	Septiembre	2023-09-29T00:00:00	2024-11-06T01:00:00	1	Precipitación	0.2
180488	7	Sololá	701	Sololá	2	El tablón	9	Septiembre	2023-09-29T00:00:00	2024-11-06T01:00:00	8	Radiación solar	0
180489	7	Sololá	701	Sololá	2	El tablón	9	Septiembre	2023-09-29T00:00:00	2024-11-06T02:00:00	2	Temperatura media	13.9
180490	7	Sololá	701	Sololá	2	El tablón	9	Septiembre	2023-09-29T00:00:00	2024-11-06T02:00:00	4	Temperatura máxima	14
180491	7	Sololá	701	Sololá	2	El tablón	9	Septiembre	2023-09-29T00:00:00	2024-11-06T02:00:00	3	Temperatura mínima	13.6
180492	7	Sololá	701	Sololá	2	El tablón	9	Septiembre	2023-09-29T00:00:00	2024-11-06T02:00:00	5	Humedad	88
180493	7	Sololá	701	Sololá	2	El tablón	9	Septiembre	2023-09-29T00:00:00	2024-11-06T02:00:00	6	Velocidad del viento	4.8
180494	7	Sololá	701	Sololá	2	El tablón	9	Septiembre	2023-09-29T00:00:00	2024-11-06T02:00:00	7	Dirección del viento	4.83
180495	7	Sololá	701	Sololá	2	El tablón	9	Septiembre	2023-09-29T00:00:00	2024-11-06T02:00:00	1	Precipitación	0
180496	7	Sololá	701	Sololá	2	El tablón	9	Septiembre	2023-09-29T00:00:00	2024-11-06T02:00:00	8	Radiación solar	0
180497	7	Sololá	701	Sololá	2	El tablón	9	Septiembre	2023-09-29T00:00:00	2024-11-06T03:00:00	2	Temperatura media	13.9
180498	7	Sololá	701	Sololá	2	El tablón	9	Septiembre	2023-09-29T00:00:00	2024-11-06T03:00:00	4	Temperatura máxima	14
180499	7	Sololá	701	Sololá	2	El tablón	9	Septiembre	2023-09-29T00:00:00	2024-11-06T03:00:00	3	Temperatura mínima	13.9
180500	7	Sololá	701	Sololá	2	El tablón	9	Septiembre	2023-09-29T00:00:00	2024-11-06T03:00:00	5	Humedad	88
180501	7	Sololá	701	Sololá	2	El tablón	9	Septiembre	2023-09-29T00:00:00	2024-11-06T03:00:00	6	Velocidad del viento	3.2
180502	7	Sololá	701	Sololá	2	El tablón	9	Septiembre	2023-09-29T00:00:00	2024-11-06T03:00:00	7	Dirección del viento	3.22
180503	7	Sololá	701	Sololá	2	El tablón	9	Septiembre	2023-09-29T00:00:00	2024-11-06T03:00:00	1	Precipitación	0
180504	7	Sololá	701	Sololá	2	El tablón	9	Septiembre	2023-09-29T00:00:00	2024-11-06T03:00:00	8	Radiación solar	0
180505	7	Sololá	701	Sololá	2	El tablón	9	Septiembre	2023-09-29T00:00:00	2024-11-06T04:00:00	2	Temperatura media	13.4
180506	7	Sololá	701	Sololá	2	El tablón	9	Septiembre	2023-09-29T00:00:00	2024-11-06T04:00:00	4	Temperatura máxima	13.9
180507	7	Sololá	701	Sololá	2	El tablón	9	Septiembre	2023-09-29T00:00:00	2024-11-06T04:00:00	3	Temperatura mínima	13.4
180508	7	Sololá	701	Sololá	2	El tablón	9	Septiembre	2023-09-29T00:00:00	2024-11-06T04:00:00	5	Humedad	88
180509	7	Sololá	701	Sololá	2	El tablón	9	Septiembre	2023-09-29T00:00:00	2024-11-06T04:00:00	6	Velocidad del viento	3.2
180510	7	Sololá	701	Sololá	2	El tablón	9	Septiembre	2023-09-29T00:00:00	2024-11-06T04:00:00	7	Dirección del viento	3.22
180511	7	Sololá	701	Sololá	2	El tablón	9	Septiembre	2023-09-29T00:00:00	2024-11-06T04:00:00	1	Precipitación	0
180512	7	Sololá	701	Sololá	2	El tablón	9	Septiembre	2023-09-29T00:00:00	2024-11-06T04:00:00	8	Radiación solar	0
180513	7	Sololá	701	Sololá	2	El tablón	9	Septiembre	2023-09-29T00:00:00	2024-11-06T05:00:00	2	Temperatura media	13.2
180514	7	Sololá	701	Sololá	2	El tablón	9	Septiembre	2023-09-29T00:00:00	2024-11-06T05:00:00	4	Temperatura máxima	13.4
180515	7	Sololá	701	Sololá	2	El tablón	9	Septiembre	2023-09-29T00:00:00	2024-11-06T05:00:00	3	Temperatura mínima	13.2
180516	7	Sololá	701	Sololá	2	El tablón	9	Septiembre	2023-09-29T00:00:00	2024-11-06T05:00:00	5	Humedad	88
180517	7	Sololá	701	Sololá	2	El tablón	9	Septiembre	2023-09-29T00:00:00	2024-11-06T05:00:00	6	Velocidad del viento	1.6
180518	7	Sololá	701	Sololá	2	El tablón	9	Septiembre	2023-09-29T00:00:00	2024-11-06T05:00:00	7	Dirección del viento	1.61
180519	7	Sololá	701	Sololá	2	El tablón	9	Septiembre	2023-09-29T00:00:00	2024-11-06T05:00:00	1	Precipitación	0
180520	7	Sololá	701	Sololá	2	El tablón	9	Septiembre	2023-09-29T00:00:00	2024-11-06T05:00:00	8	Radiación solar	0
180521	7	Sololá	701	Sololá	2	El tablón	9	Septiembre	2023-09-29T00:00:00	2024-11-06T06:00:00	2	Temperatura media	13
180522	7	Sololá	701	Sololá	2	El tablón	9	Septiembre	2023-09-29T00:00:00	2024-11-06T06:00:00	4	Temperatura máxima	13.2
180523	7	Sololá	701	Sololá	2	El tablón	9	Septiembre	2023-09-29T00:00:00	2024-11-06T06:00:00	3	Temperatura mínima	13
180524	7	Sololá	701	Sololá	2	El tablón	9	Septiembre	2023-09-29T00:00:00	2024-11-06T06:00:00	5	Humedad	88
180525	7	Sololá	701	Sololá	2	El tablón	9	Septiembre	2023-09-29T00:00:00	2024-11-06T06:00:00	6	Velocidad del viento	1.6
180526	7	Sololá	701	Sololá	2	El tablón	9	Septiembre	2023-09-29T00:00:00	2024-11-06T06:00:00	7	Dirección del viento	1.61
180527	7	Sololá	701	Sololá	2	El tablón	9	Septiembre	2023-09-29T00:00:00	2024-11-06T06:00:00	1	Precipitación	0
180528	7	Sololá	701	Sololá	2	El tablón	9	Septiembre	2023-09-29T00:00:00	2024-11-06T06:00:00	8	Radiación solar	0
180529	7	Sololá	701	Sololá	2	El tablón	9	Septiembre	2023-09-29T00:00:00	2024-11-06T07:00:00	2	Temperatura media	13.7
180530	7	Sololá	701	Sololá	2	El tablón	9	Septiembre	2023-09-29T00:00:00	2024-11-06T07:00:00	4	Temperatura máxima	13.7
180531	7	Sololá	701	Sololá	2	El tablón	9	Septiembre	2023-09-29T00:00:00	2024-11-06T07:00:00	3	Temperatura mínima	12.9
180532	7	Sololá	701	Sololá	2	El tablón	9	Septiembre	2023-09-29T00:00:00	2024-11-06T07:00:00	5	Humedad	88
180533	7	Sololá	701	Sololá	2	El tablón	9	Septiembre	2023-09-29T00:00:00	2024-11-06T07:00:00	6	Velocidad del viento	3.2
180534	7	Sololá	701	Sololá	2	El tablón	9	Septiembre	2023-09-29T00:00:00	2024-11-06T07:00:00	7	Dirección del viento	3.22
180535	7	Sololá	701	Sololá	2	El tablón	9	Septiembre	2023-09-29T00:00:00	2024-11-06T07:00:00	1	Precipitación	0
180536	7	Sololá	701	Sololá	2	El tablón	9	Septiembre	2023-09-29T00:00:00	2024-11-06T07:00:00	8	Radiación solar	29
180537	7	Sololá	701	Sololá	2	El tablón	9	Septiembre	2023-09-29T00:00:00	2024-11-06T08:00:00	2	Temperatura media	15
180538	7	Sololá	701	Sololá	2	El tablón	9	Septiembre	2023-09-29T00:00:00	2024-11-06T08:00:00	4	Temperatura máxima	15
180539	7	Sololá	701	Sololá	2	El tablón	9	Septiembre	2023-09-29T00:00:00	2024-11-06T08:00:00	3	Temperatura mínima	13.7
180540	7	Sololá	701	Sololá	2	El tablón	9	Septiembre	2023-09-29T00:00:00	2024-11-06T08:00:00	5	Humedad	88
180541	7	Sololá	701	Sololá	2	El tablón	9	Septiembre	2023-09-29T00:00:00	2024-11-06T08:00:00	6	Velocidad del viento	4.8
180542	7	Sololá	701	Sololá	2	El tablón	9	Septiembre	2023-09-29T00:00:00	2024-11-06T08:00:00	7	Dirección del viento	4.83
180543	7	Sololá	701	Sololá	2	El tablón	9	Septiembre	2023-09-29T00:00:00	2024-11-06T08:00:00	1	Precipitación	0
180544	7	Sololá	701	Sololá	2	El tablón	9	Septiembre	2023-09-29T00:00:00	2024-11-06T08:00:00	8	Radiación solar	125
180545	7	Sololá	701	Sololá	2	El tablón	9	Septiembre	2023-09-29T00:00:00	2024-11-06T09:00:00	2	Temperatura media	15.6
180546	7	Sololá	701	Sololá	2	El tablón	9	Septiembre	2023-09-29T00:00:00	2024-11-06T09:00:00	4	Temperatura máxima	15.6
180547	7	Sololá	701	Sololá	2	El tablón	9	Septiembre	2023-09-29T00:00:00	2024-11-06T09:00:00	3	Temperatura mínima	15
180548	7	Sololá	701	Sololá	2	El tablón	9	Septiembre	2023-09-29T00:00:00	2024-11-06T09:00:00	5	Humedad	86
180549	7	Sololá	701	Sololá	2	El tablón	9	Septiembre	2023-09-29T00:00:00	2024-11-06T09:00:00	6	Velocidad del viento	8
180550	7	Sololá	701	Sololá	2	El tablón	9	Septiembre	2023-09-29T00:00:00	2024-11-06T09:00:00	7	Dirección del viento	8.05
180551	7	Sololá	701	Sololá	2	El tablón	9	Septiembre	2023-09-29T00:00:00	2024-11-06T09:00:00	1	Precipitación	0
180552	7	Sololá	701	Sololá	2	El tablón	9	Septiembre	2023-09-29T00:00:00	2024-11-06T09:00:00	8	Radiación solar	250
180553	7	Sololá	701	Sololá	2	El tablón	9	Septiembre	2023-09-29T00:00:00	2024-11-06T10:00:00	2	Temperatura media	17.8
180554	7	Sololá	701	Sololá	2	El tablón	9	Septiembre	2023-09-29T00:00:00	2024-11-06T10:00:00	4	Temperatura máxima	17.8
180555	7	Sololá	701	Sololá	2	El tablón	9	Septiembre	2023-09-29T00:00:00	2024-11-06T10:00:00	3	Temperatura mínima	15.6
180556	7	Sololá	701	Sololá	2	El tablón	9	Septiembre	2023-09-29T00:00:00	2024-11-06T10:00:00	5	Humedad	79
180557	7	Sololá	701	Sololá	2	El tablón	9	Septiembre	2023-09-29T00:00:00	2024-11-06T10:00:00	6	Velocidad del viento	8
180558	7	Sololá	701	Sololá	2	El tablón	9	Septiembre	2023-09-29T00:00:00	2024-11-06T10:00:00	7	Dirección del viento	8.05
180559	7	Sololá	701	Sololá	2	El tablón	9	Septiembre	2023-09-29T00:00:00	2024-11-06T10:00:00	1	Precipitación	0
180560	7	Sololá	701	Sololá	2	El tablón	9	Septiembre	2023-09-29T00:00:00	2024-11-06T10:00:00	8	Radiación solar	426
180561	7	Sololá	701	Sololá	2	El tablón	9	Septiembre	2023-09-29T00:00:00	2024-11-06T11:00:00	2	Temperatura media	20.1
180562	7	Sololá	701	Sololá	2	El tablón	9	Septiembre	2023-09-29T00:00:00	2024-11-06T11:00:00	4	Temperatura máxima	20.1
180563	7	Sololá	701	Sololá	2	El tablón	9	Septiembre	2023-09-29T00:00:00	2024-11-06T11:00:00	3	Temperatura mínima	17.8
180564	7	Sololá	701	Sololá	2	El tablón	9	Septiembre	2023-09-29T00:00:00	2024-11-06T11:00:00	5	Humedad	72
180565	7	Sololá	701	Sololá	2	El tablón	9	Septiembre	2023-09-29T00:00:00	2024-11-06T11:00:00	6	Velocidad del viento	9.7
180566	7	Sololá	701	Sololá	2	El tablón	9	Septiembre	2023-09-29T00:00:00	2024-11-06T11:00:00	7	Dirección del viento	9.66
180567	7	Sololá	701	Sololá	2	El tablón	9	Septiembre	2023-09-29T00:00:00	2024-11-06T11:00:00	1	Precipitación	0
180568	7	Sololá	701	Sololá	2	El tablón	9	Septiembre	2023-09-29T00:00:00	2024-11-06T11:00:00	8	Radiación solar	797
180569	7	Sololá	701	Sololá	2	El tablón	9	Septiembre	2023-09-29T00:00:00	2024-11-06T12:00:00	2	Temperatura media	19.6
180570	7	Sololá	701	Sololá	2	El tablón	9	Septiembre	2023-09-29T00:00:00	2024-11-06T12:00:00	4	Temperatura máxima	20.2
180571	7	Sololá	701	Sololá	2	El tablón	9	Septiembre	2023-09-29T00:00:00	2024-11-06T12:00:00	3	Temperatura mínima	19.3
180572	7	Sololá	701	Sololá	2	El tablón	9	Septiembre	2023-09-29T00:00:00	2024-11-06T12:00:00	5	Humedad	72
180573	7	Sololá	701	Sololá	2	El tablón	9	Septiembre	2023-09-29T00:00:00	2024-11-06T12:00:00	6	Velocidad del viento	8
180574	7	Sololá	701	Sololá	2	El tablón	9	Septiembre	2023-09-29T00:00:00	2024-11-06T12:00:00	7	Dirección del viento	8.05
180575	7	Sololá	701	Sololá	2	El tablón	9	Septiembre	2023-09-29T00:00:00	2024-11-06T12:00:00	1	Precipitación	0
180576	7	Sololá	701	Sololá	2	El tablón	9	Septiembre	2023-09-29T00:00:00	2024-11-06T12:00:00	8	Radiación solar	492
180577	7	Sololá	701	Sololá	2	El tablón	9	Septiembre	2023-09-29T00:00:00	2024-11-06T13:00:00	2	Temperatura media	17.1
180578	7	Sololá	701	Sololá	2	El tablón	9	Septiembre	2023-09-29T00:00:00	2024-11-06T13:00:00	4	Temperatura máxima	19.6
180579	7	Sololá	701	Sololá	2	El tablón	9	Septiembre	2023-09-29T00:00:00	2024-11-06T13:00:00	3	Temperatura mínima	17.1
180580	7	Sololá	701	Sololá	2	El tablón	9	Septiembre	2023-09-29T00:00:00	2024-11-06T13:00:00	5	Humedad	86
180581	7	Sololá	701	Sololá	2	El tablón	9	Septiembre	2023-09-29T00:00:00	2024-11-06T13:00:00	6	Velocidad del viento	4.8
180582	7	Sololá	701	Sololá	2	El tablón	9	Septiembre	2023-09-29T00:00:00	2024-11-06T13:00:00	7	Dirección del viento	4.83
180583	7	Sololá	701	Sololá	2	El tablón	9	Septiembre	2023-09-29T00:00:00	2024-11-06T13:00:00	1	Precipitación	0
180584	7	Sololá	701	Sololá	2	El tablón	9	Septiembre	2023-09-29T00:00:00	2024-11-06T13:00:00	8	Radiación solar	221
180585	7	Sololá	701	Sololá	2	El tablón	9	Septiembre	2023-09-29T00:00:00	2024-11-06T14:00:00	2	Temperatura media	16.1
180586	7	Sololá	701	Sololá	2	El tablón	9	Septiembre	2023-09-29T00:00:00	2024-11-06T14:00:00	4	Temperatura máxima	17.1
180587	7	Sololá	701	Sololá	2	El tablón	9	Septiembre	2023-09-29T00:00:00	2024-11-06T14:00:00	3	Temperatura mínima	16.1
180588	7	Sololá	701	Sololá	2	El tablón	9	Septiembre	2023-09-29T00:00:00	2024-11-06T14:00:00	5	Humedad	87
180589	7	Sololá	701	Sololá	2	El tablón	9	Septiembre	2023-09-29T00:00:00	2024-11-06T14:00:00	6	Velocidad del viento	3.2
180590	7	Sololá	701	Sololá	2	El tablón	9	Septiembre	2023-09-29T00:00:00	2024-11-06T14:00:00	7	Dirección del viento	3.22
180591	7	Sololá	701	Sololá	2	El tablón	9	Septiembre	2023-09-29T00:00:00	2024-11-06T14:00:00	1	Precipitación	0.2
180592	7	Sololá	701	Sololá	2	El tablón	9	Septiembre	2023-09-29T00:00:00	2024-11-06T14:00:00	8	Radiación solar	66
180593	7	Sololá	701	Sololá	2	El tablón	9	Septiembre	2023-09-29T00:00:00	2024-11-06T15:00:00	2	Temperatura media	17.8
180594	7	Sololá	701	Sololá	2	El tablón	9	Septiembre	2023-09-29T00:00:00	2024-11-06T15:00:00	4	Temperatura máxima	17.8
180595	7	Sololá	701	Sololá	2	El tablón	9	Septiembre	2023-09-29T00:00:00	2024-11-06T15:00:00	3	Temperatura mínima	15.6
180596	7	Sololá	701	Sololá	2	El tablón	9	Septiembre	2023-09-29T00:00:00	2024-11-06T15:00:00	5	Humedad	82
180597	7	Sololá	701	Sololá	2	El tablón	9	Septiembre	2023-09-29T00:00:00	2024-11-06T15:00:00	6	Velocidad del viento	4.8
180598	7	Sololá	701	Sololá	2	El tablón	9	Septiembre	2023-09-29T00:00:00	2024-11-06T15:00:00	7	Dirección del viento	4.83
180599	7	Sololá	701	Sololá	2	El tablón	9	Septiembre	2023-09-29T00:00:00	2024-11-06T15:00:00	1	Precipitación	0
180600	7	Sololá	701	Sololá	2	El tablón	9	Septiembre	2023-09-29T00:00:00	2024-11-06T15:00:00	8	Radiación solar	203
180601	7	Sololá	701	Sololá	2	El tablón	9	Septiembre	2023-09-29T00:00:00	2024-11-06T16:00:00	2	Temperatura media	15.9
180602	7	Sololá	701	Sololá	2	El tablón	9	Septiembre	2023-09-29T00:00:00	2024-11-06T16:00:00	4	Temperatura máxima	17.9
180603	7	Sololá	701	Sololá	2	El tablón	9	Septiembre	2023-09-29T00:00:00	2024-11-06T16:00:00	3	Temperatura mínima	15.9
180604	7	Sololá	701	Sololá	2	El tablón	9	Septiembre	2023-09-29T00:00:00	2024-11-06T16:00:00	5	Humedad	88
180605	7	Sololá	701	Sololá	2	El tablón	9	Septiembre	2023-09-29T00:00:00	2024-11-06T16:00:00	6	Velocidad del viento	4.8
180606	7	Sololá	701	Sololá	2	El tablón	9	Septiembre	2023-09-29T00:00:00	2024-11-06T16:00:00	7	Dirección del viento	4.83
180607	7	Sololá	701	Sololá	2	El tablón	9	Septiembre	2023-09-29T00:00:00	2024-11-06T16:00:00	1	Precipitación	1.4
180608	7	Sololá	701	Sololá	2	El tablón	9	Septiembre	2023-09-29T00:00:00	2024-11-06T16:00:00	8	Radiación solar	116
180609	7	Sololá	701	Sololá	2	El tablón	9	Septiembre	2023-09-29T00:00:00	2024-11-06T17:00:00	2	Temperatura media	14.7
180610	7	Sololá	701	Sololá	2	El tablón	9	Septiembre	2023-09-29T00:00:00	2024-11-06T17:00:00	4	Temperatura máxima	15.9
180611	7	Sololá	701	Sololá	2	El tablón	9	Septiembre	2023-09-29T00:00:00	2024-11-06T17:00:00	3	Temperatura mínima	14.7
180612	7	Sololá	701	Sololá	2	El tablón	9	Septiembre	2023-09-29T00:00:00	2024-11-06T17:00:00	5	Humedad	87
180613	7	Sololá	701	Sololá	2	El tablón	9	Septiembre	2023-09-29T00:00:00	2024-11-06T17:00:00	6	Velocidad del viento	3.2
180614	7	Sololá	701	Sololá	2	El tablón	9	Septiembre	2023-09-29T00:00:00	2024-11-06T17:00:00	7	Dirección del viento	3.22
180615	7	Sololá	701	Sololá	2	El tablón	9	Septiembre	2023-09-29T00:00:00	2024-11-06T17:00:00	1	Precipitación	6.2
180616	7	Sololá	701	Sololá	2	El tablón	9	Septiembre	2023-09-29T00:00:00	2024-11-06T17:00:00	8	Radiación solar	3
180617	7	Sololá	701	Sololá	2	El tablón	9	Septiembre	2023-09-29T00:00:00	2024-11-06T18:00:00	2	Temperatura media	14.2
180618	7	Sololá	701	Sololá	2	El tablón	9	Septiembre	2023-09-29T00:00:00	2024-11-06T18:00:00	4	Temperatura máxima	14.7
180619	7	Sololá	701	Sololá	2	El tablón	9	Septiembre	2023-09-29T00:00:00	2024-11-06T18:00:00	3	Temperatura mínima	14.2
180620	7	Sololá	701	Sololá	2	El tablón	9	Septiembre	2023-09-29T00:00:00	2024-11-06T18:00:00	5	Humedad	86
180621	7	Sololá	701	Sololá	2	El tablón	9	Septiembre	2023-09-29T00:00:00	2024-11-06T18:00:00	6	Velocidad del viento	1.6
180622	7	Sololá	701	Sololá	2	El tablón	9	Septiembre	2023-09-29T00:00:00	2024-11-06T18:00:00	7	Dirección del viento	1.61
180623	7	Sololá	701	Sololá	2	El tablón	9	Septiembre	2023-09-29T00:00:00	2024-11-06T18:00:00	1	Precipitación	1.4
180624	7	Sololá	701	Sololá	2	El tablón	9	Septiembre	2023-09-29T00:00:00	2024-11-06T18:00:00	8	Radiación solar	0
180625	7	Sololá	701	Sololá	2	El tablón	9	Septiembre	2023-09-29T00:00:00	2024-11-06T19:00:00	2	Temperatura media	14.2
180626	7	Sololá	701	Sololá	2	El tablón	9	Septiembre	2023-09-29T00:00:00	2024-11-06T19:00:00	4	Temperatura máxima	14.3
180627	7	Sololá	701	Sololá	2	El tablón	9	Septiembre	2023-09-29T00:00:00	2024-11-06T19:00:00	3	Temperatura mínima	14.1
180628	7	Sololá	701	Sololá	2	El tablón	9	Septiembre	2023-09-29T00:00:00	2024-11-06T19:00:00	5	Humedad	86
180629	7	Sololá	701	Sololá	2	El tablón	9	Septiembre	2023-09-29T00:00:00	2024-11-06T19:00:00	6	Velocidad del viento	1.6
180630	7	Sololá	701	Sololá	2	El tablón	9	Septiembre	2023-09-29T00:00:00	2024-11-06T19:00:00	7	Dirección del viento	1.61
180631	7	Sololá	701	Sololá	2	El tablón	9	Septiembre	2023-09-29T00:00:00	2024-11-06T19:00:00	1	Precipitación	2.8
180632	7	Sololá	701	Sololá	2	El tablón	9	Septiembre	2023-09-29T00:00:00	2024-11-06T19:00:00	8	Radiación solar	0
180633	7	Sololá	701	Sololá	2	El tablón	9	Septiembre	2023-09-29T00:00:00	2024-11-06T20:00:00	2	Temperatura media	14.3
180634	7	Sololá	701	Sololá	2	El tablón	9	Septiembre	2023-09-29T00:00:00	2024-11-06T20:00:00	4	Temperatura máxima	14.3
180635	7	Sololá	701	Sololá	2	El tablón	9	Septiembre	2023-09-29T00:00:00	2024-11-06T20:00:00	3	Temperatura mínima	14.2
180636	7	Sololá	701	Sololá	2	El tablón	9	Septiembre	2023-09-29T00:00:00	2024-11-06T20:00:00	5	Humedad	86
180637	7	Sololá	701	Sololá	2	El tablón	9	Septiembre	2023-09-29T00:00:00	2024-11-06T20:00:00	6	Velocidad del viento	1.6
180638	7	Sololá	701	Sololá	2	El tablón	9	Septiembre	2023-09-29T00:00:00	2024-11-06T20:00:00	7	Dirección del viento	1.61
180639	7	Sololá	701	Sololá	2	El tablón	9	Septiembre	2023-09-29T00:00:00	2024-11-06T20:00:00	1	Precipitación	0.4
180640	7	Sololá	701	Sololá	2	El tablón	9	Septiembre	2023-09-29T00:00:00	2024-11-06T20:00:00	8	Radiación solar	0
180641	7	Sololá	701	Sololá	2	El tablón	9	Septiembre	2023-09-29T00:00:00	2024-11-06T21:00:00	2	Temperatura media	14.5
180642	7	Sololá	701	Sololá	2	El tablón	9	Septiembre	2023-09-29T00:00:00	2024-11-06T21:00:00	4	Temperatura máxima	14.5
180643	7	Sololá	701	Sololá	2	El tablón	9	Septiembre	2023-09-29T00:00:00	2024-11-06T21:00:00	3	Temperatura mínima	14.3
180644	7	Sololá	701	Sololá	2	El tablón	9	Septiembre	2023-09-29T00:00:00	2024-11-06T21:00:00	5	Humedad	88
180645	7	Sololá	701	Sololá	2	El tablón	9	Septiembre	2023-09-29T00:00:00	2024-11-06T21:00:00	6	Velocidad del viento	1.6
180646	7	Sololá	701	Sololá	2	El tablón	9	Septiembre	2023-09-29T00:00:00	2024-11-06T21:00:00	7	Dirección del viento	1.61
180647	7	Sololá	701	Sololá	2	El tablón	9	Septiembre	2023-09-29T00:00:00	2024-11-06T21:00:00	1	Precipitación	0.2
180648	7	Sololá	701	Sololá	2	El tablón	9	Septiembre	2023-09-29T00:00:00	2024-11-06T21:00:00	8	Radiación solar	0
180649	7	Sololá	701	Sololá	2	El tablón	9	Septiembre	2023-09-29T00:00:00	2024-11-06T22:00:00	2	Temperatura media	14.3
180650	7	Sololá	701	Sololá	2	El tablón	9	Septiembre	2023-09-29T00:00:00	2024-11-06T22:00:00	4	Temperatura máxima	14.5
180651	7	Sololá	701	Sololá	2	El tablón	9	Septiembre	2023-09-29T00:00:00	2024-11-06T22:00:00	3	Temperatura mínima	14.3
180652	7	Sololá	701	Sololá	2	El tablón	9	Septiembre	2023-09-29T00:00:00	2024-11-06T22:00:00	5	Humedad	88
180653	7	Sololá	701	Sololá	2	El tablón	9	Septiembre	2023-09-29T00:00:00	2024-11-06T22:00:00	6	Velocidad del viento	3.2
180654	7	Sololá	701	Sololá	2	El tablón	9	Septiembre	2023-09-29T00:00:00	2024-11-06T22:00:00	7	Dirección del viento	3.22
180655	7	Sololá	701	Sololá	2	El tablón	9	Septiembre	2023-09-29T00:00:00	2024-11-06T22:00:00	1	Precipitación	0.6
180656	7	Sololá	701	Sololá	2	El tablón	9	Septiembre	2023-09-29T00:00:00	2024-11-06T22:00:00	8	Radiación solar	0
180657	7	Sololá	701	Sololá	2	El tablón	9	Septiembre	2023-09-29T00:00:00	2024-11-06T23:00:00	2	Temperatura media	14.3
180658	7	Sololá	701	Sololá	2	El tablón	9	Septiembre	2023-09-29T00:00:00	2024-11-06T23:00:00	4	Temperatura máxima	14.3
180659	7	Sololá	701	Sololá	2	El tablón	9	Septiembre	2023-09-29T00:00:00	2024-11-06T23:00:00	3	Temperatura mínima	14.3
180660	7	Sololá	701	Sololá	2	El tablón	9	Septiembre	2023-09-29T00:00:00	2024-11-06T23:00:00	5	Humedad	88
180661	7	Sololá	701	Sololá	2	El tablón	9	Septiembre	2023-09-29T00:00:00	2024-11-06T23:00:00	6	Velocidad del viento	3.2
180662	7	Sololá	701	Sololá	2	El tablón	9	Septiembre	2023-09-29T00:00:00	2024-11-06T23:00:00	7	Dirección del viento	3.22
180663	7	Sololá	701	Sololá	2	El tablón	9	Septiembre	2023-09-29T00:00:00	2024-11-06T23:00:00	1	Precipitación	0
180664	7	Sololá	701	Sololá	2	El tablón	9	Septiembre	2023-09-29T00:00:00	2024-11-06T23:00:00	8	Radiación solar	0
180665	7	Sololá	701	Sololá	2	El tablón	9	Septiembre	2023-09-30T00:00:00	2024-11-06T00:00:00	2	Temperatura media	14.1
180666	7	Sololá	701	Sololá	2	El tablón	9	Septiembre	2023-09-30T00:00:00	2024-11-06T00:00:00	4	Temperatura máxima	14.3
180667	7	Sololá	701	Sololá	2	El tablón	9	Septiembre	2023-09-30T00:00:00	2024-11-06T00:00:00	3	Temperatura mínima	14.1
180668	7	Sololá	701	Sololá	2	El tablón	9	Septiembre	2023-09-30T00:00:00	2024-11-06T00:00:00	5	Humedad	88
180669	7	Sololá	701	Sololá	2	El tablón	9	Septiembre	2023-09-30T00:00:00	2024-11-06T00:00:00	6	Velocidad del viento	1.6
180670	7	Sololá	701	Sololá	2	El tablón	9	Septiembre	2023-09-30T00:00:00	2024-11-06T00:00:00	7	Dirección del viento	1.61
180671	7	Sololá	701	Sololá	2	El tablón	9	Septiembre	2023-09-30T00:00:00	2024-11-06T00:00:00	1	Precipitación	0
180672	7	Sololá	701	Sololá	2	El tablón	9	Septiembre	2023-09-30T00:00:00	2024-11-06T00:00:00	8	Radiación solar	0
180673	7	Sololá	701	Sololá	2	El tablón	9	Septiembre	2023-09-30T00:00:00	2024-11-06T01:00:00	2	Temperatura media	14.2
180674	7	Sololá	701	Sololá	2	El tablón	9	Septiembre	2023-09-30T00:00:00	2024-11-06T01:00:00	4	Temperatura máxima	14.2
180675	7	Sololá	701	Sololá	2	El tablón	9	Septiembre	2023-09-30T00:00:00	2024-11-06T01:00:00	3	Temperatura mínima	14
180676	7	Sololá	701	Sololá	2	El tablón	9	Septiembre	2023-09-30T00:00:00	2024-11-06T01:00:00	5	Humedad	88
180677	7	Sololá	701	Sololá	2	El tablón	9	Septiembre	2023-09-30T00:00:00	2024-11-06T01:00:00	6	Velocidad del viento	1.6
180678	7	Sololá	701	Sololá	2	El tablón	9	Septiembre	2023-09-30T00:00:00	2024-11-06T01:00:00	7	Dirección del viento	1.61
180679	7	Sololá	701	Sololá	2	El tablón	9	Septiembre	2023-09-30T00:00:00	2024-11-06T01:00:00	1	Precipitación	0.2
180680	7	Sololá	701	Sololá	2	El tablón	9	Septiembre	2023-09-30T00:00:00	2024-11-06T01:00:00	8	Radiación solar	0
180681	7	Sololá	701	Sololá	2	El tablón	9	Septiembre	2023-09-30T00:00:00	2024-11-06T02:00:00	2	Temperatura media	13.8
180682	7	Sololá	701	Sololá	2	El tablón	9	Septiembre	2023-09-30T00:00:00	2024-11-06T02:00:00	4	Temperatura máxima	14.2
180683	7	Sololá	701	Sololá	2	El tablón	9	Septiembre	2023-09-30T00:00:00	2024-11-06T02:00:00	3	Temperatura mínima	13.7
180684	7	Sololá	701	Sololá	2	El tablón	9	Septiembre	2023-09-30T00:00:00	2024-11-06T02:00:00	5	Humedad	88
180685	7	Sololá	701	Sololá	2	El tablón	9	Septiembre	2023-09-30T00:00:00	2024-11-06T02:00:00	6	Velocidad del viento	4.8
180686	7	Sololá	701	Sololá	2	El tablón	9	Septiembre	2023-09-30T00:00:00	2024-11-06T02:00:00	7	Dirección del viento	4.83
180687	7	Sololá	701	Sololá	2	El tablón	9	Septiembre	2023-09-30T00:00:00	2024-11-06T02:00:00	1	Precipitación	0
180688	7	Sololá	701	Sololá	2	El tablón	9	Septiembre	2023-09-30T00:00:00	2024-11-06T02:00:00	8	Radiación solar	0
180689	7	Sololá	701	Sololá	2	El tablón	9	Septiembre	2023-09-30T00:00:00	2024-11-06T03:00:00	2	Temperatura media	13.8
180690	7	Sololá	701	Sololá	2	El tablón	9	Septiembre	2023-09-30T00:00:00	2024-11-06T03:00:00	4	Temperatura máxima	13.8
180691	7	Sololá	701	Sololá	2	El tablón	9	Septiembre	2023-09-30T00:00:00	2024-11-06T03:00:00	3	Temperatura mínima	13.7
180692	7	Sololá	701	Sololá	2	El tablón	9	Septiembre	2023-09-30T00:00:00	2024-11-06T03:00:00	5	Humedad	88
180693	7	Sololá	701	Sololá	2	El tablón	9	Septiembre	2023-09-30T00:00:00	2024-11-06T03:00:00	6	Velocidad del viento	3.2
180694	7	Sololá	701	Sololá	2	El tablón	9	Septiembre	2023-09-30T00:00:00	2024-11-06T03:00:00	7	Dirección del viento	3.22
180695	7	Sololá	701	Sololá	2	El tablón	9	Septiembre	2023-09-30T00:00:00	2024-11-06T03:00:00	1	Precipitación	0
180696	7	Sololá	701	Sololá	2	El tablón	9	Septiembre	2023-09-30T00:00:00	2024-11-06T03:00:00	8	Radiación solar	0
180697	7	Sololá	701	Sololá	2	El tablón	9	Septiembre	2023-09-30T00:00:00	2024-11-06T04:00:00	2	Temperatura media	13.7
180698	7	Sololá	701	Sololá	2	El tablón	9	Septiembre	2023-09-30T00:00:00	2024-11-06T04:00:00	4	Temperatura máxima	13.8
180699	7	Sololá	701	Sololá	2	El tablón	9	Septiembre	2023-09-30T00:00:00	2024-11-06T04:00:00	3	Temperatura mínima	13.7
180700	7	Sololá	701	Sololá	2	El tablón	9	Septiembre	2023-09-30T00:00:00	2024-11-06T04:00:00	5	Humedad	88
180701	7	Sololá	701	Sololá	2	El tablón	9	Septiembre	2023-09-30T00:00:00	2024-11-06T04:00:00	6	Velocidad del viento	3.2
180702	7	Sololá	701	Sololá	2	El tablón	9	Septiembre	2023-09-30T00:00:00	2024-11-06T04:00:00	7	Dirección del viento	3.22
180703	7	Sololá	701	Sololá	2	El tablón	9	Septiembre	2023-09-30T00:00:00	2024-11-06T04:00:00	1	Precipitación	0
180704	7	Sololá	701	Sololá	2	El tablón	9	Septiembre	2023-09-30T00:00:00	2024-11-06T04:00:00	8	Radiación solar	0
180705	7	Sololá	701	Sololá	2	El tablón	9	Septiembre	2023-09-30T00:00:00	2024-11-06T05:00:00	2	Temperatura media	13.4
180706	7	Sololá	701	Sololá	2	El tablón	9	Septiembre	2023-09-30T00:00:00	2024-11-06T05:00:00	4	Temperatura máxima	13.7
180707	7	Sololá	701	Sololá	2	El tablón	9	Septiembre	2023-09-30T00:00:00	2024-11-06T05:00:00	3	Temperatura mínima	13.2
180708	7	Sololá	701	Sololá	2	El tablón	9	Septiembre	2023-09-30T00:00:00	2024-11-06T05:00:00	5	Humedad	88
180709	7	Sololá	701	Sololá	2	El tablón	9	Septiembre	2023-09-30T00:00:00	2024-11-06T05:00:00	6	Velocidad del viento	4.8
180710	7	Sololá	701	Sololá	2	El tablón	9	Septiembre	2023-09-30T00:00:00	2024-11-06T05:00:00	7	Dirección del viento	4.83
180711	7	Sololá	701	Sololá	2	El tablón	9	Septiembre	2023-09-30T00:00:00	2024-11-06T05:00:00	1	Precipitación	0
180712	7	Sololá	701	Sololá	2	El tablón	9	Septiembre	2023-09-30T00:00:00	2024-11-06T05:00:00	8	Radiación solar	0
180713	7	Sololá	701	Sololá	2	El tablón	9	Septiembre	2023-09-30T00:00:00	2024-11-06T06:00:00	2	Temperatura media	13.6
180714	7	Sololá	701	Sololá	2	El tablón	9	Septiembre	2023-09-30T00:00:00	2024-11-06T06:00:00	4	Temperatura máxima	13.6
180715	7	Sololá	701	Sololá	2	El tablón	9	Septiembre	2023-09-30T00:00:00	2024-11-06T06:00:00	3	Temperatura mínima	13.4
180716	7	Sololá	701	Sololá	2	El tablón	9	Septiembre	2023-09-30T00:00:00	2024-11-06T06:00:00	5	Humedad	88
180717	7	Sololá	701	Sololá	2	El tablón	9	Septiembre	2023-09-30T00:00:00	2024-11-06T06:00:00	6	Velocidad del viento	4.8
180718	7	Sololá	701	Sololá	2	El tablón	9	Septiembre	2023-09-30T00:00:00	2024-11-06T06:00:00	7	Dirección del viento	4.83
180719	7	Sololá	701	Sololá	2	El tablón	9	Septiembre	2023-09-30T00:00:00	2024-11-06T06:00:00	1	Precipitación	0
180720	7	Sololá	701	Sololá	2	El tablón	9	Septiembre	2023-09-30T00:00:00	2024-11-06T06:00:00	8	Radiación solar	0
180721	7	Sololá	701	Sololá	2	El tablón	9	Septiembre	2023-09-30T00:00:00	2024-11-06T07:00:00	2	Temperatura media	14.7
180722	7	Sololá	701	Sololá	2	El tablón	9	Septiembre	2023-09-30T00:00:00	2024-11-06T07:00:00	4	Temperatura máxima	14.7
180723	7	Sololá	701	Sololá	2	El tablón	9	Septiembre	2023-09-30T00:00:00	2024-11-06T07:00:00	3	Temperatura mínima	13.5
180724	7	Sololá	701	Sololá	2	El tablón	9	Septiembre	2023-09-30T00:00:00	2024-11-06T07:00:00	5	Humedad	88
180725	7	Sololá	701	Sololá	2	El tablón	9	Septiembre	2023-09-30T00:00:00	2024-11-06T07:00:00	6	Velocidad del viento	4.8
180726	7	Sololá	701	Sololá	2	El tablón	9	Septiembre	2023-09-30T00:00:00	2024-11-06T07:00:00	7	Dirección del viento	4.83
180727	7	Sololá	701	Sololá	2	El tablón	9	Septiembre	2023-09-30T00:00:00	2024-11-06T07:00:00	1	Precipitación	0
180728	7	Sololá	701	Sololá	2	El tablón	9	Septiembre	2023-09-30T00:00:00	2024-11-06T07:00:00	8	Radiación solar	68
180729	7	Sololá	701	Sololá	2	El tablón	9	Septiembre	2023-09-30T00:00:00	2024-11-06T08:00:00	2	Temperatura media	16.5
180730	7	Sololá	701	Sololá	2	El tablón	9	Septiembre	2023-09-30T00:00:00	2024-11-06T08:00:00	4	Temperatura máxima	16.5
180731	7	Sololá	701	Sololá	2	El tablón	9	Septiembre	2023-09-30T00:00:00	2024-11-06T08:00:00	3	Temperatura mínima	14.7
180732	7	Sololá	701	Sololá	2	El tablón	9	Septiembre	2023-09-30T00:00:00	2024-11-06T08:00:00	5	Humedad	84
180733	7	Sololá	701	Sololá	2	El tablón	9	Septiembre	2023-09-30T00:00:00	2024-11-06T08:00:00	6	Velocidad del viento	8
180734	7	Sololá	701	Sololá	2	El tablón	9	Septiembre	2023-09-30T00:00:00	2024-11-06T08:00:00	7	Dirección del viento	8.05
180735	7	Sololá	701	Sololá	2	El tablón	9	Septiembre	2023-09-30T00:00:00	2024-11-06T08:00:00	1	Precipitación	0
180736	7	Sololá	701	Sololá	2	El tablón	9	Septiembre	2023-09-30T00:00:00	2024-11-06T08:00:00	8	Radiación solar	241
180737	7	Sololá	701	Sololá	2	El tablón	9	Septiembre	2023-09-30T00:00:00	2024-11-06T09:00:00	2	Temperatura media	17.3
180738	7	Sololá	701	Sololá	2	El tablón	9	Septiembre	2023-09-30T00:00:00	2024-11-06T09:00:00	4	Temperatura máxima	17.3
180739	7	Sololá	701	Sololá	2	El tablón	9	Septiembre	2023-09-30T00:00:00	2024-11-06T09:00:00	3	Temperatura mínima	16.4
180740	7	Sololá	701	Sololá	2	El tablón	9	Septiembre	2023-09-30T00:00:00	2024-11-06T09:00:00	5	Humedad	82
180741	7	Sololá	701	Sololá	2	El tablón	9	Septiembre	2023-09-30T00:00:00	2024-11-06T09:00:00	6	Velocidad del viento	9.7
180742	7	Sololá	701	Sololá	2	El tablón	9	Septiembre	2023-09-30T00:00:00	2024-11-06T09:00:00	7	Dirección del viento	9.66
180743	7	Sololá	701	Sololá	2	El tablón	9	Septiembre	2023-09-30T00:00:00	2024-11-06T09:00:00	1	Precipitación	0
180744	7	Sololá	701	Sololá	2	El tablón	9	Septiembre	2023-09-30T00:00:00	2024-11-06T09:00:00	8	Radiación solar	385
180745	7	Sololá	701	Sololá	2	El tablón	9	Septiembre	2023-09-30T00:00:00	2024-11-06T10:00:00	2	Temperatura media	18.4
180746	7	Sololá	701	Sololá	2	El tablón	9	Septiembre	2023-09-30T00:00:00	2024-11-06T10:00:00	4	Temperatura máxima	18.4
180747	7	Sololá	701	Sololá	2	El tablón	9	Septiembre	2023-09-30T00:00:00	2024-11-06T10:00:00	3	Temperatura mínima	17.3
180748	7	Sololá	701	Sololá	2	El tablón	9	Septiembre	2023-09-30T00:00:00	2024-11-06T10:00:00	5	Humedad	79
180749	7	Sololá	701	Sololá	2	El tablón	9	Septiembre	2023-09-30T00:00:00	2024-11-06T10:00:00	6	Velocidad del viento	9.7
180750	7	Sololá	701	Sololá	2	El tablón	9	Septiembre	2023-09-30T00:00:00	2024-11-06T10:00:00	7	Dirección del viento	9.66
180751	7	Sololá	701	Sololá	2	El tablón	9	Septiembre	2023-09-30T00:00:00	2024-11-06T10:00:00	1	Precipitación	0
180752	7	Sololá	701	Sololá	2	El tablón	9	Septiembre	2023-09-30T00:00:00	2024-11-06T10:00:00	8	Radiación solar	574
180753	7	Sololá	701	Sololá	2	El tablón	9	Septiembre	2023-09-30T00:00:00	2024-11-06T11:00:00	2	Temperatura media	19.7
180754	7	Sololá	701	Sololá	2	El tablón	9	Septiembre	2023-09-30T00:00:00	2024-11-06T11:00:00	4	Temperatura máxima	19.7
180755	7	Sololá	701	Sololá	2	El tablón	9	Septiembre	2023-09-30T00:00:00	2024-11-06T11:00:00	3	Temperatura mínima	18.4
180756	7	Sololá	701	Sololá	2	El tablón	9	Septiembre	2023-09-30T00:00:00	2024-11-06T11:00:00	5	Humedad	71
180757	7	Sololá	701	Sololá	2	El tablón	9	Septiembre	2023-09-30T00:00:00	2024-11-06T11:00:00	6	Velocidad del viento	8
180758	7	Sololá	701	Sololá	2	El tablón	9	Septiembre	2023-09-30T00:00:00	2024-11-06T11:00:00	7	Dirección del viento	8.05
180759	7	Sololá	701	Sololá	2	El tablón	9	Septiembre	2023-09-30T00:00:00	2024-11-06T11:00:00	1	Precipitación	0
180760	7	Sololá	701	Sololá	2	El tablón	9	Septiembre	2023-09-30T00:00:00	2024-11-06T11:00:00	8	Radiación solar	864
180761	7	Sololá	701	Sololá	2	El tablón	9	Septiembre	2023-09-30T00:00:00	2024-11-06T12:00:00	2	Temperatura media	20.1
180762	7	Sololá	701	Sololá	2	El tablón	9	Septiembre	2023-09-30T00:00:00	2024-11-06T12:00:00	4	Temperatura máxima	20.6
180763	7	Sololá	701	Sololá	2	El tablón	9	Septiembre	2023-09-30T00:00:00	2024-11-06T12:00:00	3	Temperatura mínima	19.7
180764	7	Sololá	701	Sololá	2	El tablón	9	Septiembre	2023-09-30T00:00:00	2024-11-06T12:00:00	5	Humedad	69
180765	7	Sololá	701	Sololá	2	El tablón	9	Septiembre	2023-09-30T00:00:00	2024-11-06T12:00:00	6	Velocidad del viento	8
180766	7	Sololá	701	Sololá	2	El tablón	9	Septiembre	2023-09-30T00:00:00	2024-11-06T12:00:00	7	Dirección del viento	8.05
180767	7	Sololá	701	Sololá	2	El tablón	9	Septiembre	2023-09-30T00:00:00	2024-11-06T12:00:00	1	Precipitación	0
180768	7	Sololá	701	Sololá	2	El tablón	9	Septiembre	2023-09-30T00:00:00	2024-11-06T12:00:00	8	Radiación solar	736
180769	7	Sololá	701	Sololá	2	El tablón	9	Septiembre	2023-09-30T00:00:00	2024-11-06T13:00:00	2	Temperatura media	18.9
180770	7	Sololá	701	Sololá	2	El tablón	9	Septiembre	2023-09-30T00:00:00	2024-11-06T13:00:00	4	Temperatura máxima	20.2
180771	7	Sololá	701	Sololá	2	El tablón	9	Septiembre	2023-09-30T00:00:00	2024-11-06T13:00:00	3	Temperatura mínima	18.9
180772	7	Sololá	701	Sololá	2	El tablón	9	Septiembre	2023-09-30T00:00:00	2024-11-06T13:00:00	5	Humedad	85
180773	7	Sololá	701	Sololá	2	El tablón	9	Septiembre	2023-09-30T00:00:00	2024-11-06T13:00:00	6	Velocidad del viento	6.4
180774	7	Sololá	701	Sololá	2	El tablón	9	Septiembre	2023-09-30T00:00:00	2024-11-06T13:00:00	7	Dirección del viento	6.44
180775	7	Sololá	701	Sololá	2	El tablón	9	Septiembre	2023-09-30T00:00:00	2024-11-06T13:00:00	1	Precipitación	0
180776	7	Sololá	701	Sololá	2	El tablón	9	Septiembre	2023-09-30T00:00:00	2024-11-06T13:00:00	8	Radiación solar	364
180777	7	Sololá	701	Sololá	2	El tablón	9	Septiembre	2023-09-30T00:00:00	2024-11-06T14:00:00	2	Temperatura media	17
180778	7	Sololá	701	Sololá	2	El tablón	9	Septiembre	2023-09-30T00:00:00	2024-11-06T14:00:00	4	Temperatura máxima	19.2
180779	7	Sololá	701	Sololá	2	El tablón	9	Septiembre	2023-09-30T00:00:00	2024-11-06T14:00:00	3	Temperatura mínima	17
180780	7	Sololá	701	Sololá	2	El tablón	9	Septiembre	2023-09-30T00:00:00	2024-11-06T14:00:00	5	Humedad	87
180781	7	Sololá	701	Sololá	2	El tablón	9	Septiembre	2023-09-30T00:00:00	2024-11-06T14:00:00	6	Velocidad del viento	6.4
180782	7	Sololá	701	Sololá	2	El tablón	9	Septiembre	2023-09-30T00:00:00	2024-11-06T14:00:00	7	Dirección del viento	6.44
180783	7	Sololá	701	Sololá	2	El tablón	9	Septiembre	2023-09-30T00:00:00	2024-11-06T14:00:00	1	Precipitación	0
180784	7	Sololá	701	Sololá	2	El tablón	9	Septiembre	2023-09-30T00:00:00	2024-11-06T14:00:00	8	Radiación solar	176
180785	7	Sololá	701	Sololá	2	El tablón	9	Septiembre	2023-09-30T00:00:00	2024-11-06T15:00:00	2	Temperatura media	15.6
180786	7	Sololá	701	Sololá	2	El tablón	9	Septiembre	2023-09-30T00:00:00	2024-11-06T15:00:00	4	Temperatura máxima	17.1
180787	7	Sololá	701	Sololá	2	El tablón	9	Septiembre	2023-09-30T00:00:00	2024-11-06T15:00:00	3	Temperatura mínima	15.5
180788	7	Sololá	701	Sololá	2	El tablón	9	Septiembre	2023-09-30T00:00:00	2024-11-06T15:00:00	5	Humedad	88
180789	7	Sololá	701	Sololá	2	El tablón	9	Septiembre	2023-09-30T00:00:00	2024-11-06T15:00:00	6	Velocidad del viento	3.2
180790	7	Sololá	701	Sololá	2	El tablón	9	Septiembre	2023-09-30T00:00:00	2024-11-06T15:00:00	7	Dirección del viento	3.22
180791	7	Sololá	701	Sololá	2	El tablón	9	Septiembre	2023-09-30T00:00:00	2024-11-06T15:00:00	1	Precipitación	2.4
180792	7	Sololá	701	Sololá	2	El tablón	9	Septiembre	2023-09-30T00:00:00	2024-11-06T15:00:00	8	Radiación solar	73
180793	7	Sololá	701	Sololá	2	El tablón	9	Septiembre	2023-09-30T00:00:00	2024-11-06T16:00:00	2	Temperatura media	16.2
180794	7	Sololá	701	Sololá	2	El tablón	9	Septiembre	2023-09-30T00:00:00	2024-11-06T16:00:00	4	Temperatura máxima	16.2
180795	7	Sololá	701	Sololá	2	El tablón	9	Septiembre	2023-09-30T00:00:00	2024-11-06T16:00:00	3	Temperatura mínima	15.6
180796	7	Sololá	701	Sololá	2	El tablón	9	Septiembre	2023-09-30T00:00:00	2024-11-06T16:00:00	5	Humedad	88
180797	7	Sololá	701	Sololá	2	El tablón	9	Septiembre	2023-09-30T00:00:00	2024-11-06T16:00:00	6	Velocidad del viento	0
180798	7	Sololá	701	Sololá	2	El tablón	9	Septiembre	2023-09-30T00:00:00	2024-11-06T16:00:00	7	Dirección del viento	0
180799	7	Sololá	701	Sololá	2	El tablón	9	Septiembre	2023-09-30T00:00:00	2024-11-06T16:00:00	1	Precipitación	0
180800	7	Sololá	701	Sololá	2	El tablón	9	Septiembre	2023-09-30T00:00:00	2024-11-06T16:00:00	8	Radiación solar	140
180801	7	Sololá	701	Sololá	2	El tablón	9	Septiembre	2023-09-30T00:00:00	2024-11-06T17:00:00	2	Temperatura media	16.6
180802	7	Sololá	701	Sololá	2	El tablón	9	Septiembre	2023-09-30T00:00:00	2024-11-06T17:00:00	4	Temperatura máxima	16.6
180803	7	Sololá	701	Sololá	2	El tablón	9	Septiembre	2023-09-30T00:00:00	2024-11-06T17:00:00	3	Temperatura mínima	16
180804	7	Sololá	701	Sololá	2	El tablón	9	Septiembre	2023-09-30T00:00:00	2024-11-06T17:00:00	5	Humedad	88
180805	7	Sololá	701	Sololá	2	El tablón	9	Septiembre	2023-09-30T00:00:00	2024-11-06T17:00:00	6	Velocidad del viento	1.6
180806	7	Sololá	701	Sololá	2	El tablón	9	Septiembre	2023-09-30T00:00:00	2024-11-06T17:00:00	7	Dirección del viento	1.61
180807	7	Sololá	701	Sololá	2	El tablón	9	Septiembre	2023-09-30T00:00:00	2024-11-06T17:00:00	1	Precipitación	0.2
180808	7	Sololá	701	Sololá	2	El tablón	9	Septiembre	2023-09-30T00:00:00	2024-11-06T17:00:00	8	Radiación solar	120
180809	7	Sololá	701	Sololá	2	El tablón	9	Septiembre	2023-09-30T00:00:00	2024-11-06T18:00:00	2	Temperatura media	15.8
180810	7	Sololá	701	Sololá	2	El tablón	9	Septiembre	2023-09-30T00:00:00	2024-11-06T18:00:00	4	Temperatura máxima	16.6
180811	7	Sololá	701	Sololá	2	El tablón	9	Septiembre	2023-09-30T00:00:00	2024-11-06T18:00:00	3	Temperatura mínima	15.8
180812	7	Sololá	701	Sololá	2	El tablón	9	Septiembre	2023-09-30T00:00:00	2024-11-06T18:00:00	5	Humedad	87
180813	7	Sololá	701	Sololá	2	El tablón	9	Septiembre	2023-09-30T00:00:00	2024-11-06T18:00:00	6	Velocidad del viento	1.6
180814	7	Sololá	701	Sololá	2	El tablón	9	Septiembre	2023-09-30T00:00:00	2024-11-06T18:00:00	7	Dirección del viento	1.61
180815	7	Sololá	701	Sololá	2	El tablón	9	Septiembre	2023-09-30T00:00:00	2024-11-06T18:00:00	1	Precipitación	0
180816	7	Sololá	701	Sololá	2	El tablón	9	Septiembre	2023-09-30T00:00:00	2024-11-06T18:00:00	8	Radiación solar	20
180817	7	Sololá	701	Sololá	2	El tablón	9	Septiembre	2023-09-30T00:00:00	2024-11-06T19:00:00	2	Temperatura media	15.1
180818	7	Sololá	701	Sololá	2	El tablón	9	Septiembre	2023-09-30T00:00:00	2024-11-06T19:00:00	4	Temperatura máxima	15.8
180819	7	Sololá	701	Sololá	2	El tablón	9	Septiembre	2023-09-30T00:00:00	2024-11-06T19:00:00	3	Temperatura mínima	15.1
180820	7	Sololá	701	Sololá	2	El tablón	9	Septiembre	2023-09-30T00:00:00	2024-11-06T19:00:00	5	Humedad	87
180821	7	Sololá	701	Sololá	2	El tablón	9	Septiembre	2023-09-30T00:00:00	2024-11-06T19:00:00	6	Velocidad del viento	1.6
180822	7	Sololá	701	Sololá	2	El tablón	9	Septiembre	2023-09-30T00:00:00	2024-11-06T19:00:00	7	Dirección del viento	1.61
180823	7	Sololá	701	Sololá	2	El tablón	9	Septiembre	2023-09-30T00:00:00	2024-11-06T19:00:00	1	Precipitación	0
180824	7	Sololá	701	Sololá	2	El tablón	9	Septiembre	2023-09-30T00:00:00	2024-11-06T19:00:00	8	Radiación solar	0
180825	7	Sololá	701	Sololá	2	El tablón	9	Septiembre	2023-09-30T00:00:00	2024-11-06T20:00:00	2	Temperatura media	14.7
180826	7	Sololá	701	Sololá	2	El tablón	9	Septiembre	2023-09-30T00:00:00	2024-11-06T20:00:00	4	Temperatura máxima	15.2
180827	7	Sololá	701	Sololá	2	El tablón	9	Septiembre	2023-09-30T00:00:00	2024-11-06T20:00:00	3	Temperatura mínima	14.7
180828	7	Sololá	701	Sololá	2	El tablón	9	Septiembre	2023-09-30T00:00:00	2024-11-06T20:00:00	5	Humedad	87
180829	7	Sololá	701	Sololá	2	El tablón	9	Septiembre	2023-09-30T00:00:00	2024-11-06T20:00:00	6	Velocidad del viento	1.6
180830	7	Sololá	701	Sololá	2	El tablón	9	Septiembre	2023-09-30T00:00:00	2024-11-06T20:00:00	7	Dirección del viento	1.61
180831	7	Sololá	701	Sololá	2	El tablón	9	Septiembre	2023-09-30T00:00:00	2024-11-06T20:00:00	1	Precipitación	0
180832	7	Sololá	701	Sololá	2	El tablón	9	Septiembre	2023-09-30T00:00:00	2024-11-06T20:00:00	8	Radiación solar	0
180833	7	Sololá	701	Sololá	2	El tablón	9	Septiembre	2023-09-30T00:00:00	2024-11-06T21:00:00	2	Temperatura media	13.8
180834	7	Sololá	701	Sololá	2	El tablón	9	Septiembre	2023-09-30T00:00:00	2024-11-06T21:00:00	4	Temperatura máxima	14.7
180835	7	Sololá	701	Sololá	2	El tablón	9	Septiembre	2023-09-30T00:00:00	2024-11-06T21:00:00	3	Temperatura mínima	13.8
180836	7	Sololá	701	Sololá	2	El tablón	9	Septiembre	2023-09-30T00:00:00	2024-11-06T21:00:00	5	Humedad	88
180837	7	Sololá	701	Sololá	2	El tablón	9	Septiembre	2023-09-30T00:00:00	2024-11-06T21:00:00	6	Velocidad del viento	6.4
180838	7	Sololá	701	Sololá	2	El tablón	9	Septiembre	2023-09-30T00:00:00	2024-11-06T21:00:00	7	Dirección del viento	6.44
180839	7	Sololá	701	Sololá	2	El tablón	9	Septiembre	2023-09-30T00:00:00	2024-11-06T21:00:00	1	Precipitación	1.6
180840	7	Sololá	701	Sololá	2	El tablón	9	Septiembre	2023-09-30T00:00:00	2024-11-06T21:00:00	8	Radiación solar	0
180841	7	Sololá	701	Sololá	2	El tablón	9	Septiembre	2023-09-30T00:00:00	2024-11-06T22:00:00	2	Temperatura media	14.1
180842	7	Sololá	701	Sololá	2	El tablón	9	Septiembre	2023-09-30T00:00:00	2024-11-06T22:00:00	4	Temperatura máxima	14.1
180843	7	Sololá	701	Sololá	2	El tablón	9	Septiembre	2023-09-30T00:00:00	2024-11-06T22:00:00	3	Temperatura mínima	13.7
180844	7	Sololá	701	Sololá	2	El tablón	9	Septiembre	2023-09-30T00:00:00	2024-11-06T22:00:00	5	Humedad	88
180845	7	Sololá	701	Sololá	2	El tablón	9	Septiembre	2023-09-30T00:00:00	2024-11-06T22:00:00	6	Velocidad del viento	6.4
180846	7	Sololá	701	Sololá	2	El tablón	9	Septiembre	2023-09-30T00:00:00	2024-11-06T22:00:00	7	Dirección del viento	6.44
180847	7	Sololá	701	Sololá	2	El tablón	9	Septiembre	2023-09-30T00:00:00	2024-11-06T22:00:00	1	Precipitación	1.8
180848	7	Sololá	701	Sololá	2	El tablón	9	Septiembre	2023-09-30T00:00:00	2024-11-06T22:00:00	8	Radiación solar	0
180849	7	Sololá	701	Sololá	2	El tablón	9	Septiembre	2023-09-30T00:00:00	2024-11-06T23:00:00	2	Temperatura media	14.3
180850	7	Sololá	701	Sololá	2	El tablón	9	Septiembre	2023-09-30T00:00:00	2024-11-06T23:00:00	4	Temperatura máxima	14.3
180851	7	Sololá	701	Sololá	2	El tablón	9	Septiembre	2023-09-30T00:00:00	2024-11-06T23:00:00	3	Temperatura mínima	14.1
180852	7	Sololá	701	Sololá	2	El tablón	9	Septiembre	2023-09-30T00:00:00	2024-11-06T23:00:00	5	Humedad	88
180853	7	Sololá	701	Sololá	2	El tablón	9	Septiembre	2023-09-30T00:00:00	2024-11-06T23:00:00	6	Velocidad del viento	4.8
180854	7	Sololá	701	Sololá	2	El tablón	9	Septiembre	2023-09-30T00:00:00	2024-11-06T23:00:00	7	Dirección del viento	4.83
180855	7	Sololá	701	Sololá	2	El tablón	9	Septiembre	2023-09-30T00:00:00	2024-11-06T23:00:00	1	Precipitación	0
180856	7	Sololá	701	Sololá	2	El tablón	9	Septiembre	2023-09-30T00:00:00	2024-11-06T23:00:00	8	Radiación solar	0
180857	7	Sololá	701	Sololá	2	El tablón	10	Octubre	2023-01-10T00:00:00	2024-11-06T00:00:00	2	Temperatura media	14.2
180858	7	Sololá	701	Sololá	2	El tablón	10	Octubre	2023-01-10T00:00:00	2024-11-06T00:00:00	4	Temperatura máxima	14.4
180859	7	Sololá	701	Sololá	2	El tablón	10	Octubre	2023-01-10T00:00:00	2024-11-06T00:00:00	3	Temperatura mínima	14.2
180860	7	Sololá	701	Sololá	2	El tablón	10	Octubre	2023-01-10T00:00:00	2024-11-06T00:00:00	5	Humedad	88
180861	7	Sololá	701	Sololá	2	El tablón	10	Octubre	2023-01-10T00:00:00	2024-11-06T00:00:00	6	Velocidad del viento	8
180862	7	Sololá	701	Sololá	2	El tablón	10	Octubre	2023-01-10T00:00:00	2024-11-06T00:00:00	7	Dirección del viento	8.05
180863	7	Sololá	701	Sololá	2	El tablón	10	Octubre	2023-01-10T00:00:00	2024-11-06T00:00:00	1	Precipitación	0.2
180864	7	Sololá	701	Sololá	2	El tablón	10	Octubre	2023-01-10T00:00:00	2024-11-06T00:00:00	8	Radiación solar	0
180865	7	Sololá	701	Sololá	2	El tablón	10	Octubre	2023-01-10T00:00:00	2024-11-06T01:00:00	2	Temperatura media	14
180866	7	Sololá	701	Sololá	2	El tablón	10	Octubre	2023-01-10T00:00:00	2024-11-06T01:00:00	4	Temperatura máxima	14.2
180867	7	Sololá	701	Sololá	2	El tablón	10	Octubre	2023-01-10T00:00:00	2024-11-06T01:00:00	3	Temperatura mínima	14
180868	7	Sololá	701	Sololá	2	El tablón	10	Octubre	2023-01-10T00:00:00	2024-11-06T01:00:00	5	Humedad	88
180869	7	Sololá	701	Sololá	2	El tablón	10	Octubre	2023-01-10T00:00:00	2024-11-06T01:00:00	6	Velocidad del viento	6.4
180870	7	Sololá	701	Sololá	2	El tablón	10	Octubre	2023-01-10T00:00:00	2024-11-06T01:00:00	7	Dirección del viento	6.44
180871	7	Sololá	701	Sololá	2	El tablón	10	Octubre	2023-01-10T00:00:00	2024-11-06T01:00:00	1	Precipitación	0
180872	7	Sololá	701	Sololá	2	El tablón	10	Octubre	2023-01-10T00:00:00	2024-11-06T01:00:00	8	Radiación solar	0
180873	7	Sololá	701	Sololá	2	El tablón	10	Octubre	2023-01-10T00:00:00	2024-11-06T02:00:00	2	Temperatura media	13.5
180874	7	Sololá	701	Sololá	2	El tablón	10	Octubre	2023-01-10T00:00:00	2024-11-06T02:00:00	4	Temperatura máxima	14
180875	7	Sololá	701	Sololá	2	El tablón	10	Octubre	2023-01-10T00:00:00	2024-11-06T02:00:00	3	Temperatura mínima	13.5
180876	7	Sololá	701	Sololá	2	El tablón	10	Octubre	2023-01-10T00:00:00	2024-11-06T02:00:00	5	Humedad	88
180877	7	Sololá	701	Sololá	2	El tablón	10	Octubre	2023-01-10T00:00:00	2024-11-06T02:00:00	6	Velocidad del viento	8
180878	7	Sololá	701	Sololá	2	El tablón	10	Octubre	2023-01-10T00:00:00	2024-11-06T02:00:00	7	Dirección del viento	8.05
180879	7	Sololá	701	Sololá	2	El tablón	10	Octubre	2023-01-10T00:00:00	2024-11-06T02:00:00	1	Precipitación	0
180880	7	Sololá	701	Sololá	2	El tablón	10	Octubre	2023-01-10T00:00:00	2024-11-06T02:00:00	8	Radiación solar	0
180881	7	Sololá	701	Sololá	2	El tablón	10	Octubre	2023-01-10T00:00:00	2024-11-06T03:00:00	2	Temperatura media	13.2
180882	7	Sololá	701	Sololá	2	El tablón	10	Octubre	2023-01-10T00:00:00	2024-11-06T03:00:00	4	Temperatura máxima	13.5
180883	7	Sololá	701	Sololá	2	El tablón	10	Octubre	2023-01-10T00:00:00	2024-11-06T03:00:00	3	Temperatura mínima	13.2
180884	7	Sololá	701	Sololá	2	El tablón	10	Octubre	2023-01-10T00:00:00	2024-11-06T03:00:00	5	Humedad	88
180885	7	Sololá	701	Sololá	2	El tablón	10	Octubre	2023-01-10T00:00:00	2024-11-06T03:00:00	6	Velocidad del viento	8
180886	7	Sololá	701	Sololá	2	El tablón	10	Octubre	2023-01-10T00:00:00	2024-11-06T03:00:00	7	Dirección del viento	8.05
180887	7	Sololá	701	Sololá	2	El tablón	10	Octubre	2023-01-10T00:00:00	2024-11-06T03:00:00	1	Precipitación	0
180888	7	Sololá	701	Sololá	2	El tablón	10	Octubre	2023-01-10T00:00:00	2024-11-06T03:00:00	8	Radiación solar	0
180889	7	Sololá	701	Sololá	2	El tablón	10	Octubre	2023-01-10T00:00:00	2024-11-06T04:00:00	2	Temperatura media	13.3
180890	7	Sololá	701	Sololá	2	El tablón	10	Octubre	2023-01-10T00:00:00	2024-11-06T04:00:00	4	Temperatura máxima	13.3
180891	7	Sololá	701	Sololá	2	El tablón	10	Octubre	2023-01-10T00:00:00	2024-11-06T04:00:00	3	Temperatura mínima	13.1
180892	7	Sololá	701	Sololá	2	El tablón	10	Octubre	2023-01-10T00:00:00	2024-11-06T04:00:00	5	Humedad	87
180893	7	Sololá	701	Sololá	2	El tablón	10	Octubre	2023-01-10T00:00:00	2024-11-06T04:00:00	6	Velocidad del viento	8
180894	7	Sololá	701	Sololá	2	El tablón	10	Octubre	2023-01-10T00:00:00	2024-11-06T04:00:00	7	Dirección del viento	8.05
180895	7	Sololá	701	Sololá	2	El tablón	10	Octubre	2023-01-10T00:00:00	2024-11-06T04:00:00	1	Precipitación	0
180896	7	Sololá	701	Sololá	2	El tablón	10	Octubre	2023-01-10T00:00:00	2024-11-06T04:00:00	8	Radiación solar	0
180897	7	Sololá	701	Sololá	2	El tablón	10	Octubre	2023-01-10T00:00:00	2024-11-06T05:00:00	2	Temperatura media	13.1
180898	7	Sololá	701	Sololá	2	El tablón	10	Octubre	2023-01-10T00:00:00	2024-11-06T05:00:00	4	Temperatura máxima	13.3
180899	7	Sololá	701	Sololá	2	El tablón	10	Octubre	2023-01-10T00:00:00	2024-11-06T05:00:00	3	Temperatura mínima	13.1
180900	7	Sololá	701	Sololá	2	El tablón	10	Octubre	2023-01-10T00:00:00	2024-11-06T05:00:00	5	Humedad	87
180901	7	Sololá	701	Sololá	2	El tablón	10	Octubre	2023-01-10T00:00:00	2024-11-06T05:00:00	6	Velocidad del viento	6.4
180902	7	Sololá	701	Sololá	2	El tablón	10	Octubre	2023-01-10T00:00:00	2024-11-06T05:00:00	7	Dirección del viento	6.44
180903	7	Sololá	701	Sololá	2	El tablón	10	Octubre	2023-01-10T00:00:00	2024-11-06T05:00:00	1	Precipitación	0
180904	7	Sololá	701	Sololá	2	El tablón	10	Octubre	2023-01-10T00:00:00	2024-11-06T05:00:00	8	Radiación solar	0
180905	7	Sololá	701	Sololá	2	El tablón	10	Octubre	2023-01-10T00:00:00	2024-11-06T06:00:00	2	Temperatura media	13
180906	7	Sololá	701	Sololá	2	El tablón	10	Octubre	2023-01-10T00:00:00	2024-11-06T06:00:00	4	Temperatura máxima	13.2
180907	7	Sololá	701	Sololá	2	El tablón	10	Octubre	2023-01-10T00:00:00	2024-11-06T06:00:00	3	Temperatura mínima	13
180908	7	Sololá	701	Sololá	2	El tablón	10	Octubre	2023-01-10T00:00:00	2024-11-06T06:00:00	5	Humedad	88
180909	7	Sololá	701	Sololá	2	El tablón	10	Octubre	2023-01-10T00:00:00	2024-11-06T06:00:00	6	Velocidad del viento	8
180910	7	Sololá	701	Sololá	2	El tablón	10	Octubre	2023-01-10T00:00:00	2024-11-06T06:00:00	7	Dirección del viento	8.05
180911	7	Sololá	701	Sololá	2	El tablón	10	Octubre	2023-01-10T00:00:00	2024-11-06T06:00:00	1	Precipitación	0
180912	7	Sololá	701	Sololá	2	El tablón	10	Octubre	2023-01-10T00:00:00	2024-11-06T06:00:00	8	Radiación solar	0
180913	7	Sololá	701	Sololá	2	El tablón	10	Octubre	2023-01-10T00:00:00	2024-11-06T07:00:00	2	Temperatura media	13.9
180914	7	Sololá	701	Sololá	2	El tablón	10	Octubre	2023-01-10T00:00:00	2024-11-06T07:00:00	4	Temperatura máxima	13.9
180915	7	Sololá	701	Sololá	2	El tablón	10	Octubre	2023-01-10T00:00:00	2024-11-06T07:00:00	3	Temperatura mínima	13
180916	7	Sololá	701	Sololá	2	El tablón	10	Octubre	2023-01-10T00:00:00	2024-11-06T07:00:00	5	Humedad	86
180917	7	Sololá	701	Sololá	2	El tablón	10	Octubre	2023-01-10T00:00:00	2024-11-06T07:00:00	6	Velocidad del viento	9.7
180918	7	Sololá	701	Sololá	2	El tablón	10	Octubre	2023-01-10T00:00:00	2024-11-06T07:00:00	7	Dirección del viento	9.66
180919	7	Sololá	701	Sololá	2	El tablón	10	Octubre	2023-01-10T00:00:00	2024-11-06T07:00:00	1	Precipitación	0
180920	7	Sololá	701	Sololá	2	El tablón	10	Octubre	2023-01-10T00:00:00	2024-11-06T07:00:00	8	Radiación solar	70
180921	7	Sololá	701	Sololá	2	El tablón	10	Octubre	2023-01-10T00:00:00	2024-11-06T08:00:00	2	Temperatura media	16.2
180922	7	Sololá	701	Sololá	2	El tablón	10	Octubre	2023-01-10T00:00:00	2024-11-06T08:00:00	4	Temperatura máxima	16.2
180923	7	Sololá	701	Sololá	2	El tablón	10	Octubre	2023-01-10T00:00:00	2024-11-06T08:00:00	3	Temperatura mínima	13.9
180924	7	Sololá	701	Sololá	2	El tablón	10	Octubre	2023-01-10T00:00:00	2024-11-06T08:00:00	5	Humedad	80
180925	7	Sololá	701	Sololá	2	El tablón	10	Octubre	2023-01-10T00:00:00	2024-11-06T08:00:00	6	Velocidad del viento	9.7
180926	7	Sololá	701	Sololá	2	El tablón	10	Octubre	2023-01-10T00:00:00	2024-11-06T08:00:00	7	Dirección del viento	9.66
180927	7	Sololá	701	Sololá	2	El tablón	10	Octubre	2023-01-10T00:00:00	2024-11-06T08:00:00	1	Precipitación	0
180928	7	Sololá	701	Sololá	2	El tablón	10	Octubre	2023-01-10T00:00:00	2024-11-06T08:00:00	8	Radiación solar	224
180929	7	Sololá	701	Sololá	2	El tablón	10	Octubre	2023-01-10T00:00:00	2024-11-06T09:00:00	2	Temperatura media	18.5
180930	7	Sololá	701	Sololá	2	El tablón	10	Octubre	2023-01-10T00:00:00	2024-11-06T09:00:00	4	Temperatura máxima	18.5
180931	7	Sololá	701	Sololá	2	El tablón	10	Octubre	2023-01-10T00:00:00	2024-11-06T09:00:00	3	Temperatura mínima	16.2
180932	7	Sololá	701	Sololá	2	El tablón	10	Octubre	2023-01-10T00:00:00	2024-11-06T09:00:00	5	Humedad	72
180933	7	Sololá	701	Sololá	2	El tablón	10	Octubre	2023-01-10T00:00:00	2024-11-06T09:00:00	6	Velocidad del viento	6.4
180934	7	Sololá	701	Sololá	2	El tablón	10	Octubre	2023-01-10T00:00:00	2024-11-06T09:00:00	7	Dirección del viento	6.44
180935	7	Sololá	701	Sololá	2	El tablón	10	Octubre	2023-01-10T00:00:00	2024-11-06T09:00:00	1	Precipitación	0
180936	7	Sololá	701	Sololá	2	El tablón	10	Octubre	2023-01-10T00:00:00	2024-11-06T09:00:00	8	Radiación solar	413
180937	7	Sololá	701	Sololá	2	El tablón	10	Octubre	2023-01-10T00:00:00	2024-11-06T10:00:00	2	Temperatura media	19.2
180938	7	Sololá	701	Sololá	2	El tablón	10	Octubre	2023-01-10T00:00:00	2024-11-06T10:00:00	4	Temperatura máxima	19.4
180939	7	Sololá	701	Sololá	2	El tablón	10	Octubre	2023-01-10T00:00:00	2024-11-06T10:00:00	3	Temperatura mínima	18.5
180940	7	Sololá	701	Sololá	2	El tablón	10	Octubre	2023-01-10T00:00:00	2024-11-06T10:00:00	5	Humedad	69
180941	7	Sololá	701	Sololá	2	El tablón	10	Octubre	2023-01-10T00:00:00	2024-11-06T10:00:00	6	Velocidad del viento	8
180942	7	Sololá	701	Sololá	2	El tablón	10	Octubre	2023-01-10T00:00:00	2024-11-06T10:00:00	7	Dirección del viento	8.05
180943	7	Sololá	701	Sololá	2	El tablón	10	Octubre	2023-01-10T00:00:00	2024-11-06T10:00:00	1	Precipitación	0
180944	7	Sololá	701	Sololá	2	El tablón	10	Octubre	2023-01-10T00:00:00	2024-11-06T10:00:00	8	Radiación solar	685
180945	7	Sololá	701	Sololá	2	El tablón	10	Octubre	2023-01-10T00:00:00	2024-11-06T11:00:00	2	Temperatura media	20.2
180946	7	Sololá	701	Sololá	2	El tablón	10	Octubre	2023-01-10T00:00:00	2024-11-06T11:00:00	4	Temperatura máxima	20.2
180947	7	Sololá	701	Sololá	2	El tablón	10	Octubre	2023-01-10T00:00:00	2024-11-06T11:00:00	3	Temperatura mínima	19.2
180948	7	Sololá	701	Sololá	2	El tablón	10	Octubre	2023-01-10T00:00:00	2024-11-06T11:00:00	5	Humedad	66
180949	7	Sololá	701	Sololá	2	El tablón	10	Octubre	2023-01-10T00:00:00	2024-11-06T11:00:00	6	Velocidad del viento	9.7
180950	7	Sololá	701	Sololá	2	El tablón	10	Octubre	2023-01-10T00:00:00	2024-11-06T11:00:00	7	Dirección del viento	9.66
180951	7	Sololá	701	Sololá	2	El tablón	10	Octubre	2023-01-10T00:00:00	2024-11-06T11:00:00	1	Precipitación	0
180952	7	Sololá	701	Sololá	2	El tablón	10	Octubre	2023-01-10T00:00:00	2024-11-06T11:00:00	8	Radiación solar	857
180953	7	Sololá	701	Sololá	2	El tablón	10	Octubre	2023-01-10T00:00:00	2024-11-06T12:00:00	2	Temperatura media	19.4
180954	7	Sololá	701	Sololá	2	El tablón	10	Octubre	2023-01-10T00:00:00	2024-11-06T12:00:00	4	Temperatura máxima	20.5
180955	7	Sololá	701	Sololá	2	El tablón	10	Octubre	2023-01-10T00:00:00	2024-11-06T12:00:00	3	Temperatura mínima	19.4
180956	7	Sololá	701	Sololá	2	El tablón	10	Octubre	2023-01-10T00:00:00	2024-11-06T12:00:00	5	Humedad	72
180957	7	Sololá	701	Sololá	2	El tablón	10	Octubre	2023-01-10T00:00:00	2024-11-06T12:00:00	6	Velocidad del viento	9.7
180958	7	Sololá	701	Sololá	2	El tablón	10	Octubre	2023-01-10T00:00:00	2024-11-06T12:00:00	7	Dirección del viento	9.66
180959	7	Sololá	701	Sololá	2	El tablón	10	Octubre	2023-01-10T00:00:00	2024-11-06T12:00:00	1	Precipitación	0
180960	7	Sololá	701	Sololá	2	El tablón	10	Octubre	2023-01-10T00:00:00	2024-11-06T12:00:00	8	Radiación solar	683
180961	7	Sololá	701	Sololá	2	El tablón	10	Octubre	2023-01-10T00:00:00	2024-11-06T13:00:00	2	Temperatura media	20.4
180962	7	Sololá	701	Sololá	2	El tablón	10	Octubre	2023-01-10T00:00:00	2024-11-06T13:00:00	4	Temperatura máxima	20.6
180963	7	Sololá	701	Sololá	2	El tablón	10	Octubre	2023-01-10T00:00:00	2024-11-06T13:00:00	3	Temperatura mínima	19.3
180964	7	Sololá	701	Sololá	2	El tablón	10	Octubre	2023-01-10T00:00:00	2024-11-06T13:00:00	5	Humedad	72
180965	7	Sololá	701	Sololá	2	El tablón	10	Octubre	2023-01-10T00:00:00	2024-11-06T13:00:00	6	Velocidad del viento	4.8
180966	7	Sololá	701	Sololá	2	El tablón	10	Octubre	2023-01-10T00:00:00	2024-11-06T13:00:00	7	Dirección del viento	4.83
180967	7	Sololá	701	Sololá	2	El tablón	10	Octubre	2023-01-10T00:00:00	2024-11-06T13:00:00	1	Precipitación	0
180968	7	Sololá	701	Sololá	2	El tablón	10	Octubre	2023-01-10T00:00:00	2024-11-06T13:00:00	8	Radiación solar	691
180969	7	Sololá	701	Sololá	2	El tablón	10	Octubre	2023-01-10T00:00:00	2024-11-06T14:00:00	2	Temperatura media	18.3
180970	7	Sololá	701	Sololá	2	El tablón	10	Octubre	2023-01-10T00:00:00	2024-11-06T14:00:00	4	Temperatura máxima	20.8
180971	7	Sololá	701	Sololá	2	El tablón	10	Octubre	2023-01-10T00:00:00	2024-11-06T14:00:00	3	Temperatura mínima	18.3
180972	7	Sololá	701	Sololá	2	El tablón	10	Octubre	2023-01-10T00:00:00	2024-11-06T14:00:00	5	Humedad	86
180973	7	Sololá	701	Sololá	2	El tablón	10	Octubre	2023-01-10T00:00:00	2024-11-06T14:00:00	6	Velocidad del viento	6.4
180974	7	Sololá	701	Sololá	2	El tablón	10	Octubre	2023-01-10T00:00:00	2024-11-06T14:00:00	7	Dirección del viento	6.44
180975	7	Sololá	701	Sololá	2	El tablón	10	Octubre	2023-01-10T00:00:00	2024-11-06T14:00:00	1	Precipitación	0
180976	7	Sololá	701	Sololá	2	El tablón	10	Octubre	2023-01-10T00:00:00	2024-11-06T14:00:00	8	Radiación solar	414
180977	7	Sololá	701	Sololá	2	El tablón	10	Octubre	2023-01-10T00:00:00	2024-11-06T15:00:00	2	Temperatura media	17.5
180978	7	Sololá	701	Sololá	2	El tablón	10	Octubre	2023-01-10T00:00:00	2024-11-06T15:00:00	4	Temperatura máxima	18.3
180979	7	Sololá	701	Sololá	2	El tablón	10	Octubre	2023-01-10T00:00:00	2024-11-06T15:00:00	3	Temperatura mínima	17.4
180980	7	Sololá	701	Sololá	2	El tablón	10	Octubre	2023-01-10T00:00:00	2024-11-06T15:00:00	5	Humedad	87
180981	7	Sololá	701	Sololá	2	El tablón	10	Octubre	2023-01-10T00:00:00	2024-11-06T15:00:00	6	Velocidad del viento	6.4
180982	7	Sololá	701	Sololá	2	El tablón	10	Octubre	2023-01-10T00:00:00	2024-11-06T15:00:00	7	Dirección del viento	6.44
180983	7	Sololá	701	Sololá	2	El tablón	10	Octubre	2023-01-10T00:00:00	2024-11-06T15:00:00	1	Precipitación	0
180984	7	Sololá	701	Sololá	2	El tablón	10	Octubre	2023-01-10T00:00:00	2024-11-06T15:00:00	8	Radiación solar	210
180985	7	Sololá	701	Sololá	2	El tablón	10	Octubre	2023-01-10T00:00:00	2024-11-06T16:00:00	2	Temperatura media	18
180986	7	Sololá	701	Sololá	2	El tablón	10	Octubre	2023-01-10T00:00:00	2024-11-06T16:00:00	4	Temperatura máxima	18.4
180987	7	Sololá	701	Sololá	2	El tablón	10	Octubre	2023-01-10T00:00:00	2024-11-06T16:00:00	3	Temperatura mínima	17.4
180988	7	Sololá	701	Sololá	2	El tablón	10	Octubre	2023-01-10T00:00:00	2024-11-06T16:00:00	5	Humedad	86
180989	7	Sololá	701	Sololá	2	El tablón	10	Octubre	2023-01-10T00:00:00	2024-11-06T16:00:00	6	Velocidad del viento	4.8
180990	7	Sololá	701	Sololá	2	El tablón	10	Octubre	2023-01-10T00:00:00	2024-11-06T16:00:00	7	Dirección del viento	4.83
180991	7	Sololá	701	Sololá	2	El tablón	10	Octubre	2023-01-10T00:00:00	2024-11-06T16:00:00	1	Precipitación	0
180992	7	Sololá	701	Sololá	2	El tablón	10	Octubre	2023-01-10T00:00:00	2024-11-06T16:00:00	8	Radiación solar	304
180993	7	Sololá	701	Sololá	2	El tablón	10	Octubre	2023-01-10T00:00:00	2024-11-06T17:00:00	2	Temperatura media	16.8
180994	7	Sololá	701	Sololá	2	El tablón	10	Octubre	2023-01-10T00:00:00	2024-11-06T17:00:00	4	Temperatura máxima	18
180995	7	Sololá	701	Sololá	2	El tablón	10	Octubre	2023-01-10T00:00:00	2024-11-06T17:00:00	3	Temperatura mínima	16.7
180996	7	Sololá	701	Sololá	2	El tablón	10	Octubre	2023-01-10T00:00:00	2024-11-06T17:00:00	5	Humedad	86
180997	7	Sololá	701	Sololá	2	El tablón	10	Octubre	2023-01-10T00:00:00	2024-11-06T17:00:00	6	Velocidad del viento	3.2
180998	7	Sololá	701	Sololá	2	El tablón	10	Octubre	2023-01-10T00:00:00	2024-11-06T17:00:00	7	Dirección del viento	3.22
180999	7	Sololá	701	Sololá	2	El tablón	10	Octubre	2023-01-10T00:00:00	2024-11-06T17:00:00	1	Precipitación	0
181000	7	Sololá	701	Sololá	2	El tablón	10	Octubre	2023-01-10T00:00:00	2024-11-06T17:00:00	8	Radiación solar	56
181001	7	Sololá	701	Sololá	2	El tablón	10	Octubre	2023-01-10T00:00:00	2024-11-06T18:00:00	2	Temperatura media	15.8
181002	7	Sololá	701	Sololá	2	El tablón	10	Octubre	2023-01-10T00:00:00	2024-11-06T18:00:00	4	Temperatura máxima	17.1
181003	7	Sololá	701	Sololá	2	El tablón	10	Octubre	2023-01-10T00:00:00	2024-11-06T18:00:00	3	Temperatura mínima	15.8
181004	7	Sololá	701	Sololá	2	El tablón	10	Octubre	2023-01-10T00:00:00	2024-11-06T18:00:00	5	Humedad	88
181005	7	Sololá	701	Sololá	2	El tablón	10	Octubre	2023-01-10T00:00:00	2024-11-06T18:00:00	6	Velocidad del viento	1.6
181006	7	Sololá	701	Sololá	2	El tablón	10	Octubre	2023-01-10T00:00:00	2024-11-06T18:00:00	7	Dirección del viento	1.61
181007	7	Sololá	701	Sololá	2	El tablón	10	Octubre	2023-01-10T00:00:00	2024-11-06T18:00:00	1	Precipitación	0
181008	7	Sololá	701	Sololá	2	El tablón	10	Octubre	2023-01-10T00:00:00	2024-11-06T18:00:00	8	Radiación solar	26
181009	7	Sololá	701	Sololá	2	El tablón	10	Octubre	2023-01-10T00:00:00	2024-11-06T19:00:00	2	Temperatura media	14.8
181010	7	Sololá	701	Sololá	2	El tablón	10	Octubre	2023-01-10T00:00:00	2024-11-06T19:00:00	4	Temperatura máxima	15.8
181011	7	Sololá	701	Sololá	2	El tablón	10	Octubre	2023-01-10T00:00:00	2024-11-06T19:00:00	3	Temperatura mínima	14.8
181012	7	Sololá	701	Sololá	2	El tablón	10	Octubre	2023-01-10T00:00:00	2024-11-06T19:00:00	5	Humedad	87
181013	7	Sololá	701	Sololá	2	El tablón	10	Octubre	2023-01-10T00:00:00	2024-11-06T19:00:00	6	Velocidad del viento	1.6
181014	7	Sololá	701	Sololá	2	El tablón	10	Octubre	2023-01-10T00:00:00	2024-11-06T19:00:00	7	Dirección del viento	1.61
181015	7	Sololá	701	Sololá	2	El tablón	10	Octubre	2023-01-10T00:00:00	2024-11-06T19:00:00	1	Precipitación	0
181016	7	Sololá	701	Sololá	2	El tablón	10	Octubre	2023-01-10T00:00:00	2024-11-06T19:00:00	8	Radiación solar	0
181017	7	Sololá	701	Sololá	2	El tablón	10	Octubre	2023-01-10T00:00:00	2024-11-06T20:00:00	2	Temperatura media	14.6
181018	7	Sololá	701	Sololá	2	El tablón	10	Octubre	2023-01-10T00:00:00	2024-11-06T20:00:00	4	Temperatura máxima	14.8
181019	7	Sololá	701	Sololá	2	El tablón	10	Octubre	2023-01-10T00:00:00	2024-11-06T20:00:00	3	Temperatura mínima	14.6
181020	7	Sololá	701	Sololá	2	El tablón	10	Octubre	2023-01-10T00:00:00	2024-11-06T20:00:00	5	Humedad	87
181021	7	Sololá	701	Sololá	2	El tablón	10	Octubre	2023-01-10T00:00:00	2024-11-06T20:00:00	6	Velocidad del viento	1.6
181022	7	Sololá	701	Sololá	2	El tablón	10	Octubre	2023-01-10T00:00:00	2024-11-06T20:00:00	7	Dirección del viento	1.61
181023	7	Sololá	701	Sololá	2	El tablón	10	Octubre	2023-01-10T00:00:00	2024-11-06T20:00:00	1	Precipitación	0
181024	7	Sololá	701	Sololá	2	El tablón	10	Octubre	2023-01-10T00:00:00	2024-11-06T20:00:00	8	Radiación solar	0
181025	7	Sololá	701	Sololá	2	El tablón	10	Octubre	2023-01-10T00:00:00	2024-11-06T21:00:00	2	Temperatura media	14.7
181026	7	Sololá	701	Sololá	2	El tablón	10	Octubre	2023-01-10T00:00:00	2024-11-06T21:00:00	4	Temperatura máxima	14.7
181027	7	Sololá	701	Sololá	2	El tablón	10	Octubre	2023-01-10T00:00:00	2024-11-06T21:00:00	3	Temperatura mínima	14.5
181028	7	Sololá	701	Sololá	2	El tablón	10	Octubre	2023-01-10T00:00:00	2024-11-06T21:00:00	5	Humedad	86
181029	7	Sololá	701	Sololá	2	El tablón	10	Octubre	2023-01-10T00:00:00	2024-11-06T21:00:00	6	Velocidad del viento	0
181030	7	Sololá	701	Sololá	2	El tablón	10	Octubre	2023-01-10T00:00:00	2024-11-06T21:00:00	7	Dirección del viento	0
181031	7	Sololá	701	Sololá	2	El tablón	10	Octubre	2023-01-10T00:00:00	2024-11-06T21:00:00	1	Precipitación	3.4
181032	7	Sololá	701	Sololá	2	El tablón	10	Octubre	2023-01-10T00:00:00	2024-11-06T21:00:00	8	Radiación solar	0
181033	7	Sololá	701	Sololá	2	El tablón	10	Octubre	2023-01-10T00:00:00	2024-11-06T22:00:00	2	Temperatura media	14.4
181034	7	Sololá	701	Sololá	2	El tablón	10	Octubre	2023-01-10T00:00:00	2024-11-06T22:00:00	4	Temperatura máxima	14.7
181035	7	Sololá	701	Sololá	2	El tablón	10	Octubre	2023-01-10T00:00:00	2024-11-06T22:00:00	3	Temperatura mínima	14.4
181036	7	Sololá	701	Sololá	2	El tablón	10	Octubre	2023-01-10T00:00:00	2024-11-06T22:00:00	5	Humedad	88
181037	7	Sololá	701	Sololá	2	El tablón	10	Octubre	2023-01-10T00:00:00	2024-11-06T22:00:00	6	Velocidad del viento	1.6
181038	7	Sololá	701	Sololá	2	El tablón	10	Octubre	2023-01-10T00:00:00	2024-11-06T22:00:00	7	Dirección del viento	1.61
181039	7	Sololá	701	Sololá	2	El tablón	10	Octubre	2023-01-10T00:00:00	2024-11-06T22:00:00	1	Precipitación	0.4
181040	7	Sololá	701	Sololá	2	El tablón	10	Octubre	2023-01-10T00:00:00	2024-11-06T22:00:00	8	Radiación solar	0
181041	7	Sololá	701	Sololá	2	El tablón	10	Octubre	2023-01-10T00:00:00	2024-11-06T23:00:00	2	Temperatura media	14.1
181042	7	Sololá	701	Sololá	2	El tablón	10	Octubre	2023-01-10T00:00:00	2024-11-06T23:00:00	4	Temperatura máxima	14.4
181043	7	Sololá	701	Sololá	2	El tablón	10	Octubre	2023-01-10T00:00:00	2024-11-06T23:00:00	3	Temperatura mínima	14.1
181044	7	Sololá	701	Sololá	2	El tablón	10	Octubre	2023-01-10T00:00:00	2024-11-06T23:00:00	5	Humedad	88
181045	7	Sololá	701	Sololá	2	El tablón	10	Octubre	2023-01-10T00:00:00	2024-11-06T23:00:00	6	Velocidad del viento	3.2
181046	7	Sololá	701	Sololá	2	El tablón	10	Octubre	2023-01-10T00:00:00	2024-11-06T23:00:00	7	Dirección del viento	3.22
181047	7	Sololá	701	Sololá	2	El tablón	10	Octubre	2023-01-10T00:00:00	2024-11-06T23:00:00	1	Precipitación	0
181048	7	Sololá	701	Sololá	2	El tablón	10	Octubre	2023-01-10T00:00:00	2024-11-06T23:00:00	8	Radiación solar	0
181049	7	Sololá	701	Sololá	2	El tablón	10	Octubre	2023-02-10T00:00:00	2024-11-06T00:00:00	2	Temperatura media	14.2
181050	7	Sololá	701	Sololá	2	El tablón	10	Octubre	2023-02-10T00:00:00	2024-11-06T00:00:00	4	Temperatura máxima	14.2
181051	7	Sololá	701	Sololá	2	El tablón	10	Octubre	2023-02-10T00:00:00	2024-11-06T00:00:00	3	Temperatura mínima	14.1
181052	7	Sololá	701	Sololá	2	El tablón	10	Octubre	2023-02-10T00:00:00	2024-11-06T00:00:00	5	Humedad	88
181053	7	Sololá	701	Sololá	2	El tablón	10	Octubre	2023-02-10T00:00:00	2024-11-06T00:00:00	6	Velocidad del viento	3.2
181054	7	Sololá	701	Sololá	2	El tablón	10	Octubre	2023-02-10T00:00:00	2024-11-06T00:00:00	7	Dirección del viento	3.22
181055	7	Sololá	701	Sololá	2	El tablón	10	Octubre	2023-02-10T00:00:00	2024-11-06T00:00:00	1	Precipitación	0
181056	7	Sololá	701	Sololá	2	El tablón	10	Octubre	2023-02-10T00:00:00	2024-11-06T00:00:00	8	Radiación solar	0
181057	7	Sololá	701	Sololá	2	El tablón	10	Octubre	2023-02-10T00:00:00	2024-11-06T01:00:00	2	Temperatura media	14.1
181058	7	Sololá	701	Sololá	2	El tablón	10	Octubre	2023-02-10T00:00:00	2024-11-06T01:00:00	4	Temperatura máxima	14.2
181059	7	Sololá	701	Sololá	2	El tablón	10	Octubre	2023-02-10T00:00:00	2024-11-06T01:00:00	3	Temperatura mínima	14.1
181060	7	Sololá	701	Sololá	2	El tablón	10	Octubre	2023-02-10T00:00:00	2024-11-06T01:00:00	5	Humedad	88
181061	7	Sololá	701	Sololá	2	El tablón	10	Octubre	2023-02-10T00:00:00	2024-11-06T01:00:00	6	Velocidad del viento	1.6
181062	7	Sololá	701	Sololá	2	El tablón	10	Octubre	2023-02-10T00:00:00	2024-11-06T01:00:00	7	Dirección del viento	1.61
181063	7	Sololá	701	Sololá	2	El tablón	10	Octubre	2023-02-10T00:00:00	2024-11-06T01:00:00	1	Precipitación	0
181064	7	Sololá	701	Sololá	2	El tablón	10	Octubre	2023-02-10T00:00:00	2024-11-06T01:00:00	8	Radiación solar	0
181065	7	Sololá	701	Sololá	2	El tablón	10	Octubre	2023-02-10T00:00:00	2024-11-06T02:00:00	2	Temperatura media	13.8
181066	7	Sololá	701	Sololá	2	El tablón	10	Octubre	2023-02-10T00:00:00	2024-11-06T02:00:00	4	Temperatura máxima	14.2
181067	7	Sololá	701	Sololá	2	El tablón	10	Octubre	2023-02-10T00:00:00	2024-11-06T02:00:00	3	Temperatura mínima	13.8
181068	7	Sololá	701	Sololá	2	El tablón	10	Octubre	2023-02-10T00:00:00	2024-11-06T02:00:00	5	Humedad	88
181069	7	Sololá	701	Sololá	2	El tablón	10	Octubre	2023-02-10T00:00:00	2024-11-06T02:00:00	6	Velocidad del viento	3.2
181070	7	Sololá	701	Sololá	2	El tablón	10	Octubre	2023-02-10T00:00:00	2024-11-06T02:00:00	7	Dirección del viento	3.22
181071	7	Sololá	701	Sololá	2	El tablón	10	Octubre	2023-02-10T00:00:00	2024-11-06T02:00:00	1	Precipitación	0
181072	7	Sololá	701	Sololá	2	El tablón	10	Octubre	2023-02-10T00:00:00	2024-11-06T02:00:00	8	Radiación solar	0
181073	7	Sololá	701	Sololá	2	El tablón	10	Octubre	2023-02-10T00:00:00	2024-11-06T03:00:00	2	Temperatura media	13.7
181074	7	Sololá	701	Sololá	2	El tablón	10	Octubre	2023-02-10T00:00:00	2024-11-06T03:00:00	4	Temperatura máxima	13.8
181075	7	Sololá	701	Sololá	2	El tablón	10	Octubre	2023-02-10T00:00:00	2024-11-06T03:00:00	3	Temperatura mínima	13.6
181076	7	Sololá	701	Sololá	2	El tablón	10	Octubre	2023-02-10T00:00:00	2024-11-06T03:00:00	5	Humedad	88
181077	7	Sololá	701	Sololá	2	El tablón	10	Octubre	2023-02-10T00:00:00	2024-11-06T03:00:00	6	Velocidad del viento	3.2
181078	7	Sololá	701	Sololá	2	El tablón	10	Octubre	2023-02-10T00:00:00	2024-11-06T03:00:00	7	Dirección del viento	3.22
181079	7	Sololá	701	Sololá	2	El tablón	10	Octubre	2023-02-10T00:00:00	2024-11-06T03:00:00	1	Precipitación	0
181080	7	Sololá	701	Sololá	2	El tablón	10	Octubre	2023-02-10T00:00:00	2024-11-06T03:00:00	8	Radiación solar	0
181081	7	Sololá	701	Sololá	2	El tablón	10	Octubre	2023-02-10T00:00:00	2024-11-06T04:00:00	2	Temperatura media	13.2
181082	7	Sololá	701	Sololá	2	El tablón	10	Octubre	2023-02-10T00:00:00	2024-11-06T04:00:00	4	Temperatura máxima	13.7
181083	7	Sololá	701	Sololá	2	El tablón	10	Octubre	2023-02-10T00:00:00	2024-11-06T04:00:00	3	Temperatura mínima	13.2
181084	7	Sololá	701	Sololá	2	El tablón	10	Octubre	2023-02-10T00:00:00	2024-11-06T04:00:00	5	Humedad	88
181085	7	Sololá	701	Sololá	2	El tablón	10	Octubre	2023-02-10T00:00:00	2024-11-06T04:00:00	6	Velocidad del viento	6.4
181086	7	Sololá	701	Sololá	2	El tablón	10	Octubre	2023-02-10T00:00:00	2024-11-06T04:00:00	7	Dirección del viento	6.44
181087	7	Sololá	701	Sololá	2	El tablón	10	Octubre	2023-02-10T00:00:00	2024-11-06T04:00:00	1	Precipitación	0
181088	7	Sololá	701	Sololá	2	El tablón	10	Octubre	2023-02-10T00:00:00	2024-11-06T04:00:00	8	Radiación solar	0
181089	7	Sololá	701	Sololá	2	El tablón	10	Octubre	2023-02-10T00:00:00	2024-11-06T05:00:00	2	Temperatura media	12.9
181090	7	Sololá	701	Sololá	2	El tablón	10	Octubre	2023-02-10T00:00:00	2024-11-06T05:00:00	4	Temperatura máxima	13.2
181091	7	Sololá	701	Sololá	2	El tablón	10	Octubre	2023-02-10T00:00:00	2024-11-06T05:00:00	3	Temperatura mínima	12.9
181092	7	Sololá	701	Sololá	2	El tablón	10	Octubre	2023-02-10T00:00:00	2024-11-06T05:00:00	5	Humedad	88
181093	7	Sololá	701	Sololá	2	El tablón	10	Octubre	2023-02-10T00:00:00	2024-11-06T05:00:00	6	Velocidad del viento	4.8
181094	7	Sololá	701	Sololá	2	El tablón	10	Octubre	2023-02-10T00:00:00	2024-11-06T05:00:00	7	Dirección del viento	4.83
181095	7	Sololá	701	Sololá	2	El tablón	10	Octubre	2023-02-10T00:00:00	2024-11-06T05:00:00	1	Precipitación	0
181096	7	Sololá	701	Sololá	2	El tablón	10	Octubre	2023-02-10T00:00:00	2024-11-06T05:00:00	8	Radiación solar	0
181097	7	Sololá	701	Sololá	2	El tablón	10	Octubre	2023-02-10T00:00:00	2024-11-06T06:00:00	2	Temperatura media	13
181098	7	Sololá	701	Sololá	2	El tablón	10	Octubre	2023-02-10T00:00:00	2024-11-06T06:00:00	4	Temperatura máxima	13.3
181099	7	Sololá	701	Sololá	2	El tablón	10	Octubre	2023-02-10T00:00:00	2024-11-06T06:00:00	3	Temperatura mínima	12.9
181100	7	Sololá	701	Sololá	2	El tablón	10	Octubre	2023-02-10T00:00:00	2024-11-06T06:00:00	5	Humedad	88
181101	7	Sololá	701	Sololá	2	El tablón	10	Octubre	2023-02-10T00:00:00	2024-11-06T06:00:00	6	Velocidad del viento	4.8
181102	7	Sololá	701	Sololá	2	El tablón	10	Octubre	2023-02-10T00:00:00	2024-11-06T06:00:00	7	Dirección del viento	4.83
181103	7	Sololá	701	Sololá	2	El tablón	10	Octubre	2023-02-10T00:00:00	2024-11-06T06:00:00	1	Precipitación	0
181104	7	Sololá	701	Sololá	2	El tablón	10	Octubre	2023-02-10T00:00:00	2024-11-06T06:00:00	8	Radiación solar	0
181105	7	Sololá	701	Sololá	2	El tablón	10	Octubre	2023-02-10T00:00:00	2024-11-06T07:00:00	2	Temperatura media	13.4
181106	7	Sololá	701	Sololá	2	El tablón	10	Octubre	2023-02-10T00:00:00	2024-11-06T07:00:00	4	Temperatura máxima	13.4
181107	7	Sololá	701	Sololá	2	El tablón	10	Octubre	2023-02-10T00:00:00	2024-11-06T07:00:00	3	Temperatura mínima	13
181108	7	Sololá	701	Sololá	2	El tablón	10	Octubre	2023-02-10T00:00:00	2024-11-06T07:00:00	5	Humedad	88
181109	7	Sololá	701	Sololá	2	El tablón	10	Octubre	2023-02-10T00:00:00	2024-11-06T07:00:00	6	Velocidad del viento	4.8
181110	7	Sololá	701	Sololá	2	El tablón	10	Octubre	2023-02-10T00:00:00	2024-11-06T07:00:00	7	Dirección del viento	4.83
181111	7	Sololá	701	Sololá	2	El tablón	10	Octubre	2023-02-10T00:00:00	2024-11-06T07:00:00	1	Precipitación	0
181112	7	Sololá	701	Sololá	2	El tablón	10	Octubre	2023-02-10T00:00:00	2024-11-06T07:00:00	8	Radiación solar	58
181113	7	Sololá	701	Sololá	2	El tablón	10	Octubre	2023-02-10T00:00:00	2024-11-06T08:00:00	2	Temperatura media	15.2
181114	7	Sololá	701	Sololá	2	El tablón	10	Octubre	2023-02-10T00:00:00	2024-11-06T08:00:00	4	Temperatura máxima	15.2
181115	7	Sololá	701	Sololá	2	El tablón	10	Octubre	2023-02-10T00:00:00	2024-11-06T08:00:00	3	Temperatura mínima	13.4
181116	7	Sololá	701	Sololá	2	El tablón	10	Octubre	2023-02-10T00:00:00	2024-11-06T08:00:00	5	Humedad	85
181117	7	Sololá	701	Sololá	2	El tablón	10	Octubre	2023-02-10T00:00:00	2024-11-06T08:00:00	6	Velocidad del viento	4.8
181118	7	Sololá	701	Sololá	2	El tablón	10	Octubre	2023-02-10T00:00:00	2024-11-06T08:00:00	7	Dirección del viento	4.83
181119	7	Sololá	701	Sololá	2	El tablón	10	Octubre	2023-02-10T00:00:00	2024-11-06T08:00:00	1	Precipitación	0
181120	7	Sololá	701	Sololá	2	El tablón	10	Octubre	2023-02-10T00:00:00	2024-11-06T08:00:00	8	Radiación solar	173
181121	7	Sololá	701	Sololá	2	El tablón	10	Octubre	2023-02-10T00:00:00	2024-11-06T09:00:00	2	Temperatura media	17.5
181122	7	Sololá	701	Sololá	2	El tablón	10	Octubre	2023-02-10T00:00:00	2024-11-06T09:00:00	4	Temperatura máxima	17.5
181123	7	Sololá	701	Sololá	2	El tablón	10	Octubre	2023-02-10T00:00:00	2024-11-06T09:00:00	3	Temperatura mínima	15.2
181124	7	Sololá	701	Sololá	2	El tablón	10	Octubre	2023-02-10T00:00:00	2024-11-06T09:00:00	5	Humedad	76
181125	7	Sololá	701	Sololá	2	El tablón	10	Octubre	2023-02-10T00:00:00	2024-11-06T09:00:00	6	Velocidad del viento	8
181126	7	Sololá	701	Sololá	2	El tablón	10	Octubre	2023-02-10T00:00:00	2024-11-06T09:00:00	7	Dirección del viento	8.05
181127	7	Sololá	701	Sololá	2	El tablón	10	Octubre	2023-02-10T00:00:00	2024-11-06T09:00:00	1	Precipitación	0.2
181128	7	Sololá	701	Sololá	2	El tablón	10	Octubre	2023-02-10T00:00:00	2024-11-06T09:00:00	8	Radiación solar	434
181129	7	Sololá	701	Sololá	2	El tablón	10	Octubre	2023-02-10T00:00:00	2024-11-06T10:00:00	2	Temperatura media	19.1
181130	7	Sololá	701	Sololá	2	El tablón	10	Octubre	2023-02-10T00:00:00	2024-11-06T10:00:00	4	Temperatura máxima	19.1
181131	7	Sololá	701	Sololá	2	El tablón	10	Octubre	2023-02-10T00:00:00	2024-11-06T10:00:00	3	Temperatura mínima	17.5
181132	7	Sololá	701	Sololá	2	El tablón	10	Octubre	2023-02-10T00:00:00	2024-11-06T10:00:00	5	Humedad	71
181133	7	Sololá	701	Sololá	2	El tablón	10	Octubre	2023-02-10T00:00:00	2024-11-06T10:00:00	6	Velocidad del viento	9.7
181134	7	Sololá	701	Sololá	2	El tablón	10	Octubre	2023-02-10T00:00:00	2024-11-06T10:00:00	7	Dirección del viento	9.66
181135	7	Sololá	701	Sololá	2	El tablón	10	Octubre	2023-02-10T00:00:00	2024-11-06T10:00:00	1	Precipitación	0
181136	7	Sololá	701	Sololá	2	El tablón	10	Octubre	2023-02-10T00:00:00	2024-11-06T10:00:00	8	Radiación solar	698
181137	7	Sololá	701	Sololá	2	El tablón	10	Octubre	2023-02-10T00:00:00	2024-11-06T11:00:00	2	Temperatura media	19.6
181138	7	Sololá	701	Sololá	2	El tablón	10	Octubre	2023-02-10T00:00:00	2024-11-06T11:00:00	4	Temperatura máxima	20
181139	7	Sololá	701	Sololá	2	El tablón	10	Octubre	2023-02-10T00:00:00	2024-11-06T11:00:00	3	Temperatura mínima	19.1
181140	7	Sololá	701	Sololá	2	El tablón	10	Octubre	2023-02-10T00:00:00	2024-11-06T11:00:00	5	Humedad	70
181141	7	Sololá	701	Sololá	2	El tablón	10	Octubre	2023-02-10T00:00:00	2024-11-06T11:00:00	6	Velocidad del viento	9.7
181142	7	Sololá	701	Sololá	2	El tablón	10	Octubre	2023-02-10T00:00:00	2024-11-06T11:00:00	7	Dirección del viento	9.66
181143	7	Sololá	701	Sololá	2	El tablón	10	Octubre	2023-02-10T00:00:00	2024-11-06T11:00:00	1	Precipitación	0
181144	7	Sololá	701	Sololá	2	El tablón	10	Octubre	2023-02-10T00:00:00	2024-11-06T11:00:00	8	Radiación solar	838
181145	7	Sololá	701	Sololá	2	El tablón	10	Octubre	2023-02-10T00:00:00	2024-11-06T12:00:00	2	Temperatura media	20.6
181146	7	Sololá	701	Sololá	2	El tablón	10	Octubre	2023-02-10T00:00:00	2024-11-06T12:00:00	4	Temperatura máxima	20.6
181147	7	Sololá	701	Sololá	2	El tablón	10	Octubre	2023-02-10T00:00:00	2024-11-06T12:00:00	3	Temperatura mínima	19.6
181148	7	Sololá	701	Sololá	2	El tablón	10	Octubre	2023-02-10T00:00:00	2024-11-06T12:00:00	5	Humedad	65
181149	7	Sololá	701	Sololá	2	El tablón	10	Octubre	2023-02-10T00:00:00	2024-11-06T12:00:00	6	Velocidad del viento	9.7
181150	7	Sololá	701	Sololá	2	El tablón	10	Octubre	2023-02-10T00:00:00	2024-11-06T12:00:00	7	Dirección del viento	9.66
181151	7	Sololá	701	Sololá	2	El tablón	10	Octubre	2023-02-10T00:00:00	2024-11-06T12:00:00	1	Precipitación	0
181152	7	Sololá	701	Sololá	2	El tablón	10	Octubre	2023-02-10T00:00:00	2024-11-06T12:00:00	8	Radiación solar	900
181153	7	Sololá	701	Sololá	2	El tablón	10	Octubre	2023-02-10T00:00:00	2024-11-06T13:00:00	2	Temperatura media	21
181154	7	Sololá	701	Sololá	2	El tablón	10	Octubre	2023-02-10T00:00:00	2024-11-06T13:00:00	4	Temperatura máxima	21.6
181155	7	Sololá	701	Sololá	2	El tablón	10	Octubre	2023-02-10T00:00:00	2024-11-06T13:00:00	3	Temperatura mínima	20.5
181156	7	Sololá	701	Sololá	2	El tablón	10	Octubre	2023-02-10T00:00:00	2024-11-06T13:00:00	5	Humedad	64
181157	7	Sololá	701	Sololá	2	El tablón	10	Octubre	2023-02-10T00:00:00	2024-11-06T13:00:00	6	Velocidad del viento	8
181158	7	Sololá	701	Sololá	2	El tablón	10	Octubre	2023-02-10T00:00:00	2024-11-06T13:00:00	7	Dirección del viento	8.05
181159	7	Sololá	701	Sololá	2	El tablón	10	Octubre	2023-02-10T00:00:00	2024-11-06T13:00:00	1	Precipitación	0
181160	7	Sololá	701	Sololá	2	El tablón	10	Octubre	2023-02-10T00:00:00	2024-11-06T13:00:00	8	Radiación solar	854
181161	7	Sololá	701	Sololá	2	El tablón	10	Octubre	2023-02-10T00:00:00	2024-11-06T14:00:00	2	Temperatura media	18.9
181162	7	Sololá	701	Sololá	2	El tablón	10	Octubre	2023-02-10T00:00:00	2024-11-06T14:00:00	4	Temperatura máxima	21
181163	7	Sololá	701	Sololá	2	El tablón	10	Octubre	2023-02-10T00:00:00	2024-11-06T14:00:00	3	Temperatura mínima	18.9
181164	7	Sololá	701	Sololá	2	El tablón	10	Octubre	2023-02-10T00:00:00	2024-11-06T14:00:00	5	Humedad	84
181165	7	Sololá	701	Sololá	2	El tablón	10	Octubre	2023-02-10T00:00:00	2024-11-06T14:00:00	6	Velocidad del viento	4.8
181166	7	Sololá	701	Sololá	2	El tablón	10	Octubre	2023-02-10T00:00:00	2024-11-06T14:00:00	7	Dirección del viento	4.83
181167	7	Sololá	701	Sololá	2	El tablón	10	Octubre	2023-02-10T00:00:00	2024-11-06T14:00:00	1	Precipitación	0
181168	7	Sololá	701	Sololá	2	El tablón	10	Octubre	2023-02-10T00:00:00	2024-11-06T14:00:00	8	Radiación solar	242
181169	7	Sololá	701	Sololá	2	El tablón	10	Octubre	2023-02-10T00:00:00	2024-11-06T15:00:00	2	Temperatura media	18.1
181170	7	Sololá	701	Sololá	2	El tablón	10	Octubre	2023-02-10T00:00:00	2024-11-06T15:00:00	4	Temperatura máxima	19.4
181171	7	Sololá	701	Sololá	2	El tablón	10	Octubre	2023-02-10T00:00:00	2024-11-06T15:00:00	3	Temperatura mínima	17.8
181172	7	Sololá	701	Sololá	2	El tablón	10	Octubre	2023-02-10T00:00:00	2024-11-06T15:00:00	5	Humedad	86
181173	7	Sololá	701	Sololá	2	El tablón	10	Octubre	2023-02-10T00:00:00	2024-11-06T15:00:00	6	Velocidad del viento	4.8
181174	7	Sololá	701	Sololá	2	El tablón	10	Octubre	2023-02-10T00:00:00	2024-11-06T15:00:00	7	Dirección del viento	4.83
181175	7	Sololá	701	Sololá	2	El tablón	10	Octubre	2023-02-10T00:00:00	2024-11-06T15:00:00	1	Precipitación	0
181176	7	Sololá	701	Sololá	2	El tablón	10	Octubre	2023-02-10T00:00:00	2024-11-06T15:00:00	8	Radiación solar	273
181177	7	Sololá	701	Sololá	2	El tablón	10	Octubre	2023-02-10T00:00:00	2024-11-06T16:00:00	2	Temperatura media	18.3
181178	7	Sololá	701	Sololá	2	El tablón	10	Octubre	2023-02-10T00:00:00	2024-11-06T16:00:00	4	Temperatura máxima	18.7
181179	7	Sololá	701	Sololá	2	El tablón	10	Octubre	2023-02-10T00:00:00	2024-11-06T16:00:00	3	Temperatura mínima	17.9
181180	7	Sololá	701	Sololá	2	El tablón	10	Octubre	2023-02-10T00:00:00	2024-11-06T16:00:00	5	Humedad	84
181181	7	Sololá	701	Sololá	2	El tablón	10	Octubre	2023-02-10T00:00:00	2024-11-06T16:00:00	6	Velocidad del viento	4.8
181182	7	Sololá	701	Sololá	2	El tablón	10	Octubre	2023-02-10T00:00:00	2024-11-06T16:00:00	7	Dirección del viento	4.83
181183	7	Sololá	701	Sololá	2	El tablón	10	Octubre	2023-02-10T00:00:00	2024-11-06T16:00:00	1	Precipitación	0
181184	7	Sololá	701	Sololá	2	El tablón	10	Octubre	2023-02-10T00:00:00	2024-11-06T16:00:00	8	Radiación solar	168
181185	7	Sololá	701	Sololá	2	El tablón	10	Octubre	2023-02-10T00:00:00	2024-11-06T17:00:00	2	Temperatura media	16.6
181186	7	Sololá	701	Sololá	2	El tablón	10	Octubre	2023-02-10T00:00:00	2024-11-06T17:00:00	4	Temperatura máxima	18.4
181187	7	Sololá	701	Sololá	2	El tablón	10	Octubre	2023-02-10T00:00:00	2024-11-06T17:00:00	3	Temperatura mínima	16.6
181188	7	Sololá	701	Sololá	2	El tablón	10	Octubre	2023-02-10T00:00:00	2024-11-06T17:00:00	5	Humedad	87
181189	7	Sololá	701	Sololá	2	El tablón	10	Octubre	2023-02-10T00:00:00	2024-11-06T17:00:00	6	Velocidad del viento	3.2
181190	7	Sololá	701	Sololá	2	El tablón	10	Octubre	2023-02-10T00:00:00	2024-11-06T17:00:00	7	Dirección del viento	3.22
181191	7	Sololá	701	Sololá	2	El tablón	10	Octubre	2023-02-10T00:00:00	2024-11-06T17:00:00	1	Precipitación	0
181192	7	Sololá	701	Sololá	2	El tablón	10	Octubre	2023-02-10T00:00:00	2024-11-06T17:00:00	8	Radiación solar	93
181193	7	Sololá	701	Sololá	2	El tablón	10	Octubre	2023-02-10T00:00:00	2024-11-06T18:00:00	2	Temperatura media	14.9
181194	7	Sololá	701	Sololá	2	El tablón	10	Octubre	2023-02-10T00:00:00	2024-11-06T18:00:00	4	Temperatura máxima	16.6
181195	7	Sololá	701	Sololá	2	El tablón	10	Octubre	2023-02-10T00:00:00	2024-11-06T18:00:00	3	Temperatura mínima	14.9
181196	7	Sololá	701	Sololá	2	El tablón	10	Octubre	2023-02-10T00:00:00	2024-11-06T18:00:00	5	Humedad	86
181197	7	Sololá	701	Sololá	2	El tablón	10	Octubre	2023-02-10T00:00:00	2024-11-06T18:00:00	6	Velocidad del viento	4.8
181198	7	Sololá	701	Sololá	2	El tablón	10	Octubre	2023-02-10T00:00:00	2024-11-06T18:00:00	7	Dirección del viento	4.83
181199	7	Sololá	701	Sololá	2	El tablón	10	Octubre	2023-02-10T00:00:00	2024-11-06T18:00:00	1	Precipitación	0
181200	7	Sololá	701	Sololá	2	El tablón	10	Octubre	2023-02-10T00:00:00	2024-11-06T18:00:00	8	Radiación solar	2
181201	7	Sololá	701	Sololá	2	El tablón	10	Octubre	2023-02-10T00:00:00	2024-11-06T19:00:00	2	Temperatura media	13.8
181202	7	Sololá	701	Sololá	2	El tablón	10	Octubre	2023-02-10T00:00:00	2024-11-06T19:00:00	4	Temperatura máxima	14.9
181203	7	Sololá	701	Sololá	2	El tablón	10	Octubre	2023-02-10T00:00:00	2024-11-06T19:00:00	3	Temperatura mínima	13.8
181204	7	Sololá	701	Sololá	2	El tablón	10	Octubre	2023-02-10T00:00:00	2024-11-06T19:00:00	5	Humedad	86
181205	7	Sololá	701	Sololá	2	El tablón	10	Octubre	2023-02-10T00:00:00	2024-11-06T19:00:00	6	Velocidad del viento	6.4
181206	7	Sololá	701	Sololá	2	El tablón	10	Octubre	2023-02-10T00:00:00	2024-11-06T19:00:00	7	Dirección del viento	6.44
181207	7	Sololá	701	Sololá	2	El tablón	10	Octubre	2023-02-10T00:00:00	2024-11-06T19:00:00	1	Precipitación	0
181208	7	Sololá	701	Sololá	2	El tablón	10	Octubre	2023-02-10T00:00:00	2024-11-06T19:00:00	8	Radiación solar	0
181209	7	Sololá	701	Sololá	2	El tablón	10	Octubre	2023-02-10T00:00:00	2024-11-06T20:00:00	2	Temperatura media	13.6
181210	7	Sololá	701	Sololá	2	El tablón	10	Octubre	2023-02-10T00:00:00	2024-11-06T20:00:00	4	Temperatura máxima	13.9
181211	7	Sololá	701	Sololá	2	El tablón	10	Octubre	2023-02-10T00:00:00	2024-11-06T20:00:00	3	Temperatura mínima	13.6
181212	7	Sololá	701	Sololá	2	El tablón	10	Octubre	2023-02-10T00:00:00	2024-11-06T20:00:00	5	Humedad	86
181213	7	Sololá	701	Sololá	2	El tablón	10	Octubre	2023-02-10T00:00:00	2024-11-06T20:00:00	6	Velocidad del viento	3.2
181214	7	Sololá	701	Sololá	2	El tablón	10	Octubre	2023-02-10T00:00:00	2024-11-06T20:00:00	7	Dirección del viento	3.22
181215	7	Sololá	701	Sololá	2	El tablón	10	Octubre	2023-02-10T00:00:00	2024-11-06T20:00:00	1	Precipitación	7.6
181216	7	Sololá	701	Sololá	2	El tablón	10	Octubre	2023-02-10T00:00:00	2024-11-06T20:00:00	8	Radiación solar	0
181217	7	Sololá	701	Sololá	2	El tablón	10	Octubre	2023-02-10T00:00:00	2024-11-06T21:00:00	2	Temperatura media	12.8
181218	7	Sololá	701	Sololá	2	El tablón	10	Octubre	2023-02-10T00:00:00	2024-11-06T21:00:00	4	Temperatura máxima	13.6
181219	7	Sololá	701	Sololá	2	El tablón	10	Octubre	2023-02-10T00:00:00	2024-11-06T21:00:00	3	Temperatura mínima	12.6
181220	7	Sololá	701	Sololá	2	El tablón	10	Octubre	2023-02-10T00:00:00	2024-11-06T21:00:00	5	Humedad	86
181221	7	Sololá	701	Sololá	2	El tablón	10	Octubre	2023-02-10T00:00:00	2024-11-06T21:00:00	6	Velocidad del viento	6.4
181222	7	Sololá	701	Sololá	2	El tablón	10	Octubre	2023-02-10T00:00:00	2024-11-06T21:00:00	7	Dirección del viento	6.44
181223	7	Sololá	701	Sololá	2	El tablón	10	Octubre	2023-02-10T00:00:00	2024-11-06T21:00:00	1	Precipitación	3.8
181224	7	Sololá	701	Sololá	2	El tablón	10	Octubre	2023-02-10T00:00:00	2024-11-06T21:00:00	8	Radiación solar	0
181225	7	Sololá	701	Sololá	2	El tablón	10	Octubre	2023-02-10T00:00:00	2024-11-06T22:00:00	2	Temperatura media	13.2
181226	7	Sololá	701	Sololá	2	El tablón	10	Octubre	2023-02-10T00:00:00	2024-11-06T22:00:00	4	Temperatura máxima	13.2
181227	7	Sololá	701	Sololá	2	El tablón	10	Octubre	2023-02-10T00:00:00	2024-11-06T22:00:00	3	Temperatura mínima	12.7
181228	7	Sololá	701	Sololá	2	El tablón	10	Octubre	2023-02-10T00:00:00	2024-11-06T22:00:00	5	Humedad	87
181229	7	Sololá	701	Sololá	2	El tablón	10	Octubre	2023-02-10T00:00:00	2024-11-06T22:00:00	6	Velocidad del viento	3.2
181230	7	Sololá	701	Sololá	2	El tablón	10	Octubre	2023-02-10T00:00:00	2024-11-06T22:00:00	7	Dirección del viento	3.22
181231	7	Sololá	701	Sololá	2	El tablón	10	Octubre	2023-02-10T00:00:00	2024-11-06T22:00:00	1	Precipitación	0.4
181232	7	Sololá	701	Sololá	2	El tablón	10	Octubre	2023-02-10T00:00:00	2024-11-06T22:00:00	8	Radiación solar	0
181233	7	Sololá	701	Sololá	2	El tablón	10	Octubre	2023-02-10T00:00:00	2024-11-06T23:00:00	2	Temperatura media	13.8
181234	7	Sololá	701	Sololá	2	El tablón	10	Octubre	2023-02-10T00:00:00	2024-11-06T23:00:00	4	Temperatura máxima	13.8
181235	7	Sololá	701	Sololá	2	El tablón	10	Octubre	2023-02-10T00:00:00	2024-11-06T23:00:00	3	Temperatura mínima	13.2
181236	7	Sololá	701	Sololá	2	El tablón	10	Octubre	2023-02-10T00:00:00	2024-11-06T23:00:00	5	Humedad	88
181237	7	Sololá	701	Sololá	2	El tablón	10	Octubre	2023-02-10T00:00:00	2024-11-06T23:00:00	6	Velocidad del viento	6.4
181238	7	Sololá	701	Sololá	2	El tablón	10	Octubre	2023-02-10T00:00:00	2024-11-06T23:00:00	7	Dirección del viento	6.44
181239	7	Sololá	701	Sololá	2	El tablón	10	Octubre	2023-02-10T00:00:00	2024-11-06T23:00:00	1	Precipitación	0
181240	7	Sololá	701	Sololá	2	El tablón	10	Octubre	2023-02-10T00:00:00	2024-11-06T23:00:00	8	Radiación solar	0
181241	7	Sololá	701	Sololá	2	El tablón	10	Octubre	2023-03-10T00:00:00	2024-11-06T00:00:00	2	Temperatura media	13.6
181242	7	Sololá	701	Sololá	2	El tablón	10	Octubre	2023-03-10T00:00:00	2024-11-06T00:00:00	4	Temperatura máxima	13.8
181243	7	Sololá	701	Sololá	2	El tablón	10	Octubre	2023-03-10T00:00:00	2024-11-06T00:00:00	3	Temperatura mínima	13.6
181244	7	Sololá	701	Sololá	2	El tablón	10	Octubre	2023-03-10T00:00:00	2024-11-06T00:00:00	5	Humedad	88
181245	7	Sololá	701	Sololá	2	El tablón	10	Octubre	2023-03-10T00:00:00	2024-11-06T00:00:00	6	Velocidad del viento	8
181246	7	Sololá	701	Sololá	2	El tablón	10	Octubre	2023-03-10T00:00:00	2024-11-06T00:00:00	7	Dirección del viento	8.05
181247	7	Sololá	701	Sololá	2	El tablón	10	Octubre	2023-03-10T00:00:00	2024-11-06T00:00:00	1	Precipitación	0.2
181248	7	Sololá	701	Sololá	2	El tablón	10	Octubre	2023-03-10T00:00:00	2024-11-06T00:00:00	8	Radiación solar	0
181249	7	Sololá	701	Sololá	2	El tablón	10	Octubre	2023-03-10T00:00:00	2024-11-06T01:00:00	2	Temperatura media	13.4
181250	7	Sololá	701	Sololá	2	El tablón	10	Octubre	2023-03-10T00:00:00	2024-11-06T01:00:00	4	Temperatura máxima	13.6
181251	7	Sololá	701	Sololá	2	El tablón	10	Octubre	2023-03-10T00:00:00	2024-11-06T01:00:00	3	Temperatura mínima	13.3
181252	7	Sololá	701	Sololá	2	El tablón	10	Octubre	2023-03-10T00:00:00	2024-11-06T01:00:00	5	Humedad	88
181253	7	Sololá	701	Sololá	2	El tablón	10	Octubre	2023-03-10T00:00:00	2024-11-06T01:00:00	6	Velocidad del viento	11.3
181254	7	Sololá	701	Sololá	2	El tablón	10	Octubre	2023-03-10T00:00:00	2024-11-06T01:00:00	7	Dirección del viento	11.27
181255	7	Sololá	701	Sololá	2	El tablón	10	Octubre	2023-03-10T00:00:00	2024-11-06T01:00:00	1	Precipitación	0
181256	7	Sololá	701	Sololá	2	El tablón	10	Octubre	2023-03-10T00:00:00	2024-11-06T01:00:00	8	Radiación solar	0
181257	7	Sololá	701	Sololá	2	El tablón	10	Octubre	2023-03-10T00:00:00	2024-11-06T02:00:00	2	Temperatura media	13.5
181258	7	Sololá	701	Sololá	2	El tablón	10	Octubre	2023-03-10T00:00:00	2024-11-06T02:00:00	4	Temperatura máxima	13.5
181259	7	Sololá	701	Sololá	2	El tablón	10	Octubre	2023-03-10T00:00:00	2024-11-06T02:00:00	3	Temperatura mínima	13.4
181260	7	Sololá	701	Sololá	2	El tablón	10	Octubre	2023-03-10T00:00:00	2024-11-06T02:00:00	5	Humedad	88
181261	7	Sololá	701	Sololá	2	El tablón	10	Octubre	2023-03-10T00:00:00	2024-11-06T02:00:00	6	Velocidad del viento	9.7
181262	7	Sololá	701	Sololá	2	El tablón	10	Octubre	2023-03-10T00:00:00	2024-11-06T02:00:00	7	Dirección del viento	9.66
181263	7	Sololá	701	Sololá	2	El tablón	10	Octubre	2023-03-10T00:00:00	2024-11-06T02:00:00	1	Precipitación	0
181264	7	Sololá	701	Sololá	2	El tablón	10	Octubre	2023-03-10T00:00:00	2024-11-06T02:00:00	8	Radiación solar	0
181265	7	Sololá	701	Sololá	2	El tablón	10	Octubre	2023-03-10T00:00:00	2024-11-06T03:00:00	2	Temperatura media	13.3
181266	7	Sololá	701	Sololá	2	El tablón	10	Octubre	2023-03-10T00:00:00	2024-11-06T03:00:00	4	Temperatura máxima	13.6
181267	7	Sololá	701	Sololá	2	El tablón	10	Octubre	2023-03-10T00:00:00	2024-11-06T03:00:00	3	Temperatura mínima	13.3
181268	7	Sololá	701	Sololá	2	El tablón	10	Octubre	2023-03-10T00:00:00	2024-11-06T03:00:00	5	Humedad	88
181269	7	Sololá	701	Sololá	2	El tablón	10	Octubre	2023-03-10T00:00:00	2024-11-06T03:00:00	6	Velocidad del viento	11.3
181270	7	Sololá	701	Sololá	2	El tablón	10	Octubre	2023-03-10T00:00:00	2024-11-06T03:00:00	7	Dirección del viento	11.27
181271	7	Sololá	701	Sololá	2	El tablón	10	Octubre	2023-03-10T00:00:00	2024-11-06T03:00:00	1	Precipitación	0
181272	7	Sololá	701	Sololá	2	El tablón	10	Octubre	2023-03-10T00:00:00	2024-11-06T03:00:00	8	Radiación solar	0
181273	7	Sololá	701	Sololá	2	El tablón	10	Octubre	2023-03-10T00:00:00	2024-11-06T04:00:00	2	Temperatura media	13.3
181274	7	Sololá	701	Sololá	2	El tablón	10	Octubre	2023-03-10T00:00:00	2024-11-06T04:00:00	4	Temperatura máxima	13.4
181275	7	Sololá	701	Sololá	2	El tablón	10	Octubre	2023-03-10T00:00:00	2024-11-06T04:00:00	3	Temperatura mínima	13.2
181276	7	Sololá	701	Sololá	2	El tablón	10	Octubre	2023-03-10T00:00:00	2024-11-06T04:00:00	5	Humedad	88
181277	7	Sololá	701	Sololá	2	El tablón	10	Octubre	2023-03-10T00:00:00	2024-11-06T04:00:00	6	Velocidad del viento	9.7
181278	7	Sololá	701	Sololá	2	El tablón	10	Octubre	2023-03-10T00:00:00	2024-11-06T04:00:00	7	Dirección del viento	9.66
181279	7	Sololá	701	Sololá	2	El tablón	10	Octubre	2023-03-10T00:00:00	2024-11-06T04:00:00	1	Precipitación	0
181280	7	Sololá	701	Sololá	2	El tablón	10	Octubre	2023-03-10T00:00:00	2024-11-06T04:00:00	8	Radiación solar	0
181281	7	Sololá	701	Sololá	2	El tablón	10	Octubre	2023-03-10T00:00:00	2024-11-06T05:00:00	2	Temperatura media	13.1
181282	7	Sololá	701	Sololá	2	El tablón	10	Octubre	2023-03-10T00:00:00	2024-11-06T05:00:00	4	Temperatura máxima	13.3
181283	7	Sololá	701	Sololá	2	El tablón	10	Octubre	2023-03-10T00:00:00	2024-11-06T05:00:00	3	Temperatura mínima	13.1
181284	7	Sololá	701	Sololá	2	El tablón	10	Octubre	2023-03-10T00:00:00	2024-11-06T05:00:00	5	Humedad	88
181285	7	Sololá	701	Sololá	2	El tablón	10	Octubre	2023-03-10T00:00:00	2024-11-06T05:00:00	6	Velocidad del viento	6.4
181286	7	Sololá	701	Sololá	2	El tablón	10	Octubre	2023-03-10T00:00:00	2024-11-06T05:00:00	7	Dirección del viento	6.44
181287	7	Sololá	701	Sololá	2	El tablón	10	Octubre	2023-03-10T00:00:00	2024-11-06T05:00:00	1	Precipitación	0
181288	7	Sololá	701	Sololá	2	El tablón	10	Octubre	2023-03-10T00:00:00	2024-11-06T05:00:00	8	Radiación solar	0
181289	7	Sololá	701	Sololá	2	El tablón	10	Octubre	2023-03-10T00:00:00	2024-11-06T06:00:00	2	Temperatura media	13.1
181290	7	Sololá	701	Sololá	2	El tablón	10	Octubre	2023-03-10T00:00:00	2024-11-06T06:00:00	4	Temperatura máxima	13.1
181291	7	Sololá	701	Sololá	2	El tablón	10	Octubre	2023-03-10T00:00:00	2024-11-06T06:00:00	3	Temperatura mínima	13
181292	7	Sololá	701	Sololá	2	El tablón	10	Octubre	2023-03-10T00:00:00	2024-11-06T06:00:00	5	Humedad	88
181293	7	Sololá	701	Sololá	2	El tablón	10	Octubre	2023-03-10T00:00:00	2024-11-06T06:00:00	6	Velocidad del viento	8
181294	7	Sololá	701	Sololá	2	El tablón	10	Octubre	2023-03-10T00:00:00	2024-11-06T06:00:00	7	Dirección del viento	8.05
181295	7	Sololá	701	Sololá	2	El tablón	10	Octubre	2023-03-10T00:00:00	2024-11-06T06:00:00	1	Precipitación	0
181296	7	Sololá	701	Sololá	2	El tablón	10	Octubre	2023-03-10T00:00:00	2024-11-06T06:00:00	8	Radiación solar	1
181297	7	Sololá	701	Sololá	2	El tablón	10	Octubre	2023-03-10T00:00:00	2024-11-06T07:00:00	2	Temperatura media	14.4
181298	7	Sololá	701	Sololá	2	El tablón	10	Octubre	2023-03-10T00:00:00	2024-11-06T07:00:00	4	Temperatura máxima	14.4
181299	7	Sololá	701	Sololá	2	El tablón	10	Octubre	2023-03-10T00:00:00	2024-11-06T07:00:00	3	Temperatura mínima	13.1
181300	7	Sololá	701	Sololá	2	El tablón	10	Octubre	2023-03-10T00:00:00	2024-11-06T07:00:00	5	Humedad	87
181301	7	Sololá	701	Sololá	2	El tablón	10	Octubre	2023-03-10T00:00:00	2024-11-06T07:00:00	6	Velocidad del viento	6.4
181302	7	Sololá	701	Sololá	2	El tablón	10	Octubre	2023-03-10T00:00:00	2024-11-06T07:00:00	7	Dirección del viento	6.44
181303	7	Sololá	701	Sololá	2	El tablón	10	Octubre	2023-03-10T00:00:00	2024-11-06T07:00:00	1	Precipitación	0
181304	7	Sololá	701	Sololá	2	El tablón	10	Octubre	2023-03-10T00:00:00	2024-11-06T07:00:00	8	Radiación solar	58
181305	7	Sololá	701	Sololá	2	El tablón	10	Octubre	2023-03-10T00:00:00	2024-11-06T08:00:00	2	Temperatura media	16.7
181306	7	Sololá	701	Sololá	2	El tablón	10	Octubre	2023-03-10T00:00:00	2024-11-06T08:00:00	4	Temperatura máxima	16.7
181307	7	Sololá	701	Sololá	2	El tablón	10	Octubre	2023-03-10T00:00:00	2024-11-06T08:00:00	3	Temperatura mínima	14.4
181308	7	Sololá	701	Sololá	2	El tablón	10	Octubre	2023-03-10T00:00:00	2024-11-06T08:00:00	5	Humedad	82
181309	7	Sololá	701	Sololá	2	El tablón	10	Octubre	2023-03-10T00:00:00	2024-11-06T08:00:00	6	Velocidad del viento	6.4
181310	7	Sololá	701	Sololá	2	El tablón	10	Octubre	2023-03-10T00:00:00	2024-11-06T08:00:00	7	Dirección del viento	6.44
181311	7	Sololá	701	Sololá	2	El tablón	10	Octubre	2023-03-10T00:00:00	2024-11-06T08:00:00	1	Precipitación	0
181312	7	Sololá	701	Sololá	2	El tablón	10	Octubre	2023-03-10T00:00:00	2024-11-06T08:00:00	8	Radiación solar	217
181313	7	Sololá	701	Sololá	2	El tablón	10	Octubre	2023-03-10T00:00:00	2024-11-06T09:00:00	2	Temperatura media	17.8
181314	7	Sololá	701	Sololá	2	El tablón	10	Octubre	2023-03-10T00:00:00	2024-11-06T09:00:00	4	Temperatura máxima	17.9
181315	7	Sololá	701	Sololá	2	El tablón	10	Octubre	2023-03-10T00:00:00	2024-11-06T09:00:00	3	Temperatura mínima	16.7
181316	7	Sololá	701	Sololá	2	El tablón	10	Octubre	2023-03-10T00:00:00	2024-11-06T09:00:00	5	Humedad	78
181317	7	Sololá	701	Sololá	2	El tablón	10	Octubre	2023-03-10T00:00:00	2024-11-06T09:00:00	6	Velocidad del viento	6.4
181318	7	Sololá	701	Sololá	2	El tablón	10	Octubre	2023-03-10T00:00:00	2024-11-06T09:00:00	7	Dirección del viento	6.44
181319	7	Sololá	701	Sololá	2	El tablón	10	Octubre	2023-03-10T00:00:00	2024-11-06T09:00:00	1	Precipitación	0
181320	7	Sololá	701	Sololá	2	El tablón	10	Octubre	2023-03-10T00:00:00	2024-11-06T09:00:00	8	Radiación solar	432
181321	7	Sololá	701	Sololá	2	El tablón	10	Octubre	2023-03-10T00:00:00	2024-11-06T10:00:00	2	Temperatura media	17.7
181322	7	Sololá	701	Sololá	2	El tablón	10	Octubre	2023-03-10T00:00:00	2024-11-06T10:00:00	4	Temperatura máxima	18.3
181323	7	Sololá	701	Sololá	2	El tablón	10	Octubre	2023-03-10T00:00:00	2024-11-06T10:00:00	3	Temperatura mínima	17.6
181324	7	Sololá	701	Sololá	2	El tablón	10	Octubre	2023-03-10T00:00:00	2024-11-06T10:00:00	5	Humedad	76
181325	7	Sololá	701	Sololá	2	El tablón	10	Octubre	2023-03-10T00:00:00	2024-11-06T10:00:00	6	Velocidad del viento	4.8
181326	7	Sololá	701	Sololá	2	El tablón	10	Octubre	2023-03-10T00:00:00	2024-11-06T10:00:00	7	Dirección del viento	4.83
181327	7	Sololá	701	Sololá	2	El tablón	10	Octubre	2023-03-10T00:00:00	2024-11-06T10:00:00	1	Precipitación	0
181328	7	Sololá	701	Sololá	2	El tablón	10	Octubre	2023-03-10T00:00:00	2024-11-06T10:00:00	8	Radiación solar	414
181329	7	Sololá	701	Sololá	2	El tablón	10	Octubre	2023-03-10T00:00:00	2024-11-06T11:00:00	2	Temperatura media	18.7
181330	7	Sololá	701	Sololá	2	El tablón	10	Octubre	2023-03-10T00:00:00	2024-11-06T11:00:00	4	Temperatura máxima	19.3
181331	7	Sololá	701	Sololá	2	El tablón	10	Octubre	2023-03-10T00:00:00	2024-11-06T11:00:00	3	Temperatura mínima	17.7
181332	7	Sololá	701	Sololá	2	El tablón	10	Octubre	2023-03-10T00:00:00	2024-11-06T11:00:00	5	Humedad	79
181333	7	Sololá	701	Sololá	2	El tablón	10	Octubre	2023-03-10T00:00:00	2024-11-06T11:00:00	6	Velocidad del viento	6.4
181334	7	Sololá	701	Sololá	2	El tablón	10	Octubre	2023-03-10T00:00:00	2024-11-06T11:00:00	7	Dirección del viento	6.44
181335	7	Sololá	701	Sololá	2	El tablón	10	Octubre	2023-03-10T00:00:00	2024-11-06T11:00:00	1	Precipitación	0
181336	7	Sololá	701	Sololá	2	El tablón	10	Octubre	2023-03-10T00:00:00	2024-11-06T11:00:00	8	Radiación solar	484
181337	7	Sololá	701	Sololá	2	El tablón	10	Octubre	2023-03-10T00:00:00	2024-11-06T12:00:00	2	Temperatura media	17.7
181338	7	Sololá	701	Sololá	2	El tablón	10	Octubre	2023-03-10T00:00:00	2024-11-06T12:00:00	4	Temperatura máxima	18.7
181339	7	Sololá	701	Sololá	2	El tablón	10	Octubre	2023-03-10T00:00:00	2024-11-06T12:00:00	3	Temperatura mínima	17.3
181340	7	Sololá	701	Sololá	2	El tablón	10	Octubre	2023-03-10T00:00:00	2024-11-06T12:00:00	5	Humedad	84
181341	7	Sololá	701	Sololá	2	El tablón	10	Octubre	2023-03-10T00:00:00	2024-11-06T12:00:00	6	Velocidad del viento	4.8
181342	7	Sololá	701	Sololá	2	El tablón	10	Octubre	2023-03-10T00:00:00	2024-11-06T12:00:00	7	Dirección del viento	4.83
181343	7	Sololá	701	Sololá	2	El tablón	10	Octubre	2023-03-10T00:00:00	2024-11-06T12:00:00	1	Precipitación	0
181344	7	Sololá	701	Sololá	2	El tablón	10	Octubre	2023-03-10T00:00:00	2024-11-06T12:00:00	8	Radiación solar	391
181345	7	Sololá	701	Sololá	2	El tablón	10	Octubre	2023-03-10T00:00:00	2024-11-06T13:00:00	2	Temperatura media	19.3
181346	7	Sololá	701	Sololá	2	El tablón	10	Octubre	2023-03-10T00:00:00	2024-11-06T13:00:00	4	Temperatura máxima	19.3
181347	7	Sololá	701	Sololá	2	El tablón	10	Octubre	2023-03-10T00:00:00	2024-11-06T13:00:00	3	Temperatura mínima	17.6
181348	7	Sololá	701	Sololá	2	El tablón	10	Octubre	2023-03-10T00:00:00	2024-11-06T13:00:00	5	Humedad	81
181349	7	Sololá	701	Sololá	2	El tablón	10	Octubre	2023-03-10T00:00:00	2024-11-06T13:00:00	6	Velocidad del viento	4.8
181350	7	Sololá	701	Sololá	2	El tablón	10	Octubre	2023-03-10T00:00:00	2024-11-06T13:00:00	7	Dirección del viento	4.83
181351	7	Sololá	701	Sololá	2	El tablón	10	Octubre	2023-03-10T00:00:00	2024-11-06T13:00:00	1	Precipitación	0
181352	7	Sololá	701	Sololá	2	El tablón	10	Octubre	2023-03-10T00:00:00	2024-11-06T13:00:00	8	Radiación solar	581
181353	7	Sololá	701	Sololá	2	El tablón	10	Octubre	2023-03-10T00:00:00	2024-11-06T14:00:00	2	Temperatura media	18.1
181354	7	Sololá	701	Sololá	2	El tablón	10	Octubre	2023-03-10T00:00:00	2024-11-06T14:00:00	4	Temperatura máxima	20.3
181355	7	Sololá	701	Sololá	2	El tablón	10	Octubre	2023-03-10T00:00:00	2024-11-06T14:00:00	3	Temperatura mínima	18.1
181356	7	Sololá	701	Sololá	2	El tablón	10	Octubre	2023-03-10T00:00:00	2024-11-06T14:00:00	5	Humedad	86
181357	7	Sololá	701	Sololá	2	El tablón	10	Octubre	2023-03-10T00:00:00	2024-11-06T14:00:00	6	Velocidad del viento	8
181358	7	Sololá	701	Sololá	2	El tablón	10	Octubre	2023-03-10T00:00:00	2024-11-06T14:00:00	7	Dirección del viento	8.05
181359	7	Sololá	701	Sololá	2	El tablón	10	Octubre	2023-03-10T00:00:00	2024-11-06T14:00:00	1	Precipitación	0
181360	7	Sololá	701	Sololá	2	El tablón	10	Octubre	2023-03-10T00:00:00	2024-11-06T14:00:00	8	Radiación solar	502
181361	7	Sololá	701	Sololá	2	El tablón	10	Octubre	2023-03-10T00:00:00	2024-11-06T15:00:00	2	Temperatura media	16.8
181362	7	Sololá	701	Sololá	2	El tablón	10	Octubre	2023-03-10T00:00:00	2024-11-06T15:00:00	4	Temperatura máxima	19
181363	7	Sololá	701	Sololá	2	El tablón	10	Octubre	2023-03-10T00:00:00	2024-11-06T15:00:00	3	Temperatura mínima	16.7
181364	7	Sololá	701	Sololá	2	El tablón	10	Octubre	2023-03-10T00:00:00	2024-11-06T15:00:00	5	Humedad	88
181365	7	Sololá	701	Sololá	2	El tablón	10	Octubre	2023-03-10T00:00:00	2024-11-06T15:00:00	6	Velocidad del viento	8
181366	7	Sololá	701	Sololá	2	El tablón	10	Octubre	2023-03-10T00:00:00	2024-11-06T15:00:00	7	Dirección del viento	8.05
181367	7	Sololá	701	Sololá	2	El tablón	10	Octubre	2023-03-10T00:00:00	2024-11-06T15:00:00	1	Precipitación	0
181368	7	Sololá	701	Sololá	2	El tablón	10	Octubre	2023-03-10T00:00:00	2024-11-06T15:00:00	8	Radiación solar	385
181369	7	Sololá	701	Sololá	2	El tablón	10	Octubre	2023-03-10T00:00:00	2024-11-06T16:00:00	2	Temperatura media	15.9
181370	7	Sololá	701	Sololá	2	El tablón	10	Octubre	2023-03-10T00:00:00	2024-11-06T16:00:00	4	Temperatura máxima	17.5
181371	7	Sololá	701	Sololá	2	El tablón	10	Octubre	2023-03-10T00:00:00	2024-11-06T16:00:00	3	Temperatura mínima	15.9
181372	7	Sololá	701	Sololá	2	El tablón	10	Octubre	2023-03-10T00:00:00	2024-11-06T16:00:00	5	Humedad	88
181373	7	Sololá	701	Sololá	2	El tablón	10	Octubre	2023-03-10T00:00:00	2024-11-06T16:00:00	6	Velocidad del viento	6.4
181374	7	Sololá	701	Sololá	2	El tablón	10	Octubre	2023-03-10T00:00:00	2024-11-06T16:00:00	7	Dirección del viento	6.44
181375	7	Sololá	701	Sololá	2	El tablón	10	Octubre	2023-03-10T00:00:00	2024-11-06T16:00:00	1	Precipitación	0
181376	7	Sololá	701	Sololá	2	El tablón	10	Octubre	2023-03-10T00:00:00	2024-11-06T16:00:00	8	Radiación solar	246
181377	7	Sololá	701	Sololá	2	El tablón	10	Octubre	2023-03-10T00:00:00	2024-11-06T17:00:00	2	Temperatura media	14.7
181378	7	Sololá	701	Sololá	2	El tablón	10	Octubre	2023-03-10T00:00:00	2024-11-06T17:00:00	4	Temperatura máxima	15.9
181379	7	Sololá	701	Sololá	2	El tablón	10	Octubre	2023-03-10T00:00:00	2024-11-06T17:00:00	3	Temperatura mínima	14.7
181380	7	Sololá	701	Sololá	2	El tablón	10	Octubre	2023-03-10T00:00:00	2024-11-06T17:00:00	5	Humedad	86
181381	7	Sololá	701	Sololá	2	El tablón	10	Octubre	2023-03-10T00:00:00	2024-11-06T17:00:00	6	Velocidad del viento	4.8
181382	7	Sololá	701	Sololá	2	El tablón	10	Octubre	2023-03-10T00:00:00	2024-11-06T17:00:00	7	Dirección del viento	4.83
181383	7	Sololá	701	Sololá	2	El tablón	10	Octubre	2023-03-10T00:00:00	2024-11-06T17:00:00	1	Precipitación	0
181384	7	Sololá	701	Sololá	2	El tablón	10	Octubre	2023-03-10T00:00:00	2024-11-06T17:00:00	8	Radiación solar	31
181385	7	Sololá	701	Sololá	2	El tablón	10	Octubre	2023-03-10T00:00:00	2024-11-06T18:00:00	2	Temperatura media	14.3
181386	7	Sololá	701	Sololá	2	El tablón	10	Octubre	2023-03-10T00:00:00	2024-11-06T18:00:00	4	Temperatura máxima	14.7
181387	7	Sololá	701	Sololá	2	El tablón	10	Octubre	2023-03-10T00:00:00	2024-11-06T18:00:00	3	Temperatura mínima	14.3
181388	7	Sololá	701	Sololá	2	El tablón	10	Octubre	2023-03-10T00:00:00	2024-11-06T18:00:00	5	Humedad	85
181389	7	Sololá	701	Sololá	2	El tablón	10	Octubre	2023-03-10T00:00:00	2024-11-06T18:00:00	6	Velocidad del viento	3.2
181390	7	Sololá	701	Sololá	2	El tablón	10	Octubre	2023-03-10T00:00:00	2024-11-06T18:00:00	7	Dirección del viento	3.22
181391	7	Sololá	701	Sololá	2	El tablón	10	Octubre	2023-03-10T00:00:00	2024-11-06T18:00:00	1	Precipitación	0
181392	7	Sololá	701	Sololá	2	El tablón	10	Octubre	2023-03-10T00:00:00	2024-11-06T18:00:00	8	Radiación solar	15
181393	7	Sololá	701	Sololá	2	El tablón	10	Octubre	2023-03-10T00:00:00	2024-11-06T19:00:00	2	Temperatura media	14
181394	7	Sololá	701	Sololá	2	El tablón	10	Octubre	2023-03-10T00:00:00	2024-11-06T19:00:00	4	Temperatura máxima	14.3
181395	7	Sololá	701	Sololá	2	El tablón	10	Octubre	2023-03-10T00:00:00	2024-11-06T19:00:00	3	Temperatura mínima	13.9
181396	7	Sololá	701	Sololá	2	El tablón	10	Octubre	2023-03-10T00:00:00	2024-11-06T19:00:00	5	Humedad	85
181397	7	Sololá	701	Sololá	2	El tablón	10	Octubre	2023-03-10T00:00:00	2024-11-06T19:00:00	6	Velocidad del viento	0
181398	7	Sololá	701	Sololá	2	El tablón	10	Octubre	2023-03-10T00:00:00	2024-11-06T19:00:00	7	Dirección del viento	0
181399	7	Sololá	701	Sololá	2	El tablón	10	Octubre	2023-03-10T00:00:00	2024-11-06T19:00:00	1	Precipitación	0
181400	7	Sololá	701	Sololá	2	El tablón	10	Octubre	2023-03-10T00:00:00	2024-11-06T19:00:00	8	Radiación solar	0
181401	7	Sololá	701	Sololá	2	El tablón	10	Octubre	2023-03-10T00:00:00	2024-11-06T20:00:00	2	Temperatura media	14.1
181402	7	Sololá	701	Sololá	2	El tablón	10	Octubre	2023-03-10T00:00:00	2024-11-06T20:00:00	4	Temperatura máxima	14.1
181403	7	Sololá	701	Sololá	2	El tablón	10	Octubre	2023-03-10T00:00:00	2024-11-06T20:00:00	3	Temperatura mínima	13.8
181404	7	Sololá	701	Sololá	2	El tablón	10	Octubre	2023-03-10T00:00:00	2024-11-06T20:00:00	5	Humedad	85
181405	7	Sololá	701	Sololá	2	El tablón	10	Octubre	2023-03-10T00:00:00	2024-11-06T20:00:00	6	Velocidad del viento	0
181406	7	Sololá	701	Sololá	2	El tablón	10	Octubre	2023-03-10T00:00:00	2024-11-06T20:00:00	7	Dirección del viento	0
181407	7	Sololá	701	Sololá	2	El tablón	10	Octubre	2023-03-10T00:00:00	2024-11-06T20:00:00	1	Precipitación	0
181408	7	Sololá	701	Sololá	2	El tablón	10	Octubre	2023-03-10T00:00:00	2024-11-06T20:00:00	8	Radiación solar	0
181409	7	Sololá	701	Sololá	2	El tablón	10	Octubre	2023-03-10T00:00:00	2024-11-06T21:00:00	2	Temperatura media	13.7
181410	7	Sololá	701	Sololá	2	El tablón	10	Octubre	2023-03-10T00:00:00	2024-11-06T21:00:00	4	Temperatura máxima	14.2
181411	7	Sololá	701	Sololá	2	El tablón	10	Octubre	2023-03-10T00:00:00	2024-11-06T21:00:00	3	Temperatura mínima	13.6
181412	7	Sololá	701	Sololá	2	El tablón	10	Octubre	2023-03-10T00:00:00	2024-11-06T21:00:00	5	Humedad	88
181413	7	Sololá	701	Sololá	2	El tablón	10	Octubre	2023-03-10T00:00:00	2024-11-06T21:00:00	6	Velocidad del viento	3.2
181414	7	Sololá	701	Sololá	2	El tablón	10	Octubre	2023-03-10T00:00:00	2024-11-06T21:00:00	7	Dirección del viento	3.22
181415	7	Sololá	701	Sololá	2	El tablón	10	Octubre	2023-03-10T00:00:00	2024-11-06T21:00:00	1	Precipitación	3.8
181416	7	Sololá	701	Sololá	2	El tablón	10	Octubre	2023-03-10T00:00:00	2024-11-06T21:00:00	8	Radiación solar	0
181417	7	Sololá	701	Sololá	2	El tablón	10	Octubre	2023-03-10T00:00:00	2024-11-06T22:00:00	2	Temperatura media	13.4
181418	7	Sololá	701	Sololá	2	El tablón	10	Octubre	2023-03-10T00:00:00	2024-11-06T22:00:00	4	Temperatura máxima	13.8
181419	7	Sololá	701	Sololá	2	El tablón	10	Octubre	2023-03-10T00:00:00	2024-11-06T22:00:00	3	Temperatura mínima	13.4
181420	7	Sololá	701	Sololá	2	El tablón	10	Octubre	2023-03-10T00:00:00	2024-11-06T22:00:00	5	Humedad	87
181421	7	Sololá	701	Sololá	2	El tablón	10	Octubre	2023-03-10T00:00:00	2024-11-06T22:00:00	6	Velocidad del viento	1.6
181422	7	Sololá	701	Sololá	2	El tablón	10	Octubre	2023-03-10T00:00:00	2024-11-06T22:00:00	7	Dirección del viento	1.61
181423	7	Sololá	701	Sololá	2	El tablón	10	Octubre	2023-03-10T00:00:00	2024-11-06T22:00:00	1	Precipitación	3.8
181424	7	Sololá	701	Sololá	2	El tablón	10	Octubre	2023-03-10T00:00:00	2024-11-06T22:00:00	8	Radiación solar	0
181425	7	Sololá	701	Sololá	2	El tablón	10	Octubre	2023-03-10T00:00:00	2024-11-06T23:00:00	2	Temperatura media	13.3
181426	7	Sololá	701	Sololá	2	El tablón	10	Octubre	2023-03-10T00:00:00	2024-11-06T23:00:00	4	Temperatura máxima	13.5
181427	7	Sololá	701	Sololá	2	El tablón	10	Octubre	2023-03-10T00:00:00	2024-11-06T23:00:00	3	Temperatura mínima	13.3
181428	7	Sololá	701	Sololá	2	El tablón	10	Octubre	2023-03-10T00:00:00	2024-11-06T23:00:00	5	Humedad	88
181429	7	Sololá	701	Sololá	2	El tablón	10	Octubre	2023-03-10T00:00:00	2024-11-06T23:00:00	6	Velocidad del viento	3.2
181430	7	Sololá	701	Sololá	2	El tablón	10	Octubre	2023-03-10T00:00:00	2024-11-06T23:00:00	7	Dirección del viento	3.22
181431	7	Sololá	701	Sololá	2	El tablón	10	Octubre	2023-03-10T00:00:00	2024-11-06T23:00:00	1	Precipitación	1.4
181432	7	Sololá	701	Sololá	2	El tablón	10	Octubre	2023-03-10T00:00:00	2024-11-06T23:00:00	8	Radiación solar	0
181433	7	Sololá	701	Sololá	2	El tablón	10	Octubre	2023-04-10T00:00:00	2024-11-06T00:00:00	2	Temperatura media	13.3
181434	7	Sololá	701	Sololá	2	El tablón	10	Octubre	2023-04-10T00:00:00	2024-11-06T00:00:00	4	Temperatura máxima	13.4
181435	7	Sololá	701	Sololá	2	El tablón	10	Octubre	2023-04-10T00:00:00	2024-11-06T00:00:00	3	Temperatura mínima	13.2
181436	7	Sololá	701	Sololá	2	El tablón	10	Octubre	2023-04-10T00:00:00	2024-11-06T00:00:00	5	Humedad	88
181437	7	Sololá	701	Sololá	2	El tablón	10	Octubre	2023-04-10T00:00:00	2024-11-06T00:00:00	6	Velocidad del viento	3.2
181438	7	Sololá	701	Sololá	2	El tablón	10	Octubre	2023-04-10T00:00:00	2024-11-06T00:00:00	7	Dirección del viento	3.22
181439	7	Sololá	701	Sololá	2	El tablón	10	Octubre	2023-04-10T00:00:00	2024-11-06T00:00:00	1	Precipitación	0
181440	7	Sololá	701	Sololá	2	El tablón	10	Octubre	2023-04-10T00:00:00	2024-11-06T00:00:00	8	Radiación solar	0
181441	7	Sololá	701	Sololá	2	El tablón	10	Octubre	2023-04-10T00:00:00	2024-11-06T01:00:00	2	Temperatura media	13.1
181442	7	Sololá	701	Sololá	2	El tablón	10	Octubre	2023-04-10T00:00:00	2024-11-06T01:00:00	4	Temperatura máxima	13.3
181443	7	Sololá	701	Sololá	2	El tablón	10	Octubre	2023-04-10T00:00:00	2024-11-06T01:00:00	3	Temperatura mínima	13.1
181444	7	Sololá	701	Sololá	2	El tablón	10	Octubre	2023-04-10T00:00:00	2024-11-06T01:00:00	5	Humedad	88
181445	7	Sololá	701	Sololá	2	El tablón	10	Octubre	2023-04-10T00:00:00	2024-11-06T01:00:00	6	Velocidad del viento	4.8
181446	7	Sololá	701	Sololá	2	El tablón	10	Octubre	2023-04-10T00:00:00	2024-11-06T01:00:00	7	Dirección del viento	4.83
181447	7	Sololá	701	Sololá	2	El tablón	10	Octubre	2023-04-10T00:00:00	2024-11-06T01:00:00	1	Precipitación	0
181448	7	Sololá	701	Sololá	2	El tablón	10	Octubre	2023-04-10T00:00:00	2024-11-06T01:00:00	8	Radiación solar	0
181449	7	Sololá	701	Sololá	2	El tablón	10	Octubre	2023-04-10T00:00:00	2024-11-06T02:00:00	2	Temperatura media	13.3
181450	7	Sololá	701	Sololá	2	El tablón	10	Octubre	2023-04-10T00:00:00	2024-11-06T02:00:00	4	Temperatura máxima	13.3
181451	7	Sololá	701	Sololá	2	El tablón	10	Octubre	2023-04-10T00:00:00	2024-11-06T02:00:00	3	Temperatura mínima	13.1
181452	7	Sololá	701	Sololá	2	El tablón	10	Octubre	2023-04-10T00:00:00	2024-11-06T02:00:00	5	Humedad	89
181453	7	Sololá	701	Sololá	2	El tablón	10	Octubre	2023-04-10T00:00:00	2024-11-06T02:00:00	6	Velocidad del viento	4.8
181454	7	Sololá	701	Sololá	2	El tablón	10	Octubre	2023-04-10T00:00:00	2024-11-06T02:00:00	7	Dirección del viento	4.83
181455	7	Sololá	701	Sololá	2	El tablón	10	Octubre	2023-04-10T00:00:00	2024-11-06T02:00:00	1	Precipitación	0
181456	7	Sololá	701	Sololá	2	El tablón	10	Octubre	2023-04-10T00:00:00	2024-11-06T02:00:00	8	Radiación solar	0
181457	7	Sololá	701	Sololá	2	El tablón	10	Octubre	2023-04-10T00:00:00	2024-11-06T03:00:00	2	Temperatura media	13
181458	7	Sololá	701	Sololá	2	El tablón	10	Octubre	2023-04-10T00:00:00	2024-11-06T03:00:00	4	Temperatura máxima	13.3
181459	7	Sololá	701	Sololá	2	El tablón	10	Octubre	2023-04-10T00:00:00	2024-11-06T03:00:00	3	Temperatura mínima	13
181460	7	Sololá	701	Sololá	2	El tablón	10	Octubre	2023-04-10T00:00:00	2024-11-06T03:00:00	5	Humedad	89
181461	7	Sololá	701	Sololá	2	El tablón	10	Octubre	2023-04-10T00:00:00	2024-11-06T03:00:00	6	Velocidad del viento	3.2
181462	7	Sololá	701	Sololá	2	El tablón	10	Octubre	2023-04-10T00:00:00	2024-11-06T03:00:00	7	Dirección del viento	3.22
181463	7	Sololá	701	Sololá	2	El tablón	10	Octubre	2023-04-10T00:00:00	2024-11-06T03:00:00	1	Precipitación	0
181464	7	Sololá	701	Sololá	2	El tablón	10	Octubre	2023-04-10T00:00:00	2024-11-06T03:00:00	8	Radiación solar	0
181465	7	Sololá	701	Sololá	2	El tablón	10	Octubre	2023-04-10T00:00:00	2024-11-06T04:00:00	2	Temperatura media	12.6
181466	7	Sololá	701	Sololá	2	El tablón	10	Octubre	2023-04-10T00:00:00	2024-11-06T04:00:00	4	Temperatura máxima	13
181467	7	Sololá	701	Sololá	2	El tablón	10	Octubre	2023-04-10T00:00:00	2024-11-06T04:00:00	3	Temperatura mínima	12.4
181468	7	Sololá	701	Sololá	2	El tablón	10	Octubre	2023-04-10T00:00:00	2024-11-06T04:00:00	5	Humedad	89
181469	7	Sololá	701	Sololá	2	El tablón	10	Octubre	2023-04-10T00:00:00	2024-11-06T04:00:00	6	Velocidad del viento	1.6
181470	7	Sololá	701	Sololá	2	El tablón	10	Octubre	2023-04-10T00:00:00	2024-11-06T04:00:00	7	Dirección del viento	1.61
181471	7	Sololá	701	Sololá	2	El tablón	10	Octubre	2023-04-10T00:00:00	2024-11-06T04:00:00	1	Precipitación	0
181472	7	Sololá	701	Sololá	2	El tablón	10	Octubre	2023-04-10T00:00:00	2024-11-06T04:00:00	8	Radiación solar	0
181473	7	Sololá	701	Sololá	2	El tablón	10	Octubre	2023-04-10T00:00:00	2024-11-06T05:00:00	2	Temperatura media	12.9
181474	7	Sololá	701	Sololá	2	El tablón	10	Octubre	2023-04-10T00:00:00	2024-11-06T05:00:00	4	Temperatura máxima	12.9
181475	7	Sololá	701	Sololá	2	El tablón	10	Octubre	2023-04-10T00:00:00	2024-11-06T05:00:00	3	Temperatura mínima	12.6
181476	7	Sololá	701	Sololá	2	El tablón	10	Octubre	2023-04-10T00:00:00	2024-11-06T05:00:00	5	Humedad	89
181477	7	Sololá	701	Sololá	2	El tablón	10	Octubre	2023-04-10T00:00:00	2024-11-06T05:00:00	6	Velocidad del viento	3.2
181478	7	Sololá	701	Sololá	2	El tablón	10	Octubre	2023-04-10T00:00:00	2024-11-06T05:00:00	7	Dirección del viento	3.22
181479	7	Sololá	701	Sololá	2	El tablón	10	Octubre	2023-04-10T00:00:00	2024-11-06T05:00:00	1	Precipitación	0
181480	7	Sololá	701	Sololá	2	El tablón	10	Octubre	2023-04-10T00:00:00	2024-11-06T05:00:00	8	Radiación solar	0
181481	7	Sololá	701	Sololá	2	El tablón	10	Octubre	2023-04-10T00:00:00	2024-11-06T06:00:00	2	Temperatura media	12.4
181482	7	Sololá	701	Sololá	2	El tablón	10	Octubre	2023-04-10T00:00:00	2024-11-06T06:00:00	4	Temperatura máxima	13.1
181483	7	Sololá	701	Sololá	2	El tablón	10	Octubre	2023-04-10T00:00:00	2024-11-06T06:00:00	3	Temperatura mínima	12.4
181484	7	Sololá	701	Sololá	2	El tablón	10	Octubre	2023-04-10T00:00:00	2024-11-06T06:00:00	5	Humedad	88
181485	7	Sololá	701	Sololá	2	El tablón	10	Octubre	2023-04-10T00:00:00	2024-11-06T06:00:00	6	Velocidad del viento	1.6
181486	7	Sololá	701	Sololá	2	El tablón	10	Octubre	2023-04-10T00:00:00	2024-11-06T06:00:00	7	Dirección del viento	1.61
181487	7	Sololá	701	Sololá	2	El tablón	10	Octubre	2023-04-10T00:00:00	2024-11-06T06:00:00	1	Precipitación	0
181488	7	Sololá	701	Sololá	2	El tablón	10	Octubre	2023-04-10T00:00:00	2024-11-06T06:00:00	8	Radiación solar	0
181489	7	Sololá	701	Sololá	2	El tablón	10	Octubre	2023-04-10T00:00:00	2024-11-06T07:00:00	2	Temperatura media	14.4
181490	7	Sololá	701	Sololá	2	El tablón	10	Octubre	2023-04-10T00:00:00	2024-11-06T07:00:00	4	Temperatura máxima	14.4
181491	7	Sololá	701	Sololá	2	El tablón	10	Octubre	2023-04-10T00:00:00	2024-11-06T07:00:00	3	Temperatura mínima	12.3
181492	7	Sololá	701	Sololá	2	El tablón	10	Octubre	2023-04-10T00:00:00	2024-11-06T07:00:00	5	Humedad	88
181493	7	Sololá	701	Sololá	2	El tablón	10	Octubre	2023-04-10T00:00:00	2024-11-06T07:00:00	6	Velocidad del viento	1.6
181494	7	Sololá	701	Sololá	2	El tablón	10	Octubre	2023-04-10T00:00:00	2024-11-06T07:00:00	7	Dirección del viento	1.61
181495	7	Sololá	701	Sololá	2	El tablón	10	Octubre	2023-04-10T00:00:00	2024-11-06T07:00:00	1	Precipitación	0
181496	7	Sololá	701	Sololá	2	El tablón	10	Octubre	2023-04-10T00:00:00	2024-11-06T07:00:00	8	Radiación solar	61
181497	7	Sololá	701	Sololá	2	El tablón	10	Octubre	2023-04-10T00:00:00	2024-11-06T08:00:00	2	Temperatura media	16.7
181498	7	Sololá	701	Sololá	2	El tablón	10	Octubre	2023-04-10T00:00:00	2024-11-06T08:00:00	4	Temperatura máxima	16.7
181499	7	Sololá	701	Sololá	2	El tablón	10	Octubre	2023-04-10T00:00:00	2024-11-06T08:00:00	3	Temperatura mínima	14.4
181500	7	Sololá	701	Sololá	2	El tablón	10	Octubre	2023-04-10T00:00:00	2024-11-06T08:00:00	5	Humedad	83
181501	7	Sololá	701	Sololá	2	El tablón	10	Octubre	2023-04-10T00:00:00	2024-11-06T08:00:00	6	Velocidad del viento	4.8
181502	7	Sololá	701	Sololá	2	El tablón	10	Octubre	2023-04-10T00:00:00	2024-11-06T08:00:00	7	Dirección del viento	4.83
181503	7	Sololá	701	Sololá	2	El tablón	10	Octubre	2023-04-10T00:00:00	2024-11-06T08:00:00	1	Precipitación	0
181504	7	Sololá	701	Sololá	2	El tablón	10	Octubre	2023-04-10T00:00:00	2024-11-06T08:00:00	8	Radiación solar	220
181505	7	Sololá	701	Sololá	2	El tablón	10	Octubre	2023-04-10T00:00:00	2024-11-06T09:00:00	2	Temperatura media	17.2
181506	7	Sololá	701	Sololá	2	El tablón	10	Octubre	2023-04-10T00:00:00	2024-11-06T09:00:00	4	Temperatura máxima	17.4
181507	7	Sololá	701	Sololá	2	El tablón	10	Octubre	2023-04-10T00:00:00	2024-11-06T09:00:00	3	Temperatura mínima	16.7
181508	7	Sololá	701	Sololá	2	El tablón	10	Octubre	2023-04-10T00:00:00	2024-11-06T09:00:00	5	Humedad	81
181509	7	Sololá	701	Sololá	2	El tablón	10	Octubre	2023-04-10T00:00:00	2024-11-06T09:00:00	6	Velocidad del viento	8
181510	7	Sololá	701	Sololá	2	El tablón	10	Octubre	2023-04-10T00:00:00	2024-11-06T09:00:00	7	Dirección del viento	8.05
181511	7	Sololá	701	Sololá	2	El tablón	10	Octubre	2023-04-10T00:00:00	2024-11-06T09:00:00	1	Precipitación	0.2
181512	7	Sololá	701	Sololá	2	El tablón	10	Octubre	2023-04-10T00:00:00	2024-11-06T09:00:00	8	Radiación solar	426
181513	7	Sololá	701	Sololá	2	El tablón	10	Octubre	2023-04-10T00:00:00	2024-11-06T10:00:00	2	Temperatura media	18.9
181514	7	Sololá	701	Sololá	2	El tablón	10	Octubre	2023-04-10T00:00:00	2024-11-06T10:00:00	4	Temperatura máxima	18.9
181515	7	Sololá	701	Sololá	2	El tablón	10	Octubre	2023-04-10T00:00:00	2024-11-06T10:00:00	3	Temperatura mínima	17.1
181516	7	Sololá	701	Sololá	2	El tablón	10	Octubre	2023-04-10T00:00:00	2024-11-06T10:00:00	5	Humedad	75
181517	7	Sololá	701	Sololá	2	El tablón	10	Octubre	2023-04-10T00:00:00	2024-11-06T10:00:00	6	Velocidad del viento	9.7
181518	7	Sololá	701	Sololá	2	El tablón	10	Octubre	2023-04-10T00:00:00	2024-11-06T10:00:00	7	Dirección del viento	9.66
181519	7	Sololá	701	Sololá	2	El tablón	10	Octubre	2023-04-10T00:00:00	2024-11-06T10:00:00	1	Precipitación	0
181520	7	Sololá	701	Sololá	2	El tablón	10	Octubre	2023-04-10T00:00:00	2024-11-06T10:00:00	8	Radiación solar	697
181521	7	Sololá	701	Sololá	2	El tablón	10	Octubre	2023-04-10T00:00:00	2024-11-06T11:00:00	2	Temperatura media	20.2
181522	7	Sololá	701	Sololá	2	El tablón	10	Octubre	2023-04-10T00:00:00	2024-11-06T11:00:00	4	Temperatura máxima	20.4
181523	7	Sololá	701	Sololá	2	El tablón	10	Octubre	2023-04-10T00:00:00	2024-11-06T11:00:00	3	Temperatura mínima	18.9
181524	7	Sololá	701	Sololá	2	El tablón	10	Octubre	2023-04-10T00:00:00	2024-11-06T11:00:00	5	Humedad	71
181525	7	Sololá	701	Sololá	2	El tablón	10	Octubre	2023-04-10T00:00:00	2024-11-06T11:00:00	6	Velocidad del viento	6.4
181526	7	Sololá	701	Sololá	2	El tablón	10	Octubre	2023-04-10T00:00:00	2024-11-06T11:00:00	7	Dirección del viento	6.44
181527	7	Sololá	701	Sololá	2	El tablón	10	Octubre	2023-04-10T00:00:00	2024-11-06T11:00:00	1	Precipitación	0
181528	7	Sololá	701	Sololá	2	El tablón	10	Octubre	2023-04-10T00:00:00	2024-11-06T11:00:00	8	Radiación solar	849
181529	7	Sololá	701	Sololá	2	El tablón	10	Octubre	2023-04-10T00:00:00	2024-11-06T12:00:00	2	Temperatura media	19.3
181530	7	Sololá	701	Sololá	2	El tablón	10	Octubre	2023-04-10T00:00:00	2024-11-06T12:00:00	4	Temperatura máxima	20.7
181531	7	Sololá	701	Sololá	2	El tablón	10	Octubre	2023-04-10T00:00:00	2024-11-06T12:00:00	3	Temperatura mínima	18.9
181532	7	Sololá	701	Sololá	2	El tablón	10	Octubre	2023-04-10T00:00:00	2024-11-06T12:00:00	5	Humedad	83
181533	7	Sololá	701	Sololá	2	El tablón	10	Octubre	2023-04-10T00:00:00	2024-11-06T12:00:00	6	Velocidad del viento	6.4
181534	7	Sololá	701	Sololá	2	El tablón	10	Octubre	2023-04-10T00:00:00	2024-11-06T12:00:00	7	Dirección del viento	6.44
181535	7	Sololá	701	Sololá	2	El tablón	10	Octubre	2023-04-10T00:00:00	2024-11-06T12:00:00	1	Precipitación	0
181536	7	Sololá	701	Sololá	2	El tablón	10	Octubre	2023-04-10T00:00:00	2024-11-06T12:00:00	8	Radiación solar	421
181537	7	Sololá	701	Sololá	2	El tablón	10	Octubre	2023-04-10T00:00:00	2024-11-06T13:00:00	2	Temperatura media	17.1
181538	7	Sololá	701	Sololá	2	El tablón	10	Octubre	2023-04-10T00:00:00	2024-11-06T13:00:00	4	Temperatura máxima	19.3
181539	7	Sololá	701	Sololá	2	El tablón	10	Octubre	2023-04-10T00:00:00	2024-11-06T13:00:00	3	Temperatura mínima	17.1
181540	7	Sololá	701	Sololá	2	El tablón	10	Octubre	2023-04-10T00:00:00	2024-11-06T13:00:00	5	Humedad	88
181541	7	Sololá	701	Sololá	2	El tablón	10	Octubre	2023-04-10T00:00:00	2024-11-06T13:00:00	6	Velocidad del viento	6.4
181542	7	Sololá	701	Sololá	2	El tablón	10	Octubre	2023-04-10T00:00:00	2024-11-06T13:00:00	7	Dirección del viento	6.44
181543	7	Sololá	701	Sololá	2	El tablón	10	Octubre	2023-04-10T00:00:00	2024-11-06T13:00:00	1	Precipitación	0.2
181544	7	Sololá	701	Sololá	2	El tablón	10	Octubre	2023-04-10T00:00:00	2024-11-06T13:00:00	8	Radiación solar	287
181545	7	Sololá	701	Sololá	2	El tablón	10	Octubre	2023-04-10T00:00:00	2024-11-06T14:00:00	2	Temperatura media	16.8
181546	7	Sololá	701	Sololá	2	El tablón	10	Octubre	2023-04-10T00:00:00	2024-11-06T14:00:00	4	Temperatura máxima	17.1
181547	7	Sololá	701	Sololá	2	El tablón	10	Octubre	2023-04-10T00:00:00	2024-11-06T14:00:00	3	Temperatura mínima	16.6
181548	7	Sololá	701	Sololá	2	El tablón	10	Octubre	2023-04-10T00:00:00	2024-11-06T14:00:00	5	Humedad	87
181549	7	Sololá	701	Sololá	2	El tablón	10	Octubre	2023-04-10T00:00:00	2024-11-06T14:00:00	6	Velocidad del viento	1.6
181550	7	Sololá	701	Sololá	2	El tablón	10	Octubre	2023-04-10T00:00:00	2024-11-06T14:00:00	7	Dirección del viento	1.61
181551	7	Sololá	701	Sololá	2	El tablón	10	Octubre	2023-04-10T00:00:00	2024-11-06T14:00:00	1	Precipitación	4.6
181552	7	Sololá	701	Sololá	2	El tablón	10	Octubre	2023-04-10T00:00:00	2024-11-06T14:00:00	8	Radiación solar	187
181553	7	Sololá	701	Sololá	2	El tablón	10	Octubre	2023-04-10T00:00:00	2024-11-06T15:00:00	2	Temperatura media	15.8
181554	7	Sololá	701	Sololá	2	El tablón	10	Octubre	2023-04-10T00:00:00	2024-11-06T15:00:00	4	Temperatura máxima	16.8
181555	7	Sololá	701	Sololá	2	El tablón	10	Octubre	2023-04-10T00:00:00	2024-11-06T15:00:00	3	Temperatura mínima	15.7
181556	7	Sololá	701	Sololá	2	El tablón	10	Octubre	2023-04-10T00:00:00	2024-11-06T15:00:00	5	Humedad	86
181557	7	Sololá	701	Sololá	2	El tablón	10	Octubre	2023-04-10T00:00:00	2024-11-06T15:00:00	6	Velocidad del viento	4.8
181558	7	Sololá	701	Sololá	2	El tablón	10	Octubre	2023-04-10T00:00:00	2024-11-06T15:00:00	7	Dirección del viento	4.83
181559	7	Sololá	701	Sololá	2	El tablón	10	Octubre	2023-04-10T00:00:00	2024-11-06T15:00:00	1	Precipitación	4.8
181560	7	Sololá	701	Sololá	2	El tablón	10	Octubre	2023-04-10T00:00:00	2024-11-06T15:00:00	8	Radiación solar	148
181561	7	Sololá	701	Sololá	2	El tablón	10	Octubre	2023-04-10T00:00:00	2024-11-06T16:00:00	2	Temperatura media	14.8
181562	7	Sololá	701	Sololá	2	El tablón	10	Octubre	2023-04-10T00:00:00	2024-11-06T16:00:00	4	Temperatura máxima	15.8
181563	7	Sololá	701	Sololá	2	El tablón	10	Octubre	2023-04-10T00:00:00	2024-11-06T16:00:00	3	Temperatura mínima	14.8
181564	7	Sololá	701	Sololá	2	El tablón	10	Octubre	2023-04-10T00:00:00	2024-11-06T16:00:00	5	Humedad	86
181565	7	Sololá	701	Sololá	2	El tablón	10	Octubre	2023-04-10T00:00:00	2024-11-06T16:00:00	6	Velocidad del viento	4.8
181566	7	Sololá	701	Sololá	2	El tablón	10	Octubre	2023-04-10T00:00:00	2024-11-06T16:00:00	7	Dirección del viento	4.83
181567	7	Sololá	701	Sololá	2	El tablón	10	Octubre	2023-04-10T00:00:00	2024-11-06T16:00:00	1	Precipitación	7.2
181568	7	Sololá	701	Sololá	2	El tablón	10	Octubre	2023-04-10T00:00:00	2024-11-06T16:00:00	8	Radiación solar	30
181569	7	Sololá	701	Sololá	2	El tablón	10	Octubre	2023-04-10T00:00:00	2024-11-06T17:00:00	2	Temperatura media	14.4
181570	7	Sololá	701	Sololá	2	El tablón	10	Octubre	2023-04-10T00:00:00	2024-11-06T17:00:00	4	Temperatura máxima	14.9
181571	7	Sololá	701	Sololá	2	El tablón	10	Octubre	2023-04-10T00:00:00	2024-11-06T17:00:00	3	Temperatura mínima	14.4
181572	7	Sololá	701	Sololá	2	El tablón	10	Octubre	2023-04-10T00:00:00	2024-11-06T17:00:00	5	Humedad	85
181573	7	Sololá	701	Sololá	2	El tablón	10	Octubre	2023-04-10T00:00:00	2024-11-06T17:00:00	6	Velocidad del viento	3.2
181574	7	Sololá	701	Sololá	2	El tablón	10	Octubre	2023-04-10T00:00:00	2024-11-06T17:00:00	7	Dirección del viento	3.22
181575	7	Sololá	701	Sololá	2	El tablón	10	Octubre	2023-04-10T00:00:00	2024-11-06T17:00:00	1	Precipitación	7.6
181576	7	Sololá	701	Sololá	2	El tablón	10	Octubre	2023-04-10T00:00:00	2024-11-06T17:00:00	8	Radiación solar	5
181577	7	Sololá	701	Sololá	2	El tablón	10	Octubre	2023-04-10T00:00:00	2024-11-06T18:00:00	2	Temperatura media	14.4
181578	7	Sololá	701	Sololá	2	El tablón	10	Octubre	2023-04-10T00:00:00	2024-11-06T18:00:00	4	Temperatura máxima	14.5
181579	7	Sololá	701	Sololá	2	El tablón	10	Octubre	2023-04-10T00:00:00	2024-11-06T18:00:00	3	Temperatura mínima	14.4
181580	7	Sololá	701	Sololá	2	El tablón	10	Octubre	2023-04-10T00:00:00	2024-11-06T18:00:00	5	Humedad	85
181581	7	Sololá	701	Sololá	2	El tablón	10	Octubre	2023-04-10T00:00:00	2024-11-06T18:00:00	6	Velocidad del viento	1.6
181582	7	Sololá	701	Sololá	2	El tablón	10	Octubre	2023-04-10T00:00:00	2024-11-06T18:00:00	7	Dirección del viento	1.61
181583	7	Sololá	701	Sololá	2	El tablón	10	Octubre	2023-04-10T00:00:00	2024-11-06T18:00:00	1	Precipitación	0
181584	7	Sololá	701	Sololá	2	El tablón	10	Octubre	2023-04-10T00:00:00	2024-11-06T18:00:00	8	Radiación solar	4
181585	7	Sololá	701	Sololá	2	El tablón	10	Octubre	2023-04-10T00:00:00	2024-11-06T19:00:00	2	Temperatura media	13.9
181586	7	Sololá	701	Sololá	2	El tablón	10	Octubre	2023-04-10T00:00:00	2024-11-06T19:00:00	4	Temperatura máxima	14.4
181587	7	Sololá	701	Sololá	2	El tablón	10	Octubre	2023-04-10T00:00:00	2024-11-06T19:00:00	3	Temperatura mínima	13.9
181588	7	Sololá	701	Sololá	2	El tablón	10	Octubre	2023-04-10T00:00:00	2024-11-06T19:00:00	5	Humedad	85
181589	7	Sololá	701	Sololá	2	El tablón	10	Octubre	2023-04-10T00:00:00	2024-11-06T19:00:00	6	Velocidad del viento	0
181590	7	Sololá	701	Sololá	2	El tablón	10	Octubre	2023-04-10T00:00:00	2024-11-06T19:00:00	7	Dirección del viento	0
181591	7	Sololá	701	Sololá	2	El tablón	10	Octubre	2023-04-10T00:00:00	2024-11-06T19:00:00	1	Precipitación	0
181592	7	Sololá	701	Sololá	2	El tablón	10	Octubre	2023-04-10T00:00:00	2024-11-06T19:00:00	8	Radiación solar	0
181593	7	Sololá	701	Sololá	2	El tablón	10	Octubre	2023-04-10T00:00:00	2024-11-06T20:00:00	2	Temperatura media	13.4
181594	7	Sololá	701	Sololá	2	El tablón	10	Octubre	2023-04-10T00:00:00	2024-11-06T20:00:00	4	Temperatura máxima	13.9
181595	7	Sololá	701	Sololá	2	El tablón	10	Octubre	2023-04-10T00:00:00	2024-11-06T20:00:00	3	Temperatura mínima	13.4
181596	7	Sololá	701	Sololá	2	El tablón	10	Octubre	2023-04-10T00:00:00	2024-11-06T20:00:00	5	Humedad	85
181597	7	Sololá	701	Sololá	2	El tablón	10	Octubre	2023-04-10T00:00:00	2024-11-06T20:00:00	6	Velocidad del viento	1.6
181598	7	Sololá	701	Sololá	2	El tablón	10	Octubre	2023-04-10T00:00:00	2024-11-06T20:00:00	7	Dirección del viento	1.61
181599	7	Sololá	701	Sololá	2	El tablón	10	Octubre	2023-04-10T00:00:00	2024-11-06T20:00:00	1	Precipitación	0
181600	7	Sololá	701	Sololá	2	El tablón	10	Octubre	2023-04-10T00:00:00	2024-11-06T20:00:00	8	Radiación solar	0
181601	7	Sololá	701	Sololá	2	El tablón	10	Octubre	2023-04-10T00:00:00	2024-11-06T21:00:00	2	Temperatura media	13.2
181602	7	Sololá	701	Sololá	2	El tablón	10	Octubre	2023-04-10T00:00:00	2024-11-06T21:00:00	4	Temperatura máxima	13.5
181603	7	Sololá	701	Sololá	2	El tablón	10	Octubre	2023-04-10T00:00:00	2024-11-06T21:00:00	3	Temperatura mínima	13.1
181604	7	Sololá	701	Sololá	2	El tablón	10	Octubre	2023-04-10T00:00:00	2024-11-06T21:00:00	5	Humedad	86
181605	7	Sololá	701	Sololá	2	El tablón	10	Octubre	2023-04-10T00:00:00	2024-11-06T21:00:00	6	Velocidad del viento	0
181606	7	Sololá	701	Sololá	2	El tablón	10	Octubre	2023-04-10T00:00:00	2024-11-06T21:00:00	7	Dirección del viento	0
181607	7	Sololá	701	Sololá	2	El tablón	10	Octubre	2023-04-10T00:00:00	2024-11-06T21:00:00	1	Precipitación	0
181608	7	Sololá	701	Sololá	2	El tablón	10	Octubre	2023-04-10T00:00:00	2024-11-06T21:00:00	8	Radiación solar	0
181609	7	Sololá	701	Sololá	2	El tablón	10	Octubre	2023-04-10T00:00:00	2024-11-06T22:00:00	2	Temperatura media	13.7
181610	7	Sololá	701	Sololá	2	El tablón	10	Octubre	2023-04-10T00:00:00	2024-11-06T22:00:00	4	Temperatura máxima	13.7
181611	7	Sololá	701	Sololá	2	El tablón	10	Octubre	2023-04-10T00:00:00	2024-11-06T22:00:00	3	Temperatura mínima	13.2
181612	7	Sololá	701	Sololá	2	El tablón	10	Octubre	2023-04-10T00:00:00	2024-11-06T22:00:00	5	Humedad	85
181613	7	Sololá	701	Sololá	2	El tablón	10	Octubre	2023-04-10T00:00:00	2024-11-06T22:00:00	6	Velocidad del viento	0
181614	7	Sololá	701	Sololá	2	El tablón	10	Octubre	2023-04-10T00:00:00	2024-11-06T22:00:00	7	Dirección del viento	0
181615	7	Sololá	701	Sololá	2	El tablón	10	Octubre	2023-04-10T00:00:00	2024-11-06T22:00:00	1	Precipitación	0
181616	7	Sololá	701	Sololá	2	El tablón	10	Octubre	2023-04-10T00:00:00	2024-11-06T22:00:00	8	Radiación solar	0
181617	7	Sololá	701	Sololá	2	El tablón	10	Octubre	2023-04-10T00:00:00	2024-11-06T23:00:00	2	Temperatura media	13.3
181618	7	Sololá	701	Sololá	2	El tablón	10	Octubre	2023-04-10T00:00:00	2024-11-06T23:00:00	4	Temperatura máxima	13.7
181619	7	Sololá	701	Sololá	2	El tablón	10	Octubre	2023-04-10T00:00:00	2024-11-06T23:00:00	3	Temperatura mínima	13.3
181620	7	Sololá	701	Sololá	2	El tablón	10	Octubre	2023-04-10T00:00:00	2024-11-06T23:00:00	5	Humedad	85
181621	7	Sololá	701	Sololá	2	El tablón	10	Octubre	2023-04-10T00:00:00	2024-11-06T23:00:00	6	Velocidad del viento	0
181622	7	Sololá	701	Sololá	2	El tablón	10	Octubre	2023-04-10T00:00:00	2024-11-06T23:00:00	7	Dirección del viento	0
181623	7	Sololá	701	Sololá	2	El tablón	10	Octubre	2023-04-10T00:00:00	2024-11-06T23:00:00	1	Precipitación	0
181624	7	Sololá	701	Sololá	2	El tablón	10	Octubre	2023-04-10T00:00:00	2024-11-06T23:00:00	8	Radiación solar	0
181625	7	Sololá	701	Sololá	2	El tablón	10	Octubre	2023-05-10T00:00:00	2024-11-06T00:00:00	2	Temperatura media	12.8
181626	7	Sololá	701	Sololá	2	El tablón	10	Octubre	2023-05-10T00:00:00	2024-11-06T00:00:00	4	Temperatura máxima	13.3
181627	7	Sololá	701	Sololá	2	El tablón	10	Octubre	2023-05-10T00:00:00	2024-11-06T00:00:00	3	Temperatura mínima	12.8
181628	7	Sololá	701	Sololá	2	El tablón	10	Octubre	2023-05-10T00:00:00	2024-11-06T00:00:00	5	Humedad	86
181629	7	Sololá	701	Sololá	2	El tablón	10	Octubre	2023-05-10T00:00:00	2024-11-06T00:00:00	6	Velocidad del viento	3.2
181630	7	Sololá	701	Sololá	2	El tablón	10	Octubre	2023-05-10T00:00:00	2024-11-06T00:00:00	7	Dirección del viento	3.22
181631	7	Sololá	701	Sololá	2	El tablón	10	Octubre	2023-05-10T00:00:00	2024-11-06T00:00:00	1	Precipitación	0
181632	7	Sololá	701	Sololá	2	El tablón	10	Octubre	2023-05-10T00:00:00	2024-11-06T00:00:00	8	Radiación solar	0
181633	7	Sololá	701	Sololá	2	El tablón	10	Octubre	2023-05-10T00:00:00	2024-11-06T01:00:00	2	Temperatura media	12.7
181634	7	Sololá	701	Sololá	2	El tablón	10	Octubre	2023-05-10T00:00:00	2024-11-06T01:00:00	4	Temperatura máxima	12.8
181635	7	Sololá	701	Sololá	2	El tablón	10	Octubre	2023-05-10T00:00:00	2024-11-06T01:00:00	3	Temperatura mínima	12.7
181636	7	Sololá	701	Sololá	2	El tablón	10	Octubre	2023-05-10T00:00:00	2024-11-06T01:00:00	5	Humedad	86
181637	7	Sololá	701	Sololá	2	El tablón	10	Octubre	2023-05-10T00:00:00	2024-11-06T01:00:00	6	Velocidad del viento	0
181638	7	Sololá	701	Sololá	2	El tablón	10	Octubre	2023-05-10T00:00:00	2024-11-06T01:00:00	7	Dirección del viento	0
181639	7	Sololá	701	Sololá	2	El tablón	10	Octubre	2023-05-10T00:00:00	2024-11-06T01:00:00	1	Precipitación	0
181640	7	Sololá	701	Sololá	2	El tablón	10	Octubre	2023-05-10T00:00:00	2024-11-06T01:00:00	8	Radiación solar	0
181641	7	Sololá	701	Sololá	2	El tablón	10	Octubre	2023-05-10T00:00:00	2024-11-06T02:00:00	2	Temperatura media	12.1
181642	7	Sololá	701	Sololá	2	El tablón	10	Octubre	2023-05-10T00:00:00	2024-11-06T02:00:00	4	Temperatura máxima	12.7
181643	7	Sololá	701	Sololá	2	El tablón	10	Octubre	2023-05-10T00:00:00	2024-11-06T02:00:00	3	Temperatura mínima	12.1
181644	7	Sololá	701	Sololá	2	El tablón	10	Octubre	2023-05-10T00:00:00	2024-11-06T02:00:00	5	Humedad	86
181645	7	Sololá	701	Sololá	2	El tablón	10	Octubre	2023-05-10T00:00:00	2024-11-06T02:00:00	6	Velocidad del viento	3.2
181646	7	Sololá	701	Sololá	2	El tablón	10	Octubre	2023-05-10T00:00:00	2024-11-06T02:00:00	7	Dirección del viento	3.22
181647	7	Sololá	701	Sololá	2	El tablón	10	Octubre	2023-05-10T00:00:00	2024-11-06T02:00:00	1	Precipitación	0
181648	7	Sololá	701	Sololá	2	El tablón	10	Octubre	2023-05-10T00:00:00	2024-11-06T02:00:00	8	Radiación solar	0
181649	7	Sololá	701	Sololá	2	El tablón	10	Octubre	2023-05-10T00:00:00	2024-11-06T03:00:00	2	Temperatura media	11.6
181650	7	Sololá	701	Sololá	2	El tablón	10	Octubre	2023-05-10T00:00:00	2024-11-06T03:00:00	4	Temperatura máxima	12.1
181651	7	Sololá	701	Sololá	2	El tablón	10	Octubre	2023-05-10T00:00:00	2024-11-06T03:00:00	3	Temperatura mínima	11.6
181652	7	Sololá	701	Sololá	2	El tablón	10	Octubre	2023-05-10T00:00:00	2024-11-06T03:00:00	5	Humedad	86
181653	7	Sololá	701	Sololá	2	El tablón	10	Octubre	2023-05-10T00:00:00	2024-11-06T03:00:00	6	Velocidad del viento	3.2
181654	7	Sololá	701	Sololá	2	El tablón	10	Octubre	2023-05-10T00:00:00	2024-11-06T03:00:00	7	Dirección del viento	3.22
181655	7	Sololá	701	Sololá	2	El tablón	10	Octubre	2023-05-10T00:00:00	2024-11-06T03:00:00	1	Precipitación	0.2
181656	7	Sololá	701	Sololá	2	El tablón	10	Octubre	2023-05-10T00:00:00	2024-11-06T03:00:00	8	Radiación solar	0
181657	7	Sololá	701	Sololá	2	El tablón	10	Octubre	2023-05-10T00:00:00	2024-11-06T04:00:00	2	Temperatura media	11.9
181658	7	Sololá	701	Sololá	2	El tablón	10	Octubre	2023-05-10T00:00:00	2024-11-06T04:00:00	4	Temperatura máxima	12.1
181659	7	Sololá	701	Sololá	2	El tablón	10	Octubre	2023-05-10T00:00:00	2024-11-06T04:00:00	3	Temperatura mínima	11.6
181660	7	Sololá	701	Sololá	2	El tablón	10	Octubre	2023-05-10T00:00:00	2024-11-06T04:00:00	5	Humedad	89
181661	7	Sololá	701	Sololá	2	El tablón	10	Octubre	2023-05-10T00:00:00	2024-11-06T04:00:00	6	Velocidad del viento	3.2
181662	7	Sololá	701	Sololá	2	El tablón	10	Octubre	2023-05-10T00:00:00	2024-11-06T04:00:00	7	Dirección del viento	3.22
181663	7	Sololá	701	Sololá	2	El tablón	10	Octubre	2023-05-10T00:00:00	2024-11-06T04:00:00	1	Precipitación	0
181664	7	Sololá	701	Sololá	2	El tablón	10	Octubre	2023-05-10T00:00:00	2024-11-06T04:00:00	8	Radiación solar	0
181665	7	Sololá	701	Sololá	2	El tablón	10	Octubre	2023-05-10T00:00:00	2024-11-06T05:00:00	2	Temperatura media	12.5
181666	7	Sololá	701	Sololá	2	El tablón	10	Octubre	2023-05-10T00:00:00	2024-11-06T05:00:00	4	Temperatura máxima	12.5
181667	7	Sololá	701	Sololá	2	El tablón	10	Octubre	2023-05-10T00:00:00	2024-11-06T05:00:00	3	Temperatura mínima	11.9
181668	7	Sololá	701	Sololá	2	El tablón	10	Octubre	2023-05-10T00:00:00	2024-11-06T05:00:00	5	Humedad	89
181669	7	Sololá	701	Sololá	2	El tablón	10	Octubre	2023-05-10T00:00:00	2024-11-06T05:00:00	6	Velocidad del viento	6.4
181670	7	Sololá	701	Sololá	2	El tablón	10	Octubre	2023-05-10T00:00:00	2024-11-06T05:00:00	7	Dirección del viento	6.44
181671	7	Sololá	701	Sololá	2	El tablón	10	Octubre	2023-05-10T00:00:00	2024-11-06T05:00:00	1	Precipitación	0
181672	7	Sololá	701	Sololá	2	El tablón	10	Octubre	2023-05-10T00:00:00	2024-11-06T05:00:00	8	Radiación solar	0
181673	7	Sololá	701	Sololá	2	El tablón	10	Octubre	2023-05-10T00:00:00	2024-11-06T06:00:00	2	Temperatura media	13
181674	7	Sololá	701	Sololá	2	El tablón	10	Octubre	2023-05-10T00:00:00	2024-11-06T06:00:00	4	Temperatura máxima	13
181675	7	Sololá	701	Sololá	2	El tablón	10	Octubre	2023-05-10T00:00:00	2024-11-06T06:00:00	3	Temperatura mínima	11.9
181676	7	Sololá	701	Sololá	2	El tablón	10	Octubre	2023-05-10T00:00:00	2024-11-06T06:00:00	5	Humedad	88
181677	7	Sololá	701	Sololá	2	El tablón	10	Octubre	2023-05-10T00:00:00	2024-11-06T06:00:00	6	Velocidad del viento	4.8
181678	7	Sololá	701	Sololá	2	El tablón	10	Octubre	2023-05-10T00:00:00	2024-11-06T06:00:00	7	Dirección del viento	4.83
181679	7	Sololá	701	Sololá	2	El tablón	10	Octubre	2023-05-10T00:00:00	2024-11-06T06:00:00	1	Precipitación	0
181680	7	Sololá	701	Sololá	2	El tablón	10	Octubre	2023-05-10T00:00:00	2024-11-06T06:00:00	8	Radiación solar	0
181681	7	Sololá	701	Sololá	2	El tablón	10	Octubre	2023-05-10T00:00:00	2024-11-06T07:00:00	2	Temperatura media	15.5
181682	7	Sololá	701	Sololá	2	El tablón	10	Octubre	2023-05-10T00:00:00	2024-11-06T07:00:00	4	Temperatura máxima	15.5
181683	7	Sololá	701	Sololá	2	El tablón	10	Octubre	2023-05-10T00:00:00	2024-11-06T07:00:00	3	Temperatura mínima	13
181684	7	Sololá	701	Sololá	2	El tablón	10	Octubre	2023-05-10T00:00:00	2024-11-06T07:00:00	5	Humedad	83
181685	7	Sololá	701	Sololá	2	El tablón	10	Octubre	2023-05-10T00:00:00	2024-11-06T07:00:00	6	Velocidad del viento	3.2
181686	7	Sololá	701	Sololá	2	El tablón	10	Octubre	2023-05-10T00:00:00	2024-11-06T07:00:00	7	Dirección del viento	3.22
181687	7	Sololá	701	Sololá	2	El tablón	10	Octubre	2023-05-10T00:00:00	2024-11-06T07:00:00	1	Precipitación	0
181688	7	Sololá	701	Sololá	2	El tablón	10	Octubre	2023-05-10T00:00:00	2024-11-06T07:00:00	8	Radiación solar	68
181689	7	Sololá	701	Sololá	2	El tablón	10	Octubre	2023-05-10T00:00:00	2024-11-06T08:00:00	2	Temperatura media	17.1
181690	7	Sololá	701	Sololá	2	El tablón	10	Octubre	2023-05-10T00:00:00	2024-11-06T08:00:00	4	Temperatura máxima	17.1
181691	7	Sololá	701	Sololá	2	El tablón	10	Octubre	2023-05-10T00:00:00	2024-11-06T08:00:00	3	Temperatura mínima	15.6
181692	7	Sololá	701	Sololá	2	El tablón	10	Octubre	2023-05-10T00:00:00	2024-11-06T08:00:00	5	Humedad	79
181693	7	Sololá	701	Sololá	2	El tablón	10	Octubre	2023-05-10T00:00:00	2024-11-06T08:00:00	6	Velocidad del viento	3.2
181694	7	Sololá	701	Sololá	2	El tablón	10	Octubre	2023-05-10T00:00:00	2024-11-06T08:00:00	7	Dirección del viento	3.22
181695	7	Sololá	701	Sololá	2	El tablón	10	Octubre	2023-05-10T00:00:00	2024-11-06T08:00:00	1	Precipitación	0
181696	7	Sololá	701	Sololá	2	El tablón	10	Octubre	2023-05-10T00:00:00	2024-11-06T08:00:00	8	Radiación solar	221
181697	7	Sololá	701	Sololá	2	El tablón	10	Octubre	2023-05-10T00:00:00	2024-11-06T09:00:00	2	Temperatura media	19.5
181698	7	Sololá	701	Sololá	2	El tablón	10	Octubre	2023-05-10T00:00:00	2024-11-06T09:00:00	4	Temperatura máxima	19.6
181699	7	Sololá	701	Sololá	2	El tablón	10	Octubre	2023-05-10T00:00:00	2024-11-06T09:00:00	3	Temperatura mínima	17.1
181700	7	Sololá	701	Sololá	2	El tablón	10	Octubre	2023-05-10T00:00:00	2024-11-06T09:00:00	5	Humedad	74
181701	7	Sololá	701	Sololá	2	El tablón	10	Octubre	2023-05-10T00:00:00	2024-11-06T09:00:00	6	Velocidad del viento	4.8
181702	7	Sololá	701	Sololá	2	El tablón	10	Octubre	2023-05-10T00:00:00	2024-11-06T09:00:00	7	Dirección del viento	4.83
181703	7	Sololá	701	Sololá	2	El tablón	10	Octubre	2023-05-10T00:00:00	2024-11-06T09:00:00	1	Precipitación	0
181704	7	Sololá	701	Sololá	2	El tablón	10	Octubre	2023-05-10T00:00:00	2024-11-06T09:00:00	8	Radiación solar	433
181705	7	Sololá	701	Sololá	2	El tablón	10	Octubre	2023-05-10T00:00:00	2024-11-06T10:00:00	2	Temperatura media	19.6
181706	7	Sololá	701	Sololá	2	El tablón	10	Octubre	2023-05-10T00:00:00	2024-11-06T10:00:00	4	Temperatura máxima	20.2
181707	7	Sololá	701	Sololá	2	El tablón	10	Octubre	2023-05-10T00:00:00	2024-11-06T10:00:00	3	Temperatura mínima	19.4
181708	7	Sololá	701	Sololá	2	El tablón	10	Octubre	2023-05-10T00:00:00	2024-11-06T10:00:00	5	Humedad	77
181709	7	Sololá	701	Sololá	2	El tablón	10	Octubre	2023-05-10T00:00:00	2024-11-06T10:00:00	6	Velocidad del viento	4.8
181710	7	Sololá	701	Sololá	2	El tablón	10	Octubre	2023-05-10T00:00:00	2024-11-06T10:00:00	7	Dirección del viento	4.83
181711	7	Sololá	701	Sololá	2	El tablón	10	Octubre	2023-05-10T00:00:00	2024-11-06T10:00:00	1	Precipitación	0
181712	7	Sololá	701	Sololá	2	El tablón	10	Octubre	2023-05-10T00:00:00	2024-11-06T10:00:00	8	Radiación solar	723
181713	7	Sololá	701	Sololá	2	El tablón	10	Octubre	2023-05-10T00:00:00	2024-11-06T11:00:00	2	Temperatura media	17.9
181714	7	Sololá	701	Sololá	2	El tablón	10	Octubre	2023-05-10T00:00:00	2024-11-06T11:00:00	4	Temperatura máxima	19.5
181715	7	Sololá	701	Sololá	2	El tablón	10	Octubre	2023-05-10T00:00:00	2024-11-06T11:00:00	3	Temperatura mínima	17.9
181716	7	Sololá	701	Sololá	2	El tablón	10	Octubre	2023-05-10T00:00:00	2024-11-06T11:00:00	5	Humedad	82
181717	7	Sololá	701	Sololá	2	El tablón	10	Octubre	2023-05-10T00:00:00	2024-11-06T11:00:00	6	Velocidad del viento	3.2
181718	7	Sololá	701	Sololá	2	El tablón	10	Octubre	2023-05-10T00:00:00	2024-11-06T11:00:00	7	Dirección del viento	3.22
181719	7	Sololá	701	Sololá	2	El tablón	10	Octubre	2023-05-10T00:00:00	2024-11-06T11:00:00	1	Precipitación	0
181720	7	Sololá	701	Sololá	2	El tablón	10	Octubre	2023-05-10T00:00:00	2024-11-06T11:00:00	8	Radiación solar	326
181721	7	Sololá	701	Sololá	2	El tablón	10	Octubre	2023-05-10T00:00:00	2024-11-06T12:00:00	2	Temperatura media	17.8
181722	7	Sololá	701	Sololá	2	El tablón	10	Octubre	2023-05-10T00:00:00	2024-11-06T12:00:00	4	Temperatura máxima	19.6
181723	7	Sololá	701	Sololá	2	El tablón	10	Octubre	2023-05-10T00:00:00	2024-11-06T12:00:00	3	Temperatura mínima	17.7
181724	7	Sololá	701	Sololá	2	El tablón	10	Octubre	2023-05-10T00:00:00	2024-11-06T12:00:00	5	Humedad	86
181725	7	Sololá	701	Sololá	2	El tablón	10	Octubre	2023-05-10T00:00:00	2024-11-06T12:00:00	6	Velocidad del viento	6.4
181726	7	Sololá	701	Sololá	2	El tablón	10	Octubre	2023-05-10T00:00:00	2024-11-06T12:00:00	7	Dirección del viento	6.44
181727	7	Sololá	701	Sololá	2	El tablón	10	Octubre	2023-05-10T00:00:00	2024-11-06T12:00:00	1	Precipitación	0
181728	7	Sololá	701	Sololá	2	El tablón	10	Octubre	2023-05-10T00:00:00	2024-11-06T12:00:00	8	Radiación solar	532
181729	7	Sololá	701	Sololá	2	El tablón	10	Octubre	2023-05-10T00:00:00	2024-11-06T13:00:00	2	Temperatura media	18.3
181730	7	Sololá	701	Sololá	2	El tablón	10	Octubre	2023-05-10T00:00:00	2024-11-06T13:00:00	4	Temperatura máxima	18.7
181731	7	Sololá	701	Sololá	2	El tablón	10	Octubre	2023-05-10T00:00:00	2024-11-06T13:00:00	3	Temperatura mínima	17.8
181732	7	Sololá	701	Sololá	2	El tablón	10	Octubre	2023-05-10T00:00:00	2024-11-06T13:00:00	5	Humedad	86
181733	7	Sololá	701	Sololá	2	El tablón	10	Octubre	2023-05-10T00:00:00	2024-11-06T13:00:00	6	Velocidad del viento	8
181734	7	Sololá	701	Sololá	2	El tablón	10	Octubre	2023-05-10T00:00:00	2024-11-06T13:00:00	7	Dirección del viento	8.05
181735	7	Sololá	701	Sololá	2	El tablón	10	Octubre	2023-05-10T00:00:00	2024-11-06T13:00:00	1	Precipitación	0
181736	7	Sololá	701	Sololá	2	El tablón	10	Octubre	2023-05-10T00:00:00	2024-11-06T13:00:00	8	Radiación solar	706
181737	7	Sololá	701	Sololá	2	El tablón	10	Octubre	2023-05-10T00:00:00	2024-11-06T14:00:00	2	Temperatura media	17.3
181738	7	Sololá	701	Sololá	2	El tablón	10	Octubre	2023-05-10T00:00:00	2024-11-06T14:00:00	4	Temperatura máxima	18.3
181739	7	Sololá	701	Sololá	2	El tablón	10	Octubre	2023-05-10T00:00:00	2024-11-06T14:00:00	3	Temperatura mínima	17.3
181740	7	Sololá	701	Sololá	2	El tablón	10	Octubre	2023-05-10T00:00:00	2024-11-06T14:00:00	5	Humedad	87
181741	7	Sololá	701	Sololá	2	El tablón	10	Octubre	2023-05-10T00:00:00	2024-11-06T14:00:00	6	Velocidad del viento	6.4
181742	7	Sololá	701	Sololá	2	El tablón	10	Octubre	2023-05-10T00:00:00	2024-11-06T14:00:00	7	Dirección del viento	6.44
181743	7	Sololá	701	Sololá	2	El tablón	10	Octubre	2023-05-10T00:00:00	2024-11-06T14:00:00	1	Precipitación	0
181744	7	Sololá	701	Sololá	2	El tablón	10	Octubre	2023-05-10T00:00:00	2024-11-06T14:00:00	8	Radiación solar	349
181745	7	Sololá	701	Sololá	2	El tablón	10	Octubre	2023-05-10T00:00:00	2024-11-06T15:00:00	2	Temperatura media	17.2
181746	7	Sololá	701	Sololá	2	El tablón	10	Octubre	2023-05-10T00:00:00	2024-11-06T15:00:00	4	Temperatura máxima	17.4
181747	7	Sololá	701	Sololá	2	El tablón	10	Octubre	2023-05-10T00:00:00	2024-11-06T15:00:00	3	Temperatura mínima	16.8
181748	7	Sololá	701	Sololá	2	El tablón	10	Octubre	2023-05-10T00:00:00	2024-11-06T15:00:00	5	Humedad	88
181749	7	Sololá	701	Sololá	2	El tablón	10	Octubre	2023-05-10T00:00:00	2024-11-06T15:00:00	6	Velocidad del viento	4.8
181750	7	Sololá	701	Sololá	2	El tablón	10	Octubre	2023-05-10T00:00:00	2024-11-06T15:00:00	7	Dirección del viento	4.83
181751	7	Sololá	701	Sololá	2	El tablón	10	Octubre	2023-05-10T00:00:00	2024-11-06T15:00:00	1	Precipitación	0
181752	7	Sololá	701	Sololá	2	El tablón	10	Octubre	2023-05-10T00:00:00	2024-11-06T15:00:00	8	Radiación solar	250
181753	7	Sololá	701	Sololá	2	El tablón	10	Octubre	2023-05-10T00:00:00	2024-11-06T16:00:00	2	Temperatura media	16.2
181754	7	Sololá	701	Sololá	2	El tablón	10	Octubre	2023-05-10T00:00:00	2024-11-06T16:00:00	4	Temperatura máxima	17.8
181755	7	Sololá	701	Sololá	2	El tablón	10	Octubre	2023-05-10T00:00:00	2024-11-06T16:00:00	3	Temperatura mínima	16.2
181756	7	Sololá	701	Sololá	2	El tablón	10	Octubre	2023-05-10T00:00:00	2024-11-06T16:00:00	5	Humedad	88
181757	7	Sololá	701	Sololá	2	El tablón	10	Octubre	2023-05-10T00:00:00	2024-11-06T16:00:00	6	Velocidad del viento	4.8
181758	7	Sololá	701	Sololá	2	El tablón	10	Octubre	2023-05-10T00:00:00	2024-11-06T16:00:00	7	Dirección del viento	4.83
181759	7	Sololá	701	Sololá	2	El tablón	10	Octubre	2023-05-10T00:00:00	2024-11-06T16:00:00	1	Precipitación	0
181760	7	Sololá	701	Sololá	2	El tablón	10	Octubre	2023-05-10T00:00:00	2024-11-06T16:00:00	8	Radiación solar	147
181761	7	Sololá	701	Sololá	2	El tablón	10	Octubre	2023-05-10T00:00:00	2024-11-06T17:00:00	2	Temperatura media	15.8
181762	7	Sololá	701	Sololá	2	El tablón	10	Octubre	2023-05-10T00:00:00	2024-11-06T17:00:00	4	Temperatura máxima	16.2
181763	7	Sololá	701	Sololá	2	El tablón	10	Octubre	2023-05-10T00:00:00	2024-11-06T17:00:00	3	Temperatura mínima	15.8
181764	7	Sololá	701	Sololá	2	El tablón	10	Octubre	2023-05-10T00:00:00	2024-11-06T17:00:00	5	Humedad	88
181765	7	Sololá	701	Sololá	2	El tablón	10	Octubre	2023-05-10T00:00:00	2024-11-06T17:00:00	6	Velocidad del viento	3.2
181766	7	Sololá	701	Sololá	2	El tablón	10	Octubre	2023-05-10T00:00:00	2024-11-06T17:00:00	7	Dirección del viento	3.22
181767	7	Sololá	701	Sololá	2	El tablón	10	Octubre	2023-05-10T00:00:00	2024-11-06T17:00:00	1	Precipitación	0
181768	7	Sololá	701	Sololá	2	El tablón	10	Octubre	2023-05-10T00:00:00	2024-11-06T17:00:00	8	Radiación solar	64
181769	7	Sololá	701	Sololá	2	El tablón	10	Octubre	2023-05-10T00:00:00	2024-11-06T18:00:00	2	Temperatura media	15.4
181770	7	Sololá	701	Sololá	2	El tablón	10	Octubre	2023-05-10T00:00:00	2024-11-06T18:00:00	4	Temperatura máxima	16.1
181771	7	Sololá	701	Sololá	2	El tablón	10	Octubre	2023-05-10T00:00:00	2024-11-06T18:00:00	3	Temperatura mínima	15.3
181772	7	Sololá	701	Sololá	2	El tablón	10	Octubre	2023-05-10T00:00:00	2024-11-06T18:00:00	5	Humedad	87
181773	7	Sololá	701	Sololá	2	El tablón	10	Octubre	2023-05-10T00:00:00	2024-11-06T18:00:00	6	Velocidad del viento	3.2
181774	7	Sololá	701	Sololá	2	El tablón	10	Octubre	2023-05-10T00:00:00	2024-11-06T18:00:00	7	Dirección del viento	3.22
181775	7	Sololá	701	Sololá	2	El tablón	10	Octubre	2023-05-10T00:00:00	2024-11-06T18:00:00	1	Precipitación	0
181776	7	Sololá	701	Sololá	2	El tablón	10	Octubre	2023-05-10T00:00:00	2024-11-06T18:00:00	8	Radiación solar	16
181777	7	Sololá	701	Sololá	2	El tablón	10	Octubre	2023-05-10T00:00:00	2024-11-06T19:00:00	2	Temperatura media	14.1
181778	7	Sololá	701	Sololá	2	El tablón	10	Octubre	2023-05-10T00:00:00	2024-11-06T19:00:00	4	Temperatura máxima	15.4
181779	7	Sololá	701	Sololá	2	El tablón	10	Octubre	2023-05-10T00:00:00	2024-11-06T19:00:00	3	Temperatura mínima	14.1
181780	7	Sololá	701	Sololá	2	El tablón	10	Octubre	2023-05-10T00:00:00	2024-11-06T19:00:00	5	Humedad	86
181781	7	Sololá	701	Sololá	2	El tablón	10	Octubre	2023-05-10T00:00:00	2024-11-06T19:00:00	6	Velocidad del viento	4.8
181782	7	Sololá	701	Sololá	2	El tablón	10	Octubre	2023-05-10T00:00:00	2024-11-06T19:00:00	7	Dirección del viento	4.83
181783	7	Sololá	701	Sololá	2	El tablón	10	Octubre	2023-05-10T00:00:00	2024-11-06T19:00:00	1	Precipitación	0
181784	7	Sololá	701	Sololá	2	El tablón	10	Octubre	2023-05-10T00:00:00	2024-11-06T19:00:00	8	Radiación solar	0
181785	7	Sololá	701	Sololá	2	El tablón	10	Octubre	2023-05-10T00:00:00	2024-11-06T20:00:00	2	Temperatura media	13.9
181786	7	Sololá	701	Sololá	2	El tablón	10	Octubre	2023-05-10T00:00:00	2024-11-06T20:00:00	4	Temperatura máxima	14.1
181787	7	Sololá	701	Sololá	2	El tablón	10	Octubre	2023-05-10T00:00:00	2024-11-06T20:00:00	3	Temperatura mínima	13.9
181788	7	Sololá	701	Sololá	2	El tablón	10	Octubre	2023-05-10T00:00:00	2024-11-06T20:00:00	5	Humedad	85
181789	7	Sololá	701	Sololá	2	El tablón	10	Octubre	2023-05-10T00:00:00	2024-11-06T20:00:00	6	Velocidad del viento	3.2
181790	7	Sololá	701	Sololá	2	El tablón	10	Octubre	2023-05-10T00:00:00	2024-11-06T20:00:00	7	Dirección del viento	3.22
181791	7	Sololá	701	Sololá	2	El tablón	10	Octubre	2023-05-10T00:00:00	2024-11-06T20:00:00	1	Precipitación	0
181792	7	Sololá	701	Sololá	2	El tablón	10	Octubre	2023-05-10T00:00:00	2024-11-06T20:00:00	8	Radiación solar	0
181793	7	Sololá	701	Sololá	2	El tablón	10	Octubre	2023-05-10T00:00:00	2024-11-06T21:00:00	2	Temperatura media	13.5
181794	7	Sololá	701	Sololá	2	El tablón	10	Octubre	2023-05-10T00:00:00	2024-11-06T21:00:00	4	Temperatura máxima	13.9
181795	7	Sololá	701	Sololá	2	El tablón	10	Octubre	2023-05-10T00:00:00	2024-11-06T21:00:00	3	Temperatura mínima	13.5
181796	7	Sololá	701	Sololá	2	El tablón	10	Octubre	2023-05-10T00:00:00	2024-11-06T21:00:00	5	Humedad	85
181797	7	Sololá	701	Sololá	2	El tablón	10	Octubre	2023-05-10T00:00:00	2024-11-06T21:00:00	6	Velocidad del viento	3.2
181798	7	Sololá	701	Sololá	2	El tablón	10	Octubre	2023-05-10T00:00:00	2024-11-06T21:00:00	7	Dirección del viento	3.22
181799	7	Sololá	701	Sololá	2	El tablón	10	Octubre	2023-05-10T00:00:00	2024-11-06T21:00:00	1	Precipitación	0
181800	7	Sololá	701	Sololá	2	El tablón	10	Octubre	2023-05-10T00:00:00	2024-11-06T21:00:00	8	Radiación solar	0
181801	7	Sololá	701	Sololá	2	El tablón	10	Octubre	2023-05-10T00:00:00	2024-11-06T22:00:00	2	Temperatura media	13.3
181802	7	Sololá	701	Sololá	2	El tablón	10	Octubre	2023-05-10T00:00:00	2024-11-06T22:00:00	4	Temperatura máxima	13.5
181803	7	Sololá	701	Sololá	2	El tablón	10	Octubre	2023-05-10T00:00:00	2024-11-06T22:00:00	3	Temperatura mínima	13.3
181804	7	Sololá	701	Sololá	2	El tablón	10	Octubre	2023-05-10T00:00:00	2024-11-06T22:00:00	5	Humedad	85
181805	7	Sololá	701	Sololá	2	El tablón	10	Octubre	2023-05-10T00:00:00	2024-11-06T22:00:00	6	Velocidad del viento	1.6
181806	7	Sololá	701	Sololá	2	El tablón	10	Octubre	2023-05-10T00:00:00	2024-11-06T22:00:00	7	Dirección del viento	1.61
181807	7	Sololá	701	Sololá	2	El tablón	10	Octubre	2023-05-10T00:00:00	2024-11-06T22:00:00	1	Precipitación	0
181808	7	Sololá	701	Sololá	2	El tablón	10	Octubre	2023-05-10T00:00:00	2024-11-06T22:00:00	8	Radiación solar	0
181809	7	Sololá	701	Sololá	2	El tablón	10	Octubre	2023-05-10T00:00:00	2024-11-06T23:00:00	2	Temperatura media	13.6
181810	7	Sololá	701	Sololá	2	El tablón	10	Octubre	2023-05-10T00:00:00	2024-11-06T23:00:00	4	Temperatura máxima	13.6
181811	7	Sololá	701	Sololá	2	El tablón	10	Octubre	2023-05-10T00:00:00	2024-11-06T23:00:00	3	Temperatura mínima	13.3
181812	7	Sololá	701	Sololá	2	El tablón	10	Octubre	2023-05-10T00:00:00	2024-11-06T23:00:00	5	Humedad	88
181813	7	Sololá	701	Sololá	2	El tablón	10	Octubre	2023-05-10T00:00:00	2024-11-06T23:00:00	6	Velocidad del viento	1.6
181814	7	Sololá	701	Sololá	2	El tablón	10	Octubre	2023-05-10T00:00:00	2024-11-06T23:00:00	7	Dirección del viento	1.61
181815	7	Sololá	701	Sololá	2	El tablón	10	Octubre	2023-05-10T00:00:00	2024-11-06T23:00:00	1	Precipitación	0
181816	7	Sololá	701	Sololá	2	El tablón	10	Octubre	2023-05-10T00:00:00	2024-11-06T23:00:00	8	Radiación solar	0
181817	7	Sololá	701	Sololá	2	El tablón	10	Octubre	2023-06-10T00:00:00	2024-11-06T00:00:00	2	Temperatura media	14.1
181818	7	Sololá	701	Sololá	2	El tablón	10	Octubre	2023-06-10T00:00:00	2024-11-06T00:00:00	4	Temperatura máxima	14.1
181819	7	Sololá	701	Sololá	2	El tablón	10	Octubre	2023-06-10T00:00:00	2024-11-06T00:00:00	3	Temperatura mínima	13.3
181820	7	Sololá	701	Sololá	2	El tablón	10	Octubre	2023-06-10T00:00:00	2024-11-06T00:00:00	5	Humedad	88
181821	7	Sololá	701	Sololá	2	El tablón	10	Octubre	2023-06-10T00:00:00	2024-11-06T00:00:00	6	Velocidad del viento	3.2
181822	7	Sololá	701	Sololá	2	El tablón	10	Octubre	2023-06-10T00:00:00	2024-11-06T00:00:00	7	Dirección del viento	3.22
181823	7	Sololá	701	Sololá	2	El tablón	10	Octubre	2023-06-10T00:00:00	2024-11-06T00:00:00	1	Precipitación	0
181824	7	Sololá	701	Sololá	2	El tablón	10	Octubre	2023-06-10T00:00:00	2024-11-06T00:00:00	8	Radiación solar	0
181825	7	Sololá	701	Sololá	2	El tablón	10	Octubre	2023-06-10T00:00:00	2024-11-06T01:00:00	2	Temperatura media	13.5
181826	7	Sololá	701	Sololá	2	El tablón	10	Octubre	2023-06-10T00:00:00	2024-11-06T01:00:00	4	Temperatura máxima	14.2
181827	7	Sololá	701	Sololá	2	El tablón	10	Octubre	2023-06-10T00:00:00	2024-11-06T01:00:00	3	Temperatura mínima	13.4
181828	7	Sololá	701	Sololá	2	El tablón	10	Octubre	2023-06-10T00:00:00	2024-11-06T01:00:00	5	Humedad	87
181829	7	Sololá	701	Sololá	2	El tablón	10	Octubre	2023-06-10T00:00:00	2024-11-06T01:00:00	6	Velocidad del viento	3.2
181830	7	Sololá	701	Sololá	2	El tablón	10	Octubre	2023-06-10T00:00:00	2024-11-06T01:00:00	7	Dirección del viento	3.22
181831	7	Sololá	701	Sololá	2	El tablón	10	Octubre	2023-06-10T00:00:00	2024-11-06T01:00:00	1	Precipitación	0
181832	7	Sololá	701	Sololá	2	El tablón	10	Octubre	2023-06-10T00:00:00	2024-11-06T01:00:00	8	Radiación solar	0
181833	7	Sololá	701	Sololá	2	El tablón	10	Octubre	2023-06-10T00:00:00	2024-11-06T02:00:00	2	Temperatura media	12.2
181834	7	Sololá	701	Sololá	2	El tablón	10	Octubre	2023-06-10T00:00:00	2024-11-06T02:00:00	4	Temperatura máxima	13.5
181835	7	Sololá	701	Sololá	2	El tablón	10	Octubre	2023-06-10T00:00:00	2024-11-06T02:00:00	3	Temperatura mínima	12.2
181836	7	Sololá	701	Sololá	2	El tablón	10	Octubre	2023-06-10T00:00:00	2024-11-06T02:00:00	5	Humedad	88
181837	7	Sololá	701	Sololá	2	El tablón	10	Octubre	2023-06-10T00:00:00	2024-11-06T02:00:00	6	Velocidad del viento	1.6
181838	7	Sololá	701	Sololá	2	El tablón	10	Octubre	2023-06-10T00:00:00	2024-11-06T02:00:00	7	Dirección del viento	1.61
181839	7	Sololá	701	Sololá	2	El tablón	10	Octubre	2023-06-10T00:00:00	2024-11-06T02:00:00	1	Precipitación	0
181840	7	Sololá	701	Sololá	2	El tablón	10	Octubre	2023-06-10T00:00:00	2024-11-06T02:00:00	8	Radiación solar	0
181841	7	Sololá	701	Sololá	2	El tablón	10	Octubre	2023-06-10T00:00:00	2024-11-06T03:00:00	2	Temperatura media	12.1
181842	7	Sololá	701	Sololá	2	El tablón	10	Octubre	2023-06-10T00:00:00	2024-11-06T03:00:00	4	Temperatura máxima	12.3
181843	7	Sololá	701	Sololá	2	El tablón	10	Octubre	2023-06-10T00:00:00	2024-11-06T03:00:00	3	Temperatura mínima	12.1
181844	7	Sololá	701	Sololá	2	El tablón	10	Octubre	2023-06-10T00:00:00	2024-11-06T03:00:00	5	Humedad	89
181845	7	Sololá	701	Sololá	2	El tablón	10	Octubre	2023-06-10T00:00:00	2024-11-06T03:00:00	6	Velocidad del viento	1.6
181846	7	Sololá	701	Sololá	2	El tablón	10	Octubre	2023-06-10T00:00:00	2024-11-06T03:00:00	7	Dirección del viento	1.61
181847	7	Sololá	701	Sololá	2	El tablón	10	Octubre	2023-06-10T00:00:00	2024-11-06T03:00:00	1	Precipitación	0
181848	7	Sololá	701	Sololá	2	El tablón	10	Octubre	2023-06-10T00:00:00	2024-11-06T03:00:00	8	Radiación solar	0
181849	7	Sololá	701	Sololá	2	El tablón	10	Octubre	2023-06-10T00:00:00	2024-11-06T04:00:00	2	Temperatura media	13.6
181850	7	Sololá	701	Sololá	2	El tablón	10	Octubre	2023-06-10T00:00:00	2024-11-06T04:00:00	4	Temperatura máxima	13.6
181851	7	Sololá	701	Sololá	2	El tablón	10	Octubre	2023-06-10T00:00:00	2024-11-06T04:00:00	3	Temperatura mínima	12.1
181852	7	Sololá	701	Sololá	2	El tablón	10	Octubre	2023-06-10T00:00:00	2024-11-06T04:00:00	5	Humedad	88
181853	7	Sololá	701	Sololá	2	El tablón	10	Octubre	2023-06-10T00:00:00	2024-11-06T04:00:00	6	Velocidad del viento	3.2
181854	7	Sololá	701	Sololá	2	El tablón	10	Octubre	2023-06-10T00:00:00	2024-11-06T04:00:00	7	Dirección del viento	3.22
181855	7	Sololá	701	Sololá	2	El tablón	10	Octubre	2023-06-10T00:00:00	2024-11-06T04:00:00	1	Precipitación	0
181856	7	Sololá	701	Sololá	2	El tablón	10	Octubre	2023-06-10T00:00:00	2024-11-06T04:00:00	8	Radiación solar	0
181857	7	Sololá	701	Sololá	2	El tablón	10	Octubre	2023-06-10T00:00:00	2024-11-06T05:00:00	2	Temperatura media	14
181858	7	Sololá	701	Sololá	2	El tablón	10	Octubre	2023-06-10T00:00:00	2024-11-06T05:00:00	4	Temperatura máxima	14.1
181859	7	Sololá	701	Sololá	2	El tablón	10	Octubre	2023-06-10T00:00:00	2024-11-06T05:00:00	3	Temperatura mínima	13.6
181860	7	Sololá	701	Sololá	2	El tablón	10	Octubre	2023-06-10T00:00:00	2024-11-06T05:00:00	5	Humedad	88
181861	7	Sololá	701	Sololá	2	El tablón	10	Octubre	2023-06-10T00:00:00	2024-11-06T05:00:00	6	Velocidad del viento	6.4
181862	7	Sololá	701	Sololá	2	El tablón	10	Octubre	2023-06-10T00:00:00	2024-11-06T05:00:00	7	Dirección del viento	6.44
181863	7	Sololá	701	Sololá	2	El tablón	10	Octubre	2023-06-10T00:00:00	2024-11-06T05:00:00	1	Precipitación	0
181864	7	Sololá	701	Sololá	2	El tablón	10	Octubre	2023-06-10T00:00:00	2024-11-06T05:00:00	8	Radiación solar	0
181865	7	Sololá	701	Sololá	2	El tablón	10	Octubre	2023-06-10T00:00:00	2024-11-06T06:00:00	2	Temperatura media	11.8
181866	7	Sololá	701	Sololá	2	El tablón	10	Octubre	2023-06-10T00:00:00	2024-11-06T06:00:00	4	Temperatura máxima	14
181867	7	Sololá	701	Sololá	2	El tablón	10	Octubre	2023-06-10T00:00:00	2024-11-06T06:00:00	3	Temperatura mínima	11.8
181868	7	Sololá	701	Sololá	2	El tablón	10	Octubre	2023-06-10T00:00:00	2024-11-06T06:00:00	5	Humedad	89
181869	7	Sololá	701	Sololá	2	El tablón	10	Octubre	2023-06-10T00:00:00	2024-11-06T06:00:00	6	Velocidad del viento	4.8
181870	7	Sololá	701	Sololá	2	El tablón	10	Octubre	2023-06-10T00:00:00	2024-11-06T06:00:00	7	Dirección del viento	4.83
181871	7	Sololá	701	Sololá	2	El tablón	10	Octubre	2023-06-10T00:00:00	2024-11-06T06:00:00	1	Precipitación	0
181872	7	Sololá	701	Sololá	2	El tablón	10	Octubre	2023-06-10T00:00:00	2024-11-06T06:00:00	8	Radiación solar	0
181873	7	Sololá	701	Sololá	2	El tablón	10	Octubre	2023-06-10T00:00:00	2024-11-06T07:00:00	2	Temperatura media	14.1
181874	7	Sololá	701	Sololá	2	El tablón	10	Octubre	2023-06-10T00:00:00	2024-11-06T07:00:00	4	Temperatura máxima	14.1
181875	7	Sololá	701	Sololá	2	El tablón	10	Octubre	2023-06-10T00:00:00	2024-11-06T07:00:00	3	Temperatura mínima	11.8
181876	7	Sololá	701	Sololá	2	El tablón	10	Octubre	2023-06-10T00:00:00	2024-11-06T07:00:00	5	Humedad	88
181877	7	Sololá	701	Sololá	2	El tablón	10	Octubre	2023-06-10T00:00:00	2024-11-06T07:00:00	6	Velocidad del viento	4.8
181878	7	Sololá	701	Sololá	2	El tablón	10	Octubre	2023-06-10T00:00:00	2024-11-06T07:00:00	7	Dirección del viento	4.83
181879	7	Sololá	701	Sololá	2	El tablón	10	Octubre	2023-06-10T00:00:00	2024-11-06T07:00:00	1	Precipitación	0
181880	7	Sololá	701	Sololá	2	El tablón	10	Octubre	2023-06-10T00:00:00	2024-11-06T07:00:00	8	Radiación solar	31
181881	7	Sololá	701	Sololá	2	El tablón	10	Octubre	2023-06-10T00:00:00	2024-11-06T08:00:00	2	Temperatura media	16.9
181882	7	Sololá	701	Sololá	2	El tablón	10	Octubre	2023-06-10T00:00:00	2024-11-06T08:00:00	4	Temperatura máxima	17
181883	7	Sololá	701	Sololá	2	El tablón	10	Octubre	2023-06-10T00:00:00	2024-11-06T08:00:00	3	Temperatura mínima	14.1
181884	7	Sololá	701	Sololá	2	El tablón	10	Octubre	2023-06-10T00:00:00	2024-11-06T08:00:00	5	Humedad	81
181885	7	Sololá	701	Sololá	2	El tablón	10	Octubre	2023-06-10T00:00:00	2024-11-06T08:00:00	6	Velocidad del viento	4.8
181886	7	Sololá	701	Sololá	2	El tablón	10	Octubre	2023-06-10T00:00:00	2024-11-06T08:00:00	7	Dirección del viento	4.83
181887	7	Sololá	701	Sololá	2	El tablón	10	Octubre	2023-06-10T00:00:00	2024-11-06T08:00:00	1	Precipitación	0
181888	7	Sololá	701	Sololá	2	El tablón	10	Octubre	2023-06-10T00:00:00	2024-11-06T08:00:00	8	Radiación solar	179
181889	7	Sololá	701	Sololá	2	El tablón	10	Octubre	2023-06-10T00:00:00	2024-11-06T09:00:00	2	Temperatura media	18.6
181890	7	Sololá	701	Sololá	2	El tablón	10	Octubre	2023-06-10T00:00:00	2024-11-06T09:00:00	4	Temperatura máxima	18.7
181891	7	Sololá	701	Sololá	2	El tablón	10	Octubre	2023-06-10T00:00:00	2024-11-06T09:00:00	3	Temperatura mínima	16.9
181892	7	Sololá	701	Sololá	2	El tablón	10	Octubre	2023-06-10T00:00:00	2024-11-06T09:00:00	5	Humedad	76
181893	7	Sololá	701	Sololá	2	El tablón	10	Octubre	2023-06-10T00:00:00	2024-11-06T09:00:00	6	Velocidad del viento	6.4
181894	7	Sololá	701	Sololá	2	El tablón	10	Octubre	2023-06-10T00:00:00	2024-11-06T09:00:00	7	Dirección del viento	6.44
181895	7	Sololá	701	Sololá	2	El tablón	10	Octubre	2023-06-10T00:00:00	2024-11-06T09:00:00	1	Precipitación	0
181896	7	Sololá	701	Sololá	2	El tablón	10	Octubre	2023-06-10T00:00:00	2024-11-06T09:00:00	8	Radiación solar	442
181897	7	Sololá	701	Sololá	2	El tablón	10	Octubre	2023-06-10T00:00:00	2024-11-06T10:00:00	2	Temperatura media	18.6
181898	7	Sololá	701	Sololá	2	El tablón	10	Octubre	2023-06-10T00:00:00	2024-11-06T10:00:00	4	Temperatura máxima	19.2
181899	7	Sololá	701	Sololá	2	El tablón	10	Octubre	2023-06-10T00:00:00	2024-11-06T10:00:00	3	Temperatura mínima	18.5
181900	7	Sololá	701	Sololá	2	El tablón	10	Octubre	2023-06-10T00:00:00	2024-11-06T10:00:00	5	Humedad	82
181901	7	Sololá	701	Sololá	2	El tablón	10	Octubre	2023-06-10T00:00:00	2024-11-06T10:00:00	6	Velocidad del viento	6.4
181902	7	Sololá	701	Sololá	2	El tablón	10	Octubre	2023-06-10T00:00:00	2024-11-06T10:00:00	7	Dirección del viento	6.44
181903	7	Sololá	701	Sololá	2	El tablón	10	Octubre	2023-06-10T00:00:00	2024-11-06T10:00:00	1	Precipitación	0
181904	7	Sololá	701	Sololá	2	El tablón	10	Octubre	2023-06-10T00:00:00	2024-11-06T10:00:00	8	Radiación solar	520
181905	7	Sololá	701	Sololá	2	El tablón	10	Octubre	2023-06-10T00:00:00	2024-11-06T11:00:00	2	Temperatura media	18.7
181906	7	Sololá	701	Sololá	2	El tablón	10	Octubre	2023-06-10T00:00:00	2024-11-06T11:00:00	4	Temperatura máxima	18.7
181907	7	Sololá	701	Sololá	2	El tablón	10	Octubre	2023-06-10T00:00:00	2024-11-06T11:00:00	3	Temperatura mínima	16.8
181908	7	Sololá	701	Sololá	2	El tablón	10	Octubre	2023-06-10T00:00:00	2024-11-06T11:00:00	5	Humedad	84
181909	7	Sololá	701	Sololá	2	El tablón	10	Octubre	2023-06-10T00:00:00	2024-11-06T11:00:00	6	Velocidad del viento	6.4
181910	7	Sololá	701	Sololá	2	El tablón	10	Octubre	2023-06-10T00:00:00	2024-11-06T11:00:00	7	Dirección del viento	6.44
181911	7	Sololá	701	Sololá	2	El tablón	10	Octubre	2023-06-10T00:00:00	2024-11-06T11:00:00	1	Precipitación	0
181912	7	Sololá	701	Sololá	2	El tablón	10	Octubre	2023-06-10T00:00:00	2024-11-06T11:00:00	8	Radiación solar	660
181913	7	Sololá	701	Sololá	2	El tablón	10	Octubre	2023-06-10T00:00:00	2024-11-06T12:00:00	2	Temperatura media	18.4
181914	7	Sololá	701	Sololá	2	El tablón	10	Octubre	2023-06-10T00:00:00	2024-11-06T12:00:00	4	Temperatura máxima	19.4
181915	7	Sololá	701	Sololá	2	El tablón	10	Octubre	2023-06-10T00:00:00	2024-11-06T12:00:00	3	Temperatura mínima	18.3
181916	7	Sololá	701	Sololá	2	El tablón	10	Octubre	2023-06-10T00:00:00	2024-11-06T12:00:00	5	Humedad	84
181917	7	Sololá	701	Sololá	2	El tablón	10	Octubre	2023-06-10T00:00:00	2024-11-06T12:00:00	6	Velocidad del viento	6.4
181918	7	Sololá	701	Sololá	2	El tablón	10	Octubre	2023-06-10T00:00:00	2024-11-06T12:00:00	7	Dirección del viento	6.44
181919	7	Sololá	701	Sololá	2	El tablón	10	Octubre	2023-06-10T00:00:00	2024-11-06T12:00:00	1	Precipitación	0
181920	7	Sololá	701	Sololá	2	El tablón	10	Octubre	2023-06-10T00:00:00	2024-11-06T12:00:00	8	Radiación solar	507
181921	7	Sololá	701	Sololá	2	El tablón	10	Octubre	2023-06-10T00:00:00	2024-11-06T13:00:00	2	Temperatura media	17.7
181922	7	Sololá	701	Sololá	2	El tablón	10	Octubre	2023-06-10T00:00:00	2024-11-06T13:00:00	4	Temperatura máxima	18.7
181923	7	Sololá	701	Sololá	2	El tablón	10	Octubre	2023-06-10T00:00:00	2024-11-06T13:00:00	3	Temperatura mínima	17.4
181924	7	Sololá	701	Sololá	2	El tablón	10	Octubre	2023-06-10T00:00:00	2024-11-06T13:00:00	5	Humedad	86
181925	7	Sololá	701	Sololá	2	El tablón	10	Octubre	2023-06-10T00:00:00	2024-11-06T13:00:00	6	Velocidad del viento	6.4
181926	7	Sololá	701	Sololá	2	El tablón	10	Octubre	2023-06-10T00:00:00	2024-11-06T13:00:00	7	Dirección del viento	6.44
181927	7	Sololá	701	Sololá	2	El tablón	10	Octubre	2023-06-10T00:00:00	2024-11-06T13:00:00	1	Precipitación	0
181928	7	Sololá	701	Sololá	2	El tablón	10	Octubre	2023-06-10T00:00:00	2024-11-06T13:00:00	8	Radiación solar	270
181929	7	Sololá	701	Sololá	2	El tablón	10	Octubre	2023-06-10T00:00:00	2024-11-06T14:00:00	2	Temperatura media	18.8
181930	7	Sololá	701	Sololá	2	El tablón	10	Octubre	2023-06-10T00:00:00	2024-11-06T14:00:00	4	Temperatura máxima	19.6
181931	7	Sololá	701	Sololá	2	El tablón	10	Octubre	2023-06-10T00:00:00	2024-11-06T14:00:00	3	Temperatura mínima	17.7
181932	7	Sololá	701	Sololá	2	El tablón	10	Octubre	2023-06-10T00:00:00	2024-11-06T14:00:00	5	Humedad	86
181933	7	Sololá	701	Sololá	2	El tablón	10	Octubre	2023-06-10T00:00:00	2024-11-06T14:00:00	6	Velocidad del viento	8
181934	7	Sololá	701	Sololá	2	El tablón	10	Octubre	2023-06-10T00:00:00	2024-11-06T14:00:00	7	Dirección del viento	8.05
181935	7	Sololá	701	Sololá	2	El tablón	10	Octubre	2023-06-10T00:00:00	2024-11-06T14:00:00	1	Precipitación	0
181936	7	Sololá	701	Sololá	2	El tablón	10	Octubre	2023-06-10T00:00:00	2024-11-06T14:00:00	8	Radiación solar	724
181937	7	Sololá	701	Sololá	2	El tablón	10	Octubre	2023-06-10T00:00:00	2024-11-06T15:00:00	2	Temperatura media	18
181938	7	Sololá	701	Sololá	2	El tablón	10	Octubre	2023-06-10T00:00:00	2024-11-06T15:00:00	4	Temperatura máxima	18.8
181939	7	Sololá	701	Sololá	2	El tablón	10	Octubre	2023-06-10T00:00:00	2024-11-06T15:00:00	3	Temperatura mínima	17.6
181940	7	Sololá	701	Sololá	2	El tablón	10	Octubre	2023-06-10T00:00:00	2024-11-06T15:00:00	5	Humedad	87
181941	7	Sololá	701	Sololá	2	El tablón	10	Octubre	2023-06-10T00:00:00	2024-11-06T15:00:00	6	Velocidad del viento	6.4
181942	7	Sololá	701	Sololá	2	El tablón	10	Octubre	2023-06-10T00:00:00	2024-11-06T15:00:00	7	Dirección del viento	6.44
181943	7	Sololá	701	Sololá	2	El tablón	10	Octubre	2023-06-10T00:00:00	2024-11-06T15:00:00	1	Precipitación	0
181944	7	Sololá	701	Sololá	2	El tablón	10	Octubre	2023-06-10T00:00:00	2024-11-06T15:00:00	8	Radiación solar	300
181945	7	Sololá	701	Sololá	2	El tablón	10	Octubre	2023-06-10T00:00:00	2024-11-06T16:00:00	2	Temperatura media	17.6
181946	7	Sololá	701	Sololá	2	El tablón	10	Octubre	2023-06-10T00:00:00	2024-11-06T16:00:00	4	Temperatura máxima	18.6
181947	7	Sololá	701	Sololá	2	El tablón	10	Octubre	2023-06-10T00:00:00	2024-11-06T16:00:00	3	Temperatura mínima	17.6
181948	7	Sololá	701	Sololá	2	El tablón	10	Octubre	2023-06-10T00:00:00	2024-11-06T16:00:00	5	Humedad	88
181949	7	Sololá	701	Sololá	2	El tablón	10	Octubre	2023-06-10T00:00:00	2024-11-06T16:00:00	6	Velocidad del viento	4.8
181950	7	Sololá	701	Sololá	2	El tablón	10	Octubre	2023-06-10T00:00:00	2024-11-06T16:00:00	7	Dirección del viento	4.83
181951	7	Sololá	701	Sololá	2	El tablón	10	Octubre	2023-06-10T00:00:00	2024-11-06T16:00:00	1	Precipitación	0
181952	7	Sololá	701	Sololá	2	El tablón	10	Octubre	2023-06-10T00:00:00	2024-11-06T16:00:00	8	Radiación solar	298
181953	7	Sololá	701	Sololá	2	El tablón	10	Octubre	2023-06-10T00:00:00	2024-11-06T17:00:00	2	Temperatura media	17.2
181954	7	Sololá	701	Sololá	2	El tablón	10	Octubre	2023-06-10T00:00:00	2024-11-06T17:00:00	4	Temperatura máxima	17.6
181955	7	Sololá	701	Sololá	2	El tablón	10	Octubre	2023-06-10T00:00:00	2024-11-06T17:00:00	3	Temperatura mínima	17.1
181956	7	Sololá	701	Sololá	2	El tablón	10	Octubre	2023-06-10T00:00:00	2024-11-06T17:00:00	5	Humedad	88
181957	7	Sololá	701	Sololá	2	El tablón	10	Octubre	2023-06-10T00:00:00	2024-11-06T17:00:00	6	Velocidad del viento	3.2
181958	7	Sololá	701	Sololá	2	El tablón	10	Octubre	2023-06-10T00:00:00	2024-11-06T17:00:00	7	Dirección del viento	3.22
181959	7	Sololá	701	Sololá	2	El tablón	10	Octubre	2023-06-10T00:00:00	2024-11-06T17:00:00	1	Precipitación	0
181960	7	Sololá	701	Sololá	2	El tablón	10	Octubre	2023-06-10T00:00:00	2024-11-06T17:00:00	8	Radiación solar	131
181961	7	Sololá	701	Sololá	2	El tablón	10	Octubre	2023-06-10T00:00:00	2024-11-06T18:00:00	2	Temperatura media	16.1
181962	7	Sololá	701	Sololá	2	El tablón	10	Octubre	2023-06-10T00:00:00	2024-11-06T18:00:00	4	Temperatura máxima	17.2
181963	7	Sololá	701	Sololá	2	El tablón	10	Octubre	2023-06-10T00:00:00	2024-11-06T18:00:00	3	Temperatura mínima	16.1
181964	7	Sololá	701	Sololá	2	El tablón	10	Octubre	2023-06-10T00:00:00	2024-11-06T18:00:00	5	Humedad	88
181965	7	Sololá	701	Sololá	2	El tablón	10	Octubre	2023-06-10T00:00:00	2024-11-06T18:00:00	6	Velocidad del viento	3.2
181966	7	Sololá	701	Sololá	2	El tablón	10	Octubre	2023-06-10T00:00:00	2024-11-06T18:00:00	7	Dirección del viento	3.22
181967	7	Sololá	701	Sololá	2	El tablón	10	Octubre	2023-06-10T00:00:00	2024-11-06T18:00:00	1	Precipitación	0
181968	7	Sololá	701	Sololá	2	El tablón	10	Octubre	2023-06-10T00:00:00	2024-11-06T18:00:00	8	Radiación solar	11
181969	7	Sololá	701	Sololá	2	El tablón	10	Octubre	2023-06-10T00:00:00	2024-11-06T19:00:00	2	Temperatura media	15.4
181970	7	Sololá	701	Sololá	2	El tablón	10	Octubre	2023-06-10T00:00:00	2024-11-06T19:00:00	4	Temperatura máxima	16.1
181971	7	Sololá	701	Sololá	2	El tablón	10	Octubre	2023-06-10T00:00:00	2024-11-06T19:00:00	3	Temperatura mínima	15.4
181972	7	Sololá	701	Sololá	2	El tablón	10	Octubre	2023-06-10T00:00:00	2024-11-06T19:00:00	5	Humedad	87
181973	7	Sololá	701	Sololá	2	El tablón	10	Octubre	2023-06-10T00:00:00	2024-11-06T19:00:00	6	Velocidad del viento	3.2
181974	7	Sololá	701	Sololá	2	El tablón	10	Octubre	2023-06-10T00:00:00	2024-11-06T19:00:00	7	Dirección del viento	3.22
181975	7	Sololá	701	Sololá	2	El tablón	10	Octubre	2023-06-10T00:00:00	2024-11-06T19:00:00	1	Precipitación	0
181976	7	Sololá	701	Sololá	2	El tablón	10	Octubre	2023-06-10T00:00:00	2024-11-06T19:00:00	8	Radiación solar	0
181977	7	Sololá	701	Sololá	2	El tablón	10	Octubre	2023-06-10T00:00:00	2024-11-06T20:00:00	2	Temperatura media	15.1
181978	7	Sololá	701	Sololá	2	El tablón	10	Octubre	2023-06-10T00:00:00	2024-11-06T20:00:00	4	Temperatura máxima	15.4
181979	7	Sololá	701	Sololá	2	El tablón	10	Octubre	2023-06-10T00:00:00	2024-11-06T20:00:00	3	Temperatura mínima	15.1
181980	7	Sololá	701	Sololá	2	El tablón	10	Octubre	2023-06-10T00:00:00	2024-11-06T20:00:00	5	Humedad	86
181981	7	Sololá	701	Sololá	2	El tablón	10	Octubre	2023-06-10T00:00:00	2024-11-06T20:00:00	6	Velocidad del viento	4.8
181982	7	Sololá	701	Sololá	2	El tablón	10	Octubre	2023-06-10T00:00:00	2024-11-06T20:00:00	7	Dirección del viento	4.83
181983	7	Sololá	701	Sololá	2	El tablón	10	Octubre	2023-06-10T00:00:00	2024-11-06T20:00:00	1	Precipitación	0
181984	7	Sololá	701	Sololá	2	El tablón	10	Octubre	2023-06-10T00:00:00	2024-11-06T20:00:00	8	Radiación solar	0
181985	7	Sololá	701	Sololá	2	El tablón	10	Octubre	2023-06-10T00:00:00	2024-11-06T21:00:00	2	Temperatura media	14.5
181986	7	Sololá	701	Sololá	2	El tablón	10	Octubre	2023-06-10T00:00:00	2024-11-06T21:00:00	4	Temperatura máxima	15.1
181987	7	Sololá	701	Sololá	2	El tablón	10	Octubre	2023-06-10T00:00:00	2024-11-06T21:00:00	3	Temperatura mínima	14.4
181988	7	Sololá	701	Sololá	2	El tablón	10	Octubre	2023-06-10T00:00:00	2024-11-06T21:00:00	5	Humedad	85
181989	7	Sololá	701	Sololá	2	El tablón	10	Octubre	2023-06-10T00:00:00	2024-11-06T21:00:00	6	Velocidad del viento	3.2
181990	7	Sololá	701	Sololá	2	El tablón	10	Octubre	2023-06-10T00:00:00	2024-11-06T21:00:00	7	Dirección del viento	3.22
181991	7	Sololá	701	Sololá	2	El tablón	10	Octubre	2023-06-10T00:00:00	2024-11-06T21:00:00	1	Precipitación	1.6
181992	7	Sololá	701	Sololá	2	El tablón	10	Octubre	2023-06-10T00:00:00	2024-11-06T21:00:00	8	Radiación solar	0
181993	7	Sololá	701	Sololá	2	El tablón	10	Octubre	2023-06-10T00:00:00	2024-11-06T22:00:00	2	Temperatura media	14.4
181994	7	Sololá	701	Sololá	2	El tablón	10	Octubre	2023-06-10T00:00:00	2024-11-06T22:00:00	4	Temperatura máxima	14.5
181995	7	Sololá	701	Sololá	2	El tablón	10	Octubre	2023-06-10T00:00:00	2024-11-06T22:00:00	3	Temperatura mínima	14.4
181996	7	Sololá	701	Sololá	2	El tablón	10	Octubre	2023-06-10T00:00:00	2024-11-06T22:00:00	5	Humedad	85
181997	7	Sololá	701	Sololá	2	El tablón	10	Octubre	2023-06-10T00:00:00	2024-11-06T22:00:00	6	Velocidad del viento	3.2
181998	7	Sololá	701	Sololá	2	El tablón	10	Octubre	2023-06-10T00:00:00	2024-11-06T22:00:00	7	Dirección del viento	3.22
181999	7	Sololá	701	Sololá	2	El tablón	10	Octubre	2023-06-10T00:00:00	2024-11-06T22:00:00	1	Precipitación	0
182000	7	Sololá	701	Sololá	2	El tablón	10	Octubre	2023-06-10T00:00:00	2024-11-06T22:00:00	8	Radiación solar	0
182001	7	Sololá	701	Sololá	2	El tablón	10	Octubre	2023-06-10T00:00:00	2024-11-06T23:00:00	2	Temperatura media	14.5
182002	7	Sololá	701	Sololá	2	El tablón	10	Octubre	2023-06-10T00:00:00	2024-11-06T23:00:00	4	Temperatura máxima	14.5
182003	7	Sololá	701	Sololá	2	El tablón	10	Octubre	2023-06-10T00:00:00	2024-11-06T23:00:00	3	Temperatura mínima	14.4
182004	7	Sololá	701	Sololá	2	El tablón	10	Octubre	2023-06-10T00:00:00	2024-11-06T23:00:00	5	Humedad	85
182005	7	Sololá	701	Sololá	2	El tablón	10	Octubre	2023-06-10T00:00:00	2024-11-06T23:00:00	6	Velocidad del viento	1.6
182006	7	Sololá	701	Sololá	2	El tablón	10	Octubre	2023-06-10T00:00:00	2024-11-06T23:00:00	7	Dirección del viento	1.61
182007	7	Sololá	701	Sololá	2	El tablón	10	Octubre	2023-06-10T00:00:00	2024-11-06T23:00:00	1	Precipitación	1
182008	7	Sololá	701	Sololá	2	El tablón	10	Octubre	2023-06-10T00:00:00	2024-11-06T23:00:00	8	Radiación solar	0
182009	7	Sololá	701	Sololá	2	El tablón	10	Octubre	2023-07-10T00:00:00	2024-11-06T00:00:00	2	Temperatura media	14.2
182010	7	Sololá	701	Sololá	2	El tablón	10	Octubre	2023-07-10T00:00:00	2024-11-06T00:00:00	4	Temperatura máxima	14.6
182011	7	Sololá	701	Sololá	2	El tablón	10	Octubre	2023-07-10T00:00:00	2024-11-06T00:00:00	3	Temperatura mínima	14.2
182012	7	Sololá	701	Sololá	2	El tablón	10	Octubre	2023-07-10T00:00:00	2024-11-06T00:00:00	5	Humedad	85
182013	7	Sololá	701	Sololá	2	El tablón	10	Octubre	2023-07-10T00:00:00	2024-11-06T00:00:00	6	Velocidad del viento	0
182014	7	Sololá	701	Sololá	2	El tablón	10	Octubre	2023-07-10T00:00:00	2024-11-06T00:00:00	7	Dirección del viento	0
182015	7	Sololá	701	Sololá	2	El tablón	10	Octubre	2023-07-10T00:00:00	2024-11-06T00:00:00	1	Precipitación	0.2
182016	7	Sololá	701	Sololá	2	El tablón	10	Octubre	2023-07-10T00:00:00	2024-11-06T00:00:00	8	Radiación solar	0
182017	7	Sololá	701	Sololá	2	El tablón	10	Octubre	2023-07-10T00:00:00	2024-11-06T01:00:00	2	Temperatura media	14
182018	7	Sololá	701	Sololá	2	El tablón	10	Octubre	2023-07-10T00:00:00	2024-11-06T01:00:00	4	Temperatura máxima	14.2
182019	7	Sololá	701	Sololá	2	El tablón	10	Octubre	2023-07-10T00:00:00	2024-11-06T01:00:00	3	Temperatura mínima	14
182020	7	Sololá	701	Sololá	2	El tablón	10	Octubre	2023-07-10T00:00:00	2024-11-06T01:00:00	5	Humedad	85
182021	7	Sololá	701	Sololá	2	El tablón	10	Octubre	2023-07-10T00:00:00	2024-11-06T01:00:00	6	Velocidad del viento	1.6
182022	7	Sololá	701	Sololá	2	El tablón	10	Octubre	2023-07-10T00:00:00	2024-11-06T01:00:00	7	Dirección del viento	1.61
182023	7	Sololá	701	Sololá	2	El tablón	10	Octubre	2023-07-10T00:00:00	2024-11-06T01:00:00	1	Precipitación	0.2
182024	7	Sololá	701	Sololá	2	El tablón	10	Octubre	2023-07-10T00:00:00	2024-11-06T01:00:00	8	Radiación solar	0
182025	7	Sololá	701	Sololá	2	El tablón	10	Octubre	2023-07-10T00:00:00	2024-11-06T02:00:00	2	Temperatura media	13.8
182026	7	Sololá	701	Sololá	2	El tablón	10	Octubre	2023-07-10T00:00:00	2024-11-06T02:00:00	4	Temperatura máxima	14
182027	7	Sololá	701	Sololá	2	El tablón	10	Octubre	2023-07-10T00:00:00	2024-11-06T02:00:00	3	Temperatura mínima	13.7
182028	7	Sololá	701	Sololá	2	El tablón	10	Octubre	2023-07-10T00:00:00	2024-11-06T02:00:00	5	Humedad	84
182029	7	Sololá	701	Sololá	2	El tablón	10	Octubre	2023-07-10T00:00:00	2024-11-06T02:00:00	6	Velocidad del viento	1.6
182030	7	Sololá	701	Sololá	2	El tablón	10	Octubre	2023-07-10T00:00:00	2024-11-06T02:00:00	7	Dirección del viento	1.61
182031	7	Sololá	701	Sololá	2	El tablón	10	Octubre	2023-07-10T00:00:00	2024-11-06T02:00:00	1	Precipitación	0
182032	7	Sololá	701	Sololá	2	El tablón	10	Octubre	2023-07-10T00:00:00	2024-11-06T02:00:00	8	Radiación solar	0
182033	7	Sololá	701	Sololá	2	El tablón	10	Octubre	2023-07-10T00:00:00	2024-11-06T03:00:00	2	Temperatura media	13.2
182034	7	Sololá	701	Sololá	2	El tablón	10	Octubre	2023-07-10T00:00:00	2024-11-06T03:00:00	4	Temperatura máxima	13.8
182035	7	Sololá	701	Sololá	2	El tablón	10	Octubre	2023-07-10T00:00:00	2024-11-06T03:00:00	3	Temperatura mínima	13.1
182036	7	Sololá	701	Sololá	2	El tablón	10	Octubre	2023-07-10T00:00:00	2024-11-06T03:00:00	5	Humedad	85
182037	7	Sololá	701	Sololá	2	El tablón	10	Octubre	2023-07-10T00:00:00	2024-11-06T03:00:00	6	Velocidad del viento	3.2
182038	7	Sololá	701	Sololá	2	El tablón	10	Octubre	2023-07-10T00:00:00	2024-11-06T03:00:00	7	Dirección del viento	3.22
182039	7	Sololá	701	Sololá	2	El tablón	10	Octubre	2023-07-10T00:00:00	2024-11-06T03:00:00	1	Precipitación	0
182040	7	Sololá	701	Sololá	2	El tablón	10	Octubre	2023-07-10T00:00:00	2024-11-06T03:00:00	8	Radiación solar	0
182041	7	Sololá	701	Sololá	2	El tablón	10	Octubre	2023-07-10T00:00:00	2024-11-06T04:00:00	2	Temperatura media	14.5
182042	7	Sololá	701	Sololá	2	El tablón	10	Octubre	2023-07-10T00:00:00	2024-11-06T04:00:00	4	Temperatura máxima	14.5
182043	7	Sololá	701	Sololá	2	El tablón	10	Octubre	2023-07-10T00:00:00	2024-11-06T04:00:00	3	Temperatura mínima	13.1
182044	7	Sololá	701	Sololá	2	El tablón	10	Octubre	2023-07-10T00:00:00	2024-11-06T04:00:00	5	Humedad	88
182045	7	Sololá	701	Sololá	2	El tablón	10	Octubre	2023-07-10T00:00:00	2024-11-06T04:00:00	6	Velocidad del viento	6.4
182046	7	Sololá	701	Sololá	2	El tablón	10	Octubre	2023-07-10T00:00:00	2024-11-06T04:00:00	7	Dirección del viento	6.44
182047	7	Sololá	701	Sololá	2	El tablón	10	Octubre	2023-07-10T00:00:00	2024-11-06T04:00:00	1	Precipitación	0
182048	7	Sololá	701	Sololá	2	El tablón	10	Octubre	2023-07-10T00:00:00	2024-11-06T04:00:00	8	Radiación solar	0
182049	7	Sololá	701	Sololá	2	El tablón	10	Octubre	2023-07-10T00:00:00	2024-11-06T05:00:00	2	Temperatura media	13.7
182050	7	Sololá	701	Sololá	2	El tablón	10	Octubre	2023-07-10T00:00:00	2024-11-06T05:00:00	4	Temperatura máxima	14.7
182051	7	Sololá	701	Sololá	2	El tablón	10	Octubre	2023-07-10T00:00:00	2024-11-06T05:00:00	3	Temperatura mínima	13.7
182052	7	Sololá	701	Sololá	2	El tablón	10	Octubre	2023-07-10T00:00:00	2024-11-06T05:00:00	5	Humedad	88
182053	7	Sololá	701	Sololá	2	El tablón	10	Octubre	2023-07-10T00:00:00	2024-11-06T05:00:00	6	Velocidad del viento	3.2
182054	7	Sololá	701	Sololá	2	El tablón	10	Octubre	2023-07-10T00:00:00	2024-11-06T05:00:00	7	Dirección del viento	3.22
182055	7	Sololá	701	Sololá	2	El tablón	10	Octubre	2023-07-10T00:00:00	2024-11-06T05:00:00	1	Precipitación	0
182056	7	Sololá	701	Sololá	2	El tablón	10	Octubre	2023-07-10T00:00:00	2024-11-06T05:00:00	8	Radiación solar	0
182057	7	Sololá	701	Sololá	2	El tablón	10	Octubre	2023-07-10T00:00:00	2024-11-06T06:00:00	2	Temperatura media	13.3
182058	7	Sololá	701	Sololá	2	El tablón	10	Octubre	2023-07-10T00:00:00	2024-11-06T06:00:00	4	Temperatura máxima	13.8
182059	7	Sololá	701	Sololá	2	El tablón	10	Octubre	2023-07-10T00:00:00	2024-11-06T06:00:00	3	Temperatura mínima	13.3
182060	7	Sololá	701	Sololá	2	El tablón	10	Octubre	2023-07-10T00:00:00	2024-11-06T06:00:00	5	Humedad	88
182061	7	Sololá	701	Sololá	2	El tablón	10	Octubre	2023-07-10T00:00:00	2024-11-06T06:00:00	6	Velocidad del viento	1.6
182062	7	Sololá	701	Sololá	2	El tablón	10	Octubre	2023-07-10T00:00:00	2024-11-06T06:00:00	7	Dirección del viento	1.61
182063	7	Sololá	701	Sololá	2	El tablón	10	Octubre	2023-07-10T00:00:00	2024-11-06T06:00:00	1	Precipitación	0
182064	7	Sololá	701	Sololá	2	El tablón	10	Octubre	2023-07-10T00:00:00	2024-11-06T06:00:00	8	Radiación solar	1
182065	7	Sololá	701	Sololá	2	El tablón	10	Octubre	2023-07-10T00:00:00	2024-11-06T07:00:00	2	Temperatura media	13.9
182066	7	Sololá	701	Sololá	2	El tablón	10	Octubre	2023-07-10T00:00:00	2024-11-06T07:00:00	4	Temperatura máxima	13.9
182067	7	Sololá	701	Sololá	2	El tablón	10	Octubre	2023-07-10T00:00:00	2024-11-06T07:00:00	3	Temperatura mínima	13.2
182068	7	Sololá	701	Sololá	2	El tablón	10	Octubre	2023-07-10T00:00:00	2024-11-06T07:00:00	5	Humedad	87
182069	7	Sololá	701	Sololá	2	El tablón	10	Octubre	2023-07-10T00:00:00	2024-11-06T07:00:00	6	Velocidad del viento	1.6
182070	7	Sololá	701	Sololá	2	El tablón	10	Octubre	2023-07-10T00:00:00	2024-11-06T07:00:00	7	Dirección del viento	1.61
182071	7	Sololá	701	Sololá	2	El tablón	10	Octubre	2023-07-10T00:00:00	2024-11-06T07:00:00	1	Precipitación	0
182072	7	Sololá	701	Sololá	2	El tablón	10	Octubre	2023-07-10T00:00:00	2024-11-06T07:00:00	8	Radiación solar	56
182073	7	Sololá	701	Sololá	2	El tablón	10	Octubre	2023-07-10T00:00:00	2024-11-06T08:00:00	2	Temperatura media	15.8
182074	7	Sololá	701	Sololá	2	El tablón	10	Octubre	2023-07-10T00:00:00	2024-11-06T08:00:00	4	Temperatura máxima	15.8
182075	7	Sololá	701	Sololá	2	El tablón	10	Octubre	2023-07-10T00:00:00	2024-11-06T08:00:00	3	Temperatura mínima	13.9
182076	7	Sololá	701	Sololá	2	El tablón	10	Octubre	2023-07-10T00:00:00	2024-11-06T08:00:00	5	Humedad	88
182077	7	Sololá	701	Sololá	2	El tablón	10	Octubre	2023-07-10T00:00:00	2024-11-06T08:00:00	6	Velocidad del viento	0
182078	7	Sololá	701	Sololá	2	El tablón	10	Octubre	2023-07-10T00:00:00	2024-11-06T08:00:00	7	Dirección del viento	0
182079	7	Sololá	701	Sololá	2	El tablón	10	Octubre	2023-07-10T00:00:00	2024-11-06T08:00:00	1	Precipitación	0
182080	7	Sololá	701	Sololá	2	El tablón	10	Octubre	2023-07-10T00:00:00	2024-11-06T08:00:00	8	Radiación solar	174
182081	7	Sololá	701	Sololá	2	El tablón	10	Octubre	2023-07-10T00:00:00	2024-11-06T09:00:00	2	Temperatura media	16
182082	7	Sololá	701	Sololá	2	El tablón	10	Octubre	2023-07-10T00:00:00	2024-11-06T09:00:00	4	Temperatura máxima	16.1
182083	7	Sololá	701	Sololá	2	El tablón	10	Octubre	2023-07-10T00:00:00	2024-11-06T09:00:00	3	Temperatura mínima	15.7
182084	7	Sololá	701	Sololá	2	El tablón	10	Octubre	2023-07-10T00:00:00	2024-11-06T09:00:00	5	Humedad	88
182085	7	Sololá	701	Sololá	2	El tablón	10	Octubre	2023-07-10T00:00:00	2024-11-06T09:00:00	6	Velocidad del viento	1.6
182086	7	Sololá	701	Sololá	2	El tablón	10	Octubre	2023-07-10T00:00:00	2024-11-06T09:00:00	7	Dirección del viento	1.61
182087	7	Sololá	701	Sololá	2	El tablón	10	Octubre	2023-07-10T00:00:00	2024-11-06T09:00:00	1	Precipitación	0
182088	7	Sololá	701	Sololá	2	El tablón	10	Octubre	2023-07-10T00:00:00	2024-11-06T09:00:00	8	Radiación solar	184
182089	7	Sololá	701	Sololá	2	El tablón	10	Octubre	2023-07-10T00:00:00	2024-11-06T10:00:00	2	Temperatura media	19.2
182090	7	Sololá	701	Sololá	2	El tablón	10	Octubre	2023-07-10T00:00:00	2024-11-06T10:00:00	4	Temperatura máxima	19.2
182091	7	Sololá	701	Sololá	2	El tablón	10	Octubre	2023-07-10T00:00:00	2024-11-06T10:00:00	3	Temperatura mínima	16
182092	7	Sololá	701	Sololá	2	El tablón	10	Octubre	2023-07-10T00:00:00	2024-11-06T10:00:00	5	Humedad	76
182093	7	Sololá	701	Sololá	2	El tablón	10	Octubre	2023-07-10T00:00:00	2024-11-06T10:00:00	6	Velocidad del viento	4.8
182094	7	Sololá	701	Sololá	2	El tablón	10	Octubre	2023-07-10T00:00:00	2024-11-06T10:00:00	7	Dirección del viento	4.83
182095	7	Sololá	701	Sololá	2	El tablón	10	Octubre	2023-07-10T00:00:00	2024-11-06T10:00:00	1	Precipitación	0
182096	7	Sololá	701	Sololá	2	El tablón	10	Octubre	2023-07-10T00:00:00	2024-11-06T10:00:00	8	Radiación solar	485
182097	7	Sololá	701	Sololá	2	El tablón	10	Octubre	2023-07-10T00:00:00	2024-11-06T11:00:00	2	Temperatura media	20.4
182098	7	Sololá	701	Sololá	2	El tablón	10	Octubre	2023-07-10T00:00:00	2024-11-06T11:00:00	4	Temperatura máxima	20.5
182099	7	Sololá	701	Sololá	2	El tablón	10	Octubre	2023-07-10T00:00:00	2024-11-06T11:00:00	3	Temperatura mínima	19.2
182100	7	Sololá	701	Sololá	2	El tablón	10	Octubre	2023-07-10T00:00:00	2024-11-06T11:00:00	5	Humedad	73
182101	7	Sololá	701	Sololá	2	El tablón	10	Octubre	2023-07-10T00:00:00	2024-11-06T11:00:00	6	Velocidad del viento	4.8
182102	7	Sololá	701	Sololá	2	El tablón	10	Octubre	2023-07-10T00:00:00	2024-11-06T11:00:00	7	Dirección del viento	4.83
182103	7	Sololá	701	Sololá	2	El tablón	10	Octubre	2023-07-10T00:00:00	2024-11-06T11:00:00	1	Precipitación	0
182104	7	Sololá	701	Sololá	2	El tablón	10	Octubre	2023-07-10T00:00:00	2024-11-06T11:00:00	8	Radiación solar	800
182105	7	Sololá	701	Sololá	2	El tablón	10	Octubre	2023-07-10T00:00:00	2024-11-06T12:00:00	2	Temperatura media	20
182106	7	Sololá	701	Sololá	2	El tablón	10	Octubre	2023-07-10T00:00:00	2024-11-06T12:00:00	4	Temperatura máxima	21.3
182107	7	Sololá	701	Sololá	2	El tablón	10	Octubre	2023-07-10T00:00:00	2024-11-06T12:00:00	3	Temperatura mínima	20
182108	7	Sololá	701	Sololá	2	El tablón	10	Octubre	2023-07-10T00:00:00	2024-11-06T12:00:00	5	Humedad	73
182109	7	Sololá	701	Sololá	2	El tablón	10	Octubre	2023-07-10T00:00:00	2024-11-06T12:00:00	6	Velocidad del viento	6.4
182110	7	Sololá	701	Sololá	2	El tablón	10	Octubre	2023-07-10T00:00:00	2024-11-06T12:00:00	7	Dirección del viento	6.44
182111	7	Sololá	701	Sololá	2	El tablón	10	Octubre	2023-07-10T00:00:00	2024-11-06T12:00:00	1	Precipitación	0
182112	7	Sololá	701	Sololá	2	El tablón	10	Octubre	2023-07-10T00:00:00	2024-11-06T12:00:00	8	Radiación solar	512
182113	7	Sololá	701	Sololá	2	El tablón	10	Octubre	2023-07-10T00:00:00	2024-11-06T13:00:00	2	Temperatura media	19.1
182114	7	Sololá	701	Sololá	2	El tablón	10	Octubre	2023-07-10T00:00:00	2024-11-06T13:00:00	4	Temperatura máxima	20.8
182115	7	Sololá	701	Sololá	2	El tablón	10	Octubre	2023-07-10T00:00:00	2024-11-06T13:00:00	3	Temperatura mínima	18.9
182116	7	Sololá	701	Sololá	2	El tablón	10	Octubre	2023-07-10T00:00:00	2024-11-06T13:00:00	5	Humedad	84
182117	7	Sololá	701	Sololá	2	El tablón	10	Octubre	2023-07-10T00:00:00	2024-11-06T13:00:00	6	Velocidad del viento	6.4
182118	7	Sololá	701	Sololá	2	El tablón	10	Octubre	2023-07-10T00:00:00	2024-11-06T13:00:00	7	Dirección del viento	6.44
182119	7	Sololá	701	Sololá	2	El tablón	10	Octubre	2023-07-10T00:00:00	2024-11-06T13:00:00	1	Precipitación	0
182120	7	Sololá	701	Sololá	2	El tablón	10	Octubre	2023-07-10T00:00:00	2024-11-06T13:00:00	8	Radiación solar	326
182121	7	Sololá	701	Sololá	2	El tablón	10	Octubre	2023-07-10T00:00:00	2024-11-06T14:00:00	2	Temperatura media	19.9
182122	7	Sololá	701	Sololá	2	El tablón	10	Octubre	2023-07-10T00:00:00	2024-11-06T14:00:00	4	Temperatura máxima	20.2
182123	7	Sololá	701	Sololá	2	El tablón	10	Octubre	2023-07-10T00:00:00	2024-11-06T14:00:00	3	Temperatura mínima	19.1
182124	7	Sololá	701	Sololá	2	El tablón	10	Octubre	2023-07-10T00:00:00	2024-11-06T14:00:00	5	Humedad	85
182125	7	Sololá	701	Sololá	2	El tablón	10	Octubre	2023-07-10T00:00:00	2024-11-06T14:00:00	6	Velocidad del viento	4.8
182126	7	Sololá	701	Sololá	2	El tablón	10	Octubre	2023-07-10T00:00:00	2024-11-06T14:00:00	7	Dirección del viento	4.83
182127	7	Sololá	701	Sololá	2	El tablón	10	Octubre	2023-07-10T00:00:00	2024-11-06T14:00:00	1	Precipitación	0
182128	7	Sololá	701	Sololá	2	El tablón	10	Octubre	2023-07-10T00:00:00	2024-11-06T14:00:00	8	Radiación solar	363
182129	7	Sololá	701	Sololá	2	El tablón	10	Octubre	2023-07-10T00:00:00	2024-11-06T15:00:00	2	Temperatura media	17.6
182130	7	Sololá	701	Sololá	2	El tablón	10	Octubre	2023-07-10T00:00:00	2024-11-06T15:00:00	4	Temperatura máxima	19.9
182131	7	Sololá	701	Sololá	2	El tablón	10	Octubre	2023-07-10T00:00:00	2024-11-06T15:00:00	3	Temperatura mínima	17.6
182132	7	Sololá	701	Sololá	2	El tablón	10	Octubre	2023-07-10T00:00:00	2024-11-06T15:00:00	5	Humedad	88
182133	7	Sololá	701	Sololá	2	El tablón	10	Octubre	2023-07-10T00:00:00	2024-11-06T15:00:00	6	Velocidad del viento	8
182134	7	Sololá	701	Sololá	2	El tablón	10	Octubre	2023-07-10T00:00:00	2024-11-06T15:00:00	7	Dirección del viento	8.05
182135	7	Sololá	701	Sololá	2	El tablón	10	Octubre	2023-07-10T00:00:00	2024-11-06T15:00:00	1	Precipitación	0
182136	7	Sololá	701	Sololá	2	El tablón	10	Octubre	2023-07-10T00:00:00	2024-11-06T15:00:00	8	Radiación solar	192
182137	7	Sololá	701	Sololá	2	El tablón	10	Octubre	2023-07-10T00:00:00	2024-11-06T16:00:00	2	Temperatura media	16.3
182138	7	Sololá	701	Sololá	2	El tablón	10	Octubre	2023-07-10T00:00:00	2024-11-06T16:00:00	4	Temperatura máxima	17.6
182139	7	Sololá	701	Sololá	2	El tablón	10	Octubre	2023-07-10T00:00:00	2024-11-06T16:00:00	3	Temperatura mínima	16.2
182140	7	Sololá	701	Sololá	2	El tablón	10	Octubre	2023-07-10T00:00:00	2024-11-06T16:00:00	5	Humedad	86
182141	7	Sololá	701	Sololá	2	El tablón	10	Octubre	2023-07-10T00:00:00	2024-11-06T16:00:00	6	Velocidad del viento	4.8
182142	7	Sololá	701	Sololá	2	El tablón	10	Octubre	2023-07-10T00:00:00	2024-11-06T16:00:00	7	Dirección del viento	4.83
182143	7	Sololá	701	Sololá	2	El tablón	10	Octubre	2023-07-10T00:00:00	2024-11-06T16:00:00	1	Precipitación	0.6
182144	7	Sololá	701	Sololá	2	El tablón	10	Octubre	2023-07-10T00:00:00	2024-11-06T16:00:00	8	Radiación solar	63
182145	7	Sololá	701	Sololá	2	El tablón	10	Octubre	2023-07-10T00:00:00	2024-11-06T17:00:00	2	Temperatura media	16.3
182146	7	Sololá	701	Sololá	2	El tablón	10	Octubre	2023-07-10T00:00:00	2024-11-06T17:00:00	4	Temperatura máxima	16.4
182147	7	Sololá	701	Sololá	2	El tablón	10	Octubre	2023-07-10T00:00:00	2024-11-06T17:00:00	3	Temperatura mínima	15.7
182148	7	Sololá	701	Sololá	2	El tablón	10	Octubre	2023-07-10T00:00:00	2024-11-06T17:00:00	5	Humedad	86
182149	7	Sololá	701	Sololá	2	El tablón	10	Octubre	2023-07-10T00:00:00	2024-11-06T17:00:00	6	Velocidad del viento	1.6
182150	7	Sololá	701	Sololá	2	El tablón	10	Octubre	2023-07-10T00:00:00	2024-11-06T17:00:00	7	Dirección del viento	1.61
182151	7	Sololá	701	Sololá	2	El tablón	10	Octubre	2023-07-10T00:00:00	2024-11-06T17:00:00	1	Precipitación	0.2
182152	7	Sololá	701	Sololá	2	El tablón	10	Octubre	2023-07-10T00:00:00	2024-11-06T17:00:00	8	Radiación solar	14
182153	7	Sololá	701	Sololá	2	El tablón	10	Octubre	2023-07-10T00:00:00	2024-11-06T18:00:00	2	Temperatura media	15.6
182154	7	Sololá	701	Sololá	2	El tablón	10	Octubre	2023-07-10T00:00:00	2024-11-06T18:00:00	4	Temperatura máxima	16.3
182155	7	Sololá	701	Sololá	2	El tablón	10	Octubre	2023-07-10T00:00:00	2024-11-06T18:00:00	3	Temperatura mínima	15.5
182156	7	Sololá	701	Sololá	2	El tablón	10	Octubre	2023-07-10T00:00:00	2024-11-06T18:00:00	5	Humedad	86
182157	7	Sololá	701	Sololá	2	El tablón	10	Octubre	2023-07-10T00:00:00	2024-11-06T18:00:00	6	Velocidad del viento	1.6
182158	7	Sololá	701	Sololá	2	El tablón	10	Octubre	2023-07-10T00:00:00	2024-11-06T18:00:00	7	Dirección del viento	1.61
182159	7	Sololá	701	Sololá	2	El tablón	10	Octubre	2023-07-10T00:00:00	2024-11-06T18:00:00	1	Precipitación	0
182160	7	Sololá	701	Sololá	2	El tablón	10	Octubre	2023-07-10T00:00:00	2024-11-06T18:00:00	8	Radiación solar	3
182161	7	Sololá	701	Sololá	2	El tablón	10	Octubre	2023-07-10T00:00:00	2024-11-06T19:00:00	2	Temperatura media	14.7
182162	7	Sololá	701	Sololá	2	El tablón	10	Octubre	2023-07-10T00:00:00	2024-11-06T19:00:00	4	Temperatura máxima	15.6
182163	7	Sololá	701	Sololá	2	El tablón	10	Octubre	2023-07-10T00:00:00	2024-11-06T19:00:00	3	Temperatura mínima	14.7
182164	7	Sololá	701	Sololá	2	El tablón	10	Octubre	2023-07-10T00:00:00	2024-11-06T19:00:00	5	Humedad	86
182165	7	Sololá	701	Sololá	2	El tablón	10	Octubre	2023-07-10T00:00:00	2024-11-06T19:00:00	6	Velocidad del viento	3.2
182166	7	Sololá	701	Sololá	2	El tablón	10	Octubre	2023-07-10T00:00:00	2024-11-06T19:00:00	7	Dirección del viento	3.22
182167	7	Sololá	701	Sololá	2	El tablón	10	Octubre	2023-07-10T00:00:00	2024-11-06T19:00:00	1	Precipitación	0.4
182168	7	Sololá	701	Sololá	2	El tablón	10	Octubre	2023-07-10T00:00:00	2024-11-06T19:00:00	8	Radiación solar	0
182169	7	Sololá	701	Sololá	2	El tablón	10	Octubre	2023-07-10T00:00:00	2024-11-06T20:00:00	2	Temperatura media	14.2
182170	7	Sololá	701	Sololá	2	El tablón	10	Octubre	2023-07-10T00:00:00	2024-11-06T20:00:00	4	Temperatura máxima	14.7
182171	7	Sololá	701	Sololá	2	El tablón	10	Octubre	2023-07-10T00:00:00	2024-11-06T20:00:00	3	Temperatura mínima	14.1
182172	7	Sololá	701	Sololá	2	El tablón	10	Octubre	2023-07-10T00:00:00	2024-11-06T20:00:00	5	Humedad	86
182173	7	Sololá	701	Sololá	2	El tablón	10	Octubre	2023-07-10T00:00:00	2024-11-06T20:00:00	6	Velocidad del viento	1.6
182174	7	Sololá	701	Sololá	2	El tablón	10	Octubre	2023-07-10T00:00:00	2024-11-06T20:00:00	7	Dirección del viento	1.61
182175	7	Sololá	701	Sololá	2	El tablón	10	Octubre	2023-07-10T00:00:00	2024-11-06T20:00:00	1	Precipitación	16.8
182176	7	Sololá	701	Sololá	2	El tablón	10	Octubre	2023-07-10T00:00:00	2024-11-06T20:00:00	8	Radiación solar	0
182177	7	Sololá	701	Sololá	2	El tablón	10	Octubre	2023-07-10T00:00:00	2024-11-06T21:00:00	2	Temperatura media	13.9
182178	7	Sololá	701	Sololá	2	El tablón	10	Octubre	2023-07-10T00:00:00	2024-11-06T21:00:00	4	Temperatura máxima	14.3
182179	7	Sololá	701	Sololá	2	El tablón	10	Octubre	2023-07-10T00:00:00	2024-11-06T21:00:00	3	Temperatura mínima	13.9
182180	7	Sololá	701	Sololá	2	El tablón	10	Octubre	2023-07-10T00:00:00	2024-11-06T21:00:00	5	Humedad	86
182181	7	Sololá	701	Sololá	2	El tablón	10	Octubre	2023-07-10T00:00:00	2024-11-06T21:00:00	6	Velocidad del viento	1.6
182182	7	Sololá	701	Sololá	2	El tablón	10	Octubre	2023-07-10T00:00:00	2024-11-06T21:00:00	7	Dirección del viento	1.61
182183	7	Sololá	701	Sololá	2	El tablón	10	Octubre	2023-07-10T00:00:00	2024-11-06T21:00:00	1	Precipitación	6.2
182184	7	Sololá	701	Sololá	2	El tablón	10	Octubre	2023-07-10T00:00:00	2024-11-06T21:00:00	8	Radiación solar	0
182185	7	Sololá	701	Sololá	2	El tablón	10	Octubre	2023-07-10T00:00:00	2024-11-06T22:00:00	2	Temperatura media	13
182186	7	Sololá	701	Sololá	2	El tablón	10	Octubre	2023-07-10T00:00:00	2024-11-06T22:00:00	4	Temperatura máxima	13.9
182187	7	Sololá	701	Sololá	2	El tablón	10	Octubre	2023-07-10T00:00:00	2024-11-06T22:00:00	3	Temperatura mínima	12.9
182188	7	Sololá	701	Sololá	2	El tablón	10	Octubre	2023-07-10T00:00:00	2024-11-06T22:00:00	5	Humedad	87
182189	7	Sololá	701	Sololá	2	El tablón	10	Octubre	2023-07-10T00:00:00	2024-11-06T22:00:00	6	Velocidad del viento	1.6
182190	7	Sololá	701	Sololá	2	El tablón	10	Octubre	2023-07-10T00:00:00	2024-11-06T22:00:00	7	Dirección del viento	1.61
182191	7	Sololá	701	Sololá	2	El tablón	10	Octubre	2023-07-10T00:00:00	2024-11-06T22:00:00	1	Precipitación	5.6
182192	7	Sololá	701	Sololá	2	El tablón	10	Octubre	2023-07-10T00:00:00	2024-11-06T22:00:00	8	Radiación solar	0
182193	7	Sololá	701	Sololá	2	El tablón	10	Octubre	2023-07-10T00:00:00	2024-11-06T23:00:00	2	Temperatura media	13.2
182194	7	Sololá	701	Sololá	2	El tablón	10	Octubre	2023-07-10T00:00:00	2024-11-06T23:00:00	4	Temperatura máxima	13.2
182195	7	Sololá	701	Sololá	2	El tablón	10	Octubre	2023-07-10T00:00:00	2024-11-06T23:00:00	3	Temperatura mínima	13
182196	7	Sololá	701	Sololá	2	El tablón	10	Octubre	2023-07-10T00:00:00	2024-11-06T23:00:00	5	Humedad	86
182197	7	Sololá	701	Sololá	2	El tablón	10	Octubre	2023-07-10T00:00:00	2024-11-06T23:00:00	6	Velocidad del viento	1.6
182198	7	Sololá	701	Sololá	2	El tablón	10	Octubre	2023-07-10T00:00:00	2024-11-06T23:00:00	7	Dirección del viento	1.61
182199	7	Sololá	701	Sololá	2	El tablón	10	Octubre	2023-07-10T00:00:00	2024-11-06T23:00:00	1	Precipitación	1.4
182200	7	Sololá	701	Sololá	2	El tablón	10	Octubre	2023-07-10T00:00:00	2024-11-06T23:00:00	8	Radiación solar	0
182201	7	Sololá	701	Sololá	2	El tablón	10	Octubre	2023-08-10T00:00:00	2024-11-06T00:00:00	2	Temperatura media	12.9
182202	7	Sololá	701	Sololá	2	El tablón	10	Octubre	2023-08-10T00:00:00	2024-11-06T00:00:00	4	Temperatura máxima	13.3
182203	7	Sololá	701	Sololá	2	El tablón	10	Octubre	2023-08-10T00:00:00	2024-11-06T00:00:00	3	Temperatura mínima	12.9
182204	7	Sololá	701	Sololá	2	El tablón	10	Octubre	2023-08-10T00:00:00	2024-11-06T00:00:00	5	Humedad	87
182205	7	Sololá	701	Sololá	2	El tablón	10	Octubre	2023-08-10T00:00:00	2024-11-06T00:00:00	6	Velocidad del viento	1.6
182206	7	Sololá	701	Sololá	2	El tablón	10	Octubre	2023-08-10T00:00:00	2024-11-06T00:00:00	7	Dirección del viento	1.61
182207	7	Sololá	701	Sololá	2	El tablón	10	Octubre	2023-08-10T00:00:00	2024-11-06T00:00:00	1	Precipitación	2.6
182208	7	Sololá	701	Sololá	2	El tablón	10	Octubre	2023-08-10T00:00:00	2024-11-06T00:00:00	8	Radiación solar	0
182209	7	Sololá	701	Sololá	2	El tablón	10	Octubre	2023-08-10T00:00:00	2024-11-06T01:00:00	2	Temperatura media	12.7
182210	7	Sololá	701	Sololá	2	El tablón	10	Octubre	2023-08-10T00:00:00	2024-11-06T01:00:00	4	Temperatura máxima	12.9
182211	7	Sololá	701	Sololá	2	El tablón	10	Octubre	2023-08-10T00:00:00	2024-11-06T01:00:00	3	Temperatura mínima	12.7
182212	7	Sololá	701	Sololá	2	El tablón	10	Octubre	2023-08-10T00:00:00	2024-11-06T01:00:00	5	Humedad	86
182213	7	Sololá	701	Sololá	2	El tablón	10	Octubre	2023-08-10T00:00:00	2024-11-06T01:00:00	6	Velocidad del viento	3.2
182214	7	Sololá	701	Sololá	2	El tablón	10	Octubre	2023-08-10T00:00:00	2024-11-06T01:00:00	7	Dirección del viento	3.22
182215	7	Sololá	701	Sololá	2	El tablón	10	Octubre	2023-08-10T00:00:00	2024-11-06T01:00:00	1	Precipitación	1
182216	7	Sololá	701	Sololá	2	El tablón	10	Octubre	2023-08-10T00:00:00	2024-11-06T01:00:00	8	Radiación solar	0
182217	7	Sololá	701	Sololá	2	El tablón	10	Octubre	2023-08-10T00:00:00	2024-11-06T02:00:00	2	Temperatura media	13
182218	7	Sololá	701	Sololá	2	El tablón	10	Octubre	2023-08-10T00:00:00	2024-11-06T02:00:00	4	Temperatura máxima	13
182219	7	Sololá	701	Sololá	2	El tablón	10	Octubre	2023-08-10T00:00:00	2024-11-06T02:00:00	3	Temperatura mínima	12.6
182220	7	Sololá	701	Sololá	2	El tablón	10	Octubre	2023-08-10T00:00:00	2024-11-06T02:00:00	5	Humedad	89
182221	7	Sololá	701	Sololá	2	El tablón	10	Octubre	2023-08-10T00:00:00	2024-11-06T02:00:00	6	Velocidad del viento	6.4
182222	7	Sololá	701	Sololá	2	El tablón	10	Octubre	2023-08-10T00:00:00	2024-11-06T02:00:00	7	Dirección del viento	6.44
182223	7	Sololá	701	Sololá	2	El tablón	10	Octubre	2023-08-10T00:00:00	2024-11-06T02:00:00	1	Precipitación	0.6
182224	7	Sololá	701	Sololá	2	El tablón	10	Octubre	2023-08-10T00:00:00	2024-11-06T02:00:00	8	Radiación solar	0
182225	7	Sololá	701	Sololá	2	El tablón	10	Octubre	2023-08-10T00:00:00	2024-11-06T03:00:00	2	Temperatura media	13.5
182226	7	Sololá	701	Sololá	2	El tablón	10	Octubre	2023-08-10T00:00:00	2024-11-06T03:00:00	4	Temperatura máxima	13.6
182227	7	Sololá	701	Sololá	2	El tablón	10	Octubre	2023-08-10T00:00:00	2024-11-06T03:00:00	3	Temperatura mínima	13
182228	7	Sololá	701	Sololá	2	El tablón	10	Octubre	2023-08-10T00:00:00	2024-11-06T03:00:00	5	Humedad	88
182229	7	Sololá	701	Sololá	2	El tablón	10	Octubre	2023-08-10T00:00:00	2024-11-06T03:00:00	6	Velocidad del viento	9.7
182230	7	Sololá	701	Sololá	2	El tablón	10	Octubre	2023-08-10T00:00:00	2024-11-06T03:00:00	7	Dirección del viento	9.66
182231	7	Sololá	701	Sololá	2	El tablón	10	Octubre	2023-08-10T00:00:00	2024-11-06T03:00:00	1	Precipitación	0
182232	7	Sololá	701	Sololá	2	El tablón	10	Octubre	2023-08-10T00:00:00	2024-11-06T03:00:00	8	Radiación solar	0
182233	7	Sololá	701	Sololá	2	El tablón	10	Octubre	2023-08-10T00:00:00	2024-11-06T04:00:00	2	Temperatura media	12.8
182234	7	Sololá	701	Sololá	2	El tablón	10	Octubre	2023-08-10T00:00:00	2024-11-06T04:00:00	4	Temperatura máxima	13.6
182235	7	Sololá	701	Sololá	2	El tablón	10	Octubre	2023-08-10T00:00:00	2024-11-06T04:00:00	3	Temperatura mínima	12.8
182236	7	Sololá	701	Sololá	2	El tablón	10	Octubre	2023-08-10T00:00:00	2024-11-06T04:00:00	5	Humedad	89
182237	7	Sololá	701	Sololá	2	El tablón	10	Octubre	2023-08-10T00:00:00	2024-11-06T04:00:00	6	Velocidad del viento	3.2
182238	7	Sololá	701	Sololá	2	El tablón	10	Octubre	2023-08-10T00:00:00	2024-11-06T04:00:00	7	Dirección del viento	3.22
182239	7	Sololá	701	Sololá	2	El tablón	10	Octubre	2023-08-10T00:00:00	2024-11-06T04:00:00	1	Precipitación	0
182240	7	Sololá	701	Sololá	2	El tablón	10	Octubre	2023-08-10T00:00:00	2024-11-06T04:00:00	8	Radiación solar	0
182241	7	Sololá	701	Sololá	2	El tablón	10	Octubre	2023-08-10T00:00:00	2024-11-06T05:00:00	2	Temperatura media	12.9
182242	7	Sololá	701	Sololá	2	El tablón	10	Octubre	2023-08-10T00:00:00	2024-11-06T05:00:00	4	Temperatura máxima	13.4
182243	7	Sololá	701	Sololá	2	El tablón	10	Octubre	2023-08-10T00:00:00	2024-11-06T05:00:00	3	Temperatura mínima	12.7
182244	7	Sololá	701	Sololá	2	El tablón	10	Octubre	2023-08-10T00:00:00	2024-11-06T05:00:00	5	Humedad	89
182245	7	Sololá	701	Sololá	2	El tablón	10	Octubre	2023-08-10T00:00:00	2024-11-06T05:00:00	6	Velocidad del viento	3.2
182246	7	Sololá	701	Sololá	2	El tablón	10	Octubre	2023-08-10T00:00:00	2024-11-06T05:00:00	7	Dirección del viento	3.22
182247	7	Sololá	701	Sololá	2	El tablón	10	Octubre	2023-08-10T00:00:00	2024-11-06T05:00:00	1	Precipitación	0
182248	7	Sololá	701	Sololá	2	El tablón	10	Octubre	2023-08-10T00:00:00	2024-11-06T05:00:00	8	Radiación solar	0
182249	7	Sololá	701	Sololá	2	El tablón	10	Octubre	2023-08-10T00:00:00	2024-11-06T06:00:00	2	Temperatura media	13.1
182250	7	Sololá	701	Sololá	2	El tablón	10	Octubre	2023-08-10T00:00:00	2024-11-06T06:00:00	4	Temperatura máxima	13.1
182251	7	Sololá	701	Sololá	2	El tablón	10	Octubre	2023-08-10T00:00:00	2024-11-06T06:00:00	3	Temperatura mínima	12.9
182252	7	Sololá	701	Sololá	2	El tablón	10	Octubre	2023-08-10T00:00:00	2024-11-06T06:00:00	5	Humedad	89
182253	7	Sololá	701	Sololá	2	El tablón	10	Octubre	2023-08-10T00:00:00	2024-11-06T06:00:00	6	Velocidad del viento	3.2
182254	7	Sololá	701	Sololá	2	El tablón	10	Octubre	2023-08-10T00:00:00	2024-11-06T06:00:00	7	Dirección del viento	3.22
182255	7	Sololá	701	Sololá	2	El tablón	10	Octubre	2023-08-10T00:00:00	2024-11-06T06:00:00	1	Precipitación	0
182256	7	Sololá	701	Sololá	2	El tablón	10	Octubre	2023-08-10T00:00:00	2024-11-06T06:00:00	8	Radiación solar	0
182257	7	Sololá	701	Sololá	2	El tablón	10	Octubre	2023-08-10T00:00:00	2024-11-06T07:00:00	2	Temperatura media	13.3
182258	7	Sololá	701	Sololá	2	El tablón	10	Octubre	2023-08-10T00:00:00	2024-11-06T07:00:00	4	Temperatura máxima	13.3
182259	7	Sololá	701	Sololá	2	El tablón	10	Octubre	2023-08-10T00:00:00	2024-11-06T07:00:00	3	Temperatura mínima	13.1
182260	7	Sololá	701	Sololá	2	El tablón	10	Octubre	2023-08-10T00:00:00	2024-11-06T07:00:00	5	Humedad	88
182261	7	Sololá	701	Sololá	2	El tablón	10	Octubre	2023-08-10T00:00:00	2024-11-06T07:00:00	6	Velocidad del viento	1.6
182262	7	Sololá	701	Sololá	2	El tablón	10	Octubre	2023-08-10T00:00:00	2024-11-06T07:00:00	7	Dirección del viento	1.61
182263	7	Sololá	701	Sololá	2	El tablón	10	Octubre	2023-08-10T00:00:00	2024-11-06T07:00:00	1	Precipitación	0
182264	7	Sololá	701	Sololá	2	El tablón	10	Octubre	2023-08-10T00:00:00	2024-11-06T07:00:00	8	Radiación solar	29
182265	7	Sololá	701	Sololá	2	El tablón	10	Octubre	2023-08-10T00:00:00	2024-11-06T08:00:00	2	Temperatura media	14.9
182266	7	Sololá	701	Sololá	2	El tablón	10	Octubre	2023-08-10T00:00:00	2024-11-06T08:00:00	4	Temperatura máxima	14.9
182267	7	Sololá	701	Sololá	2	El tablón	10	Octubre	2023-08-10T00:00:00	2024-11-06T08:00:00	3	Temperatura mínima	13.3
182268	7	Sololá	701	Sololá	2	El tablón	10	Octubre	2023-08-10T00:00:00	2024-11-06T08:00:00	5	Humedad	87
182269	7	Sololá	701	Sololá	2	El tablón	10	Octubre	2023-08-10T00:00:00	2024-11-06T08:00:00	6	Velocidad del viento	1.6
182270	7	Sololá	701	Sololá	2	El tablón	10	Octubre	2023-08-10T00:00:00	2024-11-06T08:00:00	7	Dirección del viento	1.61
182271	7	Sololá	701	Sololá	2	El tablón	10	Octubre	2023-08-10T00:00:00	2024-11-06T08:00:00	1	Precipitación	0
182272	7	Sololá	701	Sololá	2	El tablón	10	Octubre	2023-08-10T00:00:00	2024-11-06T08:00:00	8	Radiación solar	161
182273	7	Sololá	701	Sololá	2	El tablón	10	Octubre	2023-08-10T00:00:00	2024-11-06T09:00:00	2	Temperatura media	17.8
182274	7	Sololá	701	Sololá	2	El tablón	10	Octubre	2023-08-10T00:00:00	2024-11-06T09:00:00	4	Temperatura máxima	17.8
182275	7	Sololá	701	Sololá	2	El tablón	10	Octubre	2023-08-10T00:00:00	2024-11-06T09:00:00	3	Temperatura mínima	14.9
182276	7	Sololá	701	Sololá	2	El tablón	10	Octubre	2023-08-10T00:00:00	2024-11-06T09:00:00	5	Humedad	82
182277	7	Sololá	701	Sololá	2	El tablón	10	Octubre	2023-08-10T00:00:00	2024-11-06T09:00:00	6	Velocidad del viento	1.6
182278	7	Sololá	701	Sololá	2	El tablón	10	Octubre	2023-08-10T00:00:00	2024-11-06T09:00:00	7	Dirección del viento	1.61
182279	7	Sololá	701	Sololá	2	El tablón	10	Octubre	2023-08-10T00:00:00	2024-11-06T09:00:00	1	Precipitación	0
182280	7	Sololá	701	Sololá	2	El tablón	10	Octubre	2023-08-10T00:00:00	2024-11-06T09:00:00	8	Radiación solar	405
182281	7	Sololá	701	Sololá	2	El tablón	10	Octubre	2023-08-10T00:00:00	2024-11-06T10:00:00	2	Temperatura media	17.4
182282	7	Sololá	701	Sololá	2	El tablón	10	Octubre	2023-08-10T00:00:00	2024-11-06T10:00:00	4	Temperatura máxima	17.9
182283	7	Sololá	701	Sololá	2	El tablón	10	Octubre	2023-08-10T00:00:00	2024-11-06T10:00:00	3	Temperatura mínima	16.3
182284	7	Sololá	701	Sololá	2	El tablón	10	Octubre	2023-08-10T00:00:00	2024-11-06T10:00:00	5	Humedad	86
182285	7	Sololá	701	Sololá	2	El tablón	10	Octubre	2023-08-10T00:00:00	2024-11-06T10:00:00	6	Velocidad del viento	3.2
182286	7	Sololá	701	Sololá	2	El tablón	10	Octubre	2023-08-10T00:00:00	2024-11-06T10:00:00	7	Dirección del viento	3.22
182287	7	Sololá	701	Sololá	2	El tablón	10	Octubre	2023-08-10T00:00:00	2024-11-06T10:00:00	1	Precipitación	0
182288	7	Sololá	701	Sololá	2	El tablón	10	Octubre	2023-08-10T00:00:00	2024-11-06T10:00:00	8	Radiación solar	303
182289	7	Sololá	701	Sololá	2	El tablón	10	Octubre	2023-08-10T00:00:00	2024-11-06T11:00:00	2	Temperatura media	17.4
182290	7	Sololá	701	Sololá	2	El tablón	10	Octubre	2023-08-10T00:00:00	2024-11-06T11:00:00	4	Temperatura máxima	17.8
182291	7	Sololá	701	Sololá	2	El tablón	10	Octubre	2023-08-10T00:00:00	2024-11-06T11:00:00	3	Temperatura mínima	16.8
182292	7	Sololá	701	Sololá	2	El tablón	10	Octubre	2023-08-10T00:00:00	2024-11-06T11:00:00	5	Humedad	86
182293	7	Sololá	701	Sololá	2	El tablón	10	Octubre	2023-08-10T00:00:00	2024-11-06T11:00:00	6	Velocidad del viento	3.2
182294	7	Sololá	701	Sololá	2	El tablón	10	Octubre	2023-08-10T00:00:00	2024-11-06T11:00:00	7	Dirección del viento	3.22
182295	7	Sololá	701	Sololá	2	El tablón	10	Octubre	2023-08-10T00:00:00	2024-11-06T11:00:00	1	Precipitación	0
182296	7	Sololá	701	Sololá	2	El tablón	10	Octubre	2023-08-10T00:00:00	2024-11-06T11:00:00	8	Radiación solar	308
182297	7	Sololá	701	Sololá	2	El tablón	10	Octubre	2023-08-10T00:00:00	2024-11-06T12:00:00	2	Temperatura media	19.2
182298	7	Sololá	701	Sololá	2	El tablón	10	Octubre	2023-08-10T00:00:00	2024-11-06T12:00:00	4	Temperatura máxima	19.8
182299	7	Sololá	701	Sololá	2	El tablón	10	Octubre	2023-08-10T00:00:00	2024-11-06T12:00:00	3	Temperatura mínima	17.4
182300	7	Sololá	701	Sololá	2	El tablón	10	Octubre	2023-08-10T00:00:00	2024-11-06T12:00:00	5	Humedad	83
182301	7	Sololá	701	Sololá	2	El tablón	10	Octubre	2023-08-10T00:00:00	2024-11-06T12:00:00	6	Velocidad del viento	4.8
182302	7	Sololá	701	Sololá	2	El tablón	10	Octubre	2023-08-10T00:00:00	2024-11-06T12:00:00	7	Dirección del viento	4.83
182303	7	Sololá	701	Sololá	2	El tablón	10	Octubre	2023-08-10T00:00:00	2024-11-06T12:00:00	1	Precipitación	0
182304	7	Sololá	701	Sololá	2	El tablón	10	Octubre	2023-08-10T00:00:00	2024-11-06T12:00:00	8	Radiación solar	627
182305	7	Sololá	701	Sololá	2	El tablón	10	Octubre	2023-08-10T00:00:00	2024-11-06T13:00:00	2	Temperatura media	19.7
182306	7	Sololá	701	Sololá	2	El tablón	10	Octubre	2023-08-10T00:00:00	2024-11-06T13:00:00	4	Temperatura máxima	19.7
182307	7	Sololá	701	Sololá	2	El tablón	10	Octubre	2023-08-10T00:00:00	2024-11-06T13:00:00	3	Temperatura mínima	18.2
182308	7	Sololá	701	Sololá	2	El tablón	10	Octubre	2023-08-10T00:00:00	2024-11-06T13:00:00	5	Humedad	81
182309	7	Sololá	701	Sololá	2	El tablón	10	Octubre	2023-08-10T00:00:00	2024-11-06T13:00:00	6	Velocidad del viento	6.4
182310	7	Sololá	701	Sololá	2	El tablón	10	Octubre	2023-08-10T00:00:00	2024-11-06T13:00:00	7	Dirección del viento	6.44
182311	7	Sololá	701	Sololá	2	El tablón	10	Octubre	2023-08-10T00:00:00	2024-11-06T13:00:00	1	Precipitación	0
182312	7	Sololá	701	Sololá	2	El tablón	10	Octubre	2023-08-10T00:00:00	2024-11-06T13:00:00	8	Radiación solar	464
182313	7	Sololá	701	Sololá	2	El tablón	10	Octubre	2023-08-10T00:00:00	2024-11-06T14:00:00	2	Temperatura media	20.1
182314	7	Sololá	701	Sololá	2	El tablón	10	Octubre	2023-08-10T00:00:00	2024-11-06T14:00:00	4	Temperatura máxima	20.1
182315	7	Sololá	701	Sololá	2	El tablón	10	Octubre	2023-08-10T00:00:00	2024-11-06T14:00:00	3	Temperatura mínima	19.2
182316	7	Sololá	701	Sololá	2	El tablón	10	Octubre	2023-08-10T00:00:00	2024-11-06T14:00:00	5	Humedad	78
182317	7	Sololá	701	Sololá	2	El tablón	10	Octubre	2023-08-10T00:00:00	2024-11-06T14:00:00	6	Velocidad del viento	6.4
182318	7	Sololá	701	Sololá	2	El tablón	10	Octubre	2023-08-10T00:00:00	2024-11-06T14:00:00	7	Dirección del viento	6.44
182319	7	Sololá	701	Sololá	2	El tablón	10	Octubre	2023-08-10T00:00:00	2024-11-06T14:00:00	1	Precipitación	0
182320	7	Sololá	701	Sololá	2	El tablón	10	Octubre	2023-08-10T00:00:00	2024-11-06T14:00:00	8	Radiación solar	532
182321	7	Sololá	701	Sololá	2	El tablón	10	Octubre	2023-08-10T00:00:00	2024-11-06T15:00:00	2	Temperatura media	20.2
182322	7	Sololá	701	Sololá	2	El tablón	10	Octubre	2023-08-10T00:00:00	2024-11-06T15:00:00	4	Temperatura máxima	21.2
182323	7	Sololá	701	Sololá	2	El tablón	10	Octubre	2023-08-10T00:00:00	2024-11-06T15:00:00	3	Temperatura mínima	20.1
182324	7	Sololá	701	Sololá	2	El tablón	10	Octubre	2023-08-10T00:00:00	2024-11-06T15:00:00	5	Humedad	79
182325	7	Sololá	701	Sololá	2	El tablón	10	Octubre	2023-08-10T00:00:00	2024-11-06T15:00:00	6	Velocidad del viento	4.8
182326	7	Sololá	701	Sololá	2	El tablón	10	Octubre	2023-08-10T00:00:00	2024-11-06T15:00:00	7	Dirección del viento	4.83
182327	7	Sololá	701	Sololá	2	El tablón	10	Octubre	2023-08-10T00:00:00	2024-11-06T15:00:00	1	Precipitación	0
182328	7	Sololá	701	Sololá	2	El tablón	10	Octubre	2023-08-10T00:00:00	2024-11-06T15:00:00	8	Radiación solar	451
182329	7	Sololá	701	Sololá	2	El tablón	10	Octubre	2023-08-10T00:00:00	2024-11-06T16:00:00	2	Temperatura media	17.4
182330	7	Sololá	701	Sololá	2	El tablón	10	Octubre	2023-08-10T00:00:00	2024-11-06T16:00:00	4	Temperatura máxima	20.7
182331	7	Sololá	701	Sololá	2	El tablón	10	Octubre	2023-08-10T00:00:00	2024-11-06T16:00:00	3	Temperatura mínima	17.4
182332	7	Sololá	701	Sololá	2	El tablón	10	Octubre	2023-08-10T00:00:00	2024-11-06T16:00:00	5	Humedad	87
182333	7	Sololá	701	Sololá	2	El tablón	10	Octubre	2023-08-10T00:00:00	2024-11-06T16:00:00	6	Velocidad del viento	4.8
182334	7	Sololá	701	Sololá	2	El tablón	10	Octubre	2023-08-10T00:00:00	2024-11-06T16:00:00	7	Dirección del viento	4.83
182335	7	Sololá	701	Sololá	2	El tablón	10	Octubre	2023-08-10T00:00:00	2024-11-06T16:00:00	1	Precipitación	1.2
182336	7	Sololá	701	Sololá	2	El tablón	10	Octubre	2023-08-10T00:00:00	2024-11-06T16:00:00	8	Radiación solar	282
182337	7	Sololá	701	Sololá	2	El tablón	10	Octubre	2023-08-10T00:00:00	2024-11-06T17:00:00	2	Temperatura media	14.9
182338	7	Sololá	701	Sololá	2	El tablón	10	Octubre	2023-08-10T00:00:00	2024-11-06T17:00:00	4	Temperatura máxima	17.4
182339	7	Sololá	701	Sololá	2	El tablón	10	Octubre	2023-08-10T00:00:00	2024-11-06T17:00:00	3	Temperatura mínima	14.7
182340	7	Sololá	701	Sololá	2	El tablón	10	Octubre	2023-08-10T00:00:00	2024-11-06T17:00:00	5	Humedad	87
182341	7	Sololá	701	Sololá	2	El tablón	10	Octubre	2023-08-10T00:00:00	2024-11-06T17:00:00	6	Velocidad del viento	4.8
182342	7	Sololá	701	Sololá	2	El tablón	10	Octubre	2023-08-10T00:00:00	2024-11-06T17:00:00	7	Dirección del viento	4.83
182343	7	Sololá	701	Sololá	2	El tablón	10	Octubre	2023-08-10T00:00:00	2024-11-06T17:00:00	1	Precipitación	11.6
182344	7	Sololá	701	Sololá	2	El tablón	10	Octubre	2023-08-10T00:00:00	2024-11-06T17:00:00	8	Radiación solar	4
182345	7	Sololá	701	Sololá	2	El tablón	10	Octubre	2023-08-10T00:00:00	2024-11-06T18:00:00	2	Temperatura media	14.7
182346	7	Sololá	701	Sololá	2	El tablón	10	Octubre	2023-08-10T00:00:00	2024-11-06T18:00:00	4	Temperatura máxima	15.3
182347	7	Sololá	701	Sololá	2	El tablón	10	Octubre	2023-08-10T00:00:00	2024-11-06T18:00:00	3	Temperatura mínima	14.6
182348	7	Sololá	701	Sololá	2	El tablón	10	Octubre	2023-08-10T00:00:00	2024-11-06T18:00:00	5	Humedad	87
182349	7	Sololá	701	Sololá	2	El tablón	10	Octubre	2023-08-10T00:00:00	2024-11-06T18:00:00	6	Velocidad del viento	1.6
182350	7	Sololá	701	Sololá	2	El tablón	10	Octubre	2023-08-10T00:00:00	2024-11-06T18:00:00	7	Dirección del viento	1.61
182351	7	Sololá	701	Sololá	2	El tablón	10	Octubre	2023-08-10T00:00:00	2024-11-06T18:00:00	1	Precipitación	0.4
182352	7	Sololá	701	Sololá	2	El tablón	10	Octubre	2023-08-10T00:00:00	2024-11-06T18:00:00	8	Radiación solar	2
182353	7	Sololá	701	Sololá	2	El tablón	10	Octubre	2023-08-10T00:00:00	2024-11-06T19:00:00	2	Temperatura media	14.3
182354	7	Sololá	701	Sololá	2	El tablón	10	Octubre	2023-08-10T00:00:00	2024-11-06T19:00:00	4	Temperatura máxima	14.8
182355	7	Sololá	701	Sololá	2	El tablón	10	Octubre	2023-08-10T00:00:00	2024-11-06T19:00:00	3	Temperatura mínima	14.3
182356	7	Sololá	701	Sololá	2	El tablón	10	Octubre	2023-08-10T00:00:00	2024-11-06T19:00:00	5	Humedad	87
182357	7	Sololá	701	Sololá	2	El tablón	10	Octubre	2023-08-10T00:00:00	2024-11-06T19:00:00	6	Velocidad del viento	1.6
182358	7	Sololá	701	Sololá	2	El tablón	10	Octubre	2023-08-10T00:00:00	2024-11-06T19:00:00	7	Dirección del viento	1.61
182359	7	Sololá	701	Sololá	2	El tablón	10	Octubre	2023-08-10T00:00:00	2024-11-06T19:00:00	1	Precipitación	0
182360	7	Sololá	701	Sololá	2	El tablón	10	Octubre	2023-08-10T00:00:00	2024-11-06T19:00:00	8	Radiación solar	0
182361	7	Sololá	701	Sololá	2	El tablón	10	Octubre	2023-08-10T00:00:00	2024-11-06T20:00:00	2	Temperatura media	14
182362	7	Sololá	701	Sololá	2	El tablón	10	Octubre	2023-08-10T00:00:00	2024-11-06T20:00:00	4	Temperatura máxima	14.3
182363	7	Sololá	701	Sololá	2	El tablón	10	Octubre	2023-08-10T00:00:00	2024-11-06T20:00:00	3	Temperatura mínima	14
182364	7	Sololá	701	Sololá	2	El tablón	10	Octubre	2023-08-10T00:00:00	2024-11-06T20:00:00	5	Humedad	87
182365	7	Sololá	701	Sololá	2	El tablón	10	Octubre	2023-08-10T00:00:00	2024-11-06T20:00:00	6	Velocidad del viento	1.6
182366	7	Sololá	701	Sololá	2	El tablón	10	Octubre	2023-08-10T00:00:00	2024-11-06T20:00:00	7	Dirección del viento	1.61
182367	7	Sololá	701	Sololá	2	El tablón	10	Octubre	2023-08-10T00:00:00	2024-11-06T20:00:00	1	Precipitación	0
182368	7	Sololá	701	Sololá	2	El tablón	10	Octubre	2023-08-10T00:00:00	2024-11-06T20:00:00	8	Radiación solar	0
182369	7	Sololá	701	Sololá	2	El tablón	10	Octubre	2023-08-10T00:00:00	2024-11-06T21:00:00	2	Temperatura media	13.8
182370	7	Sololá	701	Sololá	2	El tablón	10	Octubre	2023-08-10T00:00:00	2024-11-06T21:00:00	4	Temperatura máxima	14
182371	7	Sololá	701	Sololá	2	El tablón	10	Octubre	2023-08-10T00:00:00	2024-11-06T21:00:00	3	Temperatura mínima	13.8
182372	7	Sololá	701	Sololá	2	El tablón	10	Octubre	2023-08-10T00:00:00	2024-11-06T21:00:00	5	Humedad	87
182373	7	Sololá	701	Sololá	2	El tablón	10	Octubre	2023-08-10T00:00:00	2024-11-06T21:00:00	6	Velocidad del viento	1.6
182374	7	Sololá	701	Sololá	2	El tablón	10	Octubre	2023-08-10T00:00:00	2024-11-06T21:00:00	7	Dirección del viento	1.61
182375	7	Sololá	701	Sololá	2	El tablón	10	Octubre	2023-08-10T00:00:00	2024-11-06T21:00:00	1	Precipitación	0
182376	7	Sololá	701	Sololá	2	El tablón	10	Octubre	2023-08-10T00:00:00	2024-11-06T21:00:00	8	Radiación solar	0
182377	7	Sololá	701	Sololá	2	El tablón	10	Octubre	2023-08-10T00:00:00	2024-11-06T22:00:00	2	Temperatura media	13.8
182378	7	Sololá	701	Sololá	2	El tablón	10	Octubre	2023-08-10T00:00:00	2024-11-06T22:00:00	4	Temperatura máxima	13.8
182379	7	Sololá	701	Sololá	2	El tablón	10	Octubre	2023-08-10T00:00:00	2024-11-06T22:00:00	3	Temperatura mínima	13.6
182380	7	Sololá	701	Sololá	2	El tablón	10	Octubre	2023-08-10T00:00:00	2024-11-06T22:00:00	5	Humedad	87
182381	7	Sololá	701	Sololá	2	El tablón	10	Octubre	2023-08-10T00:00:00	2024-11-06T22:00:00	6	Velocidad del viento	1.6
182382	7	Sololá	701	Sololá	2	El tablón	10	Octubre	2023-08-10T00:00:00	2024-11-06T22:00:00	7	Dirección del viento	1.61
182383	7	Sololá	701	Sololá	2	El tablón	10	Octubre	2023-08-10T00:00:00	2024-11-06T22:00:00	1	Precipitación	0
182384	7	Sololá	701	Sololá	2	El tablón	10	Octubre	2023-08-10T00:00:00	2024-11-06T22:00:00	8	Radiación solar	0
182385	7	Sololá	701	Sololá	2	El tablón	10	Octubre	2023-08-10T00:00:00	2024-11-06T23:00:00	2	Temperatura media	13.8
182386	7	Sololá	701	Sololá	2	El tablón	10	Octubre	2023-08-10T00:00:00	2024-11-06T23:00:00	4	Temperatura máxima	13.9
182387	7	Sololá	701	Sololá	2	El tablón	10	Octubre	2023-08-10T00:00:00	2024-11-06T23:00:00	3	Temperatura mínima	13.8
182388	7	Sololá	701	Sololá	2	El tablón	10	Octubre	2023-08-10T00:00:00	2024-11-06T23:00:00	5	Humedad	87
182389	7	Sololá	701	Sololá	2	El tablón	10	Octubre	2023-08-10T00:00:00	2024-11-06T23:00:00	6	Velocidad del viento	0
182390	7	Sololá	701	Sololá	2	El tablón	10	Octubre	2023-08-10T00:00:00	2024-11-06T23:00:00	7	Dirección del viento	0
182391	7	Sololá	701	Sololá	2	El tablón	10	Octubre	2023-08-10T00:00:00	2024-11-06T23:00:00	1	Precipitación	1.2
182392	7	Sololá	701	Sololá	2	El tablón	10	Octubre	2023-08-10T00:00:00	2024-11-06T23:00:00	8	Radiación solar	0
182393	7	Sololá	701	Sololá	2	El tablón	10	Octubre	2023-09-10T00:00:00	2024-11-06T00:00:00	2	Temperatura media	14
182394	7	Sololá	701	Sololá	2	El tablón	10	Octubre	2023-09-10T00:00:00	2024-11-06T00:00:00	4	Temperatura máxima	14.1
182395	7	Sololá	701	Sololá	2	El tablón	10	Octubre	2023-09-10T00:00:00	2024-11-06T00:00:00	3	Temperatura mínima	13.8
182396	7	Sololá	701	Sololá	2	El tablón	10	Octubre	2023-09-10T00:00:00	2024-11-06T00:00:00	5	Humedad	86
182397	7	Sololá	701	Sololá	2	El tablón	10	Octubre	2023-09-10T00:00:00	2024-11-06T00:00:00	6	Velocidad del viento	0
182398	7	Sololá	701	Sololá	2	El tablón	10	Octubre	2023-09-10T00:00:00	2024-11-06T00:00:00	7	Dirección del viento	0
182399	7	Sololá	701	Sololá	2	El tablón	10	Octubre	2023-09-10T00:00:00	2024-11-06T00:00:00	1	Precipitación	1
182400	7	Sololá	701	Sololá	2	El tablón	10	Octubre	2023-09-10T00:00:00	2024-11-06T00:00:00	8	Radiación solar	0
182401	7	Sololá	701	Sololá	2	El tablón	10	Octubre	2023-09-10T00:00:00	2024-11-06T01:00:00	2	Temperatura media	13.7
182402	7	Sololá	701	Sololá	2	El tablón	10	Octubre	2023-09-10T00:00:00	2024-11-06T01:00:00	4	Temperatura máxima	14
182403	7	Sololá	701	Sololá	2	El tablón	10	Octubre	2023-09-10T00:00:00	2024-11-06T01:00:00	3	Temperatura mínima	13.7
182404	7	Sololá	701	Sololá	2	El tablón	10	Octubre	2023-09-10T00:00:00	2024-11-06T01:00:00	5	Humedad	86
182405	7	Sololá	701	Sololá	2	El tablón	10	Octubre	2023-09-10T00:00:00	2024-11-06T01:00:00	6	Velocidad del viento	0
182406	7	Sololá	701	Sololá	2	El tablón	10	Octubre	2023-09-10T00:00:00	2024-11-06T01:00:00	7	Dirección del viento	0
182407	7	Sololá	701	Sololá	2	El tablón	10	Octubre	2023-09-10T00:00:00	2024-11-06T01:00:00	1	Precipitación	4.6
182408	7	Sololá	701	Sololá	2	El tablón	10	Octubre	2023-09-10T00:00:00	2024-11-06T01:00:00	8	Radiación solar	0
182409	7	Sololá	701	Sololá	2	El tablón	10	Octubre	2023-09-10T00:00:00	2024-11-06T02:00:00	2	Temperatura media	13.6
182410	7	Sololá	701	Sololá	2	El tablón	10	Octubre	2023-09-10T00:00:00	2024-11-06T02:00:00	4	Temperatura máxima	13.7
182411	7	Sololá	701	Sololá	2	El tablón	10	Octubre	2023-09-10T00:00:00	2024-11-06T02:00:00	3	Temperatura mínima	13.6
182412	7	Sololá	701	Sololá	2	El tablón	10	Octubre	2023-09-10T00:00:00	2024-11-06T02:00:00	5	Humedad	86
182413	7	Sololá	701	Sololá	2	El tablón	10	Octubre	2023-09-10T00:00:00	2024-11-06T02:00:00	6	Velocidad del viento	1.6
182414	7	Sololá	701	Sololá	2	El tablón	10	Octubre	2023-09-10T00:00:00	2024-11-06T02:00:00	7	Dirección del viento	1.61
182415	7	Sololá	701	Sololá	2	El tablón	10	Octubre	2023-09-10T00:00:00	2024-11-06T02:00:00	1	Precipitación	0.2
182416	7	Sololá	701	Sololá	2	El tablón	10	Octubre	2023-09-10T00:00:00	2024-11-06T02:00:00	8	Radiación solar	0
182417	7	Sololá	701	Sololá	2	El tablón	10	Octubre	2023-09-10T00:00:00	2024-11-06T03:00:00	2	Temperatura media	13
182418	7	Sololá	701	Sololá	2	El tablón	10	Octubre	2023-09-10T00:00:00	2024-11-06T03:00:00	4	Temperatura máxima	13.6
182419	7	Sololá	701	Sololá	2	El tablón	10	Octubre	2023-09-10T00:00:00	2024-11-06T03:00:00	3	Temperatura mínima	13
182420	7	Sololá	701	Sololá	2	El tablón	10	Octubre	2023-09-10T00:00:00	2024-11-06T03:00:00	5	Humedad	86
182421	7	Sololá	701	Sololá	2	El tablón	10	Octubre	2023-09-10T00:00:00	2024-11-06T03:00:00	6	Velocidad del viento	1.6
182422	7	Sololá	701	Sololá	2	El tablón	10	Octubre	2023-09-10T00:00:00	2024-11-06T03:00:00	7	Dirección del viento	1.61
182423	7	Sololá	701	Sololá	2	El tablón	10	Octubre	2023-09-10T00:00:00	2024-11-06T03:00:00	1	Precipitación	0
182424	7	Sololá	701	Sololá	2	El tablón	10	Octubre	2023-09-10T00:00:00	2024-11-06T03:00:00	8	Radiación solar	0
182425	7	Sololá	701	Sololá	2	El tablón	10	Octubre	2023-09-10T00:00:00	2024-11-06T04:00:00	2	Temperatura media	12.3
182426	7	Sololá	701	Sololá	2	El tablón	10	Octubre	2023-09-10T00:00:00	2024-11-06T04:00:00	4	Temperatura máxima	13
182427	7	Sololá	701	Sololá	2	El tablón	10	Octubre	2023-09-10T00:00:00	2024-11-06T04:00:00	3	Temperatura mínima	12.3
182428	7	Sololá	701	Sololá	2	El tablón	10	Octubre	2023-09-10T00:00:00	2024-11-06T04:00:00	5	Humedad	87
182429	7	Sololá	701	Sololá	2	El tablón	10	Octubre	2023-09-10T00:00:00	2024-11-06T04:00:00	6	Velocidad del viento	1.6
182430	7	Sololá	701	Sololá	2	El tablón	10	Octubre	2023-09-10T00:00:00	2024-11-06T04:00:00	7	Dirección del viento	1.61
182431	7	Sololá	701	Sololá	2	El tablón	10	Octubre	2023-09-10T00:00:00	2024-11-06T04:00:00	1	Precipitación	0.2
182432	7	Sololá	701	Sololá	2	El tablón	10	Octubre	2023-09-10T00:00:00	2024-11-06T04:00:00	8	Radiación solar	0
182433	7	Sololá	701	Sololá	2	El tablón	10	Octubre	2023-09-10T00:00:00	2024-11-06T05:00:00	2	Temperatura media	12.1
182434	7	Sololá	701	Sololá	2	El tablón	10	Octubre	2023-09-10T00:00:00	2024-11-06T05:00:00	4	Temperatura máxima	12.3
182435	7	Sololá	701	Sololá	2	El tablón	10	Octubre	2023-09-10T00:00:00	2024-11-06T05:00:00	3	Temperatura mínima	11.8
182436	7	Sololá	701	Sololá	2	El tablón	10	Octubre	2023-09-10T00:00:00	2024-11-06T05:00:00	5	Humedad	87
182437	7	Sololá	701	Sololá	2	El tablón	10	Octubre	2023-09-10T00:00:00	2024-11-06T05:00:00	6	Velocidad del viento	1.6
182438	7	Sololá	701	Sololá	2	El tablón	10	Octubre	2023-09-10T00:00:00	2024-11-06T05:00:00	7	Dirección del viento	1.61
182439	7	Sololá	701	Sololá	2	El tablón	10	Octubre	2023-09-10T00:00:00	2024-11-06T05:00:00	1	Precipitación	0
182440	7	Sololá	701	Sololá	2	El tablón	10	Octubre	2023-09-10T00:00:00	2024-11-06T05:00:00	8	Radiación solar	0
182441	7	Sololá	701	Sololá	2	El tablón	10	Octubre	2023-09-10T00:00:00	2024-11-06T06:00:00	2	Temperatura media	12.6
182442	7	Sololá	701	Sololá	2	El tablón	10	Octubre	2023-09-10T00:00:00	2024-11-06T06:00:00	4	Temperatura máxima	12.6
182443	7	Sololá	701	Sololá	2	El tablón	10	Octubre	2023-09-10T00:00:00	2024-11-06T06:00:00	3	Temperatura mínima	12.1
182444	7	Sololá	701	Sololá	2	El tablón	10	Octubre	2023-09-10T00:00:00	2024-11-06T06:00:00	5	Humedad	86
182445	7	Sololá	701	Sololá	2	El tablón	10	Octubre	2023-09-10T00:00:00	2024-11-06T06:00:00	6	Velocidad del viento	0
182446	7	Sololá	701	Sololá	2	El tablón	10	Octubre	2023-09-10T00:00:00	2024-11-06T06:00:00	7	Dirección del viento	0
182447	7	Sololá	701	Sololá	2	El tablón	10	Octubre	2023-09-10T00:00:00	2024-11-06T06:00:00	1	Precipitación	0.2
182448	7	Sololá	701	Sololá	2	El tablón	10	Octubre	2023-09-10T00:00:00	2024-11-06T06:00:00	8	Radiación solar	0
182449	7	Sololá	701	Sololá	2	El tablón	10	Octubre	2023-09-10T00:00:00	2024-11-06T07:00:00	2	Temperatura media	12.9
182450	7	Sololá	701	Sololá	2	El tablón	10	Octubre	2023-09-10T00:00:00	2024-11-06T07:00:00	4	Temperatura máxima	12.9
182451	7	Sololá	701	Sololá	2	El tablón	10	Octubre	2023-09-10T00:00:00	2024-11-06T07:00:00	3	Temperatura mínima	12.4
182452	7	Sololá	701	Sololá	2	El tablón	10	Octubre	2023-09-10T00:00:00	2024-11-06T07:00:00	5	Humedad	87
182453	7	Sololá	701	Sololá	2	El tablón	10	Octubre	2023-09-10T00:00:00	2024-11-06T07:00:00	6	Velocidad del viento	1.6
182454	7	Sololá	701	Sololá	2	El tablón	10	Octubre	2023-09-10T00:00:00	2024-11-06T07:00:00	7	Dirección del viento	1.61
182455	7	Sololá	701	Sololá	2	El tablón	10	Octubre	2023-09-10T00:00:00	2024-11-06T07:00:00	1	Precipitación	0
182456	7	Sololá	701	Sololá	2	El tablón	10	Octubre	2023-09-10T00:00:00	2024-11-06T07:00:00	8	Radiación solar	9
182457	7	Sololá	701	Sololá	2	El tablón	10	Octubre	2023-09-10T00:00:00	2024-11-06T08:00:00	2	Temperatura media	13.6
182458	7	Sololá	701	Sololá	2	El tablón	10	Octubre	2023-09-10T00:00:00	2024-11-06T08:00:00	4	Temperatura máxima	13.6
182459	7	Sololá	701	Sololá	2	El tablón	10	Octubre	2023-09-10T00:00:00	2024-11-06T08:00:00	3	Temperatura mínima	12.9
182460	7	Sololá	701	Sololá	2	El tablón	10	Octubre	2023-09-10T00:00:00	2024-11-06T08:00:00	5	Humedad	87
182461	7	Sololá	701	Sololá	2	El tablón	10	Octubre	2023-09-10T00:00:00	2024-11-06T08:00:00	6	Velocidad del viento	0
182462	7	Sololá	701	Sololá	2	El tablón	10	Octubre	2023-09-10T00:00:00	2024-11-06T08:00:00	7	Dirección del viento	0
182463	7	Sololá	701	Sololá	2	El tablón	10	Octubre	2023-09-10T00:00:00	2024-11-06T08:00:00	1	Precipitación	0
182464	7	Sololá	701	Sololá	2	El tablón	10	Octubre	2023-09-10T00:00:00	2024-11-06T08:00:00	8	Radiación solar	58
182465	7	Sololá	701	Sololá	2	El tablón	10	Octubre	2023-09-10T00:00:00	2024-11-06T09:00:00	2	Temperatura media	15.7
182466	7	Sololá	701	Sololá	2	El tablón	10	Octubre	2023-09-10T00:00:00	2024-11-06T09:00:00	4	Temperatura máxima	15.7
182467	7	Sololá	701	Sololá	2	El tablón	10	Octubre	2023-09-10T00:00:00	2024-11-06T09:00:00	3	Temperatura mínima	13.6
182468	7	Sololá	701	Sololá	2	El tablón	10	Octubre	2023-09-10T00:00:00	2024-11-06T09:00:00	5	Humedad	87
182469	7	Sololá	701	Sololá	2	El tablón	10	Octubre	2023-09-10T00:00:00	2024-11-06T09:00:00	6	Velocidad del viento	1.6
182470	7	Sololá	701	Sololá	2	El tablón	10	Octubre	2023-09-10T00:00:00	2024-11-06T09:00:00	7	Dirección del viento	1.61
182471	7	Sololá	701	Sololá	2	El tablón	10	Octubre	2023-09-10T00:00:00	2024-11-06T09:00:00	1	Precipitación	0.2
182472	7	Sololá	701	Sololá	2	El tablón	10	Octubre	2023-09-10T00:00:00	2024-11-06T09:00:00	8	Radiación solar	385
182473	7	Sololá	701	Sololá	2	El tablón	10	Octubre	2023-09-10T00:00:00	2024-11-06T10:00:00	2	Temperatura media	17.7
182474	7	Sololá	701	Sololá	2	El tablón	10	Octubre	2023-09-10T00:00:00	2024-11-06T10:00:00	4	Temperatura máxima	17.7
182475	7	Sololá	701	Sololá	2	El tablón	10	Octubre	2023-09-10T00:00:00	2024-11-06T10:00:00	3	Temperatura mínima	15.7
182476	7	Sololá	701	Sololá	2	El tablón	10	Octubre	2023-09-10T00:00:00	2024-11-06T10:00:00	5	Humedad	85
182477	7	Sololá	701	Sololá	2	El tablón	10	Octubre	2023-09-10T00:00:00	2024-11-06T10:00:00	6	Velocidad del viento	3.2
182478	7	Sololá	701	Sololá	2	El tablón	10	Octubre	2023-09-10T00:00:00	2024-11-06T10:00:00	7	Dirección del viento	3.22
182479	7	Sololá	701	Sololá	2	El tablón	10	Octubre	2023-09-10T00:00:00	2024-11-06T10:00:00	1	Precipitación	0
182480	7	Sololá	701	Sololá	2	El tablón	10	Octubre	2023-09-10T00:00:00	2024-11-06T10:00:00	8	Radiación solar	426
182481	7	Sololá	701	Sololá	2	El tablón	10	Octubre	2023-09-10T00:00:00	2024-11-06T11:00:00	2	Temperatura media	20.2
182482	7	Sololá	701	Sololá	2	El tablón	10	Octubre	2023-09-10T00:00:00	2024-11-06T11:00:00	4	Temperatura máxima	20.2
182483	7	Sololá	701	Sololá	2	El tablón	10	Octubre	2023-09-10T00:00:00	2024-11-06T11:00:00	3	Temperatura mínima	17.7
182484	7	Sololá	701	Sololá	2	El tablón	10	Octubre	2023-09-10T00:00:00	2024-11-06T11:00:00	5	Humedad	72
182485	7	Sololá	701	Sololá	2	El tablón	10	Octubre	2023-09-10T00:00:00	2024-11-06T11:00:00	6	Velocidad del viento	4.8
182486	7	Sololá	701	Sololá	2	El tablón	10	Octubre	2023-09-10T00:00:00	2024-11-06T11:00:00	7	Dirección del viento	4.83
182487	7	Sololá	701	Sololá	2	El tablón	10	Octubre	2023-09-10T00:00:00	2024-11-06T11:00:00	1	Precipitación	0
182488	7	Sololá	701	Sololá	2	El tablón	10	Octubre	2023-09-10T00:00:00	2024-11-06T11:00:00	8	Radiación solar	527
182489	7	Sololá	701	Sololá	2	El tablón	10	Octubre	2023-09-10T00:00:00	2024-11-06T12:00:00	2	Temperatura media	19.9
182490	7	Sololá	701	Sololá	2	El tablón	10	Octubre	2023-09-10T00:00:00	2024-11-06T12:00:00	4	Temperatura máxima	21.2
182491	7	Sololá	701	Sololá	2	El tablón	10	Octubre	2023-09-10T00:00:00	2024-11-06T12:00:00	3	Temperatura mínima	19.9
182492	7	Sololá	701	Sololá	2	El tablón	10	Octubre	2023-09-10T00:00:00	2024-11-06T12:00:00	5	Humedad	83
182493	7	Sololá	701	Sololá	2	El tablón	10	Octubre	2023-09-10T00:00:00	2024-11-06T12:00:00	6	Velocidad del viento	6.4
182494	7	Sololá	701	Sololá	2	El tablón	10	Octubre	2023-09-10T00:00:00	2024-11-06T12:00:00	7	Dirección del viento	6.44
182495	7	Sololá	701	Sololá	2	El tablón	10	Octubre	2023-09-10T00:00:00	2024-11-06T12:00:00	1	Precipitación	0
182496	7	Sololá	701	Sololá	2	El tablón	10	Octubre	2023-09-10T00:00:00	2024-11-06T12:00:00	8	Radiación solar	853
182497	7	Sololá	701	Sololá	2	El tablón	10	Octubre	2023-09-10T00:00:00	2024-11-06T13:00:00	2	Temperatura media	17.1
182498	7	Sololá	701	Sololá	2	El tablón	10	Octubre	2023-09-10T00:00:00	2024-11-06T13:00:00	4	Temperatura máxima	20
182499	7	Sololá	701	Sololá	2	El tablón	10	Octubre	2023-09-10T00:00:00	2024-11-06T13:00:00	3	Temperatura mínima	17.1
182500	7	Sololá	701	Sololá	2	El tablón	10	Octubre	2023-09-10T00:00:00	2024-11-06T13:00:00	5	Humedad	88
182501	7	Sololá	701	Sololá	2	El tablón	10	Octubre	2023-09-10T00:00:00	2024-11-06T13:00:00	6	Velocidad del viento	9.7
182502	7	Sololá	701	Sololá	2	El tablón	10	Octubre	2023-09-10T00:00:00	2024-11-06T13:00:00	7	Dirección del viento	9.66
182503	7	Sololá	701	Sololá	2	El tablón	10	Octubre	2023-09-10T00:00:00	2024-11-06T13:00:00	1	Precipitación	0
182504	7	Sololá	701	Sololá	2	El tablón	10	Octubre	2023-09-10T00:00:00	2024-11-06T13:00:00	8	Radiación solar	552
182505	7	Sololá	701	Sololá	2	El tablón	10	Octubre	2023-09-10T00:00:00	2024-11-06T14:00:00	2	Temperatura media	15.3
182506	7	Sololá	701	Sololá	2	El tablón	10	Octubre	2023-09-10T00:00:00	2024-11-06T14:00:00	4	Temperatura máxima	17.1
182507	7	Sololá	701	Sololá	2	El tablón	10	Octubre	2023-09-10T00:00:00	2024-11-06T14:00:00	3	Temperatura mínima	15.3
182508	7	Sololá	701	Sololá	2	El tablón	10	Octubre	2023-09-10T00:00:00	2024-11-06T14:00:00	5	Humedad	87
182509	7	Sololá	701	Sololá	2	El tablón	10	Octubre	2023-09-10T00:00:00	2024-11-06T14:00:00	6	Velocidad del viento	4.8
182510	7	Sololá	701	Sololá	2	El tablón	10	Octubre	2023-09-10T00:00:00	2024-11-06T14:00:00	7	Dirección del viento	4.83
182511	7	Sololá	701	Sololá	2	El tablón	10	Octubre	2023-09-10T00:00:00	2024-11-06T14:00:00	1	Precipitación	5.8
182512	7	Sololá	701	Sololá	2	El tablón	10	Octubre	2023-09-10T00:00:00	2024-11-06T14:00:00	8	Radiación solar	26
182513	7	Sololá	701	Sololá	2	El tablón	10	Octubre	2023-09-10T00:00:00	2024-11-06T15:00:00	2	Temperatura media	14.7
182514	7	Sololá	701	Sololá	2	El tablón	10	Octubre	2023-09-10T00:00:00	2024-11-06T15:00:00	4	Temperatura máxima	15.3
182515	7	Sololá	701	Sololá	2	El tablón	10	Octubre	2023-09-10T00:00:00	2024-11-06T15:00:00	3	Temperatura mínima	14.2
182516	7	Sololá	701	Sololá	2	El tablón	10	Octubre	2023-09-10T00:00:00	2024-11-06T15:00:00	5	Humedad	87
182517	7	Sololá	701	Sololá	2	El tablón	10	Octubre	2023-09-10T00:00:00	2024-11-06T15:00:00	6	Velocidad del viento	1.6
182518	7	Sololá	701	Sololá	2	El tablón	10	Octubre	2023-09-10T00:00:00	2024-11-06T15:00:00	7	Dirección del viento	1.61
182519	7	Sololá	701	Sololá	2	El tablón	10	Octubre	2023-09-10T00:00:00	2024-11-06T15:00:00	1	Precipitación	1.2
182520	7	Sololá	701	Sololá	2	El tablón	10	Octubre	2023-09-10T00:00:00	2024-11-06T15:00:00	8	Radiación solar	18
182521	7	Sololá	701	Sololá	2	El tablón	10	Octubre	2023-09-10T00:00:00	2024-11-06T16:00:00	2	Temperatura media	14.3
182522	7	Sololá	701	Sololá	2	El tablón	10	Octubre	2023-09-10T00:00:00	2024-11-06T16:00:00	4	Temperatura máxima	15.1
182523	7	Sololá	701	Sololá	2	El tablón	10	Octubre	2023-09-10T00:00:00	2024-11-06T16:00:00	3	Temperatura mínima	14.3
182524	7	Sololá	701	Sololá	2	El tablón	10	Octubre	2023-09-10T00:00:00	2024-11-06T16:00:00	5	Humedad	87
182525	7	Sololá	701	Sololá	2	El tablón	10	Octubre	2023-09-10T00:00:00	2024-11-06T16:00:00	6	Velocidad del viento	3.2
182526	7	Sololá	701	Sololá	2	El tablón	10	Octubre	2023-09-10T00:00:00	2024-11-06T16:00:00	7	Dirección del viento	3.22
182527	7	Sololá	701	Sololá	2	El tablón	10	Octubre	2023-09-10T00:00:00	2024-11-06T16:00:00	1	Precipitación	0.4
182528	7	Sololá	701	Sololá	2	El tablón	10	Octubre	2023-09-10T00:00:00	2024-11-06T16:00:00	8	Radiación solar	44
182529	7	Sololá	701	Sololá	2	El tablón	10	Octubre	2023-09-10T00:00:00	2024-11-06T17:00:00	2	Temperatura media	14.1
182530	7	Sololá	701	Sololá	2	El tablón	10	Octubre	2023-09-10T00:00:00	2024-11-06T17:00:00	4	Temperatura máxima	14.3
182531	7	Sololá	701	Sololá	2	El tablón	10	Octubre	2023-09-10T00:00:00	2024-11-06T17:00:00	3	Temperatura mínima	14.1
182532	7	Sololá	701	Sololá	2	El tablón	10	Octubre	2023-09-10T00:00:00	2024-11-06T17:00:00	5	Humedad	86
182533	7	Sololá	701	Sololá	2	El tablón	10	Octubre	2023-09-10T00:00:00	2024-11-06T17:00:00	6	Velocidad del viento	0
182534	7	Sololá	701	Sololá	2	El tablón	10	Octubre	2023-09-10T00:00:00	2024-11-06T17:00:00	7	Dirección del viento	0
182535	7	Sololá	701	Sololá	2	El tablón	10	Octubre	2023-09-10T00:00:00	2024-11-06T17:00:00	1	Precipitación	0.6
182536	7	Sololá	701	Sololá	2	El tablón	10	Octubre	2023-09-10T00:00:00	2024-11-06T17:00:00	8	Radiación solar	38
182537	7	Sololá	701	Sololá	2	El tablón	10	Octubre	2023-09-10T00:00:00	2024-11-06T18:00:00	2	Temperatura media	14.4
182538	7	Sololá	701	Sololá	2	El tablón	10	Octubre	2023-09-10T00:00:00	2024-11-06T18:00:00	4	Temperatura máxima	14.5
182539	7	Sololá	701	Sololá	2	El tablón	10	Octubre	2023-09-10T00:00:00	2024-11-06T18:00:00	3	Temperatura mínima	14.1
182540	7	Sololá	701	Sololá	2	El tablón	10	Octubre	2023-09-10T00:00:00	2024-11-06T18:00:00	5	Humedad	86
182541	7	Sololá	701	Sololá	2	El tablón	10	Octubre	2023-09-10T00:00:00	2024-11-06T18:00:00	6	Velocidad del viento	0
182542	7	Sololá	701	Sololá	2	El tablón	10	Octubre	2023-09-10T00:00:00	2024-11-06T18:00:00	7	Dirección del viento	0
182543	7	Sololá	701	Sololá	2	El tablón	10	Octubre	2023-09-10T00:00:00	2024-11-06T18:00:00	1	Precipitación	0
182544	7	Sololá	701	Sololá	2	El tablón	10	Octubre	2023-09-10T00:00:00	2024-11-06T18:00:00	8	Radiación solar	9
182545	7	Sololá	701	Sololá	2	El tablón	10	Octubre	2023-09-10T00:00:00	2024-11-06T19:00:00	2	Temperatura media	14.5
182546	7	Sololá	701	Sololá	2	El tablón	10	Octubre	2023-09-10T00:00:00	2024-11-06T19:00:00	4	Temperatura máxima	14.5
182547	7	Sololá	701	Sololá	2	El tablón	10	Octubre	2023-09-10T00:00:00	2024-11-06T19:00:00	3	Temperatura mínima	14.4
182548	7	Sololá	701	Sololá	2	El tablón	10	Octubre	2023-09-10T00:00:00	2024-11-06T19:00:00	5	Humedad	86
182549	7	Sololá	701	Sololá	2	El tablón	10	Octubre	2023-09-10T00:00:00	2024-11-06T19:00:00	6	Velocidad del viento	0
182550	7	Sololá	701	Sololá	2	El tablón	10	Octubre	2023-09-10T00:00:00	2024-11-06T19:00:00	7	Dirección del viento	0
182551	7	Sololá	701	Sololá	2	El tablón	10	Octubre	2023-09-10T00:00:00	2024-11-06T19:00:00	1	Precipitación	0
182552	7	Sololá	701	Sololá	2	El tablón	10	Octubre	2023-09-10T00:00:00	2024-11-06T19:00:00	8	Radiación solar	0
182553	7	Sololá	701	Sololá	2	El tablón	10	Octubre	2023-09-10T00:00:00	2024-11-06T20:00:00	2	Temperatura media	14.3
182554	7	Sololá	701	Sololá	2	El tablón	10	Octubre	2023-09-10T00:00:00	2024-11-06T20:00:00	4	Temperatura máxima	14.5
182555	7	Sololá	701	Sololá	2	El tablón	10	Octubre	2023-09-10T00:00:00	2024-11-06T20:00:00	3	Temperatura mínima	14.3
182556	7	Sololá	701	Sololá	2	El tablón	10	Octubre	2023-09-10T00:00:00	2024-11-06T20:00:00	5	Humedad	86
182557	7	Sololá	701	Sololá	2	El tablón	10	Octubre	2023-09-10T00:00:00	2024-11-06T20:00:00	6	Velocidad del viento	1.6
182558	7	Sololá	701	Sololá	2	El tablón	10	Octubre	2023-09-10T00:00:00	2024-11-06T20:00:00	7	Dirección del viento	1.61
182559	7	Sololá	701	Sololá	2	El tablón	10	Octubre	2023-09-10T00:00:00	2024-11-06T20:00:00	1	Precipitación	0
182560	7	Sololá	701	Sololá	2	El tablón	10	Octubre	2023-09-10T00:00:00	2024-11-06T20:00:00	8	Radiación solar	0
182561	7	Sololá	701	Sololá	2	El tablón	10	Octubre	2023-09-10T00:00:00	2024-11-06T21:00:00	2	Temperatura media	13.8
182562	7	Sololá	701	Sololá	2	El tablón	10	Octubre	2023-09-10T00:00:00	2024-11-06T21:00:00	4	Temperatura máxima	14.3
182563	7	Sololá	701	Sololá	2	El tablón	10	Octubre	2023-09-10T00:00:00	2024-11-06T21:00:00	3	Temperatura mínima	13.8
182564	7	Sololá	701	Sololá	2	El tablón	10	Octubre	2023-09-10T00:00:00	2024-11-06T21:00:00	5	Humedad	86
182565	7	Sololá	701	Sololá	2	El tablón	10	Octubre	2023-09-10T00:00:00	2024-11-06T21:00:00	6	Velocidad del viento	1.6
182566	7	Sololá	701	Sololá	2	El tablón	10	Octubre	2023-09-10T00:00:00	2024-11-06T21:00:00	7	Dirección del viento	1.61
182567	7	Sololá	701	Sololá	2	El tablón	10	Octubre	2023-09-10T00:00:00	2024-11-06T21:00:00	1	Precipitación	0
182568	7	Sololá	701	Sololá	2	El tablón	10	Octubre	2023-09-10T00:00:00	2024-11-06T21:00:00	8	Radiación solar	0
182569	7	Sololá	701	Sololá	2	El tablón	10	Octubre	2023-09-10T00:00:00	2024-11-06T22:00:00	2	Temperatura media	13.3
182570	7	Sololá	701	Sololá	2	El tablón	10	Octubre	2023-09-10T00:00:00	2024-11-06T22:00:00	4	Temperatura máxima	13.8
182571	7	Sololá	701	Sololá	2	El tablón	10	Octubre	2023-09-10T00:00:00	2024-11-06T22:00:00	3	Temperatura mínima	13.3
182572	7	Sololá	701	Sololá	2	El tablón	10	Octubre	2023-09-10T00:00:00	2024-11-06T22:00:00	5	Humedad	87
182573	7	Sololá	701	Sololá	2	El tablón	10	Octubre	2023-09-10T00:00:00	2024-11-06T22:00:00	6	Velocidad del viento	1.6
182574	7	Sololá	701	Sololá	2	El tablón	10	Octubre	2023-09-10T00:00:00	2024-11-06T22:00:00	7	Dirección del viento	1.61
182575	7	Sololá	701	Sololá	2	El tablón	10	Octubre	2023-09-10T00:00:00	2024-11-06T22:00:00	1	Precipitación	0.2
182576	7	Sololá	701	Sololá	2	El tablón	10	Octubre	2023-09-10T00:00:00	2024-11-06T22:00:00	8	Radiación solar	0
182577	7	Sololá	701	Sololá	2	El tablón	10	Octubre	2023-09-10T00:00:00	2024-11-06T23:00:00	2	Temperatura media	13.4
182578	7	Sololá	701	Sololá	2	El tablón	10	Octubre	2023-09-10T00:00:00	2024-11-06T23:00:00	4	Temperatura máxima	13.5
182579	7	Sololá	701	Sololá	2	El tablón	10	Octubre	2023-09-10T00:00:00	2024-11-06T23:00:00	3	Temperatura mínima	13.3
182580	7	Sololá	701	Sololá	2	El tablón	10	Octubre	2023-09-10T00:00:00	2024-11-06T23:00:00	5	Humedad	87
182581	7	Sololá	701	Sololá	2	El tablón	10	Octubre	2023-09-10T00:00:00	2024-11-06T23:00:00	6	Velocidad del viento	0
182582	7	Sololá	701	Sololá	2	El tablón	10	Octubre	2023-09-10T00:00:00	2024-11-06T23:00:00	7	Dirección del viento	0
182583	7	Sololá	701	Sololá	2	El tablón	10	Octubre	2023-09-10T00:00:00	2024-11-06T23:00:00	1	Precipitación	0
182584	7	Sololá	701	Sololá	2	El tablón	10	Octubre	2023-09-10T00:00:00	2024-11-06T23:00:00	8	Radiación solar	0
182585	7	Sololá	701	Sololá	2	El tablón	10	Octubre	2023-10-10T00:00:00	2024-11-06T00:00:00	2	Temperatura media	13.6
182586	7	Sololá	701	Sololá	2	El tablón	10	Octubre	2023-10-10T00:00:00	2024-11-06T00:00:00	4	Temperatura máxima	13.6
182587	7	Sololá	701	Sololá	2	El tablón	10	Octubre	2023-10-10T00:00:00	2024-11-06T00:00:00	3	Temperatura mínima	13.4
182588	7	Sololá	701	Sololá	2	El tablón	10	Octubre	2023-10-10T00:00:00	2024-11-06T00:00:00	5	Humedad	87
182589	7	Sololá	701	Sololá	2	El tablón	10	Octubre	2023-10-10T00:00:00	2024-11-06T00:00:00	6	Velocidad del viento	0
182590	7	Sololá	701	Sololá	2	El tablón	10	Octubre	2023-10-10T00:00:00	2024-11-06T00:00:00	7	Dirección del viento	0
182591	7	Sololá	701	Sololá	2	El tablón	10	Octubre	2023-10-10T00:00:00	2024-11-06T00:00:00	1	Precipitación	0
182592	7	Sololá	701	Sololá	2	El tablón	10	Octubre	2023-10-10T00:00:00	2024-11-06T00:00:00	8	Radiación solar	0
182593	7	Sololá	701	Sololá	2	El tablón	10	Octubre	2023-10-10T00:00:00	2024-11-06T01:00:00	2	Temperatura media	13.6
182594	7	Sololá	701	Sololá	2	El tablón	10	Octubre	2023-10-10T00:00:00	2024-11-06T01:00:00	4	Temperatura máxima	13.6
182595	7	Sololá	701	Sololá	2	El tablón	10	Octubre	2023-10-10T00:00:00	2024-11-06T01:00:00	3	Temperatura mínima	13.5
182596	7	Sololá	701	Sololá	2	El tablón	10	Octubre	2023-10-10T00:00:00	2024-11-06T01:00:00	5	Humedad	86
182597	7	Sololá	701	Sololá	2	El tablón	10	Octubre	2023-10-10T00:00:00	2024-11-06T01:00:00	6	Velocidad del viento	0
182598	7	Sololá	701	Sololá	2	El tablón	10	Octubre	2023-10-10T00:00:00	2024-11-06T01:00:00	7	Dirección del viento	0
182599	7	Sololá	701	Sololá	2	El tablón	10	Octubre	2023-10-10T00:00:00	2024-11-06T01:00:00	1	Precipitación	0
182600	7	Sololá	701	Sololá	2	El tablón	10	Octubre	2023-10-10T00:00:00	2024-11-06T01:00:00	8	Radiación solar	0
182601	7	Sololá	701	Sololá	2	El tablón	10	Octubre	2023-10-10T00:00:00	2024-11-06T02:00:00	2	Temperatura media	13.1
182602	7	Sololá	701	Sololá	2	El tablón	10	Octubre	2023-10-10T00:00:00	2024-11-06T02:00:00	4	Temperatura máxima	13.6
182603	7	Sololá	701	Sololá	2	El tablón	10	Octubre	2023-10-10T00:00:00	2024-11-06T02:00:00	3	Temperatura mínima	13.1
182604	7	Sololá	701	Sololá	2	El tablón	10	Octubre	2023-10-10T00:00:00	2024-11-06T02:00:00	5	Humedad	87
182605	7	Sololá	701	Sololá	2	El tablón	10	Octubre	2023-10-10T00:00:00	2024-11-06T02:00:00	6	Velocidad del viento	0
182606	7	Sololá	701	Sololá	2	El tablón	10	Octubre	2023-10-10T00:00:00	2024-11-06T02:00:00	7	Dirección del viento	0
182607	7	Sololá	701	Sololá	2	El tablón	10	Octubre	2023-10-10T00:00:00	2024-11-06T02:00:00	1	Precipitación	0
182608	7	Sololá	701	Sololá	2	El tablón	10	Octubre	2023-10-10T00:00:00	2024-11-06T02:00:00	8	Radiación solar	0
182609	7	Sololá	701	Sololá	2	El tablón	10	Octubre	2023-10-10T00:00:00	2024-11-06T03:00:00	2	Temperatura media	12.4
182610	7	Sololá	701	Sololá	2	El tablón	10	Octubre	2023-10-10T00:00:00	2024-11-06T03:00:00	4	Temperatura máxima	13.1
182611	7	Sololá	701	Sololá	2	El tablón	10	Octubre	2023-10-10T00:00:00	2024-11-06T03:00:00	3	Temperatura mínima	12.4
182612	7	Sololá	701	Sololá	2	El tablón	10	Octubre	2023-10-10T00:00:00	2024-11-06T03:00:00	5	Humedad	87
182613	7	Sololá	701	Sololá	2	El tablón	10	Octubre	2023-10-10T00:00:00	2024-11-06T03:00:00	6	Velocidad del viento	1.6
182614	7	Sololá	701	Sololá	2	El tablón	10	Octubre	2023-10-10T00:00:00	2024-11-06T03:00:00	7	Dirección del viento	1.61
182615	7	Sololá	701	Sololá	2	El tablón	10	Octubre	2023-10-10T00:00:00	2024-11-06T03:00:00	1	Precipitación	0
182616	7	Sololá	701	Sololá	2	El tablón	10	Octubre	2023-10-10T00:00:00	2024-11-06T03:00:00	8	Radiación solar	0
182617	7	Sololá	701	Sololá	2	El tablón	10	Octubre	2023-10-10T00:00:00	2024-11-06T04:00:00	2	Temperatura media	11.7
182618	7	Sololá	701	Sololá	2	El tablón	10	Octubre	2023-10-10T00:00:00	2024-11-06T04:00:00	4	Temperatura máxima	12.4
182619	7	Sololá	701	Sololá	2	El tablón	10	Octubre	2023-10-10T00:00:00	2024-11-06T04:00:00	3	Temperatura mínima	11.7
182620	7	Sololá	701	Sololá	2	El tablón	10	Octubre	2023-10-10T00:00:00	2024-11-06T04:00:00	5	Humedad	88
182621	7	Sololá	701	Sololá	2	El tablón	10	Octubre	2023-10-10T00:00:00	2024-11-06T04:00:00	6	Velocidad del viento	1.6
182622	7	Sololá	701	Sololá	2	El tablón	10	Octubre	2023-10-10T00:00:00	2024-11-06T04:00:00	7	Dirección del viento	1.61
182623	7	Sololá	701	Sololá	2	El tablón	10	Octubre	2023-10-10T00:00:00	2024-11-06T04:00:00	1	Precipitación	0
182624	7	Sololá	701	Sololá	2	El tablón	10	Octubre	2023-10-10T00:00:00	2024-11-06T04:00:00	8	Radiación solar	0
182625	7	Sololá	701	Sololá	2	El tablón	10	Octubre	2023-10-10T00:00:00	2024-11-06T05:00:00	2	Temperatura media	12.1
182626	7	Sololá	701	Sololá	2	El tablón	10	Octubre	2023-10-10T00:00:00	2024-11-06T05:00:00	4	Temperatura máxima	12.2
182627	7	Sololá	701	Sololá	2	El tablón	10	Octubre	2023-10-10T00:00:00	2024-11-06T05:00:00	3	Temperatura mínima	11.6
182628	7	Sololá	701	Sololá	2	El tablón	10	Octubre	2023-10-10T00:00:00	2024-11-06T05:00:00	5	Humedad	89
182629	7	Sololá	701	Sololá	2	El tablón	10	Octubre	2023-10-10T00:00:00	2024-11-06T05:00:00	6	Velocidad del viento	1.6
182630	7	Sololá	701	Sololá	2	El tablón	10	Octubre	2023-10-10T00:00:00	2024-11-06T05:00:00	7	Dirección del viento	1.61
182631	7	Sololá	701	Sololá	2	El tablón	10	Octubre	2023-10-10T00:00:00	2024-11-06T05:00:00	1	Precipitación	0
182632	7	Sololá	701	Sololá	2	El tablón	10	Octubre	2023-10-10T00:00:00	2024-11-06T05:00:00	8	Radiación solar	0
182633	7	Sololá	701	Sololá	2	El tablón	10	Octubre	2023-10-10T00:00:00	2024-11-06T06:00:00	2	Temperatura media	11.8
182634	7	Sololá	701	Sololá	2	El tablón	10	Octubre	2023-10-10T00:00:00	2024-11-06T06:00:00	4	Temperatura máxima	12.1
182635	7	Sololá	701	Sololá	2	El tablón	10	Octubre	2023-10-10T00:00:00	2024-11-06T06:00:00	3	Temperatura mínima	11.6
182636	7	Sololá	701	Sololá	2	El tablón	10	Octubre	2023-10-10T00:00:00	2024-11-06T06:00:00	5	Humedad	88
182637	7	Sololá	701	Sololá	2	El tablón	10	Octubre	2023-10-10T00:00:00	2024-11-06T06:00:00	6	Velocidad del viento	0
182638	7	Sololá	701	Sololá	2	El tablón	10	Octubre	2023-10-10T00:00:00	2024-11-06T06:00:00	7	Dirección del viento	0
182639	7	Sololá	701	Sololá	2	El tablón	10	Octubre	2023-10-10T00:00:00	2024-11-06T06:00:00	1	Precipitación	0
182640	7	Sololá	701	Sololá	2	El tablón	10	Octubre	2023-10-10T00:00:00	2024-11-06T06:00:00	8	Radiación solar	0
182641	7	Sololá	701	Sololá	2	El tablón	10	Octubre	2023-10-10T00:00:00	2024-11-06T07:00:00	2	Temperatura media	12.7
182642	7	Sololá	701	Sololá	2	El tablón	10	Octubre	2023-10-10T00:00:00	2024-11-06T07:00:00	4	Temperatura máxima	12.7
182643	7	Sololá	701	Sololá	2	El tablón	10	Octubre	2023-10-10T00:00:00	2024-11-06T07:00:00	3	Temperatura mínima	11.8
182644	7	Sololá	701	Sololá	2	El tablón	10	Octubre	2023-10-10T00:00:00	2024-11-06T07:00:00	5	Humedad	87
182645	7	Sololá	701	Sololá	2	El tablón	10	Octubre	2023-10-10T00:00:00	2024-11-06T07:00:00	6	Velocidad del viento	0
182646	7	Sololá	701	Sololá	2	El tablón	10	Octubre	2023-10-10T00:00:00	2024-11-06T07:00:00	7	Dirección del viento	0
182647	7	Sololá	701	Sololá	2	El tablón	10	Octubre	2023-10-10T00:00:00	2024-11-06T07:00:00	1	Precipitación	0
182648	7	Sololá	701	Sololá	2	El tablón	10	Octubre	2023-10-10T00:00:00	2024-11-06T07:00:00	8	Radiación solar	43
182649	7	Sololá	701	Sololá	2	El tablón	10	Octubre	2023-10-10T00:00:00	2024-11-06T08:00:00	2	Temperatura media	14.3
182650	7	Sololá	701	Sololá	2	El tablón	10	Octubre	2023-10-10T00:00:00	2024-11-06T08:00:00	4	Temperatura máxima	14.3
182651	7	Sololá	701	Sololá	2	El tablón	10	Octubre	2023-10-10T00:00:00	2024-11-06T08:00:00	3	Temperatura mínima	12.7
182652	7	Sololá	701	Sololá	2	El tablón	10	Octubre	2023-10-10T00:00:00	2024-11-06T08:00:00	5	Humedad	89
182653	7	Sololá	701	Sololá	2	El tablón	10	Octubre	2023-10-10T00:00:00	2024-11-06T08:00:00	6	Velocidad del viento	1.6
182654	7	Sololá	701	Sololá	2	El tablón	10	Octubre	2023-10-10T00:00:00	2024-11-06T08:00:00	7	Dirección del viento	1.61
182655	7	Sololá	701	Sololá	2	El tablón	10	Octubre	2023-10-10T00:00:00	2024-11-06T08:00:00	1	Precipitación	0
182656	7	Sololá	701	Sololá	2	El tablón	10	Octubre	2023-10-10T00:00:00	2024-11-06T08:00:00	8	Radiación solar	237
182657	7	Sololá	701	Sololá	2	El tablón	10	Octubre	2023-10-10T00:00:00	2024-11-06T09:00:00	2	Temperatura media	17.9
182658	7	Sololá	701	Sololá	2	El tablón	10	Octubre	2023-10-10T00:00:00	2024-11-06T09:00:00	4	Temperatura máxima	17.9
182659	7	Sololá	701	Sololá	2	El tablón	10	Octubre	2023-10-10T00:00:00	2024-11-06T09:00:00	3	Temperatura mínima	14.3
182660	7	Sololá	701	Sololá	2	El tablón	10	Octubre	2023-10-10T00:00:00	2024-11-06T09:00:00	5	Humedad	81
182661	7	Sololá	701	Sololá	2	El tablón	10	Octubre	2023-10-10T00:00:00	2024-11-06T09:00:00	6	Velocidad del viento	1.6
182662	7	Sololá	701	Sololá	2	El tablón	10	Octubre	2023-10-10T00:00:00	2024-11-06T09:00:00	7	Dirección del viento	1.61
182663	7	Sololá	701	Sololá	2	El tablón	10	Octubre	2023-10-10T00:00:00	2024-11-06T09:00:00	1	Precipitación	0
182664	7	Sololá	701	Sololá	2	El tablón	10	Octubre	2023-10-10T00:00:00	2024-11-06T09:00:00	8	Radiación solar	445
182665	7	Sololá	701	Sololá	2	El tablón	10	Octubre	2023-10-10T00:00:00	2024-11-06T10:00:00	2	Temperatura media	18.1
182666	7	Sololá	701	Sololá	2	El tablón	10	Octubre	2023-10-10T00:00:00	2024-11-06T10:00:00	4	Temperatura máxima	19.2
182667	7	Sololá	701	Sololá	2	El tablón	10	Octubre	2023-10-10T00:00:00	2024-11-06T10:00:00	3	Temperatura mínima	18
182668	7	Sololá	701	Sololá	2	El tablón	10	Octubre	2023-10-10T00:00:00	2024-11-06T10:00:00	5	Humedad	86
182669	7	Sololá	701	Sololá	2	El tablón	10	Octubre	2023-10-10T00:00:00	2024-11-06T10:00:00	6	Velocidad del viento	3.2
182670	7	Sololá	701	Sololá	2	El tablón	10	Octubre	2023-10-10T00:00:00	2024-11-06T10:00:00	7	Dirección del viento	3.22
182671	7	Sololá	701	Sololá	2	El tablón	10	Octubre	2023-10-10T00:00:00	2024-11-06T10:00:00	1	Precipitación	0.2
182672	7	Sololá	701	Sololá	2	El tablón	10	Octubre	2023-10-10T00:00:00	2024-11-06T10:00:00	8	Radiación solar	565
182673	7	Sololá	701	Sololá	2	El tablón	10	Octubre	2023-10-10T00:00:00	2024-11-06T11:00:00	2	Temperatura media	18.9
182674	7	Sololá	701	Sololá	2	El tablón	10	Octubre	2023-10-10T00:00:00	2024-11-06T11:00:00	4	Temperatura máxima	19
182675	7	Sololá	701	Sololá	2	El tablón	10	Octubre	2023-10-10T00:00:00	2024-11-06T11:00:00	3	Temperatura mínima	17.9
182676	7	Sololá	701	Sololá	2	El tablón	10	Octubre	2023-10-10T00:00:00	2024-11-06T11:00:00	5	Humedad	77
182677	7	Sololá	701	Sololá	2	El tablón	10	Octubre	2023-10-10T00:00:00	2024-11-06T11:00:00	6	Velocidad del viento	6.4
182678	7	Sololá	701	Sololá	2	El tablón	10	Octubre	2023-10-10T00:00:00	2024-11-06T11:00:00	7	Dirección del viento	6.44
182679	7	Sololá	701	Sololá	2	El tablón	10	Octubre	2023-10-10T00:00:00	2024-11-06T11:00:00	1	Precipitación	0
182680	7	Sololá	701	Sololá	2	El tablón	10	Octubre	2023-10-10T00:00:00	2024-11-06T11:00:00	8	Radiación solar	814
182681	7	Sololá	701	Sololá	2	El tablón	10	Octubre	2023-10-10T00:00:00	2024-11-06T12:00:00	2	Temperatura media	18.3
182682	7	Sololá	701	Sololá	2	El tablón	10	Octubre	2023-10-10T00:00:00	2024-11-06T12:00:00	4	Temperatura máxima	19.3
182683	7	Sololá	701	Sololá	2	El tablón	10	Octubre	2023-10-10T00:00:00	2024-11-06T12:00:00	3	Temperatura mínima	18.3
182684	7	Sololá	701	Sololá	2	El tablón	10	Octubre	2023-10-10T00:00:00	2024-11-06T12:00:00	5	Humedad	81
182685	7	Sololá	701	Sololá	2	El tablón	10	Octubre	2023-10-10T00:00:00	2024-11-06T12:00:00	6	Velocidad del viento	6.4
182686	7	Sololá	701	Sololá	2	El tablón	10	Octubre	2023-10-10T00:00:00	2024-11-06T12:00:00	7	Dirección del viento	6.44
182687	7	Sololá	701	Sololá	2	El tablón	10	Octubre	2023-10-10T00:00:00	2024-11-06T12:00:00	1	Precipitación	0
182688	7	Sololá	701	Sololá	2	El tablón	10	Octubre	2023-10-10T00:00:00	2024-11-06T12:00:00	8	Radiación solar	865
182689	7	Sololá	701	Sololá	2	El tablón	10	Octubre	2023-10-10T00:00:00	2024-11-06T13:00:00	2	Temperatura media	17.1
182690	7	Sololá	701	Sololá	2	El tablón	10	Octubre	2023-10-10T00:00:00	2024-11-06T13:00:00	4	Temperatura máxima	18.2
182691	7	Sololá	701	Sololá	2	El tablón	10	Octubre	2023-10-10T00:00:00	2024-11-06T13:00:00	3	Temperatura mínima	17.1
182692	7	Sololá	701	Sololá	2	El tablón	10	Octubre	2023-10-10T00:00:00	2024-11-06T13:00:00	5	Humedad	87
182693	7	Sololá	701	Sololá	2	El tablón	10	Octubre	2023-10-10T00:00:00	2024-11-06T13:00:00	6	Velocidad del viento	8
182694	7	Sololá	701	Sololá	2	El tablón	10	Octubre	2023-10-10T00:00:00	2024-11-06T13:00:00	7	Dirección del viento	8.05
182695	7	Sololá	701	Sololá	2	El tablón	10	Octubre	2023-10-10T00:00:00	2024-11-06T13:00:00	1	Precipitación	0
182696	7	Sololá	701	Sololá	2	El tablón	10	Octubre	2023-10-10T00:00:00	2024-11-06T13:00:00	8	Radiación solar	350
182697	7	Sololá	701	Sololá	2	El tablón	10	Octubre	2023-10-10T00:00:00	2024-11-06T14:00:00	2	Temperatura media	17.6
182698	7	Sololá	701	Sololá	2	El tablón	10	Octubre	2023-10-10T00:00:00	2024-11-06T14:00:00	4	Temperatura máxima	17.8
182699	7	Sololá	701	Sololá	2	El tablón	10	Octubre	2023-10-10T00:00:00	2024-11-06T14:00:00	3	Temperatura mínima	16.8
182700	7	Sololá	701	Sololá	2	El tablón	10	Octubre	2023-10-10T00:00:00	2024-11-06T14:00:00	5	Humedad	86
182701	7	Sololá	701	Sololá	2	El tablón	10	Octubre	2023-10-10T00:00:00	2024-11-06T14:00:00	6	Velocidad del viento	6.4
182702	7	Sololá	701	Sololá	2	El tablón	10	Octubre	2023-10-10T00:00:00	2024-11-06T14:00:00	7	Dirección del viento	6.44
182703	7	Sololá	701	Sololá	2	El tablón	10	Octubre	2023-10-10T00:00:00	2024-11-06T14:00:00	1	Precipitación	0
182704	7	Sololá	701	Sololá	2	El tablón	10	Octubre	2023-10-10T00:00:00	2024-11-06T14:00:00	8	Radiación solar	384
182705	7	Sololá	701	Sololá	2	El tablón	10	Octubre	2023-10-10T00:00:00	2024-11-06T15:00:00	2	Temperatura media	16.8
182706	7	Sololá	701	Sololá	2	El tablón	10	Octubre	2023-10-10T00:00:00	2024-11-06T15:00:00	4	Temperatura máxima	17.7
182707	7	Sololá	701	Sololá	2	El tablón	10	Octubre	2023-10-10T00:00:00	2024-11-06T15:00:00	3	Temperatura mínima	16.6
182708	7	Sololá	701	Sololá	2	El tablón	10	Octubre	2023-10-10T00:00:00	2024-11-06T15:00:00	5	Humedad	88
182709	7	Sololá	701	Sololá	2	El tablón	10	Octubre	2023-10-10T00:00:00	2024-11-06T15:00:00	6	Velocidad del viento	4.8
182710	7	Sololá	701	Sololá	2	El tablón	10	Octubre	2023-10-10T00:00:00	2024-11-06T15:00:00	7	Dirección del viento	4.83
182711	7	Sololá	701	Sololá	2	El tablón	10	Octubre	2023-10-10T00:00:00	2024-11-06T15:00:00	1	Precipitación	0
182712	7	Sololá	701	Sololá	2	El tablón	10	Octubre	2023-10-10T00:00:00	2024-11-06T15:00:00	8	Radiación solar	256
182713	7	Sololá	701	Sololá	2	El tablón	10	Octubre	2023-10-10T00:00:00	2024-11-06T16:00:00	2	Temperatura media	15.4
182714	7	Sololá	701	Sololá	2	El tablón	10	Octubre	2023-10-10T00:00:00	2024-11-06T16:00:00	4	Temperatura máxima	16.9
182715	7	Sololá	701	Sololá	2	El tablón	10	Octubre	2023-10-10T00:00:00	2024-11-06T16:00:00	3	Temperatura mínima	15.4
182716	7	Sololá	701	Sololá	2	El tablón	10	Octubre	2023-10-10T00:00:00	2024-11-06T16:00:00	5	Humedad	87
182717	7	Sololá	701	Sololá	2	El tablón	10	Octubre	2023-10-10T00:00:00	2024-11-06T16:00:00	6	Velocidad del viento	3.2
182718	7	Sololá	701	Sololá	2	El tablón	10	Octubre	2023-10-10T00:00:00	2024-11-06T16:00:00	7	Dirección del viento	3.22
182719	7	Sololá	701	Sololá	2	El tablón	10	Octubre	2023-10-10T00:00:00	2024-11-06T16:00:00	1	Precipitación	2.8
182720	7	Sololá	701	Sololá	2	El tablón	10	Octubre	2023-10-10T00:00:00	2024-11-06T16:00:00	8	Radiación solar	73
182721	7	Sololá	701	Sololá	2	El tablón	10	Octubre	2023-10-10T00:00:00	2024-11-06T17:00:00	2	Temperatura media	15.2
182722	7	Sololá	701	Sololá	2	El tablón	10	Octubre	2023-10-10T00:00:00	2024-11-06T17:00:00	4	Temperatura máxima	15.5
182723	7	Sololá	701	Sololá	2	El tablón	10	Octubre	2023-10-10T00:00:00	2024-11-06T17:00:00	3	Temperatura mínima	15.2
182724	7	Sololá	701	Sololá	2	El tablón	10	Octubre	2023-10-10T00:00:00	2024-11-06T17:00:00	5	Humedad	87
182725	7	Sololá	701	Sololá	2	El tablón	10	Octubre	2023-10-10T00:00:00	2024-11-06T17:00:00	6	Velocidad del viento	3.2
182726	7	Sololá	701	Sololá	2	El tablón	10	Octubre	2023-10-10T00:00:00	2024-11-06T17:00:00	7	Dirección del viento	3.22
182727	7	Sololá	701	Sololá	2	El tablón	10	Octubre	2023-10-10T00:00:00	2024-11-06T17:00:00	1	Precipitación	0
182728	7	Sololá	701	Sololá	2	El tablón	10	Octubre	2023-10-10T00:00:00	2024-11-06T17:00:00	8	Radiación solar	46
182729	7	Sololá	701	Sololá	2	El tablón	10	Octubre	2023-10-10T00:00:00	2024-11-06T18:00:00	2	Temperatura media	14.7
182730	7	Sololá	701	Sololá	2	El tablón	10	Octubre	2023-10-10T00:00:00	2024-11-06T18:00:00	4	Temperatura máxima	15.2
182731	7	Sololá	701	Sololá	2	El tablón	10	Octubre	2023-10-10T00:00:00	2024-11-06T18:00:00	3	Temperatura mínima	14.7
182732	7	Sololá	701	Sololá	2	El tablón	10	Octubre	2023-10-10T00:00:00	2024-11-06T18:00:00	5	Humedad	86
182733	7	Sololá	701	Sololá	2	El tablón	10	Octubre	2023-10-10T00:00:00	2024-11-06T18:00:00	6	Velocidad del viento	3.2
182734	7	Sololá	701	Sololá	2	El tablón	10	Octubre	2023-10-10T00:00:00	2024-11-06T18:00:00	7	Dirección del viento	3.22
182735	7	Sololá	701	Sololá	2	El tablón	10	Octubre	2023-10-10T00:00:00	2024-11-06T18:00:00	1	Precipitación	14.8
182736	7	Sololá	701	Sololá	2	El tablón	10	Octubre	2023-10-10T00:00:00	2024-11-06T18:00:00	8	Radiación solar	1
182737	7	Sololá	701	Sololá	2	El tablón	10	Octubre	2023-10-10T00:00:00	2024-11-06T19:00:00	2	Temperatura media	14.6
182738	7	Sololá	701	Sololá	2	El tablón	10	Octubre	2023-10-10T00:00:00	2024-11-06T19:00:00	4	Temperatura máxima	14.7
182739	7	Sololá	701	Sololá	2	El tablón	10	Octubre	2023-10-10T00:00:00	2024-11-06T19:00:00	3	Temperatura mínima	14.6
182740	7	Sololá	701	Sololá	2	El tablón	10	Octubre	2023-10-10T00:00:00	2024-11-06T19:00:00	5	Humedad	86
182741	7	Sololá	701	Sololá	2	El tablón	10	Octubre	2023-10-10T00:00:00	2024-11-06T19:00:00	6	Velocidad del viento	1.6
182742	7	Sololá	701	Sololá	2	El tablón	10	Octubre	2023-10-10T00:00:00	2024-11-06T19:00:00	7	Dirección del viento	1.61
182743	7	Sololá	701	Sololá	2	El tablón	10	Octubre	2023-10-10T00:00:00	2024-11-06T19:00:00	1	Precipitación	1.4
182744	7	Sololá	701	Sololá	2	El tablón	10	Octubre	2023-10-10T00:00:00	2024-11-06T19:00:00	8	Radiación solar	0
182745	7	Sololá	701	Sololá	2	El tablón	10	Octubre	2023-10-10T00:00:00	2024-11-06T20:00:00	2	Temperatura media	14.3
182746	7	Sololá	701	Sololá	2	El tablón	10	Octubre	2023-10-10T00:00:00	2024-11-06T20:00:00	4	Temperatura máxima	14.6
182747	7	Sololá	701	Sololá	2	El tablón	10	Octubre	2023-10-10T00:00:00	2024-11-06T20:00:00	3	Temperatura mínima	14.3
182748	7	Sololá	701	Sololá	2	El tablón	10	Octubre	2023-10-10T00:00:00	2024-11-06T20:00:00	5	Humedad	85
182749	7	Sololá	701	Sololá	2	El tablón	10	Octubre	2023-10-10T00:00:00	2024-11-06T20:00:00	6	Velocidad del viento	0
182750	7	Sololá	701	Sololá	2	El tablón	10	Octubre	2023-10-10T00:00:00	2024-11-06T20:00:00	7	Dirección del viento	0
182751	7	Sololá	701	Sololá	2	El tablón	10	Octubre	2023-10-10T00:00:00	2024-11-06T20:00:00	1	Precipitación	0
182752	7	Sololá	701	Sololá	2	El tablón	10	Octubre	2023-10-10T00:00:00	2024-11-06T20:00:00	8	Radiación solar	0
182753	7	Sololá	701	Sololá	2	El tablón	10	Octubre	2023-10-10T00:00:00	2024-11-06T21:00:00	2	Temperatura media	14.3
182754	7	Sololá	701	Sololá	2	El tablón	10	Octubre	2023-10-10T00:00:00	2024-11-06T21:00:00	4	Temperatura máxima	14.4
182755	7	Sololá	701	Sololá	2	El tablón	10	Octubre	2023-10-10T00:00:00	2024-11-06T21:00:00	3	Temperatura mínima	14.2
182756	7	Sololá	701	Sololá	2	El tablón	10	Octubre	2023-10-10T00:00:00	2024-11-06T21:00:00	5	Humedad	85
182757	7	Sololá	701	Sololá	2	El tablón	10	Octubre	2023-10-10T00:00:00	2024-11-06T21:00:00	6	Velocidad del viento	0
182758	7	Sololá	701	Sololá	2	El tablón	10	Octubre	2023-10-10T00:00:00	2024-11-06T21:00:00	7	Dirección del viento	0
182759	7	Sololá	701	Sololá	2	El tablón	10	Octubre	2023-10-10T00:00:00	2024-11-06T21:00:00	1	Precipitación	0
182760	7	Sololá	701	Sololá	2	El tablón	10	Octubre	2023-10-10T00:00:00	2024-11-06T21:00:00	8	Radiación solar	0
182761	7	Sololá	701	Sololá	2	El tablón	10	Octubre	2023-10-10T00:00:00	2024-11-06T22:00:00	2	Temperatura media	14.1
182762	7	Sololá	701	Sololá	2	El tablón	10	Octubre	2023-10-10T00:00:00	2024-11-06T22:00:00	4	Temperatura máxima	14.3
182763	7	Sololá	701	Sololá	2	El tablón	10	Octubre	2023-10-10T00:00:00	2024-11-06T22:00:00	3	Temperatura mínima	14.1
182764	7	Sololá	701	Sololá	2	El tablón	10	Octubre	2023-10-10T00:00:00	2024-11-06T22:00:00	5	Humedad	85
182765	7	Sololá	701	Sololá	2	El tablón	10	Octubre	2023-10-10T00:00:00	2024-11-06T22:00:00	6	Velocidad del viento	0
182766	7	Sololá	701	Sololá	2	El tablón	10	Octubre	2023-10-10T00:00:00	2024-11-06T22:00:00	7	Dirección del viento	0
182767	7	Sololá	701	Sololá	2	El tablón	10	Octubre	2023-10-10T00:00:00	2024-11-06T22:00:00	1	Precipitación	0
182768	7	Sololá	701	Sololá	2	El tablón	10	Octubre	2023-10-10T00:00:00	2024-11-06T22:00:00	8	Radiación solar	0
182769	7	Sololá	701	Sololá	2	El tablón	10	Octubre	2023-10-10T00:00:00	2024-11-06T23:00:00	2	Temperatura media	13.8
182770	7	Sololá	701	Sololá	2	El tablón	10	Octubre	2023-10-10T00:00:00	2024-11-06T23:00:00	4	Temperatura máxima	14.2
182771	7	Sololá	701	Sololá	2	El tablón	10	Octubre	2023-10-10T00:00:00	2024-11-06T23:00:00	3	Temperatura mínima	13.8
182772	7	Sololá	701	Sololá	2	El tablón	10	Octubre	2023-10-10T00:00:00	2024-11-06T23:00:00	5	Humedad	85
182773	7	Sololá	701	Sololá	2	El tablón	10	Octubre	2023-10-10T00:00:00	2024-11-06T23:00:00	6	Velocidad del viento	1.6
182774	7	Sololá	701	Sololá	2	El tablón	10	Octubre	2023-10-10T00:00:00	2024-11-06T23:00:00	7	Dirección del viento	1.61
182775	7	Sololá	701	Sololá	2	El tablón	10	Octubre	2023-10-10T00:00:00	2024-11-06T23:00:00	1	Precipitación	1.6
182776	7	Sololá	701	Sololá	2	El tablón	10	Octubre	2023-10-10T00:00:00	2024-11-06T23:00:00	8	Radiación solar	0
182777	7	Sololá	701	Sololá	2	El tablón	10	Octubre	2023-11-10T00:00:00	2024-11-06T00:00:00	2	Temperatura media	13.7
182778	7	Sololá	701	Sololá	2	El tablón	10	Octubre	2023-11-10T00:00:00	2024-11-06T00:00:00	4	Temperatura máxima	13.8
182779	7	Sololá	701	Sololá	2	El tablón	10	Octubre	2023-11-10T00:00:00	2024-11-06T00:00:00	3	Temperatura mínima	13.7
182780	7	Sololá	701	Sololá	2	El tablón	10	Octubre	2023-11-10T00:00:00	2024-11-06T00:00:00	5	Humedad	85
182781	7	Sololá	701	Sololá	2	El tablón	10	Octubre	2023-11-10T00:00:00	2024-11-06T00:00:00	6	Velocidad del viento	1.6
182782	7	Sololá	701	Sololá	2	El tablón	10	Octubre	2023-11-10T00:00:00	2024-11-06T00:00:00	7	Dirección del viento	1.61
182783	7	Sololá	701	Sololá	2	El tablón	10	Octubre	2023-11-10T00:00:00	2024-11-06T00:00:00	1	Precipitación	3
182784	7	Sololá	701	Sololá	2	El tablón	10	Octubre	2023-11-10T00:00:00	2024-11-06T00:00:00	8	Radiación solar	0
182785	7	Sololá	701	Sololá	2	El tablón	10	Octubre	2023-11-10T00:00:00	2024-11-06T01:00:00	2	Temperatura media	13.6
182786	7	Sololá	701	Sololá	2	El tablón	10	Octubre	2023-11-10T00:00:00	2024-11-06T01:00:00	4	Temperatura máxima	13.8
182787	7	Sololá	701	Sololá	2	El tablón	10	Octubre	2023-11-10T00:00:00	2024-11-06T01:00:00	3	Temperatura mínima	13.6
182788	7	Sololá	701	Sololá	2	El tablón	10	Octubre	2023-11-10T00:00:00	2024-11-06T01:00:00	5	Humedad	85
182789	7	Sololá	701	Sololá	2	El tablón	10	Octubre	2023-11-10T00:00:00	2024-11-06T01:00:00	6	Velocidad del viento	1.6
182790	7	Sololá	701	Sololá	2	El tablón	10	Octubre	2023-11-10T00:00:00	2024-11-06T01:00:00	7	Dirección del viento	1.61
182791	7	Sololá	701	Sololá	2	El tablón	10	Octubre	2023-11-10T00:00:00	2024-11-06T01:00:00	1	Precipitación	0
182792	7	Sololá	701	Sololá	2	El tablón	10	Octubre	2023-11-10T00:00:00	2024-11-06T01:00:00	8	Radiación solar	0
182793	7	Sololá	701	Sololá	2	El tablón	10	Octubre	2023-11-10T00:00:00	2024-11-06T02:00:00	2	Temperatura media	13.6
182794	7	Sololá	701	Sololá	2	El tablón	10	Octubre	2023-11-10T00:00:00	2024-11-06T02:00:00	4	Temperatura máxima	13.6
182795	7	Sololá	701	Sololá	2	El tablón	10	Octubre	2023-11-10T00:00:00	2024-11-06T02:00:00	3	Temperatura mínima	13.4
182796	7	Sololá	701	Sololá	2	El tablón	10	Octubre	2023-11-10T00:00:00	2024-11-06T02:00:00	5	Humedad	85
182797	7	Sololá	701	Sololá	2	El tablón	10	Octubre	2023-11-10T00:00:00	2024-11-06T02:00:00	6	Velocidad del viento	0
182798	7	Sololá	701	Sololá	2	El tablón	10	Octubre	2023-11-10T00:00:00	2024-11-06T02:00:00	7	Dirección del viento	0
182799	7	Sololá	701	Sololá	2	El tablón	10	Octubre	2023-11-10T00:00:00	2024-11-06T02:00:00	1	Precipitación	0
182800	7	Sololá	701	Sololá	2	El tablón	10	Octubre	2023-11-10T00:00:00	2024-11-06T02:00:00	8	Radiación solar	0
182801	7	Sololá	701	Sololá	2	El tablón	10	Octubre	2023-11-10T00:00:00	2024-11-06T03:00:00	2	Temperatura media	13.2
182802	7	Sololá	701	Sololá	2	El tablón	10	Octubre	2023-11-10T00:00:00	2024-11-06T03:00:00	4	Temperatura máxima	13.7
182803	7	Sololá	701	Sololá	2	El tablón	10	Octubre	2023-11-10T00:00:00	2024-11-06T03:00:00	3	Temperatura mínima	13.2
182804	7	Sololá	701	Sololá	2	El tablón	10	Octubre	2023-11-10T00:00:00	2024-11-06T03:00:00	5	Humedad	85
182805	7	Sololá	701	Sololá	2	El tablón	10	Octubre	2023-11-10T00:00:00	2024-11-06T03:00:00	6	Velocidad del viento	1.6
182806	7	Sololá	701	Sololá	2	El tablón	10	Octubre	2023-11-10T00:00:00	2024-11-06T03:00:00	7	Dirección del viento	1.61
182807	7	Sololá	701	Sololá	2	El tablón	10	Octubre	2023-11-10T00:00:00	2024-11-06T03:00:00	1	Precipitación	0
182808	7	Sololá	701	Sololá	2	El tablón	10	Octubre	2023-11-10T00:00:00	2024-11-06T03:00:00	8	Radiación solar	0
182809	7	Sololá	701	Sololá	2	El tablón	10	Octubre	2023-11-10T00:00:00	2024-11-06T04:00:00	2	Temperatura media	13.1
182810	7	Sololá	701	Sololá	2	El tablón	10	Octubre	2023-11-10T00:00:00	2024-11-06T04:00:00	4	Temperatura máxima	13.2
182811	7	Sololá	701	Sololá	2	El tablón	10	Octubre	2023-11-10T00:00:00	2024-11-06T04:00:00	3	Temperatura mínima	13
182812	7	Sololá	701	Sololá	2	El tablón	10	Octubre	2023-11-10T00:00:00	2024-11-06T04:00:00	5	Humedad	85
182813	7	Sololá	701	Sololá	2	El tablón	10	Octubre	2023-11-10T00:00:00	2024-11-06T04:00:00	6	Velocidad del viento	0
182814	7	Sololá	701	Sololá	2	El tablón	10	Octubre	2023-11-10T00:00:00	2024-11-06T04:00:00	7	Dirección del viento	0
182815	7	Sololá	701	Sololá	2	El tablón	10	Octubre	2023-11-10T00:00:00	2024-11-06T04:00:00	1	Precipitación	0
182816	7	Sololá	701	Sololá	2	El tablón	10	Octubre	2023-11-10T00:00:00	2024-11-06T04:00:00	8	Radiación solar	0
182817	7	Sololá	701	Sololá	2	El tablón	10	Octubre	2023-11-10T00:00:00	2024-11-06T05:00:00	2	Temperatura media	13.1
182818	7	Sololá	701	Sololá	2	El tablón	10	Octubre	2023-11-10T00:00:00	2024-11-06T05:00:00	4	Temperatura máxima	13.2
182819	7	Sololá	701	Sololá	2	El tablón	10	Octubre	2023-11-10T00:00:00	2024-11-06T05:00:00	3	Temperatura mínima	13
182820	7	Sololá	701	Sololá	2	El tablón	10	Octubre	2023-11-10T00:00:00	2024-11-06T05:00:00	5	Humedad	85
182821	7	Sololá	701	Sololá	2	El tablón	10	Octubre	2023-11-10T00:00:00	2024-11-06T05:00:00	6	Velocidad del viento	0
182822	7	Sololá	701	Sololá	2	El tablón	10	Octubre	2023-11-10T00:00:00	2024-11-06T05:00:00	7	Dirección del viento	0
182823	7	Sololá	701	Sololá	2	El tablón	10	Octubre	2023-11-10T00:00:00	2024-11-06T05:00:00	1	Precipitación	0
182824	7	Sololá	701	Sololá	2	El tablón	10	Octubre	2023-11-10T00:00:00	2024-11-06T05:00:00	8	Radiación solar	0
182825	7	Sololá	701	Sololá	2	El tablón	10	Octubre	2023-11-10T00:00:00	2024-11-06T06:00:00	2	Temperatura media	12.9
182826	7	Sololá	701	Sololá	2	El tablón	10	Octubre	2023-11-10T00:00:00	2024-11-06T06:00:00	4	Temperatura máxima	13.1
182827	7	Sololá	701	Sololá	2	El tablón	10	Octubre	2023-11-10T00:00:00	2024-11-06T06:00:00	3	Temperatura mínima	12.9
182828	7	Sololá	701	Sololá	2	El tablón	10	Octubre	2023-11-10T00:00:00	2024-11-06T06:00:00	5	Humedad	85
182829	7	Sololá	701	Sololá	2	El tablón	10	Octubre	2023-11-10T00:00:00	2024-11-06T06:00:00	6	Velocidad del viento	1.6
182830	7	Sololá	701	Sololá	2	El tablón	10	Octubre	2023-11-10T00:00:00	2024-11-06T06:00:00	7	Dirección del viento	1.61
182831	7	Sololá	701	Sololá	2	El tablón	10	Octubre	2023-11-10T00:00:00	2024-11-06T06:00:00	1	Precipitación	0
182832	7	Sololá	701	Sololá	2	El tablón	10	Octubre	2023-11-10T00:00:00	2024-11-06T06:00:00	8	Radiación solar	0
182833	7	Sololá	701	Sololá	2	El tablón	10	Octubre	2023-11-10T00:00:00	2024-11-06T07:00:00	2	Temperatura media	13.3
182834	7	Sololá	701	Sololá	2	El tablón	10	Octubre	2023-11-10T00:00:00	2024-11-06T07:00:00	4	Temperatura máxima	13.3
182835	7	Sololá	701	Sololá	2	El tablón	10	Octubre	2023-11-10T00:00:00	2024-11-06T07:00:00	3	Temperatura mínima	12.8
182836	7	Sololá	701	Sololá	2	El tablón	10	Octubre	2023-11-10T00:00:00	2024-11-06T07:00:00	5	Humedad	85
182837	7	Sololá	701	Sololá	2	El tablón	10	Octubre	2023-11-10T00:00:00	2024-11-06T07:00:00	6	Velocidad del viento	0
182838	7	Sololá	701	Sololá	2	El tablón	10	Octubre	2023-11-10T00:00:00	2024-11-06T07:00:00	7	Dirección del viento	0
182839	7	Sololá	701	Sololá	2	El tablón	10	Octubre	2023-11-10T00:00:00	2024-11-06T07:00:00	1	Precipitación	0
182840	7	Sololá	701	Sololá	2	El tablón	10	Octubre	2023-11-10T00:00:00	2024-11-06T07:00:00	8	Radiación solar	58
182841	7	Sololá	701	Sololá	2	El tablón	10	Octubre	2023-11-10T00:00:00	2024-11-06T08:00:00	2	Temperatura media	14.7
182842	7	Sololá	701	Sololá	2	El tablón	10	Octubre	2023-11-10T00:00:00	2024-11-06T08:00:00	4	Temperatura máxima	14.7
182843	7	Sololá	701	Sololá	2	El tablón	10	Octubre	2023-11-10T00:00:00	2024-11-06T08:00:00	3	Temperatura mínima	13.3
182844	7	Sololá	701	Sololá	2	El tablón	10	Octubre	2023-11-10T00:00:00	2024-11-06T08:00:00	5	Humedad	89
182845	7	Sololá	701	Sololá	2	El tablón	10	Octubre	2023-11-10T00:00:00	2024-11-06T08:00:00	6	Velocidad del viento	1.6
182846	7	Sololá	701	Sololá	2	El tablón	10	Octubre	2023-11-10T00:00:00	2024-11-06T08:00:00	7	Dirección del viento	1.61
182847	7	Sololá	701	Sololá	2	El tablón	10	Octubre	2023-11-10T00:00:00	2024-11-06T08:00:00	1	Precipitación	0
182848	7	Sololá	701	Sololá	2	El tablón	10	Octubre	2023-11-10T00:00:00	2024-11-06T08:00:00	8	Radiación solar	233
182849	7	Sololá	701	Sololá	2	El tablón	10	Octubre	2023-11-10T00:00:00	2024-11-06T09:00:00	2	Temperatura media	16.7
182850	7	Sololá	701	Sololá	2	El tablón	10	Octubre	2023-11-10T00:00:00	2024-11-06T09:00:00	4	Temperatura máxima	16.9
182851	7	Sololá	701	Sololá	2	El tablón	10	Octubre	2023-11-10T00:00:00	2024-11-06T09:00:00	3	Temperatura mínima	14.7
182852	7	Sololá	701	Sololá	2	El tablón	10	Octubre	2023-11-10T00:00:00	2024-11-06T09:00:00	5	Humedad	88
182853	7	Sololá	701	Sololá	2	El tablón	10	Octubre	2023-11-10T00:00:00	2024-11-06T09:00:00	6	Velocidad del viento	3.2
182854	7	Sololá	701	Sololá	2	El tablón	10	Octubre	2023-11-10T00:00:00	2024-11-06T09:00:00	7	Dirección del viento	3.22
182855	7	Sololá	701	Sololá	2	El tablón	10	Octubre	2023-11-10T00:00:00	2024-11-06T09:00:00	1	Precipitación	0
182856	7	Sololá	701	Sololá	2	El tablón	10	Octubre	2023-11-10T00:00:00	2024-11-06T09:00:00	8	Radiación solar	403
182857	7	Sololá	701	Sololá	2	El tablón	10	Octubre	2023-11-10T00:00:00	2024-11-06T10:00:00	2	Temperatura media	16.6
182858	7	Sololá	701	Sololá	2	El tablón	10	Octubre	2023-11-10T00:00:00	2024-11-06T10:00:00	4	Temperatura máxima	16.8
182859	7	Sololá	701	Sololá	2	El tablón	10	Octubre	2023-11-10T00:00:00	2024-11-06T10:00:00	3	Temperatura mínima	16.3
182860	7	Sololá	701	Sololá	2	El tablón	10	Octubre	2023-11-10T00:00:00	2024-11-06T10:00:00	5	Humedad	88
182861	7	Sololá	701	Sololá	2	El tablón	10	Octubre	2023-11-10T00:00:00	2024-11-06T10:00:00	6	Velocidad del viento	4.8
182862	7	Sololá	701	Sololá	2	El tablón	10	Octubre	2023-11-10T00:00:00	2024-11-06T10:00:00	7	Dirección del viento	4.83
182863	7	Sololá	701	Sololá	2	El tablón	10	Octubre	2023-11-10T00:00:00	2024-11-06T10:00:00	1	Precipitación	0
182864	7	Sololá	701	Sololá	2	El tablón	10	Octubre	2023-11-10T00:00:00	2024-11-06T10:00:00	8	Radiación solar	376
182865	7	Sololá	701	Sololá	2	El tablón	10	Octubre	2023-11-10T00:00:00	2024-11-06T11:00:00	2	Temperatura media	16.4
182866	7	Sololá	701	Sololá	2	El tablón	10	Octubre	2023-11-10T00:00:00	2024-11-06T11:00:00	4	Temperatura máxima	16.9
182867	7	Sololá	701	Sololá	2	El tablón	10	Octubre	2023-11-10T00:00:00	2024-11-06T11:00:00	3	Temperatura mínima	15.8
182868	7	Sololá	701	Sololá	2	El tablón	10	Octubre	2023-11-10T00:00:00	2024-11-06T11:00:00	5	Humedad	88
182869	7	Sololá	701	Sololá	2	El tablón	10	Octubre	2023-11-10T00:00:00	2024-11-06T11:00:00	6	Velocidad del viento	6.4
182870	7	Sololá	701	Sololá	2	El tablón	10	Octubre	2023-11-10T00:00:00	2024-11-06T11:00:00	7	Dirección del viento	6.44
182871	7	Sololá	701	Sololá	2	El tablón	10	Octubre	2023-11-10T00:00:00	2024-11-06T11:00:00	1	Precipitación	0
182872	7	Sololá	701	Sololá	2	El tablón	10	Octubre	2023-11-10T00:00:00	2024-11-06T11:00:00	8	Radiación solar	401
182873	7	Sololá	701	Sololá	2	El tablón	10	Octubre	2023-11-10T00:00:00	2024-11-06T12:00:00	2	Temperatura media	16.2
182874	7	Sololá	701	Sololá	2	El tablón	10	Octubre	2023-11-10T00:00:00	2024-11-06T12:00:00	4	Temperatura máxima	16.4
182875	7	Sololá	701	Sololá	2	El tablón	10	Octubre	2023-11-10T00:00:00	2024-11-06T12:00:00	3	Temperatura mínima	16.1
182876	7	Sololá	701	Sololá	2	El tablón	10	Octubre	2023-11-10T00:00:00	2024-11-06T12:00:00	5	Humedad	89
182877	7	Sololá	701	Sololá	2	El tablón	10	Octubre	2023-11-10T00:00:00	2024-11-06T12:00:00	6	Velocidad del viento	4.8
182878	7	Sololá	701	Sololá	2	El tablón	10	Octubre	2023-11-10T00:00:00	2024-11-06T12:00:00	7	Dirección del viento	4.83
182879	7	Sololá	701	Sololá	2	El tablón	10	Octubre	2023-11-10T00:00:00	2024-11-06T12:00:00	1	Precipitación	0
182880	7	Sololá	701	Sololá	2	El tablón	10	Octubre	2023-11-10T00:00:00	2024-11-06T12:00:00	8	Radiación solar	241
182881	7	Sololá	701	Sololá	2	El tablón	10	Octubre	2023-11-10T00:00:00	2024-11-06T13:00:00	2	Temperatura media	16.6
182882	7	Sololá	701	Sololá	2	El tablón	10	Octubre	2023-11-10T00:00:00	2024-11-06T13:00:00	4	Temperatura máxima	16.6
182883	7	Sololá	701	Sololá	2	El tablón	10	Octubre	2023-11-10T00:00:00	2024-11-06T13:00:00	3	Temperatura mínima	15.9
182884	7	Sololá	701	Sololá	2	El tablón	10	Octubre	2023-11-10T00:00:00	2024-11-06T13:00:00	5	Humedad	88
182885	7	Sololá	701	Sololá	2	El tablón	10	Octubre	2023-11-10T00:00:00	2024-11-06T13:00:00	6	Velocidad del viento	4.8
182886	7	Sololá	701	Sololá	2	El tablón	10	Octubre	2023-11-10T00:00:00	2024-11-06T13:00:00	7	Dirección del viento	4.83
182887	7	Sololá	701	Sololá	2	El tablón	10	Octubre	2023-11-10T00:00:00	2024-11-06T13:00:00	1	Precipitación	0
182888	7	Sololá	701	Sololá	2	El tablón	10	Octubre	2023-11-10T00:00:00	2024-11-06T13:00:00	8	Radiación solar	314
182889	7	Sololá	701	Sololá	2	El tablón	10	Octubre	2023-11-10T00:00:00	2024-11-06T14:00:00	2	Temperatura media	16.2
182890	7	Sololá	701	Sololá	2	El tablón	10	Octubre	2023-11-10T00:00:00	2024-11-06T14:00:00	4	Temperatura máxima	17
182891	7	Sololá	701	Sololá	2	El tablón	10	Octubre	2023-11-10T00:00:00	2024-11-06T14:00:00	3	Temperatura mínima	16.1
182892	7	Sololá	701	Sololá	2	El tablón	10	Octubre	2023-11-10T00:00:00	2024-11-06T14:00:00	5	Humedad	89
182893	7	Sololá	701	Sololá	2	El tablón	10	Octubre	2023-11-10T00:00:00	2024-11-06T14:00:00	6	Velocidad del viento	6.4
182894	7	Sololá	701	Sololá	2	El tablón	10	Octubre	2023-11-10T00:00:00	2024-11-06T14:00:00	7	Dirección del viento	6.44
182895	7	Sololá	701	Sololá	2	El tablón	10	Octubre	2023-11-10T00:00:00	2024-11-06T14:00:00	1	Precipitación	0
182896	7	Sololá	701	Sololá	2	El tablón	10	Octubre	2023-11-10T00:00:00	2024-11-06T14:00:00	8	Radiación solar	293
182897	7	Sololá	701	Sololá	2	El tablón	10	Octubre	2023-11-10T00:00:00	2024-11-06T15:00:00	2	Temperatura media	15.8
182898	7	Sololá	701	Sololá	2	El tablón	10	Octubre	2023-11-10T00:00:00	2024-11-06T15:00:00	4	Temperatura máxima	16.2
182899	7	Sololá	701	Sololá	2	El tablón	10	Octubre	2023-11-10T00:00:00	2024-11-06T15:00:00	3	Temperatura mínima	15.6
182900	7	Sololá	701	Sololá	2	El tablón	10	Octubre	2023-11-10T00:00:00	2024-11-06T15:00:00	5	Humedad	88
182901	7	Sololá	701	Sololá	2	El tablón	10	Octubre	2023-11-10T00:00:00	2024-11-06T15:00:00	6	Velocidad del viento	4.8
182902	7	Sololá	701	Sololá	2	El tablón	10	Octubre	2023-11-10T00:00:00	2024-11-06T15:00:00	7	Dirección del viento	4.83
182903	7	Sololá	701	Sololá	2	El tablón	10	Octubre	2023-11-10T00:00:00	2024-11-06T15:00:00	1	Precipitación	0
182904	7	Sololá	701	Sololá	2	El tablón	10	Octubre	2023-11-10T00:00:00	2024-11-06T15:00:00	8	Radiación solar	173
182905	7	Sololá	701	Sololá	2	El tablón	10	Octubre	2023-11-10T00:00:00	2024-11-06T16:00:00	2	Temperatura media	15
182906	7	Sololá	701	Sololá	2	El tablón	10	Octubre	2023-11-10T00:00:00	2024-11-06T16:00:00	4	Temperatura máxima	15.8
182907	7	Sololá	701	Sololá	2	El tablón	10	Octubre	2023-11-10T00:00:00	2024-11-06T16:00:00	3	Temperatura mínima	15
182908	7	Sololá	701	Sololá	2	El tablón	10	Octubre	2023-11-10T00:00:00	2024-11-06T16:00:00	5	Humedad	87
182909	7	Sololá	701	Sololá	2	El tablón	10	Octubre	2023-11-10T00:00:00	2024-11-06T16:00:00	6	Velocidad del viento	3.2
182910	7	Sololá	701	Sololá	2	El tablón	10	Octubre	2023-11-10T00:00:00	2024-11-06T16:00:00	7	Dirección del viento	3.22
182911	7	Sololá	701	Sololá	2	El tablón	10	Octubre	2023-11-10T00:00:00	2024-11-06T16:00:00	1	Precipitación	0
182912	7	Sololá	701	Sololá	2	El tablón	10	Octubre	2023-11-10T00:00:00	2024-11-06T16:00:00	8	Radiación solar	53
182913	7	Sololá	701	Sololá	2	El tablón	10	Octubre	2023-11-10T00:00:00	2024-11-06T17:00:00	2	Temperatura media	14.9
182914	7	Sololá	701	Sololá	2	El tablón	10	Octubre	2023-11-10T00:00:00	2024-11-06T17:00:00	4	Temperatura máxima	15
182915	7	Sololá	701	Sololá	2	El tablón	10	Octubre	2023-11-10T00:00:00	2024-11-06T17:00:00	3	Temperatura mínima	14.8
182916	7	Sololá	701	Sololá	2	El tablón	10	Octubre	2023-11-10T00:00:00	2024-11-06T17:00:00	5	Humedad	87
182917	7	Sololá	701	Sololá	2	El tablón	10	Octubre	2023-11-10T00:00:00	2024-11-06T17:00:00	6	Velocidad del viento	3.2
182918	7	Sololá	701	Sololá	2	El tablón	10	Octubre	2023-11-10T00:00:00	2024-11-06T17:00:00	7	Dirección del viento	3.22
182919	7	Sololá	701	Sololá	2	El tablón	10	Octubre	2023-11-10T00:00:00	2024-11-06T17:00:00	1	Precipitación	0
182920	7	Sololá	701	Sololá	2	El tablón	10	Octubre	2023-11-10T00:00:00	2024-11-06T17:00:00	8	Radiación solar	19
182921	7	Sololá	701	Sololá	2	El tablón	10	Octubre	2023-11-10T00:00:00	2024-11-06T18:00:00	2	Temperatura media	14.8
182922	7	Sololá	701	Sololá	2	El tablón	10	Octubre	2023-11-10T00:00:00	2024-11-06T18:00:00	4	Temperatura máxima	14.9
182923	7	Sololá	701	Sololá	2	El tablón	10	Octubre	2023-11-10T00:00:00	2024-11-06T18:00:00	3	Temperatura mínima	14.8
182924	7	Sololá	701	Sololá	2	El tablón	10	Octubre	2023-11-10T00:00:00	2024-11-06T18:00:00	5	Humedad	86
182925	7	Sololá	701	Sololá	2	El tablón	10	Octubre	2023-11-10T00:00:00	2024-11-06T18:00:00	6	Velocidad del viento	3.2
182926	7	Sololá	701	Sololá	2	El tablón	10	Octubre	2023-11-10T00:00:00	2024-11-06T18:00:00	7	Dirección del viento	3.22
182927	7	Sololá	701	Sololá	2	El tablón	10	Octubre	2023-11-10T00:00:00	2024-11-06T18:00:00	1	Precipitación	7.8
182928	7	Sololá	701	Sololá	2	El tablón	10	Octubre	2023-11-10T00:00:00	2024-11-06T18:00:00	8	Radiación solar	1
182929	7	Sololá	701	Sololá	2	El tablón	10	Octubre	2023-11-10T00:00:00	2024-11-06T19:00:00	2	Temperatura media	14.5
182930	7	Sololá	701	Sololá	2	El tablón	10	Octubre	2023-11-10T00:00:00	2024-11-06T19:00:00	4	Temperatura máxima	14.9
182931	7	Sololá	701	Sololá	2	El tablón	10	Octubre	2023-11-10T00:00:00	2024-11-06T19:00:00	3	Temperatura mínima	14.4
182932	7	Sololá	701	Sololá	2	El tablón	10	Octubre	2023-11-10T00:00:00	2024-11-06T19:00:00	5	Humedad	86
182933	7	Sololá	701	Sololá	2	El tablón	10	Octubre	2023-11-10T00:00:00	2024-11-06T19:00:00	6	Velocidad del viento	3.2
182934	7	Sololá	701	Sololá	2	El tablón	10	Octubre	2023-11-10T00:00:00	2024-11-06T19:00:00	7	Dirección del viento	3.22
182935	7	Sololá	701	Sololá	2	El tablón	10	Octubre	2023-11-10T00:00:00	2024-11-06T19:00:00	1	Precipitación	1
182936	7	Sololá	701	Sololá	2	El tablón	10	Octubre	2023-11-10T00:00:00	2024-11-06T19:00:00	8	Radiación solar	0
182937	7	Sololá	701	Sololá	2	El tablón	10	Octubre	2023-11-10T00:00:00	2024-11-06T20:00:00	2	Temperatura media	14.5
182938	7	Sololá	701	Sololá	2	El tablón	10	Octubre	2023-11-10T00:00:00	2024-11-06T20:00:00	4	Temperatura máxima	14.6
182939	7	Sololá	701	Sololá	2	El tablón	10	Octubre	2023-11-10T00:00:00	2024-11-06T20:00:00	3	Temperatura mínima	14.4
182940	7	Sololá	701	Sololá	2	El tablón	10	Octubre	2023-11-10T00:00:00	2024-11-06T20:00:00	5	Humedad	85
182941	7	Sololá	701	Sololá	2	El tablón	10	Octubre	2023-11-10T00:00:00	2024-11-06T20:00:00	6	Velocidad del viento	1.6
182942	7	Sololá	701	Sololá	2	El tablón	10	Octubre	2023-11-10T00:00:00	2024-11-06T20:00:00	7	Dirección del viento	1.61
182943	7	Sololá	701	Sololá	2	El tablón	10	Octubre	2023-11-10T00:00:00	2024-11-06T20:00:00	1	Precipitación	0.2
182944	7	Sololá	701	Sololá	2	El tablón	10	Octubre	2023-11-10T00:00:00	2024-11-06T20:00:00	8	Radiación solar	0
182945	7	Sololá	701	Sololá	2	El tablón	10	Octubre	2023-11-10T00:00:00	2024-11-06T21:00:00	2	Temperatura media	14.3
182946	7	Sololá	701	Sololá	2	El tablón	10	Octubre	2023-11-10T00:00:00	2024-11-06T21:00:00	4	Temperatura máxima	14.5
182947	7	Sololá	701	Sololá	2	El tablón	10	Octubre	2023-11-10T00:00:00	2024-11-06T21:00:00	3	Temperatura mínima	14.2
182948	7	Sololá	701	Sololá	2	El tablón	10	Octubre	2023-11-10T00:00:00	2024-11-06T21:00:00	5	Humedad	85
182949	7	Sololá	701	Sololá	2	El tablón	10	Octubre	2023-11-10T00:00:00	2024-11-06T21:00:00	6	Velocidad del viento	1.6
182950	7	Sololá	701	Sololá	2	El tablón	10	Octubre	2023-11-10T00:00:00	2024-11-06T21:00:00	7	Dirección del viento	1.61
182951	7	Sololá	701	Sololá	2	El tablón	10	Octubre	2023-11-10T00:00:00	2024-11-06T21:00:00	1	Precipitación	0.4
182952	7	Sololá	701	Sololá	2	El tablón	10	Octubre	2023-11-10T00:00:00	2024-11-06T21:00:00	8	Radiación solar	0
182953	7	Sololá	701	Sololá	2	El tablón	10	Octubre	2023-11-10T00:00:00	2024-11-06T22:00:00	2	Temperatura media	14.2
182954	7	Sololá	701	Sololá	2	El tablón	10	Octubre	2023-11-10T00:00:00	2024-11-06T22:00:00	4	Temperatura máxima	14.3
182955	7	Sololá	701	Sololá	2	El tablón	10	Octubre	2023-11-10T00:00:00	2024-11-06T22:00:00	3	Temperatura mínima	14.2
182956	7	Sololá	701	Sololá	2	El tablón	10	Octubre	2023-11-10T00:00:00	2024-11-06T22:00:00	5	Humedad	85
182957	7	Sololá	701	Sololá	2	El tablón	10	Octubre	2023-11-10T00:00:00	2024-11-06T22:00:00	6	Velocidad del viento	0
182958	7	Sololá	701	Sololá	2	El tablón	10	Octubre	2023-11-10T00:00:00	2024-11-06T22:00:00	7	Dirección del viento	0
182959	7	Sololá	701	Sololá	2	El tablón	10	Octubre	2023-11-10T00:00:00	2024-11-06T22:00:00	1	Precipitación	0
182960	7	Sololá	701	Sololá	2	El tablón	10	Octubre	2023-11-10T00:00:00	2024-11-06T22:00:00	8	Radiación solar	0
182961	7	Sololá	701	Sololá	2	El tablón	10	Octubre	2023-11-10T00:00:00	2024-11-06T23:00:00	2	Temperatura media	14.2
182962	7	Sololá	701	Sololá	2	El tablón	10	Octubre	2023-11-10T00:00:00	2024-11-06T23:00:00	4	Temperatura máxima	14.3
182963	7	Sololá	701	Sololá	2	El tablón	10	Octubre	2023-11-10T00:00:00	2024-11-06T23:00:00	3	Temperatura mínima	14.2
182964	7	Sololá	701	Sololá	2	El tablón	10	Octubre	2023-11-10T00:00:00	2024-11-06T23:00:00	5	Humedad	85
182965	7	Sololá	701	Sololá	2	El tablón	10	Octubre	2023-11-10T00:00:00	2024-11-06T23:00:00	6	Velocidad del viento	0
182966	7	Sololá	701	Sololá	2	El tablón	10	Octubre	2023-11-10T00:00:00	2024-11-06T23:00:00	7	Dirección del viento	0
182967	7	Sololá	701	Sololá	2	El tablón	10	Octubre	2023-11-10T00:00:00	2024-11-06T23:00:00	1	Precipitación	0
182968	7	Sololá	701	Sololá	2	El tablón	10	Octubre	2023-11-10T00:00:00	2024-11-06T23:00:00	8	Radiación solar	0
182969	7	Sololá	701	Sololá	2	El tablón	10	Octubre	2023-12-10T00:00:00	2024-11-06T00:00:00	2	Temperatura media	14.2
182970	7	Sololá	701	Sololá	2	El tablón	10	Octubre	2023-12-10T00:00:00	2024-11-06T00:00:00	4	Temperatura máxima	14.3
182971	7	Sololá	701	Sololá	2	El tablón	10	Octubre	2023-12-10T00:00:00	2024-11-06T00:00:00	3	Temperatura mínima	14.2
182972	7	Sololá	701	Sololá	2	El tablón	10	Octubre	2023-12-10T00:00:00	2024-11-06T00:00:00	5	Humedad	85
182973	7	Sololá	701	Sololá	2	El tablón	10	Octubre	2023-12-10T00:00:00	2024-11-06T00:00:00	6	Velocidad del viento	1.6
182974	7	Sololá	701	Sololá	2	El tablón	10	Octubre	2023-12-10T00:00:00	2024-11-06T00:00:00	7	Dirección del viento	1.61
182975	7	Sololá	701	Sololá	2	El tablón	10	Octubre	2023-12-10T00:00:00	2024-11-06T00:00:00	1	Precipitación	0
182976	7	Sololá	701	Sololá	2	El tablón	10	Octubre	2023-12-10T00:00:00	2024-11-06T00:00:00	8	Radiación solar	0
182977	7	Sololá	701	Sololá	2	El tablón	10	Octubre	2023-12-10T00:00:00	2024-11-06T01:00:00	2	Temperatura media	14.2
182978	7	Sololá	701	Sololá	2	El tablón	10	Octubre	2023-12-10T00:00:00	2024-11-06T01:00:00	4	Temperatura máxima	14.3
182979	7	Sololá	701	Sololá	2	El tablón	10	Octubre	2023-12-10T00:00:00	2024-11-06T01:00:00	3	Temperatura mínima	14.2
182980	7	Sololá	701	Sololá	2	El tablón	10	Octubre	2023-12-10T00:00:00	2024-11-06T01:00:00	5	Humedad	84
182981	7	Sololá	701	Sololá	2	El tablón	10	Octubre	2023-12-10T00:00:00	2024-11-06T01:00:00	6	Velocidad del viento	3.2
182982	7	Sololá	701	Sololá	2	El tablón	10	Octubre	2023-12-10T00:00:00	2024-11-06T01:00:00	7	Dirección del viento	3.22
182983	7	Sololá	701	Sololá	2	El tablón	10	Octubre	2023-12-10T00:00:00	2024-11-06T01:00:00	1	Precipitación	0.8
182984	7	Sololá	701	Sololá	2	El tablón	10	Octubre	2023-12-10T00:00:00	2024-11-06T01:00:00	8	Radiación solar	0
182985	7	Sololá	701	Sololá	2	El tablón	10	Octubre	2023-12-10T00:00:00	2024-11-06T02:00:00	2	Temperatura media	13.9
182986	7	Sololá	701	Sololá	2	El tablón	10	Octubre	2023-12-10T00:00:00	2024-11-06T02:00:00	4	Temperatura máxima	14.2
182987	7	Sololá	701	Sololá	2	El tablón	10	Octubre	2023-12-10T00:00:00	2024-11-06T02:00:00	3	Temperatura mínima	13.8
182988	7	Sololá	701	Sololá	2	El tablón	10	Octubre	2023-12-10T00:00:00	2024-11-06T02:00:00	5	Humedad	85
182989	7	Sololá	701	Sololá	2	El tablón	10	Octubre	2023-12-10T00:00:00	2024-11-06T02:00:00	6	Velocidad del viento	1.6
182990	7	Sololá	701	Sololá	2	El tablón	10	Octubre	2023-12-10T00:00:00	2024-11-06T02:00:00	7	Dirección del viento	1.61
182991	7	Sololá	701	Sololá	2	El tablón	10	Octubre	2023-12-10T00:00:00	2024-11-06T02:00:00	1	Precipitación	0
182992	7	Sololá	701	Sololá	2	El tablón	10	Octubre	2023-12-10T00:00:00	2024-11-06T02:00:00	8	Radiación solar	0
182993	7	Sololá	701	Sololá	2	El tablón	10	Octubre	2023-12-10T00:00:00	2024-11-06T03:00:00	2	Temperatura media	13.8
182994	7	Sololá	701	Sololá	2	El tablón	10	Octubre	2023-12-10T00:00:00	2024-11-06T03:00:00	4	Temperatura máxima	13.9
182995	7	Sololá	701	Sololá	2	El tablón	10	Octubre	2023-12-10T00:00:00	2024-11-06T03:00:00	3	Temperatura mínima	13.8
182996	7	Sololá	701	Sololá	2	El tablón	10	Octubre	2023-12-10T00:00:00	2024-11-06T03:00:00	5	Humedad	84
182997	7	Sololá	701	Sololá	2	El tablón	10	Octubre	2023-12-10T00:00:00	2024-11-06T03:00:00	6	Velocidad del viento	0
182998	7	Sololá	701	Sololá	2	El tablón	10	Octubre	2023-12-10T00:00:00	2024-11-06T03:00:00	7	Dirección del viento	0
182999	7	Sololá	701	Sololá	2	El tablón	10	Octubre	2023-12-10T00:00:00	2024-11-06T03:00:00	1	Precipitación	0.2
183000	7	Sololá	701	Sololá	2	El tablón	10	Octubre	2023-12-10T00:00:00	2024-11-06T03:00:00	8	Radiación solar	0
183001	7	Sololá	701	Sololá	2	El tablón	10	Octubre	2023-12-10T00:00:00	2024-11-06T04:00:00	2	Temperatura media	13.8
183002	7	Sololá	701	Sololá	2	El tablón	10	Octubre	2023-12-10T00:00:00	2024-11-06T04:00:00	4	Temperatura máxima	13.9
183003	7	Sololá	701	Sololá	2	El tablón	10	Octubre	2023-12-10T00:00:00	2024-11-06T04:00:00	3	Temperatura mínima	13.8
183004	7	Sololá	701	Sololá	2	El tablón	10	Octubre	2023-12-10T00:00:00	2024-11-06T04:00:00	5	Humedad	84
183005	7	Sololá	701	Sololá	2	El tablón	10	Octubre	2023-12-10T00:00:00	2024-11-06T04:00:00	6	Velocidad del viento	1.6
183006	7	Sololá	701	Sololá	2	El tablón	10	Octubre	2023-12-10T00:00:00	2024-11-06T04:00:00	7	Dirección del viento	1.61
183007	7	Sololá	701	Sololá	2	El tablón	10	Octubre	2023-12-10T00:00:00	2024-11-06T04:00:00	1	Precipitación	0
183008	7	Sololá	701	Sololá	2	El tablón	10	Octubre	2023-12-10T00:00:00	2024-11-06T04:00:00	8	Radiación solar	0
183009	7	Sololá	701	Sololá	2	El tablón	10	Octubre	2023-12-10T00:00:00	2024-11-06T05:00:00	2	Temperatura media	13.5
183010	7	Sololá	701	Sololá	2	El tablón	10	Octubre	2023-12-10T00:00:00	2024-11-06T05:00:00	4	Temperatura máxima	13.8
183011	7	Sololá	701	Sololá	2	El tablón	10	Octubre	2023-12-10T00:00:00	2024-11-06T05:00:00	3	Temperatura mínima	13.5
183012	7	Sololá	701	Sololá	2	El tablón	10	Octubre	2023-12-10T00:00:00	2024-11-06T05:00:00	5	Humedad	84
183013	7	Sololá	701	Sololá	2	El tablón	10	Octubre	2023-12-10T00:00:00	2024-11-06T05:00:00	6	Velocidad del viento	0
183014	7	Sololá	701	Sololá	2	El tablón	10	Octubre	2023-12-10T00:00:00	2024-11-06T05:00:00	7	Dirección del viento	0
183015	7	Sololá	701	Sololá	2	El tablón	10	Octubre	2023-12-10T00:00:00	2024-11-06T05:00:00	1	Precipitación	0
183016	7	Sololá	701	Sololá	2	El tablón	10	Octubre	2023-12-10T00:00:00	2024-11-06T05:00:00	8	Radiación solar	0
183017	7	Sololá	701	Sololá	2	El tablón	10	Octubre	2023-12-10T00:00:00	2024-11-06T06:00:00	2	Temperatura media	12.2
183018	7	Sololá	701	Sololá	2	El tablón	10	Octubre	2023-12-10T00:00:00	2024-11-06T06:00:00	4	Temperatura máxima	13.5
183019	7	Sololá	701	Sololá	2	El tablón	10	Octubre	2023-12-10T00:00:00	2024-11-06T06:00:00	3	Temperatura mínima	12.1
183020	7	Sololá	701	Sololá	2	El tablón	10	Octubre	2023-12-10T00:00:00	2024-11-06T06:00:00	5	Humedad	85
183021	7	Sololá	701	Sololá	2	El tablón	10	Octubre	2023-12-10T00:00:00	2024-11-06T06:00:00	6	Velocidad del viento	3.2
183022	7	Sololá	701	Sololá	2	El tablón	10	Octubre	2023-12-10T00:00:00	2024-11-06T06:00:00	7	Dirección del viento	3.22
183023	7	Sololá	701	Sololá	2	El tablón	10	Octubre	2023-12-10T00:00:00	2024-11-06T06:00:00	1	Precipitación	0
183024	7	Sololá	701	Sololá	2	El tablón	10	Octubre	2023-12-10T00:00:00	2024-11-06T06:00:00	8	Radiación solar	0
183025	7	Sololá	701	Sololá	2	El tablón	10	Octubre	2023-12-10T00:00:00	2024-11-06T07:00:00	2	Temperatura media	12.2
183026	7	Sololá	701	Sololá	2	El tablón	10	Octubre	2023-12-10T00:00:00	2024-11-06T07:00:00	4	Temperatura máxima	12.2
183027	7	Sololá	701	Sololá	2	El tablón	10	Octubre	2023-12-10T00:00:00	2024-11-06T07:00:00	3	Temperatura mínima	11.6
183028	7	Sololá	701	Sololá	2	El tablón	10	Octubre	2023-12-10T00:00:00	2024-11-06T07:00:00	5	Humedad	85
183029	7	Sololá	701	Sololá	2	El tablón	10	Octubre	2023-12-10T00:00:00	2024-11-06T07:00:00	6	Velocidad del viento	3.2
183030	7	Sololá	701	Sololá	2	El tablón	10	Octubre	2023-12-10T00:00:00	2024-11-06T07:00:00	7	Dirección del viento	3.22
183031	7	Sololá	701	Sololá	2	El tablón	10	Octubre	2023-12-10T00:00:00	2024-11-06T07:00:00	1	Precipitación	0
183032	7	Sololá	701	Sololá	2	El tablón	10	Octubre	2023-12-10T00:00:00	2024-11-06T07:00:00	8	Radiación solar	52
183033	7	Sololá	701	Sololá	2	El tablón	10	Octubre	2023-12-10T00:00:00	2024-11-06T08:00:00	2	Temperatura media	15.7
183034	7	Sololá	701	Sololá	2	El tablón	10	Octubre	2023-12-10T00:00:00	2024-11-06T08:00:00	4	Temperatura máxima	15.7
183035	7	Sololá	701	Sololá	2	El tablón	10	Octubre	2023-12-10T00:00:00	2024-11-06T08:00:00	3	Temperatura mínima	12.3
183036	7	Sololá	701	Sololá	2	El tablón	10	Octubre	2023-12-10T00:00:00	2024-11-06T08:00:00	5	Humedad	88
183037	7	Sololá	701	Sololá	2	El tablón	10	Octubre	2023-12-10T00:00:00	2024-11-06T08:00:00	6	Velocidad del viento	1.6
183038	7	Sololá	701	Sololá	2	El tablón	10	Octubre	2023-12-10T00:00:00	2024-11-06T08:00:00	7	Dirección del viento	1.61
183039	7	Sololá	701	Sololá	2	El tablón	10	Octubre	2023-12-10T00:00:00	2024-11-06T08:00:00	1	Precipitación	0
183040	7	Sololá	701	Sololá	2	El tablón	10	Octubre	2023-12-10T00:00:00	2024-11-06T08:00:00	8	Radiación solar	225
183041	7	Sololá	701	Sololá	2	El tablón	10	Octubre	2023-12-10T00:00:00	2024-11-06T09:00:00	2	Temperatura media	17.3
183042	7	Sololá	701	Sololá	2	El tablón	10	Octubre	2023-12-10T00:00:00	2024-11-06T09:00:00	4	Temperatura máxima	18
183043	7	Sololá	701	Sololá	2	El tablón	10	Octubre	2023-12-10T00:00:00	2024-11-06T09:00:00	3	Temperatura mínima	15.7
183044	7	Sololá	701	Sololá	2	El tablón	10	Octubre	2023-12-10T00:00:00	2024-11-06T09:00:00	5	Humedad	87
183045	7	Sololá	701	Sololá	2	El tablón	10	Octubre	2023-12-10T00:00:00	2024-11-06T09:00:00	6	Velocidad del viento	3.2
183046	7	Sololá	701	Sololá	2	El tablón	10	Octubre	2023-12-10T00:00:00	2024-11-06T09:00:00	7	Dirección del viento	3.22
183047	7	Sololá	701	Sololá	2	El tablón	10	Octubre	2023-12-10T00:00:00	2024-11-06T09:00:00	1	Precipitación	0
183048	7	Sololá	701	Sololá	2	El tablón	10	Octubre	2023-12-10T00:00:00	2024-11-06T09:00:00	8	Radiación solar	390
183049	7	Sololá	701	Sololá	2	El tablón	10	Octubre	2023-12-10T00:00:00	2024-11-06T10:00:00	2	Temperatura media	17.1
183050	7	Sololá	701	Sololá	2	El tablón	10	Octubre	2023-12-10T00:00:00	2024-11-06T10:00:00	4	Temperatura máxima	17.3
183051	7	Sololá	701	Sololá	2	El tablón	10	Octubre	2023-12-10T00:00:00	2024-11-06T10:00:00	3	Temperatura mínima	16
183052	7	Sololá	701	Sololá	2	El tablón	10	Octubre	2023-12-10T00:00:00	2024-11-06T10:00:00	5	Humedad	87
183053	7	Sololá	701	Sololá	2	El tablón	10	Octubre	2023-12-10T00:00:00	2024-11-06T10:00:00	6	Velocidad del viento	3.2
183054	7	Sololá	701	Sololá	2	El tablón	10	Octubre	2023-12-10T00:00:00	2024-11-06T10:00:00	7	Dirección del viento	3.22
183055	7	Sololá	701	Sololá	2	El tablón	10	Octubre	2023-12-10T00:00:00	2024-11-06T10:00:00	1	Precipitación	0
183056	7	Sololá	701	Sololá	2	El tablón	10	Octubre	2023-12-10T00:00:00	2024-11-06T10:00:00	8	Radiación solar	392
183057	7	Sololá	701	Sololá	2	El tablón	10	Octubre	2023-12-10T00:00:00	2024-11-06T11:00:00	2	Temperatura media	18.9
183058	7	Sololá	701	Sololá	2	El tablón	10	Octubre	2023-12-10T00:00:00	2024-11-06T11:00:00	4	Temperatura máxima	19.1
183059	7	Sololá	701	Sololá	2	El tablón	10	Octubre	2023-12-10T00:00:00	2024-11-06T11:00:00	3	Temperatura mínima	17.1
183060	7	Sololá	701	Sololá	2	El tablón	10	Octubre	2023-12-10T00:00:00	2024-11-06T11:00:00	5	Humedad	83
183061	7	Sololá	701	Sololá	2	El tablón	10	Octubre	2023-12-10T00:00:00	2024-11-06T11:00:00	6	Velocidad del viento	3.2
183062	7	Sololá	701	Sololá	2	El tablón	10	Octubre	2023-12-10T00:00:00	2024-11-06T11:00:00	7	Dirección del viento	3.22
183063	7	Sololá	701	Sololá	2	El tablón	10	Octubre	2023-12-10T00:00:00	2024-11-06T11:00:00	1	Precipitación	0
183064	7	Sololá	701	Sololá	2	El tablón	10	Octubre	2023-12-10T00:00:00	2024-11-06T11:00:00	8	Radiación solar	667
183065	7	Sololá	701	Sololá	2	El tablón	10	Octubre	2023-12-10T00:00:00	2024-11-06T12:00:00	2	Temperatura media	19.2
183066	7	Sololá	701	Sololá	2	El tablón	10	Octubre	2023-12-10T00:00:00	2024-11-06T12:00:00	4	Temperatura máxima	19.3
183067	7	Sololá	701	Sololá	2	El tablón	10	Octubre	2023-12-10T00:00:00	2024-11-06T12:00:00	3	Temperatura mínima	18.8
183068	7	Sololá	701	Sololá	2	El tablón	10	Octubre	2023-12-10T00:00:00	2024-11-06T12:00:00	5	Humedad	81
183069	7	Sololá	701	Sololá	2	El tablón	10	Octubre	2023-12-10T00:00:00	2024-11-06T12:00:00	6	Velocidad del viento	4.8
183070	7	Sololá	701	Sololá	2	El tablón	10	Octubre	2023-12-10T00:00:00	2024-11-06T12:00:00	7	Dirección del viento	4.83
183071	7	Sololá	701	Sololá	2	El tablón	10	Octubre	2023-12-10T00:00:00	2024-11-06T12:00:00	1	Precipitación	0
183072	7	Sololá	701	Sololá	2	El tablón	10	Octubre	2023-12-10T00:00:00	2024-11-06T12:00:00	8	Radiación solar	633
183073	7	Sololá	701	Sololá	2	El tablón	10	Octubre	2023-12-10T00:00:00	2024-11-06T13:00:00	2	Temperatura media	19.1
183074	7	Sololá	701	Sololá	2	El tablón	10	Octubre	2023-12-10T00:00:00	2024-11-06T13:00:00	4	Temperatura máxima	19.4
183075	7	Sololá	701	Sololá	2	El tablón	10	Octubre	2023-12-10T00:00:00	2024-11-06T13:00:00	3	Temperatura mínima	18.8
183076	7	Sololá	701	Sololá	2	El tablón	10	Octubre	2023-12-10T00:00:00	2024-11-06T13:00:00	5	Humedad	73
183077	7	Sololá	701	Sololá	2	El tablón	10	Octubre	2023-12-10T00:00:00	2024-11-06T13:00:00	6	Velocidad del viento	4.8
183078	7	Sololá	701	Sololá	2	El tablón	10	Octubre	2023-12-10T00:00:00	2024-11-06T13:00:00	7	Dirección del viento	4.83
183079	7	Sololá	701	Sololá	2	El tablón	10	Octubre	2023-12-10T00:00:00	2024-11-06T13:00:00	1	Precipitación	0
183080	7	Sololá	701	Sololá	2	El tablón	10	Octubre	2023-12-10T00:00:00	2024-11-06T13:00:00	8	Radiación solar	571
183081	7	Sololá	701	Sololá	2	El tablón	10	Octubre	2023-12-10T00:00:00	2024-11-06T14:00:00	2	Temperatura media	18.5
183082	7	Sololá	701	Sololá	2	El tablón	10	Octubre	2023-12-10T00:00:00	2024-11-06T14:00:00	4	Temperatura máxima	20.2
183083	7	Sololá	701	Sololá	2	El tablón	10	Octubre	2023-12-10T00:00:00	2024-11-06T14:00:00	3	Temperatura mínima	18.4
183084	7	Sololá	701	Sololá	2	El tablón	10	Octubre	2023-12-10T00:00:00	2024-11-06T14:00:00	5	Humedad	85
183085	7	Sololá	701	Sololá	2	El tablón	10	Octubre	2023-12-10T00:00:00	2024-11-06T14:00:00	6	Velocidad del viento	4.8
183086	7	Sololá	701	Sololá	2	El tablón	10	Octubre	2023-12-10T00:00:00	2024-11-06T14:00:00	7	Dirección del viento	4.83
183087	7	Sololá	701	Sololá	2	El tablón	10	Octubre	2023-12-10T00:00:00	2024-11-06T14:00:00	1	Precipitación	0
183088	7	Sololá	701	Sololá	2	El tablón	10	Octubre	2023-12-10T00:00:00	2024-11-06T14:00:00	8	Radiación solar	478
183089	7	Sololá	701	Sololá	2	El tablón	10	Octubre	2023-12-10T00:00:00	2024-11-06T15:00:00	2	Temperatura media	16.3
183090	7	Sololá	701	Sololá	2	El tablón	10	Octubre	2023-12-10T00:00:00	2024-11-06T15:00:00	4	Temperatura máxima	18.6
183091	7	Sololá	701	Sololá	2	El tablón	10	Octubre	2023-12-10T00:00:00	2024-11-06T15:00:00	3	Temperatura mínima	16.3
183092	7	Sololá	701	Sololá	2	El tablón	10	Octubre	2023-12-10T00:00:00	2024-11-06T15:00:00	5	Humedad	87
183093	7	Sololá	701	Sololá	2	El tablón	10	Octubre	2023-12-10T00:00:00	2024-11-06T15:00:00	6	Velocidad del viento	6.4
183094	7	Sololá	701	Sololá	2	El tablón	10	Octubre	2023-12-10T00:00:00	2024-11-06T15:00:00	7	Dirección del viento	6.44
183095	7	Sololá	701	Sololá	2	El tablón	10	Octubre	2023-12-10T00:00:00	2024-11-06T15:00:00	1	Precipitación	0
183096	7	Sololá	701	Sololá	2	El tablón	10	Octubre	2023-12-10T00:00:00	2024-11-06T15:00:00	8	Radiación solar	226
183097	7	Sololá	701	Sololá	2	El tablón	10	Octubre	2023-12-10T00:00:00	2024-11-06T16:00:00	2	Temperatura media	15.5
183098	7	Sololá	701	Sololá	2	El tablón	10	Octubre	2023-12-10T00:00:00	2024-11-06T16:00:00	4	Temperatura máxima	16.3
183099	7	Sololá	701	Sololá	2	El tablón	10	Octubre	2023-12-10T00:00:00	2024-11-06T16:00:00	3	Temperatura mínima	15.5
183100	7	Sololá	701	Sololá	2	El tablón	10	Octubre	2023-12-10T00:00:00	2024-11-06T16:00:00	5	Humedad	86
183101	7	Sololá	701	Sololá	2	El tablón	10	Octubre	2023-12-10T00:00:00	2024-11-06T16:00:00	6	Velocidad del viento	4.8
183102	7	Sololá	701	Sololá	2	El tablón	10	Octubre	2023-12-10T00:00:00	2024-11-06T16:00:00	7	Dirección del viento	4.83
183103	7	Sololá	701	Sololá	2	El tablón	10	Octubre	2023-12-10T00:00:00	2024-11-06T16:00:00	1	Precipitación	0
183104	7	Sololá	701	Sololá	2	El tablón	10	Octubre	2023-12-10T00:00:00	2024-11-06T16:00:00	8	Radiación solar	45
183105	7	Sololá	701	Sololá	2	El tablón	10	Octubre	2023-12-10T00:00:00	2024-11-06T17:00:00	2	Temperatura media	15.2
183106	7	Sololá	701	Sololá	2	El tablón	10	Octubre	2023-12-10T00:00:00	2024-11-06T17:00:00	4	Temperatura máxima	15.5
183107	7	Sololá	701	Sololá	2	El tablón	10	Octubre	2023-12-10T00:00:00	2024-11-06T17:00:00	3	Temperatura mínima	15.2
183108	7	Sololá	701	Sololá	2	El tablón	10	Octubre	2023-12-10T00:00:00	2024-11-06T17:00:00	5	Humedad	85
183109	7	Sololá	701	Sololá	2	El tablón	10	Octubre	2023-12-10T00:00:00	2024-11-06T17:00:00	6	Velocidad del viento	1.6
183110	7	Sololá	701	Sololá	2	El tablón	10	Octubre	2023-12-10T00:00:00	2024-11-06T17:00:00	7	Dirección del viento	1.61
183111	7	Sololá	701	Sololá	2	El tablón	10	Octubre	2023-12-10T00:00:00	2024-11-06T17:00:00	1	Precipitación	0
183112	7	Sololá	701	Sololá	2	El tablón	10	Octubre	2023-12-10T00:00:00	2024-11-06T17:00:00	8	Radiación solar	25
183113	7	Sololá	701	Sololá	2	El tablón	10	Octubre	2023-12-10T00:00:00	2024-11-06T18:00:00	2	Temperatura media	15.2
183114	7	Sololá	701	Sololá	2	El tablón	10	Octubre	2023-12-10T00:00:00	2024-11-06T18:00:00	4	Temperatura máxima	15.3
183115	7	Sololá	701	Sololá	2	El tablón	10	Octubre	2023-12-10T00:00:00	2024-11-06T18:00:00	3	Temperatura mínima	15.2
183116	7	Sololá	701	Sololá	2	El tablón	10	Octubre	2023-12-10T00:00:00	2024-11-06T18:00:00	5	Humedad	85
183117	7	Sololá	701	Sololá	2	El tablón	10	Octubre	2023-12-10T00:00:00	2024-11-06T18:00:00	6	Velocidad del viento	1.6
183118	7	Sololá	701	Sololá	2	El tablón	10	Octubre	2023-12-10T00:00:00	2024-11-06T18:00:00	7	Dirección del viento	1.61
183119	7	Sololá	701	Sololá	2	El tablón	10	Octubre	2023-12-10T00:00:00	2024-11-06T18:00:00	1	Precipitación	0
183120	7	Sololá	701	Sololá	2	El tablón	10	Octubre	2023-12-10T00:00:00	2024-11-06T18:00:00	8	Radiación solar	4
183121	7	Sololá	701	Sololá	2	El tablón	10	Octubre	2023-12-10T00:00:00	2024-11-06T19:00:00	2	Temperatura media	15.1
183122	7	Sololá	701	Sololá	2	El tablón	10	Octubre	2023-12-10T00:00:00	2024-11-06T19:00:00	4	Temperatura máxima	15.2
183123	7	Sololá	701	Sololá	2	El tablón	10	Octubre	2023-12-10T00:00:00	2024-11-06T19:00:00	3	Temperatura mínima	15.1
183124	7	Sololá	701	Sololá	2	El tablón	10	Octubre	2023-12-10T00:00:00	2024-11-06T19:00:00	5	Humedad	85
183125	7	Sololá	701	Sololá	2	El tablón	10	Octubre	2023-12-10T00:00:00	2024-11-06T19:00:00	6	Velocidad del viento	0
183126	7	Sololá	701	Sololá	2	El tablón	10	Octubre	2023-12-10T00:00:00	2024-11-06T19:00:00	7	Dirección del viento	0
183127	7	Sololá	701	Sololá	2	El tablón	10	Octubre	2023-12-10T00:00:00	2024-11-06T19:00:00	1	Precipitación	0
183128	7	Sololá	701	Sololá	2	El tablón	10	Octubre	2023-12-10T00:00:00	2024-11-06T19:00:00	8	Radiación solar	0
183129	7	Sololá	701	Sololá	2	El tablón	10	Octubre	2023-12-10T00:00:00	2024-11-06T20:00:00	2	Temperatura media	15.2
183130	7	Sololá	701	Sololá	2	El tablón	10	Octubre	2023-12-10T00:00:00	2024-11-06T20:00:00	4	Temperatura máxima	15.3
183131	7	Sololá	701	Sololá	2	El tablón	10	Octubre	2023-12-10T00:00:00	2024-11-06T20:00:00	3	Temperatura mínima	15.1
183132	7	Sololá	701	Sololá	2	El tablón	10	Octubre	2023-12-10T00:00:00	2024-11-06T20:00:00	5	Humedad	85
183133	7	Sololá	701	Sololá	2	El tablón	10	Octubre	2023-12-10T00:00:00	2024-11-06T20:00:00	6	Velocidad del viento	1.6
183134	7	Sololá	701	Sololá	2	El tablón	10	Octubre	2023-12-10T00:00:00	2024-11-06T20:00:00	7	Dirección del viento	1.61
183135	7	Sololá	701	Sololá	2	El tablón	10	Octubre	2023-12-10T00:00:00	2024-11-06T20:00:00	1	Precipitación	0
183136	7	Sololá	701	Sololá	2	El tablón	10	Octubre	2023-12-10T00:00:00	2024-11-06T20:00:00	8	Radiación solar	0
183137	7	Sololá	701	Sololá	2	El tablón	10	Octubre	2023-12-10T00:00:00	2024-11-06T21:00:00	2	Temperatura media	15.5
183138	7	Sololá	701	Sololá	2	El tablón	10	Octubre	2023-12-10T00:00:00	2024-11-06T21:00:00	4	Temperatura máxima	15.5
183139	7	Sololá	701	Sololá	2	El tablón	10	Octubre	2023-12-10T00:00:00	2024-11-06T21:00:00	3	Temperatura mínima	15.1
183140	7	Sololá	701	Sololá	2	El tablón	10	Octubre	2023-12-10T00:00:00	2024-11-06T21:00:00	5	Humedad	88
183141	7	Sololá	701	Sololá	2	El tablón	10	Octubre	2023-12-10T00:00:00	2024-11-06T21:00:00	6	Velocidad del viento	6.4
183142	7	Sololá	701	Sololá	2	El tablón	10	Octubre	2023-12-10T00:00:00	2024-11-06T21:00:00	7	Dirección del viento	6.44
183143	7	Sololá	701	Sololá	2	El tablón	10	Octubre	2023-12-10T00:00:00	2024-11-06T21:00:00	1	Precipitación	0
183144	7	Sololá	701	Sololá	2	El tablón	10	Octubre	2023-12-10T00:00:00	2024-11-06T21:00:00	8	Radiación solar	0
183145	7	Sololá	701	Sololá	2	El tablón	10	Octubre	2023-12-10T00:00:00	2024-11-06T22:00:00	2	Temperatura media	15.1
183146	7	Sololá	701	Sololá	2	El tablón	10	Octubre	2023-12-10T00:00:00	2024-11-06T22:00:00	4	Temperatura máxima	15.8
183147	7	Sololá	701	Sololá	2	El tablón	10	Octubre	2023-12-10T00:00:00	2024-11-06T22:00:00	3	Temperatura mínima	15.1
183148	7	Sololá	701	Sololá	2	El tablón	10	Octubre	2023-12-10T00:00:00	2024-11-06T22:00:00	5	Humedad	89
183149	7	Sololá	701	Sololá	2	El tablón	10	Octubre	2023-12-10T00:00:00	2024-11-06T22:00:00	6	Velocidad del viento	4.8
183150	7	Sololá	701	Sololá	2	El tablón	10	Octubre	2023-12-10T00:00:00	2024-11-06T22:00:00	7	Dirección del viento	4.83
183151	7	Sololá	701	Sololá	2	El tablón	10	Octubre	2023-12-10T00:00:00	2024-11-06T22:00:00	1	Precipitación	0
183152	7	Sololá	701	Sololá	2	El tablón	10	Octubre	2023-12-10T00:00:00	2024-11-06T22:00:00	8	Radiación solar	0
183153	7	Sololá	701	Sololá	2	El tablón	10	Octubre	2023-12-10T00:00:00	2024-11-06T23:00:00	2	Temperatura media	14.3
183154	7	Sololá	701	Sololá	2	El tablón	10	Octubre	2023-12-10T00:00:00	2024-11-06T23:00:00	4	Temperatura máxima	15.1
183155	7	Sololá	701	Sololá	2	El tablón	10	Octubre	2023-12-10T00:00:00	2024-11-06T23:00:00	3	Temperatura mínima	14.3
183156	7	Sololá	701	Sololá	2	El tablón	10	Octubre	2023-12-10T00:00:00	2024-11-06T23:00:00	5	Humedad	89
183157	7	Sololá	701	Sololá	2	El tablón	10	Octubre	2023-12-10T00:00:00	2024-11-06T23:00:00	6	Velocidad del viento	1.6
183158	7	Sololá	701	Sololá	2	El tablón	10	Octubre	2023-12-10T00:00:00	2024-11-06T23:00:00	7	Dirección del viento	1.61
183159	7	Sololá	701	Sololá	2	El tablón	10	Octubre	2023-12-10T00:00:00	2024-11-06T23:00:00	1	Precipitación	0
183160	7	Sololá	701	Sololá	2	El tablón	10	Octubre	2023-12-10T00:00:00	2024-11-06T23:00:00	8	Radiación solar	0
183161	7	Sololá	701	Sololá	2	El tablón	10	Octubre	2023-10-13T00:00:00	2024-11-06T00:00:00	2	Temperatura media	14.3
183162	7	Sololá	701	Sololá	2	El tablón	10	Octubre	2023-10-13T00:00:00	2024-11-06T00:00:00	4	Temperatura máxima	14.4
183163	7	Sololá	701	Sololá	2	El tablón	10	Octubre	2023-10-13T00:00:00	2024-11-06T00:00:00	3	Temperatura mínima	14.1
183164	7	Sololá	701	Sololá	2	El tablón	10	Octubre	2023-10-13T00:00:00	2024-11-06T00:00:00	5	Humedad	89
183165	7	Sololá	701	Sololá	2	El tablón	10	Octubre	2023-10-13T00:00:00	2024-11-06T00:00:00	6	Velocidad del viento	1.6
183166	7	Sololá	701	Sololá	2	El tablón	10	Octubre	2023-10-13T00:00:00	2024-11-06T00:00:00	7	Dirección del viento	1.61
183167	7	Sololá	701	Sololá	2	El tablón	10	Octubre	2023-10-13T00:00:00	2024-11-06T00:00:00	1	Precipitación	0
183168	7	Sololá	701	Sololá	2	El tablón	10	Octubre	2023-10-13T00:00:00	2024-11-06T00:00:00	8	Radiación solar	0
183169	7	Sololá	701	Sololá	2	El tablón	10	Octubre	2023-10-13T00:00:00	2024-11-06T01:00:00	2	Temperatura media	14.1
183170	7	Sololá	701	Sololá	2	El tablón	10	Octubre	2023-10-13T00:00:00	2024-11-06T01:00:00	4	Temperatura máxima	14.3
183171	7	Sololá	701	Sololá	2	El tablón	10	Octubre	2023-10-13T00:00:00	2024-11-06T01:00:00	3	Temperatura mínima	14.1
183172	7	Sololá	701	Sololá	2	El tablón	10	Octubre	2023-10-13T00:00:00	2024-11-06T01:00:00	5	Humedad	87
183173	7	Sololá	701	Sololá	2	El tablón	10	Octubre	2023-10-13T00:00:00	2024-11-06T01:00:00	6	Velocidad del viento	0
183174	7	Sololá	701	Sololá	2	El tablón	10	Octubre	2023-10-13T00:00:00	2024-11-06T01:00:00	7	Dirección del viento	0
183175	7	Sololá	701	Sololá	2	El tablón	10	Octubre	2023-10-13T00:00:00	2024-11-06T01:00:00	1	Precipitación	0
183176	7	Sololá	701	Sololá	2	El tablón	10	Octubre	2023-10-13T00:00:00	2024-11-06T01:00:00	8	Radiación solar	0
183177	7	Sololá	701	Sololá	2	El tablón	10	Octubre	2023-10-13T00:00:00	2024-11-06T02:00:00	2	Temperatura media	13.7
183178	7	Sololá	701	Sololá	2	El tablón	10	Octubre	2023-10-13T00:00:00	2024-11-06T02:00:00	4	Temperatura máxima	14.1
183179	7	Sololá	701	Sololá	2	El tablón	10	Octubre	2023-10-13T00:00:00	2024-11-06T02:00:00	3	Temperatura mínima	13.7
183180	7	Sololá	701	Sololá	2	El tablón	10	Octubre	2023-10-13T00:00:00	2024-11-06T02:00:00	5	Humedad	89
183181	7	Sololá	701	Sololá	2	El tablón	10	Octubre	2023-10-13T00:00:00	2024-11-06T02:00:00	6	Velocidad del viento	3.2
183182	7	Sololá	701	Sololá	2	El tablón	10	Octubre	2023-10-13T00:00:00	2024-11-06T02:00:00	7	Dirección del viento	3.22
183183	7	Sololá	701	Sololá	2	El tablón	10	Octubre	2023-10-13T00:00:00	2024-11-06T02:00:00	1	Precipitación	0
183184	7	Sololá	701	Sololá	2	El tablón	10	Octubre	2023-10-13T00:00:00	2024-11-06T02:00:00	8	Radiación solar	0
183185	7	Sololá	701	Sololá	2	El tablón	10	Octubre	2023-10-13T00:00:00	2024-11-06T03:00:00	2	Temperatura media	12.6
183186	7	Sololá	701	Sololá	2	El tablón	10	Octubre	2023-10-13T00:00:00	2024-11-06T03:00:00	4	Temperatura máxima	13.7
183187	7	Sololá	701	Sololá	2	El tablón	10	Octubre	2023-10-13T00:00:00	2024-11-06T03:00:00	3	Temperatura mínima	12.6
183188	7	Sololá	701	Sololá	2	El tablón	10	Octubre	2023-10-13T00:00:00	2024-11-06T03:00:00	5	Humedad	88
183189	7	Sololá	701	Sololá	2	El tablón	10	Octubre	2023-10-13T00:00:00	2024-11-06T03:00:00	6	Velocidad del viento	1.6
183190	7	Sololá	701	Sololá	2	El tablón	10	Octubre	2023-10-13T00:00:00	2024-11-06T03:00:00	7	Dirección del viento	1.61
183191	7	Sololá	701	Sololá	2	El tablón	10	Octubre	2023-10-13T00:00:00	2024-11-06T03:00:00	1	Precipitación	0
183192	7	Sololá	701	Sololá	2	El tablón	10	Octubre	2023-10-13T00:00:00	2024-11-06T03:00:00	8	Radiación solar	0
183193	7	Sololá	701	Sololá	2	El tablón	10	Octubre	2023-10-13T00:00:00	2024-11-06T04:00:00	2	Temperatura media	13.9
183194	7	Sololá	701	Sololá	2	El tablón	10	Octubre	2023-10-13T00:00:00	2024-11-06T04:00:00	4	Temperatura máxima	13.9
183195	7	Sololá	701	Sololá	2	El tablón	10	Octubre	2023-10-13T00:00:00	2024-11-06T04:00:00	3	Temperatura mínima	12.6
183196	7	Sololá	701	Sololá	2	El tablón	10	Octubre	2023-10-13T00:00:00	2024-11-06T04:00:00	5	Humedad	89
183197	7	Sololá	701	Sololá	2	El tablón	10	Octubre	2023-10-13T00:00:00	2024-11-06T04:00:00	6	Velocidad del viento	3.2
183198	7	Sololá	701	Sololá	2	El tablón	10	Octubre	2023-10-13T00:00:00	2024-11-06T04:00:00	7	Dirección del viento	3.22
183199	7	Sololá	701	Sololá	2	El tablón	10	Octubre	2023-10-13T00:00:00	2024-11-06T04:00:00	1	Precipitación	0
183200	7	Sololá	701	Sololá	2	El tablón	10	Octubre	2023-10-13T00:00:00	2024-11-06T04:00:00	8	Radiación solar	0
183201	7	Sololá	701	Sololá	2	El tablón	10	Octubre	2023-10-13T00:00:00	2024-11-06T05:00:00	2	Temperatura media	14.2
183202	7	Sololá	701	Sololá	2	El tablón	10	Octubre	2023-10-13T00:00:00	2024-11-06T05:00:00	4	Temperatura máxima	14.3
183203	7	Sololá	701	Sololá	2	El tablón	10	Octubre	2023-10-13T00:00:00	2024-11-06T05:00:00	3	Temperatura mínima	13.9
183204	7	Sololá	701	Sololá	2	El tablón	10	Octubre	2023-10-13T00:00:00	2024-11-06T05:00:00	5	Humedad	89
183205	7	Sololá	701	Sololá	2	El tablón	10	Octubre	2023-10-13T00:00:00	2024-11-06T05:00:00	6	Velocidad del viento	6.4
183206	7	Sololá	701	Sololá	2	El tablón	10	Octubre	2023-10-13T00:00:00	2024-11-06T05:00:00	7	Dirección del viento	6.44
183207	7	Sololá	701	Sololá	2	El tablón	10	Octubre	2023-10-13T00:00:00	2024-11-06T05:00:00	1	Precipitación	0
183208	7	Sololá	701	Sololá	2	El tablón	10	Octubre	2023-10-13T00:00:00	2024-11-06T05:00:00	8	Radiación solar	0
183209	7	Sololá	701	Sololá	2	El tablón	10	Octubre	2023-10-13T00:00:00	2024-11-06T06:00:00	2	Temperatura media	14.2
183210	7	Sololá	701	Sololá	2	El tablón	10	Octubre	2023-10-13T00:00:00	2024-11-06T06:00:00	4	Temperatura máxima	14.4
183211	7	Sololá	701	Sololá	2	El tablón	10	Octubre	2023-10-13T00:00:00	2024-11-06T06:00:00	3	Temperatura mínima	14.2
183212	7	Sololá	701	Sololá	2	El tablón	10	Octubre	2023-10-13T00:00:00	2024-11-06T06:00:00	5	Humedad	88
183213	7	Sololá	701	Sololá	2	El tablón	10	Octubre	2023-10-13T00:00:00	2024-11-06T06:00:00	6	Velocidad del viento	6.4
183214	7	Sololá	701	Sololá	2	El tablón	10	Octubre	2023-10-13T00:00:00	2024-11-06T06:00:00	7	Dirección del viento	6.44
183215	7	Sololá	701	Sololá	2	El tablón	10	Octubre	2023-10-13T00:00:00	2024-11-06T06:00:00	1	Precipitación	0
183216	7	Sololá	701	Sololá	2	El tablón	10	Octubre	2023-10-13T00:00:00	2024-11-06T06:00:00	8	Radiación solar	0
183217	7	Sololá	701	Sololá	2	El tablón	10	Octubre	2023-10-13T00:00:00	2024-11-06T07:00:00	2	Temperatura media	14.1
183218	7	Sololá	701	Sololá	2	El tablón	10	Octubre	2023-10-13T00:00:00	2024-11-06T07:00:00	4	Temperatura máxima	14.2
183219	7	Sololá	701	Sololá	2	El tablón	10	Octubre	2023-10-13T00:00:00	2024-11-06T07:00:00	3	Temperatura mínima	13.4
183220	7	Sololá	701	Sololá	2	El tablón	10	Octubre	2023-10-13T00:00:00	2024-11-06T07:00:00	5	Humedad	89
183221	7	Sololá	701	Sololá	2	El tablón	10	Octubre	2023-10-13T00:00:00	2024-11-06T07:00:00	6	Velocidad del viento	1.6
183222	7	Sololá	701	Sololá	2	El tablón	10	Octubre	2023-10-13T00:00:00	2024-11-06T07:00:00	7	Dirección del viento	1.61
183223	7	Sololá	701	Sololá	2	El tablón	10	Octubre	2023-10-13T00:00:00	2024-11-06T07:00:00	1	Precipitación	0
183224	7	Sololá	701	Sololá	2	El tablón	10	Octubre	2023-10-13T00:00:00	2024-11-06T07:00:00	8	Radiación solar	49
183225	7	Sololá	701	Sololá	2	El tablón	10	Octubre	2023-10-13T00:00:00	2024-11-06T08:00:00	2	Temperatura media	17
183226	7	Sololá	701	Sololá	2	El tablón	10	Octubre	2023-10-13T00:00:00	2024-11-06T08:00:00	4	Temperatura máxima	17
183227	7	Sololá	701	Sololá	2	El tablón	10	Octubre	2023-10-13T00:00:00	2024-11-06T08:00:00	3	Temperatura mínima	14.2
183228	7	Sololá	701	Sololá	2	El tablón	10	Octubre	2023-10-13T00:00:00	2024-11-06T08:00:00	5	Humedad	85
183229	7	Sololá	701	Sololá	2	El tablón	10	Octubre	2023-10-13T00:00:00	2024-11-06T08:00:00	6	Velocidad del viento	1.6
183230	7	Sololá	701	Sololá	2	El tablón	10	Octubre	2023-10-13T00:00:00	2024-11-06T08:00:00	7	Dirección del viento	1.61
183231	7	Sololá	701	Sololá	2	El tablón	10	Octubre	2023-10-13T00:00:00	2024-11-06T08:00:00	1	Precipitación	0
183232	7	Sololá	701	Sololá	2	El tablón	10	Octubre	2023-10-13T00:00:00	2024-11-06T08:00:00	8	Radiación solar	224
183233	7	Sololá	701	Sololá	2	El tablón	10	Octubre	2023-10-13T00:00:00	2024-11-06T09:00:00	2	Temperatura media	20.3
183234	7	Sololá	701	Sololá	2	El tablón	10	Octubre	2023-10-13T00:00:00	2024-11-06T09:00:00	4	Temperatura máxima	20.3
183235	7	Sololá	701	Sololá	2	El tablón	10	Octubre	2023-10-13T00:00:00	2024-11-06T09:00:00	3	Temperatura mínima	17
183236	7	Sololá	701	Sololá	2	El tablón	10	Octubre	2023-10-13T00:00:00	2024-11-06T09:00:00	5	Humedad	73
183237	7	Sololá	701	Sololá	2	El tablón	10	Octubre	2023-10-13T00:00:00	2024-11-06T09:00:00	6	Velocidad del viento	4.8
183238	7	Sololá	701	Sololá	2	El tablón	10	Octubre	2023-10-13T00:00:00	2024-11-06T09:00:00	7	Dirección del viento	4.83
183239	7	Sololá	701	Sololá	2	El tablón	10	Octubre	2023-10-13T00:00:00	2024-11-06T09:00:00	1	Precipitación	0
183240	7	Sololá	701	Sololá	2	El tablón	10	Octubre	2023-10-13T00:00:00	2024-11-06T09:00:00	8	Radiación solar	461
183241	7	Sololá	701	Sololá	2	El tablón	10	Octubre	2023-10-13T00:00:00	2024-11-06T10:00:00	2	Temperatura media	18.4
183242	7	Sololá	701	Sololá	2	El tablón	10	Octubre	2023-10-13T00:00:00	2024-11-06T10:00:00	4	Temperatura máxima	20.9
183243	7	Sololá	701	Sololá	2	El tablón	10	Octubre	2023-10-13T00:00:00	2024-11-06T10:00:00	3	Temperatura mínima	18.4
183244	7	Sololá	701	Sololá	2	El tablón	10	Octubre	2023-10-13T00:00:00	2024-11-06T10:00:00	5	Humedad	85
183245	7	Sololá	701	Sololá	2	El tablón	10	Octubre	2023-10-13T00:00:00	2024-11-06T10:00:00	6	Velocidad del viento	6.4
183246	7	Sololá	701	Sololá	2	El tablón	10	Octubre	2023-10-13T00:00:00	2024-11-06T10:00:00	7	Dirección del viento	6.44
183247	7	Sololá	701	Sololá	2	El tablón	10	Octubre	2023-10-13T00:00:00	2024-11-06T10:00:00	1	Precipitación	0
183248	7	Sololá	701	Sololá	2	El tablón	10	Octubre	2023-10-13T00:00:00	2024-11-06T10:00:00	8	Radiación solar	586
183249	7	Sololá	701	Sololá	2	El tablón	10	Octubre	2023-10-13T00:00:00	2024-11-06T11:00:00	2	Temperatura media	19.9
183250	7	Sololá	701	Sololá	2	El tablón	10	Octubre	2023-10-13T00:00:00	2024-11-06T11:00:00	4	Temperatura máxima	19.9
183251	7	Sololá	701	Sololá	2	El tablón	10	Octubre	2023-10-13T00:00:00	2024-11-06T11:00:00	3	Temperatura mínima	18.4
183252	7	Sololá	701	Sololá	2	El tablón	10	Octubre	2023-10-13T00:00:00	2024-11-06T11:00:00	5	Humedad	82
183253	7	Sololá	701	Sololá	2	El tablón	10	Octubre	2023-10-13T00:00:00	2024-11-06T11:00:00	6	Velocidad del viento	6.4
183254	7	Sololá	701	Sololá	2	El tablón	10	Octubre	2023-10-13T00:00:00	2024-11-06T11:00:00	7	Dirección del viento	6.44
183255	7	Sololá	701	Sololá	2	El tablón	10	Octubre	2023-10-13T00:00:00	2024-11-06T11:00:00	1	Precipitación	0
183256	7	Sololá	701	Sololá	2	El tablón	10	Octubre	2023-10-13T00:00:00	2024-11-06T11:00:00	8	Radiación solar	569
183257	7	Sololá	701	Sololá	2	El tablón	10	Octubre	2023-10-13T00:00:00	2024-11-06T12:00:00	2	Temperatura media	17
183258	7	Sololá	701	Sololá	2	El tablón	10	Octubre	2023-10-13T00:00:00	2024-11-06T12:00:00	4	Temperatura máxima	20.3
183259	7	Sololá	701	Sololá	2	El tablón	10	Octubre	2023-10-13T00:00:00	2024-11-06T12:00:00	3	Temperatura mínima	17
183260	7	Sololá	701	Sololá	2	El tablón	10	Octubre	2023-10-13T00:00:00	2024-11-06T12:00:00	5	Humedad	88
183261	7	Sololá	701	Sololá	2	El tablón	10	Octubre	2023-10-13T00:00:00	2024-11-06T12:00:00	6	Velocidad del viento	8
183262	7	Sololá	701	Sololá	2	El tablón	10	Octubre	2023-10-13T00:00:00	2024-11-06T12:00:00	7	Dirección del viento	8.05
183263	7	Sololá	701	Sololá	2	El tablón	10	Octubre	2023-10-13T00:00:00	2024-11-06T12:00:00	1	Precipitación	0
183264	7	Sololá	701	Sololá	2	El tablón	10	Octubre	2023-10-13T00:00:00	2024-11-06T12:00:00	8	Radiación solar	514
183265	7	Sololá	701	Sololá	2	El tablón	10	Octubre	2023-10-13T00:00:00	2024-11-06T13:00:00	2	Temperatura media	16.8
183266	7	Sololá	701	Sololá	2	El tablón	10	Octubre	2023-10-13T00:00:00	2024-11-06T13:00:00	4	Temperatura máxima	17.1
183267	7	Sololá	701	Sololá	2	El tablón	10	Octubre	2023-10-13T00:00:00	2024-11-06T13:00:00	3	Temperatura mínima	16.7
183268	7	Sololá	701	Sololá	2	El tablón	10	Octubre	2023-10-13T00:00:00	2024-11-06T13:00:00	5	Humedad	88
183269	7	Sololá	701	Sololá	2	El tablón	10	Octubre	2023-10-13T00:00:00	2024-11-06T13:00:00	6	Velocidad del viento	4.8
183270	7	Sololá	701	Sololá	2	El tablón	10	Octubre	2023-10-13T00:00:00	2024-11-06T13:00:00	7	Dirección del viento	4.83
183271	7	Sololá	701	Sololá	2	El tablón	10	Octubre	2023-10-13T00:00:00	2024-11-06T13:00:00	1	Precipitación	0
183272	7	Sololá	701	Sololá	2	El tablón	10	Octubre	2023-10-13T00:00:00	2024-11-06T13:00:00	8	Radiación solar	226
183273	7	Sololá	701	Sololá	2	El tablón	10	Octubre	2023-10-13T00:00:00	2024-11-06T14:00:00	2	Temperatura media	16.3
183274	7	Sololá	701	Sololá	2	El tablón	10	Octubre	2023-10-13T00:00:00	2024-11-06T14:00:00	4	Temperatura máxima	16.8
183275	7	Sololá	701	Sololá	2	El tablón	10	Octubre	2023-10-13T00:00:00	2024-11-06T14:00:00	3	Temperatura mínima	16.1
183276	7	Sololá	701	Sololá	2	El tablón	10	Octubre	2023-10-13T00:00:00	2024-11-06T14:00:00	5	Humedad	88
183277	7	Sololá	701	Sololá	2	El tablón	10	Octubre	2023-10-13T00:00:00	2024-11-06T14:00:00	6	Velocidad del viento	3.2
183278	7	Sololá	701	Sololá	2	El tablón	10	Octubre	2023-10-13T00:00:00	2024-11-06T14:00:00	7	Dirección del viento	3.22
183279	7	Sololá	701	Sololá	2	El tablón	10	Octubre	2023-10-13T00:00:00	2024-11-06T14:00:00	1	Precipitación	0
183280	7	Sololá	701	Sololá	2	El tablón	10	Octubre	2023-10-13T00:00:00	2024-11-06T14:00:00	8	Radiación solar	134
183281	7	Sololá	701	Sololá	2	El tablón	10	Octubre	2023-10-13T00:00:00	2024-11-06T15:00:00	2	Temperatura media	15.8
183282	7	Sololá	701	Sololá	2	El tablón	10	Octubre	2023-10-13T00:00:00	2024-11-06T15:00:00	4	Temperatura máxima	16.7
183283	7	Sololá	701	Sololá	2	El tablón	10	Octubre	2023-10-13T00:00:00	2024-11-06T15:00:00	3	Temperatura mínima	15.8
183284	7	Sololá	701	Sololá	2	El tablón	10	Octubre	2023-10-13T00:00:00	2024-11-06T15:00:00	5	Humedad	88
183285	7	Sololá	701	Sololá	2	El tablón	10	Octubre	2023-10-13T00:00:00	2024-11-06T15:00:00	6	Velocidad del viento	3.2
183286	7	Sololá	701	Sololá	2	El tablón	10	Octubre	2023-10-13T00:00:00	2024-11-06T15:00:00	7	Dirección del viento	3.22
183287	7	Sololá	701	Sololá	2	El tablón	10	Octubre	2023-10-13T00:00:00	2024-11-06T15:00:00	1	Precipitación	0.4
183288	7	Sololá	701	Sololá	2	El tablón	10	Octubre	2023-10-13T00:00:00	2024-11-06T15:00:00	8	Radiación solar	108
183289	7	Sololá	701	Sololá	2	El tablón	10	Octubre	2023-10-13T00:00:00	2024-11-06T16:00:00	2	Temperatura media	15.7
183290	7	Sololá	701	Sololá	2	El tablón	10	Octubre	2023-10-13T00:00:00	2024-11-06T16:00:00	4	Temperatura máxima	15.8
183291	7	Sololá	701	Sololá	2	El tablón	10	Octubre	2023-10-13T00:00:00	2024-11-06T16:00:00	3	Temperatura mínima	15.6
183292	7	Sololá	701	Sololá	2	El tablón	10	Octubre	2023-10-13T00:00:00	2024-11-06T16:00:00	5	Humedad	87
183293	7	Sololá	701	Sololá	2	El tablón	10	Octubre	2023-10-13T00:00:00	2024-11-06T16:00:00	6	Velocidad del viento	1.6
183294	7	Sololá	701	Sololá	2	El tablón	10	Octubre	2023-10-13T00:00:00	2024-11-06T16:00:00	7	Dirección del viento	1.61
183295	7	Sololá	701	Sololá	2	El tablón	10	Octubre	2023-10-13T00:00:00	2024-11-06T16:00:00	1	Precipitación	0.2
183296	7	Sololá	701	Sololá	2	El tablón	10	Octubre	2023-10-13T00:00:00	2024-11-06T16:00:00	8	Radiación solar	51
183297	7	Sololá	701	Sololá	2	El tablón	10	Octubre	2023-10-13T00:00:00	2024-11-06T17:00:00	2	Temperatura media	15.9
183298	7	Sololá	701	Sololá	2	El tablón	10	Octubre	2023-10-13T00:00:00	2024-11-06T17:00:00	4	Temperatura máxima	16
183299	7	Sololá	701	Sololá	2	El tablón	10	Octubre	2023-10-13T00:00:00	2024-11-06T17:00:00	3	Temperatura mínima	15.7
183300	7	Sololá	701	Sololá	2	El tablón	10	Octubre	2023-10-13T00:00:00	2024-11-06T17:00:00	5	Humedad	88
183301	7	Sololá	701	Sololá	2	El tablón	10	Octubre	2023-10-13T00:00:00	2024-11-06T17:00:00	6	Velocidad del viento	0
183302	7	Sololá	701	Sololá	2	El tablón	10	Octubre	2023-10-13T00:00:00	2024-11-06T17:00:00	7	Dirección del viento	0
183303	7	Sololá	701	Sololá	2	El tablón	10	Octubre	2023-10-13T00:00:00	2024-11-06T17:00:00	1	Precipitación	0
183304	7	Sololá	701	Sololá	2	El tablón	10	Octubre	2023-10-13T00:00:00	2024-11-06T17:00:00	8	Radiación solar	49
183305	7	Sololá	701	Sololá	2	El tablón	10	Octubre	2023-10-13T00:00:00	2024-11-06T18:00:00	2	Temperatura media	15.3
183306	7	Sololá	701	Sololá	2	El tablón	10	Octubre	2023-10-13T00:00:00	2024-11-06T18:00:00	4	Temperatura máxima	15.9
183307	7	Sololá	701	Sololá	2	El tablón	10	Octubre	2023-10-13T00:00:00	2024-11-06T18:00:00	3	Temperatura mínima	15.3
183308	7	Sololá	701	Sololá	2	El tablón	10	Octubre	2023-10-13T00:00:00	2024-11-06T18:00:00	5	Humedad	87
183309	7	Sololá	701	Sololá	2	El tablón	10	Octubre	2023-10-13T00:00:00	2024-11-06T18:00:00	6	Velocidad del viento	0
183310	7	Sololá	701	Sololá	2	El tablón	10	Octubre	2023-10-13T00:00:00	2024-11-06T18:00:00	7	Dirección del viento	0
183311	7	Sololá	701	Sololá	2	El tablón	10	Octubre	2023-10-13T00:00:00	2024-11-06T18:00:00	1	Precipitación	0
183312	7	Sololá	701	Sololá	2	El tablón	10	Octubre	2023-10-13T00:00:00	2024-11-06T18:00:00	8	Radiación solar	2
183313	7	Sololá	701	Sololá	2	El tablón	10	Octubre	2023-10-13T00:00:00	2024-11-06T19:00:00	2	Temperatura media	15.1
183314	7	Sololá	701	Sololá	2	El tablón	10	Octubre	2023-10-13T00:00:00	2024-11-06T19:00:00	4	Temperatura máxima	15.3
183315	7	Sololá	701	Sololá	2	El tablón	10	Octubre	2023-10-13T00:00:00	2024-11-06T19:00:00	3	Temperatura mínima	15.1
183316	7	Sololá	701	Sololá	2	El tablón	10	Octubre	2023-10-13T00:00:00	2024-11-06T19:00:00	5	Humedad	87
183317	7	Sololá	701	Sololá	2	El tablón	10	Octubre	2023-10-13T00:00:00	2024-11-06T19:00:00	6	Velocidad del viento	0
183318	7	Sololá	701	Sololá	2	El tablón	10	Octubre	2023-10-13T00:00:00	2024-11-06T19:00:00	7	Dirección del viento	0
183319	7	Sololá	701	Sololá	2	El tablón	10	Octubre	2023-10-13T00:00:00	2024-11-06T19:00:00	1	Precipitación	0
183320	7	Sololá	701	Sololá	2	El tablón	10	Octubre	2023-10-13T00:00:00	2024-11-06T19:00:00	8	Radiación solar	0
183321	7	Sololá	701	Sololá	2	El tablón	10	Octubre	2023-10-13T00:00:00	2024-11-06T20:00:00	2	Temperatura media	14.5
183322	7	Sololá	701	Sololá	2	El tablón	10	Octubre	2023-10-13T00:00:00	2024-11-06T20:00:00	4	Temperatura máxima	15.1
183323	7	Sololá	701	Sololá	2	El tablón	10	Octubre	2023-10-13T00:00:00	2024-11-06T20:00:00	3	Temperatura mínima	14.5
183324	7	Sololá	701	Sololá	2	El tablón	10	Octubre	2023-10-13T00:00:00	2024-11-06T20:00:00	5	Humedad	87
183325	7	Sololá	701	Sololá	2	El tablón	10	Octubre	2023-10-13T00:00:00	2024-11-06T20:00:00	6	Velocidad del viento	0
183326	7	Sololá	701	Sololá	2	El tablón	10	Octubre	2023-10-13T00:00:00	2024-11-06T20:00:00	7	Dirección del viento	0
183327	7	Sololá	701	Sololá	2	El tablón	10	Octubre	2023-10-13T00:00:00	2024-11-06T20:00:00	1	Precipitación	0
183328	7	Sololá	701	Sololá	2	El tablón	10	Octubre	2023-10-13T00:00:00	2024-11-06T20:00:00	8	Radiación solar	0
183329	7	Sololá	701	Sololá	2	El tablón	10	Octubre	2023-10-13T00:00:00	2024-11-06T21:00:00	2	Temperatura media	14.9
183330	7	Sololá	701	Sololá	2	El tablón	10	Octubre	2023-10-13T00:00:00	2024-11-06T21:00:00	4	Temperatura máxima	14.9
183331	7	Sololá	701	Sololá	2	El tablón	10	Octubre	2023-10-13T00:00:00	2024-11-06T21:00:00	3	Temperatura mínima	14.5
183332	7	Sololá	701	Sololá	2	El tablón	10	Octubre	2023-10-13T00:00:00	2024-11-06T21:00:00	5	Humedad	86
183333	7	Sololá	701	Sololá	2	El tablón	10	Octubre	2023-10-13T00:00:00	2024-11-06T21:00:00	6	Velocidad del viento	0
183334	7	Sololá	701	Sololá	2	El tablón	10	Octubre	2023-10-13T00:00:00	2024-11-06T21:00:00	7	Dirección del viento	0
183335	7	Sololá	701	Sololá	2	El tablón	10	Octubre	2023-10-13T00:00:00	2024-11-06T21:00:00	1	Precipitación	0
183336	7	Sololá	701	Sololá	2	El tablón	10	Octubre	2023-10-13T00:00:00	2024-11-06T21:00:00	8	Radiación solar	0
183337	7	Sololá	701	Sololá	2	El tablón	10	Octubre	2023-10-13T00:00:00	2024-11-06T22:00:00	2	Temperatura media	14.5
183338	7	Sololá	701	Sololá	2	El tablón	10	Octubre	2023-10-13T00:00:00	2024-11-06T22:00:00	4	Temperatura máxima	14.9
183339	7	Sololá	701	Sololá	2	El tablón	10	Octubre	2023-10-13T00:00:00	2024-11-06T22:00:00	3	Temperatura mínima	14.5
183340	7	Sololá	701	Sololá	2	El tablón	10	Octubre	2023-10-13T00:00:00	2024-11-06T22:00:00	5	Humedad	86
183341	7	Sololá	701	Sololá	2	El tablón	10	Octubre	2023-10-13T00:00:00	2024-11-06T22:00:00	6	Velocidad del viento	0
183342	7	Sololá	701	Sololá	2	El tablón	10	Octubre	2023-10-13T00:00:00	2024-11-06T22:00:00	7	Dirección del viento	0
183343	7	Sololá	701	Sololá	2	El tablón	10	Octubre	2023-10-13T00:00:00	2024-11-06T22:00:00	1	Precipitación	0
183344	7	Sololá	701	Sololá	2	El tablón	10	Octubre	2023-10-13T00:00:00	2024-11-06T22:00:00	8	Radiación solar	0
183345	7	Sololá	701	Sololá	2	El tablón	10	Octubre	2023-10-13T00:00:00	2024-11-06T23:00:00	2	Temperatura media	13.1
183346	7	Sololá	701	Sololá	2	El tablón	10	Octubre	2023-10-13T00:00:00	2024-11-06T23:00:00	4	Temperatura máxima	14.5
183347	7	Sololá	701	Sololá	2	El tablón	10	Octubre	2023-10-13T00:00:00	2024-11-06T23:00:00	3	Temperatura mínima	13.1
183348	7	Sololá	701	Sololá	2	El tablón	10	Octubre	2023-10-13T00:00:00	2024-11-06T23:00:00	5	Humedad	87
183349	7	Sololá	701	Sololá	2	El tablón	10	Octubre	2023-10-13T00:00:00	2024-11-06T23:00:00	6	Velocidad del viento	1.6
183350	7	Sololá	701	Sololá	2	El tablón	10	Octubre	2023-10-13T00:00:00	2024-11-06T23:00:00	7	Dirección del viento	1.61
183351	7	Sololá	701	Sololá	2	El tablón	10	Octubre	2023-10-13T00:00:00	2024-11-06T23:00:00	1	Precipitación	0
183352	7	Sololá	701	Sololá	2	El tablón	10	Octubre	2023-10-13T00:00:00	2024-11-06T23:00:00	8	Radiación solar	0
183353	7	Sololá	701	Sololá	2	El tablón	10	Octubre	2023-10-14T00:00:00	2024-11-06T00:00:00	2	Temperatura media	13.2
183354	7	Sololá	701	Sololá	2	El tablón	10	Octubre	2023-10-14T00:00:00	2024-11-06T00:00:00	4	Temperatura máxima	13.3
183355	7	Sololá	701	Sololá	2	El tablón	10	Octubre	2023-10-14T00:00:00	2024-11-06T00:00:00	3	Temperatura mínima	12.9
183356	7	Sololá	701	Sololá	2	El tablón	10	Octubre	2023-10-14T00:00:00	2024-11-06T00:00:00	5	Humedad	88
183357	7	Sololá	701	Sololá	2	El tablón	10	Octubre	2023-10-14T00:00:00	2024-11-06T00:00:00	6	Velocidad del viento	3.2
183358	7	Sololá	701	Sololá	2	El tablón	10	Octubre	2023-10-14T00:00:00	2024-11-06T00:00:00	7	Dirección del viento	3.22
183359	7	Sololá	701	Sololá	2	El tablón	10	Octubre	2023-10-14T00:00:00	2024-11-06T00:00:00	1	Precipitación	0
183360	7	Sololá	701	Sololá	2	El tablón	10	Octubre	2023-10-14T00:00:00	2024-11-06T00:00:00	8	Radiación solar	0
183361	7	Sololá	701	Sololá	2	El tablón	10	Octubre	2023-10-14T00:00:00	2024-11-06T01:00:00	2	Temperatura media	13.4
183362	7	Sololá	701	Sololá	2	El tablón	10	Octubre	2023-10-14T00:00:00	2024-11-06T01:00:00	4	Temperatura máxima	13.4
183363	7	Sololá	701	Sololá	2	El tablón	10	Octubre	2023-10-14T00:00:00	2024-11-06T01:00:00	3	Temperatura mínima	13.1
183364	7	Sololá	701	Sololá	2	El tablón	10	Octubre	2023-10-14T00:00:00	2024-11-06T01:00:00	5	Humedad	89
183365	7	Sololá	701	Sololá	2	El tablón	10	Octubre	2023-10-14T00:00:00	2024-11-06T01:00:00	6	Velocidad del viento	4.8
183366	7	Sololá	701	Sololá	2	El tablón	10	Octubre	2023-10-14T00:00:00	2024-11-06T01:00:00	7	Dirección del viento	4.83
183367	7	Sololá	701	Sololá	2	El tablón	10	Octubre	2023-10-14T00:00:00	2024-11-06T01:00:00	1	Precipitación	0
183368	7	Sololá	701	Sololá	2	El tablón	10	Octubre	2023-10-14T00:00:00	2024-11-06T01:00:00	8	Radiación solar	0
183369	7	Sololá	701	Sololá	2	El tablón	10	Octubre	2023-10-14T00:00:00	2024-11-06T02:00:00	2	Temperatura media	13.7
183370	7	Sololá	701	Sololá	2	El tablón	10	Octubre	2023-10-14T00:00:00	2024-11-06T02:00:00	4	Temperatura máxima	13.7
183371	7	Sololá	701	Sololá	2	El tablón	10	Octubre	2023-10-14T00:00:00	2024-11-06T02:00:00	3	Temperatura mínima	13.4
183372	7	Sololá	701	Sololá	2	El tablón	10	Octubre	2023-10-14T00:00:00	2024-11-06T02:00:00	5	Humedad	89
183373	7	Sololá	701	Sololá	2	El tablón	10	Octubre	2023-10-14T00:00:00	2024-11-06T02:00:00	6	Velocidad del viento	4.8
183374	7	Sololá	701	Sololá	2	El tablón	10	Octubre	2023-10-14T00:00:00	2024-11-06T02:00:00	7	Dirección del viento	4.83
183375	7	Sololá	701	Sololá	2	El tablón	10	Octubre	2023-10-14T00:00:00	2024-11-06T02:00:00	1	Precipitación	0
183376	7	Sololá	701	Sololá	2	El tablón	10	Octubre	2023-10-14T00:00:00	2024-11-06T02:00:00	8	Radiación solar	0
183377	7	Sololá	701	Sololá	2	El tablón	10	Octubre	2023-10-14T00:00:00	2024-11-06T03:00:00	2	Temperatura media	13.8
183378	7	Sololá	701	Sololá	2	El tablón	10	Octubre	2023-10-14T00:00:00	2024-11-06T03:00:00	4	Temperatura máxima	13.9
183379	7	Sololá	701	Sololá	2	El tablón	10	Octubre	2023-10-14T00:00:00	2024-11-06T03:00:00	3	Temperatura mínima	13.7
183380	7	Sololá	701	Sololá	2	El tablón	10	Octubre	2023-10-14T00:00:00	2024-11-06T03:00:00	5	Humedad	89
183381	7	Sololá	701	Sololá	2	El tablón	10	Octubre	2023-10-14T00:00:00	2024-11-06T03:00:00	6	Velocidad del viento	4.8
183382	7	Sololá	701	Sololá	2	El tablón	10	Octubre	2023-10-14T00:00:00	2024-11-06T03:00:00	7	Dirección del viento	4.83
183383	7	Sololá	701	Sololá	2	El tablón	10	Octubre	2023-10-14T00:00:00	2024-11-06T03:00:00	1	Precipitación	0
183384	7	Sololá	701	Sololá	2	El tablón	10	Octubre	2023-10-14T00:00:00	2024-11-06T03:00:00	8	Radiación solar	0
183385	7	Sololá	701	Sololá	2	El tablón	10	Octubre	2023-10-14T00:00:00	2024-11-06T04:00:00	2	Temperatura media	13.4
183386	7	Sololá	701	Sololá	2	El tablón	10	Octubre	2023-10-14T00:00:00	2024-11-06T04:00:00	4	Temperatura máxima	13.8
183387	7	Sololá	701	Sololá	2	El tablón	10	Octubre	2023-10-14T00:00:00	2024-11-06T04:00:00	3	Temperatura mínima	13.3
183388	7	Sololá	701	Sololá	2	El tablón	10	Octubre	2023-10-14T00:00:00	2024-11-06T04:00:00	5	Humedad	89
183389	7	Sololá	701	Sololá	2	El tablón	10	Octubre	2023-10-14T00:00:00	2024-11-06T04:00:00	6	Velocidad del viento	4.8
183390	7	Sololá	701	Sololá	2	El tablón	10	Octubre	2023-10-14T00:00:00	2024-11-06T04:00:00	7	Dirección del viento	4.83
183391	7	Sololá	701	Sololá	2	El tablón	10	Octubre	2023-10-14T00:00:00	2024-11-06T04:00:00	1	Precipitación	0
183392	7	Sololá	701	Sololá	2	El tablón	10	Octubre	2023-10-14T00:00:00	2024-11-06T04:00:00	8	Radiación solar	0
183393	7	Sololá	701	Sololá	2	El tablón	10	Octubre	2023-10-14T00:00:00	2024-11-06T05:00:00	2	Temperatura media	13.6
183394	7	Sololá	701	Sololá	2	El tablón	10	Octubre	2023-10-14T00:00:00	2024-11-06T05:00:00	4	Temperatura máxima	13.6
183395	7	Sololá	701	Sololá	2	El tablón	10	Octubre	2023-10-14T00:00:00	2024-11-06T05:00:00	3	Temperatura mínima	13.2
183396	7	Sololá	701	Sololá	2	El tablón	10	Octubre	2023-10-14T00:00:00	2024-11-06T05:00:00	5	Humedad	88
183397	7	Sololá	701	Sololá	2	El tablón	10	Octubre	2023-10-14T00:00:00	2024-11-06T05:00:00	6	Velocidad del viento	4.8
183398	7	Sololá	701	Sololá	2	El tablón	10	Octubre	2023-10-14T00:00:00	2024-11-06T05:00:00	7	Dirección del viento	4.83
183399	7	Sololá	701	Sololá	2	El tablón	10	Octubre	2023-10-14T00:00:00	2024-11-06T05:00:00	1	Precipitación	0
183400	7	Sololá	701	Sololá	2	El tablón	10	Octubre	2023-10-14T00:00:00	2024-11-06T05:00:00	8	Radiación solar	0
183401	7	Sololá	701	Sololá	2	El tablón	10	Octubre	2023-10-14T00:00:00	2024-11-06T06:00:00	2	Temperatura media	12.5
183402	7	Sololá	701	Sololá	2	El tablón	10	Octubre	2023-10-14T00:00:00	2024-11-06T06:00:00	4	Temperatura máxima	13.6
183403	7	Sololá	701	Sololá	2	El tablón	10	Octubre	2023-10-14T00:00:00	2024-11-06T06:00:00	3	Temperatura mínima	12.3
183404	7	Sololá	701	Sololá	2	El tablón	10	Octubre	2023-10-14T00:00:00	2024-11-06T06:00:00	5	Humedad	89
183405	7	Sololá	701	Sololá	2	El tablón	10	Octubre	2023-10-14T00:00:00	2024-11-06T06:00:00	6	Velocidad del viento	3.2
183406	7	Sololá	701	Sololá	2	El tablón	10	Octubre	2023-10-14T00:00:00	2024-11-06T06:00:00	7	Dirección del viento	3.22
183407	7	Sololá	701	Sololá	2	El tablón	10	Octubre	2023-10-14T00:00:00	2024-11-06T06:00:00	1	Precipitación	0
183408	7	Sololá	701	Sololá	2	El tablón	10	Octubre	2023-10-14T00:00:00	2024-11-06T06:00:00	8	Radiación solar	0
183409	7	Sololá	701	Sololá	2	El tablón	10	Octubre	2023-10-14T00:00:00	2024-11-06T07:00:00	2	Temperatura media	15.9
183410	7	Sololá	701	Sololá	2	El tablón	10	Octubre	2023-10-14T00:00:00	2024-11-06T07:00:00	4	Temperatura máxima	15.9
183411	7	Sololá	701	Sololá	2	El tablón	10	Octubre	2023-10-14T00:00:00	2024-11-06T07:00:00	3	Temperatura mínima	12.5
183412	7	Sololá	701	Sololá	2	El tablón	10	Octubre	2023-10-14T00:00:00	2024-11-06T07:00:00	5	Humedad	81
183413	7	Sololá	701	Sololá	2	El tablón	10	Octubre	2023-10-14T00:00:00	2024-11-06T07:00:00	6	Velocidad del viento	4.8
183414	7	Sololá	701	Sololá	2	El tablón	10	Octubre	2023-10-14T00:00:00	2024-11-06T07:00:00	7	Dirección del viento	4.83
183415	7	Sololá	701	Sololá	2	El tablón	10	Octubre	2023-10-14T00:00:00	2024-11-06T07:00:00	1	Precipitación	0
183416	7	Sololá	701	Sololá	2	El tablón	10	Octubre	2023-10-14T00:00:00	2024-11-06T07:00:00	8	Radiación solar	56
183417	7	Sololá	701	Sololá	2	El tablón	10	Octubre	2023-10-14T00:00:00	2024-11-06T08:00:00	2	Temperatura media	18.1
183418	7	Sololá	701	Sololá	2	El tablón	10	Octubre	2023-10-14T00:00:00	2024-11-06T08:00:00	4	Temperatura máxima	18.1
183419	7	Sololá	701	Sololá	2	El tablón	10	Octubre	2023-10-14T00:00:00	2024-11-06T08:00:00	3	Temperatura mínima	15.9
183420	7	Sololá	701	Sololá	2	El tablón	10	Octubre	2023-10-14T00:00:00	2024-11-06T08:00:00	5	Humedad	74
183421	7	Sololá	701	Sololá	2	El tablón	10	Octubre	2023-10-14T00:00:00	2024-11-06T08:00:00	6	Velocidad del viento	4.8
183422	7	Sololá	701	Sololá	2	El tablón	10	Octubre	2023-10-14T00:00:00	2024-11-06T08:00:00	7	Dirección del viento	4.83
183423	7	Sololá	701	Sololá	2	El tablón	10	Octubre	2023-10-14T00:00:00	2024-11-06T08:00:00	1	Precipitación	0
183424	7	Sololá	701	Sololá	2	El tablón	10	Octubre	2023-10-14T00:00:00	2024-11-06T08:00:00	8	Radiación solar	227
183425	7	Sololá	701	Sololá	2	El tablón	10	Octubre	2023-10-14T00:00:00	2024-11-06T09:00:00	2	Temperatura media	19.6
183426	7	Sololá	701	Sololá	2	El tablón	10	Octubre	2023-10-14T00:00:00	2024-11-06T09:00:00	4	Temperatura máxima	19.6
183427	7	Sololá	701	Sololá	2	El tablón	10	Octubre	2023-10-14T00:00:00	2024-11-06T09:00:00	3	Temperatura mínima	18.1
183428	7	Sololá	701	Sololá	2	El tablón	10	Octubre	2023-10-14T00:00:00	2024-11-06T09:00:00	5	Humedad	72
183429	7	Sololá	701	Sololá	2	El tablón	10	Octubre	2023-10-14T00:00:00	2024-11-06T09:00:00	6	Velocidad del viento	6.4
183430	7	Sololá	701	Sololá	2	El tablón	10	Octubre	2023-10-14T00:00:00	2024-11-06T09:00:00	7	Dirección del viento	6.44
183431	7	Sololá	701	Sololá	2	El tablón	10	Octubre	2023-10-14T00:00:00	2024-11-06T09:00:00	1	Precipitación	0
183432	7	Sololá	701	Sololá	2	El tablón	10	Octubre	2023-10-14T00:00:00	2024-11-06T09:00:00	8	Radiación solar	464
183433	7	Sololá	701	Sololá	2	El tablón	10	Octubre	2023-10-14T00:00:00	2024-11-06T10:00:00	2	Temperatura media	19.6
183434	7	Sololá	701	Sololá	2	El tablón	10	Octubre	2023-10-14T00:00:00	2024-11-06T10:00:00	4	Temperatura máxima	19.7
183435	7	Sololá	701	Sololá	2	El tablón	10	Octubre	2023-10-14T00:00:00	2024-11-06T10:00:00	3	Temperatura mínima	18.8
183436	7	Sololá	701	Sololá	2	El tablón	10	Octubre	2023-10-14T00:00:00	2024-11-06T10:00:00	5	Humedad	72
183437	7	Sololá	701	Sololá	2	El tablón	10	Octubre	2023-10-14T00:00:00	2024-11-06T10:00:00	6	Velocidad del viento	9.7
183438	7	Sololá	701	Sololá	2	El tablón	10	Octubre	2023-10-14T00:00:00	2024-11-06T10:00:00	7	Dirección del viento	9.66
183439	7	Sololá	701	Sololá	2	El tablón	10	Octubre	2023-10-14T00:00:00	2024-11-06T10:00:00	1	Precipitación	0
183440	7	Sololá	701	Sololá	2	El tablón	10	Octubre	2023-10-14T00:00:00	2024-11-06T10:00:00	8	Radiación solar	722
183441	7	Sololá	701	Sololá	2	El tablón	10	Octubre	2023-10-14T00:00:00	2024-11-06T11:00:00	2	Temperatura media	19.3
183442	7	Sololá	701	Sololá	2	El tablón	10	Octubre	2023-10-14T00:00:00	2024-11-06T11:00:00	4	Temperatura máxima	20.2
183443	7	Sololá	701	Sololá	2	El tablón	10	Octubre	2023-10-14T00:00:00	2024-11-06T11:00:00	3	Temperatura mínima	18.9
183444	7	Sololá	701	Sololá	2	El tablón	10	Octubre	2023-10-14T00:00:00	2024-11-06T11:00:00	5	Humedad	74
183445	7	Sololá	701	Sololá	2	El tablón	10	Octubre	2023-10-14T00:00:00	2024-11-06T11:00:00	6	Velocidad del viento	9.7
183446	7	Sololá	701	Sololá	2	El tablón	10	Octubre	2023-10-14T00:00:00	2024-11-06T11:00:00	7	Dirección del viento	9.66
183447	7	Sololá	701	Sololá	2	El tablón	10	Octubre	2023-10-14T00:00:00	2024-11-06T11:00:00	1	Precipitación	0
183448	7	Sololá	701	Sololá	2	El tablón	10	Octubre	2023-10-14T00:00:00	2024-11-06T11:00:00	8	Radiación solar	470
183449	7	Sololá	701	Sololá	2	El tablón	10	Octubre	2023-10-14T00:00:00	2024-11-06T12:00:00	2	Temperatura media	17.8
183450	7	Sololá	701	Sololá	2	El tablón	10	Octubre	2023-10-14T00:00:00	2024-11-06T12:00:00	4	Temperatura máxima	19.3
183451	7	Sololá	701	Sololá	2	El tablón	10	Octubre	2023-10-14T00:00:00	2024-11-06T12:00:00	3	Temperatura mínima	17.8
183452	7	Sololá	701	Sololá	2	El tablón	10	Octubre	2023-10-14T00:00:00	2024-11-06T12:00:00	5	Humedad	80
183453	7	Sololá	701	Sololá	2	El tablón	10	Octubre	2023-10-14T00:00:00	2024-11-06T12:00:00	6	Velocidad del viento	6.4
183454	7	Sololá	701	Sololá	2	El tablón	10	Octubre	2023-10-14T00:00:00	2024-11-06T12:00:00	7	Dirección del viento	6.44
183455	7	Sololá	701	Sololá	2	El tablón	10	Octubre	2023-10-14T00:00:00	2024-11-06T12:00:00	1	Precipitación	0
183456	7	Sololá	701	Sololá	2	El tablón	10	Octubre	2023-10-14T00:00:00	2024-11-06T12:00:00	8	Radiación solar	203
183457	7	Sololá	701	Sololá	2	El tablón	10	Octubre	2023-10-14T00:00:00	2024-11-06T13:00:00	2	Temperatura media	19.3
183458	7	Sololá	701	Sololá	2	El tablón	10	Octubre	2023-10-14T00:00:00	2024-11-06T13:00:00	4	Temperatura máxima	19.3
183459	7	Sololá	701	Sololá	2	El tablón	10	Octubre	2023-10-14T00:00:00	2024-11-06T13:00:00	3	Temperatura mínima	17.8
183460	7	Sololá	701	Sololá	2	El tablón	10	Octubre	2023-10-14T00:00:00	2024-11-06T13:00:00	5	Humedad	76
183461	7	Sololá	701	Sololá	2	El tablón	10	Octubre	2023-10-14T00:00:00	2024-11-06T13:00:00	6	Velocidad del viento	4.8
183462	7	Sololá	701	Sololá	2	El tablón	10	Octubre	2023-10-14T00:00:00	2024-11-06T13:00:00	7	Dirección del viento	4.83
183463	7	Sololá	701	Sololá	2	El tablón	10	Octubre	2023-10-14T00:00:00	2024-11-06T13:00:00	1	Precipitación	0
183464	7	Sololá	701	Sololá	2	El tablón	10	Octubre	2023-10-14T00:00:00	2024-11-06T13:00:00	8	Radiación solar	572
183465	7	Sololá	701	Sololá	2	El tablón	10	Octubre	2023-10-14T00:00:00	2024-11-06T14:00:00	2	Temperatura media	20
183466	7	Sololá	701	Sololá	2	El tablón	10	Octubre	2023-10-14T00:00:00	2024-11-06T14:00:00	4	Temperatura máxima	20.3
183467	7	Sololá	701	Sololá	2	El tablón	10	Octubre	2023-10-14T00:00:00	2024-11-06T14:00:00	3	Temperatura mínima	19.3
183468	7	Sololá	701	Sololá	2	El tablón	10	Octubre	2023-10-14T00:00:00	2024-11-06T14:00:00	5	Humedad	68
183469	7	Sololá	701	Sololá	2	El tablón	10	Octubre	2023-10-14T00:00:00	2024-11-06T14:00:00	6	Velocidad del viento	8
183470	7	Sololá	701	Sololá	2	El tablón	10	Octubre	2023-10-14T00:00:00	2024-11-06T14:00:00	7	Dirección del viento	8.05
183471	7	Sololá	701	Sololá	2	El tablón	10	Octubre	2023-10-14T00:00:00	2024-11-06T14:00:00	1	Precipitación	0
183472	7	Sololá	701	Sololá	2	El tablón	10	Octubre	2023-10-14T00:00:00	2024-11-06T14:00:00	8	Radiación solar	430
183473	7	Sololá	701	Sololá	2	El tablón	10	Octubre	2023-10-14T00:00:00	2024-11-06T15:00:00	2	Temperatura media	19.6
183474	7	Sololá	701	Sololá	2	El tablón	10	Octubre	2023-10-14T00:00:00	2024-11-06T15:00:00	4	Temperatura máxima	20.8
183475	7	Sololá	701	Sololá	2	El tablón	10	Octubre	2023-10-14T00:00:00	2024-11-06T15:00:00	3	Temperatura mínima	19.5
183476	7	Sololá	701	Sololá	2	El tablón	10	Octubre	2023-10-14T00:00:00	2024-11-06T15:00:00	5	Humedad	81
183477	7	Sololá	701	Sololá	2	El tablón	10	Octubre	2023-10-14T00:00:00	2024-11-06T15:00:00	6	Velocidad del viento	6.4
183478	7	Sololá	701	Sololá	2	El tablón	10	Octubre	2023-10-14T00:00:00	2024-11-06T15:00:00	7	Dirección del viento	6.44
183479	7	Sololá	701	Sololá	2	El tablón	10	Octubre	2023-10-14T00:00:00	2024-11-06T15:00:00	1	Precipitación	0
183480	7	Sololá	701	Sololá	2	El tablón	10	Octubre	2023-10-14T00:00:00	2024-11-06T15:00:00	8	Radiación solar	381
183481	7	Sololá	701	Sololá	2	El tablón	10	Octubre	2023-10-14T00:00:00	2024-11-06T16:00:00	2	Temperatura media	17.9
183482	7	Sololá	701	Sololá	2	El tablón	10	Octubre	2023-10-14T00:00:00	2024-11-06T16:00:00	4	Temperatura máxima	19.5
183483	7	Sololá	701	Sololá	2	El tablón	10	Octubre	2023-10-14T00:00:00	2024-11-06T16:00:00	3	Temperatura mínima	17.4
183484	7	Sololá	701	Sololá	2	El tablón	10	Octubre	2023-10-14T00:00:00	2024-11-06T16:00:00	5	Humedad	86
183485	7	Sololá	701	Sololá	2	El tablón	10	Octubre	2023-10-14T00:00:00	2024-11-06T16:00:00	6	Velocidad del viento	4.8
183486	7	Sololá	701	Sololá	2	El tablón	10	Octubre	2023-10-14T00:00:00	2024-11-06T16:00:00	7	Dirección del viento	4.83
183487	7	Sololá	701	Sololá	2	El tablón	10	Octubre	2023-10-14T00:00:00	2024-11-06T16:00:00	1	Precipitación	0
183488	7	Sololá	701	Sololá	2	El tablón	10	Octubre	2023-10-14T00:00:00	2024-11-06T16:00:00	8	Radiación solar	269
183489	7	Sololá	701	Sololá	2	El tablón	10	Octubre	2023-10-14T00:00:00	2024-11-06T17:00:00	2	Temperatura media	17.1
183490	7	Sololá	701	Sololá	2	El tablón	10	Octubre	2023-10-14T00:00:00	2024-11-06T17:00:00	4	Temperatura máxima	18
183491	7	Sololá	701	Sololá	2	El tablón	10	Octubre	2023-10-14T00:00:00	2024-11-06T17:00:00	3	Temperatura mínima	17.1
183492	7	Sololá	701	Sololá	2	El tablón	10	Octubre	2023-10-14T00:00:00	2024-11-06T17:00:00	5	Humedad	84
183493	7	Sololá	701	Sololá	2	El tablón	10	Octubre	2023-10-14T00:00:00	2024-11-06T17:00:00	6	Velocidad del viento	6.4
183494	7	Sololá	701	Sololá	2	El tablón	10	Octubre	2023-10-14T00:00:00	2024-11-06T17:00:00	7	Dirección del viento	6.44
183495	7	Sololá	701	Sololá	2	El tablón	10	Octubre	2023-10-14T00:00:00	2024-11-06T17:00:00	1	Precipitación	0
183496	7	Sololá	701	Sololá	2	El tablón	10	Octubre	2023-10-14T00:00:00	2024-11-06T17:00:00	8	Radiación solar	97
183497	7	Sololá	701	Sololá	2	El tablón	10	Octubre	2023-10-14T00:00:00	2024-11-06T18:00:00	2	Temperatura media	15.9
183498	7	Sololá	701	Sololá	2	El tablón	10	Octubre	2023-10-14T00:00:00	2024-11-06T18:00:00	4	Temperatura máxima	17.1
183499	7	Sololá	701	Sololá	2	El tablón	10	Octubre	2023-10-14T00:00:00	2024-11-06T18:00:00	3	Temperatura mínima	15.9
183500	7	Sololá	701	Sololá	2	El tablón	10	Octubre	2023-10-14T00:00:00	2024-11-06T18:00:00	5	Humedad	87
183501	7	Sololá	701	Sololá	2	El tablón	10	Octubre	2023-10-14T00:00:00	2024-11-06T18:00:00	6	Velocidad del viento	4.8
183502	7	Sololá	701	Sololá	2	El tablón	10	Octubre	2023-10-14T00:00:00	2024-11-06T18:00:00	7	Dirección del viento	4.83
183503	7	Sololá	701	Sololá	2	El tablón	10	Octubre	2023-10-14T00:00:00	2024-11-06T18:00:00	1	Precipitación	0
183504	7	Sololá	701	Sololá	2	El tablón	10	Octubre	2023-10-14T00:00:00	2024-11-06T18:00:00	8	Radiación solar	18
183505	7	Sololá	701	Sololá	2	El tablón	10	Octubre	2023-10-14T00:00:00	2024-11-06T19:00:00	2	Temperatura media	15.6
183506	7	Sololá	701	Sololá	2	El tablón	10	Octubre	2023-10-14T00:00:00	2024-11-06T19:00:00	4	Temperatura máxima	15.9
183507	7	Sololá	701	Sololá	2	El tablón	10	Octubre	2023-10-14T00:00:00	2024-11-06T19:00:00	3	Temperatura mínima	15.6
183508	7	Sololá	701	Sololá	2	El tablón	10	Octubre	2023-10-14T00:00:00	2024-11-06T19:00:00	5	Humedad	86
183509	7	Sololá	701	Sololá	2	El tablón	10	Octubre	2023-10-14T00:00:00	2024-11-06T19:00:00	6	Velocidad del viento	6.4
183510	7	Sololá	701	Sololá	2	El tablón	10	Octubre	2023-10-14T00:00:00	2024-11-06T19:00:00	7	Dirección del viento	6.44
183511	7	Sololá	701	Sololá	2	El tablón	10	Octubre	2023-10-14T00:00:00	2024-11-06T19:00:00	1	Precipitación	0
183512	7	Sololá	701	Sololá	2	El tablón	10	Octubre	2023-10-14T00:00:00	2024-11-06T19:00:00	8	Radiación solar	0
183513	7	Sololá	701	Sololá	2	El tablón	10	Octubre	2023-10-14T00:00:00	2024-11-06T20:00:00	2	Temperatura media	15.4
183514	7	Sololá	701	Sololá	2	El tablón	10	Octubre	2023-10-14T00:00:00	2024-11-06T20:00:00	4	Temperatura máxima	15.6
183515	7	Sololá	701	Sololá	2	El tablón	10	Octubre	2023-10-14T00:00:00	2024-11-06T20:00:00	3	Temperatura mínima	15.3
183516	7	Sololá	701	Sololá	2	El tablón	10	Octubre	2023-10-14T00:00:00	2024-11-06T20:00:00	5	Humedad	88
183517	7	Sololá	701	Sololá	2	El tablón	10	Octubre	2023-10-14T00:00:00	2024-11-06T20:00:00	6	Velocidad del viento	8
183518	7	Sololá	701	Sololá	2	El tablón	10	Octubre	2023-10-14T00:00:00	2024-11-06T20:00:00	7	Dirección del viento	8.05
183519	7	Sololá	701	Sololá	2	El tablón	10	Octubre	2023-10-14T00:00:00	2024-11-06T20:00:00	1	Precipitación	0
183520	7	Sololá	701	Sololá	2	El tablón	10	Octubre	2023-10-14T00:00:00	2024-11-06T20:00:00	8	Radiación solar	0
183521	7	Sololá	701	Sololá	2	El tablón	10	Octubre	2023-10-14T00:00:00	2024-11-06T21:00:00	2	Temperatura media	15.4
183522	7	Sololá	701	Sololá	2	El tablón	10	Octubre	2023-10-14T00:00:00	2024-11-06T21:00:00	4	Temperatura máxima	15.5
183523	7	Sololá	701	Sololá	2	El tablón	10	Octubre	2023-10-14T00:00:00	2024-11-06T21:00:00	3	Temperatura mínima	15.3
183524	7	Sololá	701	Sololá	2	El tablón	10	Octubre	2023-10-14T00:00:00	2024-11-06T21:00:00	5	Humedad	87
183525	7	Sololá	701	Sololá	2	El tablón	10	Octubre	2023-10-14T00:00:00	2024-11-06T21:00:00	6	Velocidad del viento	9.7
183526	7	Sololá	701	Sololá	2	El tablón	10	Octubre	2023-10-14T00:00:00	2024-11-06T21:00:00	7	Dirección del viento	9.66
183527	7	Sololá	701	Sololá	2	El tablón	10	Octubre	2023-10-14T00:00:00	2024-11-06T21:00:00	1	Precipitación	0
183528	7	Sololá	701	Sololá	2	El tablón	10	Octubre	2023-10-14T00:00:00	2024-11-06T21:00:00	8	Radiación solar	0
183529	7	Sololá	701	Sololá	2	El tablón	10	Octubre	2023-10-14T00:00:00	2024-11-06T22:00:00	2	Temperatura media	15.1
183530	7	Sololá	701	Sololá	2	El tablón	10	Octubre	2023-10-14T00:00:00	2024-11-06T22:00:00	4	Temperatura máxima	15.4
183531	7	Sololá	701	Sololá	2	El tablón	10	Octubre	2023-10-14T00:00:00	2024-11-06T22:00:00	3	Temperatura mínima	15.1
183532	7	Sololá	701	Sololá	2	El tablón	10	Octubre	2023-10-14T00:00:00	2024-11-06T22:00:00	5	Humedad	88
183533	7	Sololá	701	Sololá	2	El tablón	10	Octubre	2023-10-14T00:00:00	2024-11-06T22:00:00	6	Velocidad del viento	6.4
183534	7	Sololá	701	Sololá	2	El tablón	10	Octubre	2023-10-14T00:00:00	2024-11-06T22:00:00	7	Dirección del viento	6.44
183535	7	Sololá	701	Sololá	2	El tablón	10	Octubre	2023-10-14T00:00:00	2024-11-06T22:00:00	1	Precipitación	0
183536	7	Sololá	701	Sololá	2	El tablón	10	Octubre	2023-10-14T00:00:00	2024-11-06T22:00:00	8	Radiación solar	0
183537	7	Sololá	701	Sololá	2	El tablón	10	Octubre	2023-10-14T00:00:00	2024-11-06T23:00:00	2	Temperatura media	14.9
183538	7	Sololá	701	Sololá	2	El tablón	10	Octubre	2023-10-14T00:00:00	2024-11-06T23:00:00	4	Temperatura máxima	15.1
183539	7	Sololá	701	Sololá	2	El tablón	10	Octubre	2023-10-14T00:00:00	2024-11-06T23:00:00	3	Temperatura mínima	14.9
183540	7	Sololá	701	Sololá	2	El tablón	10	Octubre	2023-10-14T00:00:00	2024-11-06T23:00:00	5	Humedad	88
183541	7	Sololá	701	Sololá	2	El tablón	10	Octubre	2023-10-14T00:00:00	2024-11-06T23:00:00	6	Velocidad del viento	8
183542	7	Sololá	701	Sololá	2	El tablón	10	Octubre	2023-10-14T00:00:00	2024-11-06T23:00:00	7	Dirección del viento	8.05
183543	7	Sololá	701	Sololá	2	El tablón	10	Octubre	2023-10-14T00:00:00	2024-11-06T23:00:00	1	Precipitación	0
183544	7	Sololá	701	Sololá	2	El tablón	10	Octubre	2023-10-14T00:00:00	2024-11-06T23:00:00	8	Radiación solar	0
183545	7	Sololá	701	Sololá	2	El tablón	10	Octubre	2023-10-15T00:00:00	2024-11-06T00:00:00	2	Temperatura media	14.8
183546	7	Sololá	701	Sololá	2	El tablón	10	Octubre	2023-10-15T00:00:00	2024-11-06T00:00:00	4	Temperatura máxima	15
183547	7	Sololá	701	Sololá	2	El tablón	10	Octubre	2023-10-15T00:00:00	2024-11-06T00:00:00	3	Temperatura mínima	14.8
183548	7	Sololá	701	Sololá	2	El tablón	10	Octubre	2023-10-15T00:00:00	2024-11-06T00:00:00	5	Humedad	88
183549	7	Sololá	701	Sololá	2	El tablón	10	Octubre	2023-10-15T00:00:00	2024-11-06T00:00:00	6	Velocidad del viento	6.4
183550	7	Sololá	701	Sololá	2	El tablón	10	Octubre	2023-10-15T00:00:00	2024-11-06T00:00:00	7	Dirección del viento	6.44
183551	7	Sololá	701	Sololá	2	El tablón	10	Octubre	2023-10-15T00:00:00	2024-11-06T00:00:00	1	Precipitación	0
183552	7	Sololá	701	Sololá	2	El tablón	10	Octubre	2023-10-15T00:00:00	2024-11-06T00:00:00	8	Radiación solar	0
183553	7	Sololá	701	Sololá	2	El tablón	10	Octubre	2023-10-15T00:00:00	2024-11-06T01:00:00	2	Temperatura media	14.2
183554	7	Sololá	701	Sololá	2	El tablón	10	Octubre	2023-10-15T00:00:00	2024-11-06T01:00:00	4	Temperatura máxima	14.8
183555	7	Sololá	701	Sololá	2	El tablón	10	Octubre	2023-10-15T00:00:00	2024-11-06T01:00:00	3	Temperatura mínima	14.2
183556	7	Sololá	701	Sololá	2	El tablón	10	Octubre	2023-10-15T00:00:00	2024-11-06T01:00:00	5	Humedad	89
183557	7	Sololá	701	Sololá	2	El tablón	10	Octubre	2023-10-15T00:00:00	2024-11-06T01:00:00	6	Velocidad del viento	6.4
183558	7	Sololá	701	Sololá	2	El tablón	10	Octubre	2023-10-15T00:00:00	2024-11-06T01:00:00	7	Dirección del viento	6.44
183559	7	Sololá	701	Sololá	2	El tablón	10	Octubre	2023-10-15T00:00:00	2024-11-06T01:00:00	1	Precipitación	0
183560	7	Sololá	701	Sololá	2	El tablón	10	Octubre	2023-10-15T00:00:00	2024-11-06T01:00:00	8	Radiación solar	0
183561	7	Sololá	701	Sololá	2	El tablón	10	Octubre	2023-10-15T00:00:00	2024-11-06T02:00:00	2	Temperatura media	14.3
183562	7	Sololá	701	Sololá	2	El tablón	10	Octubre	2023-10-15T00:00:00	2024-11-06T02:00:00	4	Temperatura máxima	14.3
183563	7	Sololá	701	Sololá	2	El tablón	10	Octubre	2023-10-15T00:00:00	2024-11-06T02:00:00	3	Temperatura mínima	13.9
183564	7	Sololá	701	Sololá	2	El tablón	10	Octubre	2023-10-15T00:00:00	2024-11-06T02:00:00	5	Humedad	88
183565	7	Sololá	701	Sololá	2	El tablón	10	Octubre	2023-10-15T00:00:00	2024-11-06T02:00:00	6	Velocidad del viento	6.4
183566	7	Sololá	701	Sololá	2	El tablón	10	Octubre	2023-10-15T00:00:00	2024-11-06T02:00:00	7	Dirección del viento	6.44
183567	7	Sololá	701	Sololá	2	El tablón	10	Octubre	2023-10-15T00:00:00	2024-11-06T02:00:00	1	Precipitación	0
183568	7	Sololá	701	Sololá	2	El tablón	10	Octubre	2023-10-15T00:00:00	2024-11-06T02:00:00	8	Radiación solar	0
183569	7	Sololá	701	Sololá	2	El tablón	10	Octubre	2023-10-15T00:00:00	2024-11-06T03:00:00	2	Temperatura media	14
183570	7	Sololá	701	Sololá	2	El tablón	10	Octubre	2023-10-15T00:00:00	2024-11-06T03:00:00	4	Temperatura máxima	14.3
183571	7	Sololá	701	Sololá	2	El tablón	10	Octubre	2023-10-15T00:00:00	2024-11-06T03:00:00	3	Temperatura mínima	13.9
183572	7	Sololá	701	Sololá	2	El tablón	10	Octubre	2023-10-15T00:00:00	2024-11-06T03:00:00	5	Humedad	88
183573	7	Sololá	701	Sololá	2	El tablón	10	Octubre	2023-10-15T00:00:00	2024-11-06T03:00:00	6	Velocidad del viento	8
183574	7	Sololá	701	Sololá	2	El tablón	10	Octubre	2023-10-15T00:00:00	2024-11-06T03:00:00	7	Dirección del viento	8.05
183575	7	Sololá	701	Sololá	2	El tablón	10	Octubre	2023-10-15T00:00:00	2024-11-06T03:00:00	1	Precipitación	0
183576	7	Sololá	701	Sololá	2	El tablón	10	Octubre	2023-10-15T00:00:00	2024-11-06T03:00:00	8	Radiación solar	0
183577	7	Sololá	701	Sololá	2	El tablón	10	Octubre	2023-10-15T00:00:00	2024-11-06T04:00:00	2	Temperatura media	13.7
183578	7	Sololá	701	Sololá	2	El tablón	10	Octubre	2023-10-15T00:00:00	2024-11-06T04:00:00	4	Temperatura máxima	14
183579	7	Sololá	701	Sololá	2	El tablón	10	Octubre	2023-10-15T00:00:00	2024-11-06T04:00:00	3	Temperatura mínima	13.7
183580	7	Sololá	701	Sololá	2	El tablón	10	Octubre	2023-10-15T00:00:00	2024-11-06T04:00:00	5	Humedad	88
183581	7	Sololá	701	Sololá	2	El tablón	10	Octubre	2023-10-15T00:00:00	2024-11-06T04:00:00	6	Velocidad del viento	6.4
183582	7	Sololá	701	Sololá	2	El tablón	10	Octubre	2023-10-15T00:00:00	2024-11-06T04:00:00	7	Dirección del viento	6.44
183583	7	Sololá	701	Sololá	2	El tablón	10	Octubre	2023-10-15T00:00:00	2024-11-06T04:00:00	1	Precipitación	0
183584	7	Sololá	701	Sololá	2	El tablón	10	Octubre	2023-10-15T00:00:00	2024-11-06T04:00:00	8	Radiación solar	0
183585	7	Sololá	701	Sololá	2	El tablón	10	Octubre	2023-10-15T00:00:00	2024-11-06T05:00:00	2	Temperatura media	13.7
183586	7	Sololá	701	Sololá	2	El tablón	10	Octubre	2023-10-15T00:00:00	2024-11-06T05:00:00	4	Temperatura máxima	13.7
183587	7	Sololá	701	Sololá	2	El tablón	10	Octubre	2023-10-15T00:00:00	2024-11-06T05:00:00	3	Temperatura mínima	13.6
183588	7	Sololá	701	Sololá	2	El tablón	10	Octubre	2023-10-15T00:00:00	2024-11-06T05:00:00	5	Humedad	88
183589	7	Sololá	701	Sololá	2	El tablón	10	Octubre	2023-10-15T00:00:00	2024-11-06T05:00:00	6	Velocidad del viento	9.7
183590	7	Sololá	701	Sololá	2	El tablón	10	Octubre	2023-10-15T00:00:00	2024-11-06T05:00:00	7	Dirección del viento	9.66
183591	7	Sololá	701	Sololá	2	El tablón	10	Octubre	2023-10-15T00:00:00	2024-11-06T05:00:00	1	Precipitación	0
183592	7	Sololá	701	Sololá	2	El tablón	10	Octubre	2023-10-15T00:00:00	2024-11-06T05:00:00	8	Radiación solar	0
183593	7	Sololá	701	Sololá	2	El tablón	10	Octubre	2023-10-15T00:00:00	2024-11-06T06:00:00	2	Temperatura media	13.3
183594	7	Sololá	701	Sololá	2	El tablón	10	Octubre	2023-10-15T00:00:00	2024-11-06T06:00:00	4	Temperatura máxima	13.7
183595	7	Sololá	701	Sololá	2	El tablón	10	Octubre	2023-10-15T00:00:00	2024-11-06T06:00:00	3	Temperatura mínima	13.3
183596	7	Sololá	701	Sololá	2	El tablón	10	Octubre	2023-10-15T00:00:00	2024-11-06T06:00:00	5	Humedad	87
183597	7	Sololá	701	Sololá	2	El tablón	10	Octubre	2023-10-15T00:00:00	2024-11-06T06:00:00	6	Velocidad del viento	6.4
183598	7	Sololá	701	Sololá	2	El tablón	10	Octubre	2023-10-15T00:00:00	2024-11-06T06:00:00	7	Dirección del viento	6.44
183599	7	Sololá	701	Sololá	2	El tablón	10	Octubre	2023-10-15T00:00:00	2024-11-06T06:00:00	1	Precipitación	0
183600	7	Sololá	701	Sololá	2	El tablón	10	Octubre	2023-10-15T00:00:00	2024-11-06T06:00:00	8	Radiación solar	0
183601	7	Sololá	701	Sololá	2	El tablón	10	Octubre	2023-10-15T00:00:00	2024-11-06T07:00:00	2	Temperatura media	14.5
183602	7	Sololá	701	Sololá	2	El tablón	10	Octubre	2023-10-15T00:00:00	2024-11-06T07:00:00	4	Temperatura máxima	14.5
183603	7	Sololá	701	Sololá	2	El tablón	10	Octubre	2023-10-15T00:00:00	2024-11-06T07:00:00	3	Temperatura mínima	13.3
183604	7	Sololá	701	Sololá	2	El tablón	10	Octubre	2023-10-15T00:00:00	2024-11-06T07:00:00	5	Humedad	86
183605	7	Sololá	701	Sololá	2	El tablón	10	Octubre	2023-10-15T00:00:00	2024-11-06T07:00:00	6	Velocidad del viento	9.7
183606	7	Sololá	701	Sololá	2	El tablón	10	Octubre	2023-10-15T00:00:00	2024-11-06T07:00:00	7	Dirección del viento	9.66
183607	7	Sololá	701	Sololá	2	El tablón	10	Octubre	2023-10-15T00:00:00	2024-11-06T07:00:00	1	Precipitación	0
183608	7	Sololá	701	Sololá	2	El tablón	10	Octubre	2023-10-15T00:00:00	2024-11-06T07:00:00	8	Radiación solar	51
183609	7	Sololá	701	Sololá	2	El tablón	10	Octubre	2023-10-15T00:00:00	2024-11-06T08:00:00	2	Temperatura media	17.2
183610	7	Sololá	701	Sololá	2	El tablón	10	Octubre	2023-10-15T00:00:00	2024-11-06T08:00:00	4	Temperatura máxima	17.2
183611	7	Sololá	701	Sololá	2	El tablón	10	Octubre	2023-10-15T00:00:00	2024-11-06T08:00:00	3	Temperatura mínima	14.5
183612	7	Sololá	701	Sololá	2	El tablón	10	Octubre	2023-10-15T00:00:00	2024-11-06T08:00:00	5	Humedad	77
183613	7	Sololá	701	Sololá	2	El tablón	10	Octubre	2023-10-15T00:00:00	2024-11-06T08:00:00	6	Velocidad del viento	6.4
183614	7	Sololá	701	Sololá	2	El tablón	10	Octubre	2023-10-15T00:00:00	2024-11-06T08:00:00	7	Dirección del viento	6.44
183615	7	Sololá	701	Sololá	2	El tablón	10	Octubre	2023-10-15T00:00:00	2024-11-06T08:00:00	1	Precipitación	0
183616	7	Sololá	701	Sololá	2	El tablón	10	Octubre	2023-10-15T00:00:00	2024-11-06T08:00:00	8	Radiación solar	218
183617	7	Sololá	701	Sololá	2	El tablón	10	Octubre	2023-10-15T00:00:00	2024-11-06T09:00:00	2	Temperatura media	18.2
183618	7	Sololá	701	Sololá	2	El tablón	10	Octubre	2023-10-15T00:00:00	2024-11-06T09:00:00	4	Temperatura máxima	18.2
183619	7	Sololá	701	Sololá	2	El tablón	10	Octubre	2023-10-15T00:00:00	2024-11-06T09:00:00	3	Temperatura mínima	17.2
183620	7	Sololá	701	Sololá	2	El tablón	10	Octubre	2023-10-15T00:00:00	2024-11-06T09:00:00	5	Humedad	76
183621	7	Sololá	701	Sololá	2	El tablón	10	Octubre	2023-10-15T00:00:00	2024-11-06T09:00:00	6	Velocidad del viento	9.7
183622	7	Sololá	701	Sololá	2	El tablón	10	Octubre	2023-10-15T00:00:00	2024-11-06T09:00:00	7	Dirección del viento	9.66
183623	7	Sololá	701	Sololá	2	El tablón	10	Octubre	2023-10-15T00:00:00	2024-11-06T09:00:00	1	Precipitación	0
183624	7	Sololá	701	Sololá	2	El tablón	10	Octubre	2023-10-15T00:00:00	2024-11-06T09:00:00	8	Radiación solar	520
183625	7	Sololá	701	Sololá	2	El tablón	10	Octubre	2023-10-15T00:00:00	2024-11-06T10:00:00	2	Temperatura media	18.4
183626	7	Sololá	701	Sololá	2	El tablón	10	Octubre	2023-10-15T00:00:00	2024-11-06T10:00:00	4	Temperatura máxima	18.4
183627	7	Sololá	701	Sololá	2	El tablón	10	Octubre	2023-10-15T00:00:00	2024-11-06T10:00:00	3	Temperatura mínima	18.2
183628	7	Sololá	701	Sololá	2	El tablón	10	Octubre	2023-10-15T00:00:00	2024-11-06T10:00:00	5	Humedad	74
183629	7	Sololá	701	Sololá	2	El tablón	10	Octubre	2023-10-15T00:00:00	2024-11-06T10:00:00	6	Velocidad del viento	6.4
183630	7	Sololá	701	Sololá	2	El tablón	10	Octubre	2023-10-15T00:00:00	2024-11-06T10:00:00	7	Dirección del viento	6.44
183631	7	Sololá	701	Sololá	2	El tablón	10	Octubre	2023-10-15T00:00:00	2024-11-06T10:00:00	1	Precipitación	0
183632	7	Sololá	701	Sololá	2	El tablón	10	Octubre	2023-10-15T00:00:00	2024-11-06T10:00:00	8	Radiación solar	508
183633	7	Sololá	701	Sololá	2	El tablón	10	Octubre	2023-10-15T00:00:00	2024-11-06T11:00:00	2	Temperatura media	17.1
183634	7	Sololá	701	Sololá	2	El tablón	10	Octubre	2023-10-15T00:00:00	2024-11-06T11:00:00	4	Temperatura máxima	18.8
183635	7	Sololá	701	Sololá	2	El tablón	10	Octubre	2023-10-15T00:00:00	2024-11-06T11:00:00	3	Temperatura mínima	16.8
183636	7	Sololá	701	Sololá	2	El tablón	10	Octubre	2023-10-15T00:00:00	2024-11-06T11:00:00	5	Humedad	84
183637	7	Sololá	701	Sololá	2	El tablón	10	Octubre	2023-10-15T00:00:00	2024-11-06T11:00:00	6	Velocidad del viento	6.4
183638	7	Sololá	701	Sololá	2	El tablón	10	Octubre	2023-10-15T00:00:00	2024-11-06T11:00:00	7	Dirección del viento	6.44
183639	7	Sololá	701	Sololá	2	El tablón	10	Octubre	2023-10-15T00:00:00	2024-11-06T11:00:00	1	Precipitación	0
183640	7	Sololá	701	Sololá	2	El tablón	10	Octubre	2023-10-15T00:00:00	2024-11-06T11:00:00	8	Radiación solar	359
183641	7	Sololá	701	Sololá	2	El tablón	10	Octubre	2023-10-15T00:00:00	2024-11-06T12:00:00	2	Temperatura media	16.8
183642	7	Sololá	701	Sololá	2	El tablón	10	Octubre	2023-10-15T00:00:00	2024-11-06T12:00:00	4	Temperatura máxima	17.6
183643	7	Sololá	701	Sololá	2	El tablón	10	Octubre	2023-10-15T00:00:00	2024-11-06T12:00:00	3	Temperatura mínima	16.7
183644	7	Sololá	701	Sololá	2	El tablón	10	Octubre	2023-10-15T00:00:00	2024-11-06T12:00:00	5	Humedad	87
183645	7	Sololá	701	Sololá	2	El tablón	10	Octubre	2023-10-15T00:00:00	2024-11-06T12:00:00	6	Velocidad del viento	6.4
183646	7	Sololá	701	Sololá	2	El tablón	10	Octubre	2023-10-15T00:00:00	2024-11-06T12:00:00	7	Dirección del viento	6.44
183647	7	Sololá	701	Sololá	2	El tablón	10	Octubre	2023-10-15T00:00:00	2024-11-06T12:00:00	1	Precipitación	0
183648	7	Sololá	701	Sololá	2	El tablón	10	Octubre	2023-10-15T00:00:00	2024-11-06T12:00:00	8	Radiación solar	305
183649	7	Sololá	701	Sololá	2	El tablón	10	Octubre	2023-10-15T00:00:00	2024-11-06T13:00:00	2	Temperatura media	17.6
183650	7	Sololá	701	Sololá	2	El tablón	10	Octubre	2023-10-15T00:00:00	2024-11-06T13:00:00	4	Temperatura máxima	17.6
183651	7	Sololá	701	Sololá	2	El tablón	10	Octubre	2023-10-15T00:00:00	2024-11-06T13:00:00	3	Temperatura mínima	16.8
183652	7	Sololá	701	Sololá	2	El tablón	10	Octubre	2023-10-15T00:00:00	2024-11-06T13:00:00	5	Humedad	87
183653	7	Sololá	701	Sololá	2	El tablón	10	Octubre	2023-10-15T00:00:00	2024-11-06T13:00:00	6	Velocidad del viento	6.4
183654	7	Sololá	701	Sololá	2	El tablón	10	Octubre	2023-10-15T00:00:00	2024-11-06T13:00:00	7	Dirección del viento	6.44
183655	7	Sololá	701	Sololá	2	El tablón	10	Octubre	2023-10-15T00:00:00	2024-11-06T13:00:00	1	Precipitación	0
183656	7	Sololá	701	Sololá	2	El tablón	10	Octubre	2023-10-15T00:00:00	2024-11-06T13:00:00	8	Radiación solar	348
183657	7	Sololá	701	Sololá	2	El tablón	10	Octubre	2023-10-15T00:00:00	2024-11-06T14:00:00	2	Temperatura media	18.2
183658	7	Sololá	701	Sololá	2	El tablón	10	Octubre	2023-10-15T00:00:00	2024-11-06T14:00:00	4	Temperatura máxima	18.6
183659	7	Sololá	701	Sololá	2	El tablón	10	Octubre	2023-10-15T00:00:00	2024-11-06T14:00:00	3	Temperatura mínima	17.4
183660	7	Sololá	701	Sololá	2	El tablón	10	Octubre	2023-10-15T00:00:00	2024-11-06T14:00:00	5	Humedad	86
183661	7	Sololá	701	Sololá	2	El tablón	10	Octubre	2023-10-15T00:00:00	2024-11-06T14:00:00	6	Velocidad del viento	8
183662	7	Sololá	701	Sololá	2	El tablón	10	Octubre	2023-10-15T00:00:00	2024-11-06T14:00:00	7	Dirección del viento	8.05
183663	7	Sololá	701	Sololá	2	El tablón	10	Octubre	2023-10-15T00:00:00	2024-11-06T14:00:00	1	Precipitación	0
183664	7	Sololá	701	Sololá	2	El tablón	10	Octubre	2023-10-15T00:00:00	2024-11-06T14:00:00	8	Radiación solar	602
183665	7	Sololá	701	Sololá	2	El tablón	10	Octubre	2023-10-15T00:00:00	2024-11-06T15:00:00	2	Temperatura media	16.3
183666	7	Sololá	701	Sololá	2	El tablón	10	Octubre	2023-10-15T00:00:00	2024-11-06T15:00:00	4	Temperatura máxima	18.2
183667	7	Sololá	701	Sololá	2	El tablón	10	Octubre	2023-10-15T00:00:00	2024-11-06T15:00:00	3	Temperatura mínima	16.2
183668	7	Sololá	701	Sololá	2	El tablón	10	Octubre	2023-10-15T00:00:00	2024-11-06T15:00:00	5	Humedad	88
183669	7	Sololá	701	Sololá	2	El tablón	10	Octubre	2023-10-15T00:00:00	2024-11-06T15:00:00	6	Velocidad del viento	6.4
183670	7	Sololá	701	Sololá	2	El tablón	10	Octubre	2023-10-15T00:00:00	2024-11-06T15:00:00	7	Dirección del viento	6.44
183671	7	Sololá	701	Sololá	2	El tablón	10	Octubre	2023-10-15T00:00:00	2024-11-06T15:00:00	1	Precipitación	0
183672	7	Sololá	701	Sololá	2	El tablón	10	Octubre	2023-10-15T00:00:00	2024-11-06T15:00:00	8	Radiación solar	242
183673	7	Sololá	701	Sololá	2	El tablón	10	Octubre	2023-10-15T00:00:00	2024-11-06T16:00:00	2	Temperatura media	15.4
183674	7	Sololá	701	Sololá	2	El tablón	10	Octubre	2023-10-15T00:00:00	2024-11-06T16:00:00	4	Temperatura máxima	16.3
183675	7	Sololá	701	Sololá	2	El tablón	10	Octubre	2023-10-15T00:00:00	2024-11-06T16:00:00	3	Temperatura mínima	15.4
183676	7	Sololá	701	Sololá	2	El tablón	10	Octubre	2023-10-15T00:00:00	2024-11-06T16:00:00	5	Humedad	87
183677	7	Sololá	701	Sololá	2	El tablón	10	Octubre	2023-10-15T00:00:00	2024-11-06T16:00:00	6	Velocidad del viento	4.8
183678	7	Sololá	701	Sololá	2	El tablón	10	Octubre	2023-10-15T00:00:00	2024-11-06T16:00:00	7	Dirección del viento	4.83
183679	7	Sololá	701	Sololá	2	El tablón	10	Octubre	2023-10-15T00:00:00	2024-11-06T16:00:00	1	Precipitación	1
183680	7	Sololá	701	Sololá	2	El tablón	10	Octubre	2023-10-15T00:00:00	2024-11-06T16:00:00	8	Radiación solar	104
183681	7	Sololá	701	Sololá	2	El tablón	10	Octubre	2023-10-15T00:00:00	2024-11-06T17:00:00	2	Temperatura media	15.2
183682	7	Sololá	701	Sololá	2	El tablón	10	Octubre	2023-10-15T00:00:00	2024-11-06T17:00:00	4	Temperatura máxima	15.4
183683	7	Sololá	701	Sololá	2	El tablón	10	Octubre	2023-10-15T00:00:00	2024-11-06T17:00:00	3	Temperatura mínima	15.2
183684	7	Sololá	701	Sololá	2	El tablón	10	Octubre	2023-10-15T00:00:00	2024-11-06T17:00:00	5	Humedad	86
183685	7	Sololá	701	Sololá	2	El tablón	10	Octubre	2023-10-15T00:00:00	2024-11-06T17:00:00	6	Velocidad del viento	1.6
183686	7	Sololá	701	Sololá	2	El tablón	10	Octubre	2023-10-15T00:00:00	2024-11-06T17:00:00	7	Dirección del viento	1.61
183687	7	Sololá	701	Sololá	2	El tablón	10	Octubre	2023-10-15T00:00:00	2024-11-06T17:00:00	1	Precipitación	4
183688	7	Sololá	701	Sololá	2	El tablón	10	Octubre	2023-10-15T00:00:00	2024-11-06T17:00:00	8	Radiación solar	40
183689	7	Sololá	701	Sololá	2	El tablón	10	Octubre	2023-10-15T00:00:00	2024-11-06T18:00:00	2	Temperatura media	14.8
183690	7	Sololá	701	Sololá	2	El tablón	10	Octubre	2023-10-15T00:00:00	2024-11-06T18:00:00	4	Temperatura máxima	15.2
183691	7	Sololá	701	Sololá	2	El tablón	10	Octubre	2023-10-15T00:00:00	2024-11-06T18:00:00	3	Temperatura mínima	14.8
183692	7	Sololá	701	Sololá	2	El tablón	10	Octubre	2023-10-15T00:00:00	2024-11-06T18:00:00	5	Humedad	87
183693	7	Sololá	701	Sololá	2	El tablón	10	Octubre	2023-10-15T00:00:00	2024-11-06T18:00:00	6	Velocidad del viento	1.6
183694	7	Sololá	701	Sololá	2	El tablón	10	Octubre	2023-10-15T00:00:00	2024-11-06T18:00:00	7	Dirección del viento	1.61
183695	7	Sololá	701	Sololá	2	El tablón	10	Octubre	2023-10-15T00:00:00	2024-11-06T18:00:00	1	Precipitación	0
183696	7	Sololá	701	Sololá	2	El tablón	10	Octubre	2023-10-15T00:00:00	2024-11-06T18:00:00	8	Radiación solar	6
183697	7	Sololá	701	Sololá	2	El tablón	10	Octubre	2023-10-15T00:00:00	2024-11-06T19:00:00	2	Temperatura media	14.6
183698	7	Sololá	701	Sololá	2	El tablón	10	Octubre	2023-10-15T00:00:00	2024-11-06T19:00:00	4	Temperatura máxima	14.8
183699	7	Sololá	701	Sololá	2	El tablón	10	Octubre	2023-10-15T00:00:00	2024-11-06T19:00:00	3	Temperatura mínima	14.6
183700	7	Sololá	701	Sololá	2	El tablón	10	Octubre	2023-10-15T00:00:00	2024-11-06T19:00:00	5	Humedad	87
183701	7	Sololá	701	Sololá	2	El tablón	10	Octubre	2023-10-15T00:00:00	2024-11-06T19:00:00	6	Velocidad del viento	0
183702	7	Sololá	701	Sololá	2	El tablón	10	Octubre	2023-10-15T00:00:00	2024-11-06T19:00:00	7	Dirección del viento	0
183703	7	Sololá	701	Sololá	2	El tablón	10	Octubre	2023-10-15T00:00:00	2024-11-06T19:00:00	1	Precipitación	0
183704	7	Sololá	701	Sololá	2	El tablón	10	Octubre	2023-10-15T00:00:00	2024-11-06T19:00:00	8	Radiación solar	0
183705	7	Sololá	701	Sololá	2	El tablón	10	Octubre	2023-10-15T00:00:00	2024-11-06T20:00:00	2	Temperatura media	14.5
183706	7	Sololá	701	Sololá	2	El tablón	10	Octubre	2023-10-15T00:00:00	2024-11-06T20:00:00	4	Temperatura máxima	14.7
183707	7	Sololá	701	Sololá	2	El tablón	10	Octubre	2023-10-15T00:00:00	2024-11-06T20:00:00	3	Temperatura mínima	14.5
183708	7	Sololá	701	Sololá	2	El tablón	10	Octubre	2023-10-15T00:00:00	2024-11-06T20:00:00	5	Humedad	87
183709	7	Sololá	701	Sololá	2	El tablón	10	Octubre	2023-10-15T00:00:00	2024-11-06T20:00:00	6	Velocidad del viento	0
183710	7	Sololá	701	Sololá	2	El tablón	10	Octubre	2023-10-15T00:00:00	2024-11-06T20:00:00	7	Dirección del viento	0
183711	7	Sololá	701	Sololá	2	El tablón	10	Octubre	2023-10-15T00:00:00	2024-11-06T20:00:00	1	Precipitación	0
183712	7	Sololá	701	Sololá	2	El tablón	10	Octubre	2023-10-15T00:00:00	2024-11-06T20:00:00	8	Radiación solar	0
183713	7	Sololá	701	Sololá	2	El tablón	10	Octubre	2023-10-15T00:00:00	2024-11-06T21:00:00	2	Temperatura media	13.8
183714	7	Sololá	701	Sololá	2	El tablón	10	Octubre	2023-10-15T00:00:00	2024-11-06T21:00:00	4	Temperatura máxima	14.5
183715	7	Sololá	701	Sololá	2	El tablón	10	Octubre	2023-10-15T00:00:00	2024-11-06T21:00:00	3	Temperatura mínima	13.7
183716	7	Sololá	701	Sololá	2	El tablón	10	Octubre	2023-10-15T00:00:00	2024-11-06T21:00:00	5	Humedad	87
183717	7	Sololá	701	Sololá	2	El tablón	10	Octubre	2023-10-15T00:00:00	2024-11-06T21:00:00	6	Velocidad del viento	0
183718	7	Sololá	701	Sololá	2	El tablón	10	Octubre	2023-10-15T00:00:00	2024-11-06T21:00:00	7	Dirección del viento	0
183719	7	Sololá	701	Sololá	2	El tablón	10	Octubre	2023-10-15T00:00:00	2024-11-06T21:00:00	1	Precipitación	0
183720	7	Sololá	701	Sololá	2	El tablón	10	Octubre	2023-10-15T00:00:00	2024-11-06T21:00:00	8	Radiación solar	0
183721	7	Sololá	701	Sololá	2	El tablón	10	Octubre	2023-10-15T00:00:00	2024-11-06T22:00:00	2	Temperatura media	13.5
183722	7	Sololá	701	Sololá	2	El tablón	10	Octubre	2023-10-15T00:00:00	2024-11-06T22:00:00	4	Temperatura máxima	13.8
183723	7	Sololá	701	Sololá	2	El tablón	10	Octubre	2023-10-15T00:00:00	2024-11-06T22:00:00	3	Temperatura mínima	13.4
183724	7	Sololá	701	Sololá	2	El tablón	10	Octubre	2023-10-15T00:00:00	2024-11-06T22:00:00	5	Humedad	86
183725	7	Sololá	701	Sololá	2	El tablón	10	Octubre	2023-10-15T00:00:00	2024-11-06T22:00:00	6	Velocidad del viento	1.6
183726	7	Sololá	701	Sololá	2	El tablón	10	Octubre	2023-10-15T00:00:00	2024-11-06T22:00:00	7	Dirección del viento	1.61
183727	7	Sololá	701	Sololá	2	El tablón	10	Octubre	2023-10-15T00:00:00	2024-11-06T22:00:00	1	Precipitación	0.2
183728	7	Sololá	701	Sololá	2	El tablón	10	Octubre	2023-10-15T00:00:00	2024-11-06T22:00:00	8	Radiación solar	0
183729	7	Sololá	701	Sololá	2	El tablón	10	Octubre	2023-10-15T00:00:00	2024-11-06T23:00:00	2	Temperatura media	13.2
183730	7	Sololá	701	Sololá	2	El tablón	10	Octubre	2023-10-15T00:00:00	2024-11-06T23:00:00	4	Temperatura máxima	13.6
183731	7	Sololá	701	Sololá	2	El tablón	10	Octubre	2023-10-15T00:00:00	2024-11-06T23:00:00	3	Temperatura mínima	13.1
183732	7	Sololá	701	Sololá	2	El tablón	10	Octubre	2023-10-15T00:00:00	2024-11-06T23:00:00	5	Humedad	88
183733	7	Sololá	701	Sololá	2	El tablón	10	Octubre	2023-10-15T00:00:00	2024-11-06T23:00:00	6	Velocidad del viento	3.2
183734	7	Sololá	701	Sololá	2	El tablón	10	Octubre	2023-10-15T00:00:00	2024-11-06T23:00:00	7	Dirección del viento	3.22
183735	7	Sololá	701	Sololá	2	El tablón	10	Octubre	2023-10-15T00:00:00	2024-11-06T23:00:00	1	Precipitación	3
183736	7	Sololá	701	Sololá	2	El tablón	10	Octubre	2023-10-15T00:00:00	2024-11-06T23:00:00	8	Radiación solar	0
183737	7	Sololá	701	Sololá	2	El tablón	10	Octubre	2023-10-16T00:00:00	2024-11-06T00:00:00	2	Temperatura media	13.2
183738	7	Sololá	701	Sololá	2	El tablón	10	Octubre	2023-10-16T00:00:00	2024-11-06T00:00:00	4	Temperatura máxima	13.3
183739	7	Sololá	701	Sololá	2	El tablón	10	Octubre	2023-10-16T00:00:00	2024-11-06T00:00:00	3	Temperatura mínima	13.1
183740	7	Sololá	701	Sololá	2	El tablón	10	Octubre	2023-10-16T00:00:00	2024-11-06T00:00:00	5	Humedad	88
183741	7	Sololá	701	Sololá	2	El tablón	10	Octubre	2023-10-16T00:00:00	2024-11-06T00:00:00	6	Velocidad del viento	3.2
183742	7	Sololá	701	Sololá	2	El tablón	10	Octubre	2023-10-16T00:00:00	2024-11-06T00:00:00	7	Dirección del viento	3.22
183743	7	Sololá	701	Sololá	2	El tablón	10	Octubre	2023-10-16T00:00:00	2024-11-06T00:00:00	1	Precipitación	1.6
183744	7	Sololá	701	Sololá	2	El tablón	10	Octubre	2023-10-16T00:00:00	2024-11-06T00:00:00	8	Radiación solar	0
183745	7	Sololá	701	Sololá	2	El tablón	10	Octubre	2023-10-16T00:00:00	2024-11-06T01:00:00	2	Temperatura media	13.2
183746	7	Sololá	701	Sololá	2	El tablón	10	Octubre	2023-10-16T00:00:00	2024-11-06T01:00:00	4	Temperatura máxima	13.3
183747	7	Sololá	701	Sololá	2	El tablón	10	Octubre	2023-10-16T00:00:00	2024-11-06T01:00:00	3	Temperatura mínima	13.1
183748	7	Sololá	701	Sololá	2	El tablón	10	Octubre	2023-10-16T00:00:00	2024-11-06T01:00:00	5	Humedad	89
183749	7	Sololá	701	Sololá	2	El tablón	10	Octubre	2023-10-16T00:00:00	2024-11-06T01:00:00	6	Velocidad del viento	8
183750	7	Sololá	701	Sololá	2	El tablón	10	Octubre	2023-10-16T00:00:00	2024-11-06T01:00:00	7	Dirección del viento	8.05
183751	7	Sololá	701	Sololá	2	El tablón	10	Octubre	2023-10-16T00:00:00	2024-11-06T01:00:00	1	Precipitación	0
183752	7	Sololá	701	Sololá	2	El tablón	10	Octubre	2023-10-16T00:00:00	2024-11-06T01:00:00	8	Radiación solar	0
183753	7	Sololá	701	Sololá	2	El tablón	10	Octubre	2023-10-16T00:00:00	2024-11-06T02:00:00	2	Temperatura media	13.2
183754	7	Sololá	701	Sololá	2	El tablón	10	Octubre	2023-10-16T00:00:00	2024-11-06T02:00:00	4	Temperatura máxima	13.2
183755	7	Sololá	701	Sololá	2	El tablón	10	Octubre	2023-10-16T00:00:00	2024-11-06T02:00:00	3	Temperatura mínima	12.8
183756	7	Sololá	701	Sololá	2	El tablón	10	Octubre	2023-10-16T00:00:00	2024-11-06T02:00:00	5	Humedad	87
183757	7	Sololá	701	Sololá	2	El tablón	10	Octubre	2023-10-16T00:00:00	2024-11-06T02:00:00	6	Velocidad del viento	11.3
183758	7	Sololá	701	Sololá	2	El tablón	10	Octubre	2023-10-16T00:00:00	2024-11-06T02:00:00	7	Dirección del viento	11.27
183759	7	Sololá	701	Sololá	2	El tablón	10	Octubre	2023-10-16T00:00:00	2024-11-06T02:00:00	1	Precipitación	0
183760	7	Sololá	701	Sololá	2	El tablón	10	Octubre	2023-10-16T00:00:00	2024-11-06T02:00:00	8	Radiación solar	0
183761	7	Sololá	701	Sololá	2	El tablón	10	Octubre	2023-10-16T00:00:00	2024-11-06T03:00:00	2	Temperatura media	13.1
183762	7	Sololá	701	Sololá	2	El tablón	10	Octubre	2023-10-16T00:00:00	2024-11-06T03:00:00	4	Temperatura máxima	13.2
183763	7	Sololá	701	Sololá	2	El tablón	10	Octubre	2023-10-16T00:00:00	2024-11-06T03:00:00	3	Temperatura mínima	12.8
183764	7	Sololá	701	Sololá	2	El tablón	10	Octubre	2023-10-16T00:00:00	2024-11-06T03:00:00	5	Humedad	83
183765	7	Sololá	701	Sololá	2	El tablón	10	Octubre	2023-10-16T00:00:00	2024-11-06T03:00:00	6	Velocidad del viento	9.7
183766	7	Sololá	701	Sololá	2	El tablón	10	Octubre	2023-10-16T00:00:00	2024-11-06T03:00:00	7	Dirección del viento	9.66
183767	7	Sololá	701	Sololá	2	El tablón	10	Octubre	2023-10-16T00:00:00	2024-11-06T03:00:00	1	Precipitación	0
183768	7	Sololá	701	Sololá	2	El tablón	10	Octubre	2023-10-16T00:00:00	2024-11-06T03:00:00	8	Radiación solar	0
183769	7	Sololá	701	Sololá	2	El tablón	10	Octubre	2023-10-16T00:00:00	2024-11-06T04:00:00	2	Temperatura media	13.1
183770	7	Sololá	701	Sololá	2	El tablón	10	Octubre	2023-10-16T00:00:00	2024-11-06T04:00:00	4	Temperatura máxima	13.4
183771	7	Sololá	701	Sololá	2	El tablón	10	Octubre	2023-10-16T00:00:00	2024-11-06T04:00:00	3	Temperatura mínima	13
183772	7	Sololá	701	Sololá	2	El tablón	10	Octubre	2023-10-16T00:00:00	2024-11-06T04:00:00	5	Humedad	83
183773	7	Sololá	701	Sololá	2	El tablón	10	Octubre	2023-10-16T00:00:00	2024-11-06T04:00:00	6	Velocidad del viento	11.3
183774	7	Sololá	701	Sololá	2	El tablón	10	Octubre	2023-10-16T00:00:00	2024-11-06T04:00:00	7	Dirección del viento	11.27
183775	7	Sololá	701	Sololá	2	El tablón	10	Octubre	2023-10-16T00:00:00	2024-11-06T04:00:00	1	Precipitación	0
183776	7	Sololá	701	Sololá	2	El tablón	10	Octubre	2023-10-16T00:00:00	2024-11-06T04:00:00	8	Radiación solar	0
183777	7	Sololá	701	Sololá	2	El tablón	10	Octubre	2023-10-16T00:00:00	2024-11-06T05:00:00	2	Temperatura media	13.1
183778	7	Sololá	701	Sololá	2	El tablón	10	Octubre	2023-10-16T00:00:00	2024-11-06T05:00:00	4	Temperatura máxima	13.3
183779	7	Sololá	701	Sololá	2	El tablón	10	Octubre	2023-10-16T00:00:00	2024-11-06T05:00:00	3	Temperatura mínima	13.1
183780	7	Sololá	701	Sololá	2	El tablón	10	Octubre	2023-10-16T00:00:00	2024-11-06T05:00:00	5	Humedad	84
183781	7	Sololá	701	Sololá	2	El tablón	10	Octubre	2023-10-16T00:00:00	2024-11-06T05:00:00	6	Velocidad del viento	14.5
183782	7	Sololá	701	Sololá	2	El tablón	10	Octubre	2023-10-16T00:00:00	2024-11-06T05:00:00	7	Dirección del viento	14.48
183783	7	Sololá	701	Sololá	2	El tablón	10	Octubre	2023-10-16T00:00:00	2024-11-06T05:00:00	1	Precipitación	0
183784	7	Sololá	701	Sololá	2	El tablón	10	Octubre	2023-10-16T00:00:00	2024-11-06T05:00:00	8	Radiación solar	0
183785	7	Sololá	701	Sololá	2	El tablón	10	Octubre	2023-10-16T00:00:00	2024-11-06T06:00:00	2	Temperatura media	13
183786	7	Sololá	701	Sololá	2	El tablón	10	Octubre	2023-10-16T00:00:00	2024-11-06T06:00:00	4	Temperatura máxima	13.1
183787	7	Sololá	701	Sololá	2	El tablón	10	Octubre	2023-10-16T00:00:00	2024-11-06T06:00:00	3	Temperatura mínima	12.9
183788	7	Sololá	701	Sololá	2	El tablón	10	Octubre	2023-10-16T00:00:00	2024-11-06T06:00:00	5	Humedad	84
183789	7	Sololá	701	Sololá	2	El tablón	10	Octubre	2023-10-16T00:00:00	2024-11-06T06:00:00	6	Velocidad del viento	14.5
183790	7	Sololá	701	Sololá	2	El tablón	10	Octubre	2023-10-16T00:00:00	2024-11-06T06:00:00	7	Dirección del viento	14.48
183791	7	Sololá	701	Sololá	2	El tablón	10	Octubre	2023-10-16T00:00:00	2024-11-06T06:00:00	1	Precipitación	0
183792	7	Sololá	701	Sololá	2	El tablón	10	Octubre	2023-10-16T00:00:00	2024-11-06T06:00:00	8	Radiación solar	0
183793	7	Sololá	701	Sololá	2	El tablón	10	Octubre	2023-10-16T00:00:00	2024-11-06T07:00:00	2	Temperatura media	13.8
183794	7	Sololá	701	Sololá	2	El tablón	10	Octubre	2023-10-16T00:00:00	2024-11-06T07:00:00	4	Temperatura máxima	13.8
183795	7	Sololá	701	Sololá	2	El tablón	10	Octubre	2023-10-16T00:00:00	2024-11-06T07:00:00	3	Temperatura mínima	13
183796	7	Sololá	701	Sololá	2	El tablón	10	Octubre	2023-10-16T00:00:00	2024-11-06T07:00:00	5	Humedad	82
183797	7	Sololá	701	Sololá	2	El tablón	10	Octubre	2023-10-16T00:00:00	2024-11-06T07:00:00	6	Velocidad del viento	17.7
183798	7	Sololá	701	Sololá	2	El tablón	10	Octubre	2023-10-16T00:00:00	2024-11-06T07:00:00	7	Dirección del viento	17.7
183799	7	Sololá	701	Sololá	2	El tablón	10	Octubre	2023-10-16T00:00:00	2024-11-06T07:00:00	1	Precipitación	0
183800	7	Sololá	701	Sololá	2	El tablón	10	Octubre	2023-10-16T00:00:00	2024-11-06T07:00:00	8	Radiación solar	52
183801	7	Sololá	701	Sololá	2	El tablón	10	Octubre	2023-10-16T00:00:00	2024-11-06T08:00:00	2	Temperatura media	14.6
183802	7	Sololá	701	Sololá	2	El tablón	10	Octubre	2023-10-16T00:00:00	2024-11-06T08:00:00	4	Temperatura máxima	14.6
183803	7	Sololá	701	Sololá	2	El tablón	10	Octubre	2023-10-16T00:00:00	2024-11-06T08:00:00	3	Temperatura mínima	13.8
183804	7	Sololá	701	Sololá	2	El tablón	10	Octubre	2023-10-16T00:00:00	2024-11-06T08:00:00	5	Humedad	79
183805	7	Sololá	701	Sololá	2	El tablón	10	Octubre	2023-10-16T00:00:00	2024-11-06T08:00:00	6	Velocidad del viento	19.3
183806	7	Sololá	701	Sololá	2	El tablón	10	Octubre	2023-10-16T00:00:00	2024-11-06T08:00:00	7	Dirección del viento	19.31
183807	7	Sololá	701	Sololá	2	El tablón	10	Octubre	2023-10-16T00:00:00	2024-11-06T08:00:00	1	Precipitación	0
183808	7	Sololá	701	Sololá	2	El tablón	10	Octubre	2023-10-16T00:00:00	2024-11-06T08:00:00	8	Radiación solar	163
183809	7	Sololá	701	Sololá	2	El tablón	10	Octubre	2023-10-16T00:00:00	2024-11-06T09:00:00	2	Temperatura media	16.6
183810	7	Sololá	701	Sololá	2	El tablón	10	Octubre	2023-10-16T00:00:00	2024-11-06T09:00:00	4	Temperatura máxima	16.7
183811	7	Sololá	701	Sololá	2	El tablón	10	Octubre	2023-10-16T00:00:00	2024-11-06T09:00:00	3	Temperatura mínima	14.6
183812	7	Sololá	701	Sololá	2	El tablón	10	Octubre	2023-10-16T00:00:00	2024-11-06T09:00:00	5	Humedad	73
183813	7	Sololá	701	Sololá	2	El tablón	10	Octubre	2023-10-16T00:00:00	2024-11-06T09:00:00	6	Velocidad del viento	11.3
183814	7	Sololá	701	Sololá	2	El tablón	10	Octubre	2023-10-16T00:00:00	2024-11-06T09:00:00	7	Dirección del viento	11.27
183815	7	Sololá	701	Sololá	2	El tablón	10	Octubre	2023-10-16T00:00:00	2024-11-06T09:00:00	1	Precipitación	0
183816	7	Sololá	701	Sololá	2	El tablón	10	Octubre	2023-10-16T00:00:00	2024-11-06T09:00:00	8	Radiación solar	413
183817	7	Sololá	701	Sololá	2	El tablón	10	Octubre	2023-10-16T00:00:00	2024-11-06T10:00:00	2	Temperatura media	16.2
183818	7	Sololá	701	Sololá	2	El tablón	10	Octubre	2023-10-16T00:00:00	2024-11-06T10:00:00	4	Temperatura máxima	16.6
183819	7	Sololá	701	Sololá	2	El tablón	10	Octubre	2023-10-16T00:00:00	2024-11-06T10:00:00	3	Temperatura mínima	16
183820	7	Sololá	701	Sololá	2	El tablón	10	Octubre	2023-10-16T00:00:00	2024-11-06T10:00:00	5	Humedad	78
183821	7	Sololá	701	Sololá	2	El tablón	10	Octubre	2023-10-16T00:00:00	2024-11-06T10:00:00	6	Velocidad del viento	14.5
183822	7	Sololá	701	Sololá	2	El tablón	10	Octubre	2023-10-16T00:00:00	2024-11-06T10:00:00	7	Dirección del viento	14.48
183823	7	Sololá	701	Sololá	2	El tablón	10	Octubre	2023-10-16T00:00:00	2024-11-06T10:00:00	1	Precipitación	0
183824	7	Sololá	701	Sololá	2	El tablón	10	Octubre	2023-10-16T00:00:00	2024-11-06T10:00:00	8	Radiación solar	526
183825	7	Sololá	701	Sololá	2	El tablón	10	Octubre	2023-10-16T00:00:00	2024-11-06T11:00:00	2	Temperatura media	17.2
183826	7	Sololá	701	Sololá	2	El tablón	10	Octubre	2023-10-16T00:00:00	2024-11-06T11:00:00	4	Temperatura máxima	17.3
183827	7	Sololá	701	Sololá	2	El tablón	10	Octubre	2023-10-16T00:00:00	2024-11-06T11:00:00	3	Temperatura mínima	16.1
183828	7	Sololá	701	Sololá	2	El tablón	10	Octubre	2023-10-16T00:00:00	2024-11-06T11:00:00	5	Humedad	76
183829	7	Sololá	701	Sololá	2	El tablón	10	Octubre	2023-10-16T00:00:00	2024-11-06T11:00:00	6	Velocidad del viento	14.5
183830	7	Sololá	701	Sololá	2	El tablón	10	Octubre	2023-10-16T00:00:00	2024-11-06T11:00:00	7	Dirección del viento	14.48
183831	7	Sololá	701	Sololá	2	El tablón	10	Octubre	2023-10-16T00:00:00	2024-11-06T11:00:00	1	Precipitación	0
183832	7	Sololá	701	Sololá	2	El tablón	10	Octubre	2023-10-16T00:00:00	2024-11-06T11:00:00	8	Radiación solar	613
183833	7	Sololá	701	Sololá	2	El tablón	10	Octubre	2023-10-16T00:00:00	2024-11-06T12:00:00	2	Temperatura media	17.1
183834	7	Sololá	701	Sololá	2	El tablón	10	Octubre	2023-10-16T00:00:00	2024-11-06T12:00:00	4	Temperatura máxima	17.4
183835	7	Sololá	701	Sololá	2	El tablón	10	Octubre	2023-10-16T00:00:00	2024-11-06T12:00:00	3	Temperatura mínima	17.1
183836	7	Sololá	701	Sololá	2	El tablón	10	Octubre	2023-10-16T00:00:00	2024-11-06T12:00:00	5	Humedad	74
183837	7	Sololá	701	Sololá	2	El tablón	10	Octubre	2023-10-16T00:00:00	2024-11-06T12:00:00	6	Velocidad del viento	11.3
183838	7	Sololá	701	Sololá	2	El tablón	10	Octubre	2023-10-16T00:00:00	2024-11-06T12:00:00	7	Dirección del viento	11.27
183839	7	Sololá	701	Sololá	2	El tablón	10	Octubre	2023-10-16T00:00:00	2024-11-06T12:00:00	1	Precipitación	0
183840	7	Sololá	701	Sololá	2	El tablón	10	Octubre	2023-10-16T00:00:00	2024-11-06T12:00:00	8	Radiación solar	485
183841	7	Sololá	701	Sololá	2	El tablón	10	Octubre	2023-10-16T00:00:00	2024-11-06T13:00:00	2	Temperatura media	17.7
183842	7	Sololá	701	Sololá	2	El tablón	10	Octubre	2023-10-16T00:00:00	2024-11-06T13:00:00	4	Temperatura máxima	18.2
183843	7	Sololá	701	Sololá	2	El tablón	10	Octubre	2023-10-16T00:00:00	2024-11-06T13:00:00	3	Temperatura mínima	17
183844	7	Sololá	701	Sololá	2	El tablón	10	Octubre	2023-10-16T00:00:00	2024-11-06T13:00:00	5	Humedad	76
183845	7	Sololá	701	Sololá	2	El tablón	10	Octubre	2023-10-16T00:00:00	2024-11-06T13:00:00	6	Velocidad del viento	9.7
183846	7	Sololá	701	Sololá	2	El tablón	10	Octubre	2023-10-16T00:00:00	2024-11-06T13:00:00	7	Dirección del viento	9.66
183847	7	Sololá	701	Sololá	2	El tablón	10	Octubre	2023-10-16T00:00:00	2024-11-06T13:00:00	1	Precipitación	0
183848	7	Sololá	701	Sololá	2	El tablón	10	Octubre	2023-10-16T00:00:00	2024-11-06T13:00:00	8	Radiación solar	580
183849	7	Sololá	701	Sololá	2	El tablón	10	Octubre	2023-10-16T00:00:00	2024-11-06T14:00:00	2	Temperatura media	18.7
183850	7	Sololá	701	Sololá	2	El tablón	10	Octubre	2023-10-16T00:00:00	2024-11-06T14:00:00	4	Temperatura máxima	19.1
183851	7	Sololá	701	Sololá	2	El tablón	10	Octubre	2023-10-16T00:00:00	2024-11-06T14:00:00	3	Temperatura mínima	17.6
183852	7	Sololá	701	Sololá	2	El tablón	10	Octubre	2023-10-16T00:00:00	2024-11-06T14:00:00	5	Humedad	71
183853	7	Sololá	701	Sololá	2	El tablón	10	Octubre	2023-10-16T00:00:00	2024-11-06T14:00:00	6	Velocidad del viento	12.9
183854	7	Sololá	701	Sololá	2	El tablón	10	Octubre	2023-10-16T00:00:00	2024-11-06T14:00:00	7	Dirección del viento	12.87
183855	7	Sololá	701	Sololá	2	El tablón	10	Octubre	2023-10-16T00:00:00	2024-11-06T14:00:00	1	Precipitación	0
183856	7	Sololá	701	Sololá	2	El tablón	10	Octubre	2023-10-16T00:00:00	2024-11-06T14:00:00	8	Radiación solar	801
183857	7	Sololá	701	Sololá	2	El tablón	10	Octubre	2023-10-16T00:00:00	2024-11-06T15:00:00	2	Temperatura media	18
183858	7	Sololá	701	Sololá	2	El tablón	10	Octubre	2023-10-16T00:00:00	2024-11-06T15:00:00	4	Temperatura máxima	18.7
183859	7	Sololá	701	Sololá	2	El tablón	10	Octubre	2023-10-16T00:00:00	2024-11-06T15:00:00	3	Temperatura mínima	17.1
183860	7	Sololá	701	Sololá	2	El tablón	10	Octubre	2023-10-16T00:00:00	2024-11-06T15:00:00	5	Humedad	75
183861	7	Sololá	701	Sololá	2	El tablón	10	Octubre	2023-10-16T00:00:00	2024-11-06T15:00:00	6	Velocidad del viento	12.9
183862	7	Sololá	701	Sololá	2	El tablón	10	Octubre	2023-10-16T00:00:00	2024-11-06T15:00:00	7	Dirección del viento	12.87
183863	7	Sololá	701	Sololá	2	El tablón	10	Octubre	2023-10-16T00:00:00	2024-11-06T15:00:00	1	Precipitación	0
183864	7	Sololá	701	Sololá	2	El tablón	10	Octubre	2023-10-16T00:00:00	2024-11-06T15:00:00	8	Radiación solar	474
183865	7	Sololá	701	Sololá	2	El tablón	10	Octubre	2023-10-16T00:00:00	2024-11-06T16:00:00	2	Temperatura media	16.4
183866	7	Sololá	701	Sololá	2	El tablón	10	Octubre	2023-10-16T00:00:00	2024-11-06T16:00:00	4	Temperatura máxima	18.3
183867	7	Sololá	701	Sololá	2	El tablón	10	Octubre	2023-10-16T00:00:00	2024-11-06T16:00:00	3	Temperatura mínima	16.4
183868	7	Sololá	701	Sololá	2	El tablón	10	Octubre	2023-10-16T00:00:00	2024-11-06T16:00:00	5	Humedad	79
183869	7	Sololá	701	Sololá	2	El tablón	10	Octubre	2023-10-16T00:00:00	2024-11-06T16:00:00	6	Velocidad del viento	11.3
183870	7	Sololá	701	Sololá	2	El tablón	10	Octubre	2023-10-16T00:00:00	2024-11-06T16:00:00	7	Dirección del viento	11.27
183871	7	Sololá	701	Sololá	2	El tablón	10	Octubre	2023-10-16T00:00:00	2024-11-06T16:00:00	1	Precipitación	0
183872	7	Sololá	701	Sololá	2	El tablón	10	Octubre	2023-10-16T00:00:00	2024-11-06T16:00:00	8	Radiación solar	317
183873	7	Sololá	701	Sololá	2	El tablón	10	Octubre	2023-10-16T00:00:00	2024-11-06T17:00:00	2	Temperatura media	14.9
183874	7	Sololá	701	Sololá	2	El tablón	10	Octubre	2023-10-16T00:00:00	2024-11-06T17:00:00	4	Temperatura máxima	16.4
183875	7	Sololá	701	Sololá	2	El tablón	10	Octubre	2023-10-16T00:00:00	2024-11-06T17:00:00	3	Temperatura mínima	14.9
183876	7	Sololá	701	Sololá	2	El tablón	10	Octubre	2023-10-16T00:00:00	2024-11-06T17:00:00	5	Humedad	84
183877	7	Sololá	701	Sololá	2	El tablón	10	Octubre	2023-10-16T00:00:00	2024-11-06T17:00:00	6	Velocidad del viento	12.9
183878	7	Sololá	701	Sololá	2	El tablón	10	Octubre	2023-10-16T00:00:00	2024-11-06T17:00:00	7	Dirección del viento	12.87
183879	7	Sololá	701	Sololá	2	El tablón	10	Octubre	2023-10-16T00:00:00	2024-11-06T17:00:00	1	Precipitación	0
183880	7	Sololá	701	Sololá	2	El tablón	10	Octubre	2023-10-16T00:00:00	2024-11-06T17:00:00	8	Radiación solar	93
183881	7	Sololá	701	Sololá	2	El tablón	10	Octubre	2023-10-16T00:00:00	2024-11-06T18:00:00	2	Temperatura media	14.1
183882	7	Sololá	701	Sololá	2	El tablón	10	Octubre	2023-10-16T00:00:00	2024-11-06T18:00:00	4	Temperatura máxima	14.9
183883	7	Sololá	701	Sololá	2	El tablón	10	Octubre	2023-10-16T00:00:00	2024-11-06T18:00:00	3	Temperatura mínima	14.1
183884	7	Sololá	701	Sololá	2	El tablón	10	Octubre	2023-10-16T00:00:00	2024-11-06T18:00:00	5	Humedad	86
183885	7	Sololá	701	Sololá	2	El tablón	10	Octubre	2023-10-16T00:00:00	2024-11-06T18:00:00	6	Velocidad del viento	9.7
183886	7	Sololá	701	Sololá	2	El tablón	10	Octubre	2023-10-16T00:00:00	2024-11-06T18:00:00	7	Dirección del viento	9.66
183887	7	Sololá	701	Sololá	2	El tablón	10	Octubre	2023-10-16T00:00:00	2024-11-06T18:00:00	1	Precipitación	0
183888	7	Sololá	701	Sololá	2	El tablón	10	Octubre	2023-10-16T00:00:00	2024-11-06T18:00:00	8	Radiación solar	5
183889	7	Sololá	701	Sololá	2	El tablón	10	Octubre	2023-10-16T00:00:00	2024-11-06T19:00:00	2	Temperatura media	13.8
183890	7	Sololá	701	Sololá	2	El tablón	10	Octubre	2023-10-16T00:00:00	2024-11-06T19:00:00	4	Temperatura máxima	14.1
183891	7	Sololá	701	Sololá	2	El tablón	10	Octubre	2023-10-16T00:00:00	2024-11-06T19:00:00	3	Temperatura mínima	13.8
183892	7	Sololá	701	Sololá	2	El tablón	10	Octubre	2023-10-16T00:00:00	2024-11-06T19:00:00	5	Humedad	84
183893	7	Sololá	701	Sololá	2	El tablón	10	Octubre	2023-10-16T00:00:00	2024-11-06T19:00:00	6	Velocidad del viento	11.3
183894	7	Sololá	701	Sololá	2	El tablón	10	Octubre	2023-10-16T00:00:00	2024-11-06T19:00:00	7	Dirección del viento	11.27
183895	7	Sololá	701	Sololá	2	El tablón	10	Octubre	2023-10-16T00:00:00	2024-11-06T19:00:00	1	Precipitación	0
183896	7	Sololá	701	Sololá	2	El tablón	10	Octubre	2023-10-16T00:00:00	2024-11-06T19:00:00	8	Radiación solar	0
183897	7	Sololá	701	Sololá	2	El tablón	10	Octubre	2023-10-16T00:00:00	2024-11-06T20:00:00	2	Temperatura media	14.1
183898	7	Sololá	701	Sololá	2	El tablón	10	Octubre	2023-10-16T00:00:00	2024-11-06T20:00:00	4	Temperatura máxima	14.1
183899	7	Sololá	701	Sololá	2	El tablón	10	Octubre	2023-10-16T00:00:00	2024-11-06T20:00:00	3	Temperatura mínima	13.8
183900	7	Sololá	701	Sololá	2	El tablón	10	Octubre	2023-10-16T00:00:00	2024-11-06T20:00:00	5	Humedad	82
183901	7	Sololá	701	Sololá	2	El tablón	10	Octubre	2023-10-16T00:00:00	2024-11-06T20:00:00	6	Velocidad del viento	9.7
183902	7	Sololá	701	Sololá	2	El tablón	10	Octubre	2023-10-16T00:00:00	2024-11-06T20:00:00	7	Dirección del viento	9.66
183903	7	Sololá	701	Sololá	2	El tablón	10	Octubre	2023-10-16T00:00:00	2024-11-06T20:00:00	1	Precipitación	0
183904	7	Sololá	701	Sololá	2	El tablón	10	Octubre	2023-10-16T00:00:00	2024-11-06T20:00:00	8	Radiación solar	0
183905	7	Sololá	701	Sololá	2	El tablón	10	Octubre	2023-10-16T00:00:00	2024-11-06T21:00:00	2	Temperatura media	13.1
183906	7	Sololá	701	Sololá	2	El tablón	10	Octubre	2023-10-16T00:00:00	2024-11-06T21:00:00	4	Temperatura máxima	14.1
183907	7	Sololá	701	Sololá	2	El tablón	10	Octubre	2023-10-16T00:00:00	2024-11-06T21:00:00	3	Temperatura mínima	13.1
183908	7	Sololá	701	Sololá	2	El tablón	10	Octubre	2023-10-16T00:00:00	2024-11-06T21:00:00	5	Humedad	87
183909	7	Sololá	701	Sololá	2	El tablón	10	Octubre	2023-10-16T00:00:00	2024-11-06T21:00:00	6	Velocidad del viento	11.3
183910	7	Sololá	701	Sololá	2	El tablón	10	Octubre	2023-10-16T00:00:00	2024-11-06T21:00:00	7	Dirección del viento	11.27
183911	7	Sololá	701	Sololá	2	El tablón	10	Octubre	2023-10-16T00:00:00	2024-11-06T21:00:00	1	Precipitación	0
183912	7	Sololá	701	Sololá	2	El tablón	10	Octubre	2023-10-16T00:00:00	2024-11-06T21:00:00	8	Radiación solar	0
183913	7	Sololá	701	Sololá	2	El tablón	10	Octubre	2023-10-16T00:00:00	2024-11-06T22:00:00	2	Temperatura media	13.2
183914	7	Sololá	701	Sololá	2	El tablón	10	Octubre	2023-10-16T00:00:00	2024-11-06T22:00:00	4	Temperatura máxima	13.2
183915	7	Sololá	701	Sololá	2	El tablón	10	Octubre	2023-10-16T00:00:00	2024-11-06T22:00:00	3	Temperatura mínima	12.9
183916	7	Sololá	701	Sololá	2	El tablón	10	Octubre	2023-10-16T00:00:00	2024-11-06T22:00:00	5	Humedad	86
183917	7	Sololá	701	Sololá	2	El tablón	10	Octubre	2023-10-16T00:00:00	2024-11-06T22:00:00	6	Velocidad del viento	19.3
183918	7	Sololá	701	Sololá	2	El tablón	10	Octubre	2023-10-16T00:00:00	2024-11-06T22:00:00	7	Dirección del viento	19.31
183919	7	Sololá	701	Sololá	2	El tablón	10	Octubre	2023-10-16T00:00:00	2024-11-06T22:00:00	1	Precipitación	0
183920	7	Sololá	701	Sololá	2	El tablón	10	Octubre	2023-10-16T00:00:00	2024-11-06T22:00:00	8	Radiación solar	0
183921	7	Sololá	701	Sololá	2	El tablón	10	Octubre	2023-10-16T00:00:00	2024-11-06T23:00:00	2	Temperatura media	12.8
183922	7	Sololá	701	Sololá	2	El tablón	10	Octubre	2023-10-16T00:00:00	2024-11-06T23:00:00	4	Temperatura máxima	13.2
183923	7	Sololá	701	Sololá	2	El tablón	10	Octubre	2023-10-16T00:00:00	2024-11-06T23:00:00	3	Temperatura mínima	12.8
183924	7	Sololá	701	Sololá	2	El tablón	10	Octubre	2023-10-16T00:00:00	2024-11-06T23:00:00	5	Humedad	86
183925	7	Sololá	701	Sololá	2	El tablón	10	Octubre	2023-10-16T00:00:00	2024-11-06T23:00:00	6	Velocidad del viento	20.9
183926	7	Sololá	701	Sololá	2	El tablón	10	Octubre	2023-10-16T00:00:00	2024-11-06T23:00:00	7	Dirección del viento	20.92
183927	7	Sololá	701	Sololá	2	El tablón	10	Octubre	2023-10-16T00:00:00	2024-11-06T23:00:00	1	Precipitación	0
183928	7	Sololá	701	Sololá	2	El tablón	10	Octubre	2023-10-16T00:00:00	2024-11-06T23:00:00	8	Radiación solar	0
183929	7	Sololá	701	Sololá	2	El tablón	10	Octubre	2023-10-17T00:00:00	2024-11-06T00:00:00	2	Temperatura media	12.1
183930	7	Sololá	701	Sololá	2	El tablón	10	Octubre	2023-10-17T00:00:00	2024-11-06T00:00:00	4	Temperatura máxima	12.8
183931	7	Sololá	701	Sololá	2	El tablón	10	Octubre	2023-10-17T00:00:00	2024-11-06T00:00:00	3	Temperatura mínima	12.1
183932	7	Sololá	701	Sololá	2	El tablón	10	Octubre	2023-10-17T00:00:00	2024-11-06T00:00:00	5	Humedad	88
183933	7	Sololá	701	Sololá	2	El tablón	10	Octubre	2023-10-17T00:00:00	2024-11-06T00:00:00	6	Velocidad del viento	20.9
183934	7	Sololá	701	Sololá	2	El tablón	10	Octubre	2023-10-17T00:00:00	2024-11-06T00:00:00	7	Dirección del viento	20.92
183935	7	Sololá	701	Sololá	2	El tablón	10	Octubre	2023-10-17T00:00:00	2024-11-06T00:00:00	1	Precipitación	0
183936	7	Sololá	701	Sololá	2	El tablón	10	Octubre	2023-10-17T00:00:00	2024-11-06T00:00:00	8	Radiación solar	0
183937	7	Sololá	701	Sololá	2	El tablón	10	Octubre	2023-10-17T00:00:00	2024-11-06T01:00:00	2	Temperatura media	12.4
183938	7	Sololá	701	Sololá	2	El tablón	10	Octubre	2023-10-17T00:00:00	2024-11-06T01:00:00	4	Temperatura máxima	12.4
183939	7	Sololá	701	Sololá	2	El tablón	10	Octubre	2023-10-17T00:00:00	2024-11-06T01:00:00	3	Temperatura mínima	12.1
183940	7	Sololá	701	Sololá	2	El tablón	10	Octubre	2023-10-17T00:00:00	2024-11-06T01:00:00	5	Humedad	86
183941	7	Sololá	701	Sololá	2	El tablón	10	Octubre	2023-10-17T00:00:00	2024-11-06T01:00:00	6	Velocidad del viento	19.3
183942	7	Sololá	701	Sololá	2	El tablón	10	Octubre	2023-10-17T00:00:00	2024-11-06T01:00:00	7	Dirección del viento	19.31
183943	7	Sololá	701	Sololá	2	El tablón	10	Octubre	2023-10-17T00:00:00	2024-11-06T01:00:00	1	Precipitación	0
183944	7	Sololá	701	Sololá	2	El tablón	10	Octubre	2023-10-17T00:00:00	2024-11-06T01:00:00	8	Radiación solar	0
183945	7	Sololá	701	Sololá	2	El tablón	10	Octubre	2023-10-17T00:00:00	2024-11-06T02:00:00	2	Temperatura media	11.7
183946	7	Sololá	701	Sololá	2	El tablón	10	Octubre	2023-10-17T00:00:00	2024-11-06T02:00:00	4	Temperatura máxima	12.4
183947	7	Sololá	701	Sololá	2	El tablón	10	Octubre	2023-10-17T00:00:00	2024-11-06T02:00:00	3	Temperatura mínima	11.7
183948	7	Sololá	701	Sololá	2	El tablón	10	Octubre	2023-10-17T00:00:00	2024-11-06T02:00:00	5	Humedad	87
183949	7	Sololá	701	Sololá	2	El tablón	10	Octubre	2023-10-17T00:00:00	2024-11-06T02:00:00	6	Velocidad del viento	17.7
183950	7	Sololá	701	Sololá	2	El tablón	10	Octubre	2023-10-17T00:00:00	2024-11-06T02:00:00	7	Dirección del viento	17.7
183951	7	Sololá	701	Sololá	2	El tablón	10	Octubre	2023-10-17T00:00:00	2024-11-06T02:00:00	1	Precipitación	0
183952	7	Sololá	701	Sololá	2	El tablón	10	Octubre	2023-10-17T00:00:00	2024-11-06T02:00:00	8	Radiación solar	0
183953	7	Sololá	701	Sololá	2	El tablón	10	Octubre	2023-10-17T00:00:00	2024-11-06T03:00:00	2	Temperatura media	11.4
183954	7	Sololá	701	Sololá	2	El tablón	10	Octubre	2023-10-17T00:00:00	2024-11-06T03:00:00	4	Temperatura máxima	11.7
183955	7	Sololá	701	Sololá	2	El tablón	10	Octubre	2023-10-17T00:00:00	2024-11-06T03:00:00	3	Temperatura mínima	11.3
183956	7	Sololá	701	Sololá	2	El tablón	10	Octubre	2023-10-17T00:00:00	2024-11-06T03:00:00	5	Humedad	87
183957	7	Sololá	701	Sololá	2	El tablón	10	Octubre	2023-10-17T00:00:00	2024-11-06T03:00:00	6	Velocidad del viento	19.3
183958	7	Sololá	701	Sololá	2	El tablón	10	Octubre	2023-10-17T00:00:00	2024-11-06T03:00:00	7	Dirección del viento	19.31
183959	7	Sololá	701	Sololá	2	El tablón	10	Octubre	2023-10-17T00:00:00	2024-11-06T03:00:00	1	Precipitación	0
183960	7	Sololá	701	Sololá	2	El tablón	10	Octubre	2023-10-17T00:00:00	2024-11-06T03:00:00	8	Radiación solar	0
183961	7	Sololá	701	Sololá	2	El tablón	10	Octubre	2023-10-17T00:00:00	2024-11-06T04:00:00	2	Temperatura media	11.7
183962	7	Sololá	701	Sololá	2	El tablón	10	Octubre	2023-10-17T00:00:00	2024-11-06T04:00:00	4	Temperatura máxima	11.7
183963	7	Sololá	701	Sololá	2	El tablón	10	Octubre	2023-10-17T00:00:00	2024-11-06T04:00:00	3	Temperatura mínima	11.3
183964	7	Sololá	701	Sololá	2	El tablón	10	Octubre	2023-10-17T00:00:00	2024-11-06T04:00:00	5	Humedad	85
183965	7	Sololá	701	Sololá	2	El tablón	10	Octubre	2023-10-17T00:00:00	2024-11-06T04:00:00	6	Velocidad del viento	17.7
183966	7	Sololá	701	Sololá	2	El tablón	10	Octubre	2023-10-17T00:00:00	2024-11-06T04:00:00	7	Dirección del viento	17.7
183967	7	Sololá	701	Sololá	2	El tablón	10	Octubre	2023-10-17T00:00:00	2024-11-06T04:00:00	1	Precipitación	0
183968	7	Sololá	701	Sololá	2	El tablón	10	Octubre	2023-10-17T00:00:00	2024-11-06T04:00:00	8	Radiación solar	0
183969	7	Sololá	701	Sololá	2	El tablón	10	Octubre	2023-10-17T00:00:00	2024-11-06T05:00:00	2	Temperatura media	11.7
183970	7	Sololá	701	Sololá	2	El tablón	10	Octubre	2023-10-17T00:00:00	2024-11-06T05:00:00	4	Temperatura máxima	11.9
183971	7	Sololá	701	Sololá	2	El tablón	10	Octubre	2023-10-17T00:00:00	2024-11-06T05:00:00	3	Temperatura mínima	11.7
183972	7	Sololá	701	Sololá	2	El tablón	10	Octubre	2023-10-17T00:00:00	2024-11-06T05:00:00	5	Humedad	84
183973	7	Sololá	701	Sololá	2	El tablón	10	Octubre	2023-10-17T00:00:00	2024-11-06T05:00:00	6	Velocidad del viento	17.7
183974	7	Sololá	701	Sololá	2	El tablón	10	Octubre	2023-10-17T00:00:00	2024-11-06T05:00:00	7	Dirección del viento	17.7
183975	7	Sololá	701	Sololá	2	El tablón	10	Octubre	2023-10-17T00:00:00	2024-11-06T05:00:00	1	Precipitación	0
183976	7	Sololá	701	Sololá	2	El tablón	10	Octubre	2023-10-17T00:00:00	2024-11-06T05:00:00	8	Radiación solar	0
183977	7	Sololá	701	Sololá	2	El tablón	10	Octubre	2023-10-17T00:00:00	2024-11-06T06:00:00	2	Temperatura media	11.7
183978	7	Sololá	701	Sololá	2	El tablón	10	Octubre	2023-10-17T00:00:00	2024-11-06T06:00:00	4	Temperatura máxima	11.7
183979	7	Sololá	701	Sololá	2	El tablón	10	Octubre	2023-10-17T00:00:00	2024-11-06T06:00:00	3	Temperatura mínima	11.2
183980	7	Sololá	701	Sololá	2	El tablón	10	Octubre	2023-10-17T00:00:00	2024-11-06T06:00:00	5	Humedad	83
183981	7	Sololá	701	Sololá	2	El tablón	10	Octubre	2023-10-17T00:00:00	2024-11-06T06:00:00	6	Velocidad del viento	17.7
183982	7	Sololá	701	Sololá	2	El tablón	10	Octubre	2023-10-17T00:00:00	2024-11-06T06:00:00	7	Dirección del viento	17.7
183983	7	Sololá	701	Sololá	2	El tablón	10	Octubre	2023-10-17T00:00:00	2024-11-06T06:00:00	1	Precipitación	0
183984	7	Sololá	701	Sololá	2	El tablón	10	Octubre	2023-10-17T00:00:00	2024-11-06T06:00:00	8	Radiación solar	0
183985	7	Sololá	701	Sololá	2	El tablón	10	Octubre	2023-10-17T00:00:00	2024-11-06T07:00:00	2	Temperatura media	12.6
183986	7	Sololá	701	Sololá	2	El tablón	10	Octubre	2023-10-17T00:00:00	2024-11-06T07:00:00	4	Temperatura máxima	12.6
183987	7	Sololá	701	Sololá	2	El tablón	10	Octubre	2023-10-17T00:00:00	2024-11-06T07:00:00	3	Temperatura mínima	11.7
183988	7	Sololá	701	Sololá	2	El tablón	10	Octubre	2023-10-17T00:00:00	2024-11-06T07:00:00	5	Humedad	80
183989	7	Sololá	701	Sololá	2	El tablón	10	Octubre	2023-10-17T00:00:00	2024-11-06T07:00:00	6	Velocidad del viento	17.7
183990	7	Sololá	701	Sololá	2	El tablón	10	Octubre	2023-10-17T00:00:00	2024-11-06T07:00:00	7	Dirección del viento	17.7
183991	7	Sololá	701	Sololá	2	El tablón	10	Octubre	2023-10-17T00:00:00	2024-11-06T07:00:00	1	Precipitación	0
183992	7	Sololá	701	Sololá	2	El tablón	10	Octubre	2023-10-17T00:00:00	2024-11-06T07:00:00	8	Radiación solar	54
183993	7	Sololá	701	Sololá	2	El tablón	10	Octubre	2023-10-17T00:00:00	2024-11-06T08:00:00	2	Temperatura media	13.8
183994	7	Sololá	701	Sololá	2	El tablón	10	Octubre	2023-10-17T00:00:00	2024-11-06T08:00:00	4	Temperatura máxima	13.8
183995	7	Sololá	701	Sololá	2	El tablón	10	Octubre	2023-10-17T00:00:00	2024-11-06T08:00:00	3	Temperatura mínima	12.6
183996	7	Sololá	701	Sololá	2	El tablón	10	Octubre	2023-10-17T00:00:00	2024-11-06T08:00:00	5	Humedad	79
183997	7	Sololá	701	Sololá	2	El tablón	10	Octubre	2023-10-17T00:00:00	2024-11-06T08:00:00	6	Velocidad del viento	19.3
183998	7	Sololá	701	Sololá	2	El tablón	10	Octubre	2023-10-17T00:00:00	2024-11-06T08:00:00	7	Dirección del viento	19.31
183999	7	Sololá	701	Sololá	2	El tablón	10	Octubre	2023-10-17T00:00:00	2024-11-06T08:00:00	1	Precipitación	0
184000	7	Sololá	701	Sololá	2	El tablón	10	Octubre	2023-10-17T00:00:00	2024-11-06T08:00:00	8	Radiación solar	226
184001	7	Sololá	701	Sololá	2	El tablón	10	Octubre	2023-10-17T00:00:00	2024-11-06T09:00:00	2	Temperatura media	14.7
184002	7	Sololá	701	Sololá	2	El tablón	10	Octubre	2023-10-17T00:00:00	2024-11-06T09:00:00	4	Temperatura máxima	14.7
184003	7	Sololá	701	Sololá	2	El tablón	10	Octubre	2023-10-17T00:00:00	2024-11-06T09:00:00	3	Temperatura mínima	13.8
184004	7	Sololá	701	Sololá	2	El tablón	10	Octubre	2023-10-17T00:00:00	2024-11-06T09:00:00	5	Humedad	75
184005	7	Sololá	701	Sololá	2	El tablón	10	Octubre	2023-10-17T00:00:00	2024-11-06T09:00:00	6	Velocidad del viento	19.3
184006	7	Sololá	701	Sololá	2	El tablón	10	Octubre	2023-10-17T00:00:00	2024-11-06T09:00:00	7	Dirección del viento	19.31
184007	7	Sololá	701	Sololá	2	El tablón	10	Octubre	2023-10-17T00:00:00	2024-11-06T09:00:00	1	Precipitación	0
184008	7	Sololá	701	Sololá	2	El tablón	10	Octubre	2023-10-17T00:00:00	2024-11-06T09:00:00	8	Radiación solar	491
184009	7	Sololá	701	Sololá	2	El tablón	10	Octubre	2023-10-17T00:00:00	2024-11-06T10:00:00	2	Temperatura media	14.3
184010	7	Sololá	701	Sololá	2	El tablón	10	Octubre	2023-10-17T00:00:00	2024-11-06T10:00:00	4	Temperatura máxima	15
184011	7	Sololá	701	Sololá	2	El tablón	10	Octubre	2023-10-17T00:00:00	2024-11-06T10:00:00	3	Temperatura mínima	14.2
184012	7	Sololá	701	Sololá	2	El tablón	10	Octubre	2023-10-17T00:00:00	2024-11-06T10:00:00	5	Humedad	77
184013	7	Sololá	701	Sololá	2	El tablón	10	Octubre	2023-10-17T00:00:00	2024-11-06T10:00:00	6	Velocidad del viento	17.7
184014	7	Sololá	701	Sololá	2	El tablón	10	Octubre	2023-10-17T00:00:00	2024-11-06T10:00:00	7	Dirección del viento	17.7
184015	7	Sololá	701	Sololá	2	El tablón	10	Octubre	2023-10-17T00:00:00	2024-11-06T10:00:00	1	Precipitación	0
184016	7	Sololá	701	Sololá	2	El tablón	10	Octubre	2023-10-17T00:00:00	2024-11-06T10:00:00	8	Radiación solar	421
184017	7	Sololá	701	Sololá	2	El tablón	10	Octubre	2023-10-17T00:00:00	2024-11-06T11:00:00	2	Temperatura media	14.4
184018	7	Sololá	701	Sololá	2	El tablón	10	Octubre	2023-10-17T00:00:00	2024-11-06T11:00:00	4	Temperatura máxima	14.6
184019	7	Sololá	701	Sololá	2	El tablón	10	Octubre	2023-10-17T00:00:00	2024-11-06T11:00:00	3	Temperatura mínima	14.1
184020	7	Sololá	701	Sololá	2	El tablón	10	Octubre	2023-10-17T00:00:00	2024-11-06T11:00:00	5	Humedad	79
184021	7	Sololá	701	Sololá	2	El tablón	10	Octubre	2023-10-17T00:00:00	2024-11-06T11:00:00	6	Velocidad del viento	14.5
184022	7	Sololá	701	Sololá	2	El tablón	10	Octubre	2023-10-17T00:00:00	2024-11-06T11:00:00	7	Dirección del viento	14.48
184023	7	Sololá	701	Sololá	2	El tablón	10	Octubre	2023-10-17T00:00:00	2024-11-06T11:00:00	1	Precipitación	0
184024	7	Sololá	701	Sololá	2	El tablón	10	Octubre	2023-10-17T00:00:00	2024-11-06T11:00:00	8	Radiación solar	303
184025	7	Sololá	701	Sololá	2	El tablón	10	Octubre	2023-10-17T00:00:00	2024-11-06T12:00:00	2	Temperatura media	14.8
184026	7	Sololá	701	Sololá	2	El tablón	10	Octubre	2023-10-17T00:00:00	2024-11-06T12:00:00	4	Temperatura máxima	15
184027	7	Sololá	701	Sololá	2	El tablón	10	Octubre	2023-10-17T00:00:00	2024-11-06T12:00:00	3	Temperatura mínima	14.4
184028	7	Sololá	701	Sololá	2	El tablón	10	Octubre	2023-10-17T00:00:00	2024-11-06T12:00:00	5	Humedad	78
184029	7	Sololá	701	Sololá	2	El tablón	10	Octubre	2023-10-17T00:00:00	2024-11-06T12:00:00	6	Velocidad del viento	12.9
184030	7	Sololá	701	Sololá	2	El tablón	10	Octubre	2023-10-17T00:00:00	2024-11-06T12:00:00	7	Dirección del viento	12.87
184031	7	Sololá	701	Sololá	2	El tablón	10	Octubre	2023-10-17T00:00:00	2024-11-06T12:00:00	1	Precipitación	0
184032	7	Sololá	701	Sololá	2	El tablón	10	Octubre	2023-10-17T00:00:00	2024-11-06T12:00:00	8	Radiación solar	384
184033	7	Sololá	701	Sololá	2	El tablón	10	Octubre	2023-10-17T00:00:00	2024-11-06T13:00:00	2	Temperatura media	15.6
184034	7	Sololá	701	Sololá	2	El tablón	10	Octubre	2023-10-17T00:00:00	2024-11-06T13:00:00	4	Temperatura máxima	15.6
184035	7	Sololá	701	Sololá	2	El tablón	10	Octubre	2023-10-17T00:00:00	2024-11-06T13:00:00	3	Temperatura mínima	14.8
184036	7	Sololá	701	Sololá	2	El tablón	10	Octubre	2023-10-17T00:00:00	2024-11-06T13:00:00	5	Humedad	77
184037	7	Sololá	701	Sololá	2	El tablón	10	Octubre	2023-10-17T00:00:00	2024-11-06T13:00:00	6	Velocidad del viento	11.3
184038	7	Sololá	701	Sololá	2	El tablón	10	Octubre	2023-10-17T00:00:00	2024-11-06T13:00:00	7	Dirección del viento	11.27
184039	7	Sololá	701	Sololá	2	El tablón	10	Octubre	2023-10-17T00:00:00	2024-11-06T13:00:00	1	Precipitación	0
184040	7	Sololá	701	Sololá	2	El tablón	10	Octubre	2023-10-17T00:00:00	2024-11-06T13:00:00	8	Radiación solar	313
184041	7	Sololá	701	Sololá	2	El tablón	10	Octubre	2023-10-17T00:00:00	2024-11-06T14:00:00	2	Temperatura media	15.9
184042	7	Sololá	701	Sololá	2	El tablón	10	Octubre	2023-10-17T00:00:00	2024-11-06T14:00:00	4	Temperatura máxima	16
184043	7	Sololá	701	Sololá	2	El tablón	10	Octubre	2023-10-17T00:00:00	2024-11-06T14:00:00	3	Temperatura mínima	15.3
184044	7	Sololá	701	Sololá	2	El tablón	10	Octubre	2023-10-17T00:00:00	2024-11-06T14:00:00	5	Humedad	74
184045	7	Sololá	701	Sololá	2	El tablón	10	Octubre	2023-10-17T00:00:00	2024-11-06T14:00:00	6	Velocidad del viento	11.3
184046	7	Sololá	701	Sololá	2	El tablón	10	Octubre	2023-10-17T00:00:00	2024-11-06T14:00:00	7	Dirección del viento	11.27
184047	7	Sololá	701	Sololá	2	El tablón	10	Octubre	2023-10-17T00:00:00	2024-11-06T14:00:00	1	Precipitación	0
184048	7	Sololá	701	Sololá	2	El tablón	10	Octubre	2023-10-17T00:00:00	2024-11-06T14:00:00	8	Radiación solar	353
184049	7	Sololá	701	Sololá	2	El tablón	10	Octubre	2023-10-17T00:00:00	2024-11-06T15:00:00	2	Temperatura media	15
184050	7	Sololá	701	Sololá	2	El tablón	10	Octubre	2023-10-17T00:00:00	2024-11-06T15:00:00	4	Temperatura máxima	15.9
184051	7	Sololá	701	Sololá	2	El tablón	10	Octubre	2023-10-17T00:00:00	2024-11-06T15:00:00	3	Temperatura mínima	15
184052	7	Sololá	701	Sololá	2	El tablón	10	Octubre	2023-10-17T00:00:00	2024-11-06T15:00:00	5	Humedad	78
184053	7	Sololá	701	Sololá	2	El tablón	10	Octubre	2023-10-17T00:00:00	2024-11-06T15:00:00	6	Velocidad del viento	12.9
184054	7	Sololá	701	Sololá	2	El tablón	10	Octubre	2023-10-17T00:00:00	2024-11-06T15:00:00	7	Dirección del viento	12.87
184055	7	Sololá	701	Sololá	2	El tablón	10	Octubre	2023-10-17T00:00:00	2024-11-06T15:00:00	1	Precipitación	0
184056	7	Sololá	701	Sololá	2	El tablón	10	Octubre	2023-10-17T00:00:00	2024-11-06T15:00:00	8	Radiación solar	297
184057	7	Sololá	701	Sololá	2	El tablón	10	Octubre	2023-10-17T00:00:00	2024-11-06T16:00:00	2	Temperatura media	14.9
184058	7	Sololá	701	Sololá	2	El tablón	10	Octubre	2023-10-17T00:00:00	2024-11-06T16:00:00	4	Temperatura máxima	16
184059	7	Sololá	701	Sololá	2	El tablón	10	Octubre	2023-10-17T00:00:00	2024-11-06T16:00:00	3	Temperatura mínima	14.9
184060	7	Sololá	701	Sololá	2	El tablón	10	Octubre	2023-10-17T00:00:00	2024-11-06T16:00:00	5	Humedad	80
184061	7	Sololá	701	Sololá	2	El tablón	10	Octubre	2023-10-17T00:00:00	2024-11-06T16:00:00	6	Velocidad del viento	11.3
184062	7	Sololá	701	Sololá	2	El tablón	10	Octubre	2023-10-17T00:00:00	2024-11-06T16:00:00	7	Dirección del viento	11.27
184063	7	Sololá	701	Sololá	2	El tablón	10	Octubre	2023-10-17T00:00:00	2024-11-06T16:00:00	1	Precipitación	0
184064	7	Sololá	701	Sololá	2	El tablón	10	Octubre	2023-10-17T00:00:00	2024-11-06T16:00:00	8	Radiación solar	285
184065	7	Sololá	701	Sololá	2	El tablón	10	Octubre	2023-10-17T00:00:00	2024-11-06T17:00:00	2	Temperatura media	14.2
184066	7	Sololá	701	Sololá	2	El tablón	10	Octubre	2023-10-17T00:00:00	2024-11-06T17:00:00	4	Temperatura máxima	15.4
184067	7	Sololá	701	Sololá	2	El tablón	10	Octubre	2023-10-17T00:00:00	2024-11-06T17:00:00	3	Temperatura mínima	14.2
184068	7	Sololá	701	Sololá	2	El tablón	10	Octubre	2023-10-17T00:00:00	2024-11-06T17:00:00	5	Humedad	84
184069	7	Sololá	701	Sololá	2	El tablón	10	Octubre	2023-10-17T00:00:00	2024-11-06T17:00:00	6	Velocidad del viento	11.3
184070	7	Sololá	701	Sololá	2	El tablón	10	Octubre	2023-10-17T00:00:00	2024-11-06T17:00:00	7	Dirección del viento	11.27
184071	7	Sololá	701	Sololá	2	El tablón	10	Octubre	2023-10-17T00:00:00	2024-11-06T17:00:00	1	Precipitación	0
184072	7	Sololá	701	Sololá	2	El tablón	10	Octubre	2023-10-17T00:00:00	2024-11-06T17:00:00	8	Radiación solar	162
184073	7	Sololá	701	Sololá	2	El tablón	10	Octubre	2023-10-17T00:00:00	2024-11-06T18:00:00	2	Temperatura media	13.2
184074	7	Sololá	701	Sololá	2	El tablón	10	Octubre	2023-10-17T00:00:00	2024-11-06T18:00:00	4	Temperatura máxima	14.2
184075	7	Sololá	701	Sololá	2	El tablón	10	Octubre	2023-10-17T00:00:00	2024-11-06T18:00:00	3	Temperatura mínima	13.2
184076	7	Sololá	701	Sololá	2	El tablón	10	Octubre	2023-10-17T00:00:00	2024-11-06T18:00:00	5	Humedad	87
184077	7	Sololá	701	Sololá	2	El tablón	10	Octubre	2023-10-17T00:00:00	2024-11-06T18:00:00	6	Velocidad del viento	11.3
184078	7	Sololá	701	Sololá	2	El tablón	10	Octubre	2023-10-17T00:00:00	2024-11-06T18:00:00	7	Dirección del viento	11.27
184079	7	Sololá	701	Sololá	2	El tablón	10	Octubre	2023-10-17T00:00:00	2024-11-06T18:00:00	1	Precipitación	0
184080	7	Sololá	701	Sololá	2	El tablón	10	Octubre	2023-10-17T00:00:00	2024-11-06T18:00:00	8	Radiación solar	25
184081	7	Sololá	701	Sololá	2	El tablón	10	Octubre	2023-10-17T00:00:00	2024-11-06T19:00:00	2	Temperatura media	12.8
184082	7	Sololá	701	Sololá	2	El tablón	10	Octubre	2023-10-17T00:00:00	2024-11-06T19:00:00	4	Temperatura máxima	13.2
184083	7	Sololá	701	Sololá	2	El tablón	10	Octubre	2023-10-17T00:00:00	2024-11-06T19:00:00	3	Temperatura mínima	12.7
184084	7	Sololá	701	Sololá	2	El tablón	10	Octubre	2023-10-17T00:00:00	2024-11-06T19:00:00	5	Humedad	86
184085	7	Sololá	701	Sololá	2	El tablón	10	Octubre	2023-10-17T00:00:00	2024-11-06T19:00:00	6	Velocidad del viento	4.8
184086	7	Sololá	701	Sololá	2	El tablón	10	Octubre	2023-10-17T00:00:00	2024-11-06T19:00:00	7	Dirección del viento	4.83
184087	7	Sololá	701	Sololá	2	El tablón	10	Octubre	2023-10-17T00:00:00	2024-11-06T19:00:00	1	Precipitación	0
184088	7	Sololá	701	Sololá	2	El tablón	10	Octubre	2023-10-17T00:00:00	2024-11-06T19:00:00	8	Radiación solar	0
184089	7	Sololá	701	Sololá	2	El tablón	10	Octubre	2023-10-17T00:00:00	2024-11-06T20:00:00	2	Temperatura media	12.5
184090	7	Sololá	701	Sololá	2	El tablón	10	Octubre	2023-10-17T00:00:00	2024-11-06T20:00:00	4	Temperatura máxima	13
184091	7	Sololá	701	Sololá	2	El tablón	10	Octubre	2023-10-17T00:00:00	2024-11-06T20:00:00	3	Temperatura mínima	12.4
184092	7	Sololá	701	Sololá	2	El tablón	10	Octubre	2023-10-17T00:00:00	2024-11-06T20:00:00	5	Humedad	87
184093	7	Sololá	701	Sololá	2	El tablón	10	Octubre	2023-10-17T00:00:00	2024-11-06T20:00:00	6	Velocidad del viento	8
184094	7	Sololá	701	Sololá	2	El tablón	10	Octubre	2023-10-17T00:00:00	2024-11-06T20:00:00	7	Dirección del viento	8.05
184095	7	Sololá	701	Sololá	2	El tablón	10	Octubre	2023-10-17T00:00:00	2024-11-06T20:00:00	1	Precipitación	0
184096	7	Sololá	701	Sololá	2	El tablón	10	Octubre	2023-10-17T00:00:00	2024-11-06T20:00:00	8	Radiación solar	0
184097	7	Sololá	701	Sololá	2	El tablón	10	Octubre	2023-10-17T00:00:00	2024-11-06T21:00:00	2	Temperatura media	12.7
184098	7	Sololá	701	Sololá	2	El tablón	10	Octubre	2023-10-17T00:00:00	2024-11-06T21:00:00	4	Temperatura máxima	12.9
184099	7	Sololá	701	Sololá	2	El tablón	10	Octubre	2023-10-17T00:00:00	2024-11-06T21:00:00	3	Temperatura mínima	12.5
184100	7	Sololá	701	Sololá	2	El tablón	10	Octubre	2023-10-17T00:00:00	2024-11-06T21:00:00	5	Humedad	86
184101	7	Sololá	701	Sololá	2	El tablón	10	Octubre	2023-10-17T00:00:00	2024-11-06T21:00:00	6	Velocidad del viento	9.7
184102	7	Sololá	701	Sololá	2	El tablón	10	Octubre	2023-10-17T00:00:00	2024-11-06T21:00:00	7	Dirección del viento	9.66
184103	7	Sololá	701	Sololá	2	El tablón	10	Octubre	2023-10-17T00:00:00	2024-11-06T21:00:00	1	Precipitación	0
184104	7	Sololá	701	Sololá	2	El tablón	10	Octubre	2023-10-17T00:00:00	2024-11-06T21:00:00	8	Radiación solar	0
184105	7	Sololá	701	Sololá	2	El tablón	10	Octubre	2023-10-17T00:00:00	2024-11-06T22:00:00	2	Temperatura media	11.6
184106	7	Sololá	701	Sololá	2	El tablón	10	Octubre	2023-10-17T00:00:00	2024-11-06T22:00:00	4	Temperatura máxima	12.7
184107	7	Sololá	701	Sololá	2	El tablón	10	Octubre	2023-10-17T00:00:00	2024-11-06T22:00:00	3	Temperatura mínima	11.6
184108	7	Sololá	701	Sololá	2	El tablón	10	Octubre	2023-10-17T00:00:00	2024-11-06T22:00:00	5	Humedad	89
184109	7	Sololá	701	Sololá	2	El tablón	10	Octubre	2023-10-17T00:00:00	2024-11-06T22:00:00	6	Velocidad del viento	8
184110	7	Sololá	701	Sololá	2	El tablón	10	Octubre	2023-10-17T00:00:00	2024-11-06T22:00:00	7	Dirección del viento	8.05
184111	7	Sololá	701	Sololá	2	El tablón	10	Octubre	2023-10-17T00:00:00	2024-11-06T22:00:00	1	Precipitación	0
184112	7	Sololá	701	Sololá	2	El tablón	10	Octubre	2023-10-17T00:00:00	2024-11-06T22:00:00	8	Radiación solar	0
184113	7	Sololá	701	Sololá	2	El tablón	10	Octubre	2023-10-17T00:00:00	2024-11-06T23:00:00	2	Temperatura media	11.4
184114	7	Sololá	701	Sololá	2	El tablón	10	Octubre	2023-10-17T00:00:00	2024-11-06T23:00:00	4	Temperatura máxima	11.8
184115	7	Sololá	701	Sololá	2	El tablón	10	Octubre	2023-10-17T00:00:00	2024-11-06T23:00:00	3	Temperatura mínima	11.3
184116	7	Sololá	701	Sololá	2	El tablón	10	Octubre	2023-10-17T00:00:00	2024-11-06T23:00:00	5	Humedad	89
184117	7	Sololá	701	Sololá	2	El tablón	10	Octubre	2023-10-17T00:00:00	2024-11-06T23:00:00	6	Velocidad del viento	9.7
184118	7	Sololá	701	Sololá	2	El tablón	10	Octubre	2023-10-17T00:00:00	2024-11-06T23:00:00	7	Dirección del viento	9.66
184119	7	Sololá	701	Sololá	2	El tablón	10	Octubre	2023-10-17T00:00:00	2024-11-06T23:00:00	1	Precipitación	0
184120	7	Sololá	701	Sololá	2	El tablón	10	Octubre	2023-10-17T00:00:00	2024-11-06T23:00:00	8	Radiación solar	0
184121	7	Sololá	701	Sololá	2	El tablón	10	Octubre	2023-10-18T00:00:00	2024-11-06T00:00:00	2	Temperatura media	11.1
184122	7	Sololá	701	Sololá	2	El tablón	10	Octubre	2023-10-18T00:00:00	2024-11-06T00:00:00	4	Temperatura máxima	11.4
184123	7	Sololá	701	Sololá	2	El tablón	10	Octubre	2023-10-18T00:00:00	2024-11-06T00:00:00	3	Temperatura mínima	11.1
184124	7	Sololá	701	Sololá	2	El tablón	10	Octubre	2023-10-18T00:00:00	2024-11-06T00:00:00	5	Humedad	89
184125	7	Sololá	701	Sololá	2	El tablón	10	Octubre	2023-10-18T00:00:00	2024-11-06T00:00:00	6	Velocidad del viento	9.7
184126	7	Sololá	701	Sololá	2	El tablón	10	Octubre	2023-10-18T00:00:00	2024-11-06T00:00:00	7	Dirección del viento	9.66
184127	7	Sololá	701	Sololá	2	El tablón	10	Octubre	2023-10-18T00:00:00	2024-11-06T00:00:00	1	Precipitación	0
184128	7	Sololá	701	Sololá	2	El tablón	10	Octubre	2023-10-18T00:00:00	2024-11-06T00:00:00	8	Radiación solar	0
184129	7	Sololá	701	Sololá	2	El tablón	10	Octubre	2023-10-18T00:00:00	2024-11-06T01:00:00	2	Temperatura media	12.4
184130	7	Sololá	701	Sololá	2	El tablón	10	Octubre	2023-10-18T00:00:00	2024-11-06T01:00:00	4	Temperatura máxima	12.7
184131	7	Sololá	701	Sololá	2	El tablón	10	Octubre	2023-10-18T00:00:00	2024-11-06T01:00:00	3	Temperatura mínima	11.1
184132	7	Sololá	701	Sololá	2	El tablón	10	Octubre	2023-10-18T00:00:00	2024-11-06T01:00:00	5	Humedad	83
184133	7	Sololá	701	Sololá	2	El tablón	10	Octubre	2023-10-18T00:00:00	2024-11-06T01:00:00	6	Velocidad del viento	8
184134	7	Sololá	701	Sololá	2	El tablón	10	Octubre	2023-10-18T00:00:00	2024-11-06T01:00:00	7	Dirección del viento	8.05
184135	7	Sololá	701	Sololá	2	El tablón	10	Octubre	2023-10-18T00:00:00	2024-11-06T01:00:00	1	Precipitación	0
184136	7	Sololá	701	Sololá	2	El tablón	10	Octubre	2023-10-18T00:00:00	2024-11-06T01:00:00	8	Radiación solar	0
184137	7	Sololá	701	Sololá	2	El tablón	10	Octubre	2023-10-18T00:00:00	2024-11-06T02:00:00	2	Temperatura media	11.2
184138	7	Sololá	701	Sololá	2	El tablón	10	Octubre	2023-10-18T00:00:00	2024-11-06T02:00:00	4	Temperatura máxima	12.4
184139	7	Sololá	701	Sololá	2	El tablón	10	Octubre	2023-10-18T00:00:00	2024-11-06T02:00:00	3	Temperatura mínima	11.2
184140	7	Sololá	701	Sololá	2	El tablón	10	Octubre	2023-10-18T00:00:00	2024-11-06T02:00:00	5	Humedad	88
184141	7	Sololá	701	Sololá	2	El tablón	10	Octubre	2023-10-18T00:00:00	2024-11-06T02:00:00	6	Velocidad del viento	9.7
184142	7	Sololá	701	Sololá	2	El tablón	10	Octubre	2023-10-18T00:00:00	2024-11-06T02:00:00	7	Dirección del viento	9.66
184143	7	Sololá	701	Sololá	2	El tablón	10	Octubre	2023-10-18T00:00:00	2024-11-06T02:00:00	1	Precipitación	0
184144	7	Sololá	701	Sololá	2	El tablón	10	Octubre	2023-10-18T00:00:00	2024-11-06T02:00:00	8	Radiación solar	0
184145	7	Sololá	701	Sololá	2	El tablón	10	Octubre	2023-10-18T00:00:00	2024-11-06T03:00:00	2	Temperatura media	10.9
184146	7	Sololá	701	Sololá	2	El tablón	10	Octubre	2023-10-18T00:00:00	2024-11-06T03:00:00	4	Temperatura máxima	11.3
184147	7	Sololá	701	Sololá	2	El tablón	10	Octubre	2023-10-18T00:00:00	2024-11-06T03:00:00	3	Temperatura mínima	10.9
184148	7	Sololá	701	Sololá	2	El tablón	10	Octubre	2023-10-18T00:00:00	2024-11-06T03:00:00	5	Humedad	88
184149	7	Sololá	701	Sololá	2	El tablón	10	Octubre	2023-10-18T00:00:00	2024-11-06T03:00:00	6	Velocidad del viento	6.4
184150	7	Sololá	701	Sololá	2	El tablón	10	Octubre	2023-10-18T00:00:00	2024-11-06T03:00:00	7	Dirección del viento	6.44
184151	7	Sololá	701	Sololá	2	El tablón	10	Octubre	2023-10-18T00:00:00	2024-11-06T03:00:00	1	Precipitación	0
184152	7	Sololá	701	Sololá	2	El tablón	10	Octubre	2023-10-18T00:00:00	2024-11-06T03:00:00	8	Radiación solar	0
184153	7	Sololá	701	Sololá	2	El tablón	10	Octubre	2023-10-18T00:00:00	2024-11-06T04:00:00	2	Temperatura media	11.3
184154	7	Sololá	701	Sololá	2	El tablón	10	Octubre	2023-10-18T00:00:00	2024-11-06T04:00:00	4	Temperatura máxima	11.6
184155	7	Sololá	701	Sololá	2	El tablón	10	Octubre	2023-10-18T00:00:00	2024-11-06T04:00:00	3	Temperatura mínima	10.9
184156	7	Sololá	701	Sololá	2	El tablón	10	Octubre	2023-10-18T00:00:00	2024-11-06T04:00:00	5	Humedad	86
184157	7	Sololá	701	Sololá	2	El tablón	10	Octubre	2023-10-18T00:00:00	2024-11-06T04:00:00	6	Velocidad del viento	6.4
184158	7	Sololá	701	Sololá	2	El tablón	10	Octubre	2023-10-18T00:00:00	2024-11-06T04:00:00	7	Dirección del viento	6.44
184159	7	Sololá	701	Sololá	2	El tablón	10	Octubre	2023-10-18T00:00:00	2024-11-06T04:00:00	1	Precipitación	0
184160	7	Sololá	701	Sololá	2	El tablón	10	Octubre	2023-10-18T00:00:00	2024-11-06T04:00:00	8	Radiación solar	0
184161	7	Sololá	701	Sololá	2	El tablón	10	Octubre	2023-10-18T00:00:00	2024-11-06T05:00:00	2	Temperatura media	11.7
184162	7	Sololá	701	Sololá	2	El tablón	10	Octubre	2023-10-18T00:00:00	2024-11-06T05:00:00	4	Temperatura máxima	11.7
184163	7	Sololá	701	Sololá	2	El tablón	10	Octubre	2023-10-18T00:00:00	2024-11-06T05:00:00	3	Temperatura mínima	11.3
184164	7	Sololá	701	Sololá	2	El tablón	10	Octubre	2023-10-18T00:00:00	2024-11-06T05:00:00	5	Humedad	84
184165	7	Sololá	701	Sololá	2	El tablón	10	Octubre	2023-10-18T00:00:00	2024-11-06T05:00:00	6	Velocidad del viento	4.8
184166	7	Sololá	701	Sololá	2	El tablón	10	Octubre	2023-10-18T00:00:00	2024-11-06T05:00:00	7	Dirección del viento	4.83
184167	7	Sololá	701	Sololá	2	El tablón	10	Octubre	2023-10-18T00:00:00	2024-11-06T05:00:00	1	Precipitación	0
184168	7	Sololá	701	Sololá	2	El tablón	10	Octubre	2023-10-18T00:00:00	2024-11-06T05:00:00	8	Radiación solar	0
184169	7	Sololá	701	Sololá	2	El tablón	10	Octubre	2023-10-18T00:00:00	2024-11-06T06:00:00	2	Temperatura media	10.4
184170	7	Sololá	701	Sololá	2	El tablón	10	Octubre	2023-10-18T00:00:00	2024-11-06T06:00:00	4	Temperatura máxima	11.7
184171	7	Sololá	701	Sololá	2	El tablón	10	Octubre	2023-10-18T00:00:00	2024-11-06T06:00:00	3	Temperatura mínima	10.4
184172	7	Sololá	701	Sololá	2	El tablón	10	Octubre	2023-10-18T00:00:00	2024-11-06T06:00:00	5	Humedad	88
184173	7	Sololá	701	Sololá	2	El tablón	10	Octubre	2023-10-18T00:00:00	2024-11-06T06:00:00	6	Velocidad del viento	6.4
184174	7	Sololá	701	Sololá	2	El tablón	10	Octubre	2023-10-18T00:00:00	2024-11-06T06:00:00	7	Dirección del viento	6.44
184175	7	Sololá	701	Sololá	2	El tablón	10	Octubre	2023-10-18T00:00:00	2024-11-06T06:00:00	1	Precipitación	0
184176	7	Sololá	701	Sololá	2	El tablón	10	Octubre	2023-10-18T00:00:00	2024-11-06T06:00:00	8	Radiación solar	0
184177	7	Sololá	701	Sololá	2	El tablón	10	Octubre	2023-10-18T00:00:00	2024-11-06T07:00:00	2	Temperatura media	13.9
184178	7	Sololá	701	Sololá	2	El tablón	10	Octubre	2023-10-18T00:00:00	2024-11-06T07:00:00	4	Temperatura máxima	13.9
184179	7	Sololá	701	Sololá	2	El tablón	10	Octubre	2023-10-18T00:00:00	2024-11-06T07:00:00	3	Temperatura mínima	10.4
184180	7	Sololá	701	Sololá	2	El tablón	10	Octubre	2023-10-18T00:00:00	2024-11-06T07:00:00	5	Humedad	78
184181	7	Sololá	701	Sololá	2	El tablón	10	Octubre	2023-10-18T00:00:00	2024-11-06T07:00:00	6	Velocidad del viento	4.8
184182	7	Sololá	701	Sololá	2	El tablón	10	Octubre	2023-10-18T00:00:00	2024-11-06T07:00:00	7	Dirección del viento	4.83
184183	7	Sololá	701	Sololá	2	El tablón	10	Octubre	2023-10-18T00:00:00	2024-11-06T07:00:00	1	Precipitación	0
184184	7	Sololá	701	Sololá	2	El tablón	10	Octubre	2023-10-18T00:00:00	2024-11-06T07:00:00	8	Radiación solar	56
184185	7	Sololá	701	Sololá	2	El tablón	10	Octubre	2023-10-18T00:00:00	2024-11-06T08:00:00	2	Temperatura media	15.9
184186	7	Sololá	701	Sololá	2	El tablón	10	Octubre	2023-10-18T00:00:00	2024-11-06T08:00:00	4	Temperatura máxima	15.9
184187	7	Sololá	701	Sololá	2	El tablón	10	Octubre	2023-10-18T00:00:00	2024-11-06T08:00:00	3	Temperatura mínima	13.9
184188	7	Sololá	701	Sololá	2	El tablón	10	Octubre	2023-10-18T00:00:00	2024-11-06T08:00:00	5	Humedad	72
184189	7	Sololá	701	Sololá	2	El tablón	10	Octubre	2023-10-18T00:00:00	2024-11-06T08:00:00	6	Velocidad del viento	4.8
184190	7	Sololá	701	Sololá	2	El tablón	10	Octubre	2023-10-18T00:00:00	2024-11-06T08:00:00	7	Dirección del viento	4.83
184191	7	Sololá	701	Sololá	2	El tablón	10	Octubre	2023-10-18T00:00:00	2024-11-06T08:00:00	1	Precipitación	0
184192	7	Sololá	701	Sololá	2	El tablón	10	Octubre	2023-10-18T00:00:00	2024-11-06T08:00:00	8	Radiación solar	218
184193	7	Sololá	701	Sololá	2	El tablón	10	Octubre	2023-10-18T00:00:00	2024-11-06T09:00:00	2	Temperatura media	17.4
184194	7	Sololá	701	Sololá	2	El tablón	10	Octubre	2023-10-18T00:00:00	2024-11-06T09:00:00	4	Temperatura máxima	17.4
184195	7	Sololá	701	Sololá	2	El tablón	10	Octubre	2023-10-18T00:00:00	2024-11-06T09:00:00	3	Temperatura mínima	15.9
184196	7	Sololá	701	Sololá	2	El tablón	10	Octubre	2023-10-18T00:00:00	2024-11-06T09:00:00	5	Humedad	70
184197	7	Sololá	701	Sololá	2	El tablón	10	Octubre	2023-10-18T00:00:00	2024-11-06T09:00:00	6	Velocidad del viento	6.4
184198	7	Sololá	701	Sololá	2	El tablón	10	Octubre	2023-10-18T00:00:00	2024-11-06T09:00:00	7	Dirección del viento	6.44
184199	7	Sololá	701	Sololá	2	El tablón	10	Octubre	2023-10-18T00:00:00	2024-11-06T09:00:00	1	Precipitación	0
184200	7	Sololá	701	Sololá	2	El tablón	10	Octubre	2023-10-18T00:00:00	2024-11-06T09:00:00	8	Radiación solar	495
184201	7	Sololá	701	Sololá	2	El tablón	10	Octubre	2023-10-18T00:00:00	2024-11-06T10:00:00	2	Temperatura media	18.5
184202	7	Sololá	701	Sololá	2	El tablón	10	Octubre	2023-10-18T00:00:00	2024-11-06T10:00:00	4	Temperatura máxima	18.7
184203	7	Sololá	701	Sololá	2	El tablón	10	Octubre	2023-10-18T00:00:00	2024-11-06T10:00:00	3	Temperatura mínima	17.3
184204	7	Sololá	701	Sololá	2	El tablón	10	Octubre	2023-10-18T00:00:00	2024-11-06T10:00:00	5	Humedad	69
184205	7	Sololá	701	Sololá	2	El tablón	10	Octubre	2023-10-18T00:00:00	2024-11-06T10:00:00	6	Velocidad del viento	6.4
184206	7	Sololá	701	Sololá	2	El tablón	10	Octubre	2023-10-18T00:00:00	2024-11-06T10:00:00	7	Dirección del viento	6.44
184207	7	Sololá	701	Sololá	2	El tablón	10	Octubre	2023-10-18T00:00:00	2024-11-06T10:00:00	1	Precipitación	0
184208	7	Sololá	701	Sololá	2	El tablón	10	Octubre	2023-10-18T00:00:00	2024-11-06T10:00:00	8	Radiación solar	776
184209	7	Sololá	701	Sololá	2	El tablón	10	Octubre	2023-10-18T00:00:00	2024-11-06T11:00:00	2	Temperatura media	16.2
184210	7	Sololá	701	Sololá	2	El tablón	10	Octubre	2023-10-18T00:00:00	2024-11-06T11:00:00	4	Temperatura máxima	18.9
184211	7	Sololá	701	Sololá	2	El tablón	10	Octubre	2023-10-18T00:00:00	2024-11-06T11:00:00	3	Temperatura mínima	16.2
184212	7	Sololá	701	Sololá	2	El tablón	10	Octubre	2023-10-18T00:00:00	2024-11-06T11:00:00	5	Humedad	76
184213	7	Sololá	701	Sololá	2	El tablón	10	Octubre	2023-10-18T00:00:00	2024-11-06T11:00:00	6	Velocidad del viento	8
184214	7	Sololá	701	Sololá	2	El tablón	10	Octubre	2023-10-18T00:00:00	2024-11-06T11:00:00	7	Dirección del viento	8.05
184215	7	Sololá	701	Sololá	2	El tablón	10	Octubre	2023-10-18T00:00:00	2024-11-06T11:00:00	1	Precipitación	0
184216	7	Sololá	701	Sololá	2	El tablón	10	Octubre	2023-10-18T00:00:00	2024-11-06T11:00:00	8	Radiación solar	370
184217	7	Sololá	701	Sololá	2	El tablón	10	Octubre	2023-10-18T00:00:00	2024-11-06T12:00:00	2	Temperatura media	17.9
184218	7	Sololá	701	Sololá	2	El tablón	10	Octubre	2023-10-18T00:00:00	2024-11-06T12:00:00	4	Temperatura máxima	18.2
184219	7	Sololá	701	Sololá	2	El tablón	10	Octubre	2023-10-18T00:00:00	2024-11-06T12:00:00	3	Temperatura mínima	15.9
184220	7	Sololá	701	Sololá	2	El tablón	10	Octubre	2023-10-18T00:00:00	2024-11-06T12:00:00	5	Humedad	70
184221	7	Sololá	701	Sololá	2	El tablón	10	Octubre	2023-10-18T00:00:00	2024-11-06T12:00:00	6	Velocidad del viento	6.4
184222	7	Sololá	701	Sololá	2	El tablón	10	Octubre	2023-10-18T00:00:00	2024-11-06T12:00:00	7	Dirección del viento	6.44
184223	7	Sololá	701	Sololá	2	El tablón	10	Octubre	2023-10-18T00:00:00	2024-11-06T12:00:00	1	Precipitación	0
184224	7	Sololá	701	Sololá	2	El tablón	10	Octubre	2023-10-18T00:00:00	2024-11-06T12:00:00	8	Radiación solar	417
184225	7	Sololá	701	Sololá	2	El tablón	10	Octubre	2023-10-18T00:00:00	2024-11-06T13:00:00	2	Temperatura media	17.7
184226	7	Sololá	701	Sololá	2	El tablón	10	Octubre	2023-10-18T00:00:00	2024-11-06T13:00:00	4	Temperatura máxima	18.1
184227	7	Sololá	701	Sololá	2	El tablón	10	Octubre	2023-10-18T00:00:00	2024-11-06T13:00:00	3	Temperatura mínima	17.5
184228	7	Sololá	701	Sololá	2	El tablón	10	Octubre	2023-10-18T00:00:00	2024-11-06T13:00:00	5	Humedad	74
184229	7	Sololá	701	Sololá	2	El tablón	10	Octubre	2023-10-18T00:00:00	2024-11-06T13:00:00	6	Velocidad del viento	3.2
184230	7	Sololá	701	Sololá	2	El tablón	10	Octubre	2023-10-18T00:00:00	2024-11-06T13:00:00	7	Dirección del viento	3.22
184231	7	Sololá	701	Sololá	2	El tablón	10	Octubre	2023-10-18T00:00:00	2024-11-06T13:00:00	1	Precipitación	0
184232	7	Sololá	701	Sololá	2	El tablón	10	Octubre	2023-10-18T00:00:00	2024-11-06T13:00:00	8	Radiación solar	267
184233	7	Sololá	701	Sololá	2	El tablón	10	Octubre	2023-10-18T00:00:00	2024-11-06T14:00:00	2	Temperatura media	16.8
184234	7	Sololá	701	Sololá	2	El tablón	10	Octubre	2023-10-18T00:00:00	2024-11-06T14:00:00	4	Temperatura máxima	17.7
184235	7	Sololá	701	Sololá	2	El tablón	10	Octubre	2023-10-18T00:00:00	2024-11-06T14:00:00	3	Temperatura mínima	16.5
184236	7	Sololá	701	Sololá	2	El tablón	10	Octubre	2023-10-18T00:00:00	2024-11-06T14:00:00	5	Humedad	78
184237	7	Sololá	701	Sololá	2	El tablón	10	Octubre	2023-10-18T00:00:00	2024-11-06T14:00:00	6	Velocidad del viento	6.4
184238	7	Sololá	701	Sololá	2	El tablón	10	Octubre	2023-10-18T00:00:00	2024-11-06T14:00:00	7	Dirección del viento	6.44
184239	7	Sololá	701	Sololá	2	El tablón	10	Octubre	2023-10-18T00:00:00	2024-11-06T14:00:00	1	Precipitación	0
184240	7	Sololá	701	Sololá	2	El tablón	10	Octubre	2023-10-18T00:00:00	2024-11-06T14:00:00	8	Radiación solar	260
184241	7	Sololá	701	Sololá	2	El tablón	10	Octubre	2023-10-18T00:00:00	2024-11-06T15:00:00	2	Temperatura media	16.6
184242	7	Sololá	701	Sololá	2	El tablón	10	Octubre	2023-10-18T00:00:00	2024-11-06T15:00:00	4	Temperatura máxima	18.2
184243	7	Sololá	701	Sololá	2	El tablón	10	Octubre	2023-10-18T00:00:00	2024-11-06T15:00:00	3	Temperatura mínima	16.6
184244	7	Sololá	701	Sololá	2	El tablón	10	Octubre	2023-10-18T00:00:00	2024-11-06T15:00:00	5	Humedad	79
184245	7	Sololá	701	Sololá	2	El tablón	10	Octubre	2023-10-18T00:00:00	2024-11-06T15:00:00	6	Velocidad del viento	8
184246	7	Sololá	701	Sololá	2	El tablón	10	Octubre	2023-10-18T00:00:00	2024-11-06T15:00:00	7	Dirección del viento	8.05
184247	7	Sololá	701	Sololá	2	El tablón	10	Octubre	2023-10-18T00:00:00	2024-11-06T15:00:00	1	Precipitación	0
184248	7	Sololá	701	Sololá	2	El tablón	10	Octubre	2023-10-18T00:00:00	2024-11-06T15:00:00	8	Radiación solar	306
184249	7	Sololá	701	Sololá	2	El tablón	10	Octubre	2023-10-18T00:00:00	2024-11-06T16:00:00	2	Temperatura media	16.7
184250	7	Sololá	701	Sololá	2	El tablón	10	Octubre	2023-10-18T00:00:00	2024-11-06T16:00:00	4	Temperatura máxima	17.9
184251	7	Sololá	701	Sololá	2	El tablón	10	Octubre	2023-10-18T00:00:00	2024-11-06T16:00:00	3	Temperatura mínima	16.6
184252	7	Sololá	701	Sololá	2	El tablón	10	Octubre	2023-10-18T00:00:00	2024-11-06T16:00:00	5	Humedad	78
184253	7	Sololá	701	Sololá	2	El tablón	10	Octubre	2023-10-18T00:00:00	2024-11-06T16:00:00	6	Velocidad del viento	8
184254	7	Sololá	701	Sololá	2	El tablón	10	Octubre	2023-10-18T00:00:00	2024-11-06T16:00:00	7	Dirección del viento	8.05
184255	7	Sololá	701	Sololá	2	El tablón	10	Octubre	2023-10-18T00:00:00	2024-11-06T16:00:00	1	Precipitación	0
184256	7	Sololá	701	Sololá	2	El tablón	10	Octubre	2023-10-18T00:00:00	2024-11-06T16:00:00	8	Radiación solar	294
184257	7	Sololá	701	Sololá	2	El tablón	10	Octubre	2023-10-18T00:00:00	2024-11-06T17:00:00	2	Temperatura media	15.3
184258	7	Sololá	701	Sololá	2	El tablón	10	Octubre	2023-10-18T00:00:00	2024-11-06T17:00:00	4	Temperatura máxima	16.6
184259	7	Sololá	701	Sololá	2	El tablón	10	Octubre	2023-10-18T00:00:00	2024-11-06T17:00:00	3	Temperatura mínima	15.3
184260	7	Sololá	701	Sololá	2	El tablón	10	Octubre	2023-10-18T00:00:00	2024-11-06T17:00:00	5	Humedad	83
184261	7	Sololá	701	Sololá	2	El tablón	10	Octubre	2023-10-18T00:00:00	2024-11-06T17:00:00	6	Velocidad del viento	4.8
184262	7	Sololá	701	Sololá	2	El tablón	10	Octubre	2023-10-18T00:00:00	2024-11-06T17:00:00	7	Dirección del viento	4.83
184263	7	Sololá	701	Sololá	2	El tablón	10	Octubre	2023-10-18T00:00:00	2024-11-06T17:00:00	1	Precipitación	0
184264	7	Sololá	701	Sololá	2	El tablón	10	Octubre	2023-10-18T00:00:00	2024-11-06T17:00:00	8	Radiación solar	64
184265	7	Sololá	701	Sololá	2	El tablón	10	Octubre	2023-10-18T00:00:00	2024-11-06T18:00:00	2	Temperatura media	14.1
184266	7	Sololá	701	Sololá	2	El tablón	10	Octubre	2023-10-18T00:00:00	2024-11-06T18:00:00	4	Temperatura máxima	15.3
184267	7	Sololá	701	Sololá	2	El tablón	10	Octubre	2023-10-18T00:00:00	2024-11-06T18:00:00	3	Temperatura mínima	14.1
184268	7	Sololá	701	Sololá	2	El tablón	10	Octubre	2023-10-18T00:00:00	2024-11-06T18:00:00	5	Humedad	86
184269	7	Sololá	701	Sololá	2	El tablón	10	Octubre	2023-10-18T00:00:00	2024-11-06T18:00:00	6	Velocidad del viento	9.7
184270	7	Sololá	701	Sololá	2	El tablón	10	Octubre	2023-10-18T00:00:00	2024-11-06T18:00:00	7	Dirección del viento	9.66
184271	7	Sololá	701	Sololá	2	El tablón	10	Octubre	2023-10-18T00:00:00	2024-11-06T18:00:00	1	Precipitación	0
184272	7	Sololá	701	Sololá	2	El tablón	10	Octubre	2023-10-18T00:00:00	2024-11-06T18:00:00	8	Radiación solar	18
184273	7	Sololá	701	Sololá	2	El tablón	10	Octubre	2023-10-18T00:00:00	2024-11-06T19:00:00	2	Temperatura media	13.8
184274	7	Sololá	701	Sololá	2	El tablón	10	Octubre	2023-10-18T00:00:00	2024-11-06T19:00:00	4	Temperatura máxima	14.1
184275	7	Sololá	701	Sololá	2	El tablón	10	Octubre	2023-10-18T00:00:00	2024-11-06T19:00:00	3	Temperatura mínima	13.8
184276	7	Sololá	701	Sololá	2	El tablón	10	Octubre	2023-10-18T00:00:00	2024-11-06T19:00:00	5	Humedad	87
184277	7	Sololá	701	Sololá	2	El tablón	10	Octubre	2023-10-18T00:00:00	2024-11-06T19:00:00	6	Velocidad del viento	6.4
184278	7	Sololá	701	Sololá	2	El tablón	10	Octubre	2023-10-18T00:00:00	2024-11-06T19:00:00	7	Dirección del viento	6.44
184279	7	Sololá	701	Sololá	2	El tablón	10	Octubre	2023-10-18T00:00:00	2024-11-06T19:00:00	1	Precipitación	0
184280	7	Sololá	701	Sololá	2	El tablón	10	Octubre	2023-10-18T00:00:00	2024-11-06T19:00:00	8	Radiación solar	0
184281	7	Sololá	701	Sololá	2	El tablón	10	Octubre	2023-10-18T00:00:00	2024-11-06T20:00:00	2	Temperatura media	13.6
184282	7	Sololá	701	Sololá	2	El tablón	10	Octubre	2023-10-18T00:00:00	2024-11-06T20:00:00	4	Temperatura máxima	13.8
184283	7	Sololá	701	Sololá	2	El tablón	10	Octubre	2023-10-18T00:00:00	2024-11-06T20:00:00	3	Temperatura mínima	13.6
184284	7	Sololá	701	Sololá	2	El tablón	10	Octubre	2023-10-18T00:00:00	2024-11-06T20:00:00	5	Humedad	88
184285	7	Sololá	701	Sololá	2	El tablón	10	Octubre	2023-10-18T00:00:00	2024-11-06T20:00:00	6	Velocidad del viento	4.8
184286	7	Sololá	701	Sololá	2	El tablón	10	Octubre	2023-10-18T00:00:00	2024-11-06T20:00:00	7	Dirección del viento	4.83
184287	7	Sololá	701	Sololá	2	El tablón	10	Octubre	2023-10-18T00:00:00	2024-11-06T20:00:00	1	Precipitación	0
184288	7	Sololá	701	Sololá	2	El tablón	10	Octubre	2023-10-18T00:00:00	2024-11-06T20:00:00	8	Radiación solar	0
184289	7	Sololá	701	Sololá	2	El tablón	10	Octubre	2023-10-18T00:00:00	2024-11-06T21:00:00	2	Temperatura media	13.2
184290	7	Sololá	701	Sololá	2	El tablón	10	Octubre	2023-10-18T00:00:00	2024-11-06T21:00:00	4	Temperatura máxima	13.6
184291	7	Sololá	701	Sololá	2	El tablón	10	Octubre	2023-10-18T00:00:00	2024-11-06T21:00:00	3	Temperatura mínima	13.2
184292	7	Sololá	701	Sololá	2	El tablón	10	Octubre	2023-10-18T00:00:00	2024-11-06T21:00:00	5	Humedad	88
184293	7	Sololá	701	Sololá	2	El tablón	10	Octubre	2023-10-18T00:00:00	2024-11-06T21:00:00	6	Velocidad del viento	6.4
184294	7	Sololá	701	Sololá	2	El tablón	10	Octubre	2023-10-18T00:00:00	2024-11-06T21:00:00	7	Dirección del viento	6.44
184295	7	Sololá	701	Sololá	2	El tablón	10	Octubre	2023-10-18T00:00:00	2024-11-06T21:00:00	1	Precipitación	0
184296	7	Sololá	701	Sololá	2	El tablón	10	Octubre	2023-10-18T00:00:00	2024-11-06T21:00:00	8	Radiación solar	0
184297	7	Sololá	701	Sololá	2	El tablón	10	Octubre	2023-10-18T00:00:00	2024-11-06T22:00:00	2	Temperatura media	12.6
184298	7	Sololá	701	Sololá	2	El tablón	10	Octubre	2023-10-18T00:00:00	2024-11-06T22:00:00	4	Temperatura máxima	13.2
184299	7	Sololá	701	Sololá	2	El tablón	10	Octubre	2023-10-18T00:00:00	2024-11-06T22:00:00	3	Temperatura mínima	12.6
184300	7	Sololá	701	Sololá	2	El tablón	10	Octubre	2023-10-18T00:00:00	2024-11-06T22:00:00	5	Humedad	89
184301	7	Sololá	701	Sololá	2	El tablón	10	Octubre	2023-10-18T00:00:00	2024-11-06T22:00:00	6	Velocidad del viento	8
184302	7	Sololá	701	Sololá	2	El tablón	10	Octubre	2023-10-18T00:00:00	2024-11-06T22:00:00	7	Dirección del viento	8.05
184303	7	Sololá	701	Sololá	2	El tablón	10	Octubre	2023-10-18T00:00:00	2024-11-06T22:00:00	1	Precipitación	0
184304	7	Sololá	701	Sololá	2	El tablón	10	Octubre	2023-10-18T00:00:00	2024-11-06T22:00:00	8	Radiación solar	0
184305	7	Sololá	701	Sololá	2	El tablón	10	Octubre	2023-10-18T00:00:00	2024-11-06T23:00:00	2	Temperatura media	12.3
184306	7	Sololá	701	Sololá	2	El tablón	10	Octubre	2023-10-18T00:00:00	2024-11-06T23:00:00	4	Temperatura máxima	12.6
184307	7	Sololá	701	Sololá	2	El tablón	10	Octubre	2023-10-18T00:00:00	2024-11-06T23:00:00	3	Temperatura mínima	12.3
184308	7	Sololá	701	Sololá	2	El tablón	10	Octubre	2023-10-18T00:00:00	2024-11-06T23:00:00	5	Humedad	88
184309	7	Sololá	701	Sololá	2	El tablón	10	Octubre	2023-10-18T00:00:00	2024-11-06T23:00:00	6	Velocidad del viento	4.8
184310	7	Sololá	701	Sololá	2	El tablón	10	Octubre	2023-10-18T00:00:00	2024-11-06T23:00:00	7	Dirección del viento	4.83
184311	7	Sololá	701	Sololá	2	El tablón	10	Octubre	2023-10-18T00:00:00	2024-11-06T23:00:00	1	Precipitación	0
184312	7	Sololá	701	Sololá	2	El tablón	10	Octubre	2023-10-18T00:00:00	2024-11-06T23:00:00	8	Radiación solar	0
184313	7	Sololá	701	Sololá	2	El tablón	10	Octubre	2023-10-19T00:00:00	2024-11-06T00:00:00	2	Temperatura media	12.3
184314	7	Sololá	701	Sololá	2	El tablón	10	Octubre	2023-10-19T00:00:00	2024-11-06T00:00:00	4	Temperatura máxima	12.4
184315	7	Sololá	701	Sololá	2	El tablón	10	Octubre	2023-10-19T00:00:00	2024-11-06T00:00:00	3	Temperatura mínima	12.3
184316	7	Sololá	701	Sololá	2	El tablón	10	Octubre	2023-10-19T00:00:00	2024-11-06T00:00:00	5	Humedad	88
184317	7	Sololá	701	Sololá	2	El tablón	10	Octubre	2023-10-19T00:00:00	2024-11-06T00:00:00	6	Velocidad del viento	4.8
184318	7	Sololá	701	Sololá	2	El tablón	10	Octubre	2023-10-19T00:00:00	2024-11-06T00:00:00	7	Dirección del viento	4.83
184319	7	Sololá	701	Sololá	2	El tablón	10	Octubre	2023-10-19T00:00:00	2024-11-06T00:00:00	1	Precipitación	0
184320	7	Sololá	701	Sololá	2	El tablón	10	Octubre	2023-10-19T00:00:00	2024-11-06T00:00:00	8	Radiación solar	0
184321	7	Sololá	701	Sololá	2	El tablón	10	Octubre	2023-10-19T00:00:00	2024-11-06T01:00:00	2	Temperatura media	12.1
184322	7	Sololá	701	Sololá	2	El tablón	10	Octubre	2023-10-19T00:00:00	2024-11-06T01:00:00	4	Temperatura máxima	12.3
184323	7	Sololá	701	Sololá	2	El tablón	10	Octubre	2023-10-19T00:00:00	2024-11-06T01:00:00	3	Temperatura mínima	12.1
184324	7	Sololá	701	Sololá	2	El tablón	10	Octubre	2023-10-19T00:00:00	2024-11-06T01:00:00	5	Humedad	88
184325	7	Sololá	701	Sololá	2	El tablón	10	Octubre	2023-10-19T00:00:00	2024-11-06T01:00:00	6	Velocidad del viento	4.8
184326	7	Sololá	701	Sololá	2	El tablón	10	Octubre	2023-10-19T00:00:00	2024-11-06T01:00:00	7	Dirección del viento	4.83
184327	7	Sololá	701	Sololá	2	El tablón	10	Octubre	2023-10-19T00:00:00	2024-11-06T01:00:00	1	Precipitación	0
184328	7	Sololá	701	Sololá	2	El tablón	10	Octubre	2023-10-19T00:00:00	2024-11-06T01:00:00	8	Radiación solar	0
184329	7	Sololá	701	Sololá	2	El tablón	10	Octubre	2023-10-19T00:00:00	2024-11-06T02:00:00	2	Temperatura media	11.9
184330	7	Sololá	701	Sololá	2	El tablón	10	Octubre	2023-10-19T00:00:00	2024-11-06T02:00:00	4	Temperatura máxima	12.1
184331	7	Sololá	701	Sololá	2	El tablón	10	Octubre	2023-10-19T00:00:00	2024-11-06T02:00:00	3	Temperatura mínima	11.9
184332	7	Sololá	701	Sololá	2	El tablón	10	Octubre	2023-10-19T00:00:00	2024-11-06T02:00:00	5	Humedad	89
184333	7	Sololá	701	Sololá	2	El tablón	10	Octubre	2023-10-19T00:00:00	2024-11-06T02:00:00	6	Velocidad del viento	6.4
184334	7	Sololá	701	Sololá	2	El tablón	10	Octubre	2023-10-19T00:00:00	2024-11-06T02:00:00	7	Dirección del viento	6.44
184335	7	Sololá	701	Sololá	2	El tablón	10	Octubre	2023-10-19T00:00:00	2024-11-06T02:00:00	1	Precipitación	0
184336	7	Sololá	701	Sololá	2	El tablón	10	Octubre	2023-10-19T00:00:00	2024-11-06T02:00:00	8	Radiación solar	0
184337	7	Sololá	701	Sololá	2	El tablón	10	Octubre	2023-10-19T00:00:00	2024-11-06T03:00:00	2	Temperatura media	11.8
184338	7	Sololá	701	Sololá	2	El tablón	10	Octubre	2023-10-19T00:00:00	2024-11-06T03:00:00	4	Temperatura máxima	11.9
184339	7	Sololá	701	Sololá	2	El tablón	10	Octubre	2023-10-19T00:00:00	2024-11-06T03:00:00	3	Temperatura mínima	11.8
184340	7	Sololá	701	Sololá	2	El tablón	10	Octubre	2023-10-19T00:00:00	2024-11-06T03:00:00	5	Humedad	89
184341	7	Sololá	701	Sololá	2	El tablón	10	Octubre	2023-10-19T00:00:00	2024-11-06T03:00:00	6	Velocidad del viento	4.8
184342	7	Sololá	701	Sololá	2	El tablón	10	Octubre	2023-10-19T00:00:00	2024-11-06T03:00:00	7	Dirección del viento	4.83
184343	7	Sololá	701	Sololá	2	El tablón	10	Octubre	2023-10-19T00:00:00	2024-11-06T03:00:00	1	Precipitación	0
184344	7	Sololá	701	Sololá	2	El tablón	10	Octubre	2023-10-19T00:00:00	2024-11-06T03:00:00	8	Radiación solar	0
184345	7	Sololá	701	Sololá	2	El tablón	10	Octubre	2023-10-19T00:00:00	2024-11-06T04:00:00	2	Temperatura media	12.1
184346	7	Sololá	701	Sololá	2	El tablón	10	Octubre	2023-10-19T00:00:00	2024-11-06T04:00:00	4	Temperatura máxima	12.1
184347	7	Sololá	701	Sololá	2	El tablón	10	Octubre	2023-10-19T00:00:00	2024-11-06T04:00:00	3	Temperatura mínima	11.8
184348	7	Sololá	701	Sololá	2	El tablón	10	Octubre	2023-10-19T00:00:00	2024-11-06T04:00:00	5	Humedad	88
184349	7	Sololá	701	Sololá	2	El tablón	10	Octubre	2023-10-19T00:00:00	2024-11-06T04:00:00	6	Velocidad del viento	4.8
184350	7	Sololá	701	Sololá	2	El tablón	10	Octubre	2023-10-19T00:00:00	2024-11-06T04:00:00	7	Dirección del viento	4.83
184351	7	Sololá	701	Sololá	2	El tablón	10	Octubre	2023-10-19T00:00:00	2024-11-06T04:00:00	1	Precipitación	0
184352	7	Sololá	701	Sololá	2	El tablón	10	Octubre	2023-10-19T00:00:00	2024-11-06T04:00:00	8	Radiación solar	0
184353	7	Sololá	701	Sololá	2	El tablón	10	Octubre	2023-10-19T00:00:00	2024-11-06T05:00:00	2	Temperatura media	12.3
184354	7	Sololá	701	Sololá	2	El tablón	10	Octubre	2023-10-19T00:00:00	2024-11-06T05:00:00	4	Temperatura máxima	12.4
184355	7	Sololá	701	Sololá	2	El tablón	10	Octubre	2023-10-19T00:00:00	2024-11-06T05:00:00	3	Temperatura mínima	12.1
184356	7	Sololá	701	Sololá	2	El tablón	10	Octubre	2023-10-19T00:00:00	2024-11-06T05:00:00	5	Humedad	88
184357	7	Sololá	701	Sololá	2	El tablón	10	Octubre	2023-10-19T00:00:00	2024-11-06T05:00:00	6	Velocidad del viento	3.2
184358	7	Sololá	701	Sololá	2	El tablón	10	Octubre	2023-10-19T00:00:00	2024-11-06T05:00:00	7	Dirección del viento	3.22
184359	7	Sololá	701	Sololá	2	El tablón	10	Octubre	2023-10-19T00:00:00	2024-11-06T05:00:00	1	Precipitación	0
184360	7	Sololá	701	Sololá	2	El tablón	10	Octubre	2023-10-19T00:00:00	2024-11-06T05:00:00	8	Radiación solar	0
184361	7	Sololá	701	Sololá	2	El tablón	10	Octubre	2023-10-19T00:00:00	2024-11-06T06:00:00	2	Temperatura media	12.6
184362	7	Sololá	701	Sololá	2	El tablón	10	Octubre	2023-10-19T00:00:00	2024-11-06T06:00:00	4	Temperatura máxima	12.6
184363	7	Sololá	701	Sololá	2	El tablón	10	Octubre	2023-10-19T00:00:00	2024-11-06T06:00:00	3	Temperatura mínima	12.3
184364	7	Sololá	701	Sololá	2	El tablón	10	Octubre	2023-10-19T00:00:00	2024-11-06T06:00:00	5	Humedad	88
184365	7	Sololá	701	Sololá	2	El tablón	10	Octubre	2023-10-19T00:00:00	2024-11-06T06:00:00	6	Velocidad del viento	6.4
184366	7	Sololá	701	Sololá	2	El tablón	10	Octubre	2023-10-19T00:00:00	2024-11-06T06:00:00	7	Dirección del viento	6.44
184367	7	Sololá	701	Sololá	2	El tablón	10	Octubre	2023-10-19T00:00:00	2024-11-06T06:00:00	1	Precipitación	0
184368	7	Sololá	701	Sololá	2	El tablón	10	Octubre	2023-10-19T00:00:00	2024-11-06T06:00:00	8	Radiación solar	0
184369	7	Sololá	701	Sololá	2	El tablón	10	Octubre	2023-10-19T00:00:00	2024-11-06T07:00:00	2	Temperatura media	14.2
184370	7	Sololá	701	Sololá	2	El tablón	10	Octubre	2023-10-19T00:00:00	2024-11-06T07:00:00	4	Temperatura máxima	14.2
184371	7	Sololá	701	Sololá	2	El tablón	10	Octubre	2023-10-19T00:00:00	2024-11-06T07:00:00	3	Temperatura mínima	12.6
184372	7	Sololá	701	Sololá	2	El tablón	10	Octubre	2023-10-19T00:00:00	2024-11-06T07:00:00	5	Humedad	85
184373	7	Sololá	701	Sololá	2	El tablón	10	Octubre	2023-10-19T00:00:00	2024-11-06T07:00:00	6	Velocidad del viento	6.4
184374	7	Sololá	701	Sololá	2	El tablón	10	Octubre	2023-10-19T00:00:00	2024-11-06T07:00:00	7	Dirección del viento	6.44
184375	7	Sololá	701	Sololá	2	El tablón	10	Octubre	2023-10-19T00:00:00	2024-11-06T07:00:00	1	Precipitación	0
184376	7	Sololá	701	Sololá	2	El tablón	10	Octubre	2023-10-19T00:00:00	2024-11-06T07:00:00	8	Radiación solar	49
184377	7	Sololá	701	Sololá	2	El tablón	10	Octubre	2023-10-19T00:00:00	2024-11-06T08:00:00	2	Temperatura media	17.2
184378	7	Sololá	701	Sololá	2	El tablón	10	Octubre	2023-10-19T00:00:00	2024-11-06T08:00:00	4	Temperatura máxima	17.2
184379	7	Sololá	701	Sololá	2	El tablón	10	Octubre	2023-10-19T00:00:00	2024-11-06T08:00:00	3	Temperatura mínima	14.2
184380	7	Sololá	701	Sololá	2	El tablón	10	Octubre	2023-10-19T00:00:00	2024-11-06T08:00:00	5	Humedad	78
184381	7	Sololá	701	Sololá	2	El tablón	10	Octubre	2023-10-19T00:00:00	2024-11-06T08:00:00	6	Velocidad del viento	4.8
184382	7	Sololá	701	Sololá	2	El tablón	10	Octubre	2023-10-19T00:00:00	2024-11-06T08:00:00	7	Dirección del viento	4.83
184383	7	Sololá	701	Sololá	2	El tablón	10	Octubre	2023-10-19T00:00:00	2024-11-06T08:00:00	1	Precipitación	0
184384	7	Sololá	701	Sololá	2	El tablón	10	Octubre	2023-10-19T00:00:00	2024-11-06T08:00:00	8	Radiación solar	219
184385	7	Sololá	701	Sololá	2	El tablón	10	Octubre	2023-10-19T00:00:00	2024-11-06T09:00:00	2	Temperatura media	18
184386	7	Sololá	701	Sololá	2	El tablón	10	Octubre	2023-10-19T00:00:00	2024-11-06T09:00:00	4	Temperatura máxima	18
184387	7	Sololá	701	Sololá	2	El tablón	10	Octubre	2023-10-19T00:00:00	2024-11-06T09:00:00	3	Temperatura mínima	17.2
184388	7	Sololá	701	Sololá	2	El tablón	10	Octubre	2023-10-19T00:00:00	2024-11-06T09:00:00	5	Humedad	74
184389	7	Sololá	701	Sololá	2	El tablón	10	Octubre	2023-10-19T00:00:00	2024-11-06T09:00:00	6	Velocidad del viento	8
184390	7	Sololá	701	Sololá	2	El tablón	10	Octubre	2023-10-19T00:00:00	2024-11-06T09:00:00	7	Dirección del viento	8.05
184391	7	Sololá	701	Sololá	2	El tablón	10	Octubre	2023-10-19T00:00:00	2024-11-06T09:00:00	1	Precipitación	0
184392	7	Sololá	701	Sololá	2	El tablón	10	Octubre	2023-10-19T00:00:00	2024-11-06T09:00:00	8	Radiación solar	479
184393	7	Sololá	701	Sololá	2	El tablón	10	Octubre	2023-10-19T00:00:00	2024-11-06T10:00:00	2	Temperatura media	18.2
184394	7	Sololá	701	Sololá	2	El tablón	10	Octubre	2023-10-19T00:00:00	2024-11-06T10:00:00	4	Temperatura máxima	18.6
184395	7	Sololá	701	Sololá	2	El tablón	10	Octubre	2023-10-19T00:00:00	2024-11-06T10:00:00	3	Temperatura mínima	18
184396	7	Sololá	701	Sololá	2	El tablón	10	Octubre	2023-10-19T00:00:00	2024-11-06T10:00:00	5	Humedad	75
184397	7	Sololá	701	Sololá	2	El tablón	10	Octubre	2023-10-19T00:00:00	2024-11-06T10:00:00	6	Velocidad del viento	9.7
184398	7	Sololá	701	Sololá	2	El tablón	10	Octubre	2023-10-19T00:00:00	2024-11-06T10:00:00	7	Dirección del viento	9.66
184399	7	Sololá	701	Sololá	2	El tablón	10	Octubre	2023-10-19T00:00:00	2024-11-06T10:00:00	1	Precipitación	0
184400	7	Sololá	701	Sololá	2	El tablón	10	Octubre	2023-10-19T00:00:00	2024-11-06T10:00:00	8	Radiación solar	667
184401	7	Sololá	701	Sololá	2	El tablón	10	Octubre	2023-10-19T00:00:00	2024-11-06T11:00:00	2	Temperatura media	17.6
184402	7	Sololá	701	Sololá	2	El tablón	10	Octubre	2023-10-19T00:00:00	2024-11-06T11:00:00	4	Temperatura máxima	18.2
184403	7	Sololá	701	Sololá	2	El tablón	10	Octubre	2023-10-19T00:00:00	2024-11-06T11:00:00	3	Temperatura mínima	17.3
184404	7	Sololá	701	Sololá	2	El tablón	10	Octubre	2023-10-19T00:00:00	2024-11-06T11:00:00	5	Humedad	81
184405	7	Sololá	701	Sololá	2	El tablón	10	Octubre	2023-10-19T00:00:00	2024-11-06T11:00:00	6	Velocidad del viento	4.8
184406	7	Sololá	701	Sololá	2	El tablón	10	Octubre	2023-10-19T00:00:00	2024-11-06T11:00:00	7	Dirección del viento	4.83
184407	7	Sololá	701	Sololá	2	El tablón	10	Octubre	2023-10-19T00:00:00	2024-11-06T11:00:00	1	Precipitación	0
184408	7	Sololá	701	Sololá	2	El tablón	10	Octubre	2023-10-19T00:00:00	2024-11-06T11:00:00	8	Radiación solar	344
184409	7	Sololá	701	Sololá	2	El tablón	10	Octubre	2023-10-19T00:00:00	2024-11-06T12:00:00	2	Temperatura media	16
184410	7	Sololá	701	Sololá	2	El tablón	10	Octubre	2023-10-19T00:00:00	2024-11-06T12:00:00	4	Temperatura máxima	17.6
184411	7	Sololá	701	Sololá	2	El tablón	10	Octubre	2023-10-19T00:00:00	2024-11-06T12:00:00	3	Temperatura mínima	15.9
184412	7	Sololá	701	Sololá	2	El tablón	10	Octubre	2023-10-19T00:00:00	2024-11-06T12:00:00	5	Humedad	86
184413	7	Sololá	701	Sololá	2	El tablón	10	Octubre	2023-10-19T00:00:00	2024-11-06T12:00:00	6	Velocidad del viento	4.8
184414	7	Sololá	701	Sololá	2	El tablón	10	Octubre	2023-10-19T00:00:00	2024-11-06T12:00:00	7	Dirección del viento	4.83
184415	7	Sololá	701	Sololá	2	El tablón	10	Octubre	2023-10-19T00:00:00	2024-11-06T12:00:00	1	Precipitación	0
184416	7	Sololá	701	Sololá	2	El tablón	10	Octubre	2023-10-19T00:00:00	2024-11-06T12:00:00	8	Radiación solar	170
184417	7	Sololá	701	Sololá	2	El tablón	10	Octubre	2023-10-19T00:00:00	2024-11-06T13:00:00	2	Temperatura media	15.8
184418	7	Sololá	701	Sololá	2	El tablón	10	Octubre	2023-10-19T00:00:00	2024-11-06T13:00:00	4	Temperatura máxima	16.1
184419	7	Sololá	701	Sololá	2	El tablón	10	Octubre	2023-10-19T00:00:00	2024-11-06T13:00:00	3	Temperatura mínima	15.7
184420	7	Sololá	701	Sololá	2	El tablón	10	Octubre	2023-10-19T00:00:00	2024-11-06T13:00:00	5	Humedad	88
184421	7	Sololá	701	Sololá	2	El tablón	10	Octubre	2023-10-19T00:00:00	2024-11-06T13:00:00	6	Velocidad del viento	3.2
184422	7	Sololá	701	Sololá	2	El tablón	10	Octubre	2023-10-19T00:00:00	2024-11-06T13:00:00	7	Dirección del viento	3.22
184423	7	Sololá	701	Sololá	2	El tablón	10	Octubre	2023-10-19T00:00:00	2024-11-06T13:00:00	1	Precipitación	0
184424	7	Sololá	701	Sololá	2	El tablón	10	Octubre	2023-10-19T00:00:00	2024-11-06T13:00:00	8	Radiación solar	155
184425	7	Sololá	701	Sololá	2	El tablón	10	Octubre	2023-10-19T00:00:00	2024-11-06T14:00:00	2	Temperatura media	16.7
184426	7	Sololá	701	Sololá	2	El tablón	10	Octubre	2023-10-19T00:00:00	2024-11-06T14:00:00	4	Temperatura máxima	16.7
184427	7	Sololá	701	Sololá	2	El tablón	10	Octubre	2023-10-19T00:00:00	2024-11-06T14:00:00	3	Temperatura mínima	15.7
184428	7	Sololá	701	Sololá	2	El tablón	10	Octubre	2023-10-19T00:00:00	2024-11-06T14:00:00	5	Humedad	85
184429	7	Sololá	701	Sololá	2	El tablón	10	Octubre	2023-10-19T00:00:00	2024-11-06T14:00:00	6	Velocidad del viento	0
184430	7	Sololá	701	Sololá	2	El tablón	10	Octubre	2023-10-19T00:00:00	2024-11-06T14:00:00	7	Dirección del viento	0
184431	7	Sololá	701	Sololá	2	El tablón	10	Octubre	2023-10-19T00:00:00	2024-11-06T14:00:00	1	Precipitación	0
184432	7	Sololá	701	Sololá	2	El tablón	10	Octubre	2023-10-19T00:00:00	2024-11-06T14:00:00	8	Radiación solar	173
184433	7	Sololá	701	Sololá	2	El tablón	10	Octubre	2023-10-19T00:00:00	2024-11-06T15:00:00	2	Temperatura media	16.5
184434	7	Sololá	701	Sololá	2	El tablón	10	Octubre	2023-10-19T00:00:00	2024-11-06T15:00:00	4	Temperatura máxima	18.3
184435	7	Sololá	701	Sololá	2	El tablón	10	Octubre	2023-10-19T00:00:00	2024-11-06T15:00:00	3	Temperatura mínima	16.5
184436	7	Sololá	701	Sololá	2	El tablón	10	Octubre	2023-10-19T00:00:00	2024-11-06T15:00:00	5	Humedad	88
184437	7	Sololá	701	Sololá	2	El tablón	10	Octubre	2023-10-19T00:00:00	2024-11-06T15:00:00	6	Velocidad del viento	4.8
184438	7	Sololá	701	Sololá	2	El tablón	10	Octubre	2023-10-19T00:00:00	2024-11-06T15:00:00	7	Dirección del viento	4.83
184439	7	Sololá	701	Sololá	2	El tablón	10	Octubre	2023-10-19T00:00:00	2024-11-06T15:00:00	1	Precipitación	0
184440	7	Sololá	701	Sololá	2	El tablón	10	Octubre	2023-10-19T00:00:00	2024-11-06T15:00:00	8	Radiación solar	301
184441	7	Sololá	701	Sololá	2	El tablón	10	Octubre	2023-10-19T00:00:00	2024-11-06T16:00:00	2	Temperatura media	15.3
184442	7	Sololá	701	Sololá	2	El tablón	10	Octubre	2023-10-19T00:00:00	2024-11-06T16:00:00	4	Temperatura máxima	16.4
184443	7	Sololá	701	Sololá	2	El tablón	10	Octubre	2023-10-19T00:00:00	2024-11-06T16:00:00	3	Temperatura mínima	15.2
184444	7	Sololá	701	Sololá	2	El tablón	10	Octubre	2023-10-19T00:00:00	2024-11-06T16:00:00	5	Humedad	88
184445	7	Sololá	701	Sololá	2	El tablón	10	Octubre	2023-10-19T00:00:00	2024-11-06T16:00:00	6	Velocidad del viento	3.2
184446	7	Sololá	701	Sololá	2	El tablón	10	Octubre	2023-10-19T00:00:00	2024-11-06T16:00:00	7	Dirección del viento	3.22
184447	7	Sololá	701	Sololá	2	El tablón	10	Octubre	2023-10-19T00:00:00	2024-11-06T16:00:00	1	Precipitación	0
184448	7	Sololá	701	Sololá	2	El tablón	10	Octubre	2023-10-19T00:00:00	2024-11-06T16:00:00	8	Radiación solar	65
184449	7	Sololá	701	Sololá	2	El tablón	10	Octubre	2023-10-19T00:00:00	2024-11-06T17:00:00	2	Temperatura media	16.1
184450	7	Sololá	701	Sololá	2	El tablón	10	Octubre	2023-10-19T00:00:00	2024-11-06T17:00:00	4	Temperatura máxima	16.4
184451	7	Sololá	701	Sololá	2	El tablón	10	Octubre	2023-10-19T00:00:00	2024-11-06T17:00:00	3	Temperatura mínima	15.3
184452	7	Sololá	701	Sololá	2	El tablón	10	Octubre	2023-10-19T00:00:00	2024-11-06T17:00:00	5	Humedad	84
184453	7	Sololá	701	Sololá	2	El tablón	10	Octubre	2023-10-19T00:00:00	2024-11-06T17:00:00	6	Velocidad del viento	3.2
184454	7	Sololá	701	Sololá	2	El tablón	10	Octubre	2023-10-19T00:00:00	2024-11-06T17:00:00	7	Dirección del viento	3.22
184455	7	Sololá	701	Sololá	2	El tablón	10	Octubre	2023-10-19T00:00:00	2024-11-06T17:00:00	1	Precipitación	0
184456	7	Sololá	701	Sololá	2	El tablón	10	Octubre	2023-10-19T00:00:00	2024-11-06T17:00:00	8	Radiación solar	127
184457	7	Sololá	701	Sololá	2	El tablón	10	Octubre	2023-10-19T00:00:00	2024-11-06T18:00:00	2	Temperatura media	14.7
184458	7	Sololá	701	Sololá	2	El tablón	10	Octubre	2023-10-19T00:00:00	2024-11-06T18:00:00	4	Temperatura máxima	16
184459	7	Sololá	701	Sololá	2	El tablón	10	Octubre	2023-10-19T00:00:00	2024-11-06T18:00:00	3	Temperatura mínima	14.7
184460	7	Sololá	701	Sololá	2	El tablón	10	Octubre	2023-10-19T00:00:00	2024-11-06T18:00:00	5	Humedad	87
184461	7	Sololá	701	Sololá	2	El tablón	10	Octubre	2023-10-19T00:00:00	2024-11-06T18:00:00	6	Velocidad del viento	4.8
184462	7	Sololá	701	Sololá	2	El tablón	10	Octubre	2023-10-19T00:00:00	2024-11-06T18:00:00	7	Dirección del viento	4.83
184463	7	Sololá	701	Sololá	2	El tablón	10	Octubre	2023-10-19T00:00:00	2024-11-06T18:00:00	1	Precipitación	0
184464	7	Sololá	701	Sololá	2	El tablón	10	Octubre	2023-10-19T00:00:00	2024-11-06T18:00:00	8	Radiación solar	8
184465	7	Sololá	701	Sololá	2	El tablón	10	Octubre	2023-10-19T00:00:00	2024-11-06T19:00:00	2	Temperatura media	14.5
184466	7	Sololá	701	Sololá	2	El tablón	10	Octubre	2023-10-19T00:00:00	2024-11-06T19:00:00	4	Temperatura máxima	14.7
184467	7	Sololá	701	Sololá	2	El tablón	10	Octubre	2023-10-19T00:00:00	2024-11-06T19:00:00	3	Temperatura mínima	14.4
184468	7	Sololá	701	Sololá	2	El tablón	10	Octubre	2023-10-19T00:00:00	2024-11-06T19:00:00	5	Humedad	88
184469	7	Sololá	701	Sololá	2	El tablón	10	Octubre	2023-10-19T00:00:00	2024-11-06T19:00:00	6	Velocidad del viento	3.2
184470	7	Sololá	701	Sololá	2	El tablón	10	Octubre	2023-10-19T00:00:00	2024-11-06T19:00:00	7	Dirección del viento	3.22
184471	7	Sololá	701	Sololá	2	El tablón	10	Octubre	2023-10-19T00:00:00	2024-11-06T19:00:00	1	Precipitación	0
184472	7	Sololá	701	Sololá	2	El tablón	10	Octubre	2023-10-19T00:00:00	2024-11-06T19:00:00	8	Radiación solar	0
184473	7	Sololá	701	Sololá	2	El tablón	10	Octubre	2023-10-19T00:00:00	2024-11-06T20:00:00	2	Temperatura media	13.8
184474	7	Sololá	701	Sololá	2	El tablón	10	Octubre	2023-10-19T00:00:00	2024-11-06T20:00:00	4	Temperatura máxima	14.6
184475	7	Sololá	701	Sololá	2	El tablón	10	Octubre	2023-10-19T00:00:00	2024-11-06T20:00:00	3	Temperatura mínima	13.7
184476	7	Sololá	701	Sololá	2	El tablón	10	Octubre	2023-10-19T00:00:00	2024-11-06T20:00:00	5	Humedad	89
184477	7	Sololá	701	Sololá	2	El tablón	10	Octubre	2023-10-19T00:00:00	2024-11-06T20:00:00	6	Velocidad del viento	3.2
184478	7	Sololá	701	Sololá	2	El tablón	10	Octubre	2023-10-19T00:00:00	2024-11-06T20:00:00	7	Dirección del viento	3.22
184479	7	Sololá	701	Sololá	2	El tablón	10	Octubre	2023-10-19T00:00:00	2024-11-06T20:00:00	1	Precipitación	0.6
184480	7	Sololá	701	Sololá	2	El tablón	10	Octubre	2023-10-19T00:00:00	2024-11-06T20:00:00	8	Radiación solar	0
184481	7	Sololá	701	Sololá	2	El tablón	10	Octubre	2023-10-19T00:00:00	2024-11-06T21:00:00	2	Temperatura media	13.7
184482	7	Sololá	701	Sololá	2	El tablón	10	Octubre	2023-10-19T00:00:00	2024-11-06T21:00:00	4	Temperatura máxima	13.8
184483	7	Sololá	701	Sololá	2	El tablón	10	Octubre	2023-10-19T00:00:00	2024-11-06T21:00:00	3	Temperatura mínima	13.6
184484	7	Sololá	701	Sololá	2	El tablón	10	Octubre	2023-10-19T00:00:00	2024-11-06T21:00:00	5	Humedad	89
184485	7	Sololá	701	Sololá	2	El tablón	10	Octubre	2023-10-19T00:00:00	2024-11-06T21:00:00	6	Velocidad del viento	3.2
184486	7	Sololá	701	Sololá	2	El tablón	10	Octubre	2023-10-19T00:00:00	2024-11-06T21:00:00	7	Dirección del viento	3.22
184487	7	Sololá	701	Sololá	2	El tablón	10	Octubre	2023-10-19T00:00:00	2024-11-06T21:00:00	1	Precipitación	0
184488	7	Sololá	701	Sololá	2	El tablón	10	Octubre	2023-10-19T00:00:00	2024-11-06T21:00:00	8	Radiación solar	0
184489	7	Sololá	701	Sololá	2	El tablón	10	Octubre	2023-10-19T00:00:00	2024-11-06T22:00:00	2	Temperatura media	13.6
184490	7	Sololá	701	Sololá	2	El tablón	10	Octubre	2023-10-19T00:00:00	2024-11-06T22:00:00	4	Temperatura máxima	13.7
184491	7	Sololá	701	Sololá	2	El tablón	10	Octubre	2023-10-19T00:00:00	2024-11-06T22:00:00	3	Temperatura mínima	13.6
184492	7	Sololá	701	Sololá	2	El tablón	10	Octubre	2023-10-19T00:00:00	2024-11-06T22:00:00	5	Humedad	89
184493	7	Sololá	701	Sololá	2	El tablón	10	Octubre	2023-10-19T00:00:00	2024-11-06T22:00:00	6	Velocidad del viento	4.8
184494	7	Sololá	701	Sololá	2	El tablón	10	Octubre	2023-10-19T00:00:00	2024-11-06T22:00:00	7	Dirección del viento	4.83
184495	7	Sololá	701	Sololá	2	El tablón	10	Octubre	2023-10-19T00:00:00	2024-11-06T22:00:00	1	Precipitación	0
184496	7	Sololá	701	Sololá	2	El tablón	10	Octubre	2023-10-19T00:00:00	2024-11-06T22:00:00	8	Radiación solar	0
184497	7	Sololá	701	Sololá	2	El tablón	10	Octubre	2023-10-19T00:00:00	2024-11-06T23:00:00	2	Temperatura media	13.1
184498	7	Sololá	701	Sololá	2	El tablón	10	Octubre	2023-10-19T00:00:00	2024-11-06T23:00:00	4	Temperatura máxima	13.6
184499	7	Sololá	701	Sololá	2	El tablón	10	Octubre	2023-10-19T00:00:00	2024-11-06T23:00:00	3	Temperatura mínima	13.1
184500	7	Sololá	701	Sololá	2	El tablón	10	Octubre	2023-10-19T00:00:00	2024-11-06T23:00:00	5	Humedad	89
184501	7	Sololá	701	Sololá	2	El tablón	10	Octubre	2023-10-19T00:00:00	2024-11-06T23:00:00	6	Velocidad del viento	6.4
184502	7	Sololá	701	Sololá	2	El tablón	10	Octubre	2023-10-19T00:00:00	2024-11-06T23:00:00	7	Dirección del viento	6.44
184503	7	Sololá	701	Sololá	2	El tablón	10	Octubre	2023-10-19T00:00:00	2024-11-06T23:00:00	1	Precipitación	0
184504	7	Sololá	701	Sololá	2	El tablón	10	Octubre	2023-10-19T00:00:00	2024-11-06T23:00:00	8	Radiación solar	0
184505	7	Sololá	701	Sololá	2	El tablón	10	Octubre	2023-10-20T00:00:00	2024-11-06T00:00:00	2	Temperatura media	13.1
184506	7	Sololá	701	Sololá	2	El tablón	10	Octubre	2023-10-20T00:00:00	2024-11-06T00:00:00	4	Temperatura máxima	13.1
184507	7	Sololá	701	Sololá	2	El tablón	10	Octubre	2023-10-20T00:00:00	2024-11-06T00:00:00	3	Temperatura mínima	12.9
184508	7	Sololá	701	Sololá	2	El tablón	10	Octubre	2023-10-20T00:00:00	2024-11-06T00:00:00	5	Humedad	89
184509	7	Sololá	701	Sololá	2	El tablón	10	Octubre	2023-10-20T00:00:00	2024-11-06T00:00:00	6	Velocidad del viento	3.2
184510	7	Sololá	701	Sololá	2	El tablón	10	Octubre	2023-10-20T00:00:00	2024-11-06T00:00:00	7	Dirección del viento	3.22
184511	7	Sololá	701	Sololá	2	El tablón	10	Octubre	2023-10-20T00:00:00	2024-11-06T00:00:00	1	Precipitación	0
184512	7	Sololá	701	Sololá	2	El tablón	10	Octubre	2023-10-20T00:00:00	2024-11-06T00:00:00	8	Radiación solar	0
184513	7	Sololá	701	Sololá	2	El tablón	10	Octubre	2023-10-20T00:00:00	2024-11-06T01:00:00	2	Temperatura media	12.9
184514	7	Sololá	701	Sololá	2	El tablón	10	Octubre	2023-10-20T00:00:00	2024-11-06T01:00:00	4	Temperatura máxima	13.2
184515	7	Sololá	701	Sololá	2	El tablón	10	Octubre	2023-10-20T00:00:00	2024-11-06T01:00:00	3	Temperatura mínima	12.9
184516	7	Sololá	701	Sololá	2	El tablón	10	Octubre	2023-10-20T00:00:00	2024-11-06T01:00:00	5	Humedad	89
184517	7	Sololá	701	Sololá	2	El tablón	10	Octubre	2023-10-20T00:00:00	2024-11-06T01:00:00	6	Velocidad del viento	1.6
184518	7	Sololá	701	Sololá	2	El tablón	10	Octubre	2023-10-20T00:00:00	2024-11-06T01:00:00	7	Dirección del viento	1.61
184519	7	Sololá	701	Sololá	2	El tablón	10	Octubre	2023-10-20T00:00:00	2024-11-06T01:00:00	1	Precipitación	0
184520	7	Sololá	701	Sololá	2	El tablón	10	Octubre	2023-10-20T00:00:00	2024-11-06T01:00:00	8	Radiación solar	0
184521	7	Sololá	701	Sololá	2	El tablón	10	Octubre	2023-10-20T00:00:00	2024-11-06T02:00:00	2	Temperatura media	12.7
184522	7	Sololá	701	Sololá	2	El tablón	10	Octubre	2023-10-20T00:00:00	2024-11-06T02:00:00	4	Temperatura máxima	12.9
184523	7	Sololá	701	Sololá	2	El tablón	10	Octubre	2023-10-20T00:00:00	2024-11-06T02:00:00	3	Temperatura mínima	12.6
184524	7	Sololá	701	Sololá	2	El tablón	10	Octubre	2023-10-20T00:00:00	2024-11-06T02:00:00	5	Humedad	89
184525	7	Sololá	701	Sololá	2	El tablón	10	Octubre	2023-10-20T00:00:00	2024-11-06T02:00:00	6	Velocidad del viento	4.8
184526	7	Sololá	701	Sololá	2	El tablón	10	Octubre	2023-10-20T00:00:00	2024-11-06T02:00:00	7	Dirección del viento	4.83
184527	7	Sololá	701	Sololá	2	El tablón	10	Octubre	2023-10-20T00:00:00	2024-11-06T02:00:00	1	Precipitación	0
184528	7	Sololá	701	Sololá	2	El tablón	10	Octubre	2023-10-20T00:00:00	2024-11-06T02:00:00	8	Radiación solar	0
184529	7	Sololá	701	Sololá	2	El tablón	10	Octubre	2023-10-20T00:00:00	2024-11-06T03:00:00	2	Temperatura media	12.3
184530	7	Sololá	701	Sololá	2	El tablón	10	Octubre	2023-10-20T00:00:00	2024-11-06T03:00:00	4	Temperatura máxima	12.7
184531	7	Sololá	701	Sololá	2	El tablón	10	Octubre	2023-10-20T00:00:00	2024-11-06T03:00:00	3	Temperatura mínima	12.3
184532	7	Sololá	701	Sololá	2	El tablón	10	Octubre	2023-10-20T00:00:00	2024-11-06T03:00:00	5	Humedad	89
184533	7	Sololá	701	Sololá	2	El tablón	10	Octubre	2023-10-20T00:00:00	2024-11-06T03:00:00	6	Velocidad del viento	3.2
184534	7	Sololá	701	Sololá	2	El tablón	10	Octubre	2023-10-20T00:00:00	2024-11-06T03:00:00	7	Dirección del viento	3.22
184535	7	Sololá	701	Sololá	2	El tablón	10	Octubre	2023-10-20T00:00:00	2024-11-06T03:00:00	1	Precipitación	0
184536	7	Sololá	701	Sololá	2	El tablón	10	Octubre	2023-10-20T00:00:00	2024-11-06T03:00:00	8	Radiación solar	0
184537	7	Sololá	701	Sololá	2	El tablón	10	Octubre	2023-10-20T00:00:00	2024-11-06T04:00:00	2	Temperatura media	11.6
184538	7	Sololá	701	Sololá	2	El tablón	10	Octubre	2023-10-20T00:00:00	2024-11-06T04:00:00	4	Temperatura máxima	12.4
184539	7	Sololá	701	Sololá	2	El tablón	10	Octubre	2023-10-20T00:00:00	2024-11-06T04:00:00	3	Temperatura mínima	11.6
184540	7	Sololá	701	Sololá	2	El tablón	10	Octubre	2023-10-20T00:00:00	2024-11-06T04:00:00	5	Humedad	89
184541	7	Sololá	701	Sololá	2	El tablón	10	Octubre	2023-10-20T00:00:00	2024-11-06T04:00:00	6	Velocidad del viento	3.2
184542	7	Sololá	701	Sololá	2	El tablón	10	Octubre	2023-10-20T00:00:00	2024-11-06T04:00:00	7	Dirección del viento	3.22
184543	7	Sololá	701	Sololá	2	El tablón	10	Octubre	2023-10-20T00:00:00	2024-11-06T04:00:00	1	Precipitación	0
184544	7	Sololá	701	Sololá	2	El tablón	10	Octubre	2023-10-20T00:00:00	2024-11-06T04:00:00	8	Radiación solar	0
184545	7	Sololá	701	Sololá	2	El tablón	10	Octubre	2023-10-20T00:00:00	2024-11-06T05:00:00	2	Temperatura media	11.3
184546	7	Sololá	701	Sololá	2	El tablón	10	Octubre	2023-10-20T00:00:00	2024-11-06T05:00:00	4	Temperatura máxima	11.5
184547	7	Sololá	701	Sololá	2	El tablón	10	Octubre	2023-10-20T00:00:00	2024-11-06T05:00:00	3	Temperatura mínima	11
184548	7	Sololá	701	Sololá	2	El tablón	10	Octubre	2023-10-20T00:00:00	2024-11-06T05:00:00	5	Humedad	89
184549	7	Sololá	701	Sololá	2	El tablón	10	Octubre	2023-10-20T00:00:00	2024-11-06T05:00:00	6	Velocidad del viento	1.6
184550	7	Sololá	701	Sololá	2	El tablón	10	Octubre	2023-10-20T00:00:00	2024-11-06T05:00:00	7	Dirección del viento	1.61
184551	7	Sololá	701	Sololá	2	El tablón	10	Octubre	2023-10-20T00:00:00	2024-11-06T05:00:00	1	Precipitación	0
184552	7	Sololá	701	Sololá	2	El tablón	10	Octubre	2023-10-20T00:00:00	2024-11-06T05:00:00	8	Radiación solar	0
184553	7	Sololá	701	Sololá	2	El tablón	10	Octubre	2023-10-20T00:00:00	2024-11-06T06:00:00	2	Temperatura media	11
184554	7	Sololá	701	Sololá	2	El tablón	10	Octubre	2023-10-20T00:00:00	2024-11-06T06:00:00	4	Temperatura máxima	11.5
184555	7	Sololá	701	Sololá	2	El tablón	10	Octubre	2023-10-20T00:00:00	2024-11-06T06:00:00	3	Temperatura mínima	11
184556	7	Sololá	701	Sololá	2	El tablón	10	Octubre	2023-10-20T00:00:00	2024-11-06T06:00:00	5	Humedad	89
184557	7	Sololá	701	Sololá	2	El tablón	10	Octubre	2023-10-20T00:00:00	2024-11-06T06:00:00	6	Velocidad del viento	3.2
184558	7	Sololá	701	Sololá	2	El tablón	10	Octubre	2023-10-20T00:00:00	2024-11-06T06:00:00	7	Dirección del viento	3.22
184559	7	Sololá	701	Sololá	2	El tablón	10	Octubre	2023-10-20T00:00:00	2024-11-06T06:00:00	1	Precipitación	0
184560	7	Sololá	701	Sololá	2	El tablón	10	Octubre	2023-10-20T00:00:00	2024-11-06T06:00:00	8	Radiación solar	0
184561	7	Sololá	701	Sololá	2	El tablón	10	Octubre	2023-10-20T00:00:00	2024-11-06T07:00:00	2	Temperatura media	12.7
184562	7	Sololá	701	Sololá	2	El tablón	10	Octubre	2023-10-20T00:00:00	2024-11-06T07:00:00	4	Temperatura máxima	12.7
184563	7	Sololá	701	Sololá	2	El tablón	10	Octubre	2023-10-20T00:00:00	2024-11-06T07:00:00	3	Temperatura mínima	11
184564	7	Sololá	701	Sololá	2	El tablón	10	Octubre	2023-10-20T00:00:00	2024-11-06T07:00:00	5	Humedad	88
184565	7	Sololá	701	Sololá	2	El tablón	10	Octubre	2023-10-20T00:00:00	2024-11-06T07:00:00	6	Velocidad del viento	6.4
184566	7	Sololá	701	Sololá	2	El tablón	10	Octubre	2023-10-20T00:00:00	2024-11-06T07:00:00	7	Dirección del viento	6.44
184567	7	Sololá	701	Sololá	2	El tablón	10	Octubre	2023-10-20T00:00:00	2024-11-06T07:00:00	1	Precipitación	0
184568	7	Sololá	701	Sololá	2	El tablón	10	Octubre	2023-10-20T00:00:00	2024-11-06T07:00:00	8	Radiación solar	63
184569	7	Sololá	701	Sololá	2	El tablón	10	Octubre	2023-10-20T00:00:00	2024-11-06T08:00:00	2	Temperatura media	16.3
184570	7	Sololá	701	Sololá	2	El tablón	10	Octubre	2023-10-20T00:00:00	2024-11-06T08:00:00	4	Temperatura máxima	16.3
184571	7	Sololá	701	Sololá	2	El tablón	10	Octubre	2023-10-20T00:00:00	2024-11-06T08:00:00	3	Temperatura mínima	12.7
184572	7	Sololá	701	Sololá	2	El tablón	10	Octubre	2023-10-20T00:00:00	2024-11-06T08:00:00	5	Humedad	77
184573	7	Sololá	701	Sololá	2	El tablón	10	Octubre	2023-10-20T00:00:00	2024-11-06T08:00:00	6	Velocidad del viento	3.2
184574	7	Sololá	701	Sololá	2	El tablón	10	Octubre	2023-10-20T00:00:00	2024-11-06T08:00:00	7	Dirección del viento	3.22
184575	7	Sololá	701	Sololá	2	El tablón	10	Octubre	2023-10-20T00:00:00	2024-11-06T08:00:00	1	Precipitación	0
184576	7	Sololá	701	Sololá	2	El tablón	10	Octubre	2023-10-20T00:00:00	2024-11-06T08:00:00	8	Radiación solar	210
184577	7	Sololá	701	Sololá	2	El tablón	10	Octubre	2023-10-20T00:00:00	2024-11-06T09:00:00	2	Temperatura media	17.7
184578	7	Sololá	701	Sololá	2	El tablón	10	Octubre	2023-10-20T00:00:00	2024-11-06T09:00:00	4	Temperatura máxima	17.7
184579	7	Sololá	701	Sololá	2	El tablón	10	Octubre	2023-10-20T00:00:00	2024-11-06T09:00:00	3	Temperatura mínima	16.3
184580	7	Sololá	701	Sololá	2	El tablón	10	Octubre	2023-10-20T00:00:00	2024-11-06T09:00:00	5	Humedad	74
184581	7	Sololá	701	Sololá	2	El tablón	10	Octubre	2023-10-20T00:00:00	2024-11-06T09:00:00	6	Velocidad del viento	4.8
184582	7	Sololá	701	Sololá	2	El tablón	10	Octubre	2023-10-20T00:00:00	2024-11-06T09:00:00	7	Dirección del viento	4.83
184583	7	Sololá	701	Sololá	2	El tablón	10	Octubre	2023-10-20T00:00:00	2024-11-06T09:00:00	1	Precipitación	0
184584	7	Sololá	701	Sololá	2	El tablón	10	Octubre	2023-10-20T00:00:00	2024-11-06T09:00:00	8	Radiación solar	439
184585	7	Sololá	701	Sololá	2	El tablón	10	Octubre	2023-10-20T00:00:00	2024-11-06T10:00:00	2	Temperatura media	17.9
184586	7	Sololá	701	Sololá	2	El tablón	10	Octubre	2023-10-20T00:00:00	2024-11-06T10:00:00	4	Temperatura máxima	18.2
184587	7	Sololá	701	Sololá	2	El tablón	10	Octubre	2023-10-20T00:00:00	2024-11-06T10:00:00	3	Temperatura mínima	17.4
184588	7	Sololá	701	Sololá	2	El tablón	10	Octubre	2023-10-20T00:00:00	2024-11-06T10:00:00	5	Humedad	77
184589	7	Sololá	701	Sololá	2	El tablón	10	Octubre	2023-10-20T00:00:00	2024-11-06T10:00:00	6	Velocidad del viento	8
184590	7	Sololá	701	Sololá	2	El tablón	10	Octubre	2023-10-20T00:00:00	2024-11-06T10:00:00	7	Dirección del viento	8.05
184591	7	Sololá	701	Sololá	2	El tablón	10	Octubre	2023-10-20T00:00:00	2024-11-06T10:00:00	1	Precipitación	0
184592	7	Sololá	701	Sololá	2	El tablón	10	Octubre	2023-10-20T00:00:00	2024-11-06T10:00:00	8	Radiación solar	644
184593	7	Sololá	701	Sololá	2	El tablón	10	Octubre	2023-10-20T00:00:00	2024-11-06T11:00:00	2	Temperatura media	18.1
184594	7	Sololá	701	Sololá	2	El tablón	10	Octubre	2023-10-20T00:00:00	2024-11-06T11:00:00	4	Temperatura máxima	18.8
184595	7	Sololá	701	Sololá	2	El tablón	10	Octubre	2023-10-20T00:00:00	2024-11-06T11:00:00	3	Temperatura mínima	17.9
184596	7	Sololá	701	Sololá	2	El tablón	10	Octubre	2023-10-20T00:00:00	2024-11-06T11:00:00	5	Humedad	80
184597	7	Sololá	701	Sololá	2	El tablón	10	Octubre	2023-10-20T00:00:00	2024-11-06T11:00:00	6	Velocidad del viento	9.7
184598	7	Sololá	701	Sololá	2	El tablón	10	Octubre	2023-10-20T00:00:00	2024-11-06T11:00:00	7	Dirección del viento	9.66
184599	7	Sololá	701	Sololá	2	El tablón	10	Octubre	2023-10-20T00:00:00	2024-11-06T11:00:00	1	Precipitación	0
184600	7	Sololá	701	Sololá	2	El tablón	10	Octubre	2023-10-20T00:00:00	2024-11-06T11:00:00	8	Radiación solar	821
184601	7	Sololá	701	Sololá	2	El tablón	10	Octubre	2023-10-20T00:00:00	2024-11-06T12:00:00	2	Temperatura media	17.4
184602	7	Sololá	701	Sololá	2	El tablón	10	Octubre	2023-10-20T00:00:00	2024-11-06T12:00:00	4	Temperatura máxima	18.1
184603	7	Sololá	701	Sololá	2	El tablón	10	Octubre	2023-10-20T00:00:00	2024-11-06T12:00:00	3	Temperatura mínima	17.4
184604	7	Sololá	701	Sololá	2	El tablón	10	Octubre	2023-10-20T00:00:00	2024-11-06T12:00:00	5	Humedad	84
184605	7	Sololá	701	Sololá	2	El tablón	10	Octubre	2023-10-20T00:00:00	2024-11-06T12:00:00	6	Velocidad del viento	8
184606	7	Sololá	701	Sololá	2	El tablón	10	Octubre	2023-10-20T00:00:00	2024-11-06T12:00:00	7	Dirección del viento	8.05
184607	7	Sololá	701	Sololá	2	El tablón	10	Octubre	2023-10-20T00:00:00	2024-11-06T12:00:00	1	Precipitación	0
184608	7	Sololá	701	Sololá	2	El tablón	10	Octubre	2023-10-20T00:00:00	2024-11-06T12:00:00	8	Radiación solar	807
184609	7	Sololá	701	Sololá	2	El tablón	10	Octubre	2023-10-20T00:00:00	2024-11-06T13:00:00	2	Temperatura media	17.1
184610	7	Sololá	701	Sololá	2	El tablón	10	Octubre	2023-10-20T00:00:00	2024-11-06T13:00:00	4	Temperatura máxima	17.4
184611	7	Sololá	701	Sololá	2	El tablón	10	Octubre	2023-10-20T00:00:00	2024-11-06T13:00:00	3	Temperatura mínima	16.4
184612	7	Sololá	701	Sololá	2	El tablón	10	Octubre	2023-10-20T00:00:00	2024-11-06T13:00:00	5	Humedad	86
184613	7	Sololá	701	Sololá	2	El tablón	10	Octubre	2023-10-20T00:00:00	2024-11-06T13:00:00	6	Velocidad del viento	6.4
184614	7	Sololá	701	Sololá	2	El tablón	10	Octubre	2023-10-20T00:00:00	2024-11-06T13:00:00	7	Dirección del viento	6.44
184615	7	Sololá	701	Sololá	2	El tablón	10	Octubre	2023-10-20T00:00:00	2024-11-06T13:00:00	1	Precipitación	0
184616	7	Sololá	701	Sololá	2	El tablón	10	Octubre	2023-10-20T00:00:00	2024-11-06T13:00:00	8	Radiación solar	398
184617	7	Sololá	701	Sololá	2	El tablón	10	Octubre	2023-10-20T00:00:00	2024-11-06T14:00:00	2	Temperatura media	16.3
184618	7	Sololá	701	Sololá	2	El tablón	10	Octubre	2023-10-20T00:00:00	2024-11-06T14:00:00	4	Temperatura máxima	17.2
184619	7	Sololá	701	Sololá	2	El tablón	10	Octubre	2023-10-20T00:00:00	2024-11-06T14:00:00	3	Temperatura mínima	16.3
184620	7	Sololá	701	Sololá	2	El tablón	10	Octubre	2023-10-20T00:00:00	2024-11-06T14:00:00	5	Humedad	88
184621	7	Sololá	701	Sololá	2	El tablón	10	Octubre	2023-10-20T00:00:00	2024-11-06T14:00:00	6	Velocidad del viento	4.8
184622	7	Sololá	701	Sololá	2	El tablón	10	Octubre	2023-10-20T00:00:00	2024-11-06T14:00:00	7	Dirección del viento	4.83
184623	7	Sololá	701	Sololá	2	El tablón	10	Octubre	2023-10-20T00:00:00	2024-11-06T14:00:00	1	Precipitación	0
184624	7	Sololá	701	Sololá	2	El tablón	10	Octubre	2023-10-20T00:00:00	2024-11-06T14:00:00	8	Radiación solar	285
184625	7	Sololá	701	Sololá	2	El tablón	10	Octubre	2023-10-20T00:00:00	2024-11-06T15:00:00	2	Temperatura media	15.7
184626	7	Sololá	701	Sololá	2	El tablón	10	Octubre	2023-10-20T00:00:00	2024-11-06T15:00:00	4	Temperatura máxima	16.3
184627	7	Sololá	701	Sololá	2	El tablón	10	Octubre	2023-10-20T00:00:00	2024-11-06T15:00:00	3	Temperatura mínima	15.3
184628	7	Sololá	701	Sololá	2	El tablón	10	Octubre	2023-10-20T00:00:00	2024-11-06T15:00:00	5	Humedad	88
184629	7	Sololá	701	Sololá	2	El tablón	10	Octubre	2023-10-20T00:00:00	2024-11-06T15:00:00	6	Velocidad del viento	3.2
184630	7	Sololá	701	Sololá	2	El tablón	10	Octubre	2023-10-20T00:00:00	2024-11-06T15:00:00	7	Dirección del viento	3.22
184631	7	Sololá	701	Sololá	2	El tablón	10	Octubre	2023-10-20T00:00:00	2024-11-06T15:00:00	1	Precipitación	0
184632	7	Sololá	701	Sololá	2	El tablón	10	Octubre	2023-10-20T00:00:00	2024-11-06T15:00:00	8	Radiación solar	129
184633	7	Sololá	701	Sololá	2	El tablón	10	Octubre	2023-10-20T00:00:00	2024-11-06T16:00:00	2	Temperatura media	16.4
184634	7	Sololá	701	Sololá	2	El tablón	10	Octubre	2023-10-20T00:00:00	2024-11-06T16:00:00	4	Temperatura máxima	16.8
184635	7	Sololá	701	Sololá	2	El tablón	10	Octubre	2023-10-20T00:00:00	2024-11-06T16:00:00	3	Temperatura mínima	15.7
184636	7	Sololá	701	Sololá	2	El tablón	10	Octubre	2023-10-20T00:00:00	2024-11-06T16:00:00	5	Humedad	88
184637	7	Sololá	701	Sololá	2	El tablón	10	Octubre	2023-10-20T00:00:00	2024-11-06T16:00:00	6	Velocidad del viento	3.2
184638	7	Sololá	701	Sololá	2	El tablón	10	Octubre	2023-10-20T00:00:00	2024-11-06T16:00:00	7	Dirección del viento	3.22
184639	7	Sololá	701	Sololá	2	El tablón	10	Octubre	2023-10-20T00:00:00	2024-11-06T16:00:00	1	Precipitación	0
184640	7	Sololá	701	Sololá	2	El tablón	10	Octubre	2023-10-20T00:00:00	2024-11-06T16:00:00	8	Radiación solar	201
184641	7	Sololá	701	Sololá	2	El tablón	10	Octubre	2023-10-20T00:00:00	2024-11-06T17:00:00	2	Temperatura media	16.1
184642	7	Sololá	701	Sololá	2	El tablón	10	Octubre	2023-10-20T00:00:00	2024-11-06T17:00:00	4	Temperatura máxima	16.6
184643	7	Sololá	701	Sololá	2	El tablón	10	Octubre	2023-10-20T00:00:00	2024-11-06T17:00:00	3	Temperatura mínima	15.9
184644	7	Sololá	701	Sololá	2	El tablón	10	Octubre	2023-10-20T00:00:00	2024-11-06T17:00:00	5	Humedad	87
184645	7	Sololá	701	Sololá	2	El tablón	10	Octubre	2023-10-20T00:00:00	2024-11-06T17:00:00	6	Velocidad del viento	4.8
184646	7	Sololá	701	Sololá	2	El tablón	10	Octubre	2023-10-20T00:00:00	2024-11-06T17:00:00	7	Dirección del viento	4.83
184647	7	Sololá	701	Sololá	2	El tablón	10	Octubre	2023-10-20T00:00:00	2024-11-06T17:00:00	1	Precipitación	0
184648	7	Sololá	701	Sololá	2	El tablón	10	Octubre	2023-10-20T00:00:00	2024-11-06T17:00:00	8	Radiación solar	150
184649	7	Sololá	701	Sololá	2	El tablón	10	Octubre	2023-10-20T00:00:00	2024-11-06T18:00:00	2	Temperatura media	14.6
184650	7	Sololá	701	Sololá	2	El tablón	10	Octubre	2023-10-20T00:00:00	2024-11-06T18:00:00	4	Temperatura máxima	16.1
184651	7	Sololá	701	Sololá	2	El tablón	10	Octubre	2023-10-20T00:00:00	2024-11-06T18:00:00	3	Temperatura mínima	14.6
184652	7	Sololá	701	Sololá	2	El tablón	10	Octubre	2023-10-20T00:00:00	2024-11-06T18:00:00	5	Humedad	87
184653	7	Sololá	701	Sololá	2	El tablón	10	Octubre	2023-10-20T00:00:00	2024-11-06T18:00:00	6	Velocidad del viento	3.2
184654	7	Sololá	701	Sololá	2	El tablón	10	Octubre	2023-10-20T00:00:00	2024-11-06T18:00:00	7	Dirección del viento	3.22
184655	7	Sololá	701	Sololá	2	El tablón	10	Octubre	2023-10-20T00:00:00	2024-11-06T18:00:00	1	Precipitación	0
184656	7	Sololá	701	Sololá	2	El tablón	10	Octubre	2023-10-20T00:00:00	2024-11-06T18:00:00	8	Radiación solar	17
184657	7	Sololá	701	Sololá	2	El tablón	10	Octubre	2023-10-20T00:00:00	2024-11-06T19:00:00	2	Temperatura media	13.7
184658	7	Sololá	701	Sololá	2	El tablón	10	Octubre	2023-10-20T00:00:00	2024-11-06T19:00:00	4	Temperatura máxima	14.6
184659	7	Sololá	701	Sololá	2	El tablón	10	Octubre	2023-10-20T00:00:00	2024-11-06T19:00:00	3	Temperatura mínima	13.7
184660	7	Sololá	701	Sololá	2	El tablón	10	Octubre	2023-10-20T00:00:00	2024-11-06T19:00:00	5	Humedad	88
184661	7	Sololá	701	Sololá	2	El tablón	10	Octubre	2023-10-20T00:00:00	2024-11-06T19:00:00	6	Velocidad del viento	3.2
184662	7	Sololá	701	Sololá	2	El tablón	10	Octubre	2023-10-20T00:00:00	2024-11-06T19:00:00	7	Dirección del viento	3.22
184663	7	Sololá	701	Sololá	2	El tablón	10	Octubre	2023-10-20T00:00:00	2024-11-06T19:00:00	1	Precipitación	0
184664	7	Sololá	701	Sololá	2	El tablón	10	Octubre	2023-10-20T00:00:00	2024-11-06T19:00:00	8	Radiación solar	0
184665	7	Sololá	701	Sololá	2	El tablón	10	Octubre	2023-10-20T00:00:00	2024-11-06T20:00:00	2	Temperatura media	13.9
184666	7	Sololá	701	Sololá	2	El tablón	10	Octubre	2023-10-20T00:00:00	2024-11-06T20:00:00	4	Temperatura máxima	14.1
184667	7	Sololá	701	Sololá	2	El tablón	10	Octubre	2023-10-20T00:00:00	2024-11-06T20:00:00	3	Temperatura mínima	13.7
184668	7	Sololá	701	Sololá	2	El tablón	10	Octubre	2023-10-20T00:00:00	2024-11-06T20:00:00	5	Humedad	89
184669	7	Sololá	701	Sololá	2	El tablón	10	Octubre	2023-10-20T00:00:00	2024-11-06T20:00:00	6	Velocidad del viento	4.8
184670	7	Sololá	701	Sololá	2	El tablón	10	Octubre	2023-10-20T00:00:00	2024-11-06T20:00:00	7	Dirección del viento	4.83
184671	7	Sololá	701	Sololá	2	El tablón	10	Octubre	2023-10-20T00:00:00	2024-11-06T20:00:00	1	Precipitación	0
184672	7	Sololá	701	Sololá	2	El tablón	10	Octubre	2023-10-20T00:00:00	2024-11-06T20:00:00	8	Radiación solar	0
184673	7	Sololá	701	Sololá	2	El tablón	10	Octubre	2023-10-20T00:00:00	2024-11-06T21:00:00	2	Temperatura media	13.6
184674	7	Sololá	701	Sololá	2	El tablón	10	Octubre	2023-10-20T00:00:00	2024-11-06T21:00:00	4	Temperatura máxima	13.9
184675	7	Sololá	701	Sololá	2	El tablón	10	Octubre	2023-10-20T00:00:00	2024-11-06T21:00:00	3	Temperatura mínima	13.6
184676	7	Sololá	701	Sololá	2	El tablón	10	Octubre	2023-10-20T00:00:00	2024-11-06T21:00:00	5	Humedad	88
184677	7	Sololá	701	Sololá	2	El tablón	10	Octubre	2023-10-20T00:00:00	2024-11-06T21:00:00	6	Velocidad del viento	4.8
184678	7	Sololá	701	Sololá	2	El tablón	10	Octubre	2023-10-20T00:00:00	2024-11-06T21:00:00	7	Dirección del viento	4.83
184679	7	Sololá	701	Sololá	2	El tablón	10	Octubre	2023-10-20T00:00:00	2024-11-06T21:00:00	1	Precipitación	0
184680	7	Sololá	701	Sololá	2	El tablón	10	Octubre	2023-10-20T00:00:00	2024-11-06T21:00:00	8	Radiación solar	0
184681	7	Sololá	701	Sololá	2	El tablón	10	Octubre	2023-10-20T00:00:00	2024-11-06T22:00:00	2	Temperatura media	13.3
184682	7	Sololá	701	Sololá	2	El tablón	10	Octubre	2023-10-20T00:00:00	2024-11-06T22:00:00	4	Temperatura máxima	13.6
184683	7	Sololá	701	Sololá	2	El tablón	10	Octubre	2023-10-20T00:00:00	2024-11-06T22:00:00	3	Temperatura mínima	13.3
184684	7	Sololá	701	Sololá	2	El tablón	10	Octubre	2023-10-20T00:00:00	2024-11-06T22:00:00	5	Humedad	89
184685	7	Sololá	701	Sololá	2	El tablón	10	Octubre	2023-10-20T00:00:00	2024-11-06T22:00:00	6	Velocidad del viento	8
184686	7	Sololá	701	Sololá	2	El tablón	10	Octubre	2023-10-20T00:00:00	2024-11-06T22:00:00	7	Dirección del viento	8.05
184687	7	Sololá	701	Sololá	2	El tablón	10	Octubre	2023-10-20T00:00:00	2024-11-06T22:00:00	1	Precipitación	0
184688	7	Sololá	701	Sololá	2	El tablón	10	Octubre	2023-10-20T00:00:00	2024-11-06T22:00:00	8	Radiación solar	0
184689	7	Sololá	701	Sololá	2	El tablón	10	Octubre	2023-10-20T00:00:00	2024-11-06T23:00:00	2	Temperatura media	12.8
184690	7	Sololá	701	Sololá	2	El tablón	10	Octubre	2023-10-20T00:00:00	2024-11-06T23:00:00	4	Temperatura máxima	13.3
184691	7	Sololá	701	Sololá	2	El tablón	10	Octubre	2023-10-20T00:00:00	2024-11-06T23:00:00	3	Temperatura mínima	12.8
184692	7	Sololá	701	Sololá	2	El tablón	10	Octubre	2023-10-20T00:00:00	2024-11-06T23:00:00	5	Humedad	88
184693	7	Sololá	701	Sololá	2	El tablón	10	Octubre	2023-10-20T00:00:00	2024-11-06T23:00:00	6	Velocidad del viento	6.4
184694	7	Sololá	701	Sololá	2	El tablón	10	Octubre	2023-10-20T00:00:00	2024-11-06T23:00:00	7	Dirección del viento	6.44
184695	7	Sololá	701	Sololá	2	El tablón	10	Octubre	2023-10-20T00:00:00	2024-11-06T23:00:00	1	Precipitación	0
184696	7	Sololá	701	Sololá	2	El tablón	10	Octubre	2023-10-20T00:00:00	2024-11-06T23:00:00	8	Radiación solar	0
184697	7	Sololá	701	Sololá	2	El tablón	10	Octubre	2023-10-21T00:00:00	2024-11-06T00:00:00	2	Temperatura media	11.9
184698	7	Sololá	701	Sololá	2	El tablón	10	Octubre	2023-10-21T00:00:00	2024-11-06T00:00:00	4	Temperatura máxima	12.8
184699	7	Sololá	701	Sololá	2	El tablón	10	Octubre	2023-10-21T00:00:00	2024-11-06T00:00:00	3	Temperatura mínima	11.8
184700	7	Sololá	701	Sololá	2	El tablón	10	Octubre	2023-10-21T00:00:00	2024-11-06T00:00:00	5	Humedad	89
184701	7	Sololá	701	Sololá	2	El tablón	10	Octubre	2023-10-21T00:00:00	2024-11-06T00:00:00	6	Velocidad del viento	1.6
184702	7	Sololá	701	Sololá	2	El tablón	10	Octubre	2023-10-21T00:00:00	2024-11-06T00:00:00	7	Dirección del viento	1.61
184703	7	Sololá	701	Sololá	2	El tablón	10	Octubre	2023-10-21T00:00:00	2024-11-06T00:00:00	1	Precipitación	0
184704	7	Sololá	701	Sololá	2	El tablón	10	Octubre	2023-10-21T00:00:00	2024-11-06T00:00:00	8	Radiación solar	0
184705	7	Sololá	701	Sololá	2	El tablón	10	Octubre	2023-10-21T00:00:00	2024-11-06T01:00:00	2	Temperatura media	11.9
184706	7	Sololá	701	Sololá	2	El tablón	10	Octubre	2023-10-21T00:00:00	2024-11-06T01:00:00	4	Temperatura máxima	11.9
184707	7	Sololá	701	Sololá	2	El tablón	10	Octubre	2023-10-21T00:00:00	2024-11-06T01:00:00	3	Temperatura mínima	11.6
184708	7	Sololá	701	Sololá	2	El tablón	10	Octubre	2023-10-21T00:00:00	2024-11-06T01:00:00	5	Humedad	89
184709	7	Sololá	701	Sololá	2	El tablón	10	Octubre	2023-10-21T00:00:00	2024-11-06T01:00:00	6	Velocidad del viento	3.2
184710	7	Sololá	701	Sololá	2	El tablón	10	Octubre	2023-10-21T00:00:00	2024-11-06T01:00:00	7	Dirección del viento	3.22
184711	7	Sololá	701	Sololá	2	El tablón	10	Octubre	2023-10-21T00:00:00	2024-11-06T01:00:00	1	Precipitación	0
184712	7	Sololá	701	Sololá	2	El tablón	10	Octubre	2023-10-21T00:00:00	2024-11-06T01:00:00	8	Radiación solar	0
184713	7	Sololá	701	Sololá	2	El tablón	10	Octubre	2023-10-21T00:00:00	2024-11-06T02:00:00	2	Temperatura media	11.7
184714	7	Sololá	701	Sololá	2	El tablón	10	Octubre	2023-10-21T00:00:00	2024-11-06T02:00:00	4	Temperatura máxima	12.1
184715	7	Sololá	701	Sololá	2	El tablón	10	Octubre	2023-10-21T00:00:00	2024-11-06T02:00:00	3	Temperatura mínima	11.7
184716	7	Sololá	701	Sololá	2	El tablón	10	Octubre	2023-10-21T00:00:00	2024-11-06T02:00:00	5	Humedad	89
184717	7	Sololá	701	Sololá	2	El tablón	10	Octubre	2023-10-21T00:00:00	2024-11-06T02:00:00	6	Velocidad del viento	4.8
184718	7	Sololá	701	Sololá	2	El tablón	10	Octubre	2023-10-21T00:00:00	2024-11-06T02:00:00	7	Dirección del viento	4.83
184719	7	Sololá	701	Sololá	2	El tablón	10	Octubre	2023-10-21T00:00:00	2024-11-06T02:00:00	1	Precipitación	0
184720	7	Sololá	701	Sololá	2	El tablón	10	Octubre	2023-10-21T00:00:00	2024-11-06T02:00:00	8	Radiación solar	0
184721	7	Sololá	701	Sololá	2	El tablón	10	Octubre	2023-10-21T00:00:00	2024-11-06T03:00:00	2	Temperatura media	11.2
184722	7	Sololá	701	Sololá	2	El tablón	10	Octubre	2023-10-21T00:00:00	2024-11-06T03:00:00	4	Temperatura máxima	11.8
184723	7	Sololá	701	Sololá	2	El tablón	10	Octubre	2023-10-21T00:00:00	2024-11-06T03:00:00	3	Temperatura mínima	11.2
184724	7	Sololá	701	Sololá	2	El tablón	10	Octubre	2023-10-21T00:00:00	2024-11-06T03:00:00	5	Humedad	89
184725	7	Sololá	701	Sololá	2	El tablón	10	Octubre	2023-10-21T00:00:00	2024-11-06T03:00:00	6	Velocidad del viento	3.2
184726	7	Sololá	701	Sololá	2	El tablón	10	Octubre	2023-10-21T00:00:00	2024-11-06T03:00:00	7	Dirección del viento	3.22
184727	7	Sololá	701	Sololá	2	El tablón	10	Octubre	2023-10-21T00:00:00	2024-11-06T03:00:00	1	Precipitación	0
184728	7	Sololá	701	Sololá	2	El tablón	10	Octubre	2023-10-21T00:00:00	2024-11-06T03:00:00	8	Radiación solar	0
184729	7	Sololá	701	Sololá	2	El tablón	10	Octubre	2023-10-21T00:00:00	2024-11-06T04:00:00	2	Temperatura media	10.6
184730	7	Sololá	701	Sololá	2	El tablón	10	Octubre	2023-10-21T00:00:00	2024-11-06T04:00:00	4	Temperatura máxima	11.2
184731	7	Sololá	701	Sololá	2	El tablón	10	Octubre	2023-10-21T00:00:00	2024-11-06T04:00:00	3	Temperatura mínima	10.6
184732	7	Sololá	701	Sololá	2	El tablón	10	Octubre	2023-10-21T00:00:00	2024-11-06T04:00:00	5	Humedad	89
184733	7	Sololá	701	Sololá	2	El tablón	10	Octubre	2023-10-21T00:00:00	2024-11-06T04:00:00	6	Velocidad del viento	3.2
184734	7	Sololá	701	Sololá	2	El tablón	10	Octubre	2023-10-21T00:00:00	2024-11-06T04:00:00	7	Dirección del viento	3.22
184735	7	Sololá	701	Sololá	2	El tablón	10	Octubre	2023-10-21T00:00:00	2024-11-06T04:00:00	1	Precipitación	0
184736	7	Sololá	701	Sololá	2	El tablón	10	Octubre	2023-10-21T00:00:00	2024-11-06T04:00:00	8	Radiación solar	0
184737	7	Sololá	701	Sololá	2	El tablón	10	Octubre	2023-10-21T00:00:00	2024-11-06T05:00:00	2	Temperatura media	10.3
184738	7	Sololá	701	Sololá	2	El tablón	10	Octubre	2023-10-21T00:00:00	2024-11-06T05:00:00	4	Temperatura máxima	10.6
184739	7	Sololá	701	Sololá	2	El tablón	10	Octubre	2023-10-21T00:00:00	2024-11-06T05:00:00	3	Temperatura mínima	10.3
184740	7	Sololá	701	Sololá	2	El tablón	10	Octubre	2023-10-21T00:00:00	2024-11-06T05:00:00	5	Humedad	89
184741	7	Sololá	701	Sololá	2	El tablón	10	Octubre	2023-10-21T00:00:00	2024-11-06T05:00:00	6	Velocidad del viento	4.8
184742	7	Sololá	701	Sololá	2	El tablón	10	Octubre	2023-10-21T00:00:00	2024-11-06T05:00:00	7	Dirección del viento	4.83
184743	7	Sololá	701	Sololá	2	El tablón	10	Octubre	2023-10-21T00:00:00	2024-11-06T05:00:00	1	Precipitación	0
184744	7	Sololá	701	Sololá	2	El tablón	10	Octubre	2023-10-21T00:00:00	2024-11-06T05:00:00	8	Radiación solar	0
184745	7	Sololá	701	Sololá	2	El tablón	10	Octubre	2023-10-21T00:00:00	2024-11-06T06:00:00	2	Temperatura media	10.6
184746	7	Sololá	701	Sololá	2	El tablón	10	Octubre	2023-10-21T00:00:00	2024-11-06T06:00:00	4	Temperatura máxima	10.6
184747	7	Sololá	701	Sololá	2	El tablón	10	Octubre	2023-10-21T00:00:00	2024-11-06T06:00:00	3	Temperatura mínima	10.3
184748	7	Sololá	701	Sololá	2	El tablón	10	Octubre	2023-10-21T00:00:00	2024-11-06T06:00:00	5	Humedad	89
184749	7	Sololá	701	Sololá	2	El tablón	10	Octubre	2023-10-21T00:00:00	2024-11-06T06:00:00	6	Velocidad del viento	3.2
184750	7	Sololá	701	Sololá	2	El tablón	10	Octubre	2023-10-21T00:00:00	2024-11-06T06:00:00	7	Dirección del viento	3.22
184751	7	Sololá	701	Sololá	2	El tablón	10	Octubre	2023-10-21T00:00:00	2024-11-06T06:00:00	1	Precipitación	0
184752	7	Sololá	701	Sololá	2	El tablón	10	Octubre	2023-10-21T00:00:00	2024-11-06T06:00:00	8	Radiación solar	0
184753	7	Sololá	701	Sololá	2	El tablón	10	Octubre	2023-10-21T00:00:00	2024-11-06T07:00:00	2	Temperatura media	11.9
184754	7	Sololá	701	Sololá	2	El tablón	10	Octubre	2023-10-21T00:00:00	2024-11-06T07:00:00	4	Temperatura máxima	11.9
184755	7	Sololá	701	Sololá	2	El tablón	10	Octubre	2023-10-21T00:00:00	2024-11-06T07:00:00	3	Temperatura mínima	10.6
184756	7	Sololá	701	Sololá	2	El tablón	10	Octubre	2023-10-21T00:00:00	2024-11-06T07:00:00	5	Humedad	89
184757	7	Sololá	701	Sololá	2	El tablón	10	Octubre	2023-10-21T00:00:00	2024-11-06T07:00:00	6	Velocidad del viento	6.4
184758	7	Sololá	701	Sololá	2	El tablón	10	Octubre	2023-10-21T00:00:00	2024-11-06T07:00:00	7	Dirección del viento	6.44
184759	7	Sololá	701	Sololá	2	El tablón	10	Octubre	2023-10-21T00:00:00	2024-11-06T07:00:00	1	Precipitación	0
184760	7	Sololá	701	Sololá	2	El tablón	10	Octubre	2023-10-21T00:00:00	2024-11-06T07:00:00	8	Radiación solar	54
184761	7	Sololá	701	Sololá	2	El tablón	10	Octubre	2023-10-21T00:00:00	2024-11-06T08:00:00	2	Temperatura media	14.4
184762	7	Sololá	701	Sololá	2	El tablón	10	Octubre	2023-10-21T00:00:00	2024-11-06T08:00:00	4	Temperatura máxima	14.5
184763	7	Sololá	701	Sololá	2	El tablón	10	Octubre	2023-10-21T00:00:00	2024-11-06T08:00:00	3	Temperatura mínima	12
184764	7	Sololá	701	Sololá	2	El tablón	10	Octubre	2023-10-21T00:00:00	2024-11-06T08:00:00	5	Humedad	85
184765	7	Sololá	701	Sololá	2	El tablón	10	Octubre	2023-10-21T00:00:00	2024-11-06T08:00:00	6	Velocidad del viento	3.2
184766	7	Sololá	701	Sololá	2	El tablón	10	Octubre	2023-10-21T00:00:00	2024-11-06T08:00:00	7	Dirección del viento	3.22
184767	7	Sololá	701	Sololá	2	El tablón	10	Octubre	2023-10-21T00:00:00	2024-11-06T08:00:00	1	Precipitación	0
184768	7	Sololá	701	Sololá	2	El tablón	10	Octubre	2023-10-21T00:00:00	2024-11-06T08:00:00	8	Radiación solar	217
184769	7	Sololá	701	Sololá	2	El tablón	10	Octubre	2023-10-21T00:00:00	2024-11-06T09:00:00	2	Temperatura media	14.1
184770	7	Sololá	701	Sololá	2	El tablón	10	Octubre	2023-10-21T00:00:00	2024-11-06T09:00:00	4	Temperatura máxima	14.4
184771	7	Sololá	701	Sololá	2	El tablón	10	Octubre	2023-10-21T00:00:00	2024-11-06T09:00:00	3	Temperatura mínima	13.6
184772	7	Sololá	701	Sololá	2	El tablón	10	Octubre	2023-10-21T00:00:00	2024-11-06T09:00:00	5	Humedad	85
184773	7	Sololá	701	Sololá	2	El tablón	10	Octubre	2023-10-21T00:00:00	2024-11-06T09:00:00	6	Velocidad del viento	4.8
184774	7	Sololá	701	Sololá	2	El tablón	10	Octubre	2023-10-21T00:00:00	2024-11-06T09:00:00	7	Dirección del viento	4.83
184775	7	Sololá	701	Sololá	2	El tablón	10	Octubre	2023-10-21T00:00:00	2024-11-06T09:00:00	1	Precipitación	0
184776	7	Sololá	701	Sololá	2	El tablón	10	Octubre	2023-10-21T00:00:00	2024-11-06T09:00:00	8	Radiación solar	223
184777	7	Sololá	701	Sololá	2	El tablón	10	Octubre	2023-10-21T00:00:00	2024-11-06T10:00:00	2	Temperatura media	15.9
184778	7	Sololá	701	Sololá	2	El tablón	10	Octubre	2023-10-21T00:00:00	2024-11-06T10:00:00	4	Temperatura máxima	15.9
184779	7	Sololá	701	Sololá	2	El tablón	10	Octubre	2023-10-21T00:00:00	2024-11-06T10:00:00	3	Temperatura mínima	14.2
184780	7	Sololá	701	Sololá	2	El tablón	10	Octubre	2023-10-21T00:00:00	2024-11-06T10:00:00	5	Humedad	80
184781	7	Sololá	701	Sololá	2	El tablón	10	Octubre	2023-10-21T00:00:00	2024-11-06T10:00:00	6	Velocidad del viento	3.2
184782	7	Sololá	701	Sololá	2	El tablón	10	Octubre	2023-10-21T00:00:00	2024-11-06T10:00:00	7	Dirección del viento	3.22
184783	7	Sololá	701	Sololá	2	El tablón	10	Octubre	2023-10-21T00:00:00	2024-11-06T10:00:00	1	Precipitación	0
184784	7	Sololá	701	Sololá	2	El tablón	10	Octubre	2023-10-21T00:00:00	2024-11-06T10:00:00	8	Radiación solar	384
184785	7	Sololá	701	Sololá	2	El tablón	10	Octubre	2023-10-21T00:00:00	2024-11-06T11:00:00	2	Temperatura media	17.3
184786	7	Sololá	701	Sololá	2	El tablón	10	Octubre	2023-10-21T00:00:00	2024-11-06T11:00:00	4	Temperatura máxima	17.8
184787	7	Sololá	701	Sololá	2	El tablón	10	Octubre	2023-10-21T00:00:00	2024-11-06T11:00:00	3	Temperatura mínima	15.9
184788	7	Sololá	701	Sololá	2	El tablón	10	Octubre	2023-10-21T00:00:00	2024-11-06T11:00:00	5	Humedad	81
184789	7	Sololá	701	Sololá	2	El tablón	10	Octubre	2023-10-21T00:00:00	2024-11-06T11:00:00	6	Velocidad del viento	4.8
184790	7	Sololá	701	Sololá	2	El tablón	10	Octubre	2023-10-21T00:00:00	2024-11-06T11:00:00	7	Dirección del viento	4.83
184791	7	Sololá	701	Sololá	2	El tablón	10	Octubre	2023-10-21T00:00:00	2024-11-06T11:00:00	1	Precipitación	0
184792	7	Sololá	701	Sololá	2	El tablón	10	Octubre	2023-10-21T00:00:00	2024-11-06T11:00:00	8	Radiación solar	618
184793	7	Sololá	701	Sololá	2	El tablón	10	Octubre	2023-10-21T00:00:00	2024-11-06T12:00:00	2	Temperatura media	18.2
184794	7	Sololá	701	Sololá	2	El tablón	10	Octubre	2023-10-21T00:00:00	2024-11-06T12:00:00	4	Temperatura máxima	18.2
184795	7	Sololá	701	Sololá	2	El tablón	10	Octubre	2023-10-21T00:00:00	2024-11-06T12:00:00	3	Temperatura mínima	17.1
184796	7	Sololá	701	Sololá	2	El tablón	10	Octubre	2023-10-21T00:00:00	2024-11-06T12:00:00	5	Humedad	77
184797	7	Sololá	701	Sololá	2	El tablón	10	Octubre	2023-10-21T00:00:00	2024-11-06T12:00:00	6	Velocidad del viento	6.4
184798	7	Sololá	701	Sololá	2	El tablón	10	Octubre	2023-10-21T00:00:00	2024-11-06T12:00:00	7	Dirección del viento	6.44
184799	7	Sololá	701	Sololá	2	El tablón	10	Octubre	2023-10-21T00:00:00	2024-11-06T12:00:00	1	Precipitación	0
184800	7	Sololá	701	Sololá	2	El tablón	10	Octubre	2023-10-21T00:00:00	2024-11-06T12:00:00	8	Radiación solar	536
184801	7	Sololá	701	Sololá	2	El tablón	10	Octubre	2023-10-21T00:00:00	2024-11-06T13:00:00	2	Temperatura media	18.7
184802	7	Sololá	701	Sololá	2	El tablón	10	Octubre	2023-10-21T00:00:00	2024-11-06T13:00:00	4	Temperatura máxima	18.8
184803	7	Sololá	701	Sololá	2	El tablón	10	Octubre	2023-10-21T00:00:00	2024-11-06T13:00:00	3	Temperatura mínima	17.7
184804	7	Sololá	701	Sololá	2	El tablón	10	Octubre	2023-10-21T00:00:00	2024-11-06T13:00:00	5	Humedad	77
184805	7	Sololá	701	Sololá	2	El tablón	10	Octubre	2023-10-21T00:00:00	2024-11-06T13:00:00	6	Velocidad del viento	6.4
184806	7	Sololá	701	Sololá	2	El tablón	10	Octubre	2023-10-21T00:00:00	2024-11-06T13:00:00	7	Dirección del viento	6.44
184807	7	Sololá	701	Sololá	2	El tablón	10	Octubre	2023-10-21T00:00:00	2024-11-06T13:00:00	1	Precipitación	0
184808	7	Sololá	701	Sololá	2	El tablón	10	Octubre	2023-10-21T00:00:00	2024-11-06T13:00:00	8	Radiación solar	950
184809	7	Sololá	701	Sololá	2	El tablón	10	Octubre	2023-10-21T00:00:00	2024-11-06T14:00:00	2	Temperatura media	17.3
184810	7	Sololá	701	Sololá	2	El tablón	10	Octubre	2023-10-21T00:00:00	2024-11-06T14:00:00	4	Temperatura máxima	18.8
184811	7	Sololá	701	Sololá	2	El tablón	10	Octubre	2023-10-21T00:00:00	2024-11-06T14:00:00	3	Temperatura mínima	17.2
184812	7	Sololá	701	Sololá	2	El tablón	10	Octubre	2023-10-21T00:00:00	2024-11-06T14:00:00	5	Humedad	82
184813	7	Sololá	701	Sololá	2	El tablón	10	Octubre	2023-10-21T00:00:00	2024-11-06T14:00:00	6	Velocidad del viento	6.4
184814	7	Sololá	701	Sololá	2	El tablón	10	Octubre	2023-10-21T00:00:00	2024-11-06T14:00:00	7	Dirección del viento	6.44
184815	7	Sololá	701	Sololá	2	El tablón	10	Octubre	2023-10-21T00:00:00	2024-11-06T14:00:00	1	Precipitación	0
184816	7	Sololá	701	Sololá	2	El tablón	10	Octubre	2023-10-21T00:00:00	2024-11-06T14:00:00	8	Radiación solar	801
184817	7	Sololá	701	Sololá	2	El tablón	10	Octubre	2023-10-21T00:00:00	2024-11-06T15:00:00	2	Temperatura media	17.8
184818	7	Sololá	701	Sololá	2	El tablón	10	Octubre	2023-10-21T00:00:00	2024-11-06T15:00:00	4	Temperatura máxima	18.1
184819	7	Sololá	701	Sololá	2	El tablón	10	Octubre	2023-10-21T00:00:00	2024-11-06T15:00:00	3	Temperatura mínima	17
184820	7	Sololá	701	Sololá	2	El tablón	10	Octubre	2023-10-21T00:00:00	2024-11-06T15:00:00	5	Humedad	82
184821	7	Sololá	701	Sololá	2	El tablón	10	Octubre	2023-10-21T00:00:00	2024-11-06T15:00:00	6	Velocidad del viento	6.4
184822	7	Sololá	701	Sololá	2	El tablón	10	Octubre	2023-10-21T00:00:00	2024-11-06T15:00:00	7	Dirección del viento	6.44
184823	7	Sololá	701	Sololá	2	El tablón	10	Octubre	2023-10-21T00:00:00	2024-11-06T15:00:00	1	Precipitación	0
184824	7	Sololá	701	Sololá	2	El tablón	10	Octubre	2023-10-21T00:00:00	2024-11-06T15:00:00	8	Radiación solar	626
184825	7	Sololá	701	Sololá	2	El tablón	10	Octubre	2023-10-21T00:00:00	2024-11-06T16:00:00	2	Temperatura media	15.8
184826	7	Sololá	701	Sololá	2	El tablón	10	Octubre	2023-10-21T00:00:00	2024-11-06T16:00:00	4	Temperatura máxima	18.6
184827	7	Sololá	701	Sololá	2	El tablón	10	Octubre	2023-10-21T00:00:00	2024-11-06T16:00:00	3	Temperatura mínima	15.7
184828	7	Sololá	701	Sololá	2	El tablón	10	Octubre	2023-10-21T00:00:00	2024-11-06T16:00:00	5	Humedad	88
184829	7	Sololá	701	Sololá	2	El tablón	10	Octubre	2023-10-21T00:00:00	2024-11-06T16:00:00	6	Velocidad del viento	4.8
184830	7	Sololá	701	Sololá	2	El tablón	10	Octubre	2023-10-21T00:00:00	2024-11-06T16:00:00	7	Dirección del viento	4.83
184831	7	Sololá	701	Sololá	2	El tablón	10	Octubre	2023-10-21T00:00:00	2024-11-06T16:00:00	1	Precipitación	0
184832	7	Sololá	701	Sololá	2	El tablón	10	Octubre	2023-10-21T00:00:00	2024-11-06T16:00:00	8	Radiación solar	248
184833	7	Sololá	701	Sololá	2	El tablón	10	Octubre	2023-10-21T00:00:00	2024-11-06T17:00:00	2	Temperatura media	14.2
184834	7	Sololá	701	Sololá	2	El tablón	10	Octubre	2023-10-21T00:00:00	2024-11-06T17:00:00	4	Temperatura máxima	15.8
184835	7	Sololá	701	Sololá	2	El tablón	10	Octubre	2023-10-21T00:00:00	2024-11-06T17:00:00	3	Temperatura mínima	14.2
184836	7	Sololá	701	Sololá	2	El tablón	10	Octubre	2023-10-21T00:00:00	2024-11-06T17:00:00	5	Humedad	88
184837	7	Sololá	701	Sololá	2	El tablón	10	Octubre	2023-10-21T00:00:00	2024-11-06T17:00:00	6	Velocidad del viento	4.8
184838	7	Sololá	701	Sololá	2	El tablón	10	Octubre	2023-10-21T00:00:00	2024-11-06T17:00:00	7	Dirección del viento	4.83
184839	7	Sololá	701	Sololá	2	El tablón	10	Octubre	2023-10-21T00:00:00	2024-11-06T17:00:00	1	Precipitación	2
184840	7	Sololá	701	Sololá	2	El tablón	10	Octubre	2023-10-21T00:00:00	2024-11-06T17:00:00	8	Radiación solar	12
184841	7	Sololá	701	Sololá	2	El tablón	10	Octubre	2023-10-21T00:00:00	2024-11-06T18:00:00	2	Temperatura media	11.8
184842	7	Sololá	701	Sololá	2	El tablón	10	Octubre	2023-10-21T00:00:00	2024-11-06T18:00:00	4	Temperatura máxima	14.2
184843	7	Sololá	701	Sololá	2	El tablón	10	Octubre	2023-10-21T00:00:00	2024-11-06T18:00:00	3	Temperatura mínima	11.8
184844	7	Sololá	701	Sololá	2	El tablón	10	Octubre	2023-10-21T00:00:00	2024-11-06T18:00:00	5	Humedad	88
184845	7	Sololá	701	Sololá	2	El tablón	10	Octubre	2023-10-21T00:00:00	2024-11-06T18:00:00	6	Velocidad del viento	6.4
184846	7	Sololá	701	Sololá	2	El tablón	10	Octubre	2023-10-21T00:00:00	2024-11-06T18:00:00	7	Dirección del viento	6.44
184847	7	Sololá	701	Sololá	2	El tablón	10	Octubre	2023-10-21T00:00:00	2024-11-06T18:00:00	1	Precipitación	24.6
184848	7	Sololá	701	Sololá	2	El tablón	10	Octubre	2023-10-21T00:00:00	2024-11-06T18:00:00	8	Radiación solar	0
184849	7	Sololá	701	Sololá	2	El tablón	10	Octubre	2023-10-21T00:00:00	2024-11-06T19:00:00	2	Temperatura media	12.1
184850	7	Sololá	701	Sololá	2	El tablón	10	Octubre	2023-10-21T00:00:00	2024-11-06T19:00:00	4	Temperatura máxima	12.1
184851	7	Sololá	701	Sololá	2	El tablón	10	Octubre	2023-10-21T00:00:00	2024-11-06T19:00:00	3	Temperatura mínima	11.7
184852	7	Sololá	701	Sololá	2	El tablón	10	Octubre	2023-10-21T00:00:00	2024-11-06T19:00:00	5	Humedad	87
184853	7	Sololá	701	Sololá	2	El tablón	10	Octubre	2023-10-21T00:00:00	2024-11-06T19:00:00	6	Velocidad del viento	1.6
184854	7	Sololá	701	Sololá	2	El tablón	10	Octubre	2023-10-21T00:00:00	2024-11-06T19:00:00	7	Dirección del viento	1.61
184855	7	Sololá	701	Sololá	2	El tablón	10	Octubre	2023-10-21T00:00:00	2024-11-06T19:00:00	1	Precipitación	4.2
184856	7	Sololá	701	Sololá	2	El tablón	10	Octubre	2023-10-21T00:00:00	2024-11-06T19:00:00	8	Radiación solar	0
184857	7	Sololá	701	Sololá	2	El tablón	10	Octubre	2023-10-21T00:00:00	2024-11-06T20:00:00	2	Temperatura media	12.4
184858	7	Sololá	701	Sololá	2	El tablón	10	Octubre	2023-10-21T00:00:00	2024-11-06T20:00:00	4	Temperatura máxima	12.4
184859	7	Sololá	701	Sololá	2	El tablón	10	Octubre	2023-10-21T00:00:00	2024-11-06T20:00:00	3	Temperatura mínima	12.1
184860	7	Sololá	701	Sololá	2	El tablón	10	Octubre	2023-10-21T00:00:00	2024-11-06T20:00:00	5	Humedad	88
184861	7	Sololá	701	Sololá	2	El tablón	10	Octubre	2023-10-21T00:00:00	2024-11-06T20:00:00	6	Velocidad del viento	1.6
184862	7	Sololá	701	Sololá	2	El tablón	10	Octubre	2023-10-21T00:00:00	2024-11-06T20:00:00	7	Dirección del viento	1.61
184863	7	Sololá	701	Sololá	2	El tablón	10	Octubre	2023-10-21T00:00:00	2024-11-06T20:00:00	1	Precipitación	0.4
184864	7	Sololá	701	Sololá	2	El tablón	10	Octubre	2023-10-21T00:00:00	2024-11-06T20:00:00	8	Radiación solar	0
184865	7	Sololá	701	Sololá	2	El tablón	10	Octubre	2023-10-21T00:00:00	2024-11-06T21:00:00	2	Temperatura media	12.4
184866	7	Sololá	701	Sololá	2	El tablón	10	Octubre	2023-10-21T00:00:00	2024-11-06T21:00:00	4	Temperatura máxima	12.5
184867	7	Sololá	701	Sololá	2	El tablón	10	Octubre	2023-10-21T00:00:00	2024-11-06T21:00:00	3	Temperatura mínima	12.4
184868	7	Sololá	701	Sololá	2	El tablón	10	Octubre	2023-10-21T00:00:00	2024-11-06T21:00:00	5	Humedad	88
184869	7	Sololá	701	Sololá	2	El tablón	10	Octubre	2023-10-21T00:00:00	2024-11-06T21:00:00	6	Velocidad del viento	1.6
184870	7	Sololá	701	Sololá	2	El tablón	10	Octubre	2023-10-21T00:00:00	2024-11-06T21:00:00	7	Dirección del viento	1.61
184871	7	Sololá	701	Sololá	2	El tablón	10	Octubre	2023-10-21T00:00:00	2024-11-06T21:00:00	1	Precipitación	0
184872	7	Sololá	701	Sololá	2	El tablón	10	Octubre	2023-10-21T00:00:00	2024-11-06T21:00:00	8	Radiación solar	0
184873	7	Sololá	701	Sololá	2	El tablón	10	Octubre	2023-10-21T00:00:00	2024-11-06T22:00:00	2	Temperatura media	12.6
184874	7	Sololá	701	Sololá	2	El tablón	10	Octubre	2023-10-21T00:00:00	2024-11-06T22:00:00	4	Temperatura máxima	12.7
184875	7	Sololá	701	Sololá	2	El tablón	10	Octubre	2023-10-21T00:00:00	2024-11-06T22:00:00	3	Temperatura mínima	12.4
184876	7	Sololá	701	Sololá	2	El tablón	10	Octubre	2023-10-21T00:00:00	2024-11-06T22:00:00	5	Humedad	88
184877	7	Sololá	701	Sololá	2	El tablón	10	Octubre	2023-10-21T00:00:00	2024-11-06T22:00:00	6	Velocidad del viento	0
184878	7	Sololá	701	Sololá	2	El tablón	10	Octubre	2023-10-21T00:00:00	2024-11-06T22:00:00	7	Dirección del viento	0
184879	7	Sololá	701	Sololá	2	El tablón	10	Octubre	2023-10-21T00:00:00	2024-11-06T22:00:00	1	Precipitación	0
184880	7	Sololá	701	Sololá	2	El tablón	10	Octubre	2023-10-21T00:00:00	2024-11-06T22:00:00	8	Radiación solar	0
184881	7	Sololá	701	Sololá	2	El tablón	10	Octubre	2023-10-21T00:00:00	2024-11-06T23:00:00	2	Temperatura media	12.4
184882	7	Sololá	701	Sololá	2	El tablón	10	Octubre	2023-10-21T00:00:00	2024-11-06T23:00:00	4	Temperatura máxima	12.6
184883	7	Sololá	701	Sololá	2	El tablón	10	Octubre	2023-10-21T00:00:00	2024-11-06T23:00:00	3	Temperatura mínima	12.4
184884	7	Sololá	701	Sololá	2	El tablón	10	Octubre	2023-10-21T00:00:00	2024-11-06T23:00:00	5	Humedad	88
184885	7	Sololá	701	Sololá	2	El tablón	10	Octubre	2023-10-21T00:00:00	2024-11-06T23:00:00	6	Velocidad del viento	1.6
184886	7	Sololá	701	Sololá	2	El tablón	10	Octubre	2023-10-21T00:00:00	2024-11-06T23:00:00	7	Dirección del viento	1.61
184887	7	Sololá	701	Sololá	2	El tablón	10	Octubre	2023-10-21T00:00:00	2024-11-06T23:00:00	1	Precipitación	0
184888	7	Sololá	701	Sololá	2	El tablón	10	Octubre	2023-10-21T00:00:00	2024-11-06T23:00:00	8	Radiación solar	0
184889	7	Sololá	701	Sololá	2	El tablón	10	Octubre	2023-10-22T00:00:00	2024-11-06T00:00:00	2	Temperatura media	12.3
184890	7	Sololá	701	Sololá	2	El tablón	10	Octubre	2023-10-22T00:00:00	2024-11-06T00:00:00	4	Temperatura máxima	12.4
184891	7	Sololá	701	Sololá	2	El tablón	10	Octubre	2023-10-22T00:00:00	2024-11-06T00:00:00	3	Temperatura mínima	12.2
184892	7	Sololá	701	Sololá	2	El tablón	10	Octubre	2023-10-22T00:00:00	2024-11-06T00:00:00	5	Humedad	88
184893	7	Sololá	701	Sololá	2	El tablón	10	Octubre	2023-10-22T00:00:00	2024-11-06T00:00:00	6	Velocidad del viento	0
184894	7	Sololá	701	Sololá	2	El tablón	10	Octubre	2023-10-22T00:00:00	2024-11-06T00:00:00	7	Dirección del viento	0
184895	7	Sololá	701	Sololá	2	El tablón	10	Octubre	2023-10-22T00:00:00	2024-11-06T00:00:00	1	Precipitación	0
184896	7	Sololá	701	Sololá	2	El tablón	10	Octubre	2023-10-22T00:00:00	2024-11-06T00:00:00	8	Radiación solar	0
184897	7	Sololá	701	Sololá	2	El tablón	10	Octubre	2023-10-22T00:00:00	2024-11-06T01:00:00	2	Temperatura media	12.3
184898	7	Sololá	701	Sololá	2	El tablón	10	Octubre	2023-10-22T00:00:00	2024-11-06T01:00:00	4	Temperatura máxima	12.4
184899	7	Sololá	701	Sololá	2	El tablón	10	Octubre	2023-10-22T00:00:00	2024-11-06T01:00:00	3	Temperatura mínima	12.3
184900	7	Sololá	701	Sololá	2	El tablón	10	Octubre	2023-10-22T00:00:00	2024-11-06T01:00:00	5	Humedad	88
184901	7	Sololá	701	Sololá	2	El tablón	10	Octubre	2023-10-22T00:00:00	2024-11-06T01:00:00	6	Velocidad del viento	0
184902	7	Sololá	701	Sololá	2	El tablón	10	Octubre	2023-10-22T00:00:00	2024-11-06T01:00:00	7	Dirección del viento	0
184903	7	Sololá	701	Sololá	2	El tablón	10	Octubre	2023-10-22T00:00:00	2024-11-06T01:00:00	1	Precipitación	0
184904	7	Sololá	701	Sololá	2	El tablón	10	Octubre	2023-10-22T00:00:00	2024-11-06T01:00:00	8	Radiación solar	0
184905	7	Sololá	701	Sololá	2	El tablón	10	Octubre	2023-10-22T00:00:00	2024-11-06T02:00:00	2	Temperatura media	12.4
184906	7	Sololá	701	Sololá	2	El tablón	10	Octubre	2023-10-22T00:00:00	2024-11-06T02:00:00	4	Temperatura máxima	12.4
184907	7	Sololá	701	Sololá	2	El tablón	10	Octubre	2023-10-22T00:00:00	2024-11-06T02:00:00	3	Temperatura mínima	12.3
184908	7	Sololá	701	Sololá	2	El tablón	10	Octubre	2023-10-22T00:00:00	2024-11-06T02:00:00	5	Humedad	88
184909	7	Sololá	701	Sololá	2	El tablón	10	Octubre	2023-10-22T00:00:00	2024-11-06T02:00:00	6	Velocidad del viento	0
184910	7	Sololá	701	Sololá	2	El tablón	10	Octubre	2023-10-22T00:00:00	2024-11-06T02:00:00	7	Dirección del viento	0
184911	7	Sololá	701	Sololá	2	El tablón	10	Octubre	2023-10-22T00:00:00	2024-11-06T02:00:00	1	Precipitación	0
184912	7	Sololá	701	Sololá	2	El tablón	10	Octubre	2023-10-22T00:00:00	2024-11-06T02:00:00	8	Radiación solar	0
184913	7	Sololá	701	Sololá	2	El tablón	10	Octubre	2023-10-22T00:00:00	2024-11-06T03:00:00	2	Temperatura media	12.2
184914	7	Sololá	701	Sololá	2	El tablón	10	Octubre	2023-10-22T00:00:00	2024-11-06T03:00:00	4	Temperatura máxima	12.4
184915	7	Sololá	701	Sololá	2	El tablón	10	Octubre	2023-10-22T00:00:00	2024-11-06T03:00:00	3	Temperatura mínima	12.2
184916	7	Sololá	701	Sololá	2	El tablón	10	Octubre	2023-10-22T00:00:00	2024-11-06T03:00:00	5	Humedad	88
184917	7	Sololá	701	Sololá	2	El tablón	10	Octubre	2023-10-22T00:00:00	2024-11-06T03:00:00	6	Velocidad del viento	0
184918	7	Sololá	701	Sololá	2	El tablón	10	Octubre	2023-10-22T00:00:00	2024-11-06T03:00:00	7	Dirección del viento	0
184919	7	Sololá	701	Sololá	2	El tablón	10	Octubre	2023-10-22T00:00:00	2024-11-06T03:00:00	1	Precipitación	0
184920	7	Sololá	701	Sololá	2	El tablón	10	Octubre	2023-10-22T00:00:00	2024-11-06T03:00:00	8	Radiación solar	0
184921	7	Sololá	701	Sololá	2	El tablón	10	Octubre	2023-10-22T00:00:00	2024-11-06T04:00:00	2	Temperatura media	12.1
184922	7	Sololá	701	Sololá	2	El tablón	10	Octubre	2023-10-22T00:00:00	2024-11-06T04:00:00	4	Temperatura máxima	12.3
184923	7	Sololá	701	Sololá	2	El tablón	10	Octubre	2023-10-22T00:00:00	2024-11-06T04:00:00	3	Temperatura mínima	12.1
184924	7	Sololá	701	Sololá	2	El tablón	10	Octubre	2023-10-22T00:00:00	2024-11-06T04:00:00	5	Humedad	88
184925	7	Sololá	701	Sololá	2	El tablón	10	Octubre	2023-10-22T00:00:00	2024-11-06T04:00:00	6	Velocidad del viento	1.6
184926	7	Sololá	701	Sololá	2	El tablón	10	Octubre	2023-10-22T00:00:00	2024-11-06T04:00:00	7	Dirección del viento	1.61
184927	7	Sololá	701	Sololá	2	El tablón	10	Octubre	2023-10-22T00:00:00	2024-11-06T04:00:00	1	Precipitación	0
184928	7	Sololá	701	Sololá	2	El tablón	10	Octubre	2023-10-22T00:00:00	2024-11-06T04:00:00	8	Radiación solar	0
184929	7	Sololá	701	Sololá	2	El tablón	10	Octubre	2023-10-22T00:00:00	2024-11-06T05:00:00	2	Temperatura media	11.5
184930	7	Sololá	701	Sololá	2	El tablón	10	Octubre	2023-10-22T00:00:00	2024-11-06T05:00:00	4	Temperatura máxima	12.1
184931	7	Sololá	701	Sololá	2	El tablón	10	Octubre	2023-10-22T00:00:00	2024-11-06T05:00:00	3	Temperatura mínima	11.5
184932	7	Sololá	701	Sololá	2	El tablón	10	Octubre	2023-10-22T00:00:00	2024-11-06T05:00:00	5	Humedad	88
184933	7	Sololá	701	Sololá	2	El tablón	10	Octubre	2023-10-22T00:00:00	2024-11-06T05:00:00	6	Velocidad del viento	1.6
184934	7	Sololá	701	Sololá	2	El tablón	10	Octubre	2023-10-22T00:00:00	2024-11-06T05:00:00	7	Dirección del viento	1.61
184935	7	Sololá	701	Sololá	2	El tablón	10	Octubre	2023-10-22T00:00:00	2024-11-06T05:00:00	1	Precipitación	0
184936	7	Sololá	701	Sololá	2	El tablón	10	Octubre	2023-10-22T00:00:00	2024-11-06T05:00:00	8	Radiación solar	0
184937	7	Sololá	701	Sololá	2	El tablón	10	Octubre	2023-10-22T00:00:00	2024-11-06T06:00:00	2	Temperatura media	11.2
184938	7	Sololá	701	Sololá	2	El tablón	10	Octubre	2023-10-22T00:00:00	2024-11-06T06:00:00	4	Temperatura máxima	11.5
184939	7	Sololá	701	Sololá	2	El tablón	10	Octubre	2023-10-22T00:00:00	2024-11-06T06:00:00	3	Temperatura mínima	11.1
184940	7	Sololá	701	Sololá	2	El tablón	10	Octubre	2023-10-22T00:00:00	2024-11-06T06:00:00	5	Humedad	89
184941	7	Sololá	701	Sololá	2	El tablón	10	Octubre	2023-10-22T00:00:00	2024-11-06T06:00:00	6	Velocidad del viento	3.2
184942	7	Sololá	701	Sololá	2	El tablón	10	Octubre	2023-10-22T00:00:00	2024-11-06T06:00:00	7	Dirección del viento	3.22
184943	7	Sololá	701	Sololá	2	El tablón	10	Octubre	2023-10-22T00:00:00	2024-11-06T06:00:00	1	Precipitación	0
184944	7	Sololá	701	Sololá	2	El tablón	10	Octubre	2023-10-22T00:00:00	2024-11-06T06:00:00	8	Radiación solar	0
184945	7	Sololá	701	Sololá	2	El tablón	10	Octubre	2023-10-22T00:00:00	2024-11-06T07:00:00	2	Temperatura media	12.2
184946	7	Sololá	701	Sololá	2	El tablón	10	Octubre	2023-10-22T00:00:00	2024-11-06T07:00:00	4	Temperatura máxima	12.2
184947	7	Sololá	701	Sololá	2	El tablón	10	Octubre	2023-10-22T00:00:00	2024-11-06T07:00:00	3	Temperatura mínima	11
184948	7	Sololá	701	Sololá	2	El tablón	10	Octubre	2023-10-22T00:00:00	2024-11-06T07:00:00	5	Humedad	89
184949	7	Sololá	701	Sololá	2	El tablón	10	Octubre	2023-10-22T00:00:00	2024-11-06T07:00:00	6	Velocidad del viento	6.4
184950	7	Sololá	701	Sololá	2	El tablón	10	Octubre	2023-10-22T00:00:00	2024-11-06T07:00:00	7	Dirección del viento	6.44
184951	7	Sololá	701	Sololá	2	El tablón	10	Octubre	2023-10-22T00:00:00	2024-11-06T07:00:00	1	Precipitación	0
184952	7	Sololá	701	Sololá	2	El tablón	10	Octubre	2023-10-22T00:00:00	2024-11-06T07:00:00	8	Radiación solar	55
184953	7	Sololá	701	Sololá	2	El tablón	10	Octubre	2023-10-22T00:00:00	2024-11-06T08:00:00	2	Temperatura media	15.4
184954	7	Sololá	701	Sololá	2	El tablón	10	Octubre	2023-10-22T00:00:00	2024-11-06T08:00:00	4	Temperatura máxima	15.4
184955	7	Sololá	701	Sololá	2	El tablón	10	Octubre	2023-10-22T00:00:00	2024-11-06T08:00:00	3	Temperatura mínima	12.2
184956	7	Sololá	701	Sololá	2	El tablón	10	Octubre	2023-10-22T00:00:00	2024-11-06T08:00:00	5	Humedad	86
184957	7	Sololá	701	Sololá	2	El tablón	10	Octubre	2023-10-22T00:00:00	2024-11-06T08:00:00	6	Velocidad del viento	3.2
184958	7	Sololá	701	Sololá	2	El tablón	10	Octubre	2023-10-22T00:00:00	2024-11-06T08:00:00	7	Dirección del viento	3.22
184959	7	Sololá	701	Sololá	2	El tablón	10	Octubre	2023-10-22T00:00:00	2024-11-06T08:00:00	1	Precipitación	0
184960	7	Sololá	701	Sololá	2	El tablón	10	Octubre	2023-10-22T00:00:00	2024-11-06T08:00:00	8	Radiación solar	218
184961	7	Sololá	701	Sololá	2	El tablón	10	Octubre	2023-10-22T00:00:00	2024-11-06T09:00:00	2	Temperatura media	18.2
184962	7	Sololá	701	Sololá	2	El tablón	10	Octubre	2023-10-22T00:00:00	2024-11-06T09:00:00	4	Temperatura máxima	18.2
184963	7	Sololá	701	Sololá	2	El tablón	10	Octubre	2023-10-22T00:00:00	2024-11-06T09:00:00	3	Temperatura mínima	15.4
184964	7	Sololá	701	Sololá	2	El tablón	10	Octubre	2023-10-22T00:00:00	2024-11-06T09:00:00	5	Humedad	78
184965	7	Sololá	701	Sololá	2	El tablón	10	Octubre	2023-10-22T00:00:00	2024-11-06T09:00:00	6	Velocidad del viento	1.6
184966	7	Sololá	701	Sololá	2	El tablón	10	Octubre	2023-10-22T00:00:00	2024-11-06T09:00:00	7	Dirección del viento	1.61
184967	7	Sololá	701	Sololá	2	El tablón	10	Octubre	2023-10-22T00:00:00	2024-11-06T09:00:00	1	Precipitación	0
184968	7	Sololá	701	Sololá	2	El tablón	10	Octubre	2023-10-22T00:00:00	2024-11-06T09:00:00	8	Radiación solar	475
184969	7	Sololá	701	Sololá	2	El tablón	10	Octubre	2023-10-22T00:00:00	2024-11-06T10:00:00	2	Temperatura media	18.1
184970	7	Sololá	701	Sololá	2	El tablón	10	Octubre	2023-10-22T00:00:00	2024-11-06T10:00:00	4	Temperatura máxima	18.6
184971	7	Sololá	701	Sololá	2	El tablón	10	Octubre	2023-10-22T00:00:00	2024-11-06T10:00:00	3	Temperatura mínima	17.8
184972	7	Sololá	701	Sololá	2	El tablón	10	Octubre	2023-10-22T00:00:00	2024-11-06T10:00:00	5	Humedad	82
184973	7	Sololá	701	Sololá	2	El tablón	10	Octubre	2023-10-22T00:00:00	2024-11-06T10:00:00	6	Velocidad del viento	4.8
184974	7	Sololá	701	Sololá	2	El tablón	10	Octubre	2023-10-22T00:00:00	2024-11-06T10:00:00	7	Dirección del viento	4.83
184975	7	Sololá	701	Sololá	2	El tablón	10	Octubre	2023-10-22T00:00:00	2024-11-06T10:00:00	1	Precipitación	0
184976	7	Sololá	701	Sololá	2	El tablón	10	Octubre	2023-10-22T00:00:00	2024-11-06T10:00:00	8	Radiación solar	650
184977	7	Sololá	701	Sololá	2	El tablón	10	Octubre	2023-10-22T00:00:00	2024-11-06T11:00:00	2	Temperatura media	17.9
184978	7	Sololá	701	Sololá	2	El tablón	10	Octubre	2023-10-22T00:00:00	2024-11-06T11:00:00	4	Temperatura máxima	19.2
184979	7	Sololá	701	Sololá	2	El tablón	10	Octubre	2023-10-22T00:00:00	2024-11-06T11:00:00	3	Temperatura mínima	17.9
184980	7	Sololá	701	Sololá	2	El tablón	10	Octubre	2023-10-22T00:00:00	2024-11-06T11:00:00	5	Humedad	80
184981	7	Sololá	701	Sololá	2	El tablón	10	Octubre	2023-10-22T00:00:00	2024-11-06T11:00:00	6	Velocidad del viento	6.4
184982	7	Sololá	701	Sololá	2	El tablón	10	Octubre	2023-10-22T00:00:00	2024-11-06T11:00:00	7	Dirección del viento	6.44
184983	7	Sololá	701	Sololá	2	El tablón	10	Octubre	2023-10-22T00:00:00	2024-11-06T11:00:00	1	Precipitación	0
184984	7	Sololá	701	Sololá	2	El tablón	10	Octubre	2023-10-22T00:00:00	2024-11-06T11:00:00	8	Radiación solar	821
184985	7	Sololá	701	Sololá	2	El tablón	10	Octubre	2023-10-22T00:00:00	2024-11-06T12:00:00	2	Temperatura media	18.3
184986	7	Sololá	701	Sololá	2	El tablón	10	Octubre	2023-10-22T00:00:00	2024-11-06T12:00:00	4	Temperatura máxima	18.4
184987	7	Sololá	701	Sololá	2	El tablón	10	Octubre	2023-10-22T00:00:00	2024-11-06T12:00:00	3	Temperatura mínima	17
184988	7	Sololá	701	Sololá	2	El tablón	10	Octubre	2023-10-22T00:00:00	2024-11-06T12:00:00	5	Humedad	81
184989	7	Sololá	701	Sololá	2	El tablón	10	Octubre	2023-10-22T00:00:00	2024-11-06T12:00:00	6	Velocidad del viento	8
184990	7	Sololá	701	Sololá	2	El tablón	10	Octubre	2023-10-22T00:00:00	2024-11-06T12:00:00	7	Dirección del viento	8.05
184991	7	Sololá	701	Sololá	2	El tablón	10	Octubre	2023-10-22T00:00:00	2024-11-06T12:00:00	1	Precipitación	0
184992	7	Sololá	701	Sololá	2	El tablón	10	Octubre	2023-10-22T00:00:00	2024-11-06T12:00:00	8	Radiación solar	778
184993	7	Sololá	701	Sololá	2	El tablón	10	Octubre	2023-10-22T00:00:00	2024-11-06T13:00:00	2	Temperatura media	17.6
184994	7	Sololá	701	Sololá	2	El tablón	10	Octubre	2023-10-22T00:00:00	2024-11-06T13:00:00	4	Temperatura máxima	18.3
184995	7	Sololá	701	Sololá	2	El tablón	10	Octubre	2023-10-22T00:00:00	2024-11-06T13:00:00	3	Temperatura mínima	17.6
184996	7	Sololá	701	Sololá	2	El tablón	10	Octubre	2023-10-22T00:00:00	2024-11-06T13:00:00	5	Humedad	83
184997	7	Sololá	701	Sololá	2	El tablón	10	Octubre	2023-10-22T00:00:00	2024-11-06T13:00:00	6	Velocidad del viento	8
184998	7	Sololá	701	Sololá	2	El tablón	10	Octubre	2023-10-22T00:00:00	2024-11-06T13:00:00	7	Dirección del viento	8.05
184999	7	Sololá	701	Sololá	2	El tablón	10	Octubre	2023-10-22T00:00:00	2024-11-06T13:00:00	1	Precipitación	0
185000	7	Sololá	701	Sololá	2	El tablón	10	Octubre	2023-10-22T00:00:00	2024-11-06T13:00:00	8	Radiación solar	660
185001	7	Sololá	701	Sololá	2	El tablón	10	Octubre	2023-10-22T00:00:00	2024-11-06T14:00:00	2	Temperatura media	16.4
185002	7	Sololá	701	Sololá	2	El tablón	10	Octubre	2023-10-22T00:00:00	2024-11-06T14:00:00	4	Temperatura máxima	18.6
185003	7	Sololá	701	Sololá	2	El tablón	10	Octubre	2023-10-22T00:00:00	2024-11-06T14:00:00	3	Temperatura mínima	16.4
185004	7	Sololá	701	Sololá	2	El tablón	10	Octubre	2023-10-22T00:00:00	2024-11-06T14:00:00	5	Humedad	87
185005	7	Sololá	701	Sololá	2	El tablón	10	Octubre	2023-10-22T00:00:00	2024-11-06T14:00:00	6	Velocidad del viento	6.4
185006	7	Sololá	701	Sololá	2	El tablón	10	Octubre	2023-10-22T00:00:00	2024-11-06T14:00:00	7	Dirección del viento	6.44
185007	7	Sololá	701	Sololá	2	El tablón	10	Octubre	2023-10-22T00:00:00	2024-11-06T14:00:00	1	Precipitación	0
185008	7	Sololá	701	Sololá	2	El tablón	10	Octubre	2023-10-22T00:00:00	2024-11-06T14:00:00	8	Radiación solar	399
185009	7	Sololá	701	Sololá	2	El tablón	10	Octubre	2023-10-22T00:00:00	2024-11-06T15:00:00	2	Temperatura media	15.6
185010	7	Sololá	701	Sololá	2	El tablón	10	Octubre	2023-10-22T00:00:00	2024-11-06T15:00:00	4	Temperatura máxima	16.4
185011	7	Sololá	701	Sololá	2	El tablón	10	Octubre	2023-10-22T00:00:00	2024-11-06T15:00:00	3	Temperatura mínima	15.2
185012	7	Sololá	701	Sololá	2	El tablón	10	Octubre	2023-10-22T00:00:00	2024-11-06T15:00:00	5	Humedad	88
185013	7	Sololá	701	Sololá	2	El tablón	10	Octubre	2023-10-22T00:00:00	2024-11-06T15:00:00	6	Velocidad del viento	4.8
185014	7	Sololá	701	Sololá	2	El tablón	10	Octubre	2023-10-22T00:00:00	2024-11-06T15:00:00	7	Dirección del viento	4.83
185015	7	Sololá	701	Sololá	2	El tablón	10	Octubre	2023-10-22T00:00:00	2024-11-06T15:00:00	1	Precipitación	0
185016	7	Sololá	701	Sololá	2	El tablón	10	Octubre	2023-10-22T00:00:00	2024-11-06T15:00:00	8	Radiación solar	172
185017	7	Sololá	701	Sololá	2	El tablón	10	Octubre	2023-10-22T00:00:00	2024-11-06T16:00:00	2	Temperatura media	16.2
185018	7	Sololá	701	Sololá	2	El tablón	10	Octubre	2023-10-22T00:00:00	2024-11-06T16:00:00	4	Temperatura máxima	16.7
185019	7	Sololá	701	Sololá	2	El tablón	10	Octubre	2023-10-22T00:00:00	2024-11-06T16:00:00	3	Temperatura mínima	15.6
185020	7	Sololá	701	Sololá	2	El tablón	10	Octubre	2023-10-22T00:00:00	2024-11-06T16:00:00	5	Humedad	88
185021	7	Sololá	701	Sololá	2	El tablón	10	Octubre	2023-10-22T00:00:00	2024-11-06T16:00:00	6	Velocidad del viento	1.6
185022	7	Sololá	701	Sololá	2	El tablón	10	Octubre	2023-10-22T00:00:00	2024-11-06T16:00:00	7	Dirección del viento	1.61
185023	7	Sololá	701	Sololá	2	El tablón	10	Octubre	2023-10-22T00:00:00	2024-11-06T16:00:00	1	Precipitación	0.2
185024	7	Sololá	701	Sololá	2	El tablón	10	Octubre	2023-10-22T00:00:00	2024-11-06T16:00:00	8	Radiación solar	197
185025	7	Sololá	701	Sololá	2	El tablón	10	Octubre	2023-10-22T00:00:00	2024-11-06T17:00:00	2	Temperatura media	15.1
185026	7	Sololá	701	Sololá	2	El tablón	10	Octubre	2023-10-22T00:00:00	2024-11-06T17:00:00	4	Temperatura máxima	16.2
185027	7	Sololá	701	Sololá	2	El tablón	10	Octubre	2023-10-22T00:00:00	2024-11-06T17:00:00	3	Temperatura mínima	15.1
185028	7	Sololá	701	Sololá	2	El tablón	10	Octubre	2023-10-22T00:00:00	2024-11-06T17:00:00	5	Humedad	88
185029	7	Sololá	701	Sololá	2	El tablón	10	Octubre	2023-10-22T00:00:00	2024-11-06T17:00:00	6	Velocidad del viento	4.8
185030	7	Sololá	701	Sololá	2	El tablón	10	Octubre	2023-10-22T00:00:00	2024-11-06T17:00:00	7	Dirección del viento	4.83
185031	7	Sololá	701	Sololá	2	El tablón	10	Octubre	2023-10-22T00:00:00	2024-11-06T17:00:00	1	Precipitación	0
185032	7	Sololá	701	Sololá	2	El tablón	10	Octubre	2023-10-22T00:00:00	2024-11-06T17:00:00	8	Radiación solar	45
185033	7	Sololá	701	Sololá	2	El tablón	10	Octubre	2023-10-22T00:00:00	2024-11-06T18:00:00	2	Temperatura media	14.5
185034	7	Sololá	701	Sololá	2	El tablón	10	Octubre	2023-10-22T00:00:00	2024-11-06T18:00:00	4	Temperatura máxima	15.1
185035	7	Sololá	701	Sololá	2	El tablón	10	Octubre	2023-10-22T00:00:00	2024-11-06T18:00:00	3	Temperatura mínima	14.5
185036	7	Sololá	701	Sololá	2	El tablón	10	Octubre	2023-10-22T00:00:00	2024-11-06T18:00:00	5	Humedad	88
185037	7	Sololá	701	Sololá	2	El tablón	10	Octubre	2023-10-22T00:00:00	2024-11-06T18:00:00	6	Velocidad del viento	4.8
185038	7	Sololá	701	Sololá	2	El tablón	10	Octubre	2023-10-22T00:00:00	2024-11-06T18:00:00	7	Dirección del viento	4.83
185039	7	Sololá	701	Sololá	2	El tablón	10	Octubre	2023-10-22T00:00:00	2024-11-06T18:00:00	1	Precipitación	0
185040	7	Sololá	701	Sololá	2	El tablón	10	Octubre	2023-10-22T00:00:00	2024-11-06T18:00:00	8	Radiación solar	2
185041	7	Sololá	701	Sololá	2	El tablón	10	Octubre	2023-10-22T00:00:00	2024-11-06T19:00:00	2	Temperatura media	14
185042	7	Sololá	701	Sololá	2	El tablón	10	Octubre	2023-10-22T00:00:00	2024-11-06T19:00:00	4	Temperatura máxima	14.5
185043	7	Sololá	701	Sololá	2	El tablón	10	Octubre	2023-10-22T00:00:00	2024-11-06T19:00:00	3	Temperatura mínima	14
185044	7	Sololá	701	Sololá	2	El tablón	10	Octubre	2023-10-22T00:00:00	2024-11-06T19:00:00	5	Humedad	89
185045	7	Sololá	701	Sololá	2	El tablón	10	Octubre	2023-10-22T00:00:00	2024-11-06T19:00:00	6	Velocidad del viento	1.6
185046	7	Sololá	701	Sololá	2	El tablón	10	Octubre	2023-10-22T00:00:00	2024-11-06T19:00:00	7	Dirección del viento	1.61
185047	7	Sololá	701	Sololá	2	El tablón	10	Octubre	2023-10-22T00:00:00	2024-11-06T19:00:00	1	Precipitación	0.8
185048	7	Sololá	701	Sololá	2	El tablón	10	Octubre	2023-10-22T00:00:00	2024-11-06T19:00:00	8	Radiación solar	0
185049	7	Sololá	701	Sololá	2	El tablón	10	Octubre	2023-10-22T00:00:00	2024-11-06T20:00:00	2	Temperatura media	13.8
185050	7	Sololá	701	Sololá	2	El tablón	10	Octubre	2023-10-22T00:00:00	2024-11-06T20:00:00	4	Temperatura máxima	14
185051	7	Sololá	701	Sololá	2	El tablón	10	Octubre	2023-10-22T00:00:00	2024-11-06T20:00:00	3	Temperatura mínima	13.7
185052	7	Sololá	701	Sololá	2	El tablón	10	Octubre	2023-10-22T00:00:00	2024-11-06T20:00:00	5	Humedad	89
185053	7	Sololá	701	Sololá	2	El tablón	10	Octubre	2023-10-22T00:00:00	2024-11-06T20:00:00	6	Velocidad del viento	0
185054	7	Sololá	701	Sololá	2	El tablón	10	Octubre	2023-10-22T00:00:00	2024-11-06T20:00:00	7	Dirección del viento	0
185055	7	Sololá	701	Sololá	2	El tablón	10	Octubre	2023-10-22T00:00:00	2024-11-06T20:00:00	1	Precipitación	1.2
185056	7	Sololá	701	Sololá	2	El tablón	10	Octubre	2023-10-22T00:00:00	2024-11-06T20:00:00	8	Radiación solar	0
185057	7	Sololá	701	Sololá	2	El tablón	10	Octubre	2023-10-22T00:00:00	2024-11-06T21:00:00	2	Temperatura media	13.6
185058	7	Sololá	701	Sololá	2	El tablón	10	Octubre	2023-10-22T00:00:00	2024-11-06T21:00:00	4	Temperatura máxima	13.8
185059	7	Sololá	701	Sololá	2	El tablón	10	Octubre	2023-10-22T00:00:00	2024-11-06T21:00:00	3	Temperatura mínima	13.3
185060	7	Sololá	701	Sololá	2	El tablón	10	Octubre	2023-10-22T00:00:00	2024-11-06T21:00:00	5	Humedad	88
185061	7	Sololá	701	Sololá	2	El tablón	10	Octubre	2023-10-22T00:00:00	2024-11-06T21:00:00	6	Velocidad del viento	0
185062	7	Sololá	701	Sololá	2	El tablón	10	Octubre	2023-10-22T00:00:00	2024-11-06T21:00:00	7	Dirección del viento	0
185063	7	Sololá	701	Sololá	2	El tablón	10	Octubre	2023-10-22T00:00:00	2024-11-06T21:00:00	1	Precipitación	0
185064	7	Sololá	701	Sololá	2	El tablón	10	Octubre	2023-10-22T00:00:00	2024-11-06T21:00:00	8	Radiación solar	0
185065	7	Sololá	701	Sololá	2	El tablón	10	Octubre	2023-10-22T00:00:00	2024-11-06T22:00:00	2	Temperatura media	13.3
185066	7	Sololá	701	Sololá	2	El tablón	10	Octubre	2023-10-22T00:00:00	2024-11-06T22:00:00	4	Temperatura máxima	13.6
185067	7	Sololá	701	Sololá	2	El tablón	10	Octubre	2023-10-22T00:00:00	2024-11-06T22:00:00	3	Temperatura mínima	13.3
185068	7	Sololá	701	Sololá	2	El tablón	10	Octubre	2023-10-22T00:00:00	2024-11-06T22:00:00	5	Humedad	87
185069	7	Sololá	701	Sololá	2	El tablón	10	Octubre	2023-10-22T00:00:00	2024-11-06T22:00:00	6	Velocidad del viento	0
185070	7	Sololá	701	Sololá	2	El tablón	10	Octubre	2023-10-22T00:00:00	2024-11-06T22:00:00	7	Dirección del viento	0
185071	7	Sololá	701	Sololá	2	El tablón	10	Octubre	2023-10-22T00:00:00	2024-11-06T22:00:00	1	Precipitación	0
185072	7	Sololá	701	Sololá	2	El tablón	10	Octubre	2023-10-22T00:00:00	2024-11-06T22:00:00	8	Radiación solar	0
185073	7	Sololá	701	Sololá	2	El tablón	10	Octubre	2023-10-22T00:00:00	2024-11-06T23:00:00	2	Temperatura media	12.9
185074	7	Sololá	701	Sololá	2	El tablón	10	Octubre	2023-10-22T00:00:00	2024-11-06T23:00:00	4	Temperatura máxima	13.3
185075	7	Sololá	701	Sololá	2	El tablón	10	Octubre	2023-10-22T00:00:00	2024-11-06T23:00:00	3	Temperatura mínima	12.9
185076	7	Sololá	701	Sololá	2	El tablón	10	Octubre	2023-10-22T00:00:00	2024-11-06T23:00:00	5	Humedad	88
185077	7	Sololá	701	Sololá	2	El tablón	10	Octubre	2023-10-22T00:00:00	2024-11-06T23:00:00	6	Velocidad del viento	1.6
185078	7	Sololá	701	Sololá	2	El tablón	10	Octubre	2023-10-22T00:00:00	2024-11-06T23:00:00	7	Dirección del viento	1.61
185079	7	Sololá	701	Sololá	2	El tablón	10	Octubre	2023-10-22T00:00:00	2024-11-06T23:00:00	1	Precipitación	0
185080	7	Sololá	701	Sololá	2	El tablón	10	Octubre	2023-10-22T00:00:00	2024-11-06T23:00:00	8	Radiación solar	0
185081	7	Sololá	701	Sololá	2	El tablón	10	Octubre	2023-10-23T00:00:00	2024-11-06T00:00:00	2	Temperatura media	12.6
185082	7	Sololá	701	Sololá	2	El tablón	10	Octubre	2023-10-23T00:00:00	2024-11-06T00:00:00	4	Temperatura máxima	12.9
185083	7	Sololá	701	Sololá	2	El tablón	10	Octubre	2023-10-23T00:00:00	2024-11-06T00:00:00	3	Temperatura mínima	12.6
185084	7	Sololá	701	Sololá	2	El tablón	10	Octubre	2023-10-23T00:00:00	2024-11-06T00:00:00	5	Humedad	88
185085	7	Sololá	701	Sololá	2	El tablón	10	Octubre	2023-10-23T00:00:00	2024-11-06T00:00:00	6	Velocidad del viento	1.6
185086	7	Sololá	701	Sololá	2	El tablón	10	Octubre	2023-10-23T00:00:00	2024-11-06T00:00:00	7	Dirección del viento	1.61
185087	7	Sololá	701	Sololá	2	El tablón	10	Octubre	2023-10-23T00:00:00	2024-11-06T00:00:00	1	Precipitación	0
185088	7	Sololá	701	Sololá	2	El tablón	10	Octubre	2023-10-23T00:00:00	2024-11-06T00:00:00	8	Radiación solar	0
185089	7	Sololá	701	Sololá	2	El tablón	10	Octubre	2023-10-23T00:00:00	2024-11-06T01:00:00	2	Temperatura media	11.8
185090	7	Sololá	701	Sololá	2	El tablón	10	Octubre	2023-10-23T00:00:00	2024-11-06T01:00:00	4	Temperatura máxima	12.6
185091	7	Sololá	701	Sololá	2	El tablón	10	Octubre	2023-10-23T00:00:00	2024-11-06T01:00:00	3	Temperatura mínima	11.8
185092	7	Sololá	701	Sololá	2	El tablón	10	Octubre	2023-10-23T00:00:00	2024-11-06T01:00:00	5	Humedad	88
185093	7	Sololá	701	Sololá	2	El tablón	10	Octubre	2023-10-23T00:00:00	2024-11-06T01:00:00	6	Velocidad del viento	1.6
185094	7	Sololá	701	Sololá	2	El tablón	10	Octubre	2023-10-23T00:00:00	2024-11-06T01:00:00	7	Dirección del viento	1.61
185095	7	Sololá	701	Sololá	2	El tablón	10	Octubre	2023-10-23T00:00:00	2024-11-06T01:00:00	1	Precipitación	0
185096	7	Sololá	701	Sololá	2	El tablón	10	Octubre	2023-10-23T00:00:00	2024-11-06T01:00:00	8	Radiación solar	0
185097	7	Sololá	701	Sololá	2	El tablón	10	Octubre	2023-10-23T00:00:00	2024-11-06T02:00:00	2	Temperatura media	11.8
185098	7	Sololá	701	Sololá	2	El tablón	10	Octubre	2023-10-23T00:00:00	2024-11-06T02:00:00	4	Temperatura máxima	11.8
185099	7	Sololá	701	Sololá	2	El tablón	10	Octubre	2023-10-23T00:00:00	2024-11-06T02:00:00	3	Temperatura mínima	11.6
185100	7	Sololá	701	Sololá	2	El tablón	10	Octubre	2023-10-23T00:00:00	2024-11-06T02:00:00	5	Humedad	88
185101	7	Sololá	701	Sololá	2	El tablón	10	Octubre	2023-10-23T00:00:00	2024-11-06T02:00:00	6	Velocidad del viento	1.6
185102	7	Sololá	701	Sololá	2	El tablón	10	Octubre	2023-10-23T00:00:00	2024-11-06T02:00:00	7	Dirección del viento	1.61
185103	7	Sololá	701	Sololá	2	El tablón	10	Octubre	2023-10-23T00:00:00	2024-11-06T02:00:00	1	Precipitación	0
185104	7	Sololá	701	Sololá	2	El tablón	10	Octubre	2023-10-23T00:00:00	2024-11-06T02:00:00	8	Radiación solar	0
185105	7	Sololá	701	Sololá	2	El tablón	10	Octubre	2023-10-23T00:00:00	2024-11-06T03:00:00	2	Temperatura media	11.6
185106	7	Sololá	701	Sololá	2	El tablón	10	Octubre	2023-10-23T00:00:00	2024-11-06T03:00:00	4	Temperatura máxima	11.8
185107	7	Sololá	701	Sololá	2	El tablón	10	Octubre	2023-10-23T00:00:00	2024-11-06T03:00:00	3	Temperatura mínima	11.6
185108	7	Sololá	701	Sololá	2	El tablón	10	Octubre	2023-10-23T00:00:00	2024-11-06T03:00:00	5	Humedad	88
185109	7	Sololá	701	Sololá	2	El tablón	10	Octubre	2023-10-23T00:00:00	2024-11-06T03:00:00	6	Velocidad del viento	3.2
185110	7	Sololá	701	Sololá	2	El tablón	10	Octubre	2023-10-23T00:00:00	2024-11-06T03:00:00	7	Dirección del viento	3.22
185111	7	Sololá	701	Sololá	2	El tablón	10	Octubre	2023-10-23T00:00:00	2024-11-06T03:00:00	1	Precipitación	0
185112	7	Sololá	701	Sololá	2	El tablón	10	Octubre	2023-10-23T00:00:00	2024-11-06T03:00:00	8	Radiación solar	0
185113	7	Sololá	701	Sololá	2	El tablón	10	Octubre	2023-10-23T00:00:00	2024-11-06T04:00:00	2	Temperatura media	11.3
185114	7	Sololá	701	Sololá	2	El tablón	10	Octubre	2023-10-23T00:00:00	2024-11-06T04:00:00	4	Temperatura máxima	11.6
185115	7	Sololá	701	Sololá	2	El tablón	10	Octubre	2023-10-23T00:00:00	2024-11-06T04:00:00	3	Temperatura mínima	11.3
185116	7	Sololá	701	Sololá	2	El tablón	10	Octubre	2023-10-23T00:00:00	2024-11-06T04:00:00	5	Humedad	89
185117	7	Sololá	701	Sololá	2	El tablón	10	Octubre	2023-10-23T00:00:00	2024-11-06T04:00:00	6	Velocidad del viento	1.6
185118	7	Sololá	701	Sololá	2	El tablón	10	Octubre	2023-10-23T00:00:00	2024-11-06T04:00:00	7	Dirección del viento	1.61
185119	7	Sololá	701	Sololá	2	El tablón	10	Octubre	2023-10-23T00:00:00	2024-11-06T04:00:00	1	Precipitación	0.2
185120	7	Sololá	701	Sololá	2	El tablón	10	Octubre	2023-10-23T00:00:00	2024-11-06T04:00:00	8	Radiación solar	0
185121	7	Sololá	701	Sololá	2	El tablón	10	Octubre	2023-10-23T00:00:00	2024-11-06T05:00:00	2	Temperatura media	10.8
185122	7	Sololá	701	Sololá	2	El tablón	10	Octubre	2023-10-23T00:00:00	2024-11-06T05:00:00	4	Temperatura máxima	11.3
185123	7	Sololá	701	Sololá	2	El tablón	10	Octubre	2023-10-23T00:00:00	2024-11-06T05:00:00	3	Temperatura mínima	10.8
185124	7	Sololá	701	Sololá	2	El tablón	10	Octubre	2023-10-23T00:00:00	2024-11-06T05:00:00	5	Humedad	88
185125	7	Sololá	701	Sololá	2	El tablón	10	Octubre	2023-10-23T00:00:00	2024-11-06T05:00:00	6	Velocidad del viento	1.6
185126	7	Sololá	701	Sololá	2	El tablón	10	Octubre	2023-10-23T00:00:00	2024-11-06T05:00:00	7	Dirección del viento	1.61
185127	7	Sololá	701	Sololá	2	El tablón	10	Octubre	2023-10-23T00:00:00	2024-11-06T05:00:00	1	Precipitación	0
185128	7	Sololá	701	Sololá	2	El tablón	10	Octubre	2023-10-23T00:00:00	2024-11-06T05:00:00	8	Radiación solar	0
185129	7	Sololá	701	Sololá	2	El tablón	10	Octubre	2023-10-23T00:00:00	2024-11-06T06:00:00	2	Temperatura media	10.8
185130	7	Sololá	701	Sololá	2	El tablón	10	Octubre	2023-10-23T00:00:00	2024-11-06T06:00:00	4	Temperatura máxima	10.9
185131	7	Sololá	701	Sololá	2	El tablón	10	Octubre	2023-10-23T00:00:00	2024-11-06T06:00:00	3	Temperatura mínima	10.8
185132	7	Sololá	701	Sololá	2	El tablón	10	Octubre	2023-10-23T00:00:00	2024-11-06T06:00:00	5	Humedad	89
185133	7	Sololá	701	Sololá	2	El tablón	10	Octubre	2023-10-23T00:00:00	2024-11-06T06:00:00	6	Velocidad del viento	3.2
185134	7	Sololá	701	Sololá	2	El tablón	10	Octubre	2023-10-23T00:00:00	2024-11-06T06:00:00	7	Dirección del viento	3.22
185135	7	Sololá	701	Sololá	2	El tablón	10	Octubre	2023-10-23T00:00:00	2024-11-06T06:00:00	1	Precipitación	0
185136	7	Sololá	701	Sololá	2	El tablón	10	Octubre	2023-10-23T00:00:00	2024-11-06T06:00:00	8	Radiación solar	0
185137	7	Sololá	701	Sololá	2	El tablón	10	Octubre	2023-10-23T00:00:00	2024-11-06T07:00:00	2	Temperatura media	11.8
185138	7	Sololá	701	Sololá	2	El tablón	10	Octubre	2023-10-23T00:00:00	2024-11-06T07:00:00	4	Temperatura máxima	11.8
185139	7	Sololá	701	Sololá	2	El tablón	10	Octubre	2023-10-23T00:00:00	2024-11-06T07:00:00	3	Temperatura mínima	10.8
185140	7	Sololá	701	Sololá	2	El tablón	10	Octubre	2023-10-23T00:00:00	2024-11-06T07:00:00	5	Humedad	89
185141	7	Sololá	701	Sololá	2	El tablón	10	Octubre	2023-10-23T00:00:00	2024-11-06T07:00:00	6	Velocidad del viento	3.2
185142	7	Sololá	701	Sololá	2	El tablón	10	Octubre	2023-10-23T00:00:00	2024-11-06T07:00:00	7	Dirección del viento	3.22
185143	7	Sololá	701	Sololá	2	El tablón	10	Octubre	2023-10-23T00:00:00	2024-11-06T07:00:00	1	Precipitación	0
185144	7	Sololá	701	Sololá	2	El tablón	10	Octubre	2023-10-23T00:00:00	2024-11-06T07:00:00	8	Radiación solar	46
185145	7	Sololá	701	Sololá	2	El tablón	10	Octubre	2023-10-23T00:00:00	2024-11-06T08:00:00	2	Temperatura media	16.2
185146	7	Sololá	701	Sololá	2	El tablón	10	Octubre	2023-10-23T00:00:00	2024-11-06T08:00:00	4	Temperatura máxima	16.2
185147	7	Sololá	701	Sololá	2	El tablón	10	Octubre	2023-10-23T00:00:00	2024-11-06T08:00:00	3	Temperatura mínima	11.8
185148	7	Sololá	701	Sololá	2	El tablón	10	Octubre	2023-10-23T00:00:00	2024-11-06T08:00:00	5	Humedad	83
185149	7	Sololá	701	Sololá	2	El tablón	10	Octubre	2023-10-23T00:00:00	2024-11-06T08:00:00	6	Velocidad del viento	1.6
185150	7	Sololá	701	Sololá	2	El tablón	10	Octubre	2023-10-23T00:00:00	2024-11-06T08:00:00	7	Dirección del viento	1.61
185151	7	Sololá	701	Sololá	2	El tablón	10	Octubre	2023-10-23T00:00:00	2024-11-06T08:00:00	1	Precipitación	0
185152	7	Sololá	701	Sololá	2	El tablón	10	Octubre	2023-10-23T00:00:00	2024-11-06T08:00:00	8	Radiación solar	218
185153	7	Sololá	701	Sololá	2	El tablón	10	Octubre	2023-10-23T00:00:00	2024-11-06T09:00:00	2	Temperatura media	16.4
185154	7	Sololá	701	Sololá	2	El tablón	10	Octubre	2023-10-23T00:00:00	2024-11-06T09:00:00	4	Temperatura máxima	17.4
185155	7	Sololá	701	Sololá	2	El tablón	10	Octubre	2023-10-23T00:00:00	2024-11-06T09:00:00	3	Temperatura mínima	16.2
185156	7	Sololá	701	Sololá	2	El tablón	10	Octubre	2023-10-23T00:00:00	2024-11-06T09:00:00	5	Humedad	87
185157	7	Sololá	701	Sololá	2	El tablón	10	Octubre	2023-10-23T00:00:00	2024-11-06T09:00:00	6	Velocidad del viento	1.6
185158	7	Sololá	701	Sololá	2	El tablón	10	Octubre	2023-10-23T00:00:00	2024-11-06T09:00:00	7	Dirección del viento	1.61
185159	7	Sololá	701	Sololá	2	El tablón	10	Octubre	2023-10-23T00:00:00	2024-11-06T09:00:00	1	Precipitación	0
185160	7	Sololá	701	Sololá	2	El tablón	10	Octubre	2023-10-23T00:00:00	2024-11-06T09:00:00	8	Radiación solar	392
185161	7	Sololá	701	Sololá	2	El tablón	10	Octubre	2023-10-23T00:00:00	2024-11-06T10:00:00	2	Temperatura media	18.1
185162	7	Sololá	701	Sololá	2	El tablón	10	Octubre	2023-10-23T00:00:00	2024-11-06T10:00:00	4	Temperatura máxima	18.1
185163	7	Sololá	701	Sololá	2	El tablón	10	Octubre	2023-10-23T00:00:00	2024-11-06T10:00:00	3	Temperatura mínima	16.4
185164	7	Sololá	701	Sololá	2	El tablón	10	Octubre	2023-10-23T00:00:00	2024-11-06T10:00:00	5	Humedad	77
185165	7	Sololá	701	Sololá	2	El tablón	10	Octubre	2023-10-23T00:00:00	2024-11-06T10:00:00	6	Velocidad del viento	4.8
185166	7	Sololá	701	Sololá	2	El tablón	10	Octubre	2023-10-23T00:00:00	2024-11-06T10:00:00	7	Dirección del viento	4.83
185167	7	Sololá	701	Sololá	2	El tablón	10	Octubre	2023-10-23T00:00:00	2024-11-06T10:00:00	1	Precipitación	0
185168	7	Sololá	701	Sololá	2	El tablón	10	Octubre	2023-10-23T00:00:00	2024-11-06T10:00:00	8	Radiación solar	694
185169	7	Sololá	701	Sololá	2	El tablón	10	Octubre	2023-10-23T00:00:00	2024-11-06T11:00:00	2	Temperatura media	18.5
185170	7	Sololá	701	Sololá	2	El tablón	10	Octubre	2023-10-23T00:00:00	2024-11-06T11:00:00	4	Temperatura máxima	19.3
185171	7	Sololá	701	Sololá	2	El tablón	10	Octubre	2023-10-23T00:00:00	2024-11-06T11:00:00	3	Temperatura mínima	17.9
185172	7	Sololá	701	Sololá	2	El tablón	10	Octubre	2023-10-23T00:00:00	2024-11-06T11:00:00	5	Humedad	75
185173	7	Sololá	701	Sololá	2	El tablón	10	Octubre	2023-10-23T00:00:00	2024-11-06T11:00:00	6	Velocidad del viento	4.8
185174	7	Sololá	701	Sololá	2	El tablón	10	Octubre	2023-10-23T00:00:00	2024-11-06T11:00:00	7	Dirección del viento	4.83
185175	7	Sololá	701	Sololá	2	El tablón	10	Octubre	2023-10-23T00:00:00	2024-11-06T11:00:00	1	Precipitación	0
185176	7	Sololá	701	Sololá	2	El tablón	10	Octubre	2023-10-23T00:00:00	2024-11-06T11:00:00	8	Radiación solar	857
185177	7	Sololá	701	Sololá	2	El tablón	10	Octubre	2023-10-23T00:00:00	2024-11-06T12:00:00	2	Temperatura media	18.9
185178	7	Sololá	701	Sololá	2	El tablón	10	Octubre	2023-10-23T00:00:00	2024-11-06T12:00:00	4	Temperatura máxima	19.1
185179	7	Sololá	701	Sololá	2	El tablón	10	Octubre	2023-10-23T00:00:00	2024-11-06T12:00:00	3	Temperatura mínima	18.5
185180	7	Sololá	701	Sololá	2	El tablón	10	Octubre	2023-10-23T00:00:00	2024-11-06T12:00:00	5	Humedad	75
185181	7	Sololá	701	Sololá	2	El tablón	10	Octubre	2023-10-23T00:00:00	2024-11-06T12:00:00	6	Velocidad del viento	6.4
185182	7	Sololá	701	Sololá	2	El tablón	10	Octubre	2023-10-23T00:00:00	2024-11-06T12:00:00	7	Dirección del viento	6.44
185183	7	Sololá	701	Sololá	2	El tablón	10	Octubre	2023-10-23T00:00:00	2024-11-06T12:00:00	1	Precipitación	0
185184	7	Sololá	701	Sololá	2	El tablón	10	Octubre	2023-10-23T00:00:00	2024-11-06T12:00:00	8	Radiación solar	810
185185	7	Sololá	701	Sololá	2	El tablón	10	Octubre	2023-10-23T00:00:00	2024-11-06T13:00:00	2	Temperatura media	18.6
185186	7	Sololá	701	Sololá	2	El tablón	10	Octubre	2023-10-23T00:00:00	2024-11-06T13:00:00	4	Temperatura máxima	18.9
185187	7	Sololá	701	Sololá	2	El tablón	10	Octubre	2023-10-23T00:00:00	2024-11-06T13:00:00	3	Temperatura mínima	18.3
185188	7	Sololá	701	Sololá	2	El tablón	10	Octubre	2023-10-23T00:00:00	2024-11-06T13:00:00	5	Humedad	81
185189	7	Sololá	701	Sololá	2	El tablón	10	Octubre	2023-10-23T00:00:00	2024-11-06T13:00:00	6	Velocidad del viento	8
185190	7	Sololá	701	Sololá	2	El tablón	10	Octubre	2023-10-23T00:00:00	2024-11-06T13:00:00	7	Dirección del viento	8.05
185191	7	Sololá	701	Sololá	2	El tablón	10	Octubre	2023-10-23T00:00:00	2024-11-06T13:00:00	1	Precipitación	0
185192	7	Sololá	701	Sololá	2	El tablón	10	Octubre	2023-10-23T00:00:00	2024-11-06T13:00:00	8	Radiación solar	893
185193	7	Sololá	701	Sololá	2	El tablón	10	Octubre	2023-10-23T00:00:00	2024-11-06T14:00:00	2	Temperatura media	17.5
185194	7	Sololá	701	Sololá	2	El tablón	10	Octubre	2023-10-23T00:00:00	2024-11-06T14:00:00	4	Temperatura máxima	18.6
185195	7	Sololá	701	Sololá	2	El tablón	10	Octubre	2023-10-23T00:00:00	2024-11-06T14:00:00	3	Temperatura mínima	17.4
185196	7	Sololá	701	Sololá	2	El tablón	10	Octubre	2023-10-23T00:00:00	2024-11-06T14:00:00	5	Humedad	83
185197	7	Sololá	701	Sololá	2	El tablón	10	Octubre	2023-10-23T00:00:00	2024-11-06T14:00:00	6	Velocidad del viento	8
185198	7	Sololá	701	Sololá	2	El tablón	10	Octubre	2023-10-23T00:00:00	2024-11-06T14:00:00	7	Dirección del viento	8.05
185199	7	Sololá	701	Sololá	2	El tablón	10	Octubre	2023-10-23T00:00:00	2024-11-06T14:00:00	1	Precipitación	0
185200	7	Sololá	701	Sololá	2	El tablón	10	Octubre	2023-10-23T00:00:00	2024-11-06T14:00:00	8	Radiación solar	778
185201	7	Sololá	701	Sololá	2	El tablón	10	Octubre	2023-10-23T00:00:00	2024-11-06T15:00:00	2	Temperatura media	17
185202	7	Sololá	701	Sololá	2	El tablón	10	Octubre	2023-10-23T00:00:00	2024-11-06T15:00:00	4	Temperatura máxima	17.9
185203	7	Sololá	701	Sololá	2	El tablón	10	Octubre	2023-10-23T00:00:00	2024-11-06T15:00:00	3	Temperatura mínima	17
185204	7	Sololá	701	Sololá	2	El tablón	10	Octubre	2023-10-23T00:00:00	2024-11-06T15:00:00	5	Humedad	85
185205	7	Sololá	701	Sololá	2	El tablón	10	Octubre	2023-10-23T00:00:00	2024-11-06T15:00:00	6	Velocidad del viento	8
185206	7	Sololá	701	Sololá	2	El tablón	10	Octubre	2023-10-23T00:00:00	2024-11-06T15:00:00	7	Dirección del viento	8.05
185207	7	Sololá	701	Sololá	2	El tablón	10	Octubre	2023-10-23T00:00:00	2024-11-06T15:00:00	1	Precipitación	0
185208	7	Sololá	701	Sololá	2	El tablón	10	Octubre	2023-10-23T00:00:00	2024-11-06T15:00:00	8	Radiación solar	512
185209	7	Sololá	701	Sololá	2	El tablón	10	Octubre	2023-10-23T00:00:00	2024-11-06T16:00:00	2	Temperatura media	17
185210	7	Sololá	701	Sololá	2	El tablón	10	Octubre	2023-10-23T00:00:00	2024-11-06T16:00:00	4	Temperatura máxima	17.1
185211	7	Sololá	701	Sololá	2	El tablón	10	Octubre	2023-10-23T00:00:00	2024-11-06T16:00:00	3	Temperatura mínima	16.6
185212	7	Sololá	701	Sololá	2	El tablón	10	Octubre	2023-10-23T00:00:00	2024-11-06T16:00:00	5	Humedad	86
185213	7	Sololá	701	Sololá	2	El tablón	10	Octubre	2023-10-23T00:00:00	2024-11-06T16:00:00	6	Velocidad del viento	4.8
185214	7	Sololá	701	Sololá	2	El tablón	10	Octubre	2023-10-23T00:00:00	2024-11-06T16:00:00	7	Dirección del viento	4.83
185215	7	Sololá	701	Sololá	2	El tablón	10	Octubre	2023-10-23T00:00:00	2024-11-06T16:00:00	1	Precipitación	0
185216	7	Sololá	701	Sololá	2	El tablón	10	Octubre	2023-10-23T00:00:00	2024-11-06T16:00:00	8	Radiación solar	261
185217	7	Sololá	701	Sololá	2	El tablón	10	Octubre	2023-10-23T00:00:00	2024-11-06T17:00:00	2	Temperatura media	17.4
185218	7	Sololá	701	Sololá	2	El tablón	10	Octubre	2023-10-23T00:00:00	2024-11-06T17:00:00	4	Temperatura máxima	17.6
185219	7	Sololá	701	Sololá	2	El tablón	10	Octubre	2023-10-23T00:00:00	2024-11-06T17:00:00	3	Temperatura mínima	16.8
185220	7	Sololá	701	Sololá	2	El tablón	10	Octubre	2023-10-23T00:00:00	2024-11-06T17:00:00	5	Humedad	86
185221	7	Sololá	701	Sololá	2	El tablón	10	Octubre	2023-10-23T00:00:00	2024-11-06T17:00:00	6	Velocidad del viento	3.2
185222	7	Sololá	701	Sololá	2	El tablón	10	Octubre	2023-10-23T00:00:00	2024-11-06T17:00:00	7	Dirección del viento	3.22
185223	7	Sololá	701	Sololá	2	El tablón	10	Octubre	2023-10-23T00:00:00	2024-11-06T17:00:00	1	Precipitación	0
185224	7	Sololá	701	Sololá	2	El tablón	10	Octubre	2023-10-23T00:00:00	2024-11-06T17:00:00	8	Radiación solar	175
185225	7	Sololá	701	Sololá	2	El tablón	10	Octubre	2023-10-23T00:00:00	2024-11-06T18:00:00	2	Temperatura media	15.3
185226	7	Sololá	701	Sololá	2	El tablón	10	Octubre	2023-10-23T00:00:00	2024-11-06T18:00:00	4	Temperatura máxima	17.5
185227	7	Sololá	701	Sololá	2	El tablón	10	Octubre	2023-10-23T00:00:00	2024-11-06T18:00:00	3	Temperatura mínima	15.3
185228	7	Sololá	701	Sololá	2	El tablón	10	Octubre	2023-10-23T00:00:00	2024-11-06T18:00:00	5	Humedad	89
185229	7	Sololá	701	Sololá	2	El tablón	10	Octubre	2023-10-23T00:00:00	2024-11-06T18:00:00	6	Velocidad del viento	3.2
185230	7	Sololá	701	Sololá	2	El tablón	10	Octubre	2023-10-23T00:00:00	2024-11-06T18:00:00	7	Dirección del viento	3.22
185231	7	Sololá	701	Sololá	2	El tablón	10	Octubre	2023-10-23T00:00:00	2024-11-06T18:00:00	1	Precipitación	0
185232	7	Sololá	701	Sololá	2	El tablón	10	Octubre	2023-10-23T00:00:00	2024-11-06T18:00:00	8	Radiación solar	21
185233	7	Sololá	701	Sololá	2	El tablón	10	Octubre	2023-10-23T00:00:00	2024-11-06T19:00:00	2	Temperatura media	14.7
185234	7	Sololá	701	Sololá	2	El tablón	10	Octubre	2023-10-23T00:00:00	2024-11-06T19:00:00	4	Temperatura máxima	15.3
185235	7	Sololá	701	Sololá	2	El tablón	10	Octubre	2023-10-23T00:00:00	2024-11-06T19:00:00	3	Temperatura mínima	14.7
185236	7	Sololá	701	Sololá	2	El tablón	10	Octubre	2023-10-23T00:00:00	2024-11-06T19:00:00	5	Humedad	88
185237	7	Sololá	701	Sololá	2	El tablón	10	Octubre	2023-10-23T00:00:00	2024-11-06T19:00:00	6	Velocidad del viento	1.6
185238	7	Sololá	701	Sololá	2	El tablón	10	Octubre	2023-10-23T00:00:00	2024-11-06T19:00:00	7	Dirección del viento	1.61
185239	7	Sololá	701	Sololá	2	El tablón	10	Octubre	2023-10-23T00:00:00	2024-11-06T19:00:00	1	Precipitación	0
185240	7	Sololá	701	Sololá	2	El tablón	10	Octubre	2023-10-23T00:00:00	2024-11-06T19:00:00	8	Radiación solar	0
185241	7	Sololá	701	Sololá	2	El tablón	10	Octubre	2023-10-23T00:00:00	2024-11-06T20:00:00	2	Temperatura media	14.8
185242	7	Sololá	701	Sololá	2	El tablón	10	Octubre	2023-10-23T00:00:00	2024-11-06T20:00:00	4	Temperatura máxima	15
185243	7	Sololá	701	Sololá	2	El tablón	10	Octubre	2023-10-23T00:00:00	2024-11-06T20:00:00	3	Temperatura mínima	14.7
185244	7	Sololá	701	Sololá	2	El tablón	10	Octubre	2023-10-23T00:00:00	2024-11-06T20:00:00	5	Humedad	88
185245	7	Sololá	701	Sololá	2	El tablón	10	Octubre	2023-10-23T00:00:00	2024-11-06T20:00:00	6	Velocidad del viento	0
185246	7	Sololá	701	Sololá	2	El tablón	10	Octubre	2023-10-23T00:00:00	2024-11-06T20:00:00	7	Dirección del viento	0
185247	7	Sololá	701	Sololá	2	El tablón	10	Octubre	2023-10-23T00:00:00	2024-11-06T20:00:00	1	Precipitación	0
185248	7	Sololá	701	Sololá	2	El tablón	10	Octubre	2023-10-23T00:00:00	2024-11-06T20:00:00	8	Radiación solar	0
185249	7	Sololá	701	Sololá	2	El tablón	10	Octubre	2023-10-23T00:00:00	2024-11-06T21:00:00	2	Temperatura media	14.8
185250	7	Sololá	701	Sololá	2	El tablón	10	Octubre	2023-10-23T00:00:00	2024-11-06T21:00:00	4	Temperatura máxima	14.9
185251	7	Sololá	701	Sololá	2	El tablón	10	Octubre	2023-10-23T00:00:00	2024-11-06T21:00:00	3	Temperatura mínima	14.8
185252	7	Sololá	701	Sololá	2	El tablón	10	Octubre	2023-10-23T00:00:00	2024-11-06T21:00:00	5	Humedad	89
185253	7	Sololá	701	Sololá	2	El tablón	10	Octubre	2023-10-23T00:00:00	2024-11-06T21:00:00	6	Velocidad del viento	0
185254	7	Sololá	701	Sololá	2	El tablón	10	Octubre	2023-10-23T00:00:00	2024-11-06T21:00:00	7	Dirección del viento	0
185255	7	Sololá	701	Sololá	2	El tablón	10	Octubre	2023-10-23T00:00:00	2024-11-06T21:00:00	1	Precipitación	0
185256	7	Sololá	701	Sololá	2	El tablón	10	Octubre	2023-10-23T00:00:00	2024-11-06T21:00:00	8	Radiación solar	0
185257	7	Sololá	701	Sololá	2	El tablón	10	Octubre	2023-10-23T00:00:00	2024-11-06T22:00:00	2	Temperatura media	14.2
185258	7	Sololá	701	Sololá	2	El tablón	10	Octubre	2023-10-23T00:00:00	2024-11-06T22:00:00	4	Temperatura máxima	14.8
185259	7	Sololá	701	Sololá	2	El tablón	10	Octubre	2023-10-23T00:00:00	2024-11-06T22:00:00	3	Temperatura mínima	14.2
185260	7	Sololá	701	Sololá	2	El tablón	10	Octubre	2023-10-23T00:00:00	2024-11-06T22:00:00	5	Humedad	88
185261	7	Sololá	701	Sololá	2	El tablón	10	Octubre	2023-10-23T00:00:00	2024-11-06T22:00:00	6	Velocidad del viento	0
185262	7	Sololá	701	Sololá	2	El tablón	10	Octubre	2023-10-23T00:00:00	2024-11-06T22:00:00	7	Dirección del viento	0
185263	7	Sololá	701	Sololá	2	El tablón	10	Octubre	2023-10-23T00:00:00	2024-11-06T22:00:00	1	Precipitación	0.6
185264	7	Sololá	701	Sololá	2	El tablón	10	Octubre	2023-10-23T00:00:00	2024-11-06T22:00:00	8	Radiación solar	0
185265	7	Sololá	701	Sololá	2	El tablón	10	Octubre	2023-10-23T00:00:00	2024-11-06T23:00:00	2	Temperatura media	13.8
185266	7	Sololá	701	Sololá	2	El tablón	10	Octubre	2023-10-23T00:00:00	2024-11-06T23:00:00	4	Temperatura máxima	14.2
185267	7	Sololá	701	Sololá	2	El tablón	10	Octubre	2023-10-23T00:00:00	2024-11-06T23:00:00	3	Temperatura mínima	13.8
185268	7	Sololá	701	Sololá	2	El tablón	10	Octubre	2023-10-23T00:00:00	2024-11-06T23:00:00	5	Humedad	87
185269	7	Sololá	701	Sololá	2	El tablón	10	Octubre	2023-10-23T00:00:00	2024-11-06T23:00:00	6	Velocidad del viento	1.6
185270	7	Sololá	701	Sololá	2	El tablón	10	Octubre	2023-10-23T00:00:00	2024-11-06T23:00:00	7	Dirección del viento	1.61
185271	7	Sololá	701	Sololá	2	El tablón	10	Octubre	2023-10-23T00:00:00	2024-11-06T23:00:00	1	Precipitación	1
185272	7	Sololá	701	Sololá	2	El tablón	10	Octubre	2023-10-23T00:00:00	2024-11-06T23:00:00	8	Radiación solar	0
185273	7	Sololá	701	Sololá	2	El tablón	10	Octubre	2023-10-24T00:00:00	2024-11-06T00:00:00	2	Temperatura media	13.3
185274	7	Sololá	701	Sololá	2	El tablón	10	Octubre	2023-10-24T00:00:00	2024-11-06T00:00:00	4	Temperatura máxima	13.8
185275	7	Sololá	701	Sololá	2	El tablón	10	Octubre	2023-10-24T00:00:00	2024-11-06T00:00:00	3	Temperatura mínima	13.2
185276	7	Sololá	701	Sololá	2	El tablón	10	Octubre	2023-10-24T00:00:00	2024-11-06T00:00:00	5	Humedad	87
185277	7	Sololá	701	Sololá	2	El tablón	10	Octubre	2023-10-24T00:00:00	2024-11-06T00:00:00	6	Velocidad del viento	1.6
185278	7	Sololá	701	Sololá	2	El tablón	10	Octubre	2023-10-24T00:00:00	2024-11-06T00:00:00	7	Dirección del viento	1.61
185279	7	Sololá	701	Sololá	2	El tablón	10	Octubre	2023-10-24T00:00:00	2024-11-06T00:00:00	1	Precipitación	1.8
185280	7	Sololá	701	Sololá	2	El tablón	10	Octubre	2023-10-24T00:00:00	2024-11-06T00:00:00	8	Radiación solar	0
185281	7	Sololá	701	Sololá	2	El tablón	10	Octubre	2023-10-24T00:00:00	2024-11-06T01:00:00	2	Temperatura media	13.4
185282	7	Sololá	701	Sololá	2	El tablón	10	Octubre	2023-10-24T00:00:00	2024-11-06T01:00:00	4	Temperatura máxima	13.6
185283	7	Sololá	701	Sololá	2	El tablón	10	Octubre	2023-10-24T00:00:00	2024-11-06T01:00:00	3	Temperatura mínima	13.3
185284	7	Sololá	701	Sololá	2	El tablón	10	Octubre	2023-10-24T00:00:00	2024-11-06T01:00:00	5	Humedad	87
185285	7	Sololá	701	Sololá	2	El tablón	10	Octubre	2023-10-24T00:00:00	2024-11-06T01:00:00	6	Velocidad del viento	1.6
185286	7	Sololá	701	Sololá	2	El tablón	10	Octubre	2023-10-24T00:00:00	2024-11-06T01:00:00	7	Dirección del viento	1.61
185287	7	Sololá	701	Sololá	2	El tablón	10	Octubre	2023-10-24T00:00:00	2024-11-06T01:00:00	1	Precipitación	0.2
185288	7	Sololá	701	Sololá	2	El tablón	10	Octubre	2023-10-24T00:00:00	2024-11-06T01:00:00	8	Radiación solar	0
185289	7	Sololá	701	Sololá	2	El tablón	10	Octubre	2023-10-24T00:00:00	2024-11-06T02:00:00	2	Temperatura media	12.8
185290	7	Sololá	701	Sololá	2	El tablón	10	Octubre	2023-10-24T00:00:00	2024-11-06T02:00:00	4	Temperatura máxima	13.4
185291	7	Sololá	701	Sololá	2	El tablón	10	Octubre	2023-10-24T00:00:00	2024-11-06T02:00:00	3	Temperatura mínima	12.8
185292	7	Sololá	701	Sololá	2	El tablón	10	Octubre	2023-10-24T00:00:00	2024-11-06T02:00:00	5	Humedad	88
185293	7	Sololá	701	Sololá	2	El tablón	10	Octubre	2023-10-24T00:00:00	2024-11-06T02:00:00	6	Velocidad del viento	3.2
185294	7	Sololá	701	Sololá	2	El tablón	10	Octubre	2023-10-24T00:00:00	2024-11-06T02:00:00	7	Dirección del viento	3.22
185295	7	Sololá	701	Sololá	2	El tablón	10	Octubre	2023-10-24T00:00:00	2024-11-06T02:00:00	1	Precipitación	0
185296	7	Sololá	701	Sololá	2	El tablón	10	Octubre	2023-10-24T00:00:00	2024-11-06T02:00:00	8	Radiación solar	0
185297	7	Sololá	701	Sololá	2	El tablón	10	Octubre	2023-10-24T00:00:00	2024-11-06T03:00:00	2	Temperatura media	12.6
185298	7	Sololá	701	Sololá	2	El tablón	10	Octubre	2023-10-24T00:00:00	2024-11-06T03:00:00	4	Temperatura máxima	12.8
185299	7	Sololá	701	Sololá	2	El tablón	10	Octubre	2023-10-24T00:00:00	2024-11-06T03:00:00	3	Temperatura mínima	12.6
185300	7	Sololá	701	Sololá	2	El tablón	10	Octubre	2023-10-24T00:00:00	2024-11-06T03:00:00	5	Humedad	89
185301	7	Sololá	701	Sololá	2	El tablón	10	Octubre	2023-10-24T00:00:00	2024-11-06T03:00:00	6	Velocidad del viento	3.2
185302	7	Sololá	701	Sololá	2	El tablón	10	Octubre	2023-10-24T00:00:00	2024-11-06T03:00:00	7	Dirección del viento	3.22
185303	7	Sololá	701	Sololá	2	El tablón	10	Octubre	2023-10-24T00:00:00	2024-11-06T03:00:00	1	Precipitación	0
185304	7	Sololá	701	Sololá	2	El tablón	10	Octubre	2023-10-24T00:00:00	2024-11-06T03:00:00	8	Radiación solar	0
185305	7	Sololá	701	Sololá	2	El tablón	10	Octubre	2023-10-24T00:00:00	2024-11-06T04:00:00	2	Temperatura media	12.2
185306	7	Sololá	701	Sololá	2	El tablón	10	Octubre	2023-10-24T00:00:00	2024-11-06T04:00:00	4	Temperatura máxima	12.6
185307	7	Sololá	701	Sololá	2	El tablón	10	Octubre	2023-10-24T00:00:00	2024-11-06T04:00:00	3	Temperatura mínima	12.1
185308	7	Sololá	701	Sololá	2	El tablón	10	Octubre	2023-10-24T00:00:00	2024-11-06T04:00:00	5	Humedad	89
185309	7	Sololá	701	Sololá	2	El tablón	10	Octubre	2023-10-24T00:00:00	2024-11-06T04:00:00	6	Velocidad del viento	3.2
185310	7	Sololá	701	Sololá	2	El tablón	10	Octubre	2023-10-24T00:00:00	2024-11-06T04:00:00	7	Dirección del viento	3.22
185311	7	Sololá	701	Sololá	2	El tablón	10	Octubre	2023-10-24T00:00:00	2024-11-06T04:00:00	1	Precipitación	0
185312	7	Sololá	701	Sololá	2	El tablón	10	Octubre	2023-10-24T00:00:00	2024-11-06T04:00:00	8	Radiación solar	0
185313	7	Sololá	701	Sololá	2	El tablón	10	Octubre	2023-10-24T00:00:00	2024-11-06T05:00:00	2	Temperatura media	12
185314	7	Sololá	701	Sololá	2	El tablón	10	Octubre	2023-10-24T00:00:00	2024-11-06T05:00:00	4	Temperatura máxima	12.2
185315	7	Sololá	701	Sololá	2	El tablón	10	Octubre	2023-10-24T00:00:00	2024-11-06T05:00:00	3	Temperatura mínima	11.9
185316	7	Sololá	701	Sololá	2	El tablón	10	Octubre	2023-10-24T00:00:00	2024-11-06T05:00:00	5	Humedad	89
185317	7	Sololá	701	Sololá	2	El tablón	10	Octubre	2023-10-24T00:00:00	2024-11-06T05:00:00	6	Velocidad del viento	4.8
185318	7	Sololá	701	Sololá	2	El tablón	10	Octubre	2023-10-24T00:00:00	2024-11-06T05:00:00	7	Dirección del viento	4.83
185319	7	Sololá	701	Sololá	2	El tablón	10	Octubre	2023-10-24T00:00:00	2024-11-06T05:00:00	1	Precipitación	0
185320	7	Sololá	701	Sololá	2	El tablón	10	Octubre	2023-10-24T00:00:00	2024-11-06T05:00:00	8	Radiación solar	0
185321	7	Sololá	701	Sololá	2	El tablón	10	Octubre	2023-10-24T00:00:00	2024-11-06T06:00:00	2	Temperatura media	12.7
185322	7	Sololá	701	Sololá	2	El tablón	10	Octubre	2023-10-24T00:00:00	2024-11-06T06:00:00	4	Temperatura máxima	12.7
185323	7	Sololá	701	Sololá	2	El tablón	10	Octubre	2023-10-24T00:00:00	2024-11-06T06:00:00	3	Temperatura mínima	12
185324	7	Sololá	701	Sololá	2	El tablón	10	Octubre	2023-10-24T00:00:00	2024-11-06T06:00:00	5	Humedad	89
185325	7	Sololá	701	Sololá	2	El tablón	10	Octubre	2023-10-24T00:00:00	2024-11-06T06:00:00	6	Velocidad del viento	1.6
185326	7	Sololá	701	Sololá	2	El tablón	10	Octubre	2023-10-24T00:00:00	2024-11-06T06:00:00	7	Dirección del viento	1.61
185327	7	Sololá	701	Sololá	2	El tablón	10	Octubre	2023-10-24T00:00:00	2024-11-06T06:00:00	1	Precipitación	0
185328	7	Sololá	701	Sololá	2	El tablón	10	Octubre	2023-10-24T00:00:00	2024-11-06T06:00:00	8	Radiación solar	0
185329	7	Sololá	701	Sololá	2	El tablón	10	Octubre	2023-10-24T00:00:00	2024-11-06T07:00:00	2	Temperatura media	13.8
185330	7	Sololá	701	Sololá	2	El tablón	10	Octubre	2023-10-24T00:00:00	2024-11-06T07:00:00	4	Temperatura máxima	13.8
185331	7	Sololá	701	Sololá	2	El tablón	10	Octubre	2023-10-24T00:00:00	2024-11-06T07:00:00	3	Temperatura mínima	12.6
185332	7	Sololá	701	Sololá	2	El tablón	10	Octubre	2023-10-24T00:00:00	2024-11-06T07:00:00	5	Humedad	89
185333	7	Sololá	701	Sololá	2	El tablón	10	Octubre	2023-10-24T00:00:00	2024-11-06T07:00:00	6	Velocidad del viento	0
185334	7	Sololá	701	Sololá	2	El tablón	10	Octubre	2023-10-24T00:00:00	2024-11-06T07:00:00	7	Dirección del viento	0
185335	7	Sololá	701	Sololá	2	El tablón	10	Octubre	2023-10-24T00:00:00	2024-11-06T07:00:00	1	Precipitación	0
185336	7	Sololá	701	Sololá	2	El tablón	10	Octubre	2023-10-24T00:00:00	2024-11-06T07:00:00	8	Radiación solar	72
185337	7	Sololá	701	Sololá	2	El tablón	10	Octubre	2023-10-24T00:00:00	2024-11-06T08:00:00	2	Temperatura media	15.6
185338	7	Sololá	701	Sololá	2	El tablón	10	Octubre	2023-10-24T00:00:00	2024-11-06T08:00:00	4	Temperatura máxima	15.6
185339	7	Sololá	701	Sololá	2	El tablón	10	Octubre	2023-10-24T00:00:00	2024-11-06T08:00:00	3	Temperatura mínima	13.7
185340	7	Sololá	701	Sololá	2	El tablón	10	Octubre	2023-10-24T00:00:00	2024-11-06T08:00:00	5	Humedad	87
185341	7	Sololá	701	Sololá	2	El tablón	10	Octubre	2023-10-24T00:00:00	2024-11-06T08:00:00	6	Velocidad del viento	1.6
185342	7	Sololá	701	Sololá	2	El tablón	10	Octubre	2023-10-24T00:00:00	2024-11-06T08:00:00	7	Dirección del viento	1.61
185343	7	Sololá	701	Sololá	2	El tablón	10	Octubre	2023-10-24T00:00:00	2024-11-06T08:00:00	1	Precipitación	0
185344	7	Sololá	701	Sololá	2	El tablón	10	Octubre	2023-10-24T00:00:00	2024-11-06T08:00:00	8	Radiación solar	246
185345	7	Sololá	701	Sololá	2	El tablón	10	Octubre	2023-10-24T00:00:00	2024-11-06T09:00:00	2	Temperatura media	18.6
185346	7	Sololá	701	Sololá	2	El tablón	10	Octubre	2023-10-24T00:00:00	2024-11-06T09:00:00	4	Temperatura máxima	18.6
185347	7	Sololá	701	Sololá	2	El tablón	10	Octubre	2023-10-24T00:00:00	2024-11-06T09:00:00	3	Temperatura mínima	15.6
185348	7	Sololá	701	Sololá	2	El tablón	10	Octubre	2023-10-24T00:00:00	2024-11-06T09:00:00	5	Humedad	76
185349	7	Sololá	701	Sololá	2	El tablón	10	Octubre	2023-10-24T00:00:00	2024-11-06T09:00:00	6	Velocidad del viento	4.8
185350	7	Sololá	701	Sololá	2	El tablón	10	Octubre	2023-10-24T00:00:00	2024-11-06T09:00:00	7	Dirección del viento	4.83
185351	7	Sololá	701	Sololá	2	El tablón	10	Octubre	2023-10-24T00:00:00	2024-11-06T09:00:00	1	Precipitación	0
185352	7	Sololá	701	Sololá	2	El tablón	10	Octubre	2023-10-24T00:00:00	2024-11-06T09:00:00	8	Radiación solar	511
185353	7	Sololá	701	Sololá	2	El tablón	10	Octubre	2023-10-24T00:00:00	2024-11-06T10:00:00	2	Temperatura media	20.1
185354	7	Sololá	701	Sololá	2	El tablón	10	Octubre	2023-10-24T00:00:00	2024-11-06T10:00:00	4	Temperatura máxima	20.1
185355	7	Sololá	701	Sololá	2	El tablón	10	Octubre	2023-10-24T00:00:00	2024-11-06T10:00:00	3	Temperatura mínima	18.4
185356	7	Sololá	701	Sololá	2	El tablón	10	Octubre	2023-10-24T00:00:00	2024-11-06T10:00:00	5	Humedad	72
185357	7	Sololá	701	Sololá	2	El tablón	10	Octubre	2023-10-24T00:00:00	2024-11-06T10:00:00	6	Velocidad del viento	8
185358	7	Sololá	701	Sololá	2	El tablón	10	Octubre	2023-10-24T00:00:00	2024-11-06T10:00:00	7	Dirección del viento	8.05
185359	7	Sololá	701	Sololá	2	El tablón	10	Octubre	2023-10-24T00:00:00	2024-11-06T10:00:00	1	Precipitación	0
185360	7	Sololá	701	Sololá	2	El tablón	10	Octubre	2023-10-24T00:00:00	2024-11-06T10:00:00	8	Radiación solar	677
185361	7	Sololá	701	Sololá	2	El tablón	10	Octubre	2023-10-24T00:00:00	2024-11-06T11:00:00	2	Temperatura media	20.1
185362	7	Sololá	701	Sololá	2	El tablón	10	Octubre	2023-10-24T00:00:00	2024-11-06T11:00:00	4	Temperatura máxima	20.6
185363	7	Sololá	701	Sololá	2	El tablón	10	Octubre	2023-10-24T00:00:00	2024-11-06T11:00:00	3	Temperatura mínima	19.7
185364	7	Sololá	701	Sololá	2	El tablón	10	Octubre	2023-10-24T00:00:00	2024-11-06T11:00:00	5	Humedad	69
185365	7	Sololá	701	Sololá	2	El tablón	10	Octubre	2023-10-24T00:00:00	2024-11-06T11:00:00	6	Velocidad del viento	9.7
185366	7	Sololá	701	Sololá	2	El tablón	10	Octubre	2023-10-24T00:00:00	2024-11-06T11:00:00	7	Dirección del viento	9.66
185367	7	Sololá	701	Sololá	2	El tablón	10	Octubre	2023-10-24T00:00:00	2024-11-06T11:00:00	1	Precipitación	0
185368	7	Sololá	701	Sololá	2	El tablón	10	Octubre	2023-10-24T00:00:00	2024-11-06T11:00:00	8	Radiación solar	769
185369	7	Sololá	701	Sololá	2	El tablón	10	Octubre	2023-10-24T00:00:00	2024-11-06T12:00:00	2	Temperatura media	18.3
185370	7	Sololá	701	Sololá	2	El tablón	10	Octubre	2023-10-24T00:00:00	2024-11-06T12:00:00	4	Temperatura máxima	20.9
185371	7	Sololá	701	Sololá	2	El tablón	10	Octubre	2023-10-24T00:00:00	2024-11-06T12:00:00	3	Temperatura mínima	18.2
185372	7	Sololá	701	Sololá	2	El tablón	10	Octubre	2023-10-24T00:00:00	2024-11-06T12:00:00	5	Humedad	86
185373	7	Sololá	701	Sololá	2	El tablón	10	Octubre	2023-10-24T00:00:00	2024-11-06T12:00:00	6	Velocidad del viento	8
185374	7	Sololá	701	Sololá	2	El tablón	10	Octubre	2023-10-24T00:00:00	2024-11-06T12:00:00	7	Dirección del viento	8.05
185375	7	Sololá	701	Sololá	2	El tablón	10	Octubre	2023-10-24T00:00:00	2024-11-06T12:00:00	1	Precipitación	0
185376	7	Sololá	701	Sololá	2	El tablón	10	Octubre	2023-10-24T00:00:00	2024-11-06T12:00:00	8	Radiación solar	670
185377	7	Sololá	701	Sololá	2	El tablón	10	Octubre	2023-10-24T00:00:00	2024-11-06T13:00:00	2	Temperatura media	17.4
185378	7	Sololá	701	Sololá	2	El tablón	10	Octubre	2023-10-24T00:00:00	2024-11-06T13:00:00	4	Temperatura máxima	18.3
185379	7	Sololá	701	Sololá	2	El tablón	10	Octubre	2023-10-24T00:00:00	2024-11-06T13:00:00	3	Temperatura mínima	17.4
185380	7	Sololá	701	Sololá	2	El tablón	10	Octubre	2023-10-24T00:00:00	2024-11-06T13:00:00	5	Humedad	87
185381	7	Sololá	701	Sololá	2	El tablón	10	Octubre	2023-10-24T00:00:00	2024-11-06T13:00:00	6	Velocidad del viento	8
185382	7	Sololá	701	Sololá	2	El tablón	10	Octubre	2023-10-24T00:00:00	2024-11-06T13:00:00	7	Dirección del viento	8.05
185383	7	Sololá	701	Sololá	2	El tablón	10	Octubre	2023-10-24T00:00:00	2024-11-06T13:00:00	1	Precipitación	0
185384	7	Sololá	701	Sololá	2	El tablón	10	Octubre	2023-10-24T00:00:00	2024-11-06T13:00:00	8	Radiación solar	468
185385	7	Sololá	701	Sololá	2	El tablón	10	Octubre	2023-10-24T00:00:00	2024-11-06T14:00:00	2	Temperatura media	15.1
185386	7	Sololá	701	Sololá	2	El tablón	10	Octubre	2023-10-24T00:00:00	2024-11-06T14:00:00	4	Temperatura máxima	17.4
185387	7	Sololá	701	Sololá	2	El tablón	10	Octubre	2023-10-24T00:00:00	2024-11-06T14:00:00	3	Temperatura mínima	15
185388	7	Sololá	701	Sololá	2	El tablón	10	Octubre	2023-10-24T00:00:00	2024-11-06T14:00:00	5	Humedad	88
185389	7	Sololá	701	Sololá	2	El tablón	10	Octubre	2023-10-24T00:00:00	2024-11-06T14:00:00	6	Velocidad del viento	6.4
185390	7	Sololá	701	Sololá	2	El tablón	10	Octubre	2023-10-24T00:00:00	2024-11-06T14:00:00	7	Dirección del viento	6.44
185391	7	Sololá	701	Sololá	2	El tablón	10	Octubre	2023-10-24T00:00:00	2024-11-06T14:00:00	1	Precipitación	0.6
185392	7	Sololá	701	Sololá	2	El tablón	10	Octubre	2023-10-24T00:00:00	2024-11-06T14:00:00	8	Radiación solar	123
185393	7	Sololá	701	Sololá	2	El tablón	10	Octubre	2023-10-24T00:00:00	2024-11-06T15:00:00	2	Temperatura media	15.3
185394	7	Sololá	701	Sololá	2	El tablón	10	Octubre	2023-10-24T00:00:00	2024-11-06T15:00:00	4	Temperatura máxima	15.3
185395	7	Sololá	701	Sololá	2	El tablón	10	Octubre	2023-10-24T00:00:00	2024-11-06T15:00:00	3	Temperatura mínima	14.7
185396	7	Sololá	701	Sololá	2	El tablón	10	Octubre	2023-10-24T00:00:00	2024-11-06T15:00:00	5	Humedad	89
185397	7	Sololá	701	Sololá	2	El tablón	10	Octubre	2023-10-24T00:00:00	2024-11-06T15:00:00	6	Velocidad del viento	1.6
185398	7	Sololá	701	Sololá	2	El tablón	10	Octubre	2023-10-24T00:00:00	2024-11-06T15:00:00	7	Dirección del viento	1.61
185399	7	Sololá	701	Sololá	2	El tablón	10	Octubre	2023-10-24T00:00:00	2024-11-06T15:00:00	1	Precipitación	0
185400	7	Sololá	701	Sololá	2	El tablón	10	Octubre	2023-10-24T00:00:00	2024-11-06T15:00:00	8	Radiación solar	96
185401	7	Sololá	701	Sololá	2	El tablón	10	Octubre	2023-10-24T00:00:00	2024-11-06T16:00:00	2	Temperatura media	15.8
185402	7	Sololá	701	Sololá	2	El tablón	10	Octubre	2023-10-24T00:00:00	2024-11-06T16:00:00	4	Temperatura máxima	15.9
185403	7	Sololá	701	Sololá	2	El tablón	10	Octubre	2023-10-24T00:00:00	2024-11-06T16:00:00	3	Temperatura mínima	15.3
185404	7	Sololá	701	Sololá	2	El tablón	10	Octubre	2023-10-24T00:00:00	2024-11-06T16:00:00	5	Humedad	88
185405	7	Sololá	701	Sololá	2	El tablón	10	Octubre	2023-10-24T00:00:00	2024-11-06T16:00:00	6	Velocidad del viento	3.2
185406	7	Sololá	701	Sololá	2	El tablón	10	Octubre	2023-10-24T00:00:00	2024-11-06T16:00:00	7	Dirección del viento	3.22
185407	7	Sololá	701	Sololá	2	El tablón	10	Octubre	2023-10-24T00:00:00	2024-11-06T16:00:00	1	Precipitación	0
185408	7	Sololá	701	Sololá	2	El tablón	10	Octubre	2023-10-24T00:00:00	2024-11-06T16:00:00	8	Radiación solar	122
185409	7	Sololá	701	Sololá	2	El tablón	10	Octubre	2023-10-24T00:00:00	2024-11-06T17:00:00	2	Temperatura media	15.5
185410	7	Sololá	701	Sololá	2	El tablón	10	Octubre	2023-10-24T00:00:00	2024-11-06T17:00:00	4	Temperatura máxima	15.9
185411	7	Sololá	701	Sololá	2	El tablón	10	Octubre	2023-10-24T00:00:00	2024-11-06T17:00:00	3	Temperatura mínima	15.4
185412	7	Sololá	701	Sololá	2	El tablón	10	Octubre	2023-10-24T00:00:00	2024-11-06T17:00:00	5	Humedad	89
185413	7	Sololá	701	Sololá	2	El tablón	10	Octubre	2023-10-24T00:00:00	2024-11-06T17:00:00	6	Velocidad del viento	1.6
185414	7	Sololá	701	Sololá	2	El tablón	10	Octubre	2023-10-24T00:00:00	2024-11-06T17:00:00	7	Dirección del viento	1.61
185415	7	Sololá	701	Sololá	2	El tablón	10	Octubre	2023-10-24T00:00:00	2024-11-06T17:00:00	1	Precipitación	0
185416	7	Sololá	701	Sololá	2	El tablón	10	Octubre	2023-10-24T00:00:00	2024-11-06T17:00:00	8	Radiación solar	80
185417	7	Sololá	701	Sololá	2	El tablón	10	Octubre	2023-10-24T00:00:00	2024-11-06T18:00:00	2	Temperatura media	14.8
185418	7	Sololá	701	Sololá	2	El tablón	10	Octubre	2023-10-24T00:00:00	2024-11-06T18:00:00	4	Temperatura máxima	15.5
185419	7	Sololá	701	Sololá	2	El tablón	10	Octubre	2023-10-24T00:00:00	2024-11-06T18:00:00	3	Temperatura mínima	14.8
185420	7	Sololá	701	Sololá	2	El tablón	10	Octubre	2023-10-24T00:00:00	2024-11-06T18:00:00	5	Humedad	89
185421	7	Sololá	701	Sololá	2	El tablón	10	Octubre	2023-10-24T00:00:00	2024-11-06T18:00:00	6	Velocidad del viento	1.6
185422	7	Sololá	701	Sololá	2	El tablón	10	Octubre	2023-10-24T00:00:00	2024-11-06T18:00:00	7	Dirección del viento	1.61
185423	7	Sololá	701	Sololá	2	El tablón	10	Octubre	2023-10-24T00:00:00	2024-11-06T18:00:00	1	Precipitación	0
185424	7	Sololá	701	Sololá	2	El tablón	10	Octubre	2023-10-24T00:00:00	2024-11-06T18:00:00	8	Radiación solar	13
185425	7	Sololá	701	Sololá	2	El tablón	10	Octubre	2023-10-24T00:00:00	2024-11-06T19:00:00	2	Temperatura media	15.1
185426	7	Sololá	701	Sololá	2	El tablón	10	Octubre	2023-10-24T00:00:00	2024-11-06T19:00:00	4	Temperatura máxima	15.2
185427	7	Sololá	701	Sololá	2	El tablón	10	Octubre	2023-10-24T00:00:00	2024-11-06T19:00:00	3	Temperatura mínima	14.8
185428	7	Sololá	701	Sololá	2	El tablón	10	Octubre	2023-10-24T00:00:00	2024-11-06T19:00:00	5	Humedad	87
185429	7	Sololá	701	Sololá	2	El tablón	10	Octubre	2023-10-24T00:00:00	2024-11-06T19:00:00	6	Velocidad del viento	3.2
185430	7	Sololá	701	Sololá	2	El tablón	10	Octubre	2023-10-24T00:00:00	2024-11-06T19:00:00	7	Dirección del viento	3.22
185431	7	Sololá	701	Sololá	2	El tablón	10	Octubre	2023-10-24T00:00:00	2024-11-06T19:00:00	1	Precipitación	0
185432	7	Sololá	701	Sololá	2	El tablón	10	Octubre	2023-10-24T00:00:00	2024-11-06T19:00:00	8	Radiación solar	0
185433	7	Sololá	701	Sololá	2	El tablón	10	Octubre	2023-10-24T00:00:00	2024-11-06T20:00:00	2	Temperatura media	14.9
185434	7	Sololá	701	Sololá	2	El tablón	10	Octubre	2023-10-24T00:00:00	2024-11-06T20:00:00	4	Temperatura máxima	15.2
185435	7	Sololá	701	Sololá	2	El tablón	10	Octubre	2023-10-24T00:00:00	2024-11-06T20:00:00	3	Temperatura mínima	14.9
185436	7	Sololá	701	Sololá	2	El tablón	10	Octubre	2023-10-24T00:00:00	2024-11-06T20:00:00	5	Humedad	88
185437	7	Sololá	701	Sololá	2	El tablón	10	Octubre	2023-10-24T00:00:00	2024-11-06T20:00:00	6	Velocidad del viento	4.8
185438	7	Sololá	701	Sololá	2	El tablón	10	Octubre	2023-10-24T00:00:00	2024-11-06T20:00:00	7	Dirección del viento	4.83
185439	7	Sololá	701	Sololá	2	El tablón	10	Octubre	2023-10-24T00:00:00	2024-11-06T20:00:00	1	Precipitación	0.2
185440	7	Sololá	701	Sololá	2	El tablón	10	Octubre	2023-10-24T00:00:00	2024-11-06T20:00:00	8	Radiación solar	0
185441	7	Sololá	701	Sololá	2	El tablón	10	Octubre	2023-10-24T00:00:00	2024-11-06T21:00:00	2	Temperatura media	14.9
185442	7	Sololá	701	Sololá	2	El tablón	10	Octubre	2023-10-24T00:00:00	2024-11-06T21:00:00	4	Temperatura máxima	14.9
185443	7	Sololá	701	Sololá	2	El tablón	10	Octubre	2023-10-24T00:00:00	2024-11-06T21:00:00	3	Temperatura mínima	14.8
185444	7	Sololá	701	Sololá	2	El tablón	10	Octubre	2023-10-24T00:00:00	2024-11-06T21:00:00	5	Humedad	88
185445	7	Sololá	701	Sololá	2	El tablón	10	Octubre	2023-10-24T00:00:00	2024-11-06T21:00:00	6	Velocidad del viento	8
185446	7	Sololá	701	Sololá	2	El tablón	10	Octubre	2023-10-24T00:00:00	2024-11-06T21:00:00	7	Dirección del viento	8.05
185447	7	Sololá	701	Sololá	2	El tablón	10	Octubre	2023-10-24T00:00:00	2024-11-06T21:00:00	1	Precipitación	0
185448	7	Sololá	701	Sololá	2	El tablón	10	Octubre	2023-10-24T00:00:00	2024-11-06T21:00:00	8	Radiación solar	0
185449	7	Sololá	701	Sololá	2	El tablón	10	Octubre	2023-10-24T00:00:00	2024-11-06T22:00:00	2	Temperatura media	14.7
185450	7	Sololá	701	Sololá	2	El tablón	10	Octubre	2023-10-24T00:00:00	2024-11-06T22:00:00	4	Temperatura máxima	15.1
185451	7	Sololá	701	Sololá	2	El tablón	10	Octubre	2023-10-24T00:00:00	2024-11-06T22:00:00	3	Temperatura mínima	14.7
185452	7	Sololá	701	Sololá	2	El tablón	10	Octubre	2023-10-24T00:00:00	2024-11-06T22:00:00	5	Humedad	88
185453	7	Sololá	701	Sololá	2	El tablón	10	Octubre	2023-10-24T00:00:00	2024-11-06T22:00:00	6	Velocidad del viento	6.4
185454	7	Sololá	701	Sololá	2	El tablón	10	Octubre	2023-10-24T00:00:00	2024-11-06T22:00:00	7	Dirección del viento	6.44
185455	7	Sololá	701	Sololá	2	El tablón	10	Octubre	2023-10-24T00:00:00	2024-11-06T22:00:00	1	Precipitación	0.2
185456	7	Sololá	701	Sololá	2	El tablón	10	Octubre	2023-10-24T00:00:00	2024-11-06T22:00:00	8	Radiación solar	0
185457	7	Sololá	701	Sololá	2	El tablón	10	Octubre	2023-10-24T00:00:00	2024-11-06T23:00:00	2	Temperatura media	14.7
185458	7	Sololá	701	Sololá	2	El tablón	10	Octubre	2023-10-24T00:00:00	2024-11-06T23:00:00	4	Temperatura máxima	14.8
185459	7	Sololá	701	Sololá	2	El tablón	10	Octubre	2023-10-24T00:00:00	2024-11-06T23:00:00	3	Temperatura mínima	14.7
185460	7	Sololá	701	Sololá	2	El tablón	10	Octubre	2023-10-24T00:00:00	2024-11-06T23:00:00	5	Humedad	88
185461	7	Sololá	701	Sololá	2	El tablón	10	Octubre	2023-10-24T00:00:00	2024-11-06T23:00:00	6	Velocidad del viento	8
185462	7	Sololá	701	Sololá	2	El tablón	10	Octubre	2023-10-24T00:00:00	2024-11-06T23:00:00	7	Dirección del viento	8.05
185463	7	Sololá	701	Sololá	2	El tablón	10	Octubre	2023-10-24T00:00:00	2024-11-06T23:00:00	1	Precipitación	0
185464	7	Sololá	701	Sololá	2	El tablón	10	Octubre	2023-10-24T00:00:00	2024-11-06T23:00:00	8	Radiación solar	0
185465	7	Sololá	701	Sololá	2	El tablón	10	Octubre	2023-10-25T00:00:00	2024-11-06T00:00:00	2	Temperatura media	14.6
185466	7	Sololá	701	Sololá	2	El tablón	10	Octubre	2023-10-25T00:00:00	2024-11-06T00:00:00	4	Temperatura máxima	14.8
185467	7	Sololá	701	Sololá	2	El tablón	10	Octubre	2023-10-25T00:00:00	2024-11-06T00:00:00	3	Temperatura mínima	14.6
185468	7	Sololá	701	Sololá	2	El tablón	10	Octubre	2023-10-25T00:00:00	2024-11-06T00:00:00	5	Humedad	88
185469	7	Sololá	701	Sololá	2	El tablón	10	Octubre	2023-10-25T00:00:00	2024-11-06T00:00:00	6	Velocidad del viento	8
185470	7	Sololá	701	Sololá	2	El tablón	10	Octubre	2023-10-25T00:00:00	2024-11-06T00:00:00	7	Dirección del viento	8.05
185471	7	Sololá	701	Sololá	2	El tablón	10	Octubre	2023-10-25T00:00:00	2024-11-06T00:00:00	1	Precipitación	0
185472	7	Sololá	701	Sololá	2	El tablón	10	Octubre	2023-10-25T00:00:00	2024-11-06T00:00:00	8	Radiación solar	0
185473	7	Sololá	701	Sololá	2	El tablón	10	Octubre	2023-10-25T00:00:00	2024-11-06T01:00:00	2	Temperatura media	14.2
185474	7	Sololá	701	Sololá	2	El tablón	10	Octubre	2023-10-25T00:00:00	2024-11-06T01:00:00	4	Temperatura máxima	14.6
185475	7	Sololá	701	Sololá	2	El tablón	10	Octubre	2023-10-25T00:00:00	2024-11-06T01:00:00	3	Temperatura mínima	14.1
185476	7	Sololá	701	Sololá	2	El tablón	10	Octubre	2023-10-25T00:00:00	2024-11-06T01:00:00	5	Humedad	89
185477	7	Sololá	701	Sololá	2	El tablón	10	Octubre	2023-10-25T00:00:00	2024-11-06T01:00:00	6	Velocidad del viento	6.4
185478	7	Sololá	701	Sololá	2	El tablón	10	Octubre	2023-10-25T00:00:00	2024-11-06T01:00:00	7	Dirección del viento	6.44
185479	7	Sololá	701	Sololá	2	El tablón	10	Octubre	2023-10-25T00:00:00	2024-11-06T01:00:00	1	Precipitación	0
185480	7	Sololá	701	Sololá	2	El tablón	10	Octubre	2023-10-25T00:00:00	2024-11-06T01:00:00	8	Radiación solar	0
185481	7	Sololá	701	Sololá	2	El tablón	10	Octubre	2023-10-25T00:00:00	2024-11-06T02:00:00	2	Temperatura media	13.9
185482	7	Sololá	701	Sololá	2	El tablón	10	Octubre	2023-10-25T00:00:00	2024-11-06T02:00:00	4	Temperatura máxima	14.2
185483	7	Sololá	701	Sololá	2	El tablón	10	Octubre	2023-10-25T00:00:00	2024-11-06T02:00:00	3	Temperatura mínima	13.9
185484	7	Sololá	701	Sololá	2	El tablón	10	Octubre	2023-10-25T00:00:00	2024-11-06T02:00:00	5	Humedad	88
185485	7	Sololá	701	Sololá	2	El tablón	10	Octubre	2023-10-25T00:00:00	2024-11-06T02:00:00	6	Velocidad del viento	8
185486	7	Sololá	701	Sololá	2	El tablón	10	Octubre	2023-10-25T00:00:00	2024-11-06T02:00:00	7	Dirección del viento	8.05
185487	7	Sololá	701	Sololá	2	El tablón	10	Octubre	2023-10-25T00:00:00	2024-11-06T02:00:00	1	Precipitación	0
185488	7	Sololá	701	Sololá	2	El tablón	10	Octubre	2023-10-25T00:00:00	2024-11-06T02:00:00	8	Radiación solar	0
185489	7	Sololá	701	Sololá	2	El tablón	10	Octubre	2023-10-25T00:00:00	2024-11-06T03:00:00	2	Temperatura media	13.7
185490	7	Sololá	701	Sololá	2	El tablón	10	Octubre	2023-10-25T00:00:00	2024-11-06T03:00:00	4	Temperatura máxima	14
185491	7	Sololá	701	Sololá	2	El tablón	10	Octubre	2023-10-25T00:00:00	2024-11-06T03:00:00	3	Temperatura mínima	13.7
185492	7	Sololá	701	Sololá	2	El tablón	10	Octubre	2023-10-25T00:00:00	2024-11-06T03:00:00	5	Humedad	88
185493	7	Sololá	701	Sololá	2	El tablón	10	Octubre	2023-10-25T00:00:00	2024-11-06T03:00:00	6	Velocidad del viento	8
185494	7	Sololá	701	Sololá	2	El tablón	10	Octubre	2023-10-25T00:00:00	2024-11-06T03:00:00	7	Dirección del viento	8.05
185495	7	Sololá	701	Sololá	2	El tablón	10	Octubre	2023-10-25T00:00:00	2024-11-06T03:00:00	1	Precipitación	0
185496	7	Sololá	701	Sololá	2	El tablón	10	Octubre	2023-10-25T00:00:00	2024-11-06T03:00:00	8	Radiación solar	0
185497	7	Sololá	701	Sololá	2	El tablón	10	Octubre	2023-10-25T00:00:00	2024-11-06T04:00:00	2	Temperatura media	13.1
185498	7	Sololá	701	Sololá	2	El tablón	10	Octubre	2023-10-25T00:00:00	2024-11-06T04:00:00	4	Temperatura máxima	13.9
185499	7	Sololá	701	Sololá	2	El tablón	10	Octubre	2023-10-25T00:00:00	2024-11-06T04:00:00	3	Temperatura mínima	13.1
185500	7	Sololá	701	Sololá	2	El tablón	10	Octubre	2023-10-25T00:00:00	2024-11-06T04:00:00	5	Humedad	89
185501	7	Sololá	701	Sololá	2	El tablón	10	Octubre	2023-10-25T00:00:00	2024-11-06T04:00:00	6	Velocidad del viento	6.4
185502	7	Sololá	701	Sololá	2	El tablón	10	Octubre	2023-10-25T00:00:00	2024-11-06T04:00:00	7	Dirección del viento	6.44
185503	7	Sololá	701	Sololá	2	El tablón	10	Octubre	2023-10-25T00:00:00	2024-11-06T04:00:00	1	Precipitación	0
185504	7	Sololá	701	Sololá	2	El tablón	10	Octubre	2023-10-25T00:00:00	2024-11-06T04:00:00	8	Radiación solar	0
185505	7	Sololá	701	Sololá	2	El tablón	10	Octubre	2023-10-25T00:00:00	2024-11-06T05:00:00	2	Temperatura media	14.1
185506	7	Sololá	701	Sololá	2	El tablón	10	Octubre	2023-10-25T00:00:00	2024-11-06T05:00:00	4	Temperatura máxima	14.1
185507	7	Sololá	701	Sololá	2	El tablón	10	Octubre	2023-10-25T00:00:00	2024-11-06T05:00:00	3	Temperatura mínima	12.9
185508	7	Sololá	701	Sololá	2	El tablón	10	Octubre	2023-10-25T00:00:00	2024-11-06T05:00:00	5	Humedad	85
185509	7	Sololá	701	Sololá	2	El tablón	10	Octubre	2023-10-25T00:00:00	2024-11-06T05:00:00	6	Velocidad del viento	9.7
185510	7	Sololá	701	Sololá	2	El tablón	10	Octubre	2023-10-25T00:00:00	2024-11-06T05:00:00	7	Dirección del viento	9.66
185511	7	Sololá	701	Sololá	2	El tablón	10	Octubre	2023-10-25T00:00:00	2024-11-06T05:00:00	1	Precipitación	0
185512	7	Sololá	701	Sololá	2	El tablón	10	Octubre	2023-10-25T00:00:00	2024-11-06T05:00:00	8	Radiación solar	0
185513	7	Sololá	701	Sololá	2	El tablón	10	Octubre	2023-10-25T00:00:00	2024-11-06T06:00:00	2	Temperatura media	13.5
185514	7	Sololá	701	Sololá	2	El tablón	10	Octubre	2023-10-25T00:00:00	2024-11-06T06:00:00	4	Temperatura máxima	14.1
185515	7	Sololá	701	Sololá	2	El tablón	10	Octubre	2023-10-25T00:00:00	2024-11-06T06:00:00	3	Temperatura mínima	13.4
185516	7	Sololá	701	Sololá	2	El tablón	10	Octubre	2023-10-25T00:00:00	2024-11-06T06:00:00	5	Humedad	88
185517	7	Sololá	701	Sololá	2	El tablón	10	Octubre	2023-10-25T00:00:00	2024-11-06T06:00:00	6	Velocidad del viento	11.3
185518	7	Sololá	701	Sololá	2	El tablón	10	Octubre	2023-10-25T00:00:00	2024-11-06T06:00:00	7	Dirección del viento	11.27
185519	7	Sololá	701	Sololá	2	El tablón	10	Octubre	2023-10-25T00:00:00	2024-11-06T06:00:00	1	Precipitación	0
185520	7	Sololá	701	Sololá	2	El tablón	10	Octubre	2023-10-25T00:00:00	2024-11-06T06:00:00	8	Radiación solar	0
185521	7	Sololá	701	Sololá	2	El tablón	10	Octubre	2023-10-25T00:00:00	2024-11-06T07:00:00	2	Temperatura media	13.7
185522	7	Sololá	701	Sololá	2	El tablón	10	Octubre	2023-10-25T00:00:00	2024-11-06T07:00:00	4	Temperatura máxima	13.7
185523	7	Sololá	701	Sololá	2	El tablón	10	Octubre	2023-10-25T00:00:00	2024-11-06T07:00:00	3	Temperatura mínima	13.5
185524	7	Sololá	701	Sololá	2	El tablón	10	Octubre	2023-10-25T00:00:00	2024-11-06T07:00:00	5	Humedad	88
185525	7	Sololá	701	Sololá	2	El tablón	10	Octubre	2023-10-25T00:00:00	2024-11-06T07:00:00	6	Velocidad del viento	12.9
185526	7	Sololá	701	Sololá	2	El tablón	10	Octubre	2023-10-25T00:00:00	2024-11-06T07:00:00	7	Dirección del viento	12.87
185527	7	Sololá	701	Sololá	2	El tablón	10	Octubre	2023-10-25T00:00:00	2024-11-06T07:00:00	1	Precipitación	0
185528	7	Sololá	701	Sololá	2	El tablón	10	Octubre	2023-10-25T00:00:00	2024-11-06T07:00:00	8	Radiación solar	34
185529	7	Sololá	701	Sololá	2	El tablón	10	Octubre	2023-10-25T00:00:00	2024-11-06T08:00:00	2	Temperatura media	14.6
185530	7	Sololá	701	Sololá	2	El tablón	10	Octubre	2023-10-25T00:00:00	2024-11-06T08:00:00	4	Temperatura máxima	14.6
185531	7	Sololá	701	Sololá	2	El tablón	10	Octubre	2023-10-25T00:00:00	2024-11-06T08:00:00	3	Temperatura mínima	13.7
185532	7	Sololá	701	Sololá	2	El tablón	10	Octubre	2023-10-25T00:00:00	2024-11-06T08:00:00	5	Humedad	87
185533	7	Sololá	701	Sololá	2	El tablón	10	Octubre	2023-10-25T00:00:00	2024-11-06T08:00:00	6	Velocidad del viento	11.3
185534	7	Sololá	701	Sololá	2	El tablón	10	Octubre	2023-10-25T00:00:00	2024-11-06T08:00:00	7	Dirección del viento	11.27
185535	7	Sololá	701	Sololá	2	El tablón	10	Octubre	2023-10-25T00:00:00	2024-11-06T08:00:00	1	Precipitación	0
185536	7	Sololá	701	Sololá	2	El tablón	10	Octubre	2023-10-25T00:00:00	2024-11-06T08:00:00	8	Radiación solar	160
185537	7	Sololá	701	Sololá	2	El tablón	10	Octubre	2023-10-25T00:00:00	2024-11-06T09:00:00	2	Temperatura media	15.3
185538	7	Sololá	701	Sololá	2	El tablón	10	Octubre	2023-10-25T00:00:00	2024-11-06T09:00:00	4	Temperatura máxima	15.6
185539	7	Sololá	701	Sololá	2	El tablón	10	Octubre	2023-10-25T00:00:00	2024-11-06T09:00:00	3	Temperatura mínima	14.6
185540	7	Sololá	701	Sololá	2	El tablón	10	Octubre	2023-10-25T00:00:00	2024-11-06T09:00:00	5	Humedad	86
185541	7	Sololá	701	Sololá	2	El tablón	10	Octubre	2023-10-25T00:00:00	2024-11-06T09:00:00	6	Velocidad del viento	9.7
185542	7	Sololá	701	Sololá	2	El tablón	10	Octubre	2023-10-25T00:00:00	2024-11-06T09:00:00	7	Dirección del viento	9.66
185543	7	Sololá	701	Sololá	2	El tablón	10	Octubre	2023-10-25T00:00:00	2024-11-06T09:00:00	1	Precipitación	0
185544	7	Sololá	701	Sololá	2	El tablón	10	Octubre	2023-10-25T00:00:00	2024-11-06T09:00:00	8	Radiación solar	283
185545	7	Sololá	701	Sololá	2	El tablón	10	Octubre	2023-10-25T00:00:00	2024-11-06T10:00:00	2	Temperatura media	16.7
185546	7	Sololá	701	Sololá	2	El tablón	10	Octubre	2023-10-25T00:00:00	2024-11-06T10:00:00	4	Temperatura máxima	16.7
185547	7	Sololá	701	Sololá	2	El tablón	10	Octubre	2023-10-25T00:00:00	2024-11-06T10:00:00	3	Temperatura mínima	15.2
185548	7	Sololá	701	Sololá	2	El tablón	10	Octubre	2023-10-25T00:00:00	2024-11-06T10:00:00	5	Humedad	83
185549	7	Sololá	701	Sololá	2	El tablón	10	Octubre	2023-10-25T00:00:00	2024-11-06T10:00:00	6	Velocidad del viento	9.7
185550	7	Sololá	701	Sololá	2	El tablón	10	Octubre	2023-10-25T00:00:00	2024-11-06T10:00:00	7	Dirección del viento	9.66
185551	7	Sololá	701	Sololá	2	El tablón	10	Octubre	2023-10-25T00:00:00	2024-11-06T10:00:00	1	Precipitación	0
185552	7	Sololá	701	Sololá	2	El tablón	10	Octubre	2023-10-25T00:00:00	2024-11-06T10:00:00	8	Radiación solar	399
185553	7	Sololá	701	Sololá	2	El tablón	10	Octubre	2023-10-25T00:00:00	2024-11-06T11:00:00	2	Temperatura media	17.5
185554	7	Sololá	701	Sololá	2	El tablón	10	Octubre	2023-10-25T00:00:00	2024-11-06T11:00:00	4	Temperatura máxima	17.5
185555	7	Sololá	701	Sololá	2	El tablón	10	Octubre	2023-10-25T00:00:00	2024-11-06T11:00:00	3	Temperatura mínima	16.5
185556	7	Sololá	701	Sololá	2	El tablón	10	Octubre	2023-10-25T00:00:00	2024-11-06T11:00:00	5	Humedad	81
185557	7	Sololá	701	Sololá	2	El tablón	10	Octubre	2023-10-25T00:00:00	2024-11-06T11:00:00	6	Velocidad del viento	9.7
185558	7	Sololá	701	Sololá	2	El tablón	10	Octubre	2023-10-25T00:00:00	2024-11-06T11:00:00	7	Dirección del viento	9.66
185559	7	Sololá	701	Sololá	2	El tablón	10	Octubre	2023-10-25T00:00:00	2024-11-06T11:00:00	1	Precipitación	0
185560	7	Sololá	701	Sololá	2	El tablón	10	Octubre	2023-10-25T00:00:00	2024-11-06T11:00:00	8	Radiación solar	451
185561	7	Sololá	701	Sololá	2	El tablón	10	Octubre	2023-10-25T00:00:00	2024-11-06T12:00:00	2	Temperatura media	17.2
185562	7	Sololá	701	Sololá	2	El tablón	10	Octubre	2023-10-25T00:00:00	2024-11-06T12:00:00	4	Temperatura máxima	17.6
185563	7	Sololá	701	Sololá	2	El tablón	10	Octubre	2023-10-25T00:00:00	2024-11-06T12:00:00	3	Temperatura mínima	16.9
185564	7	Sololá	701	Sololá	2	El tablón	10	Octubre	2023-10-25T00:00:00	2024-11-06T12:00:00	5	Humedad	79
185565	7	Sololá	701	Sololá	2	El tablón	10	Octubre	2023-10-25T00:00:00	2024-11-06T12:00:00	6	Velocidad del viento	8
185566	7	Sololá	701	Sololá	2	El tablón	10	Octubre	2023-10-25T00:00:00	2024-11-06T12:00:00	7	Dirección del viento	8.05
185567	7	Sololá	701	Sololá	2	El tablón	10	Octubre	2023-10-25T00:00:00	2024-11-06T12:00:00	1	Precipitación	0
185568	7	Sololá	701	Sololá	2	El tablón	10	Octubre	2023-10-25T00:00:00	2024-11-06T12:00:00	8	Radiación solar	392
185569	7	Sololá	701	Sololá	2	El tablón	10	Octubre	2023-10-25T00:00:00	2024-11-06T13:00:00	2	Temperatura media	17.9
185570	7	Sololá	701	Sololá	2	El tablón	10	Octubre	2023-10-25T00:00:00	2024-11-06T13:00:00	4	Temperatura máxima	17.9
185571	7	Sololá	701	Sololá	2	El tablón	10	Octubre	2023-10-25T00:00:00	2024-11-06T13:00:00	3	Temperatura mínima	17.1
185572	7	Sololá	701	Sololá	2	El tablón	10	Octubre	2023-10-25T00:00:00	2024-11-06T13:00:00	5	Humedad	79
185573	7	Sololá	701	Sololá	2	El tablón	10	Octubre	2023-10-25T00:00:00	2024-11-06T13:00:00	6	Velocidad del viento	9.7
185574	7	Sololá	701	Sololá	2	El tablón	10	Octubre	2023-10-25T00:00:00	2024-11-06T13:00:00	7	Dirección del viento	9.66
185575	7	Sololá	701	Sololá	2	El tablón	10	Octubre	2023-10-25T00:00:00	2024-11-06T13:00:00	1	Precipitación	0
185576	7	Sololá	701	Sololá	2	El tablón	10	Octubre	2023-10-25T00:00:00	2024-11-06T13:00:00	8	Radiación solar	387
185577	7	Sololá	701	Sololá	2	El tablón	10	Octubre	2023-10-25T00:00:00	2024-11-06T14:00:00	2	Temperatura media	19.5
185578	7	Sololá	701	Sololá	2	El tablón	10	Octubre	2023-10-25T00:00:00	2024-11-06T14:00:00	4	Temperatura máxima	19.5
185579	7	Sololá	701	Sololá	2	El tablón	10	Octubre	2023-10-25T00:00:00	2024-11-06T14:00:00	3	Temperatura mínima	17.8
185580	7	Sololá	701	Sololá	2	El tablón	10	Octubre	2023-10-25T00:00:00	2024-11-06T14:00:00	5	Humedad	72
185581	7	Sololá	701	Sololá	2	El tablón	10	Octubre	2023-10-25T00:00:00	2024-11-06T14:00:00	6	Velocidad del viento	8
185582	7	Sololá	701	Sololá	2	El tablón	10	Octubre	2023-10-25T00:00:00	2024-11-06T14:00:00	7	Dirección del viento	8.05
185583	7	Sololá	701	Sololá	2	El tablón	10	Octubre	2023-10-25T00:00:00	2024-11-06T14:00:00	1	Precipitación	0
185584	7	Sololá	701	Sololá	2	El tablón	10	Octubre	2023-10-25T00:00:00	2024-11-06T14:00:00	8	Radiación solar	670
185585	7	Sololá	701	Sololá	2	El tablón	10	Octubre	2023-10-25T00:00:00	2024-11-06T15:00:00	2	Temperatura media	17
185586	7	Sololá	701	Sololá	2	El tablón	10	Octubre	2023-10-25T00:00:00	2024-11-06T15:00:00	4	Temperatura máxima	19.5
185587	7	Sololá	701	Sololá	2	El tablón	10	Octubre	2023-10-25T00:00:00	2024-11-06T15:00:00	3	Temperatura mínima	16.7
185588	7	Sololá	701	Sololá	2	El tablón	10	Octubre	2023-10-25T00:00:00	2024-11-06T15:00:00	5	Humedad	84
185589	7	Sololá	701	Sololá	2	El tablón	10	Octubre	2023-10-25T00:00:00	2024-11-06T15:00:00	6	Velocidad del viento	8
185590	7	Sololá	701	Sololá	2	El tablón	10	Octubre	2023-10-25T00:00:00	2024-11-06T15:00:00	7	Dirección del viento	8.05
185591	7	Sololá	701	Sololá	2	El tablón	10	Octubre	2023-10-25T00:00:00	2024-11-06T15:00:00	1	Precipitación	0
185592	7	Sololá	701	Sololá	2	El tablón	10	Octubre	2023-10-25T00:00:00	2024-11-06T15:00:00	8	Radiación solar	216
185593	7	Sololá	701	Sololá	2	El tablón	10	Octubre	2023-10-25T00:00:00	2024-11-06T16:00:00	2	Temperatura media	17.1
185594	7	Sololá	701	Sololá	2	El tablón	10	Octubre	2023-10-25T00:00:00	2024-11-06T16:00:00	4	Temperatura máxima	17.8
185595	7	Sololá	701	Sololá	2	El tablón	10	Octubre	2023-10-25T00:00:00	2024-11-06T16:00:00	3	Temperatura mínima	16.8
185596	7	Sololá	701	Sololá	2	El tablón	10	Octubre	2023-10-25T00:00:00	2024-11-06T16:00:00	5	Humedad	82
185597	7	Sololá	701	Sololá	2	El tablón	10	Octubre	2023-10-25T00:00:00	2024-11-06T16:00:00	6	Velocidad del viento	8
185598	7	Sololá	701	Sololá	2	El tablón	10	Octubre	2023-10-25T00:00:00	2024-11-06T16:00:00	7	Dirección del viento	8.05
185599	7	Sololá	701	Sololá	2	El tablón	10	Octubre	2023-10-25T00:00:00	2024-11-06T16:00:00	1	Precipitación	0
185600	7	Sololá	701	Sololá	2	El tablón	10	Octubre	2023-10-25T00:00:00	2024-11-06T16:00:00	8	Radiación solar	250
185601	7	Sololá	701	Sololá	2	El tablón	10	Octubre	2023-10-25T00:00:00	2024-11-06T17:00:00	2	Temperatura media	16.1
185602	7	Sololá	701	Sololá	2	El tablón	10	Octubre	2023-10-25T00:00:00	2024-11-06T17:00:00	4	Temperatura máxima	17.2
185603	7	Sololá	701	Sololá	2	El tablón	10	Octubre	2023-10-25T00:00:00	2024-11-06T17:00:00	3	Temperatura mínima	16.1
185604	7	Sololá	701	Sololá	2	El tablón	10	Octubre	2023-10-25T00:00:00	2024-11-06T17:00:00	5	Humedad	84
185605	7	Sololá	701	Sololá	2	El tablón	10	Octubre	2023-10-25T00:00:00	2024-11-06T17:00:00	6	Velocidad del viento	6.4
185606	7	Sololá	701	Sololá	2	El tablón	10	Octubre	2023-10-25T00:00:00	2024-11-06T17:00:00	7	Dirección del viento	6.44
185607	7	Sololá	701	Sololá	2	El tablón	10	Octubre	2023-10-25T00:00:00	2024-11-06T17:00:00	1	Precipitación	0
185608	7	Sololá	701	Sololá	2	El tablón	10	Octubre	2023-10-25T00:00:00	2024-11-06T17:00:00	8	Radiación solar	92
185609	7	Sololá	701	Sololá	2	El tablón	10	Octubre	2023-10-25T00:00:00	2024-11-06T18:00:00	2	Temperatura media	14.9
185610	7	Sololá	701	Sololá	2	El tablón	10	Octubre	2023-10-25T00:00:00	2024-11-06T18:00:00	4	Temperatura máxima	16.1
185611	7	Sololá	701	Sololá	2	El tablón	10	Octubre	2023-10-25T00:00:00	2024-11-06T18:00:00	3	Temperatura mínima	14.9
185612	7	Sololá	701	Sololá	2	El tablón	10	Octubre	2023-10-25T00:00:00	2024-11-06T18:00:00	5	Humedad	87
185613	7	Sololá	701	Sololá	2	El tablón	10	Octubre	2023-10-25T00:00:00	2024-11-06T18:00:00	6	Velocidad del viento	4.8
185614	7	Sololá	701	Sololá	2	El tablón	10	Octubre	2023-10-25T00:00:00	2024-11-06T18:00:00	7	Dirección del viento	4.83
185615	7	Sololá	701	Sololá	2	El tablón	10	Octubre	2023-10-25T00:00:00	2024-11-06T18:00:00	1	Precipitación	0
185616	7	Sololá	701	Sololá	2	El tablón	10	Octubre	2023-10-25T00:00:00	2024-11-06T18:00:00	8	Radiación solar	13
185617	7	Sololá	701	Sololá	2	El tablón	10	Octubre	2023-10-25T00:00:00	2024-11-06T19:00:00	2	Temperatura media	14.7
185618	7	Sololá	701	Sololá	2	El tablón	10	Octubre	2023-10-25T00:00:00	2024-11-06T19:00:00	4	Temperatura máxima	14.9
185619	7	Sololá	701	Sololá	2	El tablón	10	Octubre	2023-10-25T00:00:00	2024-11-06T19:00:00	3	Temperatura mínima	14.7
185620	7	Sololá	701	Sololá	2	El tablón	10	Octubre	2023-10-25T00:00:00	2024-11-06T19:00:00	5	Humedad	88
185621	7	Sololá	701	Sololá	2	El tablón	10	Octubre	2023-10-25T00:00:00	2024-11-06T19:00:00	6	Velocidad del viento	6.4
185622	7	Sololá	701	Sololá	2	El tablón	10	Octubre	2023-10-25T00:00:00	2024-11-06T19:00:00	7	Dirección del viento	6.44
185623	7	Sololá	701	Sololá	2	El tablón	10	Octubre	2023-10-25T00:00:00	2024-11-06T19:00:00	1	Precipitación	0
185624	7	Sololá	701	Sololá	2	El tablón	10	Octubre	2023-10-25T00:00:00	2024-11-06T19:00:00	8	Radiación solar	0
185625	7	Sololá	701	Sololá	2	El tablón	10	Octubre	2023-10-25T00:00:00	2024-11-06T20:00:00	2	Temperatura media	14.9
185626	7	Sololá	701	Sololá	2	El tablón	10	Octubre	2023-10-25T00:00:00	2024-11-06T20:00:00	4	Temperatura máxima	14.9
185627	7	Sololá	701	Sololá	2	El tablón	10	Octubre	2023-10-25T00:00:00	2024-11-06T20:00:00	3	Temperatura mínima	14.7
185628	7	Sololá	701	Sololá	2	El tablón	10	Octubre	2023-10-25T00:00:00	2024-11-06T20:00:00	5	Humedad	88
185629	7	Sololá	701	Sololá	2	El tablón	10	Octubre	2023-10-25T00:00:00	2024-11-06T20:00:00	6	Velocidad del viento	6.4
185630	7	Sololá	701	Sololá	2	El tablón	10	Octubre	2023-10-25T00:00:00	2024-11-06T20:00:00	7	Dirección del viento	6.44
185631	7	Sololá	701	Sololá	2	El tablón	10	Octubre	2023-10-25T00:00:00	2024-11-06T20:00:00	1	Precipitación	0
185632	7	Sololá	701	Sololá	2	El tablón	10	Octubre	2023-10-25T00:00:00	2024-11-06T20:00:00	8	Radiación solar	0
185633	7	Sololá	701	Sololá	2	El tablón	10	Octubre	2023-10-25T00:00:00	2024-11-06T21:00:00	2	Temperatura media	14.7
185634	7	Sololá	701	Sololá	2	El tablón	10	Octubre	2023-10-25T00:00:00	2024-11-06T21:00:00	4	Temperatura máxima	14.9
185635	7	Sololá	701	Sololá	2	El tablón	10	Octubre	2023-10-25T00:00:00	2024-11-06T21:00:00	3	Temperatura mínima	14.7
185636	7	Sololá	701	Sololá	2	El tablón	10	Octubre	2023-10-25T00:00:00	2024-11-06T21:00:00	5	Humedad	88
185637	7	Sololá	701	Sololá	2	El tablón	10	Octubre	2023-10-25T00:00:00	2024-11-06T21:00:00	6	Velocidad del viento	4.8
185638	7	Sololá	701	Sololá	2	El tablón	10	Octubre	2023-10-25T00:00:00	2024-11-06T21:00:00	7	Dirección del viento	4.83
185639	7	Sololá	701	Sololá	2	El tablón	10	Octubre	2023-10-25T00:00:00	2024-11-06T21:00:00	1	Precipitación	0
185640	7	Sololá	701	Sololá	2	El tablón	10	Octubre	2023-10-25T00:00:00	2024-11-06T21:00:00	8	Radiación solar	0
185641	7	Sololá	701	Sololá	2	El tablón	10	Octubre	2023-10-25T00:00:00	2024-11-06T22:00:00	2	Temperatura media	14.4
185642	7	Sololá	701	Sololá	2	El tablón	10	Octubre	2023-10-25T00:00:00	2024-11-06T22:00:00	4	Temperatura máxima	14.8
185643	7	Sololá	701	Sololá	2	El tablón	10	Octubre	2023-10-25T00:00:00	2024-11-06T22:00:00	3	Temperatura mínima	14.4
185644	7	Sololá	701	Sololá	2	El tablón	10	Octubre	2023-10-25T00:00:00	2024-11-06T22:00:00	5	Humedad	88
185645	7	Sololá	701	Sololá	2	El tablón	10	Octubre	2023-10-25T00:00:00	2024-11-06T22:00:00	6	Velocidad del viento	4.8
185646	7	Sololá	701	Sololá	2	El tablón	10	Octubre	2023-10-25T00:00:00	2024-11-06T22:00:00	7	Dirección del viento	4.83
185647	7	Sololá	701	Sololá	2	El tablón	10	Octubre	2023-10-25T00:00:00	2024-11-06T22:00:00	1	Precipitación	0
185648	7	Sololá	701	Sololá	2	El tablón	10	Octubre	2023-10-25T00:00:00	2024-11-06T22:00:00	8	Radiación solar	0
185649	7	Sololá	701	Sololá	2	El tablón	10	Octubre	2023-10-25T00:00:00	2024-11-06T23:00:00	2	Temperatura media	13.8
185650	7	Sololá	701	Sololá	2	El tablón	10	Octubre	2023-10-25T00:00:00	2024-11-06T23:00:00	4	Temperatura máxima	14.4
185651	7	Sololá	701	Sololá	2	El tablón	10	Octubre	2023-10-25T00:00:00	2024-11-06T23:00:00	3	Temperatura mínima	13.7
185652	7	Sololá	701	Sololá	2	El tablón	10	Octubre	2023-10-25T00:00:00	2024-11-06T23:00:00	5	Humedad	89
185653	7	Sololá	701	Sololá	2	El tablón	10	Octubre	2023-10-25T00:00:00	2024-11-06T23:00:00	6	Velocidad del viento	3.2
185654	7	Sololá	701	Sololá	2	El tablón	10	Octubre	2023-10-25T00:00:00	2024-11-06T23:00:00	7	Dirección del viento	3.22
185655	7	Sololá	701	Sololá	2	El tablón	10	Octubre	2023-10-25T00:00:00	2024-11-06T23:00:00	1	Precipitación	0
185656	7	Sololá	701	Sololá	2	El tablón	10	Octubre	2023-10-25T00:00:00	2024-11-06T23:00:00	8	Radiación solar	0
185657	7	Sololá	701	Sololá	2	El tablón	10	Octubre	2023-10-26T00:00:00	2024-11-06T00:00:00	2	Temperatura media	13.6
185658	7	Sololá	701	Sololá	2	El tablón	10	Octubre	2023-10-26T00:00:00	2024-11-06T00:00:00	4	Temperatura máxima	13.9
185659	7	Sololá	701	Sololá	2	El tablón	10	Octubre	2023-10-26T00:00:00	2024-11-06T00:00:00	3	Temperatura mínima	13.6
185660	7	Sololá	701	Sololá	2	El tablón	10	Octubre	2023-10-26T00:00:00	2024-11-06T00:00:00	5	Humedad	89
185661	7	Sololá	701	Sololá	2	El tablón	10	Octubre	2023-10-26T00:00:00	2024-11-06T00:00:00	6	Velocidad del viento	6.4
185662	7	Sololá	701	Sololá	2	El tablón	10	Octubre	2023-10-26T00:00:00	2024-11-06T00:00:00	7	Dirección del viento	6.44
185663	7	Sololá	701	Sololá	2	El tablón	10	Octubre	2023-10-26T00:00:00	2024-11-06T00:00:00	1	Precipitación	0
185664	7	Sololá	701	Sololá	2	El tablón	10	Octubre	2023-10-26T00:00:00	2024-11-06T00:00:00	8	Radiación solar	0
185665	7	Sololá	701	Sololá	2	El tablón	10	Octubre	2023-10-26T00:00:00	2024-11-06T01:00:00	2	Temperatura media	13.1
185666	7	Sololá	701	Sololá	2	El tablón	10	Octubre	2023-10-26T00:00:00	2024-11-06T01:00:00	4	Temperatura máxima	13.7
185667	7	Sololá	701	Sololá	2	El tablón	10	Octubre	2023-10-26T00:00:00	2024-11-06T01:00:00	3	Temperatura mínima	13.1
185668	7	Sololá	701	Sololá	2	El tablón	10	Octubre	2023-10-26T00:00:00	2024-11-06T01:00:00	5	Humedad	89
185669	7	Sololá	701	Sololá	2	El tablón	10	Octubre	2023-10-26T00:00:00	2024-11-06T01:00:00	6	Velocidad del viento	3.2
185670	7	Sololá	701	Sololá	2	El tablón	10	Octubre	2023-10-26T00:00:00	2024-11-06T01:00:00	7	Dirección del viento	3.22
185671	7	Sololá	701	Sololá	2	El tablón	10	Octubre	2023-10-26T00:00:00	2024-11-06T01:00:00	1	Precipitación	0
185672	7	Sololá	701	Sololá	2	El tablón	10	Octubre	2023-10-26T00:00:00	2024-11-06T01:00:00	8	Radiación solar	0
185673	7	Sololá	701	Sololá	2	El tablón	10	Octubre	2023-10-26T00:00:00	2024-11-06T02:00:00	2	Temperatura media	13.4
185674	7	Sololá	701	Sololá	2	El tablón	10	Octubre	2023-10-26T00:00:00	2024-11-06T02:00:00	4	Temperatura máxima	13.4
185675	7	Sololá	701	Sololá	2	El tablón	10	Octubre	2023-10-26T00:00:00	2024-11-06T02:00:00	3	Temperatura mínima	13
185676	7	Sololá	701	Sololá	2	El tablón	10	Octubre	2023-10-26T00:00:00	2024-11-06T02:00:00	5	Humedad	88
185677	7	Sololá	701	Sololá	2	El tablón	10	Octubre	2023-10-26T00:00:00	2024-11-06T02:00:00	6	Velocidad del viento	6.4
185678	7	Sololá	701	Sololá	2	El tablón	10	Octubre	2023-10-26T00:00:00	2024-11-06T02:00:00	7	Dirección del viento	6.44
185679	7	Sololá	701	Sololá	2	El tablón	10	Octubre	2023-10-26T00:00:00	2024-11-06T02:00:00	1	Precipitación	0
185680	7	Sololá	701	Sololá	2	El tablón	10	Octubre	2023-10-26T00:00:00	2024-11-06T02:00:00	8	Radiación solar	0
185681	7	Sololá	701	Sololá	2	El tablón	10	Octubre	2023-10-26T00:00:00	2024-11-06T03:00:00	2	Temperatura media	13.2
185682	7	Sololá	701	Sololá	2	El tablón	10	Octubre	2023-10-26T00:00:00	2024-11-06T03:00:00	4	Temperatura máxima	13.4
185683	7	Sololá	701	Sololá	2	El tablón	10	Octubre	2023-10-26T00:00:00	2024-11-06T03:00:00	3	Temperatura mínima	13.1
185684	7	Sololá	701	Sololá	2	El tablón	10	Octubre	2023-10-26T00:00:00	2024-11-06T03:00:00	5	Humedad	88
185685	7	Sololá	701	Sololá	2	El tablón	10	Octubre	2023-10-26T00:00:00	2024-11-06T03:00:00	6	Velocidad del viento	4.8
185686	7	Sololá	701	Sololá	2	El tablón	10	Octubre	2023-10-26T00:00:00	2024-11-06T03:00:00	7	Dirección del viento	4.83
185687	7	Sololá	701	Sololá	2	El tablón	10	Octubre	2023-10-26T00:00:00	2024-11-06T03:00:00	1	Precipitación	0
185688	7	Sololá	701	Sololá	2	El tablón	10	Octubre	2023-10-26T00:00:00	2024-11-06T03:00:00	8	Radiación solar	0
185689	7	Sololá	701	Sololá	2	El tablón	10	Octubre	2023-10-26T00:00:00	2024-11-06T04:00:00	2	Temperatura media	12.8
185690	7	Sololá	701	Sololá	2	El tablón	10	Octubre	2023-10-26T00:00:00	2024-11-06T04:00:00	4	Temperatura máxima	13.4
185691	7	Sololá	701	Sololá	2	El tablón	10	Octubre	2023-10-26T00:00:00	2024-11-06T04:00:00	3	Temperatura mínima	12.8
185692	7	Sololá	701	Sololá	2	El tablón	10	Octubre	2023-10-26T00:00:00	2024-11-06T04:00:00	5	Humedad	88
185693	7	Sololá	701	Sololá	2	El tablón	10	Octubre	2023-10-26T00:00:00	2024-11-06T04:00:00	6	Velocidad del viento	4.8
185694	7	Sololá	701	Sololá	2	El tablón	10	Octubre	2023-10-26T00:00:00	2024-11-06T04:00:00	7	Dirección del viento	4.83
185695	7	Sololá	701	Sololá	2	El tablón	10	Octubre	2023-10-26T00:00:00	2024-11-06T04:00:00	1	Precipitación	0
185696	7	Sololá	701	Sololá	2	El tablón	10	Octubre	2023-10-26T00:00:00	2024-11-06T04:00:00	8	Radiación solar	0
185697	7	Sololá	701	Sololá	2	El tablón	10	Octubre	2023-10-26T00:00:00	2024-11-06T05:00:00	2	Temperatura media	13.3
185698	7	Sololá	701	Sololá	2	El tablón	10	Octubre	2023-10-26T00:00:00	2024-11-06T05:00:00	4	Temperatura máxima	13.3
185699	7	Sololá	701	Sololá	2	El tablón	10	Octubre	2023-10-26T00:00:00	2024-11-06T05:00:00	3	Temperatura mínima	12.8
185700	7	Sololá	701	Sololá	2	El tablón	10	Octubre	2023-10-26T00:00:00	2024-11-06T05:00:00	5	Humedad	88
185701	7	Sololá	701	Sololá	2	El tablón	10	Octubre	2023-10-26T00:00:00	2024-11-06T05:00:00	6	Velocidad del viento	8
185702	7	Sololá	701	Sololá	2	El tablón	10	Octubre	2023-10-26T00:00:00	2024-11-06T05:00:00	7	Dirección del viento	8.05
185703	7	Sololá	701	Sololá	2	El tablón	10	Octubre	2023-10-26T00:00:00	2024-11-06T05:00:00	1	Precipitación	0
185704	7	Sololá	701	Sololá	2	El tablón	10	Octubre	2023-10-26T00:00:00	2024-11-06T05:00:00	8	Radiación solar	0
185705	7	Sololá	701	Sololá	2	El tablón	10	Octubre	2023-10-26T00:00:00	2024-11-06T06:00:00	2	Temperatura media	13.3
185706	7	Sololá	701	Sololá	2	El tablón	10	Octubre	2023-10-26T00:00:00	2024-11-06T06:00:00	4	Temperatura máxima	13.3
185707	7	Sololá	701	Sololá	2	El tablón	10	Octubre	2023-10-26T00:00:00	2024-11-06T06:00:00	3	Temperatura mínima	13.2
185708	7	Sololá	701	Sololá	2	El tablón	10	Octubre	2023-10-26T00:00:00	2024-11-06T06:00:00	5	Humedad	88
185709	7	Sololá	701	Sololá	2	El tablón	10	Octubre	2023-10-26T00:00:00	2024-11-06T06:00:00	6	Velocidad del viento	6.4
185710	7	Sololá	701	Sololá	2	El tablón	10	Octubre	2023-10-26T00:00:00	2024-11-06T06:00:00	7	Dirección del viento	6.44
185711	7	Sololá	701	Sololá	2	El tablón	10	Octubre	2023-10-26T00:00:00	2024-11-06T06:00:00	1	Precipitación	0
185712	7	Sololá	701	Sololá	2	El tablón	10	Octubre	2023-10-26T00:00:00	2024-11-06T06:00:00	8	Radiación solar	0
185713	7	Sololá	701	Sololá	2	El tablón	10	Octubre	2023-10-26T00:00:00	2024-11-06T07:00:00	2	Temperatura media	13.8
185714	7	Sololá	701	Sololá	2	El tablón	10	Octubre	2023-10-26T00:00:00	2024-11-06T07:00:00	4	Temperatura máxima	13.8
185715	7	Sololá	701	Sololá	2	El tablón	10	Octubre	2023-10-26T00:00:00	2024-11-06T07:00:00	3	Temperatura mínima	13.2
185716	7	Sololá	701	Sololá	2	El tablón	10	Octubre	2023-10-26T00:00:00	2024-11-06T07:00:00	5	Humedad	87
185717	7	Sololá	701	Sololá	2	El tablón	10	Octubre	2023-10-26T00:00:00	2024-11-06T07:00:00	6	Velocidad del viento	6.4
185718	7	Sololá	701	Sololá	2	El tablón	10	Octubre	2023-10-26T00:00:00	2024-11-06T07:00:00	7	Dirección del viento	6.44
185719	7	Sololá	701	Sololá	2	El tablón	10	Octubre	2023-10-26T00:00:00	2024-11-06T07:00:00	1	Precipitación	0
185720	7	Sololá	701	Sololá	2	El tablón	10	Octubre	2023-10-26T00:00:00	2024-11-06T07:00:00	8	Radiación solar	41
185721	7	Sololá	701	Sololá	2	El tablón	10	Octubre	2023-10-26T00:00:00	2024-11-06T08:00:00	2	Temperatura media	15.3
185722	7	Sololá	701	Sololá	2	El tablón	10	Octubre	2023-10-26T00:00:00	2024-11-06T08:00:00	4	Temperatura máxima	15.3
185723	7	Sololá	701	Sololá	2	El tablón	10	Octubre	2023-10-26T00:00:00	2024-11-06T08:00:00	3	Temperatura mínima	13.7
185724	7	Sololá	701	Sololá	2	El tablón	10	Octubre	2023-10-26T00:00:00	2024-11-06T08:00:00	5	Humedad	85
185725	7	Sololá	701	Sololá	2	El tablón	10	Octubre	2023-10-26T00:00:00	2024-11-06T08:00:00	6	Velocidad del viento	6.4
185726	7	Sololá	701	Sololá	2	El tablón	10	Octubre	2023-10-26T00:00:00	2024-11-06T08:00:00	7	Dirección del viento	6.44
185727	7	Sololá	701	Sololá	2	El tablón	10	Octubre	2023-10-26T00:00:00	2024-11-06T08:00:00	1	Precipitación	0
185728	7	Sololá	701	Sololá	2	El tablón	10	Octubre	2023-10-26T00:00:00	2024-11-06T08:00:00	8	Radiación solar	194
185729	7	Sololá	701	Sololá	2	El tablón	10	Octubre	2023-10-26T00:00:00	2024-11-06T09:00:00	2	Temperatura media	16.7
185730	7	Sololá	701	Sololá	2	El tablón	10	Octubre	2023-10-26T00:00:00	2024-11-06T09:00:00	4	Temperatura máxima	16.8
185731	7	Sololá	701	Sololá	2	El tablón	10	Octubre	2023-10-26T00:00:00	2024-11-06T09:00:00	3	Temperatura mínima	15.3
185732	7	Sololá	701	Sololá	2	El tablón	10	Octubre	2023-10-26T00:00:00	2024-11-06T09:00:00	5	Humedad	80
185733	7	Sololá	701	Sololá	2	El tablón	10	Octubre	2023-10-26T00:00:00	2024-11-06T09:00:00	6	Velocidad del viento	9.7
185734	7	Sololá	701	Sololá	2	El tablón	10	Octubre	2023-10-26T00:00:00	2024-11-06T09:00:00	7	Dirección del viento	9.66
185735	7	Sololá	701	Sololá	2	El tablón	10	Octubre	2023-10-26T00:00:00	2024-11-06T09:00:00	1	Precipitación	0
185736	7	Sololá	701	Sololá	2	El tablón	10	Octubre	2023-10-26T00:00:00	2024-11-06T09:00:00	8	Radiación solar	486
185737	7	Sololá	701	Sololá	2	El tablón	10	Octubre	2023-10-26T00:00:00	2024-11-06T10:00:00	2	Temperatura media	17.6
185738	7	Sololá	701	Sololá	2	El tablón	10	Octubre	2023-10-26T00:00:00	2024-11-06T10:00:00	4	Temperatura máxima	17.8
185739	7	Sololá	701	Sololá	2	El tablón	10	Octubre	2023-10-26T00:00:00	2024-11-06T10:00:00	3	Temperatura mínima	16.4
185740	7	Sololá	701	Sololá	2	El tablón	10	Octubre	2023-10-26T00:00:00	2024-11-06T10:00:00	5	Humedad	78
185741	7	Sololá	701	Sololá	2	El tablón	10	Octubre	2023-10-26T00:00:00	2024-11-06T10:00:00	6	Velocidad del viento	11.3
185742	7	Sololá	701	Sololá	2	El tablón	10	Octubre	2023-10-26T00:00:00	2024-11-06T10:00:00	7	Dirección del viento	11.27
185743	7	Sololá	701	Sololá	2	El tablón	10	Octubre	2023-10-26T00:00:00	2024-11-06T10:00:00	1	Precipitación	0
185744	7	Sololá	701	Sololá	2	El tablón	10	Octubre	2023-10-26T00:00:00	2024-11-06T10:00:00	8	Radiación solar	707
185745	7	Sololá	701	Sololá	2	El tablón	10	Octubre	2023-10-26T00:00:00	2024-11-06T11:00:00	2	Temperatura media	17.7
185746	7	Sololá	701	Sololá	2	El tablón	10	Octubre	2023-10-26T00:00:00	2024-11-06T11:00:00	4	Temperatura máxima	18.4
185747	7	Sololá	701	Sololá	2	El tablón	10	Octubre	2023-10-26T00:00:00	2024-11-06T11:00:00	3	Temperatura mínima	17.1
185748	7	Sololá	701	Sololá	2	El tablón	10	Octubre	2023-10-26T00:00:00	2024-11-06T11:00:00	5	Humedad	78
185749	7	Sololá	701	Sololá	2	El tablón	10	Octubre	2023-10-26T00:00:00	2024-11-06T11:00:00	6	Velocidad del viento	9.7
185750	7	Sololá	701	Sololá	2	El tablón	10	Octubre	2023-10-26T00:00:00	2024-11-06T11:00:00	7	Dirección del viento	9.66
185751	7	Sololá	701	Sololá	2	El tablón	10	Octubre	2023-10-26T00:00:00	2024-11-06T11:00:00	1	Precipitación	0
185752	7	Sololá	701	Sololá	2	El tablón	10	Octubre	2023-10-26T00:00:00	2024-11-06T11:00:00	8	Radiación solar	508
185753	7	Sololá	701	Sololá	2	El tablón	10	Octubre	2023-10-26T00:00:00	2024-11-06T12:00:00	2	Temperatura media	18.1
185754	7	Sololá	701	Sololá	2	El tablón	10	Octubre	2023-10-26T00:00:00	2024-11-06T12:00:00	4	Temperatura máxima	18.3
185755	7	Sololá	701	Sololá	2	El tablón	10	Octubre	2023-10-26T00:00:00	2024-11-06T12:00:00	3	Temperatura mínima	17.6
185756	7	Sololá	701	Sololá	2	El tablón	10	Octubre	2023-10-26T00:00:00	2024-11-06T12:00:00	5	Humedad	76
185757	7	Sololá	701	Sololá	2	El tablón	10	Octubre	2023-10-26T00:00:00	2024-11-06T12:00:00	6	Velocidad del viento	8
185758	7	Sololá	701	Sololá	2	El tablón	10	Octubre	2023-10-26T00:00:00	2024-11-06T12:00:00	7	Dirección del viento	8.05
185759	7	Sololá	701	Sololá	2	El tablón	10	Octubre	2023-10-26T00:00:00	2024-11-06T12:00:00	1	Precipitación	0
185760	7	Sololá	701	Sololá	2	El tablón	10	Octubre	2023-10-26T00:00:00	2024-11-06T12:00:00	8	Radiación solar	462
185761	7	Sololá	701	Sololá	2	El tablón	10	Octubre	2023-10-26T00:00:00	2024-11-06T13:00:00	2	Temperatura media	18.4
185762	7	Sololá	701	Sololá	2	El tablón	10	Octubre	2023-10-26T00:00:00	2024-11-06T13:00:00	4	Temperatura máxima	19.1
185763	7	Sololá	701	Sololá	2	El tablón	10	Octubre	2023-10-26T00:00:00	2024-11-06T13:00:00	3	Temperatura mínima	18.2
185764	7	Sololá	701	Sololá	2	El tablón	10	Octubre	2023-10-26T00:00:00	2024-11-06T13:00:00	5	Humedad	74
185765	7	Sololá	701	Sololá	2	El tablón	10	Octubre	2023-10-26T00:00:00	2024-11-06T13:00:00	6	Velocidad del viento	6.4
185766	7	Sololá	701	Sololá	2	El tablón	10	Octubre	2023-10-26T00:00:00	2024-11-06T13:00:00	7	Dirección del viento	6.44
185767	7	Sololá	701	Sololá	2	El tablón	10	Octubre	2023-10-26T00:00:00	2024-11-06T13:00:00	1	Precipitación	0
185768	7	Sololá	701	Sololá	2	El tablón	10	Octubre	2023-10-26T00:00:00	2024-11-06T13:00:00	8	Radiación solar	459
185769	7	Sololá	701	Sololá	2	El tablón	10	Octubre	2023-10-26T00:00:00	2024-11-06T14:00:00	2	Temperatura media	18.8
185770	7	Sololá	701	Sololá	2	El tablón	10	Octubre	2023-10-26T00:00:00	2024-11-06T14:00:00	4	Temperatura máxima	18.8
185771	7	Sololá	701	Sololá	2	El tablón	10	Octubre	2023-10-26T00:00:00	2024-11-06T14:00:00	3	Temperatura mínima	18.2
185772	7	Sololá	701	Sololá	2	El tablón	10	Octubre	2023-10-26T00:00:00	2024-11-06T14:00:00	5	Humedad	76
185773	7	Sololá	701	Sololá	2	El tablón	10	Octubre	2023-10-26T00:00:00	2024-11-06T14:00:00	6	Velocidad del viento	4.8
185774	7	Sololá	701	Sololá	2	El tablón	10	Octubre	2023-10-26T00:00:00	2024-11-06T14:00:00	7	Dirección del viento	4.83
185775	7	Sololá	701	Sololá	2	El tablón	10	Octubre	2023-10-26T00:00:00	2024-11-06T14:00:00	1	Precipitación	0
185776	7	Sololá	701	Sololá	2	El tablón	10	Octubre	2023-10-26T00:00:00	2024-11-06T14:00:00	8	Radiación solar	368
185777	7	Sololá	701	Sololá	2	El tablón	10	Octubre	2023-10-26T00:00:00	2024-11-06T15:00:00	2	Temperatura media	18.9
185778	7	Sololá	701	Sololá	2	El tablón	10	Octubre	2023-10-26T00:00:00	2024-11-06T15:00:00	4	Temperatura máxima	19.4
185779	7	Sololá	701	Sololá	2	El tablón	10	Octubre	2023-10-26T00:00:00	2024-11-06T15:00:00	3	Temperatura mínima	18.8
185780	7	Sololá	701	Sololá	2	El tablón	10	Octubre	2023-10-26T00:00:00	2024-11-06T15:00:00	5	Humedad	76
185781	7	Sololá	701	Sololá	2	El tablón	10	Octubre	2023-10-26T00:00:00	2024-11-06T15:00:00	6	Velocidad del viento	4.8
185782	7	Sololá	701	Sololá	2	El tablón	10	Octubre	2023-10-26T00:00:00	2024-11-06T15:00:00	7	Dirección del viento	4.83
185783	7	Sololá	701	Sololá	2	El tablón	10	Octubre	2023-10-26T00:00:00	2024-11-06T15:00:00	1	Precipitación	0
185784	7	Sololá	701	Sololá	2	El tablón	10	Octubre	2023-10-26T00:00:00	2024-11-06T15:00:00	8	Radiación solar	250
185785	7	Sololá	701	Sololá	2	El tablón	10	Octubre	2023-10-26T00:00:00	2024-11-06T16:00:00	2	Temperatura media	18.2
185786	7	Sololá	701	Sololá	2	El tablón	10	Octubre	2023-10-26T00:00:00	2024-11-06T16:00:00	4	Temperatura máxima	18.9
185787	7	Sololá	701	Sololá	2	El tablón	10	Octubre	2023-10-26T00:00:00	2024-11-06T16:00:00	3	Temperatura mínima	17.8
185788	7	Sololá	701	Sololá	2	El tablón	10	Octubre	2023-10-26T00:00:00	2024-11-06T16:00:00	5	Humedad	76
185789	7	Sololá	701	Sololá	2	El tablón	10	Octubre	2023-10-26T00:00:00	2024-11-06T16:00:00	6	Velocidad del viento	8
185790	7	Sololá	701	Sololá	2	El tablón	10	Octubre	2023-10-26T00:00:00	2024-11-06T16:00:00	7	Dirección del viento	8.05
185791	7	Sololá	701	Sololá	2	El tablón	10	Octubre	2023-10-26T00:00:00	2024-11-06T16:00:00	1	Precipitación	0
185792	7	Sololá	701	Sololá	2	El tablón	10	Octubre	2023-10-26T00:00:00	2024-11-06T16:00:00	8	Radiación solar	223
185793	7	Sololá	701	Sololá	2	El tablón	10	Octubre	2023-10-26T00:00:00	2024-11-06T17:00:00	2	Temperatura media	17.3
185794	7	Sololá	701	Sololá	2	El tablón	10	Octubre	2023-10-26T00:00:00	2024-11-06T17:00:00	4	Temperatura máxima	18.5
185795	7	Sololá	701	Sololá	2	El tablón	10	Octubre	2023-10-26T00:00:00	2024-11-06T17:00:00	3	Temperatura mínima	17.3
185796	7	Sololá	701	Sololá	2	El tablón	10	Octubre	2023-10-26T00:00:00	2024-11-06T17:00:00	5	Humedad	83
185797	7	Sololá	701	Sololá	2	El tablón	10	Octubre	2023-10-26T00:00:00	2024-11-06T17:00:00	6	Velocidad del viento	6.4
185798	7	Sololá	701	Sololá	2	El tablón	10	Octubre	2023-10-26T00:00:00	2024-11-06T17:00:00	7	Dirección del viento	6.44
185799	7	Sololá	701	Sololá	2	El tablón	10	Octubre	2023-10-26T00:00:00	2024-11-06T17:00:00	1	Precipitación	0
185800	7	Sololá	701	Sololá	2	El tablón	10	Octubre	2023-10-26T00:00:00	2024-11-06T17:00:00	8	Radiación solar	205
185801	7	Sololá	701	Sololá	2	El tablón	10	Octubre	2023-10-26T00:00:00	2024-11-06T18:00:00	2	Temperatura media	15.3
185802	7	Sololá	701	Sololá	2	El tablón	10	Octubre	2023-10-26T00:00:00	2024-11-06T18:00:00	4	Temperatura máxima	17.3
185803	7	Sololá	701	Sololá	2	El tablón	10	Octubre	2023-10-26T00:00:00	2024-11-06T18:00:00	3	Temperatura mínima	15.3
185804	7	Sololá	701	Sololá	2	El tablón	10	Octubre	2023-10-26T00:00:00	2024-11-06T18:00:00	5	Humedad	85
185805	7	Sololá	701	Sololá	2	El tablón	10	Octubre	2023-10-26T00:00:00	2024-11-06T18:00:00	6	Velocidad del viento	4.8
185806	7	Sololá	701	Sololá	2	El tablón	10	Octubre	2023-10-26T00:00:00	2024-11-06T18:00:00	7	Dirección del viento	4.83
185807	7	Sololá	701	Sololá	2	El tablón	10	Octubre	2023-10-26T00:00:00	2024-11-06T18:00:00	1	Precipitación	0
185808	7	Sololá	701	Sololá	2	El tablón	10	Octubre	2023-10-26T00:00:00	2024-11-06T18:00:00	8	Radiación solar	8
185809	7	Sololá	701	Sololá	2	El tablón	10	Octubre	2023-10-26T00:00:00	2024-11-06T19:00:00	2	Temperatura media	14.9
185810	7	Sololá	701	Sololá	2	El tablón	10	Octubre	2023-10-26T00:00:00	2024-11-06T19:00:00	4	Temperatura máxima	15.3
185811	7	Sololá	701	Sololá	2	El tablón	10	Octubre	2023-10-26T00:00:00	2024-11-06T19:00:00	3	Temperatura mínima	14.9
185812	7	Sololá	701	Sololá	2	El tablón	10	Octubre	2023-10-26T00:00:00	2024-11-06T19:00:00	5	Humedad	87
185813	7	Sololá	701	Sololá	2	El tablón	10	Octubre	2023-10-26T00:00:00	2024-11-06T19:00:00	6	Velocidad del viento	3.2
185814	7	Sololá	701	Sololá	2	El tablón	10	Octubre	2023-10-26T00:00:00	2024-11-06T19:00:00	7	Dirección del viento	3.22
185815	7	Sololá	701	Sololá	2	El tablón	10	Octubre	2023-10-26T00:00:00	2024-11-06T19:00:00	1	Precipitación	0
185816	7	Sololá	701	Sololá	2	El tablón	10	Octubre	2023-10-26T00:00:00	2024-11-06T19:00:00	8	Radiación solar	0
185817	7	Sololá	701	Sololá	2	El tablón	10	Octubre	2023-10-26T00:00:00	2024-11-06T20:00:00	2	Temperatura media	14.7
185818	7	Sololá	701	Sololá	2	El tablón	10	Octubre	2023-10-26T00:00:00	2024-11-06T20:00:00	4	Temperatura máxima	14.9
185819	7	Sololá	701	Sololá	2	El tablón	10	Octubre	2023-10-26T00:00:00	2024-11-06T20:00:00	3	Temperatura mínima	14.7
185820	7	Sololá	701	Sololá	2	El tablón	10	Octubre	2023-10-26T00:00:00	2024-11-06T20:00:00	5	Humedad	87
185821	7	Sololá	701	Sololá	2	El tablón	10	Octubre	2023-10-26T00:00:00	2024-11-06T20:00:00	6	Velocidad del viento	6.4
185822	7	Sololá	701	Sololá	2	El tablón	10	Octubre	2023-10-26T00:00:00	2024-11-06T20:00:00	7	Dirección del viento	6.44
185823	7	Sololá	701	Sololá	2	El tablón	10	Octubre	2023-10-26T00:00:00	2024-11-06T20:00:00	1	Precipitación	0
185824	7	Sololá	701	Sololá	2	El tablón	10	Octubre	2023-10-26T00:00:00	2024-11-06T20:00:00	8	Radiación solar	0
185825	7	Sololá	701	Sololá	2	El tablón	10	Octubre	2023-10-26T00:00:00	2024-11-06T21:00:00	2	Temperatura media	15
185826	7	Sololá	701	Sololá	2	El tablón	10	Octubre	2023-10-26T00:00:00	2024-11-06T21:00:00	4	Temperatura máxima	15.1
185827	7	Sololá	701	Sololá	2	El tablón	10	Octubre	2023-10-26T00:00:00	2024-11-06T21:00:00	3	Temperatura mínima	14.6
185828	7	Sololá	701	Sololá	2	El tablón	10	Octubre	2023-10-26T00:00:00	2024-11-06T21:00:00	5	Humedad	87
185829	7	Sololá	701	Sololá	2	El tablón	10	Octubre	2023-10-26T00:00:00	2024-11-06T21:00:00	6	Velocidad del viento	6.4
185830	7	Sololá	701	Sololá	2	El tablón	10	Octubre	2023-10-26T00:00:00	2024-11-06T21:00:00	7	Dirección del viento	6.44
185831	7	Sololá	701	Sololá	2	El tablón	10	Octubre	2023-10-26T00:00:00	2024-11-06T21:00:00	1	Precipitación	0
185832	7	Sololá	701	Sololá	2	El tablón	10	Octubre	2023-10-26T00:00:00	2024-11-06T21:00:00	8	Radiación solar	0
185833	7	Sololá	701	Sololá	2	El tablón	10	Octubre	2023-10-26T00:00:00	2024-11-06T22:00:00	2	Temperatura media	14.8
185834	7	Sololá	701	Sololá	2	El tablón	10	Octubre	2023-10-26T00:00:00	2024-11-06T22:00:00	4	Temperatura máxima	15.1
185835	7	Sololá	701	Sololá	2	El tablón	10	Octubre	2023-10-26T00:00:00	2024-11-06T22:00:00	3	Temperatura mínima	14.8
185836	7	Sololá	701	Sololá	2	El tablón	10	Octubre	2023-10-26T00:00:00	2024-11-06T22:00:00	5	Humedad	87
185837	7	Sololá	701	Sololá	2	El tablón	10	Octubre	2023-10-26T00:00:00	2024-11-06T22:00:00	6	Velocidad del viento	8
185838	7	Sololá	701	Sololá	2	El tablón	10	Octubre	2023-10-26T00:00:00	2024-11-06T22:00:00	7	Dirección del viento	8.05
185839	7	Sololá	701	Sololá	2	El tablón	10	Octubre	2023-10-26T00:00:00	2024-11-06T22:00:00	1	Precipitación	0
185840	7	Sololá	701	Sololá	2	El tablón	10	Octubre	2023-10-26T00:00:00	2024-11-06T22:00:00	8	Radiación solar	0
185841	7	Sololá	701	Sololá	2	El tablón	10	Octubre	2023-10-26T00:00:00	2024-11-06T23:00:00	2	Temperatura media	14.5
185842	7	Sololá	701	Sololá	2	El tablón	10	Octubre	2023-10-26T00:00:00	2024-11-06T23:00:00	4	Temperatura máxima	14.8
185843	7	Sololá	701	Sololá	2	El tablón	10	Octubre	2023-10-26T00:00:00	2024-11-06T23:00:00	3	Temperatura mínima	14.4
185844	7	Sololá	701	Sololá	2	El tablón	10	Octubre	2023-10-26T00:00:00	2024-11-06T23:00:00	5	Humedad	87
185845	7	Sololá	701	Sololá	2	El tablón	10	Octubre	2023-10-26T00:00:00	2024-11-06T23:00:00	6	Velocidad del viento	8
185846	7	Sololá	701	Sololá	2	El tablón	10	Octubre	2023-10-26T00:00:00	2024-11-06T23:00:00	7	Dirección del viento	8.05
185847	7	Sololá	701	Sololá	2	El tablón	10	Octubre	2023-10-26T00:00:00	2024-11-06T23:00:00	1	Precipitación	0
185848	7	Sololá	701	Sololá	2	El tablón	10	Octubre	2023-10-26T00:00:00	2024-11-06T23:00:00	8	Radiación solar	0
185849	7	Sololá	701	Sololá	2	El tablón	10	Octubre	2023-10-27T00:00:00	2024-11-06T00:00:00	2	Temperatura media	14.1
185850	7	Sololá	701	Sololá	2	El tablón	10	Octubre	2023-10-27T00:00:00	2024-11-06T00:00:00	4	Temperatura máxima	14.5
185851	7	Sololá	701	Sololá	2	El tablón	10	Octubre	2023-10-27T00:00:00	2024-11-06T00:00:00	3	Temperatura mínima	14.1
185852	7	Sololá	701	Sololá	2	El tablón	10	Octubre	2023-10-27T00:00:00	2024-11-06T00:00:00	5	Humedad	88
185853	7	Sololá	701	Sololá	2	El tablón	10	Octubre	2023-10-27T00:00:00	2024-11-06T00:00:00	6	Velocidad del viento	6.4
185854	7	Sololá	701	Sololá	2	El tablón	10	Octubre	2023-10-27T00:00:00	2024-11-06T00:00:00	7	Dirección del viento	6.44
185855	7	Sololá	701	Sololá	2	El tablón	10	Octubre	2023-10-27T00:00:00	2024-11-06T00:00:00	1	Precipitación	0
185856	7	Sololá	701	Sololá	2	El tablón	10	Octubre	2023-10-27T00:00:00	2024-11-06T00:00:00	8	Radiación solar	0
185857	7	Sololá	701	Sololá	2	El tablón	10	Octubre	2023-10-27T00:00:00	2024-11-06T01:00:00	2	Temperatura media	14
185858	7	Sololá	701	Sololá	2	El tablón	10	Octubre	2023-10-27T00:00:00	2024-11-06T01:00:00	4	Temperatura máxima	14.2
185859	7	Sololá	701	Sololá	2	El tablón	10	Octubre	2023-10-27T00:00:00	2024-11-06T01:00:00	3	Temperatura mínima	14
185860	7	Sololá	701	Sololá	2	El tablón	10	Octubre	2023-10-27T00:00:00	2024-11-06T01:00:00	5	Humedad	88
185861	7	Sololá	701	Sololá	2	El tablón	10	Octubre	2023-10-27T00:00:00	2024-11-06T01:00:00	6	Velocidad del viento	6.4
185862	7	Sololá	701	Sololá	2	El tablón	10	Octubre	2023-10-27T00:00:00	2024-11-06T01:00:00	7	Dirección del viento	6.44
185863	7	Sololá	701	Sololá	2	El tablón	10	Octubre	2023-10-27T00:00:00	2024-11-06T01:00:00	1	Precipitación	0
185864	7	Sololá	701	Sololá	2	El tablón	10	Octubre	2023-10-27T00:00:00	2024-11-06T01:00:00	8	Radiación solar	0
185865	7	Sololá	701	Sololá	2	El tablón	10	Octubre	2023-10-27T00:00:00	2024-11-06T02:00:00	2	Temperatura media	13.8
185866	7	Sololá	701	Sololá	2	El tablón	10	Octubre	2023-10-27T00:00:00	2024-11-06T02:00:00	4	Temperatura máxima	14.1
185867	7	Sololá	701	Sololá	2	El tablón	10	Octubre	2023-10-27T00:00:00	2024-11-06T02:00:00	3	Temperatura mínima	13.8
185868	7	Sololá	701	Sololá	2	El tablón	10	Octubre	2023-10-27T00:00:00	2024-11-06T02:00:00	5	Humedad	88
185869	7	Sololá	701	Sololá	2	El tablón	10	Octubre	2023-10-27T00:00:00	2024-11-06T02:00:00	6	Velocidad del viento	6.4
185870	7	Sololá	701	Sololá	2	El tablón	10	Octubre	2023-10-27T00:00:00	2024-11-06T02:00:00	7	Dirección del viento	6.44
185871	7	Sololá	701	Sololá	2	El tablón	10	Octubre	2023-10-27T00:00:00	2024-11-06T02:00:00	1	Precipitación	0
185872	7	Sololá	701	Sololá	2	El tablón	10	Octubre	2023-10-27T00:00:00	2024-11-06T02:00:00	8	Radiación solar	0
185873	7	Sololá	701	Sololá	2	El tablón	10	Octubre	2023-10-27T00:00:00	2024-11-06T03:00:00	2	Temperatura media	13.7
185874	7	Sololá	701	Sololá	2	El tablón	10	Octubre	2023-10-27T00:00:00	2024-11-06T03:00:00	4	Temperatura máxima	13.8
185875	7	Sololá	701	Sololá	2	El tablón	10	Octubre	2023-10-27T00:00:00	2024-11-06T03:00:00	3	Temperatura mínima	13.7
185876	7	Sololá	701	Sololá	2	El tablón	10	Octubre	2023-10-27T00:00:00	2024-11-06T03:00:00	5	Humedad	88
185877	7	Sololá	701	Sololá	2	El tablón	10	Octubre	2023-10-27T00:00:00	2024-11-06T03:00:00	6	Velocidad del viento	8
185878	7	Sololá	701	Sololá	2	El tablón	10	Octubre	2023-10-27T00:00:00	2024-11-06T03:00:00	7	Dirección del viento	8.05
185879	7	Sololá	701	Sololá	2	El tablón	10	Octubre	2023-10-27T00:00:00	2024-11-06T03:00:00	1	Precipitación	0
185880	7	Sololá	701	Sololá	2	El tablón	10	Octubre	2023-10-27T00:00:00	2024-11-06T03:00:00	8	Radiación solar	0
185881	7	Sololá	701	Sololá	2	El tablón	10	Octubre	2023-10-27T00:00:00	2024-11-06T04:00:00	2	Temperatura media	13.5
185882	7	Sololá	701	Sololá	2	El tablón	10	Octubre	2023-10-27T00:00:00	2024-11-06T04:00:00	4	Temperatura máxima	13.8
185883	7	Sololá	701	Sololá	2	El tablón	10	Octubre	2023-10-27T00:00:00	2024-11-06T04:00:00	3	Temperatura mínima	13.4
185884	7	Sololá	701	Sololá	2	El tablón	10	Octubre	2023-10-27T00:00:00	2024-11-06T04:00:00	5	Humedad	88
185885	7	Sololá	701	Sololá	2	El tablón	10	Octubre	2023-10-27T00:00:00	2024-11-06T04:00:00	6	Velocidad del viento	9.7
185886	7	Sololá	701	Sololá	2	El tablón	10	Octubre	2023-10-27T00:00:00	2024-11-06T04:00:00	7	Dirección del viento	9.66
185887	7	Sololá	701	Sololá	2	El tablón	10	Octubre	2023-10-27T00:00:00	2024-11-06T04:00:00	1	Precipitación	0
185888	7	Sololá	701	Sololá	2	El tablón	10	Octubre	2023-10-27T00:00:00	2024-11-06T04:00:00	8	Radiación solar	0
185889	7	Sololá	701	Sololá	2	El tablón	10	Octubre	2023-10-27T00:00:00	2024-11-06T05:00:00	2	Temperatura media	13.3
185890	7	Sololá	701	Sololá	2	El tablón	10	Octubre	2023-10-27T00:00:00	2024-11-06T05:00:00	4	Temperatura máxima	13.6
185891	7	Sololá	701	Sololá	2	El tablón	10	Octubre	2023-10-27T00:00:00	2024-11-06T05:00:00	3	Temperatura mínima	13.3
185892	7	Sololá	701	Sololá	2	El tablón	10	Octubre	2023-10-27T00:00:00	2024-11-06T05:00:00	5	Humedad	88
185893	7	Sololá	701	Sololá	2	El tablón	10	Octubre	2023-10-27T00:00:00	2024-11-06T05:00:00	6	Velocidad del viento	11.3
185894	7	Sololá	701	Sololá	2	El tablón	10	Octubre	2023-10-27T00:00:00	2024-11-06T05:00:00	7	Dirección del viento	11.27
185895	7	Sololá	701	Sololá	2	El tablón	10	Octubre	2023-10-27T00:00:00	2024-11-06T05:00:00	1	Precipitación	0
185896	7	Sololá	701	Sololá	2	El tablón	10	Octubre	2023-10-27T00:00:00	2024-11-06T05:00:00	8	Radiación solar	0
185897	7	Sololá	701	Sololá	2	El tablón	10	Octubre	2023-10-27T00:00:00	2024-11-06T06:00:00	2	Temperatura media	13.3
185898	7	Sololá	701	Sololá	2	El tablón	10	Octubre	2023-10-27T00:00:00	2024-11-06T06:00:00	4	Temperatura máxima	13.3
185899	7	Sololá	701	Sololá	2	El tablón	10	Octubre	2023-10-27T00:00:00	2024-11-06T06:00:00	3	Temperatura mínima	13.2
185900	7	Sololá	701	Sololá	2	El tablón	10	Octubre	2023-10-27T00:00:00	2024-11-06T06:00:00	5	Humedad	88
185901	7	Sololá	701	Sololá	2	El tablón	10	Octubre	2023-10-27T00:00:00	2024-11-06T06:00:00	6	Velocidad del viento	8
185902	7	Sololá	701	Sololá	2	El tablón	10	Octubre	2023-10-27T00:00:00	2024-11-06T06:00:00	7	Dirección del viento	8.05
185903	7	Sololá	701	Sololá	2	El tablón	10	Octubre	2023-10-27T00:00:00	2024-11-06T06:00:00	1	Precipitación	0
185904	7	Sololá	701	Sololá	2	El tablón	10	Octubre	2023-10-27T00:00:00	2024-11-06T06:00:00	8	Radiación solar	0
185905	7	Sololá	701	Sololá	2	El tablón	10	Octubre	2023-10-27T00:00:00	2024-11-06T07:00:00	2	Temperatura media	13.9
185906	7	Sololá	701	Sololá	2	El tablón	10	Octubre	2023-10-27T00:00:00	2024-11-06T07:00:00	4	Temperatura máxima	13.9
185907	7	Sololá	701	Sololá	2	El tablón	10	Octubre	2023-10-27T00:00:00	2024-11-06T07:00:00	3	Temperatura mínima	13.3
185908	7	Sololá	701	Sololá	2	El tablón	10	Octubre	2023-10-27T00:00:00	2024-11-06T07:00:00	5	Humedad	88
185909	7	Sololá	701	Sololá	2	El tablón	10	Octubre	2023-10-27T00:00:00	2024-11-06T07:00:00	6	Velocidad del viento	9.7
185910	7	Sololá	701	Sololá	2	El tablón	10	Octubre	2023-10-27T00:00:00	2024-11-06T07:00:00	7	Dirección del viento	9.66
185911	7	Sololá	701	Sololá	2	El tablón	10	Octubre	2023-10-27T00:00:00	2024-11-06T07:00:00	1	Precipitación	0
185912	7	Sololá	701	Sololá	2	El tablón	10	Octubre	2023-10-27T00:00:00	2024-11-06T07:00:00	8	Radiación solar	67
185913	7	Sololá	701	Sololá	2	El tablón	10	Octubre	2023-10-27T00:00:00	2024-11-06T08:00:00	2	Temperatura media	15.2
185914	7	Sololá	701	Sololá	2	El tablón	10	Octubre	2023-10-27T00:00:00	2024-11-06T08:00:00	4	Temperatura máxima	15.2
185915	7	Sololá	701	Sololá	2	El tablón	10	Octubre	2023-10-27T00:00:00	2024-11-06T08:00:00	3	Temperatura mínima	14
185916	7	Sololá	701	Sololá	2	El tablón	10	Octubre	2023-10-27T00:00:00	2024-11-06T08:00:00	5	Humedad	87
185917	7	Sololá	701	Sololá	2	El tablón	10	Octubre	2023-10-27T00:00:00	2024-11-06T08:00:00	6	Velocidad del viento	8
185918	7	Sololá	701	Sololá	2	El tablón	10	Octubre	2023-10-27T00:00:00	2024-11-06T08:00:00	7	Dirección del viento	8.05
185919	7	Sololá	701	Sololá	2	El tablón	10	Octubre	2023-10-27T00:00:00	2024-11-06T08:00:00	1	Precipitación	0
185920	7	Sololá	701	Sololá	2	El tablón	10	Octubre	2023-10-27T00:00:00	2024-11-06T08:00:00	8	Radiación solar	164
185921	7	Sololá	701	Sololá	2	El tablón	10	Octubre	2023-10-27T00:00:00	2024-11-06T09:00:00	2	Temperatura media	15.3
185922	7	Sololá	701	Sololá	2	El tablón	10	Octubre	2023-10-27T00:00:00	2024-11-06T09:00:00	4	Temperatura máxima	15.3
185923	7	Sololá	701	Sololá	2	El tablón	10	Octubre	2023-10-27T00:00:00	2024-11-06T09:00:00	3	Temperatura mínima	14.7
185924	7	Sololá	701	Sololá	2	El tablón	10	Octubre	2023-10-27T00:00:00	2024-11-06T09:00:00	5	Humedad	88
185925	7	Sololá	701	Sololá	2	El tablón	10	Octubre	2023-10-27T00:00:00	2024-11-06T09:00:00	6	Velocidad del viento	9.7
185926	7	Sololá	701	Sololá	2	El tablón	10	Octubre	2023-10-27T00:00:00	2024-11-06T09:00:00	7	Dirección del viento	9.66
185927	7	Sololá	701	Sololá	2	El tablón	10	Octubre	2023-10-27T00:00:00	2024-11-06T09:00:00	1	Precipitación	0
185928	7	Sololá	701	Sololá	2	El tablón	10	Octubre	2023-10-27T00:00:00	2024-11-06T09:00:00	8	Radiación solar	264
185929	7	Sololá	701	Sololá	2	El tablón	10	Octubre	2023-10-27T00:00:00	2024-11-06T10:00:00	2	Temperatura media	15.5
185930	7	Sololá	701	Sololá	2	El tablón	10	Octubre	2023-10-27T00:00:00	2024-11-06T10:00:00	4	Temperatura máxima	15.5
185931	7	Sololá	701	Sololá	2	El tablón	10	Octubre	2023-10-27T00:00:00	2024-11-06T10:00:00	3	Temperatura mínima	14.7
185932	7	Sololá	701	Sololá	2	El tablón	10	Octubre	2023-10-27T00:00:00	2024-11-06T10:00:00	5	Humedad	87
185933	7	Sololá	701	Sololá	2	El tablón	10	Octubre	2023-10-27T00:00:00	2024-11-06T10:00:00	6	Velocidad del viento	11.3
185934	7	Sololá	701	Sololá	2	El tablón	10	Octubre	2023-10-27T00:00:00	2024-11-06T10:00:00	7	Dirección del viento	11.27
185935	7	Sololá	701	Sololá	2	El tablón	10	Octubre	2023-10-27T00:00:00	2024-11-06T10:00:00	1	Precipitación	0.2
185936	7	Sololá	701	Sololá	2	El tablón	10	Octubre	2023-10-27T00:00:00	2024-11-06T10:00:00	8	Radiación solar	325
185937	7	Sololá	701	Sololá	2	El tablón	10	Octubre	2023-10-27T00:00:00	2024-11-06T11:00:00	2	Temperatura media	15.8
185938	7	Sololá	701	Sololá	2	El tablón	10	Octubre	2023-10-27T00:00:00	2024-11-06T11:00:00	4	Temperatura máxima	16.5
185939	7	Sololá	701	Sololá	2	El tablón	10	Octubre	2023-10-27T00:00:00	2024-11-06T11:00:00	3	Temperatura mínima	15.5
185940	7	Sololá	701	Sololá	2	El tablón	10	Octubre	2023-10-27T00:00:00	2024-11-06T11:00:00	5	Humedad	81
185941	7	Sololá	701	Sololá	2	El tablón	10	Octubre	2023-10-27T00:00:00	2024-11-06T11:00:00	6	Velocidad del viento	9.7
185942	7	Sololá	701	Sololá	2	El tablón	10	Octubre	2023-10-27T00:00:00	2024-11-06T11:00:00	7	Dirección del viento	9.66
185943	7	Sololá	701	Sololá	2	El tablón	10	Octubre	2023-10-27T00:00:00	2024-11-06T11:00:00	1	Precipitación	0
185944	7	Sololá	701	Sololá	2	El tablón	10	Octubre	2023-10-27T00:00:00	2024-11-06T11:00:00	8	Radiación solar	335
185945	7	Sololá	701	Sololá	2	El tablón	10	Octubre	2023-10-27T00:00:00	2024-11-06T12:00:00	2	Temperatura media	17.8
185946	7	Sololá	701	Sololá	2	El tablón	10	Octubre	2023-10-27T00:00:00	2024-11-06T12:00:00	4	Temperatura máxima	17.8
185947	7	Sololá	701	Sololá	2	El tablón	10	Octubre	2023-10-27T00:00:00	2024-11-06T12:00:00	3	Temperatura mínima	15.8
185948	7	Sololá	701	Sololá	2	El tablón	10	Octubre	2023-10-27T00:00:00	2024-11-06T12:00:00	5	Humedad	74
185949	7	Sololá	701	Sololá	2	El tablón	10	Octubre	2023-10-27T00:00:00	2024-11-06T12:00:00	6	Velocidad del viento	9.7
185950	7	Sololá	701	Sololá	2	El tablón	10	Octubre	2023-10-27T00:00:00	2024-11-06T12:00:00	7	Dirección del viento	9.66
185951	7	Sololá	701	Sololá	2	El tablón	10	Octubre	2023-10-27T00:00:00	2024-11-06T12:00:00	1	Precipitación	0
185952	7	Sololá	701	Sololá	2	El tablón	10	Octubre	2023-10-27T00:00:00	2024-11-06T12:00:00	8	Radiación solar	475
185953	7	Sololá	701	Sololá	2	El tablón	10	Octubre	2023-10-27T00:00:00	2024-11-06T13:00:00	2	Temperatura media	15.4
185954	7	Sololá	701	Sololá	2	El tablón	10	Octubre	2023-10-27T00:00:00	2024-11-06T13:00:00	4	Temperatura máxima	17.9
185955	7	Sololá	701	Sololá	2	El tablón	10	Octubre	2023-10-27T00:00:00	2024-11-06T13:00:00	3	Temperatura mínima	15.4
185956	7	Sololá	701	Sololá	2	El tablón	10	Octubre	2023-10-27T00:00:00	2024-11-06T13:00:00	5	Humedad	86
185957	7	Sololá	701	Sololá	2	El tablón	10	Octubre	2023-10-27T00:00:00	2024-11-06T13:00:00	6	Velocidad del viento	9.7
185958	7	Sololá	701	Sololá	2	El tablón	10	Octubre	2023-10-27T00:00:00	2024-11-06T13:00:00	7	Dirección del viento	9.66
185959	7	Sololá	701	Sololá	2	El tablón	10	Octubre	2023-10-27T00:00:00	2024-11-06T13:00:00	1	Precipitación	0.2
185960	7	Sololá	701	Sololá	2	El tablón	10	Octubre	2023-10-27T00:00:00	2024-11-06T13:00:00	8	Radiación solar	296
185961	7	Sololá	701	Sololá	2	El tablón	10	Octubre	2023-10-27T00:00:00	2024-11-06T14:00:00	2	Temperatura media	14.2
185962	7	Sololá	701	Sololá	2	El tablón	10	Octubre	2023-10-27T00:00:00	2024-11-06T14:00:00	4	Temperatura máxima	15.4
185963	7	Sololá	701	Sololá	2	El tablón	10	Octubre	2023-10-27T00:00:00	2024-11-06T14:00:00	3	Temperatura mínima	14.1
185964	7	Sololá	701	Sololá	2	El tablón	10	Octubre	2023-10-27T00:00:00	2024-11-06T14:00:00	5	Humedad	86
185965	7	Sololá	701	Sololá	2	El tablón	10	Octubre	2023-10-27T00:00:00	2024-11-06T14:00:00	6	Velocidad del viento	9.7
185966	7	Sololá	701	Sololá	2	El tablón	10	Octubre	2023-10-27T00:00:00	2024-11-06T14:00:00	7	Dirección del viento	9.66
185967	7	Sololá	701	Sololá	2	El tablón	10	Octubre	2023-10-27T00:00:00	2024-11-06T14:00:00	1	Precipitación	1
185968	7	Sololá	701	Sololá	2	El tablón	10	Octubre	2023-10-27T00:00:00	2024-11-06T14:00:00	8	Radiación solar	232
185969	7	Sololá	701	Sololá	2	El tablón	10	Octubre	2023-10-27T00:00:00	2024-11-06T15:00:00	2	Temperatura media	15.2
185970	7	Sololá	701	Sololá	2	El tablón	10	Octubre	2023-10-27T00:00:00	2024-11-06T15:00:00	4	Temperatura máxima	15.2
185971	7	Sololá	701	Sololá	2	El tablón	10	Octubre	2023-10-27T00:00:00	2024-11-06T15:00:00	3	Temperatura mínima	13.9
185972	7	Sololá	701	Sololá	2	El tablón	10	Octubre	2023-10-27T00:00:00	2024-11-06T15:00:00	5	Humedad	85
185973	7	Sololá	701	Sololá	2	El tablón	10	Octubre	2023-10-27T00:00:00	2024-11-06T15:00:00	6	Velocidad del viento	6.4
185974	7	Sololá	701	Sololá	2	El tablón	10	Octubre	2023-10-27T00:00:00	2024-11-06T15:00:00	7	Dirección del viento	6.44
185975	7	Sololá	701	Sololá	2	El tablón	10	Octubre	2023-10-27T00:00:00	2024-11-06T15:00:00	1	Precipitación	0
185976	7	Sololá	701	Sololá	2	El tablón	10	Octubre	2023-10-27T00:00:00	2024-11-06T15:00:00	8	Radiación solar	226
185977	7	Sololá	701	Sololá	2	El tablón	10	Octubre	2023-10-27T00:00:00	2024-11-06T16:00:00	2	Temperatura media	16.3
185978	7	Sololá	701	Sololá	2	El tablón	10	Octubre	2023-10-27T00:00:00	2024-11-06T16:00:00	4	Temperatura máxima	16.4
185979	7	Sololá	701	Sololá	2	El tablón	10	Octubre	2023-10-27T00:00:00	2024-11-06T16:00:00	3	Temperatura mínima	15.2
185980	7	Sololá	701	Sololá	2	El tablón	10	Octubre	2023-10-27T00:00:00	2024-11-06T16:00:00	5	Humedad	81
185981	7	Sololá	701	Sololá	2	El tablón	10	Octubre	2023-10-27T00:00:00	2024-11-06T16:00:00	6	Velocidad del viento	9.7
185982	7	Sololá	701	Sololá	2	El tablón	10	Octubre	2023-10-27T00:00:00	2024-11-06T16:00:00	7	Dirección del viento	9.66
185983	7	Sololá	701	Sololá	2	El tablón	10	Octubre	2023-10-27T00:00:00	2024-11-06T16:00:00	1	Precipitación	0
185984	7	Sololá	701	Sololá	2	El tablón	10	Octubre	2023-10-27T00:00:00	2024-11-06T16:00:00	8	Radiación solar	275
185985	7	Sololá	701	Sololá	2	El tablón	10	Octubre	2023-10-27T00:00:00	2024-11-06T17:00:00	2	Temperatura media	14.5
185986	7	Sololá	701	Sololá	2	El tablón	10	Octubre	2023-10-27T00:00:00	2024-11-06T17:00:00	4	Temperatura máxima	16.6
185987	7	Sololá	701	Sololá	2	El tablón	10	Octubre	2023-10-27T00:00:00	2024-11-06T17:00:00	3	Temperatura mínima	14.5
185988	7	Sololá	701	Sololá	2	El tablón	10	Octubre	2023-10-27T00:00:00	2024-11-06T17:00:00	5	Humedad	88
185989	7	Sololá	701	Sololá	2	El tablón	10	Octubre	2023-10-27T00:00:00	2024-11-06T17:00:00	6	Velocidad del viento	9.7
185990	7	Sololá	701	Sololá	2	El tablón	10	Octubre	2023-10-27T00:00:00	2024-11-06T17:00:00	7	Dirección del viento	9.66
185991	7	Sololá	701	Sololá	2	El tablón	10	Octubre	2023-10-27T00:00:00	2024-11-06T17:00:00	1	Precipitación	0
185992	7	Sololá	701	Sololá	2	El tablón	10	Octubre	2023-10-27T00:00:00	2024-11-06T17:00:00	8	Radiación solar	108
185993	7	Sololá	701	Sololá	2	El tablón	10	Octubre	2023-10-27T00:00:00	2024-11-06T18:00:00	2	Temperatura media	13.6
185994	7	Sololá	701	Sololá	2	El tablón	10	Octubre	2023-10-27T00:00:00	2024-11-06T18:00:00	4	Temperatura máxima	14.5
185995	7	Sololá	701	Sololá	2	El tablón	10	Octubre	2023-10-27T00:00:00	2024-11-06T18:00:00	3	Temperatura mínima	13.6
185996	7	Sololá	701	Sololá	2	El tablón	10	Octubre	2023-10-27T00:00:00	2024-11-06T18:00:00	5	Humedad	89
185997	7	Sololá	701	Sololá	2	El tablón	10	Octubre	2023-10-27T00:00:00	2024-11-06T18:00:00	6	Velocidad del viento	11.3
185998	7	Sololá	701	Sololá	2	El tablón	10	Octubre	2023-10-27T00:00:00	2024-11-06T18:00:00	7	Dirección del viento	11.27
185999	7	Sololá	701	Sololá	2	El tablón	10	Octubre	2023-10-27T00:00:00	2024-11-06T18:00:00	1	Precipitación	1.8
186000	7	Sololá	701	Sololá	2	El tablón	10	Octubre	2023-10-27T00:00:00	2024-11-06T18:00:00	8	Radiación solar	3
186001	7	Sololá	701	Sololá	2	El tablón	10	Octubre	2023-10-27T00:00:00	2024-11-06T19:00:00	2	Temperatura media	13.7
186002	7	Sololá	701	Sololá	2	El tablón	10	Octubre	2023-10-27T00:00:00	2024-11-06T19:00:00	4	Temperatura máxima	13.7
186003	7	Sololá	701	Sololá	2	El tablón	10	Octubre	2023-10-27T00:00:00	2024-11-06T19:00:00	3	Temperatura mínima	13.6
186004	7	Sololá	701	Sololá	2	El tablón	10	Octubre	2023-10-27T00:00:00	2024-11-06T19:00:00	5	Humedad	89
186005	7	Sololá	701	Sololá	2	El tablón	10	Octubre	2023-10-27T00:00:00	2024-11-06T19:00:00	6	Velocidad del viento	11.3
186006	7	Sololá	701	Sololá	2	El tablón	10	Octubre	2023-10-27T00:00:00	2024-11-06T19:00:00	7	Dirección del viento	11.27
186007	7	Sololá	701	Sololá	2	El tablón	10	Octubre	2023-10-27T00:00:00	2024-11-06T19:00:00	1	Precipitación	0
186008	7	Sololá	701	Sololá	2	El tablón	10	Octubre	2023-10-27T00:00:00	2024-11-06T19:00:00	8	Radiación solar	0
186009	7	Sololá	701	Sololá	2	El tablón	10	Octubre	2023-10-27T00:00:00	2024-11-06T20:00:00	2	Temperatura media	13.5
186010	7	Sololá	701	Sololá	2	El tablón	10	Octubre	2023-10-27T00:00:00	2024-11-06T20:00:00	4	Temperatura máxima	13.7
186011	7	Sololá	701	Sololá	2	El tablón	10	Octubre	2023-10-27T00:00:00	2024-11-06T20:00:00	3	Temperatura mínima	13.5
186012	7	Sololá	701	Sololá	2	El tablón	10	Octubre	2023-10-27T00:00:00	2024-11-06T20:00:00	5	Humedad	89
186013	7	Sololá	701	Sololá	2	El tablón	10	Octubre	2023-10-27T00:00:00	2024-11-06T20:00:00	6	Velocidad del viento	9.7
186014	7	Sololá	701	Sololá	2	El tablón	10	Octubre	2023-10-27T00:00:00	2024-11-06T20:00:00	7	Dirección del viento	9.66
186015	7	Sololá	701	Sololá	2	El tablón	10	Octubre	2023-10-27T00:00:00	2024-11-06T20:00:00	1	Precipitación	0.4
186016	7	Sololá	701	Sololá	2	El tablón	10	Octubre	2023-10-27T00:00:00	2024-11-06T20:00:00	8	Radiación solar	0
186017	7	Sololá	701	Sololá	2	El tablón	10	Octubre	2023-10-27T00:00:00	2024-11-06T21:00:00	2	Temperatura media	13.3
186018	7	Sololá	701	Sololá	2	El tablón	10	Octubre	2023-10-27T00:00:00	2024-11-06T21:00:00	4	Temperatura máxima	13.5
186019	7	Sololá	701	Sololá	2	El tablón	10	Octubre	2023-10-27T00:00:00	2024-11-06T21:00:00	3	Temperatura mínima	13.3
186020	7	Sololá	701	Sololá	2	El tablón	10	Octubre	2023-10-27T00:00:00	2024-11-06T21:00:00	5	Humedad	89
186021	7	Sololá	701	Sololá	2	El tablón	10	Octubre	2023-10-27T00:00:00	2024-11-06T21:00:00	6	Velocidad del viento	9.7
186022	7	Sololá	701	Sololá	2	El tablón	10	Octubre	2023-10-27T00:00:00	2024-11-06T21:00:00	7	Dirección del viento	9.66
186023	7	Sololá	701	Sololá	2	El tablón	10	Octubre	2023-10-27T00:00:00	2024-11-06T21:00:00	1	Precipitación	0.2
186024	7	Sololá	701	Sololá	2	El tablón	10	Octubre	2023-10-27T00:00:00	2024-11-06T21:00:00	8	Radiación solar	0
186025	7	Sololá	701	Sololá	2	El tablón	10	Octubre	2023-10-27T00:00:00	2024-11-06T22:00:00	2	Temperatura media	13.3
186026	7	Sololá	701	Sololá	2	El tablón	10	Octubre	2023-10-27T00:00:00	2024-11-06T22:00:00	4	Temperatura máxima	13.4
186027	7	Sololá	701	Sololá	2	El tablón	10	Octubre	2023-10-27T00:00:00	2024-11-06T22:00:00	3	Temperatura mínima	13.3
186028	7	Sololá	701	Sololá	2	El tablón	10	Octubre	2023-10-27T00:00:00	2024-11-06T22:00:00	5	Humedad	89
186029	7	Sololá	701	Sololá	2	El tablón	10	Octubre	2023-10-27T00:00:00	2024-11-06T22:00:00	6	Velocidad del viento	11.3
186030	7	Sololá	701	Sololá	2	El tablón	10	Octubre	2023-10-27T00:00:00	2024-11-06T22:00:00	7	Dirección del viento	11.27
186031	7	Sololá	701	Sololá	2	El tablón	10	Octubre	2023-10-27T00:00:00	2024-11-06T22:00:00	1	Precipitación	0
186032	7	Sololá	701	Sololá	2	El tablón	10	Octubre	2023-10-27T00:00:00	2024-11-06T22:00:00	8	Radiación solar	0
186033	7	Sololá	701	Sololá	2	El tablón	10	Octubre	2023-10-27T00:00:00	2024-11-06T23:00:00	2	Temperatura media	13.2
186034	7	Sololá	701	Sololá	2	El tablón	10	Octubre	2023-10-27T00:00:00	2024-11-06T23:00:00	4	Temperatura máxima	13.3
186035	7	Sololá	701	Sololá	2	El tablón	10	Octubre	2023-10-27T00:00:00	2024-11-06T23:00:00	3	Temperatura mínima	13.2
186036	7	Sololá	701	Sololá	2	El tablón	10	Octubre	2023-10-27T00:00:00	2024-11-06T23:00:00	5	Humedad	88
186037	7	Sololá	701	Sololá	2	El tablón	10	Octubre	2023-10-27T00:00:00	2024-11-06T23:00:00	6	Velocidad del viento	6.4
186038	7	Sololá	701	Sololá	2	El tablón	10	Octubre	2023-10-27T00:00:00	2024-11-06T23:00:00	7	Dirección del viento	6.44
186039	7	Sololá	701	Sololá	2	El tablón	10	Octubre	2023-10-27T00:00:00	2024-11-06T23:00:00	1	Precipitación	0.4
186040	7	Sololá	701	Sololá	2	El tablón	10	Octubre	2023-10-27T00:00:00	2024-11-06T23:00:00	8	Radiación solar	0
186041	7	Sololá	701	Sololá	2	El tablón	10	Octubre	2023-10-28T00:00:00	2024-11-06T00:00:00	2	Temperatura media	13
186042	7	Sololá	701	Sololá	2	El tablón	10	Octubre	2023-10-28T00:00:00	2024-11-06T00:00:00	4	Temperatura máxima	13.3
186043	7	Sololá	701	Sololá	2	El tablón	10	Octubre	2023-10-28T00:00:00	2024-11-06T00:00:00	3	Temperatura mínima	13
186044	7	Sololá	701	Sololá	2	El tablón	10	Octubre	2023-10-28T00:00:00	2024-11-06T00:00:00	5	Humedad	88
186045	7	Sololá	701	Sololá	2	El tablón	10	Octubre	2023-10-28T00:00:00	2024-11-06T00:00:00	6	Velocidad del viento	4.8
186046	7	Sololá	701	Sololá	2	El tablón	10	Octubre	2023-10-28T00:00:00	2024-11-06T00:00:00	7	Dirección del viento	4.83
186047	7	Sololá	701	Sololá	2	El tablón	10	Octubre	2023-10-28T00:00:00	2024-11-06T00:00:00	1	Precipitación	0.2
186048	7	Sololá	701	Sololá	2	El tablón	10	Octubre	2023-10-28T00:00:00	2024-11-06T00:00:00	8	Radiación solar	0
186049	7	Sololá	701	Sololá	2	El tablón	10	Octubre	2023-10-28T00:00:00	2024-11-06T01:00:00	2	Temperatura media	12.8
186050	7	Sololá	701	Sololá	2	El tablón	10	Octubre	2023-10-28T00:00:00	2024-11-06T01:00:00	4	Temperatura máxima	13.1
186051	7	Sololá	701	Sololá	2	El tablón	10	Octubre	2023-10-28T00:00:00	2024-11-06T01:00:00	3	Temperatura mínima	12.8
186052	7	Sololá	701	Sololá	2	El tablón	10	Octubre	2023-10-28T00:00:00	2024-11-06T01:00:00	5	Humedad	89
186053	7	Sololá	701	Sololá	2	El tablón	10	Octubre	2023-10-28T00:00:00	2024-11-06T01:00:00	6	Velocidad del viento	9.7
186054	7	Sololá	701	Sololá	2	El tablón	10	Octubre	2023-10-28T00:00:00	2024-11-06T01:00:00	7	Dirección del viento	9.66
186055	7	Sololá	701	Sololá	2	El tablón	10	Octubre	2023-10-28T00:00:00	2024-11-06T01:00:00	1	Precipitación	0.2
186056	7	Sololá	701	Sololá	2	El tablón	10	Octubre	2023-10-28T00:00:00	2024-11-06T01:00:00	8	Radiación solar	0
186057	7	Sololá	701	Sololá	2	El tablón	10	Octubre	2023-10-28T00:00:00	2024-11-06T02:00:00	2	Temperatura media	12.6
186058	7	Sololá	701	Sololá	2	El tablón	10	Octubre	2023-10-28T00:00:00	2024-11-06T02:00:00	4	Temperatura máxima	12.8
186059	7	Sololá	701	Sololá	2	El tablón	10	Octubre	2023-10-28T00:00:00	2024-11-06T02:00:00	3	Temperatura mínima	12.6
186060	7	Sololá	701	Sololá	2	El tablón	10	Octubre	2023-10-28T00:00:00	2024-11-06T02:00:00	5	Humedad	89
186061	7	Sololá	701	Sololá	2	El tablón	10	Octubre	2023-10-28T00:00:00	2024-11-06T02:00:00	6	Velocidad del viento	9.7
186062	7	Sololá	701	Sololá	2	El tablón	10	Octubre	2023-10-28T00:00:00	2024-11-06T02:00:00	7	Dirección del viento	9.66
186063	7	Sololá	701	Sololá	2	El tablón	10	Octubre	2023-10-28T00:00:00	2024-11-06T02:00:00	1	Precipitación	0
186064	7	Sololá	701	Sololá	2	El tablón	10	Octubre	2023-10-28T00:00:00	2024-11-06T02:00:00	8	Radiación solar	0
186065	7	Sololá	701	Sololá	2	El tablón	10	Octubre	2023-10-28T00:00:00	2024-11-06T03:00:00	2	Temperatura media	12.4
186066	7	Sololá	701	Sololá	2	El tablón	10	Octubre	2023-10-28T00:00:00	2024-11-06T03:00:00	4	Temperatura máxima	12.6
186067	7	Sololá	701	Sololá	2	El tablón	10	Octubre	2023-10-28T00:00:00	2024-11-06T03:00:00	3	Temperatura mínima	12.4
186068	7	Sololá	701	Sololá	2	El tablón	10	Octubre	2023-10-28T00:00:00	2024-11-06T03:00:00	5	Humedad	89
186069	7	Sololá	701	Sololá	2	El tablón	10	Octubre	2023-10-28T00:00:00	2024-11-06T03:00:00	6	Velocidad del viento	12.9
186070	7	Sololá	701	Sololá	2	El tablón	10	Octubre	2023-10-28T00:00:00	2024-11-06T03:00:00	7	Dirección del viento	12.87
186071	7	Sololá	701	Sololá	2	El tablón	10	Octubre	2023-10-28T00:00:00	2024-11-06T03:00:00	1	Precipitación	0
186072	7	Sololá	701	Sololá	2	El tablón	10	Octubre	2023-10-28T00:00:00	2024-11-06T03:00:00	8	Radiación solar	0
186073	7	Sololá	701	Sololá	2	El tablón	10	Octubre	2023-10-28T00:00:00	2024-11-06T04:00:00	2	Temperatura media	12.5
186074	7	Sololá	701	Sololá	2	El tablón	10	Octubre	2023-10-28T00:00:00	2024-11-06T04:00:00	4	Temperatura máxima	12.6
186075	7	Sololá	701	Sololá	2	El tablón	10	Octubre	2023-10-28T00:00:00	2024-11-06T04:00:00	3	Temperatura mínima	12.4
186076	7	Sololá	701	Sololá	2	El tablón	10	Octubre	2023-10-28T00:00:00	2024-11-06T04:00:00	5	Humedad	89
186077	7	Sololá	701	Sololá	2	El tablón	10	Octubre	2023-10-28T00:00:00	2024-11-06T04:00:00	6	Velocidad del viento	9.7
186078	7	Sololá	701	Sololá	2	El tablón	10	Octubre	2023-10-28T00:00:00	2024-11-06T04:00:00	7	Dirección del viento	9.66
186079	7	Sololá	701	Sololá	2	El tablón	10	Octubre	2023-10-28T00:00:00	2024-11-06T04:00:00	1	Precipitación	0
186080	7	Sololá	701	Sololá	2	El tablón	10	Octubre	2023-10-28T00:00:00	2024-11-06T04:00:00	8	Radiación solar	0
186081	7	Sololá	701	Sololá	2	El tablón	10	Octubre	2023-10-28T00:00:00	2024-11-06T05:00:00	2	Temperatura media	12.2
186082	7	Sololá	701	Sololá	2	El tablón	10	Octubre	2023-10-28T00:00:00	2024-11-06T05:00:00	4	Temperatura máxima	12.7
186083	7	Sololá	701	Sololá	2	El tablón	10	Octubre	2023-10-28T00:00:00	2024-11-06T05:00:00	3	Temperatura mínima	12.2
186084	7	Sololá	701	Sololá	2	El tablón	10	Octubre	2023-10-28T00:00:00	2024-11-06T05:00:00	5	Humedad	89
186085	7	Sololá	701	Sololá	2	El tablón	10	Octubre	2023-10-28T00:00:00	2024-11-06T05:00:00	6	Velocidad del viento	17.7
186086	7	Sololá	701	Sololá	2	El tablón	10	Octubre	2023-10-28T00:00:00	2024-11-06T05:00:00	7	Dirección del viento	17.7
186087	7	Sololá	701	Sololá	2	El tablón	10	Octubre	2023-10-28T00:00:00	2024-11-06T05:00:00	1	Precipitación	0
186088	7	Sololá	701	Sololá	2	El tablón	10	Octubre	2023-10-28T00:00:00	2024-11-06T05:00:00	8	Radiación solar	0
186089	7	Sololá	701	Sololá	2	El tablón	10	Octubre	2023-10-28T00:00:00	2024-11-06T06:00:00	2	Temperatura media	11.6
186090	7	Sololá	701	Sololá	2	El tablón	10	Octubre	2023-10-28T00:00:00	2024-11-06T06:00:00	4	Temperatura máxima	12.2
186091	7	Sololá	701	Sololá	2	El tablón	10	Octubre	2023-10-28T00:00:00	2024-11-06T06:00:00	3	Temperatura mínima	11.6
186092	7	Sololá	701	Sololá	2	El tablón	10	Octubre	2023-10-28T00:00:00	2024-11-06T06:00:00	5	Humedad	88
186093	7	Sololá	701	Sololá	2	El tablón	10	Octubre	2023-10-28T00:00:00	2024-11-06T06:00:00	6	Velocidad del viento	19.3
186094	7	Sololá	701	Sololá	2	El tablón	10	Octubre	2023-10-28T00:00:00	2024-11-06T06:00:00	7	Dirección del viento	19.31
186095	7	Sololá	701	Sololá	2	El tablón	10	Octubre	2023-10-28T00:00:00	2024-11-06T06:00:00	1	Precipitación	0
186096	7	Sololá	701	Sololá	2	El tablón	10	Octubre	2023-10-28T00:00:00	2024-11-06T06:00:00	8	Radiación solar	0
186097	7	Sololá	701	Sololá	2	El tablón	10	Octubre	2023-10-28T00:00:00	2024-11-06T07:00:00	2	Temperatura media	11.9
186098	7	Sololá	701	Sololá	2	El tablón	10	Octubre	2023-10-28T00:00:00	2024-11-06T07:00:00	4	Temperatura máxima	11.9
186099	7	Sololá	701	Sololá	2	El tablón	10	Octubre	2023-10-28T00:00:00	2024-11-06T07:00:00	3	Temperatura mínima	11.6
186100	7	Sololá	701	Sololá	2	El tablón	10	Octubre	2023-10-28T00:00:00	2024-11-06T07:00:00	5	Humedad	87
186101	7	Sololá	701	Sololá	2	El tablón	10	Octubre	2023-10-28T00:00:00	2024-11-06T07:00:00	6	Velocidad del viento	20.9
186102	7	Sololá	701	Sololá	2	El tablón	10	Octubre	2023-10-28T00:00:00	2024-11-06T07:00:00	7	Dirección del viento	20.92
186103	7	Sololá	701	Sololá	2	El tablón	10	Octubre	2023-10-28T00:00:00	2024-11-06T07:00:00	1	Precipitación	0
186104	7	Sololá	701	Sololá	2	El tablón	10	Octubre	2023-10-28T00:00:00	2024-11-06T07:00:00	8	Radiación solar	55
186105	7	Sololá	701	Sololá	2	El tablón	10	Octubre	2023-10-28T00:00:00	2024-11-06T08:00:00	2	Temperatura media	13.1
186106	7	Sololá	701	Sololá	2	El tablón	10	Octubre	2023-10-28T00:00:00	2024-11-06T08:00:00	4	Temperatura máxima	13.1
186107	7	Sololá	701	Sololá	2	El tablón	10	Octubre	2023-10-28T00:00:00	2024-11-06T08:00:00	3	Temperatura mínima	11.9
186108	7	Sololá	701	Sololá	2	El tablón	10	Octubre	2023-10-28T00:00:00	2024-11-06T08:00:00	5	Humedad	87
186109	7	Sololá	701	Sololá	2	El tablón	10	Octubre	2023-10-28T00:00:00	2024-11-06T08:00:00	6	Velocidad del viento	20.9
186110	7	Sololá	701	Sololá	2	El tablón	10	Octubre	2023-10-28T00:00:00	2024-11-06T08:00:00	7	Dirección del viento	20.92
186111	7	Sololá	701	Sololá	2	El tablón	10	Octubre	2023-10-28T00:00:00	2024-11-06T08:00:00	1	Precipitación	0
186112	7	Sololá	701	Sololá	2	El tablón	10	Octubre	2023-10-28T00:00:00	2024-11-06T08:00:00	8	Radiación solar	231
186113	7	Sololá	701	Sololá	2	El tablón	10	Octubre	2023-10-28T00:00:00	2024-11-06T09:00:00	2	Temperatura media	13.7
186114	7	Sololá	701	Sololá	2	El tablón	10	Octubre	2023-10-28T00:00:00	2024-11-06T09:00:00	4	Temperatura máxima	14.2
186115	7	Sololá	701	Sololá	2	El tablón	10	Octubre	2023-10-28T00:00:00	2024-11-06T09:00:00	3	Temperatura mínima	13.1
186116	7	Sololá	701	Sololá	2	El tablón	10	Octubre	2023-10-28T00:00:00	2024-11-06T09:00:00	5	Humedad	87
186117	7	Sololá	701	Sololá	2	El tablón	10	Octubre	2023-10-28T00:00:00	2024-11-06T09:00:00	6	Velocidad del viento	14.5
186118	7	Sololá	701	Sololá	2	El tablón	10	Octubre	2023-10-28T00:00:00	2024-11-06T09:00:00	7	Dirección del viento	14.48
186119	7	Sololá	701	Sololá	2	El tablón	10	Octubre	2023-10-28T00:00:00	2024-11-06T09:00:00	1	Precipitación	0
186120	7	Sololá	701	Sololá	2	El tablón	10	Octubre	2023-10-28T00:00:00	2024-11-06T09:00:00	8	Radiación solar	334
186121	7	Sololá	701	Sololá	2	El tablón	10	Octubre	2023-10-28T00:00:00	2024-11-06T10:00:00	2	Temperatura media	14.7
186122	7	Sololá	701	Sololá	2	El tablón	10	Octubre	2023-10-28T00:00:00	2024-11-06T10:00:00	4	Temperatura máxima	15.1
186123	7	Sololá	701	Sololá	2	El tablón	10	Octubre	2023-10-28T00:00:00	2024-11-06T10:00:00	3	Temperatura mínima	13.6
186124	7	Sololá	701	Sololá	2	El tablón	10	Octubre	2023-10-28T00:00:00	2024-11-06T10:00:00	5	Humedad	86
186125	7	Sololá	701	Sololá	2	El tablón	10	Octubre	2023-10-28T00:00:00	2024-11-06T10:00:00	6	Velocidad del viento	14.5
186126	7	Sololá	701	Sololá	2	El tablón	10	Octubre	2023-10-28T00:00:00	2024-11-06T10:00:00	7	Dirección del viento	14.48
186127	7	Sololá	701	Sololá	2	El tablón	10	Octubre	2023-10-28T00:00:00	2024-11-06T10:00:00	1	Precipitación	0
186128	7	Sololá	701	Sololá	2	El tablón	10	Octubre	2023-10-28T00:00:00	2024-11-06T10:00:00	8	Radiación solar	351
186129	7	Sololá	701	Sololá	2	El tablón	10	Octubre	2023-10-28T00:00:00	2024-11-06T11:00:00	2	Temperatura media	16.7
186130	7	Sololá	701	Sololá	2	El tablón	10	Octubre	2023-10-28T00:00:00	2024-11-06T11:00:00	4	Temperatura máxima	17.1
186131	7	Sololá	701	Sololá	2	El tablón	10	Octubre	2023-10-28T00:00:00	2024-11-06T11:00:00	3	Temperatura mínima	14.7
186132	7	Sololá	701	Sololá	2	El tablón	10	Octubre	2023-10-28T00:00:00	2024-11-06T11:00:00	5	Humedad	81
186133	7	Sololá	701	Sololá	2	El tablón	10	Octubre	2023-10-28T00:00:00	2024-11-06T11:00:00	6	Velocidad del viento	14.5
186134	7	Sololá	701	Sololá	2	El tablón	10	Octubre	2023-10-28T00:00:00	2024-11-06T11:00:00	7	Dirección del viento	14.48
186135	7	Sololá	701	Sololá	2	El tablón	10	Octubre	2023-10-28T00:00:00	2024-11-06T11:00:00	1	Precipitación	0
186136	7	Sololá	701	Sololá	2	El tablón	10	Octubre	2023-10-28T00:00:00	2024-11-06T11:00:00	8	Radiación solar	776
186137	7	Sololá	701	Sololá	2	El tablón	10	Octubre	2023-10-28T00:00:00	2024-11-06T12:00:00	2	Temperatura media	17.8
186138	7	Sololá	701	Sololá	2	El tablón	10	Octubre	2023-10-28T00:00:00	2024-11-06T12:00:00	4	Temperatura máxima	17.8
186139	7	Sololá	701	Sololá	2	El tablón	10	Octubre	2023-10-28T00:00:00	2024-11-06T12:00:00	3	Temperatura mínima	16.6
186140	7	Sololá	701	Sololá	2	El tablón	10	Octubre	2023-10-28T00:00:00	2024-11-06T12:00:00	5	Humedad	77
186141	7	Sololá	701	Sololá	2	El tablón	10	Octubre	2023-10-28T00:00:00	2024-11-06T12:00:00	6	Velocidad del viento	16.1
186142	7	Sololá	701	Sololá	2	El tablón	10	Octubre	2023-10-28T00:00:00	2024-11-06T12:00:00	7	Dirección del viento	16.09
186143	7	Sololá	701	Sololá	2	El tablón	10	Octubre	2023-10-28T00:00:00	2024-11-06T12:00:00	1	Precipitación	0
186144	7	Sololá	701	Sololá	2	El tablón	10	Octubre	2023-10-28T00:00:00	2024-11-06T12:00:00	8	Radiación solar	812
186145	7	Sololá	701	Sololá	2	El tablón	10	Octubre	2023-10-28T00:00:00	2024-11-06T13:00:00	2	Temperatura media	17.4
186146	7	Sololá	701	Sololá	2	El tablón	10	Octubre	2023-10-28T00:00:00	2024-11-06T13:00:00	4	Temperatura máxima	17.9
186147	7	Sololá	701	Sololá	2	El tablón	10	Octubre	2023-10-28T00:00:00	2024-11-06T13:00:00	3	Temperatura mínima	16.8
186148	7	Sololá	701	Sololá	2	El tablón	10	Octubre	2023-10-28T00:00:00	2024-11-06T13:00:00	5	Humedad	77
186149	7	Sololá	701	Sololá	2	El tablón	10	Octubre	2023-10-28T00:00:00	2024-11-06T13:00:00	6	Velocidad del viento	12.9
186150	7	Sololá	701	Sololá	2	El tablón	10	Octubre	2023-10-28T00:00:00	2024-11-06T13:00:00	7	Dirección del viento	12.87
186151	7	Sololá	701	Sololá	2	El tablón	10	Octubre	2023-10-28T00:00:00	2024-11-06T13:00:00	1	Precipitación	0
186152	7	Sololá	701	Sololá	2	El tablón	10	Octubre	2023-10-28T00:00:00	2024-11-06T13:00:00	8	Radiación solar	569
186153	7	Sololá	701	Sololá	2	El tablón	10	Octubre	2023-10-28T00:00:00	2024-11-06T14:00:00	2	Temperatura media	17.5
186154	7	Sololá	701	Sololá	2	El tablón	10	Octubre	2023-10-28T00:00:00	2024-11-06T14:00:00	4	Temperatura máxima	17.8
186155	7	Sololá	701	Sololá	2	El tablón	10	Octubre	2023-10-28T00:00:00	2024-11-06T14:00:00	3	Temperatura mínima	16.6
186156	7	Sololá	701	Sololá	2	El tablón	10	Octubre	2023-10-28T00:00:00	2024-11-06T14:00:00	5	Humedad	79
186157	7	Sololá	701	Sololá	2	El tablón	10	Octubre	2023-10-28T00:00:00	2024-11-06T14:00:00	6	Velocidad del viento	6.4
186158	7	Sololá	701	Sololá	2	El tablón	10	Octubre	2023-10-28T00:00:00	2024-11-06T14:00:00	7	Dirección del viento	6.44
186159	7	Sololá	701	Sololá	2	El tablón	10	Octubre	2023-10-28T00:00:00	2024-11-06T14:00:00	1	Precipitación	0
186160	7	Sololá	701	Sololá	2	El tablón	10	Octubre	2023-10-28T00:00:00	2024-11-06T14:00:00	8	Radiación solar	309
186161	7	Sololá	701	Sololá	2	El tablón	10	Octubre	2023-10-28T00:00:00	2024-11-06T15:00:00	2	Temperatura media	17.8
186162	7	Sololá	701	Sololá	2	El tablón	10	Octubre	2023-10-28T00:00:00	2024-11-06T15:00:00	4	Temperatura máxima	18.2
186163	7	Sololá	701	Sololá	2	El tablón	10	Octubre	2023-10-28T00:00:00	2024-11-06T15:00:00	3	Temperatura mínima	17.2
186164	7	Sololá	701	Sololá	2	El tablón	10	Octubre	2023-10-28T00:00:00	2024-11-06T15:00:00	5	Humedad	79
186165	7	Sololá	701	Sololá	2	El tablón	10	Octubre	2023-10-28T00:00:00	2024-11-06T15:00:00	6	Velocidad del viento	11.3
186166	7	Sololá	701	Sololá	2	El tablón	10	Octubre	2023-10-28T00:00:00	2024-11-06T15:00:00	7	Dirección del viento	11.27
186167	7	Sololá	701	Sololá	2	El tablón	10	Octubre	2023-10-28T00:00:00	2024-11-06T15:00:00	1	Precipitación	0
186168	7	Sololá	701	Sololá	2	El tablón	10	Octubre	2023-10-28T00:00:00	2024-11-06T15:00:00	8	Radiación solar	565
186169	7	Sololá	701	Sololá	2	El tablón	10	Octubre	2023-10-28T00:00:00	2024-11-06T16:00:00	2	Temperatura media	17.7
186170	7	Sololá	701	Sololá	2	El tablón	10	Octubre	2023-10-28T00:00:00	2024-11-06T16:00:00	4	Temperatura máxima	17.8
186171	7	Sololá	701	Sololá	2	El tablón	10	Octubre	2023-10-28T00:00:00	2024-11-06T16:00:00	3	Temperatura mínima	17.3
186172	7	Sololá	701	Sololá	2	El tablón	10	Octubre	2023-10-28T00:00:00	2024-11-06T16:00:00	5	Humedad	80
186173	7	Sololá	701	Sololá	2	El tablón	10	Octubre	2023-10-28T00:00:00	2024-11-06T16:00:00	6	Velocidad del viento	11.3
186174	7	Sololá	701	Sololá	2	El tablón	10	Octubre	2023-10-28T00:00:00	2024-11-06T16:00:00	7	Dirección del viento	11.27
186175	7	Sololá	701	Sololá	2	El tablón	10	Octubre	2023-10-28T00:00:00	2024-11-06T16:00:00	1	Precipitación	0
186176	7	Sololá	701	Sololá	2	El tablón	10	Octubre	2023-10-28T00:00:00	2024-11-06T16:00:00	8	Radiación solar	525
186177	7	Sololá	701	Sololá	2	El tablón	10	Octubre	2023-10-28T00:00:00	2024-11-06T17:00:00	2	Temperatura media	14.2
186178	7	Sololá	701	Sololá	2	El tablón	10	Octubre	2023-10-28T00:00:00	2024-11-06T17:00:00	4	Temperatura máxima	17.7
186179	7	Sololá	701	Sololá	2	El tablón	10	Octubre	2023-10-28T00:00:00	2024-11-06T17:00:00	3	Temperatura mínima	14.2
186180	7	Sololá	701	Sololá	2	El tablón	10	Octubre	2023-10-28T00:00:00	2024-11-06T17:00:00	5	Humedad	89
186181	7	Sololá	701	Sololá	2	El tablón	10	Octubre	2023-10-28T00:00:00	2024-11-06T17:00:00	6	Velocidad del viento	9.7
186182	7	Sololá	701	Sololá	2	El tablón	10	Octubre	2023-10-28T00:00:00	2024-11-06T17:00:00	7	Dirección del viento	9.66
186183	7	Sololá	701	Sololá	2	El tablón	10	Octubre	2023-10-28T00:00:00	2024-11-06T17:00:00	1	Precipitación	0
186184	7	Sololá	701	Sololá	2	El tablón	10	Octubre	2023-10-28T00:00:00	2024-11-06T17:00:00	8	Radiación solar	34
186185	7	Sololá	701	Sololá	2	El tablón	10	Octubre	2023-10-28T00:00:00	2024-11-06T18:00:00	2	Temperatura media	14.2
186186	7	Sololá	701	Sololá	2	El tablón	10	Octubre	2023-10-28T00:00:00	2024-11-06T18:00:00	4	Temperatura máxima	14.3
186187	7	Sololá	701	Sololá	2	El tablón	10	Octubre	2023-10-28T00:00:00	2024-11-06T18:00:00	3	Temperatura mínima	14.1
186188	7	Sololá	701	Sololá	2	El tablón	10	Octubre	2023-10-28T00:00:00	2024-11-06T18:00:00	5	Humedad	89
186189	7	Sololá	701	Sololá	2	El tablón	10	Octubre	2023-10-28T00:00:00	2024-11-06T18:00:00	6	Velocidad del viento	8
186190	7	Sololá	701	Sololá	2	El tablón	10	Octubre	2023-10-28T00:00:00	2024-11-06T18:00:00	7	Dirección del viento	8.05
186191	7	Sololá	701	Sololá	2	El tablón	10	Octubre	2023-10-28T00:00:00	2024-11-06T18:00:00	1	Precipitación	0
186192	7	Sololá	701	Sololá	2	El tablón	10	Octubre	2023-10-28T00:00:00	2024-11-06T18:00:00	8	Radiación solar	8
186193	7	Sololá	701	Sololá	2	El tablón	10	Octubre	2023-10-28T00:00:00	2024-11-06T19:00:00	2	Temperatura media	14.3
186194	7	Sololá	701	Sololá	2	El tablón	10	Octubre	2023-10-28T00:00:00	2024-11-06T19:00:00	4	Temperatura máxima	14.3
186195	7	Sololá	701	Sololá	2	El tablón	10	Octubre	2023-10-28T00:00:00	2024-11-06T19:00:00	3	Temperatura mínima	13.9
186196	7	Sololá	701	Sololá	2	El tablón	10	Octubre	2023-10-28T00:00:00	2024-11-06T19:00:00	5	Humedad	88
186197	7	Sololá	701	Sololá	2	El tablón	10	Octubre	2023-10-28T00:00:00	2024-11-06T19:00:00	6	Velocidad del viento	11.3
186198	7	Sololá	701	Sololá	2	El tablón	10	Octubre	2023-10-28T00:00:00	2024-11-06T19:00:00	7	Dirección del viento	11.27
186199	7	Sololá	701	Sololá	2	El tablón	10	Octubre	2023-10-28T00:00:00	2024-11-06T19:00:00	1	Precipitación	0
186200	7	Sololá	701	Sololá	2	El tablón	10	Octubre	2023-10-28T00:00:00	2024-11-06T19:00:00	8	Radiación solar	0
186201	7	Sololá	701	Sololá	2	El tablón	10	Octubre	2023-10-28T00:00:00	2024-11-06T20:00:00	2	Temperatura media	13.7
186202	7	Sololá	701	Sololá	2	El tablón	10	Octubre	2023-10-28T00:00:00	2024-11-06T20:00:00	4	Temperatura máxima	14.3
186203	7	Sololá	701	Sololá	2	El tablón	10	Octubre	2023-10-28T00:00:00	2024-11-06T20:00:00	3	Temperatura mínima	13.7
186204	7	Sololá	701	Sololá	2	El tablón	10	Octubre	2023-10-28T00:00:00	2024-11-06T20:00:00	5	Humedad	89
186205	7	Sololá	701	Sololá	2	El tablón	10	Octubre	2023-10-28T00:00:00	2024-11-06T20:00:00	6	Velocidad del viento	11.3
186206	7	Sololá	701	Sololá	2	El tablón	10	Octubre	2023-10-28T00:00:00	2024-11-06T20:00:00	7	Dirección del viento	11.27
186207	7	Sololá	701	Sololá	2	El tablón	10	Octubre	2023-10-28T00:00:00	2024-11-06T20:00:00	1	Precipitación	0
186208	7	Sololá	701	Sololá	2	El tablón	10	Octubre	2023-10-28T00:00:00	2024-11-06T20:00:00	8	Radiación solar	0
186209	7	Sololá	701	Sololá	2	El tablón	10	Octubre	2023-10-28T00:00:00	2024-11-06T21:00:00	2	Temperatura media	13.6
186210	7	Sololá	701	Sololá	2	El tablón	10	Octubre	2023-10-28T00:00:00	2024-11-06T21:00:00	4	Temperatura máxima	13.8
186211	7	Sololá	701	Sololá	2	El tablón	10	Octubre	2023-10-28T00:00:00	2024-11-06T21:00:00	3	Temperatura mínima	13.6
186212	7	Sololá	701	Sololá	2	El tablón	10	Octubre	2023-10-28T00:00:00	2024-11-06T21:00:00	5	Humedad	89
186213	7	Sololá	701	Sololá	2	El tablón	10	Octubre	2023-10-28T00:00:00	2024-11-06T21:00:00	6	Velocidad del viento	6.4
186214	7	Sololá	701	Sololá	2	El tablón	10	Octubre	2023-10-28T00:00:00	2024-11-06T21:00:00	7	Dirección del viento	6.44
186215	7	Sololá	701	Sololá	2	El tablón	10	Octubre	2023-10-28T00:00:00	2024-11-06T21:00:00	1	Precipitación	0.2
186216	7	Sololá	701	Sololá	2	El tablón	10	Octubre	2023-10-28T00:00:00	2024-11-06T21:00:00	8	Radiación solar	0
186217	7	Sololá	701	Sololá	2	El tablón	10	Octubre	2023-10-28T00:00:00	2024-11-06T22:00:00	2	Temperatura media	13.2
186218	7	Sololá	701	Sololá	2	El tablón	10	Octubre	2023-10-28T00:00:00	2024-11-06T22:00:00	4	Temperatura máxima	13.6
186219	7	Sololá	701	Sololá	2	El tablón	10	Octubre	2023-10-28T00:00:00	2024-11-06T22:00:00	3	Temperatura mínima	13.2
186220	7	Sololá	701	Sololá	2	El tablón	10	Octubre	2023-10-28T00:00:00	2024-11-06T22:00:00	5	Humedad	89
186221	7	Sololá	701	Sololá	2	El tablón	10	Octubre	2023-10-28T00:00:00	2024-11-06T22:00:00	6	Velocidad del viento	6.4
186222	7	Sololá	701	Sololá	2	El tablón	10	Octubre	2023-10-28T00:00:00	2024-11-06T22:00:00	7	Dirección del viento	6.44
186223	7	Sololá	701	Sololá	2	El tablón	10	Octubre	2023-10-28T00:00:00	2024-11-06T22:00:00	1	Precipitación	0
186224	7	Sololá	701	Sololá	2	El tablón	10	Octubre	2023-10-28T00:00:00	2024-11-06T22:00:00	8	Radiación solar	0
186225	7	Sololá	701	Sololá	2	El tablón	10	Octubre	2023-10-28T00:00:00	2024-11-06T23:00:00	2	Temperatura media	13.2
186226	7	Sololá	701	Sololá	2	El tablón	10	Octubre	2023-10-28T00:00:00	2024-11-06T23:00:00	4	Temperatura máxima	13.3
186227	7	Sololá	701	Sololá	2	El tablón	10	Octubre	2023-10-28T00:00:00	2024-11-06T23:00:00	3	Temperatura mínima	13.1
186228	7	Sololá	701	Sololá	2	El tablón	10	Octubre	2023-10-28T00:00:00	2024-11-06T23:00:00	5	Humedad	89
186229	7	Sololá	701	Sololá	2	El tablón	10	Octubre	2023-10-28T00:00:00	2024-11-06T23:00:00	6	Velocidad del viento	6.4
186230	7	Sololá	701	Sololá	2	El tablón	10	Octubre	2023-10-28T00:00:00	2024-11-06T23:00:00	7	Dirección del viento	6.44
186231	7	Sololá	701	Sololá	2	El tablón	10	Octubre	2023-10-28T00:00:00	2024-11-06T23:00:00	1	Precipitación	0
186232	7	Sololá	701	Sololá	2	El tablón	10	Octubre	2023-10-28T00:00:00	2024-11-06T23:00:00	8	Radiación solar	0
186233	7	Sololá	701	Sololá	2	El tablón	10	Octubre	2023-10-29T00:00:00	2024-11-06T00:00:00	2	Temperatura media	13
186234	7	Sololá	701	Sololá	2	El tablón	10	Octubre	2023-10-29T00:00:00	2024-11-06T00:00:00	4	Temperatura máxima	13.2
186235	7	Sololá	701	Sololá	2	El tablón	10	Octubre	2023-10-29T00:00:00	2024-11-06T00:00:00	3	Temperatura mínima	12.9
186236	7	Sololá	701	Sololá	2	El tablón	10	Octubre	2023-10-29T00:00:00	2024-11-06T00:00:00	5	Humedad	89
186237	7	Sololá	701	Sololá	2	El tablón	10	Octubre	2023-10-29T00:00:00	2024-11-06T00:00:00	6	Velocidad del viento	4.8
186238	7	Sololá	701	Sololá	2	El tablón	10	Octubre	2023-10-29T00:00:00	2024-11-06T00:00:00	7	Dirección del viento	4.83
186239	7	Sololá	701	Sololá	2	El tablón	10	Octubre	2023-10-29T00:00:00	2024-11-06T00:00:00	1	Precipitación	0
186240	7	Sololá	701	Sololá	2	El tablón	10	Octubre	2023-10-29T00:00:00	2024-11-06T00:00:00	8	Radiación solar	0
186241	7	Sololá	701	Sololá	2	El tablón	10	Octubre	2023-10-29T00:00:00	2024-11-06T01:00:00	2	Temperatura media	13.1
186242	7	Sololá	701	Sololá	2	El tablón	10	Octubre	2023-10-29T00:00:00	2024-11-06T01:00:00	4	Temperatura máxima	13.1
186243	7	Sololá	701	Sololá	2	El tablón	10	Octubre	2023-10-29T00:00:00	2024-11-06T01:00:00	3	Temperatura mínima	12.8
186244	7	Sololá	701	Sololá	2	El tablón	10	Octubre	2023-10-29T00:00:00	2024-11-06T01:00:00	5	Humedad	89
186245	7	Sololá	701	Sololá	2	El tablón	10	Octubre	2023-10-29T00:00:00	2024-11-06T01:00:00	6	Velocidad del viento	3.2
186246	7	Sololá	701	Sololá	2	El tablón	10	Octubre	2023-10-29T00:00:00	2024-11-06T01:00:00	7	Dirección del viento	3.22
186247	7	Sololá	701	Sololá	2	El tablón	10	Octubre	2023-10-29T00:00:00	2024-11-06T01:00:00	1	Precipitación	0
186248	7	Sololá	701	Sololá	2	El tablón	10	Octubre	2023-10-29T00:00:00	2024-11-06T01:00:00	8	Radiación solar	0
186249	7	Sololá	701	Sololá	2	El tablón	10	Octubre	2023-10-29T00:00:00	2024-11-06T02:00:00	2	Temperatura media	12.8
186250	7	Sololá	701	Sololá	2	El tablón	10	Octubre	2023-10-29T00:00:00	2024-11-06T02:00:00	4	Temperatura máxima	13.1
186251	7	Sololá	701	Sololá	2	El tablón	10	Octubre	2023-10-29T00:00:00	2024-11-06T02:00:00	3	Temperatura mínima	12.8
186252	7	Sololá	701	Sololá	2	El tablón	10	Octubre	2023-10-29T00:00:00	2024-11-06T02:00:00	5	Humedad	89
186253	7	Sololá	701	Sololá	2	El tablón	10	Octubre	2023-10-29T00:00:00	2024-11-06T02:00:00	6	Velocidad del viento	4.8
186254	7	Sololá	701	Sololá	2	El tablón	10	Octubre	2023-10-29T00:00:00	2024-11-06T02:00:00	7	Dirección del viento	4.83
186255	7	Sololá	701	Sololá	2	El tablón	10	Octubre	2023-10-29T00:00:00	2024-11-06T02:00:00	1	Precipitación	0
186256	7	Sololá	701	Sololá	2	El tablón	10	Octubre	2023-10-29T00:00:00	2024-11-06T02:00:00	8	Radiación solar	0
186257	7	Sololá	701	Sololá	2	El tablón	10	Octubre	2023-10-29T00:00:00	2024-11-06T03:00:00	2	Temperatura media	12.7
186258	7	Sololá	701	Sololá	2	El tablón	10	Octubre	2023-10-29T00:00:00	2024-11-06T03:00:00	4	Temperatura máxima	12.8
186259	7	Sololá	701	Sololá	2	El tablón	10	Octubre	2023-10-29T00:00:00	2024-11-06T03:00:00	3	Temperatura mínima	12.7
186260	7	Sololá	701	Sololá	2	El tablón	10	Octubre	2023-10-29T00:00:00	2024-11-06T03:00:00	5	Humedad	89
186261	7	Sololá	701	Sololá	2	El tablón	10	Octubre	2023-10-29T00:00:00	2024-11-06T03:00:00	6	Velocidad del viento	8
186262	7	Sololá	701	Sololá	2	El tablón	10	Octubre	2023-10-29T00:00:00	2024-11-06T03:00:00	7	Dirección del viento	8.05
186263	7	Sololá	701	Sololá	2	El tablón	10	Octubre	2023-10-29T00:00:00	2024-11-06T03:00:00	1	Precipitación	0
186264	7	Sololá	701	Sololá	2	El tablón	10	Octubre	2023-10-29T00:00:00	2024-11-06T03:00:00	8	Radiación solar	0
186265	7	Sololá	701	Sololá	2	El tablón	10	Octubre	2023-10-29T00:00:00	2024-11-06T04:00:00	2	Temperatura media	12.7
186266	7	Sololá	701	Sololá	2	El tablón	10	Octubre	2023-10-29T00:00:00	2024-11-06T04:00:00	4	Temperatura máxima	12.8
186267	7	Sololá	701	Sololá	2	El tablón	10	Octubre	2023-10-29T00:00:00	2024-11-06T04:00:00	3	Temperatura mínima	12.7
186268	7	Sololá	701	Sololá	2	El tablón	10	Octubre	2023-10-29T00:00:00	2024-11-06T04:00:00	5	Humedad	89
186269	7	Sololá	701	Sololá	2	El tablón	10	Octubre	2023-10-29T00:00:00	2024-11-06T04:00:00	6	Velocidad del viento	6.4
186270	7	Sololá	701	Sololá	2	El tablón	10	Octubre	2023-10-29T00:00:00	2024-11-06T04:00:00	7	Dirección del viento	6.44
186271	7	Sololá	701	Sololá	2	El tablón	10	Octubre	2023-10-29T00:00:00	2024-11-06T04:00:00	1	Precipitación	0
186272	7	Sololá	701	Sololá	2	El tablón	10	Octubre	2023-10-29T00:00:00	2024-11-06T04:00:00	8	Radiación solar	0
186273	7	Sololá	701	Sololá	2	El tablón	10	Octubre	2023-10-29T00:00:00	2024-11-06T05:00:00	2	Temperatura media	12.6
186274	7	Sololá	701	Sololá	2	El tablón	10	Octubre	2023-10-29T00:00:00	2024-11-06T05:00:00	4	Temperatura máxima	12.7
186275	7	Sololá	701	Sololá	2	El tablón	10	Octubre	2023-10-29T00:00:00	2024-11-06T05:00:00	3	Temperatura mínima	12.6
186276	7	Sololá	701	Sololá	2	El tablón	10	Octubre	2023-10-29T00:00:00	2024-11-06T05:00:00	5	Humedad	89
186277	7	Sololá	701	Sololá	2	El tablón	10	Octubre	2023-10-29T00:00:00	2024-11-06T05:00:00	6	Velocidad del viento	9.7
186278	7	Sololá	701	Sololá	2	El tablón	10	Octubre	2023-10-29T00:00:00	2024-11-06T05:00:00	7	Dirección del viento	9.66
186279	7	Sololá	701	Sololá	2	El tablón	10	Octubre	2023-10-29T00:00:00	2024-11-06T05:00:00	1	Precipitación	0
186280	7	Sololá	701	Sololá	2	El tablón	10	Octubre	2023-10-29T00:00:00	2024-11-06T05:00:00	8	Radiación solar	0
186281	7	Sololá	701	Sololá	2	El tablón	10	Octubre	2023-10-29T00:00:00	2024-11-06T06:00:00	2	Temperatura media	12.6
186282	7	Sololá	701	Sololá	2	El tablón	10	Octubre	2023-10-29T00:00:00	2024-11-06T06:00:00	4	Temperatura máxima	12.6
186283	7	Sololá	701	Sololá	2	El tablón	10	Octubre	2023-10-29T00:00:00	2024-11-06T06:00:00	3	Temperatura mínima	12.5
186284	7	Sololá	701	Sololá	2	El tablón	10	Octubre	2023-10-29T00:00:00	2024-11-06T06:00:00	5	Humedad	89
186285	7	Sololá	701	Sololá	2	El tablón	10	Octubre	2023-10-29T00:00:00	2024-11-06T06:00:00	6	Velocidad del viento	11.3
186286	7	Sololá	701	Sololá	2	El tablón	10	Octubre	2023-10-29T00:00:00	2024-11-06T06:00:00	7	Dirección del viento	11.27
186287	7	Sololá	701	Sololá	2	El tablón	10	Octubre	2023-10-29T00:00:00	2024-11-06T06:00:00	1	Precipitación	0
186288	7	Sololá	701	Sololá	2	El tablón	10	Octubre	2023-10-29T00:00:00	2024-11-06T06:00:00	8	Radiación solar	0
186289	7	Sololá	701	Sololá	2	El tablón	10	Octubre	2023-10-29T00:00:00	2024-11-06T07:00:00	2	Temperatura media	13.3
186290	7	Sololá	701	Sololá	2	El tablón	10	Octubre	2023-10-29T00:00:00	2024-11-06T07:00:00	4	Temperatura máxima	13.3
186291	7	Sololá	701	Sololá	2	El tablón	10	Octubre	2023-10-29T00:00:00	2024-11-06T07:00:00	3	Temperatura mínima	12.6
186292	7	Sololá	701	Sololá	2	El tablón	10	Octubre	2023-10-29T00:00:00	2024-11-06T07:00:00	5	Humedad	88
186293	7	Sololá	701	Sololá	2	El tablón	10	Octubre	2023-10-29T00:00:00	2024-11-06T07:00:00	6	Velocidad del viento	14.5
186294	7	Sololá	701	Sololá	2	El tablón	10	Octubre	2023-10-29T00:00:00	2024-11-06T07:00:00	7	Dirección del viento	14.48
186295	7	Sololá	701	Sololá	2	El tablón	10	Octubre	2023-10-29T00:00:00	2024-11-06T07:00:00	1	Precipitación	0
186296	7	Sololá	701	Sololá	2	El tablón	10	Octubre	2023-10-29T00:00:00	2024-11-06T07:00:00	8	Radiación solar	64
186297	7	Sololá	701	Sololá	2	El tablón	10	Octubre	2023-10-29T00:00:00	2024-11-06T08:00:00	2	Temperatura media	14.5
186298	7	Sololá	701	Sololá	2	El tablón	10	Octubre	2023-10-29T00:00:00	2024-11-06T08:00:00	4	Temperatura máxima	14.6
186299	7	Sololá	701	Sololá	2	El tablón	10	Octubre	2023-10-29T00:00:00	2024-11-06T08:00:00	3	Temperatura mínima	13.3
186300	7	Sololá	701	Sololá	2	El tablón	10	Octubre	2023-10-29T00:00:00	2024-11-06T08:00:00	5	Humedad	86
186301	7	Sololá	701	Sololá	2	El tablón	10	Octubre	2023-10-29T00:00:00	2024-11-06T08:00:00	6	Velocidad del viento	12.9
186302	7	Sololá	701	Sololá	2	El tablón	10	Octubre	2023-10-29T00:00:00	2024-11-06T08:00:00	7	Dirección del viento	12.87
186303	7	Sololá	701	Sololá	2	El tablón	10	Octubre	2023-10-29T00:00:00	2024-11-06T08:00:00	1	Precipitación	0
186304	7	Sololá	701	Sololá	2	El tablón	10	Octubre	2023-10-29T00:00:00	2024-11-06T08:00:00	8	Radiación solar	191
186305	7	Sololá	701	Sololá	2	El tablón	10	Octubre	2023-10-29T00:00:00	2024-11-06T09:00:00	2	Temperatura media	15.8
186306	7	Sololá	701	Sololá	2	El tablón	10	Octubre	2023-10-29T00:00:00	2024-11-06T09:00:00	4	Temperatura máxima	16.2
186307	7	Sololá	701	Sololá	2	El tablón	10	Octubre	2023-10-29T00:00:00	2024-11-06T09:00:00	3	Temperatura mínima	14.5
186308	7	Sololá	701	Sololá	2	El tablón	10	Octubre	2023-10-29T00:00:00	2024-11-06T09:00:00	5	Humedad	83
186309	7	Sololá	701	Sololá	2	El tablón	10	Octubre	2023-10-29T00:00:00	2024-11-06T09:00:00	6	Velocidad del viento	11.3
186310	7	Sololá	701	Sololá	2	El tablón	10	Octubre	2023-10-29T00:00:00	2024-11-06T09:00:00	7	Dirección del viento	11.27
186311	7	Sololá	701	Sololá	2	El tablón	10	Octubre	2023-10-29T00:00:00	2024-11-06T09:00:00	1	Precipitación	0
186312	7	Sololá	701	Sololá	2	El tablón	10	Octubre	2023-10-29T00:00:00	2024-11-06T09:00:00	8	Radiación solar	438
186313	7	Sololá	701	Sololá	2	El tablón	10	Octubre	2023-10-29T00:00:00	2024-11-06T10:00:00	2	Temperatura media	16.7
186314	7	Sololá	701	Sololá	2	El tablón	10	Octubre	2023-10-29T00:00:00	2024-11-06T10:00:00	4	Temperatura máxima	17
186315	7	Sololá	701	Sololá	2	El tablón	10	Octubre	2023-10-29T00:00:00	2024-11-06T10:00:00	3	Temperatura mínima	15.6
186316	7	Sololá	701	Sololá	2	El tablón	10	Octubre	2023-10-29T00:00:00	2024-11-06T10:00:00	5	Humedad	80
186317	7	Sololá	701	Sololá	2	El tablón	10	Octubre	2023-10-29T00:00:00	2024-11-06T10:00:00	6	Velocidad del viento	11.3
186318	7	Sololá	701	Sololá	2	El tablón	10	Octubre	2023-10-29T00:00:00	2024-11-06T10:00:00	7	Dirección del viento	11.27
186319	7	Sololá	701	Sololá	2	El tablón	10	Octubre	2023-10-29T00:00:00	2024-11-06T10:00:00	1	Precipitación	0
186320	7	Sololá	701	Sololá	2	El tablón	10	Octubre	2023-10-29T00:00:00	2024-11-06T10:00:00	8	Radiación solar	594
186321	7	Sololá	701	Sololá	2	El tablón	10	Octubre	2023-10-29T00:00:00	2024-11-06T11:00:00	2	Temperatura media	16.8
186322	7	Sololá	701	Sololá	2	El tablón	10	Octubre	2023-10-29T00:00:00	2024-11-06T11:00:00	4	Temperatura máxima	17.1
186323	7	Sololá	701	Sololá	2	El tablón	10	Octubre	2023-10-29T00:00:00	2024-11-06T11:00:00	3	Temperatura mínima	16.4
186324	7	Sololá	701	Sololá	2	El tablón	10	Octubre	2023-10-29T00:00:00	2024-11-06T11:00:00	5	Humedad	80
186325	7	Sololá	701	Sololá	2	El tablón	10	Octubre	2023-10-29T00:00:00	2024-11-06T11:00:00	6	Velocidad del viento	9.7
186326	7	Sololá	701	Sololá	2	El tablón	10	Octubre	2023-10-29T00:00:00	2024-11-06T11:00:00	7	Dirección del viento	9.66
186327	7	Sololá	701	Sololá	2	El tablón	10	Octubre	2023-10-29T00:00:00	2024-11-06T11:00:00	1	Precipitación	0
186328	7	Sololá	701	Sololá	2	El tablón	10	Octubre	2023-10-29T00:00:00	2024-11-06T11:00:00	8	Radiación solar	444
186329	7	Sololá	701	Sololá	2	El tablón	10	Octubre	2023-10-29T00:00:00	2024-11-06T12:00:00	2	Temperatura media	16.9
186330	7	Sololá	701	Sololá	2	El tablón	10	Octubre	2023-10-29T00:00:00	2024-11-06T12:00:00	4	Temperatura máxima	17.6
186331	7	Sololá	701	Sololá	2	El tablón	10	Octubre	2023-10-29T00:00:00	2024-11-06T12:00:00	3	Temperatura mínima	16.5
186332	7	Sololá	701	Sololá	2	El tablón	10	Octubre	2023-10-29T00:00:00	2024-11-06T12:00:00	5	Humedad	79
186333	7	Sololá	701	Sololá	2	El tablón	10	Octubre	2023-10-29T00:00:00	2024-11-06T12:00:00	6	Velocidad del viento	8
186334	7	Sololá	701	Sololá	2	El tablón	10	Octubre	2023-10-29T00:00:00	2024-11-06T12:00:00	7	Dirección del viento	8.05
186335	7	Sololá	701	Sololá	2	El tablón	10	Octubre	2023-10-29T00:00:00	2024-11-06T12:00:00	1	Precipitación	0
186336	7	Sololá	701	Sololá	2	El tablón	10	Octubre	2023-10-29T00:00:00	2024-11-06T12:00:00	8	Radiación solar	467
186337	7	Sololá	701	Sololá	2	El tablón	10	Octubre	2023-10-29T00:00:00	2024-11-06T13:00:00	2	Temperatura media	17.9
186338	7	Sololá	701	Sololá	2	El tablón	10	Octubre	2023-10-29T00:00:00	2024-11-06T13:00:00	4	Temperatura máxima	18.3
186339	7	Sololá	701	Sololá	2	El tablón	10	Octubre	2023-10-29T00:00:00	2024-11-06T13:00:00	3	Temperatura mínima	16.9
186340	7	Sololá	701	Sololá	2	El tablón	10	Octubre	2023-10-29T00:00:00	2024-11-06T13:00:00	5	Humedad	77
186341	7	Sololá	701	Sololá	2	El tablón	10	Octubre	2023-10-29T00:00:00	2024-11-06T13:00:00	6	Velocidad del viento	8
186342	7	Sololá	701	Sololá	2	El tablón	10	Octubre	2023-10-29T00:00:00	2024-11-06T13:00:00	7	Dirección del viento	8.05
186343	7	Sololá	701	Sololá	2	El tablón	10	Octubre	2023-10-29T00:00:00	2024-11-06T13:00:00	1	Precipitación	0
186344	7	Sololá	701	Sololá	2	El tablón	10	Octubre	2023-10-29T00:00:00	2024-11-06T13:00:00	8	Radiación solar	521
186345	7	Sololá	701	Sololá	2	El tablón	10	Octubre	2023-10-29T00:00:00	2024-11-06T14:00:00	2	Temperatura media	16.1
186346	7	Sololá	701	Sololá	2	El tablón	10	Octubre	2023-10-29T00:00:00	2024-11-06T14:00:00	4	Temperatura máxima	17.9
186347	7	Sololá	701	Sololá	2	El tablón	10	Octubre	2023-10-29T00:00:00	2024-11-06T14:00:00	3	Temperatura mínima	16.1
186348	7	Sololá	701	Sololá	2	El tablón	10	Octubre	2023-10-29T00:00:00	2024-11-06T14:00:00	5	Humedad	85
186349	7	Sololá	701	Sololá	2	El tablón	10	Octubre	2023-10-29T00:00:00	2024-11-06T14:00:00	6	Velocidad del viento	9.7
186350	7	Sololá	701	Sololá	2	El tablón	10	Octubre	2023-10-29T00:00:00	2024-11-06T14:00:00	7	Dirección del viento	9.66
186351	7	Sololá	701	Sololá	2	El tablón	10	Octubre	2023-10-29T00:00:00	2024-11-06T14:00:00	1	Precipitación	0
186352	7	Sololá	701	Sololá	2	El tablón	10	Octubre	2023-10-29T00:00:00	2024-11-06T14:00:00	8	Radiación solar	434
186353	7	Sololá	701	Sololá	2	El tablón	10	Octubre	2023-10-29T00:00:00	2024-11-06T15:00:00	2	Temperatura media	15.3
186354	7	Sololá	701	Sololá	2	El tablón	10	Octubre	2023-10-29T00:00:00	2024-11-06T15:00:00	4	Temperatura máxima	16.2
186355	7	Sololá	701	Sololá	2	El tablón	10	Octubre	2023-10-29T00:00:00	2024-11-06T15:00:00	3	Temperatura mínima	15.3
186356	7	Sololá	701	Sololá	2	El tablón	10	Octubre	2023-10-29T00:00:00	2024-11-06T15:00:00	5	Humedad	87
186357	7	Sololá	701	Sololá	2	El tablón	10	Octubre	2023-10-29T00:00:00	2024-11-06T15:00:00	6	Velocidad del viento	9.7
186358	7	Sololá	701	Sololá	2	El tablón	10	Octubre	2023-10-29T00:00:00	2024-11-06T15:00:00	7	Dirección del viento	9.66
186359	7	Sololá	701	Sololá	2	El tablón	10	Octubre	2023-10-29T00:00:00	2024-11-06T15:00:00	1	Precipitación	0
186360	7	Sololá	701	Sololá	2	El tablón	10	Octubre	2023-10-29T00:00:00	2024-11-06T15:00:00	8	Radiación solar	282
186361	7	Sololá	701	Sololá	2	El tablón	10	Octubre	2023-10-29T00:00:00	2024-11-06T16:00:00	2	Temperatura media	14.4
186362	7	Sololá	701	Sololá	2	El tablón	10	Octubre	2023-10-29T00:00:00	2024-11-06T16:00:00	4	Temperatura máxima	15.3
186363	7	Sololá	701	Sololá	2	El tablón	10	Octubre	2023-10-29T00:00:00	2024-11-06T16:00:00	3	Temperatura mínima	14.4
186364	7	Sololá	701	Sololá	2	El tablón	10	Octubre	2023-10-29T00:00:00	2024-11-06T16:00:00	5	Humedad	87
186365	7	Sololá	701	Sololá	2	El tablón	10	Octubre	2023-10-29T00:00:00	2024-11-06T16:00:00	6	Velocidad del viento	11.3
186366	7	Sololá	701	Sololá	2	El tablón	10	Octubre	2023-10-29T00:00:00	2024-11-06T16:00:00	7	Dirección del viento	11.27
186367	7	Sololá	701	Sololá	2	El tablón	10	Octubre	2023-10-29T00:00:00	2024-11-06T16:00:00	1	Precipitación	0.2
186368	7	Sololá	701	Sololá	2	El tablón	10	Octubre	2023-10-29T00:00:00	2024-11-06T16:00:00	8	Radiación solar	158
186369	7	Sololá	701	Sololá	2	El tablón	10	Octubre	2023-10-29T00:00:00	2024-11-06T17:00:00	2	Temperatura media	13.8
186370	7	Sololá	701	Sololá	2	El tablón	10	Octubre	2023-10-29T00:00:00	2024-11-06T17:00:00	4	Temperatura máxima	14.4
186371	7	Sololá	701	Sololá	2	El tablón	10	Octubre	2023-10-29T00:00:00	2024-11-06T17:00:00	3	Temperatura mínima	13.8
186372	7	Sololá	701	Sololá	2	El tablón	10	Octubre	2023-10-29T00:00:00	2024-11-06T17:00:00	5	Humedad	88
186373	7	Sololá	701	Sololá	2	El tablón	10	Octubre	2023-10-29T00:00:00	2024-11-06T17:00:00	6	Velocidad del viento	11.3
186374	7	Sololá	701	Sololá	2	El tablón	10	Octubre	2023-10-29T00:00:00	2024-11-06T17:00:00	7	Dirección del viento	11.27
186375	7	Sololá	701	Sololá	2	El tablón	10	Octubre	2023-10-29T00:00:00	2024-11-06T17:00:00	1	Precipitación	0
186376	7	Sololá	701	Sololá	2	El tablón	10	Octubre	2023-10-29T00:00:00	2024-11-06T17:00:00	8	Radiación solar	57
186377	7	Sololá	701	Sololá	2	El tablón	10	Octubre	2023-10-29T00:00:00	2024-11-06T18:00:00	2	Temperatura media	13.7
186378	7	Sololá	701	Sololá	2	El tablón	10	Octubre	2023-10-29T00:00:00	2024-11-06T18:00:00	4	Temperatura máxima	13.9
186379	7	Sololá	701	Sololá	2	El tablón	10	Octubre	2023-10-29T00:00:00	2024-11-06T18:00:00	3	Temperatura mínima	13.7
186380	7	Sololá	701	Sololá	2	El tablón	10	Octubre	2023-10-29T00:00:00	2024-11-06T18:00:00	5	Humedad	88
186381	7	Sololá	701	Sololá	2	El tablón	10	Octubre	2023-10-29T00:00:00	2024-11-06T18:00:00	6	Velocidad del viento	12.9
186382	7	Sololá	701	Sololá	2	El tablón	10	Octubre	2023-10-29T00:00:00	2024-11-06T18:00:00	7	Dirección del viento	12.87
186383	7	Sololá	701	Sololá	2	El tablón	10	Octubre	2023-10-29T00:00:00	2024-11-06T18:00:00	1	Precipitación	0
186384	7	Sololá	701	Sololá	2	El tablón	10	Octubre	2023-10-29T00:00:00	2024-11-06T18:00:00	8	Radiación solar	3
186385	7	Sololá	701	Sololá	2	El tablón	10	Octubre	2023-10-29T00:00:00	2024-11-06T19:00:00	2	Temperatura media	13.6
186386	7	Sololá	701	Sololá	2	El tablón	10	Octubre	2023-10-29T00:00:00	2024-11-06T19:00:00	4	Temperatura máxima	13.7
186387	7	Sololá	701	Sololá	2	El tablón	10	Octubre	2023-10-29T00:00:00	2024-11-06T19:00:00	3	Temperatura mínima	13.6
186388	7	Sololá	701	Sololá	2	El tablón	10	Octubre	2023-10-29T00:00:00	2024-11-06T19:00:00	5	Humedad	88
186389	7	Sololá	701	Sololá	2	El tablón	10	Octubre	2023-10-29T00:00:00	2024-11-06T19:00:00	6	Velocidad del viento	8
186390	7	Sololá	701	Sololá	2	El tablón	10	Octubre	2023-10-29T00:00:00	2024-11-06T19:00:00	7	Dirección del viento	8.05
186391	7	Sololá	701	Sololá	2	El tablón	10	Octubre	2023-10-29T00:00:00	2024-11-06T19:00:00	1	Precipitación	0
186392	7	Sololá	701	Sololá	2	El tablón	10	Octubre	2023-10-29T00:00:00	2024-11-06T19:00:00	8	Radiación solar	0
186393	7	Sololá	701	Sololá	2	El tablón	10	Octubre	2023-10-29T00:00:00	2024-11-06T20:00:00	2	Temperatura media	13.4
186394	7	Sololá	701	Sololá	2	El tablón	10	Octubre	2023-10-29T00:00:00	2024-11-06T20:00:00	4	Temperatura máxima	13.7
186395	7	Sololá	701	Sololá	2	El tablón	10	Octubre	2023-10-29T00:00:00	2024-11-06T20:00:00	3	Temperatura mínima	13.4
186396	7	Sololá	701	Sololá	2	El tablón	10	Octubre	2023-10-29T00:00:00	2024-11-06T20:00:00	5	Humedad	89
186397	7	Sololá	701	Sololá	2	El tablón	10	Octubre	2023-10-29T00:00:00	2024-11-06T20:00:00	6	Velocidad del viento	6.4
186398	7	Sololá	701	Sololá	2	El tablón	10	Octubre	2023-10-29T00:00:00	2024-11-06T20:00:00	7	Dirección del viento	6.44
186399	7	Sololá	701	Sololá	2	El tablón	10	Octubre	2023-10-29T00:00:00	2024-11-06T20:00:00	1	Precipitación	0
186400	7	Sololá	701	Sololá	2	El tablón	10	Octubre	2023-10-29T00:00:00	2024-11-06T20:00:00	8	Radiación solar	0
186401	7	Sololá	701	Sololá	2	El tablón	10	Octubre	2023-10-29T00:00:00	2024-11-06T21:00:00	2	Temperatura media	13.3
186402	7	Sololá	701	Sololá	2	El tablón	10	Octubre	2023-10-29T00:00:00	2024-11-06T21:00:00	4	Temperatura máxima	13.6
186403	7	Sololá	701	Sololá	2	El tablón	10	Octubre	2023-10-29T00:00:00	2024-11-06T21:00:00	3	Temperatura mínima	13.3
186404	7	Sololá	701	Sololá	2	El tablón	10	Octubre	2023-10-29T00:00:00	2024-11-06T21:00:00	5	Humedad	89
186405	7	Sololá	701	Sololá	2	El tablón	10	Octubre	2023-10-29T00:00:00	2024-11-06T21:00:00	6	Velocidad del viento	6.4
186406	7	Sololá	701	Sololá	2	El tablón	10	Octubre	2023-10-29T00:00:00	2024-11-06T21:00:00	7	Dirección del viento	6.44
186407	7	Sololá	701	Sololá	2	El tablón	10	Octubre	2023-10-29T00:00:00	2024-11-06T21:00:00	1	Precipitación	0
186408	7	Sololá	701	Sololá	2	El tablón	10	Octubre	2023-10-29T00:00:00	2024-11-06T21:00:00	8	Radiación solar	0
186409	7	Sololá	701	Sololá	2	El tablón	10	Octubre	2023-10-29T00:00:00	2024-11-06T22:00:00	2	Temperatura media	13.3
186410	7	Sololá	701	Sololá	2	El tablón	10	Octubre	2023-10-29T00:00:00	2024-11-06T22:00:00	4	Temperatura máxima	13.4
186411	7	Sololá	701	Sololá	2	El tablón	10	Octubre	2023-10-29T00:00:00	2024-11-06T22:00:00	3	Temperatura mínima	13.3
186412	7	Sololá	701	Sololá	2	El tablón	10	Octubre	2023-10-29T00:00:00	2024-11-06T22:00:00	5	Humedad	89
186413	7	Sololá	701	Sololá	2	El tablón	10	Octubre	2023-10-29T00:00:00	2024-11-06T22:00:00	6	Velocidad del viento	9.7
186414	7	Sololá	701	Sololá	2	El tablón	10	Octubre	2023-10-29T00:00:00	2024-11-06T22:00:00	7	Dirección del viento	9.66
186415	7	Sololá	701	Sololá	2	El tablón	10	Octubre	2023-10-29T00:00:00	2024-11-06T22:00:00	1	Precipitación	0
186416	7	Sololá	701	Sololá	2	El tablón	10	Octubre	2023-10-29T00:00:00	2024-11-06T22:00:00	8	Radiación solar	0
186417	7	Sololá	701	Sololá	2	El tablón	10	Octubre	2023-10-29T00:00:00	2024-11-06T23:00:00	2	Temperatura media	13.6
186418	7	Sololá	701	Sololá	2	El tablón	10	Octubre	2023-10-29T00:00:00	2024-11-06T23:00:00	4	Temperatura máxima	13.7
186419	7	Sololá	701	Sololá	2	El tablón	10	Octubre	2023-10-29T00:00:00	2024-11-06T23:00:00	3	Temperatura mínima	13.3
186420	7	Sololá	701	Sololá	2	El tablón	10	Octubre	2023-10-29T00:00:00	2024-11-06T23:00:00	5	Humedad	88
186421	7	Sololá	701	Sololá	2	El tablón	10	Octubre	2023-10-29T00:00:00	2024-11-06T23:00:00	6	Velocidad del viento	6.4
186422	7	Sololá	701	Sololá	2	El tablón	10	Octubre	2023-10-29T00:00:00	2024-11-06T23:00:00	7	Dirección del viento	6.44
186423	7	Sololá	701	Sololá	2	El tablón	10	Octubre	2023-10-29T00:00:00	2024-11-06T23:00:00	1	Precipitación	0
186424	7	Sololá	701	Sololá	2	El tablón	10	Octubre	2023-10-29T00:00:00	2024-11-06T23:00:00	8	Radiación solar	0
186425	7	Sololá	701	Sololá	2	El tablón	10	Octubre	2023-10-30T00:00:00	2024-11-06T00:00:00	2	Temperatura media	13.3
186426	7	Sololá	701	Sololá	2	El tablón	10	Octubre	2023-10-30T00:00:00	2024-11-06T00:00:00	4	Temperatura máxima	13.6
186427	7	Sololá	701	Sololá	2	El tablón	10	Octubre	2023-10-30T00:00:00	2024-11-06T00:00:00	3	Temperatura mínima	13.3
186428	7	Sololá	701	Sololá	2	El tablón	10	Octubre	2023-10-30T00:00:00	2024-11-06T00:00:00	5	Humedad	89
186429	7	Sololá	701	Sololá	2	El tablón	10	Octubre	2023-10-30T00:00:00	2024-11-06T00:00:00	6	Velocidad del viento	11.3
186430	7	Sololá	701	Sololá	2	El tablón	10	Octubre	2023-10-30T00:00:00	2024-11-06T00:00:00	7	Dirección del viento	11.27
186431	7	Sololá	701	Sololá	2	El tablón	10	Octubre	2023-10-30T00:00:00	2024-11-06T00:00:00	1	Precipitación	0
186432	7	Sololá	701	Sololá	2	El tablón	10	Octubre	2023-10-30T00:00:00	2024-11-06T00:00:00	8	Radiación solar	0
186433	7	Sololá	701	Sololá	2	El tablón	10	Octubre	2023-10-30T00:00:00	2024-11-06T01:00:00	2	Temperatura media	13.5
186434	7	Sololá	701	Sololá	2	El tablón	10	Octubre	2023-10-30T00:00:00	2024-11-06T01:00:00	4	Temperatura máxima	13.5
186435	7	Sololá	701	Sololá	2	El tablón	10	Octubre	2023-10-30T00:00:00	2024-11-06T01:00:00	3	Temperatura mínima	13.3
186436	7	Sololá	701	Sololá	2	El tablón	10	Octubre	2023-10-30T00:00:00	2024-11-06T01:00:00	5	Humedad	88
186437	7	Sololá	701	Sololá	2	El tablón	10	Octubre	2023-10-30T00:00:00	2024-11-06T01:00:00	6	Velocidad del viento	6.4
186438	7	Sololá	701	Sololá	2	El tablón	10	Octubre	2023-10-30T00:00:00	2024-11-06T01:00:00	7	Dirección del viento	6.44
186439	7	Sololá	701	Sololá	2	El tablón	10	Octubre	2023-10-30T00:00:00	2024-11-06T01:00:00	1	Precipitación	0
186440	7	Sololá	701	Sololá	2	El tablón	10	Octubre	2023-10-30T00:00:00	2024-11-06T01:00:00	8	Radiación solar	0
186441	7	Sololá	701	Sololá	2	El tablón	10	Octubre	2023-10-30T00:00:00	2024-11-06T02:00:00	2	Temperatura media	12.9
186442	7	Sololá	701	Sololá	2	El tablón	10	Octubre	2023-10-30T00:00:00	2024-11-06T02:00:00	4	Temperatura máxima	13.5
186443	7	Sololá	701	Sololá	2	El tablón	10	Octubre	2023-10-30T00:00:00	2024-11-06T02:00:00	3	Temperatura mínima	12.9
186444	7	Sololá	701	Sololá	2	El tablón	10	Octubre	2023-10-30T00:00:00	2024-11-06T02:00:00	5	Humedad	89
186445	7	Sololá	701	Sololá	2	El tablón	10	Octubre	2023-10-30T00:00:00	2024-11-06T02:00:00	6	Velocidad del viento	9.7
186446	7	Sololá	701	Sololá	2	El tablón	10	Octubre	2023-10-30T00:00:00	2024-11-06T02:00:00	7	Dirección del viento	9.66
186447	7	Sololá	701	Sololá	2	El tablón	10	Octubre	2023-10-30T00:00:00	2024-11-06T02:00:00	1	Precipitación	0.2
186448	7	Sololá	701	Sololá	2	El tablón	10	Octubre	2023-10-30T00:00:00	2024-11-06T02:00:00	8	Radiación solar	0
186449	7	Sololá	701	Sololá	2	El tablón	10	Octubre	2023-10-30T00:00:00	2024-11-06T03:00:00	2	Temperatura media	13
186450	7	Sololá	701	Sololá	2	El tablón	10	Octubre	2023-10-30T00:00:00	2024-11-06T03:00:00	4	Temperatura máxima	13
186451	7	Sololá	701	Sololá	2	El tablón	10	Octubre	2023-10-30T00:00:00	2024-11-06T03:00:00	3	Temperatura mínima	12.7
186452	7	Sololá	701	Sololá	2	El tablón	10	Octubre	2023-10-30T00:00:00	2024-11-06T03:00:00	5	Humedad	89
186453	7	Sololá	701	Sololá	2	El tablón	10	Octubre	2023-10-30T00:00:00	2024-11-06T03:00:00	6	Velocidad del viento	8
186454	7	Sololá	701	Sololá	2	El tablón	10	Octubre	2023-10-30T00:00:00	2024-11-06T03:00:00	7	Dirección del viento	8.05
186455	7	Sololá	701	Sololá	2	El tablón	10	Octubre	2023-10-30T00:00:00	2024-11-06T03:00:00	1	Precipitación	0
186456	7	Sololá	701	Sololá	2	El tablón	10	Octubre	2023-10-30T00:00:00	2024-11-06T03:00:00	8	Radiación solar	0
186457	7	Sololá	701	Sololá	2	El tablón	10	Octubre	2023-10-30T00:00:00	2024-11-06T04:00:00	2	Temperatura media	12.8
186458	7	Sololá	701	Sololá	2	El tablón	10	Octubre	2023-10-30T00:00:00	2024-11-06T04:00:00	4	Temperatura máxima	13.1
186459	7	Sololá	701	Sololá	2	El tablón	10	Octubre	2023-10-30T00:00:00	2024-11-06T04:00:00	3	Temperatura mínima	12.8
186460	7	Sololá	701	Sololá	2	El tablón	10	Octubre	2023-10-30T00:00:00	2024-11-06T04:00:00	5	Humedad	89
186461	7	Sololá	701	Sololá	2	El tablón	10	Octubre	2023-10-30T00:00:00	2024-11-06T04:00:00	6	Velocidad del viento	9.7
186462	7	Sololá	701	Sololá	2	El tablón	10	Octubre	2023-10-30T00:00:00	2024-11-06T04:00:00	7	Dirección del viento	9.66
186463	7	Sololá	701	Sololá	2	El tablón	10	Octubre	2023-10-30T00:00:00	2024-11-06T04:00:00	1	Precipitación	0
186464	7	Sololá	701	Sololá	2	El tablón	10	Octubre	2023-10-30T00:00:00	2024-11-06T04:00:00	8	Radiación solar	0
186465	7	Sololá	701	Sololá	2	El tablón	10	Octubre	2023-10-30T00:00:00	2024-11-06T05:00:00	2	Temperatura media	12.7
186466	7	Sololá	701	Sololá	2	El tablón	10	Octubre	2023-10-30T00:00:00	2024-11-06T05:00:00	4	Temperatura máxima	12.9
186467	7	Sololá	701	Sololá	2	El tablón	10	Octubre	2023-10-30T00:00:00	2024-11-06T05:00:00	3	Temperatura mínima	12.7
186468	7	Sololá	701	Sololá	2	El tablón	10	Octubre	2023-10-30T00:00:00	2024-11-06T05:00:00	5	Humedad	89
186469	7	Sololá	701	Sololá	2	El tablón	10	Octubre	2023-10-30T00:00:00	2024-11-06T05:00:00	6	Velocidad del viento	9.7
186470	7	Sololá	701	Sololá	2	El tablón	10	Octubre	2023-10-30T00:00:00	2024-11-06T05:00:00	7	Dirección del viento	9.66
186471	7	Sololá	701	Sololá	2	El tablón	10	Octubre	2023-10-30T00:00:00	2024-11-06T05:00:00	1	Precipitación	0
186472	7	Sololá	701	Sololá	2	El tablón	10	Octubre	2023-10-30T00:00:00	2024-11-06T05:00:00	8	Radiación solar	0
186473	7	Sololá	701	Sololá	2	El tablón	10	Octubre	2023-10-30T00:00:00	2024-11-06T06:00:00	2	Temperatura media	12.6
186474	7	Sololá	701	Sololá	2	El tablón	10	Octubre	2023-10-30T00:00:00	2024-11-06T06:00:00	4	Temperatura máxima	12.8
186475	7	Sololá	701	Sololá	2	El tablón	10	Octubre	2023-10-30T00:00:00	2024-11-06T06:00:00	3	Temperatura mínima	12.6
186476	7	Sololá	701	Sololá	2	El tablón	10	Octubre	2023-10-30T00:00:00	2024-11-06T06:00:00	5	Humedad	89
186477	7	Sololá	701	Sololá	2	El tablón	10	Octubre	2023-10-30T00:00:00	2024-11-06T06:00:00	6	Velocidad del viento	9.7
186478	7	Sololá	701	Sololá	2	El tablón	10	Octubre	2023-10-30T00:00:00	2024-11-06T06:00:00	7	Dirección del viento	9.66
186479	7	Sololá	701	Sololá	2	El tablón	10	Octubre	2023-10-30T00:00:00	2024-11-06T06:00:00	1	Precipitación	0
186480	7	Sololá	701	Sololá	2	El tablón	10	Octubre	2023-10-30T00:00:00	2024-11-06T06:00:00	8	Radiación solar	0
186481	7	Sololá	701	Sololá	2	El tablón	10	Octubre	2023-10-30T00:00:00	2024-11-06T07:00:00	2	Temperatura media	12.9
186482	7	Sololá	701	Sololá	2	El tablón	10	Octubre	2023-10-30T00:00:00	2024-11-06T07:00:00	4	Temperatura máxima	12.9
186483	7	Sololá	701	Sololá	2	El tablón	10	Octubre	2023-10-30T00:00:00	2024-11-06T07:00:00	3	Temperatura mínima	12.6
186484	7	Sololá	701	Sololá	2	El tablón	10	Octubre	2023-10-30T00:00:00	2024-11-06T07:00:00	5	Humedad	89
186485	7	Sololá	701	Sololá	2	El tablón	10	Octubre	2023-10-30T00:00:00	2024-11-06T07:00:00	6	Velocidad del viento	9.7
186486	7	Sololá	701	Sololá	2	El tablón	10	Octubre	2023-10-30T00:00:00	2024-11-06T07:00:00	7	Dirección del viento	9.66
186487	7	Sololá	701	Sololá	2	El tablón	10	Octubre	2023-10-30T00:00:00	2024-11-06T07:00:00	1	Precipitación	0
186488	7	Sololá	701	Sololá	2	El tablón	10	Octubre	2023-10-30T00:00:00	2024-11-06T07:00:00	8	Radiación solar	27
186489	7	Sololá	701	Sololá	2	El tablón	10	Octubre	2023-10-30T00:00:00	2024-11-06T08:00:00	2	Temperatura media	14.6
186490	7	Sololá	701	Sololá	2	El tablón	10	Octubre	2023-10-30T00:00:00	2024-11-06T08:00:00	4	Temperatura máxima	14.6
186491	7	Sololá	701	Sololá	2	El tablón	10	Octubre	2023-10-30T00:00:00	2024-11-06T08:00:00	3	Temperatura mínima	12.9
186492	7	Sololá	701	Sololá	2	El tablón	10	Octubre	2023-10-30T00:00:00	2024-11-06T08:00:00	5	Humedad	86
186493	7	Sololá	701	Sololá	2	El tablón	10	Octubre	2023-10-30T00:00:00	2024-11-06T08:00:00	6	Velocidad del viento	9.7
186494	7	Sololá	701	Sololá	2	El tablón	10	Octubre	2023-10-30T00:00:00	2024-11-06T08:00:00	7	Dirección del viento	9.66
186495	7	Sololá	701	Sololá	2	El tablón	10	Octubre	2023-10-30T00:00:00	2024-11-06T08:00:00	1	Precipitación	0
186496	7	Sololá	701	Sololá	2	El tablón	10	Octubre	2023-10-30T00:00:00	2024-11-06T08:00:00	8	Radiación solar	151
186497	7	Sololá	701	Sololá	2	El tablón	10	Octubre	2023-10-30T00:00:00	2024-11-06T09:00:00	2	Temperatura media	15.8
186498	7	Sololá	701	Sololá	2	El tablón	10	Octubre	2023-10-30T00:00:00	2024-11-06T09:00:00	4	Temperatura máxima	15.9
186499	7	Sololá	701	Sololá	2	El tablón	10	Octubre	2023-10-30T00:00:00	2024-11-06T09:00:00	3	Temperatura mínima	14.6
186500	7	Sololá	701	Sololá	2	El tablón	10	Octubre	2023-10-30T00:00:00	2024-11-06T09:00:00	5	Humedad	79
186501	7	Sololá	701	Sololá	2	El tablón	10	Octubre	2023-10-30T00:00:00	2024-11-06T09:00:00	6	Velocidad del viento	12.9
186502	7	Sololá	701	Sololá	2	El tablón	10	Octubre	2023-10-30T00:00:00	2024-11-06T09:00:00	7	Dirección del viento	12.87
186503	7	Sololá	701	Sololá	2	El tablón	10	Octubre	2023-10-30T00:00:00	2024-11-06T09:00:00	1	Precipitación	0
186504	7	Sololá	701	Sololá	2	El tablón	10	Octubre	2023-10-30T00:00:00	2024-11-06T09:00:00	8	Radiación solar	545
186505	7	Sololá	701	Sololá	2	El tablón	10	Octubre	2023-10-30T00:00:00	2024-11-06T10:00:00	2	Temperatura media	16.2
186506	7	Sololá	701	Sololá	2	El tablón	10	Octubre	2023-10-30T00:00:00	2024-11-06T10:00:00	4	Temperatura máxima	16.8
186507	7	Sololá	701	Sololá	2	El tablón	10	Octubre	2023-10-30T00:00:00	2024-11-06T10:00:00	3	Temperatura mínima	15.8
186508	7	Sololá	701	Sololá	2	El tablón	10	Octubre	2023-10-30T00:00:00	2024-11-06T10:00:00	5	Humedad	79
186509	7	Sololá	701	Sololá	2	El tablón	10	Octubre	2023-10-30T00:00:00	2024-11-06T10:00:00	6	Velocidad del viento	12.9
186510	7	Sololá	701	Sololá	2	El tablón	10	Octubre	2023-10-30T00:00:00	2024-11-06T10:00:00	7	Dirección del viento	12.87
186511	7	Sololá	701	Sololá	2	El tablón	10	Octubre	2023-10-30T00:00:00	2024-11-06T10:00:00	1	Precipitación	0
186512	7	Sololá	701	Sololá	2	El tablón	10	Octubre	2023-10-30T00:00:00	2024-11-06T10:00:00	8	Radiación solar	559
186513	7	Sololá	701	Sololá	2	El tablón	10	Octubre	2023-10-30T00:00:00	2024-11-06T11:00:00	2	Temperatura media	17.4
186514	7	Sololá	701	Sololá	2	El tablón	10	Octubre	2023-10-30T00:00:00	2024-11-06T11:00:00	4	Temperatura máxima	17.4
186515	7	Sololá	701	Sololá	2	El tablón	10	Octubre	2023-10-30T00:00:00	2024-11-06T11:00:00	3	Temperatura mínima	16.2
186516	7	Sololá	701	Sololá	2	El tablón	10	Octubre	2023-10-30T00:00:00	2024-11-06T11:00:00	5	Humedad	74
186517	7	Sololá	701	Sololá	2	El tablón	10	Octubre	2023-10-30T00:00:00	2024-11-06T11:00:00	6	Velocidad del viento	14.5
186518	7	Sololá	701	Sololá	2	El tablón	10	Octubre	2023-10-30T00:00:00	2024-11-06T11:00:00	7	Dirección del viento	14.48
186519	7	Sololá	701	Sololá	2	El tablón	10	Octubre	2023-10-30T00:00:00	2024-11-06T11:00:00	1	Precipitación	0
186520	7	Sololá	701	Sololá	2	El tablón	10	Octubre	2023-10-30T00:00:00	2024-11-06T11:00:00	8	Radiación solar	801
186521	7	Sololá	701	Sololá	2	El tablón	10	Octubre	2023-10-30T00:00:00	2024-11-06T12:00:00	2	Temperatura media	17.7
186522	7	Sololá	701	Sololá	2	El tablón	10	Octubre	2023-10-30T00:00:00	2024-11-06T12:00:00	4	Temperatura máxima	18.7
186523	7	Sololá	701	Sololá	2	El tablón	10	Octubre	2023-10-30T00:00:00	2024-11-06T12:00:00	3	Temperatura mínima	17.4
186524	7	Sololá	701	Sololá	2	El tablón	10	Octubre	2023-10-30T00:00:00	2024-11-06T12:00:00	5	Humedad	72
186525	7	Sololá	701	Sololá	2	El tablón	10	Octubre	2023-10-30T00:00:00	2024-11-06T12:00:00	6	Velocidad del viento	11.3
186526	7	Sololá	701	Sololá	2	El tablón	10	Octubre	2023-10-30T00:00:00	2024-11-06T12:00:00	7	Dirección del viento	11.27
186527	7	Sololá	701	Sololá	2	El tablón	10	Octubre	2023-10-30T00:00:00	2024-11-06T12:00:00	1	Precipitación	0
186528	7	Sololá	701	Sololá	2	El tablón	10	Octubre	2023-10-30T00:00:00	2024-11-06T12:00:00	8	Radiación solar	708
186529	7	Sololá	701	Sololá	2	El tablón	10	Octubre	2023-10-30T00:00:00	2024-11-06T13:00:00	2	Temperatura media	18.5
186530	7	Sololá	701	Sololá	2	El tablón	10	Octubre	2023-10-30T00:00:00	2024-11-06T13:00:00	4	Temperatura máxima	18.8
186531	7	Sololá	701	Sololá	2	El tablón	10	Octubre	2023-10-30T00:00:00	2024-11-06T13:00:00	3	Temperatura mínima	17.6
186532	7	Sololá	701	Sololá	2	El tablón	10	Octubre	2023-10-30T00:00:00	2024-11-06T13:00:00	5	Humedad	67
186533	7	Sololá	701	Sololá	2	El tablón	10	Octubre	2023-10-30T00:00:00	2024-11-06T13:00:00	6	Velocidad del viento	12.9
186534	7	Sololá	701	Sololá	2	El tablón	10	Octubre	2023-10-30T00:00:00	2024-11-06T13:00:00	7	Dirección del viento	12.87
186535	7	Sololá	701	Sololá	2	El tablón	10	Octubre	2023-10-30T00:00:00	2024-11-06T13:00:00	1	Precipitación	0
186536	7	Sololá	701	Sololá	2	El tablón	10	Octubre	2023-10-30T00:00:00	2024-11-06T13:00:00	8	Radiación solar	894
186537	7	Sololá	701	Sololá	2	El tablón	10	Octubre	2023-10-30T00:00:00	2024-11-06T14:00:00	2	Temperatura media	18.6
186538	7	Sololá	701	Sololá	2	El tablón	10	Octubre	2023-10-30T00:00:00	2024-11-06T14:00:00	4	Temperatura máxima	19.2
186539	7	Sololá	701	Sololá	2	El tablón	10	Octubre	2023-10-30T00:00:00	2024-11-06T14:00:00	3	Temperatura mínima	18.3
186540	7	Sololá	701	Sololá	2	El tablón	10	Octubre	2023-10-30T00:00:00	2024-11-06T14:00:00	5	Humedad	67
186541	7	Sololá	701	Sololá	2	El tablón	10	Octubre	2023-10-30T00:00:00	2024-11-06T14:00:00	6	Velocidad del viento	9.7
186542	7	Sololá	701	Sololá	2	El tablón	10	Octubre	2023-10-30T00:00:00	2024-11-06T14:00:00	7	Dirección del viento	9.66
186543	7	Sololá	701	Sololá	2	El tablón	10	Octubre	2023-10-30T00:00:00	2024-11-06T14:00:00	1	Precipitación	0
186544	7	Sololá	701	Sololá	2	El tablón	10	Octubre	2023-10-30T00:00:00	2024-11-06T14:00:00	8	Radiación solar	603
186545	7	Sololá	701	Sololá	2	El tablón	10	Octubre	2023-10-30T00:00:00	2024-11-06T15:00:00	2	Temperatura media	16.7
186546	7	Sololá	701	Sololá	2	El tablón	10	Octubre	2023-10-30T00:00:00	2024-11-06T15:00:00	4	Temperatura máxima	18.6
186547	7	Sololá	701	Sololá	2	El tablón	10	Octubre	2023-10-30T00:00:00	2024-11-06T15:00:00	3	Temperatura mínima	16.7
186548	7	Sololá	701	Sololá	2	El tablón	10	Octubre	2023-10-30T00:00:00	2024-11-06T15:00:00	5	Humedad	74
186549	7	Sololá	701	Sololá	2	El tablón	10	Octubre	2023-10-30T00:00:00	2024-11-06T15:00:00	6	Velocidad del viento	8
186550	7	Sololá	701	Sololá	2	El tablón	10	Octubre	2023-10-30T00:00:00	2024-11-06T15:00:00	7	Dirección del viento	8.05
186551	7	Sololá	701	Sololá	2	El tablón	10	Octubre	2023-10-30T00:00:00	2024-11-06T15:00:00	1	Precipitación	0
186552	7	Sololá	701	Sololá	2	El tablón	10	Octubre	2023-10-30T00:00:00	2024-11-06T15:00:00	8	Radiación solar	213
186553	7	Sololá	701	Sololá	2	El tablón	10	Octubre	2023-10-30T00:00:00	2024-11-06T16:00:00	2	Temperatura media	15.8
186554	7	Sololá	701	Sololá	2	El tablón	10	Octubre	2023-10-30T00:00:00	2024-11-06T16:00:00	4	Temperatura máxima	16.7
186555	7	Sololá	701	Sololá	2	El tablón	10	Octubre	2023-10-30T00:00:00	2024-11-06T16:00:00	3	Temperatura mínima	15.8
186556	7	Sololá	701	Sololá	2	El tablón	10	Octubre	2023-10-30T00:00:00	2024-11-06T16:00:00	5	Humedad	78
186557	7	Sololá	701	Sololá	2	El tablón	10	Octubre	2023-10-30T00:00:00	2024-11-06T16:00:00	6	Velocidad del viento	9.7
186558	7	Sololá	701	Sololá	2	El tablón	10	Octubre	2023-10-30T00:00:00	2024-11-06T16:00:00	7	Dirección del viento	9.66
186559	7	Sololá	701	Sololá	2	El tablón	10	Octubre	2023-10-30T00:00:00	2024-11-06T16:00:00	1	Precipitación	0
186560	7	Sololá	701	Sololá	2	El tablón	10	Octubre	2023-10-30T00:00:00	2024-11-06T16:00:00	8	Radiación solar	195
186561	7	Sololá	701	Sololá	2	El tablón	10	Octubre	2023-10-30T00:00:00	2024-11-06T17:00:00	2	Temperatura media	14.3
186562	7	Sololá	701	Sololá	2	El tablón	10	Octubre	2023-10-30T00:00:00	2024-11-06T17:00:00	4	Temperatura máxima	15.8
186563	7	Sololá	701	Sololá	2	El tablón	10	Octubre	2023-10-30T00:00:00	2024-11-06T17:00:00	3	Temperatura mínima	14.3
186564	7	Sololá	701	Sololá	2	El tablón	10	Octubre	2023-10-30T00:00:00	2024-11-06T17:00:00	5	Humedad	83
186565	7	Sololá	701	Sololá	2	El tablón	10	Octubre	2023-10-30T00:00:00	2024-11-06T17:00:00	6	Velocidad del viento	9.7
186566	7	Sololá	701	Sololá	2	El tablón	10	Octubre	2023-10-30T00:00:00	2024-11-06T17:00:00	7	Dirección del viento	9.66
186567	7	Sololá	701	Sololá	2	El tablón	10	Octubre	2023-10-30T00:00:00	2024-11-06T17:00:00	1	Precipitación	0
186568	7	Sololá	701	Sololá	2	El tablón	10	Octubre	2023-10-30T00:00:00	2024-11-06T17:00:00	8	Radiación solar	56
186569	7	Sololá	701	Sololá	2	El tablón	10	Octubre	2023-10-30T00:00:00	2024-11-06T18:00:00	2	Temperatura media	13.3
186570	7	Sololá	701	Sololá	2	El tablón	10	Octubre	2023-10-30T00:00:00	2024-11-06T18:00:00	4	Temperatura máxima	14.3
186571	7	Sololá	701	Sololá	2	El tablón	10	Octubre	2023-10-30T00:00:00	2024-11-06T18:00:00	3	Temperatura mínima	13.3
186572	7	Sololá	701	Sololá	2	El tablón	10	Octubre	2023-10-30T00:00:00	2024-11-06T18:00:00	5	Humedad	85
186573	7	Sololá	701	Sololá	2	El tablón	10	Octubre	2023-10-30T00:00:00	2024-11-06T18:00:00	6	Velocidad del viento	9.7
186574	7	Sololá	701	Sololá	2	El tablón	10	Octubre	2023-10-30T00:00:00	2024-11-06T18:00:00	7	Dirección del viento	9.66
186575	7	Sololá	701	Sololá	2	El tablón	10	Octubre	2023-10-30T00:00:00	2024-11-06T18:00:00	1	Precipitación	0
186576	7	Sololá	701	Sololá	2	El tablón	10	Octubre	2023-10-30T00:00:00	2024-11-06T18:00:00	8	Radiación solar	6
186577	7	Sololá	701	Sololá	2	El tablón	10	Octubre	2023-10-30T00:00:00	2024-11-06T19:00:00	2	Temperatura media	13
186578	7	Sololá	701	Sololá	2	El tablón	10	Octubre	2023-10-30T00:00:00	2024-11-06T19:00:00	4	Temperatura máxima	13.3
186579	7	Sololá	701	Sololá	2	El tablón	10	Octubre	2023-10-30T00:00:00	2024-11-06T19:00:00	3	Temperatura mínima	12.8
186580	7	Sololá	701	Sololá	2	El tablón	10	Octubre	2023-10-30T00:00:00	2024-11-06T19:00:00	5	Humedad	82
186581	7	Sololá	701	Sololá	2	El tablón	10	Octubre	2023-10-30T00:00:00	2024-11-06T19:00:00	6	Velocidad del viento	9.7
186582	7	Sololá	701	Sololá	2	El tablón	10	Octubre	2023-10-30T00:00:00	2024-11-06T19:00:00	7	Dirección del viento	9.66
186583	7	Sololá	701	Sololá	2	El tablón	10	Octubre	2023-10-30T00:00:00	2024-11-06T19:00:00	1	Precipitación	0
186584	7	Sololá	701	Sololá	2	El tablón	10	Octubre	2023-10-30T00:00:00	2024-11-06T19:00:00	8	Radiación solar	0
186585	7	Sololá	701	Sololá	2	El tablón	10	Octubre	2023-10-30T00:00:00	2024-11-06T20:00:00	2	Temperatura media	12.7
186586	7	Sololá	701	Sololá	2	El tablón	10	Octubre	2023-10-30T00:00:00	2024-11-06T20:00:00	4	Temperatura máxima	13.1
186587	7	Sololá	701	Sololá	2	El tablón	10	Octubre	2023-10-30T00:00:00	2024-11-06T20:00:00	3	Temperatura mínima	12.7
186588	7	Sololá	701	Sololá	2	El tablón	10	Octubre	2023-10-30T00:00:00	2024-11-06T20:00:00	5	Humedad	86
186589	7	Sololá	701	Sololá	2	El tablón	10	Octubre	2023-10-30T00:00:00	2024-11-06T20:00:00	6	Velocidad del viento	12.9
186590	7	Sololá	701	Sololá	2	El tablón	10	Octubre	2023-10-30T00:00:00	2024-11-06T20:00:00	7	Dirección del viento	12.87
186591	7	Sololá	701	Sololá	2	El tablón	10	Octubre	2023-10-30T00:00:00	2024-11-06T20:00:00	1	Precipitación	0
186592	7	Sololá	701	Sololá	2	El tablón	10	Octubre	2023-10-30T00:00:00	2024-11-06T20:00:00	8	Radiación solar	0
186593	7	Sololá	701	Sololá	2	El tablón	10	Octubre	2023-10-30T00:00:00	2024-11-06T21:00:00	2	Temperatura media	12.7
186594	7	Sololá	701	Sololá	2	El tablón	10	Octubre	2023-10-30T00:00:00	2024-11-06T21:00:00	4	Temperatura máxima	12.8
186595	7	Sololá	701	Sololá	2	El tablón	10	Octubre	2023-10-30T00:00:00	2024-11-06T21:00:00	3	Temperatura mínima	12.5
186596	7	Sololá	701	Sololá	2	El tablón	10	Octubre	2023-10-30T00:00:00	2024-11-06T21:00:00	5	Humedad	87
186597	7	Sololá	701	Sololá	2	El tablón	10	Octubre	2023-10-30T00:00:00	2024-11-06T21:00:00	6	Velocidad del viento	14.5
186598	7	Sololá	701	Sololá	2	El tablón	10	Octubre	2023-10-30T00:00:00	2024-11-06T21:00:00	7	Dirección del viento	14.48
186599	7	Sololá	701	Sololá	2	El tablón	10	Octubre	2023-10-30T00:00:00	2024-11-06T21:00:00	1	Precipitación	0
186600	7	Sololá	701	Sololá	2	El tablón	10	Octubre	2023-10-30T00:00:00	2024-11-06T21:00:00	8	Radiación solar	0
186601	7	Sololá	701	Sololá	2	El tablón	10	Octubre	2023-10-30T00:00:00	2024-11-06T22:00:00	2	Temperatura media	12.5
186602	7	Sololá	701	Sololá	2	El tablón	10	Octubre	2023-10-30T00:00:00	2024-11-06T22:00:00	4	Temperatura máxima	12.7
186603	7	Sololá	701	Sololá	2	El tablón	10	Octubre	2023-10-30T00:00:00	2024-11-06T22:00:00	3	Temperatura mínima	12.3
186604	7	Sololá	701	Sololá	2	El tablón	10	Octubre	2023-10-30T00:00:00	2024-11-06T22:00:00	5	Humedad	87
186605	7	Sololá	701	Sololá	2	El tablón	10	Octubre	2023-10-30T00:00:00	2024-11-06T22:00:00	6	Velocidad del viento	11.3
186606	7	Sololá	701	Sololá	2	El tablón	10	Octubre	2023-10-30T00:00:00	2024-11-06T22:00:00	7	Dirección del viento	11.27
186607	7	Sololá	701	Sololá	2	El tablón	10	Octubre	2023-10-30T00:00:00	2024-11-06T22:00:00	1	Precipitación	0
186608	7	Sololá	701	Sololá	2	El tablón	10	Octubre	2023-10-30T00:00:00	2024-11-06T22:00:00	8	Radiación solar	0
186609	7	Sololá	701	Sololá	2	El tablón	10	Octubre	2023-10-30T00:00:00	2024-11-06T23:00:00	2	Temperatura media	12.3
186610	7	Sololá	701	Sololá	2	El tablón	10	Octubre	2023-10-30T00:00:00	2024-11-06T23:00:00	4	Temperatura máxima	12.6
186611	7	Sololá	701	Sololá	2	El tablón	10	Octubre	2023-10-30T00:00:00	2024-11-06T23:00:00	3	Temperatura mínima	12.3
186612	7	Sololá	701	Sololá	2	El tablón	10	Octubre	2023-10-30T00:00:00	2024-11-06T23:00:00	5	Humedad	86
186613	7	Sololá	701	Sololá	2	El tablón	10	Octubre	2023-10-30T00:00:00	2024-11-06T23:00:00	6	Velocidad del viento	8
186614	7	Sololá	701	Sololá	2	El tablón	10	Octubre	2023-10-30T00:00:00	2024-11-06T23:00:00	7	Dirección del viento	8.05
186615	7	Sololá	701	Sololá	2	El tablón	10	Octubre	2023-10-30T00:00:00	2024-11-06T23:00:00	1	Precipitación	0
186616	7	Sololá	701	Sololá	2	El tablón	10	Octubre	2023-10-30T00:00:00	2024-11-06T23:00:00	8	Radiación solar	0
186617	7	Sololá	701	Sololá	2	El tablón	10	Octubre	2023-10-31T00:00:00	2024-11-06T00:00:00	2	Temperatura media	12.4
186618	7	Sololá	701	Sololá	2	El tablón	10	Octubre	2023-10-31T00:00:00	2024-11-06T00:00:00	4	Temperatura máxima	12.6
186619	7	Sololá	701	Sololá	2	El tablón	10	Octubre	2023-10-31T00:00:00	2024-11-06T00:00:00	3	Temperatura mínima	12.3
186620	7	Sololá	701	Sololá	2	El tablón	10	Octubre	2023-10-31T00:00:00	2024-11-06T00:00:00	5	Humedad	85
186621	7	Sololá	701	Sololá	2	El tablón	10	Octubre	2023-10-31T00:00:00	2024-11-06T00:00:00	6	Velocidad del viento	8
186622	7	Sololá	701	Sololá	2	El tablón	10	Octubre	2023-10-31T00:00:00	2024-11-06T00:00:00	7	Dirección del viento	8.05
186623	7	Sololá	701	Sololá	2	El tablón	10	Octubre	2023-10-31T00:00:00	2024-11-06T00:00:00	1	Precipitación	0
186624	7	Sololá	701	Sololá	2	El tablón	10	Octubre	2023-10-31T00:00:00	2024-11-06T00:00:00	8	Radiación solar	0
186625	7	Sololá	701	Sololá	2	El tablón	10	Octubre	2023-10-31T00:00:00	2024-11-06T01:00:00	2	Temperatura media	11.4
186626	7	Sololá	701	Sololá	2	El tablón	10	Octubre	2023-10-31T00:00:00	2024-11-06T01:00:00	4	Temperatura máxima	12.4
186627	7	Sololá	701	Sololá	2	El tablón	10	Octubre	2023-10-31T00:00:00	2024-11-06T01:00:00	3	Temperatura mínima	11.4
186628	7	Sololá	701	Sololá	2	El tablón	10	Octubre	2023-10-31T00:00:00	2024-11-06T01:00:00	5	Humedad	88
186629	7	Sololá	701	Sololá	2	El tablón	10	Octubre	2023-10-31T00:00:00	2024-11-06T01:00:00	6	Velocidad del viento	12.9
186630	7	Sololá	701	Sololá	2	El tablón	10	Octubre	2023-10-31T00:00:00	2024-11-06T01:00:00	7	Dirección del viento	12.87
186631	7	Sololá	701	Sololá	2	El tablón	10	Octubre	2023-10-31T00:00:00	2024-11-06T01:00:00	1	Precipitación	0
186632	7	Sololá	701	Sololá	2	El tablón	10	Octubre	2023-10-31T00:00:00	2024-11-06T01:00:00	8	Radiación solar	0
186633	7	Sololá	701	Sololá	2	El tablón	10	Octubre	2023-10-31T00:00:00	2024-11-06T02:00:00	2	Temperatura media	11.6
186634	7	Sololá	701	Sololá	2	El tablón	10	Octubre	2023-10-31T00:00:00	2024-11-06T02:00:00	4	Temperatura máxima	11.8
186635	7	Sololá	701	Sololá	2	El tablón	10	Octubre	2023-10-31T00:00:00	2024-11-06T02:00:00	3	Temperatura mínima	11.3
186636	7	Sololá	701	Sololá	2	El tablón	10	Octubre	2023-10-31T00:00:00	2024-11-06T02:00:00	5	Humedad	87
186637	7	Sololá	701	Sololá	2	El tablón	10	Octubre	2023-10-31T00:00:00	2024-11-06T02:00:00	6	Velocidad del viento	12.9
186638	7	Sololá	701	Sololá	2	El tablón	10	Octubre	2023-10-31T00:00:00	2024-11-06T02:00:00	7	Dirección del viento	12.87
186639	7	Sololá	701	Sololá	2	El tablón	10	Octubre	2023-10-31T00:00:00	2024-11-06T02:00:00	1	Precipitación	0
186640	7	Sololá	701	Sololá	2	El tablón	10	Octubre	2023-10-31T00:00:00	2024-11-06T02:00:00	8	Radiación solar	0
186641	7	Sololá	701	Sololá	2	El tablón	10	Octubre	2023-10-31T00:00:00	2024-11-06T03:00:00	2	Temperatura media	12.1
186642	7	Sololá	701	Sololá	2	El tablón	10	Octubre	2023-10-31T00:00:00	2024-11-06T03:00:00	4	Temperatura máxima	12.1
186643	7	Sololá	701	Sololá	2	El tablón	10	Octubre	2023-10-31T00:00:00	2024-11-06T03:00:00	3	Temperatura mínima	11.3
186644	7	Sololá	701	Sololá	2	El tablón	10	Octubre	2023-10-31T00:00:00	2024-11-06T03:00:00	5	Humedad	84
186645	7	Sololá	701	Sololá	2	El tablón	10	Octubre	2023-10-31T00:00:00	2024-11-06T03:00:00	6	Velocidad del viento	11.3
186646	7	Sololá	701	Sololá	2	El tablón	10	Octubre	2023-10-31T00:00:00	2024-11-06T03:00:00	7	Dirección del viento	11.27
186647	7	Sololá	701	Sololá	2	El tablón	10	Octubre	2023-10-31T00:00:00	2024-11-06T03:00:00	1	Precipitación	0
186648	7	Sololá	701	Sololá	2	El tablón	10	Octubre	2023-10-31T00:00:00	2024-11-06T03:00:00	8	Radiación solar	0
186649	7	Sololá	701	Sololá	2	El tablón	10	Octubre	2023-10-31T00:00:00	2024-11-06T04:00:00	2	Temperatura media	12.2
186650	7	Sololá	701	Sololá	2	El tablón	10	Octubre	2023-10-31T00:00:00	2024-11-06T04:00:00	4	Temperatura máxima	12.3
186651	7	Sololá	701	Sololá	2	El tablón	10	Octubre	2023-10-31T00:00:00	2024-11-06T04:00:00	3	Temperatura mínima	12
186652	7	Sololá	701	Sololá	2	El tablón	10	Octubre	2023-10-31T00:00:00	2024-11-06T04:00:00	5	Humedad	83
186653	7	Sololá	701	Sololá	2	El tablón	10	Octubre	2023-10-31T00:00:00	2024-11-06T04:00:00	6	Velocidad del viento	16.1
186654	7	Sololá	701	Sololá	2	El tablón	10	Octubre	2023-10-31T00:00:00	2024-11-06T04:00:00	7	Dirección del viento	16.09
186655	7	Sololá	701	Sololá	2	El tablón	10	Octubre	2023-10-31T00:00:00	2024-11-06T04:00:00	1	Precipitación	0
186656	7	Sololá	701	Sololá	2	El tablón	10	Octubre	2023-10-31T00:00:00	2024-11-06T04:00:00	8	Radiación solar	0
186657	7	Sololá	701	Sololá	2	El tablón	10	Octubre	2023-10-31T00:00:00	2024-11-06T05:00:00	2	Temperatura media	12.4
186658	7	Sololá	701	Sololá	2	El tablón	10	Octubre	2023-10-31T00:00:00	2024-11-06T05:00:00	4	Temperatura máxima	12.5
186659	7	Sololá	701	Sololá	2	El tablón	10	Octubre	2023-10-31T00:00:00	2024-11-06T05:00:00	3	Temperatura mínima	12.2
186660	7	Sololá	701	Sololá	2	El tablón	10	Octubre	2023-10-31T00:00:00	2024-11-06T05:00:00	5	Humedad	80
186661	7	Sololá	701	Sololá	2	El tablón	10	Octubre	2023-10-31T00:00:00	2024-11-06T05:00:00	6	Velocidad del viento	16.1
186662	7	Sololá	701	Sololá	2	El tablón	10	Octubre	2023-10-31T00:00:00	2024-11-06T05:00:00	7	Dirección del viento	16.09
186663	7	Sololá	701	Sololá	2	El tablón	10	Octubre	2023-10-31T00:00:00	2024-11-06T05:00:00	1	Precipitación	0
186664	7	Sololá	701	Sololá	2	El tablón	10	Octubre	2023-10-31T00:00:00	2024-11-06T05:00:00	8	Radiación solar	0
186665	7	Sololá	701	Sololá	2	El tablón	10	Octubre	2023-10-31T00:00:00	2024-11-06T06:00:00	2	Temperatura media	12.2
186666	7	Sololá	701	Sololá	2	El tablón	10	Octubre	2023-10-31T00:00:00	2024-11-06T06:00:00	4	Temperatura máxima	12.5
186667	7	Sololá	701	Sololá	2	El tablón	10	Octubre	2023-10-31T00:00:00	2024-11-06T06:00:00	3	Temperatura mínima	12.2
186668	7	Sololá	701	Sololá	2	El tablón	10	Octubre	2023-10-31T00:00:00	2024-11-06T06:00:00	5	Humedad	82
186669	7	Sololá	701	Sololá	2	El tablón	10	Octubre	2023-10-31T00:00:00	2024-11-06T06:00:00	6	Velocidad del viento	14.5
186670	7	Sololá	701	Sololá	2	El tablón	10	Octubre	2023-10-31T00:00:00	2024-11-06T06:00:00	7	Dirección del viento	14.48
186671	7	Sololá	701	Sololá	2	El tablón	10	Octubre	2023-10-31T00:00:00	2024-11-06T06:00:00	1	Precipitación	0
186672	7	Sololá	701	Sololá	2	El tablón	10	Octubre	2023-10-31T00:00:00	2024-11-06T06:00:00	8	Radiación solar	0
186673	7	Sololá	701	Sololá	2	El tablón	10	Octubre	2023-10-31T00:00:00	2024-11-06T07:00:00	2	Temperatura media	12
186674	7	Sololá	701	Sololá	2	El tablón	10	Octubre	2023-10-31T00:00:00	2024-11-06T07:00:00	4	Temperatura máxima	12.2
186675	7	Sololá	701	Sololá	2	El tablón	10	Octubre	2023-10-31T00:00:00	2024-11-06T07:00:00	3	Temperatura mínima	11.8
186676	7	Sololá	701	Sololá	2	El tablón	10	Octubre	2023-10-31T00:00:00	2024-11-06T07:00:00	5	Humedad	82
186677	7	Sololá	701	Sololá	2	El tablón	10	Octubre	2023-10-31T00:00:00	2024-11-06T07:00:00	6	Velocidad del viento	14.5
186678	7	Sololá	701	Sololá	2	El tablón	10	Octubre	2023-10-31T00:00:00	2024-11-06T07:00:00	7	Dirección del viento	14.48
186679	7	Sololá	701	Sololá	2	El tablón	10	Octubre	2023-10-31T00:00:00	2024-11-06T07:00:00	1	Precipitación	0
186680	7	Sololá	701	Sololá	2	El tablón	10	Octubre	2023-10-31T00:00:00	2024-11-06T07:00:00	8	Radiación solar	9
186681	7	Sololá	701	Sololá	2	El tablón	10	Octubre	2023-10-31T00:00:00	2024-11-06T08:00:00	2	Temperatura media	13.3
186682	7	Sololá	701	Sololá	2	El tablón	10	Octubre	2023-10-31T00:00:00	2024-11-06T08:00:00	4	Temperatura máxima	13.3
186683	7	Sololá	701	Sololá	2	El tablón	10	Octubre	2023-10-31T00:00:00	2024-11-06T08:00:00	3	Temperatura mínima	12.1
186684	7	Sololá	701	Sololá	2	El tablón	10	Octubre	2023-10-31T00:00:00	2024-11-06T08:00:00	5	Humedad	77
186685	7	Sololá	701	Sololá	2	El tablón	10	Octubre	2023-10-31T00:00:00	2024-11-06T08:00:00	6	Velocidad del viento	16.1
186686	7	Sololá	701	Sololá	2	El tablón	10	Octubre	2023-10-31T00:00:00	2024-11-06T08:00:00	7	Dirección del viento	16.09
186687	7	Sololá	701	Sololá	2	El tablón	10	Octubre	2023-10-31T00:00:00	2024-11-06T08:00:00	1	Precipitación	0
186688	7	Sololá	701	Sololá	2	El tablón	10	Octubre	2023-10-31T00:00:00	2024-11-06T08:00:00	8	Radiación solar	90
186689	7	Sololá	701	Sololá	2	El tablón	10	Octubre	2023-10-31T00:00:00	2024-11-06T09:00:00	2	Temperatura media	14.3
186690	7	Sololá	701	Sololá	2	El tablón	10	Octubre	2023-10-31T00:00:00	2024-11-06T09:00:00	4	Temperatura máxima	14.3
186691	7	Sololá	701	Sololá	2	El tablón	10	Octubre	2023-10-31T00:00:00	2024-11-06T09:00:00	3	Temperatura mínima	13.3
186692	7	Sololá	701	Sololá	2	El tablón	10	Octubre	2023-10-31T00:00:00	2024-11-06T09:00:00	5	Humedad	76
186693	7	Sololá	701	Sololá	2	El tablón	10	Octubre	2023-10-31T00:00:00	2024-11-06T09:00:00	6	Velocidad del viento	12.9
186694	7	Sololá	701	Sololá	2	El tablón	10	Octubre	2023-10-31T00:00:00	2024-11-06T09:00:00	7	Dirección del viento	12.87
186695	7	Sololá	701	Sololá	2	El tablón	10	Octubre	2023-10-31T00:00:00	2024-11-06T09:00:00	1	Precipitación	0
186696	7	Sololá	701	Sololá	2	El tablón	10	Octubre	2023-10-31T00:00:00	2024-11-06T09:00:00	8	Radiación solar	211
186697	7	Sololá	701	Sololá	2	El tablón	10	Octubre	2023-10-31T00:00:00	2024-11-06T10:00:00	2	Temperatura media	14.2
186698	7	Sololá	701	Sololá	2	El tablón	10	Octubre	2023-10-31T00:00:00	2024-11-06T10:00:00	4	Temperatura máxima	14.4
186699	7	Sololá	701	Sololá	2	El tablón	10	Octubre	2023-10-31T00:00:00	2024-11-06T10:00:00	3	Temperatura mínima	14.1
186700	7	Sololá	701	Sololá	2	El tablón	10	Octubre	2023-10-31T00:00:00	2024-11-06T10:00:00	5	Humedad	77
186701	7	Sololá	701	Sololá	2	El tablón	10	Octubre	2023-10-31T00:00:00	2024-11-06T10:00:00	6	Velocidad del viento	14.5
186702	7	Sololá	701	Sololá	2	El tablón	10	Octubre	2023-10-31T00:00:00	2024-11-06T10:00:00	7	Dirección del viento	14.48
186703	7	Sololá	701	Sololá	2	El tablón	10	Octubre	2023-10-31T00:00:00	2024-11-06T10:00:00	1	Precipitación	0
186704	7	Sololá	701	Sololá	2	El tablón	10	Octubre	2023-10-31T00:00:00	2024-11-06T10:00:00	8	Radiación solar	229
186705	7	Sololá	701	Sololá	2	El tablón	10	Octubre	2023-10-31T00:00:00	2024-11-06T11:00:00	2	Temperatura media	14.8
186706	7	Sololá	701	Sololá	2	El tablón	10	Octubre	2023-10-31T00:00:00	2024-11-06T11:00:00	4	Temperatura máxima	14.8
186707	7	Sololá	701	Sololá	2	El tablón	10	Octubre	2023-10-31T00:00:00	2024-11-06T11:00:00	3	Temperatura mínima	13.9
186708	7	Sololá	701	Sololá	2	El tablón	10	Octubre	2023-10-31T00:00:00	2024-11-06T11:00:00	5	Humedad	78
186709	7	Sololá	701	Sololá	2	El tablón	10	Octubre	2023-10-31T00:00:00	2024-11-06T11:00:00	6	Velocidad del viento	17.7
186710	7	Sololá	701	Sololá	2	El tablón	10	Octubre	2023-10-31T00:00:00	2024-11-06T11:00:00	7	Dirección del viento	17.7
186711	7	Sololá	701	Sololá	2	El tablón	10	Octubre	2023-10-31T00:00:00	2024-11-06T11:00:00	1	Precipitación	0
186712	7	Sololá	701	Sololá	2	El tablón	10	Octubre	2023-10-31T00:00:00	2024-11-06T11:00:00	8	Radiación solar	237
186713	7	Sololá	701	Sololá	2	El tablón	10	Octubre	2023-10-31T00:00:00	2024-11-06T12:00:00	2	Temperatura media	15
186714	7	Sololá	701	Sololá	2	El tablón	10	Octubre	2023-10-31T00:00:00	2024-11-06T12:00:00	4	Temperatura máxima	15
186715	7	Sololá	701	Sololá	2	El tablón	10	Octubre	2023-10-31T00:00:00	2024-11-06T12:00:00	3	Temperatura mínima	14.7
186716	7	Sololá	701	Sololá	2	El tablón	10	Octubre	2023-10-31T00:00:00	2024-11-06T12:00:00	5	Humedad	79
186717	7	Sololá	701	Sololá	2	El tablón	10	Octubre	2023-10-31T00:00:00	2024-11-06T12:00:00	6	Velocidad del viento	17.7
186718	7	Sololá	701	Sololá	2	El tablón	10	Octubre	2023-10-31T00:00:00	2024-11-06T12:00:00	7	Dirección del viento	17.7
186719	7	Sololá	701	Sololá	2	El tablón	10	Octubre	2023-10-31T00:00:00	2024-11-06T12:00:00	1	Precipitación	0
186720	7	Sololá	701	Sololá	2	El tablón	10	Octubre	2023-10-31T00:00:00	2024-11-06T12:00:00	8	Radiación solar	315
186721	7	Sololá	701	Sololá	2	El tablón	10	Octubre	2023-10-31T00:00:00	2024-11-06T13:00:00	2	Temperatura media	13.9
186722	7	Sololá	701	Sololá	2	El tablón	10	Octubre	2023-10-31T00:00:00	2024-11-06T13:00:00	4	Temperatura máxima	15.2
186723	7	Sololá	701	Sololá	2	El tablón	10	Octubre	2023-10-31T00:00:00	2024-11-06T13:00:00	3	Temperatura mínima	13.9
186724	7	Sololá	701	Sololá	2	El tablón	10	Octubre	2023-10-31T00:00:00	2024-11-06T13:00:00	5	Humedad	86
186725	7	Sololá	701	Sololá	2	El tablón	10	Octubre	2023-10-31T00:00:00	2024-11-06T13:00:00	6	Velocidad del viento	14.5
186726	7	Sololá	701	Sololá	2	El tablón	10	Octubre	2023-10-31T00:00:00	2024-11-06T13:00:00	7	Dirección del viento	14.48
186727	7	Sololá	701	Sololá	2	El tablón	10	Octubre	2023-10-31T00:00:00	2024-11-06T13:00:00	1	Precipitación	0
186728	7	Sololá	701	Sololá	2	El tablón	10	Octubre	2023-10-31T00:00:00	2024-11-06T13:00:00	8	Radiación solar	290
186729	7	Sololá	701	Sololá	2	El tablón	10	Octubre	2023-10-31T00:00:00	2024-11-06T14:00:00	2	Temperatura media	13.4
186730	7	Sololá	701	Sololá	2	El tablón	10	Octubre	2023-10-31T00:00:00	2024-11-06T14:00:00	4	Temperatura máxima	13.9
186731	7	Sololá	701	Sololá	2	El tablón	10	Octubre	2023-10-31T00:00:00	2024-11-06T14:00:00	3	Temperatura mínima	13.4
186732	7	Sololá	701	Sololá	2	El tablón	10	Octubre	2023-10-31T00:00:00	2024-11-06T14:00:00	5	Humedad	86
186733	7	Sololá	701	Sololá	2	El tablón	10	Octubre	2023-10-31T00:00:00	2024-11-06T14:00:00	6	Velocidad del viento	12.9
186734	7	Sololá	701	Sololá	2	El tablón	10	Octubre	2023-10-31T00:00:00	2024-11-06T14:00:00	7	Dirección del viento	12.87
186735	7	Sololá	701	Sololá	2	El tablón	10	Octubre	2023-10-31T00:00:00	2024-11-06T14:00:00	1	Precipitación	0
186736	7	Sololá	701	Sololá	2	El tablón	10	Octubre	2023-10-31T00:00:00	2024-11-06T14:00:00	8	Radiación solar	167
186737	7	Sololá	701	Sololá	2	El tablón	10	Octubre	2023-10-31T00:00:00	2024-11-06T15:00:00	2	Temperatura media	12.7
186738	7	Sololá	701	Sololá	2	El tablón	10	Octubre	2023-10-31T00:00:00	2024-11-06T15:00:00	4	Temperatura máxima	13.4
186739	7	Sololá	701	Sololá	2	El tablón	10	Octubre	2023-10-31T00:00:00	2024-11-06T15:00:00	3	Temperatura mínima	12.7
186740	7	Sololá	701	Sololá	2	El tablón	10	Octubre	2023-10-31T00:00:00	2024-11-06T15:00:00	5	Humedad	89
186741	7	Sololá	701	Sololá	2	El tablón	10	Octubre	2023-10-31T00:00:00	2024-11-06T15:00:00	6	Velocidad del viento	11.3
186742	7	Sololá	701	Sololá	2	El tablón	10	Octubre	2023-10-31T00:00:00	2024-11-06T15:00:00	7	Dirección del viento	11.27
186743	7	Sololá	701	Sololá	2	El tablón	10	Octubre	2023-10-31T00:00:00	2024-11-06T15:00:00	1	Precipitación	1.2
186744	7	Sololá	701	Sololá	2	El tablón	10	Octubre	2023-10-31T00:00:00	2024-11-06T15:00:00	8	Radiación solar	110
186745	7	Sololá	701	Sololá	2	El tablón	10	Octubre	2023-10-31T00:00:00	2024-11-06T16:00:00	2	Temperatura media	12.6
186746	7	Sololá	701	Sololá	2	El tablón	10	Octubre	2023-10-31T00:00:00	2024-11-06T16:00:00	4	Temperatura máxima	12.7
186747	7	Sololá	701	Sololá	2	El tablón	10	Octubre	2023-10-31T00:00:00	2024-11-06T16:00:00	3	Temperatura mínima	12.5
186748	7	Sololá	701	Sololá	2	El tablón	10	Octubre	2023-10-31T00:00:00	2024-11-06T16:00:00	5	Humedad	89
186749	7	Sololá	701	Sololá	2	El tablón	10	Octubre	2023-10-31T00:00:00	2024-11-06T16:00:00	6	Velocidad del viento	12.9
186750	7	Sololá	701	Sololá	2	El tablón	10	Octubre	2023-10-31T00:00:00	2024-11-06T16:00:00	7	Dirección del viento	12.87
186751	7	Sololá	701	Sololá	2	El tablón	10	Octubre	2023-10-31T00:00:00	2024-11-06T16:00:00	1	Precipitación	0.8
186752	7	Sololá	701	Sololá	2	El tablón	10	Octubre	2023-10-31T00:00:00	2024-11-06T16:00:00	8	Radiación solar	73
186753	7	Sololá	701	Sololá	2	El tablón	10	Octubre	2023-10-31T00:00:00	2024-11-06T17:00:00	2	Temperatura media	12.2
186754	7	Sololá	701	Sololá	2	El tablón	10	Octubre	2023-10-31T00:00:00	2024-11-06T17:00:00	4	Temperatura máxima	12.6
186755	7	Sololá	701	Sololá	2	El tablón	10	Octubre	2023-10-31T00:00:00	2024-11-06T17:00:00	3	Temperatura mínima	12.2
186756	7	Sololá	701	Sololá	2	El tablón	10	Octubre	2023-10-31T00:00:00	2024-11-06T17:00:00	5	Humedad	89
186757	7	Sololá	701	Sololá	2	El tablón	10	Octubre	2023-10-31T00:00:00	2024-11-06T17:00:00	6	Velocidad del viento	14.5
186758	7	Sololá	701	Sololá	2	El tablón	10	Octubre	2023-10-31T00:00:00	2024-11-06T17:00:00	7	Dirección del viento	14.48
186759	7	Sololá	701	Sololá	2	El tablón	10	Octubre	2023-10-31T00:00:00	2024-11-06T17:00:00	1	Precipitación	0.8
186760	7	Sololá	701	Sololá	2	El tablón	10	Octubre	2023-10-31T00:00:00	2024-11-06T17:00:00	8	Radiación solar	26
186761	7	Sololá	701	Sololá	2	El tablón	10	Octubre	2023-10-31T00:00:00	2024-11-06T18:00:00	2	Temperatura media	11.8
186762	7	Sololá	701	Sololá	2	El tablón	10	Octubre	2023-10-31T00:00:00	2024-11-06T18:00:00	4	Temperatura máxima	12.2
186763	7	Sololá	701	Sololá	2	El tablón	10	Octubre	2023-10-31T00:00:00	2024-11-06T18:00:00	3	Temperatura mínima	11.8
186764	7	Sololá	701	Sololá	2	El tablón	10	Octubre	2023-10-31T00:00:00	2024-11-06T18:00:00	5	Humedad	88
186765	7	Sololá	701	Sololá	2	El tablón	10	Octubre	2023-10-31T00:00:00	2024-11-06T18:00:00	6	Velocidad del viento	16.1
186766	7	Sololá	701	Sololá	2	El tablón	10	Octubre	2023-10-31T00:00:00	2024-11-06T18:00:00	7	Dirección del viento	16.09
186767	7	Sololá	701	Sololá	2	El tablón	10	Octubre	2023-10-31T00:00:00	2024-11-06T18:00:00	1	Precipitación	0.8
186768	7	Sololá	701	Sololá	2	El tablón	10	Octubre	2023-10-31T00:00:00	2024-11-06T18:00:00	8	Radiación solar	3
186769	7	Sololá	701	Sololá	2	El tablón	10	Octubre	2023-10-31T00:00:00	2024-11-06T19:00:00	2	Temperatura media	11.7
186770	7	Sololá	701	Sololá	2	El tablón	10	Octubre	2023-10-31T00:00:00	2024-11-06T19:00:00	4	Temperatura máxima	11.8
186771	7	Sololá	701	Sololá	2	El tablón	10	Octubre	2023-10-31T00:00:00	2024-11-06T19:00:00	3	Temperatura mínima	11.6
186772	7	Sololá	701	Sololá	2	El tablón	10	Octubre	2023-10-31T00:00:00	2024-11-06T19:00:00	5	Humedad	88
186773	7	Sololá	701	Sololá	2	El tablón	10	Octubre	2023-10-31T00:00:00	2024-11-06T19:00:00	6	Velocidad del viento	20.9
186774	7	Sololá	701	Sololá	2	El tablón	10	Octubre	2023-10-31T00:00:00	2024-11-06T19:00:00	7	Dirección del viento	20.92
186775	7	Sololá	701	Sololá	2	El tablón	10	Octubre	2023-10-31T00:00:00	2024-11-06T19:00:00	1	Precipitación	0.2
186776	7	Sololá	701	Sololá	2	El tablón	10	Octubre	2023-10-31T00:00:00	2024-11-06T19:00:00	8	Radiación solar	0
186777	7	Sololá	701	Sololá	2	El tablón	10	Octubre	2023-10-31T00:00:00	2024-11-06T20:00:00	2	Temperatura media	11.8
186778	7	Sololá	701	Sololá	2	El tablón	10	Octubre	2023-10-31T00:00:00	2024-11-06T20:00:00	4	Temperatura máxima	11.8
186779	7	Sololá	701	Sololá	2	El tablón	10	Octubre	2023-10-31T00:00:00	2024-11-06T20:00:00	3	Temperatura mínima	11.6
186780	7	Sololá	701	Sololá	2	El tablón	10	Octubre	2023-10-31T00:00:00	2024-11-06T20:00:00	5	Humedad	87
186781	7	Sololá	701	Sololá	2	El tablón	10	Octubre	2023-10-31T00:00:00	2024-11-06T20:00:00	6	Velocidad del viento	17.7
186782	7	Sololá	701	Sololá	2	El tablón	10	Octubre	2023-10-31T00:00:00	2024-11-06T20:00:00	7	Dirección del viento	17.7
186783	7	Sololá	701	Sololá	2	El tablón	10	Octubre	2023-10-31T00:00:00	2024-11-06T20:00:00	1	Precipitación	0.2
186784	7	Sololá	701	Sololá	2	El tablón	10	Octubre	2023-10-31T00:00:00	2024-11-06T20:00:00	8	Radiación solar	0
186785	7	Sololá	701	Sololá	2	El tablón	10	Octubre	2023-10-31T00:00:00	2024-11-06T21:00:00	2	Temperatura media	11.2
186786	7	Sololá	701	Sololá	2	El tablón	10	Octubre	2023-10-31T00:00:00	2024-11-06T21:00:00	4	Temperatura máxima	11.8
186787	7	Sololá	701	Sololá	2	El tablón	10	Octubre	2023-10-31T00:00:00	2024-11-06T21:00:00	3	Temperatura mínima	11.2
186788	7	Sololá	701	Sololá	2	El tablón	10	Octubre	2023-10-31T00:00:00	2024-11-06T21:00:00	5	Humedad	89
186789	7	Sololá	701	Sololá	2	El tablón	10	Octubre	2023-10-31T00:00:00	2024-11-06T21:00:00	6	Velocidad del viento	20.9
186790	7	Sololá	701	Sololá	2	El tablón	10	Octubre	2023-10-31T00:00:00	2024-11-06T21:00:00	7	Dirección del viento	20.92
186791	7	Sololá	701	Sololá	2	El tablón	10	Octubre	2023-10-31T00:00:00	2024-11-06T21:00:00	1	Precipitación	1.2
186792	7	Sololá	701	Sololá	2	El tablón	10	Octubre	2023-10-31T00:00:00	2024-11-06T21:00:00	8	Radiación solar	0
186793	7	Sololá	701	Sololá	2	El tablón	10	Octubre	2023-10-31T00:00:00	2024-11-06T22:00:00	2	Temperatura media	10.8
186794	7	Sololá	701	Sololá	2	El tablón	10	Octubre	2023-10-31T00:00:00	2024-11-06T22:00:00	4	Temperatura máxima	11.2
186795	7	Sololá	701	Sololá	2	El tablón	10	Octubre	2023-10-31T00:00:00	2024-11-06T22:00:00	3	Temperatura mínima	10.8
186796	7	Sololá	701	Sololá	2	El tablón	10	Octubre	2023-10-31T00:00:00	2024-11-06T22:00:00	5	Humedad	89
186797	7	Sololá	701	Sololá	2	El tablón	10	Octubre	2023-10-31T00:00:00	2024-11-06T22:00:00	6	Velocidad del viento	17.7
186798	7	Sololá	701	Sololá	2	El tablón	10	Octubre	2023-10-31T00:00:00	2024-11-06T22:00:00	7	Dirección del viento	17.7
186799	7	Sololá	701	Sololá	2	El tablón	10	Octubre	2023-10-31T00:00:00	2024-11-06T22:00:00	1	Precipitación	0.4
186800	7	Sololá	701	Sololá	2	El tablón	10	Octubre	2023-10-31T00:00:00	2024-11-06T22:00:00	8	Radiación solar	0
186801	7	Sololá	701	Sololá	2	El tablón	10	Octubre	2023-10-31T00:00:00	2024-11-06T23:00:00	2	Temperatura media	11.4
186802	7	Sololá	701	Sololá	2	El tablón	10	Octubre	2023-10-31T00:00:00	2024-11-06T23:00:00	4	Temperatura máxima	11.4
186803	7	Sololá	701	Sololá	2	El tablón	10	Octubre	2023-10-31T00:00:00	2024-11-06T23:00:00	3	Temperatura mínima	10.8
186804	7	Sololá	701	Sololá	2	El tablón	10	Octubre	2023-10-31T00:00:00	2024-11-06T23:00:00	5	Humedad	87
186805	7	Sololá	701	Sololá	2	El tablón	10	Octubre	2023-10-31T00:00:00	2024-11-06T23:00:00	6	Velocidad del viento	16.1
186806	7	Sololá	701	Sololá	2	El tablón	10	Octubre	2023-10-31T00:00:00	2024-11-06T23:00:00	7	Dirección del viento	16.09
186807	7	Sololá	701	Sololá	2	El tablón	10	Octubre	2023-10-31T00:00:00	2024-11-06T23:00:00	1	Precipitación	0.2
186808	7	Sololá	701	Sololá	2	El tablón	10	Octubre	2023-10-31T00:00:00	2024-11-06T23:00:00	8	Radiación solar	0
186809	7	Sololá	701	Sololá	2	El tablón	11	Noviembre	2023-01-11T00:00:00	2024-11-06T00:00:00	2	Temperatura media	10.7
186810	7	Sololá	701	Sololá	2	El tablón	11	Noviembre	2023-01-11T00:00:00	2024-11-06T00:00:00	4	Temperatura máxima	11.4
186811	7	Sololá	701	Sololá	2	El tablón	11	Noviembre	2023-01-11T00:00:00	2024-11-06T00:00:00	3	Temperatura mínima	10.7
186812	7	Sololá	701	Sololá	2	El tablón	11	Noviembre	2023-01-11T00:00:00	2024-11-06T00:00:00	5	Humedad	88
186813	7	Sololá	701	Sololá	2	El tablón	11	Noviembre	2023-01-11T00:00:00	2024-11-06T00:00:00	6	Velocidad del viento	20.9
186814	7	Sololá	701	Sololá	2	El tablón	11	Noviembre	2023-01-11T00:00:00	2024-11-06T00:00:00	7	Dirección del viento	20.92
186815	7	Sololá	701	Sololá	2	El tablón	11	Noviembre	2023-01-11T00:00:00	2024-11-06T00:00:00	1	Precipitación	0
186816	7	Sololá	701	Sololá	2	El tablón	11	Noviembre	2023-01-11T00:00:00	2024-11-06T00:00:00	8	Radiación solar	0
186817	7	Sololá	701	Sololá	2	El tablón	11	Noviembre	2023-01-11T00:00:00	2024-11-06T01:00:00	2	Temperatura media	10.4
186818	7	Sololá	701	Sololá	2	El tablón	11	Noviembre	2023-01-11T00:00:00	2024-11-06T01:00:00	4	Temperatura máxima	10.7
186819	7	Sololá	701	Sololá	2	El tablón	11	Noviembre	2023-01-11T00:00:00	2024-11-06T01:00:00	3	Temperatura mínima	10.4
186820	7	Sololá	701	Sololá	2	El tablón	11	Noviembre	2023-01-11T00:00:00	2024-11-06T01:00:00	5	Humedad	87
186821	7	Sololá	701	Sololá	2	El tablón	11	Noviembre	2023-01-11T00:00:00	2024-11-06T01:00:00	6	Velocidad del viento	22.5
186822	7	Sololá	701	Sololá	2	El tablón	11	Noviembre	2023-01-11T00:00:00	2024-11-06T01:00:00	7	Dirección del viento	22.53
186823	7	Sololá	701	Sololá	2	El tablón	11	Noviembre	2023-01-11T00:00:00	2024-11-06T01:00:00	1	Precipitación	0.2
186824	7	Sololá	701	Sololá	2	El tablón	11	Noviembre	2023-01-11T00:00:00	2024-11-06T01:00:00	8	Radiación solar	0
186825	7	Sololá	701	Sololá	2	El tablón	11	Noviembre	2023-01-11T00:00:00	2024-11-06T02:00:00	2	Temperatura media	10.7
186826	7	Sololá	701	Sololá	2	El tablón	11	Noviembre	2023-01-11T00:00:00	2024-11-06T02:00:00	4	Temperatura máxima	10.8
186827	7	Sololá	701	Sololá	2	El tablón	11	Noviembre	2023-01-11T00:00:00	2024-11-06T02:00:00	3	Temperatura mínima	10.4
186828	7	Sololá	701	Sololá	2	El tablón	11	Noviembre	2023-01-11T00:00:00	2024-11-06T02:00:00	5	Humedad	87
186829	7	Sololá	701	Sololá	2	El tablón	11	Noviembre	2023-01-11T00:00:00	2024-11-06T02:00:00	6	Velocidad del viento	22.5
186830	7	Sololá	701	Sololá	2	El tablón	11	Noviembre	2023-01-11T00:00:00	2024-11-06T02:00:00	7	Dirección del viento	22.53
186831	7	Sololá	701	Sololá	2	El tablón	11	Noviembre	2023-01-11T00:00:00	2024-11-06T02:00:00	1	Precipitación	0.2
186832	7	Sololá	701	Sololá	2	El tablón	11	Noviembre	2023-01-11T00:00:00	2024-11-06T02:00:00	8	Radiación solar	0
186833	7	Sololá	701	Sololá	2	El tablón	11	Noviembre	2023-01-11T00:00:00	2024-11-06T03:00:00	2	Temperatura media	11.1
186834	7	Sololá	701	Sololá	2	El tablón	11	Noviembre	2023-01-11T00:00:00	2024-11-06T03:00:00	4	Temperatura máxima	11.2
186835	7	Sololá	701	Sololá	2	El tablón	11	Noviembre	2023-01-11T00:00:00	2024-11-06T03:00:00	3	Temperatura mínima	10.7
186836	7	Sololá	701	Sololá	2	El tablón	11	Noviembre	2023-01-11T00:00:00	2024-11-06T03:00:00	5	Humedad	85
186837	7	Sololá	701	Sololá	2	El tablón	11	Noviembre	2023-01-11T00:00:00	2024-11-06T03:00:00	6	Velocidad del viento	20.9
186838	7	Sololá	701	Sololá	2	El tablón	11	Noviembre	2023-01-11T00:00:00	2024-11-06T03:00:00	7	Dirección del viento	20.92
186839	7	Sololá	701	Sololá	2	El tablón	11	Noviembre	2023-01-11T00:00:00	2024-11-06T03:00:00	1	Precipitación	0
186840	7	Sololá	701	Sololá	2	El tablón	11	Noviembre	2023-01-11T00:00:00	2024-11-06T03:00:00	8	Radiación solar	0
186841	7	Sololá	701	Sololá	2	El tablón	11	Noviembre	2023-01-11T00:00:00	2024-11-06T04:00:00	2	Temperatura media	11
186842	7	Sololá	701	Sololá	2	El tablón	11	Noviembre	2023-01-11T00:00:00	2024-11-06T04:00:00	4	Temperatura máxima	11.3
186843	7	Sololá	701	Sololá	2	El tablón	11	Noviembre	2023-01-11T00:00:00	2024-11-06T04:00:00	3	Temperatura mínima	10.9
186844	7	Sololá	701	Sololá	2	El tablón	11	Noviembre	2023-01-11T00:00:00	2024-11-06T04:00:00	5	Humedad	88
186845	7	Sololá	701	Sololá	2	El tablón	11	Noviembre	2023-01-11T00:00:00	2024-11-06T04:00:00	6	Velocidad del viento	20.9
186846	7	Sololá	701	Sololá	2	El tablón	11	Noviembre	2023-01-11T00:00:00	2024-11-06T04:00:00	7	Dirección del viento	20.92
186847	7	Sololá	701	Sololá	2	El tablón	11	Noviembre	2023-01-11T00:00:00	2024-11-06T04:00:00	1	Precipitación	0
186848	7	Sololá	701	Sololá	2	El tablón	11	Noviembre	2023-01-11T00:00:00	2024-11-06T04:00:00	8	Radiación solar	0
186849	7	Sololá	701	Sololá	2	El tablón	11	Noviembre	2023-01-11T00:00:00	2024-11-06T05:00:00	2	Temperatura media	11.6
186850	7	Sololá	701	Sololá	2	El tablón	11	Noviembre	2023-01-11T00:00:00	2024-11-06T05:00:00	4	Temperatura máxima	11.6
186851	7	Sololá	701	Sololá	2	El tablón	11	Noviembre	2023-01-11T00:00:00	2024-11-06T05:00:00	3	Temperatura mínima	10.9
186852	7	Sololá	701	Sololá	2	El tablón	11	Noviembre	2023-01-11T00:00:00	2024-11-06T05:00:00	5	Humedad	89
186853	7	Sololá	701	Sololá	2	El tablón	11	Noviembre	2023-01-11T00:00:00	2024-11-06T05:00:00	6	Velocidad del viento	19.3
186854	7	Sololá	701	Sololá	2	El tablón	11	Noviembre	2023-01-11T00:00:00	2024-11-06T05:00:00	7	Dirección del viento	19.31
186855	7	Sololá	701	Sololá	2	El tablón	11	Noviembre	2023-01-11T00:00:00	2024-11-06T05:00:00	1	Precipitación	0
186856	7	Sololá	701	Sololá	2	El tablón	11	Noviembre	2023-01-11T00:00:00	2024-11-06T05:00:00	8	Radiación solar	0
186857	7	Sololá	701	Sololá	2	El tablón	11	Noviembre	2023-01-11T00:00:00	2024-11-06T06:00:00	2	Temperatura media	11.7
186858	7	Sololá	701	Sololá	2	El tablón	11	Noviembre	2023-01-11T00:00:00	2024-11-06T06:00:00	4	Temperatura máxima	11.7
186859	7	Sololá	701	Sololá	2	El tablón	11	Noviembre	2023-01-11T00:00:00	2024-11-06T06:00:00	3	Temperatura mínima	11.4
186860	7	Sololá	701	Sololá	2	El tablón	11	Noviembre	2023-01-11T00:00:00	2024-11-06T06:00:00	5	Humedad	89
186861	7	Sololá	701	Sololá	2	El tablón	11	Noviembre	2023-01-11T00:00:00	2024-11-06T06:00:00	6	Velocidad del viento	20.9
186862	7	Sololá	701	Sololá	2	El tablón	11	Noviembre	2023-01-11T00:00:00	2024-11-06T06:00:00	7	Dirección del viento	20.92
186863	7	Sololá	701	Sololá	2	El tablón	11	Noviembre	2023-01-11T00:00:00	2024-11-06T06:00:00	1	Precipitación	0
186864	7	Sololá	701	Sololá	2	El tablón	11	Noviembre	2023-01-11T00:00:00	2024-11-06T06:00:00	8	Radiación solar	0
186865	7	Sololá	701	Sololá	2	El tablón	11	Noviembre	2023-01-11T00:00:00	2024-11-06T07:00:00	2	Temperatura media	12.3
186866	7	Sololá	701	Sololá	2	El tablón	11	Noviembre	2023-01-11T00:00:00	2024-11-06T07:00:00	4	Temperatura máxima	12.3
186867	7	Sololá	701	Sololá	2	El tablón	11	Noviembre	2023-01-11T00:00:00	2024-11-06T07:00:00	3	Temperatura mínima	11.6
186868	7	Sololá	701	Sololá	2	El tablón	11	Noviembre	2023-01-11T00:00:00	2024-11-06T07:00:00	5	Humedad	87
186869	7	Sololá	701	Sololá	2	El tablón	11	Noviembre	2023-01-11T00:00:00	2024-11-06T07:00:00	6	Velocidad del viento	22.5
186870	7	Sololá	701	Sololá	2	El tablón	11	Noviembre	2023-01-11T00:00:00	2024-11-06T07:00:00	7	Dirección del viento	22.53
186871	7	Sololá	701	Sololá	2	El tablón	11	Noviembre	2023-01-11T00:00:00	2024-11-06T07:00:00	1	Precipitación	0
186872	7	Sololá	701	Sololá	2	El tablón	11	Noviembre	2023-01-11T00:00:00	2024-11-06T07:00:00	8	Radiación solar	20
186873	7	Sololá	701	Sololá	2	El tablón	11	Noviembre	2023-01-11T00:00:00	2024-11-06T08:00:00	2	Temperatura media	12
186874	7	Sololá	701	Sololá	2	El tablón	11	Noviembre	2023-01-11T00:00:00	2024-11-06T08:00:00	4	Temperatura máxima	12.4
186875	7	Sololá	701	Sololá	2	El tablón	11	Noviembre	2023-01-11T00:00:00	2024-11-06T08:00:00	3	Temperatura mínima	12
186876	7	Sololá	701	Sololá	2	El tablón	11	Noviembre	2023-01-11T00:00:00	2024-11-06T08:00:00	5	Humedad	88
186877	7	Sololá	701	Sololá	2	El tablón	11	Noviembre	2023-01-11T00:00:00	2024-11-06T08:00:00	6	Velocidad del viento	24.1
186878	7	Sololá	701	Sololá	2	El tablón	11	Noviembre	2023-01-11T00:00:00	2024-11-06T08:00:00	7	Dirección del viento	24.14
186879	7	Sololá	701	Sololá	2	El tablón	11	Noviembre	2023-01-11T00:00:00	2024-11-06T08:00:00	1	Precipitación	0
186880	7	Sololá	701	Sololá	2	El tablón	11	Noviembre	2023-01-11T00:00:00	2024-11-06T08:00:00	8	Radiación solar	116
186881	7	Sololá	701	Sololá	2	El tablón	11	Noviembre	2023-01-11T00:00:00	2024-11-06T09:00:00	2	Temperatura media	12.4
186882	7	Sololá	701	Sololá	2	El tablón	11	Noviembre	2023-01-11T00:00:00	2024-11-06T09:00:00	4	Temperatura máxima	12.6
186883	7	Sololá	701	Sololá	2	El tablón	11	Noviembre	2023-01-11T00:00:00	2024-11-06T09:00:00	3	Temperatura mínima	12
186884	7	Sololá	701	Sololá	2	El tablón	11	Noviembre	2023-01-11T00:00:00	2024-11-06T09:00:00	5	Humedad	87
186885	7	Sololá	701	Sololá	2	El tablón	11	Noviembre	2023-01-11T00:00:00	2024-11-06T09:00:00	6	Velocidad del viento	20.9
186886	7	Sololá	701	Sololá	2	El tablón	11	Noviembre	2023-01-11T00:00:00	2024-11-06T09:00:00	7	Dirección del viento	20.92
186887	7	Sololá	701	Sololá	2	El tablón	11	Noviembre	2023-01-11T00:00:00	2024-11-06T09:00:00	1	Precipitación	0
186888	7	Sololá	701	Sololá	2	El tablón	11	Noviembre	2023-01-11T00:00:00	2024-11-06T09:00:00	8	Radiación solar	212
186889	7	Sololá	701	Sololá	2	El tablón	11	Noviembre	2023-01-11T00:00:00	2024-11-06T10:00:00	2	Temperatura media	12.9
186890	7	Sololá	701	Sololá	2	El tablón	11	Noviembre	2023-01-11T00:00:00	2024-11-06T10:00:00	4	Temperatura máxima	13
186891	7	Sololá	701	Sololá	2	El tablón	11	Noviembre	2023-01-11T00:00:00	2024-11-06T10:00:00	3	Temperatura mínima	12.2
186892	7	Sololá	701	Sololá	2	El tablón	11	Noviembre	2023-01-11T00:00:00	2024-11-06T10:00:00	5	Humedad	88
186893	7	Sololá	701	Sololá	2	El tablón	11	Noviembre	2023-01-11T00:00:00	2024-11-06T10:00:00	6	Velocidad del viento	20.9
186894	7	Sololá	701	Sololá	2	El tablón	11	Noviembre	2023-01-11T00:00:00	2024-11-06T10:00:00	7	Dirección del viento	20.92
186895	7	Sololá	701	Sololá	2	El tablón	11	Noviembre	2023-01-11T00:00:00	2024-11-06T10:00:00	1	Precipitación	0.2
186896	7	Sololá	701	Sololá	2	El tablón	11	Noviembre	2023-01-11T00:00:00	2024-11-06T10:00:00	8	Radiación solar	296
186897	7	Sololá	701	Sololá	2	El tablón	11	Noviembre	2023-01-11T00:00:00	2024-11-06T11:00:00	2	Temperatura media	13.6
186898	7	Sololá	701	Sololá	2	El tablón	11	Noviembre	2023-01-11T00:00:00	2024-11-06T11:00:00	4	Temperatura máxima	13.6
186899	7	Sololá	701	Sololá	2	El tablón	11	Noviembre	2023-01-11T00:00:00	2024-11-06T11:00:00	3	Temperatura mínima	12.8
186900	7	Sololá	701	Sololá	2	El tablón	11	Noviembre	2023-01-11T00:00:00	2024-11-06T11:00:00	5	Humedad	86
186901	7	Sololá	701	Sololá	2	El tablón	11	Noviembre	2023-01-11T00:00:00	2024-11-06T11:00:00	6	Velocidad del viento	20.9
186902	7	Sololá	701	Sololá	2	El tablón	11	Noviembre	2023-01-11T00:00:00	2024-11-06T11:00:00	7	Dirección del viento	20.92
186903	7	Sololá	701	Sololá	2	El tablón	11	Noviembre	2023-01-11T00:00:00	2024-11-06T11:00:00	1	Precipitación	0
186904	7	Sololá	701	Sololá	2	El tablón	11	Noviembre	2023-01-11T00:00:00	2024-11-06T11:00:00	8	Radiación solar	432
186905	7	Sololá	701	Sololá	2	El tablón	11	Noviembre	2023-01-11T00:00:00	2024-11-06T12:00:00	2	Temperatura media	13.2
186906	7	Sololá	701	Sololá	2	El tablón	11	Noviembre	2023-01-11T00:00:00	2024-11-06T12:00:00	4	Temperatura máxima	13.6
186907	7	Sololá	701	Sololá	2	El tablón	11	Noviembre	2023-01-11T00:00:00	2024-11-06T12:00:00	3	Temperatura mínima	13.1
186908	7	Sololá	701	Sololá	2	El tablón	11	Noviembre	2023-01-11T00:00:00	2024-11-06T12:00:00	5	Humedad	88
186909	7	Sololá	701	Sololá	2	El tablón	11	Noviembre	2023-01-11T00:00:00	2024-11-06T12:00:00	6	Velocidad del viento	20.9
186910	7	Sololá	701	Sololá	2	El tablón	11	Noviembre	2023-01-11T00:00:00	2024-11-06T12:00:00	7	Dirección del viento	20.92
186911	7	Sololá	701	Sololá	2	El tablón	11	Noviembre	2023-01-11T00:00:00	2024-11-06T12:00:00	1	Precipitación	0
186912	7	Sololá	701	Sololá	2	El tablón	11	Noviembre	2023-01-11T00:00:00	2024-11-06T12:00:00	8	Radiación solar	453
186913	7	Sololá	701	Sololá	2	El tablón	11	Noviembre	2023-01-11T00:00:00	2024-11-06T13:00:00	2	Temperatura media	12.4
186914	7	Sololá	701	Sololá	2	El tablón	11	Noviembre	2023-01-11T00:00:00	2024-11-06T13:00:00	4	Temperatura máxima	13.3
186915	7	Sololá	701	Sololá	2	El tablón	11	Noviembre	2023-01-11T00:00:00	2024-11-06T13:00:00	3	Temperatura mínima	12.4
186916	7	Sololá	701	Sololá	2	El tablón	11	Noviembre	2023-01-11T00:00:00	2024-11-06T13:00:00	5	Humedad	89
186917	7	Sololá	701	Sololá	2	El tablón	11	Noviembre	2023-01-11T00:00:00	2024-11-06T13:00:00	6	Velocidad del viento	20.9
186918	7	Sololá	701	Sololá	2	El tablón	11	Noviembre	2023-01-11T00:00:00	2024-11-06T13:00:00	7	Dirección del viento	20.92
186919	7	Sololá	701	Sololá	2	El tablón	11	Noviembre	2023-01-11T00:00:00	2024-11-06T13:00:00	1	Precipitación	0
186920	7	Sololá	701	Sololá	2	El tablón	11	Noviembre	2023-01-11T00:00:00	2024-11-06T13:00:00	8	Radiación solar	335
186921	7	Sololá	701	Sololá	2	El tablón	11	Noviembre	2023-01-11T00:00:00	2024-11-06T14:00:00	2	Temperatura media	12.7
186922	7	Sololá	701	Sololá	2	El tablón	11	Noviembre	2023-01-11T00:00:00	2024-11-06T14:00:00	4	Temperatura máxima	12.7
186923	7	Sololá	701	Sololá	2	El tablón	11	Noviembre	2023-01-11T00:00:00	2024-11-06T14:00:00	3	Temperatura mínima	12.2
186924	7	Sololá	701	Sololá	2	El tablón	11	Noviembre	2023-01-11T00:00:00	2024-11-06T14:00:00	5	Humedad	87
186925	7	Sololá	701	Sololá	2	El tablón	11	Noviembre	2023-01-11T00:00:00	2024-11-06T14:00:00	6	Velocidad del viento	17.7
186926	7	Sololá	701	Sololá	2	El tablón	11	Noviembre	2023-01-11T00:00:00	2024-11-06T14:00:00	7	Dirección del viento	17.7
186927	7	Sololá	701	Sololá	2	El tablón	11	Noviembre	2023-01-11T00:00:00	2024-11-06T14:00:00	1	Precipitación	0
186928	7	Sololá	701	Sololá	2	El tablón	11	Noviembre	2023-01-11T00:00:00	2024-11-06T14:00:00	8	Radiación solar	185
186929	7	Sololá	701	Sololá	2	El tablón	11	Noviembre	2023-01-11T00:00:00	2024-11-06T15:00:00	2	Temperatura media	12.6
186930	7	Sololá	701	Sololá	2	El tablón	11	Noviembre	2023-01-11T00:00:00	2024-11-06T15:00:00	4	Temperatura máxima	12.8
186931	7	Sololá	701	Sololá	2	El tablón	11	Noviembre	2023-01-11T00:00:00	2024-11-06T15:00:00	3	Temperatura mínima	12.5
186932	7	Sololá	701	Sololá	2	El tablón	11	Noviembre	2023-01-11T00:00:00	2024-11-06T15:00:00	5	Humedad	85
186933	7	Sololá	701	Sololá	2	El tablón	11	Noviembre	2023-01-11T00:00:00	2024-11-06T15:00:00	6	Velocidad del viento	19.3
186934	7	Sololá	701	Sololá	2	El tablón	11	Noviembre	2023-01-11T00:00:00	2024-11-06T15:00:00	7	Dirección del viento	19.31
186935	7	Sololá	701	Sololá	2	El tablón	11	Noviembre	2023-01-11T00:00:00	2024-11-06T15:00:00	1	Precipitación	0
186936	7	Sololá	701	Sololá	2	El tablón	11	Noviembre	2023-01-11T00:00:00	2024-11-06T15:00:00	8	Radiación solar	237
186937	7	Sololá	701	Sololá	2	El tablón	11	Noviembre	2023-01-11T00:00:00	2024-11-06T16:00:00	2	Temperatura media	12.4
186938	7	Sololá	701	Sololá	2	El tablón	11	Noviembre	2023-01-11T00:00:00	2024-11-06T16:00:00	4	Temperatura máxima	12.8
186939	7	Sololá	701	Sololá	2	El tablón	11	Noviembre	2023-01-11T00:00:00	2024-11-06T16:00:00	3	Temperatura mínima	12.4
186940	7	Sololá	701	Sololá	2	El tablón	11	Noviembre	2023-01-11T00:00:00	2024-11-06T16:00:00	5	Humedad	86
186941	7	Sololá	701	Sololá	2	El tablón	11	Noviembre	2023-01-11T00:00:00	2024-11-06T16:00:00	6	Velocidad del viento	19.3
186942	7	Sololá	701	Sololá	2	El tablón	11	Noviembre	2023-01-11T00:00:00	2024-11-06T16:00:00	7	Dirección del viento	19.31
186943	7	Sololá	701	Sololá	2	El tablón	11	Noviembre	2023-01-11T00:00:00	2024-11-06T16:00:00	1	Precipitación	0
186944	7	Sololá	701	Sololá	2	El tablón	11	Noviembre	2023-01-11T00:00:00	2024-11-06T16:00:00	8	Radiación solar	184
186945	7	Sololá	701	Sololá	2	El tablón	11	Noviembre	2023-01-11T00:00:00	2024-11-06T17:00:00	2	Temperatura media	11.8
186946	7	Sololá	701	Sololá	2	El tablón	11	Noviembre	2023-01-11T00:00:00	2024-11-06T17:00:00	4	Temperatura máxima	12.4
186947	7	Sololá	701	Sololá	2	El tablón	11	Noviembre	2023-01-11T00:00:00	2024-11-06T17:00:00	3	Temperatura mínima	11.7
186948	7	Sololá	701	Sololá	2	El tablón	11	Noviembre	2023-01-11T00:00:00	2024-11-06T17:00:00	5	Humedad	89
186949	7	Sololá	701	Sololá	2	El tablón	11	Noviembre	2023-01-11T00:00:00	2024-11-06T17:00:00	6	Velocidad del viento	17.7
186950	7	Sololá	701	Sololá	2	El tablón	11	Noviembre	2023-01-11T00:00:00	2024-11-06T17:00:00	7	Dirección del viento	17.7
186951	7	Sololá	701	Sololá	2	El tablón	11	Noviembre	2023-01-11T00:00:00	2024-11-06T17:00:00	1	Precipitación	0
186952	7	Sololá	701	Sololá	2	El tablón	11	Noviembre	2023-01-11T00:00:00	2024-11-06T17:00:00	8	Radiación solar	87
186953	7	Sololá	701	Sololá	2	El tablón	11	Noviembre	2023-01-11T00:00:00	2024-11-06T18:00:00	2	Temperatura media	11.5
186954	7	Sololá	701	Sololá	2	El tablón	11	Noviembre	2023-01-11T00:00:00	2024-11-06T18:00:00	4	Temperatura máxima	11.8
186955	7	Sololá	701	Sololá	2	El tablón	11	Noviembre	2023-01-11T00:00:00	2024-11-06T18:00:00	3	Temperatura mínima	11.3
186956	7	Sololá	701	Sololá	2	El tablón	11	Noviembre	2023-01-11T00:00:00	2024-11-06T18:00:00	5	Humedad	88
186957	7	Sololá	701	Sololá	2	El tablón	11	Noviembre	2023-01-11T00:00:00	2024-11-06T18:00:00	6	Velocidad del viento	14.5
186958	7	Sololá	701	Sololá	2	El tablón	11	Noviembre	2023-01-11T00:00:00	2024-11-06T18:00:00	7	Dirección del viento	14.48
186959	7	Sololá	701	Sololá	2	El tablón	11	Noviembre	2023-01-11T00:00:00	2024-11-06T18:00:00	1	Precipitación	0
186960	7	Sololá	701	Sololá	2	El tablón	11	Noviembre	2023-01-11T00:00:00	2024-11-06T18:00:00	8	Radiación solar	19
186961	7	Sololá	701	Sololá	2	El tablón	11	Noviembre	2023-01-11T00:00:00	2024-11-06T19:00:00	2	Temperatura media	12.1
186962	7	Sololá	701	Sololá	2	El tablón	11	Noviembre	2023-01-11T00:00:00	2024-11-06T19:00:00	4	Temperatura máxima	12.1
186963	7	Sololá	701	Sololá	2	El tablón	11	Noviembre	2023-01-11T00:00:00	2024-11-06T19:00:00	3	Temperatura mínima	11.5
186964	7	Sololá	701	Sololá	2	El tablón	11	Noviembre	2023-01-11T00:00:00	2024-11-06T19:00:00	5	Humedad	88
186965	7	Sololá	701	Sololá	2	El tablón	11	Noviembre	2023-01-11T00:00:00	2024-11-06T19:00:00	6	Velocidad del viento	14.5
186966	7	Sololá	701	Sololá	2	El tablón	11	Noviembre	2023-01-11T00:00:00	2024-11-06T19:00:00	7	Dirección del viento	14.48
186967	7	Sololá	701	Sololá	2	El tablón	11	Noviembre	2023-01-11T00:00:00	2024-11-06T19:00:00	1	Precipitación	0
186968	7	Sololá	701	Sololá	2	El tablón	11	Noviembre	2023-01-11T00:00:00	2024-11-06T19:00:00	8	Radiación solar	0
186969	7	Sololá	701	Sololá	2	El tablón	11	Noviembre	2023-01-11T00:00:00	2024-11-06T20:00:00	2	Temperatura media	12.4
186970	7	Sololá	701	Sololá	2	El tablón	11	Noviembre	2023-01-11T00:00:00	2024-11-06T20:00:00	4	Temperatura máxima	12.4
186971	7	Sololá	701	Sololá	2	El tablón	11	Noviembre	2023-01-11T00:00:00	2024-11-06T20:00:00	3	Temperatura mínima	12.1
186972	7	Sololá	701	Sololá	2	El tablón	11	Noviembre	2023-01-11T00:00:00	2024-11-06T20:00:00	5	Humedad	86
186973	7	Sololá	701	Sololá	2	El tablón	11	Noviembre	2023-01-11T00:00:00	2024-11-06T20:00:00	6	Velocidad del viento	14.5
186974	7	Sololá	701	Sololá	2	El tablón	11	Noviembre	2023-01-11T00:00:00	2024-11-06T20:00:00	7	Dirección del viento	14.48
186975	7	Sololá	701	Sololá	2	El tablón	11	Noviembre	2023-01-11T00:00:00	2024-11-06T20:00:00	1	Precipitación	0
186976	7	Sololá	701	Sololá	2	El tablón	11	Noviembre	2023-01-11T00:00:00	2024-11-06T20:00:00	8	Radiación solar	0
186977	7	Sololá	701	Sololá	2	El tablón	11	Noviembre	2023-01-11T00:00:00	2024-11-06T21:00:00	2	Temperatura media	12.4
186978	7	Sololá	701	Sololá	2	El tablón	11	Noviembre	2023-01-11T00:00:00	2024-11-06T21:00:00	4	Temperatura máxima	12.7
186979	7	Sololá	701	Sololá	2	El tablón	11	Noviembre	2023-01-11T00:00:00	2024-11-06T21:00:00	3	Temperatura mínima	12.4
186980	7	Sololá	701	Sololá	2	El tablón	11	Noviembre	2023-01-11T00:00:00	2024-11-06T21:00:00	5	Humedad	87
186981	7	Sololá	701	Sololá	2	El tablón	11	Noviembre	2023-01-11T00:00:00	2024-11-06T21:00:00	6	Velocidad del viento	16.1
186982	7	Sololá	701	Sololá	2	El tablón	11	Noviembre	2023-01-11T00:00:00	2024-11-06T21:00:00	7	Dirección del viento	16.09
186983	7	Sololá	701	Sololá	2	El tablón	11	Noviembre	2023-01-11T00:00:00	2024-11-06T21:00:00	1	Precipitación	0
186984	7	Sololá	701	Sololá	2	El tablón	11	Noviembre	2023-01-11T00:00:00	2024-11-06T21:00:00	8	Radiación solar	0
186985	7	Sololá	701	Sololá	2	El tablón	11	Noviembre	2023-01-11T00:00:00	2024-11-06T22:00:00	2	Temperatura media	11.9
186986	7	Sololá	701	Sololá	2	El tablón	11	Noviembre	2023-01-11T00:00:00	2024-11-06T22:00:00	4	Temperatura máxima	12.4
186987	7	Sololá	701	Sololá	2	El tablón	11	Noviembre	2023-01-11T00:00:00	2024-11-06T22:00:00	3	Temperatura mínima	11.9
186988	7	Sololá	701	Sololá	2	El tablón	11	Noviembre	2023-01-11T00:00:00	2024-11-06T22:00:00	5	Humedad	88
186989	7	Sololá	701	Sololá	2	El tablón	11	Noviembre	2023-01-11T00:00:00	2024-11-06T22:00:00	6	Velocidad del viento	17.7
186990	7	Sololá	701	Sololá	2	El tablón	11	Noviembre	2023-01-11T00:00:00	2024-11-06T22:00:00	7	Dirección del viento	17.7
186991	7	Sololá	701	Sololá	2	El tablón	11	Noviembre	2023-01-11T00:00:00	2024-11-06T22:00:00	1	Precipitación	0
186992	7	Sololá	701	Sololá	2	El tablón	11	Noviembre	2023-01-11T00:00:00	2024-11-06T22:00:00	8	Radiación solar	0
186993	7	Sololá	701	Sololá	2	El tablón	11	Noviembre	2023-01-11T00:00:00	2024-11-06T23:00:00	2	Temperatura media	11.9
186994	7	Sololá	701	Sololá	2	El tablón	11	Noviembre	2023-01-11T00:00:00	2024-11-06T23:00:00	4	Temperatura máxima	12.1
186995	7	Sololá	701	Sololá	2	El tablón	11	Noviembre	2023-01-11T00:00:00	2024-11-06T23:00:00	3	Temperatura mínima	11.7
186996	7	Sololá	701	Sololá	2	El tablón	11	Noviembre	2023-01-11T00:00:00	2024-11-06T23:00:00	5	Humedad	85
186997	7	Sololá	701	Sololá	2	El tablón	11	Noviembre	2023-01-11T00:00:00	2024-11-06T23:00:00	6	Velocidad del viento	17.7
186998	7	Sololá	701	Sololá	2	El tablón	11	Noviembre	2023-01-11T00:00:00	2024-11-06T23:00:00	7	Dirección del viento	17.7
186999	7	Sololá	701	Sololá	2	El tablón	11	Noviembre	2023-01-11T00:00:00	2024-11-06T23:00:00	1	Precipitación	0
187000	7	Sololá	701	Sololá	2	El tablón	11	Noviembre	2023-01-11T00:00:00	2024-11-06T23:00:00	8	Radiación solar	0
187001	7	Sololá	701	Sololá	2	El tablón	11	Noviembre	2023-02-11T00:00:00	2024-11-06T00:00:00	2	Temperatura media	12
187002	7	Sololá	701	Sololá	2	El tablón	11	Noviembre	2023-02-11T00:00:00	2024-11-06T00:00:00	4	Temperatura máxima	12.1
187003	7	Sololá	701	Sololá	2	El tablón	11	Noviembre	2023-02-11T00:00:00	2024-11-06T00:00:00	3	Temperatura mínima	11.8
187004	7	Sololá	701	Sololá	2	El tablón	11	Noviembre	2023-02-11T00:00:00	2024-11-06T00:00:00	5	Humedad	86
187005	7	Sololá	701	Sololá	2	El tablón	11	Noviembre	2023-02-11T00:00:00	2024-11-06T00:00:00	6	Velocidad del viento	17.7
187006	7	Sololá	701	Sololá	2	El tablón	11	Noviembre	2023-02-11T00:00:00	2024-11-06T00:00:00	7	Dirección del viento	17.7
187007	7	Sololá	701	Sololá	2	El tablón	11	Noviembre	2023-02-11T00:00:00	2024-11-06T00:00:00	1	Precipitación	0
187008	7	Sololá	701	Sololá	2	El tablón	11	Noviembre	2023-02-11T00:00:00	2024-11-06T00:00:00	8	Radiación solar	0
187009	7	Sololá	701	Sololá	2	El tablón	11	Noviembre	2023-02-11T00:00:00	2024-11-06T01:00:00	2	Temperatura media	11.7
187010	7	Sololá	701	Sololá	2	El tablón	11	Noviembre	2023-02-11T00:00:00	2024-11-06T01:00:00	4	Temperatura máxima	12.1
187011	7	Sololá	701	Sololá	2	El tablón	11	Noviembre	2023-02-11T00:00:00	2024-11-06T01:00:00	3	Temperatura mínima	11.7
187012	7	Sololá	701	Sololá	2	El tablón	11	Noviembre	2023-02-11T00:00:00	2024-11-06T01:00:00	5	Humedad	89
187013	7	Sololá	701	Sololá	2	El tablón	11	Noviembre	2023-02-11T00:00:00	2024-11-06T01:00:00	6	Velocidad del viento	8
187014	7	Sololá	701	Sololá	2	El tablón	11	Noviembre	2023-02-11T00:00:00	2024-11-06T01:00:00	7	Dirección del viento	8.05
187015	7	Sololá	701	Sololá	2	El tablón	11	Noviembre	2023-02-11T00:00:00	2024-11-06T01:00:00	1	Precipitación	0
187016	7	Sololá	701	Sololá	2	El tablón	11	Noviembre	2023-02-11T00:00:00	2024-11-06T01:00:00	8	Radiación solar	0
187017	7	Sololá	701	Sololá	2	El tablón	11	Noviembre	2023-02-11T00:00:00	2024-11-06T02:00:00	2	Temperatura media	11.8
187018	7	Sololá	701	Sololá	2	El tablón	11	Noviembre	2023-02-11T00:00:00	2024-11-06T02:00:00	4	Temperatura máxima	11.9
187019	7	Sololá	701	Sololá	2	El tablón	11	Noviembre	2023-02-11T00:00:00	2024-11-06T02:00:00	3	Temperatura mínima	11.7
187020	7	Sololá	701	Sololá	2	El tablón	11	Noviembre	2023-02-11T00:00:00	2024-11-06T02:00:00	5	Humedad	89
187021	7	Sololá	701	Sololá	2	El tablón	11	Noviembre	2023-02-11T00:00:00	2024-11-06T02:00:00	6	Velocidad del viento	14.5
187022	7	Sololá	701	Sololá	2	El tablón	11	Noviembre	2023-02-11T00:00:00	2024-11-06T02:00:00	7	Dirección del viento	14.48
187023	7	Sololá	701	Sololá	2	El tablón	11	Noviembre	2023-02-11T00:00:00	2024-11-06T02:00:00	1	Precipitación	0
187024	7	Sololá	701	Sololá	2	El tablón	11	Noviembre	2023-02-11T00:00:00	2024-11-06T02:00:00	8	Radiación solar	0
187025	7	Sololá	701	Sololá	2	El tablón	11	Noviembre	2023-02-11T00:00:00	2024-11-06T03:00:00	2	Temperatura media	11.9
187026	7	Sololá	701	Sololá	2	El tablón	11	Noviembre	2023-02-11T00:00:00	2024-11-06T03:00:00	4	Temperatura máxima	11.9
187027	7	Sololá	701	Sololá	2	El tablón	11	Noviembre	2023-02-11T00:00:00	2024-11-06T03:00:00	3	Temperatura mínima	11.6
187028	7	Sololá	701	Sololá	2	El tablón	11	Noviembre	2023-02-11T00:00:00	2024-11-06T03:00:00	5	Humedad	89
187029	7	Sololá	701	Sololá	2	El tablón	11	Noviembre	2023-02-11T00:00:00	2024-11-06T03:00:00	6	Velocidad del viento	14.5
187030	7	Sololá	701	Sololá	2	El tablón	11	Noviembre	2023-02-11T00:00:00	2024-11-06T03:00:00	7	Dirección del viento	14.48
187031	7	Sololá	701	Sololá	2	El tablón	11	Noviembre	2023-02-11T00:00:00	2024-11-06T03:00:00	1	Precipitación	0.2
187032	7	Sololá	701	Sololá	2	El tablón	11	Noviembre	2023-02-11T00:00:00	2024-11-06T03:00:00	8	Radiación solar	0
187033	7	Sololá	701	Sololá	2	El tablón	11	Noviembre	2023-02-11T00:00:00	2024-11-06T04:00:00	2	Temperatura media	12.2
187034	7	Sololá	701	Sololá	2	El tablón	11	Noviembre	2023-02-11T00:00:00	2024-11-06T04:00:00	4	Temperatura máxima	12.2
187035	7	Sololá	701	Sololá	2	El tablón	11	Noviembre	2023-02-11T00:00:00	2024-11-06T04:00:00	3	Temperatura mínima	11.8
187036	7	Sololá	701	Sololá	2	El tablón	11	Noviembre	2023-02-11T00:00:00	2024-11-06T04:00:00	5	Humedad	89
187037	7	Sololá	701	Sololá	2	El tablón	11	Noviembre	2023-02-11T00:00:00	2024-11-06T04:00:00	6	Velocidad del viento	14.5
187038	7	Sololá	701	Sololá	2	El tablón	11	Noviembre	2023-02-11T00:00:00	2024-11-06T04:00:00	7	Dirección del viento	14.48
187039	7	Sololá	701	Sololá	2	El tablón	11	Noviembre	2023-02-11T00:00:00	2024-11-06T04:00:00	1	Precipitación	0
187040	7	Sololá	701	Sololá	2	El tablón	11	Noviembre	2023-02-11T00:00:00	2024-11-06T04:00:00	8	Radiación solar	0
187041	7	Sololá	701	Sololá	2	El tablón	11	Noviembre	2023-02-11T00:00:00	2024-11-06T05:00:00	2	Temperatura media	12.3
187042	7	Sololá	701	Sololá	2	El tablón	11	Noviembre	2023-02-11T00:00:00	2024-11-06T05:00:00	4	Temperatura máxima	12.4
187043	7	Sololá	701	Sololá	2	El tablón	11	Noviembre	2023-02-11T00:00:00	2024-11-06T05:00:00	3	Temperatura mínima	12.2
187044	7	Sololá	701	Sololá	2	El tablón	11	Noviembre	2023-02-11T00:00:00	2024-11-06T05:00:00	5	Humedad	89
187045	7	Sololá	701	Sololá	2	El tablón	11	Noviembre	2023-02-11T00:00:00	2024-11-06T05:00:00	6	Velocidad del viento	17.7
187046	7	Sololá	701	Sololá	2	El tablón	11	Noviembre	2023-02-11T00:00:00	2024-11-06T05:00:00	7	Dirección del viento	17.7
187047	7	Sololá	701	Sololá	2	El tablón	11	Noviembre	2023-02-11T00:00:00	2024-11-06T05:00:00	1	Precipitación	0
187048	7	Sololá	701	Sololá	2	El tablón	11	Noviembre	2023-02-11T00:00:00	2024-11-06T05:00:00	8	Radiación solar	0
187049	7	Sololá	701	Sololá	2	El tablón	11	Noviembre	2023-02-11T00:00:00	2024-11-06T06:00:00	2	Temperatura media	12.3
187050	7	Sololá	701	Sololá	2	El tablón	11	Noviembre	2023-02-11T00:00:00	2024-11-06T06:00:00	4	Temperatura máxima	12.5
187051	7	Sololá	701	Sololá	2	El tablón	11	Noviembre	2023-02-11T00:00:00	2024-11-06T06:00:00	3	Temperatura mínima	12.3
187052	7	Sololá	701	Sololá	2	El tablón	11	Noviembre	2023-02-11T00:00:00	2024-11-06T06:00:00	5	Humedad	89
187053	7	Sololá	701	Sololá	2	El tablón	11	Noviembre	2023-02-11T00:00:00	2024-11-06T06:00:00	6	Velocidad del viento	12.9
187054	7	Sololá	701	Sololá	2	El tablón	11	Noviembre	2023-02-11T00:00:00	2024-11-06T06:00:00	7	Dirección del viento	12.87
187055	7	Sololá	701	Sololá	2	El tablón	11	Noviembre	2023-02-11T00:00:00	2024-11-06T06:00:00	1	Precipitación	0
187056	7	Sololá	701	Sololá	2	El tablón	11	Noviembre	2023-02-11T00:00:00	2024-11-06T06:00:00	8	Radiación solar	0
187057	7	Sololá	701	Sololá	2	El tablón	11	Noviembre	2023-02-11T00:00:00	2024-11-06T07:00:00	2	Temperatura media	13.3
187058	7	Sololá	701	Sololá	2	El tablón	11	Noviembre	2023-02-11T00:00:00	2024-11-06T07:00:00	4	Temperatura máxima	13.3
187059	7	Sololá	701	Sololá	2	El tablón	11	Noviembre	2023-02-11T00:00:00	2024-11-06T07:00:00	3	Temperatura mínima	12.3
187060	7	Sololá	701	Sololá	2	El tablón	11	Noviembre	2023-02-11T00:00:00	2024-11-06T07:00:00	5	Humedad	88
187061	7	Sololá	701	Sololá	2	El tablón	11	Noviembre	2023-02-11T00:00:00	2024-11-06T07:00:00	6	Velocidad del viento	12.9
187062	7	Sololá	701	Sololá	2	El tablón	11	Noviembre	2023-02-11T00:00:00	2024-11-06T07:00:00	7	Dirección del viento	12.87
187063	7	Sololá	701	Sololá	2	El tablón	11	Noviembre	2023-02-11T00:00:00	2024-11-06T07:00:00	1	Precipitación	0
187064	7	Sololá	701	Sololá	2	El tablón	11	Noviembre	2023-02-11T00:00:00	2024-11-06T07:00:00	8	Radiación solar	56
187065	7	Sololá	701	Sololá	2	El tablón	11	Noviembre	2023-02-11T00:00:00	2024-11-06T08:00:00	2	Temperatura media	13.3
187066	7	Sololá	701	Sololá	2	El tablón	11	Noviembre	2023-02-11T00:00:00	2024-11-06T08:00:00	4	Temperatura máxima	13.3
187067	7	Sololá	701	Sololá	2	El tablón	11	Noviembre	2023-02-11T00:00:00	2024-11-06T08:00:00	3	Temperatura mínima	13.1
187068	7	Sololá	701	Sololá	2	El tablón	11	Noviembre	2023-02-11T00:00:00	2024-11-06T08:00:00	5	Humedad	88
187069	7	Sololá	701	Sololá	2	El tablón	11	Noviembre	2023-02-11T00:00:00	2024-11-06T08:00:00	6	Velocidad del viento	17.7
187070	7	Sololá	701	Sololá	2	El tablón	11	Noviembre	2023-02-11T00:00:00	2024-11-06T08:00:00	7	Dirección del viento	17.7
187071	7	Sololá	701	Sololá	2	El tablón	11	Noviembre	2023-02-11T00:00:00	2024-11-06T08:00:00	1	Precipitación	0
187072	7	Sololá	701	Sololá	2	El tablón	11	Noviembre	2023-02-11T00:00:00	2024-11-06T08:00:00	8	Radiación solar	134
187073	7	Sololá	701	Sololá	2	El tablón	11	Noviembre	2023-02-11T00:00:00	2024-11-06T09:00:00	2	Temperatura media	14.6
187074	7	Sololá	701	Sololá	2	El tablón	11	Noviembre	2023-02-11T00:00:00	2024-11-06T09:00:00	4	Temperatura máxima	14.7
187075	7	Sololá	701	Sololá	2	El tablón	11	Noviembre	2023-02-11T00:00:00	2024-11-06T09:00:00	3	Temperatura mínima	13.3
187076	7	Sololá	701	Sololá	2	El tablón	11	Noviembre	2023-02-11T00:00:00	2024-11-06T09:00:00	5	Humedad	86
187077	7	Sololá	701	Sololá	2	El tablón	11	Noviembre	2023-02-11T00:00:00	2024-11-06T09:00:00	6	Velocidad del viento	19.3
187078	7	Sololá	701	Sololá	2	El tablón	11	Noviembre	2023-02-11T00:00:00	2024-11-06T09:00:00	7	Dirección del viento	19.31
187079	7	Sololá	701	Sololá	2	El tablón	11	Noviembre	2023-02-11T00:00:00	2024-11-06T09:00:00	1	Precipitación	0.2
187080	7	Sololá	701	Sololá	2	El tablón	11	Noviembre	2023-02-11T00:00:00	2024-11-06T09:00:00	8	Radiación solar	300
187081	7	Sololá	701	Sololá	2	El tablón	11	Noviembre	2023-02-11T00:00:00	2024-11-06T10:00:00	2	Temperatura media	15.8
187082	7	Sololá	701	Sololá	2	El tablón	11	Noviembre	2023-02-11T00:00:00	2024-11-06T10:00:00	4	Temperatura máxima	15.8
187083	7	Sololá	701	Sololá	2	El tablón	11	Noviembre	2023-02-11T00:00:00	2024-11-06T10:00:00	3	Temperatura mínima	14.4
187084	7	Sololá	701	Sololá	2	El tablón	11	Noviembre	2023-02-11T00:00:00	2024-11-06T10:00:00	5	Humedad	82
187085	7	Sololá	701	Sololá	2	El tablón	11	Noviembre	2023-02-11T00:00:00	2024-11-06T10:00:00	6	Velocidad del viento	19.3
187086	7	Sololá	701	Sololá	2	El tablón	11	Noviembre	2023-02-11T00:00:00	2024-11-06T10:00:00	7	Dirección del viento	19.31
187087	7	Sololá	701	Sololá	2	El tablón	11	Noviembre	2023-02-11T00:00:00	2024-11-06T10:00:00	1	Precipitación	0
187088	7	Sololá	701	Sololá	2	El tablón	11	Noviembre	2023-02-11T00:00:00	2024-11-06T10:00:00	8	Radiación solar	612
187089	7	Sololá	701	Sololá	2	El tablón	11	Noviembre	2023-02-11T00:00:00	2024-11-06T11:00:00	2	Temperatura media	15.6
187090	7	Sololá	701	Sololá	2	El tablón	11	Noviembre	2023-02-11T00:00:00	2024-11-06T11:00:00	4	Temperatura máxima	16.1
187091	7	Sololá	701	Sololá	2	El tablón	11	Noviembre	2023-02-11T00:00:00	2024-11-06T11:00:00	3	Temperatura mínima	14.9
187092	7	Sololá	701	Sololá	2	El tablón	11	Noviembre	2023-02-11T00:00:00	2024-11-06T11:00:00	5	Humedad	83
187093	7	Sololá	701	Sololá	2	El tablón	11	Noviembre	2023-02-11T00:00:00	2024-11-06T11:00:00	6	Velocidad del viento	17.7
187094	7	Sololá	701	Sololá	2	El tablón	11	Noviembre	2023-02-11T00:00:00	2024-11-06T11:00:00	7	Dirección del viento	17.7
187095	7	Sololá	701	Sololá	2	El tablón	11	Noviembre	2023-02-11T00:00:00	2024-11-06T11:00:00	1	Precipitación	0
187096	7	Sololá	701	Sololá	2	El tablón	11	Noviembre	2023-02-11T00:00:00	2024-11-06T11:00:00	8	Radiación solar	378
187097	7	Sololá	701	Sololá	2	El tablón	11	Noviembre	2023-02-11T00:00:00	2024-11-06T12:00:00	2	Temperatura media	16.2
187098	7	Sololá	701	Sololá	2	El tablón	11	Noviembre	2023-02-11T00:00:00	2024-11-06T12:00:00	4	Temperatura máxima	16.4
187099	7	Sololá	701	Sololá	2	El tablón	11	Noviembre	2023-02-11T00:00:00	2024-11-06T12:00:00	3	Temperatura mínima	15.4
187100	7	Sololá	701	Sololá	2	El tablón	11	Noviembre	2023-02-11T00:00:00	2024-11-06T12:00:00	5	Humedad	81
187101	7	Sololá	701	Sololá	2	El tablón	11	Noviembre	2023-02-11T00:00:00	2024-11-06T12:00:00	6	Velocidad del viento	16.1
187102	7	Sololá	701	Sololá	2	El tablón	11	Noviembre	2023-02-11T00:00:00	2024-11-06T12:00:00	7	Dirección del viento	16.09
187103	7	Sololá	701	Sololá	2	El tablón	11	Noviembre	2023-02-11T00:00:00	2024-11-06T12:00:00	1	Precipitación	0
187104	7	Sololá	701	Sololá	2	El tablón	11	Noviembre	2023-02-11T00:00:00	2024-11-06T12:00:00	8	Radiación solar	427
187105	7	Sololá	701	Sololá	2	El tablón	11	Noviembre	2023-02-11T00:00:00	2024-11-06T13:00:00	2	Temperatura media	15.4
187106	7	Sololá	701	Sololá	2	El tablón	11	Noviembre	2023-02-11T00:00:00	2024-11-06T13:00:00	4	Temperatura máxima	16.2
187107	7	Sololá	701	Sololá	2	El tablón	11	Noviembre	2023-02-11T00:00:00	2024-11-06T13:00:00	3	Temperatura mínima	15.1
187108	7	Sololá	701	Sololá	2	El tablón	11	Noviembre	2023-02-11T00:00:00	2024-11-06T13:00:00	5	Humedad	84
187109	7	Sololá	701	Sololá	2	El tablón	11	Noviembre	2023-02-11T00:00:00	2024-11-06T13:00:00	6	Velocidad del viento	16.1
187110	7	Sololá	701	Sololá	2	El tablón	11	Noviembre	2023-02-11T00:00:00	2024-11-06T13:00:00	7	Dirección del viento	16.09
187111	7	Sololá	701	Sololá	2	El tablón	11	Noviembre	2023-02-11T00:00:00	2024-11-06T13:00:00	1	Precipitación	0
187112	7	Sololá	701	Sololá	2	El tablón	11	Noviembre	2023-02-11T00:00:00	2024-11-06T13:00:00	8	Radiación solar	496
187113	7	Sololá	701	Sololá	2	El tablón	11	Noviembre	2023-02-11T00:00:00	2024-11-06T14:00:00	2	Temperatura media	14.4
187114	7	Sololá	701	Sololá	2	El tablón	11	Noviembre	2023-02-11T00:00:00	2024-11-06T14:00:00	4	Temperatura máxima	15.6
187115	7	Sololá	701	Sololá	2	El tablón	11	Noviembre	2023-02-11T00:00:00	2024-11-06T14:00:00	3	Temperatura mínima	14.4
187116	7	Sololá	701	Sololá	2	El tablón	11	Noviembre	2023-02-11T00:00:00	2024-11-06T14:00:00	5	Humedad	86
187117	7	Sololá	701	Sololá	2	El tablón	11	Noviembre	2023-02-11T00:00:00	2024-11-06T14:00:00	6	Velocidad del viento	12.9
187118	7	Sololá	701	Sololá	2	El tablón	11	Noviembre	2023-02-11T00:00:00	2024-11-06T14:00:00	7	Dirección del viento	12.87
187119	7	Sololá	701	Sololá	2	El tablón	11	Noviembre	2023-02-11T00:00:00	2024-11-06T14:00:00	1	Precipitación	0
187120	7	Sololá	701	Sololá	2	El tablón	11	Noviembre	2023-02-11T00:00:00	2024-11-06T14:00:00	8	Radiación solar	323
187121	7	Sololá	701	Sololá	2	El tablón	11	Noviembre	2023-02-11T00:00:00	2024-11-06T15:00:00	2	Temperatura media	14.2
187122	7	Sololá	701	Sololá	2	El tablón	11	Noviembre	2023-02-11T00:00:00	2024-11-06T15:00:00	4	Temperatura máxima	14.4
187123	7	Sololá	701	Sololá	2	El tablón	11	Noviembre	2023-02-11T00:00:00	2024-11-06T15:00:00	3	Temperatura mínima	14.1
187124	7	Sololá	701	Sololá	2	El tablón	11	Noviembre	2023-02-11T00:00:00	2024-11-06T15:00:00	5	Humedad	86
187125	7	Sololá	701	Sololá	2	El tablón	11	Noviembre	2023-02-11T00:00:00	2024-11-06T15:00:00	6	Velocidad del viento	17.7
187126	7	Sololá	701	Sololá	2	El tablón	11	Noviembre	2023-02-11T00:00:00	2024-11-06T15:00:00	7	Dirección del viento	17.7
187127	7	Sololá	701	Sololá	2	El tablón	11	Noviembre	2023-02-11T00:00:00	2024-11-06T15:00:00	1	Precipitación	0
187128	7	Sololá	701	Sololá	2	El tablón	11	Noviembre	2023-02-11T00:00:00	2024-11-06T15:00:00	8	Radiación solar	259
187129	7	Sololá	701	Sololá	2	El tablón	11	Noviembre	2023-02-11T00:00:00	2024-11-06T16:00:00	2	Temperatura media	14.3
187130	7	Sololá	701	Sololá	2	El tablón	11	Noviembre	2023-02-11T00:00:00	2024-11-06T16:00:00	4	Temperatura máxima	14.3
187131	7	Sololá	701	Sololá	2	El tablón	11	Noviembre	2023-02-11T00:00:00	2024-11-06T16:00:00	3	Temperatura mínima	13.8
187132	7	Sololá	701	Sololá	2	El tablón	11	Noviembre	2023-02-11T00:00:00	2024-11-06T16:00:00	5	Humedad	85
187133	7	Sololá	701	Sololá	2	El tablón	11	Noviembre	2023-02-11T00:00:00	2024-11-06T16:00:00	6	Velocidad del viento	14.5
187134	7	Sololá	701	Sololá	2	El tablón	11	Noviembre	2023-02-11T00:00:00	2024-11-06T16:00:00	7	Dirección del viento	14.48
187135	7	Sololá	701	Sololá	2	El tablón	11	Noviembre	2023-02-11T00:00:00	2024-11-06T16:00:00	1	Precipitación	0
187136	7	Sololá	701	Sololá	2	El tablón	11	Noviembre	2023-02-11T00:00:00	2024-11-06T16:00:00	8	Radiación solar	148
187137	7	Sololá	701	Sololá	2	El tablón	11	Noviembre	2023-02-11T00:00:00	2024-11-06T17:00:00	2	Temperatura media	13.6
187138	7	Sololá	701	Sololá	2	El tablón	11	Noviembre	2023-02-11T00:00:00	2024-11-06T17:00:00	4	Temperatura máxima	14.3
187139	7	Sololá	701	Sololá	2	El tablón	11	Noviembre	2023-02-11T00:00:00	2024-11-06T17:00:00	3	Temperatura mínima	13.5
187140	7	Sololá	701	Sololá	2	El tablón	11	Noviembre	2023-02-11T00:00:00	2024-11-06T17:00:00	5	Humedad	87
187141	7	Sololá	701	Sololá	2	El tablón	11	Noviembre	2023-02-11T00:00:00	2024-11-06T17:00:00	6	Velocidad del viento	14.5
187142	7	Sololá	701	Sololá	2	El tablón	11	Noviembre	2023-02-11T00:00:00	2024-11-06T17:00:00	7	Dirección del viento	14.48
187143	7	Sololá	701	Sololá	2	El tablón	11	Noviembre	2023-02-11T00:00:00	2024-11-06T17:00:00	1	Precipitación	0
187144	7	Sololá	701	Sololá	2	El tablón	11	Noviembre	2023-02-11T00:00:00	2024-11-06T17:00:00	8	Radiación solar	62
187145	7	Sololá	701	Sololá	2	El tablón	11	Noviembre	2023-02-11T00:00:00	2024-11-06T18:00:00	2	Temperatura media	13.2
187146	7	Sololá	701	Sololá	2	El tablón	11	Noviembre	2023-02-11T00:00:00	2024-11-06T18:00:00	4	Temperatura máxima	13.6
187147	7	Sololá	701	Sololá	2	El tablón	11	Noviembre	2023-02-11T00:00:00	2024-11-06T18:00:00	3	Temperatura mínima	13.1
187148	7	Sololá	701	Sololá	2	El tablón	11	Noviembre	2023-02-11T00:00:00	2024-11-06T18:00:00	5	Humedad	87
187149	7	Sololá	701	Sololá	2	El tablón	11	Noviembre	2023-02-11T00:00:00	2024-11-06T18:00:00	6	Velocidad del viento	16.1
187150	7	Sololá	701	Sololá	2	El tablón	11	Noviembre	2023-02-11T00:00:00	2024-11-06T18:00:00	7	Dirección del viento	16.09
187151	7	Sololá	701	Sololá	2	El tablón	11	Noviembre	2023-02-11T00:00:00	2024-11-06T18:00:00	1	Precipitación	0
187152	7	Sololá	701	Sololá	2	El tablón	11	Noviembre	2023-02-11T00:00:00	2024-11-06T18:00:00	8	Radiación solar	9
187153	7	Sololá	701	Sololá	2	El tablón	11	Noviembre	2023-02-11T00:00:00	2024-11-06T19:00:00	2	Temperatura media	13.1
187154	7	Sololá	701	Sololá	2	El tablón	11	Noviembre	2023-02-11T00:00:00	2024-11-06T19:00:00	4	Temperatura máxima	13.2
187155	7	Sololá	701	Sololá	2	El tablón	11	Noviembre	2023-02-11T00:00:00	2024-11-06T19:00:00	3	Temperatura mínima	13
187156	7	Sololá	701	Sololá	2	El tablón	11	Noviembre	2023-02-11T00:00:00	2024-11-06T19:00:00	5	Humedad	87
187157	7	Sololá	701	Sololá	2	El tablón	11	Noviembre	2023-02-11T00:00:00	2024-11-06T19:00:00	6	Velocidad del viento	16.1
187158	7	Sololá	701	Sololá	2	El tablón	11	Noviembre	2023-02-11T00:00:00	2024-11-06T19:00:00	7	Dirección del viento	16.09
187159	7	Sololá	701	Sololá	2	El tablón	11	Noviembre	2023-02-11T00:00:00	2024-11-06T19:00:00	1	Precipitación	0
187160	7	Sololá	701	Sololá	2	El tablón	11	Noviembre	2023-02-11T00:00:00	2024-11-06T19:00:00	8	Radiación solar	0
187161	7	Sololá	701	Sololá	2	El tablón	11	Noviembre	2023-02-11T00:00:00	2024-11-06T20:00:00	2	Temperatura media	13.4
187162	7	Sololá	701	Sololá	2	El tablón	11	Noviembre	2023-02-11T00:00:00	2024-11-06T20:00:00	4	Temperatura máxima	13.4
187163	7	Sololá	701	Sololá	2	El tablón	11	Noviembre	2023-02-11T00:00:00	2024-11-06T20:00:00	3	Temperatura mínima	13.1
187164	7	Sololá	701	Sololá	2	El tablón	11	Noviembre	2023-02-11T00:00:00	2024-11-06T20:00:00	5	Humedad	86
187165	7	Sololá	701	Sololá	2	El tablón	11	Noviembre	2023-02-11T00:00:00	2024-11-06T20:00:00	6	Velocidad del viento	20.9
187166	7	Sololá	701	Sololá	2	El tablón	11	Noviembre	2023-02-11T00:00:00	2024-11-06T20:00:00	7	Dirección del viento	20.92
187167	7	Sololá	701	Sololá	2	El tablón	11	Noviembre	2023-02-11T00:00:00	2024-11-06T20:00:00	1	Precipitación	0
187168	7	Sololá	701	Sololá	2	El tablón	11	Noviembre	2023-02-11T00:00:00	2024-11-06T20:00:00	8	Radiación solar	0
187169	7	Sololá	701	Sololá	2	El tablón	11	Noviembre	2023-02-11T00:00:00	2024-11-06T21:00:00	2	Temperatura media	13.3
187170	7	Sololá	701	Sololá	2	El tablón	11	Noviembre	2023-02-11T00:00:00	2024-11-06T21:00:00	4	Temperatura máxima	13.6
187171	7	Sololá	701	Sololá	2	El tablón	11	Noviembre	2023-02-11T00:00:00	2024-11-06T21:00:00	3	Temperatura mínima	13.3
187172	7	Sololá	701	Sololá	2	El tablón	11	Noviembre	2023-02-11T00:00:00	2024-11-06T21:00:00	5	Humedad	86
187173	7	Sololá	701	Sololá	2	El tablón	11	Noviembre	2023-02-11T00:00:00	2024-11-06T21:00:00	6	Velocidad del viento	12.9
187174	7	Sololá	701	Sololá	2	El tablón	11	Noviembre	2023-02-11T00:00:00	2024-11-06T21:00:00	7	Dirección del viento	12.87
187175	7	Sololá	701	Sololá	2	El tablón	11	Noviembre	2023-02-11T00:00:00	2024-11-06T21:00:00	1	Precipitación	0
187176	7	Sololá	701	Sololá	2	El tablón	11	Noviembre	2023-02-11T00:00:00	2024-11-06T21:00:00	8	Radiación solar	0
187177	7	Sololá	701	Sololá	2	El tablón	11	Noviembre	2023-02-11T00:00:00	2024-11-06T22:00:00	2	Temperatura media	13.1
187178	7	Sololá	701	Sololá	2	El tablón	11	Noviembre	2023-02-11T00:00:00	2024-11-06T22:00:00	4	Temperatura máxima	13.3
187179	7	Sololá	701	Sololá	2	El tablón	11	Noviembre	2023-02-11T00:00:00	2024-11-06T22:00:00	3	Temperatura mínima	13.1
187180	7	Sololá	701	Sololá	2	El tablón	11	Noviembre	2023-02-11T00:00:00	2024-11-06T22:00:00	5	Humedad	87
187181	7	Sololá	701	Sololá	2	El tablón	11	Noviembre	2023-02-11T00:00:00	2024-11-06T22:00:00	6	Velocidad del viento	11.3
187182	7	Sololá	701	Sololá	2	El tablón	11	Noviembre	2023-02-11T00:00:00	2024-11-06T22:00:00	7	Dirección del viento	11.27
187183	7	Sololá	701	Sololá	2	El tablón	11	Noviembre	2023-02-11T00:00:00	2024-11-06T22:00:00	1	Precipitación	0
187184	7	Sololá	701	Sololá	2	El tablón	11	Noviembre	2023-02-11T00:00:00	2024-11-06T22:00:00	8	Radiación solar	0
187185	7	Sololá	701	Sololá	2	El tablón	11	Noviembre	2023-02-11T00:00:00	2024-11-06T23:00:00	2	Temperatura media	12.8
187186	7	Sololá	701	Sololá	2	El tablón	11	Noviembre	2023-02-11T00:00:00	2024-11-06T23:00:00	4	Temperatura máxima	13.2
187187	7	Sololá	701	Sololá	2	El tablón	11	Noviembre	2023-02-11T00:00:00	2024-11-06T23:00:00	3	Temperatura mínima	12.8
187188	7	Sololá	701	Sololá	2	El tablón	11	Noviembre	2023-02-11T00:00:00	2024-11-06T23:00:00	5	Humedad	88
187189	7	Sololá	701	Sololá	2	El tablón	11	Noviembre	2023-02-11T00:00:00	2024-11-06T23:00:00	6	Velocidad del viento	20.9
187190	7	Sololá	701	Sololá	2	El tablón	11	Noviembre	2023-02-11T00:00:00	2024-11-06T23:00:00	7	Dirección del viento	20.92
187191	7	Sololá	701	Sololá	2	El tablón	11	Noviembre	2023-02-11T00:00:00	2024-11-06T23:00:00	1	Precipitación	0
187192	7	Sololá	701	Sololá	2	El tablón	11	Noviembre	2023-02-11T00:00:00	2024-11-06T23:00:00	8	Radiación solar	0
187193	7	Sololá	701	Sololá	2	El tablón	11	Noviembre	2023-03-11T00:00:00	2024-11-06T00:00:00	2	Temperatura media	12.4
187194	7	Sololá	701	Sololá	2	El tablón	11	Noviembre	2023-03-11T00:00:00	2024-11-06T00:00:00	4	Temperatura máxima	12.8
187195	7	Sololá	701	Sololá	2	El tablón	11	Noviembre	2023-03-11T00:00:00	2024-11-06T00:00:00	3	Temperatura mínima	12.4
187196	7	Sololá	701	Sololá	2	El tablón	11	Noviembre	2023-03-11T00:00:00	2024-11-06T00:00:00	5	Humedad	87
187197	7	Sololá	701	Sololá	2	El tablón	11	Noviembre	2023-03-11T00:00:00	2024-11-06T00:00:00	6	Velocidad del viento	17.7
187198	7	Sololá	701	Sololá	2	El tablón	11	Noviembre	2023-03-11T00:00:00	2024-11-06T00:00:00	7	Dirección del viento	17.7
187199	7	Sololá	701	Sololá	2	El tablón	11	Noviembre	2023-03-11T00:00:00	2024-11-06T00:00:00	1	Precipitación	0
187200	7	Sololá	701	Sololá	2	El tablón	11	Noviembre	2023-03-11T00:00:00	2024-11-06T00:00:00	8	Radiación solar	0
187201	7	Sololá	701	Sololá	2	El tablón	11	Noviembre	2023-03-11T00:00:00	2024-11-06T01:00:00	2	Temperatura media	12.1
187202	7	Sololá	701	Sololá	2	El tablón	11	Noviembre	2023-03-11T00:00:00	2024-11-06T01:00:00	4	Temperatura máxima	12.5
187203	7	Sololá	701	Sololá	2	El tablón	11	Noviembre	2023-03-11T00:00:00	2024-11-06T01:00:00	3	Temperatura mínima	12.1
187204	7	Sololá	701	Sololá	2	El tablón	11	Noviembre	2023-03-11T00:00:00	2024-11-06T01:00:00	5	Humedad	88
187205	7	Sololá	701	Sololá	2	El tablón	11	Noviembre	2023-03-11T00:00:00	2024-11-06T01:00:00	6	Velocidad del viento	16.1
187206	7	Sololá	701	Sololá	2	El tablón	11	Noviembre	2023-03-11T00:00:00	2024-11-06T01:00:00	7	Dirección del viento	16.09
187207	7	Sololá	701	Sololá	2	El tablón	11	Noviembre	2023-03-11T00:00:00	2024-11-06T01:00:00	1	Precipitación	0
187208	7	Sololá	701	Sololá	2	El tablón	11	Noviembre	2023-03-11T00:00:00	2024-11-06T01:00:00	8	Radiación solar	0
187209	7	Sololá	701	Sololá	2	El tablón	11	Noviembre	2023-03-11T00:00:00	2024-11-06T02:00:00	2	Temperatura media	11.9
187210	7	Sololá	701	Sololá	2	El tablón	11	Noviembre	2023-03-11T00:00:00	2024-11-06T02:00:00	4	Temperatura máxima	12.1
187211	7	Sololá	701	Sololá	2	El tablón	11	Noviembre	2023-03-11T00:00:00	2024-11-06T02:00:00	3	Temperatura mínima	11.9
187212	7	Sololá	701	Sololá	2	El tablón	11	Noviembre	2023-03-11T00:00:00	2024-11-06T02:00:00	5	Humedad	86
187213	7	Sololá	701	Sololá	2	El tablón	11	Noviembre	2023-03-11T00:00:00	2024-11-06T02:00:00	6	Velocidad del viento	19.3
187214	7	Sololá	701	Sololá	2	El tablón	11	Noviembre	2023-03-11T00:00:00	2024-11-06T02:00:00	7	Dirección del viento	19.31
187215	7	Sololá	701	Sololá	2	El tablón	11	Noviembre	2023-03-11T00:00:00	2024-11-06T02:00:00	1	Precipitación	0
187216	7	Sololá	701	Sololá	2	El tablón	11	Noviembre	2023-03-11T00:00:00	2024-11-06T02:00:00	8	Radiación solar	0
187217	7	Sololá	701	Sololá	2	El tablón	11	Noviembre	2023-03-11T00:00:00	2024-11-06T03:00:00	2	Temperatura media	11.4
187218	7	Sololá	701	Sololá	2	El tablón	11	Noviembre	2023-03-11T00:00:00	2024-11-06T03:00:00	4	Temperatura máxima	11.9
187219	7	Sololá	701	Sololá	2	El tablón	11	Noviembre	2023-03-11T00:00:00	2024-11-06T03:00:00	3	Temperatura mínima	11.4
187220	7	Sololá	701	Sololá	2	El tablón	11	Noviembre	2023-03-11T00:00:00	2024-11-06T03:00:00	5	Humedad	87
187221	7	Sololá	701	Sololá	2	El tablón	11	Noviembre	2023-03-11T00:00:00	2024-11-06T03:00:00	6	Velocidad del viento	22.5
187222	7	Sololá	701	Sololá	2	El tablón	11	Noviembre	2023-03-11T00:00:00	2024-11-06T03:00:00	7	Dirección del viento	22.53
187223	7	Sololá	701	Sololá	2	El tablón	11	Noviembre	2023-03-11T00:00:00	2024-11-06T03:00:00	1	Precipitación	0
187224	7	Sololá	701	Sololá	2	El tablón	11	Noviembre	2023-03-11T00:00:00	2024-11-06T03:00:00	8	Radiación solar	0
187225	7	Sololá	701	Sololá	2	El tablón	11	Noviembre	2023-03-11T00:00:00	2024-11-06T04:00:00	2	Temperatura media	11.3
187226	7	Sololá	701	Sololá	2	El tablón	11	Noviembre	2023-03-11T00:00:00	2024-11-06T04:00:00	4	Temperatura máxima	11.4
187227	7	Sololá	701	Sololá	2	El tablón	11	Noviembre	2023-03-11T00:00:00	2024-11-06T04:00:00	3	Temperatura mínima	11.2
187228	7	Sololá	701	Sololá	2	El tablón	11	Noviembre	2023-03-11T00:00:00	2024-11-06T04:00:00	5	Humedad	87
187229	7	Sololá	701	Sololá	2	El tablón	11	Noviembre	2023-03-11T00:00:00	2024-11-06T04:00:00	6	Velocidad del viento	22.5
187230	7	Sololá	701	Sololá	2	El tablón	11	Noviembre	2023-03-11T00:00:00	2024-11-06T04:00:00	7	Dirección del viento	22.53
187231	7	Sololá	701	Sololá	2	El tablón	11	Noviembre	2023-03-11T00:00:00	2024-11-06T04:00:00	1	Precipitación	0
187232	7	Sololá	701	Sololá	2	El tablón	11	Noviembre	2023-03-11T00:00:00	2024-11-06T04:00:00	8	Radiación solar	0
187233	7	Sololá	701	Sololá	2	El tablón	11	Noviembre	2023-03-11T00:00:00	2024-11-06T05:00:00	2	Temperatura media	11.3
187234	7	Sololá	701	Sololá	2	El tablón	11	Noviembre	2023-03-11T00:00:00	2024-11-06T05:00:00	4	Temperatura máxima	11.4
187235	7	Sololá	701	Sololá	2	El tablón	11	Noviembre	2023-03-11T00:00:00	2024-11-06T05:00:00	3	Temperatura mínima	11.2
187236	7	Sololá	701	Sololá	2	El tablón	11	Noviembre	2023-03-11T00:00:00	2024-11-06T05:00:00	5	Humedad	87
187237	7	Sololá	701	Sololá	2	El tablón	11	Noviembre	2023-03-11T00:00:00	2024-11-06T05:00:00	6	Velocidad del viento	22.5
187238	7	Sololá	701	Sololá	2	El tablón	11	Noviembre	2023-03-11T00:00:00	2024-11-06T05:00:00	7	Dirección del viento	22.53
187239	7	Sololá	701	Sololá	2	El tablón	11	Noviembre	2023-03-11T00:00:00	2024-11-06T05:00:00	1	Precipitación	0
187240	7	Sololá	701	Sololá	2	El tablón	11	Noviembre	2023-03-11T00:00:00	2024-11-06T05:00:00	8	Radiación solar	0
187241	7	Sololá	701	Sololá	2	El tablón	11	Noviembre	2023-03-11T00:00:00	2024-11-06T06:00:00	2	Temperatura media	11.8
187242	7	Sololá	701	Sololá	2	El tablón	11	Noviembre	2023-03-11T00:00:00	2024-11-06T06:00:00	4	Temperatura máxima	11.9
187243	7	Sololá	701	Sololá	2	El tablón	11	Noviembre	2023-03-11T00:00:00	2024-11-06T06:00:00	3	Temperatura mínima	11.3
187244	7	Sololá	701	Sololá	2	El tablón	11	Noviembre	2023-03-11T00:00:00	2024-11-06T06:00:00	5	Humedad	83
187245	7	Sololá	701	Sololá	2	El tablón	11	Noviembre	2023-03-11T00:00:00	2024-11-06T06:00:00	6	Velocidad del viento	19.3
187246	7	Sololá	701	Sololá	2	El tablón	11	Noviembre	2023-03-11T00:00:00	2024-11-06T06:00:00	7	Dirección del viento	19.31
187247	7	Sololá	701	Sololá	2	El tablón	11	Noviembre	2023-03-11T00:00:00	2024-11-06T06:00:00	1	Precipitación	0
187248	7	Sololá	701	Sololá	2	El tablón	11	Noviembre	2023-03-11T00:00:00	2024-11-06T06:00:00	8	Radiación solar	0
187249	7	Sololá	701	Sololá	2	El tablón	11	Noviembre	2023-03-11T00:00:00	2024-11-06T07:00:00	2	Temperatura media	11.9
187250	7	Sololá	701	Sololá	2	El tablón	11	Noviembre	2023-03-11T00:00:00	2024-11-06T07:00:00	4	Temperatura máxima	11.9
187251	7	Sololá	701	Sololá	2	El tablón	11	Noviembre	2023-03-11T00:00:00	2024-11-06T07:00:00	3	Temperatura mínima	11.6
187252	7	Sololá	701	Sololá	2	El tablón	11	Noviembre	2023-03-11T00:00:00	2024-11-06T07:00:00	5	Humedad	83
187253	7	Sololá	701	Sololá	2	El tablón	11	Noviembre	2023-03-11T00:00:00	2024-11-06T07:00:00	6	Velocidad del viento	22.5
187254	7	Sololá	701	Sololá	2	El tablón	11	Noviembre	2023-03-11T00:00:00	2024-11-06T07:00:00	7	Dirección del viento	22.53
187255	7	Sololá	701	Sololá	2	El tablón	11	Noviembre	2023-03-11T00:00:00	2024-11-06T07:00:00	1	Precipitación	0
187256	7	Sololá	701	Sololá	2	El tablón	11	Noviembre	2023-03-11T00:00:00	2024-11-06T07:00:00	8	Radiación solar	13
187257	7	Sololá	701	Sololá	2	El tablón	11	Noviembre	2023-03-11T00:00:00	2024-11-06T08:00:00	2	Temperatura media	13.1
187258	7	Sololá	701	Sololá	2	El tablón	11	Noviembre	2023-03-11T00:00:00	2024-11-06T08:00:00	4	Temperatura máxima	13.1
187259	7	Sololá	701	Sololá	2	El tablón	11	Noviembre	2023-03-11T00:00:00	2024-11-06T08:00:00	3	Temperatura mínima	11.9
187260	7	Sololá	701	Sololá	2	El tablón	11	Noviembre	2023-03-11T00:00:00	2024-11-06T08:00:00	5	Humedad	80
187261	7	Sololá	701	Sololá	2	El tablón	11	Noviembre	2023-03-11T00:00:00	2024-11-06T08:00:00	6	Velocidad del viento	22.5
187262	7	Sololá	701	Sololá	2	El tablón	11	Noviembre	2023-03-11T00:00:00	2024-11-06T08:00:00	7	Dirección del viento	22.53
187263	7	Sololá	701	Sololá	2	El tablón	11	Noviembre	2023-03-11T00:00:00	2024-11-06T08:00:00	1	Precipitación	0
187264	7	Sololá	701	Sololá	2	El tablón	11	Noviembre	2023-03-11T00:00:00	2024-11-06T08:00:00	8	Radiación solar	87
187265	7	Sololá	701	Sololá	2	El tablón	11	Noviembre	2023-03-11T00:00:00	2024-11-06T09:00:00	2	Temperatura media	14.3
187266	7	Sololá	701	Sololá	2	El tablón	11	Noviembre	2023-03-11T00:00:00	2024-11-06T09:00:00	4	Temperatura máxima	14.4
187267	7	Sololá	701	Sololá	2	El tablón	11	Noviembre	2023-03-11T00:00:00	2024-11-06T09:00:00	3	Temperatura mínima	13.1
187268	7	Sololá	701	Sololá	2	El tablón	11	Noviembre	2023-03-11T00:00:00	2024-11-06T09:00:00	5	Humedad	78
187269	7	Sololá	701	Sololá	2	El tablón	11	Noviembre	2023-03-11T00:00:00	2024-11-06T09:00:00	6	Velocidad del viento	22.5
187270	7	Sololá	701	Sololá	2	El tablón	11	Noviembre	2023-03-11T00:00:00	2024-11-06T09:00:00	7	Dirección del viento	22.53
187271	7	Sololá	701	Sololá	2	El tablón	11	Noviembre	2023-03-11T00:00:00	2024-11-06T09:00:00	1	Precipitación	0
187272	7	Sololá	701	Sololá	2	El tablón	11	Noviembre	2023-03-11T00:00:00	2024-11-06T09:00:00	8	Radiación solar	247
187273	7	Sololá	701	Sololá	2	El tablón	11	Noviembre	2023-03-11T00:00:00	2024-11-06T10:00:00	2	Temperatura media	14.2
187274	7	Sololá	701	Sololá	2	El tablón	11	Noviembre	2023-03-11T00:00:00	2024-11-06T10:00:00	4	Temperatura máxima	14.3
187275	7	Sololá	701	Sololá	2	El tablón	11	Noviembre	2023-03-11T00:00:00	2024-11-06T10:00:00	3	Temperatura mínima	13.9
187276	7	Sololá	701	Sololá	2	El tablón	11	Noviembre	2023-03-11T00:00:00	2024-11-06T10:00:00	5	Humedad	79
187277	7	Sololá	701	Sololá	2	El tablón	11	Noviembre	2023-03-11T00:00:00	2024-11-06T10:00:00	6	Velocidad del viento	22.5
187278	7	Sololá	701	Sololá	2	El tablón	11	Noviembre	2023-03-11T00:00:00	2024-11-06T10:00:00	7	Dirección del viento	22.53
187279	7	Sololá	701	Sololá	2	El tablón	11	Noviembre	2023-03-11T00:00:00	2024-11-06T10:00:00	1	Precipitación	0
187280	7	Sololá	701	Sololá	2	El tablón	11	Noviembre	2023-03-11T00:00:00	2024-11-06T10:00:00	8	Radiación solar	176
187281	7	Sololá	701	Sololá	2	El tablón	11	Noviembre	2023-03-11T00:00:00	2024-11-06T11:00:00	2	Temperatura media	14.9
187282	7	Sololá	701	Sololá	2	El tablón	11	Noviembre	2023-03-11T00:00:00	2024-11-06T11:00:00	4	Temperatura máxima	14.9
187283	7	Sololá	701	Sololá	2	El tablón	11	Noviembre	2023-03-11T00:00:00	2024-11-06T11:00:00	3	Temperatura mínima	14.1
187284	7	Sololá	701	Sololá	2	El tablón	11	Noviembre	2023-03-11T00:00:00	2024-11-06T11:00:00	5	Humedad	79
187285	7	Sololá	701	Sololá	2	El tablón	11	Noviembre	2023-03-11T00:00:00	2024-11-06T11:00:00	6	Velocidad del viento	20.9
187286	7	Sololá	701	Sololá	2	El tablón	11	Noviembre	2023-03-11T00:00:00	2024-11-06T11:00:00	7	Dirección del viento	20.92
187287	7	Sololá	701	Sololá	2	El tablón	11	Noviembre	2023-03-11T00:00:00	2024-11-06T11:00:00	1	Precipitación	0
187288	7	Sololá	701	Sololá	2	El tablón	11	Noviembre	2023-03-11T00:00:00	2024-11-06T11:00:00	8	Radiación solar	255
187289	7	Sololá	701	Sololá	2	El tablón	11	Noviembre	2023-03-11T00:00:00	2024-11-06T12:00:00	2	Temperatura media	16.4
187290	7	Sololá	701	Sololá	2	El tablón	11	Noviembre	2023-03-11T00:00:00	2024-11-06T12:00:00	4	Temperatura máxima	16.4
187291	7	Sololá	701	Sololá	2	El tablón	11	Noviembre	2023-03-11T00:00:00	2024-11-06T12:00:00	3	Temperatura mínima	14.9
187292	7	Sololá	701	Sololá	2	El tablón	11	Noviembre	2023-03-11T00:00:00	2024-11-06T12:00:00	5	Humedad	76
187293	7	Sololá	701	Sololá	2	El tablón	11	Noviembre	2023-03-11T00:00:00	2024-11-06T12:00:00	6	Velocidad del viento	20.9
187294	7	Sololá	701	Sololá	2	El tablón	11	Noviembre	2023-03-11T00:00:00	2024-11-06T12:00:00	7	Dirección del viento	20.92
187295	7	Sololá	701	Sololá	2	El tablón	11	Noviembre	2023-03-11T00:00:00	2024-11-06T12:00:00	1	Precipitación	0
187296	7	Sololá	701	Sololá	2	El tablón	11	Noviembre	2023-03-11T00:00:00	2024-11-06T12:00:00	8	Radiación solar	416
187297	7	Sololá	701	Sololá	2	El tablón	11	Noviembre	2023-03-11T00:00:00	2024-11-06T13:00:00	2	Temperatura media	15.7
187298	7	Sololá	701	Sololá	2	El tablón	11	Noviembre	2023-03-11T00:00:00	2024-11-06T13:00:00	4	Temperatura máxima	16.4
187299	7	Sololá	701	Sololá	2	El tablón	11	Noviembre	2023-03-11T00:00:00	2024-11-06T13:00:00	3	Temperatura mínima	15.7
187300	7	Sololá	701	Sololá	2	El tablón	11	Noviembre	2023-03-11T00:00:00	2024-11-06T13:00:00	5	Humedad	79
187301	7	Sololá	701	Sololá	2	El tablón	11	Noviembre	2023-03-11T00:00:00	2024-11-06T13:00:00	6	Velocidad del viento	24.1
187302	7	Sololá	701	Sololá	2	El tablón	11	Noviembre	2023-03-11T00:00:00	2024-11-06T13:00:00	7	Dirección del viento	24.14
187303	7	Sololá	701	Sololá	2	El tablón	11	Noviembre	2023-03-11T00:00:00	2024-11-06T13:00:00	1	Precipitación	0
187304	7	Sololá	701	Sololá	2	El tablón	11	Noviembre	2023-03-11T00:00:00	2024-11-06T13:00:00	8	Radiación solar	450
187305	7	Sololá	701	Sololá	2	El tablón	11	Noviembre	2023-03-11T00:00:00	2024-11-06T14:00:00	2	Temperatura media	14.5
187306	7	Sololá	701	Sololá	2	El tablón	11	Noviembre	2023-03-11T00:00:00	2024-11-06T14:00:00	4	Temperatura máxima	15.7
187307	7	Sololá	701	Sololá	2	El tablón	11	Noviembre	2023-03-11T00:00:00	2024-11-06T14:00:00	3	Temperatura mínima	14.5
187308	7	Sololá	701	Sololá	2	El tablón	11	Noviembre	2023-03-11T00:00:00	2024-11-06T14:00:00	5	Humedad	81
187309	7	Sololá	701	Sololá	2	El tablón	11	Noviembre	2023-03-11T00:00:00	2024-11-06T14:00:00	6	Velocidad del viento	19.3
187310	7	Sololá	701	Sololá	2	El tablón	11	Noviembre	2023-03-11T00:00:00	2024-11-06T14:00:00	7	Dirección del viento	19.31
187311	7	Sololá	701	Sololá	2	El tablón	11	Noviembre	2023-03-11T00:00:00	2024-11-06T14:00:00	1	Precipitación	0
187312	7	Sololá	701	Sololá	2	El tablón	11	Noviembre	2023-03-11T00:00:00	2024-11-06T14:00:00	8	Radiación solar	234
187313	7	Sololá	701	Sololá	2	El tablón	11	Noviembre	2023-03-11T00:00:00	2024-11-06T15:00:00	2	Temperatura media	14.8
187314	7	Sololá	701	Sololá	2	El tablón	11	Noviembre	2023-03-11T00:00:00	2024-11-06T15:00:00	4	Temperatura máxima	14.8
187315	7	Sololá	701	Sololá	2	El tablón	11	Noviembre	2023-03-11T00:00:00	2024-11-06T15:00:00	3	Temperatura mínima	14.3
187316	7	Sololá	701	Sololá	2	El tablón	11	Noviembre	2023-03-11T00:00:00	2024-11-06T15:00:00	5	Humedad	81
187317	7	Sololá	701	Sololá	2	El tablón	11	Noviembre	2023-03-11T00:00:00	2024-11-06T15:00:00	6	Velocidad del viento	17.7
187318	7	Sololá	701	Sololá	2	El tablón	11	Noviembre	2023-03-11T00:00:00	2024-11-06T15:00:00	7	Dirección del viento	17.7
187319	7	Sololá	701	Sololá	2	El tablón	11	Noviembre	2023-03-11T00:00:00	2024-11-06T15:00:00	1	Precipitación	0
187320	7	Sololá	701	Sololá	2	El tablón	11	Noviembre	2023-03-11T00:00:00	2024-11-06T15:00:00	8	Radiación solar	147
187321	7	Sololá	701	Sololá	2	El tablón	11	Noviembre	2023-03-11T00:00:00	2024-11-06T16:00:00	2	Temperatura media	14.6
187322	7	Sololá	701	Sololá	2	El tablón	11	Noviembre	2023-03-11T00:00:00	2024-11-06T16:00:00	4	Temperatura máxima	14.9
187323	7	Sololá	701	Sololá	2	El tablón	11	Noviembre	2023-03-11T00:00:00	2024-11-06T16:00:00	3	Temperatura mínima	14.6
187324	7	Sololá	701	Sololá	2	El tablón	11	Noviembre	2023-03-11T00:00:00	2024-11-06T16:00:00	5	Humedad	83
187325	7	Sololá	701	Sololá	2	El tablón	11	Noviembre	2023-03-11T00:00:00	2024-11-06T16:00:00	6	Velocidad del viento	17.7
187326	7	Sololá	701	Sololá	2	El tablón	11	Noviembre	2023-03-11T00:00:00	2024-11-06T16:00:00	7	Dirección del viento	17.7
187327	7	Sololá	701	Sololá	2	El tablón	11	Noviembre	2023-03-11T00:00:00	2024-11-06T16:00:00	1	Precipitación	0
187328	7	Sololá	701	Sololá	2	El tablón	11	Noviembre	2023-03-11T00:00:00	2024-11-06T16:00:00	8	Radiación solar	146
187329	7	Sololá	701	Sololá	2	El tablón	11	Noviembre	2023-03-11T00:00:00	2024-11-06T17:00:00	2	Temperatura media	13.7
187330	7	Sololá	701	Sololá	2	El tablón	11	Noviembre	2023-03-11T00:00:00	2024-11-06T17:00:00	4	Temperatura máxima	14.6
187331	7	Sololá	701	Sololá	2	El tablón	11	Noviembre	2023-03-11T00:00:00	2024-11-06T17:00:00	3	Temperatura mínima	13.7
187332	7	Sololá	701	Sololá	2	El tablón	11	Noviembre	2023-03-11T00:00:00	2024-11-06T17:00:00	5	Humedad	84
